<?xml version='1.0' encoding='UTF-8'?><gpx version="1.1" creator="JPX - https://github.com/jenetics/jpx" xmlns="http://www.topografix.com/GPX/1/1"><trk><trkseg><trkpt lat="45.3211573" lon="9.3754695"><ele>84.2</ele><time>2026-04-29T07:16:22.819Z</time></trkpt><trkpt lat="45.3211003" lon="9.3755787"><ele>84.4</ele><time>2026-04-29T07:16:24.819Z</time></trkpt><trkpt lat="45.3210168" lon="9.3757179"><ele>84.6</ele><time>2026-04-29T07:16:26.819Z</time></trkpt><trkpt lat="45.3209684" lon="9.3757946"><ele>84.8</ele><time>2026-04-29T07:16:27.818Z</time></trkpt><trkpt lat="45.3209165" lon="9.3758803"><ele>85.0</ele><time>2026-04-29T07:16:28.819Z</time></trkpt><trkpt lat="45.3208713" lon="9.3759776"><ele>85.0</ele><time>2026-04-29T07:16:29.819Z</time></trkpt><trkpt lat="45.3208333" lon="9.3760843"><ele>85.0</ele><time>2026-04-29T07:16:30.819Z</time></trkpt><trkpt lat="45.3208019" lon="9.376188"><ele>85.0</ele><time>2026-04-29T07:16:31.819Z</time></trkpt><trkpt lat="45.3207796" lon="9.3762912"><ele>85.0</ele><time>2026-04-29T07:16:32.819Z</time></trkpt><trkpt lat="45.320759" lon="9.3763925"><ele>85.0</ele><time>2026-04-29T07:16:33.818Z</time></trkpt><trkpt lat="45.3207378" lon="9.3764879"><ele>85.0</ele><time>2026-04-29T07:16:34.819Z</time></trkpt><trkpt lat="45.3207138" lon="9.3765785"><ele>85.0</ele><time>2026-04-29T07:16:35.819Z</time></trkpt><trkpt lat="45.3206843" lon="9.3766621"><ele>85.0</ele><time>2026-04-29T07:16:36.819Z</time></trkpt><trkpt lat="45.3206471" lon="9.3767444"><ele>85.0</ele><time>2026-04-29T07:16:37.819Z</time></trkpt><trkpt lat="45.3205973" lon="9.3768238"><ele>85.0</ele><time>2026-04-29T07:16:38.819Z</time></trkpt><trkpt lat="45.3205378" lon="9.3768971"><ele>85.0</ele><time>2026-04-29T07:16:39.818Z</time></trkpt><trkpt lat="45.3204688" lon="9.3769697"><ele>85.0</ele><time>2026-04-29T07:16:40.819Z</time></trkpt><trkpt lat="45.3203991" lon="9.3770543"><ele>85.2</ele><time>2026-04-29T07:16:41.819Z</time></trkpt><trkpt lat="45.3203284" lon="9.3771485"><ele>85.4</ele><time>2026-04-29T07:16:42.819Z</time></trkpt><trkpt lat="45.3202557" lon="9.3772568"><ele>85.6</ele><time>2026-04-29T07:16:43.818Z</time></trkpt><trkpt lat="45.320186" lon="9.3773781"><ele>85.8</ele><time>2026-04-29T07:16:44.819Z</time></trkpt><trkpt lat="45.3201208" lon="9.3775142"><ele>86.0</ele><time>2026-04-29T07:16:45.819Z</time></trkpt><trkpt lat="45.3200596" lon="9.3776604"><ele>86.0</ele><time>2026-04-29T07:16:46.818Z</time></trkpt><trkpt lat="45.319994" lon="9.3778123"><ele>86.0</ele><time>2026-04-29T07:16:47.819Z</time></trkpt><trkpt lat="45.3199248" lon="9.3779685"><ele>86.0</ele><time>2026-04-29T07:16:48.818Z</time></trkpt><trkpt lat="45.3198453" lon="9.3781242"><ele>86.0</ele><time>2026-04-29T07:16:49.819Z</time></trkpt><trkpt lat="45.3197594" lon="9.3782727"><ele>85.75</ele><time>2026-04-29T07:16:50.819Z</time></trkpt><trkpt lat="45.319668" lon="9.3784187"><ele>85.5</ele><time>2026-04-29T07:16:51.819Z</time></trkpt><trkpt lat="45.3195715" lon="9.3785728"><ele>85.25</ele><time>2026-04-29T07:16:52.819Z</time></trkpt><trkpt lat="45.3194693" lon="9.3787313"><ele>85.0</ele><time>2026-04-29T07:16:53.819Z</time></trkpt><trkpt lat="45.3193641" lon="9.3788963"><ele>84.66666666666666</ele><time>2026-04-29T07:16:54.819Z</time></trkpt><trkpt lat="45.3192553" lon="9.3790642"><ele>84.33333333333333</ele><time>2026-04-29T07:16:55.819Z</time></trkpt><trkpt lat="45.3191475" lon="9.3792337"><ele>84.0</ele><time>2026-04-29T07:16:56.819Z</time></trkpt><trkpt lat="45.3190398" lon="9.3794091"><ele>84.0</ele><time>2026-04-29T07:16:57.819Z</time></trkpt><trkpt lat="45.3189311" lon="9.3795897"><ele>84.0</ele><time>2026-04-29T07:16:58.819Z</time></trkpt><trkpt lat="45.3188191" lon="9.3797707"><ele>84.0</ele><time>2026-04-29T07:16:59.818Z</time></trkpt><trkpt lat="45.3187063" lon="9.3799557"><ele>83.33333333333333</ele><time>2026-04-29T07:17:00.819Z</time></trkpt><trkpt lat="45.3185926" lon="9.3801432"><ele>82.66666666666666</ele><time>2026-04-29T07:17:01.819Z</time></trkpt><trkpt lat="45.318477" lon="9.3803301"><ele>82.0</ele><time>2026-04-29T07:17:02.819Z</time></trkpt><trkpt lat="45.3183601" lon="9.3805114"><ele>82.0</ele><time>2026-04-29T07:17:03.819Z</time></trkpt><trkpt lat="45.3182453" lon="9.3806878"><ele>82.0</ele><time>2026-04-29T07:17:04.819Z</time></trkpt><trkpt lat="45.3181359" lon="9.3808556"><ele>82.0</ele><time>2026-04-29T07:17:05.819Z</time></trkpt><trkpt lat="45.3180247" lon="9.3810254"><ele>82.0</ele><time>2026-04-29T07:17:06.819Z</time></trkpt><trkpt lat="45.317912" lon="9.3811994"><ele>82.0</ele><time>2026-04-29T07:17:07.818Z</time></trkpt><trkpt lat="45.3177956" lon="9.3813768"><ele>82.0</ele><time>2026-04-29T07:17:08.819Z</time></trkpt><trkpt lat="45.3176789" lon="9.3815594"><ele>82.0</ele><time>2026-04-29T07:17:09.819Z</time></trkpt><trkpt lat="45.3175582" lon="9.3817444"><ele>82.0</ele><time>2026-04-29T07:17:10.819Z</time></trkpt><trkpt lat="45.3174337" lon="9.3819313"><ele>82.0</ele><time>2026-04-29T07:17:11.818Z</time></trkpt><trkpt lat="45.3173078" lon="9.382125"><ele>82.0</ele><time>2026-04-29T07:17:12.819Z</time></trkpt><trkpt lat="45.3171771" lon="9.3823248"><ele>82.0</ele><time>2026-04-29T07:17:13.819Z</time></trkpt><trkpt lat="45.3170452" lon="9.3825275"><ele>82.0</ele><time>2026-04-29T07:17:14.819Z</time></trkpt><trkpt lat="45.3169095" lon="9.3827346"><ele>82.0</ele><time>2026-04-29T07:17:15.819Z</time></trkpt><trkpt lat="45.3167697" lon="9.3829481"><ele>82.0</ele><time>2026-04-29T07:17:16.819Z</time></trkpt><trkpt lat="45.3166276" lon="9.3831658"><ele>82.0</ele><time>2026-04-29T07:17:17.819Z</time></trkpt><trkpt lat="45.3164836" lon="9.3833868"><ele>81.66666666666666</ele><time>2026-04-29T07:17:18.819Z</time></trkpt><trkpt lat="45.3163382" lon="9.3836127"><ele>81.33333333333333</ele><time>2026-04-29T07:17:19.819Z</time></trkpt><trkpt lat="45.3161924" lon="9.3838366"><ele>81.0</ele><time>2026-04-29T07:17:20.819Z</time></trkpt><trkpt lat="45.3160475" lon="9.3840618"><ele>81.0</ele><time>2026-04-29T07:17:21.818Z</time></trkpt><trkpt lat="45.3159086" lon="9.3842745"><ele>81.0</ele><time>2026-04-29T07:17:22.819Z</time></trkpt><trkpt lat="45.3157714" lon="9.3844836"><ele>81.0</ele><time>2026-04-29T07:17:23.819Z</time></trkpt><trkpt lat="45.3156338" lon="9.3846942"><ele>81.33333333333333</ele><time>2026-04-29T07:17:24.818Z</time></trkpt><trkpt lat="45.3154973" lon="9.3849049"><ele>81.66666666666666</ele><time>2026-04-29T07:17:25.819Z</time></trkpt><trkpt lat="45.3153602" lon="9.3851189"><ele>82.0</ele><time>2026-04-29T07:17:26.818Z</time></trkpt><trkpt lat="45.3152196" lon="9.3853345"><ele>81.33333333333333</ele><time>2026-04-29T07:17:27.819Z</time></trkpt><trkpt lat="45.3150784" lon="9.3855512"><ele>80.66666666666667</ele><time>2026-04-29T07:17:28.819Z</time></trkpt><trkpt lat="45.3149337" lon="9.3857725"><ele>80.0</ele><time>2026-04-29T07:17:29.819Z</time></trkpt><trkpt lat="45.3147885" lon="9.385996"><ele>80.33333333333334</ele><time>2026-04-29T07:17:30.819Z</time></trkpt><trkpt lat="45.3146424" lon="9.3862204"><ele>80.66666666666667</ele><time>2026-04-29T07:17:31.818Z</time></trkpt><trkpt lat="45.3144894" lon="9.3864509"><ele>81.0</ele><time>2026-04-29T07:17:32.819Z</time></trkpt><trkpt lat="45.3143319" lon="9.3866904"><ele>81.0</ele><time>2026-04-29T07:17:33.819Z</time></trkpt><trkpt lat="45.3141746" lon="9.3869369"><ele>81.0</ele><time>2026-04-29T07:17:34.819Z</time></trkpt><trkpt lat="45.3140118" lon="9.3871856"><ele>81.0</ele><time>2026-04-29T07:17:35.819Z</time></trkpt><trkpt lat="45.3138458" lon="9.3874398"><ele>81.0</ele><time>2026-04-29T07:17:36.819Z</time></trkpt><trkpt lat="45.3136787" lon="9.3876963"><ele>81.0</ele><time>2026-04-29T07:17:37.819Z</time></trkpt><trkpt lat="45.3135093" lon="9.3879556"><ele>81.0</ele><time>2026-04-29T07:17:38.819Z</time></trkpt><trkpt lat="45.3133377" lon="9.3882191"><ele>81.0</ele><time>2026-04-29T07:17:39.819Z</time></trkpt><trkpt lat="45.3131644" lon="9.3884865"><ele>81.0</ele><time>2026-04-29T07:17:40.819Z</time></trkpt><trkpt lat="45.3129901" lon="9.3887535"><ele>81.0</ele><time>2026-04-29T07:17:41.819Z</time></trkpt><trkpt lat="45.3128154" lon="9.3890232"><ele>81.0</ele><time>2026-04-29T07:17:42.819Z</time></trkpt><trkpt lat="45.3126406" lon="9.3892915"><ele>81.0</ele><time>2026-04-29T07:17:43.819Z</time></trkpt><trkpt lat="45.3124653" lon="9.3895604"><ele>81.0</ele><time>2026-04-29T07:17:44.819Z</time></trkpt><trkpt lat="45.3122911" lon="9.3898279"><ele>80.5</ele><time>2026-04-29T07:17:45.819Z</time></trkpt><trkpt lat="45.3121246" lon="9.3900857"><ele>80.0</ele><time>2026-04-29T07:17:46.818Z</time></trkpt><trkpt lat="45.3119646" lon="9.3903295"><ele>80.0</ele><time>2026-04-29T07:17:47.819Z</time></trkpt><trkpt lat="45.3118125" lon="9.3905653"><ele>80.0</ele><time>2026-04-29T07:17:48.819Z</time></trkpt><trkpt lat="45.3116669" lon="9.3907879"><ele>80.0</ele><time>2026-04-29T07:17:49.819Z</time></trkpt><trkpt lat="45.3115223" lon="9.3910048"><ele>80.0</ele><time>2026-04-29T07:17:50.819Z</time></trkpt><trkpt lat="45.3113766" lon="9.3912273"><ele>80.0</ele><time>2026-04-29T07:17:51.819Z</time></trkpt><trkpt lat="45.3112294" lon="9.391451"><ele>80.0</ele><time>2026-04-29T07:17:52.819Z</time></trkpt><trkpt lat="45.311084" lon="9.3916741"><ele>80.0</ele><time>2026-04-29T07:17:53.819Z</time></trkpt><trkpt lat="45.3109343" lon="9.3918992"><ele>80.0</ele><time>2026-04-29T07:17:54.818Z</time></trkpt><trkpt lat="45.3107854" lon="9.3921271"><ele>80.0</ele><time>2026-04-29T07:17:55.819Z</time></trkpt><trkpt lat="45.3106341" lon="9.392358"><ele>80.33333333333334</ele><time>2026-04-29T07:17:56.819Z</time></trkpt><trkpt lat="45.310485" lon="9.3925902"><ele>80.66666666666667</ele><time>2026-04-29T07:17:57.819Z</time></trkpt><trkpt lat="45.310334" lon="9.392822"><ele>81.0</ele><time>2026-04-29T07:17:58.818Z</time></trkpt><trkpt lat="45.3101839" lon="9.393051"><ele>81.0</ele><time>2026-04-29T07:17:59.818Z</time></trkpt><trkpt lat="45.310033" lon="9.3932785"><ele>81.0</ele><time>2026-04-29T07:18:00.819Z</time></trkpt><trkpt lat="45.3098874" lon="9.3935023"><ele>81.0</ele><time>2026-04-29T07:18:01.819Z</time></trkpt><trkpt lat="45.309741" lon="9.3937254"><ele>81.0</ele><time>2026-04-29T07:18:02.819Z</time></trkpt><trkpt lat="45.3095947" lon="9.3939517"><ele>81.0</ele><time>2026-04-29T07:18:03.818Z</time></trkpt><trkpt lat="45.309449" lon="9.3941767"><ele>81.0</ele><time>2026-04-29T07:18:04.819Z</time></trkpt><trkpt lat="45.3093022" lon="9.3944029"><ele>81.0</ele><time>2026-04-29T07:18:05.819Z</time></trkpt><trkpt lat="45.3091533" lon="9.3946288"><ele>81.0</ele><time>2026-04-29T07:18:06.819Z</time></trkpt><trkpt lat="45.3090027" lon="9.3948575"><ele>81.0</ele><time>2026-04-29T07:18:07.819Z</time></trkpt><trkpt lat="45.3088522" lon="9.3950897"><ele>81.0</ele><time>2026-04-29T07:18:08.819Z</time></trkpt><trkpt lat="45.3087015" lon="9.3953224"><ele>81.0</ele><time>2026-04-29T07:18:09.819Z</time></trkpt><trkpt lat="45.3085503" lon="9.3955559"><ele>81.0</ele><time>2026-04-29T07:18:10.819Z</time></trkpt><trkpt lat="45.3083971" lon="9.3957902"><ele>81.0</ele><time>2026-04-29T07:18:11.819Z</time></trkpt><trkpt lat="45.3082438" lon="9.396024"><ele>81.0</ele><time>2026-04-29T07:18:12.819Z</time></trkpt><trkpt lat="45.3080894" lon="9.3962583"><ele>80.66666666666667</ele><time>2026-04-29T07:18:13.819Z</time></trkpt><trkpt lat="45.3079368" lon="9.3964934"><ele>80.33333333333334</ele><time>2026-04-29T07:18:14.819Z</time></trkpt><trkpt lat="45.3077893" lon="9.3967204"><ele>80.0</ele><time>2026-04-29T07:18:15.819Z</time></trkpt><trkpt lat="45.3076423" lon="9.3969486"><ele>80.0</ele><time>2026-04-29T07:18:16.818Z</time></trkpt><trkpt lat="45.3074967" lon="9.3971737"><ele>80.0</ele><time>2026-04-29T07:18:17.819Z</time></trkpt><trkpt lat="45.3073514" lon="9.3973961"><ele>80.0</ele><time>2026-04-29T07:18:18.818Z</time></trkpt><trkpt lat="45.3072085" lon="9.3976176"><ele>80.0</ele><time>2026-04-29T07:18:19.819Z</time></trkpt><trkpt lat="45.3070656" lon="9.3978381"><ele>80.0</ele><time>2026-04-29T07:18:20.819Z</time></trkpt><trkpt lat="45.3069227" lon="9.3980584"><ele>80.0</ele><time>2026-04-29T07:18:21.819Z</time></trkpt><trkpt lat="45.3067784" lon="9.3982793"><ele>80.33333333333334</ele><time>2026-04-29T07:18:22.819Z</time></trkpt><trkpt lat="45.306633" lon="9.3985028"><ele>80.66666666666667</ele><time>2026-04-29T07:18:23.819Z</time></trkpt><trkpt lat="45.3064871" lon="9.39873"><ele>81.0</ele><time>2026-04-29T07:18:24.819Z</time></trkpt><trkpt lat="45.3063366" lon="9.3989573"><ele>81.0</ele><time>2026-04-29T07:18:25.819Z</time></trkpt><trkpt lat="45.3061845" lon="9.3991942"><ele>81.0</ele><time>2026-04-29T07:18:26.819Z</time></trkpt><trkpt lat="45.3060312" lon="9.3994328"><ele>81.0</ele><time>2026-04-29T07:18:27.819Z</time></trkpt><trkpt lat="45.3058755" lon="9.3996765"><ele>81.0</ele><time>2026-04-29T07:18:28.819Z</time></trkpt><trkpt lat="45.3057175" lon="9.3999243"><ele>81.0</ele><time>2026-04-29T07:18:29.819Z</time></trkpt><trkpt lat="45.3055589" lon="9.4001769"><ele>81.0</ele><time>2026-04-29T07:18:30.819Z</time></trkpt><trkpt lat="45.3053969" lon="9.4004349"><ele>81.0</ele><time>2026-04-29T07:18:31.819Z</time></trkpt><trkpt lat="45.3052322" lon="9.4006942"><ele>81.0</ele><time>2026-04-29T07:18:32.818Z</time></trkpt><trkpt lat="45.3050657" lon="9.4009512"><ele>81.0</ele><time>2026-04-29T07:18:33.819Z</time></trkpt><trkpt lat="45.3048975" lon="9.4012055"><ele>81.0</ele><time>2026-04-29T07:18:34.819Z</time></trkpt><trkpt lat="45.3047319" lon="9.4014534"><ele>81.0</ele><time>2026-04-29T07:18:35.819Z</time></trkpt><trkpt lat="45.3045699" lon="9.4016968"><ele>81.0</ele><time>2026-04-29T07:18:36.819Z</time></trkpt><trkpt lat="45.3044063" lon="9.4019395"><ele>80.0</ele><time>2026-04-29T07:18:37.819Z</time></trkpt><trkpt lat="45.3042419" lon="9.4021806"><ele>79.0</ele><time>2026-04-29T07:18:38.819Z</time></trkpt><trkpt lat="45.3040745" lon="9.4024227"><ele>80.0</ele><time>2026-04-29T07:18:39.819Z</time></trkpt><trkpt lat="45.3039085" lon="9.4026649"><ele>81.0</ele><time>2026-04-29T07:18:40.819Z</time></trkpt><trkpt lat="45.3037407" lon="9.4029051"><ele>80.0</ele><time>2026-04-29T07:18:41.819Z</time></trkpt><trkpt lat="45.3035707" lon="9.4031504"><ele>79.0</ele><time>2026-04-29T07:18:42.819Z</time></trkpt><trkpt lat="45.3033997" lon="9.4033932"><ele>79.0</ele><time>2026-04-29T07:18:43.818Z</time></trkpt><trkpt lat="45.3032249" lon="9.4036382"><ele>79.0</ele><time>2026-04-29T07:18:44.818Z</time></trkpt><trkpt lat="45.3030443" lon="9.4038865"><ele>79.0</ele><time>2026-04-29T07:18:45.819Z</time></trkpt><trkpt lat="45.3028636" lon="9.4041352"><ele>79.0</ele><time>2026-04-29T07:18:46.819Z</time></trkpt><trkpt lat="45.3026828" lon="9.404385"><ele>79.0</ele><time>2026-04-29T07:18:47.819Z</time></trkpt><trkpt lat="45.3025006" lon="9.4046332"><ele>79.0</ele><time>2026-04-29T07:18:48.819Z</time></trkpt><trkpt lat="45.3023183" lon="9.4048781"><ele>77.5</ele><time>2026-04-29T07:18:49.818Z</time></trkpt><trkpt lat="45.3021347" lon="9.4051205"><ele>76.0</ele><time>2026-04-29T07:18:50.819Z</time></trkpt><trkpt lat="45.3019515" lon="9.4053656"><ele>77.5</ele><time>2026-04-29T07:18:51.818Z</time></trkpt><trkpt lat="45.3017693" lon="9.4056099"><ele>79.0</ele><time>2026-04-29T07:18:52.819Z</time></trkpt><trkpt lat="45.3015886" lon="9.4058576"><ele>79.0</ele><time>2026-04-29T07:18:53.819Z</time></trkpt><trkpt lat="45.3014089" lon="9.4061062"><ele>79.0</ele><time>2026-04-29T07:18:54.819Z</time></trkpt><trkpt lat="45.3012273" lon="9.4063561"><ele>79.5</ele><time>2026-04-29T07:18:55.819Z</time></trkpt><trkpt lat="45.3010463" lon="9.4066091"><ele>80.0</ele><time>2026-04-29T07:18:56.818Z</time></trkpt><trkpt lat="45.3008659" lon="9.4068613"><ele>80.0</ele><time>2026-04-29T07:18:57.819Z</time></trkpt><trkpt lat="45.3006851" lon="9.4071101"><ele>80.0</ele><time>2026-04-29T07:18:58.819Z</time></trkpt><trkpt lat="45.3005052" lon="9.4073588"><ele>80.0</ele><time>2026-04-29T07:18:59.818Z</time></trkpt><trkpt lat="45.3003255" lon="9.4076064"><ele>80.0</ele><time>2026-04-29T07:19:00.819Z</time></trkpt><trkpt lat="45.3001452" lon="9.4078566"><ele>80.0</ele><time>2026-04-29T07:19:01.819Z</time></trkpt><trkpt lat="45.2999663" lon="9.4081068"><ele>80.0</ele><time>2026-04-29T07:19:02.819Z</time></trkpt><trkpt lat="45.2997876" lon="9.4083597"><ele>80.0</ele><time>2026-04-29T07:19:03.819Z</time></trkpt><trkpt lat="45.2996091" lon="9.4086143"><ele>80.0</ele><time>2026-04-29T07:19:04.819Z</time></trkpt><trkpt lat="45.2994298" lon="9.4088698"><ele>79.0</ele><time>2026-04-29T07:19:05.819Z</time></trkpt><trkpt lat="45.2992508" lon="9.4091266"><ele>78.0</ele><time>2026-04-29T07:19:06.818Z</time></trkpt><trkpt lat="45.2990724" lon="9.4093831"><ele>78.0</ele><time>2026-04-29T07:19:07.819Z</time></trkpt><trkpt lat="45.2988963" lon="9.4096366"><ele>78.0</ele><time>2026-04-29T07:19:08.819Z</time></trkpt><trkpt lat="45.2987234" lon="9.4098856"><ele>77.5</ele><time>2026-04-29T07:19:09.819Z</time></trkpt><trkpt lat="45.2985508" lon="9.4101343"><ele>77.0</ele><time>2026-04-29T07:19:10.819Z</time></trkpt><trkpt lat="45.2983791" lon="9.4103827"><ele>77.0</ele><time>2026-04-29T07:19:11.819Z</time></trkpt><trkpt lat="45.2982058" lon="9.4106316"><ele>77.0</ele><time>2026-04-29T07:19:12.819Z</time></trkpt><trkpt lat="45.2980346" lon="9.4108861"><ele>77.0</ele><time>2026-04-29T07:19:13.819Z</time></trkpt><trkpt lat="45.297864" lon="9.4111416"><ele>77.0</ele><time>2026-04-29T07:19:14.819Z</time></trkpt><trkpt lat="45.297694" lon="9.4114024"><ele>77.0</ele><time>2026-04-29T07:19:15.819Z</time></trkpt><trkpt lat="45.2975243" lon="9.4116677"><ele>77.0</ele><time>2026-04-29T07:19:16.819Z</time></trkpt><trkpt lat="45.2973535" lon="9.4119327"><ele>78.0</ele><time>2026-04-29T07:19:17.819Z</time></trkpt><trkpt lat="45.2971847" lon="9.4121982"><ele>79.0</ele><time>2026-04-29T07:19:18.819Z</time></trkpt><trkpt lat="45.2970142" lon="9.4124648"><ele>79.0</ele><time>2026-04-29T07:19:19.818Z</time></trkpt><trkpt lat="45.2968432" lon="9.4127359"><ele>79.0</ele><time>2026-04-29T07:19:20.819Z</time></trkpt><trkpt lat="45.29667" lon="9.413009"><ele>78.5</ele><time>2026-04-29T07:19:21.819Z</time></trkpt><trkpt lat="45.2964977" lon="9.4132849"><ele>78.0</ele><time>2026-04-29T07:19:22.818Z</time></trkpt><trkpt lat="45.2963239" lon="9.413563"><ele>77.0</ele><time>2026-04-29T07:19:23.819Z</time></trkpt><trkpt lat="45.2961496" lon="9.4138424"><ele>76.0</ele><time>2026-04-29T07:19:24.819Z</time></trkpt><trkpt lat="45.295976" lon="9.4141218"><ele>76.0</ele><time>2026-04-29T07:19:25.819Z</time></trkpt><trkpt lat="45.2958015" lon="9.4144034"><ele>76.0</ele><time>2026-04-29T07:19:26.818Z</time></trkpt><trkpt lat="45.2956265" lon="9.4146861"><ele>76.0</ele><time>2026-04-29T07:19:27.819Z</time></trkpt><trkpt lat="45.2954505" lon="9.4149689"><ele>76.0</ele><time>2026-04-29T07:19:28.819Z</time></trkpt><trkpt lat="45.2952758" lon="9.415255"><ele>76.5</ele><time>2026-04-29T07:19:29.818Z</time></trkpt><trkpt lat="45.2950994" lon="9.4155438"><ele>77.0</ele><time>2026-04-29T07:19:30.819Z</time></trkpt><trkpt lat="45.2949236" lon="9.4158334"><ele>77.0</ele><time>2026-04-29T07:19:31.818Z</time></trkpt><trkpt lat="45.294748" lon="9.4161244"><ele>77.0</ele><time>2026-04-29T07:19:32.819Z</time></trkpt><trkpt lat="45.2945765" lon="9.416408"><ele>76.5</ele><time>2026-04-29T07:19:33.819Z</time></trkpt><trkpt lat="45.294409" lon="9.4166877"><ele>76.0</ele><time>2026-04-29T07:19:34.819Z</time></trkpt><trkpt lat="45.2942431" lon="9.4169671"><ele>76.5</ele><time>2026-04-29T07:19:35.819Z</time></trkpt><trkpt lat="45.29408" lon="9.417244"><ele>77.0</ele><time>2026-04-29T07:19:36.819Z</time></trkpt><trkpt lat="45.2939202" lon="9.417517"><ele>77.0</ele><time>2026-04-29T07:19:37.819Z</time></trkpt><trkpt lat="45.2937652" lon="9.4177806"><ele>77.0</ele><time>2026-04-29T07:19:38.819Z</time></trkpt><trkpt lat="45.2936127" lon="9.4180414"><ele>76.0</ele><time>2026-04-29T07:19:39.819Z</time></trkpt><trkpt lat="45.2934636" lon="9.4182983"><ele>75.0</ele><time>2026-04-29T07:19:40.819Z</time></trkpt><trkpt lat="45.2933181" lon="9.4185522"><ele>75.0</ele><time>2026-04-29T07:19:41.819Z</time></trkpt><trkpt lat="45.2931798" lon="9.4187964"><ele>75.0</ele><time>2026-04-29T07:19:42.819Z</time></trkpt><trkpt lat="45.2930406" lon="9.4190427"><ele>75.0</ele><time>2026-04-29T07:19:43.818Z</time></trkpt><trkpt lat="45.2929002" lon="9.4192906"><ele>75.0</ele><time>2026-04-29T07:19:44.819Z</time></trkpt><trkpt lat="45.2927593" lon="9.4195413"><ele>75.0</ele><time>2026-04-29T07:19:45.819Z</time></trkpt><trkpt lat="45.2926166" lon="9.4197971"><ele>75.0</ele><time>2026-04-29T07:19:46.819Z</time></trkpt><trkpt lat="45.292471" lon="9.4200591"><ele>75.0</ele><time>2026-04-29T07:19:47.818Z</time></trkpt><trkpt lat="45.2923234" lon="9.4203255"><ele>75.5</ele><time>2026-04-29T07:19:48.819Z</time></trkpt><trkpt lat="45.2921733" lon="9.4205951"><ele>76.0</ele><time>2026-04-29T07:19:49.819Z</time></trkpt><trkpt lat="45.2920217" lon="9.4208652"><ele>76.0</ele><time>2026-04-29T07:19:50.819Z</time></trkpt><trkpt lat="45.2918771" lon="9.4211328"><ele>76.0</ele><time>2026-04-29T07:19:51.818Z</time></trkpt><trkpt lat="45.2917322" lon="9.4213925"><ele>76.0</ele><time>2026-04-29T07:19:52.819Z</time></trkpt><trkpt lat="45.2915897" lon="9.4216475"><ele>76.0</ele><time>2026-04-29T07:19:53.819Z</time></trkpt><trkpt lat="45.2914483" lon="9.4219"><ele>76.0</ele><time>2026-04-29T07:19:54.819Z</time></trkpt><trkpt lat="45.291307" lon="9.4221534"><ele>76.0</ele><time>2026-04-29T07:19:55.819Z</time></trkpt><trkpt lat="45.291167" lon="9.4224049"><ele>76.0</ele><time>2026-04-29T07:19:56.819Z</time></trkpt><trkpt lat="45.2910337" lon="9.422642"><ele>76.0</ele><time>2026-04-29T07:19:57.819Z</time></trkpt><trkpt lat="45.2909015" lon="9.422875"><ele>76.0</ele><time>2026-04-29T07:19:58.819Z</time></trkpt><trkpt lat="45.2907694" lon="9.4231074"><ele>76.0</ele><time>2026-04-29T07:19:59.819Z</time></trkpt><trkpt lat="45.2906384" lon="9.4233392"><ele>76.0</ele><time>2026-04-29T07:20:00.819Z</time></trkpt><trkpt lat="45.2905046" lon="9.423574"><ele>76.0</ele><time>2026-04-29T07:20:01.819Z</time></trkpt><trkpt lat="45.2903695" lon="9.4238151"><ele>76.0</ele><time>2026-04-29T07:20:02.818Z</time></trkpt><trkpt lat="45.2902333" lon="9.4240603"><ele>76.0</ele><time>2026-04-29T07:20:03.819Z</time></trkpt><trkpt lat="45.2900947" lon="9.4243123"><ele>76.0</ele><time>2026-04-29T07:20:04.818Z</time></trkpt><trkpt lat="45.2899538" lon="9.4245667"><ele>76.0</ele><time>2026-04-29T07:20:05.819Z</time></trkpt><trkpt lat="45.2898114" lon="9.4248229"><ele>76.0</ele><time>2026-04-29T07:20:06.819Z</time></trkpt><trkpt lat="45.289669" lon="9.4250801"><ele>76.0</ele><time>2026-04-29T07:20:07.819Z</time></trkpt><trkpt lat="45.2895251" lon="9.4253372"><ele>76.0</ele><time>2026-04-29T07:20:08.818Z</time></trkpt><trkpt lat="45.2893817" lon="9.4255931"><ele>76.5</ele><time>2026-04-29T07:20:09.819Z</time></trkpt><trkpt lat="45.2892395" lon="9.4258462"><ele>77.0</ele><time>2026-04-29T07:20:10.818Z</time></trkpt><trkpt lat="45.2890982" lon="9.4260977"><ele>77.0</ele><time>2026-04-29T07:20:11.819Z</time></trkpt><trkpt lat="45.2889573" lon="9.4263494"><ele>77.0</ele><time>2026-04-29T07:20:12.819Z</time></trkpt><trkpt lat="45.288816" lon="9.4266029"><ele>77.0</ele><time>2026-04-29T07:20:13.819Z</time></trkpt><trkpt lat="45.2886744" lon="9.4268548"><ele>77.0</ele><time>2026-04-29T07:20:14.819Z</time></trkpt><trkpt lat="45.2885311" lon="9.4271099"><ele>77.0</ele><time>2026-04-29T07:20:15.819Z</time></trkpt><trkpt lat="45.2883867" lon="9.4273648"><ele>77.0</ele><time>2026-04-29T07:20:16.819Z</time></trkpt><trkpt lat="45.2882408" lon="9.4276221"><ele>77.0</ele><time>2026-04-29T07:20:17.819Z</time></trkpt><trkpt lat="45.2880947" lon="9.4278827"><ele>77.0</ele><time>2026-04-29T07:20:18.819Z</time></trkpt><trkpt lat="45.2879482" lon="9.4281446"><ele>77.5</ele><time>2026-04-29T07:20:19.819Z</time></trkpt><trkpt lat="45.287806" lon="9.4284048"><ele>78.0</ele><time>2026-04-29T07:20:20.819Z</time></trkpt><trkpt lat="45.2876683" lon="9.4286539"><ele>77.66666666666667</ele><time>2026-04-29T07:20:21.818Z</time></trkpt><trkpt lat="45.287529" lon="9.428903"><ele>77.33333333333334</ele><time>2026-04-29T07:20:22.819Z</time></trkpt><trkpt lat="45.2873897" lon="9.4291537"><ele>77.0</ele><time>2026-04-29T07:20:23.819Z</time></trkpt><trkpt lat="45.2872454" lon="9.4294051"><ele>77.0</ele><time>2026-04-29T07:20:24.819Z</time></trkpt><trkpt lat="45.2871005" lon="9.4296619"><ele>77.0</ele><time>2026-04-29T07:20:25.819Z</time></trkpt><trkpt lat="45.2869533" lon="9.4299221"><ele>77.0</ele><time>2026-04-29T07:20:26.819Z</time></trkpt><trkpt lat="45.2868059" lon="9.4301825"><ele>77.0</ele><time>2026-04-29T07:20:27.819Z</time></trkpt><trkpt lat="45.286661" lon="9.4304385"><ele>77.33333333333334</ele><time>2026-04-29T07:20:28.819Z</time></trkpt><trkpt lat="45.2865208" lon="9.4306851"><ele>77.66666666666667</ele><time>2026-04-29T07:20:29.819Z</time></trkpt><trkpt lat="45.286381" lon="9.4309286"><ele>78.0</ele><time>2026-04-29T07:20:30.819Z</time></trkpt><trkpt lat="45.2862422" lon="9.4311671"><ele>77.0</ele><time>2026-04-29T07:20:31.819Z</time></trkpt><trkpt lat="45.286101" lon="9.4314091"><ele>76.0</ele><time>2026-04-29T07:20:32.818Z</time></trkpt><trkpt lat="45.2859609" lon="9.4316509"><ele>75.0</ele><time>2026-04-29T07:20:33.819Z</time></trkpt><trkpt lat="45.2858186" lon="9.4318971"><ele>75.0</ele><time>2026-04-29T07:20:34.819Z</time></trkpt><trkpt lat="45.2856774" lon="9.4321371"><ele>75.0</ele><time>2026-04-29T07:20:35.818Z</time></trkpt><trkpt lat="45.285532" lon="9.4323877"><ele>75.0</ele><time>2026-04-29T07:20:36.819Z</time></trkpt><trkpt lat="45.2853843" lon="9.4326392"><ele>75.0</ele><time>2026-04-29T07:20:37.819Z</time></trkpt><trkpt lat="45.2852333" lon="9.4328957"><ele>75.0</ele><time>2026-04-29T07:20:38.818Z</time></trkpt><trkpt lat="45.285078" lon="9.4331537"><ele>75.5</ele><time>2026-04-29T07:20:39.819Z</time></trkpt><trkpt lat="45.2849258" lon="9.4334159"><ele>76.0</ele><time>2026-04-29T07:20:40.819Z</time></trkpt><trkpt lat="45.2847752" lon="9.4336766"><ele>74.5</ele><time>2026-04-29T07:20:41.819Z</time></trkpt><trkpt lat="45.2846267" lon="9.4339315"><ele>73.0</ele><time>2026-04-29T07:20:42.818Z</time></trkpt><trkpt lat="45.284477" lon="9.4341957"><ele>73.0</ele><time>2026-04-29T07:20:43.818Z</time></trkpt><trkpt lat="45.2843252" lon="9.4344657"><ele>73.0</ele><time>2026-04-29T07:20:44.819Z</time></trkpt><trkpt lat="45.2841733" lon="9.4347358"><ele>73.5</ele><time>2026-04-29T07:20:45.819Z</time></trkpt><trkpt lat="45.2840157" lon="9.4350174"><ele>74.0</ele><time>2026-04-29T07:20:46.819Z</time></trkpt><trkpt lat="45.2838454" lon="9.4353122"><ele>74.5</ele><time>2026-04-29T07:20:47.818Z</time></trkpt><trkpt lat="45.2836711" lon="9.4356099"><ele>75.0</ele><time>2026-04-29T07:20:48.819Z</time></trkpt><trkpt lat="45.2835047" lon="9.4358915"><ele>75.0</ele><time>2026-04-29T07:20:49.818Z</time></trkpt><trkpt lat="45.2833341" lon="9.4361749"><ele>75.0</ele><time>2026-04-29T07:20:50.819Z</time></trkpt><trkpt lat="45.2831587" lon="9.4364627"><ele>74.5</ele><time>2026-04-29T07:20:51.818Z</time></trkpt><trkpt lat="45.2829817" lon="9.4367505"><ele>74.0</ele><time>2026-04-29T07:20:52.819Z</time></trkpt><trkpt lat="45.2828032" lon="9.4370414"><ele>74.0</ele><time>2026-04-29T07:20:53.819Z</time></trkpt><trkpt lat="45.2826237" lon="9.4373346"><ele>74.0</ele><time>2026-04-29T07:20:54.819Z</time></trkpt><trkpt lat="45.282446" lon="9.4376296"><ele>74.0</ele><time>2026-04-29T07:20:55.819Z</time></trkpt><trkpt lat="45.2822699" lon="9.437922"><ele>74.0</ele><time>2026-04-29T07:20:56.819Z</time></trkpt><trkpt lat="45.2820955" lon="9.4382118"><ele>73.5</ele><time>2026-04-29T07:20:57.819Z</time></trkpt><trkpt lat="45.2819204" lon="9.4385014"><ele>73.0</ele><time>2026-04-29T07:20:58.819Z</time></trkpt><trkpt lat="45.2817466" lon="9.438794"><ele>73.0</ele><time>2026-04-29T07:20:59.819Z</time></trkpt><trkpt lat="45.2815729" lon="9.4390834"><ele>73.0</ele><time>2026-04-29T07:21:00.818Z</time></trkpt><trkpt lat="45.2813989" lon="9.4393683"><ele>73.0</ele><time>2026-04-29T07:21:01.818Z</time></trkpt><trkpt lat="45.2812235" lon="9.439658"><ele>73.0</ele><time>2026-04-29T07:21:02.819Z</time></trkpt><trkpt lat="45.2810459" lon="9.4399492"><ele>73.0</ele><time>2026-04-29T07:21:03.819Z</time></trkpt><trkpt lat="45.2808688" lon="9.4402407"><ele>73.0</ele><time>2026-04-29T07:21:04.818Z</time></trkpt><trkpt lat="45.280692" lon="9.4405325"><ele>73.0</ele><time>2026-04-29T07:21:05.818Z</time></trkpt><trkpt lat="45.2805161" lon="9.4408235"><ele>73.0</ele><time>2026-04-29T07:21:06.819Z</time></trkpt><trkpt lat="45.2803408" lon="9.4411103"><ele>73.0</ele><time>2026-04-29T07:21:07.819Z</time></trkpt><trkpt lat="45.2801681" lon="9.441401"><ele>73.0</ele><time>2026-04-29T07:21:08.819Z</time></trkpt><trkpt lat="45.2799934" lon="9.4416887"><ele>73.0</ele><time>2026-04-29T07:21:09.818Z</time></trkpt><trkpt lat="45.2798193" lon="9.4419758"><ele>73.0</ele><time>2026-04-29T07:21:10.819Z</time></trkpt><trkpt lat="45.2796458" lon="9.4422632"><ele>73.0</ele><time>2026-04-29T07:21:11.819Z</time></trkpt><trkpt lat="45.279473" lon="9.4425489"><ele>73.0</ele><time>2026-04-29T07:21:12.819Z</time></trkpt><trkpt lat="45.2793011" lon="9.4428341"><ele>73.0</ele><time>2026-04-29T07:21:13.819Z</time></trkpt><trkpt lat="45.2791279" lon="9.4431164"><ele>73.0</ele><time>2026-04-29T07:21:14.819Z</time></trkpt><trkpt lat="45.2789551" lon="9.4433987"><ele>73.0</ele><time>2026-04-29T07:21:15.819Z</time></trkpt><trkpt lat="45.2787802" lon="9.4436839"><ele>73.0</ele><time>2026-04-29T07:21:16.819Z</time></trkpt><trkpt lat="45.278607" lon="9.4439677"><ele>73.5</ele><time>2026-04-29T07:21:17.819Z</time></trkpt><trkpt lat="45.2784327" lon="9.4442545"><ele>74.0</ele><time>2026-04-29T07:21:18.818Z</time></trkpt><trkpt lat="45.2782619" lon="9.4445412"><ele>74.0</ele><time>2026-04-29T07:21:19.819Z</time></trkpt><trkpt lat="45.2780896" lon="9.4448277"><ele>74.0</ele><time>2026-04-29T07:21:20.819Z</time></trkpt><trkpt lat="45.2779151" lon="9.4451151"><ele>74.0</ele><time>2026-04-29T07:21:21.819Z</time></trkpt><trkpt lat="45.2777427" lon="9.4454037"><ele>74.0</ele><time>2026-04-29T07:21:22.818Z</time></trkpt><trkpt lat="45.2775677" lon="9.4456895"><ele>73.5</ele><time>2026-04-29T07:21:23.819Z</time></trkpt><trkpt lat="45.2773948" lon="9.4459746"><ele>73.0</ele><time>2026-04-29T07:21:24.819Z</time></trkpt><trkpt lat="45.2772273" lon="9.4462496"><ele>73.5</ele><time>2026-04-29T07:21:25.818Z</time></trkpt><trkpt lat="45.2770616" lon="9.446523"><ele>74.0</ele><time>2026-04-29T07:21:26.818Z</time></trkpt><trkpt lat="45.2768953" lon="9.4467971"><ele>74.0</ele><time>2026-04-29T07:21:27.818Z</time></trkpt><trkpt lat="45.2767299" lon="9.4470698"><ele>74.0</ele><time>2026-04-29T07:21:28.819Z</time></trkpt><trkpt lat="45.2765641" lon="9.4473442"><ele>75.0</ele><time>2026-04-29T07:21:29.819Z</time></trkpt><trkpt lat="45.276398" lon="9.4476163"><ele>76.0</ele><time>2026-04-29T07:21:30.818Z</time></trkpt><trkpt lat="45.2762312" lon="9.4478874"><ele>77.0</ele><time>2026-04-29T07:21:31.818Z</time></trkpt><trkpt lat="45.2760638" lon="9.4481622"><ele>78.0</ele><time>2026-04-29T07:21:32.819Z</time></trkpt><trkpt lat="45.2758943" lon="9.4484384"><ele>78.0</ele><time>2026-04-29T07:21:33.819Z</time></trkpt><trkpt lat="45.275726" lon="9.4487138"><ele>78.0</ele><time>2026-04-29T07:21:34.819Z</time></trkpt><trkpt lat="45.2755597" lon="9.4489929"><ele>76.5</ele><time>2026-04-29T07:21:35.819Z</time></trkpt><trkpt lat="45.2753937" lon="9.4492735"><ele>75.0</ele><time>2026-04-29T07:21:36.819Z</time></trkpt><trkpt lat="45.2752227" lon="9.4495518"><ele>76.0</ele><time>2026-04-29T07:21:37.819Z</time></trkpt><trkpt lat="45.275051" lon="9.4498296"><ele>77.0</ele><time>2026-04-29T07:21:38.819Z</time></trkpt><trkpt lat="45.2748807" lon="9.4501106"><ele>76.5</ele><time>2026-04-29T07:21:39.818Z</time></trkpt><trkpt lat="45.2747113" lon="9.4503911"><ele>76.0</ele><time>2026-04-29T07:21:40.819Z</time></trkpt><trkpt lat="45.2745392" lon="9.4506727"><ele>75.5</ele><time>2026-04-29T07:21:41.819Z</time></trkpt><trkpt lat="45.2743685" lon="9.4509566"><ele>75.0</ele><time>2026-04-29T07:21:42.819Z</time></trkpt><trkpt lat="45.274195" lon="9.4512401"><ele>75.0</ele><time>2026-04-29T07:21:43.819Z</time></trkpt><trkpt lat="45.2740244" lon="9.4515236"><ele>75.0</ele><time>2026-04-29T07:21:44.819Z</time></trkpt><trkpt lat="45.2738524" lon="9.4518061"><ele>74.5</ele><time>2026-04-29T07:21:45.819Z</time></trkpt><trkpt lat="45.2736843" lon="9.4521002"><ele>74.0</ele><time>2026-04-29T07:21:46.819Z</time></trkpt><trkpt lat="45.273509" lon="9.4523866"><ele>74.0</ele><time>2026-04-29T07:21:47.818Z</time></trkpt><trkpt lat="45.273333" lon="9.4526704"><ele>74.0</ele><time>2026-04-29T07:21:48.819Z</time></trkpt><trkpt lat="45.2731558" lon="9.4529564"><ele>74.5</ele><time>2026-04-29T07:21:49.818Z</time></trkpt><trkpt lat="45.2729772" lon="9.4532404"><ele>75.0</ele><time>2026-04-29T07:21:50.819Z</time></trkpt><trkpt lat="45.2727983" lon="9.4535191"><ele>74.0</ele><time>2026-04-29T07:21:51.819Z</time></trkpt><trkpt lat="45.272622" lon="9.4538023"><ele>73.0</ele><time>2026-04-29T07:21:52.819Z</time></trkpt><trkpt lat="45.2724404" lon="9.4540834"><ele>73.5</ele><time>2026-04-29T07:21:53.818Z</time></trkpt><trkpt lat="45.2722599" lon="9.4543681"><ele>74.0</ele><time>2026-04-29T07:21:54.819Z</time></trkpt><trkpt lat="45.2720786" lon="9.4546487"><ele>74.0</ele><time>2026-04-29T07:21:55.819Z</time></trkpt><trkpt lat="45.2718954" lon="9.4549302"><ele>74.0</ele><time>2026-04-29T07:21:56.819Z</time></trkpt><trkpt lat="45.2717117" lon="9.4552092"><ele>73.5</ele><time>2026-04-29T07:21:57.819Z</time></trkpt><trkpt lat="45.2715268" lon="9.4554896"><ele>73.0</ele><time>2026-04-29T07:21:58.818Z</time></trkpt><trkpt lat="45.2713407" lon="9.4557678"><ele>73.0</ele><time>2026-04-29T07:21:59.818Z</time></trkpt><trkpt lat="45.2711556" lon="9.456044"><ele>73.0</ele><time>2026-04-29T07:22:00.818Z</time></trkpt><trkpt lat="45.2709699" lon="9.4563182"><ele>73.0</ele><time>2026-04-29T07:22:01.819Z</time></trkpt><trkpt lat="45.2707868" lon="9.4565932"><ele>73.0</ele><time>2026-04-29T07:22:02.819Z</time></trkpt><trkpt lat="45.2706016" lon="9.4568669"><ele>74.0</ele><time>2026-04-29T07:22:03.818Z</time></trkpt><trkpt lat="45.2704178" lon="9.4571414"><ele>75.0</ele><time>2026-04-29T07:22:04.818Z</time></trkpt><trkpt lat="45.2702313" lon="9.4574169"><ele>75.0</ele><time>2026-04-29T07:22:05.819Z</time></trkpt><trkpt lat="45.2700436" lon="9.4576891"><ele>75.0</ele><time>2026-04-29T07:22:06.819Z</time></trkpt><trkpt lat="45.269851" lon="9.4579608"><ele>74.0</ele><time>2026-04-29T07:22:07.819Z</time></trkpt><trkpt lat="45.2696599" lon="9.4582311"><ele>73.0</ele><time>2026-04-29T07:22:08.819Z</time></trkpt><trkpt lat="45.2694702" lon="9.4585009"><ele>73.0</ele><time>2026-04-29T07:22:09.819Z</time></trkpt><trkpt lat="45.2692792" lon="9.458772"><ele>73.0</ele><time>2026-04-29T07:22:10.819Z</time></trkpt><trkpt lat="45.2690852" lon="9.4590393"><ele>73.5</ele><time>2026-04-29T07:22:11.819Z</time></trkpt><trkpt lat="45.2688894" lon="9.4593088"><ele>74.0</ele><time>2026-04-29T07:22:12.819Z</time></trkpt><trkpt lat="45.2686965" lon="9.459581"><ele>74.0</ele><time>2026-04-29T07:22:13.819Z</time></trkpt><trkpt lat="45.2684997" lon="9.4598496"><ele>74.0</ele><time>2026-04-29T07:22:14.819Z</time></trkpt><trkpt lat="45.2683043" lon="9.4601207"><ele>74.0</ele><time>2026-04-29T07:22:15.818Z</time></trkpt><trkpt lat="45.268108" lon="9.4603913"><ele>74.0</ele><time>2026-04-29T07:22:16.819Z</time></trkpt><trkpt lat="45.2679096" lon="9.4606592"><ele>73.5</ele><time>2026-04-29T07:22:17.819Z</time></trkpt><trkpt lat="45.2677086" lon="9.4609247"><ele>73.0</ele><time>2026-04-29T07:22:18.819Z</time></trkpt><trkpt lat="45.2675074" lon="9.4611918"><ele>73.0</ele><time>2026-04-29T07:22:19.819Z</time></trkpt><trkpt lat="45.2673058" lon="9.4614593"><ele>73.0</ele><time>2026-04-29T07:22:20.818Z</time></trkpt><trkpt lat="45.2671042" lon="9.4617266"><ele>73.0</ele><time>2026-04-29T07:22:21.819Z</time></trkpt><trkpt lat="45.2669018" lon="9.4619916"><ele>73.0</ele><time>2026-04-29T07:22:22.819Z</time></trkpt><trkpt lat="45.2666985" lon="9.4622577"><ele>73.0</ele><time>2026-04-29T07:22:23.819Z</time></trkpt><trkpt lat="45.2664943" lon="9.4625221"><ele>73.0</ele><time>2026-04-29T07:22:24.819Z</time></trkpt><trkpt lat="45.2662906" lon="9.4627879"><ele>72.5</ele><time>2026-04-29T07:22:25.819Z</time></trkpt><trkpt lat="45.2660839" lon="9.4630546"><ele>72.0</ele><time>2026-04-29T07:22:26.819Z</time></trkpt><trkpt lat="45.2658779" lon="9.463324"><ele>72.0</ele><time>2026-04-29T07:22:27.818Z</time></trkpt><trkpt lat="45.2656741" lon="9.4635965"><ele>72.0</ele><time>2026-04-29T07:22:28.819Z</time></trkpt><trkpt lat="45.2654706" lon="9.4638662"><ele>72.5</ele><time>2026-04-29T07:22:29.819Z</time></trkpt><trkpt lat="45.2652685" lon="9.4641368"><ele>73.0</ele><time>2026-04-29T07:22:30.818Z</time></trkpt><trkpt lat="45.2650636" lon="9.4644064"><ele>72.5</ele><time>2026-04-29T07:22:31.819Z</time></trkpt><trkpt lat="45.2648612" lon="9.4646775"><ele>72.0</ele><time>2026-04-29T07:22:32.818Z</time></trkpt><trkpt lat="45.2646583" lon="9.4649495"><ele>72.0</ele><time>2026-04-29T07:22:33.819Z</time></trkpt><trkpt lat="45.264455" lon="9.4652201"><ele>72.0</ele><time>2026-04-29T07:22:34.819Z</time></trkpt><trkpt lat="45.2642504" lon="9.4654871"><ele>72.0</ele><time>2026-04-29T07:22:35.819Z</time></trkpt><trkpt lat="45.2640454" lon="9.4657518"><ele>72.0</ele><time>2026-04-29T07:22:36.819Z</time></trkpt><trkpt lat="45.2638418" lon="9.4660183"><ele>73.5</ele><time>2026-04-29T07:22:37.819Z</time></trkpt><trkpt lat="45.2636357" lon="9.4662861"><ele>75.0</ele><time>2026-04-29T07:22:38.818Z</time></trkpt><trkpt lat="45.2634308" lon="9.4665545"><ele>75.0</ele><time>2026-04-29T07:22:39.819Z</time></trkpt><trkpt lat="45.2632269" lon="9.4668227"><ele>75.0</ele><time>2026-04-29T07:22:40.819Z</time></trkpt><trkpt lat="45.2630227" lon="9.467091"><ele>74.0</ele><time>2026-04-29T07:22:41.819Z</time></trkpt><trkpt lat="45.2628171" lon="9.467357"><ele>73.0</ele><time>2026-04-29T07:22:42.819Z</time></trkpt><trkpt lat="45.2626119" lon="9.4676231"><ele>73.0</ele><time>2026-04-29T07:22:43.819Z</time></trkpt><trkpt lat="45.2624066" lon="9.4678895"><ele>73.0</ele><time>2026-04-29T07:22:44.819Z</time></trkpt><trkpt lat="45.2622015" lon="9.4681621"><ele>73.0</ele><time>2026-04-29T07:22:45.819Z</time></trkpt><trkpt lat="45.2619998" lon="9.4684319"><ele>73.0</ele><time>2026-04-29T07:22:46.818Z</time></trkpt><trkpt lat="45.2617976" lon="9.4687002"><ele>72.5</ele><time>2026-04-29T07:22:47.819Z</time></trkpt><trkpt lat="45.261593" lon="9.4689701"><ele>72.0</ele><time>2026-04-29T07:22:48.819Z</time></trkpt><trkpt lat="45.2613895" lon="9.4692438"><ele>72.0</ele><time>2026-04-29T07:22:49.819Z</time></trkpt><trkpt lat="45.2611843" lon="9.4695118"><ele>72.0</ele><time>2026-04-29T07:22:50.819Z</time></trkpt><trkpt lat="45.2609773" lon="9.4697815"><ele>71.5</ele><time>2026-04-29T07:22:51.819Z</time></trkpt><trkpt lat="45.260774" lon="9.4700507"><ele>71.0</ele><time>2026-04-29T07:22:52.819Z</time></trkpt><trkpt lat="45.2605688" lon="9.4703181"><ele>71.0</ele><time>2026-04-29T07:22:53.819Z</time></trkpt><trkpt lat="45.2603644" lon="9.4705869"><ele>71.0</ele><time>2026-04-29T07:22:54.819Z</time></trkpt><trkpt lat="45.2601603" lon="9.4708559"><ele>71.0</ele><time>2026-04-29T07:22:55.819Z</time></trkpt><trkpt lat="45.2599568" lon="9.4711245"><ele>71.0</ele><time>2026-04-29T07:22:56.819Z</time></trkpt><trkpt lat="45.2597518" lon="9.4713932"><ele>70.0</ele><time>2026-04-29T07:22:57.819Z</time></trkpt><trkpt lat="45.2595466" lon="9.4716618"><ele>69.0</ele><time>2026-04-29T07:22:58.819Z</time></trkpt><trkpt lat="45.2593428" lon="9.4719311"><ele>69.0</ele><time>2026-04-29T07:22:59.818Z</time></trkpt><trkpt lat="45.2591397" lon="9.4721998"><ele>69.0</ele><time>2026-04-29T07:23:00.819Z</time></trkpt><trkpt lat="45.2589358" lon="9.4724704"><ele>69.5</ele><time>2026-04-29T07:23:01.818Z</time></trkpt><trkpt lat="45.2587313" lon="9.47274"><ele>70.0</ele><time>2026-04-29T07:23:02.818Z</time></trkpt><trkpt lat="45.2585286" lon="9.4730084"><ele>70.5</ele><time>2026-04-29T07:23:03.819Z</time></trkpt><trkpt lat="45.2583264" lon="9.4732772"><ele>71.0</ele><time>2026-04-29T07:23:04.819Z</time></trkpt><trkpt lat="45.2581225" lon="9.4735459"><ele>70.5</ele><time>2026-04-29T07:23:05.819Z</time></trkpt><trkpt lat="45.2579179" lon="9.4738129"><ele>70.0</ele><time>2026-04-29T07:23:06.819Z</time></trkpt><trkpt lat="45.2577129" lon="9.4740816"><ele>70.0</ele><time>2026-04-29T07:23:07.819Z</time></trkpt><trkpt lat="45.2575067" lon="9.4743505"><ele>70.0</ele><time>2026-04-29T07:23:08.818Z</time></trkpt><trkpt lat="45.2572961" lon="9.4746225"><ele>69.5</ele><time>2026-04-29T07:23:09.818Z</time></trkpt><trkpt lat="45.2570853" lon="9.4748973"><ele>69.0</ele><time>2026-04-29T07:23:10.819Z</time></trkpt><trkpt lat="45.2568735" lon="9.4751761"><ele>69.5</ele><time>2026-04-29T07:23:11.819Z</time></trkpt><trkpt lat="45.2566586" lon="9.4754551"><ele>70.0</ele><time>2026-04-29T07:23:12.819Z</time></trkpt><trkpt lat="45.2564417" lon="9.475736"><ele>70.0</ele><time>2026-04-29T07:23:13.819Z</time></trkpt><trkpt lat="45.256226" lon="9.4760168"><ele>70.0</ele><time>2026-04-29T07:23:14.819Z</time></trkpt><trkpt lat="45.2560131" lon="9.4762959"><ele>70.0</ele><time>2026-04-29T07:23:15.819Z</time></trkpt><trkpt lat="45.2558019" lon="9.4765749"><ele>70.0</ele><time>2026-04-29T07:23:16.819Z</time></trkpt><trkpt lat="45.255592" lon="9.4768546"><ele>71.0</ele><time>2026-04-29T07:23:17.819Z</time></trkpt><trkpt lat="45.2553803" lon="9.4771351"><ele>72.0</ele><time>2026-04-29T07:23:18.819Z</time></trkpt><trkpt lat="45.2551672" lon="9.4774154"><ele>72.0</ele><time>2026-04-29T07:23:19.819Z</time></trkpt><trkpt lat="45.2549524" lon="9.4776915"><ele>72.0</ele><time>2026-04-29T07:23:20.818Z</time></trkpt><trkpt lat="45.2547373" lon="9.477972"><ele>72.0</ele><time>2026-04-29T07:23:21.819Z</time></trkpt><trkpt lat="45.2545225" lon="9.4782515"><ele>72.0</ele><time>2026-04-29T07:23:22.819Z</time></trkpt><trkpt lat="45.254306" lon="9.4785307"><ele>72.0</ele><time>2026-04-29T07:23:23.819Z</time></trkpt><trkpt lat="45.2540895" lon="9.4788161"><ele>72.0</ele><time>2026-04-29T07:23:24.818Z</time></trkpt><trkpt lat="45.2538711" lon="9.4791033"><ele>71.5</ele><time>2026-04-29T07:23:25.819Z</time></trkpt><trkpt lat="45.2536515" lon="9.4793964"><ele>71.0</ele><time>2026-04-29T07:23:26.818Z</time></trkpt><trkpt lat="45.2534309" lon="9.4796932"><ele>71.0</ele><time>2026-04-29T07:23:27.819Z</time></trkpt><trkpt lat="45.2532075" lon="9.4799874"><ele>71.0</ele><time>2026-04-29T07:23:28.819Z</time></trkpt><trkpt lat="45.252987" lon="9.4802791"><ele>71.0</ele><time>2026-04-29T07:23:29.819Z</time></trkpt><trkpt lat="45.2527649" lon="9.4805694"><ele>71.0</ele><time>2026-04-29T07:23:30.819Z</time></trkpt><trkpt lat="45.2525438" lon="9.4808592"><ele>71.0</ele><time>2026-04-29T07:23:31.819Z</time></trkpt><trkpt lat="45.252321" lon="9.4811498"><ele>71.0</ele><time>2026-04-29T07:23:32.819Z</time></trkpt><trkpt lat="45.2521016" lon="9.48144"><ele>71.0</ele><time>2026-04-29T07:23:33.819Z</time></trkpt><trkpt lat="45.251882" lon="9.4817331"><ele>71.0</ele><time>2026-04-29T07:23:34.819Z</time></trkpt><trkpt lat="45.2516615" lon="9.4820259"><ele>70.0</ele><time>2026-04-29T07:23:35.819Z</time></trkpt><trkpt lat="45.251441" lon="9.4823179"><ele>69.0</ele><time>2026-04-29T07:23:36.819Z</time></trkpt><trkpt lat="45.2512198" lon="9.4826086"><ele>69.0</ele><time>2026-04-29T07:23:37.819Z</time></trkpt><trkpt lat="45.2509988" lon="9.4829022"><ele>69.0</ele><time>2026-04-29T07:23:38.819Z</time></trkpt><trkpt lat="45.2507773" lon="9.4831963"><ele>69.5</ele><time>2026-04-29T07:23:39.819Z</time></trkpt><trkpt lat="45.2505551" lon="9.4834876"><ele>70.0</ele><time>2026-04-29T07:23:40.818Z</time></trkpt><trkpt lat="45.2503321" lon="9.4837777"><ele>70.0</ele><time>2026-04-29T07:23:41.819Z</time></trkpt><trkpt lat="45.2501119" lon="9.4840675"><ele>70.0</ele><time>2026-04-29T07:23:42.819Z</time></trkpt><trkpt lat="45.2498895" lon="9.4843579"><ele>69.5</ele><time>2026-04-29T07:23:43.819Z</time></trkpt><trkpt lat="45.2496681" lon="9.4846495"><ele>69.0</ele><time>2026-04-29T07:23:44.819Z</time></trkpt><trkpt lat="45.2494466" lon="9.4849399"><ele>69.0</ele><time>2026-04-29T07:23:45.819Z</time></trkpt><trkpt lat="45.2492255" lon="9.4852297"><ele>69.0</ele><time>2026-04-29T07:23:46.818Z</time></trkpt><trkpt lat="45.2490065" lon="9.4855216"><ele>69.5</ele><time>2026-04-29T07:23:47.818Z</time></trkpt><trkpt lat="45.2487855" lon="9.485813"><ele>70.0</ele><time>2026-04-29T07:23:48.818Z</time></trkpt><trkpt lat="45.2485643" lon="9.4861049"><ele>69.5</ele><time>2026-04-29T07:23:49.818Z</time></trkpt><trkpt lat="45.2483417" lon="9.4863951"><ele>69.0</ele><time>2026-04-29T07:23:50.819Z</time></trkpt><trkpt lat="45.2481202" lon="9.486686"><ele>69.5</ele><time>2026-04-29T07:23:51.818Z</time></trkpt><trkpt lat="45.2478967" lon="9.4869733"><ele>70.0</ele><time>2026-04-29T07:23:52.819Z</time></trkpt><trkpt lat="45.2476708" lon="9.4872622"><ele>70.0</ele><time>2026-04-29T07:23:53.818Z</time></trkpt><trkpt lat="45.2474441" lon="9.4875471"><ele>70.0</ele><time>2026-04-29T07:23:54.818Z</time></trkpt><trkpt lat="45.2472216" lon="9.4878317"><ele>71.0</ele><time>2026-04-29T07:23:55.819Z</time></trkpt><trkpt lat="45.2470035" lon="9.4881098"><ele>72.0</ele><time>2026-04-29T07:23:56.819Z</time></trkpt><trkpt lat="45.2467871" lon="9.4883908"><ele>72.0</ele><time>2026-04-29T07:23:57.819Z</time></trkpt><trkpt lat="45.2465683" lon="9.4886726"><ele>72.0</ele><time>2026-04-29T07:23:58.819Z</time></trkpt><trkpt lat="45.246349" lon="9.4889545"><ele>71.5</ele><time>2026-04-29T07:23:59.819Z</time></trkpt><trkpt lat="45.2461323" lon="9.4892424"><ele>71.0</ele><time>2026-04-29T07:24:00.819Z</time></trkpt><trkpt lat="45.2459154" lon="9.4895248"><ele>71.0</ele><time>2026-04-29T07:24:01.819Z</time></trkpt><trkpt lat="45.245698" lon="9.489808"><ele>71.0</ele><time>2026-04-29T07:24:02.818Z</time></trkpt><trkpt lat="45.2454825" lon="9.4900932"><ele>71.0</ele><time>2026-04-29T07:24:03.818Z</time></trkpt><trkpt lat="45.2452649" lon="9.4903791"><ele>71.0</ele><time>2026-04-29T07:24:04.819Z</time></trkpt><trkpt lat="45.2450482" lon="9.4906665"><ele>70.0</ele><time>2026-04-29T07:24:05.819Z</time></trkpt><trkpt lat="45.2448307" lon="9.4909503"><ele>69.0</ele><time>2026-04-29T07:24:06.819Z</time></trkpt><trkpt lat="45.2446115" lon="9.4912364"><ele>69.5</ele><time>2026-04-29T07:24:07.819Z</time></trkpt><trkpt lat="45.2443922" lon="9.491521"><ele>70.0</ele><time>2026-04-29T07:24:08.819Z</time></trkpt><trkpt lat="45.2441716" lon="9.4918076"><ele>71.0</ele><time>2026-04-29T07:24:09.819Z</time></trkpt><trkpt lat="45.2439508" lon="9.4920992"><ele>72.0</ele><time>2026-04-29T07:24:10.819Z</time></trkpt><trkpt lat="45.24373" lon="9.4923876"><ele>72.0</ele><time>2026-04-29T07:24:11.819Z</time></trkpt><trkpt lat="45.2435054" lon="9.4926857"><ele>72.0</ele><time>2026-04-29T07:24:12.819Z</time></trkpt><trkpt lat="45.2432797" lon="9.4929808"><ele>71.0</ele><time>2026-04-29T07:24:13.819Z</time></trkpt><trkpt lat="45.2430565" lon="9.4932726"><ele>70.0</ele><time>2026-04-29T07:24:14.819Z</time></trkpt><trkpt lat="45.2428319" lon="9.4935698"><ele>69.5</ele><time>2026-04-29T07:24:15.819Z</time></trkpt><trkpt lat="45.2426036" lon="9.4938679"><ele>69.0</ele><time>2026-04-29T07:24:16.818Z</time></trkpt><trkpt lat="45.2423769" lon="9.4941688"><ele>69.0</ele><time>2026-04-29T07:24:17.818Z</time></trkpt><trkpt lat="45.242158" lon="9.494456"><ele>69.0</ele><time>2026-04-29T07:24:18.819Z</time></trkpt><trkpt lat="45.2419423" lon="9.4947419"><ele>69.0</ele><time>2026-04-29T07:24:19.819Z</time></trkpt><trkpt lat="45.2417278" lon="9.4950224"><ele>69.0</ele><time>2026-04-29T07:24:20.818Z</time></trkpt><trkpt lat="45.2415149" lon="9.4952995"><ele>69.0</ele><time>2026-04-29T07:24:21.819Z</time></trkpt><trkpt lat="45.2413018" lon="9.4955761"><ele>69.0</ele><time>2026-04-29T07:24:22.819Z</time></trkpt><trkpt lat="45.2410951" lon="9.4958508"><ele>69.0</ele><time>2026-04-29T07:24:23.819Z</time></trkpt><trkpt lat="45.2408886" lon="9.4961229"><ele>69.0</ele><time>2026-04-29T07:24:24.819Z</time></trkpt><trkpt lat="45.2406808" lon="9.4963931"><ele>69.0</ele><time>2026-04-29T07:24:25.819Z</time></trkpt><trkpt lat="45.2404733" lon="9.4966651"><ele>69.0</ele><time>2026-04-29T07:24:26.819Z</time></trkpt><trkpt lat="45.2402667" lon="9.4969379"><ele>69.5</ele><time>2026-04-29T07:24:27.819Z</time></trkpt><trkpt lat="45.2400604" lon="9.4972101"><ele>70.0</ele><time>2026-04-29T07:24:28.819Z</time></trkpt><trkpt lat="45.2398549" lon="9.4974786"><ele>70.0</ele><time>2026-04-29T07:24:29.819Z</time></trkpt><trkpt lat="45.2396544" lon="9.4977421"><ele>70.0</ele><time>2026-04-29T07:24:30.818Z</time></trkpt><trkpt lat="45.2394546" lon="9.4980043"><ele>70.0</ele><time>2026-04-29T07:24:31.819Z</time></trkpt><trkpt lat="45.2392553" lon="9.4982672"><ele>70.0</ele><time>2026-04-29T07:24:32.819Z</time></trkpt><trkpt lat="45.2390558" lon="9.4985322"><ele>70.0</ele><time>2026-04-29T07:24:33.819Z</time></trkpt><trkpt lat="45.2388568" lon="9.4987948"><ele>70.0</ele><time>2026-04-29T07:24:34.818Z</time></trkpt><trkpt lat="45.2386573" lon="9.4990551"><ele>70.0</ele><time>2026-04-29T07:24:35.819Z</time></trkpt><trkpt lat="45.2384607" lon="9.4993149"><ele>70.0</ele><time>2026-04-29T07:24:36.819Z</time></trkpt><trkpt lat="45.2382653" lon="9.4995748"><ele>69.5</ele><time>2026-04-29T07:24:37.818Z</time></trkpt><trkpt lat="45.2380711" lon="9.4998325"><ele>69.0</ele><time>2026-04-29T07:24:38.819Z</time></trkpt><trkpt lat="45.2378735" lon="9.5000909"><ele>69.0</ele><time>2026-04-29T07:24:39.819Z</time></trkpt><trkpt lat="45.237676" lon="9.5003504"><ele>69.0</ele><time>2026-04-29T07:24:40.819Z</time></trkpt><trkpt lat="45.2374767" lon="9.5006133"><ele>69.0</ele><time>2026-04-29T07:24:41.819Z</time></trkpt><trkpt lat="45.2372766" lon="9.500874"><ele>69.0</ele><time>2026-04-29T07:24:42.819Z</time></trkpt><trkpt lat="45.237076" lon="9.5011379"><ele>70.0</ele><time>2026-04-29T07:24:43.818Z</time></trkpt><trkpt lat="45.2368738" lon="9.5014011"><ele>71.0</ele><time>2026-04-29T07:24:44.818Z</time></trkpt><trkpt lat="45.236669" lon="9.501667"><ele>71.0</ele><time>2026-04-29T07:24:45.818Z</time></trkpt><trkpt lat="45.2364629" lon="9.5019345"><ele>71.0</ele><time>2026-04-29T07:24:46.819Z</time></trkpt><trkpt lat="45.2362577" lon="9.502202"><ele>71.0</ele><time>2026-04-29T07:24:47.818Z</time></trkpt><trkpt lat="45.2360519" lon="9.5024717"><ele>71.0</ele><time>2026-04-29T07:24:48.819Z</time></trkpt><trkpt lat="45.2358455" lon="9.5027421"><ele>71.0</ele><time>2026-04-29T07:24:49.819Z</time></trkpt><trkpt lat="45.2356402" lon="9.5030117"><ele>71.0</ele><time>2026-04-29T07:24:50.818Z</time></trkpt><trkpt lat="45.2354312" lon="9.5032818"><ele>70.0</ele><time>2026-04-29T07:24:51.819Z</time></trkpt><trkpt lat="45.2352228" lon="9.5035564"><ele>69.0</ele><time>2026-04-29T07:24:52.819Z</time></trkpt><trkpt lat="45.2350142" lon="9.5038307"><ele>68.5</ele><time>2026-04-29T07:24:53.819Z</time></trkpt><trkpt lat="45.2348051" lon="9.5041058"><ele>68.0</ele><time>2026-04-29T07:24:54.819Z</time></trkpt><trkpt lat="45.2345957" lon="9.5043818"><ele>68.0</ele><time>2026-04-29T07:24:55.819Z</time></trkpt><trkpt lat="45.234385" lon="9.5046615"><ele>68.0</ele><time>2026-04-29T07:24:56.819Z</time></trkpt><trkpt lat="45.2341741" lon="9.5049363"><ele>68.0</ele><time>2026-04-29T07:24:57.818Z</time></trkpt><trkpt lat="45.2339639" lon="9.5052112"><ele>68.0</ele><time>2026-04-29T07:24:58.819Z</time></trkpt><trkpt lat="45.2337549" lon="9.5054867"><ele>68.0</ele><time>2026-04-29T07:24:59.819Z</time></trkpt><trkpt lat="45.2335435" lon="9.5057655"><ele>68.0</ele><time>2026-04-29T07:25:00.819Z</time></trkpt><trkpt lat="45.2333312" lon="9.5060432"><ele>68.0</ele><time>2026-04-29T07:25:01.819Z</time></trkpt><trkpt lat="45.2331182" lon="9.5063187"><ele>68.0</ele><time>2026-04-29T07:25:02.819Z</time></trkpt><trkpt lat="45.2329057" lon="9.5065998"><ele>68.0</ele><time>2026-04-29T07:25:03.819Z</time></trkpt><trkpt lat="45.2326946" lon="9.5068793"><ele>68.0</ele><time>2026-04-29T07:25:04.819Z</time></trkpt><trkpt lat="45.2324842" lon="9.5071612"><ele>68.0</ele><time>2026-04-29T07:25:05.819Z</time></trkpt><trkpt lat="45.232271" lon="9.5074418"><ele>68.0</ele><time>2026-04-29T07:25:06.819Z</time></trkpt><trkpt lat="45.2320597" lon="9.5077239"><ele>67.5</ele><time>2026-04-29T07:25:07.819Z</time></trkpt><trkpt lat="45.2318479" lon="9.5080027"><ele>67.0</ele><time>2026-04-29T07:25:08.819Z</time></trkpt><trkpt lat="45.2316356" lon="9.5082831"><ele>67.0</ele><time>2026-04-29T07:25:09.819Z</time></trkpt><trkpt lat="45.2314222" lon="9.5085641"><ele>67.0</ele><time>2026-04-29T07:25:10.818Z</time></trkpt><trkpt lat="45.2312082" lon="9.5088415"><ele>67.0</ele><time>2026-04-29T07:25:11.819Z</time></trkpt><trkpt lat="45.2309949" lon="9.5091236"><ele>67.0</ele><time>2026-04-29T07:25:12.818Z</time></trkpt><trkpt lat="45.2307798" lon="9.5094049"><ele>67.5</ele><time>2026-04-29T07:25:13.818Z</time></trkpt><trkpt lat="45.230566" lon="9.5096874"><ele>68.0</ele><time>2026-04-29T07:25:14.819Z</time></trkpt><trkpt lat="45.2303508" lon="9.5099707"><ele>68.0</ele><time>2026-04-29T07:25:15.819Z</time></trkpt><trkpt lat="45.230135" lon="9.5102532"><ele>68.0</ele><time>2026-04-29T07:25:16.819Z</time></trkpt><trkpt lat="45.2299197" lon="9.510533"><ele>67.0</ele><time>2026-04-29T07:25:17.819Z</time></trkpt><trkpt lat="45.229705" lon="9.5108148"><ele>66.0</ele><time>2026-04-29T07:25:18.819Z</time></trkpt><trkpt lat="45.2294896" lon="9.5110966"><ele>67.0</ele><time>2026-04-29T07:25:19.819Z</time></trkpt><trkpt lat="45.2292748" lon="9.5113774"><ele>68.0</ele><time>2026-04-29T07:25:20.819Z</time></trkpt><trkpt lat="45.2290602" lon="9.5116608"><ele>68.0</ele><time>2026-04-29T07:25:21.819Z</time></trkpt><trkpt lat="45.2288459" lon="9.5119462"><ele>68.0</ele><time>2026-04-29T07:25:22.819Z</time></trkpt><trkpt lat="45.2286321" lon="9.5122281"><ele>68.5</ele><time>2026-04-29T07:25:23.819Z</time></trkpt><trkpt lat="45.2284125" lon="9.512514"><ele>69.0</ele><time>2026-04-29T07:25:24.819Z</time></trkpt><trkpt lat="45.2281961" lon="9.5127967"><ele>67.5</ele><time>2026-04-29T07:25:25.819Z</time></trkpt><trkpt lat="45.2279791" lon="9.5130806"><ele>66.0</ele><time>2026-04-29T07:25:26.818Z</time></trkpt><trkpt lat="45.22776" lon="9.5133667"><ele>66.0</ele><time>2026-04-29T07:25:27.819Z</time></trkpt><trkpt lat="45.2275437" lon="9.5136577"><ele>66.0</ele><time>2026-04-29T07:25:28.819Z</time></trkpt><trkpt lat="45.227329" lon="9.5139448"><ele>66.5</ele><time>2026-04-29T07:25:29.819Z</time></trkpt><trkpt lat="45.2271127" lon="9.5142308"><ele>67.0</ele><time>2026-04-29T07:25:30.819Z</time></trkpt><trkpt lat="45.226897" lon="9.5145141"><ele>66.5</ele><time>2026-04-29T07:25:31.818Z</time></trkpt><trkpt lat="45.2266916" lon="9.5147857"><ele>66.0</ele><time>2026-04-29T07:25:32.819Z</time></trkpt><trkpt lat="45.2264932" lon="9.5150437"><ele>66.5</ele><time>2026-04-29T07:25:33.819Z</time></trkpt><trkpt lat="45.2263117" lon="9.5152796"><ele>67.0</ele><time>2026-04-29T07:25:34.819Z</time></trkpt><trkpt lat="45.2261428" lon="9.5154985"><ele>67.0</ele><time>2026-04-29T07:25:35.819Z</time></trkpt><trkpt lat="45.2259868" lon="9.5156984"><ele>67.0</ele><time>2026-04-29T07:25:36.819Z</time></trkpt><trkpt lat="45.2258387" lon="9.5158906"><ele>67.0</ele><time>2026-04-29T07:25:37.819Z</time></trkpt><trkpt lat="45.2256884" lon="9.516088"><ele>66.66666666666666</ele><time>2026-04-29T07:25:38.819Z</time></trkpt><trkpt lat="45.2255358" lon="9.5162854"><ele>66.33333333333333</ele><time>2026-04-29T07:25:39.819Z</time></trkpt><trkpt lat="45.2253767" lon="9.5164977"><ele>66.0</ele><time>2026-04-29T07:25:40.819Z</time></trkpt><trkpt lat="45.2252095" lon="9.5167233"><ele>66.0</ele><time>2026-04-29T07:25:41.819Z</time></trkpt><trkpt lat="45.2250423" lon="9.5169498"><ele>66.0</ele><time>2026-04-29T07:25:42.819Z</time></trkpt><trkpt lat="45.2248738" lon="9.517173"><ele>65.5</ele><time>2026-04-29T07:25:43.819Z</time></trkpt><trkpt lat="45.2247062" lon="9.5174003"><ele>65.0</ele><time>2026-04-29T07:25:44.819Z</time></trkpt><trkpt lat="45.224538" lon="9.5176267"><ele>65.0</ele><time>2026-04-29T07:25:45.819Z</time></trkpt><trkpt lat="45.2243753" lon="9.5178453"><ele>65.0</ele><time>2026-04-29T07:25:46.819Z</time></trkpt><trkpt lat="45.2242181" lon="9.518054"><ele>65.0</ele><time>2026-04-29T07:25:47.818Z</time></trkpt><trkpt lat="45.22406" lon="9.5182639"><ele>65.66666666666667</ele><time>2026-04-29T07:25:48.819Z</time></trkpt><trkpt lat="45.2239023" lon="9.5184739"><ele>66.33333333333333</ele><time>2026-04-29T07:25:49.819Z</time></trkpt><trkpt lat="45.2237436" lon="9.5186818"><ele>67.0</ele><time>2026-04-29T07:25:50.819Z</time></trkpt><trkpt lat="45.2235861" lon="9.5188919"><ele>67.0</ele><time>2026-04-29T07:25:51.819Z</time></trkpt><trkpt lat="45.2234282" lon="9.5190997"><ele>67.0</ele><time>2026-04-29T07:25:52.819Z</time></trkpt><trkpt lat="45.2232701" lon="9.5193118"><ele>67.0</ele><time>2026-04-29T07:25:53.818Z</time></trkpt><trkpt lat="45.2231096" lon="9.5195214"><ele>66.33333333333333</ele><time>2026-04-29T07:25:54.819Z</time></trkpt><trkpt lat="45.2229493" lon="9.5197317"><ele>65.66666666666667</ele><time>2026-04-29T07:25:55.819Z</time></trkpt><trkpt lat="45.222788" lon="9.5199449"><ele>65.0</ele><time>2026-04-29T07:25:56.819Z</time></trkpt><trkpt lat="45.2226251" lon="9.5201608"><ele>65.0</ele><time>2026-04-29T07:25:57.819Z</time></trkpt><trkpt lat="45.2224598" lon="9.5203812"><ele>65.0</ele><time>2026-04-29T07:25:58.819Z</time></trkpt><trkpt lat="45.2222931" lon="9.5206013"><ele>66.0</ele><time>2026-04-29T07:25:59.819Z</time></trkpt><trkpt lat="45.2221251" lon="9.5208238"><ele>67.0</ele><time>2026-04-29T07:26:00.819Z</time></trkpt><trkpt lat="45.2219543" lon="9.5210473"><ele>67.0</ele><time>2026-04-29T07:26:01.819Z</time></trkpt><trkpt lat="45.2217878" lon="9.5212659"><ele>67.0</ele><time>2026-04-29T07:26:02.818Z</time></trkpt><trkpt lat="45.2216251" lon="9.5214801"><ele>67.0</ele><time>2026-04-29T07:26:03.818Z</time></trkpt><trkpt lat="45.2214603" lon="9.5216953"><ele>66.5</ele><time>2026-04-29T07:26:04.819Z</time></trkpt><trkpt lat="45.2212949" lon="9.521913"><ele>66.0</ele><time>2026-04-29T07:26:05.819Z</time></trkpt><trkpt lat="45.2211278" lon="9.5221349"><ele>66.0</ele><time>2026-04-29T07:26:06.819Z</time></trkpt><trkpt lat="45.2209581" lon="9.5223582"><ele>66.0</ele><time>2026-04-29T07:26:07.819Z</time></trkpt><trkpt lat="45.2207874" lon="9.5225832"><ele>66.0</ele><time>2026-04-29T07:26:08.819Z</time></trkpt><trkpt lat="45.2206163" lon="9.5228089"><ele>66.0</ele><time>2026-04-29T07:26:09.818Z</time></trkpt><trkpt lat="45.2204476" lon="9.523031"><ele>66.0</ele><time>2026-04-29T07:26:10.819Z</time></trkpt><trkpt lat="45.2202736" lon="9.5232563"><ele>66.0</ele><time>2026-04-29T07:26:11.819Z</time></trkpt><trkpt lat="45.220101" lon="9.523486"><ele>66.0</ele><time>2026-04-29T07:26:12.819Z</time></trkpt><trkpt lat="45.2199261" lon="9.5237154"><ele>66.0</ele><time>2026-04-29T07:26:13.819Z</time></trkpt><trkpt lat="45.2197506" lon="9.523944"><ele>65.5</ele><time>2026-04-29T07:26:14.818Z</time></trkpt><trkpt lat="45.2195751" lon="9.524178"><ele>65.0</ele><time>2026-04-29T07:26:15.819Z</time></trkpt><trkpt lat="45.2193956" lon="9.5244138"><ele>65.0</ele><time>2026-04-29T07:26:16.819Z</time></trkpt><trkpt lat="45.219217" lon="9.5246472"><ele>65.0</ele><time>2026-04-29T07:26:17.819Z</time></trkpt><trkpt lat="45.2190394" lon="9.5248854"><ele>65.0</ele><time>2026-04-29T07:26:18.819Z</time></trkpt><trkpt lat="45.2188607" lon="9.5251176"><ele>65.0</ele><time>2026-04-29T07:26:19.819Z</time></trkpt><trkpt lat="45.2186879" lon="9.5253456"><ele>65.5</ele><time>2026-04-29T07:26:20.819Z</time></trkpt><trkpt lat="45.2185121" lon="9.5255767"><ele>66.0</ele><time>2026-04-29T07:26:21.818Z</time></trkpt><trkpt lat="45.2183357" lon="9.5258079"><ele>66.0</ele><time>2026-04-29T07:26:22.818Z</time></trkpt><trkpt lat="45.218163" lon="9.5260397"><ele>66.0</ele><time>2026-04-29T07:26:23.818Z</time></trkpt><trkpt lat="45.2179965" lon="9.526265"><ele>65.5</ele><time>2026-04-29T07:26:24.819Z</time></trkpt><trkpt lat="45.2178293" lon="9.526488"><ele>65.0</ele><time>2026-04-29T07:26:25.819Z</time></trkpt><trkpt lat="45.2176599" lon="9.5267084"><ele>65.0</ele><time>2026-04-29T07:26:26.818Z</time></trkpt><trkpt lat="45.2174922" lon="9.526928"><ele>65.0</ele><time>2026-04-29T07:26:27.819Z</time></trkpt><trkpt lat="45.217326" lon="9.5271433"><ele>65.0</ele><time>2026-04-29T07:26:28.819Z</time></trkpt><trkpt lat="45.2171621" lon="9.5273611"><ele>65.0</ele><time>2026-04-29T07:26:29.819Z</time></trkpt><trkpt lat="45.2169996" lon="9.5275722"><ele>65.0</ele><time>2026-04-29T07:26:30.819Z</time></trkpt><trkpt lat="45.2168422" lon="9.527776"><ele>65.0</ele><time>2026-04-29T07:26:31.819Z</time></trkpt><trkpt lat="45.2166888" lon="9.5279752"><ele>65.0</ele><time>2026-04-29T07:26:32.819Z</time></trkpt><trkpt lat="45.2165313" lon="9.5281794"><ele>65.0</ele><time>2026-04-29T07:26:33.819Z</time></trkpt><trkpt lat="45.2163732" lon="9.5283885"><ele>66.5</ele><time>2026-04-29T07:26:34.819Z</time></trkpt><trkpt lat="45.2162095" lon="9.5286045"><ele>68.0</ele><time>2026-04-29T07:26:35.819Z</time></trkpt><trkpt lat="45.2160441" lon="9.5288299"><ele>68.0</ele><time>2026-04-29T07:26:36.819Z</time></trkpt><trkpt lat="45.2158689" lon="9.5290538"><ele>68.0</ele><time>2026-04-29T07:26:37.818Z</time></trkpt><trkpt lat="45.2157022" lon="9.529271"><ele>67.0</ele><time>2026-04-29T07:26:38.819Z</time></trkpt><trkpt lat="45.2155388" lon="9.5294875"><ele>66.0</ele><time>2026-04-29T07:26:39.819Z</time></trkpt><trkpt lat="45.2153744" lon="9.5297041"><ele>65.0</ele><time>2026-04-29T07:26:40.819Z</time></trkpt><trkpt lat="45.2152048" lon="9.5299294"><ele>64.5</ele><time>2026-04-29T07:26:41.819Z</time></trkpt><trkpt lat="45.215028" lon="9.5301742"><ele>64.0</ele><time>2026-04-29T07:26:42.819Z</time></trkpt><trkpt lat="45.2148452" lon="9.5304289"><ele>64.5</ele><time>2026-04-29T07:26:43.819Z</time></trkpt><trkpt lat="45.2146539" lon="9.5306964"><ele>65.0</ele><time>2026-04-29T07:26:44.819Z</time></trkpt><trkpt lat="45.2144585" lon="9.5309701"><ele>64.0</ele><time>2026-04-29T07:26:45.819Z</time></trkpt><trkpt lat="45.2142548" lon="9.5312486"><ele>63.0</ele><time>2026-04-29T07:26:46.819Z</time></trkpt><trkpt lat="45.2140491" lon="9.5315262"><ele>63.5</ele><time>2026-04-29T07:26:47.819Z</time></trkpt><trkpt lat="45.2138416" lon="9.5318034"><ele>64.0</ele><time>2026-04-29T07:26:48.819Z</time></trkpt><trkpt lat="45.213633" lon="9.5320793"><ele>64.0</ele><time>2026-04-29T07:26:49.819Z</time></trkpt><trkpt lat="45.2134231" lon="9.5323487"><ele>64.0</ele><time>2026-04-29T07:26:50.818Z</time></trkpt><trkpt lat="45.2132162" lon="9.5326139"><ele>64.5</ele><time>2026-04-29T07:26:51.818Z</time></trkpt><trkpt lat="45.2130131" lon="9.5328791"><ele>65.0</ele><time>2026-04-29T07:26:52.819Z</time></trkpt><trkpt lat="45.2128092" lon="9.5331437"><ele>65.0</ele><time>2026-04-29T07:26:53.819Z</time></trkpt><trkpt lat="45.2126078" lon="9.533409"><ele>65.0</ele><time>2026-04-29T07:26:54.819Z</time></trkpt><trkpt lat="45.2124079" lon="9.5336754"><ele>65.0</ele><time>2026-04-29T07:26:55.819Z</time></trkpt><trkpt lat="45.2122054" lon="9.5339399"><ele>65.0</ele><time>2026-04-29T07:26:56.818Z</time></trkpt><trkpt lat="45.212002" lon="9.5342063"><ele>65.0</ele><time>2026-04-29T07:26:57.819Z</time></trkpt><trkpt lat="45.211796" lon="9.534476"><ele>65.0</ele><time>2026-04-29T07:26:58.819Z</time></trkpt><trkpt lat="45.2115922" lon="9.5347485"><ele>65.5</ele><time>2026-04-29T07:26:59.819Z</time></trkpt><trkpt lat="45.2113872" lon="9.5350227"><ele>66.0</ele><time>2026-04-29T07:27:00.819Z</time></trkpt><trkpt lat="45.2111805" lon="9.5352976"><ele>65.0</ele><time>2026-04-29T07:27:01.818Z</time></trkpt><trkpt lat="45.2109729" lon="9.5355704"><ele>64.0</ele><time>2026-04-29T07:27:02.819Z</time></trkpt><trkpt lat="45.2107674" lon="9.5358406"><ele>64.0</ele><time>2026-04-29T07:27:03.819Z</time></trkpt><trkpt lat="45.21056" lon="9.5361114"><ele>64.0</ele><time>2026-04-29T07:27:04.819Z</time></trkpt><trkpt lat="45.2103507" lon="9.5363819"><ele>64.0</ele><time>2026-04-29T07:27:05.819Z</time></trkpt><trkpt lat="45.2101414" lon="9.536654"><ele>64.0</ele><time>2026-04-29T07:27:06.819Z</time></trkpt><trkpt lat="45.2099311" lon="9.5369236"><ele>64.5</ele><time>2026-04-29T07:27:07.819Z</time></trkpt><trkpt lat="45.2097222" lon="9.537195"><ele>65.0</ele><time>2026-04-29T07:27:08.819Z</time></trkpt><trkpt lat="45.2095138" lon="9.537469"><ele>65.0</ele><time>2026-04-29T07:27:09.819Z</time></trkpt><trkpt lat="45.2093044" lon="9.5377419"><ele>65.0</ele><time>2026-04-29T07:27:10.819Z</time></trkpt><trkpt lat="45.2090942" lon="9.5380192"><ele>64.5</ele><time>2026-04-29T07:27:11.819Z</time></trkpt><trkpt lat="45.2088834" lon="9.538297"><ele>64.0</ele><time>2026-04-29T07:27:12.819Z</time></trkpt><trkpt lat="45.2086742" lon="9.5385737"><ele>64.0</ele><time>2026-04-29T07:27:13.818Z</time></trkpt><trkpt lat="45.2084631" lon="9.5388473"><ele>64.0</ele><time>2026-04-29T07:27:14.819Z</time></trkpt><trkpt lat="45.2082533" lon="9.5391227"><ele>63.5</ele><time>2026-04-29T07:27:15.819Z</time></trkpt><trkpt lat="45.2080469" lon="9.5393958"><ele>63.0</ele><time>2026-04-29T07:27:16.818Z</time></trkpt><trkpt lat="45.207839" lon="9.539668"><ele>64.0</ele><time>2026-04-29T07:27:17.819Z</time></trkpt><trkpt lat="45.2076339" lon="9.539943"><ele>65.0</ele><time>2026-04-29T07:27:18.819Z</time></trkpt><trkpt lat="45.2074269" lon="9.5402198"><ele>64.0</ele><time>2026-04-29T07:27:19.818Z</time></trkpt><trkpt lat="45.2072135" lon="9.5405003"><ele>63.0</ele><time>2026-04-29T07:27:20.819Z</time></trkpt><trkpt lat="45.2069929" lon="9.5407887"><ele>63.0</ele><time>2026-04-29T07:27:21.819Z</time></trkpt><trkpt lat="45.2067647" lon="9.5410923"><ele>63.0</ele><time>2026-04-29T07:27:22.819Z</time></trkpt><trkpt lat="45.2065373" lon="9.5413902"><ele>64.0</ele><time>2026-04-29T07:27:23.818Z</time></trkpt><trkpt lat="45.2063104" lon="9.5416746"><ele>65.0</ele><time>2026-04-29T07:27:24.819Z</time></trkpt><trkpt lat="45.2060899" lon="9.5419434"><ele>65.0</ele><time>2026-04-29T07:27:25.819Z</time></trkpt><trkpt lat="45.2058736" lon="9.5422062"><ele>65.0</ele><time>2026-04-29T07:27:26.819Z</time></trkpt><trkpt lat="45.2056642" lon="9.5424711"><ele>65.0</ele><time>2026-04-29T07:27:27.819Z</time></trkpt><trkpt lat="45.2054566" lon="9.5427423"><ele>65.0</ele><time>2026-04-29T07:27:28.819Z</time></trkpt><trkpt lat="45.2052529" lon="9.5430088"><ele>64.0</ele><time>2026-04-29T07:27:29.819Z</time></trkpt><trkpt lat="45.2050532" lon="9.5432718"><ele>63.0</ele><time>2026-04-29T07:27:30.819Z</time></trkpt><trkpt lat="45.2048545" lon="9.543534"><ele>62.5</ele><time>2026-04-29T07:27:31.819Z</time></trkpt><trkpt lat="45.2046577" lon="9.543794"><ele>62.0</ele><time>2026-04-29T07:27:32.819Z</time></trkpt><trkpt lat="45.2044586" lon="9.5440576"><ele>62.0</ele><time>2026-04-29T07:27:33.819Z</time></trkpt><trkpt lat="45.2042562" lon="9.5443196"><ele>62.0</ele><time>2026-04-29T07:27:34.819Z</time></trkpt><trkpt lat="45.2040564" lon="9.5445854"><ele>62.5</ele><time>2026-04-29T07:27:35.819Z</time></trkpt><trkpt lat="45.2038548" lon="9.5448503"><ele>63.0</ele><time>2026-04-29T07:27:36.818Z</time></trkpt><trkpt lat="45.2036525" lon="9.5451148"><ele>63.0</ele><time>2026-04-29T07:27:37.819Z</time></trkpt><trkpt lat="45.2034518" lon="9.5453784"><ele>63.0</ele><time>2026-04-29T07:27:38.819Z</time></trkpt><trkpt lat="45.2032504" lon="9.5456433"><ele>63.5</ele><time>2026-04-29T07:27:39.818Z</time></trkpt><trkpt lat="45.20305" lon="9.5459056"><ele>64.0</ele><time>2026-04-29T07:27:40.819Z</time></trkpt><trkpt lat="45.2028477" lon="9.5461684"><ele>64.0</ele><time>2026-04-29T07:27:41.819Z</time></trkpt><trkpt lat="45.2026506" lon="9.5464336"><ele>64.0</ele><time>2026-04-29T07:27:42.819Z</time></trkpt><trkpt lat="45.202452" lon="9.5466964"><ele>63.0</ele><time>2026-04-29T07:27:43.819Z</time></trkpt><trkpt lat="45.2022497" lon="9.5469591"><ele>62.0</ele><time>2026-04-29T07:27:44.819Z</time></trkpt><trkpt lat="45.2020478" lon="9.5472226"><ele>62.0</ele><time>2026-04-29T07:27:45.819Z</time></trkpt><trkpt lat="45.201848" lon="9.547482"><ele>62.0</ele><time>2026-04-29T07:27:46.819Z</time></trkpt><trkpt lat="45.2016517" lon="9.547744"><ele>62.5</ele><time>2026-04-29T07:27:47.818Z</time></trkpt><trkpt lat="45.2014556" lon="9.5480019"><ele>63.0</ele><time>2026-04-29T07:27:48.819Z</time></trkpt><trkpt lat="45.2012595" lon="9.5482583"><ele>63.0</ele><time>2026-04-29T07:27:49.819Z</time></trkpt><trkpt lat="45.2010653" lon="9.548512"><ele>63.0</ele><time>2026-04-29T07:27:50.819Z</time></trkpt><trkpt lat="45.2008709" lon="9.5487672"><ele>63.0</ele><time>2026-04-29T07:27:51.819Z</time></trkpt><trkpt lat="45.2006785" lon="9.5490218"><ele>63.0</ele><time>2026-04-29T07:27:52.819Z</time></trkpt><trkpt lat="45.2004852" lon="9.5492773"><ele>62.5</ele><time>2026-04-29T07:27:53.819Z</time></trkpt><trkpt lat="45.2002882" lon="9.549533"><ele>62.0</ele><time>2026-04-29T07:27:54.819Z</time></trkpt><trkpt lat="45.2000907" lon="9.5497919"><ele>62.0</ele><time>2026-04-29T07:27:55.819Z</time></trkpt><trkpt lat="45.199893" lon="9.5500518"><ele>62.0</ele><time>2026-04-29T07:27:56.819Z</time></trkpt><trkpt lat="45.1996965" lon="9.5503142"><ele>62.0</ele><time>2026-04-29T07:27:57.819Z</time></trkpt><trkpt lat="45.1994983" lon="9.5505804"><ele>62.0</ele><time>2026-04-29T07:27:58.818Z</time></trkpt><trkpt lat="45.199299" lon="9.5508425"><ele>62.0</ele><time>2026-04-29T07:27:59.818Z</time></trkpt><trkpt lat="45.1990954" lon="9.5511108"><ele>62.0</ele><time>2026-04-29T07:28:00.819Z</time></trkpt><trkpt lat="45.1988908" lon="9.5513836"><ele>63.5</ele><time>2026-04-29T07:28:01.819Z</time></trkpt><trkpt lat="45.1986842" lon="9.55165"><ele>65.0</ele><time>2026-04-29T07:28:02.818Z</time></trkpt><trkpt lat="45.1984814" lon="9.5519158"><ele>65.0</ele><time>2026-04-29T07:28:03.819Z</time></trkpt><trkpt lat="45.1982787" lon="9.5521772"><ele>65.0</ele><time>2026-04-29T07:28:04.819Z</time></trkpt><trkpt lat="45.1980764" lon="9.5524406"><ele>63.5</ele><time>2026-04-29T07:28:05.819Z</time></trkpt><trkpt lat="45.1978719" lon="9.5527095"><ele>62.0</ele><time>2026-04-29T07:28:06.819Z</time></trkpt><trkpt lat="45.1976649" lon="9.5529766"><ele>62.0</ele><time>2026-04-29T07:28:07.819Z</time></trkpt><trkpt lat="45.1974594" lon="9.553248"><ele>62.0</ele><time>2026-04-29T07:28:08.819Z</time></trkpt><trkpt lat="45.1972528" lon="9.5535196"><ele>62.5</ele><time>2026-04-29T07:28:09.818Z</time></trkpt><trkpt lat="45.1970478" lon="9.5537915"><ele>63.0</ele><time>2026-04-29T07:28:10.819Z</time></trkpt><trkpt lat="45.1968429" lon="9.5540637"><ele>63.0</ele><time>2026-04-29T07:28:11.819Z</time></trkpt><trkpt lat="45.1966388" lon="9.5543299"><ele>63.0</ele><time>2026-04-29T07:28:12.819Z</time></trkpt><trkpt lat="45.196437" lon="9.5545948"><ele>63.0</ele><time>2026-04-29T07:28:13.819Z</time></trkpt><trkpt lat="45.1962389" lon="9.554853"><ele>63.0</ele><time>2026-04-29T07:28:14.819Z</time></trkpt><trkpt lat="45.196044" lon="9.5551105"><ele>63.0</ele><time>2026-04-29T07:28:15.819Z</time></trkpt><trkpt lat="45.1958474" lon="9.5553679"><ele>63.0</ele><time>2026-04-29T07:28:16.819Z</time></trkpt><trkpt lat="45.195651" lon="9.5556257"><ele>62.0</ele><time>2026-04-29T07:28:17.818Z</time></trkpt><trkpt lat="45.195453" lon="9.5558866"><ele>61.0</ele><time>2026-04-29T07:28:18.819Z</time></trkpt><trkpt lat="45.1952553" lon="9.5561451"><ele>61.5</ele><time>2026-04-29T07:28:19.819Z</time></trkpt><trkpt lat="45.1950596" lon="9.5564055"><ele>62.0</ele><time>2026-04-29T07:28:20.819Z</time></trkpt><trkpt lat="45.1948644" lon="9.5566675"><ele>62.5</ele><time>2026-04-29T07:28:21.819Z</time></trkpt><trkpt lat="45.1946701" lon="9.5569307"><ele>63.0</ele><time>2026-04-29T07:28:22.818Z</time></trkpt><trkpt lat="45.1944795" lon="9.5571978"><ele>63.0</ele><time>2026-04-29T07:28:23.819Z</time></trkpt><trkpt lat="45.1942879" lon="9.5574566"><ele>63.0</ele><time>2026-04-29T07:28:24.818Z</time></trkpt><trkpt lat="45.1940973" lon="9.5577137"><ele>63.0</ele><time>2026-04-29T07:28:25.819Z</time></trkpt><trkpt lat="45.1939072" lon="9.5579685"><ele>63.0</ele><time>2026-04-29T07:28:26.819Z</time></trkpt><trkpt lat="45.1937193" lon="9.5582278"><ele>63.0</ele><time>2026-04-29T07:28:27.819Z</time></trkpt><trkpt lat="45.193532" lon="9.5584845"><ele>63.0</ele><time>2026-04-29T07:28:28.819Z</time></trkpt><trkpt lat="45.1933458" lon="9.5587413"><ele>62.5</ele><time>2026-04-29T07:28:29.819Z</time></trkpt><trkpt lat="45.1931654" lon="9.5589983"><ele>62.0</ele><time>2026-04-29T07:28:30.819Z</time></trkpt><trkpt lat="45.1929865" lon="9.5592504"><ele>62.0</ele><time>2026-04-29T07:28:31.818Z</time></trkpt><trkpt lat="45.192813" lon="9.559498"><ele>62.0</ele><time>2026-04-29T07:28:32.819Z</time></trkpt><trkpt lat="45.1926434" lon="9.5597371"><ele>61.5</ele><time>2026-04-29T07:28:33.819Z</time></trkpt><trkpt lat="45.1924741" lon="9.5599739"><ele>61.0</ele><time>2026-04-29T07:28:34.819Z</time></trkpt><trkpt lat="45.1923109" lon="9.5602045"><ele>61.0</ele><time>2026-04-29T07:28:35.819Z</time></trkpt><trkpt lat="45.1921518" lon="9.5604347"><ele>61.0</ele><time>2026-04-29T07:28:36.819Z</time></trkpt><trkpt lat="45.1919927" lon="9.5606692"><ele>61.0</ele><time>2026-04-29T07:28:37.819Z</time></trkpt><trkpt lat="45.1918279" lon="9.5609065"><ele>61.0</ele><time>2026-04-29T07:28:38.819Z</time></trkpt><trkpt lat="45.1916618" lon="9.5611513"><ele>62.0</ele><time>2026-04-29T07:28:39.819Z</time></trkpt><trkpt lat="45.1914928" lon="9.561398"><ele>63.0</ele><time>2026-04-29T07:28:40.819Z</time></trkpt><trkpt lat="45.1913223" lon="9.5616529"><ele>63.0</ele><time>2026-04-29T07:28:41.819Z</time></trkpt><trkpt lat="45.1911524" lon="9.5619098"><ele>63.0</ele><time>2026-04-29T07:28:42.819Z</time></trkpt><trkpt lat="45.1909862" lon="9.5621582"><ele>62.5</ele><time>2026-04-29T07:28:43.819Z</time></trkpt><trkpt lat="45.1908256" lon="9.5624014"><ele>62.0</ele><time>2026-04-29T07:28:44.819Z</time></trkpt><trkpt lat="45.1906664" lon="9.5626393"><ele>62.0</ele><time>2026-04-29T07:28:45.818Z</time></trkpt><trkpt lat="45.1905057" lon="9.5628827"><ele>62.0</ele><time>2026-04-29T07:28:46.819Z</time></trkpt><trkpt lat="45.1903457" lon="9.563124"><ele>62.0</ele><time>2026-04-29T07:28:47.819Z</time></trkpt><trkpt lat="45.1901939" lon="9.5633574"><ele>62.0</ele><time>2026-04-29T07:28:48.819Z</time></trkpt><trkpt lat="45.1900439" lon="9.5635892"><ele>62.0</ele><time>2026-04-29T07:28:49.819Z</time></trkpt><trkpt lat="45.1898931" lon="9.5638254"><ele>62.0</ele><time>2026-04-29T07:28:50.819Z</time></trkpt><trkpt lat="45.1897393" lon="9.564065"><ele>62.0</ele><time>2026-04-29T07:28:51.819Z</time></trkpt><trkpt lat="45.1895845" lon="9.5643091"><ele>62.0</ele><time>2026-04-29T07:28:52.819Z</time></trkpt><trkpt lat="45.1894269" lon="9.5645551"><ele>62.0</ele><time>2026-04-29T07:28:53.819Z</time></trkpt><trkpt lat="45.1892695" lon="9.5647974"><ele>62.0</ele><time>2026-04-29T07:28:54.819Z</time></trkpt><trkpt lat="45.1891131" lon="9.5650406"><ele>62.0</ele><time>2026-04-29T07:28:55.819Z</time></trkpt><trkpt lat="45.1889569" lon="9.565287"><ele>63.0</ele><time>2026-04-29T07:28:56.819Z</time></trkpt><trkpt lat="45.1888005" lon="9.5655399"><ele>64.0</ele><time>2026-04-29T07:28:57.818Z</time></trkpt><trkpt lat="45.1886426" lon="9.5658041"><ele>64.0</ele><time>2026-04-29T07:28:58.819Z</time></trkpt><trkpt lat="45.1884839" lon="9.5660733"><ele>64.0</ele><time>2026-04-29T07:28:59.818Z</time></trkpt><trkpt lat="45.188313" lon="9.5663528"><ele>62.5</ele><time>2026-04-29T07:29:00.819Z</time></trkpt><trkpt lat="45.1881433" lon="9.566632"><ele>61.0</ele><time>2026-04-29T07:29:01.819Z</time></trkpt><trkpt lat="45.1879671" lon="9.5669128"><ele>61.5</ele><time>2026-04-29T07:29:02.819Z</time></trkpt><trkpt lat="45.1877853" lon="9.5672002"><ele>62.0</ele><time>2026-04-29T07:29:03.818Z</time></trkpt><trkpt lat="45.1875992" lon="9.5674882"><ele>62.0</ele><time>2026-04-29T07:29:04.819Z</time></trkpt><trkpt lat="45.1874119" lon="9.5677783"><ele>62.0</ele><time>2026-04-29T07:29:05.819Z</time></trkpt><trkpt lat="45.1872241" lon="9.568072"><ele>62.5</ele><time>2026-04-29T07:29:06.819Z</time></trkpt><trkpt lat="45.1870352" lon="9.5683629"><ele>63.0</ele><time>2026-04-29T07:29:07.819Z</time></trkpt><trkpt lat="45.1868482" lon="9.5686565"><ele>62.5</ele><time>2026-04-29T07:29:08.819Z</time></trkpt><trkpt lat="45.1866605" lon="9.5689444"><ele>62.0</ele><time>2026-04-29T07:29:09.819Z</time></trkpt><trkpt lat="45.1864694" lon="9.5692318"><ele>61.5</ele><time>2026-04-29T07:29:10.819Z</time></trkpt><trkpt lat="45.1862767" lon="9.5695184"><ele>61.0</ele><time>2026-04-29T07:29:11.819Z</time></trkpt><trkpt lat="45.1860848" lon="9.569812"><ele>60.5</ele><time>2026-04-29T07:29:12.819Z</time></trkpt><trkpt lat="45.1858934" lon="9.5701082"><ele>60.0</ele><time>2026-04-29T07:29:13.819Z</time></trkpt><trkpt lat="45.1857007" lon="9.5704068"><ele>61.0</ele><time>2026-04-29T07:29:14.819Z</time></trkpt><trkpt lat="45.1855081" lon="9.5707025"><ele>62.0</ele><time>2026-04-29T07:29:15.819Z</time></trkpt><trkpt lat="45.1853123" lon="9.5709975"><ele>61.0</ele><time>2026-04-29T07:29:16.818Z</time></trkpt><trkpt lat="45.1851175" lon="9.5712998"><ele>60.0</ele><time>2026-04-29T07:29:17.819Z</time></trkpt><trkpt lat="45.184924" lon="9.5716041"><ele>61.0</ele><time>2026-04-29T07:29:18.819Z</time></trkpt><trkpt lat="45.184729" lon="9.5719065"><ele>62.0</ele><time>2026-04-29T07:29:19.819Z</time></trkpt><trkpt lat="45.184534" lon="9.572209"><ele>62.0</ele><time>2026-04-29T07:29:20.818Z</time></trkpt><trkpt lat="45.1843426" lon="9.572512"><ele>62.0</ele><time>2026-04-29T07:29:21.819Z</time></trkpt><trkpt lat="45.1841531" lon="9.5728141"><ele>62.5</ele><time>2026-04-29T07:29:22.819Z</time></trkpt><trkpt lat="45.1839639" lon="9.5731143"><ele>63.0</ele><time>2026-04-29T07:29:23.819Z</time></trkpt><trkpt lat="45.1837746" lon="9.573416"><ele>62.5</ele><time>2026-04-29T07:29:24.819Z</time></trkpt><trkpt lat="45.1835852" lon="9.573712"><ele>62.0</ele><time>2026-04-29T07:29:25.819Z</time></trkpt><trkpt lat="45.1833958" lon="9.574006"><ele>62.0</ele><time>2026-04-29T07:29:26.819Z</time></trkpt><trkpt lat="45.1832056" lon="9.5743001"><ele>62.0</ele><time>2026-04-29T07:29:27.819Z</time></trkpt><trkpt lat="45.1830181" lon="9.5745927"><ele>62.0</ele><time>2026-04-29T07:29:28.819Z</time></trkpt><trkpt lat="45.1828308" lon="9.5748862"><ele>62.0</ele><time>2026-04-29T07:29:29.819Z</time></trkpt><trkpt lat="45.1826414" lon="9.5751788"><ele>62.0</ele><time>2026-04-29T07:29:30.819Z</time></trkpt><trkpt lat="45.1824535" lon="9.5754709"><ele>62.0</ele><time>2026-04-29T07:29:31.818Z</time></trkpt><trkpt lat="45.182267" lon="9.5757631"><ele>62.0</ele><time>2026-04-29T07:29:32.819Z</time></trkpt><trkpt lat="45.1820863" lon="9.5760489"><ele>62.0</ele><time>2026-04-29T07:29:33.819Z</time></trkpt><trkpt lat="45.1819077" lon="9.5763298"><ele>62.5</ele><time>2026-04-29T07:29:34.819Z</time></trkpt><trkpt lat="45.1817336" lon="9.5766055"><ele>63.0</ele><time>2026-04-29T07:29:35.819Z</time></trkpt><trkpt lat="45.1815599" lon="9.5768826"><ele>63.0</ele><time>2026-04-29T07:29:36.818Z</time></trkpt><trkpt lat="45.181386" lon="9.5771494"><ele>63.0</ele><time>2026-04-29T07:29:37.818Z</time></trkpt><trkpt lat="45.181213" lon="9.5774176"><ele>63.0</ele><time>2026-04-29T07:29:38.819Z</time></trkpt><trkpt lat="45.1810389" lon="9.5776865"><ele>63.0</ele><time>2026-04-29T07:29:39.819Z</time></trkpt><trkpt lat="45.1808652" lon="9.577958"><ele>62.5</ele><time>2026-04-29T07:29:40.818Z</time></trkpt><trkpt lat="45.1806946" lon="9.5782271"><ele>62.0</ele><time>2026-04-29T07:29:41.819Z</time></trkpt><trkpt lat="45.1805241" lon="9.5784905"><ele>63.5</ele><time>2026-04-29T07:29:42.819Z</time></trkpt><trkpt lat="45.1803595" lon="9.5787469"><ele>65.0</ele><time>2026-04-29T07:29:43.819Z</time></trkpt><trkpt lat="45.1801973" lon="9.5790026"><ele>65.0</ele><time>2026-04-29T07:29:44.818Z</time></trkpt><trkpt lat="45.1800343" lon="9.5792599"><ele>65.0</ele><time>2026-04-29T07:29:45.819Z</time></trkpt><trkpt lat="45.1798719" lon="9.5795164"><ele>64.0</ele><time>2026-04-29T07:29:46.819Z</time></trkpt><trkpt lat="45.1797074" lon="9.5797741"><ele>63.0</ele><time>2026-04-29T07:29:47.819Z</time></trkpt><trkpt lat="45.1795438" lon="9.5800313"><ele>63.0</ele><time>2026-04-29T07:29:48.818Z</time></trkpt><trkpt lat="45.1793762" lon="9.5802866"><ele>63.0</ele><time>2026-04-29T07:29:49.818Z</time></trkpt><trkpt lat="45.1792133" lon="9.5805434"><ele>62.5</ele><time>2026-04-29T07:29:50.819Z</time></trkpt><trkpt lat="45.1790508" lon="9.5808019"><ele>62.0</ele><time>2026-04-29T07:29:51.819Z</time></trkpt><trkpt lat="45.1788896" lon="9.5810581"><ele>62.5</ele><time>2026-04-29T07:29:52.819Z</time></trkpt><trkpt lat="45.1787272" lon="9.581314"><ele>63.0</ele><time>2026-04-29T07:29:53.818Z</time></trkpt><trkpt lat="45.1785646" lon="9.5815675"><ele>63.0</ele><time>2026-04-29T07:29:54.819Z</time></trkpt><trkpt lat="45.1784024" lon="9.5818234"><ele>63.0</ele><time>2026-04-29T07:29:55.819Z</time></trkpt><trkpt lat="45.1782352" lon="9.5820799"><ele>64.5</ele><time>2026-04-29T07:29:56.819Z</time></trkpt><trkpt lat="45.1780688" lon="9.5823347"><ele>66.0</ele><time>2026-04-29T07:29:57.819Z</time></trkpt><trkpt lat="45.1779034" lon="9.5825876"><ele>66.0</ele><time>2026-04-29T07:29:58.819Z</time></trkpt><trkpt lat="45.177743" lon="9.5828329"><ele>66.0</ele><time>2026-04-29T07:29:59.818Z</time></trkpt><trkpt lat="45.1775894" lon="9.5830753"><ele>66.0</ele><time>2026-04-29T07:30:00.819Z</time></trkpt><trkpt lat="45.1774362" lon="9.5833158"><ele>66.0</ele><time>2026-04-29T07:30:01.819Z</time></trkpt><trkpt lat="45.1772883" lon="9.5835457"><ele>66.0</ele><time>2026-04-29T07:30:02.818Z</time></trkpt><trkpt lat="45.1771495" lon="9.583767"><ele>65.0</ele><time>2026-04-29T07:30:03.819Z</time></trkpt><trkpt lat="45.1770125" lon="9.5839806"><ele>64.0</ele><time>2026-04-29T07:30:04.819Z</time></trkpt><trkpt lat="45.1768767" lon="9.5841947"><ele>63.0</ele><time>2026-04-29T07:30:05.819Z</time></trkpt><trkpt lat="45.1767372" lon="9.5844161"><ele>62.66666666666667</ele><time>2026-04-29T07:30:06.819Z</time></trkpt><trkpt lat="45.1765914" lon="9.584642"><ele>62.333333333333336</ele><time>2026-04-29T07:30:07.819Z</time></trkpt><trkpt lat="45.1764447" lon="9.5848735"><ele>62.0</ele><time>2026-04-29T07:30:08.819Z</time></trkpt><trkpt lat="45.1762966" lon="9.5851072"><ele>62.66666666666667</ele><time>2026-04-29T07:30:09.819Z</time></trkpt><trkpt lat="45.1761472" lon="9.5853378"><ele>63.33333333333333</ele><time>2026-04-29T07:30:10.818Z</time></trkpt><trkpt lat="45.1760019" lon="9.5855687"><ele>64.0</ele><time>2026-04-29T07:30:11.818Z</time></trkpt><trkpt lat="45.1758573" lon="9.5857973"><ele>64.0</ele><time>2026-04-29T07:30:12.819Z</time></trkpt><trkpt lat="45.1757117" lon="9.5860295"><ele>64.0</ele><time>2026-04-29T07:30:13.819Z</time></trkpt><trkpt lat="45.1755634" lon="9.5862624"><ele>64.0</ele><time>2026-04-29T07:30:14.818Z</time></trkpt><trkpt lat="45.175413" lon="9.5865001"><ele>64.0</ele><time>2026-04-29T07:30:15.819Z</time></trkpt><trkpt lat="45.1752603" lon="9.5867437"><ele>64.0</ele><time>2026-04-29T07:30:16.819Z</time></trkpt><trkpt lat="45.175104" lon="9.586995"><ele>64.0</ele><time>2026-04-29T07:30:17.819Z</time></trkpt><trkpt lat="45.1749462" lon="9.5872495"><ele>64.0</ele><time>2026-04-29T07:30:18.819Z</time></trkpt><trkpt lat="45.1747902" lon="9.5875042"><ele>64.0</ele><time>2026-04-29T07:30:19.819Z</time></trkpt><trkpt lat="45.1746439" lon="9.5877486"><ele>64.0</ele><time>2026-04-29T07:30:20.818Z</time></trkpt><trkpt lat="45.1745012" lon="9.5879831"><ele>64.0</ele><time>2026-04-29T07:30:21.819Z</time></trkpt><trkpt lat="45.1743528" lon="9.5882211"><ele>63.0</ele><time>2026-04-29T07:30:22.819Z</time></trkpt><trkpt lat="45.1741928" lon="9.5884731"><ele>62.0</ele><time>2026-04-29T07:30:23.819Z</time></trkpt><trkpt lat="45.1740254" lon="9.5887347"><ele>63.0</ele><time>2026-04-29T07:30:24.819Z</time></trkpt><trkpt lat="45.1738565" lon="9.589003"><ele>64.0</ele><time>2026-04-29T07:30:25.819Z</time></trkpt><trkpt lat="45.1736813" lon="9.589276"><ele>64.5</ele><time>2026-04-29T07:30:26.819Z</time></trkpt><trkpt lat="45.1735028" lon="9.5895532"><ele>65.0</ele><time>2026-04-29T07:30:27.818Z</time></trkpt><trkpt lat="45.1733192" lon="9.5898384"><ele>65.0</ele><time>2026-04-29T07:30:28.819Z</time></trkpt><trkpt lat="45.1731313" lon="9.5901248"><ele>65.0</ele><time>2026-04-29T07:30:29.819Z</time></trkpt><trkpt lat="45.1729414" lon="9.5904218"><ele>65.0</ele><time>2026-04-29T07:30:30.819Z</time></trkpt><trkpt lat="45.1727469" lon="9.5907199"><ele>65.0</ele><time>2026-04-29T07:30:31.819Z</time></trkpt><trkpt lat="45.1725565" lon="9.5910235"><ele>64.5</ele><time>2026-04-29T07:30:32.819Z</time></trkpt><trkpt lat="45.1723696" lon="9.5913208"><ele>64.0</ele><time>2026-04-29T07:30:33.819Z</time></trkpt><trkpt lat="45.1721819" lon="9.5916195"><ele>64.0</ele><time>2026-04-29T07:30:34.819Z</time></trkpt><trkpt lat="45.1719938" lon="9.5919177"><ele>64.0</ele><time>2026-04-29T07:30:35.819Z</time></trkpt><trkpt lat="45.1718069" lon="9.5922127"><ele>63.5</ele><time>2026-04-29T07:30:36.818Z</time></trkpt><trkpt lat="45.1716151" lon="9.5925059"><ele>63.0</ele><time>2026-04-29T07:30:37.819Z</time></trkpt><trkpt lat="45.1714223" lon="9.5927985"><ele>64.5</ele><time>2026-04-29T07:30:38.818Z</time></trkpt><trkpt lat="45.1712271" lon="9.5930918"><ele>66.0</ele><time>2026-04-29T07:30:39.819Z</time></trkpt><trkpt lat="45.1710312" lon="9.5933872"><ele>66.0</ele><time>2026-04-29T07:30:40.819Z</time></trkpt><trkpt lat="45.1708351" lon="9.5936864"><ele>66.0</ele><time>2026-04-29T07:30:41.819Z</time></trkpt><trkpt lat="45.1706362" lon="9.5939898"><ele>66.5</ele><time>2026-04-29T07:30:42.819Z</time></trkpt><trkpt lat="45.1704372" lon="9.5942929"><ele>67.0</ele><time>2026-04-29T07:30:43.819Z</time></trkpt><trkpt lat="45.1702401" lon="9.5945947"><ele>67.0</ele><time>2026-04-29T07:30:44.819Z</time></trkpt><trkpt lat="45.170043" lon="9.5948998"><ele>67.0</ele><time>2026-04-29T07:30:45.819Z</time></trkpt><trkpt lat="45.1698484" lon="9.5952038"><ele>65.0</ele><time>2026-04-29T07:30:46.819Z</time></trkpt><trkpt lat="45.16965" lon="9.5955115"><ele>63.0</ele><time>2026-04-29T07:30:47.818Z</time></trkpt><trkpt lat="45.169452" lon="9.5958199"><ele>63.0</ele><time>2026-04-29T07:30:48.818Z</time></trkpt><trkpt lat="45.1692559" lon="9.5961306"><ele>63.0</ele><time>2026-04-29T07:30:49.819Z</time></trkpt><trkpt lat="45.1690577" lon="9.5964429"><ele>62.5</ele><time>2026-04-29T07:30:50.819Z</time></trkpt><trkpt lat="45.1688565" lon="9.5967559"><ele>62.0</ele><time>2026-04-29T07:30:51.819Z</time></trkpt><trkpt lat="45.1686555" lon="9.5970706"><ele>61.5</ele><time>2026-04-29T07:30:52.819Z</time></trkpt><trkpt lat="45.1684548" lon="9.5973853"><ele>61.0</ele><time>2026-04-29T07:30:53.818Z</time></trkpt><trkpt lat="45.1682556" lon="9.5976984"><ele>60.5</ele><time>2026-04-29T07:30:54.818Z</time></trkpt><trkpt lat="45.1680558" lon="9.5980134"><ele>60.0</ele><time>2026-04-29T07:30:55.819Z</time></trkpt><trkpt lat="45.1678564" lon="9.5983241"><ele>60.0</ele><time>2026-04-29T07:30:56.818Z</time></trkpt><trkpt lat="45.1676573" lon="9.5986362"><ele>60.0</ele><time>2026-04-29T07:30:57.819Z</time></trkpt><trkpt lat="45.167456" lon="9.5989441"><ele>60.5</ele><time>2026-04-29T07:30:58.818Z</time></trkpt><trkpt lat="45.1672559" lon="9.5992508"><ele>61.0</ele><time>2026-04-29T07:30:59.819Z</time></trkpt><trkpt lat="45.1670542" lon="9.5995577"><ele>61.5</ele><time>2026-04-29T07:31:00.819Z</time></trkpt><trkpt lat="45.1668482" lon="9.5998658"><ele>62.0</ele><time>2026-04-29T07:31:01.819Z</time></trkpt><trkpt lat="45.1666417" lon="9.6001783"><ele>62.0</ele><time>2026-04-29T07:31:02.819Z</time></trkpt><trkpt lat="45.1664328" lon="9.600493"><ele>62.0</ele><time>2026-04-29T07:31:03.819Z</time></trkpt><trkpt lat="45.1662246" lon="9.6008033"><ele>62.0</ele><time>2026-04-29T07:31:04.819Z</time></trkpt><trkpt lat="45.1660129" lon="9.601113"><ele>62.0</ele><time>2026-04-29T07:31:05.819Z</time></trkpt><trkpt lat="45.1658028" lon="9.6014218"><ele>61.5</ele><time>2026-04-29T07:31:06.819Z</time></trkpt><trkpt lat="45.1655932" lon="9.60173"><ele>61.0</ele><time>2026-04-29T07:31:07.819Z</time></trkpt><trkpt lat="45.1653803" lon="9.6020361"><ele>60.5</ele><time>2026-04-29T07:31:08.818Z</time></trkpt><trkpt lat="45.1651683" lon="9.6023382"><ele>60.0</ele><time>2026-04-29T07:31:09.819Z</time></trkpt><trkpt lat="45.1649561" lon="9.60264"><ele>60.5</ele><time>2026-04-29T07:31:10.819Z</time></trkpt><trkpt lat="45.1647446" lon="9.6029429"><ele>61.0</ele><time>2026-04-29T07:31:11.819Z</time></trkpt><trkpt lat="45.1645341" lon="9.6032435"><ele>61.0</ele><time>2026-04-29T07:31:12.819Z</time></trkpt><trkpt lat="45.1643215" lon="9.6035458"><ele>61.0</ele><time>2026-04-29T07:31:13.819Z</time></trkpt><trkpt lat="45.1641056" lon="9.6038441"><ele>63.0</ele><time>2026-04-29T07:31:14.818Z</time></trkpt><trkpt lat="45.1638902" lon="9.6041459"><ele>65.0</ele><time>2026-04-29T07:31:15.819Z</time></trkpt><trkpt lat="45.163676" lon="9.604445"><ele>65.0</ele><time>2026-04-29T07:31:16.819Z</time></trkpt><trkpt lat="45.1634615" lon="9.6047437"><ele>65.0</ele><time>2026-04-29T07:31:17.819Z</time></trkpt><trkpt lat="45.1632473" lon="9.6050423"><ele>63.0</ele><time>2026-04-29T07:31:18.819Z</time></trkpt><trkpt lat="45.1630339" lon="9.6053417"><ele>61.0</ele><time>2026-04-29T07:31:19.819Z</time></trkpt><trkpt lat="45.1628211" lon="9.6056422"><ele>61.0</ele><time>2026-04-29T07:31:20.819Z</time></trkpt><trkpt lat="45.1626059" lon="9.6059422"><ele>61.0</ele><time>2026-04-29T07:31:21.818Z</time></trkpt><trkpt lat="45.1623901" lon="9.6062418"><ele>62.0</ele><time>2026-04-29T07:31:22.819Z</time></trkpt><trkpt lat="45.1621729" lon="9.6065451"><ele>63.0</ele><time>2026-04-29T07:31:23.819Z</time></trkpt><trkpt lat="45.1619558" lon="9.60685"><ele>62.5</ele><time>2026-04-29T07:31:24.819Z</time></trkpt><trkpt lat="45.1617376" lon="9.6071563"><ele>62.0</ele><time>2026-04-29T07:31:25.819Z</time></trkpt><trkpt lat="45.1615179" lon="9.6074647"><ele>62.0</ele><time>2026-04-29T07:31:26.819Z</time></trkpt><trkpt lat="45.1612964" lon="9.6077717"><ele>62.0</ele><time>2026-04-29T07:31:27.818Z</time></trkpt><trkpt lat="45.1610735" lon="9.6080844"><ele>62.0</ele><time>2026-04-29T07:31:28.818Z</time></trkpt><trkpt lat="45.16085" lon="9.6083959"><ele>62.0</ele><time>2026-04-29T07:31:29.819Z</time></trkpt><trkpt lat="45.1606266" lon="9.6087054"><ele>62.0</ele><time>2026-04-29T07:31:30.818Z</time></trkpt><trkpt lat="45.1604029" lon="9.6090148"><ele>62.0</ele><time>2026-04-29T07:31:31.819Z</time></trkpt><trkpt lat="45.1601824" lon="9.6093221"><ele>61.5</ele><time>2026-04-29T07:31:32.818Z</time></trkpt><trkpt lat="45.1599611" lon="9.6096302"><ele>61.0</ele><time>2026-04-29T07:31:33.819Z</time></trkpt><trkpt lat="45.1597389" lon="9.6099413"><ele>61.0</ele><time>2026-04-29T07:31:34.819Z</time></trkpt><trkpt lat="45.1595174" lon="9.6102532"><ele>61.0</ele><time>2026-04-29T07:31:35.819Z</time></trkpt><trkpt lat="45.1592973" lon="9.6105622"><ele>61.0</ele><time>2026-04-29T07:31:36.818Z</time></trkpt><trkpt lat="45.1590782" lon="9.6108712"><ele>61.0</ele><time>2026-04-29T07:31:37.819Z</time></trkpt><trkpt lat="45.1588588" lon="9.61118"><ele>60.5</ele><time>2026-04-29T07:31:38.819Z</time></trkpt><trkpt lat="45.1586396" lon="9.6114865"><ele>60.0</ele><time>2026-04-29T07:31:39.819Z</time></trkpt><trkpt lat="45.1584206" lon="9.6117914"><ele>60.0</ele><time>2026-04-29T07:31:40.819Z</time></trkpt><trkpt lat="45.1582009" lon="9.6120976"><ele>60.0</ele><time>2026-04-29T07:31:41.818Z</time></trkpt><trkpt lat="45.1579824" lon="9.6124024"><ele>60.0</ele><time>2026-04-29T07:31:42.818Z</time></trkpt><trkpt lat="45.1577627" lon="9.6127098"><ele>60.0</ele><time>2026-04-29T07:31:43.819Z</time></trkpt><trkpt lat="45.1575451" lon="9.6130176"><ele>60.0</ele><time>2026-04-29T07:31:44.819Z</time></trkpt><trkpt lat="45.1573244" lon="9.6133289"><ele>60.0</ele><time>2026-04-29T07:31:45.819Z</time></trkpt><trkpt lat="45.1571025" lon="9.6136422"><ele>59.5</ele><time>2026-04-29T07:31:46.819Z</time></trkpt><trkpt lat="45.1568804" lon="9.6139547"><ele>59.0</ele><time>2026-04-29T07:31:47.818Z</time></trkpt><trkpt lat="45.1566572" lon="9.614267"><ele>60.0</ele><time>2026-04-29T07:31:48.819Z</time></trkpt><trkpt lat="45.1564309" lon="9.6145818"><ele>61.0</ele><time>2026-04-29T07:31:49.819Z</time></trkpt><trkpt lat="45.1562039" lon="9.6148945"><ele>61.0</ele><time>2026-04-29T07:31:50.819Z</time></trkpt><trkpt lat="45.1559789" lon="9.6152079"><ele>61.0</ele><time>2026-04-29T07:31:51.818Z</time></trkpt><trkpt lat="45.1557511" lon="9.6155264"><ele>60.0</ele><time>2026-04-29T07:31:52.819Z</time></trkpt><trkpt lat="45.1555174" lon="9.6158543"><ele>59.0</ele><time>2026-04-29T07:31:53.819Z</time></trkpt><trkpt lat="45.1552799" lon="9.6161859"><ele>59.0</ele><time>2026-04-29T07:31:54.819Z</time></trkpt><trkpt lat="45.1550398" lon="9.6165231"><ele>59.0</ele><time>2026-04-29T07:31:55.819Z</time></trkpt><trkpt lat="45.1547941" lon="9.6168629"><ele>59.0</ele><time>2026-04-29T07:31:56.819Z</time></trkpt><trkpt lat="45.1545471" lon="9.6172099"><ele>59.0</ele><time>2026-04-29T07:31:57.818Z</time></trkpt><trkpt lat="45.1543022" lon="9.6175579"><ele>59.5</ele><time>2026-04-29T07:31:58.819Z</time></trkpt><trkpt lat="45.1540537" lon="9.6179059"><ele>60.0</ele><time>2026-04-29T07:31:59.819Z</time></trkpt><trkpt lat="45.1538096" lon="9.6182439"><ele>60.0</ele><time>2026-04-29T07:32:00.819Z</time></trkpt><trkpt lat="45.1535812" lon="9.6185654"><ele>60.0</ele><time>2026-04-29T07:32:01.819Z</time></trkpt><trkpt lat="45.1533595" lon="9.6188721"><ele>60.0</ele><time>2026-04-29T07:32:02.818Z</time></trkpt><trkpt lat="45.1531397" lon="9.6191777"><ele>60.0</ele><time>2026-04-29T07:32:03.819Z</time></trkpt><trkpt lat="45.1529246" lon="9.6194812"><ele>60.0</ele><time>2026-04-29T07:32:04.819Z</time></trkpt><trkpt lat="45.1527099" lon="9.6197853"><ele>60.0</ele><time>2026-04-29T07:32:05.819Z</time></trkpt><trkpt lat="45.1524972" lon="9.6200915"><ele>60.0</ele><time>2026-04-29T07:32:06.819Z</time></trkpt><trkpt lat="45.1522799" lon="9.620405"><ele>60.0</ele><time>2026-04-29T07:32:07.819Z</time></trkpt><trkpt lat="45.1520576" lon="9.6207289"><ele>60.0</ele><time>2026-04-29T07:32:08.818Z</time></trkpt><trkpt lat="45.1518271" lon="9.6210634"><ele>60.0</ele><time>2026-04-29T07:32:09.819Z</time></trkpt><trkpt lat="45.1515928" lon="9.6213984"><ele>59.5</ele><time>2026-04-29T07:32:10.819Z</time></trkpt><trkpt lat="45.1513564" lon="9.6217343"><ele>59.0</ele><time>2026-04-29T07:32:11.819Z</time></trkpt><trkpt lat="45.1511199" lon="9.6220668"><ele>59.0</ele><time>2026-04-29T07:32:12.819Z</time></trkpt><trkpt lat="45.150885" lon="9.6223973"><ele>59.0</ele><time>2026-04-29T07:32:13.819Z</time></trkpt><trkpt lat="45.1506527" lon="9.6227223"><ele>59.0</ele><time>2026-04-29T07:32:14.819Z</time></trkpt><trkpt lat="45.1504246" lon="9.6230449"><ele>59.0</ele><time>2026-04-29T07:32:15.819Z</time></trkpt><trkpt lat="45.1502" lon="9.6233596"><ele>59.0</ele><time>2026-04-29T07:32:16.819Z</time></trkpt><trkpt lat="45.1499752" lon="9.6236716"><ele>59.0</ele><time>2026-04-29T07:32:17.819Z</time></trkpt><trkpt lat="45.1497552" lon="9.6239795"><ele>59.0</ele><time>2026-04-29T07:32:18.818Z</time></trkpt><trkpt lat="45.1495358" lon="9.6242873"><ele>59.0</ele><time>2026-04-29T07:32:19.819Z</time></trkpt><trkpt lat="45.1493155" lon="9.6245908"><ele>59.0</ele><time>2026-04-29T07:32:20.819Z</time></trkpt><trkpt lat="45.1490967" lon="9.6248891"><ele>59.0</ele><time>2026-04-29T07:32:21.819Z</time></trkpt><trkpt lat="45.1488798" lon="9.625178"><ele>60.0</ele><time>2026-04-29T07:32:22.819Z</time></trkpt><trkpt lat="45.1486643" lon="9.6254666"><ele>61.0</ele><time>2026-04-29T07:32:23.818Z</time></trkpt><trkpt lat="45.1484472" lon="9.6257549"><ele>61.0</ele><time>2026-04-29T07:32:24.819Z</time></trkpt><trkpt lat="45.1482307" lon="9.6260457"><ele>61.0</ele><time>2026-04-29T07:32:25.818Z</time></trkpt><trkpt lat="45.1480165" lon="9.6263347"><ele>59.5</ele><time>2026-04-29T07:32:26.819Z</time></trkpt><trkpt lat="45.1478056" lon="9.626624"><ele>58.0</ele><time>2026-04-29T07:32:27.819Z</time></trkpt><trkpt lat="45.1475978" lon="9.6269155"><ele>57.5</ele><time>2026-04-29T07:32:28.819Z</time></trkpt><trkpt lat="45.1473916" lon="9.6272072"><ele>57.0</ele><time>2026-04-29T07:32:29.818Z</time></trkpt><trkpt lat="45.1471843" lon="9.6274972"><ele>56.5</ele><time>2026-04-29T07:32:30.819Z</time></trkpt><trkpt lat="45.1469783" lon="9.6277852"><ele>56.0</ele><time>2026-04-29T07:32:31.819Z</time></trkpt><trkpt lat="45.1467697" lon="9.6280716"><ele>56.0</ele><time>2026-04-29T07:32:32.819Z</time></trkpt><trkpt lat="45.1465613" lon="9.6283589"><ele>56.0</ele><time>2026-04-29T07:32:33.819Z</time></trkpt><trkpt lat="45.1463533" lon="9.6286469"><ele>56.5</ele><time>2026-04-29T07:32:34.819Z</time></trkpt><trkpt lat="45.1461431" lon="9.6289392"><ele>57.0</ele><time>2026-04-29T07:32:35.819Z</time></trkpt><trkpt lat="45.1459306" lon="9.6292337"><ele>57.0</ele><time>2026-04-29T07:32:36.818Z</time></trkpt><trkpt lat="45.1457191" lon="9.6295317"><ele>57.0</ele><time>2026-04-29T07:32:37.818Z</time></trkpt><trkpt lat="45.1455039" lon="9.6298297"><ele>57.0</ele><time>2026-04-29T07:32:38.818Z</time></trkpt><trkpt lat="45.1452896" lon="9.6301275"><ele>57.0</ele><time>2026-04-29T07:32:39.818Z</time></trkpt><trkpt lat="45.145075" lon="9.6304268"><ele>56.0</ele><time>2026-04-29T07:32:40.819Z</time></trkpt><trkpt lat="45.1448591" lon="9.6307271"><ele>55.0</ele><time>2026-04-29T07:32:41.818Z</time></trkpt><trkpt lat="45.1446435" lon="9.631032"><ele>55.5</ele><time>2026-04-29T07:32:42.818Z</time></trkpt><trkpt lat="45.1444261" lon="9.6313369"><ele>56.0</ele><time>2026-04-29T07:32:43.819Z</time></trkpt><trkpt lat="45.1442102" lon="9.6316378"><ele>56.5</ele><time>2026-04-29T07:32:44.819Z</time></trkpt><trkpt lat="45.1439956" lon="9.6319364"><ele>57.0</ele><time>2026-04-29T07:32:45.819Z</time></trkpt><trkpt lat="45.1437826" lon="9.6322343"><ele>57.0</ele><time>2026-04-29T07:32:46.819Z</time></trkpt><trkpt lat="45.1435724" lon="9.6325289"><ele>57.0</ele><time>2026-04-29T07:32:47.819Z</time></trkpt><trkpt lat="45.1433642" lon="9.6328199"><ele>56.5</ele><time>2026-04-29T07:32:48.819Z</time></trkpt><trkpt lat="45.1431571" lon="9.6331092"><ele>56.0</ele><time>2026-04-29T07:32:49.819Z</time></trkpt><trkpt lat="45.1429514" lon="9.6333984"><ele>55.5</ele><time>2026-04-29T07:32:50.819Z</time></trkpt><trkpt lat="45.142745" lon="9.6336876"><ele>55.0</ele><time>2026-04-29T07:32:51.819Z</time></trkpt><trkpt lat="45.1425388" lon="9.6339785"><ele>55.0</ele><time>2026-04-29T07:32:52.819Z</time></trkpt><trkpt lat="45.1423329" lon="9.6342699"><ele>55.0</ele><time>2026-04-29T07:32:53.819Z</time></trkpt><trkpt lat="45.1421272" lon="9.634562"><ele>53.0</ele><time>2026-04-29T07:32:54.819Z</time></trkpt><trkpt lat="45.1419225" lon="9.6348532"><ele>51.0</ele><time>2026-04-29T07:32:55.819Z</time></trkpt><trkpt lat="45.1417206" lon="9.6351514"><ele>50.0</ele><time>2026-04-29T07:32:56.819Z</time></trkpt><trkpt lat="45.1415205" lon="9.6354539"><ele>49.0</ele><time>2026-04-29T07:32:57.819Z</time></trkpt><trkpt lat="45.1413236" lon="9.6357616"><ele>49.0</ele><time>2026-04-29T07:32:58.819Z</time></trkpt><trkpt lat="45.141131" lon="9.6360732"><ele>49.0</ele><time>2026-04-29T07:32:59.819Z</time></trkpt><trkpt lat="45.1409383" lon="9.63639"><ele>48.5</ele><time>2026-04-29T07:33:00.819Z</time></trkpt><trkpt lat="45.1407475" lon="9.6367128"><ele>48.0</ele><time>2026-04-29T07:33:01.818Z</time></trkpt><trkpt lat="45.1405602" lon="9.6370394"><ele>48.0</ele><time>2026-04-29T07:33:02.819Z</time></trkpt><trkpt lat="45.1403742" lon="9.637371"><ele>48.0</ele><time>2026-04-29T07:33:03.819Z</time></trkpt><trkpt lat="45.1401948" lon="9.6377103"><ele>48.0</ele><time>2026-04-29T07:33:04.819Z</time></trkpt><trkpt lat="45.1400158" lon="9.638054"><ele>48.0</ele><time>2026-04-29T07:33:05.818Z</time></trkpt><trkpt lat="45.1398402" lon="9.6384008"><ele>48.0</ele><time>2026-04-29T07:33:06.819Z</time></trkpt><trkpt lat="45.1396661" lon="9.6387449"><ele>48.0</ele><time>2026-04-29T07:33:07.819Z</time></trkpt><trkpt lat="45.1394926" lon="9.6390845"><ele>48.0</ele><time>2026-04-29T07:33:08.818Z</time></trkpt><trkpt lat="45.1393189" lon="9.6394213"><ele>48.0</ele><time>2026-04-29T07:33:09.819Z</time></trkpt><trkpt lat="45.1391425" lon="9.6397611"><ele>48.0</ele><time>2026-04-29T07:33:10.819Z</time></trkpt><trkpt lat="45.1389637" lon="9.6401049"><ele>48.0</ele><time>2026-04-29T07:33:11.819Z</time></trkpt><trkpt lat="45.1387867" lon="9.640451"><ele>48.5</ele><time>2026-04-29T07:33:12.819Z</time></trkpt><trkpt lat="45.138608" lon="9.6408012"><ele>49.0</ele><time>2026-04-29T07:33:13.819Z</time></trkpt><trkpt lat="45.1384292" lon="9.6411593"><ele>49.5</ele><time>2026-04-29T07:33:14.819Z</time></trkpt><trkpt lat="45.1382521" lon="9.6415085"><ele>50.0</ele><time>2026-04-29T07:33:15.819Z</time></trkpt><trkpt lat="45.1380766" lon="9.6418542"><ele>50.5</ele><time>2026-04-29T07:33:16.819Z</time></trkpt><trkpt lat="45.1378963" lon="9.6421992"><ele>51.0</ele><time>2026-04-29T07:33:17.819Z</time></trkpt><trkpt lat="45.1377192" lon="9.6425453"><ele>50.0</ele><time>2026-04-29T07:33:18.819Z</time></trkpt><trkpt lat="45.1375421" lon="9.6428949"><ele>49.0</ele><time>2026-04-29T07:33:19.819Z</time></trkpt><trkpt lat="45.1373636" lon="9.643236"><ele>49.0</ele><time>2026-04-29T07:33:20.819Z</time></trkpt><trkpt lat="45.1371862" lon="9.6435802"><ele>49.0</ele><time>2026-04-29T07:33:21.819Z</time></trkpt><trkpt lat="45.1370098" lon="9.6439287"><ele>48.5</ele><time>2026-04-29T07:33:22.818Z</time></trkpt><trkpt lat="45.1368333" lon="9.6442745"><ele>48.0</ele><time>2026-04-29T07:33:23.818Z</time></trkpt><trkpt lat="45.136657" lon="9.6446222"><ele>47.5</ele><time>2026-04-29T07:33:24.819Z</time></trkpt><trkpt lat="45.1364802" lon="9.6449668"><ele>47.0</ele><time>2026-04-29T07:33:25.819Z</time></trkpt><trkpt lat="45.1363041" lon="9.6453132"><ele>46.5</ele><time>2026-04-29T07:33:26.819Z</time></trkpt><trkpt lat="45.1361244" lon="9.6456647"><ele>46.0</ele><time>2026-04-29T07:33:27.818Z</time></trkpt><trkpt lat="45.135945" lon="9.6460194"><ele>46.0</ele><time>2026-04-29T07:33:28.819Z</time></trkpt><trkpt lat="45.1357634" lon="9.6463741"><ele>46.0</ele><time>2026-04-29T07:33:29.819Z</time></trkpt><trkpt lat="45.1355807" lon="9.6467326"><ele>47.0</ele><time>2026-04-29T07:33:30.819Z</time></trkpt><trkpt lat="45.1353984" lon="9.647092"><ele>48.0</ele><time>2026-04-29T07:33:31.819Z</time></trkpt><trkpt lat="45.1352189" lon="9.6474492"><ele>47.5</ele><time>2026-04-29T07:33:32.819Z</time></trkpt><trkpt lat="45.1350352" lon="9.6478086"><ele>47.0</ele><time>2026-04-29T07:33:33.818Z</time></trkpt><trkpt lat="45.1348517" lon="9.6481668"><ele>47.0</ele><time>2026-04-29T07:33:34.819Z</time></trkpt><trkpt lat="45.1346633" lon="9.6485296"><ele>47.0</ele><time>2026-04-29T07:33:35.818Z</time></trkpt><trkpt lat="45.1344719" lon="9.6488979"><ele>47.0</ele><time>2026-04-29T07:33:36.819Z</time></trkpt><trkpt lat="45.1342788" lon="9.6492702"><ele>47.0</ele><time>2026-04-29T07:33:37.819Z</time></trkpt><trkpt lat="45.1340857" lon="9.6496437"><ele>47.0</ele><time>2026-04-29T07:33:38.819Z</time></trkpt><trkpt lat="45.1338926" lon="9.6500214"><ele>47.0</ele><time>2026-04-29T07:33:39.819Z</time></trkpt><trkpt lat="45.1336988" lon="9.6503983"><ele>47.0</ele><time>2026-04-29T07:33:40.819Z</time></trkpt><trkpt lat="45.1335076" lon="9.6507637"><ele>47.0</ele><time>2026-04-29T07:33:41.819Z</time></trkpt><trkpt lat="45.133321" lon="9.6511287"><ele>47.0</ele><time>2026-04-29T07:33:42.819Z</time></trkpt><trkpt lat="45.1331358" lon="9.6514923"><ele>47.0</ele><time>2026-04-29T07:33:43.819Z</time></trkpt><trkpt lat="45.132951" lon="9.6518513"><ele>47.5</ele><time>2026-04-29T07:33:44.819Z</time></trkpt><trkpt lat="45.1327675" lon="9.652209"><ele>48.0</ele><time>2026-04-29T07:33:45.819Z</time></trkpt><trkpt lat="45.1325839" lon="9.6525658"><ele>48.0</ele><time>2026-04-29T07:33:46.819Z</time></trkpt><trkpt lat="45.1324017" lon="9.652925"><ele>48.0</ele><time>2026-04-29T07:33:47.819Z</time></trkpt><trkpt lat="45.1322183" lon="9.653282"><ele>48.0</ele><time>2026-04-29T07:33:48.819Z</time></trkpt><trkpt lat="45.1320348" lon="9.653635"><ele>48.0</ele><time>2026-04-29T07:33:49.819Z</time></trkpt><trkpt lat="45.1318538" lon="9.6539891"><ele>48.0</ele><time>2026-04-29T07:33:50.819Z</time></trkpt><trkpt lat="45.1316716" lon="9.6543437"><ele>48.0</ele><time>2026-04-29T07:33:51.819Z</time></trkpt><trkpt lat="45.13149" lon="9.6546984"><ele>47.5</ele><time>2026-04-29T07:33:52.819Z</time></trkpt><trkpt lat="45.1313088" lon="9.655054"><ele>47.0</ele><time>2026-04-29T07:33:53.819Z</time></trkpt><trkpt lat="45.131128" lon="9.6554018"><ele>47.0</ele><time>2026-04-29T07:33:54.819Z</time></trkpt><trkpt lat="45.1309448" lon="9.6557475"><ele>47.0</ele><time>2026-04-29T07:33:55.819Z</time></trkpt><trkpt lat="45.1307595" lon="9.6560961"><ele>48.5</ele><time>2026-04-29T07:33:56.819Z</time></trkpt><trkpt lat="45.1305733" lon="9.6564437"><ele>50.0</ele><time>2026-04-29T07:33:57.819Z</time></trkpt><trkpt lat="45.130388" lon="9.6567952"><ele>50.0</ele><time>2026-04-29T07:33:58.819Z</time></trkpt><trkpt lat="45.1302017" lon="9.65715"><ele>50.0</ele><time>2026-04-29T07:33:59.818Z</time></trkpt><trkpt lat="45.1300174" lon="9.6575058"><ele>48.5</ele><time>2026-04-29T07:34:00.818Z</time></trkpt><trkpt lat="45.129839" lon="9.6578562"><ele>47.0</ele><time>2026-04-29T07:34:01.819Z</time></trkpt><trkpt lat="45.1296647" lon="9.6581963"><ele>47.0</ele><time>2026-04-29T07:34:02.819Z</time></trkpt><trkpt lat="45.1294904" lon="9.6585375"><ele>47.0</ele><time>2026-04-29T07:34:03.818Z</time></trkpt><trkpt lat="45.1293169" lon="9.6588759"><ele>47.0</ele><time>2026-04-29T07:34:04.819Z</time></trkpt><trkpt lat="45.1291425" lon="9.6592067"><ele>47.0</ele><time>2026-04-29T07:34:05.819Z</time></trkpt><trkpt lat="45.1289657" lon="9.6595428"><ele>46.5</ele><time>2026-04-29T07:34:06.819Z</time></trkpt><trkpt lat="45.1287862" lon="9.6598775"><ele>46.0</ele><time>2026-04-29T07:34:07.819Z</time></trkpt><trkpt lat="45.1286061" lon="9.6602065"><ele>47.0</ele><time>2026-04-29T07:34:08.819Z</time></trkpt><trkpt lat="45.1284267" lon="9.6605363"><ele>48.0</ele><time>2026-04-29T07:34:09.818Z</time></trkpt><trkpt lat="45.1282469" lon="9.660861"><ele>47.5</ele><time>2026-04-29T07:34:10.819Z</time></trkpt><trkpt lat="45.1280661" lon="9.6611832"><ele>47.0</ele><time>2026-04-29T07:34:11.819Z</time></trkpt><trkpt lat="45.1278845" lon="9.661504"><ele>47.0</ele><time>2026-04-29T07:34:12.819Z</time></trkpt><trkpt lat="45.1277017" lon="9.661825"><ele>47.0</ele><time>2026-04-29T07:34:13.818Z</time></trkpt><trkpt lat="45.1275168" lon="9.6621443"><ele>46.5</ele><time>2026-04-29T07:34:14.819Z</time></trkpt><trkpt lat="45.1273283" lon="9.6624633"><ele>46.0</ele><time>2026-04-29T07:34:15.819Z</time></trkpt><trkpt lat="45.1271403" lon="9.6627784"><ele>46.5</ele><time>2026-04-29T07:34:16.818Z</time></trkpt><trkpt lat="45.126951" lon="9.6630905"><ele>47.0</ele><time>2026-04-29T07:34:17.818Z</time></trkpt><trkpt lat="45.126759" lon="9.6634012"><ele>47.0</ele><time>2026-04-29T07:34:18.819Z</time></trkpt><trkpt lat="45.1265644" lon="9.6637135"><ele>47.0</ele><time>2026-04-29T07:34:19.818Z</time></trkpt><trkpt lat="45.1263689" lon="9.6640229"><ele>47.0</ele><time>2026-04-29T07:34:20.819Z</time></trkpt><trkpt lat="45.1261715" lon="9.6643331"><ele>47.0</ele><time>2026-04-29T07:34:21.819Z</time></trkpt><trkpt lat="45.1259735" lon="9.6646423"><ele>47.0</ele><time>2026-04-29T07:34:22.819Z</time></trkpt><trkpt lat="45.1257736" lon="9.6649493"><ele>47.0</ele><time>2026-04-29T07:34:23.818Z</time></trkpt><trkpt lat="45.1255708" lon="9.6652546"><ele>47.0</ele><time>2026-04-29T07:34:24.818Z</time></trkpt><trkpt lat="45.1253659" lon="9.66556"><ele>47.0</ele><time>2026-04-29T07:34:25.819Z</time></trkpt><trkpt lat="45.1251596" lon="9.6658637"><ele>46.5</ele><time>2026-04-29T07:34:26.819Z</time></trkpt><trkpt lat="45.1249546" lon="9.6661628"><ele>46.0</ele><time>2026-04-29T07:34:27.819Z</time></trkpt><trkpt lat="45.1247477" lon="9.6664614"><ele>46.0</ele><time>2026-04-29T07:34:28.818Z</time></trkpt><trkpt lat="45.1245411" lon="9.6667589"><ele>46.0</ele><time>2026-04-29T07:34:29.819Z</time></trkpt><trkpt lat="45.1243322" lon="9.6670546"><ele>45.5</ele><time>2026-04-29T07:34:30.819Z</time></trkpt><trkpt lat="45.124122" lon="9.6673545"><ele>45.0</ele><time>2026-04-29T07:34:31.819Z</time></trkpt><trkpt lat="45.1239106" lon="9.667656"><ele>45.0</ele><time>2026-04-29T07:34:32.819Z</time></trkpt><trkpt lat="45.1236996" lon="9.6679608"><ele>45.0</ele><time>2026-04-29T07:34:33.819Z</time></trkpt><trkpt lat="45.1234863" lon="9.668269"><ele>45.0</ele><time>2026-04-29T07:34:34.819Z</time></trkpt><trkpt lat="45.123276" lon="9.6685774"><ele>45.0</ele><time>2026-04-29T07:34:35.818Z</time></trkpt><trkpt lat="45.1230641" lon="9.6688871"><ele>44.5</ele><time>2026-04-29T07:34:36.819Z</time></trkpt><trkpt lat="45.122851" lon="9.6691979"><ele>44.0</ele><time>2026-04-29T07:34:37.818Z</time></trkpt><trkpt lat="45.1226389" lon="9.669506"><ele>44.0</ele><time>2026-04-29T07:34:38.819Z</time></trkpt><trkpt lat="45.1224281" lon="9.6698115"><ele>44.0</ele><time>2026-04-29T07:34:39.819Z</time></trkpt><trkpt lat="45.1222158" lon="9.6701188"><ele>44.5</ele><time>2026-04-29T07:34:40.818Z</time></trkpt><trkpt lat="45.122004" lon="9.6704245"><ele>45.0</ele><time>2026-04-29T07:34:41.819Z</time></trkpt><trkpt lat="45.1217913" lon="9.6707309"><ele>45.0</ele><time>2026-04-29T07:34:42.819Z</time></trkpt><trkpt lat="45.121576" lon="9.6710384"><ele>45.0</ele><time>2026-04-29T07:34:43.819Z</time></trkpt><trkpt lat="45.1213597" lon="9.671347"><ele>45.5</ele><time>2026-04-29T07:34:44.818Z</time></trkpt><trkpt lat="45.1211432" lon="9.6716563"><ele>46.0</ele><time>2026-04-29T07:34:45.819Z</time></trkpt><trkpt lat="45.1209297" lon="9.6719651"><ele>46.5</ele><time>2026-04-29T07:34:46.818Z</time></trkpt><trkpt lat="45.1207157" lon="9.6722731"><ele>47.0</ele><time>2026-04-29T07:34:47.819Z</time></trkpt><trkpt lat="45.1205041" lon="9.6725814"><ele>47.0</ele><time>2026-04-29T07:34:48.818Z</time></trkpt><trkpt lat="45.120291" lon="9.6728878"><ele>47.0</ele><time>2026-04-29T07:34:49.819Z</time></trkpt><trkpt lat="45.1200801" lon="9.6731941"><ele>45.5</ele><time>2026-04-29T07:34:50.819Z</time></trkpt><trkpt lat="45.1198753" lon="9.6734922"><ele>44.0</ele><time>2026-04-29T07:34:51.819Z</time></trkpt><trkpt lat="45.1196774" lon="9.6737756"><ele>44.0</ele><time>2026-04-29T07:34:52.819Z</time></trkpt><trkpt lat="45.1194905" lon="9.6740443"><ele>44.0</ele><time>2026-04-29T07:34:53.819Z</time></trkpt><trkpt lat="45.1193149" lon="9.6742972"><ele>43.5</ele><time>2026-04-29T07:34:54.819Z</time></trkpt><trkpt lat="45.1191454" lon="9.6745472"><ele>43.0</ele><time>2026-04-29T07:34:55.819Z</time></trkpt><trkpt lat="45.118972" lon="9.6748055"><ele>44.0</ele><time>2026-04-29T07:34:56.819Z</time></trkpt><trkpt lat="45.1187948" lon="9.6750769"><ele>45.0</ele><time>2026-04-29T07:34:57.819Z</time></trkpt><trkpt lat="45.1186174" lon="9.6753502"><ele>45.0</ele><time>2026-04-29T07:34:58.819Z</time></trkpt><trkpt lat="45.118436" lon="9.6756281"><ele>45.0</ele><time>2026-04-29T07:34:59.819Z</time></trkpt><trkpt lat="45.1182503" lon="9.6759077"><ele>46.0</ele><time>2026-04-29T07:35:00.819Z</time></trkpt><trkpt lat="45.1180615" lon="9.6761805"><ele>47.0</ele><time>2026-04-29T07:35:01.819Z</time></trkpt><trkpt lat="45.1178721" lon="9.6764549"><ele>47.0</ele><time>2026-04-29T07:35:02.819Z</time></trkpt><trkpt lat="45.117682" lon="9.6767282"><ele>47.0</ele><time>2026-04-29T07:35:03.819Z</time></trkpt><trkpt lat="45.1174953" lon="9.6769946"><ele>45.5</ele><time>2026-04-29T07:35:04.819Z</time></trkpt><trkpt lat="45.1173081" lon="9.6772581"><ele>44.0</ele><time>2026-04-29T07:35:05.819Z</time></trkpt><trkpt lat="45.1171239" lon="9.6775238"><ele>44.0</ele><time>2026-04-29T07:35:06.819Z</time></trkpt><trkpt lat="45.1169396" lon="9.6777892"><ele>44.0</ele><time>2026-04-29T07:35:07.819Z</time></trkpt><trkpt lat="45.1167542" lon="9.6780543"><ele>44.0</ele><time>2026-04-29T07:35:08.819Z</time></trkpt><trkpt lat="45.1165701" lon="9.678321"><ele>44.0</ele><time>2026-04-29T07:35:09.819Z</time></trkpt><trkpt lat="45.1163866" lon="9.6785851"><ele>44.5</ele><time>2026-04-29T07:35:10.819Z</time></trkpt><trkpt lat="45.116204" lon="9.6788485"><ele>45.0</ele><time>2026-04-29T07:35:11.818Z</time></trkpt><trkpt lat="45.1160209" lon="9.6791116"><ele>45.0</ele><time>2026-04-29T07:35:12.819Z</time></trkpt><trkpt lat="45.1158387" lon="9.6793757"><ele>45.0</ele><time>2026-04-29T07:35:13.819Z</time></trkpt><trkpt lat="45.115655" lon="9.6796425"><ele>45.0</ele><time>2026-04-29T07:35:14.819Z</time></trkpt><trkpt lat="45.1154708" lon="9.6799089"><ele>45.0</ele><time>2026-04-29T07:35:15.819Z</time></trkpt><trkpt lat="45.1152852" lon="9.6801811"><ele>45.0</ele><time>2026-04-29T07:35:16.818Z</time></trkpt><trkpt lat="45.115098" lon="9.6804532"><ele>45.0</ele><time>2026-04-29T07:35:17.819Z</time></trkpt><trkpt lat="45.1149087" lon="9.6807277"><ele>44.0</ele><time>2026-04-29T07:35:18.819Z</time></trkpt><trkpt lat="45.1147171" lon="9.6810056"><ele>43.0</ele><time>2026-04-29T07:35:19.819Z</time></trkpt><trkpt lat="45.1145226" lon="9.6812824"><ele>43.0</ele><time>2026-04-29T07:35:20.819Z</time></trkpt><trkpt lat="45.1143263" lon="9.6815649"><ele>43.0</ele><time>2026-04-29T07:35:21.819Z</time></trkpt><trkpt lat="45.1141321" lon="9.6818435"><ele>43.5</ele><time>2026-04-29T07:35:22.819Z</time></trkpt><trkpt lat="45.1139395" lon="9.6821236"><ele>44.0</ele><time>2026-04-29T07:35:23.818Z</time></trkpt><trkpt lat="45.1137496" lon="9.6823969"><ele>44.0</ele><time>2026-04-29T07:35:24.819Z</time></trkpt><trkpt lat="45.1135594" lon="9.6826718"><ele>44.0</ele><time>2026-04-29T07:35:25.819Z</time></trkpt><trkpt lat="45.1133705" lon="9.6829438"><ele>43.5</ele><time>2026-04-29T07:35:26.819Z</time></trkpt><trkpt lat="45.1131836" lon="9.6832124"><ele>43.0</ele><time>2026-04-29T07:35:27.819Z</time></trkpt><trkpt lat="45.112998" lon="9.6834809"><ele>44.0</ele><time>2026-04-29T07:35:28.818Z</time></trkpt><trkpt lat="45.112811" lon="9.6837437"><ele>45.0</ele><time>2026-04-29T07:35:29.819Z</time></trkpt><trkpt lat="45.1126271" lon="9.6840063"><ele>45.0</ele><time>2026-04-29T07:35:30.819Z</time></trkpt><trkpt lat="45.1124434" lon="9.6842688"><ele>45.0</ele><time>2026-04-29T07:35:31.819Z</time></trkpt><trkpt lat="45.112256" lon="9.6845339"><ele>45.5</ele><time>2026-04-29T07:35:32.819Z</time></trkpt><trkpt lat="45.112067" lon="9.6848018"><ele>46.0</ele><time>2026-04-29T07:35:33.819Z</time></trkpt><trkpt lat="45.1118743" lon="9.6850665"><ele>45.5</ele><time>2026-04-29T07:35:34.819Z</time></trkpt><trkpt lat="45.111681" lon="9.6853309"><ele>45.0</ele><time>2026-04-29T07:35:35.818Z</time></trkpt><trkpt lat="45.1114858" lon="9.6855927"><ele>46.0</ele><time>2026-04-29T07:35:36.819Z</time></trkpt><trkpt lat="45.1112882" lon="9.6858547"><ele>47.0</ele><time>2026-04-29T07:35:37.819Z</time></trkpt><trkpt lat="45.1110894" lon="9.6861183"><ele>47.0</ele><time>2026-04-29T07:35:38.818Z</time></trkpt><trkpt lat="45.110889" lon="9.6863777"><ele>47.0</ele><time>2026-04-29T07:35:39.819Z</time></trkpt><trkpt lat="45.1106842" lon="9.6866389"><ele>47.0</ele><time>2026-04-29T07:35:40.818Z</time></trkpt><trkpt lat="45.110477" lon="9.6869012"><ele>47.0</ele><time>2026-04-29T07:35:41.818Z</time></trkpt><trkpt lat="45.110269" lon="9.6871611"><ele>47.0</ele><time>2026-04-29T07:35:42.819Z</time></trkpt><trkpt lat="45.1100624" lon="9.68742"><ele>47.0</ele><time>2026-04-29T07:35:43.819Z</time></trkpt><trkpt lat="45.1098555" lon="9.6876734"><ele>46.5</ele><time>2026-04-29T07:35:44.819Z</time></trkpt><trkpt lat="45.1096464" lon="9.6879235"><ele>46.0</ele><time>2026-04-29T07:35:45.819Z</time></trkpt><trkpt lat="45.1094349" lon="9.6881691"><ele>46.0</ele><time>2026-04-29T07:35:46.819Z</time></trkpt><trkpt lat="45.1092254" lon="9.6884132"><ele>46.0</ele><time>2026-04-29T07:35:47.819Z</time></trkpt><trkpt lat="45.1090107" lon="9.6886583"><ele>47.0</ele><time>2026-04-29T07:35:48.819Z</time></trkpt><trkpt lat="45.108794" lon="9.6889035"><ele>48.0</ele><time>2026-04-29T07:35:49.819Z</time></trkpt><trkpt lat="45.1085779" lon="9.6891469"><ele>48.0</ele><time>2026-04-29T07:35:50.819Z</time></trkpt><trkpt lat="45.1083574" lon="9.6893911"><ele>48.0</ele><time>2026-04-29T07:35:51.818Z</time></trkpt><trkpt lat="45.1081361" lon="9.6896335"><ele>47.5</ele><time>2026-04-29T07:35:52.819Z</time></trkpt><trkpt lat="45.1079126" lon="9.6898734"><ele>47.0</ele><time>2026-04-29T07:35:53.819Z</time></trkpt><trkpt lat="45.107685" lon="9.690114"><ele>46.5</ele><time>2026-04-29T07:35:54.818Z</time></trkpt><trkpt lat="45.1074524" lon="9.690362"><ele>46.0</ele><time>2026-04-29T07:35:55.819Z</time></trkpt><trkpt lat="45.1072234" lon="9.6906154"><ele>46.0</ele><time>2026-04-29T07:35:56.819Z</time></trkpt><trkpt lat="45.1069913" lon="9.6908631"><ele>46.0</ele><time>2026-04-29T07:35:57.819Z</time></trkpt><trkpt lat="45.1067591" lon="9.6911099"><ele>47.0</ele><time>2026-04-29T07:35:58.819Z</time></trkpt><trkpt lat="45.1065338" lon="9.6913498"><ele>48.0</ele><time>2026-04-29T07:35:59.819Z</time></trkpt><trkpt lat="45.1063116" lon="9.6915867"><ele>48.0</ele><time>2026-04-29T07:36:00.819Z</time></trkpt><trkpt lat="45.1060919" lon="9.6918213"><ele>48.0</ele><time>2026-04-29T07:36:01.819Z</time></trkpt><trkpt lat="45.1058711" lon="9.6920504"><ele>46.5</ele><time>2026-04-29T07:36:02.819Z</time></trkpt><trkpt lat="45.1056668" lon="9.6922795"><ele>45.0</ele><time>2026-04-29T07:36:03.819Z</time></trkpt><trkpt lat="45.1054576" lon="9.6925096"><ele>45.0</ele><time>2026-04-29T07:36:04.819Z</time></trkpt><trkpt lat="45.1052459" lon="9.6927394"><ele>45.0</ele><time>2026-04-29T07:36:05.819Z</time></trkpt><trkpt lat="45.1050333" lon="9.6929685"><ele>45.0</ele><time>2026-04-29T07:36:06.819Z</time></trkpt><trkpt lat="45.1048211" lon="9.6931986"><ele>45.0</ele><time>2026-04-29T07:36:07.819Z</time></trkpt><trkpt lat="45.1046038" lon="9.6934296"><ele>45.5</ele><time>2026-04-29T07:36:08.819Z</time></trkpt><trkpt lat="45.104387" lon="9.6936638"><ele>46.0</ele><time>2026-04-29T07:36:09.819Z</time></trkpt><trkpt lat="45.104165" lon="9.6938986"><ele>46.0</ele><time>2026-04-29T07:36:10.819Z</time></trkpt><trkpt lat="45.1039444" lon="9.6941375"><ele>46.0</ele><time>2026-04-29T07:36:11.819Z</time></trkpt><trkpt lat="45.1037229" lon="9.6943789"><ele>45.5</ele><time>2026-04-29T07:36:12.819Z</time></trkpt><trkpt lat="45.103506" lon="9.6946186"><ele>45.0</ele><time>2026-04-29T07:36:13.819Z</time></trkpt><trkpt lat="45.1032937" lon="9.6948492"><ele>45.0</ele><time>2026-04-29T07:36:14.818Z</time></trkpt><trkpt lat="45.10308" lon="9.6950754"><ele>45.0</ele><time>2026-04-29T07:36:15.819Z</time></trkpt><trkpt lat="45.1028637" lon="9.6953036"><ele>45.0</ele><time>2026-04-29T07:36:16.819Z</time></trkpt><trkpt lat="45.1026456" lon="9.6955342"><ele>45.0</ele><time>2026-04-29T07:36:17.819Z</time></trkpt><trkpt lat="45.1024296" lon="9.6957727"><ele>45.0</ele><time>2026-04-29T07:36:18.819Z</time></trkpt><trkpt lat="45.1022108" lon="9.6960128"><ele>45.0</ele><time>2026-04-29T07:36:19.819Z</time></trkpt><trkpt lat="45.1019956" lon="9.6962366"><ele>44.5</ele><time>2026-04-29T07:36:20.819Z</time></trkpt><trkpt lat="45.1017908" lon="9.6964505"><ele>44.0</ele><time>2026-04-29T07:36:21.818Z</time></trkpt><trkpt lat="45.1015893" lon="9.6966641"><ele>45.0</ele><time>2026-04-29T07:36:22.819Z</time></trkpt><trkpt lat="45.1013884" lon="9.696878"><ele>46.0</ele><time>2026-04-29T07:36:23.819Z</time></trkpt><trkpt lat="45.1011877" lon="9.6970933"><ele>46.0</ele><time>2026-04-29T07:36:24.819Z</time></trkpt><trkpt lat="45.1009844" lon="9.6973118"><ele>46.0</ele><time>2026-04-29T07:36:25.818Z</time></trkpt><trkpt lat="45.1007822" lon="9.6975317"><ele>47.0</ele><time>2026-04-29T07:36:26.818Z</time></trkpt><trkpt lat="45.1005773" lon="9.6977549"><ele>48.0</ele><time>2026-04-29T07:36:27.819Z</time></trkpt><trkpt lat="45.1003662" lon="9.697982"><ele>48.0</ele><time>2026-04-29T07:36:28.819Z</time></trkpt><trkpt lat="45.1001528" lon="9.6982111"><ele>48.0</ele><time>2026-04-29T07:36:29.819Z</time></trkpt><trkpt lat="45.099934" lon="9.6984471"><ele>46.5</ele><time>2026-04-29T07:36:30.819Z</time></trkpt><trkpt lat="45.0997145" lon="9.6986833"><ele>45.0</ele><time>2026-04-29T07:36:31.818Z</time></trkpt><trkpt lat="45.0994907" lon="9.6989248"><ele>45.0</ele><time>2026-04-29T07:36:32.819Z</time></trkpt><trkpt lat="45.0992617" lon="9.6991688"><ele>45.0</ele><time>2026-04-29T07:36:33.818Z</time></trkpt><trkpt lat="45.0990308" lon="9.6994158"><ele>44.0</ele><time>2026-04-29T07:36:34.818Z</time></trkpt><trkpt lat="45.0987951" lon="9.6996687"><ele>43.0</ele><time>2026-04-29T07:36:35.819Z</time></trkpt><trkpt lat="45.0985581" lon="9.6999254"><ele>43.0</ele><time>2026-04-29T07:36:36.819Z</time></trkpt><trkpt lat="45.0983264" lon="9.7001758"><ele>43.0</ele><time>2026-04-29T07:36:37.818Z</time></trkpt><trkpt lat="45.0980965" lon="9.700423"><ele>43.0</ele><time>2026-04-29T07:36:38.819Z</time></trkpt><trkpt lat="45.0978682" lon="9.7006678"><ele>43.0</ele><time>2026-04-29T07:36:39.819Z</time></trkpt><trkpt lat="45.0976442" lon="9.7009071"><ele>44.0</ele><time>2026-04-29T07:36:40.819Z</time></trkpt><trkpt lat="45.0974263" lon="9.7011372"><ele>45.0</ele><time>2026-04-29T07:36:41.818Z</time></trkpt><trkpt lat="45.0972115" lon="9.7013608"><ele>45.0</ele><time>2026-04-29T07:36:42.819Z</time></trkpt><trkpt lat="45.0969962" lon="9.7015807"><ele>45.0</ele><time>2026-04-29T07:36:43.819Z</time></trkpt><trkpt lat="45.0967825" lon="9.7018016"><ele>44.5</ele><time>2026-04-29T07:36:44.819Z</time></trkpt><trkpt lat="45.0965656" lon="9.7020265"><ele>44.0</ele><time>2026-04-29T07:36:45.819Z</time></trkpt><trkpt lat="45.096349" lon="9.7022575"><ele>44.0</ele><time>2026-04-29T07:36:46.819Z</time></trkpt><trkpt lat="45.0961318" lon="9.70249"><ele>44.0</ele><time>2026-04-29T07:36:47.819Z</time></trkpt><trkpt lat="45.0959133" lon="9.7027232"><ele>44.0</ele><time>2026-04-29T07:36:48.819Z</time></trkpt><trkpt lat="45.0956953" lon="9.7029593"><ele>44.0</ele><time>2026-04-29T07:36:49.818Z</time></trkpt><trkpt lat="45.0954766" lon="9.7031952"><ele>44.0</ele><time>2026-04-29T07:36:50.818Z</time></trkpt><trkpt lat="45.095255" lon="9.7034297"><ele>44.0</ele><time>2026-04-29T07:36:51.819Z</time></trkpt><trkpt lat="45.0950375" lon="9.703669"><ele>45.0</ele><time>2026-04-29T07:36:52.819Z</time></trkpt><trkpt lat="45.0948233" lon="9.7038995"><ele>46.0</ele><time>2026-04-29T07:36:53.819Z</time></trkpt><trkpt lat="45.0946163" lon="9.7041212"><ele>46.0</ele><time>2026-04-29T07:36:54.819Z</time></trkpt><trkpt lat="45.0944173" lon="9.7043347"><ele>46.0</ele><time>2026-04-29T07:36:55.819Z</time></trkpt><trkpt lat="45.0942245" lon="9.704539"><ele>44.5</ele><time>2026-04-29T07:36:56.818Z</time></trkpt><trkpt lat="45.0940365" lon="9.7047451"><ele>43.0</ele><time>2026-04-29T07:36:57.819Z</time></trkpt><trkpt lat="45.0938555" lon="9.7049377"><ele>43.0</ele><time>2026-04-29T07:36:58.819Z</time></trkpt><trkpt lat="45.0936799" lon="9.7051252"><ele>43.0</ele><time>2026-04-29T07:36:59.818Z</time></trkpt><trkpt lat="45.0935112" lon="9.7053035"><ele>43.0</ele><time>2026-04-29T07:37:00.818Z</time></trkpt><trkpt lat="45.0933496" lon="9.7054751"><ele>42.66666666666667</ele><time>2026-04-29T07:37:01.818Z</time></trkpt><trkpt lat="45.0932003" lon="9.7056389"><ele>42.333333333333336</ele><time>2026-04-29T07:37:02.818Z</time></trkpt><trkpt lat="45.0930515" lon="9.7057977"><ele>42.0</ele><time>2026-04-29T07:37:03.819Z</time></trkpt><trkpt lat="45.092904" lon="9.7059589"><ele>42.666666666666664</ele><time>2026-04-29T07:37:04.819Z</time></trkpt><trkpt lat="45.0927548" lon="9.7061226"><ele>43.33333333333333</ele><time>2026-04-29T07:37:05.818Z</time></trkpt><trkpt lat="45.0926016" lon="9.7062877"><ele>44.0</ele><time>2026-04-29T07:37:06.819Z</time></trkpt><trkpt lat="45.0924377" lon="9.7064647"><ele>44.666666666666664</ele><time>2026-04-29T07:37:07.819Z</time></trkpt><trkpt lat="45.0922695" lon="9.7066466"><ele>45.333333333333336</ele><time>2026-04-29T07:37:08.819Z</time></trkpt><trkpt lat="45.0920983" lon="9.7068331"><ele>46.0</ele><time>2026-04-29T07:37:09.819Z</time></trkpt><trkpt lat="45.0919184" lon="9.7070205"><ele>46.0</ele><time>2026-04-29T07:37:10.819Z</time></trkpt><trkpt lat="45.0917305" lon="9.7072135"><ele>46.0</ele><time>2026-04-29T07:37:11.819Z</time></trkpt><trkpt lat="45.0915357" lon="9.707417"><ele>46.0</ele><time>2026-04-29T07:37:12.819Z</time></trkpt><trkpt lat="45.0913505" lon="9.707615"><ele>46.0</ele><time>2026-04-29T07:37:13.818Z</time></trkpt><trkpt lat="45.0911623" lon="9.7078132"><ele>44.5</ele><time>2026-04-29T07:37:14.819Z</time></trkpt><trkpt lat="45.0909741" lon="9.7080091"><ele>43.0</ele><time>2026-04-29T07:37:15.819Z</time></trkpt><trkpt lat="45.0907924" lon="9.7082046"><ele>43.0</ele><time>2026-04-29T07:37:16.819Z</time></trkpt><trkpt lat="45.0906174" lon="9.7083923"><ele>43.0</ele><time>2026-04-29T07:37:17.819Z</time></trkpt><trkpt lat="45.0904532" lon="9.7085674"><ele>43.0</ele><time>2026-04-29T07:37:18.818Z</time></trkpt><trkpt lat="45.0902985" lon="9.7087309"><ele>42.66666666666667</ele><time>2026-04-29T07:37:19.819Z</time></trkpt><trkpt lat="45.0901546" lon="9.7088858"><ele>42.333333333333336</ele><time>2026-04-29T07:37:20.819Z</time></trkpt><trkpt lat="45.0900142" lon="9.7090376"><ele>42.0</ele><time>2026-04-29T07:37:21.818Z</time></trkpt><trkpt lat="45.0898701" lon="9.709194"><ele>42.666666666666664</ele><time>2026-04-29T07:37:22.819Z</time></trkpt><trkpt lat="45.0897262" lon="9.7093503"><ele>43.33333333333333</ele><time>2026-04-29T07:37:23.818Z</time></trkpt><trkpt lat="45.089579" lon="9.7095066"><ele>44.0</ele><time>2026-04-29T07:37:24.819Z</time></trkpt><trkpt lat="45.0894331" lon="9.7096718"><ele>44.33333333333333</ele><time>2026-04-29T07:37:25.819Z</time></trkpt><trkpt lat="45.0892847" lon="9.7098376"><ele>44.666666666666664</ele><time>2026-04-29T07:37:26.818Z</time></trkpt><trkpt lat="45.0891342" lon="9.7100084"><ele>45.0</ele><time>2026-04-29T07:37:27.819Z</time></trkpt><trkpt lat="45.0889832" lon="9.7101814"><ele>45.333333333333336</ele><time>2026-04-29T07:37:28.819Z</time></trkpt><trkpt lat="45.0888291" lon="9.7103556"><ele>45.66666666666667</ele><time>2026-04-29T07:37:29.819Z</time></trkpt><trkpt lat="45.0886747" lon="9.7105339"><ele>46.0</ele><time>2026-04-29T07:37:30.819Z</time></trkpt><trkpt lat="45.0885173" lon="9.7107146"><ele>46.0</ele><time>2026-04-29T07:37:31.819Z</time></trkpt><trkpt lat="45.08836" lon="9.7108938"><ele>46.0</ele><time>2026-04-29T07:37:32.818Z</time></trkpt><trkpt lat="45.0881966" lon="9.711074"><ele>46.0</ele><time>2026-04-29T07:37:33.819Z</time></trkpt><trkpt lat="45.0880275" lon="9.7112569"><ele>46.0</ele><time>2026-04-29T07:37:34.819Z</time></trkpt><trkpt lat="45.0878565" lon="9.7114415"><ele>46.0</ele><time>2026-04-29T07:37:35.819Z</time></trkpt><trkpt lat="45.087683" lon="9.7116256"><ele>46.0</ele><time>2026-04-29T07:37:36.819Z</time></trkpt><trkpt lat="45.0875195" lon="9.7118051"><ele>46.0</ele><time>2026-04-29T07:37:37.819Z</time></trkpt><trkpt lat="45.0873599" lon="9.7119778"><ele>46.0</ele><time>2026-04-29T07:37:38.819Z</time></trkpt><trkpt lat="45.0871974" lon="9.7121523"><ele>46.0</ele><time>2026-04-29T07:37:39.819Z</time></trkpt><trkpt lat="45.0870338" lon="9.7123289"><ele>46.0</ele><time>2026-04-29T07:37:40.819Z</time></trkpt><trkpt lat="45.0868691" lon="9.7125097"><ele>46.0</ele><time>2026-04-29T07:37:41.819Z</time></trkpt><trkpt lat="45.0866968" lon="9.712707"><ele>46.0</ele><time>2026-04-29T07:37:42.819Z</time></trkpt><trkpt lat="45.0865169" lon="9.7129118"><ele>46.5</ele><time>2026-04-29T07:37:43.818Z</time></trkpt><trkpt lat="45.086329" lon="9.713121"><ele>47.0</ele><time>2026-04-29T07:37:44.819Z</time></trkpt><trkpt lat="45.086129" lon="9.7133411"><ele>47.0</ele><time>2026-04-29T07:37:45.819Z</time></trkpt><trkpt lat="45.0859224" lon="9.7135654"><ele>47.0</ele><time>2026-04-29T07:37:46.819Z</time></trkpt><trkpt lat="45.0857124" lon="9.7137939"><ele>47.0</ele><time>2026-04-29T07:37:47.819Z</time></trkpt><trkpt lat="45.0855079" lon="9.7140139"><ele>47.0</ele><time>2026-04-29T07:37:48.819Z</time></trkpt><trkpt lat="45.0853016" lon="9.7142376"><ele>47.0</ele><time>2026-04-29T07:37:49.818Z</time></trkpt><trkpt lat="45.0850951" lon="9.714461"><ele>47.0</ele><time>2026-04-29T07:37:50.818Z</time></trkpt><trkpt lat="45.0848852" lon="9.714685"><ele>47.0</ele><time>2026-04-29T07:37:51.819Z</time></trkpt><trkpt lat="45.0846726" lon="9.7149123"><ele>47.0</ele><time>2026-04-29T07:37:52.819Z</time></trkpt><trkpt lat="45.0844557" lon="9.7151406"><ele>47.5</ele><time>2026-04-29T07:37:53.819Z</time></trkpt><trkpt lat="45.0842389" lon="9.7153706"><ele>48.0</ele><time>2026-04-29T07:37:54.819Z</time></trkpt><trkpt lat="45.0840183" lon="9.7156039"><ele>48.0</ele><time>2026-04-29T07:37:55.819Z</time></trkpt><trkpt lat="45.0838004" lon="9.7158388"><ele>48.0</ele><time>2026-04-29T07:37:56.819Z</time></trkpt><trkpt lat="45.083585" lon="9.7160689"><ele>48.5</ele><time>2026-04-29T07:37:57.819Z</time></trkpt><trkpt lat="45.0833763" lon="9.7162896"><ele>49.0</ele><time>2026-04-29T07:37:58.819Z</time></trkpt><trkpt lat="45.0831759" lon="9.7165029"><ele>49.0</ele><time>2026-04-29T07:37:59.819Z</time></trkpt><trkpt lat="45.0829749" lon="9.7167161"><ele>49.0</ele><time>2026-04-29T07:38:00.819Z</time></trkpt><trkpt lat="45.0827739" lon="9.716929"><ele>49.0</ele><time>2026-04-29T07:38:01.818Z</time></trkpt><trkpt lat="45.0825732" lon="9.7171411"><ele>49.0</ele><time>2026-04-29T07:38:02.818Z</time></trkpt><trkpt lat="45.0823725" lon="9.7173539"><ele>49.0</ele><time>2026-04-29T07:38:03.819Z</time></trkpt><trkpt lat="45.082172" lon="9.7175672"><ele>49.0</ele><time>2026-04-29T07:38:04.819Z</time></trkpt><trkpt lat="45.0819737" lon="9.7177805"><ele>49.0</ele><time>2026-04-29T07:38:05.819Z</time></trkpt><trkpt lat="45.0817826" lon="9.7179847"><ele>49.0</ele><time>2026-04-29T07:38:06.818Z</time></trkpt><trkpt lat="45.0815937" lon="9.7181866"><ele>48.0</ele><time>2026-04-29T07:38:07.818Z</time></trkpt><trkpt lat="45.081403" lon="9.7183873"><ele>47.0</ele><time>2026-04-29T07:38:08.819Z</time></trkpt><trkpt lat="45.0812124" lon="9.718584"><ele>47.0</ele><time>2026-04-29T07:38:09.818Z</time></trkpt><trkpt lat="45.0810206" lon="9.7187848"><ele>47.0</ele><time>2026-04-29T07:38:10.819Z</time></trkpt><trkpt lat="45.0808252" lon="9.7189877"><ele>47.0</ele><time>2026-04-29T07:38:11.819Z</time></trkpt><trkpt lat="45.0806263" lon="9.7191993"><ele>47.0</ele><time>2026-04-29T07:38:12.819Z</time></trkpt><trkpt lat="45.0804229" lon="9.7194132"><ele>47.0</ele><time>2026-04-29T07:38:13.819Z</time></trkpt><trkpt lat="45.0802203" lon="9.7196347"><ele>47.0</ele><time>2026-04-29T07:38:14.818Z</time></trkpt><trkpt lat="45.0800142" lon="9.7198531"><ele>46.5</ele><time>2026-04-29T07:38:15.819Z</time></trkpt><trkpt lat="45.079814" lon="9.7200569"><ele>46.0</ele><time>2026-04-29T07:38:16.818Z</time></trkpt><trkpt lat="45.0796179" lon="9.7202523"><ele>47.0</ele><time>2026-04-29T07:38:17.819Z</time></trkpt><trkpt lat="45.0794265" lon="9.7204384"><ele>48.0</ele><time>2026-04-29T07:38:18.819Z</time></trkpt><trkpt lat="45.0792412" lon="9.7206236"><ele>47.0</ele><time>2026-04-29T07:38:19.819Z</time></trkpt><trkpt lat="45.0790586" lon="9.7208137"><ele>46.0</ele><time>2026-04-29T07:38:20.818Z</time></trkpt><trkpt lat="45.0788742" lon="9.7210031"><ele>46.5</ele><time>2026-04-29T07:38:21.819Z</time></trkpt><trkpt lat="45.078687" lon="9.7211961"><ele>47.0</ele><time>2026-04-29T07:38:22.819Z</time></trkpt><trkpt lat="45.0784976" lon="9.7213914"><ele>47.0</ele><time>2026-04-29T07:38:23.819Z</time></trkpt><trkpt lat="45.0783074" lon="9.7215876"><ele>47.0</ele><time>2026-04-29T07:38:24.819Z</time></trkpt><trkpt lat="45.0781138" lon="9.7217871"><ele>47.0</ele><time>2026-04-29T07:38:25.819Z</time></trkpt><trkpt lat="45.0779183" lon="9.721988"><ele>47.0</ele><time>2026-04-29T07:38:26.819Z</time></trkpt><trkpt lat="45.0777216" lon="9.7221905"><ele>47.0</ele><time>2026-04-29T07:38:27.818Z</time></trkpt><trkpt lat="45.077519" lon="9.7223929"><ele>47.0</ele><time>2026-04-29T07:38:28.819Z</time></trkpt><trkpt lat="45.0773128" lon="9.7225948"><ele>46.5</ele><time>2026-04-29T07:38:29.819Z</time></trkpt><trkpt lat="45.0771086" lon="9.7227993"><ele>46.0</ele><time>2026-04-29T07:38:30.819Z</time></trkpt><trkpt lat="45.0769" lon="9.7230042"><ele>46.0</ele><time>2026-04-29T07:38:31.819Z</time></trkpt><trkpt lat="45.0766922" lon="9.7232119"><ele>46.0</ele><time>2026-04-29T07:38:32.819Z</time></trkpt><trkpt lat="45.0764823" lon="9.7234193"><ele>46.5</ele><time>2026-04-29T07:38:33.819Z</time></trkpt><trkpt lat="45.0762712" lon="9.723631"><ele>47.0</ele><time>2026-04-29T07:38:34.819Z</time></trkpt><trkpt lat="45.0760586" lon="9.7238476"><ele>47.0</ele><time>2026-04-29T07:38:35.819Z</time></trkpt><trkpt lat="45.0758419" lon="9.7240608"><ele>47.0</ele><time>2026-04-29T07:38:36.818Z</time></trkpt><trkpt lat="45.0756255" lon="9.7242715"><ele>47.5</ele><time>2026-04-29T07:38:37.819Z</time></trkpt><trkpt lat="45.075409" lon="9.7244858"><ele>48.0</ele><time>2026-04-29T07:38:38.819Z</time></trkpt><trkpt lat="45.0751886" lon="9.7246979"><ele>48.0</ele><time>2026-04-29T07:38:39.819Z</time></trkpt><trkpt lat="45.0749699" lon="9.7249147"><ele>48.0</ele><time>2026-04-29T07:38:40.819Z</time></trkpt><trkpt lat="45.0747483" lon="9.7251315"><ele>48.5</ele><time>2026-04-29T07:38:41.819Z</time></trkpt><trkpt lat="45.074529" lon="9.7253472"><ele>49.0</ele><time>2026-04-29T07:38:42.819Z</time></trkpt><trkpt lat="45.0743172" lon="9.7255547"><ele>49.0</ele><time>2026-04-29T07:38:43.819Z</time></trkpt><trkpt lat="45.074113" lon="9.7257607"><ele>49.0</ele><time>2026-04-29T07:38:44.819Z</time></trkpt><trkpt lat="45.0739108" lon="9.7259689"><ele>48.0</ele><time>2026-04-29T07:38:45.819Z</time></trkpt><trkpt lat="45.0737095" lon="9.7261751"><ele>47.0</ele><time>2026-04-29T07:38:46.818Z</time></trkpt><trkpt lat="45.0735119" lon="9.7263806"><ele>47.0</ele><time>2026-04-29T07:38:47.819Z</time></trkpt><trkpt lat="45.0733127" lon="9.726583"><ele>47.0</ele><time>2026-04-29T07:38:48.819Z</time></trkpt><trkpt lat="45.073116" lon="9.7267831"><ele>48.0</ele><time>2026-04-29T07:38:49.819Z</time></trkpt><trkpt lat="45.0729247" lon="9.7269827"><ele>49.0</ele><time>2026-04-29T07:38:50.819Z</time></trkpt><trkpt lat="45.0727343" lon="9.7271824"><ele>49.0</ele><time>2026-04-29T07:38:51.819Z</time></trkpt><trkpt lat="45.0725451" lon="9.7273849"><ele>49.0</ele><time>2026-04-29T07:38:52.819Z</time></trkpt><trkpt lat="45.0723556" lon="9.7275839"><ele>49.5</ele><time>2026-04-29T07:38:53.818Z</time></trkpt><trkpt lat="45.0721604" lon="9.7277891"><ele>50.0</ele><time>2026-04-29T07:38:54.819Z</time></trkpt><trkpt lat="45.0719614" lon="9.7279996"><ele>50.0</ele><time>2026-04-29T07:38:55.818Z</time></trkpt><trkpt lat="45.0717594" lon="9.7282075"><ele>50.0</ele><time>2026-04-29T07:38:56.819Z</time></trkpt><trkpt lat="45.0715534" lon="9.7284145"><ele>49.5</ele><time>2026-04-29T07:38:57.819Z</time></trkpt><trkpt lat="45.0713475" lon="9.7286234"><ele>49.0</ele><time>2026-04-29T07:38:58.819Z</time></trkpt><trkpt lat="45.0711377" lon="9.7288347"><ele>49.0</ele><time>2026-04-29T07:38:59.819Z</time></trkpt><trkpt lat="45.0709259" lon="9.7290472"><ele>49.0</ele><time>2026-04-29T07:39:00.819Z</time></trkpt><trkpt lat="45.0707102" lon="9.7292561"><ele>48.0</ele><time>2026-04-29T07:39:01.819Z</time></trkpt><trkpt lat="45.0704941" lon="9.7294683"><ele>47.0</ele><time>2026-04-29T07:39:02.818Z</time></trkpt><trkpt lat="45.0702764" lon="9.7296839"><ele>47.0</ele><time>2026-04-29T07:39:03.819Z</time></trkpt><trkpt lat="45.0700594" lon="9.7298989"><ele>47.0</ele><time>2026-04-29T07:39:04.819Z</time></trkpt><trkpt lat="45.0698501" lon="9.7301051"><ele>47.5</ele><time>2026-04-29T07:39:05.818Z</time></trkpt><trkpt lat="45.0696408" lon="9.7303122"><ele>48.0</ele><time>2026-04-29T07:39:06.819Z</time></trkpt><trkpt lat="45.0694436" lon="9.7305071"><ele>48.0</ele><time>2026-04-29T07:39:07.818Z</time></trkpt><trkpt lat="45.0692574" lon="9.7306895"><ele>48.0</ele><time>2026-04-29T07:39:08.819Z</time></trkpt><trkpt lat="45.0690787" lon="9.7308634"><ele>48.0</ele><time>2026-04-29T07:39:09.818Z</time></trkpt><trkpt lat="45.068899" lon="9.7310408"><ele>48.0</ele><time>2026-04-29T07:39:10.819Z</time></trkpt><trkpt lat="45.0687177" lon="9.7312176"><ele>48.0</ele><time>2026-04-29T07:39:11.819Z</time></trkpt><trkpt lat="45.0685368" lon="9.7313986"><ele>48.0</ele><time>2026-04-29T07:39:12.818Z</time></trkpt><trkpt lat="45.0683527" lon="9.7315798"><ele>46.5</ele><time>2026-04-29T07:39:13.819Z</time></trkpt><trkpt lat="45.0681682" lon="9.7317628"><ele>45.0</ele><time>2026-04-29T07:39:14.819Z</time></trkpt><trkpt lat="45.0679844" lon="9.7319459"><ele>48.0</ele><time>2026-04-29T07:39:15.819Z</time></trkpt><trkpt lat="45.0678" lon="9.7321283"><ele>51.0</ele><time>2026-04-29T07:39:16.819Z</time></trkpt><trkpt lat="45.0676144" lon="9.7323094"><ele>49.0</ele><time>2026-04-29T07:39:17.818Z</time></trkpt><trkpt lat="45.0674314" lon="9.7324899"><ele>47.0</ele><time>2026-04-29T07:39:18.818Z</time></trkpt><trkpt lat="45.0672537" lon="9.7326668"><ele>45.0</ele><time>2026-04-29T07:39:19.819Z</time></trkpt><trkpt lat="45.0670791" lon="9.7328388"><ele>44.333333333333336</ele><time>2026-04-29T07:39:20.819Z</time></trkpt><trkpt lat="45.0669131" lon="9.7330058"><ele>43.66666666666667</ele><time>2026-04-29T07:39:21.819Z</time></trkpt><trkpt lat="45.0667467" lon="9.7331681"><ele>43.0</ele><time>2026-04-29T07:39:22.819Z</time></trkpt><trkpt lat="45.0665789" lon="9.7333318"><ele>42.66666666666667</ele><time>2026-04-29T07:39:23.818Z</time></trkpt><trkpt lat="45.0664131" lon="9.7334982"><ele>42.333333333333336</ele><time>2026-04-29T07:39:24.819Z</time></trkpt><trkpt lat="45.0662415" lon="9.7336659"><ele>42.0</ele><time>2026-04-29T07:39:25.819Z</time></trkpt><trkpt lat="45.0660708" lon="9.7338368"><ele>41.666666666666664</ele><time>2026-04-29T07:39:26.819Z</time></trkpt><trkpt lat="45.0658954" lon="9.7340095"><ele>41.33333333333333</ele><time>2026-04-29T07:39:27.819Z</time></trkpt><trkpt lat="45.0657168" lon="9.7341865"><ele>41.0</ele><time>2026-04-29T07:39:28.819Z</time></trkpt><trkpt lat="45.0655348" lon="9.7343629"><ele>41.0</ele><time>2026-04-29T07:39:29.819Z</time></trkpt><trkpt lat="45.0653509" lon="9.7345422"><ele>41.0</ele><time>2026-04-29T07:39:30.819Z</time></trkpt><trkpt lat="45.0651674" lon="9.7347248"><ele>41.0</ele><time>2026-04-29T07:39:31.819Z</time></trkpt><trkpt lat="45.0649849" lon="9.734902"><ele>43.0</ele><time>2026-04-29T07:39:32.819Z</time></trkpt><trkpt lat="45.0648075" lon="9.7350787"><ele>45.0</ele><time>2026-04-29T07:39:33.819Z</time></trkpt><trkpt lat="45.0646283" lon="9.7352562"><ele>47.0</ele><time>2026-04-29T07:39:34.819Z</time></trkpt><trkpt lat="45.0644486" lon="9.735434"><ele>47.0</ele><time>2026-04-29T07:39:35.818Z</time></trkpt><trkpt lat="45.064269" lon="9.7356108"><ele>47.0</ele><time>2026-04-29T07:39:36.819Z</time></trkpt><trkpt lat="45.0640938" lon="9.7357835"><ele>47.0</ele><time>2026-04-29T07:39:37.819Z</time></trkpt><trkpt lat="45.0639192" lon="9.7359567"><ele>47.666666666666664</ele><time>2026-04-29T07:39:38.819Z</time></trkpt><trkpt lat="45.063743" lon="9.7361315"><ele>48.33333333333333</ele><time>2026-04-29T07:39:39.819Z</time></trkpt><trkpt lat="45.0635718" lon="9.736297"><ele>49.0</ele><time>2026-04-29T07:39:40.818Z</time></trkpt><trkpt lat="45.06341" lon="9.7364555"><ele>48.33333333333333</ele><time>2026-04-29T07:39:41.819Z</time></trkpt><trkpt lat="45.0632569" lon="9.736604"><ele>47.666666666666664</ele><time>2026-04-29T07:39:42.819Z</time></trkpt><trkpt lat="45.0631077" lon="9.7367495"><ele>47.0</ele><time>2026-04-29T07:39:43.818Z</time></trkpt><trkpt lat="45.0629573" lon="9.7368953"><ele>48.666666666666664</ele><time>2026-04-29T07:39:44.818Z</time></trkpt><trkpt lat="45.0628044" lon="9.7370479"><ele>50.33333333333333</ele><time>2026-04-29T07:39:45.819Z</time></trkpt><trkpt lat="45.0626474" lon="9.7371993"><ele>52.0</ele><time>2026-04-29T07:39:46.819Z</time></trkpt><trkpt lat="45.062496" lon="9.7373488"><ele>53.0</ele><time>2026-04-29T07:39:47.819Z</time></trkpt><trkpt lat="45.0623472" lon="9.7374925"><ele>54.0</ele><time>2026-04-29T07:39:48.819Z</time></trkpt><trkpt lat="45.0622034" lon="9.7376321"><ele>55.0</ele><time>2026-04-29T07:39:49.819Z</time></trkpt><trkpt lat="45.0620578" lon="9.7377737"><ele>55.0</ele><time>2026-04-29T07:39:50.819Z</time></trkpt><trkpt lat="45.0619107" lon="9.7379192"><ele>55.0</ele><time>2026-04-29T07:39:51.819Z</time></trkpt><trkpt lat="45.0617559" lon="9.7380658"><ele>55.0</ele><time>2026-04-29T07:39:52.819Z</time></trkpt><trkpt lat="45.0615974" lon="9.7382176"><ele>54.0</ele><time>2026-04-29T07:39:53.819Z</time></trkpt><trkpt lat="45.0614344" lon="9.7383673"><ele>53.0</ele><time>2026-04-29T07:39:54.819Z</time></trkpt><trkpt lat="45.0612644" lon="9.7385212"><ele>52.0</ele><time>2026-04-29T07:39:55.819Z</time></trkpt><trkpt lat="45.06109" lon="9.7386813"><ele>52.0</ele><time>2026-04-29T07:39:56.819Z</time></trkpt><trkpt lat="45.0609173" lon="9.7388399"><ele>52.0</ele><time>2026-04-29T07:39:57.819Z</time></trkpt><trkpt lat="45.0607507" lon="9.7389902"><ele>52.0</ele><time>2026-04-29T07:39:58.819Z</time></trkpt><trkpt lat="45.0605843" lon="9.7391407"><ele>50.33333333333333</ele><time>2026-04-29T07:39:59.819Z</time></trkpt><trkpt lat="45.0604191" lon="9.7392892"><ele>48.666666666666664</ele><time>2026-04-29T07:40:00.819Z</time></trkpt><trkpt lat="45.0602514" lon="9.7394406"><ele>47.0</ele><time>2026-04-29T07:40:01.819Z</time></trkpt><trkpt lat="45.0600809" lon="9.7395946"><ele>46.0</ele><time>2026-04-29T07:40:02.819Z</time></trkpt><trkpt lat="45.0599092" lon="9.739747"><ele>45.0</ele><time>2026-04-29T07:40:03.819Z</time></trkpt><trkpt lat="45.0597351" lon="9.7398964"><ele>44.0</ele><time>2026-04-29T07:40:04.819Z</time></trkpt><trkpt lat="45.0595628" lon="9.7400482"><ele>44.0</ele><time>2026-04-29T07:40:05.819Z</time></trkpt><trkpt lat="45.0593981" lon="9.7401967"><ele>44.0</ele><time>2026-04-29T07:40:06.819Z</time></trkpt><trkpt lat="45.0592342" lon="9.740344"><ele>44.0</ele><time>2026-04-29T07:40:07.818Z</time></trkpt><trkpt lat="45.0590733" lon="9.7404941"><ele>43.666666666666664</ele><time>2026-04-29T07:40:08.818Z</time></trkpt><trkpt lat="45.0589177" lon="9.740642"><ele>43.333333333333336</ele><time>2026-04-29T07:40:09.819Z</time></trkpt><trkpt lat="45.0587659" lon="9.7407832"><ele>43.0</ele><time>2026-04-29T07:40:10.819Z</time></trkpt><trkpt lat="45.0586186" lon="9.7409217"><ele>43.66666666666667</ele><time>2026-04-29T07:40:11.818Z</time></trkpt><trkpt lat="45.0584719" lon="9.7410624"><ele>44.333333333333336</ele><time>2026-04-29T07:40:12.819Z</time></trkpt><trkpt lat="45.058321" lon="9.7412069"><ele>45.0</ele><time>2026-04-29T07:40:13.819Z</time></trkpt><trkpt lat="45.058169" lon="9.7413525"><ele>45.0</ele><time>2026-04-29T07:40:14.819Z</time></trkpt><trkpt lat="45.0580187" lon="9.7414983"><ele>45.0</ele><time>2026-04-29T07:40:15.819Z</time></trkpt><trkpt lat="45.0578649" lon="9.7416496"><ele>45.0</ele><time>2026-04-29T07:40:16.819Z</time></trkpt><trkpt lat="45.0577091" lon="9.7418064"><ele>44.666666666666664</ele><time>2026-04-29T07:40:17.819Z</time></trkpt><trkpt lat="45.0575507" lon="9.7419662"><ele>44.33333333333333</ele><time>2026-04-29T07:40:18.819Z</time></trkpt><trkpt lat="45.0573925" lon="9.7421259"><ele>44.0</ele><time>2026-04-29T07:40:19.819Z</time></trkpt><trkpt lat="45.0572396" lon="9.7422772"><ele>44.0</ele><time>2026-04-29T07:40:20.819Z</time></trkpt><trkpt lat="45.0570851" lon="9.7424274"><ele>44.0</ele><time>2026-04-29T07:40:21.819Z</time></trkpt><trkpt lat="45.0569298" lon="9.7425781"><ele>44.0</ele><time>2026-04-29T07:40:22.819Z</time></trkpt><trkpt lat="45.0567717" lon="9.7427313"><ele>44.0</ele><time>2026-04-29T07:40:23.818Z</time></trkpt><trkpt lat="45.0566109" lon="9.742889"><ele>44.0</ele><time>2026-04-29T07:40:24.819Z</time></trkpt><trkpt lat="45.0564491" lon="9.743052"><ele>44.0</ele><time>2026-04-29T07:40:25.819Z</time></trkpt><trkpt lat="45.0562938" lon="9.7432121"><ele>44.0</ele><time>2026-04-29T07:40:26.819Z</time></trkpt><trkpt lat="45.0561418" lon="9.743364"><ele>44.0</ele><time>2026-04-29T07:40:27.819Z</time></trkpt><trkpt lat="45.0559997" lon="9.7435061"><ele>44.0</ele><time>2026-04-29T07:40:28.819Z</time></trkpt><trkpt lat="45.0558672" lon="9.7436371"><ele>44.666666666666664</ele><time>2026-04-29T07:40:29.818Z</time></trkpt><trkpt lat="45.0557416" lon="9.7437623"><ele>45.333333333333336</ele><time>2026-04-29T07:40:30.819Z</time></trkpt><trkpt lat="45.0556179" lon="9.7438845"><ele>46.0</ele><time>2026-04-29T07:40:31.818Z</time></trkpt><trkpt lat="45.0554984" lon="9.7440058"><ele>46.0</ele><time>2026-04-29T07:40:32.819Z</time></trkpt><trkpt lat="45.0553808" lon="9.7441208"><ele>46.0</ele><time>2026-04-29T07:40:33.819Z</time></trkpt><trkpt lat="45.0552622" lon="9.7442378"><ele>46.0</ele><time>2026-04-29T07:40:34.819Z</time></trkpt><trkpt lat="45.0551421" lon="9.7443571"><ele>46.0</ele><time>2026-04-29T07:40:35.819Z</time></trkpt><trkpt lat="45.0550193" lon="9.7444787"><ele>46.333333333333336</ele><time>2026-04-29T07:40:36.819Z</time></trkpt><trkpt lat="45.0548954" lon="9.7446004"><ele>46.666666666666664</ele><time>2026-04-29T07:40:37.819Z</time></trkpt><trkpt lat="45.0547643" lon="9.7447305"><ele>47.0</ele><time>2026-04-29T07:40:38.819Z</time></trkpt><trkpt lat="45.0546307" lon="9.7448651"><ele>47.0</ele><time>2026-04-29T07:40:39.819Z</time></trkpt><trkpt lat="45.054494" lon="9.7449996"><ele>47.0</ele><time>2026-04-29T07:40:40.818Z</time></trkpt><trkpt lat="45.0543462" lon="9.7451402"><ele>47.0</ele><time>2026-04-29T07:40:41.819Z</time></trkpt><trkpt lat="45.0541968" lon="9.7452836"><ele>46.666666666666664</ele><time>2026-04-29T07:40:42.819Z</time></trkpt><trkpt lat="45.054047" lon="9.7454315"><ele>46.333333333333336</ele><time>2026-04-29T07:40:43.819Z</time></trkpt><trkpt lat="45.0538975" lon="9.745582"><ele>46.0</ele><time>2026-04-29T07:40:44.819Z</time></trkpt><trkpt lat="45.053752" lon="9.7457286"><ele>46.0</ele><time>2026-04-29T07:40:45.819Z</time></trkpt><trkpt lat="45.0536099" lon="9.7458641"><ele>46.0</ele><time>2026-04-29T07:40:46.819Z</time></trkpt><trkpt lat="45.0534788" lon="9.7459843"><ele>46.0</ele><time>2026-04-29T07:40:47.819Z</time></trkpt><trkpt lat="45.0533614" lon="9.7460882"><ele>46.75</ele><time>2026-04-29T07:40:48.819Z</time></trkpt><trkpt lat="45.0532499" lon="9.7461834"><ele>47.5</ele><time>2026-04-29T07:40:49.819Z</time></trkpt><trkpt lat="45.0531401" lon="9.746275"><ele>48.25</ele><time>2026-04-29T07:40:50.819Z</time></trkpt><trkpt lat="45.0530307" lon="9.746356"><ele>49.0</ele><time>2026-04-29T07:40:51.819Z</time></trkpt><trkpt lat="45.0529187" lon="9.7464301"><ele>49.0</ele><time>2026-04-29T07:40:52.819Z</time></trkpt><trkpt lat="45.0528036" lon="9.7465079"><ele>49.0</ele><time>2026-04-29T07:40:53.819Z</time></trkpt><trkpt lat="45.0526887" lon="9.7465861"><ele>49.0</ele><time>2026-04-29T07:40:54.819Z</time></trkpt><trkpt lat="45.0525763" lon="9.7466689"><ele>49.0</ele><time>2026-04-29T07:40:55.819Z</time></trkpt><trkpt lat="45.0524645" lon="9.7467569"><ele>48.25</ele><time>2026-04-29T07:40:56.819Z</time></trkpt><trkpt lat="45.0523502" lon="9.746858"><ele>47.5</ele><time>2026-04-29T07:40:57.818Z</time></trkpt><trkpt lat="45.0522381" lon="9.7469621"><ele>46.75</ele><time>2026-04-29T07:40:58.819Z</time></trkpt><trkpt lat="45.0521268" lon="9.747072"><ele>46.0</ele><time>2026-04-29T07:40:59.819Z</time></trkpt><trkpt lat="45.0520274" lon="9.7471661"><ele>46.0</ele><time>2026-04-29T07:41:00.819Z</time></trkpt><trkpt lat="45.051931" lon="9.7472612"><ele>46.0</ele><time>2026-04-29T07:41:01.819Z</time></trkpt><trkpt lat="45.0518417" lon="9.7473585"><ele>46.0</ele><time>2026-04-29T07:41:02.819Z</time></trkpt><trkpt lat="45.0517475" lon="9.7474636"><ele>46.0</ele><time>2026-04-29T07:41:03.819Z</time></trkpt><trkpt lat="45.0516539" lon="9.7475753"><ele>45.75</ele><time>2026-04-29T07:41:04.818Z</time></trkpt><trkpt lat="45.0515641" lon="9.7476934"><ele>45.5</ele><time>2026-04-29T07:41:05.819Z</time></trkpt><trkpt lat="45.0514708" lon="9.7478208"><ele>45.25</ele><time>2026-04-29T07:41:06.819Z</time></trkpt><trkpt lat="45.0513682" lon="9.7479538"><ele>45.0</ele><time>2026-04-29T07:41:07.819Z</time></trkpt><trkpt lat="45.0512572" lon="9.7480895"><ele>45.0</ele><time>2026-04-29T07:41:08.819Z</time></trkpt><trkpt lat="45.0511369" lon="9.7482289"><ele>45.0</ele><time>2026-04-29T07:41:09.819Z</time></trkpt><trkpt lat="45.0510077" lon="9.7483733"><ele>45.0</ele><time>2026-04-29T07:41:10.819Z</time></trkpt><trkpt lat="45.050864" lon="9.7485221"><ele>45.0</ele><time>2026-04-29T07:41:11.819Z</time></trkpt><trkpt lat="45.0507133" lon="9.7486758"><ele>45.0</ele><time>2026-04-29T07:41:12.819Z</time></trkpt><trkpt lat="45.0505573" lon="9.7488277"><ele>45.0</ele><time>2026-04-29T07:41:13.819Z</time></trkpt><trkpt lat="45.050394" lon="9.7489871"><ele>45.0</ele><time>2026-04-29T07:41:14.819Z</time></trkpt><trkpt lat="45.0502239" lon="9.7491532"><ele>45.0</ele><time>2026-04-29T07:41:15.819Z</time></trkpt><trkpt lat="45.0500568" lon="9.7493136"><ele>45.0</ele><time>2026-04-29T07:41:16.818Z</time></trkpt><trkpt lat="45.0498979" lon="9.7494713"><ele>44.333333333333336</ele><time>2026-04-29T07:41:17.819Z</time></trkpt><trkpt lat="45.0497428" lon="9.7496241"><ele>43.66666666666667</ele><time>2026-04-29T07:41:18.819Z</time></trkpt><trkpt lat="45.049588" lon="9.749774"><ele>43.0</ele><time>2026-04-29T07:41:19.819Z</time></trkpt><trkpt lat="45.0494397" lon="9.7499189"><ele>43.0</ele><time>2026-04-29T07:41:20.819Z</time></trkpt><trkpt lat="45.0492912" lon="9.7500592"><ele>43.0</ele><time>2026-04-29T07:41:21.819Z</time></trkpt><trkpt lat="45.0491444" lon="9.750193"><ele>43.0</ele><time>2026-04-29T07:41:22.819Z</time></trkpt><trkpt lat="45.0489984" lon="9.7503172"><ele>43.66666666666667</ele><time>2026-04-29T07:41:23.819Z</time></trkpt><trkpt lat="45.0488567" lon="9.7504372"><ele>44.333333333333336</ele><time>2026-04-29T07:41:24.819Z</time></trkpt><trkpt lat="45.0487162" lon="9.7505634"><ele>45.0</ele><time>2026-04-29T07:41:25.819Z</time></trkpt><trkpt lat="45.0485775" lon="9.7506977"><ele>45.0</ele><time>2026-04-29T07:41:26.819Z</time></trkpt><trkpt lat="45.048438" lon="9.75084"><ele>45.0</ele><time>2026-04-29T07:41:27.819Z</time></trkpt><trkpt lat="45.0482988" lon="9.7509878"><ele>45.0</ele><time>2026-04-29T07:41:28.819Z</time></trkpt><trkpt lat="45.0481579" lon="9.7511387"><ele>45.333333333333336</ele><time>2026-04-29T07:41:29.819Z</time></trkpt><trkpt lat="45.0480129" lon="9.751291"><ele>45.66666666666667</ele><time>2026-04-29T07:41:30.819Z</time></trkpt><trkpt lat="45.0478729" lon="9.7514395"><ele>46.0</ele><time>2026-04-29T07:41:31.818Z</time></trkpt><trkpt lat="45.0477359" lon="9.7515822"><ele>46.0</ele><time>2026-04-29T07:41:32.818Z</time></trkpt><trkpt lat="45.0476037" lon="9.7517255"><ele>46.0</ele><time>2026-04-29T07:41:33.818Z</time></trkpt><trkpt lat="45.0474729" lon="9.751863"><ele>46.0</ele><time>2026-04-29T07:41:34.819Z</time></trkpt><trkpt lat="45.0473417" lon="9.7520025"><ele>45.66666666666667</ele><time>2026-04-29T07:41:35.819Z</time></trkpt><trkpt lat="45.047208" lon="9.7521429"><ele>45.333333333333336</ele><time>2026-04-29T07:41:36.819Z</time></trkpt><trkpt lat="45.047072" lon="9.7522846"><ele>45.0</ele><time>2026-04-29T07:41:37.819Z</time></trkpt><trkpt lat="45.0469346" lon="9.7524314"><ele>45.0</ele><time>2026-04-29T07:41:38.819Z</time></trkpt><trkpt lat="45.0468008" lon="9.7525671"><ele>45.0</ele><time>2026-04-29T07:41:39.819Z</time></trkpt><trkpt lat="45.0466695" lon="9.7527041"><ele>45.0</ele><time>2026-04-29T07:41:40.819Z</time></trkpt><trkpt lat="45.0465374" lon="9.7528385"><ele>44.666666666666664</ele><time>2026-04-29T07:41:41.818Z</time></trkpt><trkpt lat="45.0464109" lon="9.7529648"><ele>44.33333333333333</ele><time>2026-04-29T07:41:42.819Z</time></trkpt><trkpt lat="45.0462875" lon="9.7530862"><ele>44.0</ele><time>2026-04-29T07:41:43.819Z</time></trkpt><trkpt lat="45.0461677" lon="9.7532043"><ele>44.0</ele><time>2026-04-29T07:41:44.819Z</time></trkpt><trkpt lat="45.0460505" lon="9.7533175"><ele>44.0</ele><time>2026-04-29T07:41:45.818Z</time></trkpt><trkpt lat="45.0459416" lon="9.7534251"><ele>44.0</ele><time>2026-04-29T07:41:46.819Z</time></trkpt><trkpt lat="45.0458398" lon="9.7535245"><ele>44.0</ele><time>2026-04-29T07:41:47.819Z</time></trkpt><trkpt lat="45.0457436" lon="9.7536202"><ele>44.25</ele><time>2026-04-29T07:41:48.819Z</time></trkpt><trkpt lat="45.0456443" lon="9.7537192"><ele>44.5</ele><time>2026-04-29T07:41:49.819Z</time></trkpt><trkpt lat="45.0455406" lon="9.7538175"><ele>44.75</ele><time>2026-04-29T07:41:50.819Z</time></trkpt><trkpt lat="45.0454288" lon="9.7539194"><ele>45.0</ele><time>2026-04-29T07:41:51.818Z</time></trkpt><trkpt lat="45.0453083" lon="9.7540182"><ele>45.0</ele><time>2026-04-29T07:41:52.819Z</time></trkpt><trkpt lat="45.045179" lon="9.7540991"><ele>45.0</ele><time>2026-04-29T07:41:53.819Z</time></trkpt><trkpt lat="45.0450432" lon="9.7541469"><ele>45.0</ele><time>2026-04-29T07:41:54.819Z</time></trkpt><trkpt lat="45.0448996" lon="9.7541525"><ele>45.0</ele><time>2026-04-29T07:41:55.819Z</time></trkpt><trkpt lat="45.0447534" lon="9.7541184"><ele>45.5</ele><time>2026-04-29T07:41:56.819Z</time></trkpt><trkpt lat="45.0446184" lon="9.7540492"><ele>46.0</ele><time>2026-04-29T07:41:57.818Z</time></trkpt><trkpt lat="45.0444945" lon="9.7539511"><ele>46.5</ele><time>2026-04-29T07:41:58.819Z</time></trkpt><trkpt lat="45.0443868" lon="9.753826"><ele>47.0</ele><time>2026-04-29T07:41:59.819Z</time></trkpt><trkpt lat="45.0442956" lon="9.7536816"><ele>47.0</ele><time>2026-04-29T07:42:00.819Z</time></trkpt><trkpt lat="45.0442237" lon="9.7535264"><ele>47.0</ele><time>2026-04-29T07:42:01.819Z</time></trkpt><trkpt lat="45.0441729" lon="9.7533669"><ele>47.0</ele><time>2026-04-29T07:42:02.819Z</time></trkpt><trkpt lat="45.0441419" lon="9.7532041"><ele>47.0</ele><time>2026-04-29T07:42:03.819Z</time></trkpt><trkpt lat="45.0441271" lon="9.7530385"><ele>47.0</ele><time>2026-04-29T07:42:04.819Z</time></trkpt><trkpt lat="45.0441294" lon="9.7528771"><ele>47.0</ele><time>2026-04-29T07:42:05.819Z</time></trkpt><trkpt lat="45.0441455" lon="9.7527311"><ele>47.0</ele><time>2026-04-29T07:42:06.819Z</time></trkpt><trkpt lat="45.044169" lon="9.7525982"><ele>47.0</ele><time>2026-04-29T07:42:07.819Z</time></trkpt><trkpt lat="45.0441971" lon="9.7524766"><ele>47.0</ele><time>2026-04-29T07:42:08.818Z</time></trkpt><trkpt lat="45.044229" lon="9.752362"><ele>46.8</ele><time>2026-04-29T07:42:09.819Z</time></trkpt><trkpt lat="45.0442676" lon="9.7522478"><ele>46.6</ele><time>2026-04-29T07:42:10.819Z</time></trkpt><trkpt lat="45.0443049" lon="9.7521328"><ele>46.4</ele><time>2026-04-29T07:42:11.819Z</time></trkpt><trkpt lat="45.0443447" lon="9.7520113"><ele>46.199999999999996</ele><time>2026-04-29T07:42:12.819Z</time></trkpt><trkpt lat="45.0443868" lon="9.751884"><ele>46.0</ele><time>2026-04-29T07:42:13.819Z</time></trkpt><trkpt lat="45.0444312" lon="9.7517605"><ele>46.4</ele><time>2026-04-29T07:42:14.819Z</time></trkpt><trkpt lat="45.0444708" lon="9.7516378"><ele>46.8</ele><time>2026-04-29T07:42:15.818Z</time></trkpt><trkpt lat="45.0445098" lon="9.7515066"><ele>47.199999999999996</ele><time>2026-04-29T07:42:16.818Z</time></trkpt><trkpt lat="45.0445519" lon="9.7513724"><ele>47.599999999999994</ele><time>2026-04-29T07:42:17.819Z</time></trkpt><trkpt lat="45.0445924" lon="9.7512438"><ele>48.0</ele><time>2026-04-29T07:42:18.818Z</time></trkpt><trkpt lat="45.0446314" lon="9.7511196"><ele>47.833333333333336</ele><time>2026-04-29T07:42:19.819Z</time></trkpt><trkpt lat="45.0446701" lon="9.7510033"><ele>47.666666666666664</ele><time>2026-04-29T07:42:20.819Z</time></trkpt><trkpt lat="45.0447124" lon="9.7508929"><ele>47.5</ele><time>2026-04-29T07:42:21.818Z</time></trkpt><trkpt lat="45.0447524" lon="9.7507898"><ele>47.33333333333333</ele><time>2026-04-29T07:42:22.819Z</time></trkpt><trkpt lat="45.0447909" lon="9.7506979"><ele>47.166666666666664</ele><time>2026-04-29T07:42:23.818Z</time></trkpt><trkpt lat="45.0448266" lon="9.7506136"><ele>47.0</ele><time>2026-04-29T07:42:24.819Z</time></trkpt><trkpt lat="45.044872" lon="9.7505004"><ele>47.0</ele><time>2026-04-29T07:42:26.819Z</time></trkpt><trkpt lat="45.0449082" lon="9.7504177"><ele>47.0</ele><time>2026-04-29T07:42:29.819Z</time></trkpt><trkpt lat="45.0449419" lon="9.7503358"><ele>47.0</ele><time>2026-04-29T07:42:31.819Z</time></trkpt><trkpt lat="45.0449797" lon="9.7502532"><ele>47.0</ele><time>2026-04-29T07:42:32.818Z</time></trkpt><trkpt lat="45.0450252" lon="9.7501572"><ele>47.0</ele><time>2026-04-29T07:42:33.818Z</time></trkpt><trkpt lat="45.045072" lon="9.7500624"><ele>47.0</ele><time>2026-04-29T07:42:34.819Z</time></trkpt><trkpt lat="45.0451157" lon="9.7499739"><ele>47.0</ele><time>2026-04-29T07:42:35.819Z</time></trkpt><trkpt lat="45.0451691" lon="9.7498789"><ele>47.166666666666664</ele><time>2026-04-29T07:42:36.819Z</time></trkpt><trkpt lat="45.0452194" lon="9.7497924"><ele>47.33333333333333</ele><time>2026-04-29T07:42:37.819Z</time></trkpt><trkpt lat="45.0452668" lon="9.7497127"><ele>47.5</ele><time>2026-04-29T07:42:38.819Z</time></trkpt><trkpt lat="45.0453108" lon="9.7496421"><ele>47.666666666666664</ele><time>2026-04-29T07:42:39.819Z</time></trkpt><trkpt lat="45.045377" lon="9.7495432"><ele>47.833333333333336</ele><time>2026-04-29T07:42:41.818Z</time></trkpt><trkpt lat="45.0454173" lon="9.7494742"><ele>48.0</ele><time>2026-04-29T07:42:43.818Z</time></trkpt><trkpt lat="45.0454462" lon="9.7493815"><ele>48.0</ele><time>2026-04-29T07:42:56.819Z</time></trkpt><trkpt lat="45.0455008" lon="9.7492203"><ele>48.0</ele><time>2026-04-29T07:42:58.818Z</time></trkpt><trkpt lat="45.0455417" lon="9.749121"><ele>48.0</ele><time>2026-04-29T07:42:59.819Z</time></trkpt><trkpt lat="45.0455882" lon="9.7490103"><ele>48.0</ele><time>2026-04-29T07:43:00.819Z</time></trkpt><trkpt lat="45.0456425" lon="9.7488887"><ele>48.0</ele><time>2026-04-29T07:43:01.818Z</time></trkpt><trkpt lat="45.0457036" lon="9.748758"><ele>48.0</ele><time>2026-04-29T07:43:02.818Z</time></trkpt><trkpt lat="45.0457716" lon="9.7486293"><ele>48.0</ele><time>2026-04-29T07:43:03.818Z</time></trkpt><trkpt lat="45.0458467" lon="9.7485065"><ele>48.0</ele><time>2026-04-29T07:43:04.819Z</time></trkpt><trkpt lat="45.0459385" lon="9.7483965"><ele>48.0</ele><time>2026-04-29T07:43:05.819Z</time></trkpt><trkpt lat="45.0460395" lon="9.748293"><ele>48.25</ele><time>2026-04-29T07:43:06.818Z</time></trkpt><trkpt lat="45.0461521" lon="9.7481875"><ele>48.5</ele><time>2026-04-29T07:43:07.818Z</time></trkpt><trkpt lat="45.04627" lon="9.7480789"><ele>48.75</ele><time>2026-04-29T07:43:08.819Z</time></trkpt><trkpt lat="45.0463911" lon="9.7479715"><ele>49.0</ele><time>2026-04-29T07:43:09.819Z</time></trkpt><trkpt lat="45.0465149" lon="9.7478612"><ele>48.0</ele><time>2026-04-29T07:43:10.818Z</time></trkpt><trkpt lat="45.0466419" lon="9.7477432"><ele>47.0</ele><time>2026-04-29T07:43:11.819Z</time></trkpt><trkpt lat="45.0467692" lon="9.7476285"><ele>46.0</ele><time>2026-04-29T07:43:12.819Z</time></trkpt><trkpt lat="45.0468877" lon="9.7475253"><ele>45.0</ele><time>2026-04-29T07:43:13.819Z</time></trkpt><trkpt lat="45.0469952" lon="9.7474292"><ele>45.0</ele><time>2026-04-29T07:43:14.791Z</time></trkpt><trkpt lat="45.0470997" lon="9.7473417"><ele>45.0</ele><time>2026-04-29T07:43:15.793Z</time></trkpt><trkpt lat="45.0471959" lon="9.7472628"><ele>45.0</ele><time>2026-04-29T07:43:16.792Z</time></trkpt><trkpt lat="45.047283" lon="9.7471917"><ele>45.0</ele><time>2026-04-29T07:43:17.792Z</time></trkpt><trkpt lat="45.0473595" lon="9.7471313"><ele>45.0</ele><time>2026-04-29T07:43:18.794Z</time></trkpt><trkpt lat="45.0474256" lon="9.7470839"><ele>45.285714285714285</ele><time>2026-04-29T07:43:19.792Z</time></trkpt><trkpt lat="45.0474952" lon="9.7470411"><ele>45.57142857142858</ele><time>2026-04-29T07:43:20.793Z</time></trkpt><trkpt lat="45.0475651" lon="9.7470112"><ele>45.85714285714286</ele><time>2026-04-29T07:43:21.793Z</time></trkpt><trkpt lat="45.0476367" lon="9.7469952"><ele>46.14285714285714</ele><time>2026-04-29T07:43:22.793Z</time></trkpt><trkpt lat="45.0477071" lon="9.7469953"><ele>46.42857142857143</ele><time>2026-04-29T07:43:23.793Z</time></trkpt><trkpt lat="45.0477748" lon="9.7469959"><ele>46.714285714285715</ele><time>2026-04-29T07:43:24.793Z</time></trkpt><trkpt lat="45.0478387" lon="9.7469809"><ele>47.0</ele><time>2026-04-29T07:43:25.793Z</time></trkpt><trkpt lat="45.0478958" lon="9.7469378"><ele>47.166666666666664</ele><time>2026-04-29T07:43:26.793Z</time></trkpt><trkpt lat="45.0479359" lon="9.7467967"><ele>47.33333333333333</ele><time>2026-04-29T07:43:28.793Z</time></trkpt><trkpt lat="45.0479015" lon="9.7466468"><ele>47.5</ele><time>2026-04-29T07:43:30.793Z</time></trkpt><trkpt lat="45.0478583" lon="9.7465775"><ele>47.666666666666664</ele><time>2026-04-29T07:43:31.792Z</time></trkpt><trkpt lat="45.0478047" lon="9.7465055"><ele>47.833333333333336</ele><time>2026-04-29T07:43:32.793Z</time></trkpt><trkpt lat="45.0477457" lon="9.7464205"><ele>48.0</ele><time>2026-04-29T07:43:33.793Z</time></trkpt><trkpt lat="45.0476839" lon="9.7463233"><ele>48.0</ele><time>2026-04-29T07:43:34.793Z</time></trkpt><trkpt lat="45.0476167" lon="9.7462256"><ele>48.0</ele><time>2026-04-29T07:43:35.793Z</time></trkpt><trkpt lat="45.0475337" lon="9.7461305"><ele>48.0</ele><time>2026-04-29T07:43:36.793Z</time></trkpt><trkpt lat="45.0474439" lon="9.7460569"><ele>48.0</ele><time>2026-04-29T07:43:37.793Z</time></trkpt><trkpt lat="45.0473509" lon="9.7460021"><ele>48.0</ele><time>2026-04-29T07:43:38.793Z</time></trkpt><trkpt lat="45.047258" lon="9.7459577"><ele>47.8</ele><time>2026-04-29T07:43:39.793Z</time></trkpt><trkpt lat="45.0471636" lon="9.745916"><ele>47.599999999999994</ele><time>2026-04-29T07:43:40.793Z</time></trkpt><trkpt lat="45.0470676" lon="9.745874"><ele>47.400000000000006</ele><time>2026-04-29T07:43:41.793Z</time></trkpt><trkpt lat="45.0469707" lon="9.74583"><ele>47.2</ele><time>2026-04-29T07:43:42.793Z</time></trkpt><trkpt lat="45.0468737" lon="9.7457868"><ele>47.0</ele><time>2026-04-29T07:43:43.793Z</time></trkpt><trkpt lat="45.0467664" lon="9.7457443"><ele>47.0</ele><time>2026-04-29T07:43:44.793Z</time></trkpt><trkpt lat="45.0466545" lon="9.7457106"><ele>47.0</ele><time>2026-04-29T07:43:45.793Z</time></trkpt><trkpt lat="45.0465355" lon="9.7456864"><ele>47.0</ele><time>2026-04-29T07:43:46.793Z</time></trkpt><trkpt lat="45.0464094" lon="9.745672"><ele>47.0</ele><time>2026-04-29T07:43:47.792Z</time></trkpt><trkpt lat="45.0462795" lon="9.7456693"><ele>47.5</ele><time>2026-04-29T07:43:48.793Z</time></trkpt><trkpt lat="45.0461454" lon="9.7456821"><ele>48.0</ele><time>2026-04-29T07:43:49.792Z</time></trkpt><trkpt lat="45.0460227" lon="9.7457102"><ele>48.5</ele><time>2026-04-29T07:43:50.819Z</time></trkpt><trkpt lat="45.0458806" lon="9.7457571"><ele>49.0</ele><time>2026-04-29T07:43:51.819Z</time></trkpt><trkpt lat="45.0457359" lon="9.745819"><ele>49.0</ele><time>2026-04-29T07:43:52.819Z</time></trkpt><trkpt lat="45.045593" lon="9.7458991"><ele>49.0</ele><time>2026-04-29T07:43:53.818Z</time></trkpt><trkpt lat="45.0454465" lon="9.7459979"><ele>49.0</ele><time>2026-04-29T07:43:54.819Z</time></trkpt><trkpt lat="45.0453004" lon="9.7461068"><ele>49.0</ele><time>2026-04-29T07:43:55.819Z</time></trkpt><trkpt lat="45.0451559" lon="9.7462221"><ele>49.0</ele><time>2026-04-29T07:43:56.819Z</time></trkpt><trkpt lat="45.0450116" lon="9.7463343"><ele>49.0</ele><time>2026-04-29T07:43:57.818Z</time></trkpt><trkpt lat="45.044866" lon="9.7464448"><ele>49.0</ele><time>2026-04-29T07:43:58.818Z</time></trkpt><trkpt lat="45.0447207" lon="9.7465471"><ele>49.0</ele><time>2026-04-29T07:43:59.793Z</time></trkpt><trkpt lat="45.044563" lon="9.746644"><ele>49.0</ele><time>2026-04-29T07:44:00.791Z</time></trkpt><trkpt lat="45.0444077" lon="9.7467263"><ele>49.0</ele><time>2026-04-29T07:44:01.792Z</time></trkpt><trkpt lat="45.0442501" lon="9.7467943"><ele>49.0</ele><time>2026-04-29T07:44:02.793Z</time></trkpt><trkpt lat="45.0440887" lon="9.7468503"><ele>49.0</ele><time>2026-04-29T07:44:03.792Z</time></trkpt><trkpt lat="45.0439235" lon="9.7468929"><ele>48.666666666666664</ele><time>2026-04-29T07:44:04.793Z</time></trkpt><trkpt lat="45.0437547" lon="9.7469218"><ele>48.33333333333333</ele><time>2026-04-29T07:44:05.793Z</time></trkpt><trkpt lat="45.0435871" lon="9.7469358"><ele>48.0</ele><time>2026-04-29T07:44:06.793Z</time></trkpt><trkpt lat="45.0434155" lon="9.7469358"><ele>48.33333333333333</ele><time>2026-04-29T07:44:07.793Z</time></trkpt><trkpt lat="45.0432363" lon="9.7469182"><ele>48.666666666666664</ele><time>2026-04-29T07:44:08.792Z</time></trkpt><trkpt lat="45.0430625" lon="9.7468833"><ele>49.0</ele><time>2026-04-29T07:44:09.792Z</time></trkpt><trkpt lat="45.0428926" lon="9.7468346"><ele>49.666666666666664</ele><time>2026-04-29T07:44:10.792Z</time></trkpt><trkpt lat="45.0427132" lon="9.7467702"><ele>50.33333333333333</ele><time>2026-04-29T07:44:11.793Z</time></trkpt><trkpt lat="45.0425397" lon="9.7467013"><ele>51.0</ele><time>2026-04-29T07:44:12.793Z</time></trkpt><trkpt lat="45.0423635" lon="9.746631"><ele>51.0</ele><time>2026-04-29T07:44:13.793Z</time></trkpt><trkpt lat="45.0421852" lon="9.7465615"><ele>51.0</ele><time>2026-04-29T07:44:14.792Z</time></trkpt><trkpt lat="45.0420108" lon="9.7464947"><ele>51.0</ele><time>2026-04-29T07:44:15.792Z</time></trkpt><trkpt lat="45.0418236" lon="9.7464239"><ele>51.0</ele><time>2026-04-29T07:44:16.793Z</time></trkpt><trkpt lat="45.0416424" lon="9.7463552"><ele>51.0</ele><time>2026-04-29T07:44:17.793Z</time></trkpt><trkpt lat="45.0414668" lon="9.7462879"><ele>51.0</ele><time>2026-04-29T07:44:18.793Z</time></trkpt><trkpt lat="45.0412933" lon="9.7462196"><ele>51.0</ele><time>2026-04-29T07:44:19.793Z</time></trkpt><trkpt lat="45.0411203" lon="9.746151"><ele>51.0</ele><time>2026-04-29T07:44:20.793Z</time></trkpt><trkpt lat="45.0409522" lon="9.7460742"><ele>51.0</ele><time>2026-04-29T07:44:21.819Z</time></trkpt><trkpt lat="45.0407754" lon="9.7460029"><ele>52.0</ele><time>2026-04-29T07:44:22.819Z</time></trkpt><trkpt lat="45.0405997" lon="9.7459322"><ele>53.0</ele><time>2026-04-29T07:44:23.819Z</time></trkpt><trkpt lat="45.0404257" lon="9.7458651"><ele>54.0</ele><time>2026-04-29T07:44:24.819Z</time></trkpt><trkpt lat="45.0402552" lon="9.7457972"><ele>54.0</ele><time>2026-04-29T07:44:25.819Z</time></trkpt><trkpt lat="45.0400841" lon="9.745732"><ele>54.0</ele><time>2026-04-29T07:44:26.819Z</time></trkpt><trkpt lat="45.0399122" lon="9.745661"><ele>54.0</ele><time>2026-04-29T07:44:27.818Z</time></trkpt><trkpt lat="45.0397393" lon="9.7455895"><ele>53.66666666666667</ele><time>2026-04-29T07:44:28.819Z</time></trkpt><trkpt lat="45.0395614" lon="9.7455162"><ele>53.333333333333336</ele><time>2026-04-29T07:44:29.793Z</time></trkpt><trkpt lat="45.0393878" lon="9.7454456"><ele>53.0</ele><time>2026-04-29T07:44:30.796Z</time></trkpt><trkpt lat="45.0392171" lon="9.7453758"><ele>53.0</ele><time>2026-04-29T07:44:31.796Z</time></trkpt><trkpt lat="45.0390351" lon="9.7453015"><ele>53.0</ele><time>2026-04-29T07:44:32.793Z</time></trkpt><trkpt lat="45.038864" lon="9.7452327"><ele>53.0</ele><time>2026-04-29T07:44:33.792Z</time></trkpt><trkpt lat="45.0387016" lon="9.7451677"><ele>53.333333333333336</ele><time>2026-04-29T07:44:34.794Z</time></trkpt><trkpt lat="45.0385355" lon="9.7451012"><ele>53.66666666666667</ele><time>2026-04-29T07:44:35.794Z</time></trkpt><trkpt lat="45.0383743" lon="9.7450365"><ele>54.0</ele><time>2026-04-29T07:44:36.793Z</time></trkpt><trkpt lat="45.0382123" lon="9.7449717"><ele>54.0</ele><time>2026-04-29T07:44:37.794Z</time></trkpt><trkpt lat="45.0380461" lon="9.7449047"><ele>54.0</ele><time>2026-04-29T07:44:38.793Z</time></trkpt><trkpt lat="45.0378782" lon="9.7448376"><ele>54.0</ele><time>2026-04-29T07:44:39.794Z</time></trkpt><trkpt lat="45.0376957" lon="9.7447661"><ele>54.0</ele><time>2026-04-29T07:44:40.794Z</time></trkpt><trkpt lat="45.0375072" lon="9.7446927"><ele>54.0</ele><time>2026-04-29T07:44:41.794Z</time></trkpt><trkpt lat="45.0373161" lon="9.7446174"><ele>54.0</ele><time>2026-04-29T07:44:42.794Z</time></trkpt><trkpt lat="45.0371198" lon="9.7445442"><ele>54.33333333333333</ele><time>2026-04-29T07:44:43.819Z</time></trkpt><trkpt lat="45.0369149" lon="9.7444604"><ele>54.666666666666664</ele><time>2026-04-29T07:44:44.819Z</time></trkpt><trkpt lat="45.0367114" lon="9.7443799"><ele>55.0</ele><time>2026-04-29T07:44:45.819Z</time></trkpt><trkpt lat="45.0365163" lon="9.7443033"><ele>55.33333333333333</ele><time>2026-04-29T07:44:46.819Z</time></trkpt><trkpt lat="45.0363277" lon="9.7442278"><ele>55.66666666666667</ele><time>2026-04-29T07:44:47.819Z</time></trkpt><trkpt lat="45.0361347" lon="9.74415"><ele>56.0</ele><time>2026-04-29T07:44:48.819Z</time></trkpt><trkpt lat="45.0359396" lon="9.7440721"><ele>55.66666666666667</ele><time>2026-04-29T07:44:49.819Z</time></trkpt><trkpt lat="45.0357529" lon="9.7439961"><ele>55.33333333333333</ele><time>2026-04-29T07:44:50.819Z</time></trkpt><trkpt lat="45.0355683" lon="9.7439189"><ele>55.0</ele><time>2026-04-29T07:44:51.792Z</time></trkpt><trkpt lat="45.0353822" lon="9.7438452"><ele>55.0</ele><time>2026-04-29T07:44:52.793Z</time></trkpt><trkpt lat="45.0351957" lon="9.7437712"><ele>55.0</ele><time>2026-04-29T07:44:53.793Z</time></trkpt><trkpt lat="45.0350077" lon="9.7436961"><ele>55.0</ele><time>2026-04-29T07:44:54.793Z</time></trkpt><trkpt lat="45.034825" lon="9.743624"><ele>55.33333333333333</ele><time>2026-04-29T07:44:55.793Z</time></trkpt><trkpt lat="45.0346314" lon="9.7435442"><ele>55.66666666666667</ele><time>2026-04-29T07:44:56.792Z</time></trkpt><trkpt lat="45.0344575" lon="9.743479"><ele>56.0</ele><time>2026-04-29T07:44:57.818Z</time></trkpt><trkpt lat="45.0342829" lon="9.7434099"><ele>56.66666666666667</ele><time>2026-04-29T07:44:58.819Z</time></trkpt><trkpt lat="45.0341087" lon="9.7433388"><ele>57.33333333333333</ele><time>2026-04-29T07:44:59.819Z</time></trkpt><trkpt lat="45.0339352" lon="9.7432693"><ele>58.0</ele><time>2026-04-29T07:45:00.819Z</time></trkpt><trkpt lat="45.0337637" lon="9.7432006"><ele>58.0</ele><time>2026-04-29T07:45:01.818Z</time></trkpt><trkpt lat="45.0335868" lon="9.7431296"><ele>58.0</ele><time>2026-04-29T07:45:02.819Z</time></trkpt><trkpt lat="45.0334065" lon="9.743058"><ele>58.0</ele><time>2026-04-29T07:45:03.819Z</time></trkpt><trkpt lat="45.0332273" lon="9.7429868"><ele>57.33333333333333</ele><time>2026-04-29T07:45:04.819Z</time></trkpt><trkpt lat="45.0330511" lon="9.742917"><ele>56.66666666666667</ele><time>2026-04-29T07:45:05.819Z</time></trkpt><trkpt lat="45.0328746" lon="9.7428479"><ele>56.0</ele><time>2026-04-29T07:45:06.819Z</time></trkpt><trkpt lat="45.0327023" lon="9.7427783"><ele>55.66666666666667</ele><time>2026-04-29T07:45:07.795Z</time></trkpt><trkpt lat="45.0325367" lon="9.7427114"><ele>55.33333333333333</ele><time>2026-04-29T07:45:08.794Z</time></trkpt><trkpt lat="45.0323733" lon="9.7426455"><ele>55.0</ele><time>2026-04-29T07:45:09.791Z</time></trkpt><trkpt lat="45.0322178" lon="9.7425824"><ele>55.666666666666664</ele><time>2026-04-29T07:45:10.792Z</time></trkpt><trkpt lat="45.032058" lon="9.74252"><ele>56.33333333333333</ele><time>2026-04-29T07:45:11.793Z</time></trkpt><trkpt lat="45.0318937" lon="9.7424551"><ele>57.0</ele><time>2026-04-29T07:45:12.792Z</time></trkpt><trkpt lat="45.0317384" lon="9.7423941"><ele>56.66666666666667</ele><time>2026-04-29T07:45:13.792Z</time></trkpt><trkpt lat="45.0315924" lon="9.7423361"><ele>56.333333333333336</ele><time>2026-04-29T07:45:14.791Z</time></trkpt><trkpt lat="45.0314413" lon="9.7422744"><ele>56.0</ele><time>2026-04-29T07:45:15.792Z</time></trkpt><trkpt lat="45.0312992" lon="9.7422152"><ele>56.0</ele><time>2026-04-29T07:45:16.791Z</time></trkpt><trkpt lat="45.0311605" lon="9.7421581"><ele>56.0</ele><time>2026-04-29T07:45:17.791Z</time></trkpt><trkpt lat="45.031026" lon="9.7421034"><ele>56.0</ele><time>2026-04-29T07:45:18.792Z</time></trkpt><trkpt lat="45.0308906" lon="9.7420491"><ele>56.0</ele><time>2026-04-29T07:45:19.791Z</time></trkpt><trkpt lat="45.0307545" lon="9.7419955"><ele>56.0</ele><time>2026-04-29T07:45:20.792Z</time></trkpt><trkpt lat="45.0306274" lon="9.7419436"><ele>56.0</ele><time>2026-04-29T07:45:21.791Z</time></trkpt><trkpt lat="45.0305044" lon="9.7418925"><ele>56.0</ele><time>2026-04-29T07:45:22.792Z</time></trkpt><trkpt lat="45.0303737" lon="9.7418394"><ele>56.0</ele><time>2026-04-29T07:45:23.818Z</time></trkpt><trkpt lat="45.0302384" lon="9.7417896"><ele>56.0</ele><time>2026-04-29T07:45:24.819Z</time></trkpt><trkpt lat="45.0300977" lon="9.7417513"><ele>56.0</ele><time>2026-04-29T07:45:25.819Z</time></trkpt><trkpt lat="45.0299498" lon="9.7417236"><ele>56.0</ele><time>2026-04-29T07:45:26.818Z</time></trkpt><trkpt lat="45.0297936" lon="9.7417032"><ele>56.0</ele><time>2026-04-29T07:45:27.819Z</time></trkpt><trkpt lat="45.0296347" lon="9.7416875"><ele>56.0</ele><time>2026-04-29T07:45:28.819Z</time></trkpt><trkpt lat="45.0294756" lon="9.7416755"><ele>56.0</ele><time>2026-04-29T07:45:29.819Z</time></trkpt><trkpt lat="45.0293121" lon="9.7416658"><ele>56.0</ele><time>2026-04-29T07:45:30.818Z</time></trkpt><trkpt lat="45.0291398" lon="9.7416469"><ele>56.66666666666667</ele><time>2026-04-29T07:45:31.792Z</time></trkpt><trkpt lat="45.0289706" lon="9.7416164"><ele>57.33333333333333</ele><time>2026-04-29T07:45:32.793Z</time></trkpt><trkpt lat="45.0287979" lon="9.741572"><ele>58.0</ele><time>2026-04-29T07:45:33.794Z</time></trkpt><trkpt lat="45.0286284" lon="9.7415148"><ele>58.0</ele><time>2026-04-29T07:45:34.791Z</time></trkpt><trkpt lat="45.028453" lon="9.7414414"><ele>58.0</ele><time>2026-04-29T07:45:35.792Z</time></trkpt><trkpt lat="45.0282725" lon="9.7413468"><ele>58.0</ele><time>2026-04-29T07:45:36.792Z</time></trkpt><trkpt lat="45.028098" lon="9.7412349"><ele>59.0</ele><time>2026-04-29T07:45:37.792Z</time></trkpt><trkpt lat="45.0279317" lon="9.7411099"><ele>60.0</ele><time>2026-04-29T07:45:38.792Z</time></trkpt><trkpt lat="45.0277633" lon="9.7409626"><ele>61.0</ele><time>2026-04-29T07:45:39.792Z</time></trkpt><trkpt lat="45.0276081" lon="9.7408068"><ele>60.33333333333333</ele><time>2026-04-29T07:45:40.791Z</time></trkpt><trkpt lat="45.0274542" lon="9.7406371"><ele>59.66666666666667</ele><time>2026-04-29T07:45:41.792Z</time></trkpt><trkpt lat="45.0273091" lon="9.7404653"><ele>59.0</ele><time>2026-04-29T07:45:42.792Z</time></trkpt><trkpt lat="45.0271609" lon="9.7402845"><ele>59.333333333333336</ele><time>2026-04-29T07:45:43.792Z</time></trkpt><trkpt lat="45.0270041" lon="9.7400907"><ele>59.66666666666667</ele><time>2026-04-29T07:45:44.791Z</time></trkpt><trkpt lat="45.0268629" lon="9.7399173"><ele>60.0</ele><time>2026-04-29T07:45:45.791Z</time></trkpt><trkpt lat="45.0267308" lon="9.739757"><ele>60.0</ele><time>2026-04-29T07:45:46.792Z</time></trkpt><trkpt lat="45.0266006" lon="9.7395979"><ele>60.0</ele><time>2026-04-29T07:45:47.792Z</time></trkpt><trkpt lat="45.0264823" lon="9.7394508"><ele>60.0</ele><time>2026-04-29T07:45:48.791Z</time></trkpt><trkpt lat="45.0263708" lon="9.7393083"><ele>60.0</ele><time>2026-04-29T07:45:49.792Z</time></trkpt><trkpt lat="45.0262692" lon="9.7391748"><ele>60.0</ele><time>2026-04-29T07:45:50.791Z</time></trkpt><trkpt lat="45.0261713" lon="9.7390396"><ele>60.0</ele><time>2026-04-29T07:45:51.792Z</time></trkpt><trkpt lat="45.0260738" lon="9.7388966"><ele>60.0</ele><time>2026-04-29T07:45:52.792Z</time></trkpt><trkpt lat="45.0259792" lon="9.7387505"><ele>60.0</ele><time>2026-04-29T07:45:53.791Z</time></trkpt><trkpt lat="45.0258833" lon="9.7385991"><ele>60.0</ele><time>2026-04-29T07:45:54.792Z</time></trkpt><trkpt lat="45.025779" lon="9.7384222"><ele>60.0</ele><time>2026-04-29T07:45:55.792Z</time></trkpt><trkpt lat="45.0256775" lon="9.7382299"><ele>59.0</ele><time>2026-04-29T07:45:56.792Z</time></trkpt><trkpt lat="45.025579" lon="9.7380176"><ele>58.0</ele><time>2026-04-29T07:45:57.792Z</time></trkpt><trkpt lat="45.025488" lon="9.737794"><ele>57.0</ele><time>2026-04-29T07:45:58.792Z</time></trkpt><trkpt lat="45.0254008" lon="9.7375443"><ele>56.66666666666667</ele><time>2026-04-29T07:45:59.792Z</time></trkpt><trkpt lat="45.0253158" lon="9.7372824"><ele>56.333333333333336</ele><time>2026-04-29T07:46:00.819Z</time></trkpt><trkpt lat="45.0252456" lon="9.7369963"><ele>56.0</ele><time>2026-04-29T07:46:01.819Z</time></trkpt><trkpt lat="45.0251867" lon="9.7367053"><ele>56.0</ele><time>2026-04-29T07:46:02.819Z</time></trkpt><trkpt lat="45.0251401" lon="9.7364032"><ele>56.0</ele><time>2026-04-29T07:46:03.819Z</time></trkpt><trkpt lat="45.0251083" lon="9.7360953"><ele>56.0</ele><time>2026-04-29T07:46:04.819Z</time></trkpt><trkpt lat="45.0250909" lon="9.7357806"><ele>56.0</ele><time>2026-04-29T07:46:05.819Z</time></trkpt><trkpt lat="45.0250888" lon="9.7354597"><ele>56.0</ele><time>2026-04-29T07:46:06.819Z</time></trkpt><trkpt lat="45.0250983" lon="9.7351354"><ele>56.0</ele><time>2026-04-29T07:46:07.819Z</time></trkpt><trkpt lat="45.0251233" lon="9.7348102"><ele>56.0</ele><time>2026-04-29T07:46:08.819Z</time></trkpt><trkpt lat="45.0251638" lon="9.7344876"><ele>56.0</ele><time>2026-04-29T07:46:09.819Z</time></trkpt><trkpt lat="45.0252196" lon="9.7341722"><ele>56.0</ele><time>2026-04-29T07:46:10.818Z</time></trkpt><trkpt lat="45.0252902" lon="9.7338686"><ele>56.0</ele><time>2026-04-29T07:46:11.819Z</time></trkpt><trkpt lat="45.0253676" lon="9.7335705"><ele>56.0</ele><time>2026-04-29T07:46:12.818Z</time></trkpt><trkpt lat="45.0254481" lon="9.7332707"><ele>56.333333333333336</ele><time>2026-04-29T07:46:13.819Z</time></trkpt><trkpt lat="45.0255249" lon="9.7329813"><ele>56.66666666666667</ele><time>2026-04-29T07:46:14.819Z</time></trkpt><trkpt lat="45.025602" lon="9.7326896"><ele>57.0</ele><time>2026-04-29T07:46:15.819Z</time></trkpt><trkpt lat="45.025676" lon="9.732398"><ele>57.0</ele><time>2026-04-29T07:46:16.819Z</time></trkpt><trkpt lat="45.0257525" lon="9.7321065"><ele>57.0</ele><time>2026-04-29T07:46:17.819Z</time></trkpt><trkpt lat="45.0258297" lon="9.7318133"><ele>57.0</ele><time>2026-04-29T07:46:18.819Z</time></trkpt><trkpt lat="45.0259072" lon="9.7315161"><ele>57.0</ele><time>2026-04-29T07:46:19.819Z</time></trkpt><trkpt lat="45.0259869" lon="9.731213"><ele>57.0</ele><time>2026-04-29T07:46:20.793Z</time></trkpt><trkpt lat="45.0260636" lon="9.7309121"><ele>56.5</ele><time>2026-04-29T07:46:21.793Z</time></trkpt><trkpt lat="45.0261381" lon="9.7306178"><ele>56.0</ele><time>2026-04-29T07:46:22.791Z</time></trkpt><trkpt lat="45.0262158" lon="9.730312"><ele>57.0</ele><time>2026-04-29T07:46:23.792Z</time></trkpt><trkpt lat="45.026298" lon="9.7299951"><ele>58.0</ele><time>2026-04-29T07:46:24.791Z</time></trkpt><trkpt lat="45.0263788" lon="9.7296894"><ele>58.0</ele><time>2026-04-29T07:46:25.792Z</time></trkpt><trkpt lat="45.0264589" lon="9.7293844"><ele>58.0</ele><time>2026-04-29T07:46:26.819Z</time></trkpt><trkpt lat="45.0265402" lon="9.7290776"><ele>58.0</ele><time>2026-04-29T07:46:27.819Z</time></trkpt><trkpt lat="45.0266198" lon="9.7287753"><ele>58.0</ele><time>2026-04-29T07:46:28.819Z</time></trkpt><trkpt lat="45.026698" lon="9.7284761"><ele>57.666666666666664</ele><time>2026-04-29T07:46:29.819Z</time></trkpt><trkpt lat="45.0267753" lon="9.7281863"><ele>57.33333333333333</ele><time>2026-04-29T07:46:30.819Z</time></trkpt><trkpt lat="45.0268559" lon="9.7278989"><ele>57.0</ele><time>2026-04-29T07:46:31.819Z</time></trkpt><trkpt lat="45.0269394" lon="9.7276123"><ele>56.66666666666667</ele><time>2026-04-29T07:46:32.819Z</time></trkpt><trkpt lat="45.0270315" lon="9.7273305"><ele>56.333333333333336</ele><time>2026-04-29T07:46:33.818Z</time></trkpt><trkpt lat="45.0271282" lon="9.727056"><ele>56.0</ele><time>2026-04-29T07:46:34.793Z</time></trkpt><trkpt lat="45.0272374" lon="9.7267751"><ele>56.0</ele><time>2026-04-29T07:46:35.795Z</time></trkpt><trkpt lat="45.0273508" lon="9.7265086"><ele>56.0</ele><time>2026-04-29T07:46:36.792Z</time></trkpt><trkpt lat="45.0274727" lon="9.7262484"><ele>56.0</ele><time>2026-04-29T07:46:37.792Z</time></trkpt><trkpt lat="45.0275969" lon="9.7260039"><ele>56.66666666666667</ele><time>2026-04-29T07:46:38.798Z</time></trkpt><trkpt lat="45.0277306" lon="9.7257581"><ele>57.33333333333333</ele><time>2026-04-29T07:46:39.791Z</time></trkpt><trkpt lat="45.0278753" lon="9.7255107"><ele>58.0</ele><time>2026-04-29T07:46:40.792Z</time></trkpt><trkpt lat="45.0280193" lon="9.7252791"><ele>57.33333333333333</ele><time>2026-04-29T07:46:41.792Z</time></trkpt><trkpt lat="45.0281581" lon="9.7250674"><ele>56.66666666666667</ele><time>2026-04-29T07:46:42.792Z</time></trkpt><trkpt lat="45.0283062" lon="9.7248496"><ele>56.0</ele><time>2026-04-29T07:46:43.792Z</time></trkpt><trkpt lat="45.0284485" lon="9.7246461"><ele>56.0</ele><time>2026-04-29T07:46:44.819Z</time></trkpt><trkpt lat="45.0285895" lon="9.7244371"><ele>56.0</ele><time>2026-04-29T07:46:45.818Z</time></trkpt><trkpt lat="45.0287317" lon="9.7242233"><ele>56.0</ele><time>2026-04-29T07:46:46.819Z</time></trkpt><trkpt lat="45.028873" lon="9.7240045"><ele>56.0</ele><time>2026-04-29T07:46:47.818Z</time></trkpt><trkpt lat="45.0290144" lon="9.7237771"><ele>56.0</ele><time>2026-04-29T07:46:48.819Z</time></trkpt><trkpt lat="45.0291533" lon="9.7235422"><ele>56.0</ele><time>2026-04-29T07:46:49.819Z</time></trkpt><trkpt lat="45.0292888" lon="9.7232994"><ele>56.0</ele><time>2026-04-29T07:46:50.819Z</time></trkpt><trkpt lat="45.0294187" lon="9.7230468"><ele>56.0</ele><time>2026-04-29T07:46:51.819Z</time></trkpt><trkpt lat="45.0295427" lon="9.7227802"><ele>56.0</ele><time>2026-04-29T07:46:52.794Z</time></trkpt><trkpt lat="45.0296564" lon="9.7225079"><ele>56.0</ele><time>2026-04-29T07:46:53.792Z</time></trkpt><trkpt lat="45.0297579" lon="9.7222377"><ele>56.0</ele><time>2026-04-29T07:46:54.793Z</time></trkpt><trkpt lat="45.0298507" lon="9.7219577"><ele>56.0</ele><time>2026-04-29T07:46:55.792Z</time></trkpt><trkpt lat="45.0299344" lon="9.7216658"><ele>55.66666666666667</ele><time>2026-04-29T07:46:56.793Z</time></trkpt><trkpt lat="45.0300064" lon="9.721378"><ele>55.33333333333333</ele><time>2026-04-29T07:46:57.793Z</time></trkpt><trkpt lat="45.0300651" lon="9.7210935"><ele>55.0</ele><time>2026-04-29T07:46:58.793Z</time></trkpt><trkpt lat="45.0301162" lon="9.7207826"><ele>54.666666666666664</ele><time>2026-04-29T07:46:59.793Z</time></trkpt><trkpt lat="45.0301516" lon="9.7204769"><ele>54.33333333333333</ele><time>2026-04-29T07:47:00.793Z</time></trkpt><trkpt lat="45.0301751" lon="9.7201834"><ele>54.0</ele><time>2026-04-29T07:47:01.793Z</time></trkpt><trkpt lat="45.0301902" lon="9.7199156"><ele>54.33333333333333</ele><time>2026-04-29T07:47:02.793Z</time></trkpt><trkpt lat="45.0302003" lon="9.7196516"><ele>54.666666666666664</ele><time>2026-04-29T07:47:03.793Z</time></trkpt><trkpt lat="45.0302074" lon="9.7193878"><ele>55.0</ele><time>2026-04-29T07:47:04.793Z</time></trkpt><trkpt lat="45.0302116" lon="9.7191378"><ele>55.0</ele><time>2026-04-29T07:47:05.792Z</time></trkpt><trkpt lat="45.0302124" lon="9.7188947"><ele>55.0</ele><time>2026-04-29T07:47:06.792Z</time></trkpt><trkpt lat="45.0302106" lon="9.7186364"><ele>55.0</ele><time>2026-04-29T07:47:07.793Z</time></trkpt><trkpt lat="45.0302079" lon="9.7183835"><ele>55.0</ele><time>2026-04-29T07:47:08.793Z</time></trkpt><trkpt lat="45.0302059" lon="9.7181262"><ele>55.0</ele><time>2026-04-29T07:47:09.793Z</time></trkpt><trkpt lat="45.0302042" lon="9.7178715"><ele>55.0</ele><time>2026-04-29T07:47:10.793Z</time></trkpt><trkpt lat="45.0302021" lon="9.7175995"><ele>54.33333333333333</ele><time>2026-04-29T07:47:11.793Z</time></trkpt><trkpt lat="45.0301981" lon="9.7173115"><ele>53.66666666666667</ele><time>2026-04-29T07:47:12.793Z</time></trkpt><trkpt lat="45.0301919" lon="9.7170238"><ele>53.0</ele><time>2026-04-29T07:47:13.793Z</time></trkpt><trkpt lat="45.0301862" lon="9.7167371"><ele>52.66666666666667</ele><time>2026-04-29T07:47:14.792Z</time></trkpt><trkpt lat="45.0301812" lon="9.7164225"><ele>52.33333333333333</ele><time>2026-04-29T07:47:15.792Z</time></trkpt><trkpt lat="45.0301813" lon="9.7161149"><ele>52.0</ele><time>2026-04-29T07:47:16.819Z</time></trkpt><trkpt lat="45.0301775" lon="9.7157974"><ele>53.0</ele><time>2026-04-29T07:47:17.819Z</time></trkpt><trkpt lat="45.0301741" lon="9.7154772"><ele>54.0</ele><time>2026-04-29T07:47:18.819Z</time></trkpt><trkpt lat="45.0301709" lon="9.7151566"><ele>55.0</ele><time>2026-04-29T07:47:19.819Z</time></trkpt><trkpt lat="45.0301657" lon="9.7148312"><ele>56.0</ele><time>2026-04-29T07:47:20.819Z</time></trkpt><trkpt lat="45.0301595" lon="9.7145051"><ele>56.5</ele><time>2026-04-29T07:47:21.819Z</time></trkpt><trkpt lat="45.0301536" lon="9.7141852"><ele>57.0</ele><time>2026-04-29T07:47:22.818Z</time></trkpt><trkpt lat="45.0301447" lon="9.7138645"><ele>56.33333333333333</ele><time>2026-04-29T07:47:23.818Z</time></trkpt><trkpt lat="45.0301381" lon="9.713542"><ele>55.666666666666664</ele><time>2026-04-29T07:47:24.819Z</time></trkpt><trkpt lat="45.0301565" lon="9.7132364"><ele>55.0</ele><time>2026-04-29T07:47:25.793Z</time></trkpt><trkpt lat="45.0301525" lon="9.7129204"><ele>54.0</ele><time>2026-04-29T07:47:26.792Z</time></trkpt><trkpt lat="45.0301509" lon="9.7126047"><ele>53.0</ele><time>2026-04-29T07:47:27.792Z</time></trkpt><trkpt lat="45.0301483" lon="9.7122809"><ele>53.0</ele><time>2026-04-29T07:47:28.792Z</time></trkpt><trkpt lat="45.0301449" lon="9.7119671"><ele>53.0</ele><time>2026-04-29T07:47:29.793Z</time></trkpt><trkpt lat="45.0301399" lon="9.7116642"><ele>53.0</ele><time>2026-04-29T07:47:30.792Z</time></trkpt><trkpt lat="45.0301335" lon="9.7113431"><ele>53.0</ele><time>2026-04-29T07:47:31.791Z</time></trkpt><trkpt lat="45.0301255" lon="9.7110318"><ele>53.0</ele><time>2026-04-29T07:47:32.792Z</time></trkpt><trkpt lat="45.0301148" lon="9.7107185"><ele>53.0</ele><time>2026-04-29T07:47:33.792Z</time></trkpt><trkpt lat="45.0301005" lon="9.7104156"><ele>54.0</ele><time>2026-04-29T07:47:34.792Z</time></trkpt><trkpt lat="45.0300815" lon="9.7101036"><ele>55.0</ele><time>2026-04-29T07:47:35.792Z</time></trkpt><trkpt lat="45.0300575" lon="9.7097812"><ele>55.0</ele><time>2026-04-29T07:47:36.792Z</time></trkpt><trkpt lat="45.0300325" lon="9.7094671"><ele>55.0</ele><time>2026-04-29T07:47:37.791Z</time></trkpt><trkpt lat="45.0300046" lon="9.7091618"><ele>55.0</ele><time>2026-04-29T07:47:38.791Z</time></trkpt><trkpt lat="45.0299716" lon="9.708837"><ele>57.0</ele><time>2026-04-29T07:47:39.792Z</time></trkpt><trkpt lat="45.0299365" lon="9.7085218"><ele>59.0</ele><time>2026-04-29T07:47:40.792Z</time></trkpt><trkpt lat="45.0298975" lon="9.7082081"><ele>59.0</ele><time>2026-04-29T07:47:41.792Z</time></trkpt><trkpt lat="45.0298564" lon="9.707905"><ele>59.0</ele><time>2026-04-29T07:47:42.792Z</time></trkpt><trkpt lat="45.0298102" lon="9.707593"><ele>59.0</ele><time>2026-04-29T07:47:43.792Z</time></trkpt><trkpt lat="45.0297584" lon="9.7072729"><ele>58.333333333333336</ele><time>2026-04-29T07:47:44.791Z</time></trkpt><trkpt lat="45.0297041" lon="9.7069646"><ele>57.66666666666667</ele><time>2026-04-29T07:47:45.792Z</time></trkpt><trkpt lat="45.029648" lon="9.7066662"><ele>57.0</ele><time>2026-04-29T07:47:46.791Z</time></trkpt><trkpt lat="45.0295836" lon="9.7063476"><ele>57.0</ele><time>2026-04-29T07:47:47.792Z</time></trkpt><trkpt lat="45.0295172" lon="9.706036"><ele>57.0</ele><time>2026-04-29T07:47:48.791Z</time></trkpt><trkpt lat="45.0294465" lon="9.7057241"><ele>57.0</ele><time>2026-04-29T07:47:49.791Z</time></trkpt><trkpt lat="45.029373" lon="9.7054209"><ele>57.0</ele><time>2026-04-29T07:47:50.791Z</time></trkpt><trkpt lat="45.029292" lon="9.7051084"><ele>56.0</ele><time>2026-04-29T07:47:51.792Z</time></trkpt><trkpt lat="45.0292039" lon="9.7047867"><ele>55.0</ele><time>2026-04-29T07:47:52.792Z</time></trkpt><trkpt lat="45.0291147" lon="9.7044744"><ele>56.5</ele><time>2026-04-29T07:47:53.792Z</time></trkpt><trkpt lat="45.0290252" lon="9.7041721"><ele>58.0</ele><time>2026-04-29T07:47:54.792Z</time></trkpt><trkpt lat="45.0289271" lon="9.7038491"><ele>60.5</ele><time>2026-04-29T07:47:55.792Z</time></trkpt><trkpt lat="45.0288299" lon="9.7035369"><ele>63.0</ele><time>2026-04-29T07:47:56.792Z</time></trkpt><trkpt lat="45.0287308" lon="9.7032251"><ele>63.0</ele><time>2026-04-29T07:47:57.792Z</time></trkpt><trkpt lat="45.0286342" lon="9.7029238"><ele>63.0</ele><time>2026-04-29T07:47:58.791Z</time></trkpt><trkpt lat="45.0285348" lon="9.7026154"><ele>62.0</ele><time>2026-04-29T07:47:59.792Z</time></trkpt><trkpt lat="45.0284363" lon="9.7023073"><ele>61.0</ele><time>2026-04-29T07:48:00.792Z</time></trkpt><trkpt lat="45.0283447" lon="9.702021"><ele>60.0</ele><time>2026-04-29T07:48:01.792Z</time></trkpt><trkpt lat="45.0282572" lon="9.7017512"><ele>59.0</ele><time>2026-04-29T07:48:02.792Z</time></trkpt><trkpt lat="45.0281646" lon="9.7014672"><ele>58.0</ele><time>2026-04-29T07:48:03.792Z</time></trkpt><trkpt lat="45.0280749" lon="9.7011941"><ele>58.33333333333333</ele><time>2026-04-29T07:48:04.792Z</time></trkpt><trkpt lat="45.0279863" lon="9.7009216"><ele>58.66666666666667</ele><time>2026-04-29T07:48:05.792Z</time></trkpt><trkpt lat="45.0279014" lon="9.7006599"><ele>59.0</ele><time>2026-04-29T07:48:06.792Z</time></trkpt><trkpt lat="45.0278166" lon="9.7003971"><ele>61.0</ele><time>2026-04-29T07:48:07.792Z</time></trkpt><trkpt lat="45.0277314" lon="9.7001323"><ele>63.0</ele><time>2026-04-29T07:48:08.792Z</time></trkpt><trkpt lat="45.0276525" lon="9.6998838"><ele>65.0</ele><time>2026-04-29T07:48:09.791Z</time></trkpt><trkpt lat="45.0275794" lon="9.6996486"><ele>64.33333333333334</ele><time>2026-04-29T07:48:10.792Z</time></trkpt><trkpt lat="45.0275032" lon="9.6994032"><ele>63.66666666666667</ele><time>2026-04-29T07:48:11.792Z</time></trkpt><trkpt lat="45.0274317" lon="9.699165"><ele>63.0</ele><time>2026-04-29T07:48:12.792Z</time></trkpt><trkpt lat="45.0273618" lon="9.6989207"><ele>62.0</ele><time>2026-04-29T07:48:13.791Z</time></trkpt><trkpt lat="45.027295" lon="9.6986722"><ele>61.0</ele><time>2026-04-29T07:48:14.791Z</time></trkpt><trkpt lat="45.027226" lon="9.6984031"><ele>60.0</ele><time>2026-04-29T07:48:15.792Z</time></trkpt><trkpt lat="45.0271562" lon="9.6981086"><ele>60.0</ele><time>2026-04-29T07:48:16.792Z</time></trkpt><trkpt lat="45.0270908" lon="9.6978176"><ele>60.0</ele><time>2026-04-29T07:48:17.819Z</time></trkpt><trkpt lat="45.0270308" lon="9.6975106"><ele>60.0</ele><time>2026-04-29T07:48:18.819Z</time></trkpt><trkpt lat="45.026977" lon="9.6971943"><ele>62.0</ele><time>2026-04-29T07:48:19.819Z</time></trkpt><trkpt lat="45.0269304" lon="9.6968691"><ele>64.0</ele><time>2026-04-29T07:48:20.818Z</time></trkpt><trkpt lat="45.0268929" lon="9.696536"><ele>64.0</ele><time>2026-04-29T07:48:21.819Z</time></trkpt><trkpt lat="45.0268661" lon="9.6961963"><ele>64.0</ele><time>2026-04-29T07:48:22.819Z</time></trkpt><trkpt lat="45.0268506" lon="9.6958529"><ele>63.0</ele><time>2026-04-29T07:48:23.819Z</time></trkpt><trkpt lat="45.026844" lon="9.6955044"><ele>62.0</ele><time>2026-04-29T07:48:24.819Z</time></trkpt><trkpt lat="45.0268475" lon="9.6951528"><ele>62.0</ele><time>2026-04-29T07:48:25.819Z</time></trkpt><trkpt lat="45.0268532" lon="9.6948029"><ele>62.0</ele><time>2026-04-29T07:48:26.791Z</time></trkpt><trkpt lat="45.0268704" lon="9.6944383"><ele>64.0</ele><time>2026-04-29T07:48:27.795Z</time></trkpt><trkpt lat="45.0268911" lon="9.6940907"><ele>66.0</ele><time>2026-04-29T07:48:28.794Z</time></trkpt><trkpt lat="45.0269157" lon="9.6937377"><ele>66.0</ele><time>2026-04-29T07:48:29.794Z</time></trkpt><trkpt lat="45.0269416" lon="9.6934032"><ele>66.0</ele><time>2026-04-29T07:48:30.793Z</time></trkpt><trkpt lat="45.0269701" lon="9.6930516"><ele>65.5</ele><time>2026-04-29T07:48:31.792Z</time></trkpt><trkpt lat="45.0270017" lon="9.6926895"><ele>65.0</ele><time>2026-04-29T07:48:32.793Z</time></trkpt><trkpt lat="45.0270329" lon="9.6923284"><ele>64.0</ele><time>2026-04-29T07:48:33.793Z</time></trkpt><trkpt lat="45.0271723" lon="9.6909747"><ele>64.0</ele><time>2026-04-29T07:48:37.818Z</time></trkpt><trkpt lat="45.0271924" lon="9.6906519"><ele>64.0</ele><time>2026-04-29T07:48:38.818Z</time></trkpt><trkpt lat="45.0272183" lon="9.6903015"><ele>63.0</ele><time>2026-04-29T07:48:39.818Z</time></trkpt><trkpt lat="45.0272368" lon="9.6899687"><ele>62.0</ele><time>2026-04-29T07:48:40.792Z</time></trkpt><trkpt lat="45.0272796" lon="9.6896251"><ele>62.0</ele><time>2026-04-29T07:48:41.819Z</time></trkpt><trkpt lat="45.0273096" lon="9.6892898"><ele>62.0</ele><time>2026-04-29T07:48:42.819Z</time></trkpt><trkpt lat="45.0273389" lon="9.6889538"><ele>62.0</ele><time>2026-04-29T07:48:43.818Z</time></trkpt><trkpt lat="45.0273673" lon="9.6886198"><ele>62.0</ele><time>2026-04-29T07:48:44.818Z</time></trkpt><trkpt lat="45.0273951" lon="9.6882857"><ele>62.0</ele><time>2026-04-29T07:48:45.819Z</time></trkpt><trkpt lat="45.0274217" lon="9.6879539"><ele>62.0</ele><time>2026-04-29T07:48:46.819Z</time></trkpt><trkpt lat="45.0274468" lon="9.6876246"><ele>62.66666666666667</ele><time>2026-04-29T07:48:47.819Z</time></trkpt><trkpt lat="45.0274721" lon="9.6873037"><ele>63.33333333333333</ele><time>2026-04-29T07:48:48.819Z</time></trkpt><trkpt lat="45.0274948" lon="9.6869959"><ele>64.0</ele><time>2026-04-29T07:48:49.793Z</time></trkpt><trkpt lat="45.0275197" lon="9.6867161"><ele>64.33333333333333</ele><time>2026-04-29T07:48:50.792Z</time></trkpt><trkpt lat="45.0275446" lon="9.6864358"><ele>64.66666666666667</ele><time>2026-04-29T07:48:51.819Z</time></trkpt><trkpt lat="45.0275649" lon="9.6861726"><ele>65.0</ele><time>2026-04-29T07:48:52.818Z</time></trkpt><trkpt lat="45.027586" lon="9.6859243"><ele>64.33333333333334</ele><time>2026-04-29T07:48:53.819Z</time></trkpt><trkpt lat="45.0276084" lon="9.6856891"><ele>63.66666666666667</ele><time>2026-04-29T07:48:54.819Z</time></trkpt><trkpt lat="45.0276327" lon="9.6854682"><ele>63.0</ele><time>2026-04-29T07:48:55.819Z</time></trkpt><trkpt lat="45.0276681" lon="9.6852563"><ele>62.5</ele><time>2026-04-29T07:48:56.819Z</time></trkpt><trkpt lat="45.0277121" lon="9.6850571"><ele>62.0</ele><time>2026-04-29T07:48:57.818Z</time></trkpt><trkpt lat="45.0277675" lon="9.6848713"><ele>61.5</ele><time>2026-04-29T07:48:58.819Z</time></trkpt><trkpt lat="45.027828" lon="9.6847013"><ele>61.0</ele><time>2026-04-29T07:48:59.819Z</time></trkpt><trkpt lat="45.0278868" lon="9.684554"><ele>61.4</ele><time>2026-04-29T07:49:00.819Z</time></trkpt><trkpt lat="45.0279442" lon="9.684424"><ele>61.8</ele><time>2026-04-29T07:49:01.819Z</time></trkpt><trkpt lat="45.0279942" lon="9.6843112"><ele>62.199999999999996</ele><time>2026-04-29T07:49:02.818Z</time></trkpt><trkpt lat="45.028039" lon="9.6842118"><ele>62.599999999999994</ele><time>2026-04-29T07:49:03.819Z</time></trkpt><trkpt lat="45.0280789" lon="9.6841267"><ele>63.0</ele><time>2026-04-29T07:49:04.818Z</time></trkpt><trkpt lat="45.0281397" lon="9.6839954"><ele>63.0</ele><time>2026-04-29T07:49:06.819Z</time></trkpt><trkpt lat="45.0282313" lon="9.683879"><ele>63.0</ele><time>2026-04-29T07:49:08.819Z</time></trkpt><trkpt lat="45.0282943" lon="9.6838389"><ele>63.0</ele><time>2026-04-29T07:49:09.819Z</time></trkpt><trkpt lat="45.0283768" lon="9.6838081"><ele>63.0</ele><time>2026-04-29T07:49:10.797Z</time></trkpt><trkpt lat="45.0284669" lon="9.683775"><ele>63.0</ele><time>2026-04-29T07:49:11.792Z</time></trkpt><trkpt lat="45.0285643" lon="9.6837263"><ele>63.0</ele><time>2026-04-29T07:49:12.793Z</time></trkpt><trkpt lat="45.0286555" lon="9.6836576"><ele>63.0</ele><time>2026-04-29T07:49:13.793Z</time></trkpt><trkpt lat="45.0287469" lon="9.6835636"><ele>63.0</ele><time>2026-04-29T07:49:14.794Z</time></trkpt><trkpt lat="45.0288337" lon="9.6834466"><ele>63.0</ele><time>2026-04-29T07:49:15.792Z</time></trkpt><trkpt lat="45.0289015" lon="9.683322"><ele>63.0</ele><time>2026-04-29T07:49:16.791Z</time></trkpt><trkpt lat="45.0289573" lon="9.6831767"><ele>63.5</ele><time>2026-04-29T07:49:17.792Z</time></trkpt><trkpt lat="45.0289978" lon="9.6830139"><ele>64.0</ele><time>2026-04-29T07:49:18.791Z</time></trkpt><trkpt lat="45.0290186" lon="9.6828357"><ele>64.5</ele><time>2026-04-29T07:49:19.792Z</time></trkpt><trkpt lat="45.0290167" lon="9.6826444"><ele>65.0</ele><time>2026-04-29T07:49:20.792Z</time></trkpt><trkpt lat="45.0289904" lon="9.6824676"><ele>65.25</ele><time>2026-04-29T07:49:21.792Z</time></trkpt><trkpt lat="45.0289405" lon="9.6822962"><ele>65.5</ele><time>2026-04-29T07:49:22.792Z</time></trkpt><trkpt lat="45.028868" lon="9.682136"><ele>65.75</ele><time>2026-04-29T07:49:23.791Z</time></trkpt><trkpt lat="45.0287827" lon="9.6820012"><ele>66.0</ele><time>2026-04-29T07:49:24.792Z</time></trkpt><trkpt lat="45.0286792" lon="9.6818815"><ele>66.0</ele><time>2026-04-29T07:49:25.792Z</time></trkpt><trkpt lat="45.0285606" lon="9.6817909"><ele>66.0</ele><time>2026-04-29T07:49:26.792Z</time></trkpt><trkpt lat="45.0284286" lon="9.681733"><ele>66.0</ele><time>2026-04-29T07:49:27.792Z</time></trkpt><trkpt lat="45.0282847" lon="9.6817084"><ele>66.0</ele><time>2026-04-29T07:49:28.792Z</time></trkpt><trkpt lat="45.0281464" lon="9.6817178"><ele>66.0</ele><time>2026-04-29T07:49:29.791Z</time></trkpt><trkpt lat="45.0280079" lon="9.6817552"><ele>66.0</ele><time>2026-04-29T07:49:30.792Z</time></trkpt><trkpt lat="45.0278689" lon="9.6818042"><ele>66.0</ele><time>2026-04-29T07:49:31.792Z</time></trkpt><trkpt lat="45.0277418" lon="9.6818354"><ele>66.0</ele><time>2026-04-29T07:49:32.792Z</time></trkpt><trkpt lat="45.0276086" lon="9.681838"><ele>66.0</ele><time>2026-04-29T07:49:33.791Z</time></trkpt><trkpt lat="45.0274805" lon="9.6818017"><ele>66.0</ele><time>2026-04-29T07:49:34.791Z</time></trkpt><trkpt lat="45.0273648" lon="9.6817246"><ele>66.0</ele><time>2026-04-29T07:49:35.792Z</time></trkpt><trkpt lat="45.0272593" lon="9.6816101"><ele>66.0</ele><time>2026-04-29T07:49:36.791Z</time></trkpt><trkpt lat="45.0271704" lon="9.6814753"><ele>66.0</ele><time>2026-04-29T07:49:37.792Z</time></trkpt><trkpt lat="45.0270762" lon="9.6813244"><ele>66.0</ele><time>2026-04-29T07:49:38.792Z</time></trkpt><trkpt lat="45.0269662" lon="9.6811713"><ele>66.0</ele><time>2026-04-29T07:49:39.792Z</time></trkpt><trkpt lat="45.0268507" lon="9.6810356"><ele>66.0</ele><time>2026-04-29T07:49:40.792Z</time></trkpt><trkpt lat="45.0267245" lon="9.6809068"><ele>66.33333333333333</ele><time>2026-04-29T07:49:41.819Z</time></trkpt><trkpt lat="45.0265901" lon="9.6807968"><ele>66.66666666666666</ele><time>2026-04-29T07:49:42.819Z</time></trkpt><trkpt lat="45.0264467" lon="9.6807063"><ele>67.0</ele><time>2026-04-29T07:49:43.818Z</time></trkpt><trkpt lat="45.0262989" lon="9.6806312"><ele>67.0</ele><time>2026-04-29T07:49:44.819Z</time></trkpt><trkpt lat="45.0261591" lon="9.6805622"><ele>67.0</ele><time>2026-04-29T07:49:45.819Z</time></trkpt><trkpt lat="45.0260231" lon="9.6804956"><ele>67.0</ele><time>2026-04-29T07:49:46.819Z</time></trkpt><trkpt lat="45.0258903" lon="9.6804312"><ele>67.0</ele><time>2026-04-29T07:49:47.818Z</time></trkpt><trkpt lat="45.0257616" lon="9.6803687"><ele>67.5</ele><time>2026-04-29T07:49:48.819Z</time></trkpt><trkpt lat="45.0256322" lon="9.6803058"><ele>68.0</ele><time>2026-04-29T07:49:49.818Z</time></trkpt><trkpt lat="45.0255036" lon="9.6802424"><ele>68.5</ele><time>2026-04-29T07:49:50.819Z</time></trkpt><trkpt lat="45.025376" lon="9.6801791"><ele>69.0</ele><time>2026-04-29T07:49:51.819Z</time></trkpt><trkpt lat="45.0252549" lon="9.6801184"><ele>69.0</ele><time>2026-04-29T07:49:52.819Z</time></trkpt><trkpt lat="45.0251333" lon="9.6800598"><ele>69.0</ele><time>2026-04-29T07:49:53.819Z</time></trkpt><trkpt lat="45.0250142" lon="9.6800067"><ele>69.0</ele><time>2026-04-29T07:49:54.819Z</time></trkpt><trkpt lat="45.0248999" lon="9.6799516"><ele>69.0</ele><time>2026-04-29T07:49:55.819Z</time></trkpt><trkpt lat="45.0247903" lon="9.6799004"><ele>68.8</ele><time>2026-04-29T07:49:56.819Z</time></trkpt><trkpt lat="45.0246875" lon="9.6798479"><ele>68.60000000000001</ele><time>2026-04-29T07:49:57.819Z</time></trkpt><trkpt lat="45.0245869" lon="9.6797987"><ele>68.4</ele><time>2026-04-29T07:49:58.819Z</time></trkpt><trkpt lat="45.0244833" lon="9.6797507"><ele>68.2</ele><time>2026-04-29T07:49:59.819Z</time></trkpt><trkpt lat="45.0243782" lon="9.6797015"><ele>68.0</ele><time>2026-04-29T07:50:00.819Z</time></trkpt><trkpt lat="45.0242717" lon="9.6796529"><ele>68.0</ele><time>2026-04-29T07:50:01.819Z</time></trkpt><trkpt lat="45.0241625" lon="9.6795948"><ele>68.0</ele><time>2026-04-29T07:50:02.818Z</time></trkpt><trkpt lat="45.0240521" lon="9.6795353"><ele>68.0</ele><time>2026-04-29T07:50:03.819Z</time></trkpt><trkpt lat="45.0239466" lon="9.6794771"><ele>68.0</ele><time>2026-04-29T07:50:04.818Z</time></trkpt><trkpt lat="45.0238428" lon="9.6794189"><ele>68.2</ele><time>2026-04-29T07:50:05.819Z</time></trkpt><trkpt lat="45.0237381" lon="9.6793639"><ele>68.4</ele><time>2026-04-29T07:50:06.819Z</time></trkpt><trkpt lat="45.0236342" lon="9.6793104"><ele>68.60000000000001</ele><time>2026-04-29T07:50:07.819Z</time></trkpt><trkpt lat="45.023528" lon="9.6792629"><ele>68.8</ele><time>2026-04-29T07:50:08.819Z</time></trkpt><trkpt lat="45.0234257" lon="9.6792225"><ele>69.0</ele><time>2026-04-29T07:50:09.818Z</time></trkpt><trkpt lat="45.0233268" lon="9.6791899"><ele>69.4</ele><time>2026-04-29T07:50:10.819Z</time></trkpt><trkpt lat="45.0232333" lon="9.6791593"><ele>69.80000000000001</ele><time>2026-04-29T07:50:11.819Z</time></trkpt><trkpt lat="45.0231415" lon="9.6791315"><ele>70.19999999999999</ele><time>2026-04-29T07:50:12.819Z</time></trkpt><trkpt lat="45.0230454" lon="9.6791014"><ele>70.6</ele><time>2026-04-29T07:50:13.819Z</time></trkpt><trkpt lat="45.022947" lon="9.6790693"><ele>71.0</ele><time>2026-04-29T07:50:14.819Z</time></trkpt><trkpt lat="45.0228453" lon="9.6790387"><ele>71.0</ele><time>2026-04-29T07:50:15.819Z</time></trkpt><trkpt lat="45.0227426" lon="9.6790096"><ele>71.0</ele><time>2026-04-29T07:50:16.819Z</time></trkpt><trkpt lat="45.0226346" lon="9.6789761"><ele>71.0</ele><time>2026-04-29T07:50:17.819Z</time></trkpt><trkpt lat="45.0225205" lon="9.6789388"><ele>71.0</ele><time>2026-04-29T07:50:18.819Z</time></trkpt><trkpt lat="45.0224039" lon="9.6789017"><ele>71.0</ele><time>2026-04-29T07:50:19.819Z</time></trkpt><trkpt lat="45.0222878" lon="9.6788582"><ele>71.0</ele><time>2026-04-29T07:50:20.818Z</time></trkpt><trkpt lat="45.0221694" lon="9.6788071"><ele>71.0</ele><time>2026-04-29T07:50:21.819Z</time></trkpt><trkpt lat="45.0220528" lon="9.6787494"><ele>71.0</ele><time>2026-04-29T07:50:22.819Z</time></trkpt><trkpt lat="45.0219339" lon="9.6786875"><ele>71.0</ele><time>2026-04-29T07:50:23.819Z</time></trkpt><trkpt lat="45.0218161" lon="9.678625"><ele>71.0</ele><time>2026-04-29T07:50:24.819Z</time></trkpt><trkpt lat="45.0217009" lon="9.6785608"><ele>71.0</ele><time>2026-04-29T07:50:25.819Z</time></trkpt><trkpt lat="45.0215849" lon="9.6784967"><ele>71.0</ele><time>2026-04-29T07:50:26.819Z</time></trkpt><trkpt lat="45.0214701" lon="9.678433"><ele>71.25</ele><time>2026-04-29T07:50:27.818Z</time></trkpt><trkpt lat="45.0213566" lon="9.6783713"><ele>71.5</ele><time>2026-04-29T07:50:28.819Z</time></trkpt><trkpt lat="45.021243" lon="9.6783077"><ele>71.75</ele><time>2026-04-29T07:50:29.818Z</time></trkpt><trkpt lat="45.0211263" lon="9.678242"><ele>72.0</ele><time>2026-04-29T07:50:30.819Z</time></trkpt><trkpt lat="45.0210085" lon="9.6781767"><ele>72.0</ele><time>2026-04-29T07:50:31.819Z</time></trkpt><trkpt lat="45.0208951" lon="9.6781119"><ele>72.0</ele><time>2026-04-29T07:50:32.819Z</time></trkpt><trkpt lat="45.0207869" lon="9.6780516"><ele>72.0</ele><time>2026-04-29T07:50:33.819Z</time></trkpt><trkpt lat="45.0206846" lon="9.6779951"><ele>72.0</ele><time>2026-04-29T07:50:34.819Z</time></trkpt><trkpt lat="45.0205881" lon="9.6779405"><ele>72.0</ele><time>2026-04-29T07:50:35.819Z</time></trkpt><trkpt lat="45.0204906" lon="9.6778871"><ele>72.0</ele><time>2026-04-29T07:50:36.818Z</time></trkpt><trkpt lat="45.0203919" lon="9.677828"><ele>72.0</ele><time>2026-04-29T07:50:37.819Z</time></trkpt><trkpt lat="45.0202849" lon="9.6777708"><ele>72.0</ele><time>2026-04-29T07:50:38.818Z</time></trkpt><trkpt lat="45.0201691" lon="9.6777082"><ele>72.25</ele><time>2026-04-29T07:50:39.819Z</time></trkpt><trkpt lat="45.0200501" lon="9.6776438"><ele>72.5</ele><time>2026-04-29T07:50:40.819Z</time></trkpt><trkpt lat="45.0199379" lon="9.6775817"><ele>72.75</ele><time>2026-04-29T07:50:41.819Z</time></trkpt><trkpt lat="45.0198298" lon="9.6775233"><ele>73.0</ele><time>2026-04-29T07:50:42.819Z</time></trkpt><trkpt lat="45.0197258" lon="9.6774654"><ele>73.0</ele><time>2026-04-29T07:50:43.819Z</time></trkpt><trkpt lat="45.0196215" lon="9.677408"><ele>73.0</ele><time>2026-04-29T07:50:44.818Z</time></trkpt><trkpt lat="45.0195168" lon="9.677349"><ele>73.0</ele><time>2026-04-29T07:50:45.818Z</time></trkpt><trkpt lat="45.0194088" lon="9.6772888"><ele>73.0</ele><time>2026-04-29T07:50:46.819Z</time></trkpt><trkpt lat="45.0192987" lon="9.677229"><ele>73.0</ele><time>2026-04-29T07:50:47.819Z</time></trkpt><trkpt lat="45.0191882" lon="9.677167"><ele>73.0</ele><time>2026-04-29T07:50:48.819Z</time></trkpt><trkpt lat="45.0190736" lon="9.6771035"><ele>73.0</ele><time>2026-04-29T07:50:49.818Z</time></trkpt><trkpt lat="45.0189581" lon="9.6770407"><ele>73.0</ele><time>2026-04-29T07:50:50.819Z</time></trkpt><trkpt lat="45.018845" lon="9.6769797"><ele>72.5</ele><time>2026-04-29T07:50:51.819Z</time></trkpt><trkpt lat="45.0187354" lon="9.6769193"><ele>72.0</ele><time>2026-04-29T07:50:52.819Z</time></trkpt><trkpt lat="45.0186304" lon="9.6768597"><ele>71.5</ele><time>2026-04-29T07:50:53.819Z</time></trkpt><trkpt lat="45.0185266" lon="9.6768026"><ele>71.0</ele><time>2026-04-29T07:50:54.819Z</time></trkpt><trkpt lat="45.0184252" lon="9.676745"><ele>71.0</ele><time>2026-04-29T07:50:55.818Z</time></trkpt><trkpt lat="45.0183295" lon="9.6766863"><ele>71.0</ele><time>2026-04-29T07:50:56.818Z</time></trkpt><trkpt lat="45.0182351" lon="9.676631"><ele>71.0</ele><time>2026-04-29T07:50:57.819Z</time></trkpt><trkpt lat="45.0181437" lon="9.6765795"><ele>71.0</ele><time>2026-04-29T07:50:58.818Z</time></trkpt><trkpt lat="45.0180473" lon="9.6765257"><ele>71.0</ele><time>2026-04-29T07:50:59.819Z</time></trkpt><trkpt lat="45.0179452" lon="9.6764708"><ele>71.5</ele><time>2026-04-29T07:51:00.819Z</time></trkpt><trkpt lat="45.0178358" lon="9.6764117"><ele>72.0</ele><time>2026-04-29T07:51:01.819Z</time></trkpt><trkpt lat="45.0177172" lon="9.6763495"><ele>72.5</ele><time>2026-04-29T07:51:02.819Z</time></trkpt><trkpt lat="45.0175884" lon="9.6762829"><ele>73.0</ele><time>2026-04-29T07:51:03.819Z</time></trkpt><trkpt lat="45.0174573" lon="9.676212"><ele>73.0</ele><time>2026-04-29T07:51:04.819Z</time></trkpt><trkpt lat="45.0173256" lon="9.6761408"><ele>73.0</ele><time>2026-04-29T07:51:05.819Z</time></trkpt><trkpt lat="45.0171907" lon="9.6760681"><ele>73.0</ele><time>2026-04-29T07:51:06.819Z</time></trkpt><trkpt lat="45.0170527" lon="9.6759982"><ele>73.0</ele><time>2026-04-29T07:51:07.819Z</time></trkpt><trkpt lat="45.0169097" lon="9.6759307"><ele>73.0</ele><time>2026-04-29T07:51:08.819Z</time></trkpt><trkpt lat="45.0167629" lon="9.6758604"><ele>73.0</ele><time>2026-04-29T07:51:09.819Z</time></trkpt><trkpt lat="45.0166143" lon="9.6757891"><ele>73.0</ele><time>2026-04-29T07:51:10.819Z</time></trkpt><trkpt lat="45.016459" lon="9.6757169"><ele>73.33333333333333</ele><time>2026-04-29T07:51:11.819Z</time></trkpt><trkpt lat="45.0163016" lon="9.6756444"><ele>73.66666666666667</ele><time>2026-04-29T07:51:12.819Z</time></trkpt><trkpt lat="45.016142" lon="9.6755713"><ele>74.0</ele><time>2026-04-29T07:51:13.819Z</time></trkpt><trkpt lat="45.0159787" lon="9.6754966"><ele>73.0</ele><time>2026-04-29T07:51:14.819Z</time></trkpt><trkpt lat="45.0158147" lon="9.6754189"><ele>72.0</ele><time>2026-04-29T07:51:15.819Z</time></trkpt><trkpt lat="45.0156469" lon="9.6753441"><ele>71.0</ele><time>2026-04-29T07:51:16.819Z</time></trkpt><trkpt lat="45.0154785" lon="9.6752666"><ele>71.0</ele><time>2026-04-29T07:51:17.819Z</time></trkpt><trkpt lat="45.0153079" lon="9.6751879"><ele>71.0</ele><time>2026-04-29T07:51:18.819Z</time></trkpt><trkpt lat="45.0151372" lon="9.6751085"><ele>71.0</ele><time>2026-04-29T07:51:19.819Z</time></trkpt><trkpt lat="45.0149633" lon="9.6750262"><ele>71.66666666666667</ele><time>2026-04-29T07:51:20.819Z</time></trkpt><trkpt lat="45.0147857" lon="9.674945"><ele>72.33333333333333</ele><time>2026-04-29T07:51:21.819Z</time></trkpt><trkpt lat="45.0146022" lon="9.6748587"><ele>73.0</ele><time>2026-04-29T07:51:22.819Z</time></trkpt><trkpt lat="45.0144156" lon="9.6747709"><ele>73.0</ele><time>2026-04-29T07:51:23.818Z</time></trkpt><trkpt lat="45.0142263" lon="9.6746798"><ele>73.0</ele><time>2026-04-29T07:51:24.818Z</time></trkpt><trkpt lat="45.0140385" lon="9.674592"><ele>73.0</ele><time>2026-04-29T07:51:25.819Z</time></trkpt><trkpt lat="45.013857" lon="9.674505"><ele>73.33333333333333</ele><time>2026-04-29T07:51:26.819Z</time></trkpt><trkpt lat="45.013681" lon="9.6744226"><ele>73.66666666666667</ele><time>2026-04-29T07:51:27.819Z</time></trkpt><trkpt lat="45.0135142" lon="9.6743428"><ele>74.0</ele><time>2026-04-29T07:51:28.819Z</time></trkpt><trkpt lat="45.013351" lon="9.6742648"><ele>73.66666666666667</ele><time>2026-04-29T07:51:29.819Z</time></trkpt><trkpt lat="45.0131926" lon="9.6741913"><ele>73.33333333333333</ele><time>2026-04-29T07:51:30.819Z</time></trkpt><trkpt lat="45.0130401" lon="9.6741178"><ele>73.0</ele><time>2026-04-29T07:51:31.818Z</time></trkpt><trkpt lat="45.0128932" lon="9.6740424"><ele>73.0</ele><time>2026-04-29T07:51:32.819Z</time></trkpt><trkpt lat="45.0127503" lon="9.6739713"><ele>73.0</ele><time>2026-04-29T07:51:33.819Z</time></trkpt><trkpt lat="45.0126109" lon="9.6739017"><ele>73.0</ele><time>2026-04-29T07:51:34.819Z</time></trkpt><trkpt lat="45.0124772" lon="9.6738322"><ele>73.0</ele><time>2026-04-29T07:51:35.819Z</time></trkpt><trkpt lat="45.0123478" lon="9.6737643"><ele>73.25</ele><time>2026-04-29T07:51:36.819Z</time></trkpt><trkpt lat="45.0122185" lon="9.6737039"><ele>73.5</ele><time>2026-04-29T07:51:37.819Z</time></trkpt><trkpt lat="45.0120953" lon="9.6736431"><ele>73.75</ele><time>2026-04-29T07:51:38.819Z</time></trkpt><trkpt lat="45.0119753" lon="9.673583"><ele>74.0</ele><time>2026-04-29T07:51:39.819Z</time></trkpt><trkpt lat="45.0118584" lon="9.6735217"><ele>74.25</ele><time>2026-04-29T07:51:40.819Z</time></trkpt><trkpt lat="45.0117457" lon="9.6734635"><ele>74.5</ele><time>2026-04-29T07:51:41.818Z</time></trkpt><trkpt lat="45.0116364" lon="9.6734101"><ele>74.75</ele><time>2026-04-29T07:51:42.819Z</time></trkpt><trkpt lat="45.0115323" lon="9.6733595"><ele>75.0</ele><time>2026-04-29T07:51:43.819Z</time></trkpt><trkpt lat="45.0114279" lon="9.6733104"><ele>75.16666666666667</ele><time>2026-04-29T07:51:44.818Z</time></trkpt><trkpt lat="45.0113316" lon="9.6732622"><ele>75.33333333333333</ele><time>2026-04-29T07:51:45.819Z</time></trkpt><trkpt lat="45.011244" lon="9.6732193"><ele>75.5</ele><time>2026-04-29T07:51:46.819Z</time></trkpt><trkpt lat="45.0111619" lon="9.6731759"><ele>75.66666666666666</ele><time>2026-04-29T07:51:47.819Z</time></trkpt><trkpt lat="45.0110831" lon="9.6731356"><ele>75.83333333333333</ele><time>2026-04-29T07:51:48.818Z</time></trkpt><trkpt lat="45.0110116" lon="9.6730995"><ele>76.0</ele><time>2026-04-29T07:51:49.819Z</time></trkpt><trkpt lat="45.0109373" lon="9.6730668"><ele>76.0</ele><time>2026-04-29T07:51:50.819Z</time></trkpt><trkpt lat="45.0108645" lon="9.6730362"><ele>76.0</ele><time>2026-04-29T07:51:51.819Z</time></trkpt><trkpt lat="45.0107982" lon="9.6730146"><ele>76.0</ele><time>2026-04-29T07:51:52.819Z</time></trkpt><trkpt lat="45.0106888" lon="9.6729845"><ele>76.0</ele><time>2026-04-29T07:51:54.819Z</time></trkpt><trkpt lat="45.0105798" lon="9.6729036"><ele>76.0</ele><time>2026-04-29T07:51:56.818Z</time></trkpt><trkpt lat="45.0105154" lon="9.6728504"><ele>75.6</ele><time>2026-04-29T07:51:57.819Z</time></trkpt><trkpt lat="45.0104321" lon="9.6728255"><ele>75.19999999999999</ele><time>2026-04-29T07:51:58.819Z</time></trkpt><trkpt lat="45.0103303" lon="9.6728073"><ele>74.80000000000001</ele><time>2026-04-29T07:51:59.819Z</time></trkpt><trkpt lat="45.0102257" lon="9.6727621"><ele>74.4</ele><time>2026-04-29T07:52:00.819Z</time></trkpt><trkpt lat="45.0101202" lon="9.6726985"><ele>74.0</ele><time>2026-04-29T07:52:01.819Z</time></trkpt><trkpt lat="45.0100121" lon="9.672623"><ele>74.0</ele><time>2026-04-29T07:52:02.819Z</time></trkpt><trkpt lat="45.0098946" lon="9.672548"><ele>74.0</ele><time>2026-04-29T07:52:03.819Z</time></trkpt><trkpt lat="45.0097668" lon="9.6724761"><ele>74.0</ele><time>2026-04-29T07:52:04.819Z</time></trkpt><trkpt lat="45.0096377" lon="9.6724092"><ele>74.0</ele><time>2026-04-29T07:52:05.819Z</time></trkpt><trkpt lat="45.0095057" lon="9.6723432"><ele>74.0</ele><time>2026-04-29T07:52:06.818Z</time></trkpt><trkpt lat="45.009372" lon="9.6722747"><ele>74.0</ele><time>2026-04-29T07:52:07.819Z</time></trkpt><trkpt lat="45.0092343" lon="9.6722059"><ele>74.0</ele><time>2026-04-29T07:52:08.818Z</time></trkpt><trkpt lat="45.0090963" lon="9.6721349"><ele>74.0</ele><time>2026-04-29T07:52:09.819Z</time></trkpt><trkpt lat="45.0089556" lon="9.6720624"><ele>74.66666666666667</ele><time>2026-04-29T07:52:10.819Z</time></trkpt><trkpt lat="45.0088116" lon="9.6719913"><ele>75.33333333333333</ele><time>2026-04-29T07:52:11.818Z</time></trkpt><trkpt lat="45.0086692" lon="9.671917"><ele>76.0</ele><time>2026-04-29T07:52:12.819Z</time></trkpt><trkpt lat="45.0085244" lon="9.6718469"><ele>76.0</ele><time>2026-04-29T07:52:13.819Z</time></trkpt><trkpt lat="45.0083831" lon="9.6717761"><ele>76.0</ele><time>2026-04-29T07:52:14.819Z</time></trkpt><trkpt lat="45.0082404" lon="9.6717042"><ele>76.0</ele><time>2026-04-29T07:52:15.819Z</time></trkpt><trkpt lat="45.0080972" lon="9.6716342"><ele>76.33333333333333</ele><time>2026-04-29T07:52:16.819Z</time></trkpt><trkpt lat="45.007954" lon="9.6715637"><ele>76.66666666666667</ele><time>2026-04-29T07:52:17.819Z</time></trkpt><trkpt lat="45.0078111" lon="9.6714959"><ele>77.0</ele><time>2026-04-29T07:52:18.819Z</time></trkpt><trkpt lat="45.0076678" lon="9.6714304"><ele>77.0</ele><time>2026-04-29T07:52:19.818Z</time></trkpt><trkpt lat="45.0075263" lon="9.671365"><ele>77.0</ele><time>2026-04-29T07:52:20.819Z</time></trkpt><trkpt lat="45.0073825" lon="9.6713006"><ele>77.0</ele><time>2026-04-29T07:52:21.819Z</time></trkpt><trkpt lat="45.0072409" lon="9.6712378"><ele>77.0</ele><time>2026-04-29T07:52:22.818Z</time></trkpt><trkpt lat="45.0070973" lon="9.6711732"><ele>77.0</ele><time>2026-04-29T07:52:23.818Z</time></trkpt><trkpt lat="45.0069516" lon="9.6711086"><ele>77.0</ele><time>2026-04-29T07:52:24.819Z</time></trkpt><trkpt lat="45.0068033" lon="9.6710443"><ele>77.0</ele><time>2026-04-29T07:52:25.819Z</time></trkpt><trkpt lat="45.0066546" lon="9.6709733"><ele>77.0</ele><time>2026-04-29T07:52:26.819Z</time></trkpt><trkpt lat="45.0065038" lon="9.6709062"><ele>77.0</ele><time>2026-04-29T07:52:27.819Z</time></trkpt><trkpt lat="45.00635" lon="9.6708375"><ele>77.0</ele><time>2026-04-29T07:52:28.819Z</time></trkpt><trkpt lat="45.0061962" lon="9.6707683"><ele>77.0</ele><time>2026-04-29T07:52:29.819Z</time></trkpt><trkpt lat="45.0060375" lon="9.6706962"><ele>77.0</ele><time>2026-04-29T07:52:30.819Z</time></trkpt><trkpt lat="45.0058747" lon="9.670624"><ele>77.0</ele><time>2026-04-29T07:52:31.818Z</time></trkpt><trkpt lat="45.0057107" lon="9.6705497"><ele>77.0</ele><time>2026-04-29T07:52:32.819Z</time></trkpt><trkpt lat="45.0055407" lon="9.6704693"><ele>77.0</ele><time>2026-04-29T07:52:33.819Z</time></trkpt><trkpt lat="45.0053735" lon="9.6703901"><ele>77.0</ele><time>2026-04-29T07:52:34.819Z</time></trkpt><trkpt lat="45.0052101" lon="9.6703119"><ele>77.66666666666667</ele><time>2026-04-29T07:52:35.819Z</time></trkpt><trkpt lat="45.0050519" lon="9.670233"><ele>78.33333333333333</ele><time>2026-04-29T07:52:36.819Z</time></trkpt><trkpt lat="45.0048979" lon="9.6701575"><ele>79.0</ele><time>2026-04-29T07:52:37.819Z</time></trkpt><trkpt lat="45.0047428" lon="9.67008"><ele>79.0</ele><time>2026-04-29T07:52:38.818Z</time></trkpt><trkpt lat="45.004584" lon="9.6700025"><ele>79.0</ele><time>2026-04-29T07:52:39.819Z</time></trkpt><trkpt lat="45.0044256" lon="9.6699226"><ele>79.0</ele><time>2026-04-29T07:52:40.818Z</time></trkpt><trkpt lat="45.0042675" lon="9.6698453"><ele>79.0</ele><time>2026-04-29T07:52:41.818Z</time></trkpt><trkpt lat="45.0041085" lon="9.6697658"><ele>79.0</ele><time>2026-04-29T07:52:42.819Z</time></trkpt><trkpt lat="45.0039523" lon="9.6696888"><ele>79.0</ele><time>2026-04-29T07:52:43.819Z</time></trkpt><trkpt lat="45.0038021" lon="9.6696165"><ele>79.0</ele><time>2026-04-29T07:52:44.819Z</time></trkpt><trkpt lat="45.0036576" lon="9.6695462"><ele>79.0</ele><time>2026-04-29T07:52:45.819Z</time></trkpt><trkpt lat="45.0035168" lon="9.6694762"><ele>79.0</ele><time>2026-04-29T07:52:46.819Z</time></trkpt><trkpt lat="45.0033925" lon="9.6694131"><ele>79.0</ele><time>2026-04-29T07:52:47.819Z</time></trkpt><trkpt lat="45.0032797" lon="9.6693585"><ele>79.2</ele><time>2026-04-29T07:52:48.819Z</time></trkpt><trkpt lat="45.0031729" lon="9.6693093"><ele>79.4</ele><time>2026-04-29T07:52:49.819Z</time></trkpt><trkpt lat="45.0030728" lon="9.669261"><ele>79.6</ele><time>2026-04-29T07:52:50.818Z</time></trkpt><trkpt lat="45.0029734" lon="9.6692141"><ele>79.8</ele><time>2026-04-29T07:52:51.819Z</time></trkpt><trkpt lat="45.0028778" lon="9.6691654"><ele>80.0</ele><time>2026-04-29T07:52:52.819Z</time></trkpt><trkpt lat="45.0027847" lon="9.6691168"><ele>80.0</ele><time>2026-04-29T07:52:53.818Z</time></trkpt><trkpt lat="45.0026861" lon="9.6690686"><ele>80.0</ele><time>2026-04-29T07:52:54.819Z</time></trkpt><trkpt lat="45.0025809" lon="9.6690171"><ele>80.0</ele><time>2026-04-29T07:52:55.819Z</time></trkpt><trkpt lat="45.002467" lon="9.6689636"><ele>80.0</ele><time>2026-04-29T07:52:56.819Z</time></trkpt><trkpt lat="45.0023459" lon="9.6689031"><ele>80.25</ele><time>2026-04-29T07:52:57.818Z</time></trkpt><trkpt lat="45.0022205" lon="9.6688451"><ele>80.5</ele><time>2026-04-29T07:52:58.819Z</time></trkpt><trkpt lat="45.0020924" lon="9.6687872"><ele>80.75</ele><time>2026-04-29T07:52:59.818Z</time></trkpt><trkpt lat="45.0019638" lon="9.6687289"><ele>81.0</ele><time>2026-04-29T07:53:00.819Z</time></trkpt><trkpt lat="45.0018342" lon="9.6686642"><ele>81.0</ele><time>2026-04-29T07:53:01.819Z</time></trkpt><trkpt lat="45.0017034" lon="9.6686023"><ele>81.0</ele><time>2026-04-29T07:53:02.819Z</time></trkpt><trkpt lat="45.0015677" lon="9.6685393"><ele>81.0</ele><time>2026-04-29T07:53:03.819Z</time></trkpt><trkpt lat="45.0014343" lon="9.6684743"><ele>81.0</ele><time>2026-04-29T07:53:04.819Z</time></trkpt><trkpt lat="45.001305" lon="9.6684148"><ele>80.75</ele><time>2026-04-29T07:53:05.819Z</time></trkpt><trkpt lat="45.0011795" lon="9.6683567"><ele>80.5</ele><time>2026-04-29T07:53:06.819Z</time></trkpt><trkpt lat="45.0010598" lon="9.6683008"><ele>80.25</ele><time>2026-04-29T07:53:07.819Z</time></trkpt><trkpt lat="45.0009418" lon="9.6682439"><ele>80.0</ele><time>2026-04-29T07:53:08.819Z</time></trkpt><trkpt lat="45.0008296" lon="9.6681869"><ele>80.0</ele><time>2026-04-29T07:53:09.819Z</time></trkpt><trkpt lat="45.0007184" lon="9.6681306"><ele>80.0</ele><time>2026-04-29T07:53:10.819Z</time></trkpt><trkpt lat="45.0006023" lon="9.6680756"><ele>80.0</ele><time>2026-04-29T07:53:11.819Z</time></trkpt><trkpt lat="45.0004847" lon="9.668019"><ele>80.0</ele><time>2026-04-29T07:53:12.819Z</time></trkpt><trkpt lat="45.0003614" lon="9.6679596"><ele>80.0</ele><time>2026-04-29T07:53:13.819Z</time></trkpt><trkpt lat="45.0002342" lon="9.6678996"><ele>80.0</ele><time>2026-04-29T07:53:14.819Z</time></trkpt><trkpt lat="45.0001042" lon="9.6678396"><ele>80.0</ele><time>2026-04-29T07:53:15.819Z</time></trkpt><trkpt lat="44.9999713" lon="9.6677713"><ele>80.0</ele><time>2026-04-29T07:53:16.819Z</time></trkpt><trkpt lat="44.9998329" lon="9.6677043"><ele>79.66666666666667</ele><time>2026-04-29T07:53:17.819Z</time></trkpt><trkpt lat="44.9996898" lon="9.6676386"><ele>79.33333333333333</ele><time>2026-04-29T07:53:18.818Z</time></trkpt><trkpt lat="44.9995444" lon="9.6675669"><ele>79.0</ele><time>2026-04-29T07:53:19.819Z</time></trkpt><trkpt lat="44.9993969" lon="9.6674954"><ele>79.0</ele><time>2026-04-29T07:53:20.819Z</time></trkpt><trkpt lat="44.9992489" lon="9.6674246"><ele>79.0</ele><time>2026-04-29T07:53:21.819Z</time></trkpt><trkpt lat="44.9991006" lon="9.6673557"><ele>79.0</ele><time>2026-04-29T07:53:22.819Z</time></trkpt><trkpt lat="44.9989598" lon="9.6672863"><ele>79.25</ele><time>2026-04-29T07:53:23.819Z</time></trkpt><trkpt lat="44.9988187" lon="9.6672158"><ele>79.5</ele><time>2026-04-29T07:53:24.819Z</time></trkpt><trkpt lat="44.9986791" lon="9.6671446"><ele>79.75</ele><time>2026-04-29T07:53:25.819Z</time></trkpt><trkpt lat="44.9985395" lon="9.6670716"><ele>80.0</ele><time>2026-04-29T07:53:26.819Z</time></trkpt><trkpt lat="44.9984026" lon="9.6669986"><ele>80.25</ele><time>2026-04-29T07:53:27.819Z</time></trkpt><trkpt lat="44.9982706" lon="9.6669273"><ele>80.5</ele><time>2026-04-29T07:53:28.819Z</time></trkpt><trkpt lat="44.998143" lon="9.6668574"><ele>80.75</ele><time>2026-04-29T07:53:29.819Z</time></trkpt><trkpt lat="44.998017" lon="9.6667866"><ele>81.0</ele><time>2026-04-29T07:53:30.819Z</time></trkpt><trkpt lat="44.9978937" lon="9.6667165"><ele>81.0</ele><time>2026-04-29T07:53:31.819Z</time></trkpt><trkpt lat="44.9977719" lon="9.6666439"><ele>81.0</ele><time>2026-04-29T07:53:32.819Z</time></trkpt><trkpt lat="44.9976473" lon="9.6665675"><ele>81.0</ele><time>2026-04-29T07:53:33.819Z</time></trkpt><trkpt lat="44.9975244" lon="9.6664906"><ele>81.0</ele><time>2026-04-29T07:53:34.819Z</time></trkpt><trkpt lat="44.997406" lon="9.6664165"><ele>81.5</ele><time>2026-04-29T07:53:35.819Z</time></trkpt><trkpt lat="44.9972891" lon="9.6663455"><ele>82.0</ele><time>2026-04-29T07:53:36.819Z</time></trkpt><trkpt lat="44.9971766" lon="9.6662731"><ele>82.5</ele><time>2026-04-29T07:53:37.819Z</time></trkpt><trkpt lat="44.9970674" lon="9.6661969"><ele>83.0</ele><time>2026-04-29T07:53:38.818Z</time></trkpt><trkpt lat="44.9969643" lon="9.6661242"><ele>83.0</ele><time>2026-04-29T07:53:39.819Z</time></trkpt><trkpt lat="44.9968627" lon="9.6660548"><ele>83.0</ele><time>2026-04-29T07:53:40.819Z</time></trkpt><trkpt lat="44.9967578" lon="9.6659859"><ele>83.0</ele><time>2026-04-29T07:53:41.818Z</time></trkpt><trkpt lat="44.9966502" lon="9.6659174"><ele>83.0</ele><time>2026-04-29T07:53:42.819Z</time></trkpt><trkpt lat="44.9965403" lon="9.6658543"><ele>83.5</ele><time>2026-04-29T07:53:43.819Z</time></trkpt><trkpt lat="44.9964263" lon="9.665802"><ele>84.0</ele><time>2026-04-29T07:53:44.819Z</time></trkpt><trkpt lat="44.9963127" lon="9.6657505"><ele>84.5</ele><time>2026-04-29T07:53:45.819Z</time></trkpt><trkpt lat="44.9961958" lon="9.665714"><ele>85.0</ele><time>2026-04-29T07:53:46.819Z</time></trkpt><trkpt lat="44.9960786" lon="9.6656743"><ele>85.0</ele><time>2026-04-29T07:53:47.819Z</time></trkpt><trkpt lat="44.995964" lon="9.6656364"><ele>85.0</ele><time>2026-04-29T07:53:48.819Z</time></trkpt><trkpt lat="44.9958495" lon="9.6655974"><ele>85.0</ele><time>2026-04-29T07:53:49.818Z</time></trkpt><trkpt lat="44.9957319" lon="9.6655567"><ele>85.0</ele><time>2026-04-29T07:53:50.819Z</time></trkpt><trkpt lat="44.995613" lon="9.6655146"><ele>84.75</ele><time>2026-04-29T07:53:51.819Z</time></trkpt><trkpt lat="44.9954905" lon="9.6654689"><ele>84.5</ele><time>2026-04-29T07:53:52.818Z</time></trkpt><trkpt lat="44.9953646" lon="9.6654191"><ele>84.25</ele><time>2026-04-29T07:53:53.819Z</time></trkpt><trkpt lat="44.995236" lon="9.6653619"><ele>84.0</ele><time>2026-04-29T07:53:54.819Z</time></trkpt><trkpt lat="44.9951047" lon="9.6653012"><ele>84.25</ele><time>2026-04-29T07:53:55.818Z</time></trkpt><trkpt lat="44.9949685" lon="9.6652373"><ele>84.5</ele><time>2026-04-29T07:53:56.819Z</time></trkpt><trkpt lat="44.9948282" lon="9.6651741"><ele>84.75</ele><time>2026-04-29T07:53:57.819Z</time></trkpt><trkpt lat="44.9946839" lon="9.6651104"><ele>85.0</ele><time>2026-04-29T07:53:58.818Z</time></trkpt><trkpt lat="44.9945352" lon="9.665044"><ele>85.0</ele><time>2026-04-29T07:53:59.819Z</time></trkpt><trkpt lat="44.9943828" lon="9.6649742"><ele>85.0</ele><time>2026-04-29T07:54:00.819Z</time></trkpt><trkpt lat="44.994226" lon="9.6649037"><ele>85.0</ele><time>2026-04-29T07:54:01.818Z</time></trkpt><trkpt lat="44.9940664" lon="9.6648321"><ele>85.0</ele><time>2026-04-29T07:54:02.819Z</time></trkpt><trkpt lat="44.9939047" lon="9.6647595"><ele>85.0</ele><time>2026-04-29T07:54:03.819Z</time></trkpt><trkpt lat="44.9937413" lon="9.6646863"><ele>85.0</ele><time>2026-04-29T07:54:04.819Z</time></trkpt><trkpt lat="44.9935761" lon="9.6646137"><ele>85.0</ele><time>2026-04-29T07:54:05.819Z</time></trkpt><trkpt lat="44.9934098" lon="9.6645418"><ele>85.0</ele><time>2026-04-29T07:54:06.819Z</time></trkpt><trkpt lat="44.9932422" lon="9.6644703"><ele>85.0</ele><time>2026-04-29T07:54:07.819Z</time></trkpt><trkpt lat="44.9930727" lon="9.664403"><ele>85.0</ele><time>2026-04-29T07:54:08.819Z</time></trkpt><trkpt lat="44.9929009" lon="9.664334"><ele>85.0</ele><time>2026-04-29T07:54:09.818Z</time></trkpt><trkpt lat="44.9927304" lon="9.6642667"><ele>85.0</ele><time>2026-04-29T07:54:10.818Z</time></trkpt><trkpt lat="44.9925612" lon="9.6642029"><ele>85.0</ele><time>2026-04-29T07:54:11.819Z</time></trkpt><trkpt lat="44.9923959" lon="9.6641403"><ele>85.0</ele><time>2026-04-29T07:54:12.818Z</time></trkpt><trkpt lat="44.9922329" lon="9.664075"><ele>85.0</ele><time>2026-04-29T07:54:13.819Z</time></trkpt><trkpt lat="44.9920671" lon="9.6640141"><ele>85.0</ele><time>2026-04-29T07:54:14.819Z</time></trkpt><trkpt lat="44.9919002" lon="9.6639538"><ele>85.0</ele><time>2026-04-29T07:54:15.818Z</time></trkpt><trkpt lat="44.9917316" lon="9.6638921"><ele>85.0</ele><time>2026-04-29T07:54:16.819Z</time></trkpt><trkpt lat="44.9915634" lon="9.6638293"><ele>85.0</ele><time>2026-04-29T07:54:17.819Z</time></trkpt><trkpt lat="44.9913956" lon="9.6637656"><ele>85.0</ele><time>2026-04-29T07:54:18.819Z</time></trkpt><trkpt lat="44.9912236" lon="9.6637055"><ele>85.0</ele><time>2026-04-29T07:54:19.819Z</time></trkpt><trkpt lat="44.9910527" lon="9.6636446"><ele>85.0</ele><time>2026-04-29T07:54:20.818Z</time></trkpt><trkpt lat="44.9908795" lon="9.6635833"><ele>85.0</ele><time>2026-04-29T07:54:21.819Z</time></trkpt><trkpt lat="44.9907044" lon="9.6635174"><ele>85.0</ele><time>2026-04-29T07:54:22.819Z</time></trkpt><trkpt lat="44.9905286" lon="9.663454"><ele>84.0</ele><time>2026-04-29T07:54:23.819Z</time></trkpt><trkpt lat="44.9903518" lon="9.6633942"><ele>83.0</ele><time>2026-04-29T07:54:24.819Z</time></trkpt><trkpt lat="44.9901722" lon="9.6633308"><ele>82.0</ele><time>2026-04-29T07:54:25.819Z</time></trkpt><trkpt lat="44.9899931" lon="9.6632637"><ele>82.0</ele><time>2026-04-29T07:54:26.818Z</time></trkpt><trkpt lat="44.9898118" lon="9.6631963"><ele>82.0</ele><time>2026-04-29T07:54:27.819Z</time></trkpt><trkpt lat="44.9896293" lon="9.6631292"><ele>82.0</ele><time>2026-04-29T07:54:28.819Z</time></trkpt><trkpt lat="44.9894429" lon="9.6630616"><ele>82.0</ele><time>2026-04-29T07:54:29.819Z</time></trkpt><trkpt lat="44.9892563" lon="9.6629924"><ele>82.0</ele><time>2026-04-29T07:54:30.819Z</time></trkpt><trkpt lat="44.9890719" lon="9.6629167"><ele>82.0</ele><time>2026-04-29T07:54:31.819Z</time></trkpt><trkpt lat="44.9888896" lon="9.662835"><ele>82.66666666666666</ele><time>2026-04-29T07:54:32.819Z</time></trkpt><trkpt lat="44.9887128" lon="9.6627491"><ele>83.33333333333333</ele><time>2026-04-29T07:54:33.819Z</time></trkpt><trkpt lat="44.9885356" lon="9.6626579"><ele>84.0</ele><time>2026-04-29T07:54:34.819Z</time></trkpt><trkpt lat="44.9883576" lon="9.6625629"><ele>84.33333333333333</ele><time>2026-04-29T07:54:35.819Z</time></trkpt><trkpt lat="44.9881815" lon="9.6624667"><ele>84.66666666666666</ele><time>2026-04-29T07:54:36.818Z</time></trkpt><trkpt lat="44.9880091" lon="9.6623724"><ele>85.0</ele><time>2026-04-29T07:54:37.819Z</time></trkpt><trkpt lat="44.9878388" lon="9.6622806"><ele>85.0</ele><time>2026-04-29T07:54:38.819Z</time></trkpt><trkpt lat="44.9876694" lon="9.66219"><ele>85.0</ele><time>2026-04-29T07:54:39.819Z</time></trkpt><trkpt lat="44.9874986" lon="9.6620968"><ele>85.0</ele><time>2026-04-29T07:54:40.819Z</time></trkpt><trkpt lat="44.9873239" lon="9.6620047"><ele>85.33333333333333</ele><time>2026-04-29T07:54:41.819Z</time></trkpt><trkpt lat="44.9871484" lon="9.6619115"><ele>85.66666666666667</ele><time>2026-04-29T07:54:42.819Z</time></trkpt><trkpt lat="44.98697" lon="9.6618162"><ele>86.0</ele><time>2026-04-29T07:54:43.819Z</time></trkpt><trkpt lat="44.9867897" lon="9.6617199"><ele>86.33333333333334</ele><time>2026-04-29T07:54:44.819Z</time></trkpt><trkpt lat="44.9866085" lon="9.6616212"><ele>86.66666666666667</ele><time>2026-04-29T07:54:45.818Z</time></trkpt><trkpt lat="44.9864259" lon="9.6615237"><ele>87.0</ele><time>2026-04-29T07:54:46.819Z</time></trkpt><trkpt lat="44.9862378" lon="9.6614312"><ele>87.0</ele><time>2026-04-29T07:54:47.819Z</time></trkpt><trkpt lat="44.9860487" lon="9.6613435"><ele>87.0</ele><time>2026-04-29T07:54:48.818Z</time></trkpt><trkpt lat="44.9858537" lon="9.6612655"><ele>87.0</ele><time>2026-04-29T07:54:49.819Z</time></trkpt><trkpt lat="44.9856563" lon="9.6611958"><ele>87.0</ele><time>2026-04-29T07:54:50.818Z</time></trkpt><trkpt lat="44.9854574" lon="9.6611314"><ele>87.0</ele><time>2026-04-29T07:54:51.819Z</time></trkpt><trkpt lat="44.9852553" lon="9.6610715"><ele>87.0</ele><time>2026-04-29T07:54:52.819Z</time></trkpt><trkpt lat="44.9850543" lon="9.6610142"><ele>87.33333333333333</ele><time>2026-04-29T07:54:53.818Z</time></trkpt><trkpt lat="44.9848536" lon="9.6609572"><ele>87.66666666666666</ele><time>2026-04-29T07:54:54.819Z</time></trkpt><trkpt lat="44.9846545" lon="9.6609009"><ele>88.0</ele><time>2026-04-29T07:54:55.818Z</time></trkpt><trkpt lat="44.9844555" lon="9.6608458"><ele>88.0</ele><time>2026-04-29T07:54:56.818Z</time></trkpt><trkpt lat="44.984256" lon="9.6607911"><ele>88.0</ele><time>2026-04-29T07:54:57.819Z</time></trkpt><trkpt lat="44.984057" lon="9.6607356"><ele>88.0</ele><time>2026-04-29T07:54:58.819Z</time></trkpt><trkpt lat="44.9838567" lon="9.6606821"><ele>87.66666666666666</ele><time>2026-04-29T07:54:59.818Z</time></trkpt><trkpt lat="44.9836555" lon="9.6606276"><ele>87.33333333333333</ele><time>2026-04-29T07:55:00.819Z</time></trkpt><trkpt lat="44.9834548" lon="9.6605715"><ele>87.0</ele><time>2026-04-29T07:55:01.819Z</time></trkpt><trkpt lat="44.9832562" lon="9.6605158"><ele>87.66666666666667</ele><time>2026-04-29T07:55:02.819Z</time></trkpt><trkpt lat="44.983057" lon="9.6604587"><ele>88.33333333333334</ele><time>2026-04-29T07:55:03.819Z</time></trkpt><trkpt lat="44.9828564" lon="9.6604019"><ele>89.0</ele><time>2026-04-29T07:55:04.819Z</time></trkpt><trkpt lat="44.9826535" lon="9.660347"><ele>89.0</ele><time>2026-04-29T07:55:05.819Z</time></trkpt><trkpt lat="44.9824582" lon="9.6602944"><ele>89.0</ele><time>2026-04-29T07:55:06.818Z</time></trkpt><trkpt lat="44.9822625" lon="9.6602399"><ele>89.0</ele><time>2026-04-29T07:55:07.819Z</time></trkpt><trkpt lat="44.9820669" lon="9.6601865"><ele>89.0</ele><time>2026-04-29T07:55:08.818Z</time></trkpt><trkpt lat="44.9818715" lon="9.6601332"><ele>89.0</ele><time>2026-04-29T07:55:09.819Z</time></trkpt><trkpt lat="44.9816746" lon="9.660079"><ele>89.0</ele><time>2026-04-29T07:55:10.819Z</time></trkpt><trkpt lat="44.9814754" lon="9.6600245"><ele>89.0</ele><time>2026-04-29T07:55:11.819Z</time></trkpt><trkpt lat="44.9812718" lon="9.6599677"><ele>89.0</ele><time>2026-04-29T07:55:12.819Z</time></trkpt><trkpt lat="44.9810625" lon="9.6599104"><ele>89.0</ele><time>2026-04-29T07:55:13.819Z</time></trkpt><trkpt lat="44.9808511" lon="9.6598528"><ele>89.0</ele><time>2026-04-29T07:55:14.819Z</time></trkpt><trkpt lat="44.98064" lon="9.6597946"><ele>89.0</ele><time>2026-04-29T07:55:15.819Z</time></trkpt><trkpt lat="44.9804278" lon="9.659734"><ele>89.0</ele><time>2026-04-29T07:55:16.819Z</time></trkpt><trkpt lat="44.9802223" lon="9.6596763"><ele>89.0</ele><time>2026-04-29T07:55:17.818Z</time></trkpt><trkpt lat="44.9800159" lon="9.6596181"><ele>89.0</ele><time>2026-04-29T07:55:18.819Z</time></trkpt><trkpt lat="44.9798097" lon="9.6595606"><ele>89.0</ele><time>2026-04-29T07:55:19.819Z</time></trkpt><trkpt lat="44.9796027" lon="9.6595022"><ele>89.33333333333334</ele><time>2026-04-29T07:55:20.819Z</time></trkpt><trkpt lat="44.9793964" lon="9.6594461"><ele>89.66666666666667</ele><time>2026-04-29T07:55:21.819Z</time></trkpt><trkpt lat="44.9791905" lon="9.6593897"><ele>90.0</ele><time>2026-04-29T07:55:22.819Z</time></trkpt><trkpt lat="44.9789847" lon="9.6593349"><ele>90.66666666666667</ele><time>2026-04-29T07:55:23.819Z</time></trkpt><trkpt lat="44.9787788" lon="9.6592805"><ele>91.33333333333334</ele><time>2026-04-29T07:55:24.819Z</time></trkpt><trkpt lat="44.9785706" lon="9.6592246"><ele>92.0</ele><time>2026-04-29T07:55:25.818Z</time></trkpt><trkpt lat="44.9783589" lon="9.6591652"><ele>91.33333333333334</ele><time>2026-04-29T07:55:26.819Z</time></trkpt><trkpt lat="44.9781427" lon="9.659104"><ele>90.66666666666667</ele><time>2026-04-29T07:55:27.819Z</time></trkpt><trkpt lat="44.9779222" lon="9.6590418"><ele>90.0</ele><time>2026-04-29T07:55:28.818Z</time></trkpt><trkpt lat="44.9776975" lon="9.6589799"><ele>90.5</ele><time>2026-04-29T07:55:29.818Z</time></trkpt><trkpt lat="44.9774732" lon="9.6589182"><ele>91.0</ele><time>2026-04-29T07:55:30.819Z</time></trkpt><trkpt lat="44.9772489" lon="9.6588564"><ele>91.0</ele><time>2026-04-29T07:55:31.819Z</time></trkpt><trkpt lat="44.9770264" lon="9.6587967"><ele>91.0</ele><time>2026-04-29T07:55:32.819Z</time></trkpt><trkpt lat="44.9768115" lon="9.6587379"><ele>91.0</ele><time>2026-04-29T07:55:33.818Z</time></trkpt><trkpt lat="44.976599" lon="9.6586769"><ele>91.33333333333333</ele><time>2026-04-29T07:55:34.818Z</time></trkpt><trkpt lat="44.9763885" lon="9.6586173"><ele>91.66666666666667</ele><time>2026-04-29T07:55:35.819Z</time></trkpt><trkpt lat="44.9761867" lon="9.6585616"><ele>92.0</ele><time>2026-04-29T07:55:36.818Z</time></trkpt><trkpt lat="44.9759942" lon="9.6585032"><ele>92.33333333333334</ele><time>2026-04-29T07:55:37.819Z</time></trkpt><trkpt lat="44.9758038" lon="9.6584379"><ele>92.66666666666667</ele><time>2026-04-29T07:55:38.819Z</time></trkpt><trkpt lat="44.9756103" lon="9.6583639"><ele>93.0</ele><time>2026-04-29T07:55:39.819Z</time></trkpt><trkpt lat="44.9754183" lon="9.658278"><ele>93.0</ele><time>2026-04-29T07:55:40.819Z</time></trkpt><trkpt lat="44.9752263" lon="9.6581849"><ele>93.0</ele><time>2026-04-29T07:55:41.819Z</time></trkpt><trkpt lat="44.9750361" lon="9.6580881"><ele>93.0</ele><time>2026-04-29T07:55:42.819Z</time></trkpt><trkpt lat="44.974847" lon="9.6579926"><ele>93.33333333333333</ele><time>2026-04-29T07:55:43.819Z</time></trkpt><trkpt lat="44.9746588" lon="9.6578993"><ele>93.66666666666666</ele><time>2026-04-29T07:55:44.819Z</time></trkpt><trkpt lat="44.9744728" lon="9.6578063"><ele>94.0</ele><time>2026-04-29T07:55:45.819Z</time></trkpt><trkpt lat="44.9742965" lon="9.6577187"><ele>93.66666666666666</ele><time>2026-04-29T07:55:46.819Z</time></trkpt><trkpt lat="44.9741328" lon="9.6576332"><ele>93.33333333333333</ele><time>2026-04-29T07:55:47.819Z</time></trkpt><trkpt lat="44.9739844" lon="9.6575577"><ele>93.0</ele><time>2026-04-29T07:55:48.819Z</time></trkpt><trkpt lat="44.9738419" lon="9.6574867"><ele>93.0</ele><time>2026-04-29T07:55:49.818Z</time></trkpt><trkpt lat="44.9737064" lon="9.6574168"><ele>93.0</ele><time>2026-04-29T07:55:50.819Z</time></trkpt><trkpt lat="44.9735779" lon="9.65735"><ele>93.0</ele><time>2026-04-29T07:55:51.819Z</time></trkpt><trkpt lat="44.9734514" lon="9.6572856"><ele>93.0</ele><time>2026-04-29T07:55:52.819Z</time></trkpt><trkpt lat="44.9733231" lon="9.6572151"><ele>93.5</ele><time>2026-04-29T07:55:53.819Z</time></trkpt><trkpt lat="44.973191" lon="9.6571453"><ele>94.0</ele><time>2026-04-29T07:55:54.819Z</time></trkpt><trkpt lat="44.973054" lon="9.6570733"><ele>94.5</ele><time>2026-04-29T07:55:55.819Z</time></trkpt><trkpt lat="44.9729147" lon="9.6570012"><ele>95.0</ele><time>2026-04-29T07:55:56.819Z</time></trkpt><trkpt lat="44.9727743" lon="9.6569247"><ele>95.0</ele><time>2026-04-29T07:55:57.819Z</time></trkpt><trkpt lat="44.9726326" lon="9.656853"><ele>95.0</ele><time>2026-04-29T07:55:58.819Z</time></trkpt><trkpt lat="44.9724972" lon="9.6567818"><ele>95.0</ele><time>2026-04-29T07:55:59.819Z</time></trkpt><trkpt lat="44.9723583" lon="9.6567178"><ele>95.0</ele><time>2026-04-29T07:56:00.819Z</time></trkpt><trkpt lat="44.9722194" lon="9.6566436"><ele>95.33333333333334</ele><time>2026-04-29T07:56:01.818Z</time></trkpt><trkpt lat="44.9720787" lon="9.6565719"><ele>95.66666666666667</ele><time>2026-04-29T07:56:02.819Z</time></trkpt><trkpt lat="44.9719373" lon="9.6565004"><ele>96.0</ele><time>2026-04-29T07:56:03.819Z</time></trkpt><trkpt lat="44.971792" lon="9.6564289"><ele>96.33333333333334</ele><time>2026-04-29T07:56:04.818Z</time></trkpt><trkpt lat="44.9716402" lon="9.6563529"><ele>96.66666666666667</ele><time>2026-04-29T07:56:05.819Z</time></trkpt><trkpt lat="44.9714869" lon="9.6562718"><ele>97.0</ele><time>2026-04-29T07:56:06.819Z</time></trkpt><trkpt lat="44.9713297" lon="9.6561877"><ele>96.66666666666667</ele><time>2026-04-29T07:56:07.819Z</time></trkpt><trkpt lat="44.9711702" lon="9.6561061"><ele>96.33333333333334</ele><time>2026-04-29T07:56:08.818Z</time></trkpt><trkpt lat="44.9710073" lon="9.6560224"><ele>96.0</ele><time>2026-04-29T07:56:09.818Z</time></trkpt><trkpt lat="44.9708469" lon="9.6559391"><ele>96.0</ele><time>2026-04-29T07:56:10.819Z</time></trkpt><trkpt lat="44.9706821" lon="9.6558559"><ele>96.0</ele><time>2026-04-29T07:56:11.819Z</time></trkpt><trkpt lat="44.9705124" lon="9.6557728"><ele>96.0</ele><time>2026-04-29T07:56:12.818Z</time></trkpt><trkpt lat="44.9703378" lon="9.6556874"><ele>96.0</ele><time>2026-04-29T07:56:13.818Z</time></trkpt><trkpt lat="44.970158" lon="9.6555996"><ele>96.0</ele><time>2026-04-29T07:56:14.819Z</time></trkpt><trkpt lat="44.9699767" lon="9.6555057"><ele>96.0</ele><time>2026-04-29T07:56:15.819Z</time></trkpt><trkpt lat="44.9697957" lon="9.6554076"><ele>96.0</ele><time>2026-04-29T07:56:16.819Z</time></trkpt><trkpt lat="44.9696148" lon="9.6553128"><ele>96.0</ele><time>2026-04-29T07:56:17.819Z</time></trkpt><trkpt lat="44.9694341" lon="9.6552186"><ele>96.0</ele><time>2026-04-29T07:56:18.819Z</time></trkpt><trkpt lat="44.9692546" lon="9.655125"><ele>96.33333333333334</ele><time>2026-04-29T07:56:19.819Z</time></trkpt><trkpt lat="44.9690728" lon="9.6550296"><ele>96.66666666666667</ele><time>2026-04-29T07:56:20.819Z</time></trkpt><trkpt lat="44.9688888" lon="9.6549334"><ele>97.0</ele><time>2026-04-29T07:56:21.819Z</time></trkpt><trkpt lat="44.9687058" lon="9.6548379"><ele>97.0</ele><time>2026-04-29T07:56:22.819Z</time></trkpt><trkpt lat="44.9685276" lon="9.6547441"><ele>97.0</ele><time>2026-04-29T07:56:23.819Z</time></trkpt><trkpt lat="44.9683485" lon="9.6546504"><ele>97.0</ele><time>2026-04-29T07:56:24.819Z</time></trkpt><trkpt lat="44.9681687" lon="9.6545561"><ele>97.0</ele><time>2026-04-29T07:56:25.818Z</time></trkpt><trkpt lat="44.9679868" lon="9.6544611"><ele>97.0</ele><time>2026-04-29T07:56:26.819Z</time></trkpt><trkpt lat="44.9678017" lon="9.6543656"><ele>97.0</ele><time>2026-04-29T07:56:27.819Z</time></trkpt><trkpt lat="44.9676145" lon="9.6542695"><ele>97.66666666666667</ele><time>2026-04-29T07:56:28.819Z</time></trkpt><trkpt lat="44.9674248" lon="9.6541721"><ele>98.33333333333334</ele><time>2026-04-29T07:56:29.819Z</time></trkpt><trkpt lat="44.9672337" lon="9.6540727"><ele>99.0</ele><time>2026-04-29T07:56:30.819Z</time></trkpt><trkpt lat="44.9670395" lon="9.6539725"><ele>99.0</ele><time>2026-04-29T07:56:31.819Z</time></trkpt><trkpt lat="44.9668428" lon="9.6538697"><ele>99.0</ele><time>2026-04-29T07:56:32.818Z</time></trkpt><trkpt lat="44.9666433" lon="9.6537655"><ele>99.0</ele><time>2026-04-29T07:56:33.818Z</time></trkpt><trkpt lat="44.9664443" lon="9.6536619"><ele>99.0</ele><time>2026-04-29T07:56:34.818Z</time></trkpt><trkpt lat="44.9662516" lon="9.6535618"><ele>99.0</ele><time>2026-04-29T07:56:35.819Z</time></trkpt><trkpt lat="44.9660623" lon="9.6534646"><ele>99.0</ele><time>2026-04-29T07:56:36.819Z</time></trkpt><trkpt lat="44.9658736" lon="9.6533675"><ele>99.33333333333334</ele><time>2026-04-29T07:56:37.819Z</time></trkpt><trkpt lat="44.9656867" lon="9.6532708"><ele>99.66666666666667</ele><time>2026-04-29T07:56:38.818Z</time></trkpt><trkpt lat="44.9655061" lon="9.6531753"><ele>100.0</ele><time>2026-04-29T07:56:39.819Z</time></trkpt><trkpt lat="44.9653285" lon="9.6530798"><ele>100.0</ele><time>2026-04-29T07:56:40.818Z</time></trkpt><trkpt lat="44.9651503" lon="9.6529827"><ele>100.0</ele><time>2026-04-29T07:56:41.818Z</time></trkpt><trkpt lat="44.9649754" lon="9.652881"><ele>100.0</ele><time>2026-04-29T07:56:42.819Z</time></trkpt><trkpt lat="44.9648004" lon="9.6527783"><ele>100.33333333333334</ele><time>2026-04-29T07:56:43.819Z</time></trkpt><trkpt lat="44.9646304" lon="9.6526719"><ele>100.66666666666666</ele><time>2026-04-29T07:56:44.818Z</time></trkpt><trkpt lat="44.9644664" lon="9.6525621"><ele>101.0</ele><time>2026-04-29T07:56:45.818Z</time></trkpt><trkpt lat="44.96431" lon="9.6524515"><ele>101.33333333333333</ele><time>2026-04-29T07:56:46.819Z</time></trkpt><trkpt lat="44.9641604" lon="9.652336"><ele>101.66666666666666</ele><time>2026-04-29T07:56:47.818Z</time></trkpt><trkpt lat="44.9640087" lon="9.6522175"><ele>102.0</ele><time>2026-04-29T07:56:48.818Z</time></trkpt><trkpt lat="44.963859" lon="9.6521013"><ele>102.0</ele><time>2026-04-29T07:56:49.818Z</time></trkpt><trkpt lat="44.9637146" lon="9.6519893"><ele>102.0</ele><time>2026-04-29T07:56:50.819Z</time></trkpt><trkpt lat="44.9635736" lon="9.6518834"><ele>102.0</ele><time>2026-04-29T07:56:51.819Z</time></trkpt><trkpt lat="44.9634355" lon="9.6517772"><ele>101.66666666666666</ele><time>2026-04-29T07:56:52.819Z</time></trkpt><trkpt lat="44.9633011" lon="9.6516733"><ele>101.33333333333333</ele><time>2026-04-29T07:56:53.819Z</time></trkpt><trkpt lat="44.9631637" lon="9.6515684"><ele>101.0</ele><time>2026-04-29T07:56:54.819Z</time></trkpt><trkpt lat="44.9630279" lon="9.6514613"><ele>101.0</ele><time>2026-04-29T07:56:55.818Z</time></trkpt><trkpt lat="44.9628914" lon="9.6513542"><ele>101.0</ele><time>2026-04-29T07:56:56.819Z</time></trkpt><trkpt lat="44.9627535" lon="9.6512453"><ele>101.0</ele><time>2026-04-29T07:56:57.819Z</time></trkpt><trkpt lat="44.9626149" lon="9.651132"><ele>101.33333333333333</ele><time>2026-04-29T07:56:58.819Z</time></trkpt><trkpt lat="44.9624763" lon="9.6510229"><ele>101.66666666666666</ele><time>2026-04-29T07:56:59.819Z</time></trkpt><trkpt lat="44.9623413" lon="9.6509127"><ele>102.0</ele><time>2026-04-29T07:57:00.819Z</time></trkpt><trkpt lat="44.9622114" lon="9.6508052"><ele>102.0</ele><time>2026-04-29T07:57:01.819Z</time></trkpt><trkpt lat="44.9620839" lon="9.6507037"><ele>102.0</ele><time>2026-04-29T07:57:02.819Z</time></trkpt><trkpt lat="44.9619603" lon="9.650606"><ele>102.0</ele><time>2026-04-29T07:57:03.819Z</time></trkpt><trkpt lat="44.9618395" lon="9.6505113"><ele>102.0</ele><time>2026-04-29T07:57:04.819Z</time></trkpt><trkpt lat="44.9617231" lon="9.6504136"><ele>102.25</ele><time>2026-04-29T07:57:05.818Z</time></trkpt><trkpt lat="44.9616073" lon="9.6503235"><ele>102.5</ele><time>2026-04-29T07:57:06.819Z</time></trkpt><trkpt lat="44.961493" lon="9.650236"><ele>102.75</ele><time>2026-04-29T07:57:07.819Z</time></trkpt><trkpt lat="44.9613853" lon="9.6501531"><ele>103.0</ele><time>2026-04-29T07:57:08.819Z</time></trkpt><trkpt lat="44.9612841" lon="9.6500697"><ele>102.75</ele><time>2026-04-29T07:57:09.819Z</time></trkpt><trkpt lat="44.9611839" lon="9.6499885"><ele>102.5</ele><time>2026-04-29T07:57:10.819Z</time></trkpt><trkpt lat="44.9610786" lon="9.6499034"><ele>102.25</ele><time>2026-04-29T07:57:11.819Z</time></trkpt><trkpt lat="44.9609653" lon="9.6498115"><ele>102.0</ele><time>2026-04-29T07:57:12.818Z</time></trkpt><trkpt lat="44.9608447" lon="9.6497169"><ele>102.0</ele><time>2026-04-29T07:57:13.819Z</time></trkpt><trkpt lat="44.9607188" lon="9.6496181"><ele>102.0</ele><time>2026-04-29T07:57:14.819Z</time></trkpt><trkpt lat="44.9605848" lon="9.6495151"><ele>102.0</ele><time>2026-04-29T07:57:15.819Z</time></trkpt><trkpt lat="44.9604421" lon="9.6494047"><ele>102.0</ele><time>2026-04-29T07:57:16.819Z</time></trkpt><trkpt lat="44.9602921" lon="9.6492827"><ele>102.0</ele><time>2026-04-29T07:57:17.819Z</time></trkpt><trkpt lat="44.9601395" lon="9.6491611"><ele>102.0</ele><time>2026-04-29T07:57:18.819Z</time></trkpt><trkpt lat="44.9599861" lon="9.6490381"><ele>102.66666666666666</ele><time>2026-04-29T07:57:19.819Z</time></trkpt><trkpt lat="44.959828" lon="9.6489117"><ele>103.33333333333333</ele><time>2026-04-29T07:57:20.819Z</time></trkpt><trkpt lat="44.9596687" lon="9.6487853"><ele>104.0</ele><time>2026-04-29T07:57:21.819Z</time></trkpt><trkpt lat="44.9595086" lon="9.6486595"><ele>104.0</ele><time>2026-04-29T07:57:22.819Z</time></trkpt><trkpt lat="44.959347" lon="9.6485324"><ele>104.0</ele><time>2026-04-29T07:57:23.819Z</time></trkpt><trkpt lat="44.9591878" lon="9.6484054"><ele>104.0</ele><time>2026-04-29T07:57:24.819Z</time></trkpt><trkpt lat="44.9590291" lon="9.6482819"><ele>104.33333333333333</ele><time>2026-04-29T07:57:25.819Z</time></trkpt><trkpt lat="44.9588714" lon="9.6481564"><ele>104.66666666666666</ele><time>2026-04-29T07:57:26.819Z</time></trkpt><trkpt lat="44.9587155" lon="9.6480341"><ele>105.0</ele><time>2026-04-29T07:57:27.819Z</time></trkpt><trkpt lat="44.9585598" lon="9.6479135"><ele>105.0</ele><time>2026-04-29T07:57:28.819Z</time></trkpt><trkpt lat="44.9584055" lon="9.6477889"><ele>105.0</ele><time>2026-04-29T07:57:29.818Z</time></trkpt><trkpt lat="44.9582484" lon="9.6476652"><ele>105.0</ele><time>2026-04-29T07:57:30.819Z</time></trkpt><trkpt lat="44.9580909" lon="9.6475429"><ele>105.0</ele><time>2026-04-29T07:57:31.819Z</time></trkpt><trkpt lat="44.957937" lon="9.6474196"><ele>105.0</ele><time>2026-04-29T07:57:32.819Z</time></trkpt><trkpt lat="44.9577821" lon="9.6472947"><ele>105.0</ele><time>2026-04-29T07:57:33.818Z</time></trkpt><trkpt lat="44.9576251" lon="9.6471699"><ele>105.66666666666666</ele><time>2026-04-29T07:57:34.819Z</time></trkpt><trkpt lat="44.9574658" lon="9.6470443"><ele>106.33333333333333</ele><time>2026-04-29T07:57:35.818Z</time></trkpt><trkpt lat="44.9573087" lon="9.6469221"><ele>107.0</ele><time>2026-04-29T07:57:36.819Z</time></trkpt><trkpt lat="44.9571562" lon="9.6468009"><ele>107.0</ele><time>2026-04-29T07:57:37.819Z</time></trkpt><trkpt lat="44.9570036" lon="9.646677"><ele>107.0</ele><time>2026-04-29T07:57:38.819Z</time></trkpt><trkpt lat="44.9568519" lon="9.6465497"><ele>107.0</ele><time>2026-04-29T07:57:39.819Z</time></trkpt><trkpt lat="44.9567019" lon="9.6464159"><ele>107.0</ele><time>2026-04-29T07:57:40.819Z</time></trkpt><trkpt lat="44.9565451" lon="9.6462717"><ele>107.0</ele><time>2026-04-29T07:57:41.819Z</time></trkpt><trkpt lat="44.9563878" lon="9.6461251"><ele>107.0</ele><time>2026-04-29T07:57:42.818Z</time></trkpt><trkpt lat="44.9562365" lon="9.6459711"><ele>107.0</ele><time>2026-04-29T07:57:43.819Z</time></trkpt><trkpt lat="44.9560908" lon="9.6458164"><ele>107.0</ele><time>2026-04-29T07:57:44.819Z</time></trkpt><trkpt lat="44.9559431" lon="9.6456565"><ele>107.0</ele><time>2026-04-29T07:57:45.819Z</time></trkpt><trkpt lat="44.9557921" lon="9.6454871"><ele>107.66666666666666</ele><time>2026-04-29T07:57:46.819Z</time></trkpt><trkpt lat="44.9556358" lon="9.6453013"><ele>108.33333333333334</ele><time>2026-04-29T07:57:47.818Z</time></trkpt><trkpt lat="44.9554783" lon="9.6451083"><ele>109.0</ele><time>2026-04-29T07:57:48.819Z</time></trkpt><trkpt lat="44.9553272" lon="9.6449172"><ele>109.0</ele><time>2026-04-29T07:57:49.818Z</time></trkpt><trkpt lat="44.9551779" lon="9.644724"><ele>109.0</ele><time>2026-04-29T07:57:50.819Z</time></trkpt><trkpt lat="44.9550367" lon="9.6445392"><ele>109.0</ele><time>2026-04-29T07:57:51.819Z</time></trkpt><trkpt lat="44.9548885" lon="9.6443502"><ele>109.33333333333334</ele><time>2026-04-29T07:57:52.819Z</time></trkpt><trkpt lat="44.9547381" lon="9.644155"><ele>109.66666666666666</ele><time>2026-04-29T07:57:53.819Z</time></trkpt><trkpt lat="44.9545927" lon="9.6439657"><ele>110.0</ele><time>2026-04-29T07:57:54.819Z</time></trkpt><trkpt lat="44.9544449" lon="9.643774"><ele>110.0</ele><time>2026-04-29T07:57:55.818Z</time></trkpt><trkpt lat="44.9542969" lon="9.6435823"><ele>110.0</ele><time>2026-04-29T07:57:56.819Z</time></trkpt><trkpt lat="44.9541476" lon="9.643386"><ele>110.0</ele><time>2026-04-29T07:57:57.819Z</time></trkpt><trkpt lat="44.9539969" lon="9.6431869"><ele>111.0</ele><time>2026-04-29T07:57:58.818Z</time></trkpt><trkpt lat="44.9538448" lon="9.6429878"><ele>112.0</ele><time>2026-04-29T07:57:59.819Z</time></trkpt><trkpt lat="44.953692" lon="9.6427883"><ele>113.0</ele><time>2026-04-29T07:58:00.818Z</time></trkpt><trkpt lat="44.9535391" lon="9.642587"><ele>113.0</ele><time>2026-04-29T07:58:01.818Z</time></trkpt><trkpt lat="44.953382" lon="9.6423887"><ele>113.0</ele><time>2026-04-29T07:58:02.819Z</time></trkpt><trkpt lat="44.9532237" lon="9.6421928"><ele>113.0</ele><time>2026-04-29T07:58:03.818Z</time></trkpt><trkpt lat="44.9530604" lon="9.6419995"><ele>113.0</ele><time>2026-04-29T07:58:04.819Z</time></trkpt><trkpt lat="44.9529002" lon="9.6418053"><ele>113.0</ele><time>2026-04-29T07:58:05.818Z</time></trkpt><trkpt lat="44.9527367" lon="9.6416171"><ele>113.0</ele><time>2026-04-29T07:58:06.819Z</time></trkpt><trkpt lat="44.9525768" lon="9.6414368"><ele>113.33333333333333</ele><time>2026-04-29T07:58:07.818Z</time></trkpt><trkpt lat="44.9524173" lon="9.6412617"><ele>113.66666666666666</ele><time>2026-04-29T07:58:08.819Z</time></trkpt><trkpt lat="44.9522576" lon="9.6410902"><ele>114.0</ele><time>2026-04-29T07:58:09.818Z</time></trkpt><trkpt lat="44.9520968" lon="9.6409214"><ele>114.0</ele><time>2026-04-29T07:58:10.818Z</time></trkpt><trkpt lat="44.951932" lon="9.6407526"><ele>114.0</ele><time>2026-04-29T07:58:11.819Z</time></trkpt><trkpt lat="44.9517608" lon="9.6405793"><ele>114.0</ele><time>2026-04-29T07:58:12.819Z</time></trkpt><trkpt lat="44.9515878" lon="9.640407"><ele>114.0</ele><time>2026-04-29T07:58:13.818Z</time></trkpt><trkpt lat="44.9514166" lon="9.6402427"><ele>114.0</ele><time>2026-04-29T07:58:14.819Z</time></trkpt><trkpt lat="44.9512462" lon="9.640085"><ele>114.0</ele><time>2026-04-29T07:58:15.818Z</time></trkpt><trkpt lat="44.9510823" lon="9.6399354"><ele>114.0</ele><time>2026-04-29T07:58:16.819Z</time></trkpt><trkpt lat="44.950924" lon="9.6397971"><ele>114.0</ele><time>2026-04-29T07:58:17.819Z</time></trkpt><trkpt lat="44.9507714" lon="9.6396664"><ele>114.0</ele><time>2026-04-29T07:58:18.819Z</time></trkpt><trkpt lat="44.950623" lon="9.6395447"><ele>115.0</ele><time>2026-04-29T07:58:19.819Z</time></trkpt><trkpt lat="44.9504808" lon="9.6394291"><ele>116.0</ele><time>2026-04-29T07:58:20.819Z</time></trkpt><trkpt lat="44.950338" lon="9.6393167"><ele>117.0</ele><time>2026-04-29T07:58:21.819Z</time></trkpt><trkpt lat="44.9501945" lon="9.6392065"><ele>117.0</ele><time>2026-04-29T07:58:22.818Z</time></trkpt><trkpt lat="44.9500492" lon="9.639094"><ele>117.0</ele><time>2026-04-29T07:58:23.819Z</time></trkpt><trkpt lat="44.9498995" lon="9.6389811"><ele>117.0</ele><time>2026-04-29T07:58:24.819Z</time></trkpt><trkpt lat="44.9497463" lon="9.6388668"><ele>117.0</ele><time>2026-04-29T07:58:25.819Z</time></trkpt><trkpt lat="44.9495907" lon="9.6387538"><ele>117.0</ele><time>2026-04-29T07:58:26.819Z</time></trkpt><trkpt lat="44.9494353" lon="9.6386409"><ele>117.0</ele><time>2026-04-29T07:58:27.819Z</time></trkpt><trkpt lat="44.9492801" lon="9.6385309"><ele>117.66666666666666</ele><time>2026-04-29T07:58:28.818Z</time></trkpt><trkpt lat="44.9491293" lon="9.6384243"><ele>118.33333333333333</ele><time>2026-04-29T07:58:29.819Z</time></trkpt><trkpt lat="44.948982" lon="9.6383193"><ele>119.0</ele><time>2026-04-29T07:58:30.819Z</time></trkpt><trkpt lat="44.9488363" lon="9.6382176"><ele>119.0</ele><time>2026-04-29T07:58:31.819Z</time></trkpt><trkpt lat="44.9486959" lon="9.6381184"><ele>119.0</ele><time>2026-04-29T07:58:32.819Z</time></trkpt><trkpt lat="44.9485589" lon="9.6380221"><ele>119.0</ele><time>2026-04-29T07:58:33.819Z</time></trkpt><trkpt lat="44.9484266" lon="9.6379296"><ele>119.0</ele><time>2026-04-29T07:58:34.819Z</time></trkpt><trkpt lat="44.9482951" lon="9.6378363"><ele>119.0</ele><time>2026-04-29T07:58:35.819Z</time></trkpt><trkpt lat="44.9481645" lon="9.6377437"><ele>119.0</ele><time>2026-04-29T07:58:36.819Z</time></trkpt><trkpt lat="44.9480343" lon="9.6376497"><ele>119.0</ele><time>2026-04-29T07:58:37.819Z</time></trkpt><trkpt lat="44.9479032" lon="9.6375591"><ele>119.0</ele><time>2026-04-29T07:58:38.819Z</time></trkpt><trkpt lat="44.9477703" lon="9.6374692"><ele>119.0</ele><time>2026-04-29T07:58:39.819Z</time></trkpt><trkpt lat="44.9476361" lon="9.6373738"><ele>119.0</ele><time>2026-04-29T07:58:40.819Z</time></trkpt><trkpt lat="44.9474976" lon="9.6372781"><ele>119.0</ele><time>2026-04-29T07:58:41.818Z</time></trkpt><trkpt lat="44.9473528" lon="9.637176"><ele>119.0</ele><time>2026-04-29T07:58:42.819Z</time></trkpt><trkpt lat="44.9472086" lon="9.6370743"><ele>119.0</ele><time>2026-04-29T07:58:43.819Z</time></trkpt><trkpt lat="44.9470681" lon="9.6369712"><ele>119.0</ele><time>2026-04-29T07:58:44.819Z</time></trkpt><trkpt lat="44.9469294" lon="9.6368732"><ele>119.0</ele><time>2026-04-29T07:58:45.819Z</time></trkpt><trkpt lat="44.9467905" lon="9.6367742"><ele>119.0</ele><time>2026-04-29T07:58:46.819Z</time></trkpt><trkpt lat="44.9466507" lon="9.6366778"><ele>119.75</ele><time>2026-04-29T07:58:47.819Z</time></trkpt><trkpt lat="44.9465167" lon="9.6365885"><ele>120.5</ele><time>2026-04-29T07:58:48.819Z</time></trkpt><trkpt lat="44.9463925" lon="9.6364986"><ele>121.25</ele><time>2026-04-29T07:58:49.819Z</time></trkpt><trkpt lat="44.946279" lon="9.6364168"><ele>122.0</ele><time>2026-04-29T07:58:50.818Z</time></trkpt><trkpt lat="44.9461718" lon="9.6363425"><ele>122.0</ele><time>2026-04-29T07:58:51.819Z</time></trkpt><trkpt lat="44.9460643" lon="9.6362683"><ele>122.0</ele><time>2026-04-29T07:58:52.818Z</time></trkpt><trkpt lat="44.9459547" lon="9.6361908"><ele>122.0</ele><time>2026-04-29T07:58:53.819Z</time></trkpt><trkpt lat="44.9458441" lon="9.6361125"><ele>122.0</ele><time>2026-04-29T07:58:54.819Z</time></trkpt><trkpt lat="44.9457324" lon="9.6360334"><ele>121.75</ele><time>2026-04-29T07:58:55.818Z</time></trkpt><trkpt lat="44.9456226" lon="9.6359544"><ele>121.5</ele><time>2026-04-29T07:58:56.819Z</time></trkpt><trkpt lat="44.9455123" lon="9.6358752"><ele>121.25</ele><time>2026-04-29T07:58:57.819Z</time></trkpt><trkpt lat="44.945396" lon="9.6357956"><ele>121.0</ele><time>2026-04-29T07:58:58.819Z</time></trkpt><trkpt lat="44.9452752" lon="9.6357124"><ele>121.0</ele><time>2026-04-29T07:58:59.819Z</time></trkpt><trkpt lat="44.9451536" lon="9.6356258"><ele>121.0</ele><time>2026-04-29T07:59:00.819Z</time></trkpt><trkpt lat="44.9450266" lon="9.6355372"><ele>121.0</ele><time>2026-04-29T07:59:01.819Z</time></trkpt><trkpt lat="44.944901" lon="9.6354497"><ele>121.0</ele><time>2026-04-29T07:59:02.819Z</time></trkpt><trkpt lat="44.9447693" lon="9.635357"><ele>121.0</ele><time>2026-04-29T07:59:03.819Z</time></trkpt><trkpt lat="44.9446422" lon="9.6352693"><ele>121.0</ele><time>2026-04-29T07:59:04.819Z</time></trkpt><trkpt lat="44.9445207" lon="9.6351848"><ele>121.0</ele><time>2026-04-29T07:59:05.819Z</time></trkpt><trkpt lat="44.9444081" lon="9.6351069"><ele>121.0</ele><time>2026-04-29T07:59:06.819Z</time></trkpt><trkpt lat="44.9442972" lon="9.6350309"><ele>120.75</ele><time>2026-04-29T07:59:07.819Z</time></trkpt><trkpt lat="44.9441917" lon="9.6349571"><ele>120.5</ele><time>2026-04-29T07:59:08.819Z</time></trkpt><trkpt lat="44.9440901" lon="9.6348834"><ele>120.25</ele><time>2026-04-29T07:59:09.819Z</time></trkpt><trkpt lat="44.9439899" lon="9.6348119"><ele>120.0</ele><time>2026-04-29T07:59:10.818Z</time></trkpt><trkpt lat="44.9438891" lon="9.6347403"><ele>120.0</ele><time>2026-04-29T07:59:11.819Z</time></trkpt><trkpt lat="44.9437833" lon="9.6346669"><ele>120.0</ele><time>2026-04-29T07:59:12.819Z</time></trkpt><trkpt lat="44.9436729" lon="9.6345851"><ele>120.0</ele><time>2026-04-29T07:59:13.819Z</time></trkpt><trkpt lat="44.9435577" lon="9.6345019"><ele>120.0</ele><time>2026-04-29T07:59:14.819Z</time></trkpt><trkpt lat="44.9434428" lon="9.6344118"><ele>120.25</ele><time>2026-04-29T07:59:15.819Z</time></trkpt><trkpt lat="44.9433282" lon="9.6343167"><ele>120.5</ele><time>2026-04-29T07:59:16.819Z</time></trkpt><trkpt lat="44.9432118" lon="9.6342152"><ele>120.75</ele><time>2026-04-29T07:59:17.819Z</time></trkpt><trkpt lat="44.9430954" lon="9.6341057"><ele>121.0</ele><time>2026-04-29T07:59:18.819Z</time></trkpt><trkpt lat="44.9429802" lon="9.6339956"><ele>121.0</ele><time>2026-04-29T07:59:19.818Z</time></trkpt><trkpt lat="44.9428694" lon="9.6338875"><ele>121.0</ele><time>2026-04-29T07:59:20.819Z</time></trkpt><trkpt lat="44.9427616" lon="9.6337832"><ele>121.0</ele><time>2026-04-29T07:59:21.819Z</time></trkpt><trkpt lat="44.9426644" lon="9.6336882"><ele>121.0</ele><time>2026-04-29T07:59:22.819Z</time></trkpt><trkpt lat="44.9425702" lon="9.6335961"><ele>121.4</ele><time>2026-04-29T07:59:23.818Z</time></trkpt><trkpt lat="44.942485" lon="9.6335085"><ele>121.8</ele><time>2026-04-29T07:59:24.819Z</time></trkpt><trkpt lat="44.9424046" lon="9.6334289"><ele>122.20000000000002</ele><time>2026-04-29T07:59:25.819Z</time></trkpt><trkpt lat="44.9423291" lon="9.6333532"><ele>122.60000000000001</ele><time>2026-04-29T07:59:26.819Z</time></trkpt><trkpt lat="44.9422607" lon="9.6332822"><ele>123.0</ele><time>2026-04-29T07:59:27.819Z</time></trkpt><trkpt lat="44.9421957" lon="9.633217"><ele>123.0</ele><time>2026-04-29T07:59:28.819Z</time></trkpt><trkpt lat="44.9421348" lon="9.633154"><ele>123.0</ele><time>2026-04-29T07:59:29.819Z</time></trkpt><trkpt lat="44.9420779" lon="9.6330958"><ele>123.0</ele><time>2026-04-29T07:59:30.819Z</time></trkpt><trkpt lat="44.942024" lon="9.6330419"><ele>123.0</ele><time>2026-04-29T07:59:31.818Z</time></trkpt><trkpt lat="44.9419286" lon="9.6329418"><ele>123.0</ele><time>2026-04-29T07:59:33.819Z</time></trkpt><trkpt lat="44.9418513" lon="9.6328627"><ele>123.0</ele><time>2026-04-29T07:59:35.819Z</time></trkpt><trkpt lat="44.9417852" lon="9.6327894"><ele>123.60000000000001</ele><time>2026-04-29T07:59:38.819Z</time></trkpt><trkpt lat="44.9417072" lon="9.6327029"><ele>124.20000000000002</ele><time>2026-04-29T07:59:56.819Z</time></trkpt><trkpt lat="44.9415941" lon="9.6325934"><ele>124.8</ele><time>2026-04-29T07:59:58.818Z</time></trkpt><trkpt lat="44.9415238" lon="9.6325213"><ele>125.4</ele><time>2026-04-29T07:59:59.819Z</time></trkpt><trkpt lat="44.9414412" lon="9.6324414"><ele>126.0</ele><time>2026-04-29T08:00:00.819Z</time></trkpt><trkpt lat="44.9413537" lon="9.632355"><ele>126.0</ele><time>2026-04-29T08:00:01.819Z</time></trkpt><trkpt lat="44.941262" lon="9.6322628"><ele>126.0</ele><time>2026-04-29T08:00:02.819Z</time></trkpt><trkpt lat="44.9411627" lon="9.6321653"><ele>126.0</ele><time>2026-04-29T08:00:03.818Z</time></trkpt><trkpt lat="44.9410602" lon="9.6320639"><ele>126.0</ele><time>2026-04-29T08:00:04.819Z</time></trkpt><trkpt lat="44.9409507" lon="9.631955"><ele>126.0</ele><time>2026-04-29T08:00:05.79Z</time></trkpt><trkpt lat="44.9408397" lon="9.6318431"><ele>126.0</ele><time>2026-04-29T08:00:06.819Z</time></trkpt><trkpt lat="44.9407235" lon="9.6317169"><ele>126.0</ele><time>2026-04-29T08:00:07.819Z</time></trkpt><trkpt lat="44.9406042" lon="9.6315854"><ele>126.0</ele><time>2026-04-29T08:00:08.819Z</time></trkpt><trkpt lat="44.940488" lon="9.6314492"><ele>126.0</ele><time>2026-04-29T08:00:09.818Z</time></trkpt><trkpt lat="44.9403707" lon="9.6313109"><ele>126.0</ele><time>2026-04-29T08:00:10.819Z</time></trkpt><trkpt lat="44.9402537" lon="9.6311677"><ele>126.0</ele><time>2026-04-29T08:00:11.819Z</time></trkpt><trkpt lat="44.9401378" lon="9.6310159"><ele>127.33333333333334</ele><time>2026-04-29T08:00:12.819Z</time></trkpt><trkpt lat="44.940025" lon="9.6308585"><ele>128.66666666666669</ele><time>2026-04-29T08:00:13.819Z</time></trkpt><trkpt lat="44.9399147" lon="9.6306976"><ele>130.0</ele><time>2026-04-29T08:00:14.791Z</time></trkpt><trkpt lat="44.9398081" lon="9.6305408"><ele>130.0</ele><time>2026-04-29T08:00:15.791Z</time></trkpt><trkpt lat="44.9396966" lon="9.6303734"><ele>130.0</ele><time>2026-04-29T08:00:16.792Z</time></trkpt><trkpt lat="44.9395913" lon="9.6302096"><ele>130.0</ele><time>2026-04-29T08:00:17.791Z</time></trkpt><trkpt lat="44.9394868" lon="9.6300433"><ele>130.0</ele><time>2026-04-29T08:00:18.794Z</time></trkpt><trkpt lat="44.9393785" lon="9.6298689"><ele>130.0</ele><time>2026-04-29T08:00:19.79Z</time></trkpt><trkpt lat="44.9392647" lon="9.629684"><ele>130.0</ele><time>2026-04-29T08:00:20.79Z</time></trkpt><trkpt lat="44.9391464" lon="9.6294924"><ele>130.33333333333334</ele><time>2026-04-29T08:00:21.79Z</time></trkpt><trkpt lat="44.9390239" lon="9.6292945"><ele>130.66666666666666</ele><time>2026-04-29T08:00:22.79Z</time></trkpt><trkpt lat="44.938902" lon="9.6291013"><ele>131.0</ele><time>2026-04-29T08:00:23.789Z</time></trkpt><trkpt lat="44.9387653" lon="9.6288951"><ele>131.0</ele><time>2026-04-29T08:00:24.79Z</time></trkpt><trkpt lat="44.9386264" lon="9.6286972"><ele>131.0</ele><time>2026-04-29T08:00:25.79Z</time></trkpt><trkpt lat="44.9384856" lon="9.6285073"><ele>131.0</ele><time>2026-04-29T08:00:26.79Z</time></trkpt><trkpt lat="44.9383391" lon="9.6283246"><ele>131.33333333333331</ele><time>2026-04-29T08:00:27.79Z</time></trkpt><trkpt lat="44.9381876" lon="9.6281473"><ele>131.66666666666666</ele><time>2026-04-29T08:00:28.79Z</time></trkpt><trkpt lat="44.9380325" lon="9.6279762"><ele>132.0</ele><time>2026-04-29T08:00:29.79Z</time></trkpt><trkpt lat="44.9378792" lon="9.6278131"><ele>132.0</ele><time>2026-04-29T08:00:30.79Z</time></trkpt><trkpt lat="44.937733" lon="9.6276581"><ele>132.0</ele><time>2026-04-29T08:00:31.79Z</time></trkpt><trkpt lat="44.9375818" lon="9.6274974"><ele>132.0</ele><time>2026-04-29T08:00:32.789Z</time></trkpt><trkpt lat="44.9374398" lon="9.6273461"><ele>132.0</ele><time>2026-04-29T08:00:33.789Z</time></trkpt><trkpt lat="44.9373007" lon="9.6271969"><ele>132.0</ele><time>2026-04-29T08:00:34.789Z</time></trkpt><trkpt lat="44.9371636" lon="9.6270499"><ele>132.0</ele><time>2026-04-29T08:00:35.79Z</time></trkpt><trkpt lat="44.9370279" lon="9.6269046"><ele>132.0</ele><time>2026-04-29T08:00:36.79Z</time></trkpt><trkpt lat="44.9368928" lon="9.6267601"><ele>132.0</ele><time>2026-04-29T08:00:37.79Z</time></trkpt><trkpt lat="44.9367593" lon="9.6266172"><ele>132.0</ele><time>2026-04-29T08:00:38.79Z</time></trkpt><trkpt lat="44.9366333" lon="9.6264844"><ele>133.0</ele><time>2026-04-29T08:00:39.79Z</time></trkpt><trkpt lat="44.936498" lon="9.6263441"><ele>134.0</ele><time>2026-04-29T08:00:40.79Z</time></trkpt><trkpt lat="44.9363629" lon="9.6262038"><ele>135.0</ele><time>2026-04-29T08:00:41.79Z</time></trkpt><trkpt lat="44.9362228" lon="9.6260564"><ele>135.0</ele><time>2026-04-29T08:00:42.79Z</time></trkpt><trkpt lat="44.9360757" lon="9.6259004"><ele>135.0</ele><time>2026-04-29T08:00:43.79Z</time></trkpt><trkpt lat="44.9359205" lon="9.6257352"><ele>135.0</ele><time>2026-04-29T08:00:44.79Z</time></trkpt><trkpt lat="44.935763" lon="9.6255632"><ele>134.66666666666666</ele><time>2026-04-29T08:00:45.789Z</time></trkpt><trkpt lat="44.9356029" lon="9.6253865"><ele>134.33333333333331</ele><time>2026-04-29T08:00:46.79Z</time></trkpt><trkpt lat="44.9354459" lon="9.625212"><ele>134.0</ele><time>2026-04-29T08:00:47.79Z</time></trkpt><trkpt lat="44.9352737" lon="9.6250221"><ele>134.0</ele><time>2026-04-29T08:00:48.79Z</time></trkpt><trkpt lat="44.9351083" lon="9.6248319"><ele>134.0</ele><time>2026-04-29T08:00:49.819Z</time></trkpt><trkpt lat="44.9349376" lon="9.6246478"><ele>134.0</ele><time>2026-04-29T08:00:50.819Z</time></trkpt><trkpt lat="44.9347713" lon="9.6244688"><ele>132.66666666666666</ele><time>2026-04-29T08:00:51.818Z</time></trkpt><trkpt lat="44.9346077" lon="9.6242901"><ele>131.33333333333334</ele><time>2026-04-29T08:00:52.818Z</time></trkpt><trkpt lat="44.9344462" lon="9.6241111"><ele>130.0</ele><time>2026-04-29T08:00:53.819Z</time></trkpt><trkpt lat="44.9342877" lon="9.623932"><ele>130.66666666666669</ele><time>2026-04-29T08:00:54.818Z</time></trkpt><trkpt lat="44.93413" lon="9.6237563"><ele>131.33333333333334</ele><time>2026-04-29T08:00:55.819Z</time></trkpt><trkpt lat="44.9339708" lon="9.6235801"><ele>132.0</ele><time>2026-04-29T08:00:56.819Z</time></trkpt><trkpt lat="44.9338164" lon="9.6234015"><ele>132.0</ele><time>2026-04-29T08:00:57.792Z</time></trkpt><trkpt lat="44.9336619" lon="9.6232266"><ele>132.0</ele><time>2026-04-29T08:00:58.794Z</time></trkpt><trkpt lat="44.9335093" lon="9.6230534"><ele>132.0</ele><time>2026-04-29T08:00:59.792Z</time></trkpt><trkpt lat="44.9333549" lon="9.6228828"><ele>133.0</ele><time>2026-04-29T08:01:00.819Z</time></trkpt><trkpt lat="44.9332068" lon="9.622717"><ele>134.0</ele><time>2026-04-29T08:01:01.819Z</time></trkpt><trkpt lat="44.9330605" lon="9.6225478"><ele>135.0</ele><time>2026-04-29T08:01:02.819Z</time></trkpt><trkpt lat="44.9329135" lon="9.6223782"><ele>135.0</ele><time>2026-04-29T08:01:03.819Z</time></trkpt><trkpt lat="44.9327619" lon="9.6222082"><ele>135.0</ele><time>2026-04-29T08:01:04.819Z</time></trkpt><trkpt lat="44.9326115" lon="9.6220357"><ele>135.0</ele><time>2026-04-29T08:01:05.819Z</time></trkpt><trkpt lat="44.9324582" lon="9.6218629"><ele>135.0</ele><time>2026-04-29T08:01:06.819Z</time></trkpt><trkpt lat="44.9323042" lon="9.6216906"><ele>135.0</ele><time>2026-04-29T08:01:07.818Z</time></trkpt><trkpt lat="44.9321481" lon="9.6215159"><ele>135.0</ele><time>2026-04-29T08:01:08.818Z</time></trkpt><trkpt lat="44.9319918" lon="9.6213399"><ele>135.0</ele><time>2026-04-29T08:01:09.792Z</time></trkpt><trkpt lat="44.9318408" lon="9.6211686"><ele>135.0</ele><time>2026-04-29T08:01:10.792Z</time></trkpt><trkpt lat="44.9316961" lon="9.6210043"><ele>135.0</ele><time>2026-04-29T08:01:11.794Z</time></trkpt><trkpt lat="44.9315423" lon="9.6208292"><ele>134.66666666666666</ele><time>2026-04-29T08:01:12.791Z</time></trkpt><trkpt lat="44.9313914" lon="9.6206585"><ele>134.33333333333331</ele><time>2026-04-29T08:01:13.8Z</time></trkpt><trkpt lat="44.9312397" lon="9.6204867"><ele>134.0</ele><time>2026-04-29T08:01:14.789Z</time></trkpt><trkpt lat="44.9310868" lon="9.6203149"><ele>134.66666666666666</ele><time>2026-04-29T08:01:15.79Z</time></trkpt><trkpt lat="44.9309315" lon="9.6201432"><ele>135.33333333333334</ele><time>2026-04-29T08:01:16.79Z</time></trkpt><trkpt lat="44.9307779" lon="9.6199743"><ele>136.0</ele><time>2026-04-29T08:01:17.79Z</time></trkpt><trkpt lat="44.9306259" lon="9.6198107"><ele>136.0</ele><time>2026-04-29T08:01:18.79Z</time></trkpt><trkpt lat="44.9304765" lon="9.6196557"><ele>136.0</ele><time>2026-04-29T08:01:19.79Z</time></trkpt><trkpt lat="44.9303135" lon="9.6194916"><ele>136.0</ele><time>2026-04-29T08:01:20.79Z</time></trkpt><trkpt lat="44.930154" lon="9.6193333"><ele>135.33333333333334</ele><time>2026-04-29T08:01:21.79Z</time></trkpt><trkpt lat="44.9299934" lon="9.6191741"><ele>134.66666666666666</ele><time>2026-04-29T08:01:22.79Z</time></trkpt><trkpt lat="44.9298323" lon="9.6190143"><ele>134.0</ele><time>2026-04-29T08:01:23.79Z</time></trkpt><trkpt lat="44.9296708" lon="9.6188521"><ele>134.0</ele><time>2026-04-29T08:01:24.79Z</time></trkpt><trkpt lat="44.9295081" lon="9.6186875"><ele>134.0</ele><time>2026-04-29T08:01:25.79Z</time></trkpt><trkpt lat="44.9293441" lon="9.61852"><ele>134.0</ele><time>2026-04-29T08:01:26.79Z</time></trkpt><trkpt lat="44.9291844" lon="9.6183548"><ele>134.66666666666666</ele><time>2026-04-29T08:01:27.79Z</time></trkpt><trkpt lat="44.9290155" lon="9.61818"><ele>135.33333333333334</ele><time>2026-04-29T08:01:28.79Z</time></trkpt><trkpt lat="44.9288554" lon="9.6180159"><ele>136.0</ele><time>2026-04-29T08:01:29.79Z</time></trkpt><trkpt lat="44.9286974" lon="9.6178531"><ele>136.0</ele><time>2026-04-29T08:01:30.79Z</time></trkpt><trkpt lat="44.9285422" lon="9.6176846"><ele>136.0</ele><time>2026-04-29T08:01:31.79Z</time></trkpt><trkpt lat="44.928393" lon="9.6175057"><ele>136.0</ele><time>2026-04-29T08:01:32.789Z</time></trkpt><trkpt lat="44.9282499" lon="9.6173161"><ele>136.0</ele><time>2026-04-29T08:01:33.79Z</time></trkpt><trkpt lat="44.9281135" lon="9.6171165"><ele>136.0</ele><time>2026-04-29T08:01:34.79Z</time></trkpt><trkpt lat="44.9279828" lon="9.6169163"><ele>136.0</ele><time>2026-04-29T08:01:35.79Z</time></trkpt><trkpt lat="44.9278485" lon="9.6167034"><ele>135.33333333333334</ele><time>2026-04-29T08:01:36.79Z</time></trkpt><trkpt lat="44.9277215" lon="9.6165"><ele>134.66666666666666</ele><time>2026-04-29T08:01:37.79Z</time></trkpt><trkpt lat="44.9275951" lon="9.6162964"><ele>134.0</ele><time>2026-04-29T08:01:38.79Z</time></trkpt><trkpt lat="44.9274694" lon="9.6160932"><ele>134.0</ele><time>2026-04-29T08:01:39.79Z</time></trkpt><trkpt lat="44.9273436" lon="9.6158907"><ele>134.0</ele><time>2026-04-29T08:01:40.789Z</time></trkpt><trkpt lat="44.9272174" lon="9.6156905"><ele>134.0</ele><time>2026-04-29T08:01:41.79Z</time></trkpt><trkpt lat="44.9270881" lon="9.6154962"><ele>134.0</ele><time>2026-04-29T08:01:42.79Z</time></trkpt><trkpt lat="44.926958" lon="9.6153149"><ele>134.0</ele><time>2026-04-29T08:01:43.79Z</time></trkpt><trkpt lat="44.9268125" lon="9.6151285"><ele>134.0</ele><time>2026-04-29T08:01:44.79Z</time></trkpt><trkpt lat="44.9266658" lon="9.6149559"><ele>134.0</ele><time>2026-04-29T08:01:45.789Z</time></trkpt><trkpt lat="44.9265132" lon="9.6147899"><ele>134.0</ele><time>2026-04-29T08:01:46.79Z</time></trkpt><trkpt lat="44.9263567" lon="9.61463"><ele>134.0</ele><time>2026-04-29T08:01:47.79Z</time></trkpt><trkpt lat="44.9261967" lon="9.6144749"><ele>134.0</ele><time>2026-04-29T08:01:48.79Z</time></trkpt><trkpt lat="44.9260339" lon="9.6143242"><ele>134.0</ele><time>2026-04-29T08:01:49.79Z</time></trkpt><trkpt lat="44.9258687" lon="9.6141766"><ele>134.0</ele><time>2026-04-29T08:01:50.79Z</time></trkpt><trkpt lat="44.9257081" lon="9.614035"><ele>134.0</ele><time>2026-04-29T08:01:51.79Z</time></trkpt><trkpt lat="44.9255358" lon="9.6138828"><ele>134.0</ele><time>2026-04-29T08:01:52.79Z</time></trkpt><trkpt lat="44.9253691" lon="9.6137352"><ele>134.0</ele><time>2026-04-29T08:01:53.79Z</time></trkpt><trkpt lat="44.9252005" lon="9.6135867"><ele>133.66666666666666</ele><time>2026-04-29T08:01:54.79Z</time></trkpt><trkpt lat="44.9250313" lon="9.6134382"><ele>133.33333333333334</ele><time>2026-04-29T08:01:55.79Z</time></trkpt><trkpt lat="44.9248612" lon="9.6132885"><ele>133.0</ele><time>2026-04-29T08:01:56.79Z</time></trkpt><trkpt lat="44.9246904" lon="9.6131374"><ele>133.0</ele><time>2026-04-29T08:01:57.789Z</time></trkpt><trkpt lat="44.9245189" lon="9.6129851"><ele>133.0</ele><time>2026-04-29T08:01:58.79Z</time></trkpt><trkpt lat="44.9243513" lon="9.6128366"><ele>133.0</ele><time>2026-04-29T08:01:59.79Z</time></trkpt><trkpt lat="44.9241713" lon="9.612676"><ele>132.33333333333334</ele><time>2026-04-29T08:02:00.79Z</time></trkpt><trkpt lat="44.9239972" lon="9.61252"><ele>131.66666666666666</ele><time>2026-04-29T08:02:01.79Z</time></trkpt><trkpt lat="44.9238219" lon="9.6123627"><ele>131.0</ele><time>2026-04-29T08:02:02.79Z</time></trkpt><trkpt lat="44.9236457" lon="9.6122049"><ele>131.0</ele><time>2026-04-29T08:02:03.79Z</time></trkpt><trkpt lat="44.9234691" lon="9.6120464"><ele>131.0</ele><time>2026-04-29T08:02:04.789Z</time></trkpt><trkpt lat="44.9232939" lon="9.6118842"><ele>131.0</ele><time>2026-04-29T08:02:05.79Z</time></trkpt><trkpt lat="44.923121" lon="9.6117164"><ele>131.66666666666666</ele><time>2026-04-29T08:02:06.79Z</time></trkpt><trkpt lat="44.9229554" lon="9.6115479"><ele>132.33333333333334</ele><time>2026-04-29T08:02:07.79Z</time></trkpt><trkpt lat="44.9227821" lon="9.6113631"><ele>133.0</ele><time>2026-04-29T08:02:08.79Z</time></trkpt><trkpt lat="44.9226147" lon="9.6111819"><ele>132.33333333333334</ele><time>2026-04-29T08:02:09.79Z</time></trkpt><trkpt lat="44.9224474" lon="9.6109989"><ele>131.66666666666666</ele><time>2026-04-29T08:02:10.79Z</time></trkpt><trkpt lat="44.9222804" lon="9.6108151"><ele>131.0</ele><time>2026-04-29T08:02:11.79Z</time></trkpt><trkpt lat="44.9221136" lon="9.6106298"><ele>131.0</ele><time>2026-04-29T08:02:12.79Z</time></trkpt><trkpt lat="44.9219469" lon="9.6104441"><ele>131.0</ele><time>2026-04-29T08:02:13.79Z</time></trkpt><trkpt lat="44.9217804" lon="9.6102573"><ele>131.0</ele><time>2026-04-29T08:02:14.79Z</time></trkpt><trkpt lat="44.921619" lon="9.6100779"><ele>131.33333333333331</ele><time>2026-04-29T08:02:15.79Z</time></trkpt><trkpt lat="44.9214469" lon="9.6098876"><ele>131.66666666666666</ele><time>2026-04-29T08:02:16.79Z</time></trkpt><trkpt lat="44.921281" lon="9.6097041"><ele>132.0</ele><time>2026-04-29T08:02:17.79Z</time></trkpt><trkpt lat="44.9211163" lon="9.6095213"><ele>131.66666666666666</ele><time>2026-04-29T08:02:18.79Z</time></trkpt><trkpt lat="44.9209514" lon="9.6093386"><ele>131.33333333333331</ele><time>2026-04-29T08:02:19.79Z</time></trkpt><trkpt lat="44.9207859" lon="9.6091577"><ele>131.0</ele><time>2026-04-29T08:02:20.79Z</time></trkpt><trkpt lat="44.9206247" lon="9.6089839"><ele>131.66666666666666</ele><time>2026-04-29T08:02:21.79Z</time></trkpt><trkpt lat="44.9204655" lon="9.6088179"><ele>132.33333333333334</ele><time>2026-04-29T08:02:22.79Z</time></trkpt><trkpt lat="44.9203116" lon="9.6086653"><ele>133.0</ele><time>2026-04-29T08:02:23.789Z</time></trkpt><trkpt lat="44.9201453" lon="9.6085122"><ele>133.66666666666669</ele><time>2026-04-29T08:02:24.789Z</time></trkpt><trkpt lat="44.9199825" lon="9.6083745"><ele>134.33333333333334</ele><time>2026-04-29T08:02:25.79Z</time></trkpt><trkpt lat="44.9198175" lon="9.6082481"><ele>135.0</ele><time>2026-04-29T08:02:26.79Z</time></trkpt><trkpt lat="44.9196519" lon="9.6081295"><ele>135.0</ele><time>2026-04-29T08:02:27.79Z</time></trkpt><trkpt lat="44.9194867" lon="9.6080153"><ele>135.0</ele><time>2026-04-29T08:02:28.79Z</time></trkpt><trkpt lat="44.9193219" lon="9.6079033"><ele>135.0</ele><time>2026-04-29T08:02:29.789Z</time></trkpt><trkpt lat="44.9191633" lon="9.6077961"><ele>135.33333333333334</ele><time>2026-04-29T08:02:30.79Z</time></trkpt><trkpt lat="44.9190131" lon="9.6076944"><ele>135.66666666666669</ele><time>2026-04-29T08:02:31.79Z</time></trkpt><trkpt lat="44.9188576" lon="9.6075886"><ele>136.0</ele><time>2026-04-29T08:02:32.789Z</time></trkpt><trkpt lat="44.9187081" lon="9.6074883"><ele>136.0</ele><time>2026-04-29T08:02:33.79Z</time></trkpt><trkpt lat="44.9185577" lon="9.6073894"><ele>136.0</ele><time>2026-04-29T08:02:34.79Z</time></trkpt><trkpt lat="44.9184071" lon="9.6072899"><ele>136.0</ele><time>2026-04-29T08:02:35.79Z</time></trkpt><trkpt lat="44.9182557" lon="9.6071871"><ele>136.66666666666669</ele><time>2026-04-29T08:02:36.79Z</time></trkpt><trkpt lat="44.9181069" lon="9.6070843"><ele>137.33333333333334</ele><time>2026-04-29T08:02:37.789Z</time></trkpt><trkpt lat="44.9179558" lon="9.6069779"><ele>138.0</ele><time>2026-04-29T08:02:38.79Z</time></trkpt><trkpt lat="44.9178101" lon="9.6068687"><ele>138.0</ele><time>2026-04-29T08:02:39.79Z</time></trkpt><trkpt lat="44.9176563" lon="9.6067431"><ele>138.0</ele><time>2026-04-29T08:02:40.789Z</time></trkpt><trkpt lat="44.9175115" lon="9.6066108"><ele>138.0</ele><time>2026-04-29T08:02:41.789Z</time></trkpt><trkpt lat="44.9173696" lon="9.6064717"><ele>138.0</ele><time>2026-04-29T08:02:42.79Z</time></trkpt><trkpt lat="44.9172298" lon="9.6063288"><ele>138.0</ele><time>2026-04-29T08:02:43.79Z</time></trkpt><trkpt lat="44.9170905" lon="9.6061835"><ele>138.0</ele><time>2026-04-29T08:02:44.79Z</time></trkpt><trkpt lat="44.9169519" lon="9.6060377"><ele>138.0</ele><time>2026-04-29T08:02:45.789Z</time></trkpt><trkpt lat="44.9168158" lon="9.6058941"><ele>138.0</ele><time>2026-04-29T08:02:46.79Z</time></trkpt><trkpt lat="44.9166895" lon="9.6057572"><ele>138.0</ele><time>2026-04-29T08:02:47.79Z</time></trkpt><trkpt lat="44.9165614" lon="9.6056077"><ele>139.0</ele><time>2026-04-29T08:02:48.79Z</time></trkpt><trkpt lat="44.9164419" lon="9.6054569"><ele>140.0</ele><time>2026-04-29T08:02:49.79Z</time></trkpt><trkpt lat="44.9163277" lon="9.6052982"><ele>141.0</ele><time>2026-04-29T08:02:50.79Z</time></trkpt><trkpt lat="44.9162186" lon="9.6051331"><ele>141.0</ele><time>2026-04-29T08:02:51.79Z</time></trkpt><trkpt lat="44.9161126" lon="9.6049617"><ele>141.0</ele><time>2026-04-29T08:02:52.79Z</time></trkpt><trkpt lat="44.9160106" lon="9.6047838"><ele>141.0</ele><time>2026-04-29T08:02:53.79Z</time></trkpt><trkpt lat="44.915915" lon="9.6045975"><ele>141.66666666666666</ele><time>2026-04-29T08:02:54.79Z</time></trkpt><trkpt lat="44.9158294" lon="9.6044081"><ele>142.33333333333331</ele><time>2026-04-29T08:02:55.79Z</time></trkpt><trkpt lat="44.91575" lon="9.6041975"><ele>143.0</ele><time>2026-04-29T08:02:56.818Z</time></trkpt><trkpt lat="44.9156667" lon="9.6039855"><ele>143.0</ele><time>2026-04-29T08:02:57.819Z</time></trkpt><trkpt lat="44.9155843" lon="9.6037695"><ele>143.0</ele><time>2026-04-29T08:02:58.818Z</time></trkpt><trkpt lat="44.9154979" lon="9.6035503"><ele>143.0</ele><time>2026-04-29T08:02:59.819Z</time></trkpt><trkpt lat="44.9154084" lon="9.6033266"><ele>142.33333333333331</ele><time>2026-04-29T08:03:00.819Z</time></trkpt><trkpt lat="44.9153156" lon="9.6030995"><ele>141.66666666666666</ele><time>2026-04-29T08:03:01.818Z</time></trkpt><trkpt lat="44.915221" lon="9.6028663"><ele>141.0</ele><time>2026-04-29T08:03:02.819Z</time></trkpt><trkpt lat="44.9151275" lon="9.6026276"><ele>139.66666666666666</ele><time>2026-04-29T08:03:03.819Z</time></trkpt><trkpt lat="44.9150297" lon="9.6023856"><ele>138.33333333333331</ele><time>2026-04-29T08:03:04.819Z</time></trkpt><trkpt lat="44.9149344" lon="9.6021397"><ele>137.0</ele><time>2026-04-29T08:03:05.79Z</time></trkpt><trkpt lat="44.9148349" lon="9.6018901"><ele>136.33333333333331</ele><time>2026-04-29T08:03:06.791Z</time></trkpt><trkpt lat="44.9147328" lon="9.6016381"><ele>135.66666666666666</ele><time>2026-04-29T08:03:07.819Z</time></trkpt><trkpt lat="44.9146326" lon="9.6013836"><ele>135.0</ele><time>2026-04-29T08:03:08.818Z</time></trkpt><trkpt lat="44.9145308" lon="9.601129"><ele>134.66666666666666</ele><time>2026-04-29T08:03:09.818Z</time></trkpt><trkpt lat="44.9144296" lon="9.6008748"><ele>134.33333333333331</ele><time>2026-04-29T08:03:10.819Z</time></trkpt><trkpt lat="44.91433" lon="9.6006287"><ele>134.0</ele><time>2026-04-29T08:03:11.819Z</time></trkpt><trkpt lat="44.9142348" lon="9.6003935"><ele>134.66666666666666</ele><time>2026-04-29T08:03:12.818Z</time></trkpt><trkpt lat="44.9141455" lon="9.6001709"><ele>135.33333333333334</ele><time>2026-04-29T08:03:13.818Z</time></trkpt><trkpt lat="44.9140634" lon="9.5999599"><ele>136.0</ele><time>2026-04-29T08:03:14.819Z</time></trkpt><trkpt lat="44.9139826" lon="9.599754"><ele>136.0</ele><time>2026-04-29T08:03:15.792Z</time></trkpt><trkpt lat="44.9139036" lon="9.5995586"><ele>136.0</ele><time>2026-04-29T08:03:16.79Z</time></trkpt><trkpt lat="44.9138249" lon="9.5993637"><ele>136.0</ele><time>2026-04-29T08:03:17.794Z</time></trkpt><trkpt lat="44.9137487" lon="9.5991707"><ele>136.33333333333334</ele><time>2026-04-29T08:03:18.793Z</time></trkpt><trkpt lat="44.9136717" lon="9.5989719"><ele>136.66666666666666</ele><time>2026-04-29T08:03:19.788Z</time></trkpt><trkpt lat="44.9135885" lon="9.5987595"><ele>137.0</ele><time>2026-04-29T08:03:20.791Z</time></trkpt><trkpt lat="44.9135109" lon="9.5985615"><ele>137.25</ele><time>2026-04-29T08:03:21.791Z</time></trkpt><trkpt lat="44.9134362" lon="9.5983699"><ele>137.5</ele><time>2026-04-29T08:03:22.791Z</time></trkpt><trkpt lat="44.9133639" lon="9.5981886"><ele>137.75</ele><time>2026-04-29T08:03:23.791Z</time></trkpt><trkpt lat="44.9132967" lon="9.598019"><ele>138.0</ele><time>2026-04-29T08:03:24.791Z</time></trkpt><trkpt lat="44.9132326" lon="9.5978563"><ele>137.75</ele><time>2026-04-29T08:03:25.791Z</time></trkpt><trkpt lat="44.913173" lon="9.5977065"><ele>137.5</ele><time>2026-04-29T08:03:26.791Z</time></trkpt><trkpt lat="44.9131144" lon="9.5975646"><ele>137.25</ele><time>2026-04-29T08:03:27.791Z</time></trkpt><trkpt lat="44.9130487" lon="9.5974196"><ele>137.0</ele><time>2026-04-29T08:03:28.79Z</time></trkpt><trkpt lat="44.9129774" lon="9.5972799"><ele>137.0</ele><time>2026-04-29T08:03:29.791Z</time></trkpt><trkpt lat="44.9129003" lon="9.5971455"><ele>137.0</ele><time>2026-04-29T08:03:30.791Z</time></trkpt><trkpt lat="44.9128103" lon="9.5970087"><ele>137.0</ele><time>2026-04-29T08:03:31.791Z</time></trkpt><trkpt lat="44.9127103" lon="9.5968738"><ele>137.0</ele><time>2026-04-29T08:03:32.79Z</time></trkpt><trkpt lat="44.912601" lon="9.5967455"><ele>137.5</ele><time>2026-04-29T08:03:33.79Z</time></trkpt><trkpt lat="44.9124809" lon="9.5966263"><ele>138.0</ele><time>2026-04-29T08:03:34.791Z</time></trkpt><trkpt lat="44.9123569" lon="9.5965227"><ele>138.5</ele><time>2026-04-29T08:03:35.791Z</time></trkpt><trkpt lat="44.9122239" lon="9.5964263"><ele>139.0</ele><time>2026-04-29T08:03:36.791Z</time></trkpt><trkpt lat="44.9120964" lon="9.5963481"><ele>139.0</ele><time>2026-04-29T08:03:37.791Z</time></trkpt><trkpt lat="44.9119614" lon="9.5962717"><ele>139.0</ele><time>2026-04-29T08:03:38.791Z</time></trkpt><trkpt lat="44.911832" lon="9.5962016"><ele>139.0</ele><time>2026-04-29T08:03:39.791Z</time></trkpt><trkpt lat="44.9117059" lon="9.5961342"><ele>139.0</ele><time>2026-04-29T08:03:40.791Z</time></trkpt><trkpt lat="44.911584" lon="9.5960712"><ele>137.25</ele><time>2026-04-29T08:03:41.791Z</time></trkpt><trkpt lat="44.911465" lon="9.5960111"><ele>135.5</ele><time>2026-04-29T08:03:42.791Z</time></trkpt><trkpt lat="44.9113453" lon="9.5959485"><ele>133.75</ele><time>2026-04-29T08:03:43.791Z</time></trkpt><trkpt lat="44.911221" lon="9.5958822"><ele>132.0</ele><time>2026-04-29T08:03:44.79Z</time></trkpt><trkpt lat="44.9111043" lon="9.5958206"><ele>132.0</ele><time>2026-04-29T08:03:45.791Z</time></trkpt><trkpt lat="44.91098" lon="9.5957546"><ele>132.0</ele><time>2026-04-29T08:03:46.791Z</time></trkpt><trkpt lat="44.9108563" lon="9.5956884"><ele>132.0</ele><time>2026-04-29T08:03:47.791Z</time></trkpt><trkpt lat="44.9107346" lon="9.595623"><ele>132.0</ele><time>2026-04-29T08:03:48.791Z</time></trkpt><trkpt lat="44.910614" lon="9.5955576"><ele>131.75</ele><time>2026-04-29T08:03:49.791Z</time></trkpt><trkpt lat="44.9104993" lon="9.5954885"><ele>131.5</ele><time>2026-04-29T08:03:50.79Z</time></trkpt><trkpt lat="44.9103864" lon="9.5954091"><ele>131.25</ele><time>2026-04-29T08:03:51.791Z</time></trkpt><trkpt lat="44.9102708" lon="9.5953143"><ele>131.0</ele><time>2026-04-29T08:03:52.791Z</time></trkpt><trkpt lat="44.9101633" lon="9.5952158"><ele>131.25</ele><time>2026-04-29T08:03:53.791Z</time></trkpt><trkpt lat="44.9100627" lon="9.5951123"><ele>131.5</ele><time>2026-04-29T08:03:54.791Z</time></trkpt><trkpt lat="44.9099641" lon="9.5949974"><ele>131.75</ele><time>2026-04-29T08:03:55.791Z</time></trkpt><trkpt lat="44.9098756" lon="9.5948818"><ele>132.0</ele><time>2026-04-29T08:03:56.79Z</time></trkpt><trkpt lat="44.9097911" lon="9.5947608"><ele>132.0</ele><time>2026-04-29T08:03:57.791Z</time></trkpt><trkpt lat="44.9097082" lon="9.5946353"><ele>132.0</ele><time>2026-04-29T08:03:58.79Z</time></trkpt><trkpt lat="44.9096266" lon="9.5945078"><ele>132.0</ele><time>2026-04-29T08:03:59.791Z</time></trkpt><trkpt lat="44.9095374" lon="9.594368"><ele>132.0</ele><time>2026-04-29T08:04:00.791Z</time></trkpt><trkpt lat="44.9094545" lon="9.594241"><ele>131.75</ele><time>2026-04-29T08:04:01.791Z</time></trkpt><trkpt lat="44.9093679" lon="9.5941085"><ele>131.5</ele><time>2026-04-29T08:04:02.791Z</time></trkpt><trkpt lat="44.9092799" lon="9.5939707"><ele>131.25</ele><time>2026-04-29T08:04:03.791Z</time></trkpt><trkpt lat="44.9091967" lon="9.5938372"><ele>131.0</ele><time>2026-04-29T08:04:04.791Z</time></trkpt><trkpt lat="44.9091155" lon="9.5937092"><ele>131.75</ele><time>2026-04-29T08:04:05.791Z</time></trkpt><trkpt lat="44.909036" lon="9.5935858"><ele>132.5</ele><time>2026-04-29T08:04:06.791Z</time></trkpt><trkpt lat="44.9089531" lon="9.5934577"><ele>133.25</ele><time>2026-04-29T08:04:07.791Z</time></trkpt><trkpt lat="44.9088669" lon="9.5933239"><ele>134.0</ele><time>2026-04-29T08:04:08.791Z</time></trkpt><trkpt lat="44.9087855" lon="9.5931981"><ele>134.0</ele><time>2026-04-29T08:04:09.791Z</time></trkpt><trkpt lat="44.9086999" lon="9.5930666"><ele>134.0</ele><time>2026-04-29T08:04:10.791Z</time></trkpt><trkpt lat="44.9086101" lon="9.5929296"><ele>134.0</ele><time>2026-04-29T08:04:11.791Z</time></trkpt><trkpt lat="44.9085195" lon="9.5927981"><ele>134.0</ele><time>2026-04-29T08:04:12.79Z</time></trkpt><trkpt lat="44.9084236" lon="9.592671"><ele>134.0</ele><time>2026-04-29T08:04:13.791Z</time></trkpt><trkpt lat="44.9083241" lon="9.5925541"><ele>134.0</ele><time>2026-04-29T08:04:14.791Z</time></trkpt><trkpt lat="44.9082145" lon="9.5924395"><ele>134.0</ele><time>2026-04-29T08:04:15.791Z</time></trkpt><trkpt lat="44.9080937" lon="9.5923273"><ele>134.0</ele><time>2026-04-29T08:04:16.791Z</time></trkpt><trkpt lat="44.9079727" lon="9.5922253"><ele>134.0</ele><time>2026-04-29T08:04:17.791Z</time></trkpt><trkpt lat="44.9078391" lon="9.5921218"><ele>134.0</ele><time>2026-04-29T08:04:18.791Z</time></trkpt><trkpt lat="44.9076967" lon="9.5920123"><ele>134.0</ele><time>2026-04-29T08:04:19.819Z</time></trkpt><trkpt lat="44.9075441" lon="9.5918947"><ele>134.33333333333331</ele><time>2026-04-29T08:04:20.819Z</time></trkpt><trkpt lat="44.9073875" lon="9.591768"><ele>134.66666666666666</ele><time>2026-04-29T08:04:21.818Z</time></trkpt><trkpt lat="44.907222" lon="9.5916406"><ele>135.0</ele><time>2026-04-29T08:04:22.819Z</time></trkpt><trkpt lat="44.9070499" lon="9.5915046"><ele>135.0</ele><time>2026-04-29T08:04:23.818Z</time></trkpt><trkpt lat="44.9068761" lon="9.5913591"><ele>135.0</ele><time>2026-04-29T08:04:24.818Z</time></trkpt><trkpt lat="44.9067043" lon="9.591207"><ele>135.0</ele><time>2026-04-29T08:04:25.819Z</time></trkpt><trkpt lat="44.9065321" lon="9.5910565"><ele>136.66666666666666</ele><time>2026-04-29T08:04:26.819Z</time></trkpt><trkpt lat="44.9063607" lon="9.5909103"><ele>138.33333333333331</ele><time>2026-04-29T08:04:27.789Z</time></trkpt><trkpt lat="44.9061912" lon="9.5907668"><ele>140.0</ele><time>2026-04-29T08:04:28.79Z</time></trkpt><trkpt lat="44.9060255" lon="9.5906274"><ele>140.0</ele><time>2026-04-29T08:04:29.818Z</time></trkpt><trkpt lat="44.9058576" lon="9.5904893"><ele>140.0</ele><time>2026-04-29T08:04:30.818Z</time></trkpt><trkpt lat="44.9056921" lon="9.5903524"><ele>140.0</ele><time>2026-04-29T08:04:31.819Z</time></trkpt><trkpt lat="44.9055301" lon="9.5902162"><ele>140.0</ele><time>2026-04-29T08:04:32.819Z</time></trkpt><trkpt lat="44.9053694" lon="9.5900831"><ele>140.0</ele><time>2026-04-29T08:04:33.819Z</time></trkpt><trkpt lat="44.905216" lon="9.5899581"><ele>140.0</ele><time>2026-04-29T08:04:34.819Z</time></trkpt><trkpt lat="44.9050699" lon="9.5898371"><ele>140.33333333333331</ele><time>2026-04-29T08:04:35.818Z</time></trkpt><trkpt lat="44.9049242" lon="9.5897165"><ele>140.66666666666666</ele><time>2026-04-29T08:04:36.819Z</time></trkpt><trkpt lat="44.9047776" lon="9.5895938"><ele>141.0</ele><time>2026-04-29T08:04:37.792Z</time></trkpt><trkpt lat="44.9046387" lon="9.58948"><ele>141.0</ele><time>2026-04-29T08:04:38.79Z</time></trkpt><trkpt lat="44.9044963" lon="9.589362"><ele>141.0</ele><time>2026-04-29T08:04:39.792Z</time></trkpt><trkpt lat="44.9043516" lon="9.5892399"><ele>141.0</ele><time>2026-04-29T08:04:40.79Z</time></trkpt><trkpt lat="44.9042172" lon="9.5891271"><ele>144.66666666666666</ele><time>2026-04-29T08:04:41.789Z</time></trkpt><trkpt lat="44.9040807" lon="9.5890138"><ele>148.33333333333331</ele><time>2026-04-29T08:04:42.79Z</time></trkpt><trkpt lat="44.9039419" lon="9.5889"><ele>152.0</ele><time>2026-04-29T08:04:43.79Z</time></trkpt><trkpt lat="44.9038108" lon="9.5887929"><ele>152.0</ele><time>2026-04-29T08:04:44.79Z</time></trkpt><trkpt lat="44.903681" lon="9.5886872"><ele>152.0</ele><time>2026-04-29T08:04:45.79Z</time></trkpt><trkpt lat="44.9035551" lon="9.5885862"><ele>152.0</ele><time>2026-04-29T08:04:46.79Z</time></trkpt><trkpt lat="44.9034254" lon="9.5884819"><ele>152.0</ele><time>2026-04-29T08:04:47.789Z</time></trkpt><trkpt lat="44.9032922" lon="9.5883745"><ele>152.0</ele><time>2026-04-29T08:04:48.79Z</time></trkpt><trkpt lat="44.9031675" lon="9.588274"><ele>152.0</ele><time>2026-04-29T08:04:49.79Z</time></trkpt><trkpt lat="44.9030381" lon="9.5881697"><ele>152.0</ele><time>2026-04-29T08:04:50.79Z</time></trkpt><trkpt lat="44.9029072" lon="9.5880629"><ele>152.0</ele><time>2026-04-29T08:04:51.79Z</time></trkpt><trkpt lat="44.9027847" lon="9.5879614"><ele>152.0</ele><time>2026-04-29T08:04:52.79Z</time></trkpt><trkpt lat="44.9026649" lon="9.587859"><ele>152.0</ele><time>2026-04-29T08:04:53.789Z</time></trkpt><trkpt lat="44.9025519" lon="9.5877602"><ele>152.0</ele><time>2026-04-29T08:04:54.79Z</time></trkpt><trkpt lat="44.9024393" lon="9.5876621"><ele>152.0</ele><time>2026-04-29T08:04:55.79Z</time></trkpt><trkpt lat="44.9023299" lon="9.5875669"><ele>153.75</ele><time>2026-04-29T08:04:56.79Z</time></trkpt><trkpt lat="44.9022329" lon="9.587482"><ele>155.5</ele><time>2026-04-29T08:04:57.79Z</time></trkpt><trkpt lat="44.9021332" lon="9.587394"><ele>157.25</ele><time>2026-04-29T08:04:58.79Z</time></trkpt><trkpt lat="44.9020274" lon="9.5873004"><ele>159.0</ele><time>2026-04-29T08:04:59.79Z</time></trkpt><trkpt lat="44.90192" lon="9.5872076"><ele>159.0</ele><time>2026-04-29T08:05:00.79Z</time></trkpt><trkpt lat="44.9018067" lon="9.5871123"><ele>159.0</ele><time>2026-04-29T08:05:01.79Z</time></trkpt><trkpt lat="44.9016917" lon="9.5870168"><ele>159.0</ele><time>2026-04-29T08:05:02.79Z</time></trkpt><trkpt lat="44.9015661" lon="9.5869153"><ele>159.0</ele><time>2026-04-29T08:05:03.789Z</time></trkpt><trkpt lat="44.9014313" lon="9.5868076"><ele>159.0</ele><time>2026-04-29T08:05:04.789Z</time></trkpt><trkpt lat="44.9013" lon="9.5867081"><ele>159.0</ele><time>2026-04-29T08:05:05.819Z</time></trkpt><trkpt lat="44.9011654" lon="9.5866037"><ele>159.0</ele><time>2026-04-29T08:05:06.819Z</time></trkpt><trkpt lat="44.9010336" lon="9.5865108"><ele>160.75</ele><time>2026-04-29T08:05:07.819Z</time></trkpt><trkpt lat="44.9009075" lon="9.5864284"><ele>162.5</ele><time>2026-04-29T08:05:08.818Z</time></trkpt><trkpt lat="44.9007846" lon="9.586354"><ele>164.25</ele><time>2026-04-29T08:05:09.818Z</time></trkpt><trkpt lat="44.9006652" lon="9.5862819"><ele>166.0</ele><time>2026-04-29T08:05:10.819Z</time></trkpt><trkpt lat="44.900537" lon="9.5862143"><ele>162.33333333333334</ele><time>2026-04-29T08:05:11.819Z</time></trkpt><trkpt lat="44.9004019" lon="9.5861561"><ele>158.66666666666666</ele><time>2026-04-29T08:05:12.819Z</time></trkpt><trkpt lat="44.9002526" lon="9.5861028"><ele>155.0</ele><time>2026-04-29T08:05:13.788Z</time></trkpt><trkpt lat="44.9000888" lon="9.5860487"><ele>157.66666666666666</ele><time>2026-04-29T08:05:14.791Z</time></trkpt><trkpt lat="44.8999022" lon="9.5859936"><ele>160.33333333333334</ele><time>2026-04-29T08:05:15.79Z</time></trkpt><trkpt lat="44.8996974" lon="9.5859407"><ele>163.0</ele><time>2026-04-29T08:05:16.792Z</time></trkpt><trkpt lat="44.8994995" lon="9.5858897"><ele>163.0</ele><time>2026-04-29T08:05:17.819Z</time></trkpt><trkpt lat="44.8993057" lon="9.5858287"><ele>163.0</ele><time>2026-04-29T08:05:18.819Z</time></trkpt><trkpt lat="44.8991198" lon="9.5857562"><ele>163.0</ele><time>2026-04-29T08:05:19.818Z</time></trkpt><trkpt lat="44.8989566" lon="9.585688"><ele>164.5</ele><time>2026-04-29T08:05:20.819Z</time></trkpt><trkpt lat="44.8988086" lon="9.5856353"><ele>166.0</ele><time>2026-04-29T08:05:21.819Z</time></trkpt><trkpt lat="44.8986627" lon="9.5855991"><ele>167.5</ele><time>2026-04-29T08:05:22.818Z</time></trkpt><trkpt lat="44.8985221" lon="9.5855919"><ele>169.0</ele><time>2026-04-29T08:05:23.818Z</time></trkpt><trkpt lat="44.8983804" lon="9.5856207"><ele>170.25</ele><time>2026-04-29T08:05:24.819Z</time></trkpt><trkpt lat="44.8982376" lon="9.5856983"><ele>171.5</ele><time>2026-04-29T08:05:25.789Z</time></trkpt><trkpt lat="44.8981042" lon="9.5857747"><ele>172.75</ele><time>2026-04-29T08:05:26.796Z</time></trkpt><trkpt lat="44.8979636" lon="9.5858428"><ele>174.0</ele><time>2026-04-29T08:05:27.788Z</time></trkpt><trkpt lat="44.89782" lon="9.5858786"><ele>174.0</ele><time>2026-04-29T08:05:28.791Z</time></trkpt><trkpt lat="44.8976848" lon="9.58587"><ele>174.0</ele><time>2026-04-29T08:05:29.79Z</time></trkpt><trkpt lat="44.8975437" lon="9.5858197"><ele>174.0</ele><time>2026-04-29T08:05:30.79Z</time></trkpt><trkpt lat="44.8973909" lon="9.5857408"><ele>174.0</ele><time>2026-04-29T08:05:31.789Z</time></trkpt><trkpt lat="44.8972405" lon="9.5856513"><ele>175.66666666666666</ele><time>2026-04-29T08:05:32.79Z</time></trkpt><trkpt lat="44.8970884" lon="9.5855615"><ele>177.33333333333331</ele><time>2026-04-29T08:05:33.79Z</time></trkpt><trkpt lat="44.8969406" lon="9.5854733"><ele>179.0</ele><time>2026-04-29T08:05:34.79Z</time></trkpt><trkpt lat="44.8967894" lon="9.5853842"><ele>177.0</ele><time>2026-04-29T08:05:35.79Z</time></trkpt><trkpt lat="44.8966355" lon="9.5852968"><ele>175.0</ele><time>2026-04-29T08:05:36.79Z</time></trkpt><trkpt lat="44.8964909" lon="9.5852266"><ele>173.0</ele><time>2026-04-29T08:05:37.79Z</time></trkpt><trkpt lat="44.8963363" lon="9.5851639"><ele>173.0</ele><time>2026-04-29T08:05:38.79Z</time></trkpt><trkpt lat="44.896173" lon="9.5851107"><ele>173.0</ele><time>2026-04-29T08:05:39.79Z</time></trkpt><trkpt lat="44.8960137" lon="9.5850655"><ele>173.0</ele><time>2026-04-29T08:05:40.79Z</time></trkpt><trkpt lat="44.8958572" lon="9.5850319"><ele>175.33333333333331</ele><time>2026-04-29T08:05:41.79Z</time></trkpt><trkpt lat="44.8957056" lon="9.5850258"><ele>177.66666666666666</ele><time>2026-04-29T08:05:42.79Z</time></trkpt><trkpt lat="44.8955448" lon="9.5850473"><ele>180.0</ele><time>2026-04-29T08:05:43.79Z</time></trkpt><trkpt lat="44.8953774" lon="9.5850814"><ele>180.0</ele><time>2026-04-29T08:05:44.819Z</time></trkpt><trkpt lat="44.8952009" lon="9.5851259"><ele>180.0</ele><time>2026-04-29T08:05:45.819Z</time></trkpt><trkpt lat="44.8950251" lon="9.5851709"><ele>180.0</ele><time>2026-04-29T08:05:46.818Z</time></trkpt><trkpt lat="44.8948466" lon="9.585207"><ele>181.0</ele><time>2026-04-29T08:05:47.818Z</time></trkpt><trkpt lat="44.8946645" lon="9.5852307"><ele>182.0</ele><time>2026-04-29T08:05:48.819Z</time></trkpt><trkpt lat="44.8944796" lon="9.5852449"><ele>183.0</ele><time>2026-04-29T08:05:49.818Z</time></trkpt><trkpt lat="44.894289" lon="9.5852536"><ele>183.0</ele><time>2026-04-29T08:05:50.818Z</time></trkpt><trkpt lat="44.8940943" lon="9.5852622"><ele>183.0</ele><time>2026-04-29T08:05:51.818Z</time></trkpt><trkpt lat="44.8938971" lon="9.5852674"><ele>183.0</ele><time>2026-04-29T08:05:52.819Z</time></trkpt><trkpt lat="44.8936901" lon="9.5852727"><ele>183.0</ele><time>2026-04-29T08:05:53.819Z</time></trkpt><trkpt lat="44.8934741" lon="9.5852783"><ele>183.0</ele><time>2026-04-29T08:05:54.818Z</time></trkpt><trkpt lat="44.8932575" lon="9.5852852"><ele>183.0</ele><time>2026-04-29T08:05:55.819Z</time></trkpt><trkpt lat="44.893056" lon="9.585291"><ele>183.66666666666666</ele><time>2026-04-29T08:05:56.819Z</time></trkpt><trkpt lat="44.8928546" lon="9.5852966"><ele>184.33333333333331</ele><time>2026-04-29T08:05:57.819Z</time></trkpt><trkpt lat="44.8926584" lon="9.5853007"><ele>185.0</ele><time>2026-04-29T08:05:58.819Z</time></trkpt><trkpt lat="44.8924629" lon="9.5853043"><ele>187.0</ele><time>2026-04-29T08:05:59.819Z</time></trkpt><trkpt lat="44.8922681" lon="9.5853086"><ele>189.0</ele><time>2026-04-29T08:06:00.817Z</time></trkpt><trkpt lat="44.8920723" lon="9.5853141"><ele>191.0</ele><time>2026-04-29T08:06:01.818Z</time></trkpt><trkpt lat="44.8918747" lon="9.5853203"><ele>190.66666666666666</ele><time>2026-04-29T08:06:02.819Z</time></trkpt><trkpt lat="44.8916829" lon="9.5853265"><ele>190.33333333333334</ele><time>2026-04-29T08:06:03.819Z</time></trkpt><trkpt lat="44.8914976" lon="9.5853322"><ele>190.0</ele><time>2026-04-29T08:06:04.819Z</time></trkpt><trkpt lat="44.8913155" lon="9.585337"><ele>190.0</ele><time>2026-04-29T08:06:05.819Z</time></trkpt><trkpt lat="44.8911389" lon="9.5853431"><ele>190.0</ele><time>2026-04-29T08:06:06.819Z</time></trkpt><trkpt lat="44.8909682" lon="9.5853501"><ele>190.0</ele><time>2026-04-29T08:06:07.818Z</time></trkpt><trkpt lat="44.890802" lon="9.5853596"><ele>190.33333333333334</ele><time>2026-04-29T08:06:08.817Z</time></trkpt><trkpt lat="44.8906379" lon="9.5853764"><ele>190.66666666666666</ele><time>2026-04-29T08:06:09.819Z</time></trkpt><trkpt lat="44.8904722" lon="9.5854022"><ele>191.0</ele><time>2026-04-29T08:06:10.819Z</time></trkpt><trkpt lat="44.8903101" lon="9.5854377"><ele>191.0</ele><time>2026-04-29T08:06:11.818Z</time></trkpt><trkpt lat="44.8901519" lon="9.5854832"><ele>191.0</ele><time>2026-04-29T08:06:12.818Z</time></trkpt><trkpt lat="44.8899969" lon="9.5855201"><ele>191.0</ele><time>2026-04-29T08:06:13.818Z</time></trkpt><trkpt lat="44.889843" lon="9.5855338"><ele>191.5</ele><time>2026-04-29T08:06:14.818Z</time></trkpt><trkpt lat="44.8896967" lon="9.5855079"><ele>192.0</ele><time>2026-04-29T08:06:15.818Z</time></trkpt><trkpt lat="44.8895654" lon="9.5854482"><ele>192.5</ele><time>2026-04-29T08:06:16.819Z</time></trkpt><trkpt lat="44.8894455" lon="9.5853396"><ele>193.0</ele><time>2026-04-29T08:06:17.818Z</time></trkpt><trkpt lat="44.88933" lon="9.5851899"><ele>191.66666666666666</ele><time>2026-04-29T08:06:18.819Z</time></trkpt><trkpt lat="44.8892177" lon="9.5850247"><ele>190.33333333333331</ele><time>2026-04-29T08:06:19.818Z</time></trkpt><trkpt lat="44.8891169" lon="9.5848491"><ele>189.0</ele><time>2026-04-29T08:06:20.819Z</time></trkpt><trkpt lat="44.8890236" lon="9.5846741"><ele>186.33333333333334</ele><time>2026-04-29T08:06:21.819Z</time></trkpt><trkpt lat="44.8889278" lon="9.5845027"><ele>183.66666666666669</ele><time>2026-04-29T08:06:22.818Z</time></trkpt><trkpt lat="44.8888259" lon="9.5843463"><ele>181.0</ele><time>2026-04-29T08:06:23.818Z</time></trkpt><trkpt lat="44.8887119" lon="9.584218"><ele>181.0</ele><time>2026-04-29T08:06:24.819Z</time></trkpt><trkpt lat="44.8885895" lon="9.5841267"><ele>181.0</ele><time>2026-04-29T08:06:25.818Z</time></trkpt><trkpt lat="44.8884593" lon="9.5840786"><ele>181.0</ele><time>2026-04-29T08:06:26.819Z</time></trkpt><trkpt lat="44.8883224" lon="9.5840722"><ele>181.0</ele><time>2026-04-29T08:06:27.818Z</time></trkpt><trkpt lat="44.8881865" lon="9.5840912"><ele>181.75</ele><time>2026-04-29T08:06:28.819Z</time></trkpt><trkpt lat="44.8880493" lon="9.5841221"><ele>182.5</ele><time>2026-04-29T08:06:29.818Z</time></trkpt><trkpt lat="44.8879179" lon="9.5841313"><ele>183.25</ele><time>2026-04-29T08:06:30.817Z</time></trkpt><trkpt lat="44.8877971" lon="9.5841019"><ele>184.0</ele><time>2026-04-29T08:06:31.818Z</time></trkpt><trkpt lat="44.8876834" lon="9.5840251"><ele>184.0</ele><time>2026-04-29T08:06:32.819Z</time></trkpt><trkpt lat="44.8875856" lon="9.5839038"><ele>184.0</ele><time>2026-04-29T08:06:33.819Z</time></trkpt><trkpt lat="44.8874951" lon="9.5837597"><ele>184.0</ele><time>2026-04-29T08:06:34.819Z</time></trkpt><trkpt lat="44.8874052" lon="9.5836027"><ele>184.0</ele><time>2026-04-29T08:06:35.818Z</time></trkpt><trkpt lat="44.8873076" lon="9.5834789"><ele>183.0</ele><time>2026-04-29T08:06:36.819Z</time></trkpt><trkpt lat="44.88719" lon="9.5833944"><ele>182.0</ele><time>2026-04-29T08:06:37.819Z</time></trkpt><trkpt lat="44.8870566" lon="9.5833405"><ele>181.0</ele><time>2026-04-29T08:06:38.819Z</time></trkpt><trkpt lat="44.8869149" lon="9.583325"><ele>180.0</ele><time>2026-04-29T08:06:39.818Z</time></trkpt><trkpt lat="44.8867777" lon="9.5833466"><ele>179.75</ele><time>2026-04-29T08:06:40.819Z</time></trkpt><trkpt lat="44.8866459" lon="9.5833762"><ele>179.5</ele><time>2026-04-29T08:06:41.819Z</time></trkpt><trkpt lat="44.8865173" lon="9.5833869"><ele>179.25</ele><time>2026-04-29T08:06:42.819Z</time></trkpt><trkpt lat="44.8863899" lon="9.5833549"><ele>179.0</ele><time>2026-04-29T08:06:43.818Z</time></trkpt><trkpt lat="44.8862706" lon="9.583283"><ele>179.0</ele><time>2026-04-29T08:06:44.818Z</time></trkpt><trkpt lat="44.8861699" lon="9.5831638"><ele>179.0</ele><time>2026-04-29T08:06:45.817Z</time></trkpt><trkpt lat="44.8860845" lon="9.5830079"><ele>179.0</ele><time>2026-04-29T08:06:46.818Z</time></trkpt><trkpt lat="44.8859984" lon="9.5828369"><ele>179.0</ele><time>2026-04-29T08:06:47.819Z</time></trkpt><trkpt lat="44.8859056" lon="9.5826471"><ele>179.33333333333331</ele><time>2026-04-29T08:06:48.819Z</time></trkpt><trkpt lat="44.8858078" lon="9.5824421"><ele>179.66666666666666</ele><time>2026-04-29T08:06:49.819Z</time></trkpt><trkpt lat="44.8857025" lon="9.5822318"><ele>180.0</ele><time>2026-04-29T08:06:50.819Z</time></trkpt><trkpt lat="44.8856186" lon="9.5820237"><ele>178.0</ele><time>2026-04-29T08:06:51.818Z</time></trkpt><trkpt lat="44.8855596" lon="9.5818035"><ele>176.0</ele><time>2026-04-29T08:06:52.817Z</time></trkpt><trkpt lat="44.8855287" lon="9.5815744"><ele>174.0</ele><time>2026-04-29T08:06:53.819Z</time></trkpt><trkpt lat="44.8855093" lon="9.5813487"><ele>173.33333333333334</ele><time>2026-04-29T08:06:54.819Z</time></trkpt><trkpt lat="44.8854876" lon="9.5811225"><ele>172.66666666666669</ele><time>2026-04-29T08:06:55.818Z</time></trkpt><trkpt lat="44.8854485" lon="9.5808979"><ele>172.0</ele><time>2026-04-29T08:06:56.817Z</time></trkpt><trkpt lat="44.8853849" lon="9.580672"><ele>172.0</ele><time>2026-04-29T08:06:57.819Z</time></trkpt><trkpt lat="44.8853012" lon="9.5804482"><ele>172.0</ele><time>2026-04-29T08:06:58.819Z</time></trkpt><trkpt lat="44.8852113" lon="9.5802196"><ele>172.0</ele><time>2026-04-29T08:06:59.819Z</time></trkpt><trkpt lat="44.8851324" lon="9.5799791"><ele>174.33333333333334</ele><time>2026-04-29T08:07:00.818Z</time></trkpt><trkpt lat="44.8850624" lon="9.5797231"><ele>176.66666666666666</ele><time>2026-04-29T08:07:01.818Z</time></trkpt><trkpt lat="44.884999" lon="9.5794554"><ele>179.0</ele><time>2026-04-29T08:07:02.819Z</time></trkpt><trkpt lat="44.8849458" lon="9.5791738"><ele>179.0</ele><time>2026-04-29T08:07:03.817Z</time></trkpt><trkpt lat="44.8848942" lon="9.5788819"><ele>179.0</ele><time>2026-04-29T08:07:04.818Z</time></trkpt><trkpt lat="44.8848409" lon="9.5785851"><ele>179.0</ele><time>2026-04-29T08:07:05.818Z</time></trkpt><trkpt lat="44.884788" lon="9.5782988"><ele>178.33333333333331</ele><time>2026-04-29T08:07:06.819Z</time></trkpt><trkpt lat="44.8847472" lon="9.5780111"><ele>177.66666666666666</ele><time>2026-04-29T08:07:07.819Z</time></trkpt><trkpt lat="44.8847183" lon="9.5777175"><ele>177.0</ele><time>2026-04-29T08:07:08.818Z</time></trkpt><trkpt lat="44.8847014" lon="9.5774321"><ele>174.66666666666666</ele><time>2026-04-29T08:07:09.818Z</time></trkpt><trkpt lat="44.8846941" lon="9.577161"><ele>172.33333333333331</ele><time>2026-04-29T08:07:10.819Z</time></trkpt><trkpt lat="44.8846867" lon="9.5769204"><ele>170.0</ele><time>2026-04-29T08:07:11.819Z</time></trkpt><trkpt lat="44.8846743" lon="9.5767084"><ele>168.75</ele><time>2026-04-29T08:07:12.817Z</time></trkpt><trkpt lat="44.88464" lon="9.5765228"><ele>167.5</ele><time>2026-04-29T08:07:13.819Z</time></trkpt><trkpt lat="44.8845723" lon="9.5763658"><ele>166.25</ele><time>2026-04-29T08:07:14.819Z</time></trkpt><trkpt lat="44.8844724" lon="9.5762354"><ele>165.0</ele><time>2026-04-29T08:07:15.819Z</time></trkpt><trkpt lat="44.8843478" lon="9.5761221"><ele>167.0</ele><time>2026-04-29T08:07:16.819Z</time></trkpt><trkpt lat="44.8842194" lon="9.5760189"><ele>169.0</ele><time>2026-04-29T08:07:17.819Z</time></trkpt><trkpt lat="44.8840968" lon="9.5759204"><ele>171.0</ele><time>2026-04-29T08:07:18.819Z</time></trkpt><trkpt lat="44.883997" lon="9.5757999"><ele>173.0</ele><time>2026-04-29T08:07:19.819Z</time></trkpt><trkpt lat="44.8839215" lon="9.575659"><ele>173.0</ele><time>2026-04-29T08:07:20.819Z</time></trkpt><trkpt lat="44.8838696" lon="9.5754891"><ele>173.0</ele><time>2026-04-29T08:07:21.819Z</time></trkpt><trkpt lat="44.8838402" lon="9.575286"><ele>173.0</ele><time>2026-04-29T08:07:22.818Z</time></trkpt><trkpt lat="44.8838314" lon="9.5750486"><ele>173.0</ele><time>2026-04-29T08:07:23.818Z</time></trkpt><trkpt lat="44.8838457" lon="9.5747933"><ele>171.33333333333331</ele><time>2026-04-29T08:07:24.819Z</time></trkpt><trkpt lat="44.883876" lon="9.5745332"><ele>169.66666666666666</ele><time>2026-04-29T08:07:25.819Z</time></trkpt><trkpt lat="44.883912" lon="9.5743027"><ele>168.0</ele><time>2026-04-29T08:07:26.819Z</time></trkpt><trkpt lat="44.8839391" lon="9.5740793"><ele>168.0</ele><time>2026-04-29T08:07:27.819Z</time></trkpt><trkpt lat="44.883934" lon="9.5738539"><ele>168.0</ele><time>2026-04-29T08:07:28.819Z</time></trkpt><trkpt lat="44.8838973" lon="9.5736221"><ele>168.0</ele><time>2026-04-29T08:07:29.819Z</time></trkpt><trkpt lat="44.8838325" lon="9.573388"><ele>168.0</ele><time>2026-04-29T08:07:30.819Z</time></trkpt><trkpt lat="44.883752" lon="9.5731473"><ele>168.0</ele><time>2026-04-29T08:07:31.818Z</time></trkpt><trkpt lat="44.8836602" lon="9.5728933"><ele>168.0</ele><time>2026-04-29T08:07:32.819Z</time></trkpt><trkpt lat="44.8835702" lon="9.572627"><ele>168.33333333333334</ele><time>2026-04-29T08:07:33.819Z</time></trkpt><trkpt lat="44.8834724" lon="9.5723501"><ele>168.66666666666669</ele><time>2026-04-29T08:07:34.819Z</time></trkpt><trkpt lat="44.8833742" lon="9.5720705"><ele>169.0</ele><time>2026-04-29T08:07:35.817Z</time></trkpt><trkpt lat="44.8832745" lon="9.571795"><ele>169.0</ele><time>2026-04-29T08:07:36.819Z</time></trkpt><trkpt lat="44.8831748" lon="9.571517"><ele>169.0</ele><time>2026-04-29T08:07:37.819Z</time></trkpt><trkpt lat="44.8830786" lon="9.5712425"><ele>169.0</ele><time>2026-04-29T08:07:38.818Z</time></trkpt><trkpt lat="44.8829825" lon="9.5709741"><ele>167.66666666666669</ele><time>2026-04-29T08:07:39.819Z</time></trkpt><trkpt lat="44.8828977" lon="9.5707172"><ele>166.33333333333334</ele><time>2026-04-29T08:07:40.819Z</time></trkpt><trkpt lat="44.8828061" lon="9.5704597"><ele>165.0</ele><time>2026-04-29T08:07:41.819Z</time></trkpt><trkpt lat="44.8827164" lon="9.5702054"><ele>164.33333333333334</ele><time>2026-04-29T08:07:42.818Z</time></trkpt><trkpt lat="44.8826268" lon="9.5699511"><ele>163.66666666666669</ele><time>2026-04-29T08:07:43.819Z</time></trkpt><trkpt lat="44.8825398" lon="9.5697011"><ele>163.0</ele><time>2026-04-29T08:07:44.819Z</time></trkpt><trkpt lat="44.8824537" lon="9.5694541"><ele>165.66666666666669</ele><time>2026-04-29T08:07:45.819Z</time></trkpt><trkpt lat="44.882368" lon="9.5692105"><ele>168.33333333333334</ele><time>2026-04-29T08:07:46.819Z</time></trkpt><trkpt lat="44.8822874" lon="9.5689847"><ele>171.0</ele><time>2026-04-29T08:07:47.819Z</time></trkpt><trkpt lat="44.8822111" lon="9.5687754"><ele>169.66666666666666</ele><time>2026-04-29T08:07:48.818Z</time></trkpt><trkpt lat="44.8821349" lon="9.5685611"><ele>168.33333333333331</ele><time>2026-04-29T08:07:49.818Z</time></trkpt><trkpt lat="44.8820598" lon="9.5683418"><ele>167.0</ele><time>2026-04-29T08:07:50.819Z</time></trkpt><trkpt lat="44.8819809" lon="9.5681196"><ele>167.0</ele><time>2026-04-29T08:07:51.819Z</time></trkpt><trkpt lat="44.8818991" lon="9.5678937"><ele>167.0</ele><time>2026-04-29T08:07:52.819Z</time></trkpt><trkpt lat="44.8818103" lon="9.5676709"><ele>167.0</ele><time>2026-04-29T08:07:53.819Z</time></trkpt><trkpt lat="44.8817054" lon="9.5674545"><ele>167.66666666666666</ele><time>2026-04-29T08:07:54.819Z</time></trkpt><trkpt lat="44.8815853" lon="9.5672371"><ele>168.33333333333334</ele><time>2026-04-29T08:07:55.818Z</time></trkpt><trkpt lat="44.8814444" lon="9.5670239"><ele>169.0</ele><time>2026-04-29T08:07:56.818Z</time></trkpt><trkpt lat="44.8812918" lon="9.5668165"><ele>169.0</ele><time>2026-04-29T08:07:57.819Z</time></trkpt><trkpt lat="44.8811377" lon="9.5666094"><ele>169.0</ele><time>2026-04-29T08:07:58.819Z</time></trkpt><trkpt lat="44.8809822" lon="9.5664019"><ele>169.0</ele><time>2026-04-29T08:07:59.819Z</time></trkpt><trkpt lat="44.8808281" lon="9.566199"><ele>169.0</ele><time>2026-04-29T08:08:00.819Z</time></trkpt><trkpt lat="44.8806779" lon="9.5659998"><ele>169.0</ele><time>2026-04-29T08:08:01.819Z</time></trkpt><trkpt lat="44.88053" lon="9.5657998"><ele>169.0</ele><time>2026-04-29T08:08:02.819Z</time></trkpt><trkpt lat="44.8803816" lon="9.5655998"><ele>169.0</ele><time>2026-04-29T08:08:03.819Z</time></trkpt><trkpt lat="44.8802329" lon="9.5653965"><ele>169.0</ele><time>2026-04-29T08:08:04.819Z</time></trkpt><trkpt lat="44.8800829" lon="9.5651886"><ele>169.0</ele><time>2026-04-29T08:08:05.819Z</time></trkpt><trkpt lat="44.8799238" lon="9.5649718"><ele>170.66666666666669</ele><time>2026-04-29T08:08:06.819Z</time></trkpt><trkpt lat="44.8797705" lon="9.5647596"><ele>172.33333333333334</ele><time>2026-04-29T08:08:07.816Z</time></trkpt><trkpt lat="44.8796172" lon="9.5645562"><ele>174.0</ele><time>2026-04-29T08:08:08.818Z</time></trkpt><trkpt lat="44.8794721" lon="9.5643591"><ele>176.33333333333334</ele><time>2026-04-29T08:08:09.818Z</time></trkpt><trkpt lat="44.8793339" lon="9.5641731"><ele>178.66666666666669</ele><time>2026-04-29T08:08:10.818Z</time></trkpt><trkpt lat="44.8792004" lon="9.5639931"><ele>181.0</ele><time>2026-04-29T08:08:11.819Z</time></trkpt><trkpt lat="44.8790699" lon="9.5638158"><ele>176.0</ele><time>2026-04-29T08:08:12.818Z</time></trkpt><trkpt lat="44.8789431" lon="9.5636433"><ele>171.0</ele><time>2026-04-29T08:08:13.819Z</time></trkpt><trkpt lat="44.8788178" lon="9.5634691"><ele>166.0</ele><time>2026-04-29T08:08:14.819Z</time></trkpt><trkpt lat="44.8786895" lon="9.5632972"><ele>166.0</ele><time>2026-04-29T08:08:15.819Z</time></trkpt><trkpt lat="44.8785634" lon="9.5631272"><ele>166.0</ele><time>2026-04-29T08:08:16.819Z</time></trkpt><trkpt lat="44.8784245" lon="9.5629603"><ele>166.0</ele><time>2026-04-29T08:08:17.819Z</time></trkpt><trkpt lat="44.8782827" lon="9.5627983"><ele>168.66666666666669</ele><time>2026-04-29T08:08:18.819Z</time></trkpt><trkpt lat="44.878133" lon="9.5626422"><ele>171.33333333333334</ele><time>2026-04-29T08:08:19.819Z</time></trkpt><trkpt lat="44.8779781" lon="9.562474"><ele>174.0</ele><time>2026-04-29T08:08:20.819Z</time></trkpt><trkpt lat="44.8778226" lon="9.5623057"><ele>174.0</ele><time>2026-04-29T08:08:21.817Z</time></trkpt><trkpt lat="44.8776664" lon="9.5621392"><ele>174.0</ele><time>2026-04-29T08:08:22.819Z</time></trkpt><trkpt lat="44.877515" lon="9.561984"><ele>174.0</ele><time>2026-04-29T08:08:23.818Z</time></trkpt><trkpt lat="44.8773583" lon="9.5618221"><ele>174.33333333333334</ele><time>2026-04-29T08:08:24.819Z</time></trkpt><trkpt lat="44.877198" lon="9.5616574"><ele>174.66666666666669</ele><time>2026-04-29T08:08:25.819Z</time></trkpt><trkpt lat="44.877038" lon="9.5614927"><ele>175.0</ele><time>2026-04-29T08:08:26.819Z</time></trkpt><trkpt lat="44.8768793" lon="9.5613321"><ele>175.0</ele><time>2026-04-29T08:08:27.819Z</time></trkpt><trkpt lat="44.8767183" lon="9.5611891"><ele>175.0</ele><time>2026-04-29T08:08:28.818Z</time></trkpt><trkpt lat="44.8765481" lon="9.5610715"><ele>175.0</ele><time>2026-04-29T08:08:29.819Z</time></trkpt><trkpt lat="44.8763661" lon="9.5609776"><ele>175.0</ele><time>2026-04-29T08:08:30.819Z</time></trkpt><trkpt lat="44.8761791" lon="9.5609097"><ele>175.0</ele><time>2026-04-29T08:08:31.819Z</time></trkpt><trkpt lat="44.875995" lon="9.5608852"><ele>175.0</ele><time>2026-04-29T08:08:32.819Z</time></trkpt><trkpt lat="44.8758077" lon="9.5608939"><ele>175.33333333333334</ele><time>2026-04-29T08:08:33.819Z</time></trkpt><trkpt lat="44.8756063" lon="9.5609277"><ele>175.66666666666666</ele><time>2026-04-29T08:08:34.819Z</time></trkpt><trkpt lat="44.8754126" lon="9.5609669"><ele>176.0</ele><time>2026-04-29T08:08:35.819Z</time></trkpt><trkpt lat="44.8752327" lon="9.5610084"><ele>176.33333333333331</ele><time>2026-04-29T08:08:36.817Z</time></trkpt><trkpt lat="44.875068" lon="9.5610446"><ele>176.66666666666666</ele><time>2026-04-29T08:08:37.819Z</time></trkpt><trkpt lat="44.8749137" lon="9.5610594"><ele>177.0</ele><time>2026-04-29T08:08:38.819Z</time></trkpt><trkpt lat="44.8747636" lon="9.5610398"><ele>177.0</ele><time>2026-04-29T08:08:39.818Z</time></trkpt><trkpt lat="44.874623" lon="9.560966"><ele>177.0</ele><time>2026-04-29T08:08:40.818Z</time></trkpt><trkpt lat="44.8744788" lon="9.5608635"><ele>177.0</ele><time>2026-04-29T08:08:41.819Z</time></trkpt><trkpt lat="44.8743153" lon="9.5607404"><ele>177.66666666666666</ele><time>2026-04-29T08:08:42.818Z</time></trkpt><trkpt lat="44.8741422" lon="9.5606159"><ele>178.33333333333331</ele><time>2026-04-29T08:08:43.819Z</time></trkpt><trkpt lat="44.8739659" lon="9.5604904"><ele>179.0</ele><time>2026-04-29T08:08:44.818Z</time></trkpt><trkpt lat="44.8737841" lon="9.5603648"><ele>179.66666666666666</ele><time>2026-04-29T08:08:45.819Z</time></trkpt><trkpt lat="44.8736026" lon="9.5602309"><ele>180.33333333333334</ele><time>2026-04-29T08:08:46.819Z</time></trkpt><trkpt lat="44.8734235" lon="9.5601008"><ele>181.0</ele><time>2026-04-29T08:08:47.819Z</time></trkpt><trkpt lat="44.8732546" lon="9.5599784"><ele>181.0</ele><time>2026-04-29T08:08:48.819Z</time></trkpt><trkpt lat="44.8730953" lon="9.5598591"><ele>181.0</ele><time>2026-04-29T08:08:49.818Z</time></trkpt><trkpt lat="44.8729462" lon="9.5597475"><ele>181.0</ele><time>2026-04-29T08:08:50.819Z</time></trkpt><trkpt lat="44.8728048" lon="9.559644"><ele>181.0</ele><time>2026-04-29T08:08:51.819Z</time></trkpt><trkpt lat="44.8726633" lon="9.5595434"><ele>181.0</ele><time>2026-04-29T08:08:52.818Z</time></trkpt><trkpt lat="44.8725214" lon="9.5594433"><ele>181.0</ele><time>2026-04-29T08:08:53.818Z</time></trkpt><trkpt lat="44.8723876" lon="9.5593259"><ele>180.0</ele><time>2026-04-29T08:08:54.818Z</time></trkpt><trkpt lat="44.8722689" lon="9.5591827"><ele>179.0</ele><time>2026-04-29T08:08:55.819Z</time></trkpt><trkpt lat="44.8721731" lon="9.55901"><ele>178.0</ele><time>2026-04-29T08:08:56.819Z</time></trkpt><trkpt lat="44.8720939" lon="9.5588086"><ele>176.66666666666669</ele><time>2026-04-29T08:08:57.819Z</time></trkpt><trkpt lat="44.8720193" lon="9.5585911"><ele>175.33333333333334</ele><time>2026-04-29T08:08:58.818Z</time></trkpt><trkpt lat="44.8719493" lon="9.5583818"><ele>174.0</ele><time>2026-04-29T08:08:59.819Z</time></trkpt><trkpt lat="44.8718758" lon="9.5581928"><ele>174.0</ele><time>2026-04-29T08:09:00.818Z</time></trkpt><trkpt lat="44.8717846" lon="9.5580186"><ele>174.0</ele><time>2026-04-29T08:09:01.818Z</time></trkpt><trkpt lat="44.8716706" lon="9.5578655"><ele>174.0</ele><time>2026-04-29T08:09:02.819Z</time></trkpt><trkpt lat="44.8715407" lon="9.5577359"><ele>175.33333333333334</ele><time>2026-04-29T08:09:03.819Z</time></trkpt><trkpt lat="44.8713938" lon="9.5576389"><ele>176.66666666666669</ele><time>2026-04-29T08:09:04.819Z</time></trkpt><trkpt lat="44.8712393" lon="9.5575838"><ele>178.0</ele><time>2026-04-29T08:09:05.819Z</time></trkpt><trkpt lat="44.8710778" lon="9.5575775"><ele>180.66666666666669</ele><time>2026-04-29T08:09:06.817Z</time></trkpt><trkpt lat="44.8709092" lon="9.5576039"><ele>183.33333333333334</ele><time>2026-04-29T08:09:07.818Z</time></trkpt><trkpt lat="44.8707529" lon="9.5576414"><ele>186.0</ele><time>2026-04-29T08:09:08.819Z</time></trkpt><trkpt lat="44.8706074" lon="9.5576883"><ele>186.0</ele><time>2026-04-29T08:09:09.819Z</time></trkpt><trkpt lat="44.8704696" lon="9.5577292"><ele>186.0</ele><time>2026-04-29T08:09:10.819Z</time></trkpt><trkpt lat="44.8703332" lon="9.5577684"><ele>186.0</ele><time>2026-04-29T08:09:11.819Z</time></trkpt><trkpt lat="44.8701952" lon="9.5578096"><ele>186.0</ele><time>2026-04-29T08:09:12.819Z</time></trkpt><trkpt lat="44.8700629" lon="9.557846"><ele>188.5</ele><time>2026-04-29T08:09:13.819Z</time></trkpt><trkpt lat="44.8699286" lon="9.5578867"><ele>191.0</ele><time>2026-04-29T08:09:14.818Z</time></trkpt><trkpt lat="44.8697891" lon="9.5579122"><ele>193.5</ele><time>2026-04-29T08:09:15.818Z</time></trkpt><trkpt lat="44.8696448" lon="9.5579131"><ele>196.0</ele><time>2026-04-29T08:09:16.819Z</time></trkpt><trkpt lat="44.8694951" lon="9.5578929"><ele>192.33333333333331</ele><time>2026-04-29T08:09:17.819Z</time></trkpt><trkpt lat="44.8693403" lon="9.5578617"><ele>188.66666666666666</ele><time>2026-04-29T08:09:18.818Z</time></trkpt><trkpt lat="44.8691897" lon="9.5578192"><ele>185.0</ele><time>2026-04-29T08:09:19.819Z</time></trkpt><trkpt lat="44.8690501" lon="9.5577655"><ele>185.0</ele><time>2026-04-29T08:09:20.819Z</time></trkpt><trkpt lat="44.8689265" lon="9.5576793"><ele>185.0</ele><time>2026-04-29T08:09:21.819Z</time></trkpt><trkpt lat="44.8688109" lon="9.5575647"><ele>185.0</ele><time>2026-04-29T08:09:22.818Z</time></trkpt><trkpt lat="44.868714" lon="9.5574122"><ele>185.0</ele><time>2026-04-29T08:09:23.819Z</time></trkpt><trkpt lat="44.8686239" lon="9.5572337"><ele>186.0</ele><time>2026-04-29T08:09:24.819Z</time></trkpt><trkpt lat="44.8685358" lon="9.5570269"><ele>187.0</ele><time>2026-04-29T08:09:25.819Z</time></trkpt><trkpt lat="44.8684548" lon="9.5568362"><ele>188.0</ele><time>2026-04-29T08:09:26.819Z</time></trkpt><trkpt lat="44.8683763" lon="9.5566585"><ele>188.0</ele><time>2026-04-29T08:09:27.818Z</time></trkpt><trkpt lat="44.8682849" lon="9.5565041"><ele>188.0</ele><time>2026-04-29T08:09:28.819Z</time></trkpt><trkpt lat="44.8681749" lon="9.5563771"><ele>188.0</ele><time>2026-04-29T08:09:29.819Z</time></trkpt><trkpt lat="44.8680459" lon="9.5562792"><ele>188.0</ele><time>2026-04-29T08:09:30.819Z</time></trkpt><trkpt lat="44.8679045" lon="9.556213"><ele>187.33333333333331</ele><time>2026-04-29T08:09:31.819Z</time></trkpt><trkpt lat="44.867756" lon="9.5561683"><ele>186.66666666666666</ele><time>2026-04-29T08:09:32.818Z</time></trkpt><trkpt lat="44.8676026" lon="9.5561236"><ele>186.0</ele><time>2026-04-29T08:09:33.819Z</time></trkpt><trkpt lat="44.8674442" lon="9.5560763"><ele>186.0</ele><time>2026-04-29T08:09:34.819Z</time></trkpt><trkpt lat="44.8672894" lon="9.5560179"><ele>186.0</ele><time>2026-04-29T08:09:35.819Z</time></trkpt><trkpt lat="44.8671477" lon="9.5559381"><ele>186.0</ele><time>2026-04-29T08:09:36.819Z</time></trkpt><trkpt lat="44.8670156" lon="9.5558226"><ele>186.0</ele><time>2026-04-29T08:09:37.819Z</time></trkpt><trkpt lat="44.8668902" lon="9.5556883"><ele>186.0</ele><time>2026-04-29T08:09:38.819Z</time></trkpt><trkpt lat="44.8667747" lon="9.5555303"><ele>186.0</ele><time>2026-04-29T08:09:39.818Z</time></trkpt><trkpt lat="44.8666549" lon="9.5553721"><ele>186.0</ele><time>2026-04-29T08:09:40.819Z</time></trkpt><trkpt lat="44.8665413" lon="9.5552266"><ele>186.0</ele><time>2026-04-29T08:09:41.817Z</time></trkpt><trkpt lat="44.8664395" lon="9.5550963"><ele>186.0</ele><time>2026-04-29T08:09:42.819Z</time></trkpt><trkpt lat="44.8663475" lon="9.5549731"><ele>186.0</ele><time>2026-04-29T08:09:43.818Z</time></trkpt><trkpt lat="44.8662568" lon="9.5548599"><ele>186.0</ele><time>2026-04-29T08:09:44.819Z</time></trkpt><trkpt lat="44.8661573" lon="9.5547614"><ele>186.0</ele><time>2026-04-29T08:09:45.818Z</time></trkpt><trkpt lat="44.8660461" lon="9.5546879"><ele>186.0</ele><time>2026-04-29T08:09:46.818Z</time></trkpt><trkpt lat="44.8659252" lon="9.5546566"><ele>186.0</ele><time>2026-04-29T08:09:47.818Z</time></trkpt><trkpt lat="44.865794" lon="9.5546596"><ele>188.25</ele><time>2026-04-29T08:09:48.818Z</time></trkpt><trkpt lat="44.8656522" lon="9.5546792"><ele>190.5</ele><time>2026-04-29T08:09:49.818Z</time></trkpt><trkpt lat="44.8655101" lon="9.5547131"><ele>192.75</ele><time>2026-04-29T08:09:50.819Z</time></trkpt><trkpt lat="44.8653733" lon="9.5547476"><ele>195.0</ele><time>2026-04-29T08:09:51.819Z</time></trkpt><trkpt lat="44.8652321" lon="9.5547847"><ele>194.5</ele><time>2026-04-29T08:09:52.819Z</time></trkpt><trkpt lat="44.8650914" lon="9.5548216"><ele>194.0</ele><time>2026-04-29T08:09:53.818Z</time></trkpt><trkpt lat="44.864956" lon="9.5548579"><ele>193.5</ele><time>2026-04-29T08:09:54.818Z</time></trkpt><trkpt lat="44.8648307" lon="9.5548895"><ele>193.0</ele><time>2026-04-29T08:09:55.819Z</time></trkpt><trkpt lat="44.864719" lon="9.5549243"><ele>193.0</ele><time>2026-04-29T08:09:56.819Z</time></trkpt><trkpt lat="44.8646127" lon="9.5549626"><ele>193.0</ele><time>2026-04-29T08:09:57.819Z</time></trkpt><trkpt lat="44.8644968" lon="9.5550023"><ele>193.0</ele><time>2026-04-29T08:09:58.819Z</time></trkpt><trkpt lat="44.8643718" lon="9.5550436"><ele>193.0</ele><time>2026-04-29T08:09:59.819Z</time></trkpt><trkpt lat="44.8642301" lon="9.5550904"><ele>191.75</ele><time>2026-04-29T08:10:00.819Z</time></trkpt><trkpt lat="44.8640794" lon="9.5551358"><ele>190.5</ele><time>2026-04-29T08:10:01.819Z</time></trkpt><trkpt lat="44.8639343" lon="9.5551754"><ele>189.25</ele><time>2026-04-29T08:10:02.819Z</time></trkpt><trkpt lat="44.863798" lon="9.5552067"><ele>188.0</ele><time>2026-04-29T08:10:03.818Z</time></trkpt><trkpt lat="44.8636607" lon="9.5552138"><ele>188.0</ele><time>2026-04-29T08:10:04.819Z</time></trkpt><trkpt lat="44.8635167" lon="9.5551887"><ele>188.0</ele><time>2026-04-29T08:10:05.819Z</time></trkpt><trkpt lat="44.8633758" lon="9.5551333"><ele>188.0</ele><time>2026-04-29T08:10:06.819Z</time></trkpt><trkpt lat="44.8632394" lon="9.5550447"><ele>188.0</ele><time>2026-04-29T08:10:07.819Z</time></trkpt><trkpt lat="44.8631112" lon="9.5549191"><ele>188.0</ele><time>2026-04-29T08:10:08.819Z</time></trkpt><trkpt lat="44.8629983" lon="9.5547638"><ele>188.0</ele><time>2026-04-29T08:10:09.819Z</time></trkpt><trkpt lat="44.8629003" lon="9.5545735"><ele>188.0</ele><time>2026-04-29T08:10:10.818Z</time></trkpt><trkpt lat="44.8628089" lon="9.5543633"><ele>189.0</ele><time>2026-04-29T08:10:11.819Z</time></trkpt><trkpt lat="44.8627218" lon="9.5541581"><ele>190.0</ele><time>2026-04-29T08:10:12.818Z</time></trkpt><trkpt lat="44.8626257" lon="9.5539762"><ele>191.0</ele><time>2026-04-29T08:10:13.818Z</time></trkpt><trkpt lat="44.8625057" lon="9.5538263"><ele>187.33333333333331</ele><time>2026-04-29T08:10:14.818Z</time></trkpt><trkpt lat="44.8623706" lon="9.5536992"><ele>183.66666666666666</ele><time>2026-04-29T08:10:15.819Z</time></trkpt><trkpt lat="44.8622296" lon="9.5535835"><ele>180.0</ele><time>2026-04-29T08:10:16.819Z</time></trkpt><trkpt lat="44.8620923" lon="9.5534801"><ele>180.0</ele><time>2026-04-29T08:10:17.819Z</time></trkpt><trkpt lat="44.8619607" lon="9.5533797"><ele>180.0</ele><time>2026-04-29T08:10:18.818Z</time></trkpt><trkpt lat="44.8618462" lon="9.553251"><ele>180.0</ele><time>2026-04-29T08:10:19.819Z</time></trkpt><trkpt lat="44.8617405" lon="9.5530919"><ele>181.66666666666666</ele><time>2026-04-29T08:10:20.818Z</time></trkpt><trkpt lat="44.861642" lon="9.5529078"><ele>183.33333333333331</ele><time>2026-04-29T08:10:21.819Z</time></trkpt><trkpt lat="44.8615497" lon="9.5527136"><ele>185.0</ele><time>2026-04-29T08:10:22.819Z</time></trkpt><trkpt lat="44.8614698" lon="9.5525297"><ele>185.0</ele><time>2026-04-29T08:10:23.818Z</time></trkpt><trkpt lat="44.8613923" lon="9.5523495"><ele>185.0</ele><time>2026-04-29T08:10:24.819Z</time></trkpt><trkpt lat="44.861305" lon="9.5521791"><ele>185.0</ele><time>2026-04-29T08:10:25.818Z</time></trkpt><trkpt lat="44.861194" lon="9.5520254"><ele>185.66666666666666</ele><time>2026-04-29T08:10:26.817Z</time></trkpt><trkpt lat="44.8610625" lon="9.5518784"><ele>186.33333333333334</ele><time>2026-04-29T08:10:27.819Z</time></trkpt><trkpt lat="44.8609157" lon="9.5517278"><ele>187.0</ele><time>2026-04-29T08:10:28.819Z</time></trkpt><trkpt lat="44.8607748" lon="9.5515852"><ele>187.0</ele><time>2026-04-29T08:10:29.819Z</time></trkpt><trkpt lat="44.8606417" lon="9.551445"><ele>187.0</ele><time>2026-04-29T08:10:30.818Z</time></trkpt><trkpt lat="44.8605076" lon="9.5512936"><ele>187.0</ele><time>2026-04-29T08:10:31.818Z</time></trkpt><trkpt lat="44.8603719" lon="9.5511303"><ele>189.33333333333334</ele><time>2026-04-29T08:10:32.817Z</time></trkpt><trkpt lat="44.8602373" lon="9.550955"><ele>191.66666666666669</ele><time>2026-04-29T08:10:33.819Z</time></trkpt><trkpt lat="44.860099" lon="9.5507676"><ele>194.0</ele><time>2026-04-29T08:10:34.818Z</time></trkpt><trkpt lat="44.8599495" lon="9.5505687"><ele>194.0</ele><time>2026-04-29T08:10:35.819Z</time></trkpt><trkpt lat="44.8597874" lon="9.5503883"><ele>194.0</ele><time>2026-04-29T08:10:36.818Z</time></trkpt><trkpt lat="44.8596126" lon="9.5502156"><ele>194.0</ele><time>2026-04-29T08:10:37.819Z</time></trkpt><trkpt lat="44.8594418" lon="9.5500384"><ele>196.33333333333334</ele><time>2026-04-29T08:10:38.817Z</time></trkpt><trkpt lat="44.8592781" lon="9.5498729"><ele>198.66666666666669</ele><time>2026-04-29T08:10:39.817Z</time></trkpt><trkpt lat="44.8591212" lon="9.5497175"><ele>201.0</ele><time>2026-04-29T08:10:40.816Z</time></trkpt><trkpt lat="44.8589709" lon="9.5495669"><ele>191.33333333333334</ele><time>2026-04-29T08:10:41.819Z</time></trkpt><trkpt lat="44.8588196" lon="9.5494181"><ele>181.66666666666669</ele><time>2026-04-29T08:10:42.819Z</time></trkpt><trkpt lat="44.8586741" lon="9.549273"><ele>172.0</ele><time>2026-04-29T08:10:43.819Z</time></trkpt><trkpt lat="44.8585325" lon="9.5491334"><ele>173.33333333333334</ele><time>2026-04-29T08:10:44.818Z</time></trkpt><trkpt lat="44.8584005" lon="9.5489901"><ele>174.66666666666666</ele><time>2026-04-29T08:10:45.818Z</time></trkpt><trkpt lat="44.8582714" lon="9.5488372"><ele>176.0</ele><time>2026-04-29T08:10:46.818Z</time></trkpt><trkpt lat="44.8581409" lon="9.548685"><ele>176.0</ele><time>2026-04-29T08:10:47.819Z</time></trkpt><trkpt lat="44.8579771" lon="9.5485858"><ele>176.0</ele><time>2026-04-29T08:10:48.818Z</time></trkpt><trkpt lat="44.8578162" lon="9.5484889"><ele>176.0</ele><time>2026-04-29T08:10:49.819Z</time></trkpt><trkpt lat="44.8576533" lon="9.5484045"><ele>179.0</ele><time>2026-04-29T08:10:50.819Z</time></trkpt><trkpt lat="44.8574956" lon="9.5483268"><ele>182.0</ele><time>2026-04-29T08:10:51.818Z</time></trkpt><trkpt lat="44.8573375" lon="9.5482488"><ele>185.0</ele><time>2026-04-29T08:10:52.818Z</time></trkpt><trkpt lat="44.8571861" lon="9.5481747"><ele>185.0</ele><time>2026-04-29T08:10:53.818Z</time></trkpt><trkpt lat="44.8570425" lon="9.5481056"><ele>185.0</ele><time>2026-04-29T08:10:54.819Z</time></trkpt><trkpt lat="44.8569032" lon="9.5480365"><ele>185.0</ele><time>2026-04-29T08:10:55.819Z</time></trkpt><trkpt lat="44.8567614" lon="9.5479687"><ele>185.0</ele><time>2026-04-29T08:10:56.818Z</time></trkpt><trkpt lat="44.8566278" lon="9.5479072"><ele>183.5</ele><time>2026-04-29T08:10:57.819Z</time></trkpt><trkpt lat="44.8565011" lon="9.5478481"><ele>182.0</ele><time>2026-04-29T08:10:58.818Z</time></trkpt><trkpt lat="44.8563737" lon="9.5477824"><ele>180.5</ele><time>2026-04-29T08:10:59.818Z</time></trkpt><trkpt lat="44.8562473" lon="9.5476936"><ele>179.0</ele><time>2026-04-29T08:11:00.819Z</time></trkpt><trkpt lat="44.8561215" lon="9.5475799"><ele>179.0</ele><time>2026-04-29T08:11:01.819Z</time></trkpt><trkpt lat="44.855994" lon="9.5474407"><ele>179.0</ele><time>2026-04-29T08:11:02.819Z</time></trkpt><trkpt lat="44.8558594" lon="9.5472775"><ele>179.0</ele><time>2026-04-29T08:11:03.817Z</time></trkpt><trkpt lat="44.8557212" lon="9.5471046"><ele>180.33333333333331</ele><time>2026-04-29T08:11:04.819Z</time></trkpt><trkpt lat="44.8555832" lon="9.5469292"><ele>181.66666666666666</ele><time>2026-04-29T08:11:05.818Z</time></trkpt><trkpt lat="44.8554344" lon="9.5467499"><ele>183.0</ele><time>2026-04-29T08:11:06.819Z</time></trkpt><trkpt lat="44.8552924" lon="9.5465762"><ele>183.0</ele><time>2026-04-29T08:11:07.819Z</time></trkpt><trkpt lat="44.8551583" lon="9.5464125"><ele>183.0</ele><time>2026-04-29T08:11:08.819Z</time></trkpt><trkpt lat="44.8550385" lon="9.5462649"><ele>183.0</ele><time>2026-04-29T08:11:09.819Z</time></trkpt><trkpt lat="44.854926" lon="9.54613"><ele>183.0</ele><time>2026-04-29T08:11:10.819Z</time></trkpt><trkpt lat="44.854814" lon="9.5459903"><ele>183.0</ele><time>2026-04-29T08:11:11.819Z</time></trkpt><trkpt lat="44.8547001" lon="9.5458406"><ele>183.0</ele><time>2026-04-29T08:11:12.819Z</time></trkpt><trkpt lat="44.8545889" lon="9.5456783"><ele>183.0</ele><time>2026-04-29T08:11:13.819Z</time></trkpt><trkpt lat="44.8544828" lon="9.5455047"><ele>183.0</ele><time>2026-04-29T08:11:14.819Z</time></trkpt><trkpt lat="44.8543808" lon="9.5453157"><ele>183.0</ele><time>2026-04-29T08:11:15.818Z</time></trkpt><trkpt lat="44.8542773" lon="9.5451203"><ele>182.66666666666666</ele><time>2026-04-29T08:11:16.818Z</time></trkpt><trkpt lat="44.8541715" lon="9.5449202"><ele>182.33333333333331</ele><time>2026-04-29T08:11:17.817Z</time></trkpt><trkpt lat="44.8540741" lon="9.5447268"><ele>182.0</ele><time>2026-04-29T08:11:18.819Z</time></trkpt><trkpt lat="44.8540018" lon="9.5445349"><ele>182.0</ele><time>2026-04-29T08:11:19.819Z</time></trkpt><trkpt lat="44.8539458" lon="9.5443244"><ele>182.0</ele><time>2026-04-29T08:11:20.819Z</time></trkpt><trkpt lat="44.8539014" lon="9.5441023"><ele>182.0</ele><time>2026-04-29T08:11:21.819Z</time></trkpt><trkpt lat="44.8538651" lon="9.5438903"><ele>181.33333333333331</ele><time>2026-04-29T08:11:22.818Z</time></trkpt><trkpt lat="44.8538315" lon="9.5436711"><ele>180.66666666666666</ele><time>2026-04-29T08:11:23.817Z</time></trkpt><trkpt lat="44.8537988" lon="9.5434482"><ele>180.0</ele><time>2026-04-29T08:11:24.818Z</time></trkpt><trkpt lat="44.8537646" lon="9.5432295"><ele>180.0</ele><time>2026-04-29T08:11:25.819Z</time></trkpt><trkpt lat="44.853716" lon="9.5430249"><ele>180.0</ele><time>2026-04-29T08:11:26.818Z</time></trkpt><trkpt lat="44.8536409" lon="9.5428282"><ele>180.0</ele><time>2026-04-29T08:11:27.819Z</time></trkpt><trkpt lat="44.8535484" lon="9.5426392"><ele>183.66666666666666</ele><time>2026-04-29T08:11:28.819Z</time></trkpt><trkpt lat="44.8534344" lon="9.54246"><ele>187.33333333333331</ele><time>2026-04-29T08:11:29.817Z</time></trkpt><trkpt lat="44.8532978" lon="9.5423024"><ele>191.0</ele><time>2026-04-29T08:11:30.818Z</time></trkpt><trkpt lat="44.8531407" lon="9.5421658"><ele>191.66666666666666</ele><time>2026-04-29T08:11:31.818Z</time></trkpt><trkpt lat="44.8529699" lon="9.5420386"><ele>192.33333333333331</ele><time>2026-04-29T08:11:32.819Z</time></trkpt><trkpt lat="44.8527933" lon="9.541912"><ele>193.0</ele><time>2026-04-29T08:11:33.818Z</time></trkpt><trkpt lat="44.8526115" lon="9.5417871"><ele>193.0</ele><time>2026-04-29T08:11:34.819Z</time></trkpt><trkpt lat="44.852429" lon="9.5416643"><ele>193.0</ele><time>2026-04-29T08:11:35.818Z</time></trkpt><trkpt lat="44.8522569" lon="9.5415494"><ele>193.0</ele><time>2026-04-29T08:11:36.818Z</time></trkpt><trkpt lat="44.8520895" lon="9.5414439"><ele>193.0</ele><time>2026-04-29T08:11:37.819Z</time></trkpt><trkpt lat="44.8519334" lon="9.541348"><ele>193.0</ele><time>2026-04-29T08:11:38.819Z</time></trkpt><trkpt lat="44.8517764" lon="9.541252"><ele>193.0</ele><time>2026-04-29T08:11:39.818Z</time></trkpt><trkpt lat="44.8516217" lon="9.5411552"><ele>192.0</ele><time>2026-04-29T08:11:40.818Z</time></trkpt><trkpt lat="44.8514642" lon="9.5410612"><ele>191.0</ele><time>2026-04-29T08:11:41.819Z</time></trkpt><trkpt lat="44.8513097" lon="9.5409748"><ele>190.0</ele><time>2026-04-29T08:11:42.818Z</time></trkpt><trkpt lat="44.8511529" lon="9.5409113"><ele>190.0</ele><time>2026-04-29T08:11:43.819Z</time></trkpt><trkpt lat="44.8509903" lon="9.5408742"><ele>190.0</ele><time>2026-04-29T08:11:44.819Z</time></trkpt><trkpt lat="44.8508222" lon="9.5408486"><ele>190.0</ele><time>2026-04-29T08:11:45.819Z</time></trkpt><trkpt lat="44.8506494" lon="9.5408293"><ele>190.66666666666669</ele><time>2026-04-29T08:11:46.819Z</time></trkpt><trkpt lat="44.8504752" lon="9.5408087"><ele>191.33333333333334</ele><time>2026-04-29T08:11:47.817Z</time></trkpt><trkpt lat="44.8503067" lon="9.5407843"><ele>192.0</ele><time>2026-04-29T08:11:48.819Z</time></trkpt><trkpt lat="44.8501447" lon="9.5407617"><ele>191.5</ele><time>2026-04-29T08:11:49.817Z</time></trkpt><trkpt lat="44.8499936" lon="9.5407448"><ele>191.0</ele><time>2026-04-29T08:11:50.818Z</time></trkpt><trkpt lat="44.8498489" lon="9.5407322"><ele>190.5</ele><time>2026-04-29T08:11:51.819Z</time></trkpt><trkpt lat="44.8497038" lon="9.5407163"><ele>190.0</ele><time>2026-04-29T08:11:52.818Z</time></trkpt><trkpt lat="44.849551" lon="9.5406975"><ele>190.0</ele><time>2026-04-29T08:11:53.819Z</time></trkpt><trkpt lat="44.8493898" lon="9.5406786"><ele>190.0</ele><time>2026-04-29T08:11:54.818Z</time></trkpt><trkpt lat="44.8492247" lon="9.540661"><ele>190.0</ele><time>2026-04-29T08:11:55.819Z</time></trkpt><trkpt lat="44.8490524" lon="9.5406412"><ele>191.0</ele><time>2026-04-29T08:11:56.817Z</time></trkpt><trkpt lat="44.848884" lon="9.5406239"><ele>192.0</ele><time>2026-04-29T08:11:57.819Z</time></trkpt><trkpt lat="44.8487131" lon="9.5406073"><ele>193.0</ele><time>2026-04-29T08:11:58.818Z</time></trkpt><trkpt lat="44.8485461" lon="9.5405848"><ele>192.0</ele><time>2026-04-29T08:11:59.818Z</time></trkpt><trkpt lat="44.8483907" lon="9.5405345"><ele>191.0</ele><time>2026-04-29T08:12:00.818Z</time></trkpt><trkpt lat="44.8482419" lon="9.5404477"><ele>190.0</ele><time>2026-04-29T08:12:01.819Z</time></trkpt><trkpt lat="44.8481075" lon="9.5403189"><ele>188.33333333333334</ele><time>2026-04-29T08:12:02.818Z</time></trkpt><trkpt lat="44.8479846" lon="9.5401534"><ele>186.66666666666666</ele><time>2026-04-29T08:12:03.817Z</time></trkpt><trkpt lat="44.8478589" lon="9.5399681"><ele>185.0</ele><time>2026-04-29T08:12:04.819Z</time></trkpt><trkpt lat="44.8477398" lon="9.5397879"><ele>186.33333333333331</ele><time>2026-04-29T08:12:05.819Z</time></trkpt><trkpt lat="44.8476216" lon="9.5396106"><ele>187.66666666666666</ele><time>2026-04-29T08:12:06.818Z</time></trkpt><trkpt lat="44.8475044" lon="9.5394336"><ele>189.0</ele><time>2026-04-29T08:12:07.818Z</time></trkpt><trkpt lat="44.8473936" lon="9.5392626"><ele>189.0</ele><time>2026-04-29T08:12:08.819Z</time></trkpt><trkpt lat="44.8472856" lon="9.5391014"><ele>189.0</ele><time>2026-04-29T08:12:09.819Z</time></trkpt><trkpt lat="44.847182" lon="9.5389484"><ele>189.0</ele><time>2026-04-29T08:12:10.819Z</time></trkpt><trkpt lat="44.8470696" lon="9.5388"><ele>188.66666666666666</ele><time>2026-04-29T08:12:11.819Z</time></trkpt><trkpt lat="44.8469466" lon="9.5386607"><ele>188.33333333333331</ele><time>2026-04-29T08:12:12.818Z</time></trkpt><trkpt lat="44.8468185" lon="9.5385408"><ele>188.0</ele><time>2026-04-29T08:12:13.819Z</time></trkpt><trkpt lat="44.846683" lon="9.5384403"><ele>188.0</ele><time>2026-04-29T08:12:14.817Z</time></trkpt><trkpt lat="44.8465451" lon="9.5383498"><ele>188.0</ele><time>2026-04-29T08:12:15.819Z</time></trkpt><trkpt lat="44.84641" lon="9.5382729"><ele>188.0</ele><time>2026-04-29T08:12:16.819Z</time></trkpt><trkpt lat="44.8462801" lon="9.5382041"><ele>188.0</ele><time>2026-04-29T08:12:17.819Z</time></trkpt><trkpt lat="44.8461562" lon="9.5381335"><ele>188.0</ele><time>2026-04-29T08:12:18.819Z</time></trkpt><trkpt lat="44.8460372" lon="9.5380481"><ele>188.0</ele><time>2026-04-29T08:12:19.818Z</time></trkpt><trkpt lat="44.8459361" lon="9.5379418"><ele>188.0</ele><time>2026-04-29T08:12:20.819Z</time></trkpt><trkpt lat="44.8458547" lon="9.5378026"><ele>188.0</ele><time>2026-04-29T08:12:21.818Z</time></trkpt><trkpt lat="44.8457849" lon="9.5376477"><ele>188.8</ele><time>2026-04-29T08:12:22.819Z</time></trkpt><trkpt lat="44.8457171" lon="9.537496"><ele>189.60000000000002</ele><time>2026-04-29T08:12:23.819Z</time></trkpt><trkpt lat="44.8456521" lon="9.5373643"><ele>190.39999999999998</ele><time>2026-04-29T08:12:24.818Z</time></trkpt><trkpt lat="44.8455884" lon="9.5372438"><ele>191.2</ele><time>2026-04-29T08:12:25.819Z</time></trkpt><trkpt lat="44.8455276" lon="9.5371326"><ele>192.0</ele><time>2026-04-29T08:12:26.819Z</time></trkpt><trkpt lat="44.8454601" lon="9.5370331"><ele>193.0</ele><time>2026-04-29T08:12:27.818Z</time></trkpt><trkpt lat="44.8453741" lon="9.5369429"><ele>194.0</ele><time>2026-04-29T08:12:28.819Z</time></trkpt><trkpt lat="44.8452785" lon="9.5368673"><ele>195.0</ele><time>2026-04-29T08:12:29.819Z</time></trkpt><trkpt lat="44.8451788" lon="9.5368032"><ele>196.0</ele><time>2026-04-29T08:12:30.819Z</time></trkpt><trkpt lat="44.8450791" lon="9.5367495"><ele>197.0</ele><time>2026-04-29T08:12:31.818Z</time></trkpt><trkpt lat="44.8449838" lon="9.5367076"><ele>197.0</ele><time>2026-04-29T08:12:32.819Z</time></trkpt><trkpt lat="44.8449032" lon="9.5366594"><ele>197.0</ele><time>2026-04-29T08:12:33.819Z</time></trkpt><trkpt lat="44.8448275" lon="9.5365984"><ele>197.0</ele><time>2026-04-29T08:12:34.819Z</time></trkpt><trkpt lat="44.844762" lon="9.536514"><ele>197.0</ele><time>2026-04-29T08:12:35.818Z</time></trkpt><trkpt lat="44.8447003" lon="9.5364186"><ele>197.0</ele><time>2026-04-29T08:12:36.819Z</time></trkpt><trkpt lat="44.8446419" lon="9.5363016"><ele>197.25</ele><time>2026-04-29T08:12:37.818Z</time></trkpt><trkpt lat="44.8445767" lon="9.5361766"><ele>197.5</ele><time>2026-04-29T08:12:38.819Z</time></trkpt><trkpt lat="44.8444976" lon="9.5360597"><ele>197.75</ele><time>2026-04-29T08:12:39.819Z</time></trkpt><trkpt lat="44.8443991" lon="9.535971"><ele>198.0</ele><time>2026-04-29T08:12:40.817Z</time></trkpt><trkpt lat="44.8442934" lon="9.535926"><ele>198.0</ele><time>2026-04-29T08:12:41.818Z</time></trkpt><trkpt lat="44.84418" lon="9.535912"><ele>198.0</ele><time>2026-04-29T08:12:42.819Z</time></trkpt><trkpt lat="44.8440729" lon="9.5359212"><ele>198.0</ele><time>2026-04-29T08:12:43.818Z</time></trkpt><trkpt lat="44.843971" lon="9.5359366"><ele>198.0</ele><time>2026-04-29T08:12:44.818Z</time></trkpt><trkpt lat="44.8438657" lon="9.5359456"><ele>198.0</ele><time>2026-04-29T08:12:45.818Z</time></trkpt><trkpt lat="44.8437609" lon="9.535933"><ele>198.0</ele><time>2026-04-29T08:12:46.819Z</time></trkpt><trkpt lat="44.8436571" lon="9.5358907"><ele>198.0</ele><time>2026-04-29T08:12:47.819Z</time></trkpt><trkpt lat="44.8435681" lon="9.5358198"><ele>198.0</ele><time>2026-04-29T08:12:48.819Z</time></trkpt><trkpt lat="44.8434852" lon="9.5357249"><ele>198.0</ele><time>2026-04-29T08:12:49.818Z</time></trkpt><trkpt lat="44.8434143" lon="9.5356085"><ele>198.0</ele><time>2026-04-29T08:12:50.819Z</time></trkpt><trkpt lat="44.8433736" lon="9.5354682"><ele>200.0</ele><time>2026-04-29T08:12:51.818Z</time></trkpt><trkpt lat="44.8433508" lon="9.5353096"><ele>202.0</ele><time>2026-04-29T08:12:52.818Z</time></trkpt><trkpt lat="44.8433366" lon="9.5351425"><ele>204.0</ele><time>2026-04-29T08:12:53.818Z</time></trkpt><trkpt lat="44.8433201" lon="9.534966"><ele>206.0</ele><time>2026-04-29T08:12:54.817Z</time></trkpt><trkpt lat="44.8432994" lon="9.5347781"><ele>206.0</ele><time>2026-04-29T08:12:55.818Z</time></trkpt><trkpt lat="44.8432788" lon="9.5345817"><ele>206.0</ele><time>2026-04-29T08:12:56.819Z</time></trkpt><trkpt lat="44.8432609" lon="9.5343849"><ele>206.0</ele><time>2026-04-29T08:12:57.819Z</time></trkpt><trkpt lat="44.8432407" lon="9.5341931"><ele>206.0</ele><time>2026-04-29T08:12:58.819Z</time></trkpt><trkpt lat="44.8432189" lon="9.5340089"><ele>204.75</ele><time>2026-04-29T08:12:59.819Z</time></trkpt><trkpt lat="44.8431923" lon="9.5338258"><ele>203.5</ele><time>2026-04-29T08:13:00.819Z</time></trkpt><trkpt lat="44.8431646" lon="9.5336422"><ele>202.25</ele><time>2026-04-29T08:13:01.819Z</time></trkpt><trkpt lat="44.8431325" lon="9.5334589"><ele>201.0</ele><time>2026-04-29T08:13:02.818Z</time></trkpt><trkpt lat="44.8430982" lon="9.5332876"><ele>200.0</ele><time>2026-04-29T08:13:03.818Z</time></trkpt><trkpt lat="44.8430616" lon="9.5331165"><ele>199.0</ele><time>2026-04-29T08:13:04.819Z</time></trkpt><trkpt lat="44.8430242" lon="9.5329392"><ele>198.0</ele><time>2026-04-29T08:13:05.818Z</time></trkpt><trkpt lat="44.8429875" lon="9.5327633"><ele>197.0</ele><time>2026-04-29T08:13:06.819Z</time></trkpt><trkpt lat="44.8429577" lon="9.5325954"><ele>195.2</ele><time>2026-04-29T08:13:07.819Z</time></trkpt><trkpt lat="44.8429265" lon="9.5324374"><ele>193.39999999999998</ele><time>2026-04-29T08:13:08.819Z</time></trkpt><trkpt lat="44.8428962" lon="9.5322887"><ele>191.60000000000002</ele><time>2026-04-29T08:13:09.819Z</time></trkpt><trkpt lat="44.8428641" lon="9.5321466"><ele>189.8</ele><time>2026-04-29T08:13:10.819Z</time></trkpt><trkpt lat="44.8428198" lon="9.5320114"><ele>188.0</ele><time>2026-04-29T08:13:11.818Z</time></trkpt><trkpt lat="44.8427566" lon="9.5318875"><ele>186.75</ele><time>2026-04-29T08:13:12.819Z</time></trkpt><trkpt lat="44.8426738" lon="9.5317789"><ele>185.5</ele><time>2026-04-29T08:13:13.818Z</time></trkpt><trkpt lat="44.8425678" lon="9.53169"><ele>184.25</ele><time>2026-04-29T08:13:14.819Z</time></trkpt><trkpt lat="44.8424503" lon="9.5316089"><ele>183.0</ele><time>2026-04-29T08:13:15.818Z</time></trkpt><trkpt lat="44.8423237" lon="9.5315325"><ele>185.5</ele><time>2026-04-29T08:13:16.819Z</time></trkpt><trkpt lat="44.8421909" lon="9.5314514"><ele>188.0</ele><time>2026-04-29T08:13:17.819Z</time></trkpt><trkpt lat="44.842057" lon="9.5313538"><ele>190.5</ele><time>2026-04-29T08:13:18.819Z</time></trkpt><trkpt lat="44.8419349" lon="9.5312298"><ele>193.0</ele><time>2026-04-29T08:13:19.818Z</time></trkpt><trkpt lat="44.8418276" lon="9.5310799"><ele>199.0</ele><time>2026-04-29T08:13:20.818Z</time></trkpt><trkpt lat="44.8417301" lon="9.5309093"><ele>205.0</ele><time>2026-04-29T08:13:21.818Z</time></trkpt><trkpt lat="44.8416465" lon="9.5307255"><ele>211.0</ele><time>2026-04-29T08:13:22.819Z</time></trkpt><trkpt lat="44.8415667" lon="9.5305221"><ele>208.0</ele><time>2026-04-29T08:13:23.819Z</time></trkpt><trkpt lat="44.8414938" lon="9.5303237"><ele>205.0</ele><time>2026-04-29T08:13:24.818Z</time></trkpt><trkpt lat="44.8414245" lon="9.5301356"><ele>202.0</ele><time>2026-04-29T08:13:25.819Z</time></trkpt><trkpt lat="44.8413494" lon="9.5299575"><ele>202.0</ele><time>2026-04-29T08:13:26.818Z</time></trkpt><trkpt lat="44.8412689" lon="9.529783"><ele>202.0</ele><time>2026-04-29T08:13:27.819Z</time></trkpt><trkpt lat="44.8411758" lon="9.5296106"><ele>202.0</ele><time>2026-04-29T08:13:28.819Z</time></trkpt><trkpt lat="44.8410719" lon="9.5294392"><ele>204.0</ele><time>2026-04-29T08:13:29.819Z</time></trkpt><trkpt lat="44.8409609" lon="9.5292623"><ele>206.0</ele><time>2026-04-29T08:13:30.819Z</time></trkpt><trkpt lat="44.8408423" lon="9.5290809"><ele>208.0</ele><time>2026-04-29T08:13:31.819Z</time></trkpt><trkpt lat="44.8407226" lon="9.5288904"><ele>206.33333333333331</ele><time>2026-04-29T08:13:32.819Z</time></trkpt><trkpt lat="44.8406083" lon="9.5287057"><ele>204.66666666666669</ele><time>2026-04-29T08:13:33.819Z</time></trkpt><trkpt lat="44.8405037" lon="9.5285111"><ele>203.0</ele><time>2026-04-29T08:13:34.818Z</time></trkpt><trkpt lat="44.840407" lon="9.5283064"><ele>203.0</ele><time>2026-04-29T08:13:35.818Z</time></trkpt><trkpt lat="44.8403177" lon="9.528101"><ele>203.0</ele><time>2026-04-29T08:13:36.819Z</time></trkpt><trkpt lat="44.8402383" lon="9.5278982"><ele>203.0</ele><time>2026-04-29T08:13:37.819Z</time></trkpt><trkpt lat="44.8401619" lon="9.5277023"><ele>203.75</ele><time>2026-04-29T08:13:38.819Z</time></trkpt><trkpt lat="44.8400913" lon="9.5275188"><ele>204.5</ele><time>2026-04-29T08:13:39.818Z</time></trkpt><trkpt lat="44.8400224" lon="9.5273341"><ele>205.25</ele><time>2026-04-29T08:13:40.818Z</time></trkpt><trkpt lat="44.8399559" lon="9.5271487"><ele>206.0</ele><time>2026-04-29T08:13:41.818Z</time></trkpt><trkpt lat="44.8398875" lon="9.5269683"><ele>206.0</ele><time>2026-04-29T08:13:42.819Z</time></trkpt><trkpt lat="44.8398164" lon="9.5267929"><ele>206.0</ele><time>2026-04-29T08:13:43.819Z</time></trkpt><trkpt lat="44.8397473" lon="9.5266129"><ele>206.0</ele><time>2026-04-29T08:13:44.819Z</time></trkpt><trkpt lat="44.8396808" lon="9.5264301"><ele>206.0</ele><time>2026-04-29T08:13:45.819Z</time></trkpt><trkpt lat="44.839611" lon="9.5262496"><ele>204.0</ele><time>2026-04-29T08:13:46.819Z</time></trkpt><trkpt lat="44.8395448" lon="9.5260738"><ele>202.0</ele><time>2026-04-29T08:13:47.818Z</time></trkpt><trkpt lat="44.839477" lon="9.525902"><ele>200.0</ele><time>2026-04-29T08:13:48.819Z</time></trkpt><trkpt lat="44.8394101" lon="9.5257384"><ele>198.0</ele><time>2026-04-29T08:13:49.819Z</time></trkpt><trkpt lat="44.8393412" lon="9.5255757"><ele>202.0</ele><time>2026-04-29T08:13:50.818Z</time></trkpt><trkpt lat="44.8392631" lon="9.5254172"><ele>206.0</ele><time>2026-04-29T08:13:51.819Z</time></trkpt><trkpt lat="44.8391878" lon="9.5252588"><ele>210.0</ele><time>2026-04-29T08:13:52.818Z</time></trkpt><trkpt lat="44.8391207" lon="9.5250885"><ele>214.0</ele><time>2026-04-29T08:13:53.819Z</time></trkpt><trkpt lat="44.839067" lon="9.5249073"><ele>214.0</ele><time>2026-04-29T08:13:54.819Z</time></trkpt><trkpt lat="44.8390245" lon="9.5247204"><ele>214.0</ele><time>2026-04-29T08:13:55.819Z</time></trkpt><trkpt lat="44.838989" lon="9.5245227"><ele>214.0</ele><time>2026-04-29T08:13:56.819Z</time></trkpt><trkpt lat="44.8389519" lon="9.5243222"><ele>214.0</ele><time>2026-04-29T08:13:57.819Z</time></trkpt><trkpt lat="44.8389058" lon="9.5241193"><ele>212.5</ele><time>2026-04-29T08:13:58.818Z</time></trkpt><trkpt lat="44.8388487" lon="9.5239311"><ele>211.0</ele><time>2026-04-29T08:13:59.819Z</time></trkpt><trkpt lat="44.8387849" lon="9.523755"><ele>209.5</ele><time>2026-04-29T08:14:00.818Z</time></trkpt><trkpt lat="44.8387151" lon="9.5235938"><ele>208.0</ele><time>2026-04-29T08:14:01.819Z</time></trkpt><trkpt lat="44.8386382" lon="9.5234435"><ele>205.0</ele><time>2026-04-29T08:14:02.819Z</time></trkpt><trkpt lat="44.8385562" lon="9.5233044"><ele>202.0</ele><time>2026-04-29T08:14:03.819Z</time></trkpt><trkpt lat="44.8384639" lon="9.5231709"><ele>199.0</ele><time>2026-04-29T08:14:04.819Z</time></trkpt><trkpt lat="44.8383653" lon="9.5230489"><ele>196.0</ele><time>2026-04-29T08:14:05.818Z</time></trkpt><trkpt lat="44.8382562" lon="9.5229355"><ele>197.75</ele><time>2026-04-29T08:14:06.819Z</time></trkpt><trkpt lat="44.8381449" lon="9.5228195"><ele>199.5</ele><time>2026-04-29T08:14:07.819Z</time></trkpt><trkpt lat="44.8380292" lon="9.5226977"><ele>201.25</ele><time>2026-04-29T08:14:08.819Z</time></trkpt><trkpt lat="44.8379113" lon="9.5225741"><ele>203.0</ele><time>2026-04-29T08:14:09.818Z</time></trkpt><trkpt lat="44.837787" lon="9.5224469"><ele>203.0</ele><time>2026-04-29T08:14:10.819Z</time></trkpt><trkpt lat="44.837669" lon="9.5223176"><ele>203.0</ele><time>2026-04-29T08:14:11.819Z</time></trkpt><trkpt lat="44.8375489" lon="9.5221823"><ele>203.0</ele><time>2026-04-29T08:14:12.818Z</time></trkpt><trkpt lat="44.8374263" lon="9.5220465"><ele>203.0</ele><time>2026-04-29T08:14:13.819Z</time></trkpt><trkpt lat="44.8373045" lon="9.5219294"><ele>203.0</ele><time>2026-04-29T08:14:14.819Z</time></trkpt><trkpt lat="44.8371871" lon="9.5218176"><ele>203.0</ele><time>2026-04-29T08:14:15.819Z</time></trkpt><trkpt lat="44.8370759" lon="9.5216991"><ele>203.0</ele><time>2026-04-29T08:14:16.819Z</time></trkpt><trkpt lat="44.8369704" lon="9.5215711"><ele>203.0</ele><time>2026-04-29T08:14:17.819Z</time></trkpt><trkpt lat="44.8368694" lon="9.5214317"><ele>203.0</ele><time>2026-04-29T08:14:18.819Z</time></trkpt><trkpt lat="44.8367716" lon="9.521289"><ele>203.0</ele><time>2026-04-29T08:14:19.818Z</time></trkpt><trkpt lat="44.8366729" lon="9.5211435"><ele>203.0</ele><time>2026-04-29T08:14:20.818Z</time></trkpt><trkpt lat="44.8365718" lon="9.5209957"><ele>204.25</ele><time>2026-04-29T08:14:21.819Z</time></trkpt><trkpt lat="44.8364672" lon="9.5208499"><ele>205.5</ele><time>2026-04-29T08:14:22.819Z</time></trkpt><trkpt lat="44.8363666" lon="9.5207072"><ele>206.75</ele><time>2026-04-29T08:14:23.817Z</time></trkpt><trkpt lat="44.8362687" lon="9.5205715"><ele>208.0</ele><time>2026-04-29T08:14:24.818Z</time></trkpt><trkpt lat="44.8361674" lon="9.5204494"><ele>207.0</ele><time>2026-04-29T08:14:25.817Z</time></trkpt><trkpt lat="44.836057" lon="9.5203398"><ele>206.0</ele><time>2026-04-29T08:14:26.819Z</time></trkpt><trkpt lat="44.835935" lon="9.5202452"><ele>205.0</ele><time>2026-04-29T08:14:27.819Z</time></trkpt><trkpt lat="44.8358127" lon="9.5201693"><ele>204.0</ele><time>2026-04-29T08:14:28.818Z</time></trkpt><trkpt lat="44.8356888" lon="9.5201035"><ele>204.0</ele><time>2026-04-29T08:14:29.819Z</time></trkpt><trkpt lat="44.8355705" lon="9.5200432"><ele>204.0</ele><time>2026-04-29T08:14:30.819Z</time></trkpt><trkpt lat="44.8354519" lon="9.5199844"><ele>204.0</ele><time>2026-04-29T08:14:31.818Z</time></trkpt><trkpt lat="44.835334" lon="9.5199374"><ele>204.0</ele><time>2026-04-29T08:14:32.818Z</time></trkpt><trkpt lat="44.8352144" lon="9.5199061"><ele>206.0</ele><time>2026-04-29T08:14:33.819Z</time></trkpt><trkpt lat="44.8350966" lon="9.5199045"><ele>208.0</ele><time>2026-04-29T08:14:34.819Z</time></trkpt><trkpt lat="44.834983" lon="9.5199418"><ele>210.0</ele><time>2026-04-29T08:14:35.819Z</time></trkpt><trkpt lat="44.8348744" lon="9.5200115"><ele>212.0</ele><time>2026-04-29T08:14:36.818Z</time></trkpt><trkpt lat="44.8347696" lon="9.5201014"><ele>212.0</ele><time>2026-04-29T08:14:37.819Z</time></trkpt><trkpt lat="44.8346714" lon="9.5202027"><ele>212.0</ele><time>2026-04-29T08:14:38.818Z</time></trkpt><trkpt lat="44.8345715" lon="9.5202854"><ele>212.0</ele><time>2026-04-29T08:14:39.819Z</time></trkpt><trkpt lat="44.8344686" lon="9.5203175"><ele>212.0</ele><time>2026-04-29T08:14:40.819Z</time></trkpt><trkpt lat="44.8343687" lon="9.520299"><ele>212.0</ele><time>2026-04-29T08:14:41.819Z</time></trkpt><trkpt lat="44.8342724" lon="9.5202361"><ele>210.75</ele><time>2026-04-29T08:14:42.819Z</time></trkpt><trkpt lat="44.8341795" lon="9.5201385"><ele>209.5</ele><time>2026-04-29T08:14:43.817Z</time></trkpt><trkpt lat="44.834079" lon="9.5200282"><ele>208.25</ele><time>2026-04-29T08:14:44.816Z</time></trkpt><trkpt lat="44.8339663" lon="9.5199241"><ele>207.0</ele><time>2026-04-29T08:14:45.819Z</time></trkpt><trkpt lat="44.8338383" lon="9.5198262"><ele>207.0</ele><time>2026-04-29T08:14:46.819Z</time></trkpt><trkpt lat="44.8337003" lon="9.5197384"><ele>207.0</ele><time>2026-04-29T08:14:47.819Z</time></trkpt><trkpt lat="44.8335648" lon="9.5196635"><ele>207.0</ele><time>2026-04-29T08:14:48.819Z</time></trkpt><trkpt lat="44.8334298" lon="9.5196104"><ele>207.0</ele><time>2026-04-29T08:14:49.818Z</time></trkpt><trkpt lat="44.8332951" lon="9.5195846"><ele>208.25</ele><time>2026-04-29T08:14:50.819Z</time></trkpt><trkpt lat="44.8331613" lon="9.519592"><ele>209.5</ele><time>2026-04-29T08:14:51.819Z</time></trkpt><trkpt lat="44.8330334" lon="9.5196219"><ele>210.75</ele><time>2026-04-29T08:14:52.819Z</time></trkpt><trkpt lat="44.8329041" lon="9.5196745"><ele>212.0</ele><time>2026-04-29T08:14:53.819Z</time></trkpt><trkpt lat="44.8327738" lon="9.5197359"><ele>212.0</ele><time>2026-04-29T08:14:54.819Z</time></trkpt><trkpt lat="44.8326431" lon="9.5198002"><ele>212.0</ele><time>2026-04-29T08:14:55.819Z</time></trkpt><trkpt lat="44.8325127" lon="9.5198628"><ele>212.0</ele><time>2026-04-29T08:14:56.819Z</time></trkpt><trkpt lat="44.8323786" lon="9.5199221"><ele>212.0</ele><time>2026-04-29T08:14:57.819Z</time></trkpt><trkpt lat="44.8322436" lon="9.5199804"><ele>211.25</ele><time>2026-04-29T08:14:58.819Z</time></trkpt><trkpt lat="44.8321076" lon="9.5200326"><ele>210.5</ele><time>2026-04-29T08:14:59.819Z</time></trkpt><trkpt lat="44.8319729" lon="9.5200777"><ele>209.75</ele><time>2026-04-29T08:15:00.819Z</time></trkpt><trkpt lat="44.8318414" lon="9.5201021"><ele>209.0</ele><time>2026-04-29T08:15:01.819Z</time></trkpt><trkpt lat="44.8317065" lon="9.5200862"><ele>208.0</ele><time>2026-04-29T08:15:02.819Z</time></trkpt><trkpt lat="44.8315761" lon="9.5200291"><ele>207.0</ele><time>2026-04-29T08:15:03.818Z</time></trkpt><trkpt lat="44.8314462" lon="9.5199248"><ele>206.0</ele><time>2026-04-29T08:15:04.818Z</time></trkpt><trkpt lat="44.8313251" lon="9.5197831"><ele>205.0</ele><time>2026-04-29T08:15:05.819Z</time></trkpt><trkpt lat="44.8312134" lon="9.5196213"><ele>204.25</ele><time>2026-04-29T08:15:06.819Z</time></trkpt><trkpt lat="44.8311124" lon="9.5194707"><ele>203.5</ele><time>2026-04-29T08:15:07.819Z</time></trkpt><trkpt lat="44.8310155" lon="9.519327"><ele>202.75</ele><time>2026-04-29T08:15:08.819Z</time></trkpt><trkpt lat="44.8309223" lon="9.5191902"><ele>202.0</ele><time>2026-04-29T08:15:09.818Z</time></trkpt><trkpt lat="44.8308308" lon="9.5190592"><ele>202.0</ele><time>2026-04-29T08:15:10.819Z</time></trkpt><trkpt lat="44.8307455" lon="9.518934"><ele>202.0</ele><time>2026-04-29T08:15:11.818Z</time></trkpt><trkpt lat="44.8306672" lon="9.518811"><ele>202.0</ele><time>2026-04-29T08:15:12.818Z</time></trkpt><trkpt lat="44.8306002" lon="9.5186812"><ele>202.0</ele><time>2026-04-29T08:15:13.819Z</time></trkpt><trkpt lat="44.8305484" lon="9.5185436"><ele>201.6</ele><time>2026-04-29T08:15:14.819Z</time></trkpt><trkpt lat="44.8305249" lon="9.5184049"><ele>201.2</ele><time>2026-04-29T08:15:15.818Z</time></trkpt><trkpt lat="44.8305337" lon="9.5182643"><ele>200.8</ele><time>2026-04-29T08:15:16.819Z</time></trkpt><trkpt lat="44.8305649" lon="9.518124"><ele>200.4</ele><time>2026-04-29T08:15:17.819Z</time></trkpt><trkpt lat="44.8306084" lon="9.5179779"><ele>200.0</ele><time>2026-04-29T08:15:18.819Z</time></trkpt><trkpt lat="44.8306633" lon="9.5178272"><ele>201.5</ele><time>2026-04-29T08:15:19.818Z</time></trkpt><trkpt lat="44.8307243" lon="9.5176683"><ele>203.0</ele><time>2026-04-29T08:15:20.819Z</time></trkpt><trkpt lat="44.8307912" lon="9.5175123"><ele>204.5</ele><time>2026-04-29T08:15:21.819Z</time></trkpt><trkpt lat="44.8308429" lon="9.5173562"><ele>206.0</ele><time>2026-04-29T08:15:22.818Z</time></trkpt><trkpt lat="44.8308714" lon="9.5171932"><ele>205.75</ele><time>2026-04-29T08:15:23.819Z</time></trkpt><trkpt lat="44.8308688" lon="9.5170273"><ele>205.5</ele><time>2026-04-29T08:15:24.819Z</time></trkpt><trkpt lat="44.8308513" lon="9.5168592"><ele>205.25</ele><time>2026-04-29T08:15:25.818Z</time></trkpt><trkpt lat="44.83083" lon="9.5166945"><ele>205.0</ele><time>2026-04-29T08:15:26.819Z</time></trkpt><trkpt lat="44.8308031" lon="9.5165404"><ele>204.99999999999997</ele><time>2026-04-29T08:15:27.819Z</time></trkpt><trkpt lat="44.830763" lon="9.5164043"><ele>205.0</ele><time>2026-04-29T08:15:28.819Z</time></trkpt><trkpt lat="44.8307104" lon="9.5163007"><ele>205.0</ele><time>2026-04-29T08:15:29.819Z</time></trkpt><trkpt lat="44.83065" lon="9.5162174"><ele>205.0</ele><time>2026-04-29T08:15:30.819Z</time></trkpt><trkpt lat="44.830599" lon="9.5161339"><ele>204.99999999999997</ele><time>2026-04-29T08:15:31.819Z</time></trkpt><trkpt lat="44.8305479" lon="9.5160429"><ele>205.0</ele><time>2026-04-29T08:15:32.819Z</time></trkpt><trkpt lat="44.8304787" lon="9.5159535"><ele>205.5</ele><time>2026-04-29T08:15:33.819Z</time></trkpt><trkpt lat="44.8304006" lon="9.5158508"><ele>206.0</ele><time>2026-04-29T08:15:34.818Z</time></trkpt><trkpt lat="44.8303197" lon="9.5157302"><ele>206.5</ele><time>2026-04-29T08:15:35.819Z</time></trkpt><trkpt lat="44.8302303" lon="9.5156012"><ele>207.0</ele><time>2026-04-29T08:15:36.819Z</time></trkpt><trkpt lat="44.8301294" lon="9.515474"><ele>202.66666666666669</ele><time>2026-04-29T08:15:37.819Z</time></trkpt><trkpt lat="44.8300142" lon="9.5153493"><ele>198.33333333333334</ele><time>2026-04-29T08:15:38.819Z</time></trkpt><trkpt lat="44.8298899" lon="9.5152244"><ele>194.0</ele><time>2026-04-29T08:15:39.818Z</time></trkpt><trkpt lat="44.8297591" lon="9.5150977"><ele>194.0</ele><time>2026-04-29T08:15:40.819Z</time></trkpt><trkpt lat="44.8296301" lon="9.5149771"><ele>194.0</ele><time>2026-04-29T08:15:41.817Z</time></trkpt><trkpt lat="44.8295057" lon="9.5148636"><ele>194.0</ele><time>2026-04-29T08:15:42.818Z</time></trkpt><trkpt lat="44.8293857" lon="9.5147536"><ele>194.0</ele><time>2026-04-29T08:15:43.819Z</time></trkpt><trkpt lat="44.8292683" lon="9.5146459"><ele>194.25</ele><time>2026-04-29T08:15:44.819Z</time></trkpt><trkpt lat="44.8291488" lon="9.5145354"><ele>194.5</ele><time>2026-04-29T08:15:45.819Z</time></trkpt><trkpt lat="44.8290264" lon="9.5144174"><ele>194.75</ele><time>2026-04-29T08:15:46.819Z</time></trkpt><trkpt lat="44.8288983" lon="9.5142874"><ele>195.0</ele><time>2026-04-29T08:15:47.818Z</time></trkpt><trkpt lat="44.8287665" lon="9.5141398"><ele>195.0</ele><time>2026-04-29T08:15:48.818Z</time></trkpt><trkpt lat="44.8286372" lon="9.5139714"><ele>195.0</ele><time>2026-04-29T08:15:49.819Z</time></trkpt><trkpt lat="44.8285127" lon="9.513783"><ele>195.0</ele><time>2026-04-29T08:15:50.818Z</time></trkpt><trkpt lat="44.828395" lon="9.5135739"><ele>193.66666666666666</ele><time>2026-04-29T08:15:51.819Z</time></trkpt><trkpt lat="44.8282841" lon="9.5133439"><ele>192.33333333333331</ele><time>2026-04-29T08:15:52.819Z</time></trkpt><trkpt lat="44.8281823" lon="9.5130986"><ele>191.0</ele><time>2026-04-29T08:15:53.818Z</time></trkpt><trkpt lat="44.8280842" lon="9.5128426"><ele>191.0</ele><time>2026-04-29T08:15:54.819Z</time></trkpt><trkpt lat="44.8279922" lon="9.5125868"><ele>191.0</ele><time>2026-04-29T08:15:55.819Z</time></trkpt><trkpt lat="44.8279004" lon="9.5123395"><ele>191.0</ele><time>2026-04-29T08:15:56.819Z</time></trkpt><trkpt lat="44.8277995" lon="9.5120916"><ele>189.66666666666666</ele><time>2026-04-29T08:15:57.818Z</time></trkpt><trkpt lat="44.8276894" lon="9.5118516"><ele>188.33333333333334</ele><time>2026-04-29T08:15:58.819Z</time></trkpt><trkpt lat="44.8275687" lon="9.5116196"><ele>187.0</ele><time>2026-04-29T08:15:59.818Z</time></trkpt><trkpt lat="44.8274384" lon="9.5113964"><ele>187.66666666666669</ele><time>2026-04-29T08:16:00.819Z</time></trkpt><trkpt lat="44.8272993" lon="9.5111769"><ele>188.33333333333334</ele><time>2026-04-29T08:16:01.819Z</time></trkpt><trkpt lat="44.8271645" lon="9.5109671"><ele>189.0</ele><time>2026-04-29T08:16:02.817Z</time></trkpt><trkpt lat="44.8270346" lon="9.5107614"><ele>189.0</ele><time>2026-04-29T08:16:03.819Z</time></trkpt><trkpt lat="44.8269077" lon="9.5105564"><ele>189.0</ele><time>2026-04-29T08:16:04.819Z</time></trkpt><trkpt lat="44.8267824" lon="9.5103465"><ele>189.0</ele><time>2026-04-29T08:16:05.818Z</time></trkpt><trkpt lat="44.8266608" lon="9.5101325"><ele>188.66666666666666</ele><time>2026-04-29T08:16:06.818Z</time></trkpt><trkpt lat="44.8265437" lon="9.5099134"><ele>188.33333333333331</ele><time>2026-04-29T08:16:07.818Z</time></trkpt><trkpt lat="44.8264298" lon="9.5096882"><ele>188.0</ele><time>2026-04-29T08:16:08.818Z</time></trkpt><trkpt lat="44.8263156" lon="9.5094627"><ele>187.66666666666666</ele><time>2026-04-29T08:16:09.819Z</time></trkpt><trkpt lat="44.826203" lon="9.50924"><ele>187.33333333333334</ele><time>2026-04-29T08:16:10.819Z</time></trkpt><trkpt lat="44.8260908" lon="9.509016"><ele>187.0</ele><time>2026-04-29T08:16:11.819Z</time></trkpt><trkpt lat="44.8259788" lon="9.5087911"><ele>189.0</ele><time>2026-04-29T08:16:12.819Z</time></trkpt><trkpt lat="44.8258671" lon="9.5085661"><ele>191.0</ele><time>2026-04-29T08:16:13.818Z</time></trkpt><trkpt lat="44.8257529" lon="9.5083417"><ele>193.0</ele><time>2026-04-29T08:16:14.819Z</time></trkpt><trkpt lat="44.8256406" lon="9.5081143"><ele>191.33333333333331</ele><time>2026-04-29T08:16:15.819Z</time></trkpt><trkpt lat="44.8255258" lon="9.5078795"><ele>189.66666666666666</ele><time>2026-04-29T08:16:16.819Z</time></trkpt><trkpt lat="44.825413" lon="9.5076417"><ele>188.0</ele><time>2026-04-29T08:16:17.819Z</time></trkpt><trkpt lat="44.8253012" lon="9.5074024"><ele>188.0</ele><time>2026-04-29T08:16:18.818Z</time></trkpt><trkpt lat="44.8251889" lon="9.5071591"><ele>188.0</ele><time>2026-04-29T08:16:19.818Z</time></trkpt><trkpt lat="44.8250748" lon="9.5069107"><ele>188.0</ele><time>2026-04-29T08:16:20.819Z</time></trkpt><trkpt lat="44.82496" lon="9.5066594"><ele>188.0</ele><time>2026-04-29T08:16:21.818Z</time></trkpt><trkpt lat="44.8248428" lon="9.5064029"><ele>188.0</ele><time>2026-04-29T08:16:22.819Z</time></trkpt><trkpt lat="44.8247245" lon="9.5061467"><ele>188.0</ele><time>2026-04-29T08:16:23.818Z</time></trkpt><trkpt lat="44.824605" lon="9.5058886"><ele>188.0</ele><time>2026-04-29T08:16:24.819Z</time></trkpt><trkpt lat="44.8244856" lon="9.5056295"><ele>188.0</ele><time>2026-04-29T08:16:25.819Z</time></trkpt><trkpt lat="44.8243674" lon="9.505368"><ele>188.0</ele><time>2026-04-29T08:16:26.819Z</time></trkpt><trkpt lat="44.8242447" lon="9.5051102"><ele>188.0</ele><time>2026-04-29T08:16:27.819Z</time></trkpt><trkpt lat="44.8241174" lon="9.504856"><ele>188.0</ele><time>2026-04-29T08:16:28.819Z</time></trkpt><trkpt lat="44.8239833" lon="9.5046055"><ele>188.0</ele><time>2026-04-29T08:16:29.819Z</time></trkpt><trkpt lat="44.8238448" lon="9.5043586"><ele>188.0</ele><time>2026-04-29T08:16:30.818Z</time></trkpt><trkpt lat="44.8236993" lon="9.5041182"><ele>188.0</ele><time>2026-04-29T08:16:31.819Z</time></trkpt><trkpt lat="44.8235469" lon="9.503886"><ele>188.0</ele><time>2026-04-29T08:16:32.819Z</time></trkpt><trkpt lat="44.8233942" lon="9.5036697"><ele>188.33333333333331</ele><time>2026-04-29T08:16:33.818Z</time></trkpt><trkpt lat="44.8232422" lon="9.5034759"><ele>188.66666666666666</ele><time>2026-04-29T08:16:34.818Z</time></trkpt><trkpt lat="44.8230927" lon="9.5032926"><ele>189.0</ele><time>2026-04-29T08:16:35.819Z</time></trkpt><trkpt lat="44.8229482" lon="9.503118"><ele>189.0</ele><time>2026-04-29T08:16:36.819Z</time></trkpt><trkpt lat="44.8228061" lon="9.5029546"><ele>189.0</ele><time>2026-04-29T08:16:37.819Z</time></trkpt><trkpt lat="44.8226669" lon="9.5027967"><ele>189.0</ele><time>2026-04-29T08:16:38.819Z</time></trkpt><trkpt lat="44.8225307" lon="9.5026396"><ele>188.33333333333334</ele><time>2026-04-29T08:16:39.819Z</time></trkpt><trkpt lat="44.8223933" lon="9.5024809"><ele>187.66666666666669</ele><time>2026-04-29T08:16:40.819Z</time></trkpt><trkpt lat="44.822251" lon="9.502321"><ele>187.0</ele><time>2026-04-29T08:16:41.818Z</time></trkpt><trkpt lat="44.8221007" lon="9.5021532"><ele>186.66666666666669</ele><time>2026-04-29T08:16:42.819Z</time></trkpt><trkpt lat="44.8219504" lon="9.5019767"><ele>186.33333333333334</ele><time>2026-04-29T08:16:43.819Z</time></trkpt><trkpt lat="44.8218059" lon="9.5017922"><ele>186.0</ele><time>2026-04-29T08:16:44.819Z</time></trkpt><trkpt lat="44.8216694" lon="9.5016044"><ele>187.0</ele><time>2026-04-29T08:16:45.818Z</time></trkpt><trkpt lat="44.8215405" lon="9.5014072"><ele>188.0</ele><time>2026-04-29T08:16:46.819Z</time></trkpt><trkpt lat="44.8214194" lon="9.5011985"><ele>189.0</ele><time>2026-04-29T08:16:47.819Z</time></trkpt><trkpt lat="44.8213052" lon="9.500985"><ele>189.0</ele><time>2026-04-29T08:16:48.818Z</time></trkpt><trkpt lat="44.8212039" lon="9.500767"><ele>189.0</ele><time>2026-04-29T08:16:49.818Z</time></trkpt><trkpt lat="44.8211064" lon="9.500539"><ele>189.0</ele><time>2026-04-29T08:16:50.819Z</time></trkpt><trkpt lat="44.8210182" lon="9.5003047"><ele>190.33333333333331</ele><time>2026-04-29T08:16:51.819Z</time></trkpt><trkpt lat="44.8209389" lon="9.5000607"><ele>191.66666666666666</ele><time>2026-04-29T08:16:52.819Z</time></trkpt><trkpt lat="44.8208659" lon="9.4998104"><ele>193.0</ele><time>2026-04-29T08:16:53.819Z</time></trkpt><trkpt lat="44.820798" lon="9.4995536"><ele>193.0</ele><time>2026-04-29T08:16:54.819Z</time></trkpt><trkpt lat="44.8207295" lon="9.4992919"><ele>193.0</ele><time>2026-04-29T08:16:55.818Z</time></trkpt><trkpt lat="44.8206651" lon="9.4990366"><ele>193.0</ele><time>2026-04-29T08:16:56.819Z</time></trkpt><trkpt lat="44.8206014" lon="9.4987892"><ele>192.66666666666666</ele><time>2026-04-29T08:16:57.819Z</time></trkpt><trkpt lat="44.8205374" lon="9.4985402"><ele>192.33333333333331</ele><time>2026-04-29T08:16:58.819Z</time></trkpt><trkpt lat="44.8204712" lon="9.4982947"><ele>192.0</ele><time>2026-04-29T08:16:59.819Z</time></trkpt><trkpt lat="44.8204007" lon="9.4980514"><ele>191.66666666666666</ele><time>2026-04-29T08:17:00.819Z</time></trkpt><trkpt lat="44.8203287" lon="9.4978206"><ele>191.33333333333331</ele><time>2026-04-29T08:17:01.819Z</time></trkpt><trkpt lat="44.8202532" lon="9.4975927"><ele>191.0</ele><time>2026-04-29T08:17:02.819Z</time></trkpt><trkpt lat="44.820175" lon="9.497367"><ele>193.33333333333331</ele><time>2026-04-29T08:17:03.819Z</time></trkpt><trkpt lat="44.8200987" lon="9.4971384"><ele>195.66666666666666</ele><time>2026-04-29T08:17:04.819Z</time></trkpt><trkpt lat="44.8200246" lon="9.4969118"><ele>198.0</ele><time>2026-04-29T08:17:05.818Z</time></trkpt><trkpt lat="44.8199507" lon="9.496687"><ele>198.0</ele><time>2026-04-29T08:17:06.817Z</time></trkpt><trkpt lat="44.819876" lon="9.4964626"><ele>198.0</ele><time>2026-04-29T08:17:07.818Z</time></trkpt><trkpt lat="44.8198027" lon="9.4962362"><ele>198.0</ele><time>2026-04-29T08:17:08.818Z</time></trkpt><trkpt lat="44.8197297" lon="9.4960116"><ele>196.33333333333331</ele><time>2026-04-29T08:17:09.819Z</time></trkpt><trkpt lat="44.8196607" lon="9.4957863"><ele>194.66666666666666</ele><time>2026-04-29T08:17:10.819Z</time></trkpt><trkpt lat="44.8195955" lon="9.4955593"><ele>193.0</ele><time>2026-04-29T08:17:11.818Z</time></trkpt><trkpt lat="44.8195312" lon="9.4953293"><ele>192.0</ele><time>2026-04-29T08:17:12.819Z</time></trkpt><trkpt lat="44.8194671" lon="9.4951002"><ele>191.0</ele><time>2026-04-29T08:17:13.818Z</time></trkpt><trkpt lat="44.8194018" lon="9.494871"><ele>190.0</ele><time>2026-04-29T08:17:14.818Z</time></trkpt><trkpt lat="44.8193351" lon="9.49464"><ele>192.66666666666669</ele><time>2026-04-29T08:17:15.818Z</time></trkpt><trkpt lat="44.8192699" lon="9.4944034"><ele>195.33333333333334</ele><time>2026-04-29T08:17:16.819Z</time></trkpt><trkpt lat="44.819209" lon="9.4941619"><ele>198.0</ele><time>2026-04-29T08:17:17.818Z</time></trkpt><trkpt lat="44.8191536" lon="9.4939132"><ele>196.66666666666669</ele><time>2026-04-29T08:17:18.818Z</time></trkpt><trkpt lat="44.8191051" lon="9.4936566"><ele>195.33333333333334</ele><time>2026-04-29T08:17:19.818Z</time></trkpt><trkpt lat="44.819063" lon="9.4933945"><ele>194.0</ele><time>2026-04-29T08:17:20.818Z</time></trkpt><trkpt lat="44.8190248" lon="9.4931292"><ele>194.0</ele><time>2026-04-29T08:17:21.819Z</time></trkpt><trkpt lat="44.8189954" lon="9.4928667"><ele>194.0</ele><time>2026-04-29T08:17:22.818Z</time></trkpt><trkpt lat="44.8189724" lon="9.4926162"><ele>194.0</ele><time>2026-04-29T08:17:23.818Z</time></trkpt><trkpt lat="44.8189528" lon="9.4923649"><ele>194.0</ele><time>2026-04-29T08:17:24.819Z</time></trkpt><trkpt lat="44.8189372" lon="9.4921134"><ele>194.0</ele><time>2026-04-29T08:17:25.818Z</time></trkpt><trkpt lat="44.8189299" lon="9.4918616"><ele>194.0</ele><time>2026-04-29T08:17:26.819Z</time></trkpt><trkpt lat="44.8189241" lon="9.4916067"><ele>194.0</ele><time>2026-04-29T08:17:27.818Z</time></trkpt><trkpt lat="44.8189183" lon="9.4913508"><ele>194.0</ele><time>2026-04-29T08:17:28.818Z</time></trkpt><trkpt lat="44.8189115" lon="9.4910972"><ele>194.0</ele><time>2026-04-29T08:17:29.818Z</time></trkpt><trkpt lat="44.8189013" lon="9.4908468"><ele>194.33333333333334</ele><time>2026-04-29T08:17:30.819Z</time></trkpt><trkpt lat="44.8188941" lon="9.4905981"><ele>194.66666666666669</ele><time>2026-04-29T08:17:31.818Z</time></trkpt><trkpt lat="44.8188897" lon="9.4903477"><ele>195.0</ele><time>2026-04-29T08:17:32.817Z</time></trkpt><trkpt lat="44.8188846" lon="9.4900986"><ele>195.0</ele><time>2026-04-29T08:17:33.819Z</time></trkpt><trkpt lat="44.81888" lon="9.4898484"><ele>195.0</ele><time>2026-04-29T08:17:34.819Z</time></trkpt><trkpt lat="44.8188756" lon="9.4895976"><ele>195.0</ele><time>2026-04-29T08:17:35.818Z</time></trkpt><trkpt lat="44.8188693" lon="9.4893406"><ele>195.0</ele><time>2026-04-29T08:17:36.819Z</time></trkpt><trkpt lat="44.8188633" lon="9.4890849"><ele>195.0</ele><time>2026-04-29T08:17:37.819Z</time></trkpt><trkpt lat="44.8188556" lon="9.488826"><ele>195.0</ele><time>2026-04-29T08:17:38.818Z</time></trkpt><trkpt lat="44.8188496" lon="9.4885665"><ele>194.66666666666669</ele><time>2026-04-29T08:17:39.818Z</time></trkpt><trkpt lat="44.8188435" lon="9.4883079"><ele>194.33333333333334</ele><time>2026-04-29T08:17:40.818Z</time></trkpt><trkpt lat="44.8188372" lon="9.4880543"><ele>194.0</ele><time>2026-04-29T08:17:41.818Z</time></trkpt><trkpt lat="44.8188293" lon="9.4878015"><ele>194.66666666666669</ele><time>2026-04-29T08:17:42.819Z</time></trkpt><trkpt lat="44.8188215" lon="9.4875482"><ele>195.33333333333331</ele><time>2026-04-29T08:17:43.819Z</time></trkpt><trkpt lat="44.8188157" lon="9.487293"><ele>196.0</ele><time>2026-04-29T08:17:44.815Z</time></trkpt><trkpt lat="44.8188088" lon="9.4870386"><ele>196.66666666666666</ele><time>2026-04-29T08:17:45.819Z</time></trkpt><trkpt lat="44.8187939" lon="9.4867939"><ele>197.33333333333331</ele><time>2026-04-29T08:17:46.818Z</time></trkpt><trkpt lat="44.8187681" lon="9.4865411"><ele>198.0</ele><time>2026-04-29T08:17:47.819Z</time></trkpt><trkpt lat="44.8187281" lon="9.4862877"><ele>198.33333333333331</ele><time>2026-04-29T08:17:48.817Z</time></trkpt><trkpt lat="44.8186753" lon="9.486031"><ele>198.66666666666666</ele><time>2026-04-29T08:17:49.819Z</time></trkpt><trkpt lat="44.8186107" lon="9.4857766"><ele>199.0</ele><time>2026-04-29T08:17:50.818Z</time></trkpt><trkpt lat="44.8185335" lon="9.485526"><ele>205.0</ele><time>2026-04-29T08:17:51.818Z</time></trkpt><trkpt lat="44.8184541" lon="9.4852732"><ele>211.0</ele><time>2026-04-29T08:17:52.818Z</time></trkpt><trkpt lat="44.8183756" lon="9.4850244"><ele>217.0</ele><time>2026-04-29T08:17:53.818Z</time></trkpt><trkpt lat="44.818296" lon="9.4847756"><ele>204.0</ele><time>2026-04-29T08:17:54.819Z</time></trkpt><trkpt lat="44.8172212" lon="9.4819658"><ele>204.0</ele><time>2026-04-29T08:18:06.818Z</time></trkpt><trkpt lat="44.8171487" lon="9.4817611"><ele>204.0</ele><time>2026-04-29T08:18:07.816Z</time></trkpt><trkpt lat="44.8170719" lon="9.4815492"><ele>204.0</ele><time>2026-04-29T08:18:08.819Z</time></trkpt><trkpt lat="44.8170079" lon="9.4813245"><ele>202.66666666666669</ele><time>2026-04-29T08:18:09.819Z</time></trkpt><trkpt lat="44.8169452" lon="9.481101"><ele>201.33333333333334</ele><time>2026-04-29T08:18:10.819Z</time></trkpt><trkpt lat="44.8168873" lon="9.480868"><ele>200.0</ele><time>2026-04-29T08:18:11.819Z</time></trkpt><trkpt lat="44.816829" lon="9.480636"><ele>202.33333333333334</ele><time>2026-04-29T08:18:12.818Z</time></trkpt><trkpt lat="44.8167779" lon="9.4803955"><ele>204.66666666666669</ele><time>2026-04-29T08:18:13.817Z</time></trkpt><trkpt lat="44.8167346" lon="9.4801488"><ele>207.0</ele><time>2026-04-29T08:18:14.819Z</time></trkpt><trkpt lat="44.8167001" lon="9.4798958"><ele>207.0</ele><time>2026-04-29T08:18:15.817Z</time></trkpt><trkpt lat="44.816672" lon="9.4796387"><ele>207.0</ele><time>2026-04-29T08:18:16.818Z</time></trkpt><trkpt lat="44.8166527" lon="9.4793816"><ele>207.0</ele><time>2026-04-29T08:18:17.819Z</time></trkpt><trkpt lat="44.8166404" lon="9.47912"><ele>207.66666666666669</ele><time>2026-04-29T08:18:18.818Z</time></trkpt><trkpt lat="44.8166328" lon="9.4788549"><ele>208.33333333333334</ele><time>2026-04-29T08:18:19.817Z</time></trkpt><trkpt lat="44.8166309" lon="9.4785879"><ele>209.0</ele><time>2026-04-29T08:18:20.819Z</time></trkpt><trkpt lat="44.8166323" lon="9.4783184"><ele>209.33333333333334</ele><time>2026-04-29T08:18:21.818Z</time></trkpt><trkpt lat="44.8166317" lon="9.4780477"><ele>209.66666666666669</ele><time>2026-04-29T08:18:22.818Z</time></trkpt><trkpt lat="44.8166301" lon="9.477776"><ele>210.0</ele><time>2026-04-29T08:18:23.819Z</time></trkpt><trkpt lat="44.8166272" lon="9.4775031"><ele>210.33333333333331</ele><time>2026-04-29T08:18:24.819Z</time></trkpt><trkpt lat="44.8166272" lon="9.4772293"><ele>210.66666666666666</ele><time>2026-04-29T08:18:25.819Z</time></trkpt><trkpt lat="44.8166272" lon="9.4769575"><ele>211.0</ele><time>2026-04-29T08:18:26.819Z</time></trkpt><trkpt lat="44.8166289" lon="9.4766839"><ele>212.66666666666666</ele><time>2026-04-29T08:18:27.819Z</time></trkpt><trkpt lat="44.816629" lon="9.4764184"><ele>214.33333333333331</ele><time>2026-04-29T08:18:28.818Z</time></trkpt><trkpt lat="44.8166302" lon="9.4761598"><ele>216.0</ele><time>2026-04-29T08:18:29.819Z</time></trkpt><trkpt lat="44.8166292" lon="9.4759061"><ele>217.66666666666669</ele><time>2026-04-29T08:18:30.819Z</time></trkpt><trkpt lat="44.8166284" lon="9.4756533"><ele>219.33333333333334</ele><time>2026-04-29T08:18:31.818Z</time></trkpt><trkpt lat="44.8166282" lon="9.4754064"><ele>221.0</ele><time>2026-04-29T08:18:32.819Z</time></trkpt><trkpt lat="44.8166314" lon="9.4751585"><ele>222.33333333333334</ele><time>2026-04-29T08:18:33.817Z</time></trkpt><trkpt lat="44.8166335" lon="9.4749156"><ele>223.66666666666669</ele><time>2026-04-29T08:18:34.819Z</time></trkpt><trkpt lat="44.8166356" lon="9.4746738"><ele>225.0</ele><time>2026-04-29T08:18:35.818Z</time></trkpt><trkpt lat="44.8166397" lon="9.4744369"><ele>226.0</ele><time>2026-04-29T08:18:36.819Z</time></trkpt><trkpt lat="44.8166442" lon="9.4742108"><ele>227.0</ele><time>2026-04-29T08:18:37.819Z</time></trkpt><trkpt lat="44.8166503" lon="9.4739945"><ele>228.0</ele><time>2026-04-29T08:18:38.818Z</time></trkpt><trkpt lat="44.8166574" lon="9.473792"><ele>228.0</ele><time>2026-04-29T08:18:39.818Z</time></trkpt><trkpt lat="44.8166696" lon="9.4735951"><ele>228.0</ele><time>2026-04-29T08:18:40.818Z</time></trkpt><trkpt lat="44.8166867" lon="9.4734086"><ele>228.0</ele><time>2026-04-29T08:18:41.819Z</time></trkpt><trkpt lat="44.8167168" lon="9.4732249"><ele>228.0</ele><time>2026-04-29T08:18:42.819Z</time></trkpt><trkpt lat="44.8167613" lon="9.47304"><ele>226.75</ele><time>2026-04-29T08:18:43.819Z</time></trkpt><trkpt lat="44.8168193" lon="9.4728535"><ele>225.5</ele><time>2026-04-29T08:18:44.819Z</time></trkpt><trkpt lat="44.8168913" lon="9.4726683"><ele>224.25</ele><time>2026-04-29T08:18:45.818Z</time></trkpt><trkpt lat="44.8169756" lon="9.4724891"><ele>223.0</ele><time>2026-04-29T08:18:46.819Z</time></trkpt><trkpt lat="44.8170746" lon="9.4723194"><ele>223.0</ele><time>2026-04-29T08:18:47.817Z</time></trkpt><trkpt lat="44.8171838" lon="9.4721565"><ele>223.0</ele><time>2026-04-29T08:18:48.818Z</time></trkpt><trkpt lat="44.8172954" lon="9.4719976"><ele>223.0</ele><time>2026-04-29T08:18:49.817Z</time></trkpt><trkpt lat="44.8173994" lon="9.4718231"><ele>225.66666666666666</ele><time>2026-04-29T08:18:50.818Z</time></trkpt><trkpt lat="44.817479" lon="9.4716237"><ele>228.33333333333331</ele><time>2026-04-29T08:18:51.819Z</time></trkpt><trkpt lat="44.8175373" lon="9.471404"><ele>231.0</ele><time>2026-04-29T08:18:52.817Z</time></trkpt><trkpt lat="44.8175765" lon="9.47117"><ele>230.66666666666669</ele><time>2026-04-29T08:18:53.819Z</time></trkpt><trkpt lat="44.8175927" lon="9.4709267"><ele>230.33333333333334</ele><time>2026-04-29T08:18:54.818Z</time></trkpt><trkpt lat="44.8175806" lon="9.470679"><ele>230.0</ele><time>2026-04-29T08:18:55.819Z</time></trkpt><trkpt lat="44.8175464" lon="9.4704315"><ele>230.0</ele><time>2026-04-29T08:18:56.819Z</time></trkpt><trkpt lat="44.8174986" lon="9.4701813"><ele>230.0</ele><time>2026-04-29T08:18:57.819Z</time></trkpt><trkpt lat="44.8174487" lon="9.4699334"><ele>230.0</ele><time>2026-04-29T08:18:58.819Z</time></trkpt><trkpt lat="44.8174027" lon="9.4696894"><ele>226.66666666666669</ele><time>2026-04-29T08:18:59.819Z</time></trkpt><trkpt lat="44.8173561" lon="9.4694414"><ele>223.33333333333331</ele><time>2026-04-29T08:19:00.819Z</time></trkpt><trkpt lat="44.8173078" lon="9.4691944"><ele>220.0</ele><time>2026-04-29T08:19:01.819Z</time></trkpt><trkpt lat="44.8172584" lon="9.4689457"><ele>219.33333333333331</ele><time>2026-04-29T08:19:02.817Z</time></trkpt><trkpt lat="44.8172087" lon="9.4686973"><ele>218.66666666666669</ele><time>2026-04-29T08:19:03.819Z</time></trkpt><trkpt lat="44.8171588" lon="9.4684481"><ele>218.0</ele><time>2026-04-29T08:19:04.817Z</time></trkpt><trkpt lat="44.8171098" lon="9.4681979"><ele>218.0</ele><time>2026-04-29T08:19:05.818Z</time></trkpt><trkpt lat="44.8170577" lon="9.4679466"><ele>218.0</ele><time>2026-04-29T08:19:06.819Z</time></trkpt><trkpt lat="44.8169986" lon="9.4676923"><ele>218.0</ele><time>2026-04-29T08:19:07.818Z</time></trkpt><trkpt lat="44.8169316" lon="9.4674376"><ele>217.66666666666669</ele><time>2026-04-29T08:19:08.818Z</time></trkpt><trkpt lat="44.8168545" lon="9.4671849"><ele>217.33333333333331</ele><time>2026-04-29T08:19:09.819Z</time></trkpt><trkpt lat="44.8167637" lon="9.4669349"><ele>217.0</ele><time>2026-04-29T08:19:10.818Z</time></trkpt><trkpt lat="44.8166684" lon="9.4666916"><ele>217.66666666666666</ele><time>2026-04-29T08:19:11.818Z</time></trkpt><trkpt lat="44.8165739" lon="9.4664672"><ele>218.33333333333331</ele><time>2026-04-29T08:19:12.819Z</time></trkpt><trkpt lat="44.8164877" lon="9.4662669"><ele>219.0</ele><time>2026-04-29T08:19:13.819Z</time></trkpt><trkpt lat="44.8164064" lon="9.4660741"><ele>219.0</ele><time>2026-04-29T08:19:14.817Z</time></trkpt><trkpt lat="44.81633" lon="9.4658816"><ele>219.0</ele><time>2026-04-29T08:19:15.819Z</time></trkpt><trkpt lat="44.8162578" lon="9.4656808"><ele>219.0</ele><time>2026-04-29T08:19:16.818Z</time></trkpt><trkpt lat="44.8161912" lon="9.465466"><ele>217.0</ele><time>2026-04-29T08:19:17.818Z</time></trkpt><trkpt lat="44.816138" lon="9.4652388"><ele>215.0</ele><time>2026-04-29T08:19:18.819Z</time></trkpt><trkpt lat="44.8161004" lon="9.4650019"><ele>213.0</ele><time>2026-04-29T08:19:19.819Z</time></trkpt><trkpt lat="44.8160693" lon="9.464754"><ele>212.33333333333331</ele><time>2026-04-29T08:19:20.819Z</time></trkpt><trkpt lat="44.8160437" lon="9.4645032"><ele>211.66666666666666</ele><time>2026-04-29T08:19:21.817Z</time></trkpt><trkpt lat="44.8160189" lon="9.4642471"><ele>211.0</ele><time>2026-04-29T08:19:22.819Z</time></trkpt><trkpt lat="44.8159932" lon="9.4639991"><ele>218.0</ele><time>2026-04-29T08:19:23.818Z</time></trkpt><trkpt lat="44.8159661" lon="9.4637615"><ele>225.0</ele><time>2026-04-29T08:19:24.818Z</time></trkpt><trkpt lat="44.8159354" lon="9.4635223"><ele>232.0</ele><time>2026-04-29T08:19:25.819Z</time></trkpt><trkpt lat="44.8159036" lon="9.463283"><ele>232.0</ele><time>2026-04-29T08:19:26.819Z</time></trkpt><trkpt lat="44.815871" lon="9.4630473"><ele>232.0</ele><time>2026-04-29T08:19:27.818Z</time></trkpt><trkpt lat="44.8158357" lon="9.462814"><ele>232.0</ele><time>2026-04-29T08:19:28.819Z</time></trkpt><trkpt lat="44.8157982" lon="9.4625908"><ele>231.0</ele><time>2026-04-29T08:19:29.818Z</time></trkpt><trkpt lat="44.8157635" lon="9.4623726"><ele>230.0</ele><time>2026-04-29T08:19:30.818Z</time></trkpt><trkpt lat="44.8157279" lon="9.4621559"><ele>229.0</ele><time>2026-04-29T08:19:31.817Z</time></trkpt><trkpt lat="44.8156953" lon="9.4619386"><ele>228.0</ele><time>2026-04-29T08:19:32.819Z</time></trkpt><trkpt lat="44.8156639" lon="9.4617235"><ele>227.0</ele><time>2026-04-29T08:19:33.819Z</time></trkpt><trkpt lat="44.8156381" lon="9.4615087"><ele>226.0</ele><time>2026-04-29T08:19:34.819Z</time></trkpt><trkpt lat="44.8156136" lon="9.4612945"><ele>225.33333333333331</ele><time>2026-04-29T08:19:35.819Z</time></trkpt><trkpt lat="44.8155907" lon="9.4610782"><ele>224.66666666666669</ele><time>2026-04-29T08:19:36.819Z</time></trkpt><trkpt lat="44.8155683" lon="9.4608546"><ele>224.0</ele><time>2026-04-29T08:19:37.817Z</time></trkpt><trkpt lat="44.815547" lon="9.460626"><ele>223.33333333333334</ele><time>2026-04-29T08:19:38.817Z</time></trkpt><trkpt lat="44.8155236" lon="9.4603905"><ele>222.66666666666669</ele><time>2026-04-29T08:19:39.818Z</time></trkpt><trkpt lat="44.8155019" lon="9.4601484"><ele>222.0</ele><time>2026-04-29T08:19:40.816Z</time></trkpt><trkpt lat="44.8154784" lon="9.4599004"><ele>222.0</ele><time>2026-04-29T08:19:41.818Z</time></trkpt><trkpt lat="44.8154542" lon="9.4596483"><ele>222.0</ele><time>2026-04-29T08:19:42.818Z</time></trkpt><trkpt lat="44.8154315" lon="9.4594009"><ele>222.0</ele><time>2026-04-29T08:19:43.817Z</time></trkpt><trkpt lat="44.8154019" lon="9.4591653"><ele>222.0</ele><time>2026-04-29T08:19:44.818Z</time></trkpt><trkpt lat="44.8153662" lon="9.4589391"><ele>222.0</ele><time>2026-04-29T08:19:45.818Z</time></trkpt><trkpt lat="44.8153247" lon="9.4587241"><ele>222.0</ele><time>2026-04-29T08:19:46.819Z</time></trkpt><trkpt lat="44.8152852" lon="9.4585538"><ele>222.0</ele><time>2026-04-29T08:19:47.818Z</time></trkpt><trkpt lat="44.8152498" lon="9.4584225"><ele>222.0</ele><time>2026-04-29T08:19:48.818Z</time></trkpt><trkpt lat="44.8152176" lon="9.458327"><ele>222.0</ele><time>2026-04-29T08:19:49.818Z</time></trkpt><trkpt lat="44.8151697" lon="9.4581914"><ele>222.0</ele><time>2026-04-29T08:19:51.817Z</time></trkpt><trkpt lat="44.8151336" lon="9.4580989"><ele>222.0</ele><time>2026-04-29T08:19:53.818Z</time></trkpt><trkpt lat="44.8150769" lon="9.4580206"><ele>222.0</ele><time>2026-04-29T08:22:26.819Z</time></trkpt><trkpt lat="44.8150019" lon="9.4578711"><ele>222.8</ele><time>2026-04-29T08:22:28.819Z</time></trkpt><trkpt lat="44.814955" lon="9.4577707"><ele>223.6</ele><time>2026-04-29T08:22:29.818Z</time></trkpt><trkpt lat="44.8149031" lon="9.457659"><ele>224.40000000000003</ele><time>2026-04-29T08:22:30.819Z</time></trkpt><trkpt lat="44.8148465" lon="9.4575365"><ele>225.20000000000002</ele><time>2026-04-29T08:22:31.819Z</time></trkpt><trkpt lat="44.8147894" lon="9.4574143"><ele>226.0</ele><time>2026-04-29T08:22:32.819Z</time></trkpt><trkpt lat="44.8147319" lon="9.4572915"><ele>226.0</ele><time>2026-04-29T08:22:33.819Z</time></trkpt><trkpt lat="44.8146747" lon="9.4571608"><ele>226.0</ele><time>2026-04-29T08:22:34.819Z</time></trkpt><trkpt lat="44.8146122" lon="9.4570233"><ele>226.0</ele><time>2026-04-29T08:22:35.789Z</time></trkpt><trkpt lat="44.8145489" lon="9.4568757"><ele>226.0</ele><time>2026-04-29T08:22:36.819Z</time></trkpt><trkpt lat="44.8144789" lon="9.4567124"><ele>226.0</ele><time>2026-04-29T08:22:37.818Z</time></trkpt><trkpt lat="44.8143988" lon="9.4565296"><ele>226.0</ele><time>2026-04-29T08:22:38.819Z</time></trkpt><trkpt lat="44.8143141" lon="9.4563392"><ele>226.0</ele><time>2026-04-29T08:22:39.819Z</time></trkpt><trkpt lat="44.8142281" lon="9.4561464"><ele>224.0</ele><time>2026-04-29T08:22:40.819Z</time></trkpt><trkpt lat="44.8141399" lon="9.4559528"><ele>222.0</ele><time>2026-04-29T08:22:41.818Z</time></trkpt><trkpt lat="44.8140543" lon="9.4557657"><ele>220.0</ele><time>2026-04-29T08:22:42.819Z</time></trkpt><trkpt lat="44.8139677" lon="9.4555749"><ele>218.33333333333331</ele><time>2026-04-29T08:22:43.819Z</time></trkpt><trkpt lat="44.8138808" lon="9.4553842"><ele>216.66666666666669</ele><time>2026-04-29T08:22:44.792Z</time></trkpt><trkpt lat="44.8137933" lon="9.4551895"><ele>215.0</ele><time>2026-04-29T08:22:45.79Z</time></trkpt><trkpt lat="44.8137043" lon="9.4549921"><ele>215.0</ele><time>2026-04-29T08:22:46.79Z</time></trkpt><trkpt lat="44.8136182" lon="9.4547991"><ele>215.0</ele><time>2026-04-29T08:22:47.79Z</time></trkpt><trkpt lat="44.8135285" lon="9.4545967"><ele>215.0</ele><time>2026-04-29T08:22:48.792Z</time></trkpt><trkpt lat="44.8134414" lon="9.454401"><ele>216.66666666666669</ele><time>2026-04-29T08:22:49.791Z</time></trkpt><trkpt lat="44.8133525" lon="9.4542024"><ele>218.33333333333331</ele><time>2026-04-29T08:22:50.79Z</time></trkpt><trkpt lat="44.8132619" lon="9.4539993"><ele>220.0</ele><time>2026-04-29T08:22:51.79Z</time></trkpt><trkpt lat="44.8131692" lon="9.4537925"><ele>218.0</ele><time>2026-04-29T08:22:52.79Z</time></trkpt><trkpt lat="44.8130719" lon="9.4535792"><ele>216.0</ele><time>2026-04-29T08:22:53.819Z</time></trkpt><trkpt lat="44.8129763" lon="9.4533671"><ele>214.0</ele><time>2026-04-29T08:22:54.818Z</time></trkpt><trkpt lat="44.812879" lon="9.4531537"><ele>213.33333333333331</ele><time>2026-04-29T08:22:55.819Z</time></trkpt><trkpt lat="44.812786" lon="9.4529476"><ele>212.66666666666669</ele><time>2026-04-29T08:22:56.817Z</time></trkpt><trkpt lat="44.8126939" lon="9.4527417"><ele>212.0</ele><time>2026-04-29T08:22:57.818Z</time></trkpt><trkpt lat="44.8126096" lon="9.4525364"><ele>215.33333333333334</ele><time>2026-04-29T08:22:58.819Z</time></trkpt><trkpt lat="44.8125401" lon="9.452334"><ele>218.66666666666669</ele><time>2026-04-29T08:22:59.818Z</time></trkpt><trkpt lat="44.8124816" lon="9.452131"><ele>222.0</ele><time>2026-04-29T08:23:00.818Z</time></trkpt><trkpt lat="44.8124379" lon="9.45193"><ele>222.0</ele><time>2026-04-29T08:23:01.789Z</time></trkpt><trkpt lat="44.8124077" lon="9.4517211"><ele>222.0</ele><time>2026-04-29T08:23:02.791Z</time></trkpt><trkpt lat="44.8123818" lon="9.4515087"><ele>222.0</ele><time>2026-04-29T08:23:03.79Z</time></trkpt><trkpt lat="44.8123533" lon="9.4512719"><ele>221.0</ele><time>2026-04-29T08:23:04.789Z</time></trkpt><trkpt lat="44.8123212" lon="9.45103"><ele>220.0</ele><time>2026-04-29T08:23:05.79Z</time></trkpt><trkpt lat="44.8122869" lon="9.4507767"><ele>219.0</ele><time>2026-04-29T08:23:06.793Z</time></trkpt><trkpt lat="44.8122521" lon="9.4505123"><ele>219.0</ele><time>2026-04-29T08:23:07.794Z</time></trkpt><trkpt lat="44.8122174" lon="9.4502391"><ele>219.0</ele><time>2026-04-29T08:23:08.794Z</time></trkpt><trkpt lat="44.8121831" lon="9.449962"><ele>219.0</ele><time>2026-04-29T08:23:09.794Z</time></trkpt><trkpt lat="44.8121489" lon="9.4496864"><ele>217.66666666666669</ele><time>2026-04-29T08:23:10.794Z</time></trkpt><trkpt lat="44.812116" lon="9.4494207"><ele>216.33333333333334</ele><time>2026-04-29T08:23:11.794Z</time></trkpt><trkpt lat="44.8120818" lon="9.4491367"><ele>215.0</ele><time>2026-04-29T08:23:12.793Z</time></trkpt><trkpt lat="44.8120483" lon="9.4488616"><ele>214.66666666666669</ele><time>2026-04-29T08:23:13.794Z</time></trkpt><trkpt lat="44.8120146" lon="9.4485853"><ele>214.33333333333331</ele><time>2026-04-29T08:23:14.794Z</time></trkpt><trkpt lat="44.8119809" lon="9.4483069"><ele>214.0</ele><time>2026-04-29T08:23:15.794Z</time></trkpt><trkpt lat="44.8119466" lon="9.4480255"><ele>213.66666666666666</ele><time>2026-04-29T08:23:16.793Z</time></trkpt><trkpt lat="44.8119122" lon="9.4477409"><ele>213.33333333333331</ele><time>2026-04-29T08:23:17.794Z</time></trkpt><trkpt lat="44.8118781" lon="9.4474532"><ele>213.0</ele><time>2026-04-29T08:23:18.794Z</time></trkpt><trkpt lat="44.8118442" lon="9.4471708"><ele>215.33333333333331</ele><time>2026-04-29T08:23:19.794Z</time></trkpt><trkpt lat="44.8118066" lon="9.4468671"><ele>217.66666666666666</ele><time>2026-04-29T08:23:20.793Z</time></trkpt><trkpt lat="44.8117709" lon="9.4465766"><ele>220.0</ele><time>2026-04-29T08:23:21.793Z</time></trkpt><trkpt lat="44.8117368" lon="9.446294"><ele>220.0</ele><time>2026-04-29T08:23:22.794Z</time></trkpt><trkpt lat="44.8117031" lon="9.446015"><ele>220.0</ele><time>2026-04-29T08:23:23.793Z</time></trkpt><trkpt lat="44.8116686" lon="9.4457366"><ele>220.0</ele><time>2026-04-29T08:23:24.794Z</time></trkpt><trkpt lat="44.8116338" lon="9.4454586"><ele>220.66666666666666</ele><time>2026-04-29T08:23:25.793Z</time></trkpt><trkpt lat="44.8115985" lon="9.445181"><ele>221.33333333333331</ele><time>2026-04-29T08:23:26.794Z</time></trkpt><trkpt lat="44.8115659" lon="9.4449185"><ele>222.0</ele><time>2026-04-29T08:23:27.794Z</time></trkpt><trkpt lat="44.8115331" lon="9.4446449"><ele>222.0</ele><time>2026-04-29T08:23:28.794Z</time></trkpt><trkpt lat="44.8115015" lon="9.444383"><ele>222.0</ele><time>2026-04-29T08:23:29.794Z</time></trkpt><trkpt lat="44.8114702" lon="9.4441217"><ele>222.0</ele><time>2026-04-29T08:23:30.793Z</time></trkpt><trkpt lat="44.811439" lon="9.4438607"><ele>221.66666666666669</ele><time>2026-04-29T08:23:31.793Z</time></trkpt><trkpt lat="44.8114075" lon="9.4436007"><ele>221.33333333333334</ele><time>2026-04-29T08:23:32.794Z</time></trkpt><trkpt lat="44.8113759" lon="9.4433405"><ele>221.0</ele><time>2026-04-29T08:23:33.794Z</time></trkpt><trkpt lat="44.8113448" lon="9.4430811"><ele>221.0</ele><time>2026-04-29T08:23:34.794Z</time></trkpt><trkpt lat="44.8113158" lon="9.4428303"><ele>221.0</ele><time>2026-04-29T08:23:35.794Z</time></trkpt><trkpt lat="44.8112846" lon="9.4425623"><ele>221.0</ele><time>2026-04-29T08:23:36.794Z</time></trkpt><trkpt lat="44.8112539" lon="9.4423022"><ele>220.33333333333334</ele><time>2026-04-29T08:23:37.794Z</time></trkpt><trkpt lat="44.811224" lon="9.4420433"><ele>219.66666666666669</ele><time>2026-04-29T08:23:38.794Z</time></trkpt><trkpt lat="44.8111933" lon="9.4417849"><ele>219.0</ele><time>2026-04-29T08:23:39.794Z</time></trkpt><trkpt lat="44.8111606" lon="9.4415265"><ele>218.33333333333331</ele><time>2026-04-29T08:23:40.794Z</time></trkpt><trkpt lat="44.8111238" lon="9.4412649"><ele>217.66666666666666</ele><time>2026-04-29T08:23:41.794Z</time></trkpt><trkpt lat="44.8110798" lon="9.441001"><ele>217.0</ele><time>2026-04-29T08:23:42.794Z</time></trkpt><trkpt lat="44.8110292" lon="9.4407449"><ele>219.66666666666666</ele><time>2026-04-29T08:23:43.794Z</time></trkpt><trkpt lat="44.8109655" lon="9.4404738"><ele>222.33333333333331</ele><time>2026-04-29T08:23:44.793Z</time></trkpt><trkpt lat="44.8108944" lon="9.4402166"><ele>225.0</ele><time>2026-04-29T08:23:45.819Z</time></trkpt><trkpt lat="44.8108069" lon="9.4399674"><ele>225.0</ele><time>2026-04-29T08:23:46.818Z</time></trkpt><trkpt lat="44.8107104" lon="9.4397319"><ele>225.0</ele><time>2026-04-29T08:23:47.818Z</time></trkpt><trkpt lat="44.8105999" lon="9.4395162"><ele>225.0</ele><time>2026-04-29T08:23:48.819Z</time></trkpt><trkpt lat="44.8104809" lon="9.4393129"><ele>223.66666666666669</ele><time>2026-04-29T08:23:49.819Z</time></trkpt><trkpt lat="44.8103513" lon="9.4391101"><ele>222.33333333333334</ele><time>2026-04-29T08:23:50.819Z</time></trkpt><trkpt lat="44.8102172" lon="9.4389082"><ele>221.0</ele><time>2026-04-29T08:23:51.819Z</time></trkpt><trkpt lat="44.8100836" lon="9.4387054"><ele>223.66666666666669</ele><time>2026-04-29T08:23:52.818Z</time></trkpt><trkpt lat="44.8099474" lon="9.4385041"><ele>226.33333333333331</ele><time>2026-04-29T08:23:53.819Z</time></trkpt><trkpt lat="44.8098111" lon="9.4382988"><ele>229.0</ele><time>2026-04-29T08:23:54.819Z</time></trkpt><trkpt lat="44.8096765" lon="9.4380901"><ele>230.0</ele><time>2026-04-29T08:23:55.819Z</time></trkpt><trkpt lat="44.8095389" lon="9.437884"><ele>231.0</ele><time>2026-04-29T08:23:56.819Z</time></trkpt><trkpt lat="44.8094044" lon="9.4376851"><ele>232.0</ele><time>2026-04-29T08:23:57.819Z</time></trkpt><trkpt lat="44.8092737" lon="9.4374858"><ele>232.0</ele><time>2026-04-29T08:23:58.816Z</time></trkpt><trkpt lat="44.8091508" lon="9.437281"><ele>232.0</ele><time>2026-04-29T08:23:59.818Z</time></trkpt><trkpt lat="44.80904" lon="9.4370622"><ele>232.0</ele><time>2026-04-29T08:24:00.819Z</time></trkpt><trkpt lat="44.8089408" lon="9.4368297"><ele>228.66666666666666</ele><time>2026-04-29T08:24:01.819Z</time></trkpt><trkpt lat="44.8088492" lon="9.4365899"><ele>225.33333333333331</ele><time>2026-04-29T08:24:02.819Z</time></trkpt><trkpt lat="44.808762" lon="9.4363354"><ele>222.0</ele><time>2026-04-29T08:24:03.819Z</time></trkpt><trkpt lat="44.8086717" lon="9.4360797"><ele>221.66666666666669</ele><time>2026-04-29T08:24:04.817Z</time></trkpt><trkpt lat="44.8085769" lon="9.4358184"><ele>221.33333333333334</ele><time>2026-04-29T08:24:05.818Z</time></trkpt><trkpt lat="44.8084827" lon="9.4355494"><ele>221.0</ele><time>2026-04-29T08:24:06.818Z</time></trkpt><trkpt lat="44.8083886" lon="9.4352799"><ele>221.0</ele><time>2026-04-29T08:24:07.819Z</time></trkpt><trkpt lat="44.808293" lon="9.4350125"><ele>221.0</ele><time>2026-04-29T08:24:08.819Z</time></trkpt><trkpt lat="44.8081965" lon="9.4347418"><ele>221.0</ele><time>2026-04-29T08:24:09.819Z</time></trkpt><trkpt lat="44.808101" lon="9.4344711"><ele>221.0</ele><time>2026-04-29T08:24:10.818Z</time></trkpt><trkpt lat="44.8080047" lon="9.4341992"><ele>221.0</ele><time>2026-04-29T08:24:11.818Z</time></trkpt><trkpt lat="44.807908" lon="9.4339244"><ele>221.0</ele><time>2026-04-29T08:24:12.818Z</time></trkpt><trkpt lat="44.8078111" lon="9.4336466"><ele>221.0</ele><time>2026-04-29T08:24:13.819Z</time></trkpt><trkpt lat="44.8077147" lon="9.4333686"><ele>221.0</ele><time>2026-04-29T08:24:14.818Z</time></trkpt><trkpt lat="44.8076187" lon="9.4330917"><ele>221.0</ele><time>2026-04-29T08:24:15.819Z</time></trkpt><trkpt lat="44.8075216" lon="9.4328141"><ele>222.33333333333334</ele><time>2026-04-29T08:24:16.819Z</time></trkpt><trkpt lat="44.8074241" lon="9.4325345"><ele>223.66666666666669</ele><time>2026-04-29T08:24:17.818Z</time></trkpt><trkpt lat="44.8073259" lon="9.4322566"><ele>225.0</ele><time>2026-04-29T08:24:18.818Z</time></trkpt><trkpt lat="44.8072258" lon="9.4319817"><ele>228.0</ele><time>2026-04-29T08:24:19.818Z</time></trkpt><trkpt lat="44.80712" lon="9.4317217"><ele>231.0</ele><time>2026-04-29T08:24:20.818Z</time></trkpt><trkpt lat="44.8070092" lon="9.4314638"><ele>234.0</ele><time>2026-04-29T08:24:21.818Z</time></trkpt><trkpt lat="44.8068937" lon="9.431216"><ele>232.33333333333331</ele><time>2026-04-29T08:24:22.819Z</time></trkpt><trkpt lat="44.8067748" lon="9.4309745"><ele>230.66666666666666</ele><time>2026-04-29T08:24:23.818Z</time></trkpt><trkpt lat="44.8066549" lon="9.4307428"><ele>229.0</ele><time>2026-04-29T08:24:24.818Z</time></trkpt><trkpt lat="44.8065308" lon="9.4305184"><ele>229.0</ele><time>2026-04-29T08:24:25.817Z</time></trkpt><trkpt lat="44.8064035" lon="9.4302989"><ele>229.0</ele><time>2026-04-29T08:24:26.819Z</time></trkpt><trkpt lat="44.8062724" lon="9.4300877"><ele>229.0</ele><time>2026-04-29T08:24:27.819Z</time></trkpt><trkpt lat="44.8061402" lon="9.4298841"><ele>229.0</ele><time>2026-04-29T08:24:28.818Z</time></trkpt><trkpt lat="44.8060066" lon="9.429692"><ele>229.0</ele><time>2026-04-29T08:24:29.819Z</time></trkpt><trkpt lat="44.8058728" lon="9.4295099"><ele>229.0</ele><time>2026-04-29T08:24:30.818Z</time></trkpt><trkpt lat="44.805738" lon="9.4293356"><ele>229.66666666666666</ele><time>2026-04-29T08:24:31.819Z</time></trkpt><trkpt lat="44.8056051" lon="9.4291609"><ele>230.33333333333331</ele><time>2026-04-29T08:24:32.819Z</time></trkpt><trkpt lat="44.8054706" lon="9.4289839"><ele>231.0</ele><time>2026-04-29T08:24:33.819Z</time></trkpt><trkpt lat="44.8053349" lon="9.4288058"><ele>231.0</ele><time>2026-04-29T08:24:34.818Z</time></trkpt><trkpt lat="44.8051997" lon="9.4286267"><ele>231.0</ele><time>2026-04-29T08:24:35.819Z</time></trkpt><trkpt lat="44.8050635" lon="9.4284459"><ele>231.0</ele><time>2026-04-29T08:24:36.819Z</time></trkpt><trkpt lat="44.8049231" lon="9.4282626"><ele>230.0</ele><time>2026-04-29T08:24:37.819Z</time></trkpt><trkpt lat="44.8047792" lon="9.4280769"><ele>229.0</ele><time>2026-04-29T08:24:38.819Z</time></trkpt><trkpt lat="44.8046333" lon="9.427887"><ele>228.0</ele><time>2026-04-29T08:24:39.819Z</time></trkpt><trkpt lat="44.804483" lon="9.4276938"><ele>228.0</ele><time>2026-04-29T08:24:40.818Z</time></trkpt><trkpt lat="44.8043315" lon="9.4274956"><ele>228.0</ele><time>2026-04-29T08:24:41.818Z</time></trkpt><trkpt lat="44.8041787" lon="9.4272983"><ele>228.0</ele><time>2026-04-29T08:24:42.819Z</time></trkpt><trkpt lat="44.8040212" lon="9.4270961"><ele>228.66666666666669</ele><time>2026-04-29T08:24:43.819Z</time></trkpt><trkpt lat="44.8038664" lon="9.4268969"><ele>229.33333333333334</ele><time>2026-04-29T08:24:44.817Z</time></trkpt><trkpt lat="44.8037148" lon="9.4267017"><ele>230.0</ele><time>2026-04-29T08:24:45.818Z</time></trkpt><trkpt lat="44.8035634" lon="9.4265124"><ele>229.33333333333334</ele><time>2026-04-29T08:24:46.819Z</time></trkpt><trkpt lat="44.8034126" lon="9.4263307"><ele>228.66666666666669</ele><time>2026-04-29T08:24:47.819Z</time></trkpt><trkpt lat="44.8032574" lon="9.4261548"><ele>228.0</ele><time>2026-04-29T08:24:48.819Z</time></trkpt><trkpt lat="44.8031024" lon="9.4259907"><ele>227.66666666666669</ele><time>2026-04-29T08:24:49.819Z</time></trkpt><trkpt lat="44.8029462" lon="9.4258373"><ele>227.33333333333334</ele><time>2026-04-29T08:24:50.817Z</time></trkpt><trkpt lat="44.8027849" lon="9.4256875"><ele>227.0</ele><time>2026-04-29T08:24:51.819Z</time></trkpt><trkpt lat="44.8026245" lon="9.4255473"><ele>228.33333333333334</ele><time>2026-04-29T08:24:52.819Z</time></trkpt><trkpt lat="44.8024583" lon="9.4254184"><ele>229.66666666666669</ele><time>2026-04-29T08:24:53.819Z</time></trkpt><trkpt lat="44.8022928" lon="9.4252931"><ele>231.0</ele><time>2026-04-29T08:24:54.819Z</time></trkpt><trkpt lat="44.8021293" lon="9.4251675"><ele>231.0</ele><time>2026-04-29T08:24:55.819Z</time></trkpt><trkpt lat="44.8019636" lon="9.4250436"><ele>231.0</ele><time>2026-04-29T08:24:56.818Z</time></trkpt><trkpt lat="44.8017985" lon="9.42492"><ele>231.0</ele><time>2026-04-29T08:24:57.819Z</time></trkpt><trkpt lat="44.8016353" lon="9.4248005"><ele>229.66666666666669</ele><time>2026-04-29T08:24:58.818Z</time></trkpt><trkpt lat="44.8014725" lon="9.424682"><ele>228.33333333333334</ele><time>2026-04-29T08:24:59.819Z</time></trkpt><trkpt lat="44.8013114" lon="9.4245654"><ele>227.0</ele><time>2026-04-29T08:25:00.819Z</time></trkpt><trkpt lat="44.8011503" lon="9.4244529"><ele>227.66666666666669</ele><time>2026-04-29T08:25:01.819Z</time></trkpt><trkpt lat="44.8009912" lon="9.4243392"><ele>228.33333333333331</ele><time>2026-04-29T08:25:02.819Z</time></trkpt><trkpt lat="44.8008335" lon="9.4242234"><ele>229.0</ele><time>2026-04-29T08:25:03.818Z</time></trkpt><trkpt lat="44.8006745" lon="9.4241095"><ele>229.0</ele><time>2026-04-29T08:25:04.819Z</time></trkpt><trkpt lat="44.8005137" lon="9.4239926"><ele>229.0</ele><time>2026-04-29T08:25:05.819Z</time></trkpt><trkpt lat="44.80035" lon="9.4238759"><ele>229.0</ele><time>2026-04-29T08:25:06.819Z</time></trkpt><trkpt lat="44.800185" lon="9.4237628"><ele>230.66666666666666</ele><time>2026-04-29T08:25:07.818Z</time></trkpt><trkpt lat="44.8000169" lon="9.4236589"><ele>232.33333333333331</ele><time>2026-04-29T08:25:08.819Z</time></trkpt><trkpt lat="44.7998421" lon="9.4235647"><ele>234.0</ele><time>2026-04-29T08:25:09.817Z</time></trkpt><trkpt lat="44.7996658" lon="9.4234845"><ele>234.0</ele><time>2026-04-29T08:25:10.819Z</time></trkpt><trkpt lat="44.7994849" lon="9.4234161"><ele>234.0</ele><time>2026-04-29T08:25:11.818Z</time></trkpt><trkpt lat="44.799302" lon="9.423359"><ele>234.0</ele><time>2026-04-29T08:25:12.819Z</time></trkpt><trkpt lat="44.799115" lon="9.4233172"><ele>234.66666666666669</ele><time>2026-04-29T08:25:13.819Z</time></trkpt><trkpt lat="44.7989266" lon="9.4232843"><ele>235.33333333333334</ele><time>2026-04-29T08:25:14.818Z</time></trkpt><trkpt lat="44.7987356" lon="9.4232562"><ele>236.0</ele><time>2026-04-29T08:25:15.819Z</time></trkpt><trkpt lat="44.7985403" lon="9.4232277"><ele>237.66666666666669</ele><time>2026-04-29T08:25:16.819Z</time></trkpt><trkpt lat="44.7983443" lon="9.4231954"><ele>239.33333333333331</ele><time>2026-04-29T08:25:17.818Z</time></trkpt><trkpt lat="44.7981453" lon="9.4231595"><ele>241.0</ele><time>2026-04-29T08:25:18.819Z</time></trkpt><trkpt lat="44.7979433" lon="9.4231206"><ele>241.0</ele><time>2026-04-29T08:25:19.816Z</time></trkpt><trkpt lat="44.7977393" lon="9.4230792"><ele>241.0</ele><time>2026-04-29T08:25:20.816Z</time></trkpt><trkpt lat="44.7975351" lon="9.4230288"><ele>241.0</ele><time>2026-04-29T08:25:21.819Z</time></trkpt><trkpt lat="44.7973389" lon="9.4229691"><ele>240.66666666666666</ele><time>2026-04-29T08:25:22.819Z</time></trkpt><trkpt lat="44.7971495" lon="9.4228983"><ele>240.33333333333331</ele><time>2026-04-29T08:25:23.819Z</time></trkpt><trkpt lat="44.7969657" lon="9.4228098"><ele>240.0</ele><time>2026-04-29T08:25:24.819Z</time></trkpt><trkpt lat="44.7967878" lon="9.4227017"><ele>240.0</ele><time>2026-04-29T08:25:25.818Z</time></trkpt><trkpt lat="44.7966162" lon="9.4225756"><ele>240.0</ele><time>2026-04-29T08:25:26.819Z</time></trkpt><trkpt lat="44.7964501" lon="9.4224307"><ele>240.0</ele><time>2026-04-29T08:25:27.819Z</time></trkpt><trkpt lat="44.7962957" lon="9.4222791"><ele>242.33333333333331</ele><time>2026-04-29T08:25:28.819Z</time></trkpt><trkpt lat="44.7961473" lon="9.4221203"><ele>244.66666666666666</ele><time>2026-04-29T08:25:29.819Z</time></trkpt><trkpt lat="44.7960012" lon="9.4219495"><ele>247.0</ele><time>2026-04-29T08:25:30.819Z</time></trkpt><trkpt lat="44.7958581" lon="9.4217661"><ele>247.0</ele><time>2026-04-29T08:25:31.818Z</time></trkpt><trkpt lat="44.795711" lon="9.4215765"><ele>247.0</ele><time>2026-04-29T08:25:32.818Z</time></trkpt><trkpt lat="44.7955633" lon="9.4213858"><ele>247.0</ele><time>2026-04-29T08:25:33.819Z</time></trkpt><trkpt lat="44.7954151" lon="9.4211948"><ele>245.33333333333331</ele><time>2026-04-29T08:25:34.818Z</time></trkpt><trkpt lat="44.7952695" lon="9.4209985"><ele>243.66666666666669</ele><time>2026-04-29T08:25:35.819Z</time></trkpt><trkpt lat="44.7951273" lon="9.4207986"><ele>242.0</ele><time>2026-04-29T08:25:36.818Z</time></trkpt><trkpt lat="44.7949837" lon="9.4206012"><ele>255.0</ele><time>2026-04-29T08:25:37.818Z</time></trkpt><trkpt lat="44.79483" lon="9.4204046"><ele>268.0</ele><time>2026-04-29T08:25:38.817Z</time></trkpt><trkpt lat="44.7946835" lon="9.420208"><ele>281.0</ele><time>2026-04-29T08:25:39.818Z</time></trkpt><trkpt lat="44.7945377" lon="9.4200116"><ele>281.0</ele><time>2026-04-29T08:25:40.819Z</time></trkpt><trkpt lat="44.7943934" lon="9.4198176"><ele>281.0</ele><time>2026-04-29T08:25:41.819Z</time></trkpt><trkpt lat="44.7942504" lon="9.4196199"><ele>281.0</ele><time>2026-04-29T08:25:42.819Z</time></trkpt><trkpt lat="44.7941034" lon="9.4194189"><ele>260.5</ele><time>2026-04-29T08:25:43.819Z</time></trkpt><trkpt lat="44.7939248" lon="9.4192647"><ele>240.0</ele><time>2026-04-29T08:25:44.818Z</time></trkpt><trkpt lat="44.7899943" lon="9.4140867"><ele>240.0</ele><time>2026-04-29T08:26:08.818Z</time></trkpt><trkpt lat="44.789814" lon="9.4138681"><ele>240.0</ele><time>2026-04-29T08:26:09.818Z</time></trkpt><trkpt lat="44.7896435" lon="9.4136518"><ele>239.0</ele><time>2026-04-29T08:26:10.818Z</time></trkpt><trkpt lat="44.789491" lon="9.4134297"><ele>238.0</ele><time>2026-04-29T08:26:11.818Z</time></trkpt><trkpt lat="44.789324" lon="9.4132134"><ele>237.0</ele><time>2026-04-29T08:26:12.816Z</time></trkpt><trkpt lat="44.7891664" lon="9.4130132"><ele>237.0</ele><time>2026-04-29T08:26:13.819Z</time></trkpt><trkpt lat="44.7890114" lon="9.4128067"><ele>237.0</ele><time>2026-04-29T08:26:14.819Z</time></trkpt><trkpt lat="44.7888621" lon="9.4125979"><ele>237.0</ele><time>2026-04-29T08:26:15.819Z</time></trkpt><trkpt lat="44.7887092" lon="9.4123982"><ele>237.0</ele><time>2026-04-29T08:26:16.818Z</time></trkpt><trkpt lat="44.788558" lon="9.4121924"><ele>237.0</ele><time>2026-04-29T08:26:17.818Z</time></trkpt><trkpt lat="44.7884081" lon="9.4119934"><ele>237.0</ele><time>2026-04-29T08:26:18.818Z</time></trkpt><trkpt lat="44.7882557" lon="9.4117939"><ele>237.0</ele><time>2026-04-29T08:26:19.819Z</time></trkpt><trkpt lat="44.7881033" lon="9.4115955"><ele>237.0</ele><time>2026-04-29T08:26:20.819Z</time></trkpt><trkpt lat="44.7879532" lon="9.4113978"><ele>237.0</ele><time>2026-04-29T08:26:21.818Z</time></trkpt><trkpt lat="44.7878044" lon="9.4112001"><ele>238.0</ele><time>2026-04-29T08:26:22.819Z</time></trkpt><trkpt lat="44.7876516" lon="9.4110024"><ele>239.0</ele><time>2026-04-29T08:26:23.817Z</time></trkpt><trkpt lat="44.7874994" lon="9.410802"><ele>240.0</ele><time>2026-04-29T08:26:24.818Z</time></trkpt><trkpt lat="44.7873471" lon="9.4105968"><ele>239.0</ele><time>2026-04-29T08:26:25.819Z</time></trkpt><trkpt lat="44.787191" lon="9.41039"><ele>238.0</ele><time>2026-04-29T08:26:26.819Z</time></trkpt><trkpt lat="44.7870319" lon="9.4101814"><ele>237.0</ele><time>2026-04-29T08:26:27.819Z</time></trkpt><trkpt lat="44.7868722" lon="9.4099717"><ele>241.5</ele><time>2026-04-29T08:26:28.819Z</time></trkpt><trkpt lat="44.7867089" lon="9.4097574"><ele>246.0</ele><time>2026-04-29T08:26:29.819Z</time></trkpt><trkpt lat="44.7865427" lon="9.4095406"><ele>246.0</ele><time>2026-04-29T08:26:30.819Z</time></trkpt><trkpt lat="44.7863777" lon="9.4093242"><ele>246.0</ele><time>2026-04-29T08:26:31.818Z</time></trkpt><trkpt lat="44.786213" lon="9.4091107"><ele>246.0</ele><time>2026-04-29T08:26:32.819Z</time></trkpt><trkpt lat="44.7860529" lon="9.4089015"><ele>246.0</ele><time>2026-04-29T08:26:33.819Z</time></trkpt><trkpt lat="44.7858923" lon="9.408694"><ele>246.0</ele><time>2026-04-29T08:26:34.819Z</time></trkpt><trkpt lat="44.7857347" lon="9.4084839"><ele>246.0</ele><time>2026-04-29T08:26:35.818Z</time></trkpt><trkpt lat="44.7855785" lon="9.4082741"><ele>246.0</ele><time>2026-04-29T08:26:36.819Z</time></trkpt><trkpt lat="44.7854193" lon="9.4080653"><ele>246.0</ele><time>2026-04-29T08:26:37.818Z</time></trkpt><trkpt lat="44.7852614" lon="9.4078565"><ele>246.0</ele><time>2026-04-29T08:26:38.819Z</time></trkpt><trkpt lat="44.7851059" lon="9.4076482"><ele>246.0</ele><time>2026-04-29T08:26:39.819Z</time></trkpt><trkpt lat="44.7849576" lon="9.4074465"><ele>246.0</ele><time>2026-04-29T08:26:40.819Z</time></trkpt><trkpt lat="44.7848122" lon="9.4072428"><ele>246.0</ele><time>2026-04-29T08:26:41.818Z</time></trkpt><trkpt lat="44.7846693" lon="9.4070378"><ele>246.0</ele><time>2026-04-29T08:26:42.818Z</time></trkpt><trkpt lat="44.7845246" lon="9.406833"><ele>246.0</ele><time>2026-04-29T08:26:43.819Z</time></trkpt><trkpt lat="44.7843816" lon="9.4066271"><ele>246.0</ele><time>2026-04-29T08:26:44.819Z</time></trkpt><trkpt lat="44.7842438" lon="9.4064266"><ele>245.33333333333331</ele><time>2026-04-29T08:26:45.818Z</time></trkpt><trkpt lat="44.7841054" lon="9.4062255"><ele>244.66666666666666</ele><time>2026-04-29T08:26:46.818Z</time></trkpt><trkpt lat="44.7839659" lon="9.4060249"><ele>244.0</ele><time>2026-04-29T08:26:47.818Z</time></trkpt><trkpt lat="44.7838266" lon="9.4058246"><ele>244.0</ele><time>2026-04-29T08:26:48.819Z</time></trkpt><trkpt lat="44.7836876" lon="9.4056244"><ele>244.0</ele><time>2026-04-29T08:26:49.818Z</time></trkpt><trkpt lat="44.7835488" lon="9.4054231"><ele>244.0</ele><time>2026-04-29T08:26:50.817Z</time></trkpt><trkpt lat="44.7834083" lon="9.4052223"><ele>243.0</ele><time>2026-04-29T08:26:51.819Z</time></trkpt><trkpt lat="44.7832668" lon="9.4050197"><ele>242.0</ele><time>2026-04-29T08:26:52.818Z</time></trkpt><trkpt lat="44.7831251" lon="9.4048168"><ele>241.0</ele><time>2026-04-29T08:26:53.819Z</time></trkpt><trkpt lat="44.7829842" lon="9.4046135"><ele>241.0</ele><time>2026-04-29T08:26:54.819Z</time></trkpt><trkpt lat="44.7828424" lon="9.4044102"><ele>241.0</ele><time>2026-04-29T08:26:55.819Z</time></trkpt><trkpt lat="44.7827018" lon="9.4042062"><ele>241.0</ele><time>2026-04-29T08:26:56.818Z</time></trkpt><trkpt lat="44.7825606" lon="9.4040021"><ele>242.0</ele><time>2026-04-29T08:26:57.818Z</time></trkpt><trkpt lat="44.7824175" lon="9.4037976"><ele>243.0</ele><time>2026-04-29T08:26:58.819Z</time></trkpt><trkpt lat="44.7822755" lon="9.4035905"><ele>244.0</ele><time>2026-04-29T08:26:59.819Z</time></trkpt><trkpt lat="44.7821303" lon="9.4033829"><ele>244.0</ele><time>2026-04-29T08:27:00.819Z</time></trkpt><trkpt lat="44.7819841" lon="9.403175"><ele>244.0</ele><time>2026-04-29T08:27:01.819Z</time></trkpt><trkpt lat="44.7818397" lon="9.402967"><ele>244.0</ele><time>2026-04-29T08:27:02.819Z</time></trkpt><trkpt lat="44.7816945" lon="9.4027606"><ele>245.0</ele><time>2026-04-29T08:27:03.819Z</time></trkpt><trkpt lat="44.7815494" lon="9.4025527"><ele>246.0</ele><time>2026-04-29T08:27:04.819Z</time></trkpt><trkpt lat="44.7814093" lon="9.4023517"><ele>247.0</ele><time>2026-04-29T08:27:05.818Z</time></trkpt><trkpt lat="44.7812735" lon="9.4021543"><ele>247.33333333333331</ele><time>2026-04-29T08:27:06.818Z</time></trkpt><trkpt lat="44.7811384" lon="9.4019564"><ele>247.66666666666669</ele><time>2026-04-29T08:27:07.818Z</time></trkpt><trkpt lat="44.781004" lon="9.4017587"><ele>248.0</ele><time>2026-04-29T08:27:08.818Z</time></trkpt><trkpt lat="44.7808708" lon="9.401558"><ele>248.0</ele><time>2026-04-29T08:27:09.818Z</time></trkpt><trkpt lat="44.7807404" lon="9.4013501"><ele>248.0</ele><time>2026-04-29T08:27:10.819Z</time></trkpt><trkpt lat="44.7806124" lon="9.4011348"><ele>248.0</ele><time>2026-04-29T08:27:11.819Z</time></trkpt><trkpt lat="44.7804896" lon="9.4009121"><ele>249.33333333333334</ele><time>2026-04-29T08:27:12.819Z</time></trkpt><trkpt lat="44.7803769" lon="9.400676"><ele>250.66666666666669</ele><time>2026-04-29T08:27:13.819Z</time></trkpt><trkpt lat="44.7802748" lon="9.400428"><ele>252.0</ele><time>2026-04-29T08:27:14.819Z</time></trkpt><trkpt lat="44.7801812" lon="9.4001708"><ele>252.0</ele><time>2026-04-29T08:27:15.819Z</time></trkpt><trkpt lat="44.7800988" lon="9.3999044"><ele>252.0</ele><time>2026-04-29T08:27:16.818Z</time></trkpt><trkpt lat="44.7800258" lon="9.39963"><ele>252.0</ele><time>2026-04-29T08:27:17.819Z</time></trkpt><trkpt lat="44.7799633" lon="9.3993493"><ele>253.66666666666669</ele><time>2026-04-29T08:27:18.818Z</time></trkpt><trkpt lat="44.7799123" lon="9.3990619"><ele>255.33333333333334</ele><time>2026-04-29T08:27:19.819Z</time></trkpt><trkpt lat="44.7798742" lon="9.3987707"><ele>257.0</ele><time>2026-04-29T08:27:20.818Z</time></trkpt><trkpt lat="44.7798489" lon="9.3984755"><ele>258.0</ele><time>2026-04-29T08:27:21.818Z</time></trkpt><trkpt lat="44.77983" lon="9.3981793"><ele>259.0</ele><time>2026-04-29T08:27:22.818Z</time></trkpt><trkpt lat="44.779812" lon="9.3978808"><ele>260.0</ele><time>2026-04-29T08:27:23.818Z</time></trkpt><trkpt lat="44.7797889" lon="9.3975818"><ele>260.33333333333337</ele><time>2026-04-29T08:27:24.819Z</time></trkpt><trkpt lat="44.7797606" lon="9.3972831"><ele>260.6666666666667</ele><time>2026-04-29T08:27:25.818Z</time></trkpt><trkpt lat="44.7797316" lon="9.3969836"><ele>261.0</ele><time>2026-04-29T08:27:26.819Z</time></trkpt><trkpt lat="44.7796952" lon="9.3966826"><ele>263.0</ele><time>2026-04-29T08:27:27.818Z</time></trkpt><trkpt lat="44.7796513" lon="9.3963829"><ele>265.0</ele><time>2026-04-29T08:27:28.819Z</time></trkpt><trkpt lat="44.7796028" lon="9.3960893"><ele>267.0</ele><time>2026-04-29T08:27:29.819Z</time></trkpt><trkpt lat="44.7795494" lon="9.3958049"><ele>269.6666666666667</ele><time>2026-04-29T08:27:30.819Z</time></trkpt><trkpt lat="44.7794904" lon="9.3955212"><ele>272.33333333333337</ele><time>2026-04-29T08:27:31.819Z</time></trkpt><trkpt lat="44.7794238" lon="9.3952428"><ele>275.0</ele><time>2026-04-29T08:27:32.819Z</time></trkpt><trkpt lat="44.7793519" lon="9.3949785"><ele>267.6666666666667</ele><time>2026-04-29T08:27:33.818Z</time></trkpt><trkpt lat="44.7792765" lon="9.39472"><ele>260.3333333333333</ele><time>2026-04-29T08:27:34.819Z</time></trkpt><trkpt lat="44.7791957" lon="9.3944645"><ele>253.0</ele><time>2026-04-29T08:27:35.816Z</time></trkpt><trkpt lat="44.77911" lon="9.3942135"><ele>253.0</ele><time>2026-04-29T08:27:36.818Z</time></trkpt><trkpt lat="44.7790184" lon="9.3939662"><ele>253.0</ele><time>2026-04-29T08:27:37.819Z</time></trkpt><trkpt lat="44.778919" lon="9.3937256"><ele>253.0</ele><time>2026-04-29T08:27:38.819Z</time></trkpt><trkpt lat="44.7788138" lon="9.3934891"><ele>253.66666666666666</ele><time>2026-04-29T08:27:39.819Z</time></trkpt><trkpt lat="44.7787032" lon="9.393256"><ele>254.33333333333331</ele><time>2026-04-29T08:27:40.818Z</time></trkpt><trkpt lat="44.778587" lon="9.3930274"><ele>255.0</ele><time>2026-04-29T08:27:41.817Z</time></trkpt><trkpt lat="44.7784646" lon="9.3928042"><ele>255.0</ele><time>2026-04-29T08:27:42.816Z</time></trkpt><trkpt lat="44.7783364" lon="9.3925877"><ele>255.0</ele><time>2026-04-29T08:27:43.818Z</time></trkpt><trkpt lat="44.7782025" lon="9.3923772"><ele>255.0</ele><time>2026-04-29T08:27:44.817Z</time></trkpt><trkpt lat="44.7780638" lon="9.392175"><ele>255.33333333333331</ele><time>2026-04-29T08:27:45.819Z</time></trkpt><trkpt lat="44.7779211" lon="9.3919811"><ele>255.66666666666666</ele><time>2026-04-29T08:27:46.819Z</time></trkpt><trkpt lat="44.7777738" lon="9.3917977"><ele>256.0</ele><time>2026-04-29T08:27:47.816Z</time></trkpt><trkpt lat="44.7776216" lon="9.3916262"><ele>256.0</ele><time>2026-04-29T08:27:48.817Z</time></trkpt><trkpt lat="44.7774664" lon="9.3914607"><ele>256.0</ele><time>2026-04-29T08:27:49.819Z</time></trkpt><trkpt lat="44.7773091" lon="9.3912987"><ele>256.0</ele><time>2026-04-29T08:27:50.818Z</time></trkpt><trkpt lat="44.7771475" lon="9.3911427"><ele>257.0</ele><time>2026-04-29T08:27:51.815Z</time></trkpt><trkpt lat="44.776984" lon="9.3909896"><ele>258.0</ele><time>2026-04-29T08:27:52.819Z</time></trkpt><trkpt lat="44.7768204" lon="9.3908355"><ele>259.0</ele><time>2026-04-29T08:27:53.817Z</time></trkpt><trkpt lat="44.7766563" lon="9.3906826"><ele>259.0</ele><time>2026-04-29T08:27:54.819Z</time></trkpt><trkpt lat="44.7764918" lon="9.3905289"><ele>259.0</ele><time>2026-04-29T08:27:55.818Z</time></trkpt><trkpt lat="44.7763283" lon="9.390376"><ele>259.0</ele><time>2026-04-29T08:27:56.819Z</time></trkpt><trkpt lat="44.7761719" lon="9.3902291"><ele>257.3333333333333</ele><time>2026-04-29T08:27:57.819Z</time></trkpt><trkpt lat="44.7760204" lon="9.3900912"><ele>255.66666666666669</ele><time>2026-04-29T08:27:58.819Z</time></trkpt><trkpt lat="44.775868" lon="9.3899619"><ele>254.0</ele><time>2026-04-29T08:27:59.819Z</time></trkpt><trkpt lat="44.7757086" lon="9.3898432"><ele>254.0</ele><time>2026-04-29T08:28:00.819Z</time></trkpt><trkpt lat="44.7755425" lon="9.3897357"><ele>254.0</ele><time>2026-04-29T08:28:01.819Z</time></trkpt><trkpt lat="44.7753688" lon="9.3896424"><ele>254.0</ele><time>2026-04-29T08:28:02.819Z</time></trkpt><trkpt lat="44.7751873" lon="9.3895669"><ele>254.33333333333334</ele><time>2026-04-29T08:28:03.819Z</time></trkpt><trkpt lat="44.7749997" lon="9.3895085"><ele>254.66666666666669</ele><time>2026-04-29T08:28:04.819Z</time></trkpt><trkpt lat="44.7748072" lon="9.3894678"><ele>255.0</ele><time>2026-04-29T08:28:05.817Z</time></trkpt><trkpt lat="44.7746117" lon="9.3894449"><ele>255.0</ele><time>2026-04-29T08:28:06.818Z</time></trkpt><trkpt lat="44.7744142" lon="9.3894366"><ele>255.0</ele><time>2026-04-29T08:28:07.819Z</time></trkpt><trkpt lat="44.7742206" lon="9.3894398"><ele>255.0</ele><time>2026-04-29T08:28:08.819Z</time></trkpt><trkpt lat="44.7740293" lon="9.3894462"><ele>255.0</ele><time>2026-04-29T08:28:09.819Z</time></trkpt><trkpt lat="44.7738425" lon="9.3894518"><ele>255.0</ele><time>2026-04-29T08:28:10.818Z</time></trkpt><trkpt lat="44.7736547" lon="9.3894563"><ele>255.0</ele><time>2026-04-29T08:28:11.819Z</time></trkpt><trkpt lat="44.773476" lon="9.3894621"><ele>256.6666666666667</ele><time>2026-04-29T08:28:12.819Z</time></trkpt><trkpt lat="44.7733049" lon="9.3894601"><ele>258.33333333333337</ele><time>2026-04-29T08:28:13.819Z</time></trkpt><trkpt lat="44.7731388" lon="9.3894503"><ele>260.0</ele><time>2026-04-29T08:28:14.818Z</time></trkpt><trkpt lat="44.7729813" lon="9.3894315"><ele>260.0</ele><time>2026-04-29T08:28:15.819Z</time></trkpt><trkpt lat="44.7728315" lon="9.3894056"><ele>260.0</ele><time>2026-04-29T08:28:16.818Z</time></trkpt><trkpt lat="44.7726907" lon="9.3893701"><ele>260.0</ele><time>2026-04-29T08:28:17.819Z</time></trkpt><trkpt lat="44.7725577" lon="9.389325"><ele>260.0</ele><time>2026-04-29T08:28:18.819Z</time></trkpt><trkpt lat="44.7724281" lon="9.3892728"><ele>259.75</ele><time>2026-04-29T08:28:19.819Z</time></trkpt><trkpt lat="44.7722973" lon="9.3892157"><ele>259.5</ele><time>2026-04-29T08:28:20.819Z</time></trkpt><trkpt lat="44.772169" lon="9.3891617"><ele>259.25</ele><time>2026-04-29T08:28:21.819Z</time></trkpt><trkpt lat="44.7720404" lon="9.3891069"><ele>259.0</ele><time>2026-04-29T08:28:22.819Z</time></trkpt><trkpt lat="44.7719107" lon="9.3890542"><ele>258.0</ele><time>2026-04-29T08:28:23.819Z</time></trkpt><trkpt lat="44.7717769" lon="9.3889956"><ele>257.0</ele><time>2026-04-29T08:28:24.819Z</time></trkpt><trkpt lat="44.7716397" lon="9.3889367"><ele>256.0</ele><time>2026-04-29T08:28:25.819Z</time></trkpt><trkpt lat="44.7714948" lon="9.3888763"><ele>255.0</ele><time>2026-04-29T08:28:26.818Z</time></trkpt><trkpt lat="44.7713491" lon="9.388817"><ele>257.3333333333333</ele><time>2026-04-29T08:28:27.818Z</time></trkpt><trkpt lat="44.7711977" lon="9.3887549"><ele>259.66666666666663</ele><time>2026-04-29T08:28:28.818Z</time></trkpt><trkpt lat="44.7710426" lon="9.3886919"><ele>262.0</ele><time>2026-04-29T08:28:29.819Z</time></trkpt><trkpt lat="44.770885" lon="9.3886299"><ele>262.0</ele><time>2026-04-29T08:28:30.819Z</time></trkpt><trkpt lat="44.7707248" lon="9.3885739"><ele>262.0</ele><time>2026-04-29T08:28:31.818Z</time></trkpt><trkpt lat="44.7705635" lon="9.3885254"><ele>262.0</ele><time>2026-04-29T08:28:32.819Z</time></trkpt><trkpt lat="44.7704002" lon="9.3884831"><ele>262.0</ele><time>2026-04-29T08:28:33.819Z</time></trkpt><trkpt lat="44.7702452" lon="9.388451"><ele>262.0</ele><time>2026-04-29T08:28:34.819Z</time></trkpt><trkpt lat="44.7700929" lon="9.3884251"><ele>262.0</ele><time>2026-04-29T08:28:35.817Z</time></trkpt><trkpt lat="44.7699403" lon="9.3884058"><ele>261.0</ele><time>2026-04-29T08:28:36.819Z</time></trkpt><trkpt lat="44.7697885" lon="9.3883943"><ele>260.0</ele><time>2026-04-29T08:28:37.819Z</time></trkpt><trkpt lat="44.7696386" lon="9.3883894"><ele>259.0</ele><time>2026-04-29T08:28:38.818Z</time></trkpt><trkpt lat="44.769486" lon="9.3883962"><ele>260.25</ele><time>2026-04-29T08:28:39.819Z</time></trkpt><trkpt lat="44.7693354" lon="9.3884102"><ele>261.5</ele><time>2026-04-29T08:28:40.819Z</time></trkpt><trkpt lat="44.769188" lon="9.3884348"><ele>262.75</ele><time>2026-04-29T08:28:41.819Z</time></trkpt><trkpt lat="44.7690469" lon="9.3884603"><ele>264.0</ele><time>2026-04-29T08:28:42.816Z</time></trkpt><trkpt lat="44.7689181" lon="9.3884905"><ele>264.0</ele><time>2026-04-29T08:28:43.818Z</time></trkpt><trkpt lat="44.7687996" lon="9.3885232"><ele>264.0</ele><time>2026-04-29T08:28:44.818Z</time></trkpt><trkpt lat="44.7686846" lon="9.3885539"><ele>264.0</ele><time>2026-04-29T08:28:45.818Z</time></trkpt><trkpt lat="44.7685769" lon="9.3885848"><ele>264.0</ele><time>2026-04-29T08:28:46.817Z</time></trkpt><trkpt lat="44.7684737" lon="9.3886137"><ele>263.59999999999997</ele><time>2026-04-29T08:28:47.819Z</time></trkpt><trkpt lat="44.7683757" lon="9.3886446"><ele>263.2</ele><time>2026-04-29T08:28:48.819Z</time></trkpt><trkpt lat="44.7682808" lon="9.3886716"><ele>262.79999999999995</ele><time>2026-04-29T08:28:49.817Z</time></trkpt><trkpt lat="44.7681918" lon="9.3886959"><ele>262.4</ele><time>2026-04-29T08:28:50.817Z</time></trkpt><trkpt lat="44.7681102" lon="9.388718"><ele>262.0</ele><time>2026-04-29T08:28:51.817Z</time></trkpt><trkpt lat="44.7680313" lon="9.3887414"><ele>262.0</ele><time>2026-04-29T08:28:52.817Z</time></trkpt><trkpt lat="44.7679591" lon="9.3887645"><ele>262.0</ele><time>2026-04-29T08:28:53.817Z</time></trkpt><trkpt lat="44.7678956" lon="9.3887893"><ele>262.0</ele><time>2026-04-29T08:28:54.817Z</time></trkpt><trkpt lat="44.7678077" lon="9.3888199"><ele>262.0</ele><time>2026-04-29T08:28:56.818Z</time></trkpt><trkpt lat="44.7677435" lon="9.3888435"><ele>262.0</ele><time>2026-04-29T08:28:59.819Z</time></trkpt><trkpt lat="44.7676461" lon="9.3888631"><ele>262.0</ele><time>2026-04-29T08:30:19.819Z</time></trkpt><trkpt lat="44.7675234" lon="9.3888985"><ele>261.5</ele><time>2026-04-29T08:30:21.819Z</time></trkpt><trkpt lat="44.7674579" lon="9.3889157"><ele>261.0</ele><time>2026-04-29T08:30:22.819Z</time></trkpt><trkpt lat="44.767394" lon="9.3889332"><ele>260.5</ele><time>2026-04-29T08:30:23.819Z</time></trkpt><trkpt lat="44.76733" lon="9.3889498"><ele>260.0</ele><time>2026-04-29T08:30:24.818Z</time></trkpt><trkpt lat="44.7672092" lon="9.3889801"><ele>259.5</ele><time>2026-04-29T08:30:26.819Z</time></trkpt><trkpt lat="44.7670865" lon="9.3890253"><ele>259.0</ele><time>2026-04-29T08:30:28.791Z</time></trkpt><trkpt lat="44.767018" lon="9.3890515"><ele>259.0</ele><time>2026-04-29T08:30:29.789Z</time></trkpt><trkpt lat="44.7669464" lon="9.3890803"><ele>259.0</ele><time>2026-04-29T08:30:30.791Z</time></trkpt><trkpt lat="44.7668675" lon="9.3891098"><ele>259.0</ele><time>2026-04-29T08:30:31.789Z</time></trkpt><trkpt lat="44.7667802" lon="9.38914"><ele>259.0</ele><time>2026-04-29T08:30:32.791Z</time></trkpt><trkpt lat="44.7666893" lon="9.3891668"><ele>259.0</ele><time>2026-04-29T08:30:33.79Z</time></trkpt><trkpt lat="44.7665909" lon="9.3891895"><ele>259.0</ele><time>2026-04-29T08:30:34.791Z</time></trkpt><trkpt lat="44.7664863" lon="9.3892044"><ele>259.0</ele><time>2026-04-29T08:30:35.791Z</time></trkpt><trkpt lat="44.7663702" lon="9.3891999"><ele>259.0</ele><time>2026-04-29T08:30:36.817Z</time></trkpt><trkpt lat="44.7662519" lon="9.3891897"><ele>259.0</ele><time>2026-04-29T08:30:37.819Z</time></trkpt><trkpt lat="44.7661311" lon="9.3891636"><ele>259.0</ele><time>2026-04-29T08:30:38.816Z</time></trkpt><trkpt lat="44.7660111" lon="9.3891209"><ele>258.5</ele><time>2026-04-29T08:30:39.818Z</time></trkpt><trkpt lat="44.7658926" lon="9.3890637"><ele>258.0</ele><time>2026-04-29T08:30:40.819Z</time></trkpt><trkpt lat="44.765775" lon="9.3889894"><ele>257.5</ele><time>2026-04-29T08:30:41.819Z</time></trkpt><trkpt lat="44.765659" lon="9.3888994"><ele>257.0</ele><time>2026-04-29T08:30:42.818Z</time></trkpt><trkpt lat="44.7655506" lon="9.3887874"><ele>256.75</ele><time>2026-04-29T08:30:43.815Z</time></trkpt><trkpt lat="44.7654497" lon="9.3886593"><ele>256.5</ele><time>2026-04-29T08:30:44.819Z</time></trkpt><trkpt lat="44.7653564" lon="9.388511"><ele>256.25</ele><time>2026-04-29T08:30:45.789Z</time></trkpt><trkpt lat="44.765271" lon="9.3883569"><ele>256.0</ele><time>2026-04-29T08:30:46.788Z</time></trkpt><trkpt lat="44.7651855" lon="9.3881886"><ele>256.3333333333333</ele><time>2026-04-29T08:30:47.788Z</time></trkpt><trkpt lat="44.765095" lon="9.3880077"><ele>256.6666666666667</ele><time>2026-04-29T08:30:48.786Z</time></trkpt><trkpt lat="44.765008" lon="9.3878339"><ele>257.0</ele><time>2026-04-29T08:30:49.791Z</time></trkpt><trkpt lat="44.7649248" lon="9.3876629"><ele>257.0</ele><time>2026-04-29T08:30:50.791Z</time></trkpt><trkpt lat="44.7648411" lon="9.3874933"><ele>257.0</ele><time>2026-04-29T08:30:51.791Z</time></trkpt><trkpt lat="44.7647576" lon="9.3873242"><ele>257.0</ele><time>2026-04-29T08:30:52.791Z</time></trkpt><trkpt lat="44.7646759" lon="9.3871603"><ele>257.0</ele><time>2026-04-29T08:30:53.79Z</time></trkpt><trkpt lat="44.7645977" lon="9.3870022"><ele>258.5</ele><time>2026-04-29T08:30:54.79Z</time></trkpt><trkpt lat="44.7645201" lon="9.3868383"><ele>260.0</ele><time>2026-04-29T08:30:55.79Z</time></trkpt><trkpt lat="44.7644443" lon="9.3866659"><ele>261.5</ele><time>2026-04-29T08:30:56.791Z</time></trkpt><trkpt lat="44.7643745" lon="9.3864951"><ele>263.0</ele><time>2026-04-29T08:30:57.791Z</time></trkpt><trkpt lat="44.7643035" lon="9.3863278"><ele>263.75</ele><time>2026-04-29T08:30:58.791Z</time></trkpt><trkpt lat="44.7642288" lon="9.3861647"><ele>264.5</ele><time>2026-04-29T08:30:59.791Z</time></trkpt><trkpt lat="44.7641527" lon="9.3860088"><ele>265.25</ele><time>2026-04-29T08:31:00.79Z</time></trkpt><trkpt lat="44.7640752" lon="9.3858528"><ele>266.0</ele><time>2026-04-29T08:31:01.791Z</time></trkpt><trkpt lat="44.7640012" lon="9.3857021"><ele>266.0</ele><time>2026-04-29T08:31:02.791Z</time></trkpt><trkpt lat="44.7639254" lon="9.3855454"><ele>266.0</ele><time>2026-04-29T08:31:03.791Z</time></trkpt><trkpt lat="44.7638476" lon="9.3853821"><ele>266.0</ele><time>2026-04-29T08:31:04.791Z</time></trkpt><trkpt lat="44.7637722" lon="9.3852227"><ele>266.0</ele><time>2026-04-29T08:31:05.791Z</time></trkpt><trkpt lat="44.7636976" lon="9.3850612"><ele>266.5</ele><time>2026-04-29T08:31:06.79Z</time></trkpt><trkpt lat="44.7636217" lon="9.3848963"><ele>267.0</ele><time>2026-04-29T08:31:07.791Z</time></trkpt><trkpt lat="44.7635444" lon="9.3847271"><ele>267.5</ele><time>2026-04-29T08:31:08.791Z</time></trkpt><trkpt lat="44.7634659" lon="9.3845543"><ele>268.0</ele><time>2026-04-29T08:31:09.791Z</time></trkpt><trkpt lat="44.7633871" lon="9.3843843"><ele>268.0</ele><time>2026-04-29T08:31:10.791Z</time></trkpt><trkpt lat="44.7632999" lon="9.3842068"><ele>268.0</ele><time>2026-04-29T08:31:11.791Z</time></trkpt><trkpt lat="44.7632066" lon="9.3840356"><ele>268.0</ele><time>2026-04-29T08:31:12.819Z</time></trkpt><trkpt lat="44.7630975" lon="9.3838649"><ele>270.66666666666663</ele><time>2026-04-29T08:31:13.818Z</time></trkpt><trkpt lat="44.7629842" lon="9.3836978"><ele>273.3333333333333</ele><time>2026-04-29T08:31:14.818Z</time></trkpt><trkpt lat="44.7628579" lon="9.3835405"><ele>276.0</ele><time>2026-04-29T08:31:15.816Z</time></trkpt><trkpt lat="44.7627163" lon="9.383399"><ele>271.6666666666667</ele><time>2026-04-29T08:31:16.819Z</time></trkpt><trkpt lat="44.7625674" lon="9.3832709"><ele>267.33333333333337</ele><time>2026-04-29T08:31:17.818Z</time></trkpt><trkpt lat="44.762414" lon="9.3831507"><ele>263.0</ele><time>2026-04-29T08:31:18.819Z</time></trkpt><trkpt lat="44.7622517" lon="9.3830416"><ele>263.0</ele><time>2026-04-29T08:31:19.819Z</time></trkpt><trkpt lat="44.7620883" lon="9.3829305"><ele>263.0</ele><time>2026-04-29T08:31:20.819Z</time></trkpt><trkpt lat="44.7619241" lon="9.3828179"><ele>263.0</ele><time>2026-04-29T08:31:21.819Z</time></trkpt><trkpt lat="44.7617595" lon="9.382707"><ele>263.0</ele><time>2026-04-29T08:31:22.819Z</time></trkpt><trkpt lat="44.7615956" lon="9.3825949"><ele>263.0</ele><time>2026-04-29T08:31:23.819Z</time></trkpt><trkpt lat="44.7614303" lon="9.3824803"><ele>263.0</ele><time>2026-04-29T08:31:24.818Z</time></trkpt><trkpt lat="44.7612626" lon="9.3823639"><ele>263.0</ele><time>2026-04-29T08:31:25.817Z</time></trkpt><trkpt lat="44.761094" lon="9.3822467"><ele>263.0</ele><time>2026-04-29T08:31:26.819Z</time></trkpt><trkpt lat="44.7609255" lon="9.3821314"><ele>263.0</ele><time>2026-04-29T08:31:27.819Z</time></trkpt><trkpt lat="44.7607587" lon="9.3820173"><ele>264.6666666666667</ele><time>2026-04-29T08:31:28.819Z</time></trkpt><trkpt lat="44.7606009" lon="9.3819135"><ele>266.3333333333333</ele><time>2026-04-29T08:31:29.818Z</time></trkpt><trkpt lat="44.7604421" lon="9.3818231"><ele>268.0</ele><time>2026-04-29T08:31:30.79Z</time></trkpt><trkpt lat="44.76028" lon="9.3817443"><ele>267.3333333333333</ele><time>2026-04-29T08:31:31.789Z</time></trkpt><trkpt lat="44.7601146" lon="9.381686"><ele>266.6666666666667</ele><time>2026-04-29T08:31:32.788Z</time></trkpt><trkpt lat="44.7599472" lon="9.381646"><ele>266.0</ele><time>2026-04-29T08:31:33.788Z</time></trkpt><trkpt lat="44.7597845" lon="9.38163"><ele>266.0</ele><time>2026-04-29T08:31:34.786Z</time></trkpt><trkpt lat="44.7596165" lon="9.3816337"><ele>266.0</ele><time>2026-04-29T08:31:35.792Z</time></trkpt><trkpt lat="44.7594459" lon="9.3816522"><ele>266.0</ele><time>2026-04-29T08:31:36.791Z</time></trkpt><trkpt lat="44.7592838" lon="9.3816776"><ele>266.0</ele><time>2026-04-29T08:31:37.791Z</time></trkpt><trkpt lat="44.759125" lon="9.381705"><ele>266.0</ele><time>2026-04-29T08:31:38.792Z</time></trkpt><trkpt lat="44.7589715" lon="9.3817323"><ele>266.0</ele><time>2026-04-29T08:31:39.791Z</time></trkpt><trkpt lat="44.7588251" lon="9.3817586"><ele>266.0</ele><time>2026-04-29T08:31:40.792Z</time></trkpt><trkpt lat="44.7586864" lon="9.3817828"><ele>266.0</ele><time>2026-04-29T08:31:41.792Z</time></trkpt><trkpt lat="44.7585562" lon="9.3818052"><ele>266.0</ele><time>2026-04-29T08:31:42.792Z</time></trkpt><trkpt lat="44.7584227" lon="9.3818281"><ele>266.0</ele><time>2026-04-29T08:31:43.791Z</time></trkpt><trkpt lat="44.7582845" lon="9.381851"><ele>266.25</ele><time>2026-04-29T08:31:44.791Z</time></trkpt><trkpt lat="44.7581508" lon="9.3818734"><ele>266.5</ele><time>2026-04-29T08:31:45.792Z</time></trkpt><trkpt lat="44.7580166" lon="9.3818977"><ele>266.75</ele><time>2026-04-29T08:31:46.792Z</time></trkpt><trkpt lat="44.7578815" lon="9.3819205"><ele>267.0</ele><time>2026-04-29T08:31:47.792Z</time></trkpt><trkpt lat="44.7577456" lon="9.3819442"><ele>267.5</ele><time>2026-04-29T08:31:48.792Z</time></trkpt><trkpt lat="44.7576126" lon="9.3819668"><ele>268.0</ele><time>2026-04-29T08:31:49.791Z</time></trkpt><trkpt lat="44.7574863" lon="9.3819877"><ele>268.5</ele><time>2026-04-29T08:31:50.792Z</time></trkpt><trkpt lat="44.7573581" lon="9.3820094"><ele>269.0</ele><time>2026-04-29T08:31:51.792Z</time></trkpt><trkpt lat="44.7572273" lon="9.3820322"><ele>269.0</ele><time>2026-04-29T08:31:52.792Z</time></trkpt><trkpt lat="44.7571014" lon="9.3820524"><ele>269.0</ele><time>2026-04-29T08:31:53.791Z</time></trkpt><trkpt lat="44.7569758" lon="9.3820655"><ele>269.0</ele><time>2026-04-29T08:31:54.791Z</time></trkpt><trkpt lat="44.7568461" lon="9.382069"><ele>269.0</ele><time>2026-04-29T08:31:55.792Z</time></trkpt><trkpt lat="44.7567122" lon="9.3820621"><ele>269.5</ele><time>2026-04-29T08:31:56.792Z</time></trkpt><trkpt lat="44.7565748" lon="9.3820407"><ele>270.0</ele><time>2026-04-29T08:31:57.792Z</time></trkpt><trkpt lat="44.7564406" lon="9.3820035"><ele>270.5</ele><time>2026-04-29T08:31:58.792Z</time></trkpt><trkpt lat="44.756301" lon="9.3819486"><ele>271.0</ele><time>2026-04-29T08:31:59.792Z</time></trkpt><trkpt lat="44.7561574" lon="9.3818749"><ele>270.66666666666663</ele><time>2026-04-29T08:32:00.792Z</time></trkpt><trkpt lat="44.7560189" lon="9.3817857"><ele>270.3333333333333</ele><time>2026-04-29T08:32:01.792Z</time></trkpt><trkpt lat="44.7558816" lon="9.3816789"><ele>270.0</ele><time>2026-04-29T08:32:02.792Z</time></trkpt><trkpt lat="44.7557447" lon="9.3815596"><ele>270.0</ele><time>2026-04-29T08:32:03.792Z</time></trkpt><trkpt lat="44.7556095" lon="9.381439"><ele>270.0</ele><time>2026-04-29T08:32:04.792Z</time></trkpt><trkpt lat="44.7554793" lon="9.3813215"><ele>270.0</ele><time>2026-04-29T08:32:05.792Z</time></trkpt><trkpt lat="44.7553563" lon="9.3812105"><ele>270.25</ele><time>2026-04-29T08:32:06.792Z</time></trkpt><trkpt lat="44.7552306" lon="9.3810977"><ele>270.5</ele><time>2026-04-29T08:32:07.791Z</time></trkpt><trkpt lat="44.7551025" lon="9.380982"><ele>270.75</ele><time>2026-04-29T08:32:08.791Z</time></trkpt><trkpt lat="44.7549802" lon="9.3808705"><ele>271.0</ele><time>2026-04-29T08:32:09.792Z</time></trkpt><trkpt lat="44.7548597" lon="9.3807599"><ele>271.0</ele><time>2026-04-29T08:32:10.791Z</time></trkpt><trkpt lat="44.7547411" lon="9.3806522"><ele>271.0</ele><time>2026-04-29T08:32:11.792Z</time></trkpt><trkpt lat="44.7546258" lon="9.3805517"><ele>271.0</ele><time>2026-04-29T08:32:12.792Z</time></trkpt><trkpt lat="44.7545153" lon="9.3804541"><ele>271.0</ele><time>2026-04-29T08:32:13.792Z</time></trkpt><trkpt lat="44.7544103" lon="9.3803574"><ele>271.0</ele><time>2026-04-29T08:32:14.791Z</time></trkpt><trkpt lat="44.7542991" lon="9.3802568"><ele>271.0</ele><time>2026-04-29T08:32:15.792Z</time></trkpt><trkpt lat="44.7541786" lon="9.3801574"><ele>271.0</ele><time>2026-04-29T08:32:16.791Z</time></trkpt><trkpt lat="44.7540536" lon="9.3800722"><ele>271.0</ele><time>2026-04-29T08:32:17.791Z</time></trkpt><trkpt lat="44.7539195" lon="9.3800017"><ele>271.0</ele><time>2026-04-29T08:32:18.792Z</time></trkpt><trkpt lat="44.7537779" lon="9.3799475"><ele>271.0</ele><time>2026-04-29T08:32:19.792Z</time></trkpt><trkpt lat="44.7536297" lon="9.3799091"><ele>271.0</ele><time>2026-04-29T08:32:20.791Z</time></trkpt><trkpt lat="44.753477" lon="9.3798835"><ele>268.66666666666663</ele><time>2026-04-29T08:32:21.791Z</time></trkpt><trkpt lat="44.7533263" lon="9.3798665"><ele>266.3333333333333</ele><time>2026-04-29T08:32:22.791Z</time></trkpt><trkpt lat="44.7531682" lon="9.3798521"><ele>264.0</ele><time>2026-04-29T08:32:23.791Z</time></trkpt><trkpt lat="44.7530026" lon="9.3798383"><ele>264.0</ele><time>2026-04-29T08:32:24.792Z</time></trkpt><trkpt lat="44.7528408" lon="9.3798248"><ele>264.0</ele><time>2026-04-29T08:32:25.792Z</time></trkpt><trkpt lat="44.7526773" lon="9.3798119"><ele>264.0</ele><time>2026-04-29T08:32:26.792Z</time></trkpt><trkpt lat="44.7525133" lon="9.3798001"><ele>263.3333333333333</ele><time>2026-04-29T08:32:27.791Z</time></trkpt><trkpt lat="44.7523557" lon="9.3797879"><ele>262.66666666666663</ele><time>2026-04-29T08:32:28.791Z</time></trkpt><trkpt lat="44.7522043" lon="9.3797749"><ele>262.0</ele><time>2026-04-29T08:32:29.792Z</time></trkpt><trkpt lat="44.7520598" lon="9.3797623"><ele>262.0</ele><time>2026-04-29T08:32:30.791Z</time></trkpt><trkpt lat="44.7519092" lon="9.3797495"><ele>262.0</ele><time>2026-04-29T08:32:31.792Z</time></trkpt><trkpt lat="44.7517523" lon="9.3797358"><ele>262.0</ele><time>2026-04-29T08:32:32.792Z</time></trkpt><trkpt lat="44.7515975" lon="9.3797227"><ele>263.0</ele><time>2026-04-29T08:32:33.792Z</time></trkpt><trkpt lat="44.7514396" lon="9.37971"><ele>264.0</ele><time>2026-04-29T08:32:34.792Z</time></trkpt><trkpt lat="44.7512776" lon="9.3796968"><ele>265.0</ele><time>2026-04-29T08:32:35.791Z</time></trkpt><trkpt lat="44.7511133" lon="9.3796839"><ele>265.66666666666663</ele><time>2026-04-29T08:32:36.792Z</time></trkpt><trkpt lat="44.7509462" lon="9.3796704"><ele>266.3333333333333</ele><time>2026-04-29T08:32:37.792Z</time></trkpt><trkpt lat="44.750783" lon="9.3796575"><ele>267.0</ele><time>2026-04-29T08:32:38.792Z</time></trkpt><trkpt lat="44.7506127" lon="9.3796447"><ele>267.0</ele><time>2026-04-29T08:32:39.792Z</time></trkpt><trkpt lat="44.7504362" lon="9.3796403"><ele>267.0</ele><time>2026-04-29T08:32:40.791Z</time></trkpt><trkpt lat="44.7502651" lon="9.3796541"><ele>267.0</ele><time>2026-04-29T08:32:41.792Z</time></trkpt><trkpt lat="44.750097" lon="9.37969"><ele>268.0</ele><time>2026-04-29T08:32:42.792Z</time></trkpt><trkpt lat="44.7499332" lon="9.3797482"><ele>269.0</ele><time>2026-04-29T08:32:43.791Z</time></trkpt><trkpt lat="44.7497754" lon="9.3798284"><ele>270.0</ele><time>2026-04-29T08:32:44.791Z</time></trkpt><trkpt lat="44.7496276" lon="9.3799261"><ele>270.0</ele><time>2026-04-29T08:32:45.792Z</time></trkpt><trkpt lat="44.7495" lon="9.3800334"><ele>270.0</ele><time>2026-04-29T08:32:46.792Z</time></trkpt><trkpt lat="44.7493813" lon="9.3801564"><ele>270.0</ele><time>2026-04-29T08:32:47.792Z</time></trkpt><trkpt lat="44.7492676" lon="9.3802977"><ele>270.0</ele><time>2026-04-29T08:32:48.792Z</time></trkpt><trkpt lat="44.7491679" lon="9.3804475"><ele>273.75</ele><time>2026-04-29T08:32:49.791Z</time></trkpt><trkpt lat="44.7490759" lon="9.3806104"><ele>277.5</ele><time>2026-04-29T08:32:50.792Z</time></trkpt><trkpt lat="44.7489914" lon="9.3807823"><ele>281.25</ele><time>2026-04-29T08:32:51.792Z</time></trkpt><trkpt lat="44.7489162" lon="9.3809634"><ele>285.0</ele><time>2026-04-29T08:32:52.792Z</time></trkpt><trkpt lat="44.7488528" lon="9.3811538"><ele>285.0</ele><time>2026-04-29T08:32:53.792Z</time></trkpt><trkpt lat="44.7488041" lon="9.3813438"><ele>285.0</ele><time>2026-04-29T08:32:54.791Z</time></trkpt><trkpt lat="44.7487667" lon="9.3815441"><ele>285.0</ele><time>2026-04-29T08:32:55.792Z</time></trkpt><trkpt lat="44.7487429" lon="9.381754"><ele>285.0</ele><time>2026-04-29T08:32:56.792Z</time></trkpt><trkpt lat="44.7487321" lon="9.3819583"><ele>288.5</ele><time>2026-04-29T08:32:57.791Z</time></trkpt><trkpt lat="44.7487312" lon="9.38216"><ele>292.0</ele><time>2026-04-29T08:32:58.791Z</time></trkpt><trkpt lat="44.7487414" lon="9.3823513"><ele>295.5</ele><time>2026-04-29T08:32:59.792Z</time></trkpt><trkpt lat="44.7487618" lon="9.3825343"><ele>299.0</ele><time>2026-04-29T08:33:00.792Z</time></trkpt><trkpt lat="44.7487897" lon="9.3827112"><ele>300.75</ele><time>2026-04-29T08:33:01.792Z</time></trkpt><trkpt lat="44.748818" lon="9.3828786"><ele>302.5</ele><time>2026-04-29T08:33:02.792Z</time></trkpt><trkpt lat="44.7488464" lon="9.383052"><ele>304.25</ele><time>2026-04-29T08:33:03.792Z</time></trkpt><trkpt lat="44.7488719" lon="9.3832325"><ele>306.0</ele><time>2026-04-29T08:33:04.791Z</time></trkpt><trkpt lat="44.7488941" lon="9.383414"><ele>306.25</ele><time>2026-04-29T08:33:05.791Z</time></trkpt><trkpt lat="44.7489139" lon="9.3836031"><ele>306.5</ele><time>2026-04-29T08:33:06.792Z</time></trkpt><trkpt lat="44.7489301" lon="9.3837977"><ele>306.75</ele><time>2026-04-29T08:33:07.792Z</time></trkpt><trkpt lat="44.7489411" lon="9.3839909"><ele>307.0</ele><time>2026-04-29T08:33:08.791Z</time></trkpt><trkpt lat="44.7489484" lon="9.384193"><ele>307.66666666666663</ele><time>2026-04-29T08:33:09.792Z</time></trkpt><trkpt lat="44.7489524" lon="9.3843989"><ele>308.3333333333333</ele><time>2026-04-29T08:33:10.792Z</time></trkpt><trkpt lat="44.7489556" lon="9.384626"><ele>309.0</ele><time>2026-04-29T08:33:11.792Z</time></trkpt><trkpt lat="44.7489589" lon="9.3848749"><ele>309.0</ele><time>2026-04-29T08:33:12.792Z</time></trkpt><trkpt lat="44.74896" lon="9.3851222"><ele>309.0</ele><time>2026-04-29T08:33:13.791Z</time></trkpt><trkpt lat="44.7489614" lon="9.3853656"><ele>309.0</ele><time>2026-04-29T08:33:14.792Z</time></trkpt><trkpt lat="44.7489634" lon="9.385602"><ele>311.6666666666667</ele><time>2026-04-29T08:33:15.792Z</time></trkpt><trkpt lat="44.7489631" lon="9.3858365"><ele>314.33333333333337</ele><time>2026-04-29T08:33:16.792Z</time></trkpt><trkpt lat="44.7489549" lon="9.3860665"><ele>317.0</ele><time>2026-04-29T08:33:17.792Z</time></trkpt><trkpt lat="44.7489383" lon="9.3862991"><ele>321.6666666666667</ele><time>2026-04-29T08:33:18.792Z</time></trkpt><trkpt lat="44.7489116" lon="9.3865432"><ele>326.3333333333333</ele><time>2026-04-29T08:33:19.792Z</time></trkpt><trkpt lat="44.7488719" lon="9.3867943"><ele>331.0</ele><time>2026-04-29T08:33:20.792Z</time></trkpt><trkpt lat="44.7488253" lon="9.3870261"><ele>336.3333333333333</ele><time>2026-04-29T08:33:21.792Z</time></trkpt><trkpt lat="44.7487727" lon="9.3872432"><ele>341.6666666666667</ele><time>2026-04-29T08:33:22.792Z</time></trkpt><trkpt lat="44.7487124" lon="9.3874617"><ele>347.0</ele><time>2026-04-29T08:33:23.792Z</time></trkpt><trkpt lat="44.7486404" lon="9.3876963"><ele>347.0</ele><time>2026-04-29T08:33:24.792Z</time></trkpt><trkpt lat="44.7485545" lon="9.3879377"><ele>347.0</ele><time>2026-04-29T08:33:25.792Z</time></trkpt><trkpt lat="44.7484522" lon="9.3881838"><ele>347.0</ele><time>2026-04-29T08:33:26.792Z</time></trkpt><trkpt lat="44.7483321" lon="9.3884451"><ele>343.6666666666667</ele><time>2026-04-29T08:33:27.791Z</time></trkpt><trkpt lat="44.7482094" lon="9.3887082"><ele>340.3333333333333</ele><time>2026-04-29T08:33:28.792Z</time></trkpt><trkpt lat="44.7480955" lon="9.388949"><ele>337.0</ele><time>2026-04-29T08:33:29.792Z</time></trkpt><trkpt lat="44.74798" lon="9.389167"><ele>337.0</ele><time>2026-04-29T08:33:30.792Z</time></trkpt><trkpt lat="44.7478545" lon="9.3893616"><ele>337.0</ele><time>2026-04-29T08:33:31.792Z</time></trkpt><trkpt lat="44.7477157" lon="9.389537"><ele>337.0</ele><time>2026-04-29T08:33:32.792Z</time></trkpt><trkpt lat="44.7475618" lon="9.3896956"><ele>332.66666666666663</ele><time>2026-04-29T08:33:33.792Z</time></trkpt><trkpt lat="44.7473988" lon="9.3898284"><ele>328.3333333333333</ele><time>2026-04-29T08:33:34.791Z</time></trkpt><trkpt lat="44.7472181" lon="9.3899395"><ele>324.0</ele><time>2026-04-29T08:33:35.792Z</time></trkpt><trkpt lat="44.74702" lon="9.3900241"><ele>318.0</ele><time>2026-04-29T08:33:36.792Z</time></trkpt><trkpt lat="44.7468259" lon="9.3900765"><ele>312.0</ele><time>2026-04-29T08:33:37.792Z</time></trkpt><trkpt lat="44.7466255" lon="9.3900997"><ele>306.0</ele><time>2026-04-29T08:33:38.792Z</time></trkpt><trkpt lat="44.7464242" lon="9.390091"><ele>306.0</ele><time>2026-04-29T08:33:39.792Z</time></trkpt><trkpt lat="44.7462248" lon="9.3900507"><ele>306.0</ele><time>2026-04-29T08:33:40.792Z</time></trkpt><trkpt lat="44.746027" lon="9.389986"><ele>306.0</ele><time>2026-04-29T08:33:41.792Z</time></trkpt><trkpt lat="44.7458376" lon="9.389908"><ele>301.0</ele><time>2026-04-29T08:33:42.791Z</time></trkpt><trkpt lat="44.7456444" lon="9.3898065"><ele>296.0</ele><time>2026-04-29T08:33:43.791Z</time></trkpt><trkpt lat="44.7454559" lon="9.3896805"><ele>291.0</ele><time>2026-04-29T08:33:44.791Z</time></trkpt><trkpt lat="44.7452737" lon="9.3895436"><ele>298.6666666666667</ele><time>2026-04-29T08:33:45.792Z</time></trkpt><trkpt lat="44.7450889" lon="9.3894032"><ele>306.33333333333337</ele><time>2026-04-29T08:33:46.791Z</time></trkpt><trkpt lat="44.7449008" lon="9.3892715"><ele>314.0</ele><time>2026-04-29T08:33:47.792Z</time></trkpt><trkpt lat="44.744707" lon="9.3891581"><ele>314.0</ele><time>2026-04-29T08:33:48.791Z</time></trkpt><trkpt lat="44.7445095" lon="9.3890701"><ele>314.0</ele><time>2026-04-29T08:33:49.791Z</time></trkpt><trkpt lat="44.7443143" lon="9.389014"><ele>314.0</ele><time>2026-04-29T08:33:50.792Z</time></trkpt><trkpt lat="44.7441142" lon="9.3889754"><ele>319.33333333333337</ele><time>2026-04-29T08:33:51.817Z</time></trkpt><trkpt lat="44.7439074" lon="9.3889773"><ele>324.6666666666667</ele><time>2026-04-29T08:33:52.819Z</time></trkpt><trkpt lat="44.7437113" lon="9.3889849"><ele>330.0</ele><time>2026-04-29T08:33:53.819Z</time></trkpt><trkpt lat="44.7435316" lon="9.3889896"><ele>333.4</ele><time>2026-04-29T08:33:54.816Z</time></trkpt><trkpt lat="44.7433777" lon="9.3889748"><ele>336.8</ele><time>2026-04-29T08:33:55.819Z</time></trkpt><trkpt lat="44.7432587" lon="9.388952"><ele>340.20000000000005</ele><time>2026-04-29T08:33:56.818Z</time></trkpt><trkpt lat="44.7431702" lon="9.3889286"><ele>343.6</ele><time>2026-04-29T08:33:57.817Z</time></trkpt><trkpt lat="44.7431056" lon="9.3889038"><ele>347.0</ele><time>2026-04-29T08:33:58.819Z</time></trkpt><trkpt lat="44.7430317" lon="9.38887"><ele>344.6666666666667</ele><time>2026-04-29T08:34:00.818Z</time></trkpt><trkpt lat="44.7429642" lon="9.3888265"><ele>342.33333333333337</ele><time>2026-04-29T08:34:06.818Z</time></trkpt><trkpt lat="44.7428842" lon="9.3887791"><ele>340.0</ele><time>2026-04-29T08:34:08.819Z</time></trkpt><trkpt lat="44.7427989" lon="9.3887376"><ele>337.6666666666667</ele><time>2026-04-29T08:34:10.819Z</time></trkpt><trkpt lat="44.7426912" lon="9.3886726"><ele>335.3333333333333</ele><time>2026-04-29T08:34:12.819Z</time></trkpt><trkpt lat="44.7426261" lon="9.388634"><ele>333.0</ele><time>2026-04-29T08:34:13.819Z</time></trkpt><trkpt lat="44.7425568" lon="9.3885877"><ele>333.0</ele><time>2026-04-29T08:34:14.818Z</time></trkpt><trkpt lat="44.7424805" lon="9.3885389"><ele>333.0</ele><time>2026-04-29T08:34:15.818Z</time></trkpt><trkpt lat="44.7424028" lon="9.388489"><ele>333.0</ele><time>2026-04-29T08:34:16.818Z</time></trkpt><trkpt lat="44.7423187" lon="9.3884416"><ele>333.0</ele><time>2026-04-29T08:34:17.818Z</time></trkpt><trkpt lat="44.7422327" lon="9.3883888"><ele>333.0</ele><time>2026-04-29T08:34:18.819Z</time></trkpt><trkpt lat="44.742147" lon="9.3883373"><ele>333.0</ele><time>2026-04-29T08:34:19.818Z</time></trkpt><trkpt lat="44.740293" lon="9.3872778"><ele>328.75</ele><time>2026-04-29T08:34:35.816Z</time></trkpt><trkpt lat="44.7401644" lon="9.3872268"><ele>324.5</ele><time>2026-04-29T08:34:36.819Z</time></trkpt><trkpt lat="44.7400389" lon="9.3871913"><ele>320.25</ele><time>2026-04-29T08:34:37.817Z</time></trkpt><trkpt lat="44.7399112" lon="9.3871742"><ele>316.0</ele><time>2026-04-29T08:34:38.818Z</time></trkpt><trkpt lat="44.7397829" lon="9.3871792"><ele>316.0</ele><time>2026-04-29T08:34:39.818Z</time></trkpt><trkpt lat="44.7396545" lon="9.3871986"><ele>316.0</ele><time>2026-04-29T08:34:40.817Z</time></trkpt><trkpt lat="44.7395234" lon="9.387232"><ele>316.0</ele><time>2026-04-29T08:34:41.818Z</time></trkpt><trkpt lat="44.7393873" lon="9.3872815"><ele>316.0</ele><time>2026-04-29T08:34:42.816Z</time></trkpt><trkpt lat="44.7392494" lon="9.3873453"><ele>320.0</ele><time>2026-04-29T08:34:43.819Z</time></trkpt><trkpt lat="44.739115" lon="9.3874311"><ele>324.0</ele><time>2026-04-29T08:34:44.818Z</time></trkpt><trkpt lat="44.7389816" lon="9.3875384"><ele>328.0</ele><time>2026-04-29T08:34:45.819Z</time></trkpt><trkpt lat="44.7388543" lon="9.387671"><ele>328.0</ele><time>2026-04-29T08:34:46.819Z</time></trkpt><trkpt lat="44.7387279" lon="9.3878157"><ele>328.0</ele><time>2026-04-29T08:34:47.818Z</time></trkpt><trkpt lat="44.7385971" lon="9.3879745"><ele>328.0</ele><time>2026-04-29T08:34:48.818Z</time></trkpt><trkpt lat="44.7384624" lon="9.3881399"><ele>327.3333333333333</ele><time>2026-04-29T08:34:49.819Z</time></trkpt><trkpt lat="44.7383235" lon="9.3883077"><ele>326.6666666666667</ele><time>2026-04-29T08:34:50.816Z</time></trkpt><trkpt lat="44.7381786" lon="9.3884821"><ele>326.0</ele><time>2026-04-29T08:34:51.818Z</time></trkpt><trkpt lat="44.7380259" lon="9.3886538"><ele>326.0</ele><time>2026-04-29T08:34:52.819Z</time></trkpt><trkpt lat="44.7378673" lon="9.3888247"><ele>326.0</ele><time>2026-04-29T08:34:53.819Z</time></trkpt><trkpt lat="44.7377065" lon="9.3889926"><ele>326.0</ele><time>2026-04-29T08:34:54.817Z</time></trkpt><trkpt lat="44.7375476" lon="9.3891454"><ele>328.33333333333337</ele><time>2026-04-29T08:34:55.816Z</time></trkpt><trkpt lat="44.7373875" lon="9.3892822"><ele>330.6666666666667</ele><time>2026-04-29T08:34:56.818Z</time></trkpt><trkpt lat="44.7372218" lon="9.3894001"><ele>333.0</ele><time>2026-04-29T08:34:57.818Z</time></trkpt><trkpt lat="44.737053" lon="9.3894983"><ele>330.0</ele><time>2026-04-29T08:34:58.818Z</time></trkpt><trkpt lat="44.7368847" lon="9.3895734"><ele>327.0</ele><time>2026-04-29T08:34:59.818Z</time></trkpt><trkpt lat="44.7367154" lon="9.3896231"><ele>324.0</ele><time>2026-04-29T08:35:00.816Z</time></trkpt><trkpt lat="44.7365445" lon="9.3896509"><ele>324.0</ele><time>2026-04-29T08:35:01.817Z</time></trkpt><trkpt lat="44.7363748" lon="9.3896669"><ele>324.0</ele><time>2026-04-29T08:35:02.817Z</time></trkpt><trkpt lat="44.7362046" lon="9.3896753"><ele>324.0</ele><time>2026-04-29T08:35:03.819Z</time></trkpt><trkpt lat="44.7360355" lon="9.3896867"><ele>336.0</ele><time>2026-04-29T08:35:04.818Z</time></trkpt><trkpt lat="44.735866" lon="9.3896882"><ele>348.0</ele><time>2026-04-29T08:35:05.817Z</time></trkpt><trkpt lat="44.7356984" lon="9.3896825"><ele>360.0</ele><time>2026-04-29T08:35:06.818Z</time></trkpt><trkpt lat="44.7355295" lon="9.3896766"><ele>350.0</ele><time>2026-04-29T08:35:07.818Z</time></trkpt><trkpt lat="44.7353615" lon="9.389652"><ele>340.0</ele><time>2026-04-29T08:35:08.818Z</time></trkpt><trkpt lat="44.7351968" lon="9.3896034"><ele>330.0</ele><time>2026-04-29T08:35:09.818Z</time></trkpt><trkpt lat="44.7350327" lon="9.3895374"><ele>330.0</ele><time>2026-04-29T08:35:10.818Z</time></trkpt><trkpt lat="44.7348736" lon="9.3894623"><ele>330.0</ele><time>2026-04-29T08:35:11.818Z</time></trkpt><trkpt lat="44.7347216" lon="9.389366"><ele>330.0</ele><time>2026-04-29T08:35:12.819Z</time></trkpt><trkpt lat="44.734579" lon="9.3892616"><ele>330.0</ele><time>2026-04-29T08:35:13.819Z</time></trkpt><trkpt lat="44.7344381" lon="9.389183"><ele>330.0</ele><time>2026-04-29T08:35:14.819Z</time></trkpt><trkpt lat="44.7342957" lon="9.3891251"><ele>330.0</ele><time>2026-04-29T08:35:15.819Z</time></trkpt><trkpt lat="44.7341484" lon="9.3890896"><ele>330.0</ele><time>2026-04-29T08:35:16.818Z</time></trkpt><trkpt lat="44.7340016" lon="9.3890687"><ele>333.75</ele><time>2026-04-29T08:35:17.818Z</time></trkpt><trkpt lat="44.7338623" lon="9.3890624"><ele>337.5</ele><time>2026-04-29T08:35:18.818Z</time></trkpt><trkpt lat="44.7337312" lon="9.3890735"><ele>341.25</ele><time>2026-04-29T08:35:19.818Z</time></trkpt><trkpt lat="44.7336091" lon="9.3891006"><ele>345.0</ele><time>2026-04-29T08:35:20.818Z</time></trkpt><trkpt lat="44.733489" lon="9.38912"><ele>345.75</ele><time>2026-04-29T08:35:21.819Z</time></trkpt><trkpt lat="44.7333701" lon="9.3891152"><ele>346.5</ele><time>2026-04-29T08:35:22.819Z</time></trkpt><trkpt lat="44.7332494" lon="9.3890812"><ele>347.25</ele><time>2026-04-29T08:35:23.818Z</time></trkpt><trkpt lat="44.7331274" lon="9.3890401"><ele>348.0</ele><time>2026-04-29T08:35:24.819Z</time></trkpt><trkpt lat="44.7329987" lon="9.3890205"><ele>348.0</ele><time>2026-04-29T08:35:25.817Z</time></trkpt><trkpt lat="44.7328747" lon="9.3890149"><ele>348.0</ele><time>2026-04-29T08:35:26.819Z</time></trkpt><trkpt lat="44.7327507" lon="9.3890123"><ele>348.0</ele><time>2026-04-29T08:35:27.818Z</time></trkpt><trkpt lat="44.7326339" lon="9.3890074"><ele>348.0</ele><time>2026-04-29T08:35:28.819Z</time></trkpt><trkpt lat="44.7325266" lon="9.388984"><ele>352.2</ele><time>2026-04-29T08:35:29.816Z</time></trkpt><trkpt lat="44.7324297" lon="9.3889357"><ele>356.4</ele><time>2026-04-29T08:35:30.816Z</time></trkpt><trkpt lat="44.7323546" lon="9.3888573"><ele>360.59999999999997</ele><time>2026-04-29T08:35:31.816Z</time></trkpt><trkpt lat="44.7322964" lon="9.3887589"><ele>364.79999999999995</ele><time>2026-04-29T08:35:32.815Z</time></trkpt><trkpt lat="44.7322327" lon="9.3886651"><ele>369.0</ele><time>2026-04-29T08:35:33.818Z</time></trkpt><trkpt lat="44.7321496" lon="9.3885905"><ele>362.0</ele><time>2026-04-29T08:35:34.818Z</time></trkpt><trkpt lat="44.7320507" lon="9.3885267"><ele>355.0</ele><time>2026-04-29T08:35:35.816Z</time></trkpt><trkpt lat="44.7319393" lon="9.3884693"><ele>348.0</ele><time>2026-04-29T08:35:36.817Z</time></trkpt><trkpt lat="44.7318247" lon="9.3884183"><ele>341.0</ele><time>2026-04-29T08:35:37.818Z</time></trkpt><trkpt lat="44.73171" lon="9.3883865"><ele>341.0</ele><time>2026-04-29T08:35:38.816Z</time></trkpt><trkpt lat="44.7315908" lon="9.388383"><ele>341.0</ele><time>2026-04-29T08:35:39.816Z</time></trkpt><trkpt lat="44.7314756" lon="9.3884096"><ele>341.0</ele><time>2026-04-29T08:35:40.817Z</time></trkpt><trkpt lat="44.731365" lon="9.3884422"><ele>341.0</ele><time>2026-04-29T08:35:41.818Z</time></trkpt><trkpt lat="44.7312566" lon="9.3884637"><ele>341.0</ele><time>2026-04-29T08:35:42.816Z</time></trkpt><trkpt lat="44.7311556" lon="9.3884662"><ele>341.0</ele><time>2026-04-29T08:35:43.819Z</time></trkpt><trkpt lat="44.7310712" lon="9.3884341"><ele>341.0</ele><time>2026-04-29T08:35:44.817Z</time></trkpt><trkpt lat="44.7310065" lon="9.388371"><ele>341.0</ele><time>2026-04-29T08:35:45.817Z</time></trkpt><trkpt lat="44.7309588" lon="9.3882808"><ele>341.0</ele><time>2026-04-29T08:35:46.819Z</time></trkpt><trkpt lat="44.7309139" lon="9.3881848"><ele>341.0</ele><time>2026-04-29T08:35:47.817Z</time></trkpt><trkpt lat="44.7308408" lon="9.3881117"><ele>344.8</ele><time>2026-04-29T08:35:48.819Z</time></trkpt><trkpt lat="44.7307472" lon="9.3880688"><ele>348.6</ele><time>2026-04-29T08:35:49.817Z</time></trkpt><trkpt lat="44.7306366" lon="9.3880511"><ele>352.4</ele><time>2026-04-29T08:35:50.818Z</time></trkpt><trkpt lat="44.7305215" lon="9.3880498"><ele>356.2</ele><time>2026-04-29T08:35:51.817Z</time></trkpt><trkpt lat="44.7304132" lon="9.3880197"><ele>360.0</ele><time>2026-04-29T08:35:52.815Z</time></trkpt><trkpt lat="44.7303084" lon="9.3879546"><ele>354.0</ele><time>2026-04-29T08:35:53.817Z</time></trkpt><trkpt lat="44.7302032" lon="9.387883"><ele>348.0</ele><time>2026-04-29T08:35:54.818Z</time></trkpt><trkpt lat="44.7300913" lon="9.3878163"><ele>342.0</ele><time>2026-04-29T08:35:55.817Z</time></trkpt><trkpt lat="44.7299759" lon="9.3877687"><ele>336.0</ele><time>2026-04-29T08:35:56.818Z</time></trkpt><trkpt lat="44.7298693" lon="9.3877156"><ele>336.0</ele><time>2026-04-29T08:35:57.815Z</time></trkpt><trkpt lat="44.7297755" lon="9.3876358"><ele>336.0</ele><time>2026-04-29T08:35:58.816Z</time></trkpt><trkpt lat="44.7296927" lon="9.3875328"><ele>336.0</ele><time>2026-04-29T08:35:59.818Z</time></trkpt><trkpt lat="44.7296082" lon="9.3874292"><ele>336.0</ele><time>2026-04-29T08:36:00.819Z</time></trkpt><trkpt lat="44.7295102" lon="9.3873671"><ele>336.0</ele><time>2026-04-29T08:36:01.818Z</time></trkpt><trkpt lat="44.7294034" lon="9.3873429"><ele>343.8</ele><time>2026-04-29T08:36:02.817Z</time></trkpt><trkpt lat="44.7292951" lon="9.3873526"><ele>351.6</ele><time>2026-04-29T08:36:03.817Z</time></trkpt><trkpt lat="44.7291865" lon="9.3873629"><ele>359.4</ele><time>2026-04-29T08:36:04.817Z</time></trkpt><trkpt lat="44.7290861" lon="9.3873494"><ele>367.2</ele><time>2026-04-29T08:36:05.817Z</time></trkpt><trkpt lat="44.7289932" lon="9.3873137"><ele>375.0</ele><time>2026-04-29T08:36:06.816Z</time></trkpt><trkpt lat="44.728912" lon="9.3872581"><ele>364.0</ele><time>2026-04-29T08:36:07.816Z</time></trkpt><trkpt lat="44.7288414" lon="9.3871766"><ele>353.0</ele><time>2026-04-29T08:36:08.816Z</time></trkpt><trkpt lat="44.728788" lon="9.3870746"><ele>342.0</ele><time>2026-04-29T08:36:09.817Z</time></trkpt><trkpt lat="44.7287512" lon="9.3869481"><ele>331.0</ele><time>2026-04-29T08:36:10.817Z</time></trkpt><trkpt lat="44.7287185" lon="9.3868223"><ele>320.0</ele><time>2026-04-29T08:36:11.815Z</time></trkpt><trkpt lat="44.7286573" lon="9.3867345"><ele>320.0</ele><time>2026-04-29T08:36:12.816Z</time></trkpt><trkpt lat="44.7285734" lon="9.3866799"><ele>320.0</ele><time>2026-04-29T08:36:13.817Z</time></trkpt><trkpt lat="44.7284722" lon="9.3866515"><ele>320.0</ele><time>2026-04-29T08:36:14.819Z</time></trkpt><trkpt lat="44.7283536" lon="9.3866287"><ele>320.0</ele><time>2026-04-29T08:36:15.817Z</time></trkpt><trkpt lat="44.7282469" lon="9.3866015"><ele>320.0</ele><time>2026-04-29T08:36:16.816Z</time></trkpt><trkpt lat="44.7281357" lon="9.3865658"><ele>330.0</ele><time>2026-04-29T08:36:17.817Z</time></trkpt><trkpt lat="44.7280241" lon="9.3865224"><ele>340.0</ele><time>2026-04-29T08:36:18.818Z</time></trkpt><trkpt lat="44.7279129" lon="9.3864744"><ele>350.0</ele><time>2026-04-29T08:36:19.818Z</time></trkpt><trkpt lat="44.7278024" lon="9.3864166"><ele>360.0</ele><time>2026-04-29T08:36:20.817Z</time></trkpt><trkpt lat="44.7276949" lon="9.3863474"><ele>353.25</ele><time>2026-04-29T08:36:21.816Z</time></trkpt><trkpt lat="44.727588" lon="9.3862617"><ele>346.5</ele><time>2026-04-29T08:36:22.817Z</time></trkpt><trkpt lat="44.7274809" lon="9.386169"><ele>339.75</ele><time>2026-04-29T08:36:23.816Z</time></trkpt><trkpt lat="44.7273711" lon="9.3860789"><ele>333.0</ele><time>2026-04-29T08:36:24.817Z</time></trkpt><trkpt lat="44.7272593" lon="9.3859968"><ele>333.0</ele><time>2026-04-29T08:36:25.818Z</time></trkpt><trkpt lat="44.7271526" lon="9.3859212"><ele>333.0</ele><time>2026-04-29T08:36:26.819Z</time></trkpt><trkpt lat="44.7270493" lon="9.3858336"><ele>333.0</ele><time>2026-04-29T08:36:27.816Z</time></trkpt><trkpt lat="44.7269623" lon="9.3857281"><ele>333.0</ele><time>2026-04-29T08:36:28.816Z</time></trkpt><trkpt lat="44.7268914" lon="9.3856218"><ele>329.79999999999995</ele><time>2026-04-29T08:36:29.816Z</time></trkpt><trkpt lat="44.7268244" lon="9.3855229"><ele>326.59999999999997</ele><time>2026-04-29T08:36:30.816Z</time></trkpt><trkpt lat="44.7267462" lon="9.3854443"><ele>323.4</ele><time>2026-04-29T08:36:31.815Z</time></trkpt><trkpt lat="44.7266565" lon="9.3853884"><ele>320.2</ele><time>2026-04-29T08:36:32.819Z</time></trkpt><trkpt lat="44.7265714" lon="9.3853443"><ele>317.0</ele><time>2026-04-29T08:36:33.817Z</time></trkpt><trkpt lat="44.7264933" lon="9.3853004"><ele>317.0</ele><time>2026-04-29T08:36:34.816Z</time></trkpt><trkpt lat="44.7264211" lon="9.3852521"><ele>317.0</ele><time>2026-04-29T08:36:35.817Z</time></trkpt><trkpt lat="44.7263518" lon="9.3852156"><ele>317.0</ele><time>2026-04-29T08:36:36.817Z</time></trkpt><trkpt lat="44.7262831" lon="9.3852144"><ele>317.0</ele><time>2026-04-29T08:36:37.817Z</time></trkpt><trkpt lat="44.726192" lon="9.3853225"><ele>317.0</ele><time>2026-04-29T08:36:39.818Z</time></trkpt><trkpt lat="44.7261836" lon="9.3854135"><ele>317.0</ele><time>2026-04-29T08:36:40.818Z</time></trkpt><trkpt lat="44.7261996" lon="9.385526"><ele>327.0</ele><time>2026-04-29T08:36:41.816Z</time></trkpt><trkpt lat="44.7262306" lon="9.3856531"><ele>337.0</ele><time>2026-04-29T08:36:42.818Z</time></trkpt><trkpt lat="44.726262" lon="9.385797"><ele>347.0</ele><time>2026-04-29T08:36:43.816Z</time></trkpt><trkpt lat="44.7262942" lon="9.3859641"><ele>357.0</ele><time>2026-04-29T08:36:44.816Z</time></trkpt><trkpt lat="44.7263277" lon="9.3861392"><ele>357.0</ele><time>2026-04-29T08:36:45.816Z</time></trkpt><trkpt lat="44.7263596" lon="9.3863047"><ele>357.0</ele><time>2026-04-29T08:36:46.818Z</time></trkpt><trkpt lat="44.7263925" lon="9.3864619"><ele>357.0</ele><time>2026-04-29T08:36:47.817Z</time></trkpt><trkpt lat="44.7264128" lon="9.3866222"><ele>357.0</ele><time>2026-04-29T08:36:48.817Z</time></trkpt><trkpt lat="44.7264155" lon="9.3867886"><ele>361.75</ele><time>2026-04-29T08:36:49.817Z</time></trkpt><trkpt lat="44.7263981" lon="9.3869618"><ele>366.5</ele><time>2026-04-29T08:36:50.817Z</time></trkpt><trkpt lat="44.726359" lon="9.3871391"><ele>371.25</ele><time>2026-04-29T08:36:51.816Z</time></trkpt><trkpt lat="44.7263018" lon="9.3873193"><ele>376.0</ele><time>2026-04-29T08:36:52.817Z</time></trkpt><trkpt lat="44.7262268" lon="9.3875066"><ele>374.25</ele><time>2026-04-29T08:36:53.817Z</time></trkpt><trkpt lat="44.7261443" lon="9.3876846"><ele>372.5</ele><time>2026-04-29T08:36:54.818Z</time></trkpt><trkpt lat="44.7260633" lon="9.3878557"><ele>370.75</ele><time>2026-04-29T08:36:55.819Z</time></trkpt><trkpt lat="44.7259848" lon="9.3880151"><ele>369.0</ele><time>2026-04-29T08:36:56.817Z</time></trkpt><trkpt lat="44.7258998" lon="9.3881602"><ele>369.0</ele><time>2026-04-29T08:36:57.816Z</time></trkpt><trkpt lat="44.7258033" lon="9.3882904"><ele>369.0</ele><time>2026-04-29T08:36:58.819Z</time></trkpt><trkpt lat="44.7256942" lon="9.3884146"><ele>369.0</ele><time>2026-04-29T08:36:59.818Z</time></trkpt><trkpt lat="44.7255772" lon="9.3885436"><ele>369.0</ele><time>2026-04-29T08:37:00.817Z</time></trkpt><trkpt lat="44.725459" lon="9.3886623"><ele>369.0</ele><time>2026-04-29T08:37:01.816Z</time></trkpt><trkpt lat="44.725345" lon="9.388762"><ele>369.0</ele><time>2026-04-29T08:37:02.817Z</time></trkpt><trkpt lat="44.7252365" lon="9.3888379"><ele>369.0</ele><time>2026-04-29T08:37:03.817Z</time></trkpt><trkpt lat="44.7251334" lon="9.3889042"><ele>369.0</ele><time>2026-04-29T08:37:04.819Z</time></trkpt><trkpt lat="44.725039" lon="9.3889879"><ele>366.0</ele><time>2026-04-29T08:37:05.818Z</time></trkpt><trkpt lat="44.7249679" lon="9.3891034"><ele>363.0</ele><time>2026-04-29T08:37:06.818Z</time></trkpt><trkpt lat="44.7249115" lon="9.389245"><ele>360.0</ele><time>2026-04-29T08:37:07.817Z</time></trkpt><trkpt lat="44.7248649" lon="9.3894057"><ele>357.0</ele><time>2026-04-29T08:37:08.815Z</time></trkpt><trkpt lat="44.7248182" lon="9.3895692"><ele>357.40000000000003</ele><time>2026-04-29T08:37:09.819Z</time></trkpt><trkpt lat="44.7247727" lon="9.389723"><ele>357.8</ele><time>2026-04-29T08:37:10.817Z</time></trkpt><trkpt lat="44.7247425" lon="9.3898697"><ele>358.2</ele><time>2026-04-29T08:37:11.817Z</time></trkpt><trkpt lat="44.724742" lon="9.3900173"><ele>358.6</ele><time>2026-04-29T08:37:12.817Z</time></trkpt><trkpt lat="44.7247741" lon="9.3901508"><ele>359.0</ele><time>2026-04-29T08:37:13.818Z</time></trkpt><trkpt lat="44.7248253" lon="9.3902727"><ele>359.0</ele><time>2026-04-29T08:37:14.819Z</time></trkpt><trkpt lat="44.7248814" lon="9.3903854"><ele>359.0</ele><time>2026-04-29T08:37:15.816Z</time></trkpt><trkpt lat="44.7249135" lon="9.3905083"><ele>359.0</ele><time>2026-04-29T08:37:16.817Z</time></trkpt><trkpt lat="44.7249141" lon="9.3906427"><ele>359.0</ele><time>2026-04-29T08:37:17.819Z</time></trkpt><trkpt lat="44.72489" lon="9.3907863"><ele>359.0</ele><time>2026-04-29T08:37:18.817Z</time></trkpt><trkpt lat="44.7248523" lon="9.3909436"><ele>359.75</ele><time>2026-04-29T08:37:19.818Z</time></trkpt><trkpt lat="44.7248159" lon="9.3910993"><ele>360.5</ele><time>2026-04-29T08:37:20.818Z</time></trkpt><trkpt lat="44.7247799" lon="9.3912513"><ele>361.25</ele><time>2026-04-29T08:37:21.816Z</time></trkpt><trkpt lat="44.7247417" lon="9.3914143"><ele>362.0</ele><time>2026-04-29T08:37:22.817Z</time></trkpt><trkpt lat="44.7246966" lon="9.3915869"><ele>362.0</ele><time>2026-04-29T08:37:23.818Z</time></trkpt><trkpt lat="44.7246513" lon="9.3917606"><ele>362.0</ele><time>2026-04-29T08:37:24.819Z</time></trkpt><trkpt lat="44.7246088" lon="9.3919249"><ele>362.0</ele><time>2026-04-29T08:37:25.817Z</time></trkpt><trkpt lat="44.7245692" lon="9.392081"><ele>362.0</ele><time>2026-04-29T08:37:26.817Z</time></trkpt><trkpt lat="44.7245316" lon="9.3922283"><ele>365.40000000000003</ele><time>2026-04-29T08:37:27.816Z</time></trkpt><trkpt lat="44.7244819" lon="9.3923721"><ele>368.8</ele><time>2026-04-29T08:37:28.817Z</time></trkpt><trkpt lat="44.7244208" lon="9.3925042"><ele>372.2</ele><time>2026-04-29T08:37:29.815Z</time></trkpt><trkpt lat="44.72435" lon="9.3926303"><ele>375.6</ele><time>2026-04-29T08:37:30.818Z</time></trkpt><trkpt lat="44.7242843" lon="9.3927402"><ele>379.0</ele><time>2026-04-29T08:37:31.818Z</time></trkpt><trkpt lat="44.7242273" lon="9.392838"><ele>376.8333333333333</ele><time>2026-04-29T08:37:32.816Z</time></trkpt><trkpt lat="44.7241746" lon="9.3929226"><ele>374.66666666666663</ele><time>2026-04-29T08:37:33.817Z</time></trkpt><trkpt lat="44.7241311" lon="9.3929943"><ele>372.5</ele><time>2026-04-29T08:37:34.815Z</time></trkpt><trkpt lat="44.7240594" lon="9.3931159"><ele>370.3333333333333</ele><time>2026-04-29T08:37:36.819Z</time></trkpt><trkpt lat="44.7240157" lon="9.3931951"><ele>368.1666666666667</ele><time>2026-04-29T08:37:38.818Z</time></trkpt><trkpt lat="44.7239698" lon="9.3932894"><ele>366.0</ele><time>2026-04-29T08:37:41.818Z</time></trkpt><trkpt lat="44.7239312" lon="9.3933611"><ele>366.0</ele><time>2026-04-29T08:37:45.819Z</time></trkpt><trkpt lat="44.7238892" lon="9.3934399"><ele>366.0</ele><time>2026-04-29T08:37:56.819Z</time></trkpt><trkpt lat="44.7238393" lon="9.3935115"><ele>366.0</ele><time>2026-04-29T08:37:57.817Z</time></trkpt><trkpt lat="44.7237751" lon="9.3935812"><ele>366.0</ele><time>2026-04-29T08:37:58.819Z</time></trkpt><trkpt lat="44.7237104" lon="9.3936379"><ele>366.0</ele><time>2026-04-29T08:37:59.818Z</time></trkpt><trkpt lat="44.7236352" lon="9.3936872"><ele>366.0</ele><time>2026-04-29T08:38:00.817Z</time></trkpt><trkpt lat="44.7235499" lon="9.3937326"><ele>366.4</ele><time>2026-04-29T08:38:01.816Z</time></trkpt><trkpt lat="44.7234523" lon="9.3937819"><ele>366.8</ele><time>2026-04-29T08:38:02.819Z</time></trkpt><trkpt lat="44.7233572" lon="9.3938286"><ele>367.2</ele><time>2026-04-29T08:38:03.818Z</time></trkpt><trkpt lat="44.723255" lon="9.3938747"><ele>367.59999999999997</ele><time>2026-04-29T08:38:04.817Z</time></trkpt><trkpt lat="44.7231574" lon="9.3939138"><ele>368.0</ele><time>2026-04-29T08:38:05.815Z</time></trkpt><trkpt lat="44.7230639" lon="9.3939509"><ele>368.0</ele><time>2026-04-29T08:38:06.816Z</time></trkpt><trkpt lat="44.7229753" lon="9.3939857"><ele>368.0</ele><time>2026-04-29T08:38:07.815Z</time></trkpt><trkpt lat="44.722891" lon="9.3940199"><ele>368.0</ele><time>2026-04-29T08:38:08.816Z</time></trkpt><trkpt lat="44.7228108" lon="9.3940592"><ele>368.0</ele><time>2026-04-29T08:38:09.818Z</time></trkpt><trkpt lat="44.7227421" lon="9.3941134"><ele>368.0</ele><time>2026-04-29T08:38:10.818Z</time></trkpt><trkpt lat="44.7226869" lon="9.3941867"><ele>368.0</ele><time>2026-04-29T08:38:11.816Z</time></trkpt><trkpt lat="44.7226523" lon="9.3942684"><ele>362.4</ele><time>2026-04-29T08:38:12.817Z</time></trkpt><trkpt lat="44.7226082" lon="9.3944331"><ele>356.79999999999995</ele><time>2026-04-29T08:38:14.816Z</time></trkpt><trkpt lat="44.7225663" lon="9.3945059"><ele>351.2</ele><time>2026-04-29T08:38:15.819Z</time></trkpt><trkpt lat="44.7224426" lon="9.3945424"><ele>345.6</ele><time>2026-04-29T08:38:17.817Z</time></trkpt><trkpt lat="44.7223777" lon="9.3945028"><ele>340.0</ele><time>2026-04-29T08:38:18.817Z</time></trkpt><trkpt lat="44.7223206" lon="9.3944321"><ele>340.0</ele><time>2026-04-29T08:38:19.815Z</time></trkpt><trkpt lat="44.7222626" lon="9.3943376"><ele>340.0</ele><time>2026-04-29T08:38:20.818Z</time></trkpt><trkpt lat="44.7221946" lon="9.3942362"><ele>340.0</ele><time>2026-04-29T08:38:21.816Z</time></trkpt><trkpt lat="44.7221173" lon="9.3941282"><ele>340.0</ele><time>2026-04-29T08:38:22.818Z</time></trkpt><trkpt lat="44.7220445" lon="9.3940368"><ele>340.0</ele><time>2026-04-29T08:38:23.818Z</time></trkpt><trkpt lat="44.7219684" lon="9.3939534"><ele>339.4</ele><time>2026-04-29T08:38:24.816Z</time></trkpt><trkpt lat="44.7218909" lon="9.3938853"><ele>338.8</ele><time>2026-04-29T08:38:25.816Z</time></trkpt><trkpt lat="44.7218096" lon="9.3938346"><ele>338.20000000000005</ele><time>2026-04-29T08:38:26.816Z</time></trkpt><trkpt lat="44.7217227" lon="9.3938097"><ele>337.6</ele><time>2026-04-29T08:38:27.817Z</time></trkpt><trkpt lat="44.7216298" lon="9.3938236"><ele>337.0</ele><time>2026-04-29T08:38:28.819Z</time></trkpt><trkpt lat="44.7215408" lon="9.3938726"><ele>337.0</ele><time>2026-04-29T08:38:29.817Z</time></trkpt><trkpt lat="44.7214689" lon="9.3939532"><ele>337.0</ele><time>2026-04-29T08:38:30.816Z</time></trkpt><trkpt lat="44.7214249" lon="9.3940561"><ele>337.0</ele><time>2026-04-29T08:38:31.818Z</time></trkpt><trkpt lat="44.7214015" lon="9.3941813"><ele>337.0</ele><time>2026-04-29T08:38:32.816Z</time></trkpt><trkpt lat="44.7213833" lon="9.3943125"><ele>337.0</ele><time>2026-04-29T08:38:33.819Z</time></trkpt><trkpt lat="44.721344" lon="9.3944441"><ele>337.0</ele><time>2026-04-29T08:38:34.819Z</time></trkpt><trkpt lat="44.7212803" lon="9.3945637"><ele>337.0</ele><time>2026-04-29T08:38:35.818Z</time></trkpt><trkpt lat="44.7211975" lon="9.3946684"><ele>337.0</ele><time>2026-04-29T08:38:36.816Z</time></trkpt><trkpt lat="44.7211017" lon="9.3947711"><ele>337.0</ele><time>2026-04-29T08:38:37.817Z</time></trkpt><trkpt lat="44.7210082" lon="9.3948765"><ele>339.40000000000003</ele><time>2026-04-29T08:38:38.818Z</time></trkpt><trkpt lat="44.7209124" lon="9.3949581"><ele>341.8</ele><time>2026-04-29T08:38:39.817Z</time></trkpt><trkpt lat="44.7208183" lon="9.3950118"><ele>344.2</ele><time>2026-04-29T08:38:40.818Z</time></trkpt><trkpt lat="44.7207268" lon="9.3950342"><ele>346.6</ele><time>2026-04-29T08:38:41.819Z</time></trkpt><trkpt lat="44.7206438" lon="9.3950267"><ele>349.0</ele><time>2026-04-29T08:38:42.819Z</time></trkpt><trkpt lat="44.7205672" lon="9.3949894"><ele>349.0</ele><time>2026-04-29T08:38:43.817Z</time></trkpt><trkpt lat="44.7205103" lon="9.3949083"><ele>349.0</ele><time>2026-04-29T08:38:44.818Z</time></trkpt><trkpt lat="44.7204793" lon="9.394794"><ele>349.0</ele><time>2026-04-29T08:38:45.816Z</time></trkpt><trkpt lat="44.72047" lon="9.3946533"><ele>349.0</ele><time>2026-04-29T08:38:46.817Z</time></trkpt><trkpt lat="44.7204745" lon="9.3944939"><ele>349.0</ele><time>2026-04-29T08:38:47.815Z</time></trkpt><trkpt lat="44.7204836" lon="9.3943226"><ele>343.5</ele><time>2026-04-29T08:38:48.819Z</time></trkpt><trkpt lat="44.7205083" lon="9.3941637"><ele>338.0</ele><time>2026-04-29T08:38:49.818Z</time></trkpt><trkpt lat="44.7205551" lon="9.3940171"><ele>332.5</ele><time>2026-04-29T08:38:50.817Z</time></trkpt><trkpt lat="44.7206202" lon="9.3938791"><ele>327.0</ele><time>2026-04-29T08:38:51.817Z</time></trkpt><trkpt lat="44.720691" lon="9.3937362"><ele>327.0</ele><time>2026-04-29T08:38:52.816Z</time></trkpt><trkpt lat="44.7207548" lon="9.3935988"><ele>327.0</ele><time>2026-04-29T08:38:53.817Z</time></trkpt><trkpt lat="44.7208009" lon="9.3934684"><ele>327.0</ele><time>2026-04-29T08:38:54.817Z</time></trkpt><trkpt lat="44.7208226" lon="9.3933306"><ele>327.0</ele><time>2026-04-29T08:38:55.817Z</time></trkpt><trkpt lat="44.7208144" lon="9.3931916"><ele>327.0</ele><time>2026-04-29T08:38:56.818Z</time></trkpt><trkpt lat="44.7207719" lon="9.393056"><ele>325.75</ele><time>2026-04-29T08:38:57.815Z</time></trkpt><trkpt lat="44.7206999" lon="9.3929373"><ele>324.5</ele><time>2026-04-29T08:38:58.818Z</time></trkpt><trkpt lat="44.7206092" lon="9.3928218"><ele>323.25</ele><time>2026-04-29T08:38:59.817Z</time></trkpt><trkpt lat="44.7205177" lon="9.3926838"><ele>322.0</ele><time>2026-04-29T08:39:00.817Z</time></trkpt><trkpt lat="44.7204475" lon="9.3924969"><ele>322.0</ele><time>2026-04-29T08:39:01.816Z</time></trkpt><trkpt lat="44.7203865" lon="9.3923008"><ele>322.0</ele><time>2026-04-29T08:39:02.818Z</time></trkpt><trkpt lat="44.7203321" lon="9.3921063"><ele>322.0</ele><time>2026-04-29T08:39:03.819Z</time></trkpt><trkpt lat="44.720293" lon="9.3919196"><ele>322.0</ele><time>2026-04-29T08:39:04.817Z</time></trkpt><trkpt lat="44.7202744" lon="9.3917207"><ele>317.66666666666663</ele><time>2026-04-29T08:39:05.816Z</time></trkpt><trkpt lat="44.7202628" lon="9.3915065"><ele>313.3333333333333</ele><time>2026-04-29T08:39:06.817Z</time></trkpt><trkpt lat="44.7202484" lon="9.3912794"><ele>309.0</ele><time>2026-04-29T08:39:07.817Z</time></trkpt><trkpt lat="44.7202309" lon="9.3910496"><ele>311.5</ele><time>2026-04-29T08:39:08.817Z</time></trkpt><trkpt lat="44.7202172" lon="9.3908371"><ele>314.0</ele><time>2026-04-29T08:39:09.817Z</time></trkpt><trkpt lat="44.7202022" lon="9.3906456"><ele>316.5</ele><time>2026-04-29T08:39:10.819Z</time></trkpt><trkpt lat="44.7201763" lon="9.3904662"><ele>319.0</ele><time>2026-04-29T08:39:11.815Z</time></trkpt><trkpt lat="44.7201292" lon="9.3903011"><ele>319.0</ele><time>2026-04-29T08:39:12.817Z</time></trkpt><trkpt lat="44.720048" lon="9.3901623"><ele>319.0</ele><time>2026-04-29T08:39:13.818Z</time></trkpt><trkpt lat="44.7199368" lon="9.3900657"><ele>319.0</ele><time>2026-04-29T08:39:14.817Z</time></trkpt><trkpt lat="44.7198045" lon="9.3900054"><ele>319.0</ele><time>2026-04-29T08:39:15.817Z</time></trkpt><trkpt lat="44.7196605" lon="9.3899688"><ele>319.0</ele><time>2026-04-29T08:39:16.818Z</time></trkpt><trkpt lat="44.7195085" lon="9.3899536"><ele>319.0</ele><time>2026-04-29T08:39:17.817Z</time></trkpt><trkpt lat="44.7193691" lon="9.3899484"><ele>319.0</ele><time>2026-04-29T08:39:18.816Z</time></trkpt><trkpt lat="44.7192372" lon="9.389962"><ele>319.0</ele><time>2026-04-29T08:39:19.817Z</time></trkpt><trkpt lat="44.7191108" lon="9.3900093"><ele>320.0</ele><time>2026-04-29T08:39:20.818Z</time></trkpt><trkpt lat="44.7189892" lon="9.3900854"><ele>321.0</ele><time>2026-04-29T08:39:21.819Z</time></trkpt><trkpt lat="44.7188642" lon="9.390163"><ele>322.0</ele><time>2026-04-29T08:39:22.819Z</time></trkpt><trkpt lat="44.7187291" lon="9.3902103"><ele>323.0</ele><time>2026-04-29T08:39:23.817Z</time></trkpt><trkpt lat="44.7185826" lon="9.390226"><ele>323.6666666666667</ele><time>2026-04-29T08:39:24.816Z</time></trkpt><trkpt lat="44.718431" lon="9.3902276"><ele>324.3333333333333</ele><time>2026-04-29T08:39:25.815Z</time></trkpt><trkpt lat="44.7182759" lon="9.3902134"><ele>325.0</ele><time>2026-04-29T08:39:26.817Z</time></trkpt><trkpt lat="44.7181256" lon="9.3901852"><ele>325.0</ele><time>2026-04-29T08:39:27.817Z</time></trkpt><trkpt lat="44.7179817" lon="9.3901592"><ele>325.0</ele><time>2026-04-29T08:39:28.818Z</time></trkpt><trkpt lat="44.7178425" lon="9.3901419"><ele>325.0</ele><time>2026-04-29T08:39:29.819Z</time></trkpt><trkpt lat="44.7177064" lon="9.390138"><ele>325.0</ele><time>2026-04-29T08:39:30.817Z</time></trkpt><trkpt lat="44.7175692" lon="9.3901386"><ele>326.75</ele><time>2026-04-29T08:39:31.817Z</time></trkpt><trkpt lat="44.7174271" lon="9.3901073"><ele>328.5</ele><time>2026-04-29T08:39:32.818Z</time></trkpt><trkpt lat="44.7172859" lon="9.3900515"><ele>330.25</ele><time>2026-04-29T08:39:33.816Z</time></trkpt><trkpt lat="44.7171438" lon="9.3899731"><ele>332.0</ele><time>2026-04-29T08:39:34.818Z</time></trkpt><trkpt lat="44.7170107" lon="9.3899015"><ele>335.75</ele><time>2026-04-29T08:39:35.817Z</time></trkpt><trkpt lat="44.7168889" lon="9.3898366"><ele>339.5</ele><time>2026-04-29T08:39:36.818Z</time></trkpt><trkpt lat="44.7167731" lon="9.3897693"><ele>343.25</ele><time>2026-04-29T08:39:37.818Z</time></trkpt><trkpt lat="44.7166649" lon="9.3896933"><ele>347.0</ele><time>2026-04-29T08:39:38.817Z</time></trkpt><trkpt lat="44.7165649" lon="9.3896095"><ele>338.25</ele><time>2026-04-29T08:39:39.817Z</time></trkpt><trkpt lat="44.7164675" lon="9.3895215"><ele>329.5</ele><time>2026-04-29T08:39:40.817Z</time></trkpt><trkpt lat="44.7163631" lon="9.3894284"><ele>320.75</ele><time>2026-04-29T08:39:41.817Z</time></trkpt><trkpt lat="44.7162556" lon="9.389333"><ele>312.0</ele><time>2026-04-29T08:39:42.819Z</time></trkpt><trkpt lat="44.716156" lon="9.3892317"><ele>312.0</ele><time>2026-04-29T08:39:43.818Z</time></trkpt><trkpt lat="44.7160714" lon="9.3891133"><ele>312.0</ele><time>2026-04-29T08:39:44.816Z</time></trkpt><trkpt lat="44.7160013" lon="9.3889627"><ele>312.0</ele><time>2026-04-29T08:39:45.819Z</time></trkpt><trkpt lat="44.7159421" lon="9.3887916"><ele>312.0</ele><time>2026-04-29T08:39:46.817Z</time></trkpt><trkpt lat="44.7158812" lon="9.3886112"><ele>311.75</ele><time>2026-04-29T08:39:47.817Z</time></trkpt><trkpt lat="44.7158141" lon="9.3884209"><ele>311.5</ele><time>2026-04-29T08:39:48.817Z</time></trkpt><trkpt lat="44.7157431" lon="9.3882315"><ele>311.25</ele><time>2026-04-29T08:39:49.818Z</time></trkpt><trkpt lat="44.7156718" lon="9.3880517"><ele>311.0</ele><time>2026-04-29T08:39:50.817Z</time></trkpt><trkpt lat="44.7155987" lon="9.3878928"><ele>311.0</ele><time>2026-04-29T08:39:51.819Z</time></trkpt><trkpt lat="44.7155164" lon="9.3877744"><ele>311.0</ele><time>2026-04-29T08:39:52.817Z</time></trkpt><trkpt lat="44.7154307" lon="9.3876745"><ele>311.0</ele><time>2026-04-29T08:39:53.815Z</time></trkpt><trkpt lat="44.7153543" lon="9.3875784"><ele>311.0</ele><time>2026-04-29T08:39:54.816Z</time></trkpt><trkpt lat="44.7152883" lon="9.3874723"><ele>311.0</ele><time>2026-04-29T08:39:55.818Z</time></trkpt><trkpt lat="44.7152354" lon="9.3873601"><ele>314.0</ele><time>2026-04-29T08:39:56.817Z</time></trkpt><trkpt lat="44.7151981" lon="9.3872282"><ele>317.0</ele><time>2026-04-29T08:39:57.817Z</time></trkpt><trkpt lat="44.7151684" lon="9.3870838"><ele>320.0</ele><time>2026-04-29T08:39:58.816Z</time></trkpt><trkpt lat="44.7151244" lon="9.3869407"><ele>323.0</ele><time>2026-04-29T08:39:59.819Z</time></trkpt><trkpt lat="44.7150594" lon="9.3868131"><ele>326.0</ele><time>2026-04-29T08:40:00.819Z</time></trkpt><trkpt lat="44.7149973" lon="9.3866708"><ele>326.0</ele><time>2026-04-29T08:40:01.817Z</time></trkpt><trkpt lat="44.7149408" lon="9.3865062"><ele>326.0</ele><time>2026-04-29T08:40:02.817Z</time></trkpt><trkpt lat="44.7148848" lon="9.38632"><ele>326.0</ele><time>2026-04-29T08:40:03.817Z</time></trkpt><trkpt lat="44.7148141" lon="9.3861358"><ele>326.0</ele><time>2026-04-29T08:40:04.817Z</time></trkpt><trkpt lat="44.7147461" lon="9.3859564"><ele>323.8</ele><time>2026-04-29T08:40:05.818Z</time></trkpt><trkpt lat="44.7146866" lon="9.3857923"><ele>321.6</ele><time>2026-04-29T08:40:06.817Z</time></trkpt><trkpt lat="44.7146313" lon="9.3856438"><ele>319.4</ele><time>2026-04-29T08:40:07.818Z</time></trkpt><trkpt lat="44.7145851" lon="9.3855141"><ele>317.2</ele><time>2026-04-29T08:40:08.819Z</time></trkpt><trkpt lat="44.7145432" lon="9.3853978"><ele>315.0</ele><time>2026-04-29T08:40:09.816Z</time></trkpt><trkpt lat="44.7145041" lon="9.3852834"><ele>313.6</ele><time>2026-04-29T08:40:10.817Z</time></trkpt><trkpt lat="44.7144663" lon="9.3851644"><ele>312.2</ele><time>2026-04-29T08:40:11.815Z</time></trkpt><trkpt lat="44.7144405" lon="9.3850316"><ele>310.8</ele><time>2026-04-29T08:40:12.817Z</time></trkpt><trkpt lat="44.7144328" lon="9.3848809"><ele>309.4</ele><time>2026-04-29T08:40:13.816Z</time></trkpt><trkpt lat="44.7144346" lon="9.384718"><ele>308.0</ele><time>2026-04-29T08:40:14.816Z</time></trkpt><trkpt lat="44.7144422" lon="9.3845388"><ele>308.0</ele><time>2026-04-29T08:40:15.817Z</time></trkpt><trkpt lat="44.7144536" lon="9.3843602"><ele>308.0</ele><time>2026-04-29T08:40:16.818Z</time></trkpt><trkpt lat="44.7144675" lon="9.3841954"><ele>308.0</ele><time>2026-04-29T08:40:17.815Z</time></trkpt><trkpt lat="44.7144876" lon="9.384033"><ele>308.0</ele><time>2026-04-29T08:40:18.817Z</time></trkpt><trkpt lat="44.7145112" lon="9.383879"><ele>308.8</ele><time>2026-04-29T08:40:19.819Z</time></trkpt><trkpt lat="44.7145299" lon="9.3837309"><ele>309.6</ele><time>2026-04-29T08:40:20.819Z</time></trkpt><trkpt lat="44.7145304" lon="9.3835814"><ele>310.4</ele><time>2026-04-29T08:40:21.817Z</time></trkpt><trkpt lat="44.7145093" lon="9.383433"><ele>311.2</ele><time>2026-04-29T08:40:22.816Z</time></trkpt><trkpt lat="44.7144614" lon="9.3832965"><ele>312.0</ele><time>2026-04-29T08:40:23.816Z</time></trkpt><trkpt lat="44.7143911" lon="9.3831764"><ele>313.25</ele><time>2026-04-29T08:40:24.819Z</time></trkpt><trkpt lat="44.7143136" lon="9.3830571"><ele>314.5</ele><time>2026-04-29T08:40:25.819Z</time></trkpt><trkpt lat="44.7142312" lon="9.3829326"><ele>315.75</ele><time>2026-04-29T08:40:26.818Z</time></trkpt><trkpt lat="44.7141472" lon="9.382801"><ele>317.0</ele><time>2026-04-29T08:40:27.818Z</time></trkpt><trkpt lat="44.7140689" lon="9.3826756"><ele>317.0</ele><time>2026-04-29T08:40:28.817Z</time></trkpt><trkpt lat="44.7140077" lon="9.3825434"><ele>317.0</ele><time>2026-04-29T08:40:29.816Z</time></trkpt><trkpt lat="44.7139594" lon="9.382396"><ele>317.0</ele><time>2026-04-29T08:40:30.817Z</time></trkpt><trkpt lat="44.7139268" lon="9.3822375"><ele>317.0</ele><time>2026-04-29T08:40:31.819Z</time></trkpt><trkpt lat="44.7139059" lon="9.3820766"><ele>316.4</ele><time>2026-04-29T08:40:32.819Z</time></trkpt><trkpt lat="44.7138934" lon="9.3819172"><ele>315.79999999999995</ele><time>2026-04-29T08:40:33.816Z</time></trkpt><trkpt lat="44.7138812" lon="9.3817579"><ele>315.2</ele><time>2026-04-29T08:40:34.816Z</time></trkpt><trkpt lat="44.7138667" lon="9.3816049"><ele>314.59999999999997</ele><time>2026-04-29T08:40:35.816Z</time></trkpt><trkpt lat="44.7138513" lon="9.3814586"><ele>314.0</ele><time>2026-04-29T08:40:36.816Z</time></trkpt><trkpt lat="44.7138318" lon="9.3813275"><ele>313.99999999999994</ele><time>2026-04-29T08:40:37.817Z</time></trkpt><trkpt lat="44.7138073" lon="9.3812138"><ele>314.0</ele><time>2026-04-29T08:40:38.818Z</time></trkpt><trkpt lat="44.7137767" lon="9.3811159"><ele>314.0</ele><time>2026-04-29T08:40:39.818Z</time></trkpt><trkpt lat="44.7137391" lon="9.381031"><ele>314.0</ele><time>2026-04-29T08:40:40.819Z</time></trkpt><trkpt lat="44.7136982" lon="9.3809571"><ele>314.0</ele><time>2026-04-29T08:40:41.818Z</time></trkpt><trkpt lat="44.713653" lon="9.3808811"><ele>313.99999999999994</ele><time>2026-04-29T08:40:42.818Z</time></trkpt><trkpt lat="44.7136069" lon="9.3807974"><ele>314.0</ele><time>2026-04-29T08:40:43.817Z</time></trkpt><trkpt lat="44.7135502" lon="9.3807129"><ele>314.83333333333337</ele><time>2026-04-29T08:40:44.818Z</time></trkpt><trkpt lat="44.7134933" lon="9.380627"><ele>315.6666666666667</ele><time>2026-04-29T08:40:45.818Z</time></trkpt><trkpt lat="44.7134445" lon="9.3805452"><ele>316.5</ele><time>2026-04-29T08:40:46.817Z</time></trkpt><trkpt lat="44.7133979" lon="9.380471"><ele>317.3333333333333</ele><time>2026-04-29T08:40:47.819Z</time></trkpt><trkpt lat="44.7133527" lon="9.3804038"><ele>318.16666666666663</ele><time>2026-04-29T08:40:48.816Z</time></trkpt><trkpt lat="44.7132569" lon="9.3802866"><ele>319.0</ele><time>2026-04-29T08:40:50.818Z</time></trkpt><trkpt lat="44.7131497" lon="9.3802046"><ele>319.0</ele><time>2026-04-29T08:40:52.817Z</time></trkpt><trkpt lat="44.7130465" lon="9.3801559"><ele>319.0</ele><time>2026-04-29T08:40:54.817Z</time></trkpt><trkpt lat="44.7129732" lon="9.380129"><ele>319.0</ele><time>2026-04-29T08:40:56.819Z</time></trkpt><trkpt lat="44.7129035" lon="9.3800939"><ele>319.0</ele><time>2026-04-29T08:40:59.817Z</time></trkpt><trkpt lat="44.7128367" lon="9.3800912"><ele>319.0</ele><time>2026-04-29T08:41:30.819Z</time></trkpt><trkpt lat="44.7127763" lon="9.380064"><ele>319.0</ele><time>2026-04-29T08:41:34.816Z</time></trkpt><trkpt lat="44.7127343" lon="9.3801357"><ele>319.0</ele><time>2026-04-29T08:47:06.813Z</time></trkpt><trkpt lat="44.7127435" lon="9.3802294"><ele>319.0</ele><time>2026-04-29T08:47:08.815Z</time></trkpt><trkpt lat="44.7127189" lon="9.3803201"><ele>319.0</ele><time>2026-04-29T08:47:10.817Z</time></trkpt><trkpt lat="44.712617" lon="9.3803174"><ele>319.0</ele><time>2026-04-29T08:47:12.815Z</time></trkpt><trkpt lat="44.712539" lon="9.3803348"><ele>319.0</ele><time>2026-04-29T08:47:13.815Z</time></trkpt><trkpt lat="44.712452" lon="9.3803644"><ele>319.0</ele><time>2026-04-29T08:47:14.814Z</time></trkpt><trkpt lat="44.7123788" lon="9.3804041"><ele>319.5</ele><time>2026-04-29T08:47:15.815Z</time></trkpt><trkpt lat="44.7123134" lon="9.3804649"><ele>320.0</ele><time>2026-04-29T08:47:16.818Z</time></trkpt><trkpt lat="44.7122729" lon="9.3805532"><ele>320.5</ele><time>2026-04-29T08:47:17.816Z</time></trkpt><trkpt lat="44.7122402" lon="9.3806638"><ele>321.0</ele><time>2026-04-29T08:47:18.816Z</time></trkpt><trkpt lat="44.7122155" lon="9.3807926"><ele>321.5</ele><time>2026-04-29T08:47:19.815Z</time></trkpt><trkpt lat="44.7121961" lon="9.380949"><ele>322.0</ele><time>2026-04-29T08:47:20.814Z</time></trkpt><trkpt lat="44.7121744" lon="9.3811252"><ele>323.0</ele><time>2026-04-29T08:47:21.814Z</time></trkpt><trkpt lat="44.7121526" lon="9.3813116"><ele>324.0</ele><time>2026-04-29T08:47:22.813Z</time></trkpt><trkpt lat="44.7121283" lon="9.3814975"><ele>325.0</ele><time>2026-04-29T08:47:23.813Z</time></trkpt><trkpt lat="44.712107" lon="9.3816864"><ele>326.0</ele><time>2026-04-29T08:47:24.816Z</time></trkpt><trkpt lat="44.7120861" lon="9.3818747"><ele>327.4</ele><time>2026-04-29T08:47:25.815Z</time></trkpt><trkpt lat="44.7120674" lon="9.3820419"><ele>328.8</ele><time>2026-04-29T08:47:26.815Z</time></trkpt><trkpt lat="44.7120493" lon="9.3822062"><ele>330.2</ele><time>2026-04-29T08:47:27.813Z</time></trkpt><trkpt lat="44.7120406" lon="9.3823612"><ele>331.59999999999997</ele><time>2026-04-29T08:47:28.815Z</time></trkpt><trkpt lat="44.7120545" lon="9.3824929"><ele>333.0</ele><time>2026-04-29T08:47:29.815Z</time></trkpt><trkpt lat="44.7120924" lon="9.3826092"><ele>333.79999999999995</ele><time>2026-04-29T08:47:30.818Z</time></trkpt><trkpt lat="44.7121524" lon="9.3827177"><ele>334.6</ele><time>2026-04-29T08:47:31.816Z</time></trkpt><trkpt lat="44.712231" lon="9.3828184"><ele>335.4</ele><time>2026-04-29T08:47:32.818Z</time></trkpt><trkpt lat="44.7123103" lon="9.3829182"><ele>336.20000000000005</ele><time>2026-04-29T08:47:33.815Z</time></trkpt><trkpt lat="44.7123684" lon="9.3830079"><ele>337.0</ele><time>2026-04-29T08:47:34.815Z</time></trkpt><trkpt lat="44.7124025" lon="9.3831049"><ele>338.40000000000003</ele><time>2026-04-29T08:47:35.815Z</time></trkpt><trkpt lat="44.7124066" lon="9.3832157"><ele>339.8</ele><time>2026-04-29T08:47:36.816Z</time></trkpt><trkpt lat="44.7123983" lon="9.3833539"><ele>341.2</ele><time>2026-04-29T08:47:37.818Z</time></trkpt><trkpt lat="44.7123859" lon="9.3835205"><ele>342.6</ele><time>2026-04-29T08:47:38.817Z</time></trkpt><trkpt lat="44.712374" lon="9.3836934"><ele>344.0</ele><time>2026-04-29T08:47:39.816Z</time></trkpt><trkpt lat="44.7123648" lon="9.3838493"><ele>345.6</ele><time>2026-04-29T08:47:40.815Z</time></trkpt><trkpt lat="44.7123544" lon="9.3839888"><ele>347.2</ele><time>2026-04-29T08:47:41.818Z</time></trkpt><trkpt lat="44.7123245" lon="9.3841026"><ele>348.8</ele><time>2026-04-29T08:47:42.815Z</time></trkpt><trkpt lat="44.7122755" lon="9.3842025"><ele>350.40000000000003</ele><time>2026-04-29T08:47:43.816Z</time></trkpt><trkpt lat="44.7122116" lon="9.384282"><ele>352.0</ele><time>2026-04-29T08:47:44.817Z</time></trkpt><trkpt lat="44.7121291" lon="9.3843554"><ele>352.0</ele><time>2026-04-29T08:47:45.815Z</time></trkpt><trkpt lat="44.7120257" lon="9.3844366"><ele>352.0</ele><time>2026-04-29T08:47:46.816Z</time></trkpt><trkpt lat="44.7119099" lon="9.3845366"><ele>352.0</ele><time>2026-04-29T08:47:47.816Z</time></trkpt><trkpt lat="44.7117863" lon="9.3846416"><ele>352.0</ele><time>2026-04-29T08:47:48.815Z</time></trkpt><trkpt lat="44.7116623" lon="9.3847479"><ele>352.0</ele><time>2026-04-29T08:47:49.815Z</time></trkpt><trkpt lat="44.7115454" lon="9.3848385"><ele>352.0</ele><time>2026-04-29T08:47:50.818Z</time></trkpt><trkpt lat="44.7114196" lon="9.384914"><ele>352.0</ele><time>2026-04-29T08:47:51.816Z</time></trkpt><trkpt lat="44.7112892" lon="9.3849885"><ele>352.0</ele><time>2026-04-29T08:47:52.815Z</time></trkpt><trkpt lat="44.7111536" lon="9.3850632"><ele>353.0</ele><time>2026-04-29T08:47:53.816Z</time></trkpt><trkpt lat="44.7110178" lon="9.3851379"><ele>354.0</ele><time>2026-04-29T08:47:54.815Z</time></trkpt><trkpt lat="44.7108849" lon="9.3852107"><ele>355.0</ele><time>2026-04-29T08:47:55.817Z</time></trkpt><trkpt lat="44.7107551" lon="9.3852754"><ele>356.0</ele><time>2026-04-29T08:47:56.816Z</time></trkpt><trkpt lat="44.7106183" lon="9.3853424"><ele>356.0</ele><time>2026-04-29T08:47:57.816Z</time></trkpt><trkpt lat="44.7104788" lon="9.3854043"><ele>356.0</ele><time>2026-04-29T08:47:58.816Z</time></trkpt><trkpt lat="44.7103391" lon="9.3854363"><ele>356.0</ele><time>2026-04-29T08:47:59.816Z</time></trkpt><trkpt lat="44.7102005" lon="9.3854373"><ele>356.0</ele><time>2026-04-29T08:48:00.815Z</time></trkpt><trkpt lat="44.7100676" lon="9.385433"><ele>356.25</ele><time>2026-04-29T08:48:01.816Z</time></trkpt><trkpt lat="44.7099486" lon="9.3854556"><ele>356.5</ele><time>2026-04-29T08:48:02.817Z</time></trkpt><trkpt lat="44.7098337" lon="9.3855314"><ele>356.75</ele><time>2026-04-29T08:48:03.818Z</time></trkpt><trkpt lat="44.7097235" lon="9.3856493"><ele>357.0</ele><time>2026-04-29T08:48:04.817Z</time></trkpt><trkpt lat="44.7096221" lon="9.3857994"><ele>358.20000000000005</ele><time>2026-04-29T08:48:05.816Z</time></trkpt><trkpt lat="44.7095314" lon="9.3859466"><ele>359.4</ele><time>2026-04-29T08:48:06.816Z</time></trkpt><trkpt lat="44.7094494" lon="9.386064"><ele>360.6</ele><time>2026-04-29T08:48:07.817Z</time></trkpt><trkpt lat="44.7093706" lon="9.3861571"><ele>361.79999999999995</ele><time>2026-04-29T08:48:08.815Z</time></trkpt><trkpt lat="44.7092951" lon="9.3862193"><ele>363.0</ele><time>2026-04-29T08:48:09.817Z</time></trkpt><trkpt lat="44.7092201" lon="9.3862308"><ele>364.1666666666667</ele><time>2026-04-29T08:48:10.818Z</time></trkpt><trkpt lat="44.7091283" lon="9.386135"><ele>365.3333333333333</ele><time>2026-04-29T08:48:12.817Z</time></trkpt><trkpt lat="44.7091234" lon="9.3860447"><ele>366.5</ele><time>2026-04-29T08:48:13.816Z</time></trkpt><trkpt lat="44.7091519" lon="9.38595"><ele>367.66666666666663</ele><time>2026-04-29T08:48:14.816Z</time></trkpt><trkpt lat="44.7091973" lon="9.3858462"><ele>368.8333333333333</ele><time>2026-04-29T08:48:15.815Z</time></trkpt><trkpt lat="44.7092221" lon="9.3857505"><ele>370.0</ele><time>2026-04-29T08:48:16.816Z</time></trkpt><trkpt lat="44.7092175" lon="9.3856589"><ele>370.0</ele><time>2026-04-29T08:48:17.815Z</time></trkpt><trkpt lat="44.70913" lon="9.3855447"><ele>370.0</ele><time>2026-04-29T08:48:19.817Z</time></trkpt><trkpt lat="44.7090636" lon="9.3855568"><ele>370.0</ele><time>2026-04-29T08:48:20.816Z</time></trkpt><trkpt lat="44.7089973" lon="9.385617"><ele>370.0</ele><time>2026-04-29T08:48:21.817Z</time></trkpt><trkpt lat="44.7089292" lon="9.3857064"><ele>370.0</ele><time>2026-04-29T08:48:22.815Z</time></trkpt><trkpt lat="44.7088585" lon="9.3857823"><ele>370.0</ele><time>2026-04-29T08:48:23.819Z</time></trkpt><trkpt lat="44.708785" lon="9.3857869"><ele>370.0</ele><time>2026-04-29T08:48:24.815Z</time></trkpt><trkpt lat="44.7087207" lon="9.3857421"><ele>370.0</ele><time>2026-04-29T08:48:25.818Z</time></trkpt><trkpt lat="44.7086669" lon="9.3856508"><ele>370.0</ele><time>2026-04-29T08:48:26.816Z</time></trkpt><trkpt lat="44.7086191" lon="9.3855256"><ele>370.0</ele><time>2026-04-29T08:48:27.815Z</time></trkpt><trkpt lat="44.7085499" lon="9.3854142"><ele>370.0</ele><time>2026-04-29T08:48:28.819Z</time></trkpt><trkpt lat="44.7084612" lon="9.3853365"><ele>370.8333333333333</ele><time>2026-04-29T08:48:29.816Z</time></trkpt><trkpt lat="44.7083757" lon="9.3853081"><ele>371.66666666666663</ele><time>2026-04-29T08:48:30.817Z</time></trkpt><trkpt lat="44.7083123" lon="9.3853366"><ele>372.5</ele><time>2026-04-29T08:48:31.815Z</time></trkpt><trkpt lat="44.7082902" lon="9.3854711"><ele>373.3333333333333</ele><time>2026-04-29T08:48:33.816Z</time></trkpt><trkpt lat="44.7083262" lon="9.3855509"><ele>374.1666666666667</ele><time>2026-04-29T08:48:34.815Z</time></trkpt><trkpt lat="44.7083773" lon="9.3856556"><ele>375.0</ele><time>2026-04-29T08:48:35.819Z</time></trkpt><trkpt lat="44.7084173" lon="9.3857889"><ele>374.0</ele><time>2026-04-29T08:48:36.817Z</time></trkpt><trkpt lat="44.7084519" lon="9.3859327"><ele>373.0</ele><time>2026-04-29T08:48:37.817Z</time></trkpt><trkpt lat="44.7085198" lon="9.3860614"><ele>372.0</ele><time>2026-04-29T08:48:38.816Z</time></trkpt><trkpt lat="44.7085941" lon="9.3861647"><ele>371.0</ele><time>2026-04-29T08:48:39.816Z</time></trkpt><trkpt lat="44.708645" lon="9.3862451"><ele>370.0</ele><time>2026-04-29T08:48:40.816Z</time></trkpt><trkpt lat="44.7086612" lon="9.3863369"><ele>373.5</ele><time>2026-04-29T08:48:41.816Z</time></trkpt><trkpt lat="44.708594" lon="9.3864389"><ele>377.0</ele><time>2026-04-29T08:48:43.816Z</time></trkpt><trkpt lat="44.7084695" lon="9.3863594"><ele>380.5</ele><time>2026-04-29T08:48:45.815Z</time></trkpt><trkpt lat="44.7083892" lon="9.386263"><ele>384.0</ele><time>2026-04-29T08:48:46.816Z</time></trkpt><trkpt lat="44.7082904" lon="9.3861276"><ele>385.0</ele><time>2026-04-29T08:48:47.816Z</time></trkpt><trkpt lat="44.7081807" lon="9.3859722"><ele>386.0</ele><time>2026-04-29T08:48:48.816Z</time></trkpt><trkpt lat="44.708056" lon="9.3858091"><ele>387.0</ele><time>2026-04-29T08:48:49.816Z</time></trkpt><trkpt lat="44.7079161" lon="9.3856414"><ele>390.33333333333337</ele><time>2026-04-29T08:48:50.815Z</time></trkpt><trkpt lat="44.7077887" lon="9.3854851"><ele>393.6666666666667</ele><time>2026-04-29T08:48:51.816Z</time></trkpt><trkpt lat="44.7076749" lon="9.3853458"><ele>397.0</ele><time>2026-04-29T08:48:52.815Z</time></trkpt><trkpt lat="44.7075854" lon="9.3852014"><ele>397.0</ele><time>2026-04-29T08:48:53.816Z</time></trkpt><trkpt lat="44.7075146" lon="9.3850639"><ele>397.0</ele><time>2026-04-29T08:48:54.815Z</time></trkpt><trkpt lat="44.7074469" lon="9.3849465"><ele>397.0</ele><time>2026-04-29T08:48:55.816Z</time></trkpt><trkpt lat="44.7073732" lon="9.3848647"><ele>397.0</ele><time>2026-04-29T08:48:56.815Z</time></trkpt><trkpt lat="44.7072932" lon="9.384829"><ele>397.0</ele><time>2026-04-29T08:48:57.815Z</time></trkpt><trkpt lat="44.7072016" lon="9.3848365"><ele>397.0</ele><time>2026-04-29T08:48:58.817Z</time></trkpt><trkpt lat="44.7071087" lon="9.3848781"><ele>397.0</ele><time>2026-04-29T08:48:59.814Z</time></trkpt><trkpt lat="44.7070095" lon="9.3849434"><ele>397.0</ele><time>2026-04-29T08:49:00.816Z</time></trkpt><trkpt lat="44.7069136" lon="9.3850178"><ele>397.0</ele><time>2026-04-29T08:49:01.817Z</time></trkpt><trkpt lat="44.7068242" lon="9.3850873"><ele>397.0</ele><time>2026-04-29T08:49:02.818Z</time></trkpt><trkpt lat="44.7067493" lon="9.3851645"><ele>397.20000000000005</ele><time>2026-04-29T08:49:03.817Z</time></trkpt><trkpt lat="44.7066876" lon="9.3852626"><ele>397.4</ele><time>2026-04-29T08:49:04.816Z</time></trkpt><trkpt lat="44.7066489" lon="9.3853862"><ele>397.6</ele><time>2026-04-29T08:49:05.819Z</time></trkpt><trkpt lat="44.7066279" lon="9.3855257"><ele>397.79999999999995</ele><time>2026-04-29T08:49:06.815Z</time></trkpt><trkpt lat="44.7066116" lon="9.3856669"><ele>398.0</ele><time>2026-04-29T08:49:07.817Z</time></trkpt><trkpt lat="44.7065846" lon="9.3857852"><ele>401.59999999999997</ele><time>2026-04-29T08:49:08.816Z</time></trkpt><trkpt lat="44.7065317" lon="9.3858683"><ele>405.2</ele><time>2026-04-29T08:49:09.815Z</time></trkpt><trkpt lat="44.7064539" lon="9.38594"><ele>408.8</ele><time>2026-04-29T08:49:10.816Z</time></trkpt><trkpt lat="44.7063504" lon="9.3859703"><ele>412.4</ele><time>2026-04-29T08:49:11.815Z</time></trkpt><trkpt lat="44.7062344" lon="9.3859551"><ele>416.0</ele><time>2026-04-29T08:49:12.817Z</time></trkpt><trkpt lat="44.7061098" lon="9.3859005"><ele>414.25</ele><time>2026-04-29T08:49:13.816Z</time></trkpt><trkpt lat="44.7059922" lon="9.385822"><ele>412.5</ele><time>2026-04-29T08:49:14.817Z</time></trkpt><trkpt lat="44.7058881" lon="9.385737"><ele>410.75</ele><time>2026-04-29T08:49:15.815Z</time></trkpt><trkpt lat="44.7057876" lon="9.3856663"><ele>409.0</ele><time>2026-04-29T08:49:16.817Z</time></trkpt><trkpt lat="44.7056891" lon="9.3856219"><ele>409.0</ele><time>2026-04-29T08:49:17.817Z</time></trkpt><trkpt lat="44.7055751" lon="9.3856062"><ele>409.0</ele><time>2026-04-29T08:49:18.816Z</time></trkpt><trkpt lat="44.7054478" lon="9.3856104"><ele>409.0</ele><time>2026-04-29T08:49:19.815Z</time></trkpt><trkpt lat="44.7053262" lon="9.3856301"><ele>409.0</ele><time>2026-04-29T08:49:20.818Z</time></trkpt><trkpt lat="44.7052149" lon="9.3856913"><ele>410.25</ele><time>2026-04-29T08:49:21.816Z</time></trkpt><trkpt lat="44.7051211" lon="9.3857834"><ele>411.5</ele><time>2026-04-29T08:49:22.816Z</time></trkpt><trkpt lat="44.7050556" lon="9.3859109"><ele>412.75</ele><time>2026-04-29T08:49:23.816Z</time></trkpt><trkpt lat="44.7050209" lon="9.3860591"><ele>414.0</ele><time>2026-04-29T08:49:24.815Z</time></trkpt><trkpt lat="44.7050196" lon="9.3862206"><ele>416.0</ele><time>2026-04-29T08:49:25.815Z</time></trkpt><trkpt lat="44.7050417" lon="9.3863577"><ele>418.0</ele><time>2026-04-29T08:49:26.816Z</time></trkpt><trkpt lat="44.7050907" lon="9.3864729"><ele>420.0</ele><time>2026-04-29T08:49:27.817Z</time></trkpt><trkpt lat="44.7051705" lon="9.3865515"><ele>422.0</ele><time>2026-04-29T08:49:28.818Z</time></trkpt><trkpt lat="44.7052677" lon="9.3865944"><ele>424.0</ele><time>2026-04-29T08:49:29.816Z</time></trkpt><trkpt lat="44.7053725" lon="9.3865838"><ele>424.00000000000006</ele><time>2026-04-29T08:49:30.817Z</time></trkpt><trkpt lat="44.70547" lon="9.3865375"><ele>424.0</ele><time>2026-04-29T08:49:31.816Z</time></trkpt><trkpt lat="44.7055562" lon="9.3864996"><ele>424.0</ele><time>2026-04-29T08:49:32.816Z</time></trkpt><trkpt lat="44.7056187" lon="9.3865244"><ele>424.0</ele><time>2026-04-29T08:49:33.816Z</time></trkpt><trkpt lat="44.705658" lon="9.3866709"><ele>424.00000000000006</ele><time>2026-04-29T08:49:35.817Z</time></trkpt><trkpt lat="44.7056181" lon="9.3867594"><ele>424.0</ele><time>2026-04-29T08:49:36.816Z</time></trkpt><trkpt lat="44.7055477" lon="9.3868619"><ele>424.0</ele><time>2026-04-29T08:49:37.816Z</time></trkpt><trkpt lat="44.7054594" lon="9.3869471"><ele>424.0</ele><time>2026-04-29T08:49:38.817Z</time></trkpt><trkpt lat="44.705357" lon="9.3869806"><ele>424.0</ele><time>2026-04-29T08:49:39.817Z</time></trkpt><trkpt lat="44.7052567" lon="9.386972"><ele>424.0</ele><time>2026-04-29T08:49:40.818Z</time></trkpt><trkpt lat="44.7051697" lon="9.3869676"><ele>424.0</ele><time>2026-04-29T08:49:41.816Z</time></trkpt><trkpt lat="44.7050848" lon="9.3870003"><ele>424.2</ele><time>2026-04-29T08:49:42.815Z</time></trkpt><trkpt lat="44.705007" lon="9.387072"><ele>424.4</ele><time>2026-04-29T08:49:43.816Z</time></trkpt><trkpt lat="44.7049176" lon="9.387139"><ele>424.6</ele><time>2026-04-29T08:49:44.816Z</time></trkpt><trkpt lat="44.7048098" lon="9.3871762"><ele>424.8</ele><time>2026-04-29T08:49:45.815Z</time></trkpt><trkpt lat="44.7046838" lon="9.387204"><ele>425.0</ele><time>2026-04-29T08:49:46.817Z</time></trkpt><trkpt lat="44.7045387" lon="9.3872314"><ele>426.0</ele><time>2026-04-29T08:49:47.817Z</time></trkpt><trkpt lat="44.7043948" lon="9.3872305"><ele>427.0</ele><time>2026-04-29T08:49:48.817Z</time></trkpt><trkpt lat="44.704252" lon="9.3871987"><ele>428.0</ele><time>2026-04-29T08:49:49.817Z</time></trkpt><trkpt lat="44.7041242" lon="9.3871565"><ele>429.0</ele><time>2026-04-29T08:49:50.816Z</time></trkpt><trkpt lat="44.7040228" lon="9.3871278"><ele>429.0</ele><time>2026-04-29T08:49:51.815Z</time></trkpt><trkpt lat="44.7039497" lon="9.3871226"><ele>429.0</ele><time>2026-04-29T08:49:52.818Z</time></trkpt><trkpt lat="44.7038575" lon="9.3872503"><ele>429.0</ele><time>2026-04-29T08:49:54.816Z</time></trkpt><trkpt lat="44.7038197" lon="9.3873788"><ele>429.0</ele><time>2026-04-29T08:49:55.815Z</time></trkpt><trkpt lat="44.7037733" lon="9.3875507"><ele>429.0</ele><time>2026-04-29T08:49:56.815Z</time></trkpt><trkpt lat="44.7037158" lon="9.3877506"><ele>430.0</ele><time>2026-04-29T08:49:57.816Z</time></trkpt><trkpt lat="44.7036464" lon="9.3879622"><ele>431.0</ele><time>2026-04-29T08:49:58.816Z</time></trkpt><trkpt lat="44.7035692" lon="9.3881971"><ele>432.0</ele><time>2026-04-29T08:49:59.817Z</time></trkpt><trkpt lat="44.703493" lon="9.3884081"><ele>434.33333333333337</ele><time>2026-04-29T08:50:00.817Z</time></trkpt><trkpt lat="44.7034102" lon="9.3886095"><ele>436.6666666666667</ele><time>2026-04-29T08:50:01.815Z</time></trkpt><trkpt lat="44.7033181" lon="9.3887977"><ele>439.0</ele><time>2026-04-29T08:50:02.815Z</time></trkpt><trkpt lat="44.7032266" lon="9.3889476"><ele>440.50000000000006</ele><time>2026-04-29T08:50:03.816Z</time></trkpt><trkpt lat="44.7031539" lon="9.3890625"><ele>442.0</ele><time>2026-04-29T08:50:04.816Z</time></trkpt><trkpt lat="44.7031211" lon="9.3891688"><ele>443.5</ele><time>2026-04-29T08:50:05.815Z</time></trkpt><trkpt lat="44.7031344" lon="9.3892634"><ele>445.0</ele><time>2026-04-29T08:50:06.818Z</time></trkpt><trkpt lat="44.7031847" lon="9.3893284"><ele>446.50000000000006</ele><time>2026-04-29T08:50:07.817Z</time></trkpt><trkpt lat="44.7032617" lon="9.3893622"><ele>448.0</ele><time>2026-04-29T08:50:08.815Z</time></trkpt><trkpt lat="44.7033674" lon="9.3893856"><ele>448.0</ele><time>2026-04-29T08:50:09.815Z</time></trkpt><trkpt lat="44.7034839" lon="9.3894382"><ele>448.0</ele><time>2026-04-29T08:50:10.815Z</time></trkpt><trkpt lat="44.7036142" lon="9.3895183"><ele>448.0</ele><time>2026-04-29T08:50:11.816Z</time></trkpt><trkpt lat="44.7037547" lon="9.3896258"><ele>448.0</ele><time>2026-04-29T08:50:12.817Z</time></trkpt><trkpt lat="44.7038818" lon="9.389713"><ele>447.75</ele><time>2026-04-29T08:50:13.816Z</time></trkpt><trkpt lat="44.7040031" lon="9.3897339"><ele>447.5</ele><time>2026-04-29T08:50:14.816Z</time></trkpt><trkpt lat="44.7041403" lon="9.3897104"><ele>447.25</ele><time>2026-04-29T08:50:15.815Z</time></trkpt><trkpt lat="44.7042881" lon="9.3896695"><ele>447.0</ele><time>2026-04-29T08:50:16.815Z</time></trkpt><trkpt lat="44.7044308" lon="9.3896562"><ele>453.0</ele><time>2026-04-29T08:50:17.815Z</time></trkpt><trkpt lat="44.7045617" lon="9.3896883"><ele>459.0</ele><time>2026-04-29T08:50:18.816Z</time></trkpt><trkpt lat="44.7046993" lon="9.3897609"><ele>465.0</ele><time>2026-04-29T08:50:19.818Z</time></trkpt><trkpt lat="44.7048474" lon="9.3898566"><ele>471.0</ele><time>2026-04-29T08:50:20.816Z</time></trkpt><trkpt lat="44.7050025" lon="9.3899582"><ele>471.0</ele><time>2026-04-29T08:50:21.815Z</time></trkpt><trkpt lat="44.7051399" lon="9.3900473"><ele>471.0</ele><time>2026-04-29T08:50:22.816Z</time></trkpt><trkpt lat="44.705265" lon="9.3901058"><ele>471.0</ele><time>2026-04-29T08:50:23.815Z</time></trkpt><trkpt lat="44.7053896" lon="9.3901147"><ele>471.0</ele><time>2026-04-29T08:50:24.817Z</time></trkpt><trkpt lat="44.7055091" lon="9.3900611"><ele>473.0</ele><time>2026-04-29T08:50:25.816Z</time></trkpt><trkpt lat="44.7056188" lon="9.3899572"><ele>475.0</ele><time>2026-04-29T08:50:26.815Z</time></trkpt><trkpt lat="44.705725" lon="9.3898134"><ele>477.0</ele><time>2026-04-29T08:50:27.815Z</time></trkpt><trkpt lat="44.7058417" lon="9.3896376"><ele>474.5</ele><time>2026-04-29T08:50:28.815Z</time></trkpt><trkpt lat="44.7059513" lon="9.3894849"><ele>472.0</ele><time>2026-04-29T08:50:29.816Z</time></trkpt><trkpt lat="44.7060529" lon="9.3893706"><ele>469.5</ele><time>2026-04-29T08:50:30.815Z</time></trkpt><trkpt lat="44.7061547" lon="9.3893181"><ele>467.0</ele><time>2026-04-29T08:50:31.819Z</time></trkpt><trkpt lat="44.7062527" lon="9.3893242"><ele>467.0</ele><time>2026-04-29T08:50:32.816Z</time></trkpt><trkpt lat="44.7063494" lon="9.3893875"><ele>467.0</ele><time>2026-04-29T08:50:33.817Z</time></trkpt><trkpt lat="44.7064528" lon="9.3894958"><ele>467.0</ele><time>2026-04-29T08:50:34.817Z</time></trkpt><trkpt lat="44.7065751" lon="9.3896422"><ele>467.0</ele><time>2026-04-29T08:50:35.816Z</time></trkpt><trkpt lat="44.7067089" lon="9.3898095"><ele>469.66666666666663</ele><time>2026-04-29T08:50:36.815Z</time></trkpt><trkpt lat="44.7068377" lon="9.3900051"><ele>472.33333333333337</ele><time>2026-04-29T08:50:37.817Z</time></trkpt><trkpt lat="44.7069511" lon="9.3901871"><ele>475.0</ele><time>2026-04-29T08:50:38.816Z</time></trkpt><trkpt lat="44.7070439" lon="9.3903405"><ele>475.0</ele><time>2026-04-29T08:50:39.817Z</time></trkpt><trkpt lat="44.7071144" lon="9.3904746"><ele>475.0</ele><time>2026-04-29T08:50:40.815Z</time></trkpt><trkpt lat="44.7071476" lon="9.3906112"><ele>475.0</ele><time>2026-04-29T08:50:41.816Z</time></trkpt><trkpt lat="44.7071441" lon="9.390747"><ele>475.0</ele><time>2026-04-29T08:50:42.815Z</time></trkpt><trkpt lat="44.7071011" lon="9.3908721"><ele>475.0</ele><time>2026-04-29T08:50:43.817Z</time></trkpt><trkpt lat="44.7070277" lon="9.3910123"><ele>474.0</ele><time>2026-04-29T08:50:44.816Z</time></trkpt><trkpt lat="44.7069293" lon="9.3911682"><ele>473.0</ele><time>2026-04-29T08:50:45.815Z</time></trkpt><trkpt lat="44.7068082" lon="9.391327"><ele>472.0</ele><time>2026-04-29T08:50:46.816Z</time></trkpt><trkpt lat="44.7066607" lon="9.3914822"><ele>476.0</ele><time>2026-04-29T08:50:47.817Z</time></trkpt><trkpt lat="44.7064869" lon="9.3916289"><ele>480.0</ele><time>2026-04-29T08:50:48.815Z</time></trkpt><trkpt lat="44.7062915" lon="9.3917857"><ele>484.0</ele><time>2026-04-29T08:50:49.815Z</time></trkpt><trkpt lat="44.7061144" lon="9.3919259"><ele>489.33333333333337</ele><time>2026-04-29T08:50:50.815Z</time></trkpt><trkpt lat="44.705959" lon="9.3920531"><ele>494.66666666666663</ele><time>2026-04-29T08:50:51.817Z</time></trkpt><trkpt lat="44.7058458" lon="9.3921738"><ele>500.0</ele><time>2026-04-29T08:50:52.817Z</time></trkpt><trkpt lat="44.7057531" lon="9.3923174"><ele>500.0</ele><time>2026-04-29T08:50:53.816Z</time></trkpt><trkpt lat="44.705682" lon="9.392493"><ele>500.0</ele><time>2026-04-29T08:50:54.817Z</time></trkpt><trkpt lat="44.7056121" lon="9.39269"><ele>500.0</ele><time>2026-04-29T08:50:55.816Z</time></trkpt><trkpt lat="44.7055313" lon="9.3928761"><ele>498.4</ele><time>2026-04-29T08:50:56.817Z</time></trkpt><trkpt lat="44.7054484" lon="9.3930318"><ele>496.8</ele><time>2026-04-29T08:50:57.816Z</time></trkpt><trkpt lat="44.7053769" lon="9.3931606"><ele>495.20000000000005</ele><time>2026-04-29T08:50:58.816Z</time></trkpt><trkpt lat="44.7053141" lon="9.393269"><ele>493.6</ele><time>2026-04-29T08:50:59.817Z</time></trkpt><trkpt lat="44.7052567" lon="9.3933743"><ele>492.0</ele><time>2026-04-29T08:51:00.815Z</time></trkpt><trkpt lat="44.7051986" lon="9.3934904"><ele>496.25</ele><time>2026-04-29T08:51:01.814Z</time></trkpt><trkpt lat="44.7051297" lon="9.3936257"><ele>500.5</ele><time>2026-04-29T08:51:02.815Z</time></trkpt><trkpt lat="44.7050435" lon="9.3937913"><ele>504.75</ele><time>2026-04-29T08:51:03.817Z</time></trkpt><trkpt lat="44.704953" lon="9.3939586"><ele>509.0</ele><time>2026-04-29T08:51:04.819Z</time></trkpt><trkpt lat="44.704857" lon="9.3940859"><ele>509.0</ele><time>2026-04-29T08:51:05.817Z</time></trkpt><trkpt lat="44.7047441" lon="9.3941782"><ele>509.0</ele><time>2026-04-29T08:51:06.817Z</time></trkpt><trkpt lat="44.7046146" lon="9.3942351"><ele>509.0</ele><time>2026-04-29T08:51:07.816Z</time></trkpt><trkpt lat="44.7044571" lon="9.3942678"><ele>509.0</ele><time>2026-04-29T08:51:08.816Z</time></trkpt><trkpt lat="44.7042902" lon="9.3943251"><ele>517.0</ele><time>2026-04-29T08:51:09.816Z</time></trkpt><trkpt lat="44.7041212" lon="9.3944094"><ele>525.0</ele><time>2026-04-29T08:51:10.816Z</time></trkpt><trkpt lat="44.7039506" lon="9.3944996"><ele>533.0</ele><time>2026-04-29T08:51:11.815Z</time></trkpt><trkpt lat="44.7037669" lon="9.3945699"><ele>532.6666666666666</ele><time>2026-04-29T08:51:12.815Z</time></trkpt><trkpt lat="44.7035723" lon="9.3946327"><ele>532.3333333333334</ele><time>2026-04-29T08:51:13.814Z</time></trkpt><trkpt lat="44.7034034" lon="9.3946898"><ele>532.0</ele><time>2026-04-29T08:51:14.815Z</time></trkpt><trkpt lat="44.7032546" lon="9.3947723"><ele>532.0</ele><time>2026-04-29T08:51:15.815Z</time></trkpt><trkpt lat="44.7031257" lon="9.3949002"><ele>532.0</ele><time>2026-04-29T08:51:16.815Z</time></trkpt><trkpt lat="44.7030064" lon="9.3950451"><ele>532.0</ele><time>2026-04-29T08:51:17.817Z</time></trkpt><trkpt lat="44.7028707" lon="9.3951605"><ele>540.0</ele><time>2026-04-29T08:51:18.817Z</time></trkpt><trkpt lat="44.7027109" lon="9.3952444"><ele>548.0</ele><time>2026-04-29T08:51:19.816Z</time></trkpt><trkpt lat="44.7025338" lon="9.3953192"><ele>556.0</ele><time>2026-04-29T08:51:20.816Z</time></trkpt><trkpt lat="44.7023323" lon="9.395391"><ele>556.0</ele><time>2026-04-29T08:51:21.816Z</time></trkpt><trkpt lat="44.7021416" lon="9.3954692"><ele>556.0</ele><time>2026-04-29T08:51:22.814Z</time></trkpt><trkpt lat="44.7019785" lon="9.3955487"><ele>556.0</ele><time>2026-04-29T08:51:23.817Z</time></trkpt><trkpt lat="44.7018321" lon="9.3956531"><ele>555.0</ele><time>2026-04-29T08:51:24.819Z</time></trkpt><trkpt lat="44.7017" lon="9.395809"><ele>554.0</ele><time>2026-04-29T08:51:25.816Z</time></trkpt><trkpt lat="44.7015803" lon="9.3959957"><ele>553.0</ele><time>2026-04-29T08:51:26.817Z</time></trkpt><trkpt lat="44.7014622" lon="9.3961797"><ele>555.3333333333334</ele><time>2026-04-29T08:51:27.815Z</time></trkpt><trkpt lat="44.7013257" lon="9.3963375"><ele>557.6666666666666</ele><time>2026-04-29T08:51:28.816Z</time></trkpt><trkpt lat="44.701166" lon="9.3964839"><ele>560.0</ele><time>2026-04-29T08:51:29.817Z</time></trkpt><trkpt lat="44.70099" lon="9.3966216"><ele>560.0</ele><time>2026-04-29T08:51:30.815Z</time></trkpt><trkpt lat="44.7008271" lon="9.3967413"><ele>560.0</ele><time>2026-04-29T08:51:31.817Z</time></trkpt><trkpt lat="44.7006842" lon="9.3968485"><ele>560.0</ele><time>2026-04-29T08:51:32.815Z</time></trkpt><trkpt lat="44.7005622" lon="9.396923"><ele>560.0</ele><time>2026-04-29T08:51:33.815Z</time></trkpt><trkpt lat="44.7004588" lon="9.3969448"><ele>560.0</ele><time>2026-04-29T08:51:34.816Z</time></trkpt><trkpt lat="44.7003786" lon="9.3969085"><ele>560.0</ele><time>2026-04-29T08:51:35.818Z</time></trkpt><trkpt lat="44.7003224" lon="9.3968193"><ele>560.0</ele><time>2026-04-29T08:51:36.816Z</time></trkpt><trkpt lat="44.7003002" lon="9.3967003"><ele>560.0</ele><time>2026-04-29T08:51:37.816Z</time></trkpt><trkpt lat="44.7003286" lon="9.3965794"><ele>560.0</ele><time>2026-04-29T08:51:38.815Z</time></trkpt><trkpt lat="44.7003982" lon="9.3964786"><ele>560.0</ele><time>2026-04-29T08:51:39.815Z</time></trkpt><trkpt lat="44.700501" lon="9.3964068"><ele>560.0</ele><time>2026-04-29T08:51:40.817Z</time></trkpt><trkpt lat="44.7006333" lon="9.3963414"><ele>560.0</ele><time>2026-04-29T08:51:41.818Z</time></trkpt><trkpt lat="44.7007586" lon="9.3962695"><ele>557.6666666666666</ele><time>2026-04-29T08:51:42.815Z</time></trkpt><trkpt lat="44.7008768" lon="9.3961744"><ele>555.3333333333334</ele><time>2026-04-29T08:51:43.815Z</time></trkpt><trkpt lat="44.7009948" lon="9.3960329"><ele>553.0</ele><time>2026-04-29T08:51:44.816Z</time></trkpt><trkpt lat="44.7011131" lon="9.3958527"><ele>553.0</ele><time>2026-04-29T08:51:45.816Z</time></trkpt><trkpt lat="44.7012366" lon="9.3956471"><ele>553.0</ele><time>2026-04-29T08:51:46.817Z</time></trkpt><trkpt lat="44.7013655" lon="9.3954378"><ele>553.0</ele><time>2026-04-29T08:51:47.814Z</time></trkpt><trkpt lat="44.7014841" lon="9.3952565"><ele>560.6666666666667</ele><time>2026-04-29T08:51:48.816Z</time></trkpt><trkpt lat="44.7016038" lon="9.395101"><ele>568.3333333333334</ele><time>2026-04-29T08:51:49.817Z</time></trkpt><trkpt lat="44.7017291" lon="9.3949687"><ele>576.0</ele><time>2026-04-29T08:51:50.816Z</time></trkpt><trkpt lat="44.7018702" lon="9.3948608"><ele>576.0</ele><time>2026-04-29T08:51:51.815Z</time></trkpt><trkpt lat="44.7020201" lon="9.3947262"><ele>576.0</ele><time>2026-04-29T08:51:52.815Z</time></trkpt><trkpt lat="44.7021594" lon="9.394588"><ele>576.0</ele><time>2026-04-29T08:51:53.816Z</time></trkpt><trkpt lat="44.7022716" lon="9.3944812"><ele>576.0</ele><time>2026-04-29T08:51:54.817Z</time></trkpt><trkpt lat="44.7023519" lon="9.3943658"><ele>576.0</ele><time>2026-04-29T08:51:55.817Z</time></trkpt><trkpt lat="44.7023938" lon="9.3942338"><ele>576.0</ele><time>2026-04-29T08:51:56.817Z</time></trkpt><trkpt lat="44.7023927" lon="9.3940979"><ele>576.0</ele><time>2026-04-29T08:51:57.816Z</time></trkpt><trkpt lat="44.7023539" lon="9.3939987"><ele>576.0</ele><time>2026-04-29T08:51:58.815Z</time></trkpt><trkpt lat="44.702279" lon="9.3939446"><ele>576.0</ele><time>2026-04-29T08:51:59.817Z</time></trkpt><trkpt lat="44.7021735" lon="9.3939333"><ele>576.0</ele><time>2026-04-29T08:52:00.816Z</time></trkpt><trkpt lat="44.702044" lon="9.3939711"><ele>576.0</ele><time>2026-04-29T08:52:01.816Z</time></trkpt><trkpt lat="44.7019046" lon="9.3940603"><ele>576.0</ele><time>2026-04-29T08:52:02.816Z</time></trkpt><trkpt lat="44.7017579" lon="9.3941978"><ele>578.3333333333334</ele><time>2026-04-29T08:52:03.816Z</time></trkpt><trkpt lat="44.7016108" lon="9.3943448"><ele>580.6666666666667</ele><time>2026-04-29T08:52:04.815Z</time></trkpt><trkpt lat="44.7014653" lon="9.3944405"><ele>583.0</ele><time>2026-04-29T08:52:05.815Z</time></trkpt><trkpt lat="44.7013051" lon="9.3944888"><ele>583.0</ele><time>2026-04-29T08:52:06.817Z</time></trkpt><trkpt lat="44.7011336" lon="9.3945347"><ele>583.0</ele><time>2026-04-29T08:52:07.818Z</time></trkpt><trkpt lat="44.7009523" lon="9.3946279"><ele>583.0</ele><time>2026-04-29T08:52:08.818Z</time></trkpt><trkpt lat="44.7007547" lon="9.3947434"><ele>587.3333333333334</ele><time>2026-04-29T08:52:09.818Z</time></trkpt><trkpt lat="44.7005812" lon="9.3948456"><ele>591.6666666666666</ele><time>2026-04-29T08:52:10.815Z</time></trkpt><trkpt lat="44.7004308" lon="9.3949129"><ele>596.0</ele><time>2026-04-29T08:52:11.815Z</time></trkpt><trkpt lat="44.7002986" lon="9.394918"><ele>597.5</ele><time>2026-04-29T08:52:12.815Z</time></trkpt><trkpt lat="44.7001698" lon="9.3948671"><ele>599.0</ele><time>2026-04-29T08:52:13.815Z</time></trkpt><trkpt lat="44.7000591" lon="9.394752"><ele>600.5</ele><time>2026-04-29T08:52:14.819Z</time></trkpt><trkpt lat="44.6999561" lon="9.3945835"><ele>602.0</ele><time>2026-04-29T08:52:15.817Z</time></trkpt><trkpt lat="44.6998479" lon="9.3943736"><ele>602.0</ele><time>2026-04-29T08:52:16.816Z</time></trkpt><trkpt lat="44.699736" lon="9.3941364"><ele>602.0</ele><time>2026-04-29T08:52:17.815Z</time></trkpt><trkpt lat="44.699623" lon="9.3938856"><ele>602.0</ele><time>2026-04-29T08:52:18.816Z</time></trkpt><trkpt lat="44.6995139" lon="9.3936637"><ele>610.6666666666666</ele><time>2026-04-29T08:52:19.815Z</time></trkpt><trkpt lat="44.6993941" lon="9.3934925"><ele>619.3333333333334</ele><time>2026-04-29T08:52:20.817Z</time></trkpt><trkpt lat="44.6992826" lon="9.3933349"><ele>628.0</ele><time>2026-04-29T08:52:21.817Z</time></trkpt><trkpt lat="44.6992113" lon="9.3931841"><ele>628.0</ele><time>2026-04-29T08:52:22.815Z</time></trkpt><trkpt lat="44.6991714" lon="9.393035"><ele>628.0</ele><time>2026-04-29T08:52:23.816Z</time></trkpt><trkpt lat="44.6991756" lon="9.3928867"><ele>628.0</ele><time>2026-04-29T08:52:24.816Z</time></trkpt><trkpt lat="44.6992138" lon="9.3927332"><ele>628.0</ele><time>2026-04-29T08:52:25.816Z</time></trkpt><trkpt lat="44.6992817" lon="9.3925615"><ele>627.25</ele><time>2026-04-29T08:52:26.817Z</time></trkpt><trkpt lat="44.6993599" lon="9.3923625"><ele>626.5</ele><time>2026-04-29T08:52:27.817Z</time></trkpt><trkpt lat="44.6994258" lon="9.3921928"><ele>625.75</ele><time>2026-04-29T08:52:28.815Z</time></trkpt><trkpt lat="44.699461" lon="9.3920384"><ele>625.0</ele><time>2026-04-29T08:52:29.817Z</time></trkpt><trkpt lat="44.699452" lon="9.3918878"><ele>622.75</ele><time>2026-04-29T08:52:30.816Z</time></trkpt><trkpt lat="44.6993998" lon="9.3917516"><ele>620.5</ele><time>2026-04-29T08:52:31.816Z</time></trkpt><trkpt lat="44.6993109" lon="9.3916515"><ele>618.25</ele><time>2026-04-29T08:52:32.816Z</time></trkpt><trkpt lat="44.6991993" lon="9.3916058"><ele>616.0</ele><time>2026-04-29T08:52:33.817Z</time></trkpt><trkpt lat="44.6990824" lon="9.3916265"><ele>616.0</ele><time>2026-04-29T08:52:34.818Z</time></trkpt><trkpt lat="44.6989838" lon="9.3916944"><ele>616.0</ele><time>2026-04-29T08:52:35.816Z</time></trkpt><trkpt lat="44.698916" lon="9.3918274"><ele>616.0</ele><time>2026-04-29T08:52:36.816Z</time></trkpt><trkpt lat="44.6988659" lon="9.3920077"><ele>616.0</ele><time>2026-04-29T08:52:37.816Z</time></trkpt><trkpt lat="44.6988105" lon="9.3922045"><ele>618.25</ele><time>2026-04-29T08:52:38.816Z</time></trkpt><trkpt lat="44.6987428" lon="9.3923455"><ele>620.5</ele><time>2026-04-29T08:52:39.817Z</time></trkpt><trkpt lat="44.6986528" lon="9.3924539"><ele>622.75</ele><time>2026-04-29T08:52:40.816Z</time></trkpt><trkpt lat="44.6985378" lon="9.3925277"><ele>625.0</ele><time>2026-04-29T08:52:41.817Z</time></trkpt><trkpt lat="44.6983969" lon="9.3925727"><ele>629.6666666666667</ele><time>2026-04-29T08:52:42.815Z</time></trkpt><trkpt lat="44.69824" lon="9.3925982"><ele>634.3333333333334</ele><time>2026-04-29T08:52:43.816Z</time></trkpt><trkpt lat="44.6980776" lon="9.3925913"><ele>639.0</ele><time>2026-04-29T08:52:44.816Z</time></trkpt><trkpt lat="44.6979276" lon="9.3925796"><ele>639.0</ele><time>2026-04-29T08:52:45.816Z</time></trkpt><trkpt lat="44.697782" lon="9.3926039"><ele>639.0</ele><time>2026-04-29T08:52:46.816Z</time></trkpt><trkpt lat="44.6976459" lon="9.3926626"><ele>639.0</ele><time>2026-04-29T08:52:47.817Z</time></trkpt><trkpt lat="44.6975164" lon="9.3927187"><ele>639.0</ele><time>2026-04-29T08:52:48.816Z</time></trkpt><trkpt lat="44.6973986" lon="9.3927393"><ele>640.25</ele><time>2026-04-29T08:52:49.815Z</time></trkpt><trkpt lat="44.6972866" lon="9.3927295"><ele>641.5</ele><time>2026-04-29T08:52:50.816Z</time></trkpt><trkpt lat="44.6971683" lon="9.392683"><ele>642.75</ele><time>2026-04-29T08:52:51.816Z</time></trkpt><trkpt lat="44.6970342" lon="9.3926135"><ele>644.0</ele><time>2026-04-29T08:52:52.814Z</time></trkpt><trkpt lat="44.6968979" lon="9.3925729"><ele>645.75</ele><time>2026-04-29T08:52:53.815Z</time></trkpt><trkpt lat="44.6967498" lon="9.3925691"><ele>647.5</ele><time>2026-04-29T08:52:54.817Z</time></trkpt><trkpt lat="44.6966193" lon="9.392566"><ele>649.25</ele><time>2026-04-29T08:52:55.817Z</time></trkpt><trkpt lat="44.6965147" lon="9.3925295"><ele>651.0</ele><time>2026-04-29T08:52:56.817Z</time></trkpt><trkpt lat="44.696422" lon="9.3924432"><ele>651.0</ele><time>2026-04-29T08:52:57.817Z</time></trkpt><trkpt lat="44.6963544" lon="9.392314"><ele>651.0</ele><time>2026-04-29T08:52:58.816Z</time></trkpt><trkpt lat="44.6963085" lon="9.3921461"><ele>651.0</ele><time>2026-04-29T08:52:59.817Z</time></trkpt><trkpt lat="44.6962679" lon="9.3919481"><ele>651.0</ele><time>2026-04-29T08:53:00.816Z</time></trkpt><trkpt lat="44.69622" lon="9.3917363"><ele>650.25</ele><time>2026-04-29T08:53:01.816Z</time></trkpt><trkpt lat="44.6961841" lon="9.391557"><ele>649.5</ele><time>2026-04-29T08:53:02.815Z</time></trkpt><trkpt lat="44.6961644" lon="9.391388"><ele>648.75</ele><time>2026-04-29T08:53:03.815Z</time></trkpt><trkpt lat="44.6961766" lon="9.3912207"><ele>648.0</ele><time>2026-04-29T08:53:04.816Z</time></trkpt><trkpt lat="44.6962223" lon="9.3910593"><ele>647.75</ele><time>2026-04-29T08:53:05.816Z</time></trkpt><trkpt lat="44.6962961" lon="9.3909107"><ele>647.5</ele><time>2026-04-29T08:53:06.818Z</time></trkpt><trkpt lat="44.6963594" lon="9.3907734"><ele>647.25</ele><time>2026-04-29T08:53:07.817Z</time></trkpt><trkpt lat="44.6963919" lon="9.3906332"><ele>647.0</ele><time>2026-04-29T08:53:08.817Z</time></trkpt><trkpt lat="44.6963867" lon="9.3904853"><ele>647.0</ele><time>2026-04-29T08:53:09.816Z</time></trkpt><trkpt lat="44.6963445" lon="9.3903534"><ele>647.0</ele><time>2026-04-29T08:53:10.815Z</time></trkpt><trkpt lat="44.6962771" lon="9.3902538"><ele>647.0</ele><time>2026-04-29T08:53:11.819Z</time></trkpt><trkpt lat="44.6961889" lon="9.3901918"><ele>647.0</ele><time>2026-04-29T08:53:12.819Z</time></trkpt><trkpt lat="44.6960996" lon="9.3901874"><ele>647.0</ele><time>2026-04-29T08:53:13.818Z</time></trkpt><trkpt lat="44.6960075" lon="9.3902425"><ele>650.25</ele><time>2026-04-29T08:53:14.817Z</time></trkpt><trkpt lat="44.6959056" lon="9.3903531"><ele>653.5</ele><time>2026-04-29T08:53:15.816Z</time></trkpt><trkpt lat="44.6957949" lon="9.3904967"><ele>656.75</ele><time>2026-04-29T08:53:16.816Z</time></trkpt><trkpt lat="44.695679" lon="9.3906577"><ele>660.0</ele><time>2026-04-29T08:53:17.817Z</time></trkpt><trkpt lat="44.6955693" lon="9.3908063"><ele>662.3333333333334</ele><time>2026-04-29T08:53:18.816Z</time></trkpt><trkpt lat="44.6954442" lon="9.3909664"><ele>664.6666666666667</ele><time>2026-04-29T08:53:19.815Z</time></trkpt><trkpt lat="44.6953264" lon="9.3911252"><ele>667.0</ele><time>2026-04-29T08:53:20.816Z</time></trkpt><trkpt lat="44.6952127" lon="9.3912834"><ele>669.0</ele><time>2026-04-29T08:53:21.817Z</time></trkpt><trkpt lat="44.6951037" lon="9.3914413"><ele>671.0</ele><time>2026-04-29T08:53:22.816Z</time></trkpt><trkpt lat="44.6950139" lon="9.3915944"><ele>673.0</ele><time>2026-04-29T08:53:23.815Z</time></trkpt><trkpt lat="44.694941" lon="9.391769"><ele>675.0</ele><time>2026-04-29T08:53:24.818Z</time></trkpt><trkpt lat="44.6948793" lon="9.3919815"><ele>676.5</ele><time>2026-04-29T08:53:25.816Z</time></trkpt><trkpt lat="44.6948263" lon="9.3921879"><ele>678.0</ele><time>2026-04-29T08:53:26.817Z</time></trkpt><trkpt lat="44.6947721" lon="9.3923662"><ele>679.5</ele><time>2026-04-29T08:53:27.816Z</time></trkpt><trkpt lat="44.6946964" lon="9.3925152"><ele>681.0</ele><time>2026-04-29T08:53:28.816Z</time></trkpt><trkpt lat="44.694595" lon="9.3926424"><ele>681.0</ele><time>2026-04-29T08:53:29.817Z</time></trkpt><trkpt lat="44.6944721" lon="9.3927312"><ele>681.0</ele><time>2026-04-29T08:53:30.816Z</time></trkpt><trkpt lat="44.6943324" lon="9.3927754"><ele>681.0</ele><time>2026-04-29T08:53:31.816Z</time></trkpt><trkpt lat="44.6942019" lon="9.3927857"><ele>681.0</ele><time>2026-04-29T08:53:32.816Z</time></trkpt><trkpt lat="44.6940901" lon="9.3927577"><ele>680.8</ele><time>2026-04-29T08:53:33.817Z</time></trkpt><trkpt lat="44.6939746" lon="9.3926962"><ele>680.5999999999999</ele><time>2026-04-29T08:53:34.817Z</time></trkpt><trkpt lat="44.6938597" lon="9.3926324"><ele>680.4</ele><time>2026-04-29T08:53:35.816Z</time></trkpt><trkpt lat="44.6937545" lon="9.3926138"><ele>680.2</ele><time>2026-04-29T08:53:36.816Z</time></trkpt><trkpt lat="44.6936658" lon="9.3926279"><ele>680.0</ele><time>2026-04-29T08:53:37.815Z</time></trkpt><trkpt lat="44.693583" lon="9.3926631"><ele>681.0</ele><time>2026-04-29T08:53:38.817Z</time></trkpt><trkpt lat="44.6934802" lon="9.3927277"><ele>682.0</ele><time>2026-04-29T08:53:39.817Z</time></trkpt><trkpt lat="44.6933717" lon="9.392781"><ele>683.0</ele><time>2026-04-29T08:53:40.816Z</time></trkpt><trkpt lat="44.6932597" lon="9.3928036"><ele>684.0</ele><time>2026-04-29T08:53:41.817Z</time></trkpt><trkpt lat="44.6931515" lon="9.3927848"><ele>684.0</ele><time>2026-04-29T08:53:42.816Z</time></trkpt><trkpt lat="44.6930403" lon="9.3927385"><ele>684.0</ele><time>2026-04-29T08:53:43.814Z</time></trkpt><trkpt lat="44.6929452" lon="9.3926815"><ele>684.0</ele><time>2026-04-29T08:53:44.817Z</time></trkpt><trkpt lat="44.692856" lon="9.3926183"><ele>684.0</ele><time>2026-04-29T08:53:45.816Z</time></trkpt><trkpt lat="44.6927625" lon="9.3925837"><ele>684.0</ele><time>2026-04-29T08:53:46.816Z</time></trkpt><trkpt lat="44.6926586" lon="9.3925866"><ele>685.75</ele><time>2026-04-29T08:53:47.816Z</time></trkpt><trkpt lat="44.6925499" lon="9.3926151"><ele>687.5</ele><time>2026-04-29T08:53:48.816Z</time></trkpt><trkpt lat="44.6924369" lon="9.3926566"><ele>689.25</ele><time>2026-04-29T08:53:49.817Z</time></trkpt><trkpt lat="44.692326" lon="9.3926957"><ele>691.0</ele><time>2026-04-29T08:53:50.817Z</time></trkpt><trkpt lat="44.692218" lon="9.3927228"><ele>691.0</ele><time>2026-04-29T08:53:51.816Z</time></trkpt><trkpt lat="44.692103" lon="9.3927369"><ele>691.0</ele><time>2026-04-29T08:53:52.816Z</time></trkpt><trkpt lat="44.6919845" lon="9.3927279"><ele>691.0</ele><time>2026-04-29T08:53:53.815Z</time></trkpt><trkpt lat="44.6918665" lon="9.3926894"><ele>691.0</ele><time>2026-04-29T08:53:54.817Z</time></trkpt><trkpt lat="44.6917505" lon="9.3926193"><ele>693.0</ele><time>2026-04-29T08:53:55.817Z</time></trkpt><trkpt lat="44.6916331" lon="9.3925394"><ele>695.0</ele><time>2026-04-29T08:53:56.817Z</time></trkpt><trkpt lat="44.6915352" lon="9.3924727"><ele>697.0</ele><time>2026-04-29T08:53:57.816Z</time></trkpt><trkpt lat="44.6914413" lon="9.3923872"><ele>699.0</ele><time>2026-04-29T08:53:58.818Z</time></trkpt><trkpt lat="44.6913451" lon="9.3922738"><ele>701.6666666666666</ele><time>2026-04-29T08:53:59.817Z</time></trkpt><trkpt lat="44.6912357" lon="9.3921358"><ele>704.3333333333333</ele><time>2026-04-29T08:54:00.815Z</time></trkpt><trkpt lat="44.6911208" lon="9.3919882"><ele>707.0</ele><time>2026-04-29T08:54:01.816Z</time></trkpt><trkpt lat="44.691002" lon="9.391826"><ele>707.0</ele><time>2026-04-29T08:54:02.818Z</time></trkpt><trkpt lat="44.6908928" lon="9.3916761"><ele>707.0</ele><time>2026-04-29T08:54:03.817Z</time></trkpt><trkpt lat="44.6907848" lon="9.3915468"><ele>707.0</ele><time>2026-04-29T08:54:04.815Z</time></trkpt><trkpt lat="44.6906669" lon="9.3914362"><ele>707.0</ele><time>2026-04-29T08:54:05.816Z</time></trkpt><trkpt lat="44.6905377" lon="9.3913676"><ele>708.75</ele><time>2026-04-29T08:54:06.815Z</time></trkpt><trkpt lat="44.6904002" lon="9.3913333"><ele>710.5</ele><time>2026-04-29T08:54:07.817Z</time></trkpt><trkpt lat="44.6902589" lon="9.3913095"><ele>712.25</ele><time>2026-04-29T08:54:08.815Z</time></trkpt><trkpt lat="44.6901378" lon="9.3912542"><ele>714.0</ele><time>2026-04-29T08:54:09.815Z</time></trkpt><trkpt lat="44.6900306" lon="9.3911567"><ele>714.0</ele><time>2026-04-29T08:54:10.817Z</time></trkpt><trkpt lat="44.6899495" lon="9.391015"><ele>714.0</ele><time>2026-04-29T08:54:11.816Z</time></trkpt><trkpt lat="44.6898998" lon="9.3908485"><ele>714.0</ele><time>2026-04-29T08:54:12.815Z</time></trkpt><trkpt lat="44.6898855" lon="9.3906645"><ele>714.0</ele><time>2026-04-29T08:54:13.816Z</time></trkpt><trkpt lat="44.6898988" lon="9.3904726"><ele>713.3333333333334</ele><time>2026-04-29T08:54:14.816Z</time></trkpt><trkpt lat="44.6899082" lon="9.390272"><ele>712.6666666666667</ele><time>2026-04-29T08:54:15.815Z</time></trkpt><trkpt lat="44.6898871" lon="9.3900666"><ele>712.0</ele><time>2026-04-29T08:54:16.817Z</time></trkpt><trkpt lat="44.6898382" lon="9.3898447"><ele>709.6666666666667</ele><time>2026-04-29T08:54:17.816Z</time></trkpt><trkpt lat="44.6897771" lon="9.3896113"><ele>707.3333333333334</ele><time>2026-04-29T08:54:18.816Z</time></trkpt><trkpt lat="44.6897187" lon="9.3894046"><ele>705.0</ele><time>2026-04-29T08:54:19.818Z</time></trkpt><trkpt lat="44.6896629" lon="9.3892211"><ele>705.0</ele><time>2026-04-29T08:54:20.816Z</time></trkpt><trkpt lat="44.6895988" lon="9.3890704"><ele>705.0</ele><time>2026-04-29T08:54:21.815Z</time></trkpt><trkpt lat="44.689517" lon="9.3889547"><ele>705.0</ele><time>2026-04-29T08:54:22.816Z</time></trkpt><trkpt lat="44.689405" lon="9.3888839"><ele>705.0</ele><time>2026-04-29T08:54:23.816Z</time></trkpt><trkpt lat="44.6892675" lon="9.388841"><ele>706.75</ele><time>2026-04-29T08:54:24.816Z</time></trkpt><trkpt lat="44.6891201" lon="9.3888198"><ele>708.5</ele><time>2026-04-29T08:54:25.816Z</time></trkpt><trkpt lat="44.6889696" lon="9.388809"><ele>710.25</ele><time>2026-04-29T08:54:26.816Z</time></trkpt><trkpt lat="44.68882" lon="9.3888067"><ele>712.0</ele><time>2026-04-29T08:54:27.816Z</time></trkpt><trkpt lat="44.6886684" lon="9.3888333"><ele>719.3333333333334</ele><time>2026-04-29T08:54:28.819Z</time></trkpt><trkpt lat="44.6885075" lon="9.3888863"><ele>726.6666666666666</ele><time>2026-04-29T08:54:29.814Z</time></trkpt><trkpt lat="44.6883366" lon="9.3889492"><ele>734.0</ele><time>2026-04-29T08:54:30.816Z</time></trkpt><trkpt lat="44.6881591" lon="9.389018"><ele>734.0</ele><time>2026-04-29T08:54:31.816Z</time></trkpt><trkpt lat="44.6879802" lon="9.389091"><ele>734.0</ele><time>2026-04-29T08:54:32.815Z</time></trkpt><trkpt lat="44.6878135" lon="9.3891596"><ele>734.0</ele><time>2026-04-29T08:54:33.816Z</time></trkpt><trkpt lat="44.6876588" lon="9.3892228"><ele>733.25</ele><time>2026-04-29T08:54:34.815Z</time></trkpt><trkpt lat="44.6875085" lon="9.389284"><ele>732.5</ele><time>2026-04-29T08:54:35.815Z</time></trkpt><trkpt lat="44.6873645" lon="9.3893398"><ele>731.75</ele><time>2026-04-29T08:54:36.816Z</time></trkpt><trkpt lat="44.687236" lon="9.3893702"><ele>731.0</ele><time>2026-04-29T08:54:37.817Z</time></trkpt><trkpt lat="44.6871193" lon="9.3893626"><ele>731.0</ele><time>2026-04-29T08:54:38.817Z</time></trkpt><trkpt lat="44.6870162" lon="9.3893076"><ele>731.0</ele><time>2026-04-29T08:54:39.814Z</time></trkpt><trkpt lat="44.6869147" lon="9.3892218"><ele>731.0</ele><time>2026-04-29T08:54:40.816Z</time></trkpt><trkpt lat="44.6868031" lon="9.389099"><ele>731.0</ele><time>2026-04-29T08:54:41.818Z</time></trkpt><trkpt lat="44.6866759" lon="9.3889583"><ele>730.3333333333333</ele><time>2026-04-29T08:54:42.817Z</time></trkpt><trkpt lat="44.6865336" lon="9.3888035"><ele>729.6666666666666</ele><time>2026-04-29T08:54:43.815Z</time></trkpt><trkpt lat="44.6863775" lon="9.388634"><ele>729.0</ele><time>2026-04-29T08:54:44.815Z</time></trkpt><trkpt lat="44.6862295" lon="9.3884732"><ele>736.6666666666666</ele><time>2026-04-29T08:54:45.817Z</time></trkpt><trkpt lat="44.6860925" lon="9.3883279"><ele>744.3333333333333</ele><time>2026-04-29T08:54:46.815Z</time></trkpt><trkpt lat="44.6859631" lon="9.3882119"><ele>752.0</ele><time>2026-04-29T08:54:47.816Z</time></trkpt><trkpt lat="44.6858268" lon="9.3881248"><ele>752.0</ele><time>2026-04-29T08:54:48.818Z</time></trkpt><trkpt lat="44.6856767" lon="9.388071"><ele>752.0</ele><time>2026-04-29T08:54:49.819Z</time></trkpt><trkpt lat="44.6855154" lon="9.3880512"><ele>752.0</ele><time>2026-04-29T08:54:50.817Z</time></trkpt><trkpt lat="44.6853491" lon="9.3880532"><ele>752.75</ele><time>2026-04-29T08:54:51.815Z</time></trkpt><trkpt lat="44.6851984" lon="9.3880593"><ele>753.5</ele><time>2026-04-29T08:54:52.815Z</time></trkpt><trkpt lat="44.6850567" lon="9.3880802"><ele>754.25</ele><time>2026-04-29T08:54:53.816Z</time></trkpt><trkpt lat="44.6849225" lon="9.3881374"><ele>755.0</ele><time>2026-04-29T08:54:54.816Z</time></trkpt><trkpt lat="44.6848002" lon="9.3882401"><ele>755.0</ele><time>2026-04-29T08:54:55.817Z</time></trkpt><trkpt lat="44.6846829" lon="9.3883698"><ele>755.0</ele><time>2026-04-29T08:54:56.816Z</time></trkpt><trkpt lat="44.6845587" lon="9.3885056"><ele>755.0</ele><time>2026-04-29T08:54:57.816Z</time></trkpt><trkpt lat="44.6844217" lon="9.3886043"><ele>752.6666666666666</ele><time>2026-04-29T08:54:58.816Z</time></trkpt><trkpt lat="44.6842779" lon="9.3886506"><ele>750.3333333333334</ele><time>2026-04-29T08:54:59.815Z</time></trkpt><trkpt lat="44.6841251" lon="9.3886539"><ele>748.0</ele><time>2026-04-29T08:55:00.815Z</time></trkpt><trkpt lat="44.6839694" lon="9.3886329"><ele>748.0</ele><time>2026-04-29T08:55:01.813Z</time></trkpt><trkpt lat="44.6838337" lon="9.388626"><ele>748.0</ele><time>2026-04-29T08:55:02.817Z</time></trkpt><trkpt lat="44.6837005" lon="9.3886587"><ele>748.0</ele><time>2026-04-29T08:55:03.815Z</time></trkpt><trkpt lat="44.6835722" lon="9.3887432"><ele>748.0</ele><time>2026-04-29T08:55:04.815Z</time></trkpt><trkpt lat="44.6834625" lon="9.3888724"><ele>750.5</ele><time>2026-04-29T08:55:05.814Z</time></trkpt><trkpt lat="44.6833817" lon="9.3890324"><ele>753.0</ele><time>2026-04-29T08:55:06.815Z</time></trkpt><trkpt lat="44.6833435" lon="9.3892261"><ele>755.5</ele><time>2026-04-29T08:55:07.816Z</time></trkpt><trkpt lat="44.6833352" lon="9.3894493"><ele>758.0</ele><time>2026-04-29T08:55:08.814Z</time></trkpt><trkpt lat="44.6833407" lon="9.3896908"><ele>761.0</ele><time>2026-04-29T08:55:09.816Z</time></trkpt><trkpt lat="44.6833493" lon="9.3899395"><ele>764.0</ele><time>2026-04-29T08:55:10.816Z</time></trkpt><trkpt lat="44.6833608" lon="9.3901818"><ele>767.0</ele><time>2026-04-29T08:55:11.816Z</time></trkpt><trkpt lat="44.6833634" lon="9.3904032"><ele>769.6666666666666</ele><time>2026-04-29T08:55:12.816Z</time></trkpt><trkpt lat="44.6833381" lon="9.3906169"><ele>772.3333333333333</ele><time>2026-04-29T08:55:13.815Z</time></trkpt><trkpt lat="44.6832742" lon="9.3908187"><ele>775.0</ele><time>2026-04-29T08:55:14.817Z</time></trkpt><trkpt lat="44.6831747" lon="9.3910138"><ele>775.0</ele><time>2026-04-29T08:55:15.814Z</time></trkpt><trkpt lat="44.6830417" lon="9.3912025"><ele>775.0</ele><time>2026-04-29T08:55:16.815Z</time></trkpt><trkpt lat="44.6828887" lon="9.3913936"><ele>775.0</ele><time>2026-04-29T08:55:17.815Z</time></trkpt><trkpt lat="44.6827247" lon="9.3915986"><ele>774.0</ele><time>2026-04-29T08:55:18.816Z</time></trkpt><trkpt lat="44.6825627" lon="9.3918075"><ele>773.0</ele><time>2026-04-29T08:55:19.816Z</time></trkpt><trkpt lat="44.6824062" lon="9.392013"><ele>772.0</ele><time>2026-04-29T08:55:20.815Z</time></trkpt><trkpt lat="44.6822472" lon="9.3922199"><ele>771.0</ele><time>2026-04-29T08:55:21.816Z</time></trkpt><trkpt lat="44.6820906" lon="9.3924216"><ele>770.0</ele><time>2026-04-29T08:55:22.816Z</time></trkpt><trkpt lat="44.6819379" lon="9.3925937"><ele>769.0</ele><time>2026-04-29T08:55:23.815Z</time></trkpt><trkpt lat="44.6817784" lon="9.3927378"><ele>769.0</ele><time>2026-04-29T08:55:24.815Z</time></trkpt><trkpt lat="44.6816112" lon="9.3928615"><ele>769.0</ele><time>2026-04-29T08:55:25.815Z</time></trkpt><trkpt lat="44.6814505" lon="9.3929749"><ele>769.0</ele><time>2026-04-29T08:55:26.814Z</time></trkpt><trkpt lat="44.6813055" lon="9.3930842"><ele>770.0</ele><time>2026-04-29T08:55:27.816Z</time></trkpt><trkpt lat="44.6811742" lon="9.3932047"><ele>771.0</ele><time>2026-04-29T08:55:28.817Z</time></trkpt><trkpt lat="44.6810659" lon="9.3933571"><ele>772.0</ele><time>2026-04-29T08:55:29.815Z</time></trkpt><trkpt lat="44.6809898" lon="9.3935448"><ele>772.0</ele><time>2026-04-29T08:55:30.817Z</time></trkpt><trkpt lat="44.6809433" lon="9.39375"><ele>772.0</ele><time>2026-04-29T08:55:31.818Z</time></trkpt><trkpt lat="44.6809239" lon="9.3939668"><ele>772.0</ele><time>2026-04-29T08:55:32.813Z</time></trkpt><trkpt lat="44.6808982" lon="9.3941864"><ele>777.3333333333333</ele><time>2026-04-29T08:55:33.819Z</time></trkpt><trkpt lat="44.6808307" lon="9.3943888"><ele>782.6666666666667</ele><time>2026-04-29T08:55:34.816Z</time></trkpt><trkpt lat="44.6807292" lon="9.3945792"><ele>788.0</ele><time>2026-04-29T08:55:35.817Z</time></trkpt><trkpt lat="44.6806111" lon="9.3947636"><ele>792.0</ele><time>2026-04-29T08:55:36.815Z</time></trkpt><trkpt lat="44.6805109" lon="9.3949507"><ele>796.0</ele><time>2026-04-29T08:55:37.816Z</time></trkpt><trkpt lat="44.6804244" lon="9.3951832"><ele>800.0</ele><time>2026-04-29T08:55:38.814Z</time></trkpt><trkpt lat="44.6803471" lon="9.3954447"><ele>804.6666666666667</ele><time>2026-04-29T08:55:39.815Z</time></trkpt><trkpt lat="44.6802681" lon="9.395727"><ele>809.3333333333333</ele><time>2026-04-29T08:55:40.816Z</time></trkpt><trkpt lat="44.680194" lon="9.3960062"><ele>814.0</ele><time>2026-04-29T08:55:41.816Z</time></trkpt><trkpt lat="44.6801417" lon="9.3962737"><ele>805.6666666666666</ele><time>2026-04-29T08:55:42.817Z</time></trkpt><trkpt lat="44.6801105" lon="9.3965476"><ele>797.3333333333333</ele><time>2026-04-29T08:55:43.813Z</time></trkpt><trkpt lat="44.6801003" lon="9.3968255"><ele>789.0</ele><time>2026-04-29T08:55:44.814Z</time></trkpt><trkpt lat="44.6801067" lon="9.3971102"><ele>790.3333333333333</ele><time>2026-04-29T08:55:45.814Z</time></trkpt><trkpt lat="44.680114" lon="9.3974031"><ele>791.6666666666666</ele><time>2026-04-29T08:55:46.814Z</time></trkpt><trkpt lat="44.6801133" lon="9.3976752"><ele>793.0</ele><time>2026-04-29T08:55:47.817Z</time></trkpt><trkpt lat="44.6800913" lon="9.3979313"><ele>796.6666666666666</ele><time>2026-04-29T08:55:48.816Z</time></trkpt><trkpt lat="44.6800526" lon="9.3981675"><ele>800.3333333333333</ele><time>2026-04-29T08:55:49.814Z</time></trkpt><trkpt lat="44.6799812" lon="9.3983745"><ele>804.0</ele><time>2026-04-29T08:55:50.814Z</time></trkpt><trkpt lat="44.679884" lon="9.3985738"><ele>804.0</ele><time>2026-04-29T08:55:51.814Z</time></trkpt><trkpt lat="44.6797621" lon="9.3987718"><ele>804.0</ele><time>2026-04-29T08:55:52.814Z</time></trkpt><trkpt lat="44.6796221" lon="9.3989777"><ele>804.0</ele><time>2026-04-29T08:55:53.815Z</time></trkpt><trkpt lat="44.6794807" lon="9.399182"><ele>802.6666666666667</ele><time>2026-04-29T08:55:54.814Z</time></trkpt><trkpt lat="44.6793588" lon="9.3993601"><ele>801.3333333333334</ele><time>2026-04-29T08:55:55.816Z</time></trkpt><trkpt lat="44.6792539" lon="9.3995046"><ele>800.0</ele><time>2026-04-29T08:55:56.816Z</time></trkpt><trkpt lat="44.6791399" lon="9.3995979"><ele>800.0</ele><time>2026-04-29T08:55:57.816Z</time></trkpt><trkpt lat="44.6790129" lon="9.3996363"><ele>800.0</ele><time>2026-04-29T08:55:58.816Z</time></trkpt><trkpt lat="44.6788851" lon="9.3996113"><ele>800.0</ele><time>2026-04-29T08:55:59.816Z</time></trkpt><trkpt lat="44.6787504" lon="9.399535"><ele>800.0</ele><time>2026-04-29T08:56:00.814Z</time></trkpt><trkpt lat="44.6785981" lon="9.3994223"><ele>801.0</ele><time>2026-04-29T08:56:01.814Z</time></trkpt><trkpt lat="44.6784285" lon="9.399297"><ele>802.0</ele><time>2026-04-29T08:56:02.818Z</time></trkpt><trkpt lat="44.6782774" lon="9.3991843"><ele>803.0</ele><time>2026-04-29T08:56:03.814Z</time></trkpt><trkpt lat="44.6781455" lon="9.3990866"><ele>803.0</ele><time>2026-04-29T08:56:04.815Z</time></trkpt><trkpt lat="44.6780199" lon="9.3990226"><ele>803.0</ele><time>2026-04-29T08:56:05.813Z</time></trkpt><trkpt lat="44.6778981" lon="9.399017"><ele>803.0</ele><time>2026-04-29T08:56:06.815Z</time></trkpt><trkpt lat="44.6777873" lon="9.3990674"><ele>803.0</ele><time>2026-04-29T08:56:07.815Z</time></trkpt><trkpt lat="44.6776928" lon="9.399194"><ele>800.0</ele><time>2026-04-29T08:56:08.814Z</time></trkpt><trkpt lat="44.6776182" lon="9.3993742"><ele>797.0</ele><time>2026-04-29T08:56:09.816Z</time></trkpt><trkpt lat="44.6775449" lon="9.3995949"><ele>794.0</ele><time>2026-04-29T08:56:10.818Z</time></trkpt><trkpt lat="44.6774517" lon="9.3998465"><ele>800.3333333333334</ele><time>2026-04-29T08:56:11.814Z</time></trkpt><trkpt lat="44.6773503" lon="9.4001127"><ele>806.6666666666667</ele><time>2026-04-29T08:56:12.814Z</time></trkpt><trkpt lat="44.6772483" lon="9.4003836"><ele>813.0</ele><time>2026-04-29T08:56:13.815Z</time></trkpt><trkpt lat="44.6771554" lon="9.4006308"><ele>817.3333333333333</ele><time>2026-04-29T08:56:14.815Z</time></trkpt><trkpt lat="44.6770648" lon="9.4008391"><ele>821.6666666666666</ele><time>2026-04-29T08:56:15.814Z</time></trkpt><trkpt lat="44.6769611" lon="9.401004"><ele>826.0</ele><time>2026-04-29T08:56:16.813Z</time></trkpt><trkpt lat="44.6768404" lon="9.401126"><ele>824.3333333333333</ele><time>2026-04-29T08:56:17.816Z</time></trkpt><trkpt lat="44.6766885" lon="9.4012344"><ele>822.6666666666667</ele><time>2026-04-29T08:56:18.815Z</time></trkpt><trkpt lat="44.6765099" lon="9.4013384"><ele>821.0</ele><time>2026-04-29T08:56:19.815Z</time></trkpt><trkpt lat="44.6763073" lon="9.4014506"><ele>816.6666666666667</ele><time>2026-04-29T08:56:20.816Z</time></trkpt><trkpt lat="44.6760929" lon="9.4015721"><ele>812.3333333333333</ele><time>2026-04-29T08:56:21.816Z</time></trkpt><trkpt lat="44.6758996" lon="9.4016803"><ele>808.0</ele><time>2026-04-29T08:56:22.815Z</time></trkpt><trkpt lat="44.6757249" lon="9.401775"><ele>808.0</ele><time>2026-04-29T08:56:23.817Z</time></trkpt><trkpt lat="44.6755744" lon="9.4018611"><ele>808.0</ele><time>2026-04-29T08:56:24.817Z</time></trkpt><trkpt lat="44.6754531" lon="9.4019617"><ele>808.0</ele><time>2026-04-29T08:56:25.816Z</time></trkpt><trkpt lat="44.6753702" lon="9.4021024"><ele>808.0</ele><time>2026-04-29T08:56:26.813Z</time></trkpt><trkpt lat="44.6753271" lon="9.4022784"><ele>812.0</ele><time>2026-04-29T08:56:27.815Z</time></trkpt><trkpt lat="44.6753324" lon="9.4024708"><ele>816.0</ele><time>2026-04-29T08:56:28.816Z</time></trkpt><trkpt lat="44.6753853" lon="9.4026565"><ele>820.0</ele><time>2026-04-29T08:56:29.815Z</time></trkpt><trkpt lat="44.6754689" lon="9.4028358"><ele>824.0</ele><time>2026-04-29T08:56:30.816Z</time></trkpt><trkpt lat="44.6755208" lon="9.4030008"><ele>824.5</ele><time>2026-04-29T08:56:31.816Z</time></trkpt><trkpt lat="44.6755376" lon="9.4031601"><ele>825.0</ele><time>2026-04-29T08:56:32.816Z</time></trkpt><trkpt lat="44.6755204" lon="9.4033257"><ele>825.5</ele><time>2026-04-29T08:56:33.815Z</time></trkpt><trkpt lat="44.6754581" lon="9.4034783"><ele>826.0</ele><time>2026-04-29T08:56:34.816Z</time></trkpt><trkpt lat="44.675357" lon="9.4035991"><ele>826.3333333333333</ele><time>2026-04-29T08:56:35.815Z</time></trkpt><trkpt lat="44.6752259" lon="9.4036935"><ele>826.6666666666667</ele><time>2026-04-29T08:56:36.815Z</time></trkpt><trkpt lat="44.6750641" lon="9.4037678"><ele>827.0</ele><time>2026-04-29T08:56:37.815Z</time></trkpt><trkpt lat="44.6748955" lon="9.403851"><ele>827.0</ele><time>2026-04-29T08:56:38.817Z</time></trkpt><trkpt lat="44.6747418" lon="9.4039805"><ele>827.0</ele><time>2026-04-29T08:56:39.815Z</time></trkpt><trkpt lat="44.6745985" lon="9.4041266"><ele>827.0</ele><time>2026-04-29T08:56:40.814Z</time></trkpt><trkpt lat="44.6744467" lon="9.4042558"><ele>822.0</ele><time>2026-04-29T08:56:41.814Z</time></trkpt><trkpt lat="44.6742979" lon="9.4043472"><ele>817.0</ele><time>2026-04-29T08:56:42.815Z</time></trkpt><trkpt lat="44.674142" lon="9.404392"><ele>812.0</ele><time>2026-04-29T08:56:43.815Z</time></trkpt><trkpt lat="44.6739748" lon="9.4043991"><ele>812.0</ele><time>2026-04-29T08:56:44.815Z</time></trkpt><trkpt lat="44.6737948" lon="9.4043847"><ele>812.0</ele><time>2026-04-29T08:56:45.816Z</time></trkpt><trkpt lat="44.67361" lon="9.4043772"><ele>812.0</ele><time>2026-04-29T08:56:46.817Z</time></trkpt><trkpt lat="44.673423" lon="9.4044019"><ele>810.0</ele><time>2026-04-29T08:56:47.815Z</time></trkpt><trkpt lat="44.6732374" lon="9.404459"><ele>808.0</ele><time>2026-04-29T08:56:48.816Z</time></trkpt><trkpt lat="44.6730461" lon="9.4045448"><ele>806.0</ele><time>2026-04-29T08:56:49.815Z</time></trkpt><trkpt lat="44.6728595" lon="9.4046345"><ele>810.0</ele><time>2026-04-29T08:56:50.814Z</time></trkpt><trkpt lat="44.6726861" lon="9.4047199"><ele>814.0</ele><time>2026-04-29T08:56:51.814Z</time></trkpt><trkpt lat="44.6725331" lon="9.404801"><ele>818.0</ele><time>2026-04-29T08:56:52.817Z</time></trkpt><trkpt lat="44.6724157" lon="9.4048942"><ele>818.0</ele><time>2026-04-29T08:56:53.816Z</time></trkpt><trkpt lat="44.6723345" lon="9.4050143"><ele>818.0</ele><time>2026-04-29T08:56:54.816Z</time></trkpt><trkpt lat="44.6722859" lon="9.4051543"><ele>818.0</ele><time>2026-04-29T08:56:55.815Z</time></trkpt><trkpt lat="44.6722693" lon="9.4053066"><ele>818.0</ele><time>2026-04-29T08:56:56.815Z</time></trkpt><trkpt lat="44.6722923" lon="9.4054592"><ele>818.0</ele><time>2026-04-29T08:56:57.814Z</time></trkpt><trkpt lat="44.6723524" lon="9.4056045"><ele>817.6666666666667</ele><time>2026-04-29T08:56:58.817Z</time></trkpt><trkpt lat="44.6724448" lon="9.405754"><ele>817.3333333333333</ele><time>2026-04-29T08:56:59.817Z</time></trkpt><trkpt lat="44.6725596" lon="9.4059179"><ele>817.0</ele><time>2026-04-29T08:57:00.816Z</time></trkpt><trkpt lat="44.6726874" lon="9.4061012"><ele>823.0</ele><time>2026-04-29T08:57:01.814Z</time></trkpt><trkpt lat="44.6728116" lon="9.4062988"><ele>829.0</ele><time>2026-04-29T08:57:02.814Z</time></trkpt><trkpt lat="44.6729232" lon="9.4065226"><ele>835.0</ele><time>2026-04-29T08:57:03.813Z</time></trkpt><trkpt lat="44.6730339" lon="9.4067661"><ele>835.0</ele><time>2026-04-29T08:57:04.817Z</time></trkpt><trkpt lat="44.6731508" lon="9.4070077"><ele>835.0</ele><time>2026-04-29T08:57:05.817Z</time></trkpt><trkpt lat="44.6732697" lon="9.4072251"><ele>835.0</ele><time>2026-04-29T08:57:06.815Z</time></trkpt><trkpt lat="44.6733772" lon="9.4074271"><ele>831.6666666666666</ele><time>2026-04-29T08:57:07.818Z</time></trkpt><trkpt lat="44.6734587" lon="9.4076286"><ele>828.3333333333333</ele><time>2026-04-29T08:57:08.814Z</time></trkpt><trkpt lat="44.6735132" lon="9.4078562"><ele>825.0</ele><time>2026-04-29T08:57:09.814Z</time></trkpt><trkpt lat="44.6735565" lon="9.4080823"><ele>822.6666666666667</ele><time>2026-04-29T08:57:10.815Z</time></trkpt><trkpt lat="44.6736036" lon="9.4082829"><ele>820.3333333333334</ele><time>2026-04-29T08:57:11.815Z</time></trkpt><trkpt lat="44.6736858" lon="9.4084661"><ele>818.0</ele><time>2026-04-29T08:57:12.814Z</time></trkpt><trkpt lat="44.673802" lon="9.4086226"><ele>821.3333333333334</ele><time>2026-04-29T08:57:13.815Z</time></trkpt><trkpt lat="44.6739376" lon="9.4087594"><ele>824.6666666666667</ele><time>2026-04-29T08:57:14.816Z</time></trkpt><trkpt lat="44.6740602" lon="9.4089261"><ele>828.0</ele><time>2026-04-29T08:57:15.815Z</time></trkpt><trkpt lat="44.6741579" lon="9.4091409"><ele>828.0</ele><time>2026-04-29T08:57:16.813Z</time></trkpt><trkpt lat="44.6742458" lon="9.4093859"><ele>828.0</ele><time>2026-04-29T08:57:17.814Z</time></trkpt><trkpt lat="44.6743349" lon="9.4096548"><ele>828.0</ele><time>2026-04-29T08:57:18.817Z</time></trkpt><trkpt lat="44.6744158" lon="9.409907"><ele>832.6666666666667</ele><time>2026-04-29T08:57:19.814Z</time></trkpt><trkpt lat="44.6744913" lon="9.4101485"><ele>837.3333333333334</ele><time>2026-04-29T08:57:20.815Z</time></trkpt><trkpt lat="44.674558" lon="9.4103848"><ele>842.0</ele><time>2026-04-29T08:57:21.814Z</time></trkpt><trkpt lat="44.6746104" lon="9.4105965"><ele>842.0</ele><time>2026-04-29T08:57:22.815Z</time></trkpt><trkpt lat="44.6746531" lon="9.4107874"><ele>842.0</ele><time>2026-04-29T08:57:23.815Z</time></trkpt><trkpt lat="44.6747002" lon="9.4109582"><ele>842.0</ele><time>2026-04-29T08:57:24.815Z</time></trkpt><trkpt lat="44.6747716" lon="9.4111083"><ele>842.0</ele><time>2026-04-29T08:57:25.815Z</time></trkpt><trkpt lat="44.6748647" lon="9.411238"><ele>838.0</ele><time>2026-04-29T08:57:26.816Z</time></trkpt><trkpt lat="44.6749872" lon="9.411332"><ele>834.0</ele><time>2026-04-29T08:57:27.815Z</time></trkpt><trkpt lat="44.6751347" lon="9.4113841"><ele>830.0</ele><time>2026-04-29T08:57:28.814Z</time></trkpt><trkpt lat="44.675302" lon="9.4114052"><ele>830.0</ele><time>2026-04-29T08:57:29.814Z</time></trkpt><trkpt lat="44.6754856" lon="9.4114154"><ele>830.0</ele><time>2026-04-29T08:57:30.816Z</time></trkpt><trkpt lat="44.6756777" lon="9.4114324"><ele>830.0</ele><time>2026-04-29T08:57:31.815Z</time></trkpt><trkpt lat="44.6758764" lon="9.4114641"><ele>830.0</ele><time>2026-04-29T08:57:32.817Z</time></trkpt><trkpt lat="44.6760684" lon="9.4115112"><ele>830.0</ele><time>2026-04-29T08:57:33.815Z</time></trkpt><trkpt lat="44.6762382" lon="9.4115781"><ele>830.0</ele><time>2026-04-29T08:57:34.815Z</time></trkpt><trkpt lat="44.6763801" lon="9.4116677"><ele>831.6666666666667</ele><time>2026-04-29T08:57:35.814Z</time></trkpt><trkpt lat="44.6764991" lon="9.4117927"><ele>833.3333333333333</ele><time>2026-04-29T08:57:36.816Z</time></trkpt><trkpt lat="44.676587" lon="9.411963"><ele>835.0</ele><time>2026-04-29T08:57:37.814Z</time></trkpt><trkpt lat="44.6766593" lon="9.4121699"><ele>835.0</ele><time>2026-04-29T08:57:38.817Z</time></trkpt><trkpt lat="44.6767145" lon="9.4123733"><ele>835.0</ele><time>2026-04-29T08:57:39.819Z</time></trkpt><trkpt lat="44.6767405" lon="9.4125662"><ele>835.0</ele><time>2026-04-29T08:57:40.815Z</time></trkpt><trkpt lat="44.676736" lon="9.4127478"><ele>835.0</ele><time>2026-04-29T08:57:41.815Z</time></trkpt><trkpt lat="44.6767013" lon="9.4129326"><ele>838.0</ele><time>2026-04-29T08:57:42.813Z</time></trkpt><trkpt lat="44.676643" lon="9.4131263"><ele>841.0</ele><time>2026-04-29T08:57:43.819Z</time></trkpt><trkpt lat="44.6765937" lon="9.4133355"><ele>844.0</ele><time>2026-04-29T08:57:44.817Z</time></trkpt><trkpt lat="44.6765632" lon="9.4135647"><ele>844.0</ele><time>2026-04-29T08:57:45.815Z</time></trkpt><trkpt lat="44.6765471" lon="9.4137596"><ele>844.0</ele><time>2026-04-29T08:57:46.814Z</time></trkpt><trkpt lat="44.6765558" lon="9.4139281"><ele>844.0</ele><time>2026-04-29T08:57:47.814Z</time></trkpt><trkpt lat="44.6766036" lon="9.4140553"><ele>844.0</ele><time>2026-04-29T08:57:48.814Z</time></trkpt><trkpt lat="44.6766871" lon="9.4141628"><ele>841.3333333333333</ele><time>2026-04-29T08:57:49.816Z</time></trkpt><trkpt lat="44.6768067" lon="9.4142752"><ele>838.6666666666667</ele><time>2026-04-29T08:57:50.817Z</time></trkpt><trkpt lat="44.6769554" lon="9.4144002"><ele>836.0</ele><time>2026-04-29T08:57:51.815Z</time></trkpt><trkpt lat="44.6771117" lon="9.4145433"><ele>838.6666666666667</ele><time>2026-04-29T08:57:52.815Z</time></trkpt><trkpt lat="44.677275" lon="9.4147068"><ele>841.3333333333333</ele><time>2026-04-29T08:57:53.815Z</time></trkpt><trkpt lat="44.6774363" lon="9.4148771"><ele>844.0</ele><time>2026-04-29T08:57:54.815Z</time></trkpt><trkpt lat="44.6775743" lon="9.4150273"><ele>844.0</ele><time>2026-04-29T08:57:55.814Z</time></trkpt><trkpt lat="44.6776861" lon="9.4151648"><ele>844.0</ele><time>2026-04-29T08:57:56.816Z</time></trkpt><trkpt lat="44.677767" lon="9.4153042"><ele>844.0</ele><time>2026-04-29T08:57:57.816Z</time></trkpt><trkpt lat="44.6778084" lon="9.4154526"><ele>844.0</ele><time>2026-04-29T08:57:58.816Z</time></trkpt><trkpt lat="44.6778156" lon="9.4156154"><ele>846.4000000000001</ele><time>2026-04-29T08:57:59.815Z</time></trkpt><trkpt lat="44.6777995" lon="9.4157799"><ele>848.8</ele><time>2026-04-29T08:58:00.815Z</time></trkpt><trkpt lat="44.6777807" lon="9.415924"><ele>851.1999999999999</ele><time>2026-04-29T08:58:01.818Z</time></trkpt><trkpt lat="44.6777852" lon="9.416044"><ele>853.5999999999999</ele><time>2026-04-29T08:58:02.817Z</time></trkpt><trkpt lat="44.6778273" lon="9.416169"><ele>856.0</ele><time>2026-04-29T08:58:03.817Z</time></trkpt><trkpt lat="44.6779062" lon="9.4162849"><ele>854.25</ele><time>2026-04-29T08:58:04.817Z</time></trkpt><trkpt lat="44.6780091" lon="9.416384"><ele>852.5</ele><time>2026-04-29T08:58:05.814Z</time></trkpt><trkpt lat="44.6780991" lon="9.4164968"><ele>850.75</ele><time>2026-04-29T08:58:06.816Z</time></trkpt><trkpt lat="44.6781815" lon="9.4166619"><ele>849.0</ele><time>2026-04-29T08:58:07.815Z</time></trkpt><trkpt lat="44.6782581" lon="9.4168669"><ele>849.0</ele><time>2026-04-29T08:58:08.814Z</time></trkpt><trkpt lat="44.6783312" lon="9.4171046"><ele>849.0</ele><time>2026-04-29T08:58:09.816Z</time></trkpt><trkpt lat="44.6783763" lon="9.4173268"><ele>849.0</ele><time>2026-04-29T08:58:10.817Z</time></trkpt><trkpt lat="44.6783978" lon="9.4175589"><ele>848.6666666666667</ele><time>2026-04-29T08:58:11.816Z</time></trkpt><trkpt lat="44.6783995" lon="9.4178018"><ele>848.3333333333334</ele><time>2026-04-29T08:58:12.816Z</time></trkpt><trkpt lat="44.6783962" lon="9.4180263"><ele>848.0</ele><time>2026-04-29T08:58:13.815Z</time></trkpt><trkpt lat="44.6783987" lon="9.4182234"><ele>847.25</ele><time>2026-04-29T08:58:14.813Z</time></trkpt><trkpt lat="44.6784236" lon="9.4184123"><ele>846.5</ele><time>2026-04-29T08:58:15.816Z</time></trkpt><trkpt lat="44.6784754" lon="9.4186008"><ele>845.75</ele><time>2026-04-29T08:58:16.814Z</time></trkpt><trkpt lat="44.6785529" lon="9.4187915"><ele>845.0</ele><time>2026-04-29T08:58:17.815Z</time></trkpt><trkpt lat="44.6786396" lon="9.418984"><ele>854.6666666666667</ele><time>2026-04-29T08:58:18.815Z</time></trkpt><trkpt lat="44.6787247" lon="9.4191815"><ele>864.3333333333333</ele><time>2026-04-29T08:58:19.814Z</time></trkpt><trkpt lat="44.6788006" lon="9.4193653"><ele>874.0</ele><time>2026-04-29T08:58:20.813Z</time></trkpt><trkpt lat="44.6788695" lon="9.419529"><ele>872.4000000000001</ele><time>2026-04-29T08:58:21.816Z</time></trkpt><trkpt lat="44.6789233" lon="9.4196519"><ele>870.8000000000001</ele><time>2026-04-29T08:58:22.816Z</time></trkpt><trkpt lat="44.6789627" lon="9.4197624"><ele>869.1999999999999</ele><time>2026-04-29T08:58:23.817Z</time></trkpt><trkpt lat="44.6789816" lon="9.4198812"><ele>867.5999999999999</ele><time>2026-04-29T08:58:24.815Z</time></trkpt><trkpt lat="44.6789696" lon="9.420007"><ele>866.0</ele><time>2026-04-29T08:58:25.813Z</time></trkpt><trkpt lat="44.6789208" lon="9.4201141"><ele>866.0</ele><time>2026-04-29T08:58:26.814Z</time></trkpt><trkpt lat="44.6788434" lon="9.4202065"><ele>866.0</ele><time>2026-04-29T08:58:27.817Z</time></trkpt><trkpt lat="44.6787364" lon="9.4202667"><ele>866.0</ele><time>2026-04-29T08:58:28.816Z</time></trkpt><trkpt lat="44.678622" lon="9.4202738"><ele>866.0</ele><time>2026-04-29T08:58:29.816Z</time></trkpt><trkpt lat="44.6785079" lon="9.4202273"><ele>863.25</ele><time>2026-04-29T08:58:30.816Z</time></trkpt><trkpt lat="44.6783924" lon="9.420138"><ele>860.5</ele><time>2026-04-29T08:58:31.819Z</time></trkpt><trkpt lat="44.6782631" lon="9.4200358"><ele>857.75</ele><time>2026-04-29T08:58:32.815Z</time></trkpt><trkpt lat="44.6781175" lon="9.4199689"><ele>855.0</ele><time>2026-04-29T08:58:33.814Z</time></trkpt><trkpt lat="44.6779633" lon="9.4199284"><ele>855.0</ele><time>2026-04-29T08:58:34.818Z</time></trkpt><trkpt lat="44.6778261" lon="9.4199161"><ele>855.0</ele><time>2026-04-29T08:58:35.817Z</time></trkpt><trkpt lat="44.6777069" lon="9.4199396"><ele>855.0</ele><time>2026-04-29T08:58:36.816Z</time></trkpt><trkpt lat="44.677608" lon="9.4200047"><ele>855.0</ele><time>2026-04-29T08:58:37.814Z</time></trkpt><trkpt lat="44.6775317" lon="9.4201211"><ele>854.3333333333333</ele><time>2026-04-29T08:58:38.815Z</time></trkpt><trkpt lat="44.6774741" lon="9.4202883"><ele>853.6666666666666</ele><time>2026-04-29T08:58:39.814Z</time></trkpt><trkpt lat="44.6774231" lon="9.4204963"><ele>853.0</ele><time>2026-04-29T08:58:40.817Z</time></trkpt><trkpt lat="44.6773704" lon="9.4207355"><ele>855.3333333333333</ele><time>2026-04-29T08:58:41.815Z</time></trkpt><trkpt lat="44.6773153" lon="9.4209921"><ele>857.6666666666667</ele><time>2026-04-29T08:58:42.815Z</time></trkpt><trkpt lat="44.6772622" lon="9.4212338"><ele>860.0</ele><time>2026-04-29T08:58:43.816Z</time></trkpt><trkpt lat="44.6772115" lon="9.4214601"><ele>860.0</ele><time>2026-04-29T08:58:44.815Z</time></trkpt><trkpt lat="44.6771574" lon="9.4216645"><ele>860.0</ele><time>2026-04-29T08:58:45.815Z</time></trkpt><trkpt lat="44.6770995" lon="9.4218512"><ele>860.0</ele><time>2026-04-29T08:58:46.817Z</time></trkpt><trkpt lat="44.6770315" lon="9.422005"><ele>860.0</ele><time>2026-04-29T08:58:47.816Z</time></trkpt><trkpt lat="44.6769465" lon="9.4221205"><ele>859.2</ele><time>2026-04-29T08:58:48.817Z</time></trkpt><trkpt lat="44.6768473" lon="9.422187"><ele>858.4</ele><time>2026-04-29T08:58:49.816Z</time></trkpt><trkpt lat="44.6767419" lon="9.4221963"><ele>857.5999999999999</ele><time>2026-04-29T08:58:50.816Z</time></trkpt><trkpt lat="44.6766401" lon="9.4221503"><ele>856.8</ele><time>2026-04-29T08:58:51.816Z</time></trkpt><trkpt lat="44.6765416" lon="9.4220511"><ele>856.0</ele><time>2026-04-29T08:58:52.815Z</time></trkpt><trkpt lat="44.6764334" lon="9.4219128"><ele>856.0</ele><time>2026-04-29T08:58:53.815Z</time></trkpt><trkpt lat="44.6763109" lon="9.4217657"><ele>856.0</ele><time>2026-04-29T08:58:54.816Z</time></trkpt><trkpt lat="44.6761941" lon="9.4216338"><ele>856.0</ele><time>2026-04-29T08:58:55.816Z</time></trkpt><trkpt lat="44.6760591" lon="9.4215056"><ele>857.3333333333333</ele><time>2026-04-29T08:58:56.815Z</time></trkpt><trkpt lat="44.6759115" lon="9.4213883"><ele>858.6666666666667</ele><time>2026-04-29T08:58:57.814Z</time></trkpt><trkpt lat="44.675767" lon="9.4212672"><ele>860.0</ele><time>2026-04-29T08:58:58.816Z</time></trkpt><trkpt lat="44.6756247" lon="9.4211558"><ele>860.0</ele><time>2026-04-29T08:58:59.812Z</time></trkpt><trkpt lat="44.6754669" lon="9.4210674"><ele>860.0</ele><time>2026-04-29T08:59:00.817Z</time></trkpt><trkpt lat="44.675295" lon="9.4210088"><ele>860.0</ele><time>2026-04-29T08:59:01.817Z</time></trkpt><trkpt lat="44.6751251" lon="9.4209672"><ele>863.75</ele><time>2026-04-29T08:59:02.815Z</time></trkpt><trkpt lat="44.6749688" lon="9.4209278"><ele>867.5</ele><time>2026-04-29T08:59:03.814Z</time></trkpt><trkpt lat="44.6748337" lon="9.4208511"><ele>871.25</ele><time>2026-04-29T08:59:04.817Z</time></trkpt><trkpt lat="44.6747243" lon="9.4207232"><ele>875.0</ele><time>2026-04-29T08:59:05.815Z</time></trkpt><trkpt lat="44.6746458" lon="9.4205596"><ele>874.25</ele><time>2026-04-29T08:59:06.817Z</time></trkpt><trkpt lat="44.6745813" lon="9.4203813"><ele>873.5</ele><time>2026-04-29T08:59:07.816Z</time></trkpt><trkpt lat="44.6745224" lon="9.4202235"><ele>872.75</ele><time>2026-04-29T08:59:08.813Z</time></trkpt><trkpt lat="44.6744541" lon="9.4201036"><ele>872.0</ele><time>2026-04-29T08:59:09.816Z</time></trkpt><trkpt lat="44.6743749" lon="9.4200254"><ele>872.0</ele><time>2026-04-29T08:59:10.814Z</time></trkpt><trkpt lat="44.6742835" lon="9.420008"><ele>872.0</ele><time>2026-04-29T08:59:11.816Z</time></trkpt><trkpt lat="44.6741887" lon="9.4200446"><ele>872.0</ele><time>2026-04-29T08:59:12.815Z</time></trkpt><trkpt lat="44.674086" lon="9.4201294"><ele>872.0</ele><time>2026-04-29T08:59:13.817Z</time></trkpt><trkpt lat="44.6739723" lon="9.4202381"><ele>872.0</ele><time>2026-04-29T08:59:14.816Z</time></trkpt><trkpt lat="44.6738524" lon="9.4202913"><ele>872.0</ele><time>2026-04-29T08:59:15.814Z</time></trkpt><trkpt lat="44.6737218" lon="9.420294"><ele>872.0</ele><time>2026-04-29T08:59:16.814Z</time></trkpt><trkpt lat="44.6735829" lon="9.4202944"><ele>872.0</ele><time>2026-04-29T08:59:17.814Z</time></trkpt><trkpt lat="44.6734274" lon="9.4203332"><ele>872.0</ele><time>2026-04-29T08:59:18.816Z</time></trkpt><trkpt lat="44.6732664" lon="9.4203896"><ele>871.0</ele><time>2026-04-29T08:59:19.816Z</time></trkpt><trkpt lat="44.6731311" lon="9.4204532"><ele>870.0</ele><time>2026-04-29T08:59:20.815Z</time></trkpt><trkpt lat="44.6730144" lon="9.4205337"><ele>869.0</ele><time>2026-04-29T08:59:21.816Z</time></trkpt><trkpt lat="44.6729144" lon="9.4206251"><ele>868.0</ele><time>2026-04-29T08:59:22.814Z</time></trkpt><trkpt lat="44.6728119" lon="9.4207045"><ele>872.5</ele><time>2026-04-29T08:59:23.816Z</time></trkpt><trkpt lat="44.672694" lon="9.4207646"><ele>877.0</ele><time>2026-04-29T08:59:24.815Z</time></trkpt><trkpt lat="44.6725611" lon="9.4207948"><ele>881.5</ele><time>2026-04-29T08:59:25.815Z</time></trkpt><trkpt lat="44.6724147" lon="9.4208088"><ele>886.0</ele><time>2026-04-29T08:59:26.815Z</time></trkpt><trkpt lat="44.6722654" lon="9.4208279"><ele>886.0</ele><time>2026-04-29T08:59:27.815Z</time></trkpt><trkpt lat="44.6721301" lon="9.4208358"><ele>886.0</ele><time>2026-04-29T08:59:28.817Z</time></trkpt><trkpt lat="44.6720099" lon="9.4208097"><ele>886.0</ele><time>2026-04-29T08:59:29.814Z</time></trkpt><trkpt lat="44.6719069" lon="9.4207475"><ele>886.0</ele><time>2026-04-29T08:59:30.813Z</time></trkpt><trkpt lat="44.6718262" lon="9.4206301"><ele>888.0</ele><time>2026-04-29T08:59:31.815Z</time></trkpt><trkpt lat="44.6717532" lon="9.4204934"><ele>890.0</ele><time>2026-04-29T08:59:32.815Z</time></trkpt><trkpt lat="44.6716682" lon="9.4203788"><ele>892.0</ele><time>2026-04-29T08:59:33.815Z</time></trkpt><trkpt lat="44.6715615" lon="9.4203045"><ele>894.0</ele><time>2026-04-29T08:59:34.815Z</time></trkpt><trkpt lat="44.6714437" lon="9.4202765"><ele>894.0</ele><time>2026-04-29T08:59:35.813Z</time></trkpt><trkpt lat="44.6713352" lon="9.4203068"><ele>894.0</ele><time>2026-04-29T08:59:36.816Z</time></trkpt><trkpt lat="44.6712419" lon="9.4203927"><ele>894.0</ele><time>2026-04-29T08:59:37.815Z</time></trkpt><trkpt lat="44.6711684" lon="9.4205234"><ele>894.0</ele><time>2026-04-29T08:59:38.816Z</time></trkpt><trkpt lat="44.6710993" lon="9.4206816"><ele>892.5</ele><time>2026-04-29T08:59:39.817Z</time></trkpt><trkpt lat="44.6710189" lon="9.4208374"><ele>891.0</ele><time>2026-04-29T08:59:40.815Z</time></trkpt><trkpt lat="44.6709264" lon="9.420957"><ele>889.5</ele><time>2026-04-29T08:59:41.814Z</time></trkpt><trkpt lat="44.6708241" lon="9.4210336"><ele>888.0</ele><time>2026-04-29T08:59:42.815Z</time></trkpt><trkpt lat="44.6707079" lon="9.4210725"><ele>888.0</ele><time>2026-04-29T08:59:43.815Z</time></trkpt><trkpt lat="44.6705788" lon="9.4210801"><ele>888.0</ele><time>2026-04-29T08:59:44.817Z</time></trkpt><trkpt lat="44.6704511" lon="9.4210937"><ele>888.0</ele><time>2026-04-29T08:59:45.816Z</time></trkpt><trkpt lat="44.6703395" lon="9.4211337"><ele>888.0</ele><time>2026-04-29T08:59:46.815Z</time></trkpt><trkpt lat="44.6702491" lon="9.4212179"><ele>886.25</ele><time>2026-04-29T08:59:47.814Z</time></trkpt><trkpt lat="44.6701857" lon="9.4213387"><ele>884.5</ele><time>2026-04-29T08:59:48.815Z</time></trkpt><trkpt lat="44.6701655" lon="9.4214974"><ele>882.75</ele><time>2026-04-29T08:59:49.814Z</time></trkpt><trkpt lat="44.6701625" lon="9.4216929"><ele>881.0</ele><time>2026-04-29T08:59:50.817Z</time></trkpt><trkpt lat="44.6701636" lon="9.4219147"><ele>882.3333333333334</ele><time>2026-04-29T08:59:51.817Z</time></trkpt><trkpt lat="44.6701619" lon="9.4221635"><ele>883.6666666666667</ele><time>2026-04-29T08:59:52.815Z</time></trkpt><trkpt lat="44.6701526" lon="9.4224081"><ele>885.0</ele><time>2026-04-29T08:59:53.815Z</time></trkpt><trkpt lat="44.6701401" lon="9.4226351"><ele>885.0</ele><time>2026-04-29T08:59:54.815Z</time></trkpt><trkpt lat="44.6701389" lon="9.4228426"><ele>885.0</ele><time>2026-04-29T08:59:55.815Z</time></trkpt><trkpt lat="44.6701623" lon="9.4230308"><ele>885.0</ele><time>2026-04-29T08:59:56.816Z</time></trkpt><trkpt lat="44.6702155" lon="9.4231886"><ele>885.0</ele><time>2026-04-29T08:59:57.814Z</time></trkpt><trkpt lat="44.6702844" lon="9.4233182"><ele>886.75</ele><time>2026-04-29T08:59:58.815Z</time></trkpt><trkpt lat="44.6703317" lon="9.4234512"><ele>888.5</ele><time>2026-04-29T08:59:59.815Z</time></trkpt><trkpt lat="44.6703361" lon="9.4235981"><ele>890.25</ele><time>2026-04-29T09:00:00.815Z</time></trkpt><trkpt lat="44.6703001" lon="9.4237527"><ele>892.0</ele><time>2026-04-29T09:00:01.814Z</time></trkpt><trkpt lat="44.6702377" lon="9.4239236"><ele>892.0</ele><time>2026-04-29T09:00:02.814Z</time></trkpt><trkpt lat="44.6701613" lon="9.4241108"><ele>892.0</ele><time>2026-04-29T09:00:03.815Z</time></trkpt><trkpt lat="44.6700873" lon="9.4243078"><ele>892.0</ele><time>2026-04-29T09:00:04.815Z</time></trkpt><trkpt lat="44.6700231" lon="9.4245164"><ele>893.6666666666666</ele><time>2026-04-29T09:00:05.819Z</time></trkpt><trkpt lat="44.6699684" lon="9.4247526"><ele>895.3333333333333</ele><time>2026-04-29T09:00:06.816Z</time></trkpt><trkpt lat="44.6699228" lon="9.4249832"><ele>897.0</ele><time>2026-04-29T09:00:07.816Z</time></trkpt><trkpt lat="44.6698861" lon="9.4251874"><ele>897.0</ele><time>2026-04-29T09:00:08.814Z</time></trkpt><trkpt lat="44.6698619" lon="9.4253798"><ele>897.0</ele><time>2026-04-29T09:00:09.815Z</time></trkpt><trkpt lat="44.6698407" lon="9.4255576"><ele>897.0</ele><time>2026-04-29T09:00:10.816Z</time></trkpt><trkpt lat="44.6698192" lon="9.4257202"><ele>897.0</ele><time>2026-04-29T09:00:11.816Z</time></trkpt><trkpt lat="44.6697934" lon="9.4258821"><ele>899.75</ele><time>2026-04-29T09:00:12.815Z</time></trkpt><trkpt lat="44.6697564" lon="9.426056"><ele>902.5</ele><time>2026-04-29T09:00:13.814Z</time></trkpt><trkpt lat="44.6697133" lon="9.4262429"><ele>905.25</ele><time>2026-04-29T09:00:14.815Z</time></trkpt><trkpt lat="44.6696636" lon="9.4264434"><ele>908.0</ele><time>2026-04-29T09:00:15.816Z</time></trkpt><trkpt lat="44.6696121" lon="9.4266596"><ele>910.3333333333334</ele><time>2026-04-29T09:00:16.815Z</time></trkpt><trkpt lat="44.6695582" lon="9.4268835"><ele>912.6666666666667</ele><time>2026-04-29T09:00:17.817Z</time></trkpt><trkpt lat="44.6695078" lon="9.4270913"><ele>915.0</ele><time>2026-04-29T09:00:18.815Z</time></trkpt><trkpt lat="44.6694557" lon="9.4272803"><ele>912.25</ele><time>2026-04-29T09:00:19.815Z</time></trkpt><trkpt lat="44.6693883" lon="9.4274437"><ele>909.5</ele><time>2026-04-29T09:00:20.816Z</time></trkpt><trkpt lat="44.6693017" lon="9.427573"><ele>906.75</ele><time>2026-04-29T09:00:21.816Z</time></trkpt><trkpt lat="44.6692013" lon="9.4276526"><ele>904.0</ele><time>2026-04-29T09:00:22.815Z</time></trkpt><trkpt lat="44.6690903" lon="9.4276778"><ele>904.0</ele><time>2026-04-29T09:00:23.815Z</time></trkpt><trkpt lat="44.6689781" lon="9.4276471"><ele>904.0</ele><time>2026-04-29T09:00:24.815Z</time></trkpt><trkpt lat="44.668875" lon="9.4275689"><ele>904.0</ele><time>2026-04-29T09:00:25.815Z</time></trkpt><trkpt lat="44.6687784" lon="9.4274501"><ele>904.0</ele><time>2026-04-29T09:00:26.814Z</time></trkpt><trkpt lat="44.6686834" lon="9.4272921"><ele>902.5</ele><time>2026-04-29T09:00:27.816Z</time></trkpt><trkpt lat="44.6685881" lon="9.427116"><ele>901.0</ele><time>2026-04-29T09:00:28.818Z</time></trkpt><trkpt lat="44.6684981" lon="9.4269456"><ele>899.5</ele><time>2026-04-29T09:00:29.814Z</time></trkpt><trkpt lat="44.6684035" lon="9.4267985"><ele>898.0</ele><time>2026-04-29T09:00:30.818Z</time></trkpt><trkpt lat="44.6682804" lon="9.4267035"><ele>898.0</ele><time>2026-04-29T09:00:31.815Z</time></trkpt><trkpt lat="44.6681404" lon="9.4266353"><ele>898.0</ele><time>2026-04-29T09:00:32.814Z</time></trkpt><trkpt lat="44.6680027" lon="9.4266015"><ele>898.0</ele><time>2026-04-29T09:00:33.815Z</time></trkpt><trkpt lat="44.6678658" lon="9.4266024"><ele>898.0</ele><time>2026-04-29T09:00:34.815Z</time></trkpt><trkpt lat="44.6677301" lon="9.4266439"><ele>899.5</ele><time>2026-04-29T09:00:35.815Z</time></trkpt><trkpt lat="44.6676001" lon="9.4267165"><ele>901.0</ele><time>2026-04-29T09:00:36.814Z</time></trkpt><trkpt lat="44.6674855" lon="9.4268013"><ele>902.5</ele><time>2026-04-29T09:00:37.814Z</time></trkpt><trkpt lat="44.6673915" lon="9.4268865"><ele>904.0</ele><time>2026-04-29T09:00:38.815Z</time></trkpt><trkpt lat="44.6673236" lon="9.4269968"><ele>904.0</ele><time>2026-04-29T09:00:39.815Z</time></trkpt><trkpt lat="44.6672923" lon="9.4271239"><ele>904.0000000000001</ele><time>2026-04-29T09:00:40.814Z</time></trkpt><trkpt lat="44.6672871" lon="9.4272584"><ele>904.0000000000001</ele><time>2026-04-29T09:00:41.818Z</time></trkpt><trkpt lat="44.6673057" lon="9.4274162"><ele>904.0</ele><time>2026-04-29T09:00:42.819Z</time></trkpt><trkpt lat="44.6673282" lon="9.427594"><ele>904.0</ele><time>2026-04-29T09:00:43.819Z</time></trkpt><trkpt lat="44.6673502" lon="9.4277944"><ele>906.0</ele><time>2026-04-29T09:00:44.818Z</time></trkpt><trkpt lat="44.6673757" lon="9.4280064"><ele>908.0</ele><time>2026-04-29T09:00:45.815Z</time></trkpt><trkpt lat="44.6674001" lon="9.4281982"><ele>910.0</ele><time>2026-04-29T09:00:46.814Z</time></trkpt><trkpt lat="44.6674241" lon="9.4283715"><ele>912.0</ele><time>2026-04-29T09:00:47.814Z</time></trkpt><trkpt lat="44.6674488" lon="9.4285366"><ele>912.0</ele><time>2026-04-29T09:00:48.814Z</time></trkpt><trkpt lat="44.6674723" lon="9.4286968"><ele>912.0</ele><time>2026-04-29T09:00:49.815Z</time></trkpt><trkpt lat="44.6674788" lon="9.428845"><ele>912.0</ele><time>2026-04-29T09:00:50.814Z</time></trkpt><trkpt lat="44.6674632" lon="9.4289875"><ele>912.0</ele><time>2026-04-29T09:00:51.815Z</time></trkpt><trkpt lat="44.6674267" lon="9.4291143"><ele>912.0</ele><time>2026-04-29T09:00:52.813Z</time></trkpt><trkpt lat="44.6673546" lon="9.4292138"><ele>913.75</ele><time>2026-04-29T09:00:53.814Z</time></trkpt><trkpt lat="44.6672566" lon="9.4293064"><ele>915.5</ele><time>2026-04-29T09:00:54.815Z</time></trkpt><trkpt lat="44.667138" lon="9.4294049"><ele>917.25</ele><time>2026-04-29T09:00:55.818Z</time></trkpt><trkpt lat="44.6670094" lon="9.4295281"><ele>919.0</ele><time>2026-04-29T09:00:56.817Z</time></trkpt><trkpt lat="44.6668951" lon="9.4296707"><ele>919.0</ele><time>2026-04-29T09:00:57.816Z</time></trkpt><trkpt lat="44.6667958" lon="9.4298357"><ele>919.0</ele><time>2026-04-29T09:00:58.815Z</time></trkpt><trkpt lat="44.6667056" lon="9.4300142"><ele>919.0</ele><time>2026-04-29T09:00:59.816Z</time></trkpt><trkpt lat="44.6666275" lon="9.430187"><ele>919.0</ele><time>2026-04-29T09:01:00.815Z</time></trkpt><trkpt lat="44.6665588" lon="9.4303482"><ele>919.0</ele><time>2026-04-29T09:01:01.814Z</time></trkpt><trkpt lat="44.6664843" lon="9.4304902"><ele>919.0</ele><time>2026-04-29T09:01:02.814Z</time></trkpt><trkpt lat="44.6664008" lon="9.4305976"><ele>919.0</ele><time>2026-04-29T09:01:03.815Z</time></trkpt><trkpt lat="44.6663066" lon="9.4306753"><ele>920.2</ele><time>2026-04-29T09:01:04.815Z</time></trkpt><trkpt lat="44.6662013" lon="9.4307284"><ele>921.4000000000001</ele><time>2026-04-29T09:01:05.816Z</time></trkpt><trkpt lat="44.6660865" lon="9.4307701"><ele>922.6</ele><time>2026-04-29T09:01:06.813Z</time></trkpt><trkpt lat="44.6659896" lon="9.4308206"><ele>923.8</ele><time>2026-04-29T09:01:07.818Z</time></trkpt><trkpt lat="44.6659214" lon="9.4308872"><ele>925.0</ele><time>2026-04-29T09:01:08.812Z</time></trkpt><trkpt lat="44.6658853" lon="9.4309753"><ele>924.9999999999999</ele><time>2026-04-29T09:01:09.814Z</time></trkpt><trkpt lat="44.6658967" lon="9.4310734"><ele>925.0</ele><time>2026-04-29T09:01:10.813Z</time></trkpt><trkpt lat="44.6659466" lon="9.4311443"><ele>925.0</ele><time>2026-04-29T09:01:11.814Z</time></trkpt><trkpt lat="44.6660245" lon="9.4311786"><ele>925.0</ele><time>2026-04-29T09:01:12.816Z</time></trkpt><trkpt lat="44.6661204" lon="9.4311678"><ele>924.9999999999999</ele><time>2026-04-29T09:01:13.815Z</time></trkpt><trkpt lat="44.6662208" lon="9.431116"><ele>925.0</ele><time>2026-04-29T09:01:14.816Z</time></trkpt><trkpt lat="44.6663252" lon="9.4310499"><ele>926.4999999999999</ele><time>2026-04-29T09:01:15.814Z</time></trkpt><trkpt lat="44.6664188" lon="9.4310015"><ele>928.0</ele><time>2026-04-29T09:01:16.815Z</time></trkpt><trkpt lat="44.6664982" lon="9.4310067"><ele>929.5</ele><time>2026-04-29T09:01:17.815Z</time></trkpt><trkpt lat="44.6665648" lon="9.4310516"><ele>931.0</ele><time>2026-04-29T09:01:18.814Z</time></trkpt><trkpt lat="44.6666019" lon="9.4311295"><ele>932.4999999999999</ele><time>2026-04-29T09:01:19.814Z</time></trkpt><trkpt lat="44.6665632" lon="9.4312918"><ele>934.0</ele><time>2026-04-29T09:01:21.814Z</time></trkpt><trkpt lat="44.6664941" lon="9.4313467"><ele>937.25</ele><time>2026-04-29T09:01:22.815Z</time></trkpt><trkpt lat="44.6663966" lon="9.4313999"><ele>940.5</ele><time>2026-04-29T09:01:23.814Z</time></trkpt><trkpt lat="44.6662811" lon="9.4314619"><ele>943.75</ele><time>2026-04-29T09:01:24.815Z</time></trkpt><trkpt lat="44.6661669" lon="9.4315412"><ele>947.0</ele><time>2026-04-29T09:01:25.813Z</time></trkpt><trkpt lat="44.6660696" lon="9.4316219"><ele>947.0</ele><time>2026-04-29T09:01:26.814Z</time></trkpt><trkpt lat="44.6659823" lon="9.4316854"><ele>947.0</ele><time>2026-04-29T09:01:27.816Z</time></trkpt><trkpt lat="44.6658922" lon="9.4317402"><ele>947.0</ele><time>2026-04-29T09:01:28.816Z</time></trkpt><trkpt lat="44.6657883" lon="9.4317914"><ele>947.0</ele><time>2026-04-29T09:01:29.816Z</time></trkpt><trkpt lat="44.6656751" lon="9.4318203"><ele>947.0</ele><time>2026-04-29T09:01:30.816Z</time></trkpt><trkpt lat="44.6655604" lon="9.4318215"><ele>947.0</ele><time>2026-04-29T09:01:31.817Z</time></trkpt><trkpt lat="44.6654549" lon="9.4318205"><ele>947.0</ele><time>2026-04-29T09:01:32.815Z</time></trkpt><trkpt lat="44.6653464" lon="9.4318585"><ele>947.0</ele><time>2026-04-29T09:01:33.816Z</time></trkpt><trkpt lat="44.665238" lon="9.431928"><ele>947.0</ele><time>2026-04-29T09:01:34.815Z</time></trkpt><trkpt lat="44.6651152" lon="9.432022"><ele>946.0</ele><time>2026-04-29T09:01:35.814Z</time></trkpt><trkpt lat="44.6649832" lon="9.4321094"><ele>945.0</ele><time>2026-04-29T09:01:36.815Z</time></trkpt><trkpt lat="44.6648592" lon="9.4321609"><ele>944.0</ele><time>2026-04-29T09:01:37.815Z</time></trkpt><trkpt lat="44.6647439" lon="9.4322123"><ele>943.0</ele><time>2026-04-29T09:01:38.813Z</time></trkpt><trkpt lat="44.6646378" lon="9.4322833"><ele>945.5</ele><time>2026-04-29T09:01:39.814Z</time></trkpt><trkpt lat="44.66455" lon="9.4323926"><ele>948.0</ele><time>2026-04-29T09:01:40.814Z</time></trkpt><trkpt lat="44.6644911" lon="9.432538"><ele>950.5</ele><time>2026-04-29T09:01:41.816Z</time></trkpt><trkpt lat="44.6644545" lon="9.4327176"><ele>953.0</ele><time>2026-04-29T09:01:42.817Z</time></trkpt><trkpt lat="44.6644242" lon="9.4329058"><ele>954.75</ele><time>2026-04-29T09:01:43.815Z</time></trkpt><trkpt lat="44.6643912" lon="9.4330722"><ele>956.5</ele><time>2026-04-29T09:01:44.818Z</time></trkpt><trkpt lat="44.6643336" lon="9.4332277"><ele>958.25</ele><time>2026-04-29T09:01:45.814Z</time></trkpt><trkpt lat="44.6642482" lon="9.4333573"><ele>960.0</ele><time>2026-04-29T09:01:46.814Z</time></trkpt><trkpt lat="44.6641482" lon="9.4334609"><ele>960.0</ele><time>2026-04-29T09:01:47.815Z</time></trkpt><trkpt lat="44.664056" lon="9.4335801"><ele>960.0</ele><time>2026-04-29T09:01:48.817Z</time></trkpt><trkpt lat="44.6639897" lon="9.4337328"><ele>960.0</ele><time>2026-04-29T09:01:49.816Z</time></trkpt><trkpt lat="44.6639488" lon="9.4339171"><ele>960.0</ele><time>2026-04-29T09:01:50.816Z</time></trkpt><trkpt lat="44.6639195" lon="9.4341392"><ele>963.3333333333333</ele><time>2026-04-29T09:01:51.817Z</time></trkpt><trkpt lat="44.6638855" lon="9.4343816"><ele>966.6666666666666</ele><time>2026-04-29T09:01:52.814Z</time></trkpt><trkpt lat="44.6638452" lon="9.434613"><ele>970.0</ele><time>2026-04-29T09:01:53.817Z</time></trkpt><trkpt lat="44.663791" lon="9.4348334"><ele>971.0</ele><time>2026-04-29T09:01:54.816Z</time></trkpt><trkpt lat="44.6637254" lon="9.435053"><ele>972.0</ele><time>2026-04-29T09:01:55.814Z</time></trkpt><trkpt lat="44.663652" lon="9.435281"><ele>973.0</ele><time>2026-04-29T09:01:56.816Z</time></trkpt><trkpt lat="44.6635784" lon="9.4355109"><ele>973.0</ele><time>2026-04-29T09:01:57.817Z</time></trkpt><trkpt lat="44.6635057" lon="9.4357391"><ele>973.0</ele><time>2026-04-29T09:01:58.816Z</time></trkpt><trkpt lat="44.6634382" lon="9.4359482"><ele>973.0</ele><time>2026-04-29T09:01:59.815Z</time></trkpt><trkpt lat="44.6633716" lon="9.4361481"><ele>975.5</ele><time>2026-04-29T09:02:00.814Z</time></trkpt><trkpt lat="44.6633085" lon="9.43634"><ele>978.0</ele><time>2026-04-29T09:02:01.817Z</time></trkpt><trkpt lat="44.6632453" lon="9.4365291"><ele>980.5</ele><time>2026-04-29T09:02:02.815Z</time></trkpt><trkpt lat="44.6631894" lon="9.4367106"><ele>983.0</ele><time>2026-04-29T09:02:03.815Z</time></trkpt><trkpt lat="44.6631515" lon="9.4368996"><ele>983.0</ele><time>2026-04-29T09:02:04.816Z</time></trkpt><trkpt lat="44.6631311" lon="9.4371069"><ele>983.0</ele><time>2026-04-29T09:02:05.815Z</time></trkpt><trkpt lat="44.6631234" lon="9.4373245"><ele>983.0</ele><time>2026-04-29T09:02:06.814Z</time></trkpt><trkpt lat="44.6631241" lon="9.4375432"><ele>983.5</ele><time>2026-04-29T09:02:07.813Z</time></trkpt><trkpt lat="44.6631357" lon="9.4377629"><ele>984.0</ele><time>2026-04-29T09:02:08.815Z</time></trkpt><trkpt lat="44.6631504" lon="9.4379624"><ele>984.5</ele><time>2026-04-29T09:02:09.814Z</time></trkpt><trkpt lat="44.6631637" lon="9.4381414"><ele>985.0</ele><time>2026-04-29T09:02:10.815Z</time></trkpt><trkpt lat="44.6631766" lon="9.4383064"><ele>985.2</ele><time>2026-04-29T09:02:11.817Z</time></trkpt><trkpt lat="44.6632076" lon="9.4384408"><ele>985.4</ele><time>2026-04-29T09:02:12.816Z</time></trkpt><trkpt lat="44.6632725" lon="9.4385387"><ele>985.5999999999999</ele><time>2026-04-29T09:02:13.814Z</time></trkpt><trkpt lat="44.663363" lon="9.4386035"><ele>985.8</ele><time>2026-04-29T09:02:14.815Z</time></trkpt><trkpt lat="44.6634758" lon="9.4386473"><ele>986.0</ele><time>2026-04-29T09:02:15.816Z</time></trkpt><trkpt lat="44.6636001" lon="9.4386901"><ele>989.4</ele><time>2026-04-29T09:02:16.815Z</time></trkpt><trkpt lat="44.6637116" lon="9.4387368"><ele>992.8</ele><time>2026-04-29T09:02:17.814Z</time></trkpt><trkpt lat="44.6638121" lon="9.438791"><ele>996.1999999999999</ele><time>2026-04-29T09:02:18.813Z</time></trkpt><trkpt lat="44.6638992" lon="9.4388657"><ele>999.5999999999999</ele><time>2026-04-29T09:02:19.814Z</time></trkpt><trkpt lat="44.6639489" lon="9.4389684"><ele>1003.0</ele><time>2026-04-29T09:02:20.814Z</time></trkpt><trkpt lat="44.6639647" lon="9.4390905"><ele>1003.0</ele><time>2026-04-29T09:02:21.814Z</time></trkpt><trkpt lat="44.6639359" lon="9.4392089"><ele>1003.0</ele><time>2026-04-29T09:02:22.815Z</time></trkpt><trkpt lat="44.663876" lon="9.4393314"><ele>1003.0</ele><time>2026-04-29T09:02:23.816Z</time></trkpt><trkpt lat="44.6637895" lon="9.4394684"><ele>1003.0</ele><time>2026-04-29T09:02:24.816Z</time></trkpt><trkpt lat="44.663685" lon="9.4396276"><ele>999.75</ele><time>2026-04-29T09:02:25.813Z</time></trkpt><trkpt lat="44.6635837" lon="9.4397851"><ele>996.5</ele><time>2026-04-29T09:02:26.815Z</time></trkpt><trkpt lat="44.6635013" lon="9.4399248"><ele>993.25</ele><time>2026-04-29T09:02:27.816Z</time></trkpt><trkpt lat="44.6634388" lon="9.4400717"><ele>990.0</ele><time>2026-04-29T09:02:28.817Z</time></trkpt><trkpt lat="44.6634089" lon="9.4402475"><ele>990.0</ele><time>2026-04-29T09:02:29.818Z</time></trkpt><trkpt lat="44.6633967" lon="9.4404517"><ele>990.0</ele><time>2026-04-29T09:02:30.816Z</time></trkpt><trkpt lat="44.663392" lon="9.4406656"><ele>990.0</ele><time>2026-04-29T09:02:31.814Z</time></trkpt><trkpt lat="44.6633591" lon="9.4408445"><ele>990.0</ele><time>2026-04-29T09:02:32.816Z</time></trkpt><trkpt lat="44.6632986" lon="9.4410254"><ele>993.0</ele><time>2026-04-29T09:02:33.816Z</time></trkpt><trkpt lat="44.6632269" lon="9.4411862"><ele>996.0</ele><time>2026-04-29T09:02:34.815Z</time></trkpt><trkpt lat="44.6631477" lon="9.4412937"><ele>999.0</ele><time>2026-04-29T09:02:35.814Z</time></trkpt><trkpt lat="44.6630479" lon="9.4413484"><ele>1002.0</ele><time>2026-04-29T09:02:36.816Z</time></trkpt><trkpt lat="44.6629407" lon="9.4413489"><ele>1001.6</ele><time>2026-04-29T09:02:37.816Z</time></trkpt><trkpt lat="44.6628358" lon="9.4413036"><ele>1001.2</ele><time>2026-04-29T09:02:38.814Z</time></trkpt><trkpt lat="44.6627364" lon="9.441247"><ele>1000.8</ele><time>2026-04-29T09:02:39.817Z</time></trkpt><trkpt lat="44.6626469" lon="9.4412258"><ele>1000.4</ele><time>2026-04-29T09:02:40.814Z</time></trkpt><trkpt lat="44.6625668" lon="9.4412527"><ele>1000.0</ele><time>2026-04-29T09:02:41.815Z</time></trkpt><trkpt lat="44.662509" lon="9.4413279"><ele>1000.0</ele><time>2026-04-29T09:02:42.815Z</time></trkpt><trkpt lat="44.6624684" lon="9.4414494"><ele>1000.0</ele><time>2026-04-29T09:02:43.815Z</time></trkpt><trkpt lat="44.6624342" lon="9.4416124"><ele>1000.0</ele><time>2026-04-29T09:02:44.816Z</time></trkpt><trkpt lat="44.6623979" lon="9.441802"><ele>1000.0</ele><time>2026-04-29T09:02:45.816Z</time></trkpt><trkpt lat="44.6623562" lon="9.442012"><ele>1004.0</ele><time>2026-04-29T09:02:46.816Z</time></trkpt><trkpt lat="44.6623101" lon="9.4422428"><ele>1008.0</ele><time>2026-04-29T09:02:47.817Z</time></trkpt><trkpt lat="44.6622609" lon="9.4424885"><ele>1012.0</ele><time>2026-04-29T09:02:48.814Z</time></trkpt><trkpt lat="44.6622132" lon="9.4427219"><ele>1012.0</ele><time>2026-04-29T09:02:49.813Z</time></trkpt><trkpt lat="44.6621727" lon="9.4429309"><ele>1012.0</ele><time>2026-04-29T09:02:50.812Z</time></trkpt><trkpt lat="44.6621482" lon="9.4431344"><ele>1012.0</ele><time>2026-04-29T09:02:51.814Z</time></trkpt><trkpt lat="44.6621497" lon="9.4433406"><ele>1012.0</ele><time>2026-04-29T09:02:52.813Z</time></trkpt><trkpt lat="44.6621688" lon="9.443551"><ele>1013.0</ele><time>2026-04-29T09:02:53.813Z</time></trkpt><trkpt lat="44.6621878" lon="9.4437476"><ele>1014.0</ele><time>2026-04-29T09:02:54.816Z</time></trkpt><trkpt lat="44.6621867" lon="9.4439204"><ele>1015.0</ele><time>2026-04-29T09:02:55.819Z</time></trkpt><trkpt lat="44.6621421" lon="9.4440713"><ele>1016.0</ele><time>2026-04-29T09:02:56.815Z</time></trkpt><trkpt lat="44.6620662" lon="9.4441906"><ele>1016.4</ele><time>2026-04-29T09:02:57.814Z</time></trkpt><trkpt lat="44.6619655" lon="9.4442654"><ele>1016.8</ele><time>2026-04-29T09:02:58.814Z</time></trkpt><trkpt lat="44.661862" lon="9.4442796"><ele>1017.1999999999999</ele><time>2026-04-29T09:02:59.813Z</time></trkpt><trkpt lat="44.6617681" lon="9.4442313"><ele>1017.5999999999999</ele><time>2026-04-29T09:03:00.815Z</time></trkpt><trkpt lat="44.6616918" lon="9.4441301"><ele>1018.0</ele><time>2026-04-29T09:03:01.815Z</time></trkpt><trkpt lat="44.6616265" lon="9.443997"><ele>1016.25</ele><time>2026-04-29T09:03:02.815Z</time></trkpt><trkpt lat="44.6615525" lon="9.4438615"><ele>1014.5</ele><time>2026-04-29T09:03:03.815Z</time></trkpt><trkpt lat="44.6614629" lon="9.4437748"><ele>1012.75</ele><time>2026-04-29T09:03:04.819Z</time></trkpt><trkpt lat="44.6613535" lon="9.4437303"><ele>1011.0</ele><time>2026-04-29T09:03:05.814Z</time></trkpt><trkpt lat="44.6612268" lon="9.4437247"><ele>1006.3333333333333</ele><time>2026-04-29T09:03:06.816Z</time></trkpt><trkpt lat="44.661078" lon="9.4437341"><ele>1001.6666666666666</ele><time>2026-04-29T09:03:07.816Z</time></trkpt><trkpt lat="44.6609123" lon="9.4437453"><ele>997.0</ele><time>2026-04-29T09:03:08.815Z</time></trkpt><trkpt lat="44.6607368" lon="9.44376"><ele>997.0</ele><time>2026-04-29T09:03:09.814Z</time></trkpt><trkpt lat="44.6605669" lon="9.4437733"><ele>997.0</ele><time>2026-04-29T09:03:10.815Z</time></trkpt><trkpt lat="44.6604143" lon="9.4437863"><ele>997.0</ele><time>2026-04-29T09:03:11.815Z</time></trkpt><trkpt lat="44.6602801" lon="9.4438128"><ele>1002.6666666666666</ele><time>2026-04-29T09:03:12.818Z</time></trkpt><trkpt lat="44.6601513" lon="9.443893"><ele>1008.3333333333333</ele><time>2026-04-29T09:03:13.815Z</time></trkpt><trkpt lat="44.6600229" lon="9.4440101"><ele>1014.0</ele><time>2026-04-29T09:03:14.815Z</time></trkpt><trkpt lat="44.6598925" lon="9.4441587"><ele>1014.0</ele><time>2026-04-29T09:03:15.815Z</time></trkpt><trkpt lat="44.6597611" lon="9.4443212"><ele>1014.0</ele><time>2026-04-29T09:03:16.813Z</time></trkpt><trkpt lat="44.6596313" lon="9.4444905"><ele>1014.0</ele><time>2026-04-29T09:03:17.813Z</time></trkpt><trkpt lat="44.6595057" lon="9.4446397"><ele>1014.3333333333333</ele><time>2026-04-29T09:03:18.817Z</time></trkpt><trkpt lat="44.6593794" lon="9.4447835"><ele>1014.6666666666666</ele><time>2026-04-29T09:03:19.816Z</time></trkpt><trkpt lat="44.6592566" lon="9.4449294"><ele>1015.0</ele><time>2026-04-29T09:03:20.815Z</time></trkpt><trkpt lat="44.6591331" lon="9.4450723"><ele>1015.0</ele><time>2026-04-29T09:03:21.814Z</time></trkpt><trkpt lat="44.6589978" lon="9.4451831"><ele>1015.0</ele><time>2026-04-29T09:03:22.814Z</time></trkpt><trkpt lat="44.6588514" lon="9.4452666"><ele>1015.0</ele><time>2026-04-29T09:03:23.815Z</time></trkpt><trkpt lat="44.6586916" lon="9.4453121"><ele>1016.3333333333333</ele><time>2026-04-29T09:03:24.819Z</time></trkpt><trkpt lat="44.6585201" lon="9.4453353"><ele>1017.6666666666667</ele><time>2026-04-29T09:03:25.816Z</time></trkpt><trkpt lat="44.6583572" lon="9.4453541"><ele>1019.0</ele><time>2026-04-29T09:03:26.816Z</time></trkpt><trkpt lat="44.6581996" lon="9.4453516"><ele>1019.0</ele><time>2026-04-29T09:03:27.816Z</time></trkpt><trkpt lat="44.6580479" lon="9.4453155"><ele>1019.0</ele><time>2026-04-29T09:03:28.815Z</time></trkpt><trkpt lat="44.657909" lon="9.4452639"><ele>1019.0</ele><time>2026-04-29T09:03:29.816Z</time></trkpt><trkpt lat="44.6577649" lon="9.4452382"><ele>1019.0</ele><time>2026-04-29T09:03:30.815Z</time></trkpt><trkpt lat="44.6576071" lon="9.4452509"><ele>1020.6666666666667</ele><time>2026-04-29T09:03:31.815Z</time></trkpt><trkpt lat="44.657443" lon="9.4452855"><ele>1022.3333333333333</ele><time>2026-04-29T09:03:32.816Z</time></trkpt><trkpt lat="44.6572771" lon="9.4453278"><ele>1024.0</ele><time>2026-04-29T09:03:33.814Z</time></trkpt><trkpt lat="44.6571249" lon="9.4453678"><ele>1024.0</ele><time>2026-04-29T09:03:34.816Z</time></trkpt><trkpt lat="44.6569935" lon="9.4454113"><ele>1024.0</ele><time>2026-04-29T09:03:35.815Z</time></trkpt><trkpt lat="44.6568771" lon="9.4455004"><ele>1024.0</ele><time>2026-04-29T09:03:36.815Z</time></trkpt><trkpt lat="44.6567767" lon="9.4456218"><ele>1024.0</ele><time>2026-04-29T09:03:37.814Z</time></trkpt><trkpt lat="44.6566822" lon="9.4457486"><ele>1027.25</ele><time>2026-04-29T09:03:38.814Z</time></trkpt><trkpt lat="44.6565719" lon="9.4458474"><ele>1030.5</ele><time>2026-04-29T09:03:39.815Z</time></trkpt><trkpt lat="44.6564434" lon="9.4458896"><ele>1033.75</ele><time>2026-04-29T09:03:40.816Z</time></trkpt><trkpt lat="44.6563145" lon="9.445881"><ele>1037.0</ele><time>2026-04-29T09:03:41.815Z</time></trkpt><trkpt lat="44.6561871" lon="9.4458723"><ele>1035.75</ele><time>2026-04-29T09:03:42.815Z</time></trkpt><trkpt lat="44.6560628" lon="9.4459176"><ele>1034.5</ele><time>2026-04-29T09:03:43.816Z</time></trkpt><trkpt lat="44.6559388" lon="9.4460081"><ele>1033.25</ele><time>2026-04-29T09:03:44.814Z</time></trkpt><trkpt lat="44.6558216" lon="9.4461236"><ele>1032.0</ele><time>2026-04-29T09:03:45.815Z</time></trkpt><trkpt lat="44.6557225" lon="9.4462537"><ele>1035.0</ele><time>2026-04-29T09:03:46.816Z</time></trkpt><trkpt lat="44.6556589" lon="9.4464152"><ele>1038.0</ele><time>2026-04-29T09:03:47.815Z</time></trkpt><trkpt lat="44.6556268" lon="9.4466052"><ele>1041.0</ele><time>2026-04-29T09:03:48.813Z</time></trkpt><trkpt lat="44.655635" lon="9.4468187"><ele>1044.0</ele><time>2026-04-29T09:03:49.814Z</time></trkpt><trkpt lat="44.6556536" lon="9.4470465"><ele>1045.25</ele><time>2026-04-29T09:03:50.813Z</time></trkpt><trkpt lat="44.6556734" lon="9.4472562"><ele>1046.5</ele><time>2026-04-29T09:03:51.815Z</time></trkpt><trkpt lat="44.6556826" lon="9.4474459"><ele>1047.75</ele><time>2026-04-29T09:03:52.815Z</time></trkpt><trkpt lat="44.6556702" lon="9.4476186"><ele>1049.0</ele><time>2026-04-29T09:03:53.816Z</time></trkpt><trkpt lat="44.6556229" lon="9.4477612"><ele>1049.0</ele><time>2026-04-29T09:03:54.816Z</time></trkpt><trkpt lat="44.6555461" lon="9.447857"><ele>1049.0</ele><time>2026-04-29T09:03:55.815Z</time></trkpt><trkpt lat="44.65545" lon="9.447903"><ele>1049.0</ele><time>2026-04-29T09:03:56.815Z</time></trkpt><trkpt lat="44.6553339" lon="9.4479153"><ele>1049.0</ele><time>2026-04-29T09:03:57.816Z</time></trkpt><trkpt lat="44.6552025" lon="9.4479358"><ele>1050.0</ele><time>2026-04-29T09:03:58.815Z</time></trkpt><trkpt lat="44.6550673" lon="9.4479772"><ele>1051.0</ele><time>2026-04-29T09:03:59.816Z</time></trkpt><trkpt lat="44.6549221" lon="9.4480351"><ele>1052.0</ele><time>2026-04-29T09:04:00.815Z</time></trkpt><trkpt lat="44.6547815" lon="9.4481057"><ele>1053.0</ele><time>2026-04-29T09:04:01.815Z</time></trkpt><trkpt lat="44.6546589" lon="9.4481794"><ele>1053.0</ele><time>2026-04-29T09:04:02.815Z</time></trkpt><trkpt lat="44.6545537" lon="9.4482693"><ele>1053.0</ele><time>2026-04-29T09:04:03.815Z</time></trkpt><trkpt lat="44.6544688" lon="9.4483948"><ele>1053.0</ele><time>2026-04-29T09:04:04.815Z</time></trkpt><trkpt lat="44.6544012" lon="9.4485526"><ele>1053.0</ele><time>2026-04-29T09:04:05.814Z</time></trkpt><trkpt lat="44.6543378" lon="9.4487332"><ele>1053.0</ele><time>2026-04-29T09:04:06.816Z</time></trkpt><trkpt lat="44.6542763" lon="9.4489317"><ele>1053.0</ele><time>2026-04-29T09:04:07.816Z</time></trkpt><trkpt lat="44.6542158" lon="9.4491476"><ele>1053.0</ele><time>2026-04-29T09:04:08.815Z</time></trkpt><trkpt lat="44.6541556" lon="9.449371"><ele>1053.0</ele><time>2026-04-29T09:04:09.813Z</time></trkpt><trkpt lat="44.6540979" lon="9.4496072"><ele>1053.0</ele><time>2026-04-29T09:04:10.815Z</time></trkpt><trkpt lat="44.6540516" lon="9.4498343"><ele>1053.0</ele><time>2026-04-29T09:04:11.815Z</time></trkpt><trkpt lat="44.6540168" lon="9.4500363"><ele>1054.6</ele><time>2026-04-29T09:04:12.814Z</time></trkpt><trkpt lat="44.6539887" lon="9.4502149"><ele>1056.1999999999998</ele><time>2026-04-29T09:04:13.816Z</time></trkpt><trkpt lat="44.6539651" lon="9.4503673"><ele>1057.8</ele><time>2026-04-29T09:04:14.815Z</time></trkpt><trkpt lat="44.6539486" lon="9.4504863"><ele>1059.3999999999999</ele><time>2026-04-29T09:04:15.815Z</time></trkpt><trkpt lat="44.6539393" lon="9.450584"><ele>1061.0</ele><time>2026-04-29T09:04:16.815Z</time></trkpt><trkpt lat="44.6539375" lon="9.4507353"><ele>1061.0</ele><time>2026-04-29T09:04:18.814Z</time></trkpt><trkpt lat="44.6539387" lon="9.4508497"><ele>1061.0</ele><time>2026-04-29T09:04:21.815Z</time></trkpt><trkpt lat="44.6539248" lon="9.4509679"><ele>1061.0</ele><time>2026-04-29T09:05:23.816Z</time></trkpt><trkpt lat="44.6538855" lon="9.4510702"><ele>1061.0</ele><time>2026-04-29T09:05:26.814Z</time></trkpt><trkpt lat="44.6538351" lon="9.451175"><ele>1061.0</ele><time>2026-04-29T09:05:28.815Z</time></trkpt><trkpt lat="44.6537557" lon="9.4512585"><ele>1061.0</ele><time>2026-04-29T09:05:30.815Z</time></trkpt><trkpt lat="44.6536579" lon="9.451313"><ele>1059.2</ele><time>2026-04-29T09:05:32.814Z</time></trkpt><trkpt lat="44.6535545" lon="9.4513402"><ele>1057.3999999999999</ele><time>2026-04-29T09:05:34.815Z</time></trkpt><trkpt lat="44.6534446" lon="9.4513521"><ele>1055.6</ele><time>2026-04-29T09:05:36.816Z</time></trkpt><trkpt lat="44.6533257" lon="9.4513678"><ele>1053.8</ele><time>2026-04-29T09:05:38.815Z</time></trkpt><trkpt lat="44.6532581" lon="9.451383"><ele>1052.0</ele><time>2026-04-29T09:05:39.816Z</time></trkpt><trkpt lat="44.6531877" lon="9.451387"><ele>1052.0</ele><time>2026-04-29T09:05:40.818Z</time></trkpt><trkpt lat="44.6531122" lon="9.4513802"><ele>1052.0</ele><time>2026-04-29T09:05:41.814Z</time></trkpt><trkpt lat="44.653035" lon="9.4513714"><ele>1052.0</ele><time>2026-04-29T09:05:42.818Z</time></trkpt><trkpt lat="44.6529587" lon="9.4513648"><ele>1052.0</ele><time>2026-04-29T09:05:43.817Z</time></trkpt><trkpt lat="44.6528806" lon="9.4513793"><ele>1052.0</ele><time>2026-04-29T09:05:44.816Z</time></trkpt><trkpt lat="44.6528087" lon="9.4514208"><ele>1052.0</ele><time>2026-04-29T09:05:45.818Z</time></trkpt><trkpt lat="44.6527282" lon="9.4514664"><ele>1053.6</ele><time>2026-04-29T09:05:46.819Z</time></trkpt><trkpt lat="44.6526462" lon="9.4515191"><ele>1055.2</ele><time>2026-04-29T09:05:47.818Z</time></trkpt><trkpt lat="44.6525582" lon="9.4515795"><ele>1056.8</ele><time>2026-04-29T09:05:48.818Z</time></trkpt><trkpt lat="44.6524726" lon="9.4516303"><ele>1058.4</ele><time>2026-04-29T09:05:49.816Z</time></trkpt><trkpt lat="44.6523847" lon="9.451675"><ele>1060.0</ele><time>2026-04-29T09:05:50.817Z</time></trkpt><trkpt lat="44.6523013" lon="9.4517173"><ele>1060.0</ele><time>2026-04-29T09:05:51.816Z</time></trkpt><trkpt lat="44.6522254" lon="9.4517478"><ele>1060.0</ele><time>2026-04-29T09:05:52.818Z</time></trkpt><trkpt lat="44.652159" lon="9.4517576"><ele>1060.0</ele><time>2026-04-29T09:05:53.816Z</time></trkpt><trkpt lat="44.6520885" lon="9.4517633"><ele>1060.0</ele><time>2026-04-29T09:05:54.817Z</time></trkpt><trkpt lat="44.652015" lon="9.4517532"><ele>1060.0</ele><time>2026-04-29T09:05:55.818Z</time></trkpt><trkpt lat="44.6519388" lon="9.4517259"><ele>1060.0</ele><time>2026-04-29T09:05:56.817Z</time></trkpt><trkpt lat="44.6518612" lon="9.4516824"><ele>1062.0</ele><time>2026-04-29T09:05:57.816Z</time></trkpt><trkpt lat="44.6517798" lon="9.4516374"><ele>1064.0</ele><time>2026-04-29T09:05:58.817Z</time></trkpt><trkpt lat="44.6516843" lon="9.4516097"><ele>1066.0</ele><time>2026-04-29T09:05:59.815Z</time></trkpt><trkpt lat="44.6515816" lon="9.4516054"><ele>1068.0</ele><time>2026-04-29T09:06:00.818Z</time></trkpt><trkpt lat="44.6514782" lon="9.4516164"><ele>1070.0</ele><time>2026-04-29T09:06:01.818Z</time></trkpt><trkpt lat="44.6513761" lon="9.4516149"><ele>1070.0</ele><time>2026-04-29T09:06:02.815Z</time></trkpt><trkpt lat="44.6512715" lon="9.451597"><ele>1070.0</ele><time>2026-04-29T09:06:03.814Z</time></trkpt><trkpt lat="44.6511716" lon="9.4515452"><ele>1070.0</ele><time>2026-04-29T09:06:04.816Z</time></trkpt><trkpt lat="44.6510775" lon="9.4514647"><ele>1070.0</ele><time>2026-04-29T09:06:05.817Z</time></trkpt><trkpt lat="44.6509797" lon="9.4513675"><ele>1070.0</ele><time>2026-04-29T09:06:06.815Z</time></trkpt><trkpt lat="44.6508786" lon="9.4512586"><ele>1072.5</ele><time>2026-04-29T09:06:07.817Z</time></trkpt><trkpt lat="44.6507847" lon="9.4511499"><ele>1075.0</ele><time>2026-04-29T09:06:08.817Z</time></trkpt><trkpt lat="44.6506957" lon="9.4510404"><ele>1077.5</ele><time>2026-04-29T09:06:09.816Z</time></trkpt><trkpt lat="44.6506085" lon="9.4509423"><ele>1080.0</ele><time>2026-04-29T09:06:10.815Z</time></trkpt><trkpt lat="44.6505215" lon="9.4508667"><ele>1080.0</ele><time>2026-04-29T09:06:11.819Z</time></trkpt><trkpt lat="44.6504276" lon="9.450813"><ele>1080.0</ele><time>2026-04-29T09:06:12.816Z</time></trkpt><trkpt lat="44.6503214" lon="9.4507744"><ele>1080.0</ele><time>2026-04-29T09:06:13.818Z</time></trkpt><trkpt lat="44.6501975" lon="9.4507526"><ele>1080.0</ele><time>2026-04-29T09:06:14.817Z</time></trkpt><trkpt lat="44.6500614" lon="9.450737"><ele>1077.0</ele><time>2026-04-29T09:06:15.816Z</time></trkpt><trkpt lat="44.6499227" lon="9.4507149"><ele>1074.0</ele><time>2026-04-29T09:06:16.815Z</time></trkpt><trkpt lat="44.6497776" lon="9.4506866"><ele>1071.0</ele><time>2026-04-29T09:06:17.817Z</time></trkpt><trkpt lat="44.6496403" lon="9.450664"><ele>1068.0</ele><time>2026-04-29T09:06:18.818Z</time></trkpt><trkpt lat="44.6495123" lon="9.4506588"><ele>1067.8</ele><time>2026-04-29T09:06:19.818Z</time></trkpt><trkpt lat="44.6493935" lon="9.4506731"><ele>1067.6</ele><time>2026-04-29T09:06:20.819Z</time></trkpt><trkpt lat="44.6492818" lon="9.4506984"><ele>1067.4</ele><time>2026-04-29T09:06:21.816Z</time></trkpt><trkpt lat="44.6491737" lon="9.4507165"><ele>1067.2</ele><time>2026-04-29T09:06:22.817Z</time></trkpt><trkpt lat="44.6490683" lon="9.4507119"><ele>1067.0</ele><time>2026-04-29T09:06:23.815Z</time></trkpt><trkpt lat="44.6489689" lon="9.4506928"><ele>1067.0</ele><time>2026-04-29T09:06:24.816Z</time></trkpt><trkpt lat="44.6488764" lon="9.4506667"><ele>1067.0</ele><time>2026-04-29T09:06:25.819Z</time></trkpt><trkpt lat="44.648791" lon="9.4506429"><ele>1067.0</ele><time>2026-04-29T09:06:26.818Z</time></trkpt><trkpt lat="44.6487129" lon="9.4506311"><ele>1067.0</ele><time>2026-04-29T09:06:27.817Z</time></trkpt><trkpt lat="44.6486451" lon="9.4506312"><ele>1067.0</ele><time>2026-04-29T09:06:28.815Z</time></trkpt><trkpt lat="44.6485755" lon="9.4506645"><ele>1067.0</ele><time>2026-04-29T09:06:29.816Z</time></trkpt><trkpt lat="44.648509" lon="9.4507308"><ele>1067.8</ele><time>2026-04-29T09:06:30.815Z</time></trkpt><trkpt lat="44.6484402" lon="9.4508127"><ele>1068.6</ele><time>2026-04-29T09:06:31.817Z</time></trkpt><trkpt lat="44.6483685" lon="9.4508907"><ele>1069.3999999999999</ele><time>2026-04-29T09:06:32.819Z</time></trkpt><trkpt lat="44.648283" lon="9.4509546"><ele>1070.2</ele><time>2026-04-29T09:06:33.818Z</time></trkpt><trkpt lat="44.6481773" lon="9.451009"><ele>1071.0</ele><time>2026-04-29T09:06:34.815Z</time></trkpt><trkpt lat="44.6480799" lon="9.451052"><ele>1071.0</ele><time>2026-04-29T09:06:35.815Z</time></trkpt><trkpt lat="44.6479935" lon="9.4510981"><ele>1071.0</ele><time>2026-04-29T09:06:36.815Z</time></trkpt><trkpt lat="44.6479226" lon="9.4511639"><ele>1071.0</ele><time>2026-04-29T09:06:37.819Z</time></trkpt><trkpt lat="44.6478732" lon="9.45125"><ele>1071.0</ele><time>2026-04-29T09:06:38.815Z</time></trkpt><trkpt lat="44.647839" lon="9.4513523"><ele>1071.0</ele><time>2026-04-29T09:06:39.816Z</time></trkpt><trkpt lat="44.6478072" lon="9.4514806"><ele>1071.0</ele><time>2026-04-29T09:06:40.817Z</time></trkpt><trkpt lat="44.6477754" lon="9.4516308"><ele>1071.6</ele><time>2026-04-29T09:06:41.817Z</time></trkpt><trkpt lat="44.6477396" lon="9.4517834"><ele>1072.1999999999998</ele><time>2026-04-29T09:06:42.813Z</time></trkpt><trkpt lat="44.6477045" lon="9.4519185"><ele>1072.8000000000002</ele><time>2026-04-29T09:06:43.815Z</time></trkpt><trkpt lat="44.6476652" lon="9.4520467"><ele>1073.4</ele><time>2026-04-29T09:06:44.815Z</time></trkpt><trkpt lat="44.6476191" lon="9.4521542"><ele>1074.0</ele><time>2026-04-29T09:06:45.816Z</time></trkpt><trkpt lat="44.647572" lon="9.4522503"><ele>1074.0</ele><time>2026-04-29T09:06:46.817Z</time></trkpt><trkpt lat="44.6475356" lon="9.4523538"><ele>1074.0</ele><time>2026-04-29T09:06:47.816Z</time></trkpt><trkpt lat="44.6475093" lon="9.4524602"><ele>1074.0</ele><time>2026-04-29T09:06:48.816Z</time></trkpt><trkpt lat="44.6474997" lon="9.4525762"><ele>1074.0</ele><time>2026-04-29T09:06:49.815Z</time></trkpt><trkpt lat="44.6475062" lon="9.4526937"><ele>1074.0</ele><time>2026-04-29T09:06:50.815Z</time></trkpt><trkpt lat="44.6475189" lon="9.4528013"><ele>1074.0</ele><time>2026-04-29T09:06:51.817Z</time></trkpt><trkpt lat="44.6475248" lon="9.4529011"><ele>1072.0</ele><time>2026-04-29T09:06:52.815Z</time></trkpt><trkpt lat="44.6475066" lon="9.4529953"><ele>1070.0</ele><time>2026-04-29T09:06:53.816Z</time></trkpt><trkpt lat="44.6474622" lon="9.4530683"><ele>1068.0</ele><time>2026-04-29T09:06:54.816Z</time></trkpt><trkpt lat="44.6474005" lon="9.4531187"><ele>1066.0</ele><time>2026-04-29T09:06:55.814Z</time></trkpt><trkpt lat="44.6473354" lon="9.4531838"><ele>1064.0</ele><time>2026-04-29T09:06:56.815Z</time></trkpt><trkpt lat="44.6472812" lon="9.4532738"><ele>1062.0</ele><time>2026-04-29T09:06:57.819Z</time></trkpt><trkpt lat="44.6472426" lon="9.453386"><ele>1062.0</ele><time>2026-04-29T09:06:58.819Z</time></trkpt><trkpt lat="44.6472112" lon="9.4535158"><ele>1062.0</ele><time>2026-04-29T09:06:59.819Z</time></trkpt><trkpt lat="44.6471718" lon="9.4536466"><ele>1062.0</ele><time>2026-04-29T09:07:00.817Z</time></trkpt><trkpt lat="44.6471296" lon="9.4537694"><ele>1062.0</ele><time>2026-04-29T09:07:01.815Z</time></trkpt><trkpt lat="44.6470993" lon="9.4538924"><ele>1062.0</ele><time>2026-04-29T09:07:02.816Z</time></trkpt><trkpt lat="44.6470834" lon="9.4540231"><ele>1064.4</ele><time>2026-04-29T09:07:03.817Z</time></trkpt><trkpt lat="44.6470543" lon="9.4541416"><ele>1066.8000000000002</ele><time>2026-04-29T09:07:04.818Z</time></trkpt><trkpt lat="44.647014" lon="9.4542573"><ele>1069.2</ele><time>2026-04-29T09:07:05.817Z</time></trkpt><trkpt lat="44.6469658" lon="9.4543763"><ele>1071.6000000000001</ele><time>2026-04-29T09:07:06.816Z</time></trkpt><trkpt lat="44.646913" lon="9.4544999"><ele>1074.0</ele><time>2026-04-29T09:07:07.815Z</time></trkpt><trkpt lat="44.6468603" lon="9.4546122"><ele>1070.6000000000001</ele><time>2026-04-29T09:07:08.816Z</time></trkpt><trkpt lat="44.646809" lon="9.4547234"><ele>1067.2</ele><time>2026-04-29T09:07:09.819Z</time></trkpt><trkpt lat="44.6467565" lon="9.454821"><ele>1063.8000000000002</ele><time>2026-04-29T09:07:10.815Z</time></trkpt><trkpt lat="44.6466904" lon="9.4548988"><ele>1060.4</ele><time>2026-04-29T09:07:11.816Z</time></trkpt><trkpt lat="44.6466102" lon="9.4549471"><ele>1057.0</ele><time>2026-04-29T09:07:12.815Z</time></trkpt><trkpt lat="44.6465163" lon="9.4549713"><ele>1057.0</ele><time>2026-04-29T09:07:13.817Z</time></trkpt><trkpt lat="44.646407" lon="9.454984"><ele>1057.0</ele><time>2026-04-29T09:07:14.816Z</time></trkpt><trkpt lat="44.6463006" lon="9.454999"><ele>1057.0</ele><time>2026-04-29T09:07:15.815Z</time></trkpt><trkpt lat="44.6461983" lon="9.455016"><ele>1057.0</ele><time>2026-04-29T09:07:16.817Z</time></trkpt><trkpt lat="44.6461001" lon="9.4550121"><ele>1057.0</ele><time>2026-04-29T09:07:17.815Z</time></trkpt><trkpt lat="44.6460137" lon="9.455005"><ele>1057.3333333333333</ele><time>2026-04-29T09:07:18.818Z</time></trkpt><trkpt lat="44.6459476" lon="9.4550272"><ele>1057.6666666666665</ele><time>2026-04-29T09:07:19.817Z</time></trkpt><trkpt lat="44.6458661" lon="9.455138"><ele>1058.0</ele><time>2026-04-29T09:07:21.815Z</time></trkpt><trkpt lat="44.6458113" lon="9.455297"><ele>1058.3333333333333</ele><time>2026-04-29T09:07:23.816Z</time></trkpt><trkpt lat="44.6457612" lon="9.4553652"><ele>1058.6666666666667</ele><time>2026-04-29T09:07:24.818Z</time></trkpt><trkpt lat="44.6457073" lon="9.4554132"><ele>1059.0</ele><time>2026-04-29T09:07:25.817Z</time></trkpt><trkpt lat="44.6455767" lon="9.4554392"><ele>1059.0</ele><time>2026-04-29T09:07:27.819Z</time></trkpt><trkpt lat="44.6454998" lon="9.4554257"><ele>1059.0</ele><time>2026-04-29T09:07:28.816Z</time></trkpt><trkpt lat="44.645425" lon="9.4553984"><ele>1059.0</ele><time>2026-04-29T09:07:29.815Z</time></trkpt><trkpt lat="44.6453533" lon="9.4553768"><ele>1059.0</ele><time>2026-04-29T09:07:30.817Z</time></trkpt><trkpt lat="44.6452819" lon="9.4553952"><ele>1059.0</ele><time>2026-04-29T09:07:31.819Z</time></trkpt><trkpt lat="44.6452302" lon="9.4554632"><ele>1059.0</ele><time>2026-04-29T09:07:32.815Z</time></trkpt><trkpt lat="44.6452132" lon="9.4555559"><ele>1059.0</ele><time>2026-04-29T09:07:33.814Z</time></trkpt><trkpt lat="44.6452131" lon="9.4556646"><ele>1056.8</ele><time>2026-04-29T09:07:34.816Z</time></trkpt><trkpt lat="44.6452024" lon="9.4557708"><ele>1054.6000000000001</ele><time>2026-04-29T09:07:35.817Z</time></trkpt><trkpt lat="44.6451659" lon="9.4558662"><ele>1052.4</ele><time>2026-04-29T09:07:36.816Z</time></trkpt><trkpt lat="44.645105" lon="9.4559541"><ele>1050.2</ele><time>2026-04-29T09:07:37.815Z</time></trkpt><trkpt lat="44.6450218" lon="9.4560397"><ele>1048.0</ele><time>2026-04-29T09:07:38.816Z</time></trkpt><trkpt lat="44.6449195" lon="9.4561418"><ele>1048.0</ele><time>2026-04-29T09:07:39.817Z</time></trkpt><trkpt lat="44.6448032" lon="9.4562636"><ele>1048.0</ele><time>2026-04-29T09:07:40.815Z</time></trkpt><trkpt lat="44.6446912" lon="9.4563719"><ele>1048.0</ele><time>2026-04-29T09:07:41.817Z</time></trkpt><trkpt lat="44.6445727" lon="9.4564933"><ele>1048.0</ele><time>2026-04-29T09:07:42.816Z</time></trkpt><trkpt lat="44.6444576" lon="9.4566352"><ele>1046.5</ele><time>2026-04-29T09:07:43.816Z</time></trkpt><trkpt lat="44.6443534" lon="9.4567737"><ele>1045.0</ele><time>2026-04-29T09:07:44.817Z</time></trkpt><trkpt lat="44.6442619" lon="9.4568939"><ele>1043.5</ele><time>2026-04-29T09:07:45.815Z</time></trkpt><trkpt lat="44.6441891" lon="9.4570116"><ele>1042.0</ele><time>2026-04-29T09:07:46.816Z</time></trkpt><trkpt lat="44.6441358" lon="9.4571576"><ele>1039.8</ele><time>2026-04-29T09:07:47.815Z</time></trkpt><trkpt lat="44.6440974" lon="9.4573221"><ele>1037.6</ele><time>2026-04-29T09:07:48.815Z</time></trkpt><trkpt lat="44.6440626" lon="9.4574771"><ele>1035.3999999999999</ele><time>2026-04-29T09:07:49.816Z</time></trkpt><trkpt lat="44.644018" lon="9.4576148"><ele>1033.2</ele><time>2026-04-29T09:07:50.816Z</time></trkpt><trkpt lat="44.6439573" lon="9.4577313"><ele>1031.0</ele><time>2026-04-29T09:07:51.816Z</time></trkpt><trkpt lat="44.6438823" lon="9.4578224"><ele>1031.0</ele><time>2026-04-29T09:07:52.815Z</time></trkpt><trkpt lat="44.6437991" lon="9.4578805"><ele>1031.0</ele><time>2026-04-29T09:07:53.815Z</time></trkpt><trkpt lat="44.6437106" lon="9.4579082"><ele>1031.0</ele><time>2026-04-29T09:07:54.818Z</time></trkpt><trkpt lat="44.6436397" lon="9.4578997"><ele>1031.0</ele><time>2026-04-29T09:07:55.815Z</time></trkpt><trkpt lat="44.6435744" lon="9.457861"><ele>1031.0</ele><time>2026-04-29T09:07:56.815Z</time></trkpt><trkpt lat="44.6435191" lon="9.457786"><ele>1031.0</ele><time>2026-04-29T09:07:57.816Z</time></trkpt><trkpt lat="44.6434696" lon="9.4576837"><ele>1030.3333333333335</ele><time>2026-04-29T09:07:58.816Z</time></trkpt><trkpt lat="44.6434177" lon="9.457582"><ele>1029.6666666666667</ele><time>2026-04-29T09:07:59.814Z</time></trkpt><trkpt lat="44.6433551" lon="9.4575193"><ele>1029.0</ele><time>2026-04-29T09:08:00.816Z</time></trkpt><trkpt lat="44.643286" lon="9.4574909"><ele>1028.3333333333333</ele><time>2026-04-29T09:08:01.814Z</time></trkpt><trkpt lat="44.6432112" lon="9.4575063"><ele>1027.6666666666665</ele><time>2026-04-29T09:08:02.814Z</time></trkpt><trkpt lat="44.6431337" lon="9.4575632"><ele>1027.0</ele><time>2026-04-29T09:08:03.817Z</time></trkpt><trkpt lat="44.643046" lon="9.4576446"><ele>1027.0</ele><time>2026-04-29T09:08:04.817Z</time></trkpt><trkpt lat="44.6429547" lon="9.4577308"><ele>1027.0</ele><time>2026-04-29T09:08:05.817Z</time></trkpt><trkpt lat="44.6428706" lon="9.4578027"><ele>1027.0</ele><time>2026-04-29T09:08:06.814Z</time></trkpt><trkpt lat="44.64279" lon="9.4578656"><ele>1027.0</ele><time>2026-04-29T09:08:07.815Z</time></trkpt><trkpt lat="44.6427156" lon="9.4579227"><ele>1027.0</ele><time>2026-04-29T09:08:08.815Z</time></trkpt><trkpt lat="44.6426423" lon="9.4579559"><ele>1025.8333333333333</ele><time>2026-04-29T09:08:09.816Z</time></trkpt><trkpt lat="44.6425694" lon="9.4579554"><ele>1024.6666666666665</ele><time>2026-04-29T09:08:10.817Z</time></trkpt><trkpt lat="44.6424984" lon="9.4579206"><ele>1023.5</ele><time>2026-04-29T09:08:11.816Z</time></trkpt><trkpt lat="44.6424261" lon="9.4578617"><ele>1022.3333333333333</ele><time>2026-04-29T09:08:12.814Z</time></trkpt><trkpt lat="44.6423535" lon="9.4577733"><ele>1021.1666666666666</ele><time>2026-04-29T09:08:13.814Z</time></trkpt><trkpt lat="44.64229" lon="9.4576745"><ele>1020.0</ele><time>2026-04-29T09:08:14.814Z</time></trkpt><trkpt lat="44.6422367" lon="9.4575673"><ele>1020.0</ele><time>2026-04-29T09:08:15.816Z</time></trkpt><trkpt lat="44.6421816" lon="9.457455"><ele>1020.0</ele><time>2026-04-29T09:08:16.818Z</time></trkpt><trkpt lat="44.6421268" lon="9.4573498"><ele>1020.0</ele><time>2026-04-29T09:08:17.815Z</time></trkpt><trkpt lat="44.6420717" lon="9.4572558"><ele>1020.0</ele><time>2026-04-29T09:08:18.816Z</time></trkpt><trkpt lat="44.6420168" lon="9.4571731"><ele>1020.0</ele><time>2026-04-29T09:08:19.815Z</time></trkpt><trkpt lat="44.6419627" lon="9.4571026"><ele>1020.0</ele><time>2026-04-29T09:08:20.815Z</time></trkpt><trkpt lat="44.6419054" lon="9.4570359"><ele>1020.6</ele><time>2026-04-29T09:08:21.816Z</time></trkpt><trkpt lat="44.6418436" lon="9.4569784"><ele>1021.2</ele><time>2026-04-29T09:08:22.814Z</time></trkpt><trkpt lat="44.6417825" lon="9.4569433"><ele>1021.8</ele><time>2026-04-29T09:08:23.816Z</time></trkpt><trkpt lat="44.641681" lon="9.4569723"><ele>1022.4</ele><time>2026-04-29T09:08:25.815Z</time></trkpt><trkpt lat="44.6415786" lon="9.4571009"><ele>1023.0</ele><time>2026-04-29T09:08:27.815Z</time></trkpt><trkpt lat="44.6415193" lon="9.4571759"><ele>1020.4</ele><time>2026-04-29T09:08:28.817Z</time></trkpt><trkpt lat="44.641458" lon="9.4572576"><ele>1017.8</ele><time>2026-04-29T09:08:29.818Z</time></trkpt><trkpt lat="44.6413988" lon="9.4573442"><ele>1015.2</ele><time>2026-04-29T09:08:30.815Z</time></trkpt><trkpt lat="44.6413312" lon="9.457445"><ele>1012.6</ele><time>2026-04-29T09:08:31.817Z</time></trkpt><trkpt lat="44.6412543" lon="9.4575448"><ele>1010.0</ele><time>2026-04-29T09:08:32.816Z</time></trkpt><trkpt lat="44.6411712" lon="9.4576451"><ele>1010.4</ele><time>2026-04-29T09:08:33.814Z</time></trkpt><trkpt lat="44.6410891" lon="9.4577369"><ele>1010.8</ele><time>2026-04-29T09:08:34.816Z</time></trkpt><trkpt lat="44.6410086" lon="9.4578149"><ele>1011.2</ele><time>2026-04-29T09:08:35.816Z</time></trkpt><trkpt lat="44.6409256" lon="9.4578707"><ele>1011.6</ele><time>2026-04-29T09:08:36.816Z</time></trkpt><trkpt lat="44.6408357" lon="9.4578965"><ele>1012.0</ele><time>2026-04-29T09:08:37.815Z</time></trkpt><trkpt lat="44.6407427" lon="9.4579012"><ele>1012.0</ele><time>2026-04-29T09:08:38.815Z</time></trkpt><trkpt lat="44.640642" lon="9.4578815"><ele>1012.0</ele><time>2026-04-29T09:08:39.816Z</time></trkpt><trkpt lat="44.6405269" lon="9.4578558"><ele>1012.0</ele><time>2026-04-29T09:08:40.818Z</time></trkpt><trkpt lat="44.6404074" lon="9.4578271"><ele>1012.0</ele><time>2026-04-29T09:08:41.814Z</time></trkpt><trkpt lat="44.6402927" lon="9.457799"><ele>1010.0</ele><time>2026-04-29T09:08:42.817Z</time></trkpt><trkpt lat="44.6401825" lon="9.4577745"><ele>1008.0</ele><time>2026-04-29T09:08:43.816Z</time></trkpt><trkpt lat="44.6400766" lon="9.4577497"><ele>1006.0</ele><time>2026-04-29T09:08:44.816Z</time></trkpt><trkpt lat="44.6399737" lon="9.4577281"><ele>1004.0</ele><time>2026-04-29T09:08:45.815Z</time></trkpt><trkpt lat="44.6398707" lon="9.4577088"><ele>1002.0</ele><time>2026-04-29T09:08:46.818Z</time></trkpt><trkpt lat="44.6397646" lon="9.4576883"><ele>1002.0</ele><time>2026-04-29T09:08:47.816Z</time></trkpt><trkpt lat="44.6396584" lon="9.4576801"><ele>1002.0</ele><time>2026-04-29T09:08:48.818Z</time></trkpt><trkpt lat="44.6395496" lon="9.4576827"><ele>1002.0</ele><time>2026-04-29T09:08:49.818Z</time></trkpt><trkpt lat="44.6394397" lon="9.4576934"><ele>1002.0</ele><time>2026-04-29T09:08:50.817Z</time></trkpt><trkpt lat="44.6393261" lon="9.457708"><ele>1002.0</ele><time>2026-04-29T09:08:51.817Z</time></trkpt><trkpt lat="44.6392131" lon="9.4577256"><ele>1000.5</ele><time>2026-04-29T09:08:52.816Z</time></trkpt><trkpt lat="44.6390997" lon="9.457744"><ele>999.0</ele><time>2026-04-29T09:08:53.815Z</time></trkpt><trkpt lat="44.6389862" lon="9.4577587"><ele>997.5</ele><time>2026-04-29T09:08:54.818Z</time></trkpt><trkpt lat="44.6388736" lon="9.457777"><ele>996.0</ele><time>2026-04-29T09:08:55.814Z</time></trkpt><trkpt lat="44.6387613" lon="9.4577934"><ele>996.0</ele><time>2026-04-29T09:08:56.817Z</time></trkpt><trkpt lat="44.6386544" lon="9.4578105"><ele>996.0</ele><time>2026-04-29T09:08:57.816Z</time></trkpt><trkpt lat="44.6385556" lon="9.4578278"><ele>996.0</ele><time>2026-04-29T09:08:58.816Z</time></trkpt><trkpt lat="44.6384727" lon="9.4578484"><ele>996.0</ele><time>2026-04-29T09:08:59.815Z</time></trkpt><trkpt lat="44.6383981" lon="9.4578808"><ele>996.0</ele><time>2026-04-29T09:09:00.817Z</time></trkpt><trkpt lat="44.6383354" lon="9.4579339"><ele>996.0</ele><time>2026-04-29T09:09:01.815Z</time></trkpt><trkpt lat="44.6382845" lon="9.4580109"><ele>993.1999999999999</ele><time>2026-04-29T09:09:02.816Z</time></trkpt><trkpt lat="44.6382469" lon="9.4581112"><ele>990.3999999999999</ele><time>2026-04-29T09:09:03.815Z</time></trkpt><trkpt lat="44.6382173" lon="9.4582342"><ele>987.6</ele><time>2026-04-29T09:09:04.815Z</time></trkpt><trkpt lat="44.6381837" lon="9.4583708"><ele>984.8</ele><time>2026-04-29T09:09:05.816Z</time></trkpt><trkpt lat="44.6381386" lon="9.4585127"><ele>982.0</ele><time>2026-04-29T09:09:06.816Z</time></trkpt><trkpt lat="44.6380781" lon="9.4586582"><ele>981.75</ele><time>2026-04-29T09:09:07.814Z</time></trkpt><trkpt lat="44.6380035" lon="9.4587962"><ele>981.5</ele><time>2026-04-29T09:09:08.816Z</time></trkpt><trkpt lat="44.6379244" lon="9.4589294"><ele>981.25</ele><time>2026-04-29T09:09:09.815Z</time></trkpt><trkpt lat="44.6378519" lon="9.459066"><ele>981.0</ele><time>2026-04-29T09:09:10.817Z</time></trkpt><trkpt lat="44.637784" lon="9.4592065"><ele>981.0</ele><time>2026-04-29T09:09:11.814Z</time></trkpt><trkpt lat="44.6377124" lon="9.4593402"><ele>980.9999999999999</ele><time>2026-04-29T09:09:12.815Z</time></trkpt><trkpt lat="44.6376345" lon="9.4594508"><ele>980.9999999999999</ele><time>2026-04-29T09:09:13.814Z</time></trkpt><trkpt lat="44.6375571" lon="9.4595495"><ele>981.0</ele><time>2026-04-29T09:09:14.818Z</time></trkpt><trkpt lat="44.6374821" lon="9.4596474"><ele>981.0</ele><time>2026-04-29T09:09:15.817Z</time></trkpt><trkpt lat="44.6374127" lon="9.4597544"><ele>977.8</ele><time>2026-04-29T09:09:16.815Z</time></trkpt><trkpt lat="44.6373615" lon="9.4598841"><ele>974.5999999999999</ele><time>2026-04-29T09:09:17.814Z</time></trkpt><trkpt lat="44.6373298" lon="9.4600288"><ele>971.4</ele><time>2026-04-29T09:09:18.816Z</time></trkpt><trkpt lat="44.6373093" lon="9.460156"><ele>968.2</ele><time>2026-04-29T09:09:19.815Z</time></trkpt><trkpt lat="44.6372705" lon="9.4602613"><ele>965.0</ele><time>2026-04-29T09:09:20.815Z</time></trkpt><trkpt lat="44.6372022" lon="9.460347"><ele>965.0000000000001</ele><time>2026-04-29T09:09:21.815Z</time></trkpt><trkpt lat="44.637125" lon="9.460424"><ele>965.0</ele><time>2026-04-29T09:09:22.816Z</time></trkpt><trkpt lat="44.6370469" lon="9.4604858"><ele>965.0</ele><time>2026-04-29T09:09:23.815Z</time></trkpt><trkpt lat="44.6369738" lon="9.4605499"><ele>965.0</ele><time>2026-04-29T09:09:24.816Z</time></trkpt><trkpt lat="44.6369074" lon="9.4606231"><ele>965.0000000000001</ele><time>2026-04-29T09:09:25.815Z</time></trkpt><trkpt lat="44.6368572" lon="9.4607232"><ele>965.0</ele><time>2026-04-29T09:09:26.815Z</time></trkpt><trkpt lat="44.6368221" lon="9.4608316"><ele>965.1666666666667</ele><time>2026-04-29T09:09:27.815Z</time></trkpt><trkpt lat="44.636796" lon="9.4609531"><ele>965.3333333333334</ele><time>2026-04-29T09:09:28.816Z</time></trkpt><trkpt lat="44.6367744" lon="9.4610744"><ele>965.5</ele><time>2026-04-29T09:09:29.815Z</time></trkpt><trkpt lat="44.6367563" lon="9.4611949"><ele>965.6666666666667</ele><time>2026-04-29T09:09:30.815Z</time></trkpt><trkpt lat="44.6367353" lon="9.4613168"><ele>965.8333333333334</ele><time>2026-04-29T09:09:31.814Z</time></trkpt><trkpt lat="44.6367207" lon="9.4614415"><ele>966.0</ele><time>2026-04-29T09:09:32.816Z</time></trkpt><trkpt lat="44.6367193" lon="9.461568"><ele>966.0</ele><time>2026-04-29T09:09:33.815Z</time></trkpt><trkpt lat="44.636734" lon="9.4616923"><ele>966.0</ele><time>2026-04-29T09:09:34.816Z</time></trkpt><trkpt lat="44.6367603" lon="9.4618075"><ele>966.0</ele><time>2026-04-29T09:09:35.815Z</time></trkpt><trkpt lat="44.636794" lon="9.4619211"><ele>966.0</ele><time>2026-04-29T09:09:36.815Z</time></trkpt><trkpt lat="44.6368327" lon="9.4620237"><ele>966.0</ele><time>2026-04-29T09:09:37.815Z</time></trkpt><trkpt lat="44.6368745" lon="9.4621193"><ele>966.0</ele><time>2026-04-29T09:09:38.815Z</time></trkpt><trkpt lat="44.6369205" lon="9.4622145"><ele>960.4</ele><time>2026-04-29T09:09:39.819Z</time></trkpt><trkpt lat="44.6369716" lon="9.4623275"><ele>954.8</ele><time>2026-04-29T09:09:40.817Z</time></trkpt><trkpt lat="44.6370232" lon="9.4624562"><ele>949.1999999999999</ele><time>2026-04-29T09:09:41.817Z</time></trkpt><trkpt lat="44.6370771" lon="9.4626015"><ele>943.5999999999999</ele><time>2026-04-29T09:09:42.817Z</time></trkpt><trkpt lat="44.6371368" lon="9.4627582"><ele>938.0</ele><time>2026-04-29T09:09:43.815Z</time></trkpt><trkpt lat="44.6371904" lon="9.4628931"><ele>938.6666666666667</ele><time>2026-04-29T09:09:44.816Z</time></trkpt><trkpt lat="44.637236" lon="9.4630033"><ele>939.3333333333334</ele><time>2026-04-29T09:09:45.816Z</time></trkpt><trkpt lat="44.6372788" lon="9.4630873"><ele>940.0</ele><time>2026-04-29T09:09:46.815Z</time></trkpt><trkpt lat="44.6373207" lon="9.463156"><ele>940.6666666666667</ele><time>2026-04-29T09:09:47.817Z</time></trkpt><trkpt lat="44.6373914" lon="9.4633017"><ele>941.3333333333334</ele><time>2026-04-29T09:09:49.816Z</time></trkpt><trkpt lat="44.6374192" lon="9.4633905"><ele>942.0</ele><time>2026-04-29T09:09:50.814Z</time></trkpt><trkpt lat="44.6374356" lon="9.4634779"><ele>942.0</ele><time>2026-04-29T09:09:51.813Z</time></trkpt><trkpt lat="44.6374466" lon="9.4635842"><ele>942.0</ele><time>2026-04-29T09:09:52.815Z</time></trkpt><trkpt lat="44.637452" lon="9.4637053"><ele>942.0</ele><time>2026-04-29T09:09:53.816Z</time></trkpt><trkpt lat="44.637454" lon="9.4638321"><ele>942.0</ele><time>2026-04-29T09:09:54.817Z</time></trkpt><trkpt lat="44.6374523" lon="9.4639504"><ele>942.0</ele><time>2026-04-29T09:09:55.817Z</time></trkpt><trkpt lat="44.6374447" lon="9.464064"><ele>942.0</ele><time>2026-04-29T09:09:56.816Z</time></trkpt><trkpt lat="44.6374291" lon="9.4641692"><ele>942.0</ele><time>2026-04-29T09:09:57.815Z</time></trkpt><trkpt lat="44.6373958" lon="9.4642626"><ele>942.0</ele><time>2026-04-29T09:09:58.813Z</time></trkpt><trkpt lat="44.6373559" lon="9.4643452"><ele>942.0</ele><time>2026-04-29T09:09:59.816Z</time></trkpt><trkpt lat="44.6373097" lon="9.4644391"><ele>942.0</ele><time>2026-04-29T09:10:00.817Z</time></trkpt><trkpt lat="44.6372696" lon="9.4645492"><ele>942.0</ele><time>2026-04-29T09:10:01.815Z</time></trkpt><trkpt lat="44.6372454" lon="9.4646821"><ele>942.0</ele><time>2026-04-29T09:10:02.817Z</time></trkpt><trkpt lat="44.6372347" lon="9.4648269"><ele>942.1666666666666</ele><time>2026-04-29T09:10:03.815Z</time></trkpt><trkpt lat="44.6372349" lon="9.4649795"><ele>942.3333333333333</ele><time>2026-04-29T09:10:04.819Z</time></trkpt><trkpt lat="44.6372412" lon="9.4651202"><ele>942.5</ele><time>2026-04-29T09:10:05.815Z</time></trkpt><trkpt lat="44.6372497" lon="9.4652338"><ele>942.6666666666666</ele><time>2026-04-29T09:10:06.816Z</time></trkpt><trkpt lat="44.6372765" lon="9.4653351"><ele>942.8333333333333</ele><time>2026-04-29T09:10:07.817Z</time></trkpt><trkpt lat="44.6373266" lon="9.4654117"><ele>943.0</ele><time>2026-04-29T09:10:08.814Z</time></trkpt><trkpt lat="44.6373947" lon="9.4654675"><ele>941.5999999999999</ele><time>2026-04-29T09:10:09.813Z</time></trkpt><trkpt lat="44.6374748" lon="9.4655152"><ele>940.1999999999999</ele><time>2026-04-29T09:10:10.815Z</time></trkpt><trkpt lat="44.637568" lon="9.4655703"><ele>938.8</ele><time>2026-04-29T09:10:11.815Z</time></trkpt><trkpt lat="44.6376711" lon="9.465625"><ele>937.4</ele><time>2026-04-29T09:10:12.814Z</time></trkpt><trkpt lat="44.637788" lon="9.4656681"><ele>936.0</ele><time>2026-04-29T09:10:13.816Z</time></trkpt><trkpt lat="44.6379053" lon="9.4657088"><ele>936.0</ele><time>2026-04-29T09:10:14.815Z</time></trkpt><trkpt lat="44.6380197" lon="9.4657445"><ele>936.0</ele><time>2026-04-29T09:10:15.815Z</time></trkpt><trkpt lat="44.638138" lon="9.4657845"><ele>936.0</ele><time>2026-04-29T09:10:16.815Z</time></trkpt><trkpt lat="44.6382476" lon="9.465833"><ele>936.0</ele><time>2026-04-29T09:10:17.815Z</time></trkpt><trkpt lat="44.6383444" lon="9.465887"><ele>936.0</ele><time>2026-04-29T09:10:18.814Z</time></trkpt><trkpt lat="44.6384163" lon="9.4659422"><ele>936.0</ele><time>2026-04-29T09:10:19.816Z</time></trkpt><trkpt lat="44.6384639" lon="9.4660091"><ele>936.0</ele><time>2026-04-29T09:10:20.814Z</time></trkpt><trkpt lat="44.6384871" lon="9.4660923"><ele>936.0</ele><time>2026-04-29T09:10:21.816Z</time></trkpt><trkpt lat="44.6384948" lon="9.4661918"><ele>936.0</ele><time>2026-04-29T09:10:22.813Z</time></trkpt><trkpt lat="44.6384913" lon="9.4663075"><ele>936.0</ele><time>2026-04-29T09:10:23.814Z</time></trkpt><trkpt lat="44.6384874" lon="9.46644"><ele>932.8</ele><time>2026-04-29T09:10:24.813Z</time></trkpt><trkpt lat="44.6384938" lon="9.4665713"><ele>929.5999999999999</ele><time>2026-04-29T09:10:25.813Z</time></trkpt><trkpt lat="44.638518" lon="9.4667092"><ele>926.4</ele><time>2026-04-29T09:10:26.815Z</time></trkpt><trkpt lat="44.6385602" lon="9.4668311"><ele>923.2</ele><time>2026-04-29T09:10:27.815Z</time></trkpt><trkpt lat="44.6386162" lon="9.4669332"><ele>920.0</ele><time>2026-04-29T09:10:28.815Z</time></trkpt><trkpt lat="44.6386912" lon="9.4670288"><ele>924.0</ele><time>2026-04-29T09:10:29.813Z</time></trkpt><trkpt lat="44.6387758" lon="9.4671164"><ele>928.0</ele><time>2026-04-29T09:10:30.814Z</time></trkpt><trkpt lat="44.6388705" lon="9.4671932"><ele>932.0</ele><time>2026-04-29T09:10:31.813Z</time></trkpt><trkpt lat="44.6389761" lon="9.4672742"><ele>936.0</ele><time>2026-04-29T09:10:32.815Z</time></trkpt><trkpt lat="44.6390928" lon="9.4673583"><ele>936.0</ele><time>2026-04-29T09:10:33.816Z</time></trkpt><trkpt lat="44.6392095" lon="9.4674358"><ele>936.0</ele><time>2026-04-29T09:10:34.815Z</time></trkpt><trkpt lat="44.6393248" lon="9.4675036"><ele>936.0</ele><time>2026-04-29T09:10:35.814Z</time></trkpt><trkpt lat="44.6394398" lon="9.467551"><ele>936.0</ele><time>2026-04-29T09:10:36.815Z</time></trkpt><trkpt lat="44.6395527" lon="9.4675898"><ele>933.75</ele><time>2026-04-29T09:10:37.817Z</time></trkpt><trkpt lat="44.6396686" lon="9.4676149"><ele>931.5</ele><time>2026-04-29T09:10:38.815Z</time></trkpt><trkpt lat="44.6397904" lon="9.4676159"><ele>929.25</ele><time>2026-04-29T09:10:39.815Z</time></trkpt><trkpt lat="44.6399118" lon="9.4675946"><ele>927.0</ele><time>2026-04-29T09:10:40.815Z</time></trkpt><trkpt lat="44.6400324" lon="9.4675513"><ele>927.0</ele><time>2026-04-29T09:10:41.815Z</time></trkpt><trkpt lat="44.6401598" lon="9.467506"><ele>927.0</ele><time>2026-04-29T09:10:42.815Z</time></trkpt><trkpt lat="44.6402855" lon="9.4674754"><ele>927.0</ele><time>2026-04-29T09:10:43.816Z</time></trkpt><trkpt lat="44.6404113" lon="9.4674689"><ele>927.0</ele><time>2026-04-29T09:10:44.816Z</time></trkpt><trkpt lat="44.6405384" lon="9.4674817"><ele>926.0</ele><time>2026-04-29T09:10:45.816Z</time></trkpt><trkpt lat="44.6406561" lon="9.4675107"><ele>925.0</ele><time>2026-04-29T09:10:46.817Z</time></trkpt><trkpt lat="44.6407503" lon="9.4675472"><ele>924.0</ele><time>2026-04-29T09:10:47.816Z</time></trkpt><trkpt lat="44.6408306" lon="9.4675971"><ele>923.0</ele><time>2026-04-29T09:10:48.815Z</time></trkpt><trkpt lat="44.6408818" lon="9.4676704"><ele>922.0</ele><time>2026-04-29T09:10:49.815Z</time></trkpt><trkpt lat="44.6409061" lon="9.4677599"><ele>921.0</ele><time>2026-04-29T09:10:50.816Z</time></trkpt><trkpt lat="44.6409114" lon="9.4678571"><ele>922.8</ele><time>2026-04-29T09:10:51.817Z</time></trkpt><trkpt lat="44.6409094" lon="9.4679759"><ele>924.5999999999999</ele><time>2026-04-29T09:10:52.815Z</time></trkpt><trkpt lat="44.6409034" lon="9.4681153"><ele>926.4</ele><time>2026-04-29T09:10:53.816Z</time></trkpt><trkpt lat="44.6409013" lon="9.4682561"><ele>928.2</ele><time>2026-04-29T09:10:54.814Z</time></trkpt><trkpt lat="44.6409105" lon="9.4683912"><ele>930.0</ele><time>2026-04-29T09:10:55.814Z</time></trkpt><trkpt lat="44.6409374" lon="9.4685153"><ele>930.0</ele><time>2026-04-29T09:10:56.815Z</time></trkpt><trkpt lat="44.6409868" lon="9.4686335"><ele>930.0</ele><time>2026-04-29T09:10:57.813Z</time></trkpt><trkpt lat="44.6410517" lon="9.4687416"><ele>930.0</ele><time>2026-04-29T09:10:58.816Z</time></trkpt><trkpt lat="44.6411302" lon="9.4688388"><ele>930.0</ele><time>2026-04-29T09:10:59.816Z</time></trkpt><trkpt lat="44.6412227" lon="9.468941"><ele>930.0</ele><time>2026-04-29T09:11:00.816Z</time></trkpt><trkpt lat="44.6413255" lon="9.4690436"><ele>924.75</ele><time>2026-04-29T09:11:01.813Z</time></trkpt><trkpt lat="44.6414352" lon="9.4691472"><ele>919.5</ele><time>2026-04-29T09:11:02.815Z</time></trkpt><trkpt lat="44.6415444" lon="9.4692355"><ele>914.25</ele><time>2026-04-29T09:11:03.813Z</time></trkpt><trkpt lat="44.6416557" lon="9.4693119"><ele>909.0</ele><time>2026-04-29T09:11:04.816Z</time></trkpt><trkpt lat="44.6417682" lon="9.4693689"><ele>909.0</ele><time>2026-04-29T09:11:05.816Z</time></trkpt><trkpt lat="44.6418843" lon="9.4694055"><ele>909.0000000000001</ele><time>2026-04-29T09:11:06.815Z</time></trkpt><trkpt lat="44.6419926" lon="9.4694274"><ele>909.0000000000001</ele><time>2026-04-29T09:11:07.815Z</time></trkpt><trkpt lat="44.6420839" lon="9.4694611"><ele>909.0</ele><time>2026-04-29T09:11:08.816Z</time></trkpt><trkpt lat="44.6421566" lon="9.4695295"><ele>909.0</ele><time>2026-04-29T09:11:09.815Z</time></trkpt><trkpt lat="44.642211" lon="9.469612"><ele>906.5</ele><time>2026-04-29T09:11:10.816Z</time></trkpt><trkpt lat="44.6422374" lon="9.4697029"><ele>904.0</ele><time>2026-04-29T09:11:11.817Z</time></trkpt><trkpt lat="44.6422496" lon="9.4698042"><ele>901.5</ele><time>2026-04-29T09:11:12.817Z</time></trkpt><trkpt lat="44.6422556" lon="9.4699255"><ele>899.0</ele><time>2026-04-29T09:11:13.816Z</time></trkpt><trkpt lat="44.6422478" lon="9.4700571"><ele>896.5</ele><time>2026-04-29T09:11:14.815Z</time></trkpt><trkpt lat="44.6422347" lon="9.4702056"><ele>894.0</ele><time>2026-04-29T09:11:15.815Z</time></trkpt><trkpt lat="44.6422217" lon="9.4703734"><ele>893.75</ele><time>2026-04-29T09:11:16.814Z</time></trkpt><trkpt lat="44.6422128" lon="9.4705344"><ele>893.5</ele><time>2026-04-29T09:11:17.814Z</time></trkpt><trkpt lat="44.6422053" lon="9.4707106"><ele>893.25</ele><time>2026-04-29T09:11:18.815Z</time></trkpt><trkpt lat="44.6422082" lon="9.4708786"><ele>893.0</ele><time>2026-04-29T09:11:19.816Z</time></trkpt><trkpt lat="44.6422179" lon="9.4710568"><ele>893.0</ele><time>2026-04-29T09:11:20.814Z</time></trkpt><trkpt lat="44.6422292" lon="9.4712365"><ele>893.0</ele><time>2026-04-29T09:11:21.815Z</time></trkpt><trkpt lat="44.6422328" lon="9.4714189"><ele>893.0</ele><time>2026-04-29T09:11:22.814Z</time></trkpt><trkpt lat="44.6422245" lon="9.4716094"><ele>893.0</ele><time>2026-04-29T09:11:23.816Z</time></trkpt><trkpt lat="44.6422092" lon="9.4717904"><ele>892.75</ele><time>2026-04-29T09:11:24.816Z</time></trkpt><trkpt lat="44.6421912" lon="9.471965"><ele>892.5</ele><time>2026-04-29T09:11:25.817Z</time></trkpt><trkpt lat="44.6421753" lon="9.4721295"><ele>892.25</ele><time>2026-04-29T09:11:26.816Z</time></trkpt><trkpt lat="44.6421581" lon="9.4722939"><ele>892.0</ele><time>2026-04-29T09:11:27.815Z</time></trkpt><trkpt lat="44.6421369" lon="9.4724567"><ele>891.8</ele><time>2026-04-29T09:11:28.814Z</time></trkpt><trkpt lat="44.642118" lon="9.4725954"><ele>891.6</ele><time>2026-04-29T09:11:29.815Z</time></trkpt><trkpt lat="44.6421079" lon="9.4727162"><ele>891.3999999999999</ele><time>2026-04-29T09:11:30.817Z</time></trkpt><trkpt lat="44.6421027" lon="9.4728209"><ele>891.1999999999999</ele><time>2026-04-29T09:11:31.817Z</time></trkpt><trkpt lat="44.6420803" lon="9.472981"><ele>891.0</ele><time>2026-04-29T09:11:33.815Z</time></trkpt><trkpt lat="44.642003" lon="9.4731288"><ele>891.5999999999999</ele><time>2026-04-29T09:11:35.816Z</time></trkpt><trkpt lat="44.6419487" lon="9.4731795"><ele>892.1999999999999</ele><time>2026-04-29T09:11:36.815Z</time></trkpt><trkpt lat="44.6418581" lon="9.4732504"><ele>892.8000000000001</ele><time>2026-04-29T09:11:38.817Z</time></trkpt><trkpt lat="44.6417665" lon="9.4733225"><ele>893.4000000000001</ele><time>2026-04-29T09:11:40.817Z</time></trkpt><trkpt lat="44.641671" lon="9.473389"><ele>894.0</ele><time>2026-04-29T09:11:42.818Z</time></trkpt><trkpt lat="44.6415964" lon="9.4734402"><ele>893.9999999999999</ele><time>2026-04-29T09:11:44.817Z</time></trkpt><trkpt lat="44.6415343" lon="9.4734692"><ele>894.0</ele><time>2026-04-29T09:11:46.816Z</time></trkpt><trkpt lat="44.6414517" lon="9.4734819"><ele>894.0</ele><time>2026-04-29T09:11:49.815Z</time></trkpt><trkpt lat="44.6413752" lon="9.4734951"><ele>894.0</ele><time>2026-04-29T09:11:52.813Z</time></trkpt><trkpt lat="44.64131" lon="9.4735368"><ele>894.0</ele><time>2026-04-29T09:11:54.815Z</time></trkpt><trkpt lat="44.6412773" lon="9.4736233"><ele>893.9999999999999</ele><time>2026-04-29T09:11:56.817Z</time></trkpt><trkpt lat="44.6412713" lon="9.4737265"><ele>894.0</ele><time>2026-04-29T09:11:58.816Z</time></trkpt><trkpt lat="44.6412706" lon="9.473837"><ele>892.3333333333334</ele><time>2026-04-29T09:12:00.817Z</time></trkpt><trkpt lat="44.6412712" lon="9.4739491"><ele>890.6666666666667</ele><time>2026-04-29T09:12:02.817Z</time></trkpt><trkpt lat="44.6412703" lon="9.4740639"><ele>889.0</ele><time>2026-04-29T09:12:04.816Z</time></trkpt><trkpt lat="44.6412848" lon="9.474184"><ele>887.3333333333334</ele><time>2026-04-29T09:12:06.816Z</time></trkpt><trkpt lat="44.6413323" lon="9.474291"><ele>885.6666666666667</ele><time>2026-04-29T09:12:08.816Z</time></trkpt><trkpt lat="44.641417" lon="9.4743562"><ele>884.0</ele><time>2026-04-29T09:12:10.814Z</time></trkpt><trkpt lat="44.6414784" lon="9.4743771"><ele>884.0</ele><time>2026-04-29T09:12:11.817Z</time></trkpt><trkpt lat="44.6415428" lon="9.4743974"><ele>884.0000000000001</ele><time>2026-04-29T09:12:12.815Z</time></trkpt><trkpt lat="44.6416057" lon="9.4744134"><ele>884.0000000000001</ele><time>2026-04-29T09:12:13.819Z</time></trkpt><trkpt lat="44.6417265" lon="9.474448"><ele>884.0</ele><time>2026-04-29T09:12:15.813Z</time></trkpt><trkpt lat="44.6418389" lon="9.4744895"><ele>884.0</ele><time>2026-04-29T09:12:17.816Z</time></trkpt><trkpt lat="44.6419268" lon="9.4745745"><ele>882.2</ele><time>2026-04-29T09:12:19.814Z</time></trkpt><trkpt lat="44.6419633" lon="9.4746911"><ele>880.4000000000001</ele><time>2026-04-29T09:12:21.814Z</time></trkpt><trkpt lat="44.6419232" lon="9.4747961"><ele>878.6</ele><time>2026-04-29T09:12:23.817Z</time></trkpt><trkpt lat="44.6418053" lon="9.4748576"><ele>876.8</ele><time>2026-04-29T09:12:25.814Z</time></trkpt><trkpt lat="44.6417218" lon="9.474868"><ele>875.0</ele><time>2026-04-29T09:12:26.815Z</time></trkpt><trkpt lat="44.6416229" lon="9.4748774"><ele>875.0</ele><time>2026-04-29T09:12:27.815Z</time></trkpt><trkpt lat="44.6415272" lon="9.4748884"><ele>875.0</ele><time>2026-04-29T09:12:28.816Z</time></trkpt><trkpt lat="44.6414336" lon="9.4748959"><ele>875.0</ele><time>2026-04-29T09:12:29.815Z</time></trkpt><trkpt lat="44.6413436" lon="9.4749009"><ele>875.0</ele><time>2026-04-29T09:12:30.816Z</time></trkpt><trkpt lat="44.6412553" lon="9.474905"><ele>875.0</ele><time>2026-04-29T09:12:31.815Z</time></trkpt><trkpt lat="44.6411685" lon="9.4749074"><ele>874.8571428571429</ele><time>2026-04-29T09:12:32.814Z</time></trkpt><trkpt lat="44.641085" lon="9.4749134"><ele>874.7142857142858</ele><time>2026-04-29T09:12:33.816Z</time></trkpt><trkpt lat="44.6410111" lon="9.4749286"><ele>874.5714285714286</ele><time>2026-04-29T09:12:34.816Z</time></trkpt><trkpt lat="44.6409473" lon="9.4749611"><ele>874.4285714285714</ele><time>2026-04-29T09:12:35.817Z</time></trkpt><trkpt lat="44.6408924" lon="9.4750205"><ele>874.2857142857143</ele><time>2026-04-29T09:12:36.818Z</time></trkpt><trkpt lat="44.6408603" lon="9.4751036"><ele>874.1428571428571</ele><time>2026-04-29T09:12:37.815Z</time></trkpt><trkpt lat="44.6408598" lon="9.4751956"><ele>874.0</ele><time>2026-04-29T09:12:38.816Z</time></trkpt><trkpt lat="44.6408887" lon="9.4752876"><ele>874.0</ele><time>2026-04-29T09:12:39.815Z</time></trkpt><trkpt lat="44.6409394" lon="9.4753787"><ele>874.0000000000001</ele><time>2026-04-29T09:12:40.816Z</time></trkpt><trkpt lat="44.641004" lon="9.4754766"><ele>874.0000000000001</ele><time>2026-04-29T09:12:41.817Z</time></trkpt><trkpt lat="44.6410691" lon="9.4755841"><ele>874.0</ele><time>2026-04-29T09:12:42.816Z</time></trkpt><trkpt lat="44.6411215" lon="9.4756988"><ele>874.0</ele><time>2026-04-29T09:12:43.816Z</time></trkpt><trkpt lat="44.6411556" lon="9.4758212"><ele>872.2</ele><time>2026-04-29T09:12:44.815Z</time></trkpt><trkpt lat="44.641175" lon="9.4759525"><ele>870.4000000000001</ele><time>2026-04-29T09:12:45.813Z</time></trkpt><trkpt lat="44.6411846" lon="9.4760798"><ele>868.6</ele><time>2026-04-29T09:12:46.817Z</time></trkpt><trkpt lat="44.6412087" lon="9.4761933"><ele>866.8</ele><time>2026-04-29T09:12:47.815Z</time></trkpt><trkpt lat="44.6412648" lon="9.4762868"><ele>865.0</ele><time>2026-04-29T09:12:48.816Z</time></trkpt><trkpt lat="44.6413414" lon="9.4763657"><ele>863.9999999999999</ele><time>2026-04-29T09:12:49.816Z</time></trkpt><trkpt lat="44.6414165" lon="9.4764307"><ele>863.0</ele><time>2026-04-29T09:12:50.813Z</time></trkpt><trkpt lat="44.6414898" lon="9.4764984"><ele>862.0</ele><time>2026-04-29T09:12:51.817Z</time></trkpt><trkpt lat="44.6415657" lon="9.4765687"><ele>861.0</ele><time>2026-04-29T09:12:52.814Z</time></trkpt><trkpt lat="44.6416435" lon="9.4766313"><ele>859.9999999999999</ele><time>2026-04-29T09:12:53.814Z</time></trkpt><trkpt lat="44.6417261" lon="9.4766762"><ele>859.0</ele><time>2026-04-29T09:12:54.814Z</time></trkpt><trkpt lat="44.6418154" lon="9.4767133"><ele>859.0</ele><time>2026-04-29T09:12:55.814Z</time></trkpt><trkpt lat="44.6419076" lon="9.4767445"><ele>859.0000000000001</ele><time>2026-04-29T09:12:56.816Z</time></trkpt><trkpt lat="44.641995" lon="9.4767835"><ele>859.0000000000001</ele><time>2026-04-29T09:12:57.817Z</time></trkpt><trkpt lat="44.6420769" lon="9.4768406"><ele>859.0</ele><time>2026-04-29T09:12:58.814Z</time></trkpt><trkpt lat="44.6421473" lon="9.4769234"><ele>859.0</ele><time>2026-04-29T09:12:59.814Z</time></trkpt><trkpt lat="44.6422104" lon="9.4770309"><ele>856.8000000000001</ele><time>2026-04-29T09:13:00.819Z</time></trkpt><trkpt lat="44.6422649" lon="9.4771568"><ele>854.6000000000001</ele><time>2026-04-29T09:13:01.816Z</time></trkpt><trkpt lat="44.6423063" lon="9.4772883"><ele>852.4</ele><time>2026-04-29T09:13:02.815Z</time></trkpt><trkpt lat="44.6423387" lon="9.4774208"><ele>850.2</ele><time>2026-04-29T09:13:03.817Z</time></trkpt><trkpt lat="44.6423582" lon="9.4775545"><ele>848.0</ele><time>2026-04-29T09:13:04.816Z</time></trkpt><trkpt lat="44.6423596" lon="9.4776876"><ele>848.0</ele><time>2026-04-29T09:13:05.817Z</time></trkpt><trkpt lat="44.6423428" lon="9.477814"><ele>848.0</ele><time>2026-04-29T09:13:06.817Z</time></trkpt><trkpt lat="44.6423104" lon="9.4779404"><ele>848.0</ele><time>2026-04-29T09:13:07.817Z</time></trkpt><trkpt lat="44.6422643" lon="9.4780608"><ele>848.0</ele><time>2026-04-29T09:13:08.818Z</time></trkpt><trkpt lat="44.6422079" lon="9.4781713"><ele>848.0</ele><time>2026-04-29T09:13:09.815Z</time></trkpt><trkpt lat="44.6421449" lon="9.4782709"><ele>846.8</ele><time>2026-04-29T09:13:10.815Z</time></trkpt><trkpt lat="44.6420711" lon="9.4783505"><ele>845.5999999999999</ele><time>2026-04-29T09:13:11.814Z</time></trkpt><trkpt lat="44.6419832" lon="9.4784056"><ele>844.4000000000001</ele><time>2026-04-29T09:13:12.815Z</time></trkpt><trkpt lat="44.6418825" lon="9.4784376"><ele>843.2</ele><time>2026-04-29T09:13:13.816Z</time></trkpt><trkpt lat="44.6417696" lon="9.4784514"><ele>842.0</ele><time>2026-04-29T09:13:14.817Z</time></trkpt><trkpt lat="44.6416443" lon="9.4784519"><ele>842.0</ele><time>2026-04-29T09:13:15.816Z</time></trkpt><trkpt lat="44.6415052" lon="9.4784559"><ele>842.0</ele><time>2026-04-29T09:13:16.815Z</time></trkpt><trkpt lat="44.6413681" lon="9.4784735"><ele>842.0</ele><time>2026-04-29T09:13:17.814Z</time></trkpt><trkpt lat="44.6412332" lon="9.478496"><ele>842.0</ele><time>2026-04-29T09:13:18.815Z</time></trkpt><trkpt lat="44.6411029" lon="9.4785185"><ele>841.2</ele><time>2026-04-29T09:13:19.814Z</time></trkpt><trkpt lat="44.6409854" lon="9.4785392"><ele>840.4000000000001</ele><time>2026-04-29T09:13:20.815Z</time></trkpt><trkpt lat="44.6408872" lon="9.4785704"><ele>839.5999999999999</ele><time>2026-04-29T09:13:21.819Z</time></trkpt><trkpt lat="44.6408103" lon="9.4786272"><ele>838.8</ele><time>2026-04-29T09:13:22.816Z</time></trkpt><trkpt lat="44.6407604" lon="9.4787175"><ele>838.0</ele><time>2026-04-29T09:13:23.816Z</time></trkpt><trkpt lat="44.6407459" lon="9.4788313"><ele>836.2</ele><time>2026-04-29T09:13:24.815Z</time></trkpt><trkpt lat="44.6407593" lon="9.4789641"><ele>834.4</ele><time>2026-04-29T09:13:25.815Z</time></trkpt><trkpt lat="44.6407951" lon="9.4791099"><ele>832.6</ele><time>2026-04-29T09:13:26.815Z</time></trkpt><trkpt lat="44.6408446" lon="9.4792466"><ele>830.8000000000001</ele><time>2026-04-29T09:13:27.816Z</time></trkpt><trkpt lat="44.6409137" lon="9.4793691"><ele>829.0</ele><time>2026-04-29T09:13:28.816Z</time></trkpt><trkpt lat="44.641006" lon="9.4794711"><ele>829.0</ele><time>2026-04-29T09:13:29.816Z</time></trkpt><trkpt lat="44.6411196" lon="9.4795544"><ele>829.0</ele><time>2026-04-29T09:13:30.814Z</time></trkpt><trkpt lat="44.6412413" lon="9.4796213"><ele>829.0</ele><time>2026-04-29T09:13:31.813Z</time></trkpt><trkpt lat="44.6413574" lon="9.4796803"><ele>829.0</ele><time>2026-04-29T09:13:32.816Z</time></trkpt><trkpt lat="44.6414569" lon="9.4797455"><ele>827.5714285714286</ele><time>2026-04-29T09:13:33.815Z</time></trkpt><trkpt lat="44.6415359" lon="9.479816"><ele>826.1428571428571</ele><time>2026-04-29T09:13:34.815Z</time></trkpt><trkpt lat="44.6415973" lon="9.4798908"><ele>824.7142857142858</ele><time>2026-04-29T09:13:35.816Z</time></trkpt><trkpt lat="44.6416488" lon="9.4799654"><ele>823.2857142857142</ele><time>2026-04-29T09:13:36.817Z</time></trkpt><trkpt lat="44.6416874" lon="9.4800406"><ele>821.8571428571429</ele><time>2026-04-29T09:13:37.816Z</time></trkpt><trkpt lat="44.6416989" lon="9.4801295"><ele>820.4285714285714</ele><time>2026-04-29T09:13:38.816Z</time></trkpt><trkpt lat="44.6416817" lon="9.480216"><ele>819.0</ele><time>2026-04-29T09:13:39.815Z</time></trkpt><trkpt lat="44.6416357" lon="9.4802808"><ele>819.0</ele><time>2026-04-29T09:13:40.817Z</time></trkpt><trkpt lat="44.6415668" lon="9.4803287"><ele>819.0</ele><time>2026-04-29T09:13:41.816Z</time></trkpt><trkpt lat="44.6414845" lon="9.4803676"><ele>819.0</ele><time>2026-04-29T09:13:42.815Z</time></trkpt><trkpt lat="44.6413942" lon="9.4803969"><ele>819.0</ele><time>2026-04-29T09:13:43.819Z</time></trkpt><trkpt lat="44.6413018" lon="9.4804264"><ele>819.0</ele><time>2026-04-29T09:13:44.815Z</time></trkpt><trkpt lat="44.6412147" lon="9.4804467"><ele>819.0</ele><time>2026-04-29T09:13:45.816Z</time></trkpt><trkpt lat="44.641128" lon="9.4804731"><ele>816.8333333333334</ele><time>2026-04-29T09:13:46.816Z</time></trkpt><trkpt lat="44.6410376" lon="9.4805042"><ele>814.6666666666667</ele><time>2026-04-29T09:13:47.816Z</time></trkpt><trkpt lat="44.6409463" lon="9.480535"><ele>812.5</ele><time>2026-04-29T09:13:48.816Z</time></trkpt><trkpt lat="44.6408596" lon="9.4805624"><ele>810.3333333333334</ele><time>2026-04-29T09:13:49.817Z</time></trkpt><trkpt lat="44.640783" lon="9.4806021"><ele>808.1666666666667</ele><time>2026-04-29T09:13:50.815Z</time></trkpt><trkpt lat="44.6407278" lon="9.4806637"><ele>806.0</ele><time>2026-04-29T09:13:51.817Z</time></trkpt><trkpt lat="44.6407016" lon="9.4807548"><ele>806.0</ele><time>2026-04-29T09:13:52.814Z</time></trkpt><trkpt lat="44.6407132" lon="9.4808508"><ele>806.0</ele><time>2026-04-29T09:13:53.816Z</time></trkpt><trkpt lat="44.6407546" lon="9.4809447"><ele>806.0</ele><time>2026-04-29T09:13:54.817Z</time></trkpt><trkpt lat="44.6408194" lon="9.4810415"><ele>806.0</ele><time>2026-04-29T09:13:55.815Z</time></trkpt><trkpt lat="44.6409018" lon="9.4811492"><ele>806.0</ele><time>2026-04-29T09:13:56.816Z</time></trkpt><trkpt lat="44.6410024" lon="9.4812738"><ele>805.0</ele><time>2026-04-29T09:13:57.814Z</time></trkpt><trkpt lat="44.6411093" lon="9.4814004"><ele>804.0</ele><time>2026-04-29T09:13:58.816Z</time></trkpt><trkpt lat="44.6412158" lon="9.4815228"><ele>803.0</ele><time>2026-04-29T09:13:59.814Z</time></trkpt><trkpt lat="44.6413116" lon="9.4816399"><ele>802.0</ele><time>2026-04-29T09:14:00.815Z</time></trkpt><trkpt lat="44.6413871" lon="9.4817579"><ele>800.6666666666666</ele><time>2026-04-29T09:14:01.815Z</time></trkpt><trkpt lat="44.6414347" lon="9.4818847"><ele>799.3333333333333</ele><time>2026-04-29T09:14:02.816Z</time></trkpt><trkpt lat="44.6414514" lon="9.4820081"><ele>798.0</ele><time>2026-04-29T09:14:03.815Z</time></trkpt><trkpt lat="44.6414311" lon="9.4821115"><ele>796.6666666666667</ele><time>2026-04-29T09:14:04.817Z</time></trkpt><trkpt lat="44.6413811" lon="9.4821921"><ele>795.3333333333334</ele><time>2026-04-29T09:14:05.818Z</time></trkpt><trkpt lat="44.6413" lon="9.4822469"><ele>794.0</ele><time>2026-04-29T09:14:06.816Z</time></trkpt><trkpt lat="44.6412021" lon="9.4822836"><ele>794.25</ele><time>2026-04-29T09:14:07.819Z</time></trkpt><trkpt lat="44.6411027" lon="9.4823565"><ele>794.5</ele><time>2026-04-29T09:14:08.814Z</time></trkpt><trkpt lat="44.6410158" lon="9.4824629"><ele>794.75</ele><time>2026-04-29T09:14:09.813Z</time></trkpt><trkpt lat="44.6409281" lon="9.4825818"><ele>795.0</ele><time>2026-04-29T09:14:10.813Z</time></trkpt><trkpt lat="44.6408314" lon="9.4826811"><ele>795.0</ele><time>2026-04-29T09:14:11.815Z</time></trkpt><trkpt lat="44.6407303" lon="9.4827528"><ele>795.0</ele><time>2026-04-29T09:14:12.814Z</time></trkpt><trkpt lat="44.6406529" lon="9.4828069"><ele>795.0</ele><time>2026-04-29T09:14:13.813Z</time></trkpt><trkpt lat="44.640602" lon="9.4828804"><ele>795.0</ele><time>2026-04-29T09:14:14.815Z</time></trkpt><trkpt lat="44.6405818" lon="9.4829769"><ele>795.0</ele><time>2026-04-29T09:14:15.814Z</time></trkpt><trkpt lat="44.6406047" lon="9.4830781"><ele>795.0</ele><time>2026-04-29T09:14:16.815Z</time></trkpt><trkpt lat="44.6406634" lon="9.4831655"><ele>791.75</ele><time>2026-04-29T09:14:17.819Z</time></trkpt><trkpt lat="44.6407457" lon="9.4832597"><ele>788.5</ele><time>2026-04-29T09:14:18.813Z</time></trkpt><trkpt lat="44.6408392" lon="9.4833685"><ele>785.25</ele><time>2026-04-29T09:14:19.815Z</time></trkpt><trkpt lat="44.6409314" lon="9.4834795"><ele>782.0</ele><time>2026-04-29T09:14:20.813Z</time></trkpt><trkpt lat="44.6410172" lon="9.4835979"><ele>782.0</ele><time>2026-04-29T09:14:21.814Z</time></trkpt><trkpt lat="44.6410818" lon="9.4837153"><ele>782.0</ele><time>2026-04-29T09:14:22.814Z</time></trkpt><trkpt lat="44.6411227" lon="9.4838366"><ele>782.0</ele><time>2026-04-29T09:14:23.814Z</time></trkpt><trkpt lat="44.641128" lon="9.4839572"><ele>782.0</ele><time>2026-04-29T09:14:24.814Z</time></trkpt><trkpt lat="44.6410955" lon="9.484066"><ele>782.0</ele><time>2026-04-29T09:14:25.814Z</time></trkpt><trkpt lat="44.6410385" lon="9.484143"><ele>780.2</ele><time>2026-04-29T09:14:26.816Z</time></trkpt><trkpt lat="44.6409655" lon="9.4841907"><ele>778.4000000000001</ele><time>2026-04-29T09:14:27.815Z</time></trkpt><trkpt lat="44.6408763" lon="9.4842042"><ele>776.5999999999999</ele><time>2026-04-29T09:14:28.814Z</time></trkpt><trkpt lat="44.6407702" lon="9.4841894"><ele>774.8</ele><time>2026-04-29T09:14:29.816Z</time></trkpt><trkpt lat="44.6406529" lon="9.4841596"><ele>773.0</ele><time>2026-04-29T09:14:30.814Z</time></trkpt><trkpt lat="44.640536" lon="9.4841329"><ele>773.0</ele><time>2026-04-29T09:14:31.813Z</time></trkpt><trkpt lat="44.6404188" lon="9.4841165"><ele>773.0</ele><time>2026-04-29T09:14:32.813Z</time></trkpt><trkpt lat="44.6403076" lon="9.4841044"><ele>773.0</ele><time>2026-04-29T09:14:33.819Z</time></trkpt><trkpt lat="44.6402042" lon="9.4840638"><ele>773.0</ele><time>2026-04-29T09:14:34.813Z</time></trkpt><trkpt lat="44.6401177" lon="9.4839824"><ele>773.0</ele><time>2026-04-29T09:14:35.814Z</time></trkpt><trkpt lat="44.6400553" lon="9.4838726"><ele>772.8333333333334</ele><time>2026-04-29T09:14:36.813Z</time></trkpt><trkpt lat="44.6400199" lon="9.4837486"><ele>772.6666666666667</ele><time>2026-04-29T09:14:37.815Z</time></trkpt><trkpt lat="44.6399837" lon="9.4836348"><ele>772.5</ele><time>2026-04-29T09:14:38.815Z</time></trkpt><trkpt lat="44.6399173" lon="9.4835588"><ele>772.3333333333333</ele><time>2026-04-29T09:14:39.813Z</time></trkpt><trkpt lat="44.6398394" lon="9.483539"><ele>772.1666666666666</ele><time>2026-04-29T09:14:40.813Z</time></trkpt><trkpt lat="44.6397648" lon="9.483575"><ele>772.0</ele><time>2026-04-29T09:14:41.815Z</time></trkpt><trkpt lat="44.6397015" lon="9.4836649"><ele>768.25</ele><time>2026-04-29T09:14:42.815Z</time></trkpt><trkpt lat="44.6396502" lon="9.4837979"><ele>764.5</ele><time>2026-04-29T09:14:43.814Z</time></trkpt><trkpt lat="44.6396142" lon="9.4839659"><ele>760.75</ele><time>2026-04-29T09:14:44.814Z</time></trkpt><trkpt lat="44.6395988" lon="9.484146"><ele>757.0</ele><time>2026-04-29T09:14:45.816Z</time></trkpt><trkpt lat="44.6395988" lon="9.4843236"><ele>757.0</ele><time>2026-04-29T09:14:46.816Z</time></trkpt><trkpt lat="44.6395891" lon="9.4844947"><ele>757.0</ele><time>2026-04-29T09:14:47.815Z</time></trkpt><trkpt lat="44.6395575" lon="9.4846511"><ele>757.0</ele><time>2026-04-29T09:14:48.815Z</time></trkpt><trkpt lat="44.639522" lon="9.4847979"><ele>757.0</ele><time>2026-04-29T09:14:49.812Z</time></trkpt><trkpt lat="44.6394738" lon="9.484915"><ele>757.0</ele><time>2026-04-29T09:14:50.816Z</time></trkpt><trkpt lat="44.6394017" lon="9.4850002"><ele>755.3333333333334</ele><time>2026-04-29T09:14:51.814Z</time></trkpt><trkpt lat="44.6393186" lon="9.4850597"><ele>753.6666666666667</ele><time>2026-04-29T09:14:52.815Z</time></trkpt><trkpt lat="44.6392501" lon="9.4851234"><ele>752.0</ele><time>2026-04-29T09:14:53.819Z</time></trkpt><trkpt lat="44.6392143" lon="9.4852316"><ele>750.3333333333334</ele><time>2026-04-29T09:14:54.814Z</time></trkpt><trkpt lat="44.6392091" lon="9.4853502"><ele>748.6666666666666</ele><time>2026-04-29T09:14:55.815Z</time></trkpt><trkpt lat="44.6392322" lon="9.4854694"><ele>747.0</ele><time>2026-04-29T09:14:56.816Z</time></trkpt><trkpt lat="44.6392726" lon="9.4856024"><ele>745.6</ele><time>2026-04-29T09:14:57.815Z</time></trkpt><trkpt lat="44.6393412" lon="9.4857249"><ele>744.2</ele><time>2026-04-29T09:14:58.815Z</time></trkpt><trkpt lat="44.6394327" lon="9.485817"><ele>742.8</ele><time>2026-04-29T09:14:59.814Z</time></trkpt><trkpt lat="44.6395238" lon="9.485891"><ele>741.4</ele><time>2026-04-29T09:15:00.812Z</time></trkpt><trkpt lat="44.6395921" lon="9.4859783"><ele>740.0</ele><time>2026-04-29T09:15:01.814Z</time></trkpt><trkpt lat="44.6396292" lon="9.4860672"><ele>740.0</ele><time>2026-04-29T09:15:02.814Z</time></trkpt><trkpt lat="44.6396406" lon="9.4861689"><ele>740.0</ele><time>2026-04-29T09:15:03.813Z</time></trkpt><trkpt lat="44.6396166" lon="9.4862677"><ele>740.0</ele><time>2026-04-29T09:15:04.814Z</time></trkpt><trkpt lat="44.6395669" lon="9.486357"><ele>740.0</ele><time>2026-04-29T09:15:05.816Z</time></trkpt><trkpt lat="44.6394949" lon="9.4864284"><ele>740.0</ele><time>2026-04-29T09:15:06.816Z</time></trkpt><trkpt lat="44.6394101" lon="9.4864881"><ele>740.0</ele><time>2026-04-29T09:15:07.815Z</time></trkpt><trkpt lat="44.6393208" lon="9.4865336"><ele>737.2</ele><time>2026-04-29T09:15:08.814Z</time></trkpt><trkpt lat="44.6392298" lon="9.4865848"><ele>734.4</ele><time>2026-04-29T09:15:09.815Z</time></trkpt><trkpt lat="44.6391445" lon="9.4866569"><ele>731.5999999999999</ele><time>2026-04-29T09:15:10.813Z</time></trkpt><trkpt lat="44.6390768" lon="9.4867589"><ele>728.8</ele><time>2026-04-29T09:15:11.814Z</time></trkpt><trkpt lat="44.6390351" lon="9.4868843"><ele>726.0</ele><time>2026-04-29T09:15:12.814Z</time></trkpt><trkpt lat="44.6390294" lon="9.4870208"><ele>724.4</ele><time>2026-04-29T09:15:13.813Z</time></trkpt><trkpt lat="44.6390503" lon="9.4871504"><ele>722.8</ele><time>2026-04-29T09:15:14.813Z</time></trkpt><trkpt lat="44.6390763" lon="9.4872793"><ele>721.1999999999999</ele><time>2026-04-29T09:15:15.815Z</time></trkpt><trkpt lat="44.639101" lon="9.4874091"><ele>719.5999999999999</ele><time>2026-04-29T09:15:16.816Z</time></trkpt><trkpt lat="44.639115" lon="9.4875314"><ele>718.0</ele><time>2026-04-29T09:15:17.817Z</time></trkpt><trkpt lat="44.6391096" lon="9.4876398"><ele>718.0</ele><time>2026-04-29T09:15:18.814Z</time></trkpt><trkpt lat="44.6390762" lon="9.4877192"><ele>718.0</ele><time>2026-04-29T09:15:19.814Z</time></trkpt><trkpt lat="44.638967" lon="9.4877308"><ele>718.0</ele><time>2026-04-29T09:15:21.815Z</time></trkpt><trkpt lat="44.6389193" lon="9.4876697"><ele>718.0</ele><time>2026-04-29T09:15:22.815Z</time></trkpt><trkpt lat="44.6388735" lon="9.4875817"><ele>718.0</ele><time>2026-04-29T09:15:23.815Z</time></trkpt><trkpt lat="44.6388215" lon="9.4874916"><ele>718.0</ele><time>2026-04-29T09:15:24.818Z</time></trkpt><trkpt lat="44.6387425" lon="9.4874492"><ele>718.0</ele><time>2026-04-29T09:15:25.813Z</time></trkpt><trkpt lat="44.638663" lon="9.4874412"><ele>718.0</ele><time>2026-04-29T09:15:26.814Z</time></trkpt><trkpt lat="44.6385814" lon="9.4874786"><ele>718.0</ele><time>2026-04-29T09:15:27.815Z</time></trkpt><trkpt lat="44.6384869" lon="9.4875428"><ele>718.0</ele><time>2026-04-29T09:15:28.818Z</time></trkpt><trkpt lat="44.6383811" lon="9.487631"><ele>718.0</ele><time>2026-04-29T09:15:29.815Z</time></trkpt><trkpt lat="44.6382628" lon="9.4877305"><ele>716.5</ele><time>2026-04-29T09:15:30.813Z</time></trkpt><trkpt lat="44.6381417" lon="9.487836"><ele>715.0</ele><time>2026-04-29T09:15:31.814Z</time></trkpt><trkpt lat="44.6380267" lon="9.4879363"><ele>713.5</ele><time>2026-04-29T09:15:32.815Z</time></trkpt><trkpt lat="44.6379162" lon="9.4880385"><ele>712.0</ele><time>2026-04-29T09:15:33.814Z</time></trkpt><trkpt lat="44.6378202" lon="9.4881547"><ele>711.0</ele><time>2026-04-29T09:15:34.815Z</time></trkpt><trkpt lat="44.6377476" lon="9.4882895"><ele>710.0</ele><time>2026-04-29T09:15:35.814Z</time></trkpt><trkpt lat="44.6376884" lon="9.4884377"><ele>709.0</ele><time>2026-04-29T09:15:36.816Z</time></trkpt><trkpt lat="44.637655" lon="9.4886048"><ele>708.0</ele><time>2026-04-29T09:15:37.814Z</time></trkpt><trkpt lat="44.6376424" lon="9.4887942"><ele>707.0</ele><time>2026-04-29T09:15:38.815Z</time></trkpt><trkpt lat="44.6376381" lon="9.4889991"><ele>706.0</ele><time>2026-04-29T09:15:39.814Z</time></trkpt><trkpt lat="44.6376433" lon="9.4892108"><ele>705.0</ele><time>2026-04-29T09:15:40.813Z</time></trkpt><trkpt lat="44.6376749" lon="9.4894275"><ele>705.6666666666666</ele><time>2026-04-29T09:15:41.814Z</time></trkpt><trkpt lat="44.6377241" lon="9.48965"><ele>706.3333333333333</ele><time>2026-04-29T09:15:42.813Z</time></trkpt><trkpt lat="44.6377655" lon="9.4898682"><ele>707.0</ele><time>2026-04-29T09:15:43.813Z</time></trkpt><trkpt lat="44.6378026" lon="9.490074"><ele>703.5</ele><time>2026-04-29T09:15:44.815Z</time></trkpt><trkpt lat="44.6378357" lon="9.4902676"><ele>700.0</ele><time>2026-04-29T09:15:45.813Z</time></trkpt><trkpt lat="44.637866" lon="9.4904334"><ele>696.5</ele><time>2026-04-29T09:15:46.815Z</time></trkpt><trkpt lat="44.6378819" lon="9.4905697"><ele>693.0</ele><time>2026-04-29T09:15:47.814Z</time></trkpt><trkpt lat="44.6378773" lon="9.4906975"><ele>692.25</ele><time>2026-04-29T09:15:48.813Z</time></trkpt><trkpt lat="44.6378435" lon="9.4908268"><ele>691.5</ele><time>2026-04-29T09:15:49.815Z</time></trkpt><trkpt lat="44.6377869" lon="9.4909545"><ele>690.75</ele><time>2026-04-29T09:15:50.814Z</time></trkpt><trkpt lat="44.6377179" lon="9.4910927"><ele>690.0</ele><time>2026-04-29T09:15:51.814Z</time></trkpt><trkpt lat="44.6376509" lon="9.4912548"><ele>691.75</ele><time>2026-04-29T09:15:52.814Z</time></trkpt><trkpt lat="44.6375941" lon="9.4914333"><ele>693.5</ele><time>2026-04-29T09:15:53.813Z</time></trkpt><trkpt lat="44.637536" lon="9.491621"><ele>695.25</ele><time>2026-04-29T09:15:54.813Z</time></trkpt><trkpt lat="44.6374849" lon="9.4918058"><ele>697.0</ele><time>2026-04-29T09:15:55.816Z</time></trkpt><trkpt lat="44.6374469" lon="9.4919891"><ele>695.6</ele><time>2026-04-29T09:15:56.814Z</time></trkpt><trkpt lat="44.6374196" lon="9.4921502"><ele>694.2</ele><time>2026-04-29T09:15:57.815Z</time></trkpt><trkpt lat="44.6373898" lon="9.4922868"><ele>692.8</ele><time>2026-04-29T09:15:58.814Z</time></trkpt><trkpt lat="44.6373517" lon="9.4924006"><ele>691.4</ele><time>2026-04-29T09:15:59.814Z</time></trkpt><trkpt lat="44.6372994" lon="9.4924858"><ele>690.0</ele><time>2026-04-29T09:16:00.812Z</time></trkpt><trkpt lat="44.6372305" lon="9.4925392"><ele>690.0</ele><time>2026-04-29T09:16:01.814Z</time></trkpt><trkpt lat="44.6371419" lon="9.4925734"><ele>690.0</ele><time>2026-04-29T09:16:02.813Z</time></trkpt><trkpt lat="44.6370348" lon="9.4925973"><ele>690.0</ele><time>2026-04-29T09:16:03.815Z</time></trkpt><trkpt lat="44.6368997" lon="9.4926252"><ele>690.0</ele><time>2026-04-29T09:16:04.812Z</time></trkpt><trkpt lat="44.6367753" lon="9.4926582"><ele>691.75</ele><time>2026-04-29T09:16:05.814Z</time></trkpt><trkpt lat="44.6366414" lon="9.4927253"><ele>693.5</ele><time>2026-04-29T09:16:06.813Z</time></trkpt><trkpt lat="44.6365004" lon="9.4928019"><ele>695.25</ele><time>2026-04-29T09:16:07.813Z</time></trkpt><trkpt lat="44.6363543" lon="9.4928709"><ele>697.0</ele><time>2026-04-29T09:16:08.813Z</time></trkpt><trkpt lat="44.6362114" lon="9.4929419"><ele>692.0</ele><time>2026-04-29T09:16:09.814Z</time></trkpt><trkpt lat="44.6360769" lon="9.4930278"><ele>687.0</ele><time>2026-04-29T09:16:10.814Z</time></trkpt><trkpt lat="44.6359526" lon="9.4931282"><ele>682.0</ele><time>2026-04-29T09:16:11.814Z</time></trkpt><trkpt lat="44.635844" lon="9.4932258"><ele>677.0</ele><time>2026-04-29T09:16:12.814Z</time></trkpt><trkpt lat="44.6357511" lon="9.4933079"><ele>677.0</ele><time>2026-04-29T09:16:13.814Z</time></trkpt><trkpt lat="44.6356644" lon="9.4933586"><ele>677.0</ele><time>2026-04-29T09:16:14.812Z</time></trkpt><trkpt lat="44.6355843" lon="9.4933633"><ele>677.0</ele><time>2026-04-29T09:16:15.814Z</time></trkpt><trkpt lat="44.6355055" lon="9.4933223"><ele>677.0</ele><time>2026-04-29T09:16:16.814Z</time></trkpt><trkpt lat="44.635429" lon="9.4932417"><ele>677.0</ele><time>2026-04-29T09:16:17.815Z</time></trkpt><trkpt lat="44.6353568" lon="9.493144"><ele>676.6666666666666</ele><time>2026-04-29T09:16:18.814Z</time></trkpt><trkpt lat="44.635292" lon="9.4930651"><ele>676.3333333333333</ele><time>2026-04-29T09:16:19.814Z</time></trkpt><trkpt lat="44.6352261" lon="9.4930164"><ele>676.0</ele><time>2026-04-29T09:16:20.813Z</time></trkpt><trkpt lat="44.6351577" lon="9.4930052"><ele>675.6666666666666</ele><time>2026-04-29T09:16:21.815Z</time></trkpt><trkpt lat="44.6350463" lon="9.4930554"><ele>675.3333333333334</ele><time>2026-04-29T09:16:23.814Z</time></trkpt><trkpt lat="44.6349901" lon="9.4931157"><ele>675.0</ele><time>2026-04-29T09:16:26.814Z</time></trkpt><trkpt lat="44.6349441" lon="9.4932141"><ele>675.0</ele><time>2026-04-29T09:16:31.815Z</time></trkpt><trkpt lat="44.6348657" lon="9.4933141"><ele>675.0</ele><time>2026-04-29T09:16:33.814Z</time></trkpt><trkpt lat="44.6348072" lon="9.4933588"><ele>675.0</ele><time>2026-04-29T09:16:34.816Z</time></trkpt><trkpt lat="44.63473" lon="9.4933934"><ele>675.0</ele><time>2026-04-29T09:16:35.814Z</time></trkpt><trkpt lat="44.6346357" lon="9.4934092"><ele>675.0</ele><time>2026-04-29T09:16:36.815Z</time></trkpt><trkpt lat="44.634536" lon="9.4934149"><ele>675.0</ele><time>2026-04-29T09:16:37.814Z</time></trkpt><trkpt lat="44.6344456" lon="9.493417"><ele>675.5</ele><time>2026-04-29T09:16:38.818Z</time></trkpt><trkpt lat="44.6343592" lon="9.4934326"><ele>676.0</ele><time>2026-04-29T09:16:39.815Z</time></trkpt><trkpt lat="44.6342759" lon="9.493469"><ele>676.5</ele><time>2026-04-29T09:16:40.814Z</time></trkpt><trkpt lat="44.6341845" lon="9.4935187"><ele>677.0</ele><time>2026-04-29T09:16:41.814Z</time></trkpt><trkpt lat="44.6341109" lon="9.4935829"><ele>677.5</ele><time>2026-04-29T09:16:42.815Z</time></trkpt><trkpt lat="44.6340461" lon="9.4936617"><ele>678.0</ele><time>2026-04-29T09:16:43.816Z</time></trkpt><trkpt lat="44.6340065" lon="9.4937629"><ele>678.0</ele><time>2026-04-29T09:16:44.814Z</time></trkpt><trkpt lat="44.6339825" lon="9.4938795"><ele>678.0</ele><time>2026-04-29T09:16:45.815Z</time></trkpt><trkpt lat="44.6339554" lon="9.4939995"><ele>678.0</ele><time>2026-04-29T09:16:46.815Z</time></trkpt><trkpt lat="44.6339121" lon="9.4940972"><ele>678.0</ele><time>2026-04-29T09:16:47.813Z</time></trkpt><trkpt lat="44.6338544" lon="9.4941855"><ele>678.0</ele><time>2026-04-29T09:16:48.816Z</time></trkpt><trkpt lat="44.6337876" lon="9.4942746"><ele>678.0</ele><time>2026-04-29T09:16:49.814Z</time></trkpt><trkpt lat="44.6337106" lon="9.4943746"><ele>679.5</ele><time>2026-04-29T09:16:50.814Z</time></trkpt><trkpt lat="44.6336231" lon="9.4944936"><ele>681.0</ele><time>2026-04-29T09:16:51.814Z</time></trkpt><trkpt lat="44.6335284" lon="9.4946205"><ele>682.5</ele><time>2026-04-29T09:16:52.814Z</time></trkpt><trkpt lat="44.6334345" lon="9.4947446"><ele>684.0</ele><time>2026-04-29T09:16:53.815Z</time></trkpt><trkpt lat="44.6333402" lon="9.4948679"><ele>684.0</ele><time>2026-04-29T09:16:54.816Z</time></trkpt><trkpt lat="44.6332484" lon="9.494989"><ele>684.0</ele><time>2026-04-29T09:16:55.816Z</time></trkpt><trkpt lat="44.6331642" lon="9.4950911"><ele>684.0</ele><time>2026-04-29T09:16:56.815Z</time></trkpt><trkpt lat="44.6330809" lon="9.4951742"><ele>684.0</ele><time>2026-04-29T09:16:57.814Z</time></trkpt><trkpt lat="44.6329939" lon="9.4952367"><ele>684.0</ele><time>2026-04-29T09:16:58.813Z</time></trkpt><trkpt lat="44.6329009" lon="9.4952684"><ele>684.0</ele><time>2026-04-29T09:16:59.816Z</time></trkpt><trkpt lat="44.6328118" lon="9.4952531"><ele>684.0</ele><time>2026-04-29T09:17:00.814Z</time></trkpt><trkpt lat="44.6327351" lon="9.4951934"><ele>684.0</ele><time>2026-04-29T09:17:01.816Z</time></trkpt><trkpt lat="44.6326764" lon="9.4950954"><ele>684.0</ele><time>2026-04-29T09:17:02.813Z</time></trkpt><trkpt lat="44.6326425" lon="9.4949709"><ele>684.0</ele><time>2026-04-29T09:17:03.815Z</time></trkpt><trkpt lat="44.6326236" lon="9.4948259"><ele>684.0</ele><time>2026-04-29T09:17:04.813Z</time></trkpt><trkpt lat="44.632604" lon="9.4946707"><ele>684.0</ele><time>2026-04-29T09:17:05.813Z</time></trkpt><trkpt lat="44.6325692" lon="9.4945117"><ele>684.0</ele><time>2026-04-29T09:17:06.815Z</time></trkpt><trkpt lat="44.6325193" lon="9.494362"><ele>684.0</ele><time>2026-04-29T09:17:07.815Z</time></trkpt><trkpt lat="44.6324665" lon="9.4942303"><ele>687.0</ele><time>2026-04-29T09:17:08.814Z</time></trkpt><trkpt lat="44.632406" lon="9.4940912"><ele>690.0</ele><time>2026-04-29T09:17:09.813Z</time></trkpt><trkpt lat="44.6323363" lon="9.4939656"><ele>693.0</ele><time>2026-04-29T09:17:10.813Z</time></trkpt><trkpt lat="44.6322555" lon="9.4938601"><ele>696.0</ele><time>2026-04-29T09:17:11.813Z</time></trkpt><trkpt lat="44.6321661" lon="9.4937524"><ele>697.5999999999999</ele><time>2026-04-29T09:17:12.814Z</time></trkpt><trkpt lat="44.6320673" lon="9.4936426"><ele>699.2</ele><time>2026-04-29T09:17:13.814Z</time></trkpt><trkpt lat="44.6319697" lon="9.4935513"><ele>700.8</ele><time>2026-04-29T09:17:14.815Z</time></trkpt><trkpt lat="44.6318766" lon="9.4934854"><ele>702.4000000000001</ele><time>2026-04-29T09:17:15.815Z</time></trkpt><trkpt lat="44.6317865" lon="9.493433"><ele>704.0</ele><time>2026-04-29T09:17:16.814Z</time></trkpt><trkpt lat="44.6316954" lon="9.493374"><ele>704.0</ele><time>2026-04-29T09:17:17.813Z</time></trkpt><trkpt lat="44.6316118" lon="9.4932949"><ele>704.0</ele><time>2026-04-29T09:17:18.815Z</time></trkpt><trkpt lat="44.6315398" lon="9.4931954"><ele>704.0</ele><time>2026-04-29T09:17:19.814Z</time></trkpt><trkpt lat="44.6314819" lon="9.4930764"><ele>704.0</ele><time>2026-04-29T09:17:20.816Z</time></trkpt><trkpt lat="44.6314354" lon="9.4929405"><ele>704.0</ele><time>2026-04-29T09:17:21.814Z</time></trkpt><trkpt lat="44.6313845" lon="9.4928088"><ele>706.25</ele><time>2026-04-29T09:17:22.813Z</time></trkpt><trkpt lat="44.6313156" lon="9.4927111"><ele>708.5</ele><time>2026-04-29T09:17:23.813Z</time></trkpt><trkpt lat="44.631225" lon="9.4926472"><ele>710.75</ele><time>2026-04-29T09:17:24.814Z</time></trkpt><trkpt lat="44.6311123" lon="9.4926173"><ele>713.0</ele><time>2026-04-29T09:17:25.811Z</time></trkpt><trkpt lat="44.6309754" lon="9.4926084"><ele>713.0</ele><time>2026-04-29T09:17:26.817Z</time></trkpt><trkpt lat="44.6308256" lon="9.4926101"><ele>713.0</ele><time>2026-04-29T09:17:27.815Z</time></trkpt><trkpt lat="44.6306984" lon="9.4926136"><ele>713.0</ele><time>2026-04-29T09:17:28.813Z</time></trkpt><trkpt lat="44.6305707" lon="9.4926219"><ele>713.0</ele><time>2026-04-29T09:17:29.814Z</time></trkpt><trkpt lat="44.6304394" lon="9.4926253"><ele>713.0</ele><time>2026-04-29T09:17:30.812Z</time></trkpt><trkpt lat="44.6303124" lon="9.4926107"><ele>713.0</ele><time>2026-04-29T09:17:31.814Z</time></trkpt><trkpt lat="44.6301954" lon="9.4925787"><ele>713.0</ele><time>2026-04-29T09:17:32.814Z</time></trkpt><trkpt lat="44.6300841" lon="9.4925297"><ele>713.0</ele><time>2026-04-29T09:17:33.816Z</time></trkpt><trkpt lat="44.6299749" lon="9.4924752"><ele>713.25</ele><time>2026-04-29T09:17:34.814Z</time></trkpt><trkpt lat="44.6298565" lon="9.4924151"><ele>713.5</ele><time>2026-04-29T09:17:35.813Z</time></trkpt><trkpt lat="44.6297201" lon="9.4923499"><ele>713.75</ele><time>2026-04-29T09:17:36.815Z</time></trkpt><trkpt lat="44.6295709" lon="9.4922736"><ele>714.0</ele><time>2026-04-29T09:17:37.814Z</time></trkpt><trkpt lat="44.6294338" lon="9.4922041"><ele>714.0</ele><time>2026-04-29T09:17:38.815Z</time></trkpt><trkpt lat="44.6293085" lon="9.4921417"><ele>714.0</ele><time>2026-04-29T09:17:39.815Z</time></trkpt><trkpt lat="44.6291859" lon="9.4921017"><ele>714.0</ele><time>2026-04-29T09:17:40.815Z</time></trkpt><trkpt lat="44.6290673" lon="9.4921099"><ele>714.0</ele><time>2026-04-29T09:17:41.814Z</time></trkpt><trkpt lat="44.6289585" lon="9.4921798"><ele>714.0</ele><time>2026-04-29T09:17:42.813Z</time></trkpt><trkpt lat="44.6288723" lon="9.4922966"><ele>714.0</ele><time>2026-04-29T09:17:43.815Z</time></trkpt><trkpt lat="44.6288066" lon="9.4924445"><ele>714.0</ele><time>2026-04-29T09:17:44.815Z</time></trkpt><trkpt lat="44.6287458" lon="9.4925863"><ele>714.0</ele><time>2026-04-29T09:17:45.813Z</time></trkpt><trkpt lat="44.6286698" lon="9.4927057"><ele>715.25</ele><time>2026-04-29T09:17:46.816Z</time></trkpt><trkpt lat="44.6285746" lon="9.4928125"><ele>716.5</ele><time>2026-04-29T09:17:47.815Z</time></trkpt><trkpt lat="44.6284691" lon="9.4928982"><ele>717.75</ele><time>2026-04-29T09:17:48.814Z</time></trkpt><trkpt lat="44.6283797" lon="9.4929817"><ele>719.0</ele><time>2026-04-29T09:17:49.813Z</time></trkpt><trkpt lat="44.628305" lon="9.4930951"><ele>719.0</ele><time>2026-04-29T09:17:50.814Z</time></trkpt><trkpt lat="44.6282501" lon="9.4932137"><ele>719.0</ele><time>2026-04-29T09:17:51.816Z</time></trkpt><trkpt lat="44.6282015" lon="9.4933207"><ele>719.0</ele><time>2026-04-29T09:17:52.814Z</time></trkpt><trkpt lat="44.6281488" lon="9.4934037"><ele>719.0</ele><time>2026-04-29T09:17:53.814Z</time></trkpt><trkpt lat="44.6280841" lon="9.4934707"><ele>719.0</ele><time>2026-04-29T09:17:54.814Z</time></trkpt><trkpt lat="44.6280024" lon="9.4935284"><ele>719.0</ele><time>2026-04-29T09:17:55.815Z</time></trkpt><trkpt lat="44.6278975" lon="9.4935727"><ele>726.0</ele><time>2026-04-29T09:17:56.815Z</time></trkpt><trkpt lat="44.6277677" lon="9.4936172"><ele>733.0</ele><time>2026-04-29T09:17:57.815Z</time></trkpt><trkpt lat="44.6276482" lon="9.4936508"><ele>740.0</ele><time>2026-04-29T09:17:58.815Z</time></trkpt><trkpt lat="44.6275432" lon="9.493689"><ele>747.0</ele><time>2026-04-29T09:17:59.814Z</time></trkpt><trkpt lat="44.6274484" lon="9.4937545"><ele>741.6</ele><time>2026-04-29T09:18:00.815Z</time></trkpt><trkpt lat="44.6273738" lon="9.4938603"><ele>736.2</ele><time>2026-04-29T09:18:01.814Z</time></trkpt><trkpt lat="44.6273189" lon="9.4939829"><ele>730.8</ele><time>2026-04-29T09:18:02.814Z</time></trkpt><trkpt lat="44.6272724" lon="9.4940947"><ele>725.4</ele><time>2026-04-29T09:18:03.814Z</time></trkpt><trkpt lat="44.6272079" lon="9.4941836"><ele>720.0</ele><time>2026-04-29T09:18:04.816Z</time></trkpt><trkpt lat="44.6271218" lon="9.49425"><ele>720.0</ele><time>2026-04-29T09:18:05.814Z</time></trkpt><trkpt lat="44.6270259" lon="9.4942743"><ele>720.0</ele><time>2026-04-29T09:18:06.814Z</time></trkpt><trkpt lat="44.6269355" lon="9.4942473"><ele>720.0</ele><time>2026-04-29T09:18:07.814Z</time></trkpt><trkpt lat="44.6268493" lon="9.4941792"><ele>720.0</ele><time>2026-04-29T09:18:08.813Z</time></trkpt><trkpt lat="44.626751" lon="9.4940891"><ele>720.0</ele><time>2026-04-29T09:18:09.813Z</time></trkpt><trkpt lat="44.6266349" lon="9.494024"><ele>723.75</ele><time>2026-04-29T09:18:10.813Z</time></trkpt><trkpt lat="44.6265037" lon="9.4939886"><ele>727.5</ele><time>2026-04-29T09:18:11.815Z</time></trkpt><trkpt lat="44.6263848" lon="9.4939536"><ele>731.25</ele><time>2026-04-29T09:18:12.815Z</time></trkpt><trkpt lat="44.6262846" lon="9.493899"><ele>735.0</ele><time>2026-04-29T09:18:13.814Z</time></trkpt><trkpt lat="44.6262159" lon="9.4938083"><ele>734.5</ele><time>2026-04-29T09:18:14.813Z</time></trkpt><trkpt lat="44.6261685" lon="9.4936972"><ele>734.0</ele><time>2026-04-29T09:18:15.814Z</time></trkpt><trkpt lat="44.6261492" lon="9.4935553"><ele>733.5</ele><time>2026-04-29T09:18:16.815Z</time></trkpt><trkpt lat="44.6261423" lon="9.4933806"><ele>733.0</ele><time>2026-04-29T09:18:17.814Z</time></trkpt><trkpt lat="44.6261362" lon="9.4931709"><ele>733.0</ele><time>2026-04-29T09:18:18.815Z</time></trkpt><trkpt lat="44.626134" lon="9.4929482"><ele>733.0</ele><time>2026-04-29T09:18:19.814Z</time></trkpt><trkpt lat="44.6261299" lon="9.492757"><ele>733.0</ele><time>2026-04-29T09:18:20.815Z</time></trkpt><trkpt lat="44.6261146" lon="9.4925898"><ele>733.0</ele><time>2026-04-29T09:18:21.814Z</time></trkpt><trkpt lat="44.6260702" lon="9.4924225"><ele>735.5</ele><time>2026-04-29T09:18:22.813Z</time></trkpt><trkpt lat="44.6260049" lon="9.4922626"><ele>738.0</ele><time>2026-04-29T09:18:23.814Z</time></trkpt><trkpt lat="44.6259411" lon="9.4921033"><ele>740.5</ele><time>2026-04-29T09:18:24.814Z</time></trkpt><trkpt lat="44.625905" lon="9.4919488"><ele>743.0</ele><time>2026-04-29T09:18:25.814Z</time></trkpt><trkpt lat="44.6258784" lon="9.4917773"><ele>747.0</ele><time>2026-04-29T09:18:26.814Z</time></trkpt><trkpt lat="44.6258651" lon="9.4915947"><ele>751.0</ele><time>2026-04-29T09:18:27.813Z</time></trkpt><trkpt lat="44.6258527" lon="9.4914238"><ele>755.0</ele><time>2026-04-29T09:18:28.813Z</time></trkpt><trkpt lat="44.6258155" lon="9.4912648"><ele>759.0</ele><time>2026-04-29T09:18:29.815Z</time></trkpt><trkpt lat="44.6257478" lon="9.4911312"><ele>759.0</ele><time>2026-04-29T09:18:30.816Z</time></trkpt><trkpt lat="44.6256642" lon="9.4910416"><ele>759.0</ele><time>2026-04-29T09:18:31.815Z</time></trkpt><trkpt lat="44.6255641" lon="9.4910154"><ele>759.0</ele><time>2026-04-29T09:18:32.815Z</time></trkpt><trkpt lat="44.6254622" lon="9.4910484"><ele>759.0</ele><time>2026-04-29T09:18:33.814Z</time></trkpt><trkpt lat="44.6253768" lon="9.4911431"><ele>759.0</ele><time>2026-04-29T09:18:34.814Z</time></trkpt><trkpt lat="44.6253215" lon="9.4912889"><ele>759.0</ele><time>2026-04-29T09:18:35.813Z</time></trkpt><trkpt lat="44.6252969" lon="9.4914533"><ele>759.0</ele><time>2026-04-29T09:18:36.816Z</time></trkpt><trkpt lat="44.6252822" lon="9.4916141"><ele>759.0</ele><time>2026-04-29T09:18:37.814Z</time></trkpt><trkpt lat="44.6252516" lon="9.4917493"><ele>759.0</ele><time>2026-04-29T09:18:38.816Z</time></trkpt><trkpt lat="44.6251944" lon="9.4918548"><ele>759.0</ele><time>2026-04-29T09:18:39.814Z</time></trkpt><trkpt lat="44.6251104" lon="9.4919378"><ele>759.0</ele><time>2026-04-29T09:18:40.812Z</time></trkpt><trkpt lat="44.6250001" lon="9.4919811"><ele>759.0</ele><time>2026-04-29T09:18:41.813Z</time></trkpt><trkpt lat="44.6248701" lon="9.4919883"><ele>759.0</ele><time>2026-04-29T09:18:42.814Z</time></trkpt><trkpt lat="44.6247212" lon="9.4919793"><ele>759.0</ele><time>2026-04-29T09:18:43.816Z</time></trkpt><trkpt lat="44.6245585" lon="9.4919662"><ele>761.0</ele><time>2026-04-29T09:18:44.816Z</time></trkpt><trkpt lat="44.6243829" lon="9.4919582"><ele>763.0</ele><time>2026-04-29T09:18:45.815Z</time></trkpt><trkpt lat="44.6242021" lon="9.4919528"><ele>765.0</ele><time>2026-04-29T09:18:46.814Z</time></trkpt><trkpt lat="44.6240152" lon="9.4919437"><ele>765.0</ele><time>2026-04-29T09:18:47.812Z</time></trkpt><trkpt lat="44.6238206" lon="9.4919335"><ele>765.0</ele><time>2026-04-29T09:18:48.813Z</time></trkpt><trkpt lat="44.6236375" lon="9.4919262"><ele>765.0</ele><time>2026-04-29T09:18:49.815Z</time></trkpt><trkpt lat="44.6234747" lon="9.4919175"><ele>765.0</ele><time>2026-04-29T09:18:50.814Z</time></trkpt><trkpt lat="44.6233261" lon="9.4918885"><ele>765.0</ele><time>2026-04-29T09:18:51.815Z</time></trkpt><trkpt lat="44.623194" lon="9.4918246"><ele>765.0</ele><time>2026-04-29T09:18:52.813Z</time></trkpt><trkpt lat="44.6230766" lon="9.4917148"><ele>765.0</ele><time>2026-04-29T09:18:53.814Z</time></trkpt><trkpt lat="44.6229522" lon="9.4915715"><ele>765.0</ele><time>2026-04-29T09:18:54.814Z</time></trkpt><trkpt lat="44.6228153" lon="9.4914144"><ele>765.0</ele><time>2026-04-29T09:18:55.814Z</time></trkpt><trkpt lat="44.6226869" lon="9.4912753"><ele>765.0</ele><time>2026-04-29T09:18:56.816Z</time></trkpt><trkpt lat="44.622562" lon="9.4911541"><ele>768.25</ele><time>2026-04-29T09:18:57.814Z</time></trkpt><trkpt lat="44.6224359" lon="9.491046"><ele>771.5</ele><time>2026-04-29T09:18:58.815Z</time></trkpt><trkpt lat="44.6223186" lon="9.4909463"><ele>774.75</ele><time>2026-04-29T09:18:59.813Z</time></trkpt><trkpt lat="44.6222111" lon="9.4908575"><ele>778.0</ele><time>2026-04-29T09:19:00.815Z</time></trkpt><trkpt lat="44.6221032" lon="9.4907606"><ele>778.0</ele><time>2026-04-29T09:19:01.814Z</time></trkpt><trkpt lat="44.6219966" lon="9.4906451"><ele>778.0</ele><time>2026-04-29T09:19:02.816Z</time></trkpt><trkpt lat="44.621888" lon="9.4905116"><ele>778.0</ele><time>2026-04-29T09:19:03.814Z</time></trkpt><trkpt lat="44.6217849" lon="9.4903673"><ele>778.0</ele><time>2026-04-29T09:19:04.815Z</time></trkpt><trkpt lat="44.6216956" lon="9.4902338"><ele>779.0</ele><time>2026-04-29T09:19:05.815Z</time></trkpt><trkpt lat="44.6216145" lon="9.4901239"><ele>780.0</ele><time>2026-04-29T09:19:06.812Z</time></trkpt><trkpt lat="44.6215317" lon="9.4900405"><ele>781.0</ele><time>2026-04-29T09:19:07.814Z</time></trkpt><trkpt lat="44.6214357" lon="9.4899825"><ele>782.0</ele><time>2026-04-29T09:19:08.815Z</time></trkpt><trkpt lat="44.6213178" lon="9.4899522"><ele>783.0</ele><time>2026-04-29T09:19:09.816Z</time></trkpt><trkpt lat="44.6211818" lon="9.4899578"><ele>784.0</ele><time>2026-04-29T09:19:10.815Z</time></trkpt><trkpt lat="44.6210317" lon="9.4899794"><ele>785.0</ele><time>2026-04-29T09:19:11.815Z</time></trkpt><trkpt lat="44.6208569" lon="9.490007"><ele>786.0</ele><time>2026-04-29T09:19:12.814Z</time></trkpt><trkpt lat="44.6206781" lon="9.4900223"><ele>786.0</ele><time>2026-04-29T09:19:13.814Z</time></trkpt><trkpt lat="44.6204983" lon="9.4900197"><ele>786.0</ele><time>2026-04-29T09:19:14.815Z</time></trkpt><trkpt lat="44.6203059" lon="9.4899949"><ele>786.0</ele><time>2026-04-29T09:19:15.816Z</time></trkpt><trkpt lat="44.620129" lon="9.489961"><ele>786.6666666666667</ele><time>2026-04-29T09:19:16.815Z</time></trkpt><trkpt lat="44.6199586" lon="9.489933"><ele>787.3333333333334</ele><time>2026-04-29T09:19:17.815Z</time></trkpt><trkpt lat="44.6197891" lon="9.489899"><ele>788.0</ele><time>2026-04-29T09:19:18.814Z</time></trkpt><trkpt lat="44.6196243" lon="9.4898591"><ele>789.5</ele><time>2026-04-29T09:19:19.814Z</time></trkpt><trkpt lat="44.6194814" lon="9.4898147"><ele>791.0</ele><time>2026-04-29T09:19:20.814Z</time></trkpt><trkpt lat="44.6193509" lon="9.4897864"><ele>792.5</ele><time>2026-04-29T09:19:21.815Z</time></trkpt><trkpt lat="44.6192173" lon="9.4898113"><ele>794.0</ele><time>2026-04-29T09:19:22.813Z</time></trkpt><trkpt lat="44.6190765" lon="9.4898741"><ele>794.0</ele><time>2026-04-29T09:19:23.813Z</time></trkpt><trkpt lat="44.6189251" lon="9.4899525"><ele>794.0</ele><time>2026-04-29T09:19:24.813Z</time></trkpt><trkpt lat="44.6187693" lon="9.4900211"><ele>794.0</ele><time>2026-04-29T09:19:25.814Z</time></trkpt><trkpt lat="44.6185987" lon="9.4900824"><ele>797.0</ele><time>2026-04-29T09:19:26.814Z</time></trkpt><trkpt lat="44.6184346" lon="9.4901281"><ele>800.0</ele><time>2026-04-29T09:19:27.816Z</time></trkpt><trkpt lat="44.6182921" lon="9.4901669"><ele>803.0</ele><time>2026-04-29T09:19:28.815Z</time></trkpt><trkpt lat="44.6181627" lon="9.4902083"><ele>806.0</ele><time>2026-04-29T09:19:29.814Z</time></trkpt><trkpt lat="44.6180291" lon="9.4902478"><ele>806.0</ele><time>2026-04-29T09:19:30.816Z</time></trkpt><trkpt lat="44.6178915" lon="9.4902579"><ele>806.0</ele><time>2026-04-29T09:19:31.815Z</time></trkpt><trkpt lat="44.6177691" lon="9.4902237"><ele>806.0</ele><time>2026-04-29T09:19:32.814Z</time></trkpt><trkpt lat="44.6176507" lon="9.490152"><ele>806.0</ele><time>2026-04-29T09:19:33.814Z</time></trkpt><trkpt lat="44.617552" lon="9.4900345"><ele>806.25</ele><time>2026-04-29T09:19:34.814Z</time></trkpt><trkpt lat="44.6174796" lon="9.4898921"><ele>806.5</ele><time>2026-04-29T09:19:35.814Z</time></trkpt><trkpt lat="44.6174397" lon="9.4897467"><ele>806.75</ele><time>2026-04-29T09:19:36.814Z</time></trkpt><trkpt lat="44.6174294" lon="9.4895845"><ele>807.0</ele><time>2026-04-29T09:19:37.814Z</time></trkpt><trkpt lat="44.6174524" lon="9.4894119"><ele>807.0</ele><time>2026-04-29T09:19:38.813Z</time></trkpt><trkpt lat="44.617499" lon="9.4892235"><ele>807.0</ele><time>2026-04-29T09:19:39.815Z</time></trkpt><trkpt lat="44.6175591" lon="9.4890179"><ele>807.0</ele><time>2026-04-29T09:19:40.813Z</time></trkpt><trkpt lat="44.6176077" lon="9.4888205"><ele>807.0</ele><time>2026-04-29T09:19:41.816Z</time></trkpt><trkpt lat="44.6176255" lon="9.4886252"><ele>809.25</ele><time>2026-04-29T09:19:42.814Z</time></trkpt><trkpt lat="44.6176205" lon="9.4884383"><ele>811.5</ele><time>2026-04-29T09:19:43.815Z</time></trkpt><trkpt lat="44.617579" lon="9.4882745"><ele>813.75</ele><time>2026-04-29T09:19:44.815Z</time></trkpt><trkpt lat="44.6174935" lon="9.4881437"><ele>816.0</ele><time>2026-04-29T09:19:45.813Z</time></trkpt><trkpt lat="44.6173874" lon="9.4880189"><ele>819.0</ele><time>2026-04-29T09:19:46.814Z</time></trkpt><trkpt lat="44.6172704" lon="9.4878882"><ele>822.0</ele><time>2026-04-29T09:19:47.814Z</time></trkpt><trkpt lat="44.6171649" lon="9.4877506"><ele>825.0</ele><time>2026-04-29T09:19:48.816Z</time></trkpt><trkpt lat="44.6170768" lon="9.4876169"><ele>828.0</ele><time>2026-04-29T09:19:49.815Z</time></trkpt><trkpt lat="44.616997" lon="9.4874613"><ele>825.3333333333333</ele><time>2026-04-29T09:19:50.814Z</time></trkpt><trkpt lat="44.6169281" lon="9.4872806"><ele>822.6666666666666</ele><time>2026-04-29T09:19:51.814Z</time></trkpt><trkpt lat="44.6168606" lon="9.4870731"><ele>820.0</ele><time>2026-04-29T09:19:52.815Z</time></trkpt><trkpt lat="44.6167896" lon="9.4868825"><ele>820.0</ele><time>2026-04-29T09:19:53.814Z</time></trkpt><trkpt lat="44.6166913" lon="9.4866988"><ele>820.0</ele><time>2026-04-29T09:19:54.815Z</time></trkpt><trkpt lat="44.6165785" lon="9.486534"><ele>820.0</ele><time>2026-04-29T09:19:55.814Z</time></trkpt><trkpt lat="44.6164571" lon="9.486374"><ele>820.0</ele><time>2026-04-29T09:19:56.814Z</time></trkpt><trkpt lat="44.6163345" lon="9.4862201"><ele>820.0</ele><time>2026-04-29T09:19:57.814Z</time></trkpt><trkpt lat="44.6162284" lon="9.486082"><ele>820.0</ele><time>2026-04-29T09:19:58.814Z</time></trkpt><trkpt lat="44.6161298" lon="9.4859468"><ele>820.0</ele><time>2026-04-29T09:19:59.814Z</time></trkpt><trkpt lat="44.6160237" lon="9.4858094"><ele>820.0</ele><time>2026-04-29T09:20:00.814Z</time></trkpt><trkpt lat="44.61591" lon="9.4856778"><ele>820.0</ele><time>2026-04-29T09:20:01.815Z</time></trkpt><trkpt lat="44.6157818" lon="9.485554"><ele>820.0</ele><time>2026-04-29T09:20:02.814Z</time></trkpt><trkpt lat="44.6156437" lon="9.4854345"><ele>822.0</ele><time>2026-04-29T09:20:03.815Z</time></trkpt><trkpt lat="44.6154975" lon="9.4853357"><ele>824.0</ele><time>2026-04-29T09:20:04.814Z</time></trkpt><trkpt lat="44.6153528" lon="9.4852466"><ele>826.0</ele><time>2026-04-29T09:20:05.813Z</time></trkpt><trkpt lat="44.6152231" lon="9.48516"><ele>826.0</ele><time>2026-04-29T09:20:06.815Z</time></trkpt><trkpt lat="44.6151101" lon="9.4850638"><ele>826.0</ele><time>2026-04-29T09:20:07.815Z</time></trkpt><trkpt lat="44.6150102" lon="9.4849491"><ele>826.0</ele><time>2026-04-29T09:20:08.816Z</time></trkpt><trkpt lat="44.6149274" lon="9.4848118"><ele>826.0</ele><time>2026-04-29T09:20:09.814Z</time></trkpt><trkpt lat="44.6148568" lon="9.4846598"><ele>827.5</ele><time>2026-04-29T09:20:10.815Z</time></trkpt><trkpt lat="44.6147825" lon="9.4845012"><ele>829.0</ele><time>2026-04-29T09:20:11.813Z</time></trkpt><trkpt lat="44.6146891" lon="9.4843692"><ele>830.5</ele><time>2026-04-29T09:20:12.816Z</time></trkpt><trkpt lat="44.6145776" lon="9.4842607"><ele>832.0</ele><time>2026-04-29T09:20:13.815Z</time></trkpt><trkpt lat="44.6144481" lon="9.4841673"><ele>832.0</ele><time>2026-04-29T09:20:14.814Z</time></trkpt><trkpt lat="44.6143187" lon="9.4840634"><ele>832.0</ele><time>2026-04-29T09:20:15.815Z</time></trkpt><trkpt lat="44.6141955" lon="9.4839389"><ele>832.0</ele><time>2026-04-29T09:20:16.813Z</time></trkpt><trkpt lat="44.6140671" lon="9.483791"><ele>838.6666666666666</ele><time>2026-04-29T09:20:17.815Z</time></trkpt><trkpt lat="44.6139401" lon="9.4836212"><ele>845.3333333333333</ele><time>2026-04-29T09:20:18.814Z</time></trkpt><trkpt lat="44.6138269" lon="9.4834593"><ele>852.0</ele><time>2026-04-29T09:20:19.816Z</time></trkpt><trkpt lat="44.6137276" lon="9.4833101"><ele>848.2</ele><time>2026-04-29T09:20:20.815Z</time></trkpt><trkpt lat="44.6136545" lon="9.4831815"><ele>844.4000000000001</ele><time>2026-04-29T09:20:21.815Z</time></trkpt><trkpt lat="44.6136017" lon="9.4830591"><ele>840.5999999999999</ele><time>2026-04-29T09:20:22.814Z</time></trkpt><trkpt lat="44.6135772" lon="9.4829397"><ele>836.8</ele><time>2026-04-29T09:20:23.814Z</time></trkpt><trkpt lat="44.6135815" lon="9.4828224"><ele>833.0</ele><time>2026-04-29T09:20:24.814Z</time></trkpt><trkpt lat="44.6136159" lon="9.4827025"><ele>839.0</ele><time>2026-04-29T09:20:25.814Z</time></trkpt><trkpt lat="44.6136743" lon="9.482576"><ele>845.0</ele><time>2026-04-29T09:20:26.816Z</time></trkpt><trkpt lat="44.6137305" lon="9.482434"><ele>851.0</ele><time>2026-04-29T09:20:27.814Z</time></trkpt><trkpt lat="44.6137576" lon="9.4822672"><ele>857.0</ele><time>2026-04-29T09:20:28.813Z</time></trkpt><trkpt lat="44.6137515" lon="9.4820846"><ele>857.25</ele><time>2026-04-29T09:20:29.812Z</time></trkpt><trkpt lat="44.6137219" lon="9.4818916"><ele>857.5</ele><time>2026-04-29T09:20:30.815Z</time></trkpt><trkpt lat="44.6136972" lon="9.4816831"><ele>857.75</ele><time>2026-04-29T09:20:31.814Z</time></trkpt><trkpt lat="44.613686" lon="9.4814656"><ele>858.0</ele><time>2026-04-29T09:20:32.813Z</time></trkpt><trkpt lat="44.6136783" lon="9.4812546"><ele>860.75</ele><time>2026-04-29T09:20:33.814Z</time></trkpt><trkpt lat="44.613658" lon="9.4810513"><ele>863.5</ele><time>2026-04-29T09:20:34.814Z</time></trkpt><trkpt lat="44.6136006" lon="9.48088"><ele>866.25</ele><time>2026-04-29T09:20:35.813Z</time></trkpt><trkpt lat="44.6135415" lon="9.4807274"><ele>869.0</ele><time>2026-04-29T09:20:36.814Z</time></trkpt><trkpt lat="44.6134891" lon="9.4805784"><ele>865.4000000000001</ele><time>2026-04-29T09:20:37.814Z</time></trkpt><trkpt lat="44.6134481" lon="9.4804443"><ele>861.8000000000001</ele><time>2026-04-29T09:20:38.815Z</time></trkpt><trkpt lat="44.6134265" lon="9.4803191"><ele>858.2</ele><time>2026-04-29T09:20:39.816Z</time></trkpt><trkpt lat="44.6134202" lon="9.4801718"><ele>854.5999999999999</ele><time>2026-04-29T09:20:40.815Z</time></trkpt><trkpt lat="44.6134202" lon="9.4799945"><ele>851.0</ele><time>2026-04-29T09:20:41.815Z</time></trkpt><trkpt lat="44.6134137" lon="9.479837"><ele>851.0000000000001</ele><time>2026-04-29T09:20:42.813Z</time></trkpt><trkpt lat="44.6133966" lon="9.4796959"><ele>851.0</ele><time>2026-04-29T09:20:43.814Z</time></trkpt><trkpt lat="44.6133726" lon="9.4795654"><ele>851.0</ele><time>2026-04-29T09:20:44.813Z</time></trkpt><trkpt lat="44.6133516" lon="9.4794529"><ele>851.0</ele><time>2026-04-29T09:20:45.813Z</time></trkpt><trkpt lat="44.6133345" lon="9.479352"><ele>851.0000000000001</ele><time>2026-04-29T09:20:46.815Z</time></trkpt><trkpt lat="44.6133245" lon="9.4792609"><ele>851.0</ele><time>2026-04-29T09:20:47.815Z</time></trkpt><trkpt lat="44.6133207" lon="9.4791149"><ele>851.5000000000001</ele><time>2026-04-29T09:20:49.813Z</time></trkpt><trkpt lat="44.6133308" lon="9.4790137"><ele>852.0</ele><time>2026-04-29T09:20:52.815Z</time></trkpt><trkpt lat="44.6133226" lon="9.4788924"><ele>852.5</ele><time>2026-04-29T09:21:20.818Z</time></trkpt><trkpt lat="44.6133278" lon="9.4787726"><ele>853.0</ele><time>2026-04-29T09:21:21.813Z</time></trkpt><trkpt lat="44.6133255" lon="9.4786715"><ele>853.5000000000001</ele><time>2026-04-29T09:21:22.815Z</time></trkpt><trkpt lat="44.6133113" lon="9.4785632"><ele>854.0</ele><time>2026-04-29T09:21:23.814Z</time></trkpt><trkpt lat="44.6132871" lon="9.4784602"><ele>855.3333333333334</ele><time>2026-04-29T09:21:24.816Z</time></trkpt><trkpt lat="44.6132516" lon="9.4783589"><ele>856.6666666666667</ele><time>2026-04-29T09:21:25.812Z</time></trkpt><trkpt lat="44.6132088" lon="9.4782769"><ele>858.0</ele><time>2026-04-29T09:21:26.815Z</time></trkpt><trkpt lat="44.6131545" lon="9.4782221"><ele>859.3333333333333</ele><time>2026-04-29T09:21:27.813Z</time></trkpt><trkpt lat="44.6130798" lon="9.4781894"><ele>860.6666666666666</ele><time>2026-04-29T09:21:28.814Z</time></trkpt><trkpt lat="44.6129944" lon="9.4781912"><ele>862.0</ele><time>2026-04-29T09:21:29.815Z</time></trkpt><trkpt lat="44.6128927" lon="9.4782206"><ele>859.4000000000001</ele><time>2026-04-29T09:21:30.816Z</time></trkpt><trkpt lat="44.6127897" lon="9.4782546"><ele>856.8000000000001</ele><time>2026-04-29T09:21:31.815Z</time></trkpt><trkpt lat="44.612697" lon="9.4782661"><ele>854.2</ele><time>2026-04-29T09:21:32.813Z</time></trkpt><trkpt lat="44.6126019" lon="9.4782396"><ele>851.6</ele><time>2026-04-29T09:21:33.814Z</time></trkpt><trkpt lat="44.6125186" lon="9.4781618"><ele>849.0</ele><time>2026-04-29T09:21:34.814Z</time></trkpt><trkpt lat="44.6124571" lon="9.478045"><ele>852.25</ele><time>2026-04-29T09:21:35.814Z</time></trkpt><trkpt lat="44.6124262" lon="9.4778862"><ele>855.5</ele><time>2026-04-29T09:21:36.815Z</time></trkpt><trkpt lat="44.6124044" lon="9.4776866"><ele>858.75</ele><time>2026-04-29T09:21:37.814Z</time></trkpt><trkpt lat="44.6123782" lon="9.4774403"><ele>862.0</ele><time>2026-04-29T09:21:38.814Z</time></trkpt><trkpt lat="44.6123556" lon="9.4772108"><ele>866.6666666666666</ele><time>2026-04-29T09:21:39.814Z</time></trkpt><trkpt lat="44.6123317" lon="9.4769843"><ele>871.3333333333333</ele><time>2026-04-29T09:21:40.813Z</time></trkpt><trkpt lat="44.6123058" lon="9.4767791"><ele>876.0</ele><time>2026-04-29T09:21:41.814Z</time></trkpt><trkpt lat="44.6122713" lon="9.4765707"><ele>876.0</ele><time>2026-04-29T09:21:42.814Z</time></trkpt><trkpt lat="44.6122328" lon="9.4763701"><ele>876.0</ele><time>2026-04-29T09:21:43.813Z</time></trkpt><trkpt lat="44.6121922" lon="9.4761701"><ele>876.0</ele><time>2026-04-29T09:21:44.813Z</time></trkpt><trkpt lat="44.6121504" lon="9.4759647"><ele>876.0</ele><time>2026-04-29T09:21:45.814Z</time></trkpt><trkpt lat="44.6121083" lon="9.4757659"><ele>878.0</ele><time>2026-04-29T09:21:46.814Z</time></trkpt><trkpt lat="44.6120717" lon="9.4755859"><ele>880.0</ele><time>2026-04-29T09:21:47.814Z</time></trkpt><trkpt lat="44.6120378" lon="9.475416"><ele>882.0</ele><time>2026-04-29T09:21:48.814Z</time></trkpt><trkpt lat="44.6120059" lon="9.4752421"><ele>884.0</ele><time>2026-04-29T09:21:49.814Z</time></trkpt><trkpt lat="44.6119781" lon="9.475069"><ele>878.0</ele><time>2026-04-29T09:21:50.815Z</time></trkpt><trkpt lat="44.6119485" lon="9.4748957"><ele>872.0</ele><time>2026-04-29T09:21:51.815Z</time></trkpt><trkpt lat="44.6119168" lon="9.4747251"><ele>866.0</ele><time>2026-04-29T09:21:52.813Z</time></trkpt><trkpt lat="44.6118812" lon="9.4745634"><ele>860.0</ele><time>2026-04-29T09:21:53.813Z</time></trkpt><trkpt lat="44.6118334" lon="9.4744184"><ele>860.0</ele><time>2026-04-29T09:21:54.813Z</time></trkpt><trkpt lat="44.6117722" lon="9.4742621"><ele>860.0</ele><time>2026-04-29T09:21:55.814Z</time></trkpt><trkpt lat="44.611701" lon="9.4741016"><ele>860.0</ele><time>2026-04-29T09:21:56.815Z</time></trkpt><trkpt lat="44.6116334" lon="9.4739568"><ele>860.0</ele><time>2026-04-29T09:21:57.814Z</time></trkpt><trkpt lat="44.6115572" lon="9.4738069"><ele>864.25</ele><time>2026-04-29T09:21:58.814Z</time></trkpt><trkpt lat="44.611474" lon="9.473663"><ele>868.5</ele><time>2026-04-29T09:21:59.814Z</time></trkpt><trkpt lat="44.6113849" lon="9.473529"><ele>872.75</ele><time>2026-04-29T09:22:00.814Z</time></trkpt><trkpt lat="44.6112901" lon="9.4734051"><ele>877.0</ele><time>2026-04-29T09:22:01.812Z</time></trkpt><trkpt lat="44.611195" lon="9.4732931"><ele>873.0</ele><time>2026-04-29T09:22:02.815Z</time></trkpt><trkpt lat="44.6110947" lon="9.4731934"><ele>869.0</ele><time>2026-04-29T09:22:03.815Z</time></trkpt><trkpt lat="44.6109734" lon="9.4731121"><ele>865.0</ele><time>2026-04-29T09:22:04.817Z</time></trkpt><trkpt lat="44.6108312" lon="9.4730366"><ele>861.0</ele><time>2026-04-29T09:22:05.813Z</time></trkpt><trkpt lat="44.6106802" lon="9.4729601"><ele>864.3333333333333</ele><time>2026-04-29T09:22:06.813Z</time></trkpt><trkpt lat="44.6105305" lon="9.4728774"><ele>867.6666666666666</ele><time>2026-04-29T09:22:07.813Z</time></trkpt><trkpt lat="44.6103831" lon="9.4727949"><ele>871.0</ele><time>2026-04-29T09:22:08.813Z</time></trkpt><trkpt lat="44.6102555" lon="9.4727355"><ele>871.0</ele><time>2026-04-29T09:22:09.815Z</time></trkpt><trkpt lat="44.6101385" lon="9.4727051"><ele>871.0</ele><time>2026-04-29T09:22:10.815Z</time></trkpt><trkpt lat="44.6100238" lon="9.4727035"><ele>871.0</ele><time>2026-04-29T09:22:11.814Z</time></trkpt><trkpt lat="44.609916" lon="9.4727403"><ele>871.0</ele><time>2026-04-29T09:22:12.813Z</time></trkpt><trkpt lat="44.6098187" lon="9.4728157"><ele>871.0</ele><time>2026-04-29T09:22:13.814Z</time></trkpt><trkpt lat="44.6097353" lon="9.4729119"><ele>870.9999999999999</ele><time>2026-04-29T09:22:14.814Z</time></trkpt><trkpt lat="44.6096843" lon="9.4730407"><ele>870.9999999999999</ele><time>2026-04-29T09:22:15.813Z</time></trkpt><trkpt lat="44.6096599" lon="9.4731917"><ele>871.0</ele><time>2026-04-29T09:22:16.819Z</time></trkpt><trkpt lat="44.6096611" lon="9.4733568"><ele>871.0</ele><time>2026-04-29T09:22:17.814Z</time></trkpt><trkpt lat="44.6096954" lon="9.4735209"><ele>871.0</ele><time>2026-04-29T09:22:18.816Z</time></trkpt><trkpt lat="44.6097586" lon="9.473675"><ele>871.0</ele><time>2026-04-29T09:22:19.812Z</time></trkpt><trkpt lat="44.6098456" lon="9.4738259"><ele>871.0</ele><time>2026-04-29T09:22:20.814Z</time></trkpt><trkpt lat="44.6099294" lon="9.4739546"><ele>871.0</ele><time>2026-04-29T09:22:21.814Z</time></trkpt><trkpt lat="44.6100043" lon="9.4740862"><ele>871.5999999999999</ele><time>2026-04-29T09:22:22.815Z</time></trkpt><trkpt lat="44.6100584" lon="9.4742274"><ele>872.1999999999999</ele><time>2026-04-29T09:22:23.814Z</time></trkpt><trkpt lat="44.6100809" lon="9.4743783"><ele>872.8000000000001</ele><time>2026-04-29T09:22:24.815Z</time></trkpt><trkpt lat="44.6100678" lon="9.4745287"><ele>873.4000000000001</ele><time>2026-04-29T09:22:25.813Z</time></trkpt><trkpt lat="44.6100184" lon="9.4746716"><ele>874.0</ele><time>2026-04-29T09:22:26.814Z</time></trkpt><trkpt lat="44.609942" lon="9.4748148"><ele>874.0</ele><time>2026-04-29T09:22:27.815Z</time></trkpt><trkpt lat="44.6098589" lon="9.4749536"><ele>874.0</ele><time>2026-04-29T09:22:28.814Z</time></trkpt><trkpt lat="44.6098032" lon="9.4751069"><ele>874.0</ele><time>2026-04-29T09:22:29.816Z</time></trkpt><trkpt lat="44.6097647" lon="9.4752776"><ele>874.0</ele><time>2026-04-29T09:22:30.814Z</time></trkpt><trkpt lat="44.6097339" lon="9.4754479"><ele>873.75</ele><time>2026-04-29T09:22:31.812Z</time></trkpt><trkpt lat="44.6096912" lon="9.4756093"><ele>873.5</ele><time>2026-04-29T09:22:32.814Z</time></trkpt><trkpt lat="44.6096285" lon="9.4757586"><ele>873.25</ele><time>2026-04-29T09:22:33.814Z</time></trkpt><trkpt lat="44.6095451" lon="9.4758971"><ele>873.0</ele><time>2026-04-29T09:22:34.814Z</time></trkpt><trkpt lat="44.6094427" lon="9.4760374"><ele>880.6666666666667</ele><time>2026-04-29T09:22:35.814Z</time></trkpt><trkpt lat="44.6093344" lon="9.4762032"><ele>888.3333333333334</ele><time>2026-04-29T09:22:36.816Z</time></trkpt><trkpt lat="44.6092446" lon="9.4763748"><ele>896.0</ele><time>2026-04-29T09:22:37.813Z</time></trkpt><trkpt lat="44.6091688" lon="9.4765533"><ele>896.0</ele><time>2026-04-29T09:22:38.814Z</time></trkpt><trkpt lat="44.6091017" lon="9.4767215"><ele>896.0</ele><time>2026-04-29T09:22:39.814Z</time></trkpt><trkpt lat="44.6090375" lon="9.4768665"><ele>896.0</ele><time>2026-04-29T09:22:40.814Z</time></trkpt><trkpt lat="44.608985" lon="9.4769958"><ele>896.0</ele><time>2026-04-29T09:22:41.813Z</time></trkpt><trkpt lat="44.6089463" lon="9.477139"><ele>895.5999999999999</ele><time>2026-04-29T09:22:42.815Z</time></trkpt><trkpt lat="44.608936" lon="9.4772892"><ele>895.1999999999999</ele><time>2026-04-29T09:22:43.814Z</time></trkpt><trkpt lat="44.608953" lon="9.4774262"><ele>894.8000000000001</ele><time>2026-04-29T09:22:44.813Z</time></trkpt><trkpt lat="44.6090029" lon="9.4775476"><ele>894.4000000000001</ele><time>2026-04-29T09:22:45.814Z</time></trkpt><trkpt lat="44.6090782" lon="9.4776583"><ele>894.0</ele><time>2026-04-29T09:22:46.815Z</time></trkpt><trkpt lat="44.6091788" lon="9.477775"><ele>894.0</ele><time>2026-04-29T09:22:47.815Z</time></trkpt><trkpt lat="44.6092776" lon="9.4778806"><ele>894.0000000000001</ele><time>2026-04-29T09:22:48.817Z</time></trkpt><trkpt lat="44.6093606" lon="9.4779776"><ele>894.0000000000001</ele><time>2026-04-29T09:22:49.815Z</time></trkpt><trkpt lat="44.6094206" lon="9.4780798"><ele>894.0</ele><time>2026-04-29T09:22:50.814Z</time></trkpt><trkpt lat="44.6094612" lon="9.4782085"><ele>894.0</ele><time>2026-04-29T09:22:51.814Z</time></trkpt><trkpt lat="44.6094769" lon="9.4783556"><ele>896.75</ele><time>2026-04-29T09:22:52.815Z</time></trkpt><trkpt lat="44.6094596" lon="9.4785003"><ele>899.5</ele><time>2026-04-29T09:22:53.814Z</time></trkpt><trkpt lat="44.6094137" lon="9.4786459"><ele>902.25</ele><time>2026-04-29T09:22:54.815Z</time></trkpt><trkpt lat="44.6093569" lon="9.4788023"><ele>905.0</ele><time>2026-04-29T09:22:55.816Z</time></trkpt><trkpt lat="44.6093291" lon="9.4789741"><ele>906.0</ele><time>2026-04-29T09:22:56.814Z</time></trkpt><trkpt lat="44.6093236" lon="9.4791606"><ele>907.0</ele><time>2026-04-29T09:22:57.815Z</time></trkpt><trkpt lat="44.609323" lon="9.4793777"><ele>908.0</ele><time>2026-04-29T09:22:58.812Z</time></trkpt><trkpt lat="44.6093338" lon="9.479601"><ele>909.0</ele><time>2026-04-29T09:22:59.812Z</time></trkpt><trkpt lat="44.6093478" lon="9.4797844"><ele>910.5</ele><time>2026-04-29T09:23:00.815Z</time></trkpt><trkpt lat="44.6093905" lon="9.4799436"><ele>912.0</ele><time>2026-04-29T09:23:01.813Z</time></trkpt><trkpt lat="44.6094588" lon="9.4801017"><ele>913.5</ele><time>2026-04-29T09:23:02.814Z</time></trkpt><trkpt lat="44.6095401" lon="9.4802658"><ele>915.0</ele><time>2026-04-29T09:23:03.814Z</time></trkpt><trkpt lat="44.6096084" lon="9.4804076"><ele>910.8</ele><time>2026-04-29T09:23:04.813Z</time></trkpt><trkpt lat="44.6096567" lon="9.4805497"><ele>906.6</ele><time>2026-04-29T09:23:05.812Z</time></trkpt><trkpt lat="44.6096804" lon="9.4806877"><ele>902.4000000000001</ele><time>2026-04-29T09:23:06.814Z</time></trkpt><trkpt lat="44.6096793" lon="9.4808268"><ele>898.2</ele><time>2026-04-29T09:23:07.812Z</time></trkpt><trkpt lat="44.6096495" lon="9.480969"><ele>894.0</ele><time>2026-04-29T09:23:08.812Z</time></trkpt><trkpt lat="44.6095865" lon="9.4811098"><ele>892.0</ele><time>2026-04-29T09:23:09.814Z</time></trkpt><trkpt lat="44.6094949" lon="9.4812672"><ele>890.0</ele><time>2026-04-29T09:23:10.813Z</time></trkpt><trkpt lat="44.6093808" lon="9.4814658"><ele>888.0</ele><time>2026-04-29T09:23:11.812Z</time></trkpt><trkpt lat="44.6092693" lon="9.4816638"><ele>894.25</ele><time>2026-04-29T09:23:12.814Z</time></trkpt><trkpt lat="44.6091698" lon="9.481832"><ele>900.5</ele><time>2026-04-29T09:23:13.812Z</time></trkpt><trkpt lat="44.6090838" lon="9.4819871"><ele>906.75</ele><time>2026-04-29T09:23:14.814Z</time></trkpt><trkpt lat="44.6090219" lon="9.4821367"><ele>913.0</ele><time>2026-04-29T09:23:15.815Z</time></trkpt><trkpt lat="44.6089863" lon="9.4822919"><ele>913.0</ele><time>2026-04-29T09:23:16.814Z</time></trkpt><trkpt lat="44.6089844" lon="9.48244"><ele>913.0</ele><time>2026-04-29T09:23:17.813Z</time></trkpt><trkpt lat="44.6090032" lon="9.482594"><ele>913.0</ele><time>2026-04-29T09:23:18.814Z</time></trkpt><trkpt lat="44.609024" lon="9.4827347"><ele>913.0</ele><time>2026-04-29T09:23:19.815Z</time></trkpt><trkpt lat="44.6090297" lon="9.4828774"><ele>913.0</ele><time>2026-04-29T09:23:20.815Z</time></trkpt><trkpt lat="44.6090161" lon="9.4830128"><ele>913.8</ele><time>2026-04-29T09:23:21.813Z</time></trkpt><trkpt lat="44.6089854" lon="9.4831374"><ele>914.5999999999999</ele><time>2026-04-29T09:23:22.816Z</time></trkpt><trkpt lat="44.6089425" lon="9.4832384"><ele>915.4000000000001</ele><time>2026-04-29T09:23:23.814Z</time></trkpt><trkpt lat="44.6088772" lon="9.4833212"><ele>916.2</ele><time>2026-04-29T09:23:24.814Z</time></trkpt><trkpt lat="44.6087881" lon="9.4833968"><ele>917.0</ele><time>2026-04-29T09:23:25.814Z</time></trkpt><trkpt lat="44.6086723" lon="9.4834487"><ele>918.75</ele><time>2026-04-29T09:23:26.813Z</time></trkpt><trkpt lat="44.6085436" lon="9.483488"><ele>920.5</ele><time>2026-04-29T09:23:27.816Z</time></trkpt><trkpt lat="44.6084209" lon="9.483563"><ele>922.25</ele><time>2026-04-29T09:23:28.814Z</time></trkpt><trkpt lat="44.6082942" lon="9.4836759"><ele>924.0</ele><time>2026-04-29T09:23:29.815Z</time></trkpt><trkpt lat="44.6081616" lon="9.483808"><ele>922.0</ele><time>2026-04-29T09:23:30.814Z</time></trkpt><trkpt lat="44.608031" lon="9.4839262"><ele>920.0</ele><time>2026-04-29T09:23:31.813Z</time></trkpt><trkpt lat="44.60789" lon="9.4840336"><ele>918.0</ele><time>2026-04-29T09:23:32.814Z</time></trkpt><trkpt lat="44.6077546" lon="9.484128"><ele>918.0</ele><time>2026-04-29T09:23:33.815Z</time></trkpt><trkpt lat="44.6076253" lon="9.4842155"><ele>918.0</ele><time>2026-04-29T09:23:34.815Z</time></trkpt><trkpt lat="44.6074985" lon="9.4842812"><ele>918.0</ele><time>2026-04-29T09:23:35.813Z</time></trkpt><trkpt lat="44.6073818" lon="9.4843287"><ele>918.0</ele><time>2026-04-29T09:23:36.815Z</time></trkpt><trkpt lat="44.6072679" lon="9.4843667"><ele>918.0</ele><time>2026-04-29T09:23:37.813Z</time></trkpt><trkpt lat="44.6071398" lon="9.4843763"><ele>918.0</ele><time>2026-04-29T09:23:38.814Z</time></trkpt><trkpt lat="44.6070095" lon="9.4843549"><ele>918.0</ele><time>2026-04-29T09:23:39.816Z</time></trkpt><trkpt lat="44.6069014" lon="9.4843166"><ele>918.0</ele><time>2026-04-29T09:23:40.816Z</time></trkpt><trkpt lat="44.6068083" lon="9.484268"><ele>918.5</ele><time>2026-04-29T09:23:41.814Z</time></trkpt><trkpt lat="44.6067181" lon="9.4841978"><ele>919.0</ele><time>2026-04-29T09:23:42.814Z</time></trkpt><trkpt lat="44.6066258" lon="9.4841056"><ele>919.5</ele><time>2026-04-29T09:23:43.815Z</time></trkpt><trkpt lat="44.6065313" lon="9.4840073"><ele>920.0</ele><time>2026-04-29T09:23:44.814Z</time></trkpt><trkpt lat="44.6064313" lon="9.4839217"><ele>920.0</ele><time>2026-04-29T09:23:45.816Z</time></trkpt><trkpt lat="44.6063363" lon="9.4838524"><ele>920.0</ele><time>2026-04-29T09:23:46.814Z</time></trkpt><trkpt lat="44.6062491" lon="9.4837935"><ele>920.0</ele><time>2026-04-29T09:23:47.815Z</time></trkpt><trkpt lat="44.6061682" lon="9.4837448"><ele>920.0</ele><time>2026-04-29T09:23:48.815Z</time></trkpt><trkpt lat="44.6060835" lon="9.4837061"><ele>920.0</ele><time>2026-04-29T09:23:49.814Z</time></trkpt><trkpt lat="44.6059982" lon="9.4836721"><ele>923.8</ele><time>2026-04-29T09:23:50.814Z</time></trkpt><trkpt lat="44.6059112" lon="9.4836435"><ele>927.6</ele><time>2026-04-29T09:23:51.815Z</time></trkpt><trkpt lat="44.6058122" lon="9.4836107"><ele>931.4000000000001</ele><time>2026-04-29T09:23:52.816Z</time></trkpt><trkpt lat="44.6056987" lon="9.4835859"><ele>935.2</ele><time>2026-04-29T09:23:53.819Z</time></trkpt><trkpt lat="44.6055803" lon="9.4835835"><ele>939.0</ele><time>2026-04-29T09:23:54.815Z</time></trkpt><trkpt lat="44.6054628" lon="9.4836201"><ele>939.0</ele><time>2026-04-29T09:23:55.814Z</time></trkpt><trkpt lat="44.6053415" lon="9.4837066"><ele>939.0</ele><time>2026-04-29T09:23:56.813Z</time></trkpt><trkpt lat="44.6052196" lon="9.4838118"><ele>939.0</ele><time>2026-04-29T09:23:57.814Z</time></trkpt><trkpt lat="44.6051053" lon="9.4839227"><ele>939.0</ele><time>2026-04-29T09:23:58.814Z</time></trkpt><trkpt lat="44.6049986" lon="9.4840153"><ele>936.0</ele><time>2026-04-29T09:23:59.815Z</time></trkpt><trkpt lat="44.6048888" lon="9.4840779"><ele>933.0</ele><time>2026-04-29T09:24:00.815Z</time></trkpt><trkpt lat="44.6047716" lon="9.4841022"><ele>930.0</ele><time>2026-04-29T09:24:01.815Z</time></trkpt><trkpt lat="44.604653" lon="9.4840726"><ele>927.0</ele><time>2026-04-29T09:24:02.814Z</time></trkpt><trkpt lat="44.6045404" lon="9.483994"><ele>925.0</ele><time>2026-04-29T09:24:03.814Z</time></trkpt><trkpt lat="44.6044296" lon="9.4838696"><ele>923.0</ele><time>2026-04-29T09:24:04.815Z</time></trkpt><trkpt lat="44.6043158" lon="9.4837196"><ele>921.0</ele><time>2026-04-29T09:24:05.816Z</time></trkpt><trkpt lat="44.6041995" lon="9.4835592"><ele>926.5</ele><time>2026-04-29T09:24:06.814Z</time></trkpt><trkpt lat="44.6040985" lon="9.4834293"><ele>932.0</ele><time>2026-04-29T09:24:07.815Z</time></trkpt><trkpt lat="44.6039923" lon="9.4833308"><ele>937.5</ele><time>2026-04-29T09:24:08.814Z</time></trkpt><trkpt lat="44.6038752" lon="9.4832785"><ele>943.0</ele><time>2026-04-29T09:24:09.813Z</time></trkpt><trkpt lat="44.6037609" lon="9.4832852"><ele>941.75</ele><time>2026-04-29T09:24:10.814Z</time></trkpt><trkpt lat="44.603648" lon="9.4833187"><ele>940.5</ele><time>2026-04-29T09:24:11.814Z</time></trkpt><trkpt lat="44.6035292" lon="9.4833202"><ele>939.25</ele><time>2026-04-29T09:24:12.814Z</time></trkpt><trkpt lat="44.6034104" lon="9.4832722"><ele>938.0</ele><time>2026-04-29T09:24:13.816Z</time></trkpt><trkpt lat="44.603285" lon="9.4831767"><ele>938.0</ele><time>2026-04-29T09:24:14.815Z</time></trkpt><trkpt lat="44.6031451" lon="9.4830509"><ele>938.0</ele><time>2026-04-29T09:24:15.814Z</time></trkpt><trkpt lat="44.6030047" lon="9.4829264"><ele>938.0</ele><time>2026-04-29T09:24:16.814Z</time></trkpt><trkpt lat="44.602878" lon="9.4828173"><ele>945.0</ele><time>2026-04-29T09:24:17.816Z</time></trkpt><trkpt lat="44.6027593" lon="9.482731"><ele>952.0</ele><time>2026-04-29T09:24:18.815Z</time></trkpt><trkpt lat="44.6026424" lon="9.4826958"><ele>959.0</ele><time>2026-04-29T09:24:19.816Z</time></trkpt><trkpt lat="44.602529" lon="9.4827182"><ele>966.0</ele><time>2026-04-29T09:24:20.814Z</time></trkpt><trkpt lat="44.6024357" lon="9.4827961"><ele>966.0</ele><time>2026-04-29T09:24:21.815Z</time></trkpt><trkpt lat="44.6023344" lon="9.4828733"><ele>966.0</ele><time>2026-04-29T09:24:22.814Z</time></trkpt><trkpt lat="44.6022524" lon="9.4829844"><ele>966.0</ele><time>2026-04-29T09:24:23.816Z</time></trkpt><trkpt lat="44.6023702" lon="9.4832291"><ele>966.0</ele><time>2026-04-29T09:24:24.815Z</time></trkpt><trkpt lat="44.6023661" lon="9.4833729"><ele>962.5</ele><time>2026-04-29T09:24:25.814Z</time></trkpt><trkpt lat="44.6023417" lon="9.4835094"><ele>959.0</ele><time>2026-04-29T09:24:26.816Z</time></trkpt><trkpt lat="44.6022818" lon="9.4836311"><ele>955.5</ele><time>2026-04-29T09:24:27.815Z</time></trkpt><trkpt lat="44.6021906" lon="9.4837367"><ele>952.0</ele><time>2026-04-29T09:24:28.814Z</time></trkpt><trkpt lat="44.6020696" lon="9.4838186"><ele>951.6666666666666</ele><time>2026-04-29T09:24:29.814Z</time></trkpt><trkpt lat="44.6019215" lon="9.4838989"><ele>951.3333333333333</ele><time>2026-04-29T09:24:30.816Z</time></trkpt><trkpt lat="44.6017518" lon="9.483991"><ele>951.0</ele><time>2026-04-29T09:24:31.815Z</time></trkpt><trkpt lat="44.601569" lon="9.4840945"><ele>951.0</ele><time>2026-04-29T09:24:32.816Z</time></trkpt><trkpt lat="44.6013702" lon="9.4842008"><ele>951.0</ele><time>2026-04-29T09:24:33.814Z</time></trkpt><trkpt lat="44.6011838" lon="9.4843072"><ele>951.0</ele><time>2026-04-29T09:24:34.814Z</time></trkpt><trkpt lat="44.6010122" lon="9.4844074"><ele>950.0</ele><time>2026-04-29T09:24:35.814Z</time></trkpt><trkpt lat="44.6008614" lon="9.4845114"><ele>949.0</ele><time>2026-04-29T09:24:36.815Z</time></trkpt><trkpt lat="44.6007243" lon="9.4846353"><ele>948.0</ele><time>2026-04-29T09:24:37.814Z</time></trkpt><trkpt lat="44.6006074" lon="9.4847862"><ele>948.0</ele><time>2026-04-29T09:24:38.817Z</time></trkpt><trkpt lat="44.600514" lon="9.4849533"><ele>948.0</ele><time>2026-04-29T09:24:39.817Z</time></trkpt><trkpt lat="44.6004337" lon="9.4851046"><ele>948.0</ele><time>2026-04-29T09:24:40.816Z</time></trkpt><trkpt lat="44.6003515" lon="9.4852049"><ele>948.0</ele><time>2026-04-29T09:24:41.815Z</time></trkpt><trkpt lat="44.6002561" lon="9.4852614"><ele>950.0</ele><time>2026-04-29T09:24:42.815Z</time></trkpt><trkpt lat="44.600148" lon="9.4852637"><ele>952.0</ele><time>2026-04-29T09:24:43.816Z</time></trkpt><trkpt lat="44.6000483" lon="9.4852084"><ele>954.0</ele><time>2026-04-29T09:24:44.815Z</time></trkpt><trkpt lat="44.5999713" lon="9.4851029"><ele>956.0</ele><time>2026-04-29T09:24:45.817Z</time></trkpt><trkpt lat="44.5999139" lon="9.4849569"><ele>958.0</ele><time>2026-04-29T09:24:46.816Z</time></trkpt><trkpt lat="44.5998583" lon="9.4847815"><ele>958.0</ele><time>2026-04-29T09:24:47.815Z</time></trkpt><trkpt lat="44.5997884" lon="9.4846208"><ele>958.0</ele><time>2026-04-29T09:24:48.814Z</time></trkpt><trkpt lat="44.5996998" lon="9.4844925"><ele>958.0</ele><time>2026-04-29T09:24:49.814Z</time></trkpt><trkpt lat="44.5995889" lon="9.484394"><ele>958.0</ele><time>2026-04-29T09:24:50.815Z</time></trkpt><trkpt lat="44.599452" lon="9.4843351"><ele>962.6666666666666</ele><time>2026-04-29T09:24:51.814Z</time></trkpt><trkpt lat="44.5992845" lon="9.4842896"><ele>967.3333333333333</ele><time>2026-04-29T09:24:52.815Z</time></trkpt><trkpt lat="44.5990983" lon="9.4842392"><ele>972.0</ele><time>2026-04-29T09:24:53.815Z</time></trkpt><trkpt lat="44.5989122" lon="9.4841843"><ele>972.0</ele><time>2026-04-29T09:24:54.814Z</time></trkpt><trkpt lat="44.598746" lon="9.4841328"><ele>972.0</ele><time>2026-04-29T09:24:55.814Z</time></trkpt><trkpt lat="44.5985922" lon="9.4840841"><ele>972.0</ele><time>2026-04-29T09:24:56.814Z</time></trkpt><trkpt lat="44.5984611" lon="9.4840283"><ele>970.5</ele><time>2026-04-29T09:24:57.814Z</time></trkpt><trkpt lat="44.5983529" lon="9.483952"><ele>969.0</ele><time>2026-04-29T09:24:58.814Z</time></trkpt><trkpt lat="44.598265" lon="9.4838378"><ele>967.5</ele><time>2026-04-29T09:24:59.814Z</time></trkpt><trkpt lat="44.598196" lon="9.4836904"><ele>966.0</ele><time>2026-04-29T09:25:00.815Z</time></trkpt><trkpt lat="44.5981373" lon="9.4835376"><ele>969.0</ele><time>2026-04-29T09:25:01.814Z</time></trkpt><trkpt lat="44.5980646" lon="9.4834388"><ele>971.9999999999999</ele><time>2026-04-29T09:25:02.813Z</time></trkpt><trkpt lat="44.5979783" lon="9.4833818"><ele>974.9999999999999</ele><time>2026-04-29T09:25:03.816Z</time></trkpt><trkpt lat="44.5978822" lon="9.4833647"><ele>978.0</ele><time>2026-04-29T09:25:04.814Z</time></trkpt><trkpt lat="44.5977895" lon="9.4833897"><ele>981.0</ele><time>2026-04-29T09:25:05.816Z</time></trkpt><trkpt lat="44.597679" lon="9.4834524"><ele>981.0</ele><time>2026-04-29T09:25:06.816Z</time></trkpt><trkpt lat="44.5975594" lon="9.4835411"><ele>981.0</ele><time>2026-04-29T09:25:07.814Z</time></trkpt><trkpt lat="44.5974555" lon="9.483655"><ele>981.0</ele><time>2026-04-29T09:25:08.815Z</time></trkpt><trkpt lat="44.5973568" lon="9.4838092"><ele>981.0</ele><time>2026-04-29T09:25:09.815Z</time></trkpt><trkpt lat="44.5972577" lon="9.4839848"><ele>978.25</ele><time>2026-04-29T09:25:10.814Z</time></trkpt><trkpt lat="44.5971839" lon="9.4841374"><ele>975.5</ele><time>2026-04-29T09:25:11.814Z</time></trkpt><trkpt lat="44.5971087" lon="9.4842737"><ele>972.75</ele><time>2026-04-29T09:25:12.815Z</time></trkpt><trkpt lat="44.5970114" lon="9.4843839"><ele>970.0</ele><time>2026-04-29T09:25:13.814Z</time></trkpt><trkpt lat="44.5968965" lon="9.4844714"><ele>971.0</ele><time>2026-04-29T09:25:14.814Z</time></trkpt><trkpt lat="44.5967642" lon="9.4845559"><ele>972.0</ele><time>2026-04-29T09:25:15.815Z</time></trkpt><trkpt lat="44.5966166" lon="9.4846347"><ele>973.0</ele><time>2026-04-29T09:25:16.815Z</time></trkpt><trkpt lat="44.5964812" lon="9.4847056"><ele>974.0</ele><time>2026-04-29T09:25:17.815Z</time></trkpt><trkpt lat="44.596361" lon="9.4847566"><ele>974.0</ele><time>2026-04-29T09:25:18.815Z</time></trkpt><trkpt lat="44.5962376" lon="9.484759"><ele>974.0</ele><time>2026-04-29T09:25:19.815Z</time></trkpt><trkpt lat="44.596115" lon="9.4847193"><ele>974.0</ele><time>2026-04-29T09:25:20.814Z</time></trkpt><trkpt lat="44.5960003" lon="9.4846374"><ele>974.0</ele><time>2026-04-29T09:25:21.815Z</time></trkpt><trkpt lat="44.5958824" lon="9.4845292"><ele>979.0</ele><time>2026-04-29T09:25:22.814Z</time></trkpt><trkpt lat="44.5957522" lon="9.4844026"><ele>984.0</ele><time>2026-04-29T09:25:23.815Z</time></trkpt><trkpt lat="44.5956315" lon="9.4842864"><ele>989.0</ele><time>2026-04-29T09:25:24.813Z</time></trkpt><trkpt lat="44.5955212" lon="9.4841902"><ele>994.0</ele><time>2026-04-29T09:25:25.815Z</time></trkpt><trkpt lat="44.5954148" lon="9.4841233"><ele>993.0</ele><time>2026-04-29T09:25:26.815Z</time></trkpt><trkpt lat="44.5953084" lon="9.4840926"><ele>992.0</ele><time>2026-04-29T09:25:27.815Z</time></trkpt><trkpt lat="44.5951918" lon="9.4840884"><ele>991.0</ele><time>2026-04-29T09:25:28.814Z</time></trkpt><trkpt lat="44.5950568" lon="9.4841107"><ele>990.0</ele><time>2026-04-29T09:25:29.815Z</time></trkpt><trkpt lat="44.5949063" lon="9.4841476"><ele>990.0</ele><time>2026-04-29T09:25:30.815Z</time></trkpt><trkpt lat="44.5947523" lon="9.4841836"><ele>990.0</ele><time>2026-04-29T09:25:31.815Z</time></trkpt><trkpt lat="44.5946077" lon="9.4842209"><ele>990.0</ele><time>2026-04-29T09:25:32.815Z</time></trkpt><trkpt lat="44.5944792" lon="9.4842795"><ele>990.0</ele><time>2026-04-29T09:25:33.814Z</time></trkpt><trkpt lat="44.5943645" lon="9.4843844"><ele>991.25</ele><time>2026-04-29T09:25:34.814Z</time></trkpt><trkpt lat="44.5942675" lon="9.4845269"><ele>992.5</ele><time>2026-04-29T09:25:35.816Z</time></trkpt><trkpt lat="44.5941792" lon="9.4847026"><ele>993.75</ele><time>2026-04-29T09:25:36.814Z</time></trkpt><trkpt lat="44.5941042" lon="9.4848816"><ele>995.0</ele><time>2026-04-29T09:25:37.815Z</time></trkpt><trkpt lat="44.5940387" lon="9.4850203"><ele>995.0</ele><time>2026-04-29T09:25:38.813Z</time></trkpt><trkpt lat="44.5939652" lon="9.485118"><ele>995.0</ele><time>2026-04-29T09:25:39.815Z</time></trkpt><trkpt lat="44.5938742" lon="9.4851639"><ele>995.0</ele><time>2026-04-29T09:25:40.814Z</time></trkpt><trkpt lat="44.5937739" lon="9.4851638"><ele>995.0</ele><time>2026-04-29T09:25:41.815Z</time></trkpt><trkpt lat="44.593671" lon="9.4851178"><ele>995.0</ele><time>2026-04-29T09:25:42.814Z</time></trkpt><trkpt lat="44.5935612" lon="9.4850312"><ele>993.75</ele><time>2026-04-29T09:25:43.815Z</time></trkpt><trkpt lat="44.5934689" lon="9.484917"><ele>992.5</ele><time>2026-04-29T09:25:44.815Z</time></trkpt><trkpt lat="44.5934066" lon="9.4847723"><ele>991.25</ele><time>2026-04-29T09:25:45.815Z</time></trkpt><trkpt lat="44.5933686" lon="9.4846183"><ele>990.0</ele><time>2026-04-29T09:25:46.813Z</time></trkpt><trkpt lat="44.59333" lon="9.4844682"><ele>994.75</ele><time>2026-04-29T09:25:47.814Z</time></trkpt><trkpt lat="44.5932682" lon="9.4843343"><ele>999.5</ele><time>2026-04-29T09:25:48.814Z</time></trkpt><trkpt lat="44.5931739" lon="9.4842255"><ele>1004.25</ele><time>2026-04-29T09:25:49.815Z</time></trkpt><trkpt lat="44.5930608" lon="9.4841493"><ele>1009.0</ele><time>2026-04-29T09:25:50.816Z</time></trkpt><trkpt lat="44.592927" lon="9.484108"><ele>1008.0</ele><time>2026-04-29T09:25:51.816Z</time></trkpt><trkpt lat="44.5927718" lon="9.4840936"><ele>1007.0</ele><time>2026-04-29T09:25:52.815Z</time></trkpt><trkpt lat="44.5926071" lon="9.4840848"><ele>1006.0</ele><time>2026-04-29T09:25:53.814Z</time></trkpt><trkpt lat="44.5924307" lon="9.4840709"><ele>1006.0</ele><time>2026-04-29T09:25:54.814Z</time></trkpt><trkpt lat="44.5922398" lon="9.4840596"><ele>1006.0</ele><time>2026-04-29T09:25:55.815Z</time></trkpt><trkpt lat="44.5920346" lon="9.4840471"><ele>1006.0</ele><time>2026-04-29T09:25:56.814Z</time></trkpt><trkpt lat="44.5918206" lon="9.4840352"><ele>1008.3333333333333</ele><time>2026-04-29T09:25:57.815Z</time></trkpt><trkpt lat="44.5916252" lon="9.4840233"><ele>1010.6666666666667</ele><time>2026-04-29T09:25:58.815Z</time></trkpt><trkpt lat="44.5914433" lon="9.4840113"><ele>1013.0</ele><time>2026-04-29T09:25:59.814Z</time></trkpt><trkpt lat="44.5912793" lon="9.4840053"><ele>1015.25</ele><time>2026-04-29T09:26:00.815Z</time></trkpt><trkpt lat="44.5911313" lon="9.4840027"><ele>1017.5</ele><time>2026-04-29T09:26:01.815Z</time></trkpt><trkpt lat="44.5910035" lon="9.4840096"><ele>1019.75</ele><time>2026-04-29T09:26:02.814Z</time></trkpt><trkpt lat="44.5908862" lon="9.4840382"><ele>1022.0</ele><time>2026-04-29T09:26:03.815Z</time></trkpt><trkpt lat="44.5907838" lon="9.4841091"><ele>1022.0</ele><time>2026-04-29T09:26:04.814Z</time></trkpt><trkpt lat="44.5907005" lon="9.4842154"><ele>1022.0</ele><time>2026-04-29T09:26:05.816Z</time></trkpt><trkpt lat="44.5906337" lon="9.4843668"><ele>1022.0</ele><time>2026-04-29T09:26:06.815Z</time></trkpt><trkpt lat="44.5905677" lon="9.4845342"><ele>1022.0</ele><time>2026-04-29T09:26:07.818Z</time></trkpt><trkpt lat="44.5904895" lon="9.4846908"><ele>1026.0</ele><time>2026-04-29T09:26:08.815Z</time></trkpt><trkpt lat="44.5903942" lon="9.484828"><ele>1030.0</ele><time>2026-04-29T09:26:09.816Z</time></trkpt><trkpt lat="44.5902691" lon="9.4849565"><ele>1034.0</ele><time>2026-04-29T09:26:10.815Z</time></trkpt><trkpt lat="44.5901271" lon="9.4850971"><ele>1034.0</ele><time>2026-04-29T09:26:11.814Z</time></trkpt><trkpt lat="44.5899859" lon="9.485254"><ele>1034.0</ele><time>2026-04-29T09:26:12.814Z</time></trkpt><trkpt lat="44.5898653" lon="9.4854044"><ele>1034.0</ele><time>2026-04-29T09:26:13.813Z</time></trkpt><trkpt lat="44.5897519" lon="9.4855452"><ele>1032.8</ele><time>2026-04-29T09:26:14.815Z</time></trkpt><trkpt lat="44.5896518" lon="9.4856644"><ele>1031.6000000000001</ele><time>2026-04-29T09:26:15.817Z</time></trkpt><trkpt lat="44.5895659" lon="9.4857601"><ele>1030.4</ele><time>2026-04-29T09:26:16.815Z</time></trkpt><trkpt lat="44.5894821" lon="9.4858253"><ele>1029.2</ele><time>2026-04-29T09:26:17.814Z</time></trkpt><trkpt lat="44.5893984" lon="9.4858533"><ele>1028.0</ele><time>2026-04-29T09:26:18.815Z</time></trkpt><trkpt lat="44.5893174" lon="9.4858305"><ele>1028.0</ele><time>2026-04-29T09:26:19.814Z</time></trkpt><trkpt lat="44.5892636" lon="9.4857619"><ele>1028.0</ele><time>2026-04-29T09:26:20.814Z</time></trkpt><trkpt lat="44.5892332" lon="9.4856617"><ele>1028.0</ele><time>2026-04-29T09:26:21.814Z</time></trkpt><trkpt lat="44.5892371" lon="9.4855569"><ele>1028.0</ele><time>2026-04-29T09:26:22.816Z</time></trkpt><trkpt lat="44.5892749" lon="9.4854548"><ele>1028.0</ele><time>2026-04-29T09:26:23.815Z</time></trkpt><trkpt lat="44.5893425" lon="9.4853687"><ele>1028.0</ele><time>2026-04-29T09:26:24.815Z</time></trkpt><trkpt lat="44.5894511" lon="9.4852859"><ele>1030.0</ele><time>2026-04-29T09:26:25.813Z</time></trkpt><trkpt lat="44.5895867" lon="9.4851878"><ele>1032.0</ele><time>2026-04-29T09:26:26.814Z</time></trkpt><trkpt lat="44.5897445" lon="9.48506"><ele>1034.0</ele><time>2026-04-29T09:26:27.814Z</time></trkpt><trkpt lat="44.5898823" lon="9.4849544"><ele>1034.0</ele><time>2026-04-29T09:26:28.815Z</time></trkpt><trkpt lat="44.5899955" lon="9.4848434"><ele>1034.0</ele><time>2026-04-29T09:26:29.816Z</time></trkpt><trkpt lat="44.5900716" lon="9.4847096"><ele>1034.0</ele><time>2026-04-29T09:26:30.814Z</time></trkpt><trkpt lat="44.5901205" lon="9.484546"><ele>1034.0</ele><time>2026-04-29T09:26:31.813Z</time></trkpt><trkpt lat="44.5901473" lon="9.4843507"><ele>1038.0</ele><time>2026-04-29T09:26:32.815Z</time></trkpt><trkpt lat="44.5901599" lon="9.4841258"><ele>1042.0</ele><time>2026-04-29T09:26:33.814Z</time></trkpt><trkpt lat="44.5901683" lon="9.4839263"><ele>1046.0</ele><time>2026-04-29T09:26:34.815Z</time></trkpt><trkpt lat="44.5901864" lon="9.4837441"><ele>1050.0</ele><time>2026-04-29T09:26:35.816Z</time></trkpt><trkpt lat="44.5902289" lon="9.4835772"><ele>1049.5</ele><time>2026-04-29T09:26:36.817Z</time></trkpt><trkpt lat="44.590292" lon="9.4834428"><ele>1049.0</ele><time>2026-04-29T09:26:37.813Z</time></trkpt><trkpt lat="44.5903855" lon="9.4833367"><ele>1048.5</ele><time>2026-04-29T09:26:38.814Z</time></trkpt><trkpt lat="44.5904921" lon="9.4832503"><ele>1048.0</ele><time>2026-04-29T09:26:39.816Z</time></trkpt><trkpt lat="44.5906158" lon="9.4831998"><ele>1048.0</ele><time>2026-04-29T09:26:40.816Z</time></trkpt><trkpt lat="44.5907496" lon="9.4831794"><ele>1048.0</ele><time>2026-04-29T09:26:41.816Z</time></trkpt><trkpt lat="44.5908938" lon="9.483177"><ele>1048.0</ele><time>2026-04-29T09:26:42.815Z</time></trkpt><trkpt lat="44.5910492" lon="9.4831743"><ele>1048.0</ele><time>2026-04-29T09:26:43.814Z</time></trkpt><trkpt lat="44.5912113" lon="9.4831571"><ele>1046.6</ele><time>2026-04-29T09:26:44.813Z</time></trkpt><trkpt lat="44.5913485" lon="9.4831388"><ele>1045.1999999999998</ele><time>2026-04-29T09:26:45.814Z</time></trkpt><trkpt lat="44.5914596" lon="9.4831121"><ele>1043.8</ele><time>2026-04-29T09:26:46.814Z</time></trkpt><trkpt lat="44.5915482" lon="9.4830807"><ele>1042.3999999999999</ele><time>2026-04-29T09:26:47.815Z</time></trkpt><trkpt lat="44.5916109" lon="9.4830198"><ele>1041.0</ele><time>2026-04-29T09:26:48.815Z</time></trkpt><trkpt lat="44.5916491" lon="9.4829147"><ele>1044.0</ele><time>2026-04-29T09:26:49.814Z</time></trkpt><trkpt lat="44.5916432" lon="9.4827922"><ele>1047.0</ele><time>2026-04-29T09:26:50.814Z</time></trkpt><trkpt lat="44.5915945" lon="9.4826755"><ele>1050.0</ele><time>2026-04-29T09:26:51.814Z</time></trkpt><trkpt lat="44.5915064" lon="9.4826062"><ele>1053.0</ele><time>2026-04-29T09:26:52.814Z</time></trkpt><trkpt lat="44.5913884" lon="9.482584"><ele>1056.0</ele><time>2026-04-29T09:26:53.816Z</time></trkpt><trkpt lat="44.5912383" lon="9.4825942"><ele>1060.3333333333333</ele><time>2026-04-29T09:26:54.814Z</time></trkpt><trkpt lat="44.591056" lon="9.4826106"><ele>1064.6666666666665</ele><time>2026-04-29T09:26:55.815Z</time></trkpt><trkpt lat="44.5908727" lon="9.4826273"><ele>1069.0</ele><time>2026-04-29T09:26:56.815Z</time></trkpt><trkpt lat="44.5907106" lon="9.48265"><ele>1069.0</ele><time>2026-04-29T09:26:57.814Z</time></trkpt><trkpt lat="44.5905491" lon="9.4827092"><ele>1069.0</ele><time>2026-04-29T09:26:58.814Z</time></trkpt><trkpt lat="44.5903909" lon="9.4827977"><ele>1069.0</ele><time>2026-04-29T09:26:59.812Z</time></trkpt><trkpt lat="44.5902372" lon="9.4829121"><ele>1067.75</ele><time>2026-04-29T09:27:00.815Z</time></trkpt><trkpt lat="44.5901003" lon="9.4830314"><ele>1066.5</ele><time>2026-04-29T09:27:01.812Z</time></trkpt><trkpt lat="44.5899801" lon="9.4831497"><ele>1065.25</ele><time>2026-04-29T09:27:02.816Z</time></trkpt><trkpt lat="44.5898697" lon="9.483234"><ele>1064.0</ele><time>2026-04-29T09:27:03.813Z</time></trkpt><trkpt lat="44.5897582" lon="9.4832738"><ele>1064.0</ele><time>2026-04-29T09:27:04.814Z</time></trkpt><trkpt lat="44.5896332" lon="9.4832777"><ele>1064.0</ele><time>2026-04-29T09:27:05.816Z</time></trkpt><trkpt lat="44.5894911" lon="9.4832609"><ele>1064.0</ele><time>2026-04-29T09:27:06.813Z</time></trkpt><trkpt lat="44.5893316" lon="9.4832392"><ele>1064.0</ele><time>2026-04-29T09:27:07.815Z</time></trkpt><trkpt lat="44.5891637" lon="9.4832192"><ele>1066.6666666666667</ele><time>2026-04-29T09:27:08.817Z</time></trkpt><trkpt lat="44.588992" lon="9.4832027"><ele>1069.3333333333333</ele><time>2026-04-29T09:27:09.815Z</time></trkpt><trkpt lat="44.58883" lon="9.4831861"><ele>1072.0</ele><time>2026-04-29T09:27:10.813Z</time></trkpt><trkpt lat="44.5886818" lon="9.4831659"><ele>1074.5</ele><time>2026-04-29T09:27:11.814Z</time></trkpt><trkpt lat="44.5885457" lon="9.4831413"><ele>1077.0</ele><time>2026-04-29T09:27:12.812Z</time></trkpt><trkpt lat="44.5884177" lon="9.4831197"><ele>1079.5</ele><time>2026-04-29T09:27:13.817Z</time></trkpt><trkpt lat="44.5882979" lon="9.483117"><ele>1082.0</ele><time>2026-04-29T09:27:14.814Z</time></trkpt><trkpt lat="44.5881904" lon="9.4831619"><ele>1082.0</ele><time>2026-04-29T09:27:15.814Z</time></trkpt><trkpt lat="44.5881002" lon="9.4832544"><ele>1082.0</ele><time>2026-04-29T09:27:16.814Z</time></trkpt><trkpt lat="44.5880123" lon="9.483398"><ele>1082.0</ele><time>2026-04-29T09:27:17.814Z</time></trkpt><trkpt lat="44.5879343" lon="9.4835661"><ele>1082.0</ele><time>2026-04-29T09:27:18.814Z</time></trkpt><trkpt lat="44.5878722" lon="9.4837135"><ele>1083.0</ele><time>2026-04-29T09:27:19.815Z</time></trkpt><trkpt lat="44.5878264" lon="9.4838467"><ele>1084.0</ele><time>2026-04-29T09:27:20.815Z</time></trkpt><trkpt lat="44.5877886" lon="9.4839616"><ele>1085.0</ele><time>2026-04-29T09:27:21.815Z</time></trkpt><trkpt lat="44.5877463" lon="9.4840735"><ele>1086.0</ele><time>2026-04-29T09:27:22.814Z</time></trkpt><trkpt lat="44.5876921" lon="9.4841751"><ele>1087.0</ele><time>2026-04-29T09:27:23.814Z</time></trkpt><trkpt lat="44.5876176" lon="9.4842608"><ele>1087.0</ele><time>2026-04-29T09:27:24.814Z</time></trkpt><trkpt lat="44.587525" lon="9.4843202"><ele>1087.0</ele><time>2026-04-29T09:27:25.814Z</time></trkpt><trkpt lat="44.5874162" lon="9.4843507"><ele>1087.0</ele><time>2026-04-29T09:27:26.815Z</time></trkpt><trkpt lat="44.5872854" lon="9.4843595"><ele>1087.0</ele><time>2026-04-29T09:27:27.813Z</time></trkpt><trkpt lat="44.587123" lon="9.4843752"><ele>1090.3333333333333</ele><time>2026-04-29T09:27:28.814Z</time></trkpt><trkpt lat="44.5869425" lon="9.4843844"><ele>1093.6666666666667</ele><time>2026-04-29T09:27:29.814Z</time></trkpt><trkpt lat="44.5867821" lon="9.4843853"><ele>1097.0</ele><time>2026-04-29T09:27:30.814Z</time></trkpt><trkpt lat="44.5866272" lon="9.484394"><ele>1097.0</ele><time>2026-04-29T09:27:31.815Z</time></trkpt><trkpt lat="44.5864725" lon="9.4844318"><ele>1097.0</ele><time>2026-04-29T09:27:32.815Z</time></trkpt><trkpt lat="44.5863223" lon="9.484482"><ele>1097.0</ele><time>2026-04-29T09:27:33.816Z</time></trkpt><trkpt lat="44.5861904" lon="9.4845242"><ele>1097.0</ele><time>2026-04-29T09:27:34.815Z</time></trkpt><trkpt lat="44.5860659" lon="9.4845737"><ele>1094.6666666666667</ele><time>2026-04-29T09:27:35.814Z</time></trkpt><trkpt lat="44.5859437" lon="9.4846802"><ele>1092.3333333333333</ele><time>2026-04-29T09:27:36.815Z</time></trkpt><trkpt lat="44.5858145" lon="9.4848306"><ele>1090.0</ele><time>2026-04-29T09:27:37.815Z</time></trkpt><trkpt lat="44.5856934" lon="9.4849916"><ele>1090.0</ele><time>2026-04-29T09:27:38.814Z</time></trkpt><trkpt lat="44.5855919" lon="9.4851339"><ele>1090.0</ele><time>2026-04-29T09:27:39.817Z</time></trkpt><trkpt lat="44.5854944" lon="9.4852603"><ele>1090.0</ele><time>2026-04-29T09:27:40.815Z</time></trkpt><trkpt lat="44.5853903" lon="9.4853478"><ele>1090.0</ele><time>2026-04-29T09:27:41.814Z</time></trkpt><trkpt lat="44.5852805" lon="9.4853832"><ele>1092.0</ele><time>2026-04-29T09:27:42.814Z</time></trkpt><trkpt lat="44.5851705" lon="9.4853651"><ele>1094.0</ele><time>2026-04-29T09:27:43.814Z</time></trkpt><trkpt lat="44.5850777" lon="9.4852879"><ele>1096.0</ele><time>2026-04-29T09:27:44.815Z</time></trkpt><trkpt lat="44.5850193" lon="9.4851654"><ele>1098.0</ele><time>2026-04-29T09:27:45.815Z</time></trkpt><trkpt lat="44.5849994" lon="9.4850188"><ele>1100.0</ele><time>2026-04-29T09:27:46.814Z</time></trkpt><trkpt lat="44.5850161" lon="9.4848558"><ele>1100.0</ele><time>2026-04-29T09:27:47.815Z</time></trkpt><trkpt lat="44.5850585" lon="9.4846689"><ele>1100.0</ele><time>2026-04-29T09:27:48.814Z</time></trkpt><trkpt lat="44.5851183" lon="9.4844514"><ele>1100.0</ele><time>2026-04-29T09:27:49.813Z</time></trkpt><trkpt lat="44.5851897" lon="9.4842135"><ele>1102.6666666666667</ele><time>2026-04-29T09:27:50.815Z</time></trkpt><trkpt lat="44.5852555" lon="9.4839945"><ele>1105.3333333333333</ele><time>2026-04-29T09:27:51.816Z</time></trkpt><trkpt lat="44.5853159" lon="9.4837863"><ele>1108.0</ele><time>2026-04-29T09:27:52.813Z</time></trkpt><trkpt lat="44.5853785" lon="9.4836081"><ele>1109.0</ele><time>2026-04-29T09:27:53.817Z</time></trkpt><trkpt lat="44.5854544" lon="9.4834634"><ele>1110.0</ele><time>2026-04-29T09:27:54.815Z</time></trkpt><trkpt lat="44.5855528" lon="9.48336"><ele>1111.0</ele><time>2026-04-29T09:27:55.816Z</time></trkpt><trkpt lat="44.5856757" lon="9.4832865"><ele>1112.0</ele><time>2026-04-29T09:27:56.814Z</time></trkpt><trkpt lat="44.5858247" lon="9.4832359"><ele>1112.0</ele><time>2026-04-29T09:27:57.814Z</time></trkpt><trkpt lat="44.5859826" lon="9.4831878"><ele>1112.0</ele><time>2026-04-29T09:27:58.815Z</time></trkpt><trkpt lat="44.5861166" lon="9.4831433"><ele>1112.0</ele><time>2026-04-29T09:27:59.816Z</time></trkpt><trkpt lat="44.5862422" lon="9.4830857"><ele>1112.0</ele><time>2026-04-29T09:28:00.815Z</time></trkpt><trkpt lat="44.5863449" lon="9.4829945"><ele>1114.5</ele><time>2026-04-29T09:28:01.815Z</time></trkpt><trkpt lat="44.5864282" lon="9.4828639"><ele>1117.0</ele><time>2026-04-29T09:28:02.813Z</time></trkpt><trkpt lat="44.5864889" lon="9.4827052"><ele>1119.5</ele><time>2026-04-29T09:28:03.814Z</time></trkpt><trkpt lat="44.5865162" lon="9.4825252"><ele>1122.0</ele><time>2026-04-29T09:28:04.815Z</time></trkpt><trkpt lat="44.5865049" lon="9.4823318"><ele>1122.0</ele><time>2026-04-29T09:28:05.815Z</time></trkpt><trkpt lat="44.5864514" lon="9.4821455"><ele>1122.0</ele><time>2026-04-29T09:28:06.817Z</time></trkpt><trkpt lat="44.5863626" lon="9.4819839"><ele>1122.0</ele><time>2026-04-29T09:28:07.815Z</time></trkpt><trkpt lat="44.586252" lon="9.4818812"><ele>1122.0</ele><time>2026-04-29T09:28:08.814Z</time></trkpt><trkpt lat="44.5861255" lon="9.4818197"><ele>1122.75</ele><time>2026-04-29T09:28:09.813Z</time></trkpt><trkpt lat="44.5859928" lon="9.4817872"><ele>1123.5</ele><time>2026-04-29T09:28:10.814Z</time></trkpt><trkpt lat="44.5858538" lon="9.4818034"><ele>1124.25</ele><time>2026-04-29T09:28:11.816Z</time></trkpt><trkpt lat="44.5857182" lon="9.4818514"><ele>1125.0</ele><time>2026-04-29T09:28:12.815Z</time></trkpt><trkpt lat="44.5856015" lon="9.4818864"><ele>1125.0</ele><time>2026-04-29T09:28:13.815Z</time></trkpt><trkpt lat="44.5854936" lon="9.4819077"><ele>1125.0</ele><time>2026-04-29T09:28:14.814Z</time></trkpt><trkpt lat="44.5853847" lon="9.4819367"><ele>1125.0</ele><time>2026-04-29T09:28:15.814Z</time></trkpt><trkpt lat="44.5852798" lon="9.481961"><ele>1125.0</ele><time>2026-04-29T09:28:16.816Z</time></trkpt><trkpt lat="44.5851719" lon="9.4819696"><ele>1125.0</ele><time>2026-04-29T09:28:17.813Z</time></trkpt><trkpt lat="44.5850636" lon="9.481937"><ele>1126.0</ele><time>2026-04-29T09:28:18.816Z</time></trkpt><trkpt lat="44.5849508" lon="9.4818616"><ele>1127.0</ele><time>2026-04-29T09:28:19.816Z</time></trkpt><trkpt lat="44.5848242" lon="9.48176"><ele>1128.0</ele><time>2026-04-29T09:28:20.813Z</time></trkpt><trkpt lat="44.5847104" lon="9.4816739"><ele>1129.0</ele><time>2026-04-29T09:28:21.812Z</time></trkpt><trkpt lat="44.5845854" lon="9.4816265"><ele>1131.0</ele><time>2026-04-29T09:28:22.813Z</time></trkpt><trkpt lat="44.5844608" lon="9.481634"><ele>1133.0</ele><time>2026-04-29T09:28:23.814Z</time></trkpt><trkpt lat="44.5843398" lon="9.4816815"><ele>1135.0</ele><time>2026-04-29T09:28:24.816Z</time></trkpt><trkpt lat="44.5842303" lon="9.4817447"><ele>1137.0</ele><time>2026-04-29T09:28:25.815Z</time></trkpt><trkpt lat="44.5841336" lon="9.4818016"><ele>1137.0</ele><time>2026-04-29T09:28:26.816Z</time></trkpt><trkpt lat="44.5840335" lon="9.4818259"><ele>1137.0</ele><time>2026-04-29T09:28:27.815Z</time></trkpt><trkpt lat="44.5839357" lon="9.4818174"><ele>1137.0</ele><time>2026-04-29T09:28:28.815Z</time></trkpt><trkpt lat="44.5838293" lon="9.4817854"><ele>1137.0</ele><time>2026-04-29T09:28:29.816Z</time></trkpt><trkpt lat="44.5837308" lon="9.481777"><ele>1137.0</ele><time>2026-04-29T09:28:30.816Z</time></trkpt><trkpt lat="44.5836376" lon="9.4818158"><ele>1139.6</ele><time>2026-04-29T09:28:31.814Z</time></trkpt><trkpt lat="44.5835605" lon="9.4818987"><ele>1142.2</ele><time>2026-04-29T09:28:32.814Z</time></trkpt><trkpt lat="44.5835104" lon="9.4820182"><ele>1144.8</ele><time>2026-04-29T09:28:33.815Z</time></trkpt><trkpt lat="44.5834853" lon="9.4821477"><ele>1147.4</ele><time>2026-04-29T09:28:34.815Z</time></trkpt><trkpt lat="44.5834761" lon="9.4822871"><ele>1150.0</ele><time>2026-04-29T09:28:35.814Z</time></trkpt><trkpt lat="44.5834622" lon="9.4824205"><ele>1150.0</ele><time>2026-04-29T09:28:36.814Z</time></trkpt><trkpt lat="44.5834328" lon="9.4825509"><ele>1150.0</ele><time>2026-04-29T09:28:37.814Z</time></trkpt><trkpt lat="44.5833922" lon="9.4826887"><ele>1150.0</ele><time>2026-04-29T09:28:38.816Z</time></trkpt><trkpt lat="44.5833297" lon="9.4828404"><ele>1150.0</ele><time>2026-04-29T09:28:39.815Z</time></trkpt><trkpt lat="44.5832481" lon="9.4830209"><ele>1151.5</ele><time>2026-04-29T09:28:40.812Z</time></trkpt><trkpt lat="44.5831635" lon="9.4831797"><ele>1153.0</ele><time>2026-04-29T09:28:41.813Z</time></trkpt><trkpt lat="44.5830643" lon="9.4833113"><ele>1154.5</ele><time>2026-04-29T09:28:42.813Z</time></trkpt><trkpt lat="44.5829407" lon="9.4834229"><ele>1156.0</ele><time>2026-04-29T09:28:43.813Z</time></trkpt><trkpt lat="44.5828087" lon="9.4835285"><ele>1156.0</ele><time>2026-04-29T09:28:44.815Z</time></trkpt><trkpt lat="44.5826921" lon="9.4836404"><ele>1156.0</ele><time>2026-04-29T09:28:45.815Z</time></trkpt><trkpt lat="44.582597" lon="9.4837816"><ele>1156.0</ele><time>2026-04-29T09:28:46.814Z</time></trkpt><trkpt lat="44.5825298" lon="9.4839549"><ele>1156.0</ele><time>2026-04-29T09:28:47.815Z</time></trkpt><trkpt lat="44.5824701" lon="9.4841225"><ele>1153.0</ele><time>2026-04-29T09:28:48.813Z</time></trkpt><trkpt lat="44.5823929" lon="9.4842574"><ele>1150.0</ele><time>2026-04-29T09:28:49.814Z</time></trkpt><trkpt lat="44.582289" lon="9.4843584"><ele>1147.0</ele><time>2026-04-29T09:28:50.814Z</time></trkpt><trkpt lat="44.5821623" lon="9.4844277"><ele>1144.0</ele><time>2026-04-29T09:28:51.814Z</time></trkpt><trkpt lat="44.5820199" lon="9.4844449"><ele>1146.6666666666665</ele><time>2026-04-29T09:28:52.819Z</time></trkpt><trkpt lat="44.581863" lon="9.4844157"><ele>1149.3333333333333</ele><time>2026-04-29T09:28:53.814Z</time></trkpt><trkpt lat="44.5817002" lon="9.4843808"><ele>1152.0</ele><time>2026-04-29T09:28:54.813Z</time></trkpt><trkpt lat="44.5815558" lon="9.4843244"><ele>1152.0</ele><time>2026-04-29T09:28:55.814Z</time></trkpt><trkpt lat="44.5814196" lon="9.4842267"><ele>1152.0</ele><time>2026-04-29T09:28:56.814Z</time></trkpt><trkpt lat="44.5813016" lon="9.4841068"><ele>1152.0</ele><time>2026-04-29T09:28:57.817Z</time></trkpt><trkpt lat="44.5811907" lon="9.483963"><ele>1151.25</ele><time>2026-04-29T09:28:58.814Z</time></trkpt><trkpt lat="44.5811009" lon="9.4838096"><ele>1150.5</ele><time>2026-04-29T09:28:59.815Z</time></trkpt><trkpt lat="44.5810406" lon="9.4836578"><ele>1149.75</ele><time>2026-04-29T09:29:00.815Z</time></trkpt><trkpt lat="44.5810083" lon="9.4835042"><ele>1149.0</ele><time>2026-04-29T09:29:01.817Z</time></trkpt><trkpt lat="44.5810037" lon="9.483342"><ele>1149.0</ele><time>2026-04-29T09:29:02.813Z</time></trkpt><trkpt lat="44.581024" lon="9.4831658"><ele>1149.0</ele><time>2026-04-29T09:29:03.814Z</time></trkpt><trkpt lat="44.5810652" lon="9.4829799"><ele>1149.0</ele><time>2026-04-29T09:29:04.816Z</time></trkpt><trkpt lat="44.5811163" lon="9.4827801"><ele>1149.0</ele><time>2026-04-29T09:29:05.814Z</time></trkpt><trkpt lat="44.5811432" lon="9.4825738"><ele>1152.0</ele><time>2026-04-29T09:29:06.815Z</time></trkpt><trkpt lat="44.5811414" lon="9.4823597"><ele>1155.0</ele><time>2026-04-29T09:29:07.815Z</time></trkpt><trkpt lat="44.5811094" lon="9.4821318"><ele>1158.0</ele><time>2026-04-29T09:29:08.816Z</time></trkpt><trkpt lat="44.581061" lon="9.4818882"><ele>1159.6666666666667</ele><time>2026-04-29T09:29:09.815Z</time></trkpt><trkpt lat="44.5810155" lon="9.4816647"><ele>1161.3333333333335</ele><time>2026-04-29T09:29:10.815Z</time></trkpt><trkpt lat="44.5809758" lon="9.4814535"><ele>1163.0</ele><time>2026-04-29T09:29:11.815Z</time></trkpt><trkpt lat="44.580939" lon="9.48126"><ele>1165.25</ele><time>2026-04-29T09:29:12.813Z</time></trkpt><trkpt lat="44.580898" lon="9.4810878"><ele>1167.5</ele><time>2026-04-29T09:29:13.813Z</time></trkpt><trkpt lat="44.5808413" lon="9.4809454"><ele>1169.75</ele><time>2026-04-29T09:29:14.814Z</time></trkpt><trkpt lat="44.5807569" lon="9.4808313"><ele>1172.0</ele><time>2026-04-29T09:29:15.814Z</time></trkpt><trkpt lat="44.5806522" lon="9.4807467"><ele>1172.0</ele><time>2026-04-29T09:29:16.814Z</time></trkpt><trkpt lat="44.5805346" lon="9.4807141"><ele>1172.0</ele><time>2026-04-29T09:29:17.815Z</time></trkpt><trkpt lat="44.5804167" lon="9.480733"><ele>1172.0</ele><time>2026-04-29T09:29:18.814Z</time></trkpt><trkpt lat="44.5803098" lon="9.4808225"><ele>1172.0</ele><time>2026-04-29T09:29:19.813Z</time></trkpt><trkpt lat="44.5802208" lon="9.4809625"><ele>1170.5</ele><time>2026-04-29T09:29:20.813Z</time></trkpt><trkpt lat="44.5801354" lon="9.4811312"><ele>1169.0</ele><time>2026-04-29T09:29:21.813Z</time></trkpt><trkpt lat="44.5800551" lon="9.4812824"><ele>1167.5</ele><time>2026-04-29T09:29:22.813Z</time></trkpt><trkpt lat="44.5799591" lon="9.4813826"><ele>1166.0</ele><time>2026-04-29T09:29:23.812Z</time></trkpt><trkpt lat="44.5798494" lon="9.481433"><ele>1166.0</ele><time>2026-04-29T09:29:24.815Z</time></trkpt><trkpt lat="44.5797348" lon="9.4814189"><ele>1166.0</ele><time>2026-04-29T09:29:25.813Z</time></trkpt><trkpt lat="44.5796085" lon="9.4813684"><ele>1166.0</ele><time>2026-04-29T09:29:26.813Z</time></trkpt><trkpt lat="44.5794703" lon="9.4813063"><ele>1166.0</ele><time>2026-04-29T09:29:27.813Z</time></trkpt><trkpt lat="44.5793301" lon="9.4812548"><ele>1168.25</ele><time>2026-04-29T09:29:28.813Z</time></trkpt><trkpt lat="44.5791953" lon="9.481227"><ele>1170.5</ele><time>2026-04-29T09:29:29.815Z</time></trkpt><trkpt lat="44.5790593" lon="9.4812394"><ele>1172.75</ele><time>2026-04-29T09:29:30.814Z</time></trkpt><trkpt lat="44.5789387" lon="9.4813"><ele>1175.0</ele><time>2026-04-29T09:29:31.814Z</time></trkpt><trkpt lat="44.5788332" lon="9.4814016"><ele>1175.0</ele><time>2026-04-29T09:29:32.816Z</time></trkpt><trkpt lat="44.5787459" lon="9.481552"><ele>1175.0</ele><time>2026-04-29T09:29:33.814Z</time></trkpt><trkpt lat="44.5786689" lon="9.4817488"><ele>1175.0</ele><time>2026-04-29T09:29:34.811Z</time></trkpt><trkpt lat="44.5785889" lon="9.4819666"><ele>1182.3333333333335</ele><time>2026-04-29T09:29:35.812Z</time></trkpt><trkpt lat="44.5785258" lon="9.4821656"><ele>1189.6666666666667</ele><time>2026-04-29T09:29:36.814Z</time></trkpt><trkpt lat="44.578491" lon="9.4823669"><ele>1197.0</ele><time>2026-04-29T09:29:37.815Z</time></trkpt><trkpt lat="44.5784998" lon="9.4825737"><ele>1197.0</ele><time>2026-04-29T09:29:38.814Z</time></trkpt><trkpt lat="44.5785405" lon="9.4827917"><ele>1197.0</ele><time>2026-04-29T09:29:39.814Z</time></trkpt><trkpt lat="44.5785949" lon="9.4830322"><ele>1197.0</ele><time>2026-04-29T09:29:40.814Z</time></trkpt><trkpt lat="44.5786454" lon="9.4832624"><ele>1188.3333333333333</ele><time>2026-04-29T09:29:41.812Z</time></trkpt><trkpt lat="44.5786846" lon="9.4834934"><ele>1179.6666666666665</ele><time>2026-04-29T09:29:42.816Z</time></trkpt><trkpt lat="44.5787058" lon="9.4837138"><ele>1171.0</ele><time>2026-04-29T09:29:43.814Z</time></trkpt><trkpt lat="44.5787077" lon="9.4839236"><ele>1171.0</ele><time>2026-04-29T09:29:44.812Z</time></trkpt><trkpt lat="44.5786976" lon="9.484114"><ele>1171.0</ele><time>2026-04-29T09:29:45.814Z</time></trkpt><trkpt lat="44.5786674" lon="9.4842783"><ele>1171.0</ele><time>2026-04-29T09:29:46.813Z</time></trkpt><trkpt lat="44.5786114" lon="9.4844107"><ele>1171.0</ele><time>2026-04-29T09:29:47.812Z</time></trkpt><trkpt lat="44.5785315" lon="9.4845079"><ele>1174.25</ele><time>2026-04-29T09:29:48.814Z</time></trkpt><trkpt lat="44.5784223" lon="9.4845751"><ele>1177.5</ele><time>2026-04-29T09:29:49.813Z</time></trkpt><trkpt lat="44.578291" lon="9.4846181"><ele>1180.75</ele><time>2026-04-29T09:29:50.818Z</time></trkpt><trkpt lat="44.5781571" lon="9.4846889"><ele>1184.0</ele><time>2026-04-29T09:29:51.813Z</time></trkpt><trkpt lat="44.5780207" lon="9.4847854"><ele>1184.0</ele><time>2026-04-29T09:29:52.814Z</time></trkpt><trkpt lat="44.5778987" lon="9.4848814"><ele>1184.0</ele><time>2026-04-29T09:29:53.813Z</time></trkpt><trkpt lat="44.5777655" lon="9.4849176"><ele>1184.0</ele><time>2026-04-29T09:29:54.814Z</time></trkpt><trkpt lat="44.577614" lon="9.4849231"><ele>1184.0</ele><time>2026-04-29T09:29:55.815Z</time></trkpt><trkpt lat="44.5774467" lon="9.4849071"><ele>1189.6666666666667</ele><time>2026-04-29T09:29:56.815Z</time></trkpt><trkpt lat="44.5772741" lon="9.4848855"><ele>1195.3333333333333</ele><time>2026-04-29T09:29:57.812Z</time></trkpt><trkpt lat="44.5771268" lon="9.4848829"><ele>1201.0</ele><time>2026-04-29T09:29:58.814Z</time></trkpt><trkpt lat="44.5769863" lon="9.4849218"><ele>1204.25</ele><time>2026-04-29T09:29:59.814Z</time></trkpt><trkpt lat="44.5768747" lon="9.4850434"><ele>1207.5</ele><time>2026-04-29T09:30:00.813Z</time></trkpt><trkpt lat="44.57677" lon="9.4851527"><ele>1210.75</ele><time>2026-04-29T09:30:01.815Z</time></trkpt><trkpt lat="44.5766755" lon="9.485231"><ele>1214.0</ele><time>2026-04-29T09:30:02.815Z</time></trkpt><trkpt lat="44.5765693" lon="9.4852765"><ele>1214.0</ele><time>2026-04-29T09:30:03.813Z</time></trkpt><trkpt lat="44.5764508" lon="9.485274"><ele>1214.0</ele><time>2026-04-29T09:30:04.813Z</time></trkpt><trkpt lat="44.5763406" lon="9.4852251"><ele>1214.0</ele><time>2026-04-29T09:30:05.813Z</time></trkpt><trkpt lat="44.576236" lon="9.4851583"><ele>1214.0</ele><time>2026-04-29T09:30:06.81Z</time></trkpt><trkpt lat="44.5761185" lon="9.4850684"><ele>1213.0</ele><time>2026-04-29T09:30:07.813Z</time></trkpt><trkpt lat="44.57598" lon="9.4849595"><ele>1212.0</ele><time>2026-04-29T09:30:08.813Z</time></trkpt><trkpt lat="44.5758403" lon="9.4848571"><ele>1211.0</ele><time>2026-04-29T09:30:09.815Z</time></trkpt><trkpt lat="44.5757068" lon="9.4847668"><ele>1211.0</ele><time>2026-04-29T09:30:10.813Z</time></trkpt><trkpt lat="44.5755915" lon="9.4847088"><ele>1211.0</ele><time>2026-04-29T09:30:11.814Z</time></trkpt><trkpt lat="44.5754846" lon="9.4847056"><ele>1211.0</ele><time>2026-04-29T09:30:12.813Z</time></trkpt><trkpt lat="44.575375" lon="9.4847423"><ele>1211.0</ele><time>2026-04-29T09:30:13.813Z</time></trkpt><trkpt lat="44.5752694" lon="9.4848278"><ele>1214.25</ele><time>2026-04-29T09:30:14.815Z</time></trkpt><trkpt lat="44.5751871" lon="9.4849467"><ele>1217.5</ele><time>2026-04-29T09:30:15.814Z</time></trkpt><trkpt lat="44.575128" lon="9.4850929"><ele>1220.75</ele><time>2026-04-29T09:30:16.814Z</time></trkpt><trkpt lat="44.575098" lon="9.4852532"><ele>1224.0</ele><time>2026-04-29T09:30:17.813Z</time></trkpt><trkpt lat="44.5751002" lon="9.4854251"><ele>1227.0</ele><time>2026-04-29T09:30:18.812Z</time></trkpt><trkpt lat="44.575123" lon="9.4856049"><ele>1230.0</ele><time>2026-04-29T09:30:19.813Z</time></trkpt><trkpt lat="44.5751543" lon="9.4858199"><ele>1233.0</ele><time>2026-04-29T09:30:20.813Z</time></trkpt><trkpt lat="44.5751919" lon="9.4860569"><ele>1238.0</ele><time>2026-04-29T09:30:21.816Z</time></trkpt><trkpt lat="44.5752297" lon="9.486322"><ele>1243.0</ele><time>2026-04-29T09:30:22.814Z</time></trkpt><trkpt lat="44.5752713" lon="9.4865758"><ele>1248.0</ele><time>2026-04-29T09:30:23.814Z</time></trkpt><trkpt lat="44.575314" lon="9.4867884"><ele>1240.75</ele><time>2026-04-29T09:30:24.813Z</time></trkpt><trkpt lat="44.5753636" lon="9.4869656"><ele>1233.5</ele><time>2026-04-29T09:30:25.814Z</time></trkpt><trkpt lat="44.5754219" lon="9.487123"><ele>1226.25</ele><time>2026-04-29T09:30:26.815Z</time></trkpt><trkpt lat="44.5754858" lon="9.4872829"><ele>1219.0</ele><time>2026-04-29T09:30:27.815Z</time></trkpt><trkpt lat="44.5755452" lon="9.4874241"><ele>1219.0</ele><time>2026-04-29T09:30:28.812Z</time></trkpt><trkpt lat="44.5755857" lon="9.487582"><ele>1219.0</ele><time>2026-04-29T09:30:29.815Z</time></trkpt><trkpt lat="44.5755947" lon="9.4877542"><ele>1219.0</ele><time>2026-04-29T09:30:30.813Z</time></trkpt><trkpt lat="44.5755685" lon="9.487927"><ele>1219.0</ele><time>2026-04-29T09:30:31.813Z</time></trkpt><trkpt lat="44.5755069" lon="9.4881044"><ele>1217.3333333333333</ele><time>2026-04-29T09:30:32.815Z</time></trkpt><trkpt lat="44.5754214" lon="9.4882951"><ele>1215.6666666666667</ele><time>2026-04-29T09:30:33.815Z</time></trkpt><trkpt lat="44.5753153" lon="9.4885119"><ele>1214.0</ele><time>2026-04-29T09:30:34.815Z</time></trkpt><trkpt lat="44.5752102" lon="9.4887316"><ele>1219.75</ele><time>2026-04-29T09:30:35.813Z</time></trkpt><trkpt lat="44.575118" lon="9.4889201"><ele>1225.5</ele><time>2026-04-29T09:30:36.812Z</time></trkpt><trkpt lat="44.5750325" lon="9.4890932"><ele>1231.25</ele><time>2026-04-29T09:30:37.813Z</time></trkpt><trkpt lat="44.574961" lon="9.489251"><ele>1237.0</ele><time>2026-04-29T09:30:38.814Z</time></trkpt><trkpt lat="44.5749174" lon="9.4894053"><ele>1237.0</ele><time>2026-04-29T09:30:39.815Z</time></trkpt><trkpt lat="44.5748985" lon="9.4895591"><ele>1237.0</ele><time>2026-04-29T09:30:40.815Z</time></trkpt><trkpt lat="44.5749059" lon="9.4897133"><ele>1237.0</ele><time>2026-04-29T09:30:41.814Z</time></trkpt><trkpt lat="44.5749444" lon="9.4898709"><ele>1237.0</ele><time>2026-04-29T09:30:42.813Z</time></trkpt><trkpt lat="44.575012" lon="9.4900322"><ele>1239.3333333333333</ele><time>2026-04-29T09:30:43.814Z</time></trkpt><trkpt lat="44.575099" lon="9.4902014"><ele>1241.6666666666667</ele><time>2026-04-29T09:30:44.813Z</time></trkpt><trkpt lat="44.5751948" lon="9.4903875"><ele>1244.0</ele><time>2026-04-29T09:30:45.812Z</time></trkpt><trkpt lat="44.5752835" lon="9.4905889"><ele>1242.3333333333335</ele><time>2026-04-29T09:30:46.815Z</time></trkpt><trkpt lat="44.5753678" lon="9.490822"><ele>1240.6666666666667</ele><time>2026-04-29T09:30:47.815Z</time></trkpt><trkpt lat="44.575453" lon="9.4910824"><ele>1239.0</ele><time>2026-04-29T09:30:48.811Z</time></trkpt><trkpt lat="44.5755326" lon="9.4913227"><ele>1239.0</ele><time>2026-04-29T09:30:49.813Z</time></trkpt><trkpt lat="44.5756146" lon="9.4915577"><ele>1239.0</ele><time>2026-04-29T09:30:50.812Z</time></trkpt><trkpt lat="44.5756885" lon="9.4917705"><ele>1239.0</ele><time>2026-04-29T09:30:51.813Z</time></trkpt><trkpt lat="44.5757404" lon="9.4919559"><ele>1239.8</ele><time>2026-04-29T09:30:52.813Z</time></trkpt><trkpt lat="44.5757656" lon="9.4921191"><ele>1240.6000000000001</ele><time>2026-04-29T09:30:53.815Z</time></trkpt><trkpt lat="44.5757604" lon="9.4922702"><ele>1241.4</ele><time>2026-04-29T09:30:54.813Z</time></trkpt><trkpt lat="44.5757265" lon="9.4924054"><ele>1242.2</ele><time>2026-04-29T09:30:55.813Z</time></trkpt><trkpt lat="44.5756606" lon="9.4925337"><ele>1243.0</ele><time>2026-04-29T09:30:56.813Z</time></trkpt><trkpt lat="44.5755727" lon="9.4926617"><ele>1243.0</ele><time>2026-04-29T09:30:57.815Z</time></trkpt><trkpt lat="44.5755002" lon="9.4927938"><ele>1243.0</ele><time>2026-04-29T09:30:58.813Z</time></trkpt><trkpt lat="44.5754602" lon="9.4929414"><ele>1243.0</ele><time>2026-04-29T09:30:59.816Z</time></trkpt><trkpt lat="44.575454" lon="9.4930808"><ele>1243.0</ele><time>2026-04-29T09:31:00.813Z</time></trkpt><trkpt lat="44.5754855" lon="9.4932277"><ele>1243.0</ele><time>2026-04-29T09:31:01.814Z</time></trkpt><trkpt lat="44.5755536" lon="9.4933767"><ele>1243.5</ele><time>2026-04-29T09:31:02.812Z</time></trkpt><trkpt lat="44.5756387" lon="9.4935414"><ele>1244.0</ele><time>2026-04-29T09:31:03.812Z</time></trkpt><trkpt lat="44.5757103" lon="9.4937289"><ele>1244.5</ele><time>2026-04-29T09:31:04.812Z</time></trkpt><trkpt lat="44.5757733" lon="9.4939232"><ele>1245.0</ele><time>2026-04-29T09:31:05.814Z</time></trkpt><trkpt lat="44.575835" lon="9.4940861"><ele>1247.25</ele><time>2026-04-29T09:31:06.813Z</time></trkpt><trkpt lat="44.5758723" lon="9.4942558"><ele>1249.5</ele><time>2026-04-29T09:31:07.813Z</time></trkpt><trkpt lat="44.5758771" lon="9.4944345"><ele>1251.75</ele><time>2026-04-29T09:31:08.813Z</time></trkpt><trkpt lat="44.5758517" lon="9.4946176"><ele>1254.0</ele><time>2026-04-29T09:31:09.812Z</time></trkpt><trkpt lat="44.5758104" lon="9.4948231"><ele>1255.3333333333333</ele><time>2026-04-29T09:31:10.812Z</time></trkpt><trkpt lat="44.5757595" lon="9.4950552"><ele>1256.6666666666665</ele><time>2026-04-29T09:31:11.813Z</time></trkpt><trkpt lat="44.575707" lon="9.4952966"><ele>1258.0</ele><time>2026-04-29T09:31:12.814Z</time></trkpt><trkpt lat="44.5756507" lon="9.4955326"><ele>1258.0</ele><time>2026-04-29T09:31:13.815Z</time></trkpt><trkpt lat="44.5756047" lon="9.4957324"><ele>1258.0</ele><time>2026-04-29T09:31:14.811Z</time></trkpt><trkpt lat="44.5755493" lon="9.4959218"><ele>1258.0</ele><time>2026-04-29T09:31:15.814Z</time></trkpt><trkpt lat="44.5754796" lon="9.4961007"><ele>1258.0</ele><time>2026-04-29T09:31:16.814Z</time></trkpt><trkpt lat="44.5753901" lon="9.4962767"><ele>1267.0</ele><time>2026-04-29T09:31:17.813Z</time></trkpt><trkpt lat="44.5752954" lon="9.4964588"><ele>1276.0</ele><time>2026-04-29T09:31:18.814Z</time></trkpt><trkpt lat="44.5752094" lon="9.4966516"><ele>1285.0</ele><time>2026-04-29T09:31:19.818Z</time></trkpt><trkpt lat="44.5751331" lon="9.4968595"><ele>1285.0</ele><time>2026-04-29T09:31:20.813Z</time></trkpt><trkpt lat="44.5750667" lon="9.4970801"><ele>1285.0</ele><time>2026-04-29T09:31:21.813Z</time></trkpt><trkpt lat="44.5750003" lon="9.4973145"><ele>1285.0</ele><time>2026-04-29T09:31:22.814Z</time></trkpt><trkpt lat="44.5749493" lon="9.4975326"><ele>1283.5</ele><time>2026-04-29T09:31:23.813Z</time></trkpt><trkpt lat="44.5749108" lon="9.4977238"><ele>1282.0</ele><time>2026-04-29T09:31:24.812Z</time></trkpt><trkpt lat="44.5749052" lon="9.4979053"><ele>1280.5</ele><time>2026-04-29T09:31:25.814Z</time></trkpt><trkpt lat="44.5749343" lon="9.4980874"><ele>1279.0</ele><time>2026-04-29T09:31:26.813Z</time></trkpt><trkpt lat="44.5749909" lon="9.4982381"><ele>1279.0</ele><time>2026-04-29T09:31:27.814Z</time></trkpt><trkpt lat="44.5750819" lon="9.4983534"><ele>1279.0</ele><time>2026-04-29T09:31:28.813Z</time></trkpt><trkpt lat="44.5752027" lon="9.4984266"><ele>1279.0</ele><time>2026-04-29T09:31:29.813Z</time></trkpt><trkpt lat="44.5753486" lon="9.4984574"><ele>1279.0</ele><time>2026-04-29T09:31:30.813Z</time></trkpt><trkpt lat="44.5755182" lon="9.4984602"><ele>1278.0</ele><time>2026-04-29T09:31:31.815Z</time></trkpt><trkpt lat="44.5757085" lon="9.498464"><ele>1277.0</ele><time>2026-04-29T09:31:32.813Z</time></trkpt><trkpt lat="44.5758943" lon="9.498497"><ele>1276.0</ele><time>2026-04-29T09:31:33.813Z</time></trkpt><trkpt lat="44.5760793" lon="9.4985524"><ele>1277.6666666666665</ele><time>2026-04-29T09:31:34.812Z</time></trkpt><trkpt lat="44.5762507" lon="9.4986104"><ele>1279.3333333333333</ele><time>2026-04-29T09:31:35.812Z</time></trkpt><trkpt lat="44.5764127" lon="9.4986448"><ele>1281.0</ele><time>2026-04-29T09:31:36.813Z</time></trkpt><trkpt lat="44.5765793" lon="9.4986332"><ele>1281.0</ele><time>2026-04-29T09:31:37.813Z</time></trkpt><trkpt lat="44.5767543" lon="9.4986038"><ele>1281.0</ele><time>2026-04-29T09:31:38.813Z</time></trkpt><trkpt lat="44.5769211" lon="9.4985724"><ele>1281.0</ele><time>2026-04-29T09:31:39.814Z</time></trkpt><trkpt lat="44.5770734" lon="9.4985446"><ele>1280.5</ele><time>2026-04-29T09:31:40.812Z</time></trkpt><trkpt lat="44.5772183" lon="9.4985402"><ele>1280.0</ele><time>2026-04-29T09:31:41.812Z</time></trkpt><trkpt lat="44.5773582" lon="9.4985797"><ele>1279.5</ele><time>2026-04-29T09:31:42.812Z</time></trkpt><trkpt lat="44.5774823" lon="9.4986604"><ele>1279.0</ele><time>2026-04-29T09:31:43.812Z</time></trkpt><trkpt lat="44.577591" lon="9.4987811"><ele>1284.75</ele><time>2026-04-29T09:31:44.813Z</time></trkpt><trkpt lat="44.5776815" lon="9.4989158"><ele>1290.5</ele><time>2026-04-29T09:31:45.815Z</time></trkpt><trkpt lat="44.5777494" lon="9.4990483"><ele>1296.25</ele><time>2026-04-29T09:31:46.812Z</time></trkpt><trkpt lat="44.5777875" lon="9.4991886"><ele>1302.0</ele><time>2026-04-29T09:31:47.813Z</time></trkpt><trkpt lat="44.5778084" lon="9.4993531"><ele>1302.0</ele><time>2026-04-29T09:31:48.813Z</time></trkpt><trkpt lat="44.577819" lon="9.4995344"><ele>1302.0</ele><time>2026-04-29T09:31:49.813Z</time></trkpt><trkpt lat="44.5778322" lon="9.4997179"><ele>1302.0</ele><time>2026-04-29T09:31:50.813Z</time></trkpt><trkpt lat="44.5778454" lon="9.4998765"><ele>1302.0</ele><time>2026-04-29T09:31:51.814Z</time></trkpt><trkpt lat="44.5778777" lon="9.500034"><ele>1300.0</ele><time>2026-04-29T09:31:52.813Z</time></trkpt><trkpt lat="44.5779431" lon="9.5001713"><ele>1298.0</ele><time>2026-04-29T09:31:53.813Z</time></trkpt><trkpt lat="44.5780281" lon="9.5003052"><ele>1296.0</ele><time>2026-04-29T09:31:54.813Z</time></trkpt><trkpt lat="44.5781167" lon="9.5004461"><ele>1294.0</ele><time>2026-04-29T09:31:55.814Z</time></trkpt><trkpt lat="44.5782079" lon="9.5005912"><ele>1294.0</ele><time>2026-04-29T09:31:56.813Z</time></trkpt><trkpt lat="44.5782845" lon="9.5007221"><ele>1294.0</ele><time>2026-04-29T09:31:57.814Z</time></trkpt><trkpt lat="44.5783274" lon="9.5008557"><ele>1294.0</ele><time>2026-04-29T09:31:58.812Z</time></trkpt><trkpt lat="44.5783367" lon="9.5009957"><ele>1294.0</ele><time>2026-04-29T09:31:59.814Z</time></trkpt><trkpt lat="44.5783196" lon="9.5011335"><ele>1294.0</ele><time>2026-04-29T09:32:00.813Z</time></trkpt><trkpt lat="44.5782654" lon="9.5012601"><ele>1292.25</ele><time>2026-04-29T09:32:01.812Z</time></trkpt><trkpt lat="44.578182" lon="9.5013762"><ele>1290.5</ele><time>2026-04-29T09:32:02.813Z</time></trkpt><trkpt lat="44.5780745" lon="9.5014976"><ele>1288.75</ele><time>2026-04-29T09:32:03.814Z</time></trkpt><trkpt lat="44.577955" lon="9.501633"><ele>1287.0</ele><time>2026-04-29T09:32:04.814Z</time></trkpt><trkpt lat="44.5778439" lon="9.5017615"><ele>1288.75</ele><time>2026-04-29T09:32:05.814Z</time></trkpt><trkpt lat="44.5777358" lon="9.5018831"><ele>1290.5</ele><time>2026-04-29T09:32:06.813Z</time></trkpt><trkpt lat="44.5776276" lon="9.5019968"><ele>1292.25</ele><time>2026-04-29T09:32:07.812Z</time></trkpt><trkpt lat="44.5775129" lon="9.5020901"><ele>1294.0</ele><time>2026-04-29T09:32:08.814Z</time></trkpt><trkpt lat="44.5773881" lon="9.5021647"><ele>1294.0</ele><time>2026-04-29T09:32:09.814Z</time></trkpt><trkpt lat="44.577249" lon="9.5022267"><ele>1294.0</ele><time>2026-04-29T09:32:10.813Z</time></trkpt><trkpt lat="44.5771057" lon="9.5022932"><ele>1294.0</ele><time>2026-04-29T09:32:11.815Z</time></trkpt><trkpt lat="44.5769817" lon="9.5023527"><ele>1294.0</ele><time>2026-04-29T09:32:12.813Z</time></trkpt><trkpt lat="44.5768745" lon="9.5024178"><ele>1299.0</ele><time>2026-04-29T09:32:13.818Z</time></trkpt><trkpt lat="44.5767954" lon="9.5025198"><ele>1304.0</ele><time>2026-04-29T09:32:14.813Z</time></trkpt><trkpt lat="44.5767482" lon="9.5026476"><ele>1309.0</ele><time>2026-04-29T09:32:15.813Z</time></trkpt><trkpt lat="44.5767369" lon="9.5028022"><ele>1314.0</ele><time>2026-04-29T09:32:16.813Z</time></trkpt><trkpt lat="44.5767664" lon="9.5029538"><ele>1319.0</ele><time>2026-04-29T09:32:17.815Z</time></trkpt><trkpt lat="44.5768255" lon="9.5030978"><ele>1319.0</ele><time>2026-04-29T09:32:18.814Z</time></trkpt><trkpt lat="44.576904" lon="9.5032398"><ele>1319.0</ele><time>2026-04-29T09:32:19.813Z</time></trkpt><trkpt lat="44.5769674" lon="9.5033772"><ele>1319.0</ele><time>2026-04-29T09:32:20.814Z</time></trkpt><trkpt lat="44.5770024" lon="9.5035301"><ele>1319.0</ele><time>2026-04-29T09:32:21.812Z</time></trkpt><trkpt lat="44.5770012" lon="9.5036945"><ele>1318.0</ele><time>2026-04-29T09:32:22.812Z</time></trkpt><trkpt lat="44.576961" lon="9.5038367"><ele>1317.0</ele><time>2026-04-29T09:32:23.814Z</time></trkpt><trkpt lat="44.5768856" lon="9.5039464"><ele>1316.0</ele><time>2026-04-29T09:32:24.814Z</time></trkpt><trkpt lat="44.5767772" lon="9.5040325"><ele>1315.0</ele><time>2026-04-29T09:32:25.813Z</time></trkpt><trkpt lat="44.5766449" lon="9.5040895"><ele>1315.0</ele><time>2026-04-29T09:32:26.813Z</time></trkpt><trkpt lat="44.5764877" lon="9.5041473"><ele>1315.0</ele><time>2026-04-29T09:32:27.814Z</time></trkpt><trkpt lat="44.5763453" lon="9.50421"><ele>1315.0</ele><time>2026-04-29T09:32:28.814Z</time></trkpt><trkpt lat="44.5762236" lon="9.5042915"><ele>1315.0</ele><time>2026-04-29T09:32:29.812Z</time></trkpt><trkpt lat="44.576133" lon="9.5043935"><ele>1321.5</ele><time>2026-04-29T09:32:30.814Z</time></trkpt><trkpt lat="44.5760675" lon="9.504527"><ele>1328.0</ele><time>2026-04-29T09:32:31.814Z</time></trkpt><trkpt lat="44.5760495" lon="9.5046901"><ele>1334.5</ele><time>2026-04-29T09:32:32.818Z</time></trkpt><trkpt lat="44.5760735" lon="9.5048552"><ele>1341.0</ele><time>2026-04-29T09:32:33.813Z</time></trkpt><trkpt lat="44.5761328" lon="9.5050087"><ele>1340.4</ele><time>2026-04-29T09:32:34.812Z</time></trkpt><trkpt lat="44.5761976" lon="9.5051465"><ele>1339.8</ele><time>2026-04-29T09:32:35.813Z</time></trkpt><trkpt lat="44.5762341" lon="9.5052819"><ele>1339.2</ele><time>2026-04-29T09:32:36.814Z</time></trkpt><trkpt lat="44.5762266" lon="9.5054242"><ele>1338.6000000000001</ele><time>2026-04-29T09:32:37.815Z</time></trkpt><trkpt lat="44.5761901" lon="9.5055649"><ele>1338.0</ele><time>2026-04-29T09:32:38.814Z</time></trkpt><trkpt lat="44.5761109" lon="9.5056978"><ele>1338.0</ele><time>2026-04-29T09:32:39.817Z</time></trkpt><trkpt lat="44.5760074" lon="9.5058281"><ele>1338.0</ele><time>2026-04-29T09:32:40.819Z</time></trkpt><trkpt lat="44.5759068" lon="9.5059483"><ele>1338.0</ele><time>2026-04-29T09:32:41.818Z</time></trkpt><trkpt lat="44.5758302" lon="9.5060616"><ele>1338.0</ele><time>2026-04-29T09:32:42.812Z</time></trkpt><trkpt lat="44.575782" lon="9.5062091"><ele>1337.25</ele><time>2026-04-29T09:32:43.813Z</time></trkpt><trkpt lat="44.5757714" lon="9.5063773"><ele>1336.5</ele><time>2026-04-29T09:32:44.813Z</time></trkpt><trkpt lat="44.5758011" lon="9.5065539"><ele>1335.75</ele><time>2026-04-29T09:32:45.813Z</time></trkpt><trkpt lat="44.575858" lon="9.5067194"><ele>1335.0</ele><time>2026-04-29T09:32:46.812Z</time></trkpt><trkpt lat="44.5758951" lon="9.5068641"><ele>1335.0</ele><time>2026-04-29T09:32:47.812Z</time></trkpt><trkpt lat="44.575898" lon="9.5070063"><ele>1335.0</ele><time>2026-04-29T09:32:48.813Z</time></trkpt><trkpt lat="44.5758667" lon="9.5071413"><ele>1335.0</ele><time>2026-04-29T09:32:49.814Z</time></trkpt><trkpt lat="44.5757951" lon="9.5072556"><ele>1335.0</ele><time>2026-04-29T09:32:50.813Z</time></trkpt><trkpt lat="44.575691" lon="9.5073566"><ele>1335.0</ele><time>2026-04-29T09:32:51.813Z</time></trkpt><trkpt lat="44.575559" lon="9.5074676"><ele>1331.3333333333333</ele><time>2026-04-29T09:32:52.812Z</time></trkpt><trkpt lat="44.5754314" lon="9.5075863"><ele>1327.6666666666665</ele><time>2026-04-29T09:32:53.812Z</time></trkpt><trkpt lat="44.5753111" lon="9.5077274"><ele>1324.0</ele><time>2026-04-29T09:32:54.811Z</time></trkpt><trkpt lat="44.5752062" lon="9.507899"><ele>1330.0</ele><time>2026-04-29T09:32:55.814Z</time></trkpt><trkpt lat="44.5751128" lon="9.5080958"><ele>1336.0</ele><time>2026-04-29T09:32:56.814Z</time></trkpt><trkpt lat="44.5750313" lon="9.5082771"><ele>1342.0</ele><time>2026-04-29T09:32:57.815Z</time></trkpt><trkpt lat="44.5749515" lon="9.5084331"><ele>1342.0</ele><time>2026-04-29T09:32:58.814Z</time></trkpt><trkpt lat="44.5748601" lon="9.5085585"><ele>1342.0</ele><time>2026-04-29T09:32:59.812Z</time></trkpt><trkpt lat="44.574755" lon="9.5086498"><ele>1342.0</ele><time>2026-04-29T09:33:00.813Z</time></trkpt><trkpt lat="44.5746398" lon="9.5086984"><ele>1342.0</ele><time>2026-04-29T09:33:01.813Z</time></trkpt><trkpt lat="44.5745181" lon="9.508708"><ele>1348.5</ele><time>2026-04-29T09:33:02.815Z</time></trkpt><trkpt lat="44.5743831" lon="9.5086904"><ele>1355.0</ele><time>2026-04-29T09:33:03.812Z</time></trkpt><trkpt lat="44.5742312" lon="9.5086667"><ele>1361.5</ele><time>2026-04-29T09:33:04.813Z</time></trkpt><trkpt lat="44.5740713" lon="9.5086461"><ele>1368.0</ele><time>2026-04-29T09:33:05.812Z</time></trkpt><trkpt lat="44.5739236" lon="9.5086411"><ele>1368.0</ele><time>2026-04-29T09:33:06.81Z</time></trkpt><trkpt lat="44.573793" lon="9.5086708"><ele>1368.0</ele><time>2026-04-29T09:33:07.813Z</time></trkpt><trkpt lat="44.5736741" lon="9.5087471"><ele>1368.0</ele><time>2026-04-29T09:33:08.814Z</time></trkpt><trkpt lat="44.5735796" lon="9.508869"><ele>1368.0</ele><time>2026-04-29T09:33:09.814Z</time></trkpt><trkpt lat="44.5735207" lon="9.5090378"><ele>1368.5</ele><time>2026-04-29T09:33:10.813Z</time></trkpt><trkpt lat="44.573503" lon="9.5092381"><ele>1369.0</ele><time>2026-04-29T09:33:11.812Z</time></trkpt><trkpt lat="44.5735313" lon="9.5094397"><ele>1369.5</ele><time>2026-04-29T09:33:12.813Z</time></trkpt><trkpt lat="44.5736015" lon="9.5096357"><ele>1370.0</ele><time>2026-04-29T09:33:13.813Z</time></trkpt><trkpt lat="44.5737029" lon="9.5098252"><ele>1362.6666666666667</ele><time>2026-04-29T09:33:14.814Z</time></trkpt><trkpt lat="44.573814" lon="9.5100193"><ele>1355.3333333333333</ele><time>2026-04-29T09:33:15.814Z</time></trkpt><trkpt lat="44.5738981" lon="9.5102239"><ele>1348.0</ele><time>2026-04-29T09:33:16.814Z</time></trkpt><trkpt lat="44.5739581" lon="9.5104437"><ele>1348.0</ele><time>2026-04-29T09:33:17.813Z</time></trkpt><trkpt lat="44.5739999" lon="9.5106868"><ele>1348.0</ele><time>2026-04-29T09:33:18.813Z</time></trkpt><trkpt lat="44.5740407" lon="9.5109266"><ele>1348.0</ele><time>2026-04-29T09:33:19.813Z</time></trkpt><trkpt lat="44.57407" lon="9.5111419"><ele>1349.5</ele><time>2026-04-29T09:33:20.812Z</time></trkpt><trkpt lat="44.5740867" lon="9.511338"><ele>1351.0</ele><time>2026-04-29T09:33:21.815Z</time></trkpt><trkpt lat="44.5740694" lon="9.5115291"><ele>1352.5</ele><time>2026-04-29T09:33:22.814Z</time></trkpt><trkpt lat="44.5740256" lon="9.5117157"><ele>1354.0</ele><time>2026-04-29T09:33:23.813Z</time></trkpt><trkpt lat="44.5739598" lon="9.5118714"><ele>1354.0</ele><time>2026-04-29T09:33:24.812Z</time></trkpt><trkpt lat="44.5738675" lon="9.5120078"><ele>1354.0</ele><time>2026-04-29T09:33:25.812Z</time></trkpt><trkpt lat="44.5737478" lon="9.5121154"><ele>1354.0</ele><time>2026-04-29T09:33:26.814Z</time></trkpt><trkpt lat="44.5736081" lon="9.5122017"><ele>1354.0</ele><time>2026-04-29T09:33:27.813Z</time></trkpt><trkpt lat="44.5734479" lon="9.5122803"><ele>1357.25</ele><time>2026-04-29T09:33:28.815Z</time></trkpt><trkpt lat="44.5733058" lon="9.5123465"><ele>1360.5</ele><time>2026-04-29T09:33:29.815Z</time></trkpt><trkpt lat="44.5731759" lon="9.5124201"><ele>1363.75</ele><time>2026-04-29T09:33:30.814Z</time></trkpt><trkpt lat="44.5730728" lon="9.5125092"><ele>1367.0</ele><time>2026-04-29T09:33:31.812Z</time></trkpt><trkpt lat="44.5729984" lon="9.5126294"><ele>1367.0</ele><time>2026-04-29T09:33:32.813Z</time></trkpt><trkpt lat="44.5729461" lon="9.5127689"><ele>1367.0</ele><time>2026-04-29T09:33:33.815Z</time></trkpt><trkpt lat="44.5729253" lon="9.5129336"><ele>1367.0</ele><time>2026-04-29T09:33:34.814Z</time></trkpt><trkpt lat="44.5729321" lon="9.5131171"><ele>1367.0</ele><time>2026-04-29T09:33:35.814Z</time></trkpt><trkpt lat="44.5729657" lon="9.513316"><ele>1366.6666666666667</ele><time>2026-04-29T09:33:36.812Z</time></trkpt><trkpt lat="44.5730121" lon="9.5135381"><ele>1366.3333333333333</ele><time>2026-04-29T09:33:37.819Z</time></trkpt><trkpt lat="44.5730512" lon="9.5137837"><ele>1366.0</ele><time>2026-04-29T09:33:38.813Z</time></trkpt><trkpt lat="44.5730739" lon="9.5140382"><ele>1368.3333333333333</ele><time>2026-04-29T09:33:39.813Z</time></trkpt><trkpt lat="44.5730891" lon="9.5143101"><ele>1370.6666666666667</ele><time>2026-04-29T09:33:40.813Z</time></trkpt><trkpt lat="44.5730929" lon="9.5145673"><ele>1373.0</ele><time>2026-04-29T09:33:41.814Z</time></trkpt><trkpt lat="44.5730995" lon="9.5148025"><ele>1373.5</ele><time>2026-04-29T09:33:42.813Z</time></trkpt><trkpt lat="44.5730952" lon="9.5150212"><ele>1374.0</ele><time>2026-04-29T09:33:43.812Z</time></trkpt><trkpt lat="44.5730625" lon="9.5152187"><ele>1374.5</ele><time>2026-04-29T09:33:44.812Z</time></trkpt><trkpt lat="44.5729997" lon="9.5153976"><ele>1375.0</ele><time>2026-04-29T09:33:45.813Z</time></trkpt><trkpt lat="44.572919" lon="9.5155525"><ele>1380.6666666666665</ele><time>2026-04-29T09:33:46.812Z</time></trkpt><trkpt lat="44.5728265" lon="9.5156954"><ele>1386.3333333333333</ele><time>2026-04-29T09:33:47.814Z</time></trkpt><trkpt lat="44.5727224" lon="9.5158499"><ele>1392.0</ele><time>2026-04-29T09:33:48.812Z</time></trkpt><trkpt lat="44.5726078" lon="9.516016"><ele>1392.0</ele><time>2026-04-29T09:33:49.813Z</time></trkpt><trkpt lat="44.5724839" lon="9.5161905"><ele>1392.0</ele><time>2026-04-29T09:33:50.812Z</time></trkpt><trkpt lat="44.5723709" lon="9.5163456"><ele>1392.0</ele><time>2026-04-29T09:33:51.812Z</time></trkpt><trkpt lat="44.572275" lon="9.5164986"><ele>1391.25</ele><time>2026-04-29T09:33:52.81Z</time></trkpt><trkpt lat="44.5722097" lon="9.5166657"><ele>1390.5</ele><time>2026-04-29T09:33:53.814Z</time></trkpt><trkpt lat="44.5721728" lon="9.5168538"><ele>1389.75</ele><time>2026-04-29T09:33:54.812Z</time></trkpt><trkpt lat="44.5721652" lon="9.517044"><ele>1389.0</ele><time>2026-04-29T09:33:55.814Z</time></trkpt><trkpt lat="44.5721959" lon="9.5172318"><ele>1391.6666666666667</ele><time>2026-04-29T09:33:56.812Z</time></trkpt><trkpt lat="44.5722577" lon="9.5174218"><ele>1394.3333333333335</ele><time>2026-04-29T09:33:57.812Z</time></trkpt><trkpt lat="44.5723383" lon="9.5176293"><ele>1397.0</ele><time>2026-04-29T09:33:58.812Z</time></trkpt><trkpt lat="44.5724297" lon="9.517857"><ele>1400.6666666666667</ele><time>2026-04-29T09:33:59.812Z</time></trkpt><trkpt lat="44.5725272" lon="9.5181103"><ele>1404.3333333333333</ele><time>2026-04-29T09:34:00.816Z</time></trkpt><trkpt lat="44.5726332" lon="9.5183762"><ele>1408.0</ele><time>2026-04-29T09:34:01.815Z</time></trkpt><trkpt lat="44.5727478" lon="9.5186112"><ele>1406.3333333333333</ele><time>2026-04-29T09:34:02.812Z</time></trkpt><trkpt lat="44.5728782" lon="9.5188335"><ele>1404.6666666666667</ele><time>2026-04-29T09:34:03.812Z</time></trkpt><trkpt lat="44.5730147" lon="9.519055"><ele>1403.0</ele><time>2026-04-29T09:34:04.811Z</time></trkpt><trkpt lat="44.5731373" lon="9.5192602"><ele>1403.0</ele><time>2026-04-29T09:34:05.811Z</time></trkpt><trkpt lat="44.5732597" lon="9.5194562"><ele>1403.0</ele><time>2026-04-29T09:34:06.814Z</time></trkpt><trkpt lat="44.5733876" lon="9.5196628"><ele>1403.0</ele><time>2026-04-29T09:34:07.813Z</time></trkpt><trkpt lat="44.5735079" lon="9.5198529"><ele>1403.5</ele><time>2026-04-29T09:34:08.816Z</time></trkpt><trkpt lat="44.5735988" lon="9.5200072"><ele>1404.0</ele><time>2026-04-29T09:34:09.813Z</time></trkpt><trkpt lat="44.5736664" lon="9.5201455"><ele>1404.5</ele><time>2026-04-29T09:34:10.813Z</time></trkpt><trkpt lat="44.573698" lon="9.5202838"><ele>1405.0</ele><time>2026-04-29T09:34:11.813Z</time></trkpt><trkpt lat="44.573696" lon="9.5204197"><ele>1405.2</ele><time>2026-04-29T09:34:12.813Z</time></trkpt><trkpt lat="44.5736572" lon="9.5205454"><ele>1405.4</ele><time>2026-04-29T09:34:13.813Z</time></trkpt><trkpt lat="44.5735896" lon="9.5206285"><ele>1405.6</ele><time>2026-04-29T09:34:14.815Z</time></trkpt><trkpt lat="44.5735069" lon="9.5206546"><ele>1405.8</ele><time>2026-04-29T09:34:15.814Z</time></trkpt><trkpt lat="44.573414" lon="9.5206242"><ele>1406.0</ele><time>2026-04-29T09:34:16.813Z</time></trkpt><trkpt lat="44.5733142" lon="9.5205401"><ele>1406.0</ele><time>2026-04-29T09:34:17.813Z</time></trkpt><trkpt lat="44.5732056" lon="9.5204101"><ele>1406.0</ele><time>2026-04-29T09:34:18.813Z</time></trkpt><trkpt lat="44.5730796" lon="9.5202524"><ele>1406.0</ele><time>2026-04-29T09:34:19.813Z</time></trkpt><trkpt lat="44.5729488" lon="9.5200949"><ele>1407.6666666666667</ele><time>2026-04-29T09:34:20.813Z</time></trkpt><trkpt lat="44.5728103" lon="9.5199517"><ele>1409.3333333333333</ele><time>2026-04-29T09:34:21.814Z</time></trkpt><trkpt lat="44.5726782" lon="9.5198465"><ele>1411.0</ele><time>2026-04-29T09:34:22.812Z</time></trkpt><trkpt lat="44.5725383" lon="9.5197843"><ele>1411.0</ele><time>2026-04-29T09:34:23.813Z</time></trkpt><trkpt lat="44.5723903" lon="9.5197799"><ele>1411.0</ele><time>2026-04-29T09:34:24.814Z</time></trkpt><trkpt lat="44.5722336" lon="9.5198221"><ele>1411.0</ele><time>2026-04-29T09:34:25.812Z</time></trkpt><trkpt lat="44.5720651" lon="9.5199022"><ele>1414.0</ele><time>2026-04-29T09:34:26.816Z</time></trkpt><trkpt lat="44.5719109" lon="9.5199826"><ele>1417.0</ele><time>2026-04-29T09:34:27.815Z</time></trkpt><trkpt lat="44.5717721" lon="9.5200094"><ele>1420.0</ele><time>2026-04-29T09:34:28.813Z</time></trkpt><trkpt lat="44.5716258" lon="9.5199806"><ele>1420.0</ele><time>2026-04-29T09:34:29.813Z</time></trkpt><trkpt lat="44.5714732" lon="9.5199129"><ele>1420.0</ele><time>2026-04-29T09:34:30.814Z</time></trkpt><trkpt lat="44.5712957" lon="9.5198204"><ele>1420.0</ele><time>2026-04-29T09:34:31.813Z</time></trkpt><trkpt lat="44.5711064" lon="9.5197218"><ele>1419.6666666666665</ele><time>2026-04-29T09:34:32.815Z</time></trkpt><trkpt lat="44.570946" lon="9.519639"><ele>1419.3333333333333</ele><time>2026-04-29T09:34:33.814Z</time></trkpt><trkpt lat="44.5707921" lon="9.5195835"><ele>1419.0</ele><time>2026-04-29T09:34:34.815Z</time></trkpt><trkpt lat="44.5706446" lon="9.5195889"><ele>1419.0</ele><time>2026-04-29T09:34:35.814Z</time></trkpt><trkpt lat="44.5705086" lon="9.5196493"><ele>1419.0</ele><time>2026-04-29T09:34:36.813Z</time></trkpt><trkpt lat="44.5703839" lon="9.5197511"><ele>1419.0</ele><time>2026-04-29T09:34:37.814Z</time></trkpt><trkpt lat="44.5702716" lon="9.5198205"><ele>1419.0</ele><time>2026-04-29T09:34:38.814Z</time></trkpt><trkpt lat="44.5701551" lon="9.5198453"><ele>1420.75</ele><time>2026-04-29T09:34:39.815Z</time></trkpt><trkpt lat="44.5700345" lon="9.5198275"><ele>1422.5</ele><time>2026-04-29T09:34:40.814Z</time></trkpt><trkpt lat="44.5699197" lon="9.5197636"><ele>1424.25</ele><time>2026-04-29T09:34:41.813Z</time></trkpt><trkpt lat="44.5697968" lon="9.5196679"><ele>1426.0</ele><time>2026-04-29T09:34:42.812Z</time></trkpt><trkpt lat="44.5696587" lon="9.5196012"><ele>1425.6666666666665</ele><time>2026-04-29T09:34:43.812Z</time></trkpt><trkpt lat="44.5695098" lon="9.5195851"><ele>1425.3333333333333</ele><time>2026-04-29T09:34:44.813Z</time></trkpt><trkpt lat="44.569351" lon="9.5196196"><ele>1425.0</ele><time>2026-04-29T09:34:45.813Z</time></trkpt><trkpt lat="44.5691842" lon="9.5196857"><ele>1425.0</ele><time>2026-04-29T09:34:46.815Z</time></trkpt><trkpt lat="44.5690079" lon="9.519745"><ele>1425.0</ele><time>2026-04-29T09:34:47.815Z</time></trkpt><trkpt lat="44.5688451" lon="9.5197717"><ele>1425.0</ele><time>2026-04-29T09:34:48.813Z</time></trkpt><trkpt lat="44.5686858" lon="9.5197655"><ele>1427.0</ele><time>2026-04-29T09:34:49.812Z</time></trkpt><trkpt lat="44.568537" lon="9.519755"><ele>1429.0</ele><time>2026-04-29T09:34:50.812Z</time></trkpt><trkpt lat="44.5684013" lon="9.5197864"><ele>1431.0</ele><time>2026-04-29T09:34:51.812Z</time></trkpt><trkpt lat="44.5682707" lon="9.5198748"><ele>1433.0</ele><time>2026-04-29T09:34:52.812Z</time></trkpt><trkpt lat="44.5681467" lon="9.5200184"><ele>1433.0</ele><time>2026-04-29T09:34:53.815Z</time></trkpt><trkpt lat="44.5680204" lon="9.520203"><ele>1433.0</ele><time>2026-04-29T09:34:54.814Z</time></trkpt><trkpt lat="44.5678821" lon="9.5204151"><ele>1433.0</ele><time>2026-04-29T09:34:55.812Z</time></trkpt><trkpt lat="44.5677277" lon="9.5206431"><ele>1436.0</ele><time>2026-04-29T09:34:56.812Z</time></trkpt><trkpt lat="44.5675876" lon="9.5208503"><ele>1439.0</ele><time>2026-04-29T09:34:57.813Z</time></trkpt><trkpt lat="44.5674725" lon="9.5210428"><ele>1442.0</ele><time>2026-04-29T09:34:58.812Z</time></trkpt><trkpt lat="44.5673841" lon="9.5212424"><ele>1442.0</ele><time>2026-04-29T09:34:59.816Z</time></trkpt><trkpt lat="44.5673258" lon="9.5214693"><ele>1442.0</ele><time>2026-04-29T09:35:00.813Z</time></trkpt><trkpt lat="44.5672922" lon="9.5217268"><ele>1442.0</ele><time>2026-04-29T09:35:01.813Z</time></trkpt><trkpt lat="44.5672671" lon="9.5219961"><ele>1441.25</ele><time>2026-04-29T09:35:02.814Z</time></trkpt><trkpt lat="44.5672414" lon="9.5222094"><ele>1440.5</ele><time>2026-04-29T09:35:03.814Z</time></trkpt><trkpt lat="44.5671911" lon="9.5223617"><ele>1439.75</ele><time>2026-04-29T09:35:04.812Z</time></trkpt><trkpt lat="44.5671102" lon="9.5224782"><ele>1439.0</ele><time>2026-04-29T09:35:05.813Z</time></trkpt><trkpt lat="44.5670013" lon="9.5225445"><ele>1442.6666666666667</ele><time>2026-04-29T09:35:06.814Z</time></trkpt><trkpt lat="44.5668624" lon="9.5225678"><ele>1446.3333333333333</ele><time>2026-04-29T09:35:07.814Z</time></trkpt><trkpt lat="44.5666905" lon="9.5225764"><ele>1450.0</ele><time>2026-04-29T09:35:08.814Z</time></trkpt><trkpt lat="44.5664884" lon="9.5225831"><ele>1450.0</ele><time>2026-04-29T09:35:09.813Z</time></trkpt><trkpt lat="44.5662999" lon="9.5225847"><ele>1450.0</ele><time>2026-04-29T09:35:10.812Z</time></trkpt><trkpt lat="44.5661316" lon="9.5225702"><ele>1450.0</ele><time>2026-04-29T09:35:11.812Z</time></trkpt><trkpt lat="44.5659759" lon="9.522512"><ele>1448.6666666666665</ele><time>2026-04-29T09:35:12.814Z</time></trkpt><trkpt lat="44.5658206" lon="9.5224091"><ele>1447.3333333333333</ele><time>2026-04-29T09:35:13.814Z</time></trkpt><trkpt lat="44.5656607" lon="9.5222827"><ele>1446.0</ele><time>2026-04-29T09:35:14.812Z</time></trkpt><trkpt lat="44.5654955" lon="9.5221388"><ele>1450.6666666666667</ele><time>2026-04-29T09:35:15.812Z</time></trkpt><trkpt lat="44.5653259" lon="9.5219918"><ele>1455.3333333333335</ele><time>2026-04-29T09:35:16.812Z</time></trkpt><trkpt lat="44.5651675" lon="9.5218518"><ele>1460.0</ele><time>2026-04-29T09:35:17.814Z</time></trkpt><trkpt lat="44.5650175" lon="9.5217253"><ele>1460.0</ele><time>2026-04-29T09:35:18.815Z</time></trkpt><trkpt lat="44.5648712" lon="9.5216279"><ele>1460.0</ele><time>2026-04-29T09:35:19.812Z</time></trkpt><trkpt lat="44.5647072" lon="9.5215847"><ele>1460.0</ele><time>2026-04-29T09:35:20.814Z</time></trkpt><trkpt lat="44.5645308" lon="9.5215808"><ele>1455.6666666666667</ele><time>2026-04-29T09:35:21.813Z</time></trkpt><trkpt lat="44.5643398" lon="9.5215991"><ele>1451.3333333333333</ele><time>2026-04-29T09:35:22.813Z</time></trkpt><trkpt lat="44.5641427" lon="9.5216146"><ele>1447.0</ele><time>2026-04-29T09:35:23.814Z</time></trkpt><trkpt lat="44.5639482" lon="9.5216354"><ele>1447.0</ele><time>2026-04-29T09:35:24.813Z</time></trkpt><trkpt lat="44.5637566" lon="9.5216907"><ele>1447.0</ele><time>2026-04-29T09:35:25.813Z</time></trkpt><trkpt lat="44.563579" lon="9.5217724"><ele>1447.0</ele><time>2026-04-29T09:35:26.814Z</time></trkpt><trkpt lat="44.5634202" lon="9.5218716"><ele>1442.0</ele><time>2026-04-29T09:35:27.813Z</time></trkpt><trkpt lat="44.563264" lon="9.5219734"><ele>1437.0</ele><time>2026-04-29T09:35:28.814Z</time></trkpt><trkpt lat="44.5630897" lon="9.522068"><ele>1432.0</ele><time>2026-04-29T09:35:29.814Z</time></trkpt><trkpt lat="44.5629079" lon="9.5221523"><ele>1439.0</ele><time>2026-04-29T09:35:30.813Z</time></trkpt><trkpt lat="44.5627389" lon="9.5222332"><ele>1446.0</ele><time>2026-04-29T09:35:31.813Z</time></trkpt><trkpt lat="44.5625949" lon="9.5223184"><ele>1453.0</ele><time>2026-04-29T09:35:32.815Z</time></trkpt><trkpt lat="44.5624663" lon="9.5224136"><ele>1453.0</ele><time>2026-04-29T09:35:33.813Z</time></trkpt><trkpt lat="44.5624075" lon="9.5225918"><ele>1453.0</ele><time>2026-04-29T09:35:34.814Z</time></trkpt><trkpt lat="44.5623612" lon="9.5227908"><ele>1453.0</ele><time>2026-04-29T09:35:35.813Z</time></trkpt><trkpt lat="44.5623314" lon="9.5230242"><ele>1449.3333333333333</ele><time>2026-04-29T09:35:36.812Z</time></trkpt><trkpt lat="44.5622966" lon="9.5232821"><ele>1445.6666666666667</ele><time>2026-04-29T09:35:37.815Z</time></trkpt><trkpt lat="44.5622358" lon="9.523557"><ele>1442.0</ele><time>2026-04-29T09:35:38.813Z</time></trkpt><trkpt lat="44.5621615" lon="9.5238218"><ele>1441.0</ele><time>2026-04-29T09:35:39.815Z</time></trkpt><trkpt lat="44.5620893" lon="9.5240589"><ele>1440.0</ele><time>2026-04-29T09:35:40.814Z</time></trkpt><trkpt lat="44.5620203" lon="9.5242592"><ele>1439.0</ele><time>2026-04-29T09:35:41.813Z</time></trkpt><trkpt lat="44.5619349" lon="9.5244032"><ele>1441.5</ele><time>2026-04-29T09:35:42.813Z</time></trkpt><trkpt lat="44.5618209" lon="9.5244948"><ele>1444.0</ele><time>2026-04-29T09:35:43.812Z</time></trkpt><trkpt lat="44.5616832" lon="9.5245458"><ele>1446.5</ele><time>2026-04-29T09:35:44.815Z</time></trkpt><trkpt lat="44.5615166" lon="9.5245793"><ele>1449.0</ele><time>2026-04-29T09:35:45.813Z</time></trkpt><trkpt lat="44.5613126" lon="9.524628"><ele>1452.3333333333333</ele><time>2026-04-29T09:35:46.814Z</time></trkpt><trkpt lat="44.5610837" lon="9.5246765"><ele>1455.6666666666665</ele><time>2026-04-29T09:35:47.812Z</time></trkpt><trkpt lat="44.5608799" lon="9.5247228"><ele>1459.0</ele><time>2026-04-29T09:35:48.813Z</time></trkpt><trkpt lat="44.5606852" lon="9.5247668"><ele>1459.0</ele><time>2026-04-29T09:35:49.812Z</time></trkpt><trkpt lat="44.5604977" lon="9.5247835"><ele>1459.0</ele><time>2026-04-29T09:35:50.814Z</time></trkpt><trkpt lat="44.560311" lon="9.5247577"><ele>1459.0</ele><time>2026-04-29T09:35:51.813Z</time></trkpt><trkpt lat="44.5601158" lon="9.5246911"><ele>1458.6666666666665</ele><time>2026-04-29T09:35:52.814Z</time></trkpt><trkpt lat="44.5599114" lon="9.5246007"><ele>1458.3333333333333</ele><time>2026-04-29T09:35:53.814Z</time></trkpt><trkpt lat="44.559723" lon="9.5245155"><ele>1458.0</ele><time>2026-04-29T09:35:54.812Z</time></trkpt><trkpt lat="44.5595341" lon="9.5244568"><ele>1465.0</ele><time>2026-04-29T09:35:55.813Z</time></trkpt><trkpt lat="44.5593512" lon="9.5244326"><ele>1472.0</ele><time>2026-04-29T09:35:56.814Z</time></trkpt><trkpt lat="44.5591659" lon="9.5244693"><ele>1479.0</ele><time>2026-04-29T09:35:57.813Z</time></trkpt><trkpt lat="44.5589676" lon="9.5245424"><ele>1474.6666666666667</ele><time>2026-04-29T09:35:58.816Z</time></trkpt><trkpt lat="44.5587511" lon="9.5246288"><ele>1470.3333333333335</ele><time>2026-04-29T09:35:59.814Z</time></trkpt><trkpt lat="44.5585354" lon="9.5247037"><ele>1466.0</ele><time>2026-04-29T09:36:00.814Z</time></trkpt><trkpt lat="44.5583386" lon="9.5247727"><ele>1466.0</ele><time>2026-04-29T09:36:01.813Z</time></trkpt><trkpt lat="44.5581644" lon="9.5248334"><ele>1466.0</ele><time>2026-04-29T09:36:02.813Z</time></trkpt><trkpt lat="44.5580228" lon="9.524881"><ele>1466.0</ele><time>2026-04-29T09:36:03.815Z</time></trkpt><trkpt lat="44.557894" lon="9.5248969"><ele>1465.5</ele><time>2026-04-29T09:36:04.814Z</time></trkpt><trkpt lat="44.5577785" lon="9.5248571"><ele>1465.0</ele><time>2026-04-29T09:36:05.814Z</time></trkpt><trkpt lat="44.5576769" lon="9.5247702"><ele>1464.5</ele><time>2026-04-29T09:36:06.813Z</time></trkpt><trkpt lat="44.557618" lon="9.5246488"><ele>1464.0</ele><time>2026-04-29T09:36:07.814Z</time></trkpt><trkpt lat="44.5575886" lon="9.5244913"><ele>1465.3333333333333</ele><time>2026-04-29T09:36:08.815Z</time></trkpt><trkpt lat="44.5575795" lon="9.5242906"><ele>1466.6666666666665</ele><time>2026-04-29T09:36:09.814Z</time></trkpt><trkpt lat="44.5575779" lon="9.524052"><ele>1468.0</ele><time>2026-04-29T09:36:10.816Z</time></trkpt><trkpt lat="44.5575803" lon="9.5237606"><ele>1471.0</ele><time>2026-04-29T09:36:11.815Z</time></trkpt><trkpt lat="44.5575746" lon="9.5234748"><ele>1474.0</ele><time>2026-04-29T09:36:12.815Z</time></trkpt><trkpt lat="44.5575438" lon="9.5232012"><ele>1477.0</ele><time>2026-04-29T09:36:13.812Z</time></trkpt><trkpt lat="44.5574844" lon="9.5229247"><ele>1481.3333333333333</ele><time>2026-04-29T09:36:14.812Z</time></trkpt><trkpt lat="44.5574054" lon="9.522645"><ele>1485.6666666666667</ele><time>2026-04-29T09:36:15.814Z</time></trkpt><trkpt lat="44.5573046" lon="9.5223745"><ele>1490.0</ele><time>2026-04-29T09:36:16.813Z</time></trkpt><trkpt lat="44.5571843" lon="9.5221258"><ele>1486.0</ele><time>2026-04-29T09:36:17.813Z</time></trkpt><trkpt lat="44.5570633" lon="9.5219011"><ele>1482.0</ele><time>2026-04-29T09:36:18.814Z</time></trkpt><trkpt lat="44.5569518" lon="9.5217015"><ele>1478.0</ele><time>2026-04-29T09:36:19.815Z</time></trkpt><trkpt lat="44.5568525" lon="9.5215211"><ele>1478.0</ele><time>2026-04-29T09:36:20.813Z</time></trkpt><trkpt lat="44.5567708" lon="9.5213453"><ele>1478.0</ele><time>2026-04-29T09:36:21.814Z</time></trkpt><trkpt lat="44.5567194" lon="9.5211637"><ele>1478.0</ele><time>2026-04-29T09:36:22.815Z</time></trkpt><trkpt lat="44.5566906" lon="9.5209593"><ele>1478.0</ele><time>2026-04-29T09:36:23.815Z</time></trkpt><trkpt lat="44.5566645" lon="9.5207354"><ele>1480.5</ele><time>2026-04-29T09:36:24.818Z</time></trkpt><trkpt lat="44.5566316" lon="9.5205319"><ele>1483.0</ele><time>2026-04-29T09:36:25.813Z</time></trkpt><trkpt lat="44.556572" lon="9.5203387"><ele>1485.5</ele><time>2026-04-29T09:36:26.813Z</time></trkpt><trkpt lat="44.5564818" lon="9.5201726"><ele>1488.0</ele><time>2026-04-29T09:36:27.814Z</time></trkpt><trkpt lat="44.5563782" lon="9.5200187"><ele>1490.0</ele><time>2026-04-29T09:36:28.815Z</time></trkpt><trkpt lat="44.5562963" lon="9.5198774"><ele>1492.0</ele><time>2026-04-29T09:36:29.815Z</time></trkpt><trkpt lat="44.556247" lon="9.5197364"><ele>1494.0</ele><time>2026-04-29T09:36:30.816Z</time></trkpt><trkpt lat="44.55622" lon="9.5195795"><ele>1496.0</ele><time>2026-04-29T09:36:31.814Z</time></trkpt><trkpt lat="44.5562107" lon="9.5193825"><ele>1499.0</ele><time>2026-04-29T09:36:32.813Z</time></trkpt><trkpt lat="44.5562167" lon="9.5191471"><ele>1502.0</ele><time>2026-04-29T09:36:33.815Z</time></trkpt><trkpt lat="44.5562177" lon="9.5189169"><ele>1505.0</ele><time>2026-04-29T09:36:34.816Z</time></trkpt><trkpt lat="44.5562018" lon="9.5186841"><ele>1499.0</ele><time>2026-04-29T09:36:35.814Z</time></trkpt><trkpt lat="44.5561588" lon="9.5184351"><ele>1493.0</ele><time>2026-04-29T09:36:36.814Z</time></trkpt><trkpt lat="44.556097" lon="9.5181687"><ele>1487.0</ele><time>2026-04-29T09:36:37.814Z</time></trkpt><trkpt lat="44.5560158" lon="9.5179076"><ele>1491.0</ele><time>2026-04-29T09:36:38.815Z</time></trkpt><trkpt lat="44.5559088" lon="9.517651"><ele>1495.0</ele><time>2026-04-29T09:36:39.814Z</time></trkpt><trkpt lat="44.5557873" lon="9.5173919"><ele>1499.0</ele><time>2026-04-29T09:36:40.813Z</time></trkpt><trkpt lat="44.5556573" lon="9.5171254"><ele>1499.6666666666667</ele><time>2026-04-29T09:36:41.813Z</time></trkpt><trkpt lat="44.555527" lon="9.5168605"><ele>1500.3333333333333</ele><time>2026-04-29T09:36:42.814Z</time></trkpt><trkpt lat="44.5554144" lon="9.5166385"><ele>1501.0</ele><time>2026-04-29T09:36:43.813Z</time></trkpt><trkpt lat="44.5553031" lon="9.5164601"><ele>1501.0</ele><time>2026-04-29T09:36:44.812Z</time></trkpt><trkpt lat="44.5551606" lon="9.5163287"><ele>1501.0</ele><time>2026-04-29T09:36:45.812Z</time></trkpt><trkpt lat="44.5550023" lon="9.5162481"><ele>1501.0</ele><time>2026-04-29T09:36:46.813Z</time></trkpt><trkpt lat="44.5548317" lon="9.5161929"><ele>1507.0</ele><time>2026-04-29T09:36:47.815Z</time></trkpt><trkpt lat="44.5546804" lon="9.5161517"><ele>1513.0</ele><time>2026-04-29T09:36:48.814Z</time></trkpt><trkpt lat="44.5545322" lon="9.5161537"><ele>1519.0</ele><time>2026-04-29T09:36:49.813Z</time></trkpt><trkpt lat="44.5543863" lon="9.516222"><ele>1514.3333333333333</ele><time>2026-04-29T09:36:50.813Z</time></trkpt><trkpt lat="44.5542504" lon="9.5163381"><ele>1509.6666666666667</ele><time>2026-04-29T09:36:51.813Z</time></trkpt><trkpt lat="44.5541179" lon="9.5164784"><ele>1505.0</ele><time>2026-04-29T09:36:52.813Z</time></trkpt><trkpt lat="44.5539981" lon="9.5166074"><ele>1505.0</ele><time>2026-04-29T09:36:53.813Z</time></trkpt><trkpt lat="44.5538839" lon="9.5166991"><ele>1505.0</ele><time>2026-04-29T09:36:54.814Z</time></trkpt><trkpt lat="44.5537715" lon="9.5167334"><ele>1505.0</ele><time>2026-04-29T09:36:55.815Z</time></trkpt><trkpt lat="44.5536489" lon="9.5167243"><ele>1505.0</ele><time>2026-04-29T09:36:56.813Z</time></trkpt><trkpt lat="44.5535149" lon="9.5166698"><ele>1505.3333333333335</ele><time>2026-04-29T09:36:57.813Z</time></trkpt><trkpt lat="44.5533548" lon="9.5165906"><ele>1505.6666666666667</ele><time>2026-04-29T09:36:58.814Z</time></trkpt><trkpt lat="44.5531682" lon="9.516499"><ele>1506.0</ele><time>2026-04-29T09:36:59.813Z</time></trkpt><trkpt lat="44.5529597" lon="9.5163995"><ele>1503.3333333333333</ele><time>2026-04-29T09:37:00.813Z</time></trkpt><trkpt lat="44.5527531" lon="9.5163013"><ele>1500.6666666666665</ele><time>2026-04-29T09:37:01.815Z</time></trkpt><trkpt lat="44.552562" lon="9.5162113"><ele>1498.0</ele><time>2026-04-29T09:37:02.813Z</time></trkpt><trkpt lat="44.552387" lon="9.5161153"><ele>1503.6666666666665</ele><time>2026-04-29T09:37:03.813Z</time></trkpt><trkpt lat="44.5522427" lon="9.5159896"><ele>1509.3333333333333</ele><time>2026-04-29T09:37:04.813Z</time></trkpt><trkpt lat="44.5521314" lon="9.5158288"><ele>1515.0</ele><time>2026-04-29T09:37:05.812Z</time></trkpt><trkpt lat="44.5520436" lon="9.5156222"><ele>1510.3333333333333</ele><time>2026-04-29T09:37:06.815Z</time></trkpt><trkpt lat="44.5519651" lon="9.5153783"><ele>1505.6666666666665</ele><time>2026-04-29T09:37:07.816Z</time></trkpt><trkpt lat="44.5518854" lon="9.5150977"><ele>1501.0</ele><time>2026-04-29T09:37:08.812Z</time></trkpt><trkpt lat="44.5518143" lon="9.5148075"><ele>1505.6666666666665</ele><time>2026-04-29T09:37:09.813Z</time></trkpt><trkpt lat="44.5517424" lon="9.5145423"><ele>1510.3333333333333</ele><time>2026-04-29T09:37:10.813Z</time></trkpt><trkpt lat="44.5516423" lon="9.5142887"><ele>1515.0</ele><time>2026-04-29T09:37:11.815Z</time></trkpt><trkpt lat="44.5515124" lon="9.5140626"><ele>1515.0</ele><time>2026-04-29T09:37:12.816Z</time></trkpt><trkpt lat="44.5513641" lon="9.5138568"><ele>1515.0</ele><time>2026-04-29T09:37:13.813Z</time></trkpt><trkpt lat="44.5512289" lon="9.5136668"><ele>1515.0</ele><time>2026-04-29T09:37:14.815Z</time></trkpt><trkpt lat="44.5511129" lon="9.513448"><ele>1517.0</ele><time>2026-04-29T09:37:15.812Z</time></trkpt><trkpt lat="44.5510072" lon="9.5132152"><ele>1519.0</ele><time>2026-04-29T09:37:16.814Z</time></trkpt><trkpt lat="44.5509048" lon="9.5129992"><ele>1521.0</ele><time>2026-04-29T09:37:17.813Z</time></trkpt><trkpt lat="44.5507757" lon="9.5128049"><ele>1521.0</ele><time>2026-04-29T09:37:18.816Z</time></trkpt><trkpt lat="44.550616" lon="9.5126426"><ele>1521.0</ele><time>2026-04-29T09:37:19.813Z</time></trkpt><trkpt lat="44.5504336" lon="9.5125205"><ele>1521.0</ele><time>2026-04-29T09:37:20.814Z</time></trkpt><trkpt lat="44.5502293" lon="9.5124038"><ele>1516.0</ele><time>2026-04-29T09:37:21.814Z</time></trkpt><trkpt lat="44.5500362" lon="9.5122895"><ele>1511.0</ele><time>2026-04-29T09:37:22.813Z</time></trkpt><trkpt lat="44.5498676" lon="9.512198"><ele>1506.0</ele><time>2026-04-29T09:37:23.814Z</time></trkpt><trkpt lat="44.5497256" lon="9.5121186"><ele>1506.25</ele><time>2026-04-29T09:37:24.814Z</time></trkpt><trkpt lat="44.5496127" lon="9.5120278"><ele>1506.5</ele><time>2026-04-29T09:37:25.813Z</time></trkpt><trkpt lat="44.5495303" lon="9.5119109"><ele>1506.75</ele><time>2026-04-29T09:37:26.816Z</time></trkpt><trkpt lat="44.5494939" lon="9.5117568"><ele>1507.0</ele><time>2026-04-29T09:37:27.815Z</time></trkpt><trkpt lat="44.5494919" lon="9.5115622"><ele>1507.0</ele><time>2026-04-29T09:37:28.814Z</time></trkpt><trkpt lat="44.5495132" lon="9.511322"><ele>1507.0</ele><time>2026-04-29T09:37:29.814Z</time></trkpt><trkpt lat="44.5495564" lon="9.5110512"><ele>1507.0</ele><time>2026-04-29T09:37:30.813Z</time></trkpt><trkpt lat="44.5496168" lon="9.5107648"><ele>1511.3333333333333</ele><time>2026-04-29T09:37:31.815Z</time></trkpt><trkpt lat="44.5496765" lon="9.5105075"><ele>1515.6666666666667</ele><time>2026-04-29T09:37:32.815Z</time></trkpt><trkpt lat="44.5497178" lon="9.5102688"><ele>1520.0</ele><time>2026-04-29T09:37:33.813Z</time></trkpt><trkpt lat="44.5497206" lon="9.5100273"><ele>1520.3333333333335</ele><time>2026-04-29T09:37:34.815Z</time></trkpt><trkpt lat="44.5496791" lon="9.5097815"><ele>1520.6666666666667</ele><time>2026-04-29T09:37:35.813Z</time></trkpt><trkpt lat="44.5496101" lon="9.509533"><ele>1521.0</ele><time>2026-04-29T09:37:36.812Z</time></trkpt><trkpt lat="44.5495196" lon="9.5093083"><ele>1519.0</ele><time>2026-04-29T09:37:37.814Z</time></trkpt><trkpt lat="44.5493997" lon="9.5090923"><ele>1517.0</ele><time>2026-04-29T09:37:38.814Z</time></trkpt><trkpt lat="44.5492764" lon="9.5089034"><ele>1515.0</ele><time>2026-04-29T09:37:39.814Z</time></trkpt><trkpt lat="44.5491722" lon="9.5087109"><ele>1515.0</ele><time>2026-04-29T09:37:40.813Z</time></trkpt><trkpt lat="44.5490916" lon="9.5084861"><ele>1515.0</ele><time>2026-04-29T09:37:41.815Z</time></trkpt><trkpt lat="44.5490268" lon="9.5082595"><ele>1515.0</ele><time>2026-04-29T09:37:42.814Z</time></trkpt><trkpt lat="44.5489737" lon="9.5080485"><ele>1515.0</ele><time>2026-04-29T09:37:43.813Z</time></trkpt><trkpt lat="44.5489403" lon="9.5078407"><ele>1515.0</ele><time>2026-04-29T09:37:44.813Z</time></trkpt><trkpt lat="44.5489424" lon="9.5076248"><ele>1515.0</ele><time>2026-04-29T09:37:45.816Z</time></trkpt><trkpt lat="44.5489729" lon="9.5073929"><ele>1515.0</ele><time>2026-04-29T09:37:46.814Z</time></trkpt><trkpt lat="44.5490191" lon="9.5071518"><ele>1515.0</ele><time>2026-04-29T09:37:47.814Z</time></trkpt><trkpt lat="44.5490612" lon="9.5069254"><ele>1515.0</ele><time>2026-04-29T09:37:48.812Z</time></trkpt><trkpt lat="44.5490903" lon="9.506697"><ele>1514.3333333333333</ele><time>2026-04-29T09:37:49.814Z</time></trkpt><trkpt lat="44.5490842" lon="9.5064776"><ele>1513.6666666666665</ele><time>2026-04-29T09:37:50.811Z</time></trkpt><trkpt lat="44.5490397" lon="9.5062712"><ele>1513.0</ele><time>2026-04-29T09:37:51.814Z</time></trkpt><trkpt lat="44.5489643" lon="9.506073"><ele>1513.0</ele><time>2026-04-29T09:37:52.818Z</time></trkpt><trkpt lat="44.5488801" lon="9.5058844"><ele>1513.0</ele><time>2026-04-29T09:37:53.814Z</time></trkpt><trkpt lat="44.5488106" lon="9.5056935"><ele>1513.0</ele><time>2026-04-29T09:37:54.812Z</time></trkpt><trkpt lat="44.5487598" lon="9.5054953"><ele>1512.5</ele><time>2026-04-29T09:37:55.812Z</time></trkpt><trkpt lat="44.5487268" lon="9.5053045"><ele>1512.0</ele><time>2026-04-29T09:37:56.813Z</time></trkpt><trkpt lat="44.5487002" lon="9.5051194"><ele>1511.5</ele><time>2026-04-29T09:37:57.812Z</time></trkpt><trkpt lat="44.5486842" lon="9.5049405"><ele>1511.0</ele><time>2026-04-29T09:37:58.815Z</time></trkpt><trkpt lat="44.5486911" lon="9.5047685"><ele>1511.0</ele><time>2026-04-29T09:37:59.813Z</time></trkpt><trkpt lat="44.5487106" lon="9.5046063"><ele>1511.0</ele><time>2026-04-29T09:38:00.813Z</time></trkpt><trkpt lat="44.54872" lon="9.5044409"><ele>1511.0</ele><time>2026-04-29T09:38:01.814Z</time></trkpt><trkpt lat="44.5487036" lon="9.5042872"><ele>1511.0</ele><time>2026-04-29T09:38:02.812Z</time></trkpt><trkpt lat="44.5486683" lon="9.5041466"><ele>1506.5</ele><time>2026-04-29T09:38:03.814Z</time></trkpt><trkpt lat="44.5486198" lon="9.5040072"><ele>1502.0</ele><time>2026-04-29T09:38:04.814Z</time></trkpt><trkpt lat="44.5485632" lon="9.5038565"><ele>1497.5</ele><time>2026-04-29T09:38:05.814Z</time></trkpt><trkpt lat="44.5485015" lon="9.5036947"><ele>1493.0</ele><time>2026-04-29T09:38:06.815Z</time></trkpt><trkpt lat="44.5484409" lon="9.5035315"><ele>1493.0</ele><time>2026-04-29T09:38:07.814Z</time></trkpt><trkpt lat="44.5483836" lon="9.5033776"><ele>1493.0</ele><time>2026-04-29T09:38:08.813Z</time></trkpt><trkpt lat="44.5483243" lon="9.5032209"><ele>1493.0</ele><time>2026-04-29T09:38:09.811Z</time></trkpt><trkpt lat="44.5482634" lon="9.5030599"><ele>1493.0</ele><time>2026-04-29T09:38:10.813Z</time></trkpt><trkpt lat="44.5482033" lon="9.5029038"><ele>1495.0</ele><time>2026-04-29T09:38:11.814Z</time></trkpt><trkpt lat="44.5481475" lon="9.5027521"><ele>1497.0</ele><time>2026-04-29T09:38:12.812Z</time></trkpt><trkpt lat="44.5480906" lon="9.5025982"><ele>1499.0</ele><time>2026-04-29T09:38:13.814Z</time></trkpt><trkpt lat="44.5480306" lon="9.5024392"><ele>1501.0</ele><time>2026-04-29T09:38:14.813Z</time></trkpt><trkpt lat="44.5479699" lon="9.5022814"><ele>1501.0</ele><time>2026-04-29T09:38:15.812Z</time></trkpt><trkpt lat="44.5479074" lon="9.502139"><ele>1501.0</ele><time>2026-04-29T09:38:16.814Z</time></trkpt><trkpt lat="44.5478318" lon="9.5020218"><ele>1501.0</ele><time>2026-04-29T09:38:17.813Z</time></trkpt><trkpt lat="44.5477378" lon="9.5019552"><ele>1501.0</ele><time>2026-04-29T09:38:18.814Z</time></trkpt><trkpt lat="44.5476258" lon="9.5019459"><ele>1501.0</ele><time>2026-04-29T09:38:19.815Z</time></trkpt><trkpt lat="44.5474978" lon="9.5019762"><ele>1502.3333333333333</ele><time>2026-04-29T09:38:20.814Z</time></trkpt><trkpt lat="44.5473543" lon="9.5020437"><ele>1503.6666666666667</ele><time>2026-04-29T09:38:21.813Z</time></trkpt><trkpt lat="44.5471962" lon="9.5021269"><ele>1505.0</ele><time>2026-04-29T09:38:22.813Z</time></trkpt><trkpt lat="44.5470225" lon="9.5022187"><ele>1498.0</ele><time>2026-04-29T09:38:23.813Z</time></trkpt><trkpt lat="44.5468577" lon="9.5023015"><ele>1491.0</ele><time>2026-04-29T09:38:24.814Z</time></trkpt><trkpt lat="44.5467058" lon="9.5023818"><ele>1484.0</ele><time>2026-04-29T09:38:25.813Z</time></trkpt><trkpt lat="44.5465711" lon="9.502458"><ele>1484.0</ele><time>2026-04-29T09:38:26.814Z</time></trkpt><trkpt lat="44.5464438" lon="9.5025169"><ele>1484.0</ele><time>2026-04-29T09:38:27.811Z</time></trkpt><trkpt lat="44.5463166" lon="9.5025345"><ele>1484.0</ele><time>2026-04-29T09:38:28.814Z</time></trkpt><trkpt lat="44.5461912" lon="9.5025159"><ele>1484.0</ele><time>2026-04-29T09:38:29.811Z</time></trkpt><trkpt lat="44.5460799" lon="9.5024729"><ele>1483.4</ele><time>2026-04-29T09:38:30.813Z</time></trkpt><trkpt lat="44.5459811" lon="9.5024121"><ele>1482.8000000000002</ele><time>2026-04-29T09:38:31.814Z</time></trkpt><trkpt lat="44.5458814" lon="9.5023404"><ele>1482.1999999999998</ele><time>2026-04-29T09:38:32.813Z</time></trkpt><trkpt lat="44.5457788" lon="9.5022711"><ele>1481.6</ele><time>2026-04-29T09:38:33.814Z</time></trkpt><trkpt lat="44.5456827" lon="9.502199"><ele>1481.0</ele><time>2026-04-29T09:38:34.814Z</time></trkpt><trkpt lat="44.5456" lon="9.502106"><ele>1479.5</ele><time>2026-04-29T09:38:35.812Z</time></trkpt><trkpt lat="44.5455241" lon="9.5019952"><ele>1478.0</ele><time>2026-04-29T09:38:36.814Z</time></trkpt><trkpt lat="44.5454573" lon="9.501865"><ele>1476.5</ele><time>2026-04-29T09:38:37.814Z</time></trkpt><trkpt lat="44.5453934" lon="9.5017295"><ele>1475.0</ele><time>2026-04-29T09:38:38.814Z</time></trkpt><trkpt lat="44.5453309" lon="9.5016003"><ele>1475.0</ele><time>2026-04-29T09:38:39.814Z</time></trkpt><trkpt lat="44.545269" lon="9.5014733"><ele>1475.0</ele><time>2026-04-29T09:38:40.812Z</time></trkpt><trkpt lat="44.545205" lon="9.5013376"><ele>1475.0</ele><time>2026-04-29T09:38:41.813Z</time></trkpt><trkpt lat="44.5451429" lon="9.5011966"><ele>1475.0</ele><time>2026-04-29T09:38:42.812Z</time></trkpt><trkpt lat="44.5450814" lon="9.5010588"><ele>1477.0</ele><time>2026-04-29T09:38:43.814Z</time></trkpt><trkpt lat="44.5450201" lon="9.5009183"><ele>1479.0</ele><time>2026-04-29T09:38:44.815Z</time></trkpt><trkpt lat="44.5449594" lon="9.500783"><ele>1481.0</ele><time>2026-04-29T09:38:45.813Z</time></trkpt><trkpt lat="44.5449028" lon="9.5006625"><ele>1483.0</ele><time>2026-04-29T09:38:46.813Z</time></trkpt><trkpt lat="44.5448491" lon="9.5005501"><ele>1485.0</ele><time>2026-04-29T09:38:47.813Z</time></trkpt><trkpt lat="44.5447813" lon="9.5004475"><ele>1485.6</ele><time>2026-04-29T09:38:48.814Z</time></trkpt><trkpt lat="44.5446951" lon="9.5003604"><ele>1486.2</ele><time>2026-04-29T09:38:49.812Z</time></trkpt><trkpt lat="44.5445948" lon="9.500303"><ele>1486.8000000000002</ele><time>2026-04-29T09:38:50.813Z</time></trkpt><trkpt lat="44.544478" lon="9.5002867"><ele>1487.4</ele><time>2026-04-29T09:38:51.814Z</time></trkpt><trkpt lat="44.5443658" lon="9.500301"><ele>1488.0</ele><time>2026-04-29T09:38:52.814Z</time></trkpt><trkpt lat="44.5442614" lon="9.5003447"><ele>1488.0</ele><time>2026-04-29T09:38:53.813Z</time></trkpt><trkpt lat="44.5441533" lon="9.5003889"><ele>1488.0</ele><time>2026-04-29T09:38:54.813Z</time></trkpt><trkpt lat="44.5440407" lon="9.5004359"><ele>1488.0</ele><time>2026-04-29T09:38:55.813Z</time></trkpt><trkpt lat="44.5439312" lon="9.5004727"><ele>1488.0</ele><time>2026-04-29T09:38:56.815Z</time></trkpt><trkpt lat="44.5438269" lon="9.500492"><ele>1488.0</ele><time>2026-04-29T09:38:57.814Z</time></trkpt><trkpt lat="44.5437275" lon="9.5004962"><ele>1485.6000000000001</ele><time>2026-04-29T09:38:58.815Z</time></trkpt><trkpt lat="44.5436286" lon="9.5005059"><ele>1483.2</ele><time>2026-04-29T09:38:59.815Z</time></trkpt><trkpt lat="44.5435294" lon="9.5005237"><ele>1480.8</ele><time>2026-04-29T09:39:00.813Z</time></trkpt><trkpt lat="44.5434298" lon="9.5005648"><ele>1478.4</ele><time>2026-04-29T09:39:01.812Z</time></trkpt><trkpt lat="44.5433405" lon="9.5006221"><ele>1476.0</ele><time>2026-04-29T09:39:02.813Z</time></trkpt><trkpt lat="44.5432546" lon="9.5006871"><ele>1476.0</ele><time>2026-04-29T09:39:03.812Z</time></trkpt><trkpt lat="44.5431586" lon="9.5007589"><ele>1476.0</ele><time>2026-04-29T09:39:04.815Z</time></trkpt><trkpt lat="44.543059" lon="9.5008197"><ele>1476.0</ele><time>2026-04-29T09:39:05.814Z</time></trkpt><trkpt lat="44.5429498" lon="9.5008773"><ele>1476.0</ele><time>2026-04-29T09:39:06.814Z</time></trkpt><trkpt lat="44.5428337" lon="9.5009245"><ele>1477.75</ele><time>2026-04-29T09:39:07.813Z</time></trkpt><trkpt lat="44.5427159" lon="9.5009556"><ele>1479.5</ele><time>2026-04-29T09:39:08.813Z</time></trkpt><trkpt lat="44.5426013" lon="9.5009817"><ele>1481.25</ele><time>2026-04-29T09:39:09.812Z</time></trkpt><trkpt lat="44.5424863" lon="9.5010077"><ele>1483.0</ele><time>2026-04-29T09:39:10.814Z</time></trkpt><trkpt lat="44.542372" lon="9.5010343"><ele>1483.0</ele><time>2026-04-29T09:39:11.815Z</time></trkpt><trkpt lat="44.5422569" lon="9.5010702"><ele>1483.0</ele><time>2026-04-29T09:39:12.815Z</time></trkpt><trkpt lat="44.5421493" lon="9.5011304"><ele>1483.0</ele><time>2026-04-29T09:39:13.813Z</time></trkpt><trkpt lat="44.5420489" lon="9.5012228"><ele>1483.0</ele><time>2026-04-29T09:39:14.812Z</time></trkpt><trkpt lat="44.5419611" lon="9.5013486"><ele>1482.0</ele><time>2026-04-29T09:39:15.81Z</time></trkpt><trkpt lat="44.541885" lon="9.501487"><ele>1481.0</ele><time>2026-04-29T09:39:16.813Z</time></trkpt><trkpt lat="44.5418136" lon="9.5016103"><ele>1480.0</ele><time>2026-04-29T09:39:17.815Z</time></trkpt><trkpt lat="44.5417503" lon="9.5017212"><ele>1479.0</ele><time>2026-04-29T09:39:18.814Z</time></trkpt><trkpt lat="44.5416773" lon="9.5018302"><ele>1478.0</ele><time>2026-04-29T09:39:19.813Z</time></trkpt><trkpt lat="44.5415879" lon="9.5019137"><ele>1478.0</ele><time>2026-04-29T09:39:20.813Z</time></trkpt><trkpt lat="44.5414846" lon="9.5019519"><ele>1478.0</ele><time>2026-04-29T09:39:21.813Z</time></trkpt><trkpt lat="44.5413693" lon="9.5019552"><ele>1478.0</ele><time>2026-04-29T09:39:22.812Z</time></trkpt><trkpt lat="44.5412541" lon="9.5019189"><ele>1478.0</ele><time>2026-04-29T09:39:23.816Z</time></trkpt><trkpt lat="44.5411322" lon="9.501875"><ele>1478.5</ele><time>2026-04-29T09:39:24.815Z</time></trkpt><trkpt lat="44.5410133" lon="9.5018367"><ele>1479.0</ele><time>2026-04-29T09:39:25.814Z</time></trkpt><trkpt lat="44.5408988" lon="9.5018033"><ele>1479.5</ele><time>2026-04-29T09:39:26.811Z</time></trkpt><trkpt lat="44.5407799" lon="9.5017819"><ele>1480.0</ele><time>2026-04-29T09:39:27.813Z</time></trkpt><trkpt lat="44.5406553" lon="9.5017722"><ele>1480.0</ele><time>2026-04-29T09:39:28.813Z</time></trkpt><trkpt lat="44.5405306" lon="9.5017689"><ele>1480.0</ele><time>2026-04-29T09:39:29.815Z</time></trkpt><trkpt lat="44.5404086" lon="9.5017587"><ele>1480.0</ele><time>2026-04-29T09:39:30.815Z</time></trkpt><trkpt lat="44.5402928" lon="9.5017381"><ele>1480.0</ele><time>2026-04-29T09:39:31.815Z</time></trkpt><trkpt lat="44.5401908" lon="9.5017054"><ele>1479.0</ele><time>2026-04-29T09:39:32.814Z</time></trkpt><trkpt lat="44.5401016" lon="9.501668"><ele>1478.0</ele><time>2026-04-29T09:39:33.813Z</time></trkpt><trkpt lat="44.5400195" lon="9.5016189"><ele>1477.0</ele><time>2026-04-29T09:39:34.812Z</time></trkpt><trkpt lat="44.5399347" lon="9.5015621"><ele>1476.0</ele><time>2026-04-29T09:39:35.813Z</time></trkpt><trkpt lat="44.5398599" lon="9.5015127"><ele>1475.0</ele><time>2026-04-29T09:39:36.815Z</time></trkpt><trkpt lat="44.539796" lon="9.501478"><ele>1474.0</ele><time>2026-04-29T09:39:37.814Z</time></trkpt><trkpt lat="44.539695" lon="9.5014496"><ele>1474.0</ele><time>2026-04-29T09:39:39.814Z</time></trkpt><trkpt lat="44.5396277" lon="9.5014413"><ele>1474.0</ele><time>2026-04-29T09:39:41.813Z</time></trkpt><trkpt lat="44.5395587" lon="9.5014395"><ele>1474.0</ele><time>2026-04-29T09:39:44.813Z</time></trkpt><trkpt lat="44.5394785" lon="9.5014753"><ele>1474.0</ele><time>2026-04-29T09:40:02.816Z</time></trkpt><trkpt lat="44.5393777" lon="9.501566"><ele>1474.0</ele><time>2026-04-29T09:40:04.814Z</time></trkpt><trkpt lat="44.5393019" lon="9.5016186"><ele>1474.0</ele><time>2026-04-29T09:40:05.813Z</time></trkpt><trkpt lat="44.5392005" lon="9.501665"><ele>1471.25</ele><time>2026-04-29T09:40:06.815Z</time></trkpt><trkpt lat="44.5390857" lon="9.5017041"><ele>1468.5</ele><time>2026-04-29T09:40:07.815Z</time></trkpt><trkpt lat="44.5389575" lon="9.5017356"><ele>1465.75</ele><time>2026-04-29T09:40:08.812Z</time></trkpt><trkpt lat="44.5388183" lon="9.5017632"><ele>1463.0</ele><time>2026-04-29T09:40:09.814Z</time></trkpt><trkpt lat="44.5386772" lon="9.5017935"><ele>1462.0</ele><time>2026-04-29T09:40:10.814Z</time></trkpt><trkpt lat="44.5385395" lon="9.5018278"><ele>1461.0</ele><time>2026-04-29T09:40:11.813Z</time></trkpt><trkpt lat="44.5384048" lon="9.5018591"><ele>1460.0</ele><time>2026-04-29T09:40:12.813Z</time></trkpt><trkpt lat="44.5382713" lon="9.5018921"><ele>1459.0</ele><time>2026-04-29T09:40:13.813Z</time></trkpt><trkpt lat="44.5381391" lon="9.5019229"><ele>1459.0</ele><time>2026-04-29T09:40:14.814Z</time></trkpt><trkpt lat="44.5379989" lon="9.5019536"><ele>1459.0</ele><time>2026-04-29T09:40:15.815Z</time></trkpt><trkpt lat="44.5378559" lon="9.5019852"><ele>1459.0</ele><time>2026-04-29T09:40:16.814Z</time></trkpt><trkpt lat="44.5377151" lon="9.5020172"><ele>1459.0</ele><time>2026-04-29T09:40:17.813Z</time></trkpt><trkpt lat="44.537578" lon="9.5020507"><ele>1453.5</ele><time>2026-04-29T09:40:18.813Z</time></trkpt><trkpt lat="44.5374407" lon="9.5020855"><ele>1448.0</ele><time>2026-04-29T09:40:19.816Z</time></trkpt><trkpt lat="44.5373087" lon="9.5021218"><ele>1442.5</ele><time>2026-04-29T09:40:20.812Z</time></trkpt><trkpt lat="44.5371795" lon="9.5021586"><ele>1437.0</ele><time>2026-04-29T09:40:21.813Z</time></trkpt><trkpt lat="44.5370517" lon="9.5021969"><ele>1437.0</ele><time>2026-04-29T09:40:22.814Z</time></trkpt><trkpt lat="44.5369275" lon="9.5022325"><ele>1437.0</ele><time>2026-04-29T09:40:23.813Z</time></trkpt><trkpt lat="44.5368028" lon="9.5022691"><ele>1437.0</ele><time>2026-04-29T09:40:24.813Z</time></trkpt><trkpt lat="44.5366703" lon="9.502315"><ele>1437.0</ele><time>2026-04-29T09:40:25.813Z</time></trkpt><trkpt lat="44.5365351" lon="9.5023792"><ele>1437.0</ele><time>2026-04-29T09:40:26.813Z</time></trkpt><trkpt lat="44.536395" lon="9.5024582"><ele>1437.0</ele><time>2026-04-29T09:40:27.816Z</time></trkpt><trkpt lat="44.5362511" lon="9.5025499"><ele>1437.0</ele><time>2026-04-29T09:40:28.813Z</time></trkpt><trkpt lat="44.5361027" lon="9.5026446"><ele>1440.3333333333333</ele><time>2026-04-29T09:40:29.814Z</time></trkpt><trkpt lat="44.5359492" lon="9.5027426"><ele>1443.6666666666665</ele><time>2026-04-29T09:40:30.813Z</time></trkpt><trkpt lat="44.5357928" lon="9.5028492"><ele>1447.0</ele><time>2026-04-29T09:40:31.813Z</time></trkpt><trkpt lat="44.5356363" lon="9.5029532"><ele>1440.3333333333333</ele><time>2026-04-29T09:40:32.812Z</time></trkpt><trkpt lat="44.5354852" lon="9.503057"><ele>1433.6666666666667</ele><time>2026-04-29T09:40:33.813Z</time></trkpt><trkpt lat="44.5353372" lon="9.503158"><ele>1427.0</ele><time>2026-04-29T09:40:34.815Z</time></trkpt><trkpt lat="44.5351934" lon="9.5032598"><ele>1427.0</ele><time>2026-04-29T09:40:35.814Z</time></trkpt><trkpt lat="44.5350514" lon="9.5033583"><ele>1427.0</ele><time>2026-04-29T09:40:36.815Z</time></trkpt><trkpt lat="44.5349104" lon="9.5034522"><ele>1427.0</ele><time>2026-04-29T09:40:37.811Z</time></trkpt><trkpt lat="44.534772" lon="9.5035469"><ele>1427.0</ele><time>2026-04-29T09:40:38.813Z</time></trkpt><trkpt lat="44.5346431" lon="9.5036562"><ele>1427.0</ele><time>2026-04-29T09:40:39.813Z</time></trkpt><trkpt lat="44.5345352" lon="9.5037863"><ele>1427.0</ele><time>2026-04-29T09:40:40.814Z</time></trkpt><trkpt lat="44.5344497" lon="9.5039415"><ele>1427.0</ele><time>2026-04-29T09:40:41.814Z</time></trkpt><trkpt lat="44.5343856" lon="9.5041151"><ele>1429.0</ele><time>2026-04-29T09:40:42.815Z</time></trkpt><trkpt lat="44.5343339" lon="9.5043012"><ele>1431.0</ele><time>2026-04-29T09:40:43.814Z</time></trkpt><trkpt lat="44.5342799" lon="9.5044994"><ele>1433.0</ele><time>2026-04-29T09:40:44.813Z</time></trkpt><trkpt lat="44.5342167" lon="9.5047036"><ele>1427.0</ele><time>2026-04-29T09:40:45.814Z</time></trkpt><trkpt lat="44.5341468" lon="9.5049207"><ele>1421.0</ele><time>2026-04-29T09:40:46.813Z</time></trkpt><trkpt lat="44.5340748" lon="9.5051313"><ele>1415.0</ele><time>2026-04-29T09:40:47.816Z</time></trkpt><trkpt lat="44.5339994" lon="9.5053373"><ele>1409.3333333333335</ele><time>2026-04-29T09:40:48.815Z</time></trkpt><trkpt lat="44.533925" lon="9.5055496"><ele>1403.6666666666667</ele><time>2026-04-29T09:40:49.814Z</time></trkpt><trkpt lat="44.5338588" lon="9.5057574"><ele>1398.0</ele><time>2026-04-29T09:40:50.812Z</time></trkpt><trkpt lat="44.5337941" lon="9.5059644"><ele>1398.0</ele><time>2026-04-29T09:40:51.812Z</time></trkpt><trkpt lat="44.533729" lon="9.5061666"><ele>1398.0</ele><time>2026-04-29T09:40:52.814Z</time></trkpt><trkpt lat="44.5336671" lon="9.50636"><ele>1398.0</ele><time>2026-04-29T09:40:53.812Z</time></trkpt><trkpt lat="44.5335985" lon="9.5065362"><ele>1401.5</ele><time>2026-04-29T09:40:54.815Z</time></trkpt><trkpt lat="44.5335097" lon="9.5066925"><ele>1405.0</ele><time>2026-04-29T09:40:55.815Z</time></trkpt><trkpt lat="44.5333984" lon="9.5068248"><ele>1408.5</ele><time>2026-04-29T09:40:56.813Z</time></trkpt><trkpt lat="44.533266" lon="9.5069382"><ele>1412.0</ele><time>2026-04-29T09:40:57.811Z</time></trkpt><trkpt lat="44.5331209" lon="9.5070415"><ele>1407.0</ele><time>2026-04-29T09:40:58.814Z</time></trkpt><trkpt lat="44.5329683" lon="9.5071493"><ele>1402.0</ele><time>2026-04-29T09:40:59.813Z</time></trkpt><trkpt lat="44.5328216" lon="9.5072631"><ele>1397.0</ele><time>2026-04-29T09:41:00.812Z</time></trkpt><trkpt lat="44.5326862" lon="9.5073716"><ele>1397.0</ele><time>2026-04-29T09:41:01.814Z</time></trkpt><trkpt lat="44.5325607" lon="9.507466"><ele>1397.0</ele><time>2026-04-29T09:41:02.813Z</time></trkpt><trkpt lat="44.532447" lon="9.5075505"><ele>1397.0</ele><time>2026-04-29T09:41:03.814Z</time></trkpt><trkpt lat="44.5323474" lon="9.507636"><ele>1397.0</ele><time>2026-04-29T09:41:04.812Z</time></trkpt><trkpt lat="44.5322746" lon="9.5077483"><ele>1397.0</ele><time>2026-04-29T09:41:05.811Z</time></trkpt><trkpt lat="44.5322444" lon="9.5078902"><ele>1397.0</ele><time>2026-04-29T09:41:06.812Z</time></trkpt><trkpt lat="44.5322565" lon="9.5080268"><ele>1397.0</ele><time>2026-04-29T09:41:07.814Z</time></trkpt><trkpt lat="44.5323124" lon="9.5081392"><ele>1397.0</ele><time>2026-04-29T09:41:08.814Z</time></trkpt><trkpt lat="44.5323989" lon="9.5082156"><ele>1397.0</ele><time>2026-04-29T09:41:09.812Z</time></trkpt><trkpt lat="44.5325065" lon="9.5082307"><ele>1396.25</ele><time>2026-04-29T09:41:10.812Z</time></trkpt><trkpt lat="44.5326208" lon="9.5081837"><ele>1395.5</ele><time>2026-04-29T09:41:11.813Z</time></trkpt><trkpt lat="44.5327502" lon="9.508103"><ele>1394.75</ele><time>2026-04-29T09:41:12.814Z</time></trkpt><trkpt lat="44.5329053" lon="9.5080102"><ele>1394.0</ele><time>2026-04-29T09:41:13.811Z</time></trkpt><trkpt lat="44.5330777" lon="9.507906"><ele>1394.0</ele><time>2026-04-29T09:41:14.814Z</time></trkpt><trkpt lat="44.5332447" lon="9.5078013"><ele>1394.0</ele><time>2026-04-29T09:41:15.814Z</time></trkpt><trkpt lat="44.533404" lon="9.5076984"><ele>1394.0</ele><time>2026-04-29T09:41:16.814Z</time></trkpt><trkpt lat="44.5335509" lon="9.5076092"><ele>1394.0</ele><time>2026-04-29T09:41:17.814Z</time></trkpt><trkpt lat="44.5336705" lon="9.5075379"><ele>1394.0</ele><time>2026-04-29T09:41:18.813Z</time></trkpt><trkpt lat="44.5337744" lon="9.5074795"><ele>1394.0</ele><time>2026-04-29T09:41:19.816Z</time></trkpt><trkpt lat="44.5338706" lon="9.5074518"><ele>1394.0</ele><time>2026-04-29T09:41:20.813Z</time></trkpt><trkpt lat="44.5339552" lon="9.5074894"><ele>1394.0</ele><time>2026-04-29T09:41:21.814Z</time></trkpt><trkpt lat="44.5340193" lon="9.5075621"><ele>1390.0</ele><time>2026-04-29T09:41:22.814Z</time></trkpt><trkpt lat="44.5340481" lon="9.5076752"><ele>1386.0</ele><time>2026-04-29T09:41:23.813Z</time></trkpt><trkpt lat="44.5340312" lon="9.5077901"><ele>1382.0</ele><time>2026-04-29T09:41:24.815Z</time></trkpt><trkpt lat="44.5339686" lon="9.507898"><ele>1378.0</ele><time>2026-04-29T09:41:25.815Z</time></trkpt><trkpt lat="44.5338698" lon="9.5079867"><ele>1374.0</ele><time>2026-04-29T09:41:26.814Z</time></trkpt><trkpt lat="44.5337441" lon="9.508078"><ele>1372.3333333333333</ele><time>2026-04-29T09:41:27.813Z</time></trkpt><trkpt lat="44.5336013" lon="9.5081923"><ele>1370.6666666666665</ele><time>2026-04-29T09:41:28.813Z</time></trkpt><trkpt lat="44.5334404" lon="9.5083203"><ele>1369.0</ele><time>2026-04-29T09:41:29.813Z</time></trkpt><trkpt lat="44.5332751" lon="9.5084513"><ele>1369.0</ele><time>2026-04-29T09:41:30.812Z</time></trkpt><trkpt lat="44.5331115" lon="9.5085807"><ele>1369.0</ele><time>2026-04-29T09:41:31.814Z</time></trkpt><trkpt lat="44.532941" lon="9.5087146"><ele>1369.0</ele><time>2026-04-29T09:41:32.815Z</time></trkpt><trkpt lat="44.5327679" lon="9.5088471"><ele>1364.6666666666665</ele><time>2026-04-29T09:41:33.815Z</time></trkpt><trkpt lat="44.532603" lon="9.5089661"><ele>1360.3333333333333</ele><time>2026-04-29T09:41:34.813Z</time></trkpt><trkpt lat="44.5324452" lon="9.5090767"><ele>1356.0</ele><time>2026-04-29T09:41:35.813Z</time></trkpt><trkpt lat="44.532292" lon="9.5091983"><ele>1356.0</ele><time>2026-04-29T09:41:36.814Z</time></trkpt><trkpt lat="44.5321489" lon="9.5093381"><ele>1356.0</ele><time>2026-04-29T09:41:37.814Z</time></trkpt><trkpt lat="44.5320035" lon="9.5094925"><ele>1356.0</ele><time>2026-04-29T09:41:38.815Z</time></trkpt><trkpt lat="44.5318715" lon="9.5096352"><ele>1354.25</ele><time>2026-04-29T09:41:39.815Z</time></trkpt><trkpt lat="44.5317525" lon="9.5097659"><ele>1352.5</ele><time>2026-04-29T09:41:40.814Z</time></trkpt><trkpt lat="44.5316395" lon="9.5098914"><ele>1350.75</ele><time>2026-04-29T09:41:41.813Z</time></trkpt><trkpt lat="44.5315285" lon="9.5100186"><ele>1349.0</ele><time>2026-04-29T09:41:42.813Z</time></trkpt><trkpt lat="44.5314194" lon="9.5101409"><ele>1349.0</ele><time>2026-04-29T09:41:43.813Z</time></trkpt><trkpt lat="44.5313118" lon="9.5102641"><ele>1349.0</ele><time>2026-04-29T09:41:44.813Z</time></trkpt><trkpt lat="44.5312005" lon="9.5103746"><ele>1349.0</ele><time>2026-04-29T09:41:45.813Z</time></trkpt><trkpt lat="44.5310836" lon="9.510463"><ele>1349.0</ele><time>2026-04-29T09:41:46.815Z</time></trkpt><trkpt lat="44.5309616" lon="9.5105258"><ele>1346.0</ele><time>2026-04-29T09:41:47.815Z</time></trkpt><trkpt lat="44.5308362" lon="9.5105723"><ele>1343.0</ele><time>2026-04-29T09:41:48.813Z</time></trkpt><trkpt lat="44.5307169" lon="9.5106069"><ele>1340.0</ele><time>2026-04-29T09:41:49.815Z</time></trkpt><trkpt lat="44.5306067" lon="9.5106443"><ele>1337.0</ele><time>2026-04-29T09:41:50.815Z</time></trkpt><trkpt lat="44.5305065" lon="9.5106973"><ele>1337.0</ele><time>2026-04-29T09:41:51.815Z</time></trkpt><trkpt lat="44.5304165" lon="9.510776"><ele>1337.0</ele><time>2026-04-29T09:41:52.813Z</time></trkpt><trkpt lat="44.530333" lon="9.510887"><ele>1337.0</ele><time>2026-04-29T09:41:53.815Z</time></trkpt><trkpt lat="44.5302708" lon="9.5110219"><ele>1337.0</ele><time>2026-04-29T09:41:54.813Z</time></trkpt><trkpt lat="44.5302346" lon="9.5111729"><ele>1337.0</ele><time>2026-04-29T09:41:55.813Z</time></trkpt><trkpt lat="44.5302165" lon="9.5113354"><ele>1338.0</ele><time>2026-04-29T09:41:56.814Z</time></trkpt><trkpt lat="44.5302058" lon="9.5115091"><ele>1339.0</ele><time>2026-04-29T09:41:57.813Z</time></trkpt><trkpt lat="44.5301885" lon="9.5116847"><ele>1340.0</ele><time>2026-04-29T09:41:58.814Z</time></trkpt><trkpt lat="44.5301544" lon="9.5118526"><ele>1341.0</ele><time>2026-04-29T09:41:59.814Z</time></trkpt><trkpt lat="44.5301082" lon="9.5120102"><ele>1338.75</ele><time>2026-04-29T09:42:00.814Z</time></trkpt><trkpt lat="44.53005" lon="9.5121635"><ele>1336.5</ele><time>2026-04-29T09:42:01.813Z</time></trkpt><trkpt lat="44.5299915" lon="9.5123153"><ele>1334.25</ele><time>2026-04-29T09:42:02.814Z</time></trkpt><trkpt lat="44.5299413" lon="9.5124621"><ele>1332.0</ele><time>2026-04-29T09:42:03.812Z</time></trkpt><trkpt lat="44.5299058" lon="9.51262"><ele>1332.0</ele><time>2026-04-29T09:42:04.813Z</time></trkpt><trkpt lat="44.5298978" lon="9.5127848"><ele>1332.0</ele><time>2026-04-29T09:42:05.813Z</time></trkpt><trkpt lat="44.5299085" lon="9.5129447"><ele>1332.0</ele><time>2026-04-29T09:42:06.813Z</time></trkpt><trkpt lat="44.5299457" lon="9.5131137"><ele>1332.0</ele><time>2026-04-29T09:42:07.813Z</time></trkpt><trkpt lat="44.5299951" lon="9.5132872"><ele>1330.25</ele><time>2026-04-29T09:42:08.812Z</time></trkpt><trkpt lat="44.530044" lon="9.5134604"><ele>1328.5</ele><time>2026-04-29T09:42:09.812Z</time></trkpt><trkpt lat="44.530091" lon="9.5136305"><ele>1326.75</ele><time>2026-04-29T09:42:10.814Z</time></trkpt><trkpt lat="44.5301432" lon="9.513809"><ele>1325.0</ele><time>2026-04-29T09:42:11.814Z</time></trkpt><trkpt lat="44.5301966" lon="9.5139901"><ele>1321.75</ele><time>2026-04-29T09:42:12.813Z</time></trkpt><trkpt lat="44.5302463" lon="9.5141663"><ele>1318.5</ele><time>2026-04-29T09:42:13.814Z</time></trkpt><trkpt lat="44.5302993" lon="9.5143396"><ele>1315.25</ele><time>2026-04-29T09:42:14.814Z</time></trkpt><trkpt lat="44.5303513" lon="9.5145255"><ele>1312.0</ele><time>2026-04-29T09:42:15.813Z</time></trkpt><trkpt lat="44.5303914" lon="9.51472"><ele>1310.75</ele><time>2026-04-29T09:42:16.813Z</time></trkpt><trkpt lat="44.5304133" lon="9.514923"><ele>1309.5</ele><time>2026-04-29T09:42:17.819Z</time></trkpt><trkpt lat="44.5304119" lon="9.5151303"><ele>1308.25</ele><time>2026-04-29T09:42:18.814Z</time></trkpt><trkpt lat="44.5303882" lon="9.5153438"><ele>1307.0</ele><time>2026-04-29T09:42:19.814Z</time></trkpt><trkpt lat="44.5303444" lon="9.51557"><ele>1304.6666666666667</ele><time>2026-04-29T09:42:20.813Z</time></trkpt><trkpt lat="44.530285" lon="9.5158141"><ele>1302.3333333333333</ele><time>2026-04-29T09:42:21.812Z</time></trkpt><trkpt lat="44.5302136" lon="9.5160732"><ele>1300.0</ele><time>2026-04-29T09:42:22.814Z</time></trkpt><trkpt lat="44.5301382" lon="9.5163434"><ele>1300.0</ele><time>2026-04-29T09:42:23.814Z</time></trkpt><trkpt lat="44.5300688" lon="9.5166176"><ele>1300.0</ele><time>2026-04-29T09:42:24.814Z</time></trkpt><trkpt lat="44.5300096" lon="9.516844"><ele>1300.0</ele><time>2026-04-29T09:42:25.815Z</time></trkpt><trkpt lat="44.5299588" lon="9.517022"><ele>1300.5</ele><time>2026-04-29T09:42:26.814Z</time></trkpt><trkpt lat="44.5299087" lon="9.5171923"><ele>1301.0</ele><time>2026-04-29T09:42:27.813Z</time></trkpt><trkpt lat="44.5298675" lon="9.5173707"><ele>1301.5</ele><time>2026-04-29T09:42:28.812Z</time></trkpt><trkpt lat="44.5298531" lon="9.5175663"><ele>1302.0</ele><time>2026-04-29T09:42:29.819Z</time></trkpt><trkpt lat="44.5298679" lon="9.517803"><ele>1299.3333333333333</ele><time>2026-04-29T09:42:30.813Z</time></trkpt><trkpt lat="44.5299002" lon="9.5180798"><ele>1296.6666666666665</ele><time>2026-04-29T09:42:31.819Z</time></trkpt><trkpt lat="44.5299333" lon="9.5183932"><ele>1294.0</ele><time>2026-04-29T09:42:32.814Z</time></trkpt><trkpt lat="44.5299627" lon="9.518682"><ele>1289.3333333333333</ele><time>2026-04-29T09:42:33.813Z</time></trkpt><trkpt lat="44.5299958" lon="9.5189647"><ele>1284.6666666666667</ele><time>2026-04-29T09:42:34.812Z</time></trkpt><trkpt lat="44.5300294" lon="9.5192376"><ele>1280.0</ele><time>2026-04-29T09:42:35.811Z</time></trkpt><trkpt lat="44.5300639" lon="9.5195167"><ele>1278.0</ele><time>2026-04-29T09:42:36.815Z</time></trkpt><trkpt lat="44.5301031" lon="9.5198023"><ele>1276.0</ele><time>2026-04-29T09:42:37.815Z</time></trkpt><trkpt lat="44.5301446" lon="9.5200945"><ele>1274.0</ele><time>2026-04-29T09:42:38.812Z</time></trkpt><trkpt lat="44.5301858" lon="9.5203951"><ele>1273.0</ele><time>2026-04-29T09:42:39.812Z</time></trkpt><trkpt lat="44.5302261" lon="9.5206877"><ele>1272.0</ele><time>2026-04-29T09:42:40.812Z</time></trkpt><trkpt lat="44.5302628" lon="9.5209596"><ele>1271.0</ele><time>2026-04-29T09:42:41.814Z</time></trkpt><trkpt lat="44.5302965" lon="9.5212091"><ele>1270.0</ele><time>2026-04-29T09:42:42.815Z</time></trkpt><trkpt lat="44.5303282" lon="9.5214251"><ele>1269.0</ele><time>2026-04-29T09:42:43.814Z</time></trkpt><trkpt lat="44.530355" lon="9.5216095"><ele>1268.0</ele><time>2026-04-29T09:42:44.815Z</time></trkpt><trkpt lat="44.5303761" lon="9.5217724"><ele>1267.0</ele><time>2026-04-29T09:42:45.814Z</time></trkpt><trkpt lat="44.5303677" lon="9.5219212"><ele>1267.0</ele><time>2026-04-29T09:42:46.813Z</time></trkpt><trkpt lat="44.5303223" lon="9.5220469"><ele>1267.0</ele><time>2026-04-29T09:42:47.814Z</time></trkpt><trkpt lat="44.5302551" lon="9.5221422"><ele>1267.0</ele><time>2026-04-29T09:42:48.813Z</time></trkpt><trkpt lat="44.5301544" lon="9.5221365"><ele>1267.0</ele><time>2026-04-29T09:42:49.811Z</time></trkpt><trkpt lat="44.5300615" lon="9.52209"><ele>1267.0</ele><time>2026-04-29T09:42:50.813Z</time></trkpt><trkpt lat="44.5299923" lon="9.5219838"><ele>1267.0</ele><time>2026-04-29T09:42:51.815Z</time></trkpt><trkpt lat="44.5299512" lon="9.5218412"><ele>1267.0</ele><time>2026-04-29T09:42:52.813Z</time></trkpt><trkpt lat="44.5299127" lon="9.5216688"><ele>1267.0</ele><time>2026-04-29T09:42:53.814Z</time></trkpt><trkpt lat="44.5298691" lon="9.5214513"><ele>1267.0</ele><time>2026-04-29T09:42:54.812Z</time></trkpt><trkpt lat="44.5298177" lon="9.5212103"><ele>1268.3333333333333</ele><time>2026-04-29T09:42:55.817Z</time></trkpt><trkpt lat="44.5297582" lon="9.5209277"><ele>1269.6666666666667</ele><time>2026-04-29T09:42:56.814Z</time></trkpt><trkpt lat="44.5297029" lon="9.5206535"><ele>1271.0</ele><time>2026-04-29T09:42:57.814Z</time></trkpt><trkpt lat="44.5296481" lon="9.5203893"><ele>1272.0</ele><time>2026-04-29T09:42:58.814Z</time></trkpt><trkpt lat="44.5295826" lon="9.5201394"><ele>1273.0</ele><time>2026-04-29T09:42:59.814Z</time></trkpt><trkpt lat="44.5294933" lon="9.5199029"><ele>1274.0</ele><time>2026-04-29T09:43:00.812Z</time></trkpt><trkpt lat="44.5293864" lon="9.5196832"><ele>1268.0</ele><time>2026-04-29T09:43:01.813Z</time></trkpt><trkpt lat="44.5292837" lon="9.5194727"><ele>1262.0</ele><time>2026-04-29T09:43:02.815Z</time></trkpt><trkpt lat="44.5291983" lon="9.5192427"><ele>1256.0</ele><time>2026-04-29T09:43:03.814Z</time></trkpt><trkpt lat="44.5291266" lon="9.5189866"><ele>1259.6666666666667</ele><time>2026-04-29T09:43:04.814Z</time></trkpt><trkpt lat="44.5290662" lon="9.518734"><ele>1263.3333333333333</ele><time>2026-04-29T09:43:05.813Z</time></trkpt><trkpt lat="44.5290137" lon="9.5184948"><ele>1267.0</ele><time>2026-04-29T09:43:06.815Z</time></trkpt><trkpt lat="44.5289711" lon="9.5182667"><ele>1267.0</ele><time>2026-04-29T09:43:07.812Z</time></trkpt><trkpt lat="44.5289502" lon="9.5180318"><ele>1267.0</ele><time>2026-04-29T09:43:08.814Z</time></trkpt><trkpt lat="44.528949" lon="9.5177835"><ele>1267.0</ele><time>2026-04-29T09:43:09.812Z</time></trkpt><trkpt lat="44.5289614" lon="9.5175221"><ele>1267.0</ele><time>2026-04-29T09:43:10.813Z</time></trkpt><trkpt lat="44.528978" lon="9.5172711"><ele>1267.0</ele><time>2026-04-29T09:43:11.813Z</time></trkpt><trkpt lat="44.5289944" lon="9.5170299"><ele>1267.0</ele><time>2026-04-29T09:43:12.813Z</time></trkpt><trkpt lat="44.5290085" lon="9.5168093"><ele>1267.25</ele><time>2026-04-29T09:43:13.814Z</time></trkpt><trkpt lat="44.5290206" lon="9.516615"><ele>1267.5</ele><time>2026-04-29T09:43:14.815Z</time></trkpt><trkpt lat="44.5290362" lon="9.5164375"><ele>1267.75</ele><time>2026-04-29T09:43:15.815Z</time></trkpt><trkpt lat="44.5290531" lon="9.5162796"><ele>1268.0</ele><time>2026-04-29T09:43:16.815Z</time></trkpt><trkpt lat="44.5290454" lon="9.5161427"><ele>1268.0</ele><time>2026-04-29T09:43:17.812Z</time></trkpt><trkpt lat="44.5290027" lon="9.5160195"><ele>1268.0</ele><time>2026-04-29T09:43:18.813Z</time></trkpt><trkpt lat="44.5289238" lon="9.5159299"><ele>1268.0</ele><time>2026-04-29T09:43:19.812Z</time></trkpt><trkpt lat="44.5288256" lon="9.5159023"><ele>1268.0</ele><time>2026-04-29T09:43:20.812Z</time></trkpt><trkpt lat="44.5287339" lon="9.5159496"><ele>1268.0</ele><time>2026-04-29T09:43:21.812Z</time></trkpt><trkpt lat="44.5286628" lon="9.5160581"><ele>1265.0</ele><time>2026-04-29T09:43:22.813Z</time></trkpt><trkpt lat="44.528632" lon="9.5162164"><ele>1262.0</ele><time>2026-04-29T09:43:23.812Z</time></trkpt><trkpt lat="44.5286207" lon="9.5164258"><ele>1259.0</ele><time>2026-04-29T09:43:24.813Z</time></trkpt><trkpt lat="44.5286118" lon="9.5166742"><ele>1256.0</ele><time>2026-04-29T09:43:25.813Z</time></trkpt><trkpt lat="44.5285949" lon="9.5169559"><ele>1249.0</ele><time>2026-04-29T09:43:26.811Z</time></trkpt><trkpt lat="44.5285797" lon="9.517238"><ele>1242.0</ele><time>2026-04-29T09:43:27.811Z</time></trkpt><trkpt lat="44.5285658" lon="9.517535"><ele>1235.0</ele><time>2026-04-29T09:43:28.813Z</time></trkpt><trkpt lat="44.5285545" lon="9.5178398"><ele>1232.0</ele><time>2026-04-29T09:43:29.813Z</time></trkpt><trkpt lat="44.5285404" lon="9.5181291"><ele>1229.0</ele><time>2026-04-29T09:43:30.814Z</time></trkpt><trkpt lat="44.5285264" lon="9.5184102"><ele>1226.0</ele><time>2026-04-29T09:43:31.814Z</time></trkpt><trkpt lat="44.5285129" lon="9.5186666"><ele>1223.0</ele><time>2026-04-29T09:43:32.813Z</time></trkpt><trkpt lat="44.5284989" lon="9.5189165"><ele>1220.0</ele><time>2026-04-29T09:43:33.813Z</time></trkpt><trkpt lat="44.5284885" lon="9.5191474"><ele>1217.0</ele><time>2026-04-29T09:43:34.818Z</time></trkpt><trkpt lat="44.5284903" lon="9.5193615"><ele>1213.6666666666667</ele><time>2026-04-29T09:43:35.815Z</time></trkpt><trkpt lat="44.5285223" lon="9.519571"><ele>1210.3333333333333</ele><time>2026-04-29T09:43:36.816Z</time></trkpt><trkpt lat="44.5285847" lon="9.5197712"><ele>1207.0</ele><time>2026-04-29T09:43:37.815Z</time></trkpt><trkpt lat="44.5286573" lon="9.5199526"><ele>1207.0</ele><time>2026-04-29T09:43:38.819Z</time></trkpt><trkpt lat="44.5287214" lon="9.5201365"><ele>1207.0</ele><time>2026-04-29T09:43:39.812Z</time></trkpt><trkpt lat="44.5287608" lon="9.5203477"><ele>1207.0</ele><time>2026-04-29T09:43:40.813Z</time></trkpt><trkpt lat="44.5287708" lon="9.5205742"><ele>1205.0</ele><time>2026-04-29T09:43:41.813Z</time></trkpt><trkpt lat="44.5287444" lon="9.5208149"><ele>1203.0</ele><time>2026-04-29T09:43:42.814Z</time></trkpt><trkpt lat="44.5286986" lon="9.5210479"><ele>1201.0</ele><time>2026-04-29T09:43:43.815Z</time></trkpt><trkpt lat="44.528658" lon="9.5212595"><ele>1199.0</ele><time>2026-04-29T09:43:44.814Z</time></trkpt><trkpt lat="44.528646" lon="9.5214693"><ele>1197.0</ele><time>2026-04-29T09:43:45.814Z</time></trkpt><trkpt lat="44.5286794" lon="9.5216713"><ele>1195.0</ele><time>2026-04-29T09:43:46.813Z</time></trkpt><trkpt lat="44.5287445" lon="9.5218487"><ele>1193.0</ele><time>2026-04-29T09:43:47.813Z</time></trkpt><trkpt lat="44.5288121" lon="9.5220182"><ele>1203.0</ele><time>2026-04-29T09:43:48.813Z</time></trkpt><trkpt lat="44.5288605" lon="9.5222159"><ele>1213.0</ele><time>2026-04-29T09:43:49.815Z</time></trkpt><trkpt lat="44.5288796" lon="9.5224367"><ele>1223.0</ele><time>2026-04-29T09:43:50.814Z</time></trkpt><trkpt lat="44.5288584" lon="9.5226751"><ele>1223.6666666666667</ele><time>2026-04-29T09:43:51.812Z</time></trkpt><trkpt lat="44.5288052" lon="9.5229203"><ele>1224.3333333333333</ele><time>2026-04-29T09:43:52.812Z</time></trkpt><trkpt lat="44.5287443" lon="9.523159"><ele>1225.0</ele><time>2026-04-29T09:43:53.813Z</time></trkpt><trkpt lat="44.5286994" lon="9.5234059"><ele>1210.6666666666665</ele><time>2026-04-29T09:43:54.813Z</time></trkpt><trkpt lat="44.5286785" lon="9.5236535"><ele>1196.3333333333333</ele><time>2026-04-29T09:43:55.817Z</time></trkpt><trkpt lat="44.528679" lon="9.5239203"><ele>1182.0</ele><time>2026-04-29T09:43:56.814Z</time></trkpt><trkpt lat="44.528693" lon="9.524186"><ele>1180.0</ele><time>2026-04-29T09:43:57.811Z</time></trkpt><trkpt lat="44.5287104" lon="9.5244341"><ele>1178.0</ele><time>2026-04-29T09:43:58.814Z</time></trkpt><trkpt lat="44.5287088" lon="9.5246751"><ele>1176.0</ele><time>2026-04-29T09:43:59.813Z</time></trkpt><trkpt lat="44.5286681" lon="9.524923"><ele>1174.6666666666667</ele><time>2026-04-29T09:44:00.813Z</time></trkpt><trkpt lat="44.5285995" lon="9.5251659"><ele>1173.3333333333335</ele><time>2026-04-29T09:44:01.815Z</time></trkpt><trkpt lat="44.5285161" lon="9.5254235"><ele>1172.0</ele><time>2026-04-29T09:44:02.813Z</time></trkpt><trkpt lat="44.5284292" lon="9.5256875"><ele>1175.6666666666667</ele><time>2026-04-29T09:44:03.813Z</time></trkpt><trkpt lat="44.5283505" lon="9.5259393"><ele>1179.3333333333333</ele><time>2026-04-29T09:44:04.812Z</time></trkpt><trkpt lat="44.5282728" lon="9.5261854"><ele>1183.0</ele><time>2026-04-29T09:44:05.814Z</time></trkpt><trkpt lat="44.528196" lon="9.5264327"><ele>1183.6666666666665</ele><time>2026-04-29T09:44:06.811Z</time></trkpt><trkpt lat="44.5281166" lon="9.5266819"><ele>1184.3333333333333</ele><time>2026-04-29T09:44:07.813Z</time></trkpt><trkpt lat="44.5280386" lon="9.5269181"><ele>1185.0</ele><time>2026-04-29T09:44:08.814Z</time></trkpt><trkpt lat="44.5279607" lon="9.5271547"><ele>1173.6666666666667</ele><time>2026-04-29T09:44:09.813Z</time></trkpt><trkpt lat="44.5278842" lon="9.5273885"><ele>1162.3333333333335</ele><time>2026-04-29T09:44:10.814Z</time></trkpt><trkpt lat="44.5278167" lon="9.5276063"><ele>1151.0</ele><time>2026-04-29T09:44:11.814Z</time></trkpt><trkpt lat="44.5277698" lon="9.5278187"><ele>1150.3333333333335</ele><time>2026-04-29T09:44:12.812Z</time></trkpt><trkpt lat="44.5277523" lon="9.5280241"><ele>1149.6666666666667</ele><time>2026-04-29T09:44:13.813Z</time></trkpt><trkpt lat="44.5277683" lon="9.5282304"><ele>1149.0</ele><time>2026-04-29T09:44:14.815Z</time></trkpt><trkpt lat="44.5298705" lon="9.5699795"><ele>1052.5</ele><time>2026-04-29T09:51:08.818Z</time></trkpt><trkpt lat="44.5298657" lon="9.5701866"><ele>956.0</ele><time>2026-04-29T09:51:09.815Z</time></trkpt><trkpt lat="44.5298209" lon="9.5703697"><ele>859.5</ele><time>2026-04-29T09:51:10.813Z</time></trkpt><trkpt lat="44.5297445" lon="9.5705389"><ele>763.0</ele><time>2026-04-29T09:51:11.813Z</time></trkpt><trkpt lat="44.5296653" lon="9.5706951"><ele>762.6666666666667</ele><time>2026-04-29T09:51:12.819Z</time></trkpt><trkpt lat="44.5296104" lon="9.5708546"><ele>762.3333333333334</ele><time>2026-04-29T09:51:13.812Z</time></trkpt><trkpt lat="44.5296178" lon="9.5712143"><ele>762.0</ele><time>2026-04-29T09:51:15.814Z</time></trkpt><trkpt lat="44.5296746" lon="9.571424"><ele>761.0</ele><time>2026-04-29T09:51:16.815Z</time></trkpt><trkpt lat="44.5297493" lon="9.5716597"><ele>760.0</ele><time>2026-04-29T09:51:17.814Z</time></trkpt><trkpt lat="44.5298272" lon="9.5719223"><ele>759.0</ele><time>2026-04-29T09:51:18.813Z</time></trkpt><trkpt lat="44.5299007" lon="9.5722039"><ele>757.6666666666666</ele><time>2026-04-29T09:51:19.817Z</time></trkpt><trkpt lat="44.5299627" lon="9.5724934"><ele>756.3333333333333</ele><time>2026-04-29T09:51:20.813Z</time></trkpt><trkpt lat="44.5300174" lon="9.5727769"><ele>755.0</ele><time>2026-04-29T09:51:21.816Z</time></trkpt><trkpt lat="44.5300728" lon="9.5730266"><ele>752.75</ele><time>2026-04-29T09:51:22.813Z</time></trkpt><trkpt lat="44.5301326" lon="9.5732372"><ele>750.5</ele><time>2026-04-29T09:51:23.813Z</time></trkpt><trkpt lat="44.530203" lon="9.5734099"><ele>748.25</ele><time>2026-04-29T09:51:24.815Z</time></trkpt><trkpt lat="44.5302858" lon="9.5735248"><ele>746.0</ele><time>2026-04-29T09:51:25.812Z</time></trkpt><trkpt lat="44.5303896" lon="9.5735926"><ele>745.3333333333333</ele><time>2026-04-29T09:51:26.814Z</time></trkpt><trkpt lat="44.5305217" lon="9.5736458"><ele>744.6666666666666</ele><time>2026-04-29T09:51:27.812Z</time></trkpt><trkpt lat="44.5306734" lon="9.5737079"><ele>744.0</ele><time>2026-04-29T09:51:28.813Z</time></trkpt><trkpt lat="44.5308343" lon="9.5737933"><ele>744.0</ele><time>2026-04-29T09:51:29.812Z</time></trkpt><trkpt lat="44.5309915" lon="9.5739005"><ele>744.0</ele><time>2026-04-29T09:51:30.814Z</time></trkpt><trkpt lat="44.5311469" lon="9.574042"><ele>744.0</ele><time>2026-04-29T09:51:31.812Z</time></trkpt><trkpt lat="44.5312944" lon="9.5742183"><ele>745.6666666666666</ele><time>2026-04-29T09:51:32.812Z</time></trkpt><trkpt lat="44.5314246" lon="9.5744108"><ele>747.3333333333333</ele><time>2026-04-29T09:51:33.815Z</time></trkpt><trkpt lat="44.5315472" lon="9.5746392"><ele>749.0</ele><time>2026-04-29T09:51:34.814Z</time></trkpt><trkpt lat="44.5317872" lon="9.5751396"><ele>746.6666666666666</ele><time>2026-04-29T09:51:36.814Z</time></trkpt><trkpt lat="44.5318922" lon="9.5753743"><ele>744.3333333333334</ele><time>2026-04-29T09:51:37.813Z</time></trkpt><trkpt lat="44.5319701" lon="9.5756132"><ele>742.0</ele><time>2026-04-29T09:51:38.813Z</time></trkpt><trkpt lat="44.5320263" lon="9.5758437"><ele>742.0</ele><time>2026-04-29T09:51:39.812Z</time></trkpt><trkpt lat="44.532057" lon="9.5760533"><ele>742.0</ele><time>2026-04-29T09:51:40.815Z</time></trkpt><trkpt lat="44.5320661" lon="9.5762495"><ele>742.0</ele><time>2026-04-29T09:51:41.815Z</time></trkpt><trkpt lat="44.5320456" lon="9.5764455"><ele>742.0</ele><time>2026-04-29T09:51:42.813Z</time></trkpt><trkpt lat="44.5319857" lon="9.5766379"><ele>742.0</ele><time>2026-04-29T09:51:43.812Z</time></trkpt><trkpt lat="44.5318971" lon="9.5768212"><ele>742.0</ele><time>2026-04-29T09:51:44.813Z</time></trkpt><trkpt lat="44.5317936" lon="9.5769879"><ele>742.0</ele><time>2026-04-29T09:51:45.813Z</time></trkpt><trkpt lat="44.5316965" lon="9.5771423"><ele>742.25</ele><time>2026-04-29T09:51:46.812Z</time></trkpt><trkpt lat="44.5316194" lon="9.5772951"><ele>742.5</ele><time>2026-04-29T09:51:47.815Z</time></trkpt><trkpt lat="44.5315664" lon="9.5774535"><ele>742.75</ele><time>2026-04-29T09:51:48.815Z</time></trkpt><trkpt lat="44.5315458" lon="9.5776229"><ele>743.0</ele><time>2026-04-29T09:51:49.814Z</time></trkpt><trkpt lat="44.5315572" lon="9.5778164"><ele>742.6666666666666</ele><time>2026-04-29T09:51:50.813Z</time></trkpt><trkpt lat="44.5315891" lon="9.5780238"><ele>742.3333333333334</ele><time>2026-04-29T09:51:51.811Z</time></trkpt><trkpt lat="44.531641" lon="9.5782291"><ele>742.0</ele><time>2026-04-29T09:51:52.812Z</time></trkpt><trkpt lat="44.5317078" lon="9.5784101"><ele>742.0</ele><time>2026-04-29T09:51:53.814Z</time></trkpt><trkpt lat="44.5317973" lon="9.5785683"><ele>742.0</ele><time>2026-04-29T09:51:54.815Z</time></trkpt><trkpt lat="44.5319202" lon="9.5786956"><ele>742.0</ele><time>2026-04-29T09:51:55.815Z</time></trkpt><trkpt lat="44.5322308" lon="9.5789478"><ele>743.3333333333334</ele><time>2026-04-29T09:51:57.813Z</time></trkpt><trkpt lat="44.5324096" lon="9.5791049"><ele>744.6666666666666</ele><time>2026-04-29T09:51:58.813Z</time></trkpt><trkpt lat="44.5325773" lon="9.5792632"><ele>746.0</ele><time>2026-04-29T09:51:59.814Z</time></trkpt><trkpt lat="44.5327396" lon="9.5794082"><ele>744.6666666666666</ele><time>2026-04-29T09:52:00.818Z</time></trkpt><trkpt lat="44.5329029" lon="9.5795494"><ele>743.3333333333334</ele><time>2026-04-29T09:52:01.813Z</time></trkpt><trkpt lat="44.5330537" lon="9.5797149"><ele>742.0</ele><time>2026-04-29T09:52:02.813Z</time></trkpt><trkpt lat="44.5331928" lon="9.5799126"><ele>742.0</ele><time>2026-04-29T09:52:03.814Z</time></trkpt><trkpt lat="44.5333263" lon="9.580118"><ele>742.0</ele><time>2026-04-29T09:52:04.813Z</time></trkpt><trkpt lat="44.5334465" lon="9.5802976"><ele>742.0</ele><time>2026-04-29T09:52:05.813Z</time></trkpt><trkpt lat="44.533552" lon="9.5804555"><ele>739.0</ele><time>2026-04-29T09:52:06.813Z</time></trkpt><trkpt lat="44.5336312" lon="9.5806074"><ele>736.0</ele><time>2026-04-29T09:52:07.814Z</time></trkpt><trkpt lat="44.5336784" lon="9.5807645"><ele>733.0</ele><time>2026-04-29T09:52:08.815Z</time></trkpt><trkpt lat="44.5336891" lon="9.5809163"><ele>730.0</ele><time>2026-04-29T09:52:09.815Z</time></trkpt><trkpt lat="44.5336796" lon="9.5810906"><ele>730.0</ele><time>2026-04-29T09:52:10.813Z</time></trkpt><trkpt lat="44.5336633" lon="9.581324"><ele>730.0</ele><time>2026-04-29T09:52:11.814Z</time></trkpt><trkpt lat="44.5336641" lon="9.5815647"><ele>730.0</ele><time>2026-04-29T09:52:12.817Z</time></trkpt><trkpt lat="44.5336605" lon="9.5818015"><ele>730.0</ele><time>2026-04-29T09:52:13.813Z</time></trkpt><trkpt lat="44.5336486" lon="9.5820457"><ele>730.0</ele><time>2026-04-29T09:52:14.813Z</time></trkpt><trkpt lat="44.5336245" lon="9.5822904"><ele>730.0</ele><time>2026-04-29T09:52:15.812Z</time></trkpt><trkpt lat="44.5335861" lon="9.5825265"><ele>729.6666666666667</ele><time>2026-04-29T09:52:16.813Z</time></trkpt><trkpt lat="44.5335033" lon="9.5829184"><ele>729.3333333333334</ele><time>2026-04-29T09:52:18.813Z</time></trkpt><trkpt lat="44.5335001" lon="9.5831154"><ele>729.0</ele><time>2026-04-29T09:52:19.813Z</time></trkpt><trkpt lat="44.5335283" lon="9.5833268"><ele>729.0</ele><time>2026-04-29T09:52:20.813Z</time></trkpt><trkpt lat="44.5335824" lon="9.5835486"><ele>729.0</ele><time>2026-04-29T09:52:21.813Z</time></trkpt><trkpt lat="44.5336562" lon="9.5837781"><ele>729.0</ele><time>2026-04-29T09:52:22.812Z</time></trkpt><trkpt lat="44.5337484" lon="9.5840126"><ele>730.0</ele><time>2026-04-29T09:52:23.812Z</time></trkpt><trkpt lat="44.5338435" lon="9.5842506"><ele>731.0</ele><time>2026-04-29T09:52:24.811Z</time></trkpt><trkpt lat="44.5339265" lon="9.5844837"><ele>732.0</ele><time>2026-04-29T09:52:25.814Z</time></trkpt><trkpt lat="44.5339932" lon="9.5847313"><ele>732.0</ele><time>2026-04-29T09:52:26.812Z</time></trkpt><trkpt lat="44.5340427" lon="9.58499"><ele>732.0</ele><time>2026-04-29T09:52:27.814Z</time></trkpt><trkpt lat="44.5340884" lon="9.5852565"><ele>732.0</ele><time>2026-04-29T09:52:28.817Z</time></trkpt><trkpt lat="44.5341288" lon="9.585522"><ele>731.3333333333334</ele><time>2026-04-29T09:52:29.815Z</time></trkpt><trkpt lat="44.5341601" lon="9.5857747"><ele>730.6666666666667</ele><time>2026-04-29T09:52:30.812Z</time></trkpt><trkpt lat="44.5341862" lon="9.5860172"><ele>730.0</ele><time>2026-04-29T09:52:31.816Z</time></trkpt><trkpt lat="44.5342245" lon="9.5862448"><ele>729.6666666666667</ele><time>2026-04-29T09:52:32.814Z</time></trkpt><trkpt lat="44.5342877" lon="9.586465"><ele>729.3333333333334</ele><time>2026-04-29T09:52:33.813Z</time></trkpt><trkpt lat="44.5343654" lon="9.5866883"><ele>729.0</ele><time>2026-04-29T09:52:34.813Z</time></trkpt><trkpt lat="44.5344514" lon="9.5869218"><ele>729.3333333333334</ele><time>2026-04-29T09:52:35.813Z</time></trkpt><trkpt lat="44.5345384" lon="9.5871624"><ele>729.6666666666667</ele><time>2026-04-29T09:52:36.813Z</time></trkpt><trkpt lat="44.5346194" lon="9.5874188"><ele>730.0</ele><time>2026-04-29T09:52:37.816Z</time></trkpt><trkpt lat="44.534754" lon="9.5879828"><ele>730.0</ele><time>2026-04-29T09:52:39.814Z</time></trkpt><trkpt lat="44.5348153" lon="9.5882862"><ele>730.0</ele><time>2026-04-29T09:52:40.813Z</time></trkpt><trkpt lat="44.5348674" lon="9.5885694"><ele>730.0</ele><time>2026-04-29T09:52:41.812Z</time></trkpt><trkpt lat="44.5349127" lon="9.5888525"><ele>728.6666666666667</ele><time>2026-04-29T09:52:42.812Z</time></trkpt><trkpt lat="44.534955" lon="9.5891475"><ele>727.3333333333334</ele><time>2026-04-29T09:52:43.814Z</time></trkpt><trkpt lat="44.5350062" lon="9.5894466"><ele>726.0</ele><time>2026-04-29T09:52:44.819Z</time></trkpt><trkpt lat="44.5350663" lon="9.5897488"><ele>725.0</ele><time>2026-04-29T09:52:45.813Z</time></trkpt><trkpt lat="44.5351303" lon="9.5900568"><ele>724.0</ele><time>2026-04-29T09:52:46.814Z</time></trkpt><trkpt lat="44.5351965" lon="9.5903713"><ele>724.0</ele><time>2026-04-29T09:52:47.813Z</time></trkpt><trkpt lat="44.5352657" lon="9.5906906"><ele>724.0</ele><time>2026-04-29T09:52:48.813Z</time></trkpt><trkpt lat="44.5353351" lon="9.591011"><ele>728.0</ele><time>2026-04-29T09:52:49.813Z</time></trkpt><trkpt lat="44.5354033" lon="9.5913193"><ele>732.0</ele><time>2026-04-29T09:52:50.812Z</time></trkpt><trkpt lat="44.5354698" lon="9.5916196"><ele>732.0</ele><time>2026-04-29T09:52:51.815Z</time></trkpt><trkpt lat="44.5355317" lon="9.5919098"><ele>732.0</ele><time>2026-04-29T09:52:52.816Z</time></trkpt><trkpt lat="44.5355915" lon="9.5921902"><ele>732.0</ele><time>2026-04-29T09:52:53.813Z</time></trkpt><trkpt lat="44.5356466" lon="9.5924608"><ele>731.3333333333334</ele><time>2026-04-29T09:52:54.813Z</time></trkpt><trkpt lat="44.5356978" lon="9.5927222"><ele>730.6666666666667</ele><time>2026-04-29T09:52:55.811Z</time></trkpt><trkpt lat="44.5357471" lon="9.5929759"><ele>730.0</ele><time>2026-04-29T09:52:56.812Z</time></trkpt><trkpt lat="44.5357796" lon="9.5932371"><ele>728.5</ele><time>2026-04-29T09:52:57.813Z</time></trkpt><trkpt lat="44.5357977" lon="9.5935018"><ele>727.0</ele><time>2026-04-29T09:52:58.814Z</time></trkpt><trkpt lat="44.5358425" lon="9.5940352"><ele>725.6666666666667</ele><time>2026-04-29T09:53:00.818Z</time></trkpt><trkpt lat="44.5358895" lon="9.5942993"><ele>724.3333333333334</ele><time>2026-04-29T09:53:01.815Z</time></trkpt><trkpt lat="44.5359333" lon="9.594556"><ele>723.0</ele><time>2026-04-29T09:53:02.811Z</time></trkpt><trkpt lat="44.5359663" lon="9.5947971"><ele>721.75</ele><time>2026-04-29T09:53:03.813Z</time></trkpt><trkpt lat="44.5359893" lon="9.5950148"><ele>720.5</ele><time>2026-04-29T09:53:04.811Z</time></trkpt><trkpt lat="44.5360128" lon="9.5951966"><ele>719.25</ele><time>2026-04-29T09:53:05.813Z</time></trkpt><trkpt lat="44.536058" lon="9.5953451"><ele>718.0</ele><time>2026-04-29T09:53:06.813Z</time></trkpt><trkpt lat="44.536137" lon="9.5954716"><ele>720.0</ele><time>2026-04-29T09:53:07.814Z</time></trkpt><trkpt lat="44.5362461" lon="9.5955784"><ele>722.0</ele><time>2026-04-29T09:53:08.812Z</time></trkpt><trkpt lat="44.5363817" lon="9.5956792"><ele>724.0</ele><time>2026-04-29T09:53:09.813Z</time></trkpt><trkpt lat="44.5365371" lon="9.5957836"><ele>724.0</ele><time>2026-04-29T09:53:10.812Z</time></trkpt><trkpt lat="44.5367095" lon="9.5958993"><ele>724.0</ele><time>2026-04-29T09:53:11.814Z</time></trkpt><trkpt lat="44.5368747" lon="9.5960116"><ele>724.0</ele><time>2026-04-29T09:53:12.813Z</time></trkpt><trkpt lat="44.5370273" lon="9.5961137"><ele>722.5</ele><time>2026-04-29T09:53:13.812Z</time></trkpt><trkpt lat="44.5371687" lon="9.5961981"><ele>721.0</ele><time>2026-04-29T09:53:14.812Z</time></trkpt><trkpt lat="44.5373024" lon="9.5962668"><ele>719.5</ele><time>2026-04-29T09:53:15.813Z</time></trkpt><trkpt lat="44.5374301" lon="9.5963296"><ele>718.0</ele><time>2026-04-29T09:53:16.818Z</time></trkpt><trkpt lat="44.5375567" lon="9.5964164"><ele>718.0</ele><time>2026-04-29T09:53:17.814Z</time></trkpt><trkpt lat="44.5376745" lon="9.5965374"><ele>718.0</ele><time>2026-04-29T09:53:18.815Z</time></trkpt><trkpt lat="44.5377838" lon="9.5966843"><ele>718.0</ele><time>2026-04-29T09:53:19.813Z</time></trkpt><trkpt lat="44.5379795" lon="9.5970424"><ele>721.3333333333334</ele><time>2026-04-29T09:53:21.813Z</time></trkpt><trkpt lat="44.5380831" lon="9.5972271"><ele>724.6666666666666</ele><time>2026-04-29T09:53:22.813Z</time></trkpt><trkpt lat="44.5381904" lon="9.5974115"><ele>728.0</ele><time>2026-04-29T09:53:23.814Z</time></trkpt><trkpt lat="44.5382921" lon="9.5976118"><ele>728.0</ele><time>2026-04-29T09:53:24.813Z</time></trkpt><trkpt lat="44.5383851" lon="9.5978216"><ele>728.0</ele><time>2026-04-29T09:53:25.815Z</time></trkpt><trkpt lat="44.5384685" lon="9.5980407"><ele>728.0</ele><time>2026-04-29T09:53:26.813Z</time></trkpt><trkpt lat="44.53854" lon="9.5982695"><ele>724.3333333333333</ele><time>2026-04-29T09:53:27.812Z</time></trkpt><trkpt lat="44.5386042" lon="9.5985039"><ele>720.6666666666666</ele><time>2026-04-29T09:53:28.815Z</time></trkpt><trkpt lat="44.538666" lon="9.5987423"><ele>717.0</ele><time>2026-04-29T09:53:29.816Z</time></trkpt><trkpt lat="44.5387212" lon="9.5989875"><ele>725.0</ele><time>2026-04-29T09:53:30.815Z</time></trkpt><trkpt lat="44.5387698" lon="9.5992391"><ele>733.0</ele><time>2026-04-29T09:53:31.814Z</time></trkpt><trkpt lat="44.5388118" lon="9.5994951"><ele>741.0</ele><time>2026-04-29T09:53:32.818Z</time></trkpt><trkpt lat="44.5388463" lon="9.599761"><ele>741.0</ele><time>2026-04-29T09:53:33.813Z</time></trkpt><trkpt lat="44.5388744" lon="9.6000261"><ele>741.0</ele><time>2026-04-29T09:53:34.813Z</time></trkpt><trkpt lat="44.5389008" lon="9.6002818"><ele>741.0</ele><time>2026-04-29T09:53:35.812Z</time></trkpt><trkpt lat="44.5389239" lon="9.6005241"><ele>738.75</ele><time>2026-04-29T09:53:36.813Z</time></trkpt><trkpt lat="44.5389436" lon="9.6007317"><ele>736.5</ele><time>2026-04-29T09:53:37.815Z</time></trkpt><trkpt lat="44.5389828" lon="9.6009047"><ele>734.25</ele><time>2026-04-29T09:53:38.814Z</time></trkpt><trkpt lat="44.5390594" lon="9.6010644"><ele>732.0</ele><time>2026-04-29T09:53:39.814Z</time></trkpt><trkpt lat="44.5391648" lon="9.6012114"><ele>729.0</ele><time>2026-04-29T09:53:40.811Z</time></trkpt><trkpt lat="44.5394391" lon="9.601531"><ele>726.0</ele><time>2026-04-29T09:53:42.815Z</time></trkpt><trkpt lat="44.5395918" lon="9.6017033"><ele>726.0</ele><time>2026-04-29T09:53:43.814Z</time></trkpt><trkpt lat="44.5397303" lon="9.6018584"><ele>726.0</ele><time>2026-04-29T09:53:44.814Z</time></trkpt><trkpt lat="44.5398585" lon="9.6019977"><ele>726.0</ele><time>2026-04-29T09:53:45.813Z</time></trkpt><trkpt lat="44.5399667" lon="9.6021324"><ele>722.5</ele><time>2026-04-29T09:53:46.812Z</time></trkpt><trkpt lat="44.5400545" lon="9.6022765"><ele>719.0</ele><time>2026-04-29T09:53:47.812Z</time></trkpt><trkpt lat="44.5401173" lon="9.6024339"><ele>715.5</ele><time>2026-04-29T09:53:48.819Z</time></trkpt><trkpt lat="44.5401647" lon="9.6026088"><ele>712.0</ele><time>2026-04-29T09:53:49.814Z</time></trkpt><trkpt lat="44.5401919" lon="9.6027899"><ele>710.5</ele><time>2026-04-29T09:53:50.814Z</time></trkpt><trkpt lat="44.540201" lon="9.6029714"><ele>709.0</ele><time>2026-04-29T09:53:51.812Z</time></trkpt><trkpt lat="44.5402098" lon="9.6031381"><ele>707.5</ele><time>2026-04-29T09:53:52.811Z</time></trkpt><trkpt lat="44.5402188" lon="9.6032933"><ele>706.0</ele><time>2026-04-29T09:53:53.813Z</time></trkpt><trkpt lat="44.5402285" lon="9.6034261"><ele>706.0</ele><time>2026-04-29T09:53:54.812Z</time></trkpt><trkpt lat="44.5402376" lon="9.6035418"><ele>706.0</ele><time>2026-04-29T09:53:55.814Z</time></trkpt><trkpt lat="44.5402459" lon="9.6036466"><ele>706.0</ele><time>2026-04-29T09:53:56.812Z</time></trkpt><trkpt lat="44.540252" lon="9.6037448"><ele>706.0</ele><time>2026-04-29T09:53:57.814Z</time></trkpt><trkpt lat="44.5402566" lon="9.6038852"><ele>706.0</ele><time>2026-04-29T09:53:59.812Z</time></trkpt><trkpt lat="44.5402596" lon="9.603989"><ele>706.0</ele><time>2026-04-29T09:54:02.815Z</time></trkpt><trkpt lat="44.5401675" lon="9.6041146"><ele>713.0</ele><time>2026-04-29T09:54:10.813Z</time></trkpt><trkpt lat="44.5401052" lon="9.6040903"><ele>713.0</ele><time>2026-04-29T09:54:19.811Z</time></trkpt><trkpt lat="44.540037" lon="9.6040787"><ele>713.0</ele><time>2026-04-29T09:54:23.815Z</time></trkpt><trkpt lat="44.540024" lon="9.6041015"><ele>713.0</ele><time>2026-04-29T09:56:56.815Z</time></trkpt><trkpt lat="44.5401287" lon="9.6042915"><ele>713.0</ele><time>2026-04-29T10:00:25.797Z</time></trkpt></trkseg><trkseg><trkpt lat="44.5400669" lon="9.6041728"><ele>713.0</ele><time>2026-04-29T10:40:12.804Z</time></trkpt><trkpt lat="44.5401444" lon="9.6041796"><ele>713.0</ele><time>2026-04-29T10:40:14.803Z</time></trkpt><trkpt lat="44.5402135" lon="9.6042002"><ele>713.0</ele><time>2026-04-29T10:40:17.803Z</time></trkpt><trkpt lat="44.5402905" lon="9.6042753"><ele>713.0</ele><time>2026-04-29T10:40:27.803Z</time></trkpt><trkpt lat="44.5403501" lon="9.6044223"><ele>713.0</ele><time>2026-04-29T10:40:29.803Z</time></trkpt><trkpt lat="44.5403844" lon="9.604524"><ele>713.0</ele><time>2026-04-29T10:40:30.803Z</time></trkpt><trkpt lat="44.5404352" lon="9.6046258"><ele>715.4</ele><time>2026-04-29T10:40:31.803Z</time></trkpt><trkpt lat="44.5404991" lon="9.6047244"><ele>717.8</ele><time>2026-04-29T10:40:32.803Z</time></trkpt><trkpt lat="44.5405771" lon="9.6048131"><ele>720.2</ele><time>2026-04-29T10:40:33.803Z</time></trkpt><trkpt lat="44.5406677" lon="9.6048825"><ele>722.6</ele><time>2026-04-29T10:40:34.804Z</time></trkpt><trkpt lat="44.5407661" lon="9.6049353"><ele>725.0</ele><time>2026-04-29T10:40:35.803Z</time></trkpt><trkpt lat="44.5408519" lon="9.6049783"><ele>725.0</ele><time>2026-04-29T10:40:36.803Z</time></trkpt><trkpt lat="44.5409283" lon="9.6050163"><ele>725.0</ele><time>2026-04-29T10:40:37.803Z</time></trkpt><trkpt lat="44.5409971" lon="9.605045"><ele>725.0</ele><time>2026-04-29T10:40:38.803Z</time></trkpt><trkpt lat="44.5410617" lon="9.6050741"><ele>725.0</ele><time>2026-04-29T10:40:39.802Z</time></trkpt><trkpt lat="44.5411264" lon="9.6051032"><ele>725.0</ele><time>2026-04-29T10:40:40.803Z</time></trkpt><trkpt lat="44.5411938" lon="9.6051273"><ele>725.0</ele><time>2026-04-29T10:40:41.804Z</time></trkpt><trkpt lat="44.5412656" lon="9.6051514"><ele>725.0</ele><time>2026-04-29T10:40:42.804Z</time></trkpt><trkpt lat="44.541347" lon="9.6051742"><ele>723.6</ele><time>2026-04-29T10:40:43.803Z</time></trkpt><trkpt lat="44.5414361" lon="9.6052058"><ele>722.2</ele><time>2026-04-29T10:40:44.803Z</time></trkpt><trkpt lat="44.5415343" lon="9.6052346"><ele>720.8</ele><time>2026-04-29T10:40:45.804Z</time></trkpt><trkpt lat="44.5416437" lon="9.6052666"><ele>719.4</ele><time>2026-04-29T10:40:46.802Z</time></trkpt><trkpt lat="44.5417615" lon="9.6052992"><ele>718.0</ele><time>2026-04-29T10:40:47.803Z</time></trkpt><trkpt lat="44.5418808" lon="9.6053325"><ele>723.6666666666667</ele><time>2026-04-29T10:40:48.802Z</time></trkpt><trkpt lat="44.5419892" lon="9.6053606"><ele>729.3333333333334</ele><time>2026-04-29T10:40:49.803Z</time></trkpt><trkpt lat="44.5420926" lon="9.6053841"><ele>735.0</ele><time>2026-04-29T10:40:50.803Z</time></trkpt><trkpt lat="44.5421808" lon="9.6053919"><ele>740.6666666666666</ele><time>2026-04-29T10:40:51.804Z</time></trkpt><trkpt lat="44.5422513" lon="9.6053924"><ele>746.3333333333333</ele><time>2026-04-29T10:40:52.804Z</time></trkpt><trkpt lat="44.5423165" lon="9.6053843"><ele>752.0</ele><time>2026-04-29T10:40:53.804Z</time></trkpt><trkpt lat="44.5424176" lon="9.6053406"><ele>747.1666666666666</ele><time>2026-04-29T10:40:55.802Z</time></trkpt><trkpt lat="44.5425235" lon="9.6052996"><ele>742.3333333333333</ele><time>2026-04-29T10:40:57.803Z</time></trkpt><trkpt lat="44.5426039" lon="9.6052639"><ele>737.5</ele><time>2026-04-29T10:40:59.803Z</time></trkpt><trkpt lat="44.5426707" lon="9.6052264"><ele>732.6666666666666</ele><time>2026-04-29T10:41:01.802Z</time></trkpt><trkpt lat="44.5427426" lon="9.605179"><ele>727.8333333333334</ele><time>2026-04-29T10:41:03.803Z</time></trkpt><trkpt lat="44.5428087" lon="9.6051492"><ele>723.0</ele><time>2026-04-29T10:41:05.804Z</time></trkpt><trkpt lat="44.5428649" lon="9.6051094"><ele>723.0000000000001</ele><time>2026-04-29T10:41:46.803Z</time></trkpt><trkpt lat="44.5429201" lon="9.6050556"><ele>723.0</ele><time>2026-04-29T10:41:48.803Z</time></trkpt><trkpt lat="44.5429917" lon="9.6050204"><ele>723.0</ele><time>2026-04-29T10:41:50.803Z</time></trkpt><trkpt lat="44.5430558" lon="9.605061"><ele>723.0</ele><time>2026-04-29T10:41:52.803Z</time></trkpt><trkpt lat="44.5430569" lon="9.6051497"><ele>723.0</ele><time>2026-04-29T10:41:54.803Z</time></trkpt><trkpt lat="44.5429916" lon="9.6052193"><ele>723.0000000000001</ele><time>2026-04-29T10:41:56.804Z</time></trkpt><trkpt lat="44.5429203" lon="9.6052425"><ele>723.0</ele><time>2026-04-29T10:41:57.804Z</time></trkpt><trkpt lat="44.542822" lon="9.6052822"><ele>728.8</ele><time>2026-04-29T10:41:58.804Z</time></trkpt><trkpt lat="44.5427246" lon="9.605333"><ele>734.5999999999999</ele><time>2026-04-29T10:41:59.804Z</time></trkpt><trkpt lat="44.5426251" lon="9.6053964"><ele>740.4000000000001</ele><time>2026-04-29T10:42:00.804Z</time></trkpt><trkpt lat="44.5425308" lon="9.605473"><ele>746.2</ele><time>2026-04-29T10:42:01.802Z</time></trkpt><trkpt lat="44.5424537" lon="9.6055569"><ele>752.0</ele><time>2026-04-29T10:42:02.803Z</time></trkpt><trkpt lat="44.5423711" lon="9.6056284"><ele>752.0</ele><time>2026-04-29T10:42:03.803Z</time></trkpt><trkpt lat="44.5422797" lon="9.6056702"><ele>752.0</ele><time>2026-04-29T10:42:04.803Z</time></trkpt><trkpt lat="44.5421816" lon="9.6056847"><ele>752.0</ele><time>2026-04-29T10:42:05.804Z</time></trkpt><trkpt lat="44.5420811" lon="9.6056838"><ele>752.0</ele><time>2026-04-29T10:42:06.803Z</time></trkpt><trkpt lat="44.5419696" lon="9.6056834"><ele>752.0</ele><time>2026-04-29T10:42:07.804Z</time></trkpt><trkpt lat="44.5418484" lon="9.6056852"><ele>752.0</ele><time>2026-04-29T10:42:08.803Z</time></trkpt><trkpt lat="44.5417196" lon="9.6056887"><ele>752.0</ele><time>2026-04-29T10:42:09.803Z</time></trkpt><trkpt lat="44.5415859" lon="9.6056844"><ele>752.0</ele><time>2026-04-29T10:42:10.803Z</time></trkpt><trkpt lat="44.5414483" lon="9.6056761"><ele>752.0</ele><time>2026-04-29T10:42:11.803Z</time></trkpt><trkpt lat="44.5413076" lon="9.6056685"><ele>752.25</ele><time>2026-04-29T10:42:12.803Z</time></trkpt><trkpt lat="44.5411644" lon="9.6056577"><ele>752.5</ele><time>2026-04-29T10:42:13.803Z</time></trkpt><trkpt lat="44.5410291" lon="9.6056388"><ele>752.75</ele><time>2026-04-29T10:42:14.803Z</time></trkpt><trkpt lat="44.5409118" lon="9.6056193"><ele>753.0</ele><time>2026-04-29T10:42:15.802Z</time></trkpt><trkpt lat="44.5408115" lon="9.6056084"><ele>753.0</ele><time>2026-04-29T10:42:16.803Z</time></trkpt><trkpt lat="44.5407204" lon="9.6056077"><ele>753.0</ele><time>2026-04-29T10:42:17.803Z</time></trkpt><trkpt lat="44.54063" lon="9.6056285"><ele>753.0</ele><time>2026-04-29T10:42:18.802Z</time></trkpt><trkpt lat="44.5405398" lon="9.605686"><ele>753.0</ele><time>2026-04-29T10:42:19.803Z</time></trkpt><trkpt lat="44.5404564" lon="9.6057738"><ele>753.0</ele><time>2026-04-29T10:42:20.803Z</time></trkpt><trkpt lat="44.5403809" lon="9.6058963"><ele>753.5</ele><time>2026-04-29T10:42:21.804Z</time></trkpt><trkpt lat="44.5403063" lon="9.6060415"><ele>754.0</ele><time>2026-04-29T10:42:22.804Z</time></trkpt><trkpt lat="44.5402133" lon="9.606169"><ele>754.5</ele><time>2026-04-29T10:42:23.804Z</time></trkpt><trkpt lat="44.5401133" lon="9.6062839"><ele>755.0</ele><time>2026-04-29T10:42:24.803Z</time></trkpt><trkpt lat="44.5400145" lon="9.6063991"><ele>755.0</ele><time>2026-04-29T10:42:25.803Z</time></trkpt><trkpt lat="44.5399319" lon="9.6065285"><ele>755.0</ele><time>2026-04-29T10:42:26.803Z</time></trkpt><trkpt lat="44.5398486" lon="9.6066869"><ele>755.0</ele><time>2026-04-29T10:42:27.803Z</time></trkpt><trkpt lat="44.5397758" lon="9.6068642"><ele>755.0</ele><time>2026-04-29T10:42:28.803Z</time></trkpt><trkpt lat="44.539703" lon="9.6070537"><ele>757.3333333333333</ele><time>2026-04-29T10:42:29.803Z</time></trkpt><trkpt lat="44.5396233" lon="9.6072486"><ele>759.6666666666666</ele><time>2026-04-29T10:42:30.803Z</time></trkpt><trkpt lat="44.5395433" lon="9.6074499"><ele>762.0</ele><time>2026-04-29T10:42:31.803Z</time></trkpt><trkpt lat="44.5394554" lon="9.6076736"><ele>763.0</ele><time>2026-04-29T10:42:32.802Z</time></trkpt><trkpt lat="44.5393709" lon="9.6078973"><ele>764.0</ele><time>2026-04-29T10:42:33.804Z</time></trkpt><trkpt lat="44.5392984" lon="9.6080754"><ele>765.0</ele><time>2026-04-29T10:42:34.803Z</time></trkpt><trkpt lat="44.5392058" lon="9.6082081"><ele>765.0</ele><time>2026-04-29T10:42:35.803Z</time></trkpt><trkpt lat="44.5391045" lon="9.6082902"><ele>765.0</ele><time>2026-04-29T10:42:36.802Z</time></trkpt><trkpt lat="44.5389915" lon="9.6083328"><ele>765.0</ele><time>2026-04-29T10:42:37.803Z</time></trkpt><trkpt lat="44.5388816" lon="9.6083819"><ele>765.0</ele><time>2026-04-29T10:42:38.802Z</time></trkpt><trkpt lat="44.5387779" lon="9.6084738"><ele>763.25</ele><time>2026-04-29T10:42:39.804Z</time></trkpt><trkpt lat="44.5386713" lon="9.608594"><ele>761.5</ele><time>2026-04-29T10:42:40.803Z</time></trkpt><trkpt lat="44.5385619" lon="9.6087385"><ele>759.75</ele><time>2026-04-29T10:42:41.803Z</time></trkpt><trkpt lat="44.5384455" lon="9.6088811"><ele>758.0</ele><time>2026-04-29T10:42:42.803Z</time></trkpt><trkpt lat="44.5383227" lon="9.6090094"><ele>761.3333333333333</ele><time>2026-04-29T10:42:43.804Z</time></trkpt><trkpt lat="44.5381891" lon="9.6091137"><ele>764.6666666666666</ele><time>2026-04-29T10:42:44.803Z</time></trkpt><trkpt lat="44.5380382" lon="9.6091897"><ele>768.0</ele><time>2026-04-29T10:42:45.804Z</time></trkpt><trkpt lat="44.5378737" lon="9.6092527"><ele>768.0</ele><time>2026-04-29T10:42:46.803Z</time></trkpt><trkpt lat="44.5377059" lon="9.6093031"><ele>768.0</ele><time>2026-04-29T10:42:47.802Z</time></trkpt><trkpt lat="44.5375375" lon="9.6093532"><ele>768.0</ele><time>2026-04-29T10:42:48.802Z</time></trkpt><trkpt lat="44.5373819" lon="9.6093996"><ele>768.0</ele><time>2026-04-29T10:42:49.802Z</time></trkpt><trkpt lat="44.537229" lon="9.6094634"><ele>768.0</ele><time>2026-04-29T10:42:50.804Z</time></trkpt><trkpt lat="44.5370804" lon="9.6095462"><ele>768.0</ele><time>2026-04-29T10:42:51.804Z</time></trkpt><trkpt lat="44.5369366" lon="9.6096367"><ele>772.0</ele><time>2026-04-29T10:42:52.802Z</time></trkpt><trkpt lat="44.5367962" lon="9.609731"><ele>776.0</ele><time>2026-04-29T10:42:53.803Z</time></trkpt><trkpt lat="44.5366683" lon="9.6098229"><ele>780.0</ele><time>2026-04-29T10:42:54.803Z</time></trkpt><trkpt lat="44.5365513" lon="9.6099192"><ele>784.0</ele><time>2026-04-29T10:42:55.803Z</time></trkpt><trkpt lat="44.5364522" lon="9.6100228"><ele>784.0</ele><time>2026-04-29T10:42:56.803Z</time></trkpt><trkpt lat="44.5363693" lon="9.6101299"><ele>784.0</ele><time>2026-04-29T10:42:57.804Z</time></trkpt><trkpt lat="44.5362994" lon="9.6102312"><ele>784.0</ele><time>2026-04-29T10:42:58.804Z</time></trkpt><trkpt lat="44.5362208" lon="9.6102964"><ele>784.0</ele><time>2026-04-29T10:42:59.802Z</time></trkpt><trkpt lat="44.5361423" lon="9.610316"><ele>784.0</ele><time>2026-04-29T10:43:00.803Z</time></trkpt><trkpt lat="44.5360693" lon="9.6102872"><ele>784.4000000000001</ele><time>2026-04-29T10:43:01.803Z</time></trkpt><trkpt lat="44.5359913" lon="9.6102196"><ele>784.8</ele><time>2026-04-29T10:43:02.803Z</time></trkpt><trkpt lat="44.5359204" lon="9.6101181"><ele>785.2</ele><time>2026-04-29T10:43:03.802Z</time></trkpt><trkpt lat="44.5358716" lon="9.609983"><ele>785.5999999999999</ele><time>2026-04-29T10:43:04.804Z</time></trkpt><trkpt lat="44.5358515" lon="9.6098197"><ele>786.0</ele><time>2026-04-29T10:43:05.803Z</time></trkpt><trkpt lat="44.5358499" lon="9.609638"><ele>787.0</ele><time>2026-04-29T10:43:06.803Z</time></trkpt><trkpt lat="44.5358695" lon="9.6094545"><ele>788.0</ele><time>2026-04-29T10:43:07.804Z</time></trkpt><trkpt lat="44.5359134" lon="9.6092918"><ele>789.0</ele><time>2026-04-29T10:43:08.804Z</time></trkpt><trkpt lat="44.5359887" lon="9.6091381"><ele>790.0</ele><time>2026-04-29T10:43:09.803Z</time></trkpt><trkpt lat="44.5360893" lon="9.6089735"><ele>790.0</ele><time>2026-04-29T10:43:10.802Z</time></trkpt><trkpt lat="44.536187" lon="9.6088045"><ele>790.0</ele><time>2026-04-29T10:43:11.804Z</time></trkpt><trkpt lat="44.5362689" lon="9.60864"><ele>790.0</ele><time>2026-04-29T10:43:12.803Z</time></trkpt><trkpt lat="44.5363341" lon="9.6084897"><ele>790.0</ele><time>2026-04-29T10:43:13.803Z</time></trkpt><trkpt lat="44.5363873" lon="9.6083554"><ele>788.1666666666666</ele><time>2026-04-29T10:43:14.803Z</time></trkpt><trkpt lat="44.5364288" lon="9.6082393"><ele>786.3333333333333</ele><time>2026-04-29T10:43:15.802Z</time></trkpt><trkpt lat="44.53644" lon="9.6081316"><ele>784.5</ele><time>2026-04-29T10:43:16.804Z</time></trkpt><trkpt lat="44.536417" lon="9.6080428"><ele>782.6666666666667</ele><time>2026-04-29T10:43:17.804Z</time></trkpt><trkpt lat="44.5363117" lon="9.6079824"><ele>780.8333333333334</ele><time>2026-04-29T10:43:19.803Z</time></trkpt><trkpt lat="44.5362453" lon="9.6080466"><ele>779.0</ele><time>2026-04-29T10:43:20.804Z</time></trkpt><trkpt lat="44.5361853" lon="9.6081446"><ele>781.75</ele><time>2026-04-29T10:43:21.804Z</time></trkpt><trkpt lat="44.5361237" lon="9.608286"><ele>784.5</ele><time>2026-04-29T10:43:22.804Z</time></trkpt><trkpt lat="44.5360569" lon="9.6084601"><ele>787.25</ele><time>2026-04-29T10:43:23.804Z</time></trkpt><trkpt lat="44.5359943" lon="9.608627"><ele>790.0</ele><time>2026-04-29T10:43:24.804Z</time></trkpt><trkpt lat="44.5359249" lon="9.6087724"><ele>790.0</ele><time>2026-04-29T10:43:25.803Z</time></trkpt><trkpt lat="44.5358381" lon="9.6088955"><ele>790.0</ele><time>2026-04-29T10:43:26.803Z</time></trkpt><trkpt lat="44.5357429" lon="9.6089968"><ele>790.0</ele><time>2026-04-29T10:43:27.804Z</time></trkpt><trkpt lat="44.5356486" lon="9.6091055"><ele>790.0</ele><time>2026-04-29T10:43:28.803Z</time></trkpt><trkpt lat="44.5355629" lon="9.6092567"><ele>790.0</ele><time>2026-04-29T10:43:29.803Z</time></trkpt><trkpt lat="44.5354954" lon="9.6094014"><ele>790.0</ele><time>2026-04-29T10:43:30.803Z</time></trkpt><trkpt lat="44.5354298" lon="9.6095192"><ele>790.0</ele><time>2026-04-29T10:43:31.802Z</time></trkpt><trkpt lat="44.535342" lon="9.6096154"><ele>790.0</ele><time>2026-04-29T10:43:32.803Z</time></trkpt><trkpt lat="44.5352381" lon="9.6097011"><ele>793.25</ele><time>2026-04-29T10:43:33.802Z</time></trkpt><trkpt lat="44.5351304" lon="9.6097847"><ele>796.5</ele><time>2026-04-29T10:43:34.804Z</time></trkpt><trkpt lat="44.5350139" lon="9.609872"><ele>799.75</ele><time>2026-04-29T10:43:35.804Z</time></trkpt><trkpt lat="44.5348848" lon="9.6099643"><ele>803.0</ele><time>2026-04-29T10:43:36.803Z</time></trkpt><trkpt lat="44.5347508" lon="9.6100656"><ele>803.0</ele><time>2026-04-29T10:43:37.802Z</time></trkpt><trkpt lat="44.5346264" lon="9.6101668"><ele>803.0</ele><time>2026-04-29T10:43:38.804Z</time></trkpt><trkpt lat="44.5345045" lon="9.6102788"><ele>803.0</ele><time>2026-04-29T10:43:39.803Z</time></trkpt><trkpt lat="44.5343968" lon="9.6104016"><ele>803.0</ele><time>2026-04-29T10:43:40.803Z</time></trkpt><trkpt lat="44.5342968" lon="9.6105313"><ele>800.75</ele><time>2026-04-29T10:43:41.803Z</time></trkpt><trkpt lat="44.5341969" lon="9.6106523"><ele>798.5</ele><time>2026-04-29T10:43:42.803Z</time></trkpt><trkpt lat="44.5341077" lon="9.6107663"><ele>796.25</ele><time>2026-04-29T10:43:43.804Z</time></trkpt><trkpt lat="44.5340366" lon="9.6108889"><ele>794.0</ele><time>2026-04-29T10:43:44.803Z</time></trkpt><trkpt lat="44.5339844" lon="9.6110165"><ele>794.0</ele><time>2026-04-29T10:43:45.803Z</time></trkpt><trkpt lat="44.5339451" lon="9.611142"><ele>794.0</ele><time>2026-04-29T10:43:46.804Z</time></trkpt><trkpt lat="44.5339021" lon="9.6112534"><ele>794.0</ele><time>2026-04-29T10:43:47.804Z</time></trkpt><trkpt lat="44.5338335" lon="9.6113295"><ele>794.0</ele><time>2026-04-29T10:43:48.803Z</time></trkpt><trkpt lat="44.5337428" lon="9.6113778"><ele>794.0</ele><time>2026-04-29T10:43:49.802Z</time></trkpt><trkpt lat="44.5336397" lon="9.6114105"><ele>792.3333333333334</ele><time>2026-04-29T10:43:50.803Z</time></trkpt><trkpt lat="44.5335484" lon="9.6114345"><ele>790.6666666666667</ele><time>2026-04-29T10:43:51.803Z</time></trkpt><trkpt lat="44.5334606" lon="9.611467"><ele>789.0</ele><time>2026-04-29T10:43:52.803Z</time></trkpt><trkpt lat="44.5333832" lon="9.6115271"><ele>787.3333333333333</ele><time>2026-04-29T10:43:53.803Z</time></trkpt><trkpt lat="44.5333264" lon="9.611615"><ele>785.6666666666666</ele><time>2026-04-29T10:43:54.803Z</time></trkpt><trkpt lat="44.5332991" lon="9.6117244"><ele>784.0</ele><time>2026-04-29T10:43:55.804Z</time></trkpt><trkpt lat="44.5332939" lon="9.6118591"><ele>783.4000000000001</ele><time>2026-04-29T10:43:56.802Z</time></trkpt><trkpt lat="44.5333144" lon="9.6119992"><ele>782.8</ele><time>2026-04-29T10:43:57.803Z</time></trkpt><trkpt lat="44.5333439" lon="9.6121392"><ele>782.2</ele><time>2026-04-29T10:43:58.803Z</time></trkpt><trkpt lat="44.5333703" lon="9.612281"><ele>781.5999999999999</ele><time>2026-04-29T10:43:59.803Z</time></trkpt><trkpt lat="44.5333892" lon="9.6124265"><ele>781.0</ele><time>2026-04-29T10:44:00.803Z</time></trkpt><trkpt lat="44.5333979" lon="9.6125766"><ele>781.0</ele><time>2026-04-29T10:44:01.803Z</time></trkpt><trkpt lat="44.533398" lon="9.6127336"><ele>781.0</ele><time>2026-04-29T10:44:02.804Z</time></trkpt><trkpt lat="44.5333963" lon="9.6129003"><ele>781.0</ele><time>2026-04-29T10:44:03.803Z</time></trkpt><trkpt lat="44.5333916" lon="9.6130778"><ele>781.0</ele><time>2026-04-29T10:44:04.802Z</time></trkpt><trkpt lat="44.5333733" lon="9.6132628"><ele>780.75</ele><time>2026-04-29T10:44:05.803Z</time></trkpt><trkpt lat="44.5333414" lon="9.6134396"><ele>780.5</ele><time>2026-04-29T10:44:06.804Z</time></trkpt><trkpt lat="44.5333145" lon="9.613609"><ele>780.25</ele><time>2026-04-29T10:44:07.804Z</time></trkpt><trkpt lat="44.5333031" lon="9.6137825"><ele>780.0</ele><time>2026-04-29T10:44:08.804Z</time></trkpt><trkpt lat="44.5333052" lon="9.6139656"><ele>780.0</ele><time>2026-04-29T10:44:09.804Z</time></trkpt><trkpt lat="44.5333121" lon="9.6141282"><ele>780.0</ele><time>2026-04-29T10:44:10.803Z</time></trkpt><trkpt lat="44.5333248" lon="9.6142604"><ele>780.0</ele><time>2026-04-29T10:44:11.803Z</time></trkpt><trkpt lat="44.5333393" lon="9.6143663"><ele>780.0</ele><time>2026-04-29T10:44:12.803Z</time></trkpt><trkpt lat="44.5333436" lon="9.6144564"><ele>780.0</ele><time>2026-04-29T10:44:13.804Z</time></trkpt><trkpt lat="44.5332784" lon="9.6145731"><ele>780.0</ele><time>2026-04-29T10:44:15.803Z</time></trkpt><trkpt lat="44.5331785" lon="9.6145237"><ele>780.0</ele><time>2026-04-29T10:44:17.803Z</time></trkpt><trkpt lat="44.5331538" lon="9.6144387"><ele>780.0</ele><time>2026-04-29T10:44:18.804Z</time></trkpt><trkpt lat="44.5331521" lon="9.6143255"><ele>780.0</ele><time>2026-04-29T10:44:19.803Z</time></trkpt><trkpt lat="44.5331445" lon="9.6141596"><ele>780.0</ele><time>2026-04-29T10:44:20.803Z</time></trkpt><trkpt lat="44.5331359" lon="9.6140017"><ele>780.0</ele><time>2026-04-29T10:44:21.803Z</time></trkpt><trkpt lat="44.5331263" lon="9.6138261"><ele>780.0</ele><time>2026-04-29T10:44:22.804Z</time></trkpt><trkpt lat="44.5331128" lon="9.6136588"><ele>780.0</ele><time>2026-04-29T10:44:23.803Z</time></trkpt><trkpt lat="44.5330769" lon="9.6134838"><ele>780.0</ele><time>2026-04-29T10:44:24.803Z</time></trkpt><trkpt lat="44.5330209" lon="9.6133069"><ele>779.75</ele><time>2026-04-29T10:44:25.802Z</time></trkpt><trkpt lat="44.5329452" lon="9.6131393"><ele>779.5</ele><time>2026-04-29T10:44:26.803Z</time></trkpt><trkpt lat="44.5328635" lon="9.6129947"><ele>779.25</ele><time>2026-04-29T10:44:27.803Z</time></trkpt><trkpt lat="44.5327661" lon="9.6128753"><ele>779.0</ele><time>2026-04-29T10:44:28.803Z</time></trkpt><trkpt lat="44.5326644" lon="9.6127953"><ele>776.6666666666667</ele><time>2026-04-29T10:44:29.804Z</time></trkpt><trkpt lat="44.5325783" lon="9.6127263"><ele>774.3333333333334</ele><time>2026-04-29T10:44:30.803Z</time></trkpt><trkpt lat="44.5325155" lon="9.6126422"><ele>772.0</ele><time>2026-04-29T10:44:31.803Z</time></trkpt><trkpt lat="44.5324767" lon="9.6125341"><ele>769.6666666666667</ele><time>2026-04-29T10:44:32.803Z</time></trkpt><trkpt lat="44.532458" lon="9.6124129"><ele>767.3333333333334</ele><time>2026-04-29T10:44:33.803Z</time></trkpt><trkpt lat="44.532441" lon="9.6123147"><ele>765.0</ele><time>2026-04-29T10:44:34.803Z</time></trkpt><trkpt lat="44.5324033" lon="9.6122337"><ele>765.0</ele><time>2026-04-29T10:44:35.804Z</time></trkpt><trkpt lat="44.5323465" lon="9.6121851"><ele>765.0</ele><time>2026-04-29T10:44:36.804Z</time></trkpt><trkpt lat="44.5322299" lon="9.6122285"><ele>765.0</ele><time>2026-04-29T10:44:38.804Z</time></trkpt><trkpt lat="44.532205" lon="9.6123182"><ele>765.0</ele><time>2026-04-29T10:44:39.804Z</time></trkpt><trkpt lat="44.5322018" lon="9.6124527"><ele>765.0</ele><time>2026-04-29T10:44:40.804Z</time></trkpt><trkpt lat="44.5322038" lon="9.6126221"><ele>765.0</ele><time>2026-04-29T10:44:41.804Z</time></trkpt><trkpt lat="44.5322193" lon="9.6127669"><ele>765.0</ele><time>2026-04-29T10:44:42.803Z</time></trkpt><trkpt lat="44.5322668" lon="9.612927"><ele>765.0</ele><time>2026-04-29T10:44:43.804Z</time></trkpt><trkpt lat="44.5323384" lon="9.6130719"><ele>765.0</ele><time>2026-04-29T10:44:44.804Z</time></trkpt><trkpt lat="44.532417" lon="9.6131955"><ele>763.75</ele><time>2026-04-29T10:44:45.804Z</time></trkpt><trkpt lat="44.5324775" lon="9.6133268"><ele>762.5</ele><time>2026-04-29T10:44:46.804Z</time></trkpt><trkpt lat="44.5325173" lon="9.6134786"><ele>761.25</ele><time>2026-04-29T10:44:47.802Z</time></trkpt><trkpt lat="44.5325278" lon="9.6136466"><ele>760.0</ele><time>2026-04-29T10:44:48.803Z</time></trkpt><trkpt lat="44.5325129" lon="9.6138355"><ele>759.0</ele><time>2026-04-29T10:44:49.802Z</time></trkpt><trkpt lat="44.5324969" lon="9.6140547"><ele>758.0</ele><time>2026-04-29T10:44:50.803Z</time></trkpt><trkpt lat="44.5324826" lon="9.6142952"><ele>757.0</ele><time>2026-04-29T10:44:51.803Z</time></trkpt><trkpt lat="44.5324742" lon="9.6145115"><ele>755.25</ele><time>2026-04-29T10:44:52.803Z</time></trkpt><trkpt lat="44.5324654" lon="9.6147152"><ele>753.5</ele><time>2026-04-29T10:44:53.802Z</time></trkpt><trkpt lat="44.5324665" lon="9.614898"><ele>751.75</ele><time>2026-04-29T10:44:54.803Z</time></trkpt><trkpt lat="44.5324797" lon="9.6150598"><ele>750.0</ele><time>2026-04-29T10:44:55.803Z</time></trkpt><trkpt lat="44.5325036" lon="9.6152053"><ele>750.0</ele><time>2026-04-29T10:44:56.803Z</time></trkpt><trkpt lat="44.5325241" lon="9.6153455"><ele>750.0</ele><time>2026-04-29T10:44:57.802Z</time></trkpt><trkpt lat="44.5325103" lon="9.6154854"><ele>750.0</ele><time>2026-04-29T10:44:58.804Z</time></trkpt><trkpt lat="44.5324692" lon="9.6156088"><ele>750.0</ele><time>2026-04-29T10:44:59.804Z</time></trkpt><trkpt lat="44.5323946" lon="9.6157209"><ele>750.0</ele><time>2026-04-29T10:45:00.803Z</time></trkpt><trkpt lat="44.5323202" lon="9.6158306"><ele>750.0</ele><time>2026-04-29T10:45:01.803Z</time></trkpt><trkpt lat="44.5322687" lon="9.6159407"><ele>750.0</ele><time>2026-04-29T10:45:02.803Z</time></trkpt><trkpt lat="44.5322385" lon="9.6160547"><ele>750.0</ele><time>2026-04-29T10:45:03.804Z</time></trkpt><trkpt lat="44.5322411" lon="9.616182"><ele>750.0</ele><time>2026-04-29T10:45:04.803Z</time></trkpt><trkpt lat="44.5322791" lon="9.6163258"><ele>750.0</ele><time>2026-04-29T10:45:05.803Z</time></trkpt><trkpt lat="44.5323349" lon="9.6164796"><ele>749.8</ele><time>2026-04-29T10:45:06.803Z</time></trkpt><trkpt lat="44.5323718" lon="9.6166298"><ele>749.6</ele><time>2026-04-29T10:45:07.802Z</time></trkpt><trkpt lat="44.532405" lon="9.6167909"><ele>749.4000000000001</ele><time>2026-04-29T10:45:08.804Z</time></trkpt><trkpt lat="44.5324256" lon="9.6169403"><ele>749.2</ele><time>2026-04-29T10:45:09.804Z</time></trkpt><trkpt lat="44.5324436" lon="9.6170729"><ele>749.0</ele><time>2026-04-29T10:45:10.804Z</time></trkpt><trkpt lat="44.5324354" lon="9.6171937"><ele>748.4000000000001</ele><time>2026-04-29T10:45:11.803Z</time></trkpt><trkpt lat="44.5323917" lon="9.6172886"><ele>747.8</ele><time>2026-04-29T10:45:12.804Z</time></trkpt><trkpt lat="44.5323203" lon="9.6173563"><ele>747.2</ele><time>2026-04-29T10:45:13.804Z</time></trkpt><trkpt lat="44.5322254" lon="9.6174159"><ele>746.5999999999999</ele><time>2026-04-29T10:45:14.804Z</time></trkpt><trkpt lat="44.5321133" lon="9.6175145"><ele>746.0</ele><time>2026-04-29T10:45:15.803Z</time></trkpt><trkpt lat="44.5320066" lon="9.6176195"><ele>741.5</ele><time>2026-04-29T10:45:16.803Z</time></trkpt><trkpt lat="44.5318997" lon="9.6176855"><ele>737.0</ele><time>2026-04-29T10:45:17.803Z</time></trkpt><trkpt lat="44.5317841" lon="9.6177126"><ele>732.5</ele><time>2026-04-29T10:45:18.803Z</time></trkpt><trkpt lat="44.5316572" lon="9.6177084"><ele>728.0</ele><time>2026-04-29T10:45:19.803Z</time></trkpt><trkpt lat="44.5315395" lon="9.617706"><ele>728.0</ele><time>2026-04-29T10:45:20.803Z</time></trkpt><trkpt lat="44.5314362" lon="9.6177392"><ele>728.0</ele><time>2026-04-29T10:45:21.803Z</time></trkpt><trkpt lat="44.5313357" lon="9.6178304"><ele>728.0</ele><time>2026-04-29T10:45:22.803Z</time></trkpt><trkpt lat="44.5312353" lon="9.61797"><ele>728.0</ele><time>2026-04-29T10:45:23.803Z</time></trkpt><trkpt lat="44.5311185" lon="9.6181269"><ele>729.75</ele><time>2026-04-29T10:45:24.803Z</time></trkpt><trkpt lat="44.5309984" lon="9.6182401"><ele>731.5</ele><time>2026-04-29T10:45:25.804Z</time></trkpt><trkpt lat="44.5308588" lon="9.6183295"><ele>733.25</ele><time>2026-04-29T10:45:26.804Z</time></trkpt><trkpt lat="44.5307158" lon="9.6183763"><ele>735.0</ele><time>2026-04-29T10:45:27.803Z</time></trkpt><trkpt lat="44.5305715" lon="9.6183603"><ele>735.0</ele><time>2026-04-29T10:45:28.803Z</time></trkpt><trkpt lat="44.53042" lon="9.6183254"><ele>735.0</ele><time>2026-04-29T10:45:29.803Z</time></trkpt><trkpt lat="44.530258" lon="9.6183205"><ele>735.0</ele><time>2026-04-29T10:45:30.804Z</time></trkpt><trkpt lat="44.5300818" lon="9.6183492"><ele>730.3333333333334</ele><time>2026-04-29T10:45:31.804Z</time></trkpt><trkpt lat="44.5298872" lon="9.6183978"><ele>725.6666666666667</ele><time>2026-04-29T10:45:32.804Z</time></trkpt><trkpt lat="44.5297052" lon="9.6184459"><ele>721.0</ele><time>2026-04-29T10:45:33.803Z</time></trkpt><trkpt lat="44.5295303" lon="9.618507"><ele>722.75</ele><time>2026-04-29T10:45:34.803Z</time></trkpt><trkpt lat="44.5293745" lon="9.6185921"><ele>724.5</ele><time>2026-04-29T10:45:35.802Z</time></trkpt><trkpt lat="44.5292438" lon="9.618674"><ele>726.25</ele><time>2026-04-29T10:45:36.804Z</time></trkpt><trkpt lat="44.5291242" lon="9.6187501"><ele>728.0</ele><time>2026-04-29T10:45:37.804Z</time></trkpt><trkpt lat="44.5290087" lon="9.6188103"><ele>728.0</ele><time>2026-04-29T10:45:38.803Z</time></trkpt><trkpt lat="44.5288975" lon="9.6188563"><ele>728.0</ele><time>2026-04-29T10:45:39.804Z</time></trkpt><trkpt lat="44.5287882" lon="9.6189021"><ele>728.0</ele><time>2026-04-29T10:45:40.804Z</time></trkpt><trkpt lat="44.5286821" lon="9.6189421"><ele>728.0</ele><time>2026-04-29T10:45:41.802Z</time></trkpt><trkpt lat="44.5285815" lon="9.6189806"><ele>728.0</ele><time>2026-04-29T10:45:42.803Z</time></trkpt><trkpt lat="44.528486" lon="9.6190175"><ele>725.0</ele><time>2026-04-29T10:45:43.803Z</time></trkpt><trkpt lat="44.5284014" lon="9.6190651"><ele>722.0</ele><time>2026-04-29T10:45:44.803Z</time></trkpt><trkpt lat="44.5283317" lon="9.6191179"><ele>719.0</ele><time>2026-04-29T10:45:45.804Z</time></trkpt><trkpt lat="44.5282789" lon="9.6191766"><ele>716.0</ele><time>2026-04-29T10:45:46.803Z</time></trkpt><trkpt lat="44.5281956" lon="9.6193043"><ele>713.0</ele><time>2026-04-29T10:45:48.804Z</time></trkpt><trkpt lat="44.5281228" lon="9.6194118"><ele>711.2</ele><time>2026-04-29T10:45:50.803Z</time></trkpt><trkpt lat="44.5280481" lon="9.6195083"><ele>709.4</ele><time>2026-04-29T10:45:52.803Z</time></trkpt><trkpt lat="44.5279518" lon="9.6196187"><ele>707.6</ele><time>2026-04-29T10:45:54.803Z</time></trkpt><trkpt lat="44.5278842" lon="9.6196949"><ele>705.8000000000001</ele><time>2026-04-29T10:45:55.803Z</time></trkpt><trkpt lat="44.5277968" lon="9.6197818"><ele>704.0</ele><time>2026-04-29T10:45:56.803Z</time></trkpt><trkpt lat="44.5277043" lon="9.6198632"><ele>704.0</ele><time>2026-04-29T10:45:57.803Z</time></trkpt><trkpt lat="44.5276035" lon="9.6199364"><ele>704.0</ele><time>2026-04-29T10:45:58.803Z</time></trkpt><trkpt lat="44.5274884" lon="9.6200058"><ele>704.0</ele><time>2026-04-29T10:45:59.803Z</time></trkpt><trkpt lat="44.5273668" lon="9.6200742"><ele>704.0</ele><time>2026-04-29T10:46:00.802Z</time></trkpt><trkpt lat="44.5272452" lon="9.6201209"><ele>704.0</ele><time>2026-04-29T10:46:01.803Z</time></trkpt><trkpt lat="44.5271246" lon="9.6201449"><ele>704.0</ele><time>2026-04-29T10:46:02.803Z</time></trkpt><trkpt lat="44.5270119" lon="9.6201385"><ele>704.0</ele><time>2026-04-29T10:46:03.803Z</time></trkpt><trkpt lat="44.5269072" lon="9.6201256"><ele>704.0</ele><time>2026-04-29T10:46:04.804Z</time></trkpt><trkpt lat="44.5268056" lon="9.6201203"><ele>704.0</ele><time>2026-04-29T10:46:05.804Z</time></trkpt><trkpt lat="44.5267029" lon="9.6201351"><ele>704.2</ele><time>2026-04-29T10:46:06.803Z</time></trkpt><trkpt lat="44.5266064" lon="9.620182"><ele>704.4000000000001</ele><time>2026-04-29T10:46:07.804Z</time></trkpt><trkpt lat="44.5265285" lon="9.6202657"><ele>704.6</ele><time>2026-04-29T10:46:08.803Z</time></trkpt><trkpt lat="44.5264579" lon="9.6203809"><ele>704.8</ele><time>2026-04-29T10:46:09.803Z</time></trkpt><trkpt lat="44.5264005" lon="9.6205005"><ele>705.0</ele><time>2026-04-29T10:46:10.803Z</time></trkpt><trkpt lat="44.5263459" lon="9.6206066"><ele>705.0</ele><time>2026-04-29T10:46:11.803Z</time></trkpt><trkpt lat="44.5262721" lon="9.6206698"><ele>705.0</ele><time>2026-04-29T10:46:12.803Z</time></trkpt><trkpt lat="44.5261935" lon="9.6206909"><ele>705.0</ele><time>2026-04-29T10:46:13.803Z</time></trkpt><trkpt lat="44.52612" lon="9.6206624"><ele>705.0</ele><time>2026-04-29T10:46:14.804Z</time></trkpt><trkpt lat="44.5260589" lon="9.6205887"><ele>705.0</ele><time>2026-04-29T10:46:15.803Z</time></trkpt><trkpt lat="44.5260084" lon="9.620472"><ele>705.0</ele><time>2026-04-29T10:46:16.804Z</time></trkpt><trkpt lat="44.525955" lon="9.6203365"><ele>701.0</ele><time>2026-04-29T10:46:17.804Z</time></trkpt><trkpt lat="44.5258678" lon="9.6202177"><ele>697.0</ele><time>2026-04-29T10:46:18.804Z</time></trkpt><trkpt lat="44.5257575" lon="9.6201294"><ele>693.0</ele><time>2026-04-29T10:46:19.804Z</time></trkpt><trkpt lat="44.5256499" lon="9.620086"><ele>689.0</ele><time>2026-04-29T10:46:20.803Z</time></trkpt><trkpt lat="44.5255421" lon="9.620078"><ele>689.0</ele><time>2026-04-29T10:46:21.803Z</time></trkpt><trkpt lat="44.5254458" lon="9.6201205"><ele>689.0</ele><time>2026-04-29T10:46:22.804Z</time></trkpt><trkpt lat="44.5253497" lon="9.6202125"><ele>689.0</ele><time>2026-04-29T10:46:23.804Z</time></trkpt><trkpt lat="44.5252389" lon="9.6203398"><ele>689.0</ele><time>2026-04-29T10:46:24.802Z</time></trkpt><trkpt lat="44.5251048" lon="9.6204924"><ele>689.3333333333333</ele><time>2026-04-29T10:46:25.803Z</time></trkpt><trkpt lat="44.5249779" lon="9.6206547"><ele>689.6666666666666</ele><time>2026-04-29T10:46:26.804Z</time></trkpt><trkpt lat="44.5248727" lon="9.6208215"><ele>690.0</ele><time>2026-04-29T10:46:27.804Z</time></trkpt><trkpt lat="44.5247828" lon="9.6209973"><ele>691.0</ele><time>2026-04-29T10:46:28.803Z</time></trkpt><trkpt lat="44.5247072" lon="9.6211861"><ele>692.0</ele><time>2026-04-29T10:46:29.804Z</time></trkpt><trkpt lat="44.5246368" lon="9.6213872"><ele>693.0</ele><time>2026-04-29T10:46:30.804Z</time></trkpt><trkpt lat="44.5245761" lon="9.6215797"><ele>693.0</ele><time>2026-04-29T10:46:31.803Z</time></trkpt><trkpt lat="44.5245354" lon="9.6217707"><ele>693.0</ele><time>2026-04-29T10:46:32.802Z</time></trkpt><trkpt lat="44.5245196" lon="9.6219721"><ele>693.0</ele><time>2026-04-29T10:46:33.802Z</time></trkpt><trkpt lat="44.5245351" lon="9.6221771"><ele>693.0</ele><time>2026-04-29T10:46:34.803Z</time></trkpt><trkpt lat="44.5245836" lon="9.622386"><ele>693.0</ele><time>2026-04-29T10:46:35.804Z</time></trkpt><trkpt lat="44.5246541" lon="9.622601"><ele>693.0</ele><time>2026-04-29T10:46:36.804Z</time></trkpt><trkpt lat="44.5247343" lon="9.6228218"><ele>693.0</ele><time>2026-04-29T10:46:37.802Z</time></trkpt><trkpt lat="44.5247926" lon="9.6230018"><ele>692.4</ele><time>2026-04-29T10:46:38.803Z</time></trkpt><trkpt lat="44.5248385" lon="9.6231512"><ele>691.8</ele><time>2026-04-29T10:46:39.803Z</time></trkpt><trkpt lat="44.5248503" lon="9.6232924"><ele>691.2</ele><time>2026-04-29T10:46:40.803Z</time></trkpt><trkpt lat="44.5248268" lon="9.6234068"><ele>690.6</ele><time>2026-04-29T10:46:41.802Z</time></trkpt><trkpt lat="44.5247682" lon="9.623473"><ele>690.0</ele><time>2026-04-29T10:46:42.803Z</time></trkpt><trkpt lat="44.5246853" lon="9.6234869"><ele>690.0</ele><time>2026-04-29T10:46:43.804Z</time></trkpt><trkpt lat="44.5245919" lon="9.6234411"><ele>690.0</ele><time>2026-04-29T10:46:44.804Z</time></trkpt><trkpt lat="44.5244801" lon="9.6233538"><ele>690.0</ele><time>2026-04-29T10:46:45.804Z</time></trkpt><trkpt lat="44.5243792" lon="9.6232849"><ele>690.0</ele><time>2026-04-29T10:46:46.803Z</time></trkpt><trkpt lat="44.5242609" lon="9.6232544"><ele>688.5</ele><time>2026-04-29T10:46:47.803Z</time></trkpt><trkpt lat="44.5241168" lon="9.6232774"><ele>687.0</ele><time>2026-04-29T10:46:48.803Z</time></trkpt><trkpt lat="44.5239617" lon="9.6233302"><ele>685.5</ele><time>2026-04-29T10:46:49.802Z</time></trkpt><trkpt lat="44.5238268" lon="9.6233757"><ele>684.0</ele><time>2026-04-29T10:46:50.804Z</time></trkpt><trkpt lat="44.5237009" lon="9.6234087"><ele>683.25</ele><time>2026-04-29T10:46:51.804Z</time></trkpt><trkpt lat="44.5235908" lon="9.6234614"><ele>682.5</ele><time>2026-04-29T10:46:52.804Z</time></trkpt><trkpt lat="44.523501" lon="9.6235651"><ele>681.75</ele><time>2026-04-29T10:46:53.804Z</time></trkpt><trkpt lat="44.5234417" lon="9.6237223"><ele>681.0</ele><time>2026-04-29T10:46:54.803Z</time></trkpt><trkpt lat="44.5234053" lon="9.6238951"><ele>681.0</ele><time>2026-04-29T10:46:55.803Z</time></trkpt><trkpt lat="44.5233776" lon="9.6240599"><ele>681.0</ele><time>2026-04-29T10:46:56.803Z</time></trkpt><trkpt lat="44.5233327" lon="9.6241958"><ele>681.0</ele><time>2026-04-29T10:46:57.802Z</time></trkpt><trkpt lat="44.5232631" lon="9.6242899"><ele>681.0</ele><time>2026-04-29T10:46:58.804Z</time></trkpt><trkpt lat="44.5231731" lon="9.6243243"><ele>681.0</ele><time>2026-04-29T10:46:59.803Z</time></trkpt><trkpt lat="44.5230757" lon="9.6242911"><ele>681.0</ele><time>2026-04-29T10:47:00.803Z</time></trkpt><trkpt lat="44.5229931" lon="9.6241953"><ele>681.0</ele><time>2026-04-29T10:47:01.803Z</time></trkpt><trkpt lat="44.5229259" lon="9.6240484"><ele>681.0</ele><time>2026-04-29T10:47:02.802Z</time></trkpt><trkpt lat="44.5228597" lon="9.6238885"><ele>681.0</ele><time>2026-04-29T10:47:03.803Z</time></trkpt><trkpt lat="44.5228032" lon="9.6237579"><ele>678.1999999999999</ele><time>2026-04-29T10:47:04.804Z</time></trkpt><trkpt lat="44.5227434" lon="9.6236434"><ele>675.4</ele><time>2026-04-29T10:47:05.803Z</time></trkpt><trkpt lat="44.5226636" lon="9.6235756"><ele>672.6</ele><time>2026-04-29T10:47:06.803Z</time></trkpt><trkpt lat="44.5225738" lon="9.6235621"><ele>669.8</ele><time>2026-04-29T10:47:07.803Z</time></trkpt><trkpt lat="44.5224883" lon="9.623607"><ele>667.0</ele><time>2026-04-29T10:47:08.803Z</time></trkpt><trkpt lat="44.5224252" lon="9.6237168"><ele>667.0</ele><time>2026-04-29T10:47:09.803Z</time></trkpt><trkpt lat="44.522383" lon="9.623864"><ele>667.0</ele><time>2026-04-29T10:47:10.804Z</time></trkpt><trkpt lat="44.5223474" lon="9.6240263"><ele>667.0</ele><time>2026-04-29T10:47:11.804Z</time></trkpt><trkpt lat="44.522308" lon="9.6241757"><ele>667.0</ele><time>2026-04-29T10:47:12.803Z</time></trkpt><trkpt lat="44.5222523" lon="9.6243291"><ele>667.0</ele><time>2026-04-29T10:47:13.803Z</time></trkpt><trkpt lat="44.522179" lon="9.6244655"><ele>667.0</ele><time>2026-04-29T10:47:14.803Z</time></trkpt><trkpt lat="44.5220945" lon="9.6245691"><ele>667.0</ele><time>2026-04-29T10:47:15.804Z</time></trkpt><trkpt lat="44.5219972" lon="9.6246276"><ele>667.0</ele><time>2026-04-29T10:47:16.802Z</time></trkpt><trkpt lat="44.5218869" lon="9.6246506"><ele>666.75</ele><time>2026-04-29T10:47:17.801Z</time></trkpt><trkpt lat="44.5217751" lon="9.624681"><ele>666.5</ele><time>2026-04-29T10:47:18.801Z</time></trkpt><trkpt lat="44.5216699" lon="9.6247608"><ele>666.25</ele><time>2026-04-29T10:47:19.803Z</time></trkpt><trkpt lat="44.5215582" lon="9.6248693"><ele>666.0</ele><time>2026-04-29T10:47:20.801Z</time></trkpt><trkpt lat="44.5214523" lon="9.6249961"><ele>666.0</ele><time>2026-04-29T10:47:21.802Z</time></trkpt><trkpt lat="44.52135" lon="9.6251219"><ele>666.0</ele><time>2026-04-29T10:47:22.801Z</time></trkpt><trkpt lat="44.5212578" lon="9.6252397"><ele>666.0</ele><time>2026-04-29T10:47:23.801Z</time></trkpt><trkpt lat="44.5211907" lon="9.625361"><ele>666.0</ele><time>2026-04-29T10:47:24.802Z</time></trkpt><trkpt lat="44.5211643" lon="9.6254917"><ele>665.0</ele><time>2026-04-29T10:47:25.802Z</time></trkpt><trkpt lat="44.5211822" lon="9.6256111"><ele>664.0</ele><time>2026-04-29T10:47:26.802Z</time></trkpt><trkpt lat="44.5212419" lon="9.6257042"><ele>663.0</ele><time>2026-04-29T10:47:27.801Z</time></trkpt><trkpt lat="44.5213291" lon="9.6257822"><ele>662.0</ele><time>2026-04-29T10:47:28.801Z</time></trkpt><trkpt lat="44.5214327" lon="9.6258571"><ele>661.0</ele><time>2026-04-29T10:47:29.802Z</time></trkpt><trkpt lat="44.5215251" lon="9.6259382"><ele>661.0</ele><time>2026-04-29T10:47:30.801Z</time></trkpt><trkpt lat="44.5216048" lon="9.6260357"><ele>661.0</ele><time>2026-04-29T10:47:31.802Z</time></trkpt><trkpt lat="44.5216518" lon="9.6261648"><ele>661.0</ele><time>2026-04-29T10:47:32.803Z</time></trkpt><trkpt lat="44.5216703" lon="9.6263222"><ele>661.0</ele><time>2026-04-29T10:47:33.802Z</time></trkpt><trkpt lat="44.5216651" lon="9.6264899"><ele>661.0</ele><time>2026-04-29T10:47:34.802Z</time></trkpt><trkpt lat="44.5216614" lon="9.6266382"><ele>659.4</ele><time>2026-04-29T10:47:35.803Z</time></trkpt><trkpt lat="44.5216853" lon="9.6267695"><ele>657.8</ele><time>2026-04-29T10:47:36.802Z</time></trkpt><trkpt lat="44.5217359" lon="9.6268836"><ele>656.1999999999999</ele><time>2026-04-29T10:47:37.802Z</time></trkpt><trkpt lat="44.5218152" lon="9.6269861"><ele>654.5999999999999</ele><time>2026-04-29T10:47:38.801Z</time></trkpt><trkpt lat="44.5218976" lon="9.6270912"><ele>653.0</ele><time>2026-04-29T10:47:39.802Z</time></trkpt><trkpt lat="44.521952" lon="9.6272312"><ele>650.5</ele><time>2026-04-29T10:47:40.803Z</time></trkpt><trkpt lat="44.5219826" lon="9.6273975"><ele>648.0</ele><time>2026-04-29T10:47:41.802Z</time></trkpt><trkpt lat="44.521973" lon="9.6275727"><ele>645.5</ele><time>2026-04-29T10:47:42.802Z</time></trkpt><trkpt lat="44.5219338" lon="9.6277555"><ele>643.0</ele><time>2026-04-29T10:47:43.803Z</time></trkpt><trkpt lat="44.5218829" lon="9.6279374"><ele>642.0</ele><time>2026-04-29T10:47:44.803Z</time></trkpt><trkpt lat="44.5218504" lon="9.6281166"><ele>641.0</ele><time>2026-04-29T10:47:45.803Z</time></trkpt><trkpt lat="44.5218507" lon="9.628319"><ele>640.0</ele><time>2026-04-29T10:47:46.802Z</time></trkpt><trkpt lat="44.5218775" lon="9.6285283"><ele>639.0</ele><time>2026-04-29T10:47:47.803Z</time></trkpt><trkpt lat="44.5219073" lon="9.628729"><ele>638.25</ele><time>2026-04-29T10:47:48.803Z</time></trkpt><trkpt lat="44.5219172" lon="9.6289209"><ele>637.5</ele><time>2026-04-29T10:47:49.803Z</time></trkpt><trkpt lat="44.5218934" lon="9.6291038"><ele>636.75</ele><time>2026-04-29T10:47:50.802Z</time></trkpt><trkpt lat="44.5218333" lon="9.6292943"><ele>636.0</ele><time>2026-04-29T10:47:51.802Z</time></trkpt><trkpt lat="44.5217437" lon="9.6294815"><ele>638.0</ele><time>2026-04-29T10:47:52.802Z</time></trkpt><trkpt lat="44.5216351" lon="9.62968"><ele>640.0</ele><time>2026-04-29T10:47:53.802Z</time></trkpt><trkpt lat="44.5215393" lon="9.6298369"><ele>642.0</ele><time>2026-04-29T10:47:54.802Z</time></trkpt><trkpt lat="44.5214318" lon="9.6299509"><ele>642.0</ele><time>2026-04-29T10:47:55.803Z</time></trkpt><trkpt lat="44.5213065" lon="9.6300041"><ele>642.0</ele><time>2026-04-29T10:47:56.801Z</time></trkpt><trkpt lat="44.5211722" lon="9.6300169"><ele>642.0</ele><time>2026-04-29T10:47:57.802Z</time></trkpt><trkpt lat="44.5210453" lon="9.6300355"><ele>642.0</ele><time>2026-04-29T10:47:58.802Z</time></trkpt><trkpt lat="44.5209168" lon="9.6300953"><ele>639.6666666666666</ele><time>2026-04-29T10:47:59.802Z</time></trkpt><trkpt lat="44.5207906" lon="9.6302026"><ele>637.3333333333333</ele><time>2026-04-29T10:48:00.803Z</time></trkpt><trkpt lat="44.5206683" lon="9.6303409"><ele>635.0</ele><time>2026-04-29T10:48:01.802Z</time></trkpt><trkpt lat="44.5205306" lon="9.6304622"><ele>632.0</ele><time>2026-04-29T10:48:02.801Z</time></trkpt><trkpt lat="44.5203787" lon="9.6305532"><ele>629.0</ele><time>2026-04-29T10:48:03.802Z</time></trkpt><trkpt lat="44.52023" lon="9.6306268"><ele>626.0</ele><time>2026-04-29T10:48:04.803Z</time></trkpt><trkpt lat="44.520092" lon="9.6306974"><ele>626.0</ele><time>2026-04-29T10:48:05.802Z</time></trkpt><trkpt lat="44.5199635" lon="9.6307787"><ele>626.0</ele><time>2026-04-29T10:48:06.802Z</time></trkpt><trkpt lat="44.5198529" lon="9.6308663"><ele>626.0</ele><time>2026-04-29T10:48:07.802Z</time></trkpt><trkpt lat="44.5197595" lon="9.6309669"><ele>626.0</ele><time>2026-04-29T10:48:08.802Z</time></trkpt><trkpt lat="44.5196916" lon="9.6310956"><ele>626.5</ele><time>2026-04-29T10:48:09.802Z</time></trkpt><trkpt lat="44.5196579" lon="9.6312524"><ele>627.0</ele><time>2026-04-29T10:48:10.802Z</time></trkpt><trkpt lat="44.5196516" lon="9.6314414"><ele>627.5</ele><time>2026-04-29T10:48:11.801Z</time></trkpt><trkpt lat="44.5196607" lon="9.6316554"><ele>628.0</ele><time>2026-04-29T10:48:12.803Z</time></trkpt><trkpt lat="44.5196659" lon="9.6318904"><ele>627.25</ele><time>2026-04-29T10:48:13.803Z</time></trkpt><trkpt lat="44.5196615" lon="9.6321047"><ele>626.5</ele><time>2026-04-29T10:48:14.802Z</time></trkpt><trkpt lat="44.5196359" lon="9.6323041"><ele>625.75</ele><time>2026-04-29T10:48:15.802Z</time></trkpt><trkpt lat="44.5195789" lon="9.632483"><ele>625.0</ele><time>2026-04-29T10:48:16.802Z</time></trkpt><trkpt lat="44.5195119" lon="9.6326414"><ele>622.0</ele><time>2026-04-29T10:48:17.802Z</time></trkpt><trkpt lat="44.5194816" lon="9.6328097"><ele>619.0</ele><time>2026-04-29T10:48:18.801Z</time></trkpt><trkpt lat="44.5194913" lon="9.6329899"><ele>616.0</ele><time>2026-04-29T10:48:19.803Z</time></trkpt><trkpt lat="44.5195224" lon="9.6331535"><ele>613.0</ele><time>2026-04-29T10:48:20.803Z</time></trkpt><trkpt lat="44.5195296" lon="9.6332809"><ele>613.0</ele><time>2026-04-29T10:48:21.802Z</time></trkpt><trkpt lat="44.5194974" lon="9.6333911"><ele>613.0</ele><time>2026-04-29T10:48:22.802Z</time></trkpt><trkpt lat="44.5194222" lon="9.6334801"><ele>613.0</ele><time>2026-04-29T10:48:23.802Z</time></trkpt><trkpt lat="44.5193091" lon="9.6335522"><ele>613.0</ele><time>2026-04-29T10:48:24.802Z</time></trkpt><trkpt lat="44.5191667" lon="9.6335876"><ele>613.0</ele><time>2026-04-29T10:48:25.803Z</time></trkpt><trkpt lat="44.5189903" lon="9.633613"><ele>613.0</ele><time>2026-04-29T10:48:26.802Z</time></trkpt><trkpt lat="44.5188129" lon="9.6336409"><ele>613.0</ele><time>2026-04-29T10:48:27.802Z</time></trkpt><trkpt lat="44.5186515" lon="9.6336598"><ele>611.3333333333334</ele><time>2026-04-29T10:48:28.802Z</time></trkpt><trkpt lat="44.5184918" lon="9.6336384"><ele>609.6666666666666</ele><time>2026-04-29T10:48:29.802Z</time></trkpt><trkpt lat="44.5183362" lon="9.6335814"><ele>608.0</ele><time>2026-04-29T10:48:30.802Z</time></trkpt><trkpt lat="44.5181983" lon="9.6335234"><ele>608.0</ele><time>2026-04-29T10:48:31.803Z</time></trkpt><trkpt lat="44.5180411" lon="9.6335024"><ele>608.0</ele><time>2026-04-29T10:48:32.801Z</time></trkpt><trkpt lat="44.5178652" lon="9.6335119"><ele>608.0</ele><time>2026-04-29T10:48:33.802Z</time></trkpt><trkpt lat="44.5176774" lon="9.6335441"><ele>606.3333333333333</ele><time>2026-04-29T10:48:34.803Z</time></trkpt><trkpt lat="44.5174955" lon="9.6335711"><ele>604.6666666666666</ele><time>2026-04-29T10:48:35.803Z</time></trkpt><trkpt lat="44.517321" lon="9.6335853"><ele>603.0</ele><time>2026-04-29T10:48:36.802Z</time></trkpt><trkpt lat="44.5171509" lon="9.6335784"><ele>601.6666666666666</ele><time>2026-04-29T10:48:37.802Z</time></trkpt><trkpt lat="44.5169888" lon="9.6335516"><ele>600.3333333333333</ele><time>2026-04-29T10:48:38.802Z</time></trkpt><trkpt lat="44.5168344" lon="9.6335129"><ele>599.0</ele><time>2026-04-29T10:48:39.802Z</time></trkpt><trkpt lat="44.5166904" lon="9.6334667"><ele>599.0</ele><time>2026-04-29T10:48:40.802Z</time></trkpt><trkpt lat="44.5165562" lon="9.6334104"><ele>599.0</ele><time>2026-04-29T10:48:41.801Z</time></trkpt><trkpt lat="44.5164349" lon="9.6333545"><ele>599.0</ele><time>2026-04-29T10:48:42.802Z</time></trkpt><trkpt lat="44.5163274" lon="9.6333042"><ele>599.0</ele><time>2026-04-29T10:48:43.802Z</time></trkpt><trkpt lat="44.5162294" lon="9.6332695"><ele>597.4</ele><time>2026-04-29T10:48:44.802Z</time></trkpt><trkpt lat="44.5161367" lon="9.6332801"><ele>595.8</ele><time>2026-04-29T10:48:45.802Z</time></trkpt><trkpt lat="44.51606" lon="9.633345"><ele>594.2</ele><time>2026-04-29T10:48:46.803Z</time></trkpt><trkpt lat="44.5160171" lon="9.6334575"><ele>592.6</ele><time>2026-04-29T10:48:47.802Z</time></trkpt><trkpt lat="44.5160148" lon="9.6336004"><ele>591.0</ele><time>2026-04-29T10:48:48.802Z</time></trkpt><trkpt lat="44.5160424" lon="9.6337691"><ele>590.0</ele><time>2026-04-29T10:48:49.801Z</time></trkpt><trkpt lat="44.5160947" lon="9.6339726"><ele>589.0</ele><time>2026-04-29T10:48:50.802Z</time></trkpt><trkpt lat="44.5161346" lon="9.634176"><ele>588.0</ele><time>2026-04-29T10:48:51.803Z</time></trkpt><trkpt lat="44.5161648" lon="9.6343691"><ele>587.0</ele><time>2026-04-29T10:48:52.803Z</time></trkpt><trkpt lat="44.5161726" lon="9.6345527"><ele>587.0</ele><time>2026-04-29T10:48:53.803Z</time></trkpt><trkpt lat="44.5161592" lon="9.6347219"><ele>587.0</ele><time>2026-04-29T10:48:54.802Z</time></trkpt><trkpt lat="44.5161103" lon="9.6348725"><ele>587.0</ele><time>2026-04-29T10:48:55.802Z</time></trkpt><trkpt lat="44.516029" lon="9.6349881"><ele>587.0</ele><time>2026-04-29T10:48:56.802Z</time></trkpt><trkpt lat="44.5159169" lon="9.6350624"><ele>587.0</ele><time>2026-04-29T10:48:57.802Z</time></trkpt><trkpt lat="44.5157853" lon="9.6350889"><ele>587.0</ele><time>2026-04-29T10:48:58.803Z</time></trkpt><trkpt lat="44.5156374" lon="9.6351097"><ele>587.0</ele><time>2026-04-29T10:48:59.801Z</time></trkpt><trkpt lat="44.5154694" lon="9.635151"><ele>584.6666666666666</ele><time>2026-04-29T10:49:00.801Z</time></trkpt><trkpt lat="44.5153172" lon="9.6351847"><ele>582.3333333333334</ele><time>2026-04-29T10:49:01.802Z</time></trkpt><trkpt lat="44.5151605" lon="9.6352028"><ele>580.0</ele><time>2026-04-29T10:49:02.802Z</time></trkpt><trkpt lat="44.5150048" lon="9.6352069"><ele>580.0</ele><time>2026-04-29T10:49:03.802Z</time></trkpt><trkpt lat="44.5148557" lon="9.6352191"><ele>580.0</ele><time>2026-04-29T10:49:04.802Z</time></trkpt><trkpt lat="44.5147071" lon="9.6352579"><ele>580.0</ele><time>2026-04-29T10:49:05.803Z</time></trkpt><trkpt lat="44.5145751" lon="9.6353159"><ele>580.0</ele><time>2026-04-29T10:49:06.802Z</time></trkpt><trkpt lat="44.514469" lon="9.635374"><ele>579.25</ele><time>2026-04-29T10:49:07.802Z</time></trkpt><trkpt lat="44.514366" lon="9.6354184"><ele>578.5</ele><time>2026-04-29T10:49:08.803Z</time></trkpt><trkpt lat="44.5142598" lon="9.6354306"><ele>577.75</ele><time>2026-04-29T10:49:09.802Z</time></trkpt><trkpt lat="44.5141455" lon="9.6354123"><ele>577.0</ele><time>2026-04-29T10:49:10.802Z</time></trkpt><trkpt lat="44.5140241" lon="9.6353701"><ele>577.0</ele><time>2026-04-29T10:49:11.802Z</time></trkpt><trkpt lat="44.5139095" lon="9.6353187"><ele>577.0</ele><time>2026-04-29T10:49:12.802Z</time></trkpt><trkpt lat="44.5138039" lon="9.6352647"><ele>577.0</ele><time>2026-04-29T10:49:13.802Z</time></trkpt><trkpt lat="44.5136922" lon="9.6352052"><ele>577.0</ele><time>2026-04-29T10:49:14.801Z</time></trkpt><trkpt lat="44.5135779" lon="9.6351386"><ele>576.25</ele><time>2026-04-29T10:49:15.801Z</time></trkpt><trkpt lat="44.5134659" lon="9.6350563"><ele>575.5</ele><time>2026-04-29T10:49:16.802Z</time></trkpt><trkpt lat="44.5133607" lon="9.6349547"><ele>574.75</ele><time>2026-04-29T10:49:17.803Z</time></trkpt><trkpt lat="44.5132686" lon="9.6348446"><ele>574.0</ele><time>2026-04-29T10:49:18.803Z</time></trkpt><trkpt lat="44.5131828" lon="9.6347298"><ele>574.0</ele><time>2026-04-29T10:49:19.802Z</time></trkpt><trkpt lat="44.5131009" lon="9.6346135"><ele>574.0</ele><time>2026-04-29T10:49:20.801Z</time></trkpt><trkpt lat="44.5130219" lon="9.6344971"><ele>574.0</ele><time>2026-04-29T10:49:21.802Z</time></trkpt><trkpt lat="44.5129445" lon="9.6343816"><ele>574.0</ele><time>2026-04-29T10:49:22.802Z</time></trkpt><trkpt lat="44.5128692" lon="9.6342696"><ele>572.4</ele><time>2026-04-29T10:49:23.802Z</time></trkpt><trkpt lat="44.5127981" lon="9.6341605"><ele>570.8</ele><time>2026-04-29T10:49:24.803Z</time></trkpt><trkpt lat="44.5127265" lon="9.6340535"><ele>569.2</ele><time>2026-04-29T10:49:25.803Z</time></trkpt><trkpt lat="44.512652" lon="9.6339574"><ele>567.6</ele><time>2026-04-29T10:49:26.803Z</time></trkpt><trkpt lat="44.512574" lon="9.633886"><ele>566.0</ele><time>2026-04-29T10:49:27.802Z</time></trkpt><trkpt lat="44.5124861" lon="9.6338552"><ele>566.0</ele><time>2026-04-29T10:49:28.803Z</time></trkpt><trkpt lat="44.5123907" lon="9.6338744"><ele>566.0</ele><time>2026-04-29T10:49:29.802Z</time></trkpt><trkpt lat="44.5122909" lon="9.6339271"><ele>566.0</ele><time>2026-04-29T10:49:30.802Z</time></trkpt><trkpt lat="44.5121805" lon="9.6339741"><ele>566.0</ele><time>2026-04-29T10:49:31.802Z</time></trkpt><trkpt lat="44.5120615" lon="9.6340086"><ele>566.0</ele><time>2026-04-29T10:49:32.801Z</time></trkpt><trkpt lat="44.511945" lon="9.6340257"><ele>565.0</ele><time>2026-04-29T10:49:33.802Z</time></trkpt><trkpt lat="44.5118287" lon="9.6340095"><ele>564.0</ele><time>2026-04-29T10:49:34.801Z</time></trkpt><trkpt lat="44.5117089" lon="9.6339561"><ele>563.0</ele><time>2026-04-29T10:49:35.801Z</time></trkpt><trkpt lat="44.5115869" lon="9.6338826"><ele>562.0</ele><time>2026-04-29T10:49:36.802Z</time></trkpt><trkpt lat="44.5114565" lon="9.6338032"><ele>562.0</ele><time>2026-04-29T10:49:37.803Z</time></trkpt><trkpt lat="44.511318" lon="9.6337125"><ele>562.0</ele><time>2026-04-29T10:49:38.803Z</time></trkpt><trkpt lat="44.5111772" lon="9.6336224"><ele>562.0</ele><time>2026-04-29T10:49:39.803Z</time></trkpt><trkpt lat="44.5110383" lon="9.6335433"><ele>560.75</ele><time>2026-04-29T10:49:40.802Z</time></trkpt><trkpt lat="44.5108983" lon="9.6334818"><ele>559.5</ele><time>2026-04-29T10:49:41.803Z</time></trkpt><trkpt lat="44.5107577" lon="9.6334481"><ele>558.25</ele><time>2026-04-29T10:49:42.802Z</time></trkpt><trkpt lat="44.5106196" lon="9.6334318"><ele>557.0</ele><time>2026-04-29T10:49:43.801Z</time></trkpt><trkpt lat="44.5104846" lon="9.6334187"><ele>555.5</ele><time>2026-04-29T10:49:44.802Z</time></trkpt><trkpt lat="44.5103495" lon="9.6334025"><ele>554.0</ele><time>2026-04-29T10:49:45.801Z</time></trkpt><trkpt lat="44.5102126" lon="9.6333767"><ele>552.5</ele><time>2026-04-29T10:49:46.803Z</time></trkpt><trkpt lat="44.5100718" lon="9.6333286"><ele>551.0</ele><time>2026-04-29T10:49:47.802Z</time></trkpt><trkpt lat="44.5099267" lon="9.6332575"><ele>551.0</ele><time>2026-04-29T10:49:48.803Z</time></trkpt><trkpt lat="44.5097801" lon="9.6331627"><ele>551.0</ele><time>2026-04-29T10:49:49.803Z</time></trkpt><trkpt lat="44.5096404" lon="9.6330518"><ele>551.0</ele><time>2026-04-29T10:49:50.803Z</time></trkpt><trkpt lat="44.5095167" lon="9.6329441"><ele>551.0</ele><time>2026-04-29T10:49:51.803Z</time></trkpt><trkpt lat="44.5094146" lon="9.6328184"><ele>551.0</ele><time>2026-04-29T10:49:52.802Z</time></trkpt><trkpt lat="44.5093392" lon="9.6326712"><ele>551.0</ele><time>2026-04-29T10:49:53.801Z</time></trkpt><trkpt lat="44.5092933" lon="9.6325021"><ele>551.0</ele><time>2026-04-29T10:49:54.803Z</time></trkpt><trkpt lat="44.5092778" lon="9.6323175"><ele>550.5</ele><time>2026-04-29T10:49:55.803Z</time></trkpt><trkpt lat="44.5092805" lon="9.6321221"><ele>550.0</ele><time>2026-04-29T10:49:56.803Z</time></trkpt><trkpt lat="44.5092929" lon="9.6319205"><ele>549.5</ele><time>2026-04-29T10:49:57.803Z</time></trkpt><trkpt lat="44.5093072" lon="9.6317232"><ele>549.0</ele><time>2026-04-29T10:49:58.802Z</time></trkpt><trkpt lat="44.5093202" lon="9.631532"><ele>548.25</ele><time>2026-04-29T10:49:59.802Z</time></trkpt><trkpt lat="44.5093322" lon="9.6313457"><ele>547.5</ele><time>2026-04-29T10:50:00.803Z</time></trkpt><trkpt lat="44.5093485" lon="9.6311645"><ele>546.75</ele><time>2026-04-29T10:50:01.802Z</time></trkpt><trkpt lat="44.5093614" lon="9.6309892"><ele>546.0</ele><time>2026-04-29T10:50:02.801Z</time></trkpt><trkpt lat="44.5093642" lon="9.6308053"><ele>545.25</ele><time>2026-04-29T10:50:03.803Z</time></trkpt><trkpt lat="44.5093459" lon="9.6306232"><ele>544.5</ele><time>2026-04-29T10:50:04.802Z</time></trkpt><trkpt lat="44.5093053" lon="9.6304429"><ele>543.75</ele><time>2026-04-29T10:50:05.803Z</time></trkpt><trkpt lat="44.50924" lon="9.6302681"><ele>543.0</ele><time>2026-04-29T10:50:06.802Z</time></trkpt><trkpt lat="44.5091595" lon="9.630095"><ele>542.25</ele><time>2026-04-29T10:50:07.803Z</time></trkpt><trkpt lat="44.5090729" lon="9.6299269"><ele>541.5</ele><time>2026-04-29T10:50:08.802Z</time></trkpt><trkpt lat="44.5089831" lon="9.6297685"><ele>540.75</ele><time>2026-04-29T10:50:09.802Z</time></trkpt><trkpt lat="44.5088793" lon="9.6296296"><ele>540.0</ele><time>2026-04-29T10:50:10.803Z</time></trkpt><trkpt lat="44.5087596" lon="9.6295087"><ele>537.6666666666666</ele><time>2026-04-29T10:50:11.803Z</time></trkpt><trkpt lat="44.5086289" lon="9.6293987"><ele>535.3333333333333</ele><time>2026-04-29T10:50:12.802Z</time></trkpt><trkpt lat="44.5084909" lon="9.6293134"><ele>533.0</ele><time>2026-04-29T10:50:13.803Z</time></trkpt><trkpt lat="44.5083451" lon="9.629253"><ele>533.0</ele><time>2026-04-29T10:50:14.802Z</time></trkpt><trkpt lat="44.5082071" lon="9.6292157"><ele>533.0</ele><time>2026-04-29T10:50:15.803Z</time></trkpt><trkpt lat="44.508084" lon="9.6291917"><ele>533.0</ele><time>2026-04-29T10:50:16.803Z</time></trkpt><trkpt lat="44.5079609" lon="9.6291934"><ele>533.0</ele><time>2026-04-29T10:50:17.802Z</time></trkpt><trkpt lat="44.5078387" lon="9.6292336"><ele>532.75</ele><time>2026-04-29T10:50:18.803Z</time></trkpt><trkpt lat="44.5077215" lon="9.6293142"><ele>532.5</ele><time>2026-04-29T10:50:19.803Z</time></trkpt><trkpt lat="44.5076068" lon="9.6294291"><ele>532.25</ele><time>2026-04-29T10:50:20.803Z</time></trkpt><trkpt lat="44.5074914" lon="9.6295526"><ele>532.0</ele><time>2026-04-29T10:50:21.803Z</time></trkpt><trkpt lat="44.5073817" lon="9.629675"><ele>532.0</ele><time>2026-04-29T10:50:22.803Z</time></trkpt><trkpt lat="44.5072772" lon="9.6297917"><ele>532.0</ele><time>2026-04-29T10:50:23.802Z</time></trkpt><trkpt lat="44.5071768" lon="9.6299044"><ele>532.0</ele><time>2026-04-29T10:50:24.802Z</time></trkpt><trkpt lat="44.5070823" lon="9.6300136"><ele>532.0</ele><time>2026-04-29T10:50:25.801Z</time></trkpt><trkpt lat="44.5069871" lon="9.630118"><ele>533.5</ele><time>2026-04-29T10:50:26.802Z</time></trkpt><trkpt lat="44.5068905" lon="9.6302099"><ele>535.0</ele><time>2026-04-29T10:50:27.802Z</time></trkpt><trkpt lat="44.506786" lon="9.6302818"><ele>536.5</ele><time>2026-04-29T10:50:28.802Z</time></trkpt><trkpt lat="44.5066765" lon="9.6303197"><ele>538.0</ele><time>2026-04-29T10:50:29.801Z</time></trkpt><trkpt lat="44.5065668" lon="9.6303165"><ele>534.25</ele><time>2026-04-29T10:50:30.802Z</time></trkpt><trkpt lat="44.5064533" lon="9.6302674"><ele>530.5</ele><time>2026-04-29T10:50:31.802Z</time></trkpt><trkpt lat="44.506335" lon="9.6301812"><ele>526.75</ele><time>2026-04-29T10:50:32.802Z</time></trkpt><trkpt lat="44.5062018" lon="9.6300778"><ele>523.0</ele><time>2026-04-29T10:50:33.801Z</time></trkpt><trkpt lat="44.5060691" lon="9.6299789"><ele>522.75</ele><time>2026-04-29T10:50:34.801Z</time></trkpt><trkpt lat="44.5059448" lon="9.6298812"><ele>522.5</ele><time>2026-04-29T10:50:35.802Z</time></trkpt><trkpt lat="44.5058254" lon="9.6297824"><ele>522.25</ele><time>2026-04-29T10:50:36.802Z</time></trkpt><trkpt lat="44.505709" lon="9.6296929"><ele>522.0</ele><time>2026-04-29T10:50:37.802Z</time></trkpt><trkpt lat="44.5055928" lon="9.6296165"><ele>522.0</ele><time>2026-04-29T10:50:38.801Z</time></trkpt><trkpt lat="44.5054782" lon="9.6295507"><ele>522.0</ele><time>2026-04-29T10:50:39.802Z</time></trkpt><trkpt lat="44.5053639" lon="9.6294997"><ele>522.0</ele><time>2026-04-29T10:50:40.803Z</time></trkpt><trkpt lat="44.5052469" lon="9.6294735"><ele>522.0</ele><time>2026-04-29T10:50:41.802Z</time></trkpt><trkpt lat="44.5051372" lon="9.6294672"><ele>521.2</ele><time>2026-04-29T10:50:42.801Z</time></trkpt><trkpt lat="44.5050425" lon="9.6294695"><ele>520.4000000000001</ele><time>2026-04-29T10:50:43.802Z</time></trkpt><trkpt lat="44.5049687" lon="9.6294936"><ele>519.5999999999999</ele><time>2026-04-29T10:50:44.801Z</time></trkpt><trkpt lat="44.5048674" lon="9.6295483"><ele>518.8</ele><time>2026-04-29T10:50:46.802Z</time></trkpt><trkpt lat="44.5047887" lon="9.6294946"><ele>518.0</ele><time>2026-04-29T10:50:48.802Z</time></trkpt><trkpt lat="44.5047442" lon="9.6293317"><ele>516.0</ele><time>2026-04-29T10:50:50.802Z</time></trkpt><trkpt lat="44.5047383" lon="9.6292168"><ele>514.0</ele><time>2026-04-29T10:50:51.801Z</time></trkpt><trkpt lat="44.5047322" lon="9.6290819"><ele>511.99999999999994</ele><time>2026-04-29T10:50:52.802Z</time></trkpt><trkpt lat="44.5047218" lon="9.6289414"><ele>510.0</ele><time>2026-04-29T10:50:53.802Z</time></trkpt><trkpt lat="44.504717" lon="9.6288073"><ele>508.0</ele><time>2026-04-29T10:50:54.802Z</time></trkpt><trkpt lat="44.5047115" lon="9.6286753"><ele>507.2</ele><time>2026-04-29T10:50:55.803Z</time></trkpt><trkpt lat="44.5047072" lon="9.6285313"><ele>506.4</ele><time>2026-04-29T10:50:56.803Z</time></trkpt><trkpt lat="44.5047058" lon="9.628396"><ele>505.59999999999997</ele><time>2026-04-29T10:50:57.802Z</time></trkpt><trkpt lat="44.5047104" lon="9.6282628"><ele>504.79999999999995</ele><time>2026-04-29T10:50:58.803Z</time></trkpt><trkpt lat="44.5047258" lon="9.6281216"><ele>504.0</ele><time>2026-04-29T10:50:59.803Z</time></trkpt><trkpt lat="44.5047482" lon="9.6279819"><ele>504.0</ele><time>2026-04-29T10:51:00.802Z</time></trkpt><trkpt lat="44.5047771" lon="9.627842"><ele>504.0</ele><time>2026-04-29T10:51:01.802Z</time></trkpt><trkpt lat="44.5048084" lon="9.6277047"><ele>504.0</ele><time>2026-04-29T10:51:02.801Z</time></trkpt><trkpt lat="44.504843" lon="9.6275667"><ele>504.0</ele><time>2026-04-29T10:51:03.802Z</time></trkpt><trkpt lat="44.5048784" lon="9.6274357"><ele>504.0</ele><time>2026-04-29T10:51:04.802Z</time></trkpt><trkpt lat="44.5049113" lon="9.6273161"><ele>504.3333333333333</ele><time>2026-04-29T10:51:05.802Z</time></trkpt><trkpt lat="44.5049413" lon="9.6272038"><ele>504.66666666666663</ele><time>2026-04-29T10:51:06.802Z</time></trkpt><trkpt lat="44.5049734" lon="9.6270975"><ele>505.0</ele><time>2026-04-29T10:51:07.802Z</time></trkpt><trkpt lat="44.5050108" lon="9.6269933"><ele>505.3333333333333</ele><time>2026-04-29T10:51:08.801Z</time></trkpt><trkpt lat="44.5050376" lon="9.6268731"><ele>505.66666666666663</ele><time>2026-04-29T10:51:09.803Z</time></trkpt><trkpt lat="44.5050392" lon="9.6267407"><ele>506.0</ele><time>2026-04-29T10:51:10.803Z</time></trkpt><trkpt lat="44.5050111" lon="9.6266111"><ele>506.8</ele><time>2026-04-29T10:51:11.802Z</time></trkpt><trkpt lat="44.5049542" lon="9.6265007"><ele>507.6</ele><time>2026-04-29T10:51:12.802Z</time></trkpt><trkpt lat="44.5048733" lon="9.6264204"><ele>508.4</ele><time>2026-04-29T10:51:13.803Z</time></trkpt><trkpt lat="44.5047796" lon="9.6263834"><ele>509.2</ele><time>2026-04-29T10:51:14.802Z</time></trkpt><trkpt lat="44.5046814" lon="9.6263885"><ele>510.0</ele><time>2026-04-29T10:51:15.803Z</time></trkpt><trkpt lat="44.5045742" lon="9.6264315"><ele>511.75</ele><time>2026-04-29T10:51:16.802Z</time></trkpt><trkpt lat="44.5044524" lon="9.6265029"><ele>513.5</ele><time>2026-04-29T10:51:17.802Z</time></trkpt><trkpt lat="44.5043156" lon="9.6265928"><ele>515.25</ele><time>2026-04-29T10:51:18.802Z</time></trkpt><trkpt lat="44.5041783" lon="9.6267091"><ele>517.0</ele><time>2026-04-29T10:51:19.801Z</time></trkpt><trkpt lat="44.5040665" lon="9.626855"><ele>515.75</ele><time>2026-04-29T10:51:20.803Z</time></trkpt><trkpt lat="44.5039693" lon="9.6270173"><ele>514.5</ele><time>2026-04-29T10:51:21.803Z</time></trkpt><trkpt lat="44.5038633" lon="9.627144"><ele>513.25</ele><time>2026-04-29T10:51:22.803Z</time></trkpt><trkpt lat="44.503747" lon="9.6272223"><ele>512.0</ele><time>2026-04-29T10:51:23.802Z</time></trkpt><trkpt lat="44.503621" lon="9.6272526"><ele>512.0</ele><time>2026-04-29T10:51:24.802Z</time></trkpt><trkpt lat="44.5034893" lon="9.6272385"><ele>512.0</ele><time>2026-04-29T10:51:25.802Z</time></trkpt><trkpt lat="44.503353" lon="9.627176"><ele>512.0</ele><time>2026-04-29T10:51:26.802Z</time></trkpt><trkpt lat="44.5032045" lon="9.6271126"><ele>512.0</ele><time>2026-04-29T10:51:27.802Z</time></trkpt><trkpt lat="44.5030442" lon="9.6271083"><ele>512.25</ele><time>2026-04-29T10:51:28.802Z</time></trkpt><trkpt lat="44.5028925" lon="9.6271234"><ele>512.5</ele><time>2026-04-29T10:51:29.802Z</time></trkpt><trkpt lat="44.5027581" lon="9.627105"><ele>512.75</ele><time>2026-04-29T10:51:30.803Z</time></trkpt><trkpt lat="44.5026566" lon="9.6270332"><ele>513.0</ele><time>2026-04-29T10:51:31.802Z</time></trkpt><trkpt lat="44.5025917" lon="9.6269229"><ele>515.25</ele><time>2026-04-29T10:51:32.802Z</time></trkpt><trkpt lat="44.5025627" lon="9.6267743"><ele>517.5</ele><time>2026-04-29T10:51:33.802Z</time></trkpt><trkpt lat="44.5025616" lon="9.6265829"><ele>519.75</ele><time>2026-04-29T10:51:34.803Z</time></trkpt><trkpt lat="44.5025688" lon="9.6263592"><ele>522.0</ele><time>2026-04-29T10:51:35.802Z</time></trkpt><trkpt lat="44.502574" lon="9.6261238"><ele>523.0</ele><time>2026-04-29T10:51:36.801Z</time></trkpt><trkpt lat="44.5025838" lon="9.625923"><ele>524.0</ele><time>2026-04-29T10:51:37.802Z</time></trkpt><trkpt lat="44.5025919" lon="9.6257433"><ele>525.0</ele><time>2026-04-29T10:51:38.803Z</time></trkpt><trkpt lat="44.5025846" lon="9.6255867"><ele>526.0</ele><time>2026-04-29T10:51:39.803Z</time></trkpt><trkpt lat="44.502547" lon="9.6254434"><ele>526.0</ele><time>2026-04-29T10:51:40.803Z</time></trkpt><trkpt lat="44.5024783" lon="9.6253256"><ele>526.0</ele><time>2026-04-29T10:51:41.803Z</time></trkpt><trkpt lat="44.5023902" lon="9.6252642"><ele>526.0</ele><time>2026-04-29T10:51:42.803Z</time></trkpt><trkpt lat="44.5022931" lon="9.62526"><ele>526.0</ele><time>2026-04-29T10:51:43.802Z</time></trkpt><trkpt lat="44.5022082" lon="9.6253182"><ele>526.0</ele><time>2026-04-29T10:51:44.802Z</time></trkpt><trkpt lat="44.5021384" lon="9.6254305"><ele>526.0</ele><time>2026-04-29T10:51:45.802Z</time></trkpt><trkpt lat="44.5020848" lon="9.6255865"><ele>526.0</ele><time>2026-04-29T10:51:46.802Z</time></trkpt><trkpt lat="44.502034" lon="9.6257718"><ele>526.0</ele><time>2026-04-29T10:51:47.803Z</time></trkpt><trkpt lat="44.5019798" lon="9.6259799"><ele>526.0</ele><time>2026-04-29T10:51:48.803Z</time></trkpt><trkpt lat="44.5019238" lon="9.6261716"><ele>527.0</ele><time>2026-04-29T10:51:49.803Z</time></trkpt><trkpt lat="44.5018676" lon="9.6263418"><ele>528.0</ele><time>2026-04-29T10:51:50.802Z</time></trkpt><trkpt lat="44.5018099" lon="9.6264953"><ele>529.0</ele><time>2026-04-29T10:51:51.802Z</time></trkpt><trkpt lat="44.5017474" lon="9.6266303"><ele>530.0</ele><time>2026-04-29T10:51:52.802Z</time></trkpt><trkpt lat="44.5016697" lon="9.6267312"><ele>530.0</ele><time>2026-04-29T10:51:53.803Z</time></trkpt><trkpt lat="44.5015767" lon="9.6267828"><ele>530.0</ele><time>2026-04-29T10:51:54.803Z</time></trkpt><trkpt lat="44.5014793" lon="9.6267714"><ele>530.0</ele><time>2026-04-29T10:51:55.802Z</time></trkpt><trkpt lat="44.5013903" lon="9.6267186"><ele>530.0</ele><time>2026-04-29T10:51:56.802Z</time></trkpt><trkpt lat="44.5013036" lon="9.6266166"><ele>530.0</ele><time>2026-04-29T10:51:57.803Z</time></trkpt><trkpt lat="44.5012135" lon="9.626479"><ele>531.0</ele><time>2026-04-29T10:51:58.802Z</time></trkpt><trkpt lat="44.5011223" lon="9.626325"><ele>532.0</ele><time>2026-04-29T10:51:59.801Z</time></trkpt><trkpt lat="44.501044" lon="9.6261884"><ele>533.0</ele><time>2026-04-29T10:52:00.802Z</time></trkpt><trkpt lat="44.5009672" lon="9.6260739"><ele>534.0</ele><time>2026-04-29T10:52:01.802Z</time></trkpt><trkpt lat="44.5008839" lon="9.6260044"><ele>534.0</ele><time>2026-04-29T10:52:02.801Z</time></trkpt><trkpt lat="44.5007973" lon="9.625978"><ele>534.0</ele><time>2026-04-29T10:52:03.802Z</time></trkpt><trkpt lat="44.5007184" lon="9.6260062"><ele>534.0</ele><time>2026-04-29T10:52:04.803Z</time></trkpt><trkpt lat="44.5006558" lon="9.6260825"><ele>534.0</ele><time>2026-04-29T10:52:05.803Z</time></trkpt><trkpt lat="44.5006255" lon="9.6261995"><ele>534.0</ele><time>2026-04-29T10:52:06.802Z</time></trkpt><trkpt lat="44.5006303" lon="9.6263432"><ele>534.0</ele><time>2026-04-29T10:52:07.802Z</time></trkpt><trkpt lat="44.5006446" lon="9.6265105"><ele>534.0</ele><time>2026-04-29T10:52:08.803Z</time></trkpt><trkpt lat="44.5006382" lon="9.6266953"><ele>534.0</ele><time>2026-04-29T10:52:09.802Z</time></trkpt><trkpt lat="44.5006176" lon="9.6268494"><ele>534.0</ele><time>2026-04-29T10:52:10.802Z</time></trkpt><trkpt lat="44.5005798" lon="9.6269747"><ele>534.0</ele><time>2026-04-29T10:52:11.803Z</time></trkpt><trkpt lat="44.5005165" lon="9.6270642"><ele>534.0</ele><time>2026-04-29T10:52:12.802Z</time></trkpt><trkpt lat="44.5004383" lon="9.6271112"><ele>534.0</ele><time>2026-04-29T10:52:13.802Z</time></trkpt><trkpt lat="44.5003491" lon="9.6271043"><ele>534.0</ele><time>2026-04-29T10:52:14.802Z</time></trkpt><trkpt lat="44.5002475" lon="9.6270571"><ele>534.0</ele><time>2026-04-29T10:52:15.802Z</time></trkpt><trkpt lat="44.5001117" lon="9.6270085"><ele>534.0</ele><time>2026-04-29T10:52:16.802Z</time></trkpt><trkpt lat="44.4999478" lon="9.6269742"><ele>537.3333333333334</ele><time>2026-04-29T10:52:17.802Z</time></trkpt><trkpt lat="44.4997665" lon="9.6269557"><ele>540.6666666666667</ele><time>2026-04-29T10:52:18.803Z</time></trkpt><trkpt lat="44.4995983" lon="9.6269455"><ele>544.0</ele><time>2026-04-29T10:52:19.803Z</time></trkpt><trkpt lat="44.4994512" lon="9.6269468"><ele>542.75</ele><time>2026-04-29T10:52:20.803Z</time></trkpt><trkpt lat="44.499326" lon="9.6269809"><ele>541.5</ele><time>2026-04-29T10:52:21.802Z</time></trkpt><trkpt lat="44.4992278" lon="9.6270641"><ele>540.25</ele><time>2026-04-29T10:52:22.801Z</time></trkpt><trkpt lat="44.499153" lon="9.6271956"><ele>539.0</ele><time>2026-04-29T10:52:23.802Z</time></trkpt><trkpt lat="44.4990853" lon="9.6273454"><ele>539.0</ele><time>2026-04-29T10:52:24.802Z</time></trkpt><trkpt lat="44.4989987" lon="9.6274411"><ele>539.0</ele><time>2026-04-29T10:52:25.802Z</time></trkpt><trkpt lat="44.4988929" lon="9.6274944"><ele>539.0</ele><time>2026-04-29T10:52:26.803Z</time></trkpt><trkpt lat="44.498776" lon="9.627495"><ele>539.0</ele><time>2026-04-29T10:52:27.803Z</time></trkpt><trkpt lat="44.4986439" lon="9.6274747"><ele>541.0</ele><time>2026-04-29T10:52:28.803Z</time></trkpt><trkpt lat="44.4985149" lon="9.627478"><ele>543.0</ele><time>2026-04-29T10:52:29.802Z</time></trkpt><trkpt lat="44.4983914" lon="9.6275325"><ele>545.0</ele><time>2026-04-29T10:52:30.802Z</time></trkpt><trkpt lat="44.4982732" lon="9.6276319"><ele>547.0</ele><time>2026-04-29T10:52:31.803Z</time></trkpt><trkpt lat="44.4981576" lon="9.6277499"><ele>548.25</ele><time>2026-04-29T10:52:32.803Z</time></trkpt><trkpt lat="44.4980213" lon="9.6278271"><ele>549.5</ele><time>2026-04-29T10:52:33.802Z</time></trkpt><trkpt lat="44.4978873" lon="9.6278429"><ele>550.75</ele><time>2026-04-29T10:52:34.802Z</time></trkpt><trkpt lat="44.4977615" lon="9.6278116"><ele>552.0</ele><time>2026-04-29T10:52:35.802Z</time></trkpt><trkpt lat="44.4976464" lon="9.6277852"><ele>552.0</ele><time>2026-04-29T10:52:36.802Z</time></trkpt><trkpt lat="44.4975363" lon="9.6278232"><ele>552.0</ele><time>2026-04-29T10:52:37.802Z</time></trkpt><trkpt lat="44.4974428" lon="9.6279155"><ele>552.0</ele><time>2026-04-29T10:52:38.802Z</time></trkpt><trkpt lat="44.49738" lon="9.6280395"><ele>552.0</ele><time>2026-04-29T10:52:39.803Z</time></trkpt><trkpt lat="44.4973607" lon="9.6281817"><ele>552.0</ele><time>2026-04-29T10:52:40.801Z</time></trkpt><trkpt lat="44.4973861" lon="9.6283179"><ele>552.0</ele><time>2026-04-29T10:52:41.801Z</time></trkpt><trkpt lat="44.4974463" lon="9.6284616"><ele>552.0</ele><time>2026-04-29T10:52:42.802Z</time></trkpt><trkpt lat="44.4975161" lon="9.6286286"><ele>552.0</ele><time>2026-04-29T10:52:43.803Z</time></trkpt><trkpt lat="44.497558" lon="9.6287836"><ele>552.0</ele><time>2026-04-29T10:52:44.803Z</time></trkpt><trkpt lat="44.4975705" lon="9.6289429"><ele>551.8000000000001</ele><time>2026-04-29T10:52:45.803Z</time></trkpt><trkpt lat="44.4975433" lon="9.6290814"><ele>551.6</ele><time>2026-04-29T10:52:46.803Z</time></trkpt><trkpt lat="44.4974796" lon="9.6291831"><ele>551.4000000000001</ele><time>2026-04-29T10:52:47.802Z</time></trkpt><trkpt lat="44.4973894" lon="9.6292465"><ele>551.2</ele><time>2026-04-29T10:52:48.801Z</time></trkpt><trkpt lat="44.4972827" lon="9.6292672"><ele>551.0</ele><time>2026-04-29T10:52:49.801Z</time></trkpt><trkpt lat="44.4971717" lon="9.6292399"><ele>554.5</ele><time>2026-04-29T10:52:50.802Z</time></trkpt><trkpt lat="44.4970511" lon="9.6292056"><ele>558.0</ele><time>2026-04-29T10:52:51.801Z</time></trkpt><trkpt lat="44.4969454" lon="9.6292266"><ele>561.5</ele><time>2026-04-29T10:52:52.802Z</time></trkpt><trkpt lat="44.4968467" lon="9.6292896"><ele>565.0</ele><time>2026-04-29T10:52:53.803Z</time></trkpt><trkpt lat="44.4967974" lon="9.6294295"><ele>563.25</ele><time>2026-04-29T10:52:54.803Z</time></trkpt><trkpt lat="44.4967857" lon="9.6295874"><ele>561.5</ele><time>2026-04-29T10:52:55.802Z</time></trkpt><trkpt lat="44.4967593" lon="9.6297532"><ele>559.75</ele><time>2026-04-29T10:52:56.802Z</time></trkpt><trkpt lat="44.4966963" lon="9.6299143"><ele>558.0</ele><time>2026-04-29T10:52:57.803Z</time></trkpt><trkpt lat="44.4965955" lon="9.6300601"><ele>558.0</ele><time>2026-04-29T10:52:58.802Z</time></trkpt><trkpt lat="44.4964654" lon="9.6301968"><ele>558.0</ele><time>2026-04-29T10:52:59.803Z</time></trkpt><trkpt lat="44.4963071" lon="9.6303389"><ele>558.0</ele><time>2026-04-29T10:53:00.802Z</time></trkpt><trkpt lat="44.4961442" lon="9.6304834"><ele>560.6666666666666</ele><time>2026-04-29T10:53:01.801Z</time></trkpt><trkpt lat="44.4959933" lon="9.6306096"><ele>563.3333333333333</ele><time>2026-04-29T10:53:02.802Z</time></trkpt><trkpt lat="44.4958329" lon="9.6307003"><ele>566.0</ele><time>2026-04-29T10:53:03.802Z</time></trkpt><trkpt lat="44.4956716" lon="9.630747"><ele>566.0</ele><time>2026-04-29T10:53:04.803Z</time></trkpt><trkpt lat="44.49552" lon="9.6307521"><ele>566.0</ele><time>2026-04-29T10:53:05.803Z</time></trkpt><trkpt lat="44.4953689" lon="9.6307074"><ele>566.0</ele><time>2026-04-29T10:53:06.801Z</time></trkpt><trkpt lat="44.4952309" lon="9.630617"><ele>565.0</ele><time>2026-04-29T10:53:07.802Z</time></trkpt><trkpt lat="44.4951262" lon="9.6304835"><ele>564.0</ele><time>2026-04-29T10:53:08.802Z</time></trkpt><trkpt lat="44.4950454" lon="9.630309"><ele>563.0</ele><time>2026-04-29T10:53:09.803Z</time></trkpt><trkpt lat="44.4949916" lon="9.6300978"><ele>563.0</ele><time>2026-04-29T10:53:10.803Z</time></trkpt><trkpt lat="44.4949485" lon="9.6298644"><ele>563.0</ele><time>2026-04-29T10:53:11.802Z</time></trkpt><trkpt lat="44.4948989" lon="9.6296132"><ele>563.0</ele><time>2026-04-29T10:53:12.801Z</time></trkpt><trkpt lat="44.4948478" lon="9.6293451"><ele>563.6666666666666</ele><time>2026-04-29T10:53:13.801Z</time></trkpt><trkpt lat="44.4947956" lon="9.6290631"><ele>564.3333333333334</ele><time>2026-04-29T10:53:14.802Z</time></trkpt><trkpt lat="44.4947449" lon="9.6287919"><ele>565.0</ele><time>2026-04-29T10:53:15.803Z</time></trkpt><trkpt lat="44.4946952" lon="9.6285388"><ele>565.0</ele><time>2026-04-29T10:53:16.802Z</time></trkpt><trkpt lat="44.4946516" lon="9.6283048"><ele>565.0</ele><time>2026-04-29T10:53:17.802Z</time></trkpt><trkpt lat="44.4946047" lon="9.6280976"><ele>565.0</ele><time>2026-04-29T10:53:18.801Z</time></trkpt><trkpt lat="44.494547" lon="9.6279162"><ele>559.75</ele><time>2026-04-29T10:53:19.803Z</time></trkpt><trkpt lat="44.4944767" lon="9.6277547"><ele>554.5</ele><time>2026-04-29T10:53:20.801Z</time></trkpt><trkpt lat="44.4944009" lon="9.6276132"><ele>549.25</ele><time>2026-04-29T10:53:21.802Z</time></trkpt><trkpt lat="44.4943424" lon="9.6274769"><ele>544.0</ele><time>2026-04-29T10:53:22.802Z</time></trkpt><trkpt lat="44.494313" lon="9.6273226"><ele>544.0</ele><time>2026-04-29T10:53:23.803Z</time></trkpt><trkpt lat="44.4943078" lon="9.6271479"><ele>544.0</ele><time>2026-04-29T10:53:24.802Z</time></trkpt><trkpt lat="44.4943184" lon="9.6269577"><ele>544.0</ele><time>2026-04-29T10:53:25.801Z</time></trkpt><trkpt lat="44.4943321" lon="9.6267544"><ele>544.0</ele><time>2026-04-29T10:53:26.801Z</time></trkpt><trkpt lat="44.4943463" lon="9.6265548"><ele>544.0</ele><time>2026-04-29T10:53:27.803Z</time></trkpt><trkpt lat="44.4943568" lon="9.626363"><ele>544.0</ele><time>2026-04-29T10:53:28.801Z</time></trkpt><trkpt lat="44.4943615" lon="9.6261632"><ele>544.0</ele><time>2026-04-29T10:53:29.801Z</time></trkpt><trkpt lat="44.49436" lon="9.6259584"><ele>544.0</ele><time>2026-04-29T10:53:30.802Z</time></trkpt><trkpt lat="44.4943546" lon="9.6257612"><ele>544.0</ele><time>2026-04-29T10:53:31.802Z</time></trkpt><trkpt lat="44.4943479" lon="9.6255751"><ele>544.0</ele><time>2026-04-29T10:53:32.802Z</time></trkpt><trkpt lat="44.4943416" lon="9.6253919"><ele>544.0</ele><time>2026-04-29T10:53:33.802Z</time></trkpt><trkpt lat="44.4943397" lon="9.625215"><ele>544.0</ele><time>2026-04-29T10:53:34.802Z</time></trkpt><trkpt lat="44.4943494" lon="9.6250452"><ele>543.25</ele><time>2026-04-29T10:53:35.801Z</time></trkpt><trkpt lat="44.4943741" lon="9.6248844"><ele>542.5</ele><time>2026-04-29T10:53:36.802Z</time></trkpt><trkpt lat="44.4943979" lon="9.6247293"><ele>541.75</ele><time>2026-04-29T10:53:37.802Z</time></trkpt><trkpt lat="44.4943982" lon="9.6245605"><ele>541.0</ele><time>2026-04-29T10:53:38.803Z</time></trkpt><trkpt lat="44.4943709" lon="9.6243952"><ele>540.75</ele><time>2026-04-29T10:53:39.803Z</time></trkpt><trkpt lat="44.4943191" lon="9.6242528"><ele>540.5</ele><time>2026-04-29T10:53:40.802Z</time></trkpt><trkpt lat="44.4942414" lon="9.6241197"><ele>540.25</ele><time>2026-04-29T10:53:41.802Z</time></trkpt><trkpt lat="44.4941438" lon="9.6239876"><ele>540.0</ele><time>2026-04-29T10:53:42.802Z</time></trkpt><trkpt lat="44.4940418" lon="9.6238452"><ele>540.0</ele><time>2026-04-29T10:53:43.803Z</time></trkpt><trkpt lat="44.493955" lon="9.6237008"><ele>540.0</ele><time>2026-04-29T10:53:44.803Z</time></trkpt><trkpt lat="44.4938829" lon="9.6235379"><ele>540.0</ele><time>2026-04-29T10:53:45.802Z</time></trkpt><trkpt lat="44.4938337" lon="9.6233582"><ele>540.0</ele><time>2026-04-29T10:53:46.802Z</time></trkpt><trkpt lat="44.493804" lon="9.6231861"><ele>541.6</ele><time>2026-04-29T10:53:47.802Z</time></trkpt><trkpt lat="44.4937687" lon="9.6230303"><ele>543.2</ele><time>2026-04-29T10:53:48.801Z</time></trkpt><trkpt lat="44.4937275" lon="9.622896"><ele>544.8</ele><time>2026-04-29T10:53:49.802Z</time></trkpt><trkpt lat="44.4936783" lon="9.6227799"><ele>546.4</ele><time>2026-04-29T10:53:50.803Z</time></trkpt><trkpt lat="44.4936296" lon="9.6226782"><ele>548.0</ele><time>2026-04-29T10:53:51.802Z</time></trkpt><trkpt lat="44.4935912" lon="9.6225728"><ele>542.8</ele><time>2026-04-29T10:53:52.803Z</time></trkpt><trkpt lat="44.4935707" lon="9.6224547"><ele>537.5999999999999</ele><time>2026-04-29T10:53:53.803Z</time></trkpt><trkpt lat="44.4935715" lon="9.6223246"><ele>532.4000000000001</ele><time>2026-04-29T10:53:54.803Z</time></trkpt><trkpt lat="44.4936009" lon="9.6221977"><ele>527.2</ele><time>2026-04-29T10:53:55.803Z</time></trkpt><trkpt lat="44.4936598" lon="9.6220797"><ele>522.0</ele><time>2026-04-29T10:53:56.801Z</time></trkpt><trkpt lat="44.4937357" lon="9.6219535"><ele>525.25</ele><time>2026-04-29T10:53:57.802Z</time></trkpt><trkpt lat="44.4938238" lon="9.6218232"><ele>528.5</ele><time>2026-04-29T10:53:58.802Z</time></trkpt><trkpt lat="44.493922" lon="9.6216868"><ele>531.75</ele><time>2026-04-29T10:53:59.802Z</time></trkpt><trkpt lat="44.4940305" lon="9.6215559"><ele>535.0</ele><time>2026-04-29T10:54:00.802Z</time></trkpt><trkpt lat="44.4941368" lon="9.6214343"><ele>535.0</ele><time>2026-04-29T10:54:01.801Z</time></trkpt><trkpt lat="44.4942359" lon="9.6213327"><ele>535.0</ele><time>2026-04-29T10:54:02.801Z</time></trkpt><trkpt lat="44.4943375" lon="9.6212592"><ele>535.0</ele><time>2026-04-29T10:54:03.801Z</time></trkpt><trkpt lat="44.4944512" lon="9.6212221"><ele>535.0</ele><time>2026-04-29T10:54:04.802Z</time></trkpt><trkpt lat="44.4945633" lon="9.6212137"><ele>533.6</ele><time>2026-04-29T10:54:05.802Z</time></trkpt><trkpt lat="44.4946741" lon="9.6212128"><ele>532.2</ele><time>2026-04-29T10:54:06.801Z</time></trkpt><trkpt lat="44.4947683" lon="9.6211802"><ele>530.8</ele><time>2026-04-29T10:54:07.803Z</time></trkpt><trkpt lat="44.4948293" lon="9.6210807"><ele>529.4</ele><time>2026-04-29T10:54:08.803Z</time></trkpt><trkpt lat="44.4948621" lon="9.620966"><ele>528.0</ele><time>2026-04-29T10:54:09.802Z</time></trkpt><trkpt lat="44.494859" lon="9.6208331"><ele>528.0</ele><time>2026-04-29T10:54:10.801Z</time></trkpt><trkpt lat="44.4948289" lon="9.6206926"><ele>528.0</ele><time>2026-04-29T10:54:11.802Z</time></trkpt><trkpt lat="44.4947945" lon="9.6205353"><ele>528.0</ele><time>2026-04-29T10:54:12.802Z</time></trkpt><trkpt lat="44.4947657" lon="9.6203866"><ele>528.0</ele><time>2026-04-29T10:54:13.802Z</time></trkpt><trkpt lat="44.4947604" lon="9.6202416"><ele>528.0</ele><time>2026-04-29T10:54:14.803Z</time></trkpt><trkpt lat="44.4947883" lon="9.6201103"><ele>527.5</ele><time>2026-04-29T10:54:15.803Z</time></trkpt><trkpt lat="44.4948504" lon="9.6199917"><ele>527.0</ele><time>2026-04-29T10:54:16.802Z</time></trkpt><trkpt lat="44.4949335" lon="9.6198779"><ele>526.5</ele><time>2026-04-29T10:54:17.802Z</time></trkpt><trkpt lat="44.495028" lon="9.6197592"><ele>526.0</ele><time>2026-04-29T10:54:18.802Z</time></trkpt><trkpt lat="44.4951355" lon="9.6196395"><ele>526.0</ele><time>2026-04-29T10:54:19.801Z</time></trkpt><trkpt lat="44.4952532" lon="9.6195134"><ele>526.0</ele><time>2026-04-29T10:54:20.802Z</time></trkpt><trkpt lat="44.4953639" lon="9.6193687"><ele>526.0</ele><time>2026-04-29T10:54:21.803Z</time></trkpt><trkpt lat="44.4954647" lon="9.6191844"><ele>526.3333333333334</ele><time>2026-04-29T10:54:22.803Z</time></trkpt><trkpt lat="44.4955652" lon="9.6189637"><ele>526.6666666666666</ele><time>2026-04-29T10:54:23.802Z</time></trkpt><trkpt lat="44.4956665" lon="9.6187233"><ele>527.0</ele><time>2026-04-29T10:54:24.801Z</time></trkpt><trkpt lat="44.4957586" lon="9.618506"><ele>527.0</ele><time>2026-04-29T10:54:25.802Z</time></trkpt><trkpt lat="44.4958369" lon="9.6183236"><ele>527.0</ele><time>2026-04-29T10:54:26.802Z</time></trkpt><trkpt lat="44.4958959" lon="9.6181639"><ele>527.0</ele><time>2026-04-29T10:54:27.802Z</time></trkpt><trkpt lat="44.4959215" lon="9.618008"><ele>527.0</ele><time>2026-04-29T10:54:28.802Z</time></trkpt><trkpt lat="44.4959089" lon="9.617847"><ele>524.75</ele><time>2026-04-29T10:54:29.802Z</time></trkpt><trkpt lat="44.4958538" lon="9.6176931"><ele>522.5</ele><time>2026-04-29T10:54:30.803Z</time></trkpt><trkpt lat="44.4957588" lon="9.617571"><ele>520.25</ele><time>2026-04-29T10:54:31.802Z</time></trkpt><trkpt lat="44.4956333" lon="9.6174685"><ele>518.0</ele><time>2026-04-29T10:54:32.803Z</time></trkpt><trkpt lat="44.4954942" lon="9.6173755"><ele>517.75</ele><time>2026-04-29T10:54:33.802Z</time></trkpt><trkpt lat="44.4953788" lon="9.6172849"><ele>517.5</ele><time>2026-04-29T10:54:34.801Z</time></trkpt><trkpt lat="44.4952676" lon="9.6172094"><ele>517.25</ele><time>2026-04-29T10:54:35.802Z</time></trkpt><trkpt lat="44.4951572" lon="9.6171789"><ele>517.0</ele><time>2026-04-29T10:54:36.803Z</time></trkpt><trkpt lat="44.4950513" lon="9.6172115"><ele>517.0</ele><time>2026-04-29T10:54:37.801Z</time></trkpt><trkpt lat="44.4949588" lon="9.6173043"><ele>517.0</ele><time>2026-04-29T10:54:38.802Z</time></trkpt><trkpt lat="44.4948852" lon="9.6174413"><ele>517.0</ele><time>2026-04-29T10:54:39.802Z</time></trkpt><trkpt lat="44.494804" lon="9.6175983"><ele>517.0</ele><time>2026-04-29T10:54:40.803Z</time></trkpt><trkpt lat="44.4946978" lon="9.6177521"><ele>517.6666666666667</ele><time>2026-04-29T10:54:41.801Z</time></trkpt><trkpt lat="44.4945688" lon="9.6179135"><ele>518.3333333333334</ele><time>2026-04-29T10:54:42.803Z</time></trkpt><trkpt lat="44.4944298" lon="9.6180666"><ele>519.0</ele><time>2026-04-29T10:54:43.802Z</time></trkpt><trkpt lat="44.4942866" lon="9.6182155"><ele>519.0</ele><time>2026-04-29T10:54:44.802Z</time></trkpt><trkpt lat="44.4941587" lon="9.6183577"><ele>519.0</ele><time>2026-04-29T10:54:45.802Z</time></trkpt><trkpt lat="44.4940459" lon="9.618486"><ele>519.0</ele><time>2026-04-29T10:54:46.802Z</time></trkpt><trkpt lat="44.4939395" lon="9.6185933"><ele>519.0</ele><time>2026-04-29T10:54:47.802Z</time></trkpt><trkpt lat="44.4938215" lon="9.6186733"><ele>519.0</ele><time>2026-04-29T10:54:48.802Z</time></trkpt><trkpt lat="44.493692" lon="9.6187279"><ele>519.0</ele><time>2026-04-29T10:54:49.803Z</time></trkpt><trkpt lat="44.4935706" lon="9.6187593"><ele>519.0</ele><time>2026-04-29T10:54:50.802Z</time></trkpt><trkpt lat="44.4934542" lon="9.6187947"><ele>519.0</ele><time>2026-04-29T10:54:51.801Z</time></trkpt><trkpt lat="44.4933471" lon="9.6188588"><ele>519.0</ele><time>2026-04-29T10:54:52.802Z</time></trkpt><trkpt lat="44.4932512" lon="9.6189617"><ele>519.0</ele><time>2026-04-29T10:54:53.802Z</time></trkpt><trkpt lat="44.4931742" lon="9.6191011"><ele>519.0</ele><time>2026-04-29T10:54:54.802Z</time></trkpt><trkpt lat="44.4931247" lon="9.6192735"><ele>519.0</ele><time>2026-04-29T10:54:55.802Z</time></trkpt><trkpt lat="44.4930753" lon="9.6194581"><ele>515.6666666666666</ele><time>2026-04-29T10:54:56.802Z</time></trkpt><trkpt lat="44.4929989" lon="9.6196377"><ele>512.3333333333333</ele><time>2026-04-29T10:54:57.802Z</time></trkpt><trkpt lat="44.4929047" lon="9.6198231"><ele>509.0</ele><time>2026-04-29T10:54:58.802Z</time></trkpt><trkpt lat="44.492827" lon="9.6200124"><ele>509.5</ele><time>2026-04-29T10:54:59.803Z</time></trkpt><trkpt lat="44.4927568" lon="9.6201938"><ele>510.0</ele><time>2026-04-29T10:55:00.802Z</time></trkpt><trkpt lat="44.4926673" lon="9.6203521"><ele>510.5</ele><time>2026-04-29T10:55:01.801Z</time></trkpt><trkpt lat="44.4925557" lon="9.6204899"><ele>511.0</ele><time>2026-04-29T10:55:02.803Z</time></trkpt><trkpt lat="44.4924378" lon="9.6206294"><ele>511.0</ele><time>2026-04-29T10:55:03.802Z</time></trkpt><trkpt lat="44.4923286" lon="9.6207865"><ele>511.0</ele><time>2026-04-29T10:55:04.802Z</time></trkpt><trkpt lat="44.4922271" lon="9.620935"><ele>511.0</ele><time>2026-04-29T10:55:05.803Z</time></trkpt><trkpt lat="44.4921326" lon="9.6210752"><ele>511.0</ele><time>2026-04-29T10:55:06.801Z</time></trkpt><trkpt lat="44.4920428" lon="9.6212069"><ele>510.20000000000005</ele><time>2026-04-29T10:55:07.801Z</time></trkpt><trkpt lat="44.491958" lon="9.6213303"><ele>509.40000000000003</ele><time>2026-04-29T10:55:08.8Z</time></trkpt><trkpt lat="44.4918782" lon="9.6214501"><ele>508.6</ele><time>2026-04-29T10:55:09.801Z</time></trkpt><trkpt lat="44.4917921" lon="9.6215412"><ele>507.8</ele><time>2026-04-29T10:55:10.802Z</time></trkpt><trkpt lat="44.4916964" lon="9.6215839"><ele>507.0</ele><time>2026-04-29T10:55:11.801Z</time></trkpt><trkpt lat="44.4916047" lon="9.6215729"><ele>507.0</ele><time>2026-04-29T10:55:12.8Z</time></trkpt><trkpt lat="44.4915234" lon="9.6215119"><ele>507.0</ele><time>2026-04-29T10:55:13.801Z</time></trkpt><trkpt lat="44.4914429" lon="9.6213991"><ele>507.0</ele><time>2026-04-29T10:55:14.802Z</time></trkpt><trkpt lat="44.4913629" lon="9.6212463"><ele>507.0</ele><time>2026-04-29T10:55:15.802Z</time></trkpt><trkpt lat="44.4912777" lon="9.621087"><ele>506.5</ele><time>2026-04-29T10:55:16.8Z</time></trkpt><trkpt lat="44.4911971" lon="9.6209435"><ele>506.0</ele><time>2026-04-29T10:55:17.802Z</time></trkpt><trkpt lat="44.4911264" lon="9.6208072"><ele>505.5</ele><time>2026-04-29T10:55:18.801Z</time></trkpt><trkpt lat="44.4910809" lon="9.6206598"><ele>505.0</ele><time>2026-04-29T10:55:19.802Z</time></trkpt><trkpt lat="44.4910586" lon="9.6205032"><ele>505.0</ele><time>2026-04-29T10:55:20.802Z</time></trkpt><trkpt lat="44.4910443" lon="9.6203395"><ele>505.0</ele><time>2026-04-29T10:55:21.801Z</time></trkpt><trkpt lat="44.4909902" lon="9.6201898"><ele>505.0</ele><time>2026-04-29T10:55:22.8Z</time></trkpt><trkpt lat="44.490905" lon="9.6200528"><ele>505.0</ele><time>2026-04-29T10:55:23.802Z</time></trkpt><trkpt lat="44.4907937" lon="9.6199224"><ele>506.75</ele><time>2026-04-29T10:55:24.801Z</time></trkpt><trkpt lat="44.4906759" lon="9.6197879"><ele>508.5</ele><time>2026-04-29T10:55:25.802Z</time></trkpt><trkpt lat="44.4905781" lon="9.6196491"><ele>510.25</ele><time>2026-04-29T10:55:26.801Z</time></trkpt><trkpt lat="44.4904963" lon="9.6194801"><ele>512.0</ele><time>2026-04-29T10:55:27.8Z</time></trkpt><trkpt lat="44.49043" lon="9.6192891"><ele>509.5</ele><time>2026-04-29T10:55:28.801Z</time></trkpt><trkpt lat="44.4903864" lon="9.619093"><ele>507.0</ele><time>2026-04-29T10:55:29.802Z</time></trkpt><trkpt lat="44.4903705" lon="9.6188898"><ele>504.5</ele><time>2026-04-29T10:55:30.801Z</time></trkpt><trkpt lat="44.4903761" lon="9.618676"><ele>502.0</ele><time>2026-04-29T10:55:31.801Z</time></trkpt><trkpt lat="44.4903676" lon="9.6184758"><ele>502.0</ele><time>2026-04-29T10:55:32.801Z</time></trkpt><trkpt lat="44.4903198" lon="9.6182657"><ele>502.0</ele><time>2026-04-29T10:55:33.8Z</time></trkpt><trkpt lat="44.4902577" lon="9.6180511"><ele>502.0</ele><time>2026-04-29T10:55:34.801Z</time></trkpt><trkpt lat="44.4901825" lon="9.6178334"><ele>505.33333333333337</ele><time>2026-04-29T10:55:35.801Z</time></trkpt><trkpt lat="44.4900979" lon="9.6176286"><ele>508.66666666666663</ele><time>2026-04-29T10:55:36.801Z</time></trkpt><trkpt lat="44.4900033" lon="9.6174314"><ele>512.0</ele><time>2026-04-29T10:55:37.802Z</time></trkpt><trkpt lat="44.4899062" lon="9.6172573"><ele>512.0</ele><time>2026-04-29T10:55:38.802Z</time></trkpt><trkpt lat="44.4898114" lon="9.6170914"><ele>512.0</ele><time>2026-04-29T10:55:39.801Z</time></trkpt><trkpt lat="44.4897004" lon="9.616942"><ele>512.0</ele><time>2026-04-29T10:55:40.801Z</time></trkpt><trkpt lat="44.4895618" lon="9.6168315"><ele>510.0</ele><time>2026-04-29T10:55:41.802Z</time></trkpt><trkpt lat="44.4893897" lon="9.6167535"><ele>508.0</ele><time>2026-04-29T10:55:42.802Z</time></trkpt><trkpt lat="44.4892269" lon="9.6166906"><ele>506.0</ele><time>2026-04-29T10:55:43.801Z</time></trkpt><trkpt lat="44.4890668" lon="9.6166191"><ele>506.0</ele><time>2026-04-29T10:55:44.801Z</time></trkpt><trkpt lat="44.4889096" lon="9.6165311"><ele>506.0</ele><time>2026-04-29T10:55:45.802Z</time></trkpt><trkpt lat="44.4887531" lon="9.6164385"><ele>506.0</ele><time>2026-04-29T10:55:46.802Z</time></trkpt><trkpt lat="44.4885928" lon="9.6163496"><ele>504.0</ele><time>2026-04-29T10:55:47.801Z</time></trkpt><trkpt lat="44.4884345" lon="9.6162594"><ele>502.0</ele><time>2026-04-29T10:55:48.8Z</time></trkpt><trkpt lat="44.4882936" lon="9.6161764"><ele>500.0</ele><time>2026-04-29T10:55:49.802Z</time></trkpt><trkpt lat="44.488166" lon="9.616103"><ele>503.0</ele><time>2026-04-29T10:55:50.801Z</time></trkpt><trkpt lat="44.4880454" lon="9.6160318"><ele>506.0</ele><time>2026-04-29T10:55:51.801Z</time></trkpt><trkpt lat="44.4879363" lon="9.6159659"><ele>509.0</ele><time>2026-04-29T10:55:52.801Z</time></trkpt><trkpt lat="44.4878381" lon="9.6159073"><ele>512.0</ele><time>2026-04-29T10:55:53.801Z</time></trkpt><trkpt lat="44.4877483" lon="9.6158545"><ele>511.99999999999994</ele><time>2026-04-29T10:55:54.802Z</time></trkpt><trkpt lat="44.4876658" lon="9.6158057"><ele>512.0</ele><time>2026-04-29T10:55:55.802Z</time></trkpt><trkpt lat="44.4875904" lon="9.6157596"><ele>512.0</ele><time>2026-04-29T10:55:56.801Z</time></trkpt><trkpt lat="44.4875107" lon="9.6157144"><ele>512.0</ele><time>2026-04-29T10:55:57.801Z</time></trkpt><trkpt lat="44.4874247" lon="9.615671"><ele>511.99999999999994</ele><time>2026-04-29T10:55:58.801Z</time></trkpt><trkpt lat="44.4873312" lon="9.6156301"><ele>512.0</ele><time>2026-04-29T10:55:59.8Z</time></trkpt><trkpt lat="44.487233" lon="9.6155889"><ele>512.0</ele><time>2026-04-29T10:56:00.801Z</time></trkpt><trkpt lat="44.487125" lon="9.6155371"><ele>512.0</ele><time>2026-04-29T10:56:01.801Z</time></trkpt><trkpt lat="44.487011" lon="9.6154748"><ele>512.0</ele><time>2026-04-29T10:56:02.8Z</time></trkpt><trkpt lat="44.4868864" lon="9.6154025"><ele>512.0</ele><time>2026-04-29T10:56:03.801Z</time></trkpt><trkpt lat="44.4867571" lon="9.6153205"><ele>512.75</ele><time>2026-04-29T10:56:04.8Z</time></trkpt><trkpt lat="44.4866334" lon="9.6152389"><ele>513.5</ele><time>2026-04-29T10:56:05.801Z</time></trkpt><trkpt lat="44.4865144" lon="9.6151643"><ele>514.25</ele><time>2026-04-29T10:56:06.802Z</time></trkpt><trkpt lat="44.4863893" lon="9.6150912"><ele>515.0</ele><time>2026-04-29T10:56:07.802Z</time></trkpt><trkpt lat="44.4862551" lon="9.6150399"><ele>515.0</ele><time>2026-04-29T10:56:08.8Z</time></trkpt><trkpt lat="44.4861228" lon="9.6150054"><ele>515.0</ele><time>2026-04-29T10:56:09.801Z</time></trkpt><trkpt lat="44.4859895" lon="9.6149747"><ele>515.0</ele><time>2026-04-29T10:56:10.801Z</time></trkpt><trkpt lat="44.4858661" lon="9.6149453"><ele>515.0</ele><time>2026-04-29T10:56:11.801Z</time></trkpt><trkpt lat="44.4857506" lon="9.6149164"><ele>515.0</ele><time>2026-04-29T10:56:12.801Z</time></trkpt><trkpt lat="44.4856421" lon="9.6148941"><ele>515.0</ele><time>2026-04-29T10:56:13.801Z</time></trkpt><trkpt lat="44.4855376" lon="9.6148733"><ele>515.0</ele><time>2026-04-29T10:56:14.8Z</time></trkpt><trkpt lat="44.4854409" lon="9.6148518"><ele>515.0</ele><time>2026-04-29T10:56:15.801Z</time></trkpt><trkpt lat="44.4853499" lon="9.6148303"><ele>515.0</ele><time>2026-04-29T10:56:16.802Z</time></trkpt><trkpt lat="44.4852618" lon="9.614809"><ele>515.0</ele><time>2026-04-29T10:56:17.801Z</time></trkpt><trkpt lat="44.4851713" lon="9.6147866"><ele>515.0</ele><time>2026-04-29T10:56:18.8Z</time></trkpt><trkpt lat="44.4850842" lon="9.6147641"><ele>515.0</ele><time>2026-04-29T10:56:19.801Z</time></trkpt><trkpt lat="44.4849957" lon="9.6147448"><ele>515.0</ele><time>2026-04-29T10:56:20.801Z</time></trkpt><trkpt lat="44.4849027" lon="9.6147264"><ele>515.0</ele><time>2026-04-29T10:56:21.801Z</time></trkpt><trkpt lat="44.4848026" lon="9.6147064"><ele>515.0</ele><time>2026-04-29T10:56:22.802Z</time></trkpt><trkpt lat="44.4846973" lon="9.6146856"><ele>515.0</ele><time>2026-04-29T10:56:23.8Z</time></trkpt><trkpt lat="44.4845903" lon="9.6146587"><ele>515.0</ele><time>2026-04-29T10:56:24.801Z</time></trkpt><trkpt lat="44.4844805" lon="9.61463"><ele>515.0</ele><time>2026-04-29T10:56:25.801Z</time></trkpt><trkpt lat="44.4843685" lon="9.6145967"><ele>515.0</ele><time>2026-04-29T10:56:26.801Z</time></trkpt><trkpt lat="44.484254" lon="9.614553"><ele>514.5</ele><time>2026-04-29T10:56:27.801Z</time></trkpt><trkpt lat="44.4841388" lon="9.6144953"><ele>514.0</ele><time>2026-04-29T10:56:28.802Z</time></trkpt><trkpt lat="44.4840271" lon="9.6144167"><ele>513.5</ele><time>2026-04-29T10:56:29.802Z</time></trkpt><trkpt lat="44.4839212" lon="9.6143192"><ele>513.0</ele><time>2026-04-29T10:56:30.801Z</time></trkpt><trkpt lat="44.483821" lon="9.6142054"><ele>513.5</ele><time>2026-04-29T10:56:31.801Z</time></trkpt><trkpt lat="44.4837194" lon="9.6140837"><ele>514.0</ele><time>2026-04-29T10:56:32.801Z</time></trkpt><trkpt lat="44.4836087" lon="9.613949"><ele>514.5</ele><time>2026-04-29T10:56:33.801Z</time></trkpt><trkpt lat="44.483488" lon="9.6138018"><ele>515.0</ele><time>2026-04-29T10:56:34.801Z</time></trkpt><trkpt lat="44.4833659" lon="9.6136521"><ele>520.0</ele><time>2026-04-29T10:56:35.801Z</time></trkpt><trkpt lat="44.4832444" lon="9.6135017"><ele>525.0</ele><time>2026-04-29T10:56:36.801Z</time></trkpt><trkpt lat="44.4831261" lon="9.6133574"><ele>530.0</ele><time>2026-04-29T10:56:37.802Z</time></trkpt><trkpt lat="44.4830118" lon="9.6132153"><ele>526.6666666666666</ele><time>2026-04-29T10:56:38.801Z</time></trkpt><trkpt lat="44.4828955" lon="9.6130698"><ele>523.3333333333334</ele><time>2026-04-29T10:56:39.801Z</time></trkpt><trkpt lat="44.4827792" lon="9.6129224"><ele>520.0</ele><time>2026-04-29T10:56:40.801Z</time></trkpt><trkpt lat="44.4826674" lon="9.6127798"><ele>520.0</ele><time>2026-04-29T10:56:41.801Z</time></trkpt><trkpt lat="44.4825687" lon="9.6126366"><ele>520.0</ele><time>2026-04-29T10:56:42.802Z</time></trkpt><trkpt lat="44.4824864" lon="9.6124848"><ele>520.0</ele><time>2026-04-29T10:56:43.802Z</time></trkpt><trkpt lat="44.4824136" lon="9.6123287"><ele>520.0</ele><time>2026-04-29T10:56:44.801Z</time></trkpt><trkpt lat="44.4823564" lon="9.6121768"><ele>520.0</ele><time>2026-04-29T10:56:45.8Z</time></trkpt><trkpt lat="44.4823146" lon="9.6120503"><ele>520.0</ele><time>2026-04-29T10:56:46.801Z</time></trkpt><trkpt lat="44.4822809" lon="9.6119482"><ele>520.0</ele><time>2026-04-29T10:56:47.801Z</time></trkpt><trkpt lat="44.4822331" lon="9.6118073"><ele>520.0</ele><time>2026-04-29T10:56:49.802Z</time></trkpt><trkpt lat="44.4821956" lon="9.6117064"><ele>520.0</ele><time>2026-04-29T10:56:51.801Z</time></trkpt><trkpt lat="44.4821676" lon="9.6116227"><ele>520.0</ele><time>2026-04-29T10:56:53.8Z</time></trkpt><trkpt lat="44.4821362" lon="9.6115309"><ele>518.8</ele><time>2026-04-29T10:56:56.801Z</time></trkpt><trkpt lat="44.4820887" lon="9.6113785"><ele>517.6</ele><time>2026-04-29T10:57:43.8Z</time></trkpt><trkpt lat="44.4820603" lon="9.6112759"><ele>516.4</ele><time>2026-04-29T10:57:44.8Z</time></trkpt><trkpt lat="44.482015" lon="9.611155"><ele>515.2</ele><time>2026-04-29T10:57:45.801Z</time></trkpt><trkpt lat="44.481944" lon="9.611046"><ele>514.0</ele><time>2026-04-29T10:57:46.801Z</time></trkpt><trkpt lat="44.4818472" lon="9.6109409"><ele>514.0</ele><time>2026-04-29T10:57:47.801Z</time></trkpt><trkpt lat="44.4817343" lon="9.6108375"><ele>514.0</ele><time>2026-04-29T10:57:48.801Z</time></trkpt><trkpt lat="44.4816194" lon="9.610735"><ele>514.0</ele><time>2026-04-29T10:57:49.802Z</time></trkpt><trkpt lat="44.4815154" lon="9.6106394"><ele>514.0</ele><time>2026-04-29T10:57:50.802Z</time></trkpt><trkpt lat="44.4814162" lon="9.6105464"><ele>514.0</ele><time>2026-04-29T10:57:51.801Z</time></trkpt><trkpt lat="44.481321" lon="9.6104628"><ele>514.0</ele><time>2026-04-29T10:57:52.801Z</time></trkpt><trkpt lat="44.4812317" lon="9.6103793"><ele>514.0</ele><time>2026-04-29T10:57:53.801Z</time></trkpt><trkpt lat="44.4811639" lon="9.6102696"><ele>514.0</ele><time>2026-04-29T10:57:54.802Z</time></trkpt><trkpt lat="44.481117" lon="9.6101299"><ele>514.0</ele><time>2026-04-29T10:57:55.802Z</time></trkpt><trkpt lat="44.4810732" lon="9.6099572"><ele>516.0</ele><time>2026-04-29T10:57:56.801Z</time></trkpt><trkpt lat="44.481015" lon="9.6097638"><ele>518.0</ele><time>2026-04-29T10:57:57.801Z</time></trkpt><trkpt lat="44.480935" lon="9.6095445"><ele>520.0</ele><time>2026-04-29T10:57:58.801Z</time></trkpt><trkpt lat="44.4808508" lon="9.6093443"><ele>520.0</ele><time>2026-04-29T10:57:59.8Z</time></trkpt><trkpt lat="44.4807559" lon="9.6091862"><ele>520.0</ele><time>2026-04-29T10:58:00.801Z</time></trkpt><trkpt lat="44.480639" lon="9.6090757"><ele>520.0</ele><time>2026-04-29T10:58:01.802Z</time></trkpt><trkpt lat="44.4805086" lon="9.6090005"><ele>520.0</ele><time>2026-04-29T10:58:02.801Z</time></trkpt><trkpt lat="44.4803871" lon="9.6089459"><ele>524.5</ele><time>2026-04-29T10:58:03.801Z</time></trkpt><trkpt lat="44.4802524" lon="9.6089109"><ele>529.0</ele><time>2026-04-29T10:58:04.801Z</time></trkpt><trkpt lat="44.4801288" lon="9.6088708"><ele>533.5</ele><time>2026-04-29T10:58:05.801Z</time></trkpt><trkpt lat="44.4800303" lon="9.6087899"><ele>538.0</ele><time>2026-04-29T10:58:06.801Z</time></trkpt><trkpt lat="44.4799423" lon="9.6086761"><ele>539.5</ele><time>2026-04-29T10:58:07.801Z</time></trkpt><trkpt lat="44.4798529" lon="9.6085274"><ele>541.0</ele><time>2026-04-29T10:58:08.802Z</time></trkpt><trkpt lat="44.4797645" lon="9.6083612"><ele>542.5</ele><time>2026-04-29T10:58:09.802Z</time></trkpt><trkpt lat="44.4796791" lon="9.608186"><ele>544.0</ele><time>2026-04-29T10:58:10.802Z</time></trkpt><trkpt lat="44.4795975" lon="9.6080236"><ele>544.0</ele><time>2026-04-29T10:58:11.801Z</time></trkpt><trkpt lat="44.4795355" lon="9.6079029"><ele>544.0</ele><time>2026-04-29T10:58:12.801Z</time></trkpt><trkpt lat="44.4794865" lon="9.6078103"><ele>544.0</ele><time>2026-04-29T10:58:13.801Z</time></trkpt><trkpt lat="44.4794418" lon="9.6076964"><ele>544.0</ele><time>2026-04-29T10:58:15.802Z</time></trkpt><trkpt lat="44.4793843" lon="9.6075875"><ele>544.0</ele><time>2026-04-29T10:59:07.801Z</time></trkpt><trkpt lat="44.4793424" lon="9.6074877"><ele>541.75</ele><time>2026-04-29T10:59:08.8Z</time></trkpt><trkpt lat="44.4792977" lon="9.6073493"><ele>539.5</ele><time>2026-04-29T10:59:09.801Z</time></trkpt><trkpt lat="44.4792531" lon="9.6071539"><ele>537.25</ele><time>2026-04-29T10:59:10.802Z</time></trkpt><trkpt lat="44.479203" lon="9.6069211"><ele>535.0</ele><time>2026-04-29T10:59:11.802Z</time></trkpt><trkpt lat="44.479161" lon="9.6067113"><ele>533.5</ele><time>2026-04-29T10:59:12.801Z</time></trkpt><trkpt lat="44.4791128" lon="9.6065319"><ele>532.0</ele><time>2026-04-29T10:59:13.802Z</time></trkpt><trkpt lat="44.4790473" lon="9.6063717"><ele>530.5</ele><time>2026-04-29T10:59:14.801Z</time></trkpt><trkpt lat="44.4789557" lon="9.6062386"><ele>529.0</ele><time>2026-04-29T10:59:15.801Z</time></trkpt><trkpt lat="44.4788482" lon="9.6061395"><ele>534.75</ele><time>2026-04-29T10:59:16.8Z</time></trkpt><trkpt lat="44.478747" lon="9.6060514"><ele>540.5</ele><time>2026-04-29T10:59:17.8Z</time></trkpt><trkpt lat="44.4786789" lon="9.6059411"><ele>546.25</ele><time>2026-04-29T10:59:18.802Z</time></trkpt><trkpt lat="44.4786222" lon="9.6057941"><ele>552.0</ele><time>2026-04-29T10:59:19.802Z</time></trkpt><trkpt lat="44.4785553" lon="9.6056246"><ele>552.0</ele><time>2026-04-29T10:59:20.801Z</time></trkpt><trkpt lat="44.4784681" lon="9.6054359"><ele>552.0</ele><time>2026-04-29T10:59:21.801Z</time></trkpt><trkpt lat="44.4783638" lon="9.605229"><ele>552.0</ele><time>2026-04-29T10:59:22.802Z</time></trkpt><trkpt lat="44.4782645" lon="9.6050519"><ele>552.75</ele><time>2026-04-29T10:59:23.801Z</time></trkpt><trkpt lat="44.4781604" lon="9.6048994"><ele>553.5</ele><time>2026-04-29T10:59:24.801Z</time></trkpt><trkpt lat="44.4780632" lon="9.6047554"><ele>554.25</ele><time>2026-04-29T10:59:25.801Z</time></trkpt><trkpt lat="44.4779768" lon="9.6045997"><ele>555.0</ele><time>2026-04-29T10:59:26.802Z</time></trkpt><trkpt lat="44.4778991" lon="9.6044382"><ele>555.0</ele><time>2026-04-29T10:59:27.801Z</time></trkpt><trkpt lat="44.477831" lon="9.6042574"><ele>555.0</ele><time>2026-04-29T10:59:28.801Z</time></trkpt><trkpt lat="44.4777633" lon="9.6040587"><ele>555.0</ele><time>2026-04-29T10:59:29.802Z</time></trkpt><trkpt lat="44.4777087" lon="9.6038939"><ele>555.0</ele><time>2026-04-29T10:59:30.802Z</time></trkpt><trkpt lat="44.4776469" lon="9.6037495"><ele>551.25</ele><time>2026-04-29T10:59:31.801Z</time></trkpt><trkpt lat="44.4775613" lon="9.6036262"><ele>547.5</ele><time>2026-04-29T10:59:32.801Z</time></trkpt><trkpt lat="44.4774573" lon="9.6035411"><ele>543.75</ele><time>2026-04-29T10:59:33.8Z</time></trkpt><trkpt lat="44.4773388" lon="9.6034959"><ele>540.0</ele><time>2026-04-29T10:59:34.802Z</time></trkpt><trkpt lat="44.4772263" lon="9.6034733"><ele>540.0</ele><time>2026-04-29T10:59:35.802Z</time></trkpt><trkpt lat="44.4771406" lon="9.6034188"><ele>540.0</ele><time>2026-04-29T10:59:36.801Z</time></trkpt><trkpt lat="44.4770739" lon="9.6033066"><ele>540.0</ele><time>2026-04-29T10:59:37.802Z</time></trkpt><trkpt lat="44.4770055" lon="9.6031375"><ele>540.0</ele><time>2026-04-29T10:59:38.802Z</time></trkpt><trkpt lat="44.4769365" lon="9.6029324"><ele>546.75</ele><time>2026-04-29T10:59:39.801Z</time></trkpt><trkpt lat="44.4768728" lon="9.6027619"><ele>553.5</ele><time>2026-04-29T10:59:40.801Z</time></trkpt><trkpt lat="44.4768235" lon="9.6026001"><ele>560.25</ele><time>2026-04-29T10:59:41.8Z</time></trkpt><trkpt lat="44.476806" lon="9.6024407"><ele>567.0</ele><time>2026-04-29T10:59:42.801Z</time></trkpt><trkpt lat="44.4768169" lon="9.6022846"><ele>567.0</ele><time>2026-04-29T10:59:43.802Z</time></trkpt><trkpt lat="44.4768636" lon="9.6021235"><ele>567.0</ele><time>2026-04-29T10:59:44.801Z</time></trkpt><trkpt lat="44.4769352" lon="9.6019541"><ele>567.0</ele><time>2026-04-29T10:59:45.801Z</time></trkpt><trkpt lat="44.477016" lon="9.6017717"><ele>567.0</ele><time>2026-04-29T10:59:46.802Z</time></trkpt><trkpt lat="44.4771036" lon="9.6015893"><ele>563.6666666666666</ele><time>2026-04-29T10:59:47.801Z</time></trkpt><trkpt lat="44.4771971" lon="9.6014213"><ele>560.3333333333333</ele><time>2026-04-29T10:59:48.801Z</time></trkpt><trkpt lat="44.4773154" lon="9.6012632"><ele>557.0</ele><time>2026-04-29T10:59:49.801Z</time></trkpt><trkpt lat="44.477455" lon="9.6011166"><ele>557.0</ele><time>2026-04-29T10:59:50.8Z</time></trkpt><trkpt lat="44.4776048" lon="9.6009762"><ele>557.0</ele><time>2026-04-29T10:59:51.802Z</time></trkpt><trkpt lat="44.4777589" lon="9.6008354"><ele>557.0</ele><time>2026-04-29T10:59:52.801Z</time></trkpt><trkpt lat="44.4778983" lon="9.6007078"><ele>554.5</ele><time>2026-04-29T10:59:53.802Z</time></trkpt><trkpt lat="44.478024" lon="9.6005871"><ele>552.0</ele><time>2026-04-29T10:59:54.802Z</time></trkpt><trkpt lat="44.4781249" lon="9.6004622"><ele>549.5</ele><time>2026-04-29T10:59:55.802Z</time></trkpt><trkpt lat="44.4781999" lon="9.6003287"><ele>547.0</ele><time>2026-04-29T10:59:56.801Z</time></trkpt><trkpt lat="44.4782433" lon="9.6001777"><ele>546.75</ele><time>2026-04-29T10:59:57.801Z</time></trkpt><trkpt lat="44.4782491" lon="9.6000145"><ele>546.5</ele><time>2026-04-29T10:59:58.8Z</time></trkpt><trkpt lat="44.4782148" lon="9.5998541"><ele>546.25</ele><time>2026-04-29T10:59:59.801Z</time></trkpt><trkpt lat="44.4781436" lon="9.5996853"><ele>546.0</ele><time>2026-04-29T11:00:00.802Z</time></trkpt><trkpt lat="44.4780523" lon="9.5994993"><ele>546.6666666666666</ele><time>2026-04-29T11:00:01.802Z</time></trkpt><trkpt lat="44.477967" lon="9.5993098"><ele>547.3333333333333</ele><time>2026-04-29T11:00:02.801Z</time></trkpt><trkpt lat="44.4779048" lon="9.5990966"><ele>548.0</ele><time>2026-04-29T11:00:03.801Z</time></trkpt><trkpt lat="44.4778422" lon="9.5988414"><ele>553.6666666666666</ele><time>2026-04-29T11:00:04.8Z</time></trkpt><trkpt lat="44.4777732" lon="9.5985584"><ele>559.3333333333334</ele><time>2026-04-29T11:00:05.801Z</time></trkpt><trkpt lat="44.4776964" lon="9.5982579"><ele>565.0</ele><time>2026-04-29T11:00:06.801Z</time></trkpt><trkpt lat="44.4776185" lon="9.5979544"><ele>563.6666666666667</ele><time>2026-04-29T11:00:07.802Z</time></trkpt><trkpt lat="44.4775491" lon="9.5976797"><ele>562.3333333333334</ele><time>2026-04-29T11:00:08.801Z</time></trkpt><trkpt lat="44.4774837" lon="9.5974265"><ele>561.0</ele><time>2026-04-29T11:00:09.801Z</time></trkpt><trkpt lat="44.4774127" lon="9.5971878"><ele>559.6666666666666</ele><time>2026-04-29T11:00:10.801Z</time></trkpt><trkpt lat="44.477324" lon="9.5969538"><ele>558.3333333333333</ele><time>2026-04-29T11:00:11.801Z</time></trkpt><trkpt lat="44.4772215" lon="9.5967247"><ele>557.0</ele><time>2026-04-29T11:00:12.801Z</time></trkpt><trkpt lat="44.4771288" lon="9.596491"><ele>570.0</ele><time>2026-04-29T11:00:13.801Z</time></trkpt><trkpt lat="44.4770669" lon="9.5962593"><ele>583.0</ele><time>2026-04-29T11:00:14.802Z</time></trkpt><trkpt lat="44.477024" lon="9.5960078"><ele>596.0</ele><time>2026-04-29T11:00:15.801Z</time></trkpt><trkpt lat="44.4770007" lon="9.5957407"><ele>596.0</ele><time>2026-04-29T11:00:16.801Z</time></trkpt><trkpt lat="44.4769926" lon="9.5954841"><ele>596.0</ele><time>2026-04-29T11:00:17.802Z</time></trkpt><trkpt lat="44.4770059" lon="9.5952424"><ele>596.0</ele><time>2026-04-29T11:00:18.801Z</time></trkpt><trkpt lat="44.4770455" lon="9.5949972"><ele>587.0</ele><time>2026-04-29T11:00:19.801Z</time></trkpt><trkpt lat="44.4771118" lon="9.5947404"><ele>578.0</ele><time>2026-04-29T11:00:20.801Z</time></trkpt><trkpt lat="44.477192" lon="9.5944583"><ele>569.0</ele><time>2026-04-29T11:00:21.801Z</time></trkpt><trkpt lat="44.4772716" lon="9.5941868"><ele>568.0</ele><time>2026-04-29T11:00:22.8Z</time></trkpt><trkpt lat="44.4773452" lon="9.5939329"><ele>567.0</ele><time>2026-04-29T11:00:23.802Z</time></trkpt><trkpt lat="44.4774128" lon="9.5937008"><ele>566.0</ele><time>2026-04-29T11:00:24.801Z</time></trkpt><trkpt lat="44.4774687" lon="9.5935016"><ele>564.25</ele><time>2026-04-29T11:00:25.801Z</time></trkpt><trkpt lat="44.4774972" lon="9.5933138"><ele>562.5</ele><time>2026-04-29T11:00:26.801Z</time></trkpt><trkpt lat="44.4774813" lon="9.593138"><ele>560.75</ele><time>2026-04-29T11:00:27.801Z</time></trkpt><trkpt lat="44.4774248" lon="9.592989"><ele>559.0</ele><time>2026-04-29T11:00:28.8Z</time></trkpt><trkpt lat="44.4773237" lon="9.5928599"><ele>559.0</ele><time>2026-04-29T11:00:29.8Z</time></trkpt><trkpt lat="44.4772008" lon="9.5927062"><ele>559.0</ele><time>2026-04-29T11:00:30.802Z</time></trkpt><trkpt lat="44.4770739" lon="9.5925148"><ele>559.0</ele><time>2026-04-29T11:00:31.8Z</time></trkpt><trkpt lat="44.4769409" lon="9.5923033"><ele>557.3333333333334</ele><time>2026-04-29T11:00:32.801Z</time></trkpt><trkpt lat="44.4767989" lon="9.5920724"><ele>555.6666666666666</ele><time>2026-04-29T11:00:33.801Z</time></trkpt><trkpt lat="44.4766688" lon="9.5918542"><ele>554.0</ele><time>2026-04-29T11:00:34.802Z</time></trkpt><trkpt lat="44.4765429" lon="9.5916592"><ele>554.0</ele><time>2026-04-29T11:00:35.801Z</time></trkpt><trkpt lat="44.4763879" lon="9.5915073"><ele>554.0</ele><time>2026-04-29T11:00:36.801Z</time></trkpt><trkpt lat="44.4762228" lon="9.5913906"><ele>554.0</ele><time>2026-04-29T11:00:37.802Z</time></trkpt><trkpt lat="44.4760603" lon="9.5912957"><ele>556.6666666666666</ele><time>2026-04-29T11:00:38.801Z</time></trkpt><trkpt lat="44.4759107" lon="9.591188"><ele>559.3333333333334</ele><time>2026-04-29T11:00:39.801Z</time></trkpt><trkpt lat="44.4757869" lon="9.5910565"><ele>562.0</ele><time>2026-04-29T11:00:40.801Z</time></trkpt><trkpt lat="44.4756835" lon="9.5908887"><ele>562.0</ele><time>2026-04-29T11:00:41.801Z</time></trkpt><trkpt lat="44.4756026" lon="9.5906947"><ele>562.0</ele><time>2026-04-29T11:00:42.801Z</time></trkpt><trkpt lat="44.475547" lon="9.5904767"><ele>562.0</ele><time>2026-04-29T11:00:43.801Z</time></trkpt><trkpt lat="44.4755219" lon="9.5902395"><ele>559.0</ele><time>2026-04-29T11:00:44.802Z</time></trkpt><trkpt lat="44.4755048" lon="9.589984"><ele>556.0</ele><time>2026-04-29T11:00:45.801Z</time></trkpt><trkpt lat="44.4754915" lon="9.589777"><ele>553.0</ele><time>2026-04-29T11:00:46.801Z</time></trkpt><trkpt lat="44.4754669" lon="9.5895954"><ele>555.75</ele><time>2026-04-29T11:00:47.801Z</time></trkpt><trkpt lat="44.4754128" lon="9.5894459"><ele>558.5</ele><time>2026-04-29T11:00:48.8Z</time></trkpt><trkpt lat="44.4753212" lon="9.5893454"><ele>561.25</ele><time>2026-04-29T11:00:49.801Z</time></trkpt><trkpt lat="44.475199" lon="9.5892704"><ele>564.0</ele><time>2026-04-29T11:00:50.801Z</time></trkpt><trkpt lat="44.4750395" lon="9.5892098"><ele>564.0</ele><time>2026-04-29T11:00:51.801Z</time></trkpt><trkpt lat="44.4749108" lon="9.5891099"><ele>564.0</ele><time>2026-04-29T11:00:52.801Z</time></trkpt><trkpt lat="44.4747723" lon="9.5889589"><ele>564.0</ele><time>2026-04-29T11:00:53.801Z</time></trkpt><trkpt lat="44.4746365" lon="9.5887621"><ele>568.3333333333334</ele><time>2026-04-29T11:00:54.801Z</time></trkpt><trkpt lat="44.4744925" lon="9.5885366"><ele>572.6666666666667</ele><time>2026-04-29T11:00:55.801Z</time></trkpt><trkpt lat="44.4743639" lon="9.5883296"><ele>577.0</ele><time>2026-04-29T11:00:56.801Z</time></trkpt><trkpt lat="44.4742444" lon="9.5881445"><ele>577.0</ele><time>2026-04-29T11:00:57.801Z</time></trkpt><trkpt lat="44.4741568" lon="9.5879569"><ele>577.0</ele><time>2026-04-29T11:00:58.802Z</time></trkpt><trkpt lat="44.4741043" lon="9.5877503"><ele>577.0</ele><time>2026-04-29T11:00:59.802Z</time></trkpt><trkpt lat="44.4740737" lon="9.5875053"><ele>572.6666666666667</ele><time>2026-04-29T11:01:00.801Z</time></trkpt><trkpt lat="44.4740663" lon="9.5872688"><ele>568.3333333333334</ele><time>2026-04-29T11:01:01.801Z</time></trkpt><trkpt lat="44.4740785" lon="9.5870164"><ele>564.0</ele><time>2026-04-29T11:01:02.801Z</time></trkpt><trkpt lat="44.4741142" lon="9.5867455"><ele>564.0</ele><time>2026-04-29T11:01:03.801Z</time></trkpt><trkpt lat="44.4741617" lon="9.5864455"><ele>564.0</ele><time>2026-04-29T11:01:04.801Z</time></trkpt><trkpt lat="44.4742128" lon="9.5861524"><ele>564.0</ele><time>2026-04-29T11:01:05.802Z</time></trkpt><trkpt lat="44.474257" lon="9.585893"><ele>566.0</ele><time>2026-04-29T11:01:06.801Z</time></trkpt><trkpt lat="44.4742944" lon="9.5856452"><ele>568.0</ele><time>2026-04-29T11:01:07.801Z</time></trkpt><trkpt lat="44.4743125" lon="9.5853918"><ele>570.0</ele><time>2026-04-29T11:01:08.801Z</time></trkpt><trkpt lat="44.4743081" lon="9.5851526"><ele>570.6666666666666</ele><time>2026-04-29T11:01:09.801Z</time></trkpt><trkpt lat="44.474278" lon="9.5849015"><ele>571.3333333333333</ele><time>2026-04-29T11:01:10.801Z</time></trkpt><trkpt lat="44.4742141" lon="9.5846403"><ele>572.0</ele><time>2026-04-29T11:01:11.8Z</time></trkpt><trkpt lat="44.4741238" lon="9.5843713"><ele>571.3333333333333</ele><time>2026-04-29T11:01:12.801Z</time></trkpt><trkpt lat="44.4740306" lon="9.584104"><ele>570.6666666666666</ele><time>2026-04-29T11:01:13.801Z</time></trkpt><trkpt lat="44.4739541" lon="9.5838692"><ele>570.0</ele><time>2026-04-29T11:01:14.802Z</time></trkpt><trkpt lat="44.4738751" lon="9.5836683"><ele>570.0</ele><time>2026-04-29T11:01:15.801Z</time></trkpt><trkpt lat="44.4737762" lon="9.5835039"><ele>570.0</ele><time>2026-04-29T11:01:16.8Z</time></trkpt><trkpt lat="44.4736633" lon="9.5833766"><ele>570.0</ele><time>2026-04-29T11:01:17.802Z</time></trkpt><trkpt lat="44.4735147" lon="9.583285"><ele>570.6666666666666</ele><time>2026-04-29T11:01:18.801Z</time></trkpt><trkpt lat="44.4733448" lon="9.5832149"><ele>571.3333333333333</ele><time>2026-04-29T11:01:19.802Z</time></trkpt><trkpt lat="44.4731801" lon="9.5831919"><ele>572.0</ele><time>2026-04-29T11:01:20.801Z</time></trkpt><trkpt lat="44.4730212" lon="9.5832206"><ele>573.3333333333333</ele><time>2026-04-29T11:01:21.802Z</time></trkpt><trkpt lat="44.4728651" lon="9.5833048"><ele>574.6666666666666</ele><time>2026-04-29T11:01:22.801Z</time></trkpt><trkpt lat="44.472704" lon="9.5834212"><ele>576.0</ele><time>2026-04-29T11:01:23.802Z</time></trkpt><trkpt lat="44.4725435" lon="9.5835323"><ele>576.0</ele><time>2026-04-29T11:01:24.801Z</time></trkpt><trkpt lat="44.4723774" lon="9.5836697"><ele>576.0</ele><time>2026-04-29T11:01:25.8Z</time></trkpt><trkpt lat="44.4721686" lon="9.5838348"><ele>576.0</ele><time>2026-04-29T11:01:26.802Z</time></trkpt><trkpt lat="44.4720183" lon="9.5839344"><ele>581.6666666666666</ele><time>2026-04-29T11:01:27.801Z</time></trkpt><trkpt lat="44.4718647" lon="9.5839815"><ele>587.3333333333333</ele><time>2026-04-29T11:01:28.8Z</time></trkpt><trkpt lat="44.4717146" lon="9.5839958"><ele>593.0</ele><time>2026-04-29T11:01:29.801Z</time></trkpt><trkpt lat="44.4715529" lon="9.5839288"><ele>593.0</ele><time>2026-04-29T11:01:30.801Z</time></trkpt><trkpt lat="44.471379" lon="9.5838175"><ele>593.0</ele><time>2026-04-29T11:01:31.802Z</time></trkpt><trkpt lat="44.4711972" lon="9.5836778"><ele>593.0</ele><time>2026-04-29T11:01:32.801Z</time></trkpt><trkpt lat="44.4710284" lon="9.5835247"><ele>589.6666666666666</ele><time>2026-04-29T11:01:33.802Z</time></trkpt><trkpt lat="44.4708766" lon="9.5833603"><ele>586.3333333333334</ele><time>2026-04-29T11:01:34.801Z</time></trkpt><trkpt lat="44.4707595" lon="9.5831914"><ele>583.0</ele><time>2026-04-29T11:01:35.802Z</time></trkpt><trkpt lat="44.4706647" lon="9.5830355"><ele>583.0</ele><time>2026-04-29T11:01:36.8Z</time></trkpt><trkpt lat="44.47056" lon="9.5829101"><ele>583.0</ele><time>2026-04-29T11:01:37.802Z</time></trkpt><trkpt lat="44.4704261" lon="9.5828277"><ele>583.0</ele><time>2026-04-29T11:01:38.801Z</time></trkpt><trkpt lat="44.4702565" lon="9.5827748"><ele>580.3333333333334</ele><time>2026-04-29T11:01:39.802Z</time></trkpt><trkpt lat="44.4700735" lon="9.5827088"><ele>577.6666666666666</ele><time>2026-04-29T11:01:40.801Z</time></trkpt><trkpt lat="44.4698888" lon="9.5826166"><ele>575.0</ele><time>2026-04-29T11:01:41.801Z</time></trkpt><trkpt lat="44.4697296" lon="9.5825266"><ele>576.0</ele><time>2026-04-29T11:01:42.802Z</time></trkpt><trkpt lat="44.4695769" lon="9.5824765"><ele>577.0</ele><time>2026-04-29T11:01:43.801Z</time></trkpt><trkpt lat="44.4694078" lon="9.5824921"><ele>578.0</ele><time>2026-04-29T11:01:44.802Z</time></trkpt><trkpt lat="44.46923" lon="9.5825506"><ele>578.0</ele><time>2026-04-29T11:01:45.8Z</time></trkpt><trkpt lat="44.4690254" lon="9.5826418"><ele>578.0</ele><time>2026-04-29T11:01:46.801Z</time></trkpt><trkpt lat="44.4688082" lon="9.5827388"><ele>578.0</ele><time>2026-04-29T11:01:47.802Z</time></trkpt><trkpt lat="44.468614" lon="9.5828233"><ele>583.0</ele><time>2026-04-29T11:01:48.801Z</time></trkpt><trkpt lat="44.4684288" lon="9.5828968"><ele>588.0</ele><time>2026-04-29T11:01:49.801Z</time></trkpt><trkpt lat="44.468247" lon="9.582945"><ele>593.0</ele><time>2026-04-29T11:01:50.801Z</time></trkpt><trkpt lat="44.4680521" lon="9.5829743"><ele>594.0</ele><time>2026-04-29T11:01:51.801Z</time></trkpt><trkpt lat="44.4678482" lon="9.5829943"><ele>595.0</ele><time>2026-04-29T11:01:52.801Z</time></trkpt><trkpt lat="44.4676709" lon="9.5830057"><ele>596.0</ele><time>2026-04-29T11:01:53.801Z</time></trkpt><trkpt lat="44.4675146" lon="9.5830025"><ele>596.0</ele><time>2026-04-29T11:01:54.8Z</time></trkpt><trkpt lat="44.4673713" lon="9.5829632"><ele>596.0</ele><time>2026-04-29T11:01:55.801Z</time></trkpt><trkpt lat="44.4672364" lon="9.5828761"><ele>596.0</ele><time>2026-04-29T11:01:56.802Z</time></trkpt><trkpt lat="44.4671046" lon="9.5827404"><ele>599.6666666666666</ele><time>2026-04-29T11:01:57.8Z</time></trkpt><trkpt lat="44.4669786" lon="9.5825695"><ele>603.3333333333334</ele><time>2026-04-29T11:01:58.8Z</time></trkpt><trkpt lat="44.4668579" lon="9.5823559"><ele>607.0</ele><time>2026-04-29T11:01:59.801Z</time></trkpt><trkpt lat="44.4667469" lon="9.5821325"><ele>600.6666666666667</ele><time>2026-04-29T11:02:00.802Z</time></trkpt><trkpt lat="44.4666505" lon="9.5819212"><ele>594.3333333333334</ele><time>2026-04-29T11:02:01.801Z</time></trkpt><trkpt lat="44.4665732" lon="9.5816889"><ele>588.0</ele><time>2026-04-29T11:02:02.8Z</time></trkpt><trkpt lat="44.4665241" lon="9.5814386"><ele>588.6666666666666</ele><time>2026-04-29T11:02:03.8Z</time></trkpt><trkpt lat="44.4664991" lon="9.5811702"><ele>589.3333333333333</ele><time>2026-04-29T11:02:04.799Z</time></trkpt><trkpt lat="44.4664773" lon="9.5809176"><ele>590.0</ele><time>2026-04-29T11:02:05.799Z</time></trkpt><trkpt lat="44.4664415" lon="9.5806855"><ele>590.0</ele><time>2026-04-29T11:02:06.8Z</time></trkpt><trkpt lat="44.4663671" lon="9.5804557"><ele>590.0</ele><time>2026-04-29T11:02:07.8Z</time></trkpt><trkpt lat="44.4662579" lon="9.5802236"><ele>590.0</ele><time>2026-04-29T11:02:08.8Z</time></trkpt><trkpt lat="44.4661242" lon="9.5799761"><ele>588.6666666666666</ele><time>2026-04-29T11:02:09.8Z</time></trkpt><trkpt lat="44.4659975" lon="9.5797377"><ele>587.3333333333334</ele><time>2026-04-29T11:02:10.8Z</time></trkpt><trkpt lat="44.4658808" lon="9.5794843"><ele>586.0</ele><time>2026-04-29T11:02:11.8Z</time></trkpt><trkpt lat="44.4657881" lon="9.579199"><ele>586.0</ele><time>2026-04-29T11:02:12.799Z</time></trkpt><trkpt lat="44.4657085" lon="9.5789076"><ele>586.0</ele><time>2026-04-29T11:02:13.8Z</time></trkpt><trkpt lat="44.4656476" lon="9.5786537"><ele>586.0</ele><time>2026-04-29T11:02:14.801Z</time></trkpt><trkpt lat="44.465584" lon="9.5784206"><ele>584.6666666666667</ele><time>2026-04-29T11:02:15.801Z</time></trkpt><trkpt lat="44.4654908" lon="9.578196"><ele>583.3333333333334</ele><time>2026-04-29T11:02:16.801Z</time></trkpt><trkpt lat="44.4653765" lon="9.5780028"><ele>582.0</ele><time>2026-04-29T11:02:17.801Z</time></trkpt><trkpt lat="44.4652694" lon="9.5778701"><ele>582.0</ele><time>2026-04-29T11:02:18.801Z</time></trkpt><trkpt lat="44.4651558" lon="9.5777863"><ele>582.0</ele><time>2026-04-29T11:02:19.801Z</time></trkpt><trkpt lat="44.4650171" lon="9.5777636"><ele>582.0</ele><time>2026-04-29T11:02:20.801Z</time></trkpt><trkpt lat="44.4648634" lon="9.5777994"><ele>582.0</ele><time>2026-04-29T11:02:21.8Z</time></trkpt><trkpt lat="44.4646873" lon="9.5778617"><ele>592.6666666666666</ele><time>2026-04-29T11:02:22.8Z</time></trkpt><trkpt lat="44.4644936" lon="9.5779047"><ele>603.3333333333333</ele><time>2026-04-29T11:02:23.8Z</time></trkpt><trkpt lat="44.4642887" lon="9.5779322"><ele>614.0</ele><time>2026-04-29T11:02:24.8Z</time></trkpt><trkpt lat="44.464114" lon="9.5779496"><ele>614.0</ele><time>2026-04-29T11:02:25.8Z</time></trkpt><trkpt lat="44.463956" lon="9.5779418"><ele>614.0</ele><time>2026-04-29T11:02:26.8Z</time></trkpt><trkpt lat="44.4637977" lon="9.5779266"><ele>614.0</ele><time>2026-04-29T11:02:27.8Z</time></trkpt><trkpt lat="44.4636535" lon="9.577816"><ele>605.0</ele><time>2026-04-29T11:02:28.801Z</time></trkpt><trkpt lat="44.463488" lon="9.577565"><ele>596.0</ele><time>2026-04-29T11:02:29.801Z</time></trkpt><trkpt lat="44.4633116" lon="9.5773772"><ele>596.0</ele><time>2026-04-29T11:02:30.8Z</time></trkpt><trkpt lat="44.463156" lon="9.5772005"><ele>596.0</ele><time>2026-04-29T11:02:31.8Z</time></trkpt><trkpt lat="44.4630293" lon="9.5770057"><ele>596.0</ele><time>2026-04-29T11:02:32.8Z</time></trkpt><trkpt lat="44.4629328" lon="9.5767845"><ele>597.0</ele><time>2026-04-29T11:02:33.8Z</time></trkpt><trkpt lat="44.4628539" lon="9.5765771"><ele>598.0</ele><time>2026-04-29T11:02:34.8Z</time></trkpt><trkpt lat="44.462777" lon="9.576401"><ele>599.0</ele><time>2026-04-29T11:02:35.8Z</time></trkpt><trkpt lat="44.4626768" lon="9.576261"><ele>596.5</ele><time>2026-04-29T11:02:36.8Z</time></trkpt><trkpt lat="44.4625534" lon="9.5761509"><ele>594.0</ele><time>2026-04-29T11:02:37.8Z</time></trkpt><trkpt lat="44.4624353" lon="9.576043"><ele>591.5</ele><time>2026-04-29T11:02:38.799Z</time></trkpt><trkpt lat="44.4623454" lon="9.5758937"><ele>589.0</ele><time>2026-04-29T11:02:39.799Z</time></trkpt><trkpt lat="44.4622732" lon="9.575699"><ele>589.0</ele><time>2026-04-29T11:02:40.799Z</time></trkpt><trkpt lat="44.4621986" lon="9.5754753"><ele>589.0</ele><time>2026-04-29T11:02:41.8Z</time></trkpt><trkpt lat="44.4621108" lon="9.5752731"><ele>589.0</ele><time>2026-04-29T11:02:42.8Z</time></trkpt><trkpt lat="44.4620013" lon="9.5750683"><ele>589.3333333333334</ele><time>2026-04-29T11:02:43.801Z</time></trkpt><trkpt lat="44.461899" lon="9.5748652"><ele>589.6666666666666</ele><time>2026-04-29T11:02:44.801Z</time></trkpt><trkpt lat="44.4618149" lon="9.5746426"><ele>590.0</ele><time>2026-04-29T11:02:45.801Z</time></trkpt><trkpt lat="44.4617471" lon="9.574405"><ele>590.0</ele><time>2026-04-29T11:02:46.801Z</time></trkpt><trkpt lat="44.461688" lon="9.5741896"><ele>590.0</ele><time>2026-04-29T11:02:47.8Z</time></trkpt><trkpt lat="44.4616254" lon="9.5739951"><ele>590.0</ele><time>2026-04-29T11:02:48.8Z</time></trkpt><trkpt lat="44.461543" lon="9.5738432"><ele>590.0</ele><time>2026-04-29T11:02:49.8Z</time></trkpt><trkpt lat="44.4614231" lon="9.573727"><ele>590.0</ele><time>2026-04-29T11:02:50.8Z</time></trkpt><trkpt lat="44.4612692" lon="9.5736258"><ele>590.0</ele><time>2026-04-29T11:02:51.8Z</time></trkpt><trkpt lat="44.4611017" lon="9.5735316"><ele>591.0</ele><time>2026-04-29T11:02:52.8Z</time></trkpt><trkpt lat="44.4609522" lon="9.5734457"><ele>592.0</ele><time>2026-04-29T11:02:53.8Z</time></trkpt><trkpt lat="44.4608118" lon="9.5733505"><ele>593.0</ele><time>2026-04-29T11:02:54.8Z</time></trkpt><trkpt lat="44.4606838" lon="9.5732443"><ele>593.0</ele><time>2026-04-29T11:02:55.801Z</time></trkpt><trkpt lat="44.4605563" lon="9.5731323"><ele>593.0</ele><time>2026-04-29T11:02:56.801Z</time></trkpt><trkpt lat="44.4604153" lon="9.5730351"><ele>593.0</ele><time>2026-04-29T11:02:57.801Z</time></trkpt><trkpt lat="44.4602841" lon="9.5729708"><ele>593.0</ele><time>2026-04-29T11:02:58.801Z</time></trkpt><trkpt lat="44.4601593" lon="9.5729138"><ele>592.75</ele><time>2026-04-29T11:02:59.801Z</time></trkpt><trkpt lat="44.4600445" lon="9.5728385"><ele>592.5</ele><time>2026-04-29T11:03:00.801Z</time></trkpt><trkpt lat="44.459942" lon="9.5727306"><ele>592.25</ele><time>2026-04-29T11:03:01.8Z</time></trkpt><trkpt lat="44.4598571" lon="9.5725913"><ele>592.0</ele><time>2026-04-29T11:03:02.8Z</time></trkpt><trkpt lat="44.4597831" lon="9.5724303"><ele>592.0</ele><time>2026-04-29T11:03:03.8Z</time></trkpt><trkpt lat="44.4597182" lon="9.5722568"><ele>592.0</ele><time>2026-04-29T11:03:04.799Z</time></trkpt><trkpt lat="44.4596527" lon="9.572086"><ele>592.0</ele><time>2026-04-29T11:03:05.801Z</time></trkpt><trkpt lat="44.4595845" lon="9.5719112"><ele>592.0</ele><time>2026-04-29T11:03:06.801Z</time></trkpt><trkpt lat="44.4595148" lon="9.571735"><ele>597.0</ele><time>2026-04-29T11:03:07.8Z</time></trkpt><trkpt lat="44.4594287" lon="9.5715592"><ele>602.0</ele><time>2026-04-29T11:03:08.8Z</time></trkpt><trkpt lat="44.4593284" lon="9.5714"><ele>607.0</ele><time>2026-04-29T11:03:09.8Z</time></trkpt><trkpt lat="44.4592078" lon="9.5712611"><ele>600.6666666666667</ele><time>2026-04-29T11:03:10.8Z</time></trkpt><trkpt lat="44.4590784" lon="9.5711376"><ele>594.3333333333334</ele><time>2026-04-29T11:03:11.8Z</time></trkpt><trkpt lat="44.4589533" lon="9.5710127"><ele>588.0</ele><time>2026-04-29T11:03:12.8Z</time></trkpt><trkpt lat="44.4588445" lon="9.5708841"><ele>590.5</ele><time>2026-04-29T11:03:13.8Z</time></trkpt><trkpt lat="44.4587434" lon="9.5707622"><ele>593.0</ele><time>2026-04-29T11:03:14.8Z</time></trkpt><trkpt lat="44.4586512" lon="9.5706592"><ele>595.5</ele><time>2026-04-29T11:03:15.801Z</time></trkpt><trkpt lat="44.4585518" lon="9.5705954"><ele>598.0</ele><time>2026-04-29T11:03:16.801Z</time></trkpt><trkpt lat="44.4584458" lon="9.5705827"><ele>598.0</ele><time>2026-04-29T11:03:17.801Z</time></trkpt><trkpt lat="44.4583365" lon="9.5706159"><ele>598.0</ele><time>2026-04-29T11:03:18.801Z</time></trkpt><trkpt lat="44.4582248" lon="9.5706733"><ele>598.0</ele><time>2026-04-29T11:03:19.8Z</time></trkpt><trkpt lat="44.4581035" lon="9.5707196"><ele>598.0</ele><time>2026-04-29T11:03:20.8Z</time></trkpt><trkpt lat="44.4579748" lon="9.5707319"><ele>600.25</ele><time>2026-04-29T11:03:21.8Z</time></trkpt><trkpt lat="44.457846" lon="9.5707224"><ele>602.5</ele><time>2026-04-29T11:03:22.8Z</time></trkpt><trkpt lat="44.4577104" lon="9.5706958"><ele>604.75</ele><time>2026-04-29T11:03:23.8Z</time></trkpt><trkpt lat="44.45758" lon="9.5706634"><ele>607.0</ele><time>2026-04-29T11:03:24.799Z</time></trkpt><trkpt lat="44.4574546" lon="9.5705965"><ele>607.0</ele><time>2026-04-29T11:03:25.8Z</time></trkpt><trkpt lat="44.4573375" lon="9.5704929"><ele>607.0</ele><time>2026-04-29T11:03:26.801Z</time></trkpt><trkpt lat="44.457236" lon="9.5703426"><ele>607.0</ele><time>2026-04-29T11:03:27.801Z</time></trkpt><trkpt lat="44.4571357" lon="9.5701542"><ele>612.3333333333334</ele><time>2026-04-29T11:03:28.8Z</time></trkpt><trkpt lat="44.4570507" lon="9.5699676"><ele>617.6666666666666</ele><time>2026-04-29T11:03:29.8Z</time></trkpt><trkpt lat="44.456975" lon="9.5697889"><ele>623.0</ele><time>2026-04-29T11:03:30.8Z</time></trkpt><trkpt lat="44.4568988" lon="9.569601"><ele>621.25</ele><time>2026-04-29T11:03:31.8Z</time></trkpt><trkpt lat="44.4568442" lon="9.5694108"><ele>619.5</ele><time>2026-04-29T11:03:32.801Z</time></trkpt><trkpt lat="44.4568045" lon="9.5692279"><ele>617.75</ele><time>2026-04-29T11:03:33.801Z</time></trkpt><trkpt lat="44.4567773" lon="9.5690456"><ele>616.0</ele><time>2026-04-29T11:03:34.801Z</time></trkpt><trkpt lat="44.4567618" lon="9.5688633"><ele>616.0</ele><time>2026-04-29T11:03:35.8Z</time></trkpt><trkpt lat="44.4567559" lon="9.5686959"><ele>616.0</ele><time>2026-04-29T11:03:36.8Z</time></trkpt><trkpt lat="44.4567617" lon="9.5685269"><ele>616.0</ele><time>2026-04-29T11:03:37.8Z</time></trkpt><trkpt lat="44.4567773" lon="9.5683603"><ele>616.0</ele><time>2026-04-29T11:03:38.8Z</time></trkpt><trkpt lat="44.4567957" lon="9.5682172"><ele>615.0</ele><time>2026-04-29T11:03:39.8Z</time></trkpt><trkpt lat="44.4568136" lon="9.5680913"><ele>614.0</ele><time>2026-04-29T11:03:40.8Z</time></trkpt><trkpt lat="44.4568325" lon="9.5679758"><ele>613.0</ele><time>2026-04-29T11:03:41.801Z</time></trkpt><trkpt lat="44.4568554" lon="9.5678708"><ele>612.0</ele><time>2026-04-29T11:03:42.8Z</time></trkpt><trkpt lat="44.4568783" lon="9.5677746"><ele>611.0</ele><time>2026-04-29T11:03:43.799Z</time></trkpt><trkpt lat="44.4568956" lon="9.567685"><ele>610.0</ele><time>2026-04-29T11:03:44.8Z</time></trkpt><trkpt lat="44.4569273" lon="9.567544"><ele>609.5</ele><time>2026-04-29T11:03:46.801Z</time></trkpt><trkpt lat="44.4569713" lon="9.5674568"><ele>609.0</ele><time>2026-04-29T11:03:48.801Z</time></trkpt><trkpt lat="44.4570026" lon="9.5673609"><ele>608.5</ele><time>2026-04-29T11:03:50.801Z</time></trkpt><trkpt lat="44.456988" lon="9.5672548"><ele>608.0</ele><time>2026-04-29T11:04:59.801Z</time></trkpt><trkpt lat="44.4569259" lon="9.5672911"><ele>607.5</ele><time>2026-04-29T11:05:05.8Z</time></trkpt><trkpt lat="44.4568944" lon="9.5674891"><ele>607.0</ele><time>2026-04-29T11:05:07.801Z</time></trkpt><trkpt lat="44.4568629" lon="9.5676461"><ele>607.0</ele><time>2026-04-29T11:05:08.799Z</time></trkpt><trkpt lat="44.4568254" lon="9.5678499"><ele>607.0</ele><time>2026-04-29T11:05:09.8Z</time></trkpt><trkpt lat="44.4567887" lon="9.568055"><ele>607.0</ele><time>2026-04-29T11:05:10.801Z</time></trkpt><trkpt lat="44.4567553" lon="9.568263"><ele>608.0</ele><time>2026-04-29T11:05:11.799Z</time></trkpt><trkpt lat="44.4567354" lon="9.5684854"><ele>609.0</ele><time>2026-04-29T11:05:12.8Z</time></trkpt><trkpt lat="44.4567332" lon="9.5687296"><ele>610.0</ele><time>2026-04-29T11:05:13.8Z</time></trkpt><trkpt lat="44.4567451" lon="9.5689957"><ele>612.0</ele><time>2026-04-29T11:05:14.799Z</time></trkpt><trkpt lat="44.4567751" lon="9.5692413"><ele>614.0</ele><time>2026-04-29T11:05:15.801Z</time></trkpt><trkpt lat="44.456826" lon="9.56948"><ele>616.0</ele><time>2026-04-29T11:05:16.801Z</time></trkpt><trkpt lat="44.4569043" lon="9.5697096"><ele>618.3333333333334</ele><time>2026-04-29T11:05:17.801Z</time></trkpt><trkpt lat="44.4570026" lon="9.569934"><ele>620.6666666666666</ele><time>2026-04-29T11:05:18.801Z</time></trkpt><trkpt lat="44.4570965" lon="9.5701461"><ele>623.0</ele><time>2026-04-29T11:05:19.8Z</time></trkpt><trkpt lat="44.457188" lon="9.570342"><ele>617.6666666666666</ele><time>2026-04-29T11:05:20.8Z</time></trkpt><trkpt lat="44.4572925" lon="9.5705052"><ele>612.3333333333334</ele><time>2026-04-29T11:05:21.799Z</time></trkpt><trkpt lat="44.4574214" lon="9.5706118"><ele>607.0</ele><time>2026-04-29T11:05:22.8Z</time></trkpt><trkpt lat="44.4575646" lon="9.5706864"><ele>607.0</ele><time>2026-04-29T11:05:23.8Z</time></trkpt><trkpt lat="44.457721" lon="9.5707303"><ele>607.0</ele><time>2026-04-29T11:05:24.801Z</time></trkpt><trkpt lat="44.4578714" lon="9.5707556"><ele>607.0</ele><time>2026-04-29T11:05:25.8Z</time></trkpt><trkpt lat="44.4580066" lon="9.5707558"><ele>607.0</ele><time>2026-04-29T11:05:26.8Z</time></trkpt><trkpt lat="44.458132" lon="9.5707279"><ele>605.2</ele><time>2026-04-29T11:05:27.799Z</time></trkpt><trkpt lat="44.4582418" lon="9.5706742"><ele>603.4000000000001</ele><time>2026-04-29T11:05:28.8Z</time></trkpt><trkpt lat="44.4583486" lon="9.5706211"><ele>601.5999999999999</ele><time>2026-04-29T11:05:29.8Z</time></trkpt><trkpt lat="44.4584494" lon="9.5706002"><ele>599.8</ele><time>2026-04-29T11:05:30.801Z</time></trkpt><trkpt lat="44.4585457" lon="9.5706266"><ele>598.0</ele><time>2026-04-29T11:05:31.8Z</time></trkpt><trkpt lat="44.4586295" lon="9.5706907"><ele>598.0</ele><time>2026-04-29T11:05:32.801Z</time></trkpt><trkpt lat="44.4587276" lon="9.5708006"><ele>598.0</ele><time>2026-04-29T11:05:33.801Z</time></trkpt><trkpt lat="44.4588423" lon="9.5709335"><ele>598.0</ele><time>2026-04-29T11:05:34.8Z</time></trkpt><trkpt lat="44.45896" lon="9.5710517"><ele>598.0</ele><time>2026-04-29T11:05:35.799Z</time></trkpt><trkpt lat="44.4590742" lon="9.571159"><ele>600.25</ele><time>2026-04-29T11:05:36.8Z</time></trkpt><trkpt lat="44.4591913" lon="9.5712746"><ele>602.5</ele><time>2026-04-29T11:05:37.801Z</time></trkpt><trkpt lat="44.4592995" lon="9.5714083"><ele>604.75</ele><time>2026-04-29T11:05:38.801Z</time></trkpt><trkpt lat="44.459397" lon="9.5715633"><ele>607.0</ele><time>2026-04-29T11:05:39.801Z</time></trkpt><trkpt lat="44.4594871" lon="9.5717425"><ele>607.0</ele><time>2026-04-29T11:05:40.799Z</time></trkpt><trkpt lat="44.4595705" lon="9.5719412"><ele>607.0</ele><time>2026-04-29T11:05:41.8Z</time></trkpt><trkpt lat="44.4596454" lon="9.5721469"><ele>607.0</ele><time>2026-04-29T11:05:42.801Z</time></trkpt><trkpt lat="44.4597128" lon="9.5723341"><ele>609.25</ele><time>2026-04-29T11:05:43.8Z</time></trkpt><trkpt lat="44.459784" lon="9.5725056"><ele>611.5</ele><time>2026-04-29T11:05:44.8Z</time></trkpt><trkpt lat="44.4598607" lon="9.5726577"><ele>613.75</ele><time>2026-04-29T11:05:45.8Z</time></trkpt><trkpt lat="44.4599572" lon="9.5727794"><ele>616.0</ele><time>2026-04-29T11:05:46.8Z</time></trkpt><trkpt lat="44.4600775" lon="9.5728687"><ele>616.0</ele><time>2026-04-29T11:05:47.801Z</time></trkpt><trkpt lat="44.4602203" lon="9.5729415"><ele>616.0</ele><time>2026-04-29T11:05:48.801Z</time></trkpt><trkpt lat="44.4603768" lon="9.573022"><ele>616.0</ele><time>2026-04-29T11:05:49.8Z</time></trkpt><trkpt lat="44.4605373" lon="9.5731383"><ele>608.3333333333334</ele><time>2026-04-29T11:05:50.799Z</time></trkpt><trkpt lat="44.4607236" lon="9.5732872"><ele>600.6666666666666</ele><time>2026-04-29T11:05:51.8Z</time></trkpt><trkpt lat="44.460926" lon="9.5734479"><ele>593.0</ele><time>2026-04-29T11:05:52.8Z</time></trkpt><trkpt lat="44.4611176" lon="9.5735718"><ele>592.0</ele><time>2026-04-29T11:05:53.8Z</time></trkpt><trkpt lat="44.4613" lon="9.573677"><ele>591.0</ele><time>2026-04-29T11:05:54.801Z</time></trkpt><trkpt lat="44.4614425" lon="9.5737775"><ele>590.0</ele><time>2026-04-29T11:05:55.8Z</time></trkpt><trkpt lat="44.4615442" lon="9.5738993"><ele>590.0</ele><time>2026-04-29T11:05:56.799Z</time></trkpt><trkpt lat="44.4616173" lon="9.5740609"><ele>590.0</ele><time>2026-04-29T11:05:57.801Z</time></trkpt><trkpt lat="44.4616774" lon="9.5742829"><ele>590.0</ele><time>2026-04-29T11:05:58.801Z</time></trkpt><trkpt lat="44.461757" lon="9.5745522"><ele>597.6666666666666</ele><time>2026-04-29T11:05:59.8Z</time></trkpt><trkpt lat="44.4618523" lon="9.5747964"><ele>605.3333333333334</ele><time>2026-04-29T11:06:00.8Z</time></trkpt><trkpt lat="44.4619757" lon="9.575031"><ele>613.0</ele><time>2026-04-29T11:06:01.801Z</time></trkpt><trkpt lat="44.4620943" lon="9.5752597"><ele>605.0</ele><time>2026-04-29T11:06:02.801Z</time></trkpt><trkpt lat="44.4621824" lon="9.5755202"><ele>597.0</ele><time>2026-04-29T11:06:03.801Z</time></trkpt><trkpt lat="44.4622675" lon="9.5757643"><ele>589.0</ele><time>2026-04-29T11:06:04.799Z</time></trkpt><trkpt lat="44.4623614" lon="9.5759553"><ele>589.0</ele><time>2026-04-29T11:06:05.8Z</time></trkpt><trkpt lat="44.4624938" lon="9.576114"><ele>589.0</ele><time>2026-04-29T11:06:06.801Z</time></trkpt><trkpt lat="44.46263" lon="9.576231"><ele>589.0</ele><time>2026-04-29T11:06:07.799Z</time></trkpt><trkpt lat="44.4627315" lon="9.5763771"><ele>592.3333333333334</ele><time>2026-04-29T11:06:08.799Z</time></trkpt><trkpt lat="44.4628148" lon="9.5765746"><ele>595.6666666666666</ele><time>2026-04-29T11:06:09.8Z</time></trkpt><trkpt lat="44.4629021" lon="9.576797"><ele>599.0</ele><time>2026-04-29T11:06:10.8Z</time></trkpt><trkpt lat="44.4629855" lon="9.5769808"><ele>598.0</ele><time>2026-04-29T11:06:11.8Z</time></trkpt><trkpt lat="44.4630912" lon="9.5771535"><ele>597.0</ele><time>2026-04-29T11:06:12.8Z</time></trkpt><trkpt lat="44.4632199" lon="9.5773032"><ele>596.0</ele><time>2026-04-29T11:06:13.8Z</time></trkpt><trkpt lat="44.4633573" lon="9.5774442"><ele>596.0</ele><time>2026-04-29T11:06:14.8Z</time></trkpt><trkpt lat="44.4634831" lon="9.5775856"><ele>596.0</ele><time>2026-04-29T11:06:15.8Z</time></trkpt><trkpt lat="44.4636047" lon="9.5777248"><ele>596.0</ele><time>2026-04-29T11:06:16.801Z</time></trkpt><trkpt lat="44.4637282" lon="9.5778546"><ele>600.5</ele><time>2026-04-29T11:06:17.801Z</time></trkpt><trkpt lat="44.4638588" lon="9.577935"><ele>605.0</ele><time>2026-04-29T11:06:18.799Z</time></trkpt><trkpt lat="44.4640032" lon="9.5779748"><ele>609.5</ele><time>2026-04-29T11:06:19.8Z</time></trkpt><trkpt lat="44.4641495" lon="9.577981"><ele>614.0</ele><time>2026-04-29T11:06:20.8Z</time></trkpt><trkpt lat="44.4642879" lon="9.5779715"><ele>614.0</ele><time>2026-04-29T11:06:21.801Z</time></trkpt><trkpt lat="44.4644228" lon="9.5779557"><ele>614.0</ele><time>2026-04-29T11:06:22.801Z</time></trkpt><trkpt lat="44.4645627" lon="9.5779358"><ele>614.0</ele><time>2026-04-29T11:06:23.8Z</time></trkpt><trkpt lat="44.4646879" lon="9.5779003"><ele>614.0</ele><time>2026-04-29T11:06:24.799Z</time></trkpt><trkpt lat="44.4648096" lon="9.5778538"><ele>612.8</ele><time>2026-04-29T11:06:25.8Z</time></trkpt><trkpt lat="44.4649249" lon="9.5778078"><ele>611.5999999999999</ele><time>2026-04-29T11:06:26.8Z</time></trkpt><trkpt lat="44.4650343" lon="9.5777893"><ele>610.4</ele><time>2026-04-29T11:06:27.8Z</time></trkpt><trkpt lat="44.4651452" lon="9.5778098"><ele>609.1999999999999</ele><time>2026-04-29T11:06:28.8Z</time></trkpt><trkpt lat="44.4652485" lon="9.5778403"><ele>608.0</ele><time>2026-04-29T11:06:29.8Z</time></trkpt><trkpt lat="44.4653265" lon="9.5779671"><ele>608.0</ele><time>2026-04-29T11:06:30.8Z</time></trkpt><trkpt lat="44.4654068" lon="9.5780831"><ele>608.0</ele><time>2026-04-29T11:06:31.8Z</time></trkpt><trkpt lat="44.4654764" lon="9.5782069"><ele>608.0</ele><time>2026-04-29T11:06:32.8Z</time></trkpt><trkpt lat="44.4655344" lon="9.5783424"><ele>608.0</ele><time>2026-04-29T11:06:33.799Z</time></trkpt><trkpt lat="44.4655791" lon="9.5784915"><ele>602.5</ele><time>2026-04-29T11:06:34.801Z</time></trkpt><trkpt lat="44.4656205" lon="9.578638"><ele>597.0</ele><time>2026-04-29T11:06:35.801Z</time></trkpt><trkpt lat="44.4656573" lon="9.5787841"><ele>591.5</ele><time>2026-04-29T11:06:36.801Z</time></trkpt><trkpt lat="44.4656914" lon="9.578942"><ele>586.0</ele><time>2026-04-29T11:06:37.8Z</time></trkpt><trkpt lat="44.4657295" lon="9.5790958"><ele>586.0</ele><time>2026-04-29T11:06:38.8Z</time></trkpt><trkpt lat="44.4657703" lon="9.5792375"><ele>586.0</ele><time>2026-04-29T11:06:39.8Z</time></trkpt><trkpt lat="44.4658129" lon="9.5793651"><ele>586.0</ele><time>2026-04-29T11:06:40.801Z</time></trkpt><trkpt lat="44.4658605" lon="9.5794864"><ele>586.0</ele><time>2026-04-29T11:06:41.801Z</time></trkpt><trkpt lat="44.4659137" lon="9.5796018"><ele>586.0</ele><time>2026-04-29T11:06:42.801Z</time></trkpt><trkpt lat="44.4659727" lon="9.5797169"><ele>588.2</ele><time>2026-04-29T11:06:43.801Z</time></trkpt><trkpt lat="44.4660381" lon="9.5798356"><ele>590.4000000000001</ele><time>2026-04-29T11:06:44.801Z</time></trkpt><trkpt lat="44.4661001" lon="9.5799524"><ele>592.6</ele><time>2026-04-29T11:06:45.8Z</time></trkpt><trkpt lat="44.4661572" lon="9.5800605"><ele>594.8000000000001</ele><time>2026-04-29T11:06:46.8Z</time></trkpt><trkpt lat="44.4662086" lon="9.5801589"><ele>597.0</ele><time>2026-04-29T11:06:47.8Z</time></trkpt><trkpt lat="44.4662576" lon="9.5802601"><ele>595.6</ele><time>2026-04-29T11:06:48.799Z</time></trkpt><trkpt lat="44.4663055" lon="9.5803639"><ele>594.2</ele><time>2026-04-29T11:06:49.8Z</time></trkpt><trkpt lat="44.4663501" lon="9.5804774"><ele>592.8</ele><time>2026-04-29T11:06:50.799Z</time></trkpt><trkpt lat="44.466391" lon="9.5806031"><ele>591.4</ele><time>2026-04-29T11:06:51.8Z</time></trkpt><trkpt lat="44.4664235" lon="9.5807415"><ele>590.0</ele><time>2026-04-29T11:06:52.8Z</time></trkpt><trkpt lat="44.4664458" lon="9.5808947"><ele>590.0</ele><time>2026-04-29T11:06:53.799Z</time></trkpt><trkpt lat="44.4664595" lon="9.581056"><ele>590.0</ele><time>2026-04-29T11:06:54.8Z</time></trkpt><trkpt lat="44.4664706" lon="9.581216"><ele>590.0</ele><time>2026-04-29T11:06:55.8Z</time></trkpt><trkpt lat="44.4664858" lon="9.581373"><ele>590.0</ele><time>2026-04-29T11:06:56.8Z</time></trkpt><trkpt lat="44.4665073" lon="9.5815259"><ele>589.5</ele><time>2026-04-29T11:06:57.799Z</time></trkpt><trkpt lat="44.4665392" lon="9.5816768"><ele>589.0</ele><time>2026-04-29T11:06:58.799Z</time></trkpt><trkpt lat="44.4665845" lon="9.5818285"><ele>588.5</ele><time>2026-04-29T11:06:59.8Z</time></trkpt><trkpt lat="44.4666448" lon="9.5819776"><ele>588.0</ele><time>2026-04-29T11:07:00.799Z</time></trkpt><trkpt lat="44.4667102" lon="9.5821219"><ele>591.8</ele><time>2026-04-29T11:07:01.799Z</time></trkpt><trkpt lat="44.4667754" lon="9.5822497"><ele>595.5999999999999</ele><time>2026-04-29T11:07:02.8Z</time></trkpt><trkpt lat="44.4668357" lon="9.582367"><ele>599.4000000000001</ele><time>2026-04-29T11:07:03.8Z</time></trkpt><trkpt lat="44.4668961" lon="9.5824768"><ele>603.2</ele><time>2026-04-29T11:07:04.801Z</time></trkpt><trkpt lat="44.4669595" lon="9.5825741"><ele>607.0</ele><time>2026-04-29T11:07:05.8Z</time></trkpt><trkpt lat="44.4670527" lon="9.5826884"><ele>604.25</ele><time>2026-04-29T11:07:06.801Z</time></trkpt><trkpt lat="44.4671673" lon="9.5828246"><ele>601.5</ele><time>2026-04-29T11:07:07.801Z</time></trkpt><trkpt lat="44.46728" lon="9.5829304"><ele>598.75</ele><time>2026-04-29T11:07:08.799Z</time></trkpt><trkpt lat="44.4674055" lon="9.5829927"><ele>596.0</ele><time>2026-04-29T11:07:09.8Z</time></trkpt><trkpt lat="44.4675454" lon="9.5830217"><ele>596.0</ele><time>2026-04-29T11:07:10.801Z</time></trkpt><trkpt lat="44.4676954" lon="9.5830215"><ele>596.0</ele><time>2026-04-29T11:07:11.801Z</time></trkpt><trkpt lat="44.4678594" lon="9.5830126"><ele>596.0</ele><time>2026-04-29T11:07:12.8Z</time></trkpt><trkpt lat="44.4680481" lon="9.5830019"><ele>595.0</ele><time>2026-04-29T11:07:13.8Z</time></trkpt><trkpt lat="44.4682248" lon="9.5829749"><ele>594.0</ele><time>2026-04-29T11:07:14.8Z</time></trkpt><trkpt lat="44.4683963" lon="9.5829309"><ele>593.0</ele><time>2026-04-29T11:07:15.8Z</time></trkpt><trkpt lat="44.468567" lon="9.5828736"><ele>588.0</ele><time>2026-04-29T11:07:16.8Z</time></trkpt><trkpt lat="44.4687299" lon="9.5828011"><ele>583.0</ele><time>2026-04-29T11:07:17.8Z</time></trkpt><trkpt lat="44.4688813" lon="9.5827288"><ele>578.0</ele><time>2026-04-29T11:07:18.8Z</time></trkpt><trkpt lat="44.4690167" lon="9.5826666"><ele>578.0</ele><time>2026-04-29T11:07:19.8Z</time></trkpt><trkpt lat="44.4691379" lon="9.5826116"><ele>578.0</ele><time>2026-04-29T11:07:20.801Z</time></trkpt><trkpt lat="44.4692568" lon="9.5825577"><ele>578.0</ele><time>2026-04-29T11:07:21.799Z</time></trkpt><trkpt lat="44.4693706" lon="9.5825091"><ele>578.0</ele><time>2026-04-29T11:07:22.8Z</time></trkpt><trkpt lat="44.4694855" lon="9.5824855"><ele>578.0</ele><time>2026-04-29T11:07:23.801Z</time></trkpt><trkpt lat="44.4696064" lon="9.5824992"><ele>578.0</ele><time>2026-04-29T11:07:24.8Z</time></trkpt><trkpt lat="44.4697211" lon="9.5825516"><ele>578.0</ele><time>2026-04-29T11:07:25.8Z</time></trkpt><trkpt lat="44.4698397" lon="9.5826185"><ele>578.0</ele><time>2026-04-29T11:07:26.799Z</time></trkpt><trkpt lat="44.4699667" lon="9.5826797"><ele>577.25</ele><time>2026-04-29T11:07:27.801Z</time></trkpt><trkpt lat="44.4701009" lon="9.5827325"><ele>576.5</ele><time>2026-04-29T11:07:28.801Z</time></trkpt><trkpt lat="44.4702274" lon="9.5827734"><ele>575.75</ele><time>2026-04-29T11:07:29.8Z</time></trkpt><trkpt lat="44.4703472" lon="9.5828085"><ele>575.0</ele><time>2026-04-29T11:07:30.799Z</time></trkpt><trkpt lat="44.4704585" lon="9.5828592"><ele>577.0</ele><time>2026-04-29T11:07:31.8Z</time></trkpt><trkpt lat="44.4705545" lon="9.5829384"><ele>579.0</ele><time>2026-04-29T11:07:32.799Z</time></trkpt><trkpt lat="44.4706379" lon="9.5830569"><ele>581.0</ele><time>2026-04-29T11:07:33.801Z</time></trkpt><trkpt lat="44.4707186" lon="9.5831968"><ele>583.0</ele><time>2026-04-29T11:07:34.801Z</time></trkpt><trkpt lat="44.4707984" lon="9.5833137"><ele>583.0</ele><time>2026-04-29T11:07:35.799Z</time></trkpt><trkpt lat="44.4708924" lon="9.5834267"><ele>583.0</ele><time>2026-04-29T11:07:36.8Z</time></trkpt><trkpt lat="44.4709995" lon="9.5835251"><ele>583.0</ele><time>2026-04-29T11:07:37.799Z</time></trkpt><trkpt lat="44.4711071" lon="9.5836153"><ele>583.0</ele><time>2026-04-29T11:07:38.801Z</time></trkpt><trkpt lat="44.4712183" lon="9.5837089"><ele>585.5</ele><time>2026-04-29T11:07:39.8Z</time></trkpt><trkpt lat="44.4713271" lon="9.5837959"><ele>588.0</ele><time>2026-04-29T11:07:40.801Z</time></trkpt><trkpt lat="44.4714352" lon="9.5838907"><ele>590.5</ele><time>2026-04-29T11:07:41.799Z</time></trkpt><trkpt lat="44.471553" lon="9.5839664"><ele>593.0</ele><time>2026-04-29T11:07:42.8Z</time></trkpt><trkpt lat="44.4716798" lon="9.5840164"><ele>593.0</ele><time>2026-04-29T11:07:43.8Z</time></trkpt><trkpt lat="44.4718161" lon="9.5840311"><ele>593.0</ele><time>2026-04-29T11:07:44.8Z</time></trkpt><trkpt lat="44.4719565" lon="9.5840014"><ele>593.0</ele><time>2026-04-29T11:07:45.801Z</time></trkpt><trkpt lat="44.4720954" lon="9.5839289"><ele>593.0</ele><time>2026-04-29T11:07:46.8Z</time></trkpt><trkpt lat="44.472235" lon="9.5838255"><ele>592.0</ele><time>2026-04-29T11:07:47.8Z</time></trkpt><trkpt lat="44.4723767" lon="9.5837244"><ele>591.0</ele><time>2026-04-29T11:07:48.799Z</time></trkpt><trkpt lat="44.4724993" lon="9.5836193"><ele>590.0</ele><time>2026-04-29T11:07:49.8Z</time></trkpt><trkpt lat="44.4726275" lon="9.5835164"><ele>586.5</ele><time>2026-04-29T11:07:50.8Z</time></trkpt><trkpt lat="44.4727489" lon="9.5834133"><ele>583.0</ele><time>2026-04-29T11:07:51.8Z</time></trkpt><trkpt lat="44.4728684" lon="9.5833187"><ele>579.5</ele><time>2026-04-29T11:07:52.801Z</time></trkpt><trkpt lat="44.4729896" lon="9.5832496"><ele>576.0</ele><time>2026-04-29T11:07:53.801Z</time></trkpt><trkpt lat="44.4731244" lon="9.5832128"><ele>575.0</ele><time>2026-04-29T11:07:54.8Z</time></trkpt><trkpt lat="44.4732687" lon="9.5832128"><ele>574.0</ele><time>2026-04-29T11:07:55.8Z</time></trkpt><trkpt lat="44.4734149" lon="9.5832492"><ele>573.0</ele><time>2026-04-29T11:07:56.801Z</time></trkpt><trkpt lat="44.4735493" lon="9.5833053"><ele>572.0</ele><time>2026-04-29T11:07:57.801Z</time></trkpt><trkpt lat="44.4736688" lon="9.5833957"><ele>571.5</ele><time>2026-04-29T11:07:58.8Z</time></trkpt><trkpt lat="44.4737738" lon="9.5835234"><ele>571.0</ele><time>2026-04-29T11:07:59.801Z</time></trkpt><trkpt lat="44.473858" lon="9.5836792"><ele>570.5</ele><time>2026-04-29T11:08:00.8Z</time></trkpt><trkpt lat="44.4739358" lon="9.5838734"><ele>570.0</ele><time>2026-04-29T11:08:01.799Z</time></trkpt><trkpt lat="44.4740116" lon="9.5840948"><ele>570.6666666666666</ele><time>2026-04-29T11:08:02.8Z</time></trkpt><trkpt lat="44.4740896" lon="9.5843151"><ele>571.3333333333333</ele><time>2026-04-29T11:08:03.801Z</time></trkpt><trkpt lat="44.4741569" lon="9.5845203"><ele>572.0</ele><time>2026-04-29T11:08:04.8Z</time></trkpt><trkpt lat="44.4742166" lon="9.5847138"><ele>572.0</ele><time>2026-04-29T11:08:05.8Z</time></trkpt><trkpt lat="44.4742611" lon="9.5849206"><ele>572.0</ele><time>2026-04-29T11:08:06.8Z</time></trkpt><trkpt lat="44.4742879" lon="9.5851335"><ele>572.0</ele><time>2026-04-29T11:08:07.8Z</time></trkpt><trkpt lat="44.4742929" lon="9.5853505"><ele>571.3333333333333</ele><time>2026-04-29T11:08:08.8Z</time></trkpt><trkpt lat="44.4742777" lon="9.5855662"><ele>570.6666666666666</ele><time>2026-04-29T11:08:09.8Z</time></trkpt><trkpt lat="44.4742457" lon="9.5857841"><ele>570.0</ele><time>2026-04-29T11:08:10.801Z</time></trkpt><trkpt lat="44.4742109" lon="9.5859852"><ele>570.0</ele><time>2026-04-29T11:08:11.801Z</time></trkpt><trkpt lat="44.4741765" lon="9.5861694"><ele>570.0</ele><time>2026-04-29T11:08:12.8Z</time></trkpt><trkpt lat="44.4741452" lon="9.5863421"><ele>570.0</ele><time>2026-04-29T11:08:13.8Z</time></trkpt><trkpt lat="44.474118" lon="9.5865112"><ele>570.0</ele><time>2026-04-29T11:08:14.801Z</time></trkpt><trkpt lat="44.4740878" lon="9.5866811"><ele>568.5</ele><time>2026-04-29T11:08:15.8Z</time></trkpt><trkpt lat="44.4740613" lon="9.5868554"><ele>567.0</ele><time>2026-04-29T11:08:16.8Z</time></trkpt><trkpt lat="44.4740448" lon="9.5870379"><ele>565.5</ele><time>2026-04-29T11:08:17.801Z</time></trkpt><trkpt lat="44.4740411" lon="9.5872315"><ele>564.0</ele><time>2026-04-29T11:08:18.8Z</time></trkpt><trkpt lat="44.4740472" lon="9.5874338"><ele>563.75</ele><time>2026-04-29T11:08:19.8Z</time></trkpt><trkpt lat="44.474064" lon="9.5876427"><ele>563.5</ele><time>2026-04-29T11:08:20.8Z</time></trkpt><trkpt lat="44.4740978" lon="9.5878426"><ele>563.25</ele><time>2026-04-29T11:08:21.8Z</time></trkpt><trkpt lat="44.474162" lon="9.5880327"><ele>563.0</ele><time>2026-04-29T11:08:22.8Z</time></trkpt><trkpt lat="44.4742617" lon="9.5882114"><ele>567.6666666666666</ele><time>2026-04-29T11:08:23.799Z</time></trkpt><trkpt lat="44.474374" lon="9.5883912"><ele>572.3333333333334</ele><time>2026-04-29T11:08:24.8Z</time></trkpt><trkpt lat="44.4744875" lon="9.5885784"><ele>577.0</ele><time>2026-04-29T11:08:25.801Z</time></trkpt><trkpt lat="44.4745943" lon="9.5887504"><ele>573.75</ele><time>2026-04-29T11:08:26.8Z</time></trkpt><trkpt lat="44.4747023" lon="9.5889101"><ele>570.5</ele><time>2026-04-29T11:08:27.8Z</time></trkpt><trkpt lat="44.4748134" lon="9.5890487"><ele>567.25</ele><time>2026-04-29T11:08:28.799Z</time></trkpt><trkpt lat="44.4749338" lon="9.5891581"><ele>564.0</ele><time>2026-04-29T11:08:29.801Z</time></trkpt><trkpt lat="44.4750722" lon="9.5892359"><ele>564.0</ele><time>2026-04-29T11:08:30.8Z</time></trkpt><trkpt lat="44.475205" lon="9.5893015"><ele>564.0</ele><time>2026-04-29T11:08:31.8Z</time></trkpt><trkpt lat="44.475327" lon="9.5893662"><ele>564.0</ele><time>2026-04-29T11:08:32.801Z</time></trkpt><trkpt lat="44.4754041" lon="9.5894542"><ele>564.0</ele><time>2026-04-29T11:08:33.799Z</time></trkpt><trkpt lat="44.4754449" lon="9.5895703"><ele>561.25</ele><time>2026-04-29T11:08:34.8Z</time></trkpt><trkpt lat="44.4754656" lon="9.5897247"><ele>558.5</ele><time>2026-04-29T11:08:35.801Z</time></trkpt><trkpt lat="44.475476" lon="9.5899112"><ele>555.75</ele><time>2026-04-29T11:08:36.799Z</time></trkpt><trkpt lat="44.4754928" lon="9.5901182"><ele>553.0</ele><time>2026-04-29T11:08:37.8Z</time></trkpt><trkpt lat="44.4755062" lon="9.5903112"><ele>555.25</ele><time>2026-04-29T11:08:38.8Z</time></trkpt><trkpt lat="44.4755374" lon="9.5905098"><ele>557.5</ele><time>2026-04-29T11:08:39.801Z</time></trkpt><trkpt lat="44.4755853" lon="9.5907051"><ele>559.75</ele><time>2026-04-29T11:08:40.8Z</time></trkpt><trkpt lat="44.4756588" lon="9.5908845"><ele>562.0</ele><time>2026-04-29T11:08:41.8Z</time></trkpt><trkpt lat="44.475757" lon="9.5910409"><ele>562.0</ele><time>2026-04-29T11:08:42.801Z</time></trkpt><trkpt lat="44.4758686" lon="9.5911668"><ele>562.0</ele><time>2026-04-29T11:08:43.8Z</time></trkpt><trkpt lat="44.4760015" lon="9.5912691"><ele>562.0</ele><time>2026-04-29T11:08:44.799Z</time></trkpt><trkpt lat="44.4761456" lon="9.5913482"><ele>560.0</ele><time>2026-04-29T11:08:45.801Z</time></trkpt><trkpt lat="44.4762788" lon="9.5914313"><ele>558.0</ele><time>2026-04-29T11:08:46.8Z</time></trkpt><trkpt lat="44.4764061" lon="9.5915384"><ele>556.0</ele><time>2026-04-29T11:08:47.801Z</time></trkpt><trkpt lat="44.4765215" lon="9.5916799"><ele>554.0</ele><time>2026-04-29T11:08:48.799Z</time></trkpt><trkpt lat="44.476635" lon="9.5918479"><ele>564.0</ele><time>2026-04-29T11:08:49.8Z</time></trkpt><trkpt lat="44.4767504" lon="9.5920345"><ele>574.0</ele><time>2026-04-29T11:08:50.801Z</time></trkpt><trkpt lat="44.4768688" lon="9.5922317"><ele>584.0</ele><time>2026-04-29T11:08:51.8Z</time></trkpt><trkpt lat="44.4769799" lon="9.5924139"><ele>584.0</ele><time>2026-04-29T11:08:52.8Z</time></trkpt><trkpt lat="44.4770911" lon="9.5925801"><ele>584.0</ele><time>2026-04-29T11:08:53.8Z</time></trkpt><trkpt lat="44.4772014" lon="9.5927293"><ele>584.0</ele><time>2026-04-29T11:08:54.801Z</time></trkpt><trkpt lat="44.4773056" lon="9.5928512"><ele>577.75</ele><time>2026-04-29T11:08:55.799Z</time></trkpt><trkpt lat="44.4773963" lon="9.5929686"><ele>571.5</ele><time>2026-04-29T11:08:56.8Z</time></trkpt><trkpt lat="44.4774535" lon="9.5930977"><ele>565.25</ele><time>2026-04-29T11:08:57.799Z</time></trkpt><trkpt lat="44.4774755" lon="9.593253"><ele>559.0</ele><time>2026-04-29T11:08:58.801Z</time></trkpt><trkpt lat="44.4774551" lon="9.5934248"><ele>559.0</ele><time>2026-04-29T11:08:59.8Z</time></trkpt><trkpt lat="44.4774066" lon="9.5936195"><ele>559.0</ele><time>2026-04-29T11:09:00.799Z</time></trkpt><trkpt lat="44.4773438" lon="9.5938449"><ele>559.0</ele><time>2026-04-29T11:09:01.801Z</time></trkpt><trkpt lat="44.4772847" lon="9.5940542"><ele>561.3333333333334</ele><time>2026-04-29T11:09:02.799Z</time></trkpt><trkpt lat="44.4772246" lon="9.5942639"><ele>563.6666666666666</ele><time>2026-04-29T11:09:03.801Z</time></trkpt><trkpt lat="44.4771617" lon="9.5944815"><ele>566.0</ele><time>2026-04-29T11:09:04.8Z</time></trkpt><trkpt lat="44.4770972" lon="9.5947064"><ele>576.0</ele><time>2026-04-29T11:09:05.8Z</time></trkpt><trkpt lat="44.4770361" lon="9.5949341"><ele>586.0</ele><time>2026-04-29T11:09:06.801Z</time></trkpt><trkpt lat="44.4769962" lon="9.5951544"><ele>596.0</ele><time>2026-04-29T11:09:07.8Z</time></trkpt><trkpt lat="44.4769784" lon="9.5953725"><ele>596.0</ele><time>2026-04-29T11:09:08.801Z</time></trkpt><trkpt lat="44.4769769" lon="9.5955843"><ele>596.0</ele><time>2026-04-29T11:09:09.801Z</time></trkpt><trkpt lat="44.4769832" lon="9.595793"><ele>596.0</ele><time>2026-04-29T11:09:10.8Z</time></trkpt><trkpt lat="44.4770001" lon="9.5960034"><ele>596.6666666666666</ele><time>2026-04-29T11:09:11.799Z</time></trkpt><trkpt lat="44.4770315" lon="9.596203"><ele>597.3333333333334</ele><time>2026-04-29T11:09:12.801Z</time></trkpt><trkpt lat="44.4770871" lon="9.5964049"><ele>598.0</ele><time>2026-04-29T11:09:13.8Z</time></trkpt><trkpt lat="44.4771626" lon="9.5966079"><ele>585.6666666666667</ele><time>2026-04-29T11:09:14.799Z</time></trkpt><trkpt lat="44.477251" lon="9.5968103"><ele>573.3333333333334</ele><time>2026-04-29T11:09:15.801Z</time></trkpt><trkpt lat="44.4773373" lon="9.5970224"><ele>561.0</ele><time>2026-04-29T11:09:16.8Z</time></trkpt><trkpt lat="44.4774148" lon="9.5972499"><ele>561.0</ele><time>2026-04-29T11:09:17.8Z</time></trkpt><trkpt lat="44.4774825" lon="9.597489"><ele>561.0</ele><time>2026-04-29T11:09:18.8Z</time></trkpt><trkpt lat="44.4775426" lon="9.5977388"><ele>561.0</ele><time>2026-04-29T11:09:19.8Z</time></trkpt><trkpt lat="44.4776084" lon="9.5979877"><ele>562.3333333333334</ele><time>2026-04-29T11:09:20.8Z</time></trkpt><trkpt lat="44.4776709" lon="9.59822"><ele>563.6666666666667</ele><time>2026-04-29T11:09:21.8Z</time></trkpt><trkpt lat="44.4777251" lon="9.5984258"><ele>565.0</ele><time>2026-04-29T11:09:22.801Z</time></trkpt><trkpt lat="44.4777715" lon="9.5986068"><ele>564.5</ele><time>2026-04-29T11:09:23.8Z</time></trkpt><trkpt lat="44.4778094" lon="9.5987775"><ele>564.0</ele><time>2026-04-29T11:09:24.8Z</time></trkpt><trkpt lat="44.4778452" lon="9.5989432"><ele>563.5</ele><time>2026-04-29T11:09:25.8Z</time></trkpt><trkpt lat="44.4778875" lon="9.5991134"><ele>563.0</ele><time>2026-04-29T11:09:26.801Z</time></trkpt><trkpt lat="44.4779413" lon="9.599274"><ele>559.25</ele><time>2026-04-29T11:09:27.801Z</time></trkpt><trkpt lat="44.4780073" lon="9.5994223"><ele>555.5</ele><time>2026-04-29T11:09:28.8Z</time></trkpt><trkpt lat="44.4780781" lon="9.5995626"><ele>551.75</ele><time>2026-04-29T11:09:29.8Z</time></trkpt><trkpt lat="44.4781446" lon="9.5997045"><ele>548.0</ele><time>2026-04-29T11:09:30.8Z</time></trkpt><trkpt lat="44.4782022" lon="9.5998418"><ele>547.8</ele><time>2026-04-29T11:09:31.799Z</time></trkpt><trkpt lat="44.4782331" lon="9.5999847"><ele>547.5999999999999</ele><time>2026-04-29T11:09:32.8Z</time></trkpt><trkpt lat="44.4782336" lon="9.600125"><ele>547.4000000000001</ele><time>2026-04-29T11:09:33.801Z</time></trkpt><trkpt lat="44.4782103" lon="9.6002593"><ele>547.2</ele><time>2026-04-29T11:09:34.801Z</time></trkpt><trkpt lat="44.4781547" lon="9.6003827"><ele>547.0</ele><time>2026-04-29T11:09:35.801Z</time></trkpt><trkpt lat="44.4780706" lon="9.6004917"><ele>547.0</ele><time>2026-04-29T11:09:36.8Z</time></trkpt><trkpt lat="44.477961" lon="9.6006005"><ele>547.0</ele><time>2026-04-29T11:09:37.8Z</time></trkpt><trkpt lat="44.4778335" lon="9.6007196"><ele>547.0</ele><time>2026-04-29T11:09:38.8Z</time></trkpt><trkpt lat="44.4776876" lon="9.6008578"><ele>548.0</ele><time>2026-04-29T11:09:39.799Z</time></trkpt><trkpt lat="44.4775286" lon="9.6010092"><ele>549.0</ele><time>2026-04-29T11:09:40.8Z</time></trkpt><trkpt lat="44.4773866" lon="9.6011514"><ele>550.0</ele><time>2026-04-29T11:09:41.801Z</time></trkpt><trkpt lat="44.4772478" lon="9.6013141"><ele>550.0</ele><time>2026-04-29T11:09:42.801Z</time></trkpt><trkpt lat="44.4771293" lon="9.6015035"><ele>550.0</ele><time>2026-04-29T11:09:43.799Z</time></trkpt><trkpt lat="44.477025" lon="9.6017232"><ele>550.0</ele><time>2026-04-29T11:09:44.8Z</time></trkpt><trkpt lat="44.476932" lon="9.6019294"><ele>554.25</ele><time>2026-04-29T11:09:45.8Z</time></trkpt><trkpt lat="44.4768525" lon="9.6021118"><ele>558.5</ele><time>2026-04-29T11:09:46.801Z</time></trkpt><trkpt lat="44.4768006" lon="9.6022868"><ele>562.75</ele><time>2026-04-29T11:09:47.8Z</time></trkpt><trkpt lat="44.4767903" lon="9.6024766"><ele>567.0</ele><time>2026-04-29T11:09:48.8Z</time></trkpt><trkpt lat="44.4768361" lon="9.6026833"><ele>574.0</ele><time>2026-04-29T11:09:49.8Z</time></trkpt><trkpt lat="44.4769052" lon="9.6029097"><ele>581.0</ele><time>2026-04-29T11:09:50.799Z</time></trkpt><trkpt lat="44.4769723" lon="9.6031097"><ele>588.0</ele><time>2026-04-29T11:09:51.8Z</time></trkpt><trkpt lat="44.4770423" lon="9.6032881"><ele>576.0</ele><time>2026-04-29T11:09:52.799Z</time></trkpt><trkpt lat="44.4771397" lon="9.6034242"><ele>564.0</ele><time>2026-04-29T11:09:53.8Z</time></trkpt><trkpt lat="44.4772527" lon="9.6035024"><ele>552.0</ele><time>2026-04-29T11:09:54.799Z</time></trkpt><trkpt lat="44.4773753" lon="9.6035337"><ele>540.0</ele><time>2026-04-29T11:09:55.801Z</time></trkpt><trkpt lat="44.4774885" lon="9.6035964"><ele>543.75</ele><time>2026-04-29T11:09:56.8Z</time></trkpt><trkpt lat="44.477587" lon="9.603708"><ele>547.5</ele><time>2026-04-29T11:09:57.799Z</time></trkpt><trkpt lat="44.4776606" lon="9.6038687"><ele>551.25</ele><time>2026-04-29T11:09:58.8Z</time></trkpt><trkpt lat="44.4777265" lon="9.60407"><ele>555.0</ele><time>2026-04-29T11:09:59.801Z</time></trkpt><trkpt lat="44.4777954" lon="9.6042738"><ele>555.0</ele><time>2026-04-29T11:10:00.8Z</time></trkpt><trkpt lat="44.4778691" lon="9.6044496"><ele>555.0</ele><time>2026-04-29T11:10:01.799Z</time></trkpt><trkpt lat="44.4779416" lon="9.6045967"><ele>555.0</ele><time>2026-04-29T11:10:02.801Z</time></trkpt><trkpt lat="44.4780182" lon="9.6047199"><ele>555.0</ele><time>2026-04-29T11:10:03.801Z</time></trkpt><trkpt lat="44.4780949" lon="9.6048251"><ele>554.4</ele><time>2026-04-29T11:10:04.8Z</time></trkpt><trkpt lat="44.4781719" lon="9.6049199"><ele>553.8</ele><time>2026-04-29T11:10:05.8Z</time></trkpt><trkpt lat="44.47824" lon="9.6050202"><ele>553.2</ele><time>2026-04-29T11:10:06.801Z</time></trkpt><trkpt lat="44.4783067" lon="9.6051467"><ele>552.6</ele><time>2026-04-29T11:10:07.8Z</time></trkpt><trkpt lat="44.478376" lon="9.6052863"><ele>552.0</ele><time>2026-04-29T11:10:08.8Z</time></trkpt><trkpt lat="44.4784476" lon="9.6054353"><ele>552.0</ele><time>2026-04-29T11:10:09.799Z</time></trkpt><trkpt lat="44.4785116" lon="9.6055728"><ele>552.0</ele><time>2026-04-29T11:10:10.801Z</time></trkpt><trkpt lat="44.4785592" lon="9.6056983"><ele>552.0</ele><time>2026-04-29T11:10:11.8Z</time></trkpt><trkpt lat="44.4786023" lon="9.6058182"><ele>552.0</ele><time>2026-04-29T11:10:12.801Z</time></trkpt><trkpt lat="44.4786472" lon="9.6059308"><ele>552.0</ele><time>2026-04-29T11:10:13.801Z</time></trkpt><trkpt lat="44.4787028" lon="9.6060293"><ele>548.1666666666666</ele><time>2026-04-29T11:10:14.8Z</time></trkpt><trkpt lat="44.4787737" lon="9.6061047"><ele>544.3333333333334</ele><time>2026-04-29T11:10:15.799Z</time></trkpt><trkpt lat="44.4788433" lon="9.6061621"><ele>540.5</ele><time>2026-04-29T11:10:16.8Z</time></trkpt><trkpt lat="44.4789124" lon="9.6062233"><ele>536.6666666666667</ele><time>2026-04-29T11:10:17.801Z</time></trkpt><trkpt lat="44.4789796" lon="9.6062993"><ele>532.8333333333334</ele><time>2026-04-29T11:10:18.801Z</time></trkpt><trkpt lat="44.479035" lon="9.6063837"><ele>529.0</ele><time>2026-04-29T11:10:19.801Z</time></trkpt><trkpt lat="44.4790781" lon="9.6064698"><ele>529.0</ele><time>2026-04-29T11:10:20.801Z</time></trkpt><trkpt lat="44.4791128" lon="9.6065567"><ele>529.0</ele><time>2026-04-29T11:10:21.801Z</time></trkpt><trkpt lat="44.4791357" lon="9.6066524"><ele>529.0</ele><time>2026-04-29T11:10:22.8Z</time></trkpt><trkpt lat="44.4791547" lon="9.6067491"><ele>529.0</ele><time>2026-04-29T11:10:23.799Z</time></trkpt><trkpt lat="44.479173" lon="9.6068523"><ele>529.0</ele><time>2026-04-29T11:10:24.8Z</time></trkpt><trkpt lat="44.4791959" lon="9.6069537"><ele>529.0</ele><time>2026-04-29T11:10:25.8Z</time></trkpt><trkpt lat="44.4792232" lon="9.6070562"><ele>529.0</ele><time>2026-04-29T11:10:26.8Z</time></trkpt><trkpt lat="44.4792493" lon="9.607154"><ele>530.0</ele><time>2026-04-29T11:10:27.8Z</time></trkpt><trkpt lat="44.4792736" lon="9.6072486"><ele>531.0</ele><time>2026-04-29T11:10:28.8Z</time></trkpt><trkpt lat="44.4793099" lon="9.6073961"><ele>532.0</ele><time>2026-04-29T11:10:30.8Z</time></trkpt><trkpt lat="44.4793445" lon="9.607514"><ele>533.0</ele><time>2026-04-29T11:10:32.8Z</time></trkpt><trkpt lat="44.4793337" lon="9.607627"><ele>534.0</ele><time>2026-04-29T11:10:34.8Z</time></trkpt><trkpt lat="44.4792705" lon="9.6076759"><ele>535.0</ele><time>2026-04-29T11:10:36.8Z</time></trkpt><trkpt lat="44.4791987" lon="9.6076044"><ele>535.0</ele><time>2026-04-29T11:10:38.8Z</time></trkpt><trkpt lat="44.4791655" lon="9.6075129"><ele>535.0</ele><time>2026-04-29T11:10:39.8Z</time></trkpt><trkpt lat="44.4791229" lon="9.6073866"><ele>535.0</ele><time>2026-04-29T11:10:40.8Z</time></trkpt><trkpt lat="44.4790644" lon="9.6072273"><ele>535.0</ele><time>2026-04-29T11:10:41.799Z</time></trkpt><trkpt lat="44.4790131" lon="9.6070744"><ele>535.0</ele><time>2026-04-29T11:10:42.799Z</time></trkpt><trkpt lat="44.4789624" lon="9.6069192"><ele>534.0</ele><time>2026-04-29T11:10:43.799Z</time></trkpt><trkpt lat="44.4789209" lon="9.606776"><ele>533.0</ele><time>2026-04-29T11:10:44.799Z</time></trkpt><trkpt lat="44.478885" lon="9.6066555"><ele>532.0</ele><time>2026-04-29T11:10:45.8Z</time></trkpt><trkpt lat="44.4788492" lon="9.6065589"><ele>531.0</ele><time>2026-04-29T11:10:46.8Z</time></trkpt><trkpt lat="44.4787972" lon="9.606501"><ele>530.0</ele><time>2026-04-29T11:10:47.8Z</time></trkpt><trkpt lat="44.4787344" lon="9.6064836"><ele>529.0</ele><time>2026-04-29T11:10:48.799Z</time></trkpt><trkpt lat="44.4786526" lon="9.6066075"><ele>535.0</ele><time>2026-04-29T11:10:50.799Z</time></trkpt><trkpt lat="44.4786498" lon="9.6067153"><ele>541.0</ele><time>2026-04-29T11:10:51.798Z</time></trkpt><trkpt lat="44.4786673" lon="9.6068501"><ele>547.0</ele><time>2026-04-29T11:10:52.798Z</time></trkpt><trkpt lat="44.4786935" lon="9.6070077"><ele>553.0</ele><time>2026-04-29T11:10:53.799Z</time></trkpt><trkpt lat="44.4787142" lon="9.6071579"><ele>559.0</ele><time>2026-04-29T11:10:54.8Z</time></trkpt><trkpt lat="44.4787207" lon="9.6073067"><ele>559.0</ele><time>2026-04-29T11:10:55.8Z</time></trkpt><trkpt lat="44.4787028" lon="9.6074502"><ele>559.0</ele><time>2026-04-29T11:10:56.8Z</time></trkpt><trkpt lat="44.4786544" lon="9.6075755"><ele>559.0</ele><time>2026-04-29T11:10:57.799Z</time></trkpt><trkpt lat="44.4785854" lon="9.6076763"><ele>559.0</ele><time>2026-04-29T11:10:58.799Z</time></trkpt><trkpt lat="44.4785051" lon="9.6077604"><ele>559.0</ele><time>2026-04-29T11:10:59.799Z</time></trkpt><trkpt lat="44.4784494" lon="9.6078444"><ele>559.1666666666667</ele><time>2026-04-29T11:11:00.8Z</time></trkpt><trkpt lat="44.4784294" lon="9.6079453"><ele>559.3333333333334</ele><time>2026-04-29T11:11:01.799Z</time></trkpt><trkpt lat="44.4784459" lon="9.6080424"><ele>559.5</ele><time>2026-04-29T11:11:02.798Z</time></trkpt><trkpt lat="44.4784964" lon="9.6081214"><ele>559.6666666666666</ele><time>2026-04-29T11:11:03.799Z</time></trkpt><trkpt lat="44.47857" lon="9.6081687"><ele>559.8333333333333</ele><time>2026-04-29T11:11:04.799Z</time></trkpt><trkpt lat="44.4786555" lon="9.6081934"><ele>560.0</ele><time>2026-04-29T11:11:05.799Z</time></trkpt><trkpt lat="44.4787381" lon="9.6082133"><ele>562.0</ele><time>2026-04-29T11:11:06.8Z</time></trkpt><trkpt lat="44.4788021" lon="9.6082381"><ele>564.0</ele><time>2026-04-29T11:11:07.799Z</time></trkpt><trkpt lat="44.478852" lon="9.6083033"><ele>566.0</ele><time>2026-04-29T11:11:08.799Z</time></trkpt><trkpt lat="44.4788748" lon="9.6083912"><ele>568.0</ele><time>2026-04-29T11:11:09.799Z</time></trkpt><trkpt lat="44.4788686" lon="9.6084879"><ele>570.0</ele><time>2026-04-29T11:11:10.8Z</time></trkpt><trkpt lat="44.4788278" lon="9.6085846"><ele>572.0</ele><time>2026-04-29T11:11:11.799Z</time></trkpt><trkpt lat="44.4787675" lon="9.6086809"><ele>574.0</ele><time>2026-04-29T11:11:12.798Z</time></trkpt><trkpt lat="44.4787155" lon="9.6088027"><ele>574.0</ele><time>2026-04-29T11:11:13.799Z</time></trkpt><trkpt lat="44.4786826" lon="9.6089494"><ele>574.0</ele><time>2026-04-29T11:11:14.8Z</time></trkpt><trkpt lat="44.4786623" lon="9.6091089"><ele>574.0</ele><time>2026-04-29T11:11:15.799Z</time></trkpt><trkpt lat="44.4786528" lon="9.6092521"><ele>574.0</ele><time>2026-04-29T11:11:16.798Z</time></trkpt><trkpt lat="44.4786664" lon="9.6093841"><ele>574.0</ele><time>2026-04-29T11:11:17.799Z</time></trkpt><trkpt lat="44.4787122" lon="9.609502"><ele>572.4</ele><time>2026-04-29T11:11:18.799Z</time></trkpt><trkpt lat="44.4787715" lon="9.6096147"><ele>570.8</ele><time>2026-04-29T11:11:19.8Z</time></trkpt><trkpt lat="44.4788374" lon="9.6097344"><ele>569.2</ele><time>2026-04-29T11:11:20.8Z</time></trkpt><trkpt lat="44.4789113" lon="9.6098594"><ele>567.6</ele><time>2026-04-29T11:11:21.798Z</time></trkpt><trkpt lat="44.4789801" lon="9.6099844"><ele>566.0</ele><time>2026-04-29T11:11:22.798Z</time></trkpt><trkpt lat="44.4790442" lon="9.6101275"><ele>566.0</ele><time>2026-04-29T11:11:23.799Z</time></trkpt><trkpt lat="44.4790912" lon="9.6102918"><ele>566.0</ele><time>2026-04-29T11:11:24.799Z</time></trkpt><trkpt lat="44.4791162" lon="9.6104729"><ele>566.0</ele><time>2026-04-29T11:11:25.799Z</time></trkpt><trkpt lat="44.4791226" lon="9.610668"><ele>566.0</ele><time>2026-04-29T11:11:26.798Z</time></trkpt><trkpt lat="44.4791113" lon="9.6108777"><ele>566.25</ele><time>2026-04-29T11:11:27.8Z</time></trkpt><trkpt lat="44.4790875" lon="9.611101"><ele>566.5</ele><time>2026-04-29T11:11:28.8Z</time></trkpt><trkpt lat="44.4790586" lon="9.6113031"><ele>566.75</ele><time>2026-04-29T11:11:29.8Z</time></trkpt><trkpt lat="44.4790261" lon="9.6114774"><ele>567.0</ele><time>2026-04-29T11:11:30.799Z</time></trkpt><trkpt lat="44.4789843" lon="9.6116135"><ele>567.0</ele><time>2026-04-29T11:11:31.799Z</time></trkpt><trkpt lat="44.4789198" lon="9.6117211"><ele>567.0</ele><time>2026-04-29T11:11:32.798Z</time></trkpt><trkpt lat="44.4788409" lon="9.6117926"><ele>567.0</ele><time>2026-04-29T11:11:33.799Z</time></trkpt><trkpt lat="44.4787483" lon="9.6118223"><ele>567.0</ele><time>2026-04-29T11:11:34.799Z</time></trkpt><trkpt lat="44.4786429" lon="9.6118171"><ele>567.0</ele><time>2026-04-29T11:11:35.798Z</time></trkpt><trkpt lat="44.4785241" lon="9.6117985"><ele>571.75</ele><time>2026-04-29T11:11:36.799Z</time></trkpt><trkpt lat="44.4783867" lon="9.6117855"><ele>576.5</ele><time>2026-04-29T11:11:37.799Z</time></trkpt><trkpt lat="44.4782483" lon="9.6117767"><ele>581.25</ele><time>2026-04-29T11:11:38.8Z</time></trkpt><trkpt lat="44.4781276" lon="9.6117774"><ele>586.0</ele><time>2026-04-29T11:11:39.8Z</time></trkpt><trkpt lat="44.4780254" lon="9.6118129"><ele>586.0</ele><time>2026-04-29T11:11:40.799Z</time></trkpt><trkpt lat="44.4779377" lon="9.6118891"><ele>586.0</ele><time>2026-04-29T11:11:41.799Z</time></trkpt><trkpt lat="44.477859" lon="9.611982"><ele>586.0</ele><time>2026-04-29T11:11:42.799Z</time></trkpt><trkpt lat="44.4777638" lon="9.6120518"><ele>586.0</ele><time>2026-04-29T11:11:43.8Z</time></trkpt><trkpt lat="44.4776532" lon="9.6120882"><ele>586.0</ele><time>2026-04-29T11:11:44.798Z</time></trkpt><trkpt lat="44.4775298" lon="9.6121124"><ele>587.2</ele><time>2026-04-29T11:11:45.799Z</time></trkpt><trkpt lat="44.4774218" lon="9.6121303"><ele>588.4000000000001</ele><time>2026-04-29T11:11:46.799Z</time></trkpt><trkpt lat="44.4773251" lon="9.6121574"><ele>589.6</ele><time>2026-04-29T11:11:47.799Z</time></trkpt><trkpt lat="44.4772469" lon="9.612218"><ele>590.8000000000001</ele><time>2026-04-29T11:11:48.8Z</time></trkpt><trkpt lat="44.4771842" lon="9.6123096"><ele>592.0</ele><time>2026-04-29T11:11:49.799Z</time></trkpt><trkpt lat="44.4771441" lon="9.6124312"><ele>592.0</ele><time>2026-04-29T11:11:50.8Z</time></trkpt><trkpt lat="44.4771406" lon="9.6125718"><ele>592.0</ele><time>2026-04-29T11:11:51.799Z</time></trkpt><trkpt lat="44.4771643" lon="9.6127075"><ele>592.0</ele><time>2026-04-29T11:11:52.799Z</time></trkpt><trkpt lat="44.4772113" lon="9.6128489"><ele>592.0</ele><time>2026-04-29T11:11:53.8Z</time></trkpt><trkpt lat="44.47728" lon="9.612999"><ele>592.0</ele><time>2026-04-29T11:11:54.798Z</time></trkpt><trkpt lat="44.4773585" lon="9.6131662"><ele>595.0</ele><time>2026-04-29T11:11:55.799Z</time></trkpt><trkpt lat="44.4774393" lon="9.6133388"><ele>598.0</ele><time>2026-04-29T11:11:56.799Z</time></trkpt><trkpt lat="44.4775209" lon="9.6135141"><ele>601.0</ele><time>2026-04-29T11:11:57.8Z</time></trkpt><trkpt lat="44.4776023" lon="9.6136961"><ele>605.25</ele><time>2026-04-29T11:11:58.799Z</time></trkpt><trkpt lat="44.4776802" lon="9.6138812"><ele>609.5</ele><time>2026-04-29T11:11:59.798Z</time></trkpt><trkpt lat="44.477752" lon="9.6140499"><ele>613.75</ele><time>2026-04-29T11:12:00.799Z</time></trkpt><trkpt lat="44.4778264" lon="9.6142029"><ele>618.0</ele><time>2026-04-29T11:12:01.799Z</time></trkpt><trkpt lat="44.4779083" lon="9.6143265"><ele>614.25</ele><time>2026-04-29T11:12:02.799Z</time></trkpt><trkpt lat="44.4780036" lon="9.6144161"><ele>610.5</ele><time>2026-04-29T11:12:03.799Z</time></trkpt><trkpt lat="44.4781096" lon="9.61447"><ele>606.75</ele><time>2026-04-29T11:12:04.799Z</time></trkpt><trkpt lat="44.4782242" lon="9.6144833"><ele>603.0</ele><time>2026-04-29T11:12:05.8Z</time></trkpt><trkpt lat="44.4783382" lon="9.6144768"><ele>603.0</ele><time>2026-04-29T11:12:06.8Z</time></trkpt><trkpt lat="44.4784446" lon="9.6144851"><ele>603.0</ele><time>2026-04-29T11:12:07.8Z</time></trkpt><trkpt lat="44.4785431" lon="9.6145413"><ele>603.0</ele><time>2026-04-29T11:12:08.798Z</time></trkpt><trkpt lat="44.4786134" lon="9.6146278"><ele>603.0</ele><time>2026-04-29T11:12:09.799Z</time></trkpt><trkpt lat="44.4786619" lon="9.6147358"><ele>603.0</ele><time>2026-04-29T11:12:10.799Z</time></trkpt><trkpt lat="44.4786853" lon="9.6148625"><ele>606.5</ele><time>2026-04-29T11:12:11.799Z</time></trkpt><trkpt lat="44.4786887" lon="9.6149967"><ele>610.0</ele><time>2026-04-29T11:12:12.799Z</time></trkpt><trkpt lat="44.4786837" lon="9.6151235"><ele>613.5</ele><time>2026-04-29T11:12:13.799Z</time></trkpt><trkpt lat="44.4786792" lon="9.6152406"><ele>617.0</ele><time>2026-04-29T11:12:14.798Z</time></trkpt><trkpt lat="44.4786807" lon="9.6153611"><ele>620.5</ele><time>2026-04-29T11:12:15.799Z</time></trkpt><trkpt lat="44.4786924" lon="9.615478"><ele>624.0</ele><time>2026-04-29T11:12:16.799Z</time></trkpt><trkpt lat="44.4787175" lon="9.6155926"><ele>627.0</ele><time>2026-04-29T11:12:17.798Z</time></trkpt><trkpt lat="44.4787391" lon="9.6157095"><ele>630.0</ele><time>2026-04-29T11:12:18.799Z</time></trkpt><trkpt lat="44.4787348" lon="9.6158315"><ele>633.0</ele><time>2026-04-29T11:12:19.798Z</time></trkpt><trkpt lat="44.478705" lon="9.6159455"><ele>636.0</ele><time>2026-04-29T11:12:20.798Z</time></trkpt><trkpt lat="44.4786774" lon="9.616061"><ele>639.0</ele><time>2026-04-29T11:12:21.799Z</time></trkpt><trkpt lat="44.4786957" lon="9.6161742"><ele>642.0</ele><time>2026-04-29T11:12:22.799Z</time></trkpt><trkpt lat="44.4787521" lon="9.6162622"><ele>638.0</ele><time>2026-04-29T11:12:23.799Z</time></trkpt><trkpt lat="44.4788312" lon="9.6163259"><ele>634.0</ele><time>2026-04-29T11:12:24.799Z</time></trkpt><trkpt lat="44.4789257" lon="9.6163946"><ele>630.0</ele><time>2026-04-29T11:12:25.799Z</time></trkpt><trkpt lat="44.479035" lon="9.6164957"><ele>626.0</ele><time>2026-04-29T11:12:26.798Z</time></trkpt><trkpt lat="44.4791598" lon="9.6166257"><ele>626.0</ele><time>2026-04-29T11:12:27.798Z</time></trkpt><trkpt lat="44.4792911" lon="9.6167734"><ele>626.0</ele><time>2026-04-29T11:12:28.799Z</time></trkpt><trkpt lat="44.4794075" lon="9.6169102"><ele>626.0</ele><time>2026-04-29T11:12:29.799Z</time></trkpt><trkpt lat="44.4795123" lon="9.6170417"><ele>625.5</ele><time>2026-04-29T11:12:30.799Z</time></trkpt><trkpt lat="44.4795923" lon="9.6171887"><ele>625.0</ele><time>2026-04-29T11:12:31.799Z</time></trkpt><trkpt lat="44.479657" lon="9.6173521"><ele>624.5</ele><time>2026-04-29T11:12:32.8Z</time></trkpt><trkpt lat="44.4797182" lon="9.6175197"><ele>624.0</ele><time>2026-04-29T11:12:33.8Z</time></trkpt><trkpt lat="44.4797865" lon="9.6176825"><ele>626.75</ele><time>2026-04-29T11:12:34.8Z</time></trkpt><trkpt lat="44.4798651" lon="9.6178335"><ele>629.5</ele><time>2026-04-29T11:12:35.8Z</time></trkpt><trkpt lat="44.4799479" lon="9.6179664"><ele>632.25</ele><time>2026-04-29T11:12:36.799Z</time></trkpt><trkpt lat="44.4800287" lon="9.6180804"><ele>635.0</ele><time>2026-04-29T11:12:37.799Z</time></trkpt><trkpt lat="44.4801008" lon="9.6181846"><ele>635.0</ele><time>2026-04-29T11:12:38.8Z</time></trkpt><trkpt lat="44.4801616" lon="9.6182757"><ele>635.0</ele><time>2026-04-29T11:12:39.8Z</time></trkpt><trkpt lat="44.4801948" lon="9.6183691"><ele>635.0</ele><time>2026-04-29T11:12:40.799Z</time></trkpt><trkpt lat="44.4802025" lon="9.6184634"><ele>635.0</ele><time>2026-04-29T11:12:41.798Z</time></trkpt><trkpt lat="44.4801365" lon="9.6186166"><ele>635.0</ele><time>2026-04-29T11:12:43.799Z</time></trkpt><trkpt lat="44.48006" lon="9.6186917"><ele>634.25</ele><time>2026-04-29T11:12:44.8Z</time></trkpt><trkpt lat="44.4799652" lon="9.6187796"><ele>633.5</ele><time>2026-04-29T11:12:45.8Z</time></trkpt><trkpt lat="44.4798667" lon="9.6188914"><ele>632.75</ele><time>2026-04-29T11:12:46.799Z</time></trkpt><trkpt lat="44.4797695" lon="9.6190227"><ele>632.0</ele><time>2026-04-29T11:12:47.799Z</time></trkpt><trkpt lat="44.4796914" lon="9.6191551"><ele>632.0</ele><time>2026-04-29T11:12:48.8Z</time></trkpt><trkpt lat="44.4796372" lon="9.6193012"><ele>632.0</ele><time>2026-04-29T11:12:49.798Z</time></trkpt><trkpt lat="44.4796283" lon="9.6194633"><ele>632.0</ele><time>2026-04-29T11:12:50.799Z</time></trkpt><trkpt lat="44.4796453" lon="9.6196262"><ele>632.0</ele><time>2026-04-29T11:12:51.799Z</time></trkpt><trkpt lat="44.4796916" lon="9.6197775"><ele>634.75</ele><time>2026-04-29T11:12:52.8Z</time></trkpt><trkpt lat="44.4797558" lon="9.6199104"><ele>637.5</ele><time>2026-04-29T11:12:53.8Z</time></trkpt><trkpt lat="44.4798739" lon="9.6199972"><ele>640.25</ele><time>2026-04-29T11:12:54.799Z</time></trkpt><trkpt lat="44.4799925" lon="9.6200745"><ele>643.0</ele><time>2026-04-29T11:12:55.8Z</time></trkpt><trkpt lat="44.4801062" lon="9.6201605"><ele>643.0</ele><time>2026-04-29T11:12:56.8Z</time></trkpt><trkpt lat="44.4802076" lon="9.6202719"><ele>643.0</ele><time>2026-04-29T11:12:57.799Z</time></trkpt><trkpt lat="44.4802882" lon="9.6203887"><ele>643.0</ele><time>2026-04-29T11:12:58.799Z</time></trkpt><trkpt lat="44.4803563" lon="9.6205249"><ele>643.0</ele><time>2026-04-29T11:12:59.799Z</time></trkpt><trkpt lat="44.4804078" lon="9.6206682"><ele>643.0</ele><time>2026-04-29T11:13:00.798Z</time></trkpt><trkpt lat="44.4804461" lon="9.6208158"><ele>643.0</ele><time>2026-04-29T11:13:01.799Z</time></trkpt><trkpt lat="44.4804708" lon="9.6209616"><ele>643.0</ele><time>2026-04-29T11:13:02.8Z</time></trkpt><trkpt lat="44.4804977" lon="9.6210962"><ele>643.0</ele><time>2026-04-29T11:13:03.799Z</time></trkpt><trkpt lat="44.4805446" lon="9.6212208"><ele>643.0</ele><time>2026-04-29T11:13:04.799Z</time></trkpt><trkpt lat="44.4806111" lon="9.6213265"><ele>645.3333333333334</ele><time>2026-04-29T11:13:05.799Z</time></trkpt><trkpt lat="44.4806631" lon="9.6213891"><ele>647.6666666666667</ele><time>2026-04-29T11:13:06.8Z</time></trkpt><trkpt lat="44.4807155" lon="9.6214543"><ele>650.0</ele><time>2026-04-29T11:13:08.8Z</time></trkpt><trkpt lat="44.4807604" lon="9.621531"><ele>652.3333333333334</ele><time>2026-04-29T11:13:10.8Z</time></trkpt><trkpt lat="44.4807575" lon="9.6216359"><ele>654.6666666666666</ele><time>2026-04-29T11:13:12.799Z</time></trkpt><trkpt lat="44.4806966" lon="9.621674"><ele>657.0</ele><time>2026-04-29T11:13:14.8Z</time></trkpt><trkpt lat="44.4805879" lon="9.6216109"><ele>657.0</ele><time>2026-04-29T11:13:16.799Z</time></trkpt><trkpt lat="44.4805108" lon="9.6215424"><ele>657.0</ele><time>2026-04-29T11:13:17.8Z</time></trkpt><trkpt lat="44.4804086" lon="9.6214665"><ele>657.0</ele><time>2026-04-29T11:13:18.799Z</time></trkpt><trkpt lat="44.4802877" lon="9.6213765"><ele>657.0</ele><time>2026-04-29T11:13:19.799Z</time></trkpt><trkpt lat="44.4801723" lon="9.6212936"><ele>659.75</ele><time>2026-04-29T11:13:20.798Z</time></trkpt><trkpt lat="44.4800626" lon="9.6212351"><ele>662.5</ele><time>2026-04-29T11:13:21.798Z</time></trkpt><trkpt lat="44.4799479" lon="9.6212008"><ele>665.25</ele><time>2026-04-29T11:13:22.799Z</time></trkpt><trkpt lat="44.4798243" lon="9.6211913"><ele>668.0</ele><time>2026-04-29T11:13:23.799Z</time></trkpt><trkpt lat="44.4796947" lon="9.6211942"><ele>667.25</ele><time>2026-04-29T11:13:24.799Z</time></trkpt><trkpt lat="44.4795617" lon="9.6212014"><ele>666.5</ele><time>2026-04-29T11:13:25.8Z</time></trkpt><trkpt lat="44.4794289" lon="9.6212071"><ele>665.75</ele><time>2026-04-29T11:13:26.8Z</time></trkpt><trkpt lat="44.4793056" lon="9.6212127"><ele>665.0</ele><time>2026-04-29T11:13:27.8Z</time></trkpt><trkpt lat="44.4791862" lon="9.6212361"><ele>665.0</ele><time>2026-04-29T11:13:28.799Z</time></trkpt><trkpt lat="44.4790697" lon="9.6212797"><ele>665.0</ele><time>2026-04-29T11:13:29.799Z</time></trkpt><trkpt lat="44.4789568" lon="9.6213286"><ele>665.0</ele><time>2026-04-29T11:13:30.798Z</time></trkpt><trkpt lat="44.4788461" lon="9.6213496"><ele>665.0</ele><time>2026-04-29T11:13:31.8Z</time></trkpt><trkpt lat="44.4787381" lon="9.6213395"><ele>667.5</ele><time>2026-04-29T11:13:32.8Z</time></trkpt><trkpt lat="44.4786247" lon="9.6213046"><ele>670.0</ele><time>2026-04-29T11:13:33.8Z</time></trkpt><trkpt lat="44.4785134" lon="9.6212378"><ele>672.5</ele><time>2026-04-29T11:13:34.8Z</time></trkpt><trkpt lat="44.4783997" lon="9.6211436"><ele>675.0</ele><time>2026-04-29T11:13:35.8Z</time></trkpt><trkpt lat="44.4782785" lon="9.6210243"><ele>675.0</ele><time>2026-04-29T11:13:36.8Z</time></trkpt><trkpt lat="44.4781519" lon="9.6208865"><ele>675.0</ele><time>2026-04-29T11:13:37.8Z</time></trkpt><trkpt lat="44.4780149" lon="9.6207676"><ele>675.0</ele><time>2026-04-29T11:13:38.8Z</time></trkpt><trkpt lat="44.4778706" lon="9.6206934"><ele>672.5</ele><time>2026-04-29T11:13:39.8Z</time></trkpt><trkpt lat="44.4777153" lon="9.6206308"><ele>670.0</ele><time>2026-04-29T11:13:40.8Z</time></trkpt><trkpt lat="44.4775658" lon="9.620605"><ele>667.5</ele><time>2026-04-29T11:13:41.799Z</time></trkpt><trkpt lat="44.4774306" lon="9.6206074"><ele>665.0</ele><time>2026-04-29T11:13:42.799Z</time></trkpt><trkpt lat="44.4773119" lon="9.6205916"><ele>665.0</ele><time>2026-04-29T11:13:43.799Z</time></trkpt><trkpt lat="44.4772231" lon="9.620537"><ele>665.0</ele><time>2026-04-29T11:13:44.798Z</time></trkpt><trkpt lat="44.4771622" lon="9.6204534"><ele>665.0</ele><time>2026-04-29T11:13:45.798Z</time></trkpt><trkpt lat="44.4771293" lon="9.6203318"><ele>665.0</ele><time>2026-04-29T11:13:46.798Z</time></trkpt><trkpt lat="44.4771172" lon="9.6201714"><ele>665.0</ele><time>2026-04-29T11:13:47.8Z</time></trkpt><trkpt lat="44.47711" lon="9.6199711"><ele>670.75</ele><time>2026-04-29T11:13:48.799Z</time></trkpt><trkpt lat="44.4771202" lon="9.6197734"><ele>676.5</ele><time>2026-04-29T11:13:49.799Z</time></trkpt><trkpt lat="44.4771498" lon="9.6195952"><ele>682.25</ele><time>2026-04-29T11:13:50.799Z</time></trkpt><trkpt lat="44.477169" lon="9.6194457"><ele>688.0</ele><time>2026-04-29T11:13:51.798Z</time></trkpt><trkpt lat="44.4771387" lon="9.6192961"><ele>688.0</ele><time>2026-04-29T11:13:52.798Z</time></trkpt><trkpt lat="44.477077" lon="9.619141"><ele>688.0</ele><time>2026-04-29T11:13:53.799Z</time></trkpt><trkpt lat="44.4769877" lon="9.6189779"><ele>688.0</ele><time>2026-04-29T11:13:54.8Z</time></trkpt><trkpt lat="44.4768958" lon="9.6188028"><ele>688.0</ele><time>2026-04-29T11:13:55.8Z</time></trkpt><trkpt lat="44.4768237" lon="9.618633"><ele>688.0</ele><time>2026-04-29T11:13:56.8Z</time></trkpt><trkpt lat="44.4767832" lon="9.6184649"><ele>688.0</ele><time>2026-04-29T11:13:57.8Z</time></trkpt><trkpt lat="44.4767686" lon="9.6182912"><ele>688.0</ele><time>2026-04-29T11:13:58.8Z</time></trkpt><trkpt lat="44.4767405" lon="9.6181153"><ele>688.0</ele><time>2026-04-29T11:13:59.8Z</time></trkpt><trkpt lat="44.4766788" lon="9.6179444"><ele>688.0</ele><time>2026-04-29T11:14:00.8Z</time></trkpt><trkpt lat="44.4765891" lon="9.6177901"><ele>688.0</ele><time>2026-04-29T11:14:01.799Z</time></trkpt><trkpt lat="44.4764789" lon="9.6176709"><ele>688.0</ele><time>2026-04-29T11:14:02.799Z</time></trkpt><trkpt lat="44.4763442" lon="9.6176032"><ele>688.0</ele><time>2026-04-29T11:14:03.798Z</time></trkpt><trkpt lat="44.4762033" lon="9.6175549"><ele>688.0</ele><time>2026-04-29T11:14:04.799Z</time></trkpt><trkpt lat="44.4760656" lon="9.6174726"><ele>688.0</ele><time>2026-04-29T11:14:05.799Z</time></trkpt><trkpt lat="44.475926" lon="9.6173586"><ele>688.0</ele><time>2026-04-29T11:14:06.8Z</time></trkpt><trkpt lat="44.4757857" lon="9.6172219"><ele>688.0</ele><time>2026-04-29T11:14:07.799Z</time></trkpt><trkpt lat="44.4756716" lon="9.6170961"><ele>688.0</ele><time>2026-04-29T11:14:08.799Z</time></trkpt><trkpt lat="44.4755866" lon="9.6169633"><ele>688.0</ele><time>2026-04-29T11:14:09.8Z</time></trkpt><trkpt lat="44.4755373" lon="9.6168006"><ele>688.0</ele><time>2026-04-29T11:14:10.799Z</time></trkpt><trkpt lat="44.4755068" lon="9.6166122"><ele>693.6666666666667</ele><time>2026-04-29T11:14:11.799Z</time></trkpt><trkpt lat="44.47548" lon="9.6164005"><ele>699.3333333333334</ele><time>2026-04-29T11:14:12.798Z</time></trkpt><trkpt lat="44.4754328" lon="9.6161777"><ele>705.0</ele><time>2026-04-29T11:14:13.799Z</time></trkpt><trkpt lat="44.4753742" lon="9.6159513"><ele>707.0</ele><time>2026-04-29T11:14:14.799Z</time></trkpt><trkpt lat="44.4753282" lon="9.6157166"><ele>709.0</ele><time>2026-04-29T11:14:15.799Z</time></trkpt><trkpt lat="44.4752997" lon="9.6154975"><ele>711.0</ele><time>2026-04-29T11:14:16.799Z</time></trkpt><trkpt lat="44.4752672" lon="9.6152988"><ele>711.0</ele><time>2026-04-29T11:14:17.799Z</time></trkpt><trkpt lat="44.4752084" lon="9.6151289"><ele>711.0</ele><time>2026-04-29T11:14:18.799Z</time></trkpt><trkpt lat="44.4751226" lon="9.6149826"><ele>711.0</ele><time>2026-04-29T11:14:19.799Z</time></trkpt><trkpt lat="44.4750283" lon="9.6148751"><ele>711.0</ele><time>2026-04-29T11:14:20.799Z</time></trkpt><trkpt lat="44.4749349" lon="9.614834"><ele>711.0</ele><time>2026-04-29T11:14:21.798Z</time></trkpt><trkpt lat="44.4748377" lon="9.6148579"><ele>711.0</ele><time>2026-04-29T11:14:22.799Z</time></trkpt><trkpt lat="44.4747553" lon="9.6149458"><ele>711.0</ele><time>2026-04-29T11:14:23.799Z</time></trkpt><trkpt lat="44.4746812" lon="9.6150975"><ele>711.0</ele><time>2026-04-29T11:14:24.799Z</time></trkpt><trkpt lat="44.4746249" lon="9.6152796"><ele>711.25</ele><time>2026-04-29T11:14:25.798Z</time></trkpt><trkpt lat="44.4746143" lon="9.6154673"><ele>711.5</ele><time>2026-04-29T11:14:26.799Z</time></trkpt><trkpt lat="44.4746494" lon="9.6156479"><ele>711.75</ele><time>2026-04-29T11:14:27.799Z</time></trkpt><trkpt lat="44.474708" lon="9.6158316"><ele>712.0</ele><time>2026-04-29T11:14:28.799Z</time></trkpt><trkpt lat="44.4747543" lon="9.6160269"><ele>710.5</ele><time>2026-04-29T11:14:29.798Z</time></trkpt><trkpt lat="44.4747722" lon="9.6162159"><ele>709.0</ele><time>2026-04-29T11:14:30.8Z</time></trkpt><trkpt lat="44.4747488" lon="9.6164039"><ele>707.5</ele><time>2026-04-29T11:14:31.8Z</time></trkpt><trkpt lat="44.4746897" lon="9.6165939"><ele>706.0</ele><time>2026-04-29T11:14:32.8Z</time></trkpt><trkpt lat="44.4746159" lon="9.6168039"><ele>709.0</ele><time>2026-04-29T11:14:33.8Z</time></trkpt><trkpt lat="44.4745499" lon="9.617012"><ele>712.0</ele><time>2026-04-29T11:14:34.8Z</time></trkpt><trkpt lat="44.4744756" lon="9.6171722"><ele>715.0</ele><time>2026-04-29T11:14:35.8Z</time></trkpt><trkpt lat="44.4743781" lon="9.6172822"><ele>718.0</ele><time>2026-04-29T11:14:36.8Z</time></trkpt><trkpt lat="44.4742623" lon="9.6173383"><ele>718.0</ele><time>2026-04-29T11:14:37.8Z</time></trkpt><trkpt lat="44.4741337" lon="9.6173364"><ele>718.0</ele><time>2026-04-29T11:14:38.8Z</time></trkpt><trkpt lat="44.4739972" lon="9.6172977"><ele>718.0</ele><time>2026-04-29T11:14:39.8Z</time></trkpt><trkpt lat="44.473857" lon="9.6172697"><ele>718.0</ele><time>2026-04-29T11:14:40.8Z</time></trkpt><trkpt lat="44.4737224" lon="9.6172915"><ele>720.0</ele><time>2026-04-29T11:14:41.799Z</time></trkpt><trkpt lat="44.4735826" lon="9.6173559"><ele>722.0</ele><time>2026-04-29T11:14:42.799Z</time></trkpt><trkpt lat="44.4734266" lon="9.6174449"><ele>724.0</ele><time>2026-04-29T11:14:43.799Z</time></trkpt><trkpt lat="44.4732538" lon="9.6175267"><ele>724.0</ele><time>2026-04-29T11:14:44.8Z</time></trkpt><trkpt lat="44.4730964" lon="9.6175712"><ele>724.0</ele><time>2026-04-29T11:14:45.8Z</time></trkpt><trkpt lat="44.4729406" lon="9.6175729"><ele>724.0</ele><time>2026-04-29T11:14:46.8Z</time></trkpt><trkpt lat="44.472795" lon="9.6176042"><ele>726.0</ele><time>2026-04-29T11:14:47.799Z</time></trkpt><trkpt lat="44.4726634" lon="9.6176564"><ele>728.0</ele><time>2026-04-29T11:14:48.798Z</time></trkpt><trkpt lat="44.472548" lon="9.6176777"><ele>730.0</ele><time>2026-04-29T11:14:49.799Z</time></trkpt><trkpt lat="44.4724441" lon="9.6176516"><ele>732.0</ele><time>2026-04-29T11:14:50.798Z</time></trkpt><trkpt lat="44.4723518" lon="9.6175812"><ele>732.0</ele><time>2026-04-29T11:14:51.799Z</time></trkpt><trkpt lat="44.4722753" lon="9.6174668"><ele>732.0</ele><time>2026-04-29T11:14:52.799Z</time></trkpt><trkpt lat="44.4721945" lon="9.6173469"><ele>732.0</ele><time>2026-04-29T11:14:53.798Z</time></trkpt><trkpt lat="44.4720724" lon="9.6172522"><ele>732.0</ele><time>2026-04-29T11:14:54.799Z</time></trkpt><trkpt lat="44.471927" lon="9.6171799"><ele>730.6666666666666</ele><time>2026-04-29T11:14:55.798Z</time></trkpt><trkpt lat="44.4717664" lon="9.6171403"><ele>729.3333333333333</ele><time>2026-04-29T11:14:56.8Z</time></trkpt><trkpt lat="44.4715951" lon="9.6170905"><ele>728.0</ele><time>2026-04-29T11:14:57.8Z</time></trkpt><trkpt lat="44.4714252" lon="9.6170229"><ele>728.6666666666666</ele><time>2026-04-29T11:14:58.8Z</time></trkpt><trkpt lat="44.4712698" lon="9.6169774"><ele>729.3333333333334</ele><time>2026-04-29T11:14:59.8Z</time></trkpt><trkpt lat="44.4711204" lon="9.6169933"><ele>730.0</ele><time>2026-04-29T11:15:00.799Z</time></trkpt><trkpt lat="44.4709747" lon="9.6170515"><ele>730.0</ele><time>2026-04-29T11:15:01.8Z</time></trkpt><trkpt lat="44.4708306" lon="9.6171039"><ele>730.0</ele><time>2026-04-29T11:15:02.799Z</time></trkpt><trkpt lat="44.4706955" lon="9.6171162"><ele>730.0</ele><time>2026-04-29T11:15:03.8Z</time></trkpt><trkpt lat="44.4705589" lon="9.6171265"><ele>730.0</ele><time>2026-04-29T11:15:04.8Z</time></trkpt><trkpt lat="44.4704596" lon="9.6169828"><ele>736.6666666666667</ele><time>2026-04-29T11:15:05.8Z</time></trkpt><trkpt lat="44.4703416" lon="9.6168816"><ele>743.3333333333334</ele><time>2026-04-29T11:15:06.8Z</time></trkpt><trkpt lat="44.470208" lon="9.6167662"><ele>750.0</ele><time>2026-04-29T11:15:07.8Z</time></trkpt><trkpt lat="44.4700826" lon="9.6166257"><ele>750.0</ele><time>2026-04-29T11:15:08.8Z</time></trkpt><trkpt lat="44.4699609" lon="9.6164552"><ele>750.0</ele><time>2026-04-29T11:15:09.799Z</time></trkpt><trkpt lat="44.4698492" lon="9.6163125"><ele>750.0</ele><time>2026-04-29T11:15:10.799Z</time></trkpt><trkpt lat="44.4697263" lon="9.6162021"><ele>748.6666666666666</ele><time>2026-04-29T11:15:11.799Z</time></trkpt><trkpt lat="44.46959" lon="9.6161343"><ele>747.3333333333333</ele><time>2026-04-29T11:15:12.799Z</time></trkpt><trkpt lat="44.4694365" lon="9.6161258"><ele>746.0</ele><time>2026-04-29T11:15:13.799Z</time></trkpt><trkpt lat="44.4692727" lon="9.6161574"><ele>746.0</ele><time>2026-04-29T11:15:14.799Z</time></trkpt><trkpt lat="44.4691218" lon="9.6162172"><ele>746.0</ele><time>2026-04-29T11:15:15.799Z</time></trkpt><trkpt lat="44.4689874" lon="9.6162852"><ele>746.0</ele><time>2026-04-29T11:15:16.799Z</time></trkpt><trkpt lat="44.4688777" lon="9.6163804"><ele>746.0</ele><time>2026-04-29T11:15:17.799Z</time></trkpt><trkpt lat="44.468807" lon="9.6165126"><ele>746.0</ele><time>2026-04-29T11:15:18.8Z</time></trkpt><trkpt lat="44.4687719" lon="9.6166767"><ele>746.0</ele><time>2026-04-29T11:15:19.8Z</time></trkpt><trkpt lat="44.4687762" lon="9.6168718"><ele>746.0</ele><time>2026-04-29T11:15:20.799Z</time></trkpt><trkpt lat="44.4687738" lon="9.6170908"><ele>746.0</ele><time>2026-04-29T11:15:21.8Z</time></trkpt><trkpt lat="44.468753" lon="9.6173162"><ele>750.3333333333333</ele><time>2026-04-29T11:15:22.8Z</time></trkpt><trkpt lat="44.4687257" lon="9.617556"><ele>754.6666666666666</ele><time>2026-04-29T11:15:23.799Z</time></trkpt><trkpt lat="44.4686877" lon="9.617778"><ele>759.0</ele><time>2026-04-29T11:15:24.8Z</time></trkpt><trkpt lat="44.4686354" lon="9.6179657"><ele>759.0</ele><time>2026-04-29T11:15:25.8Z</time></trkpt><trkpt lat="44.4685655" lon="9.618134"><ele>759.0</ele><time>2026-04-29T11:15:26.799Z</time></trkpt><trkpt lat="44.4684737" lon="9.6182823"><ele>759.0</ele><time>2026-04-29T11:15:27.799Z</time></trkpt><trkpt lat="44.4683623" lon="9.618396"><ele>759.0</ele><time>2026-04-29T11:15:28.8Z</time></trkpt><trkpt lat="44.4682257" lon="9.6184905"><ele>759.0</ele><time>2026-04-29T11:15:29.8Z</time></trkpt><trkpt lat="44.4680704" lon="9.6185911"><ele>759.0</ele><time>2026-04-29T11:15:30.799Z</time></trkpt><trkpt lat="44.4679194" lon="9.6186803"><ele>759.0</ele><time>2026-04-29T11:15:31.799Z</time></trkpt><trkpt lat="44.4677838" lon="9.6187584"><ele>759.2</ele><time>2026-04-29T11:15:32.798Z</time></trkpt><trkpt lat="44.4676742" lon="9.6188287"><ele>759.4000000000001</ele><time>2026-04-29T11:15:33.799Z</time></trkpt><trkpt lat="44.4675751" lon="9.6188869"><ele>759.6</ele><time>2026-04-29T11:15:34.799Z</time></trkpt><trkpt lat="44.4674851" lon="9.6189233"><ele>759.8</ele><time>2026-04-29T11:15:35.799Z</time></trkpt><trkpt lat="44.467393" lon="9.6189319"><ele>760.0</ele><time>2026-04-29T11:15:36.799Z</time></trkpt><trkpt lat="44.4673013" lon="9.6189127"><ele>760.0</ele><time>2026-04-29T11:15:37.799Z</time></trkpt><trkpt lat="44.4672087" lon="9.6188573"><ele>760.0</ele><time>2026-04-29T11:15:38.799Z</time></trkpt><trkpt lat="44.4670999" lon="9.6187923"><ele>760.0</ele><time>2026-04-29T11:15:39.799Z</time></trkpt><trkpt lat="44.466981" lon="9.6187611"><ele>760.0</ele><time>2026-04-29T11:15:40.799Z</time></trkpt><trkpt lat="44.4668524" lon="9.6187854"><ele>761.5</ele><time>2026-04-29T11:15:41.798Z</time></trkpt><trkpt lat="44.46672" lon="9.6188278"><ele>763.0</ele><time>2026-04-29T11:15:42.798Z</time></trkpt><trkpt lat="44.466587" lon="9.6188369"><ele>764.5</ele><time>2026-04-29T11:15:43.799Z</time></trkpt><trkpt lat="44.4664537" lon="9.6188052"><ele>766.0</ele><time>2026-04-29T11:15:44.799Z</time></trkpt><trkpt lat="44.4663243" lon="9.618768"><ele>768.5</ele><time>2026-04-29T11:15:45.799Z</time></trkpt><trkpt lat="44.4661965" lon="9.6187504"><ele>771.0</ele><time>2026-04-29T11:15:46.8Z</time></trkpt><trkpt lat="44.4660648" lon="9.6187987"><ele>773.5</ele><time>2026-04-29T11:15:47.799Z</time></trkpt><trkpt lat="44.4659308" lon="9.6188759"><ele>776.0</ele><time>2026-04-29T11:15:48.799Z</time></trkpt><trkpt lat="44.465788" lon="9.6189873"><ele>776.0</ele><time>2026-04-29T11:15:49.799Z</time></trkpt><trkpt lat="44.4656419" lon="9.6191215"><ele>776.0</ele><time>2026-04-29T11:15:50.798Z</time></trkpt><trkpt lat="44.4654982" lon="9.6192682"><ele>776.0</ele><time>2026-04-29T11:15:51.799Z</time></trkpt><trkpt lat="44.4653755" lon="9.6194067"><ele>778.25</ele><time>2026-04-29T11:15:52.799Z</time></trkpt><trkpt lat="44.4652677" lon="9.6195512"><ele>780.5</ele><time>2026-04-29T11:15:53.8Z</time></trkpt><trkpt lat="44.4651781" lon="9.6196979"><ele>782.75</ele><time>2026-04-29T11:15:54.799Z</time></trkpt><trkpt lat="44.4650935" lon="9.6198452"><ele>785.0</ele><time>2026-04-29T11:15:55.799Z</time></trkpt><trkpt lat="44.4650335" lon="9.6199763"><ele>785.0000000000001</ele><time>2026-04-29T11:15:56.798Z</time></trkpt><trkpt lat="44.4650104" lon="9.6201033"><ele>785.0</ele><time>2026-04-29T11:15:57.798Z</time></trkpt><trkpt lat="44.4650253" lon="9.6202209"><ele>785.0</ele><time>2026-04-29T11:15:58.799Z</time></trkpt><trkpt lat="44.4650693" lon="9.6203146"><ele>785.0</ele><time>2026-04-29T11:15:59.798Z</time></trkpt><trkpt lat="44.4651315" lon="9.6203901"><ele>785.0000000000001</ele><time>2026-04-29T11:16:00.799Z</time></trkpt><trkpt lat="44.4652068" lon="9.6204668"><ele>785.0</ele><time>2026-04-29T11:16:01.799Z</time></trkpt><trkpt lat="44.4652942" lon="9.620551"><ele>787.25</ele><time>2026-04-29T11:16:02.799Z</time></trkpt><trkpt lat="44.4653825" lon="9.6206606"><ele>789.5</ele><time>2026-04-29T11:16:03.798Z</time></trkpt><trkpt lat="44.4654531" lon="9.6208045"><ele>791.75</ele><time>2026-04-29T11:16:04.799Z</time></trkpt><trkpt lat="44.4654956" lon="9.6209641"><ele>794.0</ele><time>2026-04-29T11:16:05.799Z</time></trkpt><trkpt lat="44.4655002" lon="9.6211146"><ele>792.6</ele><time>2026-04-29T11:16:06.799Z</time></trkpt><trkpt lat="44.465472" lon="9.6212283"><ele>791.2</ele><time>2026-04-29T11:16:07.799Z</time></trkpt><trkpt lat="44.4654122" lon="9.6213325"><ele>789.8000000000001</ele><time>2026-04-29T11:16:08.799Z</time></trkpt><trkpt lat="44.4653228" lon="9.6214041"><ele>788.4000000000001</ele><time>2026-04-29T11:16:09.799Z</time></trkpt><trkpt lat="44.4651975" lon="9.6214542"><ele>787.0</ele><time>2026-04-29T11:16:10.799Z</time></trkpt><trkpt lat="44.4650409" lon="9.6215033"><ele>787.0</ele><time>2026-04-29T11:16:11.799Z</time></trkpt><trkpt lat="44.4648573" lon="9.6215562"><ele>787.0</ele><time>2026-04-29T11:16:12.8Z</time></trkpt><trkpt lat="44.464657" lon="9.6216142"><ele>787.0</ele><time>2026-04-29T11:16:13.799Z</time></trkpt><trkpt lat="44.4644658" lon="9.6216736"><ele>790.0</ele><time>2026-04-29T11:16:14.799Z</time></trkpt><trkpt lat="44.4642751" lon="9.6217339"><ele>793.0</ele><time>2026-04-29T11:16:15.799Z</time></trkpt><trkpt lat="44.4640949" lon="9.6217982"><ele>796.0</ele><time>2026-04-29T11:16:16.798Z</time></trkpt><trkpt lat="44.4639339" lon="9.6218763"><ele>796.0</ele><time>2026-04-29T11:16:17.799Z</time></trkpt><trkpt lat="44.4637922" lon="9.6219718"><ele>796.0</ele><time>2026-04-29T11:16:18.798Z</time></trkpt><trkpt lat="44.4636631" lon="9.6220559"><ele>796.0</ele><time>2026-04-29T11:16:19.799Z</time></trkpt><trkpt lat="44.4635338" lon="9.6220877"><ele>796.0</ele><time>2026-04-29T11:16:20.799Z</time></trkpt><trkpt lat="44.4634003" lon="9.6220799"><ele>795.4</ele><time>2026-04-29T11:16:21.798Z</time></trkpt><trkpt lat="44.4632625" lon="9.622039"><ele>794.8</ele><time>2026-04-29T11:16:22.799Z</time></trkpt><trkpt lat="44.4631522" lon="9.6219797"><ele>794.1999999999999</ele><time>2026-04-29T11:16:23.799Z</time></trkpt><trkpt lat="44.4630798" lon="9.6219007"><ele>793.5999999999999</ele><time>2026-04-29T11:16:24.799Z</time></trkpt><trkpt lat="44.4630309" lon="9.6217896"><ele>793.0</ele><time>2026-04-29T11:16:25.799Z</time></trkpt><trkpt lat="44.4630002" lon="9.6216344"><ele>796.0</ele><time>2026-04-29T11:16:26.8Z</time></trkpt><trkpt lat="44.4629726" lon="9.621485"><ele>799.0</ele><time>2026-04-29T11:16:27.799Z</time></trkpt><trkpt lat="44.4629135" lon="9.6213645"><ele>802.0</ele><time>2026-04-29T11:16:28.8Z</time></trkpt><trkpt lat="44.4628217" lon="9.6212923"><ele>805.0</ele><time>2026-04-29T11:16:29.799Z</time></trkpt><trkpt lat="44.4627316" lon="9.621291"><ele>808.0</ele><time>2026-04-29T11:16:30.8Z</time></trkpt><trkpt lat="44.4626524" lon="9.6213477"><ele>808.5</ele><time>2026-04-29T11:16:31.799Z</time></trkpt><trkpt lat="44.4625923" lon="9.6214538"><ele>809.0</ele><time>2026-04-29T11:16:32.8Z</time></trkpt><trkpt lat="44.4625526" lon="9.6216091"><ele>809.5</ele><time>2026-04-29T11:16:33.799Z</time></trkpt><trkpt lat="44.4625315" lon="9.6217882"><ele>810.0</ele><time>2026-04-29T11:16:34.799Z</time></trkpt><trkpt lat="44.4624956" lon="9.6219387"><ele>808.5</ele><time>2026-04-29T11:16:35.799Z</time></trkpt><trkpt lat="44.4624345" lon="9.6220584"><ele>807.0</ele><time>2026-04-29T11:16:36.798Z</time></trkpt><trkpt lat="44.4623426" lon="9.6221453"><ele>805.5</ele><time>2026-04-29T11:16:37.798Z</time></trkpt><trkpt lat="44.462231" lon="9.6222097"><ele>804.0</ele><time>2026-04-29T11:16:38.799Z</time></trkpt><trkpt lat="44.4620971" lon="9.622254"><ele>808.0</ele><time>2026-04-29T11:16:39.799Z</time></trkpt><trkpt lat="44.4619534" lon="9.6223183"><ele>812.0</ele><time>2026-04-29T11:16:40.8Z</time></trkpt><trkpt lat="44.4618077" lon="9.6223544"><ele>816.0</ele><time>2026-04-29T11:16:41.799Z</time></trkpt><trkpt lat="44.4616528" lon="9.6223559"><ele>816.0</ele><time>2026-04-29T11:16:42.798Z</time></trkpt><trkpt lat="44.4614864" lon="9.6223328"><ele>816.0</ele><time>2026-04-29T11:16:43.798Z</time></trkpt><trkpt lat="44.4613106" lon="9.6223002"><ele>816.0</ele><time>2026-04-29T11:16:44.798Z</time></trkpt><trkpt lat="44.4611451" lon="9.6222626"><ele>817.25</ele><time>2026-04-29T11:16:45.799Z</time></trkpt><trkpt lat="44.4609943" lon="9.6222257"><ele>818.5</ele><time>2026-04-29T11:16:46.8Z</time></trkpt><trkpt lat="44.4608442" lon="9.6221933"><ele>819.75</ele><time>2026-04-29T11:16:47.8Z</time></trkpt><trkpt lat="44.4607078" lon="9.6221737"><ele>821.0</ele><time>2026-04-29T11:16:48.8Z</time></trkpt><trkpt lat="44.4605714" lon="9.6221664"><ele>821.0</ele><time>2026-04-29T11:16:49.799Z</time></trkpt><trkpt lat="44.4604453" lon="9.6221614"><ele>821.0</ele><time>2026-04-29T11:16:50.799Z</time></trkpt><trkpt lat="44.4603298" lon="9.622181"><ele>821.0</ele><time>2026-04-29T11:16:51.798Z</time></trkpt><trkpt lat="44.4602169" lon="9.6222426"><ele>821.0</ele><time>2026-04-29T11:16:52.799Z</time></trkpt><trkpt lat="44.4601171" lon="9.6223436"><ele>821.0</ele><time>2026-04-29T11:16:53.799Z</time></trkpt><trkpt lat="44.4600248" lon="9.6224737"><ele>821.0</ele><time>2026-04-29T11:16:54.8Z</time></trkpt><trkpt lat="44.4599325" lon="9.6225927"><ele>821.0</ele><time>2026-04-29T11:16:55.798Z</time></trkpt><trkpt lat="44.4598204" lon="9.622662"><ele>821.0</ele><time>2026-04-29T11:16:56.799Z</time></trkpt><trkpt lat="44.4597164" lon="9.6226866"><ele>821.0</ele><time>2026-04-29T11:16:57.799Z</time></trkpt><trkpt lat="44.4596185" lon="9.6226659"><ele>821.0</ele><time>2026-04-29T11:16:58.799Z</time></trkpt><trkpt lat="44.4595343" lon="9.6225783"><ele>821.0</ele><time>2026-04-29T11:16:59.799Z</time></trkpt><trkpt lat="44.4594632" lon="9.6224562"><ele>821.0</ele><time>2026-04-29T11:17:00.799Z</time></trkpt><trkpt lat="44.4593922" lon="9.6223112"><ele>821.0</ele><time>2026-04-29T11:17:01.8Z</time></trkpt><trkpt lat="44.4593103" lon="9.6222037"><ele>819.25</ele><time>2026-04-29T11:17:02.798Z</time></trkpt><trkpt lat="44.459201" lon="9.6221323"><ele>817.5</ele><time>2026-04-29T11:17:03.799Z</time></trkpt><trkpt lat="44.4590765" lon="9.6221168"><ele>815.75</ele><time>2026-04-29T11:17:04.799Z</time></trkpt><trkpt lat="44.4589414" lon="9.6221475"><ele>814.0</ele><time>2026-04-29T11:17:05.799Z</time></trkpt><trkpt lat="44.458779" lon="9.6222024"><ele>813.3333333333333</ele><time>2026-04-29T11:17:06.8Z</time></trkpt><trkpt lat="44.4586252" lon="9.6222635"><ele>812.6666666666667</ele><time>2026-04-29T11:17:07.799Z</time></trkpt><trkpt lat="44.4584767" lon="9.6223387"><ele>812.0</ele><time>2026-04-29T11:17:08.799Z</time></trkpt><trkpt lat="44.4583273" lon="9.6224359"><ele>812.0</ele><time>2026-04-29T11:17:09.798Z</time></trkpt><trkpt lat="44.4581889" lon="9.622542"><ele>812.0</ele><time>2026-04-29T11:17:10.799Z</time></trkpt><trkpt lat="44.458054" lon="9.6226512"><ele>812.0</ele><time>2026-04-29T11:17:11.8Z</time></trkpt><trkpt lat="44.4579189" lon="9.6227687"><ele>810.3333333333334</ele><time>2026-04-29T11:17:12.799Z</time></trkpt><trkpt lat="44.4577794" lon="9.6228818"><ele>808.6666666666667</ele><time>2026-04-29T11:17:13.799Z</time></trkpt><trkpt lat="44.4576425" lon="9.6229746"><ele>807.0</ele><time>2026-04-29T11:17:14.798Z</time></trkpt><trkpt lat="44.4575073" lon="9.62304"><ele>807.0</ele><time>2026-04-29T11:17:15.799Z</time></trkpt><trkpt lat="44.4573807" lon="9.6230994"><ele>807.0</ele><time>2026-04-29T11:17:16.799Z</time></trkpt><trkpt lat="44.4572666" lon="9.6231972"><ele>807.0</ele><time>2026-04-29T11:17:17.798Z</time></trkpt><trkpt lat="44.457179" lon="9.6233261"><ele>807.0</ele><time>2026-04-29T11:17:18.8Z</time></trkpt><trkpt lat="44.4571126" lon="9.6234868"><ele>808.5</ele><time>2026-04-29T11:17:19.799Z</time></trkpt><trkpt lat="44.4570603" lon="9.623661"><ele>810.0</ele><time>2026-04-29T11:17:20.8Z</time></trkpt><trkpt lat="44.4570099" lon="9.6238369"><ele>811.5</ele><time>2026-04-29T11:17:21.799Z</time></trkpt><trkpt lat="44.4569507" lon="9.6239925"><ele>813.0</ele><time>2026-04-29T11:17:22.799Z</time></trkpt><trkpt lat="44.4568686" lon="9.6241316"><ele>813.0</ele><time>2026-04-29T11:17:23.8Z</time></trkpt><trkpt lat="44.456767" lon="9.6242518"><ele>813.0</ele><time>2026-04-29T11:17:24.8Z</time></trkpt><trkpt lat="44.4566572" lon="9.6243742"><ele>813.0</ele><time>2026-04-29T11:17:25.799Z</time></trkpt><trkpt lat="44.4565586" lon="9.624524"><ele>813.0</ele><time>2026-04-29T11:17:26.8Z</time></trkpt><trkpt lat="44.4564759" lon="9.6246794"><ele>810.5999999999999</ele><time>2026-04-29T11:17:27.799Z</time></trkpt><trkpt lat="44.4564011" lon="9.6248066"><ele>808.1999999999999</ele><time>2026-04-29T11:17:28.799Z</time></trkpt><trkpt lat="44.4563201" lon="9.6248847"><ele>805.8</ele><time>2026-04-29T11:17:29.799Z</time></trkpt><trkpt lat="44.4562382" lon="9.6249099"><ele>803.4</ele><time>2026-04-29T11:17:30.8Z</time></trkpt><trkpt lat="44.4561555" lon="9.6248903"><ele>801.0</ele><time>2026-04-29T11:17:31.8Z</time></trkpt><trkpt lat="44.4560744" lon="9.6248178"><ele>802.25</ele><time>2026-04-29T11:17:32.8Z</time></trkpt><trkpt lat="44.4559854" lon="9.6247054"><ele>803.5</ele><time>2026-04-29T11:17:33.8Z</time></trkpt><trkpt lat="44.45589" lon="9.6245599"><ele>804.75</ele><time>2026-04-29T11:17:34.799Z</time></trkpt><trkpt lat="44.4558039" lon="9.6243823"><ele>806.0</ele><time>2026-04-29T11:17:35.799Z</time></trkpt><trkpt lat="44.4557229" lon="9.6241819"><ele>806.0</ele><time>2026-04-29T11:17:36.799Z</time></trkpt><trkpt lat="44.4556308" lon="9.6239784"><ele>806.0</ele><time>2026-04-29T11:17:37.799Z</time></trkpt><trkpt lat="44.4555027" lon="9.623793"><ele>806.0</ele><time>2026-04-29T11:17:38.799Z</time></trkpt><trkpt lat="44.4553731" lon="9.6236185"><ele>803.3333333333334</ele><time>2026-04-29T11:17:39.799Z</time></trkpt><trkpt lat="44.455251" lon="9.6234552"><ele>800.6666666666667</ele><time>2026-04-29T11:17:40.799Z</time></trkpt><trkpt lat="44.4551294" lon="9.6233158"><ele>798.0</ele><time>2026-04-29T11:17:41.799Z</time></trkpt><trkpt lat="44.4549971" lon="9.6232027"><ele>798.0</ele><time>2026-04-29T11:17:42.8Z</time></trkpt><trkpt lat="44.4548606" lon="9.6231176"><ele>798.0</ele><time>2026-04-29T11:17:43.799Z</time></trkpt><trkpt lat="44.4547229" lon="9.62308"><ele>798.0</ele><time>2026-04-29T11:17:44.799Z</time></trkpt><trkpt lat="44.4545914" lon="9.6230866"><ele>798.0</ele><time>2026-04-29T11:17:45.799Z</time></trkpt><trkpt lat="44.4544716" lon="9.6231433"><ele>796.0</ele><time>2026-04-29T11:17:46.799Z</time></trkpt><trkpt lat="44.454366" lon="9.6232529"><ele>794.0</ele><time>2026-04-29T11:17:47.8Z</time></trkpt><trkpt lat="44.454267" lon="9.6234076"><ele>792.0</ele><time>2026-04-29T11:17:48.798Z</time></trkpt><trkpt lat="44.4541605" lon="9.6235933"><ele>788.0</ele><time>2026-04-29T11:17:49.799Z</time></trkpt><trkpt lat="44.4540409" lon="9.6237818"><ele>784.0</ele><time>2026-04-29T11:17:50.8Z</time></trkpt><trkpt lat="44.4539187" lon="9.6239515"><ele>780.0</ele><time>2026-04-29T11:17:51.8Z</time></trkpt><trkpt lat="44.4537939" lon="9.624098"><ele>783.5</ele><time>2026-04-29T11:17:52.8Z</time></trkpt><trkpt lat="44.4536905" lon="9.6242076"><ele>787.0</ele><time>2026-04-29T11:17:53.799Z</time></trkpt><trkpt lat="44.4536145" lon="9.62432"><ele>790.5</ele><time>2026-04-29T11:17:54.798Z</time></trkpt><trkpt lat="44.4535539" lon="9.6244703"><ele>794.0</ele><time>2026-04-29T11:17:55.799Z</time></trkpt><trkpt lat="44.4535037" lon="9.6246424"><ele>794.0</ele><time>2026-04-29T11:17:56.799Z</time></trkpt><trkpt lat="44.4534486" lon="9.6248282"><ele>794.0</ele><time>2026-04-29T11:17:57.799Z</time></trkpt><trkpt lat="44.4533931" lon="9.6250273"><ele>794.0</ele><time>2026-04-29T11:17:58.8Z</time></trkpt><trkpt lat="44.4533443" lon="9.6252128"><ele>794.0</ele><time>2026-04-29T11:17:59.8Z</time></trkpt><trkpt lat="44.4532915" lon="9.625387"><ele>791.0</ele><time>2026-04-29T11:18:00.798Z</time></trkpt><trkpt lat="44.4532209" lon="9.6255351"><ele>788.0</ele><time>2026-04-29T11:18:01.798Z</time></trkpt><trkpt lat="44.4531349" lon="9.6256545"><ele>785.0</ele><time>2026-04-29T11:18:02.799Z</time></trkpt><trkpt lat="44.4530294" lon="9.6257245"><ele>782.0</ele><time>2026-04-29T11:18:03.799Z</time></trkpt><trkpt lat="44.452914" lon="9.6257403"><ele>781.5</ele><time>2026-04-29T11:18:04.8Z</time></trkpt><trkpt lat="44.452795" lon="9.625696"><ele>781.0</ele><time>2026-04-29T11:18:05.8Z</time></trkpt><trkpt lat="44.4526716" lon="9.6256037"><ele>780.5</ele><time>2026-04-29T11:18:06.799Z</time></trkpt><trkpt lat="44.4525372" lon="9.6254822"><ele>780.0</ele><time>2026-04-29T11:18:07.798Z</time></trkpt><trkpt lat="44.4523902" lon="9.6253493"><ele>780.0</ele><time>2026-04-29T11:18:08.8Z</time></trkpt><trkpt lat="44.4522318" lon="9.6252184"><ele>780.0</ele><time>2026-04-29T11:18:09.8Z</time></trkpt><trkpt lat="44.4520801" lon="9.625094"><ele>780.0</ele><time>2026-04-29T11:18:10.799Z</time></trkpt><trkpt lat="44.4519411" lon="9.6249651"><ele>780.0</ele><time>2026-04-29T11:18:11.8Z</time></trkpt><trkpt lat="44.4518164" lon="9.6248148"><ele>780.0</ele><time>2026-04-29T11:18:12.798Z</time></trkpt><trkpt lat="44.4517018" lon="9.6246521"><ele>780.0</ele><time>2026-04-29T11:18:13.798Z</time></trkpt><trkpt lat="44.4516053" lon="9.6244966"><ele>782.0</ele><time>2026-04-29T11:18:14.799Z</time></trkpt><trkpt lat="44.4515086" lon="9.6243563"><ele>784.0</ele><time>2026-04-29T11:18:15.799Z</time></trkpt><trkpt lat="44.4513858" lon="9.6242394"><ele>786.0</ele><time>2026-04-29T11:18:16.8Z</time></trkpt><trkpt lat="44.4512508" lon="9.6241526"><ele>788.0</ele><time>2026-04-29T11:18:17.8Z</time></trkpt><trkpt lat="44.4511051" lon="9.624084"><ele>788.0</ele><time>2026-04-29T11:18:18.8Z</time></trkpt><trkpt lat="44.4509676" lon="9.6240273"><ele>788.0</ele><time>2026-04-29T11:18:19.799Z</time></trkpt><trkpt lat="44.4508334" lon="9.6239763"><ele>788.0</ele><time>2026-04-29T11:18:20.799Z</time></trkpt><trkpt lat="44.4507111" lon="9.6239388"><ele>788.0</ele><time>2026-04-29T11:18:21.799Z</time></trkpt><trkpt lat="44.4506055" lon="9.6239143"><ele>788.0</ele><time>2026-04-29T11:18:22.799Z</time></trkpt><trkpt lat="44.4505102" lon="9.6239254"><ele>788.0</ele><time>2026-04-29T11:18:23.8Z</time></trkpt><trkpt lat="44.4504427" lon="9.6239857"><ele>788.0</ele><time>2026-04-29T11:18:24.8Z</time></trkpt><trkpt lat="44.4504012" lon="9.6240809"><ele>788.0</ele><time>2026-04-29T11:18:25.799Z</time></trkpt><trkpt lat="44.4503682" lon="9.6242055"><ele>788.0</ele><time>2026-04-29T11:18:26.798Z</time></trkpt><trkpt lat="44.4503278" lon="9.624353"><ele>788.25</ele><time>2026-04-29T11:18:27.8Z</time></trkpt><trkpt lat="44.4502719" lon="9.6245131"><ele>788.5</ele><time>2026-04-29T11:18:28.799Z</time></trkpt><trkpt lat="44.450202" lon="9.6246554"><ele>788.75</ele><time>2026-04-29T11:18:29.8Z</time></trkpt><trkpt lat="44.450107" lon="9.6247686"><ele>789.0</ele><time>2026-04-29T11:18:30.799Z</time></trkpt><trkpt lat="44.4499867" lon="9.6248589"><ele>789.0</ele><time>2026-04-29T11:18:31.799Z</time></trkpt><trkpt lat="44.4498442" lon="9.6249138"><ele>789.0</ele><time>2026-04-29T11:18:32.798Z</time></trkpt><trkpt lat="44.4496645" lon="9.6249507"><ele>789.0</ele><time>2026-04-29T11:18:33.8Z</time></trkpt><trkpt lat="44.4494804" lon="9.6249887"><ele>789.0</ele><time>2026-04-29T11:18:34.799Z</time></trkpt><trkpt lat="44.4493168" lon="9.6250177"><ele>789.0</ele><time>2026-04-29T11:18:35.8Z</time></trkpt><trkpt lat="44.4491582" lon="9.625034"><ele>789.0</ele><time>2026-04-29T11:18:36.799Z</time></trkpt><trkpt lat="44.4490108" lon="9.6250258"><ele>789.0</ele><time>2026-04-29T11:18:37.799Z</time></trkpt><trkpt lat="44.4488778" lon="9.6249882"><ele>789.0</ele><time>2026-04-29T11:18:38.799Z</time></trkpt><trkpt lat="44.4487492" lon="9.6249177"><ele>789.0</ele><time>2026-04-29T11:18:39.799Z</time></trkpt><trkpt lat="44.4486318" lon="9.6248208"><ele>789.0</ele><time>2026-04-29T11:18:40.798Z</time></trkpt><trkpt lat="44.4485278" lon="9.6247244"><ele>789.0</ele><time>2026-04-29T11:18:41.798Z</time></trkpt><trkpt lat="44.4484376" lon="9.6246158"><ele>789.0</ele><time>2026-04-29T11:18:42.798Z</time></trkpt><trkpt lat="44.4483784" lon="9.6244793"><ele>789.0</ele><time>2026-04-29T11:18:43.798Z</time></trkpt><trkpt lat="44.44834" lon="9.6243229"><ele>789.0</ele><time>2026-04-29T11:18:44.798Z</time></trkpt><trkpt lat="44.4483148" lon="9.6241528"><ele>789.0</ele><time>2026-04-29T11:18:45.798Z</time></trkpt><trkpt lat="44.4482813" lon="9.6239834"><ele>789.0</ele><time>2026-04-29T11:18:46.798Z</time></trkpt><trkpt lat="44.448211" lon="9.6238242"><ele>789.0</ele><time>2026-04-29T11:18:47.798Z</time></trkpt><trkpt lat="44.4481143" lon="9.6236628"><ele>789.0</ele><time>2026-04-29T11:18:48.798Z</time></trkpt><trkpt lat="44.4479925" lon="9.6234925"><ele>788.6666666666667</ele><time>2026-04-29T11:18:49.799Z</time></trkpt><trkpt lat="44.4478611" lon="9.6233185"><ele>788.3333333333334</ele><time>2026-04-29T11:18:50.798Z</time></trkpt><trkpt lat="44.4477437" lon="9.6231649"><ele>788.0</ele><time>2026-04-29T11:18:51.798Z</time></trkpt><trkpt lat="44.4476387" lon="9.6230318"><ele>788.0</ele><time>2026-04-29T11:18:52.798Z</time></trkpt><trkpt lat="44.4475375" lon="9.6229308"><ele>788.0</ele><time>2026-04-29T11:18:53.797Z</time></trkpt><trkpt lat="44.4474297" lon="9.6228739"><ele>788.0</ele><time>2026-04-29T11:18:54.799Z</time></trkpt><trkpt lat="44.447314" lon="9.6228684"><ele>788.0</ele><time>2026-04-29T11:18:55.799Z</time></trkpt><trkpt lat="44.4471969" lon="9.6229005"><ele>788.5</ele><time>2026-04-29T11:18:56.799Z</time></trkpt><trkpt lat="44.4470727" lon="9.6229413"><ele>789.0</ele><time>2026-04-29T11:18:57.798Z</time></trkpt><trkpt lat="44.4469453" lon="9.6229832"><ele>789.5</ele><time>2026-04-29T11:18:58.798Z</time></trkpt><trkpt lat="44.4468301" lon="9.6230275"><ele>790.0</ele><time>2026-04-29T11:18:59.798Z</time></trkpt><trkpt lat="44.4467197" lon="9.6230707"><ele>790.0</ele><time>2026-04-29T11:19:00.798Z</time></trkpt><trkpt lat="44.4466109" lon="9.6231173"><ele>790.0</ele><time>2026-04-29T11:19:01.798Z</time></trkpt><trkpt lat="44.4465132" lon="9.6231768"><ele>790.0</ele><time>2026-04-29T11:19:02.798Z</time></trkpt><trkpt lat="44.446418" lon="9.6232508"><ele>790.0</ele><time>2026-04-29T11:19:03.799Z</time></trkpt><trkpt lat="44.4463216" lon="9.6233235"><ele>790.0</ele><time>2026-04-29T11:19:04.798Z</time></trkpt><trkpt lat="44.446212" lon="9.6233486"><ele>790.5</ele><time>2026-04-29T11:19:05.799Z</time></trkpt><trkpt lat="44.4460954" lon="9.6233374"><ele>791.0</ele><time>2026-04-29T11:19:06.798Z</time></trkpt><trkpt lat="44.445968" lon="9.6232927"><ele>791.5</ele><time>2026-04-29T11:19:07.797Z</time></trkpt><trkpt lat="44.4458246" lon="9.6232284"><ele>792.0</ele><time>2026-04-29T11:19:08.798Z</time></trkpt><trkpt lat="44.4456606" lon="9.6231488"><ele>792.0</ele><time>2026-04-29T11:19:09.798Z</time></trkpt><trkpt lat="44.4455031" lon="9.6230719"><ele>792.0</ele><time>2026-04-29T11:19:10.799Z</time></trkpt><trkpt lat="44.4453594" lon="9.6230023"><ele>792.0</ele><time>2026-04-29T11:19:11.799Z</time></trkpt><trkpt lat="44.4452309" lon="9.6229354"><ele>792.0</ele><time>2026-04-29T11:19:12.798Z</time></trkpt><trkpt lat="44.4451198" lon="9.6228822"><ele>792.0</ele><time>2026-04-29T11:19:13.798Z</time></trkpt><trkpt lat="44.4450221" lon="9.622846"><ele>792.0</ele><time>2026-04-29T11:19:14.797Z</time></trkpt><trkpt lat="44.444935" lon="9.6228226"><ele>792.0</ele><time>2026-04-29T11:19:15.797Z</time></trkpt><trkpt lat="44.4448511" lon="9.6228118"><ele>792.0</ele><time>2026-04-29T11:19:16.798Z</time></trkpt><trkpt lat="44.4447677" lon="9.6228146"><ele>792.0</ele><time>2026-04-29T11:19:17.798Z</time></trkpt><trkpt lat="44.444697" lon="9.6228273"><ele>792.0</ele><time>2026-04-29T11:19:18.798Z</time></trkpt><trkpt lat="44.4445919" lon="9.6228522"><ele>792.0</ele><time>2026-04-29T11:19:20.799Z</time></trkpt><trkpt lat="44.4445114" lon="9.6228814"><ele>792.0</ele><time>2026-04-29T11:19:22.797Z</time></trkpt><trkpt lat="44.4444094" lon="9.6229281"><ele>792.0</ele><time>2026-04-29T11:19:24.798Z</time></trkpt><trkpt lat="44.4443494" lon="9.6229605"><ele>792.0</ele><time>2026-04-29T11:19:25.798Z</time></trkpt><trkpt lat="44.4442775" lon="9.622987"><ele>792.5</ele><time>2026-04-29T11:19:26.798Z</time></trkpt><trkpt lat="44.4441994" lon="9.6229885"><ele>793.0</ele><time>2026-04-29T11:19:27.798Z</time></trkpt><trkpt lat="44.4441167" lon="9.6229522"><ele>793.5</ele><time>2026-04-29T11:19:28.798Z</time></trkpt><trkpt lat="44.4440409" lon="9.62288"><ele>794.0</ele><time>2026-04-29T11:19:29.799Z</time></trkpt><trkpt lat="44.4439816" lon="9.6227757"><ele>794.5</ele><time>2026-04-29T11:19:30.799Z</time></trkpt><trkpt lat="44.4439287" lon="9.6226724"><ele>795.0</ele><time>2026-04-29T11:19:31.799Z</time></trkpt><trkpt lat="44.44388" lon="9.622603"><ele>796.8333333333334</ele><time>2026-04-29T11:19:32.798Z</time></trkpt><trkpt lat="44.4438258" lon="9.6225547"><ele>798.6666666666667</ele><time>2026-04-29T11:19:33.797Z</time></trkpt><trkpt lat="44.4437313" lon="9.6225225"><ele>800.5</ele><time>2026-04-29T11:19:35.799Z</time></trkpt><trkpt lat="44.443615" lon="9.6225503"><ele>802.3333333333334</ele><time>2026-04-29T11:19:37.798Z</time></trkpt><trkpt lat="44.4435449" lon="9.6225978"><ele>804.1666666666667</ele><time>2026-04-29T11:19:38.798Z</time></trkpt><trkpt lat="44.443469" lon="9.6226566"><ele>806.0</ele><time>2026-04-29T11:19:39.798Z</time></trkpt><trkpt lat="44.4433993" lon="9.6227043"><ele>806.1666666666667</ele><time>2026-04-29T11:19:40.798Z</time></trkpt><trkpt lat="44.4433274" lon="9.6227418"><ele>806.3333333333334</ele><time>2026-04-29T11:19:41.798Z</time></trkpt><trkpt lat="44.4432519" lon="9.6227694"><ele>806.5</ele><time>2026-04-29T11:19:42.799Z</time></trkpt><trkpt lat="44.4431828" lon="9.6227836"><ele>806.6666666666667</ele><time>2026-04-29T11:19:43.799Z</time></trkpt><trkpt lat="44.4431174" lon="9.6227874"><ele>806.8333333333334</ele><time>2026-04-29T11:19:44.798Z</time></trkpt><trkpt lat="44.4430513" lon="9.6227947"><ele>807.0</ele><time>2026-04-29T11:19:45.798Z</time></trkpt><trkpt lat="44.4429385" lon="9.6228276"><ele>807.0</ele><time>2026-04-29T11:19:47.798Z</time></trkpt><trkpt lat="44.4428478" lon="9.6228746"><ele>807.0</ele><time>2026-04-29T11:19:49.798Z</time></trkpt><trkpt lat="44.4427443" lon="9.6229536"><ele>807.0</ele><time>2026-04-29T11:19:51.798Z</time></trkpt><trkpt lat="44.4426891" lon="9.6230264"><ele>807.0</ele><time>2026-04-29T11:19:52.799Z</time></trkpt><trkpt lat="44.4426313" lon="9.6231417"><ele>807.0</ele><time>2026-04-29T11:19:53.799Z</time></trkpt><trkpt lat="44.4425849" lon="9.6232908"><ele>807.0</ele><time>2026-04-29T11:19:54.799Z</time></trkpt><trkpt lat="44.4425538" lon="9.6234606"><ele>807.0</ele><time>2026-04-29T11:19:55.798Z</time></trkpt><trkpt lat="44.4425452" lon="9.6236249"><ele>807.0</ele><time>2026-04-29T11:19:56.797Z</time></trkpt><trkpt lat="44.4425575" lon="9.6237808"><ele>807.0</ele><time>2026-04-29T11:19:57.798Z</time></trkpt><trkpt lat="44.4425929" lon="9.6239319"><ele>806.2</ele><time>2026-04-29T11:19:58.798Z</time></trkpt><trkpt lat="44.44265" lon="9.624062"><ele>805.4000000000001</ele><time>2026-04-29T11:19:59.798Z</time></trkpt><trkpt lat="44.4427108" lon="9.6241714"><ele>804.5999999999999</ele><time>2026-04-29T11:20:00.798Z</time></trkpt><trkpt lat="44.4427375" lon="9.6242846"><ele>803.8</ele><time>2026-04-29T11:20:01.798Z</time></trkpt><trkpt lat="44.4427396" lon="9.624411"><ele>803.0</ele><time>2026-04-29T11:20:02.799Z</time></trkpt><trkpt lat="44.442713" lon="9.6245436"><ele>801.0</ele><time>2026-04-29T11:20:03.799Z</time></trkpt><trkpt lat="44.442652" lon="9.6246532"><ele>799.0</ele><time>2026-04-29T11:20:04.798Z</time></trkpt><trkpt lat="44.4425538" lon="9.6247325"><ele>797.0</ele><time>2026-04-29T11:20:05.798Z</time></trkpt><trkpt lat="44.442428" lon="9.6248038"><ele>795.0</ele><time>2026-04-29T11:20:06.797Z</time></trkpt><trkpt lat="44.4422779" lon="9.6248769"><ele>800.0</ele><time>2026-04-29T11:20:07.799Z</time></trkpt><trkpt lat="44.4421111" lon="9.6249585"><ele>805.0</ele><time>2026-04-29T11:20:08.799Z</time></trkpt><trkpt lat="44.4419648" lon="9.6250325"><ele>810.0</ele><time>2026-04-29T11:20:09.798Z</time></trkpt><trkpt lat="44.4418342" lon="9.6251215"><ele>810.0</ele><time>2026-04-29T11:20:10.798Z</time></trkpt><trkpt lat="44.4417285" lon="9.6252533"><ele>810.0</ele><time>2026-04-29T11:20:11.798Z</time></trkpt><trkpt lat="44.441637" lon="9.6254237"><ele>810.0</ele><time>2026-04-29T11:20:12.797Z</time></trkpt><trkpt lat="44.4415434" lon="9.6256156"><ele>808.6666666666667</ele><time>2026-04-29T11:20:13.798Z</time></trkpt><trkpt lat="44.4414454" lon="9.6258272"><ele>807.3333333333334</ele><time>2026-04-29T11:20:14.799Z</time></trkpt><trkpt lat="44.4413354" lon="9.6260355"><ele>806.0</ele><time>2026-04-29T11:20:15.799Z</time></trkpt><trkpt lat="44.4412118" lon="9.6262423"><ele>806.0</ele><time>2026-04-29T11:20:16.798Z</time></trkpt><trkpt lat="44.4410847" lon="9.6264437"><ele>806.0</ele><time>2026-04-29T11:20:17.798Z</time></trkpt><trkpt lat="44.4409646" lon="9.6266225"><ele>806.0</ele><time>2026-04-29T11:20:18.798Z</time></trkpt><trkpt lat="44.4408333" lon="9.6267293"><ele>806.0</ele><time>2026-04-29T11:20:19.798Z</time></trkpt><trkpt lat="44.4406958" lon="9.6267822"><ele>806.0</ele><time>2026-04-29T11:20:20.798Z</time></trkpt><trkpt lat="44.4405528" lon="9.6267842"><ele>806.0</ele><time>2026-04-29T11:20:21.798Z</time></trkpt><trkpt lat="44.4404032" lon="9.6267675"><ele>806.0</ele><time>2026-04-29T11:20:22.799Z</time></trkpt><trkpt lat="44.4402472" lon="9.6267946"><ele>807.75</ele><time>2026-04-29T11:20:23.798Z</time></trkpt><trkpt lat="44.4400832" lon="9.6268478"><ele>809.5</ele><time>2026-04-29T11:20:24.798Z</time></trkpt><trkpt lat="44.439937" lon="9.6268928"><ele>811.25</ele><time>2026-04-29T11:20:25.797Z</time></trkpt><trkpt lat="44.439823" lon="9.6269566"><ele>813.0</ele><time>2026-04-29T11:20:26.799Z</time></trkpt><trkpt lat="44.4397417" lon="9.6270583"><ele>813.0</ele><time>2026-04-29T11:20:27.798Z</time></trkpt><trkpt lat="44.4397031" lon="9.6271952"><ele>813.0</ele><time>2026-04-29T11:20:28.798Z</time></trkpt><trkpt lat="44.4396951" lon="9.6273651"><ele>813.0</ele><time>2026-04-29T11:20:29.799Z</time></trkpt><trkpt lat="44.4396996" lon="9.6275752"><ele>813.0</ele><time>2026-04-29T11:20:30.798Z</time></trkpt><trkpt lat="44.439696" lon="9.6278258"><ele>812.6666666666667</ele><time>2026-04-29T11:20:31.798Z</time></trkpt><trkpt lat="44.4396822" lon="9.6281099"><ele>812.3333333333334</ele><time>2026-04-29T11:20:32.798Z</time></trkpt><trkpt lat="44.4396612" lon="9.6283837"><ele>812.0</ele><time>2026-04-29T11:20:33.798Z</time></trkpt><trkpt lat="44.4396154" lon="9.6286417"><ele>819.3333333333334</ele><time>2026-04-29T11:20:34.798Z</time></trkpt><trkpt lat="44.4395594" lon="9.6289123"><ele>826.6666666666667</ele><time>2026-04-29T11:20:35.799Z</time></trkpt><trkpt lat="44.4395147" lon="9.6291783"><ele>834.0</ele><time>2026-04-29T11:20:36.799Z</time></trkpt><trkpt lat="44.4394776" lon="9.629417"><ele>833.3333333333333</ele><time>2026-04-29T11:20:37.799Z</time></trkpt><trkpt lat="44.4394248" lon="9.6296226"><ele>832.6666666666666</ele><time>2026-04-29T11:20:38.797Z</time></trkpt><trkpt lat="44.4393492" lon="9.6298125"><ele>832.0</ele><time>2026-04-29T11:20:39.797Z</time></trkpt><trkpt lat="44.4392772" lon="9.6299969"><ele>832.0</ele><time>2026-04-29T11:20:40.798Z</time></trkpt><trkpt lat="44.4392299" lon="9.6301998"><ele>832.0</ele><time>2026-04-29T11:20:41.798Z</time></trkpt><trkpt lat="44.4392104" lon="9.6304236"><ele>832.0</ele><time>2026-04-29T11:20:42.798Z</time></trkpt><trkpt lat="44.4392104" lon="9.6306536"><ele>831.75</ele><time>2026-04-29T11:20:43.799Z</time></trkpt><trkpt lat="44.4392006" lon="9.6308594"><ele>831.5</ele><time>2026-04-29T11:20:44.798Z</time></trkpt><trkpt lat="44.439164" lon="9.6310429"><ele>831.25</ele><time>2026-04-29T11:20:45.797Z</time></trkpt><trkpt lat="44.4391035" lon="9.6311946"><ele>831.0</ele><time>2026-04-29T11:20:46.798Z</time></trkpt><trkpt lat="44.4390128" lon="9.6313056"><ele>828.6666666666667</ele><time>2026-04-29T11:20:47.798Z</time></trkpt><trkpt lat="44.4388999" lon="9.6314063"><ele>826.3333333333334</ele><time>2026-04-29T11:20:48.799Z</time></trkpt><trkpt lat="44.4387651" lon="9.6315128"><ele>824.0</ele><time>2026-04-29T11:20:49.797Z</time></trkpt><trkpt lat="44.4386211" lon="9.6316299"><ele>828.3333333333334</ele><time>2026-04-29T11:20:50.798Z</time></trkpt><trkpt lat="44.4385002" lon="9.631751"><ele>832.6666666666667</ele><time>2026-04-29T11:20:51.798Z</time></trkpt><trkpt lat="44.4383987" lon="9.6319092"><ele>837.0</ele><time>2026-04-29T11:20:52.799Z</time></trkpt><trkpt lat="44.4383271" lon="9.6320929"><ele>837.0</ele><time>2026-04-29T11:20:53.799Z</time></trkpt><trkpt lat="44.4382483" lon="9.6322851"><ele>837.0</ele><time>2026-04-29T11:20:54.799Z</time></trkpt><trkpt lat="44.438165" lon="9.6324767"><ele>837.0</ele><time>2026-04-29T11:20:55.798Z</time></trkpt><trkpt lat="44.4381061" lon="9.6326549"><ele>837.5</ele><time>2026-04-29T11:20:56.798Z</time></trkpt><trkpt lat="44.4380786" lon="9.632833"><ele>838.0</ele><time>2026-04-29T11:20:57.798Z</time></trkpt><trkpt lat="44.4380842" lon="9.6330239"><ele>838.5</ele><time>2026-04-29T11:20:58.799Z</time></trkpt><trkpt lat="44.4381209" lon="9.6332097"><ele>839.0</ele><time>2026-04-29T11:20:59.799Z</time></trkpt><trkpt lat="44.4381573" lon="9.6333975"><ele>839.0</ele><time>2026-04-29T11:21:00.797Z</time></trkpt><trkpt lat="44.4381749" lon="9.6335736"><ele>839.0</ele><time>2026-04-29T11:21:01.798Z</time></trkpt><trkpt lat="44.4381825" lon="9.6337573"><ele>839.0</ele><time>2026-04-29T11:21:02.799Z</time></trkpt><trkpt lat="44.4381859" lon="9.6339415"><ele>839.0</ele><time>2026-04-29T11:21:03.799Z</time></trkpt><trkpt lat="44.4381915" lon="9.634125"><ele>840.4000000000001</ele><time>2026-04-29T11:21:04.798Z</time></trkpt><trkpt lat="44.4381907" lon="9.6342852"><ele>841.8</ele><time>2026-04-29T11:21:05.798Z</time></trkpt><trkpt lat="44.4381877" lon="9.6344317"><ele>843.2</ele><time>2026-04-29T11:21:06.798Z</time></trkpt><trkpt lat="44.4381877" lon="9.6345382"><ele>844.5999999999999</ele><time>2026-04-29T11:21:07.798Z</time></trkpt><trkpt lat="44.4381857" lon="9.6346791"><ele>846.0</ele><time>2026-04-29T11:21:09.798Z</time></trkpt><trkpt lat="44.4381864" lon="9.6347743"><ele>846.5999999999999</ele><time>2026-04-29T11:21:11.799Z</time></trkpt><trkpt lat="44.4381783" lon="9.6349008"><ele>847.2</ele><time>2026-04-29T11:21:14.798Z</time></trkpt><trkpt lat="44.4381467" lon="9.6350075"><ele>847.8</ele><time>2026-04-29T11:21:16.798Z</time></trkpt><trkpt lat="44.438061" lon="9.635135"><ele>848.4000000000001</ele><time>2026-04-29T11:21:18.798Z</time></trkpt><trkpt lat="44.4379927" lon="9.6351816"><ele>849.0</ele><time>2026-04-29T11:21:19.799Z</time></trkpt><trkpt lat="44.4379128" lon="9.6351932"><ele>850.0</ele><time>2026-04-29T11:21:20.798Z</time></trkpt><trkpt lat="44.4378298" lon="9.6351614"><ele>851.0</ele><time>2026-04-29T11:21:21.797Z</time></trkpt><trkpt lat="44.4377457" lon="9.6350852"><ele>852.0000000000001</ele><time>2026-04-29T11:21:22.798Z</time></trkpt><trkpt lat="44.4376579" lon="9.6349994"><ele>853.0</ele><time>2026-04-29T11:21:23.798Z</time></trkpt><trkpt lat="44.4375594" lon="9.6349001"><ele>854.0</ele><time>2026-04-29T11:21:24.798Z</time></trkpt><trkpt lat="44.437459" lon="9.6347992"><ele>854.0</ele><time>2026-04-29T11:21:25.797Z</time></trkpt><trkpt lat="44.4373622" lon="9.634714"><ele>854.0000000000001</ele><time>2026-04-29T11:21:26.797Z</time></trkpt><trkpt lat="44.4372647" lon="9.6346907"><ele>854.0000000000001</ele><time>2026-04-29T11:21:27.798Z</time></trkpt><trkpt lat="44.4371676" lon="9.6347147"><ele>854.0</ele><time>2026-04-29T11:21:28.798Z</time></trkpt><trkpt lat="44.4370739" lon="9.6347545"><ele>854.0</ele><time>2026-04-29T11:21:29.797Z</time></trkpt><trkpt lat="44.4369713" lon="9.6347664"><ele>855.4000000000001</ele><time>2026-04-29T11:21:30.798Z</time></trkpt><trkpt lat="44.4368708" lon="9.63476"><ele>856.8000000000001</ele><time>2026-04-29T11:21:31.798Z</time></trkpt><trkpt lat="44.436774" lon="9.6347938"><ele>858.1999999999999</ele><time>2026-04-29T11:21:32.799Z</time></trkpt><trkpt lat="44.4366844" lon="9.6348537"><ele>859.5999999999999</ele><time>2026-04-29T11:21:33.798Z</time></trkpt><trkpt lat="44.4365966" lon="9.6349156"><ele>861.0</ele><time>2026-04-29T11:21:34.797Z</time></trkpt><trkpt lat="44.4365074" lon="9.6349762"><ele>861.0</ele><time>2026-04-29T11:21:35.798Z</time></trkpt><trkpt lat="44.4364093" lon="9.6350191"><ele>860.9999999999999</ele><time>2026-04-29T11:21:36.798Z</time></trkpt><trkpt lat="44.4363106" lon="9.6350414"><ele>860.9999999999999</ele><time>2026-04-29T11:21:37.799Z</time></trkpt><trkpt lat="44.4362249" lon="9.6350285"><ele>861.0</ele><time>2026-04-29T11:21:38.797Z</time></trkpt><trkpt lat="44.4361653" lon="9.6349695"><ele>861.0</ele><time>2026-04-29T11:21:39.798Z</time></trkpt><trkpt lat="44.436164" lon="9.6347991"><ele>859.25</ele><time>2026-04-29T11:21:41.799Z</time></trkpt><trkpt lat="44.4362156" lon="9.6347054"><ele>857.5</ele><time>2026-04-29T11:21:42.799Z</time></trkpt><trkpt lat="44.436294" lon="9.6345932"><ele>855.75</ele><time>2026-04-29T11:21:43.798Z</time></trkpt><trkpt lat="44.4363756" lon="9.6344225"><ele>854.0</ele><time>2026-04-29T11:21:44.798Z</time></trkpt><trkpt lat="44.4364376" lon="9.634224"><ele>859.25</ele><time>2026-04-29T11:21:45.797Z</time></trkpt><trkpt lat="44.4364825" lon="9.6340363"><ele>864.5</ele><time>2026-04-29T11:21:46.798Z</time></trkpt><trkpt lat="44.4365437" lon="9.6338764"><ele>869.75</ele><time>2026-04-29T11:21:47.798Z</time></trkpt><trkpt lat="44.4366435" lon="9.6337258"><ele>875.0</ele><time>2026-04-29T11:21:48.798Z</time></trkpt><trkpt lat="44.4367638" lon="9.6335702"><ele>875.6666666666667</ele><time>2026-04-29T11:21:49.798Z</time></trkpt><trkpt lat="44.4368563" lon="9.6334087"><ele>876.3333333333333</ele><time>2026-04-29T11:21:50.797Z</time></trkpt><trkpt lat="44.4369188" lon="9.6332068"><ele>877.0</ele><time>2026-04-29T11:21:51.797Z</time></trkpt><trkpt lat="44.4369433" lon="9.6329818"><ele>879.0</ele><time>2026-04-29T11:21:52.798Z</time></trkpt><trkpt lat="44.4369317" lon="9.6327424"><ele>881.0</ele><time>2026-04-29T11:21:53.798Z</time></trkpt><trkpt lat="44.4368893" lon="9.6325003"><ele>883.0</ele><time>2026-04-29T11:21:54.798Z</time></trkpt><trkpt lat="44.4368238" lon="9.6322404"><ele>883.0</ele><time>2026-04-29T11:21:55.799Z</time></trkpt><trkpt lat="44.4367302" lon="9.6319864"><ele>883.0</ele><time>2026-04-29T11:21:56.798Z</time></trkpt><trkpt lat="44.4366076" lon="9.6317286"><ele>883.0</ele><time>2026-04-29T11:21:57.798Z</time></trkpt><trkpt lat="44.4364682" lon="9.631463"><ele>887.0</ele><time>2026-04-29T11:21:58.798Z</time></trkpt><trkpt lat="44.4363231" lon="9.6311833"><ele>891.0</ele><time>2026-04-29T11:21:59.798Z</time></trkpt><trkpt lat="44.4361911" lon="9.6309213"><ele>891.0</ele><time>2026-04-29T11:22:00.798Z</time></trkpt><trkpt lat="44.4360849" lon="9.6306646"><ele>891.0</ele><time>2026-04-29T11:22:01.799Z</time></trkpt><trkpt lat="44.4360102" lon="9.630418"><ele>891.0</ele><time>2026-04-29T11:22:02.799Z</time></trkpt><trkpt lat="44.4359297" lon="9.6301873"><ele>895.0</ele><time>2026-04-29T11:22:03.799Z</time></trkpt><trkpt lat="44.4358256" lon="9.6299626"><ele>899.0</ele><time>2026-04-29T11:22:04.797Z</time></trkpt><trkpt lat="44.4356948" lon="9.6297332"><ele>903.0</ele><time>2026-04-29T11:22:05.799Z</time></trkpt><trkpt lat="44.4355533" lon="9.629496"><ele>904.6666666666667</ele><time>2026-04-29T11:22:06.798Z</time></trkpt><trkpt lat="44.4353951" lon="9.629273"><ele>906.3333333333334</ele><time>2026-04-29T11:22:07.797Z</time></trkpt><trkpt lat="44.4352193" lon="9.6290821"><ele>908.0</ele><time>2026-04-29T11:22:08.798Z</time></trkpt><trkpt lat="44.435038" lon="9.6289065"><ele>908.0</ele><time>2026-04-29T11:22:09.798Z</time></trkpt><trkpt lat="44.4348941" lon="9.6287624"><ele>908.0</ele><time>2026-04-29T11:22:10.799Z</time></trkpt><trkpt lat="44.4347773" lon="9.6286052"><ele>908.0</ele><time>2026-04-29T11:22:11.798Z</time></trkpt><trkpt lat="44.4346908" lon="9.6284165"><ele>908.3333333333334</ele><time>2026-04-29T11:22:12.798Z</time></trkpt><trkpt lat="44.4346412" lon="9.6282008"><ele>908.6666666666667</ele><time>2026-04-29T11:22:13.799Z</time></trkpt><trkpt lat="44.4345973" lon="9.6279556"><ele>909.0</ele><time>2026-04-29T11:22:14.799Z</time></trkpt><trkpt lat="44.4345288" lon="9.6277042"><ele>913.6666666666667</ele><time>2026-04-29T11:22:15.797Z</time></trkpt><trkpt lat="44.4344312" lon="9.6274858"><ele>918.3333333333334</ele><time>2026-04-29T11:22:16.798Z</time></trkpt><trkpt lat="44.4342962" lon="9.6272998"><ele>923.0</ele><time>2026-04-29T11:22:17.798Z</time></trkpt><trkpt lat="44.4341315" lon="9.6271235"><ele>930.0</ele><time>2026-04-29T11:22:18.799Z</time></trkpt><trkpt lat="44.4339397" lon="9.6269488"><ele>937.0</ele><time>2026-04-29T11:22:19.798Z</time></trkpt><trkpt lat="44.4337315" lon="9.6267576"><ele>937.0</ele><time>2026-04-29T11:22:20.798Z</time></trkpt><trkpt lat="44.4335243" lon="9.6265681"><ele>937.0</ele><time>2026-04-29T11:22:21.798Z</time></trkpt><trkpt lat="44.4333441" lon="9.6264053"><ele>937.0</ele><time>2026-04-29T11:22:22.797Z</time></trkpt><trkpt lat="44.4331908" lon="9.6262547"><ele>937.0</ele><time>2026-04-29T11:22:23.799Z</time></trkpt><trkpt lat="44.4330577" lon="9.6260893"><ele>937.0</ele><time>2026-04-29T11:22:24.799Z</time></trkpt><trkpt lat="44.4329451" lon="9.6258913"><ele>937.6666666666666</ele><time>2026-04-29T11:22:25.798Z</time></trkpt><trkpt lat="44.4328354" lon="9.6256676"><ele>938.3333333333333</ele><time>2026-04-29T11:22:26.798Z</time></trkpt><trkpt lat="44.4327208" lon="9.6254184"><ele>939.0</ele><time>2026-04-29T11:22:27.798Z</time></trkpt><trkpt lat="44.4325949" lon="9.6251454"><ele>942.5</ele><time>2026-04-29T11:22:28.799Z</time></trkpt><trkpt lat="44.4324569" lon="9.6248445"><ele>946.0</ele><time>2026-04-29T11:22:29.798Z</time></trkpt><trkpt lat="44.4323333" lon="9.6245558"><ele>947.6666666666666</ele><time>2026-04-29T11:22:30.797Z</time></trkpt><trkpt lat="44.4322274" lon="9.624308"><ele>949.3333333333333</ele><time>2026-04-29T11:22:31.798Z</time></trkpt><trkpt lat="44.4321298" lon="9.6240949"><ele>951.0</ele><time>2026-04-29T11:22:32.799Z</time></trkpt><trkpt lat="44.4320193" lon="9.6239358"><ele>951.0</ele><time>2026-04-29T11:22:33.798Z</time></trkpt><trkpt lat="44.4318919" lon="9.6238428"><ele>951.0</ele><time>2026-04-29T11:22:34.798Z</time></trkpt><trkpt lat="44.4317377" lon="9.6238058"><ele>951.0</ele><time>2026-04-29T11:22:35.798Z</time></trkpt><trkpt lat="44.4315623" lon="9.6238082"><ele>951.0</ele><time>2026-04-29T11:22:36.798Z</time></trkpt><trkpt lat="44.4313678" lon="9.623818"><ele>951.0</ele><time>2026-04-29T11:22:37.799Z</time></trkpt><trkpt lat="44.4311523" lon="9.6238137"><ele>951.0</ele><time>2026-04-29T11:22:38.798Z</time></trkpt><trkpt lat="44.4309131" lon="9.6237931"><ele>952.3333333333333</ele><time>2026-04-29T11:22:39.799Z</time></trkpt><trkpt lat="44.4306871" lon="9.6237627"><ele>953.6666666666666</ele><time>2026-04-29T11:22:40.798Z</time></trkpt><trkpt lat="44.4304794" lon="9.6237184"><ele>955.0</ele><time>2026-04-29T11:22:41.798Z</time></trkpt><trkpt lat="44.4302727" lon="9.6236522"><ele>959.0</ele><time>2026-04-29T11:22:42.798Z</time></trkpt><trkpt lat="44.4300697" lon="9.6235702"><ele>963.0</ele><time>2026-04-29T11:22:43.798Z</time></trkpt><trkpt lat="44.4298721" lon="9.6234862"><ele>967.0</ele><time>2026-04-29T11:22:44.798Z</time></trkpt><trkpt lat="44.4296998" lon="9.6234111"><ele>968.0</ele><time>2026-04-29T11:22:45.798Z</time></trkpt><trkpt lat="44.4295663" lon="9.6233549"><ele>969.0</ele><time>2026-04-29T11:22:46.799Z</time></trkpt><trkpt lat="44.4294529" lon="9.6233005"><ele>970.0</ele><time>2026-04-29T11:22:47.799Z</time></trkpt><trkpt lat="44.429379" lon="9.6232234"><ele>971.0</ele><time>2026-04-29T11:22:48.798Z</time></trkpt><trkpt lat="44.4293446" lon="9.6231235"><ele>972.0</ele><time>2026-04-29T11:22:49.798Z</time></trkpt><trkpt lat="44.4293543" lon="9.6230188"><ele>972.0</ele><time>2026-04-29T11:22:50.798Z</time></trkpt><trkpt lat="44.4294063" lon="9.6229342"><ele>972.0</ele><time>2026-04-29T11:22:51.797Z</time></trkpt><trkpt lat="44.4294952" lon="9.6228739"><ele>972.0</ele><time>2026-04-29T11:22:52.797Z</time></trkpt><trkpt lat="44.4296178" lon="9.6228229"><ele>972.0</ele><time>2026-04-29T11:22:53.798Z</time></trkpt><trkpt lat="44.4297702" lon="9.6227618"><ele>976.0</ele><time>2026-04-29T11:22:54.797Z</time></trkpt><trkpt lat="44.4299522" lon="9.6226855"><ele>980.0</ele><time>2026-04-29T11:22:55.799Z</time></trkpt><trkpt lat="44.4301247" lon="9.6226311"><ele>984.0</ele><time>2026-04-29T11:22:56.797Z</time></trkpt><trkpt lat="44.4302929" lon="9.6226002"><ele>984.0</ele><time>2026-04-29T11:22:57.799Z</time></trkpt><trkpt lat="44.4304503" lon="9.6225844"><ele>984.0</ele><time>2026-04-29T11:22:58.799Z</time></trkpt><trkpt lat="44.4305856" lon="9.6225764"><ele>984.0</ele><time>2026-04-29T11:22:59.799Z</time></trkpt><trkpt lat="44.4307044" lon="9.6225685"><ele>984.0</ele><time>2026-04-29T11:23:00.798Z</time></trkpt><trkpt lat="44.4307952" lon="9.6225309"><ele>984.5</ele><time>2026-04-29T11:23:01.797Z</time></trkpt><trkpt lat="44.4308527" lon="9.6224489"><ele>985.0</ele><time>2026-04-29T11:23:02.798Z</time></trkpt><trkpt lat="44.4308666" lon="9.6223481"><ele>985.5</ele><time>2026-04-29T11:23:03.798Z</time></trkpt><trkpt lat="44.4308335" lon="9.6222584"><ele>986.0</ele><time>2026-04-29T11:23:04.798Z</time></trkpt><trkpt lat="44.430762" lon="9.6221888"><ele>986.5</ele><time>2026-04-29T11:23:05.798Z</time></trkpt><trkpt lat="44.4306536" lon="9.6221193"><ele>987.0</ele><time>2026-04-29T11:23:06.799Z</time></trkpt><trkpt lat="44.4305139" lon="9.622046"><ele>991.3333333333333</ele><time>2026-04-29T11:23:07.799Z</time></trkpt><trkpt lat="44.4303457" lon="9.6219651"><ele>995.6666666666666</ele><time>2026-04-29T11:23:08.798Z</time></trkpt><trkpt lat="44.4301633" lon="9.6218827"><ele>1000.0</ele><time>2026-04-29T11:23:09.797Z</time></trkpt><trkpt lat="44.4299672" lon="9.6218274"><ele>1000.0</ele><time>2026-04-29T11:23:10.797Z</time></trkpt><trkpt lat="44.4297568" lon="9.6217974"><ele>1000.0</ele><time>2026-04-29T11:23:11.798Z</time></trkpt><trkpt lat="44.4295587" lon="9.6217711"><ele>1000.0</ele><time>2026-04-29T11:23:12.798Z</time></trkpt><trkpt lat="44.4293876" lon="9.6217458"><ele>1000.75</ele><time>2026-04-29T11:23:13.798Z</time></trkpt><trkpt lat="44.4292371" lon="9.6217319"><ele>1001.5</ele><time>2026-04-29T11:23:14.798Z</time></trkpt><trkpt lat="44.4291075" lon="9.6217362"><ele>1002.25</ele><time>2026-04-29T11:23:15.798Z</time></trkpt><trkpt lat="44.4289899" lon="9.6217518"><ele>1003.0</ele><time>2026-04-29T11:23:16.798Z</time></trkpt><trkpt lat="44.4288716" lon="9.6217664"><ele>1003.2</ele><time>2026-04-29T11:23:17.799Z</time></trkpt><trkpt lat="44.4287597" lon="9.6217713"><ele>1003.4</ele><time>2026-04-29T11:23:18.798Z</time></trkpt><trkpt lat="44.4286579" lon="9.6217615"><ele>1003.6000000000001</ele><time>2026-04-29T11:23:19.798Z</time></trkpt><trkpt lat="44.4285729" lon="9.6217119"><ele>1003.8000000000001</ele><time>2026-04-29T11:23:20.798Z</time></trkpt><trkpt lat="44.4285158" lon="9.6216239"><ele>1004.0</ele><time>2026-04-29T11:23:21.798Z</time></trkpt><trkpt lat="44.4284828" lon="9.6214978"><ele>1004.0</ele><time>2026-04-29T11:23:22.798Z</time></trkpt><trkpt lat="44.4284614" lon="9.6213463"><ele>1004.0000000000001</ele><time>2026-04-29T11:23:23.799Z</time></trkpt><trkpt lat="44.4284224" lon="9.6211988"><ele>1004.0000000000001</ele><time>2026-04-29T11:23:24.799Z</time></trkpt><trkpt lat="44.42834" lon="9.6210931"><ele>1004.0</ele><time>2026-04-29T11:23:25.798Z</time></trkpt><trkpt lat="44.4282341" lon="9.6210448"><ele>1004.0</ele><time>2026-04-29T11:23:26.798Z</time></trkpt><trkpt lat="44.4281115" lon="9.6210605"><ele>1008.3333333333334</ele><time>2026-04-29T11:23:27.798Z</time></trkpt><trkpt lat="44.427976" lon="9.6211359"><ele>1012.6666666666667</ele><time>2026-04-29T11:23:28.799Z</time></trkpt><trkpt lat="44.4278378" lon="9.6212485"><ele>1017.0</ele><time>2026-04-29T11:23:29.797Z</time></trkpt><trkpt lat="44.4277294" lon="9.621383"><ele>1017.0</ele><time>2026-04-29T11:23:30.798Z</time></trkpt><trkpt lat="44.4276246" lon="9.6215388"><ele>1017.0</ele><time>2026-04-29T11:23:31.798Z</time></trkpt><trkpt lat="44.4275143" lon="9.6217141"><ele>1017.0</ele><time>2026-04-29T11:23:32.798Z</time></trkpt><trkpt lat="44.4273981" lon="9.6218731"><ele>1017.0</ele><time>2026-04-29T11:23:33.798Z</time></trkpt><trkpt lat="44.4272746" lon="9.6219976"><ele>1017.0</ele><time>2026-04-29T11:23:34.799Z</time></trkpt><trkpt lat="44.4271467" lon="9.6220767"><ele>1017.0</ele><time>2026-04-29T11:23:35.798Z</time></trkpt><trkpt lat="44.427019" lon="9.6221052"><ele>1017.0</ele><time>2026-04-29T11:23:36.798Z</time></trkpt><trkpt lat="44.4268865" lon="9.6220917"><ele>1017.0</ele><time>2026-04-29T11:23:37.799Z</time></trkpt><trkpt lat="44.4267771" lon="9.6220588"><ele>1017.0</ele><time>2026-04-29T11:23:38.798Z</time></trkpt><trkpt lat="44.4266923" lon="9.6220305"><ele>1017.0</ele><time>2026-04-29T11:23:39.798Z</time></trkpt><trkpt lat="44.426627" lon="9.6220036"><ele>1017.0</ele><time>2026-04-29T11:23:40.798Z</time></trkpt><trkpt lat="44.4265644" lon="9.6219883"><ele>1017.0</ele><time>2026-04-29T11:23:41.798Z</time></trkpt><trkpt lat="44.4264976" lon="9.6219953"><ele>1017.0</ele><time>2026-04-29T11:23:42.798Z</time></trkpt><trkpt lat="44.4264239" lon="9.6220255"><ele>1017.0</ele><time>2026-04-29T11:23:43.799Z</time></trkpt><trkpt lat="44.426344" lon="9.6220869"><ele>1017.0</ele><time>2026-04-29T11:23:44.799Z</time></trkpt><trkpt lat="44.4262569" lon="9.6221659"><ele>1017.0</ele><time>2026-04-29T11:23:45.798Z</time></trkpt><trkpt lat="44.4261577" lon="9.6222512"><ele>1017.0</ele><time>2026-04-29T11:23:46.798Z</time></trkpt><trkpt lat="44.4260392" lon="9.6223279"><ele>1017.0</ele><time>2026-04-29T11:23:47.798Z</time></trkpt><trkpt lat="44.4259012" lon="9.6224079"><ele>1024.0</ele><time>2026-04-29T11:23:48.798Z</time></trkpt><trkpt lat="44.4257494" lon="9.622499"><ele>1031.0</ele><time>2026-04-29T11:23:49.799Z</time></trkpt><trkpt lat="44.4255906" lon="9.6225816"><ele>1038.0</ele><time>2026-04-29T11:23:50.798Z</time></trkpt><trkpt lat="44.4254447" lon="9.6226288"><ele>1039.25</ele><time>2026-04-29T11:23:51.799Z</time></trkpt><trkpt lat="44.4253047" lon="9.6226567"><ele>1040.5</ele><time>2026-04-29T11:23:52.797Z</time></trkpt><trkpt lat="44.4251726" lon="9.6226622"><ele>1041.75</ele><time>2026-04-29T11:23:53.798Z</time></trkpt><trkpt lat="44.4250403" lon="9.6226434"><ele>1043.0</ele><time>2026-04-29T11:23:54.799Z</time></trkpt><trkpt lat="44.4249037" lon="9.622602"><ele>1043.0</ele><time>2026-04-29T11:23:55.797Z</time></trkpt><trkpt lat="44.4247651" lon="9.6225486"><ele>1043.0</ele><time>2026-04-29T11:23:56.798Z</time></trkpt><trkpt lat="44.4246216" lon="9.6224793"><ele>1043.0</ele><time>2026-04-29T11:23:57.798Z</time></trkpt><trkpt lat="44.4244963" lon="9.622411"><ele>1043.0</ele><time>2026-04-29T11:23:58.798Z</time></trkpt><trkpt lat="44.4243839" lon="9.622367"><ele>1042.4</ele><time>2026-04-29T11:23:59.798Z</time></trkpt><trkpt lat="44.4242835" lon="9.6223755"><ele>1041.8</ele><time>2026-04-29T11:24:00.799Z</time></trkpt><trkpt lat="44.4242005" lon="9.6224428"><ele>1041.2</ele><time>2026-04-29T11:24:01.797Z</time></trkpt><trkpt lat="44.4241391" lon="9.6225561"><ele>1040.6</ele><time>2026-04-29T11:24:02.798Z</time></trkpt><trkpt lat="44.4240955" lon="9.622715"><ele>1040.0</ele><time>2026-04-29T11:24:03.799Z</time></trkpt><trkpt lat="44.424058" lon="9.6229012"><ele>1040.0</ele><time>2026-04-29T11:24:04.799Z</time></trkpt><trkpt lat="44.4240113" lon="9.6230533"><ele>1040.0</ele><time>2026-04-29T11:24:05.798Z</time></trkpt><trkpt lat="44.4239391" lon="9.6231914"><ele>1040.0</ele><time>2026-04-29T11:24:06.798Z</time></trkpt><trkpt lat="44.423841" lon="9.623307"><ele>1040.0</ele><time>2026-04-29T11:24:07.797Z</time></trkpt><trkpt lat="44.4237258" lon="9.6234094"><ele>1044.75</ele><time>2026-04-29T11:24:08.799Z</time></trkpt><trkpt lat="44.4236022" lon="9.6234876"><ele>1049.5</ele><time>2026-04-29T11:24:09.798Z</time></trkpt><trkpt lat="44.4234761" lon="9.6235182"><ele>1054.25</ele><time>2026-04-29T11:24:10.798Z</time></trkpt><trkpt lat="44.4233374" lon="9.6235028"><ele>1059.0</ele><time>2026-04-29T11:24:11.798Z</time></trkpt><trkpt lat="44.4231842" lon="9.6234524"><ele>1059.0</ele><time>2026-04-29T11:24:12.797Z</time></trkpt><trkpt lat="44.4230209" lon="9.6233752"><ele>1059.0</ele><time>2026-04-29T11:24:13.799Z</time></trkpt><trkpt lat="44.4228633" lon="9.6232764"><ele>1059.0</ele><time>2026-04-29T11:24:14.798Z</time></trkpt><trkpt lat="44.4227366" lon="9.6231765"><ele>1059.0</ele><time>2026-04-29T11:24:15.798Z</time></trkpt><trkpt lat="44.4226219" lon="9.6231101"><ele>1059.0</ele><time>2026-04-29T11:24:16.799Z</time></trkpt><trkpt lat="44.4224984" lon="9.6230944"><ele>1059.0</ele><time>2026-04-29T11:24:17.799Z</time></trkpt><trkpt lat="44.4223685" lon="9.6231083"><ele>1059.0</ele><time>2026-04-29T11:24:18.799Z</time></trkpt><trkpt lat="44.4222334" lon="9.6231421"><ele>1059.0</ele><time>2026-04-29T11:24:19.799Z</time></trkpt><trkpt lat="44.4220931" lon="9.6231821"><ele>1059.0</ele><time>2026-04-29T11:24:20.799Z</time></trkpt><trkpt lat="44.421961" lon="9.6232216"><ele>1059.0</ele><time>2026-04-29T11:24:21.799Z</time></trkpt><trkpt lat="44.4218403" lon="9.6232612"><ele>1059.0</ele><time>2026-04-29T11:24:22.799Z</time></trkpt><trkpt lat="44.4217247" lon="9.623294"><ele>1059.0</ele><time>2026-04-29T11:24:23.799Z</time></trkpt><trkpt lat="44.4216169" lon="9.6233269"><ele>1059.0</ele><time>2026-04-29T11:24:24.798Z</time></trkpt><trkpt lat="44.4215137" lon="9.6233587"><ele>1059.0</ele><time>2026-04-29T11:24:25.798Z</time></trkpt><trkpt lat="44.4214115" lon="9.623389"><ele>1059.0</ele><time>2026-04-29T11:24:26.799Z</time></trkpt><trkpt lat="44.4213121" lon="9.6234186"><ele>1059.0</ele><time>2026-04-29T11:24:27.798Z</time></trkpt><trkpt lat="44.4212134" lon="9.6234452"><ele>1056.0</ele><time>2026-04-29T11:24:28.797Z</time></trkpt><trkpt lat="44.4211097" lon="9.6234745"><ele>1053.0</ele><time>2026-04-29T11:24:29.799Z</time></trkpt><trkpt lat="44.4209999" lon="9.6235093"><ele>1050.0</ele><time>2026-04-29T11:24:30.798Z</time></trkpt><trkpt lat="44.4208833" lon="9.6235495"><ele>1047.0</ele><time>2026-04-29T11:24:31.798Z</time></trkpt><trkpt lat="44.4207633" lon="9.6236052"><ele>1050.75</ele><time>2026-04-29T11:24:32.798Z</time></trkpt><trkpt lat="44.4206511" lon="9.6237008"><ele>1054.5</ele><time>2026-04-29T11:24:33.798Z</time></trkpt><trkpt lat="44.4205601" lon="9.6238285"><ele>1058.25</ele><time>2026-04-29T11:24:34.799Z</time></trkpt><trkpt lat="44.4204925" lon="9.6239833"><ele>1062.0</ele><time>2026-04-29T11:24:35.798Z</time></trkpt><trkpt lat="44.4204471" lon="9.6241454"><ele>1057.0</ele><time>2026-04-29T11:24:36.799Z</time></trkpt><trkpt lat="44.4204297" lon="9.6243242"><ele>1052.0</ele><time>2026-04-29T11:24:37.798Z</time></trkpt><trkpt lat="44.4204324" lon="9.6245185"><ele>1047.0</ele><time>2026-04-29T11:24:38.797Z</time></trkpt><trkpt lat="44.4204094" lon="9.6247206"><ele>1042.0</ele><time>2026-04-29T11:24:39.798Z</time></trkpt><trkpt lat="44.4203548" lon="9.6249221"><ele>1042.0</ele><time>2026-04-29T11:24:40.798Z</time></trkpt><trkpt lat="44.4202813" lon="9.6251087"><ele>1042.0</ele><time>2026-04-29T11:24:41.799Z</time></trkpt><trkpt lat="44.4202038" lon="9.6252648"><ele>1042.0</ele><time>2026-04-29T11:24:42.799Z</time></trkpt><trkpt lat="44.4201115" lon="9.6253845"><ele>1042.0</ele><time>2026-04-29T11:24:43.798Z</time></trkpt><trkpt lat="44.4200088" lon="9.6254538"><ele>1040.25</ele><time>2026-04-29T11:24:44.798Z</time></trkpt><trkpt lat="44.4198892" lon="9.6254607"><ele>1038.5</ele><time>2026-04-29T11:24:45.798Z</time></trkpt><trkpt lat="44.4197749" lon="9.6254656"><ele>1036.75</ele><time>2026-04-29T11:24:46.799Z</time></trkpt><trkpt lat="44.4196693" lon="9.6255193"><ele>1035.0</ele><time>2026-04-29T11:24:47.799Z</time></trkpt><trkpt lat="44.4196007" lon="9.6256496"><ele>1035.0</ele><time>2026-04-29T11:24:48.799Z</time></trkpt><trkpt lat="44.4195444" lon="9.6257994"><ele>1035.0</ele><time>2026-04-29T11:24:49.798Z</time></trkpt><trkpt lat="44.41948" lon="9.625962"><ele>1035.0</ele><time>2026-04-29T11:24:50.798Z</time></trkpt><trkpt lat="44.4193885" lon="9.6261212"><ele>1035.0</ele><time>2026-04-29T11:24:51.798Z</time></trkpt><trkpt lat="44.4192792" lon="9.6262484"><ele>1038.6666666666667</ele><time>2026-04-29T11:24:52.797Z</time></trkpt><trkpt lat="44.4191475" lon="9.62634"><ele>1042.3333333333335</ele><time>2026-04-29T11:24:53.799Z</time></trkpt><trkpt lat="44.4190049" lon="9.6264227"><ele>1046.0</ele><time>2026-04-29T11:24:54.799Z</time></trkpt><trkpt lat="44.4188496" lon="9.626491"><ele>1039.3333333333335</ele><time>2026-04-29T11:24:55.799Z</time></trkpt><trkpt lat="44.4187025" lon="9.6265522"><ele>1032.6666666666667</ele><time>2026-04-29T11:24:56.799Z</time></trkpt><trkpt lat="44.4185676" lon="9.6266352"><ele>1026.0</ele><time>2026-04-29T11:24:57.798Z</time></trkpt><trkpt lat="44.4184377" lon="9.6267528"><ele>1026.0</ele><time>2026-04-29T11:24:58.797Z</time></trkpt><trkpt lat="44.4183288" lon="9.6269063"><ele>1026.0</ele><time>2026-04-29T11:24:59.798Z</time></trkpt><trkpt lat="44.4182345" lon="9.6270638"><ele>1026.0</ele><time>2026-04-29T11:25:00.798Z</time></trkpt><trkpt lat="44.4181287" lon="9.6271975"><ele>1026.0</ele><time>2026-04-29T11:25:01.798Z</time></trkpt><trkpt lat="44.4179967" lon="9.6273052"><ele>1024.0</ele><time>2026-04-29T11:25:02.798Z</time></trkpt><trkpt lat="44.4178543" lon="9.6274048"><ele>1022.0</ele><time>2026-04-29T11:25:03.798Z</time></trkpt><trkpt lat="44.4177056" lon="9.6274981"><ele>1020.0</ele><time>2026-04-29T11:25:04.799Z</time></trkpt><trkpt lat="44.4175649" lon="9.6275687"><ele>1020.0</ele><time>2026-04-29T11:25:05.799Z</time></trkpt><trkpt lat="44.4174194" lon="9.6276061"><ele>1020.0</ele><time>2026-04-29T11:25:06.797Z</time></trkpt><trkpt lat="44.4172678" lon="9.6276111"><ele>1020.0</ele><time>2026-04-29T11:25:07.799Z</time></trkpt><trkpt lat="44.4171318" lon="9.6276234"><ele>1020.0</ele><time>2026-04-29T11:25:08.799Z</time></trkpt><trkpt lat="44.4170059" lon="9.6276672"><ele>1019.6</ele><time>2026-04-29T11:25:09.797Z</time></trkpt><trkpt lat="44.4169115" lon="9.6277459"><ele>1019.2</ele><time>2026-04-29T11:25:10.798Z</time></trkpt><trkpt lat="44.4168615" lon="9.6278664"><ele>1018.8</ele><time>2026-04-29T11:25:11.798Z</time></trkpt><trkpt lat="44.4168541" lon="9.6280036"><ele>1018.4</ele><time>2026-04-29T11:25:12.798Z</time></trkpt><trkpt lat="44.416883" lon="9.6281441"><ele>1018.0</ele><time>2026-04-29T11:25:13.798Z</time></trkpt><trkpt lat="44.4169088" lon="9.6282677"><ele>1018.0</ele><time>2026-04-29T11:25:14.798Z</time></trkpt><trkpt lat="44.4168993" lon="9.6283817"><ele>1018.0</ele><time>2026-04-29T11:25:15.798Z</time></trkpt><trkpt lat="44.4168515" lon="9.6284739"><ele>1018.0</ele><time>2026-04-29T11:25:16.798Z</time></trkpt><trkpt lat="44.4167702" lon="9.6285246"><ele>1018.0</ele><time>2026-04-29T11:25:17.798Z</time></trkpt><trkpt lat="44.4166642" lon="9.6285297"><ele>1018.0</ele><time>2026-04-29T11:25:18.798Z</time></trkpt><trkpt lat="44.4165349" lon="9.6285101"><ele>1018.0</ele><time>2026-04-29T11:25:19.798Z</time></trkpt><trkpt lat="44.4163909" lon="9.6285022"><ele>1018.0</ele><time>2026-04-29T11:25:20.797Z</time></trkpt><trkpt lat="44.4162573" lon="9.6285282"><ele>1018.0</ele><time>2026-04-29T11:25:21.799Z</time></trkpt><trkpt lat="44.4161313" lon="9.6286025"><ele>1018.0</ele><time>2026-04-29T11:25:22.798Z</time></trkpt><trkpt lat="44.4160217" lon="9.6287257"><ele>1015.5</ele><time>2026-04-29T11:25:23.799Z</time></trkpt><trkpt lat="44.4159332" lon="9.6288746"><ele>1013.0</ele><time>2026-04-29T11:25:24.798Z</time></trkpt><trkpt lat="44.4158692" lon="9.6290431"><ele>1010.5</ele><time>2026-04-29T11:25:25.797Z</time></trkpt><trkpt lat="44.4158149" lon="9.6292362"><ele>1008.0</ele><time>2026-04-29T11:25:26.798Z</time></trkpt><trkpt lat="44.4157678" lon="9.6294205"><ele>1006.5999999999999</ele><time>2026-04-29T11:25:27.798Z</time></trkpt><trkpt lat="44.4157235" lon="9.6295776"><ele>1005.1999999999999</ele><time>2026-04-29T11:25:28.798Z</time></trkpt><trkpt lat="44.4156757" lon="9.6297142"><ele>1003.8</ele><time>2026-04-29T11:25:29.798Z</time></trkpt><trkpt lat="44.4156238" lon="9.6298401"><ele>1002.4</ele><time>2026-04-29T11:25:30.799Z</time></trkpt><trkpt lat="44.4155556" lon="9.6299563"><ele>1001.0</ele><time>2026-04-29T11:25:31.799Z</time></trkpt><trkpt lat="44.4154733" lon="9.6300587"><ele>1001.0</ele><time>2026-04-29T11:25:32.799Z</time></trkpt><trkpt lat="44.41538" lon="9.6301482"><ele>1000.9999999999999</ele><time>2026-04-29T11:25:33.799Z</time></trkpt><trkpt lat="44.4152851" lon="9.6302338"><ele>1000.9999999999999</ele><time>2026-04-29T11:25:34.798Z</time></trkpt><trkpt lat="44.4151876" lon="9.6302967"><ele>1001.0</ele><time>2026-04-29T11:25:35.798Z</time></trkpt><trkpt lat="44.4150775" lon="9.6303121"><ele>1001.0</ele><time>2026-04-29T11:25:36.799Z</time></trkpt><trkpt lat="44.4149572" lon="9.6303026"><ele>1003.75</ele><time>2026-04-29T11:25:37.798Z</time></trkpt><trkpt lat="44.4148296" lon="9.6303224"><ele>1006.5</ele><time>2026-04-29T11:25:38.798Z</time></trkpt><trkpt lat="44.4146901" lon="9.6303787"><ele>1009.25</ele><time>2026-04-29T11:25:39.798Z</time></trkpt><trkpt lat="44.4145606" lon="9.6304249"><ele>1012.0</ele><time>2026-04-29T11:25:40.798Z</time></trkpt><trkpt lat="44.4144249" lon="9.6304322"><ele>1012.0</ele><time>2026-04-29T11:25:41.798Z</time></trkpt><trkpt lat="44.4142827" lon="9.6304063"><ele>1012.0</ele><time>2026-04-29T11:25:42.799Z</time></trkpt><trkpt lat="44.4141471" lon="9.6303775"><ele>1012.0</ele><time>2026-04-29T11:25:43.798Z</time></trkpt><trkpt lat="44.414019" lon="9.6303545"><ele>1012.0</ele><time>2026-04-29T11:25:44.797Z</time></trkpt><trkpt lat="44.4138898" lon="9.6303315"><ele>1007.25</ele><time>2026-04-29T11:25:45.798Z</time></trkpt><trkpt lat="44.4137595" lon="9.6302827"><ele>1002.5</ele><time>2026-04-29T11:25:46.798Z</time></trkpt><trkpt lat="44.4136388" lon="9.6302035"><ele>997.75</ele><time>2026-04-29T11:25:47.798Z</time></trkpt><trkpt lat="44.413529" lon="9.6301139"><ele>993.0</ele><time>2026-04-29T11:25:48.799Z</time></trkpt><trkpt lat="44.4134321" lon="9.6300379"><ele>993.0</ele><time>2026-04-29T11:25:49.799Z</time></trkpt><trkpt lat="44.413329" lon="9.6300056"><ele>993.0</ele><time>2026-04-29T11:25:50.799Z</time></trkpt><trkpt lat="44.4132172" lon="9.6300265"><ele>993.0</ele><time>2026-04-29T11:25:51.799Z</time></trkpt><trkpt lat="44.4131056" lon="9.6300925"><ele>993.0</ele><time>2026-04-29T11:25:52.799Z</time></trkpt><trkpt lat="44.412989" lon="9.6301663"><ele>991.5</ele><time>2026-04-29T11:25:53.799Z</time></trkpt><trkpt lat="44.4128565" lon="9.6302164"><ele>990.0</ele><time>2026-04-29T11:25:54.799Z</time></trkpt><trkpt lat="44.4127114" lon="9.6302145"><ele>988.5</ele><time>2026-04-29T11:25:55.798Z</time></trkpt><trkpt lat="44.4125596" lon="9.6301794"><ele>987.0</ele><time>2026-04-29T11:25:56.798Z</time></trkpt><trkpt lat="44.4124083" lon="9.6301347"><ele>987.0</ele><time>2026-04-29T11:25:57.798Z</time></trkpt><trkpt lat="44.4122743" lon="9.630088"><ele>987.0</ele><time>2026-04-29T11:25:58.797Z</time></trkpt><trkpt lat="44.412157" lon="9.6300348"><ele>987.0</ele><time>2026-04-29T11:25:59.798Z</time></trkpt><trkpt lat="44.4120666" lon="9.6299501"><ele>987.0</ele><time>2026-04-29T11:26:00.799Z</time></trkpt><trkpt lat="44.4120016" lon="9.629831"><ele>985.5</ele><time>2026-04-29T11:26:01.799Z</time></trkpt><trkpt lat="44.4119416" lon="9.6296998"><ele>984.0</ele><time>2026-04-29T11:26:02.797Z</time></trkpt><trkpt lat="44.4118602" lon="9.6295944"><ele>982.5</ele><time>2026-04-29T11:26:03.798Z</time></trkpt><trkpt lat="44.4117476" lon="9.6295057"><ele>981.0</ele><time>2026-04-29T11:26:04.798Z</time></trkpt><trkpt lat="44.4116124" lon="9.62942"><ele>981.0</ele><time>2026-04-29T11:26:05.799Z</time></trkpt><trkpt lat="44.4114646" lon="9.6293171"><ele>981.0</ele><time>2026-04-29T11:26:06.798Z</time></trkpt><trkpt lat="44.4113041" lon="9.6292036"><ele>981.0</ele><time>2026-04-29T11:26:07.798Z</time></trkpt><trkpt lat="44.4111489" lon="9.629101"><ele>982.6666666666667</ele><time>2026-04-29T11:26:08.797Z</time></trkpt><trkpt lat="44.4109912" lon="9.6290213"><ele>984.3333333333334</ele><time>2026-04-29T11:26:09.798Z</time></trkpt><trkpt lat="44.4108383" lon="9.6289666"><ele>986.0</ele><time>2026-04-29T11:26:10.797Z</time></trkpt><trkpt lat="44.4107015" lon="9.6289279"><ele>986.0</ele><time>2026-04-29T11:26:11.798Z</time></trkpt><trkpt lat="44.4105799" lon="9.6288894"><ele>985.9999999999999</ele><time>2026-04-29T11:26:12.798Z</time></trkpt><trkpt lat="44.4104772" lon="9.6288298"><ele>985.9999999999999</ele><time>2026-04-29T11:26:13.797Z</time></trkpt><trkpt lat="44.4104035" lon="9.6287413"><ele>986.0</ele><time>2026-04-29T11:26:14.798Z</time></trkpt><trkpt lat="44.4103708" lon="9.628627"><ele>986.0</ele><time>2026-04-29T11:26:15.798Z</time></trkpt><trkpt lat="44.4103666" lon="9.6284979"><ele>984.0</ele><time>2026-04-29T11:26:16.799Z</time></trkpt><trkpt lat="44.4103437" lon="9.628361"><ele>982.0</ele><time>2026-04-29T11:26:17.799Z</time></trkpt><trkpt lat="44.4102723" lon="9.6282305"><ele>980.0</ele><time>2026-04-29T11:26:18.798Z</time></trkpt><trkpt lat="44.4101879" lon="9.6280972"><ele>978.0</ele><time>2026-04-29T11:26:19.798Z</time></trkpt><trkpt lat="44.4101248" lon="9.627944"><ele>975.25</ele><time>2026-04-29T11:26:20.798Z</time></trkpt><trkpt lat="44.4100941" lon="9.6277723"><ele>972.5</ele><time>2026-04-29T11:26:21.799Z</time></trkpt><trkpt lat="44.4100648" lon="9.6275981"><ele>969.75</ele><time>2026-04-29T11:26:22.798Z</time></trkpt><trkpt lat="44.4100032" lon="9.6274134"><ele>967.0</ele><time>2026-04-29T11:26:23.798Z</time></trkpt><trkpt lat="44.4099317" lon="9.6272226"><ele>967.0</ele><time>2026-04-29T11:26:24.797Z</time></trkpt><trkpt lat="44.4098574" lon="9.6270548"><ele>967.0</ele><time>2026-04-29T11:26:25.797Z</time></trkpt><trkpt lat="44.4097595" lon="9.6268977"><ele>967.0</ele><time>2026-04-29T11:26:26.798Z</time></trkpt><trkpt lat="44.4096388" lon="9.6267526"><ele>967.0</ele><time>2026-04-29T11:26:27.798Z</time></trkpt><trkpt lat="44.409501" lon="9.6266228"><ele>964.6666666666666</ele><time>2026-04-29T11:26:28.798Z</time></trkpt><trkpt lat="44.4093551" lon="9.6265147"><ele>962.3333333333333</ele><time>2026-04-29T11:26:29.798Z</time></trkpt><trkpt lat="44.4092192" lon="9.6264398"><ele>960.0</ele><time>2026-04-29T11:26:30.798Z</time></trkpt><trkpt lat="44.4090825" lon="9.6264035"><ele>960.0</ele><time>2026-04-29T11:26:31.798Z</time></trkpt><trkpt lat="44.4089511" lon="9.6263991"><ele>960.0</ele><time>2026-04-29T11:26:32.798Z</time></trkpt><trkpt lat="44.4088295" lon="9.6264367"><ele>960.0</ele><time>2026-04-29T11:26:33.798Z</time></trkpt><trkpt lat="44.4087201" lon="9.6265113"><ele>960.0</ele><time>2026-04-29T11:26:34.798Z</time></trkpt><trkpt lat="44.4086192" lon="9.6266099"><ele>959.6</ele><time>2026-04-29T11:26:35.798Z</time></trkpt><trkpt lat="44.4085286" lon="9.6266995"><ele>959.2</ele><time>2026-04-29T11:26:36.797Z</time></trkpt><trkpt lat="44.4084426" lon="9.6267418"><ele>958.8</ele><time>2026-04-29T11:26:37.798Z</time></trkpt><trkpt lat="44.4083652" lon="9.6267258"><ele>958.4</ele><time>2026-04-29T11:26:38.798Z</time></trkpt><trkpt lat="44.4083046" lon="9.6266552"><ele>958.0</ele><time>2026-04-29T11:26:39.798Z</time></trkpt><trkpt lat="44.408259" lon="9.6265381"><ele>958.0</ele><time>2026-04-29T11:26:40.798Z</time></trkpt><trkpt lat="44.408205" lon="9.6263923"><ele>958.0</ele><time>2026-04-29T11:26:41.797Z</time></trkpt><trkpt lat="44.4081182" lon="9.6262393"><ele>958.0</ele><time>2026-04-29T11:26:42.799Z</time></trkpt><trkpt lat="44.4080304" lon="9.6260577"><ele>958.0</ele><time>2026-04-29T11:26:43.798Z</time></trkpt><trkpt lat="44.4079662" lon="9.625837"><ele>959.6666666666666</ele><time>2026-04-29T11:26:44.797Z</time></trkpt><trkpt lat="44.4079267" lon="9.6256183"><ele>961.3333333333333</ele><time>2026-04-29T11:26:45.798Z</time></trkpt><trkpt lat="44.4078861" lon="9.6254167"><ele>963.0</ele><time>2026-04-29T11:26:46.799Z</time></trkpt><trkpt lat="44.4078485" lon="9.6252248"><ele>963.0</ele><time>2026-04-29T11:26:47.799Z</time></trkpt><trkpt lat="44.4078355" lon="9.6250443"><ele>963.0</ele><time>2026-04-29T11:26:48.797Z</time></trkpt><trkpt lat="44.4078631" lon="9.6248699"><ele>963.0</ele><time>2026-04-29T11:26:49.799Z</time></trkpt><trkpt lat="44.4079162" lon="9.6246941"><ele>963.0</ele><time>2026-04-29T11:26:50.799Z</time></trkpt><trkpt lat="44.4079926" lon="9.6245221"><ele>956.5</ele><time>2026-04-29T11:26:51.797Z</time></trkpt><trkpt lat="44.4080575" lon="9.6243326"><ele>950.0</ele><time>2026-04-29T11:26:52.798Z</time></trkpt><trkpt lat="44.4080928" lon="9.6241376"><ele>943.5</ele><time>2026-04-29T11:26:53.798Z</time></trkpt><trkpt lat="44.4081033" lon="9.6239316"><ele>937.0</ele><time>2026-04-29T11:26:54.797Z</time></trkpt><trkpt lat="44.4080895" lon="9.6237244"><ele>935.0</ele><time>2026-04-29T11:26:55.798Z</time></trkpt><trkpt lat="44.4080429" lon="9.6235401"><ele>933.0</ele><time>2026-04-29T11:26:56.798Z</time></trkpt><trkpt lat="44.4079605" lon="9.6233588"><ele>931.0</ele><time>2026-04-29T11:26:57.798Z</time></trkpt><trkpt lat="44.407869" lon="9.623161"><ele>933.0</ele><time>2026-04-29T11:26:58.799Z</time></trkpt><trkpt lat="44.4077837" lon="9.6229686"><ele>935.0</ele><time>2026-04-29T11:26:59.799Z</time></trkpt><trkpt lat="44.4076877" lon="9.6228144"><ele>937.0</ele><time>2026-04-29T11:27:00.798Z</time></trkpt><trkpt lat="44.407593" lon="9.6226916"><ele>939.0</ele><time>2026-04-29T11:27:01.798Z</time></trkpt><trkpt lat="44.4075324" lon="9.6225473"><ele>939.0</ele><time>2026-04-29T11:27:02.798Z</time></trkpt><trkpt lat="44.4075179" lon="9.6223879"><ele>939.0</ele><time>2026-04-29T11:27:03.798Z</time></trkpt><trkpt lat="44.4075037" lon="9.6222216"><ele>939.0</ele><time>2026-04-29T11:27:04.798Z</time></trkpt><trkpt lat="44.4074542" lon="9.6220466"><ele>939.0</ele><time>2026-04-29T11:27:05.799Z</time></trkpt><trkpt lat="44.4073683" lon="9.6218566"><ele>941.6666666666667</ele><time>2026-04-29T11:27:06.798Z</time></trkpt><trkpt lat="44.4072564" lon="9.621646"><ele>944.3333333333334</ele><time>2026-04-29T11:27:07.799Z</time></trkpt><trkpt lat="44.407141" lon="9.6214131"><ele>947.0</ele><time>2026-04-29T11:27:08.799Z</time></trkpt><trkpt lat="44.4070285" lon="9.6211786"><ele>941.6666666666667</ele><time>2026-04-29T11:27:09.799Z</time></trkpt><trkpt lat="44.4069216" lon="9.6209671"><ele>936.3333333333333</ele><time>2026-04-29T11:27:10.798Z</time></trkpt><trkpt lat="44.4068069" lon="9.6207833"><ele>931.0</ele><time>2026-04-29T11:27:11.797Z</time></trkpt><trkpt lat="44.4066578" lon="9.6206586"><ele>931.0</ele><time>2026-04-29T11:27:12.797Z</time></trkpt><trkpt lat="44.4064836" lon="9.6205531"><ele>931.0</ele><time>2026-04-29T11:27:13.797Z</time></trkpt><trkpt lat="44.4062922" lon="9.620441"><ele>931.0</ele><time>2026-04-29T11:27:14.798Z</time></trkpt><trkpt lat="44.4061144" lon="9.6203194"><ele>927.6666666666666</ele><time>2026-04-29T11:27:15.798Z</time></trkpt><trkpt lat="44.4059497" lon="9.6201754"><ele>924.3333333333333</ele><time>2026-04-29T11:27:16.798Z</time></trkpt><trkpt lat="44.4058025" lon="9.6200084"><ele>921.0</ele><time>2026-04-29T11:27:17.796Z</time></trkpt><trkpt lat="44.4056665" lon="9.6198527"><ele>921.0</ele><time>2026-04-29T11:27:18.797Z</time></trkpt><trkpt lat="44.4055229" lon="9.6197319"><ele>921.0</ele><time>2026-04-29T11:27:19.796Z</time></trkpt><trkpt lat="44.4053833" lon="9.6196475"><ele>921.0</ele><time>2026-04-29T11:27:20.797Z</time></trkpt><trkpt lat="44.4052443" lon="9.6196031"><ele>921.25</ele><time>2026-04-29T11:27:21.798Z</time></trkpt><trkpt lat="44.4051098" lon="9.6196164"><ele>921.5</ele><time>2026-04-29T11:27:22.798Z</time></trkpt><trkpt lat="44.4049826" lon="9.6196846"><ele>921.75</ele><time>2026-04-29T11:27:23.798Z</time></trkpt><trkpt lat="44.404852" lon="9.619765"><ele>922.0</ele><time>2026-04-29T11:27:24.796Z</time></trkpt><trkpt lat="44.4047016" lon="9.619811"><ele>921.0</ele><time>2026-04-29T11:27:25.796Z</time></trkpt><trkpt lat="44.4045417" lon="9.6198285"><ele>920.0</ele><time>2026-04-29T11:27:26.797Z</time></trkpt><trkpt lat="44.4043912" lon="9.6198214"><ele>919.0</ele><time>2026-04-29T11:27:27.796Z</time></trkpt><trkpt lat="44.4042427" lon="9.6197725"><ele>919.0</ele><time>2026-04-29T11:27:28.797Z</time></trkpt><trkpt lat="44.4041013" lon="9.6196661"><ele>919.0</ele><time>2026-04-29T11:27:29.797Z</time></trkpt><trkpt lat="44.4039645" lon="9.6195111"><ele>919.0</ele><time>2026-04-29T11:27:30.798Z</time></trkpt><trkpt lat="44.4038267" lon="9.6193221"><ele>917.6666666666666</ele><time>2026-04-29T11:27:31.798Z</time></trkpt><trkpt lat="44.4036879" lon="9.6191336"><ele>916.3333333333333</ele><time>2026-04-29T11:27:32.797Z</time></trkpt><trkpt lat="44.4035692" lon="9.6189932"><ele>915.0</ele><time>2026-04-29T11:27:33.797Z</time></trkpt><trkpt lat="44.4034396" lon="9.6189027"><ele>915.0</ele><time>2026-04-29T11:27:34.798Z</time></trkpt><trkpt lat="44.4033026" lon="9.6188753"><ele>915.0</ele><time>2026-04-29T11:27:35.797Z</time></trkpt><trkpt lat="44.4031666" lon="9.6189019"><ele>915.0</ele><time>2026-04-29T11:27:36.797Z</time></trkpt><trkpt lat="44.4030238" lon="9.6189222"><ele>915.0</ele><time>2026-04-29T11:27:37.797Z</time></trkpt><trkpt lat="44.4028752" lon="9.618887"><ele>918.3333333333333</ele><time>2026-04-29T11:27:38.796Z</time></trkpt><trkpt lat="44.40273" lon="9.618802"><ele>921.6666666666666</ele><time>2026-04-29T11:27:39.797Z</time></trkpt><trkpt lat="44.402603" lon="9.6186873"><ele>925.0</ele><time>2026-04-29T11:27:40.797Z</time></trkpt><trkpt lat="44.4024975" lon="9.6185346"><ele>918.0</ele><time>2026-04-29T11:27:41.797Z</time></trkpt><trkpt lat="44.4024319" lon="9.6183529"><ele>911.0</ele><time>2026-04-29T11:27:42.797Z</time></trkpt><trkpt lat="44.402408" lon="9.6181359"><ele>904.0</ele><time>2026-04-29T11:27:43.797Z</time></trkpt><trkpt lat="44.4023972" lon="9.617903"><ele>900.0</ele><time>2026-04-29T11:27:44.798Z</time></trkpt><trkpt lat="44.402352" lon="9.6176614"><ele>896.0</ele><time>2026-04-29T11:27:45.798Z</time></trkpt><trkpt lat="44.4022825" lon="9.6174122"><ele>892.0</ele><time>2026-04-29T11:27:46.798Z</time></trkpt><trkpt lat="44.402224" lon="9.6172026"><ele>892.0</ele><time>2026-04-29T11:27:47.797Z</time></trkpt><trkpt lat="44.4021655" lon="9.6170232"><ele>892.0</ele><time>2026-04-29T11:27:48.797Z</time></trkpt><trkpt lat="44.4020906" lon="9.6168814"><ele>892.0</ele><time>2026-04-29T11:27:49.797Z</time></trkpt><trkpt lat="44.4019915" lon="9.6167868"><ele>892.0</ele><time>2026-04-29T11:27:50.797Z</time></trkpt><trkpt lat="44.4018778" lon="9.6167557"><ele>890.0</ele><time>2026-04-29T11:27:51.797Z</time></trkpt><trkpt lat="44.4017402" lon="9.6167879"><ele>888.0</ele><time>2026-04-29T11:27:52.797Z</time></trkpt><trkpt lat="44.4015991" lon="9.6168448"><ele>886.0</ele><time>2026-04-29T11:27:53.797Z</time></trkpt><trkpt lat="44.4014768" lon="9.6169291"><ele>884.0</ele><time>2026-04-29T11:27:54.797Z</time></trkpt><trkpt lat="44.401367" lon="9.6170522"><ele>880.6666666666667</ele><time>2026-04-29T11:27:55.798Z</time></trkpt><trkpt lat="44.4012998" lon="9.6172532"><ele>877.3333333333333</ele><time>2026-04-29T11:27:56.798Z</time></trkpt><trkpt lat="44.401231" lon="9.6174689"><ele>874.0</ele><time>2026-04-29T11:27:57.797Z</time></trkpt><trkpt lat="44.4011572" lon="9.6176979"><ele>880.3333333333333</ele><time>2026-04-29T11:27:58.797Z</time></trkpt><trkpt lat="44.4010509" lon="9.6179175"><ele>886.6666666666667</ele><time>2026-04-29T11:27:59.797Z</time></trkpt><trkpt lat="44.4009152" lon="9.6181274"><ele>893.0</ele><time>2026-04-29T11:28:00.797Z</time></trkpt><trkpt lat="44.400758" lon="9.6183147"><ele>893.0</ele><time>2026-04-29T11:28:01.797Z</time></trkpt><trkpt lat="44.400592" lon="9.6184602"><ele>893.0</ele><time>2026-04-29T11:28:02.797Z</time></trkpt><trkpt lat="44.4004178" lon="9.618558"><ele>893.0</ele><time>2026-04-29T11:28:03.797Z</time></trkpt><trkpt lat="44.4002351" lon="9.6186085"><ele>890.3333333333334</ele><time>2026-04-29T11:28:04.797Z</time></trkpt><trkpt lat="44.4000457" lon="9.6185989"><ele>887.6666666666667</ele><time>2026-04-29T11:28:05.798Z</time></trkpt><trkpt lat="44.3998582" lon="9.6185315"><ele>885.0</ele><time>2026-04-29T11:28:06.797Z</time></trkpt><trkpt lat="44.3996704" lon="9.6184399"><ele>885.6666666666667</ele><time>2026-04-29T11:28:07.798Z</time></trkpt><trkpt lat="44.3994703" lon="9.6183838"><ele>886.3333333333334</ele><time>2026-04-29T11:28:08.798Z</time></trkpt><trkpt lat="44.3992686" lon="9.6183286"><ele>887.0</ele><time>2026-04-29T11:28:09.798Z</time></trkpt><trkpt lat="44.3990777" lon="9.6182529"><ele>887.0</ele><time>2026-04-29T11:28:10.798Z</time></trkpt><trkpt lat="44.3988976" lon="9.618131"><ele>887.0</ele><time>2026-04-29T11:28:11.797Z</time></trkpt><trkpt lat="44.398729" lon="9.6179658"><ele>887.0</ele><time>2026-04-29T11:28:12.797Z</time></trkpt><trkpt lat="44.3985617" lon="9.6177882"><ele>882.0</ele><time>2026-04-29T11:28:13.798Z</time></trkpt><trkpt lat="44.3983814" lon="9.6176298"><ele>877.0</ele><time>2026-04-29T11:28:14.798Z</time></trkpt><trkpt lat="44.3981954" lon="9.6174721"><ele>872.0</ele><time>2026-04-29T11:28:15.798Z</time></trkpt><trkpt lat="44.3980121" lon="9.6173204"><ele>869.3333333333334</ele><time>2026-04-29T11:28:16.798Z</time></trkpt><trkpt lat="44.3978287" lon="9.6171898"><ele>866.6666666666667</ele><time>2026-04-29T11:28:17.798Z</time></trkpt><trkpt lat="44.3976469" lon="9.6170704"><ele>864.0</ele><time>2026-04-29T11:28:18.797Z</time></trkpt><trkpt lat="44.3974799" lon="9.6169287"><ele>864.0</ele><time>2026-04-29T11:28:19.796Z</time></trkpt><trkpt lat="44.3973334" lon="9.6167597"><ele>864.0</ele><time>2026-04-29T11:28:20.797Z</time></trkpt><trkpt lat="44.397175" lon="9.6166039"><ele>864.0</ele><time>2026-04-29T11:28:21.797Z</time></trkpt><trkpt lat="44.3969983" lon="9.6164776"><ele>860.6666666666667</ele><time>2026-04-29T11:28:22.798Z</time></trkpt><trkpt lat="44.3968101" lon="9.6163703"><ele>857.3333333333334</ele><time>2026-04-29T11:28:23.797Z</time></trkpt><trkpt lat="44.396632" lon="9.6162426"><ele>854.0</ele><time>2026-04-29T11:28:24.797Z</time></trkpt><trkpt lat="44.3964728" lon="9.6160822"><ele>857.0</ele><time>2026-04-29T11:28:25.797Z</time></trkpt><trkpt lat="44.3963197" lon="9.6159166"><ele>860.0</ele><time>2026-04-29T11:28:26.798Z</time></trkpt><trkpt lat="44.396176" lon="9.6157567"><ele>863.0</ele><time>2026-04-29T11:28:27.798Z</time></trkpt><trkpt lat="44.3960476" lon="9.6155995"><ele>863.0</ele><time>2026-04-29T11:28:28.796Z</time></trkpt><trkpt lat="44.3959222" lon="9.6154558"><ele>863.0</ele><time>2026-04-29T11:28:29.797Z</time></trkpt><trkpt lat="44.3957907" lon="9.6153354"><ele>863.0</ele><time>2026-04-29T11:28:30.796Z</time></trkpt><trkpt lat="44.395672" lon="9.615238"><ele>859.25</ele><time>2026-04-29T11:28:31.797Z</time></trkpt><trkpt lat="44.3955606" lon="9.6151701"><ele>855.5</ele><time>2026-04-29T11:28:32.798Z</time></trkpt><trkpt lat="44.3954493" lon="9.6151692"><ele>851.75</ele><time>2026-04-29T11:28:33.798Z</time></trkpt><trkpt lat="44.3953411" lon="9.6152391"><ele>848.0</ele><time>2026-04-29T11:28:34.798Z</time></trkpt><trkpt lat="44.3952304" lon="9.6153524"><ele>848.0</ele><time>2026-04-29T11:28:35.797Z</time></trkpt><trkpt lat="44.3951394" lon="9.6154776"><ele>848.0</ele><time>2026-04-29T11:28:36.797Z</time></trkpt><trkpt lat="44.3950794" lon="9.6156178"><ele>848.0</ele><time>2026-04-29T11:28:37.797Z</time></trkpt><trkpt lat="44.3950662" lon="9.6157733"><ele>848.0</ele><time>2026-04-29T11:28:38.797Z</time></trkpt><trkpt lat="44.3950891" lon="9.6159253"><ele>848.0</ele><time>2026-04-29T11:28:39.797Z</time></trkpt><trkpt lat="44.3950949" lon="9.6160369"><ele>848.0</ele><time>2026-04-29T11:28:40.797Z</time></trkpt><trkpt lat="44.3950638" lon="9.6161175"><ele>848.0</ele><time>2026-04-29T11:28:41.798Z</time></trkpt><trkpt lat="44.3950065" lon="9.6161588"><ele>848.0</ele><time>2026-04-29T11:28:42.798Z</time></trkpt><trkpt lat="44.3949441" lon="9.616142"><ele>848.0</ele><time>2026-04-29T11:28:43.797Z</time></trkpt><trkpt lat="44.3949006" lon="9.6160733"><ele>848.0</ele><time>2026-04-29T11:28:44.797Z</time></trkpt><trkpt lat="44.3948838" lon="9.6159671"><ele>848.0</ele><time>2026-04-29T11:28:45.797Z</time></trkpt><trkpt lat="44.3948894" lon="9.6158327"><ele>848.0</ele><time>2026-04-29T11:28:46.797Z</time></trkpt><trkpt lat="44.3949009" lon="9.6156563"><ele>848.0</ele><time>2026-04-29T11:28:47.798Z</time></trkpt><trkpt lat="44.3949142" lon="9.6154363"><ele>848.0</ele><time>2026-04-29T11:28:48.798Z</time></trkpt><trkpt lat="44.3949339" lon="9.6152056"><ele>846.5</ele><time>2026-04-29T11:28:49.797Z</time></trkpt><trkpt lat="44.3949676" lon="9.6150034"><ele>845.0</ele><time>2026-04-29T11:28:50.797Z</time></trkpt><trkpt lat="44.3950295" lon="9.6148249"><ele>843.5</ele><time>2026-04-29T11:28:51.798Z</time></trkpt><trkpt lat="44.3951219" lon="9.6146684"><ele>842.0</ele><time>2026-04-29T11:28:52.798Z</time></trkpt><trkpt lat="44.395232" lon="9.6145656"><ele>842.0000000000001</ele><time>2026-04-29T11:28:53.797Z</time></trkpt><trkpt lat="44.3953333" lon="9.6144963"><ele>842.0</ele><time>2026-04-29T11:28:54.798Z</time></trkpt><trkpt lat="44.3954002" lon="9.6144128"><ele>842.0</ele><time>2026-04-29T11:28:55.798Z</time></trkpt><trkpt lat="44.3954253" lon="9.6143015"><ele>842.0</ele><time>2026-04-29T11:28:56.796Z</time></trkpt><trkpt lat="44.3953965" lon="9.6141999"><ele>842.0000000000001</ele><time>2026-04-29T11:28:57.797Z</time></trkpt><trkpt lat="44.3953269" lon="9.6141409"><ele>842.0</ele><time>2026-04-29T11:28:58.798Z</time></trkpt><trkpt lat="44.3952451" lon="9.6141385"><ele>842.0</ele><time>2026-04-29T11:28:59.796Z</time></trkpt><trkpt lat="44.3951437" lon="9.6142038"><ele>842.0</ele><time>2026-04-29T11:29:00.797Z</time></trkpt><trkpt lat="44.3950279" lon="9.6143186"><ele>842.0</ele><time>2026-04-29T11:29:01.796Z</time></trkpt><trkpt lat="44.3949103" lon="9.6144344"><ele>842.0</ele><time>2026-04-29T11:29:02.796Z</time></trkpt><trkpt lat="44.3948099" lon="9.6145248"><ele>842.0</ele><time>2026-04-29T11:29:03.797Z</time></trkpt><trkpt lat="44.3947249" lon="9.6146161"><ele>842.0</ele><time>2026-04-29T11:29:04.797Z</time></trkpt><trkpt lat="44.3946714" lon="9.6147443"><ele>842.0</ele><time>2026-04-29T11:29:05.797Z</time></trkpt><trkpt lat="44.3946504" lon="9.6149006"><ele>842.0</ele><time>2026-04-29T11:29:06.798Z</time></trkpt><trkpt lat="44.3946526" lon="9.6150714"><ele>842.0</ele><time>2026-04-29T11:29:07.797Z</time></trkpt><trkpt lat="44.3946524" lon="9.6152613"><ele>837.75</ele><time>2026-04-29T11:29:08.797Z</time></trkpt><trkpt lat="44.39463" lon="9.615453"><ele>833.5</ele><time>2026-04-29T11:29:09.797Z</time></trkpt><trkpt lat="44.3945696" lon="9.6156315"><ele>829.25</ele><time>2026-04-29T11:29:10.798Z</time></trkpt><trkpt lat="44.3944678" lon="9.6157798"><ele>825.0</ele><time>2026-04-29T11:29:11.798Z</time></trkpt><trkpt lat="44.3943477" lon="9.6158847"><ele>825.0</ele><time>2026-04-29T11:29:12.798Z</time></trkpt><trkpt lat="44.3942068" lon="9.6159356"><ele>825.0</ele><time>2026-04-29T11:29:13.797Z</time></trkpt><trkpt lat="44.3940572" lon="9.6159399"><ele>825.0</ele><time>2026-04-29T11:29:14.797Z</time></trkpt><trkpt lat="44.393899" lon="9.615938"><ele>821.6666666666667</ele><time>2026-04-29T11:29:15.797Z</time></trkpt><trkpt lat="44.3937264" lon="9.6159563"><ele>818.3333333333334</ele><time>2026-04-29T11:29:16.797Z</time></trkpt><trkpt lat="44.393541" lon="9.6159941"><ele>815.0</ele><time>2026-04-29T11:29:17.797Z</time></trkpt><trkpt lat="44.3933446" lon="9.616048"><ele>815.0</ele><time>2026-04-29T11:29:18.797Z</time></trkpt><trkpt lat="44.3931345" lon="9.6161183"><ele>815.0</ele><time>2026-04-29T11:29:19.797Z</time></trkpt><trkpt lat="44.3929169" lon="9.616186"><ele>815.0</ele><time>2026-04-29T11:29:20.796Z</time></trkpt><trkpt lat="44.3927063" lon="9.6162473"><ele>814.6666666666667</ele><time>2026-04-29T11:29:21.797Z</time></trkpt><trkpt lat="44.3924853" lon="9.6163008"><ele>814.3333333333333</ele><time>2026-04-29T11:29:22.798Z</time></trkpt><trkpt lat="44.3922621" lon="9.6163358"><ele>814.0</ele><time>2026-04-29T11:29:23.797Z</time></trkpt><trkpt lat="44.3920345" lon="9.6163654"><ele>810.3333333333333</ele><time>2026-04-29T11:29:24.798Z</time></trkpt><trkpt lat="44.3918124" lon="9.6163936"><ele>806.6666666666667</ele><time>2026-04-29T11:29:25.797Z</time></trkpt><trkpt lat="44.3916011" lon="9.6164212"><ele>803.0</ele><time>2026-04-29T11:29:26.797Z</time></trkpt><trkpt lat="44.3914026" lon="9.6164482"><ele>799.3333333333334</ele><time>2026-04-29T11:29:27.797Z</time></trkpt><trkpt lat="44.3912196" lon="9.616472"><ele>795.6666666666667</ele><time>2026-04-29T11:29:28.796Z</time></trkpt><trkpt lat="44.3910595" lon="9.6164961"><ele>792.0</ele><time>2026-04-29T11:29:29.796Z</time></trkpt><trkpt lat="44.3909129" lon="9.6165078"><ele>792.0</ele><time>2026-04-29T11:29:30.798Z</time></trkpt><trkpt lat="44.3907731" lon="9.6164938"><ele>792.0</ele><time>2026-04-29T11:29:31.797Z</time></trkpt><trkpt lat="44.3906316" lon="9.616443"><ele>792.0</ele><time>2026-04-29T11:29:32.797Z</time></trkpt><trkpt lat="44.3904879" lon="9.6163545"><ele>792.0</ele><time>2026-04-29T11:29:33.797Z</time></trkpt><trkpt lat="44.3903362" lon="9.6162466"><ele>793.0</ele><time>2026-04-29T11:29:34.797Z</time></trkpt><trkpt lat="44.390186" lon="9.6161352"><ele>794.0</ele><time>2026-04-29T11:29:35.798Z</time></trkpt><trkpt lat="44.3900512" lon="9.6160331"><ele>795.0</ele><time>2026-04-29T11:29:36.798Z</time></trkpt><trkpt lat="44.3899367" lon="9.6159482"><ele>795.0</ele><time>2026-04-29T11:29:37.798Z</time></trkpt><trkpt lat="44.3898369" lon="9.615862"><ele>795.0</ele><time>2026-04-29T11:29:38.798Z</time></trkpt><trkpt lat="44.38977" lon="9.6157527"><ele>795.0</ele><time>2026-04-29T11:29:39.798Z</time></trkpt><trkpt lat="44.3897375" lon="9.6156185"><ele>795.0</ele><time>2026-04-29T11:29:40.796Z</time></trkpt><trkpt lat="44.3897473" lon="9.6154886"><ele>795.0</ele><time>2026-04-29T11:29:41.797Z</time></trkpt><trkpt lat="44.3897979" lon="9.6153933"><ele>790.75</ele><time>2026-04-29T11:29:42.797Z</time></trkpt><trkpt lat="44.3898841" lon="9.6153205"><ele>786.5</ele><time>2026-04-29T11:29:43.797Z</time></trkpt><trkpt lat="44.3900155" lon="9.6152659"><ele>782.25</ele><time>2026-04-29T11:29:44.797Z</time></trkpt><trkpt lat="44.3901603" lon="9.6152298"><ele>778.0</ele><time>2026-04-29T11:29:45.798Z</time></trkpt><trkpt lat="44.3902895" lon="9.6152354"><ele>778.0</ele><time>2026-04-29T11:29:46.798Z</time></trkpt><trkpt lat="44.3904208" lon="9.6152925"><ele>778.0</ele><time>2026-04-29T11:29:47.798Z</time></trkpt><trkpt lat="44.3905596" lon="9.6154017"><ele>778.0</ele><time>2026-04-29T11:29:48.797Z</time></trkpt><trkpt lat="44.3906973" lon="9.6155022"><ele>781.25</ele><time>2026-04-29T11:29:49.798Z</time></trkpt><trkpt lat="44.3908241" lon="9.615571"><ele>784.5</ele><time>2026-04-29T11:29:50.797Z</time></trkpt><trkpt lat="44.3909484" lon="9.6156114"><ele>787.75</ele><time>2026-04-29T11:29:51.798Z</time></trkpt><trkpt lat="44.391081" lon="9.615595"><ele>791.0</ele><time>2026-04-29T11:29:52.797Z</time></trkpt><trkpt lat="44.3912174" lon="9.6155264"><ele>790.6666666666667</ele><time>2026-04-29T11:29:53.797Z</time></trkpt><trkpt lat="44.3913729" lon="9.6153931"><ele>790.3333333333333</ele><time>2026-04-29T11:29:54.796Z</time></trkpt><trkpt lat="44.3915508" lon="9.6152223"><ele>790.0</ele><time>2026-04-29T11:29:55.796Z</time></trkpt><trkpt lat="44.391751" lon="9.6150368"><ele>789.3333333333333</ele><time>2026-04-29T11:29:56.797Z</time></trkpt><trkpt lat="44.3919277" lon="9.6148763"><ele>788.6666666666667</ele><time>2026-04-29T11:29:57.798Z</time></trkpt><trkpt lat="44.3920864" lon="9.6147346"><ele>788.0</ele><time>2026-04-29T11:29:58.797Z</time></trkpt><trkpt lat="44.3922266" lon="9.6146065"><ele>788.0</ele><time>2026-04-29T11:29:59.796Z</time></trkpt><trkpt lat="44.3923338" lon="9.6144906"><ele>788.0</ele><time>2026-04-29T11:30:00.798Z</time></trkpt><trkpt lat="44.3924041" lon="9.6143528"><ele>788.0</ele><time>2026-04-29T11:30:01.797Z</time></trkpt><trkpt lat="44.3924218" lon="9.6142053"><ele>788.0</ele><time>2026-04-29T11:30:02.798Z</time></trkpt><trkpt lat="44.3923838" lon="9.6140759"><ele>785.0</ele><time>2026-04-29T11:30:03.797Z</time></trkpt><trkpt lat="44.3923049" lon="9.6139712"><ele>782.0</ele><time>2026-04-29T11:30:04.797Z</time></trkpt><trkpt lat="44.3921917" lon="9.6139278"><ele>779.0</ele><time>2026-04-29T11:30:05.796Z</time></trkpt><trkpt lat="44.3920724" lon="9.6139227"><ele>776.0</ele><time>2026-04-29T11:30:06.797Z</time></trkpt><trkpt lat="44.3919037" lon="9.6139997"><ele>771.3333333333334</ele><time>2026-04-29T11:30:07.798Z</time></trkpt><trkpt lat="44.3917445" lon="9.6140603"><ele>766.6666666666667</ele><time>2026-04-29T11:30:08.798Z</time></trkpt><trkpt lat="44.3916073" lon="9.6141464"><ele>762.0</ele><time>2026-04-29T11:30:09.796Z</time></trkpt><trkpt lat="44.3914931" lon="9.6142729"><ele>762.0</ele><time>2026-04-29T11:30:10.797Z</time></trkpt><trkpt lat="44.3914036" lon="9.6144319"><ele>762.0</ele><time>2026-04-29T11:30:11.797Z</time></trkpt><trkpt lat="44.39133" lon="9.6145997"><ele>762.0</ele><time>2026-04-29T11:30:12.796Z</time></trkpt><trkpt lat="44.3912591" lon="9.6147361"><ele>762.0</ele><time>2026-04-29T11:30:13.797Z</time></trkpt><trkpt lat="44.3911789" lon="9.6148496"><ele>763.4000000000001</ele><time>2026-04-29T11:30:14.797Z</time></trkpt><trkpt lat="44.3910882" lon="9.6149069"><ele>764.8000000000001</ele><time>2026-04-29T11:30:15.797Z</time></trkpt><trkpt lat="44.3909922" lon="9.6149017"><ele>766.2</ele><time>2026-04-29T11:30:16.797Z</time></trkpt><trkpt lat="44.3908913" lon="9.6148456"><ele>767.6</ele><time>2026-04-29T11:30:17.797Z</time></trkpt><trkpt lat="44.390778" lon="9.6147239"><ele>769.0</ele><time>2026-04-29T11:30:18.797Z</time></trkpt><trkpt lat="44.3906582" lon="9.6145531"><ele>765.6666666666666</ele><time>2026-04-29T11:30:19.796Z</time></trkpt><trkpt lat="44.3905437" lon="9.6143653"><ele>762.3333333333333</ele><time>2026-04-29T11:30:20.797Z</time></trkpt><trkpt lat="44.3904414" lon="9.6141857"><ele>759.0</ele><time>2026-04-29T11:30:21.797Z</time></trkpt><trkpt lat="44.3903417" lon="9.6140146"><ele>759.0</ele><time>2026-04-29T11:30:22.797Z</time></trkpt><trkpt lat="44.3902455" lon="9.6138621"><ele>759.0</ele><time>2026-04-29T11:30:23.797Z</time></trkpt><trkpt lat="44.3901426" lon="9.6137445"><ele>759.0</ele><time>2026-04-29T11:30:24.797Z</time></trkpt><trkpt lat="44.3900299" lon="9.6136829"><ele>759.0</ele><time>2026-04-29T11:30:25.797Z</time></trkpt><trkpt lat="44.3899106" lon="9.6136903"><ele>759.0</ele><time>2026-04-29T11:30:26.797Z</time></trkpt><trkpt lat="44.3898004" lon="9.61376"><ele>759.0</ele><time>2026-04-29T11:30:27.797Z</time></trkpt><trkpt lat="44.3897012" lon="9.6138836"><ele>759.0</ele><time>2026-04-29T11:30:28.797Z</time></trkpt><trkpt lat="44.3895981" lon="9.6140337"><ele>759.0</ele><time>2026-04-29T11:30:29.798Z</time></trkpt><trkpt lat="44.3894542" lon="9.614162"><ele>760.3333333333334</ele><time>2026-04-29T11:30:30.797Z</time></trkpt><trkpt lat="44.389288" lon="9.6142704"><ele>761.6666666666667</ele><time>2026-04-29T11:30:31.796Z</time></trkpt><trkpt lat="44.3891271" lon="9.6143881"><ele>763.0</ele><time>2026-04-29T11:30:32.797Z</time></trkpt><trkpt lat="44.3889878" lon="9.6145139"><ele>763.0</ele><time>2026-04-29T11:30:33.797Z</time></trkpt><trkpt lat="44.3888453" lon="9.6146246"><ele>763.0</ele><time>2026-04-29T11:30:34.796Z</time></trkpt><trkpt lat="44.3886957" lon="9.614679"><ele>763.0</ele><time>2026-04-29T11:30:35.797Z</time></trkpt><trkpt lat="44.3885505" lon="9.6147106"><ele>757.75</ele><time>2026-04-29T11:30:36.797Z</time></trkpt><trkpt lat="44.3884279" lon="9.6147527"><ele>752.5</ele><time>2026-04-29T11:30:37.797Z</time></trkpt><trkpt lat="44.3883205" lon="9.6148477"><ele>747.25</ele><time>2026-04-29T11:30:38.797Z</time></trkpt><trkpt lat="44.388252" lon="9.6150069"><ele>742.0</ele><time>2026-04-29T11:30:39.798Z</time></trkpt><trkpt lat="44.3881986" lon="9.6152002"><ele>744.3333333333334</ele><time>2026-04-29T11:30:40.798Z</time></trkpt><trkpt lat="44.3881621" lon="9.6154186"><ele>746.6666666666666</ele><time>2026-04-29T11:30:41.798Z</time></trkpt><trkpt lat="44.3881531" lon="9.6156586"><ele>749.0</ele><time>2026-04-29T11:30:42.797Z</time></trkpt><trkpt lat="44.3881623" lon="9.6158871"><ele>749.0</ele><time>2026-04-29T11:30:43.797Z</time></trkpt><trkpt lat="44.3881734" lon="9.6160851"><ele>749.0</ele><time>2026-04-29T11:30:44.798Z</time></trkpt><trkpt lat="44.3881813" lon="9.6162524"><ele>749.0</ele><time>2026-04-29T11:30:45.798Z</time></trkpt><trkpt lat="44.3881722" lon="9.6163971"><ele>749.0</ele><time>2026-04-29T11:30:46.798Z</time></trkpt><trkpt lat="44.3881304" lon="9.6165059"><ele>746.6666666666666</ele><time>2026-04-29T11:30:47.797Z</time></trkpt><trkpt lat="44.388065" lon="9.6165521"><ele>744.3333333333333</ele><time>2026-04-29T11:30:48.797Z</time></trkpt><trkpt lat="44.387999" lon="9.616528"><ele>742.0</ele><time>2026-04-29T11:30:49.797Z</time></trkpt><trkpt lat="44.3879552" lon="9.6164525"><ele>739.6666666666666</ele><time>2026-04-29T11:30:50.797Z</time></trkpt><trkpt lat="44.387936" lon="9.6163355"><ele>737.3333333333334</ele><time>2026-04-29T11:30:51.798Z</time></trkpt><trkpt lat="44.3879415" lon="9.6161909"><ele>735.0</ele><time>2026-04-29T11:30:52.798Z</time></trkpt><trkpt lat="44.3879452" lon="9.6160076"><ele>730.6666666666666</ele><time>2026-04-29T11:30:53.798Z</time></trkpt><trkpt lat="44.3879253" lon="9.6157899"><ele>726.3333333333333</ele><time>2026-04-29T11:30:54.796Z</time></trkpt><trkpt lat="44.3878803" lon="9.6155498"><ele>722.0</ele><time>2026-04-29T11:30:55.796Z</time></trkpt><trkpt lat="44.3878123" lon="9.6153338"><ele>722.6666666666666</ele><time>2026-04-29T11:30:56.796Z</time></trkpt><trkpt lat="44.3877108" lon="9.6151139"><ele>723.3333333333334</ele><time>2026-04-29T11:30:57.797Z</time></trkpt><trkpt lat="44.3875873" lon="9.6148951"><ele>724.0</ele><time>2026-04-29T11:30:58.798Z</time></trkpt><trkpt lat="44.3874736" lon="9.614694"><ele>724.0</ele><time>2026-04-29T11:30:59.797Z</time></trkpt><trkpt lat="44.3873733" lon="9.6145086"><ele>724.0</ele><time>2026-04-29T11:31:00.797Z</time></trkpt><trkpt lat="44.3872806" lon="9.6143428"><ele>724.0</ele><time>2026-04-29T11:31:01.798Z</time></trkpt><trkpt lat="44.3871816" lon="9.6141944"><ele>722.0</ele><time>2026-04-29T11:31:02.797Z</time></trkpt><trkpt lat="44.3870609" lon="9.6140899"><ele>720.0</ele><time>2026-04-29T11:31:03.797Z</time></trkpt><trkpt lat="44.386921" lon="9.6140285"><ele>718.0</ele><time>2026-04-29T11:31:04.797Z</time></trkpt><trkpt lat="44.3867818" lon="9.613982"><ele>716.0</ele><time>2026-04-29T11:31:05.797Z</time></trkpt><trkpt lat="44.3866635" lon="9.6139065"><ele>716.0</ele><time>2026-04-29T11:31:06.797Z</time></trkpt><trkpt lat="44.386587" lon="9.6137953"><ele>716.0</ele><time>2026-04-29T11:31:07.797Z</time></trkpt><trkpt lat="44.3865491" lon="9.6136533"><ele>716.0</ele><time>2026-04-29T11:31:08.797Z</time></trkpt><trkpt lat="44.3865254" lon="9.6134955"><ele>716.0</ele><time>2026-04-29T11:31:09.797Z</time></trkpt><trkpt lat="44.3864662" lon="9.6133227"><ele>713.6666666666666</ele><time>2026-04-29T11:31:10.798Z</time></trkpt><trkpt lat="44.3863782" lon="9.613151"><ele>711.3333333333334</ele><time>2026-04-29T11:31:11.798Z</time></trkpt><trkpt lat="44.3862664" lon="9.6130089"><ele>709.0</ele><time>2026-04-29T11:31:12.796Z</time></trkpt><trkpt lat="44.3861226" lon="9.6128995"><ele>706.0</ele><time>2026-04-29T11:31:13.798Z</time></trkpt><trkpt lat="44.3859631" lon="9.6128175"><ele>703.0</ele><time>2026-04-29T11:31:14.798Z</time></trkpt><trkpt lat="44.3858105" lon="9.6127428"><ele>700.0</ele><time>2026-04-29T11:31:15.797Z</time></trkpt><trkpt lat="44.3856763" lon="9.6126305"><ele>700.0</ele><time>2026-04-29T11:31:16.798Z</time></trkpt><trkpt lat="44.3855623" lon="9.6124569"><ele>700.0</ele><time>2026-04-29T11:31:17.798Z</time></trkpt><trkpt lat="44.3854423" lon="9.6122518"><ele>700.0</ele><time>2026-04-29T11:31:18.797Z</time></trkpt><trkpt lat="44.3853028" lon="9.6120264"><ele>698.6666666666667</ele><time>2026-04-29T11:31:19.797Z</time></trkpt><trkpt lat="44.3851749" lon="9.6118195"><ele>697.3333333333334</ele><time>2026-04-29T11:31:20.797Z</time></trkpt><trkpt lat="44.3850576" lon="9.6116243"><ele>696.0</ele><time>2026-04-29T11:31:21.797Z</time></trkpt><trkpt lat="44.3849422" lon="9.6114361"><ele>696.0</ele><time>2026-04-29T11:31:22.798Z</time></trkpt><trkpt lat="44.3848363" lon="9.6112363"><ele>696.0</ele><time>2026-04-29T11:31:23.797Z</time></trkpt><trkpt lat="44.3847539" lon="9.6110256"><ele>696.0</ele><time>2026-04-29T11:31:24.796Z</time></trkpt><trkpt lat="44.3846874" lon="9.6108143"><ele>695.0</ele><time>2026-04-29T11:31:25.798Z</time></trkpt><trkpt lat="44.3846221" lon="9.6106118"><ele>694.0</ele><time>2026-04-29T11:31:26.798Z</time></trkpt><trkpt lat="44.3845401" lon="9.6104246"><ele>693.0</ele><time>2026-04-29T11:31:27.797Z</time></trkpt><trkpt lat="44.3844193" lon="9.6102664"><ele>693.0</ele><time>2026-04-29T11:31:28.797Z</time></trkpt><trkpt lat="44.3842999" lon="9.6101129"><ele>693.0</ele><time>2026-04-29T11:31:29.798Z</time></trkpt><trkpt lat="44.3841837" lon="9.6099833"><ele>693.0</ele><time>2026-04-29T11:31:30.797Z</time></trkpt><trkpt lat="44.3840602" lon="9.6098924"><ele>693.0</ele><time>2026-04-29T11:31:31.798Z</time></trkpt><trkpt lat="44.3839325" lon="9.6098535"><ele>693.0</ele><time>2026-04-29T11:31:32.796Z</time></trkpt><trkpt lat="44.3838234" lon="9.6098625"><ele>693.0</ele><time>2026-04-29T11:31:33.798Z</time></trkpt><trkpt lat="44.3837308" lon="9.6099354"><ele>693.0</ele><time>2026-04-29T11:31:34.797Z</time></trkpt><trkpt lat="44.3836619" lon="9.6100733"><ele>692.25</ele><time>2026-04-29T11:31:35.797Z</time></trkpt><trkpt lat="44.3836218" lon="9.610239"><ele>691.5</ele><time>2026-04-29T11:31:36.797Z</time></trkpt><trkpt lat="44.3835925" lon="9.6103928"><ele>690.75</ele><time>2026-04-29T11:31:37.797Z</time></trkpt><trkpt lat="44.3835319" lon="9.6105402"><ele>690.0</ele><time>2026-04-29T11:31:38.797Z</time></trkpt><trkpt lat="44.3834337" lon="9.6106647"><ele>690.0</ele><time>2026-04-29T11:31:39.797Z</time></trkpt><trkpt lat="44.3833098" lon="9.6107725"><ele>690.0</ele><time>2026-04-29T11:31:40.797Z</time></trkpt><trkpt lat="44.3831647" lon="9.610853"><ele>690.0</ele><time>2026-04-29T11:31:41.798Z</time></trkpt><trkpt lat="44.3830078" lon="9.6108956"><ele>690.25</ele><time>2026-04-29T11:31:42.798Z</time></trkpt><trkpt lat="44.3828668" lon="9.6109036"><ele>690.5</ele><time>2026-04-29T11:31:43.797Z</time></trkpt><trkpt lat="44.3827342" lon="9.6109047"><ele>690.75</ele><time>2026-04-29T11:31:44.797Z</time></trkpt><trkpt lat="44.3826283" lon="9.6108537"><ele>691.0</ele><time>2026-04-29T11:31:45.797Z</time></trkpt><trkpt lat="44.3825614" lon="9.6107572"><ele>691.0</ele><time>2026-04-29T11:31:46.797Z</time></trkpt><trkpt lat="44.382534" lon="9.6106346"><ele>691.0</ele><time>2026-04-29T11:31:47.797Z</time></trkpt><trkpt lat="44.3825067" lon="9.6104936"><ele>691.0</ele><time>2026-04-29T11:31:48.798Z</time></trkpt><trkpt lat="44.3824489" lon="9.6103555"><ele>691.0</ele><time>2026-04-29T11:31:49.798Z</time></trkpt><trkpt lat="44.3823456" lon="9.6102474"><ele>691.0</ele><time>2026-04-29T11:31:50.798Z</time></trkpt><trkpt lat="44.3822079" lon="9.6101638"><ele>686.6666666666667</ele><time>2026-04-29T11:31:51.798Z</time></trkpt><trkpt lat="44.3820476" lon="9.6101017"><ele>682.3333333333334</ele><time>2026-04-29T11:31:52.797Z</time></trkpt><trkpt lat="44.381871" lon="9.6100648"><ele>678.0</ele><time>2026-04-29T11:31:53.798Z</time></trkpt><trkpt lat="44.3816837" lon="9.610012"><ele>678.0</ele><time>2026-04-29T11:31:54.797Z</time></trkpt><trkpt lat="44.3814894" lon="9.6099332"><ele>678.0</ele><time>2026-04-29T11:31:55.797Z</time></trkpt><trkpt lat="44.381288" lon="9.6098465"><ele>678.0</ele><time>2026-04-29T11:31:56.798Z</time></trkpt><trkpt lat="44.3810927" lon="9.6097627"><ele>678.0</ele><time>2026-04-29T11:31:57.797Z</time></trkpt><trkpt lat="44.38091" lon="9.6096819"><ele>678.0</ele><time>2026-04-29T11:31:58.797Z</time></trkpt><trkpt lat="44.38074" lon="9.6096076"><ele>678.0</ele><time>2026-04-29T11:31:59.797Z</time></trkpt><trkpt lat="44.3805833" lon="9.6095384"><ele>673.6666666666666</ele><time>2026-04-29T11:32:00.797Z</time></trkpt><trkpt lat="44.3804367" lon="9.609472"><ele>669.3333333333333</ele><time>2026-04-29T11:32:01.797Z</time></trkpt><trkpt lat="44.3802962" lon="9.6093893"><ele>665.0</ele><time>2026-04-29T11:32:02.797Z</time></trkpt><trkpt lat="44.3801621" lon="9.6092733"><ele>665.0</ele><time>2026-04-29T11:32:03.797Z</time></trkpt><trkpt lat="44.3800322" lon="9.6091308"><ele>665.0</ele><time>2026-04-29T11:32:04.797Z</time></trkpt><trkpt lat="44.3799021" lon="9.6089858"><ele>665.0</ele><time>2026-04-29T11:32:05.796Z</time></trkpt><trkpt lat="44.3797855" lon="9.6088527"><ele>662.5</ele><time>2026-04-29T11:32:06.798Z</time></trkpt><trkpt lat="44.3796831" lon="9.6087454"><ele>660.0</ele><time>2026-04-29T11:32:07.798Z</time></trkpt><trkpt lat="44.3795759" lon="9.6086699"><ele>657.5</ele><time>2026-04-29T11:32:08.797Z</time></trkpt><trkpt lat="44.3794644" lon="9.608653"><ele>655.0</ele><time>2026-04-29T11:32:09.796Z</time></trkpt><trkpt lat="44.3793592" lon="9.6087061"><ele>655.0</ele><time>2026-04-29T11:32:10.796Z</time></trkpt><trkpt lat="44.3792768" lon="9.608818"><ele>655.0</ele><time>2026-04-29T11:32:11.797Z</time></trkpt><trkpt lat="44.3792255" lon="9.6089722"><ele>655.0</ele><time>2026-04-29T11:32:12.796Z</time></trkpt><trkpt lat="44.3792097" lon="9.6091397"><ele>655.0</ele><time>2026-04-29T11:32:13.796Z</time></trkpt><trkpt lat="44.3791976" lon="9.6092913"><ele>655.0</ele><time>2026-04-29T11:32:14.798Z</time></trkpt><trkpt lat="44.3791479" lon="9.6094042"><ele>655.0</ele><time>2026-04-29T11:32:15.797Z</time></trkpt><trkpt lat="44.37908" lon="9.6094607"><ele>655.0</ele><time>2026-04-29T11:32:16.797Z</time></trkpt><trkpt lat="44.3790029" lon="9.6094574"><ele>655.0</ele><time>2026-04-29T11:32:17.797Z</time></trkpt><trkpt lat="44.3789328" lon="9.6094009"><ele>655.0</ele><time>2026-04-29T11:32:18.796Z</time></trkpt><trkpt lat="44.3788732" lon="9.6092994"><ele>655.0</ele><time>2026-04-29T11:32:19.798Z</time></trkpt><trkpt lat="44.3787971" lon="9.6091737"><ele>653.5</ele><time>2026-04-29T11:32:20.798Z</time></trkpt><trkpt lat="44.3787094" lon="9.6090773"><ele>652.0</ele><time>2026-04-29T11:32:21.796Z</time></trkpt><trkpt lat="44.3786025" lon="9.6090247"><ele>650.5</ele><time>2026-04-29T11:32:22.797Z</time></trkpt><trkpt lat="44.3784831" lon="9.6090165"><ele>649.0</ele><time>2026-04-29T11:32:23.797Z</time></trkpt><trkpt lat="44.3783693" lon="9.6090092"><ele>649.0</ele><time>2026-04-29T11:32:24.797Z</time></trkpt><trkpt lat="44.3782682" lon="9.6089559"><ele>649.0</ele><time>2026-04-29T11:32:25.797Z</time></trkpt><trkpt lat="44.3781848" lon="9.6088485"><ele>649.0</ele><time>2026-04-29T11:32:26.797Z</time></trkpt><trkpt lat="44.3781223" lon="9.6086926"><ele>649.0</ele><time>2026-04-29T11:32:27.798Z</time></trkpt><trkpt lat="44.378074" lon="9.6085188"><ele>646.2</ele><time>2026-04-29T11:32:28.797Z</time></trkpt><trkpt lat="44.378034" lon="9.6083683"><ele>643.4000000000001</ele><time>2026-04-29T11:32:29.797Z</time></trkpt><trkpt lat="44.3779816" lon="9.6082422"><ele>640.6</ele><time>2026-04-29T11:32:30.797Z</time></trkpt><trkpt lat="44.3779062" lon="9.6081624"><ele>637.8</ele><time>2026-04-29T11:32:31.797Z</time></trkpt><trkpt lat="44.3778223" lon="9.6081437"><ele>635.0</ele><time>2026-04-29T11:32:32.798Z</time></trkpt><trkpt lat="44.3777469" lon="9.6081963"><ele>634.6</ele><time>2026-04-29T11:32:33.797Z</time></trkpt><trkpt lat="44.377673" lon="9.6082905"><ele>634.2</ele><time>2026-04-29T11:32:34.796Z</time></trkpt><trkpt lat="44.3775791" lon="9.6083617"><ele>633.8</ele><time>2026-04-29T11:32:35.797Z</time></trkpt><trkpt lat="44.3774787" lon="9.6083875"><ele>633.4</ele><time>2026-04-29T11:32:36.798Z</time></trkpt><trkpt lat="44.3773674" lon="9.6083683"><ele>633.0</ele><time>2026-04-29T11:32:37.798Z</time></trkpt><trkpt lat="44.3772582" lon="9.6083114"><ele>631.75</ele><time>2026-04-29T11:32:38.798Z</time></trkpt><trkpt lat="44.3771527" lon="9.6082548"><ele>630.5</ele><time>2026-04-29T11:32:39.798Z</time></trkpt><trkpt lat="44.3770306" lon="9.6082511"><ele>629.25</ele><time>2026-04-29T11:32:40.797Z</time></trkpt><trkpt lat="44.3768999" lon="9.6082992"><ele>628.0</ele><time>2026-04-29T11:32:41.797Z</time></trkpt><trkpt lat="44.3767787" lon="9.6083648"><ele>628.0</ele><time>2026-04-29T11:32:42.797Z</time></trkpt><trkpt lat="44.3766631" lon="9.6084033"><ele>628.0</ele><time>2026-04-29T11:32:43.797Z</time></trkpt><trkpt lat="44.3765514" lon="9.608393"><ele>628.0</ele><time>2026-04-29T11:32:44.797Z</time></trkpt><trkpt lat="44.3764574" lon="9.6083308"><ele>628.0</ele><time>2026-04-29T11:32:45.797Z</time></trkpt><trkpt lat="44.3763701" lon="9.6082177"><ele>627.6666666666667</ele><time>2026-04-29T11:32:46.797Z</time></trkpt><trkpt lat="44.3762736" lon="9.6080843"><ele>627.3333333333334</ele><time>2026-04-29T11:32:47.797Z</time></trkpt><trkpt lat="44.3761475" lon="9.6079771"><ele>627.0</ele><time>2026-04-29T11:32:48.798Z</time></trkpt><trkpt lat="44.3759938" lon="9.607888"><ele>623.0</ele><time>2026-04-29T11:32:49.798Z</time></trkpt><trkpt lat="44.3758222" lon="9.6077962"><ele>619.0</ele><time>2026-04-29T11:32:50.797Z</time></trkpt><trkpt lat="44.375646" lon="9.6076869"><ele>615.0</ele><time>2026-04-29T11:32:51.797Z</time></trkpt><trkpt lat="44.3754867" lon="9.6075762"><ele>615.0</ele><time>2026-04-29T11:32:52.797Z</time></trkpt><trkpt lat="44.3753488" lon="9.6074713"><ele>615.0</ele><time>2026-04-29T11:32:53.798Z</time></trkpt><trkpt lat="44.3752292" lon="9.6073963"><ele>615.0</ele><time>2026-04-29T11:32:54.798Z</time></trkpt><trkpt lat="44.3751028" lon="9.6073663"><ele>615.0</ele><time>2026-04-29T11:32:55.798Z</time></trkpt><trkpt lat="44.3749716" lon="9.6074372"><ele>615.0</ele><time>2026-04-29T11:32:56.797Z</time></trkpt><trkpt lat="44.3748458" lon="9.6075274"><ele>615.0</ele><time>2026-04-29T11:32:57.797Z</time></trkpt><trkpt lat="44.3747275" lon="9.607601"><ele>615.0</ele><time>2026-04-29T11:32:58.797Z</time></trkpt><trkpt lat="44.3746" lon="9.6076296"><ele>615.0</ele><time>2026-04-29T11:32:59.798Z</time></trkpt><trkpt lat="44.3744651" lon="9.6076041"><ele>612.5</ele><time>2026-04-29T11:33:00.798Z</time></trkpt><trkpt lat="44.3743354" lon="9.6075598"><ele>610.0</ele><time>2026-04-29T11:33:01.798Z</time></trkpt><trkpt lat="44.3742033" lon="9.6075673"><ele>607.5</ele><time>2026-04-29T11:33:02.797Z</time></trkpt><trkpt lat="44.3740726" lon="9.607627"><ele>605.0</ele><time>2026-04-29T11:33:03.797Z</time></trkpt><trkpt lat="44.3739538" lon="9.6077415"><ele>605.0</ele><time>2026-04-29T11:33:04.797Z</time></trkpt><trkpt lat="44.3738383" lon="9.6078891"><ele>605.0</ele><time>2026-04-29T11:33:05.798Z</time></trkpt><trkpt lat="44.3737254" lon="9.6080263"><ele>605.0</ele><time>2026-04-29T11:33:06.798Z</time></trkpt><trkpt lat="44.3736029" lon="9.6081357"><ele>605.0</ele><time>2026-04-29T11:33:07.798Z</time></trkpt><trkpt lat="44.3734802" lon="9.6082004"><ele>605.0</ele><time>2026-04-29T11:33:08.798Z</time></trkpt><trkpt lat="44.3733597" lon="9.6082172"><ele>605.0</ele><time>2026-04-29T11:33:09.797Z</time></trkpt><trkpt lat="44.3732366" lon="9.6081927"><ele>605.0</ele><time>2026-04-29T11:33:10.796Z</time></trkpt><trkpt lat="44.3731135" lon="9.6081304"><ele>604.0</ele><time>2026-04-29T11:33:11.797Z</time></trkpt><trkpt lat="44.3729883" lon="9.6080561"><ele>603.0</ele><time>2026-04-29T11:33:12.798Z</time></trkpt><trkpt lat="44.3728602" lon="9.6080217"><ele>602.0</ele><time>2026-04-29T11:33:13.797Z</time></trkpt><trkpt lat="44.3727223" lon="9.6080216"><ele>601.0</ele><time>2026-04-29T11:33:14.798Z</time></trkpt><trkpt lat="44.3725921" lon="9.6080444"><ele>601.0</ele><time>2026-04-29T11:33:15.798Z</time></trkpt><trkpt lat="44.3724684" lon="9.6080676"><ele>601.0</ele><time>2026-04-29T11:33:16.797Z</time></trkpt><trkpt lat="44.3723514" lon="9.6080651"><ele>601.0</ele><time>2026-04-29T11:33:17.798Z</time></trkpt><trkpt lat="44.3722451" lon="9.6080228"><ele>601.0</ele><time>2026-04-29T11:33:18.796Z</time></trkpt><trkpt lat="44.3721545" lon="9.6079533"><ele>602.0</ele><time>2026-04-29T11:33:19.797Z</time></trkpt><trkpt lat="44.3720862" lon="9.6078624"><ele>603.0</ele><time>2026-04-29T11:33:20.798Z</time></trkpt><trkpt lat="44.3720538" lon="9.6077552"><ele>604.0</ele><time>2026-04-29T11:33:21.796Z</time></trkpt><trkpt lat="44.372067" lon="9.6076489"><ele>605.0</ele><time>2026-04-29T11:33:22.798Z</time></trkpt><trkpt lat="44.372119" lon="9.6075777"><ele>606.0</ele><time>2026-04-29T11:33:23.797Z</time></trkpt><trkpt lat="44.3721904" lon="9.6075558"><ele>607.0</ele><time>2026-04-29T11:33:24.797Z</time></trkpt><trkpt lat="44.3722721" lon="9.6075889"><ele>602.6</ele><time>2026-04-29T11:33:25.797Z</time></trkpt><trkpt lat="44.3723624" lon="9.607656"><ele>598.2</ele><time>2026-04-29T11:33:26.797Z</time></trkpt><trkpt lat="44.3724684" lon="9.6077188"><ele>593.8</ele><time>2026-04-29T11:33:27.796Z</time></trkpt><trkpt lat="44.3725771" lon="9.6077388"><ele>589.4</ele><time>2026-04-29T11:33:28.797Z</time></trkpt><trkpt lat="44.372691" lon="9.6077063"><ele>585.0</ele><time>2026-04-29T11:33:29.797Z</time></trkpt><trkpt lat="44.3727825" lon="9.6076034"><ele>585.0</ele><time>2026-04-29T11:33:30.797Z</time></trkpt><trkpt lat="44.3728646" lon="9.607459"><ele>585.0</ele><time>2026-04-29T11:33:31.797Z</time></trkpt><trkpt lat="44.3729432" lon="9.6073032"><ele>585.0</ele><time>2026-04-29T11:33:32.797Z</time></trkpt><trkpt lat="44.3730068" lon="9.6071518"><ele>585.0</ele><time>2026-04-29T11:33:33.797Z</time></trkpt><trkpt lat="44.3730344" lon="9.606985"><ele>582.5</ele><time>2026-04-29T11:33:34.796Z</time></trkpt><trkpt lat="44.3730254" lon="9.6068133"><ele>580.0</ele><time>2026-04-29T11:33:35.798Z</time></trkpt><trkpt lat="44.37297" lon="9.6066387"><ele>577.5</ele><time>2026-04-29T11:33:36.797Z</time></trkpt><trkpt lat="44.3728966" lon="9.6064669"><ele>575.0</ele><time>2026-04-29T11:33:37.798Z</time></trkpt><trkpt lat="44.3728246" lon="9.606307"><ele>573.2</ele><time>2026-04-29T11:33:38.797Z</time></trkpt><trkpt lat="44.3727656" lon="9.6061559"><ele>571.4</ele><time>2026-04-29T11:33:39.798Z</time></trkpt><trkpt lat="44.3727363" lon="9.6060111"><ele>569.6</ele><time>2026-04-29T11:33:40.798Z</time></trkpt><trkpt lat="44.3727485" lon="9.6058721"><ele>567.8</ele><time>2026-04-29T11:33:41.797Z</time></trkpt><trkpt lat="44.3727997" lon="9.6057552"><ele>566.0</ele><time>2026-04-29T11:33:42.797Z</time></trkpt><trkpt lat="44.3728854" lon="9.6056928"><ele>566.0</ele><time>2026-04-29T11:33:43.797Z</time></trkpt><trkpt lat="44.3729875" lon="9.6056944"><ele>566.0</ele><time>2026-04-29T11:33:44.797Z</time></trkpt><trkpt lat="44.3730932" lon="9.60577"><ele>566.0</ele><time>2026-04-29T11:33:45.797Z</time></trkpt><trkpt lat="44.3731784" lon="9.6058878"><ele>566.0</ele><time>2026-04-29T11:33:46.797Z</time></trkpt><trkpt lat="44.3732193" lon="9.6060359"><ele>568.25</ele><time>2026-04-29T11:33:47.797Z</time></trkpt><trkpt lat="44.3732374" lon="9.6062045"><ele>570.5</ele><time>2026-04-29T11:33:48.797Z</time></trkpt><trkpt lat="44.3732685" lon="9.6063545"><ele>572.75</ele><time>2026-04-29T11:33:49.797Z</time></trkpt><trkpt lat="44.3733429" lon="9.6064563"><ele>575.0</ele><time>2026-04-29T11:33:50.798Z</time></trkpt><trkpt lat="44.3734508" lon="9.6065176"><ele>575.0</ele><time>2026-04-29T11:33:51.798Z</time></trkpt><trkpt lat="44.3735798" lon="9.6065405"><ele>575.0</ele><time>2026-04-29T11:33:52.798Z</time></trkpt><trkpt lat="44.3737251" lon="9.6065358"><ele>575.0</ele><time>2026-04-29T11:33:53.798Z</time></trkpt><trkpt lat="44.3738586" lon="9.6065067"><ele>575.0</ele><time>2026-04-29T11:33:54.797Z</time></trkpt><trkpt lat="44.3739842" lon="9.6064207"><ele>576.6666666666666</ele><time>2026-04-29T11:33:55.797Z</time></trkpt><trkpt lat="44.3740979" lon="9.6062795"><ele>578.3333333333334</ele><time>2026-04-29T11:33:56.798Z</time></trkpt><trkpt lat="44.3742156" lon="9.6061116"><ele>580.0</ele><time>2026-04-29T11:33:57.798Z</time></trkpt><trkpt lat="44.3743426" lon="9.6059292"><ele>578.0</ele><time>2026-04-29T11:33:58.797Z</time></trkpt><trkpt lat="44.3744729" lon="9.6057547"><ele>576.0</ele><time>2026-04-29T11:33:59.797Z</time></trkpt><trkpt lat="44.3746048" lon="9.605597"><ele>574.0</ele><time>2026-04-29T11:34:00.797Z</time></trkpt><trkpt lat="44.3747389" lon="9.6054585"><ele>574.0</ele><time>2026-04-29T11:34:01.798Z</time></trkpt><trkpt lat="44.3748736" lon="9.6053561"><ele>574.0</ele><time>2026-04-29T11:34:02.798Z</time></trkpt><trkpt lat="44.3750155" lon="9.6052948"><ele>574.0</ele><time>2026-04-29T11:34:03.798Z</time></trkpt><trkpt lat="44.3751517" lon="9.6052432"><ele>574.0</ele><time>2026-04-29T11:34:04.797Z</time></trkpt><trkpt lat="44.3752691" lon="9.6051853"><ele>573.8</ele><time>2026-04-29T11:34:05.797Z</time></trkpt><trkpt lat="44.3753713" lon="9.605155"><ele>573.5999999999999</ele><time>2026-04-29T11:34:06.798Z</time></trkpt><trkpt lat="44.3754614" lon="9.6051857"><ele>573.4</ele><time>2026-04-29T11:34:07.798Z</time></trkpt><trkpt lat="44.3755331" lon="9.6052713"><ele>573.1999999999999</ele><time>2026-04-29T11:34:08.797Z</time></trkpt><trkpt lat="44.3756026" lon="9.6053806"><ele>573.0</ele><time>2026-04-29T11:34:09.797Z</time></trkpt><trkpt lat="44.3756867" lon="9.6054447"><ele>573.0</ele><time>2026-04-29T11:34:10.796Z</time></trkpt><trkpt lat="44.3757911" lon="9.6054239"><ele>573.0</ele><time>2026-04-29T11:34:11.797Z</time></trkpt><trkpt lat="44.3759018" lon="9.6053667"><ele>573.0</ele><time>2026-04-29T11:34:12.798Z</time></trkpt><trkpt lat="44.3760271" lon="9.6052577"><ele>573.0</ele><time>2026-04-29T11:34:13.797Z</time></trkpt><trkpt lat="44.3761428" lon="9.605127"><ele>568.4</ele><time>2026-04-29T11:34:14.797Z</time></trkpt><trkpt lat="44.3762406" lon="9.6049951"><ele>563.8</ele><time>2026-04-29T11:34:15.798Z</time></trkpt><trkpt lat="44.3763285" lon="9.6048818"><ele>559.2</ele><time>2026-04-29T11:34:16.797Z</time></trkpt><trkpt lat="44.3764136" lon="9.6048116"><ele>554.6</ele><time>2026-04-29T11:34:17.797Z</time></trkpt><trkpt lat="44.3765027" lon="9.6047942"><ele>550.0</ele><time>2026-04-29T11:34:18.797Z</time></trkpt><trkpt lat="44.3766098" lon="9.6048292"><ele>550.0</ele><time>2026-04-29T11:34:19.797Z</time></trkpt><trkpt lat="44.3767293" lon="9.6048783"><ele>550.0</ele><time>2026-04-29T11:34:20.797Z</time></trkpt><trkpt lat="44.3768291" lon="9.604937"><ele>550.0</ele><time>2026-04-29T11:34:21.797Z</time></trkpt><trkpt lat="44.3769122" lon="9.6050444"><ele>550.0</ele><time>2026-04-29T11:34:22.797Z</time></trkpt><trkpt lat="44.3769736" lon="9.6051732"><ele>550.0</ele><time>2026-04-29T11:34:23.797Z</time></trkpt><trkpt lat="44.377048" lon="9.6052798"><ele>550.0</ele><time>2026-04-29T11:34:24.797Z</time></trkpt><trkpt lat="44.3771438" lon="9.6053332"><ele>550.0</ele><time>2026-04-29T11:34:25.797Z</time></trkpt><trkpt lat="44.3772426" lon="9.6053228"><ele>550.0</ele><time>2026-04-29T11:34:26.797Z</time></trkpt><trkpt lat="44.3773215" lon="9.605252"><ele>550.0</ele><time>2026-04-29T11:34:27.797Z</time></trkpt><trkpt lat="44.3773682" lon="9.6051312"><ele>550.2</ele><time>2026-04-29T11:34:28.798Z</time></trkpt><trkpt lat="44.3773727" lon="9.604986"><ele>550.4</ele><time>2026-04-29T11:34:29.798Z</time></trkpt><trkpt lat="44.3773565" lon="9.604848"><ele>550.6</ele><time>2026-04-29T11:34:30.798Z</time></trkpt><trkpt lat="44.3773569" lon="9.6047183"><ele>550.8</ele><time>2026-04-29T11:34:31.798Z</time></trkpt><trkpt lat="44.3773897" lon="9.6046013"><ele>551.0</ele><time>2026-04-29T11:34:32.798Z</time></trkpt><trkpt lat="44.3774409" lon="9.6045038"><ele>548.8</ele><time>2026-04-29T11:34:33.797Z</time></trkpt><trkpt lat="44.3774881" lon="9.6043918"><ele>546.6</ele><time>2026-04-29T11:34:34.797Z</time></trkpt><trkpt lat="44.3774941" lon="9.6042535"><ele>544.4</ele><time>2026-04-29T11:34:35.797Z</time></trkpt><trkpt lat="44.3774702" lon="9.604114"><ele>542.2</ele><time>2026-04-29T11:34:36.796Z</time></trkpt><trkpt lat="44.3774595" lon="9.6039727"><ele>540.0</ele><time>2026-04-29T11:34:37.798Z</time></trkpt><trkpt lat="44.3774858" lon="9.6038288"><ele>540.0</ele><time>2026-04-29T11:34:38.798Z</time></trkpt><trkpt lat="44.3775486" lon="9.6036789"><ele>540.0</ele><time>2026-04-29T11:34:39.797Z</time></trkpt><trkpt lat="44.3776306" lon="9.6035402"><ele>540.0</ele><time>2026-04-29T11:34:40.797Z</time></trkpt><trkpt lat="44.3777124" lon="9.6034308"><ele>540.0</ele><time>2026-04-29T11:34:41.798Z</time></trkpt><trkpt lat="44.3778067" lon="9.6033782"><ele>540.8</ele><time>2026-04-29T11:34:42.798Z</time></trkpt><trkpt lat="44.3779043" lon="9.603379"><ele>541.6</ele><time>2026-04-29T11:34:43.797Z</time></trkpt><trkpt lat="44.3780044" lon="9.6034075"><ele>542.4</ele><time>2026-04-29T11:34:44.797Z</time></trkpt><trkpt lat="44.3780944" lon="9.6033777"><ele>543.2</ele><time>2026-04-29T11:34:45.797Z</time></trkpt><trkpt lat="44.3781638" lon="9.603292"><ele>544.0</ele><time>2026-04-29T11:34:46.796Z</time></trkpt><trkpt lat="44.3781988" lon="9.6031625"><ele>544.0</ele><time>2026-04-29T11:34:47.797Z</time></trkpt><trkpt lat="44.3781879" lon="9.6030139"><ele>544.0</ele><time>2026-04-29T11:34:48.798Z</time></trkpt><trkpt lat="44.3781836" lon="9.6028485"><ele>544.0</ele><time>2026-04-29T11:34:49.798Z</time></trkpt><trkpt lat="44.3782143" lon="9.6026724"><ele>544.0</ele><time>2026-04-29T11:34:50.798Z</time></trkpt><trkpt lat="44.3782789" lon="9.602503"><ele>539.75</ele><time>2026-04-29T11:34:51.798Z</time></trkpt><trkpt lat="44.3783679" lon="9.6023563"><ele>535.5</ele><time>2026-04-29T11:34:52.796Z</time></trkpt><trkpt lat="44.3784808" lon="9.6022686"><ele>531.25</ele><time>2026-04-29T11:34:53.797Z</time></trkpt><trkpt lat="44.3786113" lon="9.6022125"><ele>527.0</ele><time>2026-04-29T11:34:54.798Z</time></trkpt><trkpt lat="44.3787665" lon="9.6021699"><ele>527.5</ele><time>2026-04-29T11:34:55.796Z</time></trkpt><trkpt lat="44.3789267" lon="9.602112"><ele>528.0</ele><time>2026-04-29T11:34:56.796Z</time></trkpt><trkpt lat="44.3790739" lon="9.6020642"><ele>528.5</ele><time>2026-04-29T11:34:57.796Z</time></trkpt><trkpt lat="44.3792047" lon="9.602036"><ele>529.0</ele><time>2026-04-29T11:34:58.797Z</time></trkpt><trkpt lat="44.3793291" lon="9.6020497"><ele>529.0</ele><time>2026-04-29T11:34:59.798Z</time></trkpt><trkpt lat="44.3794526" lon="9.6021204"><ele>529.0</ele><time>2026-04-29T11:35:00.796Z</time></trkpt><trkpt lat="44.3795654" lon="9.6022474"><ele>529.0</ele><time>2026-04-29T11:35:01.796Z</time></trkpt><trkpt lat="44.3796786" lon="9.6023895"><ele>529.0</ele><time>2026-04-29T11:35:02.797Z</time></trkpt><trkpt lat="44.3797937" lon="9.6025222"><ele>529.5</ele><time>2026-04-29T11:35:03.798Z</time></trkpt><trkpt lat="44.3799179" lon="9.6026171"><ele>530.0</ele><time>2026-04-29T11:35:04.797Z</time></trkpt><trkpt lat="44.3800412" lon="9.6026912"><ele>530.5</ele><time>2026-04-29T11:35:05.797Z</time></trkpt><trkpt lat="44.3801429" lon="9.602775"><ele>531.0</ele><time>2026-04-29T11:35:06.797Z</time></trkpt><trkpt lat="44.380215" lon="9.6029096"><ele>531.0</ele><time>2026-04-29T11:35:07.798Z</time></trkpt><trkpt lat="44.3802675" lon="9.6030856"><ele>531.0</ele><time>2026-04-29T11:35:08.798Z</time></trkpt><trkpt lat="44.3803133" lon="9.603258"><ele>531.0</ele><time>2026-04-29T11:35:09.796Z</time></trkpt><trkpt lat="44.3803725" lon="9.6034036"><ele>531.0</ele><time>2026-04-29T11:35:10.797Z</time></trkpt><trkpt lat="44.3804417" lon="9.6035178"><ele>525.75</ele><time>2026-04-29T11:35:11.796Z</time></trkpt><trkpt lat="44.380538" lon="9.6035553"><ele>520.5</ele><time>2026-04-29T11:35:12.798Z</time></trkpt><trkpt lat="44.3806414" lon="9.6035397"><ele>515.25</ele><time>2026-04-29T11:35:13.798Z</time></trkpt><trkpt lat="44.3807549" lon="9.6034708"><ele>510.0</ele><time>2026-04-29T11:35:14.798Z</time></trkpt><trkpt lat="44.3808815" lon="9.6033626"><ele>510.0</ele><time>2026-04-29T11:35:15.797Z</time></trkpt><trkpt lat="44.3810093" lon="9.6032281"><ele>510.0</ele><time>2026-04-29T11:35:16.797Z</time></trkpt><trkpt lat="44.381117" lon="9.6030645"><ele>510.0</ele><time>2026-04-29T11:35:17.797Z</time></trkpt><trkpt lat="44.3812058" lon="9.6028701"><ele>508.66666666666663</ele><time>2026-04-29T11:35:18.796Z</time></trkpt><trkpt lat="44.381288" lon="9.6026636"><ele>507.3333333333333</ele><time>2026-04-29T11:35:19.796Z</time></trkpt><trkpt lat="44.3813474" lon="9.6024607"><ele>506.0</ele><time>2026-04-29T11:35:20.797Z</time></trkpt><trkpt lat="44.3813757" lon="9.6022608"><ele>506.0</ele><time>2026-04-29T11:35:21.797Z</time></trkpt><trkpt lat="44.3813903" lon="9.6020509"><ele>506.0</ele><time>2026-04-29T11:35:22.797Z</time></trkpt><trkpt lat="44.3813877" lon="9.6018267"><ele>506.0</ele><time>2026-04-29T11:35:23.797Z</time></trkpt><trkpt lat="44.3813793" lon="9.6015951"><ele>504.0</ele><time>2026-04-29T11:35:24.796Z</time></trkpt><trkpt lat="44.3813664" lon="9.6013737"><ele>502.0</ele><time>2026-04-29T11:35:25.798Z</time></trkpt><trkpt lat="44.3813381" lon="9.6011586"><ele>500.0</ele><time>2026-04-29T11:35:26.797Z</time></trkpt><trkpt lat="44.3812872" lon="9.6009543"><ele>492.0</ele><time>2026-04-29T11:35:27.798Z</time></trkpt><trkpt lat="44.3812218" lon="9.6007638"><ele>484.0</ele><time>2026-04-29T11:35:28.798Z</time></trkpt><trkpt lat="44.381165" lon="9.6005765"><ele>476.0</ele><time>2026-04-29T11:35:29.797Z</time></trkpt><trkpt lat="44.3811389" lon="9.600417"><ele>468.0</ele><time>2026-04-29T11:35:30.798Z</time></trkpt><trkpt lat="44.3811482" lon="9.6002679"><ele>466.2</ele><time>2026-04-29T11:35:31.798Z</time></trkpt><trkpt lat="44.3812014" lon="9.6001554"><ele>464.4</ele><time>2026-04-29T11:35:32.797Z</time></trkpt><trkpt lat="44.3812829" lon="9.6000884"><ele>462.59999999999997</ele><time>2026-04-29T11:35:33.797Z</time></trkpt><trkpt lat="44.3813832" lon="9.6000825"><ele>460.79999999999995</ele><time>2026-04-29T11:35:34.797Z</time></trkpt><trkpt lat="44.3815169" lon="9.6001097"><ele>459.0</ele><time>2026-04-29T11:35:35.796Z</time></trkpt><trkpt lat="44.3816428" lon="9.6001331"><ele>465.0</ele><time>2026-04-29T11:35:36.797Z</time></trkpt><trkpt lat="44.3818372" lon="9.6001812"><ele>471.0</ele><time>2026-04-29T11:35:37.797Z</time></trkpt><trkpt lat="44.3819975" lon="9.6002382"><ele>477.0</ele><time>2026-04-29T11:35:38.797Z</time></trkpt><trkpt lat="44.3821529" lon="9.6003183"><ele>479.0</ele><time>2026-04-29T11:35:39.796Z</time></trkpt><trkpt lat="44.3822796" lon="9.6003971"><ele>481.0</ele><time>2026-04-29T11:35:40.796Z</time></trkpt><trkpt lat="44.3823832" lon="9.6004746"><ele>483.0</ele><time>2026-04-29T11:35:41.796Z</time></trkpt><trkpt lat="44.3824819" lon="9.6005281"><ele>485.0</ele><time>2026-04-29T11:35:42.797Z</time></trkpt><trkpt lat="44.3825797" lon="9.6005407"><ele>485.0</ele><time>2026-04-29T11:35:43.797Z</time></trkpt><trkpt lat="44.3826653" lon="9.6004982"><ele>485.0</ele><time>2026-04-29T11:35:44.796Z</time></trkpt><trkpt lat="44.3827263" lon="9.6004018"><ele>485.0</ele><time>2026-04-29T11:35:45.795Z</time></trkpt><trkpt lat="44.3827436" lon="9.6002832"><ele>485.0</ele><time>2026-04-29T11:35:46.795Z</time></trkpt><trkpt lat="44.3827162" lon="9.6001616"><ele>485.0</ele><time>2026-04-29T11:35:47.796Z</time></trkpt><trkpt lat="44.3826396" lon="9.600071"><ele>483.0</ele><time>2026-04-29T11:35:48.796Z</time></trkpt><trkpt lat="44.3825336" lon="9.6000355"><ele>481.0</ele><time>2026-04-29T11:35:49.796Z</time></trkpt><trkpt lat="44.3824169" lon="9.6000471"><ele>479.0</ele><time>2026-04-29T11:35:50.796Z</time></trkpt><trkpt lat="44.3822929" lon="9.6000295"><ele>477.0</ele><time>2026-04-29T11:35:51.797Z</time></trkpt><trkpt lat="44.3821623" lon="9.5999594"><ele>477.0</ele><time>2026-04-29T11:35:52.797Z</time></trkpt><trkpt lat="44.3820431" lon="9.5998857"><ele>477.00000000000006</ele><time>2026-04-29T11:35:53.797Z</time></trkpt><trkpt lat="44.3819458" lon="9.5998152"><ele>477.00000000000006</ele><time>2026-04-29T11:35:54.796Z</time></trkpt><trkpt lat="44.3818742" lon="9.5997201"><ele>477.0</ele><time>2026-04-29T11:35:55.796Z</time></trkpt><trkpt lat="44.3818461" lon="9.5996011"><ele>477.0</ele><time>2026-04-29T11:35:56.796Z</time></trkpt><trkpt lat="44.3818661" lon="9.5994873"><ele>473.0</ele><time>2026-04-29T11:35:57.795Z</time></trkpt><trkpt lat="44.3819245" lon="9.5994091"><ele>469.00000000000006</ele><time>2026-04-29T11:35:58.796Z</time></trkpt><trkpt lat="44.3820108" lon="9.5993745"><ele>465.00000000000006</ele><time>2026-04-29T11:35:59.796Z</time></trkpt><trkpt lat="44.3821176" lon="9.5993801"><ele>461.0</ele><time>2026-04-29T11:36:00.797Z</time></trkpt><trkpt lat="44.3822424" lon="9.5993996"><ele>457.0</ele><time>2026-04-29T11:36:01.797Z</time></trkpt><trkpt lat="44.382397" lon="9.5994175"><ele>456.0</ele><time>2026-04-29T11:36:02.796Z</time></trkpt><trkpt lat="44.3825647" lon="9.5994364"><ele>455.0</ele><time>2026-04-29T11:36:03.797Z</time></trkpt><trkpt lat="44.3827237" lon="9.5994526"><ele>454.0</ele><time>2026-04-29T11:36:04.796Z</time></trkpt><trkpt lat="44.3828767" lon="9.5994794"><ele>457.33333333333337</ele><time>2026-04-29T11:36:05.795Z</time></trkpt><trkpt lat="44.3830154" lon="9.5995549"><ele>460.66666666666663</ele><time>2026-04-29T11:36:06.796Z</time></trkpt><trkpt lat="44.3831526" lon="9.5996737"><ele>464.0</ele><time>2026-04-29T11:36:07.795Z</time></trkpt><trkpt lat="44.3832876" lon="9.5998187"><ele>464.0</ele><time>2026-04-29T11:36:08.796Z</time></trkpt><trkpt lat="44.3834304" lon="9.5999786"><ele>464.0</ele><time>2026-04-29T11:36:09.797Z</time></trkpt><trkpt lat="44.3835801" lon="9.60015"><ele>464.0</ele><time>2026-04-29T11:36:10.797Z</time></trkpt><trkpt lat="44.3837267" lon="9.6003119"><ele>465.66666666666663</ele><time>2026-04-29T11:36:11.795Z</time></trkpt><trkpt lat="44.3838725" lon="9.6004703"><ele>467.33333333333337</ele><time>2026-04-29T11:36:12.796Z</time></trkpt><trkpt lat="44.3840128" lon="9.6006037"><ele>469.0</ele><time>2026-04-29T11:36:13.797Z</time></trkpt><trkpt lat="44.3841385" lon="9.6007108"><ele>469.0</ele><time>2026-04-29T11:36:14.797Z</time></trkpt><trkpt lat="44.384254" lon="9.6007915"><ele>469.0</ele><time>2026-04-29T11:36:15.796Z</time></trkpt><trkpt lat="44.3843665" lon="9.6008452"><ele>469.0</ele><time>2026-04-29T11:36:16.796Z</time></trkpt><trkpt lat="44.3844726" lon="9.6008351"><ele>469.0</ele><time>2026-04-29T11:36:17.796Z</time></trkpt><trkpt lat="44.3845692" lon="9.6007733"><ele>469.0</ele><time>2026-04-29T11:36:18.797Z</time></trkpt><trkpt lat="44.3846552" lon="9.600661"><ele>469.0</ele><time>2026-04-29T11:36:19.796Z</time></trkpt><trkpt lat="44.384757" lon="9.6005409"><ele>469.0</ele><time>2026-04-29T11:36:20.796Z</time></trkpt><trkpt lat="44.3848965" lon="9.6004242"><ele>469.0</ele><time>2026-04-29T11:36:21.797Z</time></trkpt><trkpt lat="44.3850464" lon="9.6003207"><ele>458.6666666666667</ele><time>2026-04-29T11:36:22.796Z</time></trkpt><trkpt lat="44.3852041" lon="9.6002452"><ele>448.33333333333337</ele><time>2026-04-29T11:36:23.796Z</time></trkpt><trkpt lat="44.3853753" lon="9.6001943"><ele>438.0</ele><time>2026-04-29T11:36:24.795Z</time></trkpt><trkpt lat="44.3855364" lon="9.6001604"><ele>437.75</ele><time>2026-04-29T11:36:25.797Z</time></trkpt><trkpt lat="44.3856798" lon="9.6001344"><ele>437.5</ele><time>2026-04-29T11:36:26.797Z</time></trkpt><trkpt lat="44.3858137" lon="9.6001341"><ele>437.25</ele><time>2026-04-29T11:36:27.797Z</time></trkpt><trkpt lat="44.3859401" lon="9.600186"><ele>437.0</ele><time>2026-04-29T11:36:28.797Z</time></trkpt><trkpt lat="44.3860447" lon="9.6002857"><ele>444.25</ele><time>2026-04-29T11:36:29.796Z</time></trkpt><trkpt lat="44.3861302" lon="9.6004344"><ele>451.5</ele><time>2026-04-29T11:36:30.796Z</time></trkpt><trkpt lat="44.3861946" lon="9.6006179"><ele>458.75</ele><time>2026-04-29T11:36:31.796Z</time></trkpt><trkpt lat="44.3862559" lon="9.6008067"><ele>466.0</ele><time>2026-04-29T11:36:32.796Z</time></trkpt><trkpt lat="44.3863276" lon="9.6009751"><ele>463.25</ele><time>2026-04-29T11:36:33.796Z</time></trkpt><trkpt lat="44.3864084" lon="9.6011151"><ele>460.5</ele><time>2026-04-29T11:36:34.796Z</time></trkpt><trkpt lat="44.3865135" lon="9.6012195"><ele>457.75</ele><time>2026-04-29T11:36:35.796Z</time></trkpt><trkpt lat="44.3866301" lon="9.6012981"><ele>455.0</ele><time>2026-04-29T11:36:36.795Z</time></trkpt><trkpt lat="44.386733" lon="9.601358"><ele>454.99999999999994</ele><time>2026-04-29T11:36:37.797Z</time></trkpt><trkpt lat="44.3868214" lon="9.6014197"><ele>455.0</ele><time>2026-04-29T11:36:38.795Z</time></trkpt><trkpt lat="44.3869033" lon="9.601455"><ele>455.0</ele><time>2026-04-29T11:36:39.796Z</time></trkpt><trkpt lat="44.3869764" lon="9.6014408"><ele>455.0</ele><time>2026-04-29T11:36:40.797Z</time></trkpt><trkpt lat="44.3870205" lon="9.6013756"><ele>454.99999999999994</ele><time>2026-04-29T11:36:41.796Z</time></trkpt><trkpt lat="44.387026" lon="9.6012857"><ele>455.0</ele><time>2026-04-29T11:36:42.795Z</time></trkpt><trkpt lat="44.3869956" lon="9.6011862"><ele>451.8333333333333</ele><time>2026-04-29T11:36:43.797Z</time></trkpt><trkpt lat="44.3869287" lon="9.6011043"><ele>448.66666666666663</ele><time>2026-04-29T11:36:44.796Z</time></trkpt><trkpt lat="44.3868464" lon="9.6010574"><ele>445.5</ele><time>2026-04-29T11:36:45.796Z</time></trkpt><trkpt lat="44.3867611" lon="9.6010459"><ele>442.33333333333337</ele><time>2026-04-29T11:36:46.796Z</time></trkpt><trkpt lat="44.3866743" lon="9.6010436"><ele>439.1666666666667</ele><time>2026-04-29T11:36:47.796Z</time></trkpt><trkpt lat="44.3865894" lon="9.6009925"><ele>436.0</ele><time>2026-04-29T11:36:48.797Z</time></trkpt><trkpt lat="44.3865165" lon="9.6008988"><ele>436.0</ele><time>2026-04-29T11:36:49.796Z</time></trkpt><trkpt lat="44.3864665" lon="9.6007603"><ele>436.0</ele><time>2026-04-29T11:36:50.795Z</time></trkpt><trkpt lat="44.3864441" lon="9.6005849"><ele>436.0</ele><time>2026-04-29T11:36:51.796Z</time></trkpt><trkpt lat="44.386421" lon="9.6003876"><ele>436.0</ele><time>2026-04-29T11:36:52.796Z</time></trkpt><trkpt lat="44.3863874" lon="9.6001879"><ele>436.25</ele><time>2026-04-29T11:36:53.797Z</time></trkpt><trkpt lat="44.386345" lon="9.6000035"><ele>436.5</ele><time>2026-04-29T11:36:54.797Z</time></trkpt><trkpt lat="44.3862902" lon="9.5998336"><ele>436.75</ele><time>2026-04-29T11:36:55.796Z</time></trkpt><trkpt lat="44.3862045" lon="9.5997038"><ele>437.0</ele><time>2026-04-29T11:36:56.796Z</time></trkpt><trkpt lat="44.3860798" lon="9.5996144"><ele>437.0</ele><time>2026-04-29T11:36:57.796Z</time></trkpt><trkpt lat="44.3859522" lon="9.5995502"><ele>437.0</ele><time>2026-04-29T11:36:58.796Z</time></trkpt><trkpt lat="44.3858271" lon="9.5995247"><ele>437.0</ele><time>2026-04-29T11:36:59.796Z</time></trkpt><trkpt lat="44.3857207" lon="9.5995312"><ele>437.0</ele><time>2026-04-29T11:37:00.795Z</time></trkpt><trkpt lat="44.3856335" lon="9.5995519"><ele>436.99999999999994</ele><time>2026-04-29T11:37:01.797Z</time></trkpt><trkpt lat="44.385561" lon="9.5995746"><ele>437.0</ele><time>2026-04-29T11:37:02.796Z</time></trkpt><trkpt lat="44.3854565" lon="9.5996179"><ele>437.0</ele><time>2026-04-29T11:37:04.796Z</time></trkpt><trkpt lat="44.3853893" lon="9.5996439"><ele>437.0</ele><time>2026-04-29T11:37:06.797Z</time></trkpt><trkpt lat="44.3853162" lon="9.5996637"><ele>436.99999999999994</ele><time>2026-04-29T11:38:36.797Z</time></trkpt><trkpt lat="44.3852495" lon="9.5996835"><ele>437.0</ele><time>2026-04-29T11:38:37.797Z</time></trkpt><trkpt lat="44.3851356" lon="9.5996995"><ele>437.20000000000005</ele><time>2026-04-29T11:38:39.796Z</time></trkpt><trkpt lat="44.3850756" lon="9.5996554"><ele>437.40000000000003</ele><time>2026-04-29T11:38:40.796Z</time></trkpt><trkpt lat="44.3850169" lon="9.5995724"><ele>437.59999999999997</ele><time>2026-04-29T11:38:41.797Z</time></trkpt><trkpt lat="44.3849526" lon="9.5994586"><ele>437.79999999999995</ele><time>2026-04-29T11:38:42.796Z</time></trkpt><trkpt lat="44.3848764" lon="9.5993194"><ele>438.0</ele><time>2026-04-29T11:38:43.797Z</time></trkpt><trkpt lat="44.3847969" lon="9.599185"><ele>435.25</ele><time>2026-04-29T11:38:44.796Z</time></trkpt><trkpt lat="44.3846988" lon="9.5990395"><ele>432.5</ele><time>2026-04-29T11:38:45.796Z</time></trkpt><trkpt lat="44.3845918" lon="9.598893"><ele>429.75</ele><time>2026-04-29T11:38:46.797Z</time></trkpt><trkpt lat="44.3844886" lon="9.5987636"><ele>427.0</ele><time>2026-04-29T11:38:47.796Z</time></trkpt><trkpt lat="44.384392" lon="9.5986465"><ele>420.5</ele><time>2026-04-29T11:38:48.795Z</time></trkpt><trkpt lat="44.3843056" lon="9.5985342"><ele>414.0</ele><time>2026-04-29T11:38:49.796Z</time></trkpt><trkpt lat="44.384216" lon="9.5984133"><ele>407.5</ele><time>2026-04-29T11:38:50.797Z</time></trkpt><trkpt lat="44.3841064" lon="9.5983004"><ele>401.0</ele><time>2026-04-29T11:38:51.797Z</time></trkpt><trkpt lat="44.3839798" lon="9.5981873"><ele>408.0</ele><time>2026-04-29T11:38:52.796Z</time></trkpt><trkpt lat="44.383837" lon="9.5980731"><ele>415.0</ele><time>2026-04-29T11:38:53.796Z</time></trkpt><trkpt lat="44.3836848" lon="9.5979715"><ele>422.0</ele><time>2026-04-29T11:38:54.796Z</time></trkpt><trkpt lat="44.38354" lon="9.5978881"><ele>415.25</ele><time>2026-04-29T11:38:55.795Z</time></trkpt><trkpt lat="44.3834044" lon="9.5977908"><ele>408.5</ele><time>2026-04-29T11:38:56.796Z</time></trkpt><trkpt lat="44.3832767" lon="9.5976901"><ele>401.75</ele><time>2026-04-29T11:38:57.796Z</time></trkpt><trkpt lat="44.3831588" lon="9.5975891"><ele>395.0</ele><time>2026-04-29T11:38:58.796Z</time></trkpt><trkpt lat="44.3830503" lon="9.5974698"><ele>400.3333333333333</ele><time>2026-04-29T11:38:59.796Z</time></trkpt><trkpt lat="44.3829484" lon="9.5973368"><ele>405.66666666666663</ele><time>2026-04-29T11:39:00.796Z</time></trkpt><trkpt lat="44.3828417" lon="9.5971936"><ele>411.0</ele><time>2026-04-29T11:39:01.796Z</time></trkpt><trkpt lat="44.3827112" lon="9.5970336"><ele>402.33333333333337</ele><time>2026-04-29T11:39:02.797Z</time></trkpt><trkpt lat="44.382589" lon="9.5969015"><ele>393.6666666666667</ele><time>2026-04-29T11:39:03.796Z</time></trkpt><trkpt lat="44.3824493" lon="9.5967911"><ele>385.0</ele><time>2026-04-29T11:39:04.796Z</time></trkpt><trkpt lat="44.3822865" lon="9.596684"><ele>385.6666666666667</ele><time>2026-04-29T11:39:05.796Z</time></trkpt><trkpt lat="44.3821166" lon="9.5965736"><ele>386.33333333333337</ele><time>2026-04-29T11:39:06.797Z</time></trkpt><trkpt lat="44.3819565" lon="9.5964776"><ele>387.0</ele><time>2026-04-29T11:39:07.797Z</time></trkpt><trkpt lat="44.3817934" lon="9.5964007"><ele>387.0</ele><time>2026-04-29T11:39:08.796Z</time></trkpt><trkpt lat="44.3816181" lon="9.5963512"><ele>387.0</ele><time>2026-04-29T11:39:09.796Z</time></trkpt><trkpt lat="44.3814399" lon="9.5963301"><ele>387.0</ele><time>2026-04-29T11:39:10.796Z</time></trkpt><trkpt lat="44.3812705" lon="9.5963248"><ele>386.66666666666663</ele><time>2026-04-29T11:39:11.797Z</time></trkpt><trkpt lat="44.3811027" lon="9.5963247"><ele>386.3333333333333</ele><time>2026-04-29T11:39:12.796Z</time></trkpt><trkpt lat="44.3809426" lon="9.5963156"><ele>386.0</ele><time>2026-04-29T11:39:13.795Z</time></trkpt><trkpt lat="44.3807883" lon="9.5963073"><ele>386.0</ele><time>2026-04-29T11:39:14.796Z</time></trkpt><trkpt lat="44.3806316" lon="9.596332"><ele>386.0</ele><time>2026-04-29T11:39:15.795Z</time></trkpt><trkpt lat="44.3804673" lon="9.5963776"><ele>386.0</ele><time>2026-04-29T11:39:16.797Z</time></trkpt><trkpt lat="44.3802989" lon="9.596426"><ele>386.3333333333333</ele><time>2026-04-29T11:39:17.797Z</time></trkpt><trkpt lat="44.3801296" lon="9.5964521"><ele>386.66666666666663</ele><time>2026-04-29T11:39:18.796Z</time></trkpt><trkpt lat="44.3799557" lon="9.5964546"><ele>387.0</ele><time>2026-04-29T11:39:19.796Z</time></trkpt><trkpt lat="44.3797879" lon="9.5964279"><ele>384.6666666666667</ele><time>2026-04-29T11:39:20.795Z</time></trkpt><trkpt lat="44.3796338" lon="9.5963692"><ele>382.33333333333337</ele><time>2026-04-29T11:39:21.797Z</time></trkpt><trkpt lat="44.3794892" lon="9.596281"><ele>380.0</ele><time>2026-04-29T11:39:22.796Z</time></trkpt><trkpt lat="44.3793458" lon="9.5961715"><ele>375.0</ele><time>2026-04-29T11:39:23.796Z</time></trkpt><trkpt lat="44.3791993" lon="9.5960637"><ele>370.0</ele><time>2026-04-29T11:39:24.795Z</time></trkpt><trkpt lat="44.3790546" lon="9.5959701"><ele>365.0</ele><time>2026-04-29T11:39:25.797Z</time></trkpt><trkpt lat="44.3789107" lon="9.5958889"><ele>364.75</ele><time>2026-04-29T11:39:26.797Z</time></trkpt><trkpt lat="44.3787687" lon="9.595819"><ele>364.5</ele><time>2026-04-29T11:39:27.797Z</time></trkpt><trkpt lat="44.378633" lon="9.5957621"><ele>364.25</ele><time>2026-04-29T11:39:28.796Z</time></trkpt><trkpt lat="44.3785004" lon="9.595707"><ele>364.0</ele><time>2026-04-29T11:39:29.796Z</time></trkpt><trkpt lat="44.3783654" lon="9.5956514"><ele>364.0</ele><time>2026-04-29T11:39:30.797Z</time></trkpt><trkpt lat="44.3782289" lon="9.5955969"><ele>364.0</ele><time>2026-04-29T11:39:31.797Z</time></trkpt><trkpt lat="44.3780887" lon="9.5955485"><ele>364.0</ele><time>2026-04-29T11:39:32.796Z</time></trkpt><trkpt lat="44.3779459" lon="9.595494"><ele>364.0</ele><time>2026-04-29T11:39:33.796Z</time></trkpt><trkpt lat="44.3778008" lon="9.5954401"><ele>365.0</ele><time>2026-04-29T11:39:34.796Z</time></trkpt><trkpt lat="44.3776534" lon="9.5953877"><ele>366.0</ele><time>2026-04-29T11:39:35.796Z</time></trkpt><trkpt lat="44.3775036" lon="9.5953241"><ele>367.0</ele><time>2026-04-29T11:39:36.795Z</time></trkpt><trkpt lat="44.3773474" lon="9.5952603"><ele>365.66666666666663</ele><time>2026-04-29T11:39:37.796Z</time></trkpt><trkpt lat="44.3771924" lon="9.5951963"><ele>364.3333333333333</ele><time>2026-04-29T11:39:38.796Z</time></trkpt><trkpt lat="44.3770478" lon="9.5951351"><ele>363.0</ele><time>2026-04-29T11:39:39.797Z</time></trkpt><trkpt lat="44.3769127" lon="9.5950777"><ele>363.0</ele><time>2026-04-29T11:39:40.797Z</time></trkpt><trkpt lat="44.3767829" lon="9.5950266"><ele>363.0</ele><time>2026-04-29T11:39:41.796Z</time></trkpt><trkpt lat="44.3766587" lon="9.5949778"><ele>363.0</ele><time>2026-04-29T11:39:42.796Z</time></trkpt><trkpt lat="44.376541" lon="9.5949272"><ele>363.0</ele><time>2026-04-29T11:39:43.796Z</time></trkpt><trkpt lat="44.376427" lon="9.5948797"><ele>365.25</ele><time>2026-04-29T11:39:44.796Z</time></trkpt><trkpt lat="44.3763164" lon="9.5948276"><ele>367.5</ele><time>2026-04-29T11:39:45.796Z</time></trkpt><trkpt lat="44.3762117" lon="9.5947519"><ele>369.75</ele><time>2026-04-29T11:39:46.796Z</time></trkpt><trkpt lat="44.3761194" lon="9.5946516"><ele>372.0</ele><time>2026-04-29T11:39:47.796Z</time></trkpt><trkpt lat="44.3760312" lon="9.594522"><ele>368.25</ele><time>2026-04-29T11:39:48.796Z</time></trkpt><trkpt lat="44.3759323" lon="9.5943809"><ele>364.5</ele><time>2026-04-29T11:39:49.796Z</time></trkpt><trkpt lat="44.3758136" lon="9.5942482"><ele>360.75</ele><time>2026-04-29T11:39:50.797Z</time></trkpt><trkpt lat="44.3756921" lon="9.5941285"><ele>357.0</ele><time>2026-04-29T11:39:51.797Z</time></trkpt><trkpt lat="44.3755746" lon="9.5940201"><ele>355.5</ele><time>2026-04-29T11:39:52.796Z</time></trkpt><trkpt lat="44.3754572" lon="9.5939187"><ele>354.0</ele><time>2026-04-29T11:39:53.795Z</time></trkpt><trkpt lat="44.3753289" lon="9.5938286"><ele>352.5</ele><time>2026-04-29T11:39:54.797Z</time></trkpt><trkpt lat="44.3752105" lon="9.593758"><ele>351.0</ele><time>2026-04-29T11:39:55.797Z</time></trkpt><trkpt lat="44.3751044" lon="9.5936984"><ele>351.0</ele><time>2026-04-29T11:39:56.796Z</time></trkpt><trkpt lat="44.3750103" lon="9.5936429"><ele>351.0</ele><time>2026-04-29T11:39:57.796Z</time></trkpt><trkpt lat="44.374928" lon="9.5935937"><ele>351.0</ele><time>2026-04-29T11:39:58.796Z</time></trkpt><trkpt lat="44.3748609" lon="9.593548"><ele>351.0</ele><time>2026-04-29T11:39:59.796Z</time></trkpt><trkpt lat="44.3747764" lon="9.5934782"><ele>351.0</ele><time>2026-04-29T11:40:01.797Z</time></trkpt><trkpt lat="44.3746782" lon="9.5934457"><ele>350.5</ele><time>2026-04-29T11:40:06.795Z</time></trkpt><trkpt lat="44.3746167" lon="9.5934852"><ele>350.0</ele><time>2026-04-29T11:40:07.796Z</time></trkpt><trkpt lat="44.3745501" lon="9.5935533"><ele>349.5</ele><time>2026-04-29T11:40:08.797Z</time></trkpt><trkpt lat="44.3744838" lon="9.5936352"><ele>349.0</ele><time>2026-04-29T11:40:09.796Z</time></trkpt><trkpt lat="44.3744171" lon="9.593717"><ele>348.5</ele><time>2026-04-29T11:40:10.796Z</time></trkpt><trkpt lat="44.3743533" lon="9.5937983"><ele>348.0</ele><time>2026-04-29T11:40:11.796Z</time></trkpt><trkpt lat="44.3742929" lon="9.5938817"><ele>348.0</ele><time>2026-04-29T11:40:12.796Z</time></trkpt><trkpt lat="44.3742378" lon="9.5939588"><ele>348.0</ele><time>2026-04-29T11:40:13.796Z</time></trkpt><trkpt lat="44.3741939" lon="9.5940282"><ele>348.0</ele><time>2026-04-29T11:40:14.797Z</time></trkpt><trkpt lat="44.3741434" lon="9.5941484"><ele>348.0</ele><time>2026-04-29T11:40:16.796Z</time></trkpt><trkpt lat="44.3741214" lon="9.5942616"><ele>348.0</ele><time>2026-04-29T11:40:19.796Z</time></trkpt><trkpt lat="44.3740678" lon="9.5943545"><ele>348.0</ele><time>2026-04-29T11:54:21.794Z</time></trkpt><trkpt lat="44.3740005" lon="9.5944576"><ele>347.8333333333333</ele><time>2026-04-29T11:54:23.794Z</time></trkpt><trkpt lat="44.3739487" lon="9.5945233"><ele>347.6666666666667</ele><time>2026-04-29T11:54:25.794Z</time></trkpt><trkpt lat="44.3738847" lon="9.5945817"><ele>347.5</ele><time>2026-04-29T11:54:31.794Z</time></trkpt><trkpt lat="44.3738322" lon="9.5946349"><ele>347.33333333333337</ele><time>2026-04-29T11:54:32.794Z</time></trkpt><trkpt lat="44.3737725" lon="9.5947041"><ele>347.1666666666667</ele><time>2026-04-29T11:54:33.794Z</time></trkpt><trkpt lat="44.3737062" lon="9.5947869"><ele>347.0</ele><time>2026-04-29T11:54:34.792Z</time></trkpt><trkpt lat="44.3736372" lon="9.5948784"><ele>347.0</ele><time>2026-04-29T11:54:35.793Z</time></trkpt><trkpt lat="44.3735728" lon="9.5949701"><ele>347.0</ele><time>2026-04-29T11:54:36.793Z</time></trkpt><trkpt lat="44.3735012" lon="9.5950689"><ele>347.0</ele><time>2026-04-29T11:54:37.792Z</time></trkpt><trkpt lat="44.3734081" lon="9.5951547"><ele>347.0</ele><time>2026-04-29T11:54:38.793Z</time></trkpt><trkpt lat="44.3733139" lon="9.5952397"><ele>347.0</ele><time>2026-04-29T11:54:39.794Z</time></trkpt><trkpt lat="44.3732147" lon="9.5953221"><ele>348.75</ele><time>2026-04-29T11:54:40.793Z</time></trkpt><trkpt lat="44.3731104" lon="9.5953951"><ele>350.5</ele><time>2026-04-29T11:54:41.792Z</time></trkpt><trkpt lat="44.3729983" lon="9.5954624"><ele>352.25</ele><time>2026-04-29T11:54:42.793Z</time></trkpt><trkpt lat="44.372876" lon="9.5955256"><ele>354.0</ele><time>2026-04-29T11:54:43.793Z</time></trkpt><trkpt lat="44.3727427" lon="9.5955833"><ele>354.0</ele><time>2026-04-29T11:54:44.793Z</time></trkpt><trkpt lat="44.3725999" lon="9.5956324"><ele>354.0</ele><time>2026-04-29T11:54:45.794Z</time></trkpt><trkpt lat="44.3724497" lon="9.5956726"><ele>354.0</ele><time>2026-04-29T11:54:46.793Z</time></trkpt><trkpt lat="44.3722905" lon="9.5957044"><ele>353.0</ele><time>2026-04-29T11:54:47.793Z</time></trkpt><trkpt lat="44.3721282" lon="9.5957278"><ele>352.0</ele><time>2026-04-29T11:54:48.793Z</time></trkpt><trkpt lat="44.3719798" lon="9.5957507"><ele>351.0</ele><time>2026-04-29T11:54:49.793Z</time></trkpt><trkpt lat="44.371847" lon="9.5957721"><ele>350.0</ele><time>2026-04-29T11:54:50.793Z</time></trkpt><trkpt lat="44.3717191" lon="9.5957852"><ele>350.0</ele><time>2026-04-29T11:54:51.792Z</time></trkpt><trkpt lat="44.3716001" lon="9.5957993"><ele>350.0</ele><time>2026-04-29T11:54:52.793Z</time></trkpt><trkpt lat="44.3714868" lon="9.5958135"><ele>350.0</ele><time>2026-04-29T11:54:53.792Z</time></trkpt><trkpt lat="44.3713738" lon="9.5958275"><ele>350.0</ele><time>2026-04-29T11:54:54.793Z</time></trkpt><trkpt lat="44.3712657" lon="9.5958343"><ele>349.0</ele><time>2026-04-29T11:54:55.794Z</time></trkpt><trkpt lat="44.3711673" lon="9.5958145"><ele>348.0</ele><time>2026-04-29T11:54:56.792Z</time></trkpt><trkpt lat="44.3710901" lon="9.5957625"><ele>347.0</ele><time>2026-04-29T11:54:57.794Z</time></trkpt><trkpt lat="44.3710284" lon="9.5956789"><ele>346.0</ele><time>2026-04-29T11:54:58.793Z</time></trkpt><trkpt lat="44.3709766" lon="9.5955651"><ele>345.0</ele><time>2026-04-29T11:54:59.793Z</time></trkpt><trkpt lat="44.3709306" lon="9.5954204"><ele>344.0</ele><time>2026-04-29T11:55:00.793Z</time></trkpt><trkpt lat="44.3708846" lon="9.5952512"><ele>343.0</ele><time>2026-04-29T11:55:01.792Z</time></trkpt><trkpt lat="44.3708399" lon="9.5950841"><ele>342.0</ele><time>2026-04-29T11:55:02.792Z</time></trkpt><trkpt lat="44.3707878" lon="9.5949296"><ele>341.0</ele><time>2026-04-29T11:55:03.793Z</time></trkpt><trkpt lat="44.3707177" lon="9.5948055"><ele>341.0</ele><time>2026-04-29T11:55:04.793Z</time></trkpt><trkpt lat="44.3706327" lon="9.5947203"><ele>341.0</ele><time>2026-04-29T11:55:05.794Z</time></trkpt><trkpt lat="44.3705341" lon="9.5946755"><ele>341.0</ele><time>2026-04-29T11:55:06.794Z</time></trkpt><trkpt lat="44.3704284" lon="9.5946818"><ele>341.0</ele><time>2026-04-29T11:55:07.793Z</time></trkpt><trkpt lat="44.3703176" lon="9.5947362"><ele>341.0</ele><time>2026-04-29T11:55:08.793Z</time></trkpt><trkpt lat="44.3701962" lon="9.5948246"><ele>342.33333333333337</ele><time>2026-04-29T11:55:09.793Z</time></trkpt><trkpt lat="44.3700581" lon="9.5949284"><ele>343.6666666666667</ele><time>2026-04-29T11:55:10.794Z</time></trkpt><trkpt lat="44.3699029" lon="9.5950096"><ele>345.0</ele><time>2026-04-29T11:55:11.793Z</time></trkpt><trkpt lat="44.3697378" lon="9.5950812"><ele>350.6666666666667</ele><time>2026-04-29T11:55:12.792Z</time></trkpt><trkpt lat="44.3695666" lon="9.5951623"><ele>356.33333333333337</ele><time>2026-04-29T11:55:13.793Z</time></trkpt><trkpt lat="44.3694037" lon="9.5952469"><ele>362.0</ele><time>2026-04-29T11:55:14.794Z</time></trkpt><trkpt lat="44.3692624" lon="9.5953214"><ele>362.0</ele><time>2026-04-29T11:55:15.793Z</time></trkpt><trkpt lat="44.36915" lon="9.5953777"><ele>362.0</ele><time>2026-04-29T11:55:16.793Z</time></trkpt><trkpt lat="44.3690484" lon="9.5953815"><ele>362.0</ele><time>2026-04-29T11:55:17.794Z</time></trkpt><trkpt lat="44.3689574" lon="9.5953426"><ele>362.0</ele><time>2026-04-29T11:55:18.793Z</time></trkpt><trkpt lat="44.3688626" lon="9.5952567"><ele>362.0</ele><time>2026-04-29T11:55:19.793Z</time></trkpt><trkpt lat="44.3687567" lon="9.5951416"><ele>359.0</ele><time>2026-04-29T11:55:20.792Z</time></trkpt><trkpt lat="44.3686201" lon="9.595036"><ele>356.0</ele><time>2026-04-29T11:55:21.793Z</time></trkpt><trkpt lat="44.3684534" lon="9.5949137"><ele>353.0</ele><time>2026-04-29T11:55:22.793Z</time></trkpt><trkpt lat="44.3682686" lon="9.5947744"><ele>353.0</ele><time>2026-04-29T11:55:23.794Z</time></trkpt><trkpt lat="44.3681044" lon="9.5946524"><ele>353.0</ele><time>2026-04-29T11:55:24.794Z</time></trkpt><trkpt lat="44.3679484" lon="9.5945467"><ele>353.0</ele><time>2026-04-29T11:55:25.794Z</time></trkpt><trkpt lat="44.3677899" lon="9.5944807"><ele>350.0</ele><time>2026-04-29T11:55:26.793Z</time></trkpt><trkpt lat="44.3676203" lon="9.5944752"><ele>347.0</ele><time>2026-04-29T11:55:27.793Z</time></trkpt><trkpt lat="44.3674472" lon="9.5945057"><ele>344.0</ele><time>2026-04-29T11:55:28.793Z</time></trkpt><trkpt lat="44.3672783" lon="9.5945383"><ele>342.6666666666667</ele><time>2026-04-29T11:55:29.793Z</time></trkpt><trkpt lat="44.3671135" lon="9.5945364"><ele>341.3333333333333</ele><time>2026-04-29T11:55:30.793Z</time></trkpt><trkpt lat="44.3669526" lon="9.5945014"><ele>340.0</ele><time>2026-04-29T11:55:31.793Z</time></trkpt><trkpt lat="44.3668211" lon="9.5944455"><ele>345.25</ele><time>2026-04-29T11:55:32.793Z</time></trkpt><trkpt lat="44.3667126" lon="9.5943591"><ele>350.5</ele><time>2026-04-29T11:55:33.793Z</time></trkpt><trkpt lat="44.3666067" lon="9.5942824"><ele>355.75</ele><time>2026-04-29T11:55:34.793Z</time></trkpt><trkpt lat="44.3664814" lon="9.5942572"><ele>361.0</ele><time>2026-04-29T11:55:35.794Z</time></trkpt><trkpt lat="44.3663458" lon="9.5942825"><ele>364.66666666666663</ele><time>2026-04-29T11:55:36.794Z</time></trkpt><trkpt lat="44.3661885" lon="9.5943461"><ele>368.3333333333333</ele><time>2026-04-29T11:55:37.793Z</time></trkpt><trkpt lat="44.3660019" lon="9.5944139"><ele>372.0</ele><time>2026-04-29T11:55:38.793Z</time></trkpt><trkpt lat="44.3658084" lon="9.5944806"><ele>371.3333333333333</ele><time>2026-04-29T11:55:39.793Z</time></trkpt><trkpt lat="44.3656458" lon="9.5945495"><ele>370.66666666666663</ele><time>2026-04-29T11:55:40.794Z</time></trkpt><trkpt lat="44.3655034" lon="9.594653"><ele>370.0</ele><time>2026-04-29T11:55:41.794Z</time></trkpt><trkpt lat="44.3653885" lon="9.5948038"><ele>370.0</ele><time>2026-04-29T11:55:42.794Z</time></trkpt><trkpt lat="44.3652875" lon="9.5949961"><ele>370.0</ele><time>2026-04-29T11:55:43.794Z</time></trkpt><trkpt lat="44.3652055" lon="9.5951655"><ele>370.0</ele><time>2026-04-29T11:55:44.794Z</time></trkpt><trkpt lat="44.3651226" lon="9.5953083"><ele>370.0</ele><time>2026-04-29T11:55:45.794Z</time></trkpt><trkpt lat="44.3650291" lon="9.5954035"><ele>366.5</ele><time>2026-04-29T11:55:46.793Z</time></trkpt><trkpt lat="44.3649277" lon="9.5954498"><ele>363.0</ele><time>2026-04-29T11:55:47.793Z</time></trkpt><trkpt lat="44.3648153" lon="9.5954324"><ele>359.5</ele><time>2026-04-29T11:55:48.793Z</time></trkpt><trkpt lat="44.3647029" lon="9.5953574"><ele>356.0</ele><time>2026-04-29T11:55:49.792Z</time></trkpt><trkpt lat="44.3645769" lon="9.5952372"><ele>356.0</ele><time>2026-04-29T11:55:50.794Z</time></trkpt><trkpt lat="44.3644205" lon="9.5950781"><ele>356.0</ele><time>2026-04-29T11:55:51.793Z</time></trkpt><trkpt lat="44.3642773" lon="9.5949362"><ele>356.0</ele><time>2026-04-29T11:55:52.794Z</time></trkpt><trkpt lat="44.3641362" lon="9.5948304"><ele>356.0</ele><time>2026-04-29T11:55:53.794Z</time></trkpt><trkpt lat="44.3639769" lon="9.5947671"><ele>356.0</ele><time>2026-04-29T11:55:54.792Z</time></trkpt><trkpt lat="44.3638172" lon="9.5947276"><ele>356.0</ele><time>2026-04-29T11:55:55.793Z</time></trkpt><trkpt lat="44.3636722" lon="9.594675"><ele>358.33333333333337</ele><time>2026-04-29T11:55:56.793Z</time></trkpt><trkpt lat="44.3635226" lon="9.5945871"><ele>360.6666666666667</ele><time>2026-04-29T11:55:57.793Z</time></trkpt><trkpt lat="44.3633646" lon="9.5944766"><ele>363.0</ele><time>2026-04-29T11:55:58.792Z</time></trkpt><trkpt lat="44.3631984" lon="9.5943506"><ele>359.6666666666667</ele><time>2026-04-29T11:55:59.792Z</time></trkpt><trkpt lat="44.3630152" lon="9.5942134"><ele>356.33333333333337</ele><time>2026-04-29T11:56:00.793Z</time></trkpt><trkpt lat="44.3628079" lon="9.5940665"><ele>353.0</ele><time>2026-04-29T11:56:01.792Z</time></trkpt><trkpt lat="44.362593" lon="9.5939316"><ele>353.0</ele><time>2026-04-29T11:56:02.794Z</time></trkpt><trkpt lat="44.3623967" lon="9.5938235"><ele>353.0</ele><time>2026-04-29T11:56:03.793Z</time></trkpt><trkpt lat="44.3622037" lon="9.5937383"><ele>353.0</ele><time>2026-04-29T11:56:04.793Z</time></trkpt><trkpt lat="44.362013" lon="9.593673"><ele>354.6666666666667</ele><time>2026-04-29T11:56:05.794Z</time></trkpt><trkpt lat="44.3618189" lon="9.5936172"><ele>356.3333333333333</ele><time>2026-04-29T11:56:06.794Z</time></trkpt><trkpt lat="44.361625" lon="9.593567"><ele>358.0</ele><time>2026-04-29T11:56:07.794Z</time></trkpt><trkpt lat="44.361429" lon="9.5935361"><ele>352.0</ele><time>2026-04-29T11:56:08.793Z</time></trkpt><trkpt lat="44.3612272" lon="9.5935302"><ele>346.0</ele><time>2026-04-29T11:56:09.794Z</time></trkpt><trkpt lat="44.3610219" lon="9.5935467"><ele>340.0</ele><time>2026-04-29T11:56:10.793Z</time></trkpt><trkpt lat="44.3608132" lon="9.5935691"><ele>340.0</ele><time>2026-04-29T11:56:11.792Z</time></trkpt><trkpt lat="44.3605981" lon="9.5935972"><ele>340.0</ele><time>2026-04-29T11:56:12.793Z</time></trkpt><trkpt lat="44.3603758" lon="9.5936288"><ele>340.0</ele><time>2026-04-29T11:56:13.794Z</time></trkpt><trkpt lat="44.3601508" lon="9.5936539"><ele>336.3333333333333</ele><time>2026-04-29T11:56:14.794Z</time></trkpt><trkpt lat="44.3599318" lon="9.5936767"><ele>332.6666666666667</ele><time>2026-04-29T11:56:15.794Z</time></trkpt><trkpt lat="44.3597168" lon="9.5937001"><ele>329.0</ele><time>2026-04-29T11:56:16.793Z</time></trkpt><trkpt lat="44.3595062" lon="9.5937183"><ele>329.0</ele><time>2026-04-29T11:56:17.793Z</time></trkpt><trkpt lat="44.3592998" lon="9.5937299"><ele>329.0</ele><time>2026-04-29T11:56:18.793Z</time></trkpt><trkpt lat="44.3590993" lon="9.5937299"><ele>329.0</ele><time>2026-04-29T11:56:19.793Z</time></trkpt><trkpt lat="44.3589031" lon="9.5937161"><ele>327.0</ele><time>2026-04-29T11:56:20.793Z</time></trkpt><trkpt lat="44.3587136" lon="9.5936877"><ele>325.0</ele><time>2026-04-29T11:56:21.794Z</time></trkpt><trkpt lat="44.3585296" lon="9.5936538"><ele>323.0</ele><time>2026-04-29T11:56:22.794Z</time></trkpt><trkpt lat="44.3583496" lon="9.5936304"><ele>329.0</ele><time>2026-04-29T11:56:23.793Z</time></trkpt><trkpt lat="44.358165" lon="9.5936181"><ele>335.0</ele><time>2026-04-29T11:56:24.793Z</time></trkpt><trkpt lat="44.3579805" lon="9.5936158"><ele>341.0</ele><time>2026-04-29T11:56:25.793Z</time></trkpt><trkpt lat="44.3577937" lon="9.5936237"><ele>341.0</ele><time>2026-04-29T11:56:26.793Z</time></trkpt><trkpt lat="44.3576" lon="9.5936371"><ele>341.0</ele><time>2026-04-29T11:56:27.794Z</time></trkpt><trkpt lat="44.3574028" lon="9.5936515"><ele>341.0</ele><time>2026-04-29T11:56:28.793Z</time></trkpt><trkpt lat="44.3572034" lon="9.5936695"><ele>335.0</ele><time>2026-04-29T11:56:29.793Z</time></trkpt><trkpt lat="44.3570066" lon="9.5936923"><ele>329.0</ele><time>2026-04-29T11:56:30.794Z</time></trkpt><trkpt lat="44.3568143" lon="9.5937192"><ele>323.0</ele><time>2026-04-29T11:56:31.793Z</time></trkpt><trkpt lat="44.3566308" lon="9.5937462"><ele>323.0</ele><time>2026-04-29T11:56:32.793Z</time></trkpt><trkpt lat="44.3564542" lon="9.5937701"><ele>323.0</ele><time>2026-04-29T11:56:33.792Z</time></trkpt><trkpt lat="44.3562839" lon="9.5937824"><ele>323.0</ele><time>2026-04-29T11:56:34.793Z</time></trkpt><trkpt lat="44.3561198" lon="9.5937727"><ele>323.6666666666667</ele><time>2026-04-29T11:56:35.793Z</time></trkpt><trkpt lat="44.3559619" lon="9.5937698"><ele>324.3333333333333</ele><time>2026-04-29T11:56:36.793Z</time></trkpt><trkpt lat="44.3558103" lon="9.5938035"><ele>325.0</ele><time>2026-04-29T11:56:37.792Z</time></trkpt><trkpt lat="44.3556693" lon="9.5938639"><ele>327.5</ele><time>2026-04-29T11:56:38.794Z</time></trkpt><trkpt lat="44.3555362" lon="9.5939425"><ele>330.0</ele><time>2026-04-29T11:56:39.794Z</time></trkpt><trkpt lat="44.3554168" lon="9.5940421"><ele>332.5</ele><time>2026-04-29T11:56:40.794Z</time></trkpt><trkpt lat="44.3553029" lon="9.5941413"><ele>335.0</ele><time>2026-04-29T11:56:41.793Z</time></trkpt><trkpt lat="44.355179" lon="9.5942173"><ele>335.0</ele><time>2026-04-29T11:56:42.794Z</time></trkpt><trkpt lat="44.3550466" lon="9.5942684"><ele>335.0</ele><time>2026-04-29T11:56:43.794Z</time></trkpt><trkpt lat="44.3549114" lon="9.5943102"><ele>335.0</ele><time>2026-04-29T11:56:44.794Z</time></trkpt><trkpt lat="44.3547726" lon="9.5943707"><ele>335.0</ele><time>2026-04-29T11:56:45.794Z</time></trkpt><trkpt lat="44.3546303" lon="9.5944389"><ele>336.6666666666667</ele><time>2026-04-29T11:56:46.793Z</time></trkpt><trkpt lat="44.354485" lon="9.594504"><ele>338.3333333333333</ele><time>2026-04-29T11:56:47.793Z</time></trkpt><trkpt lat="44.3543328" lon="9.5945644"><ele>340.0</ele><time>2026-04-29T11:56:48.793Z</time></trkpt><trkpt lat="44.3541783" lon="9.5946282"><ele>333.0</ele><time>2026-04-29T11:56:49.793Z</time></trkpt><trkpt lat="44.3540134" lon="9.5947006"><ele>326.0</ele><time>2026-04-29T11:56:50.794Z</time></trkpt><trkpt lat="44.3538439" lon="9.5947764"><ele>319.0</ele><time>2026-04-29T11:56:51.793Z</time></trkpt><trkpt lat="44.3536811" lon="9.5948562"><ele>319.0</ele><time>2026-04-29T11:56:52.794Z</time></trkpt><trkpt lat="44.3535253" lon="9.5949376"><ele>319.0</ele><time>2026-04-29T11:56:53.794Z</time></trkpt><trkpt lat="44.3533757" lon="9.5950073"><ele>319.0</ele><time>2026-04-29T11:56:54.793Z</time></trkpt><trkpt lat="44.3532215" lon="9.5950473"><ele>319.0</ele><time>2026-04-29T11:56:55.793Z</time></trkpt><trkpt lat="44.3530715" lon="9.5950533"><ele>319.0</ele><time>2026-04-29T11:56:56.793Z</time></trkpt><trkpt lat="44.3529265" lon="9.5950402"><ele>319.0</ele><time>2026-04-29T11:56:57.792Z</time></trkpt><trkpt lat="44.3527838" lon="9.5950261"><ele>319.0</ele><time>2026-04-29T11:56:58.794Z</time></trkpt><trkpt lat="44.3526389" lon="9.5950125"><ele>319.2</ele><time>2026-04-29T11:56:59.793Z</time></trkpt><trkpt lat="44.3525035" lon="9.5950028"><ele>319.4</ele><time>2026-04-29T11:57:00.794Z</time></trkpt><trkpt lat="44.3523773" lon="9.5949886"><ele>319.6</ele><time>2026-04-29T11:57:01.793Z</time></trkpt><trkpt lat="44.3522786" lon="9.5949929"><ele>319.8</ele><time>2026-04-29T11:57:02.793Z</time></trkpt><trkpt lat="44.3522101" lon="9.5950538"><ele>320.0</ele><time>2026-04-29T11:57:03.793Z</time></trkpt><trkpt lat="44.3521646" lon="9.5951477"><ele>320.0</ele><time>2026-04-29T11:57:04.792Z</time></trkpt><trkpt lat="44.352141" lon="9.5952641"><ele>320.0</ele><time>2026-04-29T11:57:05.793Z</time></trkpt><trkpt lat="44.3521217" lon="9.5953981"><ele>320.0</ele><time>2026-04-29T11:57:06.793Z</time></trkpt><trkpt lat="44.3520817" lon="9.5955374"><ele>320.0</ele><time>2026-04-29T11:57:07.793Z</time></trkpt><trkpt lat="44.352012" lon="9.5956631"><ele>320.0</ele><time>2026-04-29T11:57:08.794Z</time></trkpt><trkpt lat="44.3519164" lon="9.5957749"><ele>320.0</ele><time>2026-04-29T11:57:09.793Z</time></trkpt><trkpt lat="44.3518" lon="9.5958543"><ele>320.0</ele><time>2026-04-29T11:57:10.792Z</time></trkpt><trkpt lat="44.3516675" lon="9.595889"><ele>320.0</ele><time>2026-04-29T11:57:11.793Z</time></trkpt><trkpt lat="44.3515297" lon="9.5958733"><ele>320.0</ele><time>2026-04-29T11:57:12.793Z</time></trkpt><trkpt lat="44.3513897" lon="9.5958155"><ele>317.6666666666667</ele><time>2026-04-29T11:57:13.793Z</time></trkpt><trkpt lat="44.3512492" lon="9.5957228"><ele>315.3333333333333</ele><time>2026-04-29T11:57:14.793Z</time></trkpt><trkpt lat="44.35111" lon="9.5956008"><ele>313.0</ele><time>2026-04-29T11:57:15.792Z</time></trkpt><trkpt lat="44.3509714" lon="9.595463"><ele>318.3333333333333</ele><time>2026-04-29T11:57:16.793Z</time></trkpt><trkpt lat="44.3508268" lon="9.5953268"><ele>323.6666666666667</ele><time>2026-04-29T11:57:17.794Z</time></trkpt><trkpt lat="44.3506898" lon="9.5952018"><ele>329.0</ele><time>2026-04-29T11:57:18.792Z</time></trkpt><trkpt lat="44.3505454" lon="9.5950916"><ele>326.0</ele><time>2026-04-29T11:57:19.793Z</time></trkpt><trkpt lat="44.3503853" lon="9.5950161"><ele>323.0</ele><time>2026-04-29T11:57:20.792Z</time></trkpt><trkpt lat="44.3502105" lon="9.5949695"><ele>320.0</ele><time>2026-04-29T11:57:21.793Z</time></trkpt><trkpt lat="44.350036" lon="9.5949307"><ele>320.0</ele><time>2026-04-29T11:57:22.793Z</time></trkpt><trkpt lat="44.3498722" lon="9.5948946"><ele>320.0</ele><time>2026-04-29T11:57:23.793Z</time></trkpt><trkpt lat="44.3497158" lon="9.5948383"><ele>320.0</ele><time>2026-04-29T11:57:24.793Z</time></trkpt><trkpt lat="44.3495711" lon="9.5947467"><ele>319.6666666666667</ele><time>2026-04-29T11:57:25.794Z</time></trkpt><trkpt lat="44.3494438" lon="9.5946189"><ele>319.3333333333333</ele><time>2026-04-29T11:57:26.794Z</time></trkpt><trkpt lat="44.3493349" lon="9.5944692"><ele>319.0</ele><time>2026-04-29T11:57:27.793Z</time></trkpt><trkpt lat="44.3492466" lon="9.5942961"><ele>319.0</ele><time>2026-04-29T11:57:28.794Z</time></trkpt><trkpt lat="44.3491718" lon="9.5941088"><ele>319.0</ele><time>2026-04-29T11:57:29.792Z</time></trkpt><trkpt lat="44.3490975" lon="9.593911"><ele>319.0</ele><time>2026-04-29T11:57:30.792Z</time></trkpt><trkpt lat="44.3490169" lon="9.5937029"><ele>323.0</ele><time>2026-04-29T11:57:31.793Z</time></trkpt><trkpt lat="44.3489228" lon="9.5934941"><ele>327.0</ele><time>2026-04-29T11:57:32.793Z</time></trkpt><trkpt lat="44.3488184" lon="9.5932843"><ele>331.0</ele><time>2026-04-29T11:57:33.793Z</time></trkpt><trkpt lat="44.3486997" lon="9.5930789"><ele>327.66666666666663</ele><time>2026-04-29T11:57:34.794Z</time></trkpt><trkpt lat="44.348568" lon="9.5928886"><ele>324.3333333333333</ele><time>2026-04-29T11:57:35.793Z</time></trkpt><trkpt lat="44.3484268" lon="9.5927335"><ele>321.0</ele><time>2026-04-29T11:57:36.792Z</time></trkpt><trkpt lat="44.34828" lon="9.5926029"><ele>321.0</ele><time>2026-04-29T11:57:37.793Z</time></trkpt><trkpt lat="44.3481298" lon="9.592499"><ele>321.0</ele><time>2026-04-29T11:57:38.793Z</time></trkpt><trkpt lat="44.3479776" lon="9.5924227"><ele>321.0</ele><time>2026-04-29T11:57:39.793Z</time></trkpt><trkpt lat="44.3478248" lon="9.5923713"><ele>319.0</ele><time>2026-04-29T11:57:40.793Z</time></trkpt><trkpt lat="44.3476734" lon="9.5923287"><ele>317.0</ele><time>2026-04-29T11:57:41.793Z</time></trkpt><trkpt lat="44.347527" lon="9.5922977"><ele>315.0</ele><time>2026-04-29T11:57:42.793Z</time></trkpt><trkpt lat="44.3473851" lon="9.5922728"><ele>313.0</ele><time>2026-04-29T11:57:43.793Z</time></trkpt><trkpt lat="44.3472477" lon="9.5922514"><ele>312.5</ele><time>2026-04-29T11:57:44.793Z</time></trkpt><trkpt lat="44.3471148" lon="9.5922617"><ele>312.0</ele><time>2026-04-29T11:57:45.793Z</time></trkpt><trkpt lat="44.3469755" lon="9.5923187"><ele>311.5</ele><time>2026-04-29T11:57:46.793Z</time></trkpt><trkpt lat="44.3468281" lon="9.5924133"><ele>311.0</ele><time>2026-04-29T11:57:47.793Z</time></trkpt><trkpt lat="44.3466743" lon="9.5925227"><ele>311.0</ele><time>2026-04-29T11:57:48.793Z</time></trkpt><trkpt lat="44.3465338" lon="9.5926277"><ele>311.0</ele><time>2026-04-29T11:57:49.794Z</time></trkpt><trkpt lat="44.3463973" lon="9.5927325"><ele>311.0</ele><time>2026-04-29T11:57:50.794Z</time></trkpt><trkpt lat="44.3462672" lon="9.5928338"><ele>308.5</ele><time>2026-04-29T11:57:51.793Z</time></trkpt><trkpt lat="44.3461349" lon="9.5929159"><ele>306.0</ele><time>2026-04-29T11:57:52.794Z</time></trkpt><trkpt lat="44.3459897" lon="9.5929938"><ele>303.5</ele><time>2026-04-29T11:57:53.794Z</time></trkpt><trkpt lat="44.3458523" lon="9.5930492"><ele>301.0</ele><time>2026-04-29T11:57:54.794Z</time></trkpt><trkpt lat="44.3457097" lon="9.5930591"><ele>301.0</ele><time>2026-04-29T11:57:55.793Z</time></trkpt><trkpt lat="44.3455541" lon="9.5930435"><ele>301.0</ele><time>2026-04-29T11:57:56.794Z</time></trkpt><trkpt lat="44.3454212" lon="9.593016"><ele>301.0</ele><time>2026-04-29T11:57:57.794Z</time></trkpt><trkpt lat="44.3453051" lon="9.5929731"><ele>301.0</ele><time>2026-04-29T11:57:58.794Z</time></trkpt><trkpt lat="44.3452114" lon="9.5928869"><ele>303.66666666666663</ele><time>2026-04-29T11:57:59.794Z</time></trkpt><trkpt lat="44.3451122" lon="9.5927408"><ele>306.3333333333333</ele><time>2026-04-29T11:58:00.794Z</time></trkpt><trkpt lat="44.3449981" lon="9.5925407"><ele>309.0</ele><time>2026-04-29T11:58:01.793Z</time></trkpt><trkpt lat="44.3448657" lon="9.5922982"><ele>309.0</ele><time>2026-04-29T11:58:02.793Z</time></trkpt><trkpt lat="44.3447475" lon="9.5920887"><ele>309.0</ele><time>2026-04-29T11:58:03.794Z</time></trkpt><trkpt lat="44.3446373" lon="9.5918638"><ele>309.0</ele><time>2026-04-29T11:58:04.794Z</time></trkpt><trkpt lat="44.3445411" lon="9.591612"><ele>303.0</ele><time>2026-04-29T11:58:05.793Z</time></trkpt><trkpt lat="44.3444431" lon="9.5913408"><ele>297.0</ele><time>2026-04-29T11:58:06.793Z</time></trkpt><trkpt lat="44.3443408" lon="9.5910408"><ele>297.0</ele><time>2026-04-29T11:58:07.793Z</time></trkpt><trkpt lat="44.344252" lon="9.5907732"><ele>297.0</ele><time>2026-04-29T11:58:08.793Z</time></trkpt><trkpt lat="44.3441747" lon="9.5905545"><ele>297.0</ele><time>2026-04-29T11:58:09.793Z</time></trkpt><trkpt lat="44.3441079" lon="9.5903736"><ele>300.0</ele><time>2026-04-29T11:58:10.792Z</time></trkpt><trkpt lat="44.3440282" lon="9.5902299"><ele>303.0</ele><time>2026-04-29T11:58:11.793Z</time></trkpt><trkpt lat="44.3439306" lon="9.5901396"><ele>306.0</ele><time>2026-04-29T11:58:12.794Z</time></trkpt><trkpt lat="44.3438027" lon="9.5900961"><ele>309.0</ele><time>2026-04-29T11:58:13.794Z</time></trkpt><trkpt lat="44.3436513" lon="9.5900802"><ele>309.75</ele><time>2026-04-29T11:58:14.794Z</time></trkpt><trkpt lat="44.3434942" lon="9.5900591"><ele>310.5</ele><time>2026-04-29T11:58:15.794Z</time></trkpt><trkpt lat="44.3433569" lon="9.5900458"><ele>311.25</ele><time>2026-04-29T11:58:16.794Z</time></trkpt><trkpt lat="44.3432271" lon="9.5900864"><ele>312.0</ele><time>2026-04-29T11:58:17.794Z</time></trkpt><trkpt lat="44.3430919" lon="9.590165"><ele>313.3333333333333</ele><time>2026-04-29T11:58:18.794Z</time></trkpt><trkpt lat="44.3429276" lon="9.5902405"><ele>314.66666666666663</ele><time>2026-04-29T11:58:19.793Z</time></trkpt><trkpt lat="44.3427654" lon="9.5902943"><ele>316.0</ele><time>2026-04-29T11:58:20.793Z</time></trkpt><trkpt lat="44.3426147" lon="9.5903138"><ele>316.0</ele><time>2026-04-29T11:58:21.793Z</time></trkpt><trkpt lat="44.3424486" lon="9.5903072"><ele>316.0</ele><time>2026-04-29T11:58:22.794Z</time></trkpt><trkpt lat="44.3422706" lon="9.590282"><ele>316.0</ele><time>2026-04-29T11:58:23.794Z</time></trkpt><trkpt lat="44.3420727" lon="9.5902558"><ele>313.66666666666663</ele><time>2026-04-29T11:58:24.793Z</time></trkpt><trkpt lat="44.3418694" lon="9.5902552"><ele>311.3333333333333</ele><time>2026-04-29T11:58:25.793Z</time></trkpt><trkpt lat="44.3416677" lon="9.5902678"><ele>309.0</ele><time>2026-04-29T11:58:26.793Z</time></trkpt><trkpt lat="44.3414753" lon="9.5902766"><ele>308.0</ele><time>2026-04-29T11:58:27.793Z</time></trkpt><trkpt lat="44.3412881" lon="9.5902838"><ele>307.0</ele><time>2026-04-29T11:58:28.792Z</time></trkpt><trkpt lat="44.3411077" lon="9.5902922"><ele>306.0</ele><time>2026-04-29T11:58:29.794Z</time></trkpt><trkpt lat="44.3409332" lon="9.5903027"><ele>306.0</ele><time>2026-04-29T11:58:30.794Z</time></trkpt><trkpt lat="44.340765" lon="9.590314"><ele>306.0</ele><time>2026-04-29T11:58:31.794Z</time></trkpt><trkpt lat="44.3405985" lon="9.5903241"><ele>306.0</ele><time>2026-04-29T11:58:32.794Z</time></trkpt><trkpt lat="44.3404294" lon="9.5903343"><ele>302.3333333333333</ele><time>2026-04-29T11:58:33.793Z</time></trkpt><trkpt lat="44.3402582" lon="9.5903466"><ele>298.66666666666663</ele><time>2026-04-29T11:58:34.792Z</time></trkpt><trkpt lat="44.3400806" lon="9.5903602"><ele>295.0</ele><time>2026-04-29T11:58:35.793Z</time></trkpt><trkpt lat="44.339897" lon="9.5903721"><ele>294.3333333333333</ele><time>2026-04-29T11:58:36.793Z</time></trkpt><trkpt lat="44.3397067" lon="9.5903878"><ele>293.6666666666667</ele><time>2026-04-29T11:58:37.792Z</time></trkpt><trkpt lat="44.3395303" lon="9.5904012"><ele>293.0</ele><time>2026-04-29T11:58:38.793Z</time></trkpt><trkpt lat="44.3393609" lon="9.5904123"><ele>293.0</ele><time>2026-04-29T11:58:39.792Z</time></trkpt><trkpt lat="44.3391967" lon="9.5904154"><ele>293.0</ele><time>2026-04-29T11:58:40.792Z</time></trkpt><trkpt lat="44.3390294" lon="9.5904047"><ele>293.0</ele><time>2026-04-29T11:58:41.792Z</time></trkpt><trkpt lat="44.3388617" lon="9.5903772"><ele>294.6666666666667</ele><time>2026-04-29T11:58:42.793Z</time></trkpt><trkpt lat="44.3386916" lon="9.5903297"><ele>296.3333333333333</ele><time>2026-04-29T11:58:43.794Z</time></trkpt><trkpt lat="44.3385279" lon="9.5902738"><ele>298.0</ele><time>2026-04-29T11:58:44.793Z</time></trkpt><trkpt lat="44.3383731" lon="9.5902171"><ele>298.0</ele><time>2026-04-29T11:58:45.794Z</time></trkpt><trkpt lat="44.3382315" lon="9.590161"><ele>298.0</ele><time>2026-04-29T11:58:46.793Z</time></trkpt><trkpt lat="44.3380947" lon="9.5901078"><ele>298.0</ele><time>2026-04-29T11:58:47.792Z</time></trkpt><trkpt lat="44.3379598" lon="9.5900533"><ele>298.0</ele><time>2026-04-29T11:58:48.794Z</time></trkpt><trkpt lat="44.337824" lon="9.5899997"><ele>296.0</ele><time>2026-04-29T11:58:49.794Z</time></trkpt><trkpt lat="44.3376868" lon="9.5899432"><ele>294.0</ele><time>2026-04-29T11:58:50.793Z</time></trkpt><trkpt lat="44.337547" lon="9.5898844"><ele>292.0</ele><time>2026-04-29T11:58:51.793Z</time></trkpt><trkpt lat="44.3374029" lon="9.5898245"><ele>290.0</ele><time>2026-04-29T11:58:52.792Z</time></trkpt><trkpt lat="44.3372542" lon="9.5897637"><ele>289.33333333333337</ele><time>2026-04-29T11:58:53.793Z</time></trkpt><trkpt lat="44.3371022" lon="9.5897061"><ele>288.6666666666667</ele><time>2026-04-29T11:58:54.794Z</time></trkpt><trkpt lat="44.3369559" lon="9.5896597"><ele>288.0</ele><time>2026-04-29T11:58:55.793Z</time></trkpt><trkpt lat="44.336808" lon="9.5896238"><ele>288.0</ele><time>2026-04-29T11:58:56.794Z</time></trkpt><trkpt lat="44.3366519" lon="9.5895912"><ele>288.0</ele><time>2026-04-29T11:58:57.794Z</time></trkpt><trkpt lat="44.3365005" lon="9.5895572"><ele>288.0</ele><time>2026-04-29T11:58:58.794Z</time></trkpt><trkpt lat="44.3363538" lon="9.5895211"><ele>287.25</ele><time>2026-04-29T11:58:59.794Z</time></trkpt><trkpt lat="44.3362097" lon="9.5894834"><ele>286.5</ele><time>2026-04-29T11:59:00.794Z</time></trkpt><trkpt lat="44.3360675" lon="9.589446"><ele>285.75</ele><time>2026-04-29T11:59:01.793Z</time></trkpt><trkpt lat="44.3359395" lon="9.5894105"><ele>285.0</ele><time>2026-04-29T11:59:02.793Z</time></trkpt><trkpt lat="44.3358262" lon="9.5893809"><ele>285.0</ele><time>2026-04-29T11:59:03.792Z</time></trkpt><trkpt lat="44.3357174" lon="9.5893649"><ele>285.0</ele><time>2026-04-29T11:59:04.793Z</time></trkpt><trkpt lat="44.3356143" lon="9.5893839"><ele>285.0</ele><time>2026-04-29T11:59:05.794Z</time></trkpt><trkpt lat="44.3355178" lon="9.5894167"><ele>285.0</ele><time>2026-04-29T11:59:06.793Z</time></trkpt><trkpt lat="44.3354297" lon="9.5894451"><ele>285.0</ele><time>2026-04-29T11:59:07.793Z</time></trkpt><trkpt lat="44.3353431" lon="9.589466"><ele>285.2</ele><time>2026-04-29T11:59:08.794Z</time></trkpt><trkpt lat="44.3352527" lon="9.5894844"><ele>285.4</ele><time>2026-04-29T11:59:09.794Z</time></trkpt><trkpt lat="44.3351598" lon="9.5894994"><ele>285.6</ele><time>2026-04-29T11:59:10.793Z</time></trkpt><trkpt lat="44.3350664" lon="9.5895127"><ele>285.8</ele><time>2026-04-29T11:59:11.793Z</time></trkpt><trkpt lat="44.3349769" lon="9.5895256"><ele>286.0</ele><time>2026-04-29T11:59:12.793Z</time></trkpt><trkpt lat="44.3348836" lon="9.5895386"><ele>286.40000000000003</ele><time>2026-04-29T11:59:13.793Z</time></trkpt><trkpt lat="44.3347867" lon="9.5895545"><ele>286.8</ele><time>2026-04-29T11:59:14.793Z</time></trkpt><trkpt lat="44.3346865" lon="9.5895688"><ele>287.20000000000005</ele><time>2026-04-29T11:59:15.792Z</time></trkpt><trkpt lat="44.3345806" lon="9.5895825"><ele>287.6</ele><time>2026-04-29T11:59:16.793Z</time></trkpt><trkpt lat="44.3344618" lon="9.5895994"><ele>288.0</ele><time>2026-04-29T11:59:17.794Z</time></trkpt><trkpt lat="44.334339" lon="9.5896189"><ele>288.1666666666667</ele><time>2026-04-29T11:59:18.794Z</time></trkpt><trkpt lat="44.3342262" lon="9.5896385"><ele>288.3333333333333</ele><time>2026-04-29T11:59:19.794Z</time></trkpt><trkpt lat="44.3341314" lon="9.5896554"><ele>288.5</ele><time>2026-04-29T11:59:20.794Z</time></trkpt><trkpt lat="44.3340506" lon="9.5896689"><ele>288.66666666666663</ele><time>2026-04-29T11:59:21.794Z</time></trkpt><trkpt lat="44.3339784" lon="9.5896833"><ele>288.8333333333333</ele><time>2026-04-29T11:59:22.794Z</time></trkpt><trkpt lat="44.3339073" lon="9.5896883"><ele>289.0</ele><time>2026-04-29T11:59:23.793Z</time></trkpt><trkpt lat="44.3338136" lon="9.589623"><ele>290.0</ele><time>2026-04-29T11:59:25.793Z</time></trkpt><trkpt lat="44.333819" lon="9.5894788"><ele>291.0</ele><time>2026-04-29T11:59:27.793Z</time></trkpt><trkpt lat="44.3338503" lon="9.5893984"><ele>292.0</ele><time>2026-04-29T11:59:28.794Z</time></trkpt><trkpt lat="44.3339412" lon="9.5892883"><ele>293.0</ele><time>2026-04-29T11:59:29.794Z</time></trkpt><trkpt lat="44.3340454" lon="9.5891663"><ele>294.0</ele><time>2026-04-29T11:59:30.794Z</time></trkpt><trkpt lat="44.3341597" lon="9.589037"><ele>294.0</ele><time>2026-04-29T11:59:31.793Z</time></trkpt><trkpt lat="44.3342477" lon="9.5889122"><ele>294.0</ele><time>2026-04-29T11:59:32.793Z</time></trkpt><trkpt lat="44.334317" lon="9.5887706"><ele>294.0</ele><time>2026-04-29T11:59:33.793Z</time></trkpt><trkpt lat="44.3343622" lon="9.5886014"><ele>294.0</ele><time>2026-04-29T11:59:34.793Z</time></trkpt><trkpt lat="44.3343874" lon="9.5884305"><ele>295.0</ele><time>2026-04-29T11:59:35.792Z</time></trkpt><trkpt lat="44.3343928" lon="9.5882767"><ele>296.0</ele><time>2026-04-29T11:59:36.792Z</time></trkpt><trkpt lat="44.3343616" lon="9.5881215"><ele>297.0</ele><time>2026-04-29T11:59:37.793Z</time></trkpt><trkpt lat="44.3342931" lon="9.5879737"><ele>298.0</ele><time>2026-04-29T11:59:38.792Z</time></trkpt><trkpt lat="44.3342032" lon="9.5878162"><ele>298.0</ele><time>2026-04-29T11:59:39.792Z</time></trkpt><trkpt lat="44.3341041" lon="9.5876468"><ele>298.0</ele><time>2026-04-29T11:59:40.793Z</time></trkpt><trkpt lat="44.3340006" lon="9.5874637"><ele>298.0</ele><time>2026-04-29T11:59:41.794Z</time></trkpt><trkpt lat="44.3339012" lon="9.5872662"><ele>305.3333333333333</ele><time>2026-04-29T11:59:42.792Z</time></trkpt><trkpt lat="44.3338081" lon="9.5870621"><ele>312.6666666666667</ele><time>2026-04-29T11:59:43.793Z</time></trkpt><trkpt lat="44.3337265" lon="9.5868628"><ele>320.0</ele><time>2026-04-29T11:59:44.793Z</time></trkpt><trkpt lat="44.3336688" lon="9.5866727"><ele>320.75</ele><time>2026-04-29T11:59:45.793Z</time></trkpt><trkpt lat="44.333632" lon="9.5864768"><ele>321.5</ele><time>2026-04-29T11:59:46.793Z</time></trkpt><trkpt lat="44.3336068" lon="9.5862743"><ele>322.25</ele><time>2026-04-29T11:59:47.793Z</time></trkpt><trkpt lat="44.3335889" lon="9.5860646"><ele>323.0</ele><time>2026-04-29T11:59:48.794Z</time></trkpt><trkpt lat="44.3335747" lon="9.5858521"><ele>322.75</ele><time>2026-04-29T11:59:49.793Z</time></trkpt><trkpt lat="44.3335587" lon="9.585659"><ele>322.5</ele><time>2026-04-29T11:59:50.794Z</time></trkpt><trkpt lat="44.333533" lon="9.5854712"><ele>322.25</ele><time>2026-04-29T11:59:51.793Z</time></trkpt><trkpt lat="44.3334884" lon="9.5852803"><ele>322.0</ele><time>2026-04-29T11:59:52.793Z</time></trkpt><trkpt lat="44.3334308" lon="9.5850852"><ele>322.0</ele><time>2026-04-29T11:59:53.794Z</time></trkpt><trkpt lat="44.3333711" lon="9.5848853"><ele>322.0</ele><time>2026-04-29T11:59:54.793Z</time></trkpt><trkpt lat="44.3333072" lon="9.5846799"><ele>322.0</ele><time>2026-04-29T11:59:55.793Z</time></trkpt><trkpt lat="44.3332456" lon="9.584491"><ele>321.66666666666663</ele><time>2026-04-29T11:59:56.793Z</time></trkpt><trkpt lat="44.3331994" lon="9.5843452"><ele>321.3333333333333</ele><time>2026-04-29T11:59:57.793Z</time></trkpt><trkpt lat="44.3331507" lon="9.5842399"><ele>321.0</ele><time>2026-04-29T11:59:58.793Z</time></trkpt><trkpt lat="44.3330869" lon="9.5842026"><ele>320.6666666666667</ele><time>2026-04-29T11:59:59.794Z</time></trkpt><trkpt lat="44.3330012" lon="9.5842763"><ele>320.33333333333337</ele><time>2026-04-29T12:00:01.792Z</time></trkpt><trkpt lat="44.3329964" lon="9.5843683"><ele>320.0</ele><time>2026-04-29T12:00:02.794Z</time></trkpt><trkpt lat="44.3330131" lon="9.5844998"><ele>320.6666666666667</ele><time>2026-04-29T12:00:03.793Z</time></trkpt><trkpt lat="44.3330363" lon="9.5846743"><ele>321.3333333333333</ele><time>2026-04-29T12:00:04.793Z</time></trkpt><trkpt lat="44.3330569" lon="9.5848856"><ele>322.0</ele><time>2026-04-29T12:00:05.793Z</time></trkpt><trkpt lat="44.3330847" lon="9.5851505"><ele>323.66666666666663</ele><time>2026-04-29T12:00:06.793Z</time></trkpt><trkpt lat="44.3331185" lon="9.5854198"><ele>325.3333333333333</ele><time>2026-04-29T12:00:07.794Z</time></trkpt><trkpt lat="44.3331558" lon="9.5856381"><ele>327.0</ele><time>2026-04-29T12:00:08.794Z</time></trkpt><trkpt lat="44.333182" lon="9.585831"><ele>327.0</ele><time>2026-04-29T12:00:09.793Z</time></trkpt><trkpt lat="44.3331832" lon="9.5860256"><ele>327.0</ele><time>2026-04-29T12:00:10.793Z</time></trkpt><trkpt lat="44.3331566" lon="9.5861956"><ele>327.0</ele><time>2026-04-29T12:00:11.793Z</time></trkpt><trkpt lat="44.3331243" lon="9.586322"><ele>327.0</ele><time>2026-04-29T12:00:12.793Z</time></trkpt><trkpt lat="44.3330778" lon="9.5864179"><ele>327.0</ele><time>2026-04-29T12:00:13.794Z</time></trkpt><trkpt lat="44.3330172" lon="9.5864628"><ele>329.6666666666667</ele><time>2026-04-29T12:00:14.794Z</time></trkpt><trkpt lat="44.3329029" lon="9.5864035"><ele>332.3333333333333</ele><time>2026-04-29T12:00:16.793Z</time></trkpt><trkpt lat="44.3328848" lon="9.5863182"><ele>335.0</ele><time>2026-04-29T12:00:17.793Z</time></trkpt><trkpt lat="44.3329041" lon="9.5862247"><ele>337.66666666666663</ele><time>2026-04-29T12:00:18.793Z</time></trkpt><trkpt lat="44.3329598" lon="9.5861237"><ele>340.3333333333333</ele><time>2026-04-29T12:00:19.793Z</time></trkpt><trkpt lat="44.3329842" lon="9.5860006"><ele>343.0</ele><time>2026-04-29T12:00:20.793Z</time></trkpt><trkpt lat="44.3329611" lon="9.5858708"><ele>343.25</ele><time>2026-04-29T12:00:21.794Z</time></trkpt><trkpt lat="44.3328973" lon="9.585757"><ele>343.5</ele><time>2026-04-29T12:00:22.793Z</time></trkpt><trkpt lat="44.332795" lon="9.585638"><ele>343.75</ele><time>2026-04-29T12:00:23.792Z</time></trkpt><trkpt lat="44.3326661" lon="9.5855011"><ele>344.0</ele><time>2026-04-29T12:00:24.793Z</time></trkpt><trkpt lat="44.332533" lon="9.5853303"><ele>344.0</ele><time>2026-04-29T12:00:25.793Z</time></trkpt><trkpt lat="44.3323905" lon="9.5851259"><ele>344.0</ele><time>2026-04-29T12:00:26.794Z</time></trkpt><trkpt lat="44.3322567" lon="9.5849268"><ele>344.0</ele><time>2026-04-29T12:00:27.794Z</time></trkpt><trkpt lat="44.3321334" lon="9.5847518"><ele>347.0</ele><time>2026-04-29T12:00:28.793Z</time></trkpt><trkpt lat="44.3320056" lon="9.5845971"><ele>350.0</ele><time>2026-04-29T12:00:29.793Z</time></trkpt><trkpt lat="44.3318619" lon="9.5844753"><ele>353.0</ele><time>2026-04-29T12:00:30.793Z</time></trkpt><trkpt lat="44.3317173" lon="9.5843873"><ele>353.0</ele><time>2026-04-29T12:00:31.793Z</time></trkpt><trkpt lat="44.3315819" lon="9.5843343"><ele>353.0</ele><time>2026-04-29T12:00:32.794Z</time></trkpt><trkpt lat="44.3314594" lon="9.5843246"><ele>353.0</ele><time>2026-04-29T12:00:33.794Z</time></trkpt><trkpt lat="44.3313604" lon="9.5843288"><ele>353.0</ele><time>2026-04-29T12:00:34.793Z</time></trkpt><trkpt lat="44.3312913" lon="9.5842913"><ele>353.0</ele><time>2026-04-29T12:00:35.793Z</time></trkpt><trkpt lat="44.3312502" lon="9.5842187"><ele>357.25</ele><time>2026-04-29T12:00:36.793Z</time></trkpt><trkpt lat="44.3312392" lon="9.5841198"><ele>361.5</ele><time>2026-04-29T12:00:37.793Z</time></trkpt><trkpt lat="44.3312449" lon="9.5839809"><ele>365.75</ele><time>2026-04-29T12:00:38.794Z</time></trkpt><trkpt lat="44.3312433" lon="9.5837897"><ele>370.0</ele><time>2026-04-29T12:00:39.793Z</time></trkpt><trkpt lat="44.3312383" lon="9.5835558"><ele>370.0</ele><time>2026-04-29T12:00:40.793Z</time></trkpt><trkpt lat="44.3312325" lon="9.5833493"><ele>370.0</ele><time>2026-04-29T12:00:41.793Z</time></trkpt><trkpt lat="44.3312024" lon="9.5831834"><ele>370.0</ele><time>2026-04-29T12:00:42.793Z</time></trkpt><trkpt lat="44.3311332" lon="9.583027"><ele>370.0</ele><time>2026-04-29T12:00:43.793Z</time></trkpt><trkpt lat="44.3310663" lon="9.5828564"><ele>369.66666666666663</ele><time>2026-04-29T12:00:44.793Z</time></trkpt><trkpt lat="44.3310285" lon="9.5826552"><ele>369.3333333333333</ele><time>2026-04-29T12:00:45.794Z</time></trkpt><trkpt lat="44.3310153" lon="9.582415"><ele>369.0</ele><time>2026-04-29T12:00:46.794Z</time></trkpt><trkpt lat="44.3310152" lon="9.582145"><ele>369.0</ele><time>2026-04-29T12:00:47.792Z</time></trkpt><trkpt lat="44.3310251" lon="9.5818971"><ele>369.0</ele><time>2026-04-29T12:00:48.793Z</time></trkpt><trkpt lat="44.3310321" lon="9.5816736"><ele>369.0</ele><time>2026-04-29T12:00:49.793Z</time></trkpt><trkpt lat="44.3310249" lon="9.5814789"><ele>369.0</ele><time>2026-04-29T12:00:50.794Z</time></trkpt><trkpt lat="44.3309808" lon="9.58129"><ele>369.0</ele><time>2026-04-29T12:00:51.793Z</time></trkpt><trkpt lat="44.3309093" lon="9.5811101"><ele>369.0</ele><time>2026-04-29T12:00:52.794Z</time></trkpt><trkpt lat="44.3308252" lon="9.5809276"><ele>369.0</ele><time>2026-04-29T12:00:53.794Z</time></trkpt><trkpt lat="44.3307176" lon="9.580762"><ele>368.0</ele><time>2026-04-29T12:00:54.793Z</time></trkpt><trkpt lat="44.3305942" lon="9.5806141"><ele>367.0</ele><time>2026-04-29T12:00:55.793Z</time></trkpt><trkpt lat="44.3304905" lon="9.5804547"><ele>366.0</ele><time>2026-04-29T12:00:56.793Z</time></trkpt><trkpt lat="44.3304149" lon="9.580293"><ele>367.75</ele><time>2026-04-29T12:00:57.793Z</time></trkpt><trkpt lat="44.3303456" lon="9.5801669"><ele>369.5</ele><time>2026-04-29T12:00:58.794Z</time></trkpt><trkpt lat="44.3302533" lon="9.5800803"><ele>371.25</ele><time>2026-04-29T12:00:59.793Z</time></trkpt><trkpt lat="44.3301447" lon="9.5800397"><ele>373.0</ele><time>2026-04-29T12:01:00.792Z</time></trkpt><trkpt lat="44.3300214" lon="9.5800187"><ele>373.0</ele><time>2026-04-29T12:01:01.793Z</time></trkpt><trkpt lat="44.3298842" lon="9.5800322"><ele>373.0</ele><time>2026-04-29T12:01:02.793Z</time></trkpt><trkpt lat="44.3297428" lon="9.5800695"><ele>373.0</ele><time>2026-04-29T12:01:03.793Z</time></trkpt><trkpt lat="44.3295958" lon="9.5801037"><ele>373.0</ele><time>2026-04-29T12:01:04.793Z</time></trkpt><trkpt lat="44.3294795" lon="9.5801077"><ele>374.4</ele><time>2026-04-29T12:01:05.793Z</time></trkpt><trkpt lat="44.3293768" lon="9.5801071"><ele>375.79999999999995</ele><time>2026-04-29T12:01:06.793Z</time></trkpt><trkpt lat="44.3292933" lon="9.5800696"><ele>377.2</ele><time>2026-04-29T12:01:07.793Z</time></trkpt><trkpt lat="44.3292324" lon="9.5799792"><ele>378.6</ele><time>2026-04-29T12:01:08.793Z</time></trkpt><trkpt lat="44.3291869" lon="9.5798443"><ele>380.0</ele><time>2026-04-29T12:01:09.794Z</time></trkpt><trkpt lat="44.3291552" lon="9.5796647"><ele>378.33333333333337</ele><time>2026-04-29T12:01:10.793Z</time></trkpt><trkpt lat="44.329142" lon="9.5794525"><ele>376.6666666666667</ele><time>2026-04-29T12:01:11.793Z</time></trkpt><trkpt lat="44.329133" lon="9.5792159"><ele>375.0</ele><time>2026-04-29T12:01:12.794Z</time></trkpt><trkpt lat="44.3291191" lon="9.5790227"><ele>375.0</ele><time>2026-04-29T12:01:13.794Z</time></trkpt><trkpt lat="44.3290914" lon="9.5788534"><ele>375.0</ele><time>2026-04-29T12:01:14.793Z</time></trkpt><trkpt lat="44.3290396" lon="9.5787261"><ele>375.0</ele><time>2026-04-29T12:01:15.793Z</time></trkpt><trkpt lat="44.3289671" lon="9.5786491"><ele>375.0</ele><time>2026-04-29T12:01:16.793Z</time></trkpt><trkpt lat="44.328886" lon="9.5786331"><ele>375.0</ele><time>2026-04-29T12:01:17.794Z</time></trkpt><trkpt lat="44.3288253" lon="9.5786885"><ele>376.0</ele><time>2026-04-29T12:01:18.794Z</time></trkpt><trkpt lat="44.3287831" lon="9.5787833"><ele>377.0</ele><time>2026-04-29T12:01:19.793Z</time></trkpt><trkpt lat="44.3287532" lon="9.5789013"><ele>378.0</ele><time>2026-04-29T12:01:20.794Z</time></trkpt><trkpt lat="44.3287023" lon="9.5790031"><ele>379.0</ele><time>2026-04-29T12:01:21.793Z</time></trkpt><trkpt lat="44.3286313" lon="9.5790621"><ele>380.0</ele><time>2026-04-29T12:01:22.792Z</time></trkpt><trkpt lat="44.328545" lon="9.5790686"><ele>381.0</ele><time>2026-04-29T12:01:23.794Z</time></trkpt><trkpt lat="44.328458" lon="9.5790253"><ele>381.0</ele><time>2026-04-29T12:01:24.793Z</time></trkpt><trkpt lat="44.3283675" lon="9.5789654"><ele>381.0</ele><time>2026-04-29T12:01:25.793Z</time></trkpt><trkpt lat="44.3282531" lon="9.5789497"><ele>381.0</ele><time>2026-04-29T12:01:26.794Z</time></trkpt><trkpt lat="44.3281432" lon="9.5789968"><ele>381.0</ele><time>2026-04-29T12:01:27.794Z</time></trkpt><trkpt lat="44.3280547" lon="9.5791033"><ele>381.0</ele><time>2026-04-29T12:01:28.792Z</time></trkpt><trkpt lat="44.3279826" lon="9.5792371"><ele>381.20000000000005</ele><time>2026-04-29T12:01:29.792Z</time></trkpt><trkpt lat="44.3279064" lon="9.579342"><ele>381.40000000000003</ele><time>2026-04-29T12:01:30.792Z</time></trkpt><trkpt lat="44.3278069" lon="9.5793985"><ele>381.6</ele><time>2026-04-29T12:01:31.792Z</time></trkpt><trkpt lat="44.3277039" lon="9.5793876"><ele>381.8</ele><time>2026-04-29T12:01:32.793Z</time></trkpt><trkpt lat="44.3276137" lon="9.5793193"><ele>382.0</ele><time>2026-04-29T12:01:33.793Z</time></trkpt><trkpt lat="44.3275293" lon="9.579219"><ele>382.0</ele><time>2026-04-29T12:01:34.793Z</time></trkpt><trkpt lat="44.3274216" lon="9.5791402"><ele>382.0</ele><time>2026-04-29T12:01:35.792Z</time></trkpt><trkpt lat="44.327289" lon="9.5790981"><ele>382.0</ele><time>2026-04-29T12:01:36.792Z</time></trkpt><trkpt lat="44.3271505" lon="9.5790945"><ele>382.0</ele><time>2026-04-29T12:01:37.792Z</time></trkpt><trkpt lat="44.327029" lon="9.5791305"><ele>381.25</ele><time>2026-04-29T12:01:38.792Z</time></trkpt><trkpt lat="44.3269147" lon="9.5792068"><ele>380.5</ele><time>2026-04-29T12:01:39.792Z</time></trkpt><trkpt lat="44.3268274" lon="9.579329"><ele>379.75</ele><time>2026-04-29T12:01:40.793Z</time></trkpt><trkpt lat="44.326764" lon="9.5794668"><ele>379.0</ele><time>2026-04-29T12:01:41.792Z</time></trkpt><trkpt lat="44.3266926" lon="9.5795721"><ele>382.5</ele><time>2026-04-29T12:01:42.793Z</time></trkpt><trkpt lat="44.3265913" lon="9.5796442"><ele>386.0</ele><time>2026-04-29T12:01:43.792Z</time></trkpt><trkpt lat="44.3264567" lon="9.5797027"><ele>389.5</ele><time>2026-04-29T12:01:44.791Z</time></trkpt><trkpt lat="44.3263008" lon="9.5797767"><ele>393.0</ele><time>2026-04-29T12:01:45.792Z</time></trkpt><trkpt lat="44.3261814" lon="9.5798455"><ele>394.4</ele><time>2026-04-29T12:01:46.792Z</time></trkpt><trkpt lat="44.3260769" lon="9.5799006"><ele>395.79999999999995</ele><time>2026-04-29T12:01:47.793Z</time></trkpt><trkpt lat="44.3259783" lon="9.5799161"><ele>397.2</ele><time>2026-04-29T12:01:48.792Z</time></trkpt><trkpt lat="44.3258971" lon="9.5798781"><ele>398.6</ele><time>2026-04-29T12:01:49.792Z</time></trkpt><trkpt lat="44.3258232" lon="9.5797763"><ele>400.0</ele><time>2026-04-29T12:01:50.792Z</time></trkpt><trkpt lat="44.3257559" lon="9.5796115"><ele>395.6666666666667</ele><time>2026-04-29T12:01:51.792Z</time></trkpt><trkpt lat="44.3257057" lon="9.5794092"><ele>391.33333333333337</ele><time>2026-04-29T12:01:52.793Z</time></trkpt><trkpt lat="44.3256863" lon="9.5791785"><ele>387.0</ele><time>2026-04-29T12:01:53.793Z</time></trkpt><trkpt lat="44.3256862" lon="9.5789433"><ele>387.0</ele><time>2026-04-29T12:01:54.792Z</time></trkpt><trkpt lat="44.3256936" lon="9.5787421"><ele>387.0</ele><time>2026-04-29T12:01:55.792Z</time></trkpt><trkpt lat="44.3256889" lon="9.5785808"><ele>387.0</ele><time>2026-04-29T12:01:56.792Z</time></trkpt><trkpt lat="44.3256547" lon="9.578448"><ele>387.0</ele><time>2026-04-29T12:01:57.792Z</time></trkpt><trkpt lat="44.3255777" lon="9.5783579"><ele>386.40000000000003</ele><time>2026-04-29T12:01:58.792Z</time></trkpt><trkpt lat="44.3254771" lon="9.578303"><ele>385.8</ele><time>2026-04-29T12:01:59.791Z</time></trkpt><trkpt lat="44.3253804" lon="9.5782651"><ele>385.2</ele><time>2026-04-29T12:02:00.792Z</time></trkpt><trkpt lat="44.3253103" lon="9.5781784"><ele>384.6</ele><time>2026-04-29T12:02:01.793Z</time></trkpt><trkpt lat="44.3252648" lon="9.5780632"><ele>384.0</ele><time>2026-04-29T12:02:02.793Z</time></trkpt><trkpt lat="44.3252041" lon="9.5779389"><ele>384.0</ele><time>2026-04-29T12:02:03.792Z</time></trkpt><trkpt lat="44.3251102" lon="9.5778689"><ele>384.0</ele><time>2026-04-29T12:02:04.792Z</time></trkpt><trkpt lat="44.3250049" lon="9.5778549"><ele>384.0</ele><time>2026-04-29T12:02:05.792Z</time></trkpt><trkpt lat="44.3248762" lon="9.5778873"><ele>384.0</ele><time>2026-04-29T12:02:06.792Z</time></trkpt><trkpt lat="44.3247318" lon="9.5779337"><ele>383.2</ele><time>2026-04-29T12:02:07.792Z</time></trkpt><trkpt lat="44.3246178" lon="9.5779723"><ele>382.4</ele><time>2026-04-29T12:02:08.793Z</time></trkpt><trkpt lat="44.3245149" lon="9.577975"><ele>381.6</ele><time>2026-04-29T12:02:09.792Z</time></trkpt><trkpt lat="44.3244382" lon="9.5779224"><ele>380.8</ele><time>2026-04-29T12:02:10.791Z</time></trkpt><trkpt lat="44.3243928" lon="9.5778304"><ele>380.0</ele><time>2026-04-29T12:02:11.792Z</time></trkpt><trkpt lat="44.3243843" lon="9.577699"><ele>380.0</ele><time>2026-04-29T12:02:12.792Z</time></trkpt><trkpt lat="44.3244121" lon="9.5775213"><ele>380.0</ele><time>2026-04-29T12:02:13.793Z</time></trkpt><trkpt lat="44.3244648" lon="9.577318"><ele>380.0</ele><time>2026-04-29T12:02:14.793Z</time></trkpt><trkpt lat="44.3245166" lon="9.5771135"><ele>380.0</ele><time>2026-04-29T12:02:15.792Z</time></trkpt><trkpt lat="44.3245435" lon="9.5769404"><ele>376.4</ele><time>2026-04-29T12:02:16.792Z</time></trkpt><trkpt lat="44.3245377" lon="9.5767841"><ele>372.8</ele><time>2026-04-29T12:02:17.791Z</time></trkpt><trkpt lat="44.3244869" lon="9.576674"><ele>369.20000000000005</ele><time>2026-04-29T12:02:18.792Z</time></trkpt><trkpt lat="44.3244144" lon="9.576616"><ele>365.6</ele><time>2026-04-29T12:02:19.792Z</time></trkpt><trkpt lat="44.3242759" lon="9.5766044"><ele>362.0</ele><time>2026-04-29T12:02:20.792Z</time></trkpt><trkpt lat="44.3241248" lon="9.5766156"><ele>362.0</ele><time>2026-04-29T12:02:21.793Z</time></trkpt><trkpt lat="44.323941" lon="9.5765983"><ele>362.0</ele><time>2026-04-29T12:02:22.792Z</time></trkpt><trkpt lat="44.3237797" lon="9.5765765"><ele>362.0</ele><time>2026-04-29T12:02:23.792Z</time></trkpt><trkpt lat="44.3236287" lon="9.5765246"><ele>368.0</ele><time>2026-04-29T12:02:24.792Z</time></trkpt><trkpt lat="44.3234938" lon="9.5764261"><ele>374.0</ele><time>2026-04-29T12:02:25.792Z</time></trkpt><trkpt lat="44.3233579" lon="9.5763127"><ele>380.0</ele><time>2026-04-29T12:02:26.793Z</time></trkpt><trkpt lat="44.3232189" lon="9.5762403"><ele>380.25</ele><time>2026-04-29T12:02:27.791Z</time></trkpt><trkpt lat="44.3230985" lon="9.5761688"><ele>380.5</ele><time>2026-04-29T12:02:28.792Z</time></trkpt><trkpt lat="44.3230002" lon="9.576065"><ele>380.75</ele><time>2026-04-29T12:02:29.792Z</time></trkpt><trkpt lat="44.3229241" lon="9.5759224"><ele>381.0</ele><time>2026-04-29T12:02:30.793Z</time></trkpt><trkpt lat="44.32287" lon="9.5757386"><ele>381.0</ele><time>2026-04-29T12:02:31.793Z</time></trkpt><trkpt lat="44.3228425" lon="9.5755142"><ele>381.0</ele><time>2026-04-29T12:02:32.793Z</time></trkpt><trkpt lat="44.3228188" lon="9.5752727"><ele>381.0</ele><time>2026-04-29T12:02:33.792Z</time></trkpt><trkpt lat="44.3227879" lon="9.5750776"><ele>375.0</ele><time>2026-04-29T12:02:34.791Z</time></trkpt><trkpt lat="44.3227324" lon="9.5749052"><ele>369.0</ele><time>2026-04-29T12:02:35.792Z</time></trkpt><trkpt lat="44.3226497" lon="9.57476"><ele>363.0</ele><time>2026-04-29T12:02:36.792Z</time></trkpt><trkpt lat="44.3225356" lon="9.5746499"><ele>357.0</ele><time>2026-04-29T12:02:37.792Z</time></trkpt><trkpt lat="44.3224097" lon="9.5745811"><ele>357.0</ele><time>2026-04-29T12:02:38.793Z</time></trkpt><trkpt lat="44.3222658" lon="9.5745463"><ele>357.0</ele><time>2026-04-29T12:02:39.793Z</time></trkpt><trkpt lat="44.3221041" lon="9.5745262"><ele>357.0</ele><time>2026-04-29T12:02:40.793Z</time></trkpt><trkpt lat="44.3219348" lon="9.5745045"><ele>358.6666666666667</ele><time>2026-04-29T12:02:41.791Z</time></trkpt><trkpt lat="44.3217734" lon="9.574487"><ele>360.33333333333337</ele><time>2026-04-29T12:02:42.793Z</time></trkpt><trkpt lat="44.3216002" lon="9.5744992"><ele>362.0</ele><time>2026-04-29T12:02:43.793Z</time></trkpt><trkpt lat="44.3214272" lon="9.5745374"><ele>362.25</ele><time>2026-04-29T12:02:44.792Z</time></trkpt><trkpt lat="44.3212731" lon="9.5745807"><ele>362.5</ele><time>2026-04-29T12:02:45.792Z</time></trkpt><trkpt lat="44.3211356" lon="9.5746258"><ele>362.75</ele><time>2026-04-29T12:02:46.791Z</time></trkpt><trkpt lat="44.3209995" lon="9.5746388"><ele>363.0</ele><time>2026-04-29T12:02:47.792Z</time></trkpt><trkpt lat="44.3208568" lon="9.5745965"><ele>356.0</ele><time>2026-04-29T12:02:48.792Z</time></trkpt><trkpt lat="44.3207104" lon="9.574521"><ele>349.0</ele><time>2026-04-29T12:02:49.792Z</time></trkpt><trkpt lat="44.3205428" lon="9.5744406"><ele>342.0</ele><time>2026-04-29T12:02:50.792Z</time></trkpt><trkpt lat="44.3203837" lon="9.5743788"><ele>342.0</ele><time>2026-04-29T12:02:51.792Z</time></trkpt><trkpt lat="44.3202306" lon="9.5743462"><ele>342.0</ele><time>2026-04-29T12:02:52.792Z</time></trkpt><trkpt lat="44.3200764" lon="9.5743526"><ele>342.0</ele><time>2026-04-29T12:02:53.792Z</time></trkpt><trkpt lat="44.3199213" lon="9.5744094"><ele>342.0</ele><time>2026-04-29T12:02:54.792Z</time></trkpt><trkpt lat="44.3197555" lon="9.5745016"><ele>342.0</ele><time>2026-04-29T12:02:55.792Z</time></trkpt><trkpt lat="44.3195883" lon="9.5746061"><ele>342.0</ele><time>2026-04-29T12:02:56.792Z</time></trkpt><trkpt lat="44.3194245" lon="9.5746736"><ele>345.0</ele><time>2026-04-29T12:02:57.793Z</time></trkpt><trkpt lat="44.3192438" lon="9.5747108"><ele>348.0</ele><time>2026-04-29T12:02:58.792Z</time></trkpt><trkpt lat="44.3190599" lon="9.5746991"><ele>351.0</ele><time>2026-04-29T12:02:59.792Z</time></trkpt><trkpt lat="44.3188709" lon="9.5746403"><ele>352.3333333333333</ele><time>2026-04-29T12:03:00.792Z</time></trkpt><trkpt lat="44.3186678" lon="9.5745341"><ele>353.66666666666663</ele><time>2026-04-29T12:03:01.793Z</time></trkpt><trkpt lat="44.3184881" lon="9.5744128"><ele>355.0</ele><time>2026-04-29T12:03:02.793Z</time></trkpt><trkpt lat="44.3183342" lon="9.574269"><ele>355.0</ele><time>2026-04-29T12:03:03.792Z</time></trkpt><trkpt lat="44.3182077" lon="9.5740902"><ele>355.0</ele><time>2026-04-29T12:03:04.791Z</time></trkpt><trkpt lat="44.3180818" lon="9.5739136"><ele>355.0</ele><time>2026-04-29T12:03:05.792Z</time></trkpt><trkpt lat="44.3179453" lon="9.5737581"><ele>356.66666666666663</ele><time>2026-04-29T12:03:06.793Z</time></trkpt><trkpt lat="44.3178027" lon="9.5736257"><ele>358.3333333333333</ele><time>2026-04-29T12:03:07.793Z</time></trkpt><trkpt lat="44.3176618" lon="9.5734992"><ele>360.0</ele><time>2026-04-29T12:03:08.792Z</time></trkpt><trkpt lat="44.3175262" lon="9.5733582"><ele>360.0</ele><time>2026-04-29T12:03:09.792Z</time></trkpt><trkpt lat="44.3173932" lon="9.5732027"><ele>360.0</ele><time>2026-04-29T12:03:10.792Z</time></trkpt><trkpt lat="44.3172669" lon="9.5730357"><ele>360.0</ele><time>2026-04-29T12:03:11.791Z</time></trkpt><trkpt lat="44.3171575" lon="9.5728741"><ele>357.0</ele><time>2026-04-29T12:03:12.793Z</time></trkpt><trkpt lat="44.3170449" lon="9.572733"><ele>354.0</ele><time>2026-04-29T12:03:13.793Z</time></trkpt><trkpt lat="44.3169118" lon="9.5726246"><ele>351.0</ele><time>2026-04-29T12:03:14.793Z</time></trkpt><trkpt lat="44.3167485" lon="9.57254"><ele>351.0</ele><time>2026-04-29T12:03:15.793Z</time></trkpt><trkpt lat="44.3165617" lon="9.5724644"><ele>351.0</ele><time>2026-04-29T12:03:16.792Z</time></trkpt><trkpt lat="44.3163783" lon="9.5723838"><ele>351.0</ele><time>2026-04-29T12:03:17.791Z</time></trkpt><trkpt lat="44.3162186" lon="9.5723113"><ele>351.3333333333333</ele><time>2026-04-29T12:03:18.792Z</time></trkpt><trkpt lat="44.3160729" lon="9.5722831"><ele>351.66666666666663</ele><time>2026-04-29T12:03:19.791Z</time></trkpt><trkpt lat="44.315903" lon="9.5722916"><ele>352.0</ele><time>2026-04-29T12:03:20.793Z</time></trkpt><trkpt lat="44.3157459" lon="9.5722987"><ele>352.0</ele><time>2026-04-29T12:03:21.793Z</time></trkpt><trkpt lat="44.315627" lon="9.5722759"><ele>352.0</ele><time>2026-04-29T12:03:22.791Z</time></trkpt><trkpt lat="44.3155254" lon="9.5722106"><ele>352.0</ele><time>2026-04-29T12:03:23.792Z</time></trkpt><trkpt lat="44.315442" lon="9.5720949"><ele>352.0</ele><time>2026-04-29T12:03:24.791Z</time></trkpt><trkpt lat="44.3153704" lon="9.5719303"><ele>354.0</ele><time>2026-04-29T12:03:25.793Z</time></trkpt><trkpt lat="44.3152667" lon="9.571765"><ele>356.0</ele><time>2026-04-29T12:03:26.792Z</time></trkpt><trkpt lat="44.3151385" lon="9.571628"><ele>358.0</ele><time>2026-04-29T12:03:27.792Z</time></trkpt><trkpt lat="44.3149789" lon="9.5715201"><ele>358.0</ele><time>2026-04-29T12:03:28.791Z</time></trkpt><trkpt lat="44.3147916" lon="9.5714265"><ele>358.0</ele><time>2026-04-29T12:03:29.792Z</time></trkpt><trkpt lat="44.314617" lon="9.5713614"><ele>358.0</ele><time>2026-04-29T12:03:30.791Z</time></trkpt><trkpt lat="44.3144546" lon="9.5713185"><ele>359.66666666666663</ele><time>2026-04-29T12:03:31.792Z</time></trkpt><trkpt lat="44.3142882" lon="9.5713264"><ele>361.3333333333333</ele><time>2026-04-29T12:03:32.791Z</time></trkpt><trkpt lat="44.3141137" lon="9.5713522"><ele>363.0</ele><time>2026-04-29T12:03:33.792Z</time></trkpt><trkpt lat="44.3139321" lon="9.5713486"><ele>363.0</ele><time>2026-04-29T12:03:34.793Z</time></trkpt><trkpt lat="44.3137312" lon="9.5713272"><ele>363.0</ele><time>2026-04-29T12:03:35.793Z</time></trkpt><trkpt lat="44.3135166" lon="9.5712942"><ele>363.0</ele><time>2026-04-29T12:03:36.792Z</time></trkpt><trkpt lat="44.31329" lon="9.5712503"><ele>364.3333333333333</ele><time>2026-04-29T12:03:37.792Z</time></trkpt><trkpt lat="44.3130581" lon="9.5712083"><ele>365.66666666666663</ele><time>2026-04-29T12:03:38.792Z</time></trkpt><trkpt lat="44.3128592" lon="9.5711799"><ele>367.0</ele><time>2026-04-29T12:03:39.792Z</time></trkpt><trkpt lat="44.312688" lon="9.5711568"><ele>368.0</ele><time>2026-04-29T12:03:40.793Z</time></trkpt><trkpt lat="44.312542" lon="9.5711245"><ele>369.0</ele><time>2026-04-29T12:03:41.792Z</time></trkpt><trkpt lat="44.3124127" lon="9.5710634"><ele>370.0</ele><time>2026-04-29T12:03:42.793Z</time></trkpt><trkpt lat="44.3122745" lon="9.5709922"><ele>371.0</ele><time>2026-04-29T12:03:43.793Z</time></trkpt><trkpt lat="44.3121282" lon="9.5708325"><ele>371.0</ele><time>2026-04-29T12:03:44.793Z</time></trkpt><trkpt lat="44.3119708" lon="9.5706955"><ele>371.0</ele><time>2026-04-29T12:03:45.793Z</time></trkpt><trkpt lat="44.3118064" lon="9.5705412"><ele>371.0</ele><time>2026-04-29T12:03:46.792Z</time></trkpt><trkpt lat="44.3116285" lon="9.570393"><ele>370.33333333333337</ele><time>2026-04-29T12:03:47.793Z</time></trkpt><trkpt lat="44.3114471" lon="9.5702352"><ele>369.6666666666667</ele><time>2026-04-29T12:03:48.793Z</time></trkpt><trkpt lat="44.311274" lon="9.5700627"><ele>369.0</ele><time>2026-04-29T12:03:49.793Z</time></trkpt><trkpt lat="44.3111231" lon="9.569876"><ele>369.0</ele><time>2026-04-29T12:03:50.792Z</time></trkpt><trkpt lat="44.3109956" lon="9.5696905"><ele>369.0</ele><time>2026-04-29T12:03:51.793Z</time></trkpt><trkpt lat="44.310894" lon="9.5695144"><ele>369.0</ele><time>2026-04-29T12:03:52.793Z</time></trkpt><trkpt lat="44.3108115" lon="9.5693231"><ele>370.6666666666667</ele><time>2026-04-29T12:03:53.792Z</time></trkpt><trkpt lat="44.310739" lon="9.5690976"><ele>372.33333333333337</ele><time>2026-04-29T12:03:54.792Z</time></trkpt><trkpt lat="44.3106705" lon="9.5688601"><ele>374.0</ele><time>2026-04-29T12:03:55.792Z</time></trkpt><trkpt lat="44.3106086" lon="9.5686505"><ele>372.5</ele><time>2026-04-29T12:03:56.792Z</time></trkpt><trkpt lat="44.31055" lon="9.5684695"><ele>371.0</ele><time>2026-04-29T12:03:57.792Z</time></trkpt><trkpt lat="44.3104784" lon="9.5683143"><ele>369.5</ele><time>2026-04-29T12:03:58.792Z</time></trkpt><trkpt lat="44.3103858" lon="9.5681902"><ele>368.0</ele><time>2026-04-29T12:03:59.791Z</time></trkpt><trkpt lat="44.3102574" lon="9.5681173"><ele>368.0</ele><time>2026-04-29T12:04:00.793Z</time></trkpt><trkpt lat="44.3100889" lon="9.5680529"><ele>368.0</ele><time>2026-04-29T12:04:01.793Z</time></trkpt><trkpt lat="44.30988" lon="9.5679772"><ele>368.0</ele><time>2026-04-29T12:04:02.792Z</time></trkpt><trkpt lat="44.3096611" lon="9.5678961"><ele>371.0</ele><time>2026-04-29T12:04:03.793Z</time></trkpt><trkpt lat="44.3094693" lon="9.5678207"><ele>374.0</ele><time>2026-04-29T12:04:04.792Z</time></trkpt><trkpt lat="44.3092866" lon="9.5677463"><ele>377.0</ele><time>2026-04-29T12:04:05.792Z</time></trkpt><trkpt lat="44.3091247" lon="9.567682"><ele>377.0</ele><time>2026-04-29T12:04:06.792Z</time></trkpt><trkpt lat="44.3089783" lon="9.5676286"><ele>377.0</ele><time>2026-04-29T12:04:07.792Z</time></trkpt><trkpt lat="44.3088371" lon="9.5676127"><ele>377.0</ele><time>2026-04-29T12:04:08.791Z</time></trkpt><trkpt lat="44.3086838" lon="9.5676436"><ele>377.0</ele><time>2026-04-29T12:04:09.793Z</time></trkpt><trkpt lat="44.3085268" lon="9.5677043"><ele>375.33333333333337</ele><time>2026-04-29T12:04:10.792Z</time></trkpt><trkpt lat="44.308378" lon="9.5677482"><ele>373.6666666666667</ele><time>2026-04-29T12:04:11.793Z</time></trkpt><trkpt lat="44.3082312" lon="9.5677561"><ele>372.0</ele><time>2026-04-29T12:04:12.793Z</time></trkpt><trkpt lat="44.3080823" lon="9.5677164"><ele>371.5</ele><time>2026-04-29T12:04:13.792Z</time></trkpt><trkpt lat="44.3079411" lon="9.5676427"><ele>371.0</ele><time>2026-04-29T12:04:14.792Z</time></trkpt><trkpt lat="44.307817" lon="9.5675737"><ele>370.5</ele><time>2026-04-29T12:04:15.792Z</time></trkpt><trkpt lat="44.3077145" lon="9.5674832"><ele>370.0</ele><time>2026-04-29T12:04:16.791Z</time></trkpt><trkpt lat="44.307625" lon="9.5673695"><ele>370.0</ele><time>2026-04-29T12:04:17.792Z</time></trkpt><trkpt lat="44.3075348" lon="9.5672446"><ele>370.0</ele><time>2026-04-29T12:04:18.792Z</time></trkpt><trkpt lat="44.3074317" lon="9.5671426"><ele>370.0</ele><time>2026-04-29T12:04:19.792Z</time></trkpt><trkpt lat="44.3073111" lon="9.5670737"><ele>370.0</ele><time>2026-04-29T12:04:20.792Z</time></trkpt><trkpt lat="44.3071807" lon="9.5670375"><ele>372.75</ele><time>2026-04-29T12:04:21.792Z</time></trkpt><trkpt lat="44.3070579" lon="9.5670121"><ele>375.5</ele><time>2026-04-29T12:04:22.792Z</time></trkpt><trkpt lat="44.3069443" lon="9.5669893"><ele>378.25</ele><time>2026-04-29T12:04:23.792Z</time></trkpt><trkpt lat="44.3068335" lon="9.5669687"><ele>381.0</ele><time>2026-04-29T12:04:24.792Z</time></trkpt><trkpt lat="44.3067247" lon="9.5669526"><ele>381.0</ele><time>2026-04-29T12:04:25.792Z</time></trkpt><trkpt lat="44.3066201" lon="9.5669344"><ele>381.0</ele><time>2026-04-29T12:04:26.792Z</time></trkpt><trkpt lat="44.3065162" lon="9.5669188"><ele>381.0</ele><time>2026-04-29T12:04:27.792Z</time></trkpt><trkpt lat="44.3064154" lon="9.5669004"><ele>381.0</ele><time>2026-04-29T12:04:28.792Z</time></trkpt><trkpt lat="44.3063186" lon="9.5668795"><ele>381.0</ele><time>2026-04-29T12:04:29.792Z</time></trkpt><trkpt lat="44.3062266" lon="9.5668616"><ele>380.8333333333333</ele><time>2026-04-29T12:04:30.792Z</time></trkpt><trkpt lat="44.306138" lon="9.5668474"><ele>380.6666666666667</ele><time>2026-04-29T12:04:31.793Z</time></trkpt><trkpt lat="44.3060515" lon="9.5668294"><ele>380.5</ele><time>2026-04-29T12:04:32.793Z</time></trkpt><trkpt lat="44.3059672" lon="9.5668116"><ele>380.33333333333337</ele><time>2026-04-29T12:04:33.792Z</time></trkpt><trkpt lat="44.3058834" lon="9.5667916"><ele>380.1666666666667</ele><time>2026-04-29T12:04:34.792Z</time></trkpt><trkpt lat="44.3057992" lon="9.5667693"><ele>380.0</ele><time>2026-04-29T12:04:35.793Z</time></trkpt><trkpt lat="44.3057124" lon="9.5667444"><ele>380.0</ele><time>2026-04-29T12:04:36.792Z</time></trkpt><trkpt lat="44.3056226" lon="9.5667182"><ele>380.0</ele><time>2026-04-29T12:04:37.792Z</time></trkpt><trkpt lat="44.3055295" lon="9.5666944"><ele>380.0</ele><time>2026-04-29T12:04:38.792Z</time></trkpt><trkpt lat="44.3054344" lon="9.5666669"><ele>380.0</ele><time>2026-04-29T12:04:39.792Z</time></trkpt><trkpt lat="44.3053367" lon="9.5666428"><ele>380.0</ele><time>2026-04-29T12:04:40.791Z</time></trkpt><trkpt lat="44.3052394" lon="9.5666172"><ele>379.4</ele><time>2026-04-29T12:04:41.792Z</time></trkpt><trkpt lat="44.3051422" lon="9.5665888"><ele>378.8</ele><time>2026-04-29T12:04:42.792Z</time></trkpt><trkpt lat="44.3050405" lon="9.5665596"><ele>378.20000000000005</ele><time>2026-04-29T12:04:43.793Z</time></trkpt><trkpt lat="44.3049377" lon="9.5665279"><ele>377.6</ele><time>2026-04-29T12:04:44.792Z</time></trkpt><trkpt lat="44.3048443" lon="9.5665034"><ele>377.0</ele><time>2026-04-29T12:04:45.792Z</time></trkpt><trkpt lat="44.3047451" lon="9.5664786"><ele>377.0</ele><time>2026-04-29T12:04:46.792Z</time></trkpt><trkpt lat="44.304656" lon="9.5664562"><ele>377.0</ele><time>2026-04-29T12:04:47.792Z</time></trkpt><trkpt lat="44.3045675" lon="9.5664325"><ele>377.0</ele><time>2026-04-29T12:04:48.792Z</time></trkpt><trkpt lat="44.3044763" lon="9.5664099"><ele>377.0</ele><time>2026-04-29T12:04:49.791Z</time></trkpt><trkpt lat="44.304379" lon="9.5663896"><ele>377.0</ele><time>2026-04-29T12:04:50.791Z</time></trkpt><trkpt lat="44.304274" lon="9.5663648"><ele>377.0</ele><time>2026-04-29T12:04:51.792Z</time></trkpt><trkpt lat="44.3041612" lon="9.5663374"><ele>377.0</ele><time>2026-04-29T12:04:52.792Z</time></trkpt><trkpt lat="44.3040413" lon="9.5663076"><ele>377.0</ele><time>2026-04-29T12:04:53.792Z</time></trkpt><trkpt lat="44.3039199" lon="9.5662776"><ele>377.0</ele><time>2026-04-29T12:04:54.792Z</time></trkpt><trkpt lat="44.303795" lon="9.5662457"><ele>378.0</ele><time>2026-04-29T12:04:55.791Z</time></trkpt><trkpt lat="44.3036731" lon="9.5662167"><ele>379.0</ele><time>2026-04-29T12:04:56.792Z</time></trkpt><trkpt lat="44.303554" lon="9.5661887"><ele>380.0</ele><time>2026-04-29T12:04:57.791Z</time></trkpt><trkpt lat="44.303432" lon="9.5661611"><ele>381.0</ele><time>2026-04-29T12:04:58.793Z</time></trkpt><trkpt lat="44.3033086" lon="9.566133"><ele>381.0</ele><time>2026-04-29T12:04:59.792Z</time></trkpt><trkpt lat="44.3031861" lon="9.5661012"><ele>381.0</ele><time>2026-04-29T12:05:00.793Z</time></trkpt><trkpt lat="44.30305" lon="9.5660686"><ele>381.0</ele><time>2026-04-29T12:05:01.792Z</time></trkpt><trkpt lat="44.3028914" lon="9.566027"><ele>381.0</ele><time>2026-04-29T12:05:02.793Z</time></trkpt><trkpt lat="44.3027248" lon="9.5659865"><ele>381.3333333333333</ele><time>2026-04-29T12:05:03.791Z</time></trkpt><trkpt lat="44.3025486" lon="9.5659458"><ele>381.66666666666663</ele><time>2026-04-29T12:05:04.791Z</time></trkpt><trkpt lat="44.3023807" lon="9.5659049"><ele>382.0</ele><time>2026-04-29T12:05:05.792Z</time></trkpt><trkpt lat="44.3022233" lon="9.5658654"><ele>382.0</ele><time>2026-04-29T12:05:06.792Z</time></trkpt><trkpt lat="44.3020681" lon="9.5658277"><ele>382.0</ele><time>2026-04-29T12:05:07.793Z</time></trkpt><trkpt lat="44.3019092" lon="9.5657899"><ele>382.0</ele><time>2026-04-29T12:05:08.792Z</time></trkpt><trkpt lat="44.3017478" lon="9.5657498"><ele>382.0</ele><time>2026-04-29T12:05:09.792Z</time></trkpt><trkpt lat="44.3015829" lon="9.565707"><ele>382.0</ele><time>2026-04-29T12:05:10.792Z</time></trkpt><trkpt lat="44.3014166" lon="9.5656631"><ele>382.0</ele><time>2026-04-29T12:05:11.791Z</time></trkpt><trkpt lat="44.3012477" lon="9.565618"><ele>382.66666666666663</ele><time>2026-04-29T12:05:12.793Z</time></trkpt><trkpt lat="44.301079" lon="9.5655743"><ele>383.3333333333333</ele><time>2026-04-29T12:05:13.791Z</time></trkpt><trkpt lat="44.3009107" lon="9.5655261"><ele>384.0</ele><time>2026-04-29T12:05:14.792Z</time></trkpt><trkpt lat="44.3007559" lon="9.5654533"><ele>384.66666666666663</ele><time>2026-04-29T12:05:15.791Z</time></trkpt><trkpt lat="44.3006107" lon="9.5653477"><ele>385.3333333333333</ele><time>2026-04-29T12:05:16.792Z</time></trkpt><trkpt lat="44.3004734" lon="9.5652125"><ele>386.0</ele><time>2026-04-29T12:05:17.792Z</time></trkpt><trkpt lat="44.300336" lon="9.5650522"><ele>386.0</ele><time>2026-04-29T12:05:18.792Z</time></trkpt><trkpt lat="44.3002009" lon="9.5648836"><ele>386.0</ele><time>2026-04-29T12:05:19.793Z</time></trkpt><trkpt lat="44.3000672" lon="9.5647157"><ele>386.0</ele><time>2026-04-29T12:05:20.792Z</time></trkpt><trkpt lat="44.2999294" lon="9.5645393"><ele>387.66666666666663</ele><time>2026-04-29T12:05:21.792Z</time></trkpt><trkpt lat="44.2997939" lon="9.5643679"><ele>389.33333333333337</ele><time>2026-04-29T12:05:22.791Z</time></trkpt><trkpt lat="44.2996685" lon="9.5642127"><ele>391.0</ele><time>2026-04-29T12:05:23.792Z</time></trkpt><trkpt lat="44.299543" lon="9.5640617"><ele>391.0</ele><time>2026-04-29T12:05:24.792Z</time></trkpt><trkpt lat="44.2994173" lon="9.5639112"><ele>391.0</ele><time>2026-04-29T12:05:25.792Z</time></trkpt><trkpt lat="44.2993021" lon="9.5637698"><ele>391.0</ele><time>2026-04-29T12:05:26.793Z</time></trkpt><trkpt lat="44.2991945" lon="9.5636399"><ele>391.75</ele><time>2026-04-29T12:05:27.793Z</time></trkpt><trkpt lat="44.2990871" lon="9.5635087"><ele>392.5</ele><time>2026-04-29T12:05:28.792Z</time></trkpt><trkpt lat="44.298977" lon="9.5633739"><ele>393.25</ele><time>2026-04-29T12:05:29.792Z</time></trkpt><trkpt lat="44.298867" lon="9.5632391"><ele>394.0</ele><time>2026-04-29T12:05:30.792Z</time></trkpt><trkpt lat="44.2987619" lon="9.5630995"><ele>396.6666666666667</ele><time>2026-04-29T12:05:31.792Z</time></trkpt><trkpt lat="44.2986537" lon="9.5629597"><ele>399.33333333333337</ele><time>2026-04-29T12:05:32.792Z</time></trkpt><trkpt lat="44.2985454" lon="9.5628199"><ele>402.0</ele><time>2026-04-29T12:05:33.791Z</time></trkpt><trkpt lat="44.2843938" lon="9.545495"><ele>379.0</ele><time>2026-04-29T12:07:10.792Z</time></trkpt><trkpt lat="44.2842692" lon="9.5453202"><ele>356.0</ele><time>2026-04-29T12:07:11.793Z</time></trkpt><trkpt lat="44.2841455" lon="9.5451578"><ele>333.0</ele><time>2026-04-29T12:07:12.791Z</time></trkpt><trkpt lat="44.2839998" lon="9.5450137"><ele>329.6666666666667</ele><time>2026-04-29T12:07:13.792Z</time></trkpt><trkpt lat="44.2838441" lon="9.544872"><ele>326.33333333333337</ele><time>2026-04-29T12:07:14.791Z</time></trkpt><trkpt lat="44.2836784" lon="9.5447379"><ele>323.0</ele><time>2026-04-29T12:07:15.791Z</time></trkpt><trkpt lat="44.2835065" lon="9.5446192"><ele>323.6666666666667</ele><time>2026-04-29T12:07:16.792Z</time></trkpt><trkpt lat="44.2833227" lon="9.5445136"><ele>324.3333333333333</ele><time>2026-04-29T12:07:17.793Z</time></trkpt><trkpt lat="44.2831327" lon="9.5444119"><ele>325.0</ele><time>2026-04-29T12:07:18.792Z</time></trkpt><trkpt lat="44.2829345" lon="9.5443123"><ele>325.0</ele><time>2026-04-29T12:07:19.791Z</time></trkpt><trkpt lat="44.282736" lon="9.5442129"><ele>325.0</ele><time>2026-04-29T12:07:20.792Z</time></trkpt><trkpt lat="44.2825411" lon="9.5441137"><ele>325.0</ele><time>2026-04-29T12:07:21.792Z</time></trkpt><trkpt lat="44.2823502" lon="9.5440171"><ele>321.3333333333333</ele><time>2026-04-29T12:07:22.792Z</time></trkpt><trkpt lat="44.2821615" lon="9.5439185"><ele>317.6666666666667</ele><time>2026-04-29T12:07:23.791Z</time></trkpt><trkpt lat="44.2819758" lon="9.5438254"><ele>314.0</ele><time>2026-04-29T12:07:24.791Z</time></trkpt><trkpt lat="44.2817982" lon="9.5437313"><ele>312.6666666666667</ele><time>2026-04-29T12:07:25.793Z</time></trkpt><trkpt lat="44.2816294" lon="9.5436491"><ele>311.3333333333333</ele><time>2026-04-29T12:07:26.792Z</time></trkpt><trkpt lat="44.2814822" lon="9.5435721"><ele>310.0</ele><time>2026-04-29T12:07:27.792Z</time></trkpt><trkpt lat="44.2813413" lon="9.54349"><ele>310.0</ele><time>2026-04-29T12:07:28.792Z</time></trkpt><trkpt lat="44.2812161" lon="9.5433997"><ele>310.0</ele><time>2026-04-29T12:07:29.793Z</time></trkpt><trkpt lat="44.2811004" lon="9.5432928"><ele>310.0</ele><time>2026-04-29T12:07:30.792Z</time></trkpt><trkpt lat="44.2810003" lon="9.5431654"><ele>310.0</ele><time>2026-04-29T12:07:31.792Z</time></trkpt><trkpt lat="44.2809257" lon="9.5430154"><ele>312.75</ele><time>2026-04-29T12:07:32.791Z</time></trkpt><trkpt lat="44.2808795" lon="9.5428509"><ele>315.5</ele><time>2026-04-29T12:07:33.792Z</time></trkpt><trkpt lat="44.2808637" lon="9.5426796"><ele>318.25</ele><time>2026-04-29T12:07:34.792Z</time></trkpt><trkpt lat="44.2808849" lon="9.5425034"><ele>321.0</ele><time>2026-04-29T12:07:35.791Z</time></trkpt><trkpt lat="44.2809224" lon="9.5423238"><ele>321.0</ele><time>2026-04-29T12:07:36.793Z</time></trkpt><trkpt lat="44.2809548" lon="9.5421489"><ele>321.0</ele><time>2026-04-29T12:07:37.792Z</time></trkpt><trkpt lat="44.2809375" lon="9.5419749"><ele>321.0</ele><time>2026-04-29T12:07:38.791Z</time></trkpt><trkpt lat="44.2808784" lon="9.5417979"><ele>321.0</ele><time>2026-04-29T12:07:39.793Z</time></trkpt><trkpt lat="44.280786" lon="9.5416175"><ele>323.0</ele><time>2026-04-29T12:07:40.792Z</time></trkpt><trkpt lat="44.2806743" lon="9.5414284"><ele>325.0</ele><time>2026-04-29T12:07:41.793Z</time></trkpt><trkpt lat="44.2805455" lon="9.5412559"><ele>327.0</ele><time>2026-04-29T12:07:42.793Z</time></trkpt><trkpt lat="44.2803957" lon="9.5411085"><ele>327.3333333333333</ele><time>2026-04-29T12:07:43.791Z</time></trkpt><trkpt lat="44.2802235" lon="9.5409826"><ele>327.66666666666663</ele><time>2026-04-29T12:07:44.793Z</time></trkpt><trkpt lat="44.2800619" lon="9.5408878"><ele>328.0</ele><time>2026-04-29T12:07:45.793Z</time></trkpt><trkpt lat="44.2799099" lon="9.5408372"><ele>327.66666666666663</ele><time>2026-04-29T12:07:46.793Z</time></trkpt><trkpt lat="44.279758" lon="9.5408552"><ele>327.3333333333333</ele><time>2026-04-29T12:07:47.792Z</time></trkpt><trkpt lat="44.2796025" lon="9.5409133"><ele>327.0</ele><time>2026-04-29T12:07:48.791Z</time></trkpt><trkpt lat="44.279457" lon="9.5409699"><ele>327.0</ele><time>2026-04-29T12:07:49.791Z</time></trkpt><trkpt lat="44.2793192" lon="9.5409822"><ele>327.0</ele><time>2026-04-29T12:07:50.792Z</time></trkpt><trkpt lat="44.2791847" lon="9.5409388"><ele>327.0</ele><time>2026-04-29T12:07:51.793Z</time></trkpt><trkpt lat="44.2790693" lon="9.5408462"><ele>327.0</ele><time>2026-04-29T12:07:52.792Z</time></trkpt><trkpt lat="44.2789811" lon="9.5407041"><ele>324.0</ele><time>2026-04-29T12:07:53.791Z</time></trkpt><trkpt lat="44.2789052" lon="9.5405249"><ele>321.0</ele><time>2026-04-29T12:07:54.791Z</time></trkpt><trkpt lat="44.278837" lon="9.5403245"><ele>318.0</ele><time>2026-04-29T12:07:55.792Z</time></trkpt><trkpt lat="44.278771" lon="9.5401455"><ele>318.0</ele><time>2026-04-29T12:07:56.793Z</time></trkpt><trkpt lat="44.2786896" lon="9.5399891"><ele>318.0</ele><time>2026-04-29T12:07:57.793Z</time></trkpt><trkpt lat="44.2785889" lon="9.5398547"><ele>318.0</ele><time>2026-04-29T12:07:58.793Z</time></trkpt><trkpt lat="44.2784796" lon="9.5397506"><ele>318.0</ele><time>2026-04-29T12:07:59.792Z</time></trkpt><trkpt lat="44.2783693" lon="9.5396627"><ele>318.0</ele><time>2026-04-29T12:08:00.792Z</time></trkpt><trkpt lat="44.2782525" lon="9.5395795"><ele>318.0</ele><time>2026-04-29T12:08:01.791Z</time></trkpt><trkpt lat="44.2781321" lon="9.5395059"><ele>318.0</ele><time>2026-04-29T12:08:02.792Z</time></trkpt><trkpt lat="44.2780089" lon="9.5394432"><ele>318.0</ele><time>2026-04-29T12:08:03.792Z</time></trkpt><trkpt lat="44.2778847" lon="9.5393746"><ele>319.25</ele><time>2026-04-29T12:08:04.792Z</time></trkpt><trkpt lat="44.2777644" lon="9.5392939"><ele>320.5</ele><time>2026-04-29T12:08:05.792Z</time></trkpt><trkpt lat="44.2776471" lon="9.5392074"><ele>321.75</ele><time>2026-04-29T12:08:06.793Z</time></trkpt><trkpt lat="44.2775254" lon="9.53912"><ele>323.0</ele><time>2026-04-29T12:08:07.793Z</time></trkpt><trkpt lat="44.2774027" lon="9.53903"><ele>323.0</ele><time>2026-04-29T12:08:08.793Z</time></trkpt><trkpt lat="44.2772852" lon="9.538943"><ele>323.0</ele><time>2026-04-29T12:08:09.792Z</time></trkpt><trkpt lat="44.2771693" lon="9.5388691"><ele>323.0</ele><time>2026-04-29T12:08:10.792Z</time></trkpt><trkpt lat="44.2770473" lon="9.5388111"><ele>323.0</ele><time>2026-04-29T12:08:11.792Z</time></trkpt><trkpt lat="44.2769129" lon="9.5387676"><ele>320.75</ele><time>2026-04-29T12:08:12.792Z</time></trkpt><trkpt lat="44.2767719" lon="9.5387501"><ele>318.5</ele><time>2026-04-29T12:08:13.793Z</time></trkpt><trkpt lat="44.2766368" lon="9.5387504"><ele>316.25</ele><time>2026-04-29T12:08:14.793Z</time></trkpt><trkpt lat="44.276512" lon="9.538752"><ele>314.0</ele><time>2026-04-29T12:08:15.793Z</time></trkpt><trkpt lat="44.2763956" lon="9.5387512"><ele>314.8</ele><time>2026-04-29T12:08:16.792Z</time></trkpt><trkpt lat="44.2762903" lon="9.5387334"><ele>315.59999999999997</ele><time>2026-04-29T12:08:17.791Z</time></trkpt><trkpt lat="44.276195" lon="9.5386889"><ele>316.4</ele><time>2026-04-29T12:08:18.792Z</time></trkpt><trkpt lat="44.2761157" lon="9.5386158"><ele>317.2</ele><time>2026-04-29T12:08:19.792Z</time></trkpt><trkpt lat="44.2760473" lon="9.5385058"><ele>318.0</ele><time>2026-04-29T12:08:20.791Z</time></trkpt><trkpt lat="44.2759867" lon="9.5383808"><ele>318.0</ele><time>2026-04-29T12:08:21.792Z</time></trkpt><trkpt lat="44.2759245" lon="9.5382417"><ele>318.0</ele><time>2026-04-29T12:08:22.793Z</time></trkpt><trkpt lat="44.2758577" lon="9.5380997"><ele>318.0</ele><time>2026-04-29T12:08:23.792Z</time></trkpt><trkpt lat="44.275796" lon="9.5379595"><ele>318.0</ele><time>2026-04-29T12:08:24.792Z</time></trkpt><trkpt lat="44.2757379" lon="9.5378316"><ele>320.4</ele><time>2026-04-29T12:08:25.792Z</time></trkpt><trkpt lat="44.2756679" lon="9.5377303"><ele>322.8</ele><time>2026-04-29T12:08:26.792Z</time></trkpt><trkpt lat="44.2755789" lon="9.5376703"><ele>325.2</ele><time>2026-04-29T12:08:27.792Z</time></trkpt><trkpt lat="44.2754793" lon="9.5376666"><ele>327.6</ele><time>2026-04-29T12:08:28.792Z</time></trkpt><trkpt lat="44.2753789" lon="9.5377023"><ele>330.0</ele><time>2026-04-29T12:08:29.793Z</time></trkpt><trkpt lat="44.2752815" lon="9.537744"><ele>330.0</ele><time>2026-04-29T12:08:30.792Z</time></trkpt><trkpt lat="44.2751839" lon="9.537743"><ele>330.0</ele><time>2026-04-29T12:08:31.792Z</time></trkpt><trkpt lat="44.275083" lon="9.5377114"><ele>330.0</ele><time>2026-04-29T12:08:32.792Z</time></trkpt><trkpt lat="44.2749812" lon="9.5376556"><ele>330.0</ele><time>2026-04-29T12:08:33.792Z</time></trkpt><trkpt lat="44.2748777" lon="9.5375934"><ele>330.0</ele><time>2026-04-29T12:08:34.792Z</time></trkpt><trkpt lat="44.2747862" lon="9.5375242"><ele>326.8</ele><time>2026-04-29T12:08:35.793Z</time></trkpt><trkpt lat="44.2747087" lon="9.5374307"><ele>323.6</ele><time>2026-04-29T12:08:36.792Z</time></trkpt><trkpt lat="44.2746303" lon="9.5373266"><ele>320.4</ele><time>2026-04-29T12:08:37.792Z</time></trkpt><trkpt lat="44.2745586" lon="9.5372263"><ele>317.2</ele><time>2026-04-29T12:08:38.792Z</time></trkpt><trkpt lat="44.2745093" lon="9.5371282"><ele>314.0</ele><time>2026-04-29T12:08:39.792Z</time></trkpt><trkpt lat="44.274482" lon="9.5370168"><ele>314.0</ele><time>2026-04-29T12:08:40.791Z</time></trkpt><trkpt lat="44.2744709" lon="9.5368866"><ele>314.0</ele><time>2026-04-29T12:08:41.792Z</time></trkpt><trkpt lat="44.2744665" lon="9.5367333"><ele>314.0</ele><time>2026-04-29T12:08:42.792Z</time></trkpt><trkpt lat="44.2744642" lon="9.5365636"><ele>314.0</ele><time>2026-04-29T12:08:43.791Z</time></trkpt><trkpt lat="44.2744589" lon="9.5363732"><ele>314.0</ele><time>2026-04-29T12:08:44.792Z</time></trkpt><trkpt lat="44.2744518" lon="9.5361723"><ele>314.0</ele><time>2026-04-29T12:08:45.792Z</time></trkpt><trkpt lat="44.274447" lon="9.5359877"><ele>314.0</ele><time>2026-04-29T12:08:46.792Z</time></trkpt><trkpt lat="44.2744444" lon="9.5358169"><ele>314.0</ele><time>2026-04-29T12:08:47.791Z</time></trkpt><trkpt lat="44.2744442" lon="9.5356561"><ele>314.0</ele><time>2026-04-29T12:08:48.792Z</time></trkpt><trkpt lat="44.2744628" lon="9.5355067"><ele>314.0</ele><time>2026-04-29T12:08:49.792Z</time></trkpt><trkpt lat="44.2745037" lon="9.5353749"><ele>314.0</ele><time>2026-04-29T12:08:50.792Z</time></trkpt><trkpt lat="44.2745665" lon="9.5352646"><ele>314.0</ele><time>2026-04-29T12:08:51.792Z</time></trkpt><trkpt lat="44.2746529" lon="9.5351856"><ele>314.0</ele><time>2026-04-29T12:08:52.793Z</time></trkpt><trkpt lat="44.2747444" lon="9.5351281"><ele>317.79999999999995</ele><time>2026-04-29T12:08:53.793Z</time></trkpt><trkpt lat="44.2748155" lon="9.5350476"><ele>321.59999999999997</ele><time>2026-04-29T12:08:54.793Z</time></trkpt><trkpt lat="44.2748546" lon="9.5349319"><ele>325.4</ele><time>2026-04-29T12:08:55.793Z</time></trkpt><trkpt lat="44.274865" lon="9.5347919"><ele>329.2</ele><time>2026-04-29T12:08:56.792Z</time></trkpt><trkpt lat="44.2748618" lon="9.5346294"><ele>333.0</ele><time>2026-04-29T12:08:57.792Z</time></trkpt><trkpt lat="44.2748561" lon="9.5344648"><ele>333.0</ele><time>2026-04-29T12:08:58.793Z</time></trkpt><trkpt lat="44.2748512" lon="9.5343179"><ele>333.0</ele><time>2026-04-29T12:08:59.792Z</time></trkpt><trkpt lat="44.2748409" lon="9.5341861"><ele>333.0</ele><time>2026-04-29T12:09:00.792Z</time></trkpt><trkpt lat="44.2748292" lon="9.5340676"><ele>333.0</ele><time>2026-04-29T12:09:01.792Z</time></trkpt><trkpt lat="44.2748275" lon="9.5339446"><ele>333.0</ele><time>2026-04-29T12:09:02.792Z</time></trkpt><trkpt lat="44.274842" lon="9.5338244"><ele>333.0</ele><time>2026-04-29T12:09:03.793Z</time></trkpt><trkpt lat="44.2748674" lon="9.5337275"><ele>333.0</ele><time>2026-04-29T12:09:04.791Z</time></trkpt><trkpt lat="44.2748921" lon="9.5335684"><ele>333.0</ele><time>2026-04-29T12:09:06.792Z</time></trkpt><trkpt lat="44.2748664" lon="9.5334343"><ele>333.0</ele><time>2026-04-29T12:09:08.792Z</time></trkpt><trkpt lat="44.2748893" lon="9.5333085"><ele>333.0</ele><time>2026-04-29T12:09:10.793Z</time></trkpt><trkpt lat="44.2749885" lon="9.5332662"><ele>331.2</ele><time>2026-04-29T12:09:12.793Z</time></trkpt><trkpt lat="44.2750635" lon="9.533255"><ele>329.4</ele><time>2026-04-29T12:09:13.793Z</time></trkpt><trkpt lat="44.2751565" lon="9.5332355"><ele>327.59999999999997</ele><time>2026-04-29T12:09:14.793Z</time></trkpt><trkpt lat="44.275251" lon="9.5331986"><ele>325.79999999999995</ele><time>2026-04-29T12:09:15.792Z</time></trkpt><trkpt lat="44.2753331" lon="9.5331329"><ele>324.0</ele><time>2026-04-29T12:09:16.791Z</time></trkpt><trkpt lat="44.2753956" lon="9.5330292"><ele>324.0</ele><time>2026-04-29T12:09:17.792Z</time></trkpt><trkpt lat="44.2754215" lon="9.5328919"><ele>324.0</ele><time>2026-04-29T12:09:18.792Z</time></trkpt><trkpt lat="44.2754155" lon="9.5327343"><ele>324.0</ele><time>2026-04-29T12:09:19.792Z</time></trkpt><trkpt lat="44.2753885" lon="9.5325609"><ele>324.0</ele><time>2026-04-29T12:09:20.792Z</time></trkpt><trkpt lat="44.2753465" lon="9.5323823"><ele>321.8</ele><time>2026-04-29T12:09:21.792Z</time></trkpt><trkpt lat="44.2753126" lon="9.5322213"><ele>319.59999999999997</ele><time>2026-04-29T12:09:22.791Z</time></trkpt><trkpt lat="44.275291" lon="9.5320787"><ele>317.4</ele><time>2026-04-29T12:09:23.792Z</time></trkpt><trkpt lat="44.2753015" lon="9.531942"><ele>315.2</ele><time>2026-04-29T12:09:24.792Z</time></trkpt><trkpt lat="44.2753518" lon="9.5318186"><ele>313.0</ele><time>2026-04-29T12:09:25.792Z</time></trkpt><trkpt lat="44.2754365" lon="9.5317235"><ele>314.25</ele><time>2026-04-29T12:09:26.793Z</time></trkpt><trkpt lat="44.2755419" lon="9.5316431"><ele>315.5</ele><time>2026-04-29T12:09:27.793Z</time></trkpt><trkpt lat="44.2756643" lon="9.5315625"><ele>316.75</ele><time>2026-04-29T12:09:28.793Z</time></trkpt><trkpt lat="44.2758005" lon="9.5314706"><ele>318.0</ele><time>2026-04-29T12:09:29.792Z</time></trkpt><trkpt lat="44.2759484" lon="9.5313699"><ele>318.0</ele><time>2026-04-29T12:09:30.793Z</time></trkpt><trkpt lat="44.2760865" lon="9.5312769"><ele>318.0</ele><time>2026-04-29T12:09:31.792Z</time></trkpt><trkpt lat="44.276222" lon="9.5311887"><ele>318.0</ele><time>2026-04-29T12:09:32.792Z</time></trkpt><trkpt lat="44.2763466" lon="9.5311058"><ele>318.0</ele><time>2026-04-29T12:09:33.792Z</time></trkpt><trkpt lat="44.2764556" lon="9.5310307"><ele>318.6</ele><time>2026-04-29T12:09:34.792Z</time></trkpt><trkpt lat="44.2765551" lon="9.530952"><ele>319.20000000000005</ele><time>2026-04-29T12:09:35.792Z</time></trkpt><trkpt lat="44.2766418" lon="9.5308566"><ele>319.8</ele><time>2026-04-29T12:09:36.792Z</time></trkpt><trkpt lat="44.276697" lon="9.5307412"><ele>320.40000000000003</ele><time>2026-04-29T12:09:37.792Z</time></trkpt><trkpt lat="44.2767128" lon="9.5306257"><ele>321.0</ele><time>2026-04-29T12:09:38.792Z</time></trkpt><trkpt lat="44.2766812" lon="9.5305274"><ele>321.0</ele><time>2026-04-29T12:09:39.792Z</time></trkpt><trkpt lat="44.2766138" lon="9.5304643"><ele>321.0</ele><time>2026-04-29T12:09:40.793Z</time></trkpt><trkpt lat="44.2765165" lon="9.530416"><ele>321.0</ele><time>2026-04-29T12:09:41.792Z</time></trkpt><trkpt lat="44.2763905" lon="9.5303402"><ele>321.0</ele><time>2026-04-29T12:09:42.792Z</time></trkpt><trkpt lat="44.2762739" lon="9.5302487"><ele>316.0</ele><time>2026-04-29T12:09:43.793Z</time></trkpt><trkpt lat="44.2761667" lon="9.530136"><ele>311.0</ele><time>2026-04-29T12:09:44.793Z</time></trkpt><trkpt lat="44.2760639" lon="9.5300018"><ele>306.0</ele><time>2026-04-29T12:09:45.793Z</time></trkpt><trkpt lat="44.2759492" lon="9.5298698"><ele>301.0</ele><time>2026-04-29T12:09:46.792Z</time></trkpt><trkpt lat="44.2758156" lon="9.5297598"><ele>301.0</ele><time>2026-04-29T12:09:47.793Z</time></trkpt><trkpt lat="44.2756762" lon="9.5296553"><ele>301.0</ele><time>2026-04-29T12:09:48.792Z</time></trkpt><trkpt lat="44.2755473" lon="9.5295611"><ele>301.0</ele><time>2026-04-29T12:09:49.793Z</time></trkpt><trkpt lat="44.2754254" lon="9.5294756"><ele>301.0</ele><time>2026-04-29T12:09:50.792Z</time></trkpt><trkpt lat="44.2753196" lon="9.5293707"><ele>300.0</ele><time>2026-04-29T12:09:51.792Z</time></trkpt><trkpt lat="44.2752311" lon="9.5292276"><ele>299.0</ele><time>2026-04-29T12:09:52.792Z</time></trkpt><trkpt lat="44.2751664" lon="9.5290509"><ele>298.0</ele><time>2026-04-29T12:09:53.792Z</time></trkpt><trkpt lat="44.2751202" lon="9.5288518"><ele>297.0</ele><time>2026-04-29T12:09:54.792Z</time></trkpt><trkpt lat="44.2750867" lon="9.5286549"><ele>297.0</ele><time>2026-04-29T12:09:55.792Z</time></trkpt><trkpt lat="44.2750602" lon="9.5284696"><ele>297.0</ele><time>2026-04-29T12:09:56.792Z</time></trkpt><trkpt lat="44.2750703" lon="9.5282941"><ele>297.0</ele><time>2026-04-29T12:09:57.792Z</time></trkpt><trkpt lat="44.2751199" lon="9.528136"><ele>297.0</ele><time>2026-04-29T12:09:58.793Z</time></trkpt><trkpt lat="44.2752036" lon="9.5279913"><ele>294.25</ele><time>2026-04-29T12:09:59.792Z</time></trkpt><trkpt lat="44.2753102" lon="9.5278537"><ele>291.5</ele><time>2026-04-29T12:10:00.792Z</time></trkpt><trkpt lat="44.2754121" lon="9.5277291"><ele>288.75</ele><time>2026-04-29T12:10:01.792Z</time></trkpt><trkpt lat="44.2755018" lon="9.5276151"><ele>286.0</ele><time>2026-04-29T12:10:02.792Z</time></trkpt><trkpt lat="44.2755914" lon="9.5275047"><ele>290.0</ele><time>2026-04-29T12:10:03.792Z</time></trkpt><trkpt lat="44.2756923" lon="9.5274128"><ele>294.0</ele><time>2026-04-29T12:10:04.792Z</time></trkpt><trkpt lat="44.2758155" lon="9.5273519"><ele>298.0</ele><time>2026-04-29T12:10:05.793Z</time></trkpt><trkpt lat="44.2759571" lon="9.527331"><ele>302.0</ele><time>2026-04-29T12:10:06.793Z</time></trkpt><trkpt lat="44.2761008" lon="9.5273243"><ele>302.0</ele><time>2026-04-29T12:10:07.793Z</time></trkpt><trkpt lat="44.2762368" lon="9.5272975"><ele>302.0</ele><time>2026-04-29T12:10:08.792Z</time></trkpt><trkpt lat="44.276382" lon="9.5272296"><ele>302.0</ele><time>2026-04-29T12:10:09.793Z</time></trkpt><trkpt lat="44.2765346" lon="9.527125"><ele>297.33333333333337</ele><time>2026-04-29T12:10:10.792Z</time></trkpt><trkpt lat="44.2766938" lon="9.5270006"><ele>292.6666666666667</ele><time>2026-04-29T12:10:11.793Z</time></trkpt><trkpt lat="44.2768368" lon="9.5268965"><ele>288.0</ele><time>2026-04-29T12:10:12.792Z</time></trkpt><trkpt lat="44.2769684" lon="9.5268034"><ele>288.0</ele><time>2026-04-29T12:10:13.792Z</time></trkpt><trkpt lat="44.2770899" lon="9.526717"><ele>288.0</ele><time>2026-04-29T12:10:14.793Z</time></trkpt><trkpt lat="44.2771965" lon="9.5266341"><ele>288.0</ele><time>2026-04-29T12:10:15.793Z</time></trkpt><trkpt lat="44.2772844" lon="9.5265435"><ele>288.0</ele><time>2026-04-29T12:10:16.792Z</time></trkpt><trkpt lat="44.2773532" lon="9.5264319"><ele>291.2</ele><time>2026-04-29T12:10:17.792Z</time></trkpt><trkpt lat="44.2773987" lon="9.5263028"><ele>294.4</ele><time>2026-04-29T12:10:18.792Z</time></trkpt><trkpt lat="44.2774162" lon="9.5261618"><ele>297.59999999999997</ele><time>2026-04-29T12:10:19.792Z</time></trkpt><trkpt lat="44.2774004" lon="9.5260212"><ele>300.8</ele><time>2026-04-29T12:10:20.792Z</time></trkpt><trkpt lat="44.2773549" lon="9.5258935"><ele>304.0</ele><time>2026-04-29T12:10:21.792Z</time></trkpt><trkpt lat="44.2772841" lon="9.5257779"><ele>302.75</ele><time>2026-04-29T12:10:22.792Z</time></trkpt><trkpt lat="44.2771924" lon="9.5256793"><ele>301.5</ele><time>2026-04-29T12:10:23.793Z</time></trkpt><trkpt lat="44.2770844" lon="9.525582"><ele>300.25</ele><time>2026-04-29T12:10:24.793Z</time></trkpt><trkpt lat="44.2769639" lon="9.5254756"><ele>299.0</ele><time>2026-04-29T12:10:25.793Z</time></trkpt><trkpt lat="44.276821" lon="9.5253638"><ele>299.0</ele><time>2026-04-29T12:10:26.792Z</time></trkpt><trkpt lat="44.2766468" lon="9.5252553"><ele>299.0</ele><time>2026-04-29T12:10:27.792Z</time></trkpt><trkpt lat="44.2764739" lon="9.5251654"><ele>299.0</ele><time>2026-04-29T12:10:28.792Z</time></trkpt><trkpt lat="44.2763134" lon="9.5250831"><ele>290.0</ele><time>2026-04-29T12:10:29.792Z</time></trkpt><trkpt lat="44.2761706" lon="9.5249765"><ele>281.0</ele><time>2026-04-29T12:10:30.793Z</time></trkpt><trkpt lat="44.2760418" lon="9.5248241"><ele>272.0</ele><time>2026-04-29T12:10:31.792Z</time></trkpt><trkpt lat="44.2759142" lon="9.5246583"><ele>270.0</ele><time>2026-04-29T12:10:32.792Z</time></trkpt><trkpt lat="44.2757762" lon="9.524528"><ele>268.0</ele><time>2026-04-29T12:10:33.793Z</time></trkpt><trkpt lat="44.2756459" lon="9.5244232"><ele>266.0</ele><time>2026-04-29T12:10:34.793Z</time></trkpt><trkpt lat="44.2755321" lon="9.5243264"><ele>266.0</ele><time>2026-04-29T12:10:35.792Z</time></trkpt><trkpt lat="44.2754372" lon="9.5242187"><ele>266.0</ele><time>2026-04-29T12:10:36.792Z</time></trkpt><trkpt lat="44.2753674" lon="9.5240894"><ele>266.0</ele><time>2026-04-29T12:10:37.793Z</time></trkpt><trkpt lat="44.2753414" lon="9.5239362"><ele>266.0</ele><time>2026-04-29T12:10:38.793Z</time></trkpt><trkpt lat="44.2753315" lon="9.5237625"><ele>266.0</ele><time>2026-04-29T12:10:39.792Z</time></trkpt><trkpt lat="44.2753306" lon="9.5235658"><ele>266.0</ele><time>2026-04-29T12:10:40.793Z</time></trkpt><trkpt lat="44.2753274" lon="9.5233997"><ele>266.0</ele><time>2026-04-29T12:10:41.793Z</time></trkpt><trkpt lat="44.2753257" lon="9.5232443"><ele>266.0</ele><time>2026-04-29T12:10:42.793Z</time></trkpt><trkpt lat="44.2753234" lon="9.5230959"><ele>266.0</ele><time>2026-04-29T12:10:43.793Z</time></trkpt><trkpt lat="44.2753256" lon="9.5229551"><ele>266.0</ele><time>2026-04-29T12:10:44.792Z</time></trkpt><trkpt lat="44.2753393" lon="9.5228116"><ele>266.0</ele><time>2026-04-29T12:10:45.792Z</time></trkpt><trkpt lat="44.2753794" lon="9.5226657"><ele>266.0</ele><time>2026-04-29T12:10:46.791Z</time></trkpt><trkpt lat="44.2754488" lon="9.5225219"><ele>266.0</ele><time>2026-04-29T12:10:47.791Z</time></trkpt><trkpt lat="44.2755421" lon="9.5223755"><ele>266.0</ele><time>2026-04-29T12:10:48.792Z</time></trkpt><trkpt lat="44.2756367" lon="9.5222414"><ele>266.0</ele><time>2026-04-29T12:10:49.792Z</time></trkpt><trkpt lat="44.2757224" lon="9.5221245"><ele>266.0</ele><time>2026-04-29T12:10:50.792Z</time></trkpt><trkpt lat="44.2758019" lon="9.5220171"><ele>266.0</ele><time>2026-04-29T12:10:51.792Z</time></trkpt><trkpt lat="44.275871" lon="9.5219165"><ele>266.0</ele><time>2026-04-29T12:10:52.792Z</time></trkpt><trkpt lat="44.275934" lon="9.5218262"><ele>266.0</ele><time>2026-04-29T12:10:53.793Z</time></trkpt><trkpt lat="44.2759929" lon="9.5217424"><ele>266.0</ele><time>2026-04-29T12:10:54.793Z</time></trkpt><trkpt lat="44.2760549" lon="9.5216609"><ele>266.0</ele><time>2026-04-29T12:10:55.792Z</time></trkpt><trkpt lat="44.2761254" lon="9.5215899"><ele>266.0</ele><time>2026-04-29T12:10:56.793Z</time></trkpt><trkpt lat="44.276204" lon="9.5215368"><ele>266.0</ele><time>2026-04-29T12:10:57.793Z</time></trkpt><trkpt lat="44.27629" lon="9.5215028"><ele>266.0</ele><time>2026-04-29T12:10:58.791Z</time></trkpt><trkpt lat="44.2763798" lon="9.5214815"><ele>266.0</ele><time>2026-04-29T12:10:59.791Z</time></trkpt><trkpt lat="44.276469" lon="9.5214488"><ele>266.0</ele><time>2026-04-29T12:11:00.79Z</time></trkpt><trkpt lat="44.2765542" lon="9.5213783"><ele>266.0</ele><time>2026-04-29T12:11:01.792Z</time></trkpt><trkpt lat="44.2766251" lon="9.5212864"><ele>266.0</ele><time>2026-04-29T12:11:02.791Z</time></trkpt><trkpt lat="44.2766743" lon="9.5211665"><ele>268.2</ele><time>2026-04-29T12:11:03.791Z</time></trkpt><trkpt lat="44.2767015" lon="9.5210283"><ele>270.40000000000003</ele><time>2026-04-29T12:11:04.791Z</time></trkpt><trkpt lat="44.2767005" lon="9.520881"><ele>272.6</ele><time>2026-04-29T12:11:05.791Z</time></trkpt><trkpt lat="44.276669" lon="9.5207453"><ele>274.8</ele><time>2026-04-29T12:11:06.792Z</time></trkpt><trkpt lat="44.2766065" lon="9.5206244"><ele>277.0</ele><time>2026-04-29T12:11:07.792Z</time></trkpt><trkpt lat="44.2765218" lon="9.5205342"><ele>276.5</ele><time>2026-04-29T12:11:08.791Z</time></trkpt><trkpt lat="44.2764188" lon="9.5204717"><ele>276.0</ele><time>2026-04-29T12:11:09.792Z</time></trkpt><trkpt lat="44.276299" lon="9.5204232"><ele>275.5</ele><time>2026-04-29T12:11:10.791Z</time></trkpt><trkpt lat="44.2761747" lon="9.5203609"><ele>275.0</ele><time>2026-04-29T12:11:11.792Z</time></trkpt><trkpt lat="44.2760578" lon="9.5202872"><ele>275.0</ele><time>2026-04-29T12:11:12.79Z</time></trkpt><trkpt lat="44.2759532" lon="9.5202064"><ele>275.0</ele><time>2026-04-29T12:11:13.791Z</time></trkpt><trkpt lat="44.2758591" lon="9.520115"><ele>275.0</ele><time>2026-04-29T12:11:14.791Z</time></trkpt><trkpt lat="44.2757609" lon="9.5200152"><ele>275.0</ele><time>2026-04-29T12:11:15.791Z</time></trkpt><trkpt lat="44.2756613" lon="9.5199173"><ele>272.2</ele><time>2026-04-29T12:11:16.792Z</time></trkpt><trkpt lat="44.2755683" lon="9.5198182"><ele>269.4</ele><time>2026-04-29T12:11:17.791Z</time></trkpt><trkpt lat="44.2754922" lon="9.5197296"><ele>266.6</ele><time>2026-04-29T12:11:18.791Z</time></trkpt><trkpt lat="44.2754435" lon="9.5196274"><ele>263.8</ele><time>2026-04-29T12:11:19.791Z</time></trkpt><trkpt lat="44.2754171" lon="9.5195188"><ele>261.0</ele><time>2026-04-29T12:11:20.791Z</time></trkpt><trkpt lat="44.2754159" lon="9.5194064"><ele>261.0</ele><time>2026-04-29T12:11:21.792Z</time></trkpt><trkpt lat="44.2754345" lon="9.5192897"><ele>261.0</ele><time>2026-04-29T12:11:22.791Z</time></trkpt><trkpt lat="44.275461" lon="9.5191601"><ele>261.0</ele><time>2026-04-29T12:11:23.792Z</time></trkpt><trkpt lat="44.2754964" lon="9.519009"><ele>261.0</ele><time>2026-04-29T12:11:24.792Z</time></trkpt><trkpt lat="44.2755373" lon="9.5188232"><ele>261.0</ele><time>2026-04-29T12:11:25.792Z</time></trkpt><trkpt lat="44.2755875" lon="9.5186244"><ele>264.6</ele><time>2026-04-29T12:11:26.792Z</time></trkpt><trkpt lat="44.2756422" lon="9.5184467"><ele>268.20000000000005</ele><time>2026-04-29T12:11:27.792Z</time></trkpt><trkpt lat="44.2756956" lon="9.5182989"><ele>271.79999999999995</ele><time>2026-04-29T12:11:28.791Z</time></trkpt><trkpt lat="44.2757338" lon="9.5181717"><ele>275.4</ele><time>2026-04-29T12:11:29.791Z</time></trkpt><trkpt lat="44.2757378" lon="9.5180414"><ele>279.0</ele><time>2026-04-29T12:11:30.791Z</time></trkpt><trkpt lat="44.2757028" lon="9.5179105"><ele>280.5</ele><time>2026-04-29T12:11:31.792Z</time></trkpt><trkpt lat="44.2756356" lon="9.5178069"><ele>282.0</ele><time>2026-04-29T12:11:32.792Z</time></trkpt><trkpt lat="44.2755651" lon="9.517728"><ele>283.5</ele><time>2026-04-29T12:11:33.792Z</time></trkpt><trkpt lat="44.2754977" lon="9.5176528"><ele>285.0</ele><time>2026-04-29T12:11:34.791Z</time></trkpt><trkpt lat="44.2754333" lon="9.5175827"><ele>286.5</ele><time>2026-04-29T12:11:35.791Z</time></trkpt><trkpt lat="44.2753714" lon="9.5175165"><ele>288.0</ele><time>2026-04-29T12:11:36.792Z</time></trkpt><trkpt lat="44.2753161" lon="9.5174491"><ele>285.5</ele><time>2026-04-29T12:11:37.791Z</time></trkpt><trkpt lat="44.2752619" lon="9.5173724"><ele>283.0</ele><time>2026-04-29T12:11:38.792Z</time></trkpt><trkpt lat="44.2752119" lon="9.5172884"><ele>280.5</ele><time>2026-04-29T12:11:39.79Z</time></trkpt><trkpt lat="44.275162" lon="9.5171973"><ele>278.0</ele><time>2026-04-29T12:11:40.791Z</time></trkpt><trkpt lat="44.2751123" lon="9.5170961"><ele>275.5</ele><time>2026-04-29T12:11:41.791Z</time></trkpt><trkpt lat="44.275065" lon="9.5169851"><ele>273.0</ele><time>2026-04-29T12:11:42.792Z</time></trkpt><trkpt lat="44.2750228" lon="9.5168655"><ele>273.0</ele><time>2026-04-29T12:11:43.791Z</time></trkpt><trkpt lat="44.2749919" lon="9.516742"><ele>273.0</ele><time>2026-04-29T12:11:44.792Z</time></trkpt><trkpt lat="44.2749731" lon="9.516617"><ele>273.0</ele><time>2026-04-29T12:11:45.791Z</time></trkpt><trkpt lat="44.2749528" lon="9.5164928"><ele>273.0</ele><time>2026-04-29T12:11:46.791Z</time></trkpt><trkpt lat="44.2749185" lon="9.5163728"><ele>273.0</ele><time>2026-04-29T12:11:47.791Z</time></trkpt><trkpt lat="44.2748704" lon="9.5162573"><ele>270.2</ele><time>2026-04-29T12:11:48.792Z</time></trkpt><trkpt lat="44.2748129" lon="9.5161469"><ele>267.4</ele><time>2026-04-29T12:11:49.792Z</time></trkpt><trkpt lat="44.2747442" lon="9.51604"><ele>264.59999999999997</ele><time>2026-04-29T12:11:50.79Z</time></trkpt><trkpt lat="44.2746646" lon="9.5159316"><ele>261.8</ele><time>2026-04-29T12:11:51.791Z</time></trkpt><trkpt lat="44.2745763" lon="9.5158184"><ele>259.0</ele><time>2026-04-29T12:11:52.792Z</time></trkpt><trkpt lat="44.2744887" lon="9.5157111"><ele>259.0</ele><time>2026-04-29T12:11:53.791Z</time></trkpt><trkpt lat="44.2744033" lon="9.5156156"><ele>259.0</ele><time>2026-04-29T12:11:54.791Z</time></trkpt><trkpt lat="44.2743146" lon="9.515537"><ele>259.0</ele><time>2026-04-29T12:11:55.792Z</time></trkpt><trkpt lat="44.2742236" lon="9.5154791"><ele>259.0</ele><time>2026-04-29T12:11:56.792Z</time></trkpt><trkpt lat="44.2741356" lon="9.5154262"><ele>259.0</ele><time>2026-04-29T12:11:57.791Z</time></trkpt><trkpt lat="44.2740546" lon="9.5153768"><ele>256.5</ele><time>2026-04-29T12:11:58.791Z</time></trkpt><trkpt lat="44.2739811" lon="9.5153242"><ele>254.0</ele><time>2026-04-29T12:11:59.791Z</time></trkpt><trkpt lat="44.2739183" lon="9.5152564"><ele>251.5</ele><time>2026-04-29T12:12:00.792Z</time></trkpt><trkpt lat="44.2738703" lon="9.5151701"><ele>249.0</ele><time>2026-04-29T12:12:01.792Z</time></trkpt><trkpt lat="44.273834" lon="9.5150602"><ele>246.49999999999997</ele><time>2026-04-29T12:12:02.792Z</time></trkpt><trkpt lat="44.2737923" lon="9.5149491"><ele>244.0</ele><time>2026-04-29T12:12:03.792Z</time></trkpt><trkpt lat="44.2737638" lon="9.5148371"><ele>243.99999999999997</ele><time>2026-04-29T12:12:04.792Z</time></trkpt><trkpt lat="44.2737395" lon="9.514724"><ele>244.0</ele><time>2026-04-29T12:12:05.792Z</time></trkpt><trkpt lat="44.2737227" lon="9.514611"><ele>244.0</ele><time>2026-04-29T12:12:06.792Z</time></trkpt><trkpt lat="44.273721" lon="9.5144992"><ele>244.0</ele><time>2026-04-29T12:12:07.791Z</time></trkpt><trkpt lat="44.2737392" lon="9.5143984"><ele>243.99999999999997</ele><time>2026-04-29T12:12:08.79Z</time></trkpt><trkpt lat="44.2737792" lon="9.5143158"><ele>244.0</ele><time>2026-04-29T12:12:09.791Z</time></trkpt><trkpt lat="44.2738368" lon="9.5142498"><ele>244.79999999999998</ele><time>2026-04-29T12:12:10.791Z</time></trkpt><trkpt lat="44.273907" lon="9.5141935"><ele>245.59999999999997</ele><time>2026-04-29T12:12:11.79Z</time></trkpt><trkpt lat="44.2739892" lon="9.5141325"><ele>246.4</ele><time>2026-04-29T12:12:12.792Z</time></trkpt><trkpt lat="44.274082" lon="9.514063"><ele>247.2</ele><time>2026-04-29T12:12:13.79Z</time></trkpt><trkpt lat="44.2741835" lon="9.5139856"><ele>248.0</ele><time>2026-04-29T12:12:14.791Z</time></trkpt><trkpt lat="44.2742869" lon="9.5139049"><ele>248.0</ele><time>2026-04-29T12:12:15.791Z</time></trkpt><trkpt lat="44.2743875" lon="9.5138257"><ele>248.0</ele><time>2026-04-29T12:12:16.791Z</time></trkpt><trkpt lat="44.2744839" lon="9.5137392"><ele>248.0</ele><time>2026-04-29T12:12:17.792Z</time></trkpt><trkpt lat="44.2745731" lon="9.5136409"><ele>248.0</ele><time>2026-04-29T12:12:18.792Z</time></trkpt><trkpt lat="44.2746462" lon="9.5135186"><ele>248.0</ele><time>2026-04-29T12:12:19.791Z</time></trkpt><trkpt lat="44.2747026" lon="9.5133829"><ele>248.0</ele><time>2026-04-29T12:12:20.791Z</time></trkpt><trkpt lat="44.2747518" lon="9.5132422"><ele>248.0</ele><time>2026-04-29T12:12:21.791Z</time></trkpt><trkpt lat="44.2747993" lon="9.513101"><ele>248.0</ele><time>2026-04-29T12:12:22.79Z</time></trkpt><trkpt lat="44.2748454" lon="9.512962"><ele>248.0</ele><time>2026-04-29T12:12:23.791Z</time></trkpt><trkpt lat="44.2748951" lon="9.5128332"><ele>248.16666666666669</ele><time>2026-04-29T12:12:24.791Z</time></trkpt><trkpt lat="44.2749407" lon="9.5127246"><ele>248.33333333333334</ele><time>2026-04-29T12:12:25.79Z</time></trkpt><trkpt lat="44.2749913" lon="9.5126375"><ele>248.5</ele><time>2026-04-29T12:12:26.792Z</time></trkpt><trkpt lat="44.2750481" lon="9.5125761"><ele>248.66666666666669</ele><time>2026-04-29T12:12:27.792Z</time></trkpt><trkpt lat="44.2751154" lon="9.5125542"><ele>248.83333333333334</ele><time>2026-04-29T12:12:28.79Z</time></trkpt><trkpt lat="44.2751897" lon="9.5125665"><ele>249.0</ele><time>2026-04-29T12:12:29.79Z</time></trkpt><trkpt lat="44.2752719" lon="9.512608"><ele>249.0</ele><time>2026-04-29T12:12:30.791Z</time></trkpt><trkpt lat="44.2753578" lon="9.5126576"><ele>249.0</ele><time>2026-04-29T12:12:31.791Z</time></trkpt><trkpt lat="44.275442" lon="9.512685"><ele>249.0</ele><time>2026-04-29T12:12:32.792Z</time></trkpt><trkpt lat="44.2755259" lon="9.5126696"><ele>249.0</ele><time>2026-04-29T12:12:33.791Z</time></trkpt><trkpt lat="44.2755898" lon="9.5126057"><ele>249.0</ele><time>2026-04-29T12:12:34.792Z</time></trkpt><trkpt lat="44.275621" lon="9.5125063"><ele>249.0</ele><time>2026-04-29T12:12:35.792Z</time></trkpt><trkpt lat="44.2756088" lon="9.512394"><ele>249.0</ele><time>2026-04-29T12:12:36.791Z</time></trkpt><trkpt lat="44.2755727" lon="9.5122666"><ele>249.0</ele><time>2026-04-29T12:12:37.79Z</time></trkpt><trkpt lat="44.2755161" lon="9.5121113"><ele>249.0</ele><time>2026-04-29T12:12:38.791Z</time></trkpt><trkpt lat="44.275458" lon="9.5119352"><ele>249.0</ele><time>2026-04-29T12:12:39.792Z</time></trkpt><trkpt lat="44.275396" lon="9.5117758"><ele>249.25</ele><time>2026-04-29T12:12:40.791Z</time></trkpt><trkpt lat="44.2753218" lon="9.5116288"><ele>249.5</ele><time>2026-04-29T12:12:41.79Z</time></trkpt><trkpt lat="44.2752367" lon="9.5114911"><ele>249.75</ele><time>2026-04-29T12:12:42.791Z</time></trkpt><trkpt lat="44.2751517" lon="9.511351"><ele>250.0</ele><time>2026-04-29T12:12:43.791Z</time></trkpt><trkpt lat="44.275067" lon="9.5112176"><ele>250.0</ele><time>2026-04-29T12:12:44.791Z</time></trkpt><trkpt lat="44.2749725" lon="9.5111037"><ele>250.0</ele><time>2026-04-29T12:12:45.791Z</time></trkpt><trkpt lat="44.274873" lon="9.5109994"><ele>250.0</ele><time>2026-04-29T12:12:46.792Z</time></trkpt><trkpt lat="44.2747733" lon="9.5109068"><ele>250.0</ele><time>2026-04-29T12:12:47.791Z</time></trkpt><trkpt lat="44.2746669" lon="9.5108364"><ele>245.0</ele><time>2026-04-29T12:12:48.79Z</time></trkpt><trkpt lat="44.2745571" lon="9.5107898"><ele>240.0</ele><time>2026-04-29T12:12:49.791Z</time></trkpt><trkpt lat="44.2744464" lon="9.5107491"><ele>235.0</ele><time>2026-04-29T12:12:50.791Z</time></trkpt><trkpt lat="44.2743335" lon="9.5107352"><ele>230.0</ele><time>2026-04-29T12:12:51.791Z</time></trkpt><trkpt lat="44.2742133" lon="9.5107453"><ele>230.0</ele><time>2026-04-29T12:12:52.79Z</time></trkpt><trkpt lat="44.2740924" lon="9.5107727"><ele>230.0</ele><time>2026-04-29T12:12:53.792Z</time></trkpt><trkpt lat="44.2739749" lon="9.5108035"><ele>230.0</ele><time>2026-04-29T12:12:54.791Z</time></trkpt><trkpt lat="44.2738603" lon="9.5108216"><ele>230.0</ele><time>2026-04-29T12:12:55.792Z</time></trkpt><trkpt lat="44.2737507" lon="9.510808"><ele>226.8</ele><time>2026-04-29T12:12:56.792Z</time></trkpt><trkpt lat="44.2736565" lon="9.5107527"><ele>223.6</ele><time>2026-04-29T12:12:57.792Z</time></trkpt><trkpt lat="44.273582" lon="9.5106538"><ele>220.39999999999998</ele><time>2026-04-29T12:12:58.791Z</time></trkpt><trkpt lat="44.2735419" lon="9.5105246"><ele>217.2</ele><time>2026-04-29T12:12:59.791Z</time></trkpt><trkpt lat="44.2735406" lon="9.5103616"><ele>214.0</ele><time>2026-04-29T12:13:00.792Z</time></trkpt><trkpt lat="44.2735691" lon="9.5101671"><ele>214.0</ele><time>2026-04-29T12:13:01.792Z</time></trkpt><trkpt lat="44.2736046" lon="9.5099749"><ele>214.0</ele><time>2026-04-29T12:13:02.791Z</time></trkpt><trkpt lat="44.2736285" lon="9.5098073"><ele>214.0</ele><time>2026-04-29T12:13:03.791Z</time></trkpt><trkpt lat="44.2736733" lon="9.5096642"><ele>214.0</ele><time>2026-04-29T12:13:04.791Z</time></trkpt><trkpt lat="44.2737408" lon="9.5095771"><ele>214.0</ele><time>2026-04-29T12:13:05.791Z</time></trkpt><trkpt lat="44.2738253" lon="9.509548"><ele>213.99999999999997</ele><time>2026-04-29T12:13:06.791Z</time></trkpt><trkpt lat="44.2739122" lon="9.5095834"><ele>213.99999999999997</ele><time>2026-04-29T12:13:07.791Z</time></trkpt><trkpt lat="44.2739916" lon="9.509672"><ele>214.0</ele><time>2026-04-29T12:13:08.791Z</time></trkpt><trkpt lat="44.2740629" lon="9.5097617"><ele>214.0</ele><time>2026-04-29T12:13:09.79Z</time></trkpt><trkpt lat="44.2741457" lon="9.5098137"><ele>214.2</ele><time>2026-04-29T12:13:10.791Z</time></trkpt><trkpt lat="44.2742316" lon="9.5098024"><ele>214.39999999999998</ele><time>2026-04-29T12:13:11.79Z</time></trkpt><trkpt lat="44.2742957" lon="9.5097322"><ele>214.6</ele><time>2026-04-29T12:13:12.792Z</time></trkpt><trkpt lat="44.274339" lon="9.5096182"><ele>214.8</ele><time>2026-04-29T12:13:13.792Z</time></trkpt><trkpt lat="44.2743747" lon="9.5094796"><ele>215.0</ele><time>2026-04-29T12:13:14.791Z</time></trkpt><trkpt lat="44.2744191" lon="9.5093522"><ele>215.0</ele><time>2026-04-29T12:13:15.792Z</time></trkpt><trkpt lat="44.2744715" lon="9.5092229"><ele>215.0</ele><time>2026-04-29T12:13:16.791Z</time></trkpt><trkpt lat="44.2745039" lon="9.509095"><ele>215.0</ele><time>2026-04-29T12:13:17.792Z</time></trkpt><trkpt lat="44.2744958" lon="9.5089597"><ele>215.0</ele><time>2026-04-29T12:13:18.791Z</time></trkpt><trkpt lat="44.2744464" lon="9.5088295"><ele>215.0</ele><time>2026-04-29T12:13:19.791Z</time></trkpt><trkpt lat="44.2743737" lon="9.508693"><ele>214.25</ele><time>2026-04-29T12:13:20.79Z</time></trkpt><trkpt lat="44.2743032" lon="9.508529"><ele>213.5</ele><time>2026-04-29T12:13:21.792Z</time></trkpt><trkpt lat="44.2742259" lon="9.5083712"><ele>212.75</ele><time>2026-04-29T12:13:22.791Z</time></trkpt><trkpt lat="44.2741493" lon="9.5082223"><ele>212.0</ele><time>2026-04-29T12:13:23.791Z</time></trkpt><trkpt lat="44.2740699" lon="9.5080813"><ele>212.0</ele><time>2026-04-29T12:13:24.791Z</time></trkpt><trkpt lat="44.2739882" lon="9.5079484"><ele>212.0</ele><time>2026-04-29T12:13:25.791Z</time></trkpt><trkpt lat="44.2739036" lon="9.5078305"><ele>212.0</ele><time>2026-04-29T12:13:26.791Z</time></trkpt><trkpt lat="44.2738082" lon="9.5077384"><ele>212.0</ele><time>2026-04-29T12:13:27.791Z</time></trkpt><trkpt lat="44.2737065" lon="9.5076641"><ele>210.8</ele><time>2026-04-29T12:13:28.791Z</time></trkpt><trkpt lat="44.2735989" lon="9.5076143"><ele>209.6</ele><time>2026-04-29T12:13:29.791Z</time></trkpt><trkpt lat="44.2734899" lon="9.5075754"><ele>208.4</ele><time>2026-04-29T12:13:30.791Z</time></trkpt><trkpt lat="44.2733812" lon="9.5075421"><ele>207.20000000000002</ele><time>2026-04-29T12:13:31.791Z</time></trkpt><trkpt lat="44.2732713" lon="9.5075193"><ele>206.0</ele><time>2026-04-29T12:13:32.791Z</time></trkpt><trkpt lat="44.2731614" lon="9.5075147"><ele>202.5</ele><time>2026-04-29T12:13:33.791Z</time></trkpt><trkpt lat="44.2730476" lon="9.5075196"><ele>199.0</ele><time>2026-04-29T12:13:34.792Z</time></trkpt><trkpt lat="44.2729275" lon="9.5075284"><ele>195.5</ele><time>2026-04-29T12:13:35.792Z</time></trkpt><trkpt lat="44.2728009" lon="9.5075343"><ele>192.0</ele><time>2026-04-29T12:13:36.792Z</time></trkpt><trkpt lat="44.2726755" lon="9.5075231"><ele>192.0</ele><time>2026-04-29T12:13:37.791Z</time></trkpt><trkpt lat="44.2725646" lon="9.507486"><ele>192.0</ele><time>2026-04-29T12:13:38.791Z</time></trkpt><trkpt lat="44.2724753" lon="9.5074172"><ele>192.0</ele><time>2026-04-29T12:13:39.791Z</time></trkpt><trkpt lat="44.2724088" lon="9.5073103"><ele>192.0</ele><time>2026-04-29T12:13:40.79Z</time></trkpt><trkpt lat="44.2723707" lon="9.5071618"><ele>192.0</ele><time>2026-04-29T12:13:41.791Z</time></trkpt><trkpt lat="44.2723485" lon="9.5069751"><ele>192.75</ele><time>2026-04-29T12:13:42.792Z</time></trkpt><trkpt lat="44.2723429" lon="9.50679"><ele>193.5</ele><time>2026-04-29T12:13:43.792Z</time></trkpt><trkpt lat="44.2723642" lon="9.5066181"><ele>194.25</ele><time>2026-04-29T12:13:44.791Z</time></trkpt><trkpt lat="44.2724108" lon="9.5064703"><ele>195.0</ele><time>2026-04-29T12:13:45.792Z</time></trkpt><trkpt lat="44.272449" lon="9.5063346"><ele>194.25</ele><time>2026-04-29T12:13:46.792Z</time></trkpt><trkpt lat="44.2724479" lon="9.5061913"><ele>193.5</ele><time>2026-04-29T12:13:47.792Z</time></trkpt><trkpt lat="44.2724027" lon="9.5060314"><ele>192.75</ele><time>2026-04-29T12:13:48.792Z</time></trkpt><trkpt lat="44.2723344" lon="9.5058598"><ele>192.0</ele><time>2026-04-29T12:13:49.791Z</time></trkpt><trkpt lat="44.2722664" lon="9.5056903"><ele>184.75</ele><time>2026-04-29T12:13:50.79Z</time></trkpt><trkpt lat="44.2721999" lon="9.5055324"><ele>177.5</ele><time>2026-04-29T12:13:51.792Z</time></trkpt><trkpt lat="44.2721287" lon="9.505387"><ele>170.25</ele><time>2026-04-29T12:13:52.791Z</time></trkpt><trkpt lat="44.2720606" lon="9.5052635"><ele>163.0</ele><time>2026-04-29T12:13:53.791Z</time></trkpt><trkpt lat="44.2720006" lon="9.5051574"><ele>163.0</ele><time>2026-04-29T12:13:54.791Z</time></trkpt><trkpt lat="44.2719525" lon="9.5050537"><ele>163.0</ele><time>2026-04-29T12:13:55.791Z</time></trkpt><trkpt lat="44.271938" lon="9.5049377"><ele>163.0</ele><time>2026-04-29T12:13:56.791Z</time></trkpt><trkpt lat="44.2719605" lon="9.5048199"><ele>163.0</ele><time>2026-04-29T12:13:57.791Z</time></trkpt><trkpt lat="44.2720174" lon="9.5047228"><ele>163.0</ele><time>2026-04-29T12:13:58.791Z</time></trkpt><trkpt lat="44.2720922" lon="9.5046631"><ele>163.0</ele><time>2026-04-29T12:13:59.791Z</time></trkpt><trkpt lat="44.2721957" lon="9.5046583"><ele>168.5</ele><time>2026-04-29T12:14:00.791Z</time></trkpt><trkpt lat="44.2723061" lon="9.5047076"><ele>174.0</ele><time>2026-04-29T12:14:01.791Z</time></trkpt><trkpt lat="44.272422" lon="9.5047768"><ele>179.5</ele><time>2026-04-29T12:14:02.791Z</time></trkpt><trkpt lat="44.2725513" lon="9.5048225"><ele>185.0</ele><time>2026-04-29T12:14:03.792Z</time></trkpt><trkpt lat="44.272673" lon="9.5048258"><ele>185.0</ele><time>2026-04-29T12:14:04.791Z</time></trkpt><trkpt lat="44.2727658" lon="9.5047832"><ele>185.0</ele><time>2026-04-29T12:14:05.791Z</time></trkpt><trkpt lat="44.2728281" lon="9.5046873"><ele>185.0</ele><time>2026-04-29T12:14:06.79Z</time></trkpt><trkpt lat="44.2728401" lon="9.5045706"><ele>185.0</ele><time>2026-04-29T12:14:07.792Z</time></trkpt><trkpt lat="44.2728133" lon="9.5044477"><ele>185.0</ele><time>2026-04-29T12:14:08.792Z</time></trkpt><trkpt lat="44.2727677" lon="9.5043219"><ele>180.75</ele><time>2026-04-29T12:14:09.791Z</time></trkpt><trkpt lat="44.2727416" lon="9.5041541"><ele>176.5</ele><time>2026-04-29T12:14:10.791Z</time></trkpt><trkpt lat="44.2727397" lon="9.5039564"><ele>172.25</ele><time>2026-04-29T12:14:11.791Z</time></trkpt><trkpt lat="44.2727613" lon="9.5037591"><ele>168.0</ele><time>2026-04-29T12:14:12.791Z</time></trkpt><trkpt lat="44.2727946" lon="9.5035805"><ele>163.75</ele><time>2026-04-29T12:14:13.792Z</time></trkpt><trkpt lat="44.2728429" lon="9.5034145"><ele>159.5</ele><time>2026-04-29T12:14:14.792Z</time></trkpt><trkpt lat="44.2729155" lon="9.503269"><ele>155.25</ele><time>2026-04-29T12:14:15.792Z</time></trkpt><trkpt lat="44.2730076" lon="9.5031368"><ele>151.0</ele><time>2026-04-29T12:14:16.791Z</time></trkpt><trkpt lat="44.2730947" lon="9.5029961"><ele>152.75</ele><time>2026-04-29T12:14:17.791Z</time></trkpt><trkpt lat="44.2731549" lon="9.5028253"><ele>154.5</ele><time>2026-04-29T12:14:18.792Z</time></trkpt><trkpt lat="44.2731899" lon="9.5026491"><ele>156.25</ele><time>2026-04-29T12:14:19.79Z</time></trkpt><trkpt lat="44.2732324" lon="9.5024969"><ele>158.0</ele><time>2026-04-29T12:14:20.791Z</time></trkpt><trkpt lat="44.2733017" lon="9.5023724"><ele>158.0</ele><time>2026-04-29T12:14:21.791Z</time></trkpt><trkpt lat="44.2733941" lon="9.5022784"><ele>158.0</ele><time>2026-04-29T12:14:22.792Z</time></trkpt><trkpt lat="44.2735195" lon="9.5022198"><ele>158.0</ele><time>2026-04-29T12:14:23.791Z</time></trkpt><trkpt lat="44.2736561" lon="9.502182"><ele>158.0</ele><time>2026-04-29T12:14:24.79Z</time></trkpt><trkpt lat="44.2737988" lon="9.5021201"><ele>155.66666666666666</ele><time>2026-04-29T12:14:25.791Z</time></trkpt><trkpt lat="44.2739476" lon="9.5020269"><ele>153.33333333333334</ele><time>2026-04-29T12:14:26.791Z</time></trkpt><trkpt lat="44.2740922" lon="9.5019269"><ele>151.0</ele><time>2026-04-29T12:14:27.791Z</time></trkpt><trkpt lat="44.2742314" lon="9.5018295"><ele>151.0</ele><time>2026-04-29T12:14:28.791Z</time></trkpt><trkpt lat="44.2743646" lon="9.5017329"><ele>151.0</ele><time>2026-04-29T12:14:29.792Z</time></trkpt><trkpt lat="44.2744925" lon="9.5016383"><ele>151.0</ele><time>2026-04-29T12:14:30.79Z</time></trkpt><trkpt lat="44.2746151" lon="9.5015396"><ele>151.0</ele><time>2026-04-29T12:14:31.791Z</time></trkpt><trkpt lat="44.2747367" lon="9.5014248"><ele>150.5</ele><time>2026-04-29T12:14:32.791Z</time></trkpt><trkpt lat="44.2748491" lon="9.5013041"><ele>150.0</ele><time>2026-04-29T12:14:33.791Z</time></trkpt><trkpt lat="44.274945" lon="9.5011634"><ele>149.5</ele><time>2026-04-29T12:14:34.791Z</time></trkpt><trkpt lat="44.2750292" lon="9.5009946"><ele>149.0</ele><time>2026-04-29T12:14:35.791Z</time></trkpt><trkpt lat="44.2750949" lon="9.500805"><ele>149.0</ele><time>2026-04-29T12:14:36.791Z</time></trkpt><trkpt lat="44.2751568" lon="9.5006054"><ele>149.0</ele><time>2026-04-29T12:14:37.792Z</time></trkpt><trkpt lat="44.2752168" lon="9.5004126"><ele>149.0</ele><time>2026-04-29T12:14:38.792Z</time></trkpt><trkpt lat="44.2752618" lon="9.5002115"><ele>144.33333333333331</ele><time>2026-04-29T12:14:39.792Z</time></trkpt><trkpt lat="44.2752857" lon="9.4999913"><ele>139.66666666666666</ele><time>2026-04-29T12:14:40.791Z</time></trkpt><trkpt lat="44.2752847" lon="9.4997703"><ele>135.0</ele><time>2026-04-29T12:14:41.791Z</time></trkpt><trkpt lat="44.2752623" lon="9.4995604"><ele>134.0</ele><time>2026-04-29T12:14:42.792Z</time></trkpt><trkpt lat="44.2752262" lon="9.499349"><ele>133.0</ele><time>2026-04-29T12:14:43.792Z</time></trkpt><trkpt lat="44.2751695" lon="9.4991392"><ele>132.0</ele><time>2026-04-29T12:14:44.791Z</time></trkpt><trkpt lat="44.2751073" lon="9.498941"><ele>132.0</ele><time>2026-04-29T12:14:45.792Z</time></trkpt><trkpt lat="44.2750491" lon="9.4987546"><ele>132.0</ele><time>2026-04-29T12:14:46.792Z</time></trkpt><trkpt lat="44.2750088" lon="9.498565"><ele>132.0</ele><time>2026-04-29T12:14:47.792Z</time></trkpt><trkpt lat="44.2749876" lon="9.4983735"><ele>132.0</ele><time>2026-04-29T12:14:48.792Z</time></trkpt><trkpt lat="44.2749786" lon="9.498171"><ele>132.25</ele><time>2026-04-29T12:14:49.792Z</time></trkpt><trkpt lat="44.2749761" lon="9.4979643"><ele>132.5</ele><time>2026-04-29T12:14:50.79Z</time></trkpt><trkpt lat="44.274977" lon="9.4977666"><ele>132.75</ele><time>2026-04-29T12:14:51.79Z</time></trkpt><trkpt lat="44.2749761" lon="9.4975753"><ele>133.0</ele><time>2026-04-29T12:14:52.791Z</time></trkpt><trkpt lat="44.2749689" lon="9.4973972"><ele>132.25</ele><time>2026-04-29T12:14:53.791Z</time></trkpt><trkpt lat="44.2749547" lon="9.4972252"><ele>131.5</ele><time>2026-04-29T12:14:54.79Z</time></trkpt><trkpt lat="44.2749326" lon="9.4970586"><ele>130.75</ele><time>2026-04-29T12:14:55.791Z</time></trkpt><trkpt lat="44.2749049" lon="9.4968977"><ele>130.0</ele><time>2026-04-29T12:14:56.791Z</time></trkpt><trkpt lat="44.2748777" lon="9.4967426"><ele>129.0</ele><time>2026-04-29T12:14:57.791Z</time></trkpt><trkpt lat="44.2748493" lon="9.4966002"><ele>128.0</ele><time>2026-04-29T12:14:58.791Z</time></trkpt><trkpt lat="44.2748241" lon="9.4964831"><ele>127.0</ele><time>2026-04-29T12:14:59.792Z</time></trkpt><trkpt lat="44.2748076" lon="9.4963805"><ele>126.0</ele><time>2026-04-29T12:15:00.792Z</time></trkpt><trkpt lat="44.2748366" lon="9.4962322"><ele>125.0</ele><time>2026-04-29T12:15:02.792Z</time></trkpt><trkpt lat="44.2749116" lon="9.4961842"><ele>122.6</ele><time>2026-04-29T12:15:04.792Z</time></trkpt><trkpt lat="44.2749925" lon="9.4961837"><ele>120.2</ele><time>2026-04-29T12:15:07.791Z</time></trkpt><trkpt lat="44.2750836" lon="9.4961703"><ele>117.80000000000001</ele><time>2026-04-29T12:15:15.792Z</time></trkpt><trkpt lat="44.2751866" lon="9.4961638"><ele>115.4</ele><time>2026-04-29T12:15:17.792Z</time></trkpt><trkpt lat="44.2753159" lon="9.4961598"><ele>113.0</ele><time>2026-04-29T12:15:19.791Z</time></trkpt><trkpt lat="44.2753821" lon="9.4961546"><ele>112.99999999999999</ele><time>2026-04-29T12:15:20.79Z</time></trkpt><trkpt lat="44.2754519" lon="9.4961459"><ele>113.0</ele><time>2026-04-29T12:15:21.792Z</time></trkpt><trkpt lat="44.2755193" lon="9.4961267"><ele>113.0</ele><time>2026-04-29T12:15:22.791Z</time></trkpt><trkpt lat="44.2755803" lon="9.4960902"><ele>113.0</ele><time>2026-04-29T12:15:23.792Z</time></trkpt><trkpt lat="44.2756279" lon="9.4960295"><ele>112.99999999999999</ele><time>2026-04-29T12:15:24.791Z</time></trkpt><trkpt lat="44.2756531" lon="9.4959471"><ele>113.0</ele><time>2026-04-29T12:15:25.791Z</time></trkpt><trkpt lat="44.2756159" lon="9.4957911"><ele>113.0</ele><time>2026-04-29T12:15:27.792Z</time></trkpt><trkpt lat="44.2755141" lon="9.4957362"><ele>113.00000000000001</ele><time>2026-04-29T12:15:29.792Z</time></trkpt><trkpt lat="44.2754508" lon="9.4957706"><ele>113.00000000000001</ele><time>2026-04-29T12:15:31.791Z</time></trkpt><trkpt lat="44.2754021" lon="9.4958283"><ele>113.0</ele><time>2026-04-29T12:15:33.791Z</time></trkpt><trkpt lat="44.2753217" lon="9.4959002"><ele>113.0</ele><time>2026-04-29T12:15:35.791Z</time></trkpt><trkpt lat="44.2752013" lon="9.4959166"><ele>112.99999999999999</ele><time>2026-04-29T12:15:37.791Z</time></trkpt><trkpt lat="44.2751286" lon="9.4958833"><ele>113.0</ele><time>2026-04-29T12:15:38.791Z</time></trkpt><trkpt lat="44.2750591" lon="9.4958345"><ele>113.0</ele><time>2026-04-29T12:15:39.791Z</time></trkpt><trkpt lat="44.2749898" lon="9.495791"><ele>113.0</ele><time>2026-04-29T12:15:40.791Z</time></trkpt><trkpt lat="44.2749176" lon="9.4957382"><ele>112.99999999999999</ele><time>2026-04-29T12:15:41.791Z</time></trkpt><trkpt lat="44.2748475" lon="9.4956857"><ele>113.0</ele><time>2026-04-29T12:15:42.791Z</time></trkpt><trkpt lat="44.2747837" lon="9.4956345"><ele>112.83333333333333</ele><time>2026-04-29T12:15:43.79Z</time></trkpt><trkpt lat="44.2747227" lon="9.4955858"><ele>112.66666666666666</ele><time>2026-04-29T12:15:44.791Z</time></trkpt><trkpt lat="44.2746634" lon="9.4955274"><ele>112.5</ele><time>2026-04-29T12:15:45.791Z</time></trkpt><trkpt lat="44.2746126" lon="9.4954572"><ele>112.33333333333334</ele><time>2026-04-29T12:15:46.791Z</time></trkpt><trkpt lat="44.2745744" lon="9.4953744"><ele>112.16666666666667</ele><time>2026-04-29T12:15:47.79Z</time></trkpt><trkpt lat="44.2745441" lon="9.4952651"><ele>112.0</ele><time>2026-04-29T12:15:48.79Z</time></trkpt><trkpt lat="44.2745321" lon="9.4951349"><ele>112.0</ele><time>2026-04-29T12:15:49.791Z</time></trkpt><trkpt lat="44.2745441" lon="9.4949903"><ele>112.0</ele><time>2026-04-29T12:15:50.79Z</time></trkpt><trkpt lat="44.2745745" lon="9.4948287"><ele>112.0</ele><time>2026-04-29T12:15:51.792Z</time></trkpt><trkpt lat="44.2746168" lon="9.4946492"><ele>112.0</ele><time>2026-04-29T12:15:52.791Z</time></trkpt><trkpt lat="44.274663" lon="9.4944506"><ele>110.75</ele><time>2026-04-29T12:15:53.792Z</time></trkpt><trkpt lat="44.2747092" lon="9.4942386"><ele>109.5</ele><time>2026-04-29T12:15:54.792Z</time></trkpt><trkpt lat="44.274752" lon="9.494047"><ele>108.25</ele><time>2026-04-29T12:15:55.791Z</time></trkpt><trkpt lat="44.2747936" lon="9.4938605"><ele>107.0</ele><time>2026-04-29T12:15:56.791Z</time></trkpt><trkpt lat="44.2748327" lon="9.4936824"><ele>107.0</ele><time>2026-04-29T12:15:57.791Z</time></trkpt><trkpt lat="44.2748842" lon="9.4935128"><ele>107.0</ele><time>2026-04-29T12:15:58.79Z</time></trkpt><trkpt lat="44.2749522" lon="9.4933451"><ele>107.0</ele><time>2026-04-29T12:15:59.792Z</time></trkpt><trkpt lat="44.2750331" lon="9.4931914"><ele>107.0</ele><time>2026-04-29T12:16:00.791Z</time></trkpt><trkpt lat="44.2751279" lon="9.4930514"><ele>107.0</ele><time>2026-04-29T12:16:01.792Z</time></trkpt><trkpt lat="44.2752293" lon="9.4929304"><ele>107.0</ele><time>2026-04-29T12:16:02.791Z</time></trkpt><trkpt lat="44.2753194" lon="9.4928185"><ele>107.0</ele><time>2026-04-29T12:16:03.791Z</time></trkpt><trkpt lat="44.2753765" lon="9.4926862"><ele>107.0</ele><time>2026-04-29T12:16:04.791Z</time></trkpt><trkpt lat="44.2753996" lon="9.4925326"><ele>107.25</ele><time>2026-04-29T12:16:05.792Z</time></trkpt><trkpt lat="44.2753833" lon="9.4923788"><ele>107.5</ele><time>2026-04-29T12:16:06.792Z</time></trkpt><trkpt lat="44.2753226" lon="9.4922385"><ele>107.75</ele><time>2026-04-29T12:16:07.791Z</time></trkpt><trkpt lat="44.2752224" lon="9.4921329"><ele>108.0</ele><time>2026-04-29T12:16:08.792Z</time></trkpt><trkpt lat="44.275104" lon="9.4920563"><ele>105.4</ele><time>2026-04-29T12:16:09.792Z</time></trkpt><trkpt lat="44.2749894" lon="9.4919945"><ele>102.80000000000001</ele><time>2026-04-29T12:16:10.792Z</time></trkpt><trkpt lat="44.2748798" lon="9.4919397"><ele>100.2</ele><time>2026-04-29T12:16:11.791Z</time></trkpt><trkpt lat="44.2747911" lon="9.4918972"><ele>97.6</ele><time>2026-04-29T12:16:12.791Z</time></trkpt><trkpt lat="44.2747077" lon="9.4918551"><ele>95.0</ele><time>2026-04-29T12:16:13.791Z</time></trkpt><trkpt lat="44.2746299" lon="9.491798"><ele>100.6</ele><time>2026-04-29T12:16:14.791Z</time></trkpt><trkpt lat="44.2745564" lon="9.4917153"><ele>106.2</ele><time>2026-04-29T12:16:15.791Z</time></trkpt><trkpt lat="44.2744866" lon="9.491613"><ele>111.80000000000001</ele><time>2026-04-29T12:16:16.791Z</time></trkpt><trkpt lat="44.274429" lon="9.4915116"><ele>117.4</ele><time>2026-04-29T12:16:17.792Z</time></trkpt><trkpt lat="44.2743757" lon="9.4914088"><ele>123.0</ele><time>2026-04-29T12:16:18.792Z</time></trkpt><trkpt lat="44.2743288" lon="9.4912931"><ele>122.0</ele><time>2026-04-29T12:16:19.791Z</time></trkpt><trkpt lat="44.2742963" lon="9.4911661"><ele>121.00000000000001</ele><time>2026-04-29T12:16:20.791Z</time></trkpt><trkpt lat="44.2742791" lon="9.4910322"><ele>120.00000000000001</ele><time>2026-04-29T12:16:21.791Z</time></trkpt><trkpt lat="44.2742799" lon="9.4909015"><ele>119.0</ele><time>2026-04-29T12:16:22.791Z</time></trkpt><trkpt lat="44.2742962" lon="9.490761"><ele>118.0</ele><time>2026-04-29T12:16:23.792Z</time></trkpt><trkpt lat="44.274335" lon="9.4906236"><ele>118.0</ele><time>2026-04-29T12:16:24.79Z</time></trkpt><trkpt lat="44.2743897" lon="9.4904816"><ele>118.0</ele><time>2026-04-29T12:16:25.791Z</time></trkpt><trkpt lat="44.2744487" lon="9.4903237"><ele>118.0</ele><time>2026-04-29T12:16:26.791Z</time></trkpt><trkpt lat="44.274509" lon="9.4901705"><ele>118.0</ele><time>2026-04-29T12:16:27.79Z</time></trkpt><trkpt lat="44.2745635" lon="9.490022"><ele>118.0</ele><time>2026-04-29T12:16:28.79Z</time></trkpt><trkpt lat="44.2745932" lon="9.489877"><ele>118.00000000000001</ele><time>2026-04-29T12:16:29.791Z</time></trkpt><trkpt lat="44.2746018" lon="9.4897282"><ele>118.00000000000001</ele><time>2026-04-29T12:16:30.791Z</time></trkpt><trkpt lat="44.2745854" lon="9.489582"><ele>118.0</ele><time>2026-04-29T12:16:31.792Z</time></trkpt><trkpt lat="44.2745683" lon="9.4894348"><ele>118.0</ele><time>2026-04-29T12:16:32.791Z</time></trkpt><trkpt lat="44.2745458" lon="9.4892835"><ele>116.75</ele><time>2026-04-29T12:16:33.791Z</time></trkpt><trkpt lat="44.2745108" lon="9.4891285"><ele>115.5</ele><time>2026-04-29T12:16:34.791Z</time></trkpt><trkpt lat="44.2744665" lon="9.4889794"><ele>114.25</ele><time>2026-04-29T12:16:35.791Z</time></trkpt><trkpt lat="44.2744178" lon="9.4888356"><ele>113.0</ele><time>2026-04-29T12:16:36.791Z</time></trkpt><trkpt lat="44.2743788" lon="9.4886878"><ele>112.60000000000001</ele><time>2026-04-29T12:16:37.792Z</time></trkpt><trkpt lat="44.2743577" lon="9.4885381"><ele>112.20000000000002</ele><time>2026-04-29T12:16:38.792Z</time></trkpt><trkpt lat="44.2743619" lon="9.4883986"><ele>111.8</ele><time>2026-04-29T12:16:39.791Z</time></trkpt><trkpt lat="44.2743809" lon="9.4882737"><ele>111.4</ele><time>2026-04-29T12:16:40.791Z</time></trkpt><trkpt lat="44.2744012" lon="9.4881657"><ele>111.0</ele><time>2026-04-29T12:16:41.791Z</time></trkpt><trkpt lat="44.2744199" lon="9.4880704"><ele>111.0</ele><time>2026-04-29T12:16:42.791Z</time></trkpt><trkpt lat="44.2744451" lon="9.4879352"><ele>111.0</ele><time>2026-04-29T12:16:44.791Z</time></trkpt><trkpt lat="44.2744725" lon="9.4878371"><ele>111.0</ele><time>2026-04-29T12:16:47.792Z</time></trkpt><trkpt lat="44.2744957" lon="9.4877374"><ele>111.0</ele><time>2026-04-29T12:17:23.792Z</time></trkpt><trkpt lat="44.2745581" lon="9.4875676"><ele>111.0</ele><time>2026-04-29T12:17:25.791Z</time></trkpt><trkpt lat="44.2746101" lon="9.4874522"><ele>112.8</ele><time>2026-04-29T12:17:26.791Z</time></trkpt><trkpt lat="44.2746666" lon="9.487333"><ele>114.6</ele><time>2026-04-29T12:17:27.791Z</time></trkpt><trkpt lat="44.2747155" lon="9.4872248"><ele>116.4</ele><time>2026-04-29T12:17:28.791Z</time></trkpt><trkpt lat="44.2747599" lon="9.487118"><ele>118.2</ele><time>2026-04-29T12:17:29.791Z</time></trkpt><trkpt lat="44.2748013" lon="9.4870151"><ele>120.0</ele><time>2026-04-29T12:17:30.792Z</time></trkpt><trkpt lat="44.2748438" lon="9.4869118"><ele>114.2</ele><time>2026-04-29T12:17:31.792Z</time></trkpt><trkpt lat="44.2748843" lon="9.4867966"><ele>108.4</ele><time>2026-04-29T12:17:32.79Z</time></trkpt><trkpt lat="44.2749212" lon="9.4866664"><ele>102.6</ele><time>2026-04-29T12:17:33.791Z</time></trkpt><trkpt lat="44.2749528" lon="9.4865201"><ele>96.8</ele><time>2026-04-29T12:17:34.791Z</time></trkpt><trkpt lat="44.2749781" lon="9.4863556"><ele>91.0</ele><time>2026-04-29T12:17:35.791Z</time></trkpt><trkpt lat="44.2750023" lon="9.4861795"><ele>91.0</ele><time>2026-04-29T12:17:36.79Z</time></trkpt><trkpt lat="44.2750266" lon="9.4859937"><ele>91.0</ele><time>2026-04-29T12:17:37.792Z</time></trkpt><trkpt lat="44.2750467" lon="9.4858234"><ele>91.0</ele><time>2026-04-29T12:17:38.791Z</time></trkpt><trkpt lat="44.2750626" lon="9.4856584"><ele>91.0</ele><time>2026-04-29T12:17:39.792Z</time></trkpt><trkpt lat="44.2750741" lon="9.4854991"><ele>91.4</ele><time>2026-04-29T12:17:40.792Z</time></trkpt><trkpt lat="44.2750822" lon="9.4853448"><ele>91.8</ele><time>2026-04-29T12:17:41.79Z</time></trkpt><trkpt lat="44.2750885" lon="9.485192"><ele>92.2</ele><time>2026-04-29T12:17:42.791Z</time></trkpt><trkpt lat="44.2750907" lon="9.4850378"><ele>92.60000000000001</ele><time>2026-04-29T12:17:43.791Z</time></trkpt><trkpt lat="44.2750895" lon="9.4848756"><ele>93.0</ele><time>2026-04-29T12:17:44.792Z</time></trkpt><trkpt lat="44.2750877" lon="9.4847042"><ele>93.75</ele><time>2026-04-29T12:17:45.792Z</time></trkpt><trkpt lat="44.2750844" lon="9.4845256"><ele>94.5</ele><time>2026-04-29T12:17:46.792Z</time></trkpt><trkpt lat="44.2750806" lon="9.4843401"><ele>95.25</ele><time>2026-04-29T12:17:47.792Z</time></trkpt><trkpt lat="44.2750835" lon="9.4841502"><ele>96.0</ele><time>2026-04-29T12:17:48.792Z</time></trkpt><trkpt lat="44.2750855" lon="9.4839556"><ele>94.5</ele><time>2026-04-29T12:17:49.792Z</time></trkpt><trkpt lat="44.2750882" lon="9.4837633"><ele>93.0</ele><time>2026-04-29T12:17:50.791Z</time></trkpt><trkpt lat="44.2750897" lon="9.4835789"><ele>91.5</ele><time>2026-04-29T12:17:51.791Z</time></trkpt><trkpt lat="44.2750857" lon="9.4833872"><ele>90.0</ele><time>2026-04-29T12:17:52.79Z</time></trkpt><trkpt lat="44.2750714" lon="9.483195"><ele>90.0</ele><time>2026-04-29T12:17:53.792Z</time></trkpt><trkpt lat="44.2750462" lon="9.4829999"><ele>90.0</ele><time>2026-04-29T12:17:54.791Z</time></trkpt><trkpt lat="44.275018" lon="9.4828037"><ele>90.0</ele><time>2026-04-29T12:17:55.791Z</time></trkpt><trkpt lat="44.2749864" lon="9.4826058"><ele>90.0</ele><time>2026-04-29T12:17:56.791Z</time></trkpt><trkpt lat="44.2749557" lon="9.4824096"><ele>87.0</ele><time>2026-04-29T12:17:57.791Z</time></trkpt><trkpt lat="44.2749246" lon="9.4822265"><ele>84.0</ele><time>2026-04-29T12:17:58.791Z</time></trkpt><trkpt lat="44.2748915" lon="9.4820487"><ele>81.0</ele><time>2026-04-29T12:17:59.79Z</time></trkpt><trkpt lat="44.2748507" lon="9.4818711"><ele>78.0</ele><time>2026-04-29T12:18:00.79Z</time></trkpt><trkpt lat="44.2747952" lon="9.481692"><ele>75.75</ele><time>2026-04-29T12:18:01.791Z</time></trkpt><trkpt lat="44.2747258" lon="9.4815263"><ele>73.5</ele><time>2026-04-29T12:18:02.792Z</time></trkpt><trkpt lat="44.2746526" lon="9.481364"><ele>71.25</ele><time>2026-04-29T12:18:03.792Z</time></trkpt><trkpt lat="44.274573" lon="9.4812159"><ele>69.0</ele><time>2026-04-29T12:18:04.792Z</time></trkpt><trkpt lat="44.2744861" lon="9.4810752"><ele>68.0</ele><time>2026-04-29T12:18:05.791Z</time></trkpt><trkpt lat="44.2743858" lon="9.4809387"><ele>67.0</ele><time>2026-04-29T12:18:06.792Z</time></trkpt><trkpt lat="44.2742778" lon="9.4808242"><ele>66.0</ele><time>2026-04-29T12:18:07.791Z</time></trkpt><trkpt lat="44.2741595" lon="9.4807277"><ele>65.0</ele><time>2026-04-29T12:18:08.79Z</time></trkpt><trkpt lat="44.2740391" lon="9.4806522"><ele>65.0</ele><time>2026-04-29T12:18:09.79Z</time></trkpt><trkpt lat="44.2739165" lon="9.4805782"><ele>65.0</ele><time>2026-04-29T12:18:10.79Z</time></trkpt><trkpt lat="44.2737971" lon="9.4805072"><ele>65.0</ele><time>2026-04-29T12:18:11.791Z</time></trkpt><trkpt lat="44.2736819" lon="9.4804359"><ele>65.0</ele><time>2026-04-29T12:18:12.791Z</time></trkpt><trkpt lat="44.2735731" lon="9.4803578"><ele>64.0</ele><time>2026-04-29T12:18:13.79Z</time></trkpt><trkpt lat="44.273474" lon="9.4802688"><ele>63.0</ele><time>2026-04-29T12:18:14.79Z</time></trkpt><trkpt lat="44.2733817" lon="9.4801598"><ele>62.0</ele><time>2026-04-29T12:18:15.791Z</time></trkpt><trkpt lat="44.2732967" lon="9.48003"><ele>61.0</ele><time>2026-04-29T12:18:16.79Z</time></trkpt><trkpt lat="44.2732251" lon="9.4798793"><ele>61.0</ele><time>2026-04-29T12:18:17.789Z</time></trkpt><trkpt lat="44.2731689" lon="9.4797135"><ele>61.0</ele><time>2026-04-29T12:18:18.791Z</time></trkpt><trkpt lat="44.2731294" lon="9.4795372"><ele>61.0</ele><time>2026-04-29T12:18:19.789Z</time></trkpt><trkpt lat="44.2731086" lon="9.4793515"><ele>61.0</ele><time>2026-04-29T12:18:20.79Z</time></trkpt><trkpt lat="44.2731123" lon="9.4791522"><ele>61.33333333333333</ele><time>2026-04-29T12:18:21.791Z</time></trkpt><trkpt lat="44.2731411" lon="9.4789492"><ele>61.66666666666667</ele><time>2026-04-29T12:18:22.79Z</time></trkpt><trkpt lat="44.2731942" lon="9.4787366"><ele>62.0</ele><time>2026-04-29T12:18:23.79Z</time></trkpt><trkpt lat="44.2732629" lon="9.4785185"><ele>62.0</ele><time>2026-04-29T12:18:24.79Z</time></trkpt><trkpt lat="44.273325" lon="9.4783088"><ele>62.0</ele><time>2026-04-29T12:18:25.79Z</time></trkpt><trkpt lat="44.2733793" lon="9.4780885"><ele>62.0</ele><time>2026-04-29T12:18:26.789Z</time></trkpt><trkpt lat="44.273416" lon="9.4778745"><ele>61.75</ele><time>2026-04-29T12:18:27.79Z</time></trkpt><trkpt lat="44.2734404" lon="9.4776651"><ele>61.5</ele><time>2026-04-29T12:18:28.79Z</time></trkpt><trkpt lat="44.2734598" lon="9.4774723"><ele>61.25</ele><time>2026-04-29T12:18:29.791Z</time></trkpt><trkpt lat="44.2734808" lon="9.477283"><ele>61.0</ele><time>2026-04-29T12:18:30.791Z</time></trkpt><trkpt lat="44.2735119" lon="9.4770893"><ele>60.25</ele><time>2026-04-29T12:18:31.791Z</time></trkpt><trkpt lat="44.2735512" lon="9.4769109"><ele>59.5</ele><time>2026-04-29T12:18:32.791Z</time></trkpt><trkpt lat="44.2735929" lon="9.4767468"><ele>58.75</ele><time>2026-04-29T12:18:33.79Z</time></trkpt><trkpt lat="44.2736322" lon="9.4765955"><ele>58.0</ele><time>2026-04-29T12:18:34.79Z</time></trkpt><trkpt lat="44.2736684" lon="9.4764478"><ele>58.0</ele><time>2026-04-29T12:18:35.79Z</time></trkpt><trkpt lat="44.2737055" lon="9.4762994"><ele>58.0</ele><time>2026-04-29T12:18:36.79Z</time></trkpt><trkpt lat="44.2737415" lon="9.4761396"><ele>58.0</ele><time>2026-04-29T12:18:37.79Z</time></trkpt><trkpt lat="44.273769" lon="9.4759662"><ele>58.0</ele><time>2026-04-29T12:18:38.79Z</time></trkpt><trkpt lat="44.2737804" lon="9.4757896"><ele>57.5</ele><time>2026-04-29T12:18:39.79Z</time></trkpt><trkpt lat="44.2737724" lon="9.4756059"><ele>57.0</ele><time>2026-04-29T12:18:40.789Z</time></trkpt><trkpt lat="44.273751" lon="9.4754237"><ele>56.5</ele><time>2026-04-29T12:18:41.791Z</time></trkpt><trkpt lat="44.2737272" lon="9.475251"><ele>56.0</ele><time>2026-04-29T12:18:42.79Z</time></trkpt><trkpt lat="44.2737067" lon="9.4750808"><ele>55.8</ele><time>2026-04-29T12:18:43.791Z</time></trkpt><trkpt lat="44.2736876" lon="9.4749126"><ele>55.599999999999994</ele><time>2026-04-29T12:18:44.79Z</time></trkpt><trkpt lat="44.2736767" lon="9.4747568"><ele>55.4</ele><time>2026-04-29T12:18:45.79Z</time></trkpt><trkpt lat="44.2736817" lon="9.4746058"><ele>55.2</ele><time>2026-04-29T12:18:46.79Z</time></trkpt><trkpt lat="44.2737046" lon="9.4744674"><ele>55.0</ele><time>2026-04-29T12:18:47.79Z</time></trkpt><trkpt lat="44.2737471" lon="9.4743273"><ele>54.0</ele><time>2026-04-29T12:18:48.79Z</time></trkpt><trkpt lat="44.2738005" lon="9.474189"><ele>53.0</ele><time>2026-04-29T12:18:49.791Z</time></trkpt><trkpt lat="44.273862" lon="9.4740468"><ele>52.0</ele><time>2026-04-29T12:18:50.791Z</time></trkpt><trkpt lat="44.2739259" lon="9.4739035"><ele>51.0</ele><time>2026-04-29T12:18:51.79Z</time></trkpt><trkpt lat="44.2739944" lon="9.4737741"><ele>51.25</ele><time>2026-04-29T12:18:52.79Z</time></trkpt><trkpt lat="44.2740762" lon="9.4736662"><ele>51.5</ele><time>2026-04-29T12:18:53.79Z</time></trkpt><trkpt lat="44.2741745" lon="9.4735804"><ele>51.75</ele><time>2026-04-29T12:18:54.79Z</time></trkpt><trkpt lat="44.2742856" lon="9.4735221"><ele>52.0</ele><time>2026-04-29T12:18:55.789Z</time></trkpt><trkpt lat="44.2744048" lon="9.4734766"><ele>52.0</ele><time>2026-04-29T12:18:56.79Z</time></trkpt><trkpt lat="44.2745178" lon="9.4734427"><ele>52.0</ele><time>2026-04-29T12:18:57.789Z</time></trkpt><trkpt lat="44.2746274" lon="9.4733951"><ele>52.0</ele><time>2026-04-29T12:18:58.789Z</time></trkpt><trkpt lat="44.2747317" lon="9.4733282"><ele>52.0</ele><time>2026-04-29T12:18:59.79Z</time></trkpt><trkpt lat="44.2748225" lon="9.4732415"><ele>51.6</ele><time>2026-04-29T12:19:00.79Z</time></trkpt><trkpt lat="44.2749007" lon="9.4731534"><ele>51.2</ele><time>2026-04-29T12:19:01.79Z</time></trkpt><trkpt lat="44.2749684" lon="9.473072"><ele>50.8</ele><time>2026-04-29T12:19:02.79Z</time></trkpt><trkpt lat="44.2750241" lon="9.4729999"><ele>50.4</ele><time>2026-04-29T12:19:03.79Z</time></trkpt><trkpt lat="44.275072" lon="9.4729333"><ele>50.0</ele><time>2026-04-29T12:19:04.791Z</time></trkpt><trkpt lat="44.2751584" lon="9.4728222"><ele>50.0</ele><time>2026-04-29T12:19:06.79Z</time></trkpt><trkpt lat="44.2752241" lon="9.4727344"><ele>50.0</ele><time>2026-04-29T12:19:08.791Z</time></trkpt><trkpt lat="44.2752868" lon="9.4726555"><ele>50.0</ele><time>2026-04-29T12:19:11.79Z</time></trkpt><trkpt lat="44.2753661" lon="9.4725622"><ele>50.0</ele><time>2026-04-29T12:19:24.79Z</time></trkpt><trkpt lat="44.2754089" lon="9.4724957"><ele>50.0</ele><time>2026-04-29T12:19:25.79Z</time></trkpt><trkpt lat="44.2754814" lon="9.4723473"><ele>50.0</ele><time>2026-04-29T12:19:27.791Z</time></trkpt><trkpt lat="44.2755178" lon="9.472258"><ele>50.0</ele><time>2026-04-29T12:19:28.79Z</time></trkpt><trkpt lat="44.2755529" lon="9.4721701"><ele>50.0</ele><time>2026-04-29T12:19:29.789Z</time></trkpt><trkpt lat="44.2755957" lon="9.4720497"><ele>50.0</ele><time>2026-04-29T12:19:31.791Z</time></trkpt><trkpt lat="44.2756277" lon="9.4719537"><ele>50.0</ele><time>2026-04-29T12:20:20.789Z</time></trkpt><trkpt lat="44.2756963" lon="9.4717888"><ele>49.8</ele><time>2026-04-29T12:20:22.79Z</time></trkpt><trkpt lat="44.275743" lon="9.4716788"><ele>49.6</ele><time>2026-04-29T12:20:23.79Z</time></trkpt><trkpt lat="44.2757987" lon="9.4715482"><ele>49.400000000000006</ele><time>2026-04-29T12:20:24.79Z</time></trkpt><trkpt lat="44.275865" lon="9.4714083"><ele>49.2</ele><time>2026-04-29T12:20:25.789Z</time></trkpt><trkpt lat="44.2759364" lon="9.4712816"><ele>49.0</ele><time>2026-04-29T12:20:26.791Z</time></trkpt><trkpt lat="44.276018" lon="9.471173"><ele>49.0</ele><time>2026-04-29T12:20:27.791Z</time></trkpt><trkpt lat="44.2761014" lon="9.471074"><ele>49.0</ele><time>2026-04-29T12:20:28.791Z</time></trkpt><trkpt lat="44.2761805" lon="9.4709992"><ele>49.0</ele><time>2026-04-29T12:20:29.773Z</time></trkpt><trkpt lat="44.2762615" lon="9.4709245"><ele>49.0</ele><time>2026-04-29T12:20:30.79Z</time></trkpt><trkpt lat="44.2763361" lon="9.4708615"><ele>49.0</ele><time>2026-04-29T12:20:31.79Z</time></trkpt><trkpt lat="44.2764038" lon="9.4708023"><ele>49.2</ele><time>2026-04-29T12:20:32.791Z</time></trkpt><trkpt lat="44.2764782" lon="9.4707345"><ele>49.400000000000006</ele><time>2026-04-29T12:20:33.79Z</time></trkpt><trkpt lat="44.2765551" lon="9.4706624"><ele>49.6</ele><time>2026-04-29T12:20:34.79Z</time></trkpt><trkpt lat="44.2766276" lon="9.4705775"><ele>49.8</ele><time>2026-04-29T12:20:35.791Z</time></trkpt><trkpt lat="44.276692" lon="9.4704818"><ele>50.0</ele><time>2026-04-29T12:20:36.79Z</time></trkpt><trkpt lat="44.276744" lon="9.4703822"><ele>50.00000000000001</ele><time>2026-04-29T12:20:37.79Z</time></trkpt><trkpt lat="44.2767827" lon="9.4702697"><ele>50.0</ele><time>2026-04-29T12:20:38.79Z</time></trkpt><trkpt lat="44.2768061" lon="9.4701445"><ele>50.0</ele><time>2026-04-29T12:20:39.789Z</time></trkpt><trkpt lat="44.2768145" lon="9.4700226"><ele>50.0</ele><time>2026-04-29T12:20:40.79Z</time></trkpt><trkpt lat="44.2768046" lon="9.469904"><ele>50.00000000000001</ele><time>2026-04-29T12:20:41.791Z</time></trkpt><trkpt lat="44.2767752" lon="9.4697842"><ele>50.0</ele><time>2026-04-29T12:20:42.79Z</time></trkpt><trkpt lat="44.2767252" lon="9.4696682"><ele>52.5</ele><time>2026-04-29T12:20:43.791Z</time></trkpt><trkpt lat="44.2766551" lon="9.469566"><ele>55.0</ele><time>2026-04-29T12:20:44.79Z</time></trkpt><trkpt lat="44.2765649" lon="9.4694731"><ele>57.5</ele><time>2026-04-29T12:20:45.791Z</time></trkpt><trkpt lat="44.2764559" lon="9.4694082"><ele>60.0</ele><time>2026-04-29T12:20:46.791Z</time></trkpt><trkpt lat="44.276334" lon="9.4693773"><ele>60.0</ele><time>2026-04-29T12:20:47.79Z</time></trkpt><trkpt lat="44.2762042" lon="9.4693697"><ele>60.0</ele><time>2026-04-29T12:20:48.79Z</time></trkpt><trkpt lat="44.2760573" lon="9.4693694"><ele>60.0</ele><time>2026-04-29T12:20:49.79Z</time></trkpt><trkpt lat="44.2759018" lon="9.4693686"><ele>60.0</ele><time>2026-04-29T12:20:50.79Z</time></trkpt><trkpt lat="44.2757452" lon="9.4693603"><ele>58.75</ele><time>2026-04-29T12:20:51.79Z</time></trkpt><trkpt lat="44.2756002" lon="9.4693404"><ele>57.5</ele><time>2026-04-29T12:20:52.791Z</time></trkpt><trkpt lat="44.275467" lon="9.4693151"><ele>56.25</ele><time>2026-04-29T12:20:53.791Z</time></trkpt><trkpt lat="44.2753335" lon="9.4692858"><ele>55.0</ele><time>2026-04-29T12:20:54.791Z</time></trkpt><trkpt lat="44.2752009" lon="9.469255"><ele>55.0</ele><time>2026-04-29T12:20:55.791Z</time></trkpt><trkpt lat="44.2750811" lon="9.4692315"><ele>55.0</ele><time>2026-04-29T12:20:56.791Z</time></trkpt><trkpt lat="44.2749708" lon="9.4692026"><ele>55.0</ele><time>2026-04-29T12:20:57.791Z</time></trkpt><trkpt lat="44.2748688" lon="9.4691534"><ele>55.0</ele><time>2026-04-29T12:20:58.79Z</time></trkpt><trkpt lat="44.2747803" lon="9.4690794"><ele>55.0</ele><time>2026-04-29T12:20:59.791Z</time></trkpt><trkpt lat="44.2747083" lon="9.4689793"><ele>52.6</ele><time>2026-04-29T12:21:00.79Z</time></trkpt><trkpt lat="44.2746544" lon="9.4688526"><ele>50.2</ele><time>2026-04-29T12:21:01.791Z</time></trkpt><trkpt lat="44.2746234" lon="9.4687076"><ele>47.8</ele><time>2026-04-29T12:21:02.79Z</time></trkpt><trkpt lat="44.2746193" lon="9.4685527"><ele>45.4</ele><time>2026-04-29T12:21:03.791Z</time></trkpt><trkpt lat="44.274644" lon="9.4684061"><ele>43.0</ele><time>2026-04-29T12:21:04.791Z</time></trkpt><trkpt lat="44.2746957" lon="9.4682643"><ele>42.25</ele><time>2026-04-29T12:21:05.789Z</time></trkpt><trkpt lat="44.2747692" lon="9.4681278"><ele>41.5</ele><time>2026-04-29T12:21:06.791Z</time></trkpt><trkpt lat="44.2748567" lon="9.467992"><ele>40.75</ele><time>2026-04-29T12:21:07.79Z</time></trkpt><trkpt lat="44.2749401" lon="9.4678632"><ele>40.0</ele><time>2026-04-29T12:21:08.79Z</time></trkpt><trkpt lat="44.2750059" lon="9.4677127"><ele>41.75</ele><time>2026-04-29T12:21:09.79Z</time></trkpt><trkpt lat="44.2750433" lon="9.4675392"><ele>43.5</ele><time>2026-04-29T12:21:10.79Z</time></trkpt><trkpt lat="44.275052" lon="9.4673491"><ele>45.25</ele><time>2026-04-29T12:21:11.791Z</time></trkpt><trkpt lat="44.2750453" lon="9.4671472"><ele>47.0</ele><time>2026-04-29T12:21:12.791Z</time></trkpt><trkpt lat="44.2750366" lon="9.4669333"><ele>47.0</ele><time>2026-04-29T12:21:13.789Z</time></trkpt><trkpt lat="44.2750378" lon="9.4667121"><ele>47.0</ele><time>2026-04-29T12:21:14.789Z</time></trkpt><trkpt lat="44.275057" lon="9.4664898"><ele>47.0</ele><time>2026-04-29T12:21:15.79Z</time></trkpt><trkpt lat="44.2750952" lon="9.4662699"><ele>46.33333333333333</ele><time>2026-04-29T12:21:16.79Z</time></trkpt><trkpt lat="44.2751547" lon="9.4660567"><ele>45.666666666666664</ele><time>2026-04-29T12:21:17.789Z</time></trkpt><trkpt lat="44.2752344" lon="9.4658532"><ele>45.0</ele><time>2026-04-29T12:21:18.789Z</time></trkpt><trkpt lat="44.2753193" lon="9.4656494"><ele>43.0</ele><time>2026-04-29T12:21:19.79Z</time></trkpt><trkpt lat="44.2753839" lon="9.4654341"><ele>41.0</ele><time>2026-04-29T12:21:20.791Z</time></trkpt><trkpt lat="44.2754178" lon="9.4652058"><ele>39.0</ele><time>2026-04-29T12:21:21.791Z</time></trkpt><trkpt lat="44.2754218" lon="9.4649665"><ele>39.0</ele><time>2026-04-29T12:21:22.789Z</time></trkpt><trkpt lat="44.2754077" lon="9.4647231"><ele>39.0</ele><time>2026-04-29T12:21:23.789Z</time></trkpt><trkpt lat="44.2753854" lon="9.4644785"><ele>39.0</ele><time>2026-04-29T12:21:24.79Z</time></trkpt><trkpt lat="44.2753604" lon="9.4642332"><ele>39.0</ele><time>2026-04-29T12:21:25.79Z</time></trkpt><trkpt lat="44.2753349" lon="9.4639841"><ele>39.0</ele><time>2026-04-29T12:21:26.791Z</time></trkpt><trkpt lat="44.2753084" lon="9.4637342"><ele>39.0</ele><time>2026-04-29T12:21:27.79Z</time></trkpt><trkpt lat="44.2752862" lon="9.4634828"><ele>39.0</ele><time>2026-04-29T12:21:28.791Z</time></trkpt><trkpt lat="44.2752746" lon="9.4632461"><ele>39.0</ele><time>2026-04-29T12:21:29.79Z</time></trkpt><trkpt lat="44.2752767" lon="9.46305"><ele>39.0</ele><time>2026-04-29T12:21:30.79Z</time></trkpt><trkpt lat="44.275283" lon="9.4628789"><ele>39.0</ele><time>2026-04-29T12:21:31.791Z</time></trkpt><trkpt lat="44.2752902" lon="9.4627231"><ele>38.833333333333336</ele><time>2026-04-29T12:21:32.79Z</time></trkpt><trkpt lat="44.2753021" lon="9.4625878"><ele>38.666666666666664</ele><time>2026-04-29T12:21:33.789Z</time></trkpt><trkpt lat="44.2753168" lon="9.4624654"><ele>38.5</ele><time>2026-04-29T12:21:34.79Z</time></trkpt><trkpt lat="44.2753246" lon="9.4623474"><ele>38.33333333333333</ele><time>2026-04-29T12:21:35.79Z</time></trkpt><trkpt lat="44.2753212" lon="9.4622363"><ele>38.166666666666664</ele><time>2026-04-29T12:21:36.79Z</time></trkpt><trkpt lat="44.2753094" lon="9.4621327"><ele>38.0</ele><time>2026-04-29T12:21:37.79Z</time></trkpt><trkpt lat="44.2752991" lon="9.462032"><ele>37.5</ele><time>2026-04-29T12:21:38.79Z</time></trkpt><trkpt lat="44.2752918" lon="9.461941"><ele>37.0</ele><time>2026-04-29T12:21:39.791Z</time></trkpt><trkpt lat="44.2752819" lon="9.4617892"><ele>36.5</ele><time>2026-04-29T12:21:41.79Z</time></trkpt><trkpt lat="44.2752718" lon="9.4616796"><ele>36.0</ele><time>2026-04-29T12:21:43.79Z</time></trkpt><trkpt lat="44.27527" lon="9.4615659"><ele>35.5</ele><time>2026-04-29T12:21:46.79Z</time></trkpt><trkpt lat="44.2752636" lon="9.4614341"><ele>35.0</ele><time>2026-04-29T12:23:15.792Z</time></trkpt><trkpt lat="44.2752714" lon="9.4613314"><ele>35.0</ele><time>2026-04-29T12:23:18.792Z</time></trkpt><trkpt lat="44.2751988" lon="9.4613666"><ele>35.0</ele><time>2026-04-29T12:23:25.792Z</time></trkpt><trkpt lat="44.275212" lon="9.4615124"><ele>35.0</ele><time>2026-04-29T12:23:27.791Z</time></trkpt><trkpt lat="44.2752229" lon="9.4616251"><ele>35.0</ele><time>2026-04-29T12:23:28.792Z</time></trkpt><trkpt lat="44.2752294" lon="9.4617794"><ele>35.0</ele><time>2026-04-29T12:23:29.792Z</time></trkpt><trkpt lat="44.275231" lon="9.4619351"><ele>35.0</ele><time>2026-04-29T12:23:30.792Z</time></trkpt><trkpt lat="44.2752302" lon="9.4620691"><ele>35.0</ele><time>2026-04-29T12:23:31.792Z</time></trkpt><trkpt lat="44.2752253" lon="9.4621923"><ele>35.0</ele><time>2026-04-29T12:23:32.792Z</time></trkpt><trkpt lat="44.2752265" lon="9.4623265"><ele>35.0</ele><time>2026-04-29T12:23:33.791Z</time></trkpt><trkpt lat="44.275235" lon="9.46249"><ele>35.0</ele><time>2026-04-29T12:23:34.791Z</time></trkpt><trkpt lat="44.2752425" lon="9.4626964"><ele>36.33333333333333</ele><time>2026-04-29T12:23:35.792Z</time></trkpt><trkpt lat="44.2752454" lon="9.4629554"><ele>37.666666666666664</ele><time>2026-04-29T12:23:36.792Z</time></trkpt><trkpt lat="44.2752525" lon="9.4632382"><ele>39.0</ele><time>2026-04-29T12:23:37.791Z</time></trkpt><trkpt lat="44.2752666" lon="9.4634926"><ele>39.0</ele><time>2026-04-29T12:23:38.792Z</time></trkpt><trkpt lat="44.2752864" lon="9.4637223"><ele>39.0</ele><time>2026-04-29T12:23:39.792Z</time></trkpt><trkpt lat="44.2753052" lon="9.4639256"><ele>39.0</ele><time>2026-04-29T12:23:40.792Z</time></trkpt><trkpt lat="44.275324" lon="9.4641055"><ele>39.0</ele><time>2026-04-29T12:23:41.792Z</time></trkpt><trkpt lat="44.275342" lon="9.4642733"><ele>39.0</ele><time>2026-04-29T12:23:42.792Z</time></trkpt><trkpt lat="44.2753572" lon="9.464429"><ele>39.0</ele><time>2026-04-29T12:23:43.792Z</time></trkpt><trkpt lat="44.2753725" lon="9.4645892"><ele>39.0</ele><time>2026-04-29T12:23:44.792Z</time></trkpt><trkpt lat="44.2753878" lon="9.4647576"><ele>39.0</ele><time>2026-04-29T12:23:45.792Z</time></trkpt><trkpt lat="44.275401" lon="9.4649379"><ele>39.0</ele><time>2026-04-29T12:23:46.792Z</time></trkpt><trkpt lat="44.2753949" lon="9.4651274"><ele>39.0</ele><time>2026-04-29T12:23:47.792Z</time></trkpt><trkpt lat="44.2753716" lon="9.4653176"><ele>39.0</ele><time>2026-04-29T12:23:48.791Z</time></trkpt><trkpt lat="44.2753258" lon="9.4655061"><ele>39.0</ele><time>2026-04-29T12:23:49.792Z</time></trkpt><trkpt lat="44.275259" lon="9.4656916"><ele>41.0</ele><time>2026-04-29T12:23:50.792Z</time></trkpt><trkpt lat="44.2751803" lon="9.4658806"><ele>43.0</ele><time>2026-04-29T12:23:51.792Z</time></trkpt><trkpt lat="44.2751098" lon="9.4660819"><ele>45.0</ele><time>2026-04-29T12:23:52.792Z</time></trkpt><trkpt lat="44.2750619" lon="9.466286"><ele>45.666666666666664</ele><time>2026-04-29T12:23:53.791Z</time></trkpt><trkpt lat="44.2750261" lon="9.4664999"><ele>46.33333333333333</ele><time>2026-04-29T12:23:54.792Z</time></trkpt><trkpt lat="44.2750094" lon="9.466719"><ele>47.0</ele><time>2026-04-29T12:23:55.792Z</time></trkpt><trkpt lat="44.2750114" lon="9.4669448"><ele>47.5</ele><time>2026-04-29T12:23:56.792Z</time></trkpt><trkpt lat="44.2750244" lon="9.4671749"><ele>48.0</ele><time>2026-04-29T12:23:57.791Z</time></trkpt><trkpt lat="44.2750334" lon="9.4673778"><ele>48.5</ele><time>2026-04-29T12:23:58.791Z</time></trkpt><trkpt lat="44.2750163" lon="9.4675626"><ele>49.0</ele><time>2026-04-29T12:23:59.792Z</time></trkpt><trkpt lat="44.2749606" lon="9.4677267"><ele>49.0</ele><time>2026-04-29T12:24:00.792Z</time></trkpt><trkpt lat="44.2748835" lon="9.4678753"><ele>49.0</ele><time>2026-04-29T12:24:01.792Z</time></trkpt><trkpt lat="44.274798" lon="9.4680213"><ele>49.0</ele><time>2026-04-29T12:24:02.792Z</time></trkpt><trkpt lat="44.2747165" lon="9.4681521"><ele>49.0</ele><time>2026-04-29T12:24:03.792Z</time></trkpt><trkpt lat="44.2746525" lon="9.468281"><ele>47.5</ele><time>2026-04-29T12:24:04.792Z</time></trkpt><trkpt lat="44.2746109" lon="9.4684259"><ele>46.0</ele><time>2026-04-29T12:24:05.791Z</time></trkpt><trkpt lat="44.274593" lon="9.4685823"><ele>44.5</ele><time>2026-04-29T12:24:06.792Z</time></trkpt><trkpt lat="44.2746004" lon="9.4687428"><ele>43.0</ele><time>2026-04-29T12:24:07.792Z</time></trkpt><trkpt lat="44.2746385" lon="9.4688947"><ele>43.0</ele><time>2026-04-29T12:24:08.792Z</time></trkpt><trkpt lat="44.2747064" lon="9.4690303"><ele>43.0</ele><time>2026-04-29T12:24:09.792Z</time></trkpt><trkpt lat="44.2747859" lon="9.4691329"><ele>43.0</ele><time>2026-04-29T12:24:10.792Z</time></trkpt><trkpt lat="44.2748811" lon="9.4692001"><ele>43.0</ele><time>2026-04-29T12:24:11.791Z</time></trkpt><trkpt lat="44.2749767" lon="9.4692422"><ele>43.0</ele><time>2026-04-29T12:24:12.792Z</time></trkpt><trkpt lat="44.2750761" lon="9.4692719"><ele>45.0</ele><time>2026-04-29T12:24:13.792Z</time></trkpt><trkpt lat="44.2751729" lon="9.4692955"><ele>47.0</ele><time>2026-04-29T12:24:14.792Z</time></trkpt><trkpt lat="44.275264" lon="9.4693164"><ele>49.0</ele><time>2026-04-29T12:24:15.791Z</time></trkpt><trkpt lat="44.2753506" lon="9.4693353"><ele>51.0</ele><time>2026-04-29T12:24:16.792Z</time></trkpt><trkpt lat="44.2754317" lon="9.4693552"><ele>52.99999999999999</ele><time>2026-04-29T12:24:17.792Z</time></trkpt><trkpt lat="44.275516" lon="9.4693705"><ele>55.0</ele><time>2026-04-29T12:24:18.791Z</time></trkpt><trkpt lat="44.2756062" lon="9.4693845"><ele>56.0</ele><time>2026-04-29T12:24:19.792Z</time></trkpt><trkpt lat="44.2757025" lon="9.4693874"><ele>57.0</ele><time>2026-04-29T12:24:20.792Z</time></trkpt><trkpt lat="44.2758102" lon="9.4693922"><ele>58.0</ele><time>2026-04-29T12:24:21.792Z</time></trkpt><trkpt lat="44.2759243" lon="9.4693962"><ele>59.0</ele><time>2026-04-29T12:24:22.791Z</time></trkpt><trkpt lat="44.2760424" lon="9.4694003"><ele>60.0</ele><time>2026-04-29T12:24:23.791Z</time></trkpt><trkpt lat="44.2761706" lon="9.4694017"><ele>60.0</ele><time>2026-04-29T12:24:24.791Z</time></trkpt><trkpt lat="44.2763032" lon="9.4694111"><ele>60.0</ele><time>2026-04-29T12:24:25.792Z</time></trkpt><trkpt lat="44.2764262" lon="9.4694425"><ele>60.0</ele><time>2026-04-29T12:24:26.792Z</time></trkpt><trkpt lat="44.2765396" lon="9.4695058"><ele>60.0</ele><time>2026-04-29T12:24:27.792Z</time></trkpt><trkpt lat="44.2766382" lon="9.4696098"><ele>57.5</ele><time>2026-04-29T12:24:28.792Z</time></trkpt><trkpt lat="44.2767126" lon="9.4697443"><ele>55.0</ele><time>2026-04-29T12:24:29.792Z</time></trkpt><trkpt lat="44.2767586" lon="9.4698967"><ele>52.5</ele><time>2026-04-29T12:24:30.792Z</time></trkpt><trkpt lat="44.2767712" lon="9.4700623"><ele>50.0</ele><time>2026-04-29T12:24:31.792Z</time></trkpt><trkpt lat="44.2767552" lon="9.4702296"><ele>50.0</ele><time>2026-04-29T12:24:32.792Z</time></trkpt><trkpt lat="44.2767045" lon="9.4703871"><ele>50.0</ele><time>2026-04-29T12:24:33.792Z</time></trkpt><trkpt lat="44.2766231" lon="9.4705285"><ele>50.0</ele><time>2026-04-29T12:24:34.792Z</time></trkpt><trkpt lat="44.2765306" lon="9.4706358"><ele>50.0</ele><time>2026-04-29T12:24:35.792Z</time></trkpt><trkpt lat="44.2764522" lon="9.4707147"><ele>49.833333333333336</ele><time>2026-04-29T12:24:36.791Z</time></trkpt><trkpt lat="44.2763821" lon="9.4707793"><ele>49.66666666666667</ele><time>2026-04-29T12:24:37.792Z</time></trkpt><trkpt lat="44.2763237" lon="9.4708319"><ele>49.5</ele><time>2026-04-29T12:24:38.792Z</time></trkpt><trkpt lat="44.2762256" lon="9.4709162"><ele>49.33333333333333</ele><time>2026-04-29T12:24:40.791Z</time></trkpt><trkpt lat="44.2761406" lon="9.471"><ele>49.166666666666664</ele><time>2026-04-29T12:24:42.792Z</time></trkpt><trkpt lat="44.2760828" lon="9.471066"><ele>49.0</ele><time>2026-04-29T12:24:43.792Z</time></trkpt><trkpt lat="44.2760177" lon="9.4711588"><ele>49.0</ele><time>2026-04-29T12:24:44.792Z</time></trkpt><trkpt lat="44.2759427" lon="9.4712731"><ele>49.0</ele><time>2026-04-29T12:24:45.792Z</time></trkpt><trkpt lat="44.2758746" lon="9.4713869"><ele>49.0</ele><time>2026-04-29T12:24:46.792Z</time></trkpt><trkpt lat="44.2758205" lon="9.4714926"><ele>49.0</ele><time>2026-04-29T12:24:47.792Z</time></trkpt><trkpt lat="44.2757819" lon="9.4715782"><ele>49.0</ele><time>2026-04-29T12:24:48.792Z</time></trkpt><trkpt lat="44.2757289" lon="9.4717105"><ele>49.2</ele><time>2026-04-29T12:24:50.792Z</time></trkpt><trkpt lat="44.2756604" lon="9.4718551"><ele>49.400000000000006</ele><time>2026-04-29T12:24:52.792Z</time></trkpt><trkpt lat="44.2756197" lon="9.4719447"><ele>49.6</ele><time>2026-04-29T12:24:53.792Z</time></trkpt><trkpt lat="44.2755758" lon="9.4720489"><ele>49.8</ele><time>2026-04-29T12:24:54.792Z</time></trkpt><trkpt lat="44.2755289" lon="9.4721616"><ele>50.0</ele><time>2026-04-29T12:24:55.792Z</time></trkpt><trkpt lat="44.2754841" lon="9.4722765"><ele>50.00000000000001</ele><time>2026-04-29T12:24:56.792Z</time></trkpt><trkpt lat="44.275439" lon="9.4723793"><ele>50.0</ele><time>2026-04-29T12:24:57.791Z</time></trkpt><trkpt lat="44.2753898" lon="9.4724717"><ele>50.0</ele><time>2026-04-29T12:24:58.792Z</time></trkpt><trkpt lat="44.2753314" lon="9.4725596"><ele>50.0</ele><time>2026-04-29T12:24:59.792Z</time></trkpt><trkpt lat="44.2752648" lon="9.4726432"><ele>50.00000000000001</ele><time>2026-04-29T12:25:00.792Z</time></trkpt><trkpt lat="44.2751938" lon="9.4727296"><ele>50.0</ele><time>2026-04-29T12:25:01.792Z</time></trkpt><trkpt lat="44.2751218" lon="9.4728204"><ele>50.0</ele><time>2026-04-29T12:25:02.792Z</time></trkpt><trkpt lat="44.2750489" lon="9.4729137"><ele>50.0</ele><time>2026-04-29T12:25:03.792Z</time></trkpt><trkpt lat="44.2749733" lon="9.4730091"><ele>50.0</ele><time>2026-04-29T12:25:04.792Z</time></trkpt><trkpt lat="44.2748975" lon="9.4731051"><ele>50.0</ele><time>2026-04-29T12:25:05.792Z</time></trkpt><trkpt lat="44.2748204" lon="9.4732002"><ele>50.0</ele><time>2026-04-29T12:25:06.792Z</time></trkpt><trkpt lat="44.2747394" lon="9.4732805"><ele>50.4</ele><time>2026-04-29T12:25:07.792Z</time></trkpt><trkpt lat="44.2746483" lon="9.47335"><ele>50.8</ele><time>2026-04-29T12:25:08.792Z</time></trkpt><trkpt lat="44.2745469" lon="9.4734034"><ele>51.2</ele><time>2026-04-29T12:25:09.792Z</time></trkpt><trkpt lat="44.2744353" lon="9.4734419"><ele>51.6</ele><time>2026-04-29T12:25:10.792Z</time></trkpt><trkpt lat="44.2743179" lon="9.4734813"><ele>52.0</ele><time>2026-04-29T12:25:11.791Z</time></trkpt><trkpt lat="44.2742125" lon="9.473533"><ele>52.0</ele><time>2026-04-29T12:25:12.792Z</time></trkpt><trkpt lat="44.2741095" lon="9.4736048"><ele>52.0</ele><time>2026-04-29T12:25:13.792Z</time></trkpt><trkpt lat="44.2740146" lon="9.4737038"><ele>52.0</ele><time>2026-04-29T12:25:14.792Z</time></trkpt><trkpt lat="44.2739353" lon="9.4738224"><ele>52.0</ele><time>2026-04-29T12:25:15.792Z</time></trkpt><trkpt lat="44.2738701" lon="9.4739602"><ele>51.8</ele><time>2026-04-29T12:25:16.791Z</time></trkpt><trkpt lat="44.2738152" lon="9.4740926"><ele>51.6</ele><time>2026-04-29T12:25:17.791Z</time></trkpt><trkpt lat="44.2737635" lon="9.47422"><ele>51.4</ele><time>2026-04-29T12:25:18.792Z</time></trkpt><trkpt lat="44.2737139" lon="9.4743427"><ele>51.199999999999996</ele><time>2026-04-29T12:25:19.791Z</time></trkpt><trkpt lat="44.273677" lon="9.4744684"><ele>51.0</ele><time>2026-04-29T12:25:20.792Z</time></trkpt><trkpt lat="44.2736551" lon="9.4746097"><ele>51.8</ele><time>2026-04-29T12:25:21.792Z</time></trkpt><trkpt lat="44.2736512" lon="9.4747563"><ele>52.599999999999994</ele><time>2026-04-29T12:25:22.792Z</time></trkpt><trkpt lat="44.2736628" lon="9.4749069"><ele>53.4</ele><time>2026-04-29T12:25:23.792Z</time></trkpt><trkpt lat="44.2736803" lon="9.4750594"><ele>54.2</ele><time>2026-04-29T12:25:24.792Z</time></trkpt><trkpt lat="44.2736961" lon="9.4752137"><ele>55.0</ele><time>2026-04-29T12:25:25.792Z</time></trkpt><trkpt lat="44.2737134" lon="9.4753508"><ele>55.166666666666664</ele><time>2026-04-29T12:25:26.792Z</time></trkpt><trkpt lat="44.2737283" lon="9.4754659"><ele>55.33333333333333</ele><time>2026-04-29T12:25:27.791Z</time></trkpt><trkpt lat="44.2737414" lon="9.4755762"><ele>55.5</ele><time>2026-04-29T12:25:28.791Z</time></trkpt><trkpt lat="44.2737515" lon="9.475689"><ele>55.66666666666667</ele><time>2026-04-29T12:25:29.792Z</time></trkpt><trkpt lat="44.2737546" lon="9.4758083"><ele>55.833333333333336</ele><time>2026-04-29T12:25:30.792Z</time></trkpt><trkpt lat="44.2737466" lon="9.4759323"><ele>56.0</ele><time>2026-04-29T12:25:31.791Z</time></trkpt><trkpt lat="44.2737258" lon="9.476065"><ele>56.0</ele><time>2026-04-29T12:25:32.791Z</time></trkpt><trkpt lat="44.2736991" lon="9.476203"><ele>55.99999999999999</ele><time>2026-04-29T12:25:33.792Z</time></trkpt><trkpt lat="44.2736666" lon="9.4763479"><ele>55.99999999999999</ele><time>2026-04-29T12:25:34.792Z</time></trkpt><trkpt lat="44.2736309" lon="9.4764952"><ele>56.0</ele><time>2026-04-29T12:25:35.791Z</time></trkpt><trkpt lat="44.2735956" lon="9.4766298"><ele>56.0</ele><time>2026-04-29T12:25:36.791Z</time></trkpt><trkpt lat="44.2735634" lon="9.4767615"><ele>56.333333333333336</ele><time>2026-04-29T12:25:37.792Z</time></trkpt><trkpt lat="44.2735338" lon="9.4768812"><ele>56.66666666666667</ele><time>2026-04-29T12:25:38.792Z</time></trkpt><trkpt lat="44.2735097" lon="9.4769976"><ele>57.0</ele><time>2026-04-29T12:25:39.792Z</time></trkpt><trkpt lat="44.2734895" lon="9.4771174"><ele>57.33333333333333</ele><time>2026-04-29T12:25:40.792Z</time></trkpt><trkpt lat="44.273472" lon="9.4772416"><ele>57.666666666666664</ele><time>2026-04-29T12:25:41.792Z</time></trkpt><trkpt lat="44.2734595" lon="9.4773649"><ele>58.0</ele><time>2026-04-29T12:25:42.792Z</time></trkpt><trkpt lat="44.2734455" lon="9.4774897"><ele>58.599999999999994</ele><time>2026-04-29T12:25:43.792Z</time></trkpt><trkpt lat="44.2734312" lon="9.4776202"><ele>59.199999999999996</ele><time>2026-04-29T12:25:44.792Z</time></trkpt><trkpt lat="44.2734139" lon="9.4777575"><ele>59.8</ele><time>2026-04-29T12:25:45.792Z</time></trkpt><trkpt lat="44.2733926" lon="9.4779056"><ele>60.4</ele><time>2026-04-29T12:25:46.792Z</time></trkpt><trkpt lat="44.2733655" lon="9.4780608"><ele>61.0</ele><time>2026-04-29T12:25:47.792Z</time></trkpt><trkpt lat="44.273328" lon="9.4782133"><ele>61.199999999999996</ele><time>2026-04-29T12:25:48.791Z</time></trkpt><trkpt lat="44.2732828" lon="9.4783563"><ele>61.39999999999999</ele><time>2026-04-29T12:25:49.792Z</time></trkpt><trkpt lat="44.27324" lon="9.4784858"><ele>61.6</ele><time>2026-04-29T12:25:50.792Z</time></trkpt><trkpt lat="44.2732012" lon="9.4786045"><ele>61.8</ele><time>2026-04-29T12:25:51.791Z</time></trkpt><trkpt lat="44.273164" lon="9.4787251"><ele>62.0</ele><time>2026-04-29T12:25:52.792Z</time></trkpt><trkpt lat="44.2731305" lon="9.4788519"><ele>63.66666666666667</ele><time>2026-04-29T12:25:53.792Z</time></trkpt><trkpt lat="44.2731034" lon="9.4789875"><ele>65.33333333333334</ele><time>2026-04-29T12:25:54.792Z</time></trkpt><trkpt lat="44.2730877" lon="9.4791116"><ele>67.0</ele><time>2026-04-29T12:25:55.791Z</time></trkpt><trkpt lat="44.2730806" lon="9.479226"><ele>68.66666666666667</ele><time>2026-04-29T12:25:56.792Z</time></trkpt><trkpt lat="44.2730812" lon="9.4793375"><ele>70.33333333333333</ele><time>2026-04-29T12:25:57.792Z</time></trkpt><trkpt lat="44.2730889" lon="9.4794491"><ele>72.0</ele><time>2026-04-29T12:25:58.792Z</time></trkpt><trkpt lat="44.2730983" lon="9.4795569"><ele>72.0</ele><time>2026-04-29T12:25:59.792Z</time></trkpt><trkpt lat="44.2730821" lon="9.4796504"><ele>72.0</ele><time>2026-04-29T12:26:00.791Z</time></trkpt><trkpt lat="44.2730435" lon="9.47972"><ele>72.0</ele><time>2026-04-29T12:26:01.792Z</time></trkpt><trkpt lat="44.2729294" lon="9.4797688"><ele>72.0</ele><time>2026-04-29T12:26:03.792Z</time></trkpt><trkpt lat="44.2728318" lon="9.4796646"><ele>72.0</ele><time>2026-04-29T12:26:05.791Z</time></trkpt><trkpt lat="44.2727856" lon="9.4795693"><ele>72.0</ele><time>2026-04-29T12:26:06.792Z</time></trkpt><trkpt lat="44.2727341" lon="9.4794591"><ele>72.0</ele><time>2026-04-29T12:26:07.791Z</time></trkpt><trkpt lat="44.2726758" lon="9.4793394"><ele>72.0</ele><time>2026-04-29T12:26:08.792Z</time></trkpt><trkpt lat="44.2726187" lon="9.4792108"><ele>72.0</ele><time>2026-04-29T12:26:09.792Z</time></trkpt><trkpt lat="44.2725652" lon="9.4790661"><ele>72.0</ele><time>2026-04-29T12:26:10.791Z</time></trkpt><trkpt lat="44.2725037" lon="9.4789165"><ele>70.4</ele><time>2026-04-29T12:26:11.792Z</time></trkpt><trkpt lat="44.2724459" lon="9.4787631"><ele>68.80000000000001</ele><time>2026-04-29T12:26:12.792Z</time></trkpt><trkpt lat="44.2724064" lon="9.4786164"><ele>67.2</ele><time>2026-04-29T12:26:13.791Z</time></trkpt><trkpt lat="44.2723786" lon="9.4784787"><ele>65.60000000000001</ele><time>2026-04-29T12:26:14.792Z</time></trkpt><trkpt lat="44.272342" lon="9.4783485"><ele>64.0</ele><time>2026-04-29T12:26:15.792Z</time></trkpt><trkpt lat="44.2722837" lon="9.4782366"><ele>65.2</ele><time>2026-04-29T12:26:16.792Z</time></trkpt><trkpt lat="44.2721986" lon="9.4781664"><ele>66.4</ele><time>2026-04-29T12:26:17.792Z</time></trkpt><trkpt lat="44.2721076" lon="9.4781505"><ele>67.6</ele><time>2026-04-29T12:26:18.792Z</time></trkpt><trkpt lat="44.2720127" lon="9.4781807"><ele>68.8</ele><time>2026-04-29T12:26:19.792Z</time></trkpt><trkpt lat="44.2719026" lon="9.4782416"><ele>70.0</ele><time>2026-04-29T12:26:20.792Z</time></trkpt><trkpt lat="44.2717828" lon="9.4783147"><ele>70.0</ele><time>2026-04-29T12:26:21.791Z</time></trkpt><trkpt lat="44.2716605" lon="9.4784034"><ele>70.0</ele><time>2026-04-29T12:26:22.792Z</time></trkpt><trkpt lat="44.2715292" lon="9.4785054"><ele>70.0</ele><time>2026-04-29T12:26:23.792Z</time></trkpt><trkpt lat="44.2713888" lon="9.4786169"><ele>70.0</ele><time>2026-04-29T12:26:24.791Z</time></trkpt><trkpt lat="44.2712349" lon="9.4787346"><ele>70.0</ele><time>2026-04-29T12:26:25.792Z</time></trkpt><trkpt lat="44.2710803" lon="9.4788485"><ele>70.0</ele><time>2026-04-29T12:26:26.792Z</time></trkpt><trkpt lat="44.2709357" lon="9.4789509"><ele>71.0</ele><time>2026-04-29T12:26:27.792Z</time></trkpt><trkpt lat="44.2707889" lon="9.4790552"><ele>72.0</ele><time>2026-04-29T12:26:28.792Z</time></trkpt><trkpt lat="44.2706398" lon="9.4791514"><ele>73.0</ele><time>2026-04-29T12:26:29.792Z</time></trkpt><trkpt lat="44.2704876" lon="9.4792473"><ele>73.0</ele><time>2026-04-29T12:26:30.791Z</time></trkpt><trkpt lat="44.2703374" lon="9.4793575"><ele>73.0</ele><time>2026-04-29T12:26:31.792Z</time></trkpt><trkpt lat="44.2701856" lon="9.4794814"><ele>73.0</ele><time>2026-04-29T12:26:32.791Z</time></trkpt><trkpt lat="44.2700371" lon="9.4796132"><ele>75.66666666666666</ele><time>2026-04-29T12:26:33.792Z</time></trkpt><trkpt lat="44.2698988" lon="9.4797273"><ele>78.33333333333333</ele><time>2026-04-29T12:26:34.792Z</time></trkpt><trkpt lat="44.2697552" lon="9.4798216"><ele>81.0</ele><time>2026-04-29T12:26:35.792Z</time></trkpt><trkpt lat="44.2696113" lon="9.4799005"><ele>81.0</ele><time>2026-04-29T12:26:36.792Z</time></trkpt><trkpt lat="44.2694745" lon="9.4799555"><ele>81.0</ele><time>2026-04-29T12:26:37.792Z</time></trkpt><trkpt lat="44.2693345" lon="9.4799813"><ele>81.0</ele><time>2026-04-29T12:26:38.792Z</time></trkpt><trkpt lat="44.2691999" lon="9.4799779"><ele>81.0</ele><time>2026-04-29T12:26:39.792Z</time></trkpt><trkpt lat="44.2690798" lon="9.4799465"><ele>81.0</ele><time>2026-04-29T12:26:40.792Z</time></trkpt><trkpt lat="44.2689658" lon="9.4799264"><ele>81.0</ele><time>2026-04-29T12:26:41.791Z</time></trkpt><trkpt lat="44.2688556" lon="9.4799388"><ele>81.0</ele><time>2026-04-29T12:26:42.792Z</time></trkpt><trkpt lat="44.2687526" lon="9.4799916"><ele>81.0</ele><time>2026-04-29T12:26:43.792Z</time></trkpt><trkpt lat="44.2686518" lon="9.4800852"><ele>82.25</ele><time>2026-04-29T12:26:44.792Z</time></trkpt><trkpt lat="44.2685406" lon="9.4801953"><ele>83.5</ele><time>2026-04-29T12:26:45.791Z</time></trkpt><trkpt lat="44.268415" lon="9.480289"><ele>84.75</ele><time>2026-04-29T12:26:46.791Z</time></trkpt><trkpt lat="44.2682862" lon="9.4803784"><ele>86.0</ele><time>2026-04-29T12:26:47.791Z</time></trkpt><trkpt lat="44.2681571" lon="9.4804979"><ele>89.33333333333334</ele><time>2026-04-29T12:26:48.791Z</time></trkpt><trkpt lat="44.2680295" lon="9.4806476"><ele>92.66666666666667</ele><time>2026-04-29T12:26:49.792Z</time></trkpt><trkpt lat="44.2679032" lon="9.4808056"><ele>96.0</ele><time>2026-04-29T12:26:50.792Z</time></trkpt><trkpt lat="44.2677722" lon="9.4809677"><ele>96.0</ele><time>2026-04-29T12:26:51.792Z</time></trkpt><trkpt lat="44.2676498" lon="9.4811256"><ele>96.0</ele><time>2026-04-29T12:26:52.792Z</time></trkpt><trkpt lat="44.2675252" lon="9.4812897"><ele>96.0</ele><time>2026-04-29T12:26:53.792Z</time></trkpt><trkpt lat="44.2674071" lon="9.4814625"><ele>95.0</ele><time>2026-04-29T12:26:54.791Z</time></trkpt><trkpt lat="44.2672955" lon="9.4816421"><ele>94.0</ele><time>2026-04-29T12:26:55.792Z</time></trkpt><trkpt lat="44.2671947" lon="9.4818144"><ele>93.0</ele><time>2026-04-29T12:26:56.792Z</time></trkpt><trkpt lat="44.2670979" lon="9.4819729"><ele>93.75</ele><time>2026-04-29T12:26:57.792Z</time></trkpt><trkpt lat="44.267007" lon="9.4821162"><ele>94.5</ele><time>2026-04-29T12:26:58.792Z</time></trkpt><trkpt lat="44.2669206" lon="9.4822555"><ele>95.25</ele><time>2026-04-29T12:26:59.792Z</time></trkpt><trkpt lat="44.2668435" lon="9.4824081"><ele>96.0</ele><time>2026-04-29T12:27:00.792Z</time></trkpt><trkpt lat="44.2667872" lon="9.4825798"><ele>96.0</ele><time>2026-04-29T12:27:01.792Z</time></trkpt><trkpt lat="44.2667472" lon="9.4827659"><ele>96.0</ele><time>2026-04-29T12:27:02.792Z</time></trkpt><trkpt lat="44.2667111" lon="9.4829425"><ele>96.0</ele><time>2026-04-29T12:27:03.792Z</time></trkpt><trkpt lat="44.2666584" lon="9.4830876"><ele>96.0</ele><time>2026-04-29T12:27:04.792Z</time></trkpt><trkpt lat="44.2665734" lon="9.4831804"><ele>96.8</ele><time>2026-04-29T12:27:05.792Z</time></trkpt><trkpt lat="44.2664765" lon="9.4832291"><ele>97.6</ele><time>2026-04-29T12:27:06.792Z</time></trkpt><trkpt lat="44.2663659" lon="9.4832473"><ele>98.4</ele><time>2026-04-29T12:27:07.792Z</time></trkpt><trkpt lat="44.2662656" lon="9.4832821"><ele>99.2</ele><time>2026-04-29T12:27:08.792Z</time></trkpt><trkpt lat="44.2661736" lon="9.4833539"><ele>100.0</ele><time>2026-04-29T12:27:09.792Z</time></trkpt><trkpt lat="44.2660917" lon="9.4834709"><ele>100.0</ele><time>2026-04-29T12:27:10.792Z</time></trkpt><trkpt lat="44.2659927" lon="9.483602"><ele>100.0</ele><time>2026-04-29T12:27:11.792Z</time></trkpt><trkpt lat="44.2659055" lon="9.4836993"><ele>100.0</ele><time>2026-04-29T12:27:12.792Z</time></trkpt><trkpt lat="44.2658123" lon="9.4837853"><ele>100.0</ele><time>2026-04-29T12:27:13.792Z</time></trkpt><trkpt lat="44.2657083" lon="9.4838478"><ele>101.5</ele><time>2026-04-29T12:27:14.792Z</time></trkpt><trkpt lat="44.2656064" lon="9.4839121"><ele>103.0</ele><time>2026-04-29T12:27:15.792Z</time></trkpt><trkpt lat="44.2655125" lon="9.4840099"><ele>104.5</ele><time>2026-04-29T12:27:16.792Z</time></trkpt><trkpt lat="44.2654224" lon="9.4841249"><ele>106.0</ele><time>2026-04-29T12:27:17.792Z</time></trkpt><trkpt lat="44.2653217" lon="9.4842279"><ele>106.0</ele><time>2026-04-29T12:27:18.791Z</time></trkpt><trkpt lat="44.265213" lon="9.4843067"><ele>106.0</ele><time>2026-04-29T12:27:19.792Z</time></trkpt><trkpt lat="44.2651074" lon="9.4843412"><ele>106.0</ele><time>2026-04-29T12:27:20.792Z</time></trkpt><trkpt lat="44.2650191" lon="9.4843673"><ele>106.0</ele><time>2026-04-29T12:27:21.791Z</time></trkpt><trkpt lat="44.2649393" lon="9.4844257"><ele>106.0</ele><time>2026-04-29T12:27:22.792Z</time></trkpt><trkpt lat="44.2648682" lon="9.4845245"><ele>108.33333333333334</ele><time>2026-04-29T12:27:23.792Z</time></trkpt><trkpt lat="44.2648043" lon="9.4846246"><ele>110.66666666666667</ele><time>2026-04-29T12:27:24.792Z</time></trkpt><trkpt lat="44.2647629" lon="9.4847157"><ele>113.0</ele><time>2026-04-29T12:27:25.792Z</time></trkpt><trkpt lat="44.2647937" lon="9.4848729"><ele>115.33333333333334</ele><time>2026-04-29T12:27:27.792Z</time></trkpt><trkpt lat="44.2648492" lon="9.4849264"><ele>117.66666666666667</ele><time>2026-04-29T12:27:28.791Z</time></trkpt><trkpt lat="44.2649121" lon="9.4849992"><ele>120.0</ele><time>2026-04-29T12:27:29.791Z</time></trkpt><trkpt lat="44.2649457" lon="9.4851129"><ele>120.33333333333333</ele><time>2026-04-29T12:27:30.792Z</time></trkpt><trkpt lat="44.2649589" lon="9.4852367"><ele>120.66666666666666</ele><time>2026-04-29T12:27:31.792Z</time></trkpt><trkpt lat="44.2649765" lon="9.4853544"><ele>121.0</ele><time>2026-04-29T12:27:32.791Z</time></trkpt><trkpt lat="44.2649766" lon="9.4854529"><ele>121.33333333333333</ele><time>2026-04-29T12:27:33.792Z</time></trkpt><trkpt lat="44.264957" lon="9.4855549"><ele>121.66666666666666</ele><time>2026-04-29T12:27:34.792Z</time></trkpt><trkpt lat="44.2649477" lon="9.4856462"><ele>122.0</ele><time>2026-04-29T12:27:35.792Z</time></trkpt><trkpt lat="44.2650035" lon="9.485775"><ele>124.19999999999999</ele><time>2026-04-29T12:27:37.792Z</time></trkpt><trkpt lat="44.2650672" lon="9.485827"><ele>126.39999999999999</ele><time>2026-04-29T12:27:38.792Z</time></trkpt><trkpt lat="44.2651459" lon="9.4858897"><ele>128.60000000000002</ele><time>2026-04-29T12:27:39.792Z</time></trkpt><trkpt lat="44.265207" lon="9.4859945"><ele>130.8</ele><time>2026-04-29T12:27:40.792Z</time></trkpt><trkpt lat="44.2652354" lon="9.4861296"><ele>133.0</ele><time>2026-04-29T12:27:41.792Z</time></trkpt><trkpt lat="44.2652265" lon="9.4862858"><ele>133.6</ele><time>2026-04-29T12:27:42.792Z</time></trkpt><trkpt lat="44.2651899" lon="9.4864439"><ele>134.20000000000002</ele><time>2026-04-29T12:27:43.792Z</time></trkpt><trkpt lat="44.2651282" lon="9.4865884"><ele>134.8</ele><time>2026-04-29T12:27:44.792Z</time></trkpt><trkpt lat="44.2650464" lon="9.4866771"><ele>135.4</ele><time>2026-04-29T12:27:45.792Z</time></trkpt><trkpt lat="44.2649572" lon="9.4867412"><ele>136.0</ele><time>2026-04-29T12:27:46.792Z</time></trkpt><trkpt lat="44.2648652" lon="9.4867802"><ele>138.66666666666669</ele><time>2026-04-29T12:27:47.791Z</time></trkpt><trkpt lat="44.2647729" lon="9.4867667"><ele>141.33333333333334</ele><time>2026-04-29T12:27:48.792Z</time></trkpt><trkpt lat="44.2646965" lon="9.4866981"><ele>144.0</ele><time>2026-04-29T12:27:49.792Z</time></trkpt><trkpt lat="44.26465" lon="9.4865911"><ele>146.66666666666666</ele><time>2026-04-29T12:27:50.792Z</time></trkpt><trkpt lat="44.2646385" lon="9.486471"><ele>149.33333333333331</ele><time>2026-04-29T12:27:51.792Z</time></trkpt><trkpt lat="44.264624" lon="9.4863627"><ele>152.0</ele><time>2026-04-29T12:27:52.792Z</time></trkpt><trkpt lat="44.2645966" lon="9.4862641"><ele>146.33333333333331</ele><time>2026-04-29T12:27:53.792Z</time></trkpt><trkpt lat="44.2644717" lon="9.4862391"><ele>140.66666666666666</ele><time>2026-04-29T12:27:55.792Z</time></trkpt><trkpt lat="44.2642576" lon="9.4862185"><ele>135.0</ele><time>2026-04-29T12:27:56.792Z</time></trkpt><trkpt lat="44.264144" lon="9.4862089"><ele>135.0</ele><time>2026-04-29T12:27:57.792Z</time></trkpt><trkpt lat="44.2640711" lon="9.4862147"><ele>135.0</ele><time>2026-04-29T12:27:58.792Z</time></trkpt><trkpt lat="44.2639911" lon="9.4862176"><ele>135.0</ele><time>2026-04-29T12:27:59.792Z</time></trkpt><trkpt lat="44.2639212" lon="9.486293"><ele>135.0</ele><time>2026-04-29T12:28:02.792Z</time></trkpt><trkpt lat="44.2639462" lon="9.4863987"><ele>135.0</ele><time>2026-04-29T12:28:04.792Z</time></trkpt><trkpt lat="44.2640509" lon="9.4864383"><ele>135.0</ele><time>2026-04-29T12:28:06.792Z</time></trkpt><trkpt lat="44.2641109" lon="9.4864672"><ele>138.4</ele><time>2026-04-29T12:28:07.792Z</time></trkpt><trkpt lat="44.264159" lon="9.4865747"><ele>141.8</ele><time>2026-04-29T12:28:08.792Z</time></trkpt><trkpt lat="44.2641832" lon="9.4866891"><ele>145.2</ele><time>2026-04-29T12:28:09.792Z</time></trkpt><trkpt lat="44.2641985" lon="9.4867849"><ele>148.6</ele><time>2026-04-29T12:28:10.792Z</time></trkpt><trkpt lat="44.2641275" lon="9.486894"><ele>152.0</ele><time>2026-04-29T12:28:12.791Z</time></trkpt><trkpt lat="44.2640053" lon="9.4868208"><ele>155.39999999999998</ele><time>2026-04-29T12:28:14.791Z</time></trkpt><trkpt lat="44.2639275" lon="9.4867532"><ele>158.79999999999998</ele><time>2026-04-29T12:28:15.791Z</time></trkpt><trkpt lat="44.2638511" lon="9.4866838"><ele>162.2</ele><time>2026-04-29T12:28:16.792Z</time></trkpt><trkpt lat="44.2637146" lon="9.4866791"><ele>165.6</ele><time>2026-04-29T12:28:17.792Z</time></trkpt><trkpt lat="44.2635988" lon="9.4866431"><ele>169.0</ele><time>2026-04-29T12:28:18.792Z</time></trkpt><trkpt lat="44.2634836" lon="9.4866189"><ele>169.0</ele><time>2026-04-29T12:28:19.792Z</time></trkpt><trkpt lat="44.2633831" lon="9.4866069"><ele>169.0</ele><time>2026-04-29T12:28:20.791Z</time></trkpt><trkpt lat="44.2632656" lon="9.4866111"><ele>169.0</ele><time>2026-04-29T12:28:21.792Z</time></trkpt><trkpt lat="44.2631637" lon="9.4866329"><ele>169.0</ele><time>2026-04-29T12:28:22.791Z</time></trkpt><trkpt lat="44.2630717" lon="9.486677"><ele>169.0</ele><time>2026-04-29T12:28:23.791Z</time></trkpt><trkpt lat="44.2629834" lon="9.4867556"><ele>167.75</ele><time>2026-04-29T12:28:24.791Z</time></trkpt><trkpt lat="44.2628865" lon="9.4868592"><ele>166.5</ele><time>2026-04-29T12:28:25.791Z</time></trkpt><trkpt lat="44.2627652" lon="9.4869525"><ele>165.25</ele><time>2026-04-29T12:28:26.792Z</time></trkpt><trkpt lat="44.2626269" lon="9.4870286"><ele>164.0</ele><time>2026-04-29T12:28:27.792Z</time></trkpt><trkpt lat="44.2625028" lon="9.487083"><ele>165.0</ele><time>2026-04-29T12:28:28.792Z</time></trkpt><trkpt lat="44.2623732" lon="9.4871119"><ele>166.0</ele><time>2026-04-29T12:28:29.792Z</time></trkpt><trkpt lat="44.2622583" lon="9.4871024"><ele>167.0</ele><time>2026-04-29T12:28:30.792Z</time></trkpt><trkpt lat="44.2621551" lon="9.4870677"><ele>168.0</ele><time>2026-04-29T12:28:31.791Z</time></trkpt><trkpt lat="44.2620583" lon="9.4870733"><ele>169.0</ele><time>2026-04-29T12:28:32.792Z</time></trkpt><trkpt lat="44.2619633" lon="9.4871238"><ele>169.0</ele><time>2026-04-29T12:28:33.792Z</time></trkpt><trkpt lat="44.2618659" lon="9.4872294"><ele>169.0</ele><time>2026-04-29T12:28:34.792Z</time></trkpt><trkpt lat="44.2617597" lon="9.4873642"><ele>169.0</ele><time>2026-04-29T12:28:35.792Z</time></trkpt><trkpt lat="44.2616771" lon="9.4875021"><ele>169.0</ele><time>2026-04-29T12:28:36.792Z</time></trkpt><trkpt lat="44.2616157" lon="9.4876457"><ele>169.0</ele><time>2026-04-29T12:28:37.791Z</time></trkpt><trkpt lat="44.261581" lon="9.487797"><ele>169.0</ele><time>2026-04-29T12:28:38.792Z</time></trkpt><trkpt lat="44.2615755" lon="9.487965"><ele>169.0</ele><time>2026-04-29T12:28:39.792Z</time></trkpt><trkpt lat="44.2615997" lon="9.4881657"><ele>169.0</ele><time>2026-04-29T12:28:40.792Z</time></trkpt><trkpt lat="44.2616345" lon="9.4884003"><ele>171.33333333333334</ele><time>2026-04-29T12:28:41.792Z</time></trkpt><trkpt lat="44.2616732" lon="9.4886184"><ele>173.66666666666666</ele><time>2026-04-29T12:28:42.791Z</time></trkpt><trkpt lat="44.2617235" lon="9.4888194"><ele>176.0</ele><time>2026-04-29T12:28:43.792Z</time></trkpt><trkpt lat="44.2617752" lon="9.4890133"><ele>176.5</ele><time>2026-04-29T12:28:44.792Z</time></trkpt><trkpt lat="44.2618135" lon="9.489197"><ele>177.0</ele><time>2026-04-29T12:28:45.792Z</time></trkpt><trkpt lat="44.2618357" lon="9.4893744"><ele>177.5</ele><time>2026-04-29T12:28:46.792Z</time></trkpt><trkpt lat="44.2618492" lon="9.4895293"><ele>178.0</ele><time>2026-04-29T12:28:47.792Z</time></trkpt><trkpt lat="44.2618644" lon="9.4896629"><ele>178.0</ele><time>2026-04-29T12:28:48.792Z</time></trkpt><trkpt lat="44.2619085" lon="9.4897689"><ele>178.0</ele><time>2026-04-29T12:28:49.792Z</time></trkpt><trkpt lat="44.2619823" lon="9.4898424"><ele>178.0</ele><time>2026-04-29T12:28:50.792Z</time></trkpt><trkpt lat="44.2620727" lon="9.489859"><ele>178.0</ele><time>2026-04-29T12:28:51.792Z</time></trkpt><trkpt lat="44.2621748" lon="9.4898396"><ele>178.0</ele><time>2026-04-29T12:28:52.792Z</time></trkpt><trkpt lat="44.2622763" lon="9.4898165"><ele>180.60000000000002</ele><time>2026-04-29T12:28:53.792Z</time></trkpt><trkpt lat="44.2623653" lon="9.4898271"><ele>183.20000000000002</ele><time>2026-04-29T12:28:54.792Z</time></trkpt><trkpt lat="44.2624375" lon="9.4898864"><ele>185.8</ele><time>2026-04-29T12:28:55.792Z</time></trkpt><trkpt lat="44.2625035" lon="9.4899874"><ele>188.4</ele><time>2026-04-29T12:28:56.791Z</time></trkpt><trkpt lat="44.2625768" lon="9.4901295"><ele>191.0</ele><time>2026-04-29T12:28:57.792Z</time></trkpt><trkpt lat="44.2626539" lon="9.4902924"><ele>191.66666666666666</ele><time>2026-04-29T12:28:58.792Z</time></trkpt><trkpt lat="44.2627317" lon="9.4904696"><ele>192.33333333333331</ele><time>2026-04-29T12:28:59.792Z</time></trkpt><trkpt lat="44.2628155" lon="9.4906612"><ele>193.0</ele><time>2026-04-29T12:29:00.792Z</time></trkpt><trkpt lat="44.2628993" lon="9.4908236"><ele>193.0</ele><time>2026-04-29T12:29:01.792Z</time></trkpt><trkpt lat="44.2629935" lon="9.4909635"><ele>193.0</ele><time>2026-04-29T12:29:02.792Z</time></trkpt><trkpt lat="44.2631058" lon="9.4910699"><ele>193.0</ele><time>2026-04-29T12:29:03.792Z</time></trkpt><trkpt lat="44.263235" lon="9.4911467"><ele>193.0</ele><time>2026-04-29T12:29:04.792Z</time></trkpt><trkpt lat="44.2633749" lon="9.4911979"><ele>194.5</ele><time>2026-04-29T12:29:05.792Z</time></trkpt><trkpt lat="44.2635171" lon="9.4912236"><ele>196.0</ele><time>2026-04-29T12:29:06.791Z</time></trkpt><trkpt lat="44.2636609" lon="9.4912147"><ele>197.5</ele><time>2026-04-29T12:29:07.792Z</time></trkpt><trkpt lat="44.2637893" lon="9.4912189"><ele>199.0</ele><time>2026-04-29T12:29:08.792Z</time></trkpt><trkpt lat="44.2638997" lon="9.4912482"><ele>204.2</ele><time>2026-04-29T12:29:09.792Z</time></trkpt><trkpt lat="44.2640099" lon="9.491281"><ele>209.39999999999998</ele><time>2026-04-29T12:29:10.792Z</time></trkpt><trkpt lat="44.2640822" lon="9.4913383"><ele>214.6</ele><time>2026-04-29T12:29:11.792Z</time></trkpt><trkpt lat="44.264161" lon="9.4914186"><ele>219.8</ele><time>2026-04-29T12:29:12.792Z</time></trkpt><trkpt lat="44.2642334" lon="9.4915257"><ele>225.0</ele><time>2026-04-29T12:29:13.792Z</time></trkpt><trkpt lat="44.2642997" lon="9.491656"><ele>225.0</ele><time>2026-04-29T12:29:14.792Z</time></trkpt><trkpt lat="44.2643736" lon="9.4917652"><ele>225.0</ele><time>2026-04-29T12:29:15.792Z</time></trkpt><trkpt lat="44.2644656" lon="9.4918304"><ele>225.0</ele><time>2026-04-29T12:29:16.792Z</time></trkpt><trkpt lat="44.2645707" lon="9.4918505"><ele>225.0</ele><time>2026-04-29T12:29:17.792Z</time></trkpt><trkpt lat="44.2646845" lon="9.491826"><ele>225.0</ele><time>2026-04-29T12:29:18.792Z</time></trkpt><trkpt lat="44.2647983" lon="9.4917692"><ele>224.8</ele><time>2026-04-29T12:29:19.791Z</time></trkpt><trkpt lat="44.2649063" lon="9.4916633"><ele>224.6</ele><time>2026-04-29T12:29:20.792Z</time></trkpt><trkpt lat="44.2650099" lon="9.4915655"><ele>224.39999999999998</ele><time>2026-04-29T12:29:21.792Z</time></trkpt><trkpt lat="44.2650737" lon="9.4915009"><ele>224.2</ele><time>2026-04-29T12:29:22.791Z</time></trkpt><trkpt lat="44.265155" lon="9.4914591"><ele>224.0</ele><time>2026-04-29T12:29:23.792Z</time></trkpt><trkpt lat="44.2652267" lon="9.4914703"><ele>224.0</ele><time>2026-04-29T12:29:24.791Z</time></trkpt><trkpt lat="44.2652933" lon="9.4915329"><ele>224.0</ele><time>2026-04-29T12:29:25.792Z</time></trkpt><trkpt lat="44.2653595" lon="9.4916456"><ele>224.0</ele><time>2026-04-29T12:29:26.792Z</time></trkpt><trkpt lat="44.2654295" lon="9.491807"><ele>224.0</ele><time>2026-04-29T12:29:27.792Z</time></trkpt><trkpt lat="44.265503" lon="9.4919875"><ele>227.25</ele><time>2026-04-29T12:29:28.792Z</time></trkpt><trkpt lat="44.2655711" lon="9.4921401"><ele>230.5</ele><time>2026-04-29T12:29:29.791Z</time></trkpt><trkpt lat="44.2656508" lon="9.4922885"><ele>233.75</ele><time>2026-04-29T12:29:30.792Z</time></trkpt><trkpt lat="44.2657438" lon="9.4924069"><ele>237.0</ele><time>2026-04-29T12:29:31.792Z</time></trkpt><trkpt lat="44.2658488" lon="9.4925082"><ele>237.0</ele><time>2026-04-29T12:29:32.792Z</time></trkpt><trkpt lat="44.2659469" lon="9.4926051"><ele>237.0</ele><time>2026-04-29T12:29:33.792Z</time></trkpt><trkpt lat="44.2660445" lon="9.4926486"><ele>237.0</ele><time>2026-04-29T12:29:34.792Z</time></trkpt><trkpt lat="44.2661376" lon="9.4926763"><ele>237.0</ele><time>2026-04-29T12:29:35.792Z</time></trkpt><trkpt lat="44.2662192" lon="9.4927205"><ele>237.0</ele><time>2026-04-29T12:29:36.792Z</time></trkpt><trkpt lat="44.2663048" lon="9.4928082"><ele>237.0</ele><time>2026-04-29T12:29:37.791Z</time></trkpt><trkpt lat="44.2663897" lon="9.4929131"><ele>237.0</ele><time>2026-04-29T12:29:38.792Z</time></trkpt><trkpt lat="44.2664505" lon="9.4929856"><ele>237.0</ele><time>2026-04-29T12:29:39.792Z</time></trkpt><trkpt lat="44.2665313" lon="9.4930788"><ele>237.0</ele><time>2026-04-29T12:29:41.792Z</time></trkpt><trkpt lat="44.2666015" lon="9.49315"><ele>237.0</ele><time>2026-04-29T12:29:43.792Z</time></trkpt><trkpt lat="44.2666736" lon="9.4932383"><ele>238.8</ele><time>2026-04-29T12:29:45.792Z</time></trkpt><trkpt lat="44.2666866" lon="9.4933611"><ele>240.6</ele><time>2026-04-29T12:29:47.792Z</time></trkpt><trkpt lat="44.2666032" lon="9.493418"><ele>242.40000000000003</ele><time>2026-04-29T12:29:49.791Z</time></trkpt><trkpt lat="44.2664771" lon="9.4933175"><ele>244.20000000000002</ele><time>2026-04-29T12:29:51.792Z</time></trkpt><trkpt lat="44.2663864" lon="9.4932389"><ele>246.0</ele><time>2026-04-29T12:29:52.792Z</time></trkpt><trkpt lat="44.2663087" lon="9.4931769"><ele>247.8</ele><time>2026-04-29T12:29:53.792Z</time></trkpt><trkpt lat="44.2662224" lon="9.4931433"><ele>249.60000000000002</ele><time>2026-04-29T12:29:54.791Z</time></trkpt><trkpt lat="44.2661247" lon="9.4931451"><ele>251.4</ele><time>2026-04-29T12:29:55.792Z</time></trkpt><trkpt lat="44.2660156" lon="9.4931662"><ele>253.2</ele><time>2026-04-29T12:29:56.792Z</time></trkpt><trkpt lat="44.2658988" lon="9.4931927"><ele>255.0</ele><time>2026-04-29T12:29:57.792Z</time></trkpt><trkpt lat="44.265786" lon="9.4932188"><ele>255.0</ele><time>2026-04-29T12:29:58.792Z</time></trkpt><trkpt lat="44.2656842" lon="9.4932466"><ele>255.0</ele><time>2026-04-29T12:29:59.792Z</time></trkpt><trkpt lat="44.2655755" lon="9.4932929"><ele>255.0</ele><time>2026-04-29T12:30:00.792Z</time></trkpt><trkpt lat="44.2654681" lon="9.4933638"><ele>255.0</ele><time>2026-04-29T12:30:01.791Z</time></trkpt><trkpt lat="44.2653598" lon="9.4934619"><ele>254.75</ele><time>2026-04-29T12:30:02.791Z</time></trkpt><trkpt lat="44.2652489" lon="9.493572"><ele>254.5</ele><time>2026-04-29T12:30:03.791Z</time></trkpt><trkpt lat="44.2651458" lon="9.493679"><ele>254.25</ele><time>2026-04-29T12:30:04.792Z</time></trkpt><trkpt lat="44.2650441" lon="9.493756"><ele>254.0</ele><time>2026-04-29T12:30:05.792Z</time></trkpt><trkpt lat="44.2649367" lon="9.4937868"><ele>260.5</ele><time>2026-04-29T12:30:06.792Z</time></trkpt><trkpt lat="44.2648189" lon="9.4937968"><ele>267.0</ele><time>2026-04-29T12:30:07.792Z</time></trkpt><trkpt lat="44.2646928" lon="9.4937818"><ele>273.5</ele><time>2026-04-29T12:30:08.792Z</time></trkpt><trkpt lat="44.2645589" lon="9.49377"><ele>280.0</ele><time>2026-04-29T12:30:09.792Z</time></trkpt><trkpt lat="44.2644147" lon="9.493756"><ele>275.66666666666663</ele><time>2026-04-29T12:30:10.792Z</time></trkpt><trkpt lat="44.2642596" lon="9.493748"><ele>271.3333333333333</ele><time>2026-04-29T12:30:11.792Z</time></trkpt><trkpt lat="44.2640944" lon="9.4937472"><ele>267.0</ele><time>2026-04-29T12:30:12.792Z</time></trkpt><trkpt lat="44.2639268" lon="9.4937374"><ele>267.0</ele><time>2026-04-29T12:30:13.792Z</time></trkpt><trkpt lat="44.2637721" lon="9.4936898"><ele>267.0</ele><time>2026-04-29T12:30:14.792Z</time></trkpt><trkpt lat="44.2636283" lon="9.4936147"><ele>267.0</ele><time>2026-04-29T12:30:15.792Z</time></trkpt><trkpt lat="44.2634986" lon="9.4935307"><ele>267.0</ele><time>2026-04-29T12:30:16.792Z</time></trkpt><trkpt lat="44.2633757" lon="9.4934526"><ele>267.0</ele><time>2026-04-29T12:30:17.792Z</time></trkpt><trkpt lat="44.2632484" lon="9.4933907"><ele>267.0</ele><time>2026-04-29T12:30:18.792Z</time></trkpt><trkpt lat="44.2631116" lon="9.4933408"><ele>267.0</ele><time>2026-04-29T12:30:19.792Z</time></trkpt><trkpt lat="44.2629742" lon="9.4932967"><ele>267.5</ele><time>2026-04-29T12:30:20.791Z</time></trkpt><trkpt lat="44.2628543" lon="9.4932727"><ele>268.0</ele><time>2026-04-29T12:30:21.792Z</time></trkpt><trkpt lat="44.2627432" lon="9.4932681"><ele>268.5</ele><time>2026-04-29T12:30:22.792Z</time></trkpt><trkpt lat="44.2626391" lon="9.4933059"><ele>269.0</ele><time>2026-04-29T12:30:23.792Z</time></trkpt><trkpt lat="44.2625294" lon="9.4933788"><ele>269.0</ele><time>2026-04-29T12:30:24.792Z</time></trkpt><trkpt lat="44.26242" lon="9.4934663"><ele>269.0</ele><time>2026-04-29T12:30:25.792Z</time></trkpt><trkpt lat="44.2623145" lon="9.493578"><ele>269.0</ele><time>2026-04-29T12:30:26.792Z</time></trkpt><trkpt lat="44.2622182" lon="9.4937093"><ele>269.0</ele><time>2026-04-29T12:30:27.792Z</time></trkpt><trkpt lat="44.2621432" lon="9.4938589"><ele>265.25</ele><time>2026-04-29T12:30:28.792Z</time></trkpt><trkpt lat="44.2620878" lon="9.494022"><ele>261.5</ele><time>2026-04-29T12:30:29.792Z</time></trkpt><trkpt lat="44.2620567" lon="9.4941916"><ele>257.75</ele><time>2026-04-29T12:30:30.792Z</time></trkpt><trkpt lat="44.2620545" lon="9.4943719"><ele>254.0</ele><time>2026-04-29T12:30:31.791Z</time></trkpt><trkpt lat="44.2620785" lon="9.494565"><ele>255.0</ele><time>2026-04-29T12:30:32.792Z</time></trkpt><trkpt lat="44.2621194" lon="9.4947739"><ele>256.0</ele><time>2026-04-29T12:30:33.792Z</time></trkpt><trkpt lat="44.2621727" lon="9.4949997"><ele>257.0</ele><time>2026-04-29T12:30:34.792Z</time></trkpt><trkpt lat="44.2622303" lon="9.4952322"><ele>257.75</ele><time>2026-04-29T12:30:35.792Z</time></trkpt><trkpt lat="44.2622802" lon="9.4954332"><ele>258.5</ele><time>2026-04-29T12:30:36.792Z</time></trkpt><trkpt lat="44.26232" lon="9.4956007"><ele>259.25</ele><time>2026-04-29T12:30:37.792Z</time></trkpt><trkpt lat="44.2623567" lon="9.4957354"><ele>260.0</ele><time>2026-04-29T12:30:38.792Z</time></trkpt><trkpt lat="44.2624039" lon="9.495838"><ele>268.0</ele><time>2026-04-29T12:30:39.791Z</time></trkpt><trkpt lat="44.2624596" lon="9.4959199"><ele>276.0</ele><time>2026-04-29T12:30:40.792Z</time></trkpt><trkpt lat="44.2625212" lon="9.4960072"><ele>284.0</ele><time>2026-04-29T12:30:41.791Z</time></trkpt><trkpt lat="44.2625707" lon="9.4961167"><ele>292.0</ele><time>2026-04-29T12:30:42.792Z</time></trkpt><trkpt lat="44.2626136" lon="9.4962582"><ele>300.0</ele><time>2026-04-29T12:30:43.792Z</time></trkpt><trkpt lat="44.262626" lon="9.4963981"><ele>300.0</ele><time>2026-04-29T12:30:44.792Z</time></trkpt><trkpt lat="44.2625923" lon="9.4965149"><ele>300.0</ele><time>2026-04-29T12:30:45.792Z</time></trkpt><trkpt lat="44.2625289" lon="9.4966117"><ele>300.0</ele><time>2026-04-29T12:30:46.791Z</time></trkpt><trkpt lat="44.2624509" lon="9.496707"><ele>300.0</ele><time>2026-04-29T12:30:47.792Z</time></trkpt><trkpt lat="44.2623851" lon="9.4968519"><ele>300.0</ele><time>2026-04-29T12:30:48.792Z</time></trkpt><trkpt lat="44.2623437" lon="9.497042"><ele>297.3333333333333</ele><time>2026-04-29T12:30:49.792Z</time></trkpt><trkpt lat="44.2623042" lon="9.4972778"><ele>294.66666666666663</ele><time>2026-04-29T12:30:50.792Z</time></trkpt><trkpt lat="44.262276" lon="9.4975276"><ele>292.0</ele><time>2026-04-29T12:30:51.791Z</time></trkpt><trkpt lat="44.2622466" lon="9.4977182"><ele>292.0</ele><time>2026-04-29T12:30:52.792Z</time></trkpt><trkpt lat="44.2622082" lon="9.4978799"><ele>292.0</ele><time>2026-04-29T12:30:53.792Z</time></trkpt><trkpt lat="44.2621526" lon="9.4979845"><ele>292.0</ele><time>2026-04-29T12:30:54.791Z</time></trkpt><trkpt lat="44.2620835" lon="9.497998"><ele>292.0</ele><time>2026-04-29T12:30:55.792Z</time></trkpt><trkpt lat="44.2620162" lon="9.4979772"><ele>292.0</ele><time>2026-04-29T12:30:56.792Z</time></trkpt><trkpt lat="44.2619403" lon="9.4979312"><ele>292.0</ele><time>2026-04-29T12:30:57.792Z</time></trkpt><trkpt lat="44.2618473" lon="9.4978519"><ele>292.0</ele><time>2026-04-29T12:30:58.792Z</time></trkpt><trkpt lat="44.2617683" lon="9.4978393"><ele>292.0</ele><time>2026-04-29T12:30:59.792Z</time></trkpt><trkpt lat="44.2616984" lon="9.4978878"><ele>292.0</ele><time>2026-04-29T12:31:00.792Z</time></trkpt><trkpt lat="44.2616406" lon="9.4979789"><ele>292.0</ele><time>2026-04-29T12:31:01.792Z</time></trkpt><trkpt lat="44.2615714" lon="9.4981106"><ele>292.0</ele><time>2026-04-29T12:31:02.792Z</time></trkpt><trkpt lat="44.2614784" lon="9.49826"><ele>298.0</ele><time>2026-04-29T12:31:03.792Z</time></trkpt><trkpt lat="44.2614086" lon="9.4984036"><ele>304.0</ele><time>2026-04-29T12:31:04.792Z</time></trkpt><trkpt lat="44.2613501" lon="9.4985371"><ele>310.0</ele><time>2026-04-29T12:31:05.792Z</time></trkpt><trkpt lat="44.2612997" lon="9.4986347"><ele>316.0</ele><time>2026-04-29T12:31:06.792Z</time></trkpt><trkpt lat="44.2612424" lon="9.4986786"><ele>322.0</ele><time>2026-04-29T12:31:07.792Z</time></trkpt><trkpt lat="44.2611256" lon="9.4986463"><ele>322.0</ele><time>2026-04-29T12:31:09.791Z</time></trkpt><trkpt lat="44.2610609" lon="9.4984798"><ele>322.0</ele><time>2026-04-29T12:31:11.791Z</time></trkpt><trkpt lat="44.2609919" lon="9.4983839"><ele>322.0</ele><time>2026-04-29T12:31:12.792Z</time></trkpt><trkpt lat="44.2608874" lon="9.4983102"><ele>322.0</ele><time>2026-04-29T12:31:13.792Z</time></trkpt><trkpt lat="44.2608081" lon="9.4982186"><ele>322.0</ele><time>2026-04-29T12:31:14.792Z</time></trkpt><trkpt lat="44.2607781" lon="9.4980958"><ele>322.0</ele><time>2026-04-29T12:31:15.792Z</time></trkpt><trkpt lat="44.2607733" lon="9.4979708"><ele>322.0</ele><time>2026-04-29T12:31:16.792Z</time></trkpt><trkpt lat="44.260741" lon="9.497837"><ele>322.0</ele><time>2026-04-29T12:31:17.791Z</time></trkpt><trkpt lat="44.2606762" lon="9.497694"><ele>322.0</ele><time>2026-04-29T12:31:18.791Z</time></trkpt><trkpt lat="44.2605955" lon="9.4975582"><ele>321.40000000000003</ele><time>2026-04-29T12:31:19.792Z</time></trkpt><trkpt lat="44.2605173" lon="9.4974447"><ele>320.8</ele><time>2026-04-29T12:31:20.792Z</time></trkpt><trkpt lat="44.2604488" lon="9.4973579"><ele>320.2</ele><time>2026-04-29T12:31:21.792Z</time></trkpt><trkpt lat="44.2603709" lon="9.4973107"><ele>319.6</ele><time>2026-04-29T12:31:22.792Z</time></trkpt><trkpt lat="44.2602891" lon="9.4972897"><ele>319.0</ele><time>2026-04-29T12:31:23.792Z</time></trkpt><trkpt lat="44.2602052" lon="9.497298"><ele>319.0</ele><time>2026-04-29T12:31:24.792Z</time></trkpt><trkpt lat="44.2601239" lon="9.4973496"><ele>319.0</ele><time>2026-04-29T12:31:25.792Z</time></trkpt><trkpt lat="44.2600494" lon="9.4974324"><ele>319.0</ele><time>2026-04-29T12:31:26.792Z</time></trkpt><trkpt lat="44.2599811" lon="9.4975487"><ele>319.0</ele><time>2026-04-29T12:31:27.791Z</time></trkpt><trkpt lat="44.2599179" lon="9.4976792"><ele>319.0</ele><time>2026-04-29T12:31:28.792Z</time></trkpt><trkpt lat="44.259861" lon="9.4977927"><ele>319.0</ele><time>2026-04-29T12:31:29.792Z</time></trkpt><trkpt lat="44.2598082" lon="9.4978995"><ele>319.0</ele><time>2026-04-29T12:31:30.791Z</time></trkpt><trkpt lat="44.2597547" lon="9.497975"><ele>319.0</ele><time>2026-04-29T12:31:31.791Z</time></trkpt><trkpt lat="44.2596874" lon="9.4979979"><ele>319.0</ele><time>2026-04-29T12:31:32.792Z</time></trkpt><trkpt lat="44.2596261" lon="9.4979755"><ele>319.0</ele><time>2026-04-29T12:31:33.792Z</time></trkpt><trkpt lat="44.2595803" lon="9.4979137"><ele>319.0</ele><time>2026-04-29T12:31:34.792Z</time></trkpt><trkpt lat="44.2595438" lon="9.4978164"><ele>319.0</ele><time>2026-04-29T12:31:35.792Z</time></trkpt><trkpt lat="44.2595181" lon="9.497685"><ele>322.79999999999995</ele><time>2026-04-29T12:31:36.792Z</time></trkpt><trkpt lat="44.259493" lon="9.4975415"><ele>326.59999999999997</ele><time>2026-04-29T12:31:37.792Z</time></trkpt><trkpt lat="44.2594484" lon="9.4974258"><ele>330.4</ele><time>2026-04-29T12:31:38.792Z</time></trkpt><trkpt lat="44.259388" lon="9.4973396"><ele>334.2</ele><time>2026-04-29T12:31:39.792Z</time></trkpt><trkpt lat="44.2593059" lon="9.4972984"><ele>338.0</ele><time>2026-04-29T12:31:40.791Z</time></trkpt><trkpt lat="44.2592094" lon="9.4972738"><ele>338.0</ele><time>2026-04-29T12:31:41.792Z</time></trkpt><trkpt lat="44.2591071" lon="9.4972212"><ele>338.0</ele><time>2026-04-29T12:31:42.792Z</time></trkpt><trkpt lat="44.2590197" lon="9.4971339"><ele>338.0</ele><time>2026-04-29T12:31:43.792Z</time></trkpt><trkpt lat="44.2589528" lon="9.4970534"><ele>338.0</ele><time>2026-04-29T12:31:44.791Z</time></trkpt><trkpt lat="44.2588913" lon="9.4969636"><ele>338.0</ele><time>2026-04-29T12:31:45.792Z</time></trkpt><trkpt lat="44.2589402" lon="9.4968571"><ele>338.83333333333337</ele><time>2026-04-29T12:31:46.792Z</time></trkpt><trkpt lat="44.2589593" lon="9.4967574"><ele>339.6666666666667</ele><time>2026-04-29T12:31:47.792Z</time></trkpt><trkpt lat="44.2589674" lon="9.4966583"><ele>340.5</ele><time>2026-04-29T12:31:48.792Z</time></trkpt><trkpt lat="44.2589519" lon="9.4965701"><ele>341.3333333333333</ele><time>2026-04-29T12:31:49.792Z</time></trkpt><trkpt lat="44.2589051" lon="9.4964882"><ele>342.16666666666663</ele><time>2026-04-29T12:31:50.792Z</time></trkpt><trkpt lat="44.2588395" lon="9.496382"><ele>343.0</ele><time>2026-04-29T12:31:51.792Z</time></trkpt><trkpt lat="44.2587696" lon="9.496235"><ele>343.0</ele><time>2026-04-29T12:31:52.792Z</time></trkpt><trkpt lat="44.2587379" lon="9.496092"><ele>343.0</ele><time>2026-04-29T12:31:53.792Z</time></trkpt><trkpt lat="44.2587366" lon="9.4959467"><ele>343.0</ele><time>2026-04-29T12:31:54.792Z</time></trkpt><trkpt lat="44.258759" lon="9.4957852"><ele>343.0</ele><time>2026-04-29T12:31:55.792Z</time></trkpt><trkpt lat="44.258781" lon="9.4956472"><ele>343.0</ele><time>2026-04-29T12:31:56.792Z</time></trkpt><trkpt lat="44.2587722" lon="9.4955358"><ele>343.0</ele><time>2026-04-29T12:31:57.791Z</time></trkpt><trkpt lat="44.2587323" lon="9.4954641"><ele>343.0</ele><time>2026-04-29T12:31:58.792Z</time></trkpt><trkpt lat="44.2586692" lon="9.4954513"><ele>343.0</ele><time>2026-04-29T12:31:59.792Z</time></trkpt><trkpt lat="44.2586099" lon="9.4954896"><ele>343.0</ele><time>2026-04-29T12:32:00.792Z</time></trkpt><trkpt lat="44.2585585" lon="9.4955685"><ele>343.0</ele><time>2026-04-29T12:32:01.792Z</time></trkpt><trkpt lat="44.2584945" lon="9.4956062"><ele>343.0</ele><time>2026-04-29T12:32:02.792Z</time></trkpt><trkpt lat="44.2584307" lon="9.4956014"><ele>343.0</ele><time>2026-04-29T12:32:03.792Z</time></trkpt><trkpt lat="44.2583576" lon="9.4954603"><ele>341.5</ele><time>2026-04-29T12:32:05.792Z</time></trkpt><trkpt lat="44.258344" lon="9.4953205"><ele>340.0</ele><time>2026-04-29T12:32:06.792Z</time></trkpt><trkpt lat="44.2583289" lon="9.4951305"><ele>338.5</ele><time>2026-04-29T12:32:07.792Z</time></trkpt><trkpt lat="44.2583321" lon="9.4949172"><ele>337.0</ele><time>2026-04-29T12:32:08.792Z</time></trkpt><trkpt lat="44.2583465" lon="9.4947098"><ele>334.5</ele><time>2026-04-29T12:32:09.792Z</time></trkpt><trkpt lat="44.2583491" lon="9.4945356"><ele>332.0</ele><time>2026-04-29T12:32:10.791Z</time></trkpt><trkpt lat="44.2583313" lon="9.4943735"><ele>329.5</ele><time>2026-04-29T12:32:11.792Z</time></trkpt><trkpt lat="44.2582955" lon="9.4942174"><ele>327.0</ele><time>2026-04-29T12:32:12.792Z</time></trkpt><trkpt lat="44.2582554" lon="9.4940802"><ele>327.0</ele><time>2026-04-29T12:32:13.792Z</time></trkpt><trkpt lat="44.2582249" lon="9.4939664"><ele>327.0</ele><time>2026-04-29T12:32:14.792Z</time></trkpt><trkpt lat="44.2581963" lon="9.4938816"><ele>327.0</ele><time>2026-04-29T12:32:15.792Z</time></trkpt><trkpt lat="44.2581314" lon="9.493749"><ele>327.0</ele><time>2026-04-29T12:32:17.792Z</time></trkpt><trkpt lat="44.2580746" lon="9.4936306"><ele>327.0</ele><time>2026-04-29T12:32:19.791Z</time></trkpt><trkpt lat="44.2580292" lon="9.4935515"><ele>327.0</ele><time>2026-04-29T12:32:21.792Z</time></trkpt><trkpt lat="44.2579834" lon="9.4934882"><ele>326.40000000000003</ele><time>2026-04-29T12:33:04.791Z</time></trkpt><trkpt lat="44.2579231" lon="9.4934079"><ele>325.8</ele><time>2026-04-29T12:33:08.792Z</time></trkpt><trkpt lat="44.2578646" lon="9.4933324"><ele>325.2</ele><time>2026-04-29T12:33:10.792Z</time></trkpt><trkpt lat="44.25781" lon="9.49316"><ele>324.6</ele><time>2026-04-29T12:33:12.792Z</time></trkpt><trkpt lat="44.2577824" lon="9.4930032"><ele>324.0</ele><time>2026-04-29T12:33:13.792Z</time></trkpt><trkpt lat="44.2577531" lon="9.4928029"><ele>322.75</ele><time>2026-04-29T12:33:14.792Z</time></trkpt><trkpt lat="44.2577281" lon="9.4926173"><ele>321.5</ele><time>2026-04-29T12:33:15.792Z</time></trkpt><trkpt lat="44.2576959" lon="9.4924395"><ele>320.25</ele><time>2026-04-29T12:33:16.792Z</time></trkpt><trkpt lat="44.2576469" lon="9.4922607"><ele>319.0</ele><time>2026-04-29T12:33:17.791Z</time></trkpt><trkpt lat="44.2575809" lon="9.492094"><ele>319.0</ele><time>2026-04-29T12:33:18.792Z</time></trkpt><trkpt lat="44.2575209" lon="9.4919369"><ele>319.0</ele><time>2026-04-29T12:33:19.792Z</time></trkpt><trkpt lat="44.2574934" lon="9.4917697"><ele>319.0</ele><time>2026-04-29T12:33:20.792Z</time></trkpt><trkpt lat="44.2574927" lon="9.4916065"><ele>319.0</ele><time>2026-04-29T12:33:21.792Z</time></trkpt><trkpt lat="44.2575116" lon="9.4914233"><ele>317.0</ele><time>2026-04-29T12:33:22.792Z</time></trkpt><trkpt lat="44.2575377" lon="9.491224"><ele>315.0</ele><time>2026-04-29T12:33:23.792Z</time></trkpt><trkpt lat="44.2575676" lon="9.4910078"><ele>313.0</ele><time>2026-04-29T12:33:24.792Z</time></trkpt><trkpt lat="44.2575998" lon="9.4907767"><ele>313.0</ele><time>2026-04-29T12:33:25.792Z</time></trkpt><trkpt lat="44.2576372" lon="9.4905286"><ele>313.0</ele><time>2026-04-29T12:33:26.792Z</time></trkpt><trkpt lat="44.2576738" lon="9.4902826"><ele>313.0</ele><time>2026-04-29T12:33:27.791Z</time></trkpt><trkpt lat="44.2577066" lon="9.4900429"><ele>309.66666666666663</ele><time>2026-04-29T12:33:28.792Z</time></trkpt><trkpt lat="44.2577284" lon="9.4898085"><ele>306.3333333333333</ele><time>2026-04-29T12:33:29.792Z</time></trkpt><trkpt lat="44.2577388" lon="9.4895788"><ele>303.0</ele><time>2026-04-29T12:33:30.791Z</time></trkpt><trkpt lat="44.2577438" lon="9.4893721"><ele>303.5</ele><time>2026-04-29T12:33:31.792Z</time></trkpt><trkpt lat="44.2577423" lon="9.4891837"><ele>304.0</ele><time>2026-04-29T12:33:32.791Z</time></trkpt><trkpt lat="44.2577146" lon="9.489004"><ele>304.5</ele><time>2026-04-29T12:33:33.792Z</time></trkpt><trkpt lat="44.2576503" lon="9.4888445"><ele>305.0</ele><time>2026-04-29T12:33:34.791Z</time></trkpt><trkpt lat="44.2575609" lon="9.4886973"><ele>305.0</ele><time>2026-04-29T12:33:35.791Z</time></trkpt><trkpt lat="44.2574583" lon="9.4885509"><ele>305.0</ele><time>2026-04-29T12:33:36.792Z</time></trkpt><trkpt lat="44.2573664" lon="9.4884005"><ele>305.0</ele><time>2026-04-29T12:33:37.792Z</time></trkpt><trkpt lat="44.257281" lon="9.4882475"><ele>305.0</ele><time>2026-04-29T12:33:38.791Z</time></trkpt><trkpt lat="44.2572057" lon="9.4880992"><ele>296.5</ele><time>2026-04-29T12:33:39.791Z</time></trkpt><trkpt lat="44.2571507" lon="9.4879463"><ele>288.0</ele><time>2026-04-29T12:33:40.792Z</time></trkpt><trkpt lat="44.2571224" lon="9.4877912"><ele>279.5</ele><time>2026-04-29T12:33:41.792Z</time></trkpt><trkpt lat="44.2571207" lon="9.4876313"><ele>271.0</ele><time>2026-04-29T12:33:42.792Z</time></trkpt><trkpt lat="44.2571469" lon="9.4874569"><ele>271.0</ele><time>2026-04-29T12:33:43.792Z</time></trkpt><trkpt lat="44.2571872" lon="9.4872729"><ele>271.0</ele><time>2026-04-29T12:33:44.792Z</time></trkpt><trkpt lat="44.2572292" lon="9.4870781"><ele>271.0</ele><time>2026-04-29T12:33:45.792Z</time></trkpt><trkpt lat="44.2572693" lon="9.4868945"><ele>271.0</ele><time>2026-04-29T12:33:46.792Z</time></trkpt><trkpt lat="44.2572922" lon="9.4867225"><ele>272.0</ele><time>2026-04-29T12:33:47.792Z</time></trkpt><trkpt lat="44.2572644" lon="9.4865539"><ele>273.0</ele><time>2026-04-29T12:33:48.791Z</time></trkpt><trkpt lat="44.2572083" lon="9.4863804"><ele>274.0</ele><time>2026-04-29T12:33:49.791Z</time></trkpt><trkpt lat="44.2571204" lon="9.4862172"><ele>275.0</ele><time>2026-04-29T12:33:50.792Z</time></trkpt><trkpt lat="44.257005" lon="9.4860665"><ele>278.33333333333337</ele><time>2026-04-29T12:33:51.792Z</time></trkpt><trkpt lat="44.2568645" lon="9.4858999"><ele>281.6666666666667</ele><time>2026-04-29T12:33:52.792Z</time></trkpt><trkpt lat="44.2567673" lon="9.4857441"><ele>285.0</ele><time>2026-04-29T12:33:53.792Z</time></trkpt><trkpt lat="44.2566959" lon="9.48557"><ele>285.3333333333333</ele><time>2026-04-29T12:33:54.792Z</time></trkpt><trkpt lat="44.2566564" lon="9.4853663"><ele>285.66666666666663</ele><time>2026-04-29T12:33:55.792Z</time></trkpt><trkpt lat="44.2566443" lon="9.4851235"><ele>286.0</ele><time>2026-04-29T12:33:56.791Z</time></trkpt><trkpt lat="44.2566465" lon="9.4848393"><ele>288.0</ele><time>2026-04-29T12:33:57.792Z</time></trkpt><trkpt lat="44.2566529" lon="9.4845815"><ele>290.0</ele><time>2026-04-29T12:33:58.792Z</time></trkpt><trkpt lat="44.2566491" lon="9.4843597"><ele>292.0</ele><time>2026-04-29T12:33:59.792Z</time></trkpt><trkpt lat="44.256621" lon="9.4841482"><ele>292.0</ele><time>2026-04-29T12:34:00.792Z</time></trkpt><trkpt lat="44.2565486" lon="9.4839663"><ele>292.0</ele><time>2026-04-29T12:34:01.792Z</time></trkpt><trkpt lat="44.2564529" lon="9.4837995"><ele>292.0</ele><time>2026-04-29T12:34:02.792Z</time></trkpt><trkpt lat="44.2563549" lon="9.4836261"><ele>287.0</ele><time>2026-04-29T12:34:03.792Z</time></trkpt><trkpt lat="44.2562805" lon="9.4834356"><ele>282.0</ele><time>2026-04-29T12:34:04.792Z</time></trkpt><trkpt lat="44.2562336" lon="9.4832416"><ele>277.0</ele><time>2026-04-29T12:34:05.792Z</time></trkpt><trkpt lat="44.2561998" lon="9.4830363"><ele>280.5</ele><time>2026-04-29T12:34:06.792Z</time></trkpt><trkpt lat="44.2561555" lon="9.4828432"><ele>284.0</ele><time>2026-04-29T12:34:07.792Z</time></trkpt><trkpt lat="44.256098" lon="9.4826702"><ele>287.5</ele><time>2026-04-29T12:34:08.792Z</time></trkpt><trkpt lat="44.2560319" lon="9.4825157"><ele>291.0</ele><time>2026-04-29T12:34:09.792Z</time></trkpt><trkpt lat="44.2559621" lon="9.4823829"><ele>291.0</ele><time>2026-04-29T12:34:10.792Z</time></trkpt><trkpt lat="44.2558976" lon="9.4822596"><ele>291.0</ele><time>2026-04-29T12:34:11.792Z</time></trkpt><trkpt lat="44.2558372" lon="9.4821398"><ele>291.0</ele><time>2026-04-29T12:34:12.792Z</time></trkpt><trkpt lat="44.2557782" lon="9.4820271"><ele>291.0</ele><time>2026-04-29T12:34:13.792Z</time></trkpt><trkpt lat="44.2557239" lon="9.4819238"><ele>291.0</ele><time>2026-04-29T12:34:14.792Z</time></trkpt><trkpt lat="44.2556712" lon="9.4818324"><ele>289.0</ele><time>2026-04-29T12:34:15.792Z</time></trkpt><trkpt lat="44.2556078" lon="9.4817493"><ele>287.0</ele><time>2026-04-29T12:34:16.792Z</time></trkpt><trkpt lat="44.2555295" lon="9.4816816"><ele>285.0</ele><time>2026-04-29T12:34:17.791Z</time></trkpt><trkpt lat="44.2554371" lon="9.4816143"><ele>283.0</ele><time>2026-04-29T12:34:18.792Z</time></trkpt><trkpt lat="44.2553325" lon="9.4815469"><ele>281.0</ele><time>2026-04-29T12:34:19.792Z</time></trkpt><trkpt lat="44.2552218" lon="9.4814686"><ele>281.0</ele><time>2026-04-29T12:34:20.792Z</time></trkpt><trkpt lat="44.2551176" lon="9.4813891"><ele>281.0</ele><time>2026-04-29T12:34:21.791Z</time></trkpt><trkpt lat="44.2550196" lon="9.4813185"><ele>281.0</ele><time>2026-04-29T12:34:22.792Z</time></trkpt><trkpt lat="44.254933" lon="9.4812589"><ele>281.0</ele><time>2026-04-29T12:34:23.792Z</time></trkpt><trkpt lat="44.2548586" lon="9.4812047"><ele>281.0</ele><time>2026-04-29T12:34:24.791Z</time></trkpt><trkpt lat="44.2547949" lon="9.4811438"><ele>279.6</ele><time>2026-04-29T12:34:25.792Z</time></trkpt><trkpt lat="44.2547366" lon="9.4810665"><ele>278.20000000000005</ele><time>2026-04-29T12:34:26.792Z</time></trkpt><trkpt lat="44.2546942" lon="9.480963"><ele>276.79999999999995</ele><time>2026-04-29T12:34:27.792Z</time></trkpt><trkpt lat="44.2546759" lon="9.480833"><ele>275.4</ele><time>2026-04-29T12:34:28.792Z</time></trkpt><trkpt lat="44.2546732" lon="9.4806724"><ele>274.0</ele><time>2026-04-29T12:34:29.792Z</time></trkpt><trkpt lat="44.2546824" lon="9.4805011"><ele>273.59999999999997</ele><time>2026-04-29T12:34:30.792Z</time></trkpt><trkpt lat="44.2546896" lon="9.4803446"><ele>273.2</ele><time>2026-04-29T12:34:31.792Z</time></trkpt><trkpt lat="44.254695" lon="9.4801875"><ele>272.79999999999995</ele><time>2026-04-29T12:34:32.792Z</time></trkpt><trkpt lat="44.2546999" lon="9.4800467"><ele>272.4</ele><time>2026-04-29T12:34:33.792Z</time></trkpt><trkpt lat="44.254705" lon="9.4799045"><ele>272.0</ele><time>2026-04-29T12:34:34.791Z</time></trkpt><trkpt lat="44.2547207" lon="9.4797676"><ele>272.0</ele><time>2026-04-29T12:34:35.792Z</time></trkpt><trkpt lat="44.2547444" lon="9.4796407"><ele>272.0</ele><time>2026-04-29T12:34:36.792Z</time></trkpt><trkpt lat="44.2547766" lon="9.4795224"><ele>272.0</ele><time>2026-04-29T12:34:37.791Z</time></trkpt><trkpt lat="44.2548221" lon="9.4794119"><ele>272.0</ele><time>2026-04-29T12:34:38.792Z</time></trkpt><trkpt lat="44.2548723" lon="9.4793079"><ele>272.0</ele><time>2026-04-29T12:34:39.792Z</time></trkpt><trkpt lat="44.2549208" lon="9.4791995"><ele>276.0</ele><time>2026-04-29T12:34:40.792Z</time></trkpt><trkpt lat="44.2549584" lon="9.4790809"><ele>280.0</ele><time>2026-04-29T12:34:41.792Z</time></trkpt><trkpt lat="44.2549871" lon="9.4789591"><ele>284.0</ele><time>2026-04-29T12:34:42.791Z</time></trkpt><trkpt lat="44.2550135" lon="9.4788347"><ele>288.0</ele><time>2026-04-29T12:34:43.791Z</time></trkpt><trkpt lat="44.2550388" lon="9.478707"><ele>292.0</ele><time>2026-04-29T12:34:44.792Z</time></trkpt><trkpt lat="44.2550682" lon="9.4785889"><ele>292.0</ele><time>2026-04-29T12:34:45.792Z</time></trkpt><trkpt lat="44.2551009" lon="9.4784828"><ele>292.0</ele><time>2026-04-29T12:34:46.792Z</time></trkpt><trkpt lat="44.2551422" lon="9.4783799"><ele>292.0</ele><time>2026-04-29T12:34:47.792Z</time></trkpt><trkpt lat="44.2552012" lon="9.4782809"><ele>292.0</ele><time>2026-04-29T12:34:48.792Z</time></trkpt><trkpt lat="44.2552767" lon="9.4781867"><ele>292.0</ele><time>2026-04-29T12:34:49.792Z</time></trkpt><trkpt lat="44.25536" lon="9.4780943"><ele>292.0</ele><time>2026-04-29T12:34:50.792Z</time></trkpt><trkpt lat="44.2554287" lon="9.4779816"><ele>292.0</ele><time>2026-04-29T12:34:51.792Z</time></trkpt><trkpt lat="44.2554719" lon="9.4778341"><ele>292.0</ele><time>2026-04-29T12:34:52.792Z</time></trkpt><trkpt lat="44.2554971" lon="9.4776667"><ele>292.0</ele><time>2026-04-29T12:34:53.792Z</time></trkpt><trkpt lat="44.255517" lon="9.4774806"><ele>294.0</ele><time>2026-04-29T12:34:54.792Z</time></trkpt><trkpt lat="44.2555399" lon="9.4772827"><ele>296.0</ele><time>2026-04-29T12:34:55.792Z</time></trkpt><trkpt lat="44.255559" lon="9.4770999"><ele>298.0</ele><time>2026-04-29T12:34:56.791Z</time></trkpt><trkpt lat="44.255587" lon="9.4769392"><ele>300.0</ele><time>2026-04-29T12:34:57.792Z</time></trkpt><trkpt lat="44.2556427" lon="9.4768026"><ele>300.0</ele><time>2026-04-29T12:34:58.791Z</time></trkpt><trkpt lat="44.2557081" lon="9.4766847"><ele>300.0</ele><time>2026-04-29T12:34:59.792Z</time></trkpt><trkpt lat="44.255767" lon="9.4765835"><ele>300.0</ele><time>2026-04-29T12:35:00.792Z</time></trkpt><trkpt lat="44.2558119" lon="9.4764777"><ele>300.0</ele><time>2026-04-29T12:35:01.792Z</time></trkpt><trkpt lat="44.2558384" lon="9.4763604"><ele>300.0</ele><time>2026-04-29T12:35:02.792Z</time></trkpt><trkpt lat="44.2558507" lon="9.4762307"><ele>301.6</ele><time>2026-04-29T12:35:03.791Z</time></trkpt><trkpt lat="44.2558497" lon="9.4760879"><ele>303.2</ele><time>2026-04-29T12:35:04.791Z</time></trkpt><trkpt lat="44.2558421" lon="9.4759362"><ele>304.8</ele><time>2026-04-29T12:35:05.792Z</time></trkpt><trkpt lat="44.2558352" lon="9.475798"><ele>306.4</ele><time>2026-04-29T12:35:06.792Z</time></trkpt><trkpt lat="44.2558302" lon="9.4756753"><ele>308.0</ele><time>2026-04-29T12:35:07.791Z</time></trkpt><trkpt lat="44.2558431" lon="9.4755616"><ele>308.0</ele><time>2026-04-29T12:35:08.791Z</time></trkpt><trkpt lat="44.2558815" lon="9.4754675"><ele>308.0</ele><time>2026-04-29T12:35:09.792Z</time></trkpt><trkpt lat="44.2559478" lon="9.4754027"><ele>308.0</ele><time>2026-04-29T12:35:10.792Z</time></trkpt><trkpt lat="44.2560318" lon="9.4753811"><ele>308.0</ele><time>2026-04-29T12:35:11.792Z</time></trkpt><trkpt lat="44.2561233" lon="9.4753882"><ele>308.0</ele><time>2026-04-29T12:35:12.791Z</time></trkpt><trkpt lat="44.2562112" lon="9.4754069"><ele>308.0</ele><time>2026-04-29T12:35:13.791Z</time></trkpt><trkpt lat="44.2562983" lon="9.4754033"><ele>310.0</ele><time>2026-04-29T12:35:14.792Z</time></trkpt><trkpt lat="44.2563862" lon="9.4753771"><ele>312.0</ele><time>2026-04-29T12:35:15.792Z</time></trkpt><trkpt lat="44.2564694" lon="9.4753115"><ele>314.0</ele><time>2026-04-29T12:35:16.792Z</time></trkpt><trkpt lat="44.2565404" lon="9.4752046"><ele>316.0</ele><time>2026-04-29T12:35:17.792Z</time></trkpt><trkpt lat="44.2565838" lon="9.4750664"><ele>318.0</ele><time>2026-04-29T12:35:18.792Z</time></trkpt><trkpt lat="44.2565975" lon="9.4749095"><ele>312.0</ele><time>2026-04-29T12:35:19.791Z</time></trkpt><trkpt lat="44.2565901" lon="9.4747375"><ele>306.0</ele><time>2026-04-29T12:35:20.792Z</time></trkpt><trkpt lat="44.2565715" lon="9.474561"><ele>300.0</ele><time>2026-04-29T12:35:21.792Z</time></trkpt><trkpt lat="44.256547" lon="9.4743834"><ele>294.0</ele><time>2026-04-29T12:35:22.791Z</time></trkpt><trkpt lat="44.2565194" lon="9.4742204"><ele>294.0</ele><time>2026-04-29T12:35:23.792Z</time></trkpt><trkpt lat="44.2564907" lon="9.4740739"><ele>294.0</ele><time>2026-04-29T12:35:24.792Z</time></trkpt><trkpt lat="44.2564663" lon="9.473946"><ele>294.0</ele><time>2026-04-29T12:35:25.792Z</time></trkpt><trkpt lat="44.2564457" lon="9.473838"><ele>294.0</ele><time>2026-04-29T12:35:26.792Z</time></trkpt><trkpt lat="44.2564276" lon="9.4737422"><ele>294.0</ele><time>2026-04-29T12:35:27.791Z</time></trkpt><trkpt lat="44.256411" lon="9.4736504"><ele>294.0</ele><time>2026-04-29T12:35:28.792Z</time></trkpt><trkpt lat="44.2563944" lon="9.4735566"><ele>296.14285714285717</ele><time>2026-04-29T12:35:29.792Z</time></trkpt><trkpt lat="44.2563933" lon="9.4734578"><ele>298.2857142857143</ele><time>2026-04-29T12:35:30.792Z</time></trkpt><trkpt lat="44.2564185" lon="9.4733621"><ele>300.42857142857144</ele><time>2026-04-29T12:35:31.792Z</time></trkpt><trkpt lat="44.2564672" lon="9.4732908"><ele>302.57142857142856</ele><time>2026-04-29T12:35:32.791Z</time></trkpt><trkpt lat="44.2565345" lon="9.4732509"><ele>304.7142857142857</ele><time>2026-04-29T12:35:33.792Z</time></trkpt><trkpt lat="44.2566104" lon="9.473252"><ele>306.8571428571429</ele><time>2026-04-29T12:35:34.792Z</time></trkpt><trkpt lat="44.256688" lon="9.4732997"><ele>309.0</ele><time>2026-04-29T12:35:35.792Z</time></trkpt><trkpt lat="44.2567771" lon="9.4733792"><ele>309.0</ele><time>2026-04-29T12:35:36.792Z</time></trkpt><trkpt lat="44.2568831" lon="9.4734699"><ele>309.0</ele><time>2026-04-29T12:35:37.791Z</time></trkpt><trkpt lat="44.2569847" lon="9.4735421"><ele>309.0</ele><time>2026-04-29T12:35:38.792Z</time></trkpt><trkpt lat="44.2570824" lon="9.4735788"><ele>309.0</ele><time>2026-04-29T12:35:39.792Z</time></trkpt><trkpt lat="44.2571842" lon="9.4735694"><ele>309.0</ele><time>2026-04-29T12:35:40.791Z</time></trkpt><trkpt lat="44.2572942" lon="9.4735096"><ele>306.25</ele><time>2026-04-29T12:35:41.792Z</time></trkpt><trkpt lat="44.2574011" lon="9.4734164"><ele>303.5</ele><time>2026-04-29T12:35:42.792Z</time></trkpt><trkpt lat="44.2575176" lon="9.4733158"><ele>300.75</ele><time>2026-04-29T12:35:43.792Z</time></trkpt><trkpt lat="44.2576437" lon="9.4732085"><ele>298.0</ele><time>2026-04-29T12:35:44.791Z</time></trkpt><trkpt lat="44.2577807" lon="9.4730891"><ele>298.0</ele><time>2026-04-29T12:35:45.792Z</time></trkpt><trkpt lat="44.2579262" lon="9.4729678"><ele>298.0</ele><time>2026-04-29T12:35:46.792Z</time></trkpt><trkpt lat="44.2580676" lon="9.4728515"><ele>298.0</ele><time>2026-04-29T12:35:47.792Z</time></trkpt><trkpt lat="44.2581969" lon="9.4727473"><ele>297.0</ele><time>2026-04-29T12:35:48.792Z</time></trkpt><trkpt lat="44.2583097" lon="9.4726545"><ele>296.0</ele><time>2026-04-29T12:35:49.792Z</time></trkpt><trkpt lat="44.2584044" lon="9.4725559"><ele>295.0</ele><time>2026-04-29T12:35:50.792Z</time></trkpt><trkpt lat="44.258471" lon="9.4724363"><ele>294.0</ele><time>2026-04-29T12:35:51.791Z</time></trkpt><trkpt lat="44.2585026" lon="9.4722961"><ele>294.0</ele><time>2026-04-29T12:35:52.792Z</time></trkpt><trkpt lat="44.2584993" lon="9.4721533"><ele>294.0</ele><time>2026-04-29T12:35:53.792Z</time></trkpt><trkpt lat="44.2584658" lon="9.4720113"><ele>294.0</ele><time>2026-04-29T12:35:54.792Z</time></trkpt><trkpt lat="44.2584056" lon="9.4718609"><ele>294.0</ele><time>2026-04-29T12:35:55.792Z</time></trkpt><trkpt lat="44.2583186" lon="9.4716913"><ele>293.0</ele><time>2026-04-29T12:35:56.792Z</time></trkpt><trkpt lat="44.2582195" lon="9.4715215"><ele>292.0</ele><time>2026-04-29T12:35:57.792Z</time></trkpt><trkpt lat="44.2581108" lon="9.4713759"><ele>291.0</ele><time>2026-04-29T12:35:58.792Z</time></trkpt><trkpt lat="44.2579833" lon="9.4712562"><ele>291.0</ele><time>2026-04-29T12:35:59.791Z</time></trkpt><trkpt lat="44.2578426" lon="9.4711511"><ele>291.0</ele><time>2026-04-29T12:36:00.792Z</time></trkpt><trkpt lat="44.2577078" lon="9.4710529"><ele>291.0</ele><time>2026-04-29T12:36:01.791Z</time></trkpt><trkpt lat="44.2575896" lon="9.4709611"><ele>291.0</ele><time>2026-04-29T12:36:02.792Z</time></trkpt><trkpt lat="44.2574774" lon="9.4708773"><ele>291.0</ele><time>2026-04-29T12:36:03.792Z</time></trkpt><trkpt lat="44.2573712" lon="9.4708016"><ele>291.0</ele><time>2026-04-29T12:36:04.792Z</time></trkpt><trkpt lat="44.257271" lon="9.4707305"><ele>291.0</ele><time>2026-04-29T12:36:05.792Z</time></trkpt><trkpt lat="44.2571772" lon="9.4706541"><ele>291.0</ele><time>2026-04-29T12:36:06.792Z</time></trkpt><trkpt lat="44.2571024" lon="9.4705525"><ele>291.0</ele><time>2026-04-29T12:36:07.792Z</time></trkpt><trkpt lat="44.2570328" lon="9.470421"><ele>295.5</ele><time>2026-04-29T12:36:08.792Z</time></trkpt><trkpt lat="44.2569709" lon="9.470269"><ele>300.0</ele><time>2026-04-29T12:36:09.792Z</time></trkpt><trkpt lat="44.2569104" lon="9.4701015"><ele>304.5</ele><time>2026-04-29T12:36:10.792Z</time></trkpt><trkpt lat="44.2568516" lon="9.4699433"><ele>309.0</ele><time>2026-04-29T12:36:11.792Z</time></trkpt><trkpt lat="44.256804" lon="9.4698164"><ele>309.0</ele><time>2026-04-29T12:36:12.791Z</time></trkpt><trkpt lat="44.2567558" lon="9.4697105"><ele>309.0</ele><time>2026-04-29T12:36:13.792Z</time></trkpt><trkpt lat="44.2567155" lon="9.4696067"><ele>309.0</ele><time>2026-04-29T12:36:14.792Z</time></trkpt><trkpt lat="44.2567019" lon="9.4695048"><ele>309.0</ele><time>2026-04-29T12:36:15.792Z</time></trkpt><trkpt lat="44.256714" lon="9.4694095"><ele>309.0</ele><time>2026-04-29T12:36:16.792Z</time></trkpt><trkpt lat="44.2567525" lon="9.4693121"><ele>309.0</ele><time>2026-04-29T12:36:17.792Z</time></trkpt><trkpt lat="44.2568088" lon="9.4691944"><ele>309.8</ele><time>2026-04-29T12:36:18.791Z</time></trkpt><trkpt lat="44.2568678" lon="9.4690579"><ele>310.59999999999997</ele><time>2026-04-29T12:36:19.792Z</time></trkpt><trkpt lat="44.2569261" lon="9.4689252"><ele>311.4</ele><time>2026-04-29T12:36:20.792Z</time></trkpt><trkpt lat="44.2569913" lon="9.4688171"><ele>312.2</ele><time>2026-04-29T12:36:21.792Z</time></trkpt><trkpt lat="44.2570622" lon="9.4687304"><ele>313.0</ele><time>2026-04-29T12:36:22.792Z</time></trkpt><trkpt lat="44.257134" lon="9.4686567"><ele>313.16666666666663</ele><time>2026-04-29T12:36:23.792Z</time></trkpt><trkpt lat="44.2571923" lon="9.468583"><ele>313.3333333333333</ele><time>2026-04-29T12:36:24.792Z</time></trkpt><trkpt lat="44.2572338" lon="9.4684988"><ele>313.5</ele><time>2026-04-29T12:36:25.791Z</time></trkpt><trkpt lat="44.2572563" lon="9.4684063"><ele>313.6666666666667</ele><time>2026-04-29T12:36:26.792Z</time></trkpt><trkpt lat="44.2572609" lon="9.4682928"><ele>313.83333333333337</ele><time>2026-04-29T12:36:27.792Z</time></trkpt><trkpt lat="44.2572354" lon="9.4681681"><ele>314.0</ele><time>2026-04-29T12:36:28.791Z</time></trkpt><trkpt lat="44.2571784" lon="9.4680649"><ele>314.0</ele><time>2026-04-29T12:36:29.792Z</time></trkpt><trkpt lat="44.2570962" lon="9.467986"><ele>314.0</ele><time>2026-04-29T12:36:30.791Z</time></trkpt><trkpt lat="44.257003" lon="9.4679167"><ele>314.0</ele><time>2026-04-29T12:36:31.792Z</time></trkpt><trkpt lat="44.2569274" lon="9.4678255"><ele>314.0</ele><time>2026-04-29T12:36:32.792Z</time></trkpt><trkpt lat="44.2568692" lon="9.4677095"><ele>314.0</ele><time>2026-04-29T12:36:33.792Z</time></trkpt><trkpt lat="44.2568222" lon="9.467598"><ele>308.75</ele><time>2026-04-29T12:36:34.792Z</time></trkpt><trkpt lat="44.2567636" lon="9.4674782"><ele>303.5</ele><time>2026-04-29T12:36:35.792Z</time></trkpt><trkpt lat="44.2566766" lon="9.4673664"><ele>298.25</ele><time>2026-04-29T12:36:36.792Z</time></trkpt><trkpt lat="44.2565708" lon="9.4672708"><ele>293.0</ele><time>2026-04-29T12:36:37.791Z</time></trkpt><trkpt lat="44.2564637" lon="9.4671873"><ele>298.33333333333337</ele><time>2026-04-29T12:36:38.792Z</time></trkpt><trkpt lat="44.2563838" lon="9.4671131"><ele>303.6666666666667</ele><time>2026-04-29T12:36:39.792Z</time></trkpt><trkpt lat="44.2563295" lon="9.4670333"><ele>309.0</ele><time>2026-04-29T12:36:40.791Z</time></trkpt><trkpt lat="44.2563052" lon="9.46694"><ele>314.3333333333333</ele><time>2026-04-29T12:36:41.792Z</time></trkpt><trkpt lat="44.2563059" lon="9.4668193"><ele>319.66666666666663</ele><time>2026-04-29T12:36:42.792Z</time></trkpt><trkpt lat="44.2563224" lon="9.4666792"><ele>325.0</ele><time>2026-04-29T12:36:43.792Z</time></trkpt><trkpt lat="44.2563417" lon="9.4665274"><ele>325.0</ele><time>2026-04-29T12:36:44.792Z</time></trkpt><trkpt lat="44.2563684" lon="9.4663608"><ele>325.0</ele><time>2026-04-29T12:36:45.792Z</time></trkpt><trkpt lat="44.2564163" lon="9.4661856"><ele>325.0</ele><time>2026-04-29T12:36:46.792Z</time></trkpt><trkpt lat="44.2564948" lon="9.4659715"><ele>325.0</ele><time>2026-04-29T12:36:47.792Z</time></trkpt><trkpt lat="44.2565838" lon="9.4657641"><ele>312.0</ele><time>2026-04-29T12:36:48.791Z</time></trkpt><trkpt lat="44.2566645" lon="9.4655849"><ele>299.0</ele><time>2026-04-29T12:36:49.792Z</time></trkpt><trkpt lat="44.2567214" lon="9.4654149"><ele>286.0</ele><time>2026-04-29T12:36:50.792Z</time></trkpt><trkpt lat="44.2567278" lon="9.4652398"><ele>273.0</ele><time>2026-04-29T12:36:51.792Z</time></trkpt><trkpt lat="44.2566845" lon="9.465053"><ele>271.6666666666667</ele><time>2026-04-29T12:36:52.791Z</time></trkpt><trkpt lat="44.2566092" lon="9.4648518"><ele>270.33333333333337</ele><time>2026-04-29T12:36:53.792Z</time></trkpt><trkpt lat="44.2565176" lon="9.4646853"><ele>269.0</ele><time>2026-04-29T12:36:54.792Z</time></trkpt><trkpt lat="44.2563842" lon="9.4645415"><ele>277.33333333333337</ele><time>2026-04-29T12:36:55.792Z</time></trkpt><trkpt lat="44.2562467" lon="9.464394"><ele>285.6666666666667</ele><time>2026-04-29T12:36:56.792Z</time></trkpt><trkpt lat="44.2561033" lon="9.4641904"><ele>294.0</ele><time>2026-04-29T12:36:57.791Z</time></trkpt><trkpt lat="44.2559783" lon="9.4639868"><ele>294.0</ele><time>2026-04-29T12:36:58.792Z</time></trkpt><trkpt lat="44.2558826" lon="9.4638209"><ele>294.0</ele><time>2026-04-29T12:36:59.792Z</time></trkpt><trkpt lat="44.2558017" lon="9.4636774"><ele>294.0</ele><time>2026-04-29T12:37:00.792Z</time></trkpt><trkpt lat="44.2557546" lon="9.4635393"><ele>294.0</ele><time>2026-04-29T12:37:01.792Z</time></trkpt><trkpt lat="44.2557658" lon="9.4633902"><ele>297.0</ele><time>2026-04-29T12:37:02.792Z</time></trkpt><trkpt lat="44.2558165" lon="9.4632402"><ele>300.0</ele><time>2026-04-29T12:37:03.791Z</time></trkpt><trkpt lat="44.2559074" lon="9.4630574"><ele>303.0</ele><time>2026-04-29T12:37:04.791Z</time></trkpt><trkpt lat="44.2560304" lon="9.4628486"><ele>303.0</ele><time>2026-04-29T12:37:05.792Z</time></trkpt><trkpt lat="44.2561258" lon="9.4626912"><ele>303.0</ele><time>2026-04-29T12:37:06.792Z</time></trkpt><trkpt lat="44.2562072" lon="9.4625833"><ele>303.0</ele><time>2026-04-29T12:37:07.792Z</time></trkpt><trkpt lat="44.2562966" lon="9.4625367"><ele>303.0</ele><time>2026-04-29T12:37:08.791Z</time></trkpt><trkpt lat="44.2563996" lon="9.4625455"><ele>297.0</ele><time>2026-04-29T12:37:09.792Z</time></trkpt><trkpt lat="44.2565084" lon="9.462568"><ele>291.0</ele><time>2026-04-29T12:37:10.792Z</time></trkpt><trkpt lat="44.2566806" lon="9.4626384"><ele>285.0</ele><time>2026-04-29T12:37:11.792Z</time></trkpt><trkpt lat="44.2568064" lon="9.4626548"><ele>279.0</ele><time>2026-04-29T12:37:12.792Z</time></trkpt><trkpt lat="44.2569313" lon="9.4626253"><ele>279.0</ele><time>2026-04-29T12:37:13.791Z</time></trkpt><trkpt lat="44.2570257" lon="9.4625259"><ele>279.0</ele><time>2026-04-29T12:37:14.792Z</time></trkpt><trkpt lat="44.257083" lon="9.462393"><ele>279.0</ele><time>2026-04-29T12:37:15.792Z</time></trkpt><trkpt lat="44.2571485" lon="9.4622732"><ele>279.0</ele><time>2026-04-29T12:37:16.792Z</time></trkpt><trkpt lat="44.2572378" lon="9.4621864"><ele>279.0</ele><time>2026-04-29T12:37:17.792Z</time></trkpt><trkpt lat="44.2573505" lon="9.4621616"><ele>277.5</ele><time>2026-04-29T12:37:18.791Z</time></trkpt><trkpt lat="44.2574639" lon="9.4622101"><ele>276.0</ele><time>2026-04-29T12:37:19.792Z</time></trkpt><trkpt lat="44.2575663" lon="9.4623261"><ele>274.5</ele><time>2026-04-29T12:37:20.791Z</time></trkpt><trkpt lat="44.2576667" lon="9.4624969"><ele>273.0</ele><time>2026-04-29T12:37:21.792Z</time></trkpt><trkpt lat="44.2577844" lon="9.46271"><ele>273.0</ele><time>2026-04-29T12:37:22.792Z</time></trkpt><trkpt lat="44.2579115" lon="9.4628906"><ele>273.0</ele><time>2026-04-29T12:37:23.791Z</time></trkpt><trkpt lat="44.2580134" lon="9.4630318"><ele>273.0</ele><time>2026-04-29T12:37:24.792Z</time></trkpt><trkpt lat="44.258118" lon="9.4631461"><ele>267.75</ele><time>2026-04-29T12:37:25.792Z</time></trkpt><trkpt lat="44.2582327" lon="9.4632049"><ele>262.5</ele><time>2026-04-29T12:37:26.792Z</time></trkpt><trkpt lat="44.2583607" lon="9.4632209"><ele>257.25</ele><time>2026-04-29T12:37:27.792Z</time></trkpt><trkpt lat="44.2585049" lon="9.4631843"><ele>252.0</ele><time>2026-04-29T12:37:28.791Z</time></trkpt><trkpt lat="44.2586682" lon="9.4631076"><ele>252.0</ele><time>2026-04-29T12:37:29.792Z</time></trkpt><trkpt lat="44.2588157" lon="9.4630086"><ele>252.0</ele><time>2026-04-29T12:37:30.791Z</time></trkpt><trkpt lat="44.2589427" lon="9.4629085"><ele>252.0</ele><time>2026-04-29T12:37:31.792Z</time></trkpt><trkpt lat="44.2590341" lon="9.4627873"><ele>252.0</ele><time>2026-04-29T12:37:32.791Z</time></trkpt><trkpt lat="44.2590794" lon="9.4626504"><ele>251.0</ele><time>2026-04-29T12:37:33.792Z</time></trkpt><trkpt lat="44.259077" lon="9.4625055"><ele>250.0</ele><time>2026-04-29T12:37:34.792Z</time></trkpt><trkpt lat="44.2590188" lon="9.4623821"><ele>249.0</ele><time>2026-04-29T12:37:35.792Z</time></trkpt><trkpt lat="44.2589285" lon="9.4622879"><ele>248.0</ele><time>2026-04-29T12:37:36.792Z</time></trkpt><trkpt lat="44.2588081" lon="9.4622172"><ele>255.5</ele><time>2026-04-29T12:37:37.792Z</time></trkpt><trkpt lat="44.2587152" lon="9.4621148"><ele>263.0</ele><time>2026-04-29T12:37:38.792Z</time></trkpt><trkpt lat="44.2586339" lon="9.4619942"><ele>270.5</ele><time>2026-04-29T12:37:39.792Z</time></trkpt><trkpt lat="44.258619" lon="9.4617781"><ele>278.0</ele><time>2026-04-29T12:37:40.792Z</time></trkpt><trkpt lat="44.2586057" lon="9.4615733"><ele>278.0</ele><time>2026-04-29T12:37:41.792Z</time></trkpt><trkpt lat="44.258598" lon="9.4613765"><ele>278.0</ele><time>2026-04-29T12:37:42.792Z</time></trkpt><trkpt lat="44.2585628" lon="9.4611798"><ele>278.0</ele><time>2026-04-29T12:37:43.792Z</time></trkpt><trkpt lat="44.2585089" lon="9.4610035"><ele>278.0</ele><time>2026-04-29T12:37:44.792Z</time></trkpt><trkpt lat="44.2584806" lon="9.4608293"><ele>277.6666666666667</ele><time>2026-04-29T12:37:45.792Z</time></trkpt><trkpt lat="44.2584941" lon="9.4606317"><ele>277.3333333333333</ele><time>2026-04-29T12:37:46.792Z</time></trkpt><trkpt lat="44.2585277" lon="9.4604038"><ele>277.0</ele><time>2026-04-29T12:37:47.791Z</time></trkpt><trkpt lat="44.2585658" lon="9.4601512"><ele>277.0</ele><time>2026-04-29T12:37:48.792Z</time></trkpt><trkpt lat="44.2585948" lon="9.4599391"><ele>277.0</ele><time>2026-04-29T12:37:49.792Z</time></trkpt><trkpt lat="44.2586245" lon="9.4597473"><ele>277.0</ele><time>2026-04-29T12:37:50.792Z</time></trkpt><trkpt lat="44.2586583" lon="9.4596051"><ele>277.0</ele><time>2026-04-29T12:37:51.792Z</time></trkpt><trkpt lat="44.2587185" lon="9.4595071"><ele>280.75</ele><time>2026-04-29T12:37:52.792Z</time></trkpt><trkpt lat="44.2588032" lon="9.4594695"><ele>284.5</ele><time>2026-04-29T12:37:53.791Z</time></trkpt><trkpt lat="44.2589312" lon="9.4594806"><ele>288.25</ele><time>2026-04-29T12:37:54.792Z</time></trkpt><trkpt lat="44.2590888" lon="9.4594939"><ele>292.0</ele><time>2026-04-29T12:37:55.792Z</time></trkpt><trkpt lat="44.2592288" lon="9.4595049"><ele>286.0</ele><time>2026-04-29T12:37:56.792Z</time></trkpt><trkpt lat="44.2593494" lon="9.4595148"><ele>280.0</ele><time>2026-04-29T12:37:57.791Z</time></trkpt><trkpt lat="44.259459" lon="9.4594987"><ele>274.0</ele><time>2026-04-29T12:37:58.792Z</time></trkpt><trkpt lat="44.2595434" lon="9.4594208"><ele>268.0</ele><time>2026-04-29T12:37:59.792Z</time></trkpt><trkpt lat="44.259595" lon="9.4593002"><ele>262.0</ele><time>2026-04-29T12:38:00.792Z</time></trkpt><trkpt lat="44.2596035" lon="9.4591513"><ele>262.0</ele><time>2026-04-29T12:38:01.792Z</time></trkpt><trkpt lat="44.2595858" lon="9.4589831"><ele>262.0</ele><time>2026-04-29T12:38:02.792Z</time></trkpt><trkpt lat="44.2595644" lon="9.4587911"><ele>262.0</ele><time>2026-04-29T12:38:03.792Z</time></trkpt><trkpt lat="44.2595527" lon="9.4586039"><ele>262.0</ele><time>2026-04-29T12:38:04.791Z</time></trkpt><trkpt lat="44.2595732" lon="9.4584354"><ele>256.75</ele><time>2026-04-29T12:38:05.792Z</time></trkpt><trkpt lat="44.2596278" lon="9.458287"><ele>251.5</ele><time>2026-04-29T12:38:06.792Z</time></trkpt><trkpt lat="44.2597239" lon="9.4581595"><ele>246.25</ele><time>2026-04-29T12:38:07.792Z</time></trkpt><trkpt lat="44.2598488" lon="9.4580709"><ele>241.0</ele><time>2026-04-29T12:38:08.792Z</time></trkpt><trkpt lat="44.2599804" lon="9.4580131"><ele>243.4</ele><time>2026-04-29T12:38:09.792Z</time></trkpt><trkpt lat="44.2600785" lon="9.4579372"><ele>245.8</ele><time>2026-04-29T12:38:10.792Z</time></trkpt><trkpt lat="44.2601441" lon="9.457823"><ele>248.20000000000002</ele><time>2026-04-29T12:38:11.792Z</time></trkpt><trkpt lat="44.2601709" lon="9.4576798"><ele>250.60000000000002</ele><time>2026-04-29T12:38:12.792Z</time></trkpt><trkpt lat="44.2601542" lon="9.4575278"><ele>253.0</ele><time>2026-04-29T12:38:13.792Z</time></trkpt><trkpt lat="44.2600891" lon="9.4573926"><ele>253.0</ele><time>2026-04-29T12:38:14.792Z</time></trkpt><trkpt lat="44.2599872" lon="9.4572779"><ele>253.0</ele><time>2026-04-29T12:38:15.792Z</time></trkpt><trkpt lat="44.2598874" lon="9.4571722"><ele>253.0</ele><time>2026-04-29T12:38:16.792Z</time></trkpt><trkpt lat="44.2598074" lon="9.4570502"><ele>253.0</ele><time>2026-04-29T12:38:17.792Z</time></trkpt><trkpt lat="44.2597609" lon="9.4569143"><ele>250.5</ele><time>2026-04-29T12:38:18.792Z</time></trkpt><trkpt lat="44.2597623" lon="9.4567503"><ele>248.0</ele><time>2026-04-29T12:38:19.792Z</time></trkpt><trkpt lat="44.2597912" lon="9.456573"><ele>245.5</ele><time>2026-04-29T12:38:20.792Z</time></trkpt><trkpt lat="44.2598236" lon="9.4564079"><ele>243.0</ele><time>2026-04-29T12:38:21.792Z</time></trkpt><trkpt lat="44.259819" lon="9.4562321"><ele>241.25</ele><time>2026-04-29T12:38:22.792Z</time></trkpt><trkpt lat="44.2597902" lon="9.4560513"><ele>239.5</ele><time>2026-04-29T12:38:23.792Z</time></trkpt><trkpt lat="44.259744" lon="9.4558846"><ele>237.75</ele><time>2026-04-29T12:38:24.791Z</time></trkpt><trkpt lat="44.2597134" lon="9.4557299"><ele>236.0</ele><time>2026-04-29T12:38:25.792Z</time></trkpt><trkpt lat="44.2597565" lon="9.4555673"><ele>236.66666666666669</ele><time>2026-04-29T12:38:26.791Z</time></trkpt><trkpt lat="44.2598208" lon="9.455386"><ele>237.33333333333331</ele><time>2026-04-29T12:38:27.792Z</time></trkpt><trkpt lat="44.2599092" lon="9.4551847"><ele>238.0</ele><time>2026-04-29T12:38:28.792Z</time></trkpt><trkpt lat="44.2599848" lon="9.4550052"><ele>238.0</ele><time>2026-04-29T12:38:29.792Z</time></trkpt><trkpt lat="44.2600585" lon="9.4548217"><ele>238.0</ele><time>2026-04-29T12:38:30.792Z</time></trkpt><trkpt lat="44.2601311" lon="9.4546448"><ele>238.0</ele><time>2026-04-29T12:38:31.792Z</time></trkpt><trkpt lat="44.2601992" lon="9.4544804"><ele>238.0</ele><time>2026-04-29T12:38:32.792Z</time></trkpt><trkpt lat="44.2602474" lon="9.4543135"><ele>237.5</ele><time>2026-04-29T12:38:33.792Z</time></trkpt><trkpt lat="44.2602644" lon="9.4541348"><ele>237.0</ele><time>2026-04-29T12:38:34.792Z</time></trkpt><trkpt lat="44.2602578" lon="9.4539414"><ele>236.5</ele><time>2026-04-29T12:38:35.792Z</time></trkpt><trkpt lat="44.2602205" lon="9.4537359"><ele>236.0</ele><time>2026-04-29T12:38:36.791Z</time></trkpt><trkpt lat="44.2601669" lon="9.4535208"><ele>236.0</ele><time>2026-04-29T12:38:37.792Z</time></trkpt><trkpt lat="44.2600973" lon="9.453281"><ele>236.0</ele><time>2026-04-29T12:38:38.792Z</time></trkpt><trkpt lat="44.2600243" lon="9.4530402"><ele>236.0</ele><time>2026-04-29T12:38:39.792Z</time></trkpt><trkpt lat="44.2599564" lon="9.4528297"><ele>234.5</ele><time>2026-04-29T12:38:40.792Z</time></trkpt><trkpt lat="44.2599049" lon="9.4526567"><ele>233.0</ele><time>2026-04-29T12:38:41.792Z</time></trkpt><trkpt lat="44.2598704" lon="9.4524944"><ele>231.5</ele><time>2026-04-29T12:38:42.792Z</time></trkpt><trkpt lat="44.2598749" lon="9.4523379"><ele>230.0</ele><time>2026-04-29T12:38:43.792Z</time></trkpt><trkpt lat="44.2599204" lon="9.4521959"><ele>230.5</ele><time>2026-04-29T12:38:44.791Z</time></trkpt><trkpt lat="44.260001" lon="9.4521036"><ele>231.0</ele><time>2026-04-29T12:38:45.791Z</time></trkpt><trkpt lat="44.2601131" lon="9.4520486"><ele>231.5</ele><time>2026-04-29T12:38:46.792Z</time></trkpt><trkpt lat="44.2602378" lon="9.4519994"><ele>232.0</ele><time>2026-04-29T12:38:47.791Z</time></trkpt><trkpt lat="44.2603536" lon="9.4519054"><ele>232.0</ele><time>2026-04-29T12:38:48.792Z</time></trkpt><trkpt lat="44.260458" lon="9.4517705"><ele>232.0</ele><time>2026-04-29T12:38:49.791Z</time></trkpt><trkpt lat="44.2605393" lon="9.4516243"><ele>232.0</ele><time>2026-04-29T12:38:50.792Z</time></trkpt><trkpt lat="44.2606177" lon="9.4514805"><ele>232.0</ele><time>2026-04-29T12:38:51.792Z</time></trkpt><trkpt lat="44.2607276" lon="9.4513631"><ele>229.33333333333331</ele><time>2026-04-29T12:38:52.791Z</time></trkpt><trkpt lat="44.260868" lon="9.4512628"><ele>226.66666666666669</ele><time>2026-04-29T12:38:53.792Z</time></trkpt><trkpt lat="44.2610162" lon="9.4511552"><ele>224.0</ele><time>2026-04-29T12:38:54.792Z</time></trkpt><trkpt lat="44.2611373" lon="9.4510639"><ele>224.0</ele><time>2026-04-29T12:38:55.792Z</time></trkpt><trkpt lat="44.2612419" lon="9.4509636"><ele>224.0</ele><time>2026-04-29T12:38:56.792Z</time></trkpt><trkpt lat="44.2613255" lon="9.4508352"><ele>224.0</ele><time>2026-04-29T12:38:57.792Z</time></trkpt><trkpt lat="44.2613689" lon="9.450682"><ele>224.0</ele><time>2026-04-29T12:38:58.791Z</time></trkpt><trkpt lat="44.2613753" lon="9.4505061"><ele>221.66666666666669</ele><time>2026-04-29T12:38:59.792Z</time></trkpt><trkpt lat="44.2613749" lon="9.4503178"><ele>219.33333333333331</ele><time>2026-04-29T12:39:00.792Z</time></trkpt><trkpt lat="44.2614115" lon="9.450114"><ele>217.0</ele><time>2026-04-29T12:39:01.791Z</time></trkpt><trkpt lat="44.2614677" lon="9.4498845"><ele>211.0</ele><time>2026-04-29T12:39:02.791Z</time></trkpt><trkpt lat="44.2615342" lon="9.449636"><ele>205.0</ele><time>2026-04-29T12:39:03.792Z</time></trkpt><trkpt lat="44.2616014" lon="9.4493936"><ele>199.0</ele><time>2026-04-29T12:39:04.792Z</time></trkpt><trkpt lat="44.2616589" lon="9.4491444"><ele>199.0</ele><time>2026-04-29T12:39:05.792Z</time></trkpt><trkpt lat="44.2616874" lon="9.4488989"><ele>199.0</ele><time>2026-04-29T12:39:06.792Z</time></trkpt><trkpt lat="44.2617" lon="9.4486561"><ele>199.0</ele><time>2026-04-29T12:39:07.792Z</time></trkpt><trkpt lat="44.2617149" lon="9.4484047"><ele>199.0</ele><time>2026-04-29T12:39:08.792Z</time></trkpt><trkpt lat="44.2617408" lon="9.448157"><ele>199.0</ele><time>2026-04-29T12:39:09.792Z</time></trkpt><trkpt lat="44.2617882" lon="9.44793"><ele>199.0</ele><time>2026-04-29T12:39:10.792Z</time></trkpt><trkpt lat="44.2618548" lon="9.4477224"><ele>199.25</ele><time>2026-04-29T12:39:11.792Z</time></trkpt><trkpt lat="44.2619425" lon="9.4475526"><ele>199.5</ele><time>2026-04-29T12:39:12.792Z</time></trkpt><trkpt lat="44.2620477" lon="9.4474346"><ele>199.75</ele><time>2026-04-29T12:39:13.791Z</time></trkpt><trkpt lat="44.2621775" lon="9.4473751"><ele>200.0</ele><time>2026-04-29T12:39:14.792Z</time></trkpt><trkpt lat="44.2623158" lon="9.4473272"><ele>196.33333333333334</ele><time>2026-04-29T12:39:15.792Z</time></trkpt><trkpt lat="44.2624609" lon="9.4472141"><ele>192.66666666666669</ele><time>2026-04-29T12:39:16.792Z</time></trkpt><trkpt lat="44.2626171" lon="9.447096"><ele>189.0</ele><time>2026-04-29T12:39:17.792Z</time></trkpt><trkpt lat="44.2627771" lon="9.4470329"><ele>189.0</ele><time>2026-04-29T12:39:18.792Z</time></trkpt><trkpt lat="44.2629381" lon="9.4470088"><ele>189.0</ele><time>2026-04-29T12:39:19.792Z</time></trkpt><trkpt lat="44.2630867" lon="9.4469976"><ele>189.0</ele><time>2026-04-29T12:39:20.792Z</time></trkpt><trkpt lat="44.2632251" lon="9.4469625"><ele>187.79999999999998</ele><time>2026-04-29T12:39:21.792Z</time></trkpt><trkpt lat="44.2633467" lon="9.446913"><ele>186.6</ele><time>2026-04-29T12:39:22.792Z</time></trkpt><trkpt lat="44.2634366" lon="9.4468513"><ele>185.4</ele><time>2026-04-29T12:39:23.791Z</time></trkpt><trkpt lat="44.2634992" lon="9.4467592"><ele>184.2</ele><time>2026-04-29T12:39:24.792Z</time></trkpt><trkpt lat="44.263518" lon="9.446653"><ele>183.0</ele><time>2026-04-29T12:39:25.792Z</time></trkpt><trkpt lat="44.2634871" lon="9.4465615"><ele>183.0</ele><time>2026-04-29T12:39:26.792Z</time></trkpt><trkpt lat="44.2634156" lon="9.4465056"><ele>183.0</ele><time>2026-04-29T12:39:27.791Z</time></trkpt><trkpt lat="44.2633051" lon="9.4464722"><ele>183.0</ele><time>2026-04-29T12:39:28.792Z</time></trkpt><trkpt lat="44.2631591" lon="9.4464445"><ele>183.0</ele><time>2026-04-29T12:39:29.792Z</time></trkpt><trkpt lat="44.2630022" lon="9.4464229"><ele>184.5</ele><time>2026-04-29T12:39:30.792Z</time></trkpt><trkpt lat="44.2628621" lon="9.4463998"><ele>186.0</ele><time>2026-04-29T12:39:31.792Z</time></trkpt><trkpt lat="44.2627259" lon="9.4463709"><ele>187.5</ele><time>2026-04-29T12:39:32.792Z</time></trkpt><trkpt lat="44.262599" lon="9.4463102"><ele>189.0</ele><time>2026-04-29T12:39:33.791Z</time></trkpt><trkpt lat="44.2624796" lon="9.4462014"><ele>186.5</ele><time>2026-04-29T12:39:34.792Z</time></trkpt><trkpt lat="44.2623671" lon="9.4460564"><ele>184.0</ele><time>2026-04-29T12:39:35.792Z</time></trkpt><trkpt lat="44.2622663" lon="9.4459123"><ele>181.5</ele><time>2026-04-29T12:39:36.792Z</time></trkpt><trkpt lat="44.2621695" lon="9.4457784"><ele>179.0</ele><time>2026-04-29T12:39:37.792Z</time></trkpt><trkpt lat="44.2620876" lon="9.4456626"><ele>179.0</ele><time>2026-04-29T12:39:38.791Z</time></trkpt><trkpt lat="44.2619998" lon="9.4455595"><ele>179.0</ele><time>2026-04-29T12:39:39.791Z</time></trkpt><trkpt lat="44.2618941" lon="9.4454892"><ele>179.0</ele><time>2026-04-29T12:39:40.792Z</time></trkpt><trkpt lat="44.2617762" lon="9.4454681"><ele>179.0</ele><time>2026-04-29T12:39:41.792Z</time></trkpt><trkpt lat="44.2616503" lon="9.4455083"><ele>179.0</ele><time>2026-04-29T12:39:42.792Z</time></trkpt><trkpt lat="44.2615207" lon="9.4455788"><ele>179.0</ele><time>2026-04-29T12:39:43.792Z</time></trkpt><trkpt lat="44.261373" lon="9.4456816"><ele>179.0</ele><time>2026-04-29T12:39:44.792Z</time></trkpt><trkpt lat="44.261235" lon="9.4457814"><ele>177.25</ele><time>2026-04-29T12:39:45.792Z</time></trkpt><trkpt lat="44.2611026" lon="9.4458758"><ele>175.5</ele><time>2026-04-29T12:39:46.792Z</time></trkpt><trkpt lat="44.2609753" lon="9.445965"><ele>173.75</ele><time>2026-04-29T12:39:47.792Z</time></trkpt><trkpt lat="44.2608611" lon="9.4460456"><ele>172.0</ele><time>2026-04-29T12:39:48.792Z</time></trkpt><trkpt lat="44.2607482" lon="9.4461032"><ele>172.0</ele><time>2026-04-29T12:39:49.792Z</time></trkpt><trkpt lat="44.2606292" lon="9.446122"><ele>172.0</ele><time>2026-04-29T12:39:50.792Z</time></trkpt><trkpt lat="44.2605078" lon="9.4460964"><ele>172.0</ele><time>2026-04-29T12:39:51.792Z</time></trkpt><trkpt lat="44.2603945" lon="9.446048"><ele>172.0</ele><time>2026-04-29T12:39:52.792Z</time></trkpt><trkpt lat="44.2602929" lon="9.4459656"><ele>166.25</ele><time>2026-04-29T12:39:53.791Z</time></trkpt><trkpt lat="44.2602056" lon="9.4458412"><ele>160.5</ele><time>2026-04-29T12:39:54.792Z</time></trkpt><trkpt lat="44.2601448" lon="9.4456921"><ele>154.75</ele><time>2026-04-29T12:39:55.792Z</time></trkpt><trkpt lat="44.2601038" lon="9.4455287"><ele>149.0</ele><time>2026-04-29T12:39:56.792Z</time></trkpt><trkpt lat="44.2600936" lon="9.4453652"><ele>147.75</ele><time>2026-04-29T12:39:57.792Z</time></trkpt><trkpt lat="44.2601149" lon="9.4452023"><ele>146.5</ele><time>2026-04-29T12:39:58.792Z</time></trkpt><trkpt lat="44.2601634" lon="9.4450601"><ele>145.25</ele><time>2026-04-29T12:39:59.792Z</time></trkpt><trkpt lat="44.2602295" lon="9.4449407"><ele>144.0</ele><time>2026-04-29T12:40:00.791Z</time></trkpt><trkpt lat="44.2603259" lon="9.4448547"><ele>144.0</ele><time>2026-04-29T12:40:01.792Z</time></trkpt><trkpt lat="44.2604449" lon="9.4448158"><ele>144.0</ele><time>2026-04-29T12:40:02.792Z</time></trkpt><trkpt lat="44.2605803" lon="9.4448253"><ele>144.0</ele><time>2026-04-29T12:40:03.791Z</time></trkpt><trkpt lat="44.2607154" lon="9.4448572"><ele>144.0</ele><time>2026-04-29T12:40:04.792Z</time></trkpt><trkpt lat="44.2608352" lon="9.4448731"><ele>142.2</ele><time>2026-04-29T12:40:05.792Z</time></trkpt><trkpt lat="44.2609443" lon="9.4448871"><ele>140.4</ele><time>2026-04-29T12:40:06.792Z</time></trkpt><trkpt lat="44.2610352" lon="9.4448642"><ele>138.6</ele><time>2026-04-29T12:40:07.792Z</time></trkpt><trkpt lat="44.2611037" lon="9.4447792"><ele>136.8</ele><time>2026-04-29T12:40:08.792Z</time></trkpt><trkpt lat="44.2611392" lon="9.4446586"><ele>135.0</ele><time>2026-04-29T12:40:09.792Z</time></trkpt><trkpt lat="44.2611687" lon="9.4445137"><ele>135.0</ele><time>2026-04-29T12:40:10.791Z</time></trkpt><trkpt lat="44.2612333" lon="9.4443674"><ele>135.0</ele><time>2026-04-29T12:40:11.792Z</time></trkpt><trkpt lat="44.2613306" lon="9.4442341"><ele>135.0</ele><time>2026-04-29T12:40:12.792Z</time></trkpt><trkpt lat="44.261441" lon="9.4441473"><ele>135.0</ele><time>2026-04-29T12:40:13.792Z</time></trkpt><trkpt lat="44.2615639" lon="9.4441097"><ele>136.5</ele><time>2026-04-29T12:40:14.792Z</time></trkpt><trkpt lat="44.2616959" lon="9.4441183"><ele>138.0</ele><time>2026-04-29T12:40:15.791Z</time></trkpt><trkpt lat="44.2618133" lon="9.4441429"><ele>139.5</ele><time>2026-04-29T12:40:16.791Z</time></trkpt><trkpt lat="44.2619205" lon="9.444118"><ele>141.0</ele><time>2026-04-29T12:40:17.792Z</time></trkpt><trkpt lat="44.2620094" lon="9.4440398"><ele>141.0</ele><time>2026-04-29T12:40:18.792Z</time></trkpt><trkpt lat="44.2620741" lon="9.4439158"><ele>141.0</ele><time>2026-04-29T12:40:19.792Z</time></trkpt><trkpt lat="44.2621286" lon="9.4437662"><ele>141.0</ele><time>2026-04-29T12:40:20.791Z</time></trkpt><trkpt lat="44.2621696" lon="9.4435976"><ele>141.0</ele><time>2026-04-29T12:40:21.792Z</time></trkpt><trkpt lat="44.2622124" lon="9.4434365"><ele>139.2</ele><time>2026-04-29T12:40:22.792Z</time></trkpt><trkpt lat="44.2622531" lon="9.4432802"><ele>137.39999999999998</ele><time>2026-04-29T12:40:23.792Z</time></trkpt><trkpt lat="44.2622978" lon="9.4431383"><ele>135.6</ele><time>2026-04-29T12:40:24.792Z</time></trkpt><trkpt lat="44.2623629" lon="9.4430269"><ele>133.79999999999998</ele><time>2026-04-29T12:40:25.792Z</time></trkpt><trkpt lat="44.262454" lon="9.4429557"><ele>132.0</ele><time>2026-04-29T12:40:26.792Z</time></trkpt><trkpt lat="44.2625743" lon="9.442921"><ele>128.5</ele><time>2026-04-29T12:40:27.792Z</time></trkpt><trkpt lat="44.2627086" lon="9.4429121"><ele>125.0</ele><time>2026-04-29T12:40:28.792Z</time></trkpt><trkpt lat="44.2628326" lon="9.4428929"><ele>121.5</ele><time>2026-04-29T12:40:29.791Z</time></trkpt><trkpt lat="44.2629285" lon="9.4428034"><ele>118.0</ele><time>2026-04-29T12:40:30.792Z</time></trkpt><trkpt lat="44.263017" lon="9.4426709"><ele>118.0</ele><time>2026-04-29T12:40:31.792Z</time></trkpt><trkpt lat="44.2631139" lon="9.4425301"><ele>118.0</ele><time>2026-04-29T12:40:32.792Z</time></trkpt><trkpt lat="44.2631872" lon="9.4423725"><ele>118.0</ele><time>2026-04-29T12:40:33.791Z</time></trkpt><trkpt lat="44.263234" lon="9.4422046"><ele>118.0</ele><time>2026-04-29T12:40:34.792Z</time></trkpt><trkpt lat="44.2632596" lon="9.4420393"><ele>116.75</ele><time>2026-04-29T12:40:35.792Z</time></trkpt><trkpt lat="44.2632991" lon="9.4418948"><ele>115.5</ele><time>2026-04-29T12:40:36.792Z</time></trkpt><trkpt lat="44.2633795" lon="9.441769"><ele>114.25</ele><time>2026-04-29T12:40:37.792Z</time></trkpt><trkpt lat="44.263497" lon="9.4416822"><ele>113.0</ele><time>2026-04-29T12:40:38.792Z</time></trkpt><trkpt lat="44.2636262" lon="9.4416168"><ele>113.0</ele><time>2026-04-29T12:40:39.792Z</time></trkpt><trkpt lat="44.2637371" lon="9.4415348"><ele>113.0</ele><time>2026-04-29T12:40:40.792Z</time></trkpt><trkpt lat="44.263824" lon="9.4414105"><ele>113.0</ele><time>2026-04-29T12:40:41.792Z</time></trkpt><trkpt lat="44.263894" lon="9.4412802"><ele>113.0</ele><time>2026-04-29T12:40:42.792Z</time></trkpt><trkpt lat="44.2639939" lon="9.441179"><ele>109.66666666666666</ele><time>2026-04-29T12:40:43.792Z</time></trkpt><trkpt lat="44.2641222" lon="9.4411046"><ele>106.33333333333334</ele><time>2026-04-29T12:40:44.791Z</time></trkpt><trkpt lat="44.264267" lon="9.4410236"><ele>103.0</ele><time>2026-04-29T12:40:45.792Z</time></trkpt><trkpt lat="44.2644276" lon="9.4409115"><ele>103.0</ele><time>2026-04-29T12:40:46.792Z</time></trkpt><trkpt lat="44.2645781" lon="9.4407965"><ele>103.0</ele><time>2026-04-29T12:40:47.792Z</time></trkpt><trkpt lat="44.2647192" lon="9.4406831"><ele>103.0</ele><time>2026-04-29T12:40:48.792Z</time></trkpt><trkpt lat="44.264843" lon="9.440557"><ele>101.5</ele><time>2026-04-29T12:40:49.792Z</time></trkpt><trkpt lat="44.264943" lon="9.4404034"><ele>100.0</ele><time>2026-04-29T12:40:50.792Z</time></trkpt><trkpt lat="44.265031" lon="9.4402458"><ele>98.5</ele><time>2026-04-29T12:40:51.792Z</time></trkpt><trkpt lat="44.2651181" lon="9.4400848"><ele>97.0</ele><time>2026-04-29T12:40:52.792Z</time></trkpt><trkpt lat="44.2651982" lon="9.4399338"><ele>97.0</ele><time>2026-04-29T12:40:53.792Z</time></trkpt><trkpt lat="44.2652624" lon="9.4397792"><ele>97.0</ele><time>2026-04-29T12:40:54.792Z</time></trkpt><trkpt lat="44.2653094" lon="9.4396206"><ele>97.0</ele><time>2026-04-29T12:40:55.792Z</time></trkpt><trkpt lat="44.2653257" lon="9.439472"><ele>97.0</ele><time>2026-04-29T12:40:56.791Z</time></trkpt><trkpt lat="44.2653016" lon="9.4393337"><ele>96.0</ele><time>2026-04-29T12:40:57.792Z</time></trkpt><trkpt lat="44.2652363" lon="9.4392149"><ele>95.0</ele><time>2026-04-29T12:40:58.792Z</time></trkpt><trkpt lat="44.2651431" lon="9.4391234"><ele>94.0</ele><time>2026-04-29T12:40:59.791Z</time></trkpt><trkpt lat="44.2650531" lon="9.4390343"><ele>93.0</ele><time>2026-04-29T12:41:00.791Z</time></trkpt><trkpt lat="44.2649784" lon="9.4389148"><ele>92.0</ele><time>2026-04-29T12:41:01.792Z</time></trkpt><trkpt lat="44.26493" lon="9.4387623"><ele>91.5</ele><time>2026-04-29T12:41:02.792Z</time></trkpt><trkpt lat="44.2649112" lon="9.4385867"><ele>91.0</ele><time>2026-04-29T12:41:03.791Z</time></trkpt><trkpt lat="44.2649213" lon="9.4383895"><ele>90.5</ele><time>2026-04-29T12:41:04.791Z</time></trkpt><trkpt lat="44.2649503" lon="9.4382143"><ele>90.0</ele><time>2026-04-29T12:41:05.792Z</time></trkpt><trkpt lat="44.2650158" lon="9.4380561"><ele>88.0</ele><time>2026-04-29T12:41:06.792Z</time></trkpt><trkpt lat="44.2651073" lon="9.4379275"><ele>86.0</ele><time>2026-04-29T12:41:07.792Z</time></trkpt><trkpt lat="44.2651892" lon="9.4378183"><ele>84.0</ele><time>2026-04-29T12:41:08.792Z</time></trkpt><trkpt lat="44.26522" lon="9.4376858"><ele>82.0</ele><time>2026-04-29T12:41:09.791Z</time></trkpt><trkpt lat="44.2652069" lon="9.4375476"><ele>80.0</ele><time>2026-04-29T12:41:10.792Z</time></trkpt><trkpt lat="44.2651535" lon="9.4374088"><ele>80.0</ele><time>2026-04-29T12:41:11.792Z</time></trkpt><trkpt lat="44.2650824" lon="9.4372688"><ele>80.0</ele><time>2026-04-29T12:41:12.791Z</time></trkpt><trkpt lat="44.2650372" lon="9.4371258"><ele>80.0</ele><time>2026-04-29T12:41:13.792Z</time></trkpt><trkpt lat="44.2650238" lon="9.4369644"><ele>80.0</ele><time>2026-04-29T12:41:14.792Z</time></trkpt><trkpt lat="44.2650451" lon="9.436785"><ele>77.0</ele><time>2026-04-29T12:41:15.791Z</time></trkpt><trkpt lat="44.2651101" lon="9.4366044"><ele>74.0</ele><time>2026-04-29T12:41:16.792Z</time></trkpt><trkpt lat="44.2651996" lon="9.4364079"><ele>71.0</ele><time>2026-04-29T12:41:17.792Z</time></trkpt><trkpt lat="44.2652899" lon="9.4362124"><ele>67.33333333333334</ele><time>2026-04-29T12:41:18.792Z</time></trkpt><trkpt lat="44.2653678" lon="9.4359987"><ele>63.66666666666667</ele><time>2026-04-29T12:41:19.792Z</time></trkpt><trkpt lat="44.2654246" lon="9.4357553"><ele>60.0</ele><time>2026-04-29T12:41:20.791Z</time></trkpt><trkpt lat="44.2654764" lon="9.4355043"><ele>56.66666666666667</ele><time>2026-04-29T12:41:21.792Z</time></trkpt><trkpt lat="44.2655148" lon="9.4352672"><ele>53.333333333333336</ele><time>2026-04-29T12:41:22.792Z</time></trkpt><trkpt lat="44.2655266" lon="9.435052"><ele>50.0</ele><time>2026-04-29T12:41:23.792Z</time></trkpt><trkpt lat="44.2655079" lon="9.4348579"><ele>50.0</ele><time>2026-04-29T12:41:24.791Z</time></trkpt><trkpt lat="44.2654803" lon="9.4346905"><ele>50.0</ele><time>2026-04-29T12:41:25.791Z</time></trkpt><trkpt lat="44.2655006" lon="9.4345164"><ele>50.0</ele><time>2026-04-29T12:41:26.792Z</time></trkpt><trkpt lat="44.2655502" lon="9.4343342"><ele>50.0</ele><time>2026-04-29T12:41:27.792Z</time></trkpt><trkpt lat="44.2655756" lon="9.4341551"><ele>48.75</ele><time>2026-04-29T12:41:28.792Z</time></trkpt><trkpt lat="44.2655734" lon="9.4339667"><ele>47.5</ele><time>2026-04-29T12:41:29.792Z</time></trkpt><trkpt lat="44.2656058" lon="9.4337973"><ele>46.25</ele><time>2026-04-29T12:41:30.792Z</time></trkpt><trkpt lat="44.2656601" lon="9.4336486"><ele>45.0</ele><time>2026-04-29T12:41:31.791Z</time></trkpt><trkpt lat="44.2656815" lon="9.4334919"><ele>43.75</ele><time>2026-04-29T12:41:32.792Z</time></trkpt><trkpt lat="44.2656622" lon="9.4333104"><ele>42.5</ele><time>2026-04-29T12:41:33.792Z</time></trkpt><trkpt lat="44.2656162" lon="9.4331556"><ele>41.25</ele><time>2026-04-29T12:41:34.792Z</time></trkpt><trkpt lat="44.2656002" lon="9.4329929"><ele>40.0</ele><time>2026-04-29T12:41:35.792Z</time></trkpt><trkpt lat="44.2656077" lon="9.4328323"><ele>40.0</ele><time>2026-04-29T12:41:36.792Z</time></trkpt><trkpt lat="44.2655906" lon="9.4326881"><ele>40.0</ele><time>2026-04-29T12:41:37.792Z</time></trkpt><trkpt lat="44.2655394" lon="9.4325472"><ele>40.0</ele><time>2026-04-29T12:41:38.791Z</time></trkpt><trkpt lat="44.2654399" lon="9.4324533"><ele>40.0</ele><time>2026-04-29T12:41:39.792Z</time></trkpt><trkpt lat="44.2653354" lon="9.432393"><ele>40.0</ele><time>2026-04-29T12:41:40.792Z</time></trkpt><trkpt lat="44.2652442" lon="9.4323308"><ele>40.0</ele><time>2026-04-29T12:41:41.792Z</time></trkpt><trkpt lat="44.2651693" lon="9.4322394"><ele>40.0</ele><time>2026-04-29T12:41:42.792Z</time></trkpt><trkpt lat="44.265113" lon="9.4321114"><ele>40.0</ele><time>2026-04-29T12:41:43.792Z</time></trkpt><trkpt lat="44.2650604" lon="9.4319523"><ele>40.0</ele><time>2026-04-29T12:41:44.792Z</time></trkpt><trkpt lat="44.2650095" lon="9.4317945"><ele>39.8</ele><time>2026-04-29T12:41:45.791Z</time></trkpt><trkpt lat="44.2649571" lon="9.4316462"><ele>39.6</ele><time>2026-04-29T12:41:46.792Z</time></trkpt><trkpt lat="44.2649162" lon="9.4315031"><ele>39.4</ele><time>2026-04-29T12:41:47.792Z</time></trkpt><trkpt lat="44.264903" lon="9.4313609"><ele>39.2</ele><time>2026-04-29T12:41:48.792Z</time></trkpt><trkpt lat="44.2649273" lon="9.4312278"><ele>39.0</ele><time>2026-04-29T12:41:49.792Z</time></trkpt><trkpt lat="44.2649726" lon="9.4311136"><ele>39.0</ele><time>2026-04-29T12:41:50.792Z</time></trkpt><trkpt lat="44.2650018" lon="9.4309935"><ele>39.0</ele><time>2026-04-29T12:41:51.792Z</time></trkpt><trkpt lat="44.264998" lon="9.4308686"><ele>39.0</ele><time>2026-04-29T12:41:52.792Z</time></trkpt><trkpt lat="44.2649498" lon="9.4307549"><ele>39.0</ele><time>2026-04-29T12:41:53.792Z</time></trkpt><trkpt lat="44.2648679" lon="9.4306644"><ele>39.0</ele><time>2026-04-29T12:41:54.791Z</time></trkpt><trkpt lat="44.2647657" lon="9.4305884"><ele>36.6</ele><time>2026-04-29T12:41:55.791Z</time></trkpt><trkpt lat="44.2646796" lon="9.4304998"><ele>34.2</ele><time>2026-04-29T12:41:56.792Z</time></trkpt><trkpt lat="44.2646282" lon="9.4303834"><ele>31.800000000000004</ele><time>2026-04-29T12:41:57.792Z</time></trkpt><trkpt lat="44.2646042" lon="9.4302655"><ele>29.400000000000002</ele><time>2026-04-29T12:41:58.792Z</time></trkpt><trkpt lat="44.2646088" lon="9.4301207"><ele>27.0</ele><time>2026-04-29T12:41:59.792Z</time></trkpt><trkpt lat="44.2646301" lon="9.4299918"><ele>27.0</ele><time>2026-04-29T12:42:00.792Z</time></trkpt><trkpt lat="44.2646625" lon="9.4298578"><ele>27.000000000000004</ele><time>2026-04-29T12:42:01.791Z</time></trkpt><trkpt lat="44.2647066" lon="9.4297248"><ele>27.000000000000004</ele><time>2026-04-29T12:42:02.792Z</time></trkpt><trkpt lat="44.264761" lon="9.4295845"><ele>27.0</ele><time>2026-04-29T12:42:03.792Z</time></trkpt><trkpt lat="44.2648371" lon="9.429461"><ele>27.0</ele><time>2026-04-29T12:42:04.792Z</time></trkpt><trkpt lat="44.2649304" lon="9.429348"><ele>27.0</ele><time>2026-04-29T12:42:05.792Z</time></trkpt><trkpt lat="44.265033" lon="9.4292302"><ele>27.0</ele><time>2026-04-29T12:42:06.792Z</time></trkpt><trkpt lat="44.2651219" lon="9.4291068"><ele>27.0</ele><time>2026-04-29T12:42:07.791Z</time></trkpt><trkpt lat="44.2652073" lon="9.4289636"><ele>27.0</ele><time>2026-04-29T12:42:08.792Z</time></trkpt><trkpt lat="44.2652925" lon="9.4287977"><ele>25.25</ele><time>2026-04-29T12:42:09.791Z</time></trkpt><trkpt lat="44.2653715" lon="9.4286272"><ele>23.5</ele><time>2026-04-29T12:42:10.792Z</time></trkpt><trkpt lat="44.2654498" lon="9.4284651"><ele>21.75</ele><time>2026-04-29T12:42:11.792Z</time></trkpt><trkpt lat="44.2655283" lon="9.4283089"><ele>20.0</ele><time>2026-04-29T12:42:12.792Z</time></trkpt><trkpt lat="44.265601" lon="9.4281556"><ele>19.75</ele><time>2026-04-29T12:42:13.792Z</time></trkpt><trkpt lat="44.2656716" lon="9.4280082"><ele>19.5</ele><time>2026-04-29T12:42:14.792Z</time></trkpt><trkpt lat="44.265737" lon="9.4278635"><ele>19.25</ele><time>2026-04-29T12:42:15.792Z</time></trkpt><trkpt lat="44.2658016" lon="9.4277246"><ele>19.0</ele><time>2026-04-29T12:42:16.792Z</time></trkpt><trkpt lat="44.2658664" lon="9.4275913"><ele>19.0</ele><time>2026-04-29T12:42:17.792Z</time></trkpt><trkpt lat="44.2659313" lon="9.4274613"><ele>19.0</ele><time>2026-04-29T12:42:18.792Z</time></trkpt><trkpt lat="44.2659949" lon="9.4273311"><ele>19.0</ele><time>2026-04-29T12:42:19.792Z</time></trkpt><trkpt lat="44.2660576" lon="9.4272009"><ele>19.0</ele><time>2026-04-29T12:42:20.792Z</time></trkpt><trkpt lat="44.2661185" lon="9.4270717"><ele>19.0</ele><time>2026-04-29T12:42:21.792Z</time></trkpt><trkpt lat="44.2661795" lon="9.4269436"><ele>18.0</ele><time>2026-04-29T12:42:22.791Z</time></trkpt><trkpt lat="44.2662415" lon="9.4268131"><ele>17.0</ele><time>2026-04-29T12:42:23.792Z</time></trkpt><trkpt lat="44.2663075" lon="9.4266672"><ele>16.0</ele><time>2026-04-29T12:42:24.792Z</time></trkpt><trkpt lat="44.2663765" lon="9.4265113"><ele>15.0</ele><time>2026-04-29T12:42:25.792Z</time></trkpt><trkpt lat="44.2664482" lon="9.4263547"><ele>14.0</ele><time>2026-04-29T12:42:26.792Z</time></trkpt><trkpt lat="44.2665146" lon="9.4262128"><ele>13.0</ele><time>2026-04-29T12:42:27.791Z</time></trkpt><trkpt lat="44.2665777" lon="9.4260767"><ele>12.0</ele><time>2026-04-29T12:42:28.792Z</time></trkpt><trkpt lat="44.2666352" lon="9.4259546"><ele>11.0</ele><time>2026-04-29T12:42:29.792Z</time></trkpt><trkpt lat="44.2666821" lon="9.4258498"><ele>10.0</ele><time>2026-04-29T12:42:30.792Z</time></trkpt><trkpt lat="44.2667231" lon="9.4257618"><ele>10.0</ele><time>2026-04-29T12:42:31.792Z</time></trkpt><trkpt lat="44.2667885" lon="9.4256266"><ele>10.0</ele><time>2026-04-29T12:42:33.792Z</time></trkpt><trkpt lat="44.2668372" lon="9.4255239"><ele>10.0</ele><time>2026-04-29T12:42:35.792Z</time></trkpt><trkpt lat="44.2668873" lon="9.4254126"><ele>10.0</ele><time>2026-04-29T12:42:38.792Z</time></trkpt><trkpt lat="44.2669266" lon="9.4253037"><ele>10.0</ele><time>2026-04-29T12:42:40.792Z</time></trkpt><trkpt lat="44.2669143" lon="9.4251931"><ele>10.4</ele><time>2026-04-29T12:42:42.792Z</time></trkpt><trkpt lat="44.2668451" lon="9.4251456"><ele>10.8</ele><time>2026-04-29T12:42:44.792Z</time></trkpt><trkpt lat="44.2667434" lon="9.4251366"><ele>11.2</ele><time>2026-04-29T12:42:47.792Z</time></trkpt><trkpt lat="44.2666677" lon="9.4250558"><ele>11.6</ele><time>2026-04-29T12:42:49.792Z</time></trkpt><trkpt lat="44.2666567" lon="9.4248787"><ele>12.0</ele><time>2026-04-29T12:42:51.792Z</time></trkpt><trkpt lat="44.2666649" lon="9.4247633"><ele>11.75</ele><time>2026-04-29T12:42:52.792Z</time></trkpt><trkpt lat="44.2666809" lon="9.4246234"><ele>11.5</ele><time>2026-04-29T12:42:53.792Z</time></trkpt><trkpt lat="44.2667031" lon="9.4244544"><ele>11.25</ele><time>2026-04-29T12:42:54.792Z</time></trkpt><trkpt lat="44.2667391" lon="9.4242613"><ele>11.0</ele><time>2026-04-29T12:42:55.792Z</time></trkpt><trkpt lat="44.2667756" lon="9.4240843"><ele>11.0</ele><time>2026-04-29T12:42:56.792Z</time></trkpt><trkpt lat="44.2668134" lon="9.4239147"><ele>11.0</ele><time>2026-04-29T12:42:57.792Z</time></trkpt><trkpt lat="44.2668585" lon="9.4237383"><ele>11.0</ele><time>2026-04-29T12:42:58.792Z</time></trkpt><trkpt lat="44.2669094" lon="9.4235806"><ele>11.0</ele><time>2026-04-29T12:42:59.792Z</time></trkpt><trkpt lat="44.2669692" lon="9.4234369"><ele>11.0</ele><time>2026-04-29T12:43:00.791Z</time></trkpt><trkpt lat="44.2670393" lon="9.423296"><ele>11.0</ele><time>2026-04-29T12:43:01.792Z</time></trkpt><trkpt lat="44.2671177" lon="9.4231597"><ele>11.0</ele><time>2026-04-29T12:43:02.792Z</time></trkpt><trkpt lat="44.2671984" lon="9.4230244"><ele>11.0</ele><time>2026-04-29T12:43:03.791Z</time></trkpt><trkpt lat="44.2672787" lon="9.4228836"><ele>10.75</ele><time>2026-04-29T12:43:04.791Z</time></trkpt><trkpt lat="44.2673585" lon="9.4227457"><ele>10.5</ele><time>2026-04-29T12:43:05.792Z</time></trkpt><trkpt lat="44.2674353" lon="9.422601"><ele>10.25</ele><time>2026-04-29T12:43:06.792Z</time></trkpt><trkpt lat="44.2675027" lon="9.4224456"><ele>10.0</ele><time>2026-04-29T12:43:07.792Z</time></trkpt><trkpt lat="44.2675584" lon="9.4222788"><ele>9.75</ele><time>2026-04-29T12:43:08.792Z</time></trkpt><trkpt lat="44.2676063" lon="9.4221028"><ele>9.5</ele><time>2026-04-29T12:43:09.792Z</time></trkpt><trkpt lat="44.267649" lon="9.4219213"><ele>9.25</ele><time>2026-04-29T12:43:10.792Z</time></trkpt><trkpt lat="44.2676886" lon="9.4217367"><ele>9.0</ele><time>2026-04-29T12:43:11.792Z</time></trkpt><trkpt lat="44.2677268" lon="9.4215512"><ele>9.0</ele><time>2026-04-29T12:43:12.792Z</time></trkpt><trkpt lat="44.2677633" lon="9.421368"><ele>9.0</ele><time>2026-04-29T12:43:13.791Z</time></trkpt><trkpt lat="44.267796" lon="9.4211887"><ele>9.0</ele><time>2026-04-29T12:43:14.792Z</time></trkpt><trkpt lat="44.2678274" lon="9.4210233"><ele>9.0</ele><time>2026-04-29T12:43:15.791Z</time></trkpt><trkpt lat="44.2678594" lon="9.4208559"><ele>8.75</ele><time>2026-04-29T12:43:16.792Z</time></trkpt><trkpt lat="44.267891" lon="9.4206899"><ele>8.5</ele><time>2026-04-29T12:43:17.791Z</time></trkpt><trkpt lat="44.2679207" lon="9.4205258"><ele>8.25</ele><time>2026-04-29T12:43:18.792Z</time></trkpt><trkpt lat="44.2679501" lon="9.4203605"><ele>8.0</ele><time>2026-04-29T12:43:19.792Z</time></trkpt><trkpt lat="44.267981" lon="9.4201922"><ele>8.25</ele><time>2026-04-29T12:43:20.792Z</time></trkpt><trkpt lat="44.2680127" lon="9.4200153"><ele>8.5</ele><time>2026-04-29T12:43:21.792Z</time></trkpt><trkpt lat="44.2680466" lon="9.4198332"><ele>8.75</ele><time>2026-04-29T12:43:22.792Z</time></trkpt><trkpt lat="44.2680809" lon="9.4196439"><ele>9.0</ele><time>2026-04-29T12:43:23.791Z</time></trkpt><trkpt lat="44.2681182" lon="9.4194465"><ele>9.0</ele><time>2026-04-29T12:43:24.791Z</time></trkpt><trkpt lat="44.2681523" lon="9.4192614"><ele>9.0</ele><time>2026-04-29T12:43:25.791Z</time></trkpt><trkpt lat="44.2681882" lon="9.4190787"><ele>9.0</ele><time>2026-04-29T12:43:26.792Z</time></trkpt><trkpt lat="44.2682233" lon="9.4188918"><ele>9.0</ele><time>2026-04-29T12:43:27.791Z</time></trkpt><trkpt lat="44.2682581" lon="9.418702"><ele>8.75</ele><time>2026-04-29T12:43:28.792Z</time></trkpt><trkpt lat="44.2682923" lon="9.4185114"><ele>8.5</ele><time>2026-04-29T12:43:29.792Z</time></trkpt><trkpt lat="44.2683277" lon="9.4183207"><ele>8.25</ele><time>2026-04-29T12:43:30.792Z</time></trkpt><trkpt lat="44.2683602" lon="9.4181363"><ele>8.0</ele><time>2026-04-29T12:43:31.792Z</time></trkpt><trkpt lat="44.2683922" lon="9.4179656"><ele>8.0</ele><time>2026-04-29T12:43:32.792Z</time></trkpt><trkpt lat="44.2684244" lon="9.4178024"><ele>8.0</ele><time>2026-04-29T12:43:33.792Z</time></trkpt><trkpt lat="44.2684549" lon="9.4176465"><ele>8.0</ele><time>2026-04-29T12:43:34.792Z</time></trkpt><trkpt lat="44.2684857" lon="9.4175025"><ele>8.0</ele><time>2026-04-29T12:43:35.792Z</time></trkpt><trkpt lat="44.2685153" lon="9.4173691"><ele>8.0</ele><time>2026-04-29T12:43:36.791Z</time></trkpt><trkpt lat="44.2685367" lon="9.4172499"><ele>8.166666666666666</ele><time>2026-04-29T12:43:37.792Z</time></trkpt><trkpt lat="44.2685555" lon="9.41714"><ele>8.333333333333332</ele><time>2026-04-29T12:43:38.792Z</time></trkpt><trkpt lat="44.2685728" lon="9.4170369"><ele>8.5</ele><time>2026-04-29T12:43:39.792Z</time></trkpt><trkpt lat="44.2685907" lon="9.4169306"><ele>8.666666666666666</ele><time>2026-04-29T12:43:40.792Z</time></trkpt><trkpt lat="44.2686121" lon="9.4168198"><ele>8.833333333333334</ele><time>2026-04-29T12:43:41.792Z</time></trkpt><trkpt lat="44.2686337" lon="9.4167052"><ele>9.0</ele><time>2026-04-29T12:43:42.792Z</time></trkpt><trkpt lat="44.2686553" lon="9.4165856"><ele>9.000000000000002</ele><time>2026-04-29T12:43:43.792Z</time></trkpt><trkpt lat="44.2686768" lon="9.4164766"><ele>9.0</ele><time>2026-04-29T12:43:44.792Z</time></trkpt><trkpt lat="44.2686995" lon="9.4163777"><ele>9.0</ele><time>2026-04-29T12:43:45.792Z</time></trkpt><trkpt lat="44.2687309" lon="9.4162924"><ele>9.0</ele><time>2026-04-29T12:43:46.792Z</time></trkpt><trkpt lat="44.2687705" lon="9.4162193"><ele>9.0</ele><time>2026-04-29T12:43:47.792Z</time></trkpt><trkpt lat="44.2688182" lon="9.4161602"><ele>9.000000000000002</ele><time>2026-04-29T12:43:48.792Z</time></trkpt><trkpt lat="44.268871" lon="9.4161094"><ele>9.0</ele><time>2026-04-29T12:43:49.792Z</time></trkpt><trkpt lat="44.268916" lon="9.415973"><ele>8.8</ele><time>2026-04-29T12:43:51.792Z</time></trkpt><trkpt lat="44.2688746" lon="9.4157893"><ele>8.600000000000001</ele><time>2026-04-29T12:43:53.792Z</time></trkpt><trkpt lat="44.2688556" lon="9.4156618"><ele>8.4</ele><time>2026-04-29T12:43:54.792Z</time></trkpt><trkpt lat="44.268853" lon="9.4155213"><ele>8.200000000000001</ele><time>2026-04-29T12:43:55.792Z</time></trkpt><trkpt lat="44.2688682" lon="9.4153644"><ele>8.0</ele><time>2026-04-29T12:43:56.792Z</time></trkpt><trkpt lat="44.2689008" lon="9.4152018"><ele>8.0</ele><time>2026-04-29T12:43:57.792Z</time></trkpt><trkpt lat="44.2689516" lon="9.4150371"><ele>8.0</ele><time>2026-04-29T12:43:58.792Z</time></trkpt><trkpt lat="44.2690106" lon="9.4148746"><ele>8.0</ele><time>2026-04-29T12:43:59.791Z</time></trkpt><trkpt lat="44.2690705" lon="9.4147285"><ele>8.0</ele><time>2026-04-29T12:44:00.792Z</time></trkpt><trkpt lat="44.2691312" lon="9.414577"><ele>8.200000000000001</ele><time>2026-04-29T12:44:01.792Z</time></trkpt><trkpt lat="44.2691886" lon="9.4144253"><ele>8.4</ele><time>2026-04-29T12:44:02.791Z</time></trkpt><trkpt lat="44.2692442" lon="9.4142884"><ele>8.600000000000001</ele><time>2026-04-29T12:44:03.792Z</time></trkpt><trkpt lat="44.2692969" lon="9.4141573"><ele>8.8</ele><time>2026-04-29T12:44:04.791Z</time></trkpt><trkpt lat="44.2693464" lon="9.4140315"><ele>9.0</ele><time>2026-04-29T12:44:05.792Z</time></trkpt><trkpt lat="44.2693914" lon="9.4139123"><ele>9.2</ele><time>2026-04-29T12:44:06.791Z</time></trkpt><trkpt lat="44.2694344" lon="9.4138002"><ele>9.4</ele><time>2026-04-29T12:44:07.792Z</time></trkpt><trkpt lat="44.2694779" lon="9.4136802"><ele>9.6</ele><time>2026-04-29T12:44:08.792Z</time></trkpt><trkpt lat="44.2695253" lon="9.4135525"><ele>9.8</ele><time>2026-04-29T12:44:09.791Z</time></trkpt><trkpt lat="44.2695717" lon="9.4134166"><ele>10.0</ele><time>2026-04-29T12:44:10.792Z</time></trkpt><trkpt lat="44.269616" lon="9.4132754"><ele>10.0</ele><time>2026-04-29T12:44:11.792Z</time></trkpt><trkpt lat="44.2696606" lon="9.4131387"><ele>10.0</ele><time>2026-04-29T12:44:12.792Z</time></trkpt><trkpt lat="44.2697036" lon="9.4129997"><ele>10.0</ele><time>2026-04-29T12:44:13.792Z</time></trkpt><trkpt lat="44.2697467" lon="9.412855"><ele>10.0</ele><time>2026-04-29T12:44:14.792Z</time></trkpt><trkpt lat="44.269792" lon="9.41271"><ele>10.0</ele><time>2026-04-29T12:44:15.792Z</time></trkpt><trkpt lat="44.2698349" lon="9.4125674"><ele>9.6</ele><time>2026-04-29T12:44:16.792Z</time></trkpt><trkpt lat="44.2698763" lon="9.41243"><ele>9.2</ele><time>2026-04-29T12:44:17.792Z</time></trkpt><trkpt lat="44.2699108" lon="9.4123127"><ele>8.8</ele><time>2026-04-29T12:44:18.792Z</time></trkpt><trkpt lat="44.2699415" lon="9.4122107"><ele>8.4</ele><time>2026-04-29T12:44:19.792Z</time></trkpt><trkpt lat="44.2699667" lon="9.4121199"><ele>8.0</ele><time>2026-04-29T12:44:20.791Z</time></trkpt><trkpt lat="44.2700087" lon="9.4119733"><ele>7.6000000000000005</ele><time>2026-04-29T12:44:22.792Z</time></trkpt><trkpt lat="44.2700365" lon="9.4118787"><ele>7.200000000000001</ele><time>2026-04-29T12:44:24.791Z</time></trkpt><trkpt lat="44.2700608" lon="9.4117936"><ele>6.8</ele><time>2026-04-29T12:44:58.792Z</time></trkpt><trkpt lat="44.2701021" lon="9.4116546"><ele>6.4</ele><time>2026-04-29T12:45:00.792Z</time></trkpt><trkpt lat="44.2701375" lon="9.4115282"><ele>6.0</ele><time>2026-04-29T12:45:02.792Z</time></trkpt><trkpt lat="44.2701904" lon="9.4113829"><ele>7.0</ele><time>2026-04-29T12:45:04.792Z</time></trkpt><trkpt lat="44.2702409" lon="9.4112277"><ele>8.0</ele><time>2026-04-29T12:45:06.792Z</time></trkpt><trkpt lat="44.2702686" lon="9.4111471"><ele>9.0</ele><time>2026-04-29T12:45:07.792Z</time></trkpt><trkpt lat="44.2702959" lon="9.4110597"><ele>10.0</ele><time>2026-04-29T12:45:08.792Z</time></trkpt><trkpt lat="44.2703179" lon="9.4109743"><ele>11.0</ele><time>2026-04-29T12:45:09.792Z</time></trkpt><trkpt lat="44.2703557" lon="9.4108103"><ele>12.0</ele><time>2026-04-29T12:45:11.791Z</time></trkpt><trkpt lat="44.2703736" lon="9.4107241"><ele>12.0</ele><time>2026-04-29T12:45:12.792Z</time></trkpt><trkpt lat="44.2703901" lon="9.4106296"><ele>12.0</ele><time>2026-04-29T12:45:13.792Z</time></trkpt><trkpt lat="44.2704093" lon="9.4105253"><ele>12.0</ele><time>2026-04-29T12:45:14.792Z</time></trkpt><trkpt lat="44.2704278" lon="9.4104057"><ele>12.0</ele><time>2026-04-29T12:45:15.792Z</time></trkpt><trkpt lat="44.2704483" lon="9.4102711"><ele>12.0</ele><time>2026-04-29T12:45:16.792Z</time></trkpt><trkpt lat="44.2704701" lon="9.410127"><ele>12.0</ele><time>2026-04-29T12:45:17.792Z</time></trkpt><trkpt lat="44.2704918" lon="9.409992"><ele>13.0</ele><time>2026-04-29T12:45:18.792Z</time></trkpt><trkpt lat="44.2705083" lon="9.4098725"><ele>14.0</ele><time>2026-04-29T12:45:19.792Z</time></trkpt><trkpt lat="44.2705229" lon="9.4097684"><ele>15.0</ele><time>2026-04-29T12:45:20.792Z</time></trkpt><trkpt lat="44.2705337" lon="9.4096758"><ele>16.0</ele><time>2026-04-29T12:45:21.792Z</time></trkpt><trkpt lat="44.2705464" lon="9.4095894"><ele>17.0</ele><time>2026-04-29T12:45:22.792Z</time></trkpt><trkpt lat="44.2705609" lon="9.4095028"><ele>18.0</ele><time>2026-04-29T12:45:23.792Z</time></trkpt><trkpt lat="44.270595" lon="9.4093585"><ele>16.0</ele><time>2026-04-29T12:45:25.792Z</time></trkpt><trkpt lat="44.270642" lon="9.4092428"><ele>14.0</ele><time>2026-04-29T12:45:27.792Z</time></trkpt><trkpt lat="44.2706867" lon="9.4091796"><ele>12.0</ele><time>2026-04-29T12:45:28.792Z</time></trkpt><trkpt lat="44.2707448" lon="9.4091091"><ele>10.0</ele><time>2026-04-29T12:45:29.792Z</time></trkpt><trkpt lat="44.2707994" lon="9.4090193"><ele>8.0</ele><time>2026-04-29T12:45:30.792Z</time></trkpt><trkpt lat="44.2708441" lon="9.40891"><ele>6.0</ele><time>2026-04-29T12:45:31.792Z</time></trkpt><trkpt lat="44.2708938" lon="9.4088048"><ele>6.0</ele><time>2026-04-29T12:45:32.792Z</time></trkpt><trkpt lat="44.2709491" lon="9.4087124"><ele>6.0</ele><time>2026-04-29T12:45:33.791Z</time></trkpt><trkpt lat="44.2710042" lon="9.4086335"><ele>6.0</ele><time>2026-04-29T12:45:34.792Z</time></trkpt><trkpt lat="44.2710568" lon="9.4085668"><ele>6.0</ele><time>2026-04-29T12:45:35.792Z</time></trkpt><trkpt lat="44.2711107" lon="9.4084996"><ele>6.0</ele><time>2026-04-29T12:45:36.792Z</time></trkpt><trkpt lat="44.2711672" lon="9.4084179"><ele>6.0</ele><time>2026-04-29T12:45:37.792Z</time></trkpt><trkpt lat="44.2712351" lon="9.4083249"><ele>6.0</ele><time>2026-04-29T12:45:38.792Z</time></trkpt><trkpt lat="44.2713198" lon="9.4082135"><ele>6.0</ele><time>2026-04-29T12:45:39.791Z</time></trkpt><trkpt lat="44.2714176" lon="9.4080944"><ele>6.0</ele><time>2026-04-29T12:45:40.792Z</time></trkpt><trkpt lat="44.2715208" lon="9.4079735"><ele>6.0</ele><time>2026-04-29T12:45:41.792Z</time></trkpt><trkpt lat="44.2716075" lon="9.4078512"><ele>6.75</ele><time>2026-04-29T12:45:42.792Z</time></trkpt><trkpt lat="44.2716799" lon="9.407718"><ele>7.5</ele><time>2026-04-29T12:45:43.792Z</time></trkpt><trkpt lat="44.2717527" lon="9.4075761"><ele>8.25</ele><time>2026-04-29T12:45:44.792Z</time></trkpt><trkpt lat="44.2718232" lon="9.40743"><ele>9.0</ele><time>2026-04-29T12:45:45.792Z</time></trkpt><trkpt lat="44.2718918" lon="9.4072828"><ele>9.0</ele><time>2026-04-29T12:45:46.792Z</time></trkpt><trkpt lat="44.2719603" lon="9.4071343"><ele>9.0</ele><time>2026-04-29T12:45:47.792Z</time></trkpt><trkpt lat="44.2720306" lon="9.4069833"><ele>9.0</ele><time>2026-04-29T12:45:48.791Z</time></trkpt><trkpt lat="44.2721023" lon="9.4068314"><ele>9.0</ele><time>2026-04-29T12:45:49.792Z</time></trkpt><trkpt lat="44.2721792" lon="9.4066689"><ele>9.0</ele><time>2026-04-29T12:45:50.792Z</time></trkpt><trkpt lat="44.2722596" lon="9.4064977"><ele>9.0</ele><time>2026-04-29T12:45:51.792Z</time></trkpt><trkpt lat="44.2723434" lon="9.406316"><ele>9.0</ele><time>2026-04-29T12:45:52.792Z</time></trkpt><trkpt lat="44.2724293" lon="9.406131"><ele>9.0</ele><time>2026-04-29T12:45:53.792Z</time></trkpt><trkpt lat="44.2725137" lon="9.4059466"><ele>9.0</ele><time>2026-04-29T12:45:54.792Z</time></trkpt><trkpt lat="44.2725931" lon="9.4057745"><ele>9.0</ele><time>2026-04-29T12:45:55.792Z</time></trkpt><trkpt lat="44.2726691" lon="9.4056067"><ele>9.0</ele><time>2026-04-29T12:45:56.792Z</time></trkpt><trkpt lat="44.2727434" lon="9.40544"><ele>8.0</ele><time>2026-04-29T12:45:57.792Z</time></trkpt><trkpt lat="44.2728154" lon="9.4052813"><ele>7.0</ele><time>2026-04-29T12:45:58.792Z</time></trkpt><trkpt lat="44.2728777" lon="9.4051361"><ele>6.0</ele><time>2026-04-29T12:45:59.792Z</time></trkpt><trkpt lat="44.2729267" lon="9.4050048"><ele>5.0</ele><time>2026-04-29T12:46:00.792Z</time></trkpt><trkpt lat="44.2729616" lon="9.4048739"><ele>5.0</ele><time>2026-04-29T12:46:01.792Z</time></trkpt><trkpt lat="44.2729811" lon="9.4047256"><ele>5.0</ele><time>2026-04-29T12:46:02.792Z</time></trkpt><trkpt lat="44.2729932" lon="9.4045528"><ele>5.0</ele><time>2026-04-29T12:46:03.791Z</time></trkpt><trkpt lat="44.2729944" lon="9.4043787"><ele>5.0</ele><time>2026-04-29T12:46:04.791Z</time></trkpt><trkpt lat="44.2729817" lon="9.4042215"><ele>5.0</ele><time>2026-04-29T12:46:05.792Z</time></trkpt><trkpt lat="44.2729615" lon="9.4040802"><ele>5.0</ele><time>2026-04-29T12:46:06.792Z</time></trkpt><trkpt lat="44.2729431" lon="9.4039516"><ele>5.0</ele><time>2026-04-29T12:46:07.792Z</time></trkpt><trkpt lat="44.2729239" lon="9.4038339"><ele>5.0</ele><time>2026-04-29T12:46:08.791Z</time></trkpt><trkpt lat="44.2729103" lon="9.4037255"><ele>5.0</ele><time>2026-04-29T12:46:09.792Z</time></trkpt><trkpt lat="44.2729097" lon="9.4036259"><ele>5.0</ele><time>2026-04-29T12:46:10.792Z</time></trkpt><trkpt lat="44.2728658" lon="9.4034793"><ele>5.0</ele><time>2026-04-29T12:46:12.792Z</time></trkpt><trkpt lat="44.2727654" lon="9.4034302"><ele>5.0</ele><time>2026-04-29T12:46:14.792Z</time></trkpt><trkpt lat="44.2726955" lon="9.4034338"><ele>5.0</ele><time>2026-04-29T12:46:15.792Z</time></trkpt><trkpt lat="44.2726053" lon="9.4034479"><ele>5.0</ele><time>2026-04-29T12:46:16.791Z</time></trkpt><trkpt lat="44.2725021" lon="9.4034695"><ele>5.0</ele><time>2026-04-29T12:46:17.792Z</time></trkpt><trkpt lat="44.2723874" lon="9.4035068"><ele>4.8</ele><time>2026-04-29T12:46:18.792Z</time></trkpt><trkpt lat="44.2722688" lon="9.4035448"><ele>4.6</ele><time>2026-04-29T12:46:19.792Z</time></trkpt><trkpt lat="44.2721564" lon="9.4035757"><ele>4.4</ele><time>2026-04-29T12:46:20.791Z</time></trkpt><trkpt lat="44.2720491" lon="9.4035916"><ele>4.2</ele><time>2026-04-29T12:46:21.792Z</time></trkpt><trkpt lat="44.2719516" lon="9.4035835"><ele>4.0</ele><time>2026-04-29T12:46:22.792Z</time></trkpt><trkpt lat="44.2718623" lon="9.4035494"><ele>3.9999999999999996</ele><time>2026-04-29T12:46:23.791Z</time></trkpt><trkpt lat="44.2717879" lon="9.4035006"><ele>4.0</ele><time>2026-04-29T12:46:24.792Z</time></trkpt><trkpt lat="44.271726" lon="9.4034439"><ele>4.0</ele><time>2026-04-29T12:46:25.792Z</time></trkpt><trkpt lat="44.2716718" lon="9.4033752"><ele>4.0</ele><time>2026-04-29T12:46:26.791Z</time></trkpt><trkpt lat="44.2716268" lon="9.403287"><ele>3.9999999999999996</ele><time>2026-04-29T12:46:27.792Z</time></trkpt><trkpt lat="44.2715927" lon="9.4031842"><ele>4.0</ele><time>2026-04-29T12:46:28.792Z</time></trkpt><trkpt lat="44.2715681" lon="9.4030706"><ele>4.5</ele><time>2026-04-29T12:46:29.791Z</time></trkpt><trkpt lat="44.2715564" lon="9.4029618"><ele>5.0</ele><time>2026-04-29T12:46:30.792Z</time></trkpt><trkpt lat="44.2715634" lon="9.4028583"><ele>5.5</ele><time>2026-04-29T12:46:31.792Z</time></trkpt><trkpt lat="44.2715816" lon="9.4027486"><ele>6.0</ele><time>2026-04-29T12:46:32.792Z</time></trkpt><trkpt lat="44.271596" lon="9.402639"><ele>6.500000000000001</ele><time>2026-04-29T12:46:33.792Z</time></trkpt><trkpt lat="44.2716122" lon="9.4025236"><ele>7.0</ele><time>2026-04-29T12:46:34.792Z</time></trkpt><trkpt lat="44.2716257" lon="9.4024048"><ele>7.000000000000001</ele><time>2026-04-29T12:46:35.792Z</time></trkpt><trkpt lat="44.2716399" lon="9.4022822"><ele>7.0</ele><time>2026-04-29T12:46:36.791Z</time></trkpt><trkpt lat="44.2716548" lon="9.4021586"><ele>7.0</ele><time>2026-04-29T12:46:37.792Z</time></trkpt><trkpt lat="44.2716714" lon="9.4020425"><ele>7.0</ele><time>2026-04-29T12:46:38.792Z</time></trkpt><trkpt lat="44.2716867" lon="9.4019327"><ele>7.000000000000001</ele><time>2026-04-29T12:46:39.792Z</time></trkpt><trkpt lat="44.2717012" lon="9.4018278"><ele>7.0</ele><time>2026-04-29T12:46:40.791Z</time></trkpt><trkpt lat="44.2717169" lon="9.4017187"><ele>6.833333333333334</ele><time>2026-04-29T12:46:41.791Z</time></trkpt><trkpt lat="44.2717309" lon="9.4016145"><ele>6.666666666666667</ele><time>2026-04-29T12:46:42.792Z</time></trkpt><trkpt lat="44.2717431" lon="9.4015268"><ele>6.5</ele><time>2026-04-29T12:46:43.792Z</time></trkpt><trkpt lat="44.2717668" lon="9.4013994"><ele>6.333333333333334</ele><time>2026-04-29T12:46:45.792Z</time></trkpt><trkpt lat="44.2717828" lon="9.401307"><ele>6.166666666666667</ele><time>2026-04-29T12:46:47.791Z</time></trkpt><trkpt lat="44.2718034" lon="9.4011856"><ele>6.0</ele><time>2026-04-29T12:46:49.792Z</time></trkpt><trkpt lat="44.271826" lon="9.4010303"><ele>5.857142857142857</ele><time>2026-04-29T12:46:51.792Z</time></trkpt><trkpt lat="44.2718382" lon="9.4009353"><ele>5.714285714285714</ele><time>2026-04-29T12:46:52.792Z</time></trkpt><trkpt lat="44.2718526" lon="9.4008293"><ele>5.571428571428571</ele><time>2026-04-29T12:46:53.792Z</time></trkpt><trkpt lat="44.2718697" lon="9.4007209"><ele>5.428571428571429</ele><time>2026-04-29T12:46:54.792Z</time></trkpt><trkpt lat="44.2718866" lon="9.4006179"><ele>5.285714285714286</ele><time>2026-04-29T12:46:55.792Z</time></trkpt><trkpt lat="44.2719034" lon="9.4005153"><ele>5.142857142857142</ele><time>2026-04-29T12:46:56.791Z</time></trkpt><trkpt lat="44.2719142" lon="9.4004164"><ele>5.0</ele><time>2026-04-29T12:46:57.792Z</time></trkpt><trkpt lat="44.2719333" lon="9.4002669"><ele>5.4</ele><time>2026-04-29T12:46:59.792Z</time></trkpt><trkpt lat="44.2719476" lon="9.400126"><ele>5.8</ele><time>2026-04-29T12:47:01.792Z</time></trkpt><trkpt lat="44.2719731" lon="9.3999528"><ele>6.199999999999999</ele><time>2026-04-29T12:47:03.792Z</time></trkpt><trkpt lat="44.2719894" lon="9.3998524"><ele>6.6</ele><time>2026-04-29T12:47:04.792Z</time></trkpt><trkpt lat="44.2720078" lon="9.3997468"><ele>7.0</ele><time>2026-04-29T12:47:05.792Z</time></trkpt><trkpt lat="44.2720248" lon="9.399643"><ele>7.8</ele><time>2026-04-29T12:47:06.792Z</time></trkpt><trkpt lat="44.2720443" lon="9.3995473"><ele>8.6</ele><time>2026-04-29T12:47:07.792Z</time></trkpt><trkpt lat="44.2720639" lon="9.3994567"><ele>9.4</ele><time>2026-04-29T12:47:08.792Z</time></trkpt><trkpt lat="44.2721014" lon="9.3992937"><ele>10.200000000000001</ele><time>2026-04-29T12:47:10.792Z</time></trkpt><trkpt lat="44.2721393" lon="9.3991331"><ele>11.0</ele><time>2026-04-29T12:47:12.792Z</time></trkpt><trkpt lat="44.27218" lon="9.398973"><ele>10.4</ele><time>2026-04-29T12:47:14.792Z</time></trkpt><trkpt lat="44.2722224" lon="9.3988165"><ele>9.8</ele><time>2026-04-29T12:47:16.792Z</time></trkpt><trkpt lat="44.2722516" lon="9.398681"><ele>9.200000000000001</ele><time>2026-04-29T12:47:18.792Z</time></trkpt><trkpt lat="44.2722888" lon="9.398562"><ele>8.600000000000001</ele><time>2026-04-29T12:47:21.792Z</time></trkpt><trkpt lat="44.2723225" lon="9.3984588"><ele>8.0</ele><time>2026-04-29T12:47:23.792Z</time></trkpt><trkpt lat="44.2723727" lon="9.3982936"><ele>8.0</ele><time>2026-04-29T12:47:25.791Z</time></trkpt><trkpt lat="44.272409" lon="9.3981884"><ele>8.0</ele><time>2026-04-29T12:47:26.792Z</time></trkpt><trkpt lat="44.2724532" lon="9.398071"><ele>8.0</ele><time>2026-04-29T12:47:27.792Z</time></trkpt><trkpt lat="44.2724984" lon="9.397946"><ele>8.0</ele><time>2026-04-29T12:47:28.792Z</time></trkpt><trkpt lat="44.272549" lon="9.3978207"><ele>8.0</ele><time>2026-04-29T12:47:29.792Z</time></trkpt><trkpt lat="44.2726011" lon="9.3976969"><ele>7.999999999999999</ele><time>2026-04-29T12:47:30.792Z</time></trkpt><trkpt lat="44.2726548" lon="9.3975865"><ele>8.0</ele><time>2026-04-29T12:47:31.792Z</time></trkpt><trkpt lat="44.2727107" lon="9.3974874"><ele>8.0</ele><time>2026-04-29T12:47:32.792Z</time></trkpt><trkpt lat="44.2727566" lon="9.3973983"><ele>8.0</ele><time>2026-04-29T12:47:33.791Z</time></trkpt><trkpt lat="44.2728142" lon="9.3973084"><ele>7.999999999999999</ele><time>2026-04-29T12:47:34.791Z</time></trkpt><trkpt lat="44.2728693" lon="9.3972183"><ele>8.0</ele><time>2026-04-29T12:47:35.792Z</time></trkpt><trkpt lat="44.2729235" lon="9.3971414"><ele>7.499999999999999</ele><time>2026-04-29T12:47:36.792Z</time></trkpt><trkpt lat="44.2729901" lon="9.3970925"><ele>7.0</ele><time>2026-04-29T12:47:37.792Z</time></trkpt><trkpt lat="44.2730529" lon="9.3970439"><ele>6.5</ele><time>2026-04-29T12:47:38.791Z</time></trkpt><trkpt lat="44.2731054" lon="9.3969856"><ele>6.0</ele><time>2026-04-29T12:47:39.792Z</time></trkpt><trkpt lat="44.2731164" lon="9.3968425"><ele>5.5</ele><time>2026-04-29T12:47:41.792Z</time></trkpt><trkpt lat="44.2730423" lon="9.3967138"><ele>5.0</ele><time>2026-04-29T12:47:43.791Z</time></trkpt><trkpt lat="44.273011" lon="9.3966341"><ele>5.0</ele><time>2026-04-29T12:47:44.792Z</time></trkpt><trkpt lat="44.2729911" lon="9.3965376"><ele>5.0</ele><time>2026-04-29T12:47:45.792Z</time></trkpt><trkpt lat="44.272975" lon="9.3964307"><ele>5.0</ele><time>2026-04-29T12:47:46.792Z</time></trkpt><trkpt lat="44.2729593" lon="9.3963364"><ele>5.0</ele><time>2026-04-29T12:47:47.792Z</time></trkpt><trkpt lat="44.2729481" lon="9.3962414"><ele>5.0</ele><time>2026-04-29T12:47:48.792Z</time></trkpt><trkpt lat="44.2729382" lon="9.3961537"><ele>5.0</ele><time>2026-04-29T12:47:49.792Z</time></trkpt><trkpt lat="44.2729131" lon="9.3959882"><ele>5.142857142857142</ele><time>2026-04-29T12:47:51.791Z</time></trkpt><trkpt lat="44.2729009" lon="9.3959013"><ele>5.285714285714286</ele><time>2026-04-29T12:47:52.792Z</time></trkpt><trkpt lat="44.2728876" lon="9.3958088"><ele>5.428571428571429</ele><time>2026-04-29T12:47:53.791Z</time></trkpt><trkpt lat="44.2728742" lon="9.395717"><ele>5.571428571428571</ele><time>2026-04-29T12:47:54.792Z</time></trkpt><trkpt lat="44.2728596" lon="9.3956289"><ele>5.714285714285714</ele><time>2026-04-29T12:47:55.792Z</time></trkpt><trkpt lat="44.2728433" lon="9.3955176"><ele>5.857142857142857</ele><time>2026-04-29T12:47:56.792Z</time></trkpt><trkpt lat="44.2728254" lon="9.3953907"><ele>6.0</ele><time>2026-04-29T12:47:57.791Z</time></trkpt><trkpt lat="44.2728081" lon="9.3952762"><ele>6.0</ele><time>2026-04-29T12:47:58.792Z</time></trkpt><trkpt lat="44.2727923" lon="9.3951682"><ele>6.0</ele><time>2026-04-29T12:47:59.791Z</time></trkpt><trkpt lat="44.2727765" lon="9.3950651"><ele>6.0</ele><time>2026-04-29T12:48:00.791Z</time></trkpt><trkpt lat="44.2727598" lon="9.3949599"><ele>6.0</ele><time>2026-04-29T12:48:01.792Z</time></trkpt><trkpt lat="44.2727431" lon="9.3948647"><ele>6.0</ele><time>2026-04-29T12:48:02.792Z</time></trkpt><trkpt lat="44.2727222" lon="9.3947089"><ele>6.0</ele><time>2026-04-29T12:48:04.792Z</time></trkpt><trkpt lat="44.2727073" lon="9.3946221"><ele>5.666666666666667</ele><time>2026-04-29T12:48:06.791Z</time></trkpt><trkpt lat="44.2726998" lon="9.3945027"><ele>5.333333333333333</ele><time>2026-04-29T12:48:19.792Z</time></trkpt><trkpt lat="44.2726815" lon="9.3943977"><ele>5.0</ele><time>2026-04-29T12:48:22.792Z</time></trkpt><trkpt lat="44.2726238" lon="9.3943428"><ele>4.666666666666666</ele><time>2026-04-29T12:48:24.791Z</time></trkpt><trkpt lat="44.2725115" lon="9.3943001"><ele>4.333333333333333</ele><time>2026-04-29T12:48:26.792Z</time></trkpt><trkpt lat="44.272442" lon="9.394289"><ele>4.0</ele><time>2026-04-29T12:48:27.792Z</time></trkpt><trkpt lat="44.2723637" lon="9.394276"><ele>3.9999999999999996</ele><time>2026-04-29T12:48:28.791Z</time></trkpt><trkpt lat="44.2722819" lon="9.3942603"><ele>4.0</ele><time>2026-04-29T12:48:29.792Z</time></trkpt><trkpt lat="44.2722044" lon="9.3942452"><ele>4.0</ele><time>2026-04-29T12:48:30.792Z</time></trkpt><trkpt lat="44.2721294" lon="9.3942267"><ele>4.0</ele><time>2026-04-29T12:48:31.792Z</time></trkpt><trkpt lat="44.2720532" lon="9.3942085"><ele>3.9999999999999996</ele><time>2026-04-29T12:48:32.791Z</time></trkpt><trkpt lat="44.2719795" lon="9.3941869"><ele>4.0</ele><time>2026-04-29T12:48:33.792Z</time></trkpt><trkpt lat="44.2719069" lon="9.3941588"><ele>4.166666666666666</ele><time>2026-04-29T12:48:34.792Z</time></trkpt><trkpt lat="44.271836" lon="9.3941273"><ele>4.333333333333333</ele><time>2026-04-29T12:48:35.791Z</time></trkpt><trkpt lat="44.2717667" lon="9.3940945"><ele>4.5</ele><time>2026-04-29T12:48:36.791Z</time></trkpt><trkpt lat="44.2717001" lon="9.3940639"><ele>4.666666666666667</ele><time>2026-04-29T12:48:37.792Z</time></trkpt><trkpt lat="44.2716403" lon="9.3940324"><ele>4.833333333333334</ele><time>2026-04-29T12:48:38.792Z</time></trkpt><trkpt lat="44.27155" lon="9.3939888"><ele>5.0</ele><time>2026-04-29T12:48:40.792Z</time></trkpt><trkpt lat="44.2714798" lon="9.3939588"><ele>5.0</ele><time>2026-04-29T12:48:42.792Z</time></trkpt><trkpt lat="44.2714067" lon="9.3939384"><ele>5.0</ele><time>2026-04-29T12:49:42.792Z</time></trkpt><trkpt lat="44.271335" lon="9.3939054"><ele>5.0</ele><time>2026-04-29T12:49:44.792Z</time></trkpt><trkpt lat="44.2712572" lon="9.3938645"><ele>5.0</ele><time>2026-04-29T12:49:46.791Z</time></trkpt><trkpt lat="44.2711926" lon="9.3938304"><ele>5.0</ele><time>2026-04-29T12:49:48.792Z</time></trkpt><trkpt lat="44.271137" lon="9.3937889"><ele>5.0</ele><time>2026-04-29T12:49:50.792Z</time></trkpt><trkpt lat="44.271075" lon="9.3937292"><ele>5.0</ele><time>2026-04-29T12:49:53.792Z</time></trkpt><trkpt lat="44.2710169" lon="9.3936689"><ele>5.0</ele><time>2026-04-29T12:49:57.791Z</time></trkpt><trkpt lat="44.2709626" lon="9.3935897"><ele>5.0</ele><time>2026-04-29T12:50:00.792Z</time></trkpt><trkpt lat="44.2709117" lon="9.3934895"><ele>5.0</ele><time>2026-04-29T12:50:03.792Z</time></trkpt><trkpt lat="44.2708638" lon="9.3933806"><ele>5.0</ele><time>2026-04-29T12:50:06.792Z</time></trkpt><trkpt lat="44.270812" lon="9.3932932"><ele>5.0</ele><time>2026-04-29T12:50:09.792Z</time></trkpt><trkpt lat="44.2707727" lon="9.3932075"><ele>5.0</ele><time>2026-04-29T12:50:18.792Z</time></trkpt><trkpt lat="44.2707266" lon="9.3931403"><ele>5.0</ele><time>2026-04-29T12:50:27.792Z</time></trkpt><trkpt lat="44.2706227" lon="9.393083"><ele>5.0</ele><time>2026-04-29T12:50:37.792Z</time></trkpt><trkpt lat="44.2705591" lon="9.3930222"><ele>9.0</ele><time>2026-04-29T12:50:40.792Z</time></trkpt></trkseg><trkseg><trkpt lat="44.2705223" lon="9.39308"><ele>9.0</ele><time>2026-04-29T14:23:13.789Z</time></trkpt><trkpt lat="44.2706059" lon="9.3931165"><ele>9.0</ele><time>2026-04-29T14:23:23.792Z</time></trkpt><trkpt lat="44.2706975" lon="9.3931625"><ele>9.0</ele><time>2026-04-29T14:23:25.787Z</time></trkpt><trkpt lat="44.2708017" lon="9.3932239"><ele>9.0</ele><time>2026-04-29T14:23:27.792Z</time></trkpt><trkpt lat="44.2708439" lon="9.3932996"><ele>9.0</ele><time>2026-04-29T14:23:28.79Z</time></trkpt><trkpt lat="44.2708805" lon="9.3933805"><ele>9.0</ele><time>2026-04-29T14:23:29.789Z</time></trkpt><trkpt lat="44.2709111" lon="9.3934638"><ele>9.0</ele><time>2026-04-29T14:23:30.79Z</time></trkpt><trkpt lat="44.2709659" lon="9.3936125"><ele>9.0</ele><time>2026-04-29T14:23:32.79Z</time></trkpt><trkpt lat="44.2710332" lon="9.393724"><ele>9.0</ele><time>2026-04-29T14:23:34.79Z</time></trkpt><trkpt lat="44.2711298" lon="9.3938139"><ele>9.0</ele><time>2026-04-29T14:23:36.791Z</time></trkpt><trkpt lat="44.2712439" lon="9.3938795"><ele>9.0</ele><time>2026-04-29T14:23:38.788Z</time></trkpt><trkpt lat="44.2713174" lon="9.3939155"><ele>9.0</ele><time>2026-04-29T14:23:39.791Z</time></trkpt><trkpt lat="44.2713951" lon="9.3939505"><ele>9.0</ele><time>2026-04-29T14:23:40.79Z</time></trkpt><trkpt lat="44.2714751" lon="9.3939866"><ele>9.0</ele><time>2026-04-29T14:23:41.791Z</time></trkpt><trkpt lat="44.2715488" lon="9.3940235"><ele>9.0</ele><time>2026-04-29T14:23:42.789Z</time></trkpt><trkpt lat="44.2716182" lon="9.3940605"><ele>9.0</ele><time>2026-04-29T14:23:43.789Z</time></trkpt><trkpt lat="44.2716883" lon="9.3940949"><ele>8.333333333333334</ele><time>2026-04-29T14:23:44.792Z</time></trkpt><trkpt lat="44.2717579" lon="9.3941307"><ele>7.666666666666667</ele><time>2026-04-29T14:23:45.788Z</time></trkpt><trkpt lat="44.2718221" lon="9.3941595"><ele>7.0</ele><time>2026-04-29T14:23:46.789Z</time></trkpt><trkpt lat="44.2718825" lon="9.394185"><ele>6.333333333333334</ele><time>2026-04-29T14:23:47.79Z</time></trkpt><trkpt lat="44.2719442" lon="9.3942083"><ele>5.666666666666667</ele><time>2026-04-29T14:23:48.789Z</time></trkpt><trkpt lat="44.2720632" lon="9.3942397"><ele>5.0</ele><time>2026-04-29T14:23:50.788Z</time></trkpt><trkpt lat="44.2721898" lon="9.3942634"><ele>5.0</ele><time>2026-04-29T14:23:52.79Z</time></trkpt><trkpt lat="44.2722594" lon="9.3942743"><ele>5.0</ele><time>2026-04-29T14:23:53.79Z</time></trkpt><trkpt lat="44.2723378" lon="9.3942874"><ele>5.0</ele><time>2026-04-29T14:23:54.791Z</time></trkpt><trkpt lat="44.2724071" lon="9.3942968"><ele>5.0</ele><time>2026-04-29T14:23:55.788Z</time></trkpt><trkpt lat="44.2725107" lon="9.3943315"><ele>5.0</ele><time>2026-04-29T14:23:57.789Z</time></trkpt><trkpt lat="44.2726091" lon="9.3944282"><ele>5.0</ele><time>2026-04-29T14:23:59.788Z</time></trkpt><trkpt lat="44.2726517" lon="9.3945065"><ele>4.833333333333334</ele><time>2026-04-29T14:24:00.791Z</time></trkpt><trkpt lat="44.2726798" lon="9.3946054"><ele>4.666666666666667</ele><time>2026-04-29T14:24:01.792Z</time></trkpt><trkpt lat="44.2726983" lon="9.3947158"><ele>4.5</ele><time>2026-04-29T14:24:02.788Z</time></trkpt><trkpt lat="44.2727126" lon="9.394826"><ele>4.333333333333333</ele><time>2026-04-29T14:24:03.789Z</time></trkpt><trkpt lat="44.2727242" lon="9.3949283"><ele>4.166666666666666</ele><time>2026-04-29T14:24:04.788Z</time></trkpt><trkpt lat="44.2727363" lon="9.3950246"><ele>4.0</ele><time>2026-04-29T14:24:05.788Z</time></trkpt><trkpt lat="44.2727522" lon="9.3951257"><ele>4.333333333333333</ele><time>2026-04-29T14:24:06.792Z</time></trkpt><trkpt lat="44.2727672" lon="9.3952307"><ele>4.666666666666666</ele><time>2026-04-29T14:24:07.79Z</time></trkpt><trkpt lat="44.2727848" lon="9.3953404"><ele>5.0</ele><time>2026-04-29T14:24:08.788Z</time></trkpt><trkpt lat="44.2727979" lon="9.3954527"><ele>5.333333333333333</ele><time>2026-04-29T14:24:09.791Z</time></trkpt><trkpt lat="44.2728146" lon="9.3955687"><ele>5.666666666666667</ele><time>2026-04-29T14:24:10.787Z</time></trkpt><trkpt lat="44.2728326" lon="9.395681"><ele>6.0</ele><time>2026-04-29T14:24:11.79Z</time></trkpt><trkpt lat="44.27285" lon="9.3957824"><ele>6.0</ele><time>2026-04-29T14:24:12.788Z</time></trkpt><trkpt lat="44.272863" lon="9.3958781"><ele>6.0</ele><time>2026-04-29T14:24:13.789Z</time></trkpt><trkpt lat="44.2728722" lon="9.3959691"><ele>6.0</ele><time>2026-04-29T14:24:14.788Z</time></trkpt><trkpt lat="44.2728841" lon="9.3960611"><ele>6.0</ele><time>2026-04-29T14:24:15.789Z</time></trkpt><trkpt lat="44.2729092" lon="9.3962101"><ele>6.0</ele><time>2026-04-29T14:24:17.79Z</time></trkpt><trkpt lat="44.2729227" lon="9.3963151"><ele>6.0</ele><time>2026-04-29T14:24:19.79Z</time></trkpt><trkpt lat="44.2729332" lon="9.3964019"><ele>5.833333333333333</ele><time>2026-04-29T14:24:21.788Z</time></trkpt><trkpt lat="44.2729455" lon="9.3965069"><ele>5.666666666666667</ele><time>2026-04-29T14:24:24.791Z</time></trkpt><trkpt lat="44.2729579" lon="9.3965953"><ele>5.5</ele><time>2026-04-29T14:24:28.789Z</time></trkpt><trkpt lat="44.2729807" lon="9.3966942"><ele>5.333333333333334</ele><time>2026-04-29T14:24:34.789Z</time></trkpt><trkpt lat="44.2729866" lon="9.3968001"><ele>5.166666666666667</ele><time>2026-04-29T14:24:36.788Z</time></trkpt><trkpt lat="44.2729538" lon="9.3969156"><ele>5.0</ele><time>2026-04-29T14:24:38.789Z</time></trkpt><trkpt lat="44.2729139" lon="9.3970168"><ele>5.0</ele><time>2026-04-29T14:24:40.789Z</time></trkpt><trkpt lat="44.2728634" lon="9.3971366"><ele>5.0</ele><time>2026-04-29T14:24:42.789Z</time></trkpt><trkpt lat="44.2728133" lon="9.3972261"><ele>5.0</ele><time>2026-04-29T14:24:44.792Z</time></trkpt><trkpt lat="44.2727451" lon="9.3973338"><ele>5.0</ele><time>2026-04-29T14:24:47.788Z</time></trkpt><trkpt lat="44.2726835" lon="9.3974363"><ele>5.0</ele><time>2026-04-29T14:24:49.791Z</time></trkpt><trkpt lat="44.2726282" lon="9.3975482"><ele>5.2</ele><time>2026-04-29T14:24:51.791Z</time></trkpt><trkpt lat="44.2725769" lon="9.397671"><ele>5.4</ele><time>2026-04-29T14:24:53.792Z</time></trkpt><trkpt lat="44.2725057" lon="9.3978286"><ele>5.6</ele><time>2026-04-29T14:24:55.788Z</time></trkpt><trkpt lat="44.2724632" lon="9.3979328"><ele>5.8</ele><time>2026-04-29T14:24:56.788Z</time></trkpt><trkpt lat="44.2724198" lon="9.3980453"><ele>6.0</ele><time>2026-04-29T14:24:57.789Z</time></trkpt><trkpt lat="44.272381" lon="9.3981513"><ele>6.0</ele><time>2026-04-29T14:24:58.791Z</time></trkpt><trkpt lat="44.272344" lon="9.3982594"><ele>6.0</ele><time>2026-04-29T14:24:59.79Z</time></trkpt><trkpt lat="44.2723101" lon="9.3983811"><ele>6.0</ele><time>2026-04-29T14:25:00.789Z</time></trkpt><trkpt lat="44.2722706" lon="9.3984968"><ele>6.0</ele><time>2026-04-29T14:25:01.789Z</time></trkpt><trkpt lat="44.2722355" lon="9.3985992"><ele>6.0</ele><time>2026-04-29T14:25:02.789Z</time></trkpt><trkpt lat="44.2721993" lon="9.3987055"><ele>6.0</ele><time>2026-04-29T14:25:03.792Z</time></trkpt><trkpt lat="44.2721675" lon="9.3988189"><ele>6.7142857142857135</ele><time>2026-04-29T14:25:04.788Z</time></trkpt><trkpt lat="44.27214" lon="9.3989251"><ele>7.428571428571429</ele><time>2026-04-29T14:25:05.789Z</time></trkpt><trkpt lat="44.2721166" lon="9.3990247"><ele>8.142857142857142</ele><time>2026-04-29T14:25:06.791Z</time></trkpt><trkpt lat="44.2720932" lon="9.3991278"><ele>8.857142857142858</ele><time>2026-04-29T14:25:07.789Z</time></trkpt><trkpt lat="44.2720751" lon="9.3992215"><ele>9.571428571428571</ele><time>2026-04-29T14:25:08.789Z</time></trkpt><trkpt lat="44.2720548" lon="9.3993154"><ele>10.285714285714286</ele><time>2026-04-29T14:25:09.788Z</time></trkpt><trkpt lat="44.2720365" lon="9.3994157"><ele>11.0</ele><time>2026-04-29T14:25:10.788Z</time></trkpt><trkpt lat="44.2720192" lon="9.399525"><ele>11.0</ele><time>2026-04-29T14:25:11.787Z</time></trkpt><trkpt lat="44.2720009" lon="9.3996451"><ele>11.0</ele><time>2026-04-29T14:25:12.788Z</time></trkpt><trkpt lat="44.2719829" lon="9.3997767"><ele>11.0</ele><time>2026-04-29T14:25:13.788Z</time></trkpt><trkpt lat="44.2719642" lon="9.3999026"><ele>11.0</ele><time>2026-04-29T14:25:14.788Z</time></trkpt><trkpt lat="44.2719501" lon="9.399995"><ele>11.0</ele><time>2026-04-29T14:25:15.788Z</time></trkpt><trkpt lat="44.2719369" lon="9.400094"><ele>11.0</ele><time>2026-04-29T14:25:17.791Z</time></trkpt><trkpt lat="44.2719231" lon="9.4001921"><ele>10.200000000000001</ele><time>2026-04-29T14:25:20.788Z</time></trkpt><trkpt lat="44.2719071" lon="9.4002876"><ele>9.4</ele><time>2026-04-29T14:25:22.791Z</time></trkpt><trkpt lat="44.2718924" lon="9.4004238"><ele>8.6</ele><time>2026-04-29T14:25:24.79Z</time></trkpt><trkpt lat="44.2718676" lon="9.400605"><ele>7.8</ele><time>2026-04-29T14:25:26.788Z</time></trkpt><trkpt lat="44.2718519" lon="9.4007126"><ele>7.0</ele><time>2026-04-29T14:25:27.789Z</time></trkpt><trkpt lat="44.2718311" lon="9.4008353"><ele>6.833333333333334</ele><time>2026-04-29T14:25:28.788Z</time></trkpt><trkpt lat="44.271811" lon="9.4009625"><ele>6.666666666666667</ele><time>2026-04-29T14:25:29.789Z</time></trkpt><trkpt lat="44.2717931" lon="9.4010802"><ele>6.5</ele><time>2026-04-29T14:25:30.791Z</time></trkpt><trkpt lat="44.2717761" lon="9.4011839"><ele>6.333333333333334</ele><time>2026-04-29T14:25:31.791Z</time></trkpt><trkpt lat="44.2717618" lon="9.4012752"><ele>6.166666666666667</ele><time>2026-04-29T14:25:32.788Z</time></trkpt><trkpt lat="44.2717409" lon="9.4013967"><ele>6.0</ele><time>2026-04-29T14:25:34.788Z</time></trkpt><trkpt lat="44.2717226" lon="9.4015233"><ele>6.0</ele><time>2026-04-29T14:25:43.79Z</time></trkpt><trkpt lat="44.2716987" lon="9.4016621"><ele>6.0</ele><time>2026-04-29T14:25:45.789Z</time></trkpt><trkpt lat="44.2716791" lon="9.4018067"><ele>6.0</ele><time>2026-04-29T14:25:47.789Z</time></trkpt><trkpt lat="44.2716535" lon="9.4019649"><ele>6.0</ele><time>2026-04-29T14:25:49.79Z</time></trkpt><trkpt lat="44.2716317" lon="9.4021349"><ele>6.0</ele><time>2026-04-29T14:25:51.788Z</time></trkpt><trkpt lat="44.2716215" lon="9.4022235"><ele>6.166666666666667</ele><time>2026-04-29T14:25:52.788Z</time></trkpt><trkpt lat="44.2716051" lon="9.4023171"><ele>6.333333333333334</ele><time>2026-04-29T14:25:53.789Z</time></trkpt><trkpt lat="44.2715941" lon="9.4024187"><ele>6.5</ele><time>2026-04-29T14:25:54.79Z</time></trkpt><trkpt lat="44.2715829" lon="9.4025206"><ele>6.666666666666667</ele><time>2026-04-29T14:25:55.789Z</time></trkpt><trkpt lat="44.271573" lon="9.4026165"><ele>6.833333333333334</ele><time>2026-04-29T14:25:56.788Z</time></trkpt><trkpt lat="44.271565" lon="9.4027049"><ele>7.0</ele><time>2026-04-29T14:25:57.789Z</time></trkpt><trkpt lat="44.271532" lon="9.4028685"><ele>7.0</ele><time>2026-04-29T14:25:59.789Z</time></trkpt><trkpt lat="44.2715111" lon="9.4029673"><ele>7.0</ele><time>2026-04-29T14:26:00.789Z</time></trkpt><trkpt lat="44.2714933" lon="9.4030699"><ele>7.0</ele><time>2026-04-29T14:26:01.789Z</time></trkpt><trkpt lat="44.2714806" lon="9.4031562"><ele>7.0</ele><time>2026-04-29T14:26:02.789Z</time></trkpt><trkpt lat="44.2714816" lon="9.4032887"><ele>7.0</ele><time>2026-04-29T14:26:04.788Z</time></trkpt><trkpt lat="44.2715419" lon="9.4033299"><ele>7.0</ele><time>2026-04-29T14:26:06.788Z</time></trkpt><trkpt lat="44.2715886" lon="9.4032526"><ele>7.0</ele><time>2026-04-29T14:26:08.79Z</time></trkpt><trkpt lat="44.2715662" lon="9.4030884"><ele>7.0</ele><time>2026-04-29T14:26:10.789Z</time></trkpt><trkpt lat="44.2715595" lon="9.4029751"><ele>6.999999999999999</ele><time>2026-04-29T14:26:11.79Z</time></trkpt><trkpt lat="44.2715642" lon="9.4028466"><ele>6.999999999999999</ele><time>2026-04-29T14:26:12.789Z</time></trkpt><trkpt lat="44.271575" lon="9.4027041"><ele>7.0</ele><time>2026-04-29T14:26:13.791Z</time></trkpt><trkpt lat="44.2715891" lon="9.4025501"><ele>7.0</ele><time>2026-04-29T14:26:14.79Z</time></trkpt><trkpt lat="44.2716054" lon="9.4023843"><ele>7.0</ele><time>2026-04-29T14:26:15.787Z</time></trkpt><trkpt lat="44.2716257" lon="9.4022147"><ele>7.0</ele><time>2026-04-29T14:26:16.787Z</time></trkpt><trkpt lat="44.2716487" lon="9.4020422"><ele>7.0</ele><time>2026-04-29T14:26:17.789Z</time></trkpt><trkpt lat="44.2716741" lon="9.401865"><ele>7.0</ele><time>2026-04-29T14:26:18.788Z</time></trkpt><trkpt lat="44.2716955" lon="9.4016998"><ele>6.8</ele><time>2026-04-29T14:26:19.788Z</time></trkpt><trkpt lat="44.271717" lon="9.4015447"><ele>6.6</ele><time>2026-04-29T14:26:20.788Z</time></trkpt><trkpt lat="44.2717408" lon="9.4013986"><ele>6.3999999999999995</ele><time>2026-04-29T14:26:21.789Z</time></trkpt><trkpt lat="44.2717611" lon="9.4012609"><ele>6.199999999999999</ele><time>2026-04-29T14:26:22.789Z</time></trkpt><trkpt lat="44.271783" lon="9.4011371"><ele>6.0</ele><time>2026-04-29T14:26:23.787Z</time></trkpt><trkpt lat="44.2717953" lon="9.4010364"><ele>5.833333333333333</ele><time>2026-04-29T14:26:24.789Z</time></trkpt><trkpt lat="44.2718077" lon="9.400945"><ele>5.666666666666667</ele><time>2026-04-29T14:26:25.79Z</time></trkpt><trkpt lat="44.2718033" lon="9.4007983"><ele>5.5</ele><time>2026-04-29T14:26:27.789Z</time></trkpt><trkpt lat="44.2717381" lon="9.4007201"><ele>5.333333333333334</ele><time>2026-04-29T14:26:30.788Z</time></trkpt><trkpt lat="44.2716726" lon="9.4007187"><ele>5.166666666666667</ele><time>2026-04-29T14:26:33.792Z</time></trkpt><trkpt lat="44.2716439" lon="9.4008013"><ele>5.0</ele><time>2026-04-29T14:26:38.789Z</time></trkpt><trkpt lat="44.2716303" lon="9.4008982"><ele>5.0</ele><time>2026-04-29T14:27:22.789Z</time></trkpt><trkpt lat="44.2716982" lon="9.4008906"><ele>5.0</ele><time>2026-04-29T14:31:20.789Z</time></trkpt><trkpt lat="44.2717392" lon="9.40082"><ele>5.0</ele><time>2026-04-29T14:31:22.789Z</time></trkpt><trkpt lat="44.2718012" lon="9.4008725"><ele>5.0</ele><time>2026-04-29T14:31:33.788Z</time></trkpt><trkpt lat="44.2717973" lon="9.4009725"><ele>5.0</ele><time>2026-04-29T14:31:35.787Z</time></trkpt><trkpt lat="44.2717808" lon="9.4010608"><ele>5.0</ele><time>2026-04-29T14:31:37.792Z</time></trkpt><trkpt lat="44.2717469" lon="9.401221"><ele>5.0</ele><time>2026-04-29T14:31:39.792Z</time></trkpt><trkpt lat="44.2717327" lon="9.4013215"><ele>5.0</ele><time>2026-04-29T14:31:40.789Z</time></trkpt><trkpt lat="44.2717131" lon="9.4014433"><ele>5.0</ele><time>2026-04-29T14:31:41.789Z</time></trkpt><trkpt lat="44.2716968" lon="9.4015739"><ele>5.0</ele><time>2026-04-29T14:31:42.787Z</time></trkpt><trkpt lat="44.271681" lon="9.4017099"><ele>5.0</ele><time>2026-04-29T14:31:43.791Z</time></trkpt><trkpt lat="44.2716609" lon="9.4018485"><ele>5.166666666666667</ele><time>2026-04-29T14:31:44.787Z</time></trkpt><trkpt lat="44.271643" lon="9.4019779"><ele>5.333333333333334</ele><time>2026-04-29T14:31:45.791Z</time></trkpt><trkpt lat="44.2716209" lon="9.4021071"><ele>5.5</ele><time>2026-04-29T14:31:46.788Z</time></trkpt><trkpt lat="44.2716007" lon="9.4022274"><ele>5.666666666666667</ele><time>2026-04-29T14:31:47.792Z</time></trkpt><trkpt lat="44.2715898" lon="9.4023372"><ele>5.833333333333333</ele><time>2026-04-29T14:31:48.788Z</time></trkpt><trkpt lat="44.271587" lon="9.4024281"><ele>6.0</ele><time>2026-04-29T14:31:49.787Z</time></trkpt><trkpt lat="44.2715763" lon="9.4025765"><ele>6.142857142857142</ele><time>2026-04-29T14:31:51.792Z</time></trkpt><trkpt lat="44.2715506" lon="9.4027187"><ele>6.285714285714286</ele><time>2026-04-29T14:31:53.788Z</time></trkpt><trkpt lat="44.2715325" lon="9.4028038"><ele>6.428571428571429</ele><time>2026-04-29T14:31:54.787Z</time></trkpt><trkpt lat="44.271511" lon="9.402888"><ele>6.571428571428571</ele><time>2026-04-29T14:31:55.788Z</time></trkpt><trkpt lat="44.2714889" lon="9.4029805"><ele>6.714285714285714</ele><time>2026-04-29T14:31:56.786Z</time></trkpt><trkpt lat="44.2714697" lon="9.403075"><ele>6.857142857142857</ele><time>2026-04-29T14:31:57.787Z</time></trkpt><trkpt lat="44.2714548" lon="9.4031606"><ele>7.0</ele><time>2026-04-29T14:31:58.789Z</time></trkpt><trkpt lat="44.2714622" lon="9.4033108"><ele>6.500000000000001</ele><time>2026-04-29T14:32:00.788Z</time></trkpt><trkpt lat="44.2715151" lon="9.403368"><ele>6.0</ele><time>2026-04-29T14:32:01.792Z</time></trkpt><trkpt lat="44.2715726" lon="9.4034212"><ele>5.5</ele><time>2026-04-29T14:32:02.786Z</time></trkpt><trkpt lat="44.2716424" lon="9.4034732"><ele>5.0</ele><time>2026-04-29T14:32:03.787Z</time></trkpt><trkpt lat="44.2717269" lon="9.4035326"><ele>4.5</ele><time>2026-04-29T14:32:04.787Z</time></trkpt><trkpt lat="44.2718257" lon="9.4035891"><ele>4.0</ele><time>2026-04-29T14:32:05.79Z</time></trkpt><trkpt lat="44.2719315" lon="9.4036254"><ele>4.0</ele><time>2026-04-29T14:32:06.787Z</time></trkpt><trkpt lat="44.2720413" lon="9.4036347"><ele>4.0</ele><time>2026-04-29T14:32:07.788Z</time></trkpt><trkpt lat="44.2721647" lon="9.4036226"><ele>4.0</ele><time>2026-04-29T14:32:08.786Z</time></trkpt><trkpt lat="44.272264" lon="9.403597"><ele>4.0</ele><time>2026-04-29T14:32:09.792Z</time></trkpt><trkpt lat="44.272346" lon="9.4035722"><ele>4.0</ele><time>2026-04-29T14:32:10.791Z</time></trkpt><trkpt lat="44.2724664" lon="9.4035418"><ele>4.166666666666666</ele><time>2026-04-29T14:32:12.788Z</time></trkpt><trkpt lat="44.2725433" lon="9.4035398"><ele>4.333333333333333</ele><time>2026-04-29T14:32:13.788Z</time></trkpt><trkpt lat="44.2726603" lon="9.4035766"><ele>4.5</ele><time>2026-04-29T14:32:15.787Z</time></trkpt><trkpt lat="44.2727198" lon="9.4036182"><ele>4.666666666666667</ele><time>2026-04-29T14:32:16.788Z</time></trkpt><trkpt lat="44.2727771" lon="9.4036687"><ele>4.833333333333334</ele><time>2026-04-29T14:32:17.791Z</time></trkpt><trkpt lat="44.2728263" lon="9.4037444"><ele>5.0</ele><time>2026-04-29T14:32:18.789Z</time></trkpt><trkpt lat="44.2728731" lon="9.4038338"><ele>5.0</ele><time>2026-04-29T14:32:19.788Z</time></trkpt><trkpt lat="44.2729003" lon="9.4039445"><ele>5.0</ele><time>2026-04-29T14:32:20.788Z</time></trkpt><trkpt lat="44.2729207" lon="9.4040605"><ele>5.0</ele><time>2026-04-29T14:32:21.786Z</time></trkpt><trkpt lat="44.2729407" lon="9.404191"><ele>5.0</ele><time>2026-04-29T14:32:22.787Z</time></trkpt><trkpt lat="44.2729596" lon="9.4043415"><ele>5.0</ele><time>2026-04-29T14:32:23.788Z</time></trkpt><trkpt lat="44.2729742" lon="9.4044854"><ele>5.0</ele><time>2026-04-29T14:32:24.791Z</time></trkpt><trkpt lat="44.2729665" lon="9.4046377"><ele>5.0</ele><time>2026-04-29T14:32:25.791Z</time></trkpt><trkpt lat="44.2729411" lon="9.404786"><ele>5.0</ele><time>2026-04-29T14:32:26.789Z</time></trkpt><trkpt lat="44.2729062" lon="9.4049279"><ele>5.0</ele><time>2026-04-29T14:32:27.791Z</time></trkpt><trkpt lat="44.2728649" lon="9.4050633"><ele>5.0</ele><time>2026-04-29T14:32:28.788Z</time></trkpt><trkpt lat="44.2728087" lon="9.4051921"><ele>5.0</ele><time>2026-04-29T14:32:29.792Z</time></trkpt><trkpt lat="44.2727499" lon="9.4053143"><ele>5.0</ele><time>2026-04-29T14:32:30.792Z</time></trkpt><trkpt lat="44.2726927" lon="9.4054298"><ele>5.0</ele><time>2026-04-29T14:32:31.791Z</time></trkpt><trkpt lat="44.2726438" lon="9.4055397"><ele>5.0</ele><time>2026-04-29T14:32:32.788Z</time></trkpt><trkpt lat="44.2725851" lon="9.4056457"><ele>5.0</ele><time>2026-04-29T14:32:33.791Z</time></trkpt><trkpt lat="44.2725269" lon="9.4057544"><ele>5.8</ele><time>2026-04-29T14:32:34.788Z</time></trkpt><trkpt lat="44.2724738" lon="9.4058689"><ele>6.6</ele><time>2026-04-29T14:32:35.789Z</time></trkpt><trkpt lat="44.2724267" lon="9.4059838"><ele>7.4</ele><time>2026-04-29T14:32:36.787Z</time></trkpt><trkpt lat="44.2723703" lon="9.4061043"><ele>8.2</ele><time>2026-04-29T14:32:37.789Z</time></trkpt><trkpt lat="44.2723141" lon="9.4062205"><ele>9.0</ele><time>2026-04-29T14:32:38.792Z</time></trkpt><trkpt lat="44.2722584" lon="9.4063376"><ele>9.0</ele><time>2026-04-29T14:32:39.788Z</time></trkpt><trkpt lat="44.2722029" lon="9.4064483"><ele>9.0</ele><time>2026-04-29T14:32:40.789Z</time></trkpt><trkpt lat="44.272153" lon="9.4065545"><ele>9.0</ele><time>2026-04-29T14:32:41.79Z</time></trkpt><trkpt lat="44.2721061" lon="9.4066593"><ele>9.0</ele><time>2026-04-29T14:32:42.789Z</time></trkpt><trkpt lat="44.2720508" lon="9.4067732"><ele>9.0</ele><time>2026-04-29T14:32:43.791Z</time></trkpt><trkpt lat="44.2719961" lon="9.4068929"><ele>9.0</ele><time>2026-04-29T14:32:44.791Z</time></trkpt><trkpt lat="44.2719346" lon="9.4070188"><ele>9.0</ele><time>2026-04-29T14:32:45.788Z</time></trkpt><trkpt lat="44.2718702" lon="9.4071535"><ele>9.0</ele><time>2026-04-29T14:32:46.789Z</time></trkpt><trkpt lat="44.2718055" lon="9.407295"><ele>9.0</ele><time>2026-04-29T14:32:47.787Z</time></trkpt><trkpt lat="44.2717404" lon="9.4074356"><ele>9.0</ele><time>2026-04-29T14:32:48.788Z</time></trkpt><trkpt lat="44.2716837" lon="9.4075635"><ele>9.0</ele><time>2026-04-29T14:32:49.79Z</time></trkpt><trkpt lat="44.2716264" lon="9.4076844"><ele>9.0</ele><time>2026-04-29T14:32:50.789Z</time></trkpt><trkpt lat="44.2715748" lon="9.4077898"><ele>9.0</ele><time>2026-04-29T14:32:51.791Z</time></trkpt><trkpt lat="44.2715247" lon="9.4078893"><ele>9.0</ele><time>2026-04-29T14:32:52.789Z</time></trkpt><trkpt lat="44.271476" lon="9.4079701"><ele>8.5</ele><time>2026-04-29T14:32:53.788Z</time></trkpt><trkpt lat="44.2714337" lon="9.4080361"><ele>8.0</ele><time>2026-04-29T14:32:54.79Z</time></trkpt><trkpt lat="44.2713588" lon="9.4081336"><ele>7.5</ele><time>2026-04-29T14:32:56.791Z</time></trkpt><trkpt lat="44.2712925" lon="9.4082149"><ele>7.0</ele><time>2026-04-29T14:32:59.788Z</time></trkpt><trkpt lat="44.2712405" lon="9.4082933"><ele>6.5</ele><time>2026-04-29T14:33:01.79Z</time></trkpt><trkpt lat="44.2711812" lon="9.408379"><ele>6.0</ele><time>2026-04-29T14:33:03.79Z</time></trkpt><trkpt lat="44.2711073" lon="9.4084671"><ele>6.0</ele><time>2026-04-29T14:33:05.791Z</time></trkpt><trkpt lat="44.2710514" lon="9.4085317"><ele>6.0</ele><time>2026-04-29T14:33:07.791Z</time></trkpt><trkpt lat="44.2709948" lon="9.4085953"><ele>6.0</ele><time>2026-04-29T14:33:09.789Z</time></trkpt><trkpt lat="44.2709402" lon="9.4086669"><ele>6.0</ele><time>2026-04-29T14:33:11.788Z</time></trkpt><trkpt lat="44.270867" lon="9.4087349"><ele>6.0</ele><time>2026-04-29T14:33:13.786Z</time></trkpt><trkpt lat="44.2707684" lon="9.4087686"><ele>6.0</ele><time>2026-04-29T14:33:15.789Z</time></trkpt><trkpt lat="44.2706619" lon="9.4088209"><ele>5.666666666666667</ele><time>2026-04-29T14:33:17.787Z</time></trkpt><trkpt lat="44.2706106" lon="9.4089204"><ele>5.333333333333333</ele><time>2026-04-29T14:33:19.79Z</time></trkpt><trkpt lat="44.2706095" lon="9.4090152"><ele>5.0</ele><time>2026-04-29T14:33:21.79Z</time></trkpt><trkpt lat="44.2706041" lon="9.4091105"><ele>4.666666666666666</ele><time>2026-04-29T14:33:41.79Z</time></trkpt><trkpt lat="44.2705922" lon="9.4092445"><ele>4.333333333333333</ele><time>2026-04-29T14:33:44.785Z</time></trkpt><trkpt lat="44.2705692" lon="9.4093907"><ele>4.0</ele><time>2026-04-29T14:33:46.788Z</time></trkpt><trkpt lat="44.2705445" lon="9.4095685"><ele>6.800000000000001</ele><time>2026-04-29T14:33:48.792Z</time></trkpt><trkpt lat="44.2705314" lon="9.4096581"><ele>9.600000000000001</ele><time>2026-04-29T14:33:49.79Z</time></trkpt><trkpt lat="44.2705117" lon="9.4098242"><ele>12.4</ele><time>2026-04-29T14:33:51.787Z</time></trkpt><trkpt lat="44.2704923" lon="9.4099667"><ele>15.200000000000001</ele><time>2026-04-29T14:33:53.792Z</time></trkpt><trkpt lat="44.2704699" lon="9.41008"><ele>18.0</ele><time>2026-04-29T14:33:55.787Z</time></trkpt><trkpt lat="44.2704562" lon="9.4101955"><ele>18.5</ele><time>2026-04-29T14:33:58.792Z</time></trkpt><trkpt lat="44.2704296" lon="9.4103035"><ele>19.0</ele><time>2026-04-29T14:34:55.787Z</time></trkpt><trkpt lat="44.2704174" lon="9.4104086"><ele>19.5</ele><time>2026-04-29T14:34:57.789Z</time></trkpt><trkpt lat="44.2703999" lon="9.4105784"><ele>20.0</ele><time>2026-04-29T14:34:59.787Z</time></trkpt><trkpt lat="44.2703811" lon="9.4106808"><ele>20.5</ele><time>2026-04-29T14:35:00.786Z</time></trkpt><trkpt lat="44.2703594" lon="9.4107914"><ele>21.0</ele><time>2026-04-29T14:35:01.786Z</time></trkpt><trkpt lat="44.2703353" lon="9.4109034"><ele>19.2</ele><time>2026-04-29T14:35:02.788Z</time></trkpt><trkpt lat="44.270304" lon="9.4110119"><ele>17.400000000000002</ele><time>2026-04-29T14:35:03.788Z</time></trkpt><trkpt lat="44.270262" lon="9.4111187"><ele>15.6</ele><time>2026-04-29T14:35:04.788Z</time></trkpt><trkpt lat="44.270214" lon="9.4112373"><ele>13.8</ele><time>2026-04-29T14:35:05.758Z</time></trkpt><trkpt lat="44.2701631" lon="9.4113801"><ele>12.0</ele><time>2026-04-29T14:35:06.759Z</time></trkpt><trkpt lat="44.2701098" lon="9.4115491"><ele>11.0</ele><time>2026-04-29T14:35:07.758Z</time></trkpt><trkpt lat="44.2700556" lon="9.4117227"><ele>10.0</ele><time>2026-04-29T14:35:08.759Z</time></trkpt><trkpt lat="44.2700061" lon="9.4118845"><ele>9.0</ele><time>2026-04-29T14:35:09.758Z</time></trkpt><trkpt lat="44.2699557" lon="9.412047"><ele>8.0</ele><time>2026-04-29T14:35:10.76Z</time></trkpt><trkpt lat="44.2699055" lon="9.4122103"><ele>8.0</ele><time>2026-04-29T14:35:11.759Z</time></trkpt><trkpt lat="44.2698555" lon="9.4123761"><ele>8.0</ele><time>2026-04-29T14:35:12.76Z</time></trkpt><trkpt lat="44.2698109" lon="9.4125263"><ele>8.0</ele><time>2026-04-29T14:35:13.76Z</time></trkpt><trkpt lat="44.2697653" lon="9.4126837"><ele>8.0</ele><time>2026-04-29T14:35:14.759Z</time></trkpt><trkpt lat="44.2697171" lon="9.4128458"><ele>8.5</ele><time>2026-04-29T14:35:15.76Z</time></trkpt><trkpt lat="44.2696699" lon="9.4130043"><ele>9.0</ele><time>2026-04-29T14:35:16.76Z</time></trkpt><trkpt lat="44.2696244" lon="9.4131515"><ele>9.5</ele><time>2026-04-29T14:35:17.76Z</time></trkpt><trkpt lat="44.2695773" lon="9.4132986"><ele>10.0</ele><time>2026-04-29T14:35:18.76Z</time></trkpt><trkpt lat="44.2695267" lon="9.4134468"><ele>10.0</ele><time>2026-04-29T14:35:19.76Z</time></trkpt><trkpt lat="44.2694687" lon="9.413602"><ele>10.0</ele><time>2026-04-29T14:35:20.76Z</time></trkpt><trkpt lat="44.2694118" lon="9.4137515"><ele>10.0</ele><time>2026-04-29T14:35:21.76Z</time></trkpt><trkpt lat="44.2693514" lon="9.4139087"><ele>10.0</ele><time>2026-04-29T14:35:22.76Z</time></trkpt><trkpt lat="44.2692874" lon="9.4140733"><ele>9.75</ele><time>2026-04-29T14:35:23.76Z</time></trkpt><trkpt lat="44.2692277" lon="9.4142262"><ele>9.5</ele><time>2026-04-29T14:35:24.76Z</time></trkpt><trkpt lat="44.2691703" lon="9.4143716"><ele>9.25</ele><time>2026-04-29T14:35:25.76Z</time></trkpt><trkpt lat="44.2691153" lon="9.4145158"><ele>9.0</ele><time>2026-04-29T14:35:26.76Z</time></trkpt><trkpt lat="44.2690626" lon="9.4146524"><ele>8.8</ele><time>2026-04-29T14:35:27.76Z</time></trkpt><trkpt lat="44.26901" lon="9.4147911"><ele>8.600000000000001</ele><time>2026-04-29T14:35:28.76Z</time></trkpt><trkpt lat="44.2689612" lon="9.4149162"><ele>8.4</ele><time>2026-04-29T14:35:29.76Z</time></trkpt><trkpt lat="44.2689128" lon="9.4150398"><ele>8.200000000000001</ele><time>2026-04-29T14:35:30.759Z</time></trkpt><trkpt lat="44.2688699" lon="9.4151637"><ele>8.0</ele><time>2026-04-29T14:35:31.759Z</time></trkpt><trkpt lat="44.2688397" lon="9.4152787"><ele>7.999999999999999</ele><time>2026-04-29T14:35:32.759Z</time></trkpt><trkpt lat="44.2688208" lon="9.415386"><ele>8.0</ele><time>2026-04-29T14:35:33.76Z</time></trkpt><trkpt lat="44.2688106" lon="9.4154866"><ele>8.0</ele><time>2026-04-29T14:35:34.76Z</time></trkpt><trkpt lat="44.2688082" lon="9.4155786"><ele>8.0</ele><time>2026-04-29T14:35:35.76Z</time></trkpt><trkpt lat="44.2688078" lon="9.4156672"><ele>7.999999999999999</ele><time>2026-04-29T14:35:36.76Z</time></trkpt><trkpt lat="44.2688022" lon="9.415831"><ele>8.0</ele><time>2026-04-29T14:35:38.759Z</time></trkpt><trkpt lat="44.2688187" lon="9.4159952"><ele>8.0</ele><time>2026-04-29T14:35:40.76Z</time></trkpt><trkpt lat="44.2688996" lon="9.4161244"><ele>8.0</ele><time>2026-04-29T14:35:42.759Z</time></trkpt><trkpt lat="44.2689642" lon="9.4161799"><ele>8.0</ele><time>2026-04-29T14:35:43.759Z</time></trkpt><trkpt lat="44.2690434" lon="9.4162419"><ele>8.0</ele><time>2026-04-29T14:35:44.76Z</time></trkpt><trkpt lat="44.269132" lon="9.41631"><ele>8.0</ele><time>2026-04-29T14:35:45.76Z</time></trkpt><trkpt lat="44.2692213" lon="9.4163761"><ele>8.200000000000001</ele><time>2026-04-29T14:35:46.76Z</time></trkpt><trkpt lat="44.2693156" lon="9.416445"><ele>8.4</ele><time>2026-04-29T14:35:47.76Z</time></trkpt><trkpt lat="44.2694045" lon="9.4165113"><ele>8.600000000000001</ele><time>2026-04-29T14:35:48.759Z</time></trkpt><trkpt lat="44.2694898" lon="9.4165744"><ele>8.8</ele><time>2026-04-29T14:35:49.76Z</time></trkpt><trkpt lat="44.269579" lon="9.4166368"><ele>9.0</ele><time>2026-04-29T14:35:50.76Z</time></trkpt><trkpt lat="44.2696615" lon="9.4167009"><ele>9.0</ele><time>2026-04-29T14:35:51.76Z</time></trkpt><trkpt lat="44.2697366" lon="9.4167753"><ele>9.0</ele><time>2026-04-29T14:35:52.76Z</time></trkpt><trkpt lat="44.2697939" lon="9.4168479"><ele>9.0</ele><time>2026-04-29T14:35:53.759Z</time></trkpt><trkpt lat="44.2698403" lon="9.4169221"><ele>9.0</ele><time>2026-04-29T14:35:54.76Z</time></trkpt><trkpt lat="44.2698768" lon="9.4169969"><ele>9.0</ele><time>2026-04-29T14:35:55.76Z</time></trkpt><trkpt lat="44.2699201" lon="9.4171285"><ele>9.0</ele><time>2026-04-29T14:35:57.76Z</time></trkpt><trkpt lat="44.2699403" lon="9.417253"><ele>9.0</ele><time>2026-04-29T14:35:59.76Z</time></trkpt><trkpt lat="44.2699401" lon="9.4174152"><ele>9.0</ele><time>2026-04-29T14:36:01.76Z</time></trkpt><trkpt lat="44.2699369" lon="9.4175165"><ele>9.0</ele><time>2026-04-29T14:36:02.79Z</time></trkpt><trkpt lat="44.2699078" lon="9.4176212"><ele>9.0</ele><time>2026-04-29T14:36:03.789Z</time></trkpt><trkpt lat="44.2698784" lon="9.4177282"><ele>9.0</ele><time>2026-04-29T14:36:04.788Z</time></trkpt><trkpt lat="44.2698477" lon="9.4178315"><ele>9.0</ele><time>2026-04-29T14:36:05.787Z</time></trkpt><trkpt lat="44.2698128" lon="9.417945"><ele>9.4</ele><time>2026-04-29T14:36:06.786Z</time></trkpt><trkpt lat="44.2697724" lon="9.4180646"><ele>9.8</ele><time>2026-04-29T14:36:07.787Z</time></trkpt><trkpt lat="44.2697323" lon="9.4181896"><ele>10.200000000000001</ele><time>2026-04-29T14:36:08.789Z</time></trkpt><trkpt lat="44.2696875" lon="9.4183237"><ele>10.600000000000001</ele><time>2026-04-29T14:36:09.79Z</time></trkpt><trkpt lat="44.2696435" lon="9.4184502"><ele>11.0</ele><time>2026-04-29T14:36:10.786Z</time></trkpt><trkpt lat="44.2696034" lon="9.4185646"><ele>11.0</ele><time>2026-04-29T14:36:11.787Z</time></trkpt><trkpt lat="44.2695632" lon="9.4186766"><ele>11.0</ele><time>2026-04-29T14:36:12.786Z</time></trkpt><trkpt lat="44.2695267" lon="9.4187979"><ele>11.0</ele><time>2026-04-29T14:36:13.787Z</time></trkpt><trkpt lat="44.2694817" lon="9.4189222"><ele>11.0</ele><time>2026-04-29T14:36:14.787Z</time></trkpt><trkpt lat="44.2694355" lon="9.419051"><ele>11.0</ele><time>2026-04-29T14:36:15.787Z</time></trkpt><trkpt lat="44.2693908" lon="9.4191778"><ele>11.0</ele><time>2026-04-29T14:36:16.787Z</time></trkpt><trkpt lat="44.2693501" lon="9.4193166"><ele>11.0</ele><time>2026-04-29T14:36:17.786Z</time></trkpt><trkpt lat="44.2693045" lon="9.4194461"><ele>11.0</ele><time>2026-04-29T14:36:18.786Z</time></trkpt><trkpt lat="44.26926" lon="9.4195762"><ele>11.0</ele><time>2026-04-29T14:36:19.786Z</time></trkpt><trkpt lat="44.2692147" lon="9.4197053"><ele>11.0</ele><time>2026-04-29T14:36:20.786Z</time></trkpt><trkpt lat="44.2691706" lon="9.4198349"><ele>11.0</ele><time>2026-04-29T14:36:21.788Z</time></trkpt><trkpt lat="44.2691261" lon="9.4199625"><ele>11.0</ele><time>2026-04-29T14:36:22.788Z</time></trkpt><trkpt lat="44.269083" lon="9.420091"><ele>11.0</ele><time>2026-04-29T14:36:23.788Z</time></trkpt><trkpt lat="44.2690407" lon="9.420225"><ele>11.0</ele><time>2026-04-29T14:36:24.788Z</time></trkpt><trkpt lat="44.2689928" lon="9.4203723"><ele>11.0</ele><time>2026-04-29T14:36:25.79Z</time></trkpt><trkpt lat="44.268937" lon="9.4205283"><ele>11.0</ele><time>2026-04-29T14:36:26.787Z</time></trkpt><trkpt lat="44.2688813" lon="9.4206894"><ele>11.0</ele><time>2026-04-29T14:36:27.788Z</time></trkpt><trkpt lat="44.2688235" lon="9.4208554"><ele>11.0</ele><time>2026-04-29T14:36:28.787Z</time></trkpt><trkpt lat="44.2687687" lon="9.4210231"><ele>11.0</ele><time>2026-04-29T14:36:29.791Z</time></trkpt><trkpt lat="44.2687124" lon="9.4211904"><ele>11.200000000000001</ele><time>2026-04-29T14:36:30.789Z</time></trkpt><trkpt lat="44.2686592" lon="9.4213478"><ele>11.4</ele><time>2026-04-29T14:36:31.787Z</time></trkpt><trkpt lat="44.2686111" lon="9.4214895"><ele>11.6</ele><time>2026-04-29T14:36:32.788Z</time></trkpt><trkpt lat="44.2685667" lon="9.4216199"><ele>11.8</ele><time>2026-04-29T14:36:33.787Z</time></trkpt><trkpt lat="44.2685235" lon="9.421748"><ele>12.0</ele><time>2026-04-29T14:36:34.792Z</time></trkpt><trkpt lat="44.2684761" lon="9.4218848"><ele>12.0</ele><time>2026-04-29T14:36:35.79Z</time></trkpt><trkpt lat="44.2684268" lon="9.4220247"><ele>12.0</ele><time>2026-04-29T14:36:36.787Z</time></trkpt><trkpt lat="44.2683734" lon="9.422167"><ele>12.0</ele><time>2026-04-29T14:36:37.789Z</time></trkpt><trkpt lat="44.268312" lon="9.4223161"><ele>12.0</ele><time>2026-04-29T14:36:38.787Z</time></trkpt><trkpt lat="44.2682451" lon="9.4224757"><ele>12.0</ele><time>2026-04-29T14:36:39.787Z</time></trkpt><trkpt lat="44.2681687" lon="9.422642"><ele>12.0</ele><time>2026-04-29T14:36:40.789Z</time></trkpt><trkpt lat="44.2680919" lon="9.4228133"><ele>12.0</ele><time>2026-04-29T14:36:41.786Z</time></trkpt><trkpt lat="44.2680148" lon="9.4229849"><ele>12.0</ele><time>2026-04-29T14:36:42.788Z</time></trkpt><trkpt lat="44.2679372" lon="9.4231533"><ele>12.0</ele><time>2026-04-29T14:36:43.789Z</time></trkpt><trkpt lat="44.2678611" lon="9.4233187"><ele>12.0</ele><time>2026-04-29T14:36:44.788Z</time></trkpt><trkpt lat="44.2677846" lon="9.423476"><ele>12.0</ele><time>2026-04-29T14:36:45.789Z</time></trkpt><trkpt lat="44.2677106" lon="9.4236284"><ele>12.0</ele><time>2026-04-29T14:36:46.787Z</time></trkpt><trkpt lat="44.2676361" lon="9.4237837"><ele>12.25</ele><time>2026-04-29T14:36:47.788Z</time></trkpt><trkpt lat="44.2675616" lon="9.4239374"><ele>12.5</ele><time>2026-04-29T14:36:48.787Z</time></trkpt><trkpt lat="44.2674881" lon="9.4240919"><ele>12.75</ele><time>2026-04-29T14:36:49.791Z</time></trkpt><trkpt lat="44.2674138" lon="9.4242471"><ele>13.0</ele><time>2026-04-29T14:36:50.788Z</time></trkpt><trkpt lat="44.2673408" lon="9.4243971"><ele>12.75</ele><time>2026-04-29T14:36:51.788Z</time></trkpt><trkpt lat="44.2672751" lon="9.4245399"><ele>12.5</ele><time>2026-04-29T14:36:52.786Z</time></trkpt><trkpt lat="44.2672086" lon="9.4246755"><ele>12.25</ele><time>2026-04-29T14:36:53.786Z</time></trkpt><trkpt lat="44.2671401" lon="9.4248124"><ele>12.0</ele><time>2026-04-29T14:36:54.788Z</time></trkpt><trkpt lat="44.2670697" lon="9.4249527"><ele>12.0</ele><time>2026-04-29T14:36:55.789Z</time></trkpt><trkpt lat="44.2670109" lon="9.425081"><ele>12.0</ele><time>2026-04-29T14:36:56.792Z</time></trkpt><trkpt lat="44.2669544" lon="9.4252023"><ele>12.0</ele><time>2026-04-29T14:36:57.787Z</time></trkpt><trkpt lat="44.2668985" lon="9.4253263"><ele>12.0</ele><time>2026-04-29T14:36:58.787Z</time></trkpt><trkpt lat="44.2668387" lon="9.4254553"><ele>12.0</ele><time>2026-04-29T14:36:59.787Z</time></trkpt><trkpt lat="44.2667758" lon="9.4255918"><ele>11.5</ele><time>2026-04-29T14:37:00.787Z</time></trkpt><trkpt lat="44.2667078" lon="9.4257393"><ele>11.0</ele><time>2026-04-29T14:37:01.785Z</time></trkpt><trkpt lat="44.2666351" lon="9.4258909"><ele>10.5</ele><time>2026-04-29T14:37:02.789Z</time></trkpt><trkpt lat="44.266558" lon="9.4260476"><ele>10.0</ele><time>2026-04-29T14:37:03.786Z</time></trkpt><trkpt lat="44.2664806" lon="9.4262054"><ele>11.25</ele><time>2026-04-29T14:37:04.786Z</time></trkpt><trkpt lat="44.2664035" lon="9.4263662"><ele>12.5</ele><time>2026-04-29T14:37:05.786Z</time></trkpt><trkpt lat="44.2663264" lon="9.4265228"><ele>13.75</ele><time>2026-04-29T14:37:06.787Z</time></trkpt><trkpt lat="44.2662578" lon="9.4266648"><ele>15.0</ele><time>2026-04-29T14:37:07.789Z</time></trkpt><trkpt lat="44.2661983" lon="9.4267918"><ele>15.0</ele><time>2026-04-29T14:37:08.788Z</time></trkpt><trkpt lat="44.2661428" lon="9.4269083"><ele>15.0</ele><time>2026-04-29T14:37:09.788Z</time></trkpt><trkpt lat="44.2660919" lon="9.4270141"><ele>15.0</ele><time>2026-04-29T14:37:10.788Z</time></trkpt><trkpt lat="44.2660414" lon="9.4271189"><ele>15.0</ele><time>2026-04-29T14:37:11.786Z</time></trkpt><trkpt lat="44.265988" lon="9.4272313"><ele>15.0</ele><time>2026-04-29T14:37:12.787Z</time></trkpt><trkpt lat="44.2659317" lon="9.4273496"><ele>16.0</ele><time>2026-04-29T14:37:13.786Z</time></trkpt><trkpt lat="44.2658731" lon="9.427475"><ele>17.0</ele><time>2026-04-29T14:37:14.787Z</time></trkpt><trkpt lat="44.2658107" lon="9.4276084"><ele>18.0</ele><time>2026-04-29T14:37:15.788Z</time></trkpt><trkpt lat="44.2657469" lon="9.4277457"><ele>19.0</ele><time>2026-04-29T14:37:16.787Z</time></trkpt><trkpt lat="44.265683" lon="9.4278889"><ele>19.25</ele><time>2026-04-29T14:37:17.787Z</time></trkpt><trkpt lat="44.2656156" lon="9.4280358"><ele>19.5</ele><time>2026-04-29T14:37:18.787Z</time></trkpt><trkpt lat="44.2655513" lon="9.4281794"><ele>19.75</ele><time>2026-04-29T14:37:19.786Z</time></trkpt><trkpt lat="44.2654906" lon="9.4283131"><ele>20.0</ele><time>2026-04-29T14:37:20.789Z</time></trkpt><trkpt lat="44.2654305" lon="9.4284419"><ele>20.0</ele><time>2026-04-29T14:37:21.789Z</time></trkpt><trkpt lat="44.2653773" lon="9.4285561"><ele>20.0</ele><time>2026-04-29T14:37:22.787Z</time></trkpt><trkpt lat="44.2653285" lon="9.4286571"><ele>20.0</ele><time>2026-04-29T14:37:23.79Z</time></trkpt><trkpt lat="44.2652869" lon="9.4287464"><ele>20.0</ele><time>2026-04-29T14:37:24.787Z</time></trkpt><trkpt lat="44.2652478" lon="9.4288322"><ele>20.0</ele><time>2026-04-29T14:37:25.787Z</time></trkpt><trkpt lat="44.2652014" lon="9.4289222"><ele>20.0</ele><time>2026-04-29T14:37:26.789Z</time></trkpt><trkpt lat="44.2651493" lon="9.4290161"><ele>21.4</ele><time>2026-04-29T14:37:27.79Z</time></trkpt><trkpt lat="44.2650895" lon="9.4291099"><ele>22.8</ele><time>2026-04-29T14:37:28.788Z</time></trkpt><trkpt lat="44.2650196" lon="9.4292047"><ele>24.200000000000003</ele><time>2026-04-29T14:37:29.788Z</time></trkpt><trkpt lat="44.2649417" lon="9.429297"><ele>25.6</ele><time>2026-04-29T14:37:30.786Z</time></trkpt><trkpt lat="44.2648596" lon="9.4293874"><ele>27.0</ele><time>2026-04-29T14:37:31.786Z</time></trkpt><trkpt lat="44.2647809" lon="9.4294864"><ele>27.0</ele><time>2026-04-29T14:37:32.787Z</time></trkpt><trkpt lat="44.2647176" lon="9.4295982"><ele>27.000000000000004</ele><time>2026-04-29T14:37:33.787Z</time></trkpt><trkpt lat="44.2646733" lon="9.4297232"><ele>27.000000000000004</ele><time>2026-04-29T14:37:34.787Z</time></trkpt><trkpt lat="44.264636" lon="9.4298487"><ele>27.0</ele><time>2026-04-29T14:37:35.789Z</time></trkpt><trkpt lat="44.264609" lon="9.4299739"><ele>27.0</ele><time>2026-04-29T14:37:36.787Z</time></trkpt><trkpt lat="44.2645879" lon="9.4300807"><ele>27.0</ele><time>2026-04-29T14:37:37.787Z</time></trkpt><trkpt lat="44.2645807" lon="9.4301801"><ele>27.0</ele><time>2026-04-29T14:37:38.786Z</time></trkpt><trkpt lat="44.2645782" lon="9.4302741"><ele>27.0</ele><time>2026-04-29T14:37:39.786Z</time></trkpt><trkpt lat="44.2645953" lon="9.4303701"><ele>27.0</ele><time>2026-04-29T14:37:40.789Z</time></trkpt><trkpt lat="44.2646248" lon="9.4304529"><ele>27.0</ele><time>2026-04-29T14:37:41.789Z</time></trkpt><trkpt lat="44.2646696" lon="9.4305244"><ele>27.0</ele><time>2026-04-29T14:37:42.788Z</time></trkpt><trkpt lat="44.2647244" lon="9.4305848"><ele>27.0</ele><time>2026-04-29T14:37:43.786Z</time></trkpt><trkpt lat="44.2647808" lon="9.4306353"><ele>28.714285714285715</ele><time>2026-04-29T14:37:44.787Z</time></trkpt><trkpt lat="44.26484" lon="9.4306812"><ele>30.428571428571427</ele><time>2026-04-29T14:37:45.787Z</time></trkpt><trkpt lat="44.2648974" lon="9.4307294"><ele>32.142857142857146</ele><time>2026-04-29T14:37:46.786Z</time></trkpt><trkpt lat="44.2649453" lon="9.4307984"><ele>33.857142857142854</ele><time>2026-04-29T14:37:47.789Z</time></trkpt><trkpt lat="44.2649727" lon="9.4308857"><ele>35.57142857142857</ele><time>2026-04-29T14:37:48.789Z</time></trkpt><trkpt lat="44.2649657" lon="9.4309833"><ele>37.285714285714285</ele><time>2026-04-29T14:37:49.787Z</time></trkpt><trkpt lat="44.2649404" lon="9.4310751"><ele>39.0</ele><time>2026-04-29T14:37:50.787Z</time></trkpt><trkpt lat="44.2649037" lon="9.4311588"><ele>39.0</ele><time>2026-04-29T14:37:51.786Z</time></trkpt><trkpt lat="44.2648734" lon="9.4312451"><ele>39.0</ele><time>2026-04-29T14:37:52.789Z</time></trkpt><trkpt lat="44.2648653" lon="9.4313403"><ele>39.0</ele><time>2026-04-29T14:37:53.789Z</time></trkpt><trkpt lat="44.2648772" lon="9.4314425"><ele>39.0</ele><time>2026-04-29T14:37:54.79Z</time></trkpt><trkpt lat="44.264902" lon="9.4315425"><ele>39.0</ele><time>2026-04-29T14:37:55.788Z</time></trkpt><trkpt lat="44.2649305" lon="9.4316399"><ele>39.0</ele><time>2026-04-29T14:37:56.788Z</time></trkpt><trkpt lat="44.2649589" lon="9.4317427"><ele>39.0</ele><time>2026-04-29T14:37:57.787Z</time></trkpt><trkpt lat="44.2649841" lon="9.4318261"><ele>39.2</ele><time>2026-04-29T14:37:58.788Z</time></trkpt><trkpt lat="44.2650269" lon="9.4319712"><ele>39.4</ele><time>2026-04-29T14:38:00.786Z</time></trkpt><trkpt lat="44.2650738" lon="9.432131"><ele>39.6</ele><time>2026-04-29T14:38:02.787Z</time></trkpt><trkpt lat="44.2651123" lon="9.4322194"><ele>39.8</ele><time>2026-04-29T14:38:03.786Z</time></trkpt><trkpt lat="44.2651721" lon="9.4322999"><ele>40.0</ele><time>2026-04-29T14:38:04.787Z</time></trkpt><trkpt lat="44.2652468" lon="9.4323626"><ele>40.0</ele><time>2026-04-29T14:38:05.788Z</time></trkpt><trkpt lat="44.2653332" lon="9.4324094"><ele>40.0</ele><time>2026-04-29T14:38:06.787Z</time></trkpt><trkpt lat="44.2654238" lon="9.4324612"><ele>40.0</ele><time>2026-04-29T14:38:07.788Z</time></trkpt><trkpt lat="44.2654934" lon="9.4325495"><ele>40.0</ele><time>2026-04-29T14:38:08.786Z</time></trkpt><trkpt lat="44.2655399" lon="9.4326593"><ele>40.0</ele><time>2026-04-29T14:38:09.788Z</time></trkpt><trkpt lat="44.2655617" lon="9.4327826"><ele>40.0</ele><time>2026-04-29T14:38:10.787Z</time></trkpt><trkpt lat="44.2655597" lon="9.4329116"><ele>40.0</ele><time>2026-04-29T14:38:11.788Z</time></trkpt><trkpt lat="44.2655631" lon="9.4330375"><ele>40.0</ele><time>2026-04-29T14:38:12.788Z</time></trkpt><trkpt lat="44.2655931" lon="9.4331529"><ele>40.0</ele><time>2026-04-29T14:38:13.788Z</time></trkpt><trkpt lat="44.2656258" lon="9.4332479"><ele>40.0</ele><time>2026-04-29T14:38:14.788Z</time></trkpt><trkpt lat="44.2656445" lon="9.4333488"><ele>40.0</ele><time>2026-04-29T14:38:15.785Z</time></trkpt><trkpt lat="44.2656474" lon="9.4334583"><ele>39.833333333333336</ele><time>2026-04-29T14:38:16.786Z</time></trkpt><trkpt lat="44.2656327" lon="9.4335723"><ele>39.66666666666667</ele><time>2026-04-29T14:38:17.787Z</time></trkpt><trkpt lat="44.2655985" lon="9.4336797"><ele>39.5</ele><time>2026-04-29T14:38:18.785Z</time></trkpt><trkpt lat="44.2655607" lon="9.4337882"><ele>39.333333333333336</ele><time>2026-04-29T14:38:19.788Z</time></trkpt><trkpt lat="44.2655473" lon="9.4339119"><ele>39.166666666666664</ele><time>2026-04-29T14:38:20.787Z</time></trkpt><trkpt lat="44.2655509" lon="9.4340432"><ele>39.0</ele><time>2026-04-29T14:38:21.788Z</time></trkpt><trkpt lat="44.2655431" lon="9.4341758"><ele>40.0</ele><time>2026-04-29T14:38:22.787Z</time></trkpt><trkpt lat="44.265511" lon="9.434297"><ele>41.0</ele><time>2026-04-29T14:38:23.786Z</time></trkpt><trkpt lat="44.2654759" lon="9.4344114"><ele>42.0</ele><time>2026-04-29T14:38:24.786Z</time></trkpt><trkpt lat="44.2654531" lon="9.4345249"><ele>43.0</ele><time>2026-04-29T14:38:25.788Z</time></trkpt><trkpt lat="44.26545" lon="9.4346427"><ele>44.0</ele><time>2026-04-29T14:38:26.788Z</time></trkpt><trkpt lat="44.2654662" lon="9.4347588"><ele>45.0</ele><time>2026-04-29T14:38:27.788Z</time></trkpt><trkpt lat="44.2654862" lon="9.4348769"><ele>46.0</ele><time>2026-04-29T14:38:28.786Z</time></trkpt><trkpt lat="44.2654979" lon="9.4350026"><ele>47.0</ele><time>2026-04-29T14:38:29.786Z</time></trkpt><trkpt lat="44.2654979" lon="9.4351331"><ele>48.0</ele><time>2026-04-29T14:38:30.788Z</time></trkpt><trkpt lat="44.2654823" lon="9.4352687"><ele>49.0</ele><time>2026-04-29T14:38:31.786Z</time></trkpt><trkpt lat="44.2654566" lon="9.4354185"><ele>50.0</ele><time>2026-04-29T14:38:32.788Z</time></trkpt><trkpt lat="44.2654302" lon="9.4355833"><ele>52.5</ele><time>2026-04-29T14:38:33.787Z</time></trkpt><trkpt lat="44.2654002" lon="9.4357565"><ele>55.0</ele><time>2026-04-29T14:38:34.787Z</time></trkpt><trkpt lat="44.2653597" lon="9.4359303"><ele>57.5</ele><time>2026-04-29T14:38:35.785Z</time></trkpt><trkpt lat="44.2653073" lon="9.4360801"><ele>60.0</ele><time>2026-04-29T14:38:36.788Z</time></trkpt><trkpt lat="44.2652461" lon="9.436217"><ele>62.2</ele><time>2026-04-29T14:38:37.788Z</time></trkpt><trkpt lat="44.2651826" lon="9.4363453"><ele>64.4</ele><time>2026-04-29T14:38:38.788Z</time></trkpt><trkpt lat="44.2651219" lon="9.436474"><ele>66.6</ele><time>2026-04-29T14:38:39.788Z</time></trkpt><trkpt lat="44.2650668" lon="9.4366008"><ele>68.8</ele><time>2026-04-29T14:38:40.789Z</time></trkpt><trkpt lat="44.2650243" lon="9.4367281"><ele>71.0</ele><time>2026-04-29T14:38:41.788Z</time></trkpt><trkpt lat="44.2649973" lon="9.4368531"><ele>71.0</ele><time>2026-04-29T14:38:42.787Z</time></trkpt><trkpt lat="44.2649914" lon="9.4369771"><ele>71.0</ele><time>2026-04-29T14:38:43.788Z</time></trkpt><trkpt lat="44.265008" lon="9.4370984"><ele>71.0</ele><time>2026-04-29T14:38:44.788Z</time></trkpt><trkpt lat="44.2650441" lon="9.43721"><ele>71.0</ele><time>2026-04-29T14:38:45.787Z</time></trkpt><trkpt lat="44.2650918" lon="9.437314"><ele>71.0</ele><time>2026-04-29T14:38:46.787Z</time></trkpt><trkpt lat="44.2651381" lon="9.4374152"><ele>71.0</ele><time>2026-04-29T14:38:47.786Z</time></trkpt><trkpt lat="44.2651727" lon="9.4375105"><ele>72.8</ele><time>2026-04-29T14:38:48.789Z</time></trkpt><trkpt lat="44.2651955" lon="9.4376005"><ele>74.6</ele><time>2026-04-29T14:38:49.786Z</time></trkpt><trkpt lat="44.2651958" lon="9.4376942"><ele>76.4</ele><time>2026-04-29T14:38:50.786Z</time></trkpt><trkpt lat="44.2651782" lon="9.4377812"><ele>78.2</ele><time>2026-04-29T14:38:51.788Z</time></trkpt><trkpt lat="44.265094" lon="9.4379053"><ele>80.0</ele><time>2026-04-29T14:38:53.787Z</time></trkpt><trkpt lat="44.2650006" lon="9.4380269"><ele>82.0</ele><time>2026-04-29T14:38:55.786Z</time></trkpt><trkpt lat="44.2649632" lon="9.4381223"><ele>84.0</ele><time>2026-04-29T14:38:56.786Z</time></trkpt><trkpt lat="44.2649345" lon="9.4382526"><ele>86.0</ele><time>2026-04-29T14:38:57.788Z</time></trkpt><trkpt lat="44.264912" lon="9.438423"><ele>88.0</ele><time>2026-04-29T14:38:58.787Z</time></trkpt><trkpt lat="44.2648902" lon="9.4386126"><ele>90.0</ele><time>2026-04-29T14:38:59.785Z</time></trkpt><trkpt lat="44.2648978" lon="9.4387763"><ele>90.5</ele><time>2026-04-29T14:39:00.786Z</time></trkpt><trkpt lat="44.2649437" lon="9.4389209"><ele>91.0</ele><time>2026-04-29T14:39:01.784Z</time></trkpt><trkpt lat="44.2650302" lon="9.4390419"><ele>91.5</ele><time>2026-04-29T14:39:02.785Z</time></trkpt><trkpt lat="44.2651356" lon="9.4391481"><ele>92.0</ele><time>2026-04-29T14:39:03.789Z</time></trkpt><trkpt lat="44.26523" lon="9.4392379"><ele>92.0</ele><time>2026-04-29T14:39:04.79Z</time></trkpt><trkpt lat="44.2652827" lon="9.43935"><ele>92.0</ele><time>2026-04-29T14:39:05.785Z</time></trkpt><trkpt lat="44.2653012" lon="9.4394756"><ele>92.0</ele><time>2026-04-29T14:39:06.787Z</time></trkpt><trkpt lat="44.2652804" lon="9.4396216"><ele>92.0</ele><time>2026-04-29T14:39:07.785Z</time></trkpt><trkpt lat="44.2652333" lon="9.4397853"><ele>92.0</ele><time>2026-04-29T14:39:08.784Z</time></trkpt><trkpt lat="44.2651456" lon="9.4399763"><ele>93.66666666666667</ele><time>2026-04-29T14:39:09.788Z</time></trkpt><trkpt lat="44.2650469" lon="9.4401761"><ele>95.33333333333334</ele><time>2026-04-29T14:39:10.788Z</time></trkpt><trkpt lat="44.2649502" lon="9.4403634"><ele>97.0</ele><time>2026-04-29T14:39:11.786Z</time></trkpt><trkpt lat="44.2648448" lon="9.4405214"><ele>99.0</ele><time>2026-04-29T14:39:12.787Z</time></trkpt><trkpt lat="44.2647133" lon="9.4406599"><ele>101.0</ele><time>2026-04-29T14:39:13.787Z</time></trkpt><trkpt lat="44.2645532" lon="9.4407949"><ele>103.0</ele><time>2026-04-29T14:39:14.786Z</time></trkpt><trkpt lat="44.2643722" lon="9.4409269"><ele>103.0</ele><time>2026-04-29T14:39:15.786Z</time></trkpt><trkpt lat="44.2642031" lon="9.4410222"><ele>103.0</ele><time>2026-04-29T14:39:16.786Z</time></trkpt><trkpt lat="44.2640638" lon="9.4410944"><ele>103.0</ele><time>2026-04-29T14:39:17.788Z</time></trkpt><trkpt lat="44.2639499" lon="9.4411916"><ele>105.5</ele><time>2026-04-29T14:39:18.787Z</time></trkpt><trkpt lat="44.2638726" lon="9.4413229"><ele>108.0</ele><time>2026-04-29T14:39:19.786Z</time></trkpt><trkpt lat="44.2638015" lon="9.4414589"><ele>110.5</ele><time>2026-04-29T14:39:20.786Z</time></trkpt><trkpt lat="44.2637149" lon="9.4415469"><ele>113.0</ele><time>2026-04-29T14:39:21.785Z</time></trkpt><trkpt lat="44.2636098" lon="9.4416054"><ele>113.0</ele><time>2026-04-29T14:39:22.787Z</time></trkpt><trkpt lat="44.2634896" lon="9.4416506"><ele>113.0</ele><time>2026-04-29T14:39:23.788Z</time></trkpt><trkpt lat="44.2633842" lon="9.4417371"><ele>113.0</ele><time>2026-04-29T14:39:24.788Z</time></trkpt><trkpt lat="44.2633111" lon="9.441852"><ele>113.0</ele><time>2026-04-29T14:39:25.787Z</time></trkpt><trkpt lat="44.2632676" lon="9.4419889"><ele>114.25</ele><time>2026-04-29T14:39:26.786Z</time></trkpt><trkpt lat="44.263241" lon="9.4421437"><ele>115.5</ele><time>2026-04-29T14:39:27.785Z</time></trkpt><trkpt lat="44.2632007" lon="9.4423053"><ele>116.75</ele><time>2026-04-29T14:39:28.787Z</time></trkpt><trkpt lat="44.2631284" lon="9.4424678"><ele>118.0</ele><time>2026-04-29T14:39:29.785Z</time></trkpt><trkpt lat="44.2630316" lon="9.442643"><ele>118.0</ele><time>2026-04-29T14:39:30.786Z</time></trkpt><trkpt lat="44.2629349" lon="9.4427832"><ele>118.00000000000001</ele><time>2026-04-29T14:39:31.784Z</time></trkpt><trkpt lat="44.2628464" lon="9.4428694"><ele>118.00000000000001</ele><time>2026-04-29T14:39:32.785Z</time></trkpt><trkpt lat="44.2627586" lon="9.4428951"><ele>118.0</ele><time>2026-04-29T14:39:33.786Z</time></trkpt><trkpt lat="44.2626537" lon="9.4428907"><ele>118.0</ele><time>2026-04-29T14:39:34.786Z</time></trkpt><trkpt lat="44.2625341" lon="9.4428999"><ele>118.0</ele><time>2026-04-29T14:39:35.785Z</time></trkpt><trkpt lat="44.2624259" lon="9.4429558"><ele>118.0</ele><time>2026-04-29T14:39:36.788Z</time></trkpt><trkpt lat="44.2623413" lon="9.4430589"><ele>118.0</ele><time>2026-04-29T14:39:37.787Z</time></trkpt><trkpt lat="44.2622774" lon="9.443197"><ele>118.0</ele><time>2026-04-29T14:39:38.786Z</time></trkpt><trkpt lat="44.262221" lon="9.4433706"><ele>119.33333333333334</ele><time>2026-04-29T14:39:39.785Z</time></trkpt><trkpt lat="44.2621647" lon="9.4435909"><ele>120.66666666666666</ele><time>2026-04-29T14:39:40.785Z</time></trkpt><trkpt lat="44.2621107" lon="9.4438004"><ele>122.0</ele><time>2026-04-29T14:39:41.785Z</time></trkpt><trkpt lat="44.2620424" lon="9.4439644"><ele>125.8</ele><time>2026-04-29T14:39:42.786Z</time></trkpt><trkpt lat="44.2619665" lon="9.4440789"><ele>129.6</ele><time>2026-04-29T14:39:43.787Z</time></trkpt><trkpt lat="44.2618877" lon="9.4441251"><ele>133.39999999999998</ele><time>2026-04-29T14:39:44.787Z</time></trkpt><trkpt lat="44.2617999" lon="9.4441169"><ele>137.2</ele><time>2026-04-29T14:39:45.786Z</time></trkpt><trkpt lat="44.2616958" lon="9.4440811"><ele>141.0</ele><time>2026-04-29T14:39:46.786Z</time></trkpt><trkpt lat="44.2615787" lon="9.4440676"><ele>141.0</ele><time>2026-04-29T14:39:47.785Z</time></trkpt><trkpt lat="44.2614649" lon="9.4441039"><ele>141.0</ele><time>2026-04-29T14:39:48.786Z</time></trkpt><trkpt lat="44.2613561" lon="9.4441841"><ele>141.0</ele><time>2026-04-29T14:39:49.787Z</time></trkpt><trkpt lat="44.2612594" lon="9.4442982"><ele>141.0</ele><time>2026-04-29T14:39:50.788Z</time></trkpt><trkpt lat="44.2612006" lon="9.4444228"><ele>139.8</ele><time>2026-04-29T14:39:51.786Z</time></trkpt><trkpt lat="44.2611566" lon="9.4445649"><ele>138.6</ele><time>2026-04-29T14:39:52.785Z</time></trkpt><trkpt lat="44.2611185" lon="9.4447034"><ele>137.4</ele><time>2026-04-29T14:39:53.787Z</time></trkpt><trkpt lat="44.2610674" lon="9.4448015"><ele>136.2</ele><time>2026-04-29T14:39:54.785Z</time></trkpt><trkpt lat="44.261001" lon="9.444854"><ele>135.0</ele><time>2026-04-29T14:39:55.788Z</time></trkpt><trkpt lat="44.2609201" lon="9.4448582"><ele>136.8</ele><time>2026-04-29T14:39:56.787Z</time></trkpt><trkpt lat="44.2608168" lon="9.4448382"><ele>138.6</ele><time>2026-04-29T14:39:57.786Z</time></trkpt><trkpt lat="44.2606933" lon="9.4448164"><ele>140.4</ele><time>2026-04-29T14:39:58.786Z</time></trkpt><trkpt lat="44.2605954" lon="9.4448035"><ele>142.2</ele><time>2026-04-29T14:39:59.787Z</time></trkpt><trkpt lat="44.260507" lon="9.444796"><ele>144.0</ele><time>2026-04-29T14:40:00.787Z</time></trkpt><trkpt lat="44.2604234" lon="9.4447975"><ele>144.0</ele><time>2026-04-29T14:40:01.785Z</time></trkpt><trkpt lat="44.260346" lon="9.444821"><ele>144.0</ele><time>2026-04-29T14:40:02.785Z</time></trkpt><trkpt lat="44.2602748" lon="9.4448683"><ele>144.0</ele><time>2026-04-29T14:40:03.785Z</time></trkpt><trkpt lat="44.2602165" lon="9.4449425"><ele>144.0</ele><time>2026-04-29T14:40:04.792Z</time></trkpt><trkpt lat="44.2601728" lon="9.4450316"><ele>144.0</ele><time>2026-04-29T14:40:05.785Z</time></trkpt><trkpt lat="44.260133" lon="9.4451231"><ele>144.0</ele><time>2026-04-29T14:40:06.785Z</time></trkpt><trkpt lat="44.2601023" lon="9.4452231"><ele>144.0</ele><time>2026-04-29T14:40:07.785Z</time></trkpt><trkpt lat="44.2600806" lon="9.4453267"><ele>144.0</ele><time>2026-04-29T14:40:08.785Z</time></trkpt><trkpt lat="44.2600788" lon="9.4454393"><ele>144.0</ele><time>2026-04-29T14:40:09.786Z</time></trkpt><trkpt lat="44.2600914" lon="9.4455516"><ele>144.0</ele><time>2026-04-29T14:40:10.785Z</time></trkpt><trkpt lat="44.2601144" lon="9.4456558"><ele>144.0</ele><time>2026-04-29T14:40:11.785Z</time></trkpt><trkpt lat="44.2601411" lon="9.4457544"><ele>144.0</ele><time>2026-04-29T14:40:12.785Z</time></trkpt><trkpt lat="44.2601802" lon="9.4458495"><ele>144.83333333333334</ele><time>2026-04-29T14:40:13.785Z</time></trkpt><trkpt lat="44.2602321" lon="9.4459411"><ele>145.66666666666666</ele><time>2026-04-29T14:40:14.784Z</time></trkpt><trkpt lat="44.2602975" lon="9.4460173"><ele>146.5</ele><time>2026-04-29T14:40:15.786Z</time></trkpt><trkpt lat="44.260365" lon="9.4460713"><ele>147.33333333333331</ele><time>2026-04-29T14:40:16.787Z</time></trkpt><trkpt lat="44.2604387" lon="9.4461151"><ele>148.16666666666666</ele><time>2026-04-29T14:40:17.784Z</time></trkpt><trkpt lat="44.2605173" lon="9.4461463"><ele>149.0</ele><time>2026-04-29T14:40:18.786Z</time></trkpt><trkpt lat="44.2605947" lon="9.4461643"><ele>152.83333333333331</ele><time>2026-04-29T14:40:19.785Z</time></trkpt><trkpt lat="44.2606795" lon="9.4461628"><ele>156.66666666666666</ele><time>2026-04-29T14:40:20.787Z</time></trkpt><trkpt lat="44.2607618" lon="9.4461327"><ele>160.5</ele><time>2026-04-29T14:40:21.787Z</time></trkpt><trkpt lat="44.2608429" lon="9.4460822"><ele>164.33333333333334</ele><time>2026-04-29T14:40:22.785Z</time></trkpt><trkpt lat="44.2609261" lon="9.4460286"><ele>168.16666666666669</ele><time>2026-04-29T14:40:23.785Z</time></trkpt><trkpt lat="44.2609998" lon="9.4459792"><ele>172.0</ele><time>2026-04-29T14:40:24.785Z</time></trkpt><trkpt lat="44.2610714" lon="9.4459263"><ele>172.00000000000003</ele><time>2026-04-29T14:40:25.785Z</time></trkpt><trkpt lat="44.2611432" lon="9.4458738"><ele>172.0</ele><time>2026-04-29T14:40:26.786Z</time></trkpt><trkpt lat="44.2612093" lon="9.4458257"><ele>172.0</ele><time>2026-04-29T14:40:27.786Z</time></trkpt><trkpt lat="44.2612689" lon="9.4457798"><ele>172.0</ele><time>2026-04-29T14:40:28.786Z</time></trkpt><trkpt lat="44.2613309" lon="9.4457358"><ele>172.0</ele><time>2026-04-29T14:40:29.786Z</time></trkpt><trkpt lat="44.2613975" lon="9.4456898"><ele>172.00000000000003</ele><time>2026-04-29T14:40:30.786Z</time></trkpt><trkpt lat="44.2614645" lon="9.4456393"><ele>172.0</ele><time>2026-04-29T14:40:31.786Z</time></trkpt><trkpt lat="44.2615353" lon="9.4455841"><ele>173.39999999999998</ele><time>2026-04-29T14:40:32.786Z</time></trkpt><trkpt lat="44.2616171" lon="9.4455372"><ele>174.79999999999998</ele><time>2026-04-29T14:40:33.786Z</time></trkpt><trkpt lat="44.2617109" lon="9.4455051"><ele>176.2</ele><time>2026-04-29T14:40:34.787Z</time></trkpt><trkpt lat="44.2618092" lon="9.4455073"><ele>177.6</ele><time>2026-04-29T14:40:35.787Z</time></trkpt><trkpt lat="44.2619087" lon="9.4455454"><ele>179.0</ele><time>2026-04-29T14:40:36.786Z</time></trkpt><trkpt lat="44.2620079" lon="9.4456227"><ele>179.0</ele><time>2026-04-29T14:40:37.785Z</time></trkpt><trkpt lat="44.2621061" lon="9.4457308"><ele>179.0</ele><time>2026-04-29T14:40:38.785Z</time></trkpt><trkpt lat="44.2622028" lon="9.4458595"><ele>179.0</ele><time>2026-04-29T14:40:39.785Z</time></trkpt><trkpt lat="44.2622848" lon="9.4459765"><ele>179.0</ele><time>2026-04-29T14:40:40.787Z</time></trkpt><trkpt lat="44.2623512" lon="9.4460719"><ele>177.85714285714286</ele><time>2026-04-29T14:40:41.785Z</time></trkpt><trkpt lat="44.2624031" lon="9.4461481"><ele>176.71428571428572</ele><time>2026-04-29T14:40:42.786Z</time></trkpt><trkpt lat="44.2624503" lon="9.4462116"><ele>175.57142857142856</ele><time>2026-04-29T14:40:43.787Z</time></trkpt><trkpt lat="44.2625005" lon="9.4462767"><ele>174.42857142857144</ele><time>2026-04-29T14:40:44.785Z</time></trkpt><trkpt lat="44.2625599" lon="9.4463287"><ele>173.28571428571428</ele><time>2026-04-29T14:40:45.786Z</time></trkpt><trkpt lat="44.2626279" lon="9.4463703"><ele>172.14285714285714</ele><time>2026-04-29T14:40:46.787Z</time></trkpt><trkpt lat="44.2627043" lon="9.4464"><ele>171.0</ele><time>2026-04-29T14:40:47.786Z</time></trkpt><trkpt lat="44.2627877" lon="9.4464152"><ele>173.0</ele><time>2026-04-29T14:40:48.785Z</time></trkpt><trkpt lat="44.2628711" lon="9.4464278"><ele>175.0</ele><time>2026-04-29T14:40:49.786Z</time></trkpt><trkpt lat="44.2629608" lon="9.4464401"><ele>177.0</ele><time>2026-04-29T14:40:50.785Z</time></trkpt><trkpt lat="44.2630503" lon="9.4464519"><ele>179.0</ele><time>2026-04-29T14:40:51.787Z</time></trkpt><trkpt lat="44.2631396" lon="9.4464625"><ele>181.0</ele><time>2026-04-29T14:40:52.787Z</time></trkpt><trkpt lat="44.2632237" lon="9.4464735"><ele>183.0</ele><time>2026-04-29T14:40:53.785Z</time></trkpt><trkpt lat="44.263299" lon="9.4464841"><ele>183.0</ele><time>2026-04-29T14:40:54.788Z</time></trkpt><trkpt lat="44.2633715" lon="9.44651"><ele>183.0</ele><time>2026-04-29T14:40:55.787Z</time></trkpt><trkpt lat="44.2634331" lon="9.446556"><ele>183.0</ele><time>2026-04-29T14:40:56.785Z</time></trkpt><trkpt lat="44.2634715" lon="9.4466273"><ele>183.0</ele><time>2026-04-29T14:40:57.785Z</time></trkpt><trkpt lat="44.2634829" lon="9.4467148"><ele>183.0</ele><time>2026-04-29T14:40:58.788Z</time></trkpt><trkpt lat="44.2634075" lon="9.4468511"><ele>183.0</ele><time>2026-04-29T14:41:00.786Z</time></trkpt><trkpt lat="44.2633397" lon="9.4468969"><ele>183.0</ele><time>2026-04-29T14:41:01.786Z</time></trkpt><trkpt lat="44.2632586" lon="9.446927"><ele>183.0</ele><time>2026-04-29T14:41:02.786Z</time></trkpt><trkpt lat="44.2631526" lon="9.446951"><ele>183.0</ele><time>2026-04-29T14:41:03.786Z</time></trkpt><trkpt lat="44.2630186" lon="9.4469698"><ele>183.0</ele><time>2026-04-29T14:41:04.785Z</time></trkpt><trkpt lat="44.2628733" lon="9.4469816"><ele>182.0</ele><time>2026-04-29T14:41:05.787Z</time></trkpt><trkpt lat="44.2627451" lon="9.4470055"><ele>181.0</ele><time>2026-04-29T14:41:06.787Z</time></trkpt><trkpt lat="44.2626347" lon="9.447054"><ele>180.0</ele><time>2026-04-29T14:41:07.786Z</time></trkpt><trkpt lat="44.2625378" lon="9.447125"><ele>179.0</ele><time>2026-04-29T14:41:08.786Z</time></trkpt><trkpt lat="44.2624556" lon="9.4472002"><ele>179.0</ele><time>2026-04-29T14:41:09.786Z</time></trkpt><trkpt lat="44.2623803" lon="9.4472607"><ele>179.0</ele><time>2026-04-29T14:41:10.786Z</time></trkpt><trkpt lat="44.2623043" lon="9.4473087"><ele>179.0</ele><time>2026-04-29T14:41:11.787Z</time></trkpt><trkpt lat="44.2622248" lon="9.4473395"><ele>179.0</ele><time>2026-04-29T14:41:12.788Z</time></trkpt><trkpt lat="44.2621428" lon="9.4473645"><ele>179.0</ele><time>2026-04-29T14:41:13.788Z</time></trkpt><trkpt lat="44.2620726" lon="9.4473971"><ele>179.0</ele><time>2026-04-29T14:41:14.785Z</time></trkpt><trkpt lat="44.2620105" lon="9.4474417"><ele>183.2</ele><time>2026-04-29T14:41:15.787Z</time></trkpt><trkpt lat="44.2619537" lon="9.4475036"><ele>187.39999999999998</ele><time>2026-04-29T14:41:16.785Z</time></trkpt><trkpt lat="44.2618985" lon="9.4475882"><ele>191.6</ele><time>2026-04-29T14:41:17.785Z</time></trkpt><trkpt lat="44.2618432" lon="9.4476955"><ele>195.8</ele><time>2026-04-29T14:41:18.788Z</time></trkpt><trkpt lat="44.261794" lon="9.4478179"><ele>200.0</ele><time>2026-04-29T14:41:19.787Z</time></trkpt><trkpt lat="44.2617545" lon="9.4479573"><ele>199.75</ele><time>2026-04-29T14:41:20.792Z</time></trkpt><trkpt lat="44.2617299" lon="9.4481139"><ele>199.5</ele><time>2026-04-29T14:41:21.786Z</time></trkpt><trkpt lat="44.2617138" lon="9.448288"><ele>199.25</ele><time>2026-04-29T14:41:22.785Z</time></trkpt><trkpt lat="44.2617011" lon="9.4484578"><ele>199.0</ele><time>2026-04-29T14:41:23.785Z</time></trkpt><trkpt lat="44.2616903" lon="9.4486122"><ele>199.0</ele><time>2026-04-29T14:41:24.787Z</time></trkpt><trkpt lat="44.2616789" lon="9.4487632"><ele>199.0</ele><time>2026-04-29T14:41:25.786Z</time></trkpt><trkpt lat="44.2616697" lon="9.4489007"><ele>199.0</ele><time>2026-04-29T14:41:26.784Z</time></trkpt><trkpt lat="44.2616541" lon="9.4490276"><ele>199.0</ele><time>2026-04-29T14:41:27.786Z</time></trkpt><trkpt lat="44.2616298" lon="9.4491544"><ele>199.0</ele><time>2026-04-29T14:41:28.787Z</time></trkpt><trkpt lat="44.2615926" lon="9.4492927"><ele>199.0</ele><time>2026-04-29T14:41:29.785Z</time></trkpt><trkpt lat="44.2615487" lon="9.4494495"><ele>199.0</ele><time>2026-04-29T14:41:30.785Z</time></trkpt><trkpt lat="44.2614995" lon="9.4496198"><ele>199.0</ele><time>2026-04-29T14:41:31.786Z</time></trkpt><trkpt lat="44.2614457" lon="9.4498112"><ele>199.0</ele><time>2026-04-29T14:41:32.785Z</time></trkpt><trkpt lat="44.261401" lon="9.4500124"><ele>203.5</ele><time>2026-04-29T14:41:33.787Z</time></trkpt><trkpt lat="44.2613699" lon="9.4501958"><ele>208.0</ele><time>2026-04-29T14:41:34.787Z</time></trkpt><trkpt lat="44.2613654" lon="9.4503686"><ele>212.5</ele><time>2026-04-29T14:41:35.786Z</time></trkpt><trkpt lat="44.2613716" lon="9.450511"><ele>217.0</ele><time>2026-04-29T14:41:36.786Z</time></trkpt><trkpt lat="44.2613706" lon="9.4506347"><ele>218.16666666666666</ele><time>2026-04-29T14:41:37.787Z</time></trkpt><trkpt lat="44.2613554" lon="9.4507412"><ele>219.33333333333331</ele><time>2026-04-29T14:41:38.792Z</time></trkpt><trkpt lat="44.2613252" lon="9.45083"><ele>220.5</ele><time>2026-04-29T14:41:39.785Z</time></trkpt><trkpt lat="44.2612817" lon="9.4509138"><ele>221.66666666666669</ele><time>2026-04-29T14:41:40.787Z</time></trkpt><trkpt lat="44.2612089" lon="9.4510019"><ele>222.83333333333334</ele><time>2026-04-29T14:41:41.786Z</time></trkpt><trkpt lat="44.2611081" lon="9.4510943"><ele>224.0</ele><time>2026-04-29T14:41:42.785Z</time></trkpt><trkpt lat="44.2609872" lon="9.4511898"><ele>224.0</ele><time>2026-04-29T14:41:43.785Z</time></trkpt><trkpt lat="44.2608584" lon="9.451278"><ele>224.0</ele><time>2026-04-29T14:41:44.785Z</time></trkpt><trkpt lat="44.2607402" lon="9.4513601"><ele>224.0</ele><time>2026-04-29T14:41:45.786Z</time></trkpt><trkpt lat="44.2606439" lon="9.451447"><ele>224.0</ele><time>2026-04-29T14:41:46.791Z</time></trkpt><trkpt lat="44.2605798" lon="9.4515546"><ele>225.6</ele><time>2026-04-29T14:41:47.786Z</time></trkpt><trkpt lat="44.2605288" lon="9.4516746"><ele>227.2</ele><time>2026-04-29T14:41:48.786Z</time></trkpt><trkpt lat="44.2604654" lon="9.4517861"><ele>228.79999999999998</ele><time>2026-04-29T14:41:49.784Z</time></trkpt><trkpt lat="44.260382" lon="9.4518832"><ele>230.39999999999998</ele><time>2026-04-29T14:41:50.786Z</time></trkpt><trkpt lat="44.2602896" lon="9.451965"><ele>232.0</ele><time>2026-04-29T14:41:51.787Z</time></trkpt><trkpt lat="44.2601865" lon="9.4520212"><ele>232.0</ele><time>2026-04-29T14:41:52.787Z</time></trkpt><trkpt lat="44.2600774" lon="9.4520684"><ele>232.0</ele><time>2026-04-29T14:41:53.785Z</time></trkpt><trkpt lat="44.2599667" lon="9.4521377"><ele>232.0</ele><time>2026-04-29T14:41:54.792Z</time></trkpt><trkpt lat="44.2598925" lon="9.4522317"><ele>232.0</ele><time>2026-04-29T14:41:55.785Z</time></trkpt><trkpt lat="44.2598552" lon="9.4523539"><ele>232.0</ele><time>2026-04-29T14:41:56.786Z</time></trkpt><trkpt lat="44.259854" lon="9.4524969"><ele>231.5</ele><time>2026-04-29T14:41:57.787Z</time></trkpt><trkpt lat="44.2598905" lon="9.4526558"><ele>231.0</ele><time>2026-04-29T14:41:58.786Z</time></trkpt><trkpt lat="44.2599466" lon="9.4528426"><ele>230.5</ele><time>2026-04-29T14:41:59.787Z</time></trkpt><trkpt lat="44.2600105" lon="9.4530617"><ele>230.0</ele><time>2026-04-29T14:42:00.787Z</time></trkpt><trkpt lat="44.2600831" lon="9.4533093"><ele>232.0</ele><time>2026-04-29T14:42:01.786Z</time></trkpt><trkpt lat="44.2601506" lon="9.4535499"><ele>234.0</ele><time>2026-04-29T14:42:02.784Z</time></trkpt><trkpt lat="44.2602038" lon="9.4537646"><ele>236.0</ele><time>2026-04-29T14:42:03.788Z</time></trkpt><trkpt lat="44.2602363" lon="9.4539652"><ele>236.5</ele><time>2026-04-29T14:42:04.787Z</time></trkpt><trkpt lat="44.2602371" lon="9.4541472"><ele>237.0</ele><time>2026-04-29T14:42:05.786Z</time></trkpt><trkpt lat="44.2602085" lon="9.454325"><ele>237.5</ele><time>2026-04-29T14:42:06.787Z</time></trkpt><trkpt lat="44.260154" lon="9.4545141"><ele>238.0</ele><time>2026-04-29T14:42:07.785Z</time></trkpt><trkpt lat="44.2600775" lon="9.4547195"><ele>238.0</ele><time>2026-04-29T14:42:08.785Z</time></trkpt><trkpt lat="44.259985" lon="9.4549523"><ele>238.0</ele><time>2026-04-29T14:42:09.786Z</time></trkpt><trkpt lat="44.2598916" lon="9.4551778"><ele>238.0</ele><time>2026-04-29T14:42:10.79Z</time></trkpt><trkpt lat="44.2598067" lon="9.4553713"><ele>250.5</ele><time>2026-04-29T14:42:11.785Z</time></trkpt><trkpt lat="44.2597421" lon="9.4555397"><ele>263.0</ele><time>2026-04-29T14:42:12.786Z</time></trkpt><trkpt lat="44.2597098" lon="9.4556897"><ele>275.5</ele><time>2026-04-29T14:42:13.785Z</time></trkpt><trkpt lat="44.2596913" lon="9.4558383"><ele>288.0</ele><time>2026-04-29T14:42:14.785Z</time></trkpt><trkpt lat="44.2597664" lon="9.4559815"><ele>289.75</ele><time>2026-04-29T14:42:15.786Z</time></trkpt><trkpt lat="44.2597994" lon="9.4561471"><ele>291.5</ele><time>2026-04-29T14:42:16.784Z</time></trkpt><trkpt lat="44.2598056" lon="9.4563226"><ele>293.25</ele><time>2026-04-29T14:42:17.788Z</time></trkpt><trkpt lat="44.2597845" lon="9.4565125"><ele>295.0</ele><time>2026-04-29T14:42:18.787Z</time></trkpt><trkpt lat="44.2597566" lon="9.4567104"><ele>295.0</ele><time>2026-04-29T14:42:19.786Z</time></trkpt><trkpt lat="44.2597527" lon="9.456882"><ele>295.0</ele><time>2026-04-29T14:42:20.786Z</time></trkpt><trkpt lat="44.2597814" lon="9.4570401"><ele>295.0</ele><time>2026-04-29T14:42:21.785Z</time></trkpt><trkpt lat="44.2598497" lon="9.4571709"><ele>295.0</ele><time>2026-04-29T14:42:22.786Z</time></trkpt><trkpt lat="44.2599394" lon="9.457282"><ele>286.6</ele><time>2026-04-29T14:42:23.787Z</time></trkpt><trkpt lat="44.2600423" lon="9.4573838"><ele>278.2</ele><time>2026-04-29T14:42:24.787Z</time></trkpt><trkpt lat="44.260116" lon="9.4575026"><ele>269.8</ele><time>2026-04-29T14:42:25.786Z</time></trkpt><trkpt lat="44.2601545" lon="9.4576389"><ele>261.4</ele><time>2026-04-29T14:42:26.785Z</time></trkpt><trkpt lat="44.260149" lon="9.4577782"><ele>253.0</ele><time>2026-04-29T14:42:27.785Z</time></trkpt><trkpt lat="44.2601012" lon="9.4578953"><ele>250.0</ele><time>2026-04-29T14:42:28.784Z</time></trkpt><trkpt lat="44.2600184" lon="9.4579829"><ele>247.0</ele><time>2026-04-29T14:42:29.788Z</time></trkpt><trkpt lat="44.2599148" lon="9.4580358"><ele>244.0</ele><time>2026-04-29T14:42:30.786Z</time></trkpt><trkpt lat="44.259797" lon="9.4580845"><ele>241.0</ele><time>2026-04-29T14:42:31.792Z</time></trkpt><trkpt lat="44.2596835" lon="9.4581739"><ele>246.25</ele><time>2026-04-29T14:42:32.786Z</time></trkpt><trkpt lat="44.259597" lon="9.4583071"><ele>251.5</ele><time>2026-04-29T14:42:33.784Z</time></trkpt><trkpt lat="44.2595458" lon="9.4584747"><ele>256.75</ele><time>2026-04-29T14:42:34.784Z</time></trkpt><trkpt lat="44.2595286" lon="9.4586617"><ele>262.0</ele><time>2026-04-29T14:42:35.785Z</time></trkpt><trkpt lat="44.2595455" lon="9.4588558"><ele>262.0</ele><time>2026-04-29T14:42:36.787Z</time></trkpt><trkpt lat="44.2595703" lon="9.4590353"><ele>262.0</ele><time>2026-04-29T14:42:37.786Z</time></trkpt><trkpt lat="44.2595831" lon="9.4591939"><ele>262.0</ele><time>2026-04-29T14:42:38.783Z</time></trkpt><trkpt lat="44.2595519" lon="9.4593216"><ele>262.0</ele><time>2026-04-29T14:42:39.784Z</time></trkpt><trkpt lat="44.2594941" lon="9.4594189"><ele>262.0</ele><time>2026-04-29T14:42:40.782Z</time></trkpt><trkpt lat="44.2594033" lon="9.4594682"><ele>262.0</ele><time>2026-04-29T14:42:41.785Z</time></trkpt><trkpt lat="44.2592803" lon="9.4594807"><ele>262.0</ele><time>2026-04-29T14:42:42.788Z</time></trkpt><trkpt lat="44.2591358" lon="9.4594716"><ele>262.0</ele><time>2026-04-29T14:42:43.787Z</time></trkpt><trkpt lat="44.258975" lon="9.4594548"><ele>262.0</ele><time>2026-04-29T14:42:44.786Z</time></trkpt><trkpt lat="44.2588488" lon="9.4594454"><ele>265.0</ele><time>2026-04-29T14:42:45.784Z</time></trkpt><trkpt lat="44.2587422" lon="9.4594677"><ele>268.0</ele><time>2026-04-29T14:42:46.784Z</time></trkpt><trkpt lat="44.2586704" lon="9.4595407"><ele>271.0</ele><time>2026-04-29T14:42:47.786Z</time></trkpt><trkpt lat="44.258624" lon="9.459664"><ele>274.0</ele><time>2026-04-29T14:42:48.787Z</time></trkpt><trkpt lat="44.2585836" lon="9.4598184"><ele>277.0</ele><time>2026-04-29T14:42:49.787Z</time></trkpt><trkpt lat="44.2585546" lon="9.4600129"><ele>277.0</ele><time>2026-04-29T14:42:50.787Z</time></trkpt><trkpt lat="44.2585229" lon="9.4602292"><ele>277.0</ele><time>2026-04-29T14:42:51.786Z</time></trkpt><trkpt lat="44.2584815" lon="9.4604697"><ele>277.0</ele><time>2026-04-29T14:42:52.785Z</time></trkpt><trkpt lat="44.2584517" lon="9.4606715"><ele>277.25</ele><time>2026-04-29T14:42:53.786Z</time></trkpt><trkpt lat="44.2584539" lon="9.4608633"><ele>277.5</ele><time>2026-04-29T14:42:54.792Z</time></trkpt><trkpt lat="44.2584967" lon="9.461042"><ele>277.75</ele><time>2026-04-29T14:42:55.786Z</time></trkpt><trkpt lat="44.258546" lon="9.4612154"><ele>278.0</ele><time>2026-04-29T14:42:56.786Z</time></trkpt><trkpt lat="44.2585671" lon="9.4614088"><ele>278.0</ele><time>2026-04-29T14:42:57.786Z</time></trkpt><trkpt lat="44.258583" lon="9.4616161"><ele>278.0</ele><time>2026-04-29T14:42:58.786Z</time></trkpt><trkpt lat="44.2586027" lon="9.4618177"><ele>278.0</ele><time>2026-04-29T14:42:59.785Z</time></trkpt><trkpt lat="44.2586363" lon="9.4619883"><ele>278.0</ele><time>2026-04-29T14:43:00.783Z</time></trkpt><trkpt lat="44.2586923" lon="9.4621375"><ele>277.5</ele><time>2026-04-29T14:43:01.789Z</time></trkpt><trkpt lat="44.258785" lon="9.4622552"><ele>277.0</ele><time>2026-04-29T14:43:02.787Z</time></trkpt><trkpt lat="44.2589116" lon="9.4623154"><ele>276.5</ele><time>2026-04-29T14:43:03.786Z</time></trkpt><trkpt lat="44.2589947" lon="9.4624006"><ele>276.0</ele><time>2026-04-29T14:43:04.786Z</time></trkpt><trkpt lat="44.2590431" lon="9.4625096"><ele>276.0</ele><time>2026-04-29T14:43:05.786Z</time></trkpt><trkpt lat="44.2590517" lon="9.4626313"><ele>276.0</ele><time>2026-04-29T14:43:06.786Z</time></trkpt><trkpt lat="44.2590226" lon="9.4627451"><ele>276.0</ele><time>2026-04-29T14:43:07.784Z</time></trkpt><trkpt lat="44.2589584" lon="9.4628477"><ele>276.0</ele><time>2026-04-29T14:43:08.786Z</time></trkpt><trkpt lat="44.2588546" lon="9.4629423"><ele>276.0</ele><time>2026-04-29T14:43:09.787Z</time></trkpt><trkpt lat="44.2587185" lon="9.4630395"><ele>270.0</ele><time>2026-04-29T14:43:10.786Z</time></trkpt><trkpt lat="44.258576" lon="9.4631219"><ele>264.0</ele><time>2026-04-29T14:43:11.785Z</time></trkpt><trkpt lat="44.2584506" lon="9.4631777"><ele>258.0</ele><time>2026-04-29T14:43:12.785Z</time></trkpt><trkpt lat="44.2583301" lon="9.4631955"><ele>252.0</ele><time>2026-04-29T14:43:13.784Z</time></trkpt><trkpt lat="44.2582123" lon="9.4631769"><ele>250.0</ele><time>2026-04-29T14:43:14.787Z</time></trkpt><trkpt lat="44.2581105" lon="9.4631106"><ele>248.0</ele><time>2026-04-29T14:43:15.788Z</time></trkpt><trkpt lat="44.2580101" lon="9.463007"><ele>246.0</ele><time>2026-04-29T14:43:16.785Z</time></trkpt><trkpt lat="44.2578996" lon="9.4628475"><ele>244.0</ele><time>2026-04-29T14:43:17.784Z</time></trkpt><trkpt lat="44.2577728" lon="9.4626367"><ele>253.66666666666666</ele><time>2026-04-29T14:43:18.792Z</time></trkpt><trkpt lat="44.2576611" lon="9.4624396"><ele>263.3333333333333</ele><time>2026-04-29T14:43:19.786Z</time></trkpt><trkpt lat="44.2575621" lon="9.4622785"><ele>273.0</ele><time>2026-04-29T14:43:20.787Z</time></trkpt><trkpt lat="44.2574534" lon="9.4621823"><ele>273.0</ele><time>2026-04-29T14:43:21.785Z</time></trkpt><trkpt lat="44.2573304" lon="9.462155"><ele>273.0</ele><time>2026-04-29T14:43:22.786Z</time></trkpt><trkpt lat="44.2572148" lon="9.4621231"><ele>273.0</ele><time>2026-04-29T14:43:23.786Z</time></trkpt><trkpt lat="44.2571401" lon="9.4622977"><ele>273.0</ele><time>2026-04-29T14:43:24.785Z</time></trkpt><trkpt lat="44.2570761" lon="9.4624308"><ele>274.5</ele><time>2026-04-29T14:43:25.787Z</time></trkpt><trkpt lat="44.2570108" lon="9.4625485"><ele>276.0</ele><time>2026-04-29T14:43:26.788Z</time></trkpt><trkpt lat="44.2569182" lon="9.4626159"><ele>277.5</ele><time>2026-04-29T14:43:27.785Z</time></trkpt><trkpt lat="44.2568094" lon="9.4626376"><ele>279.0</ele><time>2026-04-29T14:43:28.787Z</time></trkpt><trkpt lat="44.2566809" lon="9.4626095"><ele>279.0</ele><time>2026-04-29T14:43:29.786Z</time></trkpt><trkpt lat="44.2565355" lon="9.4625578"><ele>279.0</ele><time>2026-04-29T14:43:30.786Z</time></trkpt><trkpt lat="44.2564007" lon="9.4625171"><ele>279.0</ele><time>2026-04-29T14:43:31.785Z</time></trkpt><trkpt lat="44.2562916" lon="9.4625114"><ele>279.0</ele><time>2026-04-29T14:43:32.786Z</time></trkpt><trkpt lat="44.2561966" lon="9.4625695"><ele>279.25</ele><time>2026-04-29T14:43:33.787Z</time></trkpt><trkpt lat="44.2561094" lon="9.4626875"><ele>279.5</ele><time>2026-04-29T14:43:34.788Z</time></trkpt><trkpt lat="44.2560103" lon="9.4628536"><ele>279.75</ele><time>2026-04-29T14:43:35.786Z</time></trkpt><trkpt lat="44.2558981" lon="9.4630278"><ele>280.0</ele><time>2026-04-29T14:43:36.785Z</time></trkpt><trkpt lat="44.2558051" lon="9.4631881"><ele>280.0</ele><time>2026-04-29T14:43:37.787Z</time></trkpt><trkpt lat="44.2557427" lon="9.4633351"><ele>280.0</ele><time>2026-04-29T14:43:38.782Z</time></trkpt><trkpt lat="44.2557379" lon="9.4634864"><ele>280.0</ele><time>2026-04-29T14:43:39.786Z</time></trkpt><trkpt lat="44.2557706" lon="9.4636311"><ele>280.0</ele><time>2026-04-29T14:43:40.788Z</time></trkpt><trkpt lat="44.2558413" lon="9.4637871"><ele>284.66666666666663</ele><time>2026-04-29T14:43:41.788Z</time></trkpt><trkpt lat="44.2559336" lon="9.463959"><ele>289.3333333333333</ele><time>2026-04-29T14:43:42.785Z</time></trkpt><trkpt lat="44.2560319" lon="9.4641357"><ele>294.0</ele><time>2026-04-29T14:43:43.786Z</time></trkpt><trkpt lat="44.2561234" lon="9.4642888"><ele>294.0</ele><time>2026-04-29T14:43:44.786Z</time></trkpt><trkpt lat="44.2562192" lon="9.4644227"><ele>294.0</ele><time>2026-04-29T14:43:45.784Z</time></trkpt><trkpt lat="44.2563328" lon="9.4645259"><ele>294.0</ele><time>2026-04-29T14:43:46.786Z</time></trkpt><trkpt lat="44.2564404" lon="9.4646271"><ele>294.0</ele><time>2026-04-29T14:43:47.787Z</time></trkpt><trkpt lat="44.2565261" lon="9.4647556"><ele>287.75</ele><time>2026-04-29T14:43:48.785Z</time></trkpt><trkpt lat="44.2566047" lon="9.4649185"><ele>281.5</ele><time>2026-04-29T14:43:49.785Z</time></trkpt><trkpt lat="44.2566683" lon="9.465071"><ele>275.25</ele><time>2026-04-29T14:43:50.786Z</time></trkpt><trkpt lat="44.2567045" lon="9.465214"><ele>269.0</ele><time>2026-04-29T14:43:51.785Z</time></trkpt><trkpt lat="44.2566976" lon="9.4653563"><ele>270.0</ele><time>2026-04-29T14:43:52.788Z</time></trkpt><trkpt lat="44.2566578" lon="9.4655087"><ele>271.0</ele><time>2026-04-29T14:43:53.787Z</time></trkpt><trkpt lat="44.2565905" lon="9.465684"><ele>272.0</ele><time>2026-04-29T14:43:54.786Z</time></trkpt><trkpt lat="44.2565103" lon="9.4658962"><ele>273.0</ele><time>2026-04-29T14:43:55.786Z</time></trkpt><trkpt lat="44.2564274" lon="9.4661187"><ele>290.3333333333333</ele><time>2026-04-29T14:43:56.784Z</time></trkpt><trkpt lat="44.2563609" lon="9.4663336"><ele>307.66666666666663</ele><time>2026-04-29T14:43:57.785Z</time></trkpt><trkpt lat="44.2563171" lon="9.466561"><ele>325.0</ele><time>2026-04-29T14:43:58.785Z</time></trkpt><trkpt lat="44.256291" lon="9.4667561"><ele>325.0</ele><time>2026-04-29T14:43:59.785Z</time></trkpt><trkpt lat="44.2562753" lon="9.4669058"><ele>325.0</ele><time>2026-04-29T14:44:00.786Z</time></trkpt><trkpt lat="44.2562874" lon="9.4670369"><ele>325.0</ele><time>2026-04-29T14:44:01.786Z</time></trkpt><trkpt lat="44.2563634" lon="9.4671425"><ele>325.0</ele><time>2026-04-29T14:44:02.786Z</time></trkpt><trkpt lat="44.2564557" lon="9.4672214"><ele>325.0</ele><time>2026-04-29T14:44:03.786Z</time></trkpt><trkpt lat="44.256571" lon="9.4673177"><ele>317.0</ele><time>2026-04-29T14:44:04.792Z</time></trkpt><trkpt lat="44.2566817" lon="9.4674416"><ele>309.0</ele><time>2026-04-29T14:44:05.787Z</time></trkpt><trkpt lat="44.2567672" lon="9.4675872"><ele>301.0</ele><time>2026-04-29T14:44:06.787Z</time></trkpt><trkpt lat="44.2568277" lon="9.4677378"><ele>293.0</ele><time>2026-04-29T14:44:07.787Z</time></trkpt><trkpt lat="44.2569073" lon="9.467877"><ele>298.25</ele><time>2026-04-29T14:44:08.786Z</time></trkpt><trkpt lat="44.2570144" lon="9.4679727"><ele>303.5</ele><time>2026-04-29T14:44:09.784Z</time></trkpt><trkpt lat="44.2571211" lon="9.4680553"><ele>308.75</ele><time>2026-04-29T14:44:10.785Z</time></trkpt><trkpt lat="44.2571862" lon="9.4681802"><ele>314.0</ele><time>2026-04-29T14:44:11.787Z</time></trkpt><trkpt lat="44.2572156" lon="9.4683128"><ele>314.0</ele><time>2026-04-29T14:44:12.788Z</time></trkpt><trkpt lat="44.2571968" lon="9.4684514"><ele>314.0</ele><time>2026-04-29T14:44:13.787Z</time></trkpt><trkpt lat="44.2571439" lon="9.4685693"><ele>314.0</ele><time>2026-04-29T14:44:14.786Z</time></trkpt><trkpt lat="44.2570589" lon="9.4686662"><ele>314.0</ele><time>2026-04-29T14:44:15.785Z</time></trkpt><trkpt lat="44.2569633" lon="9.4687771"><ele>314.0</ele><time>2026-04-29T14:44:16.786Z</time></trkpt><trkpt lat="44.2568798" lon="9.4689323"><ele>313.75</ele><time>2026-04-29T14:44:17.787Z</time></trkpt><trkpt lat="44.2567959" lon="9.4691138"><ele>313.5</ele><time>2026-04-29T14:44:18.788Z</time></trkpt><trkpt lat="44.256726" lon="9.4692698"><ele>313.25</ele><time>2026-04-29T14:44:19.786Z</time></trkpt><trkpt lat="44.2566579" lon="9.4694319"><ele>313.0</ele><time>2026-04-29T14:44:20.785Z</time></trkpt><trkpt lat="44.256677" lon="9.4695384"><ele>312.0</ele><time>2026-04-29T14:44:21.785Z</time></trkpt><trkpt lat="44.2567103" lon="9.4696586"><ele>311.0</ele><time>2026-04-29T14:44:22.785Z</time></trkpt><trkpt lat="44.2567694" lon="9.4698061"><ele>310.0</ele><time>2026-04-29T14:44:23.791Z</time></trkpt><trkpt lat="44.2568384" lon="9.4699803"><ele>309.0</ele><time>2026-04-29T14:44:24.79Z</time></trkpt><trkpt lat="44.2569036" lon="9.4701675"><ele>309.0</ele><time>2026-04-29T14:44:25.787Z</time></trkpt><trkpt lat="44.2569627" lon="9.4703439"><ele>309.0</ele><time>2026-04-29T14:44:26.786Z</time></trkpt><trkpt lat="44.2570212" lon="9.4705018"><ele>309.0</ele><time>2026-04-29T14:44:27.785Z</time></trkpt><trkpt lat="44.2570958" lon="9.4706259"><ele>309.0</ele><time>2026-04-29T14:44:28.784Z</time></trkpt><trkpt lat="44.2572052" lon="9.4707183"><ele>303.0</ele><time>2026-04-29T14:44:29.785Z</time></trkpt><trkpt lat="44.2573297" lon="9.4708174"><ele>297.0</ele><time>2026-04-29T14:44:30.786Z</time></trkpt><trkpt lat="44.2574683" lon="9.4709158"><ele>291.0</ele><time>2026-04-29T14:44:31.785Z</time></trkpt><trkpt lat="44.2576048" lon="9.4710234"><ele>291.0</ele><time>2026-04-29T14:44:32.787Z</time></trkpt><trkpt lat="44.2577341" lon="9.4711149"><ele>291.0</ele><time>2026-04-29T14:44:33.786Z</time></trkpt><trkpt lat="44.2578593" lon="9.4712097"><ele>291.0</ele><time>2026-04-29T14:44:34.786Z</time></trkpt><trkpt lat="44.2579829" lon="9.4713105"><ele>291.0</ele><time>2026-04-29T14:44:35.786Z</time></trkpt><trkpt lat="44.2580977" lon="9.4714306"><ele>290.25</ele><time>2026-04-29T14:44:36.785Z</time></trkpt><trkpt lat="44.2582042" lon="9.4715682"><ele>289.5</ele><time>2026-04-29T14:44:37.788Z</time></trkpt><trkpt lat="44.2582952" lon="9.4717142"><ele>288.75</ele><time>2026-04-29T14:44:38.789Z</time></trkpt><trkpt lat="44.258364" lon="9.4718527"><ele>288.0</ele><time>2026-04-29T14:44:39.787Z</time></trkpt><trkpt lat="44.2584296" lon="9.4719837"><ele>289.2</ele><time>2026-04-29T14:44:40.787Z</time></trkpt><trkpt lat="44.2584693" lon="9.4721104"><ele>290.4</ele><time>2026-04-29T14:44:41.785Z</time></trkpt><trkpt lat="44.2584751" lon="9.4722449"><ele>291.59999999999997</ele><time>2026-04-29T14:44:42.787Z</time></trkpt><trkpt lat="44.2584503" lon="9.4723772"><ele>292.8</ele><time>2026-04-29T14:44:43.786Z</time></trkpt><trkpt lat="44.2583934" lon="9.4724903"><ele>294.0</ele><time>2026-04-29T14:44:44.786Z</time></trkpt><trkpt lat="44.2583156" lon="9.4725911"><ele>294.0</ele><time>2026-04-29T14:44:45.789Z</time></trkpt><trkpt lat="44.2582155" lon="9.4726842"><ele>294.0</ele><time>2026-04-29T14:44:46.785Z</time></trkpt><trkpt lat="44.2580991" lon="9.4727831"><ele>294.0</ele><time>2026-04-29T14:44:47.785Z</time></trkpt><trkpt lat="44.2579716" lon="9.4728954"><ele>294.0</ele><time>2026-04-29T14:44:48.785Z</time></trkpt><trkpt lat="44.2578385" lon="9.4730086"><ele>295.0</ele><time>2026-04-29T14:44:49.791Z</time></trkpt><trkpt lat="44.2577048" lon="9.4731271"><ele>296.0</ele><time>2026-04-29T14:44:50.786Z</time></trkpt><trkpt lat="44.2575781" lon="9.4732388"><ele>297.0</ele><time>2026-04-29T14:44:51.789Z</time></trkpt><trkpt lat="44.2574621" lon="9.4733459"><ele>298.0</ele><time>2026-04-29T14:44:52.784Z</time></trkpt><trkpt lat="44.2573551" lon="9.4734376"><ele>300.2</ele><time>2026-04-29T14:44:53.784Z</time></trkpt><trkpt lat="44.2572565" lon="9.4735088"><ele>302.4</ele><time>2026-04-29T14:44:54.785Z</time></trkpt><trkpt lat="44.2571587" lon="9.4735482"><ele>304.59999999999997</ele><time>2026-04-29T14:44:55.785Z</time></trkpt><trkpt lat="44.2570589" lon="9.4735425"><ele>306.8</ele><time>2026-04-29T14:44:56.784Z</time></trkpt><trkpt lat="44.2569619" lon="9.4734967"><ele>309.0</ele><time>2026-04-29T14:44:57.786Z</time></trkpt><trkpt lat="44.2568615" lon="9.473418"><ele>309.0</ele><time>2026-04-29T14:44:58.787Z</time></trkpt><trkpt lat="44.256755" lon="9.4733267"><ele>309.0</ele><time>2026-04-29T14:44:59.786Z</time></trkpt><trkpt lat="44.2566531" lon="9.4732525"><ele>309.0</ele><time>2026-04-29T14:45:00.792Z</time></trkpt><trkpt lat="44.256558" lon="9.4732428"><ele>309.0</ele><time>2026-04-29T14:45:01.786Z</time></trkpt><trkpt lat="44.2564745" lon="9.4732842"><ele>309.0</ele><time>2026-04-29T14:45:02.787Z</time></trkpt><trkpt lat="44.256411" lon="9.4733681"><ele>305.25</ele><time>2026-04-29T14:45:03.786Z</time></trkpt><trkpt lat="44.2563882" lon="9.4734931"><ele>301.5</ele><time>2026-04-29T14:45:04.788Z</time></trkpt><trkpt lat="44.2563993" lon="9.4736272"><ele>297.75</ele><time>2026-04-29T14:45:05.785Z</time></trkpt><trkpt lat="44.2564286" lon="9.4737932"><ele>294.0</ele><time>2026-04-29T14:45:06.785Z</time></trkpt><trkpt lat="44.2564637" lon="9.4739856"><ele>294.0</ele><time>2026-04-29T14:45:07.785Z</time></trkpt><trkpt lat="44.2565059" lon="9.4742018"><ele>294.0</ele><time>2026-04-29T14:45:08.786Z</time></trkpt><trkpt lat="44.2565419" lon="9.4744182"><ele>294.0</ele><time>2026-04-29T14:45:09.787Z</time></trkpt><trkpt lat="44.2565702" lon="9.4746106"><ele>293.59999999999997</ele><time>2026-04-29T14:45:10.787Z</time></trkpt><trkpt lat="44.256587" lon="9.4747839"><ele>293.2</ele><time>2026-04-29T14:45:11.785Z</time></trkpt><trkpt lat="44.2565945" lon="9.474935"><ele>292.79999999999995</ele><time>2026-04-29T14:45:12.786Z</time></trkpt><trkpt lat="44.256582" lon="9.4750684"><ele>292.4</ele><time>2026-04-29T14:45:13.785Z</time></trkpt><trkpt lat="44.2565467" lon="9.4751838"><ele>292.0</ele><time>2026-04-29T14:45:14.785Z</time></trkpt><trkpt lat="44.2564908" lon="9.4752851"><ele>297.2</ele><time>2026-04-29T14:45:15.787Z</time></trkpt><trkpt lat="44.2564085" lon="9.4753567"><ele>302.4</ele><time>2026-04-29T14:45:16.788Z</time></trkpt><trkpt lat="44.2563123" lon="9.4753883"><ele>307.6</ele><time>2026-04-29T14:45:17.787Z</time></trkpt><trkpt lat="44.2562062" lon="9.4753846"><ele>312.8</ele><time>2026-04-29T14:45:18.785Z</time></trkpt><trkpt lat="44.2560919" lon="9.4753704"><ele>318.0</ele><time>2026-04-29T14:45:19.785Z</time></trkpt><trkpt lat="44.2559898" lon="9.4753757"><ele>318.0</ele><time>2026-04-29T14:45:20.785Z</time></trkpt><trkpt lat="44.255908" lon="9.4754336"><ele>318.0</ele><time>2026-04-29T14:45:21.786Z</time></trkpt><trkpt lat="44.2558503" lon="9.4755343"><ele>318.0</ele><time>2026-04-29T14:45:22.787Z</time></trkpt><trkpt lat="44.2558282" lon="9.4756643"><ele>318.0</ele><time>2026-04-29T14:45:23.785Z</time></trkpt><trkpt lat="44.2558301" lon="9.4758214"><ele>318.0</ele><time>2026-04-29T14:45:24.786Z</time></trkpt><trkpt lat="44.2558402" lon="9.4760082"><ele>315.5</ele><time>2026-04-29T14:45:25.787Z</time></trkpt><trkpt lat="44.2558417" lon="9.4761841"><ele>313.0</ele><time>2026-04-29T14:45:26.786Z</time></trkpt><trkpt lat="44.255823" lon="9.4763449"><ele>310.5</ele><time>2026-04-29T14:45:27.785Z</time></trkpt><trkpt lat="44.2557748" lon="9.4765033"><ele>308.0</ele><time>2026-04-29T14:45:28.786Z</time></trkpt><trkpt lat="44.2557061" lon="9.4766458"><ele>309.25</ele><time>2026-04-29T14:45:29.789Z</time></trkpt><trkpt lat="44.2556283" lon="9.4767862"><ele>310.5</ele><time>2026-04-29T14:45:30.789Z</time></trkpt><trkpt lat="44.255582" lon="9.4769509"><ele>311.75</ele><time>2026-04-29T14:45:31.786Z</time></trkpt><trkpt lat="44.2555498" lon="9.4771364"><ele>313.0</ele><time>2026-04-29T14:45:32.787Z</time></trkpt><trkpt lat="44.2555219" lon="9.4773351"><ele>310.0</ele><time>2026-04-29T14:45:33.787Z</time></trkpt><trkpt lat="44.2555029" lon="9.4775143"><ele>307.0</ele><time>2026-04-29T14:45:34.785Z</time></trkpt><trkpt lat="44.2554863" lon="9.4776766"><ele>304.0</ele><time>2026-04-29T14:45:35.787Z</time></trkpt><trkpt lat="44.2554647" lon="9.4778302"><ele>301.0</ele><time>2026-04-29T14:45:36.79Z</time></trkpt><trkpt lat="44.255411" lon="9.4779638"><ele>298.75</ele><time>2026-04-29T14:45:37.787Z</time></trkpt><trkpt lat="44.255334" lon="9.4780835"><ele>296.5</ele><time>2026-04-29T14:45:38.786Z</time></trkpt><trkpt lat="44.2552436" lon="9.4781898"><ele>294.25</ele><time>2026-04-29T14:45:39.785Z</time></trkpt><trkpt lat="44.2551582" lon="9.478299"><ele>292.0</ele><time>2026-04-29T14:45:40.786Z</time></trkpt><trkpt lat="44.255094" lon="9.4784439"><ele>292.0</ele><time>2026-04-29T14:45:41.787Z</time></trkpt><trkpt lat="44.255043" lon="9.4786077"><ele>292.0</ele><time>2026-04-29T14:45:42.789Z</time></trkpt><trkpt lat="44.2550019" lon="9.478779"><ele>292.0</ele><time>2026-04-29T14:45:43.787Z</time></trkpt><trkpt lat="44.2549646" lon="9.4789552"><ele>292.0</ele><time>2026-04-29T14:45:44.785Z</time></trkpt><trkpt lat="44.2549181" lon="9.4791265"><ele>293.25</ele><time>2026-04-29T14:45:45.785Z</time></trkpt><trkpt lat="44.2548629" lon="9.47928"><ele>294.5</ele><time>2026-04-29T14:45:46.786Z</time></trkpt><trkpt lat="44.2547973" lon="9.4794141"><ele>295.75</ele><time>2026-04-29T14:45:47.784Z</time></trkpt><trkpt lat="44.2547361" lon="9.4795442"><ele>297.0</ele><time>2026-04-29T14:45:48.787Z</time></trkpt><trkpt lat="44.2547068" lon="9.4796915"><ele>290.75</ele><time>2026-04-29T14:45:49.787Z</time></trkpt><trkpt lat="44.2546923" lon="9.4798514"><ele>284.5</ele><time>2026-04-29T14:45:50.788Z</time></trkpt><trkpt lat="44.2546818" lon="9.4800189"><ele>278.25</ele><time>2026-04-29T14:45:51.784Z</time></trkpt><trkpt lat="44.2546738" lon="9.4801865"><ele>272.0</ele><time>2026-04-29T14:45:52.786Z</time></trkpt><trkpt lat="44.2546655" lon="9.4803459"><ele>272.4</ele><time>2026-04-29T14:45:53.786Z</time></trkpt><trkpt lat="44.2546556" lon="9.4804906"><ele>272.79999999999995</ele><time>2026-04-29T14:45:54.786Z</time></trkpt><trkpt lat="44.2546455" lon="9.4806284"><ele>273.2</ele><time>2026-04-29T14:45:55.787Z</time></trkpt><trkpt lat="44.2546389" lon="9.480761"><ele>273.59999999999997</ele><time>2026-04-29T14:45:56.788Z</time></trkpt><trkpt lat="44.2546471" lon="9.4808858"><ele>274.0</ele><time>2026-04-29T14:45:57.787Z</time></trkpt><trkpt lat="44.254672" lon="9.4810051"><ele>274.0</ele><time>2026-04-29T14:45:58.786Z</time></trkpt><trkpt lat="44.2547228" lon="9.481115"><ele>274.0</ele><time>2026-04-29T14:45:59.787Z</time></trkpt><trkpt lat="44.2548022" lon="9.4812067"><ele>274.0</ele><time>2026-04-29T14:46:00.792Z</time></trkpt><trkpt lat="44.2549025" lon="9.4812812"><ele>274.0</ele><time>2026-04-29T14:46:01.785Z</time></trkpt><trkpt lat="44.255018" lon="9.4813542"><ele>274.0</ele><time>2026-04-29T14:46:02.787Z</time></trkpt><trkpt lat="44.2551423" lon="9.4814354"><ele>275.75</ele><time>2026-04-29T14:46:03.787Z</time></trkpt><trkpt lat="44.2552722" lon="9.4815248"><ele>277.5</ele><time>2026-04-29T14:46:04.786Z</time></trkpt><trkpt lat="44.255397" lon="9.481607"><ele>279.25</ele><time>2026-04-29T14:46:05.785Z</time></trkpt><trkpt lat="44.2555125" lon="9.4816935"><ele>281.0</ele><time>2026-04-29T14:46:06.783Z</time></trkpt><trkpt lat="44.2556127" lon="9.4818012"><ele>283.5</ele><time>2026-04-29T14:46:07.784Z</time></trkpt><trkpt lat="44.2557036" lon="9.481945"><ele>286.0</ele><time>2026-04-29T14:46:08.786Z</time></trkpt><trkpt lat="44.2557867" lon="9.4821099"><ele>288.5</ele><time>2026-04-29T14:46:09.786Z</time></trkpt><trkpt lat="44.2558793" lon="9.4822851"><ele>291.0</ele><time>2026-04-29T14:46:10.785Z</time></trkpt><trkpt lat="44.2559767" lon="9.482459"><ele>291.0</ele><time>2026-04-29T14:46:11.784Z</time></trkpt><trkpt lat="44.2560584" lon="9.4826351"><ele>291.0</ele><time>2026-04-29T14:46:12.784Z</time></trkpt><trkpt lat="44.2561192" lon="9.4828249"><ele>291.0</ele><time>2026-04-29T14:46:13.784Z</time></trkpt><trkpt lat="44.2561578" lon="9.4830226"><ele>291.0</ele><time>2026-04-29T14:46:14.783Z</time></trkpt><trkpt lat="44.256189" lon="9.4832241"><ele>291.25</ele><time>2026-04-29T14:46:15.785Z</time></trkpt><trkpt lat="44.2562395" lon="9.4834102"><ele>291.5</ele><time>2026-04-29T14:46:16.784Z</time></trkpt><trkpt lat="44.2563158" lon="9.4835858"><ele>291.75</ele><time>2026-04-29T14:46:17.784Z</time></trkpt><trkpt lat="44.2564099" lon="9.4837569"><ele>292.0</ele><time>2026-04-29T14:46:18.785Z</time></trkpt><trkpt lat="44.2564998" lon="9.4839344"><ele>292.0</ele><time>2026-04-29T14:46:19.784Z</time></trkpt><trkpt lat="44.2565671" lon="9.4841115"><ele>292.0</ele><time>2026-04-29T14:46:20.784Z</time></trkpt><trkpt lat="44.2566019" lon="9.4843055"><ele>292.0</ele><time>2026-04-29T14:46:21.787Z</time></trkpt><trkpt lat="44.2566144" lon="9.4845148"><ele>292.0</ele><time>2026-04-29T14:46:22.787Z</time></trkpt><trkpt lat="44.2566156" lon="9.4847364"><ele>290.0</ele><time>2026-04-29T14:46:23.786Z</time></trkpt><trkpt lat="44.2566118" lon="9.4849676"><ele>288.0</ele><time>2026-04-29T14:46:24.785Z</time></trkpt><trkpt lat="44.2566151" lon="9.4851858"><ele>286.0</ele><time>2026-04-29T14:46:25.783Z</time></trkpt><trkpt lat="44.2566237" lon="9.4853792"><ele>285.75</ele><time>2026-04-29T14:46:26.784Z</time></trkpt><trkpt lat="44.2566547" lon="9.4855558"><ele>285.5</ele><time>2026-04-29T14:46:27.787Z</time></trkpt><trkpt lat="44.2567159" lon="9.4857187"><ele>285.25</ele><time>2026-04-29T14:46:28.786Z</time></trkpt><trkpt lat="44.2568001" lon="9.4858588"><ele>285.0</ele><time>2026-04-29T14:46:29.785Z</time></trkpt><trkpt lat="44.2569093" lon="9.4859862"><ele>285.0</ele><time>2026-04-29T14:46:30.785Z</time></trkpt><trkpt lat="44.2570231" lon="9.4861226"><ele>285.0</ele><time>2026-04-29T14:46:31.785Z</time></trkpt><trkpt lat="44.2571257" lon="9.4862699"><ele>285.0</ele><time>2026-04-29T14:46:32.785Z</time></trkpt><trkpt lat="44.2572031" lon="9.4864326"><ele>285.0</ele><time>2026-04-29T14:46:33.785Z</time></trkpt><trkpt lat="44.2572578" lon="9.4865959"><ele>282.5</ele><time>2026-04-29T14:46:34.786Z</time></trkpt><trkpt lat="44.2572582" lon="9.4867615"><ele>280.0</ele><time>2026-04-29T14:46:35.785Z</time></trkpt><trkpt lat="44.2572372" lon="9.4869272"><ele>277.5</ele><time>2026-04-29T14:46:36.787Z</time></trkpt><trkpt lat="44.2571976" lon="9.4871061"><ele>275.0</ele><time>2026-04-29T14:46:37.784Z</time></trkpt><trkpt lat="44.257145" lon="9.4873122"><ele>274.0</ele><time>2026-04-29T14:46:38.783Z</time></trkpt><trkpt lat="44.2571091" lon="9.4874967"><ele>273.0</ele><time>2026-04-29T14:46:39.782Z</time></trkpt><trkpt lat="44.2570873" lon="9.4876723"><ele>272.0</ele><time>2026-04-29T14:46:40.787Z</time></trkpt><trkpt lat="44.2570956" lon="9.4878504"><ele>271.0</ele><time>2026-04-29T14:46:41.786Z</time></trkpt><trkpt lat="44.2571445" lon="9.4880096"><ele>269.5</ele><time>2026-04-29T14:46:42.786Z</time></trkpt><trkpt lat="44.2572147" lon="9.4881655"><ele>268.0</ele><time>2026-04-29T14:46:43.785Z</time></trkpt><trkpt lat="44.257296" lon="9.4883295"><ele>266.5</ele><time>2026-04-29T14:46:44.785Z</time></trkpt><trkpt lat="44.2573879" lon="9.4884871"><ele>265.0</ele><time>2026-04-29T14:46:45.784Z</time></trkpt><trkpt lat="44.2574988" lon="9.4886563"><ele>273.5</ele><time>2026-04-29T14:46:46.787Z</time></trkpt><trkpt lat="44.2576006" lon="9.4888266"><ele>282.0</ele><time>2026-04-29T14:46:47.787Z</time></trkpt><trkpt lat="44.2576686" lon="9.4889976"><ele>290.5</ele><time>2026-04-29T14:46:48.785Z</time></trkpt><trkpt lat="44.257701" lon="9.4891808"><ele>299.0</ele><time>2026-04-29T14:46:49.785Z</time></trkpt><trkpt lat="44.2577138" lon="9.4893924"><ele>300.33333333333337</ele><time>2026-04-29T14:46:50.785Z</time></trkpt><trkpt lat="44.2577094" lon="9.4896263"><ele>301.6666666666667</ele><time>2026-04-29T14:46:51.785Z</time></trkpt><trkpt lat="44.2576913" lon="9.4898766"><ele>303.0</ele><time>2026-04-29T14:46:52.783Z</time></trkpt><trkpt lat="44.2576572" lon="9.4901475"><ele>306.3333333333333</ele><time>2026-04-29T14:46:53.785Z</time></trkpt><trkpt lat="44.2576162" lon="9.490437"><ele>309.66666666666663</ele><time>2026-04-29T14:46:54.786Z</time></trkpt><trkpt lat="44.2575737" lon="9.4907128"><ele>313.0</ele><time>2026-04-29T14:46:55.785Z</time></trkpt><trkpt lat="44.2575415" lon="9.4909694"><ele>313.0</ele><time>2026-04-29T14:46:56.786Z</time></trkpt><trkpt lat="44.2575042" lon="9.4912076"><ele>313.0</ele><time>2026-04-29T14:46:57.784Z</time></trkpt><trkpt lat="44.2574757" lon="9.4914201"><ele>313.0</ele><time>2026-04-29T14:46:58.785Z</time></trkpt><trkpt lat="44.2574606" lon="9.4916137"><ele>314.5</ele><time>2026-04-29T14:46:59.784Z</time></trkpt><trkpt lat="44.2574734" lon="9.4917935"><ele>316.0</ele><time>2026-04-29T14:47:00.788Z</time></trkpt><trkpt lat="44.2575187" lon="9.4919683"><ele>317.5</ele><time>2026-04-29T14:47:01.785Z</time></trkpt><trkpt lat="44.2575846" lon="9.4921393"><ele>319.0</ele><time>2026-04-29T14:47:02.783Z</time></trkpt><trkpt lat="44.2576447" lon="9.4923179"><ele>319.0</ele><time>2026-04-29T14:47:03.785Z</time></trkpt><trkpt lat="44.2576885" lon="9.4925163"><ele>319.0</ele><time>2026-04-29T14:47:04.785Z</time></trkpt><trkpt lat="44.2577272" lon="9.4927301"><ele>319.0</ele><time>2026-04-29T14:47:05.786Z</time></trkpt><trkpt lat="44.2577616" lon="9.4929407"><ele>320.25</ele><time>2026-04-29T14:47:06.787Z</time></trkpt><trkpt lat="44.2577878" lon="9.4931321"><ele>321.5</ele><time>2026-04-29T14:47:07.785Z</time></trkpt><trkpt lat="44.2577976" lon="9.4933055"><ele>322.75</ele><time>2026-04-29T14:47:08.785Z</time></trkpt><trkpt lat="44.2577755" lon="9.4934591"><ele>324.0</ele><time>2026-04-29T14:47:09.783Z</time></trkpt><trkpt lat="44.2577219" lon="9.4936027"><ele>324.0</ele><time>2026-04-29T14:47:10.784Z</time></trkpt><trkpt lat="44.2576421" lon="9.4937398"><ele>324.0</ele><time>2026-04-29T14:47:11.786Z</time></trkpt><trkpt lat="44.2575525" lon="9.4938895"><ele>324.0</ele><time>2026-04-29T14:47:12.784Z</time></trkpt><trkpt lat="44.2574832" lon="9.4940488"><ele>324.0</ele><time>2026-04-29T14:47:13.787Z</time></trkpt><trkpt lat="44.257442" lon="9.4942186"><ele>325.5</ele><time>2026-04-29T14:47:14.785Z</time></trkpt><trkpt lat="44.2574308" lon="9.4943987"><ele>327.0</ele><time>2026-04-29T14:47:15.784Z</time></trkpt><trkpt lat="44.2574416" lon="9.4945839"><ele>328.5</ele><time>2026-04-29T14:47:16.785Z</time></trkpt><trkpt lat="44.2574566" lon="9.4947686"><ele>330.0</ele><time>2026-04-29T14:47:17.785Z</time></trkpt><trkpt lat="44.2574706" lon="9.4949307"><ele>330.0</ele><time>2026-04-29T14:47:18.786Z</time></trkpt><trkpt lat="44.2574902" lon="9.4950912"><ele>330.0</ele><time>2026-04-29T14:47:19.786Z</time></trkpt><trkpt lat="44.2575026" lon="9.4952475"><ele>330.0</ele><time>2026-04-29T14:47:20.786Z</time></trkpt><trkpt lat="44.2575131" lon="9.4954016"><ele>330.0</ele><time>2026-04-29T14:47:21.786Z</time></trkpt><trkpt lat="44.2575239" lon="9.4955594"><ele>330.0</ele><time>2026-04-29T14:47:22.785Z</time></trkpt><trkpt lat="44.2575365" lon="9.4957225"><ele>330.0</ele><time>2026-04-29T14:47:23.785Z</time></trkpt><trkpt lat="44.2575498" lon="9.4958954"><ele>330.0</ele><time>2026-04-29T14:47:24.785Z</time></trkpt><trkpt lat="44.2575635" lon="9.4960757"><ele>330.0</ele><time>2026-04-29T14:47:25.785Z</time></trkpt><trkpt lat="44.2575815" lon="9.496256"><ele>330.5</ele><time>2026-04-29T14:47:26.786Z</time></trkpt><trkpt lat="44.2575963" lon="9.4964317"><ele>331.0</ele><time>2026-04-29T14:47:27.786Z</time></trkpt><trkpt lat="44.2576101" lon="9.4966057"><ele>331.5</ele><time>2026-04-29T14:47:28.785Z</time></trkpt><trkpt lat="44.2576242" lon="9.4967748"><ele>332.0</ele><time>2026-04-29T14:47:29.784Z</time></trkpt><trkpt lat="44.2576376" lon="9.4969424"><ele>332.5</ele><time>2026-04-29T14:47:30.784Z</time></trkpt><trkpt lat="44.2576531" lon="9.4971102"><ele>333.0</ele><time>2026-04-29T14:47:31.787Z</time></trkpt><trkpt lat="44.2576929" lon="9.4972841"><ele>333.5</ele><time>2026-04-29T14:47:32.786Z</time></trkpt><trkpt lat="44.2577476" lon="9.4974512"><ele>334.0</ele><time>2026-04-29T14:47:33.784Z</time></trkpt><trkpt lat="44.257811" lon="9.497619"><ele>334.0</ele><time>2026-04-29T14:47:34.785Z</time></trkpt><trkpt lat="44.2578618" lon="9.4977733"><ele>334.0</ele><time>2026-04-29T14:47:35.784Z</time></trkpt><trkpt lat="44.2578812" lon="9.4979344"><ele>334.0</ele><time>2026-04-29T14:47:36.785Z</time></trkpt><trkpt lat="44.2578707" lon="9.4980961"><ele>334.0</ele><time>2026-04-29T14:47:37.784Z</time></trkpt><trkpt lat="44.2578525" lon="9.4982689"><ele>334.5</ele><time>2026-04-29T14:47:38.786Z</time></trkpt><trkpt lat="44.2578521" lon="9.4984453"><ele>335.0</ele><time>2026-04-29T14:47:39.783Z</time></trkpt><trkpt lat="44.2578616" lon="9.4986301"><ele>335.5</ele><time>2026-04-29T14:47:40.786Z</time></trkpt><trkpt lat="44.2578489" lon="9.4988222"><ele>336.0</ele><time>2026-04-29T14:47:41.784Z</time></trkpt><trkpt lat="44.2578223" lon="9.4990206"><ele>337.6666666666667</ele><time>2026-04-29T14:47:42.785Z</time></trkpt><trkpt lat="44.2577851" lon="9.499225"><ele>339.33333333333337</ele><time>2026-04-29T14:47:43.784Z</time></trkpt><trkpt lat="44.2577454" lon="9.4994405"><ele>341.0</ele><time>2026-04-29T14:47:44.787Z</time></trkpt><trkpt lat="44.2576988" lon="9.499666"><ele>345.6666666666667</ele><time>2026-04-29T14:47:45.787Z</time></trkpt><trkpt lat="44.2576583" lon="9.4998853"><ele>350.3333333333333</ele><time>2026-04-29T14:47:46.786Z</time></trkpt><trkpt lat="44.2576169" lon="9.5000797"><ele>355.0</ele><time>2026-04-29T14:47:47.785Z</time></trkpt><trkpt lat="44.2575624" lon="9.5002654"><ele>352.25</ele><time>2026-04-29T14:47:48.785Z</time></trkpt><trkpt lat="44.2574917" lon="9.5004201"><ele>349.5</ele><time>2026-04-29T14:47:49.784Z</time></trkpt><trkpt lat="44.2574022" lon="9.5005438"><ele>346.75</ele><time>2026-04-29T14:47:50.784Z</time></trkpt><trkpt lat="44.2573173" lon="9.5006736"><ele>344.0</ele><time>2026-04-29T14:47:51.786Z</time></trkpt><trkpt lat="44.2572457" lon="9.5008211"><ele>344.0</ele><time>2026-04-29T14:47:52.787Z</time></trkpt><trkpt lat="44.2571797" lon="9.5009815"><ele>344.0</ele><time>2026-04-29T14:47:53.785Z</time></trkpt><trkpt lat="44.2571151" lon="9.5011409"><ele>344.0</ele><time>2026-04-29T14:47:54.784Z</time></trkpt><trkpt lat="44.257058" lon="9.5012852"><ele>344.0</ele><time>2026-04-29T14:47:55.784Z</time></trkpt><trkpt lat="44.2570065" lon="9.5014177"><ele>347.0</ele><time>2026-04-29T14:47:56.784Z</time></trkpt><trkpt lat="44.2569633" lon="9.5015497"><ele>350.0</ele><time>2026-04-29T14:47:57.787Z</time></trkpt><trkpt lat="44.2569445" lon="9.5016855"><ele>353.0</ele><time>2026-04-29T14:47:58.787Z</time></trkpt><trkpt lat="44.2569575" lon="9.5018182"><ele>356.0</ele><time>2026-04-29T14:47:59.784Z</time></trkpt><trkpt lat="44.2569959" lon="9.5019399"><ele>359.0</ele><time>2026-04-29T14:48:00.784Z</time></trkpt><trkpt lat="44.2570548" lon="9.5020495"><ele>356.79999999999995</ele><time>2026-04-29T14:48:01.784Z</time></trkpt><trkpt lat="44.2571194" lon="9.5021542"><ele>354.59999999999997</ele><time>2026-04-29T14:48:02.783Z</time></trkpt><trkpt lat="44.2571811" lon="9.5022576"><ele>352.4</ele><time>2026-04-29T14:48:03.786Z</time></trkpt><trkpt lat="44.2572498" lon="9.5023617"><ele>350.2</ele><time>2026-04-29T14:48:04.787Z</time></trkpt><trkpt lat="44.2573251" lon="9.5024559"><ele>348.0</ele><time>2026-04-29T14:48:05.787Z</time></trkpt><trkpt lat="44.2574108" lon="9.5025347"><ele>353.2</ele><time>2026-04-29T14:48:06.785Z</time></trkpt><trkpt lat="44.2575028" lon="9.5025971"><ele>358.4</ele><time>2026-04-29T14:48:07.784Z</time></trkpt><trkpt lat="44.2576074" lon="9.5026533"><ele>363.59999999999997</ele><time>2026-04-29T14:48:08.785Z</time></trkpt><trkpt lat="44.2577099" lon="9.5027142"><ele>368.79999999999995</ele><time>2026-04-29T14:48:09.787Z</time></trkpt><trkpt lat="44.2578135" lon="9.5027957"><ele>374.0</ele><time>2026-04-29T14:48:10.786Z</time></trkpt><trkpt lat="44.2579199" lon="9.5028948"><ele>376.25</ele><time>2026-04-29T14:48:11.786Z</time></trkpt><trkpt lat="44.2580295" lon="9.5030084"><ele>378.5</ele><time>2026-04-29T14:48:12.785Z</time></trkpt><trkpt lat="44.2581436" lon="9.5031313"><ele>380.75</ele><time>2026-04-29T14:48:13.784Z</time></trkpt><trkpt lat="44.2582594" lon="9.5032613"><ele>383.0</ele><time>2026-04-29T14:48:14.784Z</time></trkpt><trkpt lat="44.2583743" lon="9.5033918"><ele>383.0</ele><time>2026-04-29T14:48:15.785Z</time></trkpt><trkpt lat="44.2584913" lon="9.5035214"><ele>383.0</ele><time>2026-04-29T14:48:16.787Z</time></trkpt><trkpt lat="44.2586098" lon="9.5036511"><ele>383.0</ele><time>2026-04-29T14:48:17.787Z</time></trkpt><trkpt lat="44.2587204" lon="9.503769"><ele>383.0</ele><time>2026-04-29T14:48:18.786Z</time></trkpt><trkpt lat="44.2588219" lon="9.5038791"><ele>385.4</ele><time>2026-04-29T14:48:19.784Z</time></trkpt><trkpt lat="44.2589088" lon="9.5039775"><ele>387.79999999999995</ele><time>2026-04-29T14:48:20.783Z</time></trkpt><trkpt lat="44.2589831" lon="9.5040865"><ele>390.2</ele><time>2026-04-29T14:48:21.785Z</time></trkpt><trkpt lat="44.2590333" lon="9.5042068"><ele>392.6</ele><time>2026-04-29T14:48:22.782Z</time></trkpt><trkpt lat="44.2590565" lon="9.5043421"><ele>395.0</ele><time>2026-04-29T14:48:23.787Z</time></trkpt><trkpt lat="44.2590545" lon="9.5044794"><ele>395.2</ele><time>2026-04-29T14:48:24.786Z</time></trkpt><trkpt lat="44.2590285" lon="9.5046188"><ele>395.4</ele><time>2026-04-29T14:48:25.785Z</time></trkpt><trkpt lat="44.2589885" lon="9.504759"><ele>395.6</ele><time>2026-04-29T14:48:26.786Z</time></trkpt><trkpt lat="44.2589454" lon="9.5049049"><ele>395.8</ele><time>2026-04-29T14:48:27.784Z</time></trkpt><trkpt lat="44.2589072" lon="9.5050554"><ele>396.0</ele><time>2026-04-29T14:48:28.784Z</time></trkpt><trkpt lat="44.2588857" lon="9.5052158"><ele>396.6</ele><time>2026-04-29T14:48:29.785Z</time></trkpt><trkpt lat="44.258879" lon="9.5053699"><ele>397.20000000000005</ele><time>2026-04-29T14:48:30.787Z</time></trkpt><trkpt lat="44.2588902" lon="9.5055215"><ele>397.79999999999995</ele><time>2026-04-29T14:48:31.785Z</time></trkpt><trkpt lat="44.258916" lon="9.5056743"><ele>398.4</ele><time>2026-04-29T14:48:32.786Z</time></trkpt><trkpt lat="44.2589511" lon="9.5058264"><ele>399.0</ele><time>2026-04-29T14:48:33.785Z</time></trkpt><trkpt lat="44.2589888" lon="9.5059843"><ele>399.0</ele><time>2026-04-29T14:48:34.784Z</time></trkpt><trkpt lat="44.2590224" lon="9.5061477"><ele>399.0</ele><time>2026-04-29T14:48:35.784Z</time></trkpt><trkpt lat="44.259056" lon="9.5063201"><ele>399.0</ele><time>2026-04-29T14:48:36.786Z</time></trkpt><trkpt lat="44.2590869" lon="9.5064988"><ele>399.0</ele><time>2026-04-29T14:48:37.785Z</time></trkpt><trkpt lat="44.2591168" lon="9.5066758"><ele>399.0</ele><time>2026-04-29T14:48:38.784Z</time></trkpt><trkpt lat="44.2591157" lon="9.5068438"><ele>399.0</ele><time>2026-04-29T14:48:39.783Z</time></trkpt><trkpt lat="44.259093" lon="9.5070104"><ele>399.0</ele><time>2026-04-29T14:48:40.784Z</time></trkpt><trkpt lat="44.2590442" lon="9.5071652"><ele>399.0</ele><time>2026-04-29T14:48:41.786Z</time></trkpt><trkpt lat="44.2589638" lon="9.507275"><ele>395.2</ele><time>2026-04-29T14:48:42.786Z</time></trkpt><trkpt lat="44.2588735" lon="9.5073438"><ele>391.4</ele><time>2026-04-29T14:48:43.787Z</time></trkpt><trkpt lat="44.2587888" lon="9.507413"><ele>387.6</ele><time>2026-04-29T14:48:44.785Z</time></trkpt><trkpt lat="44.2587254" lon="9.5075296"><ele>383.8</ele><time>2026-04-29T14:48:45.784Z</time></trkpt><trkpt lat="44.2586666" lon="9.5076802"><ele>380.0</ele><time>2026-04-29T14:48:46.785Z</time></trkpt><trkpt lat="44.2586122" lon="9.5078584"><ele>383.5</ele><time>2026-04-29T14:48:47.79Z</time></trkpt><trkpt lat="44.2585528" lon="9.5080524"><ele>387.0</ele><time>2026-04-29T14:48:48.786Z</time></trkpt><trkpt lat="44.2584917" lon="9.5082414"><ele>390.5</ele><time>2026-04-29T14:48:49.787Z</time></trkpt><trkpt lat="44.2584314" lon="9.5084307"><ele>394.0</ele><time>2026-04-29T14:48:50.786Z</time></trkpt><trkpt lat="44.258371" lon="9.5086248"><ele>397.6666666666667</ele><time>2026-04-29T14:48:51.785Z</time></trkpt><trkpt lat="44.2583132" lon="9.5088242"><ele>401.33333333333337</ele><time>2026-04-29T14:48:52.784Z</time></trkpt><trkpt lat="44.258254" lon="9.5090271"><ele>405.0</ele><time>2026-04-29T14:48:53.784Z</time></trkpt><trkpt lat="44.2581919" lon="9.5092311"><ele>405.0</ele><time>2026-04-29T14:48:54.784Z</time></trkpt><trkpt lat="44.2581308" lon="9.509433"><ele>405.0</ele><time>2026-04-29T14:48:55.785Z</time></trkpt><trkpt lat="44.2580724" lon="9.5096126"><ele>405.0</ele><time>2026-04-29T14:48:56.787Z</time></trkpt><trkpt lat="44.2580219" lon="9.5097755"><ele>405.0</ele><time>2026-04-29T14:48:57.785Z</time></trkpt><trkpt lat="44.2579742" lon="9.509927"><ele>401.25</ele><time>2026-04-29T14:48:58.784Z</time></trkpt><trkpt lat="44.2579312" lon="9.510077"><ele>397.5</ele><time>2026-04-29T14:48:59.784Z</time></trkpt><trkpt lat="44.2578889" lon="9.5102295"><ele>393.75</ele><time>2026-04-29T14:49:00.786Z</time></trkpt><trkpt lat="44.2578499" lon="9.5103893"><ele>390.0</ele><time>2026-04-29T14:49:01.787Z</time></trkpt><trkpt lat="44.2578172" lon="9.510569"><ele>390.0</ele><time>2026-04-29T14:49:02.786Z</time></trkpt><trkpt lat="44.2577916" lon="9.5107626"><ele>390.0</ele><time>2026-04-29T14:49:03.785Z</time></trkpt><trkpt lat="44.2577761" lon="9.5109659"><ele>390.0</ele><time>2026-04-29T14:49:04.783Z</time></trkpt><trkpt lat="44.2577672" lon="9.5111723"><ele>390.0</ele><time>2026-04-29T14:49:05.784Z</time></trkpt><trkpt lat="44.257767" lon="9.5113621"><ele>391.75</ele><time>2026-04-29T14:49:06.784Z</time></trkpt><trkpt lat="44.2577644" lon="9.511537"><ele>393.5</ele><time>2026-04-29T14:49:07.787Z</time></trkpt><trkpt lat="44.2577529" lon="9.5116996"><ele>395.25</ele><time>2026-04-29T14:49:08.786Z</time></trkpt><trkpt lat="44.2577137" lon="9.5118504"><ele>397.0</ele><time>2026-04-29T14:49:09.787Z</time></trkpt><trkpt lat="44.2576452" lon="9.5119881"><ele>395.0</ele><time>2026-04-29T14:49:10.786Z</time></trkpt><trkpt lat="44.2575579" lon="9.5121278"><ele>393.0</ele><time>2026-04-29T14:49:11.785Z</time></trkpt><trkpt lat="44.2574577" lon="9.5122605"><ele>391.0</ele><time>2026-04-29T14:49:12.783Z</time></trkpt><trkpt lat="44.2573374" lon="9.5123727"><ele>389.0</ele><time>2026-04-29T14:49:13.785Z</time></trkpt><trkpt lat="44.2572095" lon="9.5124679"><ele>389.0</ele><time>2026-04-29T14:49:14.786Z</time></trkpt><trkpt lat="44.2570947" lon="9.5125559"><ele>389.0</ele><time>2026-04-29T14:49:15.786Z</time></trkpt><trkpt lat="44.2569961" lon="9.5126542"><ele>389.0</ele><time>2026-04-29T14:49:16.785Z</time></trkpt><trkpt lat="44.2569264" lon="9.5127749"><ele>389.0</ele><time>2026-04-29T14:49:17.785Z</time></trkpt><trkpt lat="44.2568981" lon="9.5129107"><ele>390.75</ele><time>2026-04-29T14:49:18.784Z</time></trkpt><trkpt lat="44.256912" lon="9.5130524"><ele>392.5</ele><time>2026-04-29T14:49:19.784Z</time></trkpt><trkpt lat="44.256955" lon="9.513198"><ele>394.25</ele><time>2026-04-29T14:49:20.787Z</time></trkpt><trkpt lat="44.2570212" lon="9.5133648"><ele>396.0</ele><time>2026-04-29T14:49:21.786Z</time></trkpt><trkpt lat="44.2570863" lon="9.51355"><ele>394.5</ele><time>2026-04-29T14:49:22.786Z</time></trkpt><trkpt lat="44.2571403" lon="9.513753"><ele>393.0</ele><time>2026-04-29T14:49:23.785Z</time></trkpt><trkpt lat="44.2571836" lon="9.5139567"><ele>391.5</ele><time>2026-04-29T14:49:24.785Z</time></trkpt><trkpt lat="44.2572242" lon="9.5141334"><ele>390.0</ele><time>2026-04-29T14:49:25.784Z</time></trkpt><trkpt lat="44.2572809" lon="9.5142785"><ele>396.0</ele><time>2026-04-29T14:49:26.786Z</time></trkpt><trkpt lat="44.2573661" lon="9.5143971"><ele>402.0</ele><time>2026-04-29T14:49:27.784Z</time></trkpt><trkpt lat="44.2574679" lon="9.5144796"><ele>408.0</ele><time>2026-04-29T14:49:28.785Z</time></trkpt><trkpt lat="44.2575755" lon="9.514534"><ele>414.0</ele><time>2026-04-29T14:49:29.787Z</time></trkpt><trkpt lat="44.2576783" lon="9.5146145"><ele>414.0</ele><time>2026-04-29T14:49:30.784Z</time></trkpt><trkpt lat="44.2577723" lon="9.5147287"><ele>414.0</ele><time>2026-04-29T14:49:31.784Z</time></trkpt><trkpt lat="44.257852" lon="9.5148714"><ele>414.0</ele><time>2026-04-29T14:49:32.784Z</time></trkpt><trkpt lat="44.2579134" lon="9.515041"><ele>414.0</ele><time>2026-04-29T14:49:33.786Z</time></trkpt><trkpt lat="44.2579599" lon="9.5152239"><ele>414.0</ele><time>2026-04-29T14:49:34.786Z</time></trkpt><trkpt lat="44.2579912" lon="9.5153986"><ele>414.0</ele><time>2026-04-29T14:49:35.785Z</time></trkpt><trkpt lat="44.258013" lon="9.5155675"><ele>414.0</ele><time>2026-04-29T14:49:36.786Z</time></trkpt><trkpt lat="44.2580213" lon="9.5157366"><ele>414.0</ele><time>2026-04-29T14:49:37.785Z</time></trkpt><trkpt lat="44.2580199" lon="9.5158924"><ele>414.0</ele><time>2026-04-29T14:49:38.784Z</time></trkpt><trkpt lat="44.2580097" lon="9.5160345"><ele>414.0</ele><time>2026-04-29T14:49:39.784Z</time></trkpt><trkpt lat="44.2579952" lon="9.5161621"><ele>414.0</ele><time>2026-04-29T14:49:40.786Z</time></trkpt><trkpt lat="44.2579829" lon="9.5162783"><ele>414.0</ele><time>2026-04-29T14:49:41.787Z</time></trkpt><trkpt lat="44.2579728" lon="9.5163817"><ele>414.0</ele><time>2026-04-29T14:49:42.787Z</time></trkpt><trkpt lat="44.2579638" lon="9.5164701"><ele>414.0</ele><time>2026-04-29T14:49:43.784Z</time></trkpt><trkpt lat="44.2579451" lon="9.5166195"><ele>414.0</ele><time>2026-04-29T14:49:45.784Z</time></trkpt><trkpt lat="44.2579291" lon="9.5167848"><ele>414.0</ele><time>2026-04-29T14:49:47.787Z</time></trkpt><trkpt lat="44.257911" lon="9.5169578"><ele>414.0</ele><time>2026-04-29T14:49:49.786Z</time></trkpt><trkpt lat="44.2579007" lon="9.5170472"><ele>414.0</ele><time>2026-04-29T14:49:50.785Z</time></trkpt><trkpt lat="44.25789" lon="9.5171375"><ele>414.0</ele><time>2026-04-29T14:49:51.785Z</time></trkpt><trkpt lat="44.2578772" lon="9.5172278"><ele>414.0</ele><time>2026-04-29T14:49:52.785Z</time></trkpt><trkpt lat="44.2578642" lon="9.5173243"><ele>415.0</ele><time>2026-04-29T14:49:53.787Z</time></trkpt><trkpt lat="44.2578502" lon="9.5174262"><ele>416.0</ele><time>2026-04-29T14:49:54.791Z</time></trkpt><trkpt lat="44.257838" lon="9.5175331"><ele>417.0</ele><time>2026-04-29T14:49:55.786Z</time></trkpt><trkpt lat="44.2578245" lon="9.5176515"><ele>418.0</ele><time>2026-04-29T14:49:56.786Z</time></trkpt><trkpt lat="44.25781" lon="9.5177764"><ele>419.0</ele><time>2026-04-29T14:49:57.785Z</time></trkpt><trkpt lat="44.257794" lon="9.5179153"><ele>420.0</ele><time>2026-04-29T14:49:58.784Z</time></trkpt><trkpt lat="44.2577732" lon="9.5180705"><ele>423.0</ele><time>2026-04-29T14:49:59.786Z</time></trkpt><trkpt lat="44.2577497" lon="9.5182421"><ele>426.0</ele><time>2026-04-29T14:50:00.786Z</time></trkpt><trkpt lat="44.2577214" lon="9.5184217"><ele>429.0</ele><time>2026-04-29T14:50:01.786Z</time></trkpt><trkpt lat="44.2576797" lon="9.5186059"><ele>432.0</ele><time>2026-04-29T14:50:02.784Z</time></trkpt><trkpt lat="44.2576357" lon="9.5187919"><ele>434.0</ele><time>2026-04-29T14:50:03.785Z</time></trkpt><trkpt lat="44.2575842" lon="9.5189724"><ele>436.0</ele><time>2026-04-29T14:50:04.784Z</time></trkpt><trkpt lat="44.2575413" lon="9.5191414"><ele>438.0</ele><time>2026-04-29T14:50:05.784Z</time></trkpt><trkpt lat="44.2574996" lon="9.519292"><ele>440.0</ele><time>2026-04-29T14:50:06.786Z</time></trkpt><trkpt lat="44.257462" lon="9.5194308"><ele>440.0</ele><time>2026-04-29T14:50:07.788Z</time></trkpt><trkpt lat="44.2574347" lon="9.5195627"><ele>440.0</ele><time>2026-04-29T14:50:08.786Z</time></trkpt><trkpt lat="44.2574079" lon="9.5197013"><ele>440.0</ele><time>2026-04-29T14:50:09.785Z</time></trkpt><trkpt lat="44.2573844" lon="9.519842"><ele>440.0</ele><time>2026-04-29T14:50:10.784Z</time></trkpt><trkpt lat="44.2573623" lon="9.5199853"><ele>440.0</ele><time>2026-04-29T14:50:11.785Z</time></trkpt><trkpt lat="44.2573413" lon="9.520134"><ele>441.25</ele><time>2026-04-29T14:50:12.784Z</time></trkpt><trkpt lat="44.2573254" lon="9.5202871"><ele>442.5</ele><time>2026-04-29T14:50:13.787Z</time></trkpt><trkpt lat="44.2573191" lon="9.5204447"><ele>443.75</ele><time>2026-04-29T14:50:14.786Z</time></trkpt><trkpt lat="44.2573156" lon="9.5206085"><ele>445.0</ele><time>2026-04-29T14:50:15.784Z</time></trkpt><trkpt lat="44.2573166" lon="9.5207783"><ele>447.25</ele><time>2026-04-29T14:50:16.784Z</time></trkpt><trkpt lat="44.2573304" lon="9.5209789"><ele>449.5</ele><time>2026-04-29T14:50:17.785Z</time></trkpt><trkpt lat="44.2573409" lon="9.5212046"><ele>451.75</ele><time>2026-04-29T14:50:18.785Z</time></trkpt><trkpt lat="44.25733" lon="9.5213973"><ele>454.0</ele><time>2026-04-29T14:50:19.792Z</time></trkpt><trkpt lat="44.2572868" lon="9.5215858"><ele>452.33333333333337</ele><time>2026-04-29T14:50:20.785Z</time></trkpt><trkpt lat="44.2572088" lon="9.5217538"><ele>450.66666666666663</ele><time>2026-04-29T14:50:21.786Z</time></trkpt><trkpt lat="44.2571114" lon="9.5219198"><ele>449.0</ele><time>2026-04-29T14:50:22.786Z</time></trkpt><trkpt lat="44.2570092" lon="9.5220958"><ele>453.3333333333333</ele><time>2026-04-29T14:50:23.785Z</time></trkpt><trkpt lat="44.2569205" lon="9.5223091"><ele>457.66666666666663</ele><time>2026-04-29T14:50:24.783Z</time></trkpt><trkpt lat="44.2568334" lon="9.5225576"><ele>462.0</ele><time>2026-04-29T14:50:25.785Z</time></trkpt><trkpt lat="44.2567432" lon="9.5228308"><ele>466.66666666666663</ele><time>2026-04-29T14:50:26.786Z</time></trkpt><trkpt lat="44.2566634" lon="9.5230713"><ele>471.3333333333333</ele><time>2026-04-29T14:50:27.786Z</time></trkpt><trkpt lat="44.2565913" lon="9.5232972"><ele>476.0</ele><time>2026-04-29T14:50:28.784Z</time></trkpt><trkpt lat="44.256539" lon="9.5235119"><ele>479.3333333333333</ele><time>2026-04-29T14:50:29.784Z</time></trkpt><trkpt lat="44.2565079" lon="9.5237328"><ele>482.66666666666663</ele><time>2026-04-29T14:50:30.785Z</time></trkpt><trkpt lat="44.2564998" lon="9.5239477"><ele>486.0</ele><time>2026-04-29T14:50:31.785Z</time></trkpt><trkpt lat="44.2565038" lon="9.5241577"><ele>486.0</ele><time>2026-04-29T14:50:32.784Z</time></trkpt><trkpt lat="44.2564864" lon="9.5243533"><ele>486.0</ele><time>2026-04-29T14:50:33.785Z</time></trkpt><trkpt lat="44.2564373" lon="9.5245271"><ele>486.0</ele><time>2026-04-29T14:50:34.785Z</time></trkpt><trkpt lat="44.2563572" lon="9.5246693"><ele>486.0</ele><time>2026-04-29T14:50:35.784Z</time></trkpt><trkpt lat="44.2562591" lon="9.5247927"><ele>482.33333333333337</ele><time>2026-04-29T14:50:36.785Z</time></trkpt><trkpt lat="44.2561599" lon="9.5249211"><ele>478.6666666666667</ele><time>2026-04-29T14:50:37.784Z</time></trkpt><trkpt lat="44.2560625" lon="9.5250846"><ele>475.0</ele><time>2026-04-29T14:50:38.787Z</time></trkpt><trkpt lat="44.2559628" lon="9.525276"><ele>480.33333333333337</ele><time>2026-04-29T14:50:39.787Z</time></trkpt><trkpt lat="44.2558802" lon="9.52546"><ele>485.66666666666663</ele><time>2026-04-29T14:50:40.786Z</time></trkpt><trkpt lat="44.2558129" lon="9.5256464"><ele>491.0</ele><time>2026-04-29T14:50:41.784Z</time></trkpt><trkpt lat="44.2557745" lon="9.5258448"><ele>491.0</ele><time>2026-04-29T14:50:42.784Z</time></trkpt><trkpt lat="44.2557556" lon="9.5260486"><ele>491.0</ele><time>2026-04-29T14:50:43.783Z</time></trkpt><trkpt lat="44.2557424" lon="9.5262524"><ele>491.0</ele><time>2026-04-29T14:50:44.785Z</time></trkpt><trkpt lat="44.2557277" lon="9.5264438"><ele>491.0</ele><time>2026-04-29T14:50:45.785Z</time></trkpt><trkpt lat="44.2557184" lon="9.5266206"><ele>493.0</ele><time>2026-04-29T14:50:46.786Z</time></trkpt><trkpt lat="44.255712" lon="9.5267725"><ele>495.0</ele><time>2026-04-29T14:50:47.786Z</time></trkpt><trkpt lat="44.2556965" lon="9.52692"><ele>497.0</ele><time>2026-04-29T14:50:48.784Z</time></trkpt><trkpt lat="44.2556579" lon="9.5270625"><ele>499.0</ele><time>2026-04-29T14:50:49.785Z</time></trkpt><trkpt lat="44.2555978" lon="9.5271927"><ele>501.0</ele><time>2026-04-29T14:50:50.786Z</time></trkpt><trkpt lat="44.2555164" lon="9.5273067"><ele>501.0</ele><time>2026-04-29T14:50:51.785Z</time></trkpt><trkpt lat="44.2554202" lon="9.5274088"><ele>501.0</ele><time>2026-04-29T14:50:52.785Z</time></trkpt><trkpt lat="44.2553169" lon="9.5275093"><ele>501.0</ele><time>2026-04-29T14:50:53.785Z</time></trkpt><trkpt lat="44.2552127" lon="9.5276161"><ele>501.0</ele><time>2026-04-29T14:50:54.787Z</time></trkpt><trkpt lat="44.2551101" lon="9.527729"><ele>501.0</ele><time>2026-04-29T14:50:55.782Z</time></trkpt><trkpt lat="44.255012" lon="9.5278479"><ele>501.0</ele><time>2026-04-29T14:50:56.785Z</time></trkpt><trkpt lat="44.2549157" lon="9.5279752"><ele>501.0</ele><time>2026-04-29T14:50:57.785Z</time></trkpt><trkpt lat="44.2548185" lon="9.5281104"><ele>501.0</ele><time>2026-04-29T14:50:58.784Z</time></trkpt><trkpt lat="44.2547178" lon="9.5282476"><ele>503.33333333333337</ele><time>2026-04-29T14:50:59.785Z</time></trkpt><trkpt lat="44.2546087" lon="9.5283842"><ele>505.6666666666667</ele><time>2026-04-29T14:51:00.786Z</time></trkpt><trkpt lat="44.2544929" lon="9.5285174"><ele>508.0</ele><time>2026-04-29T14:51:01.786Z</time></trkpt><trkpt lat="44.2543696" lon="9.5286544"><ele>514.6666666666667</ele><time>2026-04-29T14:51:02.785Z</time></trkpt><trkpt lat="44.2542549" lon="9.5288067"><ele>521.3333333333334</ele><time>2026-04-29T14:51:03.785Z</time></trkpt><trkpt lat="44.2541498" lon="9.5289707"><ele>528.0</ele><time>2026-04-29T14:51:04.786Z</time></trkpt><trkpt lat="44.2540477" lon="9.529134"><ele>527.75</ele><time>2026-04-29T14:51:05.785Z</time></trkpt><trkpt lat="44.2539451" lon="9.5292792"><ele>527.5</ele><time>2026-04-29T14:51:06.785Z</time></trkpt><trkpt lat="44.2538599" lon="9.5293977"><ele>527.25</ele><time>2026-04-29T14:51:07.784Z</time></trkpt><trkpt lat="44.2537848" lon="9.5294956"><ele>527.0</ele><time>2026-04-29T14:51:08.785Z</time></trkpt><trkpt lat="44.2537015" lon="9.5295696"><ele>527.0</ele><time>2026-04-29T14:51:09.785Z</time></trkpt><trkpt lat="44.2536074" lon="9.5296131"><ele>527.0</ele><time>2026-04-29T14:51:10.783Z</time></trkpt><trkpt lat="44.2535005" lon="9.5296252"><ele>527.0</ele><time>2026-04-29T14:51:11.785Z</time></trkpt><trkpt lat="44.2533883" lon="9.5296054"><ele>527.0</ele><time>2026-04-29T14:51:12.786Z</time></trkpt><trkpt lat="44.2532757" lon="9.5295626"><ele>527.0</ele><time>2026-04-29T14:51:13.785Z</time></trkpt><trkpt lat="44.2531569" lon="9.5294964"><ele>530.25</ele><time>2026-04-29T14:51:14.785Z</time></trkpt><trkpt lat="44.2530442" lon="9.5294176"><ele>533.5</ele><time>2026-04-29T14:51:15.784Z</time></trkpt><trkpt lat="44.2529202" lon="9.5293192"><ele>536.75</ele><time>2026-04-29T14:51:16.785Z</time></trkpt><trkpt lat="44.2527968" lon="9.5292202"><ele>540.0</ele><time>2026-04-29T14:51:17.783Z</time></trkpt><trkpt lat="44.2526869" lon="9.5291344"><ele>540.0</ele><time>2026-04-29T14:51:18.786Z</time></trkpt><trkpt lat="44.2525919" lon="9.529063"><ele>540.0</ele><time>2026-04-29T14:51:19.788Z</time></trkpt><trkpt lat="44.2525057" lon="9.5289967"><ele>540.0</ele><time>2026-04-29T14:51:20.785Z</time></trkpt><trkpt lat="44.2524244" lon="9.5289425"><ele>540.0</ele><time>2026-04-29T14:51:21.783Z</time></trkpt><trkpt lat="44.2523492" lon="9.5289401"><ele>540.0</ele><time>2026-04-29T14:51:22.785Z</time></trkpt><trkpt lat="44.252289" lon="9.5290035"><ele>540.0</ele><time>2026-04-29T14:51:23.784Z</time></trkpt><trkpt lat="44.2522677" lon="9.5290885"><ele>540.0</ele><time>2026-04-29T14:51:24.785Z</time></trkpt><trkpt lat="44.2522832" lon="9.5291746"><ele>540.0</ele><time>2026-04-29T14:51:25.786Z</time></trkpt><trkpt lat="44.2523338" lon="9.5292559"><ele>540.0</ele><time>2026-04-29T14:51:26.785Z</time></trkpt><trkpt lat="44.2524075" lon="9.5293395"><ele>540.0</ele><time>2026-04-29T14:51:27.784Z</time></trkpt><trkpt lat="44.2525245" lon="9.5294583"><ele>540.0</ele><time>2026-04-29T14:51:28.783Z</time></trkpt><trkpt lat="44.2526524" lon="9.5295925"><ele>546.0</ele><time>2026-04-29T14:51:29.785Z</time></trkpt><trkpt lat="44.252791" lon="9.5297339"><ele>552.0</ele><time>2026-04-29T14:51:30.786Z</time></trkpt><trkpt lat="44.2529451" lon="9.5298896"><ele>558.0</ele><time>2026-04-29T14:51:31.785Z</time></trkpt><trkpt lat="44.2530917" lon="9.5300379"><ele>559.5</ele><time>2026-04-29T14:51:32.786Z</time></trkpt><trkpt lat="44.2532179" lon="9.5301626"><ele>561.0</ele><time>2026-04-29T14:51:33.785Z</time></trkpt><trkpt lat="44.2533295" lon="9.5302699"><ele>562.5</ele><time>2026-04-29T14:51:34.784Z</time></trkpt><trkpt lat="44.2534141" lon="9.5303563"><ele>564.0</ele><time>2026-04-29T14:51:35.786Z</time></trkpt><trkpt lat="44.2534839" lon="9.5304265"><ele>564.0</ele><time>2026-04-29T14:51:36.787Z</time></trkpt><trkpt lat="44.2535434" lon="9.5305018"><ele>564.0</ele><time>2026-04-29T14:51:37.785Z</time></trkpt><trkpt lat="44.2535924" lon="9.5305995"><ele>564.0</ele><time>2026-04-29T14:51:38.785Z</time></trkpt><trkpt lat="44.2536256" lon="9.5307218"><ele>564.0</ele><time>2026-04-29T14:51:39.785Z</time></trkpt><trkpt lat="44.2536544" lon="9.5308622"><ele>564.0</ele><time>2026-04-29T14:51:40.786Z</time></trkpt><trkpt lat="44.2536857" lon="9.5309982"><ele>564.0</ele><time>2026-04-29T14:51:41.784Z</time></trkpt><trkpt lat="44.253714" lon="9.5311247"><ele>564.0</ele><time>2026-04-29T14:51:42.785Z</time></trkpt><trkpt lat="44.2537315" lon="9.531253"><ele>564.0</ele><time>2026-04-29T14:51:43.786Z</time></trkpt><trkpt lat="44.2537222" lon="9.5313839"><ele>564.0</ele><time>2026-04-29T14:51:44.787Z</time></trkpt><trkpt lat="44.2536826" lon="9.531508"><ele>564.0</ele><time>2026-04-29T14:51:45.785Z</time></trkpt><trkpt lat="44.2536126" lon="9.5316164"><ele>565.2</ele><time>2026-04-29T14:51:46.784Z</time></trkpt><trkpt lat="44.253521" lon="9.5317072"><ele>566.4</ele><time>2026-04-29T14:51:47.785Z</time></trkpt><trkpt lat="44.2534251" lon="9.5317903"><ele>567.6</ele><time>2026-04-29T14:51:48.785Z</time></trkpt><trkpt lat="44.2533404" lon="9.531863"><ele>568.8</ele><time>2026-04-29T14:51:49.785Z</time></trkpt><trkpt lat="44.2532702" lon="9.5319383"><ele>570.0</ele><time>2026-04-29T14:51:50.786Z</time></trkpt><trkpt lat="44.2532266" lon="9.5320343"><ele>569.0</ele><time>2026-04-29T14:51:51.787Z</time></trkpt><trkpt lat="44.2532158" lon="9.5321424"><ele>568.0</ele><time>2026-04-29T14:51:52.784Z</time></trkpt><trkpt lat="44.2532436" lon="9.5322533"><ele>567.0</ele><time>2026-04-29T14:51:53.785Z</time></trkpt><trkpt lat="44.2532952" lon="9.5323679"><ele>566.0</ele><time>2026-04-29T14:51:54.784Z</time></trkpt><trkpt lat="44.2533659" lon="9.5325022"><ele>565.0</ele><time>2026-04-29T14:51:55.785Z</time></trkpt><trkpt lat="44.2534396" lon="9.5326362"><ele>565.0</ele><time>2026-04-29T14:51:56.786Z</time></trkpt><trkpt lat="44.2535099" lon="9.5327659"><ele>565.0</ele><time>2026-04-29T14:51:57.786Z</time></trkpt><trkpt lat="44.2535735" lon="9.5328953"><ele>565.0</ele><time>2026-04-29T14:51:58.785Z</time></trkpt><trkpt lat="44.2536178" lon="9.5330303"><ele>565.0</ele><time>2026-04-29T14:51:59.785Z</time></trkpt><trkpt lat="44.253638" lon="9.5331785"><ele>565.0</ele><time>2026-04-29T14:52:00.785Z</time></trkpt><trkpt lat="44.253635" lon="9.5333239"><ele>566.8</ele><time>2026-04-29T14:52:01.785Z</time></trkpt><trkpt lat="44.2536201" lon="9.5334743"><ele>568.6</ele><time>2026-04-29T14:52:02.784Z</time></trkpt><trkpt lat="44.2536131" lon="9.5336184"><ele>570.4</ele><time>2026-04-29T14:52:03.785Z</time></trkpt><trkpt lat="44.2536338" lon="9.5337488"><ele>572.2</ele><time>2026-04-29T14:52:04.785Z</time></trkpt><trkpt lat="44.2536748" lon="9.5338692"><ele>574.0</ele><time>2026-04-29T14:52:05.786Z</time></trkpt><trkpt lat="44.2537235" lon="9.5339773"><ele>573.3333333333334</ele><time>2026-04-29T14:52:06.785Z</time></trkpt><trkpt lat="44.2537658" lon="9.5340758"><ele>572.6666666666667</ele><time>2026-04-29T14:52:07.784Z</time></trkpt><trkpt lat="44.2537895" lon="9.5341762"><ele>572.0</ele><time>2026-04-29T14:52:08.782Z</time></trkpt><trkpt lat="44.2537898" lon="9.5342865"><ele>571.3333333333334</ele><time>2026-04-29T14:52:09.786Z</time></trkpt><trkpt lat="44.2537662" lon="9.5344108"><ele>570.6666666666666</ele><time>2026-04-29T14:52:10.792Z</time></trkpt><trkpt lat="44.2537186" lon="9.5345475"><ele>570.0</ele><time>2026-04-29T14:52:11.786Z</time></trkpt><trkpt lat="44.2536589" lon="9.5347037"><ele>570.0</ele><time>2026-04-29T14:52:12.786Z</time></trkpt><trkpt lat="44.2535926" lon="9.5348925"><ele>570.0</ele><time>2026-04-29T14:52:13.783Z</time></trkpt><trkpt lat="44.2535339" lon="9.5350925"><ele>570.0</ele><time>2026-04-29T14:52:14.792Z</time></trkpt><trkpt lat="44.2534973" lon="9.5353023"><ele>567.3333333333334</ele><time>2026-04-29T14:52:15.785Z</time></trkpt><trkpt lat="44.253487" lon="9.535519"><ele>564.6666666666667</ele><time>2026-04-29T14:52:16.787Z</time></trkpt><trkpt lat="44.2534905" lon="9.5357536"><ele>562.0</ele><time>2026-04-29T14:52:17.785Z</time></trkpt><trkpt lat="44.2534912" lon="9.536007"><ele>560.0</ele><time>2026-04-29T14:52:18.784Z</time></trkpt><trkpt lat="44.2534826" lon="9.536273"><ele>558.0</ele><time>2026-04-29T14:52:19.784Z</time></trkpt><trkpt lat="44.2534606" lon="9.5365456"><ele>556.0</ele><time>2026-04-29T14:52:20.784Z</time></trkpt><trkpt lat="44.2534327" lon="9.5368127"><ele>555.0</ele><time>2026-04-29T14:52:21.783Z</time></trkpt><trkpt lat="44.2533954" lon="9.5370616"><ele>554.0</ele><time>2026-04-29T14:52:22.784Z</time></trkpt><trkpt lat="44.2533697" lon="9.5372867"><ele>553.0</ele><time>2026-04-29T14:52:23.786Z</time></trkpt><trkpt lat="44.2533607" lon="9.5374929"><ele>553.0</ele><time>2026-04-29T14:52:24.786Z</time></trkpt><trkpt lat="44.2533821" lon="9.5376856"><ele>553.0</ele><time>2026-04-29T14:52:25.786Z</time></trkpt><trkpt lat="44.2534447" lon="9.5378428"><ele>553.0</ele><time>2026-04-29T14:52:26.785Z</time></trkpt><trkpt lat="44.2535418" lon="9.5379618"><ele>553.0</ele><time>2026-04-29T14:52:27.786Z</time></trkpt><trkpt lat="44.253651" lon="9.5380619"><ele>550.0</ele><time>2026-04-29T14:52:28.789Z</time></trkpt><trkpt lat="44.2537404" lon="9.5381867"><ele>547.0</ele><time>2026-04-29T14:52:29.786Z</time></trkpt><trkpt lat="44.2537937" lon="9.5383391"><ele>544.0</ele><time>2026-04-29T14:52:30.792Z</time></trkpt><trkpt lat="44.2538206" lon="9.5385129"><ele>541.0</ele><time>2026-04-29T14:52:31.784Z</time></trkpt><trkpt lat="44.2538482" lon="9.5386977"><ele>536.0</ele><time>2026-04-29T14:52:32.785Z</time></trkpt><trkpt lat="44.2539033" lon="9.5388875"><ele>531.0</ele><time>2026-04-29T14:52:33.785Z</time></trkpt><trkpt lat="44.2539827" lon="9.5390902"><ele>526.0</ele><time>2026-04-29T14:52:34.788Z</time></trkpt><trkpt lat="44.2540678" lon="9.5392983"><ele>539.3333333333334</ele><time>2026-04-29T14:52:35.786Z</time></trkpt><trkpt lat="44.2541341" lon="9.5395088"><ele>552.6666666666666</ele><time>2026-04-29T14:52:36.785Z</time></trkpt><trkpt lat="44.254179" lon="9.5397124"><ele>566.0</ele><time>2026-04-29T14:52:37.785Z</time></trkpt><trkpt lat="44.2542013" lon="9.539923"><ele>566.0</ele><time>2026-04-29T14:52:38.785Z</time></trkpt><trkpt lat="44.2541995" lon="9.5401433"><ele>566.0</ele><time>2026-04-29T14:52:39.785Z</time></trkpt><trkpt lat="44.2541857" lon="9.5403773"><ele>566.0</ele><time>2026-04-29T14:52:40.784Z</time></trkpt><trkpt lat="44.2541715" lon="9.5405986"><ele>567.0</ele><time>2026-04-29T14:52:41.786Z</time></trkpt><trkpt lat="44.2541406" lon="9.5408118"><ele>568.0</ele><time>2026-04-29T14:52:42.787Z</time></trkpt><trkpt lat="44.2540835" lon="9.5410193"><ele>569.0</ele><time>2026-04-29T14:52:43.784Z</time></trkpt><trkpt lat="44.2540014" lon="9.5412169"><ele>558.0</ele><time>2026-04-29T14:52:44.785Z</time></trkpt><trkpt lat="44.2539102" lon="9.5414128"><ele>547.0</ele><time>2026-04-29T14:52:45.785Z</time></trkpt><trkpt lat="44.2538194" lon="9.5416198"><ele>536.0</ele><time>2026-04-29T14:52:46.788Z</time></trkpt><trkpt lat="44.253738" lon="9.5418345"><ele>536.0</ele><time>2026-04-29T14:52:47.785Z</time></trkpt><trkpt lat="44.2536741" lon="9.542044"><ele>536.0</ele><time>2026-04-29T14:52:48.786Z</time></trkpt><trkpt lat="44.2536354" lon="9.5422491"><ele>536.0</ele><time>2026-04-29T14:52:49.785Z</time></trkpt><trkpt lat="44.2536289" lon="9.5424548"><ele>535.75</ele><time>2026-04-29T14:52:50.786Z</time></trkpt><trkpt lat="44.2536606" lon="9.5426513"><ele>535.5</ele><time>2026-04-29T14:52:51.786Z</time></trkpt><trkpt lat="44.2537271" lon="9.5428394"><ele>535.25</ele><time>2026-04-29T14:52:52.785Z</time></trkpt><trkpt lat="44.2538207" lon="9.543008"><ele>535.0</ele><time>2026-04-29T14:52:53.783Z</time></trkpt><trkpt lat="44.2539264" lon="9.5431447"><ele>543.0</ele><time>2026-04-29T14:52:54.787Z</time></trkpt><trkpt lat="44.2540226" lon="9.5432851"><ele>551.0</ele><time>2026-04-29T14:52:55.787Z</time></trkpt><trkpt lat="44.2540837" lon="9.5434617"><ele>559.0</ele><time>2026-04-29T14:52:56.786Z</time></trkpt><trkpt lat="44.2541092" lon="9.5436583"><ele>567.0</ele><time>2026-04-29T14:52:57.785Z</time></trkpt><trkpt lat="44.2541202" lon="9.5438865"><ele>567.0</ele><time>2026-04-29T14:52:58.784Z</time></trkpt><trkpt lat="44.2541371" lon="9.5441357"><ele>567.0</ele><time>2026-04-29T14:52:59.783Z</time></trkpt><trkpt lat="44.2541771" lon="9.5444081"><ele>567.0</ele><time>2026-04-29T14:53:00.786Z</time></trkpt><trkpt lat="44.2542328" lon="9.5446891"><ele>565.6666666666666</ele><time>2026-04-29T14:53:01.784Z</time></trkpt><trkpt lat="44.2543048" lon="9.5449651"><ele>564.3333333333333</ele><time>2026-04-29T14:53:02.785Z</time></trkpt><trkpt lat="44.2543793" lon="9.5452214"><ele>563.0</ele><time>2026-04-29T14:53:03.784Z</time></trkpt><trkpt lat="44.2544344" lon="9.5454576"><ele>563.0</ele><time>2026-04-29T14:53:04.784Z</time></trkpt><trkpt lat="44.2544557" lon="9.5456967"><ele>563.0</ele><time>2026-04-29T14:53:05.785Z</time></trkpt><trkpt lat="44.2544528" lon="9.5459463"><ele>563.0</ele><time>2026-04-29T14:53:06.786Z</time></trkpt><trkpt lat="44.2544362" lon="9.5462009"><ele>566.0</ele><time>2026-04-29T14:53:07.787Z</time></trkpt><trkpt lat="44.2544017" lon="9.5464439"><ele>569.0</ele><time>2026-04-29T14:53:08.787Z</time></trkpt><trkpt lat="44.2543436" lon="9.5466787"><ele>572.0</ele><time>2026-04-29T14:53:09.785Z</time></trkpt><trkpt lat="44.2542626" lon="9.5468942"><ele>574.75</ele><time>2026-04-29T14:53:10.785Z</time></trkpt><trkpt lat="44.2541585" lon="9.5470756"><ele>577.5</ele><time>2026-04-29T14:53:11.784Z</time></trkpt><trkpt lat="44.2540484" lon="9.5472178"><ele>580.25</ele><time>2026-04-29T14:53:12.787Z</time></trkpt><trkpt lat="44.2539534" lon="9.5473422"><ele>583.0</ele><time>2026-04-29T14:53:13.786Z</time></trkpt><trkpt lat="44.2538903" lon="9.5474864"><ele>572.0</ele><time>2026-04-29T14:53:14.786Z</time></trkpt><trkpt lat="44.2538647" lon="9.5476582"><ele>561.0</ele><time>2026-04-29T14:53:15.784Z</time></trkpt><trkpt lat="44.2538623" lon="9.5478655"><ele>550.0</ele><time>2026-04-29T14:53:16.785Z</time></trkpt><trkpt lat="44.2538674" lon="9.5480661"><ele>539.0</ele><time>2026-04-29T14:53:17.784Z</time></trkpt><trkpt lat="44.2538807" lon="9.5482542"><ele>538.75</ele><time>2026-04-29T14:53:18.785Z</time></trkpt><trkpt lat="44.2539225" lon="9.5484315"><ele>538.5</ele><time>2026-04-29T14:53:19.786Z</time></trkpt><trkpt lat="44.2540024" lon="9.5485879"><ele>538.25</ele><time>2026-04-29T14:53:20.787Z</time></trkpt><trkpt lat="44.2541142" lon="9.548734"><ele>538.0</ele><time>2026-04-29T14:53:21.786Z</time></trkpt><trkpt lat="44.254252" lon="9.5488949"><ele>546.3333333333334</ele><time>2026-04-29T14:53:22.785Z</time></trkpt><trkpt lat="44.2543986" lon="9.5490657"><ele>554.6666666666666</ele><time>2026-04-29T14:53:23.785Z</time></trkpt><trkpt lat="44.254534" lon="9.5492154"><ele>563.0</ele><time>2026-04-29T14:53:24.784Z</time></trkpt><trkpt lat="44.2546767" lon="9.5493358"><ele>563.6666666666666</ele><time>2026-04-29T14:53:25.784Z</time></trkpt><trkpt lat="44.2548286" lon="9.5494217"><ele>564.3333333333334</ele><time>2026-04-29T14:53:26.786Z</time></trkpt><trkpt lat="44.254977" lon="9.5494818"><ele>565.0</ele><time>2026-04-29T14:53:27.785Z</time></trkpt><trkpt lat="44.2551114" lon="9.5495428"><ele>565.0</ele><time>2026-04-29T14:53:28.783Z</time></trkpt><trkpt lat="44.2552127" lon="9.5496442"><ele>565.0</ele><time>2026-04-29T14:53:29.784Z</time></trkpt><trkpt lat="44.2552781" lon="9.5497758"><ele>565.0</ele><time>2026-04-29T14:53:30.785Z</time></trkpt><trkpt lat="44.2553202" lon="9.5499526"><ele>565.0</ele><time>2026-04-29T14:53:31.785Z</time></trkpt><trkpt lat="44.2553312" lon="9.5501756"><ele>566.6666666666667</ele><time>2026-04-29T14:53:32.787Z</time></trkpt><trkpt lat="44.2553208" lon="9.5504317"><ele>568.3333333333334</ele><time>2026-04-29T14:53:33.785Z</time></trkpt><trkpt lat="44.255288" lon="9.5506559"><ele>570.0</ele><time>2026-04-29T14:53:34.786Z</time></trkpt><trkpt lat="44.2552223" lon="9.5508494"><ele>570.0</ele><time>2026-04-29T14:53:35.783Z</time></trkpt><trkpt lat="44.2551204" lon="9.5510488"><ele>570.0</ele><time>2026-04-29T14:53:36.784Z</time></trkpt><trkpt lat="44.2549993" lon="9.5512575"><ele>570.0</ele><time>2026-04-29T14:53:37.782Z</time></trkpt><trkpt lat="44.2548722" lon="9.5514688"><ele>565.6666666666666</ele><time>2026-04-29T14:53:38.784Z</time></trkpt><trkpt lat="44.254757" lon="9.551657"><ele>561.3333333333333</ele><time>2026-04-29T14:53:39.782Z</time></trkpt><trkpt lat="44.2546482" lon="9.551839"><ele>557.0</ele><time>2026-04-29T14:53:40.784Z</time></trkpt><trkpt lat="44.2545484" lon="9.552014"><ele>560.75</ele><time>2026-04-29T14:53:41.784Z</time></trkpt><trkpt lat="44.2544546" lon="9.5521735"><ele>564.5</ele><time>2026-04-29T14:53:42.785Z</time></trkpt><trkpt lat="44.2543707" lon="9.5523222"><ele>568.25</ele><time>2026-04-29T14:53:43.783Z</time></trkpt><trkpt lat="44.2542902" lon="9.5524704"><ele>572.0</ele><time>2026-04-29T14:53:44.784Z</time></trkpt><trkpt lat="44.2542222" lon="9.5526314"><ele>572.0</ele><time>2026-04-29T14:53:45.785Z</time></trkpt><trkpt lat="44.2541727" lon="9.5528026"><ele>572.0</ele><time>2026-04-29T14:53:46.786Z</time></trkpt><trkpt lat="44.2541413" lon="9.5529793"><ele>572.0</ele><time>2026-04-29T14:53:47.785Z</time></trkpt><trkpt lat="44.25412" lon="9.5531529"><ele>572.0</ele><time>2026-04-29T14:53:48.783Z</time></trkpt><trkpt lat="44.2541039" lon="9.553322"><ele>576.25</ele><time>2026-04-29T14:53:49.783Z</time></trkpt><trkpt lat="44.2540814" lon="9.5534824"><ele>580.5</ele><time>2026-04-29T14:53:50.782Z</time></trkpt><trkpt lat="44.2540629" lon="9.5536446"><ele>584.75</ele><time>2026-04-29T14:53:51.784Z</time></trkpt><trkpt lat="44.2540449" lon="9.5538044"><ele>589.0</ele><time>2026-04-29T14:53:52.785Z</time></trkpt><trkpt lat="44.2540241" lon="9.5539709"><ele>591.25</ele><time>2026-04-29T14:53:53.784Z</time></trkpt><trkpt lat="44.2539981" lon="9.5541439"><ele>593.5</ele><time>2026-04-29T14:53:54.785Z</time></trkpt><trkpt lat="44.2539751" lon="9.5543048"><ele>595.75</ele><time>2026-04-29T14:53:55.784Z</time></trkpt><trkpt lat="44.2539506" lon="9.554462"><ele>598.0</ele><time>2026-04-29T14:53:56.783Z</time></trkpt><trkpt lat="44.2539282" lon="9.5546193"><ele>590.5</ele><time>2026-04-29T14:53:57.782Z</time></trkpt><trkpt lat="44.2539074" lon="9.5547773"><ele>583.0</ele><time>2026-04-29T14:53:58.785Z</time></trkpt><trkpt lat="44.2538842" lon="9.5549352"><ele>575.5</ele><time>2026-04-29T14:53:59.785Z</time></trkpt><trkpt lat="44.2538615" lon="9.5550914"><ele>568.0</ele><time>2026-04-29T14:54:00.784Z</time></trkpt><trkpt lat="44.253843" lon="9.5552475"><ele>569.4</ele><time>2026-04-29T14:54:01.785Z</time></trkpt><trkpt lat="44.253825" lon="9.5553932"><ele>570.8</ele><time>2026-04-29T14:54:02.783Z</time></trkpt><trkpt lat="44.253806" lon="9.5555281"><ele>572.2</ele><time>2026-04-29T14:54:03.784Z</time></trkpt><trkpt lat="44.2537857" lon="9.5556676"><ele>573.6</ele><time>2026-04-29T14:54:04.783Z</time></trkpt><trkpt lat="44.2537703" lon="9.5558145"><ele>575.0</ele><time>2026-04-29T14:54:05.786Z</time></trkpt><trkpt lat="44.2537528" lon="9.5559758"><ele>575.0</ele><time>2026-04-29T14:54:06.784Z</time></trkpt><trkpt lat="44.2537311" lon="9.5561562"><ele>575.0</ele><time>2026-04-29T14:54:07.784Z</time></trkpt><trkpt lat="44.2537069" lon="9.556325"><ele>575.0</ele><time>2026-04-29T14:54:08.782Z</time></trkpt><trkpt lat="44.253684" lon="9.5564849"><ele>575.0</ele><time>2026-04-29T14:54:09.783Z</time></trkpt><trkpt lat="44.2536551" lon="9.5566445"><ele>578.25</ele><time>2026-04-29T14:54:10.787Z</time></trkpt><trkpt lat="44.2536042" lon="9.5568058"><ele>581.5</ele><time>2026-04-29T14:54:11.786Z</time></trkpt><trkpt lat="44.2535277" lon="9.5569543"><ele>584.75</ele><time>2026-04-29T14:54:12.784Z</time></trkpt><trkpt lat="44.2534411" lon="9.5571152"><ele>588.0</ele><time>2026-04-29T14:54:13.785Z</time></trkpt><trkpt lat="44.2533675" lon="9.5572945"><ele>593.6666666666666</ele><time>2026-04-29T14:54:14.783Z</time></trkpt><trkpt lat="44.2533283" lon="9.5574852"><ele>599.3333333333333</ele><time>2026-04-29T14:54:15.784Z</time></trkpt><trkpt lat="44.2532721" lon="9.557683"><ele>605.0</ele><time>2026-04-29T14:54:16.783Z</time></trkpt><trkpt lat="44.2531872" lon="9.5578828"><ele>607.0</ele><time>2026-04-29T14:54:17.785Z</time></trkpt><trkpt lat="44.253091" lon="9.5580765"><ele>609.0</ele><time>2026-04-29T14:54:18.784Z</time></trkpt><trkpt lat="44.2530026" lon="9.5582225"><ele>611.0</ele><time>2026-04-29T14:54:19.783Z</time></trkpt><trkpt lat="44.2529024" lon="9.5583281"><ele>613.0</ele><time>2026-04-29T14:54:20.783Z</time></trkpt><trkpt lat="44.2527981" lon="9.558377"><ele>613.0</ele><time>2026-04-29T14:54:21.783Z</time></trkpt><trkpt lat="44.2526791" lon="9.5583712"><ele>613.0</ele><time>2026-04-29T14:54:22.784Z</time></trkpt><trkpt lat="44.2525589" lon="9.5583277"><ele>613.0</ele><time>2026-04-29T14:54:23.783Z</time></trkpt><trkpt lat="44.2524417" lon="9.5583192"><ele>613.0</ele><time>2026-04-29T14:54:24.784Z</time></trkpt><trkpt lat="44.2523288" lon="9.5583597"><ele>612.0</ele><time>2026-04-29T14:54:25.785Z</time></trkpt><trkpt lat="44.2522386" lon="9.5584588"><ele>611.0</ele><time>2026-04-29T14:54:26.784Z</time></trkpt><trkpt lat="44.2521959" lon="9.5586058"><ele>610.0</ele><time>2026-04-29T14:54:27.784Z</time></trkpt><trkpt lat="44.2521811" lon="9.5587671"><ele>609.0</ele><time>2026-04-29T14:54:28.782Z</time></trkpt><trkpt lat="44.2522051" lon="9.5589671"><ele>613.6666666666666</ele><time>2026-04-29T14:54:29.783Z</time></trkpt><trkpt lat="44.2522433" lon="9.5592135"><ele>618.3333333333333</ele><time>2026-04-29T14:54:30.787Z</time></trkpt><trkpt lat="44.2522817" lon="9.5594734"><ele>623.0</ele><time>2026-04-29T14:54:31.785Z</time></trkpt><trkpt lat="44.2523176" lon="9.5597133"><ele>623.0</ele><time>2026-04-29T14:54:32.786Z</time></trkpt><trkpt lat="44.2523532" lon="9.5599308"><ele>623.0</ele><time>2026-04-29T14:54:33.785Z</time></trkpt><trkpt lat="44.2523805" lon="9.5601364"><ele>623.0</ele><time>2026-04-29T14:54:34.783Z</time></trkpt><trkpt lat="44.2523713" lon="9.5603448"><ele>623.6666666666666</ele><time>2026-04-29T14:54:35.783Z</time></trkpt><trkpt lat="44.2523309" lon="9.5605593"><ele>624.3333333333334</ele><time>2026-04-29T14:54:36.784Z</time></trkpt><trkpt lat="44.2522728" lon="9.5607806"><ele>625.0</ele><time>2026-04-29T14:54:37.785Z</time></trkpt><trkpt lat="44.2522" lon="9.5609824"><ele>616.25</ele><time>2026-04-29T14:54:38.785Z</time></trkpt><trkpt lat="44.2521116" lon="9.5611561"><ele>607.5</ele><time>2026-04-29T14:54:39.786Z</time></trkpt><trkpt lat="44.2520223" lon="9.5613106"><ele>598.75</ele><time>2026-04-29T14:54:40.783Z</time></trkpt><trkpt lat="44.2519616" lon="9.5614745"><ele>590.0</ele><time>2026-04-29T14:54:41.783Z</time></trkpt><trkpt lat="44.2519362" lon="9.5616499"><ele>590.0</ele><time>2026-04-29T14:54:42.783Z</time></trkpt><trkpt lat="44.2519487" lon="9.5618132"><ele>590.0</ele><time>2026-04-29T14:54:43.784Z</time></trkpt><trkpt lat="44.2519997" lon="9.5619651"><ele>590.0</ele><time>2026-04-29T14:54:44.786Z</time></trkpt><trkpt lat="44.2520697" lon="9.5621197"><ele>590.0</ele><time>2026-04-29T14:54:45.784Z</time></trkpt><trkpt lat="44.252121" lon="9.562289"><ele>588.3333333333333</ele><time>2026-04-29T14:54:46.785Z</time></trkpt><trkpt lat="44.2521358" lon="9.5624713"><ele>586.6666666666666</ele><time>2026-04-29T14:54:47.784Z</time></trkpt><trkpt lat="44.2521246" lon="9.5626875"><ele>585.0</ele><time>2026-04-29T14:54:48.783Z</time></trkpt><trkpt lat="44.2521029" lon="9.5629164"><ele>585.0</ele><time>2026-04-29T14:54:49.784Z</time></trkpt><trkpt lat="44.2520854" lon="9.5631282"><ele>585.0</ele><time>2026-04-29T14:54:50.786Z</time></trkpt><trkpt lat="44.2520642" lon="9.5633238"><ele>585.0</ele><time>2026-04-29T14:54:51.786Z</time></trkpt><trkpt lat="44.2520346" lon="9.5635056"><ele>585.0</ele><time>2026-04-29T14:54:52.785Z</time></trkpt><trkpt lat="44.2519936" lon="9.5636733"><ele>586.5</ele><time>2026-04-29T14:54:53.784Z</time></trkpt><trkpt lat="44.2519504" lon="9.5638295"><ele>588.0</ele><time>2026-04-29T14:54:54.784Z</time></trkpt><trkpt lat="44.251919" lon="9.5639822"><ele>589.5</ele><time>2026-04-29T14:54:55.784Z</time></trkpt><trkpt lat="44.2519294" lon="9.5641524"><ele>591.0</ele><time>2026-04-29T14:54:56.784Z</time></trkpt><trkpt lat="44.2519699" lon="9.564339"><ele>588.75</ele><time>2026-04-29T14:54:57.785Z</time></trkpt><trkpt lat="44.25203" lon="9.5645446"><ele>586.5</ele><time>2026-04-29T14:54:58.785Z</time></trkpt><trkpt lat="44.2520834" lon="9.5647305"><ele>584.25</ele><time>2026-04-29T14:54:59.783Z</time></trkpt><trkpt lat="44.2521305" lon="9.5649148"><ele>582.0</ele><time>2026-04-29T14:55:00.783Z</time></trkpt><trkpt lat="44.2521514" lon="9.5651014"><ele>582.0</ele><time>2026-04-29T14:55:01.783Z</time></trkpt><trkpt lat="44.2521375" lon="9.5653027"><ele>582.0</ele><time>2026-04-29T14:55:02.784Z</time></trkpt><trkpt lat="44.2521018" lon="9.5655287"><ele>582.0</ele><time>2026-04-29T14:55:03.784Z</time></trkpt><trkpt lat="44.2520633" lon="9.5657641"><ele>584.75</ele><time>2026-04-29T14:55:04.785Z</time></trkpt><trkpt lat="44.252028" lon="9.5659605"><ele>587.5</ele><time>2026-04-29T14:55:05.785Z</time></trkpt><trkpt lat="44.2519841" lon="9.5661255"><ele>590.25</ele><time>2026-04-29T14:55:06.784Z</time></trkpt><trkpt lat="44.2519205" lon="9.5662641"><ele>593.0</ele><time>2026-04-29T14:55:07.788Z</time></trkpt><trkpt lat="44.2518278" lon="9.5663444"><ele>589.25</ele><time>2026-04-29T14:55:08.784Z</time></trkpt><trkpt lat="44.2517118" lon="9.5663807"><ele>585.5</ele><time>2026-04-29T14:55:09.784Z</time></trkpt><trkpt lat="44.2515856" lon="9.5663922"><ele>581.75</ele><time>2026-04-29T14:55:10.789Z</time></trkpt><trkpt lat="44.2514663" lon="9.5664449"><ele>578.0</ele><time>2026-04-29T14:55:11.785Z</time></trkpt><trkpt lat="44.2513719" lon="9.5665515"><ele>578.0</ele><time>2026-04-29T14:55:12.784Z</time></trkpt><trkpt lat="44.2512999" lon="9.5667102"><ele>578.0</ele><time>2026-04-29T14:55:13.783Z</time></trkpt><trkpt lat="44.2512403" lon="9.5669245"><ele>578.0</ele><time>2026-04-29T14:55:14.783Z</time></trkpt><trkpt lat="44.2511658" lon="9.5671834"><ele>587.0</ele><time>2026-04-29T14:55:15.785Z</time></trkpt><trkpt lat="44.2510999" lon="9.5674125"><ele>596.0</ele><time>2026-04-29T14:55:16.785Z</time></trkpt><trkpt lat="44.2510437" lon="9.5676048"><ele>605.0</ele><time>2026-04-29T14:55:17.784Z</time></trkpt><trkpt lat="44.2509919" lon="9.5677675"><ele>603.8</ele><time>2026-04-29T14:55:18.784Z</time></trkpt><trkpt lat="44.2509208" lon="9.5678822"><ele>602.6</ele><time>2026-04-29T14:55:19.784Z</time></trkpt><trkpt lat="44.2508277" lon="9.5679469"><ele>601.4</ele><time>2026-04-29T14:55:20.784Z</time></trkpt><trkpt lat="44.2507256" lon="9.5679533"><ele>600.2</ele><time>2026-04-29T14:55:21.782Z</time></trkpt><trkpt lat="44.2506195" lon="9.5679005"><ele>599.0</ele><time>2026-04-29T14:55:22.785Z</time></trkpt><trkpt lat="44.2504934" lon="9.5678175"><ele>599.0</ele><time>2026-04-29T14:55:23.786Z</time></trkpt><trkpt lat="44.250329" lon="9.5677404"><ele>599.0</ele><time>2026-04-29T14:55:24.783Z</time></trkpt><trkpt lat="44.2501566" lon="9.5676656"><ele>599.0</ele><time>2026-04-29T14:55:25.784Z</time></trkpt><trkpt lat="44.2500151" lon="9.5676056"><ele>599.0</ele><time>2026-04-29T14:55:26.784Z</time></trkpt><trkpt lat="44.2499015" lon="9.5675863"><ele>599.0</ele><time>2026-04-29T14:55:27.785Z</time></trkpt><trkpt lat="44.2497944" lon="9.5676138"><ele>599.0</ele><time>2026-04-29T14:55:28.785Z</time></trkpt><trkpt lat="44.2497063" lon="9.5676924"><ele>599.0</ele><time>2026-04-29T14:55:29.784Z</time></trkpt><trkpt lat="44.2496456" lon="9.567821"><ele>599.0</ele><time>2026-04-29T14:55:30.785Z</time></trkpt><trkpt lat="44.2495794" lon="9.5679538"><ele>597.3333333333333</ele><time>2026-04-29T14:55:31.785Z</time></trkpt><trkpt lat="44.2496217" lon="9.5681901"><ele>595.6666666666666</ele><time>2026-04-29T14:55:32.784Z</time></trkpt><trkpt lat="44.2496281" lon="9.568435"><ele>594.0</ele><time>2026-04-29T14:55:33.784Z</time></trkpt><trkpt lat="44.2496443" lon="9.5686958"><ele>594.0</ele><time>2026-04-29T14:55:34.783Z</time></trkpt><trkpt lat="44.2496607" lon="9.5689129"><ele>594.0</ele><time>2026-04-29T14:55:35.785Z</time></trkpt><trkpt lat="44.249669" lon="9.5691117"><ele>594.0</ele><time>2026-04-29T14:55:36.787Z</time></trkpt><trkpt lat="44.2496559" lon="9.5692982"><ele>594.0</ele><time>2026-04-29T14:55:37.784Z</time></trkpt><trkpt lat="44.2496038" lon="9.5694911"><ele>598.3333333333334</ele><time>2026-04-29T14:55:38.783Z</time></trkpt><trkpt lat="44.249521" lon="9.5697023"><ele>602.6666666666667</ele><time>2026-04-29T14:55:39.783Z</time></trkpt><trkpt lat="44.2494203" lon="9.5699321"><ele>607.0</ele><time>2026-04-29T14:55:40.782Z</time></trkpt><trkpt lat="44.249307" lon="9.5701753"><ele>614.3333333333334</ele><time>2026-04-29T14:55:41.785Z</time></trkpt><trkpt lat="44.249204" lon="9.5704019"><ele>621.6666666666666</ele><time>2026-04-29T14:55:42.785Z</time></trkpt><trkpt lat="44.2491043" lon="9.5706105"><ele>629.0</ele><time>2026-04-29T14:55:43.784Z</time></trkpt><trkpt lat="44.2489888" lon="9.5707937"><ele>622.3333333333333</ele><time>2026-04-29T14:55:44.783Z</time></trkpt><trkpt lat="44.2488529" lon="9.5709646"><ele>615.6666666666666</ele><time>2026-04-29T14:55:45.783Z</time></trkpt><trkpt lat="44.2487105" lon="9.5711327"><ele>609.0</ele><time>2026-04-29T14:55:46.784Z</time></trkpt><trkpt lat="44.2485839" lon="9.5712905"><ele>609.0</ele><time>2026-04-29T14:55:47.784Z</time></trkpt><trkpt lat="44.2484731" lon="9.5714265"><ele>609.0</ele><time>2026-04-29T14:55:48.785Z</time></trkpt><trkpt lat="44.2483873" lon="9.5715497"><ele>609.0</ele><time>2026-04-29T14:55:49.783Z</time></trkpt><trkpt lat="44.2483406" lon="9.5716982"><ele>609.0</ele><time>2026-04-29T14:55:50.783Z</time></trkpt><trkpt lat="44.2483253" lon="9.5718709"><ele>608.0</ele><time>2026-04-29T14:55:51.783Z</time></trkpt><trkpt lat="44.2483175" lon="9.5720609"><ele>607.0</ele><time>2026-04-29T14:55:52.784Z</time></trkpt><trkpt lat="44.2483193" lon="9.5722332"><ele>606.0</ele><time>2026-04-29T14:55:53.782Z</time></trkpt><trkpt lat="44.248347" lon="9.5723963"><ele>605.0</ele><time>2026-04-29T14:55:54.785Z</time></trkpt><trkpt lat="44.2484126" lon="9.5725408"><ele>605.0</ele><time>2026-04-29T14:55:55.785Z</time></trkpt><trkpt lat="44.2485162" lon="9.5726392"><ele>605.0</ele><time>2026-04-29T14:55:56.783Z</time></trkpt><trkpt lat="44.2486299" lon="9.5727414"><ele>605.0</ele><time>2026-04-29T14:55:57.784Z</time></trkpt><trkpt lat="44.248735" lon="9.5728837"><ele>605.0</ele><time>2026-04-29T14:55:58.783Z</time></trkpt><trkpt lat="44.2488229" lon="9.5730489"><ele>601.25</ele><time>2026-04-29T14:55:59.785Z</time></trkpt><trkpt lat="44.2488927" lon="9.5731989"><ele>597.5</ele><time>2026-04-29T14:56:00.785Z</time></trkpt><trkpt lat="44.2489376" lon="9.5733468"><ele>593.75</ele><time>2026-04-29T14:56:01.785Z</time></trkpt><trkpt lat="44.2489363" lon="9.5735027"><ele>590.0</ele><time>2026-04-29T14:56:02.784Z</time></trkpt><trkpt lat="44.2489073" lon="9.5736852"><ele>591.25</ele><time>2026-04-29T14:56:03.784Z</time></trkpt><trkpt lat="44.2488638" lon="9.5738899"><ele>592.5</ele><time>2026-04-29T14:56:04.785Z</time></trkpt><trkpt lat="44.2488128" lon="9.5740717"><ele>593.75</ele><time>2026-04-29T14:56:05.783Z</time></trkpt><trkpt lat="44.2487271" lon="9.574233"><ele>595.0</ele><time>2026-04-29T14:56:06.784Z</time></trkpt><trkpt lat="44.2485966" lon="9.5743803"><ele>594.6666666666667</ele><time>2026-04-29T14:56:07.783Z</time></trkpt><trkpt lat="44.248431" lon="9.5745472"><ele>594.3333333333334</ele><time>2026-04-29T14:56:08.784Z</time></trkpt><trkpt lat="44.2482404" lon="9.5747416"><ele>594.0</ele><time>2026-04-29T14:56:09.784Z</time></trkpt><trkpt lat="44.2480705" lon="9.5749092"><ele>594.0</ele><time>2026-04-29T14:56:10.783Z</time></trkpt><trkpt lat="44.247904" lon="9.5750764"><ele>594.0</ele><time>2026-04-29T14:56:11.783Z</time></trkpt><trkpt lat="44.247748" lon="9.5752254"><ele>594.0</ele><time>2026-04-29T14:56:12.787Z</time></trkpt><trkpt lat="44.2476071" lon="9.5753558"><ele>591.25</ele><time>2026-04-29T14:56:13.783Z</time></trkpt><trkpt lat="44.2474746" lon="9.5754704"><ele>588.5</ele><time>2026-04-29T14:56:14.785Z</time></trkpt><trkpt lat="44.2473586" lon="9.5755877"><ele>585.75</ele><time>2026-04-29T14:56:15.784Z</time></trkpt><trkpt lat="44.2472558" lon="9.5757287"><ele>583.0</ele><time>2026-04-29T14:56:16.784Z</time></trkpt><trkpt lat="44.2471786" lon="9.5759067"><ele>583.0</ele><time>2026-04-29T14:56:17.783Z</time></trkpt><trkpt lat="44.2471256" lon="9.5761149"><ele>583.0</ele><time>2026-04-29T14:56:18.783Z</time></trkpt><trkpt lat="44.2470738" lon="9.5763445"><ele>583.0</ele><time>2026-04-29T14:56:19.785Z</time></trkpt><trkpt lat="44.2470112" lon="9.5765759"><ele>590.0</ele><time>2026-04-29T14:56:20.785Z</time></trkpt><trkpt lat="44.2469382" lon="9.5767829"><ele>597.0</ele><time>2026-04-29T14:56:21.784Z</time></trkpt><trkpt lat="44.2468505" lon="9.5769543"><ele>604.0</ele><time>2026-04-29T14:56:22.784Z</time></trkpt><trkpt lat="44.2467435" lon="9.5770839"><ele>606.6666666666667</ele><time>2026-04-29T14:56:23.784Z</time></trkpt><trkpt lat="44.2466193" lon="9.5771555"><ele>609.3333333333334</ele><time>2026-04-29T14:56:24.784Z</time></trkpt><trkpt lat="44.2464707" lon="9.5771888"><ele>612.0</ele><time>2026-04-29T14:56:25.783Z</time></trkpt><trkpt lat="44.2462909" lon="9.5772071"><ele>612.0</ele><time>2026-04-29T14:56:26.784Z</time></trkpt><trkpt lat="44.2460891" lon="9.5772332"><ele>612.0</ele><time>2026-04-29T14:56:27.784Z</time></trkpt><trkpt lat="44.2459098" lon="9.5772617"><ele>612.0</ele><time>2026-04-29T14:56:28.784Z</time></trkpt><trkpt lat="44.2457397" lon="9.5772838"><ele>605.6666666666666</ele><time>2026-04-29T14:56:29.783Z</time></trkpt><trkpt lat="44.2455832" lon="9.5773193"><ele>599.3333333333333</ele><time>2026-04-29T14:56:30.782Z</time></trkpt><trkpt lat="44.2454347" lon="9.5773944"><ele>593.0</ele><time>2026-04-29T14:56:31.783Z</time></trkpt><trkpt lat="44.2452826" lon="9.5775067"><ele>593.0</ele><time>2026-04-29T14:56:32.784Z</time></trkpt><trkpt lat="44.2451359" lon="9.5776254"><ele>593.0</ele><time>2026-04-29T14:56:33.785Z</time></trkpt><trkpt lat="44.2450075" lon="9.5777329"><ele>593.0</ele><time>2026-04-29T14:56:34.784Z</time></trkpt><trkpt lat="44.2448899" lon="9.5778469"><ele>596.5</ele><time>2026-04-29T14:56:35.784Z</time></trkpt><trkpt lat="44.244803" lon="9.5779945"><ele>600.0</ele><time>2026-04-29T14:56:36.784Z</time></trkpt><trkpt lat="44.2447457" lon="9.5781855"><ele>603.5</ele><time>2026-04-29T14:56:37.786Z</time></trkpt><trkpt lat="44.2447172" lon="9.5783995"><ele>607.0</ele><time>2026-04-29T14:56:38.785Z</time></trkpt><trkpt lat="44.2446962" lon="9.5786207"><ele>599.75</ele><time>2026-04-29T14:56:39.785Z</time></trkpt><trkpt lat="44.2446641" lon="9.578817"><ele>592.5</ele><time>2026-04-29T14:56:40.784Z</time></trkpt><trkpt lat="44.2446099" lon="9.5790002"><ele>585.25</ele><time>2026-04-29T14:56:41.784Z</time></trkpt><trkpt lat="44.2445171" lon="9.5791658"><ele>578.0</ele><time>2026-04-29T14:56:42.783Z</time></trkpt><trkpt lat="44.2444076" lon="9.579324"><ele>578.0</ele><time>2026-04-29T14:56:43.783Z</time></trkpt><trkpt lat="44.2443067" lon="9.579476"><ele>578.0</ele><time>2026-04-29T14:56:44.785Z</time></trkpt><trkpt lat="44.2442484" lon="9.5796561"><ele>578.0</ele><time>2026-04-29T14:56:45.784Z</time></trkpt><trkpt lat="44.2442308" lon="9.579851"><ele>578.0</ele><time>2026-04-29T14:56:46.784Z</time></trkpt><trkpt lat="44.2442577" lon="9.5800442"><ele>582.6666666666666</ele><time>2026-04-29T14:56:47.785Z</time></trkpt><trkpt lat="44.2443277" lon="9.5802472"><ele>587.3333333333334</ele><time>2026-04-29T14:56:48.784Z</time></trkpt><trkpt lat="44.244405" lon="9.5804904"><ele>592.0</ele><time>2026-04-29T14:56:49.782Z</time></trkpt><trkpt lat="44.2445166" lon="9.5807443"><ele>592.0</ele><time>2026-04-29T14:56:50.786Z</time></trkpt><trkpt lat="44.2446148" lon="9.5810166"><ele>592.0</ele><time>2026-04-29T14:56:51.785Z</time></trkpt><trkpt lat="44.2447174" lon="9.5812916"><ele>592.0</ele><time>2026-04-29T14:56:52.784Z</time></trkpt><trkpt lat="44.2448161" lon="9.5815613"><ele>592.5</ele><time>2026-04-29T14:56:53.785Z</time></trkpt><trkpt lat="44.2449228" lon="9.5818453"><ele>593.0</ele><time>2026-04-29T14:56:54.783Z</time></trkpt><trkpt lat="44.2450259" lon="9.5821252"><ele>591.6666666666666</ele><time>2026-04-29T14:56:55.784Z</time></trkpt><trkpt lat="44.245117" lon="9.5823822"><ele>590.3333333333334</ele><time>2026-04-29T14:56:56.783Z</time></trkpt><trkpt lat="44.2452188" lon="9.582605"><ele>589.0</ele><time>2026-04-29T14:56:57.785Z</time></trkpt><trkpt lat="44.2453519" lon="9.5828013"><ele>588.6666666666667</ele><time>2026-04-29T14:56:58.785Z</time></trkpt><trkpt lat="44.2455178" lon="9.5829669"><ele>588.3333333333334</ele><time>2026-04-29T14:56:59.785Z</time></trkpt><trkpt lat="44.2456883" lon="9.583103"><ele>588.0</ele><time>2026-04-29T14:57:00.785Z</time></trkpt><trkpt lat="44.2458362" lon="9.5832406"><ele>588.0</ele><time>2026-04-29T14:57:01.785Z</time></trkpt><trkpt lat="44.2459413" lon="9.5834075"><ele>588.0</ele><time>2026-04-29T14:57:02.782Z</time></trkpt><trkpt lat="44.2460293" lon="9.5835684"><ele>588.0</ele><time>2026-04-29T14:57:03.784Z</time></trkpt><trkpt lat="44.2461404" lon="9.5836796"><ele>588.0</ele><time>2026-04-29T14:57:04.786Z</time></trkpt><trkpt lat="44.2462776" lon="9.5837359"><ele>588.0</ele><time>2026-04-29T14:57:05.785Z</time></trkpt><trkpt lat="44.2464201" lon="9.5837306"><ele>588.0</ele><time>2026-04-29T14:57:06.784Z</time></trkpt><trkpt lat="44.246562" lon="9.5837053"><ele>588.0</ele><time>2026-04-29T14:57:07.785Z</time></trkpt><trkpt lat="44.2466841" lon="9.5837354"><ele>588.0</ele><time>2026-04-29T14:57:08.783Z</time></trkpt><trkpt lat="44.2467893" lon="9.58382"><ele>588.0</ele><time>2026-04-29T14:57:09.783Z</time></trkpt><trkpt lat="44.2468734" lon="9.5839561"><ele>588.0</ele><time>2026-04-29T14:57:10.783Z</time></trkpt><trkpt lat="44.2469365" lon="9.5841468"><ele>588.0</ele><time>2026-04-29T14:57:11.786Z</time></trkpt><trkpt lat="44.2469939" lon="9.5843797"><ele>585.6666666666666</ele><time>2026-04-29T14:57:12.784Z</time></trkpt><trkpt lat="44.2470493" lon="9.5846411"><ele>583.3333333333333</ele><time>2026-04-29T14:57:13.786Z</time></trkpt><trkpt lat="44.2470968" lon="9.5848774"><ele>581.0</ele><time>2026-04-29T14:57:14.784Z</time></trkpt><trkpt lat="44.2471433" lon="9.5851111"><ele>581.0</ele><time>2026-04-29T14:57:15.783Z</time></trkpt><trkpt lat="44.2471854" lon="9.5853132"><ele>581.0</ele><time>2026-04-29T14:57:16.784Z</time></trkpt><trkpt lat="44.2472352" lon="9.5854976"><ele>581.0</ele><time>2026-04-29T14:57:17.784Z</time></trkpt><trkpt lat="44.2473184" lon="9.5856537"><ele>581.0</ele><time>2026-04-29T14:57:18.783Z</time></trkpt><trkpt lat="44.2474288" lon="9.5857821"><ele>582.0</ele><time>2026-04-29T14:57:19.784Z</time></trkpt><trkpt lat="44.2475206" lon="9.5859113"><ele>583.0</ele><time>2026-04-29T14:57:20.784Z</time></trkpt><trkpt lat="44.247572" lon="9.5860754"><ele>584.0</ele><time>2026-04-29T14:57:21.783Z</time></trkpt><trkpt lat="44.2475808" lon="9.5862432"><ele>585.0</ele><time>2026-04-29T14:57:22.784Z</time></trkpt><trkpt lat="44.2475573" lon="9.5864227"><ele>585.0</ele><time>2026-04-29T14:57:23.783Z</time></trkpt><trkpt lat="44.2475446" lon="9.5866172"><ele>585.0</ele><time>2026-04-29T14:57:24.782Z</time></trkpt><trkpt lat="44.247564" lon="9.5868101"><ele>585.0</ele><time>2026-04-29T14:57:25.786Z</time></trkpt><trkpt lat="44.2476113" lon="9.5869848"><ele>585.0</ele><time>2026-04-29T14:57:26.784Z</time></trkpt><trkpt lat="44.2476945" lon="9.5871474"><ele>584.2</ele><time>2026-04-29T14:57:27.783Z</time></trkpt><trkpt lat="44.2477858" lon="9.5872919"><ele>583.4</ele><time>2026-04-29T14:57:28.783Z</time></trkpt><trkpt lat="44.2478466" lon="9.5874191"><ele>582.6</ele><time>2026-04-29T14:57:29.783Z</time></trkpt><trkpt lat="44.2478609" lon="9.5875563"><ele>581.8</ele><time>2026-04-29T14:57:30.785Z</time></trkpt><trkpt lat="44.2478285" lon="9.5876855"><ele>581.0</ele><time>2026-04-29T14:57:31.785Z</time></trkpt><trkpt lat="44.2477539" lon="9.5878177"><ele>584.6666666666666</ele><time>2026-04-29T14:57:32.785Z</time></trkpt><trkpt lat="44.2476485" lon="9.5879742"><ele>588.3333333333334</ele><time>2026-04-29T14:57:33.782Z</time></trkpt><trkpt lat="44.2475237" lon="9.5881505"><ele>592.0</ele><time>2026-04-29T14:57:34.783Z</time></trkpt><trkpt lat="44.2474187" lon="9.588306"><ele>592.0</ele><time>2026-04-29T14:57:35.784Z</time></trkpt><trkpt lat="44.2473306" lon="9.5884708"><ele>592.0</ele><time>2026-04-29T14:57:36.783Z</time></trkpt><trkpt lat="44.2472686" lon="9.5886631"><ele>592.0</ele><time>2026-04-29T14:57:37.785Z</time></trkpt><trkpt lat="44.2472291" lon="9.588877"><ele>590.5</ele><time>2026-04-29T14:57:38.785Z</time></trkpt><trkpt lat="44.2472002" lon="9.5890814"><ele>589.0</ele><time>2026-04-29T14:57:39.783Z</time></trkpt><trkpt lat="44.2471925" lon="9.5892753"><ele>587.5</ele><time>2026-04-29T14:57:40.79Z</time></trkpt><trkpt lat="44.2472357" lon="9.5894612"><ele>586.0</ele><time>2026-04-29T14:57:41.784Z</time></trkpt><trkpt lat="44.2473134" lon="9.5896358"><ele>586.0</ele><time>2026-04-29T14:57:42.783Z</time></trkpt><trkpt lat="44.2473986" lon="9.5897982"><ele>586.0</ele><time>2026-04-29T14:57:43.785Z</time></trkpt><trkpt lat="44.2474533" lon="9.5899722"><ele>586.0</ele><time>2026-04-29T14:57:44.785Z</time></trkpt><trkpt lat="44.247459" lon="9.5901587"><ele>586.0</ele><time>2026-04-29T14:57:45.785Z</time></trkpt><trkpt lat="44.247427" lon="9.5903255"><ele>583.75</ele><time>2026-04-29T14:57:46.784Z</time></trkpt><trkpt lat="44.2474039" lon="9.5904852"><ele>581.5</ele><time>2026-04-29T14:57:47.784Z</time></trkpt><trkpt lat="44.2474262" lon="9.5906548"><ele>579.25</ele><time>2026-04-29T14:57:48.783Z</time></trkpt><trkpt lat="44.2474954" lon="9.5908148"><ele>577.0</ele><time>2026-04-29T14:57:49.784Z</time></trkpt><trkpt lat="44.2476004" lon="9.5909845"><ele>577.0</ele><time>2026-04-29T14:57:50.784Z</time></trkpt><trkpt lat="44.2477184" lon="9.5911604"><ele>577.0</ele><time>2026-04-29T14:57:51.783Z</time></trkpt><trkpt lat="44.2478079" lon="9.5913083"><ele>577.0</ele><time>2026-04-29T14:57:52.784Z</time></trkpt><trkpt lat="44.2478874" lon="9.5914495"><ele>577.0</ele><time>2026-04-29T14:57:53.784Z</time></trkpt><trkpt lat="44.2479337" lon="9.5916066"><ele>574.5</ele><time>2026-04-29T14:57:54.784Z</time></trkpt><trkpt lat="44.2479358" lon="9.5917737"><ele>572.0</ele><time>2026-04-29T14:57:55.783Z</time></trkpt><trkpt lat="44.2479044" lon="9.5919482"><ele>569.5</ele><time>2026-04-29T14:57:56.786Z</time></trkpt><trkpt lat="44.2478235" lon="9.5921435"><ele>567.0</ele><time>2026-04-29T14:57:57.784Z</time></trkpt><trkpt lat="44.2477104" lon="9.5923641"><ele>567.0</ele><time>2026-04-29T14:57:58.785Z</time></trkpt><trkpt lat="44.2475969" lon="9.5925649"><ele>567.0</ele><time>2026-04-29T14:57:59.782Z</time></trkpt><trkpt lat="44.2474977" lon="9.5927463"><ele>567.0</ele><time>2026-04-29T14:58:00.782Z</time></trkpt><trkpt lat="44.2474112" lon="9.5928923"><ele>568.5</ele><time>2026-04-29T14:58:01.782Z</time></trkpt><trkpt lat="44.2473434" lon="9.5930332"><ele>570.0</ele><time>2026-04-29T14:58:02.783Z</time></trkpt><trkpt lat="44.2473062" lon="9.5932048"><ele>571.5</ele><time>2026-04-29T14:58:03.786Z</time></trkpt><trkpt lat="44.2473085" lon="9.5933948"><ele>573.0</ele><time>2026-04-29T14:58:04.784Z</time></trkpt><trkpt lat="44.2473578" lon="9.5935854"><ele>571.75</ele><time>2026-04-29T14:58:05.784Z</time></trkpt><trkpt lat="44.247436" lon="9.5937725"><ele>570.5</ele><time>2026-04-29T14:58:06.782Z</time></trkpt><trkpt lat="44.2475038" lon="9.5939548"><ele>569.25</ele><time>2026-04-29T14:58:07.783Z</time></trkpt><trkpt lat="44.2475428" lon="9.5941418"><ele>568.0</ele><time>2026-04-29T14:58:08.783Z</time></trkpt><trkpt lat="44.2475411" lon="9.5943475"><ele>566.6666666666667</ele><time>2026-04-29T14:58:09.784Z</time></trkpt><trkpt lat="44.2475134" lon="9.5945816"><ele>565.3333333333334</ele><time>2026-04-29T14:58:10.786Z</time></trkpt><trkpt lat="44.2474819" lon="9.5948672"><ele>564.0</ele><time>2026-04-29T14:58:11.783Z</time></trkpt><trkpt lat="44.2474451" lon="9.5951745"><ele>563.6666666666666</ele><time>2026-04-29T14:58:12.785Z</time></trkpt><trkpt lat="44.2474036" lon="9.5954218"><ele>563.3333333333333</ele><time>2026-04-29T14:58:13.784Z</time></trkpt><trkpt lat="44.2473742" lon="9.595643"><ele>563.0</ele><time>2026-04-29T14:58:14.784Z</time></trkpt><trkpt lat="44.2473893" lon="9.5958464"><ele>563.0</ele><time>2026-04-29T14:58:15.783Z</time></trkpt><trkpt lat="44.2474549" lon="9.5960081"><ele>563.0</ele><time>2026-04-29T14:58:16.784Z</time></trkpt><trkpt lat="44.2475655" lon="9.5961539"><ele>563.0</ele><time>2026-04-29T14:58:17.788Z</time></trkpt><trkpt lat="44.2477045" lon="9.5963045"><ele>562.0</ele><time>2026-04-29T14:58:18.784Z</time></trkpt><trkpt lat="44.2478368" lon="9.5963991"><ele>561.0</ele><time>2026-04-29T14:58:19.784Z</time></trkpt><trkpt lat="44.2479833" lon="9.596418"><ele>560.0</ele><time>2026-04-29T14:58:20.783Z</time></trkpt><trkpt lat="44.2481383" lon="9.5963945"><ele>560.0</ele><time>2026-04-29T14:58:21.782Z</time></trkpt><trkpt lat="44.2482692" lon="9.5963865"><ele>560.0</ele><time>2026-04-29T14:58:22.784Z</time></trkpt><trkpt lat="44.248369" lon="9.5964318"><ele>560.0</ele><time>2026-04-29T14:58:23.784Z</time></trkpt><trkpt lat="44.2484372" lon="9.5965326"><ele>560.0</ele><time>2026-04-29T14:58:24.786Z</time></trkpt><trkpt lat="44.2484729" lon="9.5966841"><ele>560.0</ele><time>2026-04-29T14:58:25.785Z</time></trkpt><trkpt lat="44.2484944" lon="9.5968666"><ele>560.0</ele><time>2026-04-29T14:58:26.784Z</time></trkpt><trkpt lat="44.2485592" lon="9.5970469"><ele>560.0</ele><time>2026-04-29T14:58:27.784Z</time></trkpt><trkpt lat="44.248668" lon="9.5972099"><ele>560.0</ele><time>2026-04-29T14:58:28.784Z</time></trkpt><trkpt lat="44.2487928" lon="9.5973599"><ele>559.3333333333333</ele><time>2026-04-29T14:58:29.783Z</time></trkpt><trkpt lat="44.2488848" lon="9.5975159"><ele>558.6666666666666</ele><time>2026-04-29T14:58:30.784Z</time></trkpt><trkpt lat="44.248948" lon="9.5977016"><ele>558.0</ele><time>2026-04-29T14:58:31.784Z</time></trkpt><trkpt lat="44.2489816" lon="9.5979278"><ele>558.0</ele><time>2026-04-29T14:58:32.783Z</time></trkpt><trkpt lat="44.2489937" lon="9.5981849"><ele>558.0</ele><time>2026-04-29T14:58:33.784Z</time></trkpt><trkpt lat="44.2489976" lon="9.5984763"><ele>558.0</ele><time>2026-04-29T14:58:34.784Z</time></trkpt><trkpt lat="44.2490041" lon="9.5987831"><ele>556.0</ele><time>2026-04-29T14:58:35.783Z</time></trkpt><trkpt lat="44.2490079" lon="9.5990524"><ele>554.0</ele><time>2026-04-29T14:58:36.785Z</time></trkpt><trkpt lat="44.2490157" lon="9.5992892"><ele>552.0</ele><time>2026-04-29T14:58:37.785Z</time></trkpt><trkpt lat="44.2490561" lon="9.5995062"><ele>548.6666666666666</ele><time>2026-04-29T14:58:38.784Z</time></trkpt><trkpt lat="44.2491401" lon="9.5997318"><ele>545.3333333333333</ele><time>2026-04-29T14:58:39.783Z</time></trkpt><trkpt lat="44.2492459" lon="9.599985"><ele>542.0</ele><time>2026-04-29T14:58:40.784Z</time></trkpt><trkpt lat="44.2493612" lon="9.6002719"><ele>537.0</ele><time>2026-04-29T14:58:41.784Z</time></trkpt><trkpt lat="44.2494677" lon="9.6005378"><ele>532.0</ele><time>2026-04-29T14:58:42.785Z</time></trkpt><trkpt lat="44.2495642" lon="9.6007749"><ele>527.0</ele><time>2026-04-29T14:58:43.785Z</time></trkpt><trkpt lat="44.2496511" lon="9.6009848"><ele>527.0</ele><time>2026-04-29T14:58:44.784Z</time></trkpt><trkpt lat="44.2497414" lon="9.601158"><ele>527.0</ele><time>2026-04-29T14:58:45.784Z</time></trkpt><trkpt lat="44.2498522" lon="9.6012587"><ele>527.0</ele><time>2026-04-29T14:58:46.785Z</time></trkpt><trkpt lat="44.2499823" lon="9.6013058"><ele>527.0</ele><time>2026-04-29T14:58:47.784Z</time></trkpt><trkpt lat="44.2501202" lon="9.6013389"><ele>528.0</ele><time>2026-04-29T14:58:48.783Z</time></trkpt><trkpt lat="44.250234" lon="9.6014278"><ele>529.0</ele><time>2026-04-29T14:58:49.786Z</time></trkpt><trkpt lat="44.2503334" lon="9.6015707"><ele>530.0</ele><time>2026-04-29T14:58:50.784Z</time></trkpt><trkpt lat="44.250428" lon="9.6017629"><ele>531.0</ele><time>2026-04-29T14:58:51.784Z</time></trkpt><trkpt lat="44.2505259" lon="9.6019351"><ele>533.75</ele><time>2026-04-29T14:58:52.784Z</time></trkpt><trkpt lat="44.2506438" lon="9.6020714"><ele>536.5</ele><time>2026-04-29T14:58:53.783Z</time></trkpt><trkpt lat="44.2507466" lon="9.6021815"><ele>539.25</ele><time>2026-04-29T14:58:54.784Z</time></trkpt><trkpt lat="44.2508069" lon="9.6023024"><ele>542.0</ele><time>2026-04-29T14:58:55.782Z</time></trkpt><trkpt lat="44.2508254" lon="9.6024342"><ele>542.0</ele><time>2026-04-29T14:58:56.784Z</time></trkpt><trkpt lat="44.2507972" lon="9.6025492"><ele>542.0</ele><time>2026-04-29T14:58:57.784Z</time></trkpt><trkpt lat="44.2507282" lon="9.6026529"><ele>542.0</ele><time>2026-04-29T14:58:58.783Z</time></trkpt><trkpt lat="44.2506404" lon="9.6027573"><ele>542.0</ele><time>2026-04-29T14:58:59.783Z</time></trkpt><trkpt lat="44.250583" lon="9.6028782"><ele>542.0</ele><time>2026-04-29T14:59:00.784Z</time></trkpt><trkpt lat="44.2505682" lon="9.603035"><ele>542.0</ele><time>2026-04-29T14:59:01.783Z</time></trkpt><trkpt lat="44.2505938" lon="9.6032035"><ele>542.0</ele><time>2026-04-29T14:59:02.786Z</time></trkpt><trkpt lat="44.2506497" lon="9.6034043"><ele>542.0</ele><time>2026-04-29T14:59:03.785Z</time></trkpt><trkpt lat="44.250692" lon="9.6035851"><ele>542.0</ele><time>2026-04-29T14:59:04.784Z</time></trkpt><trkpt lat="44.2507104" lon="9.6037522"><ele>542.0</ele><time>2026-04-29T14:59:05.784Z</time></trkpt><trkpt lat="44.2506854" lon="9.6038993"><ele>542.0</ele><time>2026-04-29T14:59:06.785Z</time></trkpt><trkpt lat="44.2506183" lon="9.6040053"><ele>542.0</ele><time>2026-04-29T14:59:07.784Z</time></trkpt><trkpt lat="44.2505177" lon="9.6040848"><ele>542.0</ele><time>2026-04-29T14:59:08.783Z</time></trkpt><trkpt lat="44.2503994" lon="9.6041651"><ele>536.6666666666666</ele><time>2026-04-29T14:59:09.784Z</time></trkpt><trkpt lat="44.2502762" lon="9.6043032"><ele>531.3333333333334</ele><time>2026-04-29T14:59:10.783Z</time></trkpt><trkpt lat="44.2501411" lon="9.6044883"><ele>526.0</ele><time>2026-04-29T14:59:11.783Z</time></trkpt><trkpt lat="44.2500152" lon="9.6046638"><ele>526.0</ele><time>2026-04-29T14:59:12.785Z</time></trkpt><trkpt lat="44.2499163" lon="9.6048449"><ele>526.0</ele><time>2026-04-29T14:59:13.783Z</time></trkpt><trkpt lat="44.2498605" lon="9.6050382"><ele>526.0</ele><time>2026-04-29T14:59:14.784Z</time></trkpt><trkpt lat="44.2498386" lon="9.6052309"><ele>525.0</ele><time>2026-04-29T14:59:15.784Z</time></trkpt><trkpt lat="44.249863" lon="9.6054233"><ele>524.0</ele><time>2026-04-29T14:59:16.784Z</time></trkpt><trkpt lat="44.2499459" lon="9.6056035"><ele>523.0</ele><time>2026-04-29T14:59:17.784Z</time></trkpt><trkpt lat="44.2500518" lon="9.6057609"><ele>522.0</ele><time>2026-04-29T14:59:18.79Z</time></trkpt><trkpt lat="44.250132" lon="9.6059175"><ele>522.0</ele><time>2026-04-29T14:59:19.784Z</time></trkpt><trkpt lat="44.2501722" lon="9.6061059"><ele>522.0</ele><time>2026-04-29T14:59:20.785Z</time></trkpt><trkpt lat="44.2501741" lon="9.6063143"><ele>522.0</ele><time>2026-04-29T14:59:21.784Z</time></trkpt><trkpt lat="44.2501415" lon="9.6065378"><ele>520.3333333333334</ele><time>2026-04-29T14:59:22.783Z</time></trkpt><trkpt lat="44.2501006" lon="9.6068081"><ele>518.6666666666667</ele><time>2026-04-29T14:59:23.784Z</time></trkpt><trkpt lat="44.2500588" lon="9.6071149"><ele>517.0</ele><time>2026-04-29T14:59:24.783Z</time></trkpt><trkpt lat="44.2500092" lon="9.6074629"><ele>517.0</ele><time>2026-04-29T14:59:25.784Z</time></trkpt><trkpt lat="44.2499609" lon="9.607813"><ele>517.0</ele><time>2026-04-29T14:59:26.785Z</time></trkpt><trkpt lat="44.2499145" lon="9.6081383"><ele>517.3333333333334</ele><time>2026-04-29T14:59:27.783Z</time></trkpt><trkpt lat="44.2498719" lon="9.6084214"><ele>517.6666666666666</ele><time>2026-04-29T14:59:28.784Z</time></trkpt><trkpt lat="44.249829" lon="9.6086551"><ele>518.0</ele><time>2026-04-29T14:59:29.783Z</time></trkpt><trkpt lat="44.249754" lon="9.6088481"><ele>509.66666666666663</ele><time>2026-04-29T14:59:30.782Z</time></trkpt><trkpt lat="44.2496492" lon="9.6090024"><ele>501.33333333333337</ele><time>2026-04-29T14:59:31.784Z</time></trkpt><trkpt lat="44.2495346" lon="9.6091545"><ele>493.0</ele><time>2026-04-29T14:59:32.785Z</time></trkpt><trkpt lat="44.2494408" lon="9.6093441"><ele>497.33333333333337</ele><time>2026-04-29T14:59:33.783Z</time></trkpt><trkpt lat="44.2493602" lon="9.609568"><ele>501.66666666666663</ele><time>2026-04-29T14:59:34.785Z</time></trkpt><trkpt lat="44.2493026" lon="9.6098151"><ele>506.0</ele><time>2026-04-29T14:59:35.785Z</time></trkpt><trkpt lat="44.2492604" lon="9.6100808"><ele>510.3333333333333</ele><time>2026-04-29T14:59:36.785Z</time></trkpt><trkpt lat="44.2491907" lon="9.6103447"><ele>514.6666666666666</ele><time>2026-04-29T14:59:37.784Z</time></trkpt><trkpt lat="44.2490987" lon="9.6106228"><ele>519.0</ele><time>2026-04-29T14:59:38.783Z</time></trkpt><trkpt lat="44.2489918" lon="9.6109222"><ele>512.6666666666666</ele><time>2026-04-29T14:59:39.787Z</time></trkpt><trkpt lat="44.2488821" lon="9.6111885"><ele>506.3333333333333</ele><time>2026-04-29T14:59:40.786Z</time></trkpt><trkpt lat="44.2487741" lon="9.6114136"><ele>500.0</ele><time>2026-04-29T14:59:41.786Z</time></trkpt><trkpt lat="44.2486545" lon="9.6116027"><ele>500.0</ele><time>2026-04-29T14:59:42.785Z</time></trkpt><trkpt lat="44.2485217" lon="9.6117422"><ele>500.0</ele><time>2026-04-29T14:59:43.784Z</time></trkpt><trkpt lat="44.2483946" lon="9.6118435"><ele>500.0</ele><time>2026-04-29T14:59:44.783Z</time></trkpt><trkpt lat="44.2482826" lon="9.6119621"><ele>502.25</ele><time>2026-04-29T14:59:45.786Z</time></trkpt><trkpt lat="44.2482155" lon="9.6121273"><ele>504.5</ele><time>2026-04-29T14:59:46.783Z</time></trkpt><trkpt lat="44.2482035" lon="9.6123182"><ele>506.75</ele><time>2026-04-29T14:59:47.785Z</time></trkpt><trkpt lat="44.2482307" lon="9.6125369"><ele>509.0</ele><time>2026-04-29T14:59:48.784Z</time></trkpt><trkpt lat="44.2482854" lon="9.6127787"><ele>507.3333333333333</ele><time>2026-04-29T14:59:49.785Z</time></trkpt><trkpt lat="44.2483388" lon="9.6130162"><ele>505.66666666666663</ele><time>2026-04-29T14:59:50.784Z</time></trkpt><trkpt lat="44.2483676" lon="9.6132415"><ele>504.0</ele><time>2026-04-29T14:59:51.784Z</time></trkpt><trkpt lat="44.2483672" lon="9.6134516"><ele>504.0</ele><time>2026-04-29T14:59:52.785Z</time></trkpt><trkpt lat="44.2483407" lon="9.6136353"><ele>504.0</ele><time>2026-04-29T14:59:53.784Z</time></trkpt><trkpt lat="44.2482735" lon="9.6138028"><ele>504.0</ele><time>2026-04-29T14:59:54.785Z</time></trkpt><trkpt lat="44.2481872" lon="9.6139808"><ele>504.0</ele><time>2026-04-29T14:59:55.784Z</time></trkpt><trkpt lat="44.2480862" lon="9.6141396"><ele>503.25</ele><time>2026-04-29T14:59:56.783Z</time></trkpt><trkpt lat="44.2479555" lon="9.6142644"><ele>502.5</ele><time>2026-04-29T14:59:57.782Z</time></trkpt><trkpt lat="44.2478292" lon="9.614344"><ele>501.75</ele><time>2026-04-29T14:59:58.783Z</time></trkpt><trkpt lat="44.2477281" lon="9.6144416"><ele>501.0</ele><time>2026-04-29T14:59:59.784Z</time></trkpt><trkpt lat="44.2476594" lon="9.6145844"><ele>501.0</ele><time>2026-04-29T15:00:00.785Z</time></trkpt><trkpt lat="44.247606" lon="9.6147637"><ele>501.0</ele><time>2026-04-29T15:00:01.784Z</time></trkpt><trkpt lat="44.2475695" lon="9.6150025"><ele>501.0</ele><time>2026-04-29T15:00:02.784Z</time></trkpt><trkpt lat="44.2475371" lon="9.6152402"><ele>504.33333333333337</ele><time>2026-04-29T15:00:03.785Z</time></trkpt><trkpt lat="44.2475041" lon="9.6154662"><ele>507.6666666666667</ele><time>2026-04-29T15:00:04.784Z</time></trkpt><trkpt lat="44.247442" lon="9.6156553"><ele>511.0</ele><time>2026-04-29T15:00:05.785Z</time></trkpt><trkpt lat="44.2473597" lon="9.6158177"><ele>507.0</ele><time>2026-04-29T15:00:06.784Z</time></trkpt><trkpt lat="44.2472559" lon="9.6159377"><ele>503.0</ele><time>2026-04-29T15:00:07.784Z</time></trkpt><trkpt lat="44.2471402" lon="9.6160148"><ele>499.0</ele><time>2026-04-29T15:00:08.783Z</time></trkpt><trkpt lat="44.2470026" lon="9.6160476"><ele>495.0</ele><time>2026-04-29T15:00:09.783Z</time></trkpt><trkpt lat="44.2468643" lon="9.616061"><ele>495.0</ele><time>2026-04-29T15:00:10.783Z</time></trkpt><trkpt lat="44.2467521" lon="9.6161071"><ele>495.0</ele><time>2026-04-29T15:00:11.783Z</time></trkpt><trkpt lat="44.2466621" lon="9.6162034"><ele>495.0</ele><time>2026-04-29T15:00:12.783Z</time></trkpt><trkpt lat="44.246601" lon="9.6163474"><ele>495.0</ele><time>2026-04-29T15:00:13.785Z</time></trkpt><trkpt lat="44.2465817" lon="9.6164958"><ele>495.5</ele><time>2026-04-29T15:00:14.784Z</time></trkpt><trkpt lat="44.2466039" lon="9.6166663"><ele>496.0</ele><time>2026-04-29T15:00:15.785Z</time></trkpt><trkpt lat="44.2466508" lon="9.6168393"><ele>496.5</ele><time>2026-04-29T15:00:16.784Z</time></trkpt><trkpt lat="44.2466992" lon="9.6170216"><ele>497.0</ele><time>2026-04-29T15:00:17.782Z</time></trkpt><trkpt lat="44.2467107" lon="9.6172293"><ele>495.3333333333333</ele><time>2026-04-29T15:00:18.785Z</time></trkpt><trkpt lat="44.2467048" lon="9.6174782"><ele>493.66666666666663</ele><time>2026-04-29T15:00:19.785Z</time></trkpt><trkpt lat="44.2466907" lon="9.6177648"><ele>492.0</ele><time>2026-04-29T15:00:20.784Z</time></trkpt><trkpt lat="44.2466718" lon="9.6180426"><ele>490.33333333333337</ele><time>2026-04-29T15:00:21.783Z</time></trkpt><trkpt lat="44.2466536" lon="9.6183009"><ele>488.6666666666667</ele><time>2026-04-29T15:00:22.783Z</time></trkpt><trkpt lat="44.2466402" lon="9.6185313"><ele>487.0</ele><time>2026-04-29T15:00:23.784Z</time></trkpt><trkpt lat="44.2466483" lon="9.6187459"><ele>485.0</ele><time>2026-04-29T15:00:24.784Z</time></trkpt><trkpt lat="44.2467033" lon="9.6189469"><ele>483.0</ele><time>2026-04-29T15:00:25.785Z</time></trkpt><trkpt lat="44.2467884" lon="9.6191318"><ele>481.0</ele><time>2026-04-29T15:00:26.785Z</time></trkpt><trkpt lat="44.2468745" lon="9.6193305"><ele>478.33333333333337</ele><time>2026-04-29T15:00:27.783Z</time></trkpt><trkpt lat="44.246937" lon="9.6195542"><ele>475.66666666666663</ele><time>2026-04-29T15:00:28.785Z</time></trkpt><trkpt lat="44.2469742" lon="9.6198031"><ele>473.0</ele><time>2026-04-29T15:00:29.783Z</time></trkpt><trkpt lat="44.2469874" lon="9.6200759"><ele>471.66666666666663</ele><time>2026-04-29T15:00:30.782Z</time></trkpt><trkpt lat="44.246983" lon="9.6203594"><ele>470.33333333333337</ele><time>2026-04-29T15:00:31.784Z</time></trkpt><trkpt lat="44.2469704" lon="9.6206241"><ele>469.0</ele><time>2026-04-29T15:00:32.784Z</time></trkpt><trkpt lat="44.246968" lon="9.6208622"><ele>469.0</ele><time>2026-04-29T15:00:33.785Z</time></trkpt><trkpt lat="44.246998" lon="9.6210853"><ele>469.0</ele><time>2026-04-29T15:00:34.784Z</time></trkpt><trkpt lat="44.2470601" lon="9.6212932"><ele>469.0</ele><time>2026-04-29T15:00:35.784Z</time></trkpt><trkpt lat="44.2471408" lon="9.6214895"><ele>468.0</ele><time>2026-04-29T15:00:36.785Z</time></trkpt><trkpt lat="44.2471972" lon="9.6216859"><ele>467.0</ele><time>2026-04-29T15:00:37.783Z</time></trkpt><trkpt lat="44.2472246" lon="9.6218757"><ele>466.0</ele><time>2026-04-29T15:00:38.784Z</time></trkpt><trkpt lat="44.2472128" lon="9.6220655"><ele>465.0</ele><time>2026-04-29T15:00:39.784Z</time></trkpt><trkpt lat="44.2471659" lon="9.6222762"><ele>464.5</ele><time>2026-04-29T15:00:40.783Z</time></trkpt><trkpt lat="44.2471179" lon="9.6224758"><ele>464.0</ele><time>2026-04-29T15:00:41.783Z</time></trkpt><trkpt lat="44.2470743" lon="9.6226452"><ele>463.5</ele><time>2026-04-29T15:00:42.781Z</time></trkpt><trkpt lat="44.2470236" lon="9.622802"><ele>463.0</ele><time>2026-04-29T15:00:43.785Z</time></trkpt><trkpt lat="44.2469547" lon="9.6229334"><ele>465.5</ele><time>2026-04-29T15:00:44.786Z</time></trkpt><trkpt lat="44.2468664" lon="9.6230384"><ele>468.0</ele><time>2026-04-29T15:00:45.784Z</time></trkpt><trkpt lat="44.2467631" lon="9.623134"><ele>470.5</ele><time>2026-04-29T15:00:46.785Z</time></trkpt><trkpt lat="44.2466472" lon="9.6232107"><ele>473.0</ele><time>2026-04-29T15:00:47.783Z</time></trkpt><trkpt lat="44.2465358" lon="9.6232779"><ele>470.2</ele><time>2026-04-29T15:00:48.784Z</time></trkpt><trkpt lat="44.2464244" lon="9.6233278"><ele>467.4</ele><time>2026-04-29T15:00:49.786Z</time></trkpt><trkpt lat="44.2463151" lon="9.6233387"><ele>464.59999999999997</ele><time>2026-04-29T15:00:50.785Z</time></trkpt><trkpt lat="44.2462072" lon="9.623309"><ele>461.79999999999995</ele><time>2026-04-29T15:00:51.785Z</time></trkpt><trkpt lat="44.246105" lon="9.6232724"><ele>459.0</ele><time>2026-04-29T15:00:52.783Z</time></trkpt><trkpt lat="44.246009" lon="9.6232626"><ele>459.0</ele><time>2026-04-29T15:00:53.784Z</time></trkpt><trkpt lat="44.2459187" lon="9.6233076"><ele>459.0</ele><time>2026-04-29T15:00:54.784Z</time></trkpt><trkpt lat="44.2458521" lon="9.6234036"><ele>459.0</ele><time>2026-04-29T15:00:55.784Z</time></trkpt><trkpt lat="44.2458282" lon="9.6235294"><ele>459.0</ele><time>2026-04-29T15:00:56.785Z</time></trkpt><trkpt lat="44.2458453" lon="9.6236647"><ele>459.0</ele><time>2026-04-29T15:00:57.786Z</time></trkpt><trkpt lat="44.2459085" lon="9.6237865"><ele>457.75</ele><time>2026-04-29T15:00:58.783Z</time></trkpt><trkpt lat="44.2460015" lon="9.6238875"><ele>456.5</ele><time>2026-04-29T15:00:59.784Z</time></trkpt><trkpt lat="44.2460972" lon="9.6240066"><ele>455.25</ele><time>2026-04-29T15:01:00.785Z</time></trkpt><trkpt lat="44.2461876" lon="9.6241697"><ele>454.0</ele><time>2026-04-29T15:01:01.785Z</time></trkpt><trkpt lat="44.2462617" lon="9.6243479"><ele>449.5</ele><time>2026-04-29T15:01:02.783Z</time></trkpt><trkpt lat="44.2463273" lon="9.6245175"><ele>445.0</ele><time>2026-04-29T15:01:03.785Z</time></trkpt><trkpt lat="44.2463759" lon="9.6246887"><ele>440.5</ele><time>2026-04-29T15:01:04.785Z</time></trkpt><trkpt lat="44.2463893" lon="9.6248774"><ele>436.0</ele><time>2026-04-29T15:01:05.784Z</time></trkpt><trkpt lat="44.2463788" lon="9.6250697"><ele>436.0</ele><time>2026-04-29T15:01:06.784Z</time></trkpt><trkpt lat="44.2463886" lon="9.6252654"><ele>436.0</ele><time>2026-04-29T15:01:07.784Z</time></trkpt><trkpt lat="44.2464327" lon="9.6254622"><ele>436.0</ele><time>2026-04-29T15:01:08.786Z</time></trkpt><trkpt lat="44.2464765" lon="9.6256415"><ele>436.0</ele><time>2026-04-29T15:01:09.784Z</time></trkpt><trkpt lat="44.246482" lon="9.6258135"><ele>431.75</ele><time>2026-04-29T15:01:10.784Z</time></trkpt><trkpt lat="44.2464501" lon="9.6259778"><ele>427.5</ele><time>2026-04-29T15:01:11.783Z</time></trkpt><trkpt lat="44.2463867" lon="9.6261226"><ele>423.25</ele><time>2026-04-29T15:01:12.783Z</time></trkpt><trkpt lat="44.2463295" lon="9.6262661"><ele>419.0</ele><time>2026-04-29T15:01:13.783Z</time></trkpt><trkpt lat="44.2463189" lon="9.6264022"><ele>415.25</ele><time>2026-04-29T15:01:14.782Z</time></trkpt><trkpt lat="44.2463563" lon="9.626526"><ele>411.5</ele><time>2026-04-29T15:01:15.783Z</time></trkpt><trkpt lat="44.2464316" lon="9.6266412"><ele>407.75</ele><time>2026-04-29T15:01:16.785Z</time></trkpt><trkpt lat="44.246533" lon="9.6267701"><ele>404.0</ele><time>2026-04-29T15:01:17.785Z</time></trkpt><trkpt lat="44.2466271" lon="9.6268917"><ele>414.25</ele><time>2026-04-29T15:01:18.784Z</time></trkpt><trkpt lat="44.2467023" lon="9.6270064"><ele>424.5</ele><time>2026-04-29T15:01:19.783Z</time></trkpt><trkpt lat="44.2467404" lon="9.6271423"><ele>434.75</ele><time>2026-04-29T15:01:20.781Z</time></trkpt><trkpt lat="44.2467393" lon="9.627298"><ele>445.0</ele><time>2026-04-29T15:01:21.783Z</time></trkpt><trkpt lat="44.246713" lon="9.6274859"><ele>445.0</ele><time>2026-04-29T15:01:22.782Z</time></trkpt><trkpt lat="44.2466829" lon="9.6276747"><ele>445.0</ele><time>2026-04-29T15:01:23.783Z</time></trkpt><trkpt lat="44.2466787" lon="9.6278518"><ele>445.0</ele><time>2026-04-29T15:01:24.784Z</time></trkpt><trkpt lat="44.2467138" lon="9.6280241"><ele>445.0</ele><time>2026-04-29T15:01:25.784Z</time></trkpt><trkpt lat="44.246759" lon="9.6281776"><ele>444.75</ele><time>2026-04-29T15:01:26.782Z</time></trkpt><trkpt lat="44.2467816" lon="9.6283331"><ele>444.5</ele><time>2026-04-29T15:01:27.783Z</time></trkpt><trkpt lat="44.246766" lon="9.6285155"><ele>444.25</ele><time>2026-04-29T15:01:28.783Z</time></trkpt><trkpt lat="44.2467199" lon="9.6287083"><ele>444.0</ele><time>2026-04-29T15:01:29.785Z</time></trkpt><trkpt lat="44.246653" lon="9.6289287"><ele>444.0</ele><time>2026-04-29T15:01:30.784Z</time></trkpt><trkpt lat="44.24659" lon="9.6291341"><ele>444.0</ele><time>2026-04-29T15:01:31.784Z</time></trkpt><trkpt lat="44.246527" lon="9.629303"><ele>444.0</ele><time>2026-04-29T15:01:32.782Z</time></trkpt><trkpt lat="44.2464448" lon="9.6294281"><ele>444.0</ele><time>2026-04-29T15:01:33.783Z</time></trkpt><trkpt lat="44.2463408" lon="9.6295095"><ele>436.25</ele><time>2026-04-29T15:01:34.781Z</time></trkpt><trkpt lat="44.2462287" lon="9.6295606"><ele>428.5</ele><time>2026-04-29T15:01:35.784Z</time></trkpt><trkpt lat="44.2461409" lon="9.6296448"><ele>420.75</ele><time>2026-04-29T15:01:36.785Z</time></trkpt><trkpt lat="44.246084" lon="9.6297751"><ele>413.0</ele><time>2026-04-29T15:01:37.783Z</time></trkpt><trkpt lat="44.24606" lon="9.6299413"><ele>413.0</ele><time>2026-04-29T15:01:38.782Z</time></trkpt><trkpt lat="44.2460499" lon="9.630122"><ele>413.0</ele><time>2026-04-29T15:01:39.783Z</time></trkpt><trkpt lat="44.2460385" lon="9.6302849"><ele>413.0</ele><time>2026-04-29T15:01:40.783Z</time></trkpt><trkpt lat="44.2460198" lon="9.6304355"><ele>413.0</ele><time>2026-04-29T15:01:41.782Z</time></trkpt><trkpt lat="44.2459806" lon="9.6305727"><ele>415.4</ele><time>2026-04-29T15:01:42.783Z</time></trkpt><trkpt lat="44.245909" lon="9.6306795"><ele>417.79999999999995</ele><time>2026-04-29T15:01:43.784Z</time></trkpt><trkpt lat="44.2458198" lon="9.6307547"><ele>420.2</ele><time>2026-04-29T15:01:44.783Z</time></trkpt><trkpt lat="44.2457282" lon="9.6307914"><ele>422.6</ele><time>2026-04-29T15:01:45.783Z</time></trkpt><trkpt lat="44.2456318" lon="9.6307948"><ele>425.0</ele><time>2026-04-29T15:01:46.784Z</time></trkpt><trkpt lat="44.2455379" lon="9.6307639"><ele>420.0</ele><time>2026-04-29T15:01:47.783Z</time></trkpt><trkpt lat="44.2454523" lon="9.6307198"><ele>415.0</ele><time>2026-04-29T15:01:48.783Z</time></trkpt><trkpt lat="44.2453678" lon="9.630711"><ele>410.0</ele><time>2026-04-29T15:01:49.785Z</time></trkpt><trkpt lat="44.2452883" lon="9.6307591"><ele>405.0</ele><time>2026-04-29T15:01:50.784Z</time></trkpt><trkpt lat="44.2452222" lon="9.6308525"><ele>400.0</ele><time>2026-04-29T15:01:51.785Z</time></trkpt><trkpt lat="44.2451862" lon="9.6309761"><ele>400.0</ele><time>2026-04-29T15:01:52.784Z</time></trkpt><trkpt lat="44.2451828" lon="9.6311055"><ele>400.0</ele><time>2026-04-29T15:01:53.782Z</time></trkpt><trkpt lat="44.2451739" lon="9.6312421"><ele>400.0</ele><time>2026-04-29T15:01:54.782Z</time></trkpt><trkpt lat="44.2451483" lon="9.6313886"><ele>400.0</ele><time>2026-04-29T15:01:55.782Z</time></trkpt><trkpt lat="44.2450976" lon="9.6315298"><ele>400.0</ele><time>2026-04-29T15:01:56.786Z</time></trkpt><trkpt lat="44.2450231" lon="9.631652"><ele>399.25</ele><time>2026-04-29T15:01:57.783Z</time></trkpt><trkpt lat="44.2449277" lon="9.6317395"><ele>398.5</ele><time>2026-04-29T15:01:58.783Z</time></trkpt><trkpt lat="44.244813" lon="9.6317893"><ele>397.75</ele><time>2026-04-29T15:01:59.782Z</time></trkpt><trkpt lat="44.2446747" lon="9.631814"><ele>397.0</ele><time>2026-04-29T15:02:00.783Z</time></trkpt><trkpt lat="44.2445475" lon="9.6318381"><ele>397.0</ele><time>2026-04-29T15:02:01.782Z</time></trkpt><trkpt lat="44.2444369" lon="9.631867"><ele>397.0</ele><time>2026-04-29T15:02:02.785Z</time></trkpt><trkpt lat="44.2443458" lon="9.6319117"><ele>397.0</ele><time>2026-04-29T15:02:03.785Z</time></trkpt><trkpt lat="44.2442757" lon="9.6319753"><ele>397.0</ele><time>2026-04-29T15:02:04.783Z</time></trkpt><trkpt lat="44.2442436" lon="9.6320745"><ele>397.0</ele><time>2026-04-29T15:02:05.783Z</time></trkpt><trkpt lat="44.244257" lon="9.6321921"><ele>396.75</ele><time>2026-04-29T15:02:06.783Z</time></trkpt><trkpt lat="44.2443008" lon="9.6323474"><ele>396.5</ele><time>2026-04-29T15:02:07.782Z</time></trkpt><trkpt lat="44.2443604" lon="9.6325156"><ele>396.25</ele><time>2026-04-29T15:02:08.782Z</time></trkpt><trkpt lat="44.244445" lon="9.6326451"><ele>396.0</ele><time>2026-04-29T15:02:09.782Z</time></trkpt><trkpt lat="44.2445676" lon="9.6327844"><ele>395.5</ele><time>2026-04-29T15:02:10.784Z</time></trkpt><trkpt lat="44.244685" lon="9.6328958"><ele>395.0</ele><time>2026-04-29T15:02:11.783Z</time></trkpt><trkpt lat="44.2448218" lon="9.6329521"><ele>394.5</ele><time>2026-04-29T15:02:12.781Z</time></trkpt><trkpt lat="44.2449773" lon="9.6329657"><ele>394.0</ele><time>2026-04-29T15:02:13.783Z</time></trkpt><trkpt lat="44.2451411" lon="9.6329976"><ele>394.0</ele><time>2026-04-29T15:02:14.783Z</time></trkpt><trkpt lat="44.2452855" lon="9.6330676"><ele>394.0</ele><time>2026-04-29T15:02:15.784Z</time></trkpt><trkpt lat="44.245395" lon="9.633143"><ele>394.0</ele><time>2026-04-29T15:02:16.782Z</time></trkpt><trkpt lat="44.245469" lon="9.6332317"><ele>394.0</ele><time>2026-04-29T15:02:17.784Z</time></trkpt><trkpt lat="44.2455142" lon="9.6333464"><ele>394.0</ele><time>2026-04-29T15:02:18.783Z</time></trkpt><trkpt lat="44.245508" lon="9.633463"><ele>394.0</ele><time>2026-04-29T15:02:19.785Z</time></trkpt><trkpt lat="44.2454661" lon="9.6336036"><ele>394.0</ele><time>2026-04-29T15:02:20.783Z</time></trkpt><trkpt lat="44.2453917" lon="9.6337843"><ele>394.0</ele><time>2026-04-29T15:02:21.781Z</time></trkpt><trkpt lat="44.2453112" lon="9.6339726"><ele>392.5</ele><time>2026-04-29T15:02:22.783Z</time></trkpt><trkpt lat="44.245248" lon="9.634156"><ele>391.0</ele><time>2026-04-29T15:02:23.782Z</time></trkpt><trkpt lat="44.2452213" lon="9.6343628"><ele>389.5</ele><time>2026-04-29T15:02:24.784Z</time></trkpt><trkpt lat="44.2452011" lon="9.6345647"><ele>388.0</ele><time>2026-04-29T15:02:25.783Z</time></trkpt><trkpt lat="44.2451469" lon="9.6347627"><ele>388.0</ele><time>2026-04-29T15:02:26.782Z</time></trkpt><trkpt lat="44.2450634" lon="9.6349621"><ele>388.0</ele><time>2026-04-29T15:02:27.784Z</time></trkpt><trkpt lat="44.244994" lon="9.6351515"><ele>388.0</ele><time>2026-04-29T15:02:28.782Z</time></trkpt><trkpt lat="44.2449472" lon="9.6353104"><ele>388.0</ele><time>2026-04-29T15:02:29.785Z</time></trkpt><trkpt lat="44.2449222" lon="9.6354593"><ele>386.0</ele><time>2026-04-29T15:02:30.783Z</time></trkpt><trkpt lat="44.2449499" lon="9.6355968"><ele>384.0</ele><time>2026-04-29T15:02:31.783Z</time></trkpt><trkpt lat="44.2450265" lon="9.6357008"><ele>382.0</ele><time>2026-04-29T15:02:32.783Z</time></trkpt><trkpt lat="44.2451369" lon="9.6357593"><ele>380.0</ele><time>2026-04-29T15:02:33.783Z</time></trkpt><trkpt lat="44.2452875" lon="9.635788"><ele>380.0</ele><time>2026-04-29T15:02:34.784Z</time></trkpt><trkpt lat="44.2454348" lon="9.6358119"><ele>380.0</ele><time>2026-04-29T15:02:35.782Z</time></trkpt><trkpt lat="44.2455549" lon="9.6358309"><ele>380.0</ele><time>2026-04-29T15:02:36.783Z</time></trkpt><trkpt lat="44.2456556" lon="9.6358765"><ele>380.0</ele><time>2026-04-29T15:02:37.783Z</time></trkpt><trkpt lat="44.245733" lon="9.6359683"><ele>381.0</ele><time>2026-04-29T15:02:38.782Z</time></trkpt><trkpt lat="44.2457716" lon="9.6360949"><ele>382.0</ele><time>2026-04-29T15:02:39.782Z</time></trkpt><trkpt lat="44.2457813" lon="9.6362531"><ele>383.0</ele><time>2026-04-29T15:02:40.782Z</time></trkpt><trkpt lat="44.2457583" lon="9.6364053"><ele>384.0</ele><time>2026-04-29T15:02:41.784Z</time></trkpt><trkpt lat="44.2456996" lon="9.6365445"><ele>385.0</ele><time>2026-04-29T15:02:42.783Z</time></trkpt><trkpt lat="44.2456215" lon="9.6366867"><ele>376.6666666666667</ele><time>2026-04-29T15:02:43.782Z</time></trkpt><trkpt lat="44.2455564" lon="9.6368483"><ele>368.33333333333337</ele><time>2026-04-29T15:02:44.782Z</time></trkpt><trkpt lat="44.2455192" lon="9.6370506"><ele>360.0</ele><time>2026-04-29T15:02:45.783Z</time></trkpt><trkpt lat="44.2454946" lon="9.6372904"><ele>357.3333333333333</ele><time>2026-04-29T15:02:46.782Z</time></trkpt><trkpt lat="44.2454695" lon="9.6375248"><ele>354.66666666666663</ele><time>2026-04-29T15:02:47.784Z</time></trkpt><trkpt lat="44.2454661" lon="9.6377645"><ele>352.0</ele><time>2026-04-29T15:02:48.784Z</time></trkpt><trkpt lat="44.2454902" lon="9.6380198"><ele>350.3333333333333</ele><time>2026-04-29T15:02:49.783Z</time></trkpt><trkpt lat="44.245527" lon="9.6382881"><ele>348.6666666666667</ele><time>2026-04-29T15:02:50.783Z</time></trkpt><trkpt lat="44.2455609" lon="9.6385368"><ele>347.0</ele><time>2026-04-29T15:02:51.781Z</time></trkpt><trkpt lat="44.2455929" lon="9.6387669"><ele>347.0</ele><time>2026-04-29T15:02:52.785Z</time></trkpt><trkpt lat="44.2456195" lon="9.6389653"><ele>347.0</ele><time>2026-04-29T15:02:53.783Z</time></trkpt><trkpt lat="44.24563" lon="9.6391364"><ele>347.0</ele><time>2026-04-29T15:02:54.784Z</time></trkpt><trkpt lat="44.2455989" lon="9.639285"><ele>347.0</ele><time>2026-04-29T15:02:55.783Z</time></trkpt><trkpt lat="44.2455251" lon="9.6394215"><ele>346.5</ele><time>2026-04-29T15:02:56.782Z</time></trkpt><trkpt lat="44.2454262" lon="9.6395562"><ele>346.0</ele><time>2026-04-29T15:02:57.782Z</time></trkpt><trkpt lat="44.2453426" lon="9.639691"><ele>345.5</ele><time>2026-04-29T15:02:58.783Z</time></trkpt><trkpt lat="44.2452896" lon="9.6398477"><ele>345.0</ele><time>2026-04-29T15:02:59.783Z</time></trkpt><trkpt lat="44.2452758" lon="9.6400119"><ele>345.0</ele><time>2026-04-29T15:03:00.786Z</time></trkpt><trkpt lat="44.2452981" lon="9.6401794"><ele>345.0</ele><time>2026-04-29T15:03:01.782Z</time></trkpt><trkpt lat="44.2453603" lon="9.6403353"><ele>345.0</ele><time>2026-04-29T15:03:02.784Z</time></trkpt><trkpt lat="44.2454622" lon="9.6404981"><ele>345.0</ele><time>2026-04-29T15:03:03.782Z</time></trkpt><trkpt lat="44.2455917" lon="9.6406906"><ele>344.0</ele><time>2026-04-29T15:03:04.783Z</time></trkpt><trkpt lat="44.2457303" lon="9.6408868"><ele>343.0</ele><time>2026-04-29T15:03:05.782Z</time></trkpt><trkpt lat="44.2458614" lon="9.6410735"><ele>342.0</ele><time>2026-04-29T15:03:06.783Z</time></trkpt><trkpt lat="44.2459897" lon="9.6412524"><ele>342.0</ele><time>2026-04-29T15:03:07.784Z</time></trkpt><trkpt lat="44.2460997" lon="9.641423"><ele>342.0</ele><time>2026-04-29T15:03:08.792Z</time></trkpt><trkpt lat="44.2461844" lon="9.6416084"><ele>342.0</ele><time>2026-04-29T15:03:09.782Z</time></trkpt><trkpt lat="44.2462392" lon="9.6418111"><ele>339.3333333333333</ele><time>2026-04-29T15:03:10.783Z</time></trkpt><trkpt lat="44.2462748" lon="9.6420227"><ele>336.66666666666663</ele><time>2026-04-29T15:03:11.782Z</time></trkpt><trkpt lat="44.2463217" lon="9.6422203"><ele>334.0</ele><time>2026-04-29T15:03:12.784Z</time></trkpt><trkpt lat="44.2464074" lon="9.6424029"><ele>330.66666666666663</ele><time>2026-04-29T15:03:13.784Z</time></trkpt><trkpt lat="44.2465211" lon="9.6425646"><ele>327.3333333333333</ele><time>2026-04-29T15:03:14.785Z</time></trkpt><trkpt lat="44.2466376" lon="9.6427019"><ele>324.0</ele><time>2026-04-29T15:03:15.784Z</time></trkpt><trkpt lat="44.2467548" lon="9.6428216"><ele>324.0</ele><time>2026-04-29T15:03:16.79Z</time></trkpt><trkpt lat="44.2468855" lon="9.6428873"><ele>324.0</ele><time>2026-04-29T15:03:17.782Z</time></trkpt><trkpt lat="44.2470148" lon="9.6429065"><ele>324.0</ele><time>2026-04-29T15:03:18.783Z</time></trkpt><trkpt lat="44.2471434" lon="9.6429022"><ele>324.0</ele><time>2026-04-29T15:03:19.783Z</time></trkpt><trkpt lat="44.2472701" lon="9.6428491"><ele>329.0</ele><time>2026-04-29T15:03:20.782Z</time></trkpt><trkpt lat="44.2473731" lon="9.6427618"><ele>334.0</ele><time>2026-04-29T15:03:21.781Z</time></trkpt><trkpt lat="44.2474565" lon="9.6426623"><ele>339.0</ele><time>2026-04-29T15:03:22.783Z</time></trkpt><trkpt lat="44.2475449" lon="9.6425922"><ele>344.0</ele><time>2026-04-29T15:03:23.782Z</time></trkpt><trkpt lat="44.247646" lon="9.6425786"><ele>349.0</ele><time>2026-04-29T15:03:24.789Z</time></trkpt><trkpt lat="44.2477348" lon="9.6426276"><ele>349.0</ele><time>2026-04-29T15:03:25.782Z</time></trkpt><trkpt lat="44.2478078" lon="9.6427287"><ele>349.0</ele><time>2026-04-29T15:03:26.784Z</time></trkpt><trkpt lat="44.247875" lon="9.6428759"><ele>349.0</ele><time>2026-04-29T15:03:27.784Z</time></trkpt><trkpt lat="44.2479501" lon="9.6430566"><ele>349.0</ele><time>2026-04-29T15:03:28.782Z</time></trkpt><trkpt lat="44.2480301" lon="9.6432656"><ele>346.0</ele><time>2026-04-29T15:03:29.782Z</time></trkpt><trkpt lat="44.2480934" lon="9.6434885"><ele>343.0</ele><time>2026-04-29T15:03:30.781Z</time></trkpt><trkpt lat="44.2481414" lon="9.643732"><ele>340.0</ele><time>2026-04-29T15:03:31.784Z</time></trkpt><trkpt lat="44.2481691" lon="9.6439515"><ele>340.0</ele><time>2026-04-29T15:03:32.784Z</time></trkpt><trkpt lat="44.2481721" lon="9.6441594"><ele>340.0</ele><time>2026-04-29T15:03:33.784Z</time></trkpt><trkpt lat="44.2481366" lon="9.6443718"><ele>340.0</ele><time>2026-04-29T15:03:34.782Z</time></trkpt><trkpt lat="44.2480678" lon="9.6445928"><ele>332.0</ele><time>2026-04-29T15:03:35.782Z</time></trkpt><trkpt lat="44.247966" lon="9.6448016"><ele>324.0</ele><time>2026-04-29T15:03:36.784Z</time></trkpt><trkpt lat="44.2478462" lon="9.6450174"><ele>316.0</ele><time>2026-04-29T15:03:37.785Z</time></trkpt><trkpt lat="44.2477185" lon="9.6452225"><ele>313.0</ele><time>2026-04-29T15:03:38.783Z</time></trkpt><trkpt lat="44.2475847" lon="9.6454213"><ele>310.0</ele><time>2026-04-29T15:03:39.785Z</time></trkpt><trkpt lat="44.2474398" lon="9.6455885"><ele>307.0</ele><time>2026-04-29T15:03:40.782Z</time></trkpt><trkpt lat="44.2472814" lon="9.6457386"><ele>307.0</ele><time>2026-04-29T15:03:41.784Z</time></trkpt><trkpt lat="44.2471396" lon="9.6458717"><ele>307.0</ele><time>2026-04-29T15:03:42.784Z</time></trkpt><trkpt lat="44.2470099" lon="9.6460162"><ele>307.0</ele><time>2026-04-29T15:03:43.783Z</time></trkpt><trkpt lat="44.2468995" lon="9.6461799"><ele>309.3333333333333</ele><time>2026-04-29T15:03:44.783Z</time></trkpt><trkpt lat="44.2468047" lon="9.6463665"><ele>311.6666666666667</ele><time>2026-04-29T15:03:45.783Z</time></trkpt><trkpt lat="44.2467221" lon="9.6465811"><ele>314.0</ele><time>2026-04-29T15:03:46.784Z</time></trkpt><trkpt lat="44.2466539" lon="9.6467959"><ele>313.25</ele><time>2026-04-29T15:03:47.783Z</time></trkpt><trkpt lat="44.2465903" lon="9.6469908"><ele>312.5</ele><time>2026-04-29T15:03:48.783Z</time></trkpt><trkpt lat="44.2465398" lon="9.6471584"><ele>311.75</ele><time>2026-04-29T15:03:49.786Z</time></trkpt><trkpt lat="44.2465185" lon="9.6473232"><ele>311.0</ele><time>2026-04-29T15:03:50.781Z</time></trkpt><trkpt lat="44.2465351" lon="9.6474821"><ele>311.0</ele><time>2026-04-29T15:03:51.783Z</time></trkpt><trkpt lat="44.2465985" lon="9.6476406"><ele>311.0</ele><time>2026-04-29T15:03:52.783Z</time></trkpt><trkpt lat="44.2466753" lon="9.6478005"><ele>311.0</ele><time>2026-04-29T15:03:53.785Z</time></trkpt><trkpt lat="44.2467437" lon="9.6479591"><ele>311.0</ele><time>2026-04-29T15:03:54.782Z</time></trkpt><trkpt lat="44.2467783" lon="9.6481299"><ele>309.25</ele><time>2026-04-29T15:03:55.783Z</time></trkpt><trkpt lat="44.2467899" lon="9.6483085"><ele>307.5</ele><time>2026-04-29T15:03:56.783Z</time></trkpt><trkpt lat="44.2467808" lon="9.6485189"><ele>305.75</ele><time>2026-04-29T15:03:57.783Z</time></trkpt><trkpt lat="44.2467607" lon="9.6487273"><ele>304.0</ele><time>2026-04-29T15:03:58.782Z</time></trkpt><trkpt lat="44.2467064" lon="9.6489482"><ele>303.66666666666663</ele><time>2026-04-29T15:03:59.784Z</time></trkpt><trkpt lat="44.2466231" lon="9.6491962"><ele>303.3333333333333</ele><time>2026-04-29T15:04:00.782Z</time></trkpt><trkpt lat="44.2465317" lon="9.6494535"><ele>303.0</ele><time>2026-04-29T15:04:01.782Z</time></trkpt><trkpt lat="44.2464518" lon="9.6496777"><ele>298.75</ele><time>2026-04-29T15:04:02.782Z</time></trkpt><trkpt lat="44.2463757" lon="9.6498678"><ele>294.5</ele><time>2026-04-29T15:04:03.783Z</time></trkpt><trkpt lat="44.2462912" lon="9.6500222"><ele>290.25</ele><time>2026-04-29T15:04:04.784Z</time></trkpt><trkpt lat="44.246184" lon="9.650138"><ele>286.0</ele><time>2026-04-29T15:04:05.784Z</time></trkpt><trkpt lat="44.2460521" lon="9.6502088"><ele>286.0</ele><time>2026-04-29T15:04:06.784Z</time></trkpt><trkpt lat="44.2458983" lon="9.6502487"><ele>286.0</ele><time>2026-04-29T15:04:07.787Z</time></trkpt><trkpt lat="44.2457501" lon="9.6502864"><ele>286.0</ele><time>2026-04-29T15:04:08.783Z</time></trkpt><trkpt lat="44.2456129" lon="9.6503482"><ele>282.75</ele><time>2026-04-29T15:04:09.783Z</time></trkpt><trkpt lat="44.245477" lon="9.6504624"><ele>279.5</ele><time>2026-04-29T15:04:10.784Z</time></trkpt><trkpt lat="44.2453578" lon="9.6506011"><ele>276.25</ele><time>2026-04-29T15:04:11.782Z</time></trkpt><trkpt lat="44.2452574" lon="9.6507154"><ele>273.0</ele><time>2026-04-29T15:04:12.784Z</time></trkpt><trkpt lat="44.2451734" lon="9.6508413"><ele>273.0</ele><time>2026-04-29T15:04:13.783Z</time></trkpt><trkpt lat="44.245155" lon="9.6510231"><ele>273.0</ele><time>2026-04-29T15:04:14.782Z</time></trkpt><trkpt lat="44.2451581" lon="9.6512175"><ele>273.0</ele><time>2026-04-29T15:04:15.783Z</time></trkpt><trkpt lat="44.245167" lon="9.651453"><ele>273.0</ele><time>2026-04-29T15:04:16.783Z</time></trkpt><trkpt lat="44.2451798" lon="9.6517306"><ele>273.3333333333333</ele><time>2026-04-29T15:04:17.785Z</time></trkpt><trkpt lat="44.245192" lon="9.6519608"><ele>273.66666666666663</ele><time>2026-04-29T15:04:18.784Z</time></trkpt><trkpt lat="44.2452026" lon="9.6521674"><ele>274.0</ele><time>2026-04-29T15:04:19.782Z</time></trkpt><trkpt lat="44.2451995" lon="9.6523571"><ele>274.0</ele><time>2026-04-29T15:04:20.783Z</time></trkpt><trkpt lat="44.2451619" lon="9.6525177"><ele>274.0</ele><time>2026-04-29T15:04:21.783Z</time></trkpt><trkpt lat="44.2450962" lon="9.6526393"><ele>274.0</ele><time>2026-04-29T15:04:22.783Z</time></trkpt><trkpt lat="44.2449833" lon="9.6527221"><ele>274.0</ele><time>2026-04-29T15:04:23.782Z</time></trkpt><trkpt lat="44.244839" lon="9.6527965"><ele>272.0</ele><time>2026-04-29T15:04:24.784Z</time></trkpt><trkpt lat="44.244648" lon="9.652888"><ele>270.0</ele><time>2026-04-29T15:04:25.783Z</time></trkpt><trkpt lat="44.2444726" lon="9.6529794"><ele>268.0</ele><time>2026-04-29T15:04:26.783Z</time></trkpt><trkpt lat="44.2443123" lon="9.6530569"><ele>268.0</ele><time>2026-04-29T15:04:27.784Z</time></trkpt><trkpt lat="44.2441787" lon="9.6531307"><ele>268.0</ele><time>2026-04-29T15:04:28.783Z</time></trkpt><trkpt lat="44.2440699" lon="9.6532156"><ele>268.0</ele><time>2026-04-29T15:04:29.781Z</time></trkpt><trkpt lat="44.2439947" lon="9.6533423"><ele>268.0</ele><time>2026-04-29T15:04:30.785Z</time></trkpt><trkpt lat="44.2439573" lon="9.6535036"><ele>268.0</ele><time>2026-04-29T15:04:31.785Z</time></trkpt><trkpt lat="44.2439613" lon="9.6536911"><ele>268.0</ele><time>2026-04-29T15:04:32.783Z</time></trkpt><trkpt lat="44.2439914" lon="9.6539017"><ele>268.0</ele><time>2026-04-29T15:04:33.783Z</time></trkpt><trkpt lat="44.2440236" lon="9.6541287"><ele>268.0</ele><time>2026-04-29T15:04:34.782Z</time></trkpt><trkpt lat="44.2440559" lon="9.6543434"><ele>268.0</ele><time>2026-04-29T15:04:35.781Z</time></trkpt><trkpt lat="44.2440788" lon="9.6545427"><ele>268.0</ele><time>2026-04-29T15:04:36.784Z</time></trkpt><trkpt lat="44.2440683" lon="9.6547152"><ele>268.0</ele><time>2026-04-29T15:04:37.782Z</time></trkpt><trkpt lat="44.2440236" lon="9.6548605"><ele>262.25</ele><time>2026-04-29T15:04:38.783Z</time></trkpt><trkpt lat="44.243938" lon="9.6549897"><ele>256.5</ele><time>2026-04-29T15:04:39.782Z</time></trkpt><trkpt lat="44.2438136" lon="9.6550933"><ele>250.75</ele><time>2026-04-29T15:04:40.783Z</time></trkpt><trkpt lat="44.2436631" lon="9.6552025"><ele>245.0</ele><time>2026-04-29T15:04:41.783Z</time></trkpt><trkpt lat="44.2435236" lon="9.6553036"><ele>245.0</ele><time>2026-04-29T15:04:42.785Z</time></trkpt><trkpt lat="44.2434021" lon="9.6554078"><ele>245.0</ele><time>2026-04-29T15:04:43.782Z</time></trkpt><trkpt lat="44.2432977" lon="9.6555451"><ele>245.0</ele><time>2026-04-29T15:04:44.784Z</time></trkpt><trkpt lat="44.2432201" lon="9.6557341"><ele>245.0</ele><time>2026-04-29T15:04:45.782Z</time></trkpt><trkpt lat="44.2431666" lon="9.6559321"><ele>245.0</ele><time>2026-04-29T15:04:46.782Z</time></trkpt><trkpt lat="44.2431562" lon="9.6561166"><ele>245.0</ele><time>2026-04-29T15:04:47.783Z</time></trkpt><trkpt lat="44.2431922" lon="9.656304"><ele>245.0</ele><time>2026-04-29T15:04:48.784Z</time></trkpt><trkpt lat="44.2432472" lon="9.656488"><ele>245.0</ele><time>2026-04-29T15:04:49.784Z</time></trkpt><trkpt lat="44.2433056" lon="9.6566558"><ele>243.75</ele><time>2026-04-29T15:04:50.783Z</time></trkpt><trkpt lat="44.2433608" lon="9.6568152"><ele>242.5</ele><time>2026-04-29T15:04:51.783Z</time></trkpt><trkpt lat="44.243397" lon="9.6569628"><ele>241.25</ele><time>2026-04-29T15:04:52.781Z</time></trkpt><trkpt lat="44.2433799" lon="9.6571095"><ele>240.0</ele><time>2026-04-29T15:04:53.782Z</time></trkpt><trkpt lat="44.2433229" lon="9.6572353"><ele>240.0</ele><time>2026-04-29T15:04:54.787Z</time></trkpt><trkpt lat="44.243229" lon="9.657332"><ele>240.0</ele><time>2026-04-29T15:04:55.786Z</time></trkpt><trkpt lat="44.2431437" lon="9.6574228"><ele>240.0</ele><time>2026-04-29T15:04:56.785Z</time></trkpt><trkpt lat="44.2430783" lon="9.657555"><ele>240.0</ele><time>2026-04-29T15:04:57.783Z</time></trkpt><trkpt lat="44.2430412" lon="9.6577336"><ele>229.33333333333331</ele><time>2026-04-29T15:04:58.782Z</time></trkpt><trkpt lat="44.2430221" lon="9.6579455"><ele>218.66666666666666</ele><time>2026-04-29T15:04:59.783Z</time></trkpt><trkpt lat="44.2430004" lon="9.6582099"><ele>208.0</ele><time>2026-04-29T15:05:00.783Z</time></trkpt><trkpt lat="44.2429777" lon="9.6584847"><ele>208.66666666666666</ele><time>2026-04-29T15:05:01.782Z</time></trkpt><trkpt lat="44.2429584" lon="9.6587263"><ele>209.33333333333331</ele><time>2026-04-29T15:05:02.785Z</time></trkpt><trkpt lat="44.2429442" lon="9.6589362"><ele>210.0</ele><time>2026-04-29T15:05:03.785Z</time></trkpt><trkpt lat="44.2429325" lon="9.6591136"><ele>210.0</ele><time>2026-04-29T15:05:04.782Z</time></trkpt><trkpt lat="44.2429044" lon="9.6592642"><ele>210.0</ele><time>2026-04-29T15:05:05.783Z</time></trkpt><trkpt lat="44.2428394" lon="9.6593721"><ele>210.0</ele><time>2026-04-29T15:05:06.782Z</time></trkpt><trkpt lat="44.2427503" lon="9.6594406"><ele>210.0</ele><time>2026-04-29T15:05:07.781Z</time></trkpt><trkpt lat="44.2426195" lon="9.6594808"><ele>210.0</ele><time>2026-04-29T15:05:08.784Z</time></trkpt><trkpt lat="44.2424888" lon="9.6595676"><ele>215.66666666666669</ele><time>2026-04-29T15:05:09.785Z</time></trkpt><trkpt lat="44.2423583" lon="9.6597179"><ele>221.33333333333334</ele><time>2026-04-29T15:05:10.783Z</time></trkpt><trkpt lat="44.2422374" lon="9.6598564"><ele>227.0</ele><time>2026-04-29T15:05:11.782Z</time></trkpt><trkpt lat="44.2421253" lon="9.6599817"><ele>220.6</ele><time>2026-04-29T15:05:12.782Z</time></trkpt><trkpt lat="44.2420274" lon="9.6601008"><ele>214.2</ele><time>2026-04-29T15:05:13.782Z</time></trkpt><trkpt lat="44.2419514" lon="9.6602235"><ele>207.8</ele><time>2026-04-29T15:05:14.781Z</time></trkpt><trkpt lat="44.2418964" lon="9.6603487"><ele>201.4</ele><time>2026-04-29T15:05:15.783Z</time></trkpt><trkpt lat="44.2418638" lon="9.6604652"><ele>195.0</ele><time>2026-04-29T15:05:16.784Z</time></trkpt><trkpt lat="44.2418436" lon="9.6605553"><ele>195.0</ele><time>2026-04-29T15:05:17.784Z</time></trkpt><trkpt lat="44.2418224" lon="9.6606761"><ele>195.0</ele><time>2026-04-29T15:05:19.781Z</time></trkpt><trkpt lat="44.2417928" lon="9.6607951"><ele>195.0</ele><time>2026-04-29T15:05:21.783Z</time></trkpt><trkpt lat="44.2417066" lon="9.6608718"><ele>195.0</ele><time>2026-04-29T15:05:23.782Z</time></trkpt><trkpt lat="44.2416123" lon="9.6608049"><ele>195.0</ele><time>2026-04-29T15:05:25.782Z</time></trkpt><trkpt lat="44.2415924" lon="9.6607199"><ele>195.0</ele><time>2026-04-29T15:05:26.783Z</time></trkpt><trkpt lat="44.2415952" lon="9.6606149"><ele>195.0</ele><time>2026-04-29T15:05:27.786Z</time></trkpt><trkpt lat="44.2416355" lon="9.6604871"><ele>195.0</ele><time>2026-04-29T15:05:28.783Z</time></trkpt><trkpt lat="44.241677" lon="9.6603622"><ele>195.0</ele><time>2026-04-29T15:05:29.784Z</time></trkpt><trkpt lat="44.2417224" lon="9.6602442"><ele>195.0</ele><time>2026-04-29T15:05:30.791Z</time></trkpt><trkpt lat="44.2417701" lon="9.6601313"><ele>194.0</ele><time>2026-04-29T15:05:31.784Z</time></trkpt><trkpt lat="44.2418222" lon="9.6600262"><ele>193.0</ele><time>2026-04-29T15:05:32.783Z</time></trkpt><trkpt lat="44.2418731" lon="9.6599258"><ele>192.0</ele><time>2026-04-29T15:05:33.783Z</time></trkpt><trkpt lat="44.2419245" lon="9.6598307"><ele>191.0</ele><time>2026-04-29T15:05:34.784Z</time></trkpt><trkpt lat="44.2419703" lon="9.6597414"><ele>190.0</ele><time>2026-04-29T15:05:35.783Z</time></trkpt><trkpt lat="44.2420178" lon="9.6596497"><ele>189.0</ele><time>2026-04-29T15:05:36.783Z</time></trkpt><trkpt lat="44.2420618" lon="9.659564"><ele>189.0</ele><time>2026-04-29T15:05:37.783Z</time></trkpt><trkpt lat="44.2421" lon="9.659476"><ele>189.0</ele><time>2026-04-29T15:05:38.782Z</time></trkpt><trkpt lat="44.2421245" lon="9.6593824"><ele>189.0</ele><time>2026-04-29T15:05:39.783Z</time></trkpt><trkpt lat="44.2421163" lon="9.6592834"><ele>189.0</ele><time>2026-04-29T15:05:40.785Z</time></trkpt><trkpt lat="44.2420861" lon="9.6591975"><ele>189.0</ele><time>2026-04-29T15:05:41.787Z</time></trkpt><trkpt lat="44.2420373" lon="9.6591206"><ele>189.0</ele><time>2026-04-29T15:05:42.785Z</time></trkpt><trkpt lat="44.2419756" lon="9.6590436"><ele>189.0</ele><time>2026-04-29T15:05:43.783Z</time></trkpt><trkpt lat="44.2419069" lon="9.6589641"><ele>187.79999999999998</ele><time>2026-04-29T15:05:44.782Z</time></trkpt><trkpt lat="44.2418383" lon="9.6588789"><ele>186.6</ele><time>2026-04-29T15:05:45.782Z</time></trkpt><trkpt lat="44.2417759" lon="9.6587838"><ele>185.4</ele><time>2026-04-29T15:05:46.781Z</time></trkpt><trkpt lat="44.2417229" lon="9.6586763"><ele>184.2</ele><time>2026-04-29T15:05:47.785Z</time></trkpt><trkpt lat="44.2416815" lon="9.6585628"><ele>183.0</ele><time>2026-04-29T15:05:48.785Z</time></trkpt><trkpt lat="44.2416622" lon="9.658444"><ele>183.0</ele><time>2026-04-29T15:05:49.783Z</time></trkpt><trkpt lat="44.2416576" lon="9.6583208"><ele>183.0</ele><time>2026-04-29T15:05:50.783Z</time></trkpt><trkpt lat="44.2416696" lon="9.6582019"><ele>183.0</ele><time>2026-04-29T15:05:51.783Z</time></trkpt><trkpt lat="44.2416894" lon="9.658098"><ele>183.0</ele><time>2026-04-29T15:05:52.782Z</time></trkpt><trkpt lat="44.2417002" lon="9.6580081"><ele>183.0</ele><time>2026-04-29T15:05:53.782Z</time></trkpt><trkpt lat="44.2416752" lon="9.6578432"><ele>183.0</ele><time>2026-04-29T15:05:55.783Z</time></trkpt><trkpt lat="44.24158" lon="9.6577464"><ele>183.5</ele><time>2026-04-29T15:05:57.783Z</time></trkpt><trkpt lat="44.2415089" lon="9.6577358"><ele>184.0</ele><time>2026-04-29T15:05:58.783Z</time></trkpt><trkpt lat="44.2414285" lon="9.6577535"><ele>184.5</ele><time>2026-04-29T15:05:59.781Z</time></trkpt><trkpt lat="44.2413525" lon="9.6577936"><ele>185.0</ele><time>2026-04-29T15:06:00.784Z</time></trkpt><trkpt lat="44.2412747" lon="9.6578355"><ele>185.5</ele><time>2026-04-29T15:06:01.785Z</time></trkpt><trkpt lat="44.2411963" lon="9.6578759"><ele>186.0</ele><time>2026-04-29T15:06:02.784Z</time></trkpt><trkpt lat="44.2411221" lon="9.6579107"><ele>183.16666666666666</ele><time>2026-04-29T15:06:03.782Z</time></trkpt><trkpt lat="44.2410442" lon="9.657926"><ele>180.33333333333334</ele><time>2026-04-29T15:06:04.782Z</time></trkpt><trkpt lat="44.2409697" lon="9.6579361"><ele>177.5</ele><time>2026-04-29T15:06:05.782Z</time></trkpt><trkpt lat="44.2408946" lon="9.6579321"><ele>174.66666666666669</ele><time>2026-04-29T15:06:06.783Z</time></trkpt><trkpt lat="44.2408173" lon="9.65791"><ele>171.83333333333334</ele><time>2026-04-29T15:06:07.784Z</time></trkpt><trkpt lat="44.2407396" lon="9.6578778"><ele>169.0</ele><time>2026-04-29T15:06:08.784Z</time></trkpt><trkpt lat="44.240669" lon="9.6578444"><ele>169.5</ele><time>2026-04-29T15:06:09.784Z</time></trkpt><trkpt lat="44.2406085" lon="9.6578109"><ele>170.0</ele><time>2026-04-29T15:06:10.782Z</time></trkpt><trkpt lat="44.2405086" lon="9.6577577"><ele>170.5</ele><time>2026-04-29T15:06:12.784Z</time></trkpt><trkpt lat="44.2404375" lon="9.657732"><ele>171.0</ele><time>2026-04-29T15:06:14.785Z</time></trkpt><trkpt lat="44.2403639" lon="9.6577891"><ele>171.5</ele><time>2026-04-29T15:06:17.783Z</time></trkpt><trkpt lat="44.2403862" lon="9.6578918"><ele>172.0</ele><time>2026-04-29T15:06:19.784Z</time></trkpt><trkpt lat="44.2404472" lon="9.6579399"><ele>171.39999999999998</ele><time>2026-04-29T15:06:20.784Z</time></trkpt><trkpt lat="44.2405316" lon="9.6579982"><ele>170.79999999999998</ele><time>2026-04-29T15:06:21.782Z</time></trkpt><trkpt lat="44.2406199" lon="9.6580525"><ele>170.2</ele><time>2026-04-29T15:06:22.783Z</time></trkpt><trkpt lat="44.2407053" lon="9.6580968"><ele>169.6</ele><time>2026-04-29T15:06:23.783Z</time></trkpt><trkpt lat="44.2407978" lon="9.6581457"><ele>169.0</ele><time>2026-04-29T15:06:24.782Z</time></trkpt><trkpt lat="44.2408949" lon="9.6581954"><ele>169.0</ele><time>2026-04-29T15:06:25.782Z</time></trkpt><trkpt lat="44.2409868" lon="9.6582445"><ele>169.0</ele><time>2026-04-29T15:06:26.782Z</time></trkpt><trkpt lat="44.2410652" lon="9.6583142"><ele>169.0</ele><time>2026-04-29T15:06:27.783Z</time></trkpt><trkpt lat="44.2411221" lon="9.6584058"><ele>169.0</ele><time>2026-04-29T15:06:28.784Z</time></trkpt><trkpt lat="44.2411512" lon="9.6585198"><ele>169.0</ele><time>2026-04-29T15:06:29.783Z</time></trkpt><trkpt lat="44.2411603" lon="9.6586579"><ele>167.75</ele><time>2026-04-29T15:06:30.782Z</time></trkpt><trkpt lat="44.2411547" lon="9.6588327"><ele>166.5</ele><time>2026-04-29T15:06:31.781Z</time></trkpt><trkpt lat="44.2411422" lon="9.6590389"><ele>165.25</ele><time>2026-04-29T15:06:32.785Z</time></trkpt><trkpt lat="44.2411304" lon="9.6592438"><ele>164.0</ele><time>2026-04-29T15:06:33.784Z</time></trkpt><trkpt lat="44.2411194" lon="9.6594389"><ele>163.75</ele><time>2026-04-29T15:06:34.783Z</time></trkpt><trkpt lat="44.241108" lon="9.6596266"><ele>163.5</ele><time>2026-04-29T15:06:35.783Z</time></trkpt><trkpt lat="44.2411004" lon="9.6598085"><ele>163.25</ele><time>2026-04-29T15:06:36.781Z</time></trkpt><trkpt lat="44.2410965" lon="9.6599888"><ele>163.0</ele><time>2026-04-29T15:06:37.783Z</time></trkpt><trkpt lat="44.2410879" lon="9.6601575"><ele>163.25</ele><time>2026-04-29T15:06:38.784Z</time></trkpt><trkpt lat="44.241085" lon="9.6603331"><ele>163.5</ele><time>2026-04-29T15:06:39.785Z</time></trkpt><trkpt lat="44.2410778" lon="9.6605071"><ele>163.75</ele><time>2026-04-29T15:06:40.783Z</time></trkpt><trkpt lat="44.2410552" lon="9.6606664"><ele>164.0</ele><time>2026-04-29T15:06:41.783Z</time></trkpt><trkpt lat="44.2410189" lon="9.660818"><ele>164.0</ele><time>2026-04-29T15:06:42.782Z</time></trkpt><trkpt lat="44.2409697" lon="9.6609693"><ele>164.0</ele><time>2026-04-29T15:06:43.783Z</time></trkpt><trkpt lat="44.2409118" lon="9.6611071"><ele>164.0</ele><time>2026-04-29T15:06:44.784Z</time></trkpt><trkpt lat="44.240855" lon="9.661237"><ele>164.0</ele><time>2026-04-29T15:06:45.785Z</time></trkpt><trkpt lat="44.2408032" lon="9.6613655"><ele>164.0</ele><time>2026-04-29T15:06:46.783Z</time></trkpt><trkpt lat="44.2407647" lon="9.6614991"><ele>165.0</ele><time>2026-04-29T15:06:47.782Z</time></trkpt><trkpt lat="44.2407485" lon="9.6616402"><ele>166.0</ele><time>2026-04-29T15:06:48.785Z</time></trkpt><trkpt lat="44.2407556" lon="9.6617853"><ele>167.0</ele><time>2026-04-29T15:06:49.784Z</time></trkpt><trkpt lat="44.2407824" lon="9.6619268"><ele>168.0</ele><time>2026-04-29T15:06:50.785Z</time></trkpt><trkpt lat="44.2408173" lon="9.6620754"><ele>169.0</ele><time>2026-04-29T15:06:51.783Z</time></trkpt><trkpt lat="44.2408487" lon="9.6622313"><ele>169.0</ele><time>2026-04-29T15:06:52.784Z</time></trkpt><trkpt lat="44.2408682" lon="9.662404"><ele>169.0</ele><time>2026-04-29T15:06:53.784Z</time></trkpt><trkpt lat="44.2408819" lon="9.6625924"><ele>169.0</ele><time>2026-04-29T15:06:54.784Z</time></trkpt><trkpt lat="44.2408865" lon="9.6627973"><ele>169.0</ele><time>2026-04-29T15:06:55.782Z</time></trkpt><trkpt lat="44.2408904" lon="9.663022"><ele>168.33333333333334</ele><time>2026-04-29T15:06:56.782Z</time></trkpt><trkpt lat="44.240894" lon="9.6632692"><ele>167.66666666666666</ele><time>2026-04-29T15:06:57.783Z</time></trkpt><trkpt lat="44.240898" lon="9.6635125"><ele>167.0</ele><time>2026-04-29T15:06:58.784Z</time></trkpt><trkpt lat="44.2409058" lon="9.6637413"><ele>166.0</ele><time>2026-04-29T15:06:59.784Z</time></trkpt><trkpt lat="44.2409096" lon="9.6639643"><ele>165.0</ele><time>2026-04-29T15:07:00.784Z</time></trkpt><trkpt lat="44.2409074" lon="9.6641818"><ele>164.0</ele><time>2026-04-29T15:07:01.783Z</time></trkpt><trkpt lat="44.240897" lon="9.6643921"><ele>163.75</ele><time>2026-04-29T15:07:02.784Z</time></trkpt><trkpt lat="44.2408843" lon="9.6645856"><ele>163.5</ele><time>2026-04-29T15:07:03.782Z</time></trkpt><trkpt lat="44.2408663" lon="9.664769"><ele>163.25</ele><time>2026-04-29T15:07:04.781Z</time></trkpt><trkpt lat="44.2408634" lon="9.6649463"><ele>163.0</ele><time>2026-04-29T15:07:05.783Z</time></trkpt><trkpt lat="44.2408716" lon="9.6651345"><ele>162.0</ele><time>2026-04-29T15:07:06.783Z</time></trkpt><trkpt lat="44.240888" lon="9.6653283"><ele>161.0</ele><time>2026-04-29T15:07:07.783Z</time></trkpt><trkpt lat="44.2409074" lon="9.6655133"><ele>160.0</ele><time>2026-04-29T15:07:08.783Z</time></trkpt><trkpt lat="44.2409444" lon="9.665688"><ele>159.0</ele><time>2026-04-29T15:07:09.782Z</time></trkpt><trkpt lat="44.2410121" lon="9.665855"><ele>159.0</ele><time>2026-04-29T15:07:10.783Z</time></trkpt><trkpt lat="44.2411095" lon="9.6660076"><ele>159.0</ele><time>2026-04-29T15:07:11.781Z</time></trkpt><trkpt lat="44.2412354" lon="9.6661521"><ele>159.0</ele><time>2026-04-29T15:07:12.784Z</time></trkpt><trkpt lat="44.2413744" lon="9.6663151"><ele>160.33333333333334</ele><time>2026-04-29T15:07:13.784Z</time></trkpt><trkpt lat="44.241498" lon="9.6664665"><ele>161.66666666666669</ele><time>2026-04-29T15:07:14.782Z</time></trkpt><trkpt lat="44.241628" lon="9.6666046"><ele>163.0</ele><time>2026-04-29T15:07:15.783Z</time></trkpt><trkpt lat="44.2417667" lon="9.666711"><ele>163.0</ele><time>2026-04-29T15:07:16.782Z</time></trkpt><trkpt lat="44.241917" lon="9.666792"><ele>163.0</ele><time>2026-04-29T15:07:17.784Z</time></trkpt><trkpt lat="44.2420801" lon="9.6668669"><ele>163.0</ele><time>2026-04-29T15:07:18.784Z</time></trkpt><trkpt lat="44.2422517" lon="9.6669437"><ele>161.66666666666669</ele><time>2026-04-29T15:07:19.783Z</time></trkpt><trkpt lat="44.2424153" lon="9.6670171"><ele>160.33333333333334</ele><time>2026-04-29T15:07:20.782Z</time></trkpt><trkpt lat="44.2425689" lon="9.6670847"><ele>159.0</ele><time>2026-04-29T15:07:21.783Z</time></trkpt><trkpt lat="44.2427074" lon="9.6671545"><ele>159.0</ele><time>2026-04-29T15:07:22.783Z</time></trkpt><trkpt lat="44.2428316" lon="9.6672473"><ele>159.0</ele><time>2026-04-29T15:07:23.781Z</time></trkpt><trkpt lat="44.2429336" lon="9.6673663"><ele>159.0</ele><time>2026-04-29T15:07:24.784Z</time></trkpt><trkpt lat="44.2430194" lon="9.6675134"><ele>159.0</ele><time>2026-04-29T15:07:25.783Z</time></trkpt><trkpt lat="44.2430793" lon="9.6676791"><ele>159.75</ele><time>2026-04-29T15:07:26.783Z</time></trkpt><trkpt lat="44.24312" lon="9.6678726"><ele>160.5</ele><time>2026-04-29T15:07:27.783Z</time></trkpt><trkpt lat="44.2431586" lon="9.6680765"><ele>161.25</ele><time>2026-04-29T15:07:28.782Z</time></trkpt><trkpt lat="44.2431963" lon="9.6682579"><ele>162.0</ele><time>2026-04-29T15:07:29.783Z</time></trkpt><trkpt lat="44.2432186" lon="9.6684276"><ele>162.25</ele><time>2026-04-29T15:07:30.783Z</time></trkpt><trkpt lat="44.2432012" lon="9.6686041"><ele>162.5</ele><time>2026-04-29T15:07:31.784Z</time></trkpt><trkpt lat="44.2431519" lon="9.668776"><ele>162.75</ele><time>2026-04-29T15:07:32.784Z</time></trkpt><trkpt lat="44.2430664" lon="9.668928"><ele>163.0</ele><time>2026-04-29T15:07:33.782Z</time></trkpt><trkpt lat="44.2429467" lon="9.6690563"><ele>163.0</ele><time>2026-04-29T15:07:34.781Z</time></trkpt><trkpt lat="44.2427939" lon="9.6691632"><ele>163.0</ele><time>2026-04-29T15:07:35.784Z</time></trkpt><trkpt lat="44.2426242" lon="9.6692878"><ele>163.0</ele><time>2026-04-29T15:07:36.783Z</time></trkpt><trkpt lat="44.2424664" lon="9.669437"><ele>162.0</ele><time>2026-04-29T15:07:37.78Z</time></trkpt><trkpt lat="44.2423264" lon="9.6695794"><ele>161.0</ele><time>2026-04-29T15:07:38.784Z</time></trkpt><trkpt lat="44.2422034" lon="9.6697072"><ele>160.0</ele><time>2026-04-29T15:07:39.783Z</time></trkpt><trkpt lat="44.2420925" lon="9.6698212"><ele>160.0</ele><time>2026-04-29T15:07:40.783Z</time></trkpt><trkpt lat="44.2419923" lon="9.6699395"><ele>160.0</ele><time>2026-04-29T15:07:41.782Z</time></trkpt><trkpt lat="44.2419159" lon="9.6700854"><ele>160.0</ele><time>2026-04-29T15:07:42.782Z</time></trkpt><trkpt lat="44.2418633" lon="9.6702602"><ele>160.0</ele><time>2026-04-29T15:07:43.784Z</time></trkpt><trkpt lat="44.241835" lon="9.6704767"><ele>160.33333333333334</ele><time>2026-04-29T15:07:44.784Z</time></trkpt><trkpt lat="44.2418146" lon="9.6707295"><ele>160.66666666666666</ele><time>2026-04-29T15:07:45.783Z</time></trkpt><trkpt lat="44.2417963" lon="9.671003"><ele>161.0</ele><time>2026-04-29T15:07:46.781Z</time></trkpt><trkpt lat="44.2417787" lon="9.6712613"><ele>161.66666666666666</ele><time>2026-04-29T15:07:47.782Z</time></trkpt><trkpt lat="44.2417613" lon="9.6715016"><ele>162.33333333333334</ele><time>2026-04-29T15:07:48.783Z</time></trkpt><trkpt lat="44.2417525" lon="9.671726"><ele>163.0</ele><time>2026-04-29T15:07:49.784Z</time></trkpt><trkpt lat="44.2417562" lon="9.6719482"><ele>164.0</ele><time>2026-04-29T15:07:50.786Z</time></trkpt><trkpt lat="44.2417677" lon="9.6721806"><ele>165.0</ele><time>2026-04-29T15:07:51.783Z</time></trkpt><trkpt lat="44.2417762" lon="9.672406"><ele>166.0</ele><time>2026-04-29T15:07:52.783Z</time></trkpt><trkpt lat="44.2417744" lon="9.6726214"><ele>167.33333333333334</ele><time>2026-04-29T15:07:53.783Z</time></trkpt><trkpt lat="44.2417612" lon="9.6728399"><ele>168.66666666666666</ele><time>2026-04-29T15:07:54.782Z</time></trkpt><trkpt lat="44.2417239" lon="9.6730644"><ele>170.0</ele><time>2026-04-29T15:07:55.783Z</time></trkpt><trkpt lat="44.2416624" lon="9.6732856"><ele>170.0</ele><time>2026-04-29T15:07:56.783Z</time></trkpt><trkpt lat="44.2415911" lon="9.6735103"><ele>170.0</ele><time>2026-04-29T15:07:57.784Z</time></trkpt><trkpt lat="44.2415246" lon="9.6737206"><ele>170.0</ele><time>2026-04-29T15:07:58.783Z</time></trkpt><trkpt lat="44.2414659" lon="9.6739124"><ele>169.0</ele><time>2026-04-29T15:07:59.783Z</time></trkpt><trkpt lat="44.2414109" lon="9.6740972"><ele>168.0</ele><time>2026-04-29T15:08:00.78Z</time></trkpt><trkpt lat="44.2413677" lon="9.6742816"><ele>167.0</ele><time>2026-04-29T15:08:01.783Z</time></trkpt><trkpt lat="44.2413485" lon="9.6744791"><ele>166.0</ele><time>2026-04-29T15:08:02.785Z</time></trkpt><trkpt lat="44.2413423" lon="9.6746846"><ele>166.0</ele><time>2026-04-29T15:08:03.783Z</time></trkpt><trkpt lat="44.2413476" lon="9.6749041"><ele>166.0</ele><time>2026-04-29T15:08:04.784Z</time></trkpt><trkpt lat="44.2413501" lon="9.6751296"><ele>166.0</ele><time>2026-04-29T15:08:05.783Z</time></trkpt><trkpt lat="44.2413344" lon="9.6753693"><ele>164.66666666666669</ele><time>2026-04-29T15:08:06.783Z</time></trkpt><trkpt lat="44.2413002" lon="9.6756059"><ele>163.33333333333334</ele><time>2026-04-29T15:08:07.784Z</time></trkpt><trkpt lat="44.2412424" lon="9.6758382"><ele>162.0</ele><time>2026-04-29T15:08:08.782Z</time></trkpt><trkpt lat="44.2411795" lon="9.676072"><ele>161.66666666666666</ele><time>2026-04-29T15:08:09.782Z</time></trkpt><trkpt lat="44.2411233" lon="9.6763138"><ele>161.33333333333331</ele><time>2026-04-29T15:08:10.785Z</time></trkpt><trkpt lat="44.2410832" lon="9.6765629"><ele>161.0</ele><time>2026-04-29T15:08:11.784Z</time></trkpt><trkpt lat="44.2410654" lon="9.6768102"><ele>160.5</ele><time>2026-04-29T15:08:12.783Z</time></trkpt><trkpt lat="44.2410628" lon="9.6770387"><ele>160.0</ele><time>2026-04-29T15:08:13.784Z</time></trkpt><trkpt lat="44.2410785" lon="9.6772439"><ele>159.5</ele><time>2026-04-29T15:08:14.783Z</time></trkpt><trkpt lat="44.2411279" lon="9.6774146"><ele>159.0</ele><time>2026-04-29T15:08:15.783Z</time></trkpt><trkpt lat="44.2412097" lon="9.6775442"><ele>159.0</ele><time>2026-04-29T15:08:16.784Z</time></trkpt><trkpt lat="44.241317" lon="9.6776291"><ele>159.0</ele><time>2026-04-29T15:08:17.783Z</time></trkpt><trkpt lat="44.2414366" lon="9.67765"><ele>159.0</ele><time>2026-04-29T15:08:18.783Z</time></trkpt><trkpt lat="44.2415626" lon="9.6776185"><ele>159.0</ele><time>2026-04-29T15:08:19.784Z</time></trkpt><trkpt lat="44.2416892" lon="9.6775421"><ele>158.5</ele><time>2026-04-29T15:08:20.782Z</time></trkpt><trkpt lat="44.2418225" lon="9.6774495"><ele>158.0</ele><time>2026-04-29T15:08:21.783Z</time></trkpt><trkpt lat="44.2419541" lon="9.677375"><ele>157.5</ele><time>2026-04-29T15:08:22.783Z</time></trkpt><trkpt lat="44.2420818" lon="9.6773119"><ele>157.0</ele><time>2026-04-29T15:08:23.783Z</time></trkpt><trkpt lat="44.2422182" lon="9.6772843"><ele>157.0</ele><time>2026-04-29T15:08:24.783Z</time></trkpt><trkpt lat="44.2423641" lon="9.6773064"><ele>157.0</ele><time>2026-04-29T15:08:25.783Z</time></trkpt><trkpt lat="44.2425177" lon="9.6773736"><ele>157.0</ele><time>2026-04-29T15:08:26.783Z</time></trkpt><trkpt lat="44.2426697" lon="9.6774616"><ele>157.0</ele><time>2026-04-29T15:08:27.782Z</time></trkpt><trkpt lat="44.2428077" lon="9.6775457"><ele>157.0</ele><time>2026-04-29T15:08:28.782Z</time></trkpt><trkpt lat="44.2429382" lon="9.6776267"><ele>157.0</ele><time>2026-04-29T15:08:29.784Z</time></trkpt><trkpt lat="44.2430704" lon="9.6777172"><ele>157.0</ele><time>2026-04-29T15:08:30.785Z</time></trkpt><trkpt lat="44.2432009" lon="9.6778147"><ele>155.33333333333334</ele><time>2026-04-29T15:08:31.784Z</time></trkpt><trkpt lat="44.2433295" lon="9.6779287"><ele>153.66666666666666</ele><time>2026-04-29T15:08:32.783Z</time></trkpt><trkpt lat="44.24345" lon="9.67806"><ele>152.0</ele><time>2026-04-29T15:08:33.781Z</time></trkpt><trkpt lat="44.2435589" lon="9.6782153"><ele>152.0</ele><time>2026-04-29T15:08:34.782Z</time></trkpt><trkpt lat="44.2436559" lon="9.6783818"><ele>152.0</ele><time>2026-04-29T15:08:35.781Z</time></trkpt><trkpt lat="44.243734" lon="9.6785598"><ele>152.0</ele><time>2026-04-29T15:08:36.781Z</time></trkpt><trkpt lat="44.2437929" lon="9.678764"><ele>151.33333333333331</ele><time>2026-04-29T15:08:37.782Z</time></trkpt><trkpt lat="44.2438435" lon="9.6789868"><ele>150.66666666666666</ele><time>2026-04-29T15:08:38.784Z</time></trkpt><trkpt lat="44.2438959" lon="9.6792149"><ele>150.0</ele><time>2026-04-29T15:08:39.783Z</time></trkpt><trkpt lat="44.2439546" lon="9.6794523"><ele>153.33333333333334</ele><time>2026-04-29T15:08:40.781Z</time></trkpt><trkpt lat="44.2440123" lon="9.6796755"><ele>156.66666666666669</ele><time>2026-04-29T15:08:41.781Z</time></trkpt><trkpt lat="44.2440583" lon="9.6798925"><ele>160.0</ele><time>2026-04-29T15:08:42.783Z</time></trkpt><trkpt lat="44.2441104" lon="9.6801027"><ele>154.66666666666669</ele><time>2026-04-29T15:08:43.784Z</time></trkpt><trkpt lat="44.2441801" lon="9.6803037"><ele>149.33333333333334</ele><time>2026-04-29T15:08:44.783Z</time></trkpt><trkpt lat="44.2442728" lon="9.6804879"><ele>144.0</ele><time>2026-04-29T15:08:45.784Z</time></trkpt><trkpt lat="44.2443795" lon="9.6806547"><ele>144.0</ele><time>2026-04-29T15:08:46.782Z</time></trkpt><trkpt lat="44.244505" lon="9.6808082"><ele>144.0</ele><time>2026-04-29T15:08:47.781Z</time></trkpt><trkpt lat="44.2446475" lon="9.6809526"><ele>144.0</ele><time>2026-04-29T15:08:48.783Z</time></trkpt><trkpt lat="44.2447999" lon="9.6810869"><ele>143.66666666666666</ele><time>2026-04-29T15:08:49.781Z</time></trkpt><trkpt lat="44.2449432" lon="9.6812133"><ele>143.33333333333331</ele><time>2026-04-29T15:08:50.784Z</time></trkpt><trkpt lat="44.2450801" lon="9.6813302"><ele>143.0</ele><time>2026-04-29T15:08:51.782Z</time></trkpt><trkpt lat="44.2452115" lon="9.681443"><ele>143.0</ele><time>2026-04-29T15:08:52.783Z</time></trkpt><trkpt lat="44.2453416" lon="9.6815535"><ele>143.0</ele><time>2026-04-29T15:08:53.782Z</time></trkpt><trkpt lat="44.2454515" lon="9.6816851"><ele>143.0</ele><time>2026-04-29T15:08:54.781Z</time></trkpt><trkpt lat="44.2455407" lon="9.6818513"><ele>143.0</ele><time>2026-04-29T15:08:55.783Z</time></trkpt><trkpt lat="44.2456116" lon="9.682042"><ele>141.5</ele><time>2026-04-29T15:08:56.784Z</time></trkpt><trkpt lat="44.2456665" lon="9.6822598"><ele>140.0</ele><time>2026-04-29T15:08:57.783Z</time></trkpt><trkpt lat="44.2457097" lon="9.6824527"><ele>138.5</ele><time>2026-04-29T15:08:58.781Z</time></trkpt><trkpt lat="44.2457505" lon="9.6826243"><ele>137.0</ele><time>2026-04-29T15:08:59.781Z</time></trkpt><trkpt lat="44.2457889" lon="9.6827888"><ele>137.0</ele><time>2026-04-29T15:09:00.781Z</time></trkpt><trkpt lat="44.2458246" lon="9.6829467"><ele>137.0</ele><time>2026-04-29T15:09:01.781Z</time></trkpt><trkpt lat="44.2458556" lon="9.6831213"><ele>137.0</ele><time>2026-04-29T15:09:02.784Z</time></trkpt><trkpt lat="44.2458799" lon="9.6833024"><ele>137.0</ele><time>2026-04-29T15:09:03.783Z</time></trkpt><trkpt lat="44.2459002" lon="9.6834786"><ele>135.66666666666666</ele><time>2026-04-29T15:09:04.781Z</time></trkpt><trkpt lat="44.2459219" lon="9.6836755"><ele>134.33333333333334</ele><time>2026-04-29T15:09:05.78Z</time></trkpt><trkpt lat="44.2459472" lon="9.6838864"><ele>133.0</ele><time>2026-04-29T15:09:06.783Z</time></trkpt><trkpt lat="44.245969" lon="9.6841067"><ele>133.0</ele><time>2026-04-29T15:09:07.784Z</time></trkpt><trkpt lat="44.245991" lon="9.6843396"><ele>133.0</ele><time>2026-04-29T15:09:08.782Z</time></trkpt><trkpt lat="44.2460121" lon="9.6845836"><ele>133.0</ele><time>2026-04-29T15:09:09.781Z</time></trkpt><trkpt lat="44.2460322" lon="9.6848101"><ele>132.0</ele><time>2026-04-29T15:09:10.782Z</time></trkpt><trkpt lat="44.246051" lon="9.6850377"><ele>131.0</ele><time>2026-04-29T15:09:11.784Z</time></trkpt><trkpt lat="44.2460701" lon="9.6852656"><ele>130.0</ele><time>2026-04-29T15:09:12.782Z</time></trkpt><trkpt lat="44.2460896" lon="9.6854936"><ele>130.0</ele><time>2026-04-29T15:09:13.781Z</time></trkpt><trkpt lat="44.2461101" lon="9.6857225"><ele>130.0</ele><time>2026-04-29T15:09:14.783Z</time></trkpt><trkpt lat="44.2461278" lon="9.6859368"><ele>130.0</ele><time>2026-04-29T15:09:15.782Z</time></trkpt><trkpt lat="44.2461433" lon="9.686145"><ele>130.75</ele><time>2026-04-29T15:09:16.782Z</time></trkpt><trkpt lat="44.2461593" lon="9.6863533"><ele>131.5</ele><time>2026-04-29T15:09:17.782Z</time></trkpt><trkpt lat="44.2461776" lon="9.6865585"><ele>132.25</ele><time>2026-04-29T15:09:18.782Z</time></trkpt><trkpt lat="44.2462021" lon="9.6867512"><ele>133.0</ele><time>2026-04-29T15:09:19.782Z</time></trkpt><trkpt lat="44.2462425" lon="9.6869306"><ele>133.0</ele><time>2026-04-29T15:09:20.78Z</time></trkpt><trkpt lat="44.2462992" lon="9.6871081"><ele>133.0</ele><time>2026-04-29T15:09:21.781Z</time></trkpt><trkpt lat="44.2463628" lon="9.6872845"><ele>133.0</ele><time>2026-04-29T15:09:22.784Z</time></trkpt><trkpt lat="44.2464336" lon="9.6874594"><ele>133.0</ele><time>2026-04-29T15:09:23.782Z</time></trkpt><trkpt lat="44.246508" lon="9.6876346"><ele>133.5</ele><time>2026-04-29T15:09:24.782Z</time></trkpt><trkpt lat="44.2465845" lon="9.6877994"><ele>134.0</ele><time>2026-04-29T15:09:25.781Z</time></trkpt><trkpt lat="44.2466774" lon="9.6879539"><ele>134.5</ele><time>2026-04-29T15:09:26.781Z</time></trkpt><trkpt lat="44.2467842" lon="9.6880881"><ele>135.0</ele><time>2026-04-29T15:09:27.782Z</time></trkpt><trkpt lat="44.2469009" lon="9.6882053"><ele>135.0</ele><time>2026-04-29T15:09:28.782Z</time></trkpt><trkpt lat="44.2470229" lon="9.6883156"><ele>135.0</ele><time>2026-04-29T15:09:29.786Z</time></trkpt><trkpt lat="44.2471316" lon="9.6884431"><ele>135.0</ele><time>2026-04-29T15:09:30.781Z</time></trkpt><trkpt lat="44.2472113" lon="9.688596"><ele>135.0</ele><time>2026-04-29T15:09:31.782Z</time></trkpt><trkpt lat="44.247271" lon="9.6887758"><ele>135.75</ele><time>2026-04-29T15:09:32.779Z</time></trkpt><trkpt lat="44.2473233" lon="9.6889713"><ele>136.5</ele><time>2026-04-29T15:09:33.782Z</time></trkpt><trkpt lat="44.2473691" lon="9.6891681"><ele>137.25</ele><time>2026-04-29T15:09:34.782Z</time></trkpt><trkpt lat="44.2473941" lon="9.6893727"><ele>138.0</ele><time>2026-04-29T15:09:35.782Z</time></trkpt><trkpt lat="44.2474025" lon="9.6895831"><ele>138.0</ele><time>2026-04-29T15:09:36.783Z</time></trkpt><trkpt lat="44.2474251" lon="9.6897929"><ele>138.0</ele><time>2026-04-29T15:09:37.781Z</time></trkpt><trkpt lat="44.247459" lon="9.6900044"><ele>138.0</ele><time>2026-04-29T15:09:38.781Z</time></trkpt><trkpt lat="44.2474908" lon="9.690217"><ele>143.33333333333334</ele><time>2026-04-29T15:09:39.782Z</time></trkpt><trkpt lat="44.2475132" lon="9.6904334"><ele>148.66666666666669</ele><time>2026-04-29T15:09:40.782Z</time></trkpt><trkpt lat="44.2475189" lon="9.6906466"><ele>154.0</ele><time>2026-04-29T15:09:41.782Z</time></trkpt><trkpt lat="44.2475111" lon="9.6908457"><ele>154.0</ele><time>2026-04-29T15:09:42.783Z</time></trkpt><trkpt lat="44.2474917" lon="9.6910354"><ele>154.0</ele><time>2026-04-29T15:09:43.782Z</time></trkpt><trkpt lat="44.2474419" lon="9.6912098"><ele>154.0</ele><time>2026-04-29T15:09:44.782Z</time></trkpt><trkpt lat="44.2473604" lon="9.6913797"><ele>154.0</ele><time>2026-04-29T15:09:45.781Z</time></trkpt><trkpt lat="44.2472574" lon="9.6915582"><ele>150.0</ele><time>2026-04-29T15:09:46.78Z</time></trkpt><trkpt lat="44.2471402" lon="9.6917517"><ele>146.0</ele><time>2026-04-29T15:09:47.782Z</time></trkpt><trkpt lat="44.2470221" lon="9.6919446"><ele>142.0</ele><time>2026-04-29T15:09:48.78Z</time></trkpt><trkpt lat="44.2469081" lon="9.6921304"><ele>142.0</ele><time>2026-04-29T15:09:49.781Z</time></trkpt><trkpt lat="44.2467981" lon="9.6923125"><ele>142.0</ele><time>2026-04-29T15:09:50.782Z</time></trkpt><trkpt lat="44.2466959" lon="9.6924836"><ele>142.0</ele><time>2026-04-29T15:09:51.781Z</time></trkpt><trkpt lat="44.2465945" lon="9.6926544"><ele>137.66666666666669</ele><time>2026-04-29T15:09:52.783Z</time></trkpt><trkpt lat="44.2464914" lon="9.692828"><ele>133.33333333333334</ele><time>2026-04-29T15:09:53.781Z</time></trkpt><trkpt lat="44.2463869" lon="9.6930034"><ele>129.0</ele><time>2026-04-29T15:09:54.782Z</time></trkpt><trkpt lat="44.2462808" lon="9.6931822"><ele>129.0</ele><time>2026-04-29T15:09:55.781Z</time></trkpt><trkpt lat="44.246172" lon="9.6933646"><ele>129.0</ele><time>2026-04-29T15:09:56.782Z</time></trkpt><trkpt lat="44.2460608" lon="9.6935506"><ele>129.0</ele><time>2026-04-29T15:09:57.783Z</time></trkpt><trkpt lat="44.2459508" lon="9.6937266"><ele>128.0</ele><time>2026-04-29T15:09:58.783Z</time></trkpt><trkpt lat="44.2458275" lon="9.6938931"><ele>127.0</ele><time>2026-04-29T15:09:59.782Z</time></trkpt><trkpt lat="44.2456989" lon="9.6940341"><ele>126.0</ele><time>2026-04-29T15:10:00.782Z</time></trkpt><trkpt lat="44.2455644" lon="9.6941392"><ele>126.0</ele><time>2026-04-29T15:10:01.781Z</time></trkpt><trkpt lat="44.2454222" lon="9.6942256"><ele>126.0</ele><time>2026-04-29T15:10:02.781Z</time></trkpt><trkpt lat="44.2452757" lon="9.6943165"><ele>126.0</ele><time>2026-04-29T15:10:03.782Z</time></trkpt><trkpt lat="44.2451295" lon="9.6944096"><ele>128.0</ele><time>2026-04-29T15:10:04.781Z</time></trkpt><trkpt lat="44.2449886" lon="9.6944993"><ele>130.0</ele><time>2026-04-29T15:10:05.781Z</time></trkpt><trkpt lat="44.2448533" lon="9.6945831"><ele>132.0</ele><time>2026-04-29T15:10:06.784Z</time></trkpt><trkpt lat="44.2447248" lon="9.6946641"><ele>134.0</ele><time>2026-04-29T15:10:07.781Z</time></trkpt><trkpt lat="44.2445999" lon="9.6947407"><ele>134.0</ele><time>2026-04-29T15:10:08.781Z</time></trkpt><trkpt lat="44.2444748" lon="9.6948217"><ele>134.0</ele><time>2026-04-29T15:10:09.782Z</time></trkpt><trkpt lat="44.2443434" lon="9.6949009"><ele>134.0</ele><time>2026-04-29T15:10:10.782Z</time></trkpt><trkpt lat="44.244207" lon="9.6949812"><ele>134.0</ele><time>2026-04-29T15:10:11.781Z</time></trkpt><trkpt lat="44.2440675" lon="9.6950595"><ele>135.33333333333331</ele><time>2026-04-29T15:10:12.782Z</time></trkpt><trkpt lat="44.2439258" lon="9.6951402"><ele>136.66666666666666</ele><time>2026-04-29T15:10:13.781Z</time></trkpt><trkpt lat="44.243781" lon="9.6952257"><ele>138.0</ele><time>2026-04-29T15:10:14.782Z</time></trkpt><trkpt lat="44.2436362" lon="9.6953155"><ele>138.0</ele><time>2026-04-29T15:10:15.781Z</time></trkpt><trkpt lat="44.2434948" lon="9.6954183"><ele>138.0</ele><time>2026-04-29T15:10:16.784Z</time></trkpt><trkpt lat="44.2433703" lon="9.6955379"><ele>138.0</ele><time>2026-04-29T15:10:17.782Z</time></trkpt><trkpt lat="44.2432761" lon="9.6956895"><ele>138.0</ele><time>2026-04-29T15:10:18.783Z</time></trkpt><trkpt lat="44.2432129" lon="9.6958631"><ele>138.0</ele><time>2026-04-29T15:10:19.782Z</time></trkpt><trkpt lat="44.2431922" lon="9.6960507"><ele>138.0</ele><time>2026-04-29T15:10:20.783Z</time></trkpt><trkpt lat="44.2432027" lon="9.69624"><ele>138.0</ele><time>2026-04-29T15:10:21.782Z</time></trkpt><trkpt lat="44.2432315" lon="9.6964318"><ele>139.0</ele><time>2026-04-29T15:10:22.781Z</time></trkpt><trkpt lat="44.2432653" lon="9.696628"><ele>140.0</ele><time>2026-04-29T15:10:23.782Z</time></trkpt><trkpt lat="44.2432959" lon="9.6968316"><ele>141.0</ele><time>2026-04-29T15:10:24.783Z</time></trkpt><trkpt lat="44.2433217" lon="9.6970424"><ele>142.0</ele><time>2026-04-29T15:10:25.782Z</time></trkpt><trkpt lat="44.2433452" lon="9.6972586"><ele>142.33333333333334</ele><time>2026-04-29T15:10:26.783Z</time></trkpt><trkpt lat="44.2433697" lon="9.6974812"><ele>142.66666666666666</ele><time>2026-04-29T15:10:27.782Z</time></trkpt><trkpt lat="44.2433953" lon="9.697712"><ele>143.0</ele><time>2026-04-29T15:10:28.781Z</time></trkpt><trkpt lat="44.2434226" lon="9.6979488"><ele>143.0</ele><time>2026-04-29T15:10:29.781Z</time></trkpt><trkpt lat="44.2434516" lon="9.6981932"><ele>143.0</ele><time>2026-04-29T15:10:30.782Z</time></trkpt><trkpt lat="44.243481" lon="9.6984433"><ele>143.0</ele><time>2026-04-29T15:10:31.78Z</time></trkpt><trkpt lat="44.243514" lon="9.6986968"><ele>143.33333333333331</ele><time>2026-04-29T15:10:32.78Z</time></trkpt><trkpt lat="44.243549" lon="9.6989534"><ele>143.66666666666666</ele><time>2026-04-29T15:10:33.783Z</time></trkpt><trkpt lat="44.2435841" lon="9.6992123"><ele>144.0</ele><time>2026-04-29T15:10:34.783Z</time></trkpt><trkpt lat="44.2436177" lon="9.6994562"><ele>144.0</ele><time>2026-04-29T15:10:35.781Z</time></trkpt><trkpt lat="44.243656" lon="9.6996895"><ele>144.0</ele><time>2026-04-29T15:10:36.783Z</time></trkpt><trkpt lat="44.2437059" lon="9.6999244"><ele>144.0</ele><time>2026-04-29T15:10:37.782Z</time></trkpt><trkpt lat="44.2437671" lon="9.7001532"><ele>144.66666666666666</ele><time>2026-04-29T15:10:38.781Z</time></trkpt><trkpt lat="44.2438461" lon="9.7003794"><ele>145.33333333333331</ele><time>2026-04-29T15:10:39.782Z</time></trkpt><trkpt lat="44.2439399" lon="9.7005988"><ele>146.0</ele><time>2026-04-29T15:10:40.782Z</time></trkpt><trkpt lat="44.2440529" lon="9.700803"><ele>146.0</ele><time>2026-04-29T15:10:41.781Z</time></trkpt><trkpt lat="44.2441755" lon="9.7009807"><ele>146.0</ele><time>2026-04-29T15:10:42.782Z</time></trkpt><trkpt lat="44.2443054" lon="9.7011535"><ele>146.0</ele><time>2026-04-29T15:10:43.782Z</time></trkpt><trkpt lat="44.244442" lon="9.7013218"><ele>149.0</ele><time>2026-04-29T15:10:44.783Z</time></trkpt><trkpt lat="44.2445765" lon="9.7014961"><ele>152.0</ele><time>2026-04-29T15:10:45.782Z</time></trkpt><trkpt lat="44.2447098" lon="9.7016768"><ele>155.0</ele><time>2026-04-29T15:10:46.781Z</time></trkpt><trkpt lat="44.2448355" lon="9.7018604"><ele>150.66666666666666</ele><time>2026-04-29T15:10:47.782Z</time></trkpt><trkpt lat="44.2449461" lon="9.7020486"><ele>146.33333333333334</ele><time>2026-04-29T15:10:48.781Z</time></trkpt><trkpt lat="44.245048" lon="9.7022558"><ele>142.0</ele><time>2026-04-29T15:10:49.783Z</time></trkpt><trkpt lat="44.2451333" lon="9.7024815"><ele>142.0</ele><time>2026-04-29T15:10:50.782Z</time></trkpt><trkpt lat="44.245201" lon="9.7027178"><ele>142.0</ele><time>2026-04-29T15:10:51.785Z</time></trkpt><trkpt lat="44.2452439" lon="9.7029606"><ele>142.0</ele><time>2026-04-29T15:10:52.781Z</time></trkpt><trkpt lat="44.2452689" lon="9.7032113"><ele>143.0</ele><time>2026-04-29T15:10:53.781Z</time></trkpt><trkpt lat="44.2452675" lon="9.7034673"><ele>144.0</ele><time>2026-04-29T15:10:54.783Z</time></trkpt><trkpt lat="44.2452432" lon="9.7037282"><ele>145.0</ele><time>2026-04-29T15:10:55.782Z</time></trkpt><trkpt lat="44.2451978" lon="9.7039892"><ele>145.0</ele><time>2026-04-29T15:10:56.781Z</time></trkpt><trkpt lat="44.2451356" lon="9.704234"><ele>145.0</ele><time>2026-04-29T15:10:57.782Z</time></trkpt><trkpt lat="44.2450542" lon="9.704471"><ele>145.0</ele><time>2026-04-29T15:10:58.782Z</time></trkpt><trkpt lat="44.2449692" lon="9.7047012"><ele>141.33333333333334</ele><time>2026-04-29T15:10:59.782Z</time></trkpt><trkpt lat="44.2448832" lon="9.7049317"><ele>137.66666666666666</ele><time>2026-04-29T15:11:00.783Z</time></trkpt><trkpt lat="44.2447963" lon="9.7051613"><ele>134.0</ele><time>2026-04-29T15:11:01.78Z</time></trkpt><trkpt lat="44.2431215" lon="9.7063067"><ele>134.0</ele><time>2026-04-29T15:11:10.78Z</time></trkpt><trkpt lat="44.2429538" lon="9.7064148"><ele>134.0</ele><time>2026-04-29T15:11:11.784Z</time></trkpt><trkpt lat="44.2427962" lon="9.706529"><ele>134.0</ele><time>2026-04-29T15:11:12.782Z</time></trkpt><trkpt lat="44.242646" lon="9.7066359"><ele>134.0</ele><time>2026-04-29T15:11:13.781Z</time></trkpt><trkpt lat="44.2424969" lon="9.7067367"><ele>134.0</ele><time>2026-04-29T15:11:14.781Z</time></trkpt><trkpt lat="44.2423507" lon="9.7068345"><ele>134.0</ele><time>2026-04-29T15:11:15.782Z</time></trkpt><trkpt lat="44.2422043" lon="9.7069391"><ele>136.0</ele><time>2026-04-29T15:11:16.781Z</time></trkpt><trkpt lat="44.2420552" lon="9.7070434"><ele>138.0</ele><time>2026-04-29T15:11:17.782Z</time></trkpt><trkpt lat="44.2419059" lon="9.7071518"><ele>140.0</ele><time>2026-04-29T15:11:18.782Z</time></trkpt><trkpt lat="44.2417593" lon="9.7072593"><ele>140.0</ele><time>2026-04-29T15:11:19.782Z</time></trkpt><trkpt lat="44.2416115" lon="9.7073653"><ele>140.0</ele><time>2026-04-29T15:11:20.782Z</time></trkpt><trkpt lat="44.2414674" lon="9.7074752"><ele>140.0</ele><time>2026-04-29T15:11:21.781Z</time></trkpt><trkpt lat="44.2413264" lon="9.7075887"><ele>141.0</ele><time>2026-04-29T15:11:22.782Z</time></trkpt><trkpt lat="44.2411833" lon="9.7077054"><ele>142.0</ele><time>2026-04-29T15:11:23.781Z</time></trkpt><trkpt lat="44.2410459" lon="9.7078192"><ele>143.0</ele><time>2026-04-29T15:11:24.782Z</time></trkpt><trkpt lat="44.2409098" lon="9.7079292"><ele>143.0</ele><time>2026-04-29T15:11:25.783Z</time></trkpt><trkpt lat="44.2407797" lon="9.7080478"><ele>143.0</ele><time>2026-04-29T15:11:26.782Z</time></trkpt><trkpt lat="44.2406573" lon="9.7081794"><ele>143.0</ele><time>2026-04-29T15:11:27.781Z</time></trkpt><trkpt lat="44.2405448" lon="9.7083196"><ele>139.0</ele><time>2026-04-29T15:11:28.781Z</time></trkpt><trkpt lat="44.2404427" lon="9.7084736"><ele>135.0</ele><time>2026-04-29T15:11:29.784Z</time></trkpt><trkpt lat="44.2403502" lon="9.7086413"><ele>131.0</ele><time>2026-04-29T15:11:30.782Z</time></trkpt><trkpt lat="44.2402704" lon="9.7088234"><ele>131.0</ele><time>2026-04-29T15:11:31.783Z</time></trkpt><trkpt lat="44.2401897" lon="9.7090103"><ele>131.0</ele><time>2026-04-29T15:11:32.781Z</time></trkpt><trkpt lat="44.2401017" lon="9.7091915"><ele>131.0</ele><time>2026-04-29T15:11:33.782Z</time></trkpt><trkpt lat="44.2399979" lon="9.7093619"><ele>127.66666666666666</ele><time>2026-04-29T15:11:34.783Z</time></trkpt><trkpt lat="44.2398804" lon="9.7095222"><ele>124.33333333333334</ele><time>2026-04-29T15:11:35.781Z</time></trkpt><trkpt lat="44.2397523" lon="9.7096784"><ele>121.0</ele><time>2026-04-29T15:11:36.781Z</time></trkpt><trkpt lat="44.2396178" lon="9.7098367"><ele>121.0</ele><time>2026-04-29T15:11:37.783Z</time></trkpt><trkpt lat="44.2394792" lon="9.709999"><ele>121.0</ele><time>2026-04-29T15:11:38.783Z</time></trkpt><trkpt lat="44.2393416" lon="9.710166"><ele>121.0</ele><time>2026-04-29T15:11:39.782Z</time></trkpt><trkpt lat="44.2392101" lon="9.7103231"><ele>120.33333333333334</ele><time>2026-04-29T15:11:40.782Z</time></trkpt><trkpt lat="44.2390821" lon="9.7104755"><ele>119.66666666666666</ele><time>2026-04-29T15:11:41.782Z</time></trkpt><trkpt lat="44.2389594" lon="9.7106238"><ele>119.0</ele><time>2026-04-29T15:11:42.782Z</time></trkpt><trkpt lat="44.2388369" lon="9.7107708"><ele>119.0</ele><time>2026-04-29T15:11:43.781Z</time></trkpt><trkpt lat="44.2387163" lon="9.7109184"><ele>119.0</ele><time>2026-04-29T15:11:44.782Z</time></trkpt><trkpt lat="44.2385929" lon="9.7110631"><ele>119.0</ele><time>2026-04-29T15:11:45.78Z</time></trkpt><trkpt lat="44.2384643" lon="9.7111943"><ele>122.0</ele><time>2026-04-29T15:11:46.781Z</time></trkpt><trkpt lat="44.2383288" lon="9.7113007"><ele>125.0</ele><time>2026-04-29T15:11:47.783Z</time></trkpt><trkpt lat="44.2381845" lon="9.7113719"><ele>128.0</ele><time>2026-04-29T15:11:48.783Z</time></trkpt><trkpt lat="44.2380362" lon="9.7114088"><ele>128.0</ele><time>2026-04-29T15:11:49.783Z</time></trkpt><trkpt lat="44.2378818" lon="9.7114304"><ele>128.0</ele><time>2026-04-29T15:11:50.782Z</time></trkpt><trkpt lat="44.2377251" lon="9.7114577"><ele>128.0</ele><time>2026-04-29T15:11:51.784Z</time></trkpt><trkpt lat="44.2375773" lon="9.7114919"><ele>128.0</ele><time>2026-04-29T15:11:52.782Z</time></trkpt><trkpt lat="44.2374348" lon="9.7115555"><ele>128.0</ele><time>2026-04-29T15:11:53.78Z</time></trkpt><trkpt lat="44.2372999" lon="9.7116585"><ele>128.0</ele><time>2026-04-29T15:11:54.782Z</time></trkpt><trkpt lat="44.2371646" lon="9.7117989"><ele>130.0</ele><time>2026-04-29T15:11:55.781Z</time></trkpt><trkpt lat="44.237025" lon="9.7119594"><ele>132.0</ele><time>2026-04-29T15:11:56.783Z</time></trkpt><trkpt lat="44.2368836" lon="9.7121249"><ele>134.0</ele><time>2026-04-29T15:11:57.783Z</time></trkpt><trkpt lat="44.236736" lon="9.7122812"><ele>134.0</ele><time>2026-04-29T15:11:58.781Z</time></trkpt><trkpt lat="44.2365814" lon="9.7124178"><ele>134.0</ele><time>2026-04-29T15:11:59.782Z</time></trkpt><trkpt lat="44.2364156" lon="9.7125411"><ele>134.0</ele><time>2026-04-29T15:12:00.781Z</time></trkpt><trkpt lat="44.2362495" lon="9.712655"><ele>131.66666666666666</ele><time>2026-04-29T15:12:01.783Z</time></trkpt><trkpt lat="44.2360951" lon="9.7127626"><ele>129.33333333333334</ele><time>2026-04-29T15:12:02.784Z</time></trkpt><trkpt lat="44.235943" lon="9.7128655"><ele>127.0</ele><time>2026-04-29T15:12:03.781Z</time></trkpt><trkpt lat="44.2357917" lon="9.7129656"><ele>127.0</ele><time>2026-04-29T15:12:04.781Z</time></trkpt><trkpt lat="44.2356625" lon="9.7130641"><ele>127.0</ele><time>2026-04-29T15:12:05.782Z</time></trkpt><trkpt lat="44.2355327" lon="9.7131774"><ele>127.0</ele><time>2026-04-29T15:12:06.781Z</time></trkpt><trkpt lat="44.2354156" lon="9.7133073"><ele>125.25</ele><time>2026-04-29T15:12:07.781Z</time></trkpt><trkpt lat="44.2353302" lon="9.713467"><ele>123.5</ele><time>2026-04-29T15:12:08.783Z</time></trkpt><trkpt lat="44.2352559" lon="9.7136419"><ele>121.75</ele><time>2026-04-29T15:12:09.783Z</time></trkpt><trkpt lat="44.2351873" lon="9.7138274"><ele>120.0</ele><time>2026-04-29T15:12:10.783Z</time></trkpt><trkpt lat="44.2351161" lon="9.7140153"><ele>120.0</ele><time>2026-04-29T15:12:11.782Z</time></trkpt><trkpt lat="44.2350487" lon="9.7141945"><ele>120.0</ele><time>2026-04-29T15:12:12.782Z</time></trkpt><trkpt lat="44.2349839" lon="9.7143675"><ele>120.0</ele><time>2026-04-29T15:12:13.782Z</time></trkpt><trkpt lat="44.2349189" lon="9.7145376"><ele>120.0</ele><time>2026-04-29T15:12:14.781Z</time></trkpt><trkpt lat="44.234851" lon="9.7147162"><ele>119.0</ele><time>2026-04-29T15:12:15.783Z</time></trkpt><trkpt lat="44.2347852" lon="9.7149004"><ele>118.0</ele><time>2026-04-29T15:12:16.783Z</time></trkpt><trkpt lat="44.2347097" lon="9.7150816"><ele>117.0</ele><time>2026-04-29T15:12:17.782Z</time></trkpt><trkpt lat="44.2346211" lon="9.7152413"><ele>116.0</ele><time>2026-04-29T15:12:18.782Z</time></trkpt><trkpt lat="44.2345156" lon="9.7153719"><ele>115.5</ele><time>2026-04-29T15:12:19.781Z</time></trkpt><trkpt lat="44.2343991" lon="9.7154821"><ele>115.0</ele><time>2026-04-29T15:12:20.781Z</time></trkpt><trkpt lat="44.234295" lon="9.7155702"><ele>114.5</ele><time>2026-04-29T15:12:21.781Z</time></trkpt><trkpt lat="44.234203" lon="9.7156455"><ele>114.0</ele><time>2026-04-29T15:12:22.783Z</time></trkpt><trkpt lat="44.2341202" lon="9.7157134"><ele>114.0</ele><time>2026-04-29T15:12:23.782Z</time></trkpt><trkpt lat="44.2340472" lon="9.7157758"><ele>114.0</ele><time>2026-04-29T15:12:24.783Z</time></trkpt><trkpt lat="44.2339806" lon="9.7158337"><ele>114.0</ele><time>2026-04-29T15:12:25.782Z</time></trkpt><trkpt lat="44.2338834" lon="9.7159215"><ele>114.0</ele><time>2026-04-29T15:12:27.782Z</time></trkpt><trkpt lat="44.2338008" lon="9.7159669"><ele>114.0</ele><time>2026-04-29T15:12:29.784Z</time></trkpt><trkpt lat="44.2336979" lon="9.7159863"><ele>113.33333333333333</ele><time>2026-04-29T15:12:31.787Z</time></trkpt><trkpt lat="44.233625" lon="9.715992"><ele>112.66666666666666</ele><time>2026-04-29T15:12:32.782Z</time></trkpt><trkpt lat="44.2335564" lon="9.715993"><ele>112.0</ele><time>2026-04-29T15:12:33.781Z</time></trkpt><trkpt lat="44.2334565" lon="9.7159907"><ele>111.33333333333333</ele><time>2026-04-29T15:12:35.782Z</time></trkpt><trkpt lat="44.2333663" lon="9.7159891"><ele>110.66666666666666</ele><time>2026-04-29T15:12:37.784Z</time></trkpt><trkpt lat="44.2332495" lon="9.7159828"><ele>110.0</ele><time>2026-04-29T15:12:39.781Z</time></trkpt><trkpt lat="44.2331731" lon="9.7159781"><ele>109.6</ele><time>2026-04-29T15:12:40.783Z</time></trkpt><trkpt lat="44.2330854" lon="9.7159717"><ele>109.2</ele><time>2026-04-29T15:12:41.783Z</time></trkpt><trkpt lat="44.2329883" lon="9.7159607"><ele>108.80000000000001</ele><time>2026-04-29T15:12:42.783Z</time></trkpt><trkpt lat="44.2328827" lon="9.7159521"><ele>108.4</ele><time>2026-04-29T15:12:43.782Z</time></trkpt><trkpt lat="44.2327711" lon="9.7159463"><ele>108.0</ele><time>2026-04-29T15:12:44.782Z</time></trkpt><trkpt lat="44.2326519" lon="9.7159187"><ele>108.0</ele><time>2026-04-29T15:12:45.782Z</time></trkpt><trkpt lat="44.2325319" lon="9.7158943"><ele>108.0</ele><time>2026-04-29T15:12:46.783Z</time></trkpt><trkpt lat="44.2324069" lon="9.7158601"><ele>108.0</ele><time>2026-04-29T15:12:47.782Z</time></trkpt><trkpt lat="44.2322782" lon="9.7158202"><ele>108.0</ele><time>2026-04-29T15:12:48.783Z</time></trkpt><trkpt lat="44.2321426" lon="9.7157748"><ele>106.75</ele><time>2026-04-29T15:12:49.78Z</time></trkpt><trkpt lat="44.2320055" lon="9.7157294"><ele>105.5</ele><time>2026-04-29T15:12:50.782Z</time></trkpt><trkpt lat="44.2318675" lon="9.7156875"><ele>104.25</ele><time>2026-04-29T15:12:51.781Z</time></trkpt><trkpt lat="44.2317237" lon="9.7156453"><ele>103.0</ele><time>2026-04-29T15:12:52.781Z</time></trkpt><trkpt lat="44.2315755" lon="9.7155975"><ele>106.0</ele><time>2026-04-29T15:12:53.783Z</time></trkpt><trkpt lat="44.2314247" lon="9.7155475"><ele>109.0</ele><time>2026-04-29T15:12:54.782Z</time></trkpt><trkpt lat="44.2312717" lon="9.7155006"><ele>112.0</ele><time>2026-04-29T15:12:55.78Z</time></trkpt><trkpt lat="44.2311209" lon="9.7154622"><ele>112.0</ele><time>2026-04-29T15:12:56.782Z</time></trkpt><trkpt lat="44.2309768" lon="9.7154519"><ele>112.0</ele><time>2026-04-29T15:12:57.781Z</time></trkpt><trkpt lat="44.230831" lon="9.7154772"><ele>112.0</ele><time>2026-04-29T15:12:58.783Z</time></trkpt><trkpt lat="44.2306868" lon="9.715534"><ele>112.0</ele><time>2026-04-29T15:12:59.782Z</time></trkpt><trkpt lat="44.2305468" lon="9.7156241"><ele>114.0</ele><time>2026-04-29T15:13:00.78Z</time></trkpt><trkpt lat="44.2304156" lon="9.7157343"><ele>116.0</ele><time>2026-04-29T15:13:01.785Z</time></trkpt><trkpt lat="44.2302924" lon="9.7158442"><ele>118.0</ele><time>2026-04-29T15:13:02.781Z</time></trkpt><trkpt lat="44.2301689" lon="9.7159509"><ele>120.0</ele><time>2026-04-29T15:13:03.781Z</time></trkpt><trkpt lat="44.2300446" lon="9.7160533"><ele>119.0</ele><time>2026-04-29T15:13:04.783Z</time></trkpt><trkpt lat="44.229923" lon="9.7161473"><ele>118.0</ele><time>2026-04-29T15:13:05.78Z</time></trkpt><trkpt lat="44.2298049" lon="9.7162344"><ele>117.0</ele><time>2026-04-29T15:13:06.783Z</time></trkpt><trkpt lat="44.2296874" lon="9.7163198"><ele>116.0</ele><time>2026-04-29T15:13:07.782Z</time></trkpt><trkpt lat="44.229573" lon="9.716404"><ele>116.0</ele><time>2026-04-29T15:13:08.782Z</time></trkpt><trkpt lat="44.2294661" lon="9.716483"><ele>116.0</ele><time>2026-04-29T15:13:09.781Z</time></trkpt><trkpt lat="44.2293666" lon="9.7165528"><ele>116.0</ele><time>2026-04-29T15:13:10.782Z</time></trkpt><trkpt lat="44.2292732" lon="9.7166179"><ele>116.0</ele><time>2026-04-29T15:13:11.782Z</time></trkpt><trkpt lat="44.2291827" lon="9.716678"><ele>116.0</ele><time>2026-04-29T15:13:12.782Z</time></trkpt><trkpt lat="44.2290938" lon="9.7167397"><ele>116.0</ele><time>2026-04-29T15:13:13.781Z</time></trkpt><trkpt lat="44.229006" lon="9.7167986"><ele>116.0</ele><time>2026-04-29T15:13:14.783Z</time></trkpt><trkpt lat="44.2289183" lon="9.7168592"><ele>116.0</ele><time>2026-04-29T15:13:15.783Z</time></trkpt><trkpt lat="44.2288291" lon="9.7169215"><ele>116.0</ele><time>2026-04-29T15:13:16.781Z</time></trkpt><trkpt lat="44.2287389" lon="9.716985"><ele>116.0</ele><time>2026-04-29T15:13:17.781Z</time></trkpt><trkpt lat="44.2286477" lon="9.7170496"><ele>116.0</ele><time>2026-04-29T15:13:18.783Z</time></trkpt><trkpt lat="44.2285565" lon="9.717115"><ele>116.0</ele><time>2026-04-29T15:13:19.781Z</time></trkpt><trkpt lat="44.2284638" lon="9.7171799"><ele>116.0</ele><time>2026-04-29T15:13:20.782Z</time></trkpt><trkpt lat="44.2283682" lon="9.717243"><ele>116.0</ele><time>2026-04-29T15:13:21.782Z</time></trkpt><trkpt lat="44.2282707" lon="9.7173074"><ele>116.0</ele><time>2026-04-29T15:13:22.782Z</time></trkpt><trkpt lat="44.2281719" lon="9.7173762"><ele>117.5</ele><time>2026-04-29T15:13:23.781Z</time></trkpt><trkpt lat="44.22807" lon="9.717447"><ele>119.0</ele><time>2026-04-29T15:13:24.782Z</time></trkpt><trkpt lat="44.2279695" lon="9.7175204"><ele>120.5</ele><time>2026-04-29T15:13:25.78Z</time></trkpt><trkpt lat="44.2278719" lon="9.7175979"><ele>122.0</ele><time>2026-04-29T15:13:26.783Z</time></trkpt><trkpt lat="44.2277769" lon="9.7176834"><ele>121.25</ele><time>2026-04-29T15:13:27.784Z</time></trkpt><trkpt lat="44.2276829" lon="9.7177774"><ele>120.5</ele><time>2026-04-29T15:13:28.781Z</time></trkpt><trkpt lat="44.2275912" lon="9.7178814"><ele>119.75</ele><time>2026-04-29T15:13:29.782Z</time></trkpt><trkpt lat="44.227502" lon="9.7179956"><ele>119.0</ele><time>2026-04-29T15:13:30.782Z</time></trkpt><trkpt lat="44.2274167" lon="9.7181207"><ele>119.0</ele><time>2026-04-29T15:13:31.782Z</time></trkpt><trkpt lat="44.2273339" lon="9.7182517"><ele>119.0</ele><time>2026-04-29T15:13:32.783Z</time></trkpt><trkpt lat="44.2272514" lon="9.7183903"><ele>119.0</ele><time>2026-04-29T15:13:33.783Z</time></trkpt><trkpt lat="44.227167" lon="9.7185323"><ele>119.0</ele><time>2026-04-29T15:13:34.781Z</time></trkpt><trkpt lat="44.2270813" lon="9.7186782"><ele>118.0</ele><time>2026-04-29T15:13:35.783Z</time></trkpt><trkpt lat="44.2269935" lon="9.718828"><ele>117.0</ele><time>2026-04-29T15:13:36.783Z</time></trkpt><trkpt lat="44.2269014" lon="9.7189788"><ele>116.0</ele><time>2026-04-29T15:13:37.783Z</time></trkpt><trkpt lat="44.2267999" lon="9.7191313"><ele>115.0</ele><time>2026-04-29T15:13:38.782Z</time></trkpt><trkpt lat="44.226687" lon="9.7192888"><ele>114.66666666666667</ele><time>2026-04-29T15:13:39.784Z</time></trkpt><trkpt lat="44.2265612" lon="9.7194453"><ele>114.33333333333334</ele><time>2026-04-29T15:13:40.783Z</time></trkpt><trkpt lat="44.2264256" lon="9.7195945"><ele>114.0</ele><time>2026-04-29T15:13:41.782Z</time></trkpt><trkpt lat="44.2262939" lon="9.7197278"><ele>114.0</ele><time>2026-04-29T15:13:42.781Z</time></trkpt><trkpt lat="44.2261728" lon="9.7198485"><ele>114.0</ele><time>2026-04-29T15:13:43.782Z</time></trkpt><trkpt lat="44.2260578" lon="9.7199581"><ele>114.0</ele><time>2026-04-29T15:13:44.784Z</time></trkpt><trkpt lat="44.2259507" lon="9.7200604"><ele>114.0</ele><time>2026-04-29T15:13:45.782Z</time></trkpt><trkpt lat="44.2258516" lon="9.7201547"><ele>114.0</ele><time>2026-04-29T15:13:46.783Z</time></trkpt><trkpt lat="44.2257602" lon="9.720243"><ele>114.0</ele><time>2026-04-29T15:13:47.781Z</time></trkpt><trkpt lat="44.2256721" lon="9.7203272"><ele>114.0</ele><time>2026-04-29T15:13:48.781Z</time></trkpt><trkpt lat="44.2255835" lon="9.7204094"><ele>114.0</ele><time>2026-04-29T15:13:49.784Z</time></trkpt><trkpt lat="44.2254879" lon="9.720498"><ele>114.0</ele><time>2026-04-29T15:13:50.783Z</time></trkpt><trkpt lat="44.2253899" lon="9.7205901"><ele>114.0</ele><time>2026-04-29T15:13:51.781Z</time></trkpt><trkpt lat="44.2252942" lon="9.7206735"><ele>114.0</ele><time>2026-04-29T15:13:52.783Z</time></trkpt><trkpt lat="44.2252" lon="9.7207536"><ele>114.0</ele><time>2026-04-29T15:13:53.782Z</time></trkpt><trkpt lat="44.225106" lon="9.7208281"><ele>114.0</ele><time>2026-04-29T15:13:54.783Z</time></trkpt><trkpt lat="44.2250135" lon="9.7208991"><ele>114.0</ele><time>2026-04-29T15:13:55.782Z</time></trkpt><trkpt lat="44.2249221" lon="9.720967"><ele>114.0</ele><time>2026-04-29T15:13:56.781Z</time></trkpt><trkpt lat="44.2248325" lon="9.7210337"><ele>114.0</ele><time>2026-04-29T15:13:57.784Z</time></trkpt><trkpt lat="44.2247466" lon="9.7211019"><ele>114.0</ele><time>2026-04-29T15:13:58.781Z</time></trkpt><trkpt lat="44.2246678" lon="9.7211659"><ele>114.0</ele><time>2026-04-29T15:13:59.783Z</time></trkpt><trkpt lat="44.2245915" lon="9.7212227"><ele>114.0</ele><time>2026-04-29T15:14:00.784Z</time></trkpt><trkpt lat="44.2245105" lon="9.7212624"><ele>113.66666666666667</ele><time>2026-04-29T15:14:01.781Z</time></trkpt><trkpt lat="44.2244286" lon="9.7212828"><ele>113.33333333333334</ele><time>2026-04-29T15:14:02.781Z</time></trkpt><trkpt lat="44.2243463" lon="9.7212773"><ele>113.0</ele><time>2026-04-29T15:14:03.782Z</time></trkpt><trkpt lat="44.2242617" lon="9.7212471"><ele>112.66666666666667</ele><time>2026-04-29T15:14:04.783Z</time></trkpt><trkpt lat="44.2241774" lon="9.7211992"><ele>112.33333333333334</ele><time>2026-04-29T15:14:05.782Z</time></trkpt><trkpt lat="44.2240951" lon="9.7211316"><ele>112.0</ele><time>2026-04-29T15:14:06.783Z</time></trkpt><trkpt lat="44.2240211" lon="9.7210565"><ele>110.50000000000001</ele><time>2026-04-29T15:14:07.783Z</time></trkpt><trkpt lat="44.2239568" lon="9.720979"><ele>109.0</ele><time>2026-04-29T15:14:08.782Z</time></trkpt><trkpt lat="44.2239022" lon="9.7208984"><ele>107.5</ele><time>2026-04-29T15:14:09.783Z</time></trkpt><trkpt lat="44.2238574" lon="9.72082"><ele>106.0</ele><time>2026-04-29T15:14:10.783Z</time></trkpt><trkpt lat="44.2238168" lon="9.7207437"><ele>104.50000000000001</ele><time>2026-04-29T15:14:11.781Z</time></trkpt><trkpt lat="44.2237822" lon="9.7206689"><ele>103.0</ele><time>2026-04-29T15:14:12.782Z</time></trkpt><trkpt lat="44.2237281" lon="9.7205144"><ele>102.99999999999999</ele><time>2026-04-29T15:14:14.79Z</time></trkpt><trkpt lat="44.2237018" lon="9.7204182"><ele>103.0</ele><time>2026-04-29T15:14:15.784Z</time></trkpt><trkpt lat="44.223673" lon="9.7203265"><ele>103.0</ele><time>2026-04-29T15:14:16.782Z</time></trkpt><trkpt lat="44.2236385" lon="9.7202407"><ele>103.0</ele><time>2026-04-29T15:14:17.783Z</time></trkpt><trkpt lat="44.2235937" lon="9.720165"><ele>103.0</ele><time>2026-04-29T15:14:18.79Z</time></trkpt><trkpt lat="44.22353" lon="9.720114"><ele>102.99999999999999</ele><time>2026-04-29T15:14:19.782Z</time></trkpt><trkpt lat="44.2234615" lon="9.7200952"><ele>103.0</ele><time>2026-04-29T15:14:20.782Z</time></trkpt><trkpt lat="44.2233922" lon="9.7201035"><ele>103.33333333333334</ele><time>2026-04-29T15:14:21.783Z</time></trkpt><trkpt lat="44.2232897" lon="9.7201581"><ele>103.66666666666667</ele><time>2026-04-29T15:14:23.782Z</time></trkpt><trkpt lat="44.2232247" lon="9.7201951"><ele>104.0</ele><time>2026-04-29T15:14:25.783Z</time></trkpt><trkpt lat="44.2231436" lon="9.7202407"><ele>104.33333333333334</ele><time>2026-04-29T15:14:28.783Z</time></trkpt><trkpt lat="44.2230619" lon="9.7202931"><ele>104.66666666666667</ele><time>2026-04-29T15:14:31.782Z</time></trkpt><trkpt lat="44.2230005" lon="9.7203394"><ele>105.0</ele><time>2026-04-29T15:14:38.782Z</time></trkpt><trkpt lat="44.2229326" lon="9.7203887"><ele>105.0</ele><time>2026-04-29T15:14:41.781Z</time></trkpt><trkpt lat="44.2228615" lon="9.7204406"><ele>105.0</ele><time>2026-04-29T15:14:44.781Z</time></trkpt><trkpt lat="44.2227977" lon="9.7204726"><ele>105.0</ele><time>2026-04-29T15:14:47.782Z</time></trkpt><trkpt lat="44.2227181" lon="9.7205175"><ele>105.0</ele><time>2026-04-29T15:14:51.782Z</time></trkpt><trkpt lat="44.2226652" lon="9.7206476"><ele>105.0</ele><time>2026-04-29T15:14:53.781Z</time></trkpt><trkpt lat="44.2226561" lon="9.7207544"><ele>105.0</ele><time>2026-04-29T15:14:54.783Z</time></trkpt><trkpt lat="44.222658" lon="9.720877"><ele>105.0</ele><time>2026-04-29T15:14:55.783Z</time></trkpt><trkpt lat="44.2226701" lon="9.721014"><ele>105.0</ele><time>2026-04-29T15:14:56.781Z</time></trkpt><trkpt lat="44.2226877" lon="9.7211625"><ele>105.0</ele><time>2026-04-29T15:14:57.782Z</time></trkpt><trkpt lat="44.2227104" lon="9.7213218"><ele>105.0</ele><time>2026-04-29T15:14:58.781Z</time></trkpt><trkpt lat="44.2227371" lon="9.7214766"><ele>105.0</ele><time>2026-04-29T15:14:59.782Z</time></trkpt><trkpt lat="44.2227582" lon="9.7216212"><ele>105.6</ele><time>2026-04-29T15:15:00.782Z</time></trkpt><trkpt lat="44.2227788" lon="9.7217634"><ele>106.2</ele><time>2026-04-29T15:15:01.784Z</time></trkpt><trkpt lat="44.2228007" lon="9.7219053"><ele>106.80000000000001</ele><time>2026-04-29T15:15:02.789Z</time></trkpt><trkpt lat="44.2228253" lon="9.7220497"><ele>107.4</ele><time>2026-04-29T15:15:03.782Z</time></trkpt><trkpt lat="44.2228524" lon="9.7221991"><ele>108.0</ele><time>2026-04-29T15:15:04.781Z</time></trkpt><trkpt lat="44.2228775" lon="9.7223563"><ele>108.25</ele><time>2026-04-29T15:15:05.782Z</time></trkpt><trkpt lat="44.2229049" lon="9.7225256"><ele>108.5</ele><time>2026-04-29T15:15:06.782Z</time></trkpt><trkpt lat="44.2229369" lon="9.7226993"><ele>108.75</ele><time>2026-04-29T15:15:07.782Z</time></trkpt><trkpt lat="44.2229688" lon="9.7228765"><ele>109.0</ele><time>2026-04-29T15:15:08.782Z</time></trkpt><trkpt lat="44.2229973" lon="9.7230611"><ele>109.0</ele><time>2026-04-29T15:15:09.783Z</time></trkpt><trkpt lat="44.2230256" lon="9.7232532"><ele>109.0</ele><time>2026-04-29T15:15:10.782Z</time></trkpt><trkpt lat="44.2230433" lon="9.7234552"><ele>109.0</ele><time>2026-04-29T15:15:11.782Z</time></trkpt><trkpt lat="44.2230477" lon="9.7236642"><ele>109.0</ele><time>2026-04-29T15:15:12.782Z</time></trkpt><trkpt lat="44.2230438" lon="9.7238822"><ele>109.0</ele><time>2026-04-29T15:15:13.781Z</time></trkpt><trkpt lat="44.2230394" lon="9.7241123"><ele>109.0</ele><time>2026-04-29T15:15:14.783Z</time></trkpt><trkpt lat="44.2230289" lon="9.7243259"><ele>109.0</ele><time>2026-04-29T15:15:15.789Z</time></trkpt><trkpt lat="44.2229991" lon="9.7245158"><ele>108.5</ele><time>2026-04-29T15:15:16.783Z</time></trkpt><trkpt lat="44.2229437" lon="9.7246902"><ele>108.0</ele><time>2026-04-29T15:15:17.782Z</time></trkpt><trkpt lat="44.2228644" lon="9.7248561"><ele>107.5</ele><time>2026-04-29T15:15:18.782Z</time></trkpt><trkpt lat="44.2227718" lon="9.7250207"><ele>107.0</ele><time>2026-04-29T15:15:19.783Z</time></trkpt><trkpt lat="44.2226755" lon="9.7251835"><ele>105.75</ele><time>2026-04-29T15:15:20.783Z</time></trkpt><trkpt lat="44.2225837" lon="9.7253356"><ele>104.5</ele><time>2026-04-29T15:15:21.783Z</time></trkpt><trkpt lat="44.2225025" lon="9.7254714"><ele>103.25</ele><time>2026-04-29T15:15:22.783Z</time></trkpt><trkpt lat="44.2224304" lon="9.7255934"><ele>102.0</ele><time>2026-04-29T15:15:23.783Z</time></trkpt><trkpt lat="44.2223616" lon="9.7257088"><ele>102.5</ele><time>2026-04-29T15:15:24.781Z</time></trkpt><trkpt lat="44.2222958" lon="9.7258173"><ele>103.0</ele><time>2026-04-29T15:15:25.782Z</time></trkpt><trkpt lat="44.2222366" lon="9.7259168"><ele>103.5</ele><time>2026-04-29T15:15:26.785Z</time></trkpt><trkpt lat="44.2221821" lon="9.7260082"><ele>104.0</ele><time>2026-04-29T15:15:27.783Z</time></trkpt><trkpt lat="44.2221291" lon="9.7260956"><ele>104.5</ele><time>2026-04-29T15:15:28.783Z</time></trkpt><trkpt lat="44.2220746" lon="9.7261879"><ele>105.0</ele><time>2026-04-29T15:15:29.783Z</time></trkpt><trkpt lat="44.222016" lon="9.7262859"><ele>105.0</ele><time>2026-04-29T15:15:30.784Z</time></trkpt><trkpt lat="44.2219532" lon="9.7263904"><ele>105.0</ele><time>2026-04-29T15:15:31.781Z</time></trkpt><trkpt lat="44.2218876" lon="9.7265012"><ele>105.0</ele><time>2026-04-29T15:15:32.782Z</time></trkpt><trkpt lat="44.2218178" lon="9.7266163"><ele>105.0</ele><time>2026-04-29T15:15:33.784Z</time></trkpt><trkpt lat="44.2217444" lon="9.7267374"><ele>105.0</ele><time>2026-04-29T15:15:34.783Z</time></trkpt><trkpt lat="44.2216703" lon="9.7268645"><ele>105.4</ele><time>2026-04-29T15:15:35.782Z</time></trkpt><trkpt lat="44.221599" lon="9.7269881"><ele>105.8</ele><time>2026-04-29T15:15:36.782Z</time></trkpt><trkpt lat="44.2215292" lon="9.7271038"><ele>106.19999999999999</ele><time>2026-04-29T15:15:37.782Z</time></trkpt><trkpt lat="44.2214613" lon="9.727217"><ele>106.6</ele><time>2026-04-29T15:15:38.78Z</time></trkpt><trkpt lat="44.2213932" lon="9.7273312"><ele>107.0</ele><time>2026-04-29T15:15:39.782Z</time></trkpt><trkpt lat="44.2213231" lon="9.7274447"><ele>107.0</ele><time>2026-04-29T15:15:40.784Z</time></trkpt><trkpt lat="44.2212497" lon="9.7275669"><ele>107.0</ele><time>2026-04-29T15:15:41.783Z</time></trkpt><trkpt lat="44.2211725" lon="9.7276975"><ele>107.0</ele><time>2026-04-29T15:15:42.782Z</time></trkpt><trkpt lat="44.221093" lon="9.7278349"><ele>107.0</ele><time>2026-04-29T15:15:43.782Z</time></trkpt><trkpt lat="44.2210075" lon="9.727979"><ele>106.75</ele><time>2026-04-29T15:15:44.782Z</time></trkpt><trkpt lat="44.2209213" lon="9.7281303"><ele>106.5</ele><time>2026-04-29T15:15:45.784Z</time></trkpt><trkpt lat="44.2208344" lon="9.728282"><ele>106.25</ele><time>2026-04-29T15:15:46.782Z</time></trkpt><trkpt lat="44.2207459" lon="9.7284306"><ele>106.0</ele><time>2026-04-29T15:15:47.782Z</time></trkpt><trkpt lat="44.2206554" lon="9.7285791"><ele>107.25</ele><time>2026-04-29T15:15:48.782Z</time></trkpt><trkpt lat="44.2205627" lon="9.7287301"><ele>108.5</ele><time>2026-04-29T15:15:49.781Z</time></trkpt><trkpt lat="44.2204655" lon="9.7288862"><ele>109.75</ele><time>2026-04-29T15:15:50.783Z</time></trkpt><trkpt lat="44.2203658" lon="9.7290493"><ele>111.0</ele><time>2026-04-29T15:15:51.78Z</time></trkpt><trkpt lat="44.2202615" lon="9.7292253"><ele>108.66666666666666</ele><time>2026-04-29T15:15:52.781Z</time></trkpt><trkpt lat="44.2201541" lon="9.7294116"><ele>106.33333333333333</ele><time>2026-04-29T15:15:53.783Z</time></trkpt><trkpt lat="44.2200379" lon="9.7296042"><ele>104.0</ele><time>2026-04-29T15:15:54.781Z</time></trkpt><trkpt lat="44.2199239" lon="9.7297976"><ele>110.66666666666666</ele><time>2026-04-29T15:15:55.782Z</time></trkpt><trkpt lat="44.2198149" lon="9.7299812"><ele>117.33333333333334</ele><time>2026-04-29T15:15:56.781Z</time></trkpt><trkpt lat="44.2197149" lon="9.7301574"><ele>124.0</ele><time>2026-04-29T15:15:57.78Z</time></trkpt><trkpt lat="44.2196433" lon="9.7303391"><ele>124.0</ele><time>2026-04-29T15:15:58.782Z</time></trkpt><trkpt lat="44.2195978" lon="9.7305329"><ele>124.0</ele><time>2026-04-29T15:15:59.783Z</time></trkpt><trkpt lat="44.2195677" lon="9.7307289"><ele>124.0</ele><time>2026-04-29T15:16:00.782Z</time></trkpt><trkpt lat="44.2195499" lon="9.7309258"><ele>124.0</ele><time>2026-04-29T15:16:01.781Z</time></trkpt><trkpt lat="44.2195413" lon="9.731117"><ele>124.75</ele><time>2026-04-29T15:16:02.781Z</time></trkpt><trkpt lat="44.2195341" lon="9.731301"><ele>125.5</ele><time>2026-04-29T15:16:03.782Z</time></trkpt><trkpt lat="44.2195381" lon="9.7314766"><ele>126.25</ele><time>2026-04-29T15:16:04.781Z</time></trkpt><trkpt lat="44.2195528" lon="9.7316535"><ele>127.0</ele><time>2026-04-29T15:16:05.782Z</time></trkpt><trkpt lat="44.2195786" lon="9.7318326"><ele>127.75</ele><time>2026-04-29T15:16:06.783Z</time></trkpt><trkpt lat="44.2196078" lon="9.7320083"><ele>128.5</ele><time>2026-04-29T15:16:07.782Z</time></trkpt><trkpt lat="44.2196379" lon="9.7321769"><ele>129.25</ele><time>2026-04-29T15:16:08.782Z</time></trkpt><trkpt lat="44.2196752" lon="9.732335"><ele>130.0</ele><time>2026-04-29T15:16:09.782Z</time></trkpt><trkpt lat="44.2197038" lon="9.732487"><ele>130.0</ele><time>2026-04-29T15:16:10.78Z</time></trkpt><trkpt lat="44.2197299" lon="9.7326403"><ele>130.0</ele><time>2026-04-29T15:16:11.781Z</time></trkpt><trkpt lat="44.2197568" lon="9.732794"><ele>130.0</ele><time>2026-04-29T15:16:12.782Z</time></trkpt><trkpt lat="44.2197855" lon="9.7329556"><ele>130.0</ele><time>2026-04-29T15:16:13.783Z</time></trkpt><trkpt lat="44.2198168" lon="9.733122"><ele>127.25</ele><time>2026-04-29T15:16:14.79Z</time></trkpt><trkpt lat="44.2198591" lon="9.7332884"><ele>124.5</ele><time>2026-04-29T15:16:15.78Z</time></trkpt><trkpt lat="44.2199246" lon="9.7334459"><ele>121.75</ele><time>2026-04-29T15:16:16.782Z</time></trkpt><trkpt lat="44.2200058" lon="9.7335951"><ele>119.0</ele><time>2026-04-29T15:16:17.78Z</time></trkpt><trkpt lat="44.220095" lon="9.7337401"><ele>119.0</ele><time>2026-04-29T15:16:18.791Z</time></trkpt><trkpt lat="44.2201798" lon="9.7338762"><ele>119.0</ele><time>2026-04-29T15:16:19.783Z</time></trkpt><trkpt lat="44.220262" lon="9.7340133"><ele>119.0</ele><time>2026-04-29T15:16:20.782Z</time></trkpt><trkpt lat="44.2203432" lon="9.734155"><ele>119.0</ele><time>2026-04-29T15:16:21.781Z</time></trkpt><trkpt lat="44.2204194" lon="9.7342878"><ele>123.25</ele><time>2026-04-29T15:16:22.788Z</time></trkpt><trkpt lat="44.2204989" lon="9.7344181"><ele>127.5</ele><time>2026-04-29T15:16:23.781Z</time></trkpt><trkpt lat="44.2205758" lon="9.7345538"><ele>131.75</ele><time>2026-04-29T15:16:24.781Z</time></trkpt><trkpt lat="44.220648" lon="9.7346976"><ele>136.0</ele><time>2026-04-29T15:16:25.782Z</time></trkpt><trkpt lat="44.2207162" lon="9.7348519"><ele>129.25</ele><time>2026-04-29T15:16:26.788Z</time></trkpt><trkpt lat="44.2207784" lon="9.7350131"><ele>122.5</ele><time>2026-04-29T15:16:27.781Z</time></trkpt><trkpt lat="44.220835" lon="9.7351808"><ele>115.75</ele><time>2026-04-29T15:16:28.78Z</time></trkpt><trkpt lat="44.2208811" lon="9.7353611"><ele>109.0</ele><time>2026-04-29T15:16:29.781Z</time></trkpt><trkpt lat="44.2209176" lon="9.7355502"><ele>109.0</ele><time>2026-04-29T15:16:30.792Z</time></trkpt><trkpt lat="44.2209448" lon="9.7357302"><ele>109.0</ele><time>2026-04-29T15:16:31.781Z</time></trkpt><trkpt lat="44.2209553" lon="9.7359145"><ele>109.0</ele><time>2026-04-29T15:16:32.782Z</time></trkpt><trkpt lat="44.2209431" lon="9.7360998"><ele>109.0</ele><time>2026-04-29T15:16:33.781Z</time></trkpt><trkpt lat="44.220912" lon="9.736282"><ele>108.75</ele><time>2026-04-29T15:16:34.782Z</time></trkpt><trkpt lat="44.2208711" lon="9.7364633"><ele>108.5</ele><time>2026-04-29T15:16:35.781Z</time></trkpt><trkpt lat="44.2208393" lon="9.7366368"><ele>108.25</ele><time>2026-04-29T15:16:36.779Z</time></trkpt><trkpt lat="44.2208288" lon="9.7368216"><ele>108.0</ele><time>2026-04-29T15:16:37.781Z</time></trkpt><trkpt lat="44.2208327" lon="9.7370095"><ele>108.0</ele><time>2026-04-29T15:16:38.782Z</time></trkpt><trkpt lat="44.2208407" lon="9.7371917"><ele>108.0</ele><time>2026-04-29T15:16:39.781Z</time></trkpt><trkpt lat="44.2208496" lon="9.7373796"><ele>108.0</ele><time>2026-04-29T15:16:40.781Z</time></trkpt><trkpt lat="44.2208582" lon="9.7375727"><ele>108.0</ele><time>2026-04-29T15:16:41.781Z</time></trkpt><trkpt lat="44.2208675" lon="9.7377686"><ele>108.5</ele><time>2026-04-29T15:16:42.783Z</time></trkpt><trkpt lat="44.2208766" lon="9.7379655"><ele>109.0</ele><time>2026-04-29T15:16:43.781Z</time></trkpt><trkpt lat="44.2208865" lon="9.7381487"><ele>109.5</ele><time>2026-04-29T15:16:44.781Z</time></trkpt><trkpt lat="44.2208965" lon="9.7383251"><ele>110.0</ele><time>2026-04-29T15:16:45.781Z</time></trkpt><trkpt lat="44.2209036" lon="9.7384919"><ele>110.25</ele><time>2026-04-29T15:16:46.781Z</time></trkpt><trkpt lat="44.2209109" lon="9.7386643"><ele>110.5</ele><time>2026-04-29T15:16:47.781Z</time></trkpt><trkpt lat="44.2209194" lon="9.7388378"><ele>110.75</ele><time>2026-04-29T15:16:48.784Z</time></trkpt><trkpt lat="44.2209254" lon="9.7390114"><ele>111.0</ele><time>2026-04-29T15:16:49.78Z</time></trkpt><trkpt lat="44.2209329" lon="9.7391921"><ele>111.0</ele><time>2026-04-29T15:16:50.781Z</time></trkpt><trkpt lat="44.220945" lon="9.7393766"><ele>111.0</ele><time>2026-04-29T15:16:51.782Z</time></trkpt><trkpt lat="44.2209581" lon="9.7395611"><ele>111.0</ele><time>2026-04-29T15:16:52.782Z</time></trkpt><trkpt lat="44.2209748" lon="9.7397358"><ele>111.0</ele><time>2026-04-29T15:16:53.781Z</time></trkpt><trkpt lat="44.2209975" lon="9.7399011"><ele>111.75</ele><time>2026-04-29T15:16:54.787Z</time></trkpt><trkpt lat="44.2210278" lon="9.7400651"><ele>112.5</ele><time>2026-04-29T15:16:55.782Z</time></trkpt><trkpt lat="44.2210677" lon="9.7402332"><ele>113.25</ele><time>2026-04-29T15:16:56.782Z</time></trkpt><trkpt lat="44.221112" lon="9.7404017"><ele>114.0</ele><time>2026-04-29T15:16:57.783Z</time></trkpt><trkpt lat="44.2211702" lon="9.740561"><ele>116.25</ele><time>2026-04-29T15:16:58.788Z</time></trkpt><trkpt lat="44.2212338" lon="9.7407067"><ele>118.5</ele><time>2026-04-29T15:16:59.781Z</time></trkpt><trkpt lat="44.2212938" lon="9.7408581"><ele>120.75</ele><time>2026-04-29T15:17:00.779Z</time></trkpt><trkpt lat="44.2213395" lon="9.7410229"><ele>123.0</ele><time>2026-04-29T15:17:01.782Z</time></trkpt><trkpt lat="44.2213762" lon="9.7411958"><ele>125.0</ele><time>2026-04-29T15:17:02.787Z</time></trkpt><trkpt lat="44.2214095" lon="9.7413785"><ele>127.0</ele><time>2026-04-29T15:17:03.783Z</time></trkpt><trkpt lat="44.221443" lon="9.7415693"><ele>129.0</ele><time>2026-04-29T15:17:04.781Z</time></trkpt><trkpt lat="44.2214794" lon="9.7417679"><ele>131.0</ele><time>2026-04-29T15:17:05.781Z</time></trkpt><trkpt lat="44.2215189" lon="9.7419709"><ele>125.75</ele><time>2026-04-29T15:17:06.78Z</time></trkpt><trkpt lat="44.2215592" lon="9.7421758"><ele>120.5</ele><time>2026-04-29T15:17:07.78Z</time></trkpt><trkpt lat="44.221598" lon="9.7423734"><ele>115.25</ele><time>2026-04-29T15:17:08.782Z</time></trkpt><trkpt lat="44.2216382" lon="9.7425678"><ele>110.0</ele><time>2026-04-29T15:17:09.783Z</time></trkpt><trkpt lat="44.2216799" lon="9.7427541"><ele>110.0</ele><time>2026-04-29T15:17:10.789Z</time></trkpt><trkpt lat="44.2217171" lon="9.7429351"><ele>110.0</ele><time>2026-04-29T15:17:11.781Z</time></trkpt><trkpt lat="44.2217527" lon="9.7431074"><ele>110.0</ele><time>2026-04-29T15:17:12.78Z</time></trkpt><trkpt lat="44.221784" lon="9.7432737"><ele>110.0</ele><time>2026-04-29T15:17:13.781Z</time></trkpt><trkpt lat="44.2218192" lon="9.7434355"><ele>115.0</ele><time>2026-04-29T15:17:14.79Z</time></trkpt><trkpt lat="44.2218513" lon="9.7435919"><ele>120.0</ele><time>2026-04-29T15:17:15.782Z</time></trkpt><trkpt lat="44.2218823" lon="9.743747"><ele>125.0</ele><time>2026-04-29T15:17:16.782Z</time></trkpt><trkpt lat="44.2219142" lon="9.7439038"><ele>130.0</ele><time>2026-04-29T15:17:17.782Z</time></trkpt><trkpt lat="44.2219486" lon="9.7440649"><ele>130.0</ele><time>2026-04-29T15:17:18.78Z</time></trkpt><trkpt lat="44.2219877" lon="9.7442275"><ele>130.0</ele><time>2026-04-29T15:17:19.78Z</time></trkpt><trkpt lat="44.2220341" lon="9.7443946"><ele>130.0</ele><time>2026-04-29T15:17:20.781Z</time></trkpt><trkpt lat="44.2220885" lon="9.7445611"><ele>130.0</ele><time>2026-04-29T15:17:21.782Z</time></trkpt><trkpt lat="44.2221572" lon="9.7447128"><ele>134.0</ele><time>2026-04-29T15:17:22.782Z</time></trkpt><trkpt lat="44.2222319" lon="9.7448461"><ele>138.0</ele><time>2026-04-29T15:17:23.781Z</time></trkpt><trkpt lat="44.2223249" lon="9.7449654"><ele>142.0</ele><time>2026-04-29T15:17:24.78Z</time></trkpt><trkpt lat="44.2224227" lon="9.7450698"><ele>146.0</ele><time>2026-04-29T15:17:25.779Z</time></trkpt><trkpt lat="44.2225157" lon="9.7451803"><ele>137.5</ele><time>2026-04-29T15:17:26.788Z</time></trkpt><trkpt lat="44.2225982" lon="9.7453144"><ele>129.0</ele><time>2026-04-29T15:17:27.78Z</time></trkpt><trkpt lat="44.2226611" lon="9.7454757"><ele>120.5</ele><time>2026-04-29T15:17:28.78Z</time></trkpt><trkpt lat="44.2227034" lon="9.7456526"><ele>112.0</ele><time>2026-04-29T15:17:29.782Z</time></trkpt><trkpt lat="44.2227153" lon="9.7458418"><ele>112.0</ele><time>2026-04-29T15:17:30.789Z</time></trkpt><trkpt lat="44.2227072" lon="9.7460382"><ele>112.0</ele><time>2026-04-29T15:17:31.781Z</time></trkpt><trkpt lat="44.2226796" lon="9.7462359"><ele>112.0</ele><time>2026-04-29T15:17:32.78Z</time></trkpt><trkpt lat="44.2226463" lon="9.7464356"><ele>112.0</ele><time>2026-04-29T15:17:33.781Z</time></trkpt><trkpt lat="44.2226108" lon="9.7466323"><ele>112.25</ele><time>2026-04-29T15:17:34.781Z</time></trkpt><trkpt lat="44.2225775" lon="9.7468324"><ele>112.5</ele><time>2026-04-29T15:17:35.783Z</time></trkpt><trkpt lat="44.2225511" lon="9.7470222"><ele>112.75</ele><time>2026-04-29T15:17:36.781Z</time></trkpt><trkpt lat="44.2225281" lon="9.7472033"><ele>113.0</ele><time>2026-04-29T15:17:37.78Z</time></trkpt><trkpt lat="44.2225138" lon="9.7473825"><ele>113.25</ele><time>2026-04-29T15:17:38.781Z</time></trkpt><trkpt lat="44.2225138" lon="9.747565"><ele>113.5</ele><time>2026-04-29T15:17:39.78Z</time></trkpt><trkpt lat="44.2225291" lon="9.7477491"><ele>113.75</ele><time>2026-04-29T15:17:40.781Z</time></trkpt><trkpt lat="44.2225568" lon="9.7479299"><ele>114.0</ele><time>2026-04-29T15:17:41.779Z</time></trkpt><trkpt lat="44.2225961" lon="9.7481129"><ele>114.0</ele><time>2026-04-29T15:17:42.788Z</time></trkpt><trkpt lat="44.2226459" lon="9.7483004"><ele>114.0</ele><time>2026-04-29T15:17:43.782Z</time></trkpt><trkpt lat="44.2226968" lon="9.7484924"><ele>114.0</ele><time>2026-04-29T15:17:44.782Z</time></trkpt><trkpt lat="44.2227474" lon="9.7486881"><ele>114.0</ele><time>2026-04-29T15:17:45.782Z</time></trkpt><trkpt lat="44.2227956" lon="9.7488721"><ele>118.0</ele><time>2026-04-29T15:17:46.788Z</time></trkpt><trkpt lat="44.2228388" lon="9.7490455"><ele>122.0</ele><time>2026-04-29T15:17:47.782Z</time></trkpt><trkpt lat="44.222885" lon="9.7492094"><ele>126.0</ele><time>2026-04-29T15:17:48.781Z</time></trkpt><trkpt lat="44.2229364" lon="9.749368"><ele>130.0</ele><time>2026-04-29T15:17:49.781Z</time></trkpt><trkpt lat="44.2230003" lon="9.7495184"><ele>135.25</ele><time>2026-04-29T15:17:50.782Z</time></trkpt><trkpt lat="44.2230727" lon="9.7496575"><ele>140.5</ele><time>2026-04-29T15:17:51.781Z</time></trkpt><trkpt lat="44.2231479" lon="9.7497912"><ele>145.75</ele><time>2026-04-29T15:17:52.782Z</time></trkpt><trkpt lat="44.2232202" lon="9.7499203"><ele>151.0</ele><time>2026-04-29T15:17:53.781Z</time></trkpt><trkpt lat="44.2232912" lon="9.7500455"><ele>144.0</ele><time>2026-04-29T15:17:54.782Z</time></trkpt><trkpt lat="44.2233585" lon="9.7501613"><ele>137.0</ele><time>2026-04-29T15:17:55.782Z</time></trkpt><trkpt lat="44.2234232" lon="9.750273"><ele>130.0</ele><time>2026-04-29T15:17:56.782Z</time></trkpt><trkpt lat="44.2234871" lon="9.7503793"><ele>123.0</ele><time>2026-04-29T15:17:57.781Z</time></trkpt><trkpt lat="44.2235519" lon="9.7504873"><ele>116.0</ele><time>2026-04-29T15:17:58.781Z</time></trkpt><trkpt lat="44.2236094" lon="9.7506009"><ele>116.0</ele><time>2026-04-29T15:17:59.782Z</time></trkpt><trkpt lat="44.2236567" lon="9.75073"><ele>116.0</ele><time>2026-04-29T15:18:00.781Z</time></trkpt><trkpt lat="44.2236829" lon="9.7508759"><ele>116.0</ele><time>2026-04-29T15:18:01.783Z</time></trkpt><trkpt lat="44.2236913" lon="9.7510368"><ele>116.0</ele><time>2026-04-29T15:18:02.781Z</time></trkpt><trkpt lat="44.2236745" lon="9.7511993"><ele>116.0</ele><time>2026-04-29T15:18:03.781Z</time></trkpt><trkpt lat="44.2236324" lon="9.7513555"><ele>113.25</ele><time>2026-04-29T15:18:04.781Z</time></trkpt><trkpt lat="44.2235708" lon="9.7514971"><ele>110.5</ele><time>2026-04-29T15:18:05.779Z</time></trkpt><trkpt lat="44.2234872" lon="9.7516251"><ele>107.75</ele><time>2026-04-29T15:18:06.782Z</time></trkpt><trkpt lat="44.2233961" lon="9.7517532"><ele>105.0</ele><time>2026-04-29T15:18:07.781Z</time></trkpt><trkpt lat="44.2233056" lon="9.7518885"><ele>101.5</ele><time>2026-04-29T15:18:08.781Z</time></trkpt><trkpt lat="44.223212" lon="9.7520292"><ele>98.0</ele><time>2026-04-29T15:18:09.78Z</time></trkpt><trkpt lat="44.2231192" lon="9.7521759"><ele>94.5</ele><time>2026-04-29T15:18:10.78Z</time></trkpt><trkpt lat="44.2230282" lon="9.7523296"><ele>91.0</ele><time>2026-04-29T15:18:11.78Z</time></trkpt><trkpt lat="44.2229334" lon="9.7524795"><ele>94.5</ele><time>2026-04-29T15:18:12.781Z</time></trkpt><trkpt lat="44.2228401" lon="9.7526391"><ele>98.0</ele><time>2026-04-29T15:18:13.779Z</time></trkpt><trkpt lat="44.2227523" lon="9.7527949"><ele>101.5</ele><time>2026-04-29T15:18:14.783Z</time></trkpt><trkpt lat="44.2226729" lon="9.7529469"><ele>105.0</ele><time>2026-04-29T15:18:15.782Z</time></trkpt><trkpt lat="44.2225895" lon="9.753089"><ele>105.0</ele><time>2026-04-29T15:18:16.781Z</time></trkpt><trkpt lat="44.2225057" lon="9.7532263"><ele>105.0</ele><time>2026-04-29T15:18:17.781Z</time></trkpt><trkpt lat="44.2224248" lon="9.7533648"><ele>105.0</ele><time>2026-04-29T15:18:18.781Z</time></trkpt><trkpt lat="44.2223473" lon="9.7534966"><ele>105.0</ele><time>2026-04-29T15:18:19.78Z</time></trkpt><trkpt lat="44.2222752" lon="9.7536224"><ele>101.25</ele><time>2026-04-29T15:18:20.782Z</time></trkpt><trkpt lat="44.2221924" lon="9.7537318"><ele>97.5</ele><time>2026-04-29T15:18:21.781Z</time></trkpt><trkpt lat="44.2220965" lon="9.7538274"><ele>93.75</ele><time>2026-04-29T15:18:22.781Z</time></trkpt><trkpt lat="44.2219899" lon="9.753907"><ele>90.0</ele><time>2026-04-29T15:18:23.781Z</time></trkpt><trkpt lat="44.2218749" lon="9.753974"><ele>90.0</ele><time>2026-04-29T15:18:24.781Z</time></trkpt><trkpt lat="44.2217642" lon="9.7540206"><ele>90.0</ele><time>2026-04-29T15:18:25.782Z</time></trkpt><trkpt lat="44.2216473" lon="9.754058"><ele>90.0</ele><time>2026-04-29T15:18:26.782Z</time></trkpt><trkpt lat="44.2215302" lon="9.7540916"><ele>90.0</ele><time>2026-04-29T15:18:27.782Z</time></trkpt><trkpt lat="44.2214192" lon="9.7541158"><ele>88.25</ele><time>2026-04-29T15:18:28.78Z</time></trkpt><trkpt lat="44.2213075" lon="9.7541175"><ele>86.5</ele><time>2026-04-29T15:18:29.779Z</time></trkpt><trkpt lat="44.2211969" lon="9.754082"><ele>84.75</ele><time>2026-04-29T15:18:30.78Z</time></trkpt><trkpt lat="44.2210917" lon="9.7540144"><ele>83.0</ele><time>2026-04-29T15:18:31.78Z</time></trkpt><trkpt lat="44.2209885" lon="9.7539335"><ele>83.0</ele><time>2026-04-29T15:18:32.781Z</time></trkpt><trkpt lat="44.2208887" lon="9.7538453"><ele>83.0</ele><time>2026-04-29T15:18:33.783Z</time></trkpt><trkpt lat="44.2207923" lon="9.7537477"><ele>83.0</ele><time>2026-04-29T15:18:34.78Z</time></trkpt><trkpt lat="44.2206965" lon="9.7536454"><ele>83.0</ele><time>2026-04-29T15:18:35.781Z</time></trkpt><trkpt lat="44.2205994" lon="9.7535375"><ele>84.0</ele><time>2026-04-29T15:18:36.782Z</time></trkpt><trkpt lat="44.2204995" lon="9.7534282"><ele>85.0</ele><time>2026-04-29T15:18:37.781Z</time></trkpt><trkpt lat="44.2203958" lon="9.7533204"><ele>86.0</ele><time>2026-04-29T15:18:38.78Z</time></trkpt><trkpt lat="44.2202979" lon="9.753214"><ele>87.0</ele><time>2026-04-29T15:18:39.78Z</time></trkpt><trkpt lat="44.2202037" lon="9.7531102"><ele>87.0</ele><time>2026-04-29T15:18:40.782Z</time></trkpt><trkpt lat="44.2201083" lon="9.7530022"><ele>87.0</ele><time>2026-04-29T15:18:41.781Z</time></trkpt><trkpt lat="44.2200098" lon="9.7528949"><ele>87.0</ele><time>2026-04-29T15:18:42.78Z</time></trkpt><trkpt lat="44.2199127" lon="9.7527877"><ele>87.0</ele><time>2026-04-29T15:18:43.78Z</time></trkpt><trkpt lat="44.2198204" lon="9.7526852"><ele>88.0</ele><time>2026-04-29T15:18:44.781Z</time></trkpt><trkpt lat="44.2197279" lon="9.7525829"><ele>89.0</ele><time>2026-04-29T15:18:45.783Z</time></trkpt><trkpt lat="44.2196311" lon="9.7524903"><ele>90.0</ele><time>2026-04-29T15:18:46.781Z</time></trkpt><trkpt lat="44.2195273" lon="9.7524236"><ele>91.0</ele><time>2026-04-29T15:18:47.78Z</time></trkpt><trkpt lat="44.219419" lon="9.7523963"><ele>91.0</ele><time>2026-04-29T15:18:48.78Z</time></trkpt><trkpt lat="44.2193081" lon="9.7524071"><ele>91.0</ele><time>2026-04-29T15:18:49.78Z</time></trkpt><trkpt lat="44.2191957" lon="9.7524391"><ele>91.0</ele><time>2026-04-29T15:18:50.781Z</time></trkpt><trkpt lat="44.2190809" lon="9.7524745"><ele>91.0</ele><time>2026-04-29T15:18:51.782Z</time></trkpt><trkpt lat="44.2189641" lon="9.752508"><ele>91.6</ele><time>2026-04-29T15:18:52.78Z</time></trkpt><trkpt lat="44.2188486" lon="9.7525395"><ele>92.19999999999999</ele><time>2026-04-29T15:18:53.781Z</time></trkpt><trkpt lat="44.218743" lon="9.7525656"><ele>92.80000000000001</ele><time>2026-04-29T15:18:54.781Z</time></trkpt><trkpt lat="44.2186388" lon="9.7525872"><ele>93.4</ele><time>2026-04-29T15:18:55.78Z</time></trkpt><trkpt lat="44.2185297" lon="9.7525956"><ele>94.0</ele><time>2026-04-29T15:18:56.779Z</time></trkpt><trkpt lat="44.2184168" lon="9.7525815"><ele>94.0</ele><time>2026-04-29T15:18:57.781Z</time></trkpt><trkpt lat="44.2183017" lon="9.7525428"><ele>94.0</ele><time>2026-04-29T15:18:58.782Z</time></trkpt><trkpt lat="44.218167" lon="9.7524815"><ele>94.0</ele><time>2026-04-29T15:18:59.782Z</time></trkpt><trkpt lat="44.2180148" lon="9.7524123"><ele>94.0</ele><time>2026-04-29T15:19:00.781Z</time></trkpt><trkpt lat="44.2178726" lon="9.7523506"><ele>93.25</ele><time>2026-04-29T15:19:01.781Z</time></trkpt><trkpt lat="44.2177362" lon="9.7522952"><ele>92.5</ele><time>2026-04-29T15:19:02.781Z</time></trkpt><trkpt lat="44.2176103" lon="9.7522498"><ele>91.75</ele><time>2026-04-29T15:19:03.781Z</time></trkpt><trkpt lat="44.2174845" lon="9.7522219"><ele>91.0</ele><time>2026-04-29T15:19:04.781Z</time></trkpt><trkpt lat="44.2173569" lon="9.7522096"><ele>92.75</ele><time>2026-04-29T15:19:05.783Z</time></trkpt><trkpt lat="44.2172367" lon="9.7522055"><ele>94.5</ele><time>2026-04-29T15:19:06.782Z</time></trkpt><trkpt lat="44.2171137" lon="9.7522033"><ele>96.25</ele><time>2026-04-29T15:19:07.782Z</time></trkpt><trkpt lat="44.2169898" lon="9.7521965"><ele>98.0</ele><time>2026-04-29T15:19:08.781Z</time></trkpt><trkpt lat="44.2168627" lon="9.7522026"><ele>98.0</ele><time>2026-04-29T15:19:09.781Z</time></trkpt><trkpt lat="44.2167344" lon="9.7522281"><ele>98.0</ele><time>2026-04-29T15:19:10.78Z</time></trkpt><trkpt lat="44.2166089" lon="9.7522792"><ele>98.0</ele><time>2026-04-29T15:19:11.782Z</time></trkpt><trkpt lat="44.2164882" lon="9.7523533"><ele>98.0</ele><time>2026-04-29T15:19:12.782Z</time></trkpt><trkpt lat="44.2163705" lon="9.7524275"><ele>101.75</ele><time>2026-04-29T15:19:13.78Z</time></trkpt><trkpt lat="44.2162576" lon="9.752503"><ele>105.5</ele><time>2026-04-29T15:19:14.781Z</time></trkpt><trkpt lat="44.2161429" lon="9.7525778"><ele>109.25</ele><time>2026-04-29T15:19:15.78Z</time></trkpt><trkpt lat="44.2160274" lon="9.75265"><ele>113.0</ele><time>2026-04-29T15:19:16.779Z</time></trkpt><trkpt lat="44.2159105" lon="9.7527177"><ele>105.5</ele><time>2026-04-29T15:19:17.78Z</time></trkpt><trkpt lat="44.215791" lon="9.7527647"><ele>98.0</ele><time>2026-04-29T15:19:18.783Z</time></trkpt><trkpt lat="44.215672" lon="9.7527903"><ele>90.5</ele><time>2026-04-29T15:19:19.782Z</time></trkpt><trkpt lat="44.2155506" lon="9.7527894"><ele>83.0</ele><time>2026-04-29T15:19:20.781Z</time></trkpt><trkpt lat="44.2154301" lon="9.7527727"><ele>83.0</ele><time>2026-04-29T15:19:21.78Z</time></trkpt><trkpt lat="44.2153075" lon="9.7527625"><ele>83.0</ele><time>2026-04-29T15:19:22.781Z</time></trkpt><trkpt lat="44.2151871" lon="9.7527725"><ele>83.0</ele><time>2026-04-29T15:19:23.781Z</time></trkpt><trkpt lat="44.2150632" lon="9.7528048"><ele>83.0</ele><time>2026-04-29T15:19:24.781Z</time></trkpt><trkpt lat="44.214938" lon="9.7528611"><ele>86.75</ele><time>2026-04-29T15:19:25.784Z</time></trkpt><trkpt lat="44.2148094" lon="9.7529218"><ele>90.5</ele><time>2026-04-29T15:19:26.782Z</time></trkpt><trkpt lat="44.2146875" lon="9.7529812"><ele>94.25</ele><time>2026-04-29T15:19:27.781Z</time></trkpt><trkpt lat="44.214571" lon="9.7530351"><ele>98.0</ele><time>2026-04-29T15:19:28.781Z</time></trkpt><trkpt lat="44.214459" lon="9.7530892"><ele>98.0</ele><time>2026-04-29T15:19:29.779Z</time></trkpt><trkpt lat="44.2143458" lon="9.7531449"><ele>98.0</ele><time>2026-04-29T15:19:30.783Z</time></trkpt><trkpt lat="44.2142317" lon="9.7532009"><ele>98.0</ele><time>2026-04-29T15:19:31.782Z</time></trkpt><trkpt lat="44.2141169" lon="9.7532571"><ele>98.0</ele><time>2026-04-29T15:19:32.78Z</time></trkpt><trkpt lat="44.2140022" lon="9.7533124"><ele>100.5</ele><time>2026-04-29T15:19:33.78Z</time></trkpt><trkpt lat="44.2138922" lon="9.7533698"><ele>103.0</ele><time>2026-04-29T15:19:34.779Z</time></trkpt><trkpt lat="44.2137856" lon="9.7534231"><ele>105.5</ele><time>2026-04-29T15:19:35.78Z</time></trkpt><trkpt lat="44.2136804" lon="9.7534748"><ele>108.0</ele><time>2026-04-29T15:19:36.781Z</time></trkpt><trkpt lat="44.2135727" lon="9.753527"><ele>102.25</ele><time>2026-04-29T15:19:37.784Z</time></trkpt><trkpt lat="44.2134663" lon="9.7535785"><ele>96.5</ele><time>2026-04-29T15:19:38.782Z</time></trkpt><trkpt lat="44.2133661" lon="9.7536362"><ele>90.75</ele><time>2026-04-29T15:19:39.781Z</time></trkpt><trkpt lat="44.2132689" lon="9.7537159"><ele>85.0</ele><time>2026-04-29T15:19:40.781Z</time></trkpt><trkpt lat="44.2131776" lon="9.7538211"><ele>93.5</ele><time>2026-04-29T15:19:41.781Z</time></trkpt><trkpt lat="44.213099" lon="9.7539577"><ele>102.0</ele><time>2026-04-29T15:19:42.783Z</time></trkpt><trkpt lat="44.2130352" lon="9.7541117"><ele>110.5</ele><time>2026-04-29T15:19:43.781Z</time></trkpt><trkpt lat="44.2129944" lon="9.7542807"><ele>119.0</ele><time>2026-04-29T15:19:44.782Z</time></trkpt><trkpt lat="44.2129713" lon="9.7544674"><ele>124.5</ele><time>2026-04-29T15:19:45.782Z</time></trkpt><trkpt lat="44.2129651" lon="9.7546628"><ele>130.0</ele><time>2026-04-29T15:19:46.779Z</time></trkpt><trkpt lat="44.2129624" lon="9.7548623"><ele>135.5</ele><time>2026-04-29T15:19:47.781Z</time></trkpt><trkpt lat="44.2129551" lon="9.7550489"><ele>141.0</ele><time>2026-04-29T15:19:48.782Z</time></trkpt><trkpt lat="44.2129479" lon="9.7552371"><ele>143.0</ele><time>2026-04-29T15:19:49.78Z</time></trkpt><trkpt lat="44.2129396" lon="9.7554133"><ele>145.0</ele><time>2026-04-29T15:19:50.782Z</time></trkpt><trkpt lat="44.2129351" lon="9.7555847"><ele>147.0</ele><time>2026-04-29T15:19:51.781Z</time></trkpt><trkpt lat="44.212937" lon="9.7557576"><ele>149.0</ele><time>2026-04-29T15:19:52.781Z</time></trkpt><trkpt lat="44.2129474" lon="9.7559296"><ele>151.75</ele><time>2026-04-29T15:19:53.781Z</time></trkpt><trkpt lat="44.2129679" lon="9.7560988"><ele>154.5</ele><time>2026-04-29T15:19:54.78Z</time></trkpt><trkpt lat="44.2129889" lon="9.7562705"><ele>157.25</ele><time>2026-04-29T15:19:55.785Z</time></trkpt><trkpt lat="44.2130101" lon="9.7564362"><ele>160.0</ele><time>2026-04-29T15:19:56.782Z</time></trkpt><trkpt lat="44.2130371" lon="9.7565897"><ele>160.0</ele><time>2026-04-29T15:19:57.781Z</time></trkpt><trkpt lat="44.213069" lon="9.7567405"><ele>160.0</ele><time>2026-04-29T15:19:58.781Z</time></trkpt><trkpt lat="44.2131065" lon="9.7568877"><ele>160.0</ele><time>2026-04-29T15:19:59.781Z</time></trkpt><trkpt lat="44.2131472" lon="9.7570329"><ele>160.0</ele><time>2026-04-29T15:20:00.78Z</time></trkpt><trkpt lat="44.213189" lon="9.7571777"><ele>160.0</ele><time>2026-04-29T15:20:01.78Z</time></trkpt><trkpt lat="44.2132267" lon="9.7573214"><ele>147.6</ele><time>2026-04-29T15:20:02.78Z</time></trkpt><trkpt lat="44.2132626" lon="9.7574574"><ele>135.2</ele><time>2026-04-29T15:20:03.781Z</time></trkpt><trkpt lat="44.2132922" lon="9.7575905"><ele>122.80000000000001</ele><time>2026-04-29T15:20:04.781Z</time></trkpt><trkpt lat="44.2133069" lon="9.7577306"><ele>110.4</ele><time>2026-04-29T15:20:05.78Z</time></trkpt><trkpt lat="44.2133106" lon="9.757875"><ele>98.0</ele><time>2026-04-29T15:20:06.78Z</time></trkpt><trkpt lat="44.213304" lon="9.758032"><ele>98.0</ele><time>2026-04-29T15:20:07.782Z</time></trkpt><trkpt lat="44.213294" lon="9.7581964"><ele>98.0</ele><time>2026-04-29T15:20:08.782Z</time></trkpt><trkpt lat="44.2132833" lon="9.7583699"><ele>98.0</ele><time>2026-04-29T15:20:09.782Z</time></trkpt><trkpt lat="44.2132757" lon="9.7585542"><ele>98.0</ele><time>2026-04-29T15:20:10.781Z</time></trkpt><trkpt lat="44.2132668" lon="9.7587457"><ele>97.5</ele><time>2026-04-29T15:20:11.779Z</time></trkpt><trkpt lat="44.2132572" lon="9.7589351"><ele>97.0</ele><time>2026-04-29T15:20:12.781Z</time></trkpt><trkpt lat="44.213245" lon="9.7591224"><ele>96.5</ele><time>2026-04-29T15:20:13.78Z</time></trkpt><trkpt lat="44.213235" lon="9.7593174"><ele>96.0</ele><time>2026-04-29T15:20:14.781Z</time></trkpt><trkpt lat="44.2132224" lon="9.7595046"><ele>95.5</ele><time>2026-04-29T15:20:15.782Z</time></trkpt><trkpt lat="44.2132119" lon="9.7596829"><ele>95.0</ele><time>2026-04-29T15:20:16.782Z</time></trkpt><trkpt lat="44.2132024" lon="9.7598574"><ele>94.5</ele><time>2026-04-29T15:20:17.781Z</time></trkpt><trkpt lat="44.2131858" lon="9.7600437"><ele>94.0</ele><time>2026-04-29T15:20:18.781Z</time></trkpt><trkpt lat="44.2131568" lon="9.7602391"><ele>105.0</ele><time>2026-04-29T15:20:19.78Z</time></trkpt><trkpt lat="44.2131161" lon="9.7604463"><ele>116.0</ele><time>2026-04-29T15:20:20.78Z</time></trkpt><trkpt lat="44.2130655" lon="9.7606503"><ele>127.0</ele><time>2026-04-29T15:20:21.785Z</time></trkpt><trkpt lat="44.2130089" lon="9.7608647"><ele>121.0</ele><time>2026-04-29T15:20:22.781Z</time></trkpt><trkpt lat="44.2129399" lon="9.7610714"><ele>115.0</ele><time>2026-04-29T15:20:23.781Z</time></trkpt><trkpt lat="44.2128723" lon="9.7612647"><ele>109.0</ele><time>2026-04-29T15:20:24.781Z</time></trkpt><trkpt lat="44.2128121" lon="9.76145"><ele>109.0</ele><time>2026-04-29T15:20:25.781Z</time></trkpt><trkpt lat="44.212747" lon="9.7616281"><ele>109.0</ele><time>2026-04-29T15:20:26.783Z</time></trkpt><trkpt lat="44.2126754" lon="9.7617961"><ele>109.0</ele><time>2026-04-29T15:20:27.782Z</time></trkpt><trkpt lat="44.212592" lon="9.7619495"><ele>109.0</ele><time>2026-04-29T15:20:28.781Z</time></trkpt><trkpt lat="44.2124975" lon="9.7620864"><ele>110.0</ele><time>2026-04-29T15:20:29.78Z</time></trkpt><trkpt lat="44.2123991" lon="9.7622056"><ele>111.0</ele><time>2026-04-29T15:20:30.781Z</time></trkpt><trkpt lat="44.2123002" lon="9.7623127"><ele>112.0</ele><time>2026-04-29T15:20:31.78Z</time></trkpt><trkpt lat="44.2122071" lon="9.7624112"><ele>113.0</ele><time>2026-04-29T15:20:32.781Z</time></trkpt><trkpt lat="44.2121163" lon="9.7625148"><ele>113.0</ele><time>2026-04-29T15:20:33.78Z</time></trkpt><trkpt lat="44.2120303" lon="9.7626322"><ele>113.0</ele><time>2026-04-29T15:20:34.783Z</time></trkpt><trkpt lat="44.211953" lon="9.7627636"><ele>113.0</ele><time>2026-04-29T15:20:35.783Z</time></trkpt><trkpt lat="44.2118832" lon="9.7628994"><ele>113.0</ele><time>2026-04-29T15:20:36.781Z</time></trkpt><trkpt lat="44.2118248" lon="9.7630284"><ele>109.0</ele><time>2026-04-29T15:20:37.783Z</time></trkpt><trkpt lat="44.2117682" lon="9.7631612"><ele>105.00000000000001</ele><time>2026-04-29T15:20:38.78Z</time></trkpt><trkpt lat="44.2117143" lon="9.7632898"><ele>101.0</ele><time>2026-04-29T15:20:39.783Z</time></trkpt><trkpt lat="44.2116644" lon="9.7634126"><ele>97.0</ele><time>2026-04-29T15:20:40.784Z</time></trkpt><trkpt lat="44.2116157" lon="9.7635278"><ele>93.0</ele><time>2026-04-29T15:20:41.781Z</time></trkpt><trkpt lat="44.211569" lon="9.763638"><ele>91.66666666666667</ele><time>2026-04-29T15:20:42.782Z</time></trkpt><trkpt lat="44.2115257" lon="9.7637397"><ele>90.33333333333333</ele><time>2026-04-29T15:20:43.78Z</time></trkpt><trkpt lat="44.2114797" lon="9.763838"><ele>89.0</ele><time>2026-04-29T15:20:44.781Z</time></trkpt><trkpt lat="44.2114277" lon="9.7639284"><ele>87.66666666666666</ele><time>2026-04-29T15:20:45.783Z</time></trkpt><trkpt lat="44.2113609" lon="9.7640094"><ele>86.33333333333333</ele><time>2026-04-29T15:20:46.78Z</time></trkpt><trkpt lat="44.2112763" lon="9.7640648"><ele>85.0</ele><time>2026-04-29T15:20:47.782Z</time></trkpt><trkpt lat="44.2111823" lon="9.7640872"><ele>85.0</ele><time>2026-04-29T15:20:48.782Z</time></trkpt><trkpt lat="44.2110818" lon="9.7640774"><ele>85.0</ele><time>2026-04-29T15:20:49.781Z</time></trkpt><trkpt lat="44.2109779" lon="9.7640429"><ele>85.0</ele><time>2026-04-29T15:20:50.78Z</time></trkpt><trkpt lat="44.2108693" lon="9.7639904"><ele>85.0</ele><time>2026-04-29T15:20:51.781Z</time></trkpt><trkpt lat="44.210752" lon="9.7639318"><ele>85.0</ele><time>2026-04-29T15:20:52.778Z</time></trkpt><trkpt lat="44.2106286" lon="9.763871"><ele>83.25</ele><time>2026-04-29T15:20:53.782Z</time></trkpt><trkpt lat="44.2105011" lon="9.7638092"><ele>81.5</ele><time>2026-04-29T15:20:54.784Z</time></trkpt><trkpt lat="44.210371" lon="9.7637478"><ele>79.75</ele><time>2026-04-29T15:20:55.781Z</time></trkpt><trkpt lat="44.2102471" lon="9.7636892"><ele>78.0</ele><time>2026-04-29T15:20:56.781Z</time></trkpt><trkpt lat="44.2101325" lon="9.7636327"><ele>78.0</ele><time>2026-04-29T15:20:57.781Z</time></trkpt><trkpt lat="44.2100204" lon="9.7635793"><ele>78.0</ele><time>2026-04-29T15:20:58.78Z</time></trkpt><trkpt lat="44.2099135" lon="9.7635264"><ele>78.0</ele><time>2026-04-29T15:20:59.78Z</time></trkpt><trkpt lat="44.209808" lon="9.7634742"><ele>78.0</ele><time>2026-04-29T15:21:00.783Z</time></trkpt><trkpt lat="44.2096962" lon="9.763427"><ele>83.0</ele><time>2026-04-29T15:21:01.781Z</time></trkpt><trkpt lat="44.2095773" lon="9.7633936"><ele>88.0</ele><time>2026-04-29T15:21:02.781Z</time></trkpt><trkpt lat="44.2094544" lon="9.7633766"><ele>93.0</ele><time>2026-04-29T15:21:03.78Z</time></trkpt><trkpt lat="44.2093258" lon="9.7633752"><ele>98.0</ele><time>2026-04-29T15:21:04.781Z</time></trkpt><trkpt lat="44.209192" lon="9.7633811"><ele>98.0</ele><time>2026-04-29T15:21:05.78Z</time></trkpt><trkpt lat="44.2090667" lon="9.7633875"><ele>98.0</ele><time>2026-04-29T15:21:06.78Z</time></trkpt><trkpt lat="44.2089465" lon="9.7633937"><ele>98.0</ele><time>2026-04-29T15:21:07.782Z</time></trkpt><trkpt lat="44.2088331" lon="9.7634001"><ele>98.0</ele><time>2026-04-29T15:21:08.781Z</time></trkpt><trkpt lat="44.2087256" lon="9.7634005"><ele>97.25</ele><time>2026-04-29T15:21:09.78Z</time></trkpt><trkpt lat="44.208617" lon="9.7634033"><ele>96.5</ele><time>2026-04-29T15:21:10.781Z</time></trkpt><trkpt lat="44.2085028" lon="9.7634124"><ele>95.75</ele><time>2026-04-29T15:21:11.783Z</time></trkpt><trkpt lat="44.2083845" lon="9.763424"><ele>95.0</ele><time>2026-04-29T15:21:12.781Z</time></trkpt><trkpt lat="44.2082608" lon="9.7634347"><ele>92.8</ele><time>2026-04-29T15:21:13.781Z</time></trkpt><trkpt lat="44.208136" lon="9.7634406"><ele>90.6</ele><time>2026-04-29T15:21:14.783Z</time></trkpt><trkpt lat="44.2080276" lon="9.7634381"><ele>88.4</ele><time>2026-04-29T15:21:15.781Z</time></trkpt><trkpt lat="44.2079366" lon="9.7634269"><ele>86.2</ele><time>2026-04-29T15:21:16.779Z</time></trkpt><trkpt lat="44.2078673" lon="9.7634109"><ele>84.0</ele><time>2026-04-29T15:21:17.782Z</time></trkpt><trkpt lat="44.2077803" lon="9.7633797"><ele>84.0</ele><time>2026-04-29T15:21:19.781Z</time></trkpt><trkpt lat="44.2077019" lon="9.7633581"><ele>84.0</ele><time>2026-04-29T15:21:22.781Z</time></trkpt><trkpt lat="44.2076325" lon="9.7633421"><ele>84.0</ele><time>2026-04-29T15:21:24.781Z</time></trkpt><trkpt lat="44.2075553" lon="9.7633123"><ele>84.0</ele><time>2026-04-29T15:21:26.781Z</time></trkpt><trkpt lat="44.2074798" lon="9.7632835"><ele>84.0</ele><time>2026-04-29T15:21:29.781Z</time></trkpt><trkpt lat="44.2073932" lon="9.7632468"><ele>84.0</ele><time>2026-04-29T15:21:31.78Z</time></trkpt><trkpt lat="44.2072881" lon="9.7632032"><ele>82.0</ele><time>2026-04-29T15:21:33.781Z</time></trkpt><trkpt lat="44.2071827" lon="9.7631627"><ele>80.0</ele><time>2026-04-29T15:21:35.782Z</time></trkpt><trkpt lat="44.2070633" lon="9.7631064"><ele>78.0</ele><time>2026-04-29T15:21:37.781Z</time></trkpt><trkpt lat="44.2069987" lon="9.7630603"><ele>76.0</ele><time>2026-04-29T15:21:38.785Z</time></trkpt><trkpt lat="44.2069234" lon="9.763019"><ele>74.0</ele><time>2026-04-29T15:21:39.78Z</time></trkpt><trkpt lat="44.206841" lon="9.7629807"><ele>74.0</ele><time>2026-04-29T15:21:40.782Z</time></trkpt><trkpt lat="44.206753" lon="9.7629464"><ele>74.0</ele><time>2026-04-29T15:21:41.78Z</time></trkpt><trkpt lat="44.2066609" lon="9.7629074"><ele>74.0</ele><time>2026-04-29T15:21:42.78Z</time></trkpt><trkpt lat="44.2065623" lon="9.7628683"><ele>74.0</ele><time>2026-04-29T15:21:43.781Z</time></trkpt><trkpt lat="44.2064583" lon="9.7628281"><ele>74.0</ele><time>2026-04-29T15:21:44.782Z</time></trkpt><trkpt lat="44.2063502" lon="9.7627861"><ele>72.75</ele><time>2026-04-29T15:21:45.78Z</time></trkpt><trkpt lat="44.2062384" lon="9.7627414"><ele>71.5</ele><time>2026-04-29T15:21:46.781Z</time></trkpt><trkpt lat="44.2061276" lon="9.7626959"><ele>70.25</ele><time>2026-04-29T15:21:47.78Z</time></trkpt><trkpt lat="44.2060215" lon="9.7626511"><ele>69.0</ele><time>2026-04-29T15:21:48.782Z</time></trkpt><trkpt lat="44.2059189" lon="9.7626083"><ele>70.60000000000001</ele><time>2026-04-29T15:21:49.78Z</time></trkpt><trkpt lat="44.2058192" lon="9.7625672"><ele>72.2</ele><time>2026-04-29T15:21:50.782Z</time></trkpt><trkpt lat="44.2057205" lon="9.7625268"><ele>73.80000000000001</ele><time>2026-04-29T15:21:51.78Z</time></trkpt><trkpt lat="44.2056178" lon="9.7624858"><ele>75.4</ele><time>2026-04-29T15:21:52.783Z</time></trkpt><trkpt lat="44.2055095" lon="9.7624451"><ele>77.0</ele><time>2026-04-29T15:21:53.78Z</time></trkpt><trkpt lat="44.2053946" lon="9.7623968"><ele>77.0</ele><time>2026-04-29T15:21:54.782Z</time></trkpt><trkpt lat="44.2052789" lon="9.76234"><ele>77.0</ele><time>2026-04-29T15:21:55.782Z</time></trkpt><trkpt lat="44.205165" lon="9.7622642"><ele>77.0</ele><time>2026-04-29T15:21:56.782Z</time></trkpt><trkpt lat="44.2050622" lon="9.7621717"><ele>77.0</ele><time>2026-04-29T15:21:57.781Z</time></trkpt><trkpt lat="44.2049603" lon="9.7620759"><ele>77.0</ele><time>2026-04-29T15:21:58.78Z</time></trkpt><trkpt lat="44.204861" lon="9.7619782"><ele>77.0</ele><time>2026-04-29T15:21:59.783Z</time></trkpt><trkpt lat="44.2047709" lon="9.7618856"><ele>77.0</ele><time>2026-04-29T15:22:00.78Z</time></trkpt><trkpt lat="44.2046776" lon="9.7618132"><ele>77.0</ele><time>2026-04-29T15:22:01.781Z</time></trkpt><trkpt lat="44.2045766" lon="9.7617647"><ele>77.0</ele><time>2026-04-29T15:22:02.78Z</time></trkpt><trkpt lat="44.2044682" lon="9.7617538"><ele>76.0</ele><time>2026-04-29T15:22:03.78Z</time></trkpt><trkpt lat="44.2043485" lon="9.7617661"><ele>75.0</ele><time>2026-04-29T15:22:04.781Z</time></trkpt><trkpt lat="44.2042063" lon="9.7617906"><ele>74.0</ele><time>2026-04-29T15:22:05.781Z</time></trkpt><trkpt lat="44.2040349" lon="9.7618287"><ele>73.0</ele><time>2026-04-29T15:22:06.782Z</time></trkpt><trkpt lat="44.2038543" lon="9.7618682"><ele>73.0</ele><time>2026-04-29T15:22:07.782Z</time></trkpt><trkpt lat="44.203663" lon="9.761914"><ele>73.0</ele><time>2026-04-29T15:22:08.782Z</time></trkpt><trkpt lat="44.2034643" lon="9.7619635"><ele>73.0</ele><time>2026-04-29T15:22:09.781Z</time></trkpt><trkpt lat="44.2032609" lon="9.762006"><ele>74.0</ele><time>2026-04-29T15:22:10.782Z</time></trkpt><trkpt lat="44.2030561" lon="9.7620382"><ele>75.0</ele><time>2026-04-29T15:22:11.782Z</time></trkpt><trkpt lat="44.2028547" lon="9.7620692"><ele>76.0</ele><time>2026-04-29T15:22:12.783Z</time></trkpt><trkpt lat="44.2026581" lon="9.7621139"><ele>76.0</ele><time>2026-04-29T15:22:13.782Z</time></trkpt><trkpt lat="44.2024912" lon="9.7621543"><ele>76.0</ele><time>2026-04-29T15:22:14.781Z</time></trkpt><trkpt lat="44.2023122" lon="9.7621916"><ele>76.0</ele><time>2026-04-29T15:22:15.781Z</time></trkpt><trkpt lat="44.2021697" lon="9.7622481"><ele>77.66666666666666</ele><time>2026-04-29T15:22:16.783Z</time></trkpt><trkpt lat="44.2020254" lon="9.762286"><ele>79.33333333333333</ele><time>2026-04-29T15:22:17.78Z</time></trkpt><trkpt lat="44.2018837" lon="9.7623855"><ele>81.0</ele><time>2026-04-29T15:22:18.78Z</time></trkpt><trkpt lat="44.2017371" lon="9.7624354"><ele>81.0</ele><time>2026-04-29T15:22:19.782Z</time></trkpt><trkpt lat="44.2015951" lon="9.7624829"><ele>81.0</ele><time>2026-04-29T15:22:20.78Z</time></trkpt><trkpt lat="44.2014616" lon="9.7625665"><ele>81.0</ele><time>2026-04-29T15:22:21.78Z</time></trkpt><trkpt lat="44.2013088" lon="9.762596"><ele>81.0</ele><time>2026-04-29T15:22:22.781Z</time></trkpt><trkpt lat="44.2011511" lon="9.7626694"><ele>78.0</ele><time>2026-04-29T15:22:23.78Z</time></trkpt><trkpt lat="44.2009906" lon="9.7627695"><ele>75.0</ele><time>2026-04-29T15:22:24.781Z</time></trkpt><trkpt lat="44.2008235" lon="9.7628955"><ele>72.0</ele><time>2026-04-29T15:22:25.781Z</time></trkpt><trkpt lat="44.2006508" lon="9.7630336"><ele>78.66666666666667</ele><time>2026-04-29T15:22:26.782Z</time></trkpt><trkpt lat="44.2004903" lon="9.7631738"><ele>85.33333333333334</ele><time>2026-04-29T15:22:27.781Z</time></trkpt><trkpt lat="44.2003398" lon="9.7633004"><ele>92.0</ele><time>2026-04-29T15:22:28.783Z</time></trkpt><trkpt lat="44.2001952" lon="9.7634178"><ele>92.66666666666667</ele><time>2026-04-29T15:22:29.781Z</time></trkpt><trkpt lat="44.2000562" lon="9.7635428"><ele>93.33333333333333</ele><time>2026-04-29T15:22:30.78Z</time></trkpt><trkpt lat="44.1999038" lon="9.7636988"><ele>94.0</ele><time>2026-04-29T15:22:31.781Z</time></trkpt><trkpt lat="44.1997404" lon="9.7638685"><ele>94.0</ele><time>2026-04-29T15:22:32.781Z</time></trkpt><trkpt lat="44.1995774" lon="9.7640396"><ele>94.0</ele><time>2026-04-29T15:22:33.781Z</time></trkpt><trkpt lat="44.1994395" lon="9.7641976"><ele>94.0</ele><time>2026-04-29T15:22:34.779Z</time></trkpt><trkpt lat="44.1993137" lon="9.7643573"><ele>94.33333333333333</ele><time>2026-04-29T15:22:35.782Z</time></trkpt><trkpt lat="44.1991971" lon="9.7645212"><ele>94.66666666666667</ele><time>2026-04-29T15:22:36.782Z</time></trkpt><trkpt lat="44.1990875" lon="9.7647028"><ele>95.0</ele><time>2026-04-29T15:22:37.781Z</time></trkpt><trkpt lat="44.1989781" lon="9.7648858"><ele>95.0</ele><time>2026-04-29T15:22:38.781Z</time></trkpt><trkpt lat="44.1988757" lon="9.7650734"><ele>95.0</ele><time>2026-04-29T15:22:39.783Z</time></trkpt><trkpt lat="44.1987708" lon="9.7652594"><ele>95.0</ele><time>2026-04-29T15:22:40.781Z</time></trkpt><trkpt lat="44.198657" lon="9.7654232"><ele>88.0</ele><time>2026-04-29T15:22:41.781Z</time></trkpt><trkpt lat="44.1985353" lon="9.7655696"><ele>81.0</ele><time>2026-04-29T15:22:42.781Z</time></trkpt><trkpt lat="44.1984193" lon="9.7657029"><ele>74.0</ele><time>2026-04-29T15:22:43.781Z</time></trkpt><trkpt lat="44.1983046" lon="9.7658272"><ele>74.0</ele><time>2026-04-29T15:22:44.781Z</time></trkpt><trkpt lat="44.1982002" lon="9.7659425"><ele>74.0</ele><time>2026-04-29T15:22:45.781Z</time></trkpt><trkpt lat="44.1981018" lon="9.7660499"><ele>74.0</ele><time>2026-04-29T15:22:46.78Z</time></trkpt><trkpt lat="44.1980048" lon="9.7661615"><ele>74.0</ele><time>2026-04-29T15:22:47.78Z</time></trkpt><trkpt lat="44.1979037" lon="9.7662751"><ele>73.5</ele><time>2026-04-29T15:22:48.781Z</time></trkpt><trkpt lat="44.1978007" lon="9.7663926"><ele>73.0</ele><time>2026-04-29T15:22:49.78Z</time></trkpt><trkpt lat="44.197693" lon="9.7665122"><ele>72.5</ele><time>2026-04-29T15:22:50.782Z</time></trkpt><trkpt lat="44.1975824" lon="9.7666341"><ele>72.0</ele><time>2026-04-29T15:22:51.78Z</time></trkpt><trkpt lat="44.1974762" lon="9.7667579"><ele>71.25</ele><time>2026-04-29T15:22:52.781Z</time></trkpt><trkpt lat="44.1973745" lon="9.7668769"><ele>70.5</ele><time>2026-04-29T15:22:53.781Z</time></trkpt><trkpt lat="44.1972767" lon="9.7669891"><ele>69.75</ele><time>2026-04-29T15:22:54.78Z</time></trkpt><trkpt lat="44.1971843" lon="9.7670952"><ele>69.0</ele><time>2026-04-29T15:22:55.783Z</time></trkpt><trkpt lat="44.1970925" lon="9.7671984"><ele>70.75</ele><time>2026-04-29T15:22:56.781Z</time></trkpt><trkpt lat="44.1969978" lon="9.7673035"><ele>72.5</ele><time>2026-04-29T15:22:57.782Z</time></trkpt><trkpt lat="44.1968993" lon="9.7674073"><ele>74.25</ele><time>2026-04-29T15:22:58.78Z</time></trkpt><trkpt lat="44.1967997" lon="9.7675123"><ele>76.0</ele><time>2026-04-29T15:22:59.782Z</time></trkpt><trkpt lat="44.1967005" lon="9.7676144"><ele>76.25</ele><time>2026-04-29T15:23:00.78Z</time></trkpt><trkpt lat="44.1966032" lon="9.7677081"><ele>76.5</ele><time>2026-04-29T15:23:01.781Z</time></trkpt><trkpt lat="44.1965028" lon="9.7677954"><ele>76.75</ele><time>2026-04-29T15:23:02.78Z</time></trkpt><trkpt lat="44.1964005" lon="9.7678744"><ele>77.0</ele><time>2026-04-29T15:23:03.78Z</time></trkpt><trkpt lat="44.196295" lon="9.7679478"><ele>77.0</ele><time>2026-04-29T15:23:04.78Z</time></trkpt><trkpt lat="44.1961867" lon="9.7680169"><ele>77.0</ele><time>2026-04-29T15:23:05.781Z</time></trkpt><trkpt lat="44.1960763" lon="9.7680822"><ele>77.0</ele><time>2026-04-29T15:23:06.781Z</time></trkpt><trkpt lat="44.195964" lon="9.7681489"><ele>77.0</ele><time>2026-04-29T15:23:07.781Z</time></trkpt><trkpt lat="44.1958504" lon="9.7682171"><ele>77.0</ele><time>2026-04-29T15:23:08.781Z</time></trkpt><trkpt lat="44.1957357" lon="9.7682857"><ele>77.0</ele><time>2026-04-29T15:23:09.781Z</time></trkpt><trkpt lat="44.195621" lon="9.7683573"><ele>77.0</ele><time>2026-04-29T15:23:10.783Z</time></trkpt><trkpt lat="44.1955066" lon="9.7684317"><ele>77.0</ele><time>2026-04-29T15:23:11.78Z</time></trkpt><trkpt lat="44.1953908" lon="9.7685053"><ele>77.5</ele><time>2026-04-29T15:23:12.782Z</time></trkpt><trkpt lat="44.195272" lon="9.7685772"><ele>78.0</ele><time>2026-04-29T15:23:13.781Z</time></trkpt><trkpt lat="44.1951507" lon="9.7686461"><ele>78.5</ele><time>2026-04-29T15:23:14.782Z</time></trkpt><trkpt lat="44.1950245" lon="9.7687072"><ele>79.0</ele><time>2026-04-29T15:23:15.784Z</time></trkpt><trkpt lat="44.1948946" lon="9.7687606"><ele>78.75</ele><time>2026-04-29T15:23:16.781Z</time></trkpt><trkpt lat="44.1947596" lon="9.7688015"><ele>78.5</ele><time>2026-04-29T15:23:17.782Z</time></trkpt><trkpt lat="44.1946212" lon="9.7688311"><ele>78.25</ele><time>2026-04-29T15:23:18.781Z</time></trkpt><trkpt lat="44.1944791" lon="9.7688501"><ele>78.0</ele><time>2026-04-29T15:23:19.782Z</time></trkpt><trkpt lat="44.194333" lon="9.7688564"><ele>78.0</ele><time>2026-04-29T15:23:20.782Z</time></trkpt><trkpt lat="44.1941831" lon="9.7688544"><ele>78.0</ele><time>2026-04-29T15:23:21.781Z</time></trkpt><trkpt lat="44.1940307" lon="9.7688539"><ele>78.0</ele><time>2026-04-29T15:23:22.781Z</time></trkpt><trkpt lat="44.1938848" lon="9.7688528"><ele>78.0</ele><time>2026-04-29T15:23:23.78Z</time></trkpt><trkpt lat="44.1937463" lon="9.7688514"><ele>77.5</ele><time>2026-04-29T15:23:24.78Z</time></trkpt><trkpt lat="44.1936123" lon="9.7688433"><ele>77.0</ele><time>2026-04-29T15:23:25.78Z</time></trkpt><trkpt lat="44.1934772" lon="9.7688215"><ele>76.5</ele><time>2026-04-29T15:23:26.781Z</time></trkpt><trkpt lat="44.1933443" lon="9.7687778"><ele>76.0</ele><time>2026-04-29T15:23:27.782Z</time></trkpt><trkpt lat="44.1932159" lon="9.7687138"><ele>75.5</ele><time>2026-04-29T15:23:28.781Z</time></trkpt><trkpt lat="44.1930936" lon="9.7686215"><ele>75.0</ele><time>2026-04-29T15:23:29.78Z</time></trkpt><trkpt lat="44.1929801" lon="9.7685024"><ele>74.5</ele><time>2026-04-29T15:23:30.781Z</time></trkpt><trkpt lat="44.1928691" lon="9.7683611"><ele>74.0</ele><time>2026-04-29T15:23:31.781Z</time></trkpt><trkpt lat="44.1927574" lon="9.7682042"><ele>74.0</ele><time>2026-04-29T15:23:32.78Z</time></trkpt><trkpt lat="44.1926424" lon="9.7680349"><ele>74.0</ele><time>2026-04-29T15:23:33.781Z</time></trkpt><trkpt lat="44.1925218" lon="9.7678563"><ele>74.0</ele><time>2026-04-29T15:23:34.781Z</time></trkpt><trkpt lat="44.1923999" lon="9.7676713"><ele>74.33333333333334</ele><time>2026-04-29T15:23:35.783Z</time></trkpt><trkpt lat="44.1922798" lon="9.767489"><ele>74.66666666666667</ele><time>2026-04-29T15:23:36.781Z</time></trkpt><trkpt lat="44.1921625" lon="9.7673095"><ele>75.0</ele><time>2026-04-29T15:23:37.781Z</time></trkpt><trkpt lat="44.192045" lon="9.767129"><ele>75.0</ele><time>2026-04-29T15:23:38.782Z</time></trkpt><trkpt lat="44.1919265" lon="9.7669466"><ele>75.0</ele><time>2026-04-29T15:23:39.782Z</time></trkpt><trkpt lat="44.1918088" lon="9.7667656"><ele>75.0</ele><time>2026-04-29T15:23:40.782Z</time></trkpt><trkpt lat="44.1917015" lon="9.7665983"><ele>75.33333333333333</ele><time>2026-04-29T15:23:41.781Z</time></trkpt><trkpt lat="44.1915984" lon="9.7664414"><ele>75.66666666666666</ele><time>2026-04-29T15:23:42.782Z</time></trkpt><trkpt lat="44.1914927" lon="9.7662841"><ele>76.0</ele><time>2026-04-29T15:23:43.781Z</time></trkpt><trkpt lat="44.1913808" lon="9.7661382"><ele>76.0</ele><time>2026-04-29T15:23:44.78Z</time></trkpt><trkpt lat="44.1912598" lon="9.766011"><ele>76.0</ele><time>2026-04-29T15:23:45.781Z</time></trkpt><trkpt lat="44.1911302" lon="9.7659192"><ele>76.0</ele><time>2026-04-29T15:23:46.782Z</time></trkpt><trkpt lat="44.1909909" lon="9.7658666"><ele>76.0</ele><time>2026-04-29T15:23:47.782Z</time></trkpt><trkpt lat="44.1908432" lon="9.7658668"><ele>76.0</ele><time>2026-04-29T15:23:48.781Z</time></trkpt><trkpt lat="44.1906922" lon="9.7659095"><ele>76.0</ele><time>2026-04-29T15:23:49.782Z</time></trkpt><trkpt lat="44.1905391" lon="9.7659736"><ele>76.0</ele><time>2026-04-29T15:23:50.781Z</time></trkpt><trkpt lat="44.1903968" lon="9.7660215"><ele>76.5</ele><time>2026-04-29T15:23:51.786Z</time></trkpt><trkpt lat="44.1902561" lon="9.7660557"><ele>77.0</ele><time>2026-04-29T15:23:52.783Z</time></trkpt><trkpt lat="44.1901129" lon="9.7660604"><ele>77.5</ele><time>2026-04-29T15:23:53.78Z</time></trkpt><trkpt lat="44.18996" lon="9.766034"><ele>78.0</ele><time>2026-04-29T15:23:54.78Z</time></trkpt><trkpt lat="44.1897962" lon="9.765981"><ele>80.0</ele><time>2026-04-29T15:23:55.782Z</time></trkpt><trkpt lat="44.1896217" lon="9.765918"><ele>82.0</ele><time>2026-04-29T15:23:56.781Z</time></trkpt><trkpt lat="44.1894397" lon="9.7658537"><ele>84.0</ele><time>2026-04-29T15:23:57.781Z</time></trkpt><trkpt lat="44.189247" lon="9.765787"><ele>84.0</ele><time>2026-04-29T15:23:58.782Z</time></trkpt><trkpt lat="44.1890541" lon="9.7657252"><ele>84.0</ele><time>2026-04-29T15:23:59.782Z</time></trkpt><trkpt lat="44.1888729" lon="9.7656658"><ele>84.0</ele><time>2026-04-29T15:24:00.781Z</time></trkpt><trkpt lat="44.1886945" lon="9.7656051"><ele>82.0</ele><time>2026-04-29T15:24:01.78Z</time></trkpt><trkpt lat="44.1885108" lon="9.7655432"><ele>80.0</ele><time>2026-04-29T15:24:02.781Z</time></trkpt><trkpt lat="44.1883259" lon="9.7654834"><ele>78.0</ele><time>2026-04-29T15:24:03.781Z</time></trkpt><trkpt lat="44.1881401" lon="9.7654247"><ele>78.0</ele><time>2026-04-29T15:24:04.781Z</time></trkpt><trkpt lat="44.1879521" lon="9.765363"><ele>78.0</ele><time>2026-04-29T15:24:05.781Z</time></trkpt><trkpt lat="44.1877619" lon="9.7653015"><ele>78.0</ele><time>2026-04-29T15:24:06.781Z</time></trkpt><trkpt lat="44.1875717" lon="9.7652337"><ele>81.33333333333333</ele><time>2026-04-29T15:24:07.782Z</time></trkpt><trkpt lat="44.1873831" lon="9.7651675"><ele>84.66666666666666</ele><time>2026-04-29T15:24:08.781Z</time></trkpt><trkpt lat="44.1872014" lon="9.7651055"><ele>88.0</ele><time>2026-04-29T15:24:09.779Z</time></trkpt><trkpt lat="44.1870217" lon="9.7650422"><ele>88.0</ele><time>2026-04-29T15:24:10.781Z</time></trkpt><trkpt lat="44.1868421" lon="9.7649794"><ele>88.0</ele><time>2026-04-29T15:24:11.782Z</time></trkpt><trkpt lat="44.1866629" lon="9.7649193"><ele>88.0</ele><time>2026-04-29T15:24:12.781Z</time></trkpt><trkpt lat="44.186484" lon="9.7648582"><ele>85.33333333333333</ele><time>2026-04-29T15:24:13.779Z</time></trkpt><trkpt lat="44.1863091" lon="9.7647979"><ele>82.66666666666667</ele><time>2026-04-29T15:24:14.78Z</time></trkpt><trkpt lat="44.1861442" lon="9.7647445"><ele>80.0</ele><time>2026-04-29T15:24:15.78Z</time></trkpt><trkpt lat="44.1859734" lon="9.7647005"><ele>80.0</ele><time>2026-04-29T15:24:16.78Z</time></trkpt><trkpt lat="44.1858002" lon="9.7646748"><ele>80.0</ele><time>2026-04-29T15:24:17.783Z</time></trkpt><trkpt lat="44.1856258" lon="9.7646627"><ele>80.0</ele><time>2026-04-29T15:24:18.782Z</time></trkpt><trkpt lat="44.1854461" lon="9.7646672"><ele>79.66666666666667</ele><time>2026-04-29T15:24:19.781Z</time></trkpt><trkpt lat="44.1852727" lon="9.7646767"><ele>79.33333333333333</ele><time>2026-04-29T15:24:20.781Z</time></trkpt><trkpt lat="44.185108" lon="9.7646875"><ele>79.0</ele><time>2026-04-29T15:24:21.782Z</time></trkpt><trkpt lat="44.1849595" lon="9.764693"><ele>79.0</ele><time>2026-04-29T15:24:22.781Z</time></trkpt><trkpt lat="44.1848168" lon="9.764704"><ele>79.0</ele><time>2026-04-29T15:24:23.781Z</time></trkpt><trkpt lat="44.184677" lon="9.7647102"><ele>79.0</ele><time>2026-04-29T15:24:24.782Z</time></trkpt><trkpt lat="44.1845363" lon="9.764697"><ele>79.0</ele><time>2026-04-29T15:24:25.782Z</time></trkpt><trkpt lat="44.1843949" lon="9.7646601"><ele>79.0</ele><time>2026-04-29T15:24:26.781Z</time></trkpt><trkpt lat="44.1842545" lon="9.7646006"><ele>79.0</ele><time>2026-04-29T15:24:27.78Z</time></trkpt><trkpt lat="44.1841175" lon="9.7645163"><ele>79.0</ele><time>2026-04-29T15:24:28.779Z</time></trkpt><trkpt lat="44.1839785" lon="9.7644127"><ele>80.33333333333333</ele><time>2026-04-29T15:24:29.781Z</time></trkpt><trkpt lat="44.1838379" lon="9.764304"><ele>81.66666666666667</ele><time>2026-04-29T15:24:30.782Z</time></trkpt><trkpt lat="44.1836945" lon="9.7641934"><ele>83.0</ele><time>2026-04-29T15:24:31.781Z</time></trkpt><trkpt lat="44.1835495" lon="9.7640796"><ele>83.0</ele><time>2026-04-29T15:24:32.783Z</time></trkpt><trkpt lat="44.1833995" lon="9.7639644"><ele>83.0</ele><time>2026-04-29T15:24:33.782Z</time></trkpt><trkpt lat="44.1832471" lon="9.7638483"><ele>83.0</ele><time>2026-04-29T15:24:34.782Z</time></trkpt><trkpt lat="44.183094" lon="9.7637263"><ele>83.0</ele><time>2026-04-29T15:24:35.779Z</time></trkpt><trkpt lat="44.1829425" lon="9.7635948"><ele>83.0</ele><time>2026-04-29T15:24:36.78Z</time></trkpt><trkpt lat="44.182793" lon="9.76346"><ele>83.0</ele><time>2026-04-29T15:24:37.782Z</time></trkpt><trkpt lat="44.1826476" lon="9.7633237"><ele>82.0</ele><time>2026-04-29T15:24:38.782Z</time></trkpt><trkpt lat="44.182502" lon="9.7631866"><ele>81.0</ele><time>2026-04-29T15:24:39.78Z</time></trkpt><trkpt lat="44.1823558" lon="9.7630511"><ele>80.0</ele><time>2026-04-29T15:24:40.781Z</time></trkpt><trkpt lat="44.1822165" lon="9.7629222"><ele>80.0</ele><time>2026-04-29T15:24:41.781Z</time></trkpt><trkpt lat="44.1820831" lon="9.7627946"><ele>80.0</ele><time>2026-04-29T15:24:42.782Z</time></trkpt><trkpt lat="44.1819509" lon="9.7626665"><ele>80.0</ele><time>2026-04-29T15:24:43.782Z</time></trkpt><trkpt lat="44.1818238" lon="9.7625467"><ele>80.5</ele><time>2026-04-29T15:24:44.781Z</time></trkpt><trkpt lat="44.1817053" lon="9.7624323"><ele>81.0</ele><time>2026-04-29T15:24:45.779Z</time></trkpt><trkpt lat="44.1815898" lon="9.7623208"><ele>81.5</ele><time>2026-04-29T15:24:46.78Z</time></trkpt><trkpt lat="44.1814724" lon="9.7622115"><ele>82.0</ele><time>2026-04-29T15:24:47.778Z</time></trkpt><trkpt lat="44.1813531" lon="9.7621"><ele>82.0</ele><time>2026-04-29T15:24:48.778Z</time></trkpt><trkpt lat="44.1812302" lon="9.7619819"><ele>82.0</ele><time>2026-04-29T15:24:49.78Z</time></trkpt><trkpt lat="44.1811083" lon="9.7618654"><ele>82.0</ele><time>2026-04-29T15:24:50.78Z</time></trkpt><trkpt lat="44.1809869" lon="9.76175"><ele>82.0</ele><time>2026-04-29T15:24:51.781Z</time></trkpt><trkpt lat="44.1808733" lon="9.7616428"><ele>82.0</ele><time>2026-04-29T15:24:52.779Z</time></trkpt><trkpt lat="44.1807599" lon="9.761532"><ele>82.0</ele><time>2026-04-29T15:24:53.78Z</time></trkpt><trkpt lat="44.1806436" lon="9.7614207"><ele>82.0</ele><time>2026-04-29T15:24:54.78Z</time></trkpt><trkpt lat="44.1805234" lon="9.7613017"><ele>82.0</ele><time>2026-04-29T15:24:55.78Z</time></trkpt><trkpt lat="44.1803972" lon="9.7611836"><ele>81.0</ele><time>2026-04-29T15:24:56.781Z</time></trkpt><trkpt lat="44.1802659" lon="9.7610564"><ele>80.0</ele><time>2026-04-29T15:24:57.781Z</time></trkpt><trkpt lat="44.1801326" lon="9.7609267"><ele>79.0</ele><time>2026-04-29T15:24:58.78Z</time></trkpt><trkpt lat="44.1799954" lon="9.7607978"><ele>80.33333333333333</ele><time>2026-04-29T15:24:59.782Z</time></trkpt><trkpt lat="44.1798626" lon="9.7606778"><ele>81.66666666666667</ele><time>2026-04-29T15:25:00.778Z</time></trkpt><trkpt lat="44.1797386" lon="9.7605619"><ele>83.0</ele><time>2026-04-29T15:25:01.779Z</time></trkpt><trkpt lat="44.179619" lon="9.7604464"><ele>83.0</ele><time>2026-04-29T15:25:02.78Z</time></trkpt><trkpt lat="44.1794973" lon="9.7603313"><ele>83.0</ele><time>2026-04-29T15:25:03.781Z</time></trkpt><trkpt lat="44.1793734" lon="9.7602115"><ele>83.0</ele><time>2026-04-29T15:25:04.781Z</time></trkpt><trkpt lat="44.1792481" lon="9.760088"><ele>83.33333333333334</ele><time>2026-04-29T15:25:05.78Z</time></trkpt><trkpt lat="44.1791172" lon="9.7599671"><ele>83.66666666666667</ele><time>2026-04-29T15:25:06.78Z</time></trkpt><trkpt lat="44.1789803" lon="9.7598351"><ele>84.0</ele><time>2026-04-29T15:25:07.779Z</time></trkpt><trkpt lat="44.1788334" lon="9.7596995"><ele>84.0</ele><time>2026-04-29T15:25:08.779Z</time></trkpt><trkpt lat="44.1786854" lon="9.7595604"><ele>84.0</ele><time>2026-04-29T15:25:09.779Z</time></trkpt><trkpt lat="44.1785395" lon="9.75942"><ele>84.0</ele><time>2026-04-29T15:25:10.781Z</time></trkpt><trkpt lat="44.1783941" lon="9.7592783"><ele>84.33333333333333</ele><time>2026-04-29T15:25:11.78Z</time></trkpt><trkpt lat="44.1782501" lon="9.7591438"><ele>84.66666666666666</ele><time>2026-04-29T15:25:12.779Z</time></trkpt><trkpt lat="44.1781112" lon="9.7590174"><ele>85.0</ele><time>2026-04-29T15:25:13.78Z</time></trkpt><trkpt lat="44.1779708" lon="9.7588851"><ele>85.0</ele><time>2026-04-29T15:25:14.78Z</time></trkpt><trkpt lat="44.1778357" lon="9.7587597"><ele>85.0</ele><time>2026-04-29T15:25:15.779Z</time></trkpt><trkpt lat="44.1777078" lon="9.7586333"><ele>85.0</ele><time>2026-04-29T15:25:16.78Z</time></trkpt><trkpt lat="44.1775795" lon="9.758513"><ele>85.33333333333333</ele><time>2026-04-29T15:25:17.783Z</time></trkpt><trkpt lat="44.1774532" lon="9.7583983"><ele>85.66666666666667</ele><time>2026-04-29T15:25:18.781Z</time></trkpt><trkpt lat="44.1773215" lon="9.7582735"><ele>86.0</ele><time>2026-04-29T15:25:19.781Z</time></trkpt><trkpt lat="44.1771847" lon="9.758146"><ele>86.0</ele><time>2026-04-29T15:25:20.779Z</time></trkpt><trkpt lat="44.1770522" lon="9.7580077"><ele>86.0</ele><time>2026-04-29T15:25:21.78Z</time></trkpt><trkpt lat="44.1769313" lon="9.7578455"><ele>86.0</ele><time>2026-04-29T15:25:22.78Z</time></trkpt><trkpt lat="44.1768189" lon="9.757663"><ele>86.66666666666667</ele><time>2026-04-29T15:25:23.781Z</time></trkpt><trkpt lat="44.1767103" lon="9.7574634"><ele>87.33333333333333</ele><time>2026-04-29T15:25:24.779Z</time></trkpt><trkpt lat="44.1766133" lon="9.757273"><ele>88.0</ele><time>2026-04-29T15:25:25.782Z</time></trkpt><trkpt lat="44.1765179" lon="9.7570843"><ele>88.0</ele><time>2026-04-29T15:25:26.779Z</time></trkpt><trkpt lat="44.1764235" lon="9.7569063"><ele>88.0</ele><time>2026-04-29T15:25:27.779Z</time></trkpt><trkpt lat="44.1763333" lon="9.7567329"><ele>88.0</ele><time>2026-04-29T15:25:28.778Z</time></trkpt><trkpt lat="44.1762412" lon="9.7565539"><ele>88.0</ele><time>2026-04-29T15:25:29.781Z</time></trkpt><trkpt lat="44.1761516" lon="9.7563803"><ele>88.0</ele><time>2026-04-29T15:25:30.781Z</time></trkpt><trkpt lat="44.1760647" lon="9.7562126"><ele>88.0</ele><time>2026-04-29T15:25:31.781Z</time></trkpt><trkpt lat="44.1759718" lon="9.7560415"><ele>88.66666666666666</ele><time>2026-04-29T15:25:32.781Z</time></trkpt><trkpt lat="44.175868" lon="9.7558732"><ele>89.33333333333333</ele><time>2026-04-29T15:25:33.781Z</time></trkpt><trkpt lat="44.1757528" lon="9.7557227"><ele>90.0</ele><time>2026-04-29T15:25:34.779Z</time></trkpt><trkpt lat="44.1756267" lon="9.7555815"><ele>90.0</ele><time>2026-04-29T15:25:35.781Z</time></trkpt><trkpt lat="44.1754864" lon="9.7554553"><ele>90.0</ele><time>2026-04-29T15:25:36.782Z</time></trkpt><trkpt lat="44.1753361" lon="9.7553403"><ele>90.0</ele><time>2026-04-29T15:25:37.781Z</time></trkpt><trkpt lat="44.1751864" lon="9.7552388"><ele>90.33333333333333</ele><time>2026-04-29T15:25:38.78Z</time></trkpt><trkpt lat="44.1750425" lon="9.7551387"><ele>90.66666666666666</ele><time>2026-04-29T15:25:39.781Z</time></trkpt><trkpt lat="44.174906" lon="9.7550411"><ele>91.0</ele><time>2026-04-29T15:25:40.78Z</time></trkpt><trkpt lat="44.1747777" lon="9.7549537"><ele>91.0</ele><time>2026-04-29T15:25:41.78Z</time></trkpt><trkpt lat="44.17465" lon="9.754865"><ele>91.0</ele><time>2026-04-29T15:25:42.781Z</time></trkpt><trkpt lat="44.1745203" lon="9.7547759"><ele>91.0</ele><time>2026-04-29T15:25:43.781Z</time></trkpt><trkpt lat="44.1743853" lon="9.7546866"><ele>91.0</ele><time>2026-04-29T15:25:44.781Z</time></trkpt><trkpt lat="44.17424" lon="9.7545931"><ele>91.0</ele><time>2026-04-29T15:25:45.779Z</time></trkpt><trkpt lat="44.1741091" lon="9.7545037"><ele>91.0</ele><time>2026-04-29T15:25:46.78Z</time></trkpt><trkpt lat="44.173984" lon="9.7544175"><ele>91.0</ele><time>2026-04-29T15:25:47.78Z</time></trkpt><trkpt lat="44.1738659" lon="9.7543336"><ele>91.0</ele><time>2026-04-29T15:25:48.781Z</time></trkpt><trkpt lat="44.1737479" lon="9.7542517"><ele>91.5</ele><time>2026-04-29T15:25:49.779Z</time></trkpt><trkpt lat="44.1736303" lon="9.7541777"><ele>92.0</ele><time>2026-04-29T15:25:50.781Z</time></trkpt><trkpt lat="44.17351" lon="9.7541379"><ele>92.5</ele><time>2026-04-29T15:25:51.779Z</time></trkpt><trkpt lat="44.1733881" lon="9.7541526"><ele>93.0</ele><time>2026-04-29T15:25:52.78Z</time></trkpt><trkpt lat="44.1732571" lon="9.7541993"><ele>93.33333333333333</ele><time>2026-04-29T15:25:53.781Z</time></trkpt><trkpt lat="44.1731149" lon="9.7542687"><ele>93.66666666666666</ele><time>2026-04-29T15:25:54.779Z</time></trkpt><trkpt lat="44.1729565" lon="9.7543518"><ele>94.0</ele><time>2026-04-29T15:25:55.781Z</time></trkpt><trkpt lat="44.1728108" lon="9.7544287"><ele>94.0</ele><time>2026-04-29T15:25:56.78Z</time></trkpt><trkpt lat="44.1726747" lon="9.7545034"><ele>94.0</ele><time>2026-04-29T15:25:57.779Z</time></trkpt><trkpt lat="44.1725344" lon="9.7545792"><ele>94.0</ele><time>2026-04-29T15:25:58.779Z</time></trkpt><trkpt lat="44.1723797" lon="9.7546598"><ele>95.0</ele><time>2026-04-29T15:25:59.778Z</time></trkpt><trkpt lat="44.1722404" lon="9.7547307"><ele>96.0</ele><time>2026-04-29T15:26:00.778Z</time></trkpt><trkpt lat="44.1721057" lon="9.7547993"><ele>97.0</ele><time>2026-04-29T15:26:01.78Z</time></trkpt><trkpt lat="44.1719755" lon="9.7548685"><ele>98.0</ele><time>2026-04-29T15:26:02.781Z</time></trkpt><trkpt lat="44.1718422" lon="9.7549392"><ele>98.0</ele><time>2026-04-29T15:26:03.78Z</time></trkpt><trkpt lat="44.1717205" lon="9.7550013"><ele>98.0</ele><time>2026-04-29T15:26:04.779Z</time></trkpt><trkpt lat="44.1716044" lon="9.7550606"><ele>98.0</ele><time>2026-04-29T15:26:05.779Z</time></trkpt><trkpt lat="44.1714966" lon="9.7551179"><ele>98.0</ele><time>2026-04-29T15:26:06.779Z</time></trkpt><trkpt lat="44.1713929" lon="9.7551718"><ele>98.60000000000001</ele><time>2026-04-29T15:26:07.778Z</time></trkpt><trkpt lat="44.1712906" lon="9.7552252"><ele>99.2</ele><time>2026-04-29T15:26:08.779Z</time></trkpt><trkpt lat="44.1711854" lon="9.7552801"><ele>99.8</ele><time>2026-04-29T15:26:09.78Z</time></trkpt><trkpt lat="44.1710823" lon="9.7553498"><ele>100.4</ele><time>2026-04-29T15:26:10.78Z</time></trkpt><trkpt lat="44.170988" lon="9.7554323"><ele>101.0</ele><time>2026-04-29T15:26:11.78Z</time></trkpt><trkpt lat="44.1708949" lon="9.755535"><ele>101.0</ele><time>2026-04-29T15:26:12.78Z</time></trkpt><trkpt lat="44.1708064" lon="9.7556581"><ele>101.0</ele><time>2026-04-29T15:26:13.78Z</time></trkpt><trkpt lat="44.1707134" lon="9.7558024"><ele>101.0</ele><time>2026-04-29T15:26:14.781Z</time></trkpt><trkpt lat="44.1706184" lon="9.7559571"><ele>101.0</ele><time>2026-04-29T15:26:15.78Z</time></trkpt><trkpt lat="44.1705194" lon="9.7561157"><ele>103.5</ele><time>2026-04-29T15:26:16.78Z</time></trkpt><trkpt lat="44.1704278" lon="9.7562583"><ele>106.0</ele><time>2026-04-29T15:26:17.779Z</time></trkpt><trkpt lat="44.1703399" lon="9.7563939"><ele>108.5</ele><time>2026-04-29T15:26:18.78Z</time></trkpt><trkpt lat="44.1702559" lon="9.7565211"><ele>111.0</ele><time>2026-04-29T15:26:19.78Z</time></trkpt><trkpt lat="44.170179" lon="9.7566382"><ele>111.0</ele><time>2026-04-29T15:26:20.78Z</time></trkpt><trkpt lat="44.1701048" lon="9.756747"><ele>111.0</ele><time>2026-04-29T15:26:21.78Z</time></trkpt><trkpt lat="44.1700321" lon="9.7568582"><ele>111.0</ele><time>2026-04-29T15:26:22.78Z</time></trkpt><trkpt lat="44.1699611" lon="9.7569676"><ele>111.0</ele><time>2026-04-29T15:26:23.78Z</time></trkpt><trkpt lat="44.1698934" lon="9.7570681"><ele>111.0</ele><time>2026-04-29T15:26:24.78Z</time></trkpt><trkpt lat="44.1698267" lon="9.7571534"><ele>110.66666666666667</ele><time>2026-04-29T15:26:25.78Z</time></trkpt><trkpt lat="44.1697511" lon="9.7572132"><ele>110.33333333333334</ele><time>2026-04-29T15:26:26.783Z</time></trkpt><trkpt lat="44.1696648" lon="9.7572352"><ele>110.0</ele><time>2026-04-29T15:26:27.781Z</time></trkpt><trkpt lat="44.1695779" lon="9.7572146"><ele>109.66666666666667</ele><time>2026-04-29T15:26:28.78Z</time></trkpt><trkpt lat="44.1694983" lon="9.7571543"><ele>109.33333333333334</ele><time>2026-04-29T15:26:29.78Z</time></trkpt><trkpt lat="44.1694294" lon="9.7570642"><ele>109.0</ele><time>2026-04-29T15:26:30.779Z</time></trkpt><trkpt lat="44.1693657" lon="9.7569631"><ele>109.0</ele><time>2026-04-29T15:26:31.779Z</time></trkpt><trkpt lat="44.1692909" lon="9.7568772"><ele>109.0</ele><time>2026-04-29T15:26:32.781Z</time></trkpt><trkpt lat="44.1691967" lon="9.7568319"><ele>109.0</ele><time>2026-04-29T15:26:33.777Z</time></trkpt><trkpt lat="44.1690864" lon="9.7568075"><ele>109.0</ele><time>2026-04-29T15:26:34.78Z</time></trkpt><trkpt lat="44.1689687" lon="9.756803"><ele>109.0</ele><time>2026-04-29T15:26:35.779Z</time></trkpt><trkpt lat="44.1688598" lon="9.756824"><ele>111.80000000000001</ele><time>2026-04-29T15:26:36.779Z</time></trkpt><trkpt lat="44.1687631" lon="9.7568667"><ele>114.60000000000001</ele><time>2026-04-29T15:26:37.78Z</time></trkpt><trkpt lat="44.1686792" lon="9.7569354"><ele>117.4</ele><time>2026-04-29T15:26:38.782Z</time></trkpt><trkpt lat="44.1686082" lon="9.7570441"><ele>120.2</ele><time>2026-04-29T15:26:39.78Z</time></trkpt><trkpt lat="44.1685443" lon="9.7571932"><ele>123.0</ele><time>2026-04-29T15:26:40.78Z</time></trkpt><trkpt lat="44.1684812" lon="9.7573789"><ele>123.0</ele><time>2026-04-29T15:26:41.78Z</time></trkpt><trkpt lat="44.1684145" lon="9.7575964"><ele>123.0</ele><time>2026-04-29T15:26:42.78Z</time></trkpt><trkpt lat="44.1683396" lon="9.7578469"><ele>123.0</ele><time>2026-04-29T15:26:43.779Z</time></trkpt><trkpt lat="44.1682728" lon="9.7580862"><ele>122.0</ele><time>2026-04-29T15:26:44.779Z</time></trkpt><trkpt lat="44.168213" lon="9.7582969"><ele>121.0</ele><time>2026-04-29T15:26:45.781Z</time></trkpt><trkpt lat="44.1681497" lon="9.7584704"><ele>120.0</ele><time>2026-04-29T15:26:46.78Z</time></trkpt><trkpt lat="44.1680688" lon="9.7585919"><ele>119.0</ele><time>2026-04-29T15:26:47.78Z</time></trkpt><trkpt lat="44.1679671" lon="9.7586629"><ele>123.5</ele><time>2026-04-29T15:26:48.78Z</time></trkpt><trkpt lat="44.1678528" lon="9.7586709"><ele>128.0</ele><time>2026-04-29T15:26:49.78Z</time></trkpt><trkpt lat="44.1677224" lon="9.7586275"><ele>132.5</ele><time>2026-04-29T15:26:50.779Z</time></trkpt><trkpt lat="44.1675577" lon="9.7585584"><ele>137.0</ele><time>2026-04-29T15:26:51.781Z</time></trkpt><trkpt lat="44.1673515" lon="9.7584756"><ele>137.0</ele><time>2026-04-29T15:26:52.781Z</time></trkpt><trkpt lat="44.1671447" lon="9.7583951"><ele>137.0</ele><time>2026-04-29T15:26:53.78Z</time></trkpt><trkpt lat="44.1669455" lon="9.758335"><ele>137.0</ele><time>2026-04-29T15:26:54.779Z</time></trkpt><trkpt lat="44.1667518" lon="9.7583292"><ele>137.0</ele><time>2026-04-29T15:26:55.778Z</time></trkpt><trkpt lat="44.1665511" lon="9.7583596"><ele>137.0</ele><time>2026-04-29T15:26:56.779Z</time></trkpt><trkpt lat="44.1663591" lon="9.7584284"><ele>137.0</ele><time>2026-04-29T15:26:57.779Z</time></trkpt><trkpt lat="44.1661777" lon="9.7585533"><ele>136.5</ele><time>2026-04-29T15:26:58.777Z</time></trkpt><trkpt lat="44.1660002" lon="9.7587232"><ele>136.0</ele><time>2026-04-29T15:26:59.781Z</time></trkpt><trkpt lat="44.1658107" lon="9.7589242"><ele>135.66666666666669</ele><time>2026-04-29T15:27:00.779Z</time></trkpt><trkpt lat="44.165634" lon="9.7591235"><ele>135.33333333333334</ele><time>2026-04-29T15:27:01.78Z</time></trkpt><trkpt lat="44.1654851" lon="9.7593043"><ele>135.0</ele><time>2026-04-29T15:27:02.778Z</time></trkpt><trkpt lat="44.1653556" lon="9.7594518"><ele>135.0</ele><time>2026-04-29T15:27:03.778Z</time></trkpt><trkpt lat="44.1652369" lon="9.7595796"><ele>135.0</ele><time>2026-04-29T15:27:04.78Z</time></trkpt><trkpt lat="44.1651187" lon="9.7596734"><ele>135.0</ele><time>2026-04-29T15:27:05.783Z</time></trkpt><trkpt lat="44.1649956" lon="9.7597209"><ele>135.0</ele><time>2026-04-29T15:27:06.78Z</time></trkpt><trkpt lat="44.1648709" lon="9.7597117"><ele>135.25</ele><time>2026-04-29T15:27:07.779Z</time></trkpt><trkpt lat="44.1647563" lon="9.7596484"><ele>135.5</ele><time>2026-04-29T15:27:08.78Z</time></trkpt><trkpt lat="44.1646605" lon="9.7595339"><ele>135.75</ele><time>2026-04-29T15:27:09.779Z</time></trkpt><trkpt lat="44.1645906" lon="9.7593737"><ele>136.0</ele><time>2026-04-29T15:27:10.78Z</time></trkpt><trkpt lat="44.1645191" lon="9.759169"><ele>136.0</ele><time>2026-04-29T15:27:11.778Z</time></trkpt><trkpt lat="44.1644231" lon="9.7589641"><ele>136.0</ele><time>2026-04-29T15:27:12.779Z</time></trkpt><trkpt lat="44.1643" lon="9.7587582"><ele>136.0</ele><time>2026-04-29T15:27:13.78Z</time></trkpt><trkpt lat="44.164146" lon="9.7585519"><ele>133.33333333333334</ele><time>2026-04-29T15:27:14.779Z</time></trkpt><trkpt lat="44.1639734" lon="9.7583478"><ele>130.66666666666666</ele><time>2026-04-29T15:27:15.779Z</time></trkpt><trkpt lat="44.1638039" lon="9.758165"><ele>128.0</ele><time>2026-04-29T15:27:16.779Z</time></trkpt><trkpt lat="44.1636497" lon="9.7579939"><ele>128.0</ele><time>2026-04-29T15:27:17.781Z</time></trkpt><trkpt lat="44.1635148" lon="9.7578452"><ele>128.0</ele><time>2026-04-29T15:27:18.781Z</time></trkpt><trkpt lat="44.163391" lon="9.7577207"><ele>128.0</ele><time>2026-04-29T15:27:19.779Z</time></trkpt><trkpt lat="44.1632714" lon="9.7576278"><ele>128.5</ele><time>2026-04-29T15:27:20.78Z</time></trkpt><trkpt lat="44.1631429" lon="9.7575734"><ele>129.0</ele><time>2026-04-29T15:27:21.778Z</time></trkpt><trkpt lat="44.1630148" lon="9.7575834"><ele>129.5</ele><time>2026-04-29T15:27:22.779Z</time></trkpt><trkpt lat="44.1628929" lon="9.7576315"><ele>130.0</ele><time>2026-04-29T15:27:23.78Z</time></trkpt><trkpt lat="44.1627622" lon="9.757734"><ele>130.0</ele><time>2026-04-29T15:27:24.781Z</time></trkpt><trkpt lat="44.1626137" lon="9.7578588"><ele>130.0</ele><time>2026-04-29T15:27:25.78Z</time></trkpt><trkpt lat="44.1624565" lon="9.7579937"><ele>130.0</ele><time>2026-04-29T15:27:26.779Z</time></trkpt><trkpt lat="44.1622936" lon="9.7581281"><ele>129.66666666666669</ele><time>2026-04-29T15:27:27.78Z</time></trkpt><trkpt lat="44.1621278" lon="9.7582633"><ele>129.33333333333334</ele><time>2026-04-29T15:27:28.779Z</time></trkpt><trkpt lat="44.161969" lon="9.758398"><ele>129.0</ele><time>2026-04-29T15:27:29.782Z</time></trkpt><trkpt lat="44.1618167" lon="9.7585258"><ele>130.33333333333334</ele><time>2026-04-29T15:27:30.779Z</time></trkpt><trkpt lat="44.1616702" lon="9.7586478"><ele>131.66666666666669</ele><time>2026-04-29T15:27:31.781Z</time></trkpt><trkpt lat="44.1615298" lon="9.7587623"><ele>133.0</ele><time>2026-04-29T15:27:32.781Z</time></trkpt><trkpt lat="44.1613999" lon="9.7588729"><ele>133.0</ele><time>2026-04-29T15:27:33.779Z</time></trkpt><trkpt lat="44.1612698" lon="9.7589847"><ele>133.0</ele><time>2026-04-29T15:27:34.777Z</time></trkpt><trkpt lat="44.1611379" lon="9.7590974"><ele>133.0</ele><time>2026-04-29T15:27:35.778Z</time></trkpt><trkpt lat="44.1610044" lon="9.7592113"><ele>133.0</ele><time>2026-04-29T15:27:36.783Z</time></trkpt><trkpt lat="44.1608742" lon="9.7593214"><ele>133.0</ele><time>2026-04-29T15:27:37.781Z</time></trkpt><trkpt lat="44.1607545" lon="9.7594219"><ele>133.0</ele><time>2026-04-29T15:27:38.782Z</time></trkpt><trkpt lat="44.1606415" lon="9.759517"><ele>133.0</ele><time>2026-04-29T15:27:39.781Z</time></trkpt><trkpt lat="44.1605345" lon="9.7596061"><ele>134.0</ele><time>2026-04-29T15:27:40.779Z</time></trkpt><trkpt lat="44.1604362" lon="9.7596883"><ele>135.0</ele><time>2026-04-29T15:27:41.78Z</time></trkpt><trkpt lat="44.1603439" lon="9.7597638"><ele>136.0</ele><time>2026-04-29T15:27:42.778Z</time></trkpt><trkpt lat="44.1602553" lon="9.759838"><ele>137.0</ele><time>2026-04-29T15:27:43.778Z</time></trkpt><trkpt lat="44.1601691" lon="9.759909"><ele>138.0</ele><time>2026-04-29T15:27:44.782Z</time></trkpt><trkpt lat="44.1600829" lon="9.7599834"><ele>138.0</ele><time>2026-04-29T15:27:45.78Z</time></trkpt><trkpt lat="44.1600006" lon="9.7600532"><ele>138.0</ele><time>2026-04-29T15:27:46.779Z</time></trkpt><trkpt lat="44.159922" lon="9.7601214"><ele>138.0</ele><time>2026-04-29T15:27:47.78Z</time></trkpt><trkpt lat="44.1598398" lon="9.7601921"><ele>138.0</ele><time>2026-04-29T15:27:48.78Z</time></trkpt><trkpt lat="44.1597528" lon="9.7602668"><ele>138.0</ele><time>2026-04-29T15:27:49.781Z</time></trkpt><trkpt lat="44.1596608" lon="9.7603456"><ele>138.6</ele><time>2026-04-29T15:27:50.78Z</time></trkpt><trkpt lat="44.1595677" lon="9.7604235"><ele>139.20000000000002</ele><time>2026-04-29T15:27:51.782Z</time></trkpt><trkpt lat="44.1594738" lon="9.7605011"><ele>139.8</ele><time>2026-04-29T15:27:52.782Z</time></trkpt><trkpt lat="44.1593856" lon="9.7605735"><ele>140.4</ele><time>2026-04-29T15:27:53.78Z</time></trkpt><trkpt lat="44.1593043" lon="9.7606439"><ele>141.0</ele><time>2026-04-29T15:27:54.778Z</time></trkpt><trkpt lat="44.1592262" lon="9.7607103"><ele>141.0</ele><time>2026-04-29T15:27:55.779Z</time></trkpt><trkpt lat="44.1591468" lon="9.7607756"><ele>141.0</ele><time>2026-04-29T15:27:56.779Z</time></trkpt><trkpt lat="44.1590635" lon="9.7608422"><ele>141.0</ele><time>2026-04-29T15:27:57.779Z</time></trkpt><trkpt lat="44.158977" lon="9.7609184"><ele>141.0</ele><time>2026-04-29T15:27:58.781Z</time></trkpt><trkpt lat="44.1588861" lon="9.7609975"><ele>141.0</ele><time>2026-04-29T15:27:59.781Z</time></trkpt><trkpt lat="44.1587918" lon="9.7610745"><ele>141.25</ele><time>2026-04-29T15:28:00.781Z</time></trkpt><trkpt lat="44.158695" lon="9.761156"><ele>141.5</ele><time>2026-04-29T15:28:01.78Z</time></trkpt><trkpt lat="44.1585982" lon="9.7612419"><ele>141.75</ele><time>2026-04-29T15:28:02.779Z</time></trkpt><trkpt lat="44.1584988" lon="9.7613241"><ele>142.0</ele><time>2026-04-29T15:28:03.781Z</time></trkpt><trkpt lat="44.1584034" lon="9.7614081"><ele>142.0</ele><time>2026-04-29T15:28:04.781Z</time></trkpt><trkpt lat="44.1583051" lon="9.7614933"><ele>142.0</ele><time>2026-04-29T15:28:05.779Z</time></trkpt><trkpt lat="44.1581999" lon="9.7615778"><ele>142.0</ele><time>2026-04-29T15:28:06.779Z</time></trkpt><trkpt lat="44.1580916" lon="9.7616673"><ele>142.0</ele><time>2026-04-29T15:28:07.781Z</time></trkpt><trkpt lat="44.1579776" lon="9.7617626"><ele>142.0</ele><time>2026-04-29T15:28:08.779Z</time></trkpt><trkpt lat="44.1578579" lon="9.7618625"><ele>142.0</ele><time>2026-04-29T15:28:09.78Z</time></trkpt><trkpt lat="44.1577336" lon="9.761963"><ele>142.0</ele><time>2026-04-29T15:28:10.781Z</time></trkpt><trkpt lat="44.1576069" lon="9.762068"><ele>142.0</ele><time>2026-04-29T15:28:11.781Z</time></trkpt><trkpt lat="44.1574806" lon="9.7621705"><ele>141.5</ele><time>2026-04-29T15:28:12.78Z</time></trkpt><trkpt lat="44.1573594" lon="9.7622682"><ele>141.0</ele><time>2026-04-29T15:28:13.78Z</time></trkpt><trkpt lat="44.1572408" lon="9.7623702"><ele>140.5</ele><time>2026-04-29T15:28:14.779Z</time></trkpt><trkpt lat="44.1571218" lon="9.7624701"><ele>140.0</ele><time>2026-04-29T15:28:15.779Z</time></trkpt><trkpt lat="44.1570017" lon="9.7625706"><ele>140.0</ele><time>2026-04-29T15:28:16.781Z</time></trkpt><trkpt lat="44.1568821" lon="9.7626699"><ele>140.0</ele><time>2026-04-29T15:28:17.78Z</time></trkpt><trkpt lat="44.156762" lon="9.7627681"><ele>140.0</ele><time>2026-04-29T15:28:18.778Z</time></trkpt><trkpt lat="44.1566418" lon="9.7628686"><ele>140.0</ele><time>2026-04-29T15:28:19.78Z</time></trkpt><trkpt lat="44.1565208" lon="9.7629662"><ele>140.75</ele><time>2026-04-29T15:28:20.78Z</time></trkpt><trkpt lat="44.1563974" lon="9.7630665"><ele>141.5</ele><time>2026-04-29T15:28:21.778Z</time></trkpt><trkpt lat="44.1562738" lon="9.7631699"><ele>142.25</ele><time>2026-04-29T15:28:22.78Z</time></trkpt><trkpt lat="44.1561552" lon="9.7632702"><ele>143.0</ele><time>2026-04-29T15:28:23.781Z</time></trkpt><trkpt lat="44.1560413" lon="9.7633662"><ele>143.0</ele><time>2026-04-29T15:28:24.782Z</time></trkpt><trkpt lat="44.1559311" lon="9.7634574"><ele>143.0</ele><time>2026-04-29T15:28:25.781Z</time></trkpt><trkpt lat="44.1558284" lon="9.7635446"><ele>143.0</ele><time>2026-04-29T15:28:26.78Z</time></trkpt><trkpt lat="44.1557301" lon="9.7636277"><ele>143.0</ele><time>2026-04-29T15:28:27.78Z</time></trkpt><trkpt lat="44.1556322" lon="9.7637092"><ele>143.0</ele><time>2026-04-29T15:28:28.78Z</time></trkpt><trkpt lat="44.1555358" lon="9.763793"><ele>143.0</ele><time>2026-04-29T15:28:29.782Z</time></trkpt><trkpt lat="44.1554384" lon="9.7638755"><ele>143.0</ele><time>2026-04-29T15:28:30.782Z</time></trkpt><trkpt lat="44.1553377" lon="9.7639605"><ele>143.0</ele><time>2026-04-29T15:28:31.781Z</time></trkpt><trkpt lat="44.1552319" lon="9.7640443"><ele>143.0</ele><time>2026-04-29T15:28:32.78Z</time></trkpt><trkpt lat="44.1551256" lon="9.7641342"><ele>143.0</ele><time>2026-04-29T15:28:33.778Z</time></trkpt><trkpt lat="44.1550208" lon="9.7642272"><ele>143.0</ele><time>2026-04-29T15:28:34.781Z</time></trkpt><trkpt lat="44.1549222" lon="9.7643079"><ele>143.0</ele><time>2026-04-29T15:28:35.778Z</time></trkpt><trkpt lat="44.1548308" lon="9.7643803"><ele>143.85714285714283</ele><time>2026-04-29T15:28:36.781Z</time></trkpt><trkpt lat="44.1547494" lon="9.7644402"><ele>144.71428571428572</ele><time>2026-04-29T15:28:37.781Z</time></trkpt><trkpt lat="44.1546826" lon="9.7644888"><ele>145.57142857142856</ele><time>2026-04-29T15:28:38.78Z</time></trkpt><trkpt lat="44.1546256" lon="9.76453"><ele>146.42857142857142</ele><time>2026-04-29T15:28:39.783Z</time></trkpt><trkpt lat="44.1545673" lon="9.7645656"><ele>147.28571428571428</ele><time>2026-04-29T15:28:40.78Z</time></trkpt><trkpt lat="44.154508" lon="9.7645971"><ele>148.14285714285714</ele><time>2026-04-29T15:28:41.779Z</time></trkpt><trkpt lat="44.154448" lon="9.7646262"><ele>149.0</ele><time>2026-04-29T15:28:42.782Z</time></trkpt><trkpt lat="44.1543845" lon="9.7646585"><ele>149.0</ele><time>2026-04-29T15:28:43.781Z</time></trkpt><trkpt lat="44.1543154" lon="9.7646924"><ele>149.0</ele><time>2026-04-29T15:28:44.78Z</time></trkpt><trkpt lat="44.1542377" lon="9.7647321"><ele>149.0</ele><time>2026-04-29T15:28:45.779Z</time></trkpt><trkpt lat="44.1541519" lon="9.7647723"><ele>149.0</ele><time>2026-04-29T15:28:46.78Z</time></trkpt><trkpt lat="44.1540689" lon="9.7648064"><ele>149.0</ele><time>2026-04-29T15:28:47.783Z</time></trkpt><trkpt lat="44.1539902" lon="9.7648441"><ele>149.0</ele><time>2026-04-29T15:28:48.779Z</time></trkpt><trkpt lat="44.1539101" lon="9.764882"><ele>149.0</ele><time>2026-04-29T15:28:49.781Z</time></trkpt><trkpt lat="44.1538287" lon="9.7649209"><ele>149.0</ele><time>2026-04-29T15:28:50.78Z</time></trkpt><trkpt lat="44.1537459" lon="9.7649599"><ele>149.0</ele><time>2026-04-29T15:28:51.781Z</time></trkpt><trkpt lat="44.1536609" lon="9.7649989"><ele>149.0</ele><time>2026-04-29T15:28:52.782Z</time></trkpt><trkpt lat="44.1535703" lon="9.7650419"><ele>149.0</ele><time>2026-04-29T15:28:53.78Z</time></trkpt><trkpt lat="44.1534694" lon="9.7650896"><ele>149.0</ele><time>2026-04-29T15:28:54.78Z</time></trkpt><trkpt lat="44.1533588" lon="9.7651438"><ele>149.0</ele><time>2026-04-29T15:28:55.781Z</time></trkpt><trkpt lat="44.1532444" lon="9.7651991"><ele>149.0</ele><time>2026-04-29T15:28:56.782Z</time></trkpt><trkpt lat="44.1531357" lon="9.7652546"><ele>149.0</ele><time>2026-04-29T15:28:57.78Z</time></trkpt><trkpt lat="44.153036" lon="9.7653043"><ele>151.4</ele><time>2026-04-29T15:28:58.781Z</time></trkpt><trkpt lat="44.1529424" lon="9.7653489"><ele>153.8</ele><time>2026-04-29T15:28:59.779Z</time></trkpt><trkpt lat="44.1528524" lon="9.7653905"><ele>156.20000000000002</ele><time>2026-04-29T15:29:00.78Z</time></trkpt><trkpt lat="44.152766" lon="9.7654342"><ele>158.60000000000002</ele><time>2026-04-29T15:29:01.779Z</time></trkpt><trkpt lat="44.1526758" lon="9.7654807"><ele>161.0</ele><time>2026-04-29T15:29:02.779Z</time></trkpt><trkpt lat="44.1525845" lon="9.7655257"><ele>161.0</ele><time>2026-04-29T15:29:03.78Z</time></trkpt><trkpt lat="44.1524875" lon="9.765572"><ele>161.0</ele><time>2026-04-29T15:29:04.782Z</time></trkpt><trkpt lat="44.1523865" lon="9.7656191"><ele>161.0</ele><time>2026-04-29T15:29:05.78Z</time></trkpt><trkpt lat="44.1522833" lon="9.7656683"><ele>161.0</ele><time>2026-04-29T15:29:06.78Z</time></trkpt><trkpt lat="44.1521734" lon="9.7657122"><ele>161.0</ele><time>2026-04-29T15:29:07.781Z</time></trkpt><trkpt lat="44.1520572" lon="9.7657442"><ele>162.75</ele><time>2026-04-29T15:29:08.782Z</time></trkpt><trkpt lat="44.1519311" lon="9.7657633"><ele>164.5</ele><time>2026-04-29T15:29:09.781Z</time></trkpt><trkpt lat="44.1517983" lon="9.7657686"><ele>166.25</ele><time>2026-04-29T15:29:10.78Z</time></trkpt><trkpt lat="44.1516635" lon="9.7657682"><ele>168.0</ele><time>2026-04-29T15:29:11.78Z</time></trkpt><trkpt lat="44.1515384" lon="9.7657637"><ele>169.0</ele><time>2026-04-29T15:29:12.78Z</time></trkpt><trkpt lat="44.1514127" lon="9.7657541"><ele>170.0</ele><time>2026-04-29T15:29:13.78Z</time></trkpt><trkpt lat="44.1512854" lon="9.7657355"><ele>171.0</ele><time>2026-04-29T15:29:14.78Z</time></trkpt><trkpt lat="44.1511546" lon="9.7657085"><ele>172.0</ele><time>2026-04-29T15:29:15.78Z</time></trkpt><trkpt lat="44.1510198" lon="9.7656755"><ele>172.0</ele><time>2026-04-29T15:29:16.78Z</time></trkpt><trkpt lat="44.1508798" lon="9.7656546"><ele>172.0</ele><time>2026-04-29T15:29:17.78Z</time></trkpt><trkpt lat="44.1507361" lon="9.7656566"><ele>172.0</ele><time>2026-04-29T15:29:18.78Z</time></trkpt><trkpt lat="44.1505886" lon="9.7656748"><ele>172.0</ele><time>2026-04-29T15:29:19.779Z</time></trkpt><trkpt lat="44.1504444" lon="9.7657047"><ele>173.0</ele><time>2026-04-29T15:29:20.781Z</time></trkpt><trkpt lat="44.1503116" lon="9.7657389"><ele>174.0</ele><time>2026-04-29T15:29:21.78Z</time></trkpt><trkpt lat="44.1501776" lon="9.7657897"><ele>175.0</ele><time>2026-04-29T15:29:22.781Z</time></trkpt><trkpt lat="44.1500465" lon="9.7658612"><ele>176.0</ele><time>2026-04-29T15:29:23.782Z</time></trkpt><trkpt lat="44.1499178" lon="9.7659472"><ele>178.5</ele><time>2026-04-29T15:29:24.78Z</time></trkpt><trkpt lat="44.1497966" lon="9.7660498"><ele>181.0</ele><time>2026-04-29T15:29:25.78Z</time></trkpt><trkpt lat="44.149678" lon="9.7661629"><ele>183.5</ele><time>2026-04-29T15:29:26.778Z</time></trkpt><trkpt lat="44.1495601" lon="9.7662643"><ele>186.0</ele><time>2026-04-29T15:29:27.778Z</time></trkpt><trkpt lat="44.1494408" lon="9.7663408"><ele>186.0</ele><time>2026-04-29T15:29:28.778Z</time></trkpt><trkpt lat="44.1493153" lon="9.7663903"><ele>186.0</ele><time>2026-04-29T15:29:29.781Z</time></trkpt><trkpt lat="44.1491852" lon="9.7664151"><ele>186.0</ele><time>2026-04-29T15:29:30.781Z</time></trkpt><trkpt lat="44.1490546" lon="9.7664448"><ele>186.0</ele><time>2026-04-29T15:29:31.782Z</time></trkpt><trkpt lat="44.1489264" lon="9.7665006"><ele>185.75</ele><time>2026-04-29T15:29:32.779Z</time></trkpt><trkpt lat="44.148803" lon="9.7665684"><ele>185.5</ele><time>2026-04-29T15:29:33.78Z</time></trkpt><trkpt lat="44.1486952" lon="9.7666339"><ele>185.25</ele><time>2026-04-29T15:29:34.779Z</time></trkpt><trkpt lat="44.1485984" lon="9.7666894"><ele>185.0</ele><time>2026-04-29T15:29:35.779Z</time></trkpt><trkpt lat="44.1484998" lon="9.7667305"><ele>185.0</ele><time>2026-04-29T15:29:36.78Z</time></trkpt><trkpt lat="44.1483966" lon="9.7667395"><ele>185.0</ele><time>2026-04-29T15:29:37.791Z</time></trkpt><trkpt lat="44.1482931" lon="9.7667188"><ele>185.0</ele><time>2026-04-29T15:29:38.78Z</time></trkpt><trkpt lat="44.1481944" lon="9.7666666"><ele>185.0</ele><time>2026-04-29T15:29:39.781Z</time></trkpt><trkpt lat="44.1481003" lon="9.766593"><ele>185.0</ele><time>2026-04-29T15:29:40.78Z</time></trkpt><trkpt lat="44.1479984" lon="9.7665168"><ele>185.0</ele><time>2026-04-29T15:29:41.78Z</time></trkpt><trkpt lat="44.1478892" lon="9.766454"><ele>185.0</ele><time>2026-04-29T15:29:42.781Z</time></trkpt><trkpt lat="44.1477779" lon="9.7663993"><ele>185.0</ele><time>2026-04-29T15:29:43.781Z</time></trkpt><trkpt lat="44.1476657" lon="9.766351"><ele>185.0</ele><time>2026-04-29T15:29:44.779Z</time></trkpt><trkpt lat="44.1475539" lon="9.766304"><ele>185.0</ele><time>2026-04-29T15:29:45.78Z</time></trkpt><trkpt lat="44.1474468" lon="9.7662585"><ele>185.0</ele><time>2026-04-29T15:29:46.78Z</time></trkpt><trkpt lat="44.1473412" lon="9.766212"><ele>185.0</ele><time>2026-04-29T15:29:47.781Z</time></trkpt><trkpt lat="44.1472369" lon="9.7661667"><ele>185.0</ele><time>2026-04-29T15:29:48.779Z</time></trkpt><trkpt lat="44.147134" lon="9.7661234"><ele>185.0</ele><time>2026-04-29T15:29:49.781Z</time></trkpt><trkpt lat="44.1470386" lon="9.7660836"><ele>185.8</ele><time>2026-04-29T15:29:50.78Z</time></trkpt><trkpt lat="44.1469448" lon="9.7660543"><ele>186.6</ele><time>2026-04-29T15:29:51.779Z</time></trkpt><trkpt lat="44.1468507" lon="9.7660489"><ele>187.39999999999998</ele><time>2026-04-29T15:29:52.782Z</time></trkpt><trkpt lat="44.1467589" lon="9.7660624"><ele>188.2</ele><time>2026-04-29T15:29:53.783Z</time></trkpt><trkpt lat="44.1466647" lon="9.7660973"><ele>189.0</ele><time>2026-04-29T15:29:54.781Z</time></trkpt><trkpt lat="44.1465683" lon="9.7661431"><ele>188.39999999999998</ele><time>2026-04-29T15:29:55.78Z</time></trkpt><trkpt lat="44.1464693" lon="9.7661955"><ele>187.8</ele><time>2026-04-29T15:29:56.78Z</time></trkpt><trkpt lat="44.1463762" lon="9.7662722"><ele>187.2</ele><time>2026-04-29T15:29:57.78Z</time></trkpt><trkpt lat="44.1463051" lon="9.766388"><ele>186.60000000000002</ele><time>2026-04-29T15:29:58.782Z</time></trkpt><trkpt lat="44.1462526" lon="9.7665214"><ele>186.0</ele><time>2026-04-29T15:29:59.781Z</time></trkpt><trkpt lat="44.1462136" lon="9.766667"><ele>186.0</ele><time>2026-04-29T15:30:00.78Z</time></trkpt><trkpt lat="44.1461699" lon="9.7668147"><ele>186.0</ele><time>2026-04-29T15:30:01.778Z</time></trkpt><trkpt lat="44.1461078" lon="9.7669521"><ele>186.0</ele><time>2026-04-29T15:30:02.78Z</time></trkpt><trkpt lat="44.1460291" lon="9.7670741"><ele>186.0</ele><time>2026-04-29T15:30:03.78Z</time></trkpt><trkpt lat="44.1459447" lon="9.7671899"><ele>186.4</ele><time>2026-04-29T15:30:04.779Z</time></trkpt><trkpt lat="44.1458693" lon="9.7673105"><ele>186.8</ele><time>2026-04-29T15:30:05.779Z</time></trkpt><trkpt lat="44.1458047" lon="9.7674391"><ele>187.20000000000002</ele><time>2026-04-29T15:30:06.782Z</time></trkpt><trkpt lat="44.1457439" lon="9.7675682"><ele>187.60000000000002</ele><time>2026-04-29T15:30:07.781Z</time></trkpt><trkpt lat="44.1456763" lon="9.7676838"><ele>188.0</ele><time>2026-04-29T15:30:08.781Z</time></trkpt><trkpt lat="44.1455916" lon="9.7677847"><ele>189.25</ele><time>2026-04-29T15:30:09.78Z</time></trkpt><trkpt lat="44.1454908" lon="9.76786"><ele>190.5</ele><time>2026-04-29T15:30:10.781Z</time></trkpt><trkpt lat="44.1453801" lon="9.767915"><ele>191.75</ele><time>2026-04-29T15:30:11.779Z</time></trkpt><trkpt lat="44.1452693" lon="9.7679658"><ele>193.0</ele><time>2026-04-29T15:30:12.778Z</time></trkpt><trkpt lat="44.1451725" lon="9.7680294"><ele>193.0</ele><time>2026-04-29T15:30:13.781Z</time></trkpt><trkpt lat="44.1450928" lon="9.7681261"><ele>193.0</ele><time>2026-04-29T15:30:14.778Z</time></trkpt><trkpt lat="44.1450328" lon="9.7682555"><ele>193.0</ele><time>2026-04-29T15:30:15.782Z</time></trkpt><trkpt lat="44.14499" lon="9.7684065"><ele>193.0</ele><time>2026-04-29T15:30:16.778Z</time></trkpt><trkpt lat="44.1449548" lon="9.7685722"><ele>193.5</ele><time>2026-04-29T15:30:17.779Z</time></trkpt><trkpt lat="44.1449121" lon="9.7687359"><ele>194.0</ele><time>2026-04-29T15:30:18.779Z</time></trkpt><trkpt lat="44.1448564" lon="9.7688788"><ele>194.5</ele><time>2026-04-29T15:30:19.782Z</time></trkpt><trkpt lat="44.1447854" lon="9.7689945"><ele>195.0</ele><time>2026-04-29T15:30:20.783Z</time></trkpt><trkpt lat="44.1447026" lon="9.7690807"><ele>195.25</ele><time>2026-04-29T15:30:21.779Z</time></trkpt><trkpt lat="44.144604" lon="9.769129"><ele>195.5</ele><time>2026-04-29T15:30:22.78Z</time></trkpt><trkpt lat="44.1444942" lon="9.7691391"><ele>195.75</ele><time>2026-04-29T15:30:23.779Z</time></trkpt><trkpt lat="44.14438" lon="9.7691129"><ele>196.0</ele><time>2026-04-29T15:30:24.779Z</time></trkpt><trkpt lat="44.144263" lon="9.769079"><ele>196.0</ele><time>2026-04-29T15:30:25.782Z</time></trkpt><trkpt lat="44.1441393" lon="9.769063"><ele>196.0</ele><time>2026-04-29T15:30:26.781Z</time></trkpt><trkpt lat="44.1440099" lon="9.7690706"><ele>196.0</ele><time>2026-04-29T15:30:27.78Z</time></trkpt><trkpt lat="44.1438777" lon="9.7690924"><ele>196.0</ele><time>2026-04-29T15:30:28.782Z</time></trkpt><trkpt lat="44.1437471" lon="9.769125"><ele>195.0</ele><time>2026-04-29T15:30:29.78Z</time></trkpt><trkpt lat="44.1436271" lon="9.7691706"><ele>194.0</ele><time>2026-04-29T15:30:30.78Z</time></trkpt><trkpt lat="44.1435187" lon="9.7692257"><ele>193.0</ele><time>2026-04-29T15:30:31.779Z</time></trkpt><trkpt lat="44.1434184" lon="9.7692913"><ele>192.0</ele><time>2026-04-29T15:30:32.781Z</time></trkpt><trkpt lat="44.1433226" lon="9.7693675"><ele>190.25</ele><time>2026-04-29T15:30:33.781Z</time></trkpt><trkpt lat="44.1432292" lon="9.7694625"><ele>188.5</ele><time>2026-04-29T15:30:34.781Z</time></trkpt><trkpt lat="44.1431471" lon="9.7695854"><ele>186.75</ele><time>2026-04-29T15:30:35.78Z</time></trkpt><trkpt lat="44.1430757" lon="9.7697289"><ele>185.0</ele><time>2026-04-29T15:30:36.779Z</time></trkpt><trkpt lat="44.1430172" lon="9.769889"><ele>185.0</ele><time>2026-04-29T15:30:37.779Z</time></trkpt><trkpt lat="44.1429687" lon="9.7700706"><ele>185.0</ele><time>2026-04-29T15:30:38.778Z</time></trkpt><trkpt lat="44.1429245" lon="9.7702596"><ele>185.0</ele><time>2026-04-29T15:30:39.779Z</time></trkpt><trkpt lat="44.1428824" lon="9.7704537"><ele>185.0</ele><time>2026-04-29T15:30:40.781Z</time></trkpt><trkpt lat="44.1428439" lon="9.7706348"><ele>186.25</ele><time>2026-04-29T15:30:41.781Z</time></trkpt><trkpt lat="44.1428023" lon="9.7708013"><ele>187.5</ele><time>2026-04-29T15:30:42.778Z</time></trkpt><trkpt lat="44.1427369" lon="9.7709424"><ele>188.75</ele><time>2026-04-29T15:30:43.779Z</time></trkpt><trkpt lat="44.1426547" lon="9.771051"><ele>190.0</ele><time>2026-04-29T15:30:44.779Z</time></trkpt><trkpt lat="44.1425518" lon="9.7711374"><ele>189.25</ele><time>2026-04-29T15:30:45.78Z</time></trkpt><trkpt lat="44.1424374" lon="9.7712228"><ele>188.5</ele><time>2026-04-29T15:30:46.781Z</time></trkpt><trkpt lat="44.1423283" lon="9.7713039"><ele>187.75</ele><time>2026-04-29T15:30:47.781Z</time></trkpt><trkpt lat="44.1422271" lon="9.7713834"><ele>187.0</ele><time>2026-04-29T15:30:48.78Z</time></trkpt><trkpt lat="44.1421369" lon="9.771463"><ele>187.0</ele><time>2026-04-29T15:30:49.779Z</time></trkpt><trkpt lat="44.1420631" lon="9.7715497"><ele>187.0</ele><time>2026-04-29T15:30:50.779Z</time></trkpt><trkpt lat="44.1420181" lon="9.7716603"><ele>187.0</ele><time>2026-04-29T15:30:51.782Z</time></trkpt><trkpt lat="44.1419991" lon="9.771788"><ele>187.0</ele><time>2026-04-29T15:30:52.78Z</time></trkpt><trkpt lat="44.1419931" lon="9.7719296"><ele>187.0</ele><time>2026-04-29T15:30:53.78Z</time></trkpt><trkpt lat="44.1419992" lon="9.7720805"><ele>187.8</ele><time>2026-04-29T15:30:54.781Z</time></trkpt><trkpt lat="44.1420218" lon="9.772223"><ele>188.6</ele><time>2026-04-29T15:30:55.78Z</time></trkpt><trkpt lat="44.1420586" lon="9.7723538"><ele>189.4</ele><time>2026-04-29T15:30:56.781Z</time></trkpt><trkpt lat="44.1420906" lon="9.7724811"><ele>190.20000000000002</ele><time>2026-04-29T15:30:57.779Z</time></trkpt><trkpt lat="44.1420984" lon="9.7726044"><ele>191.0</ele><time>2026-04-29T15:30:58.78Z</time></trkpt><trkpt lat="44.1420777" lon="9.7727136"><ele>191.5</ele><time>2026-04-29T15:30:59.78Z</time></trkpt><trkpt lat="44.1420307" lon="9.772799"><ele>192.0</ele><time>2026-04-29T15:31:00.78Z</time></trkpt><trkpt lat="44.1419602" lon="9.7728563"><ele>192.5</ele><time>2026-04-29T15:31:01.78Z</time></trkpt><trkpt lat="44.1418809" lon="9.7729031"><ele>193.0</ele><time>2026-04-29T15:31:02.778Z</time></trkpt><trkpt lat="44.1418143" lon="9.7729722"><ele>193.50000000000003</ele><time>2026-04-29T15:31:03.779Z</time></trkpt><trkpt lat="44.1417689" lon="9.7730709"><ele>194.0</ele><time>2026-04-29T15:31:04.78Z</time></trkpt><trkpt lat="44.1417517" lon="9.7731878"><ele>194.00000000000003</ele><time>2026-04-29T15:31:05.782Z</time></trkpt><trkpt lat="44.1417633" lon="9.7733102"><ele>194.0</ele><time>2026-04-29T15:31:06.781Z</time></trkpt><trkpt lat="44.1418004" lon="9.7734267"><ele>194.0</ele><time>2026-04-29T15:31:07.779Z</time></trkpt><trkpt lat="44.141849" lon="9.7735401"><ele>194.0</ele><time>2026-04-29T15:31:08.78Z</time></trkpt><trkpt lat="44.1418962" lon="9.773644"><ele>194.00000000000003</ele><time>2026-04-29T15:31:09.78Z</time></trkpt><trkpt lat="44.1419369" lon="9.7737431"><ele>194.0</ele><time>2026-04-29T15:31:10.781Z</time></trkpt><trkpt lat="44.141952" lon="9.7738474"><ele>195.00000000000003</ele><time>2026-04-29T15:31:11.781Z</time></trkpt><trkpt lat="44.1419306" lon="9.7739389"><ele>196.0</ele><time>2026-04-29T15:31:12.781Z</time></trkpt><trkpt lat="44.1418815" lon="9.7739959"><ele>197.0</ele><time>2026-04-29T15:31:13.78Z</time></trkpt><trkpt lat="44.1418109" lon="9.7740266"><ele>198.0</ele><time>2026-04-29T15:31:14.78Z</time></trkpt><trkpt lat="44.1417247" lon="9.7740242"><ele>199.00000000000003</ele><time>2026-04-29T15:31:15.78Z</time></trkpt><trkpt lat="44.1416275" lon="9.7740185"><ele>200.0</ele><time>2026-04-29T15:31:16.778Z</time></trkpt><trkpt lat="44.141519" lon="9.7740136"><ele>200.0</ele><time>2026-04-29T15:31:17.78Z</time></trkpt><trkpt lat="44.1414017" lon="9.7740113"><ele>200.0</ele><time>2026-04-29T15:31:18.781Z</time></trkpt><trkpt lat="44.1412731" lon="9.774008"><ele>200.0</ele><time>2026-04-29T15:31:19.781Z</time></trkpt><trkpt lat="44.1411506" lon="9.7740045"><ele>200.0</ele><time>2026-04-29T15:31:20.781Z</time></trkpt><trkpt lat="44.1410323" lon="9.7740033"><ele>200.0</ele><time>2026-04-29T15:31:21.778Z</time></trkpt><trkpt lat="44.1409138" lon="9.7740045"><ele>200.0</ele><time>2026-04-29T15:31:22.78Z</time></trkpt><trkpt lat="44.1407932" lon="9.7740057"><ele>200.0</ele><time>2026-04-29T15:31:23.779Z</time></trkpt><trkpt lat="44.1406695" lon="9.7740037"><ele>200.0</ele><time>2026-04-29T15:31:24.782Z</time></trkpt><trkpt lat="44.1405452" lon="9.7740005"><ele>200.75</ele><time>2026-04-29T15:31:25.781Z</time></trkpt><trkpt lat="44.1404173" lon="9.7739961"><ele>201.5</ele><time>2026-04-29T15:31:26.78Z</time></trkpt><trkpt lat="44.1402866" lon="9.7739929"><ele>202.25</ele><time>2026-04-29T15:31:27.78Z</time></trkpt><trkpt lat="44.1401507" lon="9.7739921"><ele>203.0</ele><time>2026-04-29T15:31:28.78Z</time></trkpt><trkpt lat="44.1400149" lon="9.77399"><ele>203.0</ele><time>2026-04-29T15:31:29.778Z</time></trkpt><trkpt lat="44.1398883" lon="9.7739924"><ele>203.0</ele><time>2026-04-29T15:31:30.781Z</time></trkpt><trkpt lat="44.139758" lon="9.7740054"><ele>203.0</ele><time>2026-04-29T15:31:31.781Z</time></trkpt><trkpt lat="44.1396243" lon="9.7740384"><ele>203.0</ele><time>2026-04-29T15:31:32.78Z</time></trkpt><trkpt lat="44.1394917" lon="9.7740955"><ele>201.0</ele><time>2026-04-29T15:31:33.78Z</time></trkpt><trkpt lat="44.1393608" lon="9.7741815"><ele>199.0</ele><time>2026-04-29T15:31:34.78Z</time></trkpt><trkpt lat="44.1392319" lon="9.774291"><ele>197.0</ele><time>2026-04-29T15:31:35.779Z</time></trkpt><trkpt lat="44.1391026" lon="9.7744184"><ele>196.66666666666669</ele><time>2026-04-29T15:31:36.781Z</time></trkpt><trkpt lat="44.1389739" lon="9.7745561"><ele>196.33333333333331</ele><time>2026-04-29T15:31:37.782Z</time></trkpt><trkpt lat="44.1388491" lon="9.7746904"><ele>196.0</ele><time>2026-04-29T15:31:38.781Z</time></trkpt><trkpt lat="44.1387281" lon="9.7748148"><ele>196.0</ele><time>2026-04-29T15:31:39.781Z</time></trkpt><trkpt lat="44.1386016" lon="9.7749322"><ele>196.0</ele><time>2026-04-29T15:31:40.78Z</time></trkpt><trkpt lat="44.138467" lon="9.7750334"><ele>196.0</ele><time>2026-04-29T15:31:41.779Z</time></trkpt><trkpt lat="44.1383242" lon="9.775123"><ele>205.0</ele><time>2026-04-29T15:31:42.78Z</time></trkpt><trkpt lat="44.1381756" lon="9.7751939"><ele>214.0</ele><time>2026-04-29T15:31:43.78Z</time></trkpt><trkpt lat="44.1380242" lon="9.7752409"><ele>223.0</ele><time>2026-04-29T15:31:44.781Z</time></trkpt><trkpt lat="44.1378847" lon="9.7752629"><ele>223.0</ele><time>2026-04-29T15:31:45.781Z</time></trkpt><trkpt lat="44.1377487" lon="9.7752742"><ele>223.0</ele><time>2026-04-29T15:31:46.779Z</time></trkpt><trkpt lat="44.1376123" lon="9.7752933"><ele>223.0</ele><time>2026-04-29T15:31:47.78Z</time></trkpt><trkpt lat="44.1374847" lon="9.7753224"><ele>223.0</ele><time>2026-04-29T15:31:48.779Z</time></trkpt><trkpt lat="44.1373693" lon="9.7753669"><ele>222.2</ele><time>2026-04-29T15:31:49.778Z</time></trkpt><trkpt lat="44.1372731" lon="9.7754351"><ele>221.4</ele><time>2026-04-29T15:31:50.779Z</time></trkpt><trkpt lat="44.1371996" lon="9.7755261"><ele>220.59999999999997</ele><time>2026-04-29T15:31:51.783Z</time></trkpt><trkpt lat="44.1371398" lon="9.7756333"><ele>219.79999999999998</ele><time>2026-04-29T15:31:52.781Z</time></trkpt><trkpt lat="44.1370713" lon="9.7757299"><ele>219.0</ele><time>2026-04-29T15:31:53.779Z</time></trkpt><trkpt lat="44.1369894" lon="9.7758084"><ele>219.0</ele><time>2026-04-29T15:31:54.78Z</time></trkpt><trkpt lat="44.1368982" lon="9.7758612"><ele>218.99999999999997</ele><time>2026-04-29T15:31:55.78Z</time></trkpt><trkpt lat="44.136797" lon="9.7758892"><ele>218.99999999999997</ele><time>2026-04-29T15:31:56.779Z</time></trkpt><trkpt lat="44.1366915" lon="9.7758981"><ele>219.0</ele><time>2026-04-29T15:31:57.782Z</time></trkpt><trkpt lat="44.1365787" lon="9.775889"><ele>219.0</ele><time>2026-04-29T15:31:58.781Z</time></trkpt><trkpt lat="44.136466" lon="9.7758754"><ele>219.79999999999998</ele><time>2026-04-29T15:31:59.78Z</time></trkpt><trkpt lat="44.1363631" lon="9.7758629"><ele>220.59999999999997</ele><time>2026-04-29T15:32:00.78Z</time></trkpt><trkpt lat="44.1362698" lon="9.7758455"><ele>221.4</ele><time>2026-04-29T15:32:01.779Z</time></trkpt><trkpt lat="44.1361827" lon="9.7758232"><ele>222.2</ele><time>2026-04-29T15:32:02.779Z</time></trkpt><trkpt lat="44.1360954" lon="9.7757906"><ele>223.0</ele><time>2026-04-29T15:32:03.781Z</time></trkpt><trkpt lat="44.1360043" lon="9.7757492"><ele>223.0</ele><time>2026-04-29T15:32:04.782Z</time></trkpt><trkpt lat="44.1359075" lon="9.7757096"><ele>223.0</ele><time>2026-04-29T15:32:05.781Z</time></trkpt><trkpt lat="44.1358109" lon="9.7756663"><ele>223.0</ele><time>2026-04-29T15:32:06.78Z</time></trkpt><trkpt lat="44.1357262" lon="9.7756336"><ele>223.0</ele><time>2026-04-29T15:32:07.78Z</time></trkpt><trkpt lat="44.1356434" lon="9.7755983"><ele>223.0</ele><time>2026-04-29T15:32:08.779Z</time></trkpt><trkpt lat="44.1355564" lon="9.7755532"><ele>221.8</ele><time>2026-04-29T15:32:09.781Z</time></trkpt><trkpt lat="44.1354687" lon="9.7754861"><ele>220.60000000000002</ele><time>2026-04-29T15:32:10.78Z</time></trkpt><trkpt lat="44.1353925" lon="9.7754063"><ele>219.39999999999998</ele><time>2026-04-29T15:32:11.781Z</time></trkpt><trkpt lat="44.1353165" lon="9.7753325"><ele>218.2</ele><time>2026-04-29T15:32:12.78Z</time></trkpt><trkpt lat="44.1352327" lon="9.7752814"><ele>217.0</ele><time>2026-04-29T15:32:13.78Z</time></trkpt><trkpt lat="44.1351387" lon="9.7752574"><ele>217.0</ele><time>2026-04-29T15:32:14.779Z</time></trkpt><trkpt lat="44.1350361" lon="9.7752608"><ele>217.0</ele><time>2026-04-29T15:32:15.78Z</time></trkpt><trkpt lat="44.1349377" lon="9.7752663"><ele>217.0</ele><time>2026-04-29T15:32:16.784Z</time></trkpt><trkpt lat="44.1348506" lon="9.7752364"><ele>217.0</ele><time>2026-04-29T15:32:17.782Z</time></trkpt><trkpt lat="44.1347709" lon="9.7751891"><ele>217.0</ele><time>2026-04-29T15:32:18.779Z</time></trkpt><trkpt lat="44.134689" lon="9.7751544"><ele>217.33333333333331</ele><time>2026-04-29T15:32:19.779Z</time></trkpt><trkpt lat="44.1346067" lon="9.7751557"><ele>217.66666666666666</ele><time>2026-04-29T15:32:20.779Z</time></trkpt><trkpt lat="44.1345275" lon="9.7751928"><ele>218.0</ele><time>2026-04-29T15:32:21.778Z</time></trkpt><trkpt lat="44.1344634" lon="9.7752768"><ele>218.33333333333331</ele><time>2026-04-29T15:32:22.782Z</time></trkpt><trkpt lat="44.1344192" lon="9.7753926"><ele>218.66666666666666</ele><time>2026-04-29T15:32:23.779Z</time></trkpt><trkpt lat="44.1344025" lon="9.7755292"><ele>219.0</ele><time>2026-04-29T15:32:24.781Z</time></trkpt><trkpt lat="44.1344113" lon="9.7756726"><ele>219.0</ele><time>2026-04-29T15:32:25.787Z</time></trkpt><trkpt lat="44.1344384" lon="9.7758102"><ele>218.99999999999997</ele><time>2026-04-29T15:32:26.779Z</time></trkpt><trkpt lat="44.1344714" lon="9.7759461"><ele>218.99999999999997</ele><time>2026-04-29T15:32:27.781Z</time></trkpt><trkpt lat="44.1344924" lon="9.7760904"><ele>219.0</ele><time>2026-04-29T15:32:28.78Z</time></trkpt><trkpt lat="44.1344953" lon="9.7762265"><ele>219.0</ele><time>2026-04-29T15:32:29.782Z</time></trkpt><trkpt lat="44.1344807" lon="9.776353"><ele>217.6</ele><time>2026-04-29T15:32:30.785Z</time></trkpt><trkpt lat="44.1344483" lon="9.7764657"><ele>216.2</ele><time>2026-04-29T15:32:31.78Z</time></trkpt><trkpt lat="44.1343932" lon="9.7765775"><ele>214.79999999999998</ele><time>2026-04-29T15:32:32.78Z</time></trkpt><trkpt lat="44.1343199" lon="9.7766825"><ele>213.39999999999998</ele><time>2026-04-29T15:32:33.779Z</time></trkpt><trkpt lat="44.1342521" lon="9.7767692"><ele>212.0</ele><time>2026-04-29T15:32:34.779Z</time></trkpt><trkpt lat="44.1341923" lon="9.7768542"><ele>211.00000000000003</ele><time>2026-04-29T15:32:35.778Z</time></trkpt><trkpt lat="44.1341501" lon="9.7769536"><ele>210.0</ele><time>2026-04-29T15:32:36.781Z</time></trkpt><trkpt lat="44.1341323" lon="9.7770578"><ele>209.0</ele><time>2026-04-29T15:32:37.78Z</time></trkpt><trkpt lat="44.1341323" lon="9.7771703"><ele>208.0</ele><time>2026-04-29T15:32:38.78Z</time></trkpt><trkpt lat="44.1341475" lon="9.7772837"><ele>207.00000000000003</ele><time>2026-04-29T15:32:39.779Z</time></trkpt><trkpt lat="44.1341637" lon="9.7773949"><ele>206.0</ele><time>2026-04-29T15:32:40.78Z</time></trkpt><trkpt lat="44.134166" lon="9.7774998"><ele>206.00000000000003</ele><time>2026-04-29T15:32:41.779Z</time></trkpt><trkpt lat="44.1341482" lon="9.7775994"><ele>206.0</ele><time>2026-04-29T15:32:42.786Z</time></trkpt><trkpt lat="44.1341059" lon="9.7776847"><ele>206.0</ele><time>2026-04-29T15:32:43.782Z</time></trkpt><trkpt lat="44.1340453" lon="9.7777539"><ele>206.0</ele><time>2026-04-29T15:32:44.783Z</time></trkpt><trkpt lat="44.1339641" lon="9.7778098"><ele>206.00000000000003</ele><time>2026-04-29T15:32:45.779Z</time></trkpt><trkpt lat="44.1338785" lon="9.7778709"><ele>206.0</ele><time>2026-04-29T15:32:46.779Z</time></trkpt><trkpt lat="44.1338123" lon="9.7779609"><ele>205.5</ele><time>2026-04-29T15:32:47.777Z</time></trkpt><trkpt lat="44.1337579" lon="9.7780843"><ele>205.0</ele><time>2026-04-29T15:32:48.778Z</time></trkpt><trkpt lat="44.1337134" lon="9.7782233"><ele>204.5</ele><time>2026-04-29T15:32:49.781Z</time></trkpt><trkpt lat="44.1336662" lon="9.7783779"><ele>204.0</ele><time>2026-04-29T15:32:50.78Z</time></trkpt><trkpt lat="44.1336174" lon="9.7785448"><ele>203.75</ele><time>2026-04-29T15:32:51.78Z</time></trkpt><trkpt lat="44.1335702" lon="9.7787101"><ele>203.5</ele><time>2026-04-29T15:32:52.78Z</time></trkpt><trkpt lat="44.133523" lon="9.7788732"><ele>203.25</ele><time>2026-04-29T15:32:53.779Z</time></trkpt><trkpt lat="44.1334757" lon="9.7790314"><ele>203.0</ele><time>2026-04-29T15:32:54.787Z</time></trkpt><trkpt lat="44.1334306" lon="9.7791861"><ele>203.0</ele><time>2026-04-29T15:32:55.781Z</time></trkpt><trkpt lat="44.1333864" lon="9.7793354"><ele>203.0</ele><time>2026-04-29T15:32:56.779Z</time></trkpt><trkpt lat="44.1333455" lon="9.7794839"><ele>203.0</ele><time>2026-04-29T15:32:57.78Z</time></trkpt><trkpt lat="44.1333024" lon="9.7796336"><ele>203.0</ele><time>2026-04-29T15:32:58.779Z</time></trkpt><trkpt lat="44.1332514" lon="9.7797811"><ele>200.75</ele><time>2026-04-29T15:32:59.78Z</time></trkpt><trkpt lat="44.1331832" lon="9.7799251"><ele>198.5</ele><time>2026-04-29T15:33:00.779Z</time></trkpt><trkpt lat="44.1330974" lon="9.7800551"><ele>196.25</ele><time>2026-04-29T15:33:01.785Z</time></trkpt><trkpt lat="44.1330027" lon="9.7801632"><ele>194.0</ele><time>2026-04-29T15:33:02.781Z</time></trkpt><trkpt lat="44.1329112" lon="9.7802679"><ele>191.5</ele><time>2026-04-29T15:33:03.78Z</time></trkpt><trkpt lat="44.1328388" lon="9.780401"><ele>189.0</ele><time>2026-04-29T15:33:04.778Z</time></trkpt><trkpt lat="44.1327794" lon="9.780559"><ele>186.5</ele><time>2026-04-29T15:33:05.779Z</time></trkpt><trkpt lat="44.1327218" lon="9.7807239"><ele>184.0</ele><time>2026-04-29T15:33:06.779Z</time></trkpt><trkpt lat="44.1326594" lon="9.7808922"><ele>183.5</ele><time>2026-04-29T15:33:07.777Z</time></trkpt><trkpt lat="44.1325932" lon="9.7810606"><ele>183.0</ele><time>2026-04-29T15:33:08.781Z</time></trkpt><trkpt lat="44.1325223" lon="9.7812181"><ele>182.5</ele><time>2026-04-29T15:33:09.781Z</time></trkpt><trkpt lat="44.1324378" lon="9.7813737"><ele>182.0</ele><time>2026-04-29T15:33:10.781Z</time></trkpt><trkpt lat="44.1323381" lon="9.7815185"><ele>181.33333333333331</ele><time>2026-04-29T15:33:11.78Z</time></trkpt><trkpt lat="44.1322228" lon="9.7816412"><ele>180.66666666666666</ele><time>2026-04-29T15:33:12.78Z</time></trkpt><trkpt lat="44.1320906" lon="9.7817408"><ele>180.0</ele><time>2026-04-29T15:33:13.779Z</time></trkpt><trkpt lat="44.1319459" lon="9.7818242"><ele>179.66666666666666</ele><time>2026-04-29T15:33:14.778Z</time></trkpt><trkpt lat="44.131792" lon="9.7819017"><ele>179.33333333333331</ele><time>2026-04-29T15:33:15.78Z</time></trkpt><trkpt lat="44.1316309" lon="9.7819803"><ele>179.0</ele><time>2026-04-29T15:33:16.779Z</time></trkpt><trkpt lat="44.1314637" lon="9.7820591"><ele>178.66666666666666</ele><time>2026-04-29T15:33:17.778Z</time></trkpt><trkpt lat="44.131291" lon="9.7821413"><ele>178.33333333333334</ele><time>2026-04-29T15:33:18.78Z</time></trkpt><trkpt lat="44.1311223" lon="9.7822225"><ele>178.0</ele><time>2026-04-29T15:33:19.778Z</time></trkpt><trkpt lat="44.1309606" lon="9.7823047"><ele>178.0</ele><time>2026-04-29T15:33:20.781Z</time></trkpt><trkpt lat="44.1308082" lon="9.7823871"><ele>178.0</ele><time>2026-04-29T15:33:21.78Z</time></trkpt><trkpt lat="44.1306649" lon="9.7824685"><ele>178.0</ele><time>2026-04-29T15:33:22.78Z</time></trkpt><trkpt lat="44.1305273" lon="9.7825537"><ele>178.0</ele><time>2026-04-29T15:33:23.779Z</time></trkpt><trkpt lat="44.1303902" lon="9.7826458"><ele>178.0</ele><time>2026-04-29T15:33:24.779Z</time></trkpt><trkpt lat="44.130254" lon="9.7827516"><ele>178.0</ele><time>2026-04-29T15:33:25.779Z</time></trkpt><trkpt lat="44.1301191" lon="9.7828673"><ele>178.0</ele><time>2026-04-29T15:33:26.781Z</time></trkpt><trkpt lat="44.1299828" lon="9.7829911"><ele>178.0</ele><time>2026-04-29T15:33:27.781Z</time></trkpt><trkpt lat="44.1298438" lon="9.7831232"><ele>178.0</ele><time>2026-04-29T15:33:28.779Z</time></trkpt><trkpt lat="44.1297107" lon="9.7832598"><ele>178.33333333333334</ele><time>2026-04-29T15:33:29.778Z</time></trkpt><trkpt lat="44.1295824" lon="9.7833999"><ele>178.66666666666666</ele><time>2026-04-29T15:33:30.779Z</time></trkpt><trkpt lat="44.1294564" lon="9.7835523"><ele>179.0</ele><time>2026-04-29T15:33:31.778Z</time></trkpt><trkpt lat="44.1293319" lon="9.783711"><ele>179.0</ele><time>2026-04-29T15:33:32.779Z</time></trkpt><trkpt lat="44.1292285" lon="9.7838666"><ele>179.0</ele><time>2026-04-29T15:33:33.78Z</time></trkpt><trkpt lat="44.1291225" lon="9.7840204"><ele>179.0</ele><time>2026-04-29T15:33:34.782Z</time></trkpt><trkpt lat="44.1290147" lon="9.7841759"><ele>109.0</ele><time>2026-04-29T15:33:35.78Z</time></trkpt><trkpt lat="44.122478" lon="9.8080599"><ele>101.66666666666667</ele><time>2026-04-29T15:35:21.784Z</time></trkpt><trkpt lat="44.1223515" lon="9.8081941"><ele>94.33333333333334</ele><time>2026-04-29T15:35:22.777Z</time></trkpt><trkpt lat="44.1222233" lon="9.8083388"><ele>87.0</ele><time>2026-04-29T15:35:23.777Z</time></trkpt><trkpt lat="44.12211" lon="9.8084891"><ele>90.0</ele><time>2026-04-29T15:35:24.779Z</time></trkpt><trkpt lat="44.1220093" lon="9.8086568"><ele>93.0</ele><time>2026-04-29T15:35:25.778Z</time></trkpt><trkpt lat="44.1219066" lon="9.808837"><ele>96.0</ele><time>2026-04-29T15:35:26.789Z</time></trkpt><trkpt lat="44.1218116" lon="9.8090246"><ele>96.0</ele><time>2026-04-29T15:35:27.779Z</time></trkpt><trkpt lat="44.1217206" lon="9.8092305"><ele>96.0</ele><time>2026-04-29T15:35:28.778Z</time></trkpt><trkpt lat="44.1216363" lon="9.8094541"><ele>96.0</ele><time>2026-04-29T15:35:29.779Z</time></trkpt><trkpt lat="44.1215664" lon="9.8096898"><ele>88.66666666666667</ele><time>2026-04-29T15:35:30.781Z</time></trkpt><trkpt lat="44.1215014" lon="9.809932"><ele>81.33333333333334</ele><time>2026-04-29T15:35:31.78Z</time></trkpt><trkpt lat="44.1214497" lon="9.8101854"><ele>74.0</ele><time>2026-04-29T15:35:32.78Z</time></trkpt><trkpt lat="44.1214106" lon="9.810432"><ele>74.0</ele><time>2026-04-29T15:35:33.78Z</time></trkpt><trkpt lat="44.1213821" lon="9.8106703"><ele>74.0</ele><time>2026-04-29T15:35:34.778Z</time></trkpt><trkpt lat="44.1213652" lon="9.8109036"><ele>74.0</ele><time>2026-04-29T15:35:35.777Z</time></trkpt><trkpt lat="44.1213677" lon="9.8111454"><ele>76.66666666666667</ele><time>2026-04-29T15:35:36.778Z</time></trkpt><trkpt lat="44.1213762" lon="9.8113867"><ele>79.33333333333333</ele><time>2026-04-29T15:35:37.78Z</time></trkpt><trkpt lat="44.1213966" lon="9.8116259"><ele>82.0</ele><time>2026-04-29T15:35:38.779Z</time></trkpt><trkpt lat="44.1214269" lon="9.8118572"><ele>85.66666666666666</ele><time>2026-04-29T15:35:39.779Z</time></trkpt><trkpt lat="44.1214667" lon="9.8120849"><ele>89.33333333333333</ele><time>2026-04-29T15:35:40.779Z</time></trkpt><trkpt lat="44.1215172" lon="9.8123111"><ele>93.0</ele><time>2026-04-29T15:35:41.78Z</time></trkpt><trkpt lat="44.12158" lon="9.8125365"><ele>101.0</ele><time>2026-04-29T15:35:42.779Z</time></trkpt><trkpt lat="44.1216539" lon="9.8127602"><ele>109.0</ele><time>2026-04-29T15:35:43.779Z</time></trkpt><trkpt lat="44.1217357" lon="9.8129885"><ele>117.0</ele><time>2026-04-29T15:35:44.779Z</time></trkpt><trkpt lat="44.1218152" lon="9.8132149"><ele>117.0</ele><time>2026-04-29T15:35:45.781Z</time></trkpt><trkpt lat="44.1218961" lon="9.8134417"><ele>117.0</ele><time>2026-04-29T15:35:46.779Z</time></trkpt><trkpt lat="44.1264492" lon="9.8225863"><ele>103.33333333333333</ele><time>2026-04-29T15:36:30.784Z</time></trkpt><trkpt lat="44.12649" lon="9.8228482"><ele>89.66666666666666</ele><time>2026-04-29T15:36:31.778Z</time></trkpt><trkpt lat="44.1265109" lon="9.823096"><ele>76.0</ele><time>2026-04-29T15:36:32.778Z</time></trkpt><trkpt lat="44.1265459" lon="9.8233302"><ele>75.0</ele><time>2026-04-29T15:36:33.779Z</time></trkpt><trkpt lat="44.1265874" lon="9.8235562"><ele>74.0</ele><time>2026-04-29T15:36:34.778Z</time></trkpt><trkpt lat="44.1266286" lon="9.8237966"><ele>73.0</ele><time>2026-04-29T15:36:35.78Z</time></trkpt><trkpt lat="44.1266691" lon="9.8240295"><ele>73.0</ele><time>2026-04-29T15:36:36.781Z</time></trkpt><trkpt lat="44.1267134" lon="9.8242472"><ele>73.0</ele><time>2026-04-29T15:36:37.78Z</time></trkpt><trkpt lat="44.1267585" lon="9.8244516"><ele>73.0</ele><time>2026-04-29T15:36:38.78Z</time></trkpt><trkpt lat="44.1268117" lon="9.8246379"><ele>74.0</ele><time>2026-04-29T15:36:39.777Z</time></trkpt><trkpt lat="44.1268702" lon="9.8248116"><ele>75.0</ele><time>2026-04-29T15:36:40.778Z</time></trkpt><trkpt lat="44.1269262" lon="9.824981"><ele>76.0</ele><time>2026-04-29T15:36:41.778Z</time></trkpt><trkpt lat="44.126978" lon="9.8251539"><ele>77.0</ele><time>2026-04-29T15:36:42.781Z</time></trkpt><trkpt lat="44.1270404" lon="9.8253237"><ele>81.33333333333334</ele><time>2026-04-29T15:36:43.78Z</time></trkpt><trkpt lat="44.1270981" lon="9.8254949"><ele>85.66666666666667</ele><time>2026-04-29T15:36:44.779Z</time></trkpt><trkpt lat="44.1271566" lon="9.8256659"><ele>90.0</ele><time>2026-04-29T15:36:45.778Z</time></trkpt><trkpt lat="44.1309011" lon="9.8364349"><ele>80.33333333333333</ele><time>2026-04-29T15:37:29.778Z</time></trkpt><trkpt lat="44.1308831" lon="9.8366738"><ele>70.66666666666666</ele><time>2026-04-29T15:37:30.779Z</time></trkpt><trkpt lat="44.1308504" lon="9.8369085"><ele>61.0</ele><time>2026-04-29T15:37:31.779Z</time></trkpt><trkpt lat="44.1308233" lon="9.8371305"><ele>59.0</ele><time>2026-04-29T15:37:32.778Z</time></trkpt><trkpt lat="44.1308003" lon="9.8373503"><ele>57.0</ele><time>2026-04-29T15:37:33.777Z</time></trkpt><trkpt lat="44.130778" lon="9.8375605"><ele>55.0</ele><time>2026-04-29T15:37:34.782Z</time></trkpt><trkpt lat="44.1307592" lon="9.8377567"><ele>54.25</ele><time>2026-04-29T15:37:35.781Z</time></trkpt><trkpt lat="44.1307369" lon="9.8379406"><ele>53.5</ele><time>2026-04-29T15:37:36.779Z</time></trkpt><trkpt lat="44.130719" lon="9.8381174"><ele>52.75</ele><time>2026-04-29T15:37:37.778Z</time></trkpt><trkpt lat="44.1307024" lon="9.8383051"><ele>52.0</ele><time>2026-04-29T15:37:38.777Z</time></trkpt><trkpt lat="44.1306875" lon="9.8384961"><ele>57.33333333333333</ele><time>2026-04-29T15:37:39.778Z</time></trkpt><trkpt lat="44.1306793" lon="9.8387039"><ele>62.66666666666667</ele><time>2026-04-29T15:37:40.782Z</time></trkpt><trkpt lat="44.1306761" lon="9.8389188"><ele>68.0</ele><time>2026-04-29T15:37:41.78Z</time></trkpt><trkpt lat="44.1306802" lon="9.8391458"><ele>67.66666666666667</ele><time>2026-04-29T15:37:42.778Z</time></trkpt><trkpt lat="44.1306945" lon="9.8393795"><ele>67.33333333333333</ele><time>2026-04-29T15:37:43.779Z</time></trkpt><trkpt lat="44.1307147" lon="9.8396079"><ele>67.0</ele><time>2026-04-29T15:37:44.779Z</time></trkpt><trkpt lat="44.1307422" lon="9.8398275"><ele>62.0</ele><time>2026-04-29T15:37:45.778Z</time></trkpt><trkpt lat="44.1307741" lon="9.8400374"><ele>57.0</ele><time>2026-04-29T15:37:46.779Z</time></trkpt><trkpt lat="44.1308063" lon="9.8402414"><ele>52.0</ele><time>2026-04-29T15:37:47.78Z</time></trkpt><trkpt lat="44.130833" lon="9.8404455"><ele>52.0</ele><time>2026-04-29T15:37:48.781Z</time></trkpt><trkpt lat="44.1308609" lon="9.8406408"><ele>52.0</ele><time>2026-04-29T15:37:49.78Z</time></trkpt><trkpt lat="44.1308885" lon="9.8408326"><ele>52.0</ele><time>2026-04-29T15:37:50.778Z</time></trkpt><trkpt lat="44.1309176" lon="9.8410226"><ele>52.0</ele><time>2026-04-29T15:37:51.777Z</time></trkpt><trkpt lat="44.1309468" lon="9.841216"><ele>51.5</ele><time>2026-04-29T15:37:52.779Z</time></trkpt><trkpt lat="44.1309759" lon="9.8414116"><ele>51.0</ele><time>2026-04-29T15:37:53.781Z</time></trkpt><trkpt lat="44.1310065" lon="9.8416079"><ele>50.5</ele><time>2026-04-29T15:37:54.779Z</time></trkpt><trkpt lat="44.1310392" lon="9.8418004"><ele>50.0</ele><time>2026-04-29T15:37:55.779Z</time></trkpt><trkpt lat="44.1310711" lon="9.8419829"><ele>49.25</ele><time>2026-04-29T15:37:56.779Z</time></trkpt><trkpt lat="44.1310984" lon="9.8421612"><ele>48.5</ele><time>2026-04-29T15:37:57.778Z</time></trkpt><trkpt lat="44.1311133" lon="9.8423319"><ele>47.75</ele><time>2026-04-29T15:37:58.779Z</time></trkpt><trkpt lat="44.1311132" lon="9.8424955"><ele>47.0</ele><time>2026-04-29T15:37:59.778Z</time></trkpt><trkpt lat="44.1310972" lon="9.8426462"><ele>46.0</ele><time>2026-04-29T15:38:00.779Z</time></trkpt><trkpt lat="44.1310644" lon="9.8427837"><ele>45.0</ele><time>2026-04-29T15:38:01.779Z</time></trkpt><trkpt lat="44.1310218" lon="9.8429038"><ele>44.0</ele><time>2026-04-29T15:38:02.779Z</time></trkpt><trkpt lat="44.1309781" lon="9.8430188"><ele>43.0</ele><time>2026-04-29T15:38:03.777Z</time></trkpt><trkpt lat="44.1309426" lon="9.8431434"><ele>42.0</ele><time>2026-04-29T15:38:04.777Z</time></trkpt><trkpt lat="44.1309184" lon="9.8432777"><ele>42.0</ele><time>2026-04-29T15:38:05.779Z</time></trkpt><trkpt lat="44.1309106" lon="9.84342"><ele>42.0</ele><time>2026-04-29T15:38:06.78Z</time></trkpt><trkpt lat="44.1309155" lon="9.8435654"><ele>42.0</ele><time>2026-04-29T15:38:07.78Z</time></trkpt><trkpt lat="44.1309345" lon="9.8436906"><ele>42.0</ele><time>2026-04-29T15:38:08.777Z</time></trkpt><trkpt lat="44.1309665" lon="9.8438041"><ele>42.0</ele><time>2026-04-29T15:38:09.779Z</time></trkpt><trkpt lat="44.1310126" lon="9.8439232"><ele>41.0</ele><time>2026-04-29T15:38:10.781Z</time></trkpt><trkpt lat="44.131068" lon="9.8440391"><ele>40.0</ele><time>2026-04-29T15:38:11.78Z</time></trkpt><trkpt lat="44.1311276" lon="9.8441381"><ele>39.0</ele><time>2026-04-29T15:38:12.781Z</time></trkpt><trkpt lat="44.1311831" lon="9.8442316"><ele>38.0</ele><time>2026-04-29T15:38:13.779Z</time></trkpt><trkpt lat="44.1312278" lon="9.8443391"><ele>37.0</ele><time>2026-04-29T15:38:14.78Z</time></trkpt><trkpt lat="44.1312512" lon="9.8444579"><ele>36.0</ele><time>2026-04-29T15:38:15.778Z</time></trkpt><trkpt lat="44.1312563" lon="9.8445753"><ele>35.0</ele><time>2026-04-29T15:38:16.777Z</time></trkpt><trkpt lat="44.131253" lon="9.8446906"><ele>34.0</ele><time>2026-04-29T15:38:17.779Z</time></trkpt><trkpt lat="44.1312352" lon="9.8447947"><ele>33.0</ele><time>2026-04-29T15:38:18.778Z</time></trkpt><trkpt lat="44.1311989" lon="9.8448882"><ele>32.0</ele><time>2026-04-29T15:38:19.78Z</time></trkpt><trkpt lat="44.1311432" lon="9.8449662"><ele>31.0</ele><time>2026-04-29T15:38:20.778Z</time></trkpt><trkpt lat="44.1310743" lon="9.8450259"><ele>31.000000000000004</ele><time>2026-04-29T15:38:21.778Z</time></trkpt><trkpt lat="44.1309974" lon="9.8450714"><ele>31.0</ele><time>2026-04-29T15:38:22.778Z</time></trkpt><trkpt lat="44.1309231" lon="9.8451142"><ele>31.0</ele><time>2026-04-29T15:38:23.776Z</time></trkpt><trkpt lat="44.1308502" lon="9.8451505"><ele>31.0</ele><time>2026-04-29T15:38:24.78Z</time></trkpt><trkpt lat="44.130779" lon="9.8451848"><ele>31.000000000000004</ele><time>2026-04-29T15:38:25.782Z</time></trkpt><trkpt lat="44.1307054" lon="9.8452215"><ele>31.0</ele><time>2026-04-29T15:38:26.779Z</time></trkpt><trkpt lat="44.1306272" lon="9.8452591"><ele>30.666666666666668</ele><time>2026-04-29T15:38:27.779Z</time></trkpt><trkpt lat="44.130546" lon="9.8452966"><ele>30.333333333333336</ele><time>2026-04-29T15:38:28.778Z</time></trkpt><trkpt lat="44.1304657" lon="9.8453351"><ele>30.0</ele><time>2026-04-29T15:38:29.779Z</time></trkpt><trkpt lat="44.1303921" lon="9.8453744"><ele>29.666666666666664</ele><time>2026-04-29T15:38:30.781Z</time></trkpt><trkpt lat="44.1303235" lon="9.8454103"><ele>29.333333333333332</ele><time>2026-04-29T15:38:31.78Z</time></trkpt><trkpt lat="44.1302605" lon="9.8454472"><ele>29.0</ele><time>2026-04-29T15:38:32.781Z</time></trkpt><trkpt lat="44.1301999" lon="9.8454727"><ele>29.000000000000004</ele><time>2026-04-29T15:38:33.779Z</time></trkpt><trkpt lat="44.1301357" lon="9.8454931"><ele>29.0</ele><time>2026-04-29T15:38:34.779Z</time></trkpt><trkpt lat="44.130067" lon="9.8455115"><ele>29.000000000000004</ele><time>2026-04-29T15:38:35.779Z</time></trkpt><trkpt lat="44.1299928" lon="9.8455289"><ele>29.000000000000004</ele><time>2026-04-29T15:38:36.779Z</time></trkpt><trkpt lat="44.1299181" lon="9.845543"><ele>29.0</ele><time>2026-04-29T15:38:37.781Z</time></trkpt><trkpt lat="44.1298535" lon="9.8455521"><ele>29.000000000000004</ele><time>2026-04-29T15:38:38.78Z</time></trkpt><trkpt lat="44.1297573" lon="9.8455699"><ele>29.000000000000004</ele><time>2026-04-29T15:38:40.779Z</time></trkpt><trkpt lat="44.1296844" lon="9.8455915"><ele>28.833333333333332</ele><time>2026-04-29T15:38:43.781Z</time></trkpt><trkpt lat="44.1295844" lon="9.8456216"><ele>28.666666666666664</ele><time>2026-04-29T15:38:46.779Z</time></trkpt><trkpt lat="44.1295157" lon="9.8456526"><ele>28.5</ele><time>2026-04-29T15:38:47.779Z</time></trkpt><trkpt lat="44.1294585" lon="9.8457078"><ele>28.333333333333336</ele><time>2026-04-29T15:38:48.779Z</time></trkpt><trkpt lat="44.1294269" lon="9.8458715"><ele>28.166666666666668</ele><time>2026-04-29T15:38:50.781Z</time></trkpt><trkpt lat="44.1294537" lon="9.8459544"><ele>28.0</ele><time>2026-04-29T15:38:51.78Z</time></trkpt><trkpt lat="44.1295042" lon="9.8460256"><ele>28.0</ele><time>2026-04-29T15:38:52.78Z</time></trkpt><trkpt lat="44.1295635" lon="9.8461029"><ele>27.999999999999996</ele><time>2026-04-29T15:38:53.779Z</time></trkpt><trkpt lat="44.1296216" lon="9.846204"><ele>27.999999999999996</ele><time>2026-04-29T15:38:54.78Z</time></trkpt><trkpt lat="44.1296739" lon="9.8463232"><ele>28.0</ele><time>2026-04-29T15:38:55.78Z</time></trkpt><trkpt lat="44.1297479" lon="9.8464396"><ele>28.0</ele><time>2026-04-29T15:38:56.781Z</time></trkpt><trkpt lat="44.1298443" lon="9.8465449"><ele>28.5</ele><time>2026-04-29T15:38:57.781Z</time></trkpt><trkpt lat="44.1299567" lon="9.8466449"><ele>29.0</ele><time>2026-04-29T15:38:58.778Z</time></trkpt><trkpt lat="44.1300879" lon="9.8467462"><ele>29.5</ele><time>2026-04-29T15:38:59.78Z</time></trkpt><trkpt lat="44.1302293" lon="9.8468535"><ele>30.0</ele><time>2026-04-29T15:39:00.779Z</time></trkpt><trkpt lat="44.1303712" lon="9.8469598"><ele>30.0</ele><time>2026-04-29T15:39:01.778Z</time></trkpt><trkpt lat="44.1305157" lon="9.8470674"><ele>30.0</ele><time>2026-04-29T15:39:02.781Z</time></trkpt><trkpt lat="44.13066" lon="9.8471764"><ele>30.0</ele><time>2026-04-29T15:39:03.779Z</time></trkpt><trkpt lat="44.1307843" lon="9.8472695"><ele>30.75</ele><time>2026-04-29T15:39:04.779Z</time></trkpt><trkpt lat="44.1308959" lon="9.8473581"><ele>31.5</ele><time>2026-04-29T15:39:05.779Z</time></trkpt><trkpt lat="44.131006" lon="9.8474435"><ele>32.25</ele><time>2026-04-29T15:39:06.779Z</time></trkpt><trkpt lat="44.131126" lon="9.8475355"><ele>33.0</ele><time>2026-04-29T15:39:07.778Z</time></trkpt><trkpt lat="44.1312373" lon="9.8476225"><ele>33.25</ele><time>2026-04-29T15:39:08.778Z</time></trkpt><trkpt lat="44.1313571" lon="9.8477091"><ele>33.5</ele><time>2026-04-29T15:39:09.783Z</time></trkpt><trkpt lat="44.1314904" lon="9.84781"><ele>33.75</ele><time>2026-04-29T15:39:10.782Z</time></trkpt><trkpt lat="44.1316171" lon="9.8479108"><ele>34.0</ele><time>2026-04-29T15:39:11.779Z</time></trkpt><trkpt lat="44.1317454" lon="9.8479995"><ele>35.66666666666667</ele><time>2026-04-29T15:39:12.778Z</time></trkpt><trkpt lat="44.1318872" lon="9.8480614"><ele>37.333333333333336</ele><time>2026-04-29T15:39:13.778Z</time></trkpt><trkpt lat="44.1320482" lon="9.8480903"><ele>39.0</ele><time>2026-04-29T15:39:14.779Z</time></trkpt><trkpt lat="44.1322173" lon="9.8481015"><ele>39.333333333333336</ele><time>2026-04-29T15:39:15.779Z</time></trkpt><trkpt lat="44.1324174" lon="9.8481176"><ele>39.66666666666667</ele><time>2026-04-29T15:39:16.78Z</time></trkpt><trkpt lat="44.1326342" lon="9.8481515"><ele>40.0</ele><time>2026-04-29T15:39:17.778Z</time></trkpt><trkpt lat="44.1328202" lon="9.8481873"><ele>40.0</ele><time>2026-04-29T15:39:18.779Z</time></trkpt><trkpt lat="44.1330003" lon="9.8482449"><ele>40.0</ele><time>2026-04-29T15:39:19.778Z</time></trkpt><trkpt lat="44.1331771" lon="9.8483286"><ele>40.0</ele><time>2026-04-29T15:39:20.777Z</time></trkpt><trkpt lat="44.1333522" lon="9.8484199"><ele>48.66666666666667</ele><time>2026-04-29T15:39:21.778Z</time></trkpt><trkpt lat="44.1335306" lon="9.848518"><ele>57.333333333333336</ele><time>2026-04-29T15:39:22.781Z</time></trkpt><trkpt lat="44.1337056" lon="9.8486163"><ele>66.0</ele><time>2026-04-29T15:39:23.78Z</time></trkpt><trkpt lat="44.1338741" lon="9.848717"><ele>66.0</ele><time>2026-04-29T15:39:24.78Z</time></trkpt><trkpt lat="44.1340302" lon="9.848813"><ele>66.0</ele><time>2026-04-29T15:39:25.777Z</time></trkpt><trkpt lat="44.1341749" lon="9.8489056"><ele>66.0</ele><time>2026-04-29T15:39:26.778Z</time></trkpt><trkpt lat="44.1343138" lon="9.8489955"><ele>68.5</ele><time>2026-04-29T15:39:27.78Z</time></trkpt><trkpt lat="44.1344507" lon="9.8490856"><ele>71.0</ele><time>2026-04-29T15:39:28.778Z</time></trkpt><trkpt lat="44.1345835" lon="9.8491758"><ele>73.5</ele><time>2026-04-29T15:39:29.781Z</time></trkpt><trkpt lat="44.1347172" lon="9.8492631"><ele>76.0</ele><time>2026-04-29T15:39:30.778Z</time></trkpt><trkpt lat="44.1348542" lon="9.8493444"><ele>71.0</ele><time>2026-04-29T15:39:31.779Z</time></trkpt><trkpt lat="44.1349926" lon="9.8494199"><ele>66.0</ele><time>2026-04-29T15:39:32.779Z</time></trkpt><trkpt lat="44.1351309" lon="9.849498"><ele>61.0</ele><time>2026-04-29T15:39:33.777Z</time></trkpt><trkpt lat="44.1352708" lon="9.8495811"><ele>61.0</ele><time>2026-04-29T15:39:34.779Z</time></trkpt><trkpt lat="44.1354061" lon="9.8496673"><ele>61.0</ele><time>2026-04-29T15:39:35.78Z</time></trkpt><trkpt lat="44.135536" lon="9.8497525"><ele>61.0</ele><time>2026-04-29T15:39:36.782Z</time></trkpt><trkpt lat="44.1356665" lon="9.8498288"><ele>61.0</ele><time>2026-04-29T15:39:37.78Z</time></trkpt><trkpt lat="44.1357948" lon="9.8498983"><ele>63.0</ele><time>2026-04-29T15:39:38.778Z</time></trkpt><trkpt lat="44.135926" lon="9.8499642"><ele>65.0</ele><time>2026-04-29T15:39:39.78Z</time></trkpt><trkpt lat="44.1360557" lon="9.8500282"><ele>67.0</ele><time>2026-04-29T15:39:40.779Z</time></trkpt><trkpt lat="44.1361848" lon="9.8500877"><ele>69.0</ele><time>2026-04-29T15:39:41.781Z</time></trkpt><trkpt lat="44.1363112" lon="9.8501438"><ele>69.5</ele><time>2026-04-29T15:39:42.78Z</time></trkpt><trkpt lat="44.1364402" lon="9.8501944"><ele>70.0</ele><time>2026-04-29T15:39:43.778Z</time></trkpt><trkpt lat="44.1365711" lon="9.8502456"><ele>70.5</ele><time>2026-04-29T15:39:44.78Z</time></trkpt><trkpt lat="44.1366953" lon="9.8503072"><ele>71.0</ele><time>2026-04-29T15:39:45.78Z</time></trkpt><trkpt lat="44.1368046" lon="9.8503926"><ele>72.75</ele><time>2026-04-29T15:39:46.778Z</time></trkpt><trkpt lat="44.1369041" lon="9.8505046"><ele>74.5</ele><time>2026-04-29T15:39:47.779Z</time></trkpt><trkpt lat="44.1369997" lon="9.8506359"><ele>76.25</ele><time>2026-04-29T15:39:48.78Z</time></trkpt><trkpt lat="44.1370893" lon="9.8507797"><ele>78.0</ele><time>2026-04-29T15:39:49.779Z</time></trkpt><trkpt lat="44.1371767" lon="9.8509382"><ele>79.66666666666667</ele><time>2026-04-29T15:39:50.778Z</time></trkpt><trkpt lat="44.1372602" lon="9.8511121"><ele>81.33333333333334</ele><time>2026-04-29T15:39:51.779Z</time></trkpt><trkpt lat="44.1373302" lon="9.8512965"><ele>83.0</ele><time>2026-04-29T15:39:52.78Z</time></trkpt><trkpt lat="44.1373923" lon="9.851502"><ele>84.5</ele><time>2026-04-29T15:39:53.781Z</time></trkpt><trkpt lat="44.1374436" lon="9.8516987"><ele>86.0</ele><time>2026-04-29T15:39:54.781Z</time></trkpt><trkpt lat="44.1374863" lon="9.851882"><ele>87.5</ele><time>2026-04-29T15:39:55.78Z</time></trkpt><trkpt lat="44.1375259" lon="9.8520509"><ele>89.0</ele><time>2026-04-29T15:39:56.777Z</time></trkpt><trkpt lat="44.1375803" lon="9.852209"><ele>92.0</ele><time>2026-04-29T15:39:57.78Z</time></trkpt><trkpt lat="44.1376556" lon="9.8523534"><ele>95.0</ele><time>2026-04-29T15:39:58.779Z</time></trkpt><trkpt lat="44.1377395" lon="9.852488"><ele>98.0</ele><time>2026-04-29T15:39:59.779Z</time></trkpt><trkpt lat="44.1378111" lon="9.8525997"><ele>101.0</ele><time>2026-04-29T15:40:00.78Z</time></trkpt><trkpt lat="44.1378706" lon="9.8526946"><ele>103.0</ele><time>2026-04-29T15:40:01.78Z</time></trkpt><trkpt lat="44.1379234" lon="9.8527797"><ele>105.0</ele><time>2026-04-29T15:40:02.78Z</time></trkpt><trkpt lat="44.1379688" lon="9.8528552"><ele>107.0</ele><time>2026-04-29T15:40:03.778Z</time></trkpt><trkpt lat="44.1380132" lon="9.85293"><ele>109.0</ele><time>2026-04-29T15:40:04.779Z</time></trkpt><trkpt lat="44.138062" lon="9.8530047"><ele>111.0</ele><time>2026-04-29T15:40:05.779Z</time></trkpt><trkpt lat="44.1381069" lon="9.8530771"><ele>112.99999999999999</ele><time>2026-04-29T15:40:06.779Z</time></trkpt><trkpt lat="44.1381511" lon="9.8531529"><ele>114.99999999999999</ele><time>2026-04-29T15:40:07.781Z</time></trkpt><trkpt lat="44.1381975" lon="9.8532315"><ele>114.4</ele><time>2026-04-29T15:40:08.781Z</time></trkpt><trkpt lat="44.1382413" lon="9.8533064"><ele>113.8</ele><time>2026-04-29T15:40:09.779Z</time></trkpt><trkpt lat="44.1383138" lon="9.8534315"><ele>113.19999999999999</ele><time>2026-04-29T15:40:11.778Z</time></trkpt><trkpt lat="44.1383827" lon="9.8535422"><ele>112.6</ele><time>2026-04-29T15:40:13.779Z</time></trkpt><trkpt lat="44.1384651" lon="9.853679"><ele>112.0</ele><time>2026-04-29T15:40:15.779Z</time></trkpt><trkpt lat="44.1385167" lon="9.8537721"><ele>112.0</ele><time>2026-04-29T15:40:16.78Z</time></trkpt><trkpt lat="44.1385736" lon="9.8538738"><ele>112.0</ele><time>2026-04-29T15:40:17.78Z</time></trkpt><trkpt lat="44.1386423" lon="9.8539907"><ele>112.0</ele><time>2026-04-29T15:40:18.781Z</time></trkpt><trkpt lat="44.1387194" lon="9.8541214"><ele>112.0</ele><time>2026-04-29T15:40:19.781Z</time></trkpt><trkpt lat="44.1388043" lon="9.8542609"><ele>113.25</ele><time>2026-04-29T15:40:20.782Z</time></trkpt><trkpt lat="44.1388883" lon="9.8544003"><ele>114.5</ele><time>2026-04-29T15:40:21.78Z</time></trkpt><trkpt lat="44.1389683" lon="9.8545352"><ele>115.75</ele><time>2026-04-29T15:40:22.781Z</time></trkpt><trkpt lat="44.139049" lon="9.8546707"><ele>117.0</ele><time>2026-04-29T15:40:23.779Z</time></trkpt><trkpt lat="44.139128" lon="9.8548076"><ele>113.25</ele><time>2026-04-29T15:40:24.779Z</time></trkpt><trkpt lat="44.1392112" lon="9.8549358"><ele>109.5</ele><time>2026-04-29T15:40:25.78Z</time></trkpt><trkpt lat="44.1393049" lon="9.8550605"><ele>105.75</ele><time>2026-04-29T15:40:26.78Z</time></trkpt><trkpt lat="44.1394115" lon="9.8551726"><ele>102.0</ele><time>2026-04-29T15:40:27.779Z</time></trkpt><trkpt lat="44.1395317" lon="9.8552634"><ele>101.25</ele><time>2026-04-29T15:40:28.779Z</time></trkpt><trkpt lat="44.139662" lon="9.8553309"><ele>100.5</ele><time>2026-04-29T15:40:29.779Z</time></trkpt><trkpt lat="44.1397865" lon="9.8553858"><ele>99.75</ele><time>2026-04-29T15:40:30.779Z</time></trkpt><trkpt lat="44.1399063" lon="9.8554372"><ele>99.0</ele><time>2026-04-29T15:40:31.781Z</time></trkpt><trkpt lat="44.1400235" lon="9.8554868"><ele>99.0</ele><time>2026-04-29T15:40:32.781Z</time></trkpt><trkpt lat="44.1401358" lon="9.8555297"><ele>99.0</ele><time>2026-04-29T15:40:33.78Z</time></trkpt><trkpt lat="44.1402486" lon="9.8555688"><ele>99.0</ele><time>2026-04-29T15:40:34.778Z</time></trkpt><trkpt lat="44.1403655" lon="9.8555869"><ele>99.0</ele><time>2026-04-29T15:40:35.779Z</time></trkpt><trkpt lat="44.1404805" lon="9.855589"><ele>99.0</ele><time>2026-04-29T15:40:36.78Z</time></trkpt><trkpt lat="44.1405904" lon="9.8555821"><ele>99.0</ele><time>2026-04-29T15:40:37.78Z</time></trkpt><trkpt lat="44.1406949" lon="9.8555754"><ele>99.0</ele><time>2026-04-29T15:40:38.78Z</time></trkpt><trkpt lat="44.14079" lon="9.855566"><ele>99.0</ele><time>2026-04-29T15:40:39.781Z</time></trkpt><trkpt lat="44.1408808" lon="9.8555557"><ele>99.0</ele><time>2026-04-29T15:40:40.78Z</time></trkpt><trkpt lat="44.140967" lon="9.8555471"><ele>98.6</ele><time>2026-04-29T15:40:41.779Z</time></trkpt><trkpt lat="44.1410564" lon="9.8555359"><ele>98.2</ele><time>2026-04-29T15:40:42.778Z</time></trkpt><trkpt lat="44.141156" lon="9.8555311"><ele>97.8</ele><time>2026-04-29T15:40:43.779Z</time></trkpt><trkpt lat="44.1412634" lon="9.855543"><ele>97.39999999999999</ele><time>2026-04-29T15:40:44.779Z</time></trkpt><trkpt lat="44.1413638" lon="9.8555779"><ele>97.0</ele><time>2026-04-29T15:40:45.78Z</time></trkpt><trkpt lat="44.1414595" lon="9.8556524"><ele>97.0</ele><time>2026-04-29T15:40:46.78Z</time></trkpt><trkpt lat="44.1415488" lon="9.8557617"><ele>97.0</ele><time>2026-04-29T15:40:47.78Z</time></trkpt><trkpt lat="44.141631" lon="9.8558834"><ele>97.0</ele><time>2026-04-29T15:40:48.779Z</time></trkpt><trkpt lat="44.1417069" lon="9.8559989"><ele>97.0</ele><time>2026-04-29T15:40:49.779Z</time></trkpt><trkpt lat="44.1417898" lon="9.8561145"><ele>97.0</ele><time>2026-04-29T15:40:50.778Z</time></trkpt><trkpt lat="44.1418655" lon="9.8562276"><ele>97.0</ele><time>2026-04-29T15:40:51.777Z</time></trkpt><trkpt lat="44.1419445" lon="9.8563298"><ele>97.0</ele><time>2026-04-29T15:40:52.779Z</time></trkpt><trkpt lat="44.1420327" lon="9.8564211"><ele>97.0</ele><time>2026-04-29T15:40:53.78Z</time></trkpt><trkpt lat="44.1421301" lon="9.8564957"><ele>97.0</ele><time>2026-04-29T15:40:54.778Z</time></trkpt><trkpt lat="44.1422333" lon="9.8565575"><ele>97.0</ele><time>2026-04-29T15:40:55.778Z</time></trkpt><trkpt lat="44.1423424" lon="9.8566129"><ele>97.0</ele><time>2026-04-29T15:40:56.778Z</time></trkpt><trkpt lat="44.1424488" lon="9.8566636"><ele>97.0</ele><time>2026-04-29T15:40:57.783Z</time></trkpt><trkpt lat="44.1425451" lon="9.8567063"><ele>97.0</ele><time>2026-04-29T15:40:58.78Z</time></trkpt><trkpt lat="44.1426322" lon="9.8567482"><ele>97.0</ele><time>2026-04-29T15:40:59.781Z</time></trkpt><trkpt lat="44.142714" lon="9.8567882"><ele>95.8</ele><time>2026-04-29T15:41:00.779Z</time></trkpt><trkpt lat="44.1427944" lon="9.8568271"><ele>94.6</ele><time>2026-04-29T15:41:01.779Z</time></trkpt><trkpt lat="44.1428827" lon="9.8568696"><ele>93.39999999999999</ele><time>2026-04-29T15:41:02.778Z</time></trkpt><trkpt lat="44.1429741" lon="9.856912"><ele>92.19999999999999</ele><time>2026-04-29T15:41:03.778Z</time></trkpt><trkpt lat="44.1430713" lon="9.8569614"><ele>91.0</ele><time>2026-04-29T15:41:04.78Z</time></trkpt><trkpt lat="44.1431728" lon="9.8570114"><ele>88.5</ele><time>2026-04-29T15:41:05.778Z</time></trkpt><trkpt lat="44.1432767" lon="9.8570741"><ele>86.0</ele><time>2026-04-29T15:41:06.781Z</time></trkpt><trkpt lat="44.1433752" lon="9.8571503"><ele>83.5</ele><time>2026-04-29T15:41:07.778Z</time></trkpt><trkpt lat="44.1434677" lon="9.8572548"><ele>81.0</ele><time>2026-04-29T15:41:08.779Z</time></trkpt><trkpt lat="44.1435532" lon="9.8573777"><ele>81.0</ele><time>2026-04-29T15:41:09.778Z</time></trkpt><trkpt lat="44.1436332" lon="9.8575027"><ele>81.0</ele><time>2026-04-29T15:41:10.779Z</time></trkpt><trkpt lat="44.1437077" lon="9.857626"><ele>81.0</ele><time>2026-04-29T15:41:11.78Z</time></trkpt><trkpt lat="44.1437737" lon="9.8577361"><ele>81.0</ele><time>2026-04-29T15:41:12.78Z</time></trkpt><trkpt lat="44.1438358" lon="9.857833"><ele>81.0</ele><time>2026-04-29T15:41:13.779Z</time></trkpt><trkpt lat="44.1438943" lon="9.857926"><ele>80.5</ele><time>2026-04-29T15:41:14.778Z</time></trkpt><trkpt lat="44.1439492" lon="9.8580172"><ele>80.0</ele><time>2026-04-29T15:41:15.778Z</time></trkpt><trkpt lat="44.1439994" lon="9.8581042"><ele>79.5</ele><time>2026-04-29T15:41:16.777Z</time></trkpt><trkpt lat="44.1440526" lon="9.8581908"><ele>79.0</ele><time>2026-04-29T15:41:17.78Z</time></trkpt><trkpt lat="44.1441078" lon="9.8582863"><ele>78.5</ele><time>2026-04-29T15:41:18.782Z</time></trkpt><trkpt lat="44.1441614" lon="9.8583972"><ele>78.0</ele><time>2026-04-29T15:41:19.78Z</time></trkpt><trkpt lat="44.1442127" lon="9.8585133"><ele>77.4</ele><time>2026-04-29T15:41:20.78Z</time></trkpt><trkpt lat="44.1442619" lon="9.8586406"><ele>76.8</ele><time>2026-04-29T15:41:21.777Z</time></trkpt><trkpt lat="44.1443052" lon="9.8587614"><ele>76.2</ele><time>2026-04-29T15:41:22.778Z</time></trkpt><trkpt lat="44.1443481" lon="9.8588885"><ele>75.6</ele><time>2026-04-29T15:41:23.778Z</time></trkpt><trkpt lat="44.1443927" lon="9.8590301"><ele>75.0</ele><time>2026-04-29T15:41:24.78Z</time></trkpt><trkpt lat="44.144437" lon="9.8591717"><ele>76.6</ele><time>2026-04-29T15:41:25.78Z</time></trkpt><trkpt lat="44.1444767" lon="9.8593035"><ele>78.2</ele><time>2026-04-29T15:41:26.779Z</time></trkpt><trkpt lat="44.1445111" lon="9.8594237"><ele>79.80000000000001</ele><time>2026-04-29T15:41:27.779Z</time></trkpt><trkpt lat="44.1445461" lon="9.8595353"><ele>81.4</ele><time>2026-04-29T15:41:28.78Z</time></trkpt><trkpt lat="44.1445803" lon="9.8596425"><ele>83.0</ele><time>2026-04-29T15:41:29.778Z</time></trkpt><trkpt lat="44.144617" lon="9.8597521"><ele>83.0</ele><time>2026-04-29T15:41:30.78Z</time></trkpt><trkpt lat="44.1446598" lon="9.8598674"><ele>83.0</ele><time>2026-04-29T15:41:31.78Z</time></trkpt><trkpt lat="44.1446938" lon="9.8599897"><ele>83.0</ele><time>2026-04-29T15:41:32.78Z</time></trkpt><trkpt lat="44.1447184" lon="9.860126"><ele>83.0</ele><time>2026-04-29T15:41:33.779Z</time></trkpt><trkpt lat="44.1447293" lon="9.8602676"><ele>83.0</ele><time>2026-04-29T15:41:34.778Z</time></trkpt><trkpt lat="44.1447236" lon="9.8604102"><ele>84.33333333333334</ele><time>2026-04-29T15:41:35.779Z</time></trkpt><trkpt lat="44.1447118" lon="9.8605404"><ele>85.66666666666667</ele><time>2026-04-29T15:41:36.78Z</time></trkpt><trkpt lat="44.1447219" lon="9.8606566"><ele>87.0</ele><time>2026-04-29T15:41:37.779Z</time></trkpt><trkpt lat="44.1447601" lon="9.8607616"><ele>88.33333333333333</ele><time>2026-04-29T15:41:38.779Z</time></trkpt><trkpt lat="44.1448167" lon="9.8608557"><ele>89.66666666666666</ele><time>2026-04-29T15:41:39.778Z</time></trkpt><trkpt lat="44.1448868" lon="9.8609493"><ele>91.0</ele><time>2026-04-29T15:41:40.778Z</time></trkpt><trkpt lat="44.1449591" lon="9.8610527"><ele>86.2</ele><time>2026-04-29T15:41:41.779Z</time></trkpt><trkpt lat="44.1450294" lon="9.86115"><ele>81.39999999999999</ele><time>2026-04-29T15:41:42.777Z</time></trkpt><trkpt lat="44.145095" lon="9.8612375"><ele>76.6</ele><time>2026-04-29T15:41:43.779Z</time></trkpt><trkpt lat="44.1451593" lon="9.8613241"><ele>71.8</ele><time>2026-04-29T15:41:44.78Z</time></trkpt><trkpt lat="44.1452251" lon="9.8614106"><ele>67.0</ele><time>2026-04-29T15:41:45.781Z</time></trkpt><trkpt lat="44.1452899" lon="9.8615006"><ele>67.0</ele><time>2026-04-29T15:41:46.779Z</time></trkpt><trkpt lat="44.1453481" lon="9.8616036"><ele>67.0</ele><time>2026-04-29T15:41:47.778Z</time></trkpt><trkpt lat="44.1454018" lon="9.8617166"><ele>67.0</ele><time>2026-04-29T15:41:48.78Z</time></trkpt><trkpt lat="44.1454459" lon="9.8618433"><ele>67.0</ele><time>2026-04-29T15:41:49.778Z</time></trkpt><trkpt lat="44.1454785" lon="9.8619847"><ele>67.0</ele><time>2026-04-29T15:41:50.781Z</time></trkpt><trkpt lat="44.1455075" lon="9.8621278"><ele>67.4</ele><time>2026-04-29T15:41:51.779Z</time></trkpt><trkpt lat="44.1455431" lon="9.8622745"><ele>67.80000000000001</ele><time>2026-04-29T15:41:52.779Z</time></trkpt><trkpt lat="44.1455838" lon="9.8624122"><ele>68.2</ele><time>2026-04-29T15:41:53.779Z</time></trkpt><trkpt lat="44.1456363" lon="9.8625492"><ele>68.60000000000001</ele><time>2026-04-29T15:41:54.779Z</time></trkpt><trkpt lat="44.1457067" lon="9.862669"><ele>69.0</ele><time>2026-04-29T15:41:55.779Z</time></trkpt><trkpt lat="44.1457911" lon="9.8627737"><ele>69.0</ele><time>2026-04-29T15:41:56.781Z</time></trkpt><trkpt lat="44.1458823" lon="9.8628708"><ele>69.0</ele><time>2026-04-29T15:41:57.781Z</time></trkpt><trkpt lat="44.1459695" lon="9.8629634"><ele>69.0</ele><time>2026-04-29T15:41:58.78Z</time></trkpt><trkpt lat="44.1460494" lon="9.8630672"><ele>69.0</ele><time>2026-04-29T15:41:59.779Z</time></trkpt><trkpt lat="44.1461161" lon="9.8631925"><ele>69.0</ele><time>2026-04-29T15:42:00.78Z</time></trkpt><trkpt lat="44.1461706" lon="9.8633372"><ele>71.0</ele><time>2026-04-29T15:42:01.779Z</time></trkpt><trkpt lat="44.1462105" lon="9.8634887"><ele>73.0</ele><time>2026-04-29T15:42:02.781Z</time></trkpt><trkpt lat="44.1462415" lon="9.8636349"><ele>75.0</ele><time>2026-04-29T15:42:03.781Z</time></trkpt><trkpt lat="44.146269" lon="9.863772"><ele>77.0</ele><time>2026-04-29T15:42:04.779Z</time></trkpt><trkpt lat="44.1463112" lon="9.8638979"><ele>79.0</ele><time>2026-04-29T15:42:05.779Z</time></trkpt><trkpt lat="44.1463692" lon="9.8640141"><ele>79.0</ele><time>2026-04-29T15:42:06.779Z</time></trkpt><trkpt lat="44.1464412" lon="9.8641139"><ele>79.0</ele><time>2026-04-29T15:42:07.778Z</time></trkpt><trkpt lat="44.1465272" lon="9.8642119"><ele>79.0</ele><time>2026-04-29T15:42:08.778Z</time></trkpt><trkpt lat="44.146608" lon="9.8643285"><ele>79.0</ele><time>2026-04-29T15:42:09.78Z</time></trkpt><trkpt lat="44.1466768" lon="9.8644646"><ele>79.0</ele><time>2026-04-29T15:42:10.78Z</time></trkpt><trkpt lat="44.1467353" lon="9.8646196"><ele>77.5</ele><time>2026-04-29T15:42:11.779Z</time></trkpt><trkpt lat="44.1467823" lon="9.8647738"><ele>76.0</ele><time>2026-04-29T15:42:12.779Z</time></trkpt><trkpt lat="44.1468142" lon="9.864928"><ele>74.5</ele><time>2026-04-29T15:42:13.779Z</time></trkpt><trkpt lat="44.1468316" lon="9.8650837"><ele>73.0</ele><time>2026-04-29T15:42:14.78Z</time></trkpt><trkpt lat="44.1468453" lon="9.8652371"><ele>73.0</ele><time>2026-04-29T15:42:15.78Z</time></trkpt><trkpt lat="44.1468649" lon="9.8653885"><ele>73.0</ele><time>2026-04-29T15:42:16.778Z</time></trkpt><trkpt lat="44.1468862" lon="9.8655372"><ele>73.0</ele><time>2026-04-29T15:42:17.779Z</time></trkpt><trkpt lat="44.1469183" lon="9.865682"><ele>73.0</ele><time>2026-04-29T15:42:18.779Z</time></trkpt><trkpt lat="44.1469598" lon="9.8658205"><ele>73.0</ele><time>2026-04-29T15:42:19.779Z</time></trkpt><trkpt lat="44.1470039" lon="9.8659561"><ele>73.0</ele><time>2026-04-29T15:42:20.779Z</time></trkpt><trkpt lat="44.1470528" lon="9.8660922"><ele>73.0</ele><time>2026-04-29T15:42:21.78Z</time></trkpt><trkpt lat="44.1470998" lon="9.8662231"><ele>73.0</ele><time>2026-04-29T15:42:22.78Z</time></trkpt><trkpt lat="44.1471452" lon="9.8663505"><ele>73.0</ele><time>2026-04-29T15:42:23.782Z</time></trkpt><trkpt lat="44.1471901" lon="9.866474"><ele>73.0</ele><time>2026-04-29T15:42:24.778Z</time></trkpt><trkpt lat="44.1472357" lon="9.8665927"><ele>73.0</ele><time>2026-04-29T15:42:25.78Z</time></trkpt><trkpt lat="44.1472783" lon="9.8667067"><ele>73.0</ele><time>2026-04-29T15:42:26.78Z</time></trkpt><trkpt lat="44.147317" lon="9.8668234"><ele>73.0</ele><time>2026-04-29T15:42:27.779Z</time></trkpt><trkpt lat="44.1473495" lon="9.8669494"><ele>73.0</ele><time>2026-04-29T15:42:28.779Z</time></trkpt><trkpt lat="44.1473732" lon="9.8670779"><ele>73.0</ele><time>2026-04-29T15:42:29.78Z</time></trkpt><trkpt lat="44.1473855" lon="9.8672124"><ele>68.6</ele><time>2026-04-29T15:42:30.779Z</time></trkpt><trkpt lat="44.1473949" lon="9.8673566"><ele>64.19999999999999</ele><time>2026-04-29T15:42:31.782Z</time></trkpt><trkpt lat="44.1474055" lon="9.867501"><ele>59.8</ele><time>2026-04-29T15:42:32.778Z</time></trkpt><trkpt lat="44.1474127" lon="9.8676333"><ele>55.4</ele><time>2026-04-29T15:42:33.78Z</time></trkpt><trkpt lat="44.1474212" lon="9.8677548"><ele>51.0</ele><time>2026-04-29T15:42:34.779Z</time></trkpt><trkpt lat="44.147429" lon="9.8678737"><ele>50.666666666666664</ele><time>2026-04-29T15:42:35.778Z</time></trkpt><trkpt lat="44.1474388" lon="9.8679813"><ele>50.33333333333333</ele><time>2026-04-29T15:42:36.779Z</time></trkpt><trkpt lat="44.1474481" lon="9.8680831"><ele>50.0</ele><time>2026-04-29T15:42:37.778Z</time></trkpt><trkpt lat="44.1474604" lon="9.8681923"><ele>49.666666666666664</ele><time>2026-04-29T15:42:38.78Z</time></trkpt><trkpt lat="44.1474801" lon="9.8682943"><ele>49.33333333333333</ele><time>2026-04-29T15:42:39.778Z</time></trkpt><trkpt lat="44.1475147" lon="9.8683853"><ele>49.0</ele><time>2026-04-29T15:42:40.779Z</time></trkpt><trkpt lat="44.1475695" lon="9.8684578"><ele>51.2</ele><time>2026-04-29T15:42:41.778Z</time></trkpt><trkpt lat="44.147643" lon="9.8685084"><ele>53.400000000000006</ele><time>2026-04-29T15:42:42.777Z</time></trkpt><trkpt lat="44.1477282" lon="9.8685372"><ele>55.6</ele><time>2026-04-29T15:42:43.777Z</time></trkpt><trkpt lat="44.1478213" lon="9.8685428"><ele>57.8</ele><time>2026-04-29T15:42:44.779Z</time></trkpt><trkpt lat="44.1479175" lon="9.8685416"><ele>60.0</ele><time>2026-04-29T15:42:45.781Z</time></trkpt><trkpt lat="44.1480197" lon="9.8685585"><ele>60.0</ele><time>2026-04-29T15:42:46.779Z</time></trkpt><trkpt lat="44.1481239" lon="9.8685879"><ele>60.0</ele><time>2026-04-29T15:42:47.778Z</time></trkpt><trkpt lat="44.1482321" lon="9.8686336"><ele>60.0</ele><time>2026-04-29T15:42:48.779Z</time></trkpt><trkpt lat="44.148337" lon="9.868695"><ele>60.0</ele><time>2026-04-29T15:42:49.777Z</time></trkpt><trkpt lat="44.1484342" lon="9.8687664"><ele>60.0</ele><time>2026-04-29T15:42:50.778Z</time></trkpt><trkpt lat="44.1485278" lon="9.8688409"><ele>57.25</ele><time>2026-04-29T15:42:51.779Z</time></trkpt><trkpt lat="44.1486234" lon="9.8689169"><ele>54.5</ele><time>2026-04-29T15:42:52.777Z</time></trkpt><trkpt lat="44.1487232" lon="9.8689956"><ele>51.75</ele><time>2026-04-29T15:42:53.779Z</time></trkpt><trkpt lat="44.1488258" lon="9.8690773"><ele>49.0</ele><time>2026-04-29T15:42:54.779Z</time></trkpt><trkpt lat="44.1489303" lon="9.8691632"><ele>49.0</ele><time>2026-04-29T15:42:55.777Z</time></trkpt><trkpt lat="44.1490326" lon="9.8692468"><ele>49.0</ele><time>2026-04-29T15:42:56.779Z</time></trkpt><trkpt lat="44.1491277" lon="9.8693275"><ele>49.0</ele><time>2026-04-29T15:42:57.777Z</time></trkpt><trkpt lat="44.1492088" lon="9.8694215"><ele>49.0</ele><time>2026-04-29T15:42:58.78Z</time></trkpt><trkpt lat="44.1492756" lon="9.8695284"><ele>49.0</ele><time>2026-04-29T15:42:59.777Z</time></trkpt><trkpt lat="44.1493337" lon="9.869644"><ele>50.0</ele><time>2026-04-29T15:43:00.779Z</time></trkpt><trkpt lat="44.1493906" lon="9.869773"><ele>51.0</ele><time>2026-04-29T15:43:01.776Z</time></trkpt><trkpt lat="44.1494453" lon="9.8698967"><ele>52.00000000000001</ele><time>2026-04-29T15:43:02.78Z</time></trkpt><trkpt lat="44.1495003" lon="9.8700222"><ele>53.0</ele><time>2026-04-29T15:43:03.778Z</time></trkpt><trkpt lat="44.1495546" lon="9.8701401"><ele>54.0</ele><time>2026-04-29T15:43:04.776Z</time></trkpt><trkpt lat="44.1496095" lon="9.8702503"><ele>52.2</ele><time>2026-04-29T15:43:05.78Z</time></trkpt><trkpt lat="44.1496701" lon="9.8703497"><ele>50.400000000000006</ele><time>2026-04-29T15:43:06.778Z</time></trkpt><trkpt lat="44.149737" lon="9.870436"><ele>48.6</ele><time>2026-04-29T15:43:07.778Z</time></trkpt><trkpt lat="44.1498146" lon="9.8705157"><ele>46.8</ele><time>2026-04-29T15:43:08.779Z</time></trkpt><trkpt lat="44.1498975" lon="9.870593"><ele>45.0</ele><time>2026-04-29T15:43:09.778Z</time></trkpt><trkpt lat="44.1499833" lon="9.8706728"><ele>45.0</ele><time>2026-04-29T15:43:10.778Z</time></trkpt><trkpt lat="44.1500743" lon="9.8707608"><ele>45.0</ele><time>2026-04-29T15:43:11.777Z</time></trkpt><trkpt lat="44.1501663" lon="9.8708536"><ele>45.0</ele><time>2026-04-29T15:43:12.778Z</time></trkpt><trkpt lat="44.1502584" lon="9.8709522"><ele>45.0</ele><time>2026-04-29T15:43:13.777Z</time></trkpt><trkpt lat="44.1503541" lon="9.8710544"><ele>44.6</ele><time>2026-04-29T15:43:14.779Z</time></trkpt><trkpt lat="44.1504476" lon="9.8711546"><ele>44.2</ele><time>2026-04-29T15:43:15.78Z</time></trkpt><trkpt lat="44.1505362" lon="9.8712501"><ele>43.8</ele><time>2026-04-29T15:43:16.777Z</time></trkpt><trkpt lat="44.1506144" lon="9.8713349"><ele>43.4</ele><time>2026-04-29T15:43:17.778Z</time></trkpt><trkpt lat="44.1506843" lon="9.8714116"><ele>43.0</ele><time>2026-04-29T15:43:18.78Z</time></trkpt><trkpt lat="44.1507524" lon="9.8714865"><ele>43.0</ele><time>2026-04-29T15:43:19.779Z</time></trkpt><trkpt lat="44.1508241" lon="9.8715615"><ele>43.0</ele><time>2026-04-29T15:43:20.78Z</time></trkpt><trkpt lat="44.1508987" lon="9.8716437"><ele>43.0</ele><time>2026-04-29T15:43:21.778Z</time></trkpt><trkpt lat="44.1509799" lon="9.8717323"><ele>43.0</ele><time>2026-04-29T15:43:22.778Z</time></trkpt><trkpt lat="44.1510655" lon="9.8718264"><ele>43.0</ele><time>2026-04-29T15:43:23.777Z</time></trkpt><trkpt lat="44.1511546" lon="9.8719201"><ele>45.0</ele><time>2026-04-29T15:43:24.779Z</time></trkpt><trkpt lat="44.1512417" lon="9.8720183"><ele>47.0</ele><time>2026-04-29T15:43:25.779Z</time></trkpt><trkpt lat="44.1513223" lon="9.8721218"><ele>49.0</ele><time>2026-04-29T15:43:26.781Z</time></trkpt><trkpt lat="44.1513928" lon="9.8722447"><ele>51.0</ele><time>2026-04-29T15:43:27.78Z</time></trkpt><trkpt lat="44.1514519" lon="9.8723844"><ele>51.0</ele><time>2026-04-29T15:43:28.779Z</time></trkpt><trkpt lat="44.1515047" lon="9.8725293"><ele>51.0</ele><time>2026-04-29T15:43:29.78Z</time></trkpt><trkpt lat="44.1515536" lon="9.8726792"><ele>51.0</ele><time>2026-04-29T15:43:30.778Z</time></trkpt><trkpt lat="44.1515975" lon="9.8728167"><ele>51.0</ele><time>2026-04-29T15:43:31.78Z</time></trkpt><trkpt lat="44.1516371" lon="9.8729506"><ele>51.0</ele><time>2026-04-29T15:43:32.779Z</time></trkpt><trkpt lat="44.1516767" lon="9.8730782"><ele>47.8</ele><time>2026-04-29T15:43:33.78Z</time></trkpt><trkpt lat="44.151719" lon="9.8732061"><ele>44.599999999999994</ele><time>2026-04-29T15:43:34.779Z</time></trkpt><trkpt lat="44.1517587" lon="9.8733364"><ele>41.4</ele><time>2026-04-29T15:43:35.778Z</time></trkpt><trkpt lat="44.1517963" lon="9.8734568"><ele>38.2</ele><time>2026-04-29T15:43:36.779Z</time></trkpt><trkpt lat="44.1518284" lon="9.873566"><ele>35.0</ele><time>2026-04-29T15:43:37.778Z</time></trkpt><trkpt lat="44.1518562" lon="9.8736725"><ele>34.6</ele><time>2026-04-29T15:43:38.78Z</time></trkpt><trkpt lat="44.1518838" lon="9.8737826"><ele>34.2</ele><time>2026-04-29T15:43:39.78Z</time></trkpt><trkpt lat="44.1519157" lon="9.8738978"><ele>33.8</ele><time>2026-04-29T15:43:40.781Z</time></trkpt><trkpt lat="44.1519564" lon="9.8740196"><ele>33.4</ele><time>2026-04-29T15:43:41.778Z</time></trkpt><trkpt lat="44.1520054" lon="9.8741453"><ele>33.0</ele><time>2026-04-29T15:43:42.78Z</time></trkpt><trkpt lat="44.1520689" lon="9.8742773"><ele>33.0</ele><time>2026-04-29T15:43:43.777Z</time></trkpt><trkpt lat="44.1521421" lon="9.8744154"><ele>33.0</ele><time>2026-04-29T15:43:44.778Z</time></trkpt><trkpt lat="44.1522225" lon="9.8745523"><ele>33.0</ele><time>2026-04-29T15:43:45.779Z</time></trkpt><trkpt lat="44.1523073" lon="9.8746793"><ele>33.0</ele><time>2026-04-29T15:43:46.776Z</time></trkpt><trkpt lat="44.1523936" lon="9.8747968"><ele>32.4</ele><time>2026-04-29T15:43:47.78Z</time></trkpt><trkpt lat="44.1524762" lon="9.8749106"><ele>31.799999999999997</ele><time>2026-04-29T15:43:48.778Z</time></trkpt><trkpt lat="44.1525544" lon="9.8750192"><ele>31.2</ele><time>2026-04-29T15:43:49.778Z</time></trkpt><trkpt lat="44.1526287" lon="9.8751293"><ele>30.6</ele><time>2026-04-29T15:43:50.778Z</time></trkpt><trkpt lat="44.1526986" lon="9.8752401"><ele>30.0</ele><time>2026-04-29T15:43:51.777Z</time></trkpt><trkpt lat="44.1527614" lon="9.8753479"><ele>30.0</ele><time>2026-04-29T15:43:52.78Z</time></trkpt><trkpt lat="44.1528184" lon="9.8754596"><ele>30.0</ele><time>2026-04-29T15:43:53.78Z</time></trkpt><trkpt lat="44.1528691" lon="9.8755735"><ele>30.0</ele><time>2026-04-29T15:43:54.778Z</time></trkpt><trkpt lat="44.1529119" lon="9.8756835"><ele>30.0</ele><time>2026-04-29T15:43:55.78Z</time></trkpt><trkpt lat="44.1529452" lon="9.8757858"><ele>30.0</ele><time>2026-04-29T15:43:56.777Z</time></trkpt><trkpt lat="44.1529756" lon="9.8758823"><ele>30.0</ele><time>2026-04-29T15:43:57.778Z</time></trkpt><trkpt lat="44.1530055" lon="9.8759753"><ele>31.8</ele><time>2026-04-29T15:43:58.778Z</time></trkpt><trkpt lat="44.1530386" lon="9.8760725"><ele>33.6</ele><time>2026-04-29T15:43:59.779Z</time></trkpt><trkpt lat="44.1530769" lon="9.8761793"><ele>35.4</ele><time>2026-04-29T15:44:00.778Z</time></trkpt><trkpt lat="44.1531159" lon="9.876297"><ele>37.2</ele><time>2026-04-29T15:44:01.779Z</time></trkpt><trkpt lat="44.1531574" lon="9.8764205"><ele>39.0</ele><time>2026-04-29T15:44:02.777Z</time></trkpt><trkpt lat="44.1531979" lon="9.8765507"><ele>37.6</ele><time>2026-04-29T15:44:03.776Z</time></trkpt><trkpt lat="44.1532441" lon="9.8766881"><ele>36.2</ele><time>2026-04-29T15:44:04.777Z</time></trkpt><trkpt lat="44.1532859" lon="9.8768118"><ele>34.800000000000004</ele><time>2026-04-29T15:44:05.777Z</time></trkpt><trkpt lat="44.1533246" lon="9.8769338"><ele>33.4</ele><time>2026-04-29T15:44:06.779Z</time></trkpt><trkpt lat="44.1533654" lon="9.8770596"><ele>32.0</ele><time>2026-04-29T15:44:07.784Z</time></trkpt><trkpt lat="44.1534063" lon="9.877188"><ele>31.400000000000002</ele><time>2026-04-29T15:44:08.778Z</time></trkpt><trkpt lat="44.1534495" lon="9.8773188"><ele>30.800000000000004</ele><time>2026-04-29T15:44:09.778Z</time></trkpt><trkpt lat="44.1534927" lon="9.8774525"><ele>30.2</ele><time>2026-04-29T15:44:10.778Z</time></trkpt><trkpt lat="44.1535363" lon="9.8775829"><ele>29.6</ele><time>2026-04-29T15:44:11.778Z</time></trkpt><trkpt lat="44.1535744" lon="9.8777069"><ele>29.0</ele><time>2026-04-29T15:44:12.778Z</time></trkpt><trkpt lat="44.1536156" lon="9.8778297"><ele>28.6</ele><time>2026-04-29T15:44:13.781Z</time></trkpt><trkpt lat="44.1536614" lon="9.8779553"><ele>28.2</ele><time>2026-04-29T15:44:14.779Z</time></trkpt><trkpt lat="44.1537155" lon="9.8780722"><ele>27.800000000000004</ele><time>2026-04-29T15:44:15.779Z</time></trkpt><trkpt lat="44.153773" lon="9.8781748"><ele>27.400000000000002</ele><time>2026-04-29T15:44:16.78Z</time></trkpt><trkpt lat="44.1538302" lon="9.8782546"><ele>27.0</ele><time>2026-04-29T15:44:17.779Z</time></trkpt><trkpt lat="44.1539093" lon="9.8783565"><ele>27.0</ele><time>2026-04-29T15:44:19.777Z</time></trkpt><trkpt lat="44.1539694" lon="9.8784321"><ele>27.0</ele><time>2026-04-29T15:44:21.779Z</time></trkpt><trkpt lat="44.1540225" lon="9.8785005"><ele>27.0</ele><time>2026-04-29T15:44:23.779Z</time></trkpt><trkpt lat="44.1540737" lon="9.8785774"><ele>27.0</ele><time>2026-04-29T15:44:25.78Z</time></trkpt><trkpt lat="44.1541328" lon="9.8786519"><ele>27.0</ele><time>2026-04-29T15:44:27.779Z</time></trkpt><trkpt lat="44.1541921" lon="9.878729"><ele>27.0</ele><time>2026-04-29T15:44:29.778Z</time></trkpt><trkpt lat="44.1542392" lon="9.8787931"><ele>26.166666666666668</ele><time>2026-04-29T15:44:31.782Z</time></trkpt><trkpt lat="44.1542931" lon="9.8788599"><ele>25.333333333333332</ele><time>2026-04-29T15:44:34.778Z</time></trkpt><trkpt lat="44.1543649" lon="9.8789335"><ele>24.5</ele><time>2026-04-29T15:44:49.777Z</time></trkpt><trkpt lat="44.1544468" lon="9.8790367"><ele>23.666666666666664</ele><time>2026-04-29T15:44:51.78Z</time></trkpt><trkpt lat="44.1545012" lon="9.8791107"><ele>22.833333333333332</ele><time>2026-04-29T15:44:53.779Z</time></trkpt><trkpt lat="44.1545462" lon="9.8791821"><ele>22.0</ele><time>2026-04-29T15:44:57.778Z</time></trkpt><trkpt lat="44.1546084" lon="9.879279"><ele>21.8</ele><time>2026-04-29T15:45:08.779Z</time></trkpt><trkpt lat="44.1546687" lon="9.8793799"><ele>21.6</ele><time>2026-04-29T15:45:10.78Z</time></trkpt><trkpt lat="44.154761" lon="9.8793768"><ele>21.400000000000002</ele><time>2026-04-29T15:45:12.784Z</time></trkpt><trkpt lat="44.1548741" lon="9.8792482"><ele>21.200000000000003</ele><time>2026-04-29T15:45:14.783Z</time></trkpt><trkpt lat="44.1549522" lon="9.8791541"><ele>21.0</ele><time>2026-04-29T15:45:15.78Z</time></trkpt><trkpt lat="44.1550364" lon="9.8790514"><ele>21.0</ele><time>2026-04-29T15:45:16.778Z</time></trkpt><trkpt lat="44.1551139" lon="9.8789611"><ele>21.0</ele><time>2026-04-29T15:45:17.78Z</time></trkpt><trkpt lat="44.1551855" lon="9.8788805"><ele>21.0</ele><time>2026-04-29T15:45:18.778Z</time></trkpt><trkpt lat="44.1552532" lon="9.878802"><ele>21.0</ele><time>2026-04-29T15:45:19.778Z</time></trkpt><trkpt lat="44.1553246" lon="9.8787213"><ele>21.0</ele><time>2026-04-29T15:45:20.777Z</time></trkpt><trkpt lat="44.155396" lon="9.8786398"><ele>21.0</ele><time>2026-04-29T15:45:21.778Z</time></trkpt><trkpt lat="44.1554684" lon="9.8785542"><ele>21.0</ele><time>2026-04-29T15:45:22.781Z</time></trkpt><trkpt lat="44.1555463" lon="9.8784616"><ele>21.0</ele><time>2026-04-29T15:45:23.782Z</time></trkpt><trkpt lat="44.1556311" lon="9.8783584"><ele>21.0</ele><time>2026-04-29T15:45:24.778Z</time></trkpt><trkpt lat="44.1557196" lon="9.8782554"><ele>21.0</ele><time>2026-04-29T15:45:25.779Z</time></trkpt><trkpt lat="44.1558077" lon="9.8781567"><ele>21.6</ele><time>2026-04-29T15:45:26.777Z</time></trkpt><trkpt lat="44.1558891" lon="9.8780641"><ele>22.200000000000003</ele><time>2026-04-29T15:45:27.777Z</time></trkpt><trkpt lat="44.1559673" lon="9.8779747"><ele>22.799999999999997</ele><time>2026-04-29T15:45:28.779Z</time></trkpt><trkpt lat="44.1560468" lon="9.8778781"><ele>23.4</ele><time>2026-04-29T15:45:29.781Z</time></trkpt><trkpt lat="44.1561318" lon="9.8777798"><ele>24.0</ele><time>2026-04-29T15:45:30.78Z</time></trkpt><trkpt lat="44.1562185" lon="9.8776753"><ele>24.0</ele><time>2026-04-29T15:45:31.779Z</time></trkpt><trkpt lat="44.1563089" lon="9.8775709"><ele>24.0</ele><time>2026-04-29T15:45:32.777Z</time></trkpt><trkpt lat="44.1564011" lon="9.8774614"><ele>24.0</ele><time>2026-04-29T15:45:33.777Z</time></trkpt><trkpt lat="44.1565005" lon="9.8773492"><ele>24.0</ele><time>2026-04-29T15:45:34.779Z</time></trkpt><trkpt lat="44.1565998" lon="9.8772335"><ele>23.25</ele><time>2026-04-29T15:45:35.779Z</time></trkpt><trkpt lat="44.1567018" lon="9.8771181"><ele>22.5</ele><time>2026-04-29T15:45:36.781Z</time></trkpt><trkpt lat="44.156795" lon="9.8770112"><ele>21.75</ele><time>2026-04-29T15:45:37.783Z</time></trkpt><trkpt lat="44.1568866" lon="9.8769038"><ele>21.0</ele><time>2026-04-29T15:45:38.782Z</time></trkpt><trkpt lat="44.156981" lon="9.8767928"><ele>21.25</ele><time>2026-04-29T15:45:39.783Z</time></trkpt><trkpt lat="44.1570781" lon="9.876676"><ele>21.5</ele><time>2026-04-29T15:45:40.779Z</time></trkpt><trkpt lat="44.1571779" lon="9.876559"><ele>21.75</ele><time>2026-04-29T15:45:41.777Z</time></trkpt><trkpt lat="44.1572782" lon="9.8764405"><ele>22.0</ele><time>2026-04-29T15:45:42.777Z</time></trkpt><trkpt lat="44.1573773" lon="9.8763236"><ele>22.0</ele><time>2026-04-29T15:45:43.778Z</time></trkpt><trkpt lat="44.1574782" lon="9.8762025"><ele>22.0</ele><time>2026-04-29T15:45:44.779Z</time></trkpt><trkpt lat="44.1575798" lon="9.8760841"><ele>22.0</ele><time>2026-04-29T15:45:45.779Z</time></trkpt><trkpt lat="44.1576869" lon="9.875965"><ele>22.0</ele><time>2026-04-29T15:45:46.78Z</time></trkpt><trkpt lat="44.1577913" lon="9.8758467"><ele>22.0</ele><time>2026-04-29T15:45:47.78Z</time></trkpt><trkpt lat="44.1578992" lon="9.87572"><ele>22.0</ele><time>2026-04-29T15:45:48.782Z</time></trkpt><trkpt lat="44.1580118" lon="9.8755946"><ele>22.0</ele><time>2026-04-29T15:45:49.781Z</time></trkpt><trkpt lat="44.1581228" lon="9.8754661"><ele>22.0</ele><time>2026-04-29T15:45:50.781Z</time></trkpt><trkpt lat="44.158234" lon="9.8753339"><ele>22.0</ele><time>2026-04-29T15:45:51.778Z</time></trkpt><trkpt lat="44.158345" lon="9.8752046"><ele>22.0</ele><time>2026-04-29T15:45:52.778Z</time></trkpt><trkpt lat="44.158456" lon="9.8750768"><ele>22.0</ele><time>2026-04-29T15:45:53.778Z</time></trkpt><trkpt lat="44.158568" lon="9.8749512"><ele>22.0</ele><time>2026-04-29T15:45:54.781Z</time></trkpt><trkpt lat="44.1586717" lon="9.8748351"><ele>22.200000000000003</ele><time>2026-04-29T15:45:55.781Z</time></trkpt><trkpt lat="44.1587611" lon="9.874736"><ele>22.4</ele><time>2026-04-29T15:45:56.776Z</time></trkpt><trkpt lat="44.1588426" lon="9.8746508"><ele>22.6</ele><time>2026-04-29T15:45:57.78Z</time></trkpt><trkpt lat="44.1589159" lon="9.874575"><ele>22.799999999999997</ele><time>2026-04-29T15:45:58.78Z</time></trkpt><trkpt lat="44.1589911" lon="9.8745162"><ele>23.0</ele><time>2026-04-29T15:45:59.782Z</time></trkpt><trkpt lat="44.1590679" lon="9.8744792"><ele>23.599999999999998</ele><time>2026-04-29T15:46:00.779Z</time></trkpt><trkpt lat="44.1591539" lon="9.8744579"><ele>24.2</ele><time>2026-04-29T15:46:01.782Z</time></trkpt><trkpt lat="44.1592471" lon="9.87446"><ele>24.8</ele><time>2026-04-29T15:46:02.778Z</time></trkpt><trkpt lat="44.1593399" lon="9.8744938"><ele>25.4</ele><time>2026-04-29T15:46:03.779Z</time></trkpt><trkpt lat="44.1594278" lon="9.8745622"><ele>26.0</ele><time>2026-04-29T15:46:04.778Z</time></trkpt><trkpt lat="44.1595128" lon="9.8746557"><ele>26.0</ele><time>2026-04-29T15:46:05.778Z</time></trkpt><trkpt lat="44.1595946" lon="9.874771"><ele>26.0</ele><time>2026-04-29T15:46:06.779Z</time></trkpt><trkpt lat="44.1596759" lon="9.8749028"><ele>26.0</ele><time>2026-04-29T15:46:07.781Z</time></trkpt><trkpt lat="44.1597619" lon="9.8750496"><ele>26.0</ele><time>2026-04-29T15:46:08.78Z</time></trkpt><trkpt lat="44.1598506" lon="9.8752063"><ele>25.25</ele><time>2026-04-29T15:46:09.783Z</time></trkpt><trkpt lat="44.159945" lon="9.8753668"><ele>24.5</ele><time>2026-04-29T15:46:10.777Z</time></trkpt><trkpt lat="44.1600381" lon="9.8755261"><ele>23.75</ele><time>2026-04-29T15:46:11.778Z</time></trkpt><trkpt lat="44.1601275" lon="9.8756769"><ele>23.0</ele><time>2026-04-29T15:46:12.777Z</time></trkpt><trkpt lat="44.1602132" lon="9.8758244"><ele>22.75</ele><time>2026-04-29T15:46:13.777Z</time></trkpt><trkpt lat="44.1602925" lon="9.8759588"><ele>22.5</ele><time>2026-04-29T15:46:14.78Z</time></trkpt><trkpt lat="44.1603669" lon="9.8760869"><ele>22.25</ele><time>2026-04-29T15:46:15.779Z</time></trkpt><trkpt lat="44.160439" lon="9.8762109"><ele>22.0</ele><time>2026-04-29T15:46:16.781Z</time></trkpt><trkpt lat="44.1605089" lon="9.8763336"><ele>22.0</ele><time>2026-04-29T15:46:17.778Z</time></trkpt><trkpt lat="44.1605833" lon="9.8764559"><ele>22.0</ele><time>2026-04-29T15:46:18.778Z</time></trkpt><trkpt lat="44.160661" lon="9.8765781"><ele>22.0</ele><time>2026-04-29T15:46:19.781Z</time></trkpt><trkpt lat="44.1607341" lon="9.8767005"><ele>22.0</ele><time>2026-04-29T15:46:20.779Z</time></trkpt><trkpt lat="44.1608097" lon="9.8768287"><ele>21.25</ele><time>2026-04-29T15:46:21.784Z</time></trkpt><trkpt lat="44.1608896" lon="9.8769638"><ele>20.5</ele><time>2026-04-29T15:46:22.778Z</time></trkpt><trkpt lat="44.1609725" lon="9.8771036"><ele>19.75</ele><time>2026-04-29T15:46:23.778Z</time></trkpt><trkpt lat="44.1610594" lon="9.8772483"><ele>19.0</ele><time>2026-04-29T15:46:24.778Z</time></trkpt><trkpt lat="44.1611473" lon="9.8773997"><ele>19.0</ele><time>2026-04-29T15:46:25.778Z</time></trkpt><trkpt lat="44.1612354" lon="9.8775509"><ele>19.0</ele><time>2026-04-29T15:46:26.78Z</time></trkpt><trkpt lat="44.1613264" lon="9.8777052"><ele>19.0</ele><time>2026-04-29T15:46:27.778Z</time></trkpt><trkpt lat="44.1614183" lon="9.8778689"><ele>19.0</ele><time>2026-04-29T15:46:28.779Z</time></trkpt><trkpt lat="44.161514" lon="9.8780285"><ele>19.75</ele><time>2026-04-29T15:46:29.777Z</time></trkpt><trkpt lat="44.1616116" lon="9.8781878"><ele>20.5</ele><time>2026-04-29T15:46:30.78Z</time></trkpt><trkpt lat="44.161704" lon="9.8783449"><ele>21.25</ele><time>2026-04-29T15:46:31.779Z</time></trkpt><trkpt lat="44.1617922" lon="9.8784925"><ele>22.0</ele><time>2026-04-29T15:46:32.779Z</time></trkpt><trkpt lat="44.1618787" lon="9.8786338"><ele>22.0</ele><time>2026-04-29T15:46:33.779Z</time></trkpt><trkpt lat="44.1619554" lon="9.8787646"><ele>22.0</ele><time>2026-04-29T15:46:34.779Z</time></trkpt><trkpt lat="44.1620294" lon="9.878891"><ele>22.0</ele><time>2026-04-29T15:46:35.78Z</time></trkpt><trkpt lat="44.1620986" lon="9.8790117"><ele>22.0</ele><time>2026-04-29T15:46:36.779Z</time></trkpt><trkpt lat="44.1621648" lon="9.8791263"><ele>22.0</ele><time>2026-04-29T15:46:37.777Z</time></trkpt><trkpt lat="44.1622296" lon="9.8792347"><ele>22.0</ele><time>2026-04-29T15:46:38.777Z</time></trkpt><trkpt lat="44.1622927" lon="9.8793417"><ele>22.0</ele><time>2026-04-29T15:46:39.78Z</time></trkpt><trkpt lat="44.1623552" lon="9.8794445"><ele>22.0</ele><time>2026-04-29T15:46:40.781Z</time></trkpt><trkpt lat="44.16242" lon="9.8795485"><ele>22.0</ele><time>2026-04-29T15:46:41.779Z</time></trkpt><trkpt lat="44.1624834" lon="9.8796553"><ele>22.200000000000003</ele><time>2026-04-29T15:46:42.779Z</time></trkpt><trkpt lat="44.1625493" lon="9.8797631"><ele>22.4</ele><time>2026-04-29T15:46:43.779Z</time></trkpt><trkpt lat="44.1626166" lon="9.8798691"><ele>22.6</ele><time>2026-04-29T15:46:44.779Z</time></trkpt><trkpt lat="44.1626844" lon="9.879981"><ele>22.799999999999997</ele><time>2026-04-29T15:46:45.78Z</time></trkpt><trkpt lat="44.16275" lon="9.8800905"><ele>23.0</ele><time>2026-04-29T15:46:46.78Z</time></trkpt><trkpt lat="44.1628169" lon="9.8802042"><ele>23.0</ele><time>2026-04-29T15:46:47.778Z</time></trkpt><trkpt lat="44.1628856" lon="9.8803193"><ele>23.0</ele><time>2026-04-29T15:46:48.78Z</time></trkpt><trkpt lat="44.162953" lon="9.8804345"><ele>23.0</ele><time>2026-04-29T15:46:49.777Z</time></trkpt><trkpt lat="44.1630219" lon="9.8805513"><ele>23.0</ele><time>2026-04-29T15:46:50.778Z</time></trkpt><trkpt lat="44.1630918" lon="9.8806703"><ele>23.0</ele><time>2026-04-29T15:46:51.781Z</time></trkpt><trkpt lat="44.1631638" lon="9.8807898"><ele>23.0</ele><time>2026-04-29T15:46:52.78Z</time></trkpt><trkpt lat="44.1632294" lon="9.8809006"><ele>23.0</ele><time>2026-04-29T15:46:53.779Z</time></trkpt><trkpt lat="44.1632927" lon="9.8810075"><ele>23.0</ele><time>2026-04-29T15:46:54.78Z</time></trkpt><trkpt lat="44.1633549" lon="9.8811127"><ele>23.0</ele><time>2026-04-29T15:46:55.778Z</time></trkpt><trkpt lat="44.1634125" lon="9.8812097"><ele>23.0</ele><time>2026-04-29T15:46:56.78Z</time></trkpt><trkpt lat="44.1634665" lon="9.881301"><ele>23.0</ele><time>2026-04-29T15:46:57.778Z</time></trkpt><trkpt lat="44.1635185" lon="9.8813862"><ele>23.0</ele><time>2026-04-29T15:46:58.782Z</time></trkpt><trkpt lat="44.16357" lon="9.8814675"><ele>23.0</ele><time>2026-04-29T15:46:59.78Z</time></trkpt><trkpt lat="44.163623" lon="9.8815502"><ele>23.0</ele><time>2026-04-29T15:47:00.778Z</time></trkpt><trkpt lat="44.1636724" lon="9.8816422"><ele>23.0</ele><time>2026-04-29T15:47:01.779Z</time></trkpt><trkpt lat="44.1637104" lon="9.8817496"><ele>23.0</ele><time>2026-04-29T15:47:02.779Z</time></trkpt><trkpt lat="44.1637286" lon="9.8818741"><ele>23.0</ele><time>2026-04-29T15:47:03.777Z</time></trkpt><trkpt lat="44.1637222" lon="9.882014"><ele>23.0</ele><time>2026-04-29T15:47:04.78Z</time></trkpt><trkpt lat="44.1636935" lon="9.8821543"><ele>23.0</ele><time>2026-04-29T15:47:05.78Z</time></trkpt><trkpt lat="44.163645" lon="9.8822744"><ele>23.0</ele><time>2026-04-29T15:47:06.781Z</time></trkpt><trkpt lat="44.1635728" lon="9.8823791"><ele>23.0</ele><time>2026-04-29T15:47:07.78Z</time></trkpt><trkpt lat="44.163482" lon="9.8824776"><ele>23.0</ele><time>2026-04-29T15:47:08.778Z</time></trkpt><trkpt lat="44.1633757" lon="9.88258"><ele>23.0</ele><time>2026-04-29T15:47:09.784Z</time></trkpt><trkpt lat="44.163264" lon="9.8826931"><ele>23.0</ele><time>2026-04-29T15:47:10.777Z</time></trkpt><trkpt lat="44.1631598" lon="9.8828087"><ele>23.0</ele><time>2026-04-29T15:47:11.78Z</time></trkpt><trkpt lat="44.1630615" lon="9.8829266"><ele>22.599999999999998</ele><time>2026-04-29T15:47:12.781Z</time></trkpt><trkpt lat="44.1629715" lon="9.883046"><ele>22.2</ele><time>2026-04-29T15:47:13.777Z</time></trkpt><trkpt lat="44.1628906" lon="9.8831556"><ele>21.8</ele><time>2026-04-29T15:47:14.777Z</time></trkpt><trkpt lat="44.1628156" lon="9.883245"><ele>21.4</ele><time>2026-04-29T15:47:15.779Z</time></trkpt><trkpt lat="44.1627388" lon="9.8832859"><ele>21.0</ele><time>2026-04-29T15:47:16.779Z</time></trkpt><trkpt lat="44.162665" lon="9.8832796"><ele>21.0</ele><time>2026-04-29T15:47:17.78Z</time></trkpt><trkpt lat="44.1625937" lon="9.8832378"><ele>21.0</ele><time>2026-04-29T15:47:18.781Z</time></trkpt><trkpt lat="44.1625191" lon="9.883183"><ele>21.0</ele><time>2026-04-29T15:47:19.777Z</time></trkpt><trkpt lat="44.1624459" lon="9.8831275"><ele>21.0</ele><time>2026-04-29T15:47:20.778Z</time></trkpt><trkpt lat="44.1623787" lon="9.8830634"><ele>21.0</ele><time>2026-04-29T15:47:21.778Z</time></trkpt><trkpt lat="44.1623354" lon="9.8829997"><ele>21.0</ele><time>2026-04-29T15:47:22.779Z</time></trkpt><trkpt lat="44.1622563" lon="9.8828735"><ele>21.0</ele><time>2026-04-29T15:47:24.781Z</time></trkpt><trkpt lat="44.1621871" lon="9.8827738"><ele>21.0</ele><time>2026-04-29T15:47:26.777Z</time></trkpt><trkpt lat="44.1621094" lon="9.8827409"><ele>21.0</ele><time>2026-04-29T15:47:28.782Z</time></trkpt><trkpt lat="44.1620372" lon="9.8827719"><ele>21.0</ele><time>2026-04-29T15:47:30.781Z</time></trkpt><trkpt lat="44.161976" lon="9.8828614"><ele>21.0</ele><time>2026-04-29T15:47:32.787Z</time></trkpt><trkpt lat="44.1619231" lon="9.8829846"><ele>21.0</ele><time>2026-04-29T15:47:34.783Z</time></trkpt><trkpt lat="44.161868" lon="9.8831297"><ele>21.0</ele><time>2026-04-29T15:47:36.781Z</time></trkpt><trkpt lat="44.1618327" lon="9.8832262"><ele>21.0</ele><time>2026-04-29T15:47:37.781Z</time></trkpt><trkpt lat="44.1617995" lon="9.8833392"><ele>21.0</ele><time>2026-04-29T15:47:38.78Z</time></trkpt><trkpt lat="44.161759" lon="9.8834723"><ele>21.0</ele><time>2026-04-29T15:47:39.779Z</time></trkpt><trkpt lat="44.1617161" lon="9.8836095"><ele>21.0</ele><time>2026-04-29T15:47:40.78Z</time></trkpt><trkpt lat="44.1616681" lon="9.8837531"><ele>21.0</ele><time>2026-04-29T15:47:41.778Z</time></trkpt><trkpt lat="44.1616235" lon="9.8839082"><ele>21.0</ele><time>2026-04-29T15:47:42.781Z</time></trkpt><trkpt lat="44.1615848" lon="9.8840716"><ele>21.0</ele><time>2026-04-29T15:47:43.782Z</time></trkpt><trkpt lat="44.1615426" lon="9.8842456"><ele>21.0</ele><time>2026-04-29T15:47:44.778Z</time></trkpt><trkpt lat="44.1615044" lon="9.8844305"><ele>21.25</ele><time>2026-04-29T15:47:45.782Z</time></trkpt><trkpt lat="44.1614645" lon="9.8846189"><ele>21.5</ele><time>2026-04-29T15:47:46.779Z</time></trkpt><trkpt lat="44.1614241" lon="9.8848129"><ele>21.75</ele><time>2026-04-29T15:47:47.781Z</time></trkpt><trkpt lat="44.1613828" lon="9.885009"><ele>22.0</ele><time>2026-04-29T15:47:48.781Z</time></trkpt><trkpt lat="44.1613432" lon="9.8852131"><ele>22.0</ele><time>2026-04-29T15:47:49.781Z</time></trkpt><trkpt lat="44.1613026" lon="9.8854194"><ele>22.0</ele><time>2026-04-29T15:47:50.78Z</time></trkpt><trkpt lat="44.1612546" lon="9.8856279"><ele>22.0</ele><time>2026-04-29T15:47:51.781Z</time></trkpt><trkpt lat="44.1611992" lon="9.8858375"><ele>21.666666666666664</ele><time>2026-04-29T15:47:52.782Z</time></trkpt><trkpt lat="44.1611336" lon="9.8860537"><ele>21.333333333333332</ele><time>2026-04-29T15:47:53.777Z</time></trkpt><trkpt lat="44.1610588" lon="9.8862816"><ele>21.0</ele><time>2026-04-29T15:47:54.781Z</time></trkpt><trkpt lat="44.1609787" lon="9.8865169"><ele>21.0</ele><time>2026-04-29T15:47:55.78Z</time></trkpt><trkpt lat="44.1608946" lon="9.886756"><ele>21.0</ele><time>2026-04-29T15:47:56.781Z</time></trkpt><trkpt lat="44.160805" lon="9.8869955"><ele>21.0</ele><time>2026-04-29T15:47:57.778Z</time></trkpt><trkpt lat="44.1607125" lon="9.8872365"><ele>20.666666666666668</ele><time>2026-04-29T15:47:58.78Z</time></trkpt><trkpt lat="44.160618" lon="9.8874908"><ele>20.333333333333336</ele><time>2026-04-29T15:47:59.778Z</time></trkpt><trkpt lat="44.1605237" lon="9.8877467"><ele>20.0</ele><time>2026-04-29T15:48:00.779Z</time></trkpt><trkpt lat="44.160429" lon="9.8880032"><ele>20.0</ele><time>2026-04-29T15:48:01.779Z</time></trkpt><trkpt lat="44.1603334" lon="9.8882666"><ele>20.0</ele><time>2026-04-29T15:48:02.778Z</time></trkpt><trkpt lat="44.160237" lon="9.8885301"><ele>20.0</ele><time>2026-04-29T15:48:03.779Z</time></trkpt><trkpt lat="44.160135" lon="9.8887975"><ele>20.666666666666668</ele><time>2026-04-29T15:48:04.779Z</time></trkpt><trkpt lat="44.1600338" lon="9.8890686"><ele>21.333333333333332</ele><time>2026-04-29T15:48:05.779Z</time></trkpt><trkpt lat="44.159939" lon="9.889327"><ele>22.0</ele><time>2026-04-29T15:48:06.778Z</time></trkpt><trkpt lat="44.1598436" lon="9.8895792"><ele>22.0</ele><time>2026-04-29T15:48:07.779Z</time></trkpt><trkpt lat="44.159747" lon="9.8898339"><ele>22.0</ele><time>2026-04-29T15:48:08.779Z</time></trkpt><trkpt lat="44.1596522" lon="9.8900841"><ele>22.0</ele><time>2026-04-29T15:48:09.778Z</time></trkpt><trkpt lat="44.1595564" lon="9.8903349"><ele>22.0</ele><time>2026-04-29T15:48:10.779Z</time></trkpt><trkpt lat="44.1594606" lon="9.8905849"><ele>22.0</ele><time>2026-04-29T15:48:11.782Z</time></trkpt><trkpt lat="44.1593624" lon="9.8908342"><ele>22.0</ele><time>2026-04-29T15:48:12.781Z</time></trkpt><trkpt lat="44.1592659" lon="9.8910868"><ele>22.0</ele><time>2026-04-29T15:48:13.78Z</time></trkpt><trkpt lat="44.1591702" lon="9.89134"><ele>22.0</ele><time>2026-04-29T15:48:14.781Z</time></trkpt><trkpt lat="44.1590733" lon="9.8915938"><ele>22.0</ele><time>2026-04-29T15:48:15.782Z</time></trkpt><trkpt lat="44.1589802" lon="9.8918319"><ele>21.333333333333332</ele><time>2026-04-29T15:48:16.78Z</time></trkpt><trkpt lat="44.1588894" lon="9.8920653"><ele>20.666666666666668</ele><time>2026-04-29T15:48:17.779Z</time></trkpt><trkpt lat="44.1587994" lon="9.8922988"><ele>20.0</ele><time>2026-04-29T15:48:18.777Z</time></trkpt><trkpt lat="44.1587077" lon="9.8925335"><ele>20.333333333333336</ele><time>2026-04-29T15:48:19.778Z</time></trkpt><trkpt lat="44.1586163" lon="9.8927695"><ele>20.666666666666668</ele><time>2026-04-29T15:48:20.779Z</time></trkpt><trkpt lat="44.1585239" lon="9.8930091"><ele>21.0</ele><time>2026-04-29T15:48:21.78Z</time></trkpt><trkpt lat="44.1584301" lon="9.8932545"><ele>21.333333333333332</ele><time>2026-04-29T15:48:22.78Z</time></trkpt><trkpt lat="44.1583359" lon="9.8935033"><ele>21.666666666666664</ele><time>2026-04-29T15:48:23.779Z</time></trkpt><trkpt lat="44.1582401" lon="9.8937588"><ele>22.0</ele><time>2026-04-29T15:48:24.782Z</time></trkpt><trkpt lat="44.1581422" lon="9.8940191"><ele>22.333333333333332</ele><time>2026-04-29T15:48:25.785Z</time></trkpt><trkpt lat="44.1580411" lon="9.8942822"><ele>22.666666666666668</ele><time>2026-04-29T15:48:26.78Z</time></trkpt><trkpt lat="44.1579403" lon="9.8945459"><ele>23.0</ele><time>2026-04-29T15:48:27.78Z</time></trkpt><trkpt lat="44.1578397" lon="9.894808"><ele>23.0</ele><time>2026-04-29T15:48:28.785Z</time></trkpt><trkpt lat="44.1577401" lon="9.8950659"><ele>23.0</ele><time>2026-04-29T15:48:29.783Z</time></trkpt><trkpt lat="44.1576389" lon="9.8953238"><ele>23.0</ele><time>2026-04-29T15:48:30.781Z</time></trkpt><trkpt lat="44.1575355" lon="9.8955856"><ele>23.333333333333336</ele><time>2026-04-29T15:48:31.783Z</time></trkpt><trkpt lat="44.15743" lon="9.8958545"><ele>23.666666666666668</ele><time>2026-04-29T15:48:32.782Z</time></trkpt><trkpt lat="44.1573216" lon="9.8961345"><ele>24.0</ele><time>2026-04-29T15:48:33.778Z</time></trkpt><trkpt lat="44.1572091" lon="9.8964199"><ele>23.5</ele><time>2026-04-29T15:48:34.78Z</time></trkpt><trkpt lat="44.1570933" lon="9.8967104"><ele>23.0</ele><time>2026-04-29T15:48:35.782Z</time></trkpt><trkpt lat="44.1569703" lon="9.897009"><ele>23.0</ele><time>2026-04-29T15:48:36.783Z</time></trkpt><trkpt lat="44.1568337" lon="9.8973123"><ele>23.0</ele><time>2026-04-29T15:48:37.786Z</time></trkpt><trkpt lat="44.1566952" lon="9.8976158"><ele>23.0</ele><time>2026-04-29T15:48:38.78Z</time></trkpt><trkpt lat="44.1565509" lon="9.8979174"><ele>23.0</ele><time>2026-04-29T15:48:39.781Z</time></trkpt><trkpt lat="44.1564015" lon="9.898215"><ele>22.5</ele><time>2026-04-29T15:48:40.781Z</time></trkpt><trkpt lat="44.1562494" lon="9.8985076"><ele>22.0</ele><time>2026-04-29T15:48:41.78Z</time></trkpt><trkpt lat="44.1560951" lon="9.8987954"><ele>22.0</ele><time>2026-04-29T15:48:42.78Z</time></trkpt><trkpt lat="44.1559374" lon="9.8990766"><ele>22.0</ele><time>2026-04-29T15:48:43.782Z</time></trkpt><trkpt lat="44.1557777" lon="9.899352"><ele>22.0</ele><time>2026-04-29T15:48:44.78Z</time></trkpt><trkpt lat="44.1556143" lon="9.8996219"><ele>22.0</ele><time>2026-04-29T15:48:45.779Z</time></trkpt><trkpt lat="44.1554464" lon="9.8998887"><ele>23.5</ele><time>2026-04-29T15:48:46.78Z</time></trkpt><trkpt lat="44.1552736" lon="9.9001524"><ele>25.0</ele><time>2026-04-29T15:48:47.778Z</time></trkpt><trkpt lat="44.1550998" lon="9.9004113"><ele>25.0</ele><time>2026-04-29T15:48:48.782Z</time></trkpt><trkpt lat="44.1549202" lon="9.9006686"><ele>25.0</ele><time>2026-04-29T15:48:49.781Z</time></trkpt><trkpt lat="44.1547369" lon="9.9009206"><ele>24.5</ele><time>2026-04-29T15:48:50.78Z</time></trkpt><trkpt lat="44.1545518" lon="9.9011684"><ele>24.0</ele><time>2026-04-29T15:48:51.78Z</time></trkpt><trkpt lat="44.1543631" lon="9.9014081"><ele>24.0</ele><time>2026-04-29T15:48:52.782Z</time></trkpt><trkpt lat="44.1541722" lon="9.901644"><ele>24.0</ele><time>2026-04-29T15:48:53.779Z</time></trkpt><trkpt lat="44.153979" lon="9.9018761"><ele>23.0</ele><time>2026-04-29T15:48:54.779Z</time></trkpt><trkpt lat="44.1537835" lon="9.902106"><ele>22.0</ele><time>2026-04-29T15:48:55.778Z</time></trkpt><trkpt lat="44.1535855" lon="9.9023286"><ele>22.0</ele><time>2026-04-29T15:48:56.779Z</time></trkpt><trkpt lat="44.1533818" lon="9.9025469"><ele>22.0</ele><time>2026-04-29T15:48:57.779Z</time></trkpt><trkpt lat="44.153175" lon="9.9027606"><ele>21.0</ele><time>2026-04-29T15:48:58.784Z</time></trkpt><trkpt lat="44.1529651" lon="9.9029692"><ele>20.0</ele><time>2026-04-29T15:48:59.777Z</time></trkpt><trkpt lat="44.1527526" lon="9.9031739"><ele>20.0</ele><time>2026-04-29T15:49:00.779Z</time></trkpt><trkpt lat="44.1525374" lon="9.9033722"><ele>20.0</ele><time>2026-04-29T15:49:01.787Z</time></trkpt><trkpt lat="44.1523196" lon="9.9035661"><ele>22.0</ele><time>2026-04-29T15:49:02.778Z</time></trkpt><trkpt lat="44.1520974" lon="9.9037553"><ele>24.0</ele><time>2026-04-29T15:49:03.779Z</time></trkpt><trkpt lat="44.1518759" lon="9.9039428"><ele>24.0</ele><time>2026-04-29T15:49:04.778Z</time></trkpt><trkpt lat="44.1516529" lon="9.904122"><ele>24.0</ele><time>2026-04-29T15:49:05.785Z</time></trkpt><trkpt lat="44.151428" lon="9.9042991"><ele>21.0</ele><time>2026-04-29T15:49:06.78Z</time></trkpt><trkpt lat="44.1512038" lon="9.9044759"><ele>18.0</ele><time>2026-04-29T15:49:07.783Z</time></trkpt><trkpt lat="44.1509795" lon="9.9046503"><ele>18.0</ele><time>2026-04-29T15:49:08.781Z</time></trkpt><trkpt lat="44.1507552" lon="9.9048238"><ele>18.0</ele><time>2026-04-29T15:49:09.777Z</time></trkpt><trkpt lat="44.1505304" lon="9.9049959"><ele>17.5</ele><time>2026-04-29T15:49:10.778Z</time></trkpt><trkpt lat="44.1503067" lon="9.90517"><ele>17.0</ele><time>2026-04-29T15:49:11.779Z</time></trkpt><trkpt lat="44.1500824" lon="9.9053438"><ele>16.0</ele><time>2026-04-29T15:49:12.779Z</time></trkpt><trkpt lat="44.1498575" lon="9.9055193"><ele>15.0</ele><time>2026-04-29T15:49:13.781Z</time></trkpt><trkpt lat="44.1496335" lon="9.9056945"><ele>15.0</ele><time>2026-04-29T15:49:14.779Z</time></trkpt><trkpt lat="44.1494097" lon="9.905868"><ele>15.0</ele><time>2026-04-29T15:49:15.779Z</time></trkpt><trkpt lat="44.1491855" lon="9.9060438"><ele>15.0</ele><time>2026-04-29T15:49:16.778Z</time></trkpt><trkpt lat="44.1489593" lon="9.9062165"><ele>15.0</ele><time>2026-04-29T15:49:17.781Z</time></trkpt><trkpt lat="44.1487366" lon="9.9063893"><ele>15.0</ele><time>2026-04-29T15:49:18.78Z</time></trkpt><trkpt lat="44.1485124" lon="9.9065623"><ele>15.0</ele><time>2026-04-29T15:49:19.78Z</time></trkpt><trkpt lat="44.1482893" lon="9.9067382"><ele>15.0</ele><time>2026-04-29T15:49:20.78Z</time></trkpt><trkpt lat="44.1480681" lon="9.9069141"><ele>15.0</ele><time>2026-04-29T15:49:21.779Z</time></trkpt><trkpt lat="44.1478448" lon="9.9070894"><ele>15.0</ele><time>2026-04-29T15:49:22.78Z</time></trkpt><trkpt lat="44.1476221" lon="9.9072654"><ele>15.0</ele><time>2026-04-29T15:49:23.779Z</time></trkpt><trkpt lat="44.1473973" lon="9.9074414"><ele>14.5</ele><time>2026-04-29T15:49:24.78Z</time></trkpt><trkpt lat="44.1471749" lon="9.9076166"><ele>14.0</ele><time>2026-04-29T15:49:25.779Z</time></trkpt><trkpt lat="44.1469517" lon="9.907792"><ele>14.0</ele><time>2026-04-29T15:49:26.782Z</time></trkpt><trkpt lat="44.1467275" lon="9.9079678"><ele>14.0</ele><time>2026-04-29T15:49:27.778Z</time></trkpt><trkpt lat="44.1465034" lon="9.9081424"><ele>13.5</ele><time>2026-04-29T15:49:28.779Z</time></trkpt><trkpt lat="44.1462786" lon="9.9083167"><ele>13.0</ele><time>2026-04-29T15:49:29.781Z</time></trkpt><trkpt lat="44.1460556" lon="9.9084881"><ele>12.5</ele><time>2026-04-29T15:49:30.779Z</time></trkpt><trkpt lat="44.1458306" lon="9.908662"><ele>12.0</ele><time>2026-04-29T15:49:31.78Z</time></trkpt><trkpt lat="44.1456054" lon="9.9088337"><ele>13.5</ele><time>2026-04-29T15:49:32.78Z</time></trkpt><trkpt lat="44.1453812" lon="9.9090089"><ele>15.0</ele><time>2026-04-29T15:49:33.778Z</time></trkpt><trkpt lat="44.145159" lon="9.9091857"><ele>15.0</ele><time>2026-04-29T15:49:34.78Z</time></trkpt><trkpt lat="44.1449367" lon="9.9093617"><ele>15.0</ele><time>2026-04-29T15:49:35.779Z</time></trkpt><trkpt lat="44.1447143" lon="9.9095363"><ele>15.5</ele><time>2026-04-29T15:49:36.779Z</time></trkpt><trkpt lat="44.1444901" lon="9.9097111"><ele>16.0</ele><time>2026-04-29T15:49:37.78Z</time></trkpt><trkpt lat="44.1442658" lon="9.9098869"><ele>16.0</ele><time>2026-04-29T15:49:38.779Z</time></trkpt><trkpt lat="44.1440417" lon="9.9100625"><ele>16.0</ele><time>2026-04-29T15:49:39.779Z</time></trkpt><trkpt lat="44.1438176" lon="9.910236"><ele>18.0</ele><time>2026-04-29T15:49:40.779Z</time></trkpt><trkpt lat="44.143592" lon="9.9104088"><ele>20.0</ele><time>2026-04-29T15:49:41.78Z</time></trkpt><trkpt lat="44.143368" lon="9.9105831"><ele>19.0</ele><time>2026-04-29T15:49:42.78Z</time></trkpt><trkpt lat="44.1431442" lon="9.9107573"><ele>18.0</ele><time>2026-04-29T15:49:43.779Z</time></trkpt><trkpt lat="44.142921" lon="9.9109324"><ele>18.0</ele><time>2026-04-29T15:49:44.779Z</time></trkpt><trkpt lat="44.1426976" lon="9.911106"><ele>18.0</ele><time>2026-04-29T15:49:45.78Z</time></trkpt><trkpt lat="44.1424729" lon="9.9112805"><ele>17.0</ele><time>2026-04-29T15:49:46.779Z</time></trkpt><trkpt lat="44.1422464" lon="9.9114546"><ele>16.0</ele><time>2026-04-29T15:49:47.779Z</time></trkpt><trkpt lat="44.1420194" lon="9.9116282"><ele>15.0</ele><time>2026-04-29T15:49:48.779Z</time></trkpt><trkpt lat="44.1417949" lon="9.9118057"><ele>14.0</ele><time>2026-04-29T15:49:49.792Z</time></trkpt><trkpt lat="44.1415724" lon="9.9119854"><ele>14.5</ele><time>2026-04-29T15:49:50.78Z</time></trkpt><trkpt lat="44.1413555" lon="9.9121653"><ele>15.0</ele><time>2026-04-29T15:49:51.78Z</time></trkpt><trkpt lat="44.1411485" lon="9.9123407"><ele>15.0</ele><time>2026-04-29T15:49:52.778Z</time></trkpt><trkpt lat="44.1409518" lon="9.9125149"><ele>15.0</ele><time>2026-04-29T15:49:53.777Z</time></trkpt><trkpt lat="44.1407647" lon="9.9126873"><ele>15.333333333333332</ele><time>2026-04-29T15:49:54.778Z</time></trkpt><trkpt lat="44.1405814" lon="9.9128608"><ele>15.666666666666666</ele><time>2026-04-29T15:49:55.781Z</time></trkpt><trkpt lat="44.1403994" lon="9.9130373"><ele>16.0</ele><time>2026-04-29T15:49:56.778Z</time></trkpt><trkpt lat="44.1402177" lon="9.9132157"><ele>16.0</ele><time>2026-04-29T15:49:57.779Z</time></trkpt><trkpt lat="44.1400395" lon="9.9133924"><ele>16.0</ele><time>2026-04-29T15:49:58.779Z</time></trkpt><trkpt lat="44.139868" lon="9.9135638"><ele>16.0</ele><time>2026-04-29T15:49:59.779Z</time></trkpt><trkpt lat="44.1397046" lon="9.9137319"><ele>15.333333333333332</ele><time>2026-04-29T15:50:00.777Z</time></trkpt><trkpt lat="44.1395444" lon="9.9139006"><ele>14.666666666666668</ele><time>2026-04-29T15:50:01.777Z</time></trkpt><trkpt lat="44.1393861" lon="9.9140727"><ele>14.0</ele><time>2026-04-29T15:50:02.778Z</time></trkpt><trkpt lat="44.1392334" lon="9.9142456"><ele>14.0</ele><time>2026-04-29T15:50:03.779Z</time></trkpt><trkpt lat="44.1390881" lon="9.9144141"><ele>14.0</ele><time>2026-04-29T15:50:04.78Z</time></trkpt><trkpt lat="44.138949" lon="9.9145799"><ele>14.0</ele><time>2026-04-29T15:50:05.777Z</time></trkpt><trkpt lat="44.1388201" lon="9.9147358"><ele>14.0</ele><time>2026-04-29T15:50:06.782Z</time></trkpt><trkpt lat="44.1386983" lon="9.9148815"><ele>14.0</ele><time>2026-04-29T15:50:07.779Z</time></trkpt><trkpt lat="44.1385815" lon="9.9150174"><ele>14.0</ele><time>2026-04-29T15:50:08.778Z</time></trkpt><trkpt lat="44.1384672" lon="9.9151368"><ele>14.0</ele><time>2026-04-29T15:50:09.777Z</time></trkpt><trkpt lat="44.1383564" lon="9.9152431"><ele>14.0</ele><time>2026-04-29T15:50:10.777Z</time></trkpt><trkpt lat="44.1382489" lon="9.9153435"><ele>14.0</ele><time>2026-04-29T15:50:11.779Z</time></trkpt><trkpt lat="44.1381479" lon="9.9154358"><ele>14.0</ele><time>2026-04-29T15:50:12.779Z</time></trkpt><trkpt lat="44.1380522" lon="9.915527"><ele>14.000000000000002</ele><time>2026-04-29T15:50:13.778Z</time></trkpt><trkpt lat="44.1379634" lon="9.915616"><ele>14.0</ele><time>2026-04-29T15:50:14.779Z</time></trkpt><trkpt lat="44.1378831" lon="9.915697"><ele>14.0</ele><time>2026-04-29T15:50:15.778Z</time></trkpt><trkpt lat="44.1378121" lon="9.9157657"><ele>14.0</ele><time>2026-04-29T15:50:16.778Z</time></trkpt><trkpt lat="44.1377486" lon="9.9158314"><ele>14.000000000000002</ele><time>2026-04-29T15:50:17.776Z</time></trkpt><trkpt lat="44.13769" lon="9.9158923"><ele>14.0</ele><time>2026-04-29T15:50:18.781Z</time></trkpt><trkpt lat="44.1376353" lon="9.9159497"><ele>14.000000000000002</ele><time>2026-04-29T15:50:19.779Z</time></trkpt><trkpt lat="44.1375836" lon="9.916002"><ele>14.0</ele><time>2026-04-29T15:50:20.78Z</time></trkpt><trkpt lat="44.1374841" lon="9.9160797"><ele>14.0</ele><time>2026-04-29T15:50:22.779Z</time></trkpt><trkpt lat="44.1373961" lon="9.9160897"><ele>14.0</ele><time>2026-04-29T15:50:24.779Z</time></trkpt><trkpt lat="44.1373323" lon="9.9159995"><ele>14.000000000000002</ele><time>2026-04-29T15:50:27.779Z</time></trkpt><trkpt lat="44.1372878" lon="9.9159314"><ele>14.0</ele><time>2026-04-29T15:50:31.778Z</time></trkpt><trkpt lat="44.1372452" lon="9.9160328"><ele>14.0</ele><time>2026-04-29T16:11:00.778Z</time></trkpt><trkpt lat="44.1372208" lon="9.9161637"><ele>13.999999999999998</ele><time>2026-04-29T16:11:02.776Z</time></trkpt><trkpt lat="44.1371996" lon="9.9162527"><ele>13.999999999999998</ele><time>2026-04-29T16:11:03.787Z</time></trkpt><trkpt lat="44.1371154" lon="9.9163917"><ele>14.0</ele><time>2026-04-29T16:11:05.777Z</time></trkpt><trkpt lat="44.1370474" lon="9.9165002"><ele>14.0</ele><time>2026-04-29T16:11:06.779Z</time></trkpt><trkpt lat="44.1369786" lon="9.9165887"><ele>14.0</ele><time>2026-04-29T16:11:07.778Z</time></trkpt><trkpt lat="44.1369007" lon="9.9166939"><ele>14.0</ele><time>2026-04-29T16:11:08.776Z</time></trkpt><trkpt lat="44.1368218" lon="9.9168055"><ele>14.0</ele><time>2026-04-29T16:11:09.775Z</time></trkpt><trkpt lat="44.1367423" lon="9.9169309"><ele>14.0</ele><time>2026-04-29T16:11:10.779Z</time></trkpt><trkpt lat="44.1366679" lon="9.9170736"><ele>13.75</ele><time>2026-04-29T16:11:11.779Z</time></trkpt><trkpt lat="44.1365935" lon="9.9172311"><ele>13.5</ele><time>2026-04-29T16:11:12.778Z</time></trkpt><trkpt lat="44.1365194" lon="9.917397"><ele>13.25</ele><time>2026-04-29T16:11:13.777Z</time></trkpt><trkpt lat="44.1364434" lon="9.9175725"><ele>13.0</ele><time>2026-04-29T16:11:14.776Z</time></trkpt><trkpt lat="44.1363624" lon="9.9177514"><ele>12.333333333333332</ele><time>2026-04-29T16:11:15.777Z</time></trkpt><trkpt lat="44.1362724" lon="9.9179324"><ele>11.666666666666666</ele><time>2026-04-29T16:11:16.781Z</time></trkpt><trkpt lat="44.1361664" lon="9.9181129"><ele>11.0</ele><time>2026-04-29T16:11:17.781Z</time></trkpt><trkpt lat="44.1360465" lon="9.9182858"><ele>10.333333333333332</ele><time>2026-04-29T16:11:18.779Z</time></trkpt><trkpt lat="44.1359171" lon="9.9184602"><ele>9.666666666666666</ele><time>2026-04-29T16:11:19.78Z</time></trkpt><trkpt lat="44.1357814" lon="9.9186381"><ele>9.0</ele><time>2026-04-29T16:11:20.778Z</time></trkpt><trkpt lat="44.1356422" lon="9.9188274"><ele>10.666666666666668</ele><time>2026-04-29T16:11:21.777Z</time></trkpt><trkpt lat="44.135497" lon="9.9190275"><ele>12.333333333333334</ele><time>2026-04-29T16:11:22.777Z</time></trkpt><trkpt lat="44.1353467" lon="9.9192356"><ele>14.0</ele><time>2026-04-29T16:11:23.778Z</time></trkpt><trkpt lat="44.1351927" lon="9.9194522"><ele>14.0</ele><time>2026-04-29T16:11:24.779Z</time></trkpt><trkpt lat="44.1350322" lon="9.9196759"><ele>14.0</ele><time>2026-04-29T16:11:25.776Z</time></trkpt><trkpt lat="44.1348627" lon="9.9199049"><ele>11.5</ele><time>2026-04-29T16:11:26.778Z</time></trkpt><trkpt lat="44.1346835" lon="9.9201432"><ele>9.0</ele><time>2026-04-29T16:11:27.776Z</time></trkpt><trkpt lat="44.1344983" lon="9.9203859"><ele>9.0</ele><time>2026-04-29T16:11:28.777Z</time></trkpt><trkpt lat="44.1343055" lon="9.9206392"><ele>9.0</ele><time>2026-04-29T16:11:29.775Z</time></trkpt><trkpt lat="44.1341032" lon="9.9209014"><ele>9.5</ele><time>2026-04-29T16:11:30.776Z</time></trkpt><trkpt lat="44.1338956" lon="9.9211701"><ele>10.0</ele><time>2026-04-29T16:11:31.78Z</time></trkpt><trkpt lat="44.1336828" lon="9.9214401"><ele>10.0</ele><time>2026-04-29T16:11:32.779Z</time></trkpt><trkpt lat="44.1334642" lon="9.9217075"><ele>10.0</ele><time>2026-04-29T16:11:33.781Z</time></trkpt><trkpt lat="44.1332431" lon="9.9219785"><ele>9.5</ele><time>2026-04-29T16:11:34.777Z</time></trkpt><trkpt lat="44.1330208" lon="9.9222564"><ele>9.0</ele><time>2026-04-29T16:11:35.775Z</time></trkpt><trkpt lat="44.1327982" lon="9.9225405"><ele>10.5</ele><time>2026-04-29T16:11:36.776Z</time></trkpt><trkpt lat="44.1325736" lon="9.922831"><ele>12.0</ele><time>2026-04-29T16:11:37.779Z</time></trkpt><trkpt lat="44.1323473" lon="9.9231233"><ele>12.5</ele><time>2026-04-29T16:11:38.777Z</time></trkpt><trkpt lat="44.1321164" lon="9.9234157"><ele>13.0</ele><time>2026-04-29T16:11:39.779Z</time></trkpt><trkpt lat="44.1318844" lon="9.9237126"><ele>13.0</ele><time>2026-04-29T16:11:40.778Z</time></trkpt><trkpt lat="44.1316511" lon="9.9240139"><ele>13.0</ele><time>2026-04-29T16:11:41.776Z</time></trkpt><trkpt lat="44.1314169" lon="9.9243168"><ele>12.5</ele><time>2026-04-29T16:11:42.778Z</time></trkpt><trkpt lat="44.1311809" lon="9.9246233"><ele>12.0</ele><time>2026-04-29T16:11:43.778Z</time></trkpt><trkpt lat="44.1309442" lon="9.9249348"><ele>11.5</ele><time>2026-04-29T16:11:44.777Z</time></trkpt><trkpt lat="44.1307062" lon="9.925248"><ele>11.0</ele><time>2026-04-29T16:11:45.779Z</time></trkpt><trkpt lat="44.1304656" lon="9.9255625"><ele>11.0</ele><time>2026-04-29T16:11:46.777Z</time></trkpt><trkpt lat="44.1302226" lon="9.9258798"><ele>11.0</ele><time>2026-04-29T16:11:47.779Z</time></trkpt><trkpt lat="44.1299776" lon="9.9261976"><ele>10.5</ele><time>2026-04-29T16:11:48.78Z</time></trkpt><trkpt lat="44.1297332" lon="9.926517"><ele>10.0</ele><time>2026-04-29T16:11:49.775Z</time></trkpt><trkpt lat="44.1294896" lon="9.9268368"><ele>10.5</ele><time>2026-04-29T16:11:50.777Z</time></trkpt><trkpt lat="44.1292455" lon="9.9271564"><ele>11.0</ele><time>2026-04-29T16:11:51.78Z</time></trkpt><trkpt lat="44.1290007" lon="9.9274746"><ele>11.5</ele><time>2026-04-29T16:11:52.78Z</time></trkpt><trkpt lat="44.1287539" lon="9.9277928"><ele>12.0</ele><time>2026-04-29T16:11:53.778Z</time></trkpt><trkpt lat="44.1285084" lon="9.9281099"><ele>11.5</ele><time>2026-04-29T16:11:54.777Z</time></trkpt><trkpt lat="44.1282598" lon="9.9284236"><ele>11.0</ele><time>2026-04-29T16:11:55.776Z</time></trkpt><trkpt lat="44.1280105" lon="9.9287375"><ele>11.0</ele><time>2026-04-29T16:11:56.777Z</time></trkpt><trkpt lat="44.1277615" lon="9.9290526"><ele>11.0</ele><time>2026-04-29T16:11:57.776Z</time></trkpt><trkpt lat="44.1275127" lon="9.9293701"><ele>11.0</ele><time>2026-04-29T16:11:58.775Z</time></trkpt><trkpt lat="44.1272652" lon="9.9296897"><ele>11.0</ele><time>2026-04-29T16:11:59.776Z</time></trkpt><trkpt lat="44.1270184" lon="9.9300134"><ele>11.0</ele><time>2026-04-29T16:12:00.774Z</time></trkpt><trkpt lat="44.1267724" lon="9.9303349"><ele>11.0</ele><time>2026-04-29T16:12:01.775Z</time></trkpt><trkpt lat="44.1265253" lon="9.9306542"><ele>11.5</ele><time>2026-04-29T16:12:02.776Z</time></trkpt><trkpt lat="44.1262783" lon="9.9309708"><ele>12.0</ele><time>2026-04-29T16:12:03.779Z</time></trkpt><trkpt lat="44.1260311" lon="9.9312849"><ele>12.0</ele><time>2026-04-29T16:12:04.775Z</time></trkpt><trkpt lat="44.125784" lon="9.9315971"><ele>12.0</ele><time>2026-04-29T16:12:05.777Z</time></trkpt><trkpt lat="44.1255383" lon="9.9319124"><ele>10.5</ele><time>2026-04-29T16:12:06.776Z</time></trkpt><trkpt lat="44.1252922" lon="9.932228"><ele>9.0</ele><time>2026-04-29T16:12:07.775Z</time></trkpt><trkpt lat="44.1250449" lon="9.9325443"><ele>10.0</ele><time>2026-04-29T16:12:08.777Z</time></trkpt><trkpt lat="44.124798" lon="9.9328621"><ele>11.0</ele><time>2026-04-29T16:12:09.779Z</time></trkpt><trkpt lat="44.1245484" lon="9.9331786"><ele>11.0</ele><time>2026-04-29T16:12:10.778Z</time></trkpt><trkpt lat="44.1242975" lon="9.9334887"><ele>11.0</ele><time>2026-04-29T16:12:11.778Z</time></trkpt><trkpt lat="44.1240419" lon="9.9337876"><ele>10.5</ele><time>2026-04-29T16:12:12.776Z</time></trkpt><trkpt lat="44.1237821" lon="9.9340807"><ele>10.0</ele><time>2026-04-29T16:12:13.777Z</time></trkpt><trkpt lat="44.1235205" lon="9.9343669"><ele>10.0</ele><time>2026-04-29T16:12:14.775Z</time></trkpt><trkpt lat="44.1232554" lon="9.934647"><ele>10.0</ele><time>2026-04-29T16:12:15.779Z</time></trkpt><trkpt lat="44.1229879" lon="9.9349205"><ele>9.5</ele><time>2026-04-29T16:12:16.78Z</time></trkpt><trkpt lat="44.1227183" lon="9.9351858"><ele>9.0</ele><time>2026-04-29T16:12:17.776Z</time></trkpt><trkpt lat="44.1224459" lon="9.9354405"><ele>9.0</ele><time>2026-04-29T16:12:18.776Z</time></trkpt><trkpt lat="44.1221663" lon="9.9356843"><ele>9.0</ele><time>2026-04-29T16:12:19.776Z</time></trkpt><trkpt lat="44.1218796" lon="9.9359175"><ele>9.0</ele><time>2026-04-29T16:12:20.781Z</time></trkpt><trkpt lat="44.1215877" lon="9.9361435"><ele>9.0</ele><time>2026-04-29T16:12:21.774Z</time></trkpt><trkpt lat="44.1212926" lon="9.9363676"><ele>9.0</ele><time>2026-04-29T16:12:22.779Z</time></trkpt><trkpt lat="44.1209942" lon="9.9365919"><ele>9.0</ele><time>2026-04-29T16:12:23.776Z</time></trkpt><trkpt lat="44.1206934" lon="9.9368147"><ele>9.0</ele><time>2026-04-29T16:12:24.779Z</time></trkpt><trkpt lat="44.1203887" lon="9.9370315"><ele>9.0</ele><time>2026-04-29T16:12:25.78Z</time></trkpt><trkpt lat="44.1200815" lon="9.9372424"><ele>10.0</ele><time>2026-04-29T16:12:26.777Z</time></trkpt><trkpt lat="44.1197708" lon="9.9374488"><ele>11.0</ele><time>2026-04-29T16:12:27.776Z</time></trkpt><trkpt lat="44.1194568" lon="9.9376494"><ele>11.0</ele><time>2026-04-29T16:12:28.775Z</time></trkpt><trkpt lat="44.1191403" lon="9.9378474"><ele>11.0</ele><time>2026-04-29T16:12:29.774Z</time></trkpt><trkpt lat="44.1188205" lon="9.9380384"><ele>10.5</ele><time>2026-04-29T16:12:30.78Z</time></trkpt><trkpt lat="44.1184997" lon="9.9382298"><ele>10.0</ele><time>2026-04-29T16:12:31.778Z</time></trkpt><trkpt lat="44.1181795" lon="9.9384218"><ele>10.0</ele><time>2026-04-29T16:12:32.778Z</time></trkpt><trkpt lat="44.1178798" lon="9.938602"><ele>10.0</ele><time>2026-04-29T16:12:33.776Z</time></trkpt><trkpt lat="44.1176104" lon="9.9387649"><ele>9.5</ele><time>2026-04-29T16:12:34.776Z</time></trkpt><trkpt lat="44.1173542" lon="9.9389133"><ele>9.0</ele><time>2026-04-29T16:12:35.776Z</time></trkpt><trkpt lat="44.1171138" lon="9.9390552"><ele>9.0</ele><time>2026-04-29T16:12:36.779Z</time></trkpt><trkpt lat="44.1168813" lon="9.9391927"><ele>9.0</ele><time>2026-04-29T16:12:37.78Z</time></trkpt><trkpt lat="44.1166547" lon="9.9393281"><ele>9.0</ele><time>2026-04-29T16:12:38.778Z</time></trkpt><trkpt lat="44.1164363" lon="9.9394607"><ele>9.0</ele><time>2026-04-29T16:12:39.778Z</time></trkpt><trkpt lat="44.1162224" lon="9.9395866"><ele>9.0</ele><time>2026-04-29T16:12:40.779Z</time></trkpt><trkpt lat="44.1160062" lon="9.9397106"><ele>9.0</ele><time>2026-04-29T16:12:41.779Z</time></trkpt><trkpt lat="44.1157944" lon="9.9398321"><ele>8.5</ele><time>2026-04-29T16:12:42.777Z</time></trkpt><trkpt lat="44.1155817" lon="9.9399533"><ele>8.0</ele><time>2026-04-29T16:12:43.778Z</time></trkpt><trkpt lat="44.115367" lon="9.9400772"><ele>7.5</ele><time>2026-04-29T16:12:44.775Z</time></trkpt><trkpt lat="44.1151547" lon="9.9402049"><ele>7.0</ele><time>2026-04-29T16:12:45.776Z</time></trkpt><trkpt lat="44.1149406" lon="9.9403252"><ele>6.5</ele><time>2026-04-29T16:12:46.777Z</time></trkpt><trkpt lat="44.1147242" lon="9.9404435"><ele>6.0</ele><time>2026-04-29T16:12:47.779Z</time></trkpt><trkpt lat="44.1145081" lon="9.9405597"><ele>6.0</ele><time>2026-04-29T16:12:48.78Z</time></trkpt><trkpt lat="44.1142928" lon="9.9406804"><ele>6.0</ele><time>2026-04-29T16:12:49.779Z</time></trkpt><trkpt lat="44.114076" lon="9.9408068"><ele>7.0</ele><time>2026-04-29T16:12:50.778Z</time></trkpt><trkpt lat="44.1138466" lon="9.9409354"><ele>8.0</ele><time>2026-04-29T16:12:51.776Z</time></trkpt><trkpt lat="44.1136026" lon="9.9410712"><ele>8.0</ele><time>2026-04-29T16:12:52.776Z</time></trkpt><trkpt lat="44.1133595" lon="9.9412056"><ele>8.0</ele><time>2026-04-29T16:12:53.776Z</time></trkpt><trkpt lat="44.1131304" lon="9.9413402"><ele>8.0</ele><time>2026-04-29T16:12:54.78Z</time></trkpt><trkpt lat="44.1129071" lon="9.9414674"><ele>8.0</ele><time>2026-04-29T16:12:55.779Z</time></trkpt><trkpt lat="44.1126944" lon="9.9415915"><ele>8.0</ele><time>2026-04-29T16:12:56.78Z</time></trkpt><trkpt lat="44.1124868" lon="9.9417147"><ele>8.0</ele><time>2026-04-29T16:12:57.777Z</time></trkpt><trkpt lat="44.1122768" lon="9.9418402"><ele>9.0</ele><time>2026-04-29T16:12:58.779Z</time></trkpt><trkpt lat="44.1120681" lon="9.9419642"><ele>10.0</ele><time>2026-04-29T16:12:59.777Z</time></trkpt><trkpt lat="44.1118601" lon="9.942088"><ele>10.0</ele><time>2026-04-29T16:13:00.776Z</time></trkpt><trkpt lat="44.1116519" lon="9.9422089"><ele>10.0</ele><time>2026-04-29T16:13:01.779Z</time></trkpt><trkpt lat="44.1114462" lon="9.9423303"><ele>10.0</ele><time>2026-04-29T16:13:02.777Z</time></trkpt><trkpt lat="44.1112395" lon="9.9424539"><ele>10.0</ele><time>2026-04-29T16:13:03.774Z</time></trkpt><trkpt lat="44.1110302" lon="9.9425749"><ele>10.0</ele><time>2026-04-29T16:13:04.777Z</time></trkpt><trkpt lat="44.110822" lon="9.9426971"><ele>10.666666666666668</ele><time>2026-04-29T16:13:05.776Z</time></trkpt><trkpt lat="44.1106189" lon="9.9428181"><ele>11.333333333333334</ele><time>2026-04-29T16:13:06.775Z</time></trkpt><trkpt lat="44.1104179" lon="9.9429348"><ele>12.0</ele><time>2026-04-29T16:13:07.779Z</time></trkpt><trkpt lat="44.1102183" lon="9.943051"><ele>12.0</ele><time>2026-04-29T16:13:08.777Z</time></trkpt><trkpt lat="44.1100197" lon="9.9431642"><ele>12.0</ele><time>2026-04-29T16:13:09.777Z</time></trkpt><trkpt lat="44.1098223" lon="9.9432794"><ele>12.0</ele><time>2026-04-29T16:13:10.779Z</time></trkpt><trkpt lat="44.1096222" lon="9.9433983"><ele>11.333333333333334</ele><time>2026-04-29T16:13:11.777Z</time></trkpt><trkpt lat="44.1094196" lon="9.9435228"><ele>10.666666666666668</ele><time>2026-04-29T16:13:12.778Z</time></trkpt><trkpt lat="44.1092147" lon="9.9436497"><ele>10.0</ele><time>2026-04-29T16:13:13.776Z</time></trkpt><trkpt lat="44.1090044" lon="9.9437784"><ele>9.5</ele><time>2026-04-29T16:13:14.775Z</time></trkpt><trkpt lat="44.1087897" lon="9.9439086"><ele>9.0</ele><time>2026-04-29T16:13:15.781Z</time></trkpt><trkpt lat="44.1085765" lon="9.9440356"><ele>9.0</ele><time>2026-04-29T16:13:16.777Z</time></trkpt><trkpt lat="44.1083696" lon="9.944156"><ele>9.0</ele><time>2026-04-29T16:13:17.776Z</time></trkpt><trkpt lat="44.1081636" lon="9.9442773"><ele>9.0</ele><time>2026-04-29T16:13:18.777Z</time></trkpt><trkpt lat="44.1079529" lon="9.9444023"><ele>8.666666666666666</ele><time>2026-04-29T16:13:19.777Z</time></trkpt><trkpt lat="44.1077439" lon="9.9445263"><ele>8.333333333333332</ele><time>2026-04-29T16:13:20.777Z</time></trkpt><trkpt lat="44.1075424" lon="9.944643"><ele>8.0</ele><time>2026-04-29T16:13:21.779Z</time></trkpt><trkpt lat="44.1073402" lon="9.9447613"><ele>7.5</ele><time>2026-04-29T16:13:22.777Z</time></trkpt><trkpt lat="44.1071301" lon="9.9448958"><ele>7.0</ele><time>2026-04-29T16:13:23.777Z</time></trkpt><trkpt lat="44.1069187" lon="9.9450413"><ele>7.0</ele><time>2026-04-29T16:13:24.775Z</time></trkpt><trkpt lat="44.1067098" lon="9.945191"><ele>7.0</ele><time>2026-04-29T16:13:25.775Z</time></trkpt><trkpt lat="44.1065026" lon="9.9453442"><ele>7.0</ele><time>2026-04-29T16:13:26.777Z</time></trkpt><trkpt lat="44.1062971" lon="9.9455044"><ele>7.0</ele><time>2026-04-29T16:13:27.776Z</time></trkpt><trkpt lat="44.1060951" lon="9.9456708"><ele>7.0</ele><time>2026-04-29T16:13:28.779Z</time></trkpt><trkpt lat="44.105894" lon="9.9458404"><ele>7.0</ele><time>2026-04-29T16:13:29.777Z</time></trkpt><trkpt lat="44.1056934" lon="9.9460117"><ele>8.0</ele><time>2026-04-29T16:13:30.776Z</time></trkpt><trkpt lat="44.105496" lon="9.9461895"><ele>9.0</ele><time>2026-04-29T16:13:31.775Z</time></trkpt><trkpt lat="44.1053005" lon="9.946374"><ele>9.0</ele><time>2026-04-29T16:13:32.776Z</time></trkpt><trkpt lat="44.1051089" lon="9.9465612"><ele>9.0</ele><time>2026-04-29T16:13:33.775Z</time></trkpt><trkpt lat="44.1049221" lon="9.9467456"><ele>9.5</ele><time>2026-04-29T16:13:34.776Z</time></trkpt><trkpt lat="44.104735" lon="9.9469392"><ele>10.0</ele><time>2026-04-29T16:13:35.778Z</time></trkpt><trkpt lat="44.1045498" lon="9.947138"><ele>10.0</ele><time>2026-04-29T16:13:36.775Z</time></trkpt><trkpt lat="44.1043654" lon="9.9473439"><ele>10.0</ele><time>2026-04-29T16:13:37.776Z</time></trkpt><trkpt lat="44.1041848" lon="9.9475544"><ele>9.0</ele><time>2026-04-29T16:13:38.781Z</time></trkpt><trkpt lat="44.1040099" lon="9.9477689"><ele>8.0</ele><time>2026-04-29T16:13:39.776Z</time></trkpt><trkpt lat="44.1038401" lon="9.9479863"><ele>8.0</ele><time>2026-04-29T16:13:40.777Z</time></trkpt><trkpt lat="44.1036705" lon="9.9482073"><ele>8.0</ele><time>2026-04-29T16:13:41.777Z</time></trkpt><trkpt lat="44.1035014" lon="9.9484314"><ele>7.0</ele><time>2026-04-29T16:13:42.775Z</time></trkpt><trkpt lat="44.1033359" lon="9.9486616"><ele>6.0</ele><time>2026-04-29T16:13:43.775Z</time></trkpt><trkpt lat="44.1031728" lon="9.9488977"><ele>6.0</ele><time>2026-04-29T16:13:44.775Z</time></trkpt><trkpt lat="44.1030082" lon="9.9491375"><ele>6.0</ele><time>2026-04-29T16:13:45.777Z</time></trkpt><trkpt lat="44.1028455" lon="9.949384"><ele>6.0</ele><time>2026-04-29T16:13:46.776Z</time></trkpt><trkpt lat="44.1026856" lon="9.9496327"><ele>6.0</ele><time>2026-04-29T16:13:47.775Z</time></trkpt><trkpt lat="44.102532" lon="9.9498856"><ele>7.5</ele><time>2026-04-29T16:13:48.775Z</time></trkpt><trkpt lat="44.1023823" lon="9.9501394"><ele>9.0</ele><time>2026-04-29T16:13:49.775Z</time></trkpt><trkpt lat="44.1022391" lon="9.9503965"><ele>9.0</ele><time>2026-04-29T16:13:50.776Z</time></trkpt><trkpt lat="44.1020964" lon="9.9506538"><ele>9.0</ele><time>2026-04-29T16:13:51.78Z</time></trkpt><trkpt lat="44.101958" lon="9.9509118"><ele>9.0</ele><time>2026-04-29T16:13:52.775Z</time></trkpt><trkpt lat="44.1018234" lon="9.9511757"><ele>9.0</ele><time>2026-04-29T16:13:53.775Z</time></trkpt><trkpt lat="44.1016941" lon="9.9514424"><ele>8.5</ele><time>2026-04-29T16:13:54.775Z</time></trkpt><trkpt lat="44.1015655" lon="9.9517051"><ele>8.0</ele><time>2026-04-29T16:13:55.776Z</time></trkpt><trkpt lat="44.1014372" lon="9.9519704"><ele>9.0</ele><time>2026-04-29T16:13:56.776Z</time></trkpt><trkpt lat="44.1013064" lon="9.95223"><ele>10.0</ele><time>2026-04-29T16:13:57.778Z</time></trkpt><trkpt lat="44.1011799" lon="9.9524911"><ele>8.5</ele><time>2026-04-29T16:13:58.776Z</time></trkpt><trkpt lat="44.1010511" lon="9.9527498"><ele>7.0</ele><time>2026-04-29T16:13:59.774Z</time></trkpt><trkpt lat="44.1009233" lon="9.9530085"><ele>7.0</ele><time>2026-04-29T16:14:00.773Z</time></trkpt><trkpt lat="44.100795" lon="9.9532662"><ele>7.0</ele><time>2026-04-29T16:14:01.777Z</time></trkpt><trkpt lat="44.1006657" lon="9.9535218"><ele>6.0</ele><time>2026-04-29T16:14:02.777Z</time></trkpt><trkpt lat="44.1005369" lon="9.9537808"><ele>5.0</ele><time>2026-04-29T16:14:03.774Z</time></trkpt><trkpt lat="44.1004091" lon="9.9540421"><ele>4.5</ele><time>2026-04-29T16:14:04.778Z</time></trkpt><trkpt lat="44.1002824" lon="9.9543054"><ele>4.0</ele><time>2026-04-29T16:14:05.776Z</time></trkpt><trkpt lat="44.1001543" lon="9.9545641"><ele>4.0</ele><time>2026-04-29T16:14:06.775Z</time></trkpt><trkpt lat="44.100024" lon="9.9548246"><ele>4.0</ele><time>2026-04-29T16:14:07.775Z</time></trkpt><trkpt lat="44.099895" lon="9.9550831"><ele>4.5</ele><time>2026-04-29T16:14:08.775Z</time></trkpt><trkpt lat="44.0997642" lon="9.9553421"><ele>5.0</ele><time>2026-04-29T16:14:09.777Z</time></trkpt><trkpt lat="44.0996379" lon="9.9556013"><ele>5.0</ele><time>2026-04-29T16:14:10.777Z</time></trkpt><trkpt lat="44.0995118" lon="9.9558612"><ele>5.0</ele><time>2026-04-29T16:14:11.781Z</time></trkpt><trkpt lat="44.0993819" lon="9.9561184"><ele>4.5</ele><time>2026-04-29T16:14:12.775Z</time></trkpt><trkpt lat="44.0992504" lon="9.9563789"><ele>4.0</ele><time>2026-04-29T16:14:13.778Z</time></trkpt><trkpt lat="44.0991156" lon="9.9566413"><ele>4.0</ele><time>2026-04-29T16:14:14.778Z</time></trkpt><trkpt lat="44.0989844" lon="9.9569069"><ele>4.0</ele><time>2026-04-29T16:14:15.778Z</time></trkpt><trkpt lat="44.0988513" lon="9.9571753"><ele>4.0</ele><time>2026-04-29T16:14:16.777Z</time></trkpt><trkpt lat="44.0987162" lon="9.957441"><ele>4.0</ele><time>2026-04-29T16:14:17.776Z</time></trkpt><trkpt lat="44.098584" lon="9.9577092"><ele>4.5</ele><time>2026-04-29T16:14:18.774Z</time></trkpt><trkpt lat="44.0984505" lon="9.9579731"><ele>5.0</ele><time>2026-04-29T16:14:19.776Z</time></trkpt><trkpt lat="44.0983216" lon="9.9582385"><ele>4.0</ele><time>2026-04-29T16:14:20.774Z</time></trkpt><trkpt lat="44.098193" lon="9.9585062"><ele>3.0</ele><time>2026-04-29T16:14:21.778Z</time></trkpt><trkpt lat="44.0980663" lon="9.9587761"><ele>3.0</ele><time>2026-04-29T16:14:22.78Z</time></trkpt><trkpt lat="44.0979352" lon="9.9590465"><ele>3.0</ele><time>2026-04-29T16:14:23.776Z</time></trkpt><trkpt lat="44.0978076" lon="9.9593125"><ele>3.5</ele><time>2026-04-29T16:14:24.774Z</time></trkpt><trkpt lat="44.0976779" lon="9.9595784"><ele>4.0</ele><time>2026-04-29T16:14:25.774Z</time></trkpt><trkpt lat="44.0975478" lon="9.9598441"><ele>4.0</ele><time>2026-04-29T16:14:26.775Z</time></trkpt><trkpt lat="44.0974198" lon="9.9601085"><ele>4.0</ele><time>2026-04-29T16:14:27.776Z</time></trkpt><trkpt lat="44.097288" lon="9.9603673"><ele>4.0</ele><time>2026-04-29T16:14:28.776Z</time></trkpt><trkpt lat="44.0971588" lon="9.9606326"><ele>4.0</ele><time>2026-04-29T16:14:29.774Z</time></trkpt><trkpt lat="44.0970306" lon="9.9608978"><ele>4.5</ele><time>2026-04-29T16:14:30.781Z</time></trkpt><trkpt lat="44.096901" lon="9.9611635"><ele>5.0</ele><time>2026-04-29T16:14:31.773Z</time></trkpt><trkpt lat="44.0967702" lon="9.9614262"><ele>5.0</ele><time>2026-04-29T16:14:32.775Z</time></trkpt><trkpt lat="44.0966353" lon="9.9616786"><ele>5.0</ele><time>2026-04-29T16:14:33.775Z</time></trkpt><trkpt lat="44.0964925" lon="9.9619325"><ele>5.5</ele><time>2026-04-29T16:14:34.774Z</time></trkpt><trkpt lat="44.09635" lon="9.9621871"><ele>6.0</ele><time>2026-04-29T16:14:35.777Z</time></trkpt><trkpt lat="44.0962066" lon="9.9624427"><ele>5.5</ele><time>2026-04-29T16:14:36.775Z</time></trkpt><trkpt lat="44.0960502" lon="9.9627069"><ele>5.0</ele><time>2026-04-29T16:14:37.774Z</time></trkpt><trkpt lat="44.095872" lon="9.9629941"><ele>5.0</ele><time>2026-04-29T16:14:38.775Z</time></trkpt><trkpt lat="44.0956824" lon="9.9633058"><ele>5.0</ele><time>2026-04-29T16:14:39.777Z</time></trkpt><trkpt lat="44.0954797" lon="9.963646"><ele>5.0</ele><time>2026-04-29T16:14:40.774Z</time></trkpt><trkpt lat="44.0952614" lon="9.9640055"><ele>5.0</ele><time>2026-04-29T16:14:41.775Z</time></trkpt><trkpt lat="44.0950271" lon="9.9643798"><ele>5.0</ele><time>2026-04-29T16:14:42.777Z</time></trkpt><trkpt lat="44.094778" lon="9.9647622"><ele>5.0</ele><time>2026-04-29T16:14:43.776Z</time></trkpt><trkpt lat="44.094513" lon="9.9651587"><ele>5.0</ele><time>2026-04-29T16:14:44.776Z</time></trkpt><trkpt lat="44.0942393" lon="9.9655644"><ele>5.0</ele><time>2026-04-29T16:14:45.774Z</time></trkpt><trkpt lat="44.0939532" lon="9.9659737"><ele>5.0</ele><time>2026-04-29T16:14:46.775Z</time></trkpt><trkpt lat="44.0936535" lon="9.966385"><ele>5.0</ele><time>2026-04-29T16:14:47.775Z</time></trkpt><trkpt lat="44.0933422" lon="9.9667964"><ele>5.5</ele><time>2026-04-29T16:14:48.775Z</time></trkpt><trkpt lat="44.093024" lon="9.9672081"><ele>6.0</ele><time>2026-04-29T16:14:49.773Z</time></trkpt><trkpt lat="44.0926966" lon="9.9676196"><ele>4.5</ele><time>2026-04-29T16:14:50.775Z</time></trkpt><trkpt lat="44.0923776" lon="9.9680057"><ele>3.0</ele><time>2026-04-29T16:14:51.775Z</time></trkpt><trkpt lat="44.0920723" lon="9.9683588"><ele>3.0</ele><time>2026-04-29T16:14:52.776Z</time></trkpt><trkpt lat="44.0917689" lon="9.9686982"><ele>3.0</ele><time>2026-04-29T16:14:53.777Z</time></trkpt><trkpt lat="44.0914694" lon="9.9690238"><ele>3.5</ele><time>2026-04-29T16:14:54.775Z</time></trkpt><trkpt lat="44.091171" lon="9.9693408"><ele>4.0</ele><time>2026-04-29T16:14:55.775Z</time></trkpt><trkpt lat="44.0908707" lon="9.9696564"><ele>4.0</ele><time>2026-04-29T16:14:56.779Z</time></trkpt><trkpt lat="44.090566" lon="9.9699699"><ele>4.0</ele><time>2026-04-29T16:14:57.776Z</time></trkpt><trkpt lat="44.0902544" lon="9.9702778"><ele>5.0</ele><time>2026-04-29T16:14:58.777Z</time></trkpt><trkpt lat="44.0899379" lon="9.9705788"><ele>6.0</ele><time>2026-04-29T16:14:59.775Z</time></trkpt><trkpt lat="44.089618" lon="9.970872"><ele>6.0</ele><time>2026-04-29T16:15:00.775Z</time></trkpt><trkpt lat="44.0892927" lon="9.9711621"><ele>6.0</ele><time>2026-04-29T16:15:01.776Z</time></trkpt><trkpt lat="44.0889662" lon="9.9714488"><ele>6.0</ele><time>2026-04-29T16:15:02.776Z</time></trkpt><trkpt lat="44.0886384" lon="9.9717339"><ele>6.0</ele><time>2026-04-29T16:15:03.774Z</time></trkpt><trkpt lat="44.0883089" lon="9.9720124"><ele>5.5</ele><time>2026-04-29T16:15:04.774Z</time></trkpt><trkpt lat="44.0879775" lon="9.972287"><ele>5.0</ele><time>2026-04-29T16:15:05.775Z</time></trkpt><trkpt lat="44.0876451" lon="9.972557"><ele>4.5</ele><time>2026-04-29T16:15:06.777Z</time></trkpt><trkpt lat="44.0873105" lon="9.972823"><ele>4.0</ele><time>2026-04-29T16:15:07.773Z</time></trkpt><trkpt lat="44.0869761" lon="9.9730863"><ele>4.0</ele><time>2026-04-29T16:15:08.781Z</time></trkpt><trkpt lat="44.0866447" lon="9.9733485"><ele>4.0</ele><time>2026-04-29T16:15:09.775Z</time></trkpt><trkpt lat="44.0863177" lon="9.9736064"><ele>4.0</ele><time>2026-04-29T16:15:10.775Z</time></trkpt><trkpt lat="44.0859922" lon="9.9738656"><ele>4.0</ele><time>2026-04-29T16:15:11.776Z</time></trkpt><trkpt lat="44.085667" lon="9.9741244"><ele>3.5</ele><time>2026-04-29T16:15:12.774Z</time></trkpt><trkpt lat="44.0853432" lon="9.9743828"><ele>3.0</ele><time>2026-04-29T16:15:13.777Z</time></trkpt><trkpt lat="44.0850195" lon="9.9746394"><ele>3.0</ele><time>2026-04-29T16:15:14.777Z</time></trkpt><trkpt lat="44.0846945" lon="9.9748948"><ele>3.0</ele><time>2026-04-29T16:15:15.779Z</time></trkpt><trkpt lat="44.0843692" lon="9.9751488"><ele>3.5</ele><time>2026-04-29T16:15:16.777Z</time></trkpt><trkpt lat="44.0840431" lon="9.9754029"><ele>4.0</ele><time>2026-04-29T16:15:17.775Z</time></trkpt><trkpt lat="44.0837167" lon="9.9756582"><ele>3.5</ele><time>2026-04-29T16:15:18.78Z</time></trkpt><trkpt lat="44.0833903" lon="9.9759148"><ele>3.0</ele><time>2026-04-29T16:15:19.776Z</time></trkpt><trkpt lat="44.0830634" lon="9.9761736"><ele>3.0</ele><time>2026-04-29T16:15:20.776Z</time></trkpt><trkpt lat="44.0827353" lon="9.9764338"><ele>3.0</ele><time>2026-04-29T16:15:21.775Z</time></trkpt><trkpt lat="44.0824068" lon="9.9766937"><ele>2.5</ele><time>2026-04-29T16:15:22.775Z</time></trkpt><trkpt lat="44.0820793" lon="9.9769521"><ele>2.0</ele><time>2026-04-29T16:15:23.777Z</time></trkpt><trkpt lat="44.0817498" lon="9.9772098"><ele>2.0</ele><time>2026-04-29T16:15:24.774Z</time></trkpt><trkpt lat="44.0814196" lon="9.9774689"><ele>2.0</ele><time>2026-04-29T16:15:25.775Z</time></trkpt><trkpt lat="44.08109" lon="9.977729"><ele>2.0</ele><time>2026-04-29T16:15:26.778Z</time></trkpt><trkpt lat="44.0807615" lon="9.9779892"><ele>2.0</ele><time>2026-04-29T16:15:27.775Z</time></trkpt><trkpt lat="44.0804324" lon="9.9782515"><ele>2.0</ele><time>2026-04-29T16:15:28.776Z</time></trkpt><trkpt lat="44.080105" lon="9.9785159"><ele>2.0</ele><time>2026-04-29T16:15:29.774Z</time></trkpt><trkpt lat="44.0797876" lon="9.9787787"><ele>2.0</ele><time>2026-04-29T16:15:30.774Z</time></trkpt><trkpt lat="44.0794808" lon="9.979044"><ele>2.0</ele><time>2026-04-29T16:15:31.774Z</time></trkpt><trkpt lat="44.0791836" lon="9.9793143"><ele>1.5</ele><time>2026-04-29T16:15:32.775Z</time></trkpt><trkpt lat="44.0788926" lon="9.9795903"><ele>1.0</ele><time>2026-04-29T16:15:33.776Z</time></trkpt><trkpt lat="44.0786066" lon="9.9798733"><ele>1.5</ele><time>2026-04-29T16:15:34.775Z</time></trkpt><trkpt lat="44.0783237" lon="9.9801629"><ele>2.0</ele><time>2026-04-29T16:15:35.775Z</time></trkpt><trkpt lat="44.0780448" lon="9.9804599"><ele>2.5</ele><time>2026-04-29T16:15:36.79Z</time></trkpt><trkpt lat="44.0777737" lon="9.9807608"><ele>3.0</ele><time>2026-04-29T16:15:37.778Z</time></trkpt><trkpt lat="44.0775116" lon="9.9810626"><ele>3.5</ele><time>2026-04-29T16:15:38.776Z</time></trkpt><trkpt lat="44.0772636" lon="9.9813601"><ele>4.0</ele><time>2026-04-29T16:15:39.778Z</time></trkpt><trkpt lat="44.0770298" lon="9.9816478"><ele>3.5</ele><time>2026-04-29T16:15:40.776Z</time></trkpt><trkpt lat="44.0768112" lon="9.9819272"><ele>3.0</ele><time>2026-04-29T16:15:41.774Z</time></trkpt><trkpt lat="44.0766101" lon="9.9821932"><ele>3.0</ele><time>2026-04-29T16:15:42.774Z</time></trkpt><trkpt lat="44.076422" lon="9.9824487"><ele>3.0</ele><time>2026-04-29T16:15:43.776Z</time></trkpt><trkpt lat="44.0762439" lon="9.9827042"><ele>3.0</ele><time>2026-04-29T16:15:44.776Z</time></trkpt><trkpt lat="44.0760663" lon="9.9829655"><ele>3.0</ele><time>2026-04-29T16:15:45.776Z</time></trkpt><trkpt lat="44.0758933" lon="9.9832233"><ele>3.0</ele><time>2026-04-29T16:15:46.775Z</time></trkpt><trkpt lat="44.0757243" lon="9.9834858"><ele>3.0</ele><time>2026-04-29T16:15:47.776Z</time></trkpt><trkpt lat="44.0755571" lon="9.9837503"><ele>3.0</ele><time>2026-04-29T16:15:48.774Z</time></trkpt><trkpt lat="44.0753871" lon="9.9840192"><ele>3.0</ele><time>2026-04-29T16:15:49.775Z</time></trkpt><trkpt lat="44.0752066" lon="9.984295"><ele>3.0</ele><time>2026-04-29T16:15:50.776Z</time></trkpt><trkpt lat="44.0750195" lon="9.9845859"><ele>3.0</ele><time>2026-04-29T16:15:51.779Z</time></trkpt><trkpt lat="44.0748255" lon="9.9848927"><ele>3.0</ele><time>2026-04-29T16:15:52.776Z</time></trkpt><trkpt lat="44.0746354" lon="9.9852095"><ele>3.0</ele><time>2026-04-29T16:15:53.779Z</time></trkpt><trkpt lat="44.0744433" lon="9.9855372"><ele>2.5</ele><time>2026-04-29T16:15:54.775Z</time></trkpt><trkpt lat="44.0742537" lon="9.9858606"><ele>2.0</ele><time>2026-04-29T16:15:55.775Z</time></trkpt><trkpt lat="44.0740657" lon="9.9861782"><ele>2.0</ele><time>2026-04-29T16:15:56.777Z</time></trkpt><trkpt lat="44.0738794" lon="9.9864887"><ele>2.0</ele><time>2026-04-29T16:15:57.777Z</time></trkpt><trkpt lat="44.0737" lon="9.9867887"><ele>2.0</ele><time>2026-04-29T16:15:58.775Z</time></trkpt><trkpt lat="44.0735259" lon="9.9870768"><ele>2.0</ele><time>2026-04-29T16:15:59.774Z</time></trkpt><trkpt lat="44.0733559" lon="9.9873561"><ele>2.5</ele><time>2026-04-29T16:16:00.774Z</time></trkpt><trkpt lat="44.0731868" lon="9.9876345"><ele>3.0</ele><time>2026-04-29T16:16:01.776Z</time></trkpt><trkpt lat="44.0730214" lon="9.987909"><ele>3.0</ele><time>2026-04-29T16:16:02.778Z</time></trkpt><trkpt lat="44.0728631" lon="9.9881756"><ele>3.0</ele><time>2026-04-29T16:16:03.776Z</time></trkpt><trkpt lat="44.0727091" lon="9.9884345"><ele>2.5</ele><time>2026-04-29T16:16:04.777Z</time></trkpt><trkpt lat="44.0725542" lon="9.9886924"><ele>2.0</ele><time>2026-04-29T16:16:05.774Z</time></trkpt><trkpt lat="44.0723959" lon="9.9889519"><ele>1.5</ele><time>2026-04-29T16:16:06.775Z</time></trkpt><trkpt lat="44.0722351" lon="9.989219"><ele>1.0</ele><time>2026-04-29T16:16:07.775Z</time></trkpt><trkpt lat="44.0720715" lon="9.9894918"><ele>1.0</ele><time>2026-04-29T16:16:08.776Z</time></trkpt><trkpt lat="44.0719077" lon="9.9897644"><ele>1.0</ele><time>2026-04-29T16:16:09.78Z</time></trkpt><trkpt lat="44.0717453" lon="9.9900359"><ele>2.0</ele><time>2026-04-29T16:16:10.775Z</time></trkpt><trkpt lat="44.0715785" lon="9.9903099"><ele>3.0</ele><time>2026-04-29T16:16:11.776Z</time></trkpt><trkpt lat="44.0714131" lon="9.9905802"><ele>2.5</ele><time>2026-04-29T16:16:12.774Z</time></trkpt><trkpt lat="44.0712558" lon="9.9908414"><ele>2.0</ele><time>2026-04-29T16:16:13.776Z</time></trkpt><trkpt lat="44.0711063" lon="9.9910896"><ele>2.0</ele><time>2026-04-29T16:16:14.775Z</time></trkpt><trkpt lat="44.070958" lon="9.9913347"><ele>2.0</ele><time>2026-04-29T16:16:15.778Z</time></trkpt><trkpt lat="44.0708111" lon="9.9915784"><ele>2.0</ele><time>2026-04-29T16:16:16.777Z</time></trkpt><trkpt lat="44.0706656" lon="9.9918146"><ele>2.0</ele><time>2026-04-29T16:16:17.776Z</time></trkpt><trkpt lat="44.0705206" lon="9.9920517"><ele>2.0</ele><time>2026-04-29T16:16:18.774Z</time></trkpt><trkpt lat="44.0703753" lon="9.9922921"><ele>2.5</ele><time>2026-04-29T16:16:19.775Z</time></trkpt><trkpt lat="44.0702264" lon="9.9925363"><ele>3.0</ele><time>2026-04-29T16:16:20.775Z</time></trkpt><trkpt lat="44.0700732" lon="9.992785"><ele>2.5</ele><time>2026-04-29T16:16:21.776Z</time></trkpt><trkpt lat="44.0699207" lon="9.9930333"><ele>2.0</ele><time>2026-04-29T16:16:22.776Z</time></trkpt><trkpt lat="44.0697659" lon="9.9932837"><ele>2.0</ele><time>2026-04-29T16:16:23.775Z</time></trkpt><trkpt lat="44.0696134" lon="9.9935373"><ele>2.0</ele><time>2026-04-29T16:16:24.778Z</time></trkpt><trkpt lat="44.0694601" lon="9.9937919"><ele>2.0</ele><time>2026-04-29T16:16:25.776Z</time></trkpt><trkpt lat="44.0693059" lon="9.9940507"><ele>2.0</ele><time>2026-04-29T16:16:26.774Z</time></trkpt><trkpt lat="44.0691471" lon="9.9943117"><ele>1.0</ele><time>2026-04-29T16:16:27.776Z</time></trkpt><trkpt lat="44.0689871" lon="9.9945753"><ele>0.0</ele><time>2026-04-29T16:16:28.777Z</time></trkpt><trkpt lat="44.0688255" lon="9.9948383"><ele>1.5</ele><time>2026-04-29T16:16:29.778Z</time></trkpt><trkpt lat="44.0686621" lon="9.9951082"><ele>3.0</ele><time>2026-04-29T16:16:30.776Z</time></trkpt><trkpt lat="44.068501" lon="9.995381"><ele>3.0</ele><time>2026-04-29T16:16:31.779Z</time></trkpt><trkpt lat="44.0683356" lon="9.9956558"><ele>3.0</ele><time>2026-04-29T16:16:32.774Z</time></trkpt><trkpt lat="44.0681679" lon="9.995931"><ele>2.0</ele><time>2026-04-29T16:16:33.776Z</time></trkpt><trkpt lat="44.0679994" lon="9.9962057"><ele>1.0</ele><time>2026-04-29T16:16:34.778Z</time></trkpt><trkpt lat="44.0678294" lon="9.9964788"><ele>1.5</ele><time>2026-04-29T16:16:35.778Z</time></trkpt><trkpt lat="44.0676615" lon="9.9967539"><ele>2.0</ele><time>2026-04-29T16:16:36.779Z</time></trkpt><trkpt lat="44.0674969" lon="9.9970283"><ele>1.5</ele><time>2026-04-29T16:16:37.775Z</time></trkpt><trkpt lat="44.0673306" lon="9.9973028"><ele>1.0</ele><time>2026-04-29T16:16:38.774Z</time></trkpt><trkpt lat="44.0671682" lon="9.9975742"><ele>2.5</ele><time>2026-04-29T16:16:39.776Z</time></trkpt><trkpt lat="44.0670052" lon="9.9978432"><ele>4.0</ele><time>2026-04-29T16:16:40.779Z</time></trkpt><trkpt lat="44.0668443" lon="9.998109"><ele>4.0</ele><time>2026-04-29T16:16:41.779Z</time></trkpt><trkpt lat="44.0666828" lon="9.9983756"><ele>4.0</ele><time>2026-04-29T16:16:42.777Z</time></trkpt><trkpt lat="44.0665228" lon="9.9986412"><ele>3.5</ele><time>2026-04-29T16:16:43.775Z</time></trkpt><trkpt lat="44.0663567" lon="9.9989078"><ele>3.0</ele><time>2026-04-29T16:16:44.775Z</time></trkpt><trkpt lat="44.0661896" lon="9.9991843"><ele>3.0</ele><time>2026-04-29T16:16:45.776Z</time></trkpt><trkpt lat="44.0660192" lon="9.9994657"><ele>3.0</ele><time>2026-04-29T16:16:46.774Z</time></trkpt><trkpt lat="44.0658463" lon="9.9997535"><ele>1.5</ele><time>2026-04-29T16:16:47.777Z</time></trkpt><trkpt lat="44.0656692" lon="10.0000395"><ele>0.0</ele><time>2026-04-29T16:16:48.777Z</time></trkpt><trkpt lat="44.0654904" lon="10.0003309"><ele>0.0</ele><time>2026-04-29T16:16:49.774Z</time></trkpt><trkpt lat="44.0653106" lon="10.0006239"><ele>0.0</ele><time>2026-04-29T16:16:50.776Z</time></trkpt><trkpt lat="44.06513" lon="10.0009211"><ele>0.5</ele><time>2026-04-29T16:16:51.775Z</time></trkpt><trkpt lat="44.0649481" lon="10.0012165"><ele>1.0</ele><time>2026-04-29T16:16:52.776Z</time></trkpt><trkpt lat="44.0647626" lon="10.0015212"><ele>1.0</ele><time>2026-04-29T16:16:53.773Z</time></trkpt><trkpt lat="44.0645761" lon="10.0018314"><ele>1.0</ele><time>2026-04-29T16:16:54.777Z</time></trkpt><trkpt lat="44.0643851" lon="10.0021478"><ele>1.0</ele><time>2026-04-29T16:16:55.777Z</time></trkpt><trkpt lat="44.0641942" lon="10.0024662"><ele>1.0</ele><time>2026-04-29T16:16:56.776Z</time></trkpt><trkpt lat="44.0640003" lon="10.0027844"><ele>0.5</ele><time>2026-04-29T16:16:57.775Z</time></trkpt><trkpt lat="44.0638038" lon="10.0031087"><ele>0.0</ele><time>2026-04-29T16:16:58.774Z</time></trkpt><trkpt lat="44.0636077" lon="10.0034292"><ele>0.0</ele><time>2026-04-29T16:16:59.775Z</time></trkpt><trkpt lat="44.0634118" lon="10.0037519"><ele>0.0</ele><time>2026-04-29T16:17:00.774Z</time></trkpt><trkpt lat="44.0632155" lon="10.0040778"><ele>0.5</ele><time>2026-04-29T16:17:01.777Z</time></trkpt><trkpt lat="44.0630179" lon="10.0044007"><ele>1.0</ele><time>2026-04-29T16:17:02.777Z</time></trkpt><trkpt lat="44.0628179" lon="10.0047268"><ele>1.0</ele><time>2026-04-29T16:17:03.773Z</time></trkpt><trkpt lat="44.0626198" lon="10.0050476"><ele>1.0</ele><time>2026-04-29T16:17:04.776Z</time></trkpt><trkpt lat="44.0624244" lon="10.0053633"><ele>2.0</ele><time>2026-04-29T16:17:05.776Z</time></trkpt><trkpt lat="44.0622272" lon="10.0056764"><ele>3.0</ele><time>2026-04-29T16:17:06.777Z</time></trkpt><trkpt lat="44.0620344" lon="10.0059896"><ele>3.0</ele><time>2026-04-29T16:17:07.778Z</time></trkpt><trkpt lat="44.0618447" lon="10.0063026"><ele>3.0</ele><time>2026-04-29T16:17:08.774Z</time></trkpt><trkpt lat="44.06166" lon="10.006607"><ele>3.5</ele><time>2026-04-29T16:17:09.774Z</time></trkpt><trkpt lat="44.0614791" lon="10.0069119"><ele>4.0</ele><time>2026-04-29T16:17:10.774Z</time></trkpt><trkpt lat="44.0613006" lon="10.0072145"><ele>4.0</ele><time>2026-04-29T16:17:11.775Z</time></trkpt><trkpt lat="44.0611255" lon="10.0075171"><ele>4.0</ele><time>2026-04-29T16:17:12.773Z</time></trkpt><trkpt lat="44.0609526" lon="10.0078258"><ele>4.0</ele><time>2026-04-29T16:17:13.78Z</time></trkpt><trkpt lat="44.060782" lon="10.0081382"><ele>4.0</ele><time>2026-04-29T16:17:14.779Z</time></trkpt><trkpt lat="44.0606132" lon="10.0084571"><ele>4.0</ele><time>2026-04-29T16:17:15.776Z</time></trkpt><trkpt lat="44.0604453" lon="10.0087847"><ele>4.0</ele><time>2026-04-29T16:17:16.774Z</time></trkpt><trkpt lat="44.0602781" lon="10.0091206"><ele>3.0</ele><time>2026-04-29T16:17:17.775Z</time></trkpt><trkpt lat="44.0601139" lon="10.0094636"><ele>2.0</ele><time>2026-04-29T16:17:18.775Z</time></trkpt><trkpt lat="44.0599511" lon="10.0098146"><ele>3.0</ele><time>2026-04-29T16:17:19.775Z</time></trkpt><trkpt lat="44.05979" lon="10.0101749"><ele>4.0</ele><time>2026-04-29T16:17:20.776Z</time></trkpt><trkpt lat="44.0596327" lon="10.0105432"><ele>4.0</ele><time>2026-04-29T16:17:21.776Z</time></trkpt><trkpt lat="44.0594774" lon="10.010923"><ele>4.0</ele><time>2026-04-29T16:17:22.775Z</time></trkpt><trkpt lat="44.0593259" lon="10.0113098"><ele>3.5</ele><time>2026-04-29T16:17:23.776Z</time></trkpt><trkpt lat="44.0591759" lon="10.0117036"><ele>3.0</ele><time>2026-04-29T16:17:24.779Z</time></trkpt><trkpt lat="44.0590311" lon="10.012102"><ele>1.0</ele><time>2026-04-29T16:17:25.776Z</time></trkpt><trkpt lat="44.058891" lon="10.0125005"><ele>-1.0</ele><time>2026-04-29T16:17:26.778Z</time></trkpt><trkpt lat="44.0587572" lon="10.0128999"><ele>-1.0</ele><time>2026-04-29T16:17:27.776Z</time></trkpt><trkpt lat="44.0586307" lon="10.0132975"><ele>-1.0</ele><time>2026-04-29T16:17:28.775Z</time></trkpt><trkpt lat="44.0585137" lon="10.0136746"><ele>-0.5</ele><time>2026-04-29T16:17:29.776Z</time></trkpt><trkpt lat="44.0584015" lon="10.0140429"><ele>0.0</ele><time>2026-04-29T16:17:30.775Z</time></trkpt><trkpt lat="44.0582929" lon="10.0144076"><ele>0.0</ele><time>2026-04-29T16:17:31.776Z</time></trkpt><trkpt lat="44.058184" lon="10.0147718"><ele>0.0</ele><time>2026-04-29T16:17:32.777Z</time></trkpt><trkpt lat="44.0580746" lon="10.0151313"><ele>0.5</ele><time>2026-04-29T16:17:33.776Z</time></trkpt><trkpt lat="44.0579644" lon="10.0154917"><ele>1.0</ele><time>2026-04-29T16:17:34.774Z</time></trkpt><trkpt lat="44.0578514" lon="10.0158569"><ele>1.5</ele><time>2026-04-29T16:17:35.774Z</time></trkpt><trkpt lat="44.0577406" lon="10.0162213"><ele>2.0</ele><time>2026-04-29T16:17:36.776Z</time></trkpt><trkpt lat="44.0576312" lon="10.0165845"><ele>1.5</ele><time>2026-04-29T16:17:37.777Z</time></trkpt><trkpt lat="44.0575251" lon="10.016946"><ele>1.0</ele><time>2026-04-29T16:17:38.779Z</time></trkpt><trkpt lat="44.0574206" lon="10.0173061"><ele>1.0</ele><time>2026-04-29T16:17:39.779Z</time></trkpt><trkpt lat="44.0573165" lon="10.0176636"><ele>1.0</ele><time>2026-04-29T16:17:40.777Z</time></trkpt><trkpt lat="44.057214" lon="10.0180101"><ele>0.5</ele><time>2026-04-29T16:17:41.775Z</time></trkpt><trkpt lat="44.0571123" lon="10.0183501"><ele>0.0</ele><time>2026-04-29T16:17:42.775Z</time></trkpt><trkpt lat="44.0570107" lon="10.018689"><ele>0.0</ele><time>2026-04-29T16:17:43.775Z</time></trkpt><trkpt lat="44.0569105" lon="10.0190333"><ele>0.0</ele><time>2026-04-29T16:17:44.776Z</time></trkpt><trkpt lat="44.0568095" lon="10.0193833"><ele>0.5</ele><time>2026-04-29T16:17:45.775Z</time></trkpt><trkpt lat="44.0567073" lon="10.0197362"><ele>1.0</ele><time>2026-04-29T16:17:46.776Z</time></trkpt><trkpt lat="44.0566044" lon="10.0200895"><ele>1.0</ele><time>2026-04-29T16:17:47.776Z</time></trkpt><trkpt lat="44.0565012" lon="10.02044"><ele>1.0</ele><time>2026-04-29T16:17:48.776Z</time></trkpt><trkpt lat="44.0563987" lon="10.0207882"><ele>0.5</ele><time>2026-04-29T16:17:49.775Z</time></trkpt><trkpt lat="44.0562974" lon="10.0211329"><ele>0.0</ele><time>2026-04-29T16:17:50.775Z</time></trkpt><trkpt lat="44.0561962" lon="10.0214779"><ele>0.5</ele><time>2026-04-29T16:17:51.779Z</time></trkpt><trkpt lat="44.056095" lon="10.0218241"><ele>1.0</ele><time>2026-04-29T16:17:52.776Z</time></trkpt><trkpt lat="44.0559935" lon="10.0221744"><ele>1.5</ele><time>2026-04-29T16:17:53.776Z</time></trkpt><trkpt lat="44.0558913" lon="10.0225278"><ele>2.0</ele><time>2026-04-29T16:17:54.775Z</time></trkpt><trkpt lat="44.0557916" lon="10.0228821"><ele>1.5</ele><time>2026-04-29T16:17:55.773Z</time></trkpt><trkpt lat="44.0556903" lon="10.0232361"><ele>1.0</ele><time>2026-04-29T16:17:56.776Z</time></trkpt><trkpt lat="44.0555877" lon="10.0235907"><ele>1.0</ele><time>2026-04-29T16:17:57.778Z</time></trkpt><trkpt lat="44.055486" lon="10.0239415"><ele>1.0</ele><time>2026-04-29T16:17:58.774Z</time></trkpt><trkpt lat="44.0553857" lon="10.0242867"><ele>2.0</ele><time>2026-04-29T16:17:59.775Z</time></trkpt><trkpt lat="44.0552869" lon="10.0246299"><ele>3.0</ele><time>2026-04-29T16:18:00.776Z</time></trkpt><trkpt lat="44.0551894" lon="10.0249704"><ele>3.0</ele><time>2026-04-29T16:18:01.774Z</time></trkpt><trkpt lat="44.0550906" lon="10.0253115"><ele>3.0</ele><time>2026-04-29T16:18:02.774Z</time></trkpt><trkpt lat="44.0549926" lon="10.0256519"><ele>3.0</ele><time>2026-04-29T16:18:03.775Z</time></trkpt><trkpt lat="44.0548931" lon="10.0259964"><ele>3.0</ele><time>2026-04-29T16:18:04.775Z</time></trkpt><trkpt lat="44.0547923" lon="10.026342"><ele>2.0</ele><time>2026-04-29T16:18:05.779Z</time></trkpt><trkpt lat="44.0546909" lon="10.0266862"><ele>1.0</ele><time>2026-04-29T16:18:06.776Z</time></trkpt><trkpt lat="44.0545896" lon="10.02703"><ele>1.0</ele><time>2026-04-29T16:18:07.775Z</time></trkpt><trkpt lat="44.0544893" lon="10.0273735"><ele>1.0</ele><time>2026-04-29T16:18:08.775Z</time></trkpt><trkpt lat="44.0543895" lon="10.0277168"><ele>1.5</ele><time>2026-04-29T16:18:09.775Z</time></trkpt><trkpt lat="44.0542903" lon="10.0280594"><ele>2.0</ele><time>2026-04-29T16:18:10.777Z</time></trkpt><trkpt lat="44.0541913" lon="10.0284026"><ele>2.5</ele><time>2026-04-29T16:18:11.778Z</time></trkpt><trkpt lat="44.0540919" lon="10.0287461"><ele>3.0</ele><time>2026-04-29T16:18:12.775Z</time></trkpt><trkpt lat="44.053992" lon="10.0290902"><ele>3.0</ele><time>2026-04-29T16:18:13.776Z</time></trkpt><trkpt lat="44.0538912" lon="10.029436"><ele>3.0</ele><time>2026-04-29T16:18:14.775Z</time></trkpt><trkpt lat="44.0537894" lon="10.0297843"><ele>3.0</ele><time>2026-04-29T16:18:15.775Z</time></trkpt><trkpt lat="44.0536873" lon="10.0301377"><ele>3.0</ele><time>2026-04-29T16:18:16.774Z</time></trkpt><trkpt lat="44.0535854" lon="10.0304932"><ele>3.0</ele><time>2026-04-29T16:18:17.775Z</time></trkpt><trkpt lat="44.0534836" lon="10.03085"><ele>3.0</ele><time>2026-04-29T16:18:18.776Z</time></trkpt><trkpt lat="44.0533823" lon="10.0312048"><ele>3.0</ele><time>2026-04-29T16:18:19.775Z</time></trkpt><trkpt lat="44.05328" lon="10.0315567"><ele>3.0</ele><time>2026-04-29T16:18:20.774Z</time></trkpt><trkpt lat="44.0531776" lon="10.0319073"><ele>3.0</ele><time>2026-04-29T16:18:21.773Z</time></trkpt><trkpt lat="44.0530727" lon="10.0322562"><ele>3.0</ele><time>2026-04-29T16:18:22.776Z</time></trkpt><trkpt lat="44.0529625" lon="10.0326031"><ele>4.0</ele><time>2026-04-29T16:18:23.779Z</time></trkpt><trkpt lat="44.0528518" lon="10.032948"><ele>5.0</ele><time>2026-04-29T16:18:24.779Z</time></trkpt><trkpt lat="44.0527338" lon="10.0332915"><ele>3.5</ele><time>2026-04-29T16:18:25.778Z</time></trkpt><trkpt lat="44.0526138" lon="10.0336322"><ele>2.0</ele><time>2026-04-29T16:18:26.774Z</time></trkpt><trkpt lat="44.0524908" lon="10.0339691"><ele>1.5</ele><time>2026-04-29T16:18:27.775Z</time></trkpt><trkpt lat="44.0523626" lon="10.0343047"><ele>1.0</ele><time>2026-04-29T16:18:28.775Z</time></trkpt><trkpt lat="44.0522317" lon="10.0346371"><ele>1.0</ele><time>2026-04-29T16:18:29.776Z</time></trkpt><trkpt lat="44.052094" lon="10.0349672"><ele>1.0</ele><time>2026-04-29T16:18:30.779Z</time></trkpt><trkpt lat="44.0519543" lon="10.0352933"><ele>0.5</ele><time>2026-04-29T16:18:31.777Z</time></trkpt><trkpt lat="44.051811" lon="10.0356174"><ele>0.0</ele><time>2026-04-29T16:18:32.78Z</time></trkpt><trkpt lat="44.0516629" lon="10.0359367"><ele>1.0</ele><time>2026-04-29T16:18:33.776Z</time></trkpt><trkpt lat="44.0515122" lon="10.0362561"><ele>2.0</ele><time>2026-04-29T16:18:34.775Z</time></trkpt><trkpt lat="44.051359" lon="10.0365706"><ele>2.0</ele><time>2026-04-29T16:18:35.775Z</time></trkpt><trkpt lat="44.0512035" lon="10.0368808"><ele>2.0</ele><time>2026-04-29T16:18:36.774Z</time></trkpt><trkpt lat="44.0510448" lon="10.0371915"><ele>2.0</ele><time>2026-04-29T16:18:37.777Z</time></trkpt><trkpt lat="44.0508834" lon="10.0374991"><ele>2.0</ele><time>2026-04-29T16:18:38.774Z</time></trkpt><trkpt lat="44.0507168" lon="10.0378046"><ele>2.0</ele><time>2026-04-29T16:18:39.78Z</time></trkpt><trkpt lat="44.0505536" lon="10.0381143"><ele>2.0</ele><time>2026-04-29T16:18:40.78Z</time></trkpt><trkpt lat="44.0503896" lon="10.0384235"><ele>2.0</ele><time>2026-04-29T16:18:41.774Z</time></trkpt><trkpt lat="44.0502238" lon="10.0387312"><ele>2.0</ele><time>2026-04-29T16:18:42.776Z</time></trkpt><trkpt lat="44.0500576" lon="10.0390408"><ele>1.5</ele><time>2026-04-29T16:18:43.778Z</time></trkpt><trkpt lat="44.049888" lon="10.0393511"><ele>1.0</ele><time>2026-04-29T16:18:44.777Z</time></trkpt><trkpt lat="44.0497221" lon="10.0396632"><ele>1.0</ele><time>2026-04-29T16:18:45.773Z</time></trkpt><trkpt lat="44.0495558" lon="10.0399734"><ele>1.0</ele><time>2026-04-29T16:18:46.774Z</time></trkpt><trkpt lat="44.0493903" lon="10.0402877"><ele>1.0</ele><time>2026-04-29T16:18:47.775Z</time></trkpt><trkpt lat="44.0492293" lon="10.0406043"><ele>1.0</ele><time>2026-04-29T16:18:48.781Z</time></trkpt><trkpt lat="44.0490656" lon="10.0409214"><ele>2.0</ele><time>2026-04-29T16:18:49.777Z</time></trkpt><trkpt lat="44.0489015" lon="10.0412384"><ele>3.0</ele><time>2026-04-29T16:18:50.78Z</time></trkpt><trkpt lat="44.0487369" lon="10.0415568"><ele>3.5</ele><time>2026-04-29T16:18:51.778Z</time></trkpt><trkpt lat="44.0485748" lon="10.0418713"><ele>4.0</ele><time>2026-04-29T16:18:52.775Z</time></trkpt><trkpt lat="44.0484096" lon="10.0421857"><ele>5.0</ele><time>2026-04-29T16:18:53.774Z</time></trkpt><trkpt lat="44.0482437" lon="10.0425"><ele>6.0</ele><time>2026-04-29T16:18:54.778Z</time></trkpt><trkpt lat="44.0480778" lon="10.0428133"><ele>6.0</ele><time>2026-04-29T16:18:55.776Z</time></trkpt><trkpt lat="44.0479128" lon="10.0431273"><ele>6.0</ele><time>2026-04-29T16:18:56.776Z</time></trkpt><trkpt lat="44.0477468" lon="10.0434422"><ele>5.5</ele><time>2026-04-29T16:18:57.776Z</time></trkpt><trkpt lat="44.047579" lon="10.0437573"><ele>5.0</ele><time>2026-04-29T16:18:58.776Z</time></trkpt><trkpt lat="44.0474156" lon="10.044067"><ele>4.0</ele><time>2026-04-29T16:18:59.775Z</time></trkpt><trkpt lat="44.0472613" lon="10.0443591"><ele>3.0</ele><time>2026-04-29T16:19:00.774Z</time></trkpt><trkpt lat="44.0471121" lon="10.0446431"><ele>3.0</ele><time>2026-04-29T16:19:01.777Z</time></trkpt><trkpt lat="44.0469585" lon="10.04493"><ele>3.0</ele><time>2026-04-29T16:19:02.778Z</time></trkpt><trkpt lat="44.0468013" lon="10.0452229"><ele>3.0</ele><time>2026-04-29T16:19:03.776Z</time></trkpt><trkpt lat="44.0466422" lon="10.0455187"><ele>3.0</ele><time>2026-04-29T16:19:04.777Z</time></trkpt><trkpt lat="44.0464802" lon="10.045822"><ele>3.0</ele><time>2026-04-29T16:19:05.774Z</time></trkpt><trkpt lat="44.0463185" lon="10.0461299"><ele>3.0</ele><time>2026-04-29T16:19:06.774Z</time></trkpt><trkpt lat="44.0461542" lon="10.0464428"><ele>3.5</ele><time>2026-04-29T16:19:07.774Z</time></trkpt><trkpt lat="44.0459905" lon="10.0467587"><ele>4.0</ele><time>2026-04-29T16:19:08.777Z</time></trkpt><trkpt lat="44.0458243" lon="10.0470759"><ele>4.0</ele><time>2026-04-29T16:19:09.775Z</time></trkpt><trkpt lat="44.0456564" lon="10.0473943"><ele>4.0</ele><time>2026-04-29T16:19:10.774Z</time></trkpt><trkpt lat="44.045486" lon="10.0477145"><ele>4.5</ele><time>2026-04-29T16:19:11.773Z</time></trkpt><trkpt lat="44.045317" lon="10.0480324"><ele>5.0</ele><time>2026-04-29T16:19:12.776Z</time></trkpt><trkpt lat="44.0451516" lon="10.0483499"><ele>5.0</ele><time>2026-04-29T16:19:13.777Z</time></trkpt><trkpt lat="44.0449864" lon="10.0486703"><ele>5.0</ele><time>2026-04-29T16:19:14.775Z</time></trkpt><trkpt lat="44.0448209" lon="10.0489879"><ele>4.5</ele><time>2026-04-29T16:19:15.776Z</time></trkpt><trkpt lat="44.0446543" lon="10.0493053"><ele>4.0</ele><time>2026-04-29T16:19:16.778Z</time></trkpt><trkpt lat="44.0444859" lon="10.0496213"><ele>4.0</ele><time>2026-04-29T16:19:17.776Z</time></trkpt><trkpt lat="44.0443162" lon="10.0499394"><ele>4.0</ele><time>2026-04-29T16:19:18.774Z</time></trkpt><trkpt lat="44.0441466" lon="10.0502572"><ele>4.5</ele><time>2026-04-29T16:19:19.778Z</time></trkpt><trkpt lat="44.0439773" lon="10.0505772"><ele>5.0</ele><time>2026-04-29T16:19:20.775Z</time></trkpt><trkpt lat="44.0438083" lon="10.0508962"><ele>5.0</ele><time>2026-04-29T16:19:21.775Z</time></trkpt><trkpt lat="44.0436381" lon="10.0512202"><ele>5.0</ele><time>2026-04-29T16:19:22.774Z</time></trkpt><trkpt lat="44.0434686" lon="10.0515517"><ele>6.0</ele><time>2026-04-29T16:19:23.774Z</time></trkpt><trkpt lat="44.0432998" lon="10.0518876"><ele>7.0</ele><time>2026-04-29T16:19:24.775Z</time></trkpt><trkpt lat="44.0431344" lon="10.0522297"><ele>6.5</ele><time>2026-04-29T16:19:25.774Z</time></trkpt><trkpt lat="44.0429732" lon="10.0525795"><ele>6.0</ele><time>2026-04-29T16:19:26.775Z</time></trkpt><trkpt lat="44.0428122" lon="10.0529352"><ele>5.0</ele><time>2026-04-29T16:19:27.777Z</time></trkpt><trkpt lat="44.0426531" lon="10.0532925"><ele>4.0</ele><time>2026-04-29T16:19:28.776Z</time></trkpt><trkpt lat="44.0424923" lon="10.0536494"><ele>3.5</ele><time>2026-04-29T16:19:29.775Z</time></trkpt><trkpt lat="44.0423289" lon="10.0540051"><ele>3.0</ele><time>2026-04-29T16:19:30.775Z</time></trkpt><trkpt lat="44.0421669" lon="10.0543566"><ele>3.0</ele><time>2026-04-29T16:19:31.776Z</time></trkpt><trkpt lat="44.0420067" lon="10.0547047"><ele>3.0</ele><time>2026-04-29T16:19:32.775Z</time></trkpt><trkpt lat="44.0418459" lon="10.0550524"><ele>2.5</ele><time>2026-04-29T16:19:33.776Z</time></trkpt><trkpt lat="44.0416848" lon="10.0554003"><ele>2.0</ele><time>2026-04-29T16:19:34.779Z</time></trkpt><trkpt lat="44.0415253" lon="10.0557501"><ele>2.5</ele><time>2026-04-29T16:19:35.779Z</time></trkpt><trkpt lat="44.0413685" lon="10.0561034"><ele>3.0</ele><time>2026-04-29T16:19:36.774Z</time></trkpt><trkpt lat="44.0412139" lon="10.0564574"><ele>3.0</ele><time>2026-04-29T16:19:37.775Z</time></trkpt><trkpt lat="44.041058" lon="10.0568126"><ele>3.0</ele><time>2026-04-29T16:19:38.775Z</time></trkpt><trkpt lat="44.0409022" lon="10.0571685"><ele>3.0</ele><time>2026-04-29T16:19:39.774Z</time></trkpt><trkpt lat="44.040746" lon="10.0575234"><ele>3.0</ele><time>2026-04-29T16:19:40.775Z</time></trkpt><trkpt lat="44.0405899" lon="10.0578779"><ele>3.0</ele><time>2026-04-29T16:19:41.775Z</time></trkpt><trkpt lat="44.0404324" lon="10.0582351"><ele>3.0</ele><time>2026-04-29T16:19:42.775Z</time></trkpt><trkpt lat="44.0402726" lon="10.0585951"><ele>3.5</ele><time>2026-04-29T16:19:43.775Z</time></trkpt><trkpt lat="44.0401099" lon="10.0589554"><ele>4.0</ele><time>2026-04-29T16:19:44.775Z</time></trkpt><trkpt lat="44.0399505" lon="10.0593182"><ele>4.0</ele><time>2026-04-29T16:19:45.779Z</time></trkpt><trkpt lat="44.0397922" lon="10.0596813"><ele>4.0</ele><time>2026-04-29T16:19:46.776Z</time></trkpt><trkpt lat="44.0396344" lon="10.060045"><ele>4.5</ele><time>2026-04-29T16:19:47.775Z</time></trkpt><trkpt lat="44.0394765" lon="10.0604056"><ele>5.0</ele><time>2026-04-29T16:19:48.779Z</time></trkpt><trkpt lat="44.0393194" lon="10.060767"><ele>4.5</ele><time>2026-04-29T16:19:49.774Z</time></trkpt><trkpt lat="44.039161" lon="10.0611291"><ele>4.0</ele><time>2026-04-29T16:19:50.775Z</time></trkpt><trkpt lat="44.0390033" lon="10.0614917"><ele>4.0</ele><time>2026-04-29T16:19:51.775Z</time></trkpt><trkpt lat="44.0388462" lon="10.0618542"><ele>4.0</ele><time>2026-04-29T16:19:52.775Z</time></trkpt><trkpt lat="44.0386895" lon="10.0622161"><ele>4.0</ele><time>2026-04-29T16:19:53.777Z</time></trkpt><trkpt lat="44.0385334" lon="10.0625789"><ele>4.0</ele><time>2026-04-29T16:19:54.776Z</time></trkpt><trkpt lat="44.0383771" lon="10.0629404"><ele>3.5</ele><time>2026-04-29T16:19:55.778Z</time></trkpt><trkpt lat="44.0382243" lon="10.0632898"><ele>3.0</ele><time>2026-04-29T16:19:56.773Z</time></trkpt><trkpt lat="44.0380715" lon="10.063639"><ele>3.0</ele><time>2026-04-29T16:19:57.774Z</time></trkpt><trkpt lat="44.0379195" lon="10.0639864"><ele>3.0</ele><time>2026-04-29T16:19:58.773Z</time></trkpt><trkpt lat="44.0377685" lon="10.0643315"><ele>3.0</ele><time>2026-04-29T16:19:59.774Z</time></trkpt><trkpt lat="44.0376184" lon="10.0646748"><ele>3.0</ele><time>2026-04-29T16:20:00.777Z</time></trkpt><trkpt lat="44.0374671" lon="10.0650174"><ele>3.5</ele><time>2026-04-29T16:20:01.778Z</time></trkpt><trkpt lat="44.0373164" lon="10.0653588"><ele>4.0</ele><time>2026-04-29T16:20:02.774Z</time></trkpt><trkpt lat="44.0371666" lon="10.0656968"><ele>3.5</ele><time>2026-04-29T16:20:03.774Z</time></trkpt><trkpt lat="44.0370165" lon="10.0660341"><ele>3.0</ele><time>2026-04-29T16:20:04.783Z</time></trkpt><trkpt lat="44.0368664" lon="10.0663769"><ele>2.5</ele><time>2026-04-29T16:20:05.773Z</time></trkpt><trkpt lat="44.036716" lon="10.0667222"><ele>2.0</ele><time>2026-04-29T16:20:06.775Z</time></trkpt><trkpt lat="44.0365649" lon="10.0670699"><ele>3.5</ele><time>2026-04-29T16:20:07.776Z</time></trkpt><trkpt lat="44.0364113" lon="10.0674169"><ele>5.0</ele><time>2026-04-29T16:20:08.774Z</time></trkpt><trkpt lat="44.036257" lon="10.0677644"><ele>5.0</ele><time>2026-04-29T16:20:09.775Z</time></trkpt><trkpt lat="44.0361036" lon="10.0681103"><ele>5.0</ele><time>2026-04-29T16:20:10.775Z</time></trkpt><trkpt lat="44.0359499" lon="10.068457"><ele>4.0</ele><time>2026-04-29T16:20:11.775Z</time></trkpt><trkpt lat="44.0357975" lon="10.0688051"><ele>3.0</ele><time>2026-04-29T16:20:12.778Z</time></trkpt><trkpt lat="44.0356451" lon="10.0691551"><ele>3.0</ele><time>2026-04-29T16:20:13.776Z</time></trkpt><trkpt lat="44.0354911" lon="10.0695058"><ele>3.0</ele><time>2026-04-29T16:20:14.776Z</time></trkpt><trkpt lat="44.0353362" lon="10.0698616"><ele>3.5</ele><time>2026-04-29T16:20:15.775Z</time></trkpt><trkpt lat="44.0351847" lon="10.0702223"><ele>4.0</ele><time>2026-04-29T16:20:16.773Z</time></trkpt><trkpt lat="44.0350361" lon="10.0705885"><ele>3.5</ele><time>2026-04-29T16:20:17.774Z</time></trkpt><trkpt lat="44.0348965" lon="10.0709605"><ele>3.0</ele><time>2026-04-29T16:20:18.775Z</time></trkpt><trkpt lat="44.0347646" lon="10.0713385"><ele>3.0</ele><time>2026-04-29T16:20:19.775Z</time></trkpt><trkpt lat="44.0346379" lon="10.0717237"><ele>3.0</ele><time>2026-04-29T16:20:20.775Z</time></trkpt><trkpt lat="44.0345191" lon="10.0721128"><ele>2.5</ele><time>2026-04-29T16:20:21.774Z</time></trkpt><trkpt lat="44.0344079" lon="10.072503"><ele>2.0</ele><time>2026-04-29T16:20:22.776Z</time></trkpt><trkpt lat="44.0343041" lon="10.072889"><ele>2.0</ele><time>2026-04-29T16:20:23.775Z</time></trkpt><trkpt lat="44.034211" lon="10.0732596"><ele>2.0</ele><time>2026-04-29T16:20:24.775Z</time></trkpt><trkpt lat="44.0341268" lon="10.0736232"><ele>2.0</ele><time>2026-04-29T16:20:25.777Z</time></trkpt><trkpt lat="44.0340477" lon="10.0739889"><ele>2.0</ele><time>2026-04-29T16:20:26.775Z</time></trkpt><trkpt lat="44.0339775" lon="10.0743563"><ele>2.0</ele><time>2026-04-29T16:20:27.776Z</time></trkpt><trkpt lat="44.0339115" lon="10.0747251"><ele>2.0</ele><time>2026-04-29T16:20:28.776Z</time></trkpt><trkpt lat="44.03385" lon="10.0750938"><ele>2.5</ele><time>2026-04-29T16:20:29.775Z</time></trkpt><trkpt lat="44.0337925" lon="10.0754669"><ele>3.0</ele><time>2026-04-29T16:20:30.776Z</time></trkpt><trkpt lat="44.0337377" lon="10.0758406"><ele>3.0</ele><time>2026-04-29T16:20:31.774Z</time></trkpt><trkpt lat="44.0336858" lon="10.0762183"><ele>3.0</ele><time>2026-04-29T16:20:32.775Z</time></trkpt><trkpt lat="44.0336333" lon="10.0765995"><ele>3.0</ele><time>2026-04-29T16:20:33.778Z</time></trkpt><trkpt lat="44.0335787" lon="10.0769838"><ele>3.0</ele><time>2026-04-29T16:20:34.775Z</time></trkpt><trkpt lat="44.0335235" lon="10.0773713"><ele>2.5</ele><time>2026-04-29T16:20:35.775Z</time></trkpt><trkpt lat="44.03347" lon="10.0777623"><ele>2.0</ele><time>2026-04-29T16:20:36.774Z</time></trkpt><trkpt lat="44.0334154" lon="10.0781571"><ele>2.0</ele><time>2026-04-29T16:20:37.774Z</time></trkpt><trkpt lat="44.0333607" lon="10.0785554"><ele>2.0</ele><time>2026-04-29T16:20:38.777Z</time></trkpt><trkpt lat="44.0333056" lon="10.0789557"><ele>2.0</ele><time>2026-04-29T16:20:39.775Z</time></trkpt><trkpt lat="44.0332496" lon="10.0793569"><ele>2.0</ele><time>2026-04-29T16:20:40.774Z</time></trkpt><trkpt lat="44.0331929" lon="10.079761"><ele>2.5</ele><time>2026-04-29T16:20:41.775Z</time></trkpt><trkpt lat="44.0331363" lon="10.0801656"><ele>3.0</ele><time>2026-04-29T16:20:42.774Z</time></trkpt><trkpt lat="44.0330797" lon="10.0805675"><ele>2.5</ele><time>2026-04-29T16:20:43.774Z</time></trkpt><trkpt lat="44.0330179" lon="10.080967"><ele>2.0</ele><time>2026-04-29T16:20:44.774Z</time></trkpt><trkpt lat="44.0329506" lon="10.0813618"><ele>3.0</ele><time>2026-04-29T16:20:45.775Z</time></trkpt><trkpt lat="44.032876" lon="10.0817532"><ele>4.0</ele><time>2026-04-29T16:20:46.775Z</time></trkpt><trkpt lat="44.0327946" lon="10.0821412"><ele>4.5</ele><time>2026-04-29T16:20:47.774Z</time></trkpt><trkpt lat="44.0327067" lon="10.0825238"><ele>5.0</ele><time>2026-04-29T16:20:48.775Z</time></trkpt><trkpt lat="44.0326126" lon="10.0829014"><ele>4.0</ele><time>2026-04-29T16:20:49.776Z</time></trkpt><trkpt lat="44.032512" lon="10.0832751"><ele>3.0</ele><time>2026-04-29T16:20:50.777Z</time></trkpt><trkpt lat="44.0324063" lon="10.0836454"><ele>3.0</ele><time>2026-04-29T16:20:51.775Z</time></trkpt><trkpt lat="44.0322963" lon="10.0840101"><ele>3.0</ele><time>2026-04-29T16:20:52.777Z</time></trkpt><trkpt lat="44.0321807" lon="10.0843699"><ele>3.0</ele><time>2026-04-29T16:20:53.775Z</time></trkpt><trkpt lat="44.032059" lon="10.0847256"><ele>3.0</ele><time>2026-04-29T16:20:54.774Z</time></trkpt><trkpt lat="44.0319325" lon="10.0850772"><ele>4.0</ele><time>2026-04-29T16:20:55.774Z</time></trkpt><trkpt lat="44.0318012" lon="10.0854297"><ele>5.0</ele><time>2026-04-29T16:20:56.774Z</time></trkpt><trkpt lat="44.0316635" lon="10.0857709"><ele>3.5</ele><time>2026-04-29T16:20:57.777Z</time></trkpt><trkpt lat="44.0315228" lon="10.0861117"><ele>2.0</ele><time>2026-04-29T16:20:58.775Z</time></trkpt><trkpt lat="44.0313785" lon="10.0864484"><ele>2.5</ele><time>2026-04-29T16:20:59.775Z</time></trkpt><trkpt lat="44.0312278" lon="10.0867831"><ele>3.0</ele><time>2026-04-29T16:21:00.777Z</time></trkpt><trkpt lat="44.0310749" lon="10.0871093"><ele>2.0</ele><time>2026-04-29T16:21:01.773Z</time></trkpt><trkpt lat="44.030917" lon="10.0874312"><ele>1.0</ele><time>2026-04-29T16:21:02.774Z</time></trkpt><trkpt lat="44.0307561" lon="10.0877461"><ele>1.0</ele><time>2026-04-29T16:21:03.774Z</time></trkpt><trkpt lat="44.0305909" lon="10.0880592"><ele>1.0</ele><time>2026-04-29T16:21:04.775Z</time></trkpt><trkpt lat="44.0304212" lon="10.0883657"><ele>1.5</ele><time>2026-04-29T16:21:05.774Z</time></trkpt><trkpt lat="44.0302467" lon="10.0886688"><ele>2.0</ele><time>2026-04-29T16:21:06.774Z</time></trkpt><trkpt lat="44.0300682" lon="10.0889673"><ele>3.0</ele><time>2026-04-29T16:21:07.774Z</time></trkpt><trkpt lat="44.0298841" lon="10.0892637"><ele>4.0</ele><time>2026-04-29T16:21:08.775Z</time></trkpt><trkpt lat="44.0296958" lon="10.0895576"><ele>4.0</ele><time>2026-04-29T16:21:09.773Z</time></trkpt><trkpt lat="44.0295034" lon="10.0898519"><ele>4.0</ele><time>2026-04-29T16:21:10.773Z</time></trkpt><trkpt lat="44.0293107" lon="10.0901455"><ele>4.5</ele><time>2026-04-29T16:21:11.774Z</time></trkpt><trkpt lat="44.0291169" lon="10.0904419"><ele>5.0</ele><time>2026-04-29T16:21:12.775Z</time></trkpt><trkpt lat="44.0289225" lon="10.0907353"><ele>5.5</ele><time>2026-04-29T16:21:13.775Z</time></trkpt><trkpt lat="44.028727" lon="10.0910303"><ele>6.0</ele><time>2026-04-29T16:21:14.774Z</time></trkpt><trkpt lat="44.0285316" lon="10.0913237"><ele>6.5</ele><time>2026-04-29T16:21:15.774Z</time></trkpt><trkpt lat="44.028336" lon="10.0916137"><ele>7.0</ele><time>2026-04-29T16:21:16.773Z</time></trkpt><trkpt lat="44.0281415" lon="10.0919039"><ele>6.5</ele><time>2026-04-29T16:21:17.775Z</time></trkpt><trkpt lat="44.0279467" lon="10.0921943"><ele>6.0</ele><time>2026-04-29T16:21:18.772Z</time></trkpt><trkpt lat="44.0277547" lon="10.0924886"><ele>6.0</ele><time>2026-04-29T16:21:19.774Z</time></trkpt><trkpt lat="44.0275627" lon="10.0927828"><ele>6.0</ele><time>2026-04-29T16:21:20.773Z</time></trkpt><trkpt lat="44.0273723" lon="10.0930771"><ele>4.5</ele><time>2026-04-29T16:21:21.773Z</time></trkpt><trkpt lat="44.0271807" lon="10.0933705"><ele>3.0</ele><time>2026-04-29T16:21:22.772Z</time></trkpt><trkpt lat="44.0269887" lon="10.0936625"><ele>3.0</ele><time>2026-04-29T16:21:23.776Z</time></trkpt><trkpt lat="44.0267954" lon="10.0939543"><ele>3.0</ele><time>2026-04-29T16:21:24.776Z</time></trkpt><trkpt lat="44.026603" lon="10.0942463"><ele>3.0</ele><time>2026-04-29T16:21:25.776Z</time></trkpt><trkpt lat="44.0264105" lon="10.0945406"><ele>3.0</ele><time>2026-04-29T16:21:26.774Z</time></trkpt><trkpt lat="44.0262186" lon="10.0948345"><ele>3.5</ele><time>2026-04-29T16:21:27.774Z</time></trkpt><trkpt lat="44.0260271" lon="10.0951315"><ele>4.0</ele><time>2026-04-29T16:21:28.774Z</time></trkpt><trkpt lat="44.0258365" lon="10.0954293"><ele>3.5</ele><time>2026-04-29T16:21:29.774Z</time></trkpt><trkpt lat="44.0256441" lon="10.0957255"><ele>3.0</ele><time>2026-04-29T16:21:30.777Z</time></trkpt><trkpt lat="44.0254506" lon="10.0960229"><ele>2.5</ele><time>2026-04-29T16:21:31.776Z</time></trkpt><trkpt lat="44.0252562" lon="10.0963201"><ele>2.0</ele><time>2026-04-29T16:21:32.774Z</time></trkpt><trkpt lat="44.0250624" lon="10.0966163"><ele>2.0</ele><time>2026-04-29T16:21:33.774Z</time></trkpt><trkpt lat="44.0248672" lon="10.0969129"><ele>2.0</ele><time>2026-04-29T16:21:34.775Z</time></trkpt><trkpt lat="44.0246733" lon="10.0972082"><ele>2.0</ele><time>2026-04-29T16:21:35.775Z</time></trkpt><trkpt lat="44.02448" lon="10.097505"><ele>2.0</ele><time>2026-04-29T16:21:36.774Z</time></trkpt><trkpt lat="44.0242896" lon="10.0978024"><ele>2.5</ele><time>2026-04-29T16:21:37.775Z</time></trkpt><trkpt lat="44.0241029" lon="10.0981007"><ele>3.0</ele><time>2026-04-29T16:21:38.774Z</time></trkpt><trkpt lat="44.0239218" lon="10.0984047"><ele>3.5</ele><time>2026-04-29T16:21:39.775Z</time></trkpt><trkpt lat="44.0237482" lon="10.0987169"><ele>4.0</ele><time>2026-04-29T16:21:40.774Z</time></trkpt><trkpt lat="44.0235794" lon="10.0990336"><ele>4.0</ele><time>2026-04-29T16:21:41.779Z</time></trkpt><trkpt lat="44.0234162" lon="10.0993492"><ele>4.0</ele><time>2026-04-29T16:21:42.775Z</time></trkpt><trkpt lat="44.0232598" lon="10.0996722"><ele>3.0</ele><time>2026-04-29T16:21:43.778Z</time></trkpt><trkpt lat="44.0231083" lon="10.1000019"><ele>2.0</ele><time>2026-04-29T16:21:44.776Z</time></trkpt><trkpt lat="44.0229618" lon="10.1003289"><ele>2.0</ele><time>2026-04-29T16:21:45.775Z</time></trkpt><trkpt lat="44.022824" lon="10.10065"><ele>2.0</ele><time>2026-04-29T16:21:46.774Z</time></trkpt><trkpt lat="44.0226916" lon="10.100976"><ele>2.0</ele><time>2026-04-29T16:21:47.774Z</time></trkpt><trkpt lat="44.0225675" lon="10.1013067"><ele>2.0</ele><time>2026-04-29T16:21:48.774Z</time></trkpt><trkpt lat="44.0224493" lon="10.1016432"><ele>2.5</ele><time>2026-04-29T16:21:49.775Z</time></trkpt><trkpt lat="44.0223357" lon="10.1019811"><ele>3.0</ele><time>2026-04-29T16:21:50.773Z</time></trkpt><trkpt lat="44.0222262" lon="10.1023209"><ele>2.5</ele><time>2026-04-29T16:21:51.775Z</time></trkpt><trkpt lat="44.0221183" lon="10.1026612"><ele>2.0</ele><time>2026-04-29T16:21:52.773Z</time></trkpt><trkpt lat="44.0220141" lon="10.1030054"><ele>2.5</ele><time>2026-04-29T16:21:53.774Z</time></trkpt><trkpt lat="44.0219124" lon="10.103354"><ele>3.0</ele><time>2026-04-29T16:21:54.773Z</time></trkpt><trkpt lat="44.0218142" lon="10.103704"><ele>3.0</ele><time>2026-04-29T16:21:55.772Z</time></trkpt><trkpt lat="44.0217213" lon="10.1040559"><ele>3.0</ele><time>2026-04-29T16:21:56.774Z</time></trkpt><trkpt lat="44.0216312" lon="10.1044138"><ele>2.5</ele><time>2026-04-29T16:21:57.775Z</time></trkpt><trkpt lat="44.0215449" lon="10.1047728"><ele>2.0</ele><time>2026-04-29T16:21:58.775Z</time></trkpt><trkpt lat="44.0214605" lon="10.1051332"><ele>3.0</ele><time>2026-04-29T16:21:59.774Z</time></trkpt><trkpt lat="44.0213779" lon="10.1054927"><ele>4.0</ele><time>2026-04-29T16:22:00.774Z</time></trkpt><trkpt lat="44.0212957" lon="10.1058487"><ele>4.0</ele><time>2026-04-29T16:22:01.773Z</time></trkpt><trkpt lat="44.0212119" lon="10.106205"><ele>4.0</ele><time>2026-04-29T16:22:02.774Z</time></trkpt><trkpt lat="44.0211263" lon="10.1065622"><ele>4.0</ele><time>2026-04-29T16:22:03.773Z</time></trkpt><trkpt lat="44.0210402" lon="10.1069254"><ele>4.0</ele><time>2026-04-29T16:22:04.777Z</time></trkpt><trkpt lat="44.0209548" lon="10.1072919"><ele>4.0</ele><time>2026-04-29T16:22:05.775Z</time></trkpt><trkpt lat="44.0208688" lon="10.1076568"><ele>4.0</ele><time>2026-04-29T16:22:06.772Z</time></trkpt><trkpt lat="44.0207838" lon="10.1080225"><ele>4.0</ele><time>2026-04-29T16:22:07.772Z</time></trkpt><trkpt lat="44.0207009" lon="10.1083898"><ele>4.0</ele><time>2026-04-29T16:22:08.774Z</time></trkpt><trkpt lat="44.0206211" lon="10.1087581"><ele>4.0</ele><time>2026-04-29T16:22:09.775Z</time></trkpt><trkpt lat="44.0205418" lon="10.1091275"><ele>4.0</ele><time>2026-04-29T16:22:10.778Z</time></trkpt><trkpt lat="44.0204621" lon="10.1094982"><ele>4.0</ele><time>2026-04-29T16:22:11.774Z</time></trkpt><trkpt lat="44.0203813" lon="10.109867"><ele>4.0</ele><time>2026-04-29T16:22:12.774Z</time></trkpt><trkpt lat="44.0203001" lon="10.1102365"><ele>3.5</ele><time>2026-04-29T16:22:13.773Z</time></trkpt><trkpt lat="44.0202151" lon="10.1106058"><ele>3.0</ele><time>2026-04-29T16:22:14.773Z</time></trkpt><trkpt lat="44.0201301" lon="10.1109739"><ele>3.0</ele><time>2026-04-29T16:22:15.774Z</time></trkpt><trkpt lat="44.0200413" lon="10.1113401"><ele>3.0</ele><time>2026-04-29T16:22:16.777Z</time></trkpt><trkpt lat="44.0199474" lon="10.1117028"><ele>3.0</ele><time>2026-04-29T16:22:17.775Z</time></trkpt><trkpt lat="44.0198459" lon="10.1120638"><ele>3.0</ele><time>2026-04-29T16:22:18.773Z</time></trkpt><trkpt lat="44.0197382" lon="10.1124247"><ele>4.0</ele><time>2026-04-29T16:22:19.773Z</time></trkpt><trkpt lat="44.0196245" lon="10.1127844"><ele>5.0</ele><time>2026-04-29T16:22:20.773Z</time></trkpt><trkpt lat="44.0195051" lon="10.1131455"><ele>5.5</ele><time>2026-04-29T16:22:21.774Z</time></trkpt><trkpt lat="44.0193803" lon="10.1135062"><ele>6.0</ele><time>2026-04-29T16:22:22.773Z</time></trkpt><trkpt lat="44.0192519" lon="10.113863"><ele>5.0</ele><time>2026-04-29T16:22:23.775Z</time></trkpt><trkpt lat="44.0191191" lon="10.1142158"><ele>4.0</ele><time>2026-04-29T16:22:24.775Z</time></trkpt><trkpt lat="44.018979" lon="10.1145629"><ele>4.0</ele><time>2026-04-29T16:22:25.773Z</time></trkpt><trkpt lat="44.0188337" lon="10.1149034"><ele>4.0</ele><time>2026-04-29T16:22:26.773Z</time></trkpt><trkpt lat="44.0186837" lon="10.1152387"><ele>5.0</ele><time>2026-04-29T16:22:27.775Z</time></trkpt><trkpt lat="44.0185279" lon="10.11557"><ele>6.0</ele><time>2026-04-29T16:22:28.773Z</time></trkpt><trkpt lat="44.0183678" lon="10.1158987"><ele>6.5</ele><time>2026-04-29T16:22:29.773Z</time></trkpt><trkpt lat="44.0182039" lon="10.1162262"><ele>7.0</ele><time>2026-04-29T16:22:30.774Z</time></trkpt><trkpt lat="44.01804" lon="10.1165527"><ele>7.0</ele><time>2026-04-29T16:22:31.773Z</time></trkpt><trkpt lat="44.0178797" lon="10.1168785"><ele>7.0</ele><time>2026-04-29T16:22:32.774Z</time></trkpt><trkpt lat="44.0177196" lon="10.1172074"><ele>7.0</ele><time>2026-04-29T16:22:33.776Z</time></trkpt><trkpt lat="44.0175604" lon="10.1175359"><ele>7.0</ele><time>2026-04-29T16:22:34.773Z</time></trkpt><trkpt lat="44.0173999" lon="10.1178632"><ele>7.0</ele><time>2026-04-29T16:22:35.773Z</time></trkpt><trkpt lat="44.0172389" lon="10.1181898"><ele>7.0</ele><time>2026-04-29T16:22:36.776Z</time></trkpt><trkpt lat="44.0170761" lon="10.1185165"><ele>6.5</ele><time>2026-04-29T16:22:37.774Z</time></trkpt><trkpt lat="44.0169122" lon="10.1188406"><ele>6.0</ele><time>2026-04-29T16:22:38.773Z</time></trkpt><trkpt lat="44.0167477" lon="10.1191652"><ele>7.5</ele><time>2026-04-29T16:22:39.773Z</time></trkpt><trkpt lat="44.0165847" lon="10.11949"><ele>9.0</ele><time>2026-04-29T16:22:40.772Z</time></trkpt><trkpt lat="44.0164227" lon="10.1198165"><ele>8.0</ele><time>2026-04-29T16:22:41.774Z</time></trkpt><trkpt lat="44.01626" lon="10.1201425"><ele>7.0</ele><time>2026-04-29T16:22:42.775Z</time></trkpt><trkpt lat="44.0160967" lon="10.1204687"><ele>7.5</ele><time>2026-04-29T16:22:43.776Z</time></trkpt><trkpt lat="44.0159345" lon="10.1207941"><ele>8.0</ele><time>2026-04-29T16:22:44.773Z</time></trkpt><trkpt lat="44.01577" lon="10.1211171"><ele>5.5</ele><time>2026-04-29T16:22:45.773Z</time></trkpt><trkpt lat="44.0156044" lon="10.1214373"><ele>3.0</ele><time>2026-04-29T16:22:46.774Z</time></trkpt><trkpt lat="44.0154358" lon="10.1217577"><ele>3.0</ele><time>2026-04-29T16:22:47.774Z</time></trkpt><trkpt lat="44.0152653" lon="10.1220773"><ele>3.0</ele><time>2026-04-29T16:22:48.777Z</time></trkpt><trkpt lat="44.0150947" lon="10.122397"><ele>2.5</ele><time>2026-04-29T16:22:49.777Z</time></trkpt><trkpt lat="44.0149255" lon="10.122716"><ele>2.0</ele><time>2026-04-29T16:22:50.774Z</time></trkpt><trkpt lat="44.0147582" lon="10.123039"><ele>2.5</ele><time>2026-04-29T16:22:51.774Z</time></trkpt><trkpt lat="44.014594" lon="10.1233604"><ele>3.0</ele><time>2026-04-29T16:22:52.776Z</time></trkpt><trkpt lat="44.0144308" lon="10.1236839"><ele>3.0</ele><time>2026-04-29T16:22:53.776Z</time></trkpt><trkpt lat="44.014267" lon="10.1240083"><ele>3.0</ele><time>2026-04-29T16:22:54.777Z</time></trkpt><trkpt lat="44.0141033" lon="10.1243336"><ele>2.5</ele><time>2026-04-29T16:22:55.775Z</time></trkpt><trkpt lat="44.0139391" lon="10.1246596"><ele>2.0</ele><time>2026-04-29T16:22:56.774Z</time></trkpt><trkpt lat="44.0137756" lon="10.1249843"><ele>2.0</ele><time>2026-04-29T16:22:57.773Z</time></trkpt><trkpt lat="44.0136119" lon="10.1253088"><ele>2.0</ele><time>2026-04-29T16:22:58.774Z</time></trkpt><trkpt lat="44.0134482" lon="10.1256336"><ele>2.0</ele><time>2026-04-29T16:22:59.774Z</time></trkpt><trkpt lat="44.0132854" lon="10.1259586"><ele>2.0</ele><time>2026-04-29T16:23:00.775Z</time></trkpt><trkpt lat="44.0131237" lon="10.1262832"><ele>2.5</ele><time>2026-04-29T16:23:01.774Z</time></trkpt><trkpt lat="44.0129621" lon="10.1266077"><ele>3.0</ele><time>2026-04-29T16:23:02.774Z</time></trkpt><trkpt lat="44.0127971" lon="10.1269306"><ele>3.0</ele><time>2026-04-29T16:23:03.774Z</time></trkpt><trkpt lat="44.0126289" lon="10.1272499"><ele>3.0</ele><time>2026-04-29T16:23:04.773Z</time></trkpt><trkpt lat="44.0124554" lon="10.1275655"><ele>2.0</ele><time>2026-04-29T16:23:05.773Z</time></trkpt><trkpt lat="44.0122777" lon="10.1278758"><ele>1.0</ele><time>2026-04-29T16:23:06.774Z</time></trkpt><trkpt lat="44.0120967" lon="10.1281818"><ele>2.0</ele><time>2026-04-29T16:23:07.775Z</time></trkpt><trkpt lat="44.0119121" lon="10.1284845"><ele>3.0</ele><time>2026-04-29T16:23:08.775Z</time></trkpt><trkpt lat="44.0117246" lon="10.1287836"><ele>3.5</ele><time>2026-04-29T16:23:09.774Z</time></trkpt><trkpt lat="44.011531" lon="10.1290775"><ele>4.0</ele><time>2026-04-29T16:23:10.774Z</time></trkpt><trkpt lat="44.0113383" lon="10.1293702"><ele>4.0</ele><time>2026-04-29T16:23:11.774Z</time></trkpt><trkpt lat="44.0111424" lon="10.129661"><ele>4.0</ele><time>2026-04-29T16:23:12.776Z</time></trkpt><trkpt lat="44.0109453" lon="10.1299485"><ele>3.5</ele><time>2026-04-29T16:23:13.778Z</time></trkpt><trkpt lat="44.0107481" lon="10.1302349"><ele>3.0</ele><time>2026-04-29T16:23:14.777Z</time></trkpt><trkpt lat="44.0105515" lon="10.1305211"><ele>3.5</ele><time>2026-04-29T16:23:15.772Z</time></trkpt><trkpt lat="44.0103548" lon="10.1308062"><ele>4.0</ele><time>2026-04-29T16:23:16.773Z</time></trkpt><trkpt lat="44.0101574" lon="10.1310931"><ele>3.0</ele><time>2026-04-29T16:23:17.774Z</time></trkpt><trkpt lat="44.0099596" lon="10.1313796"><ele>2.0</ele><time>2026-04-29T16:23:18.774Z</time></trkpt><trkpt lat="44.009762" lon="10.1316665"><ele>2.0</ele><time>2026-04-29T16:23:19.774Z</time></trkpt><trkpt lat="44.0095647" lon="10.1319526"><ele>2.0</ele><time>2026-04-29T16:23:20.778Z</time></trkpt><trkpt lat="44.0093666" lon="10.1322424"><ele>2.0</ele><time>2026-04-29T16:23:21.775Z</time></trkpt><trkpt lat="44.0091662" lon="10.1325356"><ele>2.0</ele><time>2026-04-29T16:23:22.774Z</time></trkpt><trkpt lat="44.0089625" lon="10.1328324"><ele>2.0</ele><time>2026-04-29T16:23:23.773Z</time></trkpt><trkpt lat="44.0087585" lon="10.13313"><ele>2.0</ele><time>2026-04-29T16:23:24.774Z</time></trkpt><trkpt lat="44.0085531" lon="10.1334293"><ele>2.0</ele><time>2026-04-29T16:23:25.772Z</time></trkpt><trkpt lat="44.0083476" lon="10.1337288"><ele>2.0</ele><time>2026-04-29T16:23:26.775Z</time></trkpt><trkpt lat="44.0081417" lon="10.1340288"><ele>2.5</ele><time>2026-04-29T16:23:27.776Z</time></trkpt><trkpt lat="44.007935" lon="10.1343286"><ele>3.0</ele><time>2026-04-29T16:23:28.774Z</time></trkpt><trkpt lat="44.0077298" lon="10.1346276"><ele>3.0</ele><time>2026-04-29T16:23:29.773Z</time></trkpt><trkpt lat="44.0075244" lon="10.1349273"><ele>3.0</ele><time>2026-04-29T16:23:30.773Z</time></trkpt><trkpt lat="44.0073206" lon="10.1352282"><ele>2.5</ele><time>2026-04-29T16:23:31.776Z</time></trkpt><trkpt lat="44.0071176" lon="10.1355287"><ele>2.0</ele><time>2026-04-29T16:23:32.775Z</time></trkpt><trkpt lat="44.0069147" lon="10.1358288"><ele>2.0</ele><time>2026-04-29T16:23:33.777Z</time></trkpt><trkpt lat="44.0067106" lon="10.1361303"><ele>2.0</ele><time>2026-04-29T16:23:34.773Z</time></trkpt><trkpt lat="44.006508" lon="10.1364265"><ele>2.5</ele><time>2026-04-29T16:23:35.772Z</time></trkpt><trkpt lat="44.0062999" lon="10.1367269"><ele>3.0</ele><time>2026-04-29T16:23:36.773Z</time></trkpt><trkpt lat="44.0060947" lon="10.1370235"><ele>3.0</ele><time>2026-04-29T16:23:37.774Z</time></trkpt><trkpt lat="44.0058903" lon="10.1373211"><ele>3.0</ele><time>2026-04-29T16:23:38.774Z</time></trkpt><trkpt lat="44.0056815" lon="10.1376208"><ele>3.0</ele><time>2026-04-29T16:23:39.774Z</time></trkpt><trkpt lat="44.0054749" lon="10.1379169"><ele>3.0</ele><time>2026-04-29T16:23:40.774Z</time></trkpt><trkpt lat="44.0052688" lon="10.1382149"><ele>3.0</ele><time>2026-04-29T16:23:41.774Z</time></trkpt><trkpt lat="44.0050618" lon="10.1385152"><ele>3.0</ele><time>2026-04-29T16:23:42.773Z</time></trkpt><trkpt lat="44.0048564" lon="10.1388131"><ele>1.5</ele><time>2026-04-29T16:23:43.774Z</time></trkpt><trkpt lat="44.0046528" lon="10.1391126"><ele>0.0</ele><time>2026-04-29T16:23:44.775Z</time></trkpt><trkpt lat="44.0044492" lon="10.1394115"><ele>0.0</ele><time>2026-04-29T16:23:45.775Z</time></trkpt><trkpt lat="44.004246" lon="10.1397101"><ele>0.0</ele><time>2026-04-29T16:23:46.775Z</time></trkpt><trkpt lat="44.0040421" lon="10.1400081"><ele>1.5</ele><time>2026-04-29T16:23:47.784Z</time></trkpt><trkpt lat="44.0038368" lon="10.1403059"><ele>3.0</ele><time>2026-04-29T16:23:48.775Z</time></trkpt><trkpt lat="44.0036309" lon="10.140604"><ele>3.0</ele><time>2026-04-29T16:23:49.774Z</time></trkpt><trkpt lat="44.0034251" lon="10.1409019"><ele>3.0</ele><time>2026-04-29T16:23:50.773Z</time></trkpt><trkpt lat="44.0032206" lon="10.1411988"><ele>2.5</ele><time>2026-04-29T16:23:51.773Z</time></trkpt><trkpt lat="44.0030136" lon="10.1414958"><ele>2.0</ele><time>2026-04-29T16:23:52.776Z</time></trkpt><trkpt lat="44.0028067" lon="10.1417933"><ele>2.0</ele><time>2026-04-29T16:23:53.775Z</time></trkpt><trkpt lat="44.0025997" lon="10.1420895"><ele>2.0</ele><time>2026-04-29T16:23:54.774Z</time></trkpt><trkpt lat="44.0023908" lon="10.1423846"><ele>1.5</ele><time>2026-04-29T16:23:55.773Z</time></trkpt><trkpt lat="44.0021828" lon="10.1426792"><ele>1.0</ele><time>2026-04-29T16:23:56.773Z</time></trkpt><trkpt lat="44.0019712" lon="10.1429708"><ele>1.5</ele><time>2026-04-29T16:23:57.773Z</time></trkpt><trkpt lat="44.0017514" lon="10.1432501"><ele>2.0</ele><time>2026-04-29T16:23:58.773Z</time></trkpt><trkpt lat="44.001533" lon="10.1435278"><ele>2.0</ele><time>2026-04-29T16:23:59.775Z</time></trkpt><trkpt lat="44.0013075" lon="10.1437928"><ele>2.0</ele><time>2026-04-29T16:24:00.774Z</time></trkpt><trkpt lat="44.0010751" lon="10.1440478"><ele>2.0</ele><time>2026-04-29T16:24:01.772Z</time></trkpt><trkpt lat="44.0008361" lon="10.1442952"><ele>2.0</ele><time>2026-04-29T16:24:02.774Z</time></trkpt><trkpt lat="44.0005933" lon="10.1445354"><ele>2.0</ele><time>2026-04-29T16:24:03.775Z</time></trkpt><trkpt lat="44.0003459" lon="10.1447695"><ele>2.0</ele><time>2026-04-29T16:24:04.777Z</time></trkpt><trkpt lat="44.000098" lon="10.1449978"><ele>2.5</ele><time>2026-04-29T16:24:05.777Z</time></trkpt><trkpt lat="43.9998457" lon="10.1452222"><ele>3.0</ele><time>2026-04-29T16:24:06.775Z</time></trkpt><trkpt lat="43.9995926" lon="10.1454379"><ele>3.0</ele><time>2026-04-29T16:24:07.775Z</time></trkpt><trkpt lat="43.9993358" lon="10.1456488"><ele>3.0</ele><time>2026-04-29T16:24:08.774Z</time></trkpt><trkpt lat="43.9990767" lon="10.1458501"><ele>3.0</ele><time>2026-04-29T16:24:09.773Z</time></trkpt><trkpt lat="43.9988139" lon="10.1460417"><ele>3.0</ele><time>2026-04-29T16:24:10.774Z</time></trkpt><trkpt lat="43.9985479" lon="10.1462266"><ele>3.0</ele><time>2026-04-29T16:24:11.774Z</time></trkpt><trkpt lat="43.9982797" lon="10.1464066"><ele>3.0</ele><time>2026-04-29T16:24:12.774Z</time></trkpt><trkpt lat="43.9980088" lon="10.1465819"><ele>3.0</ele><time>2026-04-29T16:24:13.775Z</time></trkpt><trkpt lat="43.9977367" lon="10.146755"><ele>3.0</ele><time>2026-04-29T16:24:14.774Z</time></trkpt><trkpt lat="43.9974659" lon="10.1469299"><ele>3.5</ele><time>2026-04-29T16:24:15.775Z</time></trkpt><trkpt lat="43.9971967" lon="10.1471061"><ele>4.0</ele><time>2026-04-29T16:24:16.774Z</time></trkpt><trkpt lat="43.9969276" lon="10.1472819"><ele>3.5</ele><time>2026-04-29T16:24:17.775Z</time></trkpt><trkpt lat="43.9966587" lon="10.1474581"><ele>3.0</ele><time>2026-04-29T16:24:18.775Z</time></trkpt><trkpt lat="43.9963897" lon="10.1476347"><ele>3.0</ele><time>2026-04-29T16:24:19.775Z</time></trkpt><trkpt lat="43.996119" lon="10.1478116"><ele>3.0</ele><time>2026-04-29T16:24:20.774Z</time></trkpt><trkpt lat="43.9958484" lon="10.1479869"><ele>3.0</ele><time>2026-04-29T16:24:21.773Z</time></trkpt><trkpt lat="43.9955767" lon="10.1481596"><ele>3.0</ele><time>2026-04-29T16:24:22.774Z</time></trkpt><trkpt lat="43.9953061" lon="10.1483309"><ele>3.5</ele><time>2026-04-29T16:24:23.772Z</time></trkpt><trkpt lat="43.9950368" lon="10.148504"><ele>4.0</ele><time>2026-04-29T16:24:24.774Z</time></trkpt><trkpt lat="43.9947676" lon="10.1486796"><ele>4.0</ele><time>2026-04-29T16:24:25.776Z</time></trkpt><trkpt lat="43.9944986" lon="10.1488583"><ele>4.0</ele><time>2026-04-29T16:24:26.776Z</time></trkpt><trkpt lat="43.99423" lon="10.1490376"><ele>4.5</ele><time>2026-04-29T16:24:27.774Z</time></trkpt><trkpt lat="43.9939612" lon="10.1492207"><ele>5.0</ele><time>2026-04-29T16:24:28.773Z</time></trkpt><trkpt lat="43.9936963" lon="10.1494089"><ele>5.0</ele><time>2026-04-29T16:24:29.772Z</time></trkpt><trkpt lat="43.9934337" lon="10.1496038"><ele>5.0</ele><time>2026-04-29T16:24:30.775Z</time></trkpt><trkpt lat="43.9931744" lon="10.1498075"><ele>4.5</ele><time>2026-04-29T16:24:31.775Z</time></trkpt><trkpt lat="43.9929191" lon="10.1500188"><ele>4.0</ele><time>2026-04-29T16:24:32.774Z</time></trkpt><trkpt lat="43.9926673" lon="10.1502366"><ele>4.5</ele><time>2026-04-29T16:24:33.775Z</time></trkpt><trkpt lat="43.9924185" lon="10.1504622"><ele>5.0</ele><time>2026-04-29T16:24:34.773Z</time></trkpt><trkpt lat="43.9921744" lon="10.1506958"><ele>4.5</ele><time>2026-04-29T16:24:35.774Z</time></trkpt><trkpt lat="43.9919334" lon="10.1509366"><ele>4.0</ele><time>2026-04-29T16:24:36.774Z</time></trkpt><trkpt lat="43.9916962" lon="10.1511848"><ele>4.0</ele><time>2026-04-29T16:24:37.774Z</time></trkpt><trkpt lat="43.9914623" lon="10.1514394"><ele>4.0</ele><time>2026-04-29T16:24:38.774Z</time></trkpt><trkpt lat="43.9912331" lon="10.1517014"><ele>4.0</ele><time>2026-04-29T16:24:39.774Z</time></trkpt><trkpt lat="43.9910079" lon="10.1519683"><ele>4.0</ele><time>2026-04-29T16:24:40.774Z</time></trkpt><trkpt lat="43.9907873" lon="10.152244"><ele>4.0</ele><time>2026-04-29T16:24:41.774Z</time></trkpt><trkpt lat="43.9905706" lon="10.1525225"><ele>4.0</ele><time>2026-04-29T16:24:42.774Z</time></trkpt><trkpt lat="43.9903581" lon="10.1528097"><ele>4.0</ele><time>2026-04-29T16:24:43.778Z</time></trkpt><trkpt lat="43.9901489" lon="10.153104"><ele>4.0</ele><time>2026-04-29T16:24:44.775Z</time></trkpt><trkpt lat="43.9899442" lon="10.1534011"><ele>3.0</ele><time>2026-04-29T16:24:45.774Z</time></trkpt><trkpt lat="43.9897396" lon="10.1536991"><ele>2.0</ele><time>2026-04-29T16:24:46.773Z</time></trkpt><trkpt lat="43.9895341" lon="10.1539958"><ele>2.0</ele><time>2026-04-29T16:24:47.773Z</time></trkpt><trkpt lat="43.9893278" lon="10.1542944"><ele>2.0</ele><time>2026-04-29T16:24:48.775Z</time></trkpt><trkpt lat="43.9891215" lon="10.1545918"><ele>1.5</ele><time>2026-04-29T16:24:49.774Z</time></trkpt><trkpt lat="43.9889158" lon="10.1548895"><ele>1.0</ele><time>2026-04-29T16:24:50.774Z</time></trkpt><trkpt lat="43.9887101" lon="10.1551865"><ele>1.0</ele><time>2026-04-29T16:24:51.776Z</time></trkpt><trkpt lat="43.9885034" lon="10.1554841"><ele>1.0</ele><time>2026-04-29T16:24:52.773Z</time></trkpt><trkpt lat="43.9882963" lon="10.1557813"><ele>1.0</ele><time>2026-04-29T16:24:53.773Z</time></trkpt><trkpt lat="43.9880886" lon="10.1560756"><ele>1.0</ele><time>2026-04-29T16:24:54.773Z</time></trkpt><trkpt lat="43.9878812" lon="10.1563697"><ele>1.0</ele><time>2026-04-29T16:24:55.773Z</time></trkpt><trkpt lat="43.9876779" lon="10.1566602"><ele>1.0</ele><time>2026-04-29T16:24:56.775Z</time></trkpt><trkpt lat="43.9874774" lon="10.1569477"><ele>1.5</ele><time>2026-04-29T16:24:57.775Z</time></trkpt><trkpt lat="43.9872799" lon="10.1572307"><ele>2.0</ele><time>2026-04-29T16:24:58.774Z</time></trkpt><trkpt lat="43.9870853" lon="10.1575109"><ele>1.0</ele><time>2026-04-29T16:24:59.774Z</time></trkpt><trkpt lat="43.9868905" lon="10.1577919"><ele>0.0</ele><time>2026-04-29T16:25:00.773Z</time></trkpt><trkpt lat="43.9866955" lon="10.1580723"><ele>0.5</ele><time>2026-04-29T16:25:01.774Z</time></trkpt><trkpt lat="43.9864988" lon="10.1583547"><ele>1.0</ele><time>2026-04-29T16:25:02.775Z</time></trkpt><trkpt lat="43.9863022" lon="10.1586368"><ele>1.0</ele><time>2026-04-29T16:25:03.776Z</time></trkpt><trkpt lat="43.986106" lon="10.1589178"><ele>1.0</ele><time>2026-04-29T16:25:04.775Z</time></trkpt><trkpt lat="43.9859146" lon="10.1591972"><ele>1.0</ele><time>2026-04-29T16:25:05.773Z</time></trkpt><trkpt lat="43.9857251" lon="10.1594748"><ele>1.0</ele><time>2026-04-29T16:25:06.774Z</time></trkpt><trkpt lat="43.9855343" lon="10.1597533"><ele>0.5</ele><time>2026-04-29T16:25:07.774Z</time></trkpt><trkpt lat="43.9853439" lon="10.1600309"><ele>0.0</ele><time>2026-04-29T16:25:08.773Z</time></trkpt><trkpt lat="43.9851522" lon="10.1603094"><ele>0.0</ele><time>2026-04-29T16:25:09.775Z</time></trkpt><trkpt lat="43.9849583" lon="10.1605888"><ele>0.0</ele><time>2026-04-29T16:25:10.774Z</time></trkpt><trkpt lat="43.9847639" lon="10.1608635"><ele>0.0</ele><time>2026-04-29T16:25:11.775Z</time></trkpt><trkpt lat="43.9845714" lon="10.1611374"><ele>0.0</ele><time>2026-04-29T16:25:12.774Z</time></trkpt><trkpt lat="43.9843831" lon="10.1614093"><ele>0.0</ele><time>2026-04-29T16:25:13.774Z</time></trkpt><trkpt lat="43.9841974" lon="10.1616771"><ele>0.0</ele><time>2026-04-29T16:25:14.773Z</time></trkpt><trkpt lat="43.9840136" lon="10.1619414"><ele>1.0</ele><time>2026-04-29T16:25:15.778Z</time></trkpt><trkpt lat="43.9838306" lon="10.1622039"><ele>2.0</ele><time>2026-04-29T16:25:16.775Z</time></trkpt><trkpt lat="43.9836493" lon="10.1624633"><ele>2.0</ele><time>2026-04-29T16:25:17.775Z</time></trkpt><trkpt lat="43.9834668" lon="10.1627249"><ele>2.0</ele><time>2026-04-29T16:25:18.773Z</time></trkpt><trkpt lat="43.9832835" lon="10.1629897"><ele>2.0</ele><time>2026-04-29T16:25:19.775Z</time></trkpt><trkpt lat="43.9830988" lon="10.163259"><ele>2.0</ele><time>2026-04-29T16:25:20.774Z</time></trkpt><trkpt lat="43.9829144" lon="10.1635346"><ele>2.0</ele><time>2026-04-29T16:25:21.778Z</time></trkpt><trkpt lat="43.9827294" lon="10.1638137"><ele>2.0</ele><time>2026-04-29T16:25:22.775Z</time></trkpt><trkpt lat="43.9825438" lon="10.1640978"><ele>3.5</ele><time>2026-04-29T16:25:23.776Z</time></trkpt><trkpt lat="43.9823574" lon="10.1643831"><ele>5.0</ele><time>2026-04-29T16:25:24.775Z</time></trkpt><trkpt lat="43.9821685" lon="10.1646648"><ele>4.0</ele><time>2026-04-29T16:25:25.774Z</time></trkpt><trkpt lat="43.9819765" lon="10.1649451"><ele>3.0</ele><time>2026-04-29T16:25:26.773Z</time></trkpt><trkpt lat="43.9817794" lon="10.165218"><ele>3.5</ele><time>2026-04-29T16:25:27.774Z</time></trkpt><trkpt lat="43.9815801" lon="10.1654944"><ele>4.0</ele><time>2026-04-29T16:25:28.777Z</time></trkpt><trkpt lat="43.9813813" lon="10.1657738"><ele>4.0</ele><time>2026-04-29T16:25:29.775Z</time></trkpt><trkpt lat="43.9811813" lon="10.166054"><ele>4.0</ele><time>2026-04-29T16:25:30.774Z</time></trkpt><trkpt lat="43.9809821" lon="10.1663381"><ele>3.5</ele><time>2026-04-29T16:25:31.773Z</time></trkpt><trkpt lat="43.9807844" lon="10.1666242"><ele>3.0</ele><time>2026-04-29T16:25:32.773Z</time></trkpt><trkpt lat="43.9805859" lon="10.1669129"><ele>3.0</ele><time>2026-04-29T16:25:33.773Z</time></trkpt><trkpt lat="43.9803857" lon="10.1672032"><ele>3.0</ele><time>2026-04-29T16:25:34.774Z</time></trkpt><trkpt lat="43.980185" lon="10.1674934"><ele>2.5</ele><time>2026-04-29T16:25:35.775Z</time></trkpt><trkpt lat="43.9799844" lon="10.167783"><ele>2.0</ele><time>2026-04-29T16:25:36.773Z</time></trkpt><trkpt lat="43.9797851" lon="10.1680726"><ele>2.0</ele><time>2026-04-29T16:25:37.775Z</time></trkpt><trkpt lat="43.9795871" lon="10.1683624"><ele>2.0</ele><time>2026-04-29T16:25:38.773Z</time></trkpt><trkpt lat="43.9793904" lon="10.1686503"><ele>2.0</ele><time>2026-04-29T16:25:39.773Z</time></trkpt><trkpt lat="43.9791951" lon="10.1689403"><ele>2.0</ele><time>2026-04-29T16:25:40.772Z</time></trkpt><trkpt lat="43.9789991" lon="10.1692305"><ele>2.5</ele><time>2026-04-29T16:25:41.774Z</time></trkpt><trkpt lat="43.9788006" lon="10.1695215"><ele>3.0</ele><time>2026-04-29T16:25:42.776Z</time></trkpt><trkpt lat="43.9786031" lon="10.1698115"><ele>3.5</ele><time>2026-04-29T16:25:43.774Z</time></trkpt><trkpt lat="43.9784046" lon="10.1701007"><ele>4.0</ele><time>2026-04-29T16:25:44.773Z</time></trkpt><trkpt lat="43.9782049" lon="10.1703886"><ele>4.0</ele><time>2026-04-29T16:25:45.774Z</time></trkpt><trkpt lat="43.9780011" lon="10.1706738"><ele>4.0</ele><time>2026-04-29T16:25:46.772Z</time></trkpt><trkpt lat="43.9778021" lon="10.1709617"><ele>3.0</ele><time>2026-04-29T16:25:47.776Z</time></trkpt><trkpt lat="43.9776023" lon="10.1712492"><ele>2.0</ele><time>2026-04-29T16:25:48.774Z</time></trkpt><trkpt lat="43.9774028" lon="10.1715351"><ele>2.0</ele><time>2026-04-29T16:25:49.775Z</time></trkpt><trkpt lat="43.9772031" lon="10.1718231"><ele>2.0</ele><time>2026-04-29T16:25:50.776Z</time></trkpt><trkpt lat="43.9770051" lon="10.1721126"><ele>1.5</ele><time>2026-04-29T16:25:51.774Z</time></trkpt><trkpt lat="43.9768081" lon="10.1724033"><ele>1.0</ele><time>2026-04-29T16:25:52.773Z</time></trkpt><trkpt lat="43.9766107" lon="10.172697"><ele>1.0</ele><time>2026-04-29T16:25:53.773Z</time></trkpt><trkpt lat="43.9764147" lon="10.1729901"><ele>1.0</ele><time>2026-04-29T16:25:54.779Z</time></trkpt><trkpt lat="43.9762188" lon="10.1732829"><ele>1.0</ele><time>2026-04-29T16:25:55.776Z</time></trkpt><trkpt lat="43.9760228" lon="10.1735773"><ele>1.0</ele><time>2026-04-29T16:25:56.774Z</time></trkpt><trkpt lat="43.9758269" lon="10.173872"><ele>2.0</ele><time>2026-04-29T16:25:57.774Z</time></trkpt><trkpt lat="43.9756337" lon="10.1741663"><ele>3.0</ele><time>2026-04-29T16:25:58.773Z</time></trkpt><trkpt lat="43.9754416" lon="10.174463"><ele>3.0</ele><time>2026-04-29T16:25:59.774Z</time></trkpt><trkpt lat="43.9752514" lon="10.1747619"><ele>3.0</ele><time>2026-04-29T16:26:00.774Z</time></trkpt><trkpt lat="43.975061" lon="10.1750641"><ele>1.5</ele><time>2026-04-29T16:26:01.774Z</time></trkpt><trkpt lat="43.9748715" lon="10.1753647"><ele>0.0</ele><time>2026-04-29T16:26:02.775Z</time></trkpt><trkpt lat="43.9746827" lon="10.1756649"><ele>1.0</ele><time>2026-04-29T16:26:03.773Z</time></trkpt><trkpt lat="43.9744924" lon="10.1759655"><ele>2.0</ele><time>2026-04-29T16:26:04.772Z</time></trkpt><trkpt lat="43.9743026" lon="10.1762697"><ele>2.0</ele><time>2026-04-29T16:26:05.773Z</time></trkpt><trkpt lat="43.9741158" lon="10.176576"><ele>2.0</ele><time>2026-04-29T16:26:06.774Z</time></trkpt><trkpt lat="43.9739334" lon="10.1768848"><ele>2.0</ele><time>2026-04-29T16:26:07.775Z</time></trkpt><trkpt lat="43.9737531" lon="10.177196"><ele>2.0</ele><time>2026-04-29T16:26:08.776Z</time></trkpt><trkpt lat="43.9735745" lon="10.1775089"><ele>2.5</ele><time>2026-04-29T16:26:09.775Z</time></trkpt><trkpt lat="43.9733965" lon="10.1778204"><ele>3.0</ele><time>2026-04-29T16:26:10.773Z</time></trkpt><trkpt lat="43.9732178" lon="10.178133"><ele>3.5</ele><time>2026-04-29T16:26:11.773Z</time></trkpt><trkpt lat="43.9730384" lon="10.1784455"><ele>4.0</ele><time>2026-04-29T16:26:12.773Z</time></trkpt><trkpt lat="43.9728579" lon="10.1787589"><ele>4.0</ele><time>2026-04-29T16:26:13.773Z</time></trkpt><trkpt lat="43.972679" lon="10.179071"><ele>4.0</ele><time>2026-04-29T16:26:14.775Z</time></trkpt><trkpt lat="43.9725003" lon="10.1793829"><ele>3.5</ele><time>2026-04-29T16:26:15.776Z</time></trkpt><trkpt lat="43.9723227" lon="10.1796943"><ele>3.0</ele><time>2026-04-29T16:26:16.774Z</time></trkpt><trkpt lat="43.9721443" lon="10.1800071"><ele>4.0</ele><time>2026-04-29T16:26:17.777Z</time></trkpt><trkpt lat="43.9719657" lon="10.1803218"><ele>5.0</ele><time>2026-04-29T16:26:18.774Z</time></trkpt><trkpt lat="43.9717874" lon="10.1806367"><ele>4.0</ele><time>2026-04-29T16:26:19.777Z</time></trkpt><trkpt lat="43.9716091" lon="10.180951"><ele>3.0</ele><time>2026-04-29T16:26:20.774Z</time></trkpt><trkpt lat="43.9714302" lon="10.1812642"><ele>3.5</ele><time>2026-04-29T16:26:21.774Z</time></trkpt><trkpt lat="43.9712521" lon="10.1815773"><ele>4.0</ele><time>2026-04-29T16:26:22.775Z</time></trkpt><trkpt lat="43.9710751" lon="10.1818909"><ele>4.0</ele><time>2026-04-29T16:26:23.774Z</time></trkpt><trkpt lat="43.9708985" lon="10.1822048"><ele>4.0</ele><time>2026-04-29T16:26:24.776Z</time></trkpt><trkpt lat="43.9707205" lon="10.1825205"><ele>5.0</ele><time>2026-04-29T16:26:25.774Z</time></trkpt><trkpt lat="43.9705429" lon="10.1828342"><ele>6.0</ele><time>2026-04-29T16:26:26.774Z</time></trkpt><trkpt lat="43.9703657" lon="10.1831487"><ele>5.5</ele><time>2026-04-29T16:26:27.774Z</time></trkpt><trkpt lat="43.970185" lon="10.1834579"><ele>5.0</ele><time>2026-04-29T16:26:28.775Z</time></trkpt><trkpt lat="43.9700013" lon="10.1837623"><ele>5.5</ele><time>2026-04-29T16:26:29.775Z</time></trkpt><trkpt lat="43.9698134" lon="10.1840647"><ele>6.0</ele><time>2026-04-29T16:26:30.774Z</time></trkpt><trkpt lat="43.9696208" lon="10.1843627"><ele>6.0</ele><time>2026-04-29T16:26:31.773Z</time></trkpt><trkpt lat="43.9694257" lon="10.1846572"><ele>6.0</ele><time>2026-04-29T16:26:32.774Z</time></trkpt><trkpt lat="43.969227" lon="10.1849471"><ele>5.5</ele><time>2026-04-29T16:26:33.777Z</time></trkpt><trkpt lat="43.9690267" lon="10.1852343"><ele>5.0</ele><time>2026-04-29T16:26:34.775Z</time></trkpt><trkpt lat="43.968825" lon="10.1855175"><ele>5.0</ele><time>2026-04-29T16:26:35.773Z</time></trkpt><trkpt lat="43.9686193" lon="10.1857963"><ele>5.0</ele><time>2026-04-29T16:26:36.774Z</time></trkpt><trkpt lat="43.9684098" lon="10.1860709"><ele>5.5</ele><time>2026-04-29T16:26:37.775Z</time></trkpt><trkpt lat="43.968197" lon="10.1863423"><ele>6.0</ele><time>2026-04-29T16:26:38.772Z</time></trkpt><trkpt lat="43.9679737" lon="10.1866069"><ele>6.0</ele><time>2026-04-29T16:26:39.779Z</time></trkpt><trkpt lat="43.9677538" lon="10.1868648"><ele>6.0</ele><time>2026-04-29T16:26:40.774Z</time></trkpt><trkpt lat="43.9675311" lon="10.1871159"><ele>5.0</ele><time>2026-04-29T16:26:41.774Z</time></trkpt><trkpt lat="43.9673055" lon="10.1873649"><ele>4.0</ele><time>2026-04-29T16:26:42.78Z</time></trkpt><trkpt lat="43.9670793" lon="10.1876147"><ele>4.0</ele><time>2026-04-29T16:26:43.773Z</time></trkpt><trkpt lat="43.9668545" lon="10.1878671"><ele>4.0</ele><time>2026-04-29T16:26:44.775Z</time></trkpt><trkpt lat="43.9666308" lon="10.1881204"><ele>3.5</ele><time>2026-04-29T16:26:45.775Z</time></trkpt><trkpt lat="43.9664081" lon="10.1883749"><ele>3.0</ele><time>2026-04-29T16:26:46.774Z</time></trkpt><trkpt lat="43.9661871" lon="10.1886297"><ele>3.0</ele><time>2026-04-29T16:26:47.776Z</time></trkpt><trkpt lat="43.9659665" lon="10.1888862"><ele>3.0</ele><time>2026-04-29T16:26:48.775Z</time></trkpt><trkpt lat="43.9657456" lon="10.1891442"><ele>2.0</ele><time>2026-04-29T16:26:49.775Z</time></trkpt><trkpt lat="43.9655237" lon="10.1894009"><ele>1.0</ele><time>2026-04-29T16:26:50.775Z</time></trkpt><trkpt lat="43.965301" lon="10.1896554"><ele>1.0</ele><time>2026-04-29T16:26:51.775Z</time></trkpt><trkpt lat="43.9650778" lon="10.1899094"><ele>1.0</ele><time>2026-04-29T16:26:52.773Z</time></trkpt><trkpt lat="43.9648498" lon="10.1901652"><ele>0.5</ele><time>2026-04-29T16:26:53.773Z</time></trkpt><trkpt lat="43.9646178" lon="10.1904256"><ele>0.0</ele><time>2026-04-29T16:26:54.774Z</time></trkpt><trkpt lat="43.9643849" lon="10.1906893"><ele>1.0</ele><time>2026-04-29T16:26:55.773Z</time></trkpt><trkpt lat="43.9641511" lon="10.1909545"><ele>2.0</ele><time>2026-04-29T16:26:56.775Z</time></trkpt><trkpt lat="43.9639168" lon="10.191218"><ele>2.0</ele><time>2026-04-29T16:26:57.774Z</time></trkpt><trkpt lat="43.9636839" lon="10.1914821"><ele>2.0</ele><time>2026-04-29T16:26:58.773Z</time></trkpt><trkpt lat="43.9634505" lon="10.1917427"><ele>3.0</ele><time>2026-04-29T16:26:59.777Z</time></trkpt><trkpt lat="43.9632177" lon="10.192003"><ele>4.0</ele><time>2026-04-29T16:27:00.773Z</time></trkpt><trkpt lat="43.9629857" lon="10.1922636"><ele>3.0</ele><time>2026-04-29T16:27:01.774Z</time></trkpt><trkpt lat="43.9627529" lon="10.1925236"><ele>2.0</ele><time>2026-04-29T16:27:02.774Z</time></trkpt><trkpt lat="43.9625188" lon="10.1927849"><ele>2.0</ele><time>2026-04-29T16:27:03.775Z</time></trkpt><trkpt lat="43.9622856" lon="10.1930458"><ele>2.0</ele><time>2026-04-29T16:27:04.773Z</time></trkpt><trkpt lat="43.9620526" lon="10.1933081"><ele>2.0</ele><time>2026-04-29T16:27:05.776Z</time></trkpt><trkpt lat="43.9618201" lon="10.1935686"><ele>2.0</ele><time>2026-04-29T16:27:06.775Z</time></trkpt><trkpt lat="43.961586" lon="10.1938289"><ele>2.0</ele><time>2026-04-29T16:27:07.773Z</time></trkpt><trkpt lat="43.9613517" lon="10.1940908"><ele>2.0</ele><time>2026-04-29T16:27:08.773Z</time></trkpt><trkpt lat="43.9611179" lon="10.1943524"><ele>2.0</ele><time>2026-04-29T16:27:09.772Z</time></trkpt><trkpt lat="43.9608854" lon="10.1946135"><ele>2.0</ele><time>2026-04-29T16:27:10.773Z</time></trkpt><trkpt lat="43.96065" lon="10.1948704"><ele>2.0</ele><time>2026-04-29T16:27:11.775Z</time></trkpt><trkpt lat="43.9604137" lon="10.1951265"><ele>2.0</ele><time>2026-04-29T16:27:12.776Z</time></trkpt><trkpt lat="43.9601788" lon="10.1953851"><ele>1.5</ele><time>2026-04-29T16:27:13.775Z</time></trkpt><trkpt lat="43.9599436" lon="10.1956437"><ele>1.0</ele><time>2026-04-29T16:27:14.774Z</time></trkpt><trkpt lat="43.9597122" lon="10.195896"><ele>2.0</ele><time>2026-04-29T16:27:15.774Z</time></trkpt><trkpt lat="43.9594925" lon="10.1961388"><ele>3.0</ele><time>2026-04-29T16:27:16.773Z</time></trkpt><trkpt lat="43.9592806" lon="10.1963768"><ele>3.5</ele><time>2026-04-29T16:27:17.775Z</time></trkpt><trkpt lat="43.9590689" lon="10.1966155"><ele>4.0</ele><time>2026-04-29T16:27:18.773Z</time></trkpt><trkpt lat="43.9588576" lon="10.1968519"><ele>4.0</ele><time>2026-04-29T16:27:19.776Z</time></trkpt><trkpt lat="43.9586416" lon="10.1970952"><ele>4.0</ele><time>2026-04-29T16:27:20.774Z</time></trkpt><trkpt lat="43.9584213" lon="10.1973406"><ele>3.5</ele><time>2026-04-29T16:27:21.772Z</time></trkpt><trkpt lat="43.9581983" lon="10.1975908"><ele>3.0</ele><time>2026-04-29T16:27:22.778Z</time></trkpt><trkpt lat="43.9579711" lon="10.1978478"><ele>3.0</ele><time>2026-04-29T16:27:23.774Z</time></trkpt><trkpt lat="43.9577398" lon="10.1981085"><ele>3.0</ele><time>2026-04-29T16:27:24.774Z</time></trkpt><trkpt lat="43.9575069" lon="10.1983723"><ele>1.5</ele><time>2026-04-29T16:27:25.777Z</time></trkpt><trkpt lat="43.9572716" lon="10.1986355"><ele>0.0</ele><time>2026-04-29T16:27:26.775Z</time></trkpt><trkpt lat="43.9570331" lon="10.1988926"><ele>1.0</ele><time>2026-04-29T16:27:27.775Z</time></trkpt><trkpt lat="43.9567932" lon="10.1991505"><ele>2.0</ele><time>2026-04-29T16:27:28.773Z</time></trkpt><trkpt lat="43.9565577" lon="10.1994094"><ele>2.0</ele><time>2026-04-29T16:27:29.773Z</time></trkpt><trkpt lat="43.9563204" lon="10.1996692"><ele>2.0</ele><time>2026-04-29T16:27:30.774Z</time></trkpt><trkpt lat="43.9560855" lon="10.19993"><ele>3.0</ele><time>2026-04-29T16:27:31.778Z</time></trkpt><trkpt lat="43.9558507" lon="10.2001906"><ele>4.0</ele><time>2026-04-29T16:27:32.774Z</time></trkpt><trkpt lat="43.955619" lon="10.2004471"><ele>3.5</ele><time>2026-04-29T16:27:33.773Z</time></trkpt><trkpt lat="43.9553889" lon="10.2007034"><ele>3.0</ele><time>2026-04-29T16:27:34.773Z</time></trkpt><trkpt lat="43.9551618" lon="10.2009579"><ele>3.0</ele><time>2026-04-29T16:27:35.775Z</time></trkpt><trkpt lat="43.9549358" lon="10.2012126"><ele>3.0</ele><time>2026-04-29T16:27:36.777Z</time></trkpt><trkpt lat="43.9547107" lon="10.2014639"><ele>2.0</ele><time>2026-04-29T16:27:37.774Z</time></trkpt><trkpt lat="43.9544862" lon="10.2017105"><ele>1.0</ele><time>2026-04-29T16:27:38.776Z</time></trkpt><trkpt lat="43.9542644" lon="10.2019553"><ele>2.0</ele><time>2026-04-29T16:27:39.778Z</time></trkpt><trkpt lat="43.9540438" lon="10.2021969"><ele>3.0</ele><time>2026-04-29T16:27:40.773Z</time></trkpt><trkpt lat="43.9538227" lon="10.2024421"><ele>3.0</ele><time>2026-04-29T16:27:41.773Z</time></trkpt><trkpt lat="43.9536018" lon="10.2026861"><ele>3.0</ele><time>2026-04-29T16:27:42.775Z</time></trkpt><trkpt lat="43.953382" lon="10.2029285"><ele>2.5</ele><time>2026-04-29T16:27:43.773Z</time></trkpt><trkpt lat="43.9531662" lon="10.2031698"><ele>2.0</ele><time>2026-04-29T16:27:44.774Z</time></trkpt><trkpt lat="43.9529537" lon="10.2034105"><ele>2.0</ele><time>2026-04-29T16:27:45.775Z</time></trkpt><trkpt lat="43.9527441" lon="10.2036483"><ele>2.0</ele><time>2026-04-29T16:27:46.773Z</time></trkpt><trkpt lat="43.9525304" lon="10.2038908"><ele>3.0</ele><time>2026-04-29T16:27:47.773Z</time></trkpt><trkpt lat="43.9523157" lon="10.2041277"><ele>4.0</ele><time>2026-04-29T16:27:48.773Z</time></trkpt><trkpt lat="43.9520957" lon="10.2043713"><ele>4.0</ele><time>2026-04-29T16:27:49.773Z</time></trkpt><trkpt lat="43.9518772" lon="10.2046115"><ele>4.0</ele><time>2026-04-29T16:27:50.777Z</time></trkpt><trkpt lat="43.9516597" lon="10.204851"><ele>3.0</ele><time>2026-04-29T16:27:51.791Z</time></trkpt><trkpt lat="43.9514453" lon="10.205091"><ele>2.0</ele><time>2026-04-29T16:27:52.774Z</time></trkpt><trkpt lat="43.9512315" lon="10.2053319"><ele>2.0</ele><time>2026-04-29T16:27:53.772Z</time></trkpt><trkpt lat="43.9510168" lon="10.2055727"><ele>2.0</ele><time>2026-04-29T16:27:54.774Z</time></trkpt><trkpt lat="43.9508029" lon="10.2058134"><ele>2.0</ele><time>2026-04-29T16:27:55.783Z</time></trkpt><trkpt lat="43.9505882" lon="10.2060534"><ele>2.0</ele><time>2026-04-29T16:27:56.773Z</time></trkpt><trkpt lat="43.9503724" lon="10.2062935"><ele>2.0</ele><time>2026-04-29T16:27:57.777Z</time></trkpt><trkpt lat="43.9501575" lon="10.206533"><ele>2.0</ele><time>2026-04-29T16:27:58.773Z</time></trkpt><trkpt lat="43.9499436" lon="10.2067725"><ele>2.0</ele><time>2026-04-29T16:27:59.772Z</time></trkpt><trkpt lat="43.9497304" lon="10.2070124"><ele>2.0</ele><time>2026-04-29T16:28:00.775Z</time></trkpt><trkpt lat="43.9495176" lon="10.2072526"><ele>2.5</ele><time>2026-04-29T16:28:01.782Z</time></trkpt><trkpt lat="43.9493056" lon="10.2074941"><ele>3.0</ele><time>2026-04-29T16:28:02.775Z</time></trkpt><trkpt lat="43.9490907" lon="10.2077355"><ele>3.0</ele><time>2026-04-29T16:28:03.783Z</time></trkpt><trkpt lat="43.948876" lon="10.2079749"><ele>3.0</ele><time>2026-04-29T16:28:04.773Z</time></trkpt><trkpt lat="43.9486592" lon="10.2082145"><ele>2.5</ele><time>2026-04-29T16:28:05.784Z</time></trkpt><trkpt lat="43.9484427" lon="10.2084533"><ele>2.0</ele><time>2026-04-29T16:28:06.774Z</time></trkpt><trkpt lat="43.9482269" lon="10.2086926"><ele>3.0</ele><time>2026-04-29T16:28:07.773Z</time></trkpt><trkpt lat="43.9480127" lon="10.2089325"><ele>4.0</ele><time>2026-04-29T16:28:08.777Z</time></trkpt><trkpt lat="43.9477988" lon="10.2091735"><ele>4.0</ele><time>2026-04-29T16:28:09.774Z</time></trkpt><trkpt lat="43.9475837" lon="10.2094163"><ele>4.0</ele><time>2026-04-29T16:28:10.774Z</time></trkpt><trkpt lat="43.9473686" lon="10.2096568"><ele>4.5</ele><time>2026-04-29T16:28:11.779Z</time></trkpt><trkpt lat="43.9471527" lon="10.2098966"><ele>5.0</ele><time>2026-04-29T16:28:12.776Z</time></trkpt><trkpt lat="43.9469358" lon="10.2101352"><ele>5.0</ele><time>2026-04-29T16:28:13.774Z</time></trkpt><trkpt lat="43.9467166" lon="10.2103711"><ele>5.0</ele><time>2026-04-29T16:28:14.773Z</time></trkpt><trkpt lat="43.9464954" lon="10.2106023"><ele>5.0</ele><time>2026-04-29T16:28:15.774Z</time></trkpt><trkpt lat="43.9462725" lon="10.2108264"><ele>5.0</ele><time>2026-04-29T16:28:16.774Z</time></trkpt><trkpt lat="43.9460456" lon="10.2110442"><ele>5.0</ele><time>2026-04-29T16:28:17.774Z</time></trkpt><trkpt lat="43.9458143" lon="10.2112574"><ele>5.0</ele><time>2026-04-29T16:28:18.774Z</time></trkpt><trkpt lat="43.945581" lon="10.2114662"><ele>5.0</ele><time>2026-04-29T16:28:19.775Z</time></trkpt><trkpt lat="43.9453457" lon="10.211671"><ele>5.0</ele><time>2026-04-29T16:28:20.774Z</time></trkpt><trkpt lat="43.9451085" lon="10.2118717"><ele>4.0</ele><time>2026-04-29T16:28:21.777Z</time></trkpt><trkpt lat="43.9448683" lon="10.2120645"><ele>3.0</ele><time>2026-04-29T16:28:22.775Z</time></trkpt><trkpt lat="43.944627" lon="10.2122532"><ele>3.0</ele><time>2026-04-29T16:28:23.775Z</time></trkpt><trkpt lat="43.9443834" lon="10.2124379"><ele>3.0</ele><time>2026-04-29T16:28:24.774Z</time></trkpt><trkpt lat="43.9441378" lon="10.2126166"><ele>2.0</ele><time>2026-04-29T16:28:25.772Z</time></trkpt><trkpt lat="43.9438911" lon="10.212794"><ele>1.0</ele><time>2026-04-29T16:28:26.772Z</time></trkpt><trkpt lat="43.9436432" lon="10.2129691"><ele>1.0</ele><time>2026-04-29T16:28:27.773Z</time></trkpt><trkpt lat="43.9433953" lon="10.2131443"><ele>1.0</ele><time>2026-04-29T16:28:28.775Z</time></trkpt><trkpt lat="43.9431469" lon="10.2133179"><ele>3.0</ele><time>2026-04-29T16:28:29.777Z</time></trkpt><trkpt lat="43.9429004" lon="10.2134928"><ele>5.0</ele><time>2026-04-29T16:28:30.777Z</time></trkpt><trkpt lat="43.9426574" lon="10.2136687"><ele>5.0</ele><time>2026-04-29T16:28:31.774Z</time></trkpt><trkpt lat="43.9424138" lon="10.2138433"><ele>5.0</ele><time>2026-04-29T16:28:32.772Z</time></trkpt><trkpt lat="43.9421678" lon="10.2140167"><ele>4.5</ele><time>2026-04-29T16:28:33.776Z</time></trkpt><trkpt lat="43.9419164" lon="10.2141893"><ele>4.0</ele><time>2026-04-29T16:28:34.772Z</time></trkpt><trkpt lat="43.9416651" lon="10.2143674"><ele>3.5</ele><time>2026-04-29T16:28:35.774Z</time></trkpt><trkpt lat="43.9414093" lon="10.2145448"><ele>3.0</ele><time>2026-04-29T16:28:36.776Z</time></trkpt><trkpt lat="43.9411525" lon="10.2147239"><ele>2.5</ele><time>2026-04-29T16:28:37.774Z</time></trkpt><trkpt lat="43.9408961" lon="10.214902"><ele>2.0</ele><time>2026-04-29T16:28:38.775Z</time></trkpt><trkpt lat="43.9406377" lon="10.215079"><ele>1.5</ele><time>2026-04-29T16:28:39.774Z</time></trkpt><trkpt lat="43.9403823" lon="10.2152557"><ele>1.0</ele><time>2026-04-29T16:28:40.774Z</time></trkpt><trkpt lat="43.9401297" lon="10.2154318"><ele>0.5</ele><time>2026-04-29T16:28:41.776Z</time></trkpt><trkpt lat="43.9398746" lon="10.2156086"><ele>0.0</ele><time>2026-04-29T16:28:42.776Z</time></trkpt><trkpt lat="43.9396174" lon="10.2157877"><ele>1.0</ele><time>2026-04-29T16:28:43.773Z</time></trkpt><trkpt lat="43.9393619" lon="10.215969"><ele>2.0</ele><time>2026-04-29T16:28:44.774Z</time></trkpt><trkpt lat="43.9391092" lon="10.2161484"><ele>2.0</ele><time>2026-04-29T16:28:45.775Z</time></trkpt><trkpt lat="43.9388539" lon="10.2163279"><ele>2.0</ele><time>2026-04-29T16:28:46.774Z</time></trkpt><trkpt lat="43.9386021" lon="10.2165073"><ele>1.5</ele><time>2026-04-29T16:28:47.776Z</time></trkpt><trkpt lat="43.9383479" lon="10.2166853"><ele>1.0</ele><time>2026-04-29T16:28:48.774Z</time></trkpt><trkpt lat="43.9380954" lon="10.2168666"><ele>1.0</ele><time>2026-04-29T16:28:49.774Z</time></trkpt><trkpt lat="43.9378421" lon="10.2170448"><ele>1.0</ele><time>2026-04-29T16:28:50.775Z</time></trkpt><trkpt lat="43.9375869" lon="10.217219"><ele>0.5</ele><time>2026-04-29T16:28:51.775Z</time></trkpt><trkpt lat="43.937334" lon="10.2173983"><ele>0.0</ele><time>2026-04-29T16:28:52.776Z</time></trkpt><trkpt lat="43.9370808" lon="10.2175778"><ele>0.0</ele><time>2026-04-29T16:28:53.776Z</time></trkpt><trkpt lat="43.9368251" lon="10.2177531"><ele>0.0</ele><time>2026-04-29T16:28:54.776Z</time></trkpt><trkpt lat="43.9365689" lon="10.2179329"><ele>0.0</ele><time>2026-04-29T16:28:55.775Z</time></trkpt><trkpt lat="43.9363127" lon="10.2181135"><ele>0.0</ele><time>2026-04-29T16:28:56.773Z</time></trkpt><trkpt lat="43.9360569" lon="10.2182963"><ele>0.5</ele><time>2026-04-29T16:28:57.774Z</time></trkpt><trkpt lat="43.935801" lon="10.2184694"><ele>1.0</ele><time>2026-04-29T16:28:58.773Z</time></trkpt><trkpt lat="43.9355465" lon="10.2186474"><ele>1.0</ele><time>2026-04-29T16:28:59.774Z</time></trkpt><trkpt lat="43.9352903" lon="10.2188266"><ele>1.0</ele><time>2026-04-29T16:29:00.775Z</time></trkpt><trkpt lat="43.9350368" lon="10.2190066"><ele>0.0</ele><time>2026-04-29T16:29:01.777Z</time></trkpt><trkpt lat="43.9347814" lon="10.219185"><ele>-1.0</ele><time>2026-04-29T16:29:02.775Z</time></trkpt><trkpt lat="43.9345266" lon="10.2193624"><ele>-1.0</ele><time>2026-04-29T16:29:03.774Z</time></trkpt><trkpt lat="43.9342716" lon="10.2195424"><ele>-1.0</ele><time>2026-04-29T16:29:04.773Z</time></trkpt><trkpt lat="43.9340184" lon="10.2197231"><ele>0.0</ele><time>2026-04-29T16:29:05.772Z</time></trkpt><trkpt lat="43.9337637" lon="10.2199012"><ele>1.0</ele><time>2026-04-29T16:29:06.771Z</time></trkpt><trkpt lat="43.9335081" lon="10.2200801"><ele>1.0</ele><time>2026-04-29T16:29:07.774Z</time></trkpt><trkpt lat="43.933252" lon="10.2202589"><ele>1.0</ele><time>2026-04-29T16:29:08.774Z</time></trkpt><trkpt lat="43.9329949" lon="10.2204348"><ele>1.0</ele><time>2026-04-29T16:29:09.774Z</time></trkpt><trkpt lat="43.9327399" lon="10.2206124"><ele>1.0</ele><time>2026-04-29T16:29:10.774Z</time></trkpt><trkpt lat="43.9324856" lon="10.2207909"><ele>1.0</ele><time>2026-04-29T16:29:11.773Z</time></trkpt><trkpt lat="43.9322319" lon="10.220969"><ele>1.0</ele><time>2026-04-29T16:29:12.773Z</time></trkpt><trkpt lat="43.9319778" lon="10.2211485"><ele>1.0</ele><time>2026-04-29T16:29:13.774Z</time></trkpt><trkpt lat="43.9317229" lon="10.2213259"><ele>1.0</ele><time>2026-04-29T16:29:14.771Z</time></trkpt><trkpt lat="43.9314688" lon="10.2215033"><ele>1.5</ele><time>2026-04-29T16:29:15.774Z</time></trkpt><trkpt lat="43.9312151" lon="10.221682"><ele>2.0</ele><time>2026-04-29T16:29:16.774Z</time></trkpt><trkpt lat="43.9309594" lon="10.2218606"><ele>2.0</ele><time>2026-04-29T16:29:17.772Z</time></trkpt><trkpt lat="43.9307044" lon="10.2220412"><ele>2.0</ele><time>2026-04-29T16:29:18.773Z</time></trkpt><trkpt lat="43.9304506" lon="10.2222205"><ele>2.0</ele><time>2026-04-29T16:29:19.773Z</time></trkpt><trkpt lat="43.9301957" lon="10.2224006"><ele>2.0</ele><time>2026-04-29T16:29:20.774Z</time></trkpt><trkpt lat="43.9299385" lon="10.2225812"><ele>2.0</ele><time>2026-04-29T16:29:21.773Z</time></trkpt><trkpt lat="43.9296846" lon="10.2227602"><ele>2.0</ele><time>2026-04-29T16:29:22.773Z</time></trkpt><trkpt lat="43.9294298" lon="10.2229392"><ele>2.0</ele><time>2026-04-29T16:29:23.772Z</time></trkpt><trkpt lat="43.9291747" lon="10.2231173"><ele>2.0</ele><time>2026-04-29T16:29:24.773Z</time></trkpt><trkpt lat="43.9289196" lon="10.2232983"><ele>2.0</ele><time>2026-04-29T16:29:25.773Z</time></trkpt><trkpt lat="43.928664" lon="10.2234781"><ele>2.0</ele><time>2026-04-29T16:29:26.774Z</time></trkpt><trkpt lat="43.9284093" lon="10.2236562"><ele>2.0</ele><time>2026-04-29T16:29:27.774Z</time></trkpt><trkpt lat="43.9281547" lon="10.2238349"><ele>2.0</ele><time>2026-04-29T16:29:28.773Z</time></trkpt><trkpt lat="43.9279013" lon="10.2240146"><ele>2.0</ele><time>2026-04-29T16:29:29.774Z</time></trkpt><trkpt lat="43.9276474" lon="10.2241966"><ele>2.0</ele><time>2026-04-29T16:29:30.772Z</time></trkpt><trkpt lat="43.9273948" lon="10.2243789"><ele>1.5</ele><time>2026-04-29T16:29:31.773Z</time></trkpt><trkpt lat="43.9271426" lon="10.224562"><ele>1.0</ele><time>2026-04-29T16:29:32.771Z</time></trkpt><trkpt lat="43.926891" lon="10.2247489"><ele>2.0</ele><time>2026-04-29T16:29:33.774Z</time></trkpt><trkpt lat="43.9266389" lon="10.2249394"><ele>3.0</ele><time>2026-04-29T16:29:34.774Z</time></trkpt><trkpt lat="43.9263878" lon="10.2251312"><ele>3.0</ele><time>2026-04-29T16:29:35.773Z</time></trkpt><trkpt lat="43.9261373" lon="10.2253241"><ele>3.0</ele><time>2026-04-29T16:29:36.784Z</time></trkpt><trkpt lat="43.9258885" lon="10.225519"><ele>2.5</ele><time>2026-04-29T16:29:37.773Z</time></trkpt><trkpt lat="43.9256415" lon="10.2257176"><ele>2.0</ele><time>2026-04-29T16:29:38.774Z</time></trkpt><trkpt lat="43.9253948" lon="10.2259184"><ele>2.0</ele><time>2026-04-29T16:29:39.77Z</time></trkpt><trkpt lat="43.9251497" lon="10.2261214"><ele>2.0</ele><time>2026-04-29T16:29:40.776Z</time></trkpt><trkpt lat="43.9249062" lon="10.2263268"><ele>2.5</ele><time>2026-04-29T16:29:41.774Z</time></trkpt><trkpt lat="43.9246616" lon="10.2265336"><ele>3.0</ele><time>2026-04-29T16:29:42.773Z</time></trkpt><trkpt lat="43.9244177" lon="10.2267406"><ele>3.5</ele><time>2026-04-29T16:29:43.771Z</time></trkpt><trkpt lat="43.9241754" lon="10.2269505"><ele>4.0</ele><time>2026-04-29T16:29:44.773Z</time></trkpt><trkpt lat="43.9239346" lon="10.2271632"><ele>2.5</ele><time>2026-04-29T16:29:45.773Z</time></trkpt><trkpt lat="43.9236952" lon="10.2273795"><ele>1.0</ele><time>2026-04-29T16:29:46.773Z</time></trkpt><trkpt lat="43.9234579" lon="10.2276004"><ele>0.5</ele><time>2026-04-29T16:29:47.774Z</time></trkpt><trkpt lat="43.9232217" lon="10.2278247"><ele>0.0</ele><time>2026-04-29T16:29:48.772Z</time></trkpt><trkpt lat="43.9229867" lon="10.2280523"><ele>0.0</ele><time>2026-04-29T16:29:49.774Z</time></trkpt><trkpt lat="43.9227543" lon="10.2282811"><ele>0.0</ele><time>2026-04-29T16:29:50.774Z</time></trkpt><trkpt lat="43.9225212" lon="10.2285122"><ele>0.5</ele><time>2026-04-29T16:29:51.772Z</time></trkpt><trkpt lat="43.9222883" lon="10.2287418"><ele>1.0</ele><time>2026-04-29T16:29:52.776Z</time></trkpt><trkpt lat="43.9220549" lon="10.2289706"><ele>0.5</ele><time>2026-04-29T16:29:53.774Z</time></trkpt><trkpt lat="43.9218218" lon="10.2291982"><ele>0.0</ele><time>2026-04-29T16:29:54.773Z</time></trkpt><trkpt lat="43.9215866" lon="10.2294244"><ele>0.0</ele><time>2026-04-29T16:29:55.775Z</time></trkpt><trkpt lat="43.9213509" lon="10.2296488"><ele>0.0</ele><time>2026-04-29T16:29:56.772Z</time></trkpt><trkpt lat="43.9211147" lon="10.2298734"><ele>0.5</ele><time>2026-04-29T16:29:57.773Z</time></trkpt><trkpt lat="43.9208796" lon="10.2300988"><ele>1.0</ele><time>2026-04-29T16:29:58.775Z</time></trkpt><trkpt lat="43.9206449" lon="10.2303254"><ele>1.0</ele><time>2026-04-29T16:29:59.773Z</time></trkpt><trkpt lat="43.9204111" lon="10.2305526"><ele>1.0</ele><time>2026-04-29T16:30:00.772Z</time></trkpt><trkpt lat="43.9201801" lon="10.2307793"><ele>0.5</ele><time>2026-04-29T16:30:01.773Z</time></trkpt><trkpt lat="43.9199508" lon="10.2310036"><ele>0.0</ele><time>2026-04-29T16:30:02.774Z</time></trkpt><trkpt lat="43.9197236" lon="10.2312263"><ele>0.0</ele><time>2026-04-29T16:30:03.772Z</time></trkpt><trkpt lat="43.9194978" lon="10.2314477"><ele>0.0</ele><time>2026-04-29T16:30:04.77Z</time></trkpt><trkpt lat="43.9192717" lon="10.2316675"><ele>0.5</ele><time>2026-04-29T16:30:05.774Z</time></trkpt><trkpt lat="43.919044" lon="10.2318883"><ele>1.0</ele><time>2026-04-29T16:30:06.773Z</time></trkpt><trkpt lat="43.9188128" lon="10.2321112"><ele>1.5</ele><time>2026-04-29T16:30:07.774Z</time></trkpt><trkpt lat="43.9185777" lon="10.2323374"><ele>2.0</ele><time>2026-04-29T16:30:08.772Z</time></trkpt><trkpt lat="43.9183408" lon="10.2325659"><ele>1.0</ele><time>2026-04-29T16:30:09.773Z</time></trkpt><trkpt lat="43.918105" lon="10.2327945"><ele>0.0</ele><time>2026-04-29T16:30:10.772Z</time></trkpt><trkpt lat="43.9178703" lon="10.233023"><ele>-0.5</ele><time>2026-04-29T16:30:11.774Z</time></trkpt><trkpt lat="43.9176364" lon="10.2332506"><ele>-1.0</ele><time>2026-04-29T16:30:12.773Z</time></trkpt><trkpt lat="43.9174034" lon="10.2334781"><ele>-1.0</ele><time>2026-04-29T16:30:13.776Z</time></trkpt><trkpt lat="43.9171711" lon="10.2337062"><ele>-1.0</ele><time>2026-04-29T16:30:14.773Z</time></trkpt><trkpt lat="43.9169387" lon="10.2339352"><ele>-1.0</ele><time>2026-04-29T16:30:15.773Z</time></trkpt><trkpt lat="43.9167053" lon="10.2341637"><ele>-1.0</ele><time>2026-04-29T16:30:16.772Z</time></trkpt><trkpt lat="43.9164717" lon="10.234393"><ele>-1.0</ele><time>2026-04-29T16:30:17.792Z</time></trkpt><trkpt lat="43.9162374" lon="10.2346217"><ele>-1.0</ele><time>2026-04-29T16:30:18.773Z</time></trkpt><trkpt lat="43.9160029" lon="10.2348495"><ele>-0.5</ele><time>2026-04-29T16:30:19.775Z</time></trkpt><trkpt lat="43.9157684" lon="10.2350755"><ele>0.0</ele><time>2026-04-29T16:30:20.773Z</time></trkpt><trkpt lat="43.9155346" lon="10.2353022"><ele>0.0</ele><time>2026-04-29T16:30:21.773Z</time></trkpt><trkpt lat="43.9153007" lon="10.2355297"><ele>0.0</ele><time>2026-04-29T16:30:22.773Z</time></trkpt><trkpt lat="43.9150676" lon="10.2357538"><ele>0.5</ele><time>2026-04-29T16:30:23.776Z</time></trkpt><trkpt lat="43.9148277" lon="10.235977"><ele>1.0</ele><time>2026-04-29T16:30:24.775Z</time></trkpt><trkpt lat="43.9145946" lon="10.2362037"><ele>1.0</ele><time>2026-04-29T16:30:25.774Z</time></trkpt><trkpt lat="43.914361" lon="10.2364307"><ele>1.0</ele><time>2026-04-29T16:30:26.775Z</time></trkpt><trkpt lat="43.9141279" lon="10.2366608"><ele>1.0</ele><time>2026-04-29T16:30:27.774Z</time></trkpt><trkpt lat="43.9138949" lon="10.2368887"><ele>1.0</ele><time>2026-04-29T16:30:28.774Z</time></trkpt><trkpt lat="43.913661" lon="10.237118"><ele>0.5</ele><time>2026-04-29T16:30:29.773Z</time></trkpt><trkpt lat="43.9134287" lon="10.2373456"><ele>0.0</ele><time>2026-04-29T16:30:30.772Z</time></trkpt><trkpt lat="43.913195" lon="10.2375725"><ele>1.0</ele><time>2026-04-29T16:30:31.774Z</time></trkpt><trkpt lat="43.9129614" lon="10.2377993"><ele>2.0</ele><time>2026-04-29T16:30:32.774Z</time></trkpt><trkpt lat="43.9127287" lon="10.2380254"><ele>1.0</ele><time>2026-04-29T16:30:33.773Z</time></trkpt><trkpt lat="43.9124946" lon="10.2382516"><ele>0.0</ele><time>2026-04-29T16:30:34.771Z</time></trkpt><trkpt lat="43.9122629" lon="10.2384776"><ele>0.0</ele><time>2026-04-29T16:30:35.772Z</time></trkpt><trkpt lat="43.9120307" lon="10.2387053"><ele>0.0</ele><time>2026-04-29T16:30:36.773Z</time></trkpt><trkpt lat="43.9117983" lon="10.2389312"><ele>1.0</ele><time>2026-04-29T16:30:37.773Z</time></trkpt><trkpt lat="43.9115645" lon="10.2391543"><ele>2.0</ele><time>2026-04-29T16:30:38.775Z</time></trkpt><trkpt lat="43.9113267" lon="10.2393771"><ele>2.0</ele><time>2026-04-29T16:30:39.775Z</time></trkpt><trkpt lat="43.9110904" lon="10.2396013"><ele>2.0</ele><time>2026-04-29T16:30:40.774Z</time></trkpt><trkpt lat="43.9108556" lon="10.2398274"><ele>1.5</ele><time>2026-04-29T16:30:41.777Z</time></trkpt><trkpt lat="43.9106202" lon="10.2400553"><ele>1.0</ele><time>2026-04-29T16:30:42.773Z</time></trkpt><trkpt lat="43.9103864" lon="10.2402798"><ele>1.0</ele><time>2026-04-29T16:30:43.773Z</time></trkpt><trkpt lat="43.9101538" lon="10.2405039"><ele>1.0</ele><time>2026-04-29T16:30:44.775Z</time></trkpt><trkpt lat="43.9099199" lon="10.240731"><ele>0.5</ele><time>2026-04-29T16:30:45.774Z</time></trkpt><trkpt lat="43.9096862" lon="10.2409582"><ele>0.0</ele><time>2026-04-29T16:30:46.773Z</time></trkpt><trkpt lat="43.9094524" lon="10.2411859"><ele>0.5</ele><time>2026-04-29T16:30:47.772Z</time></trkpt><trkpt lat="43.9092181" lon="10.2414154"><ele>1.0</ele><time>2026-04-29T16:30:48.776Z</time></trkpt><trkpt lat="43.9089846" lon="10.2416468"><ele>1.5</ele><time>2026-04-29T16:30:49.777Z</time></trkpt><trkpt lat="43.9087537" lon="10.2418812"><ele>2.0</ele><time>2026-04-29T16:30:50.774Z</time></trkpt><trkpt lat="43.9085258" lon="10.2421184"><ele>2.0</ele><time>2026-04-29T16:30:51.774Z</time></trkpt><trkpt lat="43.9082995" lon="10.2423584"><ele>2.0</ele><time>2026-04-29T16:30:52.774Z</time></trkpt><trkpt lat="43.9080753" lon="10.242602"><ele>2.0</ele><time>2026-04-29T16:30:53.773Z</time></trkpt><trkpt lat="43.9078521" lon="10.2428503"><ele>2.0</ele><time>2026-04-29T16:30:54.773Z</time></trkpt><trkpt lat="43.9076297" lon="10.2431"><ele>2.0</ele><time>2026-04-29T16:30:55.775Z</time></trkpt><trkpt lat="43.9074072" lon="10.2433506"><ele>2.0</ele><time>2026-04-29T16:30:56.774Z</time></trkpt><trkpt lat="43.9071857" lon="10.2436012"><ele>2.0</ele><time>2026-04-29T16:30:57.773Z</time></trkpt><trkpt lat="43.9069634" lon="10.2438515"><ele>2.0</ele><time>2026-04-29T16:30:58.774Z</time></trkpt><trkpt lat="43.9067409" lon="10.2440994"><ele>1.5</ele><time>2026-04-29T16:30:59.775Z</time></trkpt><trkpt lat="43.9065187" lon="10.2443476"><ele>1.0</ele><time>2026-04-29T16:31:00.773Z</time></trkpt><trkpt lat="43.9062977" lon="10.2445969"><ele>1.0</ele><time>2026-04-29T16:31:01.773Z</time></trkpt><trkpt lat="43.9060775" lon="10.2448474"><ele>1.0</ele><time>2026-04-29T16:31:02.773Z</time></trkpt><trkpt lat="43.9058572" lon="10.2450981"><ele>1.0</ele><time>2026-04-29T16:31:03.775Z</time></trkpt><trkpt lat="43.9056371" lon="10.2453494"><ele>1.0</ele><time>2026-04-29T16:31:04.772Z</time></trkpt><trkpt lat="43.9054169" lon="10.2456002"><ele>1.0</ele><time>2026-04-29T16:31:05.773Z</time></trkpt><trkpt lat="43.9051965" lon="10.2458515"><ele>1.0</ele><time>2026-04-29T16:31:06.773Z</time></trkpt><trkpt lat="43.9049759" lon="10.2461015"><ele>1.0</ele><time>2026-04-29T16:31:07.775Z</time></trkpt><trkpt lat="43.9047551" lon="10.2463521"><ele>1.0</ele><time>2026-04-29T16:31:08.779Z</time></trkpt><trkpt lat="43.9045348" lon="10.2466008"><ele>1.0</ele><time>2026-04-29T16:31:09.773Z</time></trkpt><trkpt lat="43.904314" lon="10.2468491"><ele>1.0</ele><time>2026-04-29T16:31:10.773Z</time></trkpt><trkpt lat="43.9040926" lon="10.2470986"><ele>1.0</ele><time>2026-04-29T16:31:11.774Z</time></trkpt><trkpt lat="43.9038722" lon="10.2473475"><ele>1.0</ele><time>2026-04-29T16:31:12.773Z</time></trkpt><trkpt lat="43.9036512" lon="10.247597"><ele>1.0</ele><time>2026-04-29T16:31:13.773Z</time></trkpt><trkpt lat="43.9034303" lon="10.2478469"><ele>1.0</ele><time>2026-04-29T16:31:14.773Z</time></trkpt><trkpt lat="43.9032095" lon="10.2480974"><ele>2.0</ele><time>2026-04-29T16:31:15.775Z</time></trkpt><trkpt lat="43.9029878" lon="10.2483472"><ele>3.0</ele><time>2026-04-29T16:31:16.773Z</time></trkpt><trkpt lat="43.9027665" lon="10.2485973"><ele>3.0</ele><time>2026-04-29T16:31:17.775Z</time></trkpt><trkpt lat="43.9025455" lon="10.2488478"><ele>3.0</ele><time>2026-04-29T16:31:18.773Z</time></trkpt><trkpt lat="43.9023256" lon="10.2490983"><ele>3.0</ele><time>2026-04-29T16:31:19.771Z</time></trkpt><trkpt lat="43.9021049" lon="10.2493502"><ele>3.0</ele><time>2026-04-29T16:31:20.777Z</time></trkpt><trkpt lat="43.9018847" lon="10.2496021"><ele>3.0</ele><time>2026-04-29T16:31:21.774Z</time></trkpt><trkpt lat="43.9016641" lon="10.2498532"><ele>3.0</ele><time>2026-04-29T16:31:22.776Z</time></trkpt><trkpt lat="43.9014431" lon="10.2501038"><ele>3.0</ele><time>2026-04-29T16:31:23.774Z</time></trkpt><trkpt lat="43.9012215" lon="10.2503533"><ele>3.0</ele><time>2026-04-29T16:31:24.772Z</time></trkpt><trkpt lat="43.901001" lon="10.2506052"><ele>3.5</ele><time>2026-04-29T16:31:25.772Z</time></trkpt><trkpt lat="43.9007818" lon="10.2508582"><ele>4.0</ele><time>2026-04-29T16:31:26.774Z</time></trkpt><trkpt lat="43.9005625" lon="10.2511118"><ele>4.0</ele><time>2026-04-29T16:31:27.774Z</time></trkpt><trkpt lat="43.9003441" lon="10.251366"><ele>4.0</ele><time>2026-04-29T16:31:28.77Z</time></trkpt><trkpt lat="43.9001245" lon="10.2516214"><ele>3.5</ele><time>2026-04-29T16:31:29.774Z</time></trkpt><trkpt lat="43.899906" lon="10.2518773"><ele>3.0</ele><time>2026-04-29T16:31:30.773Z</time></trkpt><trkpt lat="43.8996868" lon="10.2521324"><ele>3.0</ele><time>2026-04-29T16:31:31.774Z</time></trkpt><trkpt lat="43.8994662" lon="10.2523843"><ele>3.0</ele><time>2026-04-29T16:31:32.772Z</time></trkpt><trkpt lat="43.8992446" lon="10.2526358"><ele>3.0</ele><time>2026-04-29T16:31:33.773Z</time></trkpt><trkpt lat="43.8990231" lon="10.2528873"><ele>3.0</ele><time>2026-04-29T16:31:34.773Z</time></trkpt><trkpt lat="43.8988031" lon="10.2531395"><ele>3.0</ele><time>2026-04-29T16:31:35.773Z</time></trkpt><trkpt lat="43.8985828" lon="10.2533916"><ele>3.0</ele><time>2026-04-29T16:31:36.773Z</time></trkpt><trkpt lat="43.8983624" lon="10.2536446"><ele>2.0</ele><time>2026-04-29T16:31:37.773Z</time></trkpt><trkpt lat="43.8981415" lon="10.2538985"><ele>1.0</ele><time>2026-04-29T16:31:38.774Z</time></trkpt><trkpt lat="43.8979215" lon="10.254151"><ele>1.0</ele><time>2026-04-29T16:31:39.775Z</time></trkpt><trkpt lat="43.8977005" lon="10.2544027"><ele>1.0</ele><time>2026-04-29T16:31:40.774Z</time></trkpt><trkpt lat="43.8974787" lon="10.2546527"><ele>0.5</ele><time>2026-04-29T16:31:41.772Z</time></trkpt><trkpt lat="43.8972573" lon="10.2549023"><ele>0.0</ele><time>2026-04-29T16:31:42.774Z</time></trkpt><trkpt lat="43.8970345" lon="10.2551501"><ele>0.0</ele><time>2026-04-29T16:31:43.773Z</time></trkpt><trkpt lat="43.89681" lon="10.2553952"><ele>0.0</ele><time>2026-04-29T16:31:44.775Z</time></trkpt><trkpt lat="43.8965849" lon="10.2556398"><ele>1.0</ele><time>2026-04-29T16:31:45.773Z</time></trkpt><trkpt lat="43.8963605" lon="10.255885"><ele>2.0</ele><time>2026-04-29T16:31:46.773Z</time></trkpt><trkpt lat="43.896128" lon="10.2561309"><ele>1.0</ele><time>2026-04-29T16:31:47.773Z</time></trkpt><trkpt lat="43.8959033" lon="10.2563739"><ele>0.0</ele><time>2026-04-29T16:31:48.773Z</time></trkpt><trkpt lat="43.8956783" lon="10.2566168"><ele>-0.5</ele><time>2026-04-29T16:31:49.774Z</time></trkpt><trkpt lat="43.8954527" lon="10.2568574"><ele>-1.0</ele><time>2026-04-29T16:31:50.773Z</time></trkpt><trkpt lat="43.8952234" lon="10.2570935"><ele>-0.5</ele><time>2026-04-29T16:31:51.773Z</time></trkpt><trkpt lat="43.8949897" lon="10.2573235"><ele>0.0</ele><time>2026-04-29T16:31:52.776Z</time></trkpt><trkpt lat="43.8947542" lon="10.2575479"><ele>0.0</ele><time>2026-04-29T16:31:53.773Z</time></trkpt><trkpt lat="43.8945147" lon="10.2577652"><ele>0.0</ele><time>2026-04-29T16:31:54.776Z</time></trkpt><trkpt lat="43.8942713" lon="10.2579804"><ele>0.0</ele><time>2026-04-29T16:31:55.773Z</time></trkpt><trkpt lat="43.8940272" lon="10.2581912"><ele>0.0</ele><time>2026-04-29T16:31:56.775Z</time></trkpt><trkpt lat="43.893781" lon="10.2583961"><ele>0.0</ele><time>2026-04-29T16:31:57.776Z</time></trkpt><trkpt lat="43.8935327" lon="10.2585941"><ele>0.0</ele><time>2026-04-29T16:31:58.773Z</time></trkpt><trkpt lat="43.8932826" lon="10.2587851"><ele>0.5</ele><time>2026-04-29T16:31:59.772Z</time></trkpt><trkpt lat="43.8930295" lon="10.2589712"><ele>1.0</ele><time>2026-04-29T16:32:00.774Z</time></trkpt><trkpt lat="43.8927745" lon="10.2591555"><ele>0.5</ele><time>2026-04-29T16:32:01.773Z</time></trkpt><trkpt lat="43.8925206" lon="10.2593387"><ele>0.0</ele><time>2026-04-29T16:32:02.775Z</time></trkpt><trkpt lat="43.8922657" lon="10.2595209"><ele>0.0</ele><time>2026-04-29T16:32:03.773Z</time></trkpt><trkpt lat="43.8920127" lon="10.2597047"><ele>0.0</ele><time>2026-04-29T16:32:04.773Z</time></trkpt><trkpt lat="43.8917595" lon="10.25989"><ele>-0.5</ele><time>2026-04-29T16:32:05.774Z</time></trkpt><trkpt lat="43.8915057" lon="10.2600734"><ele>-1.0</ele><time>2026-04-29T16:32:06.773Z</time></trkpt><trkpt lat="43.8912519" lon="10.2602585"><ele>-1.0</ele><time>2026-04-29T16:32:07.773Z</time></trkpt><trkpt lat="43.8909987" lon="10.2604428"><ele>-1.0</ele><time>2026-04-29T16:32:08.773Z</time></trkpt><trkpt lat="43.8907461" lon="10.2606244"><ele>0.0</ele><time>2026-04-29T16:32:09.773Z</time></trkpt><trkpt lat="43.890492" lon="10.2608076"><ele>1.0</ele><time>2026-04-29T16:32:10.773Z</time></trkpt><trkpt lat="43.8902387" lon="10.2609922"><ele>0.0</ele><time>2026-04-29T16:32:11.773Z</time></trkpt><trkpt lat="43.8899847" lon="10.2611769"><ele>-1.0</ele><time>2026-04-29T16:32:12.774Z</time></trkpt><trkpt lat="43.8897318" lon="10.2613619"><ele>-1.0</ele><time>2026-04-29T16:32:13.772Z</time></trkpt><trkpt lat="43.8894787" lon="10.2615468"><ele>-1.0</ele><time>2026-04-29T16:32:14.774Z</time></trkpt><trkpt lat="43.8892247" lon="10.2617307"><ele>-1.0</ele><time>2026-04-29T16:32:15.773Z</time></trkpt><trkpt lat="43.8889715" lon="10.2619133"><ele>-1.0</ele><time>2026-04-29T16:32:16.772Z</time></trkpt><trkpt lat="43.8887182" lon="10.2620967"><ele>-1.0</ele><time>2026-04-29T16:32:17.774Z</time></trkpt><trkpt lat="43.8884646" lon="10.26228"><ele>-1.0</ele><time>2026-04-29T16:32:18.774Z</time></trkpt><trkpt lat="43.8882116" lon="10.2624639"><ele>-1.0</ele><time>2026-04-29T16:32:19.775Z</time></trkpt><trkpt lat="43.8879594" lon="10.2626465"><ele>-1.0</ele><time>2026-04-29T16:32:20.773Z</time></trkpt><trkpt lat="43.8877039" lon="10.2628378"><ele>-1.0</ele><time>2026-04-29T16:32:21.775Z</time></trkpt><trkpt lat="43.8874497" lon="10.2630237"><ele>-1.0</ele><time>2026-04-29T16:32:22.774Z</time></trkpt><trkpt lat="43.8871961" lon="10.2632068"><ele>-1.0</ele><time>2026-04-29T16:32:23.773Z</time></trkpt><trkpt lat="43.8869423" lon="10.2633881"><ele>-1.0</ele><time>2026-04-29T16:32:24.772Z</time></trkpt><trkpt lat="43.8866888" lon="10.26357"><ele>-1.5</ele><time>2026-04-29T16:32:25.773Z</time></trkpt><trkpt lat="43.8864352" lon="10.2637526"><ele>-2.0</ele><time>2026-04-29T16:32:26.775Z</time></trkpt><trkpt lat="43.8861823" lon="10.263936"><ele>-1.5</ele><time>2026-04-29T16:32:27.774Z</time></trkpt><trkpt lat="43.8859292" lon="10.2641202"><ele>-1.0</ele><time>2026-04-29T16:32:28.774Z</time></trkpt><trkpt lat="43.8856756" lon="10.264304"><ele>-0.5</ele><time>2026-04-29T16:32:29.774Z</time></trkpt><trkpt lat="43.8854219" lon="10.2644861"><ele>0.0</ele><time>2026-04-29T16:32:30.772Z</time></trkpt><trkpt lat="43.8851692" lon="10.2646688"><ele>-0.5</ele><time>2026-04-29T16:32:31.772Z</time></trkpt><trkpt lat="43.8849174" lon="10.2648524"><ele>-1.0</ele><time>2026-04-29T16:32:32.772Z</time></trkpt><trkpt lat="43.8846636" lon="10.2650351"><ele>-1.0</ele><time>2026-04-29T16:32:33.773Z</time></trkpt><trkpt lat="43.8844105" lon="10.265218"><ele>-1.0</ele><time>2026-04-29T16:32:34.773Z</time></trkpt><trkpt lat="43.8841565" lon="10.2654003"><ele>-1.0</ele><time>2026-04-29T16:32:35.773Z</time></trkpt><trkpt lat="43.8839033" lon="10.2655845"><ele>-1.0</ele><time>2026-04-29T16:32:36.773Z</time></trkpt><trkpt lat="43.8836493" lon="10.2657674"><ele>-0.5</ele><time>2026-04-29T16:32:37.773Z</time></trkpt><trkpt lat="43.8833954" lon="10.265953"><ele>0.0</ele><time>2026-04-29T16:32:38.773Z</time></trkpt><trkpt lat="43.8831433" lon="10.2661355"><ele>0.0</ele><time>2026-04-29T16:32:39.774Z</time></trkpt><trkpt lat="43.8828905" lon="10.266316"><ele>0.0</ele><time>2026-04-29T16:32:40.777Z</time></trkpt><trkpt lat="43.8826369" lon="10.2664972"><ele>0.5</ele><time>2026-04-29T16:32:41.773Z</time></trkpt><trkpt lat="43.8823824" lon="10.2666785"><ele>1.0</ele><time>2026-04-29T16:32:42.775Z</time></trkpt><trkpt lat="43.8821277" lon="10.2668604"><ele>1.0</ele><time>2026-04-29T16:32:43.773Z</time></trkpt><trkpt lat="43.8818736" lon="10.2670427"><ele>1.0</ele><time>2026-04-29T16:32:44.776Z</time></trkpt><trkpt lat="43.8816189" lon="10.2672241"><ele>0.5</ele><time>2026-04-29T16:32:45.774Z</time></trkpt><trkpt lat="43.8813639" lon="10.2674049"><ele>0.0</ele><time>2026-04-29T16:32:46.775Z</time></trkpt><trkpt lat="43.8811107" lon="10.2675855"><ele>0.5</ele><time>2026-04-29T16:32:47.776Z</time></trkpt><trkpt lat="43.8808584" lon="10.2677705"><ele>1.0</ele><time>2026-04-29T16:32:48.776Z</time></trkpt><trkpt lat="43.8806062" lon="10.2679556"><ele>1.0</ele><time>2026-04-29T16:32:49.774Z</time></trkpt><trkpt lat="43.8803537" lon="10.2681411"><ele>1.0</ele><time>2026-04-29T16:32:50.772Z</time></trkpt><trkpt lat="43.8801007" lon="10.2683249"><ele>1.0</ele><time>2026-04-29T16:32:51.773Z</time></trkpt><trkpt lat="43.8798495" lon="10.2685086"><ele>1.0</ele><time>2026-04-29T16:32:52.774Z</time></trkpt><trkpt lat="43.8795956" lon="10.2686944"><ele>1.0</ele><time>2026-04-29T16:32:53.774Z</time></trkpt><trkpt lat="43.8793425" lon="10.26888"><ele>1.0</ele><time>2026-04-29T16:32:54.775Z</time></trkpt><trkpt lat="43.8790897" lon="10.2690645"><ele>0.0</ele><time>2026-04-29T16:32:55.776Z</time></trkpt><trkpt lat="43.8788374" lon="10.269249"><ele>-1.0</ele><time>2026-04-29T16:32:56.773Z</time></trkpt><trkpt lat="43.878584" lon="10.2694339"><ele>-1.5</ele><time>2026-04-29T16:32:57.774Z</time></trkpt><trkpt lat="43.8783281" lon="10.2696216"><ele>-2.0</ele><time>2026-04-29T16:32:58.774Z</time></trkpt><trkpt lat="43.8780692" lon="10.269814"><ele>-2.0</ele><time>2026-04-29T16:32:59.776Z</time></trkpt><trkpt lat="43.8778096" lon="10.2700074"><ele>-2.0</ele><time>2026-04-29T16:33:00.774Z</time></trkpt><trkpt lat="43.8775491" lon="10.2702014"><ele>-1.5</ele><time>2026-04-29T16:33:01.773Z</time></trkpt><trkpt lat="43.8772906" lon="10.2703944"><ele>-1.0</ele><time>2026-04-29T16:33:02.772Z</time></trkpt><trkpt lat="43.8770291" lon="10.270581"><ele>0.0</ele><time>2026-04-29T16:33:03.773Z</time></trkpt><trkpt lat="43.8767702" lon="10.2707668"><ele>1.0</ele><time>2026-04-29T16:33:04.773Z</time></trkpt><trkpt lat="43.8765093" lon="10.2709516"><ele>1.0</ele><time>2026-04-29T16:33:05.774Z</time></trkpt><trkpt lat="43.8762471" lon="10.2711351"><ele>1.0</ele><time>2026-04-29T16:33:06.774Z</time></trkpt><trkpt lat="43.8759863" lon="10.2713163"><ele>0.0</ele><time>2026-04-29T16:33:07.772Z</time></trkpt><trkpt lat="43.8757254" lon="10.2715022"><ele>-1.0</ele><time>2026-04-29T16:33:08.772Z</time></trkpt><trkpt lat="43.8754659" lon="10.2716885"><ele>-1.0</ele><time>2026-04-29T16:33:09.774Z</time></trkpt><trkpt lat="43.8752067" lon="10.271875"><ele>-1.0</ele><time>2026-04-29T16:33:10.772Z</time></trkpt><trkpt lat="43.8749477" lon="10.2720613"><ele>-1.0</ele><time>2026-04-29T16:33:11.772Z</time></trkpt><trkpt lat="43.8746866" lon="10.2722468"><ele>-1.0</ele><time>2026-04-29T16:33:12.775Z</time></trkpt><trkpt lat="43.874427" lon="10.2724313"><ele>0.0</ele><time>2026-04-29T16:33:13.776Z</time></trkpt><trkpt lat="43.874169" lon="10.2726144"><ele>1.0</ele><time>2026-04-29T16:33:14.773Z</time></trkpt><trkpt lat="43.8739087" lon="10.2728012"><ele>1.0</ele><time>2026-04-29T16:33:15.772Z</time></trkpt><trkpt lat="43.8736487" lon="10.2729884"><ele>1.0</ele><time>2026-04-29T16:33:16.774Z</time></trkpt><trkpt lat="43.8733891" lon="10.2731752"><ele>0.5</ele><time>2026-04-29T16:33:17.771Z</time></trkpt><trkpt lat="43.8731297" lon="10.2733622"><ele>0.0</ele><time>2026-04-29T16:33:18.775Z</time></trkpt><trkpt lat="43.8728703" lon="10.2735516"><ele>0.0</ele><time>2026-04-29T16:33:19.772Z</time></trkpt><trkpt lat="43.8726109" lon="10.2737426"><ele>0.0</ele><time>2026-04-29T16:33:20.774Z</time></trkpt><trkpt lat="43.8723523" lon="10.2739333"><ele>0.5</ele><time>2026-04-29T16:33:21.772Z</time></trkpt><trkpt lat="43.872091" lon="10.2741232"><ele>1.0</ele><time>2026-04-29T16:33:22.772Z</time></trkpt><trkpt lat="43.8718247" lon="10.2743164"><ele>0.5</ele><time>2026-04-29T16:33:23.772Z</time></trkpt><trkpt lat="43.8715526" lon="10.2745126"><ele>0.0</ele><time>2026-04-29T16:33:24.777Z</time></trkpt><trkpt lat="43.8712763" lon="10.2747104"><ele>0.5</ele><time>2026-04-29T16:33:25.775Z</time></trkpt><trkpt lat="43.8709914" lon="10.2749137"><ele>1.0</ele><time>2026-04-29T16:33:26.774Z</time></trkpt><trkpt lat="43.870698" lon="10.2751179"><ele>1.0</ele><time>2026-04-29T16:33:27.773Z</time></trkpt><trkpt lat="43.8703974" lon="10.2753186"><ele>1.0</ele><time>2026-04-29T16:33:28.773Z</time></trkpt><trkpt lat="43.8700911" lon="10.2755184"><ele>1.5</ele><time>2026-04-29T16:33:29.773Z</time></trkpt><trkpt lat="43.8697813" lon="10.2757136"><ele>2.0</ele><time>2026-04-29T16:33:30.774Z</time></trkpt><trkpt lat="43.869469" lon="10.2759024"><ele>0.5</ele><time>2026-04-29T16:33:31.773Z</time></trkpt><trkpt lat="43.8691561" lon="10.276086"><ele>-1.0</ele><time>2026-04-29T16:33:32.774Z</time></trkpt><trkpt lat="43.8688406" lon="10.2762602"><ele>-1.0</ele><time>2026-04-29T16:33:33.773Z</time></trkpt><trkpt lat="43.8685257" lon="10.2764243"><ele>-1.0</ele><time>2026-04-29T16:33:34.773Z</time></trkpt><trkpt lat="43.8682078" lon="10.2765794"><ele>-1.5</ele><time>2026-04-29T16:33:35.775Z</time></trkpt><trkpt lat="43.8678915" lon="10.2767286"><ele>-2.0</ele><time>2026-04-29T16:33:36.772Z</time></trkpt><trkpt lat="43.8675762" lon="10.276879"><ele>-0.5</ele><time>2026-04-29T16:33:37.776Z</time></trkpt><trkpt lat="43.8672609" lon="10.2770312"><ele>1.0</ele><time>2026-04-29T16:33:38.775Z</time></trkpt><trkpt lat="43.8669514" lon="10.2771826"><ele>0.5</ele><time>2026-04-29T16:33:39.773Z</time></trkpt><trkpt lat="43.8666506" lon="10.2773328"><ele>0.0</ele><time>2026-04-29T16:33:40.774Z</time></trkpt><trkpt lat="43.8663553" lon="10.2774797"><ele>0.0</ele><time>2026-04-29T16:33:41.772Z</time></trkpt><trkpt lat="43.866066" lon="10.2776245"><ele>0.0</ele><time>2026-04-29T16:33:42.773Z</time></trkpt><trkpt lat="43.8657806" lon="10.2777678"><ele>0.5</ele><time>2026-04-29T16:33:43.775Z</time></trkpt><trkpt lat="43.8654941" lon="10.2779111"><ele>1.0</ele><time>2026-04-29T16:33:44.771Z</time></trkpt><trkpt lat="43.8652064" lon="10.2780548"><ele>2.5</ele><time>2026-04-29T16:33:45.775Z</time></trkpt><trkpt lat="43.8649163" lon="10.2781977"><ele>4.0</ele><time>2026-04-29T16:33:46.773Z</time></trkpt><trkpt lat="43.8646275" lon="10.2783406"><ele>4.0</ele><time>2026-04-29T16:33:47.773Z</time></trkpt><trkpt lat="43.8643379" lon="10.2784847"><ele>4.0</ele><time>2026-04-29T16:33:48.772Z</time></trkpt><trkpt lat="43.8640478" lon="10.2786283"><ele>3.5</ele><time>2026-04-29T16:33:49.774Z</time></trkpt><trkpt lat="43.8637588" lon="10.2787753"><ele>3.0</ele><time>2026-04-29T16:33:50.777Z</time></trkpt><trkpt lat="43.8634721" lon="10.2789232"><ele>2.0</ele><time>2026-04-29T16:33:51.775Z</time></trkpt><trkpt lat="43.8631855" lon="10.2790723"><ele>1.0</ele><time>2026-04-29T16:33:52.772Z</time></trkpt><trkpt lat="43.8628975" lon="10.2792211"><ele>1.5</ele><time>2026-04-29T16:33:53.772Z</time></trkpt><trkpt lat="43.8626086" lon="10.279371"><ele>2.0</ele><time>2026-04-29T16:33:54.773Z</time></trkpt><trkpt lat="43.8623205" lon="10.2795198"><ele>2.0</ele><time>2026-04-29T16:33:55.775Z</time></trkpt><trkpt lat="43.8620325" lon="10.2796686"><ele>2.0</ele><time>2026-04-29T16:33:56.774Z</time></trkpt><trkpt lat="43.8617439" lon="10.2798162"><ele>2.5</ele><time>2026-04-29T16:33:57.773Z</time></trkpt><trkpt lat="43.8614544" lon="10.2799629"><ele>3.0</ele><time>2026-04-29T16:33:58.774Z</time></trkpt><trkpt lat="43.8611655" lon="10.2801093"><ele>2.5</ele><time>2026-04-29T16:33:59.774Z</time></trkpt><trkpt lat="43.8608761" lon="10.2802554"><ele>2.0</ele><time>2026-04-29T16:34:00.773Z</time></trkpt><trkpt lat="43.8605869" lon="10.2803995"><ele>2.0</ele><time>2026-04-29T16:34:01.775Z</time></trkpt><trkpt lat="43.8602971" lon="10.2805411"><ele>2.0</ele><time>2026-04-29T16:34:02.772Z</time></trkpt><trkpt lat="43.8600078" lon="10.2806811"><ele>1.5</ele><time>2026-04-29T16:34:03.775Z</time></trkpt><trkpt lat="43.8597315" lon="10.2808183"><ele>1.0</ele><time>2026-04-29T16:34:04.773Z</time></trkpt><trkpt lat="43.8594638" lon="10.280953"><ele>1.5</ele><time>2026-04-29T16:34:05.772Z</time></trkpt><trkpt lat="43.8592063" lon="10.281084"><ele>2.0</ele><time>2026-04-29T16:34:06.774Z</time></trkpt><trkpt lat="43.8589485" lon="10.2812151"><ele>2.0</ele><time>2026-04-29T16:34:07.772Z</time></trkpt><trkpt lat="43.8586912" lon="10.2813462"><ele>2.0</ele><time>2026-04-29T16:34:08.772Z</time></trkpt><trkpt lat="43.8584331" lon="10.2814799"><ele>1.5</ele><time>2026-04-29T16:34:09.775Z</time></trkpt><trkpt lat="43.8581737" lon="10.2816161"><ele>1.0</ele><time>2026-04-29T16:34:10.776Z</time></trkpt><trkpt lat="43.8579165" lon="10.2817533"><ele>1.0</ele><time>2026-04-29T16:34:11.774Z</time></trkpt><trkpt lat="43.8576687" lon="10.2818907"><ele>1.0</ele><time>2026-04-29T16:34:12.774Z</time></trkpt><trkpt lat="43.8574283" lon="10.2820257"><ele>0.0</ele><time>2026-04-29T16:34:13.772Z</time></trkpt><trkpt lat="43.8571907" lon="10.2821614"><ele>-1.0</ele><time>2026-04-29T16:34:14.774Z</time></trkpt><trkpt lat="43.8569511" lon="10.2823012"><ele>-0.5</ele><time>2026-04-29T16:34:15.775Z</time></trkpt><trkpt lat="43.8567067" lon="10.2824468"><ele>0.0</ele><time>2026-04-29T16:34:16.776Z</time></trkpt><trkpt lat="43.8564606" lon="10.2825969"><ele>0.0</ele><time>2026-04-29T16:34:17.777Z</time></trkpt><trkpt lat="43.8562137" lon="10.2827544"><ele>0.0</ele><time>2026-04-29T16:34:18.776Z</time></trkpt><trkpt lat="43.8559627" lon="10.282909"><ele>-0.5</ele><time>2026-04-29T16:34:19.773Z</time></trkpt><trkpt lat="43.85571" lon="10.2830657"><ele>-1.0</ele><time>2026-04-29T16:34:20.773Z</time></trkpt><trkpt lat="43.8554577" lon="10.2832192"><ele>-0.5</ele><time>2026-04-29T16:34:21.774Z</time></trkpt><trkpt lat="43.8552034" lon="10.283374"><ele>0.0</ele><time>2026-04-29T16:34:22.774Z</time></trkpt><trkpt lat="43.8549498" lon="10.2835305"><ele>0.0</ele><time>2026-04-29T16:34:23.774Z</time></trkpt><trkpt lat="43.8546926" lon="10.2836875"><ele>0.0</ele><time>2026-04-29T16:34:24.775Z</time></trkpt><trkpt lat="43.8544336" lon="10.2838478"><ele>0.0</ele><time>2026-04-29T16:34:25.773Z</time></trkpt><trkpt lat="43.8541698" lon="10.284009"><ele>0.0</ele><time>2026-04-29T16:34:26.773Z</time></trkpt><trkpt lat="43.8539038" lon="10.2841705"><ele>0.0</ele><time>2026-04-29T16:34:27.776Z</time></trkpt><trkpt lat="43.8536368" lon="10.2843319"><ele>0.0</ele><time>2026-04-29T16:34:28.776Z</time></trkpt><trkpt lat="43.8533691" lon="10.2844969"><ele>-0.5</ele><time>2026-04-29T16:34:29.775Z</time></trkpt><trkpt lat="43.8530986" lon="10.2846616"><ele>-1.0</ele><time>2026-04-29T16:34:30.774Z</time></trkpt><trkpt lat="43.852827" lon="10.2848251"><ele>-1.0</ele><time>2026-04-29T16:34:31.773Z</time></trkpt><trkpt lat="43.8525545" lon="10.284989"><ele>-1.0</ele><time>2026-04-29T16:34:32.773Z</time></trkpt><trkpt lat="43.852283" lon="10.2851533"><ele>-1.0</ele><time>2026-04-29T16:34:33.773Z</time></trkpt><trkpt lat="43.8520107" lon="10.2853169"><ele>-1.0</ele><time>2026-04-29T16:34:34.774Z</time></trkpt><trkpt lat="43.851737" lon="10.2854825"><ele>-0.5</ele><time>2026-04-29T16:34:35.773Z</time></trkpt><trkpt lat="43.8514653" lon="10.2856478"><ele>0.0</ele><time>2026-04-29T16:34:36.774Z</time></trkpt><trkpt lat="43.8511942" lon="10.2858136"><ele>0.0</ele><time>2026-04-29T16:34:37.772Z</time></trkpt><trkpt lat="43.8509234" lon="10.2859791"><ele>0.0</ele><time>2026-04-29T16:34:38.773Z</time></trkpt><trkpt lat="43.8506543" lon="10.2861451"><ele>0.0</ele><time>2026-04-29T16:34:39.773Z</time></trkpt><trkpt lat="43.8503858" lon="10.2863111"><ele>0.0</ele><time>2026-04-29T16:34:40.772Z</time></trkpt><trkpt lat="43.8501199" lon="10.2864758"><ele>-0.5</ele><time>2026-04-29T16:34:41.773Z</time></trkpt><trkpt lat="43.849854" lon="10.2866386"><ele>-1.0</ele><time>2026-04-29T16:34:42.775Z</time></trkpt><trkpt lat="43.8495877" lon="10.2868001"><ele>-1.0</ele><time>2026-04-29T16:34:43.774Z</time></trkpt><trkpt lat="43.8493197" lon="10.2869604"><ele>-1.0</ele><time>2026-04-29T16:34:44.773Z</time></trkpt><trkpt lat="43.8490585" lon="10.2871236"><ele>-0.5</ele><time>2026-04-29T16:34:45.773Z</time></trkpt><trkpt lat="43.8487945" lon="10.2872866"><ele>0.0</ele><time>2026-04-29T16:34:46.774Z</time></trkpt><trkpt lat="43.8485316" lon="10.2874492"><ele>0.0</ele><time>2026-04-29T16:34:47.774Z</time></trkpt><trkpt lat="43.8482683" lon="10.2876119"><ele>0.0</ele><time>2026-04-29T16:34:48.773Z</time></trkpt><trkpt lat="43.8480047" lon="10.2877728"><ele>0.0</ele><time>2026-04-29T16:34:49.774Z</time></trkpt><trkpt lat="43.8477413" lon="10.2879309"><ele>0.0</ele><time>2026-04-29T16:34:50.773Z</time></trkpt><trkpt lat="43.8474751" lon="10.2880851"><ele>-0.5</ele><time>2026-04-29T16:34:51.774Z</time></trkpt><trkpt lat="43.8472106" lon="10.2882387"><ele>-1.0</ele><time>2026-04-29T16:34:52.772Z</time></trkpt><trkpt lat="43.8469457" lon="10.2883939"><ele>-1.0</ele><time>2026-04-29T16:34:53.772Z</time></trkpt><trkpt lat="43.846677" lon="10.2885517"><ele>-1.0</ele><time>2026-04-29T16:34:54.775Z</time></trkpt><trkpt lat="43.8464096" lon="10.2887116"><ele>-1.0</ele><time>2026-04-29T16:34:55.774Z</time></trkpt><trkpt lat="43.8461416" lon="10.2888732"><ele>-1.0</ele><time>2026-04-29T16:34:56.773Z</time></trkpt><trkpt lat="43.8458705" lon="10.2890377"><ele>-0.5</ele><time>2026-04-29T16:34:57.774Z</time></trkpt><trkpt lat="43.8456012" lon="10.2892026"><ele>0.0</ele><time>2026-04-29T16:34:58.772Z</time></trkpt><trkpt lat="43.8453312" lon="10.2893654"><ele>0.0</ele><time>2026-04-29T16:34:59.773Z</time></trkpt><trkpt lat="43.8450633" lon="10.2895296"><ele>0.0</ele><time>2026-04-29T16:35:00.775Z</time></trkpt><trkpt lat="43.8447961" lon="10.2896938"><ele>0.0</ele><time>2026-04-29T16:35:01.776Z</time></trkpt><trkpt lat="43.8445313" lon="10.2898608"><ele>0.0</ele><time>2026-04-29T16:35:02.773Z</time></trkpt><trkpt lat="43.8442678" lon="10.290027"><ele>-0.5</ele><time>2026-04-29T16:35:03.773Z</time></trkpt><trkpt lat="43.8440046" lon="10.2901957"><ele>-1.0</ele><time>2026-04-29T16:35:04.774Z</time></trkpt><trkpt lat="43.8437422" lon="10.2903673"><ele>-1.0</ele><time>2026-04-29T16:35:05.773Z</time></trkpt><trkpt lat="43.8434808" lon="10.2905416"><ele>-1.0</ele><time>2026-04-29T16:35:06.774Z</time></trkpt><trkpt lat="43.8432197" lon="10.2907198"><ele>0.0</ele><time>2026-04-29T16:35:07.773Z</time></trkpt><trkpt lat="43.8429594" lon="10.2909015"><ele>1.0</ele><time>2026-04-29T16:35:08.774Z</time></trkpt><trkpt lat="43.8426992" lon="10.2910864"><ele>0.0</ele><time>2026-04-29T16:35:09.774Z</time></trkpt><trkpt lat="43.8424399" lon="10.2912765"><ele>-1.0</ele><time>2026-04-29T16:35:10.773Z</time></trkpt><trkpt lat="43.8421813" lon="10.2914693"><ele>-1.0</ele><time>2026-04-29T16:35:11.775Z</time></trkpt><trkpt lat="43.841923" lon="10.2916625"><ele>-1.0</ele><time>2026-04-29T16:35:12.776Z</time></trkpt><trkpt lat="43.8416644" lon="10.2918552"><ele>-0.5</ele><time>2026-04-29T16:35:13.776Z</time></trkpt><trkpt lat="43.8414041" lon="10.2920488"><ele>0.0</ele><time>2026-04-29T16:35:14.775Z</time></trkpt><trkpt lat="43.8411433" lon="10.2922413"><ele>0.0</ele><time>2026-04-29T16:35:15.774Z</time></trkpt><trkpt lat="43.8408817" lon="10.2924346"><ele>0.0</ele><time>2026-04-29T16:35:16.773Z</time></trkpt><trkpt lat="43.8406195" lon="10.2926313"><ele>0.0</ele><time>2026-04-29T16:35:17.772Z</time></trkpt><trkpt lat="43.8403569" lon="10.2928293"><ele>0.0</ele><time>2026-04-29T16:35:18.773Z</time></trkpt><trkpt lat="43.8400952" lon="10.2930274"><ele>0.5</ele><time>2026-04-29T16:35:19.774Z</time></trkpt><trkpt lat="43.8398347" lon="10.2932249"><ele>1.0</ele><time>2026-04-29T16:35:20.775Z</time></trkpt><trkpt lat="43.8395763" lon="10.2934214"><ele>1.0</ele><time>2026-04-29T16:35:21.772Z</time></trkpt><trkpt lat="43.8393188" lon="10.2936164"><ele>1.0</ele><time>2026-04-29T16:35:22.772Z</time></trkpt><trkpt lat="43.8390617" lon="10.2938111"><ele>0.0</ele><time>2026-04-29T16:35:23.773Z</time></trkpt><trkpt lat="43.8388053" lon="10.2940042"><ele>-1.0</ele><time>2026-04-29T16:35:24.772Z</time></trkpt><trkpt lat="43.8385475" lon="10.294196"><ele>0.0</ele><time>2026-04-29T16:35:25.775Z</time></trkpt><trkpt lat="43.8382894" lon="10.294387"><ele>1.0</ele><time>2026-04-29T16:35:26.777Z</time></trkpt><trkpt lat="43.8380326" lon="10.294578"><ele>1.0</ele><time>2026-04-29T16:35:27.777Z</time></trkpt><trkpt lat="43.8377784" lon="10.2947692"><ele>1.0</ele><time>2026-04-29T16:35:28.774Z</time></trkpt><trkpt lat="43.8375244" lon="10.2949617"><ele>1.0</ele><time>2026-04-29T16:35:29.773Z</time></trkpt><trkpt lat="43.8372714" lon="10.2951531"><ele>1.0</ele><time>2026-04-29T16:35:30.773Z</time></trkpt><trkpt lat="43.8370267" lon="10.2953373"><ele>1.5</ele><time>2026-04-29T16:35:31.773Z</time></trkpt><trkpt lat="43.8367898" lon="10.2955165"><ele>2.0</ele><time>2026-04-29T16:35:32.774Z</time></trkpt><trkpt lat="43.8365553" lon="10.2956946"><ele>2.0</ele><time>2026-04-29T16:35:33.774Z</time></trkpt><trkpt lat="43.8363225" lon="10.2958711"><ele>2.0</ele><time>2026-04-29T16:35:34.774Z</time></trkpt><trkpt lat="43.8360925" lon="10.2960435"><ele>2.0</ele><time>2026-04-29T16:35:35.774Z</time></trkpt><trkpt lat="43.8358649" lon="10.2962158"><ele>2.0</ele><time>2026-04-29T16:35:36.773Z</time></trkpt><trkpt lat="43.8356391" lon="10.2963923"><ele>2.0</ele><time>2026-04-29T16:35:37.772Z</time></trkpt><trkpt lat="43.8354136" lon="10.2965729"><ele>2.0</ele><time>2026-04-29T16:35:38.771Z</time></trkpt><trkpt lat="43.8351895" lon="10.2967532"><ele>1.0</ele><time>2026-04-29T16:35:39.775Z</time></trkpt><trkpt lat="43.8349619" lon="10.2969322"><ele>0.0</ele><time>2026-04-29T16:35:40.774Z</time></trkpt><trkpt lat="43.8347316" lon="10.297107"><ele>0.5</ele><time>2026-04-29T16:35:41.774Z</time></trkpt><trkpt lat="43.8344975" lon="10.2972808"><ele>1.0</ele><time>2026-04-29T16:35:42.774Z</time></trkpt><trkpt lat="43.8342608" lon="10.2974547"><ele>1.5</ele><time>2026-04-29T16:35:43.774Z</time></trkpt><trkpt lat="43.8340233" lon="10.2976325"><ele>2.0</ele><time>2026-04-29T16:35:44.773Z</time></trkpt><trkpt lat="43.8337878" lon="10.2978129"><ele>2.0</ele><time>2026-04-29T16:35:45.777Z</time></trkpt><trkpt lat="43.8335516" lon="10.2979951"><ele>2.0</ele><time>2026-04-29T16:35:46.773Z</time></trkpt><trkpt lat="43.8333178" lon="10.2981737"><ele>2.0</ele><time>2026-04-29T16:35:47.773Z</time></trkpt><trkpt lat="43.833082" lon="10.2983528"><ele>2.0</ele><time>2026-04-29T16:35:48.773Z</time></trkpt><trkpt lat="43.8328415" lon="10.2985325"><ele>2.5</ele><time>2026-04-29T16:35:49.774Z</time></trkpt><trkpt lat="43.832596" lon="10.2987157"><ele>3.0</ele><time>2026-04-29T16:35:50.772Z</time></trkpt><trkpt lat="43.8323456" lon="10.2989009"><ele>2.0</ele><time>2026-04-29T16:35:51.772Z</time></trkpt><trkpt lat="43.8320906" lon="10.2990894"><ele>1.0</ele><time>2026-04-29T16:35:52.772Z</time></trkpt><trkpt lat="43.8318314" lon="10.2992839"><ele>1.0</ele><time>2026-04-29T16:35:53.772Z</time></trkpt><trkpt lat="43.8315674" lon="10.2994826"><ele>1.0</ele><time>2026-04-29T16:35:54.773Z</time></trkpt><trkpt lat="43.8313017" lon="10.2996836"><ele>0.5</ele><time>2026-04-29T16:35:55.773Z</time></trkpt><trkpt lat="43.8310382" lon="10.2998841"><ele>0.0</ele><time>2026-04-29T16:35:56.772Z</time></trkpt><trkpt lat="43.830772" lon="10.3000811"><ele>1.0</ele><time>2026-04-29T16:35:57.773Z</time></trkpt><trkpt lat="43.8304989" lon="10.3002715"><ele>2.0</ele><time>2026-04-29T16:35:58.774Z</time></trkpt><trkpt lat="43.8302234" lon="10.3004616"><ele>2.5</ele><time>2026-04-29T16:35:59.776Z</time></trkpt><trkpt lat="43.8299495" lon="10.300657"><ele>3.0</ele><time>2026-04-29T16:36:00.772Z</time></trkpt><trkpt lat="43.8296768" lon="10.3008549"><ele>3.0</ele><time>2026-04-29T16:36:01.771Z</time></trkpt><trkpt lat="43.8294075" lon="10.3010555"><ele>3.0</ele><time>2026-04-29T16:36:02.773Z</time></trkpt><trkpt lat="43.8291381" lon="10.3012571"><ele>3.0</ele><time>2026-04-29T16:36:03.773Z</time></trkpt><trkpt lat="43.828869" lon="10.3014588"><ele>3.0</ele><time>2026-04-29T16:36:04.774Z</time></trkpt><trkpt lat="43.8285989" lon="10.3016617"><ele>2.5</ele><time>2026-04-29T16:36:05.774Z</time></trkpt><trkpt lat="43.8283288" lon="10.3018661"><ele>2.0</ele><time>2026-04-29T16:36:06.774Z</time></trkpt><trkpt lat="43.8280591" lon="10.3020682"><ele>2.0</ele><time>2026-04-29T16:36:07.776Z</time></trkpt><trkpt lat="43.827789" lon="10.3022705"><ele>2.0</ele><time>2026-04-29T16:36:08.774Z</time></trkpt><trkpt lat="43.8275184" lon="10.302473"><ele>2.0</ele><time>2026-04-29T16:36:09.776Z</time></trkpt><trkpt lat="43.8272486" lon="10.3026748"><ele>2.0</ele><time>2026-04-29T16:36:10.773Z</time></trkpt><trkpt lat="43.826979" lon="10.3028766"><ele>2.5</ele><time>2026-04-29T16:36:11.774Z</time></trkpt><trkpt lat="43.8267082" lon="10.3030787"><ele>3.0</ele><time>2026-04-29T16:36:12.773Z</time></trkpt><trkpt lat="43.826438" lon="10.3032826"><ele>3.0</ele><time>2026-04-29T16:36:13.778Z</time></trkpt><trkpt lat="43.8261685" lon="10.303487"><ele>3.0</ele><time>2026-04-29T16:36:14.774Z</time></trkpt><trkpt lat="43.8258989" lon="10.3036908"><ele>2.5</ele><time>2026-04-29T16:36:15.777Z</time></trkpt><trkpt lat="43.825629" lon="10.3038946"><ele>2.0</ele><time>2026-04-29T16:36:16.772Z</time></trkpt><trkpt lat="43.8253581" lon="10.3040977"><ele>2.5</ele><time>2026-04-29T16:36:17.774Z</time></trkpt><trkpt lat="43.8250874" lon="10.3042996"><ele>3.0</ele><time>2026-04-29T16:36:18.774Z</time></trkpt><trkpt lat="43.8248171" lon="10.3045007"><ele>3.0</ele><time>2026-04-29T16:36:19.774Z</time></trkpt><trkpt lat="43.8245468" lon="10.3047033"><ele>3.0</ele><time>2026-04-29T16:36:20.773Z</time></trkpt><trkpt lat="43.8242782" lon="10.3049068"><ele>3.5</ele><time>2026-04-29T16:36:21.773Z</time></trkpt><trkpt lat="43.8240107" lon="10.3051121"><ele>4.0</ele><time>2026-04-29T16:36:22.774Z</time></trkpt><trkpt lat="43.8237439" lon="10.3053195"><ele>3.5</ele><time>2026-04-29T16:36:23.773Z</time></trkpt><trkpt lat="43.8234777" lon="10.3055289"><ele>3.0</ele><time>2026-04-29T16:36:24.772Z</time></trkpt><trkpt lat="43.8232117" lon="10.3057372"><ele>5.0</ele><time>2026-04-29T16:36:25.773Z</time></trkpt><trkpt lat="43.8229525" lon="10.3059366"><ele>7.0</ele><time>2026-04-29T16:36:26.772Z</time></trkpt><trkpt lat="43.8227001" lon="10.3061279"><ele>8.5</ele><time>2026-04-29T16:36:27.772Z</time></trkpt><trkpt lat="43.8224447" lon="10.3063195"><ele>10.0</ele><time>2026-04-29T16:36:28.773Z</time></trkpt><trkpt lat="43.8221941" lon="10.3065087"><ele>10.5</ele><time>2026-04-29T16:36:29.773Z</time></trkpt><trkpt lat="43.8219552" lon="10.306691"><ele>11.0</ele><time>2026-04-29T16:36:30.773Z</time></trkpt><trkpt lat="43.821712" lon="10.3068746"><ele>10.0</ele><time>2026-04-29T16:36:31.773Z</time></trkpt><trkpt lat="43.8214689" lon="10.3070603"><ele>9.0</ele><time>2026-04-29T16:36:32.773Z</time></trkpt><trkpt lat="43.821226" lon="10.3072449"><ele>8.5</ele><time>2026-04-29T16:36:33.773Z</time></trkpt><trkpt lat="43.8209797" lon="10.3074295"><ele>8.0</ele><time>2026-04-29T16:36:34.774Z</time></trkpt><trkpt lat="43.8207306" lon="10.3076167"><ele>8.0</ele><time>2026-04-29T16:36:35.775Z</time></trkpt><trkpt lat="43.8204785" lon="10.3078068"><ele>8.0</ele><time>2026-04-29T16:36:36.773Z</time></trkpt><trkpt lat="43.8202268" lon="10.3079968"><ele>7.5</ele><time>2026-04-29T16:36:37.774Z</time></trkpt><trkpt lat="43.8199677" lon="10.3081919"><ele>7.0</ele><time>2026-04-29T16:36:38.774Z</time></trkpt><trkpt lat="43.8197028" lon="10.3083913"><ele>7.0</ele><time>2026-04-29T16:36:39.772Z</time></trkpt><trkpt lat="43.8194353" lon="10.3085925"><ele>7.0</ele><time>2026-04-29T16:36:40.774Z</time></trkpt><trkpt lat="43.8191614" lon="10.3087951"><ele>7.0</ele><time>2026-04-29T16:36:41.771Z</time></trkpt><trkpt lat="43.8188868" lon="10.3089901"><ele>7.0</ele><time>2026-04-29T16:36:42.773Z</time></trkpt><trkpt lat="43.818613" lon="10.3091875"><ele>7.0</ele><time>2026-04-29T16:36:43.774Z</time></trkpt><trkpt lat="43.8183418" lon="10.309385"><ele>7.0</ele><time>2026-04-29T16:36:44.773Z</time></trkpt><trkpt lat="43.8180718" lon="10.3095851"><ele>8.0</ele><time>2026-04-29T16:36:45.774Z</time></trkpt><trkpt lat="43.8178014" lon="10.3097892"><ele>9.0</ele><time>2026-04-29T16:36:46.772Z</time></trkpt><trkpt lat="43.8175403" lon="10.3099868"><ele>9.0</ele><time>2026-04-29T16:36:47.773Z</time></trkpt><trkpt lat="43.8172856" lon="10.3101762"><ele>9.0</ele><time>2026-04-29T16:36:48.775Z</time></trkpt><trkpt lat="43.8170315" lon="10.3103624"><ele>8.5</ele><time>2026-04-29T16:36:49.772Z</time></trkpt><trkpt lat="43.8167819" lon="10.3105448"><ele>8.0</ele><time>2026-04-29T16:36:50.773Z</time></trkpt><trkpt lat="43.8165344" lon="10.3107238"><ele>8.0</ele><time>2026-04-29T16:36:51.774Z</time></trkpt><trkpt lat="43.8162877" lon="10.3108974"><ele>8.0</ele><time>2026-04-29T16:36:52.774Z</time></trkpt><trkpt lat="43.8160407" lon="10.311066"><ele>9.5</ele><time>2026-04-29T16:36:53.772Z</time></trkpt><trkpt lat="43.8157939" lon="10.3112314"><ele>11.0</ele><time>2026-04-29T16:36:54.775Z</time></trkpt><trkpt lat="43.8155464" lon="10.3113971"><ele>9.5</ele><time>2026-04-29T16:36:55.771Z</time></trkpt><trkpt lat="43.8152965" lon="10.3115625"><ele>8.0</ele><time>2026-04-29T16:36:56.773Z</time></trkpt><trkpt lat="43.8150416" lon="10.3117272"><ele>8.0</ele><time>2026-04-29T16:36:57.773Z</time></trkpt><trkpt lat="43.8147833" lon="10.3118945"><ele>8.0</ele><time>2026-04-29T16:36:58.774Z</time></trkpt><trkpt lat="43.814522" lon="10.3120606"><ele>8.0</ele><time>2026-04-29T16:36:59.773Z</time></trkpt><trkpt lat="43.8142561" lon="10.3122241"><ele>8.0</ele><time>2026-04-29T16:37:00.771Z</time></trkpt><trkpt lat="43.8139854" lon="10.3123859"><ele>7.0</ele><time>2026-04-29T16:37:01.773Z</time></trkpt><trkpt lat="43.8137109" lon="10.3125471"><ele>6.0</ele><time>2026-04-29T16:37:02.773Z</time></trkpt><trkpt lat="43.8134334" lon="10.3127073"><ele>5.5</ele><time>2026-04-29T16:37:03.772Z</time></trkpt><trkpt lat="43.813153" lon="10.3128649"><ele>5.0</ele><time>2026-04-29T16:37:04.772Z</time></trkpt><trkpt lat="43.8128688" lon="10.3130194"><ele>3.5</ele><time>2026-04-29T16:37:05.773Z</time></trkpt><trkpt lat="43.8125828" lon="10.3131712"><ele>2.0</ele><time>2026-04-29T16:37:06.774Z</time></trkpt><trkpt lat="43.812294" lon="10.3133207"><ele>2.0</ele><time>2026-04-29T16:37:07.772Z</time></trkpt><trkpt lat="43.8120021" lon="10.313468"><ele>2.0</ele><time>2026-04-29T16:37:08.774Z</time></trkpt><trkpt lat="43.8117079" lon="10.3136128"><ele>5.0</ele><time>2026-04-29T16:37:09.775Z</time></trkpt><trkpt lat="43.8114158" lon="10.3137511"><ele>8.0</ele><time>2026-04-29T16:37:10.773Z</time></trkpt><trkpt lat="43.8111243" lon="10.313886"><ele>6.5</ele><time>2026-04-29T16:37:11.773Z</time></trkpt><trkpt lat="43.8108336" lon="10.3140162"><ele>5.0</ele><time>2026-04-29T16:37:12.772Z</time></trkpt><trkpt lat="43.8105452" lon="10.3141428"><ele>5.0</ele><time>2026-04-29T16:37:13.776Z</time></trkpt><trkpt lat="43.8102588" lon="10.3142649"><ele>5.0</ele><time>2026-04-29T16:37:14.774Z</time></trkpt><trkpt lat="43.8099728" lon="10.3143817"><ele>8.0</ele><time>2026-04-29T16:37:15.774Z</time></trkpt><trkpt lat="43.8096921" lon="10.3144939"><ele>11.0</ele><time>2026-04-29T16:37:16.772Z</time></trkpt><trkpt lat="43.8094221" lon="10.3145979"><ele>12.5</ele><time>2026-04-29T16:37:17.772Z</time></trkpt><trkpt lat="43.8091553" lon="10.314698"><ele>14.0</ele><time>2026-04-29T16:37:18.771Z</time></trkpt><trkpt lat="43.8088923" lon="10.3147973"><ele>10.0</ele><time>2026-04-29T16:37:19.773Z</time></trkpt><trkpt lat="43.8086304" lon="10.3148993"><ele>6.0</ele><time>2026-04-29T16:37:20.773Z</time></trkpt><trkpt lat="43.8083715" lon="10.315002"><ele>6.0</ele><time>2026-04-29T16:37:21.773Z</time></trkpt><trkpt lat="43.8081117" lon="10.3151036"><ele>6.0</ele><time>2026-04-29T16:37:22.771Z</time></trkpt><trkpt lat="43.8078485" lon="10.3152043"><ele>8.0</ele><time>2026-04-29T16:37:23.772Z</time></trkpt><trkpt lat="43.8075829" lon="10.3153055"><ele>10.0</ele><time>2026-04-29T16:37:24.772Z</time></trkpt><trkpt lat="43.8073135" lon="10.3154072"><ele>10.0</ele><time>2026-04-29T16:37:25.771Z</time></trkpt><trkpt lat="43.8070412" lon="10.3155089"><ele>10.0</ele><time>2026-04-29T16:37:26.774Z</time></trkpt><trkpt lat="43.8067636" lon="10.3156144"><ele>7.5</ele><time>2026-04-29T16:37:27.773Z</time></trkpt><trkpt lat="43.8064821" lon="10.3157209"><ele>5.0</ele><time>2026-04-29T16:37:28.773Z</time></trkpt><trkpt lat="43.8061976" lon="10.315828"><ele>5.0</ele><time>2026-04-29T16:37:29.772Z</time></trkpt><trkpt lat="43.8059094" lon="10.3159369"><ele>5.0</ele><time>2026-04-29T16:37:30.771Z</time></trkpt><trkpt lat="43.8056184" lon="10.3160472"><ele>5.0</ele><time>2026-04-29T16:37:31.771Z</time></trkpt><trkpt lat="43.8053254" lon="10.3161593"><ele>5.0</ele><time>2026-04-29T16:37:32.772Z</time></trkpt><trkpt lat="43.8050312" lon="10.3162744"><ele>4.5</ele><time>2026-04-29T16:37:33.771Z</time></trkpt><trkpt lat="43.8047347" lon="10.3163913"><ele>4.0</ele><time>2026-04-29T16:37:34.774Z</time></trkpt><trkpt lat="43.8044382" lon="10.3165047"><ele>4.0</ele><time>2026-04-29T16:37:35.773Z</time></trkpt><trkpt lat="43.804142" lon="10.3166158"><ele>4.0</ele><time>2026-04-29T16:37:36.772Z</time></trkpt><trkpt lat="43.8038462" lon="10.3167258"><ele>4.0</ele><time>2026-04-29T16:37:37.772Z</time></trkpt><trkpt lat="43.80355" lon="10.3168354"><ele>4.0</ele><time>2026-04-29T16:37:38.771Z</time></trkpt><trkpt lat="43.8032537" lon="10.316947"><ele>4.5</ele><time>2026-04-29T16:37:39.771Z</time></trkpt><trkpt lat="43.8029555" lon="10.317064"><ele>5.0</ele><time>2026-04-29T16:37:40.774Z</time></trkpt><trkpt lat="43.8026597" lon="10.3171751"><ele>3.0</ele><time>2026-04-29T16:37:41.773Z</time></trkpt><trkpt lat="43.8023625" lon="10.3172927"><ele>1.0</ele><time>2026-04-29T16:37:42.773Z</time></trkpt><trkpt lat="43.8020665" lon="10.3174111"><ele>2.0</ele><time>2026-04-29T16:37:43.771Z</time></trkpt><trkpt lat="43.8017706" lon="10.3175288"><ele>3.0</ele><time>2026-04-29T16:37:44.772Z</time></trkpt><trkpt lat="43.8014733" lon="10.3176445"><ele>3.0</ele><time>2026-04-29T16:37:45.772Z</time></trkpt><trkpt lat="43.8011751" lon="10.3177598"><ele>3.0</ele><time>2026-04-29T16:37:46.781Z</time></trkpt><trkpt lat="43.8008772" lon="10.3178741"><ele>4.5</ele><time>2026-04-29T16:37:47.772Z</time></trkpt><trkpt lat="43.8005788" lon="10.317986"><ele>6.0</ele><time>2026-04-29T16:37:48.771Z</time></trkpt><trkpt lat="43.8002791" lon="10.3180974"><ele>3.0</ele><time>2026-04-29T16:37:49.771Z</time></trkpt><trkpt lat="43.7999798" lon="10.3182104"><ele>0.0</ele><time>2026-04-29T16:37:50.771Z</time></trkpt><trkpt lat="43.79968" lon="10.3183239"><ele>0.0</ele><time>2026-04-29T16:37:51.77Z</time></trkpt><trkpt lat="43.7993805" lon="10.3184375"><ele>0.0</ele><time>2026-04-29T16:37:52.771Z</time></trkpt><trkpt lat="43.7990807" lon="10.3185503"><ele>2.5</ele><time>2026-04-29T16:37:53.771Z</time></trkpt><trkpt lat="43.7987807" lon="10.3186643"><ele>5.0</ele><time>2026-04-29T16:37:54.772Z</time></trkpt><trkpt lat="43.7984812" lon="10.318781"><ele>6.0</ele><time>2026-04-29T16:37:55.773Z</time></trkpt><trkpt lat="43.7981831" lon="10.3188972"><ele>7.0</ele><time>2026-04-29T16:37:56.773Z</time></trkpt><trkpt lat="43.797887" lon="10.3190109"><ele>5.0</ele><time>2026-04-29T16:37:57.771Z</time></trkpt><trkpt lat="43.797594" lon="10.3191226"><ele>3.0</ele><time>2026-04-29T16:37:58.771Z</time></trkpt><trkpt lat="43.7973024" lon="10.3192315"><ele>3.0</ele><time>2026-04-29T16:37:59.774Z</time></trkpt><trkpt lat="43.7970125" lon="10.3193398"><ele>3.0</ele><time>2026-04-29T16:38:00.773Z</time></trkpt><trkpt lat="43.796725" lon="10.319447"><ele>3.5</ele><time>2026-04-29T16:38:01.774Z</time></trkpt><trkpt lat="43.7964387" lon="10.3195548"><ele>4.0</ele><time>2026-04-29T16:38:02.772Z</time></trkpt><trkpt lat="43.7961542" lon="10.3196636"><ele>1.0</ele><time>2026-04-29T16:38:03.771Z</time></trkpt><trkpt lat="43.7958715" lon="10.3197741"><ele>-2.0</ele><time>2026-04-29T16:38:04.771Z</time></trkpt><trkpt lat="43.7955892" lon="10.3198846"><ele>-2.0</ele><time>2026-04-29T16:38:05.772Z</time></trkpt><trkpt lat="43.7953079" lon="10.3199934"><ele>-2.0</ele><time>2026-04-29T16:38:06.772Z</time></trkpt><trkpt lat="43.7950287" lon="10.3200988"><ele>-0.5</ele><time>2026-04-29T16:38:07.773Z</time></trkpt><trkpt lat="43.7947519" lon="10.3202024"><ele>1.0</ele><time>2026-04-29T16:38:08.773Z</time></trkpt><trkpt lat="43.7944764" lon="10.3203051"><ele>4.0</ele><time>2026-04-29T16:38:09.771Z</time></trkpt><trkpt lat="43.7942017" lon="10.3204064"><ele>7.0</ele><time>2026-04-29T16:38:10.772Z</time></trkpt><trkpt lat="43.7939271" lon="10.3205074"><ele>4.0</ele><time>2026-04-29T16:38:11.771Z</time></trkpt><trkpt lat="43.793653" lon="10.3206112"><ele>1.0</ele><time>2026-04-29T16:38:12.772Z</time></trkpt><trkpt lat="43.7933804" lon="10.3207186"><ele>1.0</ele><time>2026-04-29T16:38:13.773Z</time></trkpt><trkpt lat="43.7931091" lon="10.3208291"><ele>1.0</ele><time>2026-04-29T16:38:14.771Z</time></trkpt><trkpt lat="43.79284" lon="10.3209465"><ele>3.0</ele><time>2026-04-29T16:38:15.773Z</time></trkpt><trkpt lat="43.7925713" lon="10.3210694"><ele>5.0</ele><time>2026-04-29T16:38:16.775Z</time></trkpt><trkpt lat="43.7923034" lon="10.3211947"><ele>5.0</ele><time>2026-04-29T16:38:17.773Z</time></trkpt><trkpt lat="43.7920355" lon="10.3213213"><ele>5.0</ele><time>2026-04-29T16:38:18.772Z</time></trkpt><trkpt lat="43.7917682" lon="10.3214514"><ele>3.0</ele><time>2026-04-29T16:38:19.773Z</time></trkpt><trkpt lat="43.791502" lon="10.3215849"><ele>1.0</ele><time>2026-04-29T16:38:20.773Z</time></trkpt><trkpt lat="43.791237" lon="10.3217219"><ele>1.5</ele><time>2026-04-29T16:38:21.772Z</time></trkpt><trkpt lat="43.790973" lon="10.3218637"><ele>2.0</ele><time>2026-04-29T16:38:22.772Z</time></trkpt><trkpt lat="43.7907112" lon="10.3220111"><ele>2.0</ele><time>2026-04-29T16:38:23.773Z</time></trkpt><trkpt lat="43.7904509" lon="10.322163"><ele>2.0</ele><time>2026-04-29T16:38:24.773Z</time></trkpt><trkpt lat="43.7901923" lon="10.322319"><ele>0.0</ele><time>2026-04-29T16:38:25.771Z</time></trkpt><trkpt lat="43.7899339" lon="10.322481"><ele>-2.0</ele><time>2026-04-29T16:38:26.772Z</time></trkpt><trkpt lat="43.7896797" lon="10.3226458"><ele>-2.0</ele><time>2026-04-29T16:38:27.772Z</time></trkpt><trkpt lat="43.7894254" lon="10.3228136"><ele>-2.0</ele><time>2026-04-29T16:38:28.774Z</time></trkpt><trkpt lat="43.7891721" lon="10.3229834"><ele>-1.5</ele><time>2026-04-29T16:38:29.774Z</time></trkpt><trkpt lat="43.7889199" lon="10.3231576"><ele>-1.0</ele><time>2026-04-29T16:38:30.774Z</time></trkpt><trkpt lat="43.7886695" lon="10.3233348"><ele>-1.0</ele><time>2026-04-29T16:38:31.772Z</time></trkpt><trkpt lat="43.7884229" lon="10.3235235"><ele>-1.0</ele><time>2026-04-29T16:38:32.772Z</time></trkpt><trkpt lat="43.7881774" lon="10.3237223"><ele>-2.5</ele><time>2026-04-29T16:38:33.774Z</time></trkpt><trkpt lat="43.7879312" lon="10.323925"><ele>-4.0</ele><time>2026-04-29T16:38:34.77Z</time></trkpt><trkpt lat="43.7876844" lon="10.3241296"><ele>-2.5</ele><time>2026-04-29T16:38:35.773Z</time></trkpt><trkpt lat="43.7874366" lon="10.3243359"><ele>-1.0</ele><time>2026-04-29T16:38:36.772Z</time></trkpt><trkpt lat="43.7871886" lon="10.3245476"><ele>-2.5</ele><time>2026-04-29T16:38:37.775Z</time></trkpt><trkpt lat="43.7869363" lon="10.3247639"><ele>-4.0</ele><time>2026-04-29T16:38:38.772Z</time></trkpt><trkpt lat="43.7866843" lon="10.3249827"><ele>-4.0</ele><time>2026-04-29T16:38:39.772Z</time></trkpt><trkpt lat="43.7864302" lon="10.3252053"><ele>-4.0</ele><time>2026-04-29T16:38:40.772Z</time></trkpt><trkpt lat="43.7861753" lon="10.3254266"><ele>-3.0</ele><time>2026-04-29T16:38:41.77Z</time></trkpt><trkpt lat="43.7859211" lon="10.3256545"><ele>-2.0</ele><time>2026-04-29T16:38:42.773Z</time></trkpt><trkpt lat="43.7856701" lon="10.3258898"><ele>-2.0</ele><time>2026-04-29T16:38:43.772Z</time></trkpt><trkpt lat="43.7854224" lon="10.3261335"><ele>-2.0</ele><time>2026-04-29T16:38:44.773Z</time></trkpt><trkpt lat="43.7851769" lon="10.3263832"><ele>-3.0</ele><time>2026-04-29T16:38:45.772Z</time></trkpt><trkpt lat="43.7849397" lon="10.3266366"><ele>-4.0</ele><time>2026-04-29T16:38:46.773Z</time></trkpt><trkpt lat="43.7847039" lon="10.3268919"><ele>-4.0</ele><time>2026-04-29T16:38:47.772Z</time></trkpt><trkpt lat="43.7844695" lon="10.3271487"><ele>-4.0</ele><time>2026-04-29T16:38:48.772Z</time></trkpt><trkpt lat="43.7842381" lon="10.3274094"><ele>-3.5</ele><time>2026-04-29T16:38:49.771Z</time></trkpt><trkpt lat="43.7840113" lon="10.3276737"><ele>-3.0</ele><time>2026-04-29T16:38:50.77Z</time></trkpt><trkpt lat="43.7837864" lon="10.3279424"><ele>-3.0</ele><time>2026-04-29T16:38:51.773Z</time></trkpt><trkpt lat="43.7835631" lon="10.3282162"><ele>-3.0</ele><time>2026-04-29T16:38:52.773Z</time></trkpt><trkpt lat="43.7833412" lon="10.3284941"><ele>-3.0</ele><time>2026-04-29T16:38:53.772Z</time></trkpt><trkpt lat="43.7831228" lon="10.3287759"><ele>-3.0</ele><time>2026-04-29T16:38:54.773Z</time></trkpt><trkpt lat="43.7829081" lon="10.3290605"><ele>-3.0</ele><time>2026-04-29T16:38:55.771Z</time></trkpt><trkpt lat="43.7826953" lon="10.3293481"><ele>-3.0</ele><time>2026-04-29T16:38:56.771Z</time></trkpt><trkpt lat="43.7824851" lon="10.3296383"><ele>-3.0</ele><time>2026-04-29T16:38:57.772Z</time></trkpt><trkpt lat="43.7822769" lon="10.329932"><ele>-3.0</ele><time>2026-04-29T16:38:58.774Z</time></trkpt><trkpt lat="43.7820727" lon="10.3302258"><ele>-3.0</ele><time>2026-04-29T16:38:59.772Z</time></trkpt><trkpt lat="43.7818738" lon="10.3305216"><ele>-3.0</ele><time>2026-04-29T16:39:00.772Z</time></trkpt><trkpt lat="43.7816778" lon="10.3308192"><ele>-2.5</ele><time>2026-04-29T16:39:01.772Z</time></trkpt><trkpt lat="43.781485" lon="10.3311168"><ele>-2.0</ele><time>2026-04-29T16:39:02.775Z</time></trkpt><trkpt lat="43.7812952" lon="10.3314125"><ele>-2.0</ele><time>2026-04-29T16:39:03.773Z</time></trkpt><trkpt lat="43.7811072" lon="10.3317096"><ele>-2.0</ele><time>2026-04-29T16:39:04.773Z</time></trkpt><trkpt lat="43.7809213" lon="10.332008"><ele>-0.5</ele><time>2026-04-29T16:39:05.773Z</time></trkpt><trkpt lat="43.7807387" lon="10.332304"><ele>1.0</ele><time>2026-04-29T16:39:06.772Z</time></trkpt><trkpt lat="43.7805587" lon="10.3325915"><ele>1.0</ele><time>2026-04-29T16:39:07.773Z</time></trkpt><trkpt lat="43.7803801" lon="10.3328743"><ele>1.0</ele><time>2026-04-29T16:39:08.771Z</time></trkpt><trkpt lat="43.7802032" lon="10.3331538"><ele>1.0</ele><time>2026-04-29T16:39:09.774Z</time></trkpt><trkpt lat="43.7800266" lon="10.3334333"><ele>1.0</ele><time>2026-04-29T16:39:10.774Z</time></trkpt><trkpt lat="43.7798518" lon="10.3337111"><ele>0.0</ele><time>2026-04-29T16:39:11.774Z</time></trkpt><trkpt lat="43.7796819" lon="10.3339798"><ele>-1.0</ele><time>2026-04-29T16:39:12.773Z</time></trkpt><trkpt lat="43.7795154" lon="10.3342416"><ele>-1.0</ele><time>2026-04-29T16:39:13.772Z</time></trkpt><trkpt lat="43.7793551" lon="10.3344966"><ele>-1.0</ele><time>2026-04-29T16:39:14.769Z</time></trkpt><trkpt lat="43.7791933" lon="10.3347563"><ele>-0.5</ele><time>2026-04-29T16:39:15.773Z</time></trkpt><trkpt lat="43.7790307" lon="10.3350171"><ele>0.0</ele><time>2026-04-29T16:39:16.772Z</time></trkpt><trkpt lat="43.7788674" lon="10.3352765"><ele>0.0</ele><time>2026-04-29T16:39:17.775Z</time></trkpt><trkpt lat="43.778703" lon="10.3355392"><ele>0.0</ele><time>2026-04-29T16:39:18.773Z</time></trkpt><trkpt lat="43.7785357" lon="10.3358026"><ele>0.0</ele><time>2026-04-29T16:39:19.77Z</time></trkpt><trkpt lat="43.7783646" lon="10.3360749"><ele>0.0</ele><time>2026-04-29T16:39:20.772Z</time></trkpt><trkpt lat="43.7781887" lon="10.3363546"><ele>-0.5</ele><time>2026-04-29T16:39:21.771Z</time></trkpt><trkpt lat="43.7780137" lon="10.3366349"><ele>-1.0</ele><time>2026-04-29T16:39:22.775Z</time></trkpt><trkpt lat="43.7778421" lon="10.3369178"><ele>-0.5</ele><time>2026-04-29T16:39:23.774Z</time></trkpt><trkpt lat="43.7776683" lon="10.337209"><ele>0.0</ele><time>2026-04-29T16:39:24.774Z</time></trkpt><trkpt lat="43.7774917" lon="10.3375027"><ele>0.0</ele><time>2026-04-29T16:39:25.771Z</time></trkpt><trkpt lat="43.7773135" lon="10.3377944"><ele>0.0</ele><time>2026-04-29T16:39:26.773Z</time></trkpt><trkpt lat="43.7771415" lon="10.3380739"><ele>0.0</ele><time>2026-04-29T16:39:27.772Z</time></trkpt><trkpt lat="43.7769689" lon="10.3383546"><ele>0.0</ele><time>2026-04-29T16:39:28.772Z</time></trkpt><trkpt lat="43.7767975" lon="10.3386294"><ele>-0.5</ele><time>2026-04-29T16:39:29.772Z</time></trkpt><trkpt lat="43.7766261" lon="10.3389021"><ele>-1.0</ele><time>2026-04-29T16:39:30.774Z</time></trkpt><trkpt lat="43.776457" lon="10.3391719"><ele>-1.0</ele><time>2026-04-29T16:39:31.774Z</time></trkpt><trkpt lat="43.7762892" lon="10.3394388"><ele>-1.0</ele><time>2026-04-29T16:39:32.773Z</time></trkpt><trkpt lat="43.7761232" lon="10.3397039"><ele>-0.5</ele><time>2026-04-29T16:39:33.772Z</time></trkpt><trkpt lat="43.7759561" lon="10.3399686"><ele>0.0</ele><time>2026-04-29T16:39:34.773Z</time></trkpt><trkpt lat="43.7757872" lon="10.3402326"><ele>0.0</ele><time>2026-04-29T16:39:35.772Z</time></trkpt><trkpt lat="43.7756183" lon="10.3404982"><ele>0.0</ele><time>2026-04-29T16:39:36.775Z</time></trkpt><trkpt lat="43.7754481" lon="10.3407645"><ele>0.5</ele><time>2026-04-29T16:39:37.773Z</time></trkpt><trkpt lat="43.7752786" lon="10.341033"><ele>1.0</ele><time>2026-04-29T16:39:38.773Z</time></trkpt><trkpt lat="43.7751081" lon="10.3413044"><ele>0.5</ele><time>2026-04-29T16:39:39.772Z</time></trkpt><trkpt lat="43.7749352" lon="10.3415753"><ele>0.0</ele><time>2026-04-29T16:39:40.774Z</time></trkpt><trkpt lat="43.7747646" lon="10.3418446"><ele>0.0</ele><time>2026-04-29T16:39:41.773Z</time></trkpt><trkpt lat="43.7745907" lon="10.3421201"><ele>0.0</ele><time>2026-04-29T16:39:42.774Z</time></trkpt><trkpt lat="43.7744167" lon="10.3423979"><ele>0.5</ele><time>2026-04-29T16:39:43.773Z</time></trkpt><trkpt lat="43.7742432" lon="10.3426748"><ele>1.0</ele><time>2026-04-29T16:39:44.773Z</time></trkpt><trkpt lat="43.7740768" lon="10.3429411"><ele>0.5</ele><time>2026-04-29T16:39:45.772Z</time></trkpt><trkpt lat="43.7739099" lon="10.3432036"><ele>0.0</ele><time>2026-04-29T16:39:46.771Z</time></trkpt><trkpt lat="43.7737457" lon="10.3434613"><ele>0.0</ele><time>2026-04-29T16:39:47.773Z</time></trkpt><trkpt lat="43.7735833" lon="10.3437217"><ele>0.0</ele><time>2026-04-29T16:39:48.772Z</time></trkpt><trkpt lat="43.7734242" lon="10.3439717"><ele>0.5</ele><time>2026-04-29T16:39:49.771Z</time></trkpt><trkpt lat="43.7732699" lon="10.3442153"><ele>1.0</ele><time>2026-04-29T16:39:50.773Z</time></trkpt><trkpt lat="43.7731216" lon="10.3444532"><ele>1.0</ele><time>2026-04-29T16:39:51.772Z</time></trkpt><trkpt lat="43.7729726" lon="10.344691"><ele>1.0</ele><time>2026-04-29T16:39:52.771Z</time></trkpt><trkpt lat="43.7728269" lon="10.344925"><ele>2.0</ele><time>2026-04-29T16:39:53.773Z</time></trkpt><trkpt lat="43.7726769" lon="10.3451652"><ele>3.0</ele><time>2026-04-29T16:39:54.773Z</time></trkpt><trkpt lat="43.7725206" lon="10.3454097"><ele>3.0</ele><time>2026-04-29T16:39:55.771Z</time></trkpt><trkpt lat="43.7723623" lon="10.3456587"><ele>3.0</ele><time>2026-04-29T16:39:56.773Z</time></trkpt><trkpt lat="43.7721983" lon="10.3459188"><ele>3.0</ele><time>2026-04-29T16:39:57.771Z</time></trkpt><trkpt lat="43.7720273" lon="10.3461897"><ele>3.0</ele><time>2026-04-29T16:39:58.772Z</time></trkpt><trkpt lat="43.7718534" lon="10.3464714"><ele>4.0</ele><time>2026-04-29T16:39:59.771Z</time></trkpt><trkpt lat="43.7716707" lon="10.3467583"><ele>5.0</ele><time>2026-04-29T16:40:00.77Z</time></trkpt><trkpt lat="43.7714866" lon="10.3470518"><ele>4.0</ele><time>2026-04-29T16:40:01.773Z</time></trkpt><trkpt lat="43.7713009" lon="10.3473494"><ele>3.0</ele><time>2026-04-29T16:40:02.773Z</time></trkpt><trkpt lat="43.7711139" lon="10.347644"><ele>4.0</ele><time>2026-04-29T16:40:03.773Z</time></trkpt><trkpt lat="43.7709307" lon="10.3479375"><ele>5.0</ele><time>2026-04-29T16:40:04.771Z</time></trkpt><trkpt lat="43.7707455" lon="10.3482269"><ele>5.0</ele><time>2026-04-29T16:40:05.773Z</time></trkpt><trkpt lat="43.7705601" lon="10.3485153"><ele>5.0</ele><time>2026-04-29T16:40:06.77Z</time></trkpt><trkpt lat="43.770377" lon="10.3488055"><ele>5.0</ele><time>2026-04-29T16:40:07.773Z</time></trkpt><trkpt lat="43.7701939" lon="10.349097"><ele>5.0</ele><time>2026-04-29T16:40:08.772Z</time></trkpt><trkpt lat="43.7700084" lon="10.3493959"><ele>5.0</ele><time>2026-04-29T16:40:09.771Z</time></trkpt><trkpt lat="43.7698233" lon="10.3496971"><ele>5.0</ele><time>2026-04-29T16:40:10.772Z</time></trkpt><trkpt lat="43.7696358" lon="10.3499991"><ele>5.0</ele><time>2026-04-29T16:40:11.771Z</time></trkpt><trkpt lat="43.7694439" lon="10.3502999"><ele>5.0</ele><time>2026-04-29T16:40:12.772Z</time></trkpt><trkpt lat="43.7692501" lon="10.3506001"><ele>5.0</ele><time>2026-04-29T16:40:13.774Z</time></trkpt><trkpt lat="43.7690506" lon="10.3509016"><ele>5.0</ele><time>2026-04-29T16:40:14.772Z</time></trkpt><trkpt lat="43.7688495" lon="10.3512055"><ele>4.5</ele><time>2026-04-29T16:40:15.771Z</time></trkpt><trkpt lat="43.7686494" lon="10.3515115"><ele>4.0</ele><time>2026-04-29T16:40:16.772Z</time></trkpt><trkpt lat="43.7684521" lon="10.3518143"><ele>4.0</ele><time>2026-04-29T16:40:17.772Z</time></trkpt><trkpt lat="43.7682594" lon="10.3521105"><ele>4.0</ele><time>2026-04-29T16:40:18.771Z</time></trkpt><trkpt lat="43.7680679" lon="10.3524045"><ele>4.0</ele><time>2026-04-29T16:40:19.773Z</time></trkpt><trkpt lat="43.7678768" lon="10.3526953"><ele>4.0</ele><time>2026-04-29T16:40:20.773Z</time></trkpt><trkpt lat="43.7676834" lon="10.352979"><ele>4.0</ele><time>2026-04-29T16:40:21.775Z</time></trkpt><trkpt lat="43.7674858" lon="10.3532546"><ele>4.0</ele><time>2026-04-29T16:40:22.773Z</time></trkpt><trkpt lat="43.7672854" lon="10.3535236"><ele>4.0</ele><time>2026-04-29T16:40:23.772Z</time></trkpt><trkpt lat="43.7670808" lon="10.3537843"><ele>4.0</ele><time>2026-04-29T16:40:24.773Z</time></trkpt><trkpt lat="43.7668723" lon="10.3540392"><ele>3.0</ele><time>2026-04-29T16:40:25.774Z</time></trkpt><trkpt lat="43.7666591" lon="10.354287"><ele>2.0</ele><time>2026-04-29T16:40:26.773Z</time></trkpt><trkpt lat="43.7664397" lon="10.3545305"><ele>2.5</ele><time>2026-04-29T16:40:27.772Z</time></trkpt><trkpt lat="43.7662177" lon="10.3547685"><ele>3.0</ele><time>2026-04-29T16:40:28.772Z</time></trkpt><trkpt lat="43.7659954" lon="10.3549974"><ele>1.5</ele><time>2026-04-29T16:40:29.772Z</time></trkpt><trkpt lat="43.7657661" lon="10.355224"><ele>0.0</ele><time>2026-04-29T16:40:30.775Z</time></trkpt><trkpt lat="43.7655325" lon="10.3554459"><ele>0.5</ele><time>2026-04-29T16:40:31.772Z</time></trkpt><trkpt lat="43.7652956" lon="10.355663"><ele>1.0</ele><time>2026-04-29T16:40:32.773Z</time></trkpt><trkpt lat="43.7650522" lon="10.3558708"><ele>1.0</ele><time>2026-04-29T16:40:33.771Z</time></trkpt><trkpt lat="43.7648037" lon="10.3560752"><ele>1.0</ele><time>2026-04-29T16:40:34.773Z</time></trkpt><trkpt lat="43.764551" lon="10.3562697"><ele>1.0</ele><time>2026-04-29T16:40:35.773Z</time></trkpt><trkpt lat="43.7642945" lon="10.3564591"><ele>1.0</ele><time>2026-04-29T16:40:36.772Z</time></trkpt><trkpt lat="43.7640348" lon="10.3566429"><ele>1.0</ele><time>2026-04-29T16:40:37.772Z</time></trkpt><trkpt lat="43.76377" lon="10.3568182"><ele>1.0</ele><time>2026-04-29T16:40:38.771Z</time></trkpt><trkpt lat="43.7635033" lon="10.3569874"><ele>1.0</ele><time>2026-04-29T16:40:39.774Z</time></trkpt><trkpt lat="43.7632321" lon="10.3571504"><ele>1.0</ele><time>2026-04-29T16:40:40.772Z</time></trkpt><trkpt lat="43.7629587" lon="10.3573078"><ele>1.0</ele><time>2026-04-29T16:40:41.773Z</time></trkpt><trkpt lat="43.7626817" lon="10.3574575"><ele>1.0</ele><time>2026-04-29T16:40:42.773Z</time></trkpt><trkpt lat="43.7624012" lon="10.3575987"><ele>1.0</ele><time>2026-04-29T16:40:43.772Z</time></trkpt><trkpt lat="43.7621159" lon="10.3577302"><ele>1.0</ele><time>2026-04-29T16:40:44.773Z</time></trkpt><trkpt lat="43.7618246" lon="10.357854"><ele>1.0</ele><time>2026-04-29T16:40:45.773Z</time></trkpt><trkpt lat="43.7615279" lon="10.3579691"><ele>1.0</ele><time>2026-04-29T16:40:46.775Z</time></trkpt><trkpt lat="43.7612284" lon="10.3580813"><ele>1.5</ele><time>2026-04-29T16:40:47.774Z</time></trkpt><trkpt lat="43.7609225" lon="10.3581834"><ele>2.0</ele><time>2026-04-29T16:40:48.771Z</time></trkpt><trkpt lat="43.7606117" lon="10.3582783"><ele>2.0</ele><time>2026-04-29T16:40:49.771Z</time></trkpt><trkpt lat="43.760302" lon="10.3583637"><ele>2.0</ele><time>2026-04-29T16:40:50.772Z</time></trkpt><trkpt lat="43.7599923" lon="10.3584348"><ele>1.0</ele><time>2026-04-29T16:40:51.773Z</time></trkpt><trkpt lat="43.7596847" lon="10.358494"><ele>0.0</ele><time>2026-04-29T16:40:52.774Z</time></trkpt><trkpt lat="43.759377" lon="10.3585397"><ele>0.0</ele><time>2026-04-29T16:40:53.772Z</time></trkpt><trkpt lat="43.7590672" lon="10.3585752"><ele>0.0</ele><time>2026-04-29T16:40:54.771Z</time></trkpt><trkpt lat="43.7587574" lon="10.3586"><ele>0.5</ele><time>2026-04-29T16:40:55.772Z</time></trkpt><trkpt lat="43.7584473" lon="10.3586183"><ele>1.0</ele><time>2026-04-29T16:40:56.773Z</time></trkpt><trkpt lat="43.7581452" lon="10.3586275"><ele>1.0</ele><time>2026-04-29T16:40:57.772Z</time></trkpt><trkpt lat="43.7578489" lon="10.3586265"><ele>1.0</ele><time>2026-04-29T16:40:58.773Z</time></trkpt><trkpt lat="43.7575542" lon="10.3586154"><ele>1.0</ele><time>2026-04-29T16:40:59.772Z</time></trkpt><trkpt lat="43.7572601" lon="10.3585935"><ele>1.0</ele><time>2026-04-29T16:41:00.771Z</time></trkpt><trkpt lat="43.7569672" lon="10.3585632"><ele>1.0</ele><time>2026-04-29T16:41:01.774Z</time></trkpt><trkpt lat="43.7566793" lon="10.3585253"><ele>1.0</ele><time>2026-04-29T16:41:02.772Z</time></trkpt><trkpt lat="43.7564085" lon="10.3584817"><ele>1.0</ele><time>2026-04-29T16:41:03.77Z</time></trkpt><trkpt lat="43.7561415" lon="10.3584276"><ele>1.0</ele><time>2026-04-29T16:41:04.771Z</time></trkpt><trkpt lat="43.7558799" lon="10.358365"><ele>0.5</ele><time>2026-04-29T16:41:05.773Z</time></trkpt><trkpt lat="43.7556195" lon="10.3582943"><ele>0.0</ele><time>2026-04-29T16:41:06.773Z</time></trkpt><trkpt lat="43.755352" lon="10.3582187"><ele>0.0</ele><time>2026-04-29T16:41:07.773Z</time></trkpt><trkpt lat="43.7550772" lon="10.3581384"><ele>0.0</ele><time>2026-04-29T16:41:08.773Z</time></trkpt><trkpt lat="43.7548016" lon="10.3580546"><ele>0.0</ele><time>2026-04-29T16:41:09.772Z</time></trkpt><trkpt lat="43.7545253" lon="10.357967"><ele>0.0</ele><time>2026-04-29T16:41:10.771Z</time></trkpt><trkpt lat="43.7542475" lon="10.3578818"><ele>0.5</ele><time>2026-04-29T16:41:11.773Z</time></trkpt><trkpt lat="43.753968" lon="10.3577995"><ele>1.0</ele><time>2026-04-29T16:41:12.773Z</time></trkpt><trkpt lat="43.7536869" lon="10.357719"><ele>1.5</ele><time>2026-04-29T16:41:13.773Z</time></trkpt><trkpt lat="43.7534058" lon="10.3576336"><ele>2.0</ele><time>2026-04-29T16:41:14.77Z</time></trkpt><trkpt lat="43.7531242" lon="10.3575422"><ele>2.0</ele><time>2026-04-29T16:41:15.773Z</time></trkpt><trkpt lat="43.7528444" lon="10.3574493"><ele>2.0</ele><time>2026-04-29T16:41:16.772Z</time></trkpt><trkpt lat="43.7525782" lon="10.3573621"><ele>2.0</ele><time>2026-04-29T16:41:17.772Z</time></trkpt><trkpt lat="43.7523107" lon="10.357276"><ele>2.0</ele><time>2026-04-29T16:41:18.773Z</time></trkpt><trkpt lat="43.7520471" lon="10.3571924"><ele>2.5</ele><time>2026-04-29T16:41:19.772Z</time></trkpt><trkpt lat="43.7517872" lon="10.3571067"><ele>3.0</ele><time>2026-04-29T16:41:20.772Z</time></trkpt><trkpt lat="43.7515318" lon="10.3570215"><ele>3.0</ele><time>2026-04-29T16:41:21.772Z</time></trkpt><trkpt lat="43.7512854" lon="10.3569398"><ele>3.0</ele><time>2026-04-29T16:41:22.771Z</time></trkpt><trkpt lat="43.7510431" lon="10.3568613"><ele>3.5</ele><time>2026-04-29T16:41:23.774Z</time></trkpt><trkpt lat="43.7508041" lon="10.3567837"><ele>4.0</ele><time>2026-04-29T16:41:24.771Z</time></trkpt><trkpt lat="43.7505665" lon="10.356705"><ele>4.0</ele><time>2026-04-29T16:41:25.774Z</time></trkpt><trkpt lat="43.7503276" lon="10.3566249"><ele>4.0</ele><time>2026-04-29T16:41:26.774Z</time></trkpt><trkpt lat="43.7500818" lon="10.3565455"><ele>2.5</ele><time>2026-04-29T16:41:27.772Z</time></trkpt><trkpt lat="43.7498309" lon="10.3564654"><ele>1.0</ele><time>2026-04-29T16:41:28.772Z</time></trkpt><trkpt lat="43.7495796" lon="10.356389"><ele>0.5</ele><time>2026-04-29T16:41:29.772Z</time></trkpt><trkpt lat="43.74932" lon="10.35631"><ele>0.0</ele><time>2026-04-29T16:41:30.776Z</time></trkpt><trkpt lat="43.7490528" lon="10.3562247"><ele>0.0</ele><time>2026-04-29T16:41:31.774Z</time></trkpt><trkpt lat="43.7487808" lon="10.3561386"><ele>0.0</ele><time>2026-04-29T16:41:32.773Z</time></trkpt><trkpt lat="43.7485064" lon="10.3560503"><ele>0.5</ele><time>2026-04-29T16:41:33.772Z</time></trkpt><trkpt lat="43.74823" lon="10.3559636"><ele>1.0</ele><time>2026-04-29T16:41:34.774Z</time></trkpt><trkpt lat="43.7479516" lon="10.3558804"><ele>1.0</ele><time>2026-04-29T16:41:35.773Z</time></trkpt><trkpt lat="43.747667" lon="10.3557951"><ele>1.0</ele><time>2026-04-29T16:41:36.774Z</time></trkpt><trkpt lat="43.7473782" lon="10.3557095"><ele>1.0</ele><time>2026-04-29T16:41:37.774Z</time></trkpt><trkpt lat="43.7470821" lon="10.3556242"><ele>1.0</ele><time>2026-04-29T16:41:38.773Z</time></trkpt><trkpt lat="43.7467817" lon="10.3555356"><ele>0.5</ele><time>2026-04-29T16:41:39.771Z</time></trkpt><trkpt lat="43.7464785" lon="10.3554413"><ele>0.0</ele><time>2026-04-29T16:41:40.773Z</time></trkpt><trkpt lat="43.7461717" lon="10.3553428"><ele>-0.5</ele><time>2026-04-29T16:41:41.771Z</time></trkpt><trkpt lat="43.7458647" lon="10.3552453"><ele>-1.0</ele><time>2026-04-29T16:41:42.772Z</time></trkpt><trkpt lat="43.7455623" lon="10.3551424"><ele>-1.0</ele><time>2026-04-29T16:41:43.773Z</time></trkpt><trkpt lat="43.7452675" lon="10.3550349"><ele>-1.0</ele><time>2026-04-29T16:41:44.773Z</time></trkpt><trkpt lat="43.7449852" lon="10.3549342"><ele>-0.5</ele><time>2026-04-29T16:41:45.774Z</time></trkpt><trkpt lat="43.7447199" lon="10.3548475"><ele>0.0</ele><time>2026-04-29T16:41:46.772Z</time></trkpt><trkpt lat="43.744468" lon="10.3547658"><ele>0.5</ele><time>2026-04-29T16:41:47.772Z</time></trkpt><trkpt lat="43.7442243" lon="10.3546877"><ele>1.0</ele><time>2026-04-29T16:41:48.772Z</time></trkpt><trkpt lat="43.7439883" lon="10.3546121"><ele>1.0</ele><time>2026-04-29T16:41:49.775Z</time></trkpt><trkpt lat="43.7437622" lon="10.3545403"><ele>1.0</ele><time>2026-04-29T16:41:50.774Z</time></trkpt><trkpt lat="43.7435443" lon="10.3544678"><ele>1.6666666666666665</ele><time>2026-04-29T16:41:51.773Z</time></trkpt><trkpt lat="43.7433339" lon="10.3544002"><ele>2.3333333333333335</ele><time>2026-04-29T16:41:52.773Z</time></trkpt><trkpt lat="43.7431248" lon="10.3543328"><ele>3.0</ele><time>2026-04-29T16:41:53.772Z</time></trkpt><trkpt lat="43.742916" lon="10.3542643"><ele>2.6666666666666665</ele><time>2026-04-29T16:41:54.773Z</time></trkpt><trkpt lat="43.7427087" lon="10.3541943"><ele>2.333333333333333</ele><time>2026-04-29T16:41:55.772Z</time></trkpt><trkpt lat="43.7425027" lon="10.3541303"><ele>2.0</ele><time>2026-04-29T16:41:56.773Z</time></trkpt><trkpt lat="43.7422954" lon="10.3540652"><ele>2.0</ele><time>2026-04-29T16:41:57.774Z</time></trkpt><trkpt lat="43.7420875" lon="10.3539971"><ele>2.0</ele><time>2026-04-29T16:41:58.774Z</time></trkpt><trkpt lat="43.7418799" lon="10.3539286"><ele>2.0</ele><time>2026-04-29T16:41:59.772Z</time></trkpt><trkpt lat="43.7416655" lon="10.3538579"><ele>2.5</ele><time>2026-04-29T16:42:00.772Z</time></trkpt><trkpt lat="43.7414435" lon="10.3537887"><ele>3.0</ele><time>2026-04-29T16:42:01.773Z</time></trkpt><trkpt lat="43.7412151" lon="10.3537182"><ele>1.5</ele><time>2026-04-29T16:42:02.772Z</time></trkpt><trkpt lat="43.7409794" lon="10.3536435"><ele>0.0</ele><time>2026-04-29T16:42:03.773Z</time></trkpt><trkpt lat="43.7407388" lon="10.3535675"><ele>0.0</ele><time>2026-04-29T16:42:04.772Z</time></trkpt><trkpt lat="43.7404915" lon="10.3534904"><ele>0.0</ele><time>2026-04-29T16:42:05.773Z</time></trkpt><trkpt lat="43.740243" lon="10.3534102"><ele>0.0</ele><time>2026-04-29T16:42:06.773Z</time></trkpt><trkpt lat="43.7400022" lon="10.3533327"><ele>0.0</ele><time>2026-04-29T16:42:07.773Z</time></trkpt><trkpt lat="43.7397652" lon="10.3532597"><ele>0.0</ele><time>2026-04-29T16:42:08.772Z</time></trkpt><trkpt lat="43.7395298" lon="10.353185"><ele>0.0</ele><time>2026-04-29T16:42:09.772Z</time></trkpt><trkpt lat="43.7392962" lon="10.3531111"><ele>-1.0</ele><time>2026-04-29T16:42:10.77Z</time></trkpt><trkpt lat="43.7390652" lon="10.353041"><ele>-2.0</ele><time>2026-04-29T16:42:11.772Z</time></trkpt><trkpt lat="43.7388378" lon="10.3529692"><ele>0.0</ele><time>2026-04-29T16:42:12.773Z</time></trkpt><trkpt lat="43.7386071" lon="10.3528972"><ele>2.0</ele><time>2026-04-29T16:42:13.772Z</time></trkpt><trkpt lat="43.7383758" lon="10.3528264"><ele>2.0</ele><time>2026-04-29T16:42:14.771Z</time></trkpt><trkpt lat="43.7381423" lon="10.3527533"><ele>2.0</ele><time>2026-04-29T16:42:15.773Z</time></trkpt><trkpt lat="43.7379049" lon="10.3526781"><ele>3.0</ele><time>2026-04-29T16:42:16.772Z</time></trkpt><trkpt lat="43.7376658" lon="10.3526009"><ele>4.0</ele><time>2026-04-29T16:42:17.771Z</time></trkpt><trkpt lat="43.7374214" lon="10.3525226"><ele>4.0</ele><time>2026-04-29T16:42:18.773Z</time></trkpt><trkpt lat="43.7371755" lon="10.3524441"><ele>4.0</ele><time>2026-04-29T16:42:19.773Z</time></trkpt><trkpt lat="43.7369295" lon="10.3523666"><ele>2.5</ele><time>2026-04-29T16:42:20.772Z</time></trkpt><trkpt lat="43.7366822" lon="10.3522885"><ele>1.0</ele><time>2026-04-29T16:42:21.772Z</time></trkpt><trkpt lat="43.7364337" lon="10.35221"><ele>2.5</ele><time>2026-04-29T16:42:22.771Z</time></trkpt><trkpt lat="43.7361808" lon="10.3521287"><ele>4.0</ele><time>2026-04-29T16:42:23.772Z</time></trkpt><trkpt lat="43.7359248" lon="10.3520472"><ele>4.0</ele><time>2026-04-29T16:42:24.773Z</time></trkpt><trkpt lat="43.7356685" lon="10.3519666"><ele>4.0</ele><time>2026-04-29T16:42:25.774Z</time></trkpt><trkpt lat="43.735415" lon="10.3518855"><ele>2.0</ele><time>2026-04-29T16:42:26.775Z</time></trkpt><trkpt lat="43.7351628" lon="10.3518057"><ele>0.0</ele><time>2026-04-29T16:42:27.773Z</time></trkpt><trkpt lat="43.7349106" lon="10.3517246"><ele>0.0</ele><time>2026-04-29T16:42:28.772Z</time></trkpt><trkpt lat="43.7346604" lon="10.3516447"><ele>0.0</ele><time>2026-04-29T16:42:29.772Z</time></trkpt><trkpt lat="43.7344101" lon="10.3515673"><ele>0.0</ele><time>2026-04-29T16:42:30.771Z</time></trkpt><trkpt lat="43.734159" lon="10.3514891"><ele>0.0</ele><time>2026-04-29T16:42:31.772Z</time></trkpt><trkpt lat="43.7339056" lon="10.3514111"><ele>0.5</ele><time>2026-04-29T16:42:32.773Z</time></trkpt><trkpt lat="43.7336496" lon="10.3513346"><ele>1.0</ele><time>2026-04-29T16:42:33.772Z</time></trkpt><trkpt lat="43.7333916" lon="10.3512639"><ele>1.5</ele><time>2026-04-29T16:42:34.773Z</time></trkpt><trkpt lat="43.7331313" lon="10.3512006"><ele>2.0</ele><time>2026-04-29T16:42:35.772Z</time></trkpt><trkpt lat="43.7328698" lon="10.3511417"><ele>2.0</ele><time>2026-04-29T16:42:36.774Z</time></trkpt><trkpt lat="43.7326056" lon="10.3510877"><ele>2.0</ele><time>2026-04-29T16:42:37.772Z</time></trkpt><trkpt lat="43.7323402" lon="10.3510408"><ele>2.0</ele><time>2026-04-29T16:42:38.772Z</time></trkpt><trkpt lat="43.7320705" lon="10.3510007"><ele>2.0</ele><time>2026-04-29T16:42:39.771Z</time></trkpt><trkpt lat="43.7317988" lon="10.350968"><ele>1.5</ele><time>2026-04-29T16:42:40.772Z</time></trkpt><trkpt lat="43.7315279" lon="10.3509391"><ele>1.0</ele><time>2026-04-29T16:42:41.776Z</time></trkpt><trkpt lat="43.7312587" lon="10.3509119"><ele>0.0</ele><time>2026-04-29T16:42:42.773Z</time></trkpt><trkpt lat="43.7309862" lon="10.3508815"><ele>-1.0</ele><time>2026-04-29T16:42:43.771Z</time></trkpt><trkpt lat="43.7307127" lon="10.3508508"><ele>-1.0</ele><time>2026-04-29T16:42:44.772Z</time></trkpt><trkpt lat="43.730436" lon="10.3508229"><ele>-1.0</ele><time>2026-04-29T16:42:45.776Z</time></trkpt><trkpt lat="43.7301599" lon="10.3507957"><ele>-1.0</ele><time>2026-04-29T16:42:46.772Z</time></trkpt><trkpt lat="43.7298849" lon="10.3507684"><ele>-1.0</ele><time>2026-04-29T16:42:47.773Z</time></trkpt><trkpt lat="43.7296103" lon="10.35074"><ele>-1.5</ele><time>2026-04-29T16:42:48.779Z</time></trkpt><trkpt lat="43.7293362" lon="10.3507119"><ele>-2.0</ele><time>2026-04-29T16:42:49.771Z</time></trkpt><trkpt lat="43.7290614" lon="10.3506836"><ele>-2.0</ele><time>2026-04-29T16:42:50.772Z</time></trkpt><trkpt lat="43.728787" lon="10.3506572"><ele>-2.0</ele><time>2026-04-29T16:42:51.774Z</time></trkpt><trkpt lat="43.7285107" lon="10.350629"><ele>-2.0</ele><time>2026-04-29T16:42:52.772Z</time></trkpt><trkpt lat="43.7282344" lon="10.3505988"><ele>-2.0</ele><time>2026-04-29T16:42:53.773Z</time></trkpt><trkpt lat="43.7279582" lon="10.3505712"><ele>-2.0</ele><time>2026-04-29T16:42:54.774Z</time></trkpt><trkpt lat="43.7276836" lon="10.3505445"><ele>-2.0</ele><time>2026-04-29T16:42:55.772Z</time></trkpt><trkpt lat="43.7274089" lon="10.3505168"><ele>-1.5</ele><time>2026-04-29T16:42:56.775Z</time></trkpt><trkpt lat="43.7271335" lon="10.3504882"><ele>-1.0</ele><time>2026-04-29T16:42:57.774Z</time></trkpt><trkpt lat="43.7268574" lon="10.3504599"><ele>-1.0</ele><time>2026-04-29T16:42:58.772Z</time></trkpt><trkpt lat="43.7265816" lon="10.350431"><ele>-1.0</ele><time>2026-04-29T16:42:59.773Z</time></trkpt><trkpt lat="43.7263061" lon="10.3504039"><ele>0.0</ele><time>2026-04-29T16:43:00.772Z</time></trkpt><trkpt lat="43.7260302" lon="10.3503737"><ele>1.0</ele><time>2026-04-29T16:43:01.772Z</time></trkpt><trkpt lat="43.7257547" lon="10.3503451"><ele>1.0</ele><time>2026-04-29T16:43:02.772Z</time></trkpt><trkpt lat="43.7254793" lon="10.3503156"><ele>1.0</ele><time>2026-04-29T16:43:03.772Z</time></trkpt><trkpt lat="43.7252031" lon="10.3502837"><ele>1.0</ele><time>2026-04-29T16:43:04.772Z</time></trkpt><trkpt lat="43.7249273" lon="10.3502564"><ele>1.0</ele><time>2026-04-29T16:43:05.772Z</time></trkpt><trkpt lat="43.7246522" lon="10.3502291"><ele>2.0</ele><time>2026-04-29T16:43:06.772Z</time></trkpt><trkpt lat="43.7243773" lon="10.3502008"><ele>3.0</ele><time>2026-04-29T16:43:07.772Z</time></trkpt><trkpt lat="43.7241009" lon="10.3501736"><ele>3.0</ele><time>2026-04-29T16:43:08.771Z</time></trkpt><trkpt lat="43.7238257" lon="10.3501479"><ele>3.0</ele><time>2026-04-29T16:43:09.773Z</time></trkpt><trkpt lat="43.7235489" lon="10.3501225"><ele>2.5</ele><time>2026-04-29T16:43:10.775Z</time></trkpt><trkpt lat="43.7232729" lon="10.3500991"><ele>2.0</ele><time>2026-04-29T16:43:11.772Z</time></trkpt><trkpt lat="43.7229962" lon="10.3500739"><ele>3.5</ele><time>2026-04-29T16:43:12.772Z</time></trkpt><trkpt lat="43.7227205" lon="10.3500488"><ele>5.0</ele><time>2026-04-29T16:43:13.772Z</time></trkpt><trkpt lat="43.7224523" lon="10.3500229"><ele>5.0</ele><time>2026-04-29T16:43:14.772Z</time></trkpt><trkpt lat="43.7221986" lon="10.3499969"><ele>5.0</ele><time>2026-04-29T16:43:15.775Z</time></trkpt><trkpt lat="43.7219505" lon="10.3499702"><ele>5.5</ele><time>2026-04-29T16:43:16.772Z</time></trkpt><trkpt lat="43.7217056" lon="10.3499447"><ele>6.0</ele><time>2026-04-29T16:43:17.771Z</time></trkpt><trkpt lat="43.7214664" lon="10.3499196"><ele>6.0</ele><time>2026-04-29T16:43:18.772Z</time></trkpt><trkpt lat="43.7212276" lon="10.3498946"><ele>6.0</ele><time>2026-04-29T16:43:19.773Z</time></trkpt><trkpt lat="43.7209834" lon="10.3498694"><ele>5.5</ele><time>2026-04-29T16:43:20.774Z</time></trkpt><trkpt lat="43.7207344" lon="10.3498442"><ele>5.0</ele><time>2026-04-29T16:43:21.773Z</time></trkpt><trkpt lat="43.7204806" lon="10.3498176"><ele>4.0</ele><time>2026-04-29T16:43:22.773Z</time></trkpt><trkpt lat="43.720222" lon="10.3497897"><ele>3.0</ele><time>2026-04-29T16:43:23.773Z</time></trkpt><trkpt lat="43.7199596" lon="10.349762"><ele>3.0</ele><time>2026-04-29T16:43:24.774Z</time></trkpt><trkpt lat="43.7196926" lon="10.349735"><ele>3.0</ele><time>2026-04-29T16:43:25.773Z</time></trkpt><trkpt lat="43.7194228" lon="10.349707"><ele>1.5</ele><time>2026-04-29T16:43:26.774Z</time></trkpt><trkpt lat="43.7191499" lon="10.3496782"><ele>0.0</ele><time>2026-04-29T16:43:27.772Z</time></trkpt><trkpt lat="43.7188692" lon="10.3496478"><ele>0.0</ele><time>2026-04-29T16:43:28.774Z</time></trkpt><trkpt lat="43.7185873" lon="10.3496195"><ele>0.0</ele><time>2026-04-29T16:43:29.773Z</time></trkpt><trkpt lat="43.7183049" lon="10.3495923"><ele>-0.5</ele><time>2026-04-29T16:43:30.773Z</time></trkpt><trkpt lat="43.7180215" lon="10.3495662"><ele>-1.0</ele><time>2026-04-29T16:43:31.774Z</time></trkpt><trkpt lat="43.7177319" lon="10.3495386"><ele>-1.0</ele><time>2026-04-29T16:43:32.773Z</time></trkpt><trkpt lat="43.7174414" lon="10.3495117"><ele>-1.0</ele><time>2026-04-29T16:43:33.772Z</time></trkpt><trkpt lat="43.7171508" lon="10.349485"><ele>-1.0</ele><time>2026-04-29T16:43:34.774Z</time></trkpt><trkpt lat="43.7168621" lon="10.3494568"><ele>-1.0</ele><time>2026-04-29T16:43:35.773Z</time></trkpt><trkpt lat="43.716572" lon="10.3494283"><ele>-1.0</ele><time>2026-04-29T16:43:36.778Z</time></trkpt><trkpt lat="43.716282" lon="10.3493975"><ele>-1.0</ele><time>2026-04-29T16:43:37.773Z</time></trkpt><trkpt lat="43.7159943" lon="10.3493697"><ele>-1.0</ele><time>2026-04-29T16:43:38.775Z</time></trkpt><trkpt lat="43.715706" lon="10.3493419"><ele>-1.0</ele><time>2026-04-29T16:43:39.772Z</time></trkpt><trkpt lat="43.7154176" lon="10.3493127"><ele>-1.5</ele><time>2026-04-29T16:43:40.773Z</time></trkpt><trkpt lat="43.7151285" lon="10.3492807"><ele>-2.0</ele><time>2026-04-29T16:43:41.771Z</time></trkpt><trkpt lat="43.7148436" lon="10.3492502"><ele>-2.0</ele><time>2026-04-29T16:43:42.771Z</time></trkpt><trkpt lat="43.7145663" lon="10.3492199"><ele>-2.0</ele><time>2026-04-29T16:43:43.772Z</time></trkpt><trkpt lat="43.7142997" lon="10.3491915"><ele>-1.5</ele><time>2026-04-29T16:43:44.775Z</time></trkpt><trkpt lat="43.7140354" lon="10.3491627"><ele>-1.0</ele><time>2026-04-29T16:43:45.775Z</time></trkpt><trkpt lat="43.7137707" lon="10.3491325"><ele>-1.0</ele><time>2026-04-29T16:43:46.775Z</time></trkpt><trkpt lat="43.7135077" lon="10.3491071"><ele>-1.0</ele><time>2026-04-29T16:43:47.775Z</time></trkpt><trkpt lat="43.713246" lon="10.3490851"><ele>-1.0</ele><time>2026-04-29T16:43:48.773Z</time></trkpt><trkpt lat="43.7129862" lon="10.3490648"><ele>-1.0</ele><time>2026-04-29T16:43:49.777Z</time></trkpt><trkpt lat="43.7127273" lon="10.3490425"><ele>-1.0</ele><time>2026-04-29T16:43:50.78Z</time></trkpt><trkpt lat="43.7124622" lon="10.3490162"><ele>-1.0</ele><time>2026-04-29T16:43:51.774Z</time></trkpt><trkpt lat="43.7121954" lon="10.3489881"><ele>-1.0</ele><time>2026-04-29T16:43:52.777Z</time></trkpt><trkpt lat="43.7119253" lon="10.3489637"><ele>-1.0</ele><time>2026-04-29T16:43:53.777Z</time></trkpt><trkpt lat="43.7116527" lon="10.3489463"><ele>-1.0</ele><time>2026-04-29T16:43:54.773Z</time></trkpt><trkpt lat="43.7113765" lon="10.3489341"><ele>-1.0</ele><time>2026-04-29T16:43:55.774Z</time></trkpt><trkpt lat="43.7110986" lon="10.3489344"><ele>-1.0</ele><time>2026-04-29T16:43:56.773Z</time></trkpt><trkpt lat="43.7108183" lon="10.3489411"><ele>-1.0</ele><time>2026-04-29T16:43:57.774Z</time></trkpt><trkpt lat="43.7105348" lon="10.3489525"><ele>-1.0</ele><time>2026-04-29T16:43:58.775Z</time></trkpt><trkpt lat="43.7102496" lon="10.3489719"><ele>-1.0</ele><time>2026-04-29T16:43:59.773Z</time></trkpt><trkpt lat="43.7099695" lon="10.3489962"><ele>-1.0</ele><time>2026-04-29T16:44:00.775Z</time></trkpt><trkpt lat="43.7096867" lon="10.3490302"><ele>-1.0</ele><time>2026-04-29T16:44:01.772Z</time></trkpt><trkpt lat="43.7094006" lon="10.3490647"><ele>-1.0</ele><time>2026-04-29T16:44:02.773Z</time></trkpt><trkpt lat="43.7091158" lon="10.3491044"><ele>-1.0</ele><time>2026-04-29T16:44:03.776Z</time></trkpt><trkpt lat="43.7088304" lon="10.3491492"><ele>-0.5</ele><time>2026-04-29T16:44:04.778Z</time></trkpt><trkpt lat="43.7085448" lon="10.3492026"><ele>0.0</ele><time>2026-04-29T16:44:05.777Z</time></trkpt><trkpt lat="43.7082565" lon="10.3492625"><ele>0.0</ele><time>2026-04-29T16:44:06.773Z</time></trkpt><trkpt lat="43.7079663" lon="10.3493311"><ele>0.0</ele><time>2026-04-29T16:44:07.776Z</time></trkpt><trkpt lat="43.7076771" lon="10.34941"><ele>1.0</ele><time>2026-04-29T16:44:08.773Z</time></trkpt><trkpt lat="43.7073836" lon="10.3494929"><ele>2.0</ele><time>2026-04-29T16:44:09.775Z</time></trkpt><trkpt lat="43.7070894" lon="10.3495793"><ele>2.0</ele><time>2026-04-29T16:44:10.777Z</time></trkpt><trkpt lat="43.7067951" lon="10.3496687"><ele>2.0</ele><time>2026-04-29T16:44:11.775Z</time></trkpt><trkpt lat="43.7064996" lon="10.3497563"><ele>2.0</ele><time>2026-04-29T16:44:12.774Z</time></trkpt><trkpt lat="43.7062042" lon="10.3498444"><ele>2.0</ele><time>2026-04-29T16:44:13.773Z</time></trkpt><trkpt lat="43.7059064" lon="10.3499298"><ele>2.0</ele><time>2026-04-29T16:44:14.771Z</time></trkpt><trkpt lat="43.7056067" lon="10.3500161"><ele>2.0</ele><time>2026-04-29T16:44:15.773Z</time></trkpt><trkpt lat="43.7053043" lon="10.3501047"><ele>2.0</ele><time>2026-04-29T16:44:16.774Z</time></trkpt><trkpt lat="43.7050009" lon="10.3501949"><ele>2.0</ele><time>2026-04-29T16:44:17.771Z</time></trkpt><trkpt lat="43.7046973" lon="10.3502797"><ele>2.5</ele><time>2026-04-29T16:44:18.771Z</time></trkpt><trkpt lat="43.7043933" lon="10.3503629"><ele>3.0</ele><time>2026-04-29T16:44:19.774Z</time></trkpt><trkpt lat="43.7040896" lon="10.3504428"><ele>3.0</ele><time>2026-04-29T16:44:20.772Z</time></trkpt><trkpt lat="43.7037849" lon="10.350523"><ele>3.0</ele><time>2026-04-29T16:44:21.771Z</time></trkpt><trkpt lat="43.7034802" lon="10.3505994"><ele>2.0</ele><time>2026-04-29T16:44:22.774Z</time></trkpt><trkpt lat="43.7031747" lon="10.3506774"><ele>1.0</ele><time>2026-04-29T16:44:23.772Z</time></trkpt><trkpt lat="43.7028689" lon="10.3507562"><ele>0.5</ele><time>2026-04-29T16:44:24.773Z</time></trkpt><trkpt lat="43.702563" lon="10.3508375"><ele>0.0</ele><time>2026-04-29T16:44:25.772Z</time></trkpt><trkpt lat="43.7022568" lon="10.3509213"><ele>0.0</ele><time>2026-04-29T16:44:26.771Z</time></trkpt><trkpt lat="43.7019514" lon="10.3510063"><ele>0.0</ele><time>2026-04-29T16:44:27.775Z</time></trkpt><trkpt lat="43.7016452" lon="10.3510929"><ele>0.5</ele><time>2026-04-29T16:44:28.775Z</time></trkpt><trkpt lat="43.7013397" lon="10.3511787"><ele>1.0</ele><time>2026-04-29T16:44:29.777Z</time></trkpt><trkpt lat="43.7010346" lon="10.3512637"><ele>1.0</ele><time>2026-04-29T16:44:30.773Z</time></trkpt><trkpt lat="43.7007285" lon="10.3513495"><ele>1.0</ele><time>2026-04-29T16:44:31.78Z</time></trkpt><trkpt lat="43.7004227" lon="10.3514345"><ele>1.0</ele><time>2026-04-29T16:44:32.778Z</time></trkpt><trkpt lat="43.7001164" lon="10.3515194"><ele>1.0</ele><time>2026-04-29T16:44:33.776Z</time></trkpt><trkpt lat="43.6998113" lon="10.3516051"><ele>1.0</ele><time>2026-04-29T16:44:34.776Z</time></trkpt><trkpt lat="43.6995065" lon="10.3516908"><ele>1.0</ele><time>2026-04-29T16:44:35.776Z</time></trkpt><trkpt lat="43.6992024" lon="10.3517761"><ele>1.5</ele><time>2026-04-29T16:44:36.775Z</time></trkpt><trkpt lat="43.6988996" lon="10.3518602"><ele>2.0</ele><time>2026-04-29T16:44:37.778Z</time></trkpt><trkpt lat="43.6985968" lon="10.3519452"><ele>1.0</ele><time>2026-04-29T16:44:38.777Z</time></trkpt><trkpt lat="43.698295" lon="10.3520292"><ele>0.0</ele><time>2026-04-29T16:44:39.775Z</time></trkpt><trkpt lat="43.6979935" lon="10.3521128"><ele>1.0</ele><time>2026-04-29T16:44:40.774Z</time></trkpt><trkpt lat="43.6976949" lon="10.3521976"><ele>2.0</ele><time>2026-04-29T16:44:41.777Z</time></trkpt><trkpt lat="43.6974016" lon="10.3522821"><ele>2.0</ele><time>2026-04-29T16:44:42.776Z</time></trkpt><trkpt lat="43.6971205" lon="10.3523617"><ele>2.0</ele><time>2026-04-29T16:44:43.775Z</time></trkpt><trkpt lat="43.6968437" lon="10.3524391"><ele>2.5</ele><time>2026-04-29T16:44:44.773Z</time></trkpt><trkpt lat="43.6965679" lon="10.352516"><ele>3.0</ele><time>2026-04-29T16:44:45.774Z</time></trkpt><trkpt lat="43.6962942" lon="10.3525931"><ele>3.0</ele><time>2026-04-29T16:44:46.775Z</time></trkpt><trkpt lat="43.6960212" lon="10.3526709"><ele>3.0</ele><time>2026-04-29T16:44:47.774Z</time></trkpt><trkpt lat="43.6957469" lon="10.3527481"><ele>3.0</ele><time>2026-04-29T16:44:48.776Z</time></trkpt><trkpt lat="43.6954729" lon="10.3528246"><ele>3.0</ele><time>2026-04-29T16:44:49.776Z</time></trkpt><trkpt lat="43.6951975" lon="10.3529021"><ele>2.5</ele><time>2026-04-29T16:44:50.777Z</time></trkpt><trkpt lat="43.6949225" lon="10.3529779"><ele>2.0</ele><time>2026-04-29T16:44:51.775Z</time></trkpt><trkpt lat="43.694647" lon="10.3530545"><ele>2.5</ele><time>2026-04-29T16:44:52.774Z</time></trkpt><trkpt lat="43.6943723" lon="10.3531312"><ele>3.0</ele><time>2026-04-29T16:44:53.777Z</time></trkpt><trkpt lat="43.6940991" lon="10.3532071"><ele>3.0</ele><time>2026-04-29T16:44:54.774Z</time></trkpt><trkpt lat="43.6938267" lon="10.3532839"><ele>3.0</ele><time>2026-04-29T16:44:55.775Z</time></trkpt><trkpt lat="43.6935535" lon="10.3533601"><ele>4.5</ele><time>2026-04-29T16:44:56.775Z</time></trkpt><trkpt lat="43.6932799" lon="10.3534372"><ele>6.0</ele><time>2026-04-29T16:44:57.775Z</time></trkpt><trkpt lat="43.6930048" lon="10.3535159"><ele>4.5</ele><time>2026-04-29T16:44:58.776Z</time></trkpt><trkpt lat="43.6927274" lon="10.3535954"><ele>3.0</ele><time>2026-04-29T16:44:59.779Z</time></trkpt><trkpt lat="43.6924485" lon="10.3536746"><ele>3.0</ele><time>2026-04-29T16:45:00.779Z</time></trkpt><trkpt lat="43.6921672" lon="10.3537549"><ele>3.0</ele><time>2026-04-29T16:45:01.774Z</time></trkpt><trkpt lat="43.6918872" lon="10.3538343"><ele>2.0</ele><time>2026-04-29T16:45:02.772Z</time></trkpt><trkpt lat="43.6916129" lon="10.3539119"><ele>1.0</ele><time>2026-04-29T16:45:03.773Z</time></trkpt><trkpt lat="43.6913372" lon="10.3539891"><ele>1.5</ele><time>2026-04-29T16:45:04.776Z</time></trkpt><trkpt lat="43.6910594" lon="10.3540644"><ele>2.0</ele><time>2026-04-29T16:45:05.773Z</time></trkpt><trkpt lat="43.6907787" lon="10.3541351"><ele>2.0</ele><time>2026-04-29T16:45:06.773Z</time></trkpt><trkpt lat="43.6904966" lon="10.3541981"><ele>2.0</ele><time>2026-04-29T16:45:07.776Z</time></trkpt><trkpt lat="43.6902171" lon="10.3542514"><ele>2.5</ele><time>2026-04-29T16:45:08.773Z</time></trkpt><trkpt lat="43.6899393" lon="10.354295"><ele>3.0</ele><time>2026-04-29T16:45:09.775Z</time></trkpt><trkpt lat="43.6896639" lon="10.35433"><ele>2.5</ele><time>2026-04-29T16:45:10.773Z</time></trkpt><trkpt lat="43.6893904" lon="10.3543551"><ele>2.0</ele><time>2026-04-29T16:45:11.774Z</time></trkpt><trkpt lat="43.6891169" lon="10.3543715"><ele>2.0</ele><time>2026-04-29T16:45:12.774Z</time></trkpt><trkpt lat="43.6888407" lon="10.3543841"><ele>2.0</ele><time>2026-04-29T16:45:13.771Z</time></trkpt><trkpt lat="43.6885629" lon="10.3543887"><ele>2.5</ele><time>2026-04-29T16:45:14.772Z</time></trkpt><trkpt lat="43.688285" lon="10.3543862"><ele>3.0</ele><time>2026-04-29T16:45:15.772Z</time></trkpt><trkpt lat="43.6880085" lon="10.3543742"><ele>2.5</ele><time>2026-04-29T16:45:16.773Z</time></trkpt><trkpt lat="43.6877331" lon="10.3543557"><ele>2.0</ele><time>2026-04-29T16:45:17.773Z</time></trkpt><trkpt lat="43.6874585" lon="10.3543316"><ele>2.0</ele><time>2026-04-29T16:45:18.775Z</time></trkpt><trkpt lat="43.6871838" lon="10.3543055"><ele>2.0</ele><time>2026-04-29T16:45:19.775Z</time></trkpt><trkpt lat="43.6866321" lon="10.3542573"><ele>1.5</ele><time>2026-04-29T16:45:21.772Z</time></trkpt><trkpt lat="43.6863562" lon="10.3542346"><ele>1.0</ele><time>2026-04-29T16:45:22.771Z</time></trkpt><trkpt lat="43.6860804" lon="10.3542121"><ele>1.0</ele><time>2026-04-29T16:45:23.772Z</time></trkpt><trkpt lat="43.685805" lon="10.35419"><ele>1.0</ele><time>2026-04-29T16:45:24.774Z</time></trkpt><trkpt lat="43.6855291" lon="10.3541668"><ele>1.0</ele><time>2026-04-29T16:45:25.773Z</time></trkpt><trkpt lat="43.6852529" lon="10.3541424"><ele>1.0</ele><time>2026-04-29T16:45:26.773Z</time></trkpt><trkpt lat="43.6849767" lon="10.3541174"><ele>1.0</ele><time>2026-04-29T16:45:27.777Z</time></trkpt><trkpt lat="43.6847054" lon="10.3540933"><ele>1.0</ele><time>2026-04-29T16:45:28.771Z</time></trkpt><trkpt lat="43.6844231" lon="10.3540658"><ele>0.0</ele><time>2026-04-29T16:45:29.772Z</time></trkpt><trkpt lat="43.684146" lon="10.3540477"><ele>-1.0</ele><time>2026-04-29T16:45:30.772Z</time></trkpt><trkpt lat="43.6838699" lon="10.3540334"><ele>-1.0</ele><time>2026-04-29T16:45:31.774Z</time></trkpt><trkpt lat="43.6835939" lon="10.3540197"><ele>-1.0</ele><time>2026-04-29T16:45:32.772Z</time></trkpt><trkpt lat="43.6833183" lon="10.3540059"><ele>-1.0</ele><time>2026-04-29T16:45:33.771Z</time></trkpt><trkpt lat="43.6830422" lon="10.3539877"><ele>-1.0</ele><time>2026-04-29T16:45:34.773Z</time></trkpt><trkpt lat="43.6827662" lon="10.3539631"><ele>1.0</ele><time>2026-04-29T16:45:35.774Z</time></trkpt><trkpt lat="43.6824904" lon="10.3539409"><ele>3.0</ele><time>2026-04-29T16:45:36.771Z</time></trkpt><trkpt lat="43.6822207" lon="10.3538932"><ele>1.5</ele><time>2026-04-29T16:45:37.773Z</time></trkpt><trkpt lat="43.6819444" lon="10.3538638"><ele>0.0</ele><time>2026-04-29T16:45:38.774Z</time></trkpt><trkpt lat="43.6816679" lon="10.3538356"><ele>0.0</ele><time>2026-04-29T16:45:39.772Z</time></trkpt><trkpt lat="43.6813911" lon="10.3538064"><ele>0.0</ele><time>2026-04-29T16:45:40.773Z</time></trkpt><trkpt lat="43.6811147" lon="10.3537772"><ele>0.0</ele><time>2026-04-29T16:45:41.771Z</time></trkpt><trkpt lat="43.6808387" lon="10.3537474"><ele>0.0</ele><time>2026-04-29T16:45:42.771Z</time></trkpt><trkpt lat="43.6805636" lon="10.3537146"><ele>0.0</ele><time>2026-04-29T16:45:43.772Z</time></trkpt><trkpt lat="43.680289" lon="10.3536846"><ele>0.0</ele><time>2026-04-29T16:45:44.77Z</time></trkpt><trkpt lat="43.680014" lon="10.3536632"><ele>-0.5</ele><time>2026-04-29T16:45:45.771Z</time></trkpt><trkpt lat="43.6797391" lon="10.3536479"><ele>-1.0</ele><time>2026-04-29T16:45:46.773Z</time></trkpt><trkpt lat="43.6794613" lon="10.3536297"><ele>-0.5</ele><time>2026-04-29T16:45:47.772Z</time></trkpt><trkpt lat="43.6791766" lon="10.3536073"><ele>0.0</ele><time>2026-04-29T16:45:48.772Z</time></trkpt><trkpt lat="43.6788914" lon="10.3535838"><ele>0.0</ele><time>2026-04-29T16:45:49.772Z</time></trkpt><trkpt lat="43.6785946" lon="10.3535579"><ele>0.0</ele><time>2026-04-29T16:45:50.772Z</time></trkpt><trkpt lat="43.6782924" lon="10.3535294"><ele>0.0</ele><time>2026-04-29T16:45:51.772Z</time></trkpt><trkpt lat="43.6779853" lon="10.3535009"><ele>0.0</ele><time>2026-04-29T16:45:52.773Z</time></trkpt><trkpt lat="43.6776707" lon="10.3534745"><ele>-0.5</ele><time>2026-04-29T16:45:53.773Z</time></trkpt><trkpt lat="43.6773515" lon="10.3534529"><ele>-1.0</ele><time>2026-04-29T16:45:54.771Z</time></trkpt><trkpt lat="43.6770291" lon="10.3534387"><ele>-1.0</ele><time>2026-04-29T16:45:55.773Z</time></trkpt><trkpt lat="43.6767063" lon="10.353439"><ele>-1.0</ele><time>2026-04-29T16:45:56.773Z</time></trkpt><trkpt lat="43.6763852" lon="10.3534555"><ele>-1.0</ele><time>2026-04-29T16:45:57.774Z</time></trkpt><trkpt lat="43.6760666" lon="10.3534886"><ele>-1.0</ele><time>2026-04-29T16:45:58.773Z</time></trkpt><trkpt lat="43.6757501" lon="10.3535373"><ele>-1.0</ele><time>2026-04-29T16:45:59.776Z</time></trkpt><trkpt lat="43.6754343" lon="10.3536016"><ele>-1.0</ele><time>2026-04-29T16:46:00.775Z</time></trkpt><trkpt lat="43.6751171" lon="10.3536781"><ele>-1.0</ele><time>2026-04-29T16:46:01.772Z</time></trkpt><trkpt lat="43.6747989" lon="10.3537718"><ele>-1.0</ele><time>2026-04-29T16:46:02.775Z</time></trkpt><trkpt lat="43.6744819" lon="10.3538797"><ele>3.5</ele><time>2026-04-29T16:46:03.771Z</time></trkpt><trkpt lat="43.6741701" lon="10.3540058"><ele>8.0</ele><time>2026-04-29T16:46:04.774Z</time></trkpt><trkpt lat="43.6738662" lon="10.3541439"><ele>9.0</ele><time>2026-04-29T16:46:05.773Z</time></trkpt><trkpt lat="43.6735725" lon="10.3543021"><ele>10.0</ele><time>2026-04-29T16:46:06.773Z</time></trkpt><trkpt lat="43.6732869" lon="10.3544778"><ele>10.0</ele><time>2026-04-29T16:46:07.772Z</time></trkpt><trkpt lat="43.6730039" lon="10.3546648"><ele>10.0</ele><time>2026-04-29T16:46:08.771Z</time></trkpt><trkpt lat="43.672725" lon="10.3548599"><ele>6.0</ele><time>2026-04-29T16:46:09.772Z</time></trkpt><trkpt lat="43.6724471" lon="10.3550664"><ele>2.0</ele><time>2026-04-29T16:46:10.771Z</time></trkpt><trkpt lat="43.6721781" lon="10.3552902"><ele>2.0</ele><time>2026-04-29T16:46:11.773Z</time></trkpt><trkpt lat="43.6719142" lon="10.355527"><ele>2.0</ele><time>2026-04-29T16:46:12.773Z</time></trkpt><trkpt lat="43.6716541" lon="10.3557727"><ele>0.0</ele><time>2026-04-29T16:46:13.775Z</time></trkpt><trkpt lat="43.6713953" lon="10.3560311"><ele>-2.0</ele><time>2026-04-29T16:46:14.772Z</time></trkpt><trkpt lat="43.6711432" lon="10.3562964"><ele>-1.0</ele><time>2026-04-29T16:46:15.77Z</time></trkpt><trkpt lat="43.6708985" lon="10.3565712"><ele>0.0</ele><time>2026-04-29T16:46:16.772Z</time></trkpt><trkpt lat="43.6706609" lon="10.356852"><ele>0.0</ele><time>2026-04-29T16:46:17.774Z</time></trkpt><trkpt lat="43.6704204" lon="10.3571337"><ele>0.0</ele><time>2026-04-29T16:46:18.772Z</time></trkpt><trkpt lat="43.6701784" lon="10.3574127"><ele>0.5</ele><time>2026-04-29T16:46:19.772Z</time></trkpt><trkpt lat="43.6699348" lon="10.3576874"><ele>1.0</ele><time>2026-04-29T16:46:20.773Z</time></trkpt><trkpt lat="43.6696946" lon="10.3579554"><ele>1.5</ele><time>2026-04-29T16:46:21.772Z</time></trkpt><trkpt lat="43.6694615" lon="10.3582185"><ele>2.0</ele><time>2026-04-29T16:46:22.773Z</time></trkpt><trkpt lat="43.6692344" lon="10.358481"><ele>2.0</ele><time>2026-04-29T16:46:23.776Z</time></trkpt><trkpt lat="43.6690108" lon="10.3587376"><ele>2.0</ele><time>2026-04-29T16:46:24.771Z</time></trkpt><trkpt lat="43.6687924" lon="10.3589924"><ele>2.5</ele><time>2026-04-29T16:46:25.77Z</time></trkpt><trkpt lat="43.6685755" lon="10.3592443"><ele>3.0</ele><time>2026-04-29T16:46:26.771Z</time></trkpt><trkpt lat="43.6683544" lon="10.359497"><ele>3.5</ele><time>2026-04-29T16:46:27.772Z</time></trkpt><trkpt lat="43.6681359" lon="10.3597502"><ele>4.0</ele><time>2026-04-29T16:46:28.771Z</time></trkpt><trkpt lat="43.6679168" lon="10.3600105"><ele>4.0</ele><time>2026-04-29T16:46:29.773Z</time></trkpt><trkpt lat="43.6676953" lon="10.360274"><ele>4.0</ele><time>2026-04-29T16:46:30.771Z</time></trkpt><trkpt lat="43.6674722" lon="10.3605393"><ele>4.0</ele><time>2026-04-29T16:46:31.773Z</time></trkpt><trkpt lat="43.6672503" lon="10.3608047"><ele>4.0</ele><time>2026-04-29T16:46:32.772Z</time></trkpt><trkpt lat="43.6670239" lon="10.3610694"><ele>3.5</ele><time>2026-04-29T16:46:33.772Z</time></trkpt><trkpt lat="43.6667946" lon="10.3613338"><ele>3.0</ele><time>2026-04-29T16:46:34.771Z</time></trkpt><trkpt lat="43.6665648" lon="10.3616"><ele>3.0</ele><time>2026-04-29T16:46:35.775Z</time></trkpt><trkpt lat="43.6663327" lon="10.3618713"><ele>3.0</ele><time>2026-04-29T16:46:36.772Z</time></trkpt><trkpt lat="43.6660998" lon="10.3621487"><ele>3.0</ele><time>2026-04-29T16:46:37.774Z</time></trkpt><trkpt lat="43.6658653" lon="10.3624281"><ele>3.0</ele><time>2026-04-29T16:46:38.771Z</time></trkpt><trkpt lat="43.665629" lon="10.3627107"><ele>3.0</ele><time>2026-04-29T16:46:39.773Z</time></trkpt><trkpt lat="43.665394" lon="10.3629907"><ele>3.0</ele><time>2026-04-29T16:46:40.774Z</time></trkpt><trkpt lat="43.6651585" lon="10.3632678"><ele>4.0</ele><time>2026-04-29T16:46:41.771Z</time></trkpt><trkpt lat="43.6649231" lon="10.3635433"><ele>5.0</ele><time>2026-04-29T16:46:42.774Z</time></trkpt><trkpt lat="43.6646889" lon="10.3638185"><ele>4.0</ele><time>2026-04-29T16:46:43.773Z</time></trkpt><trkpt lat="43.6644552" lon="10.3640937"><ele>3.0</ele><time>2026-04-29T16:46:44.773Z</time></trkpt><trkpt lat="43.6642228" lon="10.3643703"><ele>3.5</ele><time>2026-04-29T16:46:45.774Z</time></trkpt><trkpt lat="43.6639933" lon="10.3646429"><ele>4.0</ele><time>2026-04-29T16:46:46.772Z</time></trkpt><trkpt lat="43.6637683" lon="10.3649101"><ele>4.5</ele><time>2026-04-29T16:46:47.773Z</time></trkpt><trkpt lat="43.6635457" lon="10.3651746"><ele>5.0</ele><time>2026-04-29T16:46:48.773Z</time></trkpt><trkpt lat="43.663326" lon="10.3654354"><ele>5.0</ele><time>2026-04-29T16:46:49.77Z</time></trkpt><trkpt lat="43.6631078" lon="10.365694"><ele>5.0</ele><time>2026-04-29T16:46:50.773Z</time></trkpt><trkpt lat="43.6628906" lon="10.3659496"><ele>4.0</ele><time>2026-04-29T16:46:51.772Z</time></trkpt><trkpt lat="43.66267" lon="10.3662"><ele>3.0</ele><time>2026-04-29T16:46:52.772Z</time></trkpt><trkpt lat="43.6624468" lon="10.3664406"><ele>3.0</ele><time>2026-04-29T16:46:53.772Z</time></trkpt><trkpt lat="43.662218" lon="10.3666757"><ele>3.0</ele><time>2026-04-29T16:46:54.771Z</time></trkpt><trkpt lat="43.6619843" lon="10.3669014"><ele>3.0</ele><time>2026-04-29T16:46:55.773Z</time></trkpt><trkpt lat="43.6617473" lon="10.3671215"><ele>3.0</ele><time>2026-04-29T16:46:56.772Z</time></trkpt><trkpt lat="43.6615087" lon="10.367337"><ele>3.0</ele><time>2026-04-29T16:46:57.773Z</time></trkpt><trkpt lat="43.6612671" lon="10.3675469"><ele>3.0</ele><time>2026-04-29T16:46:58.772Z</time></trkpt><trkpt lat="43.6610223" lon="10.3677516"><ele>3.0</ele><time>2026-04-29T16:46:59.774Z</time></trkpt><trkpt lat="43.6607701" lon="10.3679484"><ele>3.0</ele><time>2026-04-29T16:47:00.772Z</time></trkpt><trkpt lat="43.6605112" lon="10.368142"><ele>2.5</ele><time>2026-04-29T16:47:01.775Z</time></trkpt><trkpt lat="43.660246" lon="10.3683316"><ele>2.0</ele><time>2026-04-29T16:47:02.773Z</time></trkpt><trkpt lat="43.6599737" lon="10.3685153"><ele>2.0</ele><time>2026-04-29T16:47:03.774Z</time></trkpt><trkpt lat="43.6596945" lon="10.3686919"><ele>2.0</ele><time>2026-04-29T16:47:04.771Z</time></trkpt><trkpt lat="43.6594125" lon="10.3688584"><ele>0.5</ele><time>2026-04-29T16:47:05.771Z</time></trkpt><trkpt lat="43.6591292" lon="10.3690163"><ele>-1.0</ele><time>2026-04-29T16:47:06.771Z</time></trkpt><trkpt lat="43.6588443" lon="10.3691671"><ele>-1.0</ele><time>2026-04-29T16:47:07.773Z</time></trkpt><trkpt lat="43.6585556" lon="10.3693094"><ele>-1.0</ele><time>2026-04-29T16:47:08.772Z</time></trkpt><trkpt lat="43.6582643" lon="10.3694424"><ele>-1.0</ele><time>2026-04-29T16:47:09.772Z</time></trkpt><trkpt lat="43.6579674" lon="10.3695682"><ele>-1.0</ele><time>2026-04-29T16:47:10.773Z</time></trkpt><trkpt lat="43.6576694" lon="10.3696854"><ele>-1.5</ele><time>2026-04-29T16:47:11.771Z</time></trkpt><trkpt lat="43.6573696" lon="10.3697922"><ele>-2.0</ele><time>2026-04-29T16:47:12.772Z</time></trkpt><trkpt lat="43.6570668" lon="10.3698893"><ele>-1.5</ele><time>2026-04-29T16:47:13.776Z</time></trkpt><trkpt lat="43.656763" lon="10.3699767"><ele>-1.0</ele><time>2026-04-29T16:47:14.772Z</time></trkpt><trkpt lat="43.6564569" lon="10.3700568"><ele>-1.0</ele><time>2026-04-29T16:47:15.775Z</time></trkpt><trkpt lat="43.6561455" lon="10.3701304"><ele>-1.0</ele><time>2026-04-29T16:47:16.771Z</time></trkpt><trkpt lat="43.655834" lon="10.3701953"><ele>-1.0</ele><time>2026-04-29T16:47:17.773Z</time></trkpt><trkpt lat="43.6555204" lon="10.3702489"><ele>-1.0</ele><time>2026-04-29T16:47:18.773Z</time></trkpt><trkpt lat="43.6552068" lon="10.3702907"><ele>-0.5</ele><time>2026-04-29T16:47:19.773Z</time></trkpt><trkpt lat="43.6548941" lon="10.3703178"><ele>0.0</ele><time>2026-04-29T16:47:20.771Z</time></trkpt><trkpt lat="43.654582" lon="10.3703327"><ele>3.5</ele><time>2026-04-29T16:47:21.773Z</time></trkpt><trkpt lat="43.6542685" lon="10.3703324"><ele>7.0</ele><time>2026-04-29T16:47:22.773Z</time></trkpt><trkpt lat="43.6539536" lon="10.3703177"><ele>7.0</ele><time>2026-04-29T16:47:23.772Z</time></trkpt><trkpt lat="43.6536391" lon="10.3702936"><ele>7.0</ele><time>2026-04-29T16:47:24.773Z</time></trkpt><trkpt lat="43.6533226" lon="10.3702603"><ele>6.0</ele><time>2026-04-29T16:47:25.773Z</time></trkpt><trkpt lat="43.6530109" lon="10.3702213"><ele>5.0</ele><time>2026-04-29T16:47:26.772Z</time></trkpt><trkpt lat="43.6527041" lon="10.3701745"><ele>3.5</ele><time>2026-04-29T16:47:27.772Z</time></trkpt><trkpt lat="43.6524008" lon="10.3701221"><ele>2.0</ele><time>2026-04-29T16:47:28.773Z</time></trkpt><trkpt lat="43.6521014" lon="10.370061"><ele>1.5</ele><time>2026-04-29T16:47:29.775Z</time></trkpt><trkpt lat="43.6518041" lon="10.369991"><ele>1.0</ele><time>2026-04-29T16:47:30.773Z</time></trkpt><trkpt lat="43.6515066" lon="10.3699115"><ele>1.0</ele><time>2026-04-29T16:47:31.772Z</time></trkpt><trkpt lat="43.6512095" lon="10.3698227"><ele>1.0</ele><time>2026-04-29T16:47:32.773Z</time></trkpt><trkpt lat="43.6509113" lon="10.369725"><ele>1.0</ele><time>2026-04-29T16:47:33.772Z</time></trkpt><trkpt lat="43.650617" lon="10.3696164"><ele>1.0</ele><time>2026-04-29T16:47:34.773Z</time></trkpt><trkpt lat="43.6503229" lon="10.3694999"><ele>1.0</ele><time>2026-04-29T16:47:35.772Z</time></trkpt><trkpt lat="43.6500344" lon="10.369372"><ele>1.0</ele><time>2026-04-29T16:47:36.771Z</time></trkpt><trkpt lat="43.6497495" lon="10.3692365"><ele>1.0</ele><time>2026-04-29T16:47:37.771Z</time></trkpt><trkpt lat="43.649476" lon="10.3690979"><ele>1.0</ele><time>2026-04-29T16:47:38.77Z</time></trkpt><trkpt lat="43.6492166" lon="10.3689549"><ele>1.5</ele><time>2026-04-29T16:47:39.771Z</time></trkpt><trkpt lat="43.6489675" lon="10.3688112"><ele>2.0</ele><time>2026-04-29T16:47:40.771Z</time></trkpt><trkpt lat="43.6487241" lon="10.3686667"><ele>2.5</ele><time>2026-04-29T16:47:41.773Z</time></trkpt><trkpt lat="43.6484809" lon="10.3685202"><ele>3.0</ele><time>2026-04-29T16:47:42.771Z</time></trkpt><trkpt lat="43.6482346" lon="10.3683665"><ele>3.0</ele><time>2026-04-29T16:47:43.771Z</time></trkpt><trkpt lat="43.6479824" lon="10.3681987"><ele>3.0</ele><time>2026-04-29T16:47:44.77Z</time></trkpt><trkpt lat="43.6477248" lon="10.3680179"><ele>1.0</ele><time>2026-04-29T16:47:45.77Z</time></trkpt><trkpt lat="43.6474657" lon="10.3678216"><ele>-1.0</ele><time>2026-04-29T16:47:46.771Z</time></trkpt><trkpt lat="43.6472087" lon="10.3676182"><ele>-1.0</ele><time>2026-04-29T16:47:47.772Z</time></trkpt><trkpt lat="43.6469539" lon="10.3674"><ele>-1.0</ele><time>2026-04-29T16:47:48.772Z</time></trkpt><trkpt lat="43.6466983" lon="10.367174"><ele>-2.0</ele><time>2026-04-29T16:47:49.771Z</time></trkpt><trkpt lat="43.6464481" lon="10.366938"><ele>-3.0</ele><time>2026-04-29T16:47:50.772Z</time></trkpt><trkpt lat="43.6461969" lon="10.3666989"><ele>-2.5</ele><time>2026-04-29T16:47:51.771Z</time></trkpt><trkpt lat="43.645944" lon="10.3664615"><ele>-2.0</ele><time>2026-04-29T16:47:52.77Z</time></trkpt><trkpt lat="43.645691" lon="10.3662193"><ele>-2.0</ele><time>2026-04-29T16:47:53.772Z</time></trkpt><trkpt lat="43.6454376" lon="10.3659763"><ele>-2.0</ele><time>2026-04-29T16:47:54.772Z</time></trkpt><trkpt lat="43.6451816" lon="10.365732"><ele>-1.5</ele><time>2026-04-29T16:47:55.774Z</time></trkpt><trkpt lat="43.6449266" lon="10.365491"><ele>-1.0</ele><time>2026-04-29T16:47:56.771Z</time></trkpt><trkpt lat="43.6446744" lon="10.3652472"><ele>-0.5</ele><time>2026-04-29T16:47:57.771Z</time></trkpt><trkpt lat="43.6444205" lon="10.3650045"><ele>0.0</ele><time>2026-04-29T16:47:58.774Z</time></trkpt><trkpt lat="43.6441665" lon="10.3647619"><ele>-0.5</ele><time>2026-04-29T16:47:59.772Z</time></trkpt><trkpt lat="43.6439148" lon="10.3645156"><ele>-1.0</ele><time>2026-04-29T16:48:00.771Z</time></trkpt><trkpt lat="43.6436702" lon="10.3642756"><ele>-1.5</ele><time>2026-04-29T16:48:01.772Z</time></trkpt><trkpt lat="43.6434239" lon="10.3640328"><ele>-2.0</ele><time>2026-04-29T16:48:02.77Z</time></trkpt><trkpt lat="43.643176" lon="10.3637922"><ele>-2.0</ele><time>2026-04-29T16:48:03.769Z</time></trkpt><trkpt lat="43.6429284" lon="10.3635529"><ele>-2.0</ele><time>2026-04-29T16:48:04.772Z</time></trkpt><trkpt lat="43.642682" lon="10.3633151"><ele>-2.5</ele><time>2026-04-29T16:48:05.77Z</time></trkpt><trkpt lat="43.6424353" lon="10.3630747"><ele>-3.0</ele><time>2026-04-29T16:48:06.775Z</time></trkpt><trkpt lat="43.6421885" lon="10.3628337"><ele>-2.0</ele><time>2026-04-29T16:48:07.77Z</time></trkpt><trkpt lat="43.6419417" lon="10.3625964"><ele>-1.0</ele><time>2026-04-29T16:48:08.771Z</time></trkpt><trkpt lat="43.6416946" lon="10.3623603"><ele>-1.0</ele><time>2026-04-29T16:48:09.771Z</time></trkpt><trkpt lat="43.6414489" lon="10.3621245"><ele>-1.0</ele><time>2026-04-29T16:48:10.768Z</time></trkpt><trkpt lat="43.6412026" lon="10.3618879"><ele>-1.0</ele><time>2026-04-29T16:48:11.773Z</time></trkpt><trkpt lat="43.6409538" lon="10.3616506"><ele>-1.0</ele><time>2026-04-29T16:48:12.771Z</time></trkpt><trkpt lat="43.6407051" lon="10.3614139"><ele>-1.5</ele><time>2026-04-29T16:48:13.772Z</time></trkpt><trkpt lat="43.6404545" lon="10.3611757"><ele>-2.0</ele><time>2026-04-29T16:48:14.77Z</time></trkpt><trkpt lat="43.6402036" lon="10.360939"><ele>-2.0</ele><time>2026-04-29T16:48:15.771Z</time></trkpt><trkpt lat="43.6399521" lon="10.3607032"><ele>-2.0</ele><time>2026-04-29T16:48:16.771Z</time></trkpt><trkpt lat="43.6396997" lon="10.3604674"><ele>0.0</ele><time>2026-04-29T16:48:17.771Z</time></trkpt><trkpt lat="43.639449" lon="10.3602332"><ele>2.0</ele><time>2026-04-29T16:48:18.771Z</time></trkpt><trkpt lat="43.639194" lon="10.3600015"><ele>2.0</ele><time>2026-04-29T16:48:19.772Z</time></trkpt><trkpt lat="43.6389346" lon="10.3597763"><ele>2.0</ele><time>2026-04-29T16:48:20.772Z</time></trkpt><trkpt lat="43.6386728" lon="10.3595583"><ele>2.0</ele><time>2026-04-29T16:48:21.772Z</time></trkpt><trkpt lat="43.6384059" lon="10.359347"><ele>2.0</ele><time>2026-04-29T16:48:22.772Z</time></trkpt><trkpt lat="43.6381315" lon="10.3591407"><ele>2.0</ele><time>2026-04-29T16:48:23.772Z</time></trkpt><trkpt lat="43.6378515" lon="10.3589413"><ele>2.0</ele><time>2026-04-29T16:48:24.77Z</time></trkpt><trkpt lat="43.6375673" lon="10.3587487"><ele>3.0</ele><time>2026-04-29T16:48:25.769Z</time></trkpt><trkpt lat="43.6372819" lon="10.3585653"><ele>4.0</ele><time>2026-04-29T16:48:26.774Z</time></trkpt><trkpt lat="43.6370072" lon="10.3583962"><ele>4.5</ele><time>2026-04-29T16:48:27.773Z</time></trkpt><trkpt lat="43.6367368" lon="10.3582368"><ele>5.0</ele><time>2026-04-29T16:48:28.773Z</time></trkpt><trkpt lat="43.6364684" lon="10.3580885"><ele>5.5</ele><time>2026-04-29T16:48:29.771Z</time></trkpt><trkpt lat="43.6362025" lon="10.357948"><ele>6.0</ele><time>2026-04-29T16:48:30.771Z</time></trkpt><trkpt lat="43.6359409" lon="10.3578156"><ele>3.5</ele><time>2026-04-29T16:48:31.772Z</time></trkpt><trkpt lat="43.6356818" lon="10.3576905"><ele>1.0</ele><time>2026-04-29T16:48:32.773Z</time></trkpt><trkpt lat="43.6354218" lon="10.3575742"><ele>1.5</ele><time>2026-04-29T16:48:33.77Z</time></trkpt><trkpt lat="43.6351629" lon="10.3574713"><ele>2.0</ele><time>2026-04-29T16:48:34.771Z</time></trkpt><trkpt lat="43.6349127" lon="10.3573796"><ele>2.0</ele><time>2026-04-29T16:48:35.771Z</time></trkpt><trkpt lat="43.6346678" lon="10.3572986"><ele>2.0</ele><time>2026-04-29T16:48:36.77Z</time></trkpt><trkpt lat="43.6344344" lon="10.3572263"><ele>1.0</ele><time>2026-04-29T16:48:37.773Z</time></trkpt><trkpt lat="43.6341963" lon="10.3571589"><ele>0.0</ele><time>2026-04-29T16:48:38.772Z</time></trkpt><trkpt lat="43.6339506" lon="10.3570981"><ele>0.0</ele><time>2026-04-29T16:48:39.772Z</time></trkpt><trkpt lat="43.6337016" lon="10.3570433"><ele>0.0</ele><time>2026-04-29T16:48:40.771Z</time></trkpt><trkpt lat="43.6334475" lon="10.3569933"><ele>1.5</ele><time>2026-04-29T16:48:41.771Z</time></trkpt><trkpt lat="43.6331925" lon="10.3569497"><ele>3.0</ele><time>2026-04-29T16:48:42.772Z</time></trkpt><trkpt lat="43.6329339" lon="10.3569098"><ele>2.5</ele><time>2026-04-29T16:48:43.775Z</time></trkpt><trkpt lat="43.6326761" lon="10.3568773"><ele>2.0</ele><time>2026-04-29T16:48:44.773Z</time></trkpt><trkpt lat="43.6324148" lon="10.3568522"><ele>2.0</ele><time>2026-04-29T16:48:45.775Z</time></trkpt><trkpt lat="43.6321485" lon="10.356835"><ele>2.0</ele><time>2026-04-29T16:48:46.772Z</time></trkpt><trkpt lat="43.6318785" lon="10.3568252"><ele>2.0</ele><time>2026-04-29T16:48:47.771Z</time></trkpt><trkpt lat="43.6316065" lon="10.3568176"><ele>2.0</ele><time>2026-04-29T16:48:48.771Z</time></trkpt><trkpt lat="43.6313303" lon="10.3568153"><ele>2.0</ele><time>2026-04-29T16:48:49.771Z</time></trkpt><trkpt lat="43.6310545" lon="10.3568171"><ele>2.0</ele><time>2026-04-29T16:48:50.773Z</time></trkpt><trkpt lat="43.6307728" lon="10.3568152"><ele>2.0</ele><time>2026-04-29T16:48:51.77Z</time></trkpt><trkpt lat="43.6304937" lon="10.3568112"><ele>2.0</ele><time>2026-04-29T16:48:52.772Z</time></trkpt><trkpt lat="43.6302153" lon="10.3568035"><ele>1.0</ele><time>2026-04-29T16:48:53.771Z</time></trkpt><trkpt lat="43.6299386" lon="10.3567973"><ele>0.0</ele><time>2026-04-29T16:48:54.771Z</time></trkpt><trkpt lat="43.6296622" lon="10.3567949"><ele>-0.5</ele><time>2026-04-29T16:48:55.772Z</time></trkpt><trkpt lat="43.6293886" lon="10.3567981"><ele>-1.0</ele><time>2026-04-29T16:48:56.776Z</time></trkpt><trkpt lat="43.6291205" lon="10.3567985"><ele>-1.0</ele><time>2026-04-29T16:48:57.772Z</time></trkpt><trkpt lat="43.6288484" lon="10.3567964"><ele>-1.0</ele><time>2026-04-29T16:48:58.772Z</time></trkpt><trkpt lat="43.6285708" lon="10.3567941"><ele>-1.0</ele><time>2026-04-29T16:48:59.774Z</time></trkpt><trkpt lat="43.6282909" lon="10.3567952"><ele>-1.0</ele><time>2026-04-29T16:49:00.772Z</time></trkpt><trkpt lat="43.628023" lon="10.356796"><ele>-1.0</ele><time>2026-04-29T16:49:01.772Z</time></trkpt><trkpt lat="43.6277572" lon="10.3567962"><ele>-1.0</ele><time>2026-04-29T16:49:02.771Z</time></trkpt><trkpt lat="43.6274939" lon="10.3567947"><ele>-1.0</ele><time>2026-04-29T16:49:03.773Z</time></trkpt><trkpt lat="43.6272315" lon="10.3567943"><ele>-1.0</ele><time>2026-04-29T16:49:04.773Z</time></trkpt><trkpt lat="43.6269712" lon="10.3567928"><ele>0.5</ele><time>2026-04-29T16:49:05.771Z</time></trkpt><trkpt lat="43.6267111" lon="10.35679"><ele>2.0</ele><time>2026-04-29T16:49:06.771Z</time></trkpt><trkpt lat="43.6264562" lon="10.3567848"><ele>2.0</ele><time>2026-04-29T16:49:07.771Z</time></trkpt><trkpt lat="43.6261993" lon="10.3567811"><ele>2.0</ele><time>2026-04-29T16:49:08.771Z</time></trkpt><trkpt lat="43.6259434" lon="10.3567789"><ele>2.0</ele><time>2026-04-29T16:49:09.772Z</time></trkpt><trkpt lat="43.6256858" lon="10.3567748"><ele>2.0</ele><time>2026-04-29T16:49:10.772Z</time></trkpt><trkpt lat="43.6254299" lon="10.3567741"><ele>2.0</ele><time>2026-04-29T16:49:11.77Z</time></trkpt><trkpt lat="43.625171" lon="10.3567725"><ele>2.0</ele><time>2026-04-29T16:49:12.772Z</time></trkpt><trkpt lat="43.6249111" lon="10.3567697"><ele>2.0</ele><time>2026-04-29T16:49:13.77Z</time></trkpt><trkpt lat="43.6246521" lon="10.3567629"><ele>2.0</ele><time>2026-04-29T16:49:14.771Z</time></trkpt><trkpt lat="43.6243941" lon="10.35676"><ele>2.0</ele><time>2026-04-29T16:49:15.771Z</time></trkpt><trkpt lat="43.6241369" lon="10.35676"><ele>2.0</ele><time>2026-04-29T16:49:16.771Z</time></trkpt><trkpt lat="43.6238786" lon="10.3567594"><ele>3.5</ele><time>2026-04-29T16:49:17.77Z</time></trkpt><trkpt lat="43.6236214" lon="10.3567584"><ele>5.0</ele><time>2026-04-29T16:49:18.775Z</time></trkpt><trkpt lat="43.6233672" lon="10.3567528"><ele>5.0</ele><time>2026-04-29T16:49:19.771Z</time></trkpt><trkpt lat="43.6231099" lon="10.3567494"><ele>5.0</ele><time>2026-04-29T16:49:20.771Z</time></trkpt><trkpt lat="43.6228524" lon="10.3567472"><ele>5.5</ele><time>2026-04-29T16:49:21.771Z</time></trkpt><trkpt lat="43.6225955" lon="10.3567461"><ele>6.0</ele><time>2026-04-29T16:49:22.771Z</time></trkpt><trkpt lat="43.6223475" lon="10.3567471"><ele>6.0</ele><time>2026-04-29T16:49:23.772Z</time></trkpt><trkpt lat="43.6220997" lon="10.3567428"><ele>6.0</ele><time>2026-04-29T16:49:24.769Z</time></trkpt><trkpt lat="43.6218507" lon="10.3567376"><ele>6.0</ele><time>2026-04-29T16:49:25.771Z</time></trkpt><trkpt lat="43.6216088" lon="10.356735"><ele>6.0</ele><time>2026-04-29T16:49:26.773Z</time></trkpt><trkpt lat="43.6213777" lon="10.3567317"><ele>6.0</ele><time>2026-04-29T16:49:27.771Z</time></trkpt><trkpt lat="43.6211579" lon="10.3567283"><ele>6.0</ele><time>2026-04-29T16:49:28.77Z</time></trkpt><trkpt lat="43.6209472" lon="10.3567267"><ele>6.0</ele><time>2026-04-29T16:49:29.771Z</time></trkpt><trkpt lat="43.6207361" lon="10.356725"><ele>5.666666666666667</ele><time>2026-04-29T16:49:30.771Z</time></trkpt><trkpt lat="43.62052" lon="10.3567227"><ele>5.333333333333334</ele><time>2026-04-29T16:49:31.779Z</time></trkpt><trkpt lat="43.6202943" lon="10.3567186"><ele>5.0</ele><time>2026-04-29T16:49:32.773Z</time></trkpt><trkpt lat="43.6200605" lon="10.3567146"><ele>4.0</ele><time>2026-04-29T16:49:33.77Z</time></trkpt><trkpt lat="43.6198193" lon="10.3567107"><ele>3.0</ele><time>2026-04-29T16:49:34.77Z</time></trkpt><trkpt lat="43.6195682" lon="10.3567028"><ele>4.0</ele><time>2026-04-29T16:49:35.778Z</time></trkpt><trkpt lat="43.6193092" lon="10.3566976"><ele>5.0</ele><time>2026-04-29T16:49:36.773Z</time></trkpt><trkpt lat="43.6190421" lon="10.356696"><ele>5.0</ele><time>2026-04-29T16:49:37.779Z</time></trkpt><trkpt lat="43.6187735" lon="10.3566939"><ele>5.0</ele><time>2026-04-29T16:49:38.771Z</time></trkpt><trkpt lat="43.618498" lon="10.3566917"><ele>5.5</ele><time>2026-04-29T16:49:39.778Z</time></trkpt><trkpt lat="43.6182205" lon="10.3566894"><ele>6.0</ele><time>2026-04-29T16:49:40.772Z</time></trkpt><trkpt lat="43.6179597" lon="10.3566836"><ele>5.5</ele><time>2026-04-29T16:49:41.778Z</time></trkpt><trkpt lat="43.6177079" lon="10.3566727"><ele>5.0</ele><time>2026-04-29T16:49:42.775Z</time></trkpt><trkpt lat="43.6174586" lon="10.3566638"><ele>5.0</ele><time>2026-04-29T16:49:43.773Z</time></trkpt><trkpt lat="43.617209" lon="10.3566614"><ele>5.0</ele><time>2026-04-29T16:49:44.772Z</time></trkpt><trkpt lat="43.6169564" lon="10.3566626"><ele>2.5</ele><time>2026-04-29T16:49:45.777Z</time></trkpt><trkpt lat="43.6167012" lon="10.3566684"><ele>0.0</ele><time>2026-04-29T16:49:46.771Z</time></trkpt><trkpt lat="43.6164532" lon="10.3566801"><ele>0.0</ele><time>2026-04-29T16:49:47.771Z</time></trkpt><trkpt lat="43.6162045" lon="10.3566984"><ele>0.0</ele><time>2026-04-29T16:49:48.782Z</time></trkpt><trkpt lat="43.6159549" lon="10.3567189"><ele>0.5</ele><time>2026-04-29T16:49:49.776Z</time></trkpt><trkpt lat="43.6157091" lon="10.3567391"><ele>1.0</ele><time>2026-04-29T16:49:50.773Z</time></trkpt><trkpt lat="43.6154741" lon="10.356755"><ele>2.3333333333333335</ele><time>2026-04-29T16:49:51.772Z</time></trkpt><trkpt lat="43.6152494" lon="10.3567713"><ele>3.666666666666667</ele><time>2026-04-29T16:49:52.772Z</time></trkpt><trkpt lat="43.6150353" lon="10.3567855"><ele>5.0</ele><time>2026-04-29T16:49:53.772Z</time></trkpt><trkpt lat="43.6148319" lon="10.356796"><ele>5.0</ele><time>2026-04-29T16:49:54.771Z</time></trkpt><trkpt lat="43.6146374" lon="10.3567997"><ele>5.0</ele><time>2026-04-29T16:49:55.771Z</time></trkpt><trkpt lat="43.6144521" lon="10.3568003"><ele>5.0</ele><time>2026-04-29T16:49:56.774Z</time></trkpt><trkpt lat="43.6142753" lon="10.3567985"><ele>5.0</ele><time>2026-04-29T16:49:57.771Z</time></trkpt><trkpt lat="43.6141027" lon="10.3567902"><ele>5.0</ele><time>2026-04-29T16:49:58.771Z</time></trkpt><trkpt lat="43.6139343" lon="10.3567773"><ele>5.0</ele><time>2026-04-29T16:49:59.777Z</time></trkpt><trkpt lat="43.6137726" lon="10.3567622"><ele>4.666666666666667</ele><time>2026-04-29T16:50:00.772Z</time></trkpt><trkpt lat="43.6136113" lon="10.356744"><ele>4.333333333333333</ele><time>2026-04-29T16:50:01.77Z</time></trkpt><trkpt lat="43.6134587" lon="10.3567242"><ele>4.0</ele><time>2026-04-29T16:50:02.773Z</time></trkpt><trkpt lat="43.6133095" lon="10.3567045"><ele>4.0</ele><time>2026-04-29T16:50:03.772Z</time></trkpt><trkpt lat="43.6131559" lon="10.3566875"><ele>4.0</ele><time>2026-04-29T16:50:04.771Z</time></trkpt><trkpt lat="43.6129934" lon="10.3566721"><ele>4.0</ele><time>2026-04-29T16:50:05.778Z</time></trkpt><trkpt lat="43.6128169" lon="10.3566603"><ele>3.333333333333333</ele><time>2026-04-29T16:50:06.77Z</time></trkpt><trkpt lat="43.6126271" lon="10.3566524"><ele>2.6666666666666665</ele><time>2026-04-29T16:50:07.776Z</time></trkpt><trkpt lat="43.6124312" lon="10.3566477"><ele>2.0</ele><time>2026-04-29T16:50:08.771Z</time></trkpt><trkpt lat="43.612225" lon="10.3566444"><ele>2.0</ele><time>2026-04-29T16:50:09.771Z</time></trkpt><trkpt lat="43.6120155" lon="10.3566434"><ele>2.0</ele><time>2026-04-29T16:50:10.771Z</time></trkpt><trkpt lat="43.6118018" lon="10.3566423"><ele>2.0</ele><time>2026-04-29T16:50:11.77Z</time></trkpt><trkpt lat="43.6115963" lon="10.3566421"><ele>1.6666666666666665</ele><time>2026-04-29T16:50:12.771Z</time></trkpt><trkpt lat="43.6113983" lon="10.3566415"><ele>1.3333333333333333</ele><time>2026-04-29T16:50:13.773Z</time></trkpt><trkpt lat="43.6112155" lon="10.3566419"><ele>1.0</ele><time>2026-04-29T16:50:14.774Z</time></trkpt><trkpt lat="43.6110426" lon="10.3566431"><ele>0.25</ele><time>2026-04-29T16:50:15.777Z</time></trkpt><trkpt lat="43.6108823" lon="10.3566481"><ele>-0.5</ele><time>2026-04-29T16:50:16.77Z</time></trkpt><trkpt lat="43.6107353" lon="10.3566524"><ele>-1.25</ele><time>2026-04-29T16:50:17.77Z</time></trkpt><trkpt lat="43.6106027" lon="10.3566545"><ele>-2.0</ele><time>2026-04-29T16:50:18.771Z</time></trkpt><trkpt lat="43.610486" lon="10.3566541"><ele>-2.0</ele><time>2026-04-29T16:50:19.777Z</time></trkpt><trkpt lat="43.6103862" lon="10.3566544"><ele>-2.0</ele><time>2026-04-29T16:50:20.779Z</time></trkpt><trkpt lat="43.6103011" lon="10.3566582"><ele>-2.0</ele><time>2026-04-29T16:50:21.778Z</time></trkpt><trkpt lat="43.6102238" lon="10.3566613"><ele>-2.0</ele><time>2026-04-29T16:50:22.771Z</time></trkpt><trkpt lat="43.6101068" lon="10.3566654"><ele>-2.0</ele><time>2026-04-29T16:50:24.769Z</time></trkpt><trkpt lat="43.6100017" lon="10.3566709"><ele>-1.8</ele><time>2026-04-29T16:50:26.772Z</time></trkpt><trkpt lat="43.6098835" lon="10.3566776"><ele>-1.6</ele><time>2026-04-29T16:50:28.771Z</time></trkpt><trkpt lat="43.6098188" lon="10.3566802"><ele>-1.4000000000000001</ele><time>2026-04-29T16:50:29.777Z</time></trkpt><trkpt lat="43.6097172" lon="10.3566893"><ele>-1.2000000000000002</ele><time>2026-04-29T16:50:31.776Z</time></trkpt><trkpt lat="43.6096214" lon="10.3567058"><ele>-1.0</ele><time>2026-04-29T16:50:33.774Z</time></trkpt><trkpt lat="43.6095239" lon="10.3567174"><ele>0.19999999999999996</ele><time>2026-04-29T16:50:35.77Z</time></trkpt><trkpt lat="43.6094073" lon="10.3567121"><ele>1.4</ele><time>2026-04-29T16:50:37.77Z</time></trkpt><trkpt lat="43.6093187" lon="10.3567143"><ele>2.6</ele><time>2026-04-29T16:50:38.776Z</time></trkpt><trkpt lat="43.60922" lon="10.3567152"><ele>3.8</ele><time>2026-04-29T16:50:39.77Z</time></trkpt><trkpt lat="43.6090977" lon="10.3567154"><ele>5.0</ele><time>2026-04-29T16:50:40.772Z</time></trkpt><trkpt lat="43.6089556" lon="10.3567208"><ele>5.0</ele><time>2026-04-29T16:50:41.772Z</time></trkpt><trkpt lat="43.608792" lon="10.3567302"><ele>5.0</ele><time>2026-04-29T16:50:42.771Z</time></trkpt><trkpt lat="43.6086094" lon="10.3567397"><ele>5.0</ele><time>2026-04-29T16:50:43.77Z</time></trkpt><trkpt lat="43.6084424" lon="10.3567479"><ele>3.3333333333333335</ele><time>2026-04-29T16:50:44.771Z</time></trkpt><trkpt lat="43.6082757" lon="10.356758"><ele>1.6666666666666667</ele><time>2026-04-29T16:50:45.77Z</time></trkpt><trkpt lat="43.6081102" lon="10.3567708"><ele>0.0</ele><time>2026-04-29T16:50:46.777Z</time></trkpt><trkpt lat="43.6079356" lon="10.3567816"><ele>0.0</ele><time>2026-04-29T16:50:47.777Z</time></trkpt><trkpt lat="43.6077547" lon="10.3567939"><ele>0.0</ele><time>2026-04-29T16:50:48.77Z</time></trkpt><trkpt lat="43.6075669" lon="10.3568031"><ele>0.0</ele><time>2026-04-29T16:50:49.783Z</time></trkpt><trkpt lat="43.6073727" lon="10.3568109"><ele>0.0</ele><time>2026-04-29T16:50:50.77Z</time></trkpt><trkpt lat="43.6071712" lon="10.3568188"><ele>0.0</ele><time>2026-04-29T16:50:51.777Z</time></trkpt><trkpt lat="43.6069637" lon="10.3568282"><ele>0.0</ele><time>2026-04-29T16:50:52.773Z</time></trkpt><trkpt lat="43.6067519" lon="10.3568389"><ele>0.0</ele><time>2026-04-29T16:50:53.782Z</time></trkpt><trkpt lat="43.6065352" lon="10.3568518"><ele>0.0</ele><time>2026-04-29T16:50:54.77Z</time></trkpt><trkpt lat="43.6063087" lon="10.3568663"><ele>0.0</ele><time>2026-04-29T16:50:55.778Z</time></trkpt><trkpt lat="43.6060815" lon="10.3568756"><ele>0.0</ele><time>2026-04-29T16:50:56.771Z</time></trkpt><trkpt lat="43.6058624" lon="10.3568935"><ele>0.0</ele><time>2026-04-29T16:50:57.783Z</time></trkpt><trkpt lat="43.605643" lon="10.3569068"><ele>0.0</ele><time>2026-04-29T16:50:58.771Z</time></trkpt><trkpt lat="43.6054242" lon="10.3569227"><ele>0.3333333333333333</ele><time>2026-04-29T16:50:59.778Z</time></trkpt><trkpt lat="43.6052073" lon="10.3569435"><ele>0.6666666666666666</ele><time>2026-04-29T16:51:00.771Z</time></trkpt><trkpt lat="43.6049895" lon="10.3569629"><ele>1.0</ele><time>2026-04-29T16:51:01.77Z</time></trkpt><trkpt lat="43.604771" lon="10.3569839"><ele>1.0</ele><time>2026-04-29T16:51:02.77Z</time></trkpt><trkpt lat="43.6045491" lon="10.3570035"><ele>1.0</ele><time>2026-04-29T16:51:03.777Z</time></trkpt><trkpt lat="43.604321" lon="10.3570235"><ele>2.0</ele><time>2026-04-29T16:51:04.772Z</time></trkpt><trkpt lat="43.6040915" lon="10.3570426"><ele>3.0</ele><time>2026-04-29T16:51:05.778Z</time></trkpt><trkpt lat="43.6038597" lon="10.3570614"><ele>3.0</ele><time>2026-04-29T16:51:06.772Z</time></trkpt><trkpt lat="43.6036263" lon="10.3570814"><ele>3.0</ele><time>2026-04-29T16:51:07.783Z</time></trkpt><trkpt lat="43.6033908" lon="10.3571022"><ele>3.0</ele><time>2026-04-29T16:51:08.771Z</time></trkpt><trkpt lat="43.6031552" lon="10.3571239"><ele>3.0</ele><time>2026-04-29T16:51:09.785Z</time></trkpt><trkpt lat="43.6029178" lon="10.3571446"><ele>1.0</ele><time>2026-04-29T16:51:10.772Z</time></trkpt><trkpt lat="43.6026852" lon="10.3571674"><ele>-1.0</ele><time>2026-04-29T16:51:11.774Z</time></trkpt><trkpt lat="43.6024525" lon="10.3571886"><ele>-0.5</ele><time>2026-04-29T16:51:12.771Z</time></trkpt><trkpt lat="43.6022168" lon="10.3572088"><ele>0.0</ele><time>2026-04-29T16:51:13.769Z</time></trkpt><trkpt lat="43.6019791" lon="10.3572274"><ele>1.0</ele><time>2026-04-29T16:51:14.77Z</time></trkpt><trkpt lat="43.6017401" lon="10.3572462"><ele>2.0</ele><time>2026-04-29T16:51:15.779Z</time></trkpt><trkpt lat="43.6014989" lon="10.3572675"><ele>2.0</ele><time>2026-04-29T16:51:16.772Z</time></trkpt><trkpt lat="43.6012581" lon="10.3572878"><ele>2.0</ele><time>2026-04-29T16:51:17.781Z</time></trkpt><trkpt lat="43.6010239" lon="10.3573058"><ele>-0.5</ele><time>2026-04-29T16:51:18.771Z</time></trkpt><trkpt lat="43.6007915" lon="10.3573238"><ele>-3.0</ele><time>2026-04-29T16:51:19.782Z</time></trkpt><trkpt lat="43.6005611" lon="10.3573437"><ele>-1.5</ele><time>2026-04-29T16:51:20.771Z</time></trkpt><trkpt lat="43.6003292" lon="10.357363"><ele>0.0</ele><time>2026-04-29T16:51:21.78Z</time></trkpt><trkpt lat="43.6000951" lon="10.3573815"><ele>0.0</ele><time>2026-04-29T16:51:22.771Z</time></trkpt><trkpt lat="43.5998606" lon="10.3574022"><ele>0.0</ele><time>2026-04-29T16:51:23.778Z</time></trkpt><trkpt lat="43.5996212" lon="10.3574238"><ele>-0.5</ele><time>2026-04-29T16:51:24.773Z</time></trkpt><trkpt lat="43.5993751" lon="10.3574464"><ele>-1.0</ele><time>2026-04-29T16:51:25.778Z</time></trkpt><trkpt lat="43.5991243" lon="10.357468"><ele>-1.0</ele><time>2026-04-29T16:51:26.771Z</time></trkpt><trkpt lat="43.5988671" lon="10.357491"><ele>-1.0</ele><time>2026-04-29T16:51:27.778Z</time></trkpt><trkpt lat="43.5986057" lon="10.3575158"><ele>1.0</ele><time>2026-04-29T16:51:28.783Z</time></trkpt><trkpt lat="43.5983515" lon="10.3575382"><ele>3.0</ele><time>2026-04-29T16:51:29.769Z</time></trkpt><trkpt lat="43.5981015" lon="10.3575603"><ele>3.0</ele><time>2026-04-29T16:51:30.773Z</time></trkpt><trkpt lat="43.5978499" lon="10.3575829"><ele>3.0</ele><time>2026-04-29T16:51:31.769Z</time></trkpt><trkpt lat="43.5975981" lon="10.3576029"><ele>3.0</ele><time>2026-04-29T16:51:32.772Z</time></trkpt><trkpt lat="43.5973416" lon="10.3576226"><ele>3.0</ele><time>2026-04-29T16:51:33.772Z</time></trkpt><trkpt lat="43.5970766" lon="10.3576468"><ele>2.0</ele><time>2026-04-29T16:51:34.771Z</time></trkpt><trkpt lat="43.5968126" lon="10.3576703"><ele>1.0</ele><time>2026-04-29T16:51:35.769Z</time></trkpt><trkpt lat="43.5965438" lon="10.3576932"><ele>1.0</ele><time>2026-04-29T16:51:36.771Z</time></trkpt><trkpt lat="43.5962734" lon="10.3577153"><ele>1.0</ele><time>2026-04-29T16:51:37.781Z</time></trkpt><trkpt lat="43.5960017" lon="10.3577375"><ele>1.0</ele><time>2026-04-29T16:51:38.781Z</time></trkpt><trkpt lat="43.5957293" lon="10.3577604"><ele>1.0</ele><time>2026-04-29T16:51:39.77Z</time></trkpt><trkpt lat="43.5954566" lon="10.357785"><ele>2.0</ele><time>2026-04-29T16:51:40.77Z</time></trkpt><trkpt lat="43.5951818" lon="10.3578089"><ele>3.0</ele><time>2026-04-29T16:51:41.77Z</time></trkpt><trkpt lat="43.5949035" lon="10.3578304"><ele>3.0</ele><time>2026-04-29T16:51:42.77Z</time></trkpt><trkpt lat="43.5946254" lon="10.3578535"><ele>3.0</ele><time>2026-04-29T16:51:43.772Z</time></trkpt><trkpt lat="43.5943478" lon="10.3578773"><ele>2.5</ele><time>2026-04-29T16:51:44.773Z</time></trkpt><trkpt lat="43.5940664" lon="10.3579003"><ele>2.0</ele><time>2026-04-29T16:51:45.777Z</time></trkpt><trkpt lat="43.5937815" lon="10.3579263"><ele>3.0</ele><time>2026-04-29T16:51:46.772Z</time></trkpt><trkpt lat="43.5934959" lon="10.3579453"><ele>4.0</ele><time>2026-04-29T16:51:47.77Z</time></trkpt><trkpt lat="43.5932106" lon="10.3579608"><ele>4.0</ele><time>2026-04-29T16:51:48.779Z</time></trkpt><trkpt lat="43.5929254" lon="10.3579787"><ele>4.0</ele><time>2026-04-29T16:51:49.77Z</time></trkpt><trkpt lat="43.5926393" lon="10.3579978"><ele>4.5</ele><time>2026-04-29T16:51:50.772Z</time></trkpt><trkpt lat="43.5923528" lon="10.3580207"><ele>5.0</ele><time>2026-04-29T16:51:51.771Z</time></trkpt><trkpt lat="43.5920655" lon="10.3580419"><ele>7.0</ele><time>2026-04-29T16:51:52.772Z</time></trkpt><trkpt lat="43.5917827" lon="10.3580665"><ele>9.0</ele><time>2026-04-29T16:51:53.778Z</time></trkpt><trkpt lat="43.5915037" lon="10.3580879"><ele>9.0</ele><time>2026-04-29T16:51:54.779Z</time></trkpt><trkpt lat="43.5912365" lon="10.3581066"><ele>9.0</ele><time>2026-04-29T16:51:55.771Z</time></trkpt><trkpt lat="43.5909674" lon="10.3581195"><ele>10.0</ele><time>2026-04-29T16:51:56.772Z</time></trkpt><trkpt lat="43.5906989" lon="10.3581279"><ele>11.0</ele><time>2026-04-29T16:51:57.78Z</time></trkpt><trkpt lat="43.5904249" lon="10.3581303"><ele>11.5</ele><time>2026-04-29T16:51:58.773Z</time></trkpt><trkpt lat="43.5901516" lon="10.3581269"><ele>12.0</ele><time>2026-04-29T16:51:59.771Z</time></trkpt><trkpt lat="43.5898787" lon="10.3581162"><ele>12.0</ele><time>2026-04-29T16:52:00.77Z</time></trkpt><trkpt lat="43.589605" lon="10.358097"><ele>12.0</ele><time>2026-04-29T16:52:01.771Z</time></trkpt><trkpt lat="43.5893282" lon="10.3580701"><ele>11.0</ele><time>2026-04-29T16:52:02.772Z</time></trkpt><trkpt lat="43.5890537" lon="10.3580373"><ele>10.0</ele><time>2026-04-29T16:52:03.773Z</time></trkpt><trkpt lat="43.5887797" lon="10.3579979"><ele>11.5</ele><time>2026-04-29T16:52:04.774Z</time></trkpt><trkpt lat="43.5885072" lon="10.3579515"><ele>13.0</ele><time>2026-04-29T16:52:05.772Z</time></trkpt><trkpt lat="43.5882343" lon="10.3579028"><ele>13.0</ele><time>2026-04-29T16:52:06.772Z</time></trkpt><trkpt lat="43.5879626" lon="10.3578505"><ele>13.0</ele><time>2026-04-29T16:52:07.77Z</time></trkpt><trkpt lat="43.5876902" lon="10.3577937"><ele>11.5</ele><time>2026-04-29T16:52:08.773Z</time></trkpt><trkpt lat="43.5874315" lon="10.3577356"><ele>10.0</ele><time>2026-04-29T16:52:09.771Z</time></trkpt><trkpt lat="43.5871765" lon="10.3576794"><ele>9.0</ele><time>2026-04-29T16:52:10.774Z</time></trkpt><trkpt lat="43.5869239" lon="10.3576231"><ele>8.0</ele><time>2026-04-29T16:52:11.77Z</time></trkpt><trkpt lat="43.5866701" lon="10.3575647"><ele>8.0</ele><time>2026-04-29T16:52:12.771Z</time></trkpt><trkpt lat="43.5864092" lon="10.3575062"><ele>8.0</ele><time>2026-04-29T16:52:13.77Z</time></trkpt><trkpt lat="43.5861453" lon="10.3574481"><ele>8.5</ele><time>2026-04-29T16:52:14.776Z</time></trkpt><trkpt lat="43.5858925" lon="10.3573924"><ele>9.0</ele><time>2026-04-29T16:52:15.772Z</time></trkpt><trkpt lat="43.5856503" lon="10.3573413"><ele>9.0</ele><time>2026-04-29T16:52:16.769Z</time></trkpt><trkpt lat="43.58541" lon="10.3572916"><ele>9.0</ele><time>2026-04-29T16:52:17.772Z</time></trkpt><trkpt lat="43.5851703" lon="10.3572466"><ele>9.0</ele><time>2026-04-29T16:52:18.77Z</time></trkpt><trkpt lat="43.5849223" lon="10.3572003"><ele>9.0</ele><time>2026-04-29T16:52:19.775Z</time></trkpt><trkpt lat="43.5846737" lon="10.3571505"><ele>9.0</ele><time>2026-04-29T16:52:20.769Z</time></trkpt><trkpt lat="43.5844232" lon="10.3570998"><ele>9.0</ele><time>2026-04-29T16:52:21.772Z</time></trkpt><trkpt lat="43.5841705" lon="10.3570438"><ele>9.0</ele><time>2026-04-29T16:52:22.77Z</time></trkpt><trkpt lat="43.583917" lon="10.3569787"><ele>9.0</ele><time>2026-04-29T16:52:23.771Z</time></trkpt><trkpt lat="43.5836701" lon="10.3568933"><ele>8.5</ele><time>2026-04-29T16:52:24.771Z</time></trkpt><trkpt lat="43.5834363" lon="10.3567866"><ele>8.0</ele><time>2026-04-29T16:52:25.77Z</time></trkpt><trkpt lat="43.5832122" lon="10.3566558"><ele>8.0</ele><time>2026-04-29T16:52:26.77Z</time></trkpt><trkpt lat="43.5829942" lon="10.3565052"><ele>8.0</ele><time>2026-04-29T16:52:27.771Z</time></trkpt><trkpt lat="43.582783" lon="10.3563346"><ele>10.5</ele><time>2026-04-29T16:52:28.772Z</time></trkpt><trkpt lat="43.5825841" lon="10.3561442"><ele>13.0</ele><time>2026-04-29T16:52:29.771Z</time></trkpt><trkpt lat="43.5823934" lon="10.3559362"><ele>13.0</ele><time>2026-04-29T16:52:30.771Z</time></trkpt><trkpt lat="43.5822127" lon="10.3557098"><ele>13.0</ele><time>2026-04-29T16:52:31.771Z</time></trkpt><trkpt lat="43.5820414" lon="10.3554734"><ele>16.5</ele><time>2026-04-29T16:52:32.77Z</time></trkpt><trkpt lat="43.5818798" lon="10.3552272"><ele>20.0</ele><time>2026-04-29T16:52:33.771Z</time></trkpt><trkpt lat="43.5817206" lon="10.3549733"><ele>20.0</ele><time>2026-04-29T16:52:34.772Z</time></trkpt><trkpt lat="43.5815571" lon="10.3547129"><ele>20.0</ele><time>2026-04-29T16:52:35.772Z</time></trkpt><trkpt lat="43.5813903" lon="10.3544514"><ele>18.5</ele><time>2026-04-29T16:52:36.771Z</time></trkpt><trkpt lat="43.5812218" lon="10.3541871"><ele>17.0</ele><time>2026-04-29T16:52:37.771Z</time></trkpt><trkpt lat="43.5810514" lon="10.353915"><ele>15.0</ele><time>2026-04-29T16:52:38.77Z</time></trkpt><trkpt lat="43.5808757" lon="10.3536243"><ele>13.0</ele><time>2026-04-29T16:52:39.77Z</time></trkpt><trkpt lat="43.5807047" lon="10.3533398"><ele>13.0</ele><time>2026-04-29T16:52:40.769Z</time></trkpt><trkpt lat="43.5805427" lon="10.3530786"><ele>13.0</ele><time>2026-04-29T16:52:41.771Z</time></trkpt><trkpt lat="43.5803881" lon="10.352837"><ele>12.0</ele><time>2026-04-29T16:52:42.774Z</time></trkpt><trkpt lat="43.5802403" lon="10.3526036"><ele>11.0</ele><time>2026-04-29T16:52:43.771Z</time></trkpt><trkpt lat="43.5800983" lon="10.3523795"><ele>10.0</ele><time>2026-04-29T16:52:44.769Z</time></trkpt><trkpt lat="43.579959" lon="10.3521564"><ele>9.333333333333334</ele><time>2026-04-29T16:52:45.771Z</time></trkpt><trkpt lat="43.579821" lon="10.3519404"><ele>8.666666666666666</ele><time>2026-04-29T16:52:46.77Z</time></trkpt><trkpt lat="43.5796834" lon="10.3517251"><ele>8.0</ele><time>2026-04-29T16:52:47.772Z</time></trkpt><trkpt lat="43.5795443" lon="10.3515084"><ele>8.333333333333332</ele><time>2026-04-29T16:52:48.773Z</time></trkpt><trkpt lat="43.5794062" lon="10.3512892"><ele>8.666666666666666</ele><time>2026-04-29T16:52:49.772Z</time></trkpt><trkpt lat="43.5792634" lon="10.3510657"><ele>9.0</ele><time>2026-04-29T16:52:50.772Z</time></trkpt><trkpt lat="43.5791218" lon="10.3508406"><ele>9.0</ele><time>2026-04-29T16:52:51.77Z</time></trkpt><trkpt lat="43.5789808" lon="10.3506166"><ele>9.0</ele><time>2026-04-29T16:52:52.77Z</time></trkpt><trkpt lat="43.5788453" lon="10.3504036"><ele>9.0</ele><time>2026-04-29T16:52:53.768Z</time></trkpt><trkpt lat="43.5787154" lon="10.3501949"><ele>9.0</ele><time>2026-04-29T16:52:54.772Z</time></trkpt><trkpt lat="43.5785804" lon="10.3499827"><ele>9.0</ele><time>2026-04-29T16:52:55.772Z</time></trkpt><trkpt lat="43.5784381" lon="10.3497672"><ele>9.0</ele><time>2026-04-29T16:52:56.772Z</time></trkpt><trkpt lat="43.5782864" lon="10.3495687"><ele>9.0</ele><time>2026-04-29T16:52:57.771Z</time></trkpt><trkpt lat="43.5781208" lon="10.3493912"><ele>9.0</ele><time>2026-04-29T16:52:58.769Z</time></trkpt><trkpt lat="43.5779504" lon="10.3492319"><ele>9.0</ele><time>2026-04-29T16:52:59.776Z</time></trkpt><trkpt lat="43.5777698" lon="10.3490908"><ele>8.0</ele><time>2026-04-29T16:53:00.773Z</time></trkpt><trkpt lat="43.5775915" lon="10.348967"><ele>7.0</ele><time>2026-04-29T16:53:01.771Z</time></trkpt><trkpt lat="43.577412" lon="10.3488589"><ele>6.0</ele><time>2026-04-29T16:53:02.77Z</time></trkpt><trkpt lat="43.5772345" lon="10.3487704"><ele>5.333333333333333</ele><time>2026-04-29T16:53:03.771Z</time></trkpt><trkpt lat="43.5770599" lon="10.3487026"><ele>4.666666666666666</ele><time>2026-04-29T16:53:04.78Z</time></trkpt><trkpt lat="43.576902" lon="10.348656"><ele>4.0</ele><time>2026-04-29T16:53:05.769Z</time></trkpt><trkpt lat="43.5767574" lon="10.3486248"><ele>3.6666666666666665</ele><time>2026-04-29T16:53:06.772Z</time></trkpt><trkpt lat="43.5766103" lon="10.3485978"><ele>3.333333333333333</ele><time>2026-04-29T16:53:07.77Z</time></trkpt><trkpt lat="43.5764586" lon="10.3485672"><ele>3.0</ele><time>2026-04-29T16:53:08.772Z</time></trkpt><trkpt lat="43.5762999" lon="10.3485376"><ele>3.666666666666667</ele><time>2026-04-29T16:53:09.772Z</time></trkpt><trkpt lat="43.5761389" lon="10.3485057"><ele>4.333333333333334</ele><time>2026-04-29T16:53:10.771Z</time></trkpt><trkpt lat="43.5759761" lon="10.3484785"><ele>5.0</ele><time>2026-04-29T16:53:11.772Z</time></trkpt><trkpt lat="43.5758114" lon="10.3484512"><ele>5.0</ele><time>2026-04-29T16:53:12.773Z</time></trkpt><trkpt lat="43.5756414" lon="10.3484231"><ele>5.0</ele><time>2026-04-29T16:53:13.776Z</time></trkpt><trkpt lat="43.5754653" lon="10.3483905"><ele>5.0</ele><time>2026-04-29T16:53:14.775Z</time></trkpt><trkpt lat="43.5752832" lon="10.3483581"><ele>5.0</ele><time>2026-04-29T16:53:15.772Z</time></trkpt><trkpt lat="43.5750954" lon="10.3483204"><ele>5.0</ele><time>2026-04-29T16:53:16.771Z</time></trkpt><trkpt lat="43.5749049" lon="10.3482837"><ele>5.0</ele><time>2026-04-29T16:53:17.77Z</time></trkpt><trkpt lat="43.5747102" lon="10.3482463"><ele>5.333333333333334</ele><time>2026-04-29T16:53:18.774Z</time></trkpt><trkpt lat="43.5745091" lon="10.3482088"><ele>5.666666666666667</ele><time>2026-04-29T16:53:19.775Z</time></trkpt><trkpt lat="43.5742971" lon="10.3481726"><ele>6.0</ele><time>2026-04-29T16:53:20.773Z</time></trkpt><trkpt lat="43.5740757" lon="10.3481353"><ele>6.0</ele><time>2026-04-29T16:53:21.773Z</time></trkpt><trkpt lat="43.5738477" lon="10.348094"><ele>6.0</ele><time>2026-04-29T16:53:22.773Z</time></trkpt><trkpt lat="43.5736174" lon="10.3480518"><ele>4.5</ele><time>2026-04-29T16:53:23.772Z</time></trkpt><trkpt lat="43.573391" lon="10.3480092"><ele>3.0</ele><time>2026-04-29T16:53:24.771Z</time></trkpt><trkpt lat="43.5731693" lon="10.3479645"><ele>3.0</ele><time>2026-04-29T16:53:25.771Z</time></trkpt><trkpt lat="43.5729383" lon="10.3479162"><ele>3.0</ele><time>2026-04-29T16:53:26.773Z</time></trkpt><trkpt lat="43.5726947" lon="10.3478622"><ele>3.5</ele><time>2026-04-29T16:53:27.772Z</time></trkpt><trkpt lat="43.5724418" lon="10.347806"><ele>4.0</ele><time>2026-04-29T16:53:28.772Z</time></trkpt><trkpt lat="43.5721944" lon="10.3477553"><ele>5.5</ele><time>2026-04-29T16:53:29.771Z</time></trkpt><trkpt lat="43.5719541" lon="10.3477092"><ele>7.0</ele><time>2026-04-29T16:53:30.776Z</time></trkpt><trkpt lat="43.5717165" lon="10.3476661"><ele>7.0</ele><time>2026-04-29T16:53:31.77Z</time></trkpt><trkpt lat="43.5714799" lon="10.347627"><ele>7.0</ele><time>2026-04-29T16:53:32.771Z</time></trkpt><trkpt lat="43.571242" lon="10.347588"><ele>6.5</ele><time>2026-04-29T16:53:33.772Z</time></trkpt><trkpt lat="43.5710099" lon="10.3475506"><ele>6.0</ele><time>2026-04-29T16:53:34.771Z</time></trkpt><trkpt lat="43.5707893" lon="10.3475117"><ele>6.0</ele><time>2026-04-29T16:53:35.772Z</time></trkpt><trkpt lat="43.5705793" lon="10.3474749"><ele>6.0</ele><time>2026-04-29T16:53:36.774Z</time></trkpt><trkpt lat="43.5703837" lon="10.3474389"><ele>6.0</ele><time>2026-04-29T16:53:37.77Z</time></trkpt><trkpt lat="43.5702005" lon="10.3474068"><ele>7.333333333333334</ele><time>2026-04-29T16:53:38.77Z</time></trkpt><trkpt lat="43.5700301" lon="10.3473767"><ele>8.666666666666668</ele><time>2026-04-29T16:53:39.773Z</time></trkpt><trkpt lat="43.5698669" lon="10.3473463"><ele>10.0</ele><time>2026-04-29T16:53:40.771Z</time></trkpt><trkpt lat="43.5697032" lon="10.3473139"><ele>10.0</ele><time>2026-04-29T16:53:41.774Z</time></trkpt><trkpt lat="43.569542" lon="10.3472831"><ele>10.0</ele><time>2026-04-29T16:53:42.771Z</time></trkpt><trkpt lat="43.5693766" lon="10.3472531"><ele>10.0</ele><time>2026-04-29T16:53:43.772Z</time></trkpt><trkpt lat="43.569207" lon="10.347222"><ele>10.333333333333334</ele><time>2026-04-29T16:53:44.774Z</time></trkpt><trkpt lat="43.5690366" lon="10.3471906"><ele>10.666666666666666</ele><time>2026-04-29T16:53:45.772Z</time></trkpt><trkpt lat="43.5688649" lon="10.3471586"><ele>11.0</ele><time>2026-04-29T16:53:46.773Z</time></trkpt><trkpt lat="43.5686931" lon="10.3471261"><ele>11.666666666666666</ele><time>2026-04-29T16:53:47.775Z</time></trkpt><trkpt lat="43.5685158" lon="10.3470917"><ele>12.333333333333332</ele><time>2026-04-29T16:53:48.771Z</time></trkpt><trkpt lat="43.5683382" lon="10.3470573"><ele>13.0</ele><time>2026-04-29T16:53:49.771Z</time></trkpt><trkpt lat="43.5681548" lon="10.3470229"><ele>13.0</ele><time>2026-04-29T16:53:50.774Z</time></trkpt><trkpt lat="43.5679699" lon="10.3469878"><ele>13.0</ele><time>2026-04-29T16:53:51.77Z</time></trkpt><trkpt lat="43.5677865" lon="10.3469571"><ele>13.0</ele><time>2026-04-29T16:53:52.773Z</time></trkpt><trkpt lat="43.5675979" lon="10.3469217"><ele>13.333333333333332</ele><time>2026-04-29T16:53:53.771Z</time></trkpt><trkpt lat="43.5674106" lon="10.3468867"><ele>13.666666666666668</ele><time>2026-04-29T16:53:54.771Z</time></trkpt><trkpt lat="43.5672175" lon="10.3468514"><ele>14.0</ele><time>2026-04-29T16:53:55.773Z</time></trkpt><trkpt lat="43.567022" lon="10.3468163"><ele>14.666666666666668</ele><time>2026-04-29T16:53:56.771Z</time></trkpt><trkpt lat="43.5668281" lon="10.3467819"><ele>15.333333333333332</ele><time>2026-04-29T16:53:57.773Z</time></trkpt><trkpt lat="43.5666333" lon="10.3467475"><ele>16.0</ele><time>2026-04-29T16:53:58.773Z</time></trkpt><trkpt lat="43.5664438" lon="10.3467112"><ele>16.0</ele><time>2026-04-29T16:53:59.773Z</time></trkpt><trkpt lat="43.5662546" lon="10.3466744"><ele>16.0</ele><time>2026-04-29T16:54:00.77Z</time></trkpt><trkpt lat="43.566063" lon="10.3466378"><ele>16.0</ele><time>2026-04-29T16:54:01.772Z</time></trkpt><trkpt lat="43.5658707" lon="10.346601"><ele>16.333333333333332</ele><time>2026-04-29T16:54:02.77Z</time></trkpt><trkpt lat="43.5656751" lon="10.3465642"><ele>16.666666666666668</ele><time>2026-04-29T16:54:03.772Z</time></trkpt><trkpt lat="43.5654797" lon="10.3465281"><ele>17.0</ele><time>2026-04-29T16:54:04.772Z</time></trkpt><trkpt lat="43.5652874" lon="10.3464948"><ele>17.0</ele><time>2026-04-29T16:54:05.772Z</time></trkpt><trkpt lat="43.5651013" lon="10.3464614"><ele>17.0</ele><time>2026-04-29T16:54:06.772Z</time></trkpt><trkpt lat="43.564917" lon="10.3464294"><ele>17.0</ele><time>2026-04-29T16:54:07.772Z</time></trkpt><trkpt lat="43.5647303" lon="10.3463959"><ele>16.666666666666668</ele><time>2026-04-29T16:54:08.771Z</time></trkpt><trkpt lat="43.5645424" lon="10.3463605"><ele>16.333333333333332</ele><time>2026-04-29T16:54:09.771Z</time></trkpt><trkpt lat="43.5643521" lon="10.3463245"><ele>16.0</ele><time>2026-04-29T16:54:10.77Z</time></trkpt><trkpt lat="43.5641543" lon="10.3462855"><ele>16.0</ele><time>2026-04-29T16:54:11.771Z</time></trkpt><trkpt lat="43.5639533" lon="10.346247"><ele>16.0</ele><time>2026-04-29T16:54:12.77Z</time></trkpt><trkpt lat="43.5637468" lon="10.3462078"><ele>16.0</ele><time>2026-04-29T16:54:13.77Z</time></trkpt><trkpt lat="43.5635287" lon="10.3461642"><ele>16.0</ele><time>2026-04-29T16:54:14.772Z</time></trkpt><trkpt lat="43.5633033" lon="10.3461219"><ele>16.0</ele><time>2026-04-29T16:54:15.772Z</time></trkpt><trkpt lat="43.5630718" lon="10.3460808"><ele>16.0</ele><time>2026-04-29T16:54:16.772Z</time></trkpt><trkpt lat="43.5628301" lon="10.3460354"><ele>16.0</ele><time>2026-04-29T16:54:17.771Z</time></trkpt><trkpt lat="43.5625857" lon="10.3459918"><ele>16.0</ele><time>2026-04-29T16:54:18.772Z</time></trkpt><trkpt lat="43.5623409" lon="10.345947"><ele>16.0</ele><time>2026-04-29T16:54:19.772Z</time></trkpt><trkpt lat="43.5620964" lon="10.3459028"><ele>17.0</ele><time>2026-04-29T16:54:20.771Z</time></trkpt><trkpt lat="43.5618491" lon="10.3458564"><ele>18.0</ele><time>2026-04-29T16:54:21.773Z</time></trkpt><trkpt lat="43.5616107" lon="10.3458128"><ele>18.0</ele><time>2026-04-29T16:54:22.771Z</time></trkpt><trkpt lat="43.5613678" lon="10.3457651"><ele>18.0</ele><time>2026-04-29T16:54:23.773Z</time></trkpt><trkpt lat="43.561124" lon="10.345716"><ele>18.0</ele><time>2026-04-29T16:54:24.772Z</time></trkpt><trkpt lat="43.5608809" lon="10.3456651"><ele>18.0</ele><time>2026-04-29T16:54:25.771Z</time></trkpt><trkpt lat="43.5606407" lon="10.3456149"><ele>18.0</ele><time>2026-04-29T16:54:26.77Z</time></trkpt><trkpt lat="43.5604075" lon="10.3455664"><ele>18.0</ele><time>2026-04-29T16:54:27.772Z</time></trkpt><trkpt lat="43.560183" lon="10.3455191"><ele>18.0</ele><time>2026-04-29T16:54:28.772Z</time></trkpt><trkpt lat="43.5599578" lon="10.3454709"><ele>18.0</ele><time>2026-04-29T16:54:29.772Z</time></trkpt><trkpt lat="43.5597274" lon="10.3454211"><ele>19.0</ele><time>2026-04-29T16:54:30.773Z</time></trkpt><trkpt lat="43.5594835" lon="10.3453678"><ele>20.0</ele><time>2026-04-29T16:54:31.771Z</time></trkpt><trkpt lat="43.5592319" lon="10.3453112"><ele>20.0</ele><time>2026-04-29T16:54:32.772Z</time></trkpt><trkpt lat="43.558979" lon="10.3452499"><ele>20.0</ele><time>2026-04-29T16:54:33.771Z</time></trkpt><trkpt lat="43.5587211" lon="10.3451874"><ele>18.5</ele><time>2026-04-29T16:54:34.773Z</time></trkpt><trkpt lat="43.5584587" lon="10.3451209"><ele>17.0</ele><time>2026-04-29T16:54:35.773Z</time></trkpt><trkpt lat="43.5581941" lon="10.345052"><ele>17.0</ele><time>2026-04-29T16:54:36.772Z</time></trkpt><trkpt lat="43.5579235" lon="10.3449828"><ele>17.0</ele><time>2026-04-29T16:54:37.773Z</time></trkpt><trkpt lat="43.5576551" lon="10.3449107"><ele>15.0</ele><time>2026-04-29T16:54:38.772Z</time></trkpt><trkpt lat="43.5573951" lon="10.3448383"><ele>13.0</ele><time>2026-04-29T16:54:39.771Z</time></trkpt><trkpt lat="43.5571382" lon="10.3447667"><ele>13.0</ele><time>2026-04-29T16:54:40.769Z</time></trkpt><trkpt lat="43.5568866" lon="10.3446959"><ele>13.0</ele><time>2026-04-29T16:54:41.773Z</time></trkpt><trkpt lat="43.556636" lon="10.3446276"><ele>13.0</ele><time>2026-04-29T16:54:42.772Z</time></trkpt><trkpt lat="43.556384" lon="10.3445558"><ele>13.0</ele><time>2026-04-29T16:54:43.771Z</time></trkpt><trkpt lat="43.5561322" lon="10.3444827"><ele>13.5</ele><time>2026-04-29T16:54:44.77Z</time></trkpt><trkpt lat="43.5558809" lon="10.3444074"><ele>14.0</ele><time>2026-04-29T16:54:45.771Z</time></trkpt><trkpt lat="43.555632" lon="10.3443308"><ele>14.0</ele><time>2026-04-29T16:54:46.771Z</time></trkpt><trkpt lat="43.55539" lon="10.3442546"><ele>14.0</ele><time>2026-04-29T16:54:47.771Z</time></trkpt><trkpt lat="43.5551485" lon="10.3441764"><ele>16.5</ele><time>2026-04-29T16:54:48.772Z</time></trkpt><trkpt lat="43.554911" lon="10.3440998"><ele>19.0</ele><time>2026-04-29T16:54:49.77Z</time></trkpt><trkpt lat="43.5546785" lon="10.3440242"><ele>19.0</ele><time>2026-04-29T16:54:50.775Z</time></trkpt><trkpt lat="43.5544467" lon="10.3439472"><ele>19.0</ele><time>2026-04-29T16:54:51.771Z</time></trkpt><trkpt lat="43.5542158" lon="10.3438715"><ele>18.0</ele><time>2026-04-29T16:54:52.772Z</time></trkpt><trkpt lat="43.5539809" lon="10.3437924"><ele>17.0</ele><time>2026-04-29T16:54:53.773Z</time></trkpt><trkpt lat="43.5537491" lon="10.343713"><ele>17.333333333333336</ele><time>2026-04-29T16:54:54.772Z</time></trkpt><trkpt lat="43.5535282" lon="10.3436373"><ele>17.666666666666668</ele><time>2026-04-29T16:54:55.771Z</time></trkpt><trkpt lat="43.5533224" lon="10.3435658"><ele>18.0</ele><time>2026-04-29T16:54:56.773Z</time></trkpt><trkpt lat="43.553128" lon="10.3434977"><ele>18.0</ele><time>2026-04-29T16:54:57.773Z</time></trkpt><trkpt lat="43.5529409" lon="10.3434328"><ele>18.0</ele><time>2026-04-29T16:54:58.771Z</time></trkpt><trkpt lat="43.5527585" lon="10.3433714"><ele>18.0</ele><time>2026-04-29T16:54:59.77Z</time></trkpt><trkpt lat="43.5525816" lon="10.3433112"><ele>18.0</ele><time>2026-04-29T16:55:00.77Z</time></trkpt><trkpt lat="43.5524053" lon="10.343252"><ele>18.0</ele><time>2026-04-29T16:55:01.77Z</time></trkpt><trkpt lat="43.5522279" lon="10.3431921"><ele>18.0</ele><time>2026-04-29T16:55:02.777Z</time></trkpt><trkpt lat="43.5520508" lon="10.3431351"><ele>18.0</ele><time>2026-04-29T16:55:03.772Z</time></trkpt><trkpt lat="43.5518814" lon="10.343078"><ele>18.0</ele><time>2026-04-29T16:55:04.772Z</time></trkpt><trkpt lat="43.5517227" lon="10.3430208"><ele>18.0</ele><time>2026-04-29T16:55:05.776Z</time></trkpt><trkpt lat="43.5515828" lon="10.3429618"><ele>18.0</ele><time>2026-04-29T16:55:06.771Z</time></trkpt><trkpt lat="43.5514547" lon="10.3429105"><ele>18.0</ele><time>2026-04-29T16:55:07.772Z</time></trkpt><trkpt lat="43.5513383" lon="10.3428662"><ele>18.0</ele><time>2026-04-29T16:55:08.771Z</time></trkpt><trkpt lat="43.5512252" lon="10.3428275"><ele>18.0</ele><time>2026-04-29T16:55:09.77Z</time></trkpt><trkpt lat="43.5511242" lon="10.3427921"><ele>18.0</ele><time>2026-04-29T16:55:10.772Z</time></trkpt><trkpt lat="43.551027" lon="10.3427517"><ele>18.0</ele><time>2026-04-29T16:55:11.774Z</time></trkpt><trkpt lat="43.550947" lon="10.3427044"><ele>18.0</ele><time>2026-04-29T16:55:12.774Z</time></trkpt><trkpt lat="43.5508863" lon="10.3426517"><ele>18.0</ele><time>2026-04-29T16:55:13.773Z</time></trkpt><trkpt lat="43.5508191" lon="10.3425397"><ele>18.0</ele><time>2026-04-29T16:55:15.774Z</time></trkpt><trkpt lat="43.5507917" lon="10.342448"><ele>18.0</ele><time>2026-04-29T16:55:17.769Z</time></trkpt><trkpt lat="43.5507726" lon="10.3423485"><ele>18.000000000000004</ele><time>2026-04-29T16:55:19.775Z</time></trkpt><trkpt lat="43.5507433" lon="10.3422671"><ele>18.0</ele><time>2026-04-29T16:55:21.772Z</time></trkpt><trkpt lat="43.5506856" lon="10.3422265"><ele>18.0</ele><time>2026-04-29T16:55:24.775Z</time></trkpt><trkpt lat="43.5506233" lon="10.3421932"><ele>18.0</ele><time>2026-04-29T17:01:52.767Z</time></trkpt><trkpt lat="43.5505591" lon="10.3421867"><ele>18.0</ele><time>2026-04-29T17:02:17.771Z</time></trkpt><trkpt lat="43.5504997" lon="10.342246"><ele>18.000000000000004</ele><time>2026-04-29T17:02:20.769Z</time></trkpt><trkpt lat="43.5504447" lon="10.3423686"><ele>18.0</ele><time>2026-04-29T17:02:23.775Z</time></trkpt><trkpt lat="43.5503659" lon="10.3424499"><ele>18.666666666666668</ele><time>2026-04-29T17:02:25.77Z</time></trkpt><trkpt lat="43.5502425" lon="10.3424758"><ele>19.333333333333332</ele><time>2026-04-29T17:02:27.769Z</time></trkpt><trkpt lat="43.5501686" lon="10.3424617"><ele>20.0</ele><time>2026-04-29T17:02:28.769Z</time></trkpt><trkpt lat="43.5500885" lon="10.3424386"><ele>20.666666666666664</ele><time>2026-04-29T17:02:29.77Z</time></trkpt><trkpt lat="43.5500112" lon="10.3424165"><ele>21.333333333333332</ele><time>2026-04-29T17:02:30.77Z</time></trkpt><trkpt lat="43.5499328" lon="10.3423954"><ele>22.0</ele><time>2026-04-29T17:02:31.77Z</time></trkpt><trkpt lat="43.5498616" lon="10.3423716"><ele>22.0</ele><time>2026-04-29T17:02:32.77Z</time></trkpt><trkpt lat="43.5497975" lon="10.3423525"><ele>22.0</ele><time>2026-04-29T17:02:33.77Z</time></trkpt><trkpt lat="43.5496937" lon="10.342322"><ele>22.0</ele><time>2026-04-29T17:02:35.771Z</time></trkpt><trkpt lat="43.5496003" lon="10.3423024"><ele>22.0</ele><time>2026-04-29T17:02:37.773Z</time></trkpt><trkpt lat="43.5495356" lon="10.3422922"><ele>22.0</ele><time>2026-04-29T17:02:38.769Z</time></trkpt><trkpt lat="43.5494512" lon="10.3422737"><ele>22.0</ele><time>2026-04-29T17:02:39.769Z</time></trkpt><trkpt lat="43.5493538" lon="10.3422482"><ele>21.75</ele><time>2026-04-29T17:02:40.77Z</time></trkpt><trkpt lat="43.5492487" lon="10.3422191"><ele>21.5</ele><time>2026-04-29T17:02:41.768Z</time></trkpt><trkpt lat="43.549135" lon="10.3421826"><ele>21.25</ele><time>2026-04-29T17:02:42.767Z</time></trkpt><trkpt lat="43.5490172" lon="10.3421452"><ele>21.0</ele><time>2026-04-29T17:02:43.769Z</time></trkpt><trkpt lat="43.5488931" lon="10.3421055"><ele>21.0</ele><time>2026-04-29T17:02:44.768Z</time></trkpt><trkpt lat="43.5487635" lon="10.3420633"><ele>21.0</ele><time>2026-04-29T17:02:45.768Z</time></trkpt><trkpt lat="43.5486315" lon="10.3420183"><ele>21.0</ele><time>2026-04-29T17:02:46.768Z</time></trkpt><trkpt lat="43.5484959" lon="10.3419758"><ele>21.0</ele><time>2026-04-29T17:02:47.766Z</time></trkpt><trkpt lat="43.548356" lon="10.3419315"><ele>21.333333333333332</ele><time>2026-04-29T17:02:48.772Z</time></trkpt><trkpt lat="43.5482087" lon="10.3418879"><ele>21.666666666666664</ele><time>2026-04-29T17:02:49.773Z</time></trkpt><trkpt lat="43.5480553" lon="10.3418433"><ele>22.0</ele><time>2026-04-29T17:02:50.768Z</time></trkpt><trkpt lat="43.5478929" lon="10.3417954"><ele>22.0</ele><time>2026-04-29T17:02:51.77Z</time></trkpt><trkpt lat="43.5477246" lon="10.341743"><ele>22.0</ele><time>2026-04-29T17:02:52.77Z</time></trkpt><trkpt lat="43.5475509" lon="10.3416881"><ele>22.0</ele><time>2026-04-29T17:02:53.771Z</time></trkpt><trkpt lat="43.5473725" lon="10.3416229"><ele>22.0</ele><time>2026-04-29T17:02:54.769Z</time></trkpt><trkpt lat="43.5471867" lon="10.3415465"><ele>22.0</ele><time>2026-04-29T17:02:55.769Z</time></trkpt><trkpt lat="43.546997" lon="10.3414651"><ele>22.0</ele><time>2026-04-29T17:02:56.769Z</time></trkpt><trkpt lat="43.5468032" lon="10.3413802"><ele>21.666666666666664</ele><time>2026-04-29T17:02:57.769Z</time></trkpt><trkpt lat="43.5466091" lon="10.3412909"><ele>21.333333333333332</ele><time>2026-04-29T17:02:58.771Z</time></trkpt><trkpt lat="43.5464119" lon="10.3411951"><ele>21.0</ele><time>2026-04-29T17:02:59.769Z</time></trkpt><trkpt lat="43.5462141" lon="10.3410899"><ele>21.333333333333332</ele><time>2026-04-29T17:03:00.77Z</time></trkpt><trkpt lat="43.5460101" lon="10.3409775"><ele>21.666666666666664</ele><time>2026-04-29T17:03:01.771Z</time></trkpt><trkpt lat="43.545798" lon="10.3408599"><ele>22.0</ele><time>2026-04-29T17:03:02.771Z</time></trkpt><trkpt lat="43.5455824" lon="10.3407396"><ele>23.0</ele><time>2026-04-29T17:03:03.769Z</time></trkpt><trkpt lat="43.5453643" lon="10.3406175"><ele>24.0</ele><time>2026-04-29T17:03:04.769Z</time></trkpt><trkpt lat="43.5451454" lon="10.3404895"><ele>25.0</ele><time>2026-04-29T17:03:05.768Z</time></trkpt><trkpt lat="43.544926" lon="10.3403555"><ele>26.0</ele><time>2026-04-29T17:03:06.768Z</time></trkpt><trkpt lat="43.5447067" lon="10.3402199"><ele>26.0</ele><time>2026-04-29T17:03:07.768Z</time></trkpt><trkpt lat="43.5444946" lon="10.340088"><ele>26.0</ele><time>2026-04-29T17:03:08.772Z</time></trkpt><trkpt lat="43.5442798" lon="10.3399523"><ele>26.0</ele><time>2026-04-29T17:03:09.77Z</time></trkpt><trkpt lat="43.5440661" lon="10.3398184"><ele>26.0</ele><time>2026-04-29T17:03:10.77Z</time></trkpt><trkpt lat="43.5438583" lon="10.33969"><ele>25.333333333333332</ele><time>2026-04-29T17:03:11.77Z</time></trkpt><trkpt lat="43.543663" lon="10.3395666"><ele>24.666666666666664</ele><time>2026-04-29T17:03:12.769Z</time></trkpt><trkpt lat="43.5434748" lon="10.3394488"><ele>24.0</ele><time>2026-04-29T17:03:13.77Z</time></trkpt><trkpt lat="43.543293" lon="10.3393369"><ele>24.0</ele><time>2026-04-29T17:03:14.775Z</time></trkpt><trkpt lat="43.5431081" lon="10.3392251"><ele>24.0</ele><time>2026-04-29T17:03:15.771Z</time></trkpt><trkpt lat="43.54292" lon="10.3391116"><ele>24.0</ele><time>2026-04-29T17:03:16.771Z</time></trkpt><trkpt lat="43.5427272" lon="10.338996"><ele>24.333333333333336</ele><time>2026-04-29T17:03:17.769Z</time></trkpt><trkpt lat="43.5425322" lon="10.3388768"><ele>24.666666666666668</ele><time>2026-04-29T17:03:18.769Z</time></trkpt><trkpt lat="43.5423363" lon="10.3387549"><ele>25.0</ele><time>2026-04-29T17:03:19.777Z</time></trkpt><trkpt lat="43.5421435" lon="10.3386356"><ele>25.333333333333336</ele><time>2026-04-29T17:03:20.768Z</time></trkpt><trkpt lat="43.5419534" lon="10.338517"><ele>25.666666666666664</ele><time>2026-04-29T17:03:21.771Z</time></trkpt><trkpt lat="43.541763" lon="10.3383988"><ele>26.0</ele><time>2026-04-29T17:03:22.771Z</time></trkpt><trkpt lat="43.5415739" lon="10.3382798"><ele>26.0</ele><time>2026-04-29T17:03:23.769Z</time></trkpt><trkpt lat="43.541389" lon="10.3381629"><ele>26.0</ele><time>2026-04-29T17:03:24.78Z</time></trkpt><trkpt lat="43.5412118" lon="10.3380548"><ele>26.0</ele><time>2026-04-29T17:03:25.78Z</time></trkpt><trkpt lat="43.5410309" lon="10.3379447"><ele>26.333333333333332</ele><time>2026-04-29T17:03:26.775Z</time></trkpt><trkpt lat="43.540846" lon="10.3378298"><ele>26.666666666666664</ele><time>2026-04-29T17:03:27.77Z</time></trkpt><trkpt lat="43.5406552" lon="10.3377093"><ele>27.0</ele><time>2026-04-29T17:03:28.771Z</time></trkpt><trkpt lat="43.5404593" lon="10.3375842"><ele>26.666666666666664</ele><time>2026-04-29T17:03:29.771Z</time></trkpt><trkpt lat="43.5402611" lon="10.3374588"><ele>26.333333333333332</ele><time>2026-04-29T17:03:30.77Z</time></trkpt><trkpt lat="43.5400673" lon="10.337335"><ele>26.0</ele><time>2026-04-29T17:03:31.773Z</time></trkpt><trkpt lat="43.5398811" lon="10.3372146"><ele>25.666666666666664</ele><time>2026-04-29T17:03:32.769Z</time></trkpt><trkpt lat="43.5397022" lon="10.3370995"><ele>25.333333333333336</ele><time>2026-04-29T17:03:33.775Z</time></trkpt><trkpt lat="43.5395314" lon="10.3369898"><ele>25.0</ele><time>2026-04-29T17:03:34.771Z</time></trkpt><trkpt lat="43.5393643" lon="10.3368831"><ele>25.0</ele><time>2026-04-29T17:03:35.779Z</time></trkpt><trkpt lat="43.5391972" lon="10.3367769"><ele>25.0</ele><time>2026-04-29T17:03:36.768Z</time></trkpt><trkpt lat="43.5390351" lon="10.336672"><ele>25.0</ele><time>2026-04-29T17:03:37.769Z</time></trkpt><trkpt lat="43.5388718" lon="10.3365679"><ele>24.666666666666668</ele><time>2026-04-29T17:03:38.771Z</time></trkpt><trkpt lat="43.5387079" lon="10.3364611"><ele>24.333333333333336</ele><time>2026-04-29T17:03:39.775Z</time></trkpt><trkpt lat="43.5385443" lon="10.3363536"><ele>24.0</ele><time>2026-04-29T17:03:40.769Z</time></trkpt><trkpt lat="43.5383802" lon="10.3362485"><ele>23.333333333333332</ele><time>2026-04-29T17:03:41.769Z</time></trkpt><trkpt lat="43.5382201" lon="10.3361481"><ele>22.666666666666664</ele><time>2026-04-29T17:03:42.774Z</time></trkpt><trkpt lat="43.5380636" lon="10.3360515"><ele>22.0</ele><time>2026-04-29T17:03:43.768Z</time></trkpt><trkpt lat="43.5379051" lon="10.3359518"><ele>22.666666666666664</ele><time>2026-04-29T17:03:44.77Z</time></trkpt><trkpt lat="43.537746" lon="10.335849"><ele>23.333333333333332</ele><time>2026-04-29T17:03:45.77Z</time></trkpt><trkpt lat="43.5375861" lon="10.3357489"><ele>24.0</ele><time>2026-04-29T17:03:46.769Z</time></trkpt><trkpt lat="43.5374317" lon="10.3356547"><ele>24.0</ele><time>2026-04-29T17:03:47.776Z</time></trkpt><trkpt lat="43.5372765" lon="10.3355619"><ele>24.0</ele><time>2026-04-29T17:03:48.776Z</time></trkpt><trkpt lat="43.5371202" lon="10.3354716"><ele>24.0</ele><time>2026-04-29T17:03:49.769Z</time></trkpt><trkpt lat="43.5369606" lon="10.3353841"><ele>24.0</ele><time>2026-04-29T17:03:50.769Z</time></trkpt><trkpt lat="43.5367992" lon="10.3352967"><ele>24.0</ele><time>2026-04-29T17:03:51.768Z</time></trkpt><trkpt lat="43.5366438" lon="10.3352145"><ele>24.0</ele><time>2026-04-29T17:03:52.769Z</time></trkpt><trkpt lat="43.5365139" lon="10.3351485"><ele>24.0</ele><time>2026-04-29T17:03:53.77Z</time></trkpt><trkpt lat="43.5364006" lon="10.3350918"><ele>24.0</ele><time>2026-04-29T17:03:54.77Z</time></trkpt><trkpt lat="43.5362999" lon="10.335039"><ele>24.0</ele><time>2026-04-29T17:03:55.767Z</time></trkpt><trkpt lat="43.5362103" lon="10.3349954"><ele>24.0</ele><time>2026-04-29T17:03:56.769Z</time></trkpt><trkpt lat="43.53612" lon="10.3349508"><ele>24.0</ele><time>2026-04-29T17:03:57.77Z</time></trkpt><trkpt lat="43.5360217" lon="10.3349058"><ele>23.25</ele><time>2026-04-29T17:03:58.771Z</time></trkpt><trkpt lat="43.53591" lon="10.3348552"><ele>22.5</ele><time>2026-04-29T17:03:59.771Z</time></trkpt><trkpt lat="43.5357936" lon="10.3348036"><ele>21.75</ele><time>2026-04-29T17:04:00.772Z</time></trkpt><trkpt lat="43.5356647" lon="10.3347484"><ele>21.0</ele><time>2026-04-29T17:04:01.77Z</time></trkpt><trkpt lat="43.5355369" lon="10.334694"><ele>20.5</ele><time>2026-04-29T17:04:02.769Z</time></trkpt><trkpt lat="43.5354133" lon="10.3346416"><ele>20.0</ele><time>2026-04-29T17:04:03.769Z</time></trkpt><trkpt lat="43.5352914" lon="10.3345874"><ele>19.5</ele><time>2026-04-29T17:04:04.771Z</time></trkpt><trkpt lat="43.5351661" lon="10.3345274"><ele>19.0</ele><time>2026-04-29T17:04:05.769Z</time></trkpt><trkpt lat="43.5350405" lon="10.3344653"><ele>20.0</ele><time>2026-04-29T17:04:06.768Z</time></trkpt><trkpt lat="43.5349161" lon="10.3344028"><ele>21.0</ele><time>2026-04-29T17:04:07.77Z</time></trkpt><trkpt lat="43.5347979" lon="10.3343415"><ele>22.0</ele><time>2026-04-29T17:04:08.768Z</time></trkpt><trkpt lat="43.5346898" lon="10.3342807"><ele>23.0</ele><time>2026-04-29T17:04:09.768Z</time></trkpt><trkpt lat="43.5345902" lon="10.3342226"><ele>22.599999999999998</ele><time>2026-04-29T17:04:10.769Z</time></trkpt><trkpt lat="43.5344964" lon="10.334163"><ele>22.2</ele><time>2026-04-29T17:04:11.769Z</time></trkpt><trkpt lat="43.5344088" lon="10.3341008"><ele>21.8</ele><time>2026-04-29T17:04:12.77Z</time></trkpt><trkpt lat="43.5343262" lon="10.3340339"><ele>21.4</ele><time>2026-04-29T17:04:13.77Z</time></trkpt><trkpt lat="43.5342632" lon="10.3339559"><ele>21.0</ele><time>2026-04-29T17:04:14.77Z</time></trkpt><trkpt lat="43.5342116" lon="10.3338622"><ele>20.8</ele><time>2026-04-29T17:04:15.767Z</time></trkpt><trkpt lat="43.5341823" lon="10.3337541"><ele>20.6</ele><time>2026-04-29T17:04:16.769Z</time></trkpt><trkpt lat="43.5341691" lon="10.3336348"><ele>20.4</ele><time>2026-04-29T17:04:17.769Z</time></trkpt><trkpt lat="43.5341606" lon="10.3335022"><ele>20.2</ele><time>2026-04-29T17:04:18.768Z</time></trkpt><trkpt lat="43.5341475" lon="10.3333625"><ele>20.0</ele><time>2026-04-29T17:04:19.769Z</time></trkpt><trkpt lat="43.5341188" lon="10.3332251"><ele>20.0</ele><time>2026-04-29T17:04:20.767Z</time></trkpt><trkpt lat="43.5340745" lon="10.3330967"><ele>20.0</ele><time>2026-04-29T17:04:21.771Z</time></trkpt><trkpt lat="43.5340214" lon="10.3329903"><ele>20.0</ele><time>2026-04-29T17:04:22.768Z</time></trkpt><trkpt lat="43.5339539" lon="10.3329064"><ele>20.0</ele><time>2026-04-29T17:04:23.769Z</time></trkpt><trkpt lat="43.5338711" lon="10.3328478"><ele>20.0</ele><time>2026-04-29T17:04:24.77Z</time></trkpt><trkpt lat="43.5337751" lon="10.3328136"><ele>20.0</ele><time>2026-04-29T17:04:25.769Z</time></trkpt><trkpt lat="43.53367" lon="10.3327958"><ele>20.0</ele><time>2026-04-29T17:04:26.77Z</time></trkpt><trkpt lat="43.5335569" lon="10.3327851"><ele>20.0</ele><time>2026-04-29T17:04:27.769Z</time></trkpt><trkpt lat="43.533448" lon="10.3327753"><ele>20.0</ele><time>2026-04-29T17:04:28.769Z</time></trkpt><trkpt lat="43.5333515" lon="10.3327762"><ele>20.0</ele><time>2026-04-29T17:04:29.771Z</time></trkpt><trkpt lat="43.5332647" lon="10.3328"><ele>20.0</ele><time>2026-04-29T17:04:30.769Z</time></trkpt><trkpt lat="43.5331866" lon="10.3328497"><ele>20.0</ele><time>2026-04-29T17:04:31.774Z</time></trkpt><trkpt lat="43.5331122" lon="10.3329169"><ele>20.0</ele><time>2026-04-29T17:04:32.771Z</time></trkpt><trkpt lat="43.5330478" lon="10.3330031"><ele>20.0</ele><time>2026-04-29T17:04:33.77Z</time></trkpt><trkpt lat="43.532995" lon="10.3331043"><ele>20.0</ele><time>2026-04-29T17:04:34.769Z</time></trkpt><trkpt lat="43.532953" lon="10.3332176"><ele>20.0</ele><time>2026-04-29T17:04:35.769Z</time></trkpt><trkpt lat="43.5329196" lon="10.3333425"><ele>20.0</ele><time>2026-04-29T17:04:36.767Z</time></trkpt><trkpt lat="43.5328897" lon="10.3334788"><ele>20.0</ele><time>2026-04-29T17:04:37.772Z</time></trkpt><trkpt lat="43.5328636" lon="10.3336263"><ele>20.0</ele><time>2026-04-29T17:04:38.769Z</time></trkpt><trkpt lat="43.5328359" lon="10.333772"><ele>20.0</ele><time>2026-04-29T17:04:39.77Z</time></trkpt><trkpt lat="43.5328089" lon="10.3339108"><ele>20.0</ele><time>2026-04-29T17:04:40.768Z</time></trkpt><trkpt lat="43.5327842" lon="10.3340461"><ele>20.0</ele><time>2026-04-29T17:04:41.772Z</time></trkpt><trkpt lat="43.5327533" lon="10.3341871"><ele>20.0</ele><time>2026-04-29T17:04:42.769Z</time></trkpt><trkpt lat="43.5327227" lon="10.3343334"><ele>20.0</ele><time>2026-04-29T17:04:43.77Z</time></trkpt><trkpt lat="43.5326897" lon="10.3344847"><ele>20.0</ele><time>2026-04-29T17:04:44.768Z</time></trkpt><trkpt lat="43.5326533" lon="10.3346372"><ele>20.0</ele><time>2026-04-29T17:04:45.77Z</time></trkpt><trkpt lat="43.532608" lon="10.3347854"><ele>20.2</ele><time>2026-04-29T17:04:46.769Z</time></trkpt><trkpt lat="43.5325528" lon="10.3349264"><ele>20.4</ele><time>2026-04-29T17:04:47.77Z</time></trkpt><trkpt lat="43.5324974" lon="10.3350562"><ele>20.6</ele><time>2026-04-29T17:04:48.769Z</time></trkpt><trkpt lat="43.5324445" lon="10.3351749"><ele>20.8</ele><time>2026-04-29T17:04:49.772Z</time></trkpt><trkpt lat="43.5323894" lon="10.3352794"><ele>21.0</ele><time>2026-04-29T17:04:50.769Z</time></trkpt><trkpt lat="43.532331" lon="10.3353698"><ele>21.0</ele><time>2026-04-29T17:04:51.769Z</time></trkpt><trkpt lat="43.5322677" lon="10.3354506"><ele>21.0</ele><time>2026-04-29T17:04:52.77Z</time></trkpt><trkpt lat="43.5321932" lon="10.3355154"><ele>21.0</ele><time>2026-04-29T17:04:53.77Z</time></trkpt><trkpt lat="43.5321086" lon="10.3355592"><ele>21.0</ele><time>2026-04-29T17:04:54.77Z</time></trkpt><trkpt lat="43.5320174" lon="10.3355743"><ele>21.0</ele><time>2026-04-29T17:04:55.77Z</time></trkpt><trkpt lat="43.5319242" lon="10.3355561"><ele>21.200000000000003</ele><time>2026-04-29T17:04:56.77Z</time></trkpt><trkpt lat="43.531838" lon="10.3355049"><ele>21.400000000000002</ele><time>2026-04-29T17:04:57.77Z</time></trkpt><trkpt lat="43.5317662" lon="10.3354316"><ele>21.6</ele><time>2026-04-29T17:04:58.767Z</time></trkpt><trkpt lat="43.5317087" lon="10.335339"><ele>21.8</ele><time>2026-04-29T17:04:59.77Z</time></trkpt><trkpt lat="43.5316659" lon="10.3352352"><ele>22.0</ele><time>2026-04-29T17:05:00.768Z</time></trkpt><trkpt lat="43.5316419" lon="10.3351088"><ele>22.0</ele><time>2026-04-29T17:05:01.768Z</time></trkpt><trkpt lat="43.5316292" lon="10.3349698"><ele>22.0</ele><time>2026-04-29T17:05:02.769Z</time></trkpt><trkpt lat="43.5316255" lon="10.3348117"><ele>22.0</ele><time>2026-04-29T17:05:03.768Z</time></trkpt><trkpt lat="43.5316297" lon="10.3346333"><ele>22.0</ele><time>2026-04-29T17:05:04.769Z</time></trkpt><trkpt lat="43.5316362" lon="10.3344375"><ele>21.333333333333332</ele><time>2026-04-29T17:05:05.769Z</time></trkpt><trkpt lat="43.5316465" lon="10.3342285"><ele>20.666666666666668</ele><time>2026-04-29T17:05:06.769Z</time></trkpt><trkpt lat="43.5316609" lon="10.3340026"><ele>20.0</ele><time>2026-04-29T17:05:07.77Z</time></trkpt><trkpt lat="43.5316815" lon="10.333757"><ele>20.0</ele><time>2026-04-29T17:05:08.769Z</time></trkpt><trkpt lat="43.5317054" lon="10.3334938"><ele>20.0</ele><time>2026-04-29T17:05:09.771Z</time></trkpt><trkpt lat="43.5317325" lon="10.333223"><ele>20.0</ele><time>2026-04-29T17:05:10.769Z</time></trkpt><trkpt lat="43.531759" lon="10.3329445"><ele>20.0</ele><time>2026-04-29T17:05:11.767Z</time></trkpt><trkpt lat="43.531788" lon="10.3326642"><ele>20.0</ele><time>2026-04-29T17:05:12.769Z</time></trkpt><trkpt lat="43.5318178" lon="10.3323768"><ele>20.0</ele><time>2026-04-29T17:05:13.77Z</time></trkpt><trkpt lat="43.5318479" lon="10.3320876"><ele>19.666666666666668</ele><time>2026-04-29T17:05:14.769Z</time></trkpt><trkpt lat="43.531877" lon="10.3318094"><ele>19.333333333333332</ele><time>2026-04-29T17:05:15.77Z</time></trkpt><trkpt lat="43.5319062" lon="10.3315386"><ele>19.0</ele><time>2026-04-29T17:05:16.771Z</time></trkpt><trkpt lat="43.5319341" lon="10.3312776"><ele>18.666666666666664</ele><time>2026-04-29T17:05:17.771Z</time></trkpt><trkpt lat="43.5319604" lon="10.331027"><ele>18.333333333333332</ele><time>2026-04-29T17:05:18.769Z</time></trkpt><trkpt lat="43.5319859" lon="10.3307836"><ele>18.0</ele><time>2026-04-29T17:05:19.769Z</time></trkpt><trkpt lat="43.532012" lon="10.3305438"><ele>18.0</ele><time>2026-04-29T17:05:20.771Z</time></trkpt><trkpt lat="43.5320416" lon="10.3303121"><ele>18.0</ele><time>2026-04-29T17:05:21.77Z</time></trkpt><trkpt lat="43.5320662" lon="10.3300826"><ele>18.0</ele><time>2026-04-29T17:05:22.769Z</time></trkpt><trkpt lat="43.5320917" lon="10.3298565"><ele>17.0</ele><time>2026-04-29T17:05:23.771Z</time></trkpt><trkpt lat="43.5321197" lon="10.3296297"><ele>16.0</ele><time>2026-04-29T17:05:24.77Z</time></trkpt><trkpt lat="43.5321492" lon="10.3294033"><ele>15.0</ele><time>2026-04-29T17:05:25.771Z</time></trkpt><trkpt lat="43.5321829" lon="10.3291819"><ele>15.0</ele><time>2026-04-29T17:05:26.771Z</time></trkpt><trkpt lat="43.5322198" lon="10.328967"><ele>15.0</ele><time>2026-04-29T17:05:27.771Z</time></trkpt><trkpt lat="43.5322593" lon="10.3287579"><ele>15.0</ele><time>2026-04-29T17:05:28.768Z</time></trkpt><trkpt lat="43.5323005" lon="10.3285558"><ele>14.75</ele><time>2026-04-29T17:05:29.769Z</time></trkpt><trkpt lat="43.5323449" lon="10.3283591"><ele>14.5</ele><time>2026-04-29T17:05:30.77Z</time></trkpt><trkpt lat="43.5323924" lon="10.328165"><ele>14.25</ele><time>2026-04-29T17:05:31.769Z</time></trkpt><trkpt lat="43.5324414" lon="10.3279674"><ele>14.0</ele><time>2026-04-29T17:05:32.77Z</time></trkpt><trkpt lat="43.5324908" lon="10.3277644"><ele>14.0</ele><time>2026-04-29T17:05:33.769Z</time></trkpt><trkpt lat="43.5325386" lon="10.3275661"><ele>14.0</ele><time>2026-04-29T17:05:34.771Z</time></trkpt><trkpt lat="43.5325839" lon="10.3273878"><ele>14.0</ele><time>2026-04-29T17:05:35.769Z</time></trkpt><trkpt lat="43.5326241" lon="10.3272184"><ele>14.0</ele><time>2026-04-29T17:05:36.769Z</time></trkpt><trkpt lat="43.5326618" lon="10.3270618"><ele>14.2</ele><time>2026-04-29T17:05:37.768Z</time></trkpt><trkpt lat="43.532697" lon="10.3269178"><ele>14.399999999999999</ele><time>2026-04-29T17:05:38.771Z</time></trkpt><trkpt lat="43.5327285" lon="10.3267812"><ele>14.6</ele><time>2026-04-29T17:05:39.77Z</time></trkpt><trkpt lat="43.5327591" lon="10.3266492"><ele>14.8</ele><time>2026-04-29T17:05:40.771Z</time></trkpt><trkpt lat="43.5327899" lon="10.3265141"><ele>15.0</ele><time>2026-04-29T17:05:41.771Z</time></trkpt><trkpt lat="43.532822" lon="10.3263725"><ele>15.2</ele><time>2026-04-29T17:05:42.77Z</time></trkpt><trkpt lat="43.5328563" lon="10.3262215"><ele>15.4</ele><time>2026-04-29T17:05:43.77Z</time></trkpt><trkpt lat="43.5328898" lon="10.3260689"><ele>15.600000000000001</ele><time>2026-04-29T17:05:44.77Z</time></trkpt><trkpt lat="43.5329224" lon="10.3259234"><ele>15.8</ele><time>2026-04-29T17:05:45.769Z</time></trkpt><trkpt lat="43.5329529" lon="10.325785"><ele>16.0</ele><time>2026-04-29T17:05:46.771Z</time></trkpt><trkpt lat="43.5329818" lon="10.3256593"><ele>15.999999999999998</ele><time>2026-04-29T17:05:47.768Z</time></trkpt><trkpt lat="43.5330112" lon="10.3255369"><ele>16.0</ele><time>2026-04-29T17:05:48.771Z</time></trkpt><trkpt lat="43.5330375" lon="10.3254232"><ele>16.0</ele><time>2026-04-29T17:05:49.772Z</time></trkpt><trkpt lat="43.5330612" lon="10.3253164"><ele>16.0</ele><time>2026-04-29T17:05:50.77Z</time></trkpt><trkpt lat="43.5330837" lon="10.3252165"><ele>15.999999999999998</ele><time>2026-04-29T17:05:51.769Z</time></trkpt><trkpt lat="43.5331072" lon="10.3251111"><ele>16.0</ele><time>2026-04-29T17:05:52.77Z</time></trkpt><trkpt lat="43.5331308" lon="10.3250079"><ele>15.999999999999998</ele><time>2026-04-29T17:05:53.77Z</time></trkpt><trkpt lat="43.5331523" lon="10.3249078"><ele>16.0</ele><time>2026-04-29T17:05:54.77Z</time></trkpt><trkpt lat="43.5331726" lon="10.3248118"><ele>16.0</ele><time>2026-04-29T17:05:55.769Z</time></trkpt><trkpt lat="43.5331926" lon="10.3247265"><ele>16.0</ele><time>2026-04-29T17:05:56.77Z</time></trkpt><trkpt lat="43.5332293" lon="10.3245896"><ele>15.999999999999998</ele><time>2026-04-29T17:05:58.771Z</time></trkpt><trkpt lat="43.5332704" lon="10.3244884"><ele>16.0</ele><time>2026-04-29T17:06:00.769Z</time></trkpt><trkpt lat="43.5333332" lon="10.3243912"><ele>15.999999999999998</ele><time>2026-04-29T17:06:02.772Z</time></trkpt><trkpt lat="43.5334063" lon="10.3243013"><ele>16.0</ele><time>2026-04-29T17:06:04.771Z</time></trkpt><trkpt lat="43.5334576" lon="10.324227"><ele>16.0</ele><time>2026-04-29T17:06:09.769Z</time></trkpt><trkpt lat="43.5335204" lon="10.3241723"><ele>16.0</ele><time>2026-04-29T17:06:13.769Z</time></trkpt><trkpt lat="43.533595" lon="10.3241177"><ele>15.999999999999998</ele><time>2026-04-29T17:06:15.772Z</time></trkpt><trkpt lat="43.5336587" lon="10.3240822"><ele>16.0</ele><time>2026-04-29T17:06:16.769Z</time></trkpt><trkpt lat="43.5337313" lon="10.3240435"><ele>15.999999999999998</ele><time>2026-04-29T17:06:17.769Z</time></trkpt><trkpt lat="43.5338115" lon="10.3240007"><ele>16.0</ele><time>2026-04-29T17:06:18.77Z</time></trkpt><trkpt lat="43.5338884" lon="10.3239545"><ele>16.0</ele><time>2026-04-29T17:06:19.769Z</time></trkpt><trkpt lat="43.5339547" lon="10.3238915"><ele>16.0</ele><time>2026-04-29T17:06:20.77Z</time></trkpt><trkpt lat="43.5340117" lon="10.3238171"><ele>15.999999999999998</ele><time>2026-04-29T17:06:21.769Z</time></trkpt><trkpt lat="43.5340517" lon="10.3237398"><ele>16.0</ele><time>2026-04-29T17:06:22.77Z</time></trkpt><trkpt lat="43.5340989" lon="10.3235817"><ele>15.8</ele><time>2026-04-29T17:06:24.77Z</time></trkpt><trkpt lat="43.5341085" lon="10.3234933"><ele>15.600000000000001</ele><time>2026-04-29T17:06:25.768Z</time></trkpt><trkpt lat="43.5340894" lon="10.3233351"><ele>15.4</ele><time>2026-04-29T17:06:27.769Z</time></trkpt><trkpt lat="43.5340375" lon="10.3232014"><ele>15.2</ele><time>2026-04-29T17:06:29.769Z</time></trkpt><trkpt lat="43.5339609" lon="10.3230888"><ele>15.0</ele><time>2026-04-29T17:06:31.769Z</time></trkpt><trkpt lat="43.5338676" lon="10.3229822"><ele>15.0</ele><time>2026-04-29T17:06:33.769Z</time></trkpt><trkpt lat="43.5338124" lon="10.3229245"><ele>15.0</ele><time>2026-04-29T17:06:34.771Z</time></trkpt><trkpt lat="43.5337513" lon="10.322858"><ele>15.0</ele><time>2026-04-29T17:06:35.769Z</time></trkpt><trkpt lat="43.5336895" lon="10.3227928"><ele>15.0</ele><time>2026-04-29T17:06:36.769Z</time></trkpt><trkpt lat="43.5336217" lon="10.322718"><ele>15.0</ele><time>2026-04-29T17:06:37.77Z</time></trkpt><trkpt lat="43.5335575" lon="10.3226386"><ele>15.0</ele><time>2026-04-29T17:06:38.767Z</time></trkpt><trkpt lat="43.5335021" lon="10.3225692"><ele>14.666666666666666</ele><time>2026-04-29T17:06:39.767Z</time></trkpt><trkpt lat="43.5334538" lon="10.3225049"><ele>14.333333333333332</ele><time>2026-04-29T17:06:40.769Z</time></trkpt><trkpt lat="43.5334094" lon="10.3224432"><ele>14.0</ele><time>2026-04-29T17:06:41.77Z</time></trkpt><trkpt lat="43.533363" lon="10.3223728"><ele>13.666666666666666</ele><time>2026-04-29T17:06:42.769Z</time></trkpt><trkpt lat="43.5333175" lon="10.3223023"><ele>13.333333333333332</ele><time>2026-04-29T17:06:43.771Z</time></trkpt><trkpt lat="43.5332463" lon="10.3221777"><ele>13.0</ele><time>2026-04-29T17:06:45.769Z</time></trkpt><trkpt lat="43.5331976" lon="10.3220787"><ele>12.833333333333332</ele><time>2026-04-29T17:06:48.768Z</time></trkpt><trkpt lat="43.5331638" lon="10.3220047"><ele>12.666666666666666</ele><time>2026-04-29T17:06:51.772Z</time></trkpt><trkpt lat="43.5331267" lon="10.3219244"><ele>12.5</ele><time>2026-04-29T17:07:26.771Z</time></trkpt><trkpt lat="43.5330845" lon="10.3218424"><ele>12.333333333333332</ele><time>2026-04-29T17:07:29.768Z</time></trkpt><trkpt lat="43.5330348" lon="10.3217305"><ele>12.166666666666666</ele><time>2026-04-29T17:07:32.771Z</time></trkpt><trkpt lat="43.5329736" lon="10.3215809"><ele>12.0</ele><time>2026-04-29T17:07:34.773Z</time></trkpt><trkpt lat="43.5329377" lon="10.3214837"><ele>11.8</ele><time>2026-04-29T17:07:35.77Z</time></trkpt><trkpt lat="43.5328968" lon="10.3213729"><ele>11.6</ele><time>2026-04-29T17:07:36.771Z</time></trkpt><trkpt lat="43.5328497" lon="10.3212513"><ele>11.4</ele><time>2026-04-29T17:07:37.769Z</time></trkpt><trkpt lat="43.5328006" lon="10.3211231"><ele>11.200000000000001</ele><time>2026-04-29T17:07:38.769Z</time></trkpt><trkpt lat="43.5327487" lon="10.320988"><ele>11.0</ele><time>2026-04-29T17:07:39.77Z</time></trkpt><trkpt lat="43.532698" lon="10.3208491"><ele>11.0</ele><time>2026-04-29T17:07:40.772Z</time></trkpt><trkpt lat="43.5326486" lon="10.3207184"><ele>11.0</ele><time>2026-04-29T17:07:41.767Z</time></trkpt><trkpt lat="43.5326025" lon="10.3205977"><ele>11.0</ele><time>2026-04-29T17:07:42.768Z</time></trkpt><trkpt lat="43.5325632" lon="10.3204902"><ele>11.0</ele><time>2026-04-29T17:07:43.771Z</time></trkpt><trkpt lat="43.5325273" lon="10.320396"><ele>11.0</ele><time>2026-04-29T17:07:44.769Z</time></trkpt><trkpt lat="43.5324816" lon="10.3202695"><ele>11.0</ele><time>2026-04-29T17:07:46.769Z</time></trkpt><trkpt lat="43.5324435" lon="10.3201732"><ele>11.0</ele><time>2026-04-29T17:07:49.767Z</time></trkpt><trkpt lat="43.5323908" lon="10.3200189"><ele>11.0</ele><time>2026-04-29T17:09:01.775Z</time></trkpt><trkpt lat="43.5323595" lon="10.3199356"><ele>11.0</ele><time>2026-04-29T17:09:02.77Z</time></trkpt><trkpt lat="43.532329" lon="10.3198588"><ele>11.0</ele><time>2026-04-29T17:09:03.771Z</time></trkpt><trkpt lat="43.5323001" lon="10.319781"><ele>11.0</ele><time>2026-04-29T17:09:04.772Z</time></trkpt><trkpt lat="43.5322671" lon="10.3196902"><ele>11.166666666666666</ele><time>2026-04-29T17:09:05.77Z</time></trkpt><trkpt lat="43.5322268" lon="10.3195893"><ele>11.333333333333332</ele><time>2026-04-29T17:09:06.769Z</time></trkpt><trkpt lat="43.53219" lon="10.3194925"><ele>11.5</ele><time>2026-04-29T17:09:07.769Z</time></trkpt><trkpt lat="43.5321591" lon="10.3194074"><ele>11.666666666666666</ele><time>2026-04-29T17:09:08.77Z</time></trkpt><trkpt lat="43.532107" lon="10.3192481"><ele>11.833333333333334</ele><time>2026-04-29T17:09:10.77Z</time></trkpt><trkpt lat="43.532074" lon="10.3191457"><ele>12.0</ele><time>2026-04-29T17:09:11.77Z</time></trkpt><trkpt lat="43.5320349" lon="10.3190232"><ele>11.75</ele><time>2026-04-29T17:09:12.768Z</time></trkpt><trkpt lat="43.5319882" lon="10.3188785"><ele>11.5</ele><time>2026-04-29T17:09:13.744Z</time></trkpt><trkpt lat="43.5319385" lon="10.3187236"><ele>11.25</ele><time>2026-04-29T17:09:14.739Z</time></trkpt><trkpt lat="43.5318894" lon="10.3185577"><ele>11.0</ele><time>2026-04-29T17:09:15.772Z</time></trkpt><trkpt lat="43.5318402" lon="10.3183915"><ele>11.0</ele><time>2026-04-29T17:09:16.77Z</time></trkpt><trkpt lat="43.531798" lon="10.3182347"><ele>11.0</ele><time>2026-04-29T17:09:17.771Z</time></trkpt><trkpt lat="43.5317599" lon="10.3180871"><ele>11.0</ele><time>2026-04-29T17:09:18.771Z</time></trkpt><trkpt lat="43.5317227" lon="10.3179456"><ele>11.0</ele><time>2026-04-29T17:09:19.768Z</time></trkpt><trkpt lat="43.5316833" lon="10.3178017"><ele>10.75</ele><time>2026-04-29T17:09:20.77Z</time></trkpt><trkpt lat="43.5316415" lon="10.3176533"><ele>10.5</ele><time>2026-04-29T17:09:21.769Z</time></trkpt><trkpt lat="43.5315941" lon="10.3174934"><ele>10.25</ele><time>2026-04-29T17:09:22.771Z</time></trkpt><trkpt lat="43.5315431" lon="10.3173199"><ele>10.0</ele><time>2026-04-29T17:09:23.741Z</time></trkpt><trkpt lat="43.5314991" lon="10.3171641"><ele>11.2</ele><time>2026-04-29T17:09:24.744Z</time></trkpt><trkpt lat="43.531456" lon="10.3170148"><ele>12.4</ele><time>2026-04-29T17:09:25.74Z</time></trkpt><trkpt lat="43.5314176" lon="10.3168767"><ele>13.600000000000001</ele><time>2026-04-29T17:09:26.738Z</time></trkpt><trkpt lat="43.5313835" lon="10.3167514"><ele>14.8</ele><time>2026-04-29T17:09:27.74Z</time></trkpt><trkpt lat="43.5313517" lon="10.3166422"><ele>16.0</ele><time>2026-04-29T17:09:28.739Z</time></trkpt><trkpt lat="43.5313212" lon="10.3165484"><ele>16.0</ele><time>2026-04-29T17:09:29.74Z</time></trkpt><trkpt lat="43.5312883" lon="10.3164584"><ele>15.999999999999998</ele><time>2026-04-29T17:09:30.739Z</time></trkpt><trkpt lat="43.5312511" lon="10.3163675"><ele>16.0</ele><time>2026-04-29T17:09:31.74Z</time></trkpt><trkpt lat="43.5312103" lon="10.3162842"><ele>16.0</ele><time>2026-04-29T17:09:32.74Z</time></trkpt><trkpt lat="43.5311673" lon="10.3162045"><ele>15.999999999999998</ele><time>2026-04-29T17:09:33.74Z</time></trkpt><trkpt lat="43.5311216" lon="10.316126"><ele>16.0</ele><time>2026-04-29T17:09:34.74Z</time></trkpt><trkpt lat="43.5310749" lon="10.3160451"><ele>16.0</ele><time>2026-04-29T17:09:35.74Z</time></trkpt><trkpt lat="43.5310327" lon="10.3159664"><ele>15.833333333333332</ele><time>2026-04-29T17:09:36.74Z</time></trkpt><trkpt lat="43.530976" lon="10.3158541"><ele>15.666666666666666</ele><time>2026-04-29T17:09:38.74Z</time></trkpt><trkpt lat="43.5309429" lon="10.3157758"><ele>15.5</ele><time>2026-04-29T17:09:40.74Z</time></trkpt><trkpt lat="43.5309237" lon="10.3156888"><ele>15.333333333333332</ele><time>2026-04-29T17:09:42.74Z</time></trkpt><trkpt lat="43.5309085" lon="10.3155964"><ele>15.166666666666666</ele><time>2026-04-29T17:09:44.739Z</time></trkpt><trkpt lat="43.5308417" lon="10.3155061"><ele>15.0</ele><time>2026-04-29T17:09:47.74Z</time></trkpt><trkpt lat="43.5307512" lon="10.3154241"><ele>14.666666666666666</ele><time>2026-04-29T17:09:49.739Z</time></trkpt><trkpt lat="43.5306993" lon="10.3153506"><ele>14.333333333333332</ele><time>2026-04-29T17:09:50.74Z</time></trkpt><trkpt lat="43.5306474" lon="10.3152589"><ele>14.0</ele><time>2026-04-29T17:09:51.74Z</time></trkpt><trkpt lat="43.5305963" lon="10.3151624"><ele>13.666666666666666</ele><time>2026-04-29T17:09:52.739Z</time></trkpt><trkpt lat="43.5305451" lon="10.3150638"><ele>13.333333333333332</ele><time>2026-04-29T17:09:53.74Z</time></trkpt><trkpt lat="43.5304908" lon="10.3149611"><ele>13.0</ele><time>2026-04-29T17:09:54.739Z</time></trkpt><trkpt lat="43.5304354" lon="10.3148584"><ele>12.833333333333332</ele><time>2026-04-29T17:09:55.739Z</time></trkpt><trkpt lat="43.5303855" lon="10.3147638"><ele>12.666666666666666</ele><time>2026-04-29T17:09:56.74Z</time></trkpt><trkpt lat="43.5303374" lon="10.3146757"><ele>12.5</ele><time>2026-04-29T17:09:57.739Z</time></trkpt><trkpt lat="43.5302954" lon="10.3145987"><ele>12.333333333333332</ele><time>2026-04-29T17:09:58.739Z</time></trkpt><trkpt lat="43.5302309" lon="10.3144806"><ele>12.166666666666666</ele><time>2026-04-29T17:10:00.74Z</time></trkpt><trkpt lat="43.5301759" lon="10.3143818"><ele>12.0</ele><time>2026-04-29T17:10:02.739Z</time></trkpt><trkpt lat="43.5301318" lon="10.3143059"><ele>12.0</ele><time>2026-04-29T17:10:04.74Z</time></trkpt><trkpt lat="43.5300827" lon="10.314206"><ele>12.0</ele><time>2026-04-29T17:10:07.74Z</time></trkpt><trkpt lat="43.5300364" lon="10.3140814"><ele>12.0</ele><time>2026-04-29T17:10:09.74Z</time></trkpt><trkpt lat="43.5299901" lon="10.3139995"><ele>12.0</ele><time>2026-04-29T17:10:11.74Z</time></trkpt><trkpt lat="43.5299174" lon="10.3138979"><ele>12.0</ele><time>2026-04-29T17:10:14.74Z</time></trkpt><trkpt lat="43.5298286" lon="10.3137332"><ele>12.0</ele><time>2026-04-29T17:10:16.74Z</time></trkpt><trkpt lat="43.5297829" lon="10.3136231"><ele>12.0</ele><time>2026-04-29T17:10:17.74Z</time></trkpt><trkpt lat="43.5297405" lon="10.3135061"><ele>12.0</ele><time>2026-04-29T17:10:18.74Z</time></trkpt><trkpt lat="43.5297024" lon="10.3133944"><ele>12.0</ele><time>2026-04-29T17:10:19.74Z</time></trkpt><trkpt lat="43.5296657" lon="10.3132908"><ele>12.0</ele><time>2026-04-29T17:10:20.74Z</time></trkpt><trkpt lat="43.529628" lon="10.3131985"><ele>12.0</ele><time>2026-04-29T17:10:21.74Z</time></trkpt><trkpt lat="43.5295886" lon="10.3131114"><ele>11.666666666666666</ele><time>2026-04-29T17:10:22.74Z</time></trkpt><trkpt lat="43.5295453" lon="10.313023"><ele>11.333333333333334</ele><time>2026-04-29T17:10:23.74Z</time></trkpt><trkpt lat="43.5294965" lon="10.3129285"><ele>11.0</ele><time>2026-04-29T17:10:24.739Z</time></trkpt><trkpt lat="43.5294477" lon="10.3128356"><ele>10.666666666666668</ele><time>2026-04-29T17:10:25.74Z</time></trkpt><trkpt lat="43.5293993" lon="10.3127425"><ele>10.333333333333334</ele><time>2026-04-29T17:10:26.74Z</time></trkpt><trkpt lat="43.5293512" lon="10.3126497"><ele>10.0</ele><time>2026-04-29T17:10:27.74Z</time></trkpt><trkpt lat="43.5293006" lon="10.3125508"><ele>10.0</ele><time>2026-04-29T17:10:28.74Z</time></trkpt><trkpt lat="43.5292449" lon="10.3124414"><ele>10.0</ele><time>2026-04-29T17:10:29.74Z</time></trkpt><trkpt lat="43.5291823" lon="10.3123211"><ele>10.0</ele><time>2026-04-29T17:10:30.74Z</time></trkpt><trkpt lat="43.529115" lon="10.3121913"><ele>10.0</ele><time>2026-04-29T17:10:31.739Z</time></trkpt><trkpt lat="43.5290393" lon="10.3120437"><ele>10.75</ele><time>2026-04-29T17:10:32.74Z</time></trkpt><trkpt lat="43.5289659" lon="10.3119002"><ele>11.5</ele><time>2026-04-29T17:10:33.74Z</time></trkpt><trkpt lat="43.5288933" lon="10.3117587"><ele>12.25</ele><time>2026-04-29T17:10:34.74Z</time></trkpt><trkpt lat="43.5288191" lon="10.3116155"><ele>13.0</ele><time>2026-04-29T17:10:35.74Z</time></trkpt><trkpt lat="43.528747" lon="10.3114758"><ele>11.75</ele><time>2026-04-29T17:10:36.74Z</time></trkpt><trkpt lat="43.5286768" lon="10.3113391"><ele>10.5</ele><time>2026-04-29T17:10:37.74Z</time></trkpt><trkpt lat="43.5286086" lon="10.3112081"><ele>9.25</ele><time>2026-04-29T17:10:38.739Z</time></trkpt><trkpt lat="43.5285448" lon="10.3110844"><ele>8.0</ele><time>2026-04-29T17:10:39.74Z</time></trkpt><trkpt lat="43.5284826" lon="10.3109592"><ele>7.999999999999999</ele><time>2026-04-29T17:10:40.74Z</time></trkpt><trkpt lat="43.5284289" lon="10.3108446"><ele>8.0</ele><time>2026-04-29T17:10:41.74Z</time></trkpt><trkpt lat="43.528382" lon="10.3107353"><ele>8.0</ele><time>2026-04-29T17:10:42.74Z</time></trkpt><trkpt lat="43.5283484" lon="10.3106293"><ele>8.0</ele><time>2026-04-29T17:10:43.74Z</time></trkpt><trkpt lat="43.5283273" lon="10.3105352"><ele>7.999999999999999</ele><time>2026-04-29T17:10:44.74Z</time></trkpt><trkpt lat="43.528309" lon="10.3103968"><ele>8.0</ele><time>2026-04-29T17:10:46.74Z</time></trkpt><trkpt lat="43.5283072" lon="10.3102857"><ele>7.999999999999999</ele><time>2026-04-29T17:10:48.739Z</time></trkpt><trkpt lat="43.5283218" lon="10.3101869"><ele>8.0</ele><time>2026-04-29T17:10:50.739Z</time></trkpt><trkpt lat="43.5283642" lon="10.3100674"><ele>8.0</ele><time>2026-04-29T17:10:52.74Z</time></trkpt><trkpt lat="43.5284349" lon="10.309928"><ele>8.0</ele><time>2026-04-29T17:10:54.74Z</time></trkpt><trkpt lat="43.5284813" lon="10.3098571"><ele>7.999999999999999</ele><time>2026-04-29T17:10:55.74Z</time></trkpt><trkpt lat="43.5285324" lon="10.3097903"><ele>8.0</ele><time>2026-04-29T17:10:56.74Z</time></trkpt><trkpt lat="43.5285852" lon="10.3097286"><ele>8.0</ele><time>2026-04-29T17:10:57.739Z</time></trkpt><trkpt lat="43.5286353" lon="10.30967"><ele>8.0</ele><time>2026-04-29T17:10:58.739Z</time></trkpt><trkpt lat="43.5286841" lon="10.3096109"><ele>8.0</ele><time>2026-04-29T17:10:59.74Z</time></trkpt><trkpt lat="43.5287891" lon="10.3094809"><ele>8.0</ele><time>2026-04-29T17:11:01.772Z</time></trkpt><trkpt lat="43.5288506" lon="10.3093955"><ele>8.0</ele><time>2026-04-29T17:11:02.77Z</time></trkpt><trkpt lat="43.5289162" lon="10.3093046"><ele>8.0</ele><time>2026-04-29T17:11:03.77Z</time></trkpt><trkpt lat="43.5289839" lon="10.3092052"><ele>8.0</ele><time>2026-04-29T17:11:04.772Z</time></trkpt><trkpt lat="43.5290547" lon="10.3090958"><ele>8.0</ele><time>2026-04-29T17:11:05.769Z</time></trkpt><trkpt lat="43.5291309" lon="10.3089731"><ele>8.0</ele><time>2026-04-29T17:11:06.769Z</time></trkpt><trkpt lat="43.5292032" lon="10.3088484"><ele>8.0</ele><time>2026-04-29T17:11:07.768Z</time></trkpt><trkpt lat="43.5292716" lon="10.3087263"><ele>8.0</ele><time>2026-04-29T17:11:08.768Z</time></trkpt><trkpt lat="43.5293353" lon="10.3086037"><ele>8.0</ele><time>2026-04-29T17:11:09.771Z</time></trkpt><trkpt lat="43.5293946" lon="10.3084885"><ele>8.0</ele><time>2026-04-29T17:11:10.77Z</time></trkpt><trkpt lat="43.5294499" lon="10.3083727"><ele>8.0</ele><time>2026-04-29T17:11:11.769Z</time></trkpt><trkpt lat="43.529502" lon="10.3082604"><ele>8.0</ele><time>2026-04-29T17:11:12.77Z</time></trkpt><trkpt lat="43.5295485" lon="10.3081486"><ele>7.7142857142857135</ele><time>2026-04-29T17:11:13.769Z</time></trkpt><trkpt lat="43.5295885" lon="10.3080421"><ele>7.428571428571428</ele><time>2026-04-29T17:11:14.768Z</time></trkpt><trkpt lat="43.5296204" lon="10.3079443"><ele>7.142857142857142</ele><time>2026-04-29T17:11:15.768Z</time></trkpt><trkpt lat="43.5296493" lon="10.307857"><ele>6.857142857142857</ele><time>2026-04-29T17:11:16.769Z</time></trkpt><trkpt lat="43.5296742" lon="10.3077757"><ele>6.571428571428571</ele><time>2026-04-29T17:11:17.769Z</time></trkpt><trkpt lat="43.5297004" lon="10.3076921"><ele>6.285714285714285</ele><time>2026-04-29T17:11:18.768Z</time></trkpt><trkpt lat="43.5297267" lon="10.3076047"><ele>6.0</ele><time>2026-04-29T17:11:19.77Z</time></trkpt><trkpt lat="43.5297492" lon="10.3075176"><ele>6.0</ele><time>2026-04-29T17:11:20.769Z</time></trkpt><trkpt lat="43.5297755" lon="10.3074301"><ele>6.0</ele><time>2026-04-29T17:11:21.768Z</time></trkpt><trkpt lat="43.5298043" lon="10.3073244"><ele>6.0</ele><time>2026-04-29T17:11:22.768Z</time></trkpt><trkpt lat="43.529835" lon="10.3072085"><ele>6.0</ele><time>2026-04-29T17:11:23.769Z</time></trkpt><trkpt lat="43.5298659" lon="10.3070969"><ele>6.0</ele><time>2026-04-29T17:11:24.769Z</time></trkpt><trkpt lat="43.5298891" lon="10.3070036"><ele>6.0</ele><time>2026-04-29T17:11:25.768Z</time></trkpt><trkpt lat="43.5299237" lon="10.3068564"><ele>5.571428571428571</ele><time>2026-04-29T17:11:27.767Z</time></trkpt><trkpt lat="43.5299281" lon="10.3067497"><ele>5.142857142857142</ele><time>2026-04-29T17:11:29.768Z</time></trkpt><trkpt lat="43.5299134" lon="10.3066622"><ele>4.7142857142857135</ele><time>2026-04-29T17:11:32.768Z</time></trkpt><trkpt lat="43.5298806" lon="10.3065852"><ele>4.285714285714286</ele><time>2026-04-29T17:11:37.769Z</time></trkpt><trkpt lat="43.5298608" lon="10.3064921"><ele>3.8571428571428568</ele><time>2026-04-29T17:11:40.769Z</time></trkpt><trkpt lat="43.5298487" lon="10.3064007"><ele>3.4285714285714284</ele><time>2026-04-29T17:11:43.768Z</time></trkpt><trkpt lat="43.5298707" lon="10.3062973"><ele>3.0</ele><time>2026-04-29T17:11:46.767Z</time></trkpt><trkpt lat="43.5298999" lon="10.306203"><ele>1.0</ele><time>2026-04-29T17:11:49.769Z</time></trkpt><trkpt lat="43.5299227" lon="10.3061032"><ele>1.0</ele><time>2026-04-29T17:11:52.772Z</time></trkpt><trkpt lat="43.5298748" lon="10.3060171"><ele>1.0</ele><time>2026-04-29T17:11:59.771Z</time></trkpt><trkpt lat="43.5298391" lon="10.3059333"><ele>1.0</ele><time>2026-04-29T17:12:07.768Z</time></trkpt><trkpt lat="43.5298603" lon="10.3058454"><ele>1.0</ele><time>2026-04-29T17:13:40.769Z</time></trkpt></trkseg><trkseg><trkpt lat="40.924484" lon="9.518843"><ele>0.0</ele><time>2026-04-30T06:35:19.742Z</time></trkpt><trkpt lat="40.9244685" lon="9.5187433"><ele>0.0</ele><time>2026-04-30T06:35:21.742Z</time></trkpt><trkpt lat="40.9244637" lon="9.5185939"><ele>0.0</ele><time>2026-04-30T06:35:23.741Z</time></trkpt><trkpt lat="40.9244585" lon="9.5184999"><ele>0.0</ele><time>2026-04-30T06:35:24.742Z</time></trkpt><trkpt lat="40.9244445" lon="9.5183832"><ele>0.0</ele><time>2026-04-30T06:35:25.742Z</time></trkpt><trkpt lat="40.9244278" lon="9.5182474"><ele>0.0</ele><time>2026-04-30T06:35:26.741Z</time></trkpt><trkpt lat="40.9244111" lon="9.5181207"><ele>0.0</ele><time>2026-04-30T06:35:27.742Z</time></trkpt><trkpt lat="40.9243964" lon="9.5180019"><ele>0.0</ele><time>2026-04-30T06:35:28.742Z</time></trkpt><trkpt lat="40.9243831" lon="9.5178903"><ele>0.0</ele><time>2026-04-30T06:35:29.741Z</time></trkpt><trkpt lat="40.9243708" lon="9.5177751"><ele>0.0</ele><time>2026-04-30T06:35:30.741Z</time></trkpt><trkpt lat="40.924359" lon="9.5176568"><ele>0.0</ele><time>2026-04-30T06:35:31.742Z</time></trkpt><trkpt lat="40.9243468" lon="9.5175357"><ele>0.0</ele><time>2026-04-30T06:35:32.741Z</time></trkpt><trkpt lat="40.9243366" lon="9.5174253"><ele>0.0</ele><time>2026-04-30T06:35:33.742Z</time></trkpt><trkpt lat="40.9243279" lon="9.5173194"><ele>0.0</ele><time>2026-04-30T06:35:34.742Z</time></trkpt><trkpt lat="40.9243191" lon="9.5172211"><ele>0.0</ele><time>2026-04-30T06:35:35.742Z</time></trkpt><trkpt lat="40.9243108" lon="9.5171147"><ele>0.0</ele><time>2026-04-30T06:35:36.742Z</time></trkpt><trkpt lat="40.924297" lon="9.5170103"><ele>0.0</ele><time>2026-04-30T06:35:37.742Z</time></trkpt><trkpt lat="40.9242837" lon="9.516913"><ele>0.0</ele><time>2026-04-30T06:35:38.742Z</time></trkpt><trkpt lat="40.9242745" lon="9.5168223"><ele>0.0</ele><time>2026-04-30T06:35:39.742Z</time></trkpt><trkpt lat="40.9242674" lon="9.5167376"><ele>0.0</ele><time>2026-04-30T06:35:40.742Z</time></trkpt><trkpt lat="40.9242542" lon="9.5165829"><ele>0.0</ele><time>2026-04-30T06:35:42.742Z</time></trkpt><trkpt lat="40.9242459" lon="9.516498"><ele>0.0</ele><time>2026-04-30T06:35:43.742Z</time></trkpt><trkpt lat="40.924238" lon="9.5164117"><ele>0.16666666666666666</ele><time>2026-04-30T06:35:44.742Z</time></trkpt><trkpt lat="40.9242253" lon="9.5162604"><ele>0.3333333333333333</ele><time>2026-04-30T06:35:46.742Z</time></trkpt><trkpt lat="40.924218" lon="9.5161771"><ele>0.5</ele><time>2026-04-30T06:35:47.741Z</time></trkpt><trkpt lat="40.9242138" lon="9.5160863"><ele>0.6666666666666666</ele><time>2026-04-30T06:35:48.742Z</time></trkpt><trkpt lat="40.9242058" lon="9.515989"><ele>0.8333333333333333</ele><time>2026-04-30T06:35:49.742Z</time></trkpt><trkpt lat="40.9241952" lon="9.515885"><ele>1.0</ele><time>2026-04-30T06:35:50.742Z</time></trkpt><trkpt lat="40.9241855" lon="9.5157728"><ele>0.9999999999999999</ele><time>2026-04-30T06:35:51.742Z</time></trkpt><trkpt lat="40.9241763" lon="9.5156478"><ele>1.0</ele><time>2026-04-30T06:35:52.742Z</time></trkpt><trkpt lat="40.9241701" lon="9.5155367"><ele>1.0</ele><time>2026-04-30T06:35:53.742Z</time></trkpt><trkpt lat="40.9241621" lon="9.5154339"><ele>1.0</ele><time>2026-04-30T06:35:54.741Z</time></trkpt><trkpt lat="40.9241521" lon="9.5153422"><ele>0.9999999999999999</ele><time>2026-04-30T06:35:55.742Z</time></trkpt><trkpt lat="40.9241523" lon="9.5151853"><ele>1.0</ele><time>2026-04-30T06:35:57.742Z</time></trkpt><trkpt lat="40.9241591" lon="9.5150539"><ele>1.0</ele><time>2026-04-30T06:35:59.742Z</time></trkpt><trkpt lat="40.9241537" lon="9.5149153"><ele>1.0</ele><time>2026-04-30T06:36:01.742Z</time></trkpt><trkpt lat="40.9241428" lon="9.5147976"><ele>1.0</ele><time>2026-04-30T06:36:02.742Z</time></trkpt><trkpt lat="40.9241347" lon="9.5146665"><ele>1.0</ele><time>2026-04-30T06:36:03.742Z</time></trkpt><trkpt lat="40.9241398" lon="9.5145248"><ele>1.0</ele><time>2026-04-30T06:36:04.742Z</time></trkpt><trkpt lat="40.9241557" lon="9.5143706"><ele>1.0</ele><time>2026-04-30T06:36:05.742Z</time></trkpt><trkpt lat="40.9241788" lon="9.5142011"><ele>1.0</ele><time>2026-04-30T06:36:06.742Z</time></trkpt><trkpt lat="40.9242095" lon="9.5140142"><ele>1.0</ele><time>2026-04-30T06:36:07.742Z</time></trkpt><trkpt lat="40.9242436" lon="9.5138075"><ele>1.0</ele><time>2026-04-30T06:36:08.742Z</time></trkpt><trkpt lat="40.9242764" lon="9.5135959"><ele>0.6666666666666666</ele><time>2026-04-30T06:36:09.742Z</time></trkpt><trkpt lat="40.9243061" lon="9.5133833"><ele>0.3333333333333333</ele><time>2026-04-30T06:36:10.742Z</time></trkpt><trkpt lat="40.9243372" lon="9.5131688"><ele>0.0</ele><time>2026-04-30T06:36:11.742Z</time></trkpt><trkpt lat="40.9243663" lon="9.51296"><ele>0.0</ele><time>2026-04-30T06:36:12.741Z</time></trkpt><trkpt lat="40.9243958" lon="9.5127591"><ele>0.0</ele><time>2026-04-30T06:36:13.742Z</time></trkpt><trkpt lat="40.9244246" lon="9.5125641"><ele>0.0</ele><time>2026-04-30T06:36:14.742Z</time></trkpt><trkpt lat="40.924453" lon="9.5123654"><ele>0.0</ele><time>2026-04-30T06:36:15.742Z</time></trkpt><trkpt lat="40.9244844" lon="9.5121616"><ele>0.0</ele><time>2026-04-30T06:36:16.741Z</time></trkpt><trkpt lat="40.9245162" lon="9.5119562"><ele>0.0</ele><time>2026-04-30T06:36:17.741Z</time></trkpt><trkpt lat="40.9245455" lon="9.5117604"><ele>0.0</ele><time>2026-04-30T06:36:18.742Z</time></trkpt><trkpt lat="40.9245745" lon="9.5115762"><ele>0.0</ele><time>2026-04-30T06:36:19.742Z</time></trkpt><trkpt lat="40.9246022" lon="9.511405"><ele>0.0</ele><time>2026-04-30T06:36:20.742Z</time></trkpt><trkpt lat="40.9246313" lon="9.5112404"><ele>0.0</ele><time>2026-04-30T06:36:21.742Z</time></trkpt><trkpt lat="40.9246609" lon="9.5110655"><ele>0.0</ele><time>2026-04-30T06:36:22.742Z</time></trkpt><trkpt lat="40.9246888" lon="9.5108883"><ele>0.0</ele><time>2026-04-30T06:36:23.742Z</time></trkpt><trkpt lat="40.9247137" lon="9.5107199"><ele>0.0</ele><time>2026-04-30T06:36:24.741Z</time></trkpt><trkpt lat="40.9247387" lon="9.5105534"><ele>0.0</ele><time>2026-04-30T06:36:25.742Z</time></trkpt><trkpt lat="40.9247651" lon="9.5103777"><ele>0.0</ele><time>2026-04-30T06:36:26.742Z</time></trkpt><trkpt lat="40.9247938" lon="9.5101934"><ele>0.0</ele><time>2026-04-30T06:36:27.741Z</time></trkpt><trkpt lat="40.9248205" lon="9.5100017"><ele>0.0</ele><time>2026-04-30T06:36:28.742Z</time></trkpt><trkpt lat="40.9248459" lon="9.5098116"><ele>0.0</ele><time>2026-04-30T06:36:29.742Z</time></trkpt><trkpt lat="40.9248733" lon="9.5096075"><ele>0.3333333333333333</ele><time>2026-04-30T06:36:30.742Z</time></trkpt><trkpt lat="40.9248973" lon="9.5093919"><ele>0.6666666666666666</ele><time>2026-04-30T06:36:31.741Z</time></trkpt><trkpt lat="40.9249181" lon="9.5091656"><ele>1.0</ele><time>2026-04-30T06:36:32.742Z</time></trkpt><trkpt lat="40.9249342" lon="9.5089499"><ele>1.0</ele><time>2026-04-30T06:36:33.741Z</time></trkpt><trkpt lat="40.9249487" lon="9.5087477"><ele>1.0</ele><time>2026-04-30T06:36:34.742Z</time></trkpt><trkpt lat="40.9249612" lon="9.5085727"><ele>1.0</ele><time>2026-04-30T06:36:35.742Z</time></trkpt><trkpt lat="40.9249739" lon="9.5084134"><ele>1.0</ele><time>2026-04-30T06:36:36.742Z</time></trkpt><trkpt lat="40.9249831" lon="9.5082718"><ele>1.0</ele><time>2026-04-30T06:36:37.742Z</time></trkpt><trkpt lat="40.9249921" lon="9.5081372"><ele>1.0</ele><time>2026-04-30T06:36:38.742Z</time></trkpt><trkpt lat="40.9250059" lon="9.5080075"><ele>1.0</ele><time>2026-04-30T06:36:39.742Z</time></trkpt><trkpt lat="40.9250229" lon="9.5078883"><ele>1.0</ele><time>2026-04-30T06:36:40.742Z</time></trkpt><trkpt lat="40.9250461" lon="9.507768"><ele>1.0</ele><time>2026-04-30T06:36:41.742Z</time></trkpt><trkpt lat="40.9250798" lon="9.5076477"><ele>1.2000000000000002</ele><time>2026-04-30T06:36:42.742Z</time></trkpt><trkpt lat="40.925127" lon="9.5075327"><ele>1.4000000000000001</ele><time>2026-04-30T06:36:43.742Z</time></trkpt><trkpt lat="40.925194" lon="9.5074328"><ele>1.6</ele><time>2026-04-30T06:36:44.742Z</time></trkpt><trkpt lat="40.9252773" lon="9.5073527"><ele>1.8</ele><time>2026-04-30T06:36:45.741Z</time></trkpt><trkpt lat="40.9253763" lon="9.507293"><ele>2.0</ele><time>2026-04-30T06:36:46.742Z</time></trkpt><trkpt lat="40.9254862" lon="9.5072569"><ele>2.0</ele><time>2026-04-30T06:36:47.742Z</time></trkpt><trkpt lat="40.9256035" lon="9.5072486"><ele>2.0</ele><time>2026-04-30T06:36:48.742Z</time></trkpt><trkpt lat="40.9257308" lon="9.5072618"><ele>2.0</ele><time>2026-04-30T06:36:49.742Z</time></trkpt><trkpt lat="40.9258626" lon="9.5072794"><ele>2.0</ele><time>2026-04-30T06:36:50.742Z</time></trkpt><trkpt lat="40.9260019" lon="9.5072963"><ele>2.0</ele><time>2026-04-30T06:36:51.742Z</time></trkpt><trkpt lat="40.9261487" lon="9.5073185"><ele>2.0</ele><time>2026-04-30T06:36:52.742Z</time></trkpt><trkpt lat="40.9262892" lon="9.5073441"><ele>2.0</ele><time>2026-04-30T06:36:53.742Z</time></trkpt><trkpt lat="40.9264151" lon="9.5073675"><ele>2.0</ele><time>2026-04-30T06:36:54.741Z</time></trkpt><trkpt lat="40.9265214" lon="9.5073937"><ele>2.0</ele><time>2026-04-30T06:36:55.742Z</time></trkpt><trkpt lat="40.9266057" lon="9.5074187"><ele>2.0</ele><time>2026-04-30T06:36:56.742Z</time></trkpt><trkpt lat="40.9266766" lon="9.5074396"><ele>2.0</ele><time>2026-04-30T06:36:57.742Z</time></trkpt><trkpt lat="40.9267853" lon="9.5074689"><ele>2.0</ele><time>2026-04-30T06:36:59.742Z</time></trkpt><trkpt lat="40.9268746" lon="9.507496"><ele>2.0</ele><time>2026-04-30T06:37:01.741Z</time></trkpt><trkpt lat="40.92699" lon="9.5075295"><ele>1.6666666666666665</ele><time>2026-04-30T06:37:03.742Z</time></trkpt><trkpt lat="40.9270544" lon="9.5075507"><ele>1.3333333333333333</ele><time>2026-04-30T06:37:04.742Z</time></trkpt><trkpt lat="40.927165" lon="9.5075858"><ele>1.0</ele><time>2026-04-30T06:37:06.742Z</time></trkpt><trkpt lat="40.9272559" lon="9.5076168"><ele>0.6666666666666666</ele><time>2026-04-30T06:37:08.742Z</time></trkpt><trkpt lat="40.9273614" lon="9.5076474"><ele>0.3333333333333333</ele><time>2026-04-30T06:37:10.741Z</time></trkpt><trkpt lat="40.9274233" lon="9.5076641"><ele>0.0</ele><time>2026-04-30T06:37:11.742Z</time></trkpt><trkpt lat="40.9274871" lon="9.5076835"><ele>0.0</ele><time>2026-04-30T06:37:12.742Z</time></trkpt><trkpt lat="40.9275563" lon="9.5077061"><ele>0.0</ele><time>2026-04-30T06:37:13.742Z</time></trkpt><trkpt lat="40.9276278" lon="9.5077283"><ele>0.0</ele><time>2026-04-30T06:37:14.742Z</time></trkpt><trkpt lat="40.9276978" lon="9.5077494"><ele>0.0</ele><time>2026-04-30T06:37:15.742Z</time></trkpt><trkpt lat="40.9277637" lon="9.5077673"><ele>0.0</ele><time>2026-04-30T06:37:16.741Z</time></trkpt><trkpt lat="40.9278337" lon="9.5077872"><ele>0.0</ele><time>2026-04-30T06:37:17.742Z</time></trkpt><trkpt lat="40.927912" lon="9.5078064"><ele>0.0</ele><time>2026-04-30T06:37:18.742Z</time></trkpt><trkpt lat="40.9280085" lon="9.5078279"><ele>0.0</ele><time>2026-04-30T06:37:19.742Z</time></trkpt><trkpt lat="40.9281185" lon="9.5078576"><ele>0.0</ele><time>2026-04-30T06:37:20.742Z</time></trkpt><trkpt lat="40.9282352" lon="9.5078881"><ele>0.0</ele><time>2026-04-30T06:37:21.742Z</time></trkpt><trkpt lat="40.9283574" lon="9.5079189"><ele>0.0</ele><time>2026-04-30T06:37:22.742Z</time></trkpt><trkpt lat="40.9284817" lon="9.5079552"><ele>0.75</ele><time>2026-04-30T06:37:23.742Z</time></trkpt><trkpt lat="40.9286115" lon="9.50799"><ele>1.5</ele><time>2026-04-30T06:37:24.742Z</time></trkpt><trkpt lat="40.9287455" lon="9.508027"><ele>2.25</ele><time>2026-04-30T06:37:25.742Z</time></trkpt><trkpt lat="40.9288815" lon="9.5080638"><ele>3.0</ele><time>2026-04-30T06:37:26.741Z</time></trkpt><trkpt lat="40.9290118" lon="9.5081017"><ele>3.0</ele><time>2026-04-30T06:37:27.742Z</time></trkpt><trkpt lat="40.9291364" lon="9.5081351"><ele>3.0</ele><time>2026-04-30T06:37:28.741Z</time></trkpt><trkpt lat="40.9292652" lon="9.5081727"><ele>3.0</ele><time>2026-04-30T06:37:29.742Z</time></trkpt><trkpt lat="40.9293965" lon="9.5082133"><ele>3.0</ele><time>2026-04-30T06:37:30.742Z</time></trkpt><trkpt lat="40.9295309" lon="9.5082522"><ele>2.75</ele><time>2026-04-30T06:37:31.742Z</time></trkpt><trkpt lat="40.9296702" lon="9.5082927"><ele>2.5</ele><time>2026-04-30T06:37:32.742Z</time></trkpt><trkpt lat="40.9298163" lon="9.5083304"><ele>2.25</ele><time>2026-04-30T06:37:33.742Z</time></trkpt><trkpt lat="40.9299582" lon="9.5083694"><ele>2.0</ele><time>2026-04-30T06:37:34.741Z</time></trkpt><trkpt lat="40.9300989" lon="9.5084079"><ele>2.0</ele><time>2026-04-30T06:37:35.742Z</time></trkpt><trkpt lat="40.930241" lon="9.5084428"><ele>2.0</ele><time>2026-04-30T06:37:36.742Z</time></trkpt><trkpt lat="40.9303838" lon="9.5084718"><ele>2.0</ele><time>2026-04-30T06:37:37.742Z</time></trkpt><trkpt lat="40.9305273" lon="9.5085041"><ele>2.0</ele><time>2026-04-30T06:37:38.741Z</time></trkpt><trkpt lat="40.930666" lon="9.5085305"><ele>2.0</ele><time>2026-04-30T06:37:39.742Z</time></trkpt><trkpt lat="40.930804" lon="9.5085575"><ele>2.0</ele><time>2026-04-30T06:37:40.742Z</time></trkpt><trkpt lat="40.9309391" lon="9.508576"><ele>2.0</ele><time>2026-04-30T06:37:41.742Z</time></trkpt><trkpt lat="40.9310597" lon="9.5085808"><ele>2.0</ele><time>2026-04-30T06:37:42.742Z</time></trkpt><trkpt lat="40.9311686" lon="9.5085886"><ele>2.5</ele><time>2026-04-30T06:37:43.742Z</time></trkpt><trkpt lat="40.9312765" lon="9.5085995"><ele>3.0</ele><time>2026-04-30T06:37:44.742Z</time></trkpt><trkpt lat="40.9313882" lon="9.5086057"><ele>3.5</ele><time>2026-04-30T06:37:45.742Z</time></trkpt><trkpt lat="40.9315071" lon="9.5086154"><ele>4.0</ele><time>2026-04-30T06:37:46.741Z</time></trkpt><trkpt lat="40.9316399" lon="9.5086213"><ele>4.666666666666666</ele><time>2026-04-30T06:37:47.742Z</time></trkpt><trkpt lat="40.9317846" lon="9.5086231"><ele>5.333333333333333</ele><time>2026-04-30T06:37:48.742Z</time></trkpt><trkpt lat="40.9319433" lon="9.5086235"><ele>6.0</ele><time>2026-04-30T06:37:49.741Z</time></trkpt><trkpt lat="40.9321039" lon="9.5086223"><ele>6.0</ele><time>2026-04-30T06:37:50.742Z</time></trkpt><trkpt lat="40.9322651" lon="9.5086198"><ele>6.0</ele><time>2026-04-30T06:37:51.742Z</time></trkpt><trkpt lat="40.9324333" lon="9.5086112"><ele>6.0</ele><time>2026-04-30T06:37:52.742Z</time></trkpt><trkpt lat="40.9326082" lon="9.5086016"><ele>5.333333333333333</ele><time>2026-04-30T06:37:53.742Z</time></trkpt><trkpt lat="40.9327827" lon="9.5085894"><ele>4.666666666666666</ele><time>2026-04-30T06:37:54.742Z</time></trkpt><trkpt lat="40.9329625" lon="9.508575"><ele>4.0</ele><time>2026-04-30T06:37:55.742Z</time></trkpt><trkpt lat="40.9331453" lon="9.5085599"><ele>4.0</ele><time>2026-04-30T06:37:56.742Z</time></trkpt><trkpt lat="40.9333288" lon="9.5085428"><ele>4.0</ele><time>2026-04-30T06:37:57.742Z</time></trkpt><trkpt lat="40.9335129" lon="9.5085213"><ele>4.0</ele><time>2026-04-30T06:37:58.742Z</time></trkpt><trkpt lat="40.9336947" lon="9.508499"><ele>4.333333333333333</ele><time>2026-04-30T06:37:59.742Z</time></trkpt><trkpt lat="40.933875" lon="9.508475"><ele>4.666666666666667</ele><time>2026-04-30T06:38:00.742Z</time></trkpt><trkpt lat="40.9340604" lon="9.5084487"><ele>5.0</ele><time>2026-04-30T06:38:01.742Z</time></trkpt><trkpt lat="40.934241" lon="9.5084177"><ele>5.0</ele><time>2026-04-30T06:38:02.742Z</time></trkpt><trkpt lat="40.9344166" lon="9.5083845"><ele>5.0</ele><time>2026-04-30T06:38:03.742Z</time></trkpt><trkpt lat="40.9345881" lon="9.5083526"><ele>5.0</ele><time>2026-04-30T06:38:04.742Z</time></trkpt><trkpt lat="40.934752" lon="9.50832"><ele>5.0</ele><time>2026-04-30T06:38:05.741Z</time></trkpt><trkpt lat="40.9349127" lon="9.5082879"><ele>5.0</ele><time>2026-04-30T06:38:06.742Z</time></trkpt><trkpt lat="40.9350754" lon="9.5082525"><ele>5.0</ele><time>2026-04-30T06:38:07.741Z</time></trkpt><trkpt lat="40.9352376" lon="9.5082126"><ele>5.666666666666667</ele><time>2026-04-30T06:38:08.741Z</time></trkpt><trkpt lat="40.9353958" lon="9.5081671"><ele>6.333333333333334</ele><time>2026-04-30T06:38:09.742Z</time></trkpt><trkpt lat="40.9355578" lon="9.50812"><ele>7.0</ele><time>2026-04-30T06:38:10.741Z</time></trkpt><trkpt lat="40.9357213" lon="9.5080702"><ele>7.0</ele><time>2026-04-30T06:38:11.742Z</time></trkpt><trkpt lat="40.9358872" lon="9.5080175"><ele>7.0</ele><time>2026-04-30T06:38:12.742Z</time></trkpt><trkpt lat="40.9360565" lon="9.5079618"><ele>7.0</ele><time>2026-04-30T06:38:13.742Z</time></trkpt><trkpt lat="40.9362277" lon="9.5079029"><ele>7.0</ele><time>2026-04-30T06:38:14.741Z</time></trkpt><trkpt lat="40.9364038" lon="9.5078432"><ele>7.0</ele><time>2026-04-30T06:38:15.742Z</time></trkpt><trkpt lat="40.9365969" lon="9.5077753"><ele>7.0</ele><time>2026-04-30T06:38:16.742Z</time></trkpt><trkpt lat="40.9367998" lon="9.5076982"><ele>8.333333333333334</ele><time>2026-04-30T06:38:17.742Z</time></trkpt><trkpt lat="40.9370021" lon="9.5076155"><ele>9.666666666666666</ele><time>2026-04-30T06:38:18.742Z</time></trkpt><trkpt lat="40.9371989" lon="9.507533"><ele>11.0</ele><time>2026-04-30T06:38:19.742Z</time></trkpt><trkpt lat="40.9373935" lon="9.5074505"><ele>11.333333333333332</ele><time>2026-04-30T06:38:20.742Z</time></trkpt><trkpt lat="40.9375876" lon="9.5073666"><ele>11.666666666666666</ele><time>2026-04-30T06:38:21.742Z</time></trkpt><trkpt lat="40.9377723" lon="9.5072851"><ele>12.0</ele><time>2026-04-30T06:38:22.742Z</time></trkpt><trkpt lat="40.9379468" lon="9.5072057"><ele>12.0</ele><time>2026-04-30T06:38:23.742Z</time></trkpt><trkpt lat="40.9381123" lon="9.507126"><ele>12.0</ele><time>2026-04-30T06:38:24.742Z</time></trkpt><trkpt lat="40.9382789" lon="9.5070429"><ele>12.0</ele><time>2026-04-30T06:38:25.742Z</time></trkpt><trkpt lat="40.9384471" lon="9.5069589"><ele>12.0</ele><time>2026-04-30T06:38:26.741Z</time></trkpt><trkpt lat="40.9386068" lon="9.5068782"><ele>12.0</ele><time>2026-04-30T06:38:27.742Z</time></trkpt><trkpt lat="40.9387593" lon="9.5068005"><ele>12.0</ele><time>2026-04-30T06:38:28.741Z</time></trkpt><trkpt lat="40.9388958" lon="9.5067313"><ele>12.0</ele><time>2026-04-30T06:38:29.741Z</time></trkpt><trkpt lat="40.9390216" lon="9.5066682"><ele>12.0</ele><time>2026-04-30T06:38:30.742Z</time></trkpt><trkpt lat="40.9391444" lon="9.5066116"><ele>12.0</ele><time>2026-04-30T06:38:31.742Z</time></trkpt><trkpt lat="40.9392639" lon="9.5065503"><ele>12.0</ele><time>2026-04-30T06:38:32.742Z</time></trkpt><trkpt lat="40.9393766" lon="9.5064895"><ele>12.0</ele><time>2026-04-30T06:38:33.742Z</time></trkpt><trkpt lat="40.9394833" lon="9.5064312"><ele>12.0</ele><time>2026-04-30T06:38:34.742Z</time></trkpt><trkpt lat="40.9395909" lon="9.5063765"><ele>12.0</ele><time>2026-04-30T06:38:35.742Z</time></trkpt><trkpt lat="40.9397079" lon="9.5063219"><ele>12.0</ele><time>2026-04-30T06:38:36.741Z</time></trkpt><trkpt lat="40.9398313" lon="9.5062623"><ele>12.25</ele><time>2026-04-30T06:38:37.741Z</time></trkpt><trkpt lat="40.9399532" lon="9.5062008"><ele>12.5</ele><time>2026-04-30T06:38:38.742Z</time></trkpt><trkpt lat="40.9400767" lon="9.5061375"><ele>12.75</ele><time>2026-04-30T06:38:39.742Z</time></trkpt><trkpt lat="40.9402008" lon="9.506077"><ele>13.0</ele><time>2026-04-30T06:38:40.742Z</time></trkpt><trkpt lat="40.9403265" lon="9.5060134"><ele>13.25</ele><time>2026-04-30T06:38:41.742Z</time></trkpt><trkpt lat="40.9404543" lon="9.5059475"><ele>13.5</ele><time>2026-04-30T06:38:42.742Z</time></trkpt><trkpt lat="40.9405808" lon="9.5058824"><ele>13.75</ele><time>2026-04-30T06:38:43.742Z</time></trkpt><trkpt lat="40.9407061" lon="9.5058136"><ele>14.0</ele><time>2026-04-30T06:38:44.741Z</time></trkpt><trkpt lat="40.9408317" lon="9.5057484"><ele>14.75</ele><time>2026-04-30T06:38:45.742Z</time></trkpt><trkpt lat="40.940955" lon="9.5056829"><ele>15.5</ele><time>2026-04-30T06:38:46.741Z</time></trkpt><trkpt lat="40.9410842" lon="9.5056232"><ele>16.25</ele><time>2026-04-30T06:38:47.741Z</time></trkpt><trkpt lat="40.9412149" lon="9.5055559"><ele>17.0</ele><time>2026-04-30T06:38:48.742Z</time></trkpt><trkpt lat="40.9413515" lon="9.5054839"><ele>17.0</ele><time>2026-04-30T06:38:49.742Z</time></trkpt><trkpt lat="40.9414902" lon="9.5054134"><ele>17.0</ele><time>2026-04-30T06:38:50.742Z</time></trkpt><trkpt lat="40.9416341" lon="9.5053397"><ele>17.0</ele><time>2026-04-30T06:38:51.741Z</time></trkpt><trkpt lat="40.941781" lon="9.5052674"><ele>18.0</ele><time>2026-04-30T06:38:52.742Z</time></trkpt><trkpt lat="40.9419317" lon="9.505189"><ele>19.0</ele><time>2026-04-30T06:38:53.742Z</time></trkpt><trkpt lat="40.9420816" lon="9.5051162"><ele>20.0</ele><time>2026-04-30T06:38:54.742Z</time></trkpt><trkpt lat="40.9422219" lon="9.5050433"><ele>20.0</ele><time>2026-04-30T06:38:55.742Z</time></trkpt><trkpt lat="40.9423525" lon="9.5049746"><ele>20.0</ele><time>2026-04-30T06:38:56.742Z</time></trkpt><trkpt lat="40.9424785" lon="9.5049144"><ele>20.0</ele><time>2026-04-30T06:38:57.742Z</time></trkpt><trkpt lat="40.9426005" lon="9.5048496"><ele>20.0</ele><time>2026-04-30T06:38:58.742Z</time></trkpt><trkpt lat="40.942732" lon="9.5047819"><ele>19.75</ele><time>2026-04-30T06:38:59.742Z</time></trkpt><trkpt lat="40.9428625" lon="9.5047116"><ele>19.5</ele><time>2026-04-30T06:39:00.741Z</time></trkpt><trkpt lat="40.942996" lon="9.504641"><ele>19.25</ele><time>2026-04-30T06:39:01.741Z</time></trkpt><trkpt lat="40.9431292" lon="9.5045707"><ele>19.0</ele><time>2026-04-30T06:39:02.742Z</time></trkpt><trkpt lat="40.9432643" lon="9.5044996"><ele>19.25</ele><time>2026-04-30T06:39:03.741Z</time></trkpt><trkpt lat="40.9433981" lon="9.5044281"><ele>19.5</ele><time>2026-04-30T06:39:04.742Z</time></trkpt><trkpt lat="40.9435232" lon="9.504363"><ele>19.75</ele><time>2026-04-30T06:39:05.741Z</time></trkpt><trkpt lat="40.9436508" lon="9.5042957"><ele>20.0</ele><time>2026-04-30T06:39:06.741Z</time></trkpt><trkpt lat="40.9437737" lon="9.5042327"><ele>20.0</ele><time>2026-04-30T06:39:07.742Z</time></trkpt><trkpt lat="40.9438832" lon="9.5041775"><ele>20.0</ele><time>2026-04-30T06:39:08.742Z</time></trkpt><trkpt lat="40.9439894" lon="9.5041237"><ele>20.0</ele><time>2026-04-30T06:39:09.742Z</time></trkpt><trkpt lat="40.944097" lon="9.5040719"><ele>20.0</ele><time>2026-04-30T06:39:10.742Z</time></trkpt><trkpt lat="40.9442075" lon="9.5040208"><ele>20.2</ele><time>2026-04-30T06:39:11.742Z</time></trkpt><trkpt lat="40.9443189" lon="9.5039767"><ele>20.4</ele><time>2026-04-30T06:39:12.742Z</time></trkpt><trkpt lat="40.9444298" lon="9.503937"><ele>20.6</ele><time>2026-04-30T06:39:13.742Z</time></trkpt><trkpt lat="40.9445332" lon="9.5039064"><ele>20.8</ele><time>2026-04-30T06:39:14.742Z</time></trkpt><trkpt lat="40.9446344" lon="9.5038935"><ele>21.0</ele><time>2026-04-30T06:39:15.742Z</time></trkpt><trkpt lat="40.9447307" lon="9.5038971"><ele>21.0</ele><time>2026-04-30T06:39:16.742Z</time></trkpt><trkpt lat="40.9448195" lon="9.5038984"><ele>21.0</ele><time>2026-04-30T06:39:17.742Z</time></trkpt><trkpt lat="40.9449049" lon="9.5038917"><ele>21.0</ele><time>2026-04-30T06:39:18.742Z</time></trkpt><trkpt lat="40.9449855" lon="9.503857"><ele>21.0</ele><time>2026-04-30T06:39:19.742Z</time></trkpt><trkpt lat="40.9450596" lon="9.5037942"><ele>21.0</ele><time>2026-04-30T06:39:20.741Z</time></trkpt><trkpt lat="40.9451247" lon="9.5037119"><ele>21.0</ele><time>2026-04-30T06:39:21.742Z</time></trkpt><trkpt lat="40.9451919" lon="9.5036212"><ele>21.5</ele><time>2026-04-30T06:39:22.742Z</time></trkpt><trkpt lat="40.9452578" lon="9.5035479"><ele>22.0</ele><time>2026-04-30T06:39:23.742Z</time></trkpt><trkpt lat="40.9453258" lon="9.5034981"><ele>22.5</ele><time>2026-04-30T06:39:24.741Z</time></trkpt><trkpt lat="40.9453914" lon="9.5034635"><ele>23.0</ele><time>2026-04-30T06:39:25.742Z</time></trkpt><trkpt lat="40.9454852" lon="9.5034392"><ele>23.5</ele><time>2026-04-30T06:39:27.742Z</time></trkpt><trkpt lat="40.9455509" lon="9.5034811"><ele>24.0</ele><time>2026-04-30T06:39:29.742Z</time></trkpt><trkpt lat="40.9456273" lon="9.503531"><ele>24.0</ele><time>2026-04-30T06:39:32.741Z</time></trkpt><trkpt lat="40.9456955" lon="9.5035289"><ele>24.0</ele><time>2026-04-30T06:39:35.742Z</time></trkpt><trkpt lat="40.945766" lon="9.5035147"><ele>24.0</ele><time>2026-04-30T06:42:42.742Z</time></trkpt><trkpt lat="40.9458392" lon="9.5034366"><ele>24.0</ele><time>2026-04-30T06:42:45.742Z</time></trkpt><trkpt lat="40.9458874" lon="9.5033668"><ele>24.0</ele><time>2026-04-30T06:42:47.741Z</time></trkpt><trkpt lat="40.9459373" lon="9.5032857"><ele>24.0</ele><time>2026-04-30T06:42:49.742Z</time></trkpt><trkpt lat="40.9459967" lon="9.503196"><ele>24.0</ele><time>2026-04-30T06:42:51.742Z</time></trkpt><trkpt lat="40.9460723" lon="9.5031174"><ele>24.0</ele><time>2026-04-30T06:42:53.741Z</time></trkpt><trkpt lat="40.9461324" lon="9.5030701"><ele>24.0</ele><time>2026-04-30T06:42:54.742Z</time></trkpt><trkpt lat="40.9462109" lon="9.5030178"><ele>24.0</ele><time>2026-04-30T06:42:55.742Z</time></trkpt><trkpt lat="40.9463058" lon="9.5029601"><ele>24.0</ele><time>2026-04-30T06:42:56.742Z</time></trkpt><trkpt lat="40.9464125" lon="9.5028981"><ele>24.0</ele><time>2026-04-30T06:42:57.742Z</time></trkpt><trkpt lat="40.9465269" lon="9.5028366"><ele>24.0</ele><time>2026-04-30T06:42:58.742Z</time></trkpt><trkpt lat="40.9466453" lon="9.5027707"><ele>24.0</ele><time>2026-04-30T06:42:59.742Z</time></trkpt><trkpt lat="40.9467672" lon="9.5027083"><ele>24.0</ele><time>2026-04-30T06:43:00.741Z</time></trkpt><trkpt lat="40.9468807" lon="9.5026512"><ele>24.75</ele><time>2026-04-30T06:43:01.742Z</time></trkpt><trkpt lat="40.9469877" lon="9.5025949"><ele>25.5</ele><time>2026-04-30T06:43:02.742Z</time></trkpt><trkpt lat="40.9470895" lon="9.5025418"><ele>26.25</ele><time>2026-04-30T06:43:03.742Z</time></trkpt><trkpt lat="40.9471928" lon="9.5024867"><ele>27.0</ele><time>2026-04-30T06:43:04.742Z</time></trkpt><trkpt lat="40.9473088" lon="9.5024314"><ele>27.0</ele><time>2026-04-30T06:43:05.742Z</time></trkpt><trkpt lat="40.9474256" lon="9.5023737"><ele>27.0</ele><time>2026-04-30T06:43:06.742Z</time></trkpt><trkpt lat="40.9475463" lon="9.502314"><ele>27.0</ele><time>2026-04-30T06:43:07.741Z</time></trkpt><trkpt lat="40.9476734" lon="9.5022506"><ele>27.0</ele><time>2026-04-30T06:43:08.741Z</time></trkpt><trkpt lat="40.9478046" lon="9.5021842"><ele>28.0</ele><time>2026-04-30T06:43:09.741Z</time></trkpt><trkpt lat="40.9479391" lon="9.5021112"><ele>29.0</ele><time>2026-04-30T06:43:10.741Z</time></trkpt><trkpt lat="40.9480762" lon="9.5020404"><ele>30.0</ele><time>2026-04-30T06:43:11.742Z</time></trkpt><trkpt lat="40.9482084" lon="9.5019744"><ele>31.0</ele><time>2026-04-30T06:43:12.742Z</time></trkpt><trkpt lat="40.9483419" lon="9.5019051"><ele>31.25</ele><time>2026-04-30T06:43:13.741Z</time></trkpt><trkpt lat="40.9484773" lon="9.5018362"><ele>31.5</ele><time>2026-04-30T06:43:14.742Z</time></trkpt><trkpt lat="40.9486169" lon="9.5017674"><ele>31.75</ele><time>2026-04-30T06:43:15.742Z</time></trkpt><trkpt lat="40.9487594" lon="9.5016982"><ele>32.0</ele><time>2026-04-30T06:43:16.742Z</time></trkpt><trkpt lat="40.9489016" lon="9.5016224"><ele>32.0</ele><time>2026-04-30T06:43:17.741Z</time></trkpt><trkpt lat="40.9490437" lon="9.5015488"><ele>32.0</ele><time>2026-04-30T06:43:18.741Z</time></trkpt><trkpt lat="40.9491847" lon="9.501473"><ele>32.0</ele><time>2026-04-30T06:43:19.741Z</time></trkpt><trkpt lat="40.9493148" lon="9.5014092"><ele>32.0</ele><time>2026-04-30T06:43:20.742Z</time></trkpt><trkpt lat="40.9494393" lon="9.5013483"><ele>32.4</ele><time>2026-04-30T06:43:21.742Z</time></trkpt><trkpt lat="40.9495537" lon="9.5012915"><ele>32.800000000000004</ele><time>2026-04-30T06:43:22.742Z</time></trkpt><trkpt lat="40.9496595" lon="9.5012379"><ele>33.2</ele><time>2026-04-30T06:43:23.742Z</time></trkpt><trkpt lat="40.9497583" lon="9.501191"><ele>33.6</ele><time>2026-04-30T06:43:24.742Z</time></trkpt><trkpt lat="40.9498481" lon="9.5011439"><ele>34.0</ele><time>2026-04-30T06:43:25.741Z</time></trkpt><trkpt lat="40.9499318" lon="9.5011038"><ele>34.0</ele><time>2026-04-30T06:43:26.742Z</time></trkpt><trkpt lat="40.9500135" lon="9.5010634"><ele>34.0</ele><time>2026-04-30T06:43:27.742Z</time></trkpt><trkpt lat="40.9500988" lon="9.501023"><ele>34.0</ele><time>2026-04-30T06:43:28.742Z</time></trkpt><trkpt lat="40.9501884" lon="9.5009765"><ele>34.0</ele><time>2026-04-30T06:43:29.742Z</time></trkpt><trkpt lat="40.9503821" lon="9.5008824"><ele>34.75</ele><time>2026-04-30T06:43:31.742Z</time></trkpt><trkpt lat="40.9504887" lon="9.5008312"><ele>35.5</ele><time>2026-04-30T06:43:32.742Z</time></trkpt><trkpt lat="40.9506011" lon="9.500778"><ele>36.25</ele><time>2026-04-30T06:43:33.742Z</time></trkpt><trkpt lat="40.9507313" lon="9.5007184"><ele>37.0</ele><time>2026-04-30T06:43:34.742Z</time></trkpt><trkpt lat="40.9508751" lon="9.5006564"><ele>37.333333333333336</ele><time>2026-04-30T06:43:35.742Z</time></trkpt><trkpt lat="40.9510279" lon="9.5005883"><ele>37.666666666666664</ele><time>2026-04-30T06:43:36.742Z</time></trkpt><trkpt lat="40.9511936" lon="9.5005131"><ele>38.0</ele><time>2026-04-30T06:43:37.741Z</time></trkpt><trkpt lat="40.9513595" lon="9.5004357"><ele>38.0</ele><time>2026-04-30T06:43:38.742Z</time></trkpt><trkpt lat="40.95152" lon="9.5003677"><ele>38.0</ele><time>2026-04-30T06:43:39.742Z</time></trkpt><trkpt lat="40.9516831" lon="9.500299"><ele>38.0</ele><time>2026-04-30T06:43:40.741Z</time></trkpt><trkpt lat="40.9518512" lon="9.500233"><ele>38.33333333333333</ele><time>2026-04-30T06:43:41.742Z</time></trkpt><trkpt lat="40.9520217" lon="9.5001695"><ele>38.666666666666664</ele><time>2026-04-30T06:43:42.742Z</time></trkpt><trkpt lat="40.9521956" lon="9.5001067"><ele>39.0</ele><time>2026-04-30T06:43:43.742Z</time></trkpt><trkpt lat="40.9523715" lon="9.5000415"><ele>40.0</ele><time>2026-04-30T06:43:44.742Z</time></trkpt><trkpt lat="40.9525491" lon="9.499976"><ele>41.0</ele><time>2026-04-30T06:43:45.742Z</time></trkpt><trkpt lat="40.9527234" lon="9.4999146"><ele>42.0</ele><time>2026-04-30T06:43:46.741Z</time></trkpt><trkpt lat="40.9528977" lon="9.499855"><ele>42.0</ele><time>2026-04-30T06:43:47.742Z</time></trkpt><trkpt lat="40.953073" lon="9.4997945"><ele>42.0</ele><time>2026-04-30T06:43:48.742Z</time></trkpt><trkpt lat="40.9532478" lon="9.4997336"><ele>42.0</ele><time>2026-04-30T06:43:49.742Z</time></trkpt><trkpt lat="40.9534234" lon="9.4996722"><ele>44.33333333333333</ele><time>2026-04-30T06:43:50.742Z</time></trkpt><trkpt lat="40.9535962" lon="9.4996107"><ele>46.666666666666664</ele><time>2026-04-30T06:43:51.741Z</time></trkpt><trkpt lat="40.9537705" lon="9.4995497"><ele>49.0</ele><time>2026-04-30T06:43:52.742Z</time></trkpt><trkpt lat="40.9539473" lon="9.499493"><ele>49.33333333333333</ele><time>2026-04-30T06:43:53.742Z</time></trkpt><trkpt lat="40.9541231" lon="9.499437"><ele>49.66666666666667</ele><time>2026-04-30T06:43:54.742Z</time></trkpt><trkpt lat="40.9542987" lon="9.4993821"><ele>50.0</ele><time>2026-04-30T06:43:55.742Z</time></trkpt><trkpt lat="40.9544751" lon="9.4993283"><ele>50.66666666666667</ele><time>2026-04-30T06:43:56.742Z</time></trkpt><trkpt lat="40.9546516" lon="9.4992754"><ele>51.33333333333333</ele><time>2026-04-30T06:43:57.742Z</time></trkpt><trkpt lat="40.9548252" lon="9.4992238"><ele>52.0</ele><time>2026-04-30T06:43:58.741Z</time></trkpt><trkpt lat="40.9550066" lon="9.4991614"><ele>54.33333333333333</ele><time>2026-04-30T06:43:59.742Z</time></trkpt><trkpt lat="40.9552028" lon="9.4990915"><ele>56.66666666666667</ele><time>2026-04-30T06:44:00.742Z</time></trkpt><trkpt lat="40.9554065" lon="9.49902"><ele>59.0</ele><time>2026-04-30T06:44:01.742Z</time></trkpt><trkpt lat="40.9556211" lon="9.4989443"><ele>59.0</ele><time>2026-04-30T06:44:02.742Z</time></trkpt><trkpt lat="40.9558438" lon="9.4988659"><ele>59.0</ele><time>2026-04-30T06:44:03.742Z</time></trkpt><trkpt lat="40.9560674" lon="9.4987868"><ele>57.333333333333336</ele><time>2026-04-30T06:44:04.741Z</time></trkpt><trkpt lat="40.9562846" lon="9.4987041"><ele>55.66666666666667</ele><time>2026-04-30T06:44:05.742Z</time></trkpt><trkpt lat="40.9564951" lon="9.4986196"><ele>54.0</ele><time>2026-04-30T06:44:06.742Z</time></trkpt><trkpt lat="40.9566984" lon="9.4985299"><ele>53.33333333333333</ele><time>2026-04-30T06:44:07.742Z</time></trkpt><trkpt lat="40.9568936" lon="9.4984385"><ele>52.666666666666664</ele><time>2026-04-30T06:44:08.742Z</time></trkpt><trkpt lat="40.9570762" lon="9.4983475"><ele>52.0</ele><time>2026-04-30T06:44:09.742Z</time></trkpt><trkpt lat="40.9572477" lon="9.4982557"><ele>52.0</ele><time>2026-04-30T06:44:10.742Z</time></trkpt><trkpt lat="40.9574084" lon="9.4981597"><ele>52.0</ele><time>2026-04-30T06:44:11.742Z</time></trkpt><trkpt lat="40.9575639" lon="9.498065"><ele>52.0</ele><time>2026-04-30T06:44:12.742Z</time></trkpt><trkpt lat="40.9577168" lon="9.4979642"><ele>53.0</ele><time>2026-04-30T06:44:13.741Z</time></trkpt><trkpt lat="40.957866" lon="9.497866"><ele>54.0</ele><time>2026-04-30T06:44:14.742Z</time></trkpt><trkpt lat="40.9580111" lon="9.4977633"><ele>55.0</ele><time>2026-04-30T06:44:15.742Z</time></trkpt><trkpt lat="40.9581562" lon="9.4976588"><ele>55.0</ele><time>2026-04-30T06:44:16.741Z</time></trkpt><trkpt lat="40.9583" lon="9.4975494"><ele>55.0</ele><time>2026-04-30T06:44:17.742Z</time></trkpt><trkpt lat="40.9584383" lon="9.4974416"><ele>55.0</ele><time>2026-04-30T06:44:18.741Z</time></trkpt><trkpt lat="40.9585705" lon="9.4973368"><ele>55.33333333333333</ele><time>2026-04-30T06:44:19.741Z</time></trkpt><trkpt lat="40.9587051" lon="9.4972224"><ele>55.66666666666667</ele><time>2026-04-30T06:44:20.742Z</time></trkpt><trkpt lat="40.9588397" lon="9.4971023"><ele>56.0</ele><time>2026-04-30T06:44:21.742Z</time></trkpt><trkpt lat="40.9589747" lon="9.496981"><ele>55.333333333333336</ele><time>2026-04-30T06:44:22.742Z</time></trkpt><trkpt lat="40.9591053" lon="9.4968573"><ele>54.66666666666667</ele><time>2026-04-30T06:44:23.742Z</time></trkpt><trkpt lat="40.9592335" lon="9.496731"><ele>54.0</ele><time>2026-04-30T06:44:24.742Z</time></trkpt><trkpt lat="40.9593615" lon="9.4966018"><ele>54.0</ele><time>2026-04-30T06:44:25.742Z</time></trkpt><trkpt lat="40.9594894" lon="9.4964727"><ele>54.0</ele><time>2026-04-30T06:44:26.741Z</time></trkpt><trkpt lat="40.9596176" lon="9.4963393"><ele>54.0</ele><time>2026-04-30T06:44:27.742Z</time></trkpt><trkpt lat="40.9597492" lon="9.496203"><ele>54.0</ele><time>2026-04-30T06:44:28.742Z</time></trkpt><trkpt lat="40.9598838" lon="9.4960646"><ele>54.0</ele><time>2026-04-30T06:44:29.741Z</time></trkpt><trkpt lat="40.9600224" lon="9.4959244"><ele>54.0</ele><time>2026-04-30T06:44:30.741Z</time></trkpt><trkpt lat="40.9601626" lon="9.4957824"><ele>54.0</ele><time>2026-04-30T06:44:31.742Z</time></trkpt><trkpt lat="40.960305" lon="9.4956346"><ele>54.0</ele><time>2026-04-30T06:44:32.742Z</time></trkpt><trkpt lat="40.9604476" lon="9.4954891"><ele>54.0</ele><time>2026-04-30T06:44:33.741Z</time></trkpt><trkpt lat="40.9605901" lon="9.4953415"><ele>54.0</ele><time>2026-04-30T06:44:34.742Z</time></trkpt><trkpt lat="40.9607328" lon="9.4951903"><ele>54.0</ele><time>2026-04-30T06:44:35.741Z</time></trkpt><trkpt lat="40.9608788" lon="9.4950394"><ele>54.0</ele><time>2026-04-30T06:44:36.742Z</time></trkpt><trkpt lat="40.9610205" lon="9.4948928"><ele>55.0</ele><time>2026-04-30T06:44:37.742Z</time></trkpt><trkpt lat="40.9611631" lon="9.4947467"><ele>56.0</ele><time>2026-04-30T06:44:38.742Z</time></trkpt><trkpt lat="40.9613049" lon="9.4946011"><ele>57.0</ele><time>2026-04-30T06:44:39.742Z</time></trkpt><trkpt lat="40.9614454" lon="9.4944537"><ele>57.0</ele><time>2026-04-30T06:44:40.742Z</time></trkpt><trkpt lat="40.9615845" lon="9.4943073"><ele>57.0</ele><time>2026-04-30T06:44:41.742Z</time></trkpt><trkpt lat="40.9617192" lon="9.4941642"><ele>57.0</ele><time>2026-04-30T06:44:42.742Z</time></trkpt><trkpt lat="40.9618559" lon="9.4940211"><ele>57.66666666666667</ele><time>2026-04-30T06:44:43.742Z</time></trkpt><trkpt lat="40.9619916" lon="9.4938796"><ele>58.333333333333336</ele><time>2026-04-30T06:44:44.742Z</time></trkpt><trkpt lat="40.9621294" lon="9.4937365"><ele>59.0</ele><time>2026-04-30T06:44:45.742Z</time></trkpt><trkpt lat="40.9622683" lon="9.4935909"><ele>59.0</ele><time>2026-04-30T06:44:46.742Z</time></trkpt><trkpt lat="40.9624093" lon="9.4934435"><ele>59.0</ele><time>2026-04-30T06:44:47.742Z</time></trkpt><trkpt lat="40.9625512" lon="9.4932961"><ele>59.0</ele><time>2026-04-30T06:44:48.742Z</time></trkpt><trkpt lat="40.9626946" lon="9.4931478"><ele>60.66666666666667</ele><time>2026-04-30T06:44:49.742Z</time></trkpt><trkpt lat="40.9628354" lon="9.4930029"><ele>62.33333333333333</ele><time>2026-04-30T06:44:50.742Z</time></trkpt><trkpt lat="40.9629736" lon="9.4928603"><ele>64.0</ele><time>2026-04-30T06:44:51.742Z</time></trkpt><trkpt lat="40.9631087" lon="9.4927188"><ele>64.0</ele><time>2026-04-30T06:44:52.742Z</time></trkpt><trkpt lat="40.9632424" lon="9.4925804"><ele>64.0</ele><time>2026-04-30T06:44:53.742Z</time></trkpt><trkpt lat="40.9633763" lon="9.4924454"><ele>64.0</ele><time>2026-04-30T06:44:54.742Z</time></trkpt><trkpt lat="40.9635143" lon="9.4923142"><ele>65.66666666666666</ele><time>2026-04-30T06:44:55.742Z</time></trkpt><trkpt lat="40.9636559" lon="9.4921852"><ele>67.33333333333333</ele><time>2026-04-30T06:44:56.742Z</time></trkpt><trkpt lat="40.9638025" lon="9.49206"><ele>69.0</ele><time>2026-04-30T06:44:57.742Z</time></trkpt><trkpt lat="40.9639569" lon="9.4919371"><ele>69.0</ele><time>2026-04-30T06:44:58.742Z</time></trkpt><trkpt lat="40.96412" lon="9.4918157"><ele>69.0</ele><time>2026-04-30T06:44:59.742Z</time></trkpt><trkpt lat="40.9642881" lon="9.4916976"><ele>69.0</ele><time>2026-04-30T06:45:00.742Z</time></trkpt><trkpt lat="40.9644595" lon="9.4915864"><ele>68.33333333333333</ele><time>2026-04-30T06:45:01.742Z</time></trkpt><trkpt lat="40.9646307" lon="9.4914856"><ele>67.66666666666666</ele><time>2026-04-30T06:45:02.742Z</time></trkpt><trkpt lat="40.9647951" lon="9.4913982"><ele>67.0</ele><time>2026-04-30T06:45:03.742Z</time></trkpt><trkpt lat="40.9649575" lon="9.4913191"><ele>65.66666666666666</ele><time>2026-04-30T06:45:04.742Z</time></trkpt><trkpt lat="40.9651236" lon="9.491246"><ele>64.33333333333333</ele><time>2026-04-30T06:45:05.742Z</time></trkpt><trkpt lat="40.9652914" lon="9.491181"><ele>63.0</ele><time>2026-04-30T06:45:06.742Z</time></trkpt><trkpt lat="40.9654536" lon="9.4911247"><ele>63.0</ele><time>2026-04-30T06:45:07.742Z</time></trkpt><trkpt lat="40.965613" lon="9.4910769"><ele>63.0</ele><time>2026-04-30T06:45:08.742Z</time></trkpt><trkpt lat="40.965774" lon="9.4910348"><ele>63.0</ele><time>2026-04-30T06:45:09.742Z</time></trkpt><trkpt lat="40.9659351" lon="9.4909995"><ele>62.33333333333333</ele><time>2026-04-30T06:45:10.742Z</time></trkpt><trkpt lat="40.9660948" lon="9.4909691"><ele>61.666666666666664</ele><time>2026-04-30T06:45:11.742Z</time></trkpt><trkpt lat="40.9662556" lon="9.4909447"><ele>61.0</ele><time>2026-04-30T06:45:12.742Z</time></trkpt><trkpt lat="40.9664176" lon="9.4909286"><ele>61.0</ele><time>2026-04-30T06:45:13.741Z</time></trkpt><trkpt lat="40.9665793" lon="9.4909176"><ele>61.0</ele><time>2026-04-30T06:45:14.742Z</time></trkpt><trkpt lat="40.9667449" lon="9.4909161"><ele>61.0</ele><time>2026-04-30T06:45:15.742Z</time></trkpt><trkpt lat="40.9669081" lon="9.4909189"><ele>61.0</ele><time>2026-04-30T06:45:16.742Z</time></trkpt><trkpt lat="40.9670663" lon="9.4909273"><ele>61.0</ele><time>2026-04-30T06:45:17.742Z</time></trkpt><trkpt lat="40.9672203" lon="9.4909431"><ele>61.0</ele><time>2026-04-30T06:45:18.741Z</time></trkpt><trkpt lat="40.9673716" lon="9.4909619"><ele>61.0</ele><time>2026-04-30T06:45:19.742Z</time></trkpt><trkpt lat="40.9675157" lon="9.490986"><ele>61.0</ele><time>2026-04-30T06:45:20.742Z</time></trkpt><trkpt lat="40.9676553" lon="9.4910089"><ele>61.0</ele><time>2026-04-30T06:45:21.742Z</time></trkpt><trkpt lat="40.9677932" lon="9.4910338"><ele>61.0</ele><time>2026-04-30T06:45:22.742Z</time></trkpt><trkpt lat="40.9679312" lon="9.4910646"><ele>60.0</ele><time>2026-04-30T06:45:23.742Z</time></trkpt><trkpt lat="40.9680708" lon="9.4910962"><ele>59.0</ele><time>2026-04-30T06:45:24.742Z</time></trkpt><trkpt lat="40.9682149" lon="9.4911331"><ele>58.0</ele><time>2026-04-30T06:45:25.742Z</time></trkpt><trkpt lat="40.9683581" lon="9.4911665"><ele>57.0</ele><time>2026-04-30T06:45:26.742Z</time></trkpt><trkpt lat="40.9684977" lon="9.4911967"><ele>57.0</ele><time>2026-04-30T06:45:27.741Z</time></trkpt><trkpt lat="40.9686294" lon="9.4912294"><ele>57.0</ele><time>2026-04-30T06:45:28.742Z</time></trkpt><trkpt lat="40.968749" lon="9.4912616"><ele>57.0</ele><time>2026-04-30T06:45:29.742Z</time></trkpt><trkpt lat="40.9688608" lon="9.4912877"><ele>57.0</ele><time>2026-04-30T06:45:30.742Z</time></trkpt><trkpt lat="40.9689715" lon="9.4913143"><ele>56.75</ele><time>2026-04-30T06:45:31.742Z</time></trkpt><trkpt lat="40.9690799" lon="9.4913396"><ele>56.5</ele><time>2026-04-30T06:45:32.742Z</time></trkpt><trkpt lat="40.9691918" lon="9.4913602"><ele>56.25</ele><time>2026-04-30T06:45:33.742Z</time></trkpt><trkpt lat="40.9693061" lon="9.4913802"><ele>56.0</ele><time>2026-04-30T06:45:34.742Z</time></trkpt><trkpt lat="40.9694229" lon="9.491387"><ele>55.599999999999994</ele><time>2026-04-30T06:45:35.742Z</time></trkpt><trkpt lat="40.9695362" lon="9.4913849"><ele>55.199999999999996</ele><time>2026-04-30T06:45:36.742Z</time></trkpt><trkpt lat="40.9696435" lon="9.4913778"><ele>54.800000000000004</ele><time>2026-04-30T06:45:37.742Z</time></trkpt><trkpt lat="40.9697438" lon="9.4913668"><ele>54.400000000000006</ele><time>2026-04-30T06:45:38.742Z</time></trkpt><trkpt lat="40.9698374" lon="9.4913547"><ele>54.0</ele><time>2026-04-30T06:45:39.742Z</time></trkpt><trkpt lat="40.9699315" lon="9.4913372"><ele>54.0</ele><time>2026-04-30T06:45:40.742Z</time></trkpt><trkpt lat="40.9700278" lon="9.4913198"><ele>54.00000000000001</ele><time>2026-04-30T06:45:41.742Z</time></trkpt><trkpt lat="40.9701308" lon="9.4912969"><ele>54.00000000000001</ele><time>2026-04-30T06:45:42.742Z</time></trkpt><trkpt lat="40.9702353" lon="9.4912699"><ele>54.0</ele><time>2026-04-30T06:45:43.742Z</time></trkpt><trkpt lat="40.9703425" lon="9.4912424"><ele>54.0</ele><time>2026-04-30T06:45:44.741Z</time></trkpt><trkpt lat="40.9704532" lon="9.4912099"><ele>54.0</ele><time>2026-04-30T06:45:45.742Z</time></trkpt><trkpt lat="40.970565" lon="9.4911772"><ele>54.0</ele><time>2026-04-30T06:45:46.742Z</time></trkpt><trkpt lat="40.9706793" lon="9.4911452"><ele>54.0</ele><time>2026-04-30T06:45:47.741Z</time></trkpt><trkpt lat="40.9707884" lon="9.4911165"><ele>54.0</ele><time>2026-04-30T06:45:48.742Z</time></trkpt><trkpt lat="40.9708973" lon="9.4910886"><ele>54.2</ele><time>2026-04-30T06:45:49.742Z</time></trkpt><trkpt lat="40.9710068" lon="9.4910615"><ele>54.400000000000006</ele><time>2026-04-30T06:45:50.742Z</time></trkpt><trkpt lat="40.9711081" lon="9.4910365"><ele>54.6</ele><time>2026-04-30T06:45:51.742Z</time></trkpt><trkpt lat="40.9712058" lon="9.4910116"><ele>54.8</ele><time>2026-04-30T06:45:52.742Z</time></trkpt><trkpt lat="40.9713076" lon="9.4909844"><ele>55.0</ele><time>2026-04-30T06:45:53.742Z</time></trkpt><trkpt lat="40.971412" lon="9.4909585"><ele>55.0</ele><time>2026-04-30T06:45:54.742Z</time></trkpt><trkpt lat="40.9715208" lon="9.4909342"><ele>55.0</ele><time>2026-04-30T06:45:55.742Z</time></trkpt><trkpt lat="40.9716324" lon="9.4909076"><ele>55.0</ele><time>2026-04-30T06:45:56.742Z</time></trkpt><trkpt lat="40.9717381" lon="9.4908877"><ele>55.0</ele><time>2026-04-30T06:45:57.742Z</time></trkpt><trkpt lat="40.9718414" lon="9.4908657"><ele>55.0</ele><time>2026-04-30T06:45:58.741Z</time></trkpt><trkpt lat="40.9719368" lon="9.4908488"><ele>54.8</ele><time>2026-04-30T06:45:59.741Z</time></trkpt><trkpt lat="40.9720244" lon="9.4908339"><ele>54.6</ele><time>2026-04-30T06:46:00.742Z</time></trkpt><trkpt lat="40.9721149" lon="9.4908193"><ele>54.400000000000006</ele><time>2026-04-30T06:46:01.742Z</time></trkpt><trkpt lat="40.9722043" lon="9.4907995"><ele>54.2</ele><time>2026-04-30T06:46:02.742Z</time></trkpt><trkpt lat="40.9723038" lon="9.4907831"><ele>54.0</ele><time>2026-04-30T06:46:03.741Z</time></trkpt><trkpt lat="40.9724077" lon="9.4907632"><ele>54.0</ele><time>2026-04-30T06:46:04.742Z</time></trkpt><trkpt lat="40.9725079" lon="9.4907462"><ele>54.0</ele><time>2026-04-30T06:46:05.742Z</time></trkpt><trkpt lat="40.9725958" lon="9.4907282"><ele>54.0</ele><time>2026-04-30T06:46:06.742Z</time></trkpt><trkpt lat="40.9726804" lon="9.4907147"><ele>54.0</ele><time>2026-04-30T06:46:07.742Z</time></trkpt><trkpt lat="40.9727643" lon="9.4906954"><ele>54.0</ele><time>2026-04-30T06:46:08.742Z</time></trkpt><trkpt lat="40.9728479" lon="9.4906758"><ele>54.0</ele><time>2026-04-30T06:46:09.742Z</time></trkpt><trkpt lat="40.9729326" lon="9.4906591"><ele>54.2</ele><time>2026-04-30T06:46:10.741Z</time></trkpt><trkpt lat="40.9730206" lon="9.4906398"><ele>54.400000000000006</ele><time>2026-04-30T06:46:11.742Z</time></trkpt><trkpt lat="40.9731126" lon="9.4906219"><ele>54.6</ele><time>2026-04-30T06:46:12.742Z</time></trkpt><trkpt lat="40.9732078" lon="9.4906033"><ele>54.8</ele><time>2026-04-30T06:46:13.742Z</time></trkpt><trkpt lat="40.9733054" lon="9.4905826"><ele>55.0</ele><time>2026-04-30T06:46:14.742Z</time></trkpt><trkpt lat="40.9734058" lon="9.4905636"><ele>55.0</ele><time>2026-04-30T06:46:15.742Z</time></trkpt><trkpt lat="40.9735069" lon="9.4905422"><ele>55.0</ele><time>2026-04-30T06:46:16.742Z</time></trkpt><trkpt lat="40.9736072" lon="9.4905232"><ele>55.0</ele><time>2026-04-30T06:46:17.741Z</time></trkpt><trkpt lat="40.9736995" lon="9.4905058"><ele>55.0</ele><time>2026-04-30T06:46:18.742Z</time></trkpt><trkpt lat="40.9737949" lon="9.4904896"><ele>55.0</ele><time>2026-04-30T06:46:19.742Z</time></trkpt><trkpt lat="40.9738887" lon="9.4904711"><ele>55.0</ele><time>2026-04-30T06:46:20.742Z</time></trkpt><trkpt lat="40.9739869" lon="9.4904521"><ele>55.0</ele><time>2026-04-30T06:46:21.742Z</time></trkpt><trkpt lat="40.9740877" lon="9.4904292"><ele>55.0</ele><time>2026-04-30T06:46:22.742Z</time></trkpt><trkpt lat="40.9741989" lon="9.4904103"><ele>55.0</ele><time>2026-04-30T06:46:23.742Z</time></trkpt><trkpt lat="40.9743061" lon="9.4903996"><ele>55.0</ele><time>2026-04-30T06:46:24.742Z</time></trkpt><trkpt lat="40.9744153" lon="9.490404"><ele>55.5</ele><time>2026-04-30T06:46:25.742Z</time></trkpt><trkpt lat="40.974531" lon="9.4904234"><ele>56.0</ele><time>2026-04-30T06:46:26.742Z</time></trkpt><trkpt lat="40.974646" lon="9.4904485"><ele>56.5</ele><time>2026-04-30T06:46:27.742Z</time></trkpt><trkpt lat="40.9747548" lon="9.490495"><ele>57.0</ele><time>2026-04-30T06:46:28.742Z</time></trkpt><trkpt lat="40.9748585" lon="9.4905603"><ele>57.0</ele><time>2026-04-30T06:46:29.742Z</time></trkpt><trkpt lat="40.9749537" lon="9.4906354"><ele>57.0</ele><time>2026-04-30T06:46:30.742Z</time></trkpt><trkpt lat="40.9750418" lon="9.4907062"><ele>57.0</ele><time>2026-04-30T06:46:31.742Z</time></trkpt><trkpt lat="40.9751221" lon="9.4907809"><ele>57.0</ele><time>2026-04-30T06:46:32.742Z</time></trkpt><trkpt lat="40.9751998" lon="9.490855"><ele>57.0</ele><time>2026-04-30T06:46:33.742Z</time></trkpt><trkpt lat="40.9752802" lon="9.4909281"><ele>57.0</ele><time>2026-04-30T06:46:34.742Z</time></trkpt><trkpt lat="40.97536" lon="9.490995"><ele>57.0</ele><time>2026-04-30T06:46:35.742Z</time></trkpt><trkpt lat="40.9754409" lon="9.4910556"><ele>57.0</ele><time>2026-04-30T06:46:36.742Z</time></trkpt><trkpt lat="40.9755263" lon="9.4911089"><ele>57.0</ele><time>2026-04-30T06:46:37.742Z</time></trkpt><trkpt lat="40.9756183" lon="9.4911558"><ele>57.0</ele><time>2026-04-30T06:46:38.742Z</time></trkpt><trkpt lat="40.9757145" lon="9.4911993"><ele>57.0</ele><time>2026-04-30T06:46:39.742Z</time></trkpt><trkpt lat="40.9758109" lon="9.4912322"><ele>57.0</ele><time>2026-04-30T06:46:40.742Z</time></trkpt><trkpt lat="40.9759077" lon="9.4912535"><ele>57.0</ele><time>2026-04-30T06:46:41.742Z</time></trkpt><trkpt lat="40.9760027" lon="9.4912678"><ele>57.0</ele><time>2026-04-30T06:46:42.741Z</time></trkpt><trkpt lat="40.9760941" lon="9.4912788"><ele>57.0</ele><time>2026-04-30T06:46:43.742Z</time></trkpt><trkpt lat="40.9761847" lon="9.4912904"><ele>56.400000000000006</ele><time>2026-04-30T06:46:44.742Z</time></trkpt><trkpt lat="40.9762705" lon="9.4912977"><ele>55.800000000000004</ele><time>2026-04-30T06:46:45.742Z</time></trkpt><trkpt lat="40.9763456" lon="9.4913042"><ele>55.2</ele><time>2026-04-30T06:46:46.742Z</time></trkpt><trkpt lat="40.9764557" lon="9.4913149"><ele>54.6</ele><time>2026-04-30T06:46:48.742Z</time></trkpt><trkpt lat="40.9765506" lon="9.4913222"><ele>54.0</ele><time>2026-04-30T06:46:50.742Z</time></trkpt><trkpt lat="40.9766581" lon="9.4913248"><ele>54.166666666666664</ele><time>2026-04-30T06:46:52.742Z</time></trkpt><trkpt lat="40.9767233" lon="9.491331"><ele>54.33333333333333</ele><time>2026-04-30T06:46:53.742Z</time></trkpt><trkpt lat="40.9767976" lon="9.4913339"><ele>54.5</ele><time>2026-04-30T06:46:54.741Z</time></trkpt><trkpt lat="40.9768742" lon="9.4913401"><ele>54.666666666666664</ele><time>2026-04-30T06:46:55.742Z</time></trkpt><trkpt lat="40.9769547" lon="9.4913466"><ele>54.83333333333333</ele><time>2026-04-30T06:46:56.741Z</time></trkpt><trkpt lat="40.9770359" lon="9.4913572"><ele>55.0</ele><time>2026-04-30T06:46:57.742Z</time></trkpt><trkpt lat="40.9771085" lon="9.4913611"><ele>54.99999999999999</ele><time>2026-04-30T06:46:58.742Z</time></trkpt><trkpt lat="40.9771782" lon="9.4913612"><ele>55.0</ele><time>2026-04-30T06:46:59.741Z</time></trkpt><trkpt lat="40.9772486" lon="9.4913681"><ele>55.0</ele><time>2026-04-30T06:47:00.742Z</time></trkpt><trkpt lat="40.977322" lon="9.491376"><ele>55.0</ele><time>2026-04-30T06:47:01.742Z</time></trkpt><trkpt lat="40.9773985" lon="9.4913842"><ele>54.99999999999999</ele><time>2026-04-30T06:47:02.742Z</time></trkpt><trkpt lat="40.9774799" lon="9.4913881"><ele>55.0</ele><time>2026-04-30T06:47:03.742Z</time></trkpt><trkpt lat="40.9775629" lon="9.4913933"><ele>54.666666666666664</ele><time>2026-04-30T06:47:04.742Z</time></trkpt><trkpt lat="40.9776472" lon="9.4913999"><ele>54.33333333333333</ele><time>2026-04-30T06:47:05.742Z</time></trkpt><trkpt lat="40.9777318" lon="9.4914077"><ele>54.0</ele><time>2026-04-30T06:47:06.742Z</time></trkpt><trkpt lat="40.977819" lon="9.4914143"><ele>53.66666666666667</ele><time>2026-04-30T06:47:07.742Z</time></trkpt><trkpt lat="40.9779054" lon="9.4914207"><ele>53.333333333333336</ele><time>2026-04-30T06:47:08.741Z</time></trkpt><trkpt lat="40.9779874" lon="9.4914265"><ele>53.0</ele><time>2026-04-30T06:47:09.742Z</time></trkpt><trkpt lat="40.9780717" lon="9.4914351"><ele>53.00000000000001</ele><time>2026-04-30T06:47:10.741Z</time></trkpt><trkpt lat="40.9781576" lon="9.4914435"><ele>53.0</ele><time>2026-04-30T06:47:11.741Z</time></trkpt><trkpt lat="40.978248" lon="9.4914566"><ele>53.0</ele><time>2026-04-30T06:47:12.742Z</time></trkpt><trkpt lat="40.9783329" lon="9.4914644"><ele>53.0</ele><time>2026-04-30T06:47:13.741Z</time></trkpt><trkpt lat="40.9784147" lon="9.4914751"><ele>53.00000000000001</ele><time>2026-04-30T06:47:14.742Z</time></trkpt><trkpt lat="40.9784883" lon="9.4914897"><ele>53.0</ele><time>2026-04-30T06:47:15.742Z</time></trkpt><trkpt lat="40.9786012" lon="9.4915103"><ele>53.333333333333336</ele><time>2026-04-30T06:47:17.742Z</time></trkpt><trkpt lat="40.9786886" lon="9.4915375"><ele>53.66666666666667</ele><time>2026-04-30T06:47:19.742Z</time></trkpt><trkpt lat="40.9787627" lon="9.4915924"><ele>54.0</ele><time>2026-04-30T06:47:21.741Z</time></trkpt><trkpt lat="40.9788279" lon="9.4917142"><ele>54.33333333333333</ele><time>2026-04-30T06:47:23.742Z</time></trkpt><trkpt lat="40.9788637" lon="9.4917947"><ele>54.666666666666664</ele><time>2026-04-30T06:47:24.742Z</time></trkpt><trkpt lat="40.9789183" lon="9.4918732"><ele>55.0</ele><time>2026-04-30T06:47:25.741Z</time></trkpt><trkpt lat="40.9789888" lon="9.4919244"><ele>54.99999999999999</ele><time>2026-04-30T06:47:26.742Z</time></trkpt><trkpt lat="40.9790612" lon="9.491935"><ele>55.0</ele><time>2026-04-30T06:47:27.742Z</time></trkpt><trkpt lat="40.9791264" lon="9.491908"><ele>55.0</ele><time>2026-04-30T06:47:28.742Z</time></trkpt><trkpt lat="40.979181" lon="9.4918436"><ele>55.0</ele><time>2026-04-30T06:47:29.742Z</time></trkpt><trkpt lat="40.9792215" lon="9.4917563"><ele>54.99999999999999</ele><time>2026-04-30T06:47:30.742Z</time></trkpt><trkpt lat="40.9792615" lon="9.4916594"><ele>55.0</ele><time>2026-04-30T06:47:31.742Z</time></trkpt><trkpt lat="40.9793173" lon="9.4915608"><ele>55.0</ele><time>2026-04-30T06:47:32.742Z</time></trkpt><trkpt lat="40.9793906" lon="9.4914565"><ele>55.0</ele><time>2026-04-30T06:47:33.741Z</time></trkpt><trkpt lat="40.9794743" lon="9.4913394"><ele>55.0</ele><time>2026-04-30T06:47:34.741Z</time></trkpt><trkpt lat="40.9795645" lon="9.4912187"><ele>55.0</ele><time>2026-04-30T06:47:35.742Z</time></trkpt><trkpt lat="40.9796619" lon="9.4910933"><ele>54.75</ele><time>2026-04-30T06:47:36.742Z</time></trkpt><trkpt lat="40.9797609" lon="9.4909683"><ele>54.5</ele><time>2026-04-30T06:47:37.742Z</time></trkpt><trkpt lat="40.9798568" lon="9.4908483"><ele>54.25</ele><time>2026-04-30T06:47:38.742Z</time></trkpt><trkpt lat="40.9799443" lon="9.4907418"><ele>54.0</ele><time>2026-04-30T06:47:39.742Z</time></trkpt><trkpt lat="40.9800278" lon="9.4906448"><ele>54.0</ele><time>2026-04-30T06:47:40.742Z</time></trkpt><trkpt lat="40.980101" lon="9.4905561"><ele>54.00000000000001</ele><time>2026-04-30T06:47:41.742Z</time></trkpt><trkpt lat="40.9801627" lon="9.4904686"><ele>54.00000000000001</ele><time>2026-04-30T06:47:42.742Z</time></trkpt><trkpt lat="40.9802128" lon="9.4903863"><ele>54.0</ele><time>2026-04-30T06:47:43.741Z</time></trkpt><trkpt lat="40.9802551" lon="9.4903118"><ele>54.0</ele><time>2026-04-30T06:47:44.742Z</time></trkpt><trkpt lat="40.9803336" lon="9.4901812"><ele>55.666666666666664</ele><time>2026-04-30T06:47:46.741Z</time></trkpt><trkpt lat="40.9803794" lon="9.4901158"><ele>57.33333333333333</ele><time>2026-04-30T06:47:47.741Z</time></trkpt><trkpt lat="40.9804346" lon="9.4900522"><ele>59.0</ele><time>2026-04-30T06:47:48.742Z</time></trkpt><trkpt lat="40.980503" lon="9.4900033"><ele>60.666666666666664</ele><time>2026-04-30T06:47:49.742Z</time></trkpt><trkpt lat="40.9805855" lon="9.4899685"><ele>62.33333333333333</ele><time>2026-04-30T06:47:50.742Z</time></trkpt><trkpt lat="40.9806791" lon="9.4899514"><ele>64.0</ele><time>2026-04-30T06:47:51.742Z</time></trkpt><trkpt lat="40.9807819" lon="9.4899397"><ele>63.2</ele><time>2026-04-30T06:47:52.742Z</time></trkpt><trkpt lat="40.9808934" lon="9.4899303"><ele>62.400000000000006</ele><time>2026-04-30T06:47:53.742Z</time></trkpt><trkpt lat="40.981005" lon="9.4899164"><ele>61.6</ele><time>2026-04-30T06:47:54.742Z</time></trkpt><trkpt lat="40.981112" lon="9.4898864"><ele>60.8</ele><time>2026-04-30T06:47:55.741Z</time></trkpt><trkpt lat="40.9812133" lon="9.489836"><ele>60.0</ele><time>2026-04-30T06:47:56.742Z</time></trkpt><trkpt lat="40.9813063" lon="9.4897767"><ele>60.0</ele><time>2026-04-30T06:47:57.742Z</time></trkpt><trkpt lat="40.9813945" lon="9.4897185"><ele>60.0</ele><time>2026-04-30T06:47:58.742Z</time></trkpt><trkpt lat="40.9814781" lon="9.4896677"><ele>60.0</ele><time>2026-04-30T06:47:59.742Z</time></trkpt><trkpt lat="40.9815619" lon="9.4896193"><ele>60.0</ele><time>2026-04-30T06:48:00.741Z</time></trkpt><trkpt lat="40.9816441" lon="9.4895671"><ele>60.0</ele><time>2026-04-30T06:48:01.742Z</time></trkpt><trkpt lat="40.9817277" lon="9.4895153"><ele>61.0</ele><time>2026-04-30T06:48:02.742Z</time></trkpt><trkpt lat="40.9818093" lon="9.4894555"><ele>62.0</ele><time>2026-04-30T06:48:03.741Z</time></trkpt><trkpt lat="40.9818904" lon="9.4893888"><ele>63.0</ele><time>2026-04-30T06:48:04.742Z</time></trkpt><trkpt lat="40.9819737" lon="9.4893108"><ele>64.0</ele><time>2026-04-30T06:48:05.742Z</time></trkpt><trkpt lat="40.9820576" lon="9.4892187"><ele>65.0</ele><time>2026-04-30T06:48:06.742Z</time></trkpt><trkpt lat="40.9821439" lon="9.4891134"><ele>65.0</ele><time>2026-04-30T06:48:07.742Z</time></trkpt><trkpt lat="40.9822352" lon="9.4889915"><ele>65.0</ele><time>2026-04-30T06:48:08.742Z</time></trkpt><trkpt lat="40.982324" lon="9.4888668"><ele>65.0</ele><time>2026-04-30T06:48:09.741Z</time></trkpt><trkpt lat="40.9824055" lon="9.4887282"><ele>65.0</ele><time>2026-04-30T06:48:10.742Z</time></trkpt><trkpt lat="40.9824834" lon="9.4885779"><ele>65.6</ele><time>2026-04-30T06:48:11.742Z</time></trkpt><trkpt lat="40.9825485" lon="9.4884322"><ele>66.2</ele><time>2026-04-30T06:48:12.742Z</time></trkpt><trkpt lat="40.982601" lon="9.4882982"><ele>66.8</ele><time>2026-04-30T06:48:13.742Z</time></trkpt><trkpt lat="40.9826439" lon="9.4881856"><ele>67.4</ele><time>2026-04-30T06:48:14.742Z</time></trkpt><trkpt lat="40.9826804" lon="9.4880856"><ele>68.0</ele><time>2026-04-30T06:48:15.742Z</time></trkpt><trkpt lat="40.9827116" lon="9.4879934"><ele>68.8</ele><time>2026-04-30T06:48:16.741Z</time></trkpt><trkpt lat="40.9827371" lon="9.4878928"><ele>69.6</ele><time>2026-04-30T06:48:17.742Z</time></trkpt><trkpt lat="40.982755" lon="9.4877792"><ele>70.4</ele><time>2026-04-30T06:48:18.742Z</time></trkpt><trkpt lat="40.982763" lon="9.4876491"><ele>71.2</ele><time>2026-04-30T06:48:19.742Z</time></trkpt><trkpt lat="40.9827537" lon="9.4875048"><ele>72.0</ele><time>2026-04-30T06:48:20.742Z</time></trkpt><trkpt lat="40.9827253" lon="9.4873471"><ele>72.0</ele><time>2026-04-30T06:48:21.742Z</time></trkpt><trkpt lat="40.9826849" lon="9.4871731"><ele>72.0</ele><time>2026-04-30T06:48:22.741Z</time></trkpt><trkpt lat="40.9826362" lon="9.4869821"><ele>72.0</ele><time>2026-04-30T06:48:23.742Z</time></trkpt><trkpt lat="40.9825842" lon="9.4867772"><ele>74.5</ele><time>2026-04-30T06:48:24.741Z</time></trkpt><trkpt lat="40.9825362" lon="9.4865814"><ele>77.0</ele><time>2026-04-30T06:48:25.741Z</time></trkpt><trkpt lat="40.9824968" lon="9.4864042"><ele>79.5</ele><time>2026-04-30T06:48:26.742Z</time></trkpt><trkpt lat="40.9824593" lon="9.4862473"><ele>82.0</ele><time>2026-04-30T06:48:27.742Z</time></trkpt><trkpt lat="40.9824226" lon="9.4861001"><ele>82.75</ele><time>2026-04-30T06:48:28.742Z</time></trkpt><trkpt lat="40.9823949" lon="9.485958"><ele>83.5</ele><time>2026-04-30T06:48:29.742Z</time></trkpt><trkpt lat="40.9823828" lon="9.4858212"><ele>84.25</ele><time>2026-04-30T06:48:30.742Z</time></trkpt><trkpt lat="40.9823713" lon="9.4856519"><ele>85.0</ele><time>2026-04-30T06:48:31.742Z</time></trkpt><trkpt lat="40.9823507" lon="9.4854742"><ele>85.25</ele><time>2026-04-30T06:48:32.742Z</time></trkpt><trkpt lat="40.9823257" lon="9.4853201"><ele>85.5</ele><time>2026-04-30T06:48:33.741Z</time></trkpt><trkpt lat="40.9822964" lon="9.4851613"><ele>85.75</ele><time>2026-04-30T06:48:34.742Z</time></trkpt><trkpt lat="40.9822629" lon="9.485019"><ele>86.0</ele><time>2026-04-30T06:48:35.741Z</time></trkpt><trkpt lat="40.9822267" lon="9.4848924"><ele>86.0</ele><time>2026-04-30T06:48:36.742Z</time></trkpt><trkpt lat="40.9821921" lon="9.484776"><ele>86.0</ele><time>2026-04-30T06:48:37.742Z</time></trkpt><trkpt lat="40.9821601" lon="9.4846602"><ele>86.0</ele><time>2026-04-30T06:48:38.742Z</time></trkpt><trkpt lat="40.9821349" lon="9.4845447"><ele>86.0</ele><time>2026-04-30T06:48:39.741Z</time></trkpt><trkpt lat="40.9821236" lon="9.4844229"><ele>86.0</ele><time>2026-04-30T06:48:40.742Z</time></trkpt><trkpt lat="40.9821311" lon="9.4842966"><ele>86.19999999999999</ele><time>2026-04-30T06:48:41.742Z</time></trkpt><trkpt lat="40.9821594" lon="9.4841642"><ele>86.39999999999999</ele><time>2026-04-30T06:48:42.742Z</time></trkpt><trkpt lat="40.9821983" lon="9.4840286"><ele>86.6</ele><time>2026-04-30T06:48:43.742Z</time></trkpt><trkpt lat="40.982239" lon="9.4839077"><ele>86.8</ele><time>2026-04-30T06:48:44.742Z</time></trkpt><trkpt lat="40.9822797" lon="9.4837844"><ele>87.0</ele><time>2026-04-30T06:48:45.741Z</time></trkpt><trkpt lat="40.9823216" lon="9.4836692"><ele>88.0</ele><time>2026-04-30T06:48:46.742Z</time></trkpt><trkpt lat="40.9823665" lon="9.4835579"><ele>89.0</ele><time>2026-04-30T06:48:47.742Z</time></trkpt><trkpt lat="40.9824122" lon="9.4834575"><ele>90.0</ele><time>2026-04-30T06:48:48.742Z</time></trkpt><trkpt lat="40.9824537" lon="9.4833647"><ele>91.0</ele><time>2026-04-30T06:48:49.742Z</time></trkpt><trkpt lat="40.9824938" lon="9.4832798"><ele>92.0</ele><time>2026-04-30T06:48:50.742Z</time></trkpt><trkpt lat="40.9825446" lon="9.4831992"><ele>93.0</ele><time>2026-04-30T06:48:51.742Z</time></trkpt><trkpt lat="40.982612" lon="9.4831391"><ele>95.0</ele><time>2026-04-30T06:48:52.742Z</time></trkpt><trkpt lat="40.9826905" lon="9.4831075"><ele>97.0</ele><time>2026-04-30T06:48:53.742Z</time></trkpt><trkpt lat="40.9827719" lon="9.4831023"><ele>99.0</ele><time>2026-04-30T06:48:54.742Z</time></trkpt><trkpt lat="40.9828587" lon="9.4831252"><ele>101.0</ele><time>2026-04-30T06:48:55.742Z</time></trkpt><trkpt lat="40.9829434" lon="9.4831623"><ele>103.0</ele><time>2026-04-30T06:48:56.742Z</time></trkpt><trkpt lat="40.9830483" lon="9.4832151"><ele>103.0</ele><time>2026-04-30T06:48:57.742Z</time></trkpt><trkpt lat="40.983176" lon="9.4832985"><ele>103.0</ele><time>2026-04-30T06:48:58.742Z</time></trkpt><trkpt lat="40.9833142" lon="9.4834092"><ele>103.0</ele><time>2026-04-30T06:48:59.741Z</time></trkpt><trkpt lat="40.9834206" lon="9.4835218"><ele>103.0</ele><time>2026-04-30T06:49:00.742Z</time></trkpt><trkpt lat="40.9834971" lon="9.4836424"><ele>109.25</ele><time>2026-04-30T06:49:01.742Z</time></trkpt><trkpt lat="40.9835391" lon="9.4837888"><ele>115.5</ele><time>2026-04-30T06:49:02.741Z</time></trkpt><trkpt lat="40.9835435" lon="9.4839564"><ele>121.75</ele><time>2026-04-30T06:49:03.742Z</time></trkpt><trkpt lat="40.98352" lon="9.4841495"><ele>128.0</ele><time>2026-04-30T06:49:04.742Z</time></trkpt><trkpt lat="40.9835017" lon="9.4843798"><ele>127.66666666666666</ele><time>2026-04-30T06:49:05.741Z</time></trkpt><trkpt lat="40.9835071" lon="9.48462"><ele>127.33333333333334</ele><time>2026-04-30T06:49:06.742Z</time></trkpt><trkpt lat="40.9835335" lon="9.4848865"><ele>127.0</ele><time>2026-04-30T06:49:07.741Z</time></trkpt><trkpt lat="40.9835798" lon="9.4851758"><ele>123.33333333333334</ele><time>2026-04-30T06:49:08.742Z</time></trkpt><trkpt lat="40.9836222" lon="9.4854422"><ele>119.66666666666666</ele><time>2026-04-30T06:49:09.742Z</time></trkpt><trkpt lat="40.9836613" lon="9.4856643"><ele>116.0</ele><time>2026-04-30T06:49:10.742Z</time></trkpt><trkpt lat="40.9837219" lon="9.4858513"><ele>116.0</ele><time>2026-04-30T06:49:11.741Z</time></trkpt><trkpt lat="40.9838091" lon="9.4859724"><ele>116.0</ele><time>2026-04-30T06:49:12.742Z</time></trkpt><trkpt lat="40.9839203" lon="9.4860377"><ele>116.0</ele><time>2026-04-30T06:49:13.742Z</time></trkpt><trkpt lat="40.9840457" lon="9.4860502"><ele>116.0</ele><time>2026-04-30T06:49:14.742Z</time></trkpt><trkpt lat="40.9841911" lon="9.4860163"><ele>115.66666666666666</ele><time>2026-04-30T06:49:15.742Z</time></trkpt><trkpt lat="40.9843562" lon="9.4859589"><ele>115.33333333333334</ele><time>2026-04-30T06:49:16.742Z</time></trkpt><trkpt lat="40.9845359" lon="9.4858995"><ele>115.0</ele><time>2026-04-30T06:49:17.742Z</time></trkpt><trkpt lat="40.9847098" lon="9.4858353"><ele>115.0</ele><time>2026-04-30T06:49:18.742Z</time></trkpt><trkpt lat="40.9848494" lon="9.4857431"><ele>115.0</ele><time>2026-04-30T06:49:19.742Z</time></trkpt><trkpt lat="40.9849676" lon="9.4856009"><ele>115.0</ele><time>2026-04-30T06:49:20.742Z</time></trkpt><trkpt lat="40.9850594" lon="9.4854203"><ele>120.33333333333334</ele><time>2026-04-30T06:49:21.742Z</time></trkpt><trkpt lat="40.9851402" lon="9.4852024"><ele>125.66666666666666</ele><time>2026-04-30T06:49:22.742Z</time></trkpt><trkpt lat="40.9852371" lon="9.4849696"><ele>131.0</ele><time>2026-04-30T06:49:23.742Z</time></trkpt><trkpt lat="40.9853504" lon="9.4847442"><ele>132.33333333333331</ele><time>2026-04-30T06:49:24.742Z</time></trkpt><trkpt lat="40.9854481" lon="9.4845561"><ele>133.66666666666666</ele><time>2026-04-30T06:49:25.742Z</time></trkpt><trkpt lat="40.9855488" lon="9.4844026"><ele>135.0</ele><time>2026-04-30T06:49:26.741Z</time></trkpt><trkpt lat="40.9856778" lon="9.4842973"><ele>135.0</ele><time>2026-04-30T06:49:27.741Z</time></trkpt><trkpt lat="40.9858317" lon="9.4842314"><ele>135.0</ele><time>2026-04-30T06:49:28.742Z</time></trkpt><trkpt lat="40.9860032" lon="9.4841658"><ele>135.0</ele><time>2026-04-30T06:49:29.742Z</time></trkpt><trkpt lat="40.9861688" lon="9.4840586"><ele>132.0</ele><time>2026-04-30T06:49:30.742Z</time></trkpt><trkpt lat="40.9863394" lon="9.4839083"><ele>129.0</ele><time>2026-04-30T06:49:31.742Z</time></trkpt><trkpt lat="40.9865084" lon="9.4837728"><ele>126.0</ele><time>2026-04-30T06:49:32.742Z</time></trkpt><trkpt lat="40.9867037" lon="9.4836696"><ele>126.0</ele><time>2026-04-30T06:49:33.742Z</time></trkpt><trkpt lat="40.9869213" lon="9.4835754"><ele>126.0</ele><time>2026-04-30T06:49:34.741Z</time></trkpt><trkpt lat="40.98716" lon="9.4834728"><ele>126.0</ele><time>2026-04-30T06:49:35.742Z</time></trkpt><trkpt lat="40.9873968" lon="9.4833782"><ele>126.0</ele><time>2026-04-30T06:49:36.742Z</time></trkpt><trkpt lat="40.9876143" lon="9.4832862"><ele>126.66666666666666</ele><time>2026-04-30T06:49:37.742Z</time></trkpt><trkpt lat="40.9878176" lon="9.4831717"><ele>127.33333333333333</ele><time>2026-04-30T06:49:38.742Z</time></trkpt><trkpt lat="40.9880114" lon="9.483021"><ele>128.0</ele><time>2026-04-30T06:49:39.742Z</time></trkpt><trkpt lat="40.9881958" lon="9.4828226"><ele>128.5</ele><time>2026-04-30T06:49:40.742Z</time></trkpt><trkpt lat="40.9883909" lon="9.4826031"><ele>129.0</ele><time>2026-04-30T06:49:41.742Z</time></trkpt><trkpt lat="40.9885891" lon="9.4823915"><ele>129.0</ele><time>2026-04-30T06:49:42.742Z</time></trkpt><trkpt lat="40.9887717" lon="9.4821815"><ele>129.0</ele><time>2026-04-30T06:49:43.742Z</time></trkpt><trkpt lat="40.9889284" lon="9.4819573"><ele>128.5</ele><time>2026-04-30T06:49:44.741Z</time></trkpt><trkpt lat="40.9890645" lon="9.4816974"><ele>128.0</ele><time>2026-04-30T06:49:45.742Z</time></trkpt><trkpt lat="40.9891952" lon="9.4814152"><ele>124.5</ele><time>2026-04-30T06:49:46.741Z</time></trkpt><trkpt lat="40.9893362" lon="9.4811151"><ele>121.0</ele><time>2026-04-30T06:49:47.742Z</time></trkpt><trkpt lat="40.9894809" lon="9.4808422"><ele>121.0</ele><time>2026-04-30T06:49:48.741Z</time></trkpt><trkpt lat="40.98962" lon="9.4805992"><ele>121.0</ele><time>2026-04-30T06:49:49.742Z</time></trkpt><trkpt lat="40.9897352" lon="9.4803412"><ele>118.5</ele><time>2026-04-30T06:49:50.742Z</time></trkpt><trkpt lat="40.9898141" lon="9.4800513"><ele>116.0</ele><time>2026-04-30T06:49:51.742Z</time></trkpt><trkpt lat="40.9898803" lon="9.4797358"><ele>114.5</ele><time>2026-04-30T06:49:52.742Z</time></trkpt><trkpt lat="40.9899379" lon="9.4793985"><ele>113.0</ele><time>2026-04-30T06:49:53.742Z</time></trkpt><trkpt lat="40.9899966" lon="9.4790504"><ele>112.0</ele><time>2026-04-30T06:49:54.742Z</time></trkpt><trkpt lat="40.990064" lon="9.4786918"><ele>111.0</ele><time>2026-04-30T06:49:55.742Z</time></trkpt><trkpt lat="40.9901397" lon="9.4783259"><ele>111.0</ele><time>2026-04-30T06:49:56.742Z</time></trkpt><trkpt lat="40.9902192" lon="9.4779562"><ele>111.0</ele><time>2026-04-30T06:49:57.742Z</time></trkpt><trkpt lat="40.9902844" lon="9.4775988"><ele>109.0</ele><time>2026-04-30T06:49:58.742Z</time></trkpt><trkpt lat="40.9903378" lon="9.4772458"><ele>107.0</ele><time>2026-04-30T06:49:59.742Z</time></trkpt><trkpt lat="40.9903826" lon="9.4768921"><ele>105.5</ele><time>2026-04-30T06:50:00.741Z</time></trkpt><trkpt lat="40.9904291" lon="9.476562"><ele>104.0</ele><time>2026-04-30T06:50:01.742Z</time></trkpt><trkpt lat="40.9904932" lon="9.4762644"><ele>102.0</ele><time>2026-04-30T06:50:02.742Z</time></trkpt><trkpt lat="40.9905855" lon="9.475973"><ele>100.0</ele><time>2026-04-30T06:50:03.742Z</time></trkpt><trkpt lat="40.9907002" lon="9.475692"><ele>101.5</ele><time>2026-04-30T06:50:04.742Z</time></trkpt><trkpt lat="40.9908173" lon="9.4754241"><ele>103.0</ele><time>2026-04-30T06:50:05.742Z</time></trkpt><trkpt lat="40.9909207" lon="9.475173"><ele>100.0</ele><time>2026-04-30T06:50:06.742Z</time></trkpt><trkpt lat="40.9909893" lon="9.4749214"><ele>97.0</ele><time>2026-04-30T06:50:07.742Z</time></trkpt><trkpt lat="40.9910179" lon="9.4746554"><ele>94.0</ele><time>2026-04-30T06:50:08.742Z</time></trkpt><trkpt lat="40.9910264" lon="9.4743688"><ele>94.0</ele><time>2026-04-30T06:50:09.741Z</time></trkpt><trkpt lat="40.9910327" lon="9.474097"><ele>94.0</ele><time>2026-04-30T06:50:10.742Z</time></trkpt><trkpt lat="40.9910481" lon="9.4738454"><ele>94.0</ele><time>2026-04-30T06:50:11.742Z</time></trkpt><trkpt lat="40.9910868" lon="9.4736026"><ele>95.33333333333333</ele><time>2026-04-30T06:50:12.742Z</time></trkpt><trkpt lat="40.991165" lon="9.4733687"><ele>96.66666666666666</ele><time>2026-04-30T06:50:13.742Z</time></trkpt><trkpt lat="40.9912707" lon="9.4731367"><ele>98.0</ele><time>2026-04-30T06:50:14.742Z</time></trkpt><trkpt lat="40.9913891" lon="9.4728829"><ele>98.66666666666666</ele><time>2026-04-30T06:50:15.742Z</time></trkpt><trkpt lat="40.9915087" lon="9.4726246"><ele>99.33333333333334</ele><time>2026-04-30T06:50:16.742Z</time></trkpt><trkpt lat="40.9916032" lon="9.4723795"><ele>100.0</ele><time>2026-04-30T06:50:17.742Z</time></trkpt><trkpt lat="40.9916708" lon="9.4721049"><ele>101.5</ele><time>2026-04-30T06:50:18.742Z</time></trkpt><trkpt lat="40.991733" lon="9.4718007"><ele>103.0</ele><time>2026-04-30T06:50:19.742Z</time></trkpt><trkpt lat="40.9918015" lon="9.4714743"><ele>106.5</ele><time>2026-04-30T06:50:20.742Z</time></trkpt><trkpt lat="40.9918688" lon="9.4711292"><ele>110.0</ele><time>2026-04-30T06:50:21.742Z</time></trkpt><trkpt lat="40.9919288" lon="9.4708163"><ele>110.0</ele><time>2026-04-30T06:50:22.742Z</time></trkpt><trkpt lat="40.9919808" lon="9.4705398"><ele>110.0</ele><time>2026-04-30T06:50:23.742Z</time></trkpt><trkpt lat="40.9920154" lon="9.4702967"><ele>110.0</ele><time>2026-04-30T06:50:24.742Z</time></trkpt><trkpt lat="40.9920073" lon="9.4700788"><ele>111.33333333333333</ele><time>2026-04-30T06:50:25.742Z</time></trkpt><trkpt lat="40.9919577" lon="9.46988"><ele>112.66666666666666</ele><time>2026-04-30T06:50:26.742Z</time></trkpt><trkpt lat="40.9918776" lon="9.4696902"><ele>114.0</ele><time>2026-04-30T06:50:27.742Z</time></trkpt><trkpt lat="40.9917947" lon="9.4694905"><ele>114.0</ele><time>2026-04-30T06:50:28.742Z</time></trkpt><trkpt lat="40.9917325" lon="9.4692574"><ele>114.0</ele><time>2026-04-30T06:50:29.742Z</time></trkpt><trkpt lat="40.9917108" lon="9.4690261"><ele>114.0</ele><time>2026-04-30T06:50:30.742Z</time></trkpt><trkpt lat="40.9917135" lon="9.4688094"><ele>111.66666666666666</ele><time>2026-04-30T06:50:31.742Z</time></trkpt><trkpt lat="40.9917554" lon="9.4685972"><ele>109.33333333333333</ele><time>2026-04-30T06:50:32.742Z</time></trkpt><trkpt lat="40.9918241" lon="9.4683931"><ele>107.0</ele><time>2026-04-30T06:50:33.742Z</time></trkpt><trkpt lat="40.991872" lon="9.468159"><ele>105.0</ele><time>2026-04-30T06:50:34.742Z</time></trkpt><trkpt lat="40.9918851" lon="9.4679192"><ele>103.0</ele><time>2026-04-30T06:50:35.741Z</time></trkpt><trkpt lat="40.9918884" lon="9.467698"><ele>101.0</ele><time>2026-04-30T06:50:36.742Z</time></trkpt><trkpt lat="40.9919321" lon="9.4674825"><ele>101.0</ele><time>2026-04-30T06:50:37.742Z</time></trkpt><trkpt lat="40.9920157" lon="9.4672874"><ele>101.0</ele><time>2026-04-30T06:50:38.742Z</time></trkpt><trkpt lat="40.992112" lon="9.4670942"><ele>101.0</ele><time>2026-04-30T06:50:39.742Z</time></trkpt><trkpt lat="40.9921876" lon="9.4668683"><ele>100.66666666666666</ele><time>2026-04-30T06:50:40.741Z</time></trkpt><trkpt lat="40.992253" lon="9.4666397"><ele>100.33333333333334</ele><time>2026-04-30T06:50:41.742Z</time></trkpt><trkpt lat="40.9923374" lon="9.4664242"><ele>100.0</ele><time>2026-04-30T06:50:42.742Z</time></trkpt><trkpt lat="40.9924672" lon="9.4662236"><ele>93.0</ele><time>2026-04-30T06:50:43.742Z</time></trkpt><trkpt lat="40.9926178" lon="9.466014"><ele>86.0</ele><time>2026-04-30T06:50:44.742Z</time></trkpt><trkpt lat="40.992784" lon="9.4657841"><ele>86.0</ele><time>2026-04-30T06:50:45.741Z</time></trkpt><trkpt lat="40.9929533" lon="9.4655475"><ele>86.0</ele><time>2026-04-30T06:50:46.742Z</time></trkpt><trkpt lat="40.9931065" lon="9.4653176"><ele>87.0</ele><time>2026-04-30T06:50:47.742Z</time></trkpt><trkpt lat="40.9932452" lon="9.4650896"><ele>88.0</ele><time>2026-04-30T06:50:48.741Z</time></trkpt><trkpt lat="40.9933657" lon="9.4648542"><ele>89.0</ele><time>2026-04-30T06:50:49.742Z</time></trkpt><trkpt lat="40.9934562" lon="9.4645966"><ele>85.33333333333334</ele><time>2026-04-30T06:50:50.742Z</time></trkpt><trkpt lat="40.9935236" lon="9.4643384"><ele>81.66666666666667</ele><time>2026-04-30T06:50:51.742Z</time></trkpt><trkpt lat="40.9935904" lon="9.4640987"><ele>78.0</ele><time>2026-04-30T06:50:52.742Z</time></trkpt><trkpt lat="40.993678" lon="9.4638878"><ele>78.66666666666667</ele><time>2026-04-30T06:50:53.742Z</time></trkpt><trkpt lat="40.9937655" lon="9.4636892"><ele>79.33333333333334</ele><time>2026-04-30T06:50:54.742Z</time></trkpt><trkpt lat="40.9938356" lon="9.4634734"><ele>80.0</ele><time>2026-04-30T06:50:55.742Z</time></trkpt><trkpt lat="40.9938933" lon="9.4632502"><ele>80.0</ele><time>2026-04-30T06:50:56.742Z</time></trkpt><trkpt lat="40.9939431" lon="9.4630321"><ele>80.0</ele><time>2026-04-30T06:50:57.742Z</time></trkpt><trkpt lat="40.9939806" lon="9.4628231"><ele>80.0</ele><time>2026-04-30T06:50:58.741Z</time></trkpt><trkpt lat="40.9940094" lon="9.4626326"><ele>80.25</ele><time>2026-04-30T06:50:59.742Z</time></trkpt><trkpt lat="40.9940541" lon="9.4624696"><ele>80.5</ele><time>2026-04-30T06:51:00.742Z</time></trkpt><trkpt lat="40.994128" lon="9.4623379"><ele>80.75</ele><time>2026-04-30T06:51:01.741Z</time></trkpt><trkpt lat="40.9942346" lon="9.4622407"><ele>81.0</ele><time>2026-04-30T06:51:02.742Z</time></trkpt><trkpt lat="40.994363" lon="9.4621786"><ele>81.0</ele><time>2026-04-30T06:51:03.742Z</time></trkpt><trkpt lat="40.9944737" lon="9.462126"><ele>81.0</ele><time>2026-04-30T06:51:04.742Z</time></trkpt><trkpt lat="40.9945614" lon="9.4620292"><ele>81.0</ele><time>2026-04-30T06:51:05.742Z</time></trkpt><trkpt lat="40.9946356" lon="9.4618879"><ele>81.0</ele><time>2026-04-30T06:51:06.741Z</time></trkpt><trkpt lat="40.9947078" lon="9.4617129"><ele>82.75</ele><time>2026-04-30T06:51:07.742Z</time></trkpt><trkpt lat="40.9947675" lon="9.4615483"><ele>84.5</ele><time>2026-04-30T06:51:08.742Z</time></trkpt><trkpt lat="40.9948202" lon="9.4613912"><ele>86.25</ele><time>2026-04-30T06:51:09.742Z</time></trkpt><trkpt lat="40.9948618" lon="9.461239"><ele>88.0</ele><time>2026-04-30T06:51:10.742Z</time></trkpt><trkpt lat="40.9948889" lon="9.4610901"><ele>89.25</ele><time>2026-04-30T06:51:11.741Z</time></trkpt><trkpt lat="40.994914" lon="9.4609409"><ele>90.5</ele><time>2026-04-30T06:51:12.742Z</time></trkpt><trkpt lat="40.9949502" lon="9.4607946"><ele>91.75</ele><time>2026-04-30T06:51:13.742Z</time></trkpt><trkpt lat="40.9950009" lon="9.4606513"><ele>93.0</ele><time>2026-04-30T06:51:14.742Z</time></trkpt><trkpt lat="40.9950557" lon="9.4605159"><ele>93.4</ele><time>2026-04-30T06:51:15.742Z</time></trkpt><trkpt lat="40.9951087" lon="9.4603926"><ele>93.80000000000001</ele><time>2026-04-30T06:51:16.742Z</time></trkpt><trkpt lat="40.9951601" lon="9.4602655"><ele>94.2</ele><time>2026-04-30T06:51:17.742Z</time></trkpt><trkpt lat="40.9952063" lon="9.4601248"><ele>94.6</ele><time>2026-04-30T06:51:18.741Z</time></trkpt><trkpt lat="40.9952468" lon="9.4599791"><ele>95.0</ele><time>2026-04-30T06:51:19.742Z</time></trkpt><trkpt lat="40.9952841" lon="9.4598307"><ele>95.0</ele><time>2026-04-30T06:51:20.742Z</time></trkpt><trkpt lat="40.9953214" lon="9.4596788"><ele>95.0</ele><time>2026-04-30T06:51:21.741Z</time></trkpt><trkpt lat="40.9953577" lon="9.4595237"><ele>95.0</ele><time>2026-04-30T06:51:22.742Z</time></trkpt><trkpt lat="40.9953945" lon="9.4593677"><ele>95.0</ele><time>2026-04-30T06:51:23.742Z</time></trkpt><trkpt lat="40.995429" lon="9.4592201"><ele>96.8</ele><time>2026-04-30T06:51:24.741Z</time></trkpt><trkpt lat="40.9954623" lon="9.4590771"><ele>98.6</ele><time>2026-04-30T06:51:25.742Z</time></trkpt><trkpt lat="40.9954945" lon="9.4589437"><ele>100.4</ele><time>2026-04-30T06:51:26.742Z</time></trkpt><trkpt lat="40.9955214" lon="9.458824"><ele>102.2</ele><time>2026-04-30T06:51:27.741Z</time></trkpt><trkpt lat="40.995549" lon="9.4587125"><ele>104.0</ele><time>2026-04-30T06:51:28.742Z</time></trkpt><trkpt lat="40.9955737" lon="9.4586028"><ele>104.99999999999999</ele><time>2026-04-30T06:51:29.742Z</time></trkpt><trkpt lat="40.9955964" lon="9.4584933"><ele>106.0</ele><time>2026-04-30T06:51:30.742Z</time></trkpt><trkpt lat="40.9956201" lon="9.4583859"><ele>107.0</ele><time>2026-04-30T06:51:31.741Z</time></trkpt><trkpt lat="40.9956435" lon="9.4582762"><ele>108.0</ele><time>2026-04-30T06:51:32.742Z</time></trkpt><trkpt lat="40.9956695" lon="9.4581664"><ele>108.99999999999999</ele><time>2026-04-30T06:51:33.741Z</time></trkpt><trkpt lat="40.9956922" lon="9.4580526"><ele>110.0</ele><time>2026-04-30T06:51:34.742Z</time></trkpt><trkpt lat="40.9957181" lon="9.4579398"><ele>112.66666666666666</ele><time>2026-04-30T06:51:35.742Z</time></trkpt><trkpt lat="40.9957577" lon="9.4578366"><ele>115.33333333333333</ele><time>2026-04-30T06:51:36.741Z</time></trkpt><trkpt lat="40.9958191" lon="9.4577552"><ele>118.0</ele><time>2026-04-30T06:51:37.742Z</time></trkpt><trkpt lat="40.9959" lon="9.4577134"><ele>120.66666666666666</ele><time>2026-04-30T06:51:38.742Z</time></trkpt><trkpt lat="40.9959874" lon="9.4577152"><ele>123.33333333333333</ele><time>2026-04-30T06:51:39.742Z</time></trkpt><trkpt lat="40.9960766" lon="9.4577601"><ele>126.0</ele><time>2026-04-30T06:51:40.742Z</time></trkpt><trkpt lat="40.996172" lon="9.4578309"><ele>126.0</ele><time>2026-04-30T06:51:41.742Z</time></trkpt><trkpt lat="40.9962787" lon="9.457912"><ele>126.0</ele><time>2026-04-30T06:51:42.742Z</time></trkpt><trkpt lat="40.9963934" lon="9.4579625"><ele>126.0</ele><time>2026-04-30T06:51:43.742Z</time></trkpt><trkpt lat="40.9965096" lon="9.4579659"><ele>126.0</ele><time>2026-04-30T06:51:44.742Z</time></trkpt><trkpt lat="40.9966239" lon="9.4579134"><ele>127.25</ele><time>2026-04-30T06:51:45.742Z</time></trkpt><trkpt lat="40.99673" lon="9.4578139"><ele>128.5</ele><time>2026-04-30T06:51:46.742Z</time></trkpt><trkpt lat="40.9968277" lon="9.4576779"><ele>129.75</ele><time>2026-04-30T06:51:47.741Z</time></trkpt><trkpt lat="40.9969097" lon="9.4575162"><ele>131.0</ele><time>2026-04-30T06:51:48.742Z</time></trkpt><trkpt lat="40.9969652" lon="9.4573264"><ele>131.66666666666666</ele><time>2026-04-30T06:51:49.742Z</time></trkpt><trkpt lat="40.9970023" lon="9.4571162"><ele>132.33333333333334</ele><time>2026-04-30T06:51:50.742Z</time></trkpt><trkpt lat="40.9970421" lon="9.4569086"><ele>133.0</ele><time>2026-04-30T06:51:51.742Z</time></trkpt><trkpt lat="40.9970962" lon="9.4567232"><ele>133.0</ele><time>2026-04-30T06:51:52.742Z</time></trkpt><trkpt lat="40.9971675" lon="9.456553"><ele>133.0</ele><time>2026-04-30T06:51:53.742Z</time></trkpt><trkpt lat="40.9972494" lon="9.4563994"><ele>133.0</ele><time>2026-04-30T06:51:54.741Z</time></trkpt><trkpt lat="40.9973304" lon="9.4562618"><ele>133.0</ele><time>2026-04-30T06:51:55.742Z</time></trkpt><trkpt lat="40.9974108" lon="9.4561249"><ele>134.5</ele><time>2026-04-30T06:51:56.742Z</time></trkpt><trkpt lat="40.9974825" lon="9.455992"><ele>136.0</ele><time>2026-04-30T06:51:57.741Z</time></trkpt><trkpt lat="40.9975454" lon="9.4558507"><ele>137.5</ele><time>2026-04-30T06:51:58.742Z</time></trkpt><trkpt lat="40.9975993" lon="9.4556948"><ele>139.0</ele><time>2026-04-30T06:51:59.742Z</time></trkpt><trkpt lat="40.9976481" lon="9.4555302"><ele>137.25</ele><time>2026-04-30T06:52:00.742Z</time></trkpt><trkpt lat="40.9977085" lon="9.4553634"><ele>135.5</ele><time>2026-04-30T06:52:01.742Z</time></trkpt><trkpt lat="40.9977917" lon="9.4552054"><ele>133.75</ele><time>2026-04-30T06:52:02.742Z</time></trkpt><trkpt lat="40.9978958" lon="9.4550595"><ele>132.0</ele><time>2026-04-30T06:52:03.742Z</time></trkpt><trkpt lat="40.9980123" lon="9.4549215"><ele>132.0</ele><time>2026-04-30T06:52:04.742Z</time></trkpt><trkpt lat="40.9981264" lon="9.4547907"><ele>132.0</ele><time>2026-04-30T06:52:05.742Z</time></trkpt><trkpt lat="40.9982381" lon="9.4546591"><ele>132.0</ele><time>2026-04-30T06:52:06.742Z</time></trkpt><trkpt lat="40.9983389" lon="9.4545112"><ele>134.25</ele><time>2026-04-30T06:52:07.742Z</time></trkpt><trkpt lat="40.9984205" lon="9.4543457"><ele>136.5</ele><time>2026-04-30T06:52:08.742Z</time></trkpt><trkpt lat="40.9984863" lon="9.4541743"><ele>138.75</ele><time>2026-04-30T06:52:09.742Z</time></trkpt><trkpt lat="40.9985475" lon="9.4540017"><ele>141.0</ele><time>2026-04-30T06:52:10.742Z</time></trkpt><trkpt lat="40.9986082" lon="9.4538284"><ele>139.75</ele><time>2026-04-30T06:52:11.741Z</time></trkpt><trkpt lat="40.9986689" lon="9.453651"><ele>138.5</ele><time>2026-04-30T06:52:12.742Z</time></trkpt><trkpt lat="40.9987225" lon="9.453466"><ele>137.25</ele><time>2026-04-30T06:52:13.742Z</time></trkpt><trkpt lat="40.9987659" lon="9.4532762"><ele>136.0</ele><time>2026-04-30T06:52:14.742Z</time></trkpt><trkpt lat="40.9988032" lon="9.4530807"><ele>134.5</ele><time>2026-04-30T06:52:15.742Z</time></trkpt><trkpt lat="40.9988365" lon="9.4528916"><ele>133.0</ele><time>2026-04-30T06:52:16.742Z</time></trkpt><trkpt lat="40.998867" lon="9.4527076"><ele>131.5</ele><time>2026-04-30T06:52:17.742Z</time></trkpt><trkpt lat="40.9988963" lon="9.4525268"><ele>130.0</ele><time>2026-04-30T06:52:18.741Z</time></trkpt><trkpt lat="40.9989163" lon="9.4523495"><ele>130.0</ele><time>2026-04-30T06:52:19.742Z</time></trkpt><trkpt lat="40.9989193" lon="9.4521791"><ele>130.0</ele><time>2026-04-30T06:52:20.742Z</time></trkpt><trkpt lat="40.9989099" lon="9.452022"><ele>130.0</ele><time>2026-04-30T06:52:21.742Z</time></trkpt><trkpt lat="40.9988937" lon="9.451876"><ele>130.0</ele><time>2026-04-30T06:52:22.742Z</time></trkpt><trkpt lat="40.9988819" lon="9.4517301"><ele>129.25</ele><time>2026-04-30T06:52:23.742Z</time></trkpt><trkpt lat="40.9988833" lon="9.4515765"><ele>128.5</ele><time>2026-04-30T06:52:24.742Z</time></trkpt><trkpt lat="40.9989024" lon="9.4514201"><ele>127.75</ele><time>2026-04-30T06:52:25.741Z</time></trkpt><trkpt lat="40.9989362" lon="9.4512592"><ele>127.0</ele><time>2026-04-30T06:52:26.742Z</time></trkpt><trkpt lat="40.9989757" lon="9.4510917"><ele>127.0</ele><time>2026-04-30T06:52:27.742Z</time></trkpt><trkpt lat="40.9990052" lon="9.4509096"><ele>127.0</ele><time>2026-04-30T06:52:28.742Z</time></trkpt><trkpt lat="40.9990187" lon="9.4507217"><ele>127.0</ele><time>2026-04-30T06:52:29.742Z</time></trkpt><trkpt lat="40.9990246" lon="9.4505389"><ele>127.0</ele><time>2026-04-30T06:52:30.742Z</time></trkpt><trkpt lat="40.9990362" lon="9.4503641"><ele>125.5</ele><time>2026-04-30T06:52:31.742Z</time></trkpt><trkpt lat="40.9990661" lon="9.4501988"><ele>124.0</ele><time>2026-04-30T06:52:32.742Z</time></trkpt><trkpt lat="40.9991215" lon="9.4500396"><ele>122.5</ele><time>2026-04-30T06:52:33.742Z</time></trkpt><trkpt lat="40.9991993" lon="9.4498907"><ele>121.0</ele><time>2026-04-30T06:52:34.742Z</time></trkpt><trkpt lat="40.9992913" lon="9.4497485"><ele>123.25</ele><time>2026-04-30T06:52:35.742Z</time></trkpt><trkpt lat="40.9993832" lon="9.4496066"><ele>125.5</ele><time>2026-04-30T06:52:36.742Z</time></trkpt><trkpt lat="40.9994662" lon="9.4494551"><ele>127.75</ele><time>2026-04-30T06:52:37.742Z</time></trkpt><trkpt lat="40.9995285" lon="9.4492837"><ele>130.0</ele><time>2026-04-30T06:52:38.742Z</time></trkpt><trkpt lat="40.9995754" lon="9.4491001"><ele>130.0</ele><time>2026-04-30T06:52:39.742Z</time></trkpt><trkpt lat="40.9996093" lon="9.4489053"><ele>130.0</ele><time>2026-04-30T06:52:40.742Z</time></trkpt><trkpt lat="40.9996292" lon="9.448699"><ele>130.0</ele><time>2026-04-30T06:52:41.742Z</time></trkpt><trkpt lat="40.9996304" lon="9.4484834"><ele>128.0</ele><time>2026-04-30T06:52:42.741Z</time></trkpt><trkpt lat="40.9996242" lon="9.4482628"><ele>126.0</ele><time>2026-04-30T06:52:43.742Z</time></trkpt><trkpt lat="40.9996272" lon="9.4480452"><ele>124.0</ele><time>2026-04-30T06:52:44.741Z</time></trkpt><trkpt lat="40.9996382" lon="9.4478383"><ele>123.66666666666667</ele><time>2026-04-30T06:52:45.742Z</time></trkpt><trkpt lat="40.9996578" lon="9.4476308"><ele>123.33333333333334</ele><time>2026-04-30T06:52:46.742Z</time></trkpt><trkpt lat="40.9996882" lon="9.4474222"><ele>123.0</ele><time>2026-04-30T06:52:47.742Z</time></trkpt><trkpt lat="40.9997338" lon="9.4472241"><ele>119.33333333333334</ele><time>2026-04-30T06:52:48.742Z</time></trkpt><trkpt lat="40.9997887" lon="9.447028"><ele>115.66666666666667</ele><time>2026-04-30T06:52:49.742Z</time></trkpt><trkpt lat="40.9998564" lon="9.4468373"><ele>112.0</ele><time>2026-04-30T06:52:50.742Z</time></trkpt><trkpt lat="40.9999253" lon="9.446656"><ele>112.0</ele><time>2026-04-30T06:52:51.742Z</time></trkpt><trkpt lat="40.9999896" lon="9.4464769"><ele>112.0</ele><time>2026-04-30T06:52:52.742Z</time></trkpt><trkpt lat="41.0000457" lon="9.4462907"><ele>112.0</ele><time>2026-04-30T06:52:53.742Z</time></trkpt><trkpt lat="41.0000966" lon="9.4461014"><ele>109.25</ele><time>2026-04-30T06:52:54.742Z</time></trkpt><trkpt lat="41.0001444" lon="9.4459161"><ele>106.5</ele><time>2026-04-30T06:52:55.742Z</time></trkpt><trkpt lat="41.0001907" lon="9.4457393"><ele>103.75</ele><time>2026-04-30T06:52:56.741Z</time></trkpt><trkpt lat="41.0002269" lon="9.4455663"><ele>101.0</ele><time>2026-04-30T06:52:57.742Z</time></trkpt><trkpt lat="41.0002495" lon="9.4453865"><ele>100.5</ele><time>2026-04-30T06:52:58.742Z</time></trkpt><trkpt lat="41.0002588" lon="9.4451989"><ele>100.0</ele><time>2026-04-30T06:52:59.741Z</time></trkpt><trkpt lat="41.0002543" lon="9.4450059"><ele>99.5</ele><time>2026-04-30T06:53:00.742Z</time></trkpt><trkpt lat="41.0002517" lon="9.4448158"><ele>99.0</ele><time>2026-04-30T06:53:01.742Z</time></trkpt><trkpt lat="41.000255" lon="9.4446297"><ele>97.66666666666667</ele><time>2026-04-30T06:53:02.742Z</time></trkpt><trkpt lat="41.0002711" lon="9.4444404"><ele>96.33333333333334</ele><time>2026-04-30T06:53:03.741Z</time></trkpt><trkpt lat="41.0002955" lon="9.4442362"><ele>95.0</ele><time>2026-04-30T06:53:04.741Z</time></trkpt><trkpt lat="41.000333" lon="9.4440101"><ele>95.33333333333334</ele><time>2026-04-30T06:53:05.741Z</time></trkpt><trkpt lat="41.0003845" lon="9.4437588"><ele>95.66666666666667</ele><time>2026-04-30T06:53:06.742Z</time></trkpt><trkpt lat="41.0004388" lon="9.4435079"><ele>96.0</ele><time>2026-04-30T06:53:07.742Z</time></trkpt><trkpt lat="41.0004928" lon="9.4432633"><ele>96.0</ele><time>2026-04-30T06:53:08.742Z</time></trkpt><trkpt lat="41.0005458" lon="9.4430294"><ele>96.0</ele><time>2026-04-30T06:53:09.742Z</time></trkpt><trkpt lat="41.0005955" lon="9.4428039"><ele>96.0</ele><time>2026-04-30T06:53:10.742Z</time></trkpt><trkpt lat="41.0006423" lon="9.4425901"><ele>96.0</ele><time>2026-04-30T06:53:11.741Z</time></trkpt><trkpt lat="41.0006855" lon="9.4423952"><ele>96.0</ele><time>2026-04-30T06:53:12.742Z</time></trkpt><trkpt lat="41.0007317" lon="9.4422179"><ele>96.0</ele><time>2026-04-30T06:53:13.742Z</time></trkpt><trkpt lat="41.000791" lon="9.4420586"><ele>96.0</ele><time>2026-04-30T06:53:14.742Z</time></trkpt><trkpt lat="41.0008671" lon="9.4419212"><ele>95.0</ele><time>2026-04-30T06:53:15.741Z</time></trkpt><trkpt lat="41.0009605" lon="9.4417898"><ele>94.0</ele><time>2026-04-30T06:53:16.742Z</time></trkpt><trkpt lat="41.0010646" lon="9.4416647"><ele>93.0</ele><time>2026-04-30T06:53:17.742Z</time></trkpt><trkpt lat="41.0011762" lon="9.4415373"><ele>92.0</ele><time>2026-04-30T06:53:18.741Z</time></trkpt><trkpt lat="41.0012932" lon="9.4414076"><ele>90.0</ele><time>2026-04-30T06:53:19.742Z</time></trkpt><trkpt lat="41.0014123" lon="9.4412696"><ele>88.0</ele><time>2026-04-30T06:53:20.742Z</time></trkpt><trkpt lat="41.0015185" lon="9.4411205"><ele>86.0</ele><time>2026-04-30T06:53:21.742Z</time></trkpt><trkpt lat="41.001606" lon="9.4409605"><ele>87.25</ele><time>2026-04-30T06:53:22.742Z</time></trkpt><trkpt lat="41.0016719" lon="9.4407864"><ele>88.5</ele><time>2026-04-30T06:53:23.742Z</time></trkpt><trkpt lat="41.0017251" lon="9.440608"><ele>89.75</ele><time>2026-04-30T06:53:24.742Z</time></trkpt><trkpt lat="41.0017767" lon="9.4404316"><ele>91.0</ele><time>2026-04-30T06:53:25.742Z</time></trkpt><trkpt lat="41.0018458" lon="9.4402698"><ele>88.25</ele><time>2026-04-30T06:53:26.742Z</time></trkpt><trkpt lat="41.0019311" lon="9.4401219"><ele>85.5</ele><time>2026-04-30T06:53:27.742Z</time></trkpt><trkpt lat="41.0020371" lon="9.4399807"><ele>82.75</ele><time>2026-04-30T06:53:28.742Z</time></trkpt><trkpt lat="41.0021573" lon="9.4398474"><ele>80.0</ele><time>2026-04-30T06:53:29.741Z</time></trkpt><trkpt lat="41.0022874" lon="9.439715"><ele>79.66666666666667</ele><time>2026-04-30T06:53:30.742Z</time></trkpt><trkpt lat="41.0024192" lon="9.4395827"><ele>79.33333333333333</ele><time>2026-04-30T06:53:31.741Z</time></trkpt><trkpt lat="41.0025432" lon="9.4394584"><ele>79.0</ele><time>2026-04-30T06:53:32.742Z</time></trkpt><trkpt lat="41.0026738" lon="9.4393407"><ele>79.0</ele><time>2026-04-30T06:53:33.742Z</time></trkpt><trkpt lat="41.002814" lon="9.4392469"><ele>79.0</ele><time>2026-04-30T06:53:34.742Z</time></trkpt><trkpt lat="41.0029587" lon="9.4391737"><ele>79.0</ele><time>2026-04-30T06:53:35.742Z</time></trkpt><trkpt lat="41.0030987" lon="9.439095"><ele>79.0</ele><time>2026-04-30T06:53:36.742Z</time></trkpt><trkpt lat="41.0032333" lon="9.4389937"><ele>79.0</ele><time>2026-04-30T06:53:37.742Z</time></trkpt><trkpt lat="41.0033633" lon="9.4388777"><ele>79.0</ele><time>2026-04-30T06:53:38.742Z</time></trkpt><trkpt lat="41.0034907" lon="9.438753"><ele>78.5</ele><time>2026-04-30T06:53:39.742Z</time></trkpt><trkpt lat="41.0036026" lon="9.4386207"><ele>78.0</ele><time>2026-04-30T06:53:40.742Z</time></trkpt><trkpt lat="41.0036888" lon="9.4384668"><ele>77.5</ele><time>2026-04-30T06:53:41.742Z</time></trkpt><trkpt lat="41.0037531" lon="9.4382946"><ele>77.0</ele><time>2026-04-30T06:53:42.742Z</time></trkpt><trkpt lat="41.0038088" lon="9.438122"><ele>76.33333333333334</ele><time>2026-04-30T06:53:43.742Z</time></trkpt><trkpt lat="41.0038845" lon="9.4379632"><ele>75.66666666666667</ele><time>2026-04-30T06:53:44.742Z</time></trkpt><trkpt lat="41.0039809" lon="9.4378096"><ele>75.0</ele><time>2026-04-30T06:53:45.742Z</time></trkpt><trkpt lat="41.0041002" lon="9.4376515"><ele>76.33333333333333</ele><time>2026-04-30T06:53:46.742Z</time></trkpt><trkpt lat="41.0042449" lon="9.437475"><ele>77.66666666666666</ele><time>2026-04-30T06:53:47.742Z</time></trkpt><trkpt lat="41.0044127" lon="9.4372815"><ele>79.0</ele><time>2026-04-30T06:53:48.741Z</time></trkpt><trkpt lat="41.0045766" lon="9.437093"><ele>79.33333333333333</ele><time>2026-04-30T06:53:49.742Z</time></trkpt><trkpt lat="41.0047355" lon="9.4369087"><ele>79.66666666666667</ele><time>2026-04-30T06:53:50.742Z</time></trkpt><trkpt lat="41.0048823" lon="9.4367401"><ele>80.0</ele><time>2026-04-30T06:53:51.742Z</time></trkpt><trkpt lat="41.0050194" lon="9.4365887"><ele>80.0</ele><time>2026-04-30T06:53:52.742Z</time></trkpt><trkpt lat="41.005147" lon="9.4364533"><ele>80.0</ele><time>2026-04-30T06:53:53.742Z</time></trkpt><trkpt lat="41.0052677" lon="9.4363312"><ele>80.0</ele><time>2026-04-30T06:53:54.742Z</time></trkpt><trkpt lat="41.0053815" lon="9.436229"><ele>79.0</ele><time>2026-04-30T06:53:55.742Z</time></trkpt><trkpt lat="41.0054895" lon="9.4361384"><ele>78.0</ele><time>2026-04-30T06:53:56.742Z</time></trkpt><trkpt lat="41.0055985" lon="9.4360633"><ele>77.0</ele><time>2026-04-30T06:53:57.742Z</time></trkpt><trkpt lat="41.0057161" lon="9.4360216"><ele>76.0</ele><time>2026-04-30T06:53:58.742Z</time></trkpt><trkpt lat="41.0058421" lon="9.436013"><ele>76.0</ele><time>2026-04-30T06:53:59.742Z</time></trkpt><trkpt lat="41.0059656" lon="9.4360358"><ele>76.0</ele><time>2026-04-30T06:54:00.742Z</time></trkpt><trkpt lat="41.0060845" lon="9.436079"><ele>76.0</ele><time>2026-04-30T06:54:01.742Z</time></trkpt><trkpt lat="41.0061946" lon="9.436103"><ele>76.0</ele><time>2026-04-30T06:54:02.742Z</time></trkpt><trkpt lat="41.0062985" lon="9.4360872"><ele>76.0</ele><time>2026-04-30T06:54:03.742Z</time></trkpt><trkpt lat="41.0063956" lon="9.4360412"><ele>76.0</ele><time>2026-04-30T06:54:04.742Z</time></trkpt><trkpt lat="41.0064795" lon="9.4359554"><ele>76.0</ele><time>2026-04-30T06:54:05.742Z</time></trkpt><trkpt lat="41.0065527" lon="9.4358325"><ele>76.0</ele><time>2026-04-30T06:54:06.742Z</time></trkpt><trkpt lat="41.006615" lon="9.4356822"><ele>76.25</ele><time>2026-04-30T06:54:07.742Z</time></trkpt><trkpt lat="41.0066731" lon="9.4355105"><ele>76.5</ele><time>2026-04-30T06:54:08.742Z</time></trkpt><trkpt lat="41.0067314" lon="9.435333"><ele>76.75</ele><time>2026-04-30T06:54:09.742Z</time></trkpt><trkpt lat="41.0067937" lon="9.4351512"><ele>77.0</ele><time>2026-04-30T06:54:10.742Z</time></trkpt><trkpt lat="41.0068547" lon="9.4349618"><ele>77.0</ele><time>2026-04-30T06:54:11.741Z</time></trkpt><trkpt lat="41.006918" lon="9.4347639"><ele>77.0</ele><time>2026-04-30T06:54:12.742Z</time></trkpt><trkpt lat="41.0069883" lon="9.4345378"><ele>77.0</ele><time>2026-04-30T06:54:13.742Z</time></trkpt><trkpt lat="41.0070636" lon="9.4342888"><ele>74.33333333333334</ele><time>2026-04-30T06:54:14.742Z</time></trkpt><trkpt lat="41.0071483" lon="9.4340402"><ele>71.66666666666667</ele><time>2026-04-30T06:54:15.742Z</time></trkpt><trkpt lat="41.007234" lon="9.43381"><ele>69.0</ele><time>2026-04-30T06:54:16.742Z</time></trkpt><trkpt lat="41.0073108" lon="9.4335963"><ele>68.66666666666667</ele><time>2026-04-30T06:54:17.742Z</time></trkpt><trkpt lat="41.0073822" lon="9.4334077"><ele>68.33333333333334</ele><time>2026-04-30T06:54:18.742Z</time></trkpt><trkpt lat="41.007477" lon="9.433254"><ele>68.0</ele><time>2026-04-30T06:54:19.741Z</time></trkpt><trkpt lat="41.0076016" lon="9.4331267"><ele>69.25</ele><time>2026-04-30T06:54:20.742Z</time></trkpt><trkpt lat="41.0077332" lon="9.4330196"><ele>70.5</ele><time>2026-04-30T06:54:21.742Z</time></trkpt><trkpt lat="41.0078606" lon="9.4329274"><ele>71.75</ele><time>2026-04-30T06:54:22.742Z</time></trkpt><trkpt lat="41.0079904" lon="9.432855"><ele>73.0</ele><time>2026-04-30T06:54:23.741Z</time></trkpt><trkpt lat="41.0081203" lon="9.432802"><ele>73.0</ele><time>2026-04-30T06:54:24.741Z</time></trkpt><trkpt lat="41.0082517" lon="9.4327548"><ele>73.0</ele><time>2026-04-30T06:54:25.742Z</time></trkpt><trkpt lat="41.0083814" lon="9.4327013"><ele>73.0</ele><time>2026-04-30T06:54:26.742Z</time></trkpt><trkpt lat="41.0085076" lon="9.4326419"><ele>73.0</ele><time>2026-04-30T06:54:27.742Z</time></trkpt><trkpt lat="41.0086217" lon="9.4325829"><ele>73.0</ele><time>2026-04-30T06:54:28.742Z</time></trkpt><trkpt lat="41.0087363" lon="9.4325228"><ele>73.0</ele><time>2026-04-30T06:54:29.742Z</time></trkpt><trkpt lat="41.0088484" lon="9.4324595"><ele>73.0</ele><time>2026-04-30T06:54:30.742Z</time></trkpt><trkpt lat="41.0089513" lon="9.4323682"><ele>73.0</ele><time>2026-04-30T06:54:31.741Z</time></trkpt><trkpt lat="41.0090431" lon="9.4322403"><ele>73.33333333333333</ele><time>2026-04-30T06:54:32.742Z</time></trkpt><trkpt lat="41.009126" lon="9.4320822"><ele>73.66666666666667</ele><time>2026-04-30T06:54:33.742Z</time></trkpt><trkpt lat="41.0092208" lon="9.4319177"><ele>74.0</ele><time>2026-04-30T06:54:34.742Z</time></trkpt><trkpt lat="41.0093401" lon="9.4317565"><ele>70.33333333333334</ele><time>2026-04-30T06:54:35.742Z</time></trkpt><trkpt lat="41.0094788" lon="9.43158"><ele>66.66666666666667</ele><time>2026-04-30T06:54:36.742Z</time></trkpt><trkpt lat="41.0096341" lon="9.4314018"><ele>63.0</ele><time>2026-04-30T06:54:37.742Z</time></trkpt><trkpt lat="41.0098125" lon="9.4312399"><ele>62.5</ele><time>2026-04-30T06:54:38.741Z</time></trkpt><trkpt lat="41.0100085" lon="9.4310865"><ele>62.0</ele><time>2026-04-30T06:54:39.742Z</time></trkpt><trkpt lat="41.0102087" lon="9.4309267"><ele>62.0</ele><time>2026-04-30T06:54:40.742Z</time></trkpt><trkpt lat="41.0103958" lon="9.4307713"><ele>62.0</ele><time>2026-04-30T06:54:41.742Z</time></trkpt><trkpt lat="41.0105714" lon="9.4306387"><ele>62.0</ele><time>2026-04-30T06:54:42.742Z</time></trkpt><trkpt lat="41.0107419" lon="9.4305418"><ele>62.0</ele><time>2026-04-30T06:54:43.742Z</time></trkpt><trkpt lat="41.0109086" lon="9.4304597"><ele>62.0</ele><time>2026-04-30T06:54:44.742Z</time></trkpt><trkpt lat="41.0110634" lon="9.4303596"><ele>62.0</ele><time>2026-04-30T06:54:45.742Z</time></trkpt><trkpt lat="41.0111989" lon="9.4302312"><ele>62.0</ele><time>2026-04-30T06:54:46.742Z</time></trkpt><trkpt lat="41.0113226" lon="9.4300888"><ele>62.0</ele><time>2026-04-30T06:54:47.742Z</time></trkpt><trkpt lat="41.0114385" lon="9.4299623"><ele>62.0</ele><time>2026-04-30T06:54:48.741Z</time></trkpt><trkpt lat="41.0115507" lon="9.4298594"><ele>59.75</ele><time>2026-04-30T06:54:49.742Z</time></trkpt><trkpt lat="41.0116602" lon="9.4297731"><ele>57.5</ele><time>2026-04-30T06:54:50.742Z</time></trkpt><trkpt lat="41.011769" lon="9.4297025"><ele>55.25</ele><time>2026-04-30T06:54:51.741Z</time></trkpt><trkpt lat="41.0118807" lon="9.4296464"><ele>53.0</ele><time>2026-04-30T06:54:52.742Z</time></trkpt><trkpt lat="41.0119886" lon="9.4296024"><ele>53.0</ele><time>2026-04-30T06:54:53.742Z</time></trkpt><trkpt lat="41.0120864" lon="9.4295657"><ele>53.0</ele><time>2026-04-30T06:54:54.742Z</time></trkpt><trkpt lat="41.0121871" lon="9.4295277"><ele>53.0</ele><time>2026-04-30T06:54:55.742Z</time></trkpt><trkpt lat="41.012289" lon="9.4294888"><ele>53.0</ele><time>2026-04-30T06:54:56.742Z</time></trkpt><trkpt lat="41.0123943" lon="9.4294507"><ele>53.0</ele><time>2026-04-30T06:54:57.742Z</time></trkpt><trkpt lat="41.0125042" lon="9.4294129"><ele>51.75</ele><time>2026-04-30T06:54:58.742Z</time></trkpt><trkpt lat="41.0126174" lon="9.4293747"><ele>50.5</ele><time>2026-04-30T06:54:59.742Z</time></trkpt><trkpt lat="41.0127417" lon="9.4293296"><ele>49.25</ele><time>2026-04-30T06:55:00.742Z</time></trkpt><trkpt lat="41.0128777" lon="9.4292823"><ele>48.0</ele><time>2026-04-30T06:55:01.741Z</time></trkpt><trkpt lat="41.0130293" lon="9.4292292"><ele>48.0</ele><time>2026-04-30T06:55:02.742Z</time></trkpt><trkpt lat="41.0131776" lon="9.4291734"><ele>48.0</ele><time>2026-04-30T06:55:03.742Z</time></trkpt><trkpt lat="41.013316" lon="9.4291038"><ele>48.0</ele><time>2026-04-30T06:55:04.742Z</time></trkpt><trkpt lat="41.0134424" lon="9.4290186"><ele>48.0</ele><time>2026-04-30T06:55:05.742Z</time></trkpt><trkpt lat="41.0135636" lon="9.4289392"><ele>48.25</ele><time>2026-04-30T06:55:06.742Z</time></trkpt><trkpt lat="41.0136931" lon="9.4288935"><ele>48.5</ele><time>2026-04-30T06:55:07.742Z</time></trkpt><trkpt lat="41.0138312" lon="9.4288859"><ele>48.75</ele><time>2026-04-30T06:55:08.742Z</time></trkpt><trkpt lat="41.0139776" lon="9.4289087"><ele>49.0</ele><time>2026-04-30T06:55:09.742Z</time></trkpt><trkpt lat="41.0141322" lon="9.4289457"><ele>46.666666666666664</ele><time>2026-04-30T06:55:10.742Z</time></trkpt><trkpt lat="41.014297" lon="9.4289915"><ele>44.33333333333333</ele><time>2026-04-30T06:55:11.742Z</time></trkpt><trkpt lat="41.0144677" lon="9.4290391"><ele>42.0</ele><time>2026-04-30T06:55:12.742Z</time></trkpt><trkpt lat="41.0146294" lon="9.4290845"><ele>42.0</ele><time>2026-04-30T06:55:13.742Z</time></trkpt><trkpt lat="41.0147812" lon="9.4291273"><ele>42.0</ele><time>2026-04-30T06:55:14.742Z</time></trkpt><trkpt lat="41.0149275" lon="9.4291628"><ele>42.0</ele><time>2026-04-30T06:55:15.741Z</time></trkpt><trkpt lat="41.0150737" lon="9.4291786"><ele>40.666666666666664</ele><time>2026-04-30T06:55:16.742Z</time></trkpt><trkpt lat="41.0152279" lon="9.4291724"><ele>39.33333333333333</ele><time>2026-04-30T06:55:17.742Z</time></trkpt><trkpt lat="41.015379" lon="9.4291495"><ele>38.0</ele><time>2026-04-30T06:55:18.741Z</time></trkpt><trkpt lat="41.0155228" lon="9.4291226"><ele>38.0</ele><time>2026-04-30T06:55:19.742Z</time></trkpt><trkpt lat="41.0156611" lon="9.4290963"><ele>38.0</ele><time>2026-04-30T06:55:20.742Z</time></trkpt><trkpt lat="41.0157941" lon="9.4290722"><ele>38.0</ele><time>2026-04-30T06:55:21.742Z</time></trkpt><trkpt lat="41.015927" lon="9.4290466"><ele>38.0</ele><time>2026-04-30T06:55:22.742Z</time></trkpt><trkpt lat="41.016062" lon="9.4290221"><ele>38.5</ele><time>2026-04-30T06:55:23.742Z</time></trkpt><trkpt lat="41.0161997" lon="9.4289931"><ele>39.0</ele><time>2026-04-30T06:55:24.741Z</time></trkpt><trkpt lat="41.0163331" lon="9.4289516"><ele>39.5</ele><time>2026-04-30T06:55:25.742Z</time></trkpt><trkpt lat="41.0164625" lon="9.4288851"><ele>40.0</ele><time>2026-04-30T06:55:26.742Z</time></trkpt><trkpt lat="41.0165823" lon="9.4288077"><ele>38.75</ele><time>2026-04-30T06:55:27.741Z</time></trkpt><trkpt lat="41.0167027" lon="9.4287325"><ele>37.5</ele><time>2026-04-30T06:55:28.742Z</time></trkpt><trkpt lat="41.0168216" lon="9.4286653"><ele>36.25</ele><time>2026-04-30T06:55:29.742Z</time></trkpt><trkpt lat="41.0169369" lon="9.4286163"><ele>35.0</ele><time>2026-04-30T06:55:30.742Z</time></trkpt><trkpt lat="41.0170533" lon="9.4285866"><ele>35.0</ele><time>2026-04-30T06:55:31.742Z</time></trkpt><trkpt lat="41.0171755" lon="9.4285754"><ele>35.0</ele><time>2026-04-30T06:55:32.742Z</time></trkpt><trkpt lat="41.0173007" lon="9.4285876"><ele>35.0</ele><time>2026-04-30T06:55:33.742Z</time></trkpt><trkpt lat="41.0174439" lon="9.4286209"><ele>35.0</ele><time>2026-04-30T06:55:34.742Z</time></trkpt><trkpt lat="41.0176119" lon="9.428665"><ele>35.0</ele><time>2026-04-30T06:55:35.742Z</time></trkpt><trkpt lat="41.0177749" lon="9.4286987"><ele>35.0</ele><time>2026-04-30T06:55:36.742Z</time></trkpt><trkpt lat="41.0179366" lon="9.4287206"><ele>35.0</ele><time>2026-04-30T06:55:37.742Z</time></trkpt><trkpt lat="41.0180916" lon="9.4287185"><ele>35.0</ele><time>2026-04-30T06:55:38.742Z</time></trkpt><trkpt lat="41.0182395" lon="9.4287135"><ele>35.0</ele><time>2026-04-30T06:55:39.741Z</time></trkpt><trkpt lat="41.0183797" lon="9.4287298"><ele>35.0</ele><time>2026-04-30T06:55:40.742Z</time></trkpt><trkpt lat="41.0185256" lon="9.4287655"><ele>35.0</ele><time>2026-04-30T06:55:41.742Z</time></trkpt><trkpt lat="41.018663" lon="9.4288109"><ele>37.0</ele><time>2026-04-30T06:55:42.742Z</time></trkpt><trkpt lat="41.0188001" lon="9.4288544"><ele>39.0</ele><time>2026-04-30T06:55:43.742Z</time></trkpt><trkpt lat="41.0189463" lon="9.4288996"><ele>41.0</ele><time>2026-04-30T06:55:44.741Z</time></trkpt><trkpt lat="41.0190964" lon="9.4289375"><ele>43.0</ele><time>2026-04-30T06:55:45.742Z</time></trkpt><trkpt lat="41.0192513" lon="9.4289652"><ele>43.0</ele><time>2026-04-30T06:55:46.741Z</time></trkpt><trkpt lat="41.0194142" lon="9.4289815"><ele>43.0</ele><time>2026-04-30T06:55:47.741Z</time></trkpt><trkpt lat="41.0195723" lon="9.4289727"><ele>43.0</ele><time>2026-04-30T06:55:48.742Z</time></trkpt><trkpt lat="41.019726" lon="9.42894"><ele>43.0</ele><time>2026-04-30T06:55:49.742Z</time></trkpt><trkpt lat="41.0198701" lon="9.4288662"><ele>43.0</ele><time>2026-04-30T06:55:50.742Z</time></trkpt><trkpt lat="41.020013" lon="9.428765"><ele>43.0</ele><time>2026-04-30T06:55:51.742Z</time></trkpt><trkpt lat="41.0201659" lon="9.4286402"><ele>41.0</ele><time>2026-04-30T06:55:52.741Z</time></trkpt><trkpt lat="41.0203177" lon="9.4285117"><ele>39.0</ele><time>2026-04-30T06:55:53.742Z</time></trkpt><trkpt lat="41.0204601" lon="9.428389"><ele>37.0</ele><time>2026-04-30T06:55:54.742Z</time></trkpt><trkpt lat="41.0206023" lon="9.4282658"><ele>37.0</ele><time>2026-04-30T06:55:55.742Z</time></trkpt><trkpt lat="41.0207271" lon="9.4281573"><ele>37.0</ele><time>2026-04-30T06:55:56.742Z</time></trkpt><trkpt lat="41.0208421" lon="9.4280708"><ele>37.0</ele><time>2026-04-30T06:55:57.741Z</time></trkpt><trkpt lat="41.0209643" lon="9.4280098"><ele>37.0</ele><time>2026-04-30T06:55:58.741Z</time></trkpt><trkpt lat="41.0210949" lon="9.4279717"><ele>36.0</ele><time>2026-04-30T06:55:59.742Z</time></trkpt><trkpt lat="41.02124" lon="9.4279413"><ele>35.0</ele><time>2026-04-30T06:56:00.742Z</time></trkpt><trkpt lat="41.0214073" lon="9.4279075"><ele>34.0</ele><time>2026-04-30T06:56:01.742Z</time></trkpt><trkpt lat="41.0215691" lon="9.427879"><ele>34.0</ele><time>2026-04-30T06:56:02.742Z</time></trkpt><trkpt lat="41.0217196" lon="9.427849"><ele>34.0</ele><time>2026-04-30T06:56:03.742Z</time></trkpt><trkpt lat="41.0218654" lon="9.4278182"><ele>34.0</ele><time>2026-04-30T06:56:04.742Z</time></trkpt><trkpt lat="41.0220018" lon="9.4277936"><ele>34.0</ele><time>2026-04-30T06:56:05.742Z</time></trkpt><trkpt lat="41.0221319" lon="9.4277707"><ele>34.0</ele><time>2026-04-30T06:56:06.742Z</time></trkpt><trkpt lat="41.0222633" lon="9.4277557"><ele>34.0</ele><time>2026-04-30T06:56:07.742Z</time></trkpt><trkpt lat="41.0223839" lon="9.4277569"><ele>34.0</ele><time>2026-04-30T06:56:08.742Z</time></trkpt><trkpt lat="41.0224961" lon="9.4277688"><ele>34.0</ele><time>2026-04-30T06:56:09.741Z</time></trkpt><trkpt lat="41.0225996" lon="9.4277897"><ele>33.8</ele><time>2026-04-30T06:56:10.742Z</time></trkpt><trkpt lat="41.0226928" lon="9.4278145"><ele>33.599999999999994</ele><time>2026-04-30T06:56:11.742Z</time></trkpt><trkpt lat="41.022781" lon="9.4278469"><ele>33.4</ele><time>2026-04-30T06:56:12.742Z</time></trkpt><trkpt lat="41.0228666" lon="9.4278803"><ele>33.199999999999996</ele><time>2026-04-30T06:56:13.742Z</time></trkpt><trkpt lat="41.0229515" lon="9.4279172"><ele>33.0</ele><time>2026-04-30T06:56:14.742Z</time></trkpt><trkpt lat="41.0230386" lon="9.4279572"><ele>33.8</ele><time>2026-04-30T06:56:15.742Z</time></trkpt><trkpt lat="41.0231234" lon="9.4279976"><ele>34.599999999999994</ele><time>2026-04-30T06:56:16.742Z</time></trkpt><trkpt lat="41.0232175" lon="9.4280453"><ele>35.400000000000006</ele><time>2026-04-30T06:56:17.742Z</time></trkpt><trkpt lat="41.0233244" lon="9.428103"><ele>36.2</ele><time>2026-04-30T06:56:18.742Z</time></trkpt><trkpt lat="41.0234435" lon="9.4281697"><ele>37.0</ele><time>2026-04-30T06:56:19.742Z</time></trkpt><trkpt lat="41.0235902" lon="9.4282558"><ele>37.0</ele><time>2026-04-30T06:56:20.741Z</time></trkpt><trkpt lat="41.0237602" lon="9.4283552"><ele>37.0</ele><time>2026-04-30T06:56:21.742Z</time></trkpt><trkpt lat="41.0239476" lon="9.428467"><ele>37.0</ele><time>2026-04-30T06:56:22.742Z</time></trkpt><trkpt lat="41.0241621" lon="9.4285964"><ele>37.5</ele><time>2026-04-30T06:56:23.742Z</time></trkpt><trkpt lat="41.0244006" lon="9.4287353"><ele>38.0</ele><time>2026-04-30T06:56:24.742Z</time></trkpt><trkpt lat="41.024627" lon="9.4288683"><ele>38.0</ele><time>2026-04-30T06:56:25.742Z</time></trkpt><trkpt lat="41.0248535" lon="9.4289978"><ele>38.0</ele><time>2026-04-30T06:56:26.742Z</time></trkpt><trkpt lat="41.0250825" lon="9.4291288"><ele>34.5</ele><time>2026-04-30T06:56:27.742Z</time></trkpt><trkpt lat="41.0253133" lon="9.4292622"><ele>31.0</ele><time>2026-04-30T06:56:28.742Z</time></trkpt><trkpt lat="41.0255497" lon="9.4293985"><ele>31.0</ele><time>2026-04-30T06:56:29.742Z</time></trkpt><trkpt lat="41.0257941" lon="9.4295305"><ele>31.0</ele><time>2026-04-30T06:56:30.742Z</time></trkpt><trkpt lat="41.0260257" lon="9.4296482"><ele>32.66666666666667</ele><time>2026-04-30T06:56:31.742Z</time></trkpt><trkpt lat="41.0262415" lon="9.4297483"><ele>34.333333333333336</ele><time>2026-04-30T06:56:32.742Z</time></trkpt><trkpt lat="41.0264396" lon="9.429845"><ele>36.0</ele><time>2026-04-30T06:56:33.741Z</time></trkpt><trkpt lat="41.0266202" lon="9.4299307"><ele>35.0</ele><time>2026-04-30T06:56:34.741Z</time></trkpt><trkpt lat="41.0267854" lon="9.4300081"><ele>34.0</ele><time>2026-04-30T06:56:35.742Z</time></trkpt><trkpt lat="41.026933" lon="9.4300794"><ele>33.0</ele><time>2026-04-30T06:56:36.741Z</time></trkpt><trkpt lat="41.0270648" lon="9.4301568"><ele>33.0</ele><time>2026-04-30T06:56:37.742Z</time></trkpt><trkpt lat="41.0271866" lon="9.4302472"><ele>33.0</ele><time>2026-04-30T06:56:38.742Z</time></trkpt><trkpt lat="41.0273014" lon="9.4303502"><ele>33.0</ele><time>2026-04-30T06:56:39.741Z</time></trkpt><trkpt lat="41.0274097" lon="9.4304563"><ele>33.0</ele><time>2026-04-30T06:56:40.741Z</time></trkpt><trkpt lat="41.0275195" lon="9.4305608"><ele>33.0</ele><time>2026-04-30T06:56:41.742Z</time></trkpt><trkpt lat="41.0276347" lon="9.4306488"><ele>33.0</ele><time>2026-04-30T06:56:42.742Z</time></trkpt><trkpt lat="41.0277563" lon="9.4307062"><ele>33.0</ele><time>2026-04-30T06:56:43.742Z</time></trkpt><trkpt lat="41.0278874" lon="9.4307301"><ele>33.0</ele><time>2026-04-30T06:56:44.741Z</time></trkpt><trkpt lat="41.0280214" lon="9.4307383"><ele>33.0</ele><time>2026-04-30T06:56:45.742Z</time></trkpt><trkpt lat="41.0281567" lon="9.43075"><ele>33.0</ele><time>2026-04-30T06:56:46.742Z</time></trkpt><trkpt lat="41.0282891" lon="9.43079"><ele>33.0</ele><time>2026-04-30T06:56:47.742Z</time></trkpt><trkpt lat="41.0284143" lon="9.4308552"><ele>33.0</ele><time>2026-04-30T06:56:48.742Z</time></trkpt><trkpt lat="41.0285353" lon="9.4309299"><ele>33.0</ele><time>2026-04-30T06:56:49.742Z</time></trkpt><trkpt lat="41.0286592" lon="9.4309899"><ele>33.0</ele><time>2026-04-30T06:56:50.742Z</time></trkpt><trkpt lat="41.0288029" lon="9.4310321"><ele>33.0</ele><time>2026-04-30T06:56:51.741Z</time></trkpt><trkpt lat="41.0289673" lon="9.4310437"><ele>33.0</ele><time>2026-04-30T06:56:52.741Z</time></trkpt><trkpt lat="41.0291567" lon="9.4310488"><ele>32.333333333333336</ele><time>2026-04-30T06:56:53.742Z</time></trkpt><trkpt lat="41.0293653" lon="9.4310607"><ele>31.666666666666668</ele><time>2026-04-30T06:56:54.742Z</time></trkpt><trkpt lat="41.0295795" lon="9.4310851"><ele>31.0</ele><time>2026-04-30T06:56:55.741Z</time></trkpt><trkpt lat="41.0297975" lon="9.4311122"><ele>30.666666666666668</ele><time>2026-04-30T06:56:56.741Z</time></trkpt><trkpt lat="41.0299998" lon="9.431154"><ele>30.333333333333336</ele><time>2026-04-30T06:56:57.742Z</time></trkpt><trkpt lat="41.0301939" lon="9.4312059"><ele>30.0</ele><time>2026-04-30T06:56:58.742Z</time></trkpt><trkpt lat="41.030374" lon="9.4312655"><ele>31.333333333333336</ele><time>2026-04-30T06:56:59.742Z</time></trkpt><trkpt lat="41.0305435" lon="9.4313291"><ele>32.66666666666667</ele><time>2026-04-30T06:57:00.742Z</time></trkpt><trkpt lat="41.0307042" lon="9.4313996"><ele>34.0</ele><time>2026-04-30T06:57:01.742Z</time></trkpt><trkpt lat="41.0308535" lon="9.4314838"><ele>34.0</ele><time>2026-04-30T06:57:02.741Z</time></trkpt><trkpt lat="41.0309933" lon="9.4315759"><ele>34.0</ele><time>2026-04-30T06:57:03.742Z</time></trkpt><trkpt lat="41.0311251" lon="9.4316824"><ele>34.0</ele><time>2026-04-30T06:57:04.741Z</time></trkpt><trkpt lat="41.0312467" lon="9.4317939"><ele>34.0</ele><time>2026-04-30T06:57:05.742Z</time></trkpt><trkpt lat="41.0313719" lon="9.4319031"><ele>34.0</ele><time>2026-04-30T06:57:06.742Z</time></trkpt><trkpt lat="41.0315137" lon="9.431987"><ele>34.0</ele><time>2026-04-30T06:57:07.742Z</time></trkpt><trkpt lat="41.0316798" lon="9.4320561"><ele>34.333333333333336</ele><time>2026-04-30T06:57:08.742Z</time></trkpt><trkpt lat="41.0318722" lon="9.4321184"><ele>34.666666666666664</ele><time>2026-04-30T06:57:09.742Z</time></trkpt><trkpt lat="41.032084" lon="9.4321785"><ele>35.0</ele><time>2026-04-30T06:57:10.742Z</time></trkpt><trkpt lat="41.0323023" lon="9.4322524"><ele>33.0</ele><time>2026-04-30T06:57:11.742Z</time></trkpt><trkpt lat="41.0325181" lon="9.432355"><ele>31.0</ele><time>2026-04-30T06:57:12.742Z</time></trkpt><trkpt lat="41.0327419" lon="9.4324676"><ele>31.0</ele><time>2026-04-30T06:57:13.742Z</time></trkpt><trkpt lat="41.0329749" lon="9.4325889"><ele>31.0</ele><time>2026-04-30T06:57:14.742Z</time></trkpt><trkpt lat="41.0331964" lon="9.4327053"><ele>29.333333333333336</ele><time>2026-04-30T06:57:15.742Z</time></trkpt><trkpt lat="41.0334021" lon="9.4328125"><ele>27.666666666666664</ele><time>2026-04-30T06:57:16.741Z</time></trkpt><trkpt lat="41.0335857" lon="9.4329137"><ele>26.0</ele><time>2026-04-30T06:57:17.742Z</time></trkpt><trkpt lat="41.0337433" lon="9.4330201"><ele>29.666666666666664</ele><time>2026-04-30T06:57:18.742Z</time></trkpt><trkpt lat="41.0338766" lon="9.4331508"><ele>33.333333333333336</ele><time>2026-04-30T06:57:19.742Z</time></trkpt><trkpt lat="41.033991" lon="9.433289"><ele>37.0</ele><time>2026-04-30T06:57:20.742Z</time></trkpt><trkpt lat="41.0340962" lon="9.4334314"><ele>35.0</ele><time>2026-04-30T06:57:21.742Z</time></trkpt><trkpt lat="41.0342083" lon="9.4335538"><ele>33.0</ele><time>2026-04-30T06:57:22.742Z</time></trkpt><trkpt lat="41.0343467" lon="9.4336259"><ele>31.0</ele><time>2026-04-30T06:57:23.742Z</time></trkpt><trkpt lat="41.0344989" lon="9.4336654"><ele>29.0</ele><time>2026-04-30T06:57:24.742Z</time></trkpt><trkpt lat="41.0346675" lon="9.4336948"><ele>29.0</ele><time>2026-04-30T06:57:25.742Z</time></trkpt><trkpt lat="41.034814" lon="9.4337088"><ele>29.0</ele><time>2026-04-30T06:57:26.742Z</time></trkpt><trkpt lat="41.0349543" lon="9.4336811"><ele>29.0</ele><time>2026-04-30T06:57:27.742Z</time></trkpt><trkpt lat="41.0350882" lon="9.4336042"><ele>29.0</ele><time>2026-04-30T06:57:28.741Z</time></trkpt><trkpt lat="41.0352082" lon="9.4335181"><ele>28.0</ele><time>2026-04-30T06:57:29.742Z</time></trkpt><trkpt lat="41.0353213" lon="9.4334543"><ele>27.0</ele><time>2026-04-30T06:57:30.742Z</time></trkpt><trkpt lat="41.0354431" lon="9.4334155"><ele>26.0</ele><time>2026-04-30T06:57:31.742Z</time></trkpt><trkpt lat="41.0355742" lon="9.4334133"><ele>25.0</ele><time>2026-04-30T06:57:32.742Z</time></trkpt><trkpt lat="41.0357114" lon="9.4334417"><ele>25.333333333333336</ele><time>2026-04-30T06:57:33.741Z</time></trkpt><trkpt lat="41.0358595" lon="9.4334793"><ele>25.666666666666664</ele><time>2026-04-30T06:57:34.742Z</time></trkpt><trkpt lat="41.0360251" lon="9.4335314"><ele>26.0</ele><time>2026-04-30T06:57:35.742Z</time></trkpt><trkpt lat="41.0362075" lon="9.4335936"><ele>26.0</ele><time>2026-04-30T06:57:36.742Z</time></trkpt><trkpt lat="41.036396" lon="9.4336595"><ele>26.0</ele><time>2026-04-30T06:57:37.742Z</time></trkpt><trkpt lat="41.0365868" lon="9.4337232"><ele>26.0</ele><time>2026-04-30T06:57:38.741Z</time></trkpt><trkpt lat="41.0367654" lon="9.4337853"><ele>26.333333333333332</ele><time>2026-04-30T06:57:39.741Z</time></trkpt><trkpt lat="41.0369349" lon="9.4338435"><ele>26.666666666666664</ele><time>2026-04-30T06:57:40.742Z</time></trkpt><trkpt lat="41.0371064" lon="9.4338993"><ele>27.0</ele><time>2026-04-30T06:57:41.742Z</time></trkpt><trkpt lat="41.0372813" lon="9.4339542"><ele>27.0</ele><time>2026-04-30T06:57:42.742Z</time></trkpt><trkpt lat="41.0374546" lon="9.4340092"><ele>27.0</ele><time>2026-04-30T06:57:43.742Z</time></trkpt><trkpt lat="41.0376348" lon="9.434061"><ele>27.0</ele><time>2026-04-30T06:57:44.741Z</time></trkpt><trkpt lat="41.0378335" lon="9.4341165"><ele>26.666666666666664</ele><time>2026-04-30T06:57:45.742Z</time></trkpt><trkpt lat="41.0380524" lon="9.434186"><ele>26.333333333333332</ele><time>2026-04-30T06:57:46.742Z</time></trkpt><trkpt lat="41.0382685" lon="9.4342542"><ele>26.0</ele><time>2026-04-30T06:57:47.742Z</time></trkpt><trkpt lat="41.0384772" lon="9.4343026"><ele>26.0</ele><time>2026-04-30T06:57:48.742Z</time></trkpt><trkpt lat="41.0386898" lon="9.4343314"><ele>26.0</ele><time>2026-04-30T06:57:49.742Z</time></trkpt><trkpt lat="41.0389123" lon="9.4343575"><ele>26.0</ele><time>2026-04-30T06:57:50.742Z</time></trkpt><trkpt lat="41.0391453" lon="9.4343826"><ele>25.0</ele><time>2026-04-30T06:57:51.741Z</time></trkpt><trkpt lat="41.0393813" lon="9.4344061"><ele>24.0</ele><time>2026-04-30T06:57:52.742Z</time></trkpt><trkpt lat="41.0396038" lon="9.4344275"><ele>24.0</ele><time>2026-04-30T06:57:53.742Z</time></trkpt><trkpt lat="41.0398166" lon="9.434455"><ele>24.0</ele><time>2026-04-30T06:57:54.742Z</time></trkpt><trkpt lat="41.0400268" lon="9.434504"><ele>24.0</ele><time>2026-04-30T06:57:55.741Z</time></trkpt><trkpt lat="41.0402338" lon="9.4345677"><ele>27.0</ele><time>2026-04-30T06:57:56.742Z</time></trkpt><trkpt lat="41.0404447" lon="9.4346427"><ele>30.0</ele><time>2026-04-30T06:57:57.742Z</time></trkpt><trkpt lat="41.0406701" lon="9.4347235"><ele>28.5</ele><time>2026-04-30T06:57:58.741Z</time></trkpt><trkpt lat="41.0408998" lon="9.4348082"><ele>27.0</ele><time>2026-04-30T06:57:59.742Z</time></trkpt><trkpt lat="41.0411177" lon="9.4348887"><ele>27.0</ele><time>2026-04-30T06:58:00.742Z</time></trkpt><trkpt lat="41.0413203" lon="9.4349659"><ele>27.0</ele><time>2026-04-30T06:58:01.742Z</time></trkpt><trkpt lat="41.0415076" lon="9.4350391"><ele>27.0</ele><time>2026-04-30T06:58:02.742Z</time></trkpt><trkpt lat="41.0416917" lon="9.4351105"><ele>26.0</ele><time>2026-04-30T06:58:03.742Z</time></trkpt><trkpt lat="41.0418658" lon="9.435174"><ele>25.0</ele><time>2026-04-30T06:58:04.741Z</time></trkpt><trkpt lat="41.0420353" lon="9.4352295"><ele>24.0</ele><time>2026-04-30T06:58:05.741Z</time></trkpt><trkpt lat="41.0422049" lon="9.4352697"><ele>24.0</ele><time>2026-04-30T06:58:06.741Z</time></trkpt><trkpt lat="41.0423789" lon="9.4352948"><ele>24.0</ele><time>2026-04-30T06:58:07.741Z</time></trkpt><trkpt lat="41.0425719" lon="9.4353085"><ele>24.0</ele><time>2026-04-30T06:58:08.742Z</time></trkpt><trkpt lat="41.0427892" lon="9.4353233"><ele>23.0</ele><time>2026-04-30T06:58:09.742Z</time></trkpt><trkpt lat="41.043024" lon="9.4353371"><ele>22.0</ele><time>2026-04-30T06:58:10.741Z</time></trkpt><trkpt lat="41.0432555" lon="9.4353501"><ele>21.0</ele><time>2026-04-30T06:58:11.742Z</time></trkpt><trkpt lat="41.043472" lon="9.4353714"><ele>20.0</ele><time>2026-04-30T06:58:12.742Z</time></trkpt><trkpt lat="41.0436786" lon="9.4354011"><ele>19.0</ele><time>2026-04-30T06:58:13.742Z</time></trkpt><trkpt lat="41.0438756" lon="9.4354261"><ele>19.0</ele><time>2026-04-30T06:58:14.741Z</time></trkpt><trkpt lat="41.0440612" lon="9.4354479"><ele>19.0</ele><time>2026-04-30T06:58:15.742Z</time></trkpt><trkpt lat="41.0442453" lon="9.4354576"><ele>19.0</ele><time>2026-04-30T06:58:16.742Z</time></trkpt><trkpt lat="41.044424" lon="9.4354522"><ele>19.333333333333332</ele><time>2026-04-30T06:58:17.742Z</time></trkpt><trkpt lat="41.0445983" lon="9.4354362"><ele>19.666666666666668</ele><time>2026-04-30T06:58:18.742Z</time></trkpt><trkpt lat="41.0447606" lon="9.4354148"><ele>20.0</ele><time>2026-04-30T06:58:19.741Z</time></trkpt><trkpt lat="41.0449137" lon="9.4353943"><ele>19.75</ele><time>2026-04-30T06:58:20.742Z</time></trkpt><trkpt lat="41.0450589" lon="9.4353726"><ele>19.5</ele><time>2026-04-30T06:58:21.741Z</time></trkpt><trkpt lat="41.0452076" lon="9.4353581"><ele>19.25</ele><time>2026-04-30T06:58:22.742Z</time></trkpt><trkpt lat="41.0453615" lon="9.4353593"><ele>19.0</ele><time>2026-04-30T06:58:23.742Z</time></trkpt><trkpt lat="41.0455221" lon="9.435381"><ele>19.0</ele><time>2026-04-30T06:58:24.742Z</time></trkpt><trkpt lat="41.0456845" lon="9.43542"><ele>19.0</ele><time>2026-04-30T06:58:25.742Z</time></trkpt><trkpt lat="41.0458479" lon="9.4354677"><ele>19.0</ele><time>2026-04-30T06:58:26.742Z</time></trkpt><trkpt lat="41.0460037" lon="9.43552"><ele>22.0</ele><time>2026-04-30T06:58:27.742Z</time></trkpt><trkpt lat="41.0461509" lon="9.43559"><ele>25.0</ele><time>2026-04-30T06:58:28.742Z</time></trkpt><trkpt lat="41.046285" lon="9.4356882"><ele>28.0</ele><time>2026-04-30T06:58:29.742Z</time></trkpt><trkpt lat="41.0464085" lon="9.435796"><ele>28.0</ele><time>2026-04-30T06:58:30.742Z</time></trkpt><trkpt lat="41.0465276" lon="9.4358945"><ele>28.0</ele><time>2026-04-30T06:58:31.742Z</time></trkpt><trkpt lat="41.0466511" lon="9.4359575"><ele>28.0</ele><time>2026-04-30T06:58:32.742Z</time></trkpt><trkpt lat="41.046783" lon="9.4359751"><ele>28.0</ele><time>2026-04-30T06:58:33.741Z</time></trkpt><trkpt lat="41.0469191" lon="9.4359682"><ele>26.25</ele><time>2026-04-30T06:58:34.742Z</time></trkpt><trkpt lat="41.0470605" lon="9.4359427"><ele>24.5</ele><time>2026-04-30T06:58:35.741Z</time></trkpt><trkpt lat="41.0471965" lon="9.4359036"><ele>22.75</ele><time>2026-04-30T06:58:36.742Z</time></trkpt><trkpt lat="41.0473252" lon="9.4358444"><ele>21.0</ele><time>2026-04-30T06:58:37.742Z</time></trkpt><trkpt lat="41.047445" lon="9.4357714"><ele>21.75</ele><time>2026-04-30T06:58:38.742Z</time></trkpt><trkpt lat="41.0475564" lon="9.4356927"><ele>22.5</ele><time>2026-04-30T06:58:39.742Z</time></trkpt><trkpt lat="41.047668" lon="9.4356258"><ele>23.25</ele><time>2026-04-30T06:58:40.741Z</time></trkpt><trkpt lat="41.0477855" lon="9.4355883"><ele>24.0</ele><time>2026-04-30T06:58:41.741Z</time></trkpt><trkpt lat="41.0479111" lon="9.435587"><ele>24.0</ele><time>2026-04-30T06:58:42.742Z</time></trkpt><trkpt lat="41.0480427" lon="9.4356113"><ele>24.0</ele><time>2026-04-30T06:58:43.742Z</time></trkpt><trkpt lat="41.048179" lon="9.4356537"><ele>24.0</ele><time>2026-04-30T06:58:44.742Z</time></trkpt><trkpt lat="41.0483228" lon="9.4357011"><ele>24.0</ele><time>2026-04-30T06:58:45.742Z</time></trkpt><trkpt lat="41.0484743" lon="9.435749"><ele>23.0</ele><time>2026-04-30T06:58:46.741Z</time></trkpt><trkpt lat="41.0486264" lon="9.4357949"><ele>22.0</ele><time>2026-04-30T06:58:47.742Z</time></trkpt><trkpt lat="41.0487705" lon="9.4358412"><ele>21.0</ele><time>2026-04-30T06:58:48.742Z</time></trkpt><trkpt lat="41.0489093" lon="9.4358854"><ele>20.0</ele><time>2026-04-30T06:58:49.741Z</time></trkpt><trkpt lat="41.0490477" lon="9.4359311"><ele>19.5</ele><time>2026-04-30T06:58:50.742Z</time></trkpt><trkpt lat="41.049187" lon="9.435978"><ele>19.0</ele><time>2026-04-30T06:58:51.742Z</time></trkpt><trkpt lat="41.0493314" lon="9.4360281"><ele>18.5</ele><time>2026-04-30T06:58:52.742Z</time></trkpt><trkpt lat="41.0494704" lon="9.4360751"><ele>18.0</ele><time>2026-04-30T06:58:53.741Z</time></trkpt><trkpt lat="41.0496068" lon="9.4361227"><ele>18.0</ele><time>2026-04-30T06:58:54.742Z</time></trkpt><trkpt lat="41.0497368" lon="9.4361678"><ele>18.0</ele><time>2026-04-30T06:58:55.741Z</time></trkpt><trkpt lat="41.049864" lon="9.43621"><ele>18.0</ele><time>2026-04-30T06:58:56.742Z</time></trkpt><trkpt lat="41.0499805" lon="9.4362435"><ele>18.0</ele><time>2026-04-30T06:58:57.742Z</time></trkpt><trkpt lat="41.0500889" lon="9.4362633"><ele>17.8</ele><time>2026-04-30T06:58:58.741Z</time></trkpt><trkpt lat="41.0501893" lon="9.4362572"><ele>17.6</ele><time>2026-04-30T06:58:59.742Z</time></trkpt><trkpt lat="41.0502817" lon="9.4362187"><ele>17.4</ele><time>2026-04-30T06:59:00.742Z</time></trkpt><trkpt lat="41.050358" lon="9.4361505"><ele>17.2</ele><time>2026-04-30T06:59:01.741Z</time></trkpt><trkpt lat="41.0504163" lon="9.4360545"><ele>17.0</ele><time>2026-04-30T06:59:02.742Z</time></trkpt><trkpt lat="41.0504656" lon="9.4359439"><ele>17.0</ele><time>2026-04-30T06:59:03.741Z</time></trkpt><trkpt lat="41.0505137" lon="9.4358232"><ele>17.0</ele><time>2026-04-30T06:59:04.742Z</time></trkpt><trkpt lat="41.0505622" lon="9.4356926"><ele>17.0</ele><time>2026-04-30T06:59:05.742Z</time></trkpt><trkpt lat="41.0506115" lon="9.4355582"><ele>17.0</ele><time>2026-04-30T06:59:06.742Z</time></trkpt><trkpt lat="41.0506578" lon="9.4354255"><ele>17.0</ele><time>2026-04-30T06:59:07.742Z</time></trkpt><trkpt lat="41.0507023" lon="9.4353013"><ele>17.2</ele><time>2026-04-30T06:59:08.742Z</time></trkpt><trkpt lat="41.0507482" lon="9.4351871"><ele>17.4</ele><time>2026-04-30T06:59:09.742Z</time></trkpt><trkpt lat="41.0508059" lon="9.4350815"><ele>17.6</ele><time>2026-04-30T06:59:10.741Z</time></trkpt><trkpt lat="41.0508815" lon="9.4349895"><ele>17.8</ele><time>2026-04-30T06:59:11.742Z</time></trkpt><trkpt lat="41.0509723" lon="9.4349194"><ele>18.0</ele><time>2026-04-30T06:59:12.742Z</time></trkpt><trkpt lat="41.051077" lon="9.4348785"><ele>18.0</ele><time>2026-04-30T06:59:13.742Z</time></trkpt><trkpt lat="41.0511915" lon="9.4348697"><ele>18.0</ele><time>2026-04-30T06:59:14.742Z</time></trkpt><trkpt lat="41.0513191" lon="9.4348849"><ele>18.0</ele><time>2026-04-30T06:59:15.742Z</time></trkpt><trkpt lat="41.0514599" lon="9.434905"><ele>18.0</ele><time>2026-04-30T06:59:16.742Z</time></trkpt><trkpt lat="41.0515889" lon="9.4349149"><ele>19.5</ele><time>2026-04-30T06:59:17.742Z</time></trkpt><trkpt lat="41.0517122" lon="9.4349045"><ele>21.0</ele><time>2026-04-30T06:59:18.742Z</time></trkpt><trkpt lat="41.0518272" lon="9.4348638"><ele>22.5</ele><time>2026-04-30T06:59:19.742Z</time></trkpt><trkpt lat="41.0519467" lon="9.4348031"><ele>24.0</ele><time>2026-04-30T06:59:20.742Z</time></trkpt><trkpt lat="41.0520641" lon="9.4347417"><ele>24.0</ele><time>2026-04-30T06:59:21.742Z</time></trkpt><trkpt lat="41.0521787" lon="9.4346815"><ele>24.0</ele><time>2026-04-30T06:59:22.742Z</time></trkpt><trkpt lat="41.0523011" lon="9.4346205"><ele>24.0</ele><time>2026-04-30T06:59:23.742Z</time></trkpt><trkpt lat="41.0524261" lon="9.4345553"><ele>24.0</ele><time>2026-04-30T06:59:24.742Z</time></trkpt><trkpt lat="41.0525491" lon="9.4345011"><ele>22.25</ele><time>2026-04-30T06:59:25.742Z</time></trkpt><trkpt lat="41.0526828" lon="9.4344547"><ele>20.5</ele><time>2026-04-30T06:59:26.742Z</time></trkpt><trkpt lat="41.0528261" lon="9.4344266"><ele>18.75</ele><time>2026-04-30T06:59:27.742Z</time></trkpt><trkpt lat="41.0529774" lon="9.4344261"><ele>17.0</ele><time>2026-04-30T06:59:28.742Z</time></trkpt><trkpt lat="41.0531359" lon="9.4344478"><ele>16.666666666666668</ele><time>2026-04-30T06:59:29.742Z</time></trkpt><trkpt lat="41.0533091" lon="9.4344823"><ele>16.333333333333332</ele><time>2026-04-30T06:59:30.742Z</time></trkpt><trkpt lat="41.0534756" lon="9.4345138"><ele>16.0</ele><time>2026-04-30T06:59:31.742Z</time></trkpt><trkpt lat="41.0536443" lon="9.4345379"><ele>16.0</ele><time>2026-04-30T06:59:32.742Z</time></trkpt><trkpt lat="41.0538157" lon="9.4345565"><ele>16.0</ele><time>2026-04-30T06:59:33.742Z</time></trkpt><trkpt lat="41.0539889" lon="9.4345671"><ele>16.0</ele><time>2026-04-30T06:59:34.742Z</time></trkpt><trkpt lat="41.0541535" lon="9.4345758"><ele>16.0</ele><time>2026-04-30T06:59:35.742Z</time></trkpt><trkpt lat="41.0543123" lon="9.4345898"><ele>16.0</ele><time>2026-04-30T06:59:36.742Z</time></trkpt><trkpt lat="41.0544604" lon="9.4345987"><ele>16.0</ele><time>2026-04-30T06:59:37.742Z</time></trkpt><trkpt lat="41.0546023" lon="9.4346071"><ele>16.0</ele><time>2026-04-30T06:59:38.742Z</time></trkpt><trkpt lat="41.0547442" lon="9.4346176"><ele>16.0</ele><time>2026-04-30T06:59:39.742Z</time></trkpt><trkpt lat="41.0548793" lon="9.4346271"><ele>16.0</ele><time>2026-04-30T06:59:40.741Z</time></trkpt><trkpt lat="41.055011" lon="9.4346362"><ele>16.0</ele><time>2026-04-30T06:59:41.741Z</time></trkpt><trkpt lat="41.0551455" lon="9.4346412"><ele>16.0</ele><time>2026-04-30T06:59:42.742Z</time></trkpt><trkpt lat="41.0552835" lon="9.4346462"><ele>16.0</ele><time>2026-04-30T06:59:43.742Z</time></trkpt><trkpt lat="41.0554223" lon="9.4346462"><ele>16.0</ele><time>2026-04-30T06:59:44.742Z</time></trkpt><trkpt lat="41.0555631" lon="9.4346409"><ele>16.0</ele><time>2026-04-30T06:59:45.741Z</time></trkpt><trkpt lat="41.0557101" lon="9.4346289"><ele>16.0</ele><time>2026-04-30T06:59:46.742Z</time></trkpt><trkpt lat="41.0558682" lon="9.434619"><ele>15.666666666666666</ele><time>2026-04-30T06:59:47.742Z</time></trkpt><trkpt lat="41.0560244" lon="9.4346096"><ele>15.333333333333332</ele><time>2026-04-30T06:59:48.742Z</time></trkpt><trkpt lat="41.0561756" lon="9.4346068"><ele>15.0</ele><time>2026-04-30T06:59:49.741Z</time></trkpt><trkpt lat="41.0563312" lon="9.4346334"><ele>17.333333333333332</ele><time>2026-04-30T06:59:50.742Z</time></trkpt><trkpt lat="41.0564869" lon="9.4346841"><ele>19.666666666666664</ele><time>2026-04-30T06:59:51.742Z</time></trkpt><trkpt lat="41.0566461" lon="9.4347494"><ele>22.0</ele><time>2026-04-30T06:59:52.742Z</time></trkpt><trkpt lat="41.0568148" lon="9.4348222"><ele>22.0</ele><time>2026-04-30T06:59:53.742Z</time></trkpt><trkpt lat="41.0569764" lon="9.4348976"><ele>22.0</ele><time>2026-04-30T06:59:54.742Z</time></trkpt><trkpt lat="41.0571281" lon="9.4349692"><ele>22.0</ele><time>2026-04-30T06:59:55.742Z</time></trkpt><trkpt lat="41.0572615" lon="9.4350448"><ele>22.0</ele><time>2026-04-30T06:59:56.742Z</time></trkpt><trkpt lat="41.0573792" lon="9.4351205"><ele>22.0</ele><time>2026-04-30T06:59:57.742Z</time></trkpt><trkpt lat="41.0574857" lon="9.4351954"><ele>22.0</ele><time>2026-04-30T06:59:58.742Z</time></trkpt><trkpt lat="41.0575945" lon="9.4352737"><ele>22.0</ele><time>2026-04-30T06:59:59.742Z</time></trkpt><trkpt lat="41.0577044" lon="9.4353502"><ele>22.75</ele><time>2026-04-30T07:00:00.742Z</time></trkpt><trkpt lat="41.0578103" lon="9.4354271"><ele>23.5</ele><time>2026-04-30T07:00:01.742Z</time></trkpt><trkpt lat="41.0579185" lon="9.4355022"><ele>24.25</ele><time>2026-04-30T07:00:02.742Z</time></trkpt><trkpt lat="41.058035" lon="9.4355678"><ele>25.0</ele><time>2026-04-30T07:00:03.742Z</time></trkpt><trkpt lat="41.0581623" lon="9.4356188"><ele>25.0</ele><time>2026-04-30T07:00:04.742Z</time></trkpt><trkpt lat="41.0583013" lon="9.435656"><ele>25.0</ele><time>2026-04-30T07:00:05.742Z</time></trkpt><trkpt lat="41.0584551" lon="9.4356842"><ele>25.0</ele><time>2026-04-30T07:00:06.742Z</time></trkpt><trkpt lat="41.0586219" lon="9.4357162"><ele>25.0</ele><time>2026-04-30T07:00:07.742Z</time></trkpt><trkpt lat="41.0587866" lon="9.4357497"><ele>25.0</ele><time>2026-04-30T07:00:08.742Z</time></trkpt><trkpt lat="41.0589502" lon="9.435782"><ele>25.0</ele><time>2026-04-30T07:00:09.742Z</time></trkpt><trkpt lat="41.0591118" lon="9.4358109"><ele>22.666666666666668</ele><time>2026-04-30T07:00:10.742Z</time></trkpt><trkpt lat="41.0592691" lon="9.4358403"><ele>20.333333333333336</ele><time>2026-04-30T07:00:11.742Z</time></trkpt><trkpt lat="41.0594242" lon="9.4358712"><ele>18.0</ele><time>2026-04-30T07:00:12.742Z</time></trkpt><trkpt lat="41.0595732" lon="9.4358997"><ele>18.0</ele><time>2026-04-30T07:00:13.741Z</time></trkpt><trkpt lat="41.0597174" lon="9.4359269"><ele>18.0</ele><time>2026-04-30T07:00:14.742Z</time></trkpt><trkpt lat="41.0598531" lon="9.4359555"><ele>18.0</ele><time>2026-04-30T07:00:15.742Z</time></trkpt><trkpt lat="41.059984" lon="9.4359764"><ele>18.0</ele><time>2026-04-30T07:00:16.741Z</time></trkpt><trkpt lat="41.0601178" lon="9.4359909"><ele>18.333333333333332</ele><time>2026-04-30T07:00:17.742Z</time></trkpt><trkpt lat="41.0602576" lon="9.4359892"><ele>18.666666666666664</ele><time>2026-04-30T07:00:18.742Z</time></trkpt><trkpt lat="41.0604054" lon="9.435952"><ele>19.0</ele><time>2026-04-30T07:00:19.742Z</time></trkpt><trkpt lat="41.0605611" lon="9.4358833"><ele>19.0</ele><time>2026-04-30T07:00:20.742Z</time></trkpt><trkpt lat="41.0607191" lon="9.4357804"><ele>19.0</ele><time>2026-04-30T07:00:21.742Z</time></trkpt><trkpt lat="41.0608824" lon="9.4356389"><ele>19.0</ele><time>2026-04-30T07:00:22.742Z</time></trkpt><trkpt lat="41.0610517" lon="9.4354642"><ele>17.333333333333332</ele><time>2026-04-30T07:00:23.742Z</time></trkpt><trkpt lat="41.061212" lon="9.4352957"><ele>15.666666666666668</ele><time>2026-04-30T07:00:24.741Z</time></trkpt><trkpt lat="41.0613726" lon="9.4351374"><ele>14.0</ele><time>2026-04-30T07:00:25.741Z</time></trkpt><trkpt lat="41.061527" lon="9.4349806"><ele>14.0</ele><time>2026-04-30T07:00:26.742Z</time></trkpt><trkpt lat="41.061681" lon="9.4348294"><ele>14.0</ele><time>2026-04-30T07:00:27.742Z</time></trkpt><trkpt lat="41.0618219" lon="9.4346866"><ele>14.0</ele><time>2026-04-30T07:00:28.742Z</time></trkpt><trkpt lat="41.0619579" lon="9.4345539"><ele>14.0</ele><time>2026-04-30T07:00:29.742Z</time></trkpt><trkpt lat="41.0620831" lon="9.4344279"><ele>14.0</ele><time>2026-04-30T07:00:30.742Z</time></trkpt><trkpt lat="41.0622075" lon="9.4343004"><ele>14.0</ele><time>2026-04-30T07:00:31.742Z</time></trkpt><trkpt lat="41.0623374" lon="9.4341739"><ele>14.0</ele><time>2026-04-30T07:00:32.742Z</time></trkpt><trkpt lat="41.0624664" lon="9.4340407"><ele>14.0</ele><time>2026-04-30T07:00:33.741Z</time></trkpt><trkpt lat="41.0626039" lon="9.4339001"><ele>14.0</ele><time>2026-04-30T07:00:34.742Z</time></trkpt><trkpt lat="41.0627445" lon="9.4337609"><ele>13.333333333333334</ele><time>2026-04-30T07:00:35.742Z</time></trkpt><trkpt lat="41.0628851" lon="9.4336203"><ele>12.666666666666668</ele><time>2026-04-30T07:00:36.742Z</time></trkpt><trkpt lat="41.063023" lon="9.43348"><ele>12.0</ele><time>2026-04-30T07:00:37.742Z</time></trkpt><trkpt lat="41.0631521" lon="9.4333449"><ele>12.0</ele><time>2026-04-30T07:00:38.741Z</time></trkpt><trkpt lat="41.0632784" lon="9.4332168"><ele>12.0</ele><time>2026-04-30T07:00:39.742Z</time></trkpt><trkpt lat="41.063403" lon="9.433096"><ele>12.0</ele><time>2026-04-30T07:00:40.742Z</time></trkpt><trkpt lat="41.0635237" lon="9.4329731"><ele>11.75</ele><time>2026-04-30T07:00:41.742Z</time></trkpt><trkpt lat="41.0636417" lon="9.4328525"><ele>11.5</ele><time>2026-04-30T07:00:42.742Z</time></trkpt><trkpt lat="41.0637573" lon="9.4327367"><ele>11.25</ele><time>2026-04-30T07:00:43.742Z</time></trkpt><trkpt lat="41.0638684" lon="9.4326253"><ele>11.0</ele><time>2026-04-30T07:00:44.742Z</time></trkpt><trkpt lat="41.0639814" lon="9.4325134"><ele>11.0</ele><time>2026-04-30T07:00:45.742Z</time></trkpt><trkpt lat="41.0640938" lon="9.4323957"><ele>11.0</ele><time>2026-04-30T07:00:46.742Z</time></trkpt><trkpt lat="41.0642039" lon="9.4322825"><ele>11.0</ele><time>2026-04-30T07:00:47.742Z</time></trkpt><trkpt lat="41.0643115" lon="9.4321742"><ele>11.0</ele><time>2026-04-30T07:00:48.742Z</time></trkpt><trkpt lat="41.0644154" lon="9.4320674"><ele>10.75</ele><time>2026-04-30T07:00:49.742Z</time></trkpt><trkpt lat="41.0645135" lon="9.4319661"><ele>10.5</ele><time>2026-04-30T07:00:50.741Z</time></trkpt><trkpt lat="41.0646085" lon="9.4318708"><ele>10.25</ele><time>2026-04-30T07:00:51.742Z</time></trkpt><trkpt lat="41.064701" lon="9.4317723"><ele>10.0</ele><time>2026-04-30T07:00:52.742Z</time></trkpt><trkpt lat="41.064796" lon="9.4316751"><ele>10.0</ele><time>2026-04-30T07:00:53.742Z</time></trkpt><trkpt lat="41.0648941" lon="9.4315764"><ele>10.0</ele><time>2026-04-30T07:00:54.742Z</time></trkpt><trkpt lat="41.0649886" lon="9.431488"><ele>10.0</ele><time>2026-04-30T07:00:55.742Z</time></trkpt><trkpt lat="41.0650802" lon="9.4314098"><ele>10.0</ele><time>2026-04-30T07:00:56.742Z</time></trkpt><trkpt lat="41.0651646" lon="9.4313463"><ele>10.0</ele><time>2026-04-30T07:00:57.741Z</time></trkpt><trkpt lat="41.0652344" lon="9.4313082"><ele>10.166666666666668</ele><time>2026-04-30T07:00:58.742Z</time></trkpt><trkpt lat="41.0653522" lon="9.4312843"><ele>10.333333333333334</ele><time>2026-04-30T07:01:00.742Z</time></trkpt><trkpt lat="41.065415" lon="9.4312773"><ele>10.5</ele><time>2026-04-30T07:01:01.741Z</time></trkpt><trkpt lat="41.0654803" lon="9.4312653"><ele>10.666666666666666</ele><time>2026-04-30T07:01:02.742Z</time></trkpt><trkpt lat="41.0655976" lon="9.4312409"><ele>10.833333333333332</ele><time>2026-04-30T07:01:04.742Z</time></trkpt><trkpt lat="41.0656603" lon="9.431203"><ele>11.0</ele><time>2026-04-30T07:01:05.742Z</time></trkpt><trkpt lat="41.0657169" lon="9.4311441"><ele>11.0</ele><time>2026-04-30T07:01:06.742Z</time></trkpt><trkpt lat="41.0657627" lon="9.4310632"><ele>11.0</ele><time>2026-04-30T07:01:07.742Z</time></trkpt><trkpt lat="41.0658104" lon="9.4309606"><ele>11.0</ele><time>2026-04-30T07:01:08.741Z</time></trkpt><trkpt lat="41.0658692" lon="9.4308186"><ele>11.0</ele><time>2026-04-30T07:01:09.742Z</time></trkpt><trkpt lat="41.0659182" lon="9.430692"><ele>11.0</ele><time>2026-04-30T07:01:10.742Z</time></trkpt><trkpt lat="41.0659823" lon="9.4305614"><ele>10.5</ele><time>2026-04-30T07:01:11.742Z</time></trkpt><trkpt lat="41.0660589" lon="9.4304349"><ele>10.0</ele><time>2026-04-30T07:01:12.742Z</time></trkpt><trkpt lat="41.0661507" lon="9.4303135"><ele>9.5</ele><time>2026-04-30T07:01:13.742Z</time></trkpt><trkpt lat="41.0662581" lon="9.4301989"><ele>9.0</ele><time>2026-04-30T07:01:14.742Z</time></trkpt><trkpt lat="41.066366" lon="9.4300883"><ele>9.0</ele><time>2026-04-30T07:01:15.742Z</time></trkpt><trkpt lat="41.0664858" lon="9.4299671"><ele>9.0</ele><time>2026-04-30T07:01:16.741Z</time></trkpt><trkpt lat="41.0666147" lon="9.4298221"><ele>9.0</ele><time>2026-04-30T07:01:17.742Z</time></trkpt><trkpt lat="41.0667696" lon="9.429659"><ele>9.5</ele><time>2026-04-30T07:01:18.742Z</time></trkpt><trkpt lat="41.0669557" lon="9.4294807"><ele>10.0</ele><time>2026-04-30T07:01:19.742Z</time></trkpt><trkpt lat="41.0671437" lon="9.4293041"><ele>10.0</ele><time>2026-04-30T07:01:20.742Z</time></trkpt><trkpt lat="41.067316" lon="9.4291322"><ele>10.0</ele><time>2026-04-30T07:01:21.742Z</time></trkpt><trkpt lat="41.0674765" lon="9.4289655"><ele>10.0</ele><time>2026-04-30T07:01:22.742Z</time></trkpt><trkpt lat="41.0676254" lon="9.42881"><ele>10.0</ele><time>2026-04-30T07:01:23.742Z</time></trkpt><trkpt lat="41.067772" lon="9.4286652"><ele>10.0</ele><time>2026-04-30T07:01:24.742Z</time></trkpt><trkpt lat="41.0679091" lon="9.4285253"><ele>10.0</ele><time>2026-04-30T07:01:25.741Z</time></trkpt><trkpt lat="41.0680332" lon="9.4283787"><ele>10.0</ele><time>2026-04-30T07:01:26.742Z</time></trkpt><trkpt lat="41.0681437" lon="9.4282085"><ele>10.0</ele><time>2026-04-30T07:01:27.742Z</time></trkpt><trkpt lat="41.0682407" lon="9.4280174"><ele>10.0</ele><time>2026-04-30T07:01:28.742Z</time></trkpt><trkpt lat="41.0683249" lon="9.4278287"><ele>10.0</ele><time>2026-04-30T07:01:29.741Z</time></trkpt><trkpt lat="41.0684004" lon="9.4276492"><ele>10.0</ele><time>2026-04-30T07:01:30.742Z</time></trkpt><trkpt lat="41.0684687" lon="9.4274872"><ele>10.0</ele><time>2026-04-30T07:01:31.741Z</time></trkpt><trkpt lat="41.0685346" lon="9.4273323"><ele>10.0</ele><time>2026-04-30T07:01:32.741Z</time></trkpt><trkpt lat="41.0686012" lon="9.4271808"><ele>10.0</ele><time>2026-04-30T07:01:33.742Z</time></trkpt><trkpt lat="41.0686655" lon="9.4270364"><ele>10.0</ele><time>2026-04-30T07:01:34.742Z</time></trkpt><trkpt lat="41.0687164" lon="9.4269222"><ele>10.0</ele><time>2026-04-30T07:01:35.742Z</time></trkpt><trkpt lat="41.0687632" lon="9.4268217"><ele>10.0</ele><time>2026-04-30T07:01:36.742Z</time></trkpt><trkpt lat="41.0688023" lon="9.4267292"><ele>10.0</ele><time>2026-04-30T07:01:37.741Z</time></trkpt><trkpt lat="41.0688377" lon="9.4266477"><ele>10.0</ele><time>2026-04-30T07:01:38.742Z</time></trkpt><trkpt lat="41.0688745" lon="9.4264866"><ele>10.0</ele><time>2026-04-30T07:01:40.742Z</time></trkpt><trkpt lat="41.0688645" lon="9.4263978"><ele>10.0</ele><time>2026-04-30T07:01:41.742Z</time></trkpt><trkpt lat="41.0688243" lon="9.4263044"><ele>10.0</ele><time>2026-04-30T07:01:42.742Z</time></trkpt><trkpt lat="41.0687522" lon="9.4261949"><ele>10.0</ele><time>2026-04-30T07:01:43.742Z</time></trkpt><trkpt lat="41.0686465" lon="9.4260587"><ele>9.666666666666668</ele><time>2026-04-30T07:01:44.741Z</time></trkpt><trkpt lat="41.0685199" lon="9.425869"><ele>9.333333333333334</ele><time>2026-04-30T07:01:45.741Z</time></trkpt><trkpt lat="41.0684235" lon="9.4256908"><ele>9.0</ele><time>2026-04-30T07:01:46.742Z</time></trkpt><trkpt lat="41.0683464" lon="9.4255143"><ele>9.0</ele><time>2026-04-30T07:01:47.742Z</time></trkpt><trkpt lat="41.0682905" lon="9.4253279"><ele>9.0</ele><time>2026-04-30T07:01:48.742Z</time></trkpt><trkpt lat="41.0682685" lon="9.4251231"><ele>9.0</ele><time>2026-04-30T07:01:49.742Z</time></trkpt><trkpt lat="41.0682726" lon="9.4248931"><ele>8.666666666666666</ele><time>2026-04-30T07:01:50.742Z</time></trkpt><trkpt lat="41.0682993" lon="9.4246392"><ele>8.333333333333332</ele><time>2026-04-30T07:01:51.742Z</time></trkpt><trkpt lat="41.068332" lon="9.4243523"><ele>8.0</ele><time>2026-04-30T07:01:52.742Z</time></trkpt><trkpt lat="41.0683706" lon="9.4240297"><ele>7.5</ele><time>2026-04-30T07:01:53.741Z</time></trkpt><trkpt lat="41.0684118" lon="9.423688"><ele>7.0</ele><time>2026-04-30T07:01:54.741Z</time></trkpt><trkpt lat="41.0684516" lon="9.4233436"><ele>7.0</ele><time>2026-04-30T07:01:55.742Z</time></trkpt><trkpt lat="41.0684911" lon="9.4230043"><ele>7.0</ele><time>2026-04-30T07:01:56.742Z</time></trkpt><trkpt lat="41.0685347" lon="9.4226446"><ele>7.0</ele><time>2026-04-30T07:01:57.742Z</time></trkpt><trkpt lat="41.0685806" lon="9.4222707"><ele>7.0</ele><time>2026-04-30T07:01:58.742Z</time></trkpt><trkpt lat="41.0686259" lon="9.4218844"><ele>7.0</ele><time>2026-04-30T07:01:59.742Z</time></trkpt><trkpt lat="41.068671" lon="9.4214922"><ele>7.0</ele><time>2026-04-30T07:02:00.741Z</time></trkpt><trkpt lat="41.0687142" lon="9.4211221"><ele>7.5</ele><time>2026-04-30T07:02:01.742Z</time></trkpt><trkpt lat="41.0687567" lon="9.4207728"><ele>8.0</ele><time>2026-04-30T07:02:02.741Z</time></trkpt><trkpt lat="41.0688014" lon="9.4204449"><ele>9.5</ele><time>2026-04-30T07:02:03.742Z</time></trkpt><trkpt lat="41.0688497" lon="9.4201412"><ele>11.0</ele><time>2026-04-30T07:02:04.742Z</time></trkpt><trkpt lat="41.0688953" lon="9.4198613"><ele>10.666666666666666</ele><time>2026-04-30T07:02:05.742Z</time></trkpt><trkpt lat="41.0689317" lon="9.4196013"><ele>10.333333333333334</ele><time>2026-04-30T07:02:06.742Z</time></trkpt><trkpt lat="41.0689621" lon="9.4193695"><ele>10.0</ele><time>2026-04-30T07:02:07.741Z</time></trkpt><trkpt lat="41.0689986" lon="9.419164"><ele>10.0</ele><time>2026-04-30T07:02:08.742Z</time></trkpt><trkpt lat="41.069044" lon="9.419"><ele>10.0</ele><time>2026-04-30T07:02:09.742Z</time></trkpt><trkpt lat="41.0690998" lon="9.4188738"><ele>10.0</ele><time>2026-04-30T07:02:10.742Z</time></trkpt><trkpt lat="41.0691714" lon="9.4187661"><ele>10.0</ele><time>2026-04-30T07:02:11.742Z</time></trkpt><trkpt lat="41.0692585" lon="9.4186754"><ele>11.0</ele><time>2026-04-30T07:02:12.742Z</time></trkpt><trkpt lat="41.0693583" lon="9.4186176"><ele>12.0</ele><time>2026-04-30T07:02:13.742Z</time></trkpt><trkpt lat="41.069463" lon="9.4185891"><ele>13.0</ele><time>2026-04-30T07:02:14.742Z</time></trkpt><trkpt lat="41.069581" lon="9.4185991"><ele>14.0</ele><time>2026-04-30T07:02:15.742Z</time></trkpt><trkpt lat="41.0697029" lon="9.4186494"><ele>14.0</ele><time>2026-04-30T07:02:16.742Z</time></trkpt><trkpt lat="41.0698182" lon="9.4187429"><ele>14.0</ele><time>2026-04-30T07:02:17.742Z</time></trkpt><trkpt lat="41.0699276" lon="9.4188766"><ele>14.0</ele><time>2026-04-30T07:02:18.742Z</time></trkpt><trkpt lat="41.0700363" lon="9.4190432"><ele>15.0</ele><time>2026-04-30T07:02:19.741Z</time></trkpt><trkpt lat="41.0701518" lon="9.4192372"><ele>16.0</ele><time>2026-04-30T07:02:20.742Z</time></trkpt><trkpt lat="41.0702728" lon="9.4194617"><ele>17.0</ele><time>2026-04-30T07:02:21.742Z</time></trkpt><trkpt lat="41.0703848" lon="9.4196955"><ele>17.0</ele><time>2026-04-30T07:02:22.742Z</time></trkpt><trkpt lat="41.0704764" lon="9.4199166"><ele>17.0</ele><time>2026-04-30T07:02:23.742Z</time></trkpt><trkpt lat="41.0705601" lon="9.4201237"><ele>17.0</ele><time>2026-04-30T07:02:24.742Z</time></trkpt><trkpt lat="41.0706335" lon="9.4203214"><ele>15.666666666666668</ele><time>2026-04-30T07:02:25.742Z</time></trkpt><trkpt lat="41.0707099" lon="9.4205194"><ele>14.333333333333332</ele><time>2026-04-30T07:02:26.742Z</time></trkpt><trkpt lat="41.0707834" lon="9.4207223"><ele>13.0</ele><time>2026-04-30T07:02:27.742Z</time></trkpt><trkpt lat="41.0708609" lon="9.420942"><ele>14.666666666666666</ele><time>2026-04-30T07:02:28.742Z</time></trkpt><trkpt lat="41.0709445" lon="9.4211731"><ele>16.333333333333332</ele><time>2026-04-30T07:02:29.742Z</time></trkpt><trkpt lat="41.0710363" lon="9.4214154"><ele>18.0</ele><time>2026-04-30T07:02:30.742Z</time></trkpt><trkpt lat="41.0711357" lon="9.4216657"><ele>18.0</ele><time>2026-04-30T07:02:31.742Z</time></trkpt><trkpt lat="41.0712464" lon="9.4219265"><ele>18.0</ele><time>2026-04-30T07:02:32.742Z</time></trkpt><trkpt lat="41.0713637" lon="9.4221932"><ele>16.5</ele><time>2026-04-30T07:02:33.742Z</time></trkpt><trkpt lat="41.0714866" lon="9.4224659"><ele>15.0</ele><time>2026-04-30T07:02:34.742Z</time></trkpt><trkpt lat="41.0716048" lon="9.4227342"><ele>15.0</ele><time>2026-04-30T07:02:35.742Z</time></trkpt><trkpt lat="41.0717176" lon="9.4229875"><ele>15.0</ele><time>2026-04-30T07:02:36.742Z</time></trkpt><trkpt lat="41.0718265" lon="9.4232308"><ele>15.0</ele><time>2026-04-30T07:02:37.742Z</time></trkpt><trkpt lat="41.0719336" lon="9.42347"><ele>15.0</ele><time>2026-04-30T07:02:38.742Z</time></trkpt><trkpt lat="41.0720387" lon="9.4237109"><ele>15.0</ele><time>2026-04-30T07:02:39.742Z</time></trkpt><trkpt lat="41.0721448" lon="9.4239506"><ele>15.0</ele><time>2026-04-30T07:02:40.742Z</time></trkpt><trkpt lat="41.0722451" lon="9.4241814"><ele>14.0</ele><time>2026-04-30T07:02:41.741Z</time></trkpt><trkpt lat="41.0723424" lon="9.4244017"><ele>13.0</ele><time>2026-04-30T07:02:42.741Z</time></trkpt><trkpt lat="41.0724369" lon="9.4246183"><ele>12.0</ele><time>2026-04-30T07:02:43.742Z</time></trkpt><trkpt lat="41.0725313" lon="9.4248395"><ele>12.0</ele><time>2026-04-30T07:02:44.741Z</time></trkpt><trkpt lat="41.0726312" lon="9.4250656"><ele>12.0</ele><time>2026-04-30T07:02:45.742Z</time></trkpt><trkpt lat="41.0727398" lon="9.425288"><ele>12.0</ele><time>2026-04-30T07:02:46.742Z</time></trkpt><trkpt lat="41.072862" lon="9.4255122"><ele>10.666666666666666</ele><time>2026-04-30T07:02:47.742Z</time></trkpt><trkpt lat="41.0729865" lon="9.4257255"><ele>9.333333333333332</ele><time>2026-04-30T07:02:48.742Z</time></trkpt><trkpt lat="41.0731146" lon="9.425924"><ele>8.0</ele><time>2026-04-30T07:02:49.741Z</time></trkpt><trkpt lat="41.0732442" lon="9.4261087"><ele>8.333333333333332</ele><time>2026-04-30T07:02:50.742Z</time></trkpt><trkpt lat="41.0733795" lon="9.4262878"><ele>8.666666666666666</ele><time>2026-04-30T07:02:51.742Z</time></trkpt><trkpt lat="41.0735162" lon="9.426454"><ele>9.0</ele><time>2026-04-30T07:02:52.742Z</time></trkpt><trkpt lat="41.0736502" lon="9.4266064"><ele>9.0</ele><time>2026-04-30T07:02:53.742Z</time></trkpt><trkpt lat="41.0737836" lon="9.4267507"><ele>9.0</ele><time>2026-04-30T07:02:54.742Z</time></trkpt><trkpt lat="41.073915" lon="9.4268872"><ele>9.0</ele><time>2026-04-30T07:02:55.741Z</time></trkpt><trkpt lat="41.0740397" lon="9.4270098"><ele>9.75</ele><time>2026-04-30T07:02:56.742Z</time></trkpt><trkpt lat="41.0741563" lon="9.4271212"><ele>10.5</ele><time>2026-04-30T07:02:57.742Z</time></trkpt><trkpt lat="41.0742646" lon="9.4272234"><ele>11.25</ele><time>2026-04-30T07:02:58.742Z</time></trkpt><trkpt lat="41.0743789" lon="9.4273317"><ele>12.0</ele><time>2026-04-30T07:02:59.742Z</time></trkpt><trkpt lat="41.0744944" lon="9.4274436"><ele>12.0</ele><time>2026-04-30T07:03:00.742Z</time></trkpt><trkpt lat="41.0746182" lon="9.4275636"><ele>12.0</ele><time>2026-04-30T07:03:01.742Z</time></trkpt><trkpt lat="41.0747528" lon="9.4276948"><ele>12.0</ele><time>2026-04-30T07:03:02.742Z</time></trkpt><trkpt lat="41.0748864" lon="9.4278314"><ele>12.666666666666668</ele><time>2026-04-30T07:03:03.742Z</time></trkpt><trkpt lat="41.0750222" lon="9.4279817"><ele>13.333333333333334</ele><time>2026-04-30T07:03:04.742Z</time></trkpt><trkpt lat="41.0751663" lon="9.4281431"><ele>14.0</ele><time>2026-04-30T07:03:05.742Z</time></trkpt><trkpt lat="41.0753186" lon="9.4283158"><ele>14.0</ele><time>2026-04-30T07:03:06.741Z</time></trkpt><trkpt lat="41.0754746" lon="9.4285055"><ele>14.0</ele><time>2026-04-30T07:03:07.742Z</time></trkpt><trkpt lat="41.0756388" lon="9.4287113"><ele>14.0</ele><time>2026-04-30T07:03:08.742Z</time></trkpt><trkpt lat="41.0758144" lon="9.4289232"><ele>13.5</ele><time>2026-04-30T07:03:09.742Z</time></trkpt><trkpt lat="41.0759932" lon="9.4291351"><ele>13.0</ele><time>2026-04-30T07:03:10.742Z</time></trkpt><trkpt lat="41.0761745" lon="9.4293404"><ele>13.0</ele><time>2026-04-30T07:03:11.742Z</time></trkpt><trkpt lat="41.0763664" lon="9.4295334"><ele>13.0</ele><time>2026-04-30T07:03:12.741Z</time></trkpt><trkpt lat="41.0765706" lon="9.4297069"><ele>13.0</ele><time>2026-04-30T07:03:13.741Z</time></trkpt><trkpt lat="41.0767838" lon="9.4298664"><ele>13.0</ele><time>2026-04-30T07:03:14.741Z</time></trkpt><trkpt lat="41.0770095" lon="9.4300214"><ele>13.0</ele><time>2026-04-30T07:03:15.742Z</time></trkpt><trkpt lat="41.0772437" lon="9.4301703"><ele>13.0</ele><time>2026-04-30T07:03:16.742Z</time></trkpt><trkpt lat="41.0774818" lon="9.4303226"><ele>12.0</ele><time>2026-04-30T07:03:17.741Z</time></trkpt><trkpt lat="41.077717" lon="9.4304772"><ele>11.0</ele><time>2026-04-30T07:03:18.742Z</time></trkpt><trkpt lat="41.0779412" lon="9.4306192"><ele>11.0</ele><time>2026-04-30T07:03:19.742Z</time></trkpt><trkpt lat="41.0781652" lon="9.430742"><ele>11.0</ele><time>2026-04-30T07:03:20.741Z</time></trkpt><trkpt lat="41.0783952" lon="9.4308417"><ele>13.0</ele><time>2026-04-30T07:03:21.742Z</time></trkpt><trkpt lat="41.0786317" lon="9.4309184"><ele>15.0</ele><time>2026-04-30T07:03:22.741Z</time></trkpt><trkpt lat="41.0788749" lon="9.4309799"><ele>16.5</ele><time>2026-04-30T07:03:23.742Z</time></trkpt><trkpt lat="41.0791248" lon="9.431035"><ele>18.0</ele><time>2026-04-30T07:03:24.741Z</time></trkpt><trkpt lat="41.0793801" lon="9.4310886"><ele>18.0</ele><time>2026-04-30T07:03:25.742Z</time></trkpt><trkpt lat="41.0796319" lon="9.4311461"><ele>18.0</ele><time>2026-04-30T07:03:26.742Z</time></trkpt><trkpt lat="41.0798786" lon="9.4312165"><ele>16.5</ele><time>2026-04-30T07:03:27.742Z</time></trkpt><trkpt lat="41.0801196" lon="9.4313014"><ele>15.0</ele><time>2026-04-30T07:03:28.741Z</time></trkpt><trkpt lat="41.0803625" lon="9.4314"><ele>15.0</ele><time>2026-04-30T07:03:29.742Z</time></trkpt><trkpt lat="41.0805988" lon="9.4315131"><ele>15.0</ele><time>2026-04-30T07:03:30.742Z</time></trkpt><trkpt lat="41.0808379" lon="9.4316353"><ele>16.5</ele><time>2026-04-30T07:03:31.741Z</time></trkpt><trkpt lat="41.0810812" lon="9.4317629"><ele>18.0</ele><time>2026-04-30T07:03:32.742Z</time></trkpt><trkpt lat="41.0813151" lon="9.431888"><ele>18.0</ele><time>2026-04-30T07:03:33.742Z</time></trkpt><trkpt lat="41.0815468" lon="9.4320103"><ele>18.0</ele><time>2026-04-30T07:03:34.742Z</time></trkpt><trkpt lat="41.0817757" lon="9.4321396"><ele>16.0</ele><time>2026-04-30T07:03:35.742Z</time></trkpt><trkpt lat="41.081998" lon="9.4322766"><ele>14.0</ele><time>2026-04-30T07:03:36.742Z</time></trkpt><trkpt lat="41.0822193" lon="9.4324272"><ele>16.0</ele><time>2026-04-30T07:03:37.742Z</time></trkpt><trkpt lat="41.0824393" lon="9.4325932"><ele>18.0</ele><time>2026-04-30T07:03:38.742Z</time></trkpt><trkpt lat="41.0826591" lon="9.4327619"><ele>18.0</ele><time>2026-04-30T07:03:39.742Z</time></trkpt><trkpt lat="41.0828763" lon="9.432935"><ele>18.0</ele><time>2026-04-30T07:03:40.742Z</time></trkpt><trkpt lat="41.0830892" lon="9.4331071"><ele>15.5</ele><time>2026-04-30T07:03:41.742Z</time></trkpt><trkpt lat="41.0833004" lon="9.4332794"><ele>13.0</ele><time>2026-04-30T07:03:42.741Z</time></trkpt><trkpt lat="41.0835058" lon="9.433449"><ele>13.0</ele><time>2026-04-30T07:03:43.742Z</time></trkpt><trkpt lat="41.0837011" lon="9.433612"><ele>13.0</ele><time>2026-04-30T07:03:44.741Z</time></trkpt><trkpt lat="41.0838827" lon="9.433764"><ele>13.0</ele><time>2026-04-30T07:03:45.741Z</time></trkpt><trkpt lat="41.0840584" lon="9.4339001"><ele>13.0</ele><time>2026-04-30T07:03:46.742Z</time></trkpt><trkpt lat="41.0842298" lon="9.4340117"><ele>13.0</ele><time>2026-04-30T07:03:47.742Z</time></trkpt><trkpt lat="41.0843942" lon="9.4340937"><ele>13.0</ele><time>2026-04-30T07:03:48.742Z</time></trkpt><trkpt lat="41.0845635" lon="9.4341441"><ele>13.0</ele><time>2026-04-30T07:03:49.741Z</time></trkpt><trkpt lat="41.0847459" lon="9.4341738"><ele>13.0</ele><time>2026-04-30T07:03:50.742Z</time></trkpt><trkpt lat="41.0849399" lon="9.4341804"><ele>13.0</ele><time>2026-04-30T07:03:51.742Z</time></trkpt><trkpt lat="41.0851406" lon="9.4341729"><ele>13.0</ele><time>2026-04-30T07:03:52.742Z</time></trkpt><trkpt lat="41.0853493" lon="9.4341586"><ele>13.0</ele><time>2026-04-30T07:03:53.742Z</time></trkpt><trkpt lat="41.0855695" lon="9.4341383"><ele>13.0</ele><time>2026-04-30T07:03:54.742Z</time></trkpt><trkpt lat="41.0857952" lon="9.434116"><ele>13.333333333333332</ele><time>2026-04-30T07:03:55.741Z</time></trkpt><trkpt lat="41.0860193" lon="9.4340991"><ele>13.666666666666668</ele><time>2026-04-30T07:03:56.742Z</time></trkpt><trkpt lat="41.0862314" lon="9.4340802"><ele>14.0</ele><time>2026-04-30T07:03:57.741Z</time></trkpt><trkpt lat="41.0864352" lon="9.4340629"><ele>13.0</ele><time>2026-04-30T07:03:58.742Z</time></trkpt><trkpt lat="41.0866287" lon="9.4340432"><ele>12.0</ele><time>2026-04-30T07:03:59.742Z</time></trkpt><trkpt lat="41.0868235" lon="9.4340239"><ele>11.0</ele><time>2026-04-30T07:04:00.742Z</time></trkpt><trkpt lat="41.0870189" lon="9.4340089"><ele>11.0</ele><time>2026-04-30T07:04:01.742Z</time></trkpt><trkpt lat="41.0872176" lon="9.4340098"><ele>11.0</ele><time>2026-04-30T07:04:02.742Z</time></trkpt><trkpt lat="41.0874109" lon="9.434033"><ele>11.0</ele><time>2026-04-30T07:04:03.741Z</time></trkpt><trkpt lat="41.0875998" lon="9.434084"><ele>11.0</ele><time>2026-04-30T07:04:04.742Z</time></trkpt><trkpt lat="41.0877852" lon="9.4341572"><ele>11.0</ele><time>2026-04-30T07:04:05.742Z</time></trkpt><trkpt lat="41.0879672" lon="9.4342513"><ele>11.0</ele><time>2026-04-30T07:04:06.742Z</time></trkpt><trkpt lat="41.0881496" lon="9.4343593"><ele>11.0</ele><time>2026-04-30T07:04:07.742Z</time></trkpt><trkpt lat="41.088338" lon="9.4344764"><ele>11.0</ele><time>2026-04-30T07:04:08.742Z</time></trkpt><trkpt lat="41.0885141" lon="9.4345883"><ele>11.0</ele><time>2026-04-30T07:04:09.742Z</time></trkpt><trkpt lat="41.0886834" lon="9.4346945"><ele>11.666666666666666</ele><time>2026-04-30T07:04:10.742Z</time></trkpt><trkpt lat="41.0888485" lon="9.4347978"><ele>12.333333333333332</ele><time>2026-04-30T07:04:11.742Z</time></trkpt><trkpt lat="41.089016" lon="9.4349023"><ele>13.0</ele><time>2026-04-30T07:04:12.742Z</time></trkpt><trkpt lat="41.0891886" lon="9.4350015"><ele>13.0</ele><time>2026-04-30T07:04:13.742Z</time></trkpt><trkpt lat="41.0893723" lon="9.4350972"><ele>13.0</ele><time>2026-04-30T07:04:14.742Z</time></trkpt><trkpt lat="41.0895667" lon="9.4351897"><ele>13.0</ele><time>2026-04-30T07:04:15.742Z</time></trkpt><trkpt lat="41.0897673" lon="9.4352791"><ele>13.333333333333332</ele><time>2026-04-30T07:04:16.742Z</time></trkpt><trkpt lat="41.0899723" lon="9.4353636"><ele>13.666666666666668</ele><time>2026-04-30T07:04:17.742Z</time></trkpt><trkpt lat="41.0901821" lon="9.4354448"><ele>14.0</ele><time>2026-04-30T07:04:18.742Z</time></trkpt><trkpt lat="41.0903925" lon="9.4355242"><ele>14.0</ele><time>2026-04-30T07:04:19.741Z</time></trkpt><trkpt lat="41.0906055" lon="9.4356062"><ele>14.0</ele><time>2026-04-30T07:04:20.742Z</time></trkpt><trkpt lat="41.0908204" lon="9.4356854"><ele>14.0</ele><time>2026-04-30T07:04:21.741Z</time></trkpt><trkpt lat="41.0910335" lon="9.4357644"><ele>13.666666666666668</ele><time>2026-04-30T07:04:22.742Z</time></trkpt><trkpt lat="41.0912457" lon="9.4358436"><ele>13.333333333333332</ele><time>2026-04-30T07:04:23.742Z</time></trkpt><trkpt lat="41.0914583" lon="9.4359229"><ele>13.0</ele><time>2026-04-30T07:04:24.742Z</time></trkpt><trkpt lat="41.0916642" lon="9.4359992"><ele>12.333333333333332</ele><time>2026-04-30T07:04:25.741Z</time></trkpt><trkpt lat="41.0918633" lon="9.4360748"><ele>11.666666666666666</ele><time>2026-04-30T07:04:26.742Z</time></trkpt><trkpt lat="41.0920562" lon="9.436149"><ele>11.0</ele><time>2026-04-30T07:04:27.742Z</time></trkpt><trkpt lat="41.0922467" lon="9.4362194"><ele>11.0</ele><time>2026-04-30T07:04:28.742Z</time></trkpt><trkpt lat="41.0924354" lon="9.4362909"><ele>11.0</ele><time>2026-04-30T07:04:29.742Z</time></trkpt><trkpt lat="41.0926244" lon="9.4363634"><ele>11.0</ele><time>2026-04-30T07:04:30.742Z</time></trkpt><trkpt lat="41.092811" lon="9.4364356"><ele>11.333333333333332</ele><time>2026-04-30T07:04:31.742Z</time></trkpt><trkpt lat="41.0929918" lon="9.4365023"><ele>11.666666666666666</ele><time>2026-04-30T07:04:32.742Z</time></trkpt><trkpt lat="41.0931702" lon="9.4365656"><ele>12.0</ele><time>2026-04-30T07:04:33.741Z</time></trkpt><trkpt lat="41.0933517" lon="9.4366245"><ele>13.0</ele><time>2026-04-30T07:04:34.742Z</time></trkpt><trkpt lat="41.0935358" lon="9.4366758"><ele>14.0</ele><time>2026-04-30T07:04:35.741Z</time></trkpt><trkpt lat="41.0937215" lon="9.4367209"><ele>15.0</ele><time>2026-04-30T07:04:36.742Z</time></trkpt><trkpt lat="41.0939096" lon="9.4367552"><ele>14.666666666666668</ele><time>2026-04-30T07:04:37.742Z</time></trkpt><trkpt lat="41.0941009" lon="9.4367754"><ele>14.333333333333334</ele><time>2026-04-30T07:04:38.742Z</time></trkpt><trkpt lat="41.094295" lon="9.4367866"><ele>14.0</ele><time>2026-04-30T07:04:39.742Z</time></trkpt><trkpt lat="41.094492" lon="9.4367902"><ele>14.0</ele><time>2026-04-30T07:04:40.742Z</time></trkpt><trkpt lat="41.0946906" lon="9.4367886"><ele>14.0</ele><time>2026-04-30T07:04:41.742Z</time></trkpt><trkpt lat="41.0948837" lon="9.4367792"><ele>14.0</ele><time>2026-04-30T07:04:42.741Z</time></trkpt><trkpt lat="41.0950722" lon="9.4367648"><ele>13.0</ele><time>2026-04-30T07:04:43.741Z</time></trkpt><trkpt lat="41.0952652" lon="9.4367488"><ele>12.0</ele><time>2026-04-30T07:04:44.742Z</time></trkpt><trkpt lat="41.0954622" lon="9.4367315"><ele>11.0</ele><time>2026-04-30T07:04:45.742Z</time></trkpt><trkpt lat="41.0956615" lon="9.4367126"><ele>11.333333333333332</ele><time>2026-04-30T07:04:46.742Z</time></trkpt><trkpt lat="41.0958654" lon="9.4366913"><ele>11.666666666666666</ele><time>2026-04-30T07:04:47.741Z</time></trkpt><trkpt lat="41.0960743" lon="9.4366727"><ele>12.0</ele><time>2026-04-30T07:04:48.741Z</time></trkpt><trkpt lat="41.0962822" lon="9.4366516"><ele>12.0</ele><time>2026-04-30T07:04:49.741Z</time></trkpt><trkpt lat="41.0964869" lon="9.4366343"><ele>12.0</ele><time>2026-04-30T07:04:50.742Z</time></trkpt><trkpt lat="41.0966823" lon="9.4366176"><ele>12.0</ele><time>2026-04-30T07:04:51.742Z</time></trkpt><trkpt lat="41.0968776" lon="9.4365994"><ele>11.666666666666666</ele><time>2026-04-30T07:04:52.742Z</time></trkpt><trkpt lat="41.0970759" lon="9.436587"><ele>11.333333333333332</ele><time>2026-04-30T07:04:53.742Z</time></trkpt><trkpt lat="41.0972752" lon="9.4365766"><ele>11.0</ele><time>2026-04-30T07:04:54.741Z</time></trkpt><trkpt lat="41.0974779" lon="9.4365779"><ele>11.0</ele><time>2026-04-30T07:04:55.742Z</time></trkpt><trkpt lat="41.0976846" lon="9.4365911"><ele>11.0</ele><time>2026-04-30T07:04:56.742Z</time></trkpt><trkpt lat="41.0978962" lon="9.4366247"><ele>11.0</ele><time>2026-04-30T07:04:57.742Z</time></trkpt><trkpt lat="41.0981111" lon="9.436673"><ele>10.666666666666666</ele><time>2026-04-30T07:04:58.741Z</time></trkpt><trkpt lat="41.0983256" lon="9.4367326"><ele>10.333333333333334</ele><time>2026-04-30T07:04:59.742Z</time></trkpt><trkpt lat="41.0985487" lon="9.4367988"><ele>10.0</ele><time>2026-04-30T07:05:00.742Z</time></trkpt><trkpt lat="41.0987746" lon="9.4368654"><ele>10.0</ele><time>2026-04-30T07:05:01.742Z</time></trkpt><trkpt lat="41.0989954" lon="9.4369327"><ele>10.0</ele><time>2026-04-30T07:05:02.742Z</time></trkpt><trkpt lat="41.0992106" lon="9.4370008"><ele>10.0</ele><time>2026-04-30T07:05:03.741Z</time></trkpt><trkpt lat="41.0994212" lon="9.4370631"><ele>9.666666666666668</ele><time>2026-04-30T07:05:04.742Z</time></trkpt><trkpt lat="41.0996259" lon="9.4371315"><ele>9.333333333333334</ele><time>2026-04-30T07:05:05.742Z</time></trkpt><trkpt lat="41.099824" lon="9.4371933"><ele>9.0</ele><time>2026-04-30T07:05:06.742Z</time></trkpt><trkpt lat="41.1000238" lon="9.4372554"><ele>9.0</ele><time>2026-04-30T07:05:07.742Z</time></trkpt><trkpt lat="41.1002225" lon="9.4373142"><ele>9.0</ele><time>2026-04-30T07:05:08.741Z</time></trkpt><trkpt lat="41.1004237" lon="9.437375"><ele>9.0</ele><time>2026-04-30T07:05:09.742Z</time></trkpt><trkpt lat="41.1006266" lon="9.4374373"><ele>9.666666666666666</ele><time>2026-04-30T07:05:10.742Z</time></trkpt><trkpt lat="41.1008318" lon="9.437501"><ele>10.333333333333332</ele><time>2026-04-30T07:05:11.742Z</time></trkpt><trkpt lat="41.1010458" lon="9.4375624"><ele>11.0</ele><time>2026-04-30T07:05:12.741Z</time></trkpt><trkpt lat="41.1012658" lon="9.4376264"><ele>11.0</ele><time>2026-04-30T07:05:13.742Z</time></trkpt><trkpt lat="41.1014761" lon="9.4376839"><ele>11.0</ele><time>2026-04-30T07:05:14.742Z</time></trkpt><trkpt lat="41.101672" lon="9.4377393"><ele>11.0</ele><time>2026-04-30T07:05:15.742Z</time></trkpt><trkpt lat="41.1018541" lon="9.4377935"><ele>9.666666666666666</ele><time>2026-04-30T07:05:16.742Z</time></trkpt><trkpt lat="41.1020355" lon="9.4378484"><ele>8.333333333333334</ele><time>2026-04-30T07:05:17.742Z</time></trkpt><trkpt lat="41.1022185" lon="9.4379046"><ele>7.0</ele><time>2026-04-30T07:05:18.741Z</time></trkpt><trkpt lat="41.1024022" lon="9.4379572"><ele>7.0</ele><time>2026-04-30T07:05:19.742Z</time></trkpt><trkpt lat="41.1025801" lon="9.438002"><ele>7.0</ele><time>2026-04-30T07:05:20.742Z</time></trkpt><trkpt lat="41.10275" lon="9.4380501"><ele>7.0</ele><time>2026-04-30T07:05:21.742Z</time></trkpt><trkpt lat="41.1029117" lon="9.4380941"><ele>7.0</ele><time>2026-04-30T07:05:22.742Z</time></trkpt><trkpt lat="41.103058" lon="9.4381369"><ele>7.0</ele><time>2026-04-30T07:05:23.742Z</time></trkpt><trkpt lat="41.103194" lon="9.4381759"><ele>7.0</ele><time>2026-04-30T07:05:24.742Z</time></trkpt><trkpt lat="41.1033302" lon="9.4382144"><ele>7.0</ele><time>2026-04-30T07:05:25.742Z</time></trkpt><trkpt lat="41.1034718" lon="9.4382524"><ele>6.75</ele><time>2026-04-30T07:05:26.742Z</time></trkpt><trkpt lat="41.1036077" lon="9.4382887"><ele>6.5</ele><time>2026-04-30T07:05:27.742Z</time></trkpt><trkpt lat="41.1037429" lon="9.438327"><ele>6.25</ele><time>2026-04-30T07:05:28.741Z</time></trkpt><trkpt lat="41.103871" lon="9.438366"><ele>6.0</ele><time>2026-04-30T07:05:29.742Z</time></trkpt><trkpt lat="41.1039932" lon="9.438398"><ele>6.199999999999999</ele><time>2026-04-30T07:05:30.741Z</time></trkpt><trkpt lat="41.104107" lon="9.4384219"><ele>6.3999999999999995</ele><time>2026-04-30T07:05:31.742Z</time></trkpt><trkpt lat="41.1042067" lon="9.4384385"><ele>6.6</ele><time>2026-04-30T07:05:32.741Z</time></trkpt><trkpt lat="41.1042992" lon="9.4384504"><ele>6.8</ele><time>2026-04-30T07:05:33.742Z</time></trkpt><trkpt lat="41.1043882" lon="9.4384589"><ele>7.0</ele><time>2026-04-30T07:05:34.741Z</time></trkpt><trkpt lat="41.1044779" lon="9.4384651"><ele>7.0</ele><time>2026-04-30T07:05:35.742Z</time></trkpt><trkpt lat="41.1045729" lon="9.438473"><ele>6.999999999999999</ele><time>2026-04-30T07:05:36.742Z</time></trkpt><trkpt lat="41.1046679" lon="9.4384793"><ele>6.999999999999999</ele><time>2026-04-30T07:05:37.742Z</time></trkpt><trkpt lat="41.1047646" lon="9.4384902"><ele>7.0</ele><time>2026-04-30T07:05:38.742Z</time></trkpt><trkpt lat="41.1048536" lon="9.4384972"><ele>7.0</ele><time>2026-04-30T07:05:39.742Z</time></trkpt><trkpt lat="41.1049311" lon="9.4384999"><ele>7.333333333333334</ele><time>2026-04-30T07:05:40.742Z</time></trkpt><trkpt lat="41.1049973" lon="9.4385048"><ele>7.666666666666667</ele><time>2026-04-30T07:05:41.742Z</time></trkpt><trkpt lat="41.1050608" lon="9.4385061"><ele>8.0</ele><time>2026-04-30T07:05:42.742Z</time></trkpt><trkpt lat="41.1051849" lon="9.4385123"><ele>8.333333333333334</ele><time>2026-04-30T07:05:44.742Z</time></trkpt><trkpt lat="41.1052517" lon="9.4385178"><ele>8.666666666666666</ele><time>2026-04-30T07:05:45.741Z</time></trkpt><trkpt lat="41.1053208" lon="9.4385233"><ele>9.0</ele><time>2026-04-30T07:05:46.742Z</time></trkpt><trkpt lat="41.1053933" lon="9.438529"><ele>9.0</ele><time>2026-04-30T07:05:47.742Z</time></trkpt><trkpt lat="41.1054651" lon="9.4385336"><ele>9.0</ele><time>2026-04-30T07:05:48.742Z</time></trkpt><trkpt lat="41.105535" lon="9.4385381"><ele>9.0</ele><time>2026-04-30T07:05:49.742Z</time></trkpt><trkpt lat="41.1056016" lon="9.4385447"><ele>9.0</ele><time>2026-04-30T07:05:50.742Z</time></trkpt><trkpt lat="41.1057228" lon="9.438557"><ele>9.0</ele><time>2026-04-30T07:05:52.742Z</time></trkpt><trkpt lat="41.1058439" lon="9.4385694"><ele>9.142857142857144</ele><time>2026-04-30T07:05:54.742Z</time></trkpt><trkpt lat="41.1059095" lon="9.4385716"><ele>9.285714285714286</ele><time>2026-04-30T07:05:55.742Z</time></trkpt><trkpt lat="41.1059771" lon="9.4385725"><ele>9.428571428571429</ele><time>2026-04-30T07:05:56.741Z</time></trkpt><trkpt lat="41.1060488" lon="9.4385771"><ele>9.571428571428573</ele><time>2026-04-30T07:05:57.742Z</time></trkpt><trkpt lat="41.1061174" lon="9.4385829"><ele>9.714285714285715</ele><time>2026-04-30T07:05:58.741Z</time></trkpt><trkpt lat="41.1061861" lon="9.4385911"><ele>9.857142857142858</ele><time>2026-04-30T07:05:59.741Z</time></trkpt><trkpt lat="41.1062526" lon="9.4385979"><ele>10.0</ele><time>2026-04-30T07:06:00.742Z</time></trkpt><trkpt lat="41.1063167" lon="9.4386058"><ele>10.0</ele><time>2026-04-30T07:06:01.742Z</time></trkpt><trkpt lat="41.1064371" lon="9.4386171"><ele>10.0</ele><time>2026-04-30T07:06:03.742Z</time></trkpt><trkpt lat="41.1065541" lon="9.4386303"><ele>10.0</ele><time>2026-04-30T07:06:05.742Z</time></trkpt><trkpt lat="41.1066205" lon="9.4386362"><ele>10.0</ele><time>2026-04-30T07:06:06.742Z</time></trkpt><trkpt lat="41.1067432" lon="9.438642"><ele>10.0</ele><time>2026-04-30T07:06:08.742Z</time></trkpt><trkpt lat="41.1068607" lon="9.4386504"><ele>10.0</ele><time>2026-04-30T07:06:10.742Z</time></trkpt><trkpt lat="41.106925" lon="9.4386557"><ele>10.0</ele><time>2026-04-30T07:06:11.742Z</time></trkpt><trkpt lat="41.1070468" lon="9.438667"><ele>10.0</ele><time>2026-04-30T07:06:13.742Z</time></trkpt><trkpt lat="41.1071524" lon="9.43867"><ele>10.0</ele><time>2026-04-30T07:06:15.742Z</time></trkpt><trkpt lat="41.1072416" lon="9.4386753"><ele>10.0</ele><time>2026-04-30T07:06:17.742Z</time></trkpt><trkpt lat="41.1073556" lon="9.4386795"><ele>9.833333333333334</ele><time>2026-04-30T07:06:19.741Z</time></trkpt><trkpt lat="41.1074226" lon="9.4386851"><ele>9.666666666666668</ele><time>2026-04-30T07:06:20.741Z</time></trkpt><trkpt lat="41.1074906" lon="9.4386882"><ele>9.5</ele><time>2026-04-30T07:06:21.742Z</time></trkpt><trkpt lat="41.1075566" lon="9.4386944"><ele>9.333333333333334</ele><time>2026-04-30T07:06:22.742Z</time></trkpt><trkpt lat="41.1076756" lon="9.4387012"><ele>9.166666666666666</ele><time>2026-04-30T07:06:24.742Z</time></trkpt><trkpt lat="41.1077827" lon="9.4387102"><ele>9.0</ele><time>2026-04-30T07:06:26.742Z</time></trkpt><trkpt lat="41.1078858" lon="9.4387178"><ele>9.0</ele><time>2026-04-30T07:06:28.742Z</time></trkpt><trkpt lat="41.1080014" lon="9.4387409"><ele>9.0</ele><time>2026-04-30T07:06:30.742Z</time></trkpt><trkpt lat="41.1081321" lon="9.4387762"><ele>9.0</ele><time>2026-04-30T07:06:32.742Z</time></trkpt><trkpt lat="41.1082011" lon="9.4388068"><ele>9.0</ele><time>2026-04-30T07:06:33.742Z</time></trkpt><trkpt lat="41.1082664" lon="9.4388374"><ele>9.0</ele><time>2026-04-30T07:06:34.742Z</time></trkpt><trkpt lat="41.1083285" lon="9.4388658"><ele>8.6</ele><time>2026-04-30T07:06:35.742Z</time></trkpt><trkpt lat="41.1084334" lon="9.438919"><ele>8.2</ele><time>2026-04-30T07:06:37.741Z</time></trkpt><trkpt lat="41.1085277" lon="9.4389664"><ele>7.799999999999999</ele><time>2026-04-30T07:06:39.742Z</time></trkpt><trkpt lat="41.1086381" lon="9.4390177"><ele>7.3999999999999995</ele><time>2026-04-30T07:06:41.741Z</time></trkpt><trkpt lat="41.1087437" lon="9.4390588"><ele>7.0</ele><time>2026-04-30T07:06:43.742Z</time></trkpt><trkpt lat="41.1088276" lon="9.4390984"><ele>7.0</ele><time>2026-04-30T07:06:45.742Z</time></trkpt><trkpt lat="41.1089213" lon="9.4391495"><ele>6.999999999999999</ele><time>2026-04-30T07:06:47.742Z</time></trkpt><trkpt lat="41.1090304" lon="9.4392191"><ele>6.999999999999999</ele><time>2026-04-30T07:06:49.742Z</time></trkpt><trkpt lat="41.1090826" lon="9.4392663"><ele>7.0</ele><time>2026-04-30T07:06:50.742Z</time></trkpt><trkpt lat="41.1091679" lon="9.4393694"><ele>7.0</ele><time>2026-04-30T07:06:52.742Z</time></trkpt><trkpt lat="41.1092312" lon="9.4394473"><ele>7.166666666666667</ele><time>2026-04-30T07:06:54.742Z</time></trkpt><trkpt lat="41.1092904" lon="9.4395227"><ele>7.333333333333334</ele><time>2026-04-30T07:06:56.741Z</time></trkpt><trkpt lat="41.1093637" lon="9.4396079"><ele>7.5</ele><time>2026-04-30T07:06:58.742Z</time></trkpt><trkpt lat="41.1094121" lon="9.4396749"><ele>7.666666666666666</ele><time>2026-04-30T07:07:00.742Z</time></trkpt><trkpt lat="41.1094596" lon="9.4397358"><ele>7.833333333333333</ele><time>2026-04-30T07:07:03.741Z</time></trkpt><trkpt lat="41.109505" lon="9.4398006"><ele>8.0</ele><time>2026-04-30T07:07:06.741Z</time></trkpt><trkpt lat="41.1095551" lon="9.4398689"><ele>8.166666666666666</ele><time>2026-04-30T07:07:08.741Z</time></trkpt><trkpt lat="41.1096017" lon="9.4399306"><ele>8.333333333333332</ele><time>2026-04-30T07:07:10.742Z</time></trkpt><trkpt lat="41.1096483" lon="9.439994"><ele>8.5</ele><time>2026-04-30T07:07:12.742Z</time></trkpt><trkpt lat="41.1097057" lon="9.4400656"><ele>8.666666666666666</ele><time>2026-04-30T07:07:14.742Z</time></trkpt><trkpt lat="41.1097796" lon="9.4401559"><ele>8.833333333333334</ele><time>2026-04-30T07:07:16.741Z</time></trkpt><trkpt lat="41.1098628" lon="9.4402714"><ele>9.0</ele><time>2026-04-30T07:07:18.742Z</time></trkpt><trkpt lat="41.1099376" lon="9.4403724"><ele>8.2</ele><time>2026-04-30T07:07:20.742Z</time></trkpt><trkpt lat="41.1100111" lon="9.4404829"><ele>7.4</ele><time>2026-04-30T07:07:22.742Z</time></trkpt><trkpt lat="41.1100661" lon="9.4405552"><ele>6.6</ele><time>2026-04-30T07:07:24.742Z</time></trkpt><trkpt lat="41.1101171" lon="9.4406212"><ele>5.8</ele><time>2026-04-30T07:07:26.742Z</time></trkpt><trkpt lat="41.1101872" lon="9.4407182"><ele>5.0</ele><time>2026-04-30T07:07:28.742Z</time></trkpt><trkpt lat="41.1102591" lon="9.4408014"><ele>5.0</ele><time>2026-04-30T07:07:30.741Z</time></trkpt><trkpt lat="41.1103293" lon="9.4408832"><ele>5.0</ele><time>2026-04-30T07:07:32.741Z</time></trkpt><trkpt lat="41.1104219" lon="9.4409931"><ele>5.0</ele><time>2026-04-30T07:07:34.741Z</time></trkpt><trkpt lat="41.1104721" lon="9.4410617"><ele>5.0</ele><time>2026-04-30T07:07:35.742Z</time></trkpt><trkpt lat="41.1105243" lon="9.4411302"><ele>5.0</ele><time>2026-04-30T07:07:36.742Z</time></trkpt><trkpt lat="41.1105758" lon="9.441196"><ele>5.0</ele><time>2026-04-30T07:07:37.742Z</time></trkpt><trkpt lat="41.1106231" lon="9.441257"><ele>4.666666666666667</ele><time>2026-04-30T07:07:38.742Z</time></trkpt><trkpt lat="41.1107052" lon="9.4413831"><ele>4.333333333333334</ele><time>2026-04-30T07:07:40.741Z</time></trkpt><trkpt lat="41.1107496" lon="9.4414462"><ele>4.0</ele><time>2026-04-30T07:07:41.742Z</time></trkpt><trkpt lat="41.1108013" lon="9.4415042"><ele>3.666666666666667</ele><time>2026-04-30T07:07:42.741Z</time></trkpt><trkpt lat="41.1108626" lon="9.4415574"><ele>3.3333333333333335</ele><time>2026-04-30T07:07:43.742Z</time></trkpt><trkpt lat="41.1109347" lon="9.4416046"><ele>3.0</ele><time>2026-04-30T07:07:44.741Z</time></trkpt><trkpt lat="41.1110176" lon="9.4416372"><ele>3.0</ele><time>2026-04-30T07:07:45.742Z</time></trkpt><trkpt lat="41.1111033" lon="9.4416504"><ele>3.0</ele><time>2026-04-30T07:07:46.742Z</time></trkpt><trkpt lat="41.1111864" lon="9.4416424"><ele>3.0</ele><time>2026-04-30T07:07:47.742Z</time></trkpt><trkpt lat="41.1112664" lon="9.4416292"><ele>3.0</ele><time>2026-04-30T07:07:48.742Z</time></trkpt><trkpt lat="41.1113413" lon="9.441615"><ele>3.0</ele><time>2026-04-30T07:07:49.742Z</time></trkpt><trkpt lat="41.1114111" lon="9.4415929"><ele>3.0</ele><time>2026-04-30T07:07:50.742Z</time></trkpt><trkpt lat="41.111477" lon="9.4415549"><ele>3.0</ele><time>2026-04-30T07:07:51.742Z</time></trkpt><trkpt lat="41.111537" lon="9.4415004"><ele>3.0</ele><time>2026-04-30T07:07:52.742Z</time></trkpt><trkpt lat="41.1115915" lon="9.4414241"><ele>3.0</ele><time>2026-04-30T07:07:53.741Z</time></trkpt><trkpt lat="41.1116394" lon="9.4413285"><ele>3.0</ele><time>2026-04-30T07:07:54.742Z</time></trkpt><trkpt lat="41.1116846" lon="9.4412281"><ele>3.0</ele><time>2026-04-30T07:07:55.742Z</time></trkpt><trkpt lat="41.1117272" lon="9.4411342"><ele>3.0</ele><time>2026-04-30T07:07:56.742Z</time></trkpt><trkpt lat="41.1117691" lon="9.441045"><ele>3.4285714285714284</ele><time>2026-04-30T07:07:57.742Z</time></trkpt><trkpt lat="41.1117989" lon="9.4409554"><ele>3.8571428571428568</ele><time>2026-04-30T07:07:58.742Z</time></trkpt><trkpt lat="41.1118124" lon="9.4408673"><ele>4.285714285714286</ele><time>2026-04-30T07:07:59.741Z</time></trkpt><trkpt lat="41.1118126" lon="9.4407834"><ele>4.7142857142857135</ele><time>2026-04-30T07:08:00.742Z</time></trkpt><trkpt lat="41.1118046" lon="9.4406988"><ele>5.142857142857142</ele><time>2026-04-30T07:08:01.742Z</time></trkpt><trkpt lat="41.1117929" lon="9.4406113"><ele>5.571428571428571</ele><time>2026-04-30T07:08:02.742Z</time></trkpt><trkpt lat="41.1117812" lon="9.4405201"><ele>6.0</ele><time>2026-04-30T07:08:03.742Z</time></trkpt><trkpt lat="41.1117583" lon="9.4403695"><ele>6.0</ele><time>2026-04-30T07:08:05.742Z</time></trkpt><trkpt lat="41.1117522" lon="9.4402306"><ele>6.0</ele><time>2026-04-30T07:08:07.741Z</time></trkpt><trkpt lat="41.1117445" lon="9.4400761"><ele>6.0</ele><time>2026-04-30T07:08:09.742Z</time></trkpt><trkpt lat="41.1117415" lon="9.4399893"><ele>6.0</ele><time>2026-04-30T07:08:10.742Z</time></trkpt><trkpt lat="41.1117366" lon="9.4398951"><ele>6.0</ele><time>2026-04-30T07:08:11.742Z</time></trkpt><trkpt lat="41.1117396" lon="9.4398007"><ele>6.0</ele><time>2026-04-30T07:08:12.742Z</time></trkpt><trkpt lat="41.1117563" lon="9.4397168"><ele>6.0</ele><time>2026-04-30T07:08:13.741Z</time></trkpt><trkpt lat="41.1117918" lon="9.4396439"><ele>6.0</ele><time>2026-04-30T07:08:14.742Z</time></trkpt><trkpt lat="41.1118853" lon="9.4395496"><ele>6.0</ele><time>2026-04-30T07:08:16.742Z</time></trkpt><trkpt lat="41.1119411" lon="9.4395052"><ele>6.0</ele><time>2026-04-30T07:08:17.741Z</time></trkpt><trkpt lat="41.1119999" lon="9.4394549"><ele>6.0</ele><time>2026-04-30T07:08:18.742Z</time></trkpt><trkpt lat="41.1120598" lon="9.4394047"><ele>6.0</ele><time>2026-04-30T07:08:19.742Z</time></trkpt><trkpt lat="41.1121142" lon="9.439355"><ele>5.8</ele><time>2026-04-30T07:08:20.741Z</time></trkpt><trkpt lat="41.1121685" lon="9.4393116"><ele>5.6</ele><time>2026-04-30T07:08:21.742Z</time></trkpt><trkpt lat="41.1122733" lon="9.4392514"><ele>5.4</ele><time>2026-04-30T07:08:23.741Z</time></trkpt><trkpt lat="41.112391" lon="9.4392251"><ele>5.2</ele><time>2026-04-30T07:08:25.741Z</time></trkpt><trkpt lat="41.1124885" lon="9.4391604"><ele>5.0</ele><time>2026-04-30T07:08:27.742Z</time></trkpt><trkpt lat="41.1125362" lon="9.4390292"><ele>5.0</ele><time>2026-04-30T07:08:29.742Z</time></trkpt><trkpt lat="41.1125252" lon="9.4388783"><ele>5.0</ele><time>2026-04-30T07:08:31.742Z</time></trkpt><trkpt lat="41.1125044" lon="9.438762"><ele>5.0</ele><time>2026-04-30T07:08:33.742Z</time></trkpt><trkpt lat="41.112487" lon="9.4386659"><ele>5.0</ele><time>2026-04-30T07:08:35.742Z</time></trkpt><trkpt lat="41.1124647" lon="9.4385626"><ele>5.0</ele><time>2026-04-30T07:08:37.741Z</time></trkpt><trkpt lat="41.1124599" lon="9.4384512"><ele>5.0</ele><time>2026-04-30T07:08:39.742Z</time></trkpt><trkpt lat="41.1125052" lon="9.4383749"><ele>5.2</ele><time>2026-04-30T07:08:41.742Z</time></trkpt><trkpt lat="41.1125983" lon="9.4383467"><ele>5.4</ele><time>2026-04-30T07:08:43.742Z</time></trkpt><trkpt lat="41.1127273" lon="9.4383571"><ele>5.6</ele><time>2026-04-30T07:08:45.741Z</time></trkpt><trkpt lat="41.112805" lon="9.4383603"><ele>5.8</ele><time>2026-04-30T07:08:46.741Z</time></trkpt><trkpt lat="41.1128901" lon="9.4383617"><ele>6.0</ele><time>2026-04-30T07:08:47.742Z</time></trkpt><trkpt lat="41.1129829" lon="9.4383637"><ele>6.0</ele><time>2026-04-30T07:08:48.742Z</time></trkpt><trkpt lat="41.1130786" lon="9.4383623"><ele>6.0</ele><time>2026-04-30T07:08:49.742Z</time></trkpt><trkpt lat="41.1131749" lon="9.4383505"><ele>6.0</ele><time>2026-04-30T07:08:50.742Z</time></trkpt><trkpt lat="41.1132683" lon="9.4383247"><ele>6.0</ele><time>2026-04-30T07:08:51.741Z</time></trkpt><trkpt lat="41.1133548" lon="9.4382797"><ele>6.0</ele><time>2026-04-30T07:08:52.742Z</time></trkpt><trkpt lat="41.1134374" lon="9.4382273"><ele>6.4</ele><time>2026-04-30T07:08:53.742Z</time></trkpt><trkpt lat="41.1135151" lon="9.4381754"><ele>6.8</ele><time>2026-04-30T07:08:54.742Z</time></trkpt><trkpt lat="41.1135921" lon="9.4381284"><ele>7.200000000000001</ele><time>2026-04-30T07:08:55.742Z</time></trkpt><trkpt lat="41.1136705" lon="9.4380811"><ele>7.6000000000000005</ele><time>2026-04-30T07:08:56.741Z</time></trkpt><trkpt lat="41.113759" lon="9.4380268"><ele>8.0</ele><time>2026-04-30T07:08:57.742Z</time></trkpt><trkpt lat="41.1138475" lon="9.4379679"><ele>8.0</ele><time>2026-04-30T07:08:58.741Z</time></trkpt><trkpt lat="41.1139205" lon="9.4379192"><ele>8.0</ele><time>2026-04-30T07:08:59.742Z</time></trkpt><trkpt lat="41.1139877" lon="9.4378766"><ele>8.0</ele><time>2026-04-30T07:09:00.742Z</time></trkpt><trkpt lat="41.1140831" lon="9.4378045"><ele>8.0</ele><time>2026-04-30T07:09:02.742Z</time></trkpt><trkpt lat="41.1141873" lon="9.4377697"><ele>8.0</ele><time>2026-04-30T07:09:04.742Z</time></trkpt><trkpt lat="41.114289" lon="9.4378553"><ele>8.833333333333332</ele><time>2026-04-30T07:09:06.741Z</time></trkpt><trkpt lat="41.114345" lon="9.4379383"><ele>9.666666666666666</ele><time>2026-04-30T07:09:07.742Z</time></trkpt><trkpt lat="41.1144073" lon="9.4380357"><ele>10.5</ele><time>2026-04-30T07:09:08.742Z</time></trkpt><trkpt lat="41.1144634" lon="9.4381197"><ele>11.333333333333332</ele><time>2026-04-30T07:09:09.741Z</time></trkpt><trkpt lat="41.1145176" lon="9.4382037"><ele>12.166666666666666</ele><time>2026-04-30T07:09:10.742Z</time></trkpt><trkpt lat="41.1145758" lon="9.4382902"><ele>13.0</ele><time>2026-04-30T07:09:11.742Z</time></trkpt><trkpt lat="41.1146361" lon="9.4383799"><ele>13.0</ele><time>2026-04-30T07:09:12.742Z</time></trkpt><trkpt lat="41.1146969" lon="9.4384715"><ele>13.0</ele><time>2026-04-30T07:09:13.742Z</time></trkpt><trkpt lat="41.1147631" lon="9.4385729"><ele>13.0</ele><time>2026-04-30T07:09:14.741Z</time></trkpt><trkpt lat="41.1148317" lon="9.4386751"><ele>13.0</ele><time>2026-04-30T07:09:15.742Z</time></trkpt><trkpt lat="41.1149027" lon="9.438773"><ele>13.0</ele><time>2026-04-30T07:09:16.741Z</time></trkpt><trkpt lat="41.1149865" lon="9.4388657"><ele>12.8</ele><time>2026-04-30T07:09:17.742Z</time></trkpt><trkpt lat="41.1150778" lon="9.4389377"><ele>12.600000000000001</ele><time>2026-04-30T07:09:18.742Z</time></trkpt><trkpt lat="41.1151849" lon="9.4389809"><ele>12.399999999999999</ele><time>2026-04-30T07:09:19.742Z</time></trkpt><trkpt lat="41.115296" lon="9.4390125"><ele>12.2</ele><time>2026-04-30T07:09:20.742Z</time></trkpt><trkpt lat="41.1154066" lon="9.4390401"><ele>12.0</ele><time>2026-04-30T07:09:21.742Z</time></trkpt><trkpt lat="41.1155058" lon="9.4390634"><ele>12.0</ele><time>2026-04-30T07:09:22.742Z</time></trkpt><trkpt lat="41.1155958" lon="9.4390825"><ele>12.0</ele><time>2026-04-30T07:09:23.742Z</time></trkpt><trkpt lat="41.1156812" lon="9.4391033"><ele>12.0</ele><time>2026-04-30T07:09:24.741Z</time></trkpt><trkpt lat="41.1157653" lon="9.4391235"><ele>12.0</ele><time>2026-04-30T07:09:25.741Z</time></trkpt><trkpt lat="41.1158496" lon="9.4391461"><ele>12.0</ele><time>2026-04-30T07:09:26.741Z</time></trkpt><trkpt lat="41.1159393" lon="9.4391686"><ele>12.0</ele><time>2026-04-30T07:09:27.742Z</time></trkpt><trkpt lat="41.1160338" lon="9.4391941"><ele>12.2</ele><time>2026-04-30T07:09:28.742Z</time></trkpt><trkpt lat="41.1161328" lon="9.4392211"><ele>12.399999999999999</ele><time>2026-04-30T07:09:29.742Z</time></trkpt><trkpt lat="41.1162347" lon="9.4392458"><ele>12.600000000000001</ele><time>2026-04-30T07:09:30.741Z</time></trkpt><trkpt lat="41.1163281" lon="9.4392672"><ele>12.8</ele><time>2026-04-30T07:09:31.742Z</time></trkpt><trkpt lat="41.1164142" lon="9.4392901"><ele>13.0</ele><time>2026-04-30T07:09:32.741Z</time></trkpt><trkpt lat="41.1165067" lon="9.4393121"><ele>13.499999999999998</ele><time>2026-04-30T07:09:33.742Z</time></trkpt><trkpt lat="41.1165997" lon="9.4393366"><ele>14.0</ele><time>2026-04-30T07:09:34.742Z</time></trkpt><trkpt lat="41.11669" lon="9.4393624"><ele>14.5</ele><time>2026-04-30T07:09:35.742Z</time></trkpt><trkpt lat="41.1167721" lon="9.4393845"><ele>15.0</ele><time>2026-04-30T07:09:36.742Z</time></trkpt><trkpt lat="41.1168529" lon="9.439402"><ele>15.499999999999998</ele><time>2026-04-30T07:09:37.742Z</time></trkpt><trkpt lat="41.1169387" lon="9.4394156"><ele>16.0</ele><time>2026-04-30T07:09:38.741Z</time></trkpt><trkpt lat="41.1170343" lon="9.4394338"><ele>16.0</ele><time>2026-04-30T07:09:39.741Z</time></trkpt><trkpt lat="41.1171285" lon="9.4394634"><ele>16.0</ele><time>2026-04-30T07:09:40.742Z</time></trkpt><trkpt lat="41.1172146" lon="9.4394867"><ele>16.0</ele><time>2026-04-30T07:09:41.742Z</time></trkpt><trkpt lat="41.1173039" lon="9.4395086"><ele>16.0</ele><time>2026-04-30T07:09:42.741Z</time></trkpt><trkpt lat="41.1173956" lon="9.4395269"><ele>16.0</ele><time>2026-04-30T07:09:43.742Z</time></trkpt><trkpt lat="41.1174818" lon="9.4395422"><ele>15.999999999999998</ele><time>2026-04-30T07:09:44.742Z</time></trkpt><trkpt lat="41.117569" lon="9.4395554"><ele>16.0</ele><time>2026-04-30T07:09:45.742Z</time></trkpt><trkpt lat="41.1176483" lon="9.4395694"><ele>16.0</ele><time>2026-04-30T07:09:46.742Z</time></trkpt><trkpt lat="41.1177224" lon="9.4395819"><ele>16.0</ele><time>2026-04-30T07:09:47.742Z</time></trkpt><trkpt lat="41.1178" lon="9.4395945"><ele>15.999999999999998</ele><time>2026-04-30T07:09:48.742Z</time></trkpt><trkpt lat="41.1178803" lon="9.4396077"><ele>16.0</ele><time>2026-04-30T07:09:49.742Z</time></trkpt><trkpt lat="41.1179587" lon="9.4396195"><ele>15.999999999999998</ele><time>2026-04-30T07:09:50.741Z</time></trkpt><trkpt lat="41.1180362" lon="9.4396327"><ele>16.0</ele><time>2026-04-30T07:09:51.742Z</time></trkpt><trkpt lat="41.118114" lon="9.4396512"><ele>16.0</ele><time>2026-04-30T07:09:52.742Z</time></trkpt><trkpt lat="41.1181973" lon="9.4396755"><ele>16.0</ele><time>2026-04-30T07:09:53.742Z</time></trkpt><trkpt lat="41.1182892" lon="9.4396998"><ele>15.999999999999998</ele><time>2026-04-30T07:09:54.742Z</time></trkpt><trkpt lat="41.1183858" lon="9.4397246"><ele>16.0</ele><time>2026-04-30T07:09:55.742Z</time></trkpt><trkpt lat="41.1184832" lon="9.4397439"><ele>14.833333333333332</ele><time>2026-04-30T07:09:56.742Z</time></trkpt><trkpt lat="41.118574" lon="9.4397592"><ele>13.666666666666666</ele><time>2026-04-30T07:09:57.742Z</time></trkpt><trkpt lat="41.118663" lon="9.4397694"><ele>12.5</ele><time>2026-04-30T07:09:58.742Z</time></trkpt><trkpt lat="41.1187502" lon="9.439781"><ele>11.333333333333332</ele><time>2026-04-30T07:09:59.741Z</time></trkpt><trkpt lat="41.1188363" lon="9.4397869"><ele>10.166666666666666</ele><time>2026-04-30T07:10:00.742Z</time></trkpt><trkpt lat="41.1189199" lon="9.4397876"><ele>9.0</ele><time>2026-04-30T07:10:01.742Z</time></trkpt><trkpt lat="41.1189919" lon="9.4397921"><ele>9.0</ele><time>2026-04-30T07:10:02.742Z</time></trkpt><trkpt lat="41.1190573" lon="9.4397978"><ele>9.0</ele><time>2026-04-30T07:10:03.741Z</time></trkpt><trkpt lat="41.1191856" lon="9.4398082"><ele>9.0</ele><time>2026-04-30T07:10:05.742Z</time></trkpt><trkpt lat="41.1192556" lon="9.4398076"><ele>9.0</ele><time>2026-04-30T07:10:06.742Z</time></trkpt><trkpt lat="41.1193328" lon="9.4398052"><ele>9.0</ele><time>2026-04-30T07:10:07.742Z</time></trkpt><trkpt lat="41.1194088" lon="9.4398032"><ele>9.0</ele><time>2026-04-30T07:10:08.741Z</time></trkpt><trkpt lat="41.1194845" lon="9.439796"><ele>9.0</ele><time>2026-04-30T07:10:09.742Z</time></trkpt><trkpt lat="41.1195643" lon="9.4397896"><ele>9.0</ele><time>2026-04-30T07:10:10.742Z</time></trkpt><trkpt lat="41.1196468" lon="9.4397814"><ele>9.0</ele><time>2026-04-30T07:10:11.742Z</time></trkpt><trkpt lat="41.1197356" lon="9.4397771"><ele>9.0</ele><time>2026-04-30T07:10:12.742Z</time></trkpt><trkpt lat="41.1198279" lon="9.4397667"><ele>9.0</ele><time>2026-04-30T07:10:13.742Z</time></trkpt><trkpt lat="41.1199281" lon="9.4397475"><ele>9.0</ele><time>2026-04-30T07:10:14.742Z</time></trkpt><trkpt lat="41.1200279" lon="9.4397061"><ele>9.0</ele><time>2026-04-30T07:10:15.741Z</time></trkpt><trkpt lat="41.1201251" lon="9.4396471"><ele>9.0</ele><time>2026-04-30T07:10:16.742Z</time></trkpt><trkpt lat="41.1202323" lon="9.4395758"><ele>9.0</ele><time>2026-04-30T07:10:17.742Z</time></trkpt><trkpt lat="41.1203485" lon="9.4394954"><ele>9.0</ele><time>2026-04-30T07:10:18.742Z</time></trkpt><trkpt lat="41.1204686" lon="9.4394147"><ele>9.5</ele><time>2026-04-30T07:10:19.742Z</time></trkpt><trkpt lat="41.1205811" lon="9.4393457"><ele>10.0</ele><time>2026-04-30T07:10:20.742Z</time></trkpt><trkpt lat="41.1206884" lon="9.4392799"><ele>10.5</ele><time>2026-04-30T07:10:21.742Z</time></trkpt><trkpt lat="41.1207909" lon="9.4392137"><ele>11.0</ele><time>2026-04-30T07:10:22.742Z</time></trkpt><trkpt lat="41.120889" lon="9.4391537"><ele>11.0</ele><time>2026-04-30T07:10:23.742Z</time></trkpt><trkpt lat="41.1209784" lon="9.4390919"><ele>11.0</ele><time>2026-04-30T07:10:24.742Z</time></trkpt><trkpt lat="41.1210837" lon="9.4390165"><ele>11.0</ele><time>2026-04-30T07:10:25.741Z</time></trkpt><trkpt lat="41.1212099" lon="9.4389363"><ele>11.0</ele><time>2026-04-30T07:10:26.742Z</time></trkpt><trkpt lat="41.1213624" lon="9.4388451"><ele>11.25</ele><time>2026-04-30T07:10:27.742Z</time></trkpt><trkpt lat="41.1215001" lon="9.4387604"><ele>11.5</ele><time>2026-04-30T07:10:28.741Z</time></trkpt><trkpt lat="41.1216273" lon="9.4386772"><ele>11.75</ele><time>2026-04-30T07:10:29.741Z</time></trkpt><trkpt lat="41.1217323" lon="9.4386029"><ele>12.0</ele><time>2026-04-30T07:10:30.741Z</time></trkpt><trkpt lat="41.1218198" lon="9.4385348"><ele>12.0</ele><time>2026-04-30T07:10:31.742Z</time></trkpt><trkpt lat="41.1218995" lon="9.4384842"><ele>12.0</ele><time>2026-04-30T07:10:32.742Z</time></trkpt><trkpt lat="41.1219693" lon="9.4384614"><ele>12.0</ele><time>2026-04-30T07:10:33.741Z</time></trkpt><trkpt lat="41.1220766" lon="9.4384975"><ele>12.0</ele><time>2026-04-30T07:10:35.742Z</time></trkpt><trkpt lat="41.1221351" lon="9.4386321"><ele>12.0</ele><time>2026-04-30T07:10:37.742Z</time></trkpt><trkpt lat="41.122155" lon="9.4387302"><ele>11.0</ele><time>2026-04-30T07:10:38.742Z</time></trkpt><trkpt lat="41.1221816" lon="9.438845"><ele>10.0</ele><time>2026-04-30T07:10:39.742Z</time></trkpt><trkpt lat="41.1222162" lon="9.43896"><ele>9.0</ele><time>2026-04-30T07:10:40.742Z</time></trkpt><trkpt lat="41.122247" lon="9.4390703"><ele>8.0</ele><time>2026-04-30T07:10:41.742Z</time></trkpt><trkpt lat="41.122279" lon="9.4391787"><ele>7.0</ele><time>2026-04-30T07:10:42.742Z</time></trkpt><trkpt lat="41.1223091" lon="9.4392857"><ele>6.0</ele><time>2026-04-30T07:10:43.742Z</time></trkpt><trkpt lat="41.1223379" lon="9.439391"><ele>6.0</ele><time>2026-04-30T07:10:44.741Z</time></trkpt><trkpt lat="41.1223672" lon="9.4395003"><ele>6.0</ele><time>2026-04-30T07:10:45.742Z</time></trkpt><trkpt lat="41.1224006" lon="9.4396133"><ele>6.0</ele><time>2026-04-30T07:10:46.742Z</time></trkpt><trkpt lat="41.1224316" lon="9.4397183"><ele>6.0</ele><time>2026-04-30T07:10:47.742Z</time></trkpt><trkpt lat="41.1224601" lon="9.439823"><ele>6.0</ele><time>2026-04-30T07:10:48.742Z</time></trkpt><trkpt lat="41.1224835" lon="9.4399204"><ele>6.0</ele><time>2026-04-30T07:10:49.742Z</time></trkpt><trkpt lat="41.122509" lon="9.4400107"><ele>5.333333333333333</ele><time>2026-04-30T07:10:50.742Z</time></trkpt><trkpt lat="41.1225323" lon="9.440095"><ele>4.666666666666667</ele><time>2026-04-30T07:10:51.741Z</time></trkpt><trkpt lat="41.1225714" lon="9.4402258"><ele>4.0</ele><time>2026-04-30T07:10:53.742Z</time></trkpt><trkpt lat="41.1226014" lon="9.4403012"><ele>3.333333333333333</ele><time>2026-04-30T07:10:55.741Z</time></trkpt><trkpt lat="41.1226616" lon="9.4403297"><ele>2.6666666666666665</ele><time>2026-04-30T07:10:57.741Z</time></trkpt><trkpt lat="41.1227444" lon="9.4402663"><ele>2.0</ele><time>2026-04-30T07:10:59.742Z</time></trkpt><trkpt lat="41.1228044" lon="9.4402046"><ele>2.0</ele><time>2026-04-30T07:11:00.742Z</time></trkpt><trkpt lat="41.1228764" lon="9.4401312"><ele>2.0</ele><time>2026-04-30T07:11:01.742Z</time></trkpt><trkpt lat="41.1229615" lon="9.4400556"><ele>2.0</ele><time>2026-04-30T07:11:02.741Z</time></trkpt><trkpt lat="41.123053" lon="9.4399888"><ele>2.0</ele><time>2026-04-30T07:11:03.742Z</time></trkpt><trkpt lat="41.1231566" lon="9.4399335"><ele>2.0</ele><time>2026-04-30T07:11:04.742Z</time></trkpt><trkpt lat="41.1232573" lon="9.4398932"><ele>2.2</ele><time>2026-04-30T07:11:05.742Z</time></trkpt><trkpt lat="41.1233555" lon="9.4398657"><ele>2.4000000000000004</ele><time>2026-04-30T07:11:06.742Z</time></trkpt><trkpt lat="41.1234528" lon="9.4398445"><ele>2.5999999999999996</ele><time>2026-04-30T07:11:07.741Z</time></trkpt><trkpt lat="41.1235407" lon="9.439826"><ele>2.8</ele><time>2026-04-30T07:11:08.742Z</time></trkpt><trkpt lat="41.1236278" lon="9.4398071"><ele>3.0</ele><time>2026-04-30T07:11:09.742Z</time></trkpt><trkpt lat="41.1237118" lon="9.4397895"><ele>3.0</ele><time>2026-04-30T07:11:10.741Z</time></trkpt><trkpt lat="41.1237984" lon="9.4397696"><ele>3.0</ele><time>2026-04-30T07:11:11.742Z</time></trkpt><trkpt lat="41.1238877" lon="9.4397546"><ele>3.0</ele><time>2026-04-30T07:11:12.742Z</time></trkpt><trkpt lat="41.1239831" lon="9.4397391"><ele>3.0</ele><time>2026-04-30T07:11:13.742Z</time></trkpt><trkpt lat="41.1240862" lon="9.4397253"><ele>3.0</ele><time>2026-04-30T07:11:14.742Z</time></trkpt><trkpt lat="41.1241886" lon="9.4397133"><ele>2.8</ele><time>2026-04-30T07:11:15.741Z</time></trkpt><trkpt lat="41.1242885" lon="9.4397011"><ele>2.5999999999999996</ele><time>2026-04-30T07:11:16.742Z</time></trkpt><trkpt lat="41.1243877" lon="9.4396939"><ele>2.4000000000000004</ele><time>2026-04-30T07:11:17.742Z</time></trkpt><trkpt lat="41.1244863" lon="9.4396864"><ele>2.2</ele><time>2026-04-30T07:11:18.742Z</time></trkpt><trkpt lat="41.1245773" lon="9.4396807"><ele>2.0</ele><time>2026-04-30T07:11:19.742Z</time></trkpt><trkpt lat="41.1246659" lon="9.4396724"><ele>2.0</ele><time>2026-04-30T07:11:20.741Z</time></trkpt><trkpt lat="41.1247604" lon="9.4396662"><ele>2.0</ele><time>2026-04-30T07:11:21.742Z</time></trkpt><trkpt lat="41.1248586" lon="9.4396518"><ele>2.0</ele><time>2026-04-30T07:11:22.742Z</time></trkpt><trkpt lat="41.1249585" lon="9.439632"><ele>2.0</ele><time>2026-04-30T07:11:23.742Z</time></trkpt><trkpt lat="41.1250551" lon="9.4396033"><ele>2.0</ele><time>2026-04-30T07:11:24.742Z</time></trkpt><trkpt lat="41.1251445" lon="9.4395635"><ele>2.6</ele><time>2026-04-30T07:11:25.742Z</time></trkpt><trkpt lat="41.1252271" lon="9.4395125"><ele>3.2</ele><time>2026-04-30T07:11:26.742Z</time></trkpt><trkpt lat="41.1253113" lon="9.4394582"><ele>3.8</ele><time>2026-04-30T07:11:27.742Z</time></trkpt><trkpt lat="41.125402" lon="9.4394003"><ele>4.4</ele><time>2026-04-30T07:11:28.742Z</time></trkpt><trkpt lat="41.1254953" lon="9.4393411"><ele>5.0</ele><time>2026-04-30T07:11:29.742Z</time></trkpt><trkpt lat="41.1255921" lon="9.439274"><ele>5.0</ele><time>2026-04-30T07:11:30.742Z</time></trkpt><trkpt lat="41.1256977" lon="9.4392051"><ele>5.0</ele><time>2026-04-30T07:11:31.741Z</time></trkpt><trkpt lat="41.1258052" lon="9.4391345"><ele>5.0</ele><time>2026-04-30T07:11:32.742Z</time></trkpt><trkpt lat="41.1259132" lon="9.4390613"><ele>5.0</ele><time>2026-04-30T07:11:33.741Z</time></trkpt><trkpt lat="41.1260181" lon="9.4389905"><ele>4.75</ele><time>2026-04-30T07:11:34.742Z</time></trkpt><trkpt lat="41.1261273" lon="9.4389183"><ele>4.5</ele><time>2026-04-30T07:11:35.742Z</time></trkpt><trkpt lat="41.1262317" lon="9.4388359"><ele>4.25</ele><time>2026-04-30T07:11:36.741Z</time></trkpt><trkpt lat="41.1263267" lon="9.438734"><ele>4.0</ele><time>2026-04-30T07:11:37.742Z</time></trkpt><trkpt lat="41.12641" lon="9.4386135"><ele>4.0</ele><time>2026-04-30T07:11:38.741Z</time></trkpt><trkpt lat="41.1264814" lon="9.4384792"><ele>4.0</ele><time>2026-04-30T07:11:39.742Z</time></trkpt><trkpt lat="41.1265446" lon="9.438337"><ele>4.0</ele><time>2026-04-30T07:11:40.741Z</time></trkpt><trkpt lat="41.1266035" lon="9.4381934"><ele>4.0</ele><time>2026-04-30T07:11:41.742Z</time></trkpt><trkpt lat="41.1266538" lon="9.4380552"><ele>4.0</ele><time>2026-04-30T07:11:42.742Z</time></trkpt><trkpt lat="41.1266966" lon="9.4379229"><ele>4.0</ele><time>2026-04-30T07:11:43.741Z</time></trkpt><trkpt lat="41.1267383" lon="9.437801"><ele>4.0</ele><time>2026-04-30T07:11:44.742Z</time></trkpt><trkpt lat="41.1267757" lon="9.4376881"><ele>4.0</ele><time>2026-04-30T07:11:45.742Z</time></trkpt><trkpt lat="41.1268086" lon="9.4375833"><ele>4.0</ele><time>2026-04-30T07:11:46.742Z</time></trkpt><trkpt lat="41.1268404" lon="9.4374841"><ele>3.9999999999999996</ele><time>2026-04-30T07:11:47.742Z</time></trkpt><trkpt lat="41.1268707" lon="9.4373876"><ele>4.0</ele><time>2026-04-30T07:11:48.742Z</time></trkpt><trkpt lat="41.1269042" lon="9.4372861"><ele>4.0</ele><time>2026-04-30T07:11:49.741Z</time></trkpt><trkpt lat="41.1269372" lon="9.4371911"><ele>4.0</ele><time>2026-04-30T07:11:50.742Z</time></trkpt><trkpt lat="41.126965" lon="9.4371134"><ele>3.9999999999999996</ele><time>2026-04-30T07:11:51.742Z</time></trkpt><trkpt lat="41.1270221" lon="9.4369828"><ele>4.0</ele><time>2026-04-30T07:11:53.742Z</time></trkpt><trkpt lat="41.1270846" lon="9.4368591"><ele>4.6</ele><time>2026-04-30T07:11:55.741Z</time></trkpt><trkpt lat="41.1271537" lon="9.4367096"><ele>5.2</ele><time>2026-04-30T07:11:57.742Z</time></trkpt><trkpt lat="41.1272023" lon="9.4366178"><ele>5.799999999999999</ele><time>2026-04-30T07:11:58.741Z</time></trkpt><trkpt lat="41.1272563" lon="9.4365258"><ele>6.3999999999999995</ele><time>2026-04-30T07:11:59.742Z</time></trkpt><trkpt lat="41.1273087" lon="9.436441"><ele>7.0</ele><time>2026-04-30T07:12:00.742Z</time></trkpt><trkpt lat="41.1273603" lon="9.4363542"><ele>8.6</ele><time>2026-04-30T07:12:01.742Z</time></trkpt><trkpt lat="41.1274119" lon="9.436266"><ele>10.2</ele><time>2026-04-30T07:12:02.742Z</time></trkpt><trkpt lat="41.1274643" lon="9.4361758"><ele>11.8</ele><time>2026-04-30T07:12:03.742Z</time></trkpt><trkpt lat="41.1275188" lon="9.4360851"><ele>13.4</ele><time>2026-04-30T07:12:04.742Z</time></trkpt><trkpt lat="41.1275752" lon="9.4359837"><ele>15.0</ele><time>2026-04-30T07:12:05.741Z</time></trkpt><trkpt lat="41.1276352" lon="9.4358777"><ele>15.0</ele><time>2026-04-30T07:12:06.742Z</time></trkpt><trkpt lat="41.1276908" lon="9.4357785"><ele>15.0</ele><time>2026-04-30T07:12:07.742Z</time></trkpt><trkpt lat="41.1277434" lon="9.435689"><ele>15.0</ele><time>2026-04-30T07:12:08.741Z</time></trkpt><trkpt lat="41.1277964" lon="9.4355964"><ele>15.0</ele><time>2026-04-30T07:12:09.742Z</time></trkpt><trkpt lat="41.1278491" lon="9.4355037"><ele>15.0</ele><time>2026-04-30T07:12:10.741Z</time></trkpt><trkpt lat="41.1279067" lon="9.4354037"><ele>15.0</ele><time>2026-04-30T07:12:11.742Z</time></trkpt><trkpt lat="41.1279664" lon="9.4352942"><ele>16.25</ele><time>2026-04-30T07:12:12.742Z</time></trkpt><trkpt lat="41.1280304" lon="9.4351731"><ele>17.5</ele><time>2026-04-30T07:12:13.742Z</time></trkpt><trkpt lat="41.1280927" lon="9.4350562"><ele>18.75</ele><time>2026-04-30T07:12:14.742Z</time></trkpt><trkpt lat="41.1281629" lon="9.4349305"><ele>20.0</ele><time>2026-04-30T07:12:15.742Z</time></trkpt><trkpt lat="41.128233" lon="9.4348054"><ele>17.5</ele><time>2026-04-30T07:12:16.742Z</time></trkpt><trkpt lat="41.1283001" lon="9.4346901"><ele>15.0</ele><time>2026-04-30T07:12:17.742Z</time></trkpt><trkpt lat="41.1283794" lon="9.4345862"><ele>12.5</ele><time>2026-04-30T07:12:18.742Z</time></trkpt><trkpt lat="41.1284749" lon="9.4344976"><ele>10.0</ele><time>2026-04-30T07:12:19.741Z</time></trkpt><trkpt lat="41.1285846" lon="9.4344242"><ele>9.5</ele><time>2026-04-30T07:12:20.742Z</time></trkpt><trkpt lat="41.128707" lon="9.4343663"><ele>9.0</ele><time>2026-04-30T07:12:21.742Z</time></trkpt><trkpt lat="41.1288409" lon="9.4343266"><ele>8.5</ele><time>2026-04-30T07:12:22.742Z</time></trkpt><trkpt lat="41.1289788" lon="9.4343005"><ele>8.0</ele><time>2026-04-30T07:12:23.742Z</time></trkpt><trkpt lat="41.1291159" lon="9.4342824"><ele>8.0</ele><time>2026-04-30T07:12:24.741Z</time></trkpt><trkpt lat="41.129261" lon="9.4342759"><ele>8.0</ele><time>2026-04-30T07:12:25.742Z</time></trkpt><trkpt lat="41.1294015" lon="9.4342845"><ele>8.0</ele><time>2026-04-30T07:12:26.742Z</time></trkpt><trkpt lat="41.129544" lon="9.4343047"><ele>8.0</ele><time>2026-04-30T07:12:27.742Z</time></trkpt><trkpt lat="41.1296837" lon="9.4343261"><ele>8.0</ele><time>2026-04-30T07:12:28.742Z</time></trkpt><trkpt lat="41.129813" lon="9.4343454"><ele>8.0</ele><time>2026-04-30T07:12:29.742Z</time></trkpt><trkpt lat="41.1299303" lon="9.4343621"><ele>8.0</ele><time>2026-04-30T07:12:30.741Z</time></trkpt><trkpt lat="41.1300395" lon="9.4343801"><ele>8.0</ele><time>2026-04-30T07:12:31.741Z</time></trkpt><trkpt lat="41.1301454" lon="9.4343944"><ele>9.5</ele><time>2026-04-30T07:12:32.742Z</time></trkpt><trkpt lat="41.130253" lon="9.4344073"><ele>11.0</ele><time>2026-04-30T07:12:33.741Z</time></trkpt><trkpt lat="41.1303627" lon="9.4344197"><ele>12.5</ele><time>2026-04-30T07:12:34.742Z</time></trkpt><trkpt lat="41.1304802" lon="9.4344245"><ele>14.0</ele><time>2026-04-30T07:12:35.741Z</time></trkpt><trkpt lat="41.1306057" lon="9.4344158"><ele>14.5</ele><time>2026-04-30T07:12:36.742Z</time></trkpt><trkpt lat="41.1307303" lon="9.4343864"><ele>15.0</ele><time>2026-04-30T07:12:37.742Z</time></trkpt><trkpt lat="41.1308541" lon="9.4343406"><ele>15.5</ele><time>2026-04-30T07:12:38.742Z</time></trkpt><trkpt lat="41.1309836" lon="9.4342768"><ele>16.0</ele><time>2026-04-30T07:12:39.741Z</time></trkpt><trkpt lat="41.1311241" lon="9.4342067"><ele>16.0</ele><time>2026-04-30T07:12:40.742Z</time></trkpt><trkpt lat="41.1312753" lon="9.4341331"><ele>16.0</ele><time>2026-04-30T07:12:41.741Z</time></trkpt><trkpt lat="41.1314385" lon="9.4340503"><ele>16.0</ele><time>2026-04-30T07:12:42.742Z</time></trkpt><trkpt lat="41.1316075" lon="9.433957"><ele>15.666666666666666</ele><time>2026-04-30T07:12:43.742Z</time></trkpt><trkpt lat="41.1317765" lon="9.4338537"><ele>15.333333333333332</ele><time>2026-04-30T07:12:44.742Z</time></trkpt><trkpt lat="41.1319513" lon="9.4337415"><ele>15.0</ele><time>2026-04-30T07:12:45.742Z</time></trkpt><trkpt lat="41.1321286" lon="9.433629"><ele>15.0</ele><time>2026-04-30T07:12:46.742Z</time></trkpt><trkpt lat="41.1322954" lon="9.4335177"><ele>15.0</ele><time>2026-04-30T07:12:47.742Z</time></trkpt><trkpt lat="41.1324526" lon="9.4334092"><ele>15.0</ele><time>2026-04-30T07:12:48.742Z</time></trkpt><trkpt lat="41.1325965" lon="9.4333105"><ele>13.0</ele><time>2026-04-30T07:12:49.742Z</time></trkpt><trkpt lat="41.1327377" lon="9.4332231"><ele>11.0</ele><time>2026-04-30T07:12:50.742Z</time></trkpt><trkpt lat="41.1328861" lon="9.4331518"><ele>9.0</ele><time>2026-04-30T07:12:51.742Z</time></trkpt><trkpt lat="41.1330469" lon="9.4330954"><ele>9.0</ele><time>2026-04-30T07:12:52.741Z</time></trkpt><trkpt lat="41.133218" lon="9.4330565"><ele>9.0</ele><time>2026-04-30T07:12:53.742Z</time></trkpt><trkpt lat="41.1333986" lon="9.4330263"><ele>9.0</ele><time>2026-04-30T07:12:54.742Z</time></trkpt><trkpt lat="41.1335789" lon="9.4330001"><ele>9.333333333333334</ele><time>2026-04-30T07:12:55.742Z</time></trkpt><trkpt lat="41.1337516" lon="9.4329806"><ele>9.666666666666668</ele><time>2026-04-30T07:12:56.741Z</time></trkpt><trkpt lat="41.1339248" lon="9.4329647"><ele>10.0</ele><time>2026-04-30T07:12:57.742Z</time></trkpt><trkpt lat="41.1340972" lon="9.4329517"><ele>10.333333333333334</ele><time>2026-04-30T07:12:58.742Z</time></trkpt><trkpt lat="41.1342657" lon="9.4329405"><ele>10.666666666666666</ele><time>2026-04-30T07:12:59.741Z</time></trkpt><trkpt lat="41.1344329" lon="9.4329356"><ele>11.0</ele><time>2026-04-30T07:13:00.741Z</time></trkpt><trkpt lat="41.1346018" lon="9.4329282"><ele>11.0</ele><time>2026-04-30T07:13:01.742Z</time></trkpt><trkpt lat="41.1347686" lon="9.4329164"><ele>11.0</ele><time>2026-04-30T07:13:02.742Z</time></trkpt><trkpt lat="41.134938" lon="9.4329041"><ele>11.0</ele><time>2026-04-30T07:13:03.742Z</time></trkpt><trkpt lat="41.1351097" lon="9.4328936"><ele>11.666666666666666</ele><time>2026-04-30T07:13:04.742Z</time></trkpt><trkpt lat="41.135282" lon="9.4328824"><ele>12.333333333333332</ele><time>2026-04-30T07:13:05.742Z</time></trkpt><trkpt lat="41.1354491" lon="9.4328624"><ele>13.0</ele><time>2026-04-30T07:13:06.741Z</time></trkpt><trkpt lat="41.1356069" lon="9.432835"><ele>13.25</ele><time>2026-04-30T07:13:07.742Z</time></trkpt><trkpt lat="41.1357574" lon="9.4328005"><ele>13.5</ele><time>2026-04-30T07:13:08.742Z</time></trkpt><trkpt lat="41.1358954" lon="9.4327585"><ele>13.75</ele><time>2026-04-30T07:13:09.742Z</time></trkpt><trkpt lat="41.1360272" lon="9.4327175"><ele>14.0</ele><time>2026-04-30T07:13:10.742Z</time></trkpt><trkpt lat="41.1361539" lon="9.4326781"><ele>14.0</ele><time>2026-04-30T07:13:11.742Z</time></trkpt><trkpt lat="41.1362814" lon="9.4326399"><ele>14.0</ele><time>2026-04-30T07:13:12.742Z</time></trkpt><trkpt lat="41.1364155" lon="9.432594"><ele>14.0</ele><time>2026-04-30T07:13:13.742Z</time></trkpt><trkpt lat="41.1365521" lon="9.4325391"><ele>14.0</ele><time>2026-04-30T07:13:14.742Z</time></trkpt><trkpt lat="41.1366942" lon="9.4324711"><ele>13.666666666666668</ele><time>2026-04-30T07:13:15.742Z</time></trkpt><trkpt lat="41.1368375" lon="9.4323861"><ele>13.333333333333332</ele><time>2026-04-30T07:13:16.741Z</time></trkpt><trkpt lat="41.136985" lon="9.4322878"><ele>13.0</ele><time>2026-04-30T07:13:17.742Z</time></trkpt><trkpt lat="41.1371373" lon="9.4321803"><ele>13.0</ele><time>2026-04-30T07:13:18.742Z</time></trkpt><trkpt lat="41.1372855" lon="9.4320746"><ele>13.0</ele><time>2026-04-30T07:13:19.742Z</time></trkpt><trkpt lat="41.1374308" lon="9.4319678"><ele>13.0</ele><time>2026-04-30T07:13:20.742Z</time></trkpt><trkpt lat="41.1375622" lon="9.431849"><ele>12.0</ele><time>2026-04-30T07:13:21.742Z</time></trkpt><trkpt lat="41.1376846" lon="9.4317194"><ele>11.0</ele><time>2026-04-30T07:13:22.742Z</time></trkpt><trkpt lat="41.1377975" lon="9.4315638"><ele>10.0</ele><time>2026-04-30T07:13:23.742Z</time></trkpt><trkpt lat="41.1379109" lon="9.4314052"><ele>8.666666666666668</ele><time>2026-04-30T07:13:24.742Z</time></trkpt><trkpt lat="41.1380285" lon="9.4312324"><ele>7.333333333333334</ele><time>2026-04-30T07:13:25.741Z</time></trkpt><trkpt lat="41.1381527" lon="9.4310509"><ele>6.0</ele><time>2026-04-30T07:13:26.742Z</time></trkpt><trkpt lat="41.1382789" lon="9.4308609"><ele>6.0</ele><time>2026-04-30T07:13:27.742Z</time></trkpt><trkpt lat="41.1384054" lon="9.4306696"><ele>6.0</ele><time>2026-04-30T07:13:28.741Z</time></trkpt><trkpt lat="41.138533" lon="9.4304778"><ele>6.0</ele><time>2026-04-30T07:13:29.742Z</time></trkpt><trkpt lat="41.1386596" lon="9.4302895"><ele>8.333333333333332</ele><time>2026-04-30T07:13:30.742Z</time></trkpt><trkpt lat="41.1387851" lon="9.430104"><ele>10.666666666666666</ele><time>2026-04-30T07:13:31.742Z</time></trkpt><trkpt lat="41.1389051" lon="9.4299208"><ele>13.0</ele><time>2026-04-30T07:13:32.742Z</time></trkpt><trkpt lat="41.1390285" lon="9.4297469"><ele>9.666666666666666</ele><time>2026-04-30T07:13:33.742Z</time></trkpt><trkpt lat="41.1391627" lon="9.429581"><ele>6.333333333333333</ele><time>2026-04-30T07:13:34.742Z</time></trkpt><trkpt lat="41.1393117" lon="9.4294288"><ele>3.0</ele><time>2026-04-30T07:13:35.742Z</time></trkpt><trkpt lat="41.1394709" lon="9.4292881"><ele>3.0</ele><time>2026-04-30T07:13:36.741Z</time></trkpt><trkpt lat="41.1396391" lon="9.429153"><ele>3.0</ele><time>2026-04-30T07:13:37.742Z</time></trkpt><trkpt lat="41.1398133" lon="9.4290167"><ele>3.0</ele><time>2026-04-30T07:13:38.742Z</time></trkpt><trkpt lat="41.1399866" lon="9.4288778"><ele>2.6666666666666665</ele><time>2026-04-30T07:13:39.742Z</time></trkpt><trkpt lat="41.1401597" lon="9.4287409"><ele>2.333333333333333</ele><time>2026-04-30T07:13:40.741Z</time></trkpt><trkpt lat="41.1403297" lon="9.4286074"><ele>2.0</ele><time>2026-04-30T07:13:41.742Z</time></trkpt><trkpt lat="41.140492" lon="9.4284808"><ele>2.0</ele><time>2026-04-30T07:13:42.742Z</time></trkpt><trkpt lat="41.1406483" lon="9.4283583"><ele>2.0</ele><time>2026-04-30T07:13:43.742Z</time></trkpt><trkpt lat="41.1408055" lon="9.4282356"><ele>2.0</ele><time>2026-04-30T07:13:44.742Z</time></trkpt><trkpt lat="41.1409592" lon="9.4281124"><ele>3.333333333333333</ele><time>2026-04-30T07:13:45.742Z</time></trkpt><trkpt lat="41.1411105" lon="9.4279908"><ele>4.666666666666667</ele><time>2026-04-30T07:13:46.742Z</time></trkpt><trkpt lat="41.141253" lon="9.4278777"><ele>6.0</ele><time>2026-04-30T07:13:47.742Z</time></trkpt><trkpt lat="41.1413876" lon="9.4277708"><ele>6.0</ele><time>2026-04-30T07:13:48.741Z</time></trkpt><trkpt lat="41.1415229" lon="9.4276617"><ele>6.0</ele><time>2026-04-30T07:13:49.742Z</time></trkpt><trkpt lat="41.1416672" lon="9.4275429"><ele>6.0</ele><time>2026-04-30T07:13:50.741Z</time></trkpt><trkpt lat="41.1418046" lon="9.4274353"><ele>6.666666666666666</ele><time>2026-04-30T07:13:51.741Z</time></trkpt><trkpt lat="41.1419473" lon="9.4273393"><ele>7.333333333333333</ele><time>2026-04-30T07:13:52.742Z</time></trkpt><trkpt lat="41.1421012" lon="9.4272642"><ele>8.0</ele><time>2026-04-30T07:13:53.741Z</time></trkpt><trkpt lat="41.1422724" lon="9.4271954"><ele>9.0</ele><time>2026-04-30T07:13:54.741Z</time></trkpt><trkpt lat="41.1424362" lon="9.4271347"><ele>10.0</ele><time>2026-04-30T07:13:55.741Z</time></trkpt><trkpt lat="41.1425972" lon="9.427073"><ele>11.0</ele><time>2026-04-30T07:13:56.742Z</time></trkpt><trkpt lat="41.1427632" lon="9.4270082"><ele>11.0</ele><time>2026-04-30T07:13:57.742Z</time></trkpt><trkpt lat="41.1429342" lon="9.4269419"><ele>11.0</ele><time>2026-04-30T07:13:58.742Z</time></trkpt><trkpt lat="41.1431128" lon="9.4268754"><ele>11.0</ele><time>2026-04-30T07:13:59.741Z</time></trkpt><trkpt lat="41.1432976" lon="9.4268053"><ele>11.333333333333332</ele><time>2026-04-30T07:14:00.742Z</time></trkpt><trkpt lat="41.1434727" lon="9.4267397"><ele>11.666666666666666</ele><time>2026-04-30T07:14:01.742Z</time></trkpt><trkpt lat="41.1436512" lon="9.4266684"><ele>12.0</ele><time>2026-04-30T07:14:02.742Z</time></trkpt><trkpt lat="41.1438324" lon="9.4265817"><ele>12.0</ele><time>2026-04-30T07:14:03.742Z</time></trkpt><trkpt lat="41.1440175" lon="9.4264789"><ele>12.0</ele><time>2026-04-30T07:14:04.742Z</time></trkpt><trkpt lat="41.1442026" lon="9.4263698"><ele>12.0</ele><time>2026-04-30T07:14:05.742Z</time></trkpt><trkpt lat="41.1443864" lon="9.4262604"><ele>13.0</ele><time>2026-04-30T07:14:06.742Z</time></trkpt><trkpt lat="41.1445573" lon="9.4261631"><ele>14.0</ele><time>2026-04-30T07:14:07.741Z</time></trkpt><trkpt lat="41.1447179" lon="9.4260985"><ele>15.0</ele><time>2026-04-30T07:14:08.742Z</time></trkpt><trkpt lat="41.144883" lon="9.42607"><ele>15.0</ele><time>2026-04-30T07:14:09.742Z</time></trkpt><trkpt lat="41.1450543" lon="9.4260632"><ele>15.0</ele><time>2026-04-30T07:14:10.742Z</time></trkpt><trkpt lat="41.1452337" lon="9.4260645"><ele>15.0</ele><time>2026-04-30T07:14:11.742Z</time></trkpt><trkpt lat="41.1454206" lon="9.4260658"><ele>15.0</ele><time>2026-04-30T07:14:12.742Z</time></trkpt><trkpt lat="41.1456103" lon="9.4260691"><ele>15.0</ele><time>2026-04-30T07:14:13.741Z</time></trkpt><trkpt lat="41.1458071" lon="9.4260683"><ele>15.0</ele><time>2026-04-30T07:14:14.742Z</time></trkpt><trkpt lat="41.1460045" lon="9.4260686"><ele>15.333333333333332</ele><time>2026-04-30T07:14:15.742Z</time></trkpt><trkpt lat="41.1462081" lon="9.4260739"><ele>15.666666666666666</ele><time>2026-04-30T07:14:16.742Z</time></trkpt><trkpt lat="41.1464174" lon="9.4260816"><ele>16.0</ele><time>2026-04-30T07:14:17.742Z</time></trkpt><trkpt lat="41.1466197" lon="9.4260808"><ele>15.333333333333332</ele><time>2026-04-30T07:14:18.741Z</time></trkpt><trkpt lat="41.1468148" lon="9.4260757"><ele>14.666666666666668</ele><time>2026-04-30T07:14:19.742Z</time></trkpt><trkpt lat="41.1470046" lon="9.4260688"><ele>14.0</ele><time>2026-04-30T07:14:20.741Z</time></trkpt><trkpt lat="41.1471883" lon="9.4260634"><ele>14.0</ele><time>2026-04-30T07:14:21.742Z</time></trkpt><trkpt lat="41.147362" lon="9.4260626"><ele>14.0</ele><time>2026-04-30T07:14:22.741Z</time></trkpt><trkpt lat="41.1475255" lon="9.426071"><ele>14.0</ele><time>2026-04-30T07:14:23.742Z</time></trkpt><trkpt lat="41.1476764" lon="9.4260984"><ele>13.75</ele><time>2026-04-30T07:14:24.742Z</time></trkpt><trkpt lat="41.1478089" lon="9.4261587"><ele>13.5</ele><time>2026-04-30T07:14:25.741Z</time></trkpt><trkpt lat="41.1479339" lon="9.4262452"><ele>13.25</ele><time>2026-04-30T07:14:26.742Z</time></trkpt><trkpt lat="41.148055" lon="9.4263495"><ele>13.0</ele><time>2026-04-30T07:14:27.742Z</time></trkpt><trkpt lat="41.1481836" lon="9.4264573"><ele>14.25</ele><time>2026-04-30T07:14:28.742Z</time></trkpt><trkpt lat="41.1483118" lon="9.4265572"><ele>15.5</ele><time>2026-04-30T07:14:29.742Z</time></trkpt><trkpt lat="41.1484415" lon="9.4266382"><ele>16.75</ele><time>2026-04-30T07:14:30.742Z</time></trkpt><trkpt lat="41.148583" lon="9.4267032"><ele>18.0</ele><time>2026-04-30T07:14:31.741Z</time></trkpt><trkpt lat="41.1487374" lon="9.426765"><ele>18.0</ele><time>2026-04-30T07:14:32.741Z</time></trkpt><trkpt lat="41.1489071" lon="9.4268301"><ele>18.0</ele><time>2026-04-30T07:14:33.742Z</time></trkpt><trkpt lat="41.1490838" lon="9.4269006"><ele>18.0</ele><time>2026-04-30T07:14:34.742Z</time></trkpt><trkpt lat="41.149267" lon="9.4269744"><ele>18.666666666666668</ele><time>2026-04-30T07:14:35.742Z</time></trkpt><trkpt lat="41.1494504" lon="9.4270489"><ele>19.333333333333336</ele><time>2026-04-30T07:14:36.741Z</time></trkpt><trkpt lat="41.1496358" lon="9.4271236"><ele>20.0</ele><time>2026-04-30T07:14:37.742Z</time></trkpt><trkpt lat="41.1498216" lon="9.4271987"><ele>21.666666666666668</ele><time>2026-04-30T07:14:38.742Z</time></trkpt><trkpt lat="41.1500067" lon="9.4272703"><ele>23.333333333333336</ele><time>2026-04-30T07:14:39.741Z</time></trkpt><trkpt lat="41.1501836" lon="9.4273327"><ele>25.0</ele><time>2026-04-30T07:14:40.741Z</time></trkpt><trkpt lat="41.1503508" lon="9.4273818"><ele>25.0</ele><time>2026-04-30T07:14:41.742Z</time></trkpt><trkpt lat="41.1505116" lon="9.4274062"><ele>25.0</ele><time>2026-04-30T07:14:42.742Z</time></trkpt><trkpt lat="41.1506686" lon="9.4273915"><ele>25.0</ele><time>2026-04-30T07:14:43.742Z</time></trkpt><trkpt lat="41.1508283" lon="9.4273504"><ele>24.666666666666668</ele><time>2026-04-30T07:14:44.742Z</time></trkpt><trkpt lat="41.1509927" lon="9.4272922"><ele>24.333333333333336</ele><time>2026-04-30T07:14:45.742Z</time></trkpt><trkpt lat="41.1511669" lon="9.4272274"><ele>24.0</ele><time>2026-04-30T07:14:46.742Z</time></trkpt><trkpt lat="41.1513451" lon="9.4271581"><ele>24.0</ele><time>2026-04-30T07:14:47.742Z</time></trkpt><trkpt lat="41.151518" lon="9.427089"><ele>24.0</ele><time>2026-04-30T07:14:48.742Z</time></trkpt><trkpt lat="41.1516873" lon="9.4270174"><ele>24.0</ele><time>2026-04-30T07:14:49.742Z</time></trkpt><trkpt lat="41.1518541" lon="9.4269449"><ele>24.0</ele><time>2026-04-30T07:14:50.742Z</time></trkpt><trkpt lat="41.1520171" lon="9.4268726"><ele>24.0</ele><time>2026-04-30T07:14:51.742Z</time></trkpt><trkpt lat="41.1521758" lon="9.4268083"><ele>24.0</ele><time>2026-04-30T07:14:52.741Z</time></trkpt><trkpt lat="41.1523312" lon="9.4267648"><ele>23.25</ele><time>2026-04-30T07:14:53.742Z</time></trkpt><trkpt lat="41.1524803" lon="9.4267376"><ele>22.5</ele><time>2026-04-30T07:14:54.742Z</time></trkpt><trkpt lat="41.1526232" lon="9.4267149"><ele>21.75</ele><time>2026-04-30T07:14:55.742Z</time></trkpt><trkpt lat="41.1527548" lon="9.4266707"><ele>21.0</ele><time>2026-04-30T07:14:56.742Z</time></trkpt><trkpt lat="41.1528788" lon="9.4265885"><ele>21.0</ele><time>2026-04-30T07:14:57.742Z</time></trkpt><trkpt lat="41.1529908" lon="9.4264748"><ele>21.0</ele><time>2026-04-30T07:14:58.741Z</time></trkpt><trkpt lat="41.1531025" lon="9.4263414"><ele>21.0</ele><time>2026-04-30T07:14:59.742Z</time></trkpt><trkpt lat="41.153221" lon="9.4261892"><ele>21.666666666666668</ele><time>2026-04-30T07:15:00.742Z</time></trkpt><trkpt lat="41.1533441" lon="9.4260266"><ele>22.333333333333336</ele><time>2026-04-30T07:15:01.742Z</time></trkpt><trkpt lat="41.15346" lon="9.4258705"><ele>23.0</ele><time>2026-04-30T07:15:02.742Z</time></trkpt><trkpt lat="41.1535809" lon="9.4257208"><ele>23.0</ele><time>2026-04-30T07:15:03.742Z</time></trkpt><trkpt lat="41.1537033" lon="9.4255951"><ele>23.0</ele><time>2026-04-30T07:15:04.742Z</time></trkpt><trkpt lat="41.1538269" lon="9.4254858"><ele>23.0</ele><time>2026-04-30T07:15:05.742Z</time></trkpt><trkpt lat="41.1539405" lon="9.4253787"><ele>23.0</ele><time>2026-04-30T07:15:06.742Z</time></trkpt><trkpt lat="41.1540382" lon="9.4252461"><ele>21.75</ele><time>2026-04-30T07:15:07.741Z</time></trkpt><trkpt lat="41.1541216" lon="9.4250939"><ele>20.5</ele><time>2026-04-30T07:15:08.742Z</time></trkpt><trkpt lat="41.1541962" lon="9.4249214"><ele>19.25</ele><time>2026-04-30T07:15:09.742Z</time></trkpt><trkpt lat="41.1542706" lon="9.4247425"><ele>18.0</ele><time>2026-04-30T07:15:10.742Z</time></trkpt><trkpt lat="41.1543386" lon="9.4245709"><ele>18.0</ele><time>2026-04-30T07:15:11.742Z</time></trkpt><trkpt lat="41.1543907" lon="9.424413"><ele>18.0</ele><time>2026-04-30T07:15:12.741Z</time></trkpt><trkpt lat="41.1544179" lon="9.4242585"><ele>18.0</ele><time>2026-04-30T07:15:13.742Z</time></trkpt><trkpt lat="41.1544108" lon="9.4241115"><ele>18.0</ele><time>2026-04-30T07:15:14.742Z</time></trkpt><trkpt lat="41.1543676" lon="9.423967"><ele>18.0</ele><time>2026-04-30T07:15:15.742Z</time></trkpt><trkpt lat="41.1542972" lon="9.4238313"><ele>18.0</ele><time>2026-04-30T07:15:16.742Z</time></trkpt><trkpt lat="41.1542154" lon="9.4236982"><ele>18.0</ele><time>2026-04-30T07:15:17.742Z</time></trkpt><trkpt lat="41.1541501" lon="9.4235655"><ele>18.0</ele><time>2026-04-30T07:15:18.742Z</time></trkpt><trkpt lat="41.154119" lon="9.4234174"><ele>17.5</ele><time>2026-04-30T07:15:19.742Z</time></trkpt><trkpt lat="41.1541183" lon="9.4232541"><ele>17.0</ele><time>2026-04-30T07:15:20.742Z</time></trkpt><trkpt lat="41.1541314" lon="9.4230651"><ele>16.5</ele><time>2026-04-30T07:15:21.742Z</time></trkpt><trkpt lat="41.154152" lon="9.422856"><ele>16.0</ele><time>2026-04-30T07:15:22.742Z</time></trkpt><trkpt lat="41.1541675" lon="9.4226522"><ele>16.0</ele><time>2026-04-30T07:15:23.742Z</time></trkpt><trkpt lat="41.1541651" lon="9.4224568"><ele>16.0</ele><time>2026-04-30T07:15:24.742Z</time></trkpt><trkpt lat="41.1541486" lon="9.4222531"><ele>16.0</ele><time>2026-04-30T07:15:25.742Z</time></trkpt><trkpt lat="41.154118" lon="9.4220444"><ele>14.25</ele><time>2026-04-30T07:15:26.742Z</time></trkpt><trkpt lat="41.1540853" lon="9.4218419"><ele>12.5</ele><time>2026-04-30T07:15:27.741Z</time></trkpt><trkpt lat="41.1540652" lon="9.4216533"><ele>10.75</ele><time>2026-04-30T07:15:28.742Z</time></trkpt><trkpt lat="41.154071" lon="9.4214724"><ele>9.0</ele><time>2026-04-30T07:15:29.742Z</time></trkpt><trkpt lat="41.1540988" lon="9.4212703"><ele>8.666666666666666</ele><time>2026-04-30T07:15:30.742Z</time></trkpt><trkpt lat="41.1541411" lon="9.4210499"><ele>8.333333333333332</ele><time>2026-04-30T07:15:31.742Z</time></trkpt><trkpt lat="41.1542034" lon="9.4208337"><ele>8.0</ele><time>2026-04-30T07:15:32.742Z</time></trkpt><trkpt lat="41.1542777" lon="9.4206159"><ele>7.666666666666666</ele><time>2026-04-30T07:15:33.742Z</time></trkpt><trkpt lat="41.1543486" lon="9.4204095"><ele>7.333333333333334</ele><time>2026-04-30T07:15:34.741Z</time></trkpt><trkpt lat="41.1544182" lon="9.4202341"><ele>7.0</ele><time>2026-04-30T07:15:35.742Z</time></trkpt><trkpt lat="41.1544968" lon="9.4200966"><ele>7.0</ele><time>2026-04-30T07:15:36.742Z</time></trkpt><trkpt lat="41.1545929" lon="9.419976"><ele>7.0</ele><time>2026-04-30T07:15:37.742Z</time></trkpt><trkpt lat="41.1547082" lon="9.4198666"><ele>7.0</ele><time>2026-04-30T07:15:38.742Z</time></trkpt><trkpt lat="41.1548338" lon="9.4197545"><ele>7.0</ele><time>2026-04-30T07:15:39.742Z</time></trkpt><trkpt lat="41.154956" lon="9.4196274"><ele>6.25</ele><time>2026-04-30T07:15:40.742Z</time></trkpt><trkpt lat="41.1550556" lon="9.419492"><ele>5.5</ele><time>2026-04-30T07:15:41.742Z</time></trkpt><trkpt lat="41.1551439" lon="9.4193434"><ele>4.75</ele><time>2026-04-30T07:15:42.742Z</time></trkpt><trkpt lat="41.1552141" lon="9.4191786"><ele>4.0</ele><time>2026-04-30T07:15:43.742Z</time></trkpt><trkpt lat="41.1552773" lon="9.4189974"><ele>6.0</ele><time>2026-04-30T07:15:44.742Z</time></trkpt><trkpt lat="41.1553492" lon="9.4188048"><ele>8.0</ele><time>2026-04-30T07:15:45.742Z</time></trkpt><trkpt lat="41.155434" lon="9.4186138"><ele>10.0</ele><time>2026-04-30T07:15:46.741Z</time></trkpt><trkpt lat="41.1555304" lon="9.4184303"><ele>10.0</ele><time>2026-04-30T07:15:47.742Z</time></trkpt><trkpt lat="41.1556231" lon="9.4182677"><ele>10.0</ele><time>2026-04-30T07:15:48.742Z</time></trkpt><trkpt lat="41.1557088" lon="9.4181027"><ele>10.0</ele><time>2026-04-30T07:15:49.742Z</time></trkpt><trkpt lat="41.1557818" lon="9.4179254"><ele>8.333333333333334</ele><time>2026-04-30T07:15:50.742Z</time></trkpt><trkpt lat="41.155838" lon="9.4177412"><ele>6.666666666666667</ele><time>2026-04-30T07:15:51.742Z</time></trkpt><trkpt lat="41.1558812" lon="9.417549"><ele>5.0</ele><time>2026-04-30T07:15:52.742Z</time></trkpt><trkpt lat="41.1559003" lon="9.417346"><ele>5.666666666666667</ele><time>2026-04-30T07:15:53.741Z</time></trkpt><trkpt lat="41.1558988" lon="9.4171327"><ele>6.333333333333334</ele><time>2026-04-30T07:15:54.742Z</time></trkpt><trkpt lat="41.1558798" lon="9.416906"><ele>7.0</ele><time>2026-04-30T07:15:55.741Z</time></trkpt><trkpt lat="41.1558496" lon="9.4167062"><ele>7.0</ele><time>2026-04-30T07:15:56.742Z</time></trkpt><trkpt lat="41.1558125" lon="9.416522"><ele>7.0</ele><time>2026-04-30T07:15:57.742Z</time></trkpt><trkpt lat="41.1557849" lon="9.4163582"><ele>7.0</ele><time>2026-04-30T07:15:58.742Z</time></trkpt><trkpt lat="41.1557913" lon="9.4162005"><ele>7.0</ele><time>2026-04-30T07:15:59.741Z</time></trkpt><trkpt lat="41.1558302" lon="9.4160502"><ele>7.0</ele><time>2026-04-30T07:16:00.742Z</time></trkpt><trkpt lat="41.1558786" lon="9.4158905"><ele>7.0</ele><time>2026-04-30T07:16:01.742Z</time></trkpt><trkpt lat="41.1559204" lon="9.4157013"><ele>7.0</ele><time>2026-04-30T07:16:02.741Z</time></trkpt><trkpt lat="41.1559592" lon="9.4155114"><ele>7.0</ele><time>2026-04-30T07:16:03.742Z</time></trkpt><trkpt lat="41.1559989" lon="9.4153407"><ele>7.0</ele><time>2026-04-30T07:16:04.742Z</time></trkpt><trkpt lat="41.1560226" lon="9.4151597"><ele>7.0</ele><time>2026-04-30T07:16:05.742Z</time></trkpt><trkpt lat="41.1560243" lon="9.4149612"><ele>7.0</ele><time>2026-04-30T07:16:06.741Z</time></trkpt><trkpt lat="41.1560143" lon="9.4147428"><ele>7.0</ele><time>2026-04-30T07:16:07.742Z</time></trkpt><trkpt lat="41.1560003" lon="9.41452"><ele>7.0</ele><time>2026-04-30T07:16:08.742Z</time></trkpt><trkpt lat="41.1559817" lon="9.41431"><ele>7.0</ele><time>2026-04-30T07:16:09.742Z</time></trkpt><trkpt lat="41.155951" lon="9.4140903"><ele>7.0</ele><time>2026-04-30T07:16:10.742Z</time></trkpt><trkpt lat="41.1559128" lon="9.4138678"><ele>7.0</ele><time>2026-04-30T07:16:11.741Z</time></trkpt><trkpt lat="41.155869" lon="9.4136369"><ele>7.0</ele><time>2026-04-30T07:16:12.742Z</time></trkpt><trkpt lat="41.1558253" lon="9.4134018"><ele>6.333333333333334</ele><time>2026-04-30T07:16:13.742Z</time></trkpt><trkpt lat="41.1557809" lon="9.4131627"><ele>5.666666666666667</ele><time>2026-04-30T07:16:14.742Z</time></trkpt><trkpt lat="41.155735" lon="9.4129226"><ele>5.0</ele><time>2026-04-30T07:16:15.742Z</time></trkpt><trkpt lat="41.1556884" lon="9.4126868"><ele>6.0</ele><time>2026-04-30T07:16:16.742Z</time></trkpt><trkpt lat="41.1556443" lon="9.4124617"><ele>7.0</ele><time>2026-04-30T07:16:17.742Z</time></trkpt><trkpt lat="41.1555966" lon="9.4122263"><ele>8.0</ele><time>2026-04-30T07:16:18.742Z</time></trkpt><trkpt lat="41.1555405" lon="9.4119944"><ele>8.0</ele><time>2026-04-30T07:16:19.742Z</time></trkpt><trkpt lat="41.1554699" lon="9.4117875"><ele>8.0</ele><time>2026-04-30T07:16:20.742Z</time></trkpt><trkpt lat="41.1553764" lon="9.4116052"><ele>8.0</ele><time>2026-04-30T07:16:21.742Z</time></trkpt><trkpt lat="41.155267" lon="9.4114596"><ele>8.0</ele><time>2026-04-30T07:16:22.742Z</time></trkpt><trkpt lat="41.1551684" lon="9.4113282"><ele>8.0</ele><time>2026-04-30T07:16:23.742Z</time></trkpt><trkpt lat="41.1550941" lon="9.4112095"><ele>8.0</ele><time>2026-04-30T07:16:24.741Z</time></trkpt><trkpt lat="41.1550523" lon="9.4110754"><ele>8.0</ele><time>2026-04-30T07:16:25.742Z</time></trkpt><trkpt lat="41.1550512" lon="9.4109506"><ele>7.2</ele><time>2026-04-30T07:16:26.742Z</time></trkpt><trkpt lat="41.1550838" lon="9.4108417"><ele>6.4</ele><time>2026-04-30T07:16:27.742Z</time></trkpt><trkpt lat="41.1551476" lon="9.410745"><ele>5.6000000000000005</ele><time>2026-04-30T07:16:28.741Z</time></trkpt><trkpt lat="41.155216" lon="9.4106329"><ele>4.800000000000001</ele><time>2026-04-30T07:16:29.741Z</time></trkpt><trkpt lat="41.1552646" lon="9.410483"><ele>4.0</ele><time>2026-04-30T07:16:30.742Z</time></trkpt><trkpt lat="41.1552999" lon="9.4103006"><ele>6.666666666666666</ele><time>2026-04-30T07:16:31.742Z</time></trkpt><trkpt lat="41.1553255" lon="9.4101012"><ele>9.333333333333334</ele><time>2026-04-30T07:16:32.742Z</time></trkpt><trkpt lat="41.1553458" lon="9.4098885"><ele>12.0</ele><time>2026-04-30T07:16:33.742Z</time></trkpt><trkpt lat="41.1553611" lon="9.4096842"><ele>11.75</ele><time>2026-04-30T07:16:34.742Z</time></trkpt><trkpt lat="41.1553707" lon="9.4094982"><ele>11.5</ele><time>2026-04-30T07:16:35.742Z</time></trkpt><trkpt lat="41.1553734" lon="9.4093206"><ele>11.25</ele><time>2026-04-30T07:16:36.742Z</time></trkpt><trkpt lat="41.1553601" lon="9.4091546"><ele>11.0</ele><time>2026-04-30T07:16:37.741Z</time></trkpt><trkpt lat="41.1553284" lon="9.4090026"><ele>11.0</ele><time>2026-04-30T07:16:38.742Z</time></trkpt><trkpt lat="41.1552585" lon="9.408877"><ele>11.0</ele><time>2026-04-30T07:16:39.742Z</time></trkpt><trkpt lat="41.1551718" lon="9.4087615"><ele>11.0</ele><time>2026-04-30T07:16:40.742Z</time></trkpt><trkpt lat="41.1550942" lon="9.4086507"><ele>11.0</ele><time>2026-04-30T07:16:41.742Z</time></trkpt><trkpt lat="41.1550454" lon="9.4085291"><ele>10.200000000000001</ele><time>2026-04-30T07:16:42.742Z</time></trkpt><trkpt lat="41.1550352" lon="9.408407"><ele>9.4</ele><time>2026-04-30T07:16:43.742Z</time></trkpt><trkpt lat="41.1550644" lon="9.4082983"><ele>8.6</ele><time>2026-04-30T07:16:44.742Z</time></trkpt><trkpt lat="41.1551287" lon="9.408191"><ele>7.8</ele><time>2026-04-30T07:16:45.742Z</time></trkpt><trkpt lat="41.1552226" lon="9.4080789"><ele>7.0</ele><time>2026-04-30T07:16:46.742Z</time></trkpt><trkpt lat="41.1553487" lon="9.4079505"><ele>6.666666666666667</ele><time>2026-04-30T07:16:47.742Z</time></trkpt><trkpt lat="41.1554979" lon="9.407814"><ele>6.333333333333334</ele><time>2026-04-30T07:16:48.741Z</time></trkpt><trkpt lat="41.1556254" lon="9.4077004"><ele>6.0</ele><time>2026-04-30T07:16:49.742Z</time></trkpt><trkpt lat="41.1557635" lon="9.4075823"><ele>6.0</ele><time>2026-04-30T07:16:50.742Z</time></trkpt><trkpt lat="41.1559003" lon="9.407463"><ele>6.0</ele><time>2026-04-30T07:16:51.741Z</time></trkpt><trkpt lat="41.1560224" lon="9.4073511"><ele>6.0</ele><time>2026-04-30T07:16:52.742Z</time></trkpt><trkpt lat="41.1561316" lon="9.4072297"><ele>7.25</ele><time>2026-04-30T07:16:53.741Z</time></trkpt><trkpt lat="41.1562262" lon="9.4070878"><ele>8.5</ele><time>2026-04-30T07:16:54.742Z</time></trkpt><trkpt lat="41.1563097" lon="9.406929"><ele>9.75</ele><time>2026-04-30T07:16:55.741Z</time></trkpt><trkpt lat="41.1563897" lon="9.4067612"><ele>11.0</ele><time>2026-04-30T07:16:56.742Z</time></trkpt><trkpt lat="41.1564643" lon="9.4065871"><ele>11.0</ele><time>2026-04-30T07:16:57.742Z</time></trkpt><trkpt lat="41.1565327" lon="9.4064259"><ele>11.0</ele><time>2026-04-30T07:16:58.742Z</time></trkpt><trkpt lat="41.1565984" lon="9.4062686"><ele>11.0</ele><time>2026-04-30T07:16:59.742Z</time></trkpt><trkpt lat="41.1566688" lon="9.4061126"><ele>11.0</ele><time>2026-04-30T07:17:00.741Z</time></trkpt><trkpt lat="41.1567401" lon="9.4059545"><ele>11.0</ele><time>2026-04-30T07:17:01.742Z</time></trkpt><trkpt lat="41.1568037" lon="9.4057893"><ele>11.0</ele><time>2026-04-30T07:17:02.742Z</time></trkpt><trkpt lat="41.15685" lon="9.4056151"><ele>11.0</ele><time>2026-04-30T07:17:03.741Z</time></trkpt><trkpt lat="41.1568733" lon="9.4054357"><ele>11.0</ele><time>2026-04-30T07:17:04.742Z</time></trkpt><trkpt lat="41.1568754" lon="9.405252"><ele>11.0</ele><time>2026-04-30T07:17:05.742Z</time></trkpt><trkpt lat="41.1568557" lon="9.4050689"><ele>11.0</ele><time>2026-04-30T07:17:06.741Z</time></trkpt><trkpt lat="41.1568131" lon="9.4049037"><ele>11.0</ele><time>2026-04-30T07:17:07.742Z</time></trkpt><trkpt lat="41.1567483" lon="9.4047458"><ele>11.0</ele><time>2026-04-30T07:17:08.742Z</time></trkpt><trkpt lat="41.1566665" lon="9.4045954"><ele>10.5</ele><time>2026-04-30T07:17:09.742Z</time></trkpt><trkpt lat="41.1565864" lon="9.4044523"><ele>10.0</ele><time>2026-04-30T07:17:10.742Z</time></trkpt><trkpt lat="41.1565199" lon="9.4043105"><ele>9.5</ele><time>2026-04-30T07:17:11.742Z</time></trkpt><trkpt lat="41.1564659" lon="9.4041765"><ele>9.0</ele><time>2026-04-30T07:17:12.742Z</time></trkpt><trkpt lat="41.1564221" lon="9.4040492"><ele>10.6</ele><time>2026-04-30T07:17:13.742Z</time></trkpt><trkpt lat="41.1563923" lon="9.4039248"><ele>12.2</ele><time>2026-04-30T07:17:14.742Z</time></trkpt><trkpt lat="41.1563867" lon="9.4037892"><ele>13.799999999999999</ele><time>2026-04-30T07:17:15.742Z</time></trkpt><trkpt lat="41.1563992" lon="9.4036366"><ele>15.4</ele><time>2026-04-30T07:17:16.741Z</time></trkpt><trkpt lat="41.1564202" lon="9.4034689"><ele>17.0</ele><time>2026-04-30T07:17:17.742Z</time></trkpt><trkpt lat="41.1564312" lon="9.4032988"><ele>17.0</ele><time>2026-04-30T07:17:18.741Z</time></trkpt><trkpt lat="41.1564401" lon="9.4031335"><ele>17.0</ele><time>2026-04-30T07:17:19.742Z</time></trkpt><trkpt lat="41.1564535" lon="9.4029749"><ele>17.0</ele><time>2026-04-30T07:17:20.741Z</time></trkpt><trkpt lat="41.1564721" lon="9.4028329"><ele>17.0</ele><time>2026-04-30T07:17:21.742Z</time></trkpt><trkpt lat="41.1565003" lon="9.4026847"><ele>16.75</ele><time>2026-04-30T07:17:22.741Z</time></trkpt><trkpt lat="41.1565383" lon="9.4025223"><ele>16.5</ele><time>2026-04-30T07:17:23.741Z</time></trkpt><trkpt lat="41.1565865" lon="9.4023491"><ele>16.25</ele><time>2026-04-30T07:17:24.741Z</time></trkpt><trkpt lat="41.1566424" lon="9.4021594"><ele>16.0</ele><time>2026-04-30T07:17:25.742Z</time></trkpt><trkpt lat="41.1567054" lon="9.4019577"><ele>16.0</ele><time>2026-04-30T07:17:26.742Z</time></trkpt><trkpt lat="41.1567729" lon="9.4017412"><ele>16.0</ele><time>2026-04-30T07:17:27.741Z</time></trkpt><trkpt lat="41.1568446" lon="9.4015133"><ele>16.0</ele><time>2026-04-30T07:17:28.741Z</time></trkpt><trkpt lat="41.1569187" lon="9.4012793"><ele>18.666666666666664</ele><time>2026-04-30T07:17:29.741Z</time></trkpt><trkpt lat="41.1569965" lon="9.4010411"><ele>21.333333333333332</ele><time>2026-04-30T07:17:30.742Z</time></trkpt><trkpt lat="41.1570819" lon="9.400804"><ele>24.0</ele><time>2026-04-30T07:17:31.741Z</time></trkpt><trkpt lat="41.1571742" lon="9.400567"><ele>27.0</ele><time>2026-04-30T07:17:32.742Z</time></trkpt><trkpt lat="41.1572699" lon="9.4003286"><ele>30.0</ele><time>2026-04-30T07:17:33.742Z</time></trkpt><trkpt lat="41.1573612" lon="9.4000961"><ele>33.0</ele><time>2026-04-30T07:17:34.741Z</time></trkpt><trkpt lat="41.1574508" lon="9.399874"><ele>28.0</ele><time>2026-04-30T07:17:35.741Z</time></trkpt><trkpt lat="41.1575399" lon="9.3996581"><ele>23.0</ele><time>2026-04-30T07:17:36.742Z</time></trkpt><trkpt lat="41.1576369" lon="9.3994481"><ele>18.0</ele><time>2026-04-30T07:17:37.742Z</time></trkpt><trkpt lat="41.1577365" lon="9.3992492"><ele>18.0</ele><time>2026-04-30T07:17:38.742Z</time></trkpt><trkpt lat="41.1578389" lon="9.3990514"><ele>18.0</ele><time>2026-04-30T07:17:39.742Z</time></trkpt><trkpt lat="41.1579443" lon="9.3988545"><ele>18.0</ele><time>2026-04-30T07:17:40.742Z</time></trkpt><trkpt lat="41.1580511" lon="9.3986614"><ele>19.333333333333332</ele><time>2026-04-30T07:17:41.741Z</time></trkpt><trkpt lat="41.1581561" lon="9.3984719"><ele>20.666666666666664</ele><time>2026-04-30T07:17:42.742Z</time></trkpt><trkpt lat="41.158252" lon="9.3982962"><ele>22.0</ele><time>2026-04-30T07:17:43.742Z</time></trkpt><trkpt lat="41.1583372" lon="9.3981346"><ele>20.25</ele><time>2026-04-30T07:17:44.742Z</time></trkpt><trkpt lat="41.1584142" lon="9.3979922"><ele>18.5</ele><time>2026-04-30T07:17:45.742Z</time></trkpt><trkpt lat="41.1584841" lon="9.3978621"><ele>16.75</ele><time>2026-04-30T07:17:46.742Z</time></trkpt><trkpt lat="41.1585501" lon="9.3977477"><ele>15.0</ele><time>2026-04-30T07:17:47.742Z</time></trkpt><trkpt lat="41.1586206" lon="9.3976483"><ele>15.0</ele><time>2026-04-30T07:17:48.742Z</time></trkpt><trkpt lat="41.1586943" lon="9.3975556"><ele>15.0</ele><time>2026-04-30T07:17:49.742Z</time></trkpt><trkpt lat="41.1587713" lon="9.3974827"><ele>15.0</ele><time>2026-04-30T07:17:50.742Z</time></trkpt><trkpt lat="41.158853" lon="9.3974283"><ele>15.0</ele><time>2026-04-30T07:17:51.742Z</time></trkpt><trkpt lat="41.1589441" lon="9.397404"><ele>15.0</ele><time>2026-04-30T07:17:52.742Z</time></trkpt><trkpt lat="41.1590375" lon="9.3974129"><ele>13.5</ele><time>2026-04-30T07:17:53.741Z</time></trkpt><trkpt lat="41.159132" lon="9.3974547"><ele>12.0</ele><time>2026-04-30T07:17:54.742Z</time></trkpt><trkpt lat="41.1592268" lon="9.3975354"><ele>10.5</ele><time>2026-04-30T07:17:55.742Z</time></trkpt><trkpt lat="41.1593249" lon="9.3976438"><ele>9.0</ele><time>2026-04-30T07:17:56.742Z</time></trkpt><trkpt lat="41.1594249" lon="9.397768"><ele>9.0</ele><time>2026-04-30T07:17:57.742Z</time></trkpt><trkpt lat="41.1595385" lon="9.3979037"><ele>9.0</ele><time>2026-04-30T07:17:58.741Z</time></trkpt><trkpt lat="41.1596573" lon="9.3980485"><ele>9.0</ele><time>2026-04-30T07:17:59.742Z</time></trkpt><trkpt lat="41.1597774" lon="9.398186"><ele>9.666666666666666</ele><time>2026-04-30T07:18:00.742Z</time></trkpt><trkpt lat="41.1598976" lon="9.3983227"><ele>10.333333333333332</ele><time>2026-04-30T07:18:01.742Z</time></trkpt><trkpt lat="41.1600171" lon="9.3984567"><ele>11.0</ele><time>2026-04-30T07:18:02.741Z</time></trkpt><trkpt lat="41.1601393" lon="9.3985939"><ele>11.0</ele><time>2026-04-30T07:18:03.742Z</time></trkpt><trkpt lat="41.1602646" lon="9.3987313"><ele>11.0</ele><time>2026-04-30T07:18:04.741Z</time></trkpt><trkpt lat="41.1603882" lon="9.3988703"><ele>11.0</ele><time>2026-04-30T07:18:05.742Z</time></trkpt><trkpt lat="41.1605134" lon="9.3990125"><ele>10.333333333333332</ele><time>2026-04-30T07:18:06.742Z</time></trkpt><trkpt lat="41.1606354" lon="9.399147"><ele>9.666666666666666</ele><time>2026-04-30T07:18:07.742Z</time></trkpt><trkpt lat="41.1607546" lon="9.3992751"><ele>9.0</ele><time>2026-04-30T07:18:08.742Z</time></trkpt><trkpt lat="41.1608739" lon="9.3993999"><ele>9.5</ele><time>2026-04-30T07:18:09.741Z</time></trkpt><trkpt lat="41.160994" lon="9.3995217"><ele>10.0</ele><time>2026-04-30T07:18:10.742Z</time></trkpt><trkpt lat="41.1611125" lon="9.3996378"><ele>10.5</ele><time>2026-04-30T07:18:11.741Z</time></trkpt><trkpt lat="41.161235" lon="9.3997519"><ele>11.0</ele><time>2026-04-30T07:18:12.742Z</time></trkpt><trkpt lat="41.1613605" lon="9.3998695"><ele>11.0</ele><time>2026-04-30T07:18:13.741Z</time></trkpt><trkpt lat="41.1614854" lon="9.3999882"><ele>11.0</ele><time>2026-04-30T07:18:14.742Z</time></trkpt><trkpt lat="41.1616087" lon="9.400107"><ele>11.0</ele><time>2026-04-30T07:18:15.741Z</time></trkpt><trkpt lat="41.1617297" lon="9.4002219"><ele>11.0</ele><time>2026-04-30T07:18:16.742Z</time></trkpt><trkpt lat="41.1618529" lon="9.400344"><ele>11.0</ele><time>2026-04-30T07:18:17.742Z</time></trkpt><trkpt lat="41.1619798" lon="9.4004621"><ele>11.0</ele><time>2026-04-30T07:18:18.742Z</time></trkpt><trkpt lat="41.1621089" lon="9.4005787"><ele>11.0</ele><time>2026-04-30T07:18:19.741Z</time></trkpt><trkpt lat="41.1622369" lon="9.4006946"><ele>11.0</ele><time>2026-04-30T07:18:20.742Z</time></trkpt><trkpt lat="41.1623612" lon="9.4008056"><ele>11.0</ele><time>2026-04-30T07:18:21.742Z</time></trkpt><trkpt lat="41.1624927" lon="9.400919"><ele>11.0</ele><time>2026-04-30T07:18:22.742Z</time></trkpt><trkpt lat="41.1626299" lon="9.4010284"><ele>11.0</ele><time>2026-04-30T07:18:23.741Z</time></trkpt><trkpt lat="41.1627726" lon="9.4011418"><ele>11.0</ele><time>2026-04-30T07:18:24.741Z</time></trkpt><trkpt lat="41.1629182" lon="9.4012559"><ele>10.333333333333332</ele><time>2026-04-30T07:18:25.742Z</time></trkpt><trkpt lat="41.1630633" lon="9.4013784"><ele>9.666666666666666</ele><time>2026-04-30T07:18:26.742Z</time></trkpt><trkpt lat="41.1631936" lon="9.4015024"><ele>9.0</ele><time>2026-04-30T07:18:27.741Z</time></trkpt><trkpt lat="41.163305" lon="9.4016345"><ele>10.0</ele><time>2026-04-30T07:18:28.742Z</time></trkpt><trkpt lat="41.1634041" lon="9.4017803"><ele>11.0</ele><time>2026-04-30T07:18:29.742Z</time></trkpt><trkpt lat="41.163488" lon="9.4019229"><ele>12.0</ele><time>2026-04-30T07:18:30.742Z</time></trkpt><trkpt lat="41.163562" lon="9.4020507"><ele>13.0</ele><time>2026-04-30T07:18:31.741Z</time></trkpt><trkpt lat="41.1636399" lon="9.4021409"><ele>13.0</ele><time>2026-04-30T07:18:32.742Z</time></trkpt><trkpt lat="41.1637275" lon="9.4022011"><ele>13.0</ele><time>2026-04-30T07:18:33.742Z</time></trkpt><trkpt lat="41.1638189" lon="9.4022182"><ele>13.0</ele><time>2026-04-30T07:18:34.742Z</time></trkpt><trkpt lat="41.1639087" lon="9.4022028"><ele>13.0</ele><time>2026-04-30T07:18:35.742Z</time></trkpt><trkpt lat="41.1639941" lon="9.4021565"><ele>13.0</ele><time>2026-04-30T07:18:36.742Z</time></trkpt><trkpt lat="41.1640822" lon="9.4020833"><ele>16.0</ele><time>2026-04-30T07:18:37.742Z</time></trkpt><trkpt lat="41.1641747" lon="9.4019905"><ele>19.0</ele><time>2026-04-30T07:18:38.742Z</time></trkpt><trkpt lat="41.1642716" lon="9.4018947"><ele>22.0</ele><time>2026-04-30T07:18:39.742Z</time></trkpt><trkpt lat="41.1643695" lon="9.4018064"><ele>25.0</ele><time>2026-04-30T07:18:40.741Z</time></trkpt><trkpt lat="41.1644622" lon="9.4017408"><ele>25.0</ele><time>2026-04-30T07:18:41.741Z</time></trkpt><trkpt lat="41.1645593" lon="9.4017126"><ele>25.0</ele><time>2026-04-30T07:18:42.742Z</time></trkpt><trkpt lat="41.1646485" lon="9.40173"><ele>25.0</ele><time>2026-04-30T07:18:43.742Z</time></trkpt><trkpt lat="41.1647411" lon="9.4017832"><ele>25.0</ele><time>2026-04-30T07:18:44.742Z</time></trkpt><trkpt lat="41.1648341" lon="9.4018722"><ele>25.0</ele><time>2026-04-30T07:18:45.742Z</time></trkpt><trkpt lat="41.1649346" lon="9.4019841"><ele>27.0</ele><time>2026-04-30T07:18:46.742Z</time></trkpt><trkpt lat="41.1650466" lon="9.4021145"><ele>29.0</ele><time>2026-04-30T07:18:47.742Z</time></trkpt><trkpt lat="41.1651708" lon="9.4022494"><ele>31.0</ele><time>2026-04-30T07:18:48.741Z</time></trkpt><trkpt lat="41.1653" lon="9.402382"><ele>33.0</ele><time>2026-04-30T07:18:49.742Z</time></trkpt><trkpt lat="41.1654317" lon="9.402498"><ele>35.0</ele><time>2026-04-30T07:18:50.742Z</time></trkpt><trkpt lat="41.1655542" lon="9.4025948"><ele>37.0</ele><time>2026-04-30T07:18:51.742Z</time></trkpt><trkpt lat="41.16567" lon="9.4026871"><ele>39.0</ele><time>2026-04-30T07:18:52.742Z</time></trkpt><trkpt lat="41.1657803" lon="9.4027748"><ele>39.0</ele><time>2026-04-30T07:18:53.741Z</time></trkpt><trkpt lat="41.1658873" lon="9.4028616"><ele>39.0</ele><time>2026-04-30T07:18:54.742Z</time></trkpt><trkpt lat="41.1659903" lon="9.4029536"><ele>39.0</ele><time>2026-04-30T07:18:55.742Z</time></trkpt><trkpt lat="41.1660986" lon="9.4030418"><ele>39.0</ele><time>2026-04-30T07:18:56.742Z</time></trkpt><trkpt lat="41.166215" lon="9.4031102"><ele>40.25</ele><time>2026-04-30T07:18:57.742Z</time></trkpt><trkpt lat="41.1663375" lon="9.4031465"><ele>41.5</ele><time>2026-04-30T07:18:58.742Z</time></trkpt><trkpt lat="41.1664584" lon="9.4031439"><ele>42.75</ele><time>2026-04-30T07:18:59.741Z</time></trkpt><trkpt lat="41.1665665" lon="9.4030939"><ele>44.0</ele><time>2026-04-30T07:19:00.741Z</time></trkpt><trkpt lat="41.1666624" lon="9.4030097"><ele>44.25</ele><time>2026-04-30T07:19:01.742Z</time></trkpt><trkpt lat="41.1667468" lon="9.4029024"><ele>44.5</ele><time>2026-04-30T07:19:02.742Z</time></trkpt><trkpt lat="41.1668269" lon="9.402788"><ele>44.75</ele><time>2026-04-30T07:19:03.742Z</time></trkpt><trkpt lat="41.1669104" lon="9.4026669"><ele>45.0</ele><time>2026-04-30T07:19:04.742Z</time></trkpt><trkpt lat="41.1669958" lon="9.4025372"><ele>45.0</ele><time>2026-04-30T07:19:05.742Z</time></trkpt><trkpt lat="41.1670816" lon="9.4024045"><ele>45.0</ele><time>2026-04-30T07:19:06.742Z</time></trkpt><trkpt lat="41.1671595" lon="9.4022727"><ele>45.0</ele><time>2026-04-30T07:19:07.742Z</time></trkpt><trkpt lat="41.1672262" lon="9.4021389"><ele>45.0</ele><time>2026-04-30T07:19:08.742Z</time></trkpt><trkpt lat="41.1672766" lon="9.4019997"><ele>45.4</ele><time>2026-04-30T07:19:09.742Z</time></trkpt><trkpt lat="41.1673119" lon="9.4018634"><ele>45.8</ele><time>2026-04-30T07:19:10.741Z</time></trkpt><trkpt lat="41.1673406" lon="9.4017362"><ele>46.2</ele><time>2026-04-30T07:19:11.741Z</time></trkpt><trkpt lat="41.1673749" lon="9.4016154"><ele>46.6</ele><time>2026-04-30T07:19:12.741Z</time></trkpt><trkpt lat="41.1674293" lon="9.4015134"><ele>47.0</ele><time>2026-04-30T07:19:13.742Z</time></trkpt><trkpt lat="41.1675044" lon="9.4014271"><ele>49.8</ele><time>2026-04-30T07:19:14.742Z</time></trkpt><trkpt lat="41.1675969" lon="9.4013765"><ele>52.6</ele><time>2026-04-30T07:19:15.742Z</time></trkpt><trkpt lat="41.1676959" lon="9.4013658"><ele>55.39999999999999</ele><time>2026-04-30T07:19:16.742Z</time></trkpt><trkpt lat="41.1677931" lon="9.4013873"><ele>58.199999999999996</ele><time>2026-04-30T07:19:17.742Z</time></trkpt><trkpt lat="41.1678942" lon="9.4014216"><ele>61.0</ele><time>2026-04-30T07:19:18.742Z</time></trkpt><trkpt lat="41.1679991" lon="9.401464"><ele>61.0</ele><time>2026-04-30T07:19:19.742Z</time></trkpt><trkpt lat="41.1681081" lon="9.4015101"><ele>61.0</ele><time>2026-04-30T07:19:20.742Z</time></trkpt><trkpt lat="41.168223" lon="9.4015536"><ele>61.0</ele><time>2026-04-30T07:19:21.742Z</time></trkpt><trkpt lat="41.1683333" lon="9.4015991"><ele>61.0</ele><time>2026-04-30T07:19:22.742Z</time></trkpt><trkpt lat="41.1684375" lon="9.4016416"><ele>62.33333333333333</ele><time>2026-04-30T07:19:23.742Z</time></trkpt><trkpt lat="41.1685328" lon="9.4016858"><ele>63.666666666666664</ele><time>2026-04-30T07:19:24.741Z</time></trkpt><trkpt lat="41.1686182" lon="9.4017258"><ele>65.0</ele><time>2026-04-30T07:19:25.742Z</time></trkpt><trkpt lat="41.1686957" lon="9.4017692"><ele>66.33333333333333</ele><time>2026-04-30T07:19:26.742Z</time></trkpt><trkpt lat="41.1687702" lon="9.4018159"><ele>67.66666666666667</ele><time>2026-04-30T07:19:27.742Z</time></trkpt><trkpt lat="41.1688479" lon="9.4018704"><ele>69.0</ele><time>2026-04-30T07:19:28.742Z</time></trkpt><trkpt lat="41.1689265" lon="9.4019328"><ele>69.0</ele><time>2026-04-30T07:19:29.742Z</time></trkpt><trkpt lat="41.1690075" lon="9.4020007"><ele>69.0</ele><time>2026-04-30T07:19:30.742Z</time></trkpt><trkpt lat="41.1690973" lon="9.4020761"><ele>69.0</ele><time>2026-04-30T07:19:31.742Z</time></trkpt><trkpt lat="41.1691889" lon="9.4021499"><ele>69.0</ele><time>2026-04-30T07:19:32.742Z</time></trkpt><trkpt lat="41.1692756" lon="9.4022194"><ele>69.0</ele><time>2026-04-30T07:19:33.742Z</time></trkpt><trkpt lat="41.169354" lon="9.4022816"><ele>69.0</ele><time>2026-04-30T07:19:34.742Z</time></trkpt><trkpt lat="41.1694307" lon="9.4023189"><ele>69.0</ele><time>2026-04-30T07:19:35.742Z</time></trkpt><trkpt lat="41.1695021" lon="9.4023336"><ele>69.0</ele><time>2026-04-30T07:19:36.741Z</time></trkpt><trkpt lat="41.1696037" lon="9.4022782"><ele>69.0</ele><time>2026-04-30T07:19:38.742Z</time></trkpt><trkpt lat="41.1696311" lon="9.4021481"><ele>69.0</ele><time>2026-04-30T07:19:40.741Z</time></trkpt><trkpt lat="41.169624" lon="9.4020567"><ele>69.0</ele><time>2026-04-30T07:19:41.742Z</time></trkpt><trkpt lat="41.1695985" lon="9.4019441"><ele>69.0</ele><time>2026-04-30T07:19:42.742Z</time></trkpt><trkpt lat="41.1695721" lon="9.4018083"><ele>69.0</ele><time>2026-04-30T07:19:43.742Z</time></trkpt><trkpt lat="41.1695446" lon="9.4016497"><ele>69.0</ele><time>2026-04-30T07:19:44.742Z</time></trkpt><trkpt lat="41.1695139" lon="9.4014793"><ele>69.0</ele><time>2026-04-30T07:19:45.742Z</time></trkpt><trkpt lat="41.1694811" lon="9.4013075"><ele>70.0</ele><time>2026-04-30T07:19:46.741Z</time></trkpt><trkpt lat="41.1694487" lon="9.4011337"><ele>71.0</ele><time>2026-04-30T07:19:47.742Z</time></trkpt><trkpt lat="41.1694194" lon="9.4009547"><ele>72.0</ele><time>2026-04-30T07:19:48.742Z</time></trkpt><trkpt lat="41.1693869" lon="9.4007716"><ele>73.0</ele><time>2026-04-30T07:19:49.742Z</time></trkpt><trkpt lat="41.1693525" lon="9.4005816"><ele>74.33333333333333</ele><time>2026-04-30T07:19:50.741Z</time></trkpt><trkpt lat="41.169317" lon="9.4003814"><ele>75.66666666666667</ele><time>2026-04-30T07:19:51.742Z</time></trkpt><trkpt lat="41.1692799" lon="9.4001685"><ele>77.0</ele><time>2026-04-30T07:19:52.742Z</time></trkpt><trkpt lat="41.1692401" lon="9.3999449"><ele>77.0</ele><time>2026-04-30T07:19:53.741Z</time></trkpt><trkpt lat="41.1691949" lon="9.3997051"><ele>77.0</ele><time>2026-04-30T07:19:54.742Z</time></trkpt><trkpt lat="41.1691514" lon="9.3994692"><ele>77.0</ele><time>2026-04-30T07:19:55.741Z</time></trkpt><trkpt lat="41.1691089" lon="9.3992523"><ele>76.33333333333334</ele><time>2026-04-30T07:19:56.742Z</time></trkpt><trkpt lat="41.1690597" lon="9.3990484"><ele>75.66666666666667</ele><time>2026-04-30T07:19:57.741Z</time></trkpt><trkpt lat="41.1690027" lon="9.3988467"><ele>75.0</ele><time>2026-04-30T07:19:58.742Z</time></trkpt><trkpt lat="41.1689404" lon="9.3986444"><ele>76.66666666666667</ele><time>2026-04-30T07:19:59.742Z</time></trkpt><trkpt lat="41.1688744" lon="9.3984339"><ele>78.33333333333334</ele><time>2026-04-30T07:20:00.741Z</time></trkpt><trkpt lat="41.1688084" lon="9.3982322"><ele>80.0</ele><time>2026-04-30T07:20:01.741Z</time></trkpt><trkpt lat="41.1687474" lon="9.3980383"><ele>81.33333333333334</ele><time>2026-04-30T07:20:02.741Z</time></trkpt><trkpt lat="41.1686842" lon="9.3978462"><ele>82.66666666666667</ele><time>2026-04-30T07:20:03.742Z</time></trkpt><trkpt lat="41.1686213" lon="9.3976484"><ele>84.0</ele><time>2026-04-30T07:20:04.742Z</time></trkpt><trkpt lat="41.1685568" lon="9.3974518"><ele>84.0</ele><time>2026-04-30T07:20:05.742Z</time></trkpt><trkpt lat="41.1684935" lon="9.3972544"><ele>84.0</ele><time>2026-04-30T07:20:06.742Z</time></trkpt><trkpt lat="41.1684297" lon="9.3970529"><ele>84.0</ele><time>2026-04-30T07:20:07.742Z</time></trkpt><trkpt lat="41.1683645" lon="9.3968522"><ele>85.66666666666667</ele><time>2026-04-30T07:20:08.742Z</time></trkpt><trkpt lat="41.1682981" lon="9.3966516"><ele>87.33333333333334</ele><time>2026-04-30T07:20:09.742Z</time></trkpt><trkpt lat="41.1682344" lon="9.3964516"><ele>89.0</ele><time>2026-04-30T07:20:10.741Z</time></trkpt><trkpt lat="41.1681738" lon="9.396263"><ele>89.75</ele><time>2026-04-30T07:20:11.742Z</time></trkpt><trkpt lat="41.1681277" lon="9.3960867"><ele>90.5</ele><time>2026-04-30T07:20:12.741Z</time></trkpt><trkpt lat="41.1681008" lon="9.3959168"><ele>91.25</ele><time>2026-04-30T07:20:13.742Z</time></trkpt><trkpt lat="41.1681062" lon="9.3957593"><ele>92.0</ele><time>2026-04-30T07:20:14.742Z</time></trkpt><trkpt lat="41.1681474" lon="9.3956179"><ele>94.0</ele><time>2026-04-30T07:20:15.742Z</time></trkpt><trkpt lat="41.1682085" lon="9.3954793"><ele>96.0</ele><time>2026-04-30T07:20:16.741Z</time></trkpt><trkpt lat="41.1682831" lon="9.3953306"><ele>98.0</ele><time>2026-04-30T07:20:17.741Z</time></trkpt><trkpt lat="41.1683625" lon="9.3951642"><ele>100.0</ele><time>2026-04-30T07:20:18.742Z</time></trkpt><trkpt lat="41.1684462" lon="9.3949927"><ele>100.0</ele><time>2026-04-30T07:20:19.742Z</time></trkpt><trkpt lat="41.1685286" lon="9.3948228"><ele>100.0</ele><time>2026-04-30T07:20:20.741Z</time></trkpt><trkpt lat="41.1686133" lon="9.394654"><ele>100.0</ele><time>2026-04-30T07:20:21.742Z</time></trkpt><trkpt lat="41.1686989" lon="9.3944911"><ele>101.5</ele><time>2026-04-30T07:20:22.742Z</time></trkpt><trkpt lat="41.1687825" lon="9.3943273"><ele>103.0</ele><time>2026-04-30T07:20:23.742Z</time></trkpt><trkpt lat="41.1688577" lon="9.394169"><ele>104.5</ele><time>2026-04-30T07:20:24.741Z</time></trkpt><trkpt lat="41.1689168" lon="9.3940057"><ele>106.0</ele><time>2026-04-30T07:20:25.742Z</time></trkpt><trkpt lat="41.1689562" lon="9.3938364"><ele>106.75</ele><time>2026-04-30T07:20:26.742Z</time></trkpt><trkpt lat="41.1689762" lon="9.3936554"><ele>107.5</ele><time>2026-04-30T07:20:27.742Z</time></trkpt><trkpt lat="41.1689906" lon="9.3934691"><ele>108.25</ele><time>2026-04-30T07:20:28.741Z</time></trkpt><trkpt lat="41.1690043" lon="9.3932693"><ele>109.0</ele><time>2026-04-30T07:20:29.742Z</time></trkpt><trkpt lat="41.1690138" lon="9.3930553"><ele>109.66666666666667</ele><time>2026-04-30T07:20:30.742Z</time></trkpt><trkpt lat="41.169025" lon="9.392829"><ele>110.33333333333334</ele><time>2026-04-30T07:20:31.742Z</time></trkpt><trkpt lat="41.1690445" lon="9.3926271"><ele>111.0</ele><time>2026-04-30T07:20:32.741Z</time></trkpt><trkpt lat="41.1690916" lon="9.3924708"><ele>111.0</ele><time>2026-04-30T07:20:33.742Z</time></trkpt><trkpt lat="41.1691584" lon="9.3923404"><ele>111.0</ele><time>2026-04-30T07:20:34.742Z</time></trkpt><trkpt lat="41.1692522" lon="9.392209"><ele>111.0</ele><time>2026-04-30T07:20:35.742Z</time></trkpt><trkpt lat="41.1693588" lon="9.3920698"><ele>111.0</ele><time>2026-04-30T07:20:36.742Z</time></trkpt><trkpt lat="41.1694665" lon="9.3919294"><ele>113.25</ele><time>2026-04-30T07:20:37.742Z</time></trkpt><trkpt lat="41.169573" lon="9.3917876"><ele>115.5</ele><time>2026-04-30T07:20:38.742Z</time></trkpt><trkpt lat="41.169672" lon="9.3916565"><ele>117.75</ele><time>2026-04-30T07:20:39.742Z</time></trkpt><trkpt lat="41.1697624" lon="9.3915417"><ele>120.0</ele><time>2026-04-30T07:20:40.742Z</time></trkpt><trkpt lat="41.1698399" lon="9.3914392"><ele>120.33333333333333</ele><time>2026-04-30T07:20:41.742Z</time></trkpt><trkpt lat="41.1699069" lon="9.391349"><ele>120.66666666666666</ele><time>2026-04-30T07:20:42.742Z</time></trkpt><trkpt lat="41.1699687" lon="9.3912729"><ele>121.0</ele><time>2026-04-30T07:20:43.742Z</time></trkpt><trkpt lat="41.1700231" lon="9.3912038"><ele>121.33333333333333</ele><time>2026-04-30T07:20:44.742Z</time></trkpt><trkpt lat="41.1700707" lon="9.3911404"><ele>121.66666666666666</ele><time>2026-04-30T07:20:45.742Z</time></trkpt><trkpt lat="41.1701469" lon="9.3910415"><ele>122.0</ele><time>2026-04-30T07:20:47.741Z</time></trkpt><trkpt lat="41.1702007" lon="9.3909781"><ele>121.99999999999999</ele><time>2026-04-30T07:20:49.742Z</time></trkpt><trkpt lat="41.170254" lon="9.390911"><ele>122.0</ele><time>2026-04-30T07:20:52.742Z</time></trkpt><trkpt lat="41.1703149" lon="9.3908616"><ele>121.99999999999999</ele><time>2026-04-30T07:20:56.742Z</time></trkpt><trkpt lat="41.1703813" lon="9.3908367"><ele>121.99999999999999</ele><time>2026-04-30T07:21:03.742Z</time></trkpt><trkpt lat="41.1703883" lon="9.3909323"><ele>122.0</ele><time>2026-04-30T07:21:21.742Z</time></trkpt><trkpt lat="41.1703057" lon="9.3909589"><ele>121.99999999999999</ele><time>2026-04-30T07:21:24.742Z</time></trkpt><trkpt lat="41.170243" lon="9.3910114"><ele>121.99999999999999</ele><time>2026-04-30T07:21:27.742Z</time></trkpt><trkpt lat="41.1702691" lon="9.3910894"><ele>121.99999999999999</ele><time>2026-04-30T07:21:30.742Z</time></trkpt><trkpt lat="41.1703245" lon="9.391047"><ele>122.0</ele><time>2026-04-30T07:21:44.742Z</time></trkpt><trkpt lat="41.1703687" lon="9.39098"><ele>121.99999999999999</ele><time>2026-04-30T07:23:17.742Z</time></trkpt><trkpt lat="41.1704263" lon="9.3909429"><ele>121.99999999999999</ele><time>2026-04-30T07:23:24.742Z</time></trkpt><trkpt lat="41.1704666" lon="9.3908754"><ele>122.0</ele><time>2026-04-30T07:23:34.741Z</time></trkpt><trkpt lat="41.1704643" lon="9.3909644"><ele>121.99999999999999</ele><time>2026-04-30T07:26:53.742Z</time></trkpt><trkpt lat="41.1704042" lon="9.3909278"><ele>121.99999999999999</ele><time>2026-04-30T07:28:15.742Z</time></trkpt><trkpt lat="41.170361" lon="9.3909908"><ele>121.99999999999999</ele><time>2026-04-30T07:29:09.742Z</time></trkpt><trkpt lat="41.1703393" lon="9.3910733"><ele>122.0</ele><time>2026-04-30T07:29:20.742Z</time></trkpt><trkpt lat="41.1703016" lon="9.391003"><ele>121.99999999999999</ele><time>2026-04-30T07:42:56.742Z</time></trkpt><trkpt lat="41.170281" lon="9.3909202"><ele>121.99999999999999</ele><time>2026-04-30T07:43:00.741Z</time></trkpt><trkpt lat="41.1703324" lon="9.3908393"><ele>122.0</ele><time>2026-04-30T07:43:11.741Z</time></trkpt><trkpt lat="41.1703869" lon="9.3907495"><ele>121.99999999999999</ele><time>2026-04-30T07:43:13.742Z</time></trkpt><trkpt lat="41.1704439" lon="9.3906727"><ele>121.99999999999999</ele><time>2026-04-30T07:43:15.741Z</time></trkpt><trkpt lat="41.1705051" lon="9.3906069"><ele>122.0</ele><time>2026-04-30T07:43:17.742Z</time></trkpt><trkpt lat="41.1705627" lon="9.3905198"><ele>121.99999999999999</ele><time>2026-04-30T07:43:20.742Z</time></trkpt><trkpt lat="41.1706117" lon="9.3904218"><ele>121.99999999999999</ele><time>2026-04-30T07:43:41.742Z</time></trkpt><trkpt lat="41.1706584" lon="9.3903067"><ele>122.0</ele><time>2026-04-30T07:43:43.742Z</time></trkpt><trkpt lat="41.1707206" lon="9.3901719"><ele>122.0</ele><time>2026-04-30T07:43:45.742Z</time></trkpt><trkpt lat="41.170755" lon="9.390097"><ele>121.33333333333333</ele><time>2026-04-30T07:43:46.742Z</time></trkpt><trkpt lat="41.1708171" lon="9.3899562"><ele>120.66666666666666</ele><time>2026-04-30T07:43:48.742Z</time></trkpt><trkpt lat="41.1708481" lon="9.3898812"><ele>120.0</ele><time>2026-04-30T07:43:49.742Z</time></trkpt><trkpt lat="41.1708796" lon="9.3898001"><ele>119.33333333333334</ele><time>2026-04-30T07:43:50.742Z</time></trkpt><trkpt lat="41.1709118" lon="9.3897173"><ele>118.66666666666667</ele><time>2026-04-30T07:43:51.741Z</time></trkpt><trkpt lat="41.1709454" lon="9.3896246"><ele>118.0</ele><time>2026-04-30T07:43:52.742Z</time></trkpt><trkpt lat="41.1709794" lon="9.3895189"><ele>118.0</ele><time>2026-04-30T07:43:53.742Z</time></trkpt><trkpt lat="41.171014" lon="9.3893971"><ele>118.00000000000001</ele><time>2026-04-30T07:43:54.742Z</time></trkpt><trkpt lat="41.171047" lon="9.3892622"><ele>118.00000000000001</ele><time>2026-04-30T07:43:55.742Z</time></trkpt><trkpt lat="41.1710799" lon="9.3891156"><ele>118.0</ele><time>2026-04-30T07:43:56.742Z</time></trkpt><trkpt lat="41.171116" lon="9.3889549"><ele>118.0</ele><time>2026-04-30T07:43:57.741Z</time></trkpt><trkpt lat="41.1711539" lon="9.3887872"><ele>117.25</ele><time>2026-04-30T07:43:58.742Z</time></trkpt><trkpt lat="41.1711955" lon="9.3886264"><ele>116.5</ele><time>2026-04-30T07:43:59.741Z</time></trkpt><trkpt lat="41.1712463" lon="9.388467"><ele>115.75</ele><time>2026-04-30T07:44:00.741Z</time></trkpt><trkpt lat="41.1713152" lon="9.3883177"><ele>115.0</ele><time>2026-04-30T07:44:01.742Z</time></trkpt><trkpt lat="41.171395" lon="9.3881819"><ele>115.0</ele><time>2026-04-30T07:44:02.742Z</time></trkpt><trkpt lat="41.1714886" lon="9.388052"><ele>115.0</ele><time>2026-04-30T07:44:03.742Z</time></trkpt><trkpt lat="41.1715866" lon="9.3879251"><ele>115.0</ele><time>2026-04-30T07:44:04.742Z</time></trkpt><trkpt lat="41.1716871" lon="9.3878011"><ele>115.0</ele><time>2026-04-30T07:44:05.742Z</time></trkpt><trkpt lat="41.1717861" lon="9.387678"><ele>114.25</ele><time>2026-04-30T07:44:06.741Z</time></trkpt><trkpt lat="41.1718759" lon="9.3875582"><ele>113.5</ele><time>2026-04-30T07:44:07.742Z</time></trkpt><trkpt lat="41.1719518" lon="9.3874288"><ele>112.75</ele><time>2026-04-30T07:44:08.742Z</time></trkpt><trkpt lat="41.1720086" lon="9.3872886"><ele>112.0</ele><time>2026-04-30T07:44:09.742Z</time></trkpt><trkpt lat="41.1720455" lon="9.3871341"><ele>112.0</ele><time>2026-04-30T07:44:10.742Z</time></trkpt><trkpt lat="41.1720627" lon="9.3869691"><ele>112.0</ele><time>2026-04-30T07:44:11.742Z</time></trkpt><trkpt lat="41.1720592" lon="9.3867898"><ele>112.0</ele><time>2026-04-30T07:44:12.742Z</time></trkpt><trkpt lat="41.1720473" lon="9.3865995"><ele>112.0</ele><time>2026-04-30T07:44:13.742Z</time></trkpt><trkpt lat="41.1720349" lon="9.3863996"><ele>111.75</ele><time>2026-04-30T07:44:14.742Z</time></trkpt><trkpt lat="41.1720281" lon="9.3861923"><ele>111.5</ele><time>2026-04-30T07:44:15.741Z</time></trkpt><trkpt lat="41.1720215" lon="9.3859909"><ele>111.25</ele><time>2026-04-30T07:44:16.741Z</time></trkpt><trkpt lat="41.1720173" lon="9.3858046"><ele>111.0</ele><time>2026-04-30T07:44:17.742Z</time></trkpt><trkpt lat="41.1720134" lon="9.3856279"><ele>109.0</ele><time>2026-04-30T07:44:18.742Z</time></trkpt><trkpt lat="41.1719974" lon="9.3854602"><ele>107.0</ele><time>2026-04-30T07:44:19.742Z</time></trkpt><trkpt lat="41.1719587" lon="9.3853005"><ele>105.0</ele><time>2026-04-30T07:44:20.742Z</time></trkpt><trkpt lat="41.1719013" lon="9.3851531"><ele>103.0</ele><time>2026-04-30T07:44:21.742Z</time></trkpt><trkpt lat="41.1718295" lon="9.3850092"><ele>103.0</ele><time>2026-04-30T07:44:22.741Z</time></trkpt><trkpt lat="41.1717462" lon="9.3848691"><ele>103.0</ele><time>2026-04-30T07:44:23.742Z</time></trkpt><trkpt lat="41.1716531" lon="9.3847386"><ele>103.0</ele><time>2026-04-30T07:44:24.742Z</time></trkpt><trkpt lat="41.1715421" lon="9.3846254"><ele>103.0</ele><time>2026-04-30T07:44:25.742Z</time></trkpt><trkpt lat="41.1714196" lon="9.3845257"><ele>101.0</ele><time>2026-04-30T07:44:26.742Z</time></trkpt><trkpt lat="41.1712964" lon="9.3844275"><ele>99.0</ele><time>2026-04-30T07:44:27.742Z</time></trkpt><trkpt lat="41.1711842" lon="9.3843338"><ele>97.0</ele><time>2026-04-30T07:44:28.742Z</time></trkpt><trkpt lat="41.1710825" lon="9.3842434"><ele>95.0</ele><time>2026-04-30T07:44:29.742Z</time></trkpt><trkpt lat="41.1710027" lon="9.3841398"><ele>95.0</ele><time>2026-04-30T07:44:30.742Z</time></trkpt><trkpt lat="41.1709497" lon="9.3840205"><ele>95.0</ele><time>2026-04-30T07:44:31.742Z</time></trkpt><trkpt lat="41.1709254" lon="9.383892"><ele>95.0</ele><time>2026-04-30T07:44:32.742Z</time></trkpt><trkpt lat="41.1709286" lon="9.3837562"><ele>95.0</ele><time>2026-04-30T07:44:33.742Z</time></trkpt><trkpt lat="41.1709517" lon="9.3836103"><ele>95.0</ele><time>2026-04-30T07:44:34.742Z</time></trkpt><trkpt lat="41.1709872" lon="9.383457"><ele>94.6</ele><time>2026-04-30T07:44:35.742Z</time></trkpt><trkpt lat="41.171032" lon="9.3833133"><ele>94.2</ele><time>2026-04-30T07:44:36.742Z</time></trkpt><trkpt lat="41.1710935" lon="9.3831865"><ele>93.80000000000001</ele><time>2026-04-30T07:44:37.742Z</time></trkpt><trkpt lat="41.1711656" lon="9.3830771"><ele>93.4</ele><time>2026-04-30T07:44:38.742Z</time></trkpt><trkpt lat="41.1712513" lon="9.3829911"><ele>93.0</ele><time>2026-04-30T07:44:39.742Z</time></trkpt><trkpt lat="41.1713516" lon="9.3829176"><ele>93.0</ele><time>2026-04-30T07:44:40.741Z</time></trkpt><trkpt lat="41.1714601" lon="9.3828552"><ele>93.0</ele><time>2026-04-30T07:44:41.742Z</time></trkpt><trkpt lat="41.1715755" lon="9.3827872"><ele>93.0</ele><time>2026-04-30T07:44:42.742Z</time></trkpt><trkpt lat="41.1716898" lon="9.3827206"><ele>93.0</ele><time>2026-04-30T07:44:43.742Z</time></trkpt><trkpt lat="41.171799" lon="9.3826555"><ele>92.25</ele><time>2026-04-30T07:44:44.742Z</time></trkpt><trkpt lat="41.1719042" lon="9.3825928"><ele>91.5</ele><time>2026-04-30T07:44:45.742Z</time></trkpt><trkpt lat="41.1720129" lon="9.3825262"><ele>90.75</ele><time>2026-04-30T07:44:46.742Z</time></trkpt><trkpt lat="41.1721269" lon="9.3824566"><ele>90.0</ele><time>2026-04-30T07:44:47.742Z</time></trkpt><trkpt lat="41.1722377" lon="9.3823897"><ele>90.0</ele><time>2026-04-30T07:44:48.742Z</time></trkpt><trkpt lat="41.1723431" lon="9.3823239"><ele>90.0</ele><time>2026-04-30T07:44:49.742Z</time></trkpt><trkpt lat="41.1724437" lon="9.3822602"><ele>90.0</ele><time>2026-04-30T07:44:50.742Z</time></trkpt><trkpt lat="41.1725472" lon="9.3822072"><ele>90.0</ele><time>2026-04-30T07:44:51.742Z</time></trkpt><trkpt lat="41.1726559" lon="9.3821778"><ele>89.25</ele><time>2026-04-30T07:44:52.742Z</time></trkpt><trkpt lat="41.1727735" lon="9.3821769"><ele>88.5</ele><time>2026-04-30T07:44:53.742Z</time></trkpt><trkpt lat="41.1728941" lon="9.3822021"><ele>87.75</ele><time>2026-04-30T07:44:54.742Z</time></trkpt><trkpt lat="41.1730201" lon="9.3822373"><ele>87.0</ele><time>2026-04-30T07:44:55.741Z</time></trkpt><trkpt lat="41.1731487" lon="9.382274"><ele>85.75</ele><time>2026-04-30T07:44:56.742Z</time></trkpt><trkpt lat="41.1732736" lon="9.3823079"><ele>84.5</ele><time>2026-04-30T07:44:57.742Z</time></trkpt><trkpt lat="41.1733904" lon="9.3823398"><ele>83.25</ele><time>2026-04-30T07:44:58.742Z</time></trkpt><trkpt lat="41.1735046" lon="9.3823708"><ele>82.0</ele><time>2026-04-30T07:44:59.742Z</time></trkpt><trkpt lat="41.1736157" lon="9.3824015"><ele>82.0</ele><time>2026-04-30T07:45:00.742Z</time></trkpt><trkpt lat="41.1737323" lon="9.3824362"><ele>82.0</ele><time>2026-04-30T07:45:01.742Z</time></trkpt><trkpt lat="41.1738524" lon="9.3824693"><ele>82.0</ele><time>2026-04-30T07:45:02.742Z</time></trkpt><trkpt lat="41.1739707" lon="9.3825047"><ele>82.0</ele><time>2026-04-30T07:45:03.742Z</time></trkpt><trkpt lat="41.1740855" lon="9.3825412"><ele>81.39999999999999</ele><time>2026-04-30T07:45:04.742Z</time></trkpt><trkpt lat="41.1742021" lon="9.382577"><ele>80.8</ele><time>2026-04-30T07:45:05.742Z</time></trkpt><trkpt lat="41.1743123" lon="9.3826074"><ele>80.2</ele><time>2026-04-30T07:45:06.742Z</time></trkpt><trkpt lat="41.1744046" lon="9.3826225"><ele>79.6</ele><time>2026-04-30T07:45:07.742Z</time></trkpt><trkpt lat="41.1744877" lon="9.3826188"><ele>79.0</ele><time>2026-04-30T07:45:08.741Z</time></trkpt><trkpt lat="41.1745513" lon="9.3825794"><ele>79.0</ele><time>2026-04-30T07:45:09.741Z</time></trkpt><trkpt lat="41.1745901" lon="9.3825085"><ele>79.0</ele><time>2026-04-30T07:45:10.742Z</time></trkpt><trkpt lat="41.1745941" lon="9.3824205"><ele>79.0</ele><time>2026-04-30T07:45:11.742Z</time></trkpt><trkpt lat="41.1745579" lon="9.3823385"><ele>79.0</ele><time>2026-04-30T07:45:12.742Z</time></trkpt><trkpt lat="41.1744943" lon="9.3822751"><ele>79.0</ele><time>2026-04-30T07:45:13.742Z</time></trkpt><trkpt lat="41.1744167" lon="9.3822295"><ele>79.0</ele><time>2026-04-30T07:45:14.741Z</time></trkpt><trkpt lat="41.1743306" lon="9.3821823"><ele>77.4</ele><time>2026-04-30T07:45:15.742Z</time></trkpt><trkpt lat="41.174265" lon="9.3821032"><ele>75.80000000000001</ele><time>2026-04-30T07:45:16.742Z</time></trkpt><trkpt lat="41.1742183" lon="9.3820035"><ele>74.19999999999999</ele><time>2026-04-30T07:45:17.742Z</time></trkpt><trkpt lat="41.174198" lon="9.3818817"><ele>72.6</ele><time>2026-04-30T07:45:18.742Z</time></trkpt><trkpt lat="41.1741958" lon="9.3817453"><ele>71.0</ele><time>2026-04-30T07:45:19.742Z</time></trkpt><trkpt lat="41.1741985" lon="9.3815956"><ele>71.0</ele><time>2026-04-30T07:45:20.742Z</time></trkpt><trkpt lat="41.1741957" lon="9.3814328"><ele>71.0</ele><time>2026-04-30T07:45:21.742Z</time></trkpt><trkpt lat="41.1741879" lon="9.3812786"><ele>71.0</ele><time>2026-04-30T07:45:22.742Z</time></trkpt><trkpt lat="41.1741681" lon="9.3811251"><ele>71.0</ele><time>2026-04-30T07:45:23.742Z</time></trkpt><trkpt lat="41.1741293" lon="9.380981"><ele>70.8</ele><time>2026-04-30T07:45:24.742Z</time></trkpt><trkpt lat="41.1740642" lon="9.3808586"><ele>70.6</ele><time>2026-04-30T07:45:25.742Z</time></trkpt><trkpt lat="41.1739939" lon="9.3807574"><ele>70.4</ele><time>2026-04-30T07:45:26.742Z</time></trkpt><trkpt lat="41.1739499" lon="9.3806618"><ele>70.2</ele><time>2026-04-30T07:45:27.742Z</time></trkpt><trkpt lat="41.1739427" lon="9.3805563"><ele>70.0</ele><time>2026-04-30T07:45:28.742Z</time></trkpt><trkpt lat="41.1739654" lon="9.3804563"><ele>70.0</ele><time>2026-04-30T07:45:29.741Z</time></trkpt><trkpt lat="41.1740033" lon="9.3803489"><ele>70.0</ele><time>2026-04-30T07:45:30.742Z</time></trkpt><trkpt lat="41.1740325" lon="9.3802178"><ele>70.0</ele><time>2026-04-30T07:45:31.742Z</time></trkpt><trkpt lat="41.1740477" lon="9.380066"><ele>70.0</ele><time>2026-04-30T07:45:32.742Z</time></trkpt><trkpt lat="41.1740465" lon="9.3798964"><ele>70.0</ele><time>2026-04-30T07:45:33.742Z</time></trkpt><trkpt lat="41.1740232" lon="9.3797268"><ele>69.25</ele><time>2026-04-30T07:45:34.742Z</time></trkpt><trkpt lat="41.1739912" lon="9.3795651"><ele>68.5</ele><time>2026-04-30T07:45:35.741Z</time></trkpt><trkpt lat="41.173976" lon="9.3793947"><ele>67.75</ele><time>2026-04-30T07:45:36.741Z</time></trkpt><trkpt lat="41.1739833" lon="9.3792167"><ele>67.0</ele><time>2026-04-30T07:45:37.742Z</time></trkpt><trkpt lat="41.1740117" lon="9.3790398"><ele>64.5</ele><time>2026-04-30T07:45:38.741Z</time></trkpt><trkpt lat="41.1740627" lon="9.3788796"><ele>62.0</ele><time>2026-04-30T07:45:39.742Z</time></trkpt><trkpt lat="41.1741309" lon="9.3787399"><ele>59.5</ele><time>2026-04-30T07:45:40.741Z</time></trkpt><trkpt lat="41.1742035" lon="9.3786144"><ele>57.0</ele><time>2026-04-30T07:45:41.742Z</time></trkpt><trkpt lat="41.1742757" lon="9.3784972"><ele>56.25</ele><time>2026-04-30T07:45:42.742Z</time></trkpt><trkpt lat="41.1743487" lon="9.3783828"><ele>55.5</ele><time>2026-04-30T07:45:43.742Z</time></trkpt><trkpt lat="41.1744185" lon="9.3782727"><ele>54.75</ele><time>2026-04-30T07:45:44.742Z</time></trkpt><trkpt lat="41.1744917" lon="9.3781574"><ele>54.0</ele><time>2026-04-30T07:45:45.742Z</time></trkpt><trkpt lat="41.1745686" lon="9.3780388"><ele>54.2</ele><time>2026-04-30T07:45:46.742Z</time></trkpt><trkpt lat="41.1746445" lon="9.3779223"><ele>54.400000000000006</ele><time>2026-04-30T07:45:47.742Z</time></trkpt><trkpt lat="41.1747189" lon="9.3778183"><ele>54.6</ele><time>2026-04-30T07:45:48.742Z</time></trkpt><trkpt lat="41.1748003" lon="9.3777342"><ele>54.8</ele><time>2026-04-30T07:45:49.742Z</time></trkpt><trkpt lat="41.1748925" lon="9.3776774"><ele>55.0</ele><time>2026-04-30T07:45:50.742Z</time></trkpt><trkpt lat="41.1750002" lon="9.3776509"><ele>53.75</ele><time>2026-04-30T07:45:51.742Z</time></trkpt><trkpt lat="41.1751189" lon="9.3776542"><ele>52.5</ele><time>2026-04-30T07:45:52.742Z</time></trkpt><trkpt lat="41.1752366" lon="9.377673"><ele>51.25</ele><time>2026-04-30T07:45:53.742Z</time></trkpt><trkpt lat="41.1753494" lon="9.3776972"><ele>50.0</ele><time>2026-04-30T07:45:54.741Z</time></trkpt><trkpt lat="41.1754645" lon="9.3777275"><ele>50.0</ele><time>2026-04-30T07:45:55.742Z</time></trkpt><trkpt lat="41.1755803" lon="9.3777699"><ele>50.0</ele><time>2026-04-30T07:45:56.742Z</time></trkpt><trkpt lat="41.1756903" lon="9.3778284"><ele>50.0</ele><time>2026-04-30T07:45:57.741Z</time></trkpt><trkpt lat="41.1757865" lon="9.3778994"><ele>50.0</ele><time>2026-04-30T07:45:58.742Z</time></trkpt><trkpt lat="41.1758746" lon="9.3779755"><ele>48.4</ele><time>2026-04-30T07:45:59.742Z</time></trkpt><trkpt lat="41.1759618" lon="9.3780501"><ele>46.8</ele><time>2026-04-30T07:46:00.742Z</time></trkpt><trkpt lat="41.1760521" lon="9.3781153"><ele>45.2</ele><time>2026-04-30T07:46:01.742Z</time></trkpt><trkpt lat="41.1761475" lon="9.3781633"><ele>43.6</ele><time>2026-04-30T07:46:02.742Z</time></trkpt><trkpt lat="41.1762507" lon="9.3781879"><ele>42.0</ele><time>2026-04-30T07:46:03.742Z</time></trkpt><trkpt lat="41.1763678" lon="9.3781895"><ele>42.0</ele><time>2026-04-30T07:46:04.742Z</time></trkpt><trkpt lat="41.1764854" lon="9.3781738"><ele>42.0</ele><time>2026-04-30T07:46:05.742Z</time></trkpt><trkpt lat="41.1766076" lon="9.378155"><ele>42.0</ele><time>2026-04-30T07:46:06.742Z</time></trkpt><trkpt lat="41.1767242" lon="9.3781364"><ele>42.0</ele><time>2026-04-30T07:46:07.742Z</time></trkpt><trkpt lat="41.1768404" lon="9.3781208"><ele>40.5</ele><time>2026-04-30T07:46:08.742Z</time></trkpt><trkpt lat="41.1769569" lon="9.3781048"><ele>39.0</ele><time>2026-04-30T07:46:09.742Z</time></trkpt><trkpt lat="41.1770702" lon="9.3780907"><ele>37.5</ele><time>2026-04-30T07:46:10.742Z</time></trkpt><trkpt lat="41.1771833" lon="9.3780747"><ele>36.0</ele><time>2026-04-30T07:46:11.742Z</time></trkpt><trkpt lat="41.1772968" lon="9.3780605"><ele>35.75</ele><time>2026-04-30T07:46:12.742Z</time></trkpt><trkpt lat="41.1774122" lon="9.3780452"><ele>35.5</ele><time>2026-04-30T07:46:13.742Z</time></trkpt><trkpt lat="41.1775279" lon="9.3780288"><ele>35.25</ele><time>2026-04-30T07:46:14.742Z</time></trkpt><trkpt lat="41.1776421" lon="9.3780134"><ele>35.0</ele><time>2026-04-30T07:46:15.742Z</time></trkpt><trkpt lat="41.1777545" lon="9.3779957"><ele>35.0</ele><time>2026-04-30T07:46:16.742Z</time></trkpt><trkpt lat="41.1778694" lon="9.3779739"><ele>35.0</ele><time>2026-04-30T07:46:17.742Z</time></trkpt><trkpt lat="41.177992" lon="9.377942"><ele>35.0</ele><time>2026-04-30T07:46:18.742Z</time></trkpt><trkpt lat="41.1781112" lon="9.3779034"><ele>35.0</ele><time>2026-04-30T07:46:19.742Z</time></trkpt><trkpt lat="41.1782168" lon="9.3778572"><ele>33.166666666666664</ele><time>2026-04-30T07:46:20.742Z</time></trkpt><trkpt lat="41.1783084" lon="9.3778121"><ele>31.333333333333332</ele><time>2026-04-30T07:46:21.742Z</time></trkpt><trkpt lat="41.1783833" lon="9.3777721"><ele>29.5</ele><time>2026-04-30T07:46:22.742Z</time></trkpt><trkpt lat="41.1784441" lon="9.3777356"><ele>27.666666666666664</ele><time>2026-04-30T07:46:23.742Z</time></trkpt><trkpt lat="41.1785403" lon="9.3776966"><ele>25.833333333333332</ele><time>2026-04-30T07:46:25.742Z</time></trkpt><trkpt lat="41.1786126" lon="9.377717"><ele>24.0</ele><time>2026-04-30T07:46:27.742Z</time></trkpt><trkpt lat="41.1786765" lon="9.377764"><ele>24.0</ele><time>2026-04-30T07:46:30.742Z</time></trkpt><trkpt lat="41.1787558" lon="9.3777461"><ele>24.0</ele><time>2026-04-30T07:46:34.742Z</time></trkpt><trkpt lat="41.1787841" lon="9.3776365"><ele>24.0</ele><time>2026-04-30T07:46:36.741Z</time></trkpt><trkpt lat="41.1787804" lon="9.3775504"><ele>24.0</ele><time>2026-04-30T07:46:37.742Z</time></trkpt><trkpt lat="41.1787753" lon="9.3774451"><ele>24.0</ele><time>2026-04-30T07:46:38.741Z</time></trkpt><trkpt lat="41.1787714" lon="9.3773454"><ele>24.0</ele><time>2026-04-30T07:46:39.742Z</time></trkpt><trkpt lat="41.178767" lon="9.377246"><ele>24.6</ele><time>2026-04-30T07:46:40.741Z</time></trkpt><trkpt lat="41.1787686" lon="9.3771345"><ele>25.2</ele><time>2026-04-30T07:46:41.742Z</time></trkpt><trkpt lat="41.1787775" lon="9.3770129"><ele>25.800000000000004</ele><time>2026-04-30T07:46:42.741Z</time></trkpt><trkpt lat="41.1787838" lon="9.3768834"><ele>26.400000000000002</ele><time>2026-04-30T07:46:43.742Z</time></trkpt><trkpt lat="41.178783" lon="9.3767456"><ele>27.0</ele><time>2026-04-30T07:46:44.742Z</time></trkpt><trkpt lat="41.178776" lon="9.3765933"><ele>27.0</ele><time>2026-04-30T07:46:45.742Z</time></trkpt><trkpt lat="41.178767" lon="9.3764284"><ele>27.0</ele><time>2026-04-30T07:46:46.742Z</time></trkpt><trkpt lat="41.1787594" lon="9.3762681"><ele>27.0</ele><time>2026-04-30T07:46:47.742Z</time></trkpt><trkpt lat="41.1787543" lon="9.3760905"><ele>27.0</ele><time>2026-04-30T07:46:48.742Z</time></trkpt><trkpt lat="41.1787514" lon="9.3758961"><ele>26.666666666666664</ele><time>2026-04-30T07:46:49.742Z</time></trkpt><trkpt lat="41.1787548" lon="9.3756894"><ele>26.333333333333332</ele><time>2026-04-30T07:46:50.742Z</time></trkpt><trkpt lat="41.1787614" lon="9.3754737"><ele>26.0</ele><time>2026-04-30T07:46:51.742Z</time></trkpt><trkpt lat="41.1787735" lon="9.3752518"><ele>25.666666666666664</ele><time>2026-04-30T07:46:52.741Z</time></trkpt><trkpt lat="41.1787821" lon="9.3750194"><ele>25.333333333333336</ele><time>2026-04-30T07:46:53.742Z</time></trkpt><trkpt lat="41.1787893" lon="9.3747834"><ele>25.0</ele><time>2026-04-30T07:46:54.741Z</time></trkpt><trkpt lat="41.17879" lon="9.3745428"><ele>24.666666666666668</ele><time>2026-04-30T07:46:55.741Z</time></trkpt><trkpt lat="41.1787895" lon="9.3742955"><ele>24.333333333333336</ele><time>2026-04-30T07:46:56.742Z</time></trkpt><trkpt lat="41.1787893" lon="9.3740402"><ele>24.0</ele><time>2026-04-30T07:46:57.742Z</time></trkpt><trkpt lat="41.1787885" lon="9.3737897"><ele>23.333333333333332</ele><time>2026-04-30T07:46:58.742Z</time></trkpt><trkpt lat="41.1787871" lon="9.3735559"><ele>22.666666666666664</ele><time>2026-04-30T07:46:59.742Z</time></trkpt><trkpt lat="41.1787824" lon="9.3733453"><ele>22.0</ele><time>2026-04-30T07:47:00.742Z</time></trkpt><trkpt lat="41.178766" lon="9.3731643"><ele>19.0</ele><time>2026-04-30T07:47:01.742Z</time></trkpt><trkpt lat="41.1787271" lon="9.373009"><ele>16.0</ele><time>2026-04-30T07:47:02.742Z</time></trkpt><trkpt lat="41.1786654" lon="9.3728746"><ele>13.0</ele><time>2026-04-30T07:47:03.742Z</time></trkpt><trkpt lat="41.1785725" lon="9.3727605"><ele>10.0</ele><time>2026-04-30T07:47:04.742Z</time></trkpt><trkpt lat="41.178453" lon="9.3726657"><ele>10.0</ele><time>2026-04-30T07:47:05.742Z</time></trkpt><trkpt lat="41.1783094" lon="9.3725727"><ele>10.0</ele><time>2026-04-30T07:47:06.741Z</time></trkpt><trkpt lat="41.1781443" lon="9.3724752"><ele>10.0</ele><time>2026-04-30T07:47:07.742Z</time></trkpt><trkpt lat="41.1779816" lon="9.3723882"><ele>8.0</ele><time>2026-04-30T07:47:08.742Z</time></trkpt><trkpt lat="41.1778219" lon="9.3723075"><ele>6.0</ele><time>2026-04-30T07:47:09.742Z</time></trkpt><trkpt lat="41.1776754" lon="9.3722341"><ele>4.0</ele><time>2026-04-30T07:47:10.742Z</time></trkpt><trkpt lat="41.1775427" lon="9.3721487"><ele>4.0</ele><time>2026-04-30T07:47:11.741Z</time></trkpt><trkpt lat="41.1774313" lon="9.3720473"><ele>4.0</ele><time>2026-04-30T07:47:12.742Z</time></trkpt><trkpt lat="41.1773472" lon="9.3719207"><ele>4.0</ele><time>2026-04-30T07:47:13.742Z</time></trkpt><trkpt lat="41.1772856" lon="9.3717668"><ele>4.0</ele><time>2026-04-30T07:47:14.742Z</time></trkpt><trkpt lat="41.1772432" lon="9.3715937"><ele>4.25</ele><time>2026-04-30T07:47:15.742Z</time></trkpt><trkpt lat="41.1772251" lon="9.3714098"><ele>4.5</ele><time>2026-04-30T07:47:16.742Z</time></trkpt><trkpt lat="41.1772381" lon="9.3712225"><ele>4.75</ele><time>2026-04-30T07:47:17.742Z</time></trkpt><trkpt lat="41.1772728" lon="9.3710453"><ele>5.0</ele><time>2026-04-30T07:47:18.742Z</time></trkpt><trkpt lat="41.1773148" lon="9.3708839"><ele>4.8</ele><time>2026-04-30T07:47:19.742Z</time></trkpt><trkpt lat="41.1773535" lon="9.3707427"><ele>4.6</ele><time>2026-04-30T07:47:20.742Z</time></trkpt><trkpt lat="41.1773909" lon="9.3706155"><ele>4.4</ele><time>2026-04-30T07:47:21.742Z</time></trkpt><trkpt lat="41.1774274" lon="9.3705022"><ele>4.2</ele><time>2026-04-30T07:47:22.742Z</time></trkpt><trkpt lat="41.1774658" lon="9.3703977"><ele>4.0</ele><time>2026-04-30T07:47:23.741Z</time></trkpt><trkpt lat="41.1775089" lon="9.3703061"><ele>4.571428571428571</ele><time>2026-04-30T07:47:24.741Z</time></trkpt><trkpt lat="41.177562" lon="9.3702203"><ele>5.142857142857142</ele><time>2026-04-30T07:47:25.742Z</time></trkpt><trkpt lat="41.1776054" lon="9.3701391"><ele>5.7142857142857135</ele><time>2026-04-30T07:47:26.742Z</time></trkpt><trkpt lat="41.1776219" lon="9.3700489"><ele>6.285714285714286</ele><time>2026-04-30T07:47:27.742Z</time></trkpt><trkpt lat="41.1776154" lon="9.3699605"><ele>6.857142857142856</ele><time>2026-04-30T07:47:28.742Z</time></trkpt><trkpt lat="41.1775853" lon="9.3698815"><ele>7.428571428571428</ele><time>2026-04-30T07:47:29.742Z</time></trkpt><trkpt lat="41.1775322" lon="9.3698267"><ele>8.0</ele><time>2026-04-30T07:47:30.742Z</time></trkpt><trkpt lat="41.1774664" lon="9.3698104"><ele>8.0</ele><time>2026-04-30T07:47:31.741Z</time></trkpt><trkpt lat="41.177392" lon="9.3698143"><ele>8.0</ele><time>2026-04-30T07:47:32.742Z</time></trkpt><trkpt lat="41.1773084" lon="9.3698251"><ele>8.0</ele><time>2026-04-30T07:47:33.742Z</time></trkpt><trkpt lat="41.1772121" lon="9.3698147"><ele>8.0</ele><time>2026-04-30T07:47:34.742Z</time></trkpt><trkpt lat="41.1771015" lon="9.3697865"><ele>8.0</ele><time>2026-04-30T07:47:35.742Z</time></trkpt><trkpt lat="41.1769781" lon="9.3697358"><ele>7.25</ele><time>2026-04-30T07:47:36.742Z</time></trkpt><trkpt lat="41.1768638" lon="9.3696729"><ele>6.5</ele><time>2026-04-30T07:47:37.742Z</time></trkpt><trkpt lat="41.1767615" lon="9.3695905"><ele>5.75</ele><time>2026-04-30T07:47:38.741Z</time></trkpt><trkpt lat="41.1766662" lon="9.3694896"><ele>5.0</ele><time>2026-04-30T07:47:39.742Z</time></trkpt><trkpt lat="41.1765819" lon="9.3693814"><ele>4.833333333333334</ele><time>2026-04-30T07:47:40.742Z</time></trkpt><trkpt lat="41.1765105" lon="9.3692738"><ele>4.666666666666667</ele><time>2026-04-30T07:47:41.742Z</time></trkpt><trkpt lat="41.1764549" lon="9.3691683"><ele>4.5</ele><time>2026-04-30T07:47:42.741Z</time></trkpt><trkpt lat="41.1764114" lon="9.3690683"><ele>4.333333333333333</ele><time>2026-04-30T07:47:43.741Z</time></trkpt><trkpt lat="41.1763758" lon="9.368972"><ele>4.166666666666666</ele><time>2026-04-30T07:47:44.742Z</time></trkpt><trkpt lat="41.1763455" lon="9.3688789"><ele>4.0</ele><time>2026-04-30T07:47:45.741Z</time></trkpt><trkpt lat="41.1763208" lon="9.3687858"><ele>3.9999999999999996</ele><time>2026-04-30T07:47:46.741Z</time></trkpt><trkpt lat="41.1762955" lon="9.368687"><ele>4.0</ele><time>2026-04-30T07:47:47.741Z</time></trkpt><trkpt lat="41.1762749" lon="9.3685813"><ele>4.0</ele><time>2026-04-30T07:47:48.742Z</time></trkpt><trkpt lat="41.1762593" lon="9.3684809"><ele>4.0</ele><time>2026-04-30T07:47:49.742Z</time></trkpt><trkpt lat="41.1762471" lon="9.3683935"><ele>3.9999999999999996</ele><time>2026-04-30T07:47:50.742Z</time></trkpt><trkpt lat="41.1762369" lon="9.3682406"><ele>4.0</ele><time>2026-04-30T07:47:52.741Z</time></trkpt><trkpt lat="41.1762577" lon="9.3681153"><ele>4.166666666666666</ele><time>2026-04-30T07:47:54.741Z</time></trkpt><trkpt lat="41.1762851" lon="9.3680075"><ele>4.333333333333333</ele><time>2026-04-30T07:47:56.741Z</time></trkpt><trkpt lat="41.1762584" lon="9.3678667"><ele>4.5</ele><time>2026-04-30T07:47:58.742Z</time></trkpt><trkpt lat="41.1762139" lon="9.3678052"><ele>4.666666666666667</ele><time>2026-04-30T07:47:59.742Z</time></trkpt><trkpt lat="41.1761483" lon="9.3677714"><ele>4.833333333333334</ele><time>2026-04-30T07:48:00.741Z</time></trkpt><trkpt lat="41.1760742" lon="9.3677712"><ele>5.0</ele><time>2026-04-30T07:48:01.742Z</time></trkpt><trkpt lat="41.1759815" lon="9.3677853"><ele>5.0</ele><time>2026-04-30T07:48:02.742Z</time></trkpt><trkpt lat="41.17588" lon="9.3677739"><ele>5.0</ele><time>2026-04-30T07:48:03.742Z</time></trkpt><trkpt lat="41.1757622" lon="9.3677413"><ele>5.0</ele><time>2026-04-30T07:48:04.742Z</time></trkpt><trkpt lat="41.1756321" lon="9.3676953"><ele>5.0</ele><time>2026-04-30T07:48:05.742Z</time></trkpt><trkpt lat="41.1754893" lon="9.3676452"><ele>5.333333333333334</ele><time>2026-04-30T07:48:06.742Z</time></trkpt><trkpt lat="41.175333" lon="9.3675968"><ele>5.666666666666667</ele><time>2026-04-30T07:48:07.741Z</time></trkpt><trkpt lat="41.1751672" lon="9.3675608"><ele>6.0</ele><time>2026-04-30T07:48:08.742Z</time></trkpt><trkpt lat="41.1749912" lon="9.3675376"><ele>6.666666666666666</ele><time>2026-04-30T07:48:09.742Z</time></trkpt><trkpt lat="41.1748097" lon="9.3675274"><ele>7.333333333333333</ele><time>2026-04-30T07:48:10.742Z</time></trkpt><trkpt lat="41.1746362" lon="9.367532"><ele>8.0</ele><time>2026-04-30T07:48:11.742Z</time></trkpt><trkpt lat="41.1744804" lon="9.3675483"><ele>8.0</ele><time>2026-04-30T07:48:12.742Z</time></trkpt><trkpt lat="41.1743469" lon="9.3675672"><ele>8.0</ele><time>2026-04-30T07:48:13.742Z</time></trkpt><trkpt lat="41.1742317" lon="9.3675786"><ele>8.0</ele><time>2026-04-30T07:48:14.742Z</time></trkpt><trkpt lat="41.1741275" lon="9.3675661"><ele>8.0</ele><time>2026-04-30T07:48:15.742Z</time></trkpt><trkpt lat="41.1740289" lon="9.3675294"><ele>7.800000000000001</ele><time>2026-04-30T07:48:16.742Z</time></trkpt><trkpt lat="41.1739324" lon="9.3674768"><ele>7.6000000000000005</ele><time>2026-04-30T07:48:17.742Z</time></trkpt><trkpt lat="41.1738504" lon="9.367405"><ele>7.3999999999999995</ele><time>2026-04-30T07:48:18.742Z</time></trkpt><trkpt lat="41.1737796" lon="9.3673003"><ele>7.199999999999999</ele><time>2026-04-30T07:48:19.742Z</time></trkpt><trkpt lat="41.1737169" lon="9.3671634"><ele>7.0</ele><time>2026-04-30T07:48:20.742Z</time></trkpt><trkpt lat="41.1736589" lon="9.3669928"><ele>8.333333333333334</ele><time>2026-04-30T07:48:21.742Z</time></trkpt><trkpt lat="41.1735978" lon="9.3667958"><ele>9.666666666666666</ele><time>2026-04-30T07:48:22.741Z</time></trkpt><trkpt lat="41.1735318" lon="9.366575"><ele>11.0</ele><time>2026-04-30T07:48:23.741Z</time></trkpt><trkpt lat="41.1734628" lon="9.3663421"><ele>13.0</ele><time>2026-04-30T07:48:24.742Z</time></trkpt><trkpt lat="41.1733963" lon="9.3661145"><ele>15.0</ele><time>2026-04-30T07:48:25.742Z</time></trkpt><trkpt lat="41.1733416" lon="9.3658799"><ele>17.0</ele><time>2026-04-30T07:48:26.742Z</time></trkpt><trkpt lat="41.1732983" lon="9.3656349"><ele>18.0</ele><time>2026-04-30T07:48:27.742Z</time></trkpt><trkpt lat="41.1732709" lon="9.3653768"><ele>19.0</ele><time>2026-04-30T07:48:28.742Z</time></trkpt><trkpt lat="41.1732499" lon="9.365107"><ele>20.0</ele><time>2026-04-30T07:48:29.742Z</time></trkpt><trkpt lat="41.1732298" lon="9.364829"><ele>20.666666666666668</ele><time>2026-04-30T07:48:30.741Z</time></trkpt><trkpt lat="41.1732086" lon="9.3645471"><ele>21.333333333333332</ele><time>2026-04-30T07:48:31.741Z</time></trkpt><trkpt lat="41.1731843" lon="9.3642705"><ele>22.0</ele><time>2026-04-30T07:48:32.742Z</time></trkpt><trkpt lat="41.1731572" lon="9.364007"><ele>19.666666666666664</ele><time>2026-04-30T07:48:33.742Z</time></trkpt><trkpt lat="41.1731132" lon="9.3637683"><ele>17.333333333333332</ele><time>2026-04-30T07:48:34.741Z</time></trkpt><trkpt lat="41.1730484" lon="9.3635412"><ele>15.0</ele><time>2026-04-30T07:48:35.741Z</time></trkpt><trkpt lat="41.1729672" lon="9.3633398"><ele>15.0</ele><time>2026-04-30T07:48:36.742Z</time></trkpt><trkpt lat="41.1728873" lon="9.3631371"><ele>15.0</ele><time>2026-04-30T07:48:37.741Z</time></trkpt><trkpt lat="41.1728255" lon="9.3629214"><ele>15.0</ele><time>2026-04-30T07:48:38.742Z</time></trkpt><trkpt lat="41.1727812" lon="9.3626862"><ele>16.0</ele><time>2026-04-30T07:48:39.742Z</time></trkpt><trkpt lat="41.1727429" lon="9.3624346"><ele>17.0</ele><time>2026-04-30T07:48:40.742Z</time></trkpt><trkpt lat="41.1727071" lon="9.3621665"><ele>18.0</ele><time>2026-04-30T07:48:41.742Z</time></trkpt><trkpt lat="41.1726707" lon="9.3618915"><ele>18.0</ele><time>2026-04-30T07:48:42.741Z</time></trkpt><trkpt lat="41.1726382" lon="9.3616146"><ele>18.0</ele><time>2026-04-30T07:48:43.742Z</time></trkpt><trkpt lat="41.1726173" lon="9.3613332"><ele>18.0</ele><time>2026-04-30T07:48:44.742Z</time></trkpt><trkpt lat="41.1726051" lon="9.3610468"><ele>18.0</ele><time>2026-04-30T07:48:45.741Z</time></trkpt><trkpt lat="41.1725922" lon="9.3607529"><ele>18.0</ele><time>2026-04-30T07:48:46.742Z</time></trkpt><trkpt lat="41.1725629" lon="9.3604736"><ele>18.0</ele><time>2026-04-30T07:48:47.742Z</time></trkpt><trkpt lat="41.1725167" lon="9.3602017"><ele>19.0</ele><time>2026-04-30T07:48:48.741Z</time></trkpt><trkpt lat="41.172461" lon="9.3599284"><ele>20.0</ele><time>2026-04-30T07:48:49.742Z</time></trkpt><trkpt lat="41.1724024" lon="9.3596539"><ele>21.0</ele><time>2026-04-30T07:48:50.742Z</time></trkpt><trkpt lat="41.1723413" lon="9.3593777"><ele>21.0</ele><time>2026-04-30T07:48:51.742Z</time></trkpt><trkpt lat="41.1722825" lon="9.3591008"><ele>21.0</ele><time>2026-04-30T07:48:52.742Z</time></trkpt><trkpt lat="41.172223" lon="9.3588207"><ele>21.0</ele><time>2026-04-30T07:48:53.742Z</time></trkpt><trkpt lat="41.1721638" lon="9.3585359"><ele>20.5</ele><time>2026-04-30T07:48:54.741Z</time></trkpt><trkpt lat="41.1721024" lon="9.3582484"><ele>20.0</ele><time>2026-04-30T07:48:55.742Z</time></trkpt><trkpt lat="41.1720417" lon="9.3579565"><ele>22.0</ele><time>2026-04-30T07:48:56.742Z</time></trkpt><trkpt lat="41.1719775" lon="9.357664"><ele>24.0</ele><time>2026-04-30T07:48:57.742Z</time></trkpt><trkpt lat="41.1719143" lon="9.3573739"><ele>25.5</ele><time>2026-04-30T07:48:58.741Z</time></trkpt><trkpt lat="41.1718517" lon="9.3570856"><ele>27.0</ele><time>2026-04-30T07:48:59.742Z</time></trkpt><trkpt lat="41.1717901" lon="9.3567968"><ele>27.0</ele><time>2026-04-30T07:49:00.741Z</time></trkpt><trkpt lat="41.1717279" lon="9.3565068"><ele>27.0</ele><time>2026-04-30T07:49:01.742Z</time></trkpt><trkpt lat="41.1716655" lon="9.3562209"><ele>27.333333333333336</ele><time>2026-04-30T07:49:02.742Z</time></trkpt><trkpt lat="41.1716069" lon="9.35595"><ele>27.666666666666668</ele><time>2026-04-30T07:49:03.742Z</time></trkpt><trkpt lat="41.1715515" lon="9.3556917"><ele>28.0</ele><time>2026-04-30T07:49:04.741Z</time></trkpt><trkpt lat="41.1714962" lon="9.3554327"><ele>28.0</ele><time>2026-04-30T07:49:05.742Z</time></trkpt><trkpt lat="41.171439" lon="9.3551682"><ele>28.0</ele><time>2026-04-30T07:49:06.742Z</time></trkpt><trkpt lat="41.171379" lon="9.3549038"><ele>28.0</ele><time>2026-04-30T07:49:07.742Z</time></trkpt><trkpt lat="41.1713193" lon="9.3546293"><ele>28.0</ele><time>2026-04-30T07:49:08.741Z</time></trkpt><trkpt lat="41.1712534" lon="9.3543403"><ele>28.0</ele><time>2026-04-30T07:49:09.741Z</time></trkpt><trkpt lat="41.1711878" lon="9.3540469"><ele>27.0</ele><time>2026-04-30T07:49:10.741Z</time></trkpt><trkpt lat="41.171125" lon="9.3537655"><ele>26.0</ele><time>2026-04-30T07:49:11.741Z</time></trkpt><trkpt lat="41.171065" lon="9.3534888"><ele>25.0</ele><time>2026-04-30T07:49:12.742Z</time></trkpt><trkpt lat="41.1710135" lon="9.3532114"><ele>25.666666666666668</ele><time>2026-04-30T07:49:13.741Z</time></trkpt><trkpt lat="41.1709771" lon="9.3529343"><ele>26.333333333333336</ele><time>2026-04-30T07:49:14.741Z</time></trkpt><trkpt lat="41.1709567" lon="9.3526576"><ele>27.0</ele><time>2026-04-30T07:49:15.742Z</time></trkpt><trkpt lat="41.1709478" lon="9.352373"><ele>26.5</ele><time>2026-04-30T07:49:16.742Z</time></trkpt><trkpt lat="41.1709501" lon="9.3520791"><ele>26.0</ele><time>2026-04-30T07:49:17.742Z</time></trkpt><trkpt lat="41.1709577" lon="9.3517742"><ele>26.0</ele><time>2026-04-30T07:49:18.742Z</time></trkpt><trkpt lat="41.1709667" lon="9.3514601"><ele>26.0</ele><time>2026-04-30T07:49:19.742Z</time></trkpt><trkpt lat="41.1709768" lon="9.3511551"><ele>26.0</ele><time>2026-04-30T07:49:20.742Z</time></trkpt><trkpt lat="41.1709866" lon="9.3508574"><ele>26.0</ele><time>2026-04-30T07:49:21.742Z</time></trkpt><trkpt lat="41.170995" lon="9.3505622"><ele>26.0</ele><time>2026-04-30T07:49:22.742Z</time></trkpt><trkpt lat="41.1710036" lon="9.3502672"><ele>26.5</ele><time>2026-04-30T07:49:23.742Z</time></trkpt><trkpt lat="41.1710125" lon="9.3499715"><ele>27.0</ele><time>2026-04-30T07:49:24.741Z</time></trkpt><trkpt lat="41.1710225" lon="9.3496679"><ele>26.0</ele><time>2026-04-30T07:49:25.741Z</time></trkpt><trkpt lat="41.1710299" lon="9.3493582"><ele>25.0</ele><time>2026-04-30T07:49:26.742Z</time></trkpt><trkpt lat="41.1710375" lon="9.3490594"><ele>24.666666666666668</ele><time>2026-04-30T07:49:27.742Z</time></trkpt><trkpt lat="41.1710441" lon="9.3487741"><ele>24.333333333333336</ele><time>2026-04-30T07:49:28.742Z</time></trkpt><trkpt lat="41.1710536" lon="9.3484915"><ele>24.0</ele><time>2026-04-30T07:49:29.742Z</time></trkpt><trkpt lat="41.1710644" lon="9.3482103"><ele>24.666666666666664</ele><time>2026-04-30T07:49:30.742Z</time></trkpt><trkpt lat="41.1710753" lon="9.3479242"><ele>25.333333333333332</ele><time>2026-04-30T07:49:31.742Z</time></trkpt><trkpt lat="41.1710853" lon="9.347633"><ele>26.0</ele><time>2026-04-30T07:49:32.742Z</time></trkpt><trkpt lat="41.1710929" lon="9.3473409"><ele>26.0</ele><time>2026-04-30T07:49:33.742Z</time></trkpt><trkpt lat="41.1710993" lon="9.3470498"><ele>26.0</ele><time>2026-04-30T07:49:34.742Z</time></trkpt><trkpt lat="41.1711072" lon="9.3467658"><ele>26.0</ele><time>2026-04-30T07:49:35.742Z</time></trkpt><trkpt lat="41.1711151" lon="9.3464809"><ele>26.333333333333332</ele><time>2026-04-30T07:49:36.742Z</time></trkpt><trkpt lat="41.1711182" lon="9.3461963"><ele>26.666666666666664</ele><time>2026-04-30T07:49:37.742Z</time></trkpt><trkpt lat="41.1711199" lon="9.3459077"><ele>27.0</ele><time>2026-04-30T07:49:38.742Z</time></trkpt><trkpt lat="41.1711202" lon="9.345609"><ele>28.5</ele><time>2026-04-30T07:49:39.742Z</time></trkpt><trkpt lat="41.1711179" lon="9.3453098"><ele>30.0</ele><time>2026-04-30T07:49:40.742Z</time></trkpt><trkpt lat="41.1711156" lon="9.3450089"><ele>29.5</ele><time>2026-04-30T07:49:41.742Z</time></trkpt><trkpt lat="41.1711164" lon="9.3447012"><ele>29.0</ele><time>2026-04-30T07:49:42.742Z</time></trkpt><trkpt lat="41.1711158" lon="9.3443859"><ele>29.0</ele><time>2026-04-30T07:49:43.742Z</time></trkpt><trkpt lat="41.1711136" lon="9.344073"><ele>29.0</ele><time>2026-04-30T07:49:44.742Z</time></trkpt><trkpt lat="41.1711086" lon="9.3437623"><ele>29.333333333333332</ele><time>2026-04-30T07:49:45.742Z</time></trkpt><trkpt lat="41.1711055" lon="9.3434618"><ele>29.666666666666664</ele><time>2026-04-30T07:49:46.742Z</time></trkpt><trkpt lat="41.1711005" lon="9.343174"><ele>30.0</ele><time>2026-04-30T07:49:47.741Z</time></trkpt><trkpt lat="41.1710881" lon="9.342892"><ele>30.666666666666664</ele><time>2026-04-30T07:49:48.742Z</time></trkpt><trkpt lat="41.1710638" lon="9.3426235"><ele>31.333333333333332</ele><time>2026-04-30T07:49:49.742Z</time></trkpt><trkpt lat="41.1710347" lon="9.3423711"><ele>32.0</ele><time>2026-04-30T07:49:50.742Z</time></trkpt><trkpt lat="41.1710047" lon="9.34213"><ele>32.666666666666664</ele><time>2026-04-30T07:49:51.742Z</time></trkpt><trkpt lat="41.170978" lon="9.3419027"><ele>33.333333333333336</ele><time>2026-04-30T07:49:52.741Z</time></trkpt><trkpt lat="41.1709482" lon="9.3416906"><ele>34.0</ele><time>2026-04-30T07:49:53.742Z</time></trkpt><trkpt lat="41.1709015" lon="9.3414888"><ele>35.0</ele><time>2026-04-30T07:49:54.742Z</time></trkpt><trkpt lat="41.1708276" lon="9.3413055"><ele>36.0</ele><time>2026-04-30T07:49:55.742Z</time></trkpt><trkpt lat="41.1707347" lon="9.341139"><ele>37.0</ele><time>2026-04-30T07:49:56.742Z</time></trkpt><trkpt lat="41.1706365" lon="9.340979"><ele>37.0</ele><time>2026-04-30T07:49:57.742Z</time></trkpt><trkpt lat="41.1705653" lon="9.3408086"><ele>37.0</ele><time>2026-04-30T07:49:58.742Z</time></trkpt><trkpt lat="41.1705142" lon="9.3406226"><ele>37.0</ele><time>2026-04-30T07:49:59.742Z</time></trkpt><trkpt lat="41.1704809" lon="9.3404165"><ele>38.0</ele><time>2026-04-30T07:50:00.742Z</time></trkpt><trkpt lat="41.1704536" lon="9.3401929"><ele>39.0</ele><time>2026-04-30T07:50:01.741Z</time></trkpt><trkpt lat="41.1704251" lon="9.3399524"><ele>40.0</ele><time>2026-04-30T07:50:02.742Z</time></trkpt><trkpt lat="41.1703991" lon="9.3397267"><ele>41.333333333333336</ele><time>2026-04-30T07:50:03.742Z</time></trkpt><trkpt lat="41.1703754" lon="9.339512"><ele>42.666666666666664</ele><time>2026-04-30T07:50:04.742Z</time></trkpt><trkpt lat="41.1703539" lon="9.3393107"><ele>44.0</ele><time>2026-04-30T07:50:05.742Z</time></trkpt><trkpt lat="41.1703327" lon="9.3391239"><ele>44.0</ele><time>2026-04-30T07:50:06.742Z</time></trkpt><trkpt lat="41.1703092" lon="9.3389485"><ele>44.0</ele><time>2026-04-30T07:50:07.742Z</time></trkpt><trkpt lat="41.1702784" lon="9.3387772"><ele>44.0</ele><time>2026-04-30T07:50:08.742Z</time></trkpt><trkpt lat="41.1702325" lon="9.3386137"><ele>44.0</ele><time>2026-04-30T07:50:09.741Z</time></trkpt><trkpt lat="41.170175" lon="9.3384667"><ele>44.25</ele><time>2026-04-30T07:50:10.742Z</time></trkpt><trkpt lat="41.1701136" lon="9.33833"><ele>44.5</ele><time>2026-04-30T07:50:11.742Z</time></trkpt><trkpt lat="41.1700566" lon="9.3381882"><ele>44.75</ele><time>2026-04-30T07:50:12.741Z</time></trkpt><trkpt lat="41.1700179" lon="9.3380296"><ele>45.0</ele><time>2026-04-30T07:50:13.742Z</time></trkpt><trkpt lat="41.170002" lon="9.3378565"><ele>45.0</ele><time>2026-04-30T07:50:14.742Z</time></trkpt><trkpt lat="41.169998" lon="9.3376652"><ele>45.0</ele><time>2026-04-30T07:50:15.742Z</time></trkpt><trkpt lat="41.170003" lon="9.3374683"><ele>45.0</ele><time>2026-04-30T07:50:16.742Z</time></trkpt><trkpt lat="41.1700162" lon="9.337272"><ele>45.0</ele><time>2026-04-30T07:50:17.741Z</time></trkpt><trkpt lat="41.1700287" lon="9.3370962"><ele>45.2</ele><time>2026-04-30T07:50:18.742Z</time></trkpt><trkpt lat="41.1700363" lon="9.3369462"><ele>45.4</ele><time>2026-04-30T07:50:19.742Z</time></trkpt><trkpt lat="41.1700575" lon="9.3368262"><ele>45.599999999999994</ele><time>2026-04-30T07:50:20.741Z</time></trkpt><trkpt lat="41.1700983" lon="9.3367261"><ele>45.8</ele><time>2026-04-30T07:50:21.742Z</time></trkpt><trkpt lat="41.1701518" lon="9.3366458"><ele>46.0</ele><time>2026-04-30T07:50:22.742Z</time></trkpt><trkpt lat="41.1702181" lon="9.3365816"><ele>46.0</ele><time>2026-04-30T07:50:23.742Z</time></trkpt><trkpt lat="41.1703041" lon="9.3365311"><ele>46.0</ele><time>2026-04-30T07:50:24.741Z</time></trkpt><trkpt lat="41.17041" lon="9.3364874"><ele>46.0</ele><time>2026-04-30T07:50:25.742Z</time></trkpt><trkpt lat="41.1705354" lon="9.3364444"><ele>46.0</ele><time>2026-04-30T07:50:26.742Z</time></trkpt><trkpt lat="41.1706753" lon="9.3364015"><ele>45.0</ele><time>2026-04-30T07:50:27.742Z</time></trkpt><trkpt lat="41.1708189" lon="9.3363573"><ele>44.0</ele><time>2026-04-30T07:50:28.742Z</time></trkpt><trkpt lat="41.1709634" lon="9.3363089"><ele>43.0</ele><time>2026-04-30T07:50:29.742Z</time></trkpt><trkpt lat="41.1711089" lon="9.3362598"><ele>42.0</ele><time>2026-04-30T07:50:30.741Z</time></trkpt><trkpt lat="41.171253" lon="9.3362128"><ele>42.0</ele><time>2026-04-30T07:50:31.742Z</time></trkpt><trkpt lat="41.1713985" lon="9.3361668"><ele>42.0</ele><time>2026-04-30T07:50:32.742Z</time></trkpt><trkpt lat="41.1715407" lon="9.3361247"><ele>42.0</ele><time>2026-04-30T07:50:33.741Z</time></trkpt><trkpt lat="41.1716826" lon="9.3360858"><ele>42.0</ele><time>2026-04-30T07:50:34.742Z</time></trkpt><trkpt lat="41.1718223" lon="9.3360555"><ele>42.25</ele><time>2026-04-30T07:50:35.742Z</time></trkpt><trkpt lat="41.1719673" lon="9.3360298"><ele>42.5</ele><time>2026-04-30T07:50:36.742Z</time></trkpt><trkpt lat="41.1721185" lon="9.3360063"><ele>42.75</ele><time>2026-04-30T07:50:37.741Z</time></trkpt><trkpt lat="41.172268" lon="9.3359846"><ele>43.0</ele><time>2026-04-30T07:50:38.741Z</time></trkpt><trkpt lat="41.1724136" lon="9.3359639"><ele>42.25</ele><time>2026-04-30T07:50:39.742Z</time></trkpt><trkpt lat="41.1725576" lon="9.3359421"><ele>41.5</ele><time>2026-04-30T07:50:40.742Z</time></trkpt><trkpt lat="41.1727035" lon="9.3359251"><ele>40.75</ele><time>2026-04-30T07:50:41.742Z</time></trkpt><trkpt lat="41.1728511" lon="9.3359033"><ele>40.0</ele><time>2026-04-30T07:50:42.742Z</time></trkpt><trkpt lat="41.1730068" lon="9.335881"><ele>40.0</ele><time>2026-04-30T07:50:43.742Z</time></trkpt><trkpt lat="41.1731683" lon="9.3358583"><ele>40.0</ele><time>2026-04-30T07:50:44.741Z</time></trkpt><trkpt lat="41.1733336" lon="9.3358264"><ele>40.0</ele><time>2026-04-30T07:50:45.742Z</time></trkpt><trkpt lat="41.1735013" lon="9.3357796"><ele>37.66666666666667</ele><time>2026-04-30T07:50:46.742Z</time></trkpt><trkpt lat="41.1736651" lon="9.3357065"><ele>35.333333333333336</ele><time>2026-04-30T07:50:47.742Z</time></trkpt><trkpt lat="41.173815" lon="9.3356117"><ele>33.0</ele><time>2026-04-30T07:50:48.742Z</time></trkpt><trkpt lat="41.1739549" lon="9.3354957"><ele>32.333333333333336</ele><time>2026-04-30T07:50:49.742Z</time></trkpt><trkpt lat="41.1740864" lon="9.3353577"><ele>31.666666666666668</ele><time>2026-04-30T07:50:50.742Z</time></trkpt><trkpt lat="41.1742044" lon="9.3351963"><ele>31.0</ele><time>2026-04-30T07:50:51.742Z</time></trkpt><trkpt lat="41.17431" lon="9.3350124"><ele>31.0</ele><time>2026-04-30T07:50:52.742Z</time></trkpt><trkpt lat="41.1744047" lon="9.3348064"><ele>31.0</ele><time>2026-04-30T07:50:53.742Z</time></trkpt><trkpt lat="41.1744979" lon="9.3345875"><ele>31.0</ele><time>2026-04-30T07:50:54.742Z</time></trkpt><trkpt lat="41.174594" lon="9.334359"><ele>30.0</ele><time>2026-04-30T07:50:55.741Z</time></trkpt><trkpt lat="41.1746962" lon="9.3341223"><ele>29.0</ele><time>2026-04-30T07:50:56.742Z</time></trkpt><trkpt lat="41.1748005" lon="9.3338751"><ele>28.0</ele><time>2026-04-30T07:50:57.741Z</time></trkpt><trkpt lat="41.1749077" lon="9.3336241"><ele>28.0</ele><time>2026-04-30T07:50:58.741Z</time></trkpt><trkpt lat="41.1750157" lon="9.3333707"><ele>28.0</ele><time>2026-04-30T07:50:59.742Z</time></trkpt><trkpt lat="41.175123" lon="9.3331192"><ele>28.0</ele><time>2026-04-30T07:51:00.742Z</time></trkpt><trkpt lat="41.1752318" lon="9.3328673"><ele>28.333333333333336</ele><time>2026-04-30T07:51:01.742Z</time></trkpt><trkpt lat="41.175345" lon="9.3326211"><ele>28.666666666666664</ele><time>2026-04-30T07:51:02.742Z</time></trkpt><trkpt lat="41.1754635" lon="9.3323839"><ele>29.0</ele><time>2026-04-30T07:51:03.742Z</time></trkpt><trkpt lat="41.1755861" lon="9.3321495"><ele>29.666666666666664</ele><time>2026-04-30T07:51:04.741Z</time></trkpt><trkpt lat="41.1757097" lon="9.3319189"><ele>30.333333333333336</ele><time>2026-04-30T07:51:05.742Z</time></trkpt><trkpt lat="41.1758338" lon="9.3316887"><ele>31.0</ele><time>2026-04-30T07:51:06.742Z</time></trkpt><trkpt lat="41.1759598" lon="9.3314636"><ele>30.333333333333336</ele><time>2026-04-30T07:51:07.741Z</time></trkpt><trkpt lat="41.176075" lon="9.3312562"><ele>29.666666666666664</ele><time>2026-04-30T07:51:08.742Z</time></trkpt><trkpt lat="41.1761842" lon="9.3310591"><ele>29.0</ele><time>2026-04-30T07:51:09.742Z</time></trkpt><trkpt lat="41.1762894" lon="9.3308722"><ele>29.0</ele><time>2026-04-30T07:51:10.742Z</time></trkpt><trkpt lat="41.176388" lon="9.3306897"><ele>29.0</ele><time>2026-04-30T07:51:11.742Z</time></trkpt><trkpt lat="41.1764816" lon="9.3305119"><ele>29.0</ele><time>2026-04-30T07:51:12.742Z</time></trkpt><trkpt lat="41.1765708" lon="9.330341"><ele>29.25</ele><time>2026-04-30T07:51:13.742Z</time></trkpt><trkpt lat="41.1766522" lon="9.3301783"><ele>29.5</ele><time>2026-04-30T07:51:14.742Z</time></trkpt><trkpt lat="41.1767213" lon="9.330018"><ele>29.75</ele><time>2026-04-30T07:51:15.742Z</time></trkpt><trkpt lat="41.1767826" lon="9.3298529"><ele>30.0</ele><time>2026-04-30T07:51:16.742Z</time></trkpt><trkpt lat="41.1768447" lon="9.3296752"><ele>30.0</ele><time>2026-04-30T07:51:17.742Z</time></trkpt><trkpt lat="41.1769106" lon="9.3294736"><ele>30.0</ele><time>2026-04-30T07:51:18.742Z</time></trkpt><trkpt lat="41.1769771" lon="9.3292405"><ele>30.0</ele><time>2026-04-30T07:51:19.741Z</time></trkpt><trkpt lat="41.177051" lon="9.328981"><ele>29.666666666666664</ele><time>2026-04-30T07:51:20.742Z</time></trkpt><trkpt lat="41.1771332" lon="9.328697"><ele>29.333333333333332</ele><time>2026-04-30T07:51:21.742Z</time></trkpt><trkpt lat="41.1772167" lon="9.328427"><ele>29.0</ele><time>2026-04-30T07:51:22.741Z</time></trkpt><trkpt lat="41.1772981" lon="9.3281529"><ele>30.333333333333332</ele><time>2026-04-30T07:51:23.742Z</time></trkpt><trkpt lat="41.1773751" lon="9.3278995"><ele>31.666666666666664</ele><time>2026-04-30T07:51:24.742Z</time></trkpt><trkpt lat="41.1774474" lon="9.3276841"><ele>33.0</ele><time>2026-04-30T07:51:25.741Z</time></trkpt><trkpt lat="41.1775062" lon="9.3275073"><ele>33.0</ele><time>2026-04-30T07:51:26.742Z</time></trkpt><trkpt lat="41.1775534" lon="9.327352"><ele>33.0</ele><time>2026-04-30T07:51:27.742Z</time></trkpt><trkpt lat="41.1775954" lon="9.3272132"><ele>33.0</ele><time>2026-04-30T07:51:28.742Z</time></trkpt><trkpt lat="41.1776338" lon="9.3270877"><ele>33.0</ele><time>2026-04-30T07:51:29.741Z</time></trkpt><trkpt lat="41.1776646" lon="9.32696"><ele>33.0</ele><time>2026-04-30T07:51:30.742Z</time></trkpt><trkpt lat="41.177695" lon="9.3268359"><ele>33.6</ele><time>2026-04-30T07:51:31.742Z</time></trkpt><trkpt lat="41.1777238" lon="9.3267165"><ele>34.199999999999996</ele><time>2026-04-30T07:51:32.742Z</time></trkpt><trkpt lat="41.1777495" lon="9.3265947"><ele>34.8</ele><time>2026-04-30T07:51:33.742Z</time></trkpt><trkpt lat="41.1777754" lon="9.326468"><ele>35.4</ele><time>2026-04-30T07:51:34.741Z</time></trkpt><trkpt lat="41.1777999" lon="9.3263414"><ele>36.0</ele><time>2026-04-30T07:51:35.741Z</time></trkpt><trkpt lat="41.1778245" lon="9.3262107"><ele>36.5</ele><time>2026-04-30T07:51:36.741Z</time></trkpt><trkpt lat="41.1778493" lon="9.3260792"><ele>37.0</ele><time>2026-04-30T07:51:37.742Z</time></trkpt><trkpt lat="41.1778773" lon="9.3259422"><ele>37.5</ele><time>2026-04-30T07:51:38.742Z</time></trkpt><trkpt lat="41.1779072" lon="9.3257935"><ele>38.0</ele><time>2026-04-30T07:51:39.742Z</time></trkpt><trkpt lat="41.1779387" lon="9.3256326"><ele>37.5</ele><time>2026-04-30T07:51:40.742Z</time></trkpt><trkpt lat="41.1779702" lon="9.3254724"><ele>37.0</ele><time>2026-04-30T07:51:41.742Z</time></trkpt><trkpt lat="41.1779999" lon="9.3253202"><ele>36.5</ele><time>2026-04-30T07:51:42.742Z</time></trkpt><trkpt lat="41.1780291" lon="9.3251757"><ele>36.0</ele><time>2026-04-30T07:51:43.742Z</time></trkpt><trkpt lat="41.1780567" lon="9.3250404"><ele>36.0</ele><time>2026-04-30T07:51:44.742Z</time></trkpt><trkpt lat="41.1780853" lon="9.3249118"><ele>36.0</ele><time>2026-04-30T07:51:45.742Z</time></trkpt><trkpt lat="41.1781134" lon="9.3247905"><ele>36.0</ele><time>2026-04-30T07:51:46.742Z</time></trkpt><trkpt lat="41.1781409" lon="9.3246776"><ele>36.0</ele><time>2026-04-30T07:51:47.742Z</time></trkpt><trkpt lat="41.1781709" lon="9.3245669"><ele>36.0</ele><time>2026-04-30T07:51:48.742Z</time></trkpt><trkpt lat="41.1782066" lon="9.3244512"><ele>37.25</ele><time>2026-04-30T07:51:49.742Z</time></trkpt><trkpt lat="41.1782493" lon="9.3243206"><ele>38.5</ele><time>2026-04-30T07:51:50.742Z</time></trkpt><trkpt lat="41.1782992" lon="9.3241815"><ele>39.75</ele><time>2026-04-30T07:51:51.742Z</time></trkpt><trkpt lat="41.1783602" lon="9.3240427"><ele>41.0</ele><time>2026-04-30T07:51:52.742Z</time></trkpt><trkpt lat="41.1784266" lon="9.3239121"><ele>41.0</ele><time>2026-04-30T07:51:53.741Z</time></trkpt><trkpt lat="41.1784932" lon="9.3237886"><ele>41.0</ele><time>2026-04-30T07:51:54.741Z</time></trkpt><trkpt lat="41.1785609" lon="9.3236709"><ele>41.0</ele><time>2026-04-30T07:51:55.742Z</time></trkpt><trkpt lat="41.1786339" lon="9.3235568"><ele>41.0</ele><time>2026-04-30T07:51:56.742Z</time></trkpt><trkpt lat="41.1787149" lon="9.3234436"><ele>41.0</ele><time>2026-04-30T07:51:57.741Z</time></trkpt><trkpt lat="41.1788007" lon="9.3233336"><ele>41.0</ele><time>2026-04-30T07:51:58.741Z</time></trkpt><trkpt lat="41.1788918" lon="9.3232312"><ele>41.0</ele><time>2026-04-30T07:51:59.741Z</time></trkpt><trkpt lat="41.1789836" lon="9.3231396"><ele>41.0</ele><time>2026-04-30T07:52:00.741Z</time></trkpt><trkpt lat="41.1790797" lon="9.3230509"><ele>38.5</ele><time>2026-04-30T07:52:01.741Z</time></trkpt><trkpt lat="41.1791807" lon="9.3229686"><ele>36.0</ele><time>2026-04-30T07:52:02.742Z</time></trkpt><trkpt lat="41.1792858" lon="9.3228917"><ele>33.5</ele><time>2026-04-30T07:52:03.742Z</time></trkpt><trkpt lat="41.1793892" lon="9.3228268"><ele>31.0</ele><time>2026-04-30T07:52:04.742Z</time></trkpt><trkpt lat="41.1794931" lon="9.3227692"><ele>31.000000000000004</ele><time>2026-04-30T07:52:05.742Z</time></trkpt><trkpt lat="41.1795913" lon="9.3227228"><ele>31.0</ele><time>2026-04-30T07:52:06.742Z</time></trkpt><trkpt lat="41.1796809" lon="9.3226875"><ele>31.0</ele><time>2026-04-30T07:52:07.742Z</time></trkpt><trkpt lat="41.1797592" lon="9.3226605"><ele>31.0</ele><time>2026-04-30T07:52:08.742Z</time></trkpt><trkpt lat="41.1798338" lon="9.3226334"><ele>31.000000000000004</ele><time>2026-04-30T07:52:09.741Z</time></trkpt><trkpt lat="41.1799022" lon="9.3226075"><ele>31.0</ele><time>2026-04-30T07:52:10.742Z</time></trkpt><trkpt lat="41.1799701" lon="9.3225811"><ele>31.200000000000003</ele><time>2026-04-30T07:52:11.742Z</time></trkpt><trkpt lat="41.1800471" lon="9.3225524"><ele>31.400000000000002</ele><time>2026-04-30T07:52:12.742Z</time></trkpt><trkpt lat="41.180129" lon="9.3225178"><ele>31.6</ele><time>2026-04-30T07:52:13.742Z</time></trkpt><trkpt lat="41.1802193" lon="9.3224814"><ele>31.8</ele><time>2026-04-30T07:52:14.742Z</time></trkpt><trkpt lat="41.1803205" lon="9.3224407"><ele>32.0</ele><time>2026-04-30T07:52:15.742Z</time></trkpt><trkpt lat="41.1804308" lon="9.3223996"><ele>32.0</ele><time>2026-04-30T07:52:16.742Z</time></trkpt><trkpt lat="41.1805429" lon="9.3223554"><ele>32.0</ele><time>2026-04-30T07:52:17.742Z</time></trkpt><trkpt lat="41.1806607" lon="9.3223082"><ele>32.0</ele><time>2026-04-30T07:52:18.742Z</time></trkpt><trkpt lat="41.1807845" lon="9.3222657"><ele>32.0</ele><time>2026-04-30T07:52:19.742Z</time></trkpt><trkpt lat="41.1809081" lon="9.3222193"><ele>32.5</ele><time>2026-04-30T07:52:20.742Z</time></trkpt><trkpt lat="41.181039" lon="9.3221734"><ele>33.0</ele><time>2026-04-30T07:52:21.742Z</time></trkpt><trkpt lat="41.1811731" lon="9.3221244"><ele>33.5</ele><time>2026-04-30T07:52:22.742Z</time></trkpt><trkpt lat="41.1813131" lon="9.3220695"><ele>34.0</ele><time>2026-04-30T07:52:23.742Z</time></trkpt><trkpt lat="41.1814589" lon="9.3220121"><ele>33.333333333333336</ele><time>2026-04-30T07:52:24.742Z</time></trkpt><trkpt lat="41.181608" lon="9.3219512"><ele>32.666666666666664</ele><time>2026-04-30T07:52:25.742Z</time></trkpt><trkpt lat="41.1817642" lon="9.3218886"><ele>32.0</ele><time>2026-04-30T07:52:26.742Z</time></trkpt><trkpt lat="41.1819248" lon="9.3218277"><ele>32.0</ele><time>2026-04-30T07:52:27.742Z</time></trkpt><trkpt lat="41.182092" lon="9.3217628"><ele>32.0</ele><time>2026-04-30T07:52:28.741Z</time></trkpt><trkpt lat="41.1822686" lon="9.3216928"><ele>32.0</ele><time>2026-04-30T07:52:29.742Z</time></trkpt><trkpt lat="41.1824466" lon="9.3216192"><ele>29.333333333333332</ele><time>2026-04-30T07:52:30.741Z</time></trkpt><trkpt lat="41.1826233" lon="9.3215545"><ele>26.666666666666664</ele><time>2026-04-30T07:52:31.742Z</time></trkpt><trkpt lat="41.1827959" lon="9.3214902"><ele>24.0</ele><time>2026-04-30T07:52:32.741Z</time></trkpt><trkpt lat="41.1829656" lon="9.3214291"><ele>23.666666666666668</ele><time>2026-04-30T07:52:33.742Z</time></trkpt><trkpt lat="41.1831333" lon="9.321365"><ele>23.333333333333336</ele><time>2026-04-30T07:52:34.742Z</time></trkpt><trkpt lat="41.183302" lon="9.3213006"><ele>23.0</ele><time>2026-04-30T07:52:35.741Z</time></trkpt><trkpt lat="41.1834782" lon="9.3212328"><ele>23.0</ele><time>2026-04-30T07:52:36.742Z</time></trkpt><trkpt lat="41.1836583" lon="9.3211624"><ele>23.0</ele><time>2026-04-30T07:52:37.742Z</time></trkpt><trkpt lat="41.1838441" lon="9.3210916"><ele>23.0</ele><time>2026-04-30T07:52:38.742Z</time></trkpt><trkpt lat="41.1840337" lon="9.3210168"><ele>19.0</ele><time>2026-04-30T07:52:39.742Z</time></trkpt><trkpt lat="41.1842231" lon="9.3209412"><ele>15.0</ele><time>2026-04-30T07:52:40.742Z</time></trkpt><trkpt lat="41.1844088" lon="9.3208703"><ele>11.0</ele><time>2026-04-30T07:52:41.742Z</time></trkpt><trkpt lat="41.1845916" lon="9.3208023"><ele>11.0</ele><time>2026-04-30T07:52:42.741Z</time></trkpt><trkpt lat="41.1847703" lon="9.3207393"><ele>11.0</ele><time>2026-04-30T07:52:43.742Z</time></trkpt><trkpt lat="41.1849544" lon="9.3206841"><ele>11.0</ele><time>2026-04-30T07:52:44.741Z</time></trkpt><trkpt lat="41.1851457" lon="9.3206402"><ele>8.333333333333332</ele><time>2026-04-30T07:52:45.742Z</time></trkpt><trkpt lat="41.1853437" lon="9.3206126"><ele>5.666666666666666</ele><time>2026-04-30T07:52:46.742Z</time></trkpt><trkpt lat="41.1855503" lon="9.3206027"><ele>3.0</ele><time>2026-04-30T07:52:47.742Z</time></trkpt><trkpt lat="41.185765" lon="9.3206005"><ele>2.3333333333333335</ele><time>2026-04-30T07:52:48.742Z</time></trkpt><trkpt lat="41.1859877" lon="9.3206001"><ele>1.6666666666666665</ele><time>2026-04-30T07:52:49.742Z</time></trkpt><trkpt lat="41.1862093" lon="9.3206019"><ele>1.0</ele><time>2026-04-30T07:52:50.741Z</time></trkpt><trkpt lat="41.1864242" lon="9.3206078"><ele>0.0</ele><time>2026-04-30T07:52:51.742Z</time></trkpt><trkpt lat="41.1866331" lon="9.3206228"><ele>-1.0</ele><time>2026-04-30T07:52:52.741Z</time></trkpt><trkpt lat="41.18683" lon="9.3206427"><ele>-2.0</ele><time>2026-04-30T07:52:53.742Z</time></trkpt><trkpt lat="41.1870208" lon="9.3206645"><ele>-2.0</ele><time>2026-04-30T07:52:54.742Z</time></trkpt><trkpt lat="41.1872016" lon="9.3206866"><ele>-2.0</ele><time>2026-04-30T07:52:55.742Z</time></trkpt><trkpt lat="41.1873812" lon="9.3207092"><ele>-2.0</ele><time>2026-04-30T07:52:56.742Z</time></trkpt><trkpt lat="41.1875581" lon="9.3207345"><ele>-2.0</ele><time>2026-04-30T07:52:57.742Z</time></trkpt><trkpt lat="41.1877359" lon="9.3207599"><ele>-2.0</ele><time>2026-04-30T07:52:58.742Z</time></trkpt><trkpt lat="41.1879159" lon="9.3207857"><ele>-2.0</ele><time>2026-04-30T07:52:59.741Z</time></trkpt><trkpt lat="41.1880983" lon="9.3208111"><ele>-2.0</ele><time>2026-04-30T07:53:00.742Z</time></trkpt><trkpt lat="41.1882834" lon="9.3208326"><ele>-2.0</ele><time>2026-04-30T07:53:01.741Z</time></trkpt><trkpt lat="41.188467" lon="9.320852"><ele>-2.0</ele><time>2026-04-30T07:53:02.741Z</time></trkpt><trkpt lat="41.1886376" lon="9.3208699"><ele>-2.0</ele><time>2026-04-30T07:53:03.742Z</time></trkpt><trkpt lat="41.1887882" lon="9.3208828"><ele>-2.0</ele><time>2026-04-30T07:53:04.742Z</time></trkpt><trkpt lat="41.1889294" lon="9.320893"><ele>-2.0</ele><time>2026-04-30T07:53:05.742Z</time></trkpt><trkpt lat="41.1890698" lon="9.3209004"><ele>-2.0</ele><time>2026-04-30T07:53:06.742Z</time></trkpt><trkpt lat="41.1892116" lon="9.3209064"><ele>-1.75</ele><time>2026-04-30T07:53:07.742Z</time></trkpt><trkpt lat="41.1893549" lon="9.3209112"><ele>-1.5</ele><time>2026-04-30T07:53:08.742Z</time></trkpt><trkpt lat="41.1895024" lon="9.3209128"><ele>-1.25</ele><time>2026-04-30T07:53:09.742Z</time></trkpt><trkpt lat="41.1896477" lon="9.3209069"><ele>-1.0</ele><time>2026-04-30T07:53:10.742Z</time></trkpt><trkpt lat="41.1897831" lon="9.3208889"><ele>-1.0</ele><time>2026-04-30T07:53:11.742Z</time></trkpt><trkpt lat="41.1899077" lon="9.3208563"><ele>-1.0</ele><time>2026-04-30T07:53:12.742Z</time></trkpt><trkpt lat="41.1900191" lon="9.3208097"><ele>-1.0</ele><time>2026-04-30T07:53:13.742Z</time></trkpt><trkpt lat="41.1901209" lon="9.3207567"><ele>-1.0</ele><time>2026-04-30T07:53:14.742Z</time></trkpt><trkpt lat="41.1902204" lon="9.3207118"><ele>-0.9999999999999999</ele><time>2026-04-30T07:53:15.742Z</time></trkpt><trkpt lat="41.1903247" lon="9.3206908"><ele>-1.0</ele><time>2026-04-30T07:53:16.741Z</time></trkpt><trkpt lat="41.190423" lon="9.3206872"><ele>-1.0</ele><time>2026-04-30T07:53:17.742Z</time></trkpt><trkpt lat="41.1905126" lon="9.3206876"><ele>-1.0</ele><time>2026-04-30T07:53:18.742Z</time></trkpt><trkpt lat="41.1905868" lon="9.3206557"><ele>-0.9999999999999999</ele><time>2026-04-30T07:53:19.742Z</time></trkpt><trkpt lat="41.1906502" lon="9.3206007"><ele>-1.0</ele><time>2026-04-30T07:53:20.742Z</time></trkpt><trkpt lat="41.1907142" lon="9.3205299"><ele>-1.0</ele><time>2026-04-30T07:53:21.742Z</time></trkpt><trkpt lat="41.1907816" lon="9.3204445"><ele>-1.0</ele><time>2026-04-30T07:53:22.742Z</time></trkpt><trkpt lat="41.1908583" lon="9.3203492"><ele>-1.0</ele><time>2026-04-30T07:53:23.742Z</time></trkpt><trkpt lat="41.1909498" lon="9.3202478"><ele>-1.0</ele><time>2026-04-30T07:53:24.742Z</time></trkpt><trkpt lat="41.1910449" lon="9.3201498"><ele>-1.0</ele><time>2026-04-30T07:53:25.742Z</time></trkpt><trkpt lat="41.1911409" lon="9.3200574"><ele>-1.0</ele><time>2026-04-30T07:53:26.742Z</time></trkpt><trkpt lat="41.1912323" lon="9.3199747"><ele>-1.0</ele><time>2026-04-30T07:53:27.741Z</time></trkpt><trkpt lat="41.1913213" lon="9.319893"><ele>-1.0</ele><time>2026-04-30T07:53:28.742Z</time></trkpt><trkpt lat="41.1914058" lon="9.3198147"><ele>-1.0</ele><time>2026-04-30T07:53:29.742Z</time></trkpt><trkpt lat="41.1914865" lon="9.3197398"><ele>-1.0</ele><time>2026-04-30T07:53:30.742Z</time></trkpt><trkpt lat="41.1915638" lon="9.3196669"><ele>-0.9999999999999999</ele><time>2026-04-30T07:53:31.742Z</time></trkpt><trkpt lat="41.1916383" lon="9.319597"><ele>-1.0</ele><time>2026-04-30T07:53:32.741Z</time></trkpt><trkpt lat="41.1917126" lon="9.3195316"><ele>-1.0</ele><time>2026-04-30T07:53:33.742Z</time></trkpt><trkpt lat="41.1917912" lon="9.3194678"><ele>-1.0</ele><time>2026-04-30T07:53:34.741Z</time></trkpt><trkpt lat="41.1918626" lon="9.3194092"><ele>-0.9999999999999999</ele><time>2026-04-30T07:53:35.742Z</time></trkpt><trkpt lat="41.1919237" lon="9.3193557"><ele>-1.0</ele><time>2026-04-30T07:53:36.742Z</time></trkpt><trkpt lat="41.1919784" lon="9.319308"><ele>-1.0</ele><time>2026-04-30T07:53:37.742Z</time></trkpt><trkpt lat="41.1920913" lon="9.3192246"><ele>-1.0</ele><time>2026-04-30T07:53:39.742Z</time></trkpt><trkpt lat="41.1921499" lon="9.319188"><ele>-1.0</ele><time>2026-04-30T07:53:40.741Z</time></trkpt><trkpt lat="41.1922575" lon="9.3191338"><ele>-1.0</ele><time>2026-04-30T07:53:42.741Z</time></trkpt><trkpt lat="41.1923492" lon="9.3190994"><ele>-1.0</ele><time>2026-04-30T07:53:44.742Z</time></trkpt><trkpt lat="41.1924546" lon="9.3190653"><ele>-0.8</ele><time>2026-04-30T07:53:46.742Z</time></trkpt><trkpt lat="41.1925547" lon="9.3190332"><ele>-0.6000000000000001</ele><time>2026-04-30T07:53:48.742Z</time></trkpt><trkpt lat="41.1926472" lon="9.3190103"><ele>-0.4</ele><time>2026-04-30T07:53:50.742Z</time></trkpt><trkpt lat="41.1927441" lon="9.318991"><ele>-0.2</ele><time>2026-04-30T07:53:52.742Z</time></trkpt><trkpt lat="41.1928471" lon="9.3189683"><ele>0.0</ele><time>2026-04-30T07:53:54.742Z</time></trkpt><trkpt lat="41.1929417" lon="9.3189421"><ele>0.0</ele><time>2026-04-30T07:53:56.742Z</time></trkpt><trkpt lat="41.193019" lon="9.3189186"><ele>0.0</ele><time>2026-04-30T07:53:58.742Z</time></trkpt><trkpt lat="41.1931056" lon="9.3188952"><ele>0.0</ele><time>2026-04-30T07:54:00.741Z</time></trkpt><trkpt lat="41.1931855" lon="9.3188758"><ele>0.0</ele><time>2026-04-30T07:54:02.742Z</time></trkpt><trkpt lat="41.1932601" lon="9.318861"><ele>0.0</ele><time>2026-04-30T07:54:04.741Z</time></trkpt><trkpt lat="41.1933244" lon="9.3188534"><ele>0.0</ele><time>2026-04-30T07:54:06.741Z</time></trkpt><trkpt lat="41.1933935" lon="9.3188434"><ele>0.0</ele><time>2026-04-30T07:54:08.742Z</time></trkpt><trkpt lat="41.19346" lon="9.3188349"><ele>0.0</ele><time>2026-04-30T07:54:10.742Z</time></trkpt><trkpt lat="41.1935327" lon="9.3188177"><ele>0.0</ele><time>2026-04-30T07:54:12.742Z</time></trkpt><trkpt lat="41.1936023" lon="9.3187989"><ele>0.0</ele><time>2026-04-30T07:54:14.742Z</time></trkpt><trkpt lat="41.1936648" lon="9.3187809"><ele>0.0</ele><time>2026-04-30T07:54:16.742Z</time></trkpt><trkpt lat="41.1937485" lon="9.3187466"><ele>0.0</ele><time>2026-04-30T07:54:19.741Z</time></trkpt><trkpt lat="41.193814" lon="9.3187031"><ele>0.0</ele><time>2026-04-30T07:54:23.742Z</time></trkpt><trkpt lat="41.1938777" lon="9.3186936"><ele>0.0</ele><time>2026-04-30T07:56:28.74Z</time></trkpt><trkpt lat="41.1939206" lon="9.3186162"><ele>0.0</ele><time>2026-04-30T07:56:57.742Z</time></trkpt><trkpt lat="41.1939214" lon="9.3185146"><ele>0.0</ele><time>2026-04-30T07:57:03.741Z</time></trkpt><trkpt lat="41.1939237" lon="9.3184262"><ele>0.0</ele><time>2026-04-30T07:57:10.742Z</time></trkpt><trkpt lat="41.1939634" lon="9.3183485"><ele>0.0</ele><time>2026-04-30T07:57:18.741Z</time></trkpt><trkpt lat="41.1939264" lon="9.318417"><ele>0.0</ele><time>2026-04-30T07:57:43.742Z</time></trkpt><trkpt lat="41.1939093" lon="9.3185098"><ele>0.0</ele><time>2026-04-30T07:57:49.742Z</time></trkpt><trkpt lat="41.1938982" lon="9.3186033"><ele>0.0</ele><time>2026-04-30T07:57:55.742Z</time></trkpt><trkpt lat="41.1938883" lon="9.3186908"><ele>0.0</ele><time>2026-04-30T07:58:01.741Z</time></trkpt><trkpt lat="41.1938165" lon="9.3186921"><ele>0.0</ele><time>2026-04-30T07:58:19.742Z</time></trkpt><trkpt lat="41.1937613" lon="9.3187403"><ele>0.0</ele><time>2026-04-30T07:58:32.742Z</time></trkpt><trkpt lat="41.1937996" lon="9.318672"><ele>0.0</ele><time>2026-04-30T07:58:53.742Z</time></trkpt><trkpt lat="41.1937563" lon="9.3187383"><ele>0.0</ele><time>2026-04-30T07:59:22.742Z</time></trkpt><trkpt lat="41.1936881" lon="9.3187707"><ele>0.0</ele><time>2026-04-30T07:59:28.742Z</time></trkpt><trkpt lat="41.1936291" lon="9.318808"><ele>0.0</ele><time>2026-04-30T07:59:35.742Z</time></trkpt><trkpt lat="41.1935583" lon="9.31882"><ele>0.0</ele><time>2026-04-30T07:59:43.742Z</time></trkpt><trkpt lat="41.1934896" lon="9.3188299"><ele>0.0</ele><time>2026-04-30T07:59:50.742Z</time></trkpt><trkpt lat="41.1934256" lon="9.318867"><ele>0.0</ele><time>2026-04-30T07:59:58.655Z</time></trkpt><trkpt lat="41.1934331" lon="9.3189604"><ele>0.0</ele><time>2026-04-30T08:00:05.742Z</time></trkpt><trkpt lat="41.1934885" lon="9.3190082"><ele>0.0</ele><time>2026-04-30T08:00:13.691Z</time></trkpt><trkpt lat="41.1934715" lon="9.3189207"><ele>0.0</ele><time>2026-04-30T08:01:31.742Z</time></trkpt><trkpt lat="41.1934865" lon="9.319003"><ele>0.0</ele><time>2026-04-30T08:39:28.737Z</time></trkpt><trkpt lat="41.1935499" lon="9.3189989"><ele>0.0</ele><time>2026-04-30T08:40:07.742Z</time></trkpt><trkpt lat="41.1935786" lon="9.3189226"><ele>0.0</ele><time>2026-04-30T08:40:18.742Z</time></trkpt><trkpt lat="41.1935922" lon="9.3188385"><ele>0.0</ele><time>2026-04-30T08:40:24.667Z</time></trkpt><trkpt lat="41.1936495" lon="9.3188"><ele>0.0</ele><time>2026-04-30T08:41:36.741Z</time></trkpt><trkpt lat="41.1937183" lon="9.3187687"><ele>0.0</ele><time>2026-04-30T08:41:43.649Z</time></trkpt><trkpt lat="41.1937751" lon="9.3187325"><ele>0.0</ele><time>2026-04-30T08:41:51.742Z</time></trkpt><trkpt lat="41.1938342" lon="9.3186988"><ele>0.0</ele><time>2026-04-30T08:42:02.742Z</time></trkpt><trkpt lat="41.1939032" lon="9.318684"><ele>0.0</ele><time>2026-04-30T08:42:39.74Z</time></trkpt><trkpt lat="41.1938323" lon="9.3186982"><ele>0.0</ele><time>2026-04-30T08:43:38.731Z</time></trkpt><trkpt lat="41.1937675" lon="9.3187233"><ele>0.0</ele><time>2026-04-30T08:51:00.742Z</time></trkpt><trkpt lat="41.1937011" lon="9.3187474"><ele>0.0</ele><time>2026-04-30T08:51:02.736Z</time></trkpt><trkpt lat="41.1936247" lon="9.3187924"><ele>0.0</ele><time>2026-04-30T08:51:05.739Z</time></trkpt><trkpt lat="41.1935568" lon="9.3188034"><ele>0.0</ele><time>2026-04-30T08:51:07.738Z</time></trkpt><trkpt lat="41.1934831" lon="9.3188162"><ele>0.0</ele><time>2026-04-30T08:51:09.742Z</time></trkpt><trkpt lat="41.1934137" lon="9.3188266"><ele>0.0</ele><time>2026-04-30T08:51:11.739Z</time></trkpt><trkpt lat="41.193324" lon="9.3188437"><ele>0.0</ele><time>2026-04-30T08:51:13.741Z</time></trkpt><trkpt lat="41.1932195" lon="9.3188624"><ele>0.0</ele><time>2026-04-30T08:51:15.736Z</time></trkpt><trkpt lat="41.1931177" lon="9.3188843"><ele>0.0</ele><time>2026-04-30T08:51:17.742Z</time></trkpt><trkpt lat="41.193031" lon="9.3189026"><ele>0.0</ele><time>2026-04-30T08:51:19.74Z</time></trkpt><trkpt lat="41.1929373" lon="9.318925"><ele>0.0</ele><time>2026-04-30T08:51:21.738Z</time></trkpt><trkpt lat="41.1928418" lon="9.3189502"><ele>0.0</ele><time>2026-04-30T08:51:23.742Z</time></trkpt><trkpt lat="41.1927647" lon="9.3189715"><ele>0.0</ele><time>2026-04-30T08:51:25.742Z</time></trkpt><trkpt lat="41.1926847" lon="9.3189868"><ele>0.0</ele><time>2026-04-30T08:51:28.741Z</time></trkpt><trkpt lat="41.1926047" lon="9.3189527"><ele>0.0</ele><time>2026-04-30T08:52:08.742Z</time></trkpt><trkpt lat="41.1925407" lon="9.3189272"><ele>0.0</ele><time>2026-04-30T08:52:10.739Z</time></trkpt><trkpt lat="41.1924709" lon="9.3188957"><ele>0.0</ele><time>2026-04-30T08:52:12.738Z</time></trkpt><trkpt lat="41.1923913" lon="9.3188974"><ele>0.0</ele><time>2026-04-30T08:52:14.742Z</time></trkpt><trkpt lat="41.192306" lon="9.3189412"><ele>0.0</ele><time>2026-04-30T08:52:16.738Z</time></trkpt><trkpt lat="41.1922186" lon="9.3189881"><ele>0.0</ele><time>2026-04-30T08:52:18.74Z</time></trkpt><trkpt lat="41.1921376" lon="9.3190307"><ele>0.0</ele><time>2026-04-30T08:52:20.742Z</time></trkpt><trkpt lat="41.192056" lon="9.3190722"><ele>-0.16666666666666666</ele><time>2026-04-30T08:52:22.738Z</time></trkpt><trkpt lat="41.1920145" lon="9.319139"><ele>-0.3333333333333333</ele><time>2026-04-30T08:52:24.741Z</time></trkpt><trkpt lat="41.1919819" lon="9.3192415"><ele>-0.5</ele><time>2026-04-30T08:52:27.739Z</time></trkpt><trkpt lat="41.1919222" lon="9.3193096"><ele>-0.6666666666666666</ele><time>2026-04-30T08:52:30.74Z</time></trkpt><trkpt lat="41.1918276" lon="9.319393"><ele>-0.8333333333333333</ele><time>2026-04-30T08:52:32.74Z</time></trkpt><trkpt lat="41.1917678" lon="9.3194462"><ele>-1.0</ele><time>2026-04-30T08:52:33.738Z</time></trkpt><trkpt lat="41.1917045" lon="9.3195003"><ele>-0.9999999999999999</ele><time>2026-04-30T08:52:34.736Z</time></trkpt><trkpt lat="41.1916418" lon="9.3195566"><ele>-1.0</ele><time>2026-04-30T08:52:35.742Z</time></trkpt><trkpt lat="41.1915808" lon="9.3196116"><ele>-1.0</ele><time>2026-04-30T08:52:36.738Z</time></trkpt><trkpt lat="41.1915211" lon="9.3196673"><ele>-1.0</ele><time>2026-04-30T08:52:37.739Z</time></trkpt><trkpt lat="41.1914572" lon="9.3197267"><ele>-0.9999999999999999</ele><time>2026-04-30T08:52:38.742Z</time></trkpt><trkpt lat="41.1913909" lon="9.3197872"><ele>-1.0</ele><time>2026-04-30T08:52:39.742Z</time></trkpt><trkpt lat="41.1913214" lon="9.3198477"><ele>-0.9999999999999999</ele><time>2026-04-30T08:52:40.741Z</time></trkpt><trkpt lat="41.191251" lon="9.3199117"><ele>-1.0</ele><time>2026-04-30T08:52:41.738Z</time></trkpt><trkpt lat="41.1911813" lon="9.3199747"><ele>-1.0</ele><time>2026-04-30T08:52:42.742Z</time></trkpt><trkpt lat="41.1911154" lon="9.3200299"><ele>-1.0</ele><time>2026-04-30T08:52:43.738Z</time></trkpt><trkpt lat="41.191051" lon="9.3200789"><ele>-0.9999999999999999</ele><time>2026-04-30T08:52:44.738Z</time></trkpt><trkpt lat="41.1909838" lon="9.320125"><ele>-1.0</ele><time>2026-04-30T08:52:45.739Z</time></trkpt><trkpt lat="41.1909222" lon="9.3201656"><ele>-0.9999999999999999</ele><time>2026-04-30T08:52:46.74Z</time></trkpt><trkpt lat="41.1908015" lon="9.3202193"><ele>-1.0</ele><time>2026-04-30T08:52:48.74Z</time></trkpt><trkpt lat="41.1907339" lon="9.3202317"><ele>-1.0</ele><time>2026-04-30T08:52:49.741Z</time></trkpt><trkpt lat="41.1906599" lon="9.3202322"><ele>-1.0</ele><time>2026-04-30T08:52:50.741Z</time></trkpt><trkpt lat="41.1905813" lon="9.3202358"><ele>-0.9999999999999999</ele><time>2026-04-30T08:52:51.739Z</time></trkpt><trkpt lat="41.1905094" lon="9.320259"><ele>-1.0</ele><time>2026-04-30T08:52:52.738Z</time></trkpt><trkpt lat="41.1904456" lon="9.3203036"><ele>-0.9999999999999999</ele><time>2026-04-30T08:52:53.74Z</time></trkpt><trkpt lat="41.1903918" lon="9.3203732"><ele>-1.0</ele><time>2026-04-30T08:52:54.741Z</time></trkpt><trkpt lat="41.1903469" lon="9.3204613"><ele>-1.0</ele><time>2026-04-30T08:52:55.738Z</time></trkpt><trkpt lat="41.1902964" lon="9.3205529"><ele>-1.0</ele><time>2026-04-30T08:52:56.737Z</time></trkpt><trkpt lat="41.1902303" lon="9.3206361"><ele>-0.9999999999999999</ele><time>2026-04-30T08:52:57.74Z</time></trkpt><trkpt lat="41.1901518" lon="9.3207056"><ele>-1.0</ele><time>2026-04-30T08:52:58.739Z</time></trkpt><trkpt lat="41.1900626" lon="9.3207608"><ele>-1.0</ele><time>2026-04-30T08:52:59.738Z</time></trkpt><trkpt lat="41.1899653" lon="9.3208048"><ele>-1.0</ele><time>2026-04-30T08:53:00.739Z</time></trkpt><trkpt lat="41.1898574" lon="9.320839"><ele>-1.0</ele><time>2026-04-30T08:53:01.741Z</time></trkpt><trkpt lat="41.1897394" lon="9.3208663"><ele>-1.0</ele><time>2026-04-30T08:53:02.738Z</time></trkpt><trkpt lat="41.1896162" lon="9.3208809"><ele>-1.0</ele><time>2026-04-30T08:53:03.738Z</time></trkpt><trkpt lat="41.1894914" lon="9.3208835"><ele>-1.0</ele><time>2026-04-30T08:53:04.738Z</time></trkpt><trkpt lat="41.1893657" lon="9.3208823"><ele>-1.0</ele><time>2026-04-30T08:53:05.739Z</time></trkpt><trkpt lat="41.1892434" lon="9.3208801"><ele>-1.0</ele><time>2026-04-30T08:53:06.74Z</time></trkpt><trkpt lat="41.1891189" lon="9.3208743"><ele>-1.25</ele><time>2026-04-30T08:53:07.739Z</time></trkpt><trkpt lat="41.1889915" lon="9.320868"><ele>-1.5</ele><time>2026-04-30T08:53:08.739Z</time></trkpt><trkpt lat="41.18886" lon="9.3208611"><ele>-1.75</ele><time>2026-04-30T08:53:09.74Z</time></trkpt><trkpt lat="41.1887246" lon="9.3208527"><ele>-2.0</ele><time>2026-04-30T08:53:10.739Z</time></trkpt><trkpt lat="41.1885848" lon="9.3208411"><ele>-2.0</ele><time>2026-04-30T08:53:11.739Z</time></trkpt><trkpt lat="41.1884427" lon="9.3208262"><ele>-2.0</ele><time>2026-04-30T08:53:12.741Z</time></trkpt><trkpt lat="41.1882974" lon="9.3208092"><ele>-2.0</ele><time>2026-04-30T08:53:13.738Z</time></trkpt><trkpt lat="41.1881574" lon="9.3207928"><ele>-2.0</ele><time>2026-04-30T08:53:14.739Z</time></trkpt><trkpt lat="41.1880237" lon="9.3207757"><ele>-2.0</ele><time>2026-04-30T08:53:15.74Z</time></trkpt><trkpt lat="41.1878894" lon="9.3207593"><ele>-2.0</ele><time>2026-04-30T08:53:16.739Z</time></trkpt><trkpt lat="41.1877525" lon="9.3207428"><ele>-2.0</ele><time>2026-04-30T08:53:17.738Z</time></trkpt><trkpt lat="41.1876201" lon="9.3207247"><ele>-2.0</ele><time>2026-04-30T08:53:18.74Z</time></trkpt><trkpt lat="41.1874867" lon="9.3207066"><ele>-2.0</ele><time>2026-04-30T08:53:19.74Z</time></trkpt><trkpt lat="41.1873515" lon="9.3206859"><ele>-2.0</ele><time>2026-04-30T08:53:20.739Z</time></trkpt><trkpt lat="41.1872134" lon="9.3206618"><ele>-2.0</ele><time>2026-04-30T08:53:21.742Z</time></trkpt><trkpt lat="41.1870731" lon="9.3206396"><ele>-2.0</ele><time>2026-04-30T08:53:22.738Z</time></trkpt><trkpt lat="41.1869312" lon="9.3206195"><ele>-2.0</ele><time>2026-04-30T08:53:23.738Z</time></trkpt><trkpt lat="41.1867871" lon="9.3206042"><ele>-2.0</ele><time>2026-04-30T08:53:24.738Z</time></trkpt><trkpt lat="41.1866382" lon="9.3205937"><ele>-2.0</ele><time>2026-04-30T08:53:25.738Z</time></trkpt><trkpt lat="41.1864863" lon="9.3205861"><ele>-2.0</ele><time>2026-04-30T08:53:26.739Z</time></trkpt><trkpt lat="41.186329" lon="9.3205807"><ele>-1.0</ele><time>2026-04-30T08:53:27.739Z</time></trkpt><trkpt lat="41.1861689" lon="9.3205793"><ele>0.0</ele><time>2026-04-30T08:53:28.739Z</time></trkpt><trkpt lat="41.186007" lon="9.3205793"><ele>1.0</ele><time>2026-04-30T08:53:29.74Z</time></trkpt><trkpt lat="41.1858486" lon="9.3205808"><ele>1.0</ele><time>2026-04-30T08:53:30.738Z</time></trkpt><trkpt lat="41.1856904" lon="9.3205831"><ele>1.0</ele><time>2026-04-30T08:53:31.739Z</time></trkpt><trkpt lat="41.1855365" lon="9.3205865"><ele>1.0</ele><time>2026-04-30T08:53:32.739Z</time></trkpt><trkpt lat="41.1853963" lon="9.3205949"><ele>1.5</ele><time>2026-04-30T08:53:33.739Z</time></trkpt><trkpt lat="41.1852571" lon="9.3206052"><ele>2.0</ele><time>2026-04-30T08:53:34.737Z</time></trkpt><trkpt lat="41.1851159" lon="9.3206259"><ele>2.5</ele><time>2026-04-30T08:53:35.74Z</time></trkpt><trkpt lat="41.1849725" lon="9.3206578"><ele>3.0</ele><time>2026-04-30T08:53:36.738Z</time></trkpt><trkpt lat="41.1848266" lon="9.3207008"><ele>5.666666666666666</ele><time>2026-04-30T08:53:37.74Z</time></trkpt><trkpt lat="41.1846749" lon="9.3207523"><ele>8.333333333333332</ele><time>2026-04-30T08:53:38.739Z</time></trkpt><trkpt lat="41.1845171" lon="9.3208097"><ele>11.0</ele><time>2026-04-30T08:53:39.741Z</time></trkpt><trkpt lat="41.1843532" lon="9.3208729"><ele>11.0</ele><time>2026-04-30T08:53:40.737Z</time></trkpt><trkpt lat="41.1841854" lon="9.3209396"><ele>11.0</ele><time>2026-04-30T08:53:41.737Z</time></trkpt><trkpt lat="41.1840174" lon="9.3210051"><ele>11.0</ele><time>2026-04-30T08:53:42.738Z</time></trkpt><trkpt lat="41.1838513" lon="9.3210697"><ele>15.0</ele><time>2026-04-30T08:53:43.74Z</time></trkpt><trkpt lat="41.1836842" lon="9.3211339"><ele>19.0</ele><time>2026-04-30T08:53:44.738Z</time></trkpt><trkpt lat="41.1835207" lon="9.3211968"><ele>23.0</ele><time>2026-04-30T08:53:45.741Z</time></trkpt><trkpt lat="41.183357" lon="9.3212597"><ele>23.0</ele><time>2026-04-30T08:53:46.74Z</time></trkpt><trkpt lat="41.1831949" lon="9.3213215"><ele>23.0</ele><time>2026-04-30T08:53:47.737Z</time></trkpt><trkpt lat="41.1830454" lon="9.3213787"><ele>23.0</ele><time>2026-04-30T08:53:48.739Z</time></trkpt><trkpt lat="41.1828959" lon="9.3214354"><ele>23.333333333333336</ele><time>2026-04-30T08:53:49.739Z</time></trkpt><trkpt lat="41.1827481" lon="9.3214892"><ele>23.666666666666668</ele><time>2026-04-30T08:53:50.738Z</time></trkpt><trkpt lat="41.1826003" lon="9.3215423"><ele>24.0</ele><time>2026-04-30T08:53:51.739Z</time></trkpt><trkpt lat="41.1824518" lon="9.3215972"><ele>26.666666666666664</ele><time>2026-04-30T08:53:52.739Z</time></trkpt><trkpt lat="41.1823034" lon="9.3216558"><ele>29.333333333333332</ele><time>2026-04-30T08:53:53.738Z</time></trkpt><trkpt lat="41.1821543" lon="9.3217152"><ele>32.0</ele><time>2026-04-30T08:53:54.738Z</time></trkpt><trkpt lat="41.182006" lon="9.321775"><ele>32.0</ele><time>2026-04-30T08:53:55.739Z</time></trkpt><trkpt lat="41.1818592" lon="9.321832"><ele>32.0</ele><time>2026-04-30T08:53:56.738Z</time></trkpt><trkpt lat="41.1817172" lon="9.3218876"><ele>32.0</ele><time>2026-04-30T08:53:57.74Z</time></trkpt><trkpt lat="41.1815815" lon="9.3219398"><ele>32.0</ele><time>2026-04-30T08:53:58.738Z</time></trkpt><trkpt lat="41.1814439" lon="9.3219914"><ele>32.666666666666664</ele><time>2026-04-30T08:53:59.737Z</time></trkpt><trkpt lat="41.1813021" lon="9.3220439"><ele>33.333333333333336</ele><time>2026-04-30T08:54:00.737Z</time></trkpt><trkpt lat="41.1811533" lon="9.3220992"><ele>34.0</ele><time>2026-04-30T08:54:01.739Z</time></trkpt><trkpt lat="41.1809969" lon="9.3221573"><ele>34.0</ele><time>2026-04-30T08:54:02.738Z</time></trkpt><trkpt lat="41.1808369" lon="9.3222195"><ele>34.0</ele><time>2026-04-30T08:54:03.739Z</time></trkpt><trkpt lat="41.1806725" lon="9.3222837"><ele>34.0</ele><time>2026-04-30T08:54:04.739Z</time></trkpt><trkpt lat="41.1805133" lon="9.3223475"><ele>33.333333333333336</ele><time>2026-04-30T08:54:05.738Z</time></trkpt><trkpt lat="41.1803575" lon="9.32241"><ele>32.666666666666664</ele><time>2026-04-30T08:54:06.739Z</time></trkpt><trkpt lat="41.1801992" lon="9.3224723"><ele>32.0</ele><time>2026-04-30T08:54:07.738Z</time></trkpt><trkpt lat="41.1800516" lon="9.3225294"><ele>32.0</ele><time>2026-04-30T08:54:08.738Z</time></trkpt><trkpt lat="41.1799024" lon="9.3225866"><ele>32.0</ele><time>2026-04-30T08:54:09.74Z</time></trkpt><trkpt lat="41.1797512" lon="9.322646"><ele>32.0</ele><time>2026-04-30T08:54:10.74Z</time></trkpt><trkpt lat="41.1795976" lon="9.3227097"><ele>31.666666666666664</ele><time>2026-04-30T08:54:11.739Z</time></trkpt><trkpt lat="41.179444" lon="9.3227861"><ele>31.333333333333336</ele><time>2026-04-30T08:54:12.738Z</time></trkpt><trkpt lat="41.1792921" lon="9.3228781"><ele>31.0</ele><time>2026-04-30T08:54:13.738Z</time></trkpt><trkpt lat="41.179141" lon="9.3229828"><ele>34.333333333333336</ele><time>2026-04-30T08:54:14.736Z</time></trkpt><trkpt lat="41.1789932" lon="9.323108"><ele>37.666666666666664</ele><time>2026-04-30T08:54:15.739Z</time></trkpt><trkpt lat="41.1788537" lon="9.3232489"><ele>41.0</ele><time>2026-04-30T08:54:16.738Z</time></trkpt><trkpt lat="41.1787198" lon="9.3234069"><ele>41.0</ele><time>2026-04-30T08:54:17.74Z</time></trkpt><trkpt lat="41.178597" lon="9.3235822"><ele>41.0</ele><time>2026-04-30T08:54:18.739Z</time></trkpt><trkpt lat="41.1784806" lon="9.3237763"><ele>41.0</ele><time>2026-04-30T08:54:19.737Z</time></trkpt><trkpt lat="41.1783715" lon="9.3239834"><ele>41.0</ele><time>2026-04-30T08:54:20.739Z</time></trkpt><trkpt lat="41.1782728" lon="9.3242061"><ele>41.0</ele><time>2026-04-30T08:54:21.739Z</time></trkpt><trkpt lat="41.1781875" lon="9.3244449"><ele>41.0</ele><time>2026-04-30T08:54:22.739Z</time></trkpt><trkpt lat="41.1781143" lon="9.3246945"><ele>39.33333333333333</ele><time>2026-04-30T08:54:23.739Z</time></trkpt><trkpt lat="41.1780586" lon="9.3249515"><ele>37.666666666666664</ele><time>2026-04-30T08:54:24.74Z</time></trkpt><trkpt lat="41.1780102" lon="9.3252106"><ele>36.0</ele><time>2026-04-30T08:54:25.738Z</time></trkpt><trkpt lat="41.1779603" lon="9.3254673"><ele>36.666666666666664</ele><time>2026-04-30T08:54:26.742Z</time></trkpt><trkpt lat="41.1779065" lon="9.3257231"><ele>37.33333333333333</ele><time>2026-04-30T08:54:27.738Z</time></trkpt><trkpt lat="41.1778565" lon="9.3259774"><ele>38.0</ele><time>2026-04-30T08:54:28.739Z</time></trkpt><trkpt lat="41.177807" lon="9.326223"><ele>37.33333333333333</ele><time>2026-04-30T08:54:29.74Z</time></trkpt><trkpt lat="41.177759" lon="9.3264611"><ele>36.666666666666664</ele><time>2026-04-30T08:54:30.739Z</time></trkpt><trkpt lat="41.1777097" lon="9.3267012"><ele>36.0</ele><time>2026-04-30T08:54:31.738Z</time></trkpt><trkpt lat="41.1776544" lon="9.3269459"><ele>36.0</ele><time>2026-04-30T08:54:32.738Z</time></trkpt><trkpt lat="41.1775906" lon="9.327193"><ele>36.0</ele><time>2026-04-30T08:54:33.736Z</time></trkpt><trkpt lat="41.1775175" lon="9.3274436"><ele>36.0</ele><time>2026-04-30T08:54:34.741Z</time></trkpt><trkpt lat="41.1774378" lon="9.3276993"><ele>35.0</ele><time>2026-04-30T08:54:35.737Z</time></trkpt><trkpt lat="41.1773603" lon="9.3279511"><ele>34.0</ele><time>2026-04-30T08:54:36.738Z</time></trkpt><trkpt lat="41.1772876" lon="9.3281933"><ele>33.0</ele><time>2026-04-30T08:54:37.739Z</time></trkpt><trkpt lat="41.1772186" lon="9.3284277"><ele>32.0</ele><time>2026-04-30T08:54:38.739Z</time></trkpt><trkpt lat="41.1771527" lon="9.3286518"><ele>31.0</ele><time>2026-04-30T08:54:39.738Z</time></trkpt><trkpt lat="41.1770915" lon="9.3288599"><ele>30.0</ele><time>2026-04-30T08:54:40.738Z</time></trkpt><trkpt lat="41.1770311" lon="9.3290593"><ele>30.0</ele><time>2026-04-30T08:54:41.739Z</time></trkpt><trkpt lat="41.176974" lon="9.3292474"><ele>30.0</ele><time>2026-04-30T08:54:42.74Z</time></trkpt><trkpt lat="41.1769173" lon="9.3294303"><ele>30.0</ele><time>2026-04-30T08:54:43.741Z</time></trkpt><trkpt lat="41.1768537" lon="9.329619"><ele>30.0</ele><time>2026-04-30T08:54:44.74Z</time></trkpt><trkpt lat="41.1767823" lon="9.3298108"><ele>30.0</ele><time>2026-04-30T08:54:45.74Z</time></trkpt><trkpt lat="41.1766998" lon="9.3300083"><ele>30.0</ele><time>2026-04-30T08:54:46.739Z</time></trkpt><trkpt lat="41.1766036" lon="9.3302138"><ele>30.0</ele><time>2026-04-30T08:54:47.738Z</time></trkpt><trkpt lat="41.1764983" lon="9.3304242"><ele>30.0</ele><time>2026-04-30T08:54:48.741Z</time></trkpt><trkpt lat="41.1763854" lon="9.3306385"><ele>30.0</ele><time>2026-04-30T08:54:49.741Z</time></trkpt><trkpt lat="41.1762668" lon="9.3308572"><ele>29.666666666666664</ele><time>2026-04-30T08:54:50.74Z</time></trkpt><trkpt lat="41.1761434" lon="9.331082"><ele>29.333333333333332</ele><time>2026-04-30T08:54:51.739Z</time></trkpt><trkpt lat="41.1760168" lon="9.331313"><ele>29.0</ele><time>2026-04-30T08:54:52.74Z</time></trkpt><trkpt lat="41.1758883" lon="9.3315515"><ele>29.0</ele><time>2026-04-30T08:54:53.737Z</time></trkpt><trkpt lat="41.1757608" lon="9.3317879"><ele>29.0</ele><time>2026-04-30T08:54:54.741Z</time></trkpt><trkpt lat="41.1756389" lon="9.3320136"><ele>29.0</ele><time>2026-04-30T08:54:55.741Z</time></trkpt><trkpt lat="41.1755176" lon="9.3322422"><ele>29.0</ele><time>2026-04-30T08:54:56.74Z</time></trkpt><trkpt lat="41.1753997" lon="9.3324761"><ele>29.0</ele><time>2026-04-30T08:54:57.738Z</time></trkpt><trkpt lat="41.1752857" lon="9.3327165"><ele>29.0</ele><time>2026-04-30T08:54:58.74Z</time></trkpt><trkpt lat="41.1751739" lon="9.3329628"><ele>28.666666666666664</ele><time>2026-04-30T08:54:59.736Z</time></trkpt><trkpt lat="41.1750643" lon="9.3332155"><ele>28.333333333333336</ele><time>2026-04-30T08:55:00.738Z</time></trkpt><trkpt lat="41.1749543" lon="9.333474"><ele>28.0</ele><time>2026-04-30T08:55:01.74Z</time></trkpt><trkpt lat="41.1748424" lon="9.3337374"><ele>28.0</ele><time>2026-04-30T08:55:02.741Z</time></trkpt><trkpt lat="41.1747297" lon="9.334004"><ele>28.0</ele><time>2026-04-30T08:55:03.739Z</time></trkpt><trkpt lat="41.17462" lon="9.3342631"><ele>28.0</ele><time>2026-04-30T08:55:04.741Z</time></trkpt><trkpt lat="41.174517" lon="9.3345084"><ele>28.0</ele><time>2026-04-30T08:55:05.739Z</time></trkpt><trkpt lat="41.174424" lon="9.3347382"><ele>28.0</ele><time>2026-04-30T08:55:06.739Z</time></trkpt><trkpt lat="41.1743307" lon="9.3349427"><ele>29.0</ele><time>2026-04-30T08:55:07.737Z</time></trkpt><trkpt lat="41.1742289" lon="9.3351264"><ele>30.0</ele><time>2026-04-30T08:55:08.742Z</time></trkpt><trkpt lat="41.1741171" lon="9.3352917"><ele>31.0</ele><time>2026-04-30T08:55:09.739Z</time></trkpt><trkpt lat="41.173989" lon="9.3354373"><ele>31.666666666666668</ele><time>2026-04-30T08:55:10.742Z</time></trkpt><trkpt lat="41.1738493" lon="9.3355642"><ele>32.333333333333336</ele><time>2026-04-30T08:55:11.74Z</time></trkpt><trkpt lat="41.1736989" lon="9.3356688"><ele>33.0</ele><time>2026-04-30T08:55:12.738Z</time></trkpt><trkpt lat="41.1735366" lon="9.3357482"><ele>33.0</ele><time>2026-04-30T08:55:13.741Z</time></trkpt><trkpt lat="41.1733649" lon="9.3357988"><ele>33.0</ele><time>2026-04-30T08:55:14.738Z</time></trkpt><trkpt lat="41.1731883" lon="9.3358253"><ele>33.0</ele><time>2026-04-30T08:55:15.741Z</time></trkpt><trkpt lat="41.1730068" lon="9.3358486"><ele>35.333333333333336</ele><time>2026-04-30T08:55:16.739Z</time></trkpt><trkpt lat="41.1728206" lon="9.3358729"><ele>37.66666666666667</ele><time>2026-04-30T08:55:17.739Z</time></trkpt><trkpt lat="41.172633" lon="9.335899"><ele>40.0</ele><time>2026-04-30T08:55:18.741Z</time></trkpt><trkpt lat="41.1724451" lon="9.3359231"><ele>41.0</ele><time>2026-04-30T08:55:19.741Z</time></trkpt><trkpt lat="41.1722557" lon="9.3359468"><ele>42.0</ele><time>2026-04-30T08:55:20.739Z</time></trkpt><trkpt lat="41.1720639" lon="9.3359733"><ele>43.0</ele><time>2026-04-30T08:55:21.741Z</time></trkpt><trkpt lat="41.1718819" lon="9.336005"><ele>43.0</ele><time>2026-04-30T08:55:22.738Z</time></trkpt><trkpt lat="41.1717173" lon="9.3360415"><ele>43.0</ele><time>2026-04-30T08:55:23.739Z</time></trkpt><trkpt lat="41.1715739" lon="9.3360786"><ele>43.0</ele><time>2026-04-30T08:55:24.742Z</time></trkpt><trkpt lat="41.1714504" lon="9.3361134"><ele>43.0</ele><time>2026-04-30T08:55:25.741Z</time></trkpt><trkpt lat="41.17134" lon="9.336145"><ele>42.8</ele><time>2026-04-30T08:55:26.738Z</time></trkpt><trkpt lat="41.1712408" lon="9.3361754"><ele>42.599999999999994</ele><time>2026-04-30T08:55:27.739Z</time></trkpt><trkpt lat="41.1711528" lon="9.3362051"><ele>42.400000000000006</ele><time>2026-04-30T08:55:28.739Z</time></trkpt><trkpt lat="41.1710711" lon="9.3362347"><ele>42.2</ele><time>2026-04-30T08:55:29.74Z</time></trkpt><trkpt lat="41.17099" lon="9.3362652"><ele>42.0</ele><time>2026-04-30T08:55:30.739Z</time></trkpt><trkpt lat="41.1708999" lon="9.3362971"><ele>42.0</ele><time>2026-04-30T08:55:31.739Z</time></trkpt><trkpt lat="41.1708025" lon="9.3363308"><ele>42.0</ele><time>2026-04-30T08:55:32.74Z</time></trkpt><trkpt lat="41.1706986" lon="9.3363617"><ele>42.0</ele><time>2026-04-30T08:55:33.737Z</time></trkpt><trkpt lat="41.1706035" lon="9.3363874"><ele>42.0</ele><time>2026-04-30T08:55:34.738Z</time></trkpt><trkpt lat="41.1705132" lon="9.3363998"><ele>42.0</ele><time>2026-04-30T08:55:35.74Z</time></trkpt><trkpt lat="41.1704345" lon="9.3363896"><ele>42.666666666666664</ele><time>2026-04-30T08:55:36.737Z</time></trkpt><trkpt lat="41.1703629" lon="9.336358"><ele>43.333333333333336</ele><time>2026-04-30T08:55:37.739Z</time></trkpt><trkpt lat="41.1703021" lon="9.3363051"><ele>44.0</ele><time>2026-04-30T08:55:38.739Z</time></trkpt><trkpt lat="41.1702566" lon="9.3362315"><ele>44.66666666666667</ele><time>2026-04-30T08:55:39.741Z</time></trkpt><trkpt lat="41.1702257" lon="9.3361409"><ele>45.333333333333336</ele><time>2026-04-30T08:55:40.74Z</time></trkpt><trkpt lat="41.1702171" lon="9.3360351"><ele>46.0</ele><time>2026-04-30T08:55:41.74Z</time></trkpt><trkpt lat="41.1702369" lon="9.3359255"><ele>46.0</ele><time>2026-04-30T08:55:42.739Z</time></trkpt><trkpt lat="41.1702837" lon="9.3358156"><ele>46.0</ele><time>2026-04-30T08:55:43.74Z</time></trkpt><trkpt lat="41.1703409" lon="9.3356876"><ele>46.0</ele><time>2026-04-30T08:55:44.738Z</time></trkpt><trkpt lat="41.1703939" lon="9.3355334"><ele>46.0</ele><time>2026-04-30T08:55:45.74Z</time></trkpt><trkpt lat="41.170439" lon="9.3353555"><ele>47.0</ele><time>2026-04-30T08:55:46.741Z</time></trkpt><trkpt lat="41.1704622" lon="9.3351639"><ele>48.0</ele><time>2026-04-30T08:55:47.741Z</time></trkpt><trkpt lat="41.1704537" lon="9.3349573"><ele>49.0</ele><time>2026-04-30T08:55:48.74Z</time></trkpt><trkpt lat="41.1704168" lon="9.3347335"><ele>48.33333333333333</ele><time>2026-04-30T08:55:49.739Z</time></trkpt><trkpt lat="41.1703569" lon="9.3344997"><ele>47.666666666666664</ele><time>2026-04-30T08:55:50.738Z</time></trkpt><trkpt lat="41.1702722" lon="9.3342635"><ele>47.0</ele><time>2026-04-30T08:55:51.738Z</time></trkpt><trkpt lat="41.1701617" lon="9.3340279"><ele>45.33333333333333</ele><time>2026-04-30T08:55:52.737Z</time></trkpt><trkpt lat="41.1700314" lon="9.3337965"><ele>43.666666666666664</ele><time>2026-04-30T08:55:53.738Z</time></trkpt><trkpt lat="41.1698959" lon="9.3335854"><ele>42.0</ele><time>2026-04-30T08:55:54.738Z</time></trkpt><trkpt lat="41.1697709" lon="9.3333842"><ele>45.33333333333333</ele><time>2026-04-30T08:55:55.739Z</time></trkpt><trkpt lat="41.1696712" lon="9.3331709"><ele>48.666666666666664</ele><time>2026-04-30T08:55:56.738Z</time></trkpt><trkpt lat="41.169605" lon="9.3329281"><ele>52.0</ele><time>2026-04-30T08:55:57.737Z</time></trkpt><trkpt lat="41.1695598" lon="9.3326734"><ele>52.0</ele><time>2026-04-30T08:55:58.736Z</time></trkpt><trkpt lat="41.1695182" lon="9.3324084"><ele>52.0</ele><time>2026-04-30T08:55:59.741Z</time></trkpt><trkpt lat="41.1694736" lon="9.3321439"><ele>52.0</ele><time>2026-04-30T08:56:00.741Z</time></trkpt><trkpt lat="41.1694132" lon="9.3318884"><ele>52.0</ele><time>2026-04-30T08:56:01.737Z</time></trkpt><trkpt lat="41.1693305" lon="9.3316365"><ele>52.0</ele><time>2026-04-30T08:56:02.737Z</time></trkpt><trkpt lat="41.1692379" lon="9.3313972"><ele>52.0</ele><time>2026-04-30T08:56:03.739Z</time></trkpt><trkpt lat="41.1691505" lon="9.3311799"><ele>51.666666666666664</ele><time>2026-04-30T08:56:04.738Z</time></trkpt><trkpt lat="41.1690828" lon="9.3309598"><ele>51.33333333333333</ele><time>2026-04-30T08:56:05.738Z</time></trkpt><trkpt lat="41.1690418" lon="9.3307287"><ele>51.0</ele><time>2026-04-30T08:56:06.737Z</time></trkpt><trkpt lat="41.1690381" lon="9.3305008"><ele>51.0</ele><time>2026-04-30T08:56:07.74Z</time></trkpt><trkpt lat="41.1690729" lon="9.3302739"><ele>51.0</ele><time>2026-04-30T08:56:08.739Z</time></trkpt><trkpt lat="41.1691297" lon="9.330039"><ele>51.0</ele><time>2026-04-30T08:56:09.739Z</time></trkpt><trkpt lat="41.1691971" lon="9.3297873"><ele>52.66666666666667</ele><time>2026-04-30T08:56:10.74Z</time></trkpt><trkpt lat="41.1692612" lon="9.3295179"><ele>54.333333333333336</ele><time>2026-04-30T08:56:11.737Z</time></trkpt><trkpt lat="41.1693208" lon="9.3292621"><ele>56.0</ele><time>2026-04-30T08:56:12.739Z</time></trkpt><trkpt lat="41.1693653" lon="9.3290116"><ele>56.0</ele><time>2026-04-30T08:56:13.739Z</time></trkpt><trkpt lat="41.1693883" lon="9.3287726"><ele>56.0</ele><time>2026-04-30T08:56:14.74Z</time></trkpt><trkpt lat="41.1693948" lon="9.3285479"><ele>56.0</ele><time>2026-04-30T08:56:15.737Z</time></trkpt><trkpt lat="41.1693954" lon="9.3283332"><ele>56.0</ele><time>2026-04-30T08:56:16.738Z</time></trkpt><trkpt lat="41.1694056" lon="9.3281195"><ele>56.0</ele><time>2026-04-30T08:56:17.739Z</time></trkpt><trkpt lat="41.169429" lon="9.3279192"><ele>56.0</ele><time>2026-04-30T08:56:18.739Z</time></trkpt><trkpt lat="41.1694612" lon="9.3277327"><ele>55.5</ele><time>2026-04-30T08:56:19.738Z</time></trkpt><trkpt lat="41.1695103" lon="9.3275588"><ele>55.0</ele><time>2026-04-30T08:56:20.739Z</time></trkpt><trkpt lat="41.1695842" lon="9.3274053"><ele>54.5</ele><time>2026-04-30T08:56:21.738Z</time></trkpt><trkpt lat="41.169681" lon="9.3272642"><ele>54.0</ele><time>2026-04-30T08:56:22.74Z</time></trkpt><trkpt lat="41.1698084" lon="9.327139"><ele>52.66666666666667</ele><time>2026-04-30T08:56:23.738Z</time></trkpt><trkpt lat="41.1699509" lon="9.327013"><ele>51.333333333333336</ele><time>2026-04-30T08:56:24.739Z</time></trkpt><trkpt lat="41.1700986" lon="9.3268642"><ele>50.0</ele><time>2026-04-30T08:56:25.74Z</time></trkpt><trkpt lat="41.1702278" lon="9.3266669"><ele>50.0</ele><time>2026-04-30T08:56:26.74Z</time></trkpt><trkpt lat="41.1703415" lon="9.326442"><ele>50.0</ele><time>2026-04-30T08:56:27.74Z</time></trkpt><trkpt lat="41.1704566" lon="9.3262045"><ele>50.0</ele><time>2026-04-30T08:56:28.739Z</time></trkpt><trkpt lat="41.170578" lon="9.3259838"><ele>49.66666666666667</ele><time>2026-04-30T08:56:29.738Z</time></trkpt><trkpt lat="41.1707066" lon="9.3257896"><ele>49.33333333333333</ele><time>2026-04-30T08:56:30.741Z</time></trkpt><trkpt lat="41.1708354" lon="9.3256229"><ele>49.0</ele><time>2026-04-30T08:56:31.738Z</time></trkpt><trkpt lat="41.1709526" lon="9.3254815"><ele>49.0</ele><time>2026-04-30T08:56:32.739Z</time></trkpt><trkpt lat="41.171053" lon="9.32536"><ele>49.0</ele><time>2026-04-30T08:56:33.738Z</time></trkpt><trkpt lat="41.1711341" lon="9.3252353"><ele>49.0</ele><time>2026-04-30T08:56:34.74Z</time></trkpt><trkpt lat="41.1711911" lon="9.3251"><ele>49.0</ele><time>2026-04-30T08:56:35.738Z</time></trkpt><trkpt lat="41.1712091" lon="9.3249479"><ele>49.0</ele><time>2026-04-30T08:56:36.737Z</time></trkpt><trkpt lat="41.1711951" lon="9.3247818"><ele>49.0</ele><time>2026-04-30T08:56:37.738Z</time></trkpt><trkpt lat="41.1711592" lon="9.3246065"><ele>49.0</ele><time>2026-04-30T08:56:38.739Z</time></trkpt><trkpt lat="41.1711023" lon="9.3244383"><ele>49.0</ele><time>2026-04-30T08:56:39.741Z</time></trkpt><trkpt lat="41.1710196" lon="9.3243047"><ele>49.0</ele><time>2026-04-30T08:56:40.74Z</time></trkpt><trkpt lat="41.1709119" lon="9.3242031"><ele>49.0</ele><time>2026-04-30T08:56:41.739Z</time></trkpt><trkpt lat="41.1707862" lon="9.3241138"><ele>49.0</ele><time>2026-04-30T08:56:42.739Z</time></trkpt><trkpt lat="41.1706503" lon="9.3240189"><ele>49.0</ele><time>2026-04-30T08:56:43.741Z</time></trkpt><trkpt lat="41.1705157" lon="9.3239164"><ele>49.25</ele><time>2026-04-30T08:56:44.741Z</time></trkpt><trkpt lat="41.1703952" lon="9.3238115"><ele>49.5</ele><time>2026-04-30T08:56:45.739Z</time></trkpt><trkpt lat="41.1702878" lon="9.3237108"><ele>49.75</ele><time>2026-04-30T08:56:46.739Z</time></trkpt><trkpt lat="41.1701943" lon="9.3236244"><ele>50.0</ele><time>2026-04-30T08:56:47.741Z</time></trkpt><trkpt lat="41.1701183" lon="9.3235493"><ele>50.0</ele><time>2026-04-30T08:56:48.739Z</time></trkpt><trkpt lat="41.1700505" lon="9.323484"><ele>50.0</ele><time>2026-04-30T08:56:49.739Z</time></trkpt><trkpt lat="41.1699888" lon="9.3234158"><ele>50.0</ele><time>2026-04-30T08:56:50.74Z</time></trkpt><trkpt lat="41.1699306" lon="9.3233322"><ele>50.0</ele><time>2026-04-30T08:56:51.742Z</time></trkpt><trkpt lat="41.1698775" lon="9.3232244"><ele>50.0</ele><time>2026-04-30T08:56:52.74Z</time></trkpt><trkpt lat="41.1698346" lon="9.3230898"><ele>49.5</ele><time>2026-04-30T08:56:53.739Z</time></trkpt><trkpt lat="41.1698075" lon="9.3229337"><ele>49.0</ele><time>2026-04-30T08:56:54.737Z</time></trkpt><trkpt lat="41.1698074" lon="9.32276"><ele>48.5</ele><time>2026-04-30T08:56:55.742Z</time></trkpt><trkpt lat="41.1698315" lon="9.3225684"><ele>48.0</ele><time>2026-04-30T08:56:56.74Z</time></trkpt><trkpt lat="41.1698817" lon="9.3223712"><ele>48.5</ele><time>2026-04-30T08:56:57.74Z</time></trkpt><trkpt lat="41.1699521" lon="9.3221819"><ele>49.0</ele><time>2026-04-30T08:56:58.739Z</time></trkpt><trkpt lat="41.1700296" lon="9.3220106"><ele>49.5</ele><time>2026-04-30T08:56:59.738Z</time></trkpt><trkpt lat="41.170101" lon="9.3218735"><ele>50.0</ele><time>2026-04-30T08:57:00.738Z</time></trkpt><trkpt lat="41.1701582" lon="9.3217637"><ele>50.00000000000001</ele><time>2026-04-30T08:57:01.739Z</time></trkpt><trkpt lat="41.1702078" lon="9.3216654"><ele>50.0</ele><time>2026-04-30T08:57:02.738Z</time></trkpt><trkpt lat="41.1702552" lon="9.3215749"><ele>50.0</ele><time>2026-04-30T08:57:03.741Z</time></trkpt><trkpt lat="41.1703019" lon="9.3214851"><ele>50.0</ele><time>2026-04-30T08:57:04.742Z</time></trkpt><trkpt lat="41.1703479" lon="9.3213925"><ele>50.00000000000001</ele><time>2026-04-30T08:57:05.74Z</time></trkpt><trkpt lat="41.1703986" lon="9.3212935"><ele>50.0</ele><time>2026-04-30T08:57:06.74Z</time></trkpt><trkpt lat="41.1704459" lon="9.3211838"><ele>50.25</ele><time>2026-04-30T08:57:07.737Z</time></trkpt><trkpt lat="41.1704751" lon="9.321057"><ele>50.5</ele><time>2026-04-30T08:57:08.742Z</time></trkpt><trkpt lat="41.1704805" lon="9.3209062"><ele>50.75</ele><time>2026-04-30T08:57:09.739Z</time></trkpt><trkpt lat="41.1704597" lon="9.3207421"><ele>51.0</ele><time>2026-04-30T08:57:10.736Z</time></trkpt><trkpt lat="41.1704166" lon="9.3205703"><ele>49.75</ele><time>2026-04-30T08:57:11.739Z</time></trkpt><trkpt lat="41.1703626" lon="9.3204096"><ele>48.5</ele><time>2026-04-30T08:57:12.739Z</time></trkpt><trkpt lat="41.1703128" lon="9.3202553"><ele>47.25</ele><time>2026-04-30T08:57:13.737Z</time></trkpt><trkpt lat="41.1702633" lon="9.3201053"><ele>46.0</ele><time>2026-04-30T08:57:14.738Z</time></trkpt><trkpt lat="41.1702119" lon="9.3199528"><ele>46.0</ele><time>2026-04-30T08:57:15.736Z</time></trkpt><trkpt lat="41.1701584" lon="9.3197917"><ele>46.0</ele><time>2026-04-30T08:57:16.738Z</time></trkpt><trkpt lat="41.1701117" lon="9.3196159"><ele>46.0</ele><time>2026-04-30T08:57:17.739Z</time></trkpt><trkpt lat="41.1700735" lon="9.3194316"><ele>46.0</ele><time>2026-04-30T08:57:18.741Z</time></trkpt><trkpt lat="41.1700456" lon="9.3192467"><ele>44.0</ele><time>2026-04-30T08:57:19.737Z</time></trkpt><trkpt lat="41.1700208" lon="9.3190697"><ele>42.0</ele><time>2026-04-30T08:57:20.739Z</time></trkpt><trkpt lat="41.169996" lon="9.3189037"><ele>40.0</ele><time>2026-04-30T08:57:21.736Z</time></trkpt><trkpt lat="41.1699749" lon="9.3187507"><ele>38.0</ele><time>2026-04-30T08:57:22.738Z</time></trkpt><trkpt lat="41.1699539" lon="9.3186038"><ele>37.0</ele><time>2026-04-30T08:57:23.74Z</time></trkpt><trkpt lat="41.1699322" lon="9.3184593"><ele>36.0</ele><time>2026-04-30T08:57:24.738Z</time></trkpt><trkpt lat="41.1699118" lon="9.3183238"><ele>35.0</ele><time>2026-04-30T08:57:25.739Z</time></trkpt><trkpt lat="41.1698945" lon="9.3181922"><ele>34.0</ele><time>2026-04-30T08:57:26.739Z</time></trkpt><trkpt lat="41.1698645" lon="9.3180687"><ele>33.0</ele><time>2026-04-30T08:57:27.736Z</time></trkpt><trkpt lat="41.1698123" lon="9.3179517"><ele>32.25</ele><time>2026-04-30T08:57:28.739Z</time></trkpt><trkpt lat="41.1697317" lon="9.3178614"><ele>31.5</ele><time>2026-04-30T08:57:29.738Z</time></trkpt><trkpt lat="41.1696287" lon="9.3178067"><ele>30.75</ele><time>2026-04-30T08:57:30.739Z</time></trkpt><trkpt lat="41.1695106" lon="9.3177903"><ele>30.0</ele><time>2026-04-30T08:57:31.737Z</time></trkpt><trkpt lat="41.16939" lon="9.317823"><ele>30.0</ele><time>2026-04-30T08:57:32.738Z</time></trkpt><trkpt lat="41.1692897" lon="9.3179005"><ele>30.0</ele><time>2026-04-30T08:57:33.737Z</time></trkpt><trkpt lat="41.1692022" lon="9.3180027"><ele>30.0</ele><time>2026-04-30T08:57:34.741Z</time></trkpt><trkpt lat="41.1691031" lon="9.3180599"><ele>30.0</ele><time>2026-04-30T08:57:35.736Z</time></trkpt><trkpt lat="41.1689934" lon="9.3180592"><ele>29.0</ele><time>2026-04-30T08:57:36.739Z</time></trkpt><trkpt lat="41.1688908" lon="9.3180022"><ele>28.0</ele><time>2026-04-30T08:57:37.74Z</time></trkpt><trkpt lat="41.1687898" lon="9.3178997"><ele>27.0</ele><time>2026-04-30T08:57:38.737Z</time></trkpt><trkpt lat="41.1686874" lon="9.3177685"><ele>26.0</ele><time>2026-04-30T08:57:39.739Z</time></trkpt><trkpt lat="41.1685863" lon="9.3176401"><ele>26.0</ele><time>2026-04-30T08:57:40.736Z</time></trkpt><trkpt lat="41.1684794" lon="9.3175365"><ele>26.0</ele><time>2026-04-30T08:57:41.742Z</time></trkpt><trkpt lat="41.1683597" lon="9.3174646"><ele>26.0</ele><time>2026-04-30T08:57:42.735Z</time></trkpt><trkpt lat="41.1682229" lon="9.3174357"><ele>26.0</ele><time>2026-04-30T08:57:43.739Z</time></trkpt><trkpt lat="41.168092" lon="9.3174496"><ele>26.0</ele><time>2026-04-30T08:57:44.74Z</time></trkpt><trkpt lat="41.1679732" lon="9.3174807"><ele>26.0</ele><time>2026-04-30T08:57:45.737Z</time></trkpt><trkpt lat="41.1678611" lon="9.3174866"><ele>26.0</ele><time>2026-04-30T08:57:46.736Z</time></trkpt><trkpt lat="41.1677527" lon="9.3174606"><ele>26.0</ele><time>2026-04-30T08:57:47.738Z</time></trkpt><trkpt lat="41.1676641" lon="9.3173906"><ele>26.0</ele><time>2026-04-30T08:57:48.739Z</time></trkpt><trkpt lat="41.1675879" lon="9.3172839"><ele>24.25</ele><time>2026-04-30T08:57:49.737Z</time></trkpt><trkpt lat="41.1675105" lon="9.3171575"><ele>22.5</ele><time>2026-04-30T08:57:50.738Z</time></trkpt><trkpt lat="41.1674251" lon="9.3170146"><ele>20.75</ele><time>2026-04-30T08:57:51.738Z</time></trkpt><trkpt lat="41.167328" lon="9.3168533"><ele>19.0</ele><time>2026-04-30T08:57:52.738Z</time></trkpt><trkpt lat="41.1672305" lon="9.316688"><ele>19.0</ele><time>2026-04-30T08:57:53.736Z</time></trkpt><trkpt lat="41.1671403" lon="9.3165377"><ele>19.0</ele><time>2026-04-30T08:57:54.736Z</time></trkpt><trkpt lat="41.1670481" lon="9.3164071"><ele>19.0</ele><time>2026-04-30T08:57:55.739Z</time></trkpt><trkpt lat="41.1669469" lon="9.3162975"><ele>19.0</ele><time>2026-04-30T08:57:56.738Z</time></trkpt><trkpt lat="41.1668369" lon="9.3162083"><ele>16.5</ele><time>2026-04-30T08:57:57.742Z</time></trkpt><trkpt lat="41.1667258" lon="9.3161403"><ele>14.0</ele><time>2026-04-30T08:57:58.738Z</time></trkpt><trkpt lat="41.1666146" lon="9.3160815"><ele>11.5</ele><time>2026-04-30T08:57:59.737Z</time></trkpt><trkpt lat="41.1664974" lon="9.3160353"><ele>9.0</ele><time>2026-04-30T08:58:00.737Z</time></trkpt><trkpt lat="41.166382" lon="9.316008"><ele>8.75</ele><time>2026-04-30T08:58:01.737Z</time></trkpt><trkpt lat="41.1662605" lon="9.3159999"><ele>8.5</ele><time>2026-04-30T08:58:02.739Z</time></trkpt><trkpt lat="41.1661275" lon="9.3159982"><ele>8.25</ele><time>2026-04-30T08:58:03.737Z</time></trkpt><trkpt lat="41.1659993" lon="9.3159979"><ele>8.0</ele><time>2026-04-30T08:58:04.739Z</time></trkpt><trkpt lat="41.1658678" lon="9.3159989"><ele>8.0</ele><time>2026-04-30T08:58:05.737Z</time></trkpt><trkpt lat="41.1657336" lon="9.3159998"><ele>8.0</ele><time>2026-04-30T08:58:06.737Z</time></trkpt><trkpt lat="41.1655981" lon="9.316005"><ele>8.0</ele><time>2026-04-30T08:58:07.74Z</time></trkpt><trkpt lat="41.1654624" lon="9.3160139"><ele>8.0</ele><time>2026-04-30T08:58:08.74Z</time></trkpt><trkpt lat="41.1653256" lon="9.3160211"><ele>8.0</ele><time>2026-04-30T08:58:09.737Z</time></trkpt><trkpt lat="41.1651871" lon="9.3160259"><ele>8.0</ele><time>2026-04-30T08:58:10.739Z</time></trkpt><trkpt lat="41.1650473" lon="9.3160299"><ele>8.0</ele><time>2026-04-30T08:58:11.738Z</time></trkpt><trkpt lat="41.1649048" lon="9.3160351"><ele>8.0</ele><time>2026-04-30T08:58:12.737Z</time></trkpt><trkpt lat="41.1647605" lon="9.3160412"><ele>7.75</ele><time>2026-04-30T08:58:13.737Z</time></trkpt><trkpt lat="41.16462" lon="9.3160481"><ele>7.5</ele><time>2026-04-30T08:58:14.736Z</time></trkpt><trkpt lat="41.164487" lon="9.3160352"><ele>7.25</ele><time>2026-04-30T08:58:15.739Z</time></trkpt><trkpt lat="41.164369" lon="9.3159878"><ele>7.0</ele><time>2026-04-30T08:58:16.738Z</time></trkpt><trkpt lat="41.1642761" lon="9.315907"><ele>7.0</ele><time>2026-04-30T08:58:17.739Z</time></trkpt><trkpt lat="41.1642017" lon="9.3157898"><ele>7.0</ele><time>2026-04-30T08:58:18.738Z</time></trkpt><trkpt lat="41.1641427" lon="9.3156374"><ele>7.0</ele><time>2026-04-30T08:58:19.737Z</time></trkpt><trkpt lat="41.1640943" lon="9.3154542"><ele>7.0</ele><time>2026-04-30T08:58:20.738Z</time></trkpt><trkpt lat="41.1640447" lon="9.3152414"><ele>5.333333333333334</ele><time>2026-04-30T08:58:21.736Z</time></trkpt><trkpt lat="41.1639883" lon="9.3150096"><ele>3.666666666666667</ele><time>2026-04-30T08:58:22.738Z</time></trkpt><trkpt lat="41.1639326" lon="9.3147756"><ele>2.0</ele><time>2026-04-30T08:58:23.741Z</time></trkpt><trkpt lat="41.1638793" lon="9.314555"><ele>2.0</ele><time>2026-04-30T08:58:24.737Z</time></trkpt><trkpt lat="41.163825" lon="9.3143255"><ele>2.0</ele><time>2026-04-30T08:58:25.736Z</time></trkpt><trkpt lat="41.1637721" lon="9.3141054"><ele>2.0</ele><time>2026-04-30T08:58:26.739Z</time></trkpt><trkpt lat="41.1637222" lon="9.3138981"><ele>2.333333333333333</ele><time>2026-04-30T08:58:27.737Z</time></trkpt><trkpt lat="41.1636743" lon="9.3136977"><ele>2.6666666666666665</ele><time>2026-04-30T08:58:28.737Z</time></trkpt><trkpt lat="41.163627" lon="9.313494"><ele>3.0</ele><time>2026-04-30T08:58:29.738Z</time></trkpt><trkpt lat="41.1635795" lon="9.3132835"><ele>3.0</ele><time>2026-04-30T08:58:30.738Z</time></trkpt><trkpt lat="41.1635312" lon="9.3130762"><ele>3.0</ele><time>2026-04-30T08:58:31.741Z</time></trkpt><trkpt lat="41.1634854" lon="9.3128778"><ele>3.0</ele><time>2026-04-30T08:58:32.737Z</time></trkpt><trkpt lat="41.1634452" lon="9.312684"><ele>4.333333333333334</ele><time>2026-04-30T08:58:33.741Z</time></trkpt><trkpt lat="41.1634106" lon="9.3124824"><ele>5.666666666666667</ele><time>2026-04-30T08:58:34.738Z</time></trkpt><trkpt lat="41.1633836" lon="9.3122767"><ele>7.0</ele><time>2026-04-30T08:58:35.74Z</time></trkpt><trkpt lat="41.1633659" lon="9.3120653"><ele>8.666666666666668</ele><time>2026-04-30T08:58:36.74Z</time></trkpt><trkpt lat="41.1633588" lon="9.3118473"><ele>10.333333333333334</ele><time>2026-04-30T08:58:37.738Z</time></trkpt><trkpt lat="41.1633675" lon="9.3116257"><ele>12.0</ele><time>2026-04-30T08:58:38.738Z</time></trkpt><trkpt lat="41.1633946" lon="9.3114039"><ele>12.666666666666668</ele><time>2026-04-30T08:58:39.739Z</time></trkpt><trkpt lat="41.1634406" lon="9.3111834"><ele>13.333333333333334</ele><time>2026-04-30T08:58:40.739Z</time></trkpt><trkpt lat="41.1635068" lon="9.3109672"><ele>14.0</ele><time>2026-04-30T08:58:41.739Z</time></trkpt><trkpt lat="41.1635978" lon="9.3107573"><ele>15.0</ele><time>2026-04-30T08:58:42.738Z</time></trkpt><trkpt lat="41.1637056" lon="9.3105649"><ele>16.0</ele><time>2026-04-30T08:58:43.738Z</time></trkpt><trkpt lat="41.1638358" lon="9.3103921"><ele>17.0</ele><time>2026-04-30T08:58:44.737Z</time></trkpt><trkpt lat="41.1639806" lon="9.3102439"><ele>15.0</ele><time>2026-04-30T08:58:45.737Z</time></trkpt><trkpt lat="41.1641421" lon="9.3101149"><ele>13.0</ele><time>2026-04-30T08:58:46.739Z</time></trkpt><trkpt lat="41.1643171" lon="9.3099943"><ele>11.0</ele><time>2026-04-30T08:58:47.741Z</time></trkpt><trkpt lat="41.1645" lon="9.3098737"><ele>11.0</ele><time>2026-04-30T08:58:48.739Z</time></trkpt><trkpt lat="41.1646922" lon="9.3097454"><ele>11.0</ele><time>2026-04-30T08:58:49.74Z</time></trkpt><trkpt lat="41.1648922" lon="9.3096072"><ele>11.0</ele><time>2026-04-30T08:58:50.739Z</time></trkpt><trkpt lat="41.1650994" lon="9.3094646"><ele>12.0</ele><time>2026-04-30T08:58:51.736Z</time></trkpt><trkpt lat="41.1653089" lon="9.3093224"><ele>13.0</ele><time>2026-04-30T08:58:52.74Z</time></trkpt><trkpt lat="41.1655185" lon="9.309178"><ele>12.666666666666666</ele><time>2026-04-30T08:58:53.74Z</time></trkpt><trkpt lat="41.1657167" lon="9.3090443"><ele>12.333333333333332</ele><time>2026-04-30T08:58:54.738Z</time></trkpt><trkpt lat="41.1658824" lon="9.3089333"><ele>12.0</ele><time>2026-04-30T08:58:55.739Z</time></trkpt><trkpt lat="41.1660035" lon="9.3088512"><ele>12.833333333333334</ele><time>2026-04-30T08:58:56.739Z</time></trkpt><trkpt lat="41.1660822" lon="9.3087979"><ele>13.666666666666668</ele><time>2026-04-30T08:58:57.737Z</time></trkpt><trkpt lat="41.1661543" lon="9.3087489"><ele>14.5</ele><time>2026-04-30T08:58:58.737Z</time></trkpt><trkpt lat="41.166224" lon="9.3087015"><ele>15.333333333333334</ele><time>2026-04-30T08:58:59.738Z</time></trkpt><trkpt lat="41.1662994" lon="9.3086544"><ele>16.166666666666668</ele><time>2026-04-30T08:59:00.738Z</time></trkpt><trkpt lat="41.1663737" lon="9.3086002"><ele>17.0</ele><time>2026-04-30T08:59:01.739Z</time></trkpt><trkpt lat="41.1664468" lon="9.3085383"><ele>17.0</ele><time>2026-04-30T08:59:02.737Z</time></trkpt><trkpt lat="41.1665115" lon="9.3084726"><ele>17.0</ele><time>2026-04-30T08:59:03.742Z</time></trkpt><trkpt lat="41.1665715" lon="9.3083998"><ele>17.0</ele><time>2026-04-30T08:59:04.737Z</time></trkpt><trkpt lat="41.1666235" lon="9.3083146"><ele>17.0</ele><time>2026-04-30T08:59:05.737Z</time></trkpt><trkpt lat="41.1666678" lon="9.3082084"><ele>17.0</ele><time>2026-04-30T08:59:06.738Z</time></trkpt><trkpt lat="41.1667059" lon="9.3080823"><ele>17.0</ele><time>2026-04-30T08:59:07.737Z</time></trkpt><trkpt lat="41.1667265" lon="9.3079313"><ele>16.5</ele><time>2026-04-30T08:59:08.738Z</time></trkpt><trkpt lat="41.1667299" lon="9.3077505"><ele>16.0</ele><time>2026-04-30T08:59:09.739Z</time></trkpt><trkpt lat="41.1667256" lon="9.307578"><ele>15.5</ele><time>2026-04-30T08:59:10.736Z</time></trkpt><trkpt lat="41.166721" lon="9.3074318"><ele>15.0</ele><time>2026-04-30T08:59:11.742Z</time></trkpt><trkpt lat="41.1667164" lon="9.3073134"><ele>15.666666666666666</ele><time>2026-04-30T08:59:12.737Z</time></trkpt><trkpt lat="41.1667136" lon="9.3072129"><ele>16.333333333333332</ele><time>2026-04-30T08:59:13.741Z</time></trkpt><trkpt lat="41.1667097" lon="9.3071265"><ele>17.0</ele><time>2026-04-30T08:59:14.74Z</time></trkpt><trkpt lat="41.1667069" lon="9.3069607"><ele>17.666666666666664</ele><time>2026-04-30T08:59:16.738Z</time></trkpt><trkpt lat="41.1667106" lon="9.3068679"><ele>18.333333333333332</ele><time>2026-04-30T08:59:17.737Z</time></trkpt><trkpt lat="41.1667237" lon="9.3067676"><ele>19.0</ele><time>2026-04-30T08:59:18.739Z</time></trkpt><trkpt lat="41.1667566" lon="9.3066552"><ele>19.0</ele><time>2026-04-30T08:59:19.742Z</time></trkpt><trkpt lat="41.16681" lon="9.3065327"><ele>19.0</ele><time>2026-04-30T08:59:20.742Z</time></trkpt><trkpt lat="41.1668763" lon="9.3064125"><ele>19.0</ele><time>2026-04-30T08:59:21.741Z</time></trkpt><trkpt lat="41.1669433" lon="9.3063029"><ele>19.0</ele><time>2026-04-30T08:59:22.74Z</time></trkpt><trkpt lat="41.1670129" lon="9.3061903"><ele>19.0</ele><time>2026-04-30T08:59:23.738Z</time></trkpt><trkpt lat="41.167089" lon="9.3060751"><ele>20.6</ele><time>2026-04-30T08:59:24.74Z</time></trkpt><trkpt lat="41.1671769" lon="9.3059724"><ele>22.2</ele><time>2026-04-30T08:59:25.739Z</time></trkpt><trkpt lat="41.1672638" lon="9.3058877"><ele>23.800000000000004</ele><time>2026-04-30T08:59:26.74Z</time></trkpt><trkpt lat="41.1673452" lon="9.30581"><ele>25.400000000000002</ele><time>2026-04-30T08:59:27.742Z</time></trkpt><trkpt lat="41.1674274" lon="9.3057271"><ele>27.0</ele><time>2026-04-30T08:59:28.741Z</time></trkpt><trkpt lat="41.1675042" lon="9.3056475"><ele>25.8</ele><time>2026-04-30T08:59:29.741Z</time></trkpt><trkpt lat="41.1675729" lon="9.3055758"><ele>24.6</ele><time>2026-04-30T08:59:30.742Z</time></trkpt><trkpt lat="41.1676377" lon="9.3055065"><ele>23.400000000000002</ele><time>2026-04-30T08:59:31.736Z</time></trkpt><trkpt lat="41.1677056" lon="9.3054217"><ele>22.200000000000003</ele><time>2026-04-30T08:59:32.739Z</time></trkpt><trkpt lat="41.1677691" lon="9.3053183"><ele>21.0</ele><time>2026-04-30T08:59:33.738Z</time></trkpt><trkpt lat="41.1678269" lon="9.3052035"><ele>21.0</ele><time>2026-04-30T08:59:34.738Z</time></trkpt><trkpt lat="41.1678775" lon="9.30508"><ele>21.0</ele><time>2026-04-30T08:59:35.742Z</time></trkpt><trkpt lat="41.1679255" lon="9.3049507"><ele>21.0</ele><time>2026-04-30T08:59:36.737Z</time></trkpt><trkpt lat="41.1679762" lon="9.3048212"><ele>21.0</ele><time>2026-04-30T08:59:37.739Z</time></trkpt><trkpt lat="41.1680363" lon="9.3046971"><ele>21.0</ele><time>2026-04-30T08:59:38.74Z</time></trkpt><trkpt lat="41.1681029" lon="9.3045737"><ele>20.400000000000002</ele><time>2026-04-30T08:59:39.742Z</time></trkpt><trkpt lat="41.1681664" lon="9.304456"><ele>19.8</ele><time>2026-04-30T08:59:40.74Z</time></trkpt><trkpt lat="41.1682227" lon="9.3043379"><ele>19.200000000000003</ele><time>2026-04-30T08:59:41.738Z</time></trkpt><trkpt lat="41.1682643" lon="9.3042087"><ele>18.6</ele><time>2026-04-30T08:59:42.74Z</time></trkpt><trkpt lat="41.1682823" lon="9.3040499"><ele>18.0</ele><time>2026-04-30T08:59:43.739Z</time></trkpt><trkpt lat="41.1682788" lon="9.3038614"><ele>18.0</ele><time>2026-04-30T08:59:44.741Z</time></trkpt><trkpt lat="41.1682692" lon="9.303688"><ele>18.0</ele><time>2026-04-30T08:59:45.739Z</time></trkpt><trkpt lat="41.1682701" lon="9.3035303"><ele>18.0</ele><time>2026-04-30T08:59:46.74Z</time></trkpt><trkpt lat="41.1682826" lon="9.3033639"><ele>18.0</ele><time>2026-04-30T08:59:47.74Z</time></trkpt><trkpt lat="41.1683064" lon="9.3031656"><ele>18.5</ele><time>2026-04-30T08:59:48.738Z</time></trkpt><trkpt lat="41.1683382" lon="9.3029554"><ele>19.0</ele><time>2026-04-30T08:59:49.74Z</time></trkpt><trkpt lat="41.1683774" lon="9.3027722"><ele>19.5</ele><time>2026-04-30T08:59:50.74Z</time></trkpt><trkpt lat="41.1684159" lon="9.3026154"><ele>20.0</ele><time>2026-04-30T08:59:51.742Z</time></trkpt><trkpt lat="41.1684586" lon="9.3024794"><ele>20.0</ele><time>2026-04-30T08:59:52.742Z</time></trkpt><trkpt lat="41.1685275" lon="9.3023421"><ele>20.0</ele><time>2026-04-30T08:59:53.741Z</time></trkpt><trkpt lat="41.1686248" lon="9.3021649"><ele>20.0</ele><time>2026-04-30T08:59:54.739Z</time></trkpt><trkpt lat="41.1687501" lon="9.3019465"><ele>19.0</ele><time>2026-04-30T08:59:55.738Z</time></trkpt><trkpt lat="41.1689054" lon="9.3016852"><ele>18.0</ele><time>2026-04-30T08:59:56.74Z</time></trkpt><trkpt lat="41.1690844" lon="9.3013913"><ele>18.0</ele><time>2026-04-30T08:59:57.74Z</time></trkpt><trkpt lat="41.1692662" lon="9.3010941"><ele>18.0</ele><time>2026-04-30T08:59:58.741Z</time></trkpt><trkpt lat="41.1694413" lon="9.3008058"><ele>20.5</ele><time>2026-04-30T08:59:59.741Z</time></trkpt><trkpt lat="41.1696151" lon="9.3005069"><ele>23.0</ele><time>2026-04-30T09:00:00.737Z</time></trkpt><trkpt lat="41.1697936" lon="9.3002082"><ele>18.5</ele><time>2026-04-30T09:00:01.741Z</time></trkpt><trkpt lat="41.1699711" lon="9.2999145"><ele>14.0</ele><time>2026-04-30T09:00:02.737Z</time></trkpt><trkpt lat="41.1701354" lon="9.2996359"><ele>13.0</ele><time>2026-04-30T09:00:03.737Z</time></trkpt><trkpt lat="41.1702858" lon="9.2993804"><ele>12.0</ele><time>2026-04-30T09:00:04.739Z</time></trkpt><trkpt lat="41.1704303" lon="9.2991445"><ele>13.333333333333332</ele><time>2026-04-30T09:00:05.739Z</time></trkpt><trkpt lat="41.1705667" lon="9.2989149"><ele>14.666666666666666</ele><time>2026-04-30T09:00:06.737Z</time></trkpt><trkpt lat="41.170672" lon="9.2986874"><ele>16.0</ele><time>2026-04-30T09:00:07.74Z</time></trkpt><trkpt lat="41.1707559" lon="9.2984346"><ele>17.666666666666664</ele><time>2026-04-30T09:00:08.735Z</time></trkpt><trkpt lat="41.1708224" lon="9.2981667"><ele>19.333333333333332</ele><time>2026-04-30T09:00:09.74Z</time></trkpt><trkpt lat="41.170869" lon="9.2978832"><ele>21.0</ele><time>2026-04-30T09:00:10.737Z</time></trkpt><trkpt lat="41.1709079" lon="9.2975814"><ele>21.0</ele><time>2026-04-30T09:00:11.74Z</time></trkpt><trkpt lat="41.170955" lon="9.2972618"><ele>21.0</ele><time>2026-04-30T09:00:12.74Z</time></trkpt><trkpt lat="41.1710077" lon="9.2969211"><ele>21.0</ele><time>2026-04-30T09:00:13.742Z</time></trkpt><trkpt lat="41.1710619" lon="9.2965574"><ele>21.0</ele><time>2026-04-30T09:00:14.738Z</time></trkpt><trkpt lat="41.1711147" lon="9.296182"><ele>22.0</ele><time>2026-04-30T09:00:15.738Z</time></trkpt><trkpt lat="41.1711662" lon="9.2958349"><ele>23.0</ele><time>2026-04-30T09:00:16.737Z</time></trkpt><trkpt lat="41.1712228" lon="9.2955052"><ele>24.5</ele><time>2026-04-30T09:00:17.74Z</time></trkpt><trkpt lat="41.1712888" lon="9.2951994"><ele>26.0</ele><time>2026-04-30T09:00:18.74Z</time></trkpt><trkpt lat="41.1713606" lon="9.2949172"><ele>27.0</ele><time>2026-04-30T09:00:19.737Z</time></trkpt><trkpt lat="41.1714281" lon="9.2946588"><ele>28.0</ele><time>2026-04-30T09:00:20.739Z</time></trkpt><trkpt lat="41.1714782" lon="9.2944133"><ele>29.0</ele><time>2026-04-30T09:00:21.74Z</time></trkpt><trkpt lat="41.1714983" lon="9.2941839"><ele>29.0</ele><time>2026-04-30T09:00:22.738Z</time></trkpt><trkpt lat="41.1714955" lon="9.2939682"><ele>29.0</ele><time>2026-04-30T09:00:23.736Z</time></trkpt><trkpt lat="41.1714997" lon="9.2937526"><ele>29.0</ele><time>2026-04-30T09:00:24.739Z</time></trkpt><trkpt lat="41.171545" lon="9.2935257"><ele>30.666666666666664</ele><time>2026-04-30T09:00:25.739Z</time></trkpt><trkpt lat="41.1716095" lon="9.2932737"><ele>32.333333333333336</ele><time>2026-04-30T09:00:26.74Z</time></trkpt><trkpt lat="41.1716868" lon="9.2929981"><ele>34.0</ele><time>2026-04-30T09:00:27.736Z</time></trkpt><trkpt lat="41.1717782" lon="9.2927084"><ele>34.0</ele><time>2026-04-30T09:00:28.737Z</time></trkpt><trkpt lat="41.1718892" lon="9.2924129"><ele>34.0</ele><time>2026-04-30T09:00:29.739Z</time></trkpt><trkpt lat="41.1720235" lon="9.2921029"><ele>35.5</ele><time>2026-04-30T09:00:30.739Z</time></trkpt><trkpt lat="41.1721606" lon="9.2918054"><ele>37.0</ele><time>2026-04-30T09:00:31.738Z</time></trkpt><trkpt lat="41.1722873" lon="9.2915306"><ele>37.5</ele><time>2026-04-30T09:00:32.74Z</time></trkpt><trkpt lat="41.1724145" lon="9.2912587"><ele>38.0</ele><time>2026-04-30T09:00:33.739Z</time></trkpt><trkpt lat="41.172537" lon="9.290981"><ele>38.0</ele><time>2026-04-30T09:00:34.739Z</time></trkpt><trkpt lat="41.1726502" lon="9.2906873"><ele>38.0</ele><time>2026-04-30T09:00:35.74Z</time></trkpt><trkpt lat="41.1727549" lon="9.2903755"><ele>38.0</ele><time>2026-04-30T09:00:36.74Z</time></trkpt><trkpt lat="41.1728561" lon="9.2900477"><ele>38.0</ele><time>2026-04-30T09:00:37.74Z</time></trkpt><trkpt lat="41.1729606" lon="9.2897099"><ele>39.0</ele><time>2026-04-30T09:00:38.741Z</time></trkpt><trkpt lat="41.1730726" lon="9.2893608"><ele>40.0</ele><time>2026-04-30T09:00:39.739Z</time></trkpt><trkpt lat="41.1731855" lon="9.2890005"><ele>42.0</ele><time>2026-04-30T09:00:40.739Z</time></trkpt><trkpt lat="41.1732955" lon="9.2886409"><ele>44.0</ele><time>2026-04-30T09:00:41.739Z</time></trkpt><trkpt lat="41.1733997" lon="9.2883034"><ele>44.5</ele><time>2026-04-30T09:00:42.74Z</time></trkpt><trkpt lat="41.1735007" lon="9.2879811"><ele>45.0</ele><time>2026-04-30T09:00:43.741Z</time></trkpt><trkpt lat="41.173595" lon="9.2876731"><ele>45.0</ele><time>2026-04-30T09:00:44.738Z</time></trkpt><trkpt lat="41.1736857" lon="9.2873767"><ele>45.0</ele><time>2026-04-30T09:00:45.739Z</time></trkpt><trkpt lat="41.1737689" lon="9.2870855"><ele>46.5</ele><time>2026-04-30T09:00:46.737Z</time></trkpt><trkpt lat="41.1738428" lon="9.2867883"><ele>48.0</ele><time>2026-04-30T09:00:47.739Z</time></trkpt><trkpt lat="41.1739122" lon="9.2864808"><ele>47.0</ele><time>2026-04-30T09:00:48.739Z</time></trkpt><trkpt lat="41.1739827" lon="9.2861679"><ele>46.0</ele><time>2026-04-30T09:00:49.742Z</time></trkpt><trkpt lat="41.1740534" lon="9.28585"><ele>46.0</ele><time>2026-04-30T09:00:50.74Z</time></trkpt><trkpt lat="41.1741259" lon="9.2855354"><ele>46.0</ele><time>2026-04-30T09:00:51.737Z</time></trkpt><trkpt lat="41.1741921" lon="9.2852462"><ele>46.0</ele><time>2026-04-30T09:00:52.74Z</time></trkpt><trkpt lat="41.1742481" lon="9.2849797"><ele>46.0</ele><time>2026-04-30T09:00:53.741Z</time></trkpt><trkpt lat="41.1742812" lon="9.2847223"><ele>46.0</ele><time>2026-04-30T09:00:54.741Z</time></trkpt><trkpt lat="41.1742769" lon="9.2844608"><ele>45.66666666666667</ele><time>2026-04-30T09:00:55.739Z</time></trkpt><trkpt lat="41.1742545" lon="9.2842084"><ele>45.333333333333336</ele><time>2026-04-30T09:00:56.737Z</time></trkpt><trkpt lat="41.1742402" lon="9.2839811"><ele>45.0</ele><time>2026-04-30T09:00:57.74Z</time></trkpt><trkpt lat="41.1742561" lon="9.2837638"><ele>45.0</ele><time>2026-04-30T09:00:58.737Z</time></trkpt><trkpt lat="41.1743156" lon="9.2835725"><ele>45.0</ele><time>2026-04-30T09:00:59.741Z</time></trkpt><trkpt lat="41.1744136" lon="9.2833923"><ele>45.0</ele><time>2026-04-30T09:01:00.738Z</time></trkpt><trkpt lat="41.1745408" lon="9.2832036"><ele>46.66666666666667</ele><time>2026-04-30T09:01:01.738Z</time></trkpt><trkpt lat="41.1746818" lon="9.2829888"><ele>48.333333333333336</ele><time>2026-04-30T09:01:02.739Z</time></trkpt><trkpt lat="41.1748336" lon="9.2827519"><ele>50.0</ele><time>2026-04-30T09:01:03.739Z</time></trkpt><trkpt lat="41.1749938" lon="9.2825023"><ele>49.5</ele><time>2026-04-30T09:01:04.74Z</time></trkpt><trkpt lat="41.1751572" lon="9.2822526"><ele>49.0</ele><time>2026-04-30T09:01:05.74Z</time></trkpt><trkpt lat="41.1753202" lon="9.2820003"><ele>49.0</ele><time>2026-04-30T09:01:06.739Z</time></trkpt><trkpt lat="41.1754804" lon="9.2817556"><ele>49.0</ele><time>2026-04-30T09:01:07.741Z</time></trkpt><trkpt lat="41.1756298" lon="9.2815269"><ele>46.5</ele><time>2026-04-30T09:01:08.735Z</time></trkpt><trkpt lat="41.1757771" lon="9.2812991"><ele>44.0</ele><time>2026-04-30T09:01:09.738Z</time></trkpt><trkpt lat="41.1759237" lon="9.2810714"><ele>44.0</ele><time>2026-04-30T09:01:10.739Z</time></trkpt><trkpt lat="41.1760697" lon="9.2808463"><ele>44.0</ele><time>2026-04-30T09:01:11.736Z</time></trkpt><trkpt lat="41.1762162" lon="9.2806245"><ele>44.0</ele><time>2026-04-30T09:01:12.737Z</time></trkpt><trkpt lat="41.1763525" lon="9.2804188"><ele>44.0</ele><time>2026-04-30T09:01:13.739Z</time></trkpt><trkpt lat="41.1764731" lon="9.2802329"><ele>44.0</ele><time>2026-04-30T09:01:14.74Z</time></trkpt><trkpt lat="41.1765832" lon="9.2800625"><ele>44.0</ele><time>2026-04-30T09:01:15.739Z</time></trkpt><trkpt lat="41.1766861" lon="9.2799021"><ele>43.5</ele><time>2026-04-30T09:01:16.738Z</time></trkpt><trkpt lat="41.1767849" lon="9.279756"><ele>43.0</ele><time>2026-04-30T09:01:17.74Z</time></trkpt><trkpt lat="41.1768787" lon="9.2796191"><ele>42.5</ele><time>2026-04-30T09:01:18.737Z</time></trkpt><trkpt lat="41.1769685" lon="9.2794868"><ele>42.0</ele><time>2026-04-30T09:01:19.737Z</time></trkpt><trkpt lat="41.1770551" lon="9.2793558"><ele>42.0</ele><time>2026-04-30T09:01:20.742Z</time></trkpt><trkpt lat="41.177148" lon="9.2792213"><ele>42.0</ele><time>2026-04-30T09:01:21.74Z</time></trkpt><trkpt lat="41.1772449" lon="9.2790787"><ele>42.0</ele><time>2026-04-30T09:01:22.737Z</time></trkpt><trkpt lat="41.1773468" lon="9.2789275"><ele>42.0</ele><time>2026-04-30T09:01:23.739Z</time></trkpt><trkpt lat="41.1774469" lon="9.2787743"><ele>39.666666666666664</ele><time>2026-04-30T09:01:24.738Z</time></trkpt><trkpt lat="41.177545" lon="9.2786267"><ele>37.33333333333333</ele><time>2026-04-30T09:01:25.74Z</time></trkpt><trkpt lat="41.1776438" lon="9.2784793"><ele>35.0</ele><time>2026-04-30T09:01:26.738Z</time></trkpt><trkpt lat="41.1777467" lon="9.2783258"><ele>35.0</ele><time>2026-04-30T09:01:27.737Z</time></trkpt><trkpt lat="41.1778514" lon="9.2781752"><ele>35.0</ele><time>2026-04-30T09:01:28.74Z</time></trkpt><trkpt lat="41.1779499" lon="9.2780269"><ele>35.0</ele><time>2026-04-30T09:01:29.74Z</time></trkpt><trkpt lat="41.1780431" lon="9.2778874"><ele>35.0</ele><time>2026-04-30T09:01:30.74Z</time></trkpt><trkpt lat="41.1781328" lon="9.2777541"><ele>35.0</ele><time>2026-04-30T09:01:31.738Z</time></trkpt><trkpt lat="41.1782199" lon="9.2776243"><ele>35.0</ele><time>2026-04-30T09:01:32.738Z</time></trkpt><trkpt lat="41.1783104" lon="9.2774915"><ele>35.0</ele><time>2026-04-30T09:01:33.737Z</time></trkpt><trkpt lat="41.1784017" lon="9.2773519"><ele>35.0</ele><time>2026-04-30T09:01:34.738Z</time></trkpt><trkpt lat="41.1784984" lon="9.2772088"><ele>35.0</ele><time>2026-04-30T09:01:35.738Z</time></trkpt><trkpt lat="41.1786001" lon="9.2770554"><ele>35.0</ele><time>2026-04-30T09:01:36.74Z</time></trkpt><trkpt lat="41.1787135" lon="9.2768866"><ele>35.0</ele><time>2026-04-30T09:01:37.737Z</time></trkpt><trkpt lat="41.1788322" lon="9.2767072"><ele>35.0</ele><time>2026-04-30T09:01:38.737Z</time></trkpt><trkpt lat="41.1789495" lon="9.2765272"><ele>35.0</ele><time>2026-04-30T09:01:39.739Z</time></trkpt><trkpt lat="41.1790685" lon="9.2763351"><ele>35.0</ele><time>2026-04-30T09:01:40.736Z</time></trkpt><trkpt lat="41.1791871" lon="9.2761266"><ele>34.33333333333333</ele><time>2026-04-30T09:01:41.737Z</time></trkpt><trkpt lat="41.1793063" lon="9.2758963"><ele>33.666666666666664</ele><time>2026-04-30T09:01:42.739Z</time></trkpt><trkpt lat="41.179426" lon="9.2756472"><ele>33.0</ele><time>2026-04-30T09:01:43.739Z</time></trkpt><trkpt lat="41.179545" lon="9.2753821"><ele>33.0</ele><time>2026-04-30T09:01:44.738Z</time></trkpt><trkpt lat="41.1796647" lon="9.2751157"><ele>33.0</ele><time>2026-04-30T09:01:45.737Z</time></trkpt><trkpt lat="41.1797779" lon="9.2748537"><ele>31.0</ele><time>2026-04-30T09:01:46.736Z</time></trkpt><trkpt lat="41.1798857" lon="9.2746007"><ele>29.0</ele><time>2026-04-30T09:01:47.738Z</time></trkpt><trkpt lat="41.1799982" lon="9.2743474"><ele>27.0</ele><time>2026-04-30T09:01:48.739Z</time></trkpt><trkpt lat="41.1801152" lon="9.2741005"><ele>26.333333333333336</ele><time>2026-04-30T09:01:49.738Z</time></trkpt><trkpt lat="41.1802395" lon="9.2738641"><ele>25.666666666666668</ele><time>2026-04-30T09:01:50.738Z</time></trkpt><trkpt lat="41.1803775" lon="9.2736289"><ele>25.0</ele><time>2026-04-30T09:01:51.738Z</time></trkpt><trkpt lat="41.1805265" lon="9.273398"><ele>25.0</ele><time>2026-04-30T09:01:52.738Z</time></trkpt><trkpt lat="41.1806842" lon="9.2731685"><ele>25.0</ele><time>2026-04-30T09:01:53.738Z</time></trkpt><trkpt lat="41.1808521" lon="9.2729375"><ele>22.5</ele><time>2026-04-30T09:01:54.74Z</time></trkpt><trkpt lat="41.1810227" lon="9.2727083"><ele>20.0</ele><time>2026-04-30T09:01:55.738Z</time></trkpt><trkpt lat="41.1811876" lon="9.2724868"><ele>20.0</ele><time>2026-04-30T09:01:56.738Z</time></trkpt><trkpt lat="41.1813507" lon="9.2722695"><ele>20.0</ele><time>2026-04-30T09:01:57.738Z</time></trkpt><trkpt lat="41.1815187" lon="9.2720464"><ele>18.5</ele><time>2026-04-30T09:01:58.739Z</time></trkpt><trkpt lat="41.181692" lon="9.271822"><ele>17.0</ele><time>2026-04-30T09:01:59.738Z</time></trkpt><trkpt lat="41.1818744" lon="9.2716011"><ele>15.0</ele><time>2026-04-30T09:02:00.739Z</time></trkpt><trkpt lat="41.1820639" lon="9.2713803"><ele>13.0</ele><time>2026-04-30T09:02:01.74Z</time></trkpt><trkpt lat="41.182252" lon="9.2711711"><ele>14.0</ele><time>2026-04-30T09:02:02.739Z</time></trkpt><trkpt lat="41.1824354" lon="9.2709705"><ele>15.0</ele><time>2026-04-30T09:02:03.738Z</time></trkpt><trkpt lat="41.1826172" lon="9.2707743"><ele>13.333333333333334</ele><time>2026-04-30T09:02:04.738Z</time></trkpt><trkpt lat="41.1827892" lon="9.2705804"><ele>11.666666666666668</ele><time>2026-04-30T09:02:05.737Z</time></trkpt><trkpt lat="41.1829524" lon="9.2703902"><ele>10.0</ele><time>2026-04-30T09:02:06.737Z</time></trkpt><trkpt lat="41.183109" lon="9.2701922"><ele>9.666666666666668</ele><time>2026-04-30T09:02:07.737Z</time></trkpt><trkpt lat="41.1832543" lon="9.2699905"><ele>9.333333333333334</ele><time>2026-04-30T09:02:08.737Z</time></trkpt><trkpt lat="41.1833855" lon="9.2697933"><ele>9.0</ele><time>2026-04-30T09:02:09.739Z</time></trkpt><trkpt lat="41.183509" lon="9.2696044"><ele>8.25</ele><time>2026-04-30T09:02:10.74Z</time></trkpt><trkpt lat="41.1836193" lon="9.2694363"><ele>7.5</ele><time>2026-04-30T09:02:11.737Z</time></trkpt><trkpt lat="41.1837141" lon="9.2693004"><ele>6.75</ele><time>2026-04-30T09:02:12.739Z</time></trkpt><trkpt lat="41.1837788" lon="9.269203"><ele>6.0</ele><time>2026-04-30T09:02:13.739Z</time></trkpt><trkpt lat="41.1838311" lon="9.2691255"><ele>6.0</ele><time>2026-04-30T09:02:14.737Z</time></trkpt><trkpt lat="41.1838801" lon="9.269054"><ele>6.0</ele><time>2026-04-30T09:02:15.738Z</time></trkpt><trkpt lat="41.1839645" lon="9.2689492"><ele>6.0</ele><time>2026-04-30T09:02:17.736Z</time></trkpt><trkpt lat="41.1840444" lon="9.268873"><ele>6.0</ele><time>2026-04-30T09:02:19.741Z</time></trkpt><trkpt lat="41.1840755" lon="9.2687913"><ele>6.0</ele><time>2026-04-30T09:02:21.739Z</time></trkpt><trkpt lat="41.1840379" lon="9.2686861"><ele>6.0</ele><time>2026-04-30T09:02:23.742Z</time></trkpt><trkpt lat="41.1839101" lon="9.2685982"><ele>5.75</ele><time>2026-04-30T09:02:25.737Z</time></trkpt><trkpt lat="41.1838171" lon="9.2685374"><ele>5.5</ele><time>2026-04-30T09:02:26.737Z</time></trkpt><trkpt lat="41.183705" lon="9.2684611"><ele>5.25</ele><time>2026-04-30T09:02:27.74Z</time></trkpt><trkpt lat="41.183574" lon="9.2683706"><ele>5.0</ele><time>2026-04-30T09:02:28.739Z</time></trkpt><trkpt lat="41.1834263" lon="9.2682677"><ele>5.0</ele><time>2026-04-30T09:02:29.738Z</time></trkpt><trkpt lat="41.1832613" lon="9.2681523"><ele>5.0</ele><time>2026-04-30T09:02:30.737Z</time></trkpt><trkpt lat="41.1830866" lon="9.2680248"><ele>5.0</ele><time>2026-04-30T09:02:31.739Z</time></trkpt><trkpt lat="41.1829069" lon="9.2679007"><ele>6.0</ele><time>2026-04-30T09:02:32.738Z</time></trkpt><trkpt lat="41.1827206" lon="9.2677678"><ele>7.0</ele><time>2026-04-30T09:02:33.739Z</time></trkpt><trkpt lat="41.1825459" lon="9.2676434"><ele>8.0</ele><time>2026-04-30T09:02:34.738Z</time></trkpt><trkpt lat="41.1823829" lon="9.2675277"><ele>8.333333333333332</ele><time>2026-04-30T09:02:35.739Z</time></trkpt><trkpt lat="41.1822264" lon="9.2674154"><ele>8.666666666666666</ele><time>2026-04-30T09:02:36.738Z</time></trkpt><trkpt lat="41.1820699" lon="9.267306"><ele>9.0</ele><time>2026-04-30T09:02:37.737Z</time></trkpt><trkpt lat="41.1819137" lon="9.2671959"><ele>10.0</ele><time>2026-04-30T09:02:38.738Z</time></trkpt><trkpt lat="41.1817549" lon="9.2670796"><ele>11.0</ele><time>2026-04-30T09:02:39.736Z</time></trkpt><trkpt lat="41.1815923" lon="9.2669603"><ele>12.0</ele><time>2026-04-30T09:02:40.738Z</time></trkpt><trkpt lat="41.1814247" lon="9.2668402"><ele>12.0</ele><time>2026-04-30T09:02:41.737Z</time></trkpt><trkpt lat="41.1812576" lon="9.2667269"><ele>12.0</ele><time>2026-04-30T09:02:42.739Z</time></trkpt><trkpt lat="41.1810843" lon="9.2666219"><ele>12.0</ele><time>2026-04-30T09:02:43.738Z</time></trkpt><trkpt lat="41.1809097" lon="9.2665234"><ele>11.666666666666666</ele><time>2026-04-30T09:02:44.74Z</time></trkpt><trkpt lat="41.1807422" lon="9.2664397"><ele>11.333333333333332</ele><time>2026-04-30T09:02:45.737Z</time></trkpt><trkpt lat="41.1805762" lon="9.2663635"><ele>11.0</ele><time>2026-04-30T09:02:46.739Z</time></trkpt><trkpt lat="41.1804076" lon="9.2662959"><ele>11.0</ele><time>2026-04-30T09:02:47.739Z</time></trkpt><trkpt lat="41.1802416" lon="9.266237"><ele>11.0</ele><time>2026-04-30T09:02:48.739Z</time></trkpt><trkpt lat="41.1800743" lon="9.2661797"><ele>11.0</ele><time>2026-04-30T09:02:49.74Z</time></trkpt><trkpt lat="41.1799" lon="9.2661255"><ele>11.333333333333332</ele><time>2026-04-30T09:02:50.736Z</time></trkpt><trkpt lat="41.1797171" lon="9.2660795"><ele>11.666666666666666</ele><time>2026-04-30T09:02:51.737Z</time></trkpt><trkpt lat="41.1795261" lon="9.2660358"><ele>12.0</ele><time>2026-04-30T09:02:52.737Z</time></trkpt><trkpt lat="41.1793244" lon="9.2659934"><ele>12.0</ele><time>2026-04-30T09:02:53.735Z</time></trkpt><trkpt lat="41.1791141" lon="9.2659503"><ele>12.0</ele><time>2026-04-30T09:02:54.739Z</time></trkpt><trkpt lat="41.1789022" lon="9.2659093"><ele>12.0</ele><time>2026-04-30T09:02:55.739Z</time></trkpt><trkpt lat="41.1786882" lon="9.2658705"><ele>12.666666666666668</ele><time>2026-04-30T09:02:56.738Z</time></trkpt><trkpt lat="41.1784732" lon="9.265832"><ele>13.333333333333334</ele><time>2026-04-30T09:02:57.736Z</time></trkpt><trkpt lat="41.1782553" lon="9.2657922"><ele>14.0</ele><time>2026-04-30T09:02:58.739Z</time></trkpt><trkpt lat="41.1780367" lon="9.265752"><ele>14.0</ele><time>2026-04-30T09:02:59.739Z</time></trkpt><trkpt lat="41.1778226" lon="9.2657126"><ele>14.0</ele><time>2026-04-30T09:03:00.741Z</time></trkpt><trkpt lat="41.1776192" lon="9.265675"><ele>14.0</ele><time>2026-04-30T09:03:01.736Z</time></trkpt><trkpt lat="41.1774313" lon="9.2656403"><ele>15.666666666666668</ele><time>2026-04-30T09:03:02.737Z</time></trkpt><trkpt lat="41.1772522" lon="9.2656062"><ele>17.333333333333332</ele><time>2026-04-30T09:03:03.738Z</time></trkpt><trkpt lat="41.1770691" lon="9.2655648"><ele>19.0</ele><time>2026-04-30T09:03:04.736Z</time></trkpt><trkpt lat="41.1768819" lon="9.265509"><ele>19.0</ele><time>2026-04-30T09:03:05.737Z</time></trkpt><trkpt lat="41.1766941" lon="9.2654448"><ele>19.0</ele><time>2026-04-30T09:03:06.737Z</time></trkpt><trkpt lat="41.1765019" lon="9.2653742"><ele>19.0</ele><time>2026-04-30T09:03:07.738Z</time></trkpt><trkpt lat="41.1763022" lon="9.2653011"><ele>18.333333333333332</ele><time>2026-04-30T09:03:08.738Z</time></trkpt><trkpt lat="41.1760982" lon="9.2652256"><ele>17.666666666666668</ele><time>2026-04-30T09:03:09.737Z</time></trkpt><trkpt lat="41.1758964" lon="9.2651492"><ele>17.0</ele><time>2026-04-30T09:03:10.738Z</time></trkpt><trkpt lat="41.1756979" lon="9.2650629"><ele>17.333333333333336</ele><time>2026-04-30T09:03:11.74Z</time></trkpt><trkpt lat="41.1754987" lon="9.264961"><ele>17.666666666666668</ele><time>2026-04-30T09:03:12.74Z</time></trkpt><trkpt lat="41.1752998" lon="9.2648432"><ele>18.0</ele><time>2026-04-30T09:03:13.738Z</time></trkpt><trkpt lat="41.1751023" lon="9.2647083"><ele>18.0</ele><time>2026-04-30T09:03:14.737Z</time></trkpt><trkpt lat="41.1749054" lon="9.2645606"><ele>18.0</ele><time>2026-04-30T09:03:15.737Z</time></trkpt><trkpt lat="41.1747266" lon="9.2644216"><ele>18.0</ele><time>2026-04-30T09:03:16.737Z</time></trkpt><trkpt lat="41.1745632" lon="9.2642967"><ele>17.666666666666668</ele><time>2026-04-30T09:03:17.737Z</time></trkpt><trkpt lat="41.1744071" lon="9.2641828"><ele>17.333333333333336</ele><time>2026-04-30T09:03:18.738Z</time></trkpt><trkpt lat="41.1742477" lon="9.2640933"><ele>17.0</ele><time>2026-04-30T09:03:19.74Z</time></trkpt><trkpt lat="41.1740807" lon="9.2640299"><ele>17.333333333333336</ele><time>2026-04-30T09:03:20.739Z</time></trkpt><trkpt lat="41.1739054" lon="9.2639831"><ele>17.666666666666668</ele><time>2026-04-30T09:03:21.737Z</time></trkpt><trkpt lat="41.1737243" lon="9.2639415"><ele>18.0</ele><time>2026-04-30T09:03:22.738Z</time></trkpt><trkpt lat="41.1735423" lon="9.2639039"><ele>18.333333333333332</ele><time>2026-04-30T09:03:23.738Z</time></trkpt><trkpt lat="41.1733578" lon="9.2638691"><ele>18.666666666666664</ele><time>2026-04-30T09:03:24.738Z</time></trkpt><trkpt lat="41.1731713" lon="9.2638318"><ele>19.0</ele><time>2026-04-30T09:03:25.738Z</time></trkpt><trkpt lat="41.1729767" lon="9.2637911"><ele>21.333333333333332</ele><time>2026-04-30T09:03:26.739Z</time></trkpt><trkpt lat="41.1727792" lon="9.2637482"><ele>23.666666666666664</ele><time>2026-04-30T09:03:27.737Z</time></trkpt><trkpt lat="41.1725901" lon="9.2637102"><ele>26.0</ele><time>2026-04-30T09:03:28.738Z</time></trkpt><trkpt lat="41.1724164" lon="9.2636761"><ele>26.25</ele><time>2026-04-30T09:03:29.737Z</time></trkpt><trkpt lat="41.1722641" lon="9.2636464"><ele>26.5</ele><time>2026-04-30T09:03:30.742Z</time></trkpt><trkpt lat="41.1721294" lon="9.2636179"><ele>26.75</ele><time>2026-04-30T09:03:31.739Z</time></trkpt><trkpt lat="41.1720088" lon="9.2635943"><ele>27.0</ele><time>2026-04-30T09:03:32.74Z</time></trkpt><trkpt lat="41.1718986" lon="9.2635738"><ele>27.0</ele><time>2026-04-30T09:03:33.738Z</time></trkpt><trkpt lat="41.1717984" lon="9.2635559"><ele>27.0</ele><time>2026-04-30T09:03:34.738Z</time></trkpt><trkpt lat="41.1717086" lon="9.2635389"><ele>27.0</ele><time>2026-04-30T09:03:35.737Z</time></trkpt><trkpt lat="41.1716333" lon="9.2635246"><ele>27.0</ele><time>2026-04-30T09:03:36.737Z</time></trkpt><trkpt lat="41.171565" lon="9.2635113"><ele>27.0</ele><time>2026-04-30T09:03:37.735Z</time></trkpt><trkpt lat="41.1714638" lon="9.2634926"><ele>27.0</ele><time>2026-04-30T09:03:39.738Z</time></trkpt><trkpt lat="41.171382" lon="9.2634384"><ele>27.6</ele><time>2026-04-30T09:03:41.737Z</time></trkpt><trkpt lat="41.1713479" lon="9.2633245"><ele>28.200000000000003</ele><time>2026-04-30T09:03:43.738Z</time></trkpt><trkpt lat="41.1713538" lon="9.2632368"><ele>28.8</ele><time>2026-04-30T09:03:44.739Z</time></trkpt><trkpt lat="41.1713697" lon="9.2631227"><ele>29.4</ele><time>2026-04-30T09:03:45.739Z</time></trkpt><trkpt lat="41.1713843" lon="9.2629792"><ele>30.0</ele><time>2026-04-30T09:03:46.735Z</time></trkpt><trkpt lat="41.1713899" lon="9.262821"><ele>31.5</ele><time>2026-04-30T09:03:47.737Z</time></trkpt><trkpt lat="41.1713923" lon="9.262636"><ele>33.0</ele><time>2026-04-30T09:03:48.738Z</time></trkpt><trkpt lat="41.1713949" lon="9.2624479"><ele>34.5</ele><time>2026-04-30T09:03:49.737Z</time></trkpt><trkpt lat="41.1713932" lon="9.2622789"><ele>36.0</ele><time>2026-04-30T09:03:50.739Z</time></trkpt><trkpt lat="41.1713826" lon="9.2621094"><ele>37.5</ele><time>2026-04-30T09:03:51.741Z</time></trkpt><trkpt lat="41.1713514" lon="9.2619486"><ele>39.0</ele><time>2026-04-30T09:03:52.736Z</time></trkpt><trkpt lat="41.1713011" lon="9.2618033"><ele>40.5</ele><time>2026-04-30T09:03:53.737Z</time></trkpt><trkpt lat="41.1712389" lon="9.2616674"><ele>42.0</ele><time>2026-04-30T09:03:54.737Z</time></trkpt><trkpt lat="41.1711809" lon="9.261522"><ele>42.0</ele><time>2026-04-30T09:03:55.738Z</time></trkpt><trkpt lat="41.1711224" lon="9.2613599"><ele>42.0</ele><time>2026-04-30T09:03:56.737Z</time></trkpt><trkpt lat="41.171061" lon="9.2611884"><ele>42.0</ele><time>2026-04-30T09:03:57.742Z</time></trkpt><trkpt lat="41.1710027" lon="9.2610113"><ele>42.0</ele><time>2026-04-30T09:03:58.738Z</time></trkpt><trkpt lat="41.1709456" lon="9.2608255"><ele>42.0</ele><time>2026-04-30T09:03:59.739Z</time></trkpt><trkpt lat="41.1708914" lon="9.2606369"><ele>42.0</ele><time>2026-04-30T09:04:00.736Z</time></trkpt><trkpt lat="41.170847" lon="9.2604547"><ele>42.0</ele><time>2026-04-30T09:04:01.739Z</time></trkpt><trkpt lat="41.1708175" lon="9.2602679"><ele>42.0</ele><time>2026-04-30T09:04:02.735Z</time></trkpt><trkpt lat="41.170803" lon="9.2600721"><ele>42.0</ele><time>2026-04-30T09:04:03.739Z</time></trkpt><trkpt lat="41.170806" lon="9.2598702"><ele>42.0</ele><time>2026-04-30T09:04:04.739Z</time></trkpt><trkpt lat="41.1708209" lon="9.2596579"><ele>42.0</ele><time>2026-04-30T09:04:05.737Z</time></trkpt><trkpt lat="41.1708427" lon="9.2594303"><ele>42.0</ele><time>2026-04-30T09:04:06.736Z</time></trkpt><trkpt lat="41.1708638" lon="9.2591897"><ele>42.0</ele><time>2026-04-30T09:04:07.736Z</time></trkpt><trkpt lat="41.1708854" lon="9.2589387"><ele>42.0</ele><time>2026-04-30T09:04:08.74Z</time></trkpt><trkpt lat="41.1709089" lon="9.2586736"><ele>43.0</ele><time>2026-04-30T09:04:09.737Z</time></trkpt><trkpt lat="41.1709309" lon="9.2584153"><ele>44.0</ele><time>2026-04-30T09:04:10.74Z</time></trkpt><trkpt lat="41.1709501" lon="9.2581775"><ele>45.0</ele><time>2026-04-30T09:04:11.739Z</time></trkpt><trkpt lat="41.1709681" lon="9.257957"><ele>45.25</ele><time>2026-04-30T09:04:12.739Z</time></trkpt><trkpt lat="41.170991" lon="9.2577638"><ele>45.5</ele><time>2026-04-30T09:04:13.738Z</time></trkpt><trkpt lat="41.1710263" lon="9.2576066"><ele>45.75</ele><time>2026-04-30T09:04:14.737Z</time></trkpt><trkpt lat="41.1710809" lon="9.2574798"><ele>46.0</ele><time>2026-04-30T09:04:15.74Z</time></trkpt><trkpt lat="41.1711586" lon="9.2573658"><ele>46.25</ele><time>2026-04-30T09:04:16.737Z</time></trkpt><trkpt lat="41.1712529" lon="9.2572582"><ele>46.5</ele><time>2026-04-30T09:04:17.739Z</time></trkpt><trkpt lat="41.171357" lon="9.2571385"><ele>46.75</ele><time>2026-04-30T09:04:18.738Z</time></trkpt><trkpt lat="41.1714538" lon="9.257028"><ele>47.0</ele><time>2026-04-30T09:04:19.738Z</time></trkpt><trkpt lat="41.171531" lon="9.2569355"><ele>45.83333333333333</ele><time>2026-04-30T09:04:20.738Z</time></trkpt><trkpt lat="41.1715993" lon="9.2568531"><ele>44.666666666666664</ele><time>2026-04-30T09:04:21.738Z</time></trkpt><trkpt lat="41.1716565" lon="9.2567769"><ele>43.5</ele><time>2026-04-30T09:04:22.74Z</time></trkpt><trkpt lat="41.171697" lon="9.2567011"><ele>42.333333333333336</ele><time>2026-04-30T09:04:23.739Z</time></trkpt><trkpt lat="41.1717172" lon="9.2566153"><ele>41.16666666666667</ele><time>2026-04-30T09:04:24.74Z</time></trkpt><trkpt lat="41.1717104" lon="9.2565315"><ele>40.0</ele><time>2026-04-30T09:04:25.739Z</time></trkpt><trkpt lat="41.1716794" lon="9.2564387"><ele>40.5</ele><time>2026-04-30T09:04:26.738Z</time></trkpt><trkpt lat="41.1716363" lon="9.2563398"><ele>41.0</ele><time>2026-04-30T09:04:27.74Z</time></trkpt><trkpt lat="41.1715901" lon="9.2562431"><ele>41.5</ele><time>2026-04-30T09:04:28.739Z</time></trkpt><trkpt lat="41.1715368" lon="9.2561575"><ele>42.0</ele><time>2026-04-30T09:04:29.739Z</time></trkpt><trkpt lat="41.1714694" lon="9.2560925"><ele>42.5</ele><time>2026-04-30T09:04:30.738Z</time></trkpt><trkpt lat="41.1713938" lon="9.2560434"><ele>43.0</ele><time>2026-04-30T09:04:31.74Z</time></trkpt><trkpt lat="41.1713191" lon="9.2560113"><ele>43.00000000000001</ele><time>2026-04-30T09:04:32.739Z</time></trkpt><trkpt lat="41.1712474" lon="9.2559869"><ele>43.0</ele><time>2026-04-30T09:04:33.742Z</time></trkpt><trkpt lat="41.1711788" lon="9.2559627"><ele>43.0</ele><time>2026-04-30T09:04:34.737Z</time></trkpt><trkpt lat="41.1711183" lon="9.2559202"><ele>43.0</ele><time>2026-04-30T09:04:35.739Z</time></trkpt><trkpt lat="41.1710669" lon="9.2558548"><ele>43.0</ele><time>2026-04-30T09:04:36.742Z</time></trkpt><trkpt lat="41.171031" lon="9.2557708"><ele>43.00000000000001</ele><time>2026-04-30T09:04:37.739Z</time></trkpt><trkpt lat="41.1710042" lon="9.2556704"><ele>43.0</ele><time>2026-04-30T09:04:38.742Z</time></trkpt><trkpt lat="41.1709797" lon="9.2555579"><ele>42.75</ele><time>2026-04-30T09:04:39.737Z</time></trkpt><trkpt lat="41.1709687" lon="9.2554276"><ele>42.5</ele><time>2026-04-30T09:04:40.739Z</time></trkpt><trkpt lat="41.1709709" lon="9.2552853"><ele>42.25</ele><time>2026-04-30T09:04:41.739Z</time></trkpt><trkpt lat="41.1709761" lon="9.2551282"><ele>42.0</ele><time>2026-04-30T09:04:42.741Z</time></trkpt><trkpt lat="41.1709843" lon="9.2549529"><ele>42.666666666666664</ele><time>2026-04-30T09:04:43.74Z</time></trkpt><trkpt lat="41.1709967" lon="9.2547603"><ele>43.33333333333333</ele><time>2026-04-30T09:04:44.739Z</time></trkpt><trkpt lat="41.1710142" lon="9.2545498"><ele>44.0</ele><time>2026-04-30T09:04:45.738Z</time></trkpt><trkpt lat="41.1710344" lon="9.2543258"><ele>44.0</ele><time>2026-04-30T09:04:46.737Z</time></trkpt><trkpt lat="41.1710505" lon="9.2541014"><ele>44.0</ele><time>2026-04-30T09:04:47.741Z</time></trkpt><trkpt lat="41.1710611" lon="9.2538908"><ele>44.0</ele><time>2026-04-30T09:04:48.737Z</time></trkpt><trkpt lat="41.1710647" lon="9.2536961"><ele>45.0</ele><time>2026-04-30T09:04:49.737Z</time></trkpt><trkpt lat="41.171054" lon="9.2535083"><ele>46.0</ele><time>2026-04-30T09:04:50.738Z</time></trkpt><trkpt lat="41.171026" lon="9.2533299"><ele>47.0</ele><time>2026-04-30T09:04:51.738Z</time></trkpt><trkpt lat="41.1709855" lon="9.2531533"><ele>48.0</ele><time>2026-04-30T09:04:52.735Z</time></trkpt><trkpt lat="41.170935" lon="9.2529685"><ele>48.66666666666667</ele><time>2026-04-30T09:04:53.736Z</time></trkpt><trkpt lat="41.170877" lon="9.2527715"><ele>49.333333333333336</ele><time>2026-04-30T09:04:54.738Z</time></trkpt><trkpt lat="41.1708167" lon="9.2525682"><ele>50.0</ele><time>2026-04-30T09:04:55.74Z</time></trkpt><trkpt lat="41.1707548" lon="9.2523629"><ele>51.333333333333336</ele><time>2026-04-30T09:04:56.737Z</time></trkpt><trkpt lat="41.1706921" lon="9.252161"><ele>52.66666666666667</ele><time>2026-04-30T09:04:57.741Z</time></trkpt><trkpt lat="41.1706276" lon="9.2519635"><ele>54.0</ele><time>2026-04-30T09:04:58.736Z</time></trkpt><trkpt lat="41.170565" lon="9.2517701"><ele>55.25</ele><time>2026-04-30T09:04:59.736Z</time></trkpt><trkpt lat="41.1705121" lon="9.2515882"><ele>56.5</ele><time>2026-04-30T09:05:00.735Z</time></trkpt><trkpt lat="41.1704656" lon="9.2514192"><ele>57.75</ele><time>2026-04-30T09:05:01.737Z</time></trkpt><trkpt lat="41.1704322" lon="9.2512577"><ele>59.0</ele><time>2026-04-30T09:05:02.736Z</time></trkpt><trkpt lat="41.1704197" lon="9.2511027"><ele>60.5</ele><time>2026-04-30T09:05:03.736Z</time></trkpt><trkpt lat="41.1704257" lon="9.2509446"><ele>62.0</ele><time>2026-04-30T09:05:04.737Z</time></trkpt><trkpt lat="41.1704421" lon="9.2507848"><ele>63.5</ele><time>2026-04-30T09:05:05.735Z</time></trkpt><trkpt lat="41.17047" lon="9.2506091"><ele>65.0</ele><time>2026-04-30T09:05:06.737Z</time></trkpt><trkpt lat="41.1705018" lon="9.2504137"><ele>67.0</ele><time>2026-04-30T09:05:07.738Z</time></trkpt><trkpt lat="41.1705396" lon="9.2501971"><ele>69.0</ele><time>2026-04-30T09:05:08.737Z</time></trkpt><trkpt lat="41.1705786" lon="9.2499636"><ele>71.0</ele><time>2026-04-30T09:05:09.737Z</time></trkpt><trkpt lat="41.1706209" lon="9.2497265"><ele>72.0</ele><time>2026-04-30T09:05:10.735Z</time></trkpt><trkpt lat="41.1706718" lon="9.2495028"><ele>73.0</ele><time>2026-04-30T09:05:11.735Z</time></trkpt><trkpt lat="41.1707338" lon="9.2492975"><ele>74.0</ele><time>2026-04-30T09:05:12.733Z</time></trkpt><trkpt lat="41.1708106" lon="9.2491097"><ele>72.0</ele><time>2026-04-30T09:05:13.734Z</time></trkpt><trkpt lat="41.170901" lon="9.2489286"><ele>70.0</ele><time>2026-04-30T09:05:14.736Z</time></trkpt><trkpt lat="41.1710008" lon="9.2487472"><ele>68.0</ele><time>2026-04-30T09:05:15.736Z</time></trkpt><trkpt lat="41.1710941" lon="9.2485782"><ele>68.0</ele><time>2026-04-30T09:05:16.735Z</time></trkpt><trkpt lat="41.1711784" lon="9.2484158"><ele>68.0</ele><time>2026-04-30T09:05:17.737Z</time></trkpt><trkpt lat="41.1712506" lon="9.2482468"><ele>68.0</ele><time>2026-04-30T09:05:18.738Z</time></trkpt><trkpt lat="41.1713043" lon="9.2480629"><ele>68.0</ele><time>2026-04-30T09:05:19.735Z</time></trkpt><trkpt lat="41.1713461" lon="9.2478607"><ele>70.66666666666667</ele><time>2026-04-30T09:05:20.738Z</time></trkpt><trkpt lat="41.1713873" lon="9.2476414"><ele>73.33333333333333</ele><time>2026-04-30T09:05:21.736Z</time></trkpt><trkpt lat="41.1714363" lon="9.2474252"><ele>76.0</ele><time>2026-04-30T09:05:22.737Z</time></trkpt><trkpt lat="41.1715039" lon="9.2472174"><ele>73.33333333333333</ele><time>2026-04-30T09:05:23.739Z</time></trkpt><trkpt lat="41.1715825" lon="9.24702"><ele>70.66666666666667</ele><time>2026-04-30T09:05:24.737Z</time></trkpt><trkpt lat="41.1716616" lon="9.2468422"><ele>68.0</ele><time>2026-04-30T09:05:25.739Z</time></trkpt><trkpt lat="41.1717452" lon="9.2466643"><ele>68.0</ele><time>2026-04-30T09:05:26.739Z</time></trkpt><trkpt lat="41.1718321" lon="9.2465014"><ele>68.0</ele><time>2026-04-30T09:05:27.736Z</time></trkpt><trkpt lat="41.1719179" lon="9.2463442"><ele>68.0</ele><time>2026-04-30T09:05:28.738Z</time></trkpt><trkpt lat="41.1719989" lon="9.2462024"><ele>68.0</ele><time>2026-04-30T09:05:29.74Z</time></trkpt><trkpt lat="41.172076" lon="9.2460791"><ele>68.0</ele><time>2026-04-30T09:05:30.735Z</time></trkpt><trkpt lat="41.1721599" lon="9.2459723"><ele>68.0</ele><time>2026-04-30T09:05:31.736Z</time></trkpt><trkpt lat="41.1722518" lon="9.2458817"><ele>68.0</ele><time>2026-04-30T09:05:32.735Z</time></trkpt><trkpt lat="41.1723517" lon="9.2457933"><ele>68.0</ele><time>2026-04-30T09:05:33.74Z</time></trkpt><trkpt lat="41.1724551" lon="9.2456979"><ele>68.0</ele><time>2026-04-30T09:05:34.74Z</time></trkpt><trkpt lat="41.1725526" lon="9.24558"><ele>68.0</ele><time>2026-04-30T09:05:35.737Z</time></trkpt><trkpt lat="41.1726447" lon="9.2454384"><ele>68.0</ele><time>2026-04-30T09:05:36.737Z</time></trkpt><trkpt lat="41.17274" lon="9.2452807"><ele>68.0</ele><time>2026-04-30T09:05:37.74Z</time></trkpt><trkpt lat="41.1728373" lon="9.245118"><ele>68.0</ele><time>2026-04-30T09:05:38.736Z</time></trkpt><trkpt lat="41.1729221" lon="9.2449566"><ele>68.0</ele><time>2026-04-30T09:05:39.736Z</time></trkpt><trkpt lat="41.1729918" lon="9.2447935"><ele>68.0</ele><time>2026-04-30T09:05:40.737Z</time></trkpt><trkpt lat="41.1730469" lon="9.2446352"><ele>68.0</ele><time>2026-04-30T09:05:41.738Z</time></trkpt><trkpt lat="41.1730971" lon="9.2444927"><ele>68.8</ele><time>2026-04-30T09:05:42.738Z</time></trkpt><trkpt lat="41.1731587" lon="9.2443775"><ele>69.6</ele><time>2026-04-30T09:05:43.737Z</time></trkpt><trkpt lat="41.1732346" lon="9.2442857"><ele>70.4</ele><time>2026-04-30T09:05:44.736Z</time></trkpt><trkpt lat="41.173321" lon="9.2442054"><ele>71.2</ele><time>2026-04-30T09:05:45.741Z</time></trkpt><trkpt lat="41.1734081" lon="9.2441115"><ele>72.0</ele><time>2026-04-30T09:05:46.736Z</time></trkpt><trkpt lat="41.1734929" lon="9.2439913"><ele>72.75</ele><time>2026-04-30T09:05:47.737Z</time></trkpt><trkpt lat="41.1735768" lon="9.2438484"><ele>73.5</ele><time>2026-04-30T09:05:48.736Z</time></trkpt><trkpt lat="41.1736535" lon="9.243704"><ele>74.25</ele><time>2026-04-30T09:05:49.736Z</time></trkpt><trkpt lat="41.1737187" lon="9.2435588"><ele>75.0</ele><time>2026-04-30T09:05:50.737Z</time></trkpt><trkpt lat="41.1737707" lon="9.2434019"><ele>75.0</ele><time>2026-04-30T09:05:51.736Z</time></trkpt><trkpt lat="41.1738098" lon="9.2432275"><ele>75.0</ele><time>2026-04-30T09:05:52.736Z</time></trkpt><trkpt lat="41.1738451" lon="9.2430362"><ele>75.0</ele><time>2026-04-30T09:05:53.734Z</time></trkpt><trkpt lat="41.1738779" lon="9.2428486"><ele>75.0</ele><time>2026-04-30T09:05:54.74Z</time></trkpt><trkpt lat="41.17391" lon="9.242667"><ele>75.0</ele><time>2026-04-30T09:05:55.737Z</time></trkpt><trkpt lat="41.1739405" lon="9.2424902"><ele>75.0</ele><time>2026-04-30T09:05:56.739Z</time></trkpt><trkpt lat="41.1739719" lon="9.2423156"><ele>75.0</ele><time>2026-04-30T09:05:57.736Z</time></trkpt><trkpt lat="41.1740069" lon="9.2421287"><ele>75.0</ele><time>2026-04-30T09:05:58.739Z</time></trkpt><trkpt lat="41.1740452" lon="9.2419402"><ele>74.5</ele><time>2026-04-30T09:05:59.735Z</time></trkpt><trkpt lat="41.1740846" lon="9.2417549"><ele>74.0</ele><time>2026-04-30T09:06:00.739Z</time></trkpt><trkpt lat="41.1741221" lon="9.2415811"><ele>73.5</ele><time>2026-04-30T09:06:01.739Z</time></trkpt><trkpt lat="41.1741565" lon="9.2414153"><ele>73.0</ele><time>2026-04-30T09:06:02.738Z</time></trkpt><trkpt lat="41.1741958" lon="9.241255"><ele>72.25</ele><time>2026-04-30T09:06:03.736Z</time></trkpt><trkpt lat="41.1742514" lon="9.2410994"><ele>71.5</ele><time>2026-04-30T09:06:04.737Z</time></trkpt><trkpt lat="41.1743231" lon="9.2409482"><ele>70.75</ele><time>2026-04-30T09:06:05.738Z</time></trkpt><trkpt lat="41.1744071" lon="9.2408003"><ele>70.0</ele><time>2026-04-30T09:06:06.737Z</time></trkpt><trkpt lat="41.1745027" lon="9.2406562"><ele>70.0</ele><time>2026-04-30T09:06:07.736Z</time></trkpt><trkpt lat="41.1746038" lon="9.2405168"><ele>70.0</ele><time>2026-04-30T09:06:08.738Z</time></trkpt><trkpt lat="41.1747058" lon="9.2403823"><ele>70.0</ele><time>2026-04-30T09:06:09.738Z</time></trkpt><trkpt lat="41.1748085" lon="9.2402608"><ele>70.0</ele><time>2026-04-30T09:06:10.739Z</time></trkpt><trkpt lat="41.1749097" lon="9.2401491"><ele>70.0</ele><time>2026-04-30T09:06:11.735Z</time></trkpt><trkpt lat="41.1750052" lon="9.2400532"><ele>70.0</ele><time>2026-04-30T09:06:12.74Z</time></trkpt><trkpt lat="41.1750825" lon="9.2399588"><ele>70.0</ele><time>2026-04-30T09:06:13.736Z</time></trkpt><trkpt lat="41.1751325" lon="9.2398515"><ele>70.0</ele><time>2026-04-30T09:06:14.737Z</time></trkpt><trkpt lat="41.1751558" lon="9.239725"><ele>70.0</ele><time>2026-04-30T09:06:15.738Z</time></trkpt><trkpt lat="41.17515" lon="9.2395854"><ele>70.0</ele><time>2026-04-30T09:06:16.738Z</time></trkpt><trkpt lat="41.175123" lon="9.239434"><ele>70.0</ele><time>2026-04-30T09:06:17.737Z</time></trkpt><trkpt lat="41.1750833" lon="9.2392738"><ele>70.0</ele><time>2026-04-30T09:06:18.737Z</time></trkpt><trkpt lat="41.1750426" lon="9.2391229"><ele>70.0</ele><time>2026-04-30T09:06:19.738Z</time></trkpt><trkpt lat="41.1750055" lon="9.2389793"><ele>70.0</ele><time>2026-04-30T09:06:20.739Z</time></trkpt><trkpt lat="41.1749845" lon="9.2388213"><ele>70.0</ele><time>2026-04-30T09:06:21.737Z</time></trkpt><trkpt lat="41.1749819" lon="9.2386483"><ele>70.0</ele><time>2026-04-30T09:06:22.739Z</time></trkpt><trkpt lat="41.1749913" lon="9.2384573"><ele>70.0</ele><time>2026-04-30T09:06:23.737Z</time></trkpt><trkpt lat="41.1750072" lon="9.2382488"><ele>71.0</ele><time>2026-04-30T09:06:24.737Z</time></trkpt><trkpt lat="41.175024" lon="9.2380205"><ele>72.0</ele><time>2026-04-30T09:06:25.738Z</time></trkpt><trkpt lat="41.1750402" lon="9.2377868"><ele>73.0</ele><time>2026-04-30T09:06:26.738Z</time></trkpt><trkpt lat="41.1750592" lon="9.2375794"><ele>73.0</ele><time>2026-04-30T09:06:27.737Z</time></trkpt><trkpt lat="41.1750879" lon="9.2373928"><ele>73.0</ele><time>2026-04-30T09:06:28.736Z</time></trkpt><trkpt lat="41.1751323" lon="9.2372201"><ele>73.0</ele><time>2026-04-30T09:06:29.736Z</time></trkpt><trkpt lat="41.175196" lon="9.2370502"><ele>73.0</ele><time>2026-04-30T09:06:30.736Z</time></trkpt><trkpt lat="41.1752708" lon="9.2368804"><ele>73.5</ele><time>2026-04-30T09:06:31.737Z</time></trkpt><trkpt lat="41.1753359" lon="9.2367132"><ele>74.0</ele><time>2026-04-30T09:06:32.737Z</time></trkpt><trkpt lat="41.1753824" lon="9.2365331"><ele>74.5</ele><time>2026-04-30T09:06:33.739Z</time></trkpt><trkpt lat="41.1754168" lon="9.2363443"><ele>75.0</ele><time>2026-04-30T09:06:34.736Z</time></trkpt><trkpt lat="41.1754502" lon="9.2361676"><ele>75.25</ele><time>2026-04-30T09:06:35.742Z</time></trkpt><trkpt lat="41.1754822" lon="9.2360037"><ele>75.5</ele><time>2026-04-30T09:06:36.737Z</time></trkpt><trkpt lat="41.175515" lon="9.2358395"><ele>75.75</ele><time>2026-04-30T09:06:37.739Z</time></trkpt><trkpt lat="41.1755575" lon="9.2356782"><ele>76.0</ele><time>2026-04-30T09:06:38.737Z</time></trkpt><trkpt lat="41.1756085" lon="9.235516"><ele>76.5</ele><time>2026-04-30T09:06:39.739Z</time></trkpt><trkpt lat="41.175669" lon="9.2353532"><ele>77.0</ele><time>2026-04-30T09:06:40.737Z</time></trkpt><trkpt lat="41.1757276" lon="9.2351984"><ele>77.5</ele><time>2026-04-30T09:06:41.737Z</time></trkpt><trkpt lat="41.1757833" lon="9.2350597"><ele>78.0</ele><time>2026-04-30T09:06:42.738Z</time></trkpt><trkpt lat="41.1758525" lon="9.2349297"><ele>78.0</ele><time>2026-04-30T09:06:43.738Z</time></trkpt><trkpt lat="41.1759364" lon="9.2348174"><ele>78.0</ele><time>2026-04-30T09:06:44.738Z</time></trkpt><trkpt lat="41.1760337" lon="9.2347139"><ele>78.0</ele><time>2026-04-30T09:06:45.738Z</time></trkpt><trkpt lat="41.1761317" lon="9.2346056"><ele>78.0</ele><time>2026-04-30T09:06:46.742Z</time></trkpt><trkpt lat="41.1762172" lon="9.2344728"><ele>78.0</ele><time>2026-04-30T09:06:47.736Z</time></trkpt><trkpt lat="41.1762922" lon="9.2343141"><ele>78.0</ele><time>2026-04-30T09:06:48.736Z</time></trkpt><trkpt lat="41.1763576" lon="9.2341362"><ele>78.0</ele><time>2026-04-30T09:06:49.735Z</time></trkpt><trkpt lat="41.1764118" lon="9.2339429"><ele>78.0</ele><time>2026-04-30T09:06:50.737Z</time></trkpt><trkpt lat="41.1764583" lon="9.2337338"><ele>79.33333333333333</ele><time>2026-04-30T09:06:51.736Z</time></trkpt><trkpt lat="41.1765026" lon="9.2335158"><ele>80.66666666666666</ele><time>2026-04-30T09:06:52.736Z</time></trkpt><trkpt lat="41.1765509" lon="9.2332927"><ele>82.0</ele><time>2026-04-30T09:06:53.738Z</time></trkpt><trkpt lat="41.1766029" lon="9.2330817"><ele>83.66666666666666</ele><time>2026-04-30T09:06:54.738Z</time></trkpt><trkpt lat="41.1766625" lon="9.2328995"><ele>85.33333333333333</ele><time>2026-04-30T09:06:55.737Z</time></trkpt><trkpt lat="41.1767369" lon="9.2327292"><ele>87.0</ele><time>2026-04-30T09:06:56.738Z</time></trkpt><trkpt lat="41.1768295" lon="9.232568"><ele>87.0</ele><time>2026-04-30T09:06:57.735Z</time></trkpt><trkpt lat="41.1769351" lon="9.2324181"><ele>87.0</ele><time>2026-04-30T09:06:58.738Z</time></trkpt><trkpt lat="41.177033" lon="9.2322784"><ele>87.0</ele><time>2026-04-30T09:06:59.739Z</time></trkpt><trkpt lat="41.1771217" lon="9.232153"><ele>87.0</ele><time>2026-04-30T09:07:00.736Z</time></trkpt><trkpt lat="41.1771886" lon="9.2320489"><ele>87.8</ele><time>2026-04-30T09:07:01.736Z</time></trkpt><trkpt lat="41.177233" lon="9.2319494"><ele>88.6</ele><time>2026-04-30T09:07:02.737Z</time></trkpt><trkpt lat="41.1772706" lon="9.2318318"><ele>89.39999999999999</ele><time>2026-04-30T09:07:03.738Z</time></trkpt><trkpt lat="41.1773033" lon="9.2316879"><ele>90.19999999999999</ele><time>2026-04-30T09:07:04.74Z</time></trkpt><trkpt lat="41.1773304" lon="9.2315254"><ele>91.0</ele><time>2026-04-30T09:07:05.738Z</time></trkpt><trkpt lat="41.1773587" lon="9.2313397"><ele>92.0</ele><time>2026-04-30T09:07:06.737Z</time></trkpt><trkpt lat="41.1773868" lon="9.2311345"><ele>93.0</ele><time>2026-04-30T09:07:07.737Z</time></trkpt><trkpt lat="41.1774172" lon="9.2308933"><ele>94.0</ele><time>2026-04-30T09:07:08.736Z</time></trkpt><trkpt lat="41.1774527" lon="9.2306189"><ele>96.33333333333333</ele><time>2026-04-30T09:07:09.736Z</time></trkpt><trkpt lat="41.1774848" lon="9.2303572"><ele>98.66666666666666</ele><time>2026-04-30T09:07:10.738Z</time></trkpt><trkpt lat="41.1775146" lon="9.2301193"><ele>101.0</ele><time>2026-04-30T09:07:11.739Z</time></trkpt><trkpt lat="41.1775436" lon="9.2298982"><ele>102.25</ele><time>2026-04-30T09:07:12.737Z</time></trkpt><trkpt lat="41.1775705" lon="9.2297019"><ele>103.5</ele><time>2026-04-30T09:07:13.738Z</time></trkpt><trkpt lat="41.1775872" lon="9.229527"><ele>104.75</ele><time>2026-04-30T09:07:14.736Z</time></trkpt><trkpt lat="41.177589" lon="9.2293683"><ele>106.0</ele><time>2026-04-30T09:07:15.74Z</time></trkpt><trkpt lat="41.177564" lon="9.2292266"><ele>106.0</ele><time>2026-04-30T09:07:16.741Z</time></trkpt><trkpt lat="41.1775161" lon="9.2290931"><ele>106.0</ele><time>2026-04-30T09:07:17.739Z</time></trkpt><trkpt lat="41.1774429" lon="9.2289734"><ele>106.0</ele><time>2026-04-30T09:07:18.738Z</time></trkpt><trkpt lat="41.1773471" lon="9.228869"><ele>106.0</ele><time>2026-04-30T09:07:19.739Z</time></trkpt><trkpt lat="41.1772319" lon="9.2287752"><ele>105.25</ele><time>2026-04-30T09:07:20.735Z</time></trkpt><trkpt lat="41.1771125" lon="9.2286727"><ele>104.5</ele><time>2026-04-30T09:07:21.737Z</time></trkpt><trkpt lat="41.1769946" lon="9.228544"><ele>103.75</ele><time>2026-04-30T09:07:22.738Z</time></trkpt><trkpt lat="41.1768868" lon="9.228404"><ele>103.0</ele><time>2026-04-30T09:07:23.739Z</time></trkpt><trkpt lat="41.1767882" lon="9.2282434"><ele>103.66666666666667</ele><time>2026-04-30T09:07:24.74Z</time></trkpt><trkpt lat="41.1767007" lon="9.2280622"><ele>104.33333333333334</ele><time>2026-04-30T09:07:25.737Z</time></trkpt><trkpt lat="41.1766148" lon="9.2278715"><ele>105.0</ele><time>2026-04-30T09:07:26.738Z</time></trkpt><trkpt lat="41.1765245" lon="9.2276863"><ele>104.0</ele><time>2026-04-30T09:07:27.737Z</time></trkpt><trkpt lat="41.1764366" lon="9.2275169"><ele>103.0</ele><time>2026-04-30T09:07:28.742Z</time></trkpt><trkpt lat="41.1763522" lon="9.2273562"><ele>102.0</ele><time>2026-04-30T09:07:29.736Z</time></trkpt><trkpt lat="41.1762701" lon="9.2272064"><ele>101.0</ele><time>2026-04-30T09:07:30.736Z</time></trkpt><trkpt lat="41.1761893" lon="9.2270638"><ele>101.0</ele><time>2026-04-30T09:07:31.74Z</time></trkpt><trkpt lat="41.1761094" lon="9.2269262"><ele>101.0</ele><time>2026-04-30T09:07:32.739Z</time></trkpt><trkpt lat="41.1760274" lon="9.226783"><ele>101.0</ele><time>2026-04-30T09:07:33.74Z</time></trkpt><trkpt lat="41.1759443" lon="9.2266389"><ele>101.0</ele><time>2026-04-30T09:07:34.739Z</time></trkpt><trkpt lat="41.1758584" lon="9.2265065"><ele>100.75</ele><time>2026-04-30T09:07:35.735Z</time></trkpt><trkpt lat="41.1757583" lon="9.2263922"><ele>100.5</ele><time>2026-04-30T09:07:36.739Z</time></trkpt><trkpt lat="41.1756438" lon="9.2262884"><ele>100.25</ele><time>2026-04-30T09:07:37.738Z</time></trkpt><trkpt lat="41.1755195" lon="9.2261819"><ele>100.0</ele><time>2026-04-30T09:07:38.737Z</time></trkpt><trkpt lat="41.1753865" lon="9.2260669"><ele>100.0</ele><time>2026-04-30T09:07:39.738Z</time></trkpt><trkpt lat="41.1752496" lon="9.225945"><ele>100.0</ele><time>2026-04-30T09:07:40.736Z</time></trkpt><trkpt lat="41.1751037" lon="9.2258186"><ele>100.0</ele><time>2026-04-30T09:07:41.737Z</time></trkpt><trkpt lat="41.1749579" lon="9.2256814"><ele>98.66666666666667</ele><time>2026-04-30T09:07:42.737Z</time></trkpt><trkpt lat="41.1748149" lon="9.2255361"><ele>97.33333333333334</ele><time>2026-04-30T09:07:43.739Z</time></trkpt><trkpt lat="41.1746798" lon="9.2253788"><ele>96.0</ele><time>2026-04-30T09:07:44.739Z</time></trkpt><trkpt lat="41.1745501" lon="9.225213"><ele>96.0</ele><time>2026-04-30T09:07:45.738Z</time></trkpt><trkpt lat="41.1744281" lon="9.2250475"><ele>96.0</ele><time>2026-04-30T09:07:46.737Z</time></trkpt><trkpt lat="41.1743162" lon="9.224884"><ele>96.0</ele><time>2026-04-30T09:07:47.737Z</time></trkpt><trkpt lat="41.1742186" lon="9.2247114"><ele>95.66666666666667</ele><time>2026-04-30T09:07:48.737Z</time></trkpt><trkpt lat="41.1741313" lon="9.2245237"><ele>95.33333333333334</ele><time>2026-04-30T09:07:49.737Z</time></trkpt><trkpt lat="41.1740519" lon="9.2243267"><ele>95.0</ele><time>2026-04-30T09:07:50.738Z</time></trkpt><trkpt lat="41.1739736" lon="9.2241272"><ele>96.0</ele><time>2026-04-30T09:07:51.737Z</time></trkpt><trkpt lat="41.1739031" lon="9.2239322"><ele>97.0</ele><time>2026-04-30T09:07:52.738Z</time></trkpt><trkpt lat="41.1738505" lon="9.2237413"><ele>98.0</ele><time>2026-04-30T09:07:53.737Z</time></trkpt><trkpt lat="41.1738161" lon="9.2235455"><ele>98.0</ele><time>2026-04-30T09:07:54.736Z</time></trkpt><trkpt lat="41.1737858" lon="9.2233402"><ele>98.0</ele><time>2026-04-30T09:07:55.739Z</time></trkpt><trkpt lat="41.1737546" lon="9.2231278"><ele>98.0</ele><time>2026-04-30T09:07:56.738Z</time></trkpt><trkpt lat="41.1737235" lon="9.2229091"><ele>99.0</ele><time>2026-04-30T09:07:57.738Z</time></trkpt><trkpt lat="41.1736817" lon="9.2226888"><ele>100.0</ele><time>2026-04-30T09:07:58.737Z</time></trkpt><trkpt lat="41.1736334" lon="9.2224659"><ele>101.0</ele><time>2026-04-30T09:07:59.737Z</time></trkpt><trkpt lat="41.1735761" lon="9.2222427"><ele>101.33333333333333</ele><time>2026-04-30T09:08:00.737Z</time></trkpt><trkpt lat="41.1735184" lon="9.222014"><ele>101.66666666666666</ele><time>2026-04-30T09:08:01.737Z</time></trkpt><trkpt lat="41.173457" lon="9.2217826"><ele>102.0</ele><time>2026-04-30T09:08:02.74Z</time></trkpt><trkpt lat="41.1733941" lon="9.2215609"><ele>101.66666666666666</ele><time>2026-04-30T09:08:03.738Z</time></trkpt><trkpt lat="41.1733358" lon="9.2213558"><ele>101.33333333333333</ele><time>2026-04-30T09:08:04.737Z</time></trkpt><trkpt lat="41.1732802" lon="9.2211668"><ele>101.0</ele><time>2026-04-30T09:08:05.736Z</time></trkpt><trkpt lat="41.1732151" lon="9.2209973"><ele>101.0</ele><time>2026-04-30T09:08:06.734Z</time></trkpt><trkpt lat="41.1731334" lon="9.2208529"><ele>101.0</ele><time>2026-04-30T09:08:07.739Z</time></trkpt><trkpt lat="41.1730334" lon="9.2207199"><ele>101.0</ele><time>2026-04-30T09:08:08.739Z</time></trkpt><trkpt lat="41.1729262" lon="9.2205809"><ele>101.0</ele><time>2026-04-30T09:08:09.739Z</time></trkpt><trkpt lat="41.1728208" lon="9.2204274"><ele>100.33333333333333</ele><time>2026-04-30T09:08:10.736Z</time></trkpt><trkpt lat="41.1727087" lon="9.2202767"><ele>99.66666666666666</ele><time>2026-04-30T09:08:11.738Z</time></trkpt><trkpt lat="41.1725974" lon="9.2201452"><ele>99.0</ele><time>2026-04-30T09:08:12.739Z</time></trkpt><trkpt lat="41.1724811" lon="9.2200381"><ele>99.25</ele><time>2026-04-30T09:08:13.737Z</time></trkpt><trkpt lat="41.1723535" lon="9.2199735"><ele>99.5</ele><time>2026-04-30T09:08:14.736Z</time></trkpt><trkpt lat="41.1722184" lon="9.2199362"><ele>99.75</ele><time>2026-04-30T09:08:15.739Z</time></trkpt><trkpt lat="41.1720793" lon="9.2199068"><ele>100.0</ele><time>2026-04-30T09:08:16.737Z</time></trkpt><trkpt lat="41.1719358" lon="9.2198583"><ele>100.0</ele><time>2026-04-30T09:08:17.737Z</time></trkpt><trkpt lat="41.1717929" lon="9.2197888"><ele>100.0</ele><time>2026-04-30T09:08:18.737Z</time></trkpt><trkpt lat="41.1716707" lon="9.2197044"><ele>100.0</ele><time>2026-04-30T09:08:19.737Z</time></trkpt><trkpt lat="41.1715815" lon="9.2196144"><ele>100.0</ele><time>2026-04-30T09:08:20.735Z</time></trkpt><trkpt lat="41.1715162" lon="9.219522"><ele>100.0</ele><time>2026-04-30T09:08:21.736Z</time></trkpt><trkpt lat="41.1714629" lon="9.2194038"><ele>100.0</ele><time>2026-04-30T09:08:22.738Z</time></trkpt><trkpt lat="41.171413" lon="9.2192678"><ele>100.0</ele><time>2026-04-30T09:08:23.738Z</time></trkpt><trkpt lat="41.1713597" lon="9.2191188"><ele>100.0</ele><time>2026-04-30T09:08:24.737Z</time></trkpt><trkpt lat="41.1713054" lon="9.2189606"><ele>100.0</ele><time>2026-04-30T09:08:25.736Z</time></trkpt><trkpt lat="41.1712511" lon="9.2187963"><ele>100.0</ele><time>2026-04-30T09:08:26.737Z</time></trkpt><trkpt lat="41.1711955" lon="9.2186293"><ele>100.0</ele><time>2026-04-30T09:08:27.742Z</time></trkpt><trkpt lat="41.171137" lon="9.2184642"><ele>100.0</ele><time>2026-04-30T09:08:28.737Z</time></trkpt><trkpt lat="41.1710854" lon="9.2183105"><ele>100.0</ele><time>2026-04-30T09:08:29.739Z</time></trkpt><trkpt lat="41.1710359" lon="9.2181685"><ele>100.0</ele><time>2026-04-30T09:08:30.738Z</time></trkpt><trkpt lat="41.1709881" lon="9.2180284"><ele>100.0</ele><time>2026-04-30T09:08:31.738Z</time></trkpt><trkpt lat="41.17094" lon="9.217887"><ele>100.0</ele><time>2026-04-30T09:08:32.736Z</time></trkpt><trkpt lat="41.1708879" lon="9.2177414"><ele>99.75</ele><time>2026-04-30T09:08:33.735Z</time></trkpt><trkpt lat="41.1708356" lon="9.2175905"><ele>99.5</ele><time>2026-04-30T09:08:34.741Z</time></trkpt><trkpt lat="41.1707849" lon="9.217438"><ele>99.25</ele><time>2026-04-30T09:08:35.741Z</time></trkpt><trkpt lat="41.170735" lon="9.217285"><ele>99.0</ele><time>2026-04-30T09:08:36.737Z</time></trkpt><trkpt lat="41.1706894" lon="9.2171453"><ele>99.0</ele><time>2026-04-30T09:08:37.735Z</time></trkpt><trkpt lat="41.1706508" lon="9.2170162"><ele>99.0</ele><time>2026-04-30T09:08:38.736Z</time></trkpt><trkpt lat="41.1706217" lon="9.2169049"><ele>99.0</ele><time>2026-04-30T09:08:39.737Z</time></trkpt><trkpt lat="41.1706006" lon="9.2168123"><ele>99.0</ele><time>2026-04-30T09:08:40.74Z</time></trkpt><trkpt lat="41.1705921" lon="9.2167273"><ele>99.0</ele><time>2026-04-30T09:08:41.739Z</time></trkpt><trkpt lat="41.1705914" lon="9.216582"><ele>99.0</ele><time>2026-04-30T09:08:43.738Z</time></trkpt><trkpt lat="41.1706166" lon="9.2164501"><ele>98.80000000000001</ele><time>2026-04-30T09:08:45.74Z</time></trkpt><trkpt lat="41.170636" lon="9.2163595"><ele>98.60000000000001</ele><time>2026-04-30T09:08:46.737Z</time></trkpt><trkpt lat="41.1706586" lon="9.2162461"><ele>98.4</ele><time>2026-04-30T09:08:47.739Z</time></trkpt><trkpt lat="41.1706815" lon="9.2161123"><ele>98.2</ele><time>2026-04-30T09:08:48.74Z</time></trkpt><trkpt lat="41.1707066" lon="9.2159668"><ele>98.0</ele><time>2026-04-30T09:08:49.739Z</time></trkpt><trkpt lat="41.17073" lon="9.2158069"><ele>97.75</ele><time>2026-04-30T09:08:50.737Z</time></trkpt><trkpt lat="41.1707555" lon="9.2156367"><ele>97.5</ele><time>2026-04-30T09:08:51.738Z</time></trkpt><trkpt lat="41.170782" lon="9.2154653"><ele>97.25</ele><time>2026-04-30T09:08:52.739Z</time></trkpt><trkpt lat="41.1708087" lon="9.215305"><ele>97.0</ele><time>2026-04-30T09:08:53.74Z</time></trkpt><trkpt lat="41.1708344" lon="9.2151482"><ele>97.0</ele><time>2026-04-30T09:08:54.738Z</time></trkpt><trkpt lat="41.1708614" lon="9.2149924"><ele>97.0</ele><time>2026-04-30T09:08:55.739Z</time></trkpt><trkpt lat="41.1708914" lon="9.2148327"><ele>97.0</ele><time>2026-04-30T09:08:56.738Z</time></trkpt><trkpt lat="41.1709294" lon="9.2146661"><ele>97.0</ele><time>2026-04-30T09:08:57.736Z</time></trkpt><trkpt lat="41.1709693" lon="9.2144831"><ele>97.0</ele><time>2026-04-30T09:08:58.737Z</time></trkpt><trkpt lat="41.1710068" lon="9.2142884"><ele>97.0</ele><time>2026-04-30T09:08:59.741Z</time></trkpt><trkpt lat="41.1710443" lon="9.2140949"><ele>97.0</ele><time>2026-04-30T09:09:00.739Z</time></trkpt><trkpt lat="41.1710858" lon="9.2139113"><ele>97.0</ele><time>2026-04-30T09:09:01.736Z</time></trkpt><trkpt lat="41.1711233" lon="9.2137487"><ele>96.8</ele><time>2026-04-30T09:09:02.736Z</time></trkpt><trkpt lat="41.171162" lon="9.2136071"><ele>96.6</ele><time>2026-04-30T09:09:03.739Z</time></trkpt><trkpt lat="41.1712152" lon="9.2134866"><ele>96.39999999999999</ele><time>2026-04-30T09:09:04.736Z</time></trkpt><trkpt lat="41.1712869" lon="9.2133981"><ele>96.19999999999999</ele><time>2026-04-30T09:09:05.735Z</time></trkpt><trkpt lat="41.1713743" lon="9.213343"><ele>96.0</ele><time>2026-04-30T09:09:06.737Z</time></trkpt><trkpt lat="41.171474" lon="9.2133068"><ele>95.6</ele><time>2026-04-30T09:09:07.736Z</time></trkpt><trkpt lat="41.1715727" lon="9.21328"><ele>95.19999999999999</ele><time>2026-04-30T09:09:08.737Z</time></trkpt><trkpt lat="41.1716598" lon="9.213238"><ele>94.80000000000001</ele><time>2026-04-30T09:09:09.737Z</time></trkpt><trkpt lat="41.1717329" lon="9.2131731"><ele>94.4</ele><time>2026-04-30T09:09:10.738Z</time></trkpt><trkpt lat="41.1717883" lon="9.2130802"><ele>94.0</ele><time>2026-04-30T09:09:11.736Z</time></trkpt><trkpt lat="41.1718302" lon="9.2129602"><ele>94.0</ele><time>2026-04-30T09:09:12.736Z</time></trkpt><trkpt lat="41.1718606" lon="9.2128267"><ele>94.0</ele><time>2026-04-30T09:09:13.74Z</time></trkpt><trkpt lat="41.1718909" lon="9.2126823"><ele>94.0</ele><time>2026-04-30T09:09:14.738Z</time></trkpt><trkpt lat="41.1719161" lon="9.2125297"><ele>94.0</ele><time>2026-04-30T09:09:15.737Z</time></trkpt><trkpt lat="41.1719281" lon="9.2123685"><ele>93.75</ele><time>2026-04-30T09:09:16.736Z</time></trkpt><trkpt lat="41.1719275" lon="9.212196"><ele>93.5</ele><time>2026-04-30T09:09:17.735Z</time></trkpt><trkpt lat="41.1719227" lon="9.2120166"><ele>93.25</ele><time>2026-04-30T09:09:18.736Z</time></trkpt><trkpt lat="41.1719114" lon="9.2118425"><ele>93.0</ele><time>2026-04-30T09:09:19.736Z</time></trkpt><trkpt lat="41.171903" lon="9.2116828"><ele>93.0</ele><time>2026-04-30T09:09:20.74Z</time></trkpt><trkpt lat="41.1718937" lon="9.2115329"><ele>93.0</ele><time>2026-04-30T09:09:21.736Z</time></trkpt><trkpt lat="41.1718845" lon="9.2114009"><ele>93.0</ele><time>2026-04-30T09:09:22.738Z</time></trkpt><trkpt lat="41.1718759" lon="9.2112824"><ele>93.0</ele><time>2026-04-30T09:09:23.736Z</time></trkpt><trkpt lat="41.1718674" lon="9.2111732"><ele>93.0</ele><time>2026-04-30T09:09:24.737Z</time></trkpt><trkpt lat="41.1718611" lon="9.2110682"><ele>93.0</ele><time>2026-04-30T09:09:25.736Z</time></trkpt><trkpt lat="41.1718545" lon="9.2109204"><ele>93.0</ele><time>2026-04-30T09:09:27.736Z</time></trkpt><trkpt lat="41.1718607" lon="9.2107646"><ele>93.0</ele><time>2026-04-30T09:09:29.737Z</time></trkpt><trkpt lat="41.1718667" lon="9.2106575"><ele>93.0</ele><time>2026-04-30T09:09:30.737Z</time></trkpt><trkpt lat="41.1718707" lon="9.2105399"><ele>93.0</ele><time>2026-04-30T09:09:31.74Z</time></trkpt><trkpt lat="41.1718703" lon="9.2104193"><ele>93.0</ele><time>2026-04-30T09:09:32.737Z</time></trkpt><trkpt lat="41.1718678" lon="9.2103021"><ele>93.0</ele><time>2026-04-30T09:09:33.74Z</time></trkpt><trkpt lat="41.1718638" lon="9.2101929"><ele>93.0</ele><time>2026-04-30T09:09:34.738Z</time></trkpt><trkpt lat="41.1718605" lon="9.21009"><ele>93.0</ele><time>2026-04-30T09:09:35.736Z</time></trkpt><trkpt lat="41.1718579" lon="9.2099996"><ele>93.0</ele><time>2026-04-30T09:09:36.738Z</time></trkpt><trkpt lat="41.1718534" lon="9.2099108"><ele>93.0</ele><time>2026-04-30T09:09:37.739Z</time></trkpt><trkpt lat="41.1718487" lon="9.2098109"><ele>93.0</ele><time>2026-04-30T09:09:38.739Z</time></trkpt><trkpt lat="41.1718448" lon="9.2097046"><ele>93.0</ele><time>2026-04-30T09:09:39.74Z</time></trkpt><trkpt lat="41.1718406" lon="9.2095935"><ele>93.0</ele><time>2026-04-30T09:09:40.74Z</time></trkpt><trkpt lat="41.1718368" lon="9.2094747"><ele>93.0</ele><time>2026-04-30T09:09:41.737Z</time></trkpt><trkpt lat="41.1718368" lon="9.2093415"><ele>93.0</ele><time>2026-04-30T09:09:42.737Z</time></trkpt><trkpt lat="41.1718392" lon="9.2091999"><ele>93.0</ele><time>2026-04-30T09:09:43.736Z</time></trkpt><trkpt lat="41.1718451" lon="9.2090501"><ele>93.0</ele><time>2026-04-30T09:09:44.739Z</time></trkpt><trkpt lat="41.1718576" lon="9.2088957"><ele>93.0</ele><time>2026-04-30T09:09:45.736Z</time></trkpt><trkpt lat="41.1718778" lon="9.2087418"><ele>93.0</ele><time>2026-04-30T09:09:46.738Z</time></trkpt><trkpt lat="41.1719092" lon="9.2085995"><ele>92.83333333333333</ele><time>2026-04-30T09:09:47.74Z</time></trkpt><trkpt lat="41.1719497" lon="9.2084665"><ele>92.66666666666667</ele><time>2026-04-30T09:09:48.737Z</time></trkpt><trkpt lat="41.1719891" lon="9.208349"><ele>92.5</ele><time>2026-04-30T09:09:49.737Z</time></trkpt><trkpt lat="41.1720261" lon="9.2082437"><ele>92.33333333333334</ele><time>2026-04-30T09:09:50.738Z</time></trkpt><trkpt lat="41.1720668" lon="9.2081496"><ele>92.16666666666667</ele><time>2026-04-30T09:09:51.739Z</time></trkpt><trkpt lat="41.1721076" lon="9.2080656"><ele>92.0</ele><time>2026-04-30T09:09:52.737Z</time></trkpt><trkpt lat="41.1721429" lon="9.2079897"><ele>92.0</ele><time>2026-04-30T09:09:53.738Z</time></trkpt><trkpt lat="41.1721755" lon="9.2078386"><ele>92.0</ele><time>2026-04-30T09:09:55.739Z</time></trkpt><trkpt lat="41.1721689" lon="9.2077511"><ele>92.0</ele><time>2026-04-30T09:09:56.738Z</time></trkpt><trkpt lat="41.172144" lon="9.2076616"><ele>92.0</ele><time>2026-04-30T09:09:57.738Z</time></trkpt><trkpt lat="41.1721009" lon="9.2075713"><ele>92.0</ele><time>2026-04-30T09:09:58.737Z</time></trkpt><trkpt lat="41.1720504" lon="9.2074717"><ele>92.0</ele><time>2026-04-30T09:09:59.739Z</time></trkpt><trkpt lat="41.1720062" lon="9.2073484"><ele>92.5</ele><time>2026-04-30T09:10:00.736Z</time></trkpt><trkpt lat="41.1719781" lon="9.2072058"><ele>93.0</ele><time>2026-04-30T09:10:01.737Z</time></trkpt><trkpt lat="41.1719552" lon="9.2070349"><ele>93.5</ele><time>2026-04-30T09:10:02.736Z</time></trkpt><trkpt lat="41.1719328" lon="9.2068705"><ele>94.0</ele><time>2026-04-30T09:10:03.739Z</time></trkpt><trkpt lat="41.1719289" lon="9.2067244"><ele>94.0</ele><time>2026-04-30T09:10:04.736Z</time></trkpt><trkpt lat="41.1719456" lon="9.2065757"><ele>94.0</ele><time>2026-04-30T09:10:05.736Z</time></trkpt><trkpt lat="41.1719832" lon="9.2064282"><ele>94.0</ele><time>2026-04-30T09:10:06.737Z</time></trkpt><trkpt lat="41.1720315" lon="9.2062789"><ele>94.0</ele><time>2026-04-30T09:10:07.737Z</time></trkpt><trkpt lat="41.172078" lon="9.2061216"><ele>94.75</ele><time>2026-04-30T09:10:08.736Z</time></trkpt><trkpt lat="41.1721189" lon="9.205959"><ele>95.5</ele><time>2026-04-30T09:10:09.738Z</time></trkpt><trkpt lat="41.1721461" lon="9.2057979"><ele>96.25</ele><time>2026-04-30T09:10:10.739Z</time></trkpt><trkpt lat="41.172163" lon="9.2056463"><ele>97.0</ele><time>2026-04-30T09:10:11.742Z</time></trkpt><trkpt lat="41.1721832" lon="9.205508"><ele>97.33333333333334</ele><time>2026-04-30T09:10:12.736Z</time></trkpt><trkpt lat="41.1722248" lon="9.2054013"><ele>97.66666666666667</ele><time>2026-04-30T09:10:13.736Z</time></trkpt><trkpt lat="41.1722671" lon="9.2053111"><ele>98.0</ele><time>2026-04-30T09:10:14.737Z</time></trkpt><trkpt lat="41.1723028" lon="9.2052223"><ele>98.33333333333334</ele><time>2026-04-30T09:10:15.737Z</time></trkpt><trkpt lat="41.1723268" lon="9.2051373"><ele>98.66666666666667</ele><time>2026-04-30T09:10:16.738Z</time></trkpt><trkpt lat="41.1723313" lon="9.205053"><ele>99.0</ele><time>2026-04-30T09:10:17.738Z</time></trkpt><trkpt lat="41.1722764" lon="9.2049148"><ele>99.0</ele><time>2026-04-30T09:10:19.738Z</time></trkpt><trkpt lat="41.1722165" lon="9.2048471"><ele>99.0</ele><time>2026-04-30T09:10:20.739Z</time></trkpt><trkpt lat="41.172136" lon="9.2047682"><ele>99.0</ele><time>2026-04-30T09:10:21.737Z</time></trkpt><trkpt lat="41.1720409" lon="9.2047009"><ele>99.0</ele><time>2026-04-30T09:10:22.736Z</time></trkpt><trkpt lat="41.17195" lon="9.2046462"><ele>99.0</ele><time>2026-04-30T09:10:23.737Z</time></trkpt><trkpt lat="41.1718676" lon="9.2045879"><ele>100.6</ele><time>2026-04-30T09:10:24.739Z</time></trkpt><trkpt lat="41.1717927" lon="9.2045207"><ele>102.2</ele><time>2026-04-30T09:10:25.737Z</time></trkpt><trkpt lat="41.171726" lon="9.2044369"><ele>103.79999999999998</ele><time>2026-04-30T09:10:26.738Z</time></trkpt><trkpt lat="41.1716685" lon="9.2043335"><ele>105.39999999999999</ele><time>2026-04-30T09:10:27.736Z</time></trkpt><trkpt lat="41.1716251" lon="9.2042121"><ele>107.0</ele><time>2026-04-30T09:10:28.737Z</time></trkpt><trkpt lat="41.1715896" lon="9.2040754"><ele>107.8</ele><time>2026-04-30T09:10:29.737Z</time></trkpt><trkpt lat="41.1715592" lon="9.2039499"><ele>108.6</ele><time>2026-04-30T09:10:30.735Z</time></trkpt><trkpt lat="41.1715274" lon="9.2038217"><ele>109.39999999999999</ele><time>2026-04-30T09:10:31.738Z</time></trkpt><trkpt lat="41.1715113" lon="9.2036839"><ele>110.19999999999999</ele><time>2026-04-30T09:10:32.737Z</time></trkpt><trkpt lat="41.1714796" lon="9.203549"><ele>111.0</ele><time>2026-04-30T09:10:33.738Z</time></trkpt><trkpt lat="41.1714444" lon="9.2034282"><ele>108.0</ele><time>2026-04-30T09:10:34.736Z</time></trkpt><trkpt lat="41.1714113" lon="9.2033109"><ele>105.0</ele><time>2026-04-30T09:10:35.736Z</time></trkpt><trkpt lat="41.1713698" lon="9.203198"><ele>102.0</ele><time>2026-04-30T09:10:36.738Z</time></trkpt><trkpt lat="41.1713224" lon="9.2030837"><ele>99.0</ele><time>2026-04-30T09:10:37.738Z</time></trkpt><trkpt lat="41.1712729" lon="9.202963"><ele>96.0</ele><time>2026-04-30T09:10:38.738Z</time></trkpt><trkpt lat="41.1712246" lon="9.2028463"><ele>96.0</ele><time>2026-04-30T09:10:39.735Z</time></trkpt><trkpt lat="41.1711814" lon="9.202723"><ele>96.0</ele><time>2026-04-30T09:10:40.735Z</time></trkpt><trkpt lat="41.1711434" lon="9.2025898"><ele>96.0</ele><time>2026-04-30T09:10:41.736Z</time></trkpt><trkpt lat="41.1711125" lon="9.2024537"><ele>96.0</ele><time>2026-04-30T09:10:42.738Z</time></trkpt><trkpt lat="41.1710812" lon="9.2023124"><ele>96.0</ele><time>2026-04-30T09:10:43.738Z</time></trkpt><trkpt lat="41.171053" lon="9.2021822"><ele>96.6</ele><time>2026-04-30T09:10:44.736Z</time></trkpt><trkpt lat="41.1710281" lon="9.2020428"><ele>97.19999999999999</ele><time>2026-04-30T09:10:45.737Z</time></trkpt><trkpt lat="41.170983" lon="9.2019093"><ele>97.80000000000001</ele><time>2026-04-30T09:10:46.737Z</time></trkpt><trkpt lat="41.17094" lon="9.2017868"><ele>98.4</ele><time>2026-04-30T09:10:47.735Z</time></trkpt><trkpt lat="41.1708989" lon="9.2016856"><ele>99.0</ele><time>2026-04-30T09:10:48.738Z</time></trkpt><trkpt lat="41.1708588" lon="9.201592"><ele>99.0</ele><time>2026-04-30T09:10:49.738Z</time></trkpt><trkpt lat="41.1708219" lon="9.2015055"><ele>99.0</ele><time>2026-04-30T09:10:50.737Z</time></trkpt><trkpt lat="41.1707796" lon="9.2014231"><ele>99.0</ele><time>2026-04-30T09:10:51.738Z</time></trkpt><trkpt lat="41.1707441" lon="9.2013501"><ele>99.0</ele><time>2026-04-30T09:10:52.737Z</time></trkpt><trkpt lat="41.1706733" lon="9.2012124"><ele>99.0</ele><time>2026-04-30T09:10:54.737Z</time></trkpt><trkpt lat="41.1706367" lon="9.2011398"><ele>99.0</ele><time>2026-04-30T09:10:55.736Z</time></trkpt><trkpt lat="41.1705977" lon="9.2010565"><ele>97.16666666666667</ele><time>2026-04-30T09:10:56.736Z</time></trkpt><trkpt lat="41.1705535" lon="9.2009758"><ele>95.33333333333333</ele><time>2026-04-30T09:10:57.738Z</time></trkpt><trkpt lat="41.1705161" lon="9.2008941"><ele>93.5</ele><time>2026-04-30T09:10:58.737Z</time></trkpt><trkpt lat="41.17048" lon="9.2008045"><ele>91.66666666666666</ele><time>2026-04-30T09:10:59.737Z</time></trkpt><trkpt lat="41.1704368" lon="9.2007186"><ele>89.83333333333333</ele><time>2026-04-30T09:11:00.739Z</time></trkpt><trkpt lat="41.1703973" lon="9.2006354"><ele>88.0</ele><time>2026-04-30T09:11:01.738Z</time></trkpt><trkpt lat="41.1703479" lon="9.2005395"><ele>88.0</ele><time>2026-04-30T09:11:02.737Z</time></trkpt><trkpt lat="41.170306" lon="9.2004409"><ele>88.0</ele><time>2026-04-30T09:11:03.738Z</time></trkpt><trkpt lat="41.1702603" lon="9.2003526"><ele>88.0</ele><time>2026-04-30T09:11:04.737Z</time></trkpt><trkpt lat="41.1702224" lon="9.2002687"><ele>88.0</ele><time>2026-04-30T09:11:05.737Z</time></trkpt><trkpt lat="41.1701844" lon="9.2001779"><ele>88.0</ele><time>2026-04-30T09:11:06.736Z</time></trkpt><trkpt lat="41.170143" lon="9.2000741"><ele>88.0</ele><time>2026-04-30T09:11:07.735Z</time></trkpt><trkpt lat="41.1701045" lon="9.1999567"><ele>87.75</ele><time>2026-04-30T09:11:08.736Z</time></trkpt><trkpt lat="41.1700667" lon="9.1998196"><ele>87.5</ele><time>2026-04-30T09:11:09.737Z</time></trkpt><trkpt lat="41.1700261" lon="9.1996651"><ele>87.25</ele><time>2026-04-30T09:11:10.738Z</time></trkpt><trkpt lat="41.1699835" lon="9.199511"><ele>87.0</ele><time>2026-04-30T09:11:11.74Z</time></trkpt><trkpt lat="41.1699402" lon="9.1993576"><ele>87.0</ele><time>2026-04-30T09:11:12.737Z</time></trkpt><trkpt lat="41.1699014" lon="9.1992002"><ele>87.0</ele><time>2026-04-30T09:11:13.74Z</time></trkpt><trkpt lat="41.1698605" lon="9.1990353"><ele>87.0</ele><time>2026-04-30T09:11:14.739Z</time></trkpt><trkpt lat="41.1698238" lon="9.1988821"><ele>87.0</ele><time>2026-04-30T09:11:15.739Z</time></trkpt><trkpt lat="41.1697903" lon="9.1987261"><ele>84.25</ele><time>2026-04-30T09:11:16.737Z</time></trkpt><trkpt lat="41.1697515" lon="9.1985748"><ele>81.5</ele><time>2026-04-30T09:11:17.737Z</time></trkpt><trkpt lat="41.1697213" lon="9.1984155"><ele>78.75</ele><time>2026-04-30T09:11:18.736Z</time></trkpt><trkpt lat="41.1697013" lon="9.1982611"><ele>76.0</ele><time>2026-04-30T09:11:19.737Z</time></trkpt><trkpt lat="41.1696922" lon="9.198116"><ele>75.6</ele><time>2026-04-30T09:11:20.736Z</time></trkpt><trkpt lat="41.1696862" lon="9.1979776"><ele>75.19999999999999</ele><time>2026-04-30T09:11:21.739Z</time></trkpt><trkpt lat="41.1696835" lon="9.1978444"><ele>74.80000000000001</ele><time>2026-04-30T09:11:22.735Z</time></trkpt><trkpt lat="41.1696856" lon="9.1977053"><ele>74.4</ele><time>2026-04-30T09:11:23.737Z</time></trkpt><trkpt lat="41.1696945" lon="9.1975559"><ele>74.0</ele><time>2026-04-30T09:11:24.74Z</time></trkpt><trkpt lat="41.1697126" lon="9.197401"><ele>73.60000000000001</ele><time>2026-04-30T09:11:25.739Z</time></trkpt><trkpt lat="41.1697329" lon="9.1972475"><ele>73.2</ele><time>2026-04-30T09:11:26.736Z</time></trkpt><trkpt lat="41.1697528" lon="9.1971038"><ele>72.80000000000001</ele><time>2026-04-30T09:11:27.735Z</time></trkpt><trkpt lat="41.1697741" lon="9.1969655"><ele>72.4</ele><time>2026-04-30T09:11:28.735Z</time></trkpt><trkpt lat="41.1697958" lon="9.1968321"><ele>72.0</ele><time>2026-04-30T09:11:29.735Z</time></trkpt><trkpt lat="41.1698115" lon="9.1966954"><ele>72.0</ele><time>2026-04-30T09:11:30.737Z</time></trkpt><trkpt lat="41.1698165" lon="9.1965471"><ele>72.0</ele><time>2026-04-30T09:11:31.736Z</time></trkpt><trkpt lat="41.1698089" lon="9.1963888"><ele>72.0</ele><time>2026-04-30T09:11:32.737Z</time></trkpt><trkpt lat="41.1697909" lon="9.1962233"><ele>72.0</ele><time>2026-04-30T09:11:33.737Z</time></trkpt><trkpt lat="41.1697676" lon="9.1960549"><ele>71.5</ele><time>2026-04-30T09:11:34.735Z</time></trkpt><trkpt lat="41.1697446" lon="9.1958945"><ele>71.0</ele><time>2026-04-30T09:11:35.737Z</time></trkpt><trkpt lat="41.1697236" lon="9.1957211"><ele>70.5</ele><time>2026-04-30T09:11:36.737Z</time></trkpt><trkpt lat="41.1697064" lon="9.1955414"><ele>70.0</ele><time>2026-04-30T09:11:37.738Z</time></trkpt><trkpt lat="41.1696949" lon="9.1953539"><ele>69.33333333333333</ele><time>2026-04-30T09:11:38.737Z</time></trkpt><trkpt lat="41.1696916" lon="9.1951605"><ele>68.66666666666667</ele><time>2026-04-30T09:11:39.739Z</time></trkpt><trkpt lat="41.1696935" lon="9.19496"><ele>68.0</ele><time>2026-04-30T09:11:40.733Z</time></trkpt><trkpt lat="41.1696938" lon="9.1947529"><ele>66.66666666666667</ele><time>2026-04-30T09:11:41.738Z</time></trkpt><trkpt lat="41.1696923" lon="9.1945399"><ele>65.33333333333333</ele><time>2026-04-30T09:11:42.738Z</time></trkpt><trkpt lat="41.1696899" lon="9.1943219"><ele>64.0</ele><time>2026-04-30T09:11:43.738Z</time></trkpt><trkpt lat="41.1696872" lon="9.1941064"><ele>64.0</ele><time>2026-04-30T09:11:44.737Z</time></trkpt><trkpt lat="41.1696853" lon="9.193902"><ele>64.0</ele><time>2026-04-30T09:11:45.738Z</time></trkpt><trkpt lat="41.169685" lon="9.1937061"><ele>64.0</ele><time>2026-04-30T09:11:46.735Z</time></trkpt><trkpt lat="41.1696906" lon="9.1935213"><ele>64.0</ele><time>2026-04-30T09:11:47.735Z</time></trkpt><trkpt lat="41.1697042" lon="9.193345"><ele>64.0</ele><time>2026-04-30T09:11:48.737Z</time></trkpt><trkpt lat="41.1697179" lon="9.1931711"><ele>64.0</ele><time>2026-04-30T09:11:49.737Z</time></trkpt><trkpt lat="41.1697198" lon="9.192991"><ele>64.0</ele><time>2026-04-30T09:11:50.738Z</time></trkpt><trkpt lat="41.1697094" lon="9.1928109"><ele>64.0</ele><time>2026-04-30T09:11:51.737Z</time></trkpt><trkpt lat="41.1696989" lon="9.1926262"><ele>64.0</ele><time>2026-04-30T09:11:52.733Z</time></trkpt><trkpt lat="41.1696985" lon="9.1924379"><ele>64.0</ele><time>2026-04-30T09:11:53.736Z</time></trkpt><trkpt lat="41.1697002" lon="9.1922641"><ele>64.0</ele><time>2026-04-30T09:11:54.738Z</time></trkpt><trkpt lat="41.1696966" lon="9.1921212"><ele>64.0</ele><time>2026-04-30T09:11:55.738Z</time></trkpt><trkpt lat="41.1696767" lon="9.1919985"><ele>63.800000000000004</ele><time>2026-04-30T09:11:56.74Z</time></trkpt><trkpt lat="41.169638" lon="9.1918901"><ele>63.60000000000001</ele><time>2026-04-30T09:11:57.736Z</time></trkpt><trkpt lat="41.1695825" lon="9.1917852"><ele>63.4</ele><time>2026-04-30T09:11:58.734Z</time></trkpt><trkpt lat="41.1695093" lon="9.1916932"><ele>63.2</ele><time>2026-04-30T09:11:59.737Z</time></trkpt><trkpt lat="41.1694224" lon="9.191616"><ele>63.0</ele><time>2026-04-30T09:12:00.736Z</time></trkpt><trkpt lat="41.1693313" lon="9.1915563"><ele>62.4</ele><time>2026-04-30T09:12:01.735Z</time></trkpt><trkpt lat="41.1692449" lon="9.1914994"><ele>61.8</ele><time>2026-04-30T09:12:02.736Z</time></trkpt><trkpt lat="41.1691574" lon="9.191425"><ele>61.2</ele><time>2026-04-30T09:12:03.735Z</time></trkpt><trkpt lat="41.1690827" lon="9.191336"><ele>60.6</ele><time>2026-04-30T09:12:04.735Z</time></trkpt><trkpt lat="41.16902" lon="9.1912305"><ele>60.0</ele><time>2026-04-30T09:12:05.735Z</time></trkpt><trkpt lat="41.1689642" lon="9.1911209"><ele>59.4</ele><time>2026-04-30T09:12:06.741Z</time></trkpt><trkpt lat="41.1688997" lon="9.1910333"><ele>58.8</ele><time>2026-04-30T09:12:07.737Z</time></trkpt><trkpt lat="41.1688135" lon="9.1909801"><ele>58.2</ele><time>2026-04-30T09:12:08.737Z</time></trkpt><trkpt lat="41.1687222" lon="9.1909474"><ele>57.6</ele><time>2026-04-30T09:12:09.737Z</time></trkpt><trkpt lat="41.1686328" lon="9.1909067"><ele>57.0</ele><time>2026-04-30T09:12:10.735Z</time></trkpt><trkpt lat="41.168542" lon="9.1908565"><ele>57.0</ele><time>2026-04-30T09:12:11.737Z</time></trkpt><trkpt lat="41.1684569" lon="9.1908174"><ele>57.0</ele><time>2026-04-30T09:12:12.74Z</time></trkpt><trkpt lat="41.1683754" lon="9.1907842"><ele>57.0</ele><time>2026-04-30T09:12:13.735Z</time></trkpt><trkpt lat="41.1682935" lon="9.190754"><ele>57.0</ele><time>2026-04-30T09:12:14.737Z</time></trkpt><trkpt lat="41.168211" lon="9.1907245"><ele>57.0</ele><time>2026-04-30T09:12:15.736Z</time></trkpt><trkpt lat="41.1681339" lon="9.1906781"><ele>57.0</ele><time>2026-04-30T09:12:16.736Z</time></trkpt><trkpt lat="41.1680595" lon="9.1906077"><ele>59.333333333333336</ele><time>2026-04-30T09:12:17.736Z</time></trkpt><trkpt lat="41.1679862" lon="9.1905284"><ele>61.66666666666667</ele><time>2026-04-30T09:12:18.736Z</time></trkpt><trkpt lat="41.1679127" lon="9.1904503"><ele>64.0</ele><time>2026-04-30T09:12:19.737Z</time></trkpt><trkpt lat="41.1678441" lon="9.1903851"><ele>66.33333333333334</ele><time>2026-04-30T09:12:20.737Z</time></trkpt><trkpt lat="41.1677721" lon="9.1903165"><ele>68.66666666666667</ele><time>2026-04-30T09:12:21.736Z</time></trkpt><trkpt lat="41.1677156" lon="9.1902462"><ele>71.0</ele><time>2026-04-30T09:12:22.737Z</time></trkpt><trkpt lat="41.1676444" lon="9.1901749"><ele>71.0</ele><time>2026-04-30T09:12:23.736Z</time></trkpt><trkpt lat="41.1675731" lon="9.1901066"><ele>71.0</ele><time>2026-04-30T09:12:24.735Z</time></trkpt><trkpt lat="41.1675036" lon="9.1900305"><ele>71.0</ele><time>2026-04-30T09:12:25.734Z</time></trkpt><trkpt lat="41.1674308" lon="9.1899474"><ele>71.0</ele><time>2026-04-30T09:12:26.735Z</time></trkpt><trkpt lat="41.1673575" lon="9.1898601"><ele>71.0</ele><time>2026-04-30T09:12:27.734Z</time></trkpt><trkpt lat="41.1672863" lon="9.1897695"><ele>71.6</ele><time>2026-04-30T09:12:28.735Z</time></trkpt><trkpt lat="41.1672295" lon="9.1896688"><ele>72.19999999999999</ele><time>2026-04-30T09:12:29.736Z</time></trkpt><trkpt lat="41.167192" lon="9.1895566"><ele>72.80000000000001</ele><time>2026-04-30T09:12:30.735Z</time></trkpt><trkpt lat="41.1671586" lon="9.1894272"><ele>73.4</ele><time>2026-04-30T09:12:31.734Z</time></trkpt><trkpt lat="41.1671228" lon="9.1892764"><ele>74.0</ele><time>2026-04-30T09:12:32.735Z</time></trkpt><trkpt lat="41.1670843" lon="9.189108"><ele>74.0</ele><time>2026-04-30T09:12:33.732Z</time></trkpt><trkpt lat="41.167049" lon="9.1889318"><ele>74.0</ele><time>2026-04-30T09:12:34.735Z</time></trkpt><trkpt lat="41.1670134" lon="9.1887597"><ele>74.0</ele><time>2026-04-30T09:12:35.738Z</time></trkpt><trkpt lat="41.1669731" lon="9.1886065"><ele>74.0</ele><time>2026-04-30T09:12:36.736Z</time></trkpt><trkpt lat="41.1669218" lon="9.1884726"><ele>74.0</ele><time>2026-04-30T09:12:37.736Z</time></trkpt><trkpt lat="41.1668558" lon="9.1883566"><ele>74.0</ele><time>2026-04-30T09:12:38.735Z</time></trkpt><trkpt lat="41.166781" lon="9.188252"><ele>74.0</ele><time>2026-04-30T09:12:39.737Z</time></trkpt><trkpt lat="41.1667111" lon="9.1881394"><ele>74.0</ele><time>2026-04-30T09:12:40.737Z</time></trkpt><trkpt lat="41.1666409" lon="9.1880147"><ele>74.0</ele><time>2026-04-30T09:12:41.737Z</time></trkpt><trkpt lat="41.1665572" lon="9.1878864"><ele>76.0</ele><time>2026-04-30T09:12:42.735Z</time></trkpt><trkpt lat="41.1664642" lon="9.1877575"><ele>78.0</ele><time>2026-04-30T09:12:43.735Z</time></trkpt><trkpt lat="41.1663676" lon="9.1876264"><ele>80.0</ele><time>2026-04-30T09:12:44.735Z</time></trkpt><trkpt lat="41.1662812" lon="9.1875074"><ele>82.0</ele><time>2026-04-30T09:12:45.735Z</time></trkpt><trkpt lat="41.1662046" lon="9.1873951"><ele>81.19999999999999</ele><time>2026-04-30T09:12:46.735Z</time></trkpt><trkpt lat="41.1661392" lon="9.1872756"><ele>80.39999999999999</ele><time>2026-04-30T09:12:47.737Z</time></trkpt><trkpt lat="41.1660824" lon="9.1871578"><ele>79.6</ele><time>2026-04-30T09:12:48.735Z</time></trkpt><trkpt lat="41.1660329" lon="9.1870243"><ele>78.8</ele><time>2026-04-30T09:12:49.736Z</time></trkpt><trkpt lat="41.1659873" lon="9.1868813"><ele>78.0</ele><time>2026-04-30T09:12:50.735Z</time></trkpt><trkpt lat="41.1659428" lon="9.1867385"><ele>78.0</ele><time>2026-04-30T09:12:51.735Z</time></trkpt><trkpt lat="41.165899" lon="9.1865987"><ele>78.0</ele><time>2026-04-30T09:12:52.736Z</time></trkpt><trkpt lat="41.1658564" lon="9.1864652"><ele>78.0</ele><time>2026-04-30T09:12:53.737Z</time></trkpt><trkpt lat="41.1658197" lon="9.1863376"><ele>78.0</ele><time>2026-04-30T09:12:54.737Z</time></trkpt><trkpt lat="41.1657966" lon="9.1862101"><ele>78.0</ele><time>2026-04-30T09:12:55.738Z</time></trkpt><trkpt lat="41.1657925" lon="9.1860819"><ele>77.2</ele><time>2026-04-30T09:12:56.736Z</time></trkpt><trkpt lat="41.1658046" lon="9.1859532"><ele>76.4</ele><time>2026-04-30T09:12:57.735Z</time></trkpt><trkpt lat="41.1658267" lon="9.1858238"><ele>75.60000000000001</ele><time>2026-04-30T09:12:58.735Z</time></trkpt><trkpt lat="41.1658581" lon="9.1856912"><ele>74.8</ele><time>2026-04-30T09:12:59.736Z</time></trkpt><trkpt lat="41.1658891" lon="9.1855639"><ele>74.0</ele><time>2026-04-30T09:13:00.737Z</time></trkpt><trkpt lat="41.1659193" lon="9.1854502"><ele>73.0</ele><time>2026-04-30T09:13:01.742Z</time></trkpt><trkpt lat="41.1659487" lon="9.1853463"><ele>72.0</ele><time>2026-04-30T09:13:02.735Z</time></trkpt><trkpt lat="41.1659703" lon="9.1852562"><ele>71.0</ele><time>2026-04-30T09:13:03.734Z</time></trkpt><trkpt lat="41.1659519" lon="9.1851114"><ele>70.0</ele><time>2026-04-30T09:13:05.735Z</time></trkpt><trkpt lat="41.1658723" lon="9.1850321"><ele>69.0</ele><time>2026-04-30T09:13:07.737Z</time></trkpt><trkpt lat="41.165747" lon="9.1849767"><ele>69.5</ele><time>2026-04-30T09:13:09.741Z</time></trkpt><trkpt lat="41.1656708" lon="9.1849504"><ele>70.0</ele><time>2026-04-30T09:13:10.735Z</time></trkpt><trkpt lat="41.1655916" lon="9.1849203"><ele>70.5</ele><time>2026-04-30T09:13:11.736Z</time></trkpt><trkpt lat="41.1655121" lon="9.1848863"><ele>71.0</ele><time>2026-04-30T09:13:12.739Z</time></trkpt><trkpt lat="41.1654285" lon="9.184841"><ele>71.5</ele><time>2026-04-30T09:13:13.736Z</time></trkpt><trkpt lat="41.1653349" lon="9.1847898"><ele>72.0</ele><time>2026-04-30T09:13:14.737Z</time></trkpt><trkpt lat="41.1652342" lon="9.1847269"><ele>72.0</ele><time>2026-04-30T09:13:15.736Z</time></trkpt><trkpt lat="41.1651259" lon="9.1846574"><ele>72.0</ele><time>2026-04-30T09:13:16.735Z</time></trkpt><trkpt lat="41.1650144" lon="9.1845762"><ele>72.0</ele><time>2026-04-30T09:13:17.742Z</time></trkpt><trkpt lat="41.1648968" lon="9.1844888"><ele>72.0</ele><time>2026-04-30T09:13:18.735Z</time></trkpt><trkpt lat="41.1647947" lon="9.1844098"><ele>72.6</ele><time>2026-04-30T09:13:19.735Z</time></trkpt><trkpt lat="41.1646997" lon="9.1843371"><ele>73.2</ele><time>2026-04-30T09:13:20.734Z</time></trkpt><trkpt lat="41.1646098" lon="9.1842675"><ele>73.8</ele><time>2026-04-30T09:13:21.736Z</time></trkpt><trkpt lat="41.164525" lon="9.1842057"><ele>74.4</ele><time>2026-04-30T09:13:22.734Z</time></trkpt><trkpt lat="41.1644529" lon="9.1841599"><ele>75.0</ele><time>2026-04-30T09:13:23.735Z</time></trkpt><trkpt lat="41.1643865" lon="9.1841197"><ele>75.0</ele><time>2026-04-30T09:13:24.735Z</time></trkpt><trkpt lat="41.1643267" lon="9.1840735"><ele>75.0</ele><time>2026-04-30T09:13:25.74Z</time></trkpt><trkpt lat="41.1642693" lon="9.1839454"><ele>75.0</ele><time>2026-04-30T09:13:27.736Z</time></trkpt><trkpt lat="41.1642748" lon="9.1837742"><ele>75.0</ele><time>2026-04-30T09:13:29.736Z</time></trkpt><trkpt lat="41.1642976" lon="9.1836611"><ele>75.0</ele><time>2026-04-30T09:13:30.735Z</time></trkpt><trkpt lat="41.164331" lon="9.1835195"><ele>74.75</ele><time>2026-04-30T09:13:31.736Z</time></trkpt><trkpt lat="41.1643679" lon="9.1833479"><ele>74.5</ele><time>2026-04-30T09:13:32.736Z</time></trkpt><trkpt lat="41.1644078" lon="9.1831727"><ele>74.25</ele><time>2026-04-30T09:13:33.736Z</time></trkpt><trkpt lat="41.1644447" lon="9.183008"><ele>74.0</ele><time>2026-04-30T09:13:34.736Z</time></trkpt><trkpt lat="41.1644789" lon="9.1828498"><ele>74.0</ele><time>2026-04-30T09:13:35.736Z</time></trkpt><trkpt lat="41.1645127" lon="9.1827019"><ele>74.0</ele><time>2026-04-30T09:13:36.736Z</time></trkpt><trkpt lat="41.1645443" lon="9.1825641"><ele>74.0</ele><time>2026-04-30T09:13:37.735Z</time></trkpt><trkpt lat="41.164579" lon="9.1824281"><ele>74.0</ele><time>2026-04-30T09:13:38.739Z</time></trkpt><trkpt lat="41.1646129" lon="9.182297"><ele>74.0</ele><time>2026-04-30T09:13:39.735Z</time></trkpt><trkpt lat="41.1646459" lon="9.1821703"><ele>72.8</ele><time>2026-04-30T09:13:40.738Z</time></trkpt><trkpt lat="41.1646763" lon="9.1820507"><ele>71.60000000000001</ele><time>2026-04-30T09:13:41.735Z</time></trkpt><trkpt lat="41.1647035" lon="9.1819398"><ele>70.4</ele><time>2026-04-30T09:13:42.737Z</time></trkpt><trkpt lat="41.1647306" lon="9.1818291"><ele>69.2</ele><time>2026-04-30T09:13:43.737Z</time></trkpt><trkpt lat="41.1647556" lon="9.181717"><ele>68.0</ele><time>2026-04-30T09:13:44.735Z</time></trkpt><trkpt lat="41.1647815" lon="9.1816002"><ele>66.8</ele><time>2026-04-30T09:13:45.74Z</time></trkpt><trkpt lat="41.1648078" lon="9.1814793"><ele>65.6</ele><time>2026-04-30T09:13:46.734Z</time></trkpt><trkpt lat="41.1648398" lon="9.1813539"><ele>64.4</ele><time>2026-04-30T09:13:47.735Z</time></trkpt><trkpt lat="41.1648788" lon="9.1812214"><ele>63.2</ele><time>2026-04-30T09:13:48.734Z</time></trkpt><trkpt lat="41.1649183" lon="9.1810853"><ele>62.0</ele><time>2026-04-30T09:13:49.735Z</time></trkpt><trkpt lat="41.1649557" lon="9.1809519"><ele>61.400000000000006</ele><time>2026-04-30T09:13:50.734Z</time></trkpt><trkpt lat="41.1649914" lon="9.1808216"><ele>60.800000000000004</ele><time>2026-04-30T09:13:51.737Z</time></trkpt><trkpt lat="41.1650253" lon="9.1806948"><ele>60.2</ele><time>2026-04-30T09:13:52.736Z</time></trkpt><trkpt lat="41.165061" lon="9.180567"><ele>59.6</ele><time>2026-04-30T09:13:53.739Z</time></trkpt><trkpt lat="41.1650942" lon="9.1804402"><ele>59.0</ele><time>2026-04-30T09:13:54.735Z</time></trkpt><trkpt lat="41.1651259" lon="9.1803133"><ele>58.6</ele><time>2026-04-30T09:13:55.736Z</time></trkpt><trkpt lat="41.1651579" lon="9.1801894"><ele>58.2</ele><time>2026-04-30T09:13:56.737Z</time></trkpt><trkpt lat="41.1651879" lon="9.1800673"><ele>57.800000000000004</ele><time>2026-04-30T09:13:57.735Z</time></trkpt><trkpt lat="41.1652172" lon="9.1799443"><ele>57.400000000000006</ele><time>2026-04-30T09:13:58.735Z</time></trkpt><trkpt lat="41.1652476" lon="9.1798225"><ele>57.0</ele><time>2026-04-30T09:13:59.737Z</time></trkpt><trkpt lat="41.1652761" lon="9.1797055"><ele>56.833333333333336</ele><time>2026-04-30T09:14:00.736Z</time></trkpt><trkpt lat="41.1653041" lon="9.1795925"><ele>56.66666666666667</ele><time>2026-04-30T09:14:01.733Z</time></trkpt><trkpt lat="41.1653333" lon="9.1794814"><ele>56.5</ele><time>2026-04-30T09:14:02.736Z</time></trkpt><trkpt lat="41.1653621" lon="9.1793751"><ele>56.333333333333336</ele><time>2026-04-30T09:14:03.735Z</time></trkpt><trkpt lat="41.1653907" lon="9.1792646"><ele>56.16666666666667</ele><time>2026-04-30T09:14:04.737Z</time></trkpt><trkpt lat="41.16542" lon="9.1791415"><ele>56.0</ele><time>2026-04-30T09:14:05.739Z</time></trkpt><trkpt lat="41.1654513" lon="9.1790052"><ele>55.5</ele><time>2026-04-30T09:14:06.734Z</time></trkpt><trkpt lat="41.1654824" lon="9.1788603"><ele>55.0</ele><time>2026-04-30T09:14:07.736Z</time></trkpt><trkpt lat="41.1655191" lon="9.1787051"><ele>54.5</ele><time>2026-04-30T09:14:08.735Z</time></trkpt><trkpt lat="41.1655603" lon="9.1785404"><ele>54.0</ele><time>2026-04-30T09:14:09.734Z</time></trkpt><trkpt lat="41.1656049" lon="9.1783755"><ele>54.0</ele><time>2026-04-30T09:14:10.736Z</time></trkpt><trkpt lat="41.1656472" lon="9.1782195"><ele>54.0</ele><time>2026-04-30T09:14:11.735Z</time></trkpt><trkpt lat="41.1656869" lon="9.1780684"><ele>54.0</ele><time>2026-04-30T09:14:12.735Z</time></trkpt><trkpt lat="41.1657261" lon="9.1779235"><ele>54.0</ele><time>2026-04-30T09:14:13.735Z</time></trkpt><trkpt lat="41.1657626" lon="9.1777816"><ele>53.5</ele><time>2026-04-30T09:14:14.736Z</time></trkpt><trkpt lat="41.1657948" lon="9.1776539"><ele>53.0</ele><time>2026-04-30T09:14:15.734Z</time></trkpt><trkpt lat="41.165827" lon="9.1775383"><ele>52.5</ele><time>2026-04-30T09:14:16.738Z</time></trkpt><trkpt lat="41.1658558" lon="9.1774352"><ele>52.0</ele><time>2026-04-30T09:14:17.737Z</time></trkpt><trkpt lat="41.1658775" lon="9.1773485"><ele>51.5</ele><time>2026-04-30T09:14:18.735Z</time></trkpt><trkpt lat="41.1659087" lon="9.1772232"><ele>51.0</ele><time>2026-04-30T09:14:20.736Z</time></trkpt><trkpt lat="41.1659353" lon="9.1771348"><ele>51.0</ele><time>2026-04-30T09:14:23.737Z</time></trkpt><trkpt lat="41.1659666" lon="9.1770324"><ele>51.0</ele><time>2026-04-30T09:14:27.736Z</time></trkpt><trkpt lat="41.1659939" lon="9.1769021"><ele>51.0</ele><time>2026-04-30T09:14:29.734Z</time></trkpt><trkpt lat="41.1660209" lon="9.1768103"><ele>51.0</ele><time>2026-04-30T09:14:30.734Z</time></trkpt><trkpt lat="41.1660573" lon="9.1767098"><ele>51.0</ele><time>2026-04-30T09:14:31.737Z</time></trkpt><trkpt lat="41.1660983" lon="9.1765941"><ele>51.0</ele><time>2026-04-30T09:14:32.736Z</time></trkpt><trkpt lat="41.1661455" lon="9.1764642"><ele>51.0</ele><time>2026-04-30T09:14:33.736Z</time></trkpt><trkpt lat="41.1661989" lon="9.1763215"><ele>51.0</ele><time>2026-04-30T09:14:34.735Z</time></trkpt><trkpt lat="41.1662563" lon="9.1761666"><ele>51.0</ele><time>2026-04-30T09:14:35.736Z</time></trkpt><trkpt lat="41.166312" lon="9.1760134"><ele>51.0</ele><time>2026-04-30T09:14:36.737Z</time></trkpt><trkpt lat="41.1663592" lon="9.1758817"><ele>51.0</ele><time>2026-04-30T09:14:37.737Z</time></trkpt><trkpt lat="41.1664035" lon="9.1757702"><ele>51.0</ele><time>2026-04-30T09:14:38.735Z</time></trkpt><trkpt lat="41.166443" lon="9.1756651"><ele>51.0</ele><time>2026-04-30T09:14:39.736Z</time></trkpt><trkpt lat="41.1664864" lon="9.1755649"><ele>51.0</ele><time>2026-04-30T09:14:40.735Z</time></trkpt><trkpt lat="41.166542" lon="9.1754652"><ele>51.0</ele><time>2026-04-30T09:14:41.735Z</time></trkpt><trkpt lat="41.1666071" lon="9.1753713"><ele>50.0</ele><time>2026-04-30T09:14:42.736Z</time></trkpt><trkpt lat="41.1666763" lon="9.1752829"><ele>49.0</ele><time>2026-04-30T09:14:43.737Z</time></trkpt><trkpt lat="41.1667496" lon="9.1752014"><ele>48.0</ele><time>2026-04-30T09:14:44.736Z</time></trkpt><trkpt lat="41.1668277" lon="9.1751187"><ele>47.0</ele><time>2026-04-30T09:14:45.737Z</time></trkpt><trkpt lat="41.1668975" lon="9.1750353"><ele>46.0</ele><time>2026-04-30T09:14:46.736Z</time></trkpt><trkpt lat="41.1669548" lon="9.1749436"><ele>46.0</ele><time>2026-04-30T09:14:47.735Z</time></trkpt><trkpt lat="41.1670063" lon="9.1748477"><ele>46.0</ele><time>2026-04-30T09:14:48.736Z</time></trkpt><trkpt lat="41.1670531" lon="9.1747492"><ele>46.0</ele><time>2026-04-30T09:14:49.737Z</time></trkpt><trkpt lat="41.1670962" lon="9.1746507"><ele>46.0</ele><time>2026-04-30T09:14:50.735Z</time></trkpt><trkpt lat="41.1671336" lon="9.1745647"><ele>46.0</ele><time>2026-04-30T09:14:51.736Z</time></trkpt><trkpt lat="41.1671677" lon="9.1744905"><ele>46.0</ele><time>2026-04-30T09:14:52.734Z</time></trkpt><trkpt lat="41.1672225" lon="9.1743655"><ele>46.0</ele><time>2026-04-30T09:14:54.735Z</time></trkpt><trkpt lat="41.1672676" lon="9.1742608"><ele>46.0</ele><time>2026-04-30T09:14:56.736Z</time></trkpt><trkpt lat="41.1673262" lon="9.1741262"><ele>46.0</ele><time>2026-04-30T09:14:58.737Z</time></trkpt><trkpt lat="41.1673566" lon="9.1740136"><ele>46.0</ele><time>2026-04-30T09:14:59.736Z</time></trkpt><trkpt lat="41.1673909" lon="9.1738951"><ele>46.0</ele><time>2026-04-30T09:15:00.74Z</time></trkpt><trkpt lat="41.1674314" lon="9.1737528"><ele>43.5</ele><time>2026-04-30T09:15:01.735Z</time></trkpt><trkpt lat="41.1674764" lon="9.1735955"><ele>41.0</ele><time>2026-04-30T09:15:02.737Z</time></trkpt><trkpt lat="41.1675188" lon="9.1734545"><ele>38.5</ele><time>2026-04-30T09:15:03.737Z</time></trkpt><trkpt lat="41.1675555" lon="9.1733128"><ele>36.0</ele><time>2026-04-30T09:15:04.738Z</time></trkpt><trkpt lat="41.1675947" lon="9.1731546"><ele>35.25</ele><time>2026-04-30T09:15:05.736Z</time></trkpt><trkpt lat="41.1676322" lon="9.1729858"><ele>34.5</ele><time>2026-04-30T09:15:06.735Z</time></trkpt><trkpt lat="41.1676692" lon="9.1727997"><ele>33.75</ele><time>2026-04-30T09:15:07.737Z</time></trkpt><trkpt lat="41.1677047" lon="9.1726038"><ele>33.0</ele><time>2026-04-30T09:15:08.736Z</time></trkpt><trkpt lat="41.1677375" lon="9.1724122"><ele>32.25</ele><time>2026-04-30T09:15:09.738Z</time></trkpt><trkpt lat="41.1677657" lon="9.1722254"><ele>31.5</ele><time>2026-04-30T09:15:10.735Z</time></trkpt><trkpt lat="41.1677837" lon="9.1720495"><ele>30.75</ele><time>2026-04-30T09:15:11.737Z</time></trkpt><trkpt lat="41.1677936" lon="9.1718869"><ele>30.0</ele><time>2026-04-30T09:15:12.736Z</time></trkpt><trkpt lat="41.1677978" lon="9.1717381"><ele>30.0</ele><time>2026-04-30T09:15:13.735Z</time></trkpt><trkpt lat="41.1677947" lon="9.1716029"><ele>30.0</ele><time>2026-04-30T09:15:14.736Z</time></trkpt><trkpt lat="41.167791" lon="9.171485"><ele>30.0</ele><time>2026-04-30T09:15:15.737Z</time></trkpt><trkpt lat="41.1677873" lon="9.1713882"><ele>30.0</ele><time>2026-04-30T09:15:16.737Z</time></trkpt><trkpt lat="41.1677808" lon="9.1712402"><ele>30.0</ele><time>2026-04-30T09:15:18.737Z</time></trkpt><trkpt lat="41.167781" lon="9.1711416"><ele>30.0</ele><time>2026-04-30T09:15:20.737Z</time></trkpt><trkpt lat="41.167777" lon="9.1710558"><ele>29.5</ele><time>2026-04-30T09:15:22.735Z</time></trkpt><trkpt lat="41.1677737" lon="9.170941"><ele>29.0</ele><time>2026-04-30T09:15:25.736Z</time></trkpt><trkpt lat="41.1677719" lon="9.1708543"><ele>28.5</ele><time>2026-04-30T09:15:27.739Z</time></trkpt><trkpt lat="41.1677738" lon="9.1707384"><ele>28.0</ele><time>2026-04-30T09:15:30.735Z</time></trkpt><trkpt lat="41.1677366" lon="9.1706675"><ele>27.5</ele><time>2026-04-30T09:15:33.737Z</time></trkpt><trkpt lat="41.1677529" lon="9.1707899"><ele>27.0</ele><time>2026-04-30T09:16:01.737Z</time></trkpt><trkpt lat="41.1677605" lon="9.1709369"><ele>27.0</ele><time>2026-04-30T09:16:03.736Z</time></trkpt><trkpt lat="41.1677645" lon="9.1710246"><ele>27.0</ele><time>2026-04-30T09:16:04.735Z</time></trkpt><trkpt lat="41.1677668" lon="9.1711187"><ele>27.0</ele><time>2026-04-30T09:16:05.733Z</time></trkpt><trkpt lat="41.1677664" lon="9.1712159"><ele>27.0</ele><time>2026-04-30T09:16:06.737Z</time></trkpt><trkpt lat="41.1677684" lon="9.1713179"><ele>27.0</ele><time>2026-04-30T09:16:07.735Z</time></trkpt><trkpt lat="41.1677739" lon="9.1714237"><ele>27.0</ele><time>2026-04-30T09:16:08.736Z</time></trkpt><trkpt lat="41.1677787" lon="9.1715376"><ele>27.6</ele><time>2026-04-30T09:16:09.734Z</time></trkpt><trkpt lat="41.1677818" lon="9.1716611"><ele>28.200000000000003</ele><time>2026-04-30T09:16:10.734Z</time></trkpt><trkpt lat="41.1677838" lon="9.1717943"><ele>28.8</ele><time>2026-04-30T09:16:11.735Z</time></trkpt><trkpt lat="41.1677822" lon="9.1719364"><ele>29.4</ele><time>2026-04-30T09:16:12.736Z</time></trkpt><trkpt lat="41.1677716" lon="9.1720859"><ele>30.0</ele><time>2026-04-30T09:16:13.736Z</time></trkpt><trkpt lat="41.1677535" lon="9.172239"><ele>30.6</ele><time>2026-04-30T09:16:14.737Z</time></trkpt><trkpt lat="41.1677296" lon="9.1723964"><ele>31.2</ele><time>2026-04-30T09:16:15.735Z</time></trkpt><trkpt lat="41.167705" lon="9.1725488"><ele>31.799999999999997</ele><time>2026-04-30T09:16:16.735Z</time></trkpt><trkpt lat="41.1676817" lon="9.1726828"><ele>32.4</ele><time>2026-04-30T09:16:17.735Z</time></trkpt><trkpt lat="41.1676572" lon="9.1728072"><ele>33.0</ele><time>2026-04-30T09:16:18.735Z</time></trkpt><trkpt lat="41.1676316" lon="9.1729163"><ele>33.0</ele><time>2026-04-30T09:16:19.735Z</time></trkpt><trkpt lat="41.1676056" lon="9.1730127"><ele>33.0</ele><time>2026-04-30T09:16:20.735Z</time></trkpt><trkpt lat="41.1675834" lon="9.1730991"><ele>33.0</ele><time>2026-04-30T09:16:21.735Z</time></trkpt><trkpt lat="41.1675503" lon="9.1732456"><ele>33.0</ele><time>2026-04-30T09:16:23.736Z</time></trkpt><trkpt lat="41.1675211" lon="9.1733642"><ele>33.0</ele><time>2026-04-30T09:16:25.737Z</time></trkpt><trkpt lat="41.1674942" lon="9.1734654"><ele>33.0</ele><time>2026-04-30T09:16:27.736Z</time></trkpt><trkpt lat="41.1674732" lon="9.1735473"><ele>33.6</ele><time>2026-04-30T09:16:29.735Z</time></trkpt><trkpt lat="41.1674542" lon="9.1736374"><ele>34.199999999999996</ele><time>2026-04-30T09:16:41.737Z</time></trkpt><trkpt lat="41.1674397" lon="9.1737869"><ele>34.8</ele><time>2026-04-30T09:16:44.741Z</time></trkpt><trkpt lat="41.1674489" lon="9.1739563"><ele>35.4</ele><time>2026-04-30T09:16:46.736Z</time></trkpt><trkpt lat="41.1674431" lon="9.1740441"><ele>36.0</ele><time>2026-04-30T09:16:47.735Z</time></trkpt><trkpt lat="41.1674044" lon="9.1741591"><ele>38.0</ele><time>2026-04-30T09:16:49.734Z</time></trkpt><trkpt lat="41.1673298" lon="9.1741948"><ele>40.0</ele><time>2026-04-30T09:16:51.736Z</time></trkpt><trkpt lat="41.1672164" lon="9.1741481"><ele>42.0</ele><time>2026-04-30T09:16:53.735Z</time></trkpt><trkpt lat="41.1671389" lon="9.1741138"><ele>44.0</ele><time>2026-04-30T09:16:54.736Z</time></trkpt><trkpt lat="41.1670489" lon="9.1740788"><ele>46.0</ele><time>2026-04-30T09:16:55.736Z</time></trkpt><trkpt lat="41.1669433" lon="9.1740437"><ele>47.0</ele><time>2026-04-30T09:16:56.735Z</time></trkpt><trkpt lat="41.1668203" lon="9.1740026"><ele>48.0</ele><time>2026-04-30T09:16:57.736Z</time></trkpt><trkpt lat="41.1666797" lon="9.1739507"><ele>49.0</ele><time>2026-04-30T09:16:58.736Z</time></trkpt><trkpt lat="41.166524" lon="9.1738921"><ele>50.0</ele><time>2026-04-30T09:16:59.737Z</time></trkpt><trkpt lat="41.166379" lon="9.1738342"><ele>51.0</ele><time>2026-04-30T09:17:00.735Z</time></trkpt><trkpt lat="41.1662436" lon="9.1737824"><ele>52.0</ele><time>2026-04-30T09:17:01.734Z</time></trkpt><trkpt lat="41.1661083" lon="9.173729"><ele>53.0</ele><time>2026-04-30T09:17:02.735Z</time></trkpt><trkpt lat="41.1659737" lon="9.1736779"><ele>54.0</ele><time>2026-04-30T09:17:03.735Z</time></trkpt><trkpt lat="41.1658383" lon="9.1736275"><ele>54.0</ele><time>2026-04-30T09:17:04.736Z</time></trkpt><trkpt lat="41.1657007" lon="9.1735804"><ele>54.0</ele><time>2026-04-30T09:17:05.733Z</time></trkpt><trkpt lat="41.1655618" lon="9.1735286"><ele>54.0</ele><time>2026-04-30T09:17:06.737Z</time></trkpt><trkpt lat="41.1654253" lon="9.173477"><ele>54.0</ele><time>2026-04-30T09:17:07.737Z</time></trkpt><trkpt lat="41.1652987" lon="9.1734281"><ele>54.0</ele><time>2026-04-30T09:17:08.741Z</time></trkpt><trkpt lat="41.1651765" lon="9.1733844"><ele>54.0</ele><time>2026-04-30T09:17:09.738Z</time></trkpt><trkpt lat="41.16505" lon="9.1733386"><ele>54.0</ele><time>2026-04-30T09:17:10.735Z</time></trkpt><trkpt lat="41.1649229" lon="9.1732917"><ele>54.0</ele><time>2026-04-30T09:17:11.737Z</time></trkpt><trkpt lat="41.1647962" lon="9.1732439"><ele>54.0</ele><time>2026-04-30T09:17:12.737Z</time></trkpt><trkpt lat="41.1646665" lon="9.173198"><ele>54.0</ele><time>2026-04-30T09:17:13.736Z</time></trkpt><trkpt lat="41.1645384" lon="9.173151"><ele>54.0</ele><time>2026-04-30T09:17:14.738Z</time></trkpt><trkpt lat="41.1644145" lon="9.1731037"><ele>54.0</ele><time>2026-04-30T09:17:15.734Z</time></trkpt><trkpt lat="41.1642872" lon="9.1730576"><ele>54.5</ele><time>2026-04-30T09:17:16.735Z</time></trkpt><trkpt lat="41.1641588" lon="9.1730104"><ele>55.0</ele><time>2026-04-30T09:17:17.737Z</time></trkpt><trkpt lat="41.164029" lon="9.172962"><ele>55.5</ele><time>2026-04-30T09:17:18.737Z</time></trkpt><trkpt lat="41.1638988" lon="9.1729124"><ele>56.0</ele><time>2026-04-30T09:17:19.736Z</time></trkpt><trkpt lat="41.163767" lon="9.1728583"><ele>56.0</ele><time>2026-04-30T09:17:20.738Z</time></trkpt><trkpt lat="41.1636342" lon="9.1728093"><ele>56.0</ele><time>2026-04-30T09:17:21.737Z</time></trkpt><trkpt lat="41.1635008" lon="9.172754"><ele>56.0</ele><time>2026-04-30T09:17:22.735Z</time></trkpt><trkpt lat="41.1633606" lon="9.1726994"><ele>56.0</ele><time>2026-04-30T09:17:23.735Z</time></trkpt><trkpt lat="41.1632199" lon="9.1726448"><ele>55.0</ele><time>2026-04-30T09:17:24.737Z</time></trkpt><trkpt lat="41.1630842" lon="9.1725947"><ele>54.0</ele><time>2026-04-30T09:17:25.736Z</time></trkpt><trkpt lat="41.1629533" lon="9.1725419"><ele>53.0</ele><time>2026-04-30T09:17:26.735Z</time></trkpt><trkpt lat="41.1628261" lon="9.1724929"><ele>52.0</ele><time>2026-04-30T09:17:27.735Z</time></trkpt><trkpt lat="41.1626976" lon="9.1724432"><ele>52.0</ele><time>2026-04-30T09:17:28.736Z</time></trkpt><trkpt lat="41.162567" lon="9.172394"><ele>52.0</ele><time>2026-04-30T09:17:29.739Z</time></trkpt><trkpt lat="41.16243" lon="9.1723456"><ele>52.0</ele><time>2026-04-30T09:17:30.736Z</time></trkpt><trkpt lat="41.1622909" lon="9.1722936"><ele>52.0</ele><time>2026-04-30T09:17:31.736Z</time></trkpt><trkpt lat="41.162149" lon="9.1722371"><ele>49.33333333333333</ele><time>2026-04-30T09:17:32.734Z</time></trkpt><trkpt lat="41.1620016" lon="9.1721666"><ele>46.666666666666664</ele><time>2026-04-30T09:17:33.736Z</time></trkpt><trkpt lat="41.1618497" lon="9.1720808"><ele>44.0</ele><time>2026-04-30T09:17:34.739Z</time></trkpt><trkpt lat="41.1616941" lon="9.1719824"><ele>44.0</ele><time>2026-04-30T09:17:35.736Z</time></trkpt><trkpt lat="41.1615401" lon="9.1718728"><ele>44.0</ele><time>2026-04-30T09:17:36.738Z</time></trkpt><trkpt lat="41.1613896" lon="9.1717573"><ele>44.0</ele><time>2026-04-30T09:17:37.737Z</time></trkpt><trkpt lat="41.1612388" lon="9.1716257"><ele>42.666666666666664</ele><time>2026-04-30T09:17:38.735Z</time></trkpt><trkpt lat="41.1610915" lon="9.1714819"><ele>41.333333333333336</ele><time>2026-04-30T09:17:39.737Z</time></trkpt><trkpt lat="41.1609474" lon="9.1713241"><ele>40.0</ele><time>2026-04-30T09:17:40.736Z</time></trkpt><trkpt lat="41.160805" lon="9.171157"><ele>38.333333333333336</ele><time>2026-04-30T09:17:41.734Z</time></trkpt><trkpt lat="41.1606696" lon="9.1709765"><ele>36.666666666666664</ele><time>2026-04-30T09:17:42.735Z</time></trkpt><trkpt lat="41.1605417" lon="9.1707828"><ele>35.0</ele><time>2026-04-30T09:17:43.736Z</time></trkpt><trkpt lat="41.1604246" lon="9.1705861"><ele>32.666666666666664</ele><time>2026-04-30T09:17:44.738Z</time></trkpt><trkpt lat="41.1603172" lon="9.1703881"><ele>30.333333333333336</ele><time>2026-04-30T09:17:45.738Z</time></trkpt><trkpt lat="41.160218" lon="9.1701812"><ele>28.0</ele><time>2026-04-30T09:17:46.734Z</time></trkpt><trkpt lat="41.1601274" lon="9.169965"><ele>28.0</ele><time>2026-04-30T09:17:47.734Z</time></trkpt><trkpt lat="41.1600405" lon="9.1697345"><ele>28.0</ele><time>2026-04-30T09:17:48.738Z</time></trkpt><trkpt lat="41.1599585" lon="9.1694852"><ele>28.0</ele><time>2026-04-30T09:17:49.735Z</time></trkpt><trkpt lat="41.1598864" lon="9.169229"><ele>30.333333333333336</ele><time>2026-04-30T09:17:50.738Z</time></trkpt><trkpt lat="41.1598171" lon="9.1689726"><ele>32.666666666666664</ele><time>2026-04-30T09:17:51.736Z</time></trkpt><trkpt lat="41.1597527" lon="9.168726"><ele>35.0</ele><time>2026-04-30T09:17:52.735Z</time></trkpt><trkpt lat="41.1596858" lon="9.1684786"><ele>35.0</ele><time>2026-04-30T09:17:53.736Z</time></trkpt><trkpt lat="41.1596181" lon="9.1682266"><ele>35.0</ele><time>2026-04-30T09:17:54.735Z</time></trkpt><trkpt lat="41.1595491" lon="9.1679694"><ele>35.0</ele><time>2026-04-30T09:17:55.735Z</time></trkpt><trkpt lat="41.1594777" lon="9.1677053"><ele>35.0</ele><time>2026-04-30T09:17:56.736Z</time></trkpt><trkpt lat="41.1594086" lon="9.1674468"><ele>35.0</ele><time>2026-04-30T09:17:57.737Z</time></trkpt><trkpt lat="41.1593422" lon="9.167195"><ele>35.0</ele><time>2026-04-30T09:17:58.734Z</time></trkpt><trkpt lat="41.1592747" lon="9.1669416"><ele>35.0</ele><time>2026-04-30T09:17:59.738Z</time></trkpt><trkpt lat="41.1592075" lon="9.1666895"><ele>35.0</ele><time>2026-04-30T09:18:00.737Z</time></trkpt><trkpt lat="41.1591392" lon="9.166438"><ele>35.0</ele><time>2026-04-30T09:18:01.734Z</time></trkpt><trkpt lat="41.1590687" lon="9.1661797"><ele>37.33333333333333</ele><time>2026-04-30T09:18:02.736Z</time></trkpt><trkpt lat="41.1589982" lon="9.1659226"><ele>39.666666666666664</ele><time>2026-04-30T09:18:03.734Z</time></trkpt><trkpt lat="41.1589282" lon="9.1656637"><ele>42.0</ele><time>2026-04-30T09:18:04.736Z</time></trkpt><trkpt lat="41.1588604" lon="9.1654055"><ele>42.0</ele><time>2026-04-30T09:18:05.735Z</time></trkpt><trkpt lat="41.1587916" lon="9.1651449"><ele>42.0</ele><time>2026-04-30T09:18:06.738Z</time></trkpt><trkpt lat="41.1587221" lon="9.1648805"><ele>42.0</ele><time>2026-04-30T09:18:07.739Z</time></trkpt><trkpt lat="41.1586513" lon="9.1646127"><ele>41.333333333333336</ele><time>2026-04-30T09:18:08.737Z</time></trkpt><trkpt lat="41.1585796" lon="9.1643437"><ele>40.66666666666667</ele><time>2026-04-30T09:18:09.737Z</time></trkpt><trkpt lat="41.158508" lon="9.1640734"><ele>40.0</ele><time>2026-04-30T09:18:10.735Z</time></trkpt><trkpt lat="41.1584341" lon="9.163798"><ele>38.66666666666667</ele><time>2026-04-30T09:18:11.736Z</time></trkpt><trkpt lat="41.1583612" lon="9.1635209"><ele>37.333333333333336</ele><time>2026-04-30T09:18:12.735Z</time></trkpt><trkpt lat="41.1582885" lon="9.1632399"><ele>36.0</ele><time>2026-04-30T09:18:13.736Z</time></trkpt><trkpt lat="41.1582122" lon="9.1629571"><ele>39.5</ele><time>2026-04-30T09:18:14.735Z</time></trkpt><trkpt lat="41.1581357" lon="9.162673"><ele>43.0</ele><time>2026-04-30T09:18:15.735Z</time></trkpt><trkpt lat="41.158057" lon="9.1623864"><ele>41.5</ele><time>2026-04-30T09:18:16.737Z</time></trkpt><trkpt lat="41.1579806" lon="9.1620984"><ele>40.0</ele><time>2026-04-30T09:18:17.735Z</time></trkpt><trkpt lat="41.1579044" lon="9.1618091"><ele>38.5</ele><time>2026-04-30T09:18:18.736Z</time></trkpt><trkpt lat="41.1578268" lon="9.1615164"><ele>37.0</ele><time>2026-04-30T09:18:19.736Z</time></trkpt><trkpt lat="41.1577477" lon="9.1612232"><ele>37.0</ele><time>2026-04-30T09:18:20.734Z</time></trkpt><trkpt lat="41.1576703" lon="9.1609417"><ele>37.0</ele><time>2026-04-30T09:18:21.739Z</time></trkpt><trkpt lat="41.1575944" lon="9.1606615"><ele>37.0</ele><time>2026-04-30T09:18:22.737Z</time></trkpt><trkpt lat="41.1575184" lon="9.1603865"><ele>37.0</ele><time>2026-04-30T09:18:23.734Z</time></trkpt><trkpt lat="41.157446" lon="9.1601175"><ele>37.0</ele><time>2026-04-30T09:18:24.734Z</time></trkpt><trkpt lat="41.1573751" lon="9.1598511"><ele>37.66666666666667</ele><time>2026-04-30T09:18:25.734Z</time></trkpt><trkpt lat="41.1573071" lon="9.159598"><ele>38.333333333333336</ele><time>2026-04-30T09:18:26.737Z</time></trkpt><trkpt lat="41.1572434" lon="9.1593523"><ele>39.0</ele><time>2026-04-30T09:18:27.736Z</time></trkpt><trkpt lat="41.15718" lon="9.1591138"><ele>38.333333333333336</ele><time>2026-04-30T09:18:28.736Z</time></trkpt><trkpt lat="41.1571178" lon="9.1588856"><ele>37.66666666666667</ele><time>2026-04-30T09:18:29.736Z</time></trkpt><trkpt lat="41.1570586" lon="9.1586591"><ele>37.0</ele><time>2026-04-30T09:18:30.734Z</time></trkpt><trkpt lat="41.1569958" lon="9.1584313"><ele>36.0</ele><time>2026-04-30T09:18:31.738Z</time></trkpt><trkpt lat="41.1569325" lon="9.1581982"><ele>35.0</ele><time>2026-04-30T09:18:32.735Z</time></trkpt><trkpt lat="41.1568693" lon="9.1579615"><ele>34.0</ele><time>2026-04-30T09:18:33.735Z</time></trkpt><trkpt lat="41.1568069" lon="9.1577265"><ele>34.0</ele><time>2026-04-30T09:18:34.736Z</time></trkpt><trkpt lat="41.1567493" lon="9.1575068"><ele>34.0</ele><time>2026-04-30T09:18:35.737Z</time></trkpt><trkpt lat="41.156696" lon="9.1573012"><ele>34.0</ele><time>2026-04-30T09:18:36.735Z</time></trkpt><trkpt lat="41.1566439" lon="9.1571007"><ele>33.333333333333336</ele><time>2026-04-30T09:18:37.736Z</time></trkpt><trkpt lat="41.1565901" lon="9.1569051"><ele>32.666666666666664</ele><time>2026-04-30T09:18:38.736Z</time></trkpt><trkpt lat="41.1565314" lon="9.1567093"><ele>32.0</ele><time>2026-04-30T09:18:39.739Z</time></trkpt><trkpt lat="41.1564622" lon="9.1565095"><ele>32.0</ele><time>2026-04-30T09:18:40.736Z</time></trkpt><trkpt lat="41.1563838" lon="9.1563058"><ele>32.0</ele><time>2026-04-30T09:18:41.74Z</time></trkpt><trkpt lat="41.1562955" lon="9.1561011"><ele>32.0</ele><time>2026-04-30T09:18:42.735Z</time></trkpt><trkpt lat="41.1561967" lon="9.1559017"><ele>32.0</ele><time>2026-04-30T09:18:43.733Z</time></trkpt><trkpt lat="41.1560874" lon="9.1557038"><ele>32.0</ele><time>2026-04-30T09:18:44.735Z</time></trkpt><trkpt lat="41.1559657" lon="9.1555091"><ele>32.0</ele><time>2026-04-30T09:18:45.737Z</time></trkpt><trkpt lat="41.1558355" lon="9.1553223"><ele>32.33333333333333</ele><time>2026-04-30T09:18:46.734Z</time></trkpt><trkpt lat="41.1556963" lon="9.1551419"><ele>32.666666666666664</ele><time>2026-04-30T09:18:47.735Z</time></trkpt><trkpt lat="41.1555521" lon="9.1549651"><ele>33.0</ele><time>2026-04-30T09:18:48.736Z</time></trkpt><trkpt lat="41.155404" lon="9.1547864"><ele>26.666666666666668</ele><time>2026-04-30T09:18:49.739Z</time></trkpt><trkpt lat="41.1552584" lon="9.1545993"><ele>20.333333333333336</ele><time>2026-04-30T09:18:50.735Z</time></trkpt><trkpt lat="41.155119" lon="9.1544097"><ele>14.0</ele><time>2026-04-30T09:18:51.735Z</time></trkpt><trkpt lat="41.1549856" lon="9.1542155"><ele>11.666666666666668</ele><time>2026-04-30T09:18:52.737Z</time></trkpt><trkpt lat="41.1548643" lon="9.1540141"><ele>9.333333333333334</ele><time>2026-04-30T09:18:53.736Z</time></trkpt><trkpt lat="41.1547578" lon="9.1538056"><ele>7.0</ele><time>2026-04-30T09:18:54.735Z</time></trkpt><trkpt lat="41.1546609" lon="9.1535929"><ele>7.0</ele><time>2026-04-30T09:18:55.734Z</time></trkpt><trkpt lat="41.1545786" lon="9.1533703"><ele>7.0</ele><time>2026-04-30T09:18:56.736Z</time></trkpt><trkpt lat="41.154505" lon="9.1531474"><ele>7.0</ele><time>2026-04-30T09:18:57.734Z</time></trkpt><trkpt lat="41.1544462" lon="9.1529303"><ele>6.666666666666667</ele><time>2026-04-30T09:18:58.735Z</time></trkpt><trkpt lat="41.1544006" lon="9.1527179"><ele>6.333333333333334</ele><time>2026-04-30T09:18:59.735Z</time></trkpt><trkpt lat="41.154367" lon="9.1525122"><ele>6.0</ele><time>2026-04-30T09:19:00.734Z</time></trkpt><trkpt lat="41.1543446" lon="9.1523158"><ele>8.5</ele><time>2026-04-30T09:19:01.736Z</time></trkpt><trkpt lat="41.1543296" lon="9.1521251"><ele>11.0</ele><time>2026-04-30T09:19:02.734Z</time></trkpt><trkpt lat="41.1543209" lon="9.1519334"><ele>13.5</ele><time>2026-04-30T09:19:03.734Z</time></trkpt><trkpt lat="41.1543148" lon="9.151742"><ele>16.0</ele><time>2026-04-30T09:19:04.735Z</time></trkpt><trkpt lat="41.1543083" lon="9.1515494"><ele>15.666666666666666</ele><time>2026-04-30T09:19:05.742Z</time></trkpt><trkpt lat="41.1542997" lon="9.1513512"><ele>15.333333333333332</ele><time>2026-04-30T09:19:06.74Z</time></trkpt><trkpt lat="41.1542897" lon="9.1511463"><ele>15.0</ele><time>2026-04-30T09:19:07.736Z</time></trkpt><trkpt lat="41.1542739" lon="9.1509371"><ele>15.0</ele><time>2026-04-30T09:19:08.734Z</time></trkpt><trkpt lat="41.1542497" lon="9.1507241"><ele>15.0</ele><time>2026-04-30T09:19:09.734Z</time></trkpt><trkpt lat="41.1542157" lon="9.1505094"><ele>15.0</ele><time>2026-04-30T09:19:10.734Z</time></trkpt><trkpt lat="41.154171" lon="9.1502958"><ele>14.0</ele><time>2026-04-30T09:19:11.735Z</time></trkpt><trkpt lat="41.1541189" lon="9.1500827"><ele>13.0</ele><time>2026-04-30T09:19:12.734Z</time></trkpt><trkpt lat="41.1540578" lon="9.1498682"><ele>12.0</ele><time>2026-04-30T09:19:13.735Z</time></trkpt><trkpt lat="41.1539849" lon="9.1496576"><ele>14.333333333333332</ele><time>2026-04-30T09:19:14.736Z</time></trkpt><trkpt lat="41.1539032" lon="9.149456"><ele>16.666666666666664</ele><time>2026-04-30T09:19:15.734Z</time></trkpt><trkpt lat="41.1538231" lon="9.1492715"><ele>19.0</ele><time>2026-04-30T09:19:16.734Z</time></trkpt><trkpt lat="41.1537405" lon="9.1490872"><ele>18.666666666666664</ele><time>2026-04-30T09:19:17.735Z</time></trkpt><trkpt lat="41.1536591" lon="9.1489036"><ele>18.333333333333332</ele><time>2026-04-30T09:19:18.735Z</time></trkpt><trkpt lat="41.1535827" lon="9.1487267"><ele>18.0</ele><time>2026-04-30T09:19:19.734Z</time></trkpt><trkpt lat="41.1535035" lon="9.1485482"><ele>18.0</ele><time>2026-04-30T09:19:20.736Z</time></trkpt><trkpt lat="41.1534244" lon="9.1483706"><ele>18.0</ele><time>2026-04-30T09:19:21.734Z</time></trkpt><trkpt lat="41.153347" lon="9.1481941"><ele>18.0</ele><time>2026-04-30T09:19:22.737Z</time></trkpt><trkpt lat="41.1532723" lon="9.1480215"><ele>22.666666666666664</ele><time>2026-04-30T09:19:23.737Z</time></trkpt><trkpt lat="41.1531989" lon="9.1478508"><ele>27.333333333333332</ele><time>2026-04-30T09:19:24.735Z</time></trkpt><trkpt lat="41.1531233" lon="9.1476778"><ele>32.0</ele><time>2026-04-30T09:19:25.736Z</time></trkpt><trkpt lat="41.1530446" lon="9.1474998"><ele>31.666666666666664</ele><time>2026-04-30T09:19:26.734Z</time></trkpt><trkpt lat="41.1529577" lon="9.1473031"><ele>31.333333333333336</ele><time>2026-04-30T09:19:27.735Z</time></trkpt><trkpt lat="41.1528612" lon="9.1470826"><ele>31.0</ele><time>2026-04-30T09:19:28.736Z</time></trkpt><trkpt lat="41.1527697" lon="9.1468761"><ele>31.0</ele><time>2026-04-30T09:19:29.736Z</time></trkpt><trkpt lat="41.1526846" lon="9.1466843"><ele>31.0</ele><time>2026-04-30T09:19:30.738Z</time></trkpt><trkpt lat="41.1526006" lon="9.146493"><ele>31.0</ele><time>2026-04-30T09:19:31.736Z</time></trkpt><trkpt lat="41.1525203" lon="9.1463079"><ele>31.0</ele><time>2026-04-30T09:19:32.735Z</time></trkpt><trkpt lat="41.1524386" lon="9.1461219"><ele>31.0</ele><time>2026-04-30T09:19:33.736Z</time></trkpt><trkpt lat="41.1523585" lon="9.1459355"><ele>31.0</ele><time>2026-04-30T09:19:34.735Z</time></trkpt><trkpt lat="41.152277" lon="9.1457462"><ele>34.66666666666667</ele><time>2026-04-30T09:19:35.735Z</time></trkpt><trkpt lat="41.1521953" lon="9.1455524"><ele>38.333333333333336</ele><time>2026-04-30T09:19:36.736Z</time></trkpt><trkpt lat="41.152114" lon="9.1453548"><ele>42.0</ele><time>2026-04-30T09:19:37.738Z</time></trkpt><trkpt lat="41.1520341" lon="9.1451536"><ele>42.0</ele><time>2026-04-30T09:19:38.736Z</time></trkpt><trkpt lat="41.1519553" lon="9.144947"><ele>42.0</ele><time>2026-04-30T09:19:39.735Z</time></trkpt><trkpt lat="41.1518774" lon="9.1447366"><ele>42.0</ele><time>2026-04-30T09:19:40.734Z</time></trkpt><trkpt lat="41.1517986" lon="9.1445195"><ele>40.0</ele><time>2026-04-30T09:19:41.736Z</time></trkpt><trkpt lat="41.151719" lon="9.1442966"><ele>38.0</ele><time>2026-04-30T09:19:42.735Z</time></trkpt><trkpt lat="41.1516388" lon="9.1440708"><ele>36.0</ele><time>2026-04-30T09:19:43.735Z</time></trkpt><trkpt lat="41.1515553" lon="9.1438393"><ele>36.333333333333336</ele><time>2026-04-30T09:19:44.737Z</time></trkpt><trkpt lat="41.1514761" lon="9.1436052"><ele>36.66666666666667</ele><time>2026-04-30T09:19:45.736Z</time></trkpt><trkpt lat="41.1513928" lon="9.1433711"><ele>37.0</ele><time>2026-04-30T09:19:46.733Z</time></trkpt><trkpt lat="41.1513102" lon="9.1431374"><ele>37.0</ele><time>2026-04-30T09:19:47.735Z</time></trkpt><trkpt lat="41.1512276" lon="9.1429047"><ele>37.0</ele><time>2026-04-30T09:19:48.735Z</time></trkpt><trkpt lat="41.1511452" lon="9.1426792"><ele>37.0</ele><time>2026-04-30T09:19:49.736Z</time></trkpt><trkpt lat="41.1510571" lon="9.1424467"><ele>34.333333333333336</ele><time>2026-04-30T09:19:50.735Z</time></trkpt><trkpt lat="41.150963" lon="9.142212"><ele>31.666666666666664</ele><time>2026-04-30T09:19:51.737Z</time></trkpt><trkpt lat="41.1508626" lon="9.1419755"><ele>29.0</ele><time>2026-04-30T09:19:52.735Z</time></trkpt><trkpt lat="41.1507547" lon="9.1417406"><ele>29.333333333333332</ele><time>2026-04-30T09:19:53.733Z</time></trkpt><trkpt lat="41.1506431" lon="9.1415101"><ele>29.666666666666664</ele><time>2026-04-30T09:19:54.737Z</time></trkpt><trkpt lat="41.1505293" lon="9.1412851"><ele>30.0</ele><time>2026-04-30T09:19:55.734Z</time></trkpt><trkpt lat="41.1504151" lon="9.1410639"><ele>30.0</ele><time>2026-04-30T09:19:56.735Z</time></trkpt><trkpt lat="41.1503002" lon="9.1408441"><ele>30.0</ele><time>2026-04-30T09:19:57.736Z</time></trkpt><trkpt lat="41.1501839" lon="9.140627"><ele>30.0</ele><time>2026-04-30T09:19:58.742Z</time></trkpt><trkpt lat="41.1500654" lon="9.140411"><ele>29.666666666666664</ele><time>2026-04-30T09:19:59.736Z</time></trkpt><trkpt lat="41.1499465" lon="9.140194"><ele>29.333333333333332</ele><time>2026-04-30T09:20:00.734Z</time></trkpt><trkpt lat="41.1498275" lon="9.1399778"><ele>29.0</ele><time>2026-04-30T09:20:01.734Z</time></trkpt><trkpt lat="41.1497101" lon="9.1397598"><ele>30.0</ele><time>2026-04-30T09:20:02.735Z</time></trkpt><trkpt lat="41.1495926" lon="9.1395413"><ele>31.0</ele><time>2026-04-30T09:20:03.734Z</time></trkpt><trkpt lat="41.149473" lon="9.1393218"><ele>32.0</ele><time>2026-04-30T09:20:04.736Z</time></trkpt><trkpt lat="41.1493562" lon="9.1391063"><ele>32.0</ele><time>2026-04-30T09:20:05.736Z</time></trkpt><trkpt lat="41.1492443" lon="9.1388994"><ele>32.0</ele><time>2026-04-30T09:20:06.734Z</time></trkpt><trkpt lat="41.1491357" lon="9.1386992"><ele>32.0</ele><time>2026-04-30T09:20:07.734Z</time></trkpt><trkpt lat="41.1490267" lon="9.1385017"><ele>32.0</ele><time>2026-04-30T09:20:08.735Z</time></trkpt><trkpt lat="41.1489116" lon="9.1383016"><ele>32.0</ele><time>2026-04-30T09:20:09.736Z</time></trkpt><trkpt lat="41.1487921" lon="9.1380938"><ele>32.0</ele><time>2026-04-30T09:20:10.737Z</time></trkpt><trkpt lat="41.1486655" lon="9.1378717"><ele>30.0</ele><time>2026-04-30T09:20:11.736Z</time></trkpt><trkpt lat="41.1485399" lon="9.1376396"><ele>28.0</ele><time>2026-04-30T09:20:12.739Z</time></trkpt><trkpt lat="41.1484175" lon="9.1373995"><ele>26.0</ele><time>2026-04-30T09:20:13.735Z</time></trkpt><trkpt lat="41.1482978" lon="9.1371538"><ele>26.0</ele><time>2026-04-30T09:20:14.736Z</time></trkpt><trkpt lat="41.148179" lon="9.1369166"><ele>26.0</ele><time>2026-04-30T09:20:15.734Z</time></trkpt><trkpt lat="41.1480581" lon="9.136687"><ele>26.0</ele><time>2026-04-30T09:20:16.736Z</time></trkpt><trkpt lat="41.1479392" lon="9.1364666"><ele>22.0</ele><time>2026-04-30T09:20:17.735Z</time></trkpt><trkpt lat="41.1478243" lon="9.1362555"><ele>18.0</ele><time>2026-04-30T09:20:18.738Z</time></trkpt><trkpt lat="41.1477131" lon="9.1360542"><ele>14.0</ele><time>2026-04-30T09:20:19.734Z</time></trkpt><trkpt lat="41.1476059" lon="9.1358627"><ele>15.0</ele><time>2026-04-30T09:20:20.735Z</time></trkpt><trkpt lat="41.1475006" lon="9.1356822"><ele>16.0</ele><time>2026-04-30T09:20:21.733Z</time></trkpt><trkpt lat="41.1473947" lon="9.1355162"><ele>17.0</ele><time>2026-04-30T09:20:22.738Z</time></trkpt><trkpt lat="41.1472863" lon="9.1353658"><ele>20.0</ele><time>2026-04-30T09:20:23.734Z</time></trkpt><trkpt lat="41.1471776" lon="9.1352314"><ele>23.0</ele><time>2026-04-30T09:20:24.735Z</time></trkpt><trkpt lat="41.1470723" lon="9.1351109"><ele>26.0</ele><time>2026-04-30T09:20:25.736Z</time></trkpt><trkpt lat="41.1469702" lon="9.1349991"><ele>29.0</ele><time>2026-04-30T09:20:26.735Z</time></trkpt><trkpt lat="41.1468639" lon="9.1348879"><ele>29.25</ele><time>2026-04-30T09:20:27.735Z</time></trkpt><trkpt lat="41.1467556" lon="9.134782"><ele>29.5</ele><time>2026-04-30T09:20:28.733Z</time></trkpt><trkpt lat="41.1466429" lon="9.1346833"><ele>29.75</ele><time>2026-04-30T09:20:29.739Z</time></trkpt><trkpt lat="41.146528" lon="9.1345899"><ele>30.0</ele><time>2026-04-30T09:20:30.734Z</time></trkpt><trkpt lat="41.1464112" lon="9.134505"><ele>31.25</ele><time>2026-04-30T09:20:31.734Z</time></trkpt><trkpt lat="41.1462978" lon="9.1344331"><ele>32.5</ele><time>2026-04-30T09:20:32.736Z</time></trkpt><trkpt lat="41.1461889" lon="9.1343712"><ele>33.75</ele><time>2026-04-30T09:20:33.732Z</time></trkpt><trkpt lat="41.1460903" lon="9.1343157"><ele>35.0</ele><time>2026-04-30T09:20:34.736Z</time></trkpt><trkpt lat="41.1459978" lon="9.1342657"><ele>35.0</ele><time>2026-04-30T09:20:35.735Z</time></trkpt><trkpt lat="41.1458996" lon="9.1342207"><ele>35.0</ele><time>2026-04-30T09:20:36.735Z</time></trkpt><trkpt lat="41.1457955" lon="9.1341807"><ele>35.0</ele><time>2026-04-30T09:20:37.736Z</time></trkpt><trkpt lat="41.1456856" lon="9.1341443"><ele>35.0</ele><time>2026-04-30T09:20:38.735Z</time></trkpt><trkpt lat="41.1455693" lon="9.1341065"><ele>35.0</ele><time>2026-04-30T09:20:39.735Z</time></trkpt><trkpt lat="41.145446" lon="9.1340696"><ele>34.0</ele><time>2026-04-30T09:20:40.733Z</time></trkpt><trkpt lat="41.1453218" lon="9.1340371"><ele>33.0</ele><time>2026-04-30T09:20:41.738Z</time></trkpt><trkpt lat="41.1451952" lon="9.1340085"><ele>32.0</ele><time>2026-04-30T09:20:42.737Z</time></trkpt><trkpt lat="41.1450678" lon="9.1339842"><ele>31.0</ele><time>2026-04-30T09:20:43.736Z</time></trkpt><trkpt lat="41.1449312" lon="9.1339613"><ele>31.333333333333336</ele><time>2026-04-30T09:20:44.736Z</time></trkpt><trkpt lat="41.1447865" lon="9.1339352"><ele>31.666666666666664</ele><time>2026-04-30T09:20:45.734Z</time></trkpt><trkpt lat="41.1446302" lon="9.1339076"><ele>32.0</ele><time>2026-04-30T09:20:46.734Z</time></trkpt><trkpt lat="41.1444671" lon="9.1338757"><ele>32.0</ele><time>2026-04-30T09:20:47.735Z</time></trkpt><trkpt lat="41.1443018" lon="9.1338413"><ele>32.0</ele><time>2026-04-30T09:20:48.737Z</time></trkpt><trkpt lat="41.1441345" lon="9.1338079"><ele>32.0</ele><time>2026-04-30T09:20:49.736Z</time></trkpt><trkpt lat="41.1439532" lon="9.1337769"><ele>31.666666666666664</ele><time>2026-04-30T09:20:50.735Z</time></trkpt><trkpt lat="41.1437474" lon="9.1337461"><ele>31.333333333333336</ele><time>2026-04-30T09:20:51.733Z</time></trkpt><trkpt lat="41.1435527" lon="9.133709"><ele>31.0</ele><time>2026-04-30T09:20:52.733Z</time></trkpt><trkpt lat="41.14337" lon="9.1336676"><ele>32.0</ele><time>2026-04-30T09:20:53.734Z</time></trkpt><trkpt lat="41.1432053" lon="9.1336234"><ele>33.0</ele><time>2026-04-30T09:20:54.735Z</time></trkpt><trkpt lat="41.1430552" lon="9.1335789"><ele>34.0</ele><time>2026-04-30T09:20:55.737Z</time></trkpt><trkpt lat="41.1429174" lon="9.1335321"><ele>34.0</ele><time>2026-04-30T09:20:56.738Z</time></trkpt><trkpt lat="41.1427851" lon="9.1334807"><ele>34.0</ele><time>2026-04-30T09:20:57.738Z</time></trkpt><trkpt lat="41.1426475" lon="9.1334212"><ele>34.0</ele><time>2026-04-30T09:20:58.734Z</time></trkpt><trkpt lat="41.1425113" lon="9.1333534"><ele>34.0</ele><time>2026-04-30T09:20:59.734Z</time></trkpt><trkpt lat="41.1423778" lon="9.1332779"><ele>34.75</ele><time>2026-04-30T09:21:00.734Z</time></trkpt><trkpt lat="41.1422531" lon="9.1332001"><ele>35.5</ele><time>2026-04-30T09:21:01.738Z</time></trkpt><trkpt lat="41.1421369" lon="9.1331203"><ele>36.25</ele><time>2026-04-30T09:21:02.737Z</time></trkpt><trkpt lat="41.1420223" lon="9.1330351"><ele>37.0</ele><time>2026-04-30T09:21:03.734Z</time></trkpt><trkpt lat="41.1419114" lon="9.1329475"><ele>37.0</ele><time>2026-04-30T09:21:04.737Z</time></trkpt><trkpt lat="41.1418028" lon="9.1328564"><ele>37.0</ele><time>2026-04-30T09:21:05.738Z</time></trkpt><trkpt lat="41.1416928" lon="9.1327526"><ele>37.0</ele><time>2026-04-30T09:21:06.734Z</time></trkpt><trkpt lat="41.1415787" lon="9.1326414"><ele>37.0</ele><time>2026-04-30T09:21:07.733Z</time></trkpt><trkpt lat="41.141464" lon="9.1325238"><ele>38.333333333333336</ele><time>2026-04-30T09:21:08.734Z</time></trkpt><trkpt lat="41.1413407" lon="9.1323961"><ele>39.666666666666664</ele><time>2026-04-30T09:21:09.735Z</time></trkpt><trkpt lat="41.1412037" lon="9.1322526"><ele>41.0</ele><time>2026-04-30T09:21:10.735Z</time></trkpt><trkpt lat="41.1410526" lon="9.1320978"><ele>41.0</ele><time>2026-04-30T09:21:11.735Z</time></trkpt><trkpt lat="41.1408955" lon="9.1319323"><ele>41.0</ele><time>2026-04-30T09:21:12.735Z</time></trkpt><trkpt lat="41.1407416" lon="9.1317611"><ele>41.0</ele><time>2026-04-30T09:21:13.736Z</time></trkpt><trkpt lat="41.1405841" lon="9.1315824"><ele>41.0</ele><time>2026-04-30T09:21:14.736Z</time></trkpt><trkpt lat="41.1404237" lon="9.1313982"><ele>41.0</ele><time>2026-04-30T09:21:15.736Z</time></trkpt><trkpt lat="41.1402571" lon="9.1312071"><ele>41.0</ele><time>2026-04-30T09:21:16.736Z</time></trkpt><trkpt lat="41.140086" lon="9.1310134"><ele>41.0</ele><time>2026-04-30T09:21:17.739Z</time></trkpt><trkpt lat="41.1399081" lon="9.1308191"><ele>41.0</ele><time>2026-04-30T09:21:18.734Z</time></trkpt><trkpt lat="41.1397301" lon="9.1306252"><ele>44.0</ele><time>2026-04-30T09:21:19.74Z</time></trkpt><trkpt lat="41.1395507" lon="9.1304308"><ele>47.0</ele><time>2026-04-30T09:21:20.735Z</time></trkpt><trkpt lat="41.1393709" lon="9.1302345"><ele>47.0</ele><time>2026-04-30T09:21:21.737Z</time></trkpt><trkpt lat="41.1391909" lon="9.1300385"><ele>47.0</ele><time>2026-04-30T09:21:22.74Z</time></trkpt><trkpt lat="41.1390145" lon="9.1298436"><ele>48.5</ele><time>2026-04-30T09:21:23.734Z</time></trkpt><trkpt lat="41.1388368" lon="9.1296495"><ele>50.0</ele><time>2026-04-30T09:21:24.735Z</time></trkpt><trkpt lat="41.1386618" lon="9.1294571"><ele>50.0</ele><time>2026-04-30T09:21:25.735Z</time></trkpt><trkpt lat="41.1384876" lon="9.129266"><ele>50.0</ele><time>2026-04-30T09:21:26.733Z</time></trkpt><trkpt lat="41.1383147" lon="9.1290762"><ele>51.333333333333336</ele><time>2026-04-30T09:21:27.735Z</time></trkpt><trkpt lat="41.1381419" lon="9.1288889"><ele>52.66666666666667</ele><time>2026-04-30T09:21:28.736Z</time></trkpt><trkpt lat="41.1379691" lon="9.1287006"><ele>54.0</ele><time>2026-04-30T09:21:29.734Z</time></trkpt><trkpt lat="41.1377956" lon="9.1285133"><ele>54.0</ele><time>2026-04-30T09:21:30.735Z</time></trkpt><trkpt lat="41.1376204" lon="9.1283248"><ele>54.0</ele><time>2026-04-30T09:21:31.732Z</time></trkpt><trkpt lat="41.1374485" lon="9.1281355"><ele>54.0</ele><time>2026-04-30T09:21:32.738Z</time></trkpt><trkpt lat="41.1372745" lon="9.1279467"><ele>55.0</ele><time>2026-04-30T09:21:33.734Z</time></trkpt><trkpt lat="41.1371026" lon="9.1277559"><ele>56.0</ele><time>2026-04-30T09:21:34.735Z</time></trkpt><trkpt lat="41.1369282" lon="9.1275623"><ele>56.66666666666667</ele><time>2026-04-30T09:21:35.737Z</time></trkpt><trkpt lat="41.1367538" lon="9.1273743"><ele>57.33333333333333</ele><time>2026-04-30T09:21:36.735Z</time></trkpt><trkpt lat="41.1365807" lon="9.1271906"><ele>58.0</ele><time>2026-04-30T09:21:37.733Z</time></trkpt><trkpt lat="41.1364109" lon="9.1270073"><ele>59.0</ele><time>2026-04-30T09:21:38.733Z</time></trkpt><trkpt lat="41.1362361" lon="9.1268154"><ele>60.0</ele><time>2026-04-30T09:21:39.736Z</time></trkpt><trkpt lat="41.1360581" lon="9.1266196"><ele>59.0</ele><time>2026-04-30T09:21:40.736Z</time></trkpt><trkpt lat="41.1358782" lon="9.1264244"><ele>58.0</ele><time>2026-04-30T09:21:41.736Z</time></trkpt><trkpt lat="41.1356987" lon="9.1262281"><ele>60.0</ele><time>2026-04-30T09:21:42.737Z</time></trkpt><trkpt lat="41.1355188" lon="9.1260322"><ele>62.0</ele><time>2026-04-30T09:21:43.733Z</time></trkpt><trkpt lat="41.1353385" lon="9.1258346"><ele>59.5</ele><time>2026-04-30T09:21:44.738Z</time></trkpt><trkpt lat="41.1351575" lon="9.1256374"><ele>57.0</ele><time>2026-04-30T09:21:45.734Z</time></trkpt><trkpt lat="41.1349744" lon="9.1254385"><ele>60.5</ele><time>2026-04-30T09:21:46.735Z</time></trkpt><trkpt lat="41.1347904" lon="9.1252368"><ele>64.0</ele><time>2026-04-30T09:21:47.735Z</time></trkpt><trkpt lat="41.1346076" lon="9.1250352"><ele>63.0</ele><time>2026-04-30T09:21:48.736Z</time></trkpt><trkpt lat="41.1344259" lon="9.1248303"><ele>62.0</ele><time>2026-04-30T09:21:49.735Z</time></trkpt><trkpt lat="41.1342508" lon="9.1246196"><ele>62.0</ele><time>2026-04-30T09:21:50.734Z</time></trkpt><trkpt lat="41.1340814" lon="9.1243992"><ele>62.0</ele><time>2026-04-30T09:21:51.741Z</time></trkpt><trkpt lat="41.1339168" lon="9.1241694"><ele>64.5</ele><time>2026-04-30T09:21:52.736Z</time></trkpt><trkpt lat="41.1337579" lon="9.1239281"><ele>67.0</ele><time>2026-04-30T09:21:53.737Z</time></trkpt><trkpt lat="41.1336047" lon="9.1236762"><ele>67.0</ele><time>2026-04-30T09:21:54.736Z</time></trkpt><trkpt lat="41.1334582" lon="9.1234116"><ele>67.0</ele><time>2026-04-30T09:21:55.735Z</time></trkpt><trkpt lat="41.133317" lon="9.1231356"><ele>66.5</ele><time>2026-04-30T09:21:56.738Z</time></trkpt><trkpt lat="41.13318" lon="9.1228465"><ele>66.0</ele><time>2026-04-30T09:21:57.735Z</time></trkpt><trkpt lat="41.1330424" lon="9.1225514"><ele>64.0</ele><time>2026-04-30T09:21:58.735Z</time></trkpt><trkpt lat="41.1329027" lon="9.1222527"><ele>62.0</ele><time>2026-04-30T09:21:59.737Z</time></trkpt><trkpt lat="41.13276" lon="9.1219538"><ele>62.0</ele><time>2026-04-30T09:22:00.736Z</time></trkpt><trkpt lat="41.1326152" lon="9.1216516"><ele>62.0</ele><time>2026-04-30T09:22:01.734Z</time></trkpt><trkpt lat="41.1324742" lon="9.1213468"><ele>63.5</ele><time>2026-04-30T09:22:02.734Z</time></trkpt><trkpt lat="41.1323356" lon="9.1210503"><ele>65.0</ele><time>2026-04-30T09:22:03.732Z</time></trkpt><trkpt lat="41.1321986" lon="9.1207597"><ele>65.0</ele><time>2026-04-30T09:22:04.737Z</time></trkpt><trkpt lat="41.1320621" lon="9.1204659"><ele>65.0</ele><time>2026-04-30T09:22:05.735Z</time></trkpt><trkpt lat="41.1319259" lon="9.1201733"><ele>64.5</ele><time>2026-04-30T09:22:06.735Z</time></trkpt><trkpt lat="41.1317875" lon="9.1198789"><ele>64.0</ele><time>2026-04-30T09:22:07.742Z</time></trkpt><trkpt lat="41.1316498" lon="9.1195822"><ele>64.0</ele><time>2026-04-30T09:22:08.736Z</time></trkpt><trkpt lat="41.1315105" lon="9.1192834"><ele>64.0</ele><time>2026-04-30T09:22:09.738Z</time></trkpt><trkpt lat="41.131369" lon="9.1189831"><ele>64.0</ele><time>2026-04-30T09:22:10.735Z</time></trkpt><trkpt lat="41.1312265" lon="9.1186819"><ele>64.0</ele><time>2026-04-30T09:22:11.733Z</time></trkpt><trkpt lat="41.131082" lon="9.1183772"><ele>62.0</ele><time>2026-04-30T09:22:12.736Z</time></trkpt><trkpt lat="41.1309369" lon="9.1180679"><ele>60.0</ele><time>2026-04-30T09:22:13.736Z</time></trkpt><trkpt lat="41.13079" lon="9.1177565"><ele>55.5</ele><time>2026-04-30T09:22:14.736Z</time></trkpt><trkpt lat="41.1306425" lon="9.1174394"><ele>51.0</ele><time>2026-04-30T09:22:15.733Z</time></trkpt><trkpt lat="41.1304941" lon="9.117119"><ele>49.5</ele><time>2026-04-30T09:22:16.733Z</time></trkpt><trkpt lat="41.1303458" lon="9.1167988"><ele>48.0</ele><time>2026-04-30T09:22:17.734Z</time></trkpt><trkpt lat="41.1301965" lon="9.1164804"><ele>47.5</ele><time>2026-04-30T09:22:18.735Z</time></trkpt><trkpt lat="41.1300483" lon="9.1161636"><ele>47.0</ele><time>2026-04-30T09:22:19.736Z</time></trkpt><trkpt lat="41.1299005" lon="9.1158497"><ele>51.5</ele><time>2026-04-30T09:22:20.733Z</time></trkpt><trkpt lat="41.1297564" lon="9.1155403"><ele>56.0</ele><time>2026-04-30T09:22:21.735Z</time></trkpt><trkpt lat="41.1296139" lon="9.1152342"><ele>56.0</ele><time>2026-04-30T09:22:22.735Z</time></trkpt><trkpt lat="41.1294725" lon="9.114932"><ele>56.0</ele><time>2026-04-30T09:22:23.732Z</time></trkpt><trkpt lat="41.1293334" lon="9.1146343"><ele>57.5</ele><time>2026-04-30T09:22:24.736Z</time></trkpt><trkpt lat="41.129196" lon="9.1143419"><ele>59.0</ele><time>2026-04-30T09:22:25.736Z</time></trkpt><trkpt lat="41.1290611" lon="9.1140558"><ele>62.0</ele><time>2026-04-30T09:22:26.734Z</time></trkpt><trkpt lat="41.1289286" lon="9.1137764"><ele>65.0</ele><time>2026-04-30T09:22:27.737Z</time></trkpt><trkpt lat="41.1288001" lon="9.1134982"><ele>64.0</ele><time>2026-04-30T09:22:28.734Z</time></trkpt><trkpt lat="41.1286729" lon="9.1132222"><ele>63.0</ele><time>2026-04-30T09:22:29.733Z</time></trkpt><trkpt lat="41.1285448" lon="9.1129475"><ele>63.0</ele><time>2026-04-30T09:22:30.737Z</time></trkpt><trkpt lat="41.128419" lon="9.1126717"><ele>63.0</ele><time>2026-04-30T09:22:31.737Z</time></trkpt><trkpt lat="41.1282982" lon="9.1123902"><ele>64.5</ele><time>2026-04-30T09:22:32.737Z</time></trkpt><trkpt lat="41.1281854" lon="9.1121019"><ele>66.0</ele><time>2026-04-30T09:22:33.734Z</time></trkpt><trkpt lat="41.1280806" lon="9.1118058"><ele>64.5</ele><time>2026-04-30T09:22:34.739Z</time></trkpt><trkpt lat="41.1279838" lon="9.1115003"><ele>63.0</ele><time>2026-04-30T09:22:35.736Z</time></trkpt><trkpt lat="41.1278966" lon="9.1111896"><ele>63.0</ele><time>2026-04-30T09:22:36.734Z</time></trkpt><trkpt lat="41.1278241" lon="9.1108842"><ele>63.0</ele><time>2026-04-30T09:22:37.735Z</time></trkpt><trkpt lat="41.1277639" lon="9.1105748"><ele>63.0</ele><time>2026-04-30T09:22:38.736Z</time></trkpt><trkpt lat="41.1277148" lon="9.1102592"><ele>63.0</ele><time>2026-04-30T09:22:39.734Z</time></trkpt><trkpt lat="41.127675" lon="9.1099405"><ele>63.0</ele><time>2026-04-30T09:22:40.735Z</time></trkpt><trkpt lat="41.1276438" lon="9.1096184"><ele>63.0</ele><time>2026-04-30T09:22:41.735Z</time></trkpt><trkpt lat="41.1276239" lon="9.109302"><ele>62.33333333333333</ele><time>2026-04-30T09:22:42.735Z</time></trkpt><trkpt lat="41.127614" lon="9.1089992"><ele>61.666666666666664</ele><time>2026-04-30T09:22:43.737Z</time></trkpt><trkpt lat="41.1276086" lon="9.108711"><ele>61.0</ele><time>2026-04-30T09:22:44.736Z</time></trkpt><trkpt lat="41.1276041" lon="9.1084376"><ele>60.666666666666664</ele><time>2026-04-30T09:22:45.735Z</time></trkpt><trkpt lat="41.1275989" lon="9.108176"><ele>60.33333333333333</ele><time>2026-04-30T09:22:46.735Z</time></trkpt><trkpt lat="41.1275932" lon="9.1079186"><ele>60.0</ele><time>2026-04-30T09:22:47.733Z</time></trkpt><trkpt lat="41.127588" lon="9.1076592"><ele>60.33333333333333</ele><time>2026-04-30T09:22:48.734Z</time></trkpt><trkpt lat="41.1275835" lon="9.1074008"><ele>60.666666666666664</ele><time>2026-04-30T09:22:49.736Z</time></trkpt><trkpt lat="41.1275801" lon="9.1071432"><ele>61.0</ele><time>2026-04-30T09:22:50.736Z</time></trkpt><trkpt lat="41.1275772" lon="9.1068833"><ele>61.0</ele><time>2026-04-30T09:22:51.736Z</time></trkpt><trkpt lat="41.1275733" lon="9.1066219"><ele>61.0</ele><time>2026-04-30T09:22:52.735Z</time></trkpt><trkpt lat="41.1275679" lon="9.106358"><ele>61.0</ele><time>2026-04-30T09:22:53.735Z</time></trkpt><trkpt lat="41.1275619" lon="9.1060924"><ele>60.666666666666664</ele><time>2026-04-30T09:22:54.733Z</time></trkpt><trkpt lat="41.1275553" lon="9.1058318"><ele>60.33333333333333</ele><time>2026-04-30T09:22:55.736Z</time></trkpt><trkpt lat="41.1275501" lon="9.1055791"><ele>60.0</ele><time>2026-04-30T09:22:56.736Z</time></trkpt><trkpt lat="41.1275441" lon="9.1053248"><ele>59.66666666666667</ele><time>2026-04-30T09:22:57.736Z</time></trkpt><trkpt lat="41.1275395" lon="9.1050729"><ele>59.333333333333336</ele><time>2026-04-30T09:22:58.735Z</time></trkpt><trkpt lat="41.1275334" lon="9.1048235"><ele>59.0</ele><time>2026-04-30T09:22:59.735Z</time></trkpt><trkpt lat="41.1275276" lon="9.1045857"><ele>59.0</ele><time>2026-04-30T09:23:00.734Z</time></trkpt><trkpt lat="41.1275222" lon="9.1043553"><ele>59.0</ele><time>2026-04-30T09:23:01.734Z</time></trkpt><trkpt lat="41.1275173" lon="9.1041337"><ele>59.0</ele><time>2026-04-30T09:23:02.735Z</time></trkpt><trkpt lat="41.1275126" lon="9.1039196"><ele>59.75</ele><time>2026-04-30T09:23:03.735Z</time></trkpt><trkpt lat="41.1275103" lon="9.1037277"><ele>60.5</ele><time>2026-04-30T09:23:04.736Z</time></trkpt><trkpt lat="41.1275083" lon="9.1035615"><ele>61.25</ele><time>2026-04-30T09:23:05.734Z</time></trkpt><trkpt lat="41.1275063" lon="9.1034078"><ele>62.0</ele><time>2026-04-30T09:23:06.734Z</time></trkpt><trkpt lat="41.1275041" lon="9.1032508"><ele>62.25</ele><time>2026-04-30T09:23:07.733Z</time></trkpt><trkpt lat="41.1275028" lon="9.1030882"><ele>62.5</ele><time>2026-04-30T09:23:08.738Z</time></trkpt><trkpt lat="41.1275004" lon="9.102917"><ele>62.75</ele><time>2026-04-30T09:23:09.734Z</time></trkpt><trkpt lat="41.1274948" lon="9.1027319"><ele>63.0</ele><time>2026-04-30T09:23:10.737Z</time></trkpt><trkpt lat="41.1274904" lon="9.1025302"><ele>63.33333333333333</ele><time>2026-04-30T09:23:11.735Z</time></trkpt><trkpt lat="41.1274853" lon="9.1023085"><ele>63.666666666666664</ele><time>2026-04-30T09:23:12.735Z</time></trkpt><trkpt lat="41.1274808" lon="9.1020734"><ele>64.0</ele><time>2026-04-30T09:23:13.735Z</time></trkpt><trkpt lat="41.1274761" lon="9.1018263"><ele>63.666666666666664</ele><time>2026-04-30T09:23:14.735Z</time></trkpt><trkpt lat="41.1274703" lon="9.1015636"><ele>63.33333333333333</ele><time>2026-04-30T09:23:15.734Z</time></trkpt><trkpt lat="41.1274634" lon="9.10129"><ele>63.0</ele><time>2026-04-30T09:23:16.735Z</time></trkpt><trkpt lat="41.1274579" lon="9.1010231"><ele>61.66666666666667</ele><time>2026-04-30T09:23:17.735Z</time></trkpt><trkpt lat="41.1274519" lon="9.100748"><ele>60.333333333333336</ele><time>2026-04-30T09:23:18.735Z</time></trkpt><trkpt lat="41.1274456" lon="9.1004689"><ele>59.0</ele><time>2026-04-30T09:23:19.734Z</time></trkpt><trkpt lat="41.1274402" lon="9.1001813"><ele>58.0</ele><time>2026-04-30T09:23:20.734Z</time></trkpt><trkpt lat="41.1274357" lon="9.0998866"><ele>57.0</ele><time>2026-04-30T09:23:21.739Z</time></trkpt><trkpt lat="41.1274305" lon="9.0995852"><ele>56.0</ele><time>2026-04-30T09:23:22.734Z</time></trkpt><trkpt lat="41.1274242" lon="9.0992756"><ele>54.5</ele><time>2026-04-30T09:23:23.736Z</time></trkpt><trkpt lat="41.1274192" lon="9.0989649"><ele>53.0</ele><time>2026-04-30T09:23:24.736Z</time></trkpt><trkpt lat="41.1274172" lon="9.0986635"><ele>53.0</ele><time>2026-04-30T09:23:25.736Z</time></trkpt><trkpt lat="41.1274162" lon="9.0983701"><ele>53.0</ele><time>2026-04-30T09:23:26.736Z</time></trkpt><trkpt lat="41.1274167" lon="9.098074"><ele>53.0</ele><time>2026-04-30T09:23:27.736Z</time></trkpt><trkpt lat="41.1274208" lon="9.0977869"><ele>53.0</ele><time>2026-04-30T09:23:28.737Z</time></trkpt><trkpt lat="41.1274286" lon="9.0975066"><ele>53.0</ele><time>2026-04-30T09:23:29.738Z</time></trkpt><trkpt lat="41.1274404" lon="9.0972324"><ele>53.0</ele><time>2026-04-30T09:23:30.736Z</time></trkpt><trkpt lat="41.1274554" lon="9.0969665"><ele>52.66666666666667</ele><time>2026-04-30T09:23:31.734Z</time></trkpt><trkpt lat="41.1274698" lon="9.0967024"><ele>52.33333333333333</ele><time>2026-04-30T09:23:32.735Z</time></trkpt><trkpt lat="41.1274865" lon="9.0964345"><ele>52.0</ele><time>2026-04-30T09:23:33.734Z</time></trkpt><trkpt lat="41.1275007" lon="9.096171"><ele>51.0</ele><time>2026-04-30T09:23:34.736Z</time></trkpt><trkpt lat="41.1275174" lon="9.0959111"><ele>50.0</ele><time>2026-04-30T09:23:35.734Z</time></trkpt><trkpt lat="41.1275338" lon="9.0956532"><ele>49.0</ele><time>2026-04-30T09:23:36.735Z</time></trkpt><trkpt lat="41.1275517" lon="9.0953959"><ele>47.33333333333333</ele><time>2026-04-30T09:23:37.736Z</time></trkpt><trkpt lat="41.1275689" lon="9.0951325"><ele>45.666666666666664</ele><time>2026-04-30T09:23:38.735Z</time></trkpt><trkpt lat="41.1275868" lon="9.0948627"><ele>44.0</ele><time>2026-04-30T09:23:39.737Z</time></trkpt><trkpt lat="41.1276021" lon="9.0945889"><ele>41.666666666666664</ele><time>2026-04-30T09:23:40.737Z</time></trkpt><trkpt lat="41.1276187" lon="9.0943121"><ele>39.333333333333336</ele><time>2026-04-30T09:23:41.737Z</time></trkpt><trkpt lat="41.1276348" lon="9.0940316"><ele>37.0</ele><time>2026-04-30T09:23:42.736Z</time></trkpt><trkpt lat="41.1276483" lon="9.0937486"><ele>35.0</ele><time>2026-04-30T09:23:43.734Z</time></trkpt><trkpt lat="41.1276586" lon="9.0934619"><ele>33.0</ele><time>2026-04-30T09:23:44.737Z</time></trkpt><trkpt lat="41.1276593" lon="9.0931698"><ele>31.0</ele><time>2026-04-30T09:23:45.734Z</time></trkpt><trkpt lat="41.1276456" lon="9.0928754"><ele>29.666666666666668</ele><time>2026-04-30T09:23:46.734Z</time></trkpt><trkpt lat="41.1276228" lon="9.0925805"><ele>28.333333333333336</ele><time>2026-04-30T09:23:47.737Z</time></trkpt><trkpt lat="41.1275875" lon="9.0922867"><ele>27.0</ele><time>2026-04-30T09:23:48.735Z</time></trkpt><trkpt lat="41.1275393" lon="9.0919894"><ele>24.5</ele><time>2026-04-30T09:23:49.735Z</time></trkpt><trkpt lat="41.1274809" lon="9.0916923"><ele>22.0</ele><time>2026-04-30T09:23:50.734Z</time></trkpt><trkpt lat="41.1274151" lon="9.0913951"><ele>16.0</ele><time>2026-04-30T09:23:51.735Z</time></trkpt><trkpt lat="41.127338" lon="9.0910971"><ele>10.0</ele><time>2026-04-30T09:23:52.734Z</time></trkpt><trkpt lat="41.1272578" lon="9.0907958"><ele>10.0</ele><time>2026-04-30T09:23:53.736Z</time></trkpt><trkpt lat="41.1271755" lon="9.0904911"><ele>10.0</ele><time>2026-04-30T09:23:54.739Z</time></trkpt><trkpt lat="41.1270939" lon="9.0901831"><ele>10.0</ele><time>2026-04-30T09:23:55.736Z</time></trkpt><trkpt lat="41.1270093" lon="9.0898701"><ele>10.0</ele><time>2026-04-30T09:23:56.733Z</time></trkpt><trkpt lat="41.1269238" lon="9.089557"><ele>10.0</ele><time>2026-04-30T09:23:57.735Z</time></trkpt><trkpt lat="41.1268376" lon="9.0892417"><ele>10.0</ele><time>2026-04-30T09:23:58.734Z</time></trkpt><trkpt lat="41.126752" lon="9.0889261"><ele>10.5</ele><time>2026-04-30T09:23:59.734Z</time></trkpt><trkpt lat="41.126666" lon="9.0886116"><ele>11.0</ele><time>2026-04-30T09:24:00.735Z</time></trkpt><trkpt lat="41.1265794" lon="9.0882968"><ele>13.5</ele><time>2026-04-30T09:24:01.736Z</time></trkpt><trkpt lat="41.126494" lon="9.0879833"><ele>16.0</ele><time>2026-04-30T09:24:02.734Z</time></trkpt><trkpt lat="41.1264084" lon="9.0876709"><ele>15.5</ele><time>2026-04-30T09:24:03.734Z</time></trkpt><trkpt lat="41.1263251" lon="9.087361"><ele>15.0</ele><time>2026-04-30T09:24:04.732Z</time></trkpt><trkpt lat="41.1262404" lon="9.0870506"><ele>15.0</ele><time>2026-04-30T09:24:05.734Z</time></trkpt><trkpt lat="41.1261579" lon="9.0867442"><ele>15.0</ele><time>2026-04-30T09:24:06.735Z</time></trkpt><trkpt lat="41.1260761" lon="9.0864391"><ele>15.0</ele><time>2026-04-30T09:24:07.737Z</time></trkpt><trkpt lat="41.1259959" lon="9.0861376"><ele>15.0</ele><time>2026-04-30T09:24:08.734Z</time></trkpt><trkpt lat="41.1259182" lon="9.0858523"><ele>15.333333333333332</ele><time>2026-04-30T09:24:09.736Z</time></trkpt><trkpt lat="41.1258425" lon="9.0855797"><ele>15.666666666666666</ele><time>2026-04-30T09:24:10.738Z</time></trkpt><trkpt lat="41.1257759" lon="9.0853299"><ele>16.0</ele><time>2026-04-30T09:24:11.732Z</time></trkpt><trkpt lat="41.1257212" lon="9.0851127"><ele>16.0</ele><time>2026-04-30T09:24:12.735Z</time></trkpt><trkpt lat="41.1256726" lon="9.0849202"><ele>16.0</ele><time>2026-04-30T09:24:13.735Z</time></trkpt><trkpt lat="41.1256292" lon="9.0847416"><ele>16.0</ele><time>2026-04-30T09:24:14.736Z</time></trkpt><trkpt lat="41.1255892" lon="9.0845689"><ele>16.0</ele><time>2026-04-30T09:24:15.734Z</time></trkpt><trkpt lat="41.1255566" lon="9.084404"><ele>16.0</ele><time>2026-04-30T09:24:16.734Z</time></trkpt><trkpt lat="41.125529" lon="9.0842396"><ele>16.0</ele><time>2026-04-30T09:24:17.735Z</time></trkpt><trkpt lat="41.125504" lon="9.0840704"><ele>16.0</ele><time>2026-04-30T09:24:18.736Z</time></trkpt><trkpt lat="41.1254774" lon="9.0838902"><ele>16.0</ele><time>2026-04-30T09:24:19.736Z</time></trkpt><trkpt lat="41.1254511" lon="9.083701"><ele>16.0</ele><time>2026-04-30T09:24:20.737Z</time></trkpt><trkpt lat="41.1254271" lon="9.0834927"><ele>16.0</ele><time>2026-04-30T09:24:21.734Z</time></trkpt><trkpt lat="41.1254037" lon="9.0832614"><ele>16.0</ele><time>2026-04-30T09:24:22.735Z</time></trkpt><trkpt lat="41.1253817" lon="9.0830086"><ele>16.0</ele><time>2026-04-30T09:24:23.734Z</time></trkpt><trkpt lat="41.1253642" lon="9.0827338"><ele>16.0</ele><time>2026-04-30T09:24:24.734Z</time></trkpt><trkpt lat="41.1253482" lon="9.0824428"><ele>16.0</ele><time>2026-04-30T09:24:25.735Z</time></trkpt><trkpt lat="41.1253351" lon="9.0821459"><ele>15.0</ele><time>2026-04-30T09:24:26.734Z</time></trkpt><trkpt lat="41.1253265" lon="9.0818424"><ele>14.0</ele><time>2026-04-30T09:24:27.736Z</time></trkpt><trkpt lat="41.12532" lon="9.0815341"><ele>13.666666666666668</ele><time>2026-04-30T09:24:28.738Z</time></trkpt><trkpt lat="41.1253136" lon="9.0812311"><ele>13.333333333333332</ele><time>2026-04-30T09:24:29.735Z</time></trkpt><trkpt lat="41.1253019" lon="9.0809395"><ele>13.0</ele><time>2026-04-30T09:24:30.734Z</time></trkpt><trkpt lat="41.1252888" lon="9.0806462"><ele>12.666666666666666</ele><time>2026-04-30T09:24:31.734Z</time></trkpt><trkpt lat="41.12528" lon="9.0803535"><ele>12.333333333333332</ele><time>2026-04-30T09:24:32.735Z</time></trkpt><trkpt lat="41.12527" lon="9.0800608"><ele>12.0</ele><time>2026-04-30T09:24:33.735Z</time></trkpt><trkpt lat="41.1252589" lon="9.0797672"><ele>12.0</ele><time>2026-04-30T09:24:34.734Z</time></trkpt><trkpt lat="41.1252473" lon="9.0794744"><ele>12.0</ele><time>2026-04-30T09:24:35.734Z</time></trkpt><trkpt lat="41.1252359" lon="9.0791826"><ele>12.0</ele><time>2026-04-30T09:24:36.736Z</time></trkpt><trkpt lat="41.1252235" lon="9.0788873"><ele>12.0</ele><time>2026-04-30T09:24:37.734Z</time></trkpt><trkpt lat="41.1252108" lon="9.0785917"><ele>12.0</ele><time>2026-04-30T09:24:38.735Z</time></trkpt><trkpt lat="41.1251985" lon="9.0782945"><ele>12.0</ele><time>2026-04-30T09:24:39.734Z</time></trkpt><trkpt lat="41.1251857" lon="9.0779956"><ele>11.5</ele><time>2026-04-30T09:24:40.735Z</time></trkpt><trkpt lat="41.1251727" lon="9.0776927"><ele>11.0</ele><time>2026-04-30T09:24:41.735Z</time></trkpt><trkpt lat="41.1251598" lon="9.0773902"><ele>11.0</ele><time>2026-04-30T09:24:42.736Z</time></trkpt><trkpt lat="41.1251478" lon="9.077091"><ele>11.0</ele><time>2026-04-30T09:24:43.733Z</time></trkpt><trkpt lat="41.1251358" lon="9.0767953"><ele>11.0</ele><time>2026-04-30T09:24:44.734Z</time></trkpt><trkpt lat="41.1251248" lon="9.0765002"><ele>11.333333333333332</ele><time>2026-04-30T09:24:45.734Z</time></trkpt><trkpt lat="41.1251126" lon="9.0762026"><ele>11.666666666666666</ele><time>2026-04-30T09:24:46.739Z</time></trkpt><trkpt lat="41.1251001" lon="9.0759052"><ele>12.0</ele><time>2026-04-30T09:24:47.734Z</time></trkpt><trkpt lat="41.1250881" lon="9.0756054"><ele>13.5</ele><time>2026-04-30T09:24:48.734Z</time></trkpt><trkpt lat="41.125075" lon="9.0753041"><ele>15.0</ele><time>2026-04-30T09:24:49.733Z</time></trkpt><trkpt lat="41.1250614" lon="9.075003"><ele>15.5</ele><time>2026-04-30T09:24:50.734Z</time></trkpt><trkpt lat="41.1250475" lon="9.0746974"><ele>16.0</ele><time>2026-04-30T09:24:51.735Z</time></trkpt><trkpt lat="41.1250361" lon="9.0744005"><ele>16.0</ele><time>2026-04-30T09:24:52.738Z</time></trkpt><trkpt lat="41.125024" lon="9.0741204"><ele>16.0</ele><time>2026-04-30T09:24:53.734Z</time></trkpt><trkpt lat="41.125011" lon="9.0738576"><ele>16.0</ele><time>2026-04-30T09:24:54.735Z</time></trkpt><trkpt lat="41.1249991" lon="9.0735957"><ele>16.0</ele><time>2026-04-30T09:24:55.735Z</time></trkpt><trkpt lat="41.1249869" lon="9.0733336"><ele>16.0</ele><time>2026-04-30T09:24:56.734Z</time></trkpt><trkpt lat="41.1249693" lon="9.0730721"><ele>16.0</ele><time>2026-04-30T09:24:57.734Z</time></trkpt><trkpt lat="41.1249427" lon="9.0728126"><ele>15.666666666666666</ele><time>2026-04-30T09:24:58.735Z</time></trkpt><trkpt lat="41.1249109" lon="9.072563"><ele>15.333333333333332</ele><time>2026-04-30T09:24:59.736Z</time></trkpt><trkpt lat="41.1248713" lon="9.0723274"><ele>15.0</ele><time>2026-04-30T09:25:00.735Z</time></trkpt><trkpt lat="41.1248214" lon="9.0720951"><ele>14.666666666666668</ele><time>2026-04-30T09:25:01.741Z</time></trkpt><trkpt lat="41.1247596" lon="9.0718701"><ele>14.333333333333334</ele><time>2026-04-30T09:25:02.736Z</time></trkpt><trkpt lat="41.1246941" lon="9.0716562"><ele>14.0</ele><time>2026-04-30T09:25:03.737Z</time></trkpt><trkpt lat="41.1246242" lon="9.0714518"><ele>14.0</ele><time>2026-04-30T09:25:04.736Z</time></trkpt><trkpt lat="41.124553" lon="9.0712661"><ele>14.0</ele><time>2026-04-30T09:25:05.735Z</time></trkpt><trkpt lat="41.1244802" lon="9.0710916"><ele>14.0</ele><time>2026-04-30T09:25:06.736Z</time></trkpt><trkpt lat="41.1244039" lon="9.0709311"><ele>14.0</ele><time>2026-04-30T09:25:07.735Z</time></trkpt><trkpt lat="41.1243283" lon="9.0707815"><ele>14.0</ele><time>2026-04-30T09:25:08.737Z</time></trkpt><trkpt lat="41.1242497" lon="9.0706361"><ele>14.0</ele><time>2026-04-30T09:25:09.737Z</time></trkpt><trkpt lat="41.1241675" lon="9.0704932"><ele>14.0</ele><time>2026-04-30T09:25:10.735Z</time></trkpt><trkpt lat="41.1240768" lon="9.0703525"><ele>13.75</ele><time>2026-04-30T09:25:11.738Z</time></trkpt><trkpt lat="41.1239805" lon="9.0702151"><ele>13.5</ele><time>2026-04-30T09:25:12.736Z</time></trkpt><trkpt lat="41.1238785" lon="9.0700785"><ele>13.25</ele><time>2026-04-30T09:25:13.735Z</time></trkpt><trkpt lat="41.1237724" lon="9.0699441"><ele>13.0</ele><time>2026-04-30T09:25:14.734Z</time></trkpt><trkpt lat="41.1236664" lon="9.0698108"><ele>12.75</ele><time>2026-04-30T09:25:15.734Z</time></trkpt><trkpt lat="41.1235689" lon="9.0696861"><ele>12.5</ele><time>2026-04-30T09:25:16.736Z</time></trkpt><trkpt lat="41.1234786" lon="9.0695675"><ele>12.25</ele><time>2026-04-30T09:25:17.732Z</time></trkpt><trkpt lat="41.1233978" lon="9.0694612"><ele>12.0</ele><time>2026-04-30T09:25:18.733Z</time></trkpt><trkpt lat="41.1233257" lon="9.0693692"><ele>12.0</ele><time>2026-04-30T09:25:19.737Z</time></trkpt><trkpt lat="41.123258" lon="9.0692853"><ele>12.0</ele><time>2026-04-30T09:25:20.735Z</time></trkpt><trkpt lat="41.1231979" lon="9.0692032"><ele>12.0</ele><time>2026-04-30T09:25:21.735Z</time></trkpt><trkpt lat="41.1231427" lon="9.0691232"><ele>12.0</ele><time>2026-04-30T09:25:22.736Z</time></trkpt><trkpt lat="41.1230975" lon="9.069038"><ele>12.0</ele><time>2026-04-30T09:25:23.737Z</time></trkpt><trkpt lat="41.123065" lon="9.0689421"><ele>12.0</ele><time>2026-04-30T09:25:24.736Z</time></trkpt><trkpt lat="41.1230407" lon="9.0688417"><ele>11.999999999999998</ele><time>2026-04-30T09:25:25.734Z</time></trkpt><trkpt lat="41.1230125" lon="9.0687439"><ele>12.0</ele><time>2026-04-30T09:25:26.74Z</time></trkpt><trkpt lat="41.1229628" lon="9.0686744"><ele>12.0</ele><time>2026-04-30T09:25:27.735Z</time></trkpt><trkpt lat="41.1229005" lon="9.0686398"><ele>12.0</ele><time>2026-04-30T09:25:28.735Z</time></trkpt><trkpt lat="41.1228374" lon="9.0686439"><ele>12.0</ele><time>2026-04-30T09:25:29.733Z</time></trkpt><trkpt lat="41.1227793" lon="9.0686842"><ele>11.999999999999998</ele><time>2026-04-30T09:25:30.735Z</time></trkpt><trkpt lat="41.1227346" lon="9.0687542"><ele>12.0</ele><time>2026-04-30T09:25:31.735Z</time></trkpt><trkpt lat="41.1226837" lon="9.068842"><ele>12.0</ele><time>2026-04-30T09:25:32.732Z</time></trkpt><trkpt lat="41.1226185" lon="9.0689367"><ele>12.0</ele><time>2026-04-30T09:25:33.733Z</time></trkpt><trkpt lat="41.1225369" lon="9.0690362"><ele>12.0</ele><time>2026-04-30T09:25:34.734Z</time></trkpt><trkpt lat="41.1224364" lon="9.0691335"><ele>12.0</ele><time>2026-04-30T09:25:35.735Z</time></trkpt><trkpt lat="41.1223232" lon="9.069235"><ele>12.666666666666668</ele><time>2026-04-30T09:25:36.733Z</time></trkpt><trkpt lat="41.1222002" lon="9.0693412"><ele>13.333333333333334</ele><time>2026-04-30T09:25:37.734Z</time></trkpt><trkpt lat="41.1220655" lon="9.0694548"><ele>14.0</ele><time>2026-04-30T09:25:38.739Z</time></trkpt><trkpt lat="41.1219204" lon="9.0695715"><ele>14.0</ele><time>2026-04-30T09:25:39.734Z</time></trkpt><trkpt lat="41.1217646" lon="9.0696917"><ele>14.0</ele><time>2026-04-30T09:25:40.733Z</time></trkpt><trkpt lat="41.1216072" lon="9.0698127"><ele>14.0</ele><time>2026-04-30T09:25:41.733Z</time></trkpt><trkpt lat="41.1214503" lon="9.0699349"><ele>17.333333333333336</ele><time>2026-04-30T09:25:42.734Z</time></trkpt><trkpt lat="41.1212961" lon="9.0700569"><ele>20.666666666666668</ele><time>2026-04-30T09:25:43.733Z</time></trkpt><trkpt lat="41.1211585" lon="9.0701678"><ele>24.0</ele><time>2026-04-30T09:25:44.734Z</time></trkpt><trkpt lat="41.1210297" lon="9.0702742"><ele>24.0</ele><time>2026-04-30T09:25:45.734Z</time></trkpt><trkpt lat="41.1209026" lon="9.0703924"><ele>24.0</ele><time>2026-04-30T09:25:46.739Z</time></trkpt><trkpt lat="41.1207809" lon="9.0705238"><ele>24.0</ele><time>2026-04-30T09:25:47.734Z</time></trkpt><trkpt lat="41.1205459" lon="9.0708258"><ele>27.333333333333336</ele><time>2026-04-30T09:25:49.735Z</time></trkpt><trkpt lat="41.1204235" lon="9.070987"><ele>30.666666666666668</ele><time>2026-04-30T09:25:50.736Z</time></trkpt><trkpt lat="41.120297" lon="9.0711545"><ele>34.0</ele><time>2026-04-30T09:25:51.733Z</time></trkpt><trkpt lat="41.1201689" lon="9.071324"><ele>34.0</ele><time>2026-04-30T09:25:52.734Z</time></trkpt><trkpt lat="41.1200348" lon="9.0715012"><ele>34.0</ele><time>2026-04-30T09:25:53.734Z</time></trkpt><trkpt lat="41.1198938" lon="9.0716862"><ele>34.0</ele><time>2026-04-30T09:25:54.734Z</time></trkpt><trkpt lat="41.11975" lon="9.0718776"><ele>36.0</ele><time>2026-04-30T09:25:55.739Z</time></trkpt><trkpt lat="41.11961" lon="9.0720668"><ele>38.0</ele><time>2026-04-30T09:25:56.735Z</time></trkpt><trkpt lat="41.1194718" lon="9.0722541"><ele>40.0</ele><time>2026-04-30T09:25:57.736Z</time></trkpt><trkpt lat="41.1193342" lon="9.0724383"><ele>41.333333333333336</ele><time>2026-04-30T09:25:58.735Z</time></trkpt><trkpt lat="41.1191953" lon="9.0726173"><ele>42.666666666666664</ele><time>2026-04-30T09:25:59.734Z</time></trkpt><trkpt lat="41.119058" lon="9.072784"><ele>44.0</ele><time>2026-04-30T09:26:00.735Z</time></trkpt><trkpt lat="41.1189203" lon="9.072933"><ele>45.0</ele><time>2026-04-30T09:26:01.733Z</time></trkpt><trkpt lat="41.1187781" lon="9.0730666"><ele>46.0</ele><time>2026-04-30T09:26:02.734Z</time></trkpt><trkpt lat="41.1186338" lon="9.0731855"><ele>47.0</ele><time>2026-04-30T09:26:03.735Z</time></trkpt><trkpt lat="41.1184877" lon="9.0732907"><ele>48.0</ele><time>2026-04-30T09:26:04.735Z</time></trkpt><trkpt lat="41.1183412" lon="9.0733905"><ele>49.0</ele><time>2026-04-30T09:26:05.734Z</time></trkpt><trkpt lat="41.1181936" lon="9.0734889"><ele>50.0</ele><time>2026-04-30T09:26:06.733Z</time></trkpt><trkpt lat="41.1180451" lon="9.0735866"><ele>51.0</ele><time>2026-04-30T09:26:07.733Z</time></trkpt><trkpt lat="41.1178979" lon="9.0736868"><ele>52.0</ele><time>2026-04-30T09:26:08.74Z</time></trkpt><trkpt lat="41.117749" lon="9.0737869"><ele>53.0</ele><time>2026-04-30T09:26:09.737Z</time></trkpt><trkpt lat="41.1175939" lon="9.0738902"><ele>53.0</ele><time>2026-04-30T09:26:10.732Z</time></trkpt><trkpt lat="41.1174279" lon="9.0740003"><ele>53.0</ele><time>2026-04-30T09:26:11.734Z</time></trkpt><trkpt lat="41.1172557" lon="9.0741171"><ele>53.0</ele><time>2026-04-30T09:26:12.735Z</time></trkpt><trkpt lat="41.1170771" lon="9.0742371"><ele>55.333333333333336</ele><time>2026-04-30T09:26:13.734Z</time></trkpt><trkpt lat="41.1168919" lon="9.0743637"><ele>57.66666666666667</ele><time>2026-04-30T09:26:14.733Z</time></trkpt><trkpt lat="41.1167037" lon="9.0744979"><ele>60.0</ele><time>2026-04-30T09:26:15.732Z</time></trkpt><trkpt lat="41.1165125" lon="9.0746438"><ele>60.5</ele><time>2026-04-30T09:26:16.742Z</time></trkpt><trkpt lat="41.1163198" lon="9.0747998"><ele>61.0</ele><time>2026-04-30T09:26:17.733Z</time></trkpt><trkpt lat="41.116123" lon="9.0749615"><ele>61.5</ele><time>2026-04-30T09:26:18.733Z</time></trkpt><trkpt lat="41.1159312" lon="9.075121"><ele>62.0</ele><time>2026-04-30T09:26:19.734Z</time></trkpt><trkpt lat="41.1157393" lon="9.0752818"><ele>62.0</ele><time>2026-04-30T09:26:20.734Z</time></trkpt><trkpt lat="41.1155475" lon="9.07544"><ele>62.0</ele><time>2026-04-30T09:26:21.731Z</time></trkpt><trkpt lat="41.1153561" lon="9.0755995"><ele>62.0</ele><time>2026-04-30T09:26:22.732Z</time></trkpt><trkpt lat="41.1151618" lon="9.0757589"><ele>62.0</ele><time>2026-04-30T09:26:23.731Z</time></trkpt><trkpt lat="41.1149742" lon="9.0759122"><ele>62.0</ele><time>2026-04-30T09:26:24.735Z</time></trkpt><trkpt lat="41.1147956" lon="9.0760591"><ele>63.66666666666667</ele><time>2026-04-30T09:26:25.742Z</time></trkpt><trkpt lat="41.1146169" lon="9.0762072"><ele>65.33333333333333</ele><time>2026-04-30T09:26:26.732Z</time></trkpt><trkpt lat="41.1144405" lon="9.0763556"><ele>67.0</ele><time>2026-04-30T09:26:27.733Z</time></trkpt><trkpt lat="41.1142714" lon="9.0765056"><ele>67.33333333333333</ele><time>2026-04-30T09:26:28.732Z</time></trkpt><trkpt lat="41.1141194" lon="9.0766591"><ele>67.66666666666667</ele><time>2026-04-30T09:26:29.732Z</time></trkpt><trkpt lat="41.113975" lon="9.0768249"><ele>68.0</ele><time>2026-04-30T09:26:30.733Z</time></trkpt><trkpt lat="41.1138393" lon="9.0770043"><ele>70.33333333333334</ele><time>2026-04-30T09:26:31.735Z</time></trkpt><trkpt lat="41.1137083" lon="9.0771944"><ele>72.66666666666667</ele><time>2026-04-30T09:26:32.733Z</time></trkpt><trkpt lat="41.1135771" lon="9.0773916"><ele>75.0</ele><time>2026-04-30T09:26:33.733Z</time></trkpt><trkpt lat="41.1134447" lon="9.0775918"><ele>75.33333333333333</ele><time>2026-04-30T09:26:34.732Z</time></trkpt><trkpt lat="41.1133127" lon="9.0777882"><ele>75.66666666666666</ele><time>2026-04-30T09:26:35.734Z</time></trkpt><trkpt lat="41.1131774" lon="9.0779841"><ele>76.0</ele><time>2026-04-30T09:26:36.735Z</time></trkpt><trkpt lat="41.1130396" lon="9.0781817"><ele>78.33333333333333</ele><time>2026-04-30T09:26:37.735Z</time></trkpt><trkpt lat="41.1128996" lon="9.0783823"><ele>80.66666666666667</ele><time>2026-04-30T09:26:38.732Z</time></trkpt><trkpt lat="41.11276" lon="9.0785865"><ele>83.0</ele><time>2026-04-30T09:26:39.734Z</time></trkpt><trkpt lat="41.1126195" lon="9.078791"><ele>83.0</ele><time>2026-04-30T09:26:40.732Z</time></trkpt><trkpt lat="41.1124777" lon="9.0789994"><ele>83.0</ele><time>2026-04-30T09:26:41.732Z</time></trkpt><trkpt lat="41.1123341" lon="9.0792138"><ele>83.0</ele><time>2026-04-30T09:26:42.735Z</time></trkpt><trkpt lat="41.1121867" lon="9.0794324"><ele>84.0</ele><time>2026-04-30T09:26:43.733Z</time></trkpt><trkpt lat="41.1120416" lon="9.0796497"><ele>85.0</ele><time>2026-04-30T09:26:44.734Z</time></trkpt><trkpt lat="41.1118946" lon="9.0798636"><ele>86.0</ele><time>2026-04-30T09:26:45.733Z</time></trkpt><trkpt lat="41.111745" lon="9.0800717"><ele>86.66666666666667</ele><time>2026-04-30T09:26:46.734Z</time></trkpt><trkpt lat="41.1115934" lon="9.080279"><ele>87.33333333333333</ele><time>2026-04-30T09:26:47.734Z</time></trkpt><trkpt lat="41.1114382" lon="9.0804852"><ele>88.0</ele><time>2026-04-30T09:26:48.733Z</time></trkpt><trkpt lat="41.1112803" lon="9.0806911"><ele>90.5</ele><time>2026-04-30T09:26:49.735Z</time></trkpt><trkpt lat="41.1111179" lon="9.0809006"><ele>93.0</ele><time>2026-04-30T09:26:50.734Z</time></trkpt><trkpt lat="41.1109533" lon="9.0811154"><ele>93.0</ele><time>2026-04-30T09:26:51.734Z</time></trkpt><trkpt lat="41.1107906" lon="9.0813293"><ele>93.0</ele><time>2026-04-30T09:26:52.734Z</time></trkpt><trkpt lat="41.1106282" lon="9.0815438"><ele>96.0</ele><time>2026-04-30T09:26:53.733Z</time></trkpt><trkpt lat="41.1104642" lon="9.0817586"><ele>99.0</ele><time>2026-04-30T09:26:54.733Z</time></trkpt><trkpt lat="41.1102999" lon="9.0819712"><ele>99.0</ele><time>2026-04-30T09:26:55.734Z</time></trkpt><trkpt lat="41.1101374" lon="9.0821835"><ele>99.0</ele><time>2026-04-30T09:26:56.735Z</time></trkpt><trkpt lat="41.1099807" lon="9.0823868"><ele>99.0</ele><time>2026-04-30T09:26:57.734Z</time></trkpt><trkpt lat="41.1098332" lon="9.0825783"><ele>102.0</ele><time>2026-04-30T09:26:58.735Z</time></trkpt><trkpt lat="41.1096879" lon="9.0827671"><ele>105.0</ele><time>2026-04-30T09:26:59.734Z</time></trkpt><trkpt lat="41.1095394" lon="9.0829467"><ele>108.0</ele><time>2026-04-30T09:27:00.733Z</time></trkpt><trkpt lat="41.1093826" lon="9.0831204"><ele>108.0</ele><time>2026-04-30T09:27:01.732Z</time></trkpt><trkpt lat="41.109217" lon="9.0832907"><ele>108.0</ele><time>2026-04-30T09:27:02.735Z</time></trkpt><trkpt lat="41.109042" lon="9.0834513"><ele>108.0</ele><time>2026-04-30T09:27:03.733Z</time></trkpt><trkpt lat="41.10886" lon="9.0836079"><ele>108.0</ele><time>2026-04-30T09:27:04.733Z</time></trkpt><trkpt lat="41.1086725" lon="9.0837665"><ele>108.0</ele><time>2026-04-30T09:27:05.735Z</time></trkpt><trkpt lat="41.1084847" lon="9.0839259"><ele>108.0</ele><time>2026-04-30T09:27:06.733Z</time></trkpt><trkpt lat="41.1082944" lon="9.0840872"><ele>105.5</ele><time>2026-04-30T09:27:07.734Z</time></trkpt><trkpt lat="41.1081025" lon="9.0842514"><ele>103.0</ele><time>2026-04-30T09:27:08.733Z</time></trkpt><trkpt lat="41.1079075" lon="9.084415"><ele>103.0</ele><time>2026-04-30T09:27:09.736Z</time></trkpt><trkpt lat="41.107711" lon="9.08458"><ele>103.0</ele><time>2026-04-30T09:27:10.734Z</time></trkpt><trkpt lat="41.1075138" lon="9.0847445"><ele>106.0</ele><time>2026-04-30T09:27:11.733Z</time></trkpt><trkpt lat="41.1073158" lon="9.0849142"><ele>109.0</ele><time>2026-04-30T09:27:12.733Z</time></trkpt><trkpt lat="41.1071158" lon="9.0850838"><ele>110.0</ele><time>2026-04-30T09:27:13.733Z</time></trkpt><trkpt lat="41.1069231" lon="9.085246"><ele>111.0</ele><time>2026-04-30T09:27:14.733Z</time></trkpt><trkpt lat="41.1067347" lon="9.0854039"><ele>113.66666666666666</ele><time>2026-04-30T09:27:15.733Z</time></trkpt><trkpt lat="41.1065471" lon="9.0855613"><ele>116.33333333333333</ele><time>2026-04-30T09:27:16.734Z</time></trkpt><trkpt lat="41.1063632" lon="9.0857176"><ele>119.0</ele><time>2026-04-30T09:27:17.734Z</time></trkpt><trkpt lat="41.1061915" lon="9.0858569"><ele>118.66666666666666</ele><time>2026-04-30T09:27:18.734Z</time></trkpt><trkpt lat="41.1060246" lon="9.0859814"><ele>118.33333333333334</ele><time>2026-04-30T09:27:19.733Z</time></trkpt><trkpt lat="41.1058541" lon="9.0860901"><ele>118.0</ele><time>2026-04-30T09:27:20.733Z</time></trkpt><trkpt lat="41.1056816" lon="9.08617"><ele>118.0</ele><time>2026-04-30T09:27:21.732Z</time></trkpt><trkpt lat="41.1055031" lon="9.0862284"><ele>118.0</ele><time>2026-04-30T09:27:22.735Z</time></trkpt><trkpt lat="41.10532" lon="9.0862746"><ele>118.0</ele><time>2026-04-30T09:27:23.736Z</time></trkpt><trkpt lat="41.1051295" lon="9.0863125"><ele>118.0</ele><time>2026-04-30T09:27:24.734Z</time></trkpt><trkpt lat="41.1049299" lon="9.0863537"><ele>118.0</ele><time>2026-04-30T09:27:25.735Z</time></trkpt><trkpt lat="41.1047206" lon="9.0863993"><ele>118.0</ele><time>2026-04-30T09:27:26.733Z</time></trkpt><trkpt lat="41.1045305" lon="9.0864388"><ele>116.0</ele><time>2026-04-30T09:27:27.733Z</time></trkpt><trkpt lat="41.1043489" lon="9.0864676"><ele>114.0</ele><time>2026-04-30T09:27:28.734Z</time></trkpt><trkpt lat="41.1041772" lon="9.086474"><ele>112.0</ele><time>2026-04-30T09:27:29.733Z</time></trkpt><trkpt lat="41.1040148" lon="9.0864532"><ele>116.33333333333334</ele><time>2026-04-30T09:27:30.734Z</time></trkpt><trkpt lat="41.103855" lon="9.0864006"><ele>120.66666666666666</ele><time>2026-04-30T09:27:31.735Z</time></trkpt><trkpt lat="41.1037039" lon="9.0863134"><ele>125.0</ele><time>2026-04-30T09:27:32.733Z</time></trkpt><trkpt lat="41.1035531" lon="9.0861923"><ele>125.0</ele><time>2026-04-30T09:27:33.733Z</time></trkpt><trkpt lat="41.1034044" lon="9.0860364"><ele>125.0</ele><time>2026-04-30T09:27:34.734Z</time></trkpt><trkpt lat="41.1032557" lon="9.0858555"><ele>125.0</ele><time>2026-04-30T09:27:35.739Z</time></trkpt><trkpt lat="41.103109" lon="9.0856669"><ele>128.33333333333331</ele><time>2026-04-30T09:27:36.734Z</time></trkpt><trkpt lat="41.1029595" lon="9.0854759"><ele>131.66666666666666</ele><time>2026-04-30T09:27:37.734Z</time></trkpt><trkpt lat="41.1028037" lon="9.0852811"><ele>135.0</ele><time>2026-04-30T09:27:38.733Z</time></trkpt><trkpt lat="41.1026417" lon="9.0850803"><ele>135.0</ele><time>2026-04-30T09:27:39.733Z</time></trkpt><trkpt lat="41.1024762" lon="9.0848737"><ele>135.0</ele><time>2026-04-30T09:27:40.736Z</time></trkpt><trkpt lat="41.1023067" lon="9.0846608"><ele>135.0</ele><time>2026-04-30T09:27:41.733Z</time></trkpt><trkpt lat="41.102142" lon="9.0844512"><ele>135.0</ele><time>2026-04-30T09:27:42.732Z</time></trkpt><trkpt lat="41.1019898" lon="9.0842538"><ele>135.0</ele><time>2026-04-30T09:27:43.733Z</time></trkpt><trkpt lat="41.1018351" lon="9.0840618"><ele>134.66666666666666</ele><time>2026-04-30T09:27:44.732Z</time></trkpt><trkpt lat="41.1016753" lon="9.0838775"><ele>134.33333333333331</ele><time>2026-04-30T09:27:45.734Z</time></trkpt><trkpt lat="41.1015041" lon="9.0837138"><ele>134.0</ele><time>2026-04-30T09:27:46.732Z</time></trkpt><trkpt lat="41.1013196" lon="9.0835697"><ele>134.0</ele><time>2026-04-30T09:27:47.734Z</time></trkpt><trkpt lat="41.1011264" lon="9.0834383"><ele>134.0</ele><time>2026-04-30T09:27:48.734Z</time></trkpt><trkpt lat="41.1009276" lon="9.0833109"><ele>134.0</ele><time>2026-04-30T09:27:49.734Z</time></trkpt><trkpt lat="41.1007323" lon="9.0831897"><ele>134.0</ele><time>2026-04-30T09:27:50.733Z</time></trkpt><trkpt lat="41.1005438" lon="9.0830808"><ele>134.0</ele><time>2026-04-30T09:27:51.734Z</time></trkpt><trkpt lat="41.1003614" lon="9.0829996"><ele>134.0</ele><time>2026-04-30T09:27:52.736Z</time></trkpt><trkpt lat="41.1001839" lon="9.0829587"><ele>134.0</ele><time>2026-04-30T09:27:53.733Z</time></trkpt><trkpt lat="41.1000075" lon="9.0829646"><ele>134.0</ele><time>2026-04-30T09:27:54.735Z</time></trkpt><trkpt lat="41.0998344" lon="9.0830153"><ele>134.0</ele><time>2026-04-30T09:27:55.734Z</time></trkpt><trkpt lat="41.0996651" lon="9.0831053"><ele>133.33333333333331</ele><time>2026-04-30T09:27:56.734Z</time></trkpt><trkpt lat="41.0995087" lon="9.0832321"><ele>132.66666666666666</ele><time>2026-04-30T09:27:57.734Z</time></trkpt><trkpt lat="41.0993746" lon="9.0833928"><ele>132.0</ele><time>2026-04-30T09:27:58.732Z</time></trkpt><trkpt lat="41.0992639" lon="9.0835829"><ele>132.0</ele><time>2026-04-30T09:27:59.735Z</time></trkpt><trkpt lat="41.0991702" lon="9.0838016"><ele>132.0</ele><time>2026-04-30T09:28:00.734Z</time></trkpt><trkpt lat="41.0990876" lon="9.0840207"><ele>132.0</ele><time>2026-04-30T09:28:01.733Z</time></trkpt><trkpt lat="41.0990154" lon="9.0842277"><ele>127.66666666666666</ele><time>2026-04-30T09:28:02.735Z</time></trkpt><trkpt lat="41.0989428" lon="9.084425"><ele>123.33333333333333</ele><time>2026-04-30T09:28:03.734Z</time></trkpt><trkpt lat="41.0988733" lon="9.0846137"><ele>119.0</ele><time>2026-04-30T09:28:04.734Z</time></trkpt><trkpt lat="41.0988084" lon="9.0847917"><ele>120.4</ele><time>2026-04-30T09:28:05.734Z</time></trkpt><trkpt lat="41.09875" lon="9.0849507"><ele>121.80000000000001</ele><time>2026-04-30T09:28:06.737Z</time></trkpt><trkpt lat="41.0987027" lon="9.0850858"><ele>123.19999999999999</ele><time>2026-04-30T09:28:07.733Z</time></trkpt><trkpt lat="41.0986622" lon="9.0851958"><ele>124.6</ele><time>2026-04-30T09:28:08.736Z</time></trkpt><trkpt lat="41.0986295" lon="9.0852864"><ele>126.0</ele><time>2026-04-30T09:28:09.736Z</time></trkpt><trkpt lat="41.0985884" lon="9.085408"><ele>126.0</ele><time>2026-04-30T09:28:11.733Z</time></trkpt><trkpt lat="41.098558" lon="9.085497"><ele>126.0</ele><time>2026-04-30T09:28:13.734Z</time></trkpt><trkpt lat="41.0985326" lon="9.0855796"><ele>126.0</ele><time>2026-04-30T09:28:16.733Z</time></trkpt><trkpt lat="41.0985051" lon="9.0856921"><ele>126.0</ele><time>2026-04-30T09:28:32.737Z</time></trkpt><trkpt lat="41.0984813" lon="9.0857904"><ele>126.0</ele><time>2026-04-30T09:28:33.742Z</time></trkpt><trkpt lat="41.0984517" lon="9.0859128"><ele>126.0</ele><time>2026-04-30T09:28:34.733Z</time></trkpt><trkpt lat="41.0984204" lon="9.0860584"><ele>127.0</ele><time>2026-04-30T09:28:35.734Z</time></trkpt><trkpt lat="41.0983859" lon="9.0862262"><ele>128.0</ele><time>2026-04-30T09:28:36.734Z</time></trkpt><trkpt lat="41.0983546" lon="9.0864101"><ele>129.0</ele><time>2026-04-30T09:28:37.733Z</time></trkpt><trkpt lat="41.0983234" lon="9.0865827"><ele>130.0</ele><time>2026-04-30T09:28:38.739Z</time></trkpt><trkpt lat="41.0982954" lon="9.0867416"><ele>130.0</ele><time>2026-04-30T09:28:39.735Z</time></trkpt><trkpt lat="41.0982674" lon="9.0868883"><ele>130.0</ele><time>2026-04-30T09:28:40.734Z</time></trkpt><trkpt lat="41.0982408" lon="9.0870234"><ele>130.0</ele><time>2026-04-30T09:28:41.707Z</time></trkpt><trkpt lat="41.0982146" lon="9.0871529"><ele>130.0</ele><time>2026-04-30T09:28:42.705Z</time></trkpt><trkpt lat="41.0981876" lon="9.0873014"><ele>130.0</ele><time>2026-04-30T09:28:43.704Z</time></trkpt><trkpt lat="41.0981584" lon="9.0874638"><ele>130.0</ele><time>2026-04-30T09:28:44.704Z</time></trkpt><trkpt lat="41.0981258" lon="9.087637"><ele>130.0</ele><time>2026-04-30T09:28:45.706Z</time></trkpt><trkpt lat="41.0980905" lon="9.0878302"><ele>130.0</ele><time>2026-04-30T09:28:46.704Z</time></trkpt><trkpt lat="41.0980582" lon="9.0880389"><ele>130.0</ele><time>2026-04-30T09:28:47.704Z</time></trkpt><trkpt lat="41.0980324" lon="9.0882552"><ele>130.33333333333334</ele><time>2026-04-30T09:28:48.705Z</time></trkpt><trkpt lat="41.0980181" lon="9.0884786"><ele>130.66666666666666</ele><time>2026-04-30T09:28:49.736Z</time></trkpt><trkpt lat="41.0980179" lon="9.0887058"><ele>131.0</ele><time>2026-04-30T09:28:50.734Z</time></trkpt><trkpt lat="41.0980381" lon="9.0889345"><ele>132.0</ele><time>2026-04-30T09:28:51.733Z</time></trkpt><trkpt lat="41.0980689" lon="9.0891674"><ele>133.0</ele><time>2026-04-30T09:28:52.737Z</time></trkpt><trkpt lat="41.098105" lon="9.0894013"><ele>134.0</ele><time>2026-04-30T09:28:53.734Z</time></trkpt><trkpt lat="41.098139" lon="9.0896304"><ele>134.0</ele><time>2026-04-30T09:28:54.734Z</time></trkpt><trkpt lat="41.098168" lon="9.0898519"><ele>134.0</ele><time>2026-04-30T09:28:55.735Z</time></trkpt><trkpt lat="41.0981967" lon="9.0900488"><ele>134.0</ele><time>2026-04-30T09:28:56.736Z</time></trkpt><trkpt lat="41.0982249" lon="9.0902413"><ele>137.5</ele><time>2026-04-30T09:28:57.736Z</time></trkpt><trkpt lat="41.098252" lon="9.0904355"><ele>141.0</ele><time>2026-04-30T09:28:58.737Z</time></trkpt><trkpt lat="41.098277" lon="9.0906254"><ele>144.5</ele><time>2026-04-30T09:28:59.736Z</time></trkpt><trkpt lat="41.0983029" lon="9.090813"><ele>148.0</ele><time>2026-04-30T09:29:00.735Z</time></trkpt><trkpt lat="41.0983278" lon="9.0910015"><ele>148.0</ele><time>2026-04-30T09:29:01.736Z</time></trkpt><trkpt lat="41.0983544" lon="9.0911872"><ele>148.0</ele><time>2026-04-30T09:29:02.738Z</time></trkpt><trkpt lat="41.0983823" lon="9.0913671"><ele>148.0</ele><time>2026-04-30T09:29:03.734Z</time></trkpt><trkpt lat="41.0984094" lon="9.0915352"><ele>148.0</ele><time>2026-04-30T09:29:04.738Z</time></trkpt><trkpt lat="41.0984333" lon="9.0916872"><ele>148.0</ele><time>2026-04-30T09:29:05.734Z</time></trkpt><trkpt lat="41.098454" lon="9.0918246"><ele>148.0</ele><time>2026-04-30T09:29:06.734Z</time></trkpt><trkpt lat="41.0984744" lon="9.0919503"><ele>148.0</ele><time>2026-04-30T09:29:07.735Z</time></trkpt><trkpt lat="41.0984918" lon="9.0920602"><ele>148.0</ele><time>2026-04-30T09:29:08.734Z</time></trkpt><trkpt lat="41.0985116" lon="9.0921739"><ele>148.0</ele><time>2026-04-30T09:29:09.733Z</time></trkpt><trkpt lat="41.0985312" lon="9.0922919"><ele>148.0</ele><time>2026-04-30T09:29:10.738Z</time></trkpt><trkpt lat="41.0985506" lon="9.0924117"><ele>148.0</ele><time>2026-04-30T09:29:11.732Z</time></trkpt><trkpt lat="41.0985668" lon="9.0925308"><ele>148.0</ele><time>2026-04-30T09:29:12.733Z</time></trkpt><trkpt lat="41.0985762" lon="9.0926511"><ele>148.0</ele><time>2026-04-30T09:29:13.735Z</time></trkpt><trkpt lat="41.0985736" lon="9.0927814"><ele>148.0</ele><time>2026-04-30T09:29:14.732Z</time></trkpt><trkpt lat="41.0985654" lon="9.0929222"><ele>149.20000000000002</ele><time>2026-04-30T09:29:15.735Z</time></trkpt><trkpt lat="41.0985573" lon="9.0930653"><ele>150.4</ele><time>2026-04-30T09:29:16.734Z</time></trkpt><trkpt lat="41.098553" lon="9.0932062"><ele>151.60000000000002</ele><time>2026-04-30T09:29:17.735Z</time></trkpt><trkpt lat="41.09855" lon="9.0933515"><ele>152.8</ele><time>2026-04-30T09:29:18.738Z</time></trkpt><trkpt lat="41.0985484" lon="9.0935067"><ele>154.0</ele><time>2026-04-30T09:29:19.735Z</time></trkpt><trkpt lat="41.0985457" lon="9.0936721"><ele>155.75</ele><time>2026-04-30T09:29:20.735Z</time></trkpt><trkpt lat="41.0985432" lon="9.0938501"><ele>157.5</ele><time>2026-04-30T09:29:21.734Z</time></trkpt><trkpt lat="41.0985407" lon="9.0940511"><ele>159.25</ele><time>2026-04-30T09:29:22.732Z</time></trkpt><trkpt lat="41.0985361" lon="9.0942542"><ele>161.0</ele><time>2026-04-30T09:29:23.733Z</time></trkpt><trkpt lat="41.0985299" lon="9.0944672"><ele>163.33333333333331</ele><time>2026-04-30T09:29:24.735Z</time></trkpt><trkpt lat="41.0985251" lon="9.0946891"><ele>165.66666666666666</ele><time>2026-04-30T09:29:25.732Z</time></trkpt><trkpt lat="41.0985204" lon="9.0949153"><ele>168.0</ele><time>2026-04-30T09:29:26.736Z</time></trkpt><trkpt lat="41.0985156" lon="9.0951508"><ele>170.66666666666666</ele><time>2026-04-30T09:29:27.734Z</time></trkpt><trkpt lat="41.0985132" lon="9.0954033"><ele>173.33333333333331</ele><time>2026-04-30T09:29:28.735Z</time></trkpt><trkpt lat="41.0985091" lon="9.0956715"><ele>176.0</ele><time>2026-04-30T09:29:29.732Z</time></trkpt><trkpt lat="41.098505" lon="9.0959528"><ele>177.66666666666666</ele><time>2026-04-30T09:29:30.734Z</time></trkpt><trkpt lat="41.0985012" lon="9.0962433"><ele>179.33333333333334</ele><time>2026-04-30T09:29:31.735Z</time></trkpt><trkpt lat="41.0984969" lon="9.0965461"><ele>181.0</ele><time>2026-04-30T09:29:32.734Z</time></trkpt><trkpt lat="41.0984909" lon="9.0968565"><ele>182.5</ele><time>2026-04-30T09:29:33.734Z</time></trkpt><trkpt lat="41.0984852" lon="9.0971672"><ele>184.0</ele><time>2026-04-30T09:29:34.733Z</time></trkpt><trkpt lat="41.0984789" lon="9.0974781"><ele>184.33333333333334</ele><time>2026-04-30T09:29:35.732Z</time></trkpt><trkpt lat="41.098471" lon="9.0977765"><ele>184.66666666666666</ele><time>2026-04-30T09:29:36.735Z</time></trkpt><trkpt lat="41.0984594" lon="9.0980449"><ele>185.0</ele><time>2026-04-30T09:29:37.734Z</time></trkpt><trkpt lat="41.0984388" lon="9.0982927"><ele>186.33333333333331</ele><time>2026-04-30T09:29:38.734Z</time></trkpt><trkpt lat="41.0984098" lon="9.0985174"><ele>187.66666666666666</ele><time>2026-04-30T09:29:39.734Z</time></trkpt><trkpt lat="41.09837" lon="9.0987229"><ele>189.0</ele><time>2026-04-30T09:29:40.735Z</time></trkpt><trkpt lat="41.0983146" lon="9.0989175"><ele>193.33333333333331</ele><time>2026-04-30T09:29:41.739Z</time></trkpt><trkpt lat="41.0982419" lon="9.0990949"><ele>197.66666666666666</ele><time>2026-04-30T09:29:42.733Z</time></trkpt><trkpt lat="41.0981513" lon="9.0992613"><ele>202.0</ele><time>2026-04-30T09:29:43.732Z</time></trkpt><trkpt lat="41.0980407" lon="9.0994134"><ele>202.0</ele><time>2026-04-30T09:29:44.736Z</time></trkpt><trkpt lat="41.0979141" lon="9.0995462"><ele>202.0</ele><time>2026-04-30T09:29:45.733Z</time></trkpt><trkpt lat="41.0977763" lon="9.0996605"><ele>202.0</ele><time>2026-04-30T09:29:46.734Z</time></trkpt><trkpt lat="41.0976252" lon="9.0997467"><ele>202.0</ele><time>2026-04-30T09:29:47.733Z</time></trkpt><trkpt lat="41.0974554" lon="9.0998175"><ele>202.0</ele><time>2026-04-30T09:29:48.704Z</time></trkpt><trkpt lat="41.0972788" lon="9.0998791"><ele>202.0</ele><time>2026-04-30T09:29:49.703Z</time></trkpt><trkpt lat="41.0970863" lon="9.099945"><ele>203.66666666666666</ele><time>2026-04-30T09:29:50.703Z</time></trkpt><trkpt lat="41.0968814" lon="9.100016"><ele>205.33333333333331</ele><time>2026-04-30T09:29:51.704Z</time></trkpt><trkpt lat="41.0966834" lon="9.1000813"><ele>207.0</ele><time>2026-04-30T09:29:52.705Z</time></trkpt><trkpt lat="41.0964936" lon="9.1001357"><ele>208.66666666666669</ele><time>2026-04-30T09:29:53.706Z</time></trkpt><trkpt lat="41.0963136" lon="9.100171"><ele>210.33333333333334</ele><time>2026-04-30T09:29:54.706Z</time></trkpt><trkpt lat="41.0961353" lon="9.1001781"><ele>212.0</ele><time>2026-04-30T09:29:55.706Z</time></trkpt><trkpt lat="41.0959631" lon="9.1001494"><ele>212.0</ele><time>2026-04-30T09:29:56.706Z</time></trkpt><trkpt lat="41.0957994" lon="9.100085"><ele>212.0</ele><time>2026-04-30T09:29:57.706Z</time></trkpt><trkpt lat="41.0956359" lon="9.0999777"><ele>212.0</ele><time>2026-04-30T09:29:58.706Z</time></trkpt><trkpt lat="41.0954855" lon="9.0998312"><ele>216.0</ele><time>2026-04-30T09:29:59.706Z</time></trkpt><trkpt lat="41.0953515" lon="9.0996488"><ele>220.0</ele><time>2026-04-30T09:30:00.705Z</time></trkpt><trkpt lat="41.0952386" lon="9.0994348"><ele>224.0</ele><time>2026-04-30T09:30:01.705Z</time></trkpt><trkpt lat="41.0951402" lon="9.0991955"><ele>222.5</ele><time>2026-04-30T09:30:02.705Z</time></trkpt><trkpt lat="41.0950416" lon="9.0989296"><ele>221.0</ele><time>2026-04-30T09:30:03.706Z</time></trkpt><trkpt lat="41.0949383" lon="9.0986539"><ele>230.0</ele><time>2026-04-30T09:30:04.706Z</time></trkpt><trkpt lat="41.094829" lon="9.0983697"><ele>239.0</ele><time>2026-04-30T09:30:05.706Z</time></trkpt><trkpt lat="41.0947099" lon="9.098061"><ele>239.0</ele><time>2026-04-30T09:30:06.706Z</time></trkpt><trkpt lat="41.0945994" lon="9.0977692"><ele>239.0</ele><time>2026-04-30T09:30:07.706Z</time></trkpt><trkpt lat="41.0944949" lon="9.0974972"><ele>236.66666666666669</ele><time>2026-04-30T09:30:08.706Z</time></trkpt><trkpt lat="41.094391" lon="9.0972518"><ele>234.33333333333331</ele><time>2026-04-30T09:30:09.706Z</time></trkpt><trkpt lat="41.0942778" lon="9.0970377"><ele>232.0</ele><time>2026-04-30T09:30:10.705Z</time></trkpt><trkpt lat="41.0941432" lon="9.0968531"><ele>233.0</ele><time>2026-04-30T09:30:11.706Z</time></trkpt><trkpt lat="41.0939953" lon="9.0967129"><ele>234.0</ele><time>2026-04-30T09:30:12.706Z</time></trkpt><trkpt lat="41.093836" lon="9.0966121"><ele>235.0</ele><time>2026-04-30T09:30:13.706Z</time></trkpt><trkpt lat="41.0936609" lon="9.0965448"><ele>234.66666666666666</ele><time>2026-04-30T09:30:14.706Z</time></trkpt><trkpt lat="41.0934791" lon="9.096518"><ele>234.33333333333331</ele><time>2026-04-30T09:30:15.706Z</time></trkpt><trkpt lat="41.093294" lon="9.0965348"><ele>234.0</ele><time>2026-04-30T09:30:16.706Z</time></trkpt><trkpt lat="41.093106" lon="9.0965879"><ele>234.0</ele><time>2026-04-30T09:30:17.706Z</time></trkpt><trkpt lat="41.0929072" lon="9.0966636"><ele>234.0</ele><time>2026-04-30T09:30:18.705Z</time></trkpt><trkpt lat="41.0926897" lon="9.0967545"><ele>234.0</ele><time>2026-04-30T09:30:19.706Z</time></trkpt><trkpt lat="41.0924699" lon="9.0968463"><ele>235.0</ele><time>2026-04-30T09:30:20.706Z</time></trkpt><trkpt lat="41.0922494" lon="9.0969376"><ele>236.0</ele><time>2026-04-30T09:30:21.706Z</time></trkpt><trkpt lat="41.0920151" lon="9.0970348"><ele>236.0</ele><time>2026-04-30T09:30:22.706Z</time></trkpt><trkpt lat="41.0917757" lon="9.0971351"><ele>236.0</ele><time>2026-04-30T09:30:23.706Z</time></trkpt><trkpt lat="41.0915259" lon="9.0972391"><ele>234.0</ele><time>2026-04-30T09:30:24.736Z</time></trkpt><trkpt lat="41.091284" lon="9.0973407"><ele>232.0</ele><time>2026-04-30T09:30:25.735Z</time></trkpt><trkpt lat="41.0910621" lon="9.0974353"><ele>236.0</ele><time>2026-04-30T09:30:26.734Z</time></trkpt><trkpt lat="41.0908527" lon="9.0975261"><ele>240.0</ele><time>2026-04-30T09:30:27.733Z</time></trkpt><trkpt lat="41.0906518" lon="9.0976302"><ele>244.0</ele><time>2026-04-30T09:30:28.734Z</time></trkpt><trkpt lat="41.0904645" lon="9.0977577"><ele>244.0</ele><time>2026-04-30T09:30:29.733Z</time></trkpt><trkpt lat="41.0902864" lon="9.0979088"><ele>244.0</ele><time>2026-04-30T09:30:30.733Z</time></trkpt><trkpt lat="41.0901123" lon="9.0980815"><ele>244.0</ele><time>2026-04-30T09:30:31.734Z</time></trkpt><trkpt lat="41.0899326" lon="9.0982717"><ele>246.0</ele><time>2026-04-30T09:30:32.733Z</time></trkpt><trkpt lat="41.0897492" lon="9.0984608"><ele>248.0</ele><time>2026-04-30T09:30:33.733Z</time></trkpt><trkpt lat="41.0895632" lon="9.0986472"><ele>248.0</ele><time>2026-04-30T09:30:34.732Z</time></trkpt><trkpt lat="41.0893801" lon="9.0988359"><ele>248.0</ele><time>2026-04-30T09:30:35.731Z</time></trkpt><trkpt lat="41.0892123" lon="9.0990243"><ele>249.66666666666669</ele><time>2026-04-30T09:30:36.734Z</time></trkpt><trkpt lat="41.089064" lon="9.0992269"><ele>251.33333333333331</ele><time>2026-04-30T09:30:37.735Z</time></trkpt><trkpt lat="41.0889383" lon="9.0994442"><ele>253.0</ele><time>2026-04-30T09:30:38.733Z</time></trkpt><trkpt lat="41.0888331" lon="9.0996728"><ele>256.0</ele><time>2026-04-30T09:30:39.735Z</time></trkpt><trkpt lat="41.0887558" lon="9.0999182"><ele>259.0</ele><time>2026-04-30T09:30:40.736Z</time></trkpt><trkpt lat="41.088705" lon="9.1001757"><ele>262.0</ele><time>2026-04-30T09:30:41.731Z</time></trkpt><trkpt lat="41.0886846" lon="9.1004452"><ele>262.0</ele><time>2026-04-30T09:30:42.732Z</time></trkpt><trkpt lat="41.0886936" lon="9.1007239"><ele>262.0</ele><time>2026-04-30T09:30:43.734Z</time></trkpt><trkpt lat="41.0887301" lon="9.1010129"><ele>262.0</ele><time>2026-04-30T09:30:44.734Z</time></trkpt><trkpt lat="41.0887891" lon="9.1013095"><ele>269.0</ele><time>2026-04-30T09:30:45.735Z</time></trkpt><trkpt lat="41.0888653" lon="9.1016185"><ele>276.0</ele><time>2026-04-30T09:30:46.732Z</time></trkpt><trkpt lat="41.088946" lon="9.1019386"><ele>276.0</ele><time>2026-04-30T09:30:47.733Z</time></trkpt><trkpt lat="41.0890292" lon="9.1022746"><ele>276.0</ele><time>2026-04-30T09:30:48.735Z</time></trkpt><trkpt lat="41.089113" lon="9.1026215"><ele>285.0</ele><time>2026-04-30T09:30:49.733Z</time></trkpt><trkpt lat="41.0891978" lon="9.1029737"><ele>294.0</ele><time>2026-04-30T09:30:50.734Z</time></trkpt><trkpt lat="41.0892819" lon="9.1033075"><ele>294.5</ele><time>2026-04-30T09:30:51.736Z</time></trkpt><trkpt lat="41.0893576" lon="9.1036103"><ele>295.0</ele><time>2026-04-30T09:30:52.735Z</time></trkpt><trkpt lat="41.0894255" lon="9.1038934"><ele>296.3333333333333</ele><time>2026-04-30T09:30:53.739Z</time></trkpt><trkpt lat="41.0894847" lon="9.1041461"><ele>297.6666666666667</ele><time>2026-04-30T09:30:54.734Z</time></trkpt><trkpt lat="41.0895323" lon="9.104388"><ele>299.0</ele><time>2026-04-30T09:30:55.732Z</time></trkpt><trkpt lat="41.0895578" lon="9.1046111"><ele>299.0</ele><time>2026-04-30T09:30:56.734Z</time></trkpt><trkpt lat="41.0895608" lon="9.1048307"><ele>299.0</ele><time>2026-04-30T09:30:57.735Z</time></trkpt><trkpt lat="41.0895309" lon="9.1050443"><ele>299.0</ele><time>2026-04-30T09:30:58.734Z</time></trkpt><trkpt lat="41.089472" lon="9.1052493"><ele>301.6666666666667</ele><time>2026-04-30T09:30:59.732Z</time></trkpt><trkpt lat="41.0893877" lon="9.1054464"><ele>304.3333333333333</ele><time>2026-04-30T09:31:00.732Z</time></trkpt><trkpt lat="41.0892805" lon="9.1056335"><ele>307.0</ele><time>2026-04-30T09:31:01.731Z</time></trkpt><trkpt lat="41.0891545" lon="9.1058098"><ele>308.0</ele><time>2026-04-30T09:31:02.734Z</time></trkpt><trkpt lat="41.089016" lon="9.1059809"><ele>309.0</ele><time>2026-04-30T09:31:03.736Z</time></trkpt><trkpt lat="41.0888762" lon="9.1061553"><ele>310.0</ele><time>2026-04-30T09:31:04.736Z</time></trkpt><trkpt lat="41.0887468" lon="9.1063184"><ele>310.0</ele><time>2026-04-30T09:31:05.734Z</time></trkpt><trkpt lat="41.0886296" lon="9.1064646"><ele>310.0</ele><time>2026-04-30T09:31:06.733Z</time></trkpt><trkpt lat="41.0885255" lon="9.1065957"><ele>310.0</ele><time>2026-04-30T09:31:07.734Z</time></trkpt><trkpt lat="41.0884309" lon="9.1067183"><ele>310.0</ele><time>2026-04-30T09:31:08.733Z</time></trkpt><trkpt lat="41.0883385" lon="9.106833"><ele>307.75</ele><time>2026-04-30T09:31:09.732Z</time></trkpt><trkpt lat="41.0882449" lon="9.1069479"><ele>305.5</ele><time>2026-04-30T09:31:10.734Z</time></trkpt><trkpt lat="41.0881531" lon="9.1070607"><ele>303.25</ele><time>2026-04-30T09:31:11.733Z</time></trkpt><trkpt lat="41.0880646" lon="9.107168"><ele>301.0</ele><time>2026-04-30T09:31:12.734Z</time></trkpt><trkpt lat="41.0879789" lon="9.1072748"><ele>301.0</ele><time>2026-04-30T09:31:13.732Z</time></trkpt><trkpt lat="41.0878977" lon="9.1073763"><ele>301.0</ele><time>2026-04-30T09:31:14.734Z</time></trkpt><trkpt lat="41.0878268" lon="9.1074638"><ele>301.0</ele><time>2026-04-30T09:31:15.735Z</time></trkpt><trkpt lat="41.0877636" lon="9.1075437"><ele>301.0</ele><time>2026-04-30T09:31:16.734Z</time></trkpt><trkpt lat="41.0877139" lon="9.107606"><ele>301.0</ele><time>2026-04-30T09:31:17.733Z</time></trkpt><trkpt lat="41.0876275" lon="9.1077114"><ele>303.0</ele><time>2026-04-30T09:31:19.733Z</time></trkpt><trkpt lat="41.0875443" lon="9.10783"><ele>305.0</ele><time>2026-04-30T09:31:21.736Z</time></trkpt><trkpt lat="41.0874995" lon="9.107905"><ele>307.0</ele><time>2026-04-30T09:31:22.734Z</time></trkpt><trkpt lat="41.0874525" lon="9.1079906"><ele>309.0</ele><time>2026-04-30T09:31:23.734Z</time></trkpt><trkpt lat="41.0874103" lon="9.1080884"><ele>311.0</ele><time>2026-04-30T09:31:24.732Z</time></trkpt><trkpt lat="41.0873693" lon="9.1081964"><ele>312.6666666666667</ele><time>2026-04-30T09:31:25.732Z</time></trkpt><trkpt lat="41.0873387" lon="9.108308"><ele>314.33333333333337</ele><time>2026-04-30T09:31:26.732Z</time></trkpt><trkpt lat="41.087316" lon="9.1084096"><ele>316.0</ele><time>2026-04-30T09:31:27.735Z</time></trkpt><trkpt lat="41.0872994" lon="9.1085075"><ele>317.6666666666667</ele><time>2026-04-30T09:31:28.733Z</time></trkpt><trkpt lat="41.0872887" lon="9.1086063"><ele>319.3333333333333</ele><time>2026-04-30T09:31:29.732Z</time></trkpt><trkpt lat="41.0872815" lon="9.1087053"><ele>321.0</ele><time>2026-04-30T09:31:30.734Z</time></trkpt><trkpt lat="41.0872797" lon="9.1088048"><ele>320.99999999999994</ele><time>2026-04-30T09:31:31.732Z</time></trkpt><trkpt lat="41.0872828" lon="9.1089053"><ele>321.0</ele><time>2026-04-30T09:31:32.732Z</time></trkpt><trkpt lat="41.0872908" lon="9.1090066"><ele>321.0</ele><time>2026-04-30T09:31:33.733Z</time></trkpt><trkpt lat="41.0873025" lon="9.1091071"><ele>321.0</ele><time>2026-04-30T09:31:34.732Z</time></trkpt><trkpt lat="41.0873141" lon="9.1092061"><ele>321.0</ele><time>2026-04-30T09:31:35.734Z</time></trkpt><trkpt lat="41.087322" lon="9.1092973"><ele>320.99999999999994</ele><time>2026-04-30T09:31:36.734Z</time></trkpt><trkpt lat="41.0873306" lon="9.1093895"><ele>321.0</ele><time>2026-04-30T09:31:37.733Z</time></trkpt><trkpt lat="41.0873415" lon="9.1094769"><ele>322.6666666666667</ele><time>2026-04-30T09:31:38.733Z</time></trkpt><trkpt lat="41.0873518" lon="9.1095665"><ele>324.3333333333333</ele><time>2026-04-30T09:31:39.736Z</time></trkpt><trkpt lat="41.0873642" lon="9.1096548"><ele>326.0</ele><time>2026-04-30T09:31:40.734Z</time></trkpt><trkpt lat="41.0873731" lon="9.1097479"><ele>327.66666666666663</ele><time>2026-04-30T09:31:41.735Z</time></trkpt><trkpt lat="41.0873796" lon="9.1098324"><ele>329.3333333333333</ele><time>2026-04-30T09:31:42.734Z</time></trkpt><trkpt lat="41.0873943" lon="9.10997"><ele>331.0</ele><time>2026-04-30T09:31:44.733Z</time></trkpt><trkpt lat="41.0874173" lon="9.1101415"><ele>332.5</ele><time>2026-04-30T09:31:46.735Z</time></trkpt><trkpt lat="41.0874291" lon="9.1102368"><ele>334.0</ele><time>2026-04-30T09:31:47.735Z</time></trkpt><trkpt lat="41.0874406" lon="9.1103243"><ele>335.5</ele><time>2026-04-30T09:31:48.735Z</time></trkpt><trkpt lat="41.0874573" lon="9.1104776"><ele>337.0</ele><time>2026-04-30T09:31:50.732Z</time></trkpt><trkpt lat="41.0874642" lon="9.1105862"><ele>338.5</ele><time>2026-04-30T09:31:52.734Z</time></trkpt><trkpt lat="41.0874562" lon="9.1106858"><ele>340.0</ele><time>2026-04-30T09:33:15.732Z</time></trkpt><trkpt lat="41.0874789" lon="9.1108153"><ele>341.2</ele><time>2026-04-30T09:33:17.739Z</time></trkpt><trkpt lat="41.0874926" lon="9.1109081"><ele>342.4</ele><time>2026-04-30T09:33:18.734Z</time></trkpt><trkpt lat="41.087506" lon="9.1110161"><ele>343.6</ele><time>2026-04-30T09:33:19.738Z</time></trkpt><trkpt lat="41.0875224" lon="9.1111345"><ele>344.8</ele><time>2026-04-30T09:33:20.735Z</time></trkpt><trkpt lat="41.0875437" lon="9.1112683"><ele>346.0</ele><time>2026-04-30T09:33:21.733Z</time></trkpt><trkpt lat="41.0875649" lon="9.1114116"><ele>346.0</ele><time>2026-04-30T09:33:22.739Z</time></trkpt><trkpt lat="41.087582" lon="9.1115642"><ele>346.0</ele><time>2026-04-30T09:33:23.735Z</time></trkpt><trkpt lat="41.0876012" lon="9.1117218"><ele>346.0</ele><time>2026-04-30T09:33:24.734Z</time></trkpt><trkpt lat="41.0876265" lon="9.111876"><ele>346.0</ele><time>2026-04-30T09:33:25.734Z</time></trkpt><trkpt lat="41.0876639" lon="9.1120472"><ele>347.0</ele><time>2026-04-30T09:33:26.734Z</time></trkpt><trkpt lat="41.0877203" lon="9.11222"><ele>348.0</ele><time>2026-04-30T09:33:27.735Z</time></trkpt><trkpt lat="41.0877891" lon="9.1123868"><ele>349.0</ele><time>2026-04-30T09:33:28.731Z</time></trkpt><trkpt lat="41.0878683" lon="9.1125612"><ele>350.0</ele><time>2026-04-30T09:33:29.735Z</time></trkpt><trkpt lat="41.08796" lon="9.1127458"><ele>351.6666666666667</ele><time>2026-04-30T09:33:30.737Z</time></trkpt><trkpt lat="41.0880523" lon="9.1129362"><ele>353.3333333333333</ele><time>2026-04-30T09:33:31.733Z</time></trkpt><trkpt lat="41.0881435" lon="9.1131202"><ele>355.0</ele><time>2026-04-30T09:33:32.733Z</time></trkpt><trkpt lat="41.0882315" lon="9.1132977"><ele>354.0</ele><time>2026-04-30T09:33:33.733Z</time></trkpt><trkpt lat="41.0883139" lon="9.113468"><ele>353.0</ele><time>2026-04-30T09:33:34.733Z</time></trkpt><trkpt lat="41.0883966" lon="9.1136357"><ele>352.0</ele><time>2026-04-30T09:33:35.734Z</time></trkpt><trkpt lat="41.0884765" lon="9.1138008"><ele>352.0</ele><time>2026-04-30T09:33:36.733Z</time></trkpt><trkpt lat="41.0885555" lon="9.1139607"><ele>352.0</ele><time>2026-04-30T09:33:37.739Z</time></trkpt><trkpt lat="41.0886265" lon="9.1141221"><ele>352.0</ele><time>2026-04-30T09:33:38.704Z</time></trkpt><trkpt lat="41.0887064" lon="9.1142845"><ele>352.0</ele><time>2026-04-30T09:33:39.706Z</time></trkpt><trkpt lat="41.0887836" lon="9.1144433"><ele>353.75</ele><time>2026-04-30T09:33:40.703Z</time></trkpt><trkpt lat="41.0888569" lon="9.1146042"><ele>355.5</ele><time>2026-04-30T09:33:41.704Z</time></trkpt><trkpt lat="41.0889275" lon="9.1147801"><ele>357.25</ele><time>2026-04-30T09:33:42.702Z</time></trkpt><trkpt lat="41.0889953" lon="9.1149659"><ele>359.0</ele><time>2026-04-30T09:33:43.735Z</time></trkpt><trkpt lat="41.0890439" lon="9.1151618"><ele>358.33333333333337</ele><time>2026-04-30T09:33:44.732Z</time></trkpt><trkpt lat="41.0890797" lon="9.1153675"><ele>357.6666666666667</ele><time>2026-04-30T09:33:45.735Z</time></trkpt><trkpt lat="41.0891023" lon="9.1155834"><ele>357.0</ele><time>2026-04-30T09:33:46.734Z</time></trkpt><trkpt lat="41.0891193" lon="9.115806"><ele>357.0</ele><time>2026-04-30T09:33:47.733Z</time></trkpt><trkpt lat="41.0891357" lon="9.11603"><ele>357.0</ele><time>2026-04-30T09:33:48.733Z</time></trkpt><trkpt lat="41.0891511" lon="9.1162455"><ele>357.0</ele><time>2026-04-30T09:33:49.735Z</time></trkpt><trkpt lat="41.0891671" lon="9.116463"><ele>358.0</ele><time>2026-04-30T09:33:50.736Z</time></trkpt><trkpt lat="41.0891819" lon="9.1166733"><ele>359.0</ele><time>2026-04-30T09:33:51.707Z</time></trkpt><trkpt lat="41.0891969" lon="9.1168821"><ele>360.0</ele><time>2026-04-30T09:33:52.704Z</time></trkpt><trkpt lat="41.0892052" lon="9.1170798"><ele>360.0</ele><time>2026-04-30T09:33:53.704Z</time></trkpt><trkpt lat="41.0892045" lon="9.1172721"><ele>360.0</ele><time>2026-04-30T09:33:54.702Z</time></trkpt><trkpt lat="41.0891873" lon="9.1174669"><ele>360.0</ele><time>2026-04-30T09:33:55.706Z</time></trkpt><trkpt lat="41.0891511" lon="9.1176513"><ele>360.0</ele><time>2026-04-30T09:33:56.705Z</time></trkpt><trkpt lat="41.0890971" lon="9.1178206"><ele>362.75</ele><time>2026-04-30T09:33:57.705Z</time></trkpt><trkpt lat="41.089021" lon="9.117981"><ele>365.5</ele><time>2026-04-30T09:33:58.705Z</time></trkpt><trkpt lat="41.0889248" lon="9.1181199"><ele>368.25</ele><time>2026-04-30T09:33:59.705Z</time></trkpt><trkpt lat="41.08881" lon="9.1182343"><ele>371.0</ele><time>2026-04-30T09:34:00.705Z</time></trkpt><trkpt lat="41.0886801" lon="9.118323"><ele>371.0</ele><time>2026-04-30T09:34:01.704Z</time></trkpt><trkpt lat="41.0885383" lon="9.1183852"><ele>371.0</ele><time>2026-04-30T09:34:02.705Z</time></trkpt><trkpt lat="41.0883842" lon="9.1184176"><ele>371.0</ele><time>2026-04-30T09:34:03.704Z</time></trkpt><trkpt lat="41.0882272" lon="9.1184176"><ele>370.0</ele><time>2026-04-30T09:34:04.704Z</time></trkpt><trkpt lat="41.088069" lon="9.1183886"><ele>369.0</ele><time>2026-04-30T09:34:05.705Z</time></trkpt><trkpt lat="41.0878953" lon="9.1183354"><ele>368.0</ele><time>2026-04-30T09:34:06.705Z</time></trkpt><trkpt lat="41.0877095" lon="9.1182711"><ele>373.33333333333337</ele><time>2026-04-30T09:34:07.705Z</time></trkpt><trkpt lat="41.0875154" lon="9.1182065"><ele>378.6666666666667</ele><time>2026-04-30T09:34:08.705Z</time></trkpt><trkpt lat="41.0873185" lon="9.1181423"><ele>384.0</ele><time>2026-04-30T09:34:09.704Z</time></trkpt><trkpt lat="41.0871188" lon="9.118078"><ele>384.33333333333337</ele><time>2026-04-30T09:34:10.704Z</time></trkpt><trkpt lat="41.0869116" lon="9.1180112"><ele>384.6666666666667</ele><time>2026-04-30T09:34:11.704Z</time></trkpt><trkpt lat="41.08671" lon="9.1179448"><ele>385.0</ele><time>2026-04-30T09:34:12.705Z</time></trkpt><trkpt lat="41.0865126" lon="9.1178791"><ele>385.0</ele><time>2026-04-30T09:34:13.705Z</time></trkpt><trkpt lat="41.086305" lon="9.1178104"><ele>385.0</ele><time>2026-04-30T09:34:14.705Z</time></trkpt><trkpt lat="41.0860945" lon="9.1177401"><ele>385.0</ele><time>2026-04-30T09:34:15.705Z</time></trkpt><trkpt lat="41.0858825" lon="9.117668"><ele>384.33333333333337</ele><time>2026-04-30T09:34:16.704Z</time></trkpt><trkpt lat="41.0856719" lon="9.1175971"><ele>383.6666666666667</ele><time>2026-04-30T09:34:17.704Z</time></trkpt><trkpt lat="41.0854616" lon="9.1175276"><ele>383.0</ele><time>2026-04-30T09:34:18.705Z</time></trkpt><trkpt lat="41.0852474" lon="9.1174564"><ele>390.6666666666667</ele><time>2026-04-30T09:34:19.705Z</time></trkpt><trkpt lat="41.0850426" lon="9.1173883"><ele>398.33333333333337</ele><time>2026-04-30T09:34:20.704Z</time></trkpt><trkpt lat="41.084852" lon="9.1173247"><ele>406.0</ele><time>2026-04-30T09:34:21.704Z</time></trkpt><trkpt lat="41.0846604" lon="9.1172612"><ele>406.0</ele><time>2026-04-30T09:34:22.705Z</time></trkpt><trkpt lat="41.0844761" lon="9.117201"><ele>406.0</ele><time>2026-04-30T09:34:23.705Z</time></trkpt><trkpt lat="41.0842981" lon="9.1171425"><ele>406.0</ele><time>2026-04-30T09:34:24.705Z</time></trkpt><trkpt lat="41.0841213" lon="9.1170828"><ele>403.33333333333337</ele><time>2026-04-30T09:34:25.705Z</time></trkpt><trkpt lat="41.0839421" lon="9.1170216"><ele>400.66666666666663</ele><time>2026-04-30T09:34:26.705Z</time></trkpt><trkpt lat="41.0837493" lon="9.1169583"><ele>398.0</ele><time>2026-04-30T09:34:27.705Z</time></trkpt><trkpt lat="41.0835567" lon="9.1169006"><ele>398.0</ele><time>2026-04-30T09:34:28.705Z</time></trkpt><trkpt lat="41.0833733" lon="9.1168525"><ele>398.0</ele><time>2026-04-30T09:34:29.705Z</time></trkpt><trkpt lat="41.0831884" lon="9.116812"><ele>398.0</ele><time>2026-04-30T09:34:30.705Z</time></trkpt><trkpt lat="41.083001" lon="9.1167796"><ele>395.3333333333333</ele><time>2026-04-30T09:34:31.704Z</time></trkpt><trkpt lat="41.0828086" lon="9.116752"><ele>392.66666666666663</ele><time>2026-04-30T09:34:32.705Z</time></trkpt><trkpt lat="41.0826123" lon="9.1167248"><ele>390.0</ele><time>2026-04-30T09:34:33.705Z</time></trkpt><trkpt lat="41.0824104" lon="9.1166954"><ele>388.0</ele><time>2026-04-30T09:34:34.705Z</time></trkpt><trkpt lat="41.0821938" lon="9.1166647"><ele>386.0</ele><time>2026-04-30T09:34:35.705Z</time></trkpt><trkpt lat="41.0819745" lon="9.1166348"><ele>384.0</ele><time>2026-04-30T09:34:36.705Z</time></trkpt><trkpt lat="41.0817567" lon="9.1166049"><ele>383.3333333333333</ele><time>2026-04-30T09:34:37.705Z</time></trkpt><trkpt lat="41.0815327" lon="9.1165723"><ele>382.66666666666663</ele><time>2026-04-30T09:34:38.705Z</time></trkpt><trkpt lat="41.0813158" lon="9.1165401"><ele>382.0</ele><time>2026-04-30T09:34:39.705Z</time></trkpt><trkpt lat="41.0811025" lon="9.1165085"><ele>384.3333333333333</ele><time>2026-04-30T09:34:40.704Z</time></trkpt><trkpt lat="41.0808903" lon="9.1164771"><ele>386.66666666666663</ele><time>2026-04-30T09:34:41.705Z</time></trkpt><trkpt lat="41.0806795" lon="9.1164447"><ele>389.0</ele><time>2026-04-30T09:34:42.704Z</time></trkpt><trkpt lat="41.0804618" lon="9.1164117"><ele>389.66666666666663</ele><time>2026-04-30T09:34:43.705Z</time></trkpt><trkpt lat="41.0802624" lon="9.1163808"><ele>390.33333333333337</ele><time>2026-04-30T09:34:44.705Z</time></trkpt><trkpt lat="41.080057" lon="9.1163499"><ele>391.0</ele><time>2026-04-30T09:34:45.705Z</time></trkpt><trkpt lat="41.0798486" lon="9.1163184"><ele>388.6666666666667</ele><time>2026-04-30T09:34:46.705Z</time></trkpt><trkpt lat="41.0796342" lon="9.116287"><ele>386.33333333333337</ele><time>2026-04-30T09:34:47.705Z</time></trkpt><trkpt lat="41.0794144" lon="9.1162545"><ele>384.0</ele><time>2026-04-30T09:34:48.704Z</time></trkpt><trkpt lat="41.0791889" lon="9.1162213"><ele>385.0</ele><time>2026-04-30T09:34:49.705Z</time></trkpt><trkpt lat="41.07896" lon="9.1161873"><ele>386.0</ele><time>2026-04-30T09:34:50.705Z</time></trkpt><trkpt lat="41.0787298" lon="9.1161535"><ele>386.0</ele><time>2026-04-30T09:34:51.705Z</time></trkpt><trkpt lat="41.0785211" lon="9.1161226"><ele>386.0</ele><time>2026-04-30T09:34:52.705Z</time></trkpt><trkpt lat="41.0783105" lon="9.1160934"><ele>386.0</ele><time>2026-04-30T09:34:53.705Z</time></trkpt><trkpt lat="41.0781015" lon="9.1160655"><ele>387.0</ele><time>2026-04-30T09:34:54.705Z</time></trkpt><trkpt lat="41.0778934" lon="9.116047"><ele>388.0</ele><time>2026-04-30T09:34:55.704Z</time></trkpt><trkpt lat="41.0776844" lon="9.1160501"><ele>389.0</ele><time>2026-04-30T09:34:56.705Z</time></trkpt><trkpt lat="41.0774759" lon="9.1160812"><ele>385.66666666666663</ele><time>2026-04-30T09:34:57.705Z</time></trkpt><trkpt lat="41.0772698" lon="9.11614"><ele>382.3333333333333</ele><time>2026-04-30T09:34:58.705Z</time></trkpt><trkpt lat="41.0770632" lon="9.1162317"><ele>379.0</ele><time>2026-04-30T09:34:59.705Z</time></trkpt><trkpt lat="41.0768729" lon="9.1163449"><ele>379.0</ele><time>2026-04-30T09:35:00.705Z</time></trkpt><trkpt lat="41.0766752" lon="9.1164773"><ele>379.0</ele><time>2026-04-30T09:35:01.704Z</time></trkpt><trkpt lat="41.0764747" lon="9.1166152"><ele>379.0</ele><time>2026-04-30T09:35:02.705Z</time></trkpt><trkpt lat="41.0762726" lon="9.1167523"><ele>380.66666666666663</ele><time>2026-04-30T09:35:03.705Z</time></trkpt><trkpt lat="41.0760715" lon="9.1168871"><ele>382.3333333333333</ele><time>2026-04-30T09:35:04.704Z</time></trkpt><trkpt lat="41.0758713" lon="9.1170209"><ele>384.0</ele><time>2026-04-30T09:35:05.705Z</time></trkpt><trkpt lat="41.075672" lon="9.1171547"><ele>388.0</ele><time>2026-04-30T09:35:06.705Z</time></trkpt><trkpt lat="41.0754695" lon="9.1172908"><ele>392.0</ele><time>2026-04-30T09:35:07.704Z</time></trkpt><trkpt lat="41.0752817" lon="9.1174158"><ele>396.0</ele><time>2026-04-30T09:35:08.705Z</time></trkpt><trkpt lat="41.0750886" lon="9.1175445"><ele>399.33333333333337</ele><time>2026-04-30T09:35:09.705Z</time></trkpt><trkpt lat="41.0748935" lon="9.1176744"><ele>402.6666666666667</ele><time>2026-04-30T09:35:10.705Z</time></trkpt><trkpt lat="41.0746975" lon="9.1178049"><ele>406.0</ele><time>2026-04-30T09:35:11.705Z</time></trkpt><trkpt lat="41.0745028" lon="9.1179361"><ele>406.0</ele><time>2026-04-30T09:35:12.705Z</time></trkpt><trkpt lat="41.0743127" lon="9.1180653"><ele>406.0</ele><time>2026-04-30T09:35:13.705Z</time></trkpt><trkpt lat="41.0741226" lon="9.1181941"><ele>406.0</ele><time>2026-04-30T09:35:14.705Z</time></trkpt><trkpt lat="41.0739243" lon="9.1183289"><ele>407.33333333333337</ele><time>2026-04-30T09:35:15.705Z</time></trkpt><trkpt lat="41.0737347" lon="9.1184573"><ele>408.66666666666663</ele><time>2026-04-30T09:35:16.704Z</time></trkpt><trkpt lat="41.0735344" lon="9.1185938"><ele>410.0</ele><time>2026-04-30T09:35:17.704Z</time></trkpt><trkpt lat="41.0733298" lon="9.1187347"><ele>417.5</ele><time>2026-04-30T09:35:18.705Z</time></trkpt><trkpt lat="41.0731204" lon="9.1188791"><ele>425.0</ele><time>2026-04-30T09:35:19.705Z</time></trkpt><trkpt lat="41.0729068" lon="9.1190239"><ele>417.5</ele><time>2026-04-30T09:35:20.705Z</time></trkpt><trkpt lat="41.0726928" lon="9.1191666"><ele>410.0</ele><time>2026-04-30T09:35:21.705Z</time></trkpt><trkpt lat="41.072487" lon="9.1193032"><ele>410.0</ele><time>2026-04-30T09:35:22.705Z</time></trkpt><trkpt lat="41.0722822" lon="9.1194393"><ele>410.0</ele><time>2026-04-30T09:35:23.705Z</time></trkpt><trkpt lat="41.0720923" lon="9.1195583"><ele>410.0</ele><time>2026-04-30T09:35:24.705Z</time></trkpt><trkpt lat="41.0718997" lon="9.1196607"><ele>410.0</ele><time>2026-04-30T09:35:25.705Z</time></trkpt><trkpt lat="41.0717073" lon="9.1197297"><ele>410.0</ele><time>2026-04-30T09:35:26.704Z</time></trkpt><trkpt lat="41.0715092" lon="9.1197605"><ele>410.0</ele><time>2026-04-30T09:35:27.705Z</time></trkpt><trkpt lat="41.0713035" lon="9.1197521"><ele>410.0</ele><time>2026-04-30T09:35:28.705Z</time></trkpt><trkpt lat="41.0710917" lon="9.1197064"><ele>410.0</ele><time>2026-04-30T09:35:29.705Z</time></trkpt><trkpt lat="41.0708735" lon="9.1196328"><ele>410.0</ele><time>2026-04-30T09:35:30.704Z</time></trkpt><trkpt lat="41.0706391" lon="9.1195437"><ele>410.5</ele><time>2026-04-30T09:35:31.705Z</time></trkpt><trkpt lat="41.0704116" lon="9.1194594"><ele>411.0</ele><time>2026-04-30T09:35:32.705Z</time></trkpt><trkpt lat="41.0701754" lon="9.1193709"><ele>410.5</ele><time>2026-04-30T09:35:33.705Z</time></trkpt><trkpt lat="41.0699382" lon="9.1192787"><ele>410.0</ele><time>2026-04-30T09:35:34.704Z</time></trkpt><trkpt lat="41.0696991" lon="9.1191862"><ele>410.0</ele><time>2026-04-30T09:35:35.705Z</time></trkpt><trkpt lat="41.069457" lon="9.1190942"><ele>410.0</ele><time>2026-04-30T09:35:36.705Z</time></trkpt><trkpt lat="41.069213" lon="9.1190021"><ele>411.0</ele><time>2026-04-30T09:35:37.704Z</time></trkpt><trkpt lat="41.0689698" lon="9.1189093"><ele>412.0</ele><time>2026-04-30T09:35:38.705Z</time></trkpt><trkpt lat="41.0687208" lon="9.1188132"><ele>412.0</ele><time>2026-04-30T09:35:39.705Z</time></trkpt><trkpt lat="41.0684888" lon="9.1187235"><ele>412.0</ele><time>2026-04-30T09:35:40.705Z</time></trkpt><trkpt lat="41.068248" lon="9.1186314"><ele>414.5</ele><time>2026-04-30T09:35:41.705Z</time></trkpt><trkpt lat="41.0680151" lon="9.1185394"><ele>417.0</ele><time>2026-04-30T09:35:42.735Z</time></trkpt><trkpt lat="41.0677778" lon="9.1184495"><ele>417.0</ele><time>2026-04-30T09:35:43.734Z</time></trkpt><trkpt lat="41.0675547" lon="9.1183631"><ele>417.0</ele><time>2026-04-30T09:35:44.733Z</time></trkpt><trkpt lat="41.0673379" lon="9.1182793"><ele>419.0</ele><time>2026-04-30T09:35:45.733Z</time></trkpt><trkpt lat="41.0671216" lon="9.1181964"><ele>421.0</ele><time>2026-04-30T09:35:46.732Z</time></trkpt><trkpt lat="41.0669052" lon="9.1181145"><ele>421.0</ele><time>2026-04-30T09:35:47.734Z</time></trkpt><trkpt lat="41.0666868" lon="9.1180316"><ele>421.0</ele><time>2026-04-30T09:35:48.734Z</time></trkpt><trkpt lat="41.0664627" lon="9.1179485"><ele>421.0</ele><time>2026-04-30T09:35:49.737Z</time></trkpt><trkpt lat="41.0662405" lon="9.1178627"><ele>421.0</ele><time>2026-04-30T09:35:50.733Z</time></trkpt><trkpt lat="41.0660181" lon="9.1177774"><ele>421.0</ele><time>2026-04-30T09:35:51.733Z</time></trkpt><trkpt lat="41.065793" lon="9.1176927"><ele>421.0</ele><time>2026-04-30T09:35:52.732Z</time></trkpt><trkpt lat="41.0655699" lon="9.1175989"><ele>420.5</ele><time>2026-04-30T09:35:53.731Z</time></trkpt><trkpt lat="41.065348" lon="9.1174931"><ele>420.0</ele><time>2026-04-30T09:35:54.734Z</time></trkpt><trkpt lat="41.0651275" lon="9.1173741"><ele>421.5</ele><time>2026-04-30T09:35:55.734Z</time></trkpt><trkpt lat="41.0649133" lon="9.1172371"><ele>423.0</ele><time>2026-04-30T09:35:56.734Z</time></trkpt><trkpt lat="41.0647137" lon="9.1170918"><ele>423.0</ele><time>2026-04-30T09:35:57.733Z</time></trkpt><trkpt lat="41.0645258" lon="9.1169513"><ele>423.0</ele><time>2026-04-30T09:35:58.732Z</time></trkpt><trkpt lat="41.064341" lon="9.1168314"><ele>423.0</ele><time>2026-04-30T09:35:59.731Z</time></trkpt><trkpt lat="41.064152" lon="9.1167376"><ele>423.0</ele><time>2026-04-30T09:36:00.732Z</time></trkpt><trkpt lat="41.0639501" lon="9.1166805"><ele>423.0</ele><time>2026-04-30T09:36:01.733Z</time></trkpt><trkpt lat="41.0637417" lon="9.1166511"><ele>423.0</ele><time>2026-04-30T09:36:02.733Z</time></trkpt><trkpt lat="41.0635229" lon="9.116624"><ele>423.0</ele><time>2026-04-30T09:36:03.732Z</time></trkpt><trkpt lat="41.0632961" lon="9.1165939"><ele>423.0</ele><time>2026-04-30T09:36:04.731Z</time></trkpt><trkpt lat="41.063071" lon="9.1165632"><ele>424.33333333333337</ele><time>2026-04-30T09:36:05.732Z</time></trkpt><trkpt lat="41.0628667" lon="9.1165351"><ele>425.6666666666667</ele><time>2026-04-30T09:36:06.734Z</time></trkpt><trkpt lat="41.0626786" lon="9.1165069"><ele>427.0</ele><time>2026-04-30T09:36:07.734Z</time></trkpt><trkpt lat="41.0625042" lon="9.1164598"><ele>423.33333333333337</ele><time>2026-04-30T09:36:08.732Z</time></trkpt><trkpt lat="41.0623465" lon="9.1163821"><ele>419.66666666666663</ele><time>2026-04-30T09:36:09.733Z</time></trkpt><trkpt lat="41.0622052" lon="9.1162738"><ele>416.0</ele><time>2026-04-30T09:36:10.733Z</time></trkpt><trkpt lat="41.062072" lon="9.1161356"><ele>416.0</ele><time>2026-04-30T09:36:11.736Z</time></trkpt><trkpt lat="41.0619447" lon="9.1159634"><ele>416.0</ele><time>2026-04-30T09:36:12.731Z</time></trkpt><trkpt lat="41.0618177" lon="9.1157708"><ele>416.0</ele><time>2026-04-30T09:36:13.735Z</time></trkpt><trkpt lat="41.0616899" lon="9.115585"><ele>412.3333333333333</ele><time>2026-04-30T09:36:14.734Z</time></trkpt><trkpt lat="41.0615674" lon="9.1154301"><ele>408.66666666666663</ele><time>2026-04-30T09:36:15.733Z</time></trkpt><trkpt lat="41.0614384" lon="9.1153136"><ele>405.0</ele><time>2026-04-30T09:36:16.733Z</time></trkpt><trkpt lat="41.0612979" lon="9.1152447"><ele>405.0</ele><time>2026-04-30T09:36:17.733Z</time></trkpt><trkpt lat="41.0611523" lon="9.1152302"><ele>405.0</ele><time>2026-04-30T09:36:18.732Z</time></trkpt><trkpt lat="41.0609993" lon="9.1152617"><ele>405.0</ele><time>2026-04-30T09:36:19.734Z</time></trkpt><trkpt lat="41.060841" lon="9.1153298"><ele>402.33333333333337</ele><time>2026-04-30T09:36:20.733Z</time></trkpt><trkpt lat="41.0606736" lon="9.1154231"><ele>399.6666666666667</ele><time>2026-04-30T09:36:21.735Z</time></trkpt><trkpt lat="41.0604991" lon="9.1155208"><ele>397.0</ele><time>2026-04-30T09:36:22.733Z</time></trkpt><trkpt lat="41.0603255" lon="9.1156146"><ele>397.0</ele><time>2026-04-30T09:36:23.732Z</time></trkpt><trkpt lat="41.0601507" lon="9.1157065"><ele>397.0</ele><time>2026-04-30T09:36:24.734Z</time></trkpt><trkpt lat="41.0599795" lon="9.1157908"><ele>397.0</ele><time>2026-04-30T09:36:25.731Z</time></trkpt><trkpt lat="41.0598186" lon="9.1158619"><ele>396.5</ele><time>2026-04-30T09:36:26.733Z</time></trkpt><trkpt lat="41.0596724" lon="9.115913"><ele>396.0</ele><time>2026-04-30T09:36:27.734Z</time></trkpt><trkpt lat="41.0595377" lon="9.1159459"><ele>395.5</ele><time>2026-04-30T09:36:28.734Z</time></trkpt><trkpt lat="41.0594117" lon="9.1159529"><ele>395.0</ele><time>2026-04-30T09:36:29.733Z</time></trkpt><trkpt lat="41.0592848" lon="9.1159299"><ele>395.0</ele><time>2026-04-30T09:36:30.732Z</time></trkpt><trkpt lat="41.0591548" lon="9.1158732"><ele>395.0</ele><time>2026-04-30T09:36:31.732Z</time></trkpt><trkpt lat="41.0590265" lon="9.1157792"><ele>395.0</ele><time>2026-04-30T09:36:32.731Z</time></trkpt><trkpt lat="41.0588902" lon="9.1156594"><ele>395.0</ele><time>2026-04-30T09:36:33.732Z</time></trkpt><trkpt lat="41.0587509" lon="9.1155132"><ele>395.66666666666663</ele><time>2026-04-30T09:36:34.735Z</time></trkpt><trkpt lat="41.0586042" lon="9.1153447"><ele>396.33333333333337</ele><time>2026-04-30T09:36:35.735Z</time></trkpt><trkpt lat="41.0584499" lon="9.1151626"><ele>397.0</ele><time>2026-04-30T09:36:36.733Z</time></trkpt><trkpt lat="41.0582916" lon="9.1149756"><ele>398.5</ele><time>2026-04-30T09:36:37.732Z</time></trkpt><trkpt lat="41.058125" lon="9.1147816"><ele>400.0</ele><time>2026-04-30T09:36:38.731Z</time></trkpt><trkpt lat="41.057952" lon="9.1145769"><ele>400.0</ele><time>2026-04-30T09:36:39.732Z</time></trkpt><trkpt lat="41.0577734" lon="9.1143689"><ele>400.0</ele><time>2026-04-30T09:36:40.733Z</time></trkpt><trkpt lat="41.0575943" lon="9.1141561"><ele>402.0</ele><time>2026-04-30T09:36:41.732Z</time></trkpt><trkpt lat="41.0574274" lon="9.1139543"><ele>404.0</ele><time>2026-04-30T09:36:42.733Z</time></trkpt><trkpt lat="41.0572672" lon="9.1137684"><ele>406.0</ele><time>2026-04-30T09:36:43.732Z</time></trkpt><trkpt lat="41.0571088" lon="9.1136032"><ele>406.0</ele><time>2026-04-30T09:36:44.731Z</time></trkpt><trkpt lat="41.0569464" lon="9.1134679"><ele>406.0</ele><time>2026-04-30T09:36:45.734Z</time></trkpt><trkpt lat="41.0567758" lon="9.1133628"><ele>406.0</ele><time>2026-04-30T09:36:46.735Z</time></trkpt><trkpt lat="41.0565921" lon="9.1132814"><ele>410.33333333333337</ele><time>2026-04-30T09:36:47.732Z</time></trkpt><trkpt lat="41.0564014" lon="9.1132051"><ele>414.66666666666663</ele><time>2026-04-30T09:36:48.734Z</time></trkpt><trkpt lat="41.0562058" lon="9.113132"><ele>419.0</ele><time>2026-04-30T09:36:49.733Z</time></trkpt><trkpt lat="41.0560044" lon="9.1130586"><ele>419.0</ele><time>2026-04-30T09:36:50.733Z</time></trkpt><trkpt lat="41.0557944" lon="9.1129805"><ele>419.0</ele><time>2026-04-30T09:36:51.733Z</time></trkpt><trkpt lat="41.0555796" lon="9.1128937"><ele>419.0</ele><time>2026-04-30T09:36:52.734Z</time></trkpt><trkpt lat="41.0553588" lon="9.112803"><ele>419.0</ele><time>2026-04-30T09:36:53.734Z</time></trkpt><trkpt lat="41.0551341" lon="9.1127125"><ele>419.0</ele><time>2026-04-30T09:36:54.734Z</time></trkpt><trkpt lat="41.0549063" lon="9.1126251"><ele>419.0</ele><time>2026-04-30T09:36:55.732Z</time></trkpt><trkpt lat="41.054669" lon="9.1125344"><ele>419.0</ele><time>2026-04-30T09:36:56.732Z</time></trkpt><trkpt lat="41.0544228" lon="9.1124412"><ele>420.0</ele><time>2026-04-30T09:36:57.733Z</time></trkpt><trkpt lat="41.0541699" lon="9.1123451"><ele>421.0</ele><time>2026-04-30T09:36:58.734Z</time></trkpt><trkpt lat="41.0539287" lon="9.1122522"><ele>421.0</ele><time>2026-04-30T09:36:59.735Z</time></trkpt><trkpt lat="41.0536896" lon="9.1121618"><ele>421.0</ele><time>2026-04-30T09:37:00.733Z</time></trkpt><trkpt lat="41.0534482" lon="9.1120703"><ele>425.0</ele><time>2026-04-30T09:37:01.733Z</time></trkpt><trkpt lat="41.0532036" lon="9.1119741"><ele>429.0</ele><time>2026-04-30T09:37:02.731Z</time></trkpt><trkpt lat="41.052979" lon="9.1118837"><ele>429.0</ele><time>2026-04-30T09:37:03.732Z</time></trkpt><trkpt lat="41.0527848" lon="9.1118076"><ele>429.0</ele><time>2026-04-30T09:37:04.735Z</time></trkpt><trkpt lat="41.052617" lon="9.1117438"><ele>429.0</ele><time>2026-04-30T09:37:05.735Z</time></trkpt><trkpt lat="41.0524624" lon="9.1116791"><ele>430.0</ele><time>2026-04-30T09:37:06.732Z</time></trkpt><trkpt lat="41.0523114" lon="9.1115995"><ele>431.0</ele><time>2026-04-30T09:37:07.734Z</time></trkpt><trkpt lat="41.0521584" lon="9.1114882"><ele>432.0</ele><time>2026-04-30T09:37:08.732Z</time></trkpt><trkpt lat="41.0519904" lon="9.111348"><ele>432.0</ele><time>2026-04-30T09:37:09.732Z</time></trkpt><trkpt lat="41.0518043" lon="9.1111878"><ele>432.0</ele><time>2026-04-30T09:37:10.731Z</time></trkpt><trkpt lat="41.0516013" lon="9.1110059"><ele>433.33333333333337</ele><time>2026-04-30T09:37:11.733Z</time></trkpt><trkpt lat="41.0514163" lon="9.1108286"><ele>434.6666666666667</ele><time>2026-04-30T09:37:12.734Z</time></trkpt><trkpt lat="41.0512438" lon="9.1106733"><ele>436.0</ele><time>2026-04-30T09:37:13.734Z</time></trkpt><trkpt lat="41.0510774" lon="9.1105551"><ele>436.0</ele><time>2026-04-30T09:37:14.734Z</time></trkpt><trkpt lat="41.0509045" lon="9.1104828"><ele>436.0</ele><time>2026-04-30T09:37:15.73Z</time></trkpt><trkpt lat="41.0507263" lon="9.110453"><ele>436.0</ele><time>2026-04-30T09:37:16.732Z</time></trkpt><trkpt lat="41.0505464" lon="9.1104676"><ele>436.0</ele><time>2026-04-30T09:37:17.733Z</time></trkpt><trkpt lat="41.0503542" lon="9.1105196"><ele>436.0</ele><time>2026-04-30T09:37:18.734Z</time></trkpt><trkpt lat="41.0501479" lon="9.1105921"><ele>436.0</ele><time>2026-04-30T09:37:19.733Z</time></trkpt><trkpt lat="41.0499328" lon="9.110673"><ele>437.33333333333337</ele><time>2026-04-30T09:37:20.732Z</time></trkpt><trkpt lat="41.0497225" lon="9.1107495"><ele>438.66666666666663</ele><time>2026-04-30T09:37:21.732Z</time></trkpt><trkpt lat="41.0495276" lon="9.1108346"><ele>440.0</ele><time>2026-04-30T09:37:22.731Z</time></trkpt><trkpt lat="41.0493361" lon="9.1109418"><ele>440.0</ele><time>2026-04-30T09:37:23.73Z</time></trkpt><trkpt lat="41.0491537" lon="9.111078"><ele>440.0</ele><time>2026-04-30T09:37:24.736Z</time></trkpt><trkpt lat="41.0489784" lon="9.111239"><ele>440.0</ele><time>2026-04-30T09:37:25.734Z</time></trkpt><trkpt lat="41.0488069" lon="9.1114161"><ele>443.66666666666663</ele><time>2026-04-30T09:37:26.733Z</time></trkpt><trkpt lat="41.0486467" lon="9.1115889"><ele>447.33333333333337</ele><time>2026-04-30T09:37:27.732Z</time></trkpt><trkpt lat="41.0485016" lon="9.1117392"><ele>451.0</ele><time>2026-04-30T09:37:28.733Z</time></trkpt><trkpt lat="41.0483589" lon="9.1118626"><ele>453.0</ele><time>2026-04-30T09:37:29.734Z</time></trkpt><trkpt lat="41.0482112" lon="9.1119452"><ele>455.0</ele><time>2026-04-30T09:37:30.731Z</time></trkpt><trkpt lat="41.0480585" lon="9.1119927"><ele>457.0</ele><time>2026-04-30T09:37:31.734Z</time></trkpt><trkpt lat="41.0479005" lon="9.1120044"><ele>457.0</ele><time>2026-04-30T09:37:32.733Z</time></trkpt><trkpt lat="41.0477377" lon="9.1119761"><ele>457.0</ele><time>2026-04-30T09:37:33.734Z</time></trkpt><trkpt lat="41.0475824" lon="9.1119286"><ele>457.0</ele><time>2026-04-30T09:37:34.732Z</time></trkpt><trkpt lat="41.0474396" lon="9.111852"><ele>459.0</ele><time>2026-04-30T09:37:35.73Z</time></trkpt><trkpt lat="41.0473064" lon="9.1117507"><ele>461.0</ele><time>2026-04-30T09:37:36.733Z</time></trkpt><trkpt lat="41.0471854" lon="9.1116188"><ele>463.0</ele><time>2026-04-30T09:37:37.732Z</time></trkpt><trkpt lat="41.0470754" lon="9.1114479"><ele>463.6666666666667</ele><time>2026-04-30T09:37:38.734Z</time></trkpt><trkpt lat="41.0469638" lon="9.1112503"><ele>464.33333333333337</ele><time>2026-04-30T09:37:39.734Z</time></trkpt><trkpt lat="41.0468455" lon="9.1110237"><ele>465.0</ele><time>2026-04-30T09:37:40.733Z</time></trkpt><trkpt lat="41.0467163" lon="9.1107779"><ele>469.0</ele><time>2026-04-30T09:37:41.731Z</time></trkpt><trkpt lat="41.0465748" lon="9.1105131"><ele>473.0</ele><time>2026-04-30T09:37:42.732Z</time></trkpt><trkpt lat="41.0464265" lon="9.110241"><ele>473.0</ele><time>2026-04-30T09:37:43.732Z</time></trkpt><trkpt lat="41.0462938" lon="9.1099899"><ele>473.0</ele><time>2026-04-30T09:37:44.733Z</time></trkpt><trkpt lat="41.046172" lon="9.1097652"><ele>473.0</ele><time>2026-04-30T09:37:45.734Z</time></trkpt><trkpt lat="41.0460479" lon="9.1095555"><ele>473.66666666666663</ele><time>2026-04-30T09:37:46.734Z</time></trkpt><trkpt lat="41.0459053" lon="9.1093647"><ele>474.33333333333337</ele><time>2026-04-30T09:37:47.731Z</time></trkpt><trkpt lat="41.0457413" lon="9.1091987"><ele>475.0</ele><time>2026-04-30T09:37:48.735Z</time></trkpt><trkpt lat="41.0455599" lon="9.1090464"><ele>480.0</ele><time>2026-04-30T09:37:49.735Z</time></trkpt><trkpt lat="41.04536" lon="9.1088902"><ele>485.0</ele><time>2026-04-30T09:37:50.734Z</time></trkpt><trkpt lat="41.0451557" lon="9.1087263"><ele>485.0</ele><time>2026-04-30T09:37:51.735Z</time></trkpt><trkpt lat="41.0449729" lon="9.1085765"><ele>485.0</ele><time>2026-04-30T09:37:52.732Z</time></trkpt><trkpt lat="41.0448003" lon="9.1084428"><ele>485.0</ele><time>2026-04-30T09:37:53.732Z</time></trkpt><trkpt lat="41.0446233" lon="9.1083478"><ele>485.66666666666663</ele><time>2026-04-30T09:37:54.732Z</time></trkpt><trkpt lat="41.0444387" lon="9.1082913"><ele>486.33333333333337</ele><time>2026-04-30T09:37:55.732Z</time></trkpt><trkpt lat="41.0442538" lon="9.1082792"><ele>487.0</ele><time>2026-04-30T09:37:56.735Z</time></trkpt><trkpt lat="41.0440614" lon="9.1083038"><ele>487.0</ele><time>2026-04-30T09:37:57.732Z</time></trkpt><trkpt lat="41.0438575" lon="9.1083401"><ele>487.0</ele><time>2026-04-30T09:37:58.734Z</time></trkpt><trkpt lat="41.0436409" lon="9.1083749"><ele>487.0</ele><time>2026-04-30T09:37:59.732Z</time></trkpt><trkpt lat="41.0434608" lon="9.1083847"><ele>486.0</ele><time>2026-04-30T09:38:00.731Z</time></trkpt><trkpt lat="41.0432928" lon="9.1083617"><ele>485.0</ele><time>2026-04-30T09:38:01.73Z</time></trkpt><trkpt lat="41.043136" lon="9.1083002"><ele>484.0</ele><time>2026-04-30T09:38:02.73Z</time></trkpt><trkpt lat="41.042999" lon="9.1082039"><ele>484.0</ele><time>2026-04-30T09:38:03.734Z</time></trkpt><trkpt lat="41.0428703" lon="9.1080727"><ele>484.0</ele><time>2026-04-30T09:38:04.735Z</time></trkpt><trkpt lat="41.0427414" lon="9.1079035"><ele>484.0</ele><time>2026-04-30T09:38:05.733Z</time></trkpt><trkpt lat="41.042602" lon="9.1077117"><ele>481.6666666666667</ele><time>2026-04-30T09:38:06.731Z</time></trkpt><trkpt lat="41.0424497" lon="9.1075014"><ele>479.33333333333337</ele><time>2026-04-30T09:38:07.732Z</time></trkpt><trkpt lat="41.0422876" lon="9.1072894"><ele>477.0</ele><time>2026-04-30T09:38:08.733Z</time></trkpt><trkpt lat="41.0421226" lon="9.1070894"><ele>477.0</ele><time>2026-04-30T09:38:09.733Z</time></trkpt><trkpt lat="41.0419449" lon="9.1068994"><ele>477.0</ele><time>2026-04-30T09:38:10.735Z</time></trkpt><trkpt lat="41.0417569" lon="9.1067201"><ele>475.0</ele><time>2026-04-30T09:38:11.735Z</time></trkpt><trkpt lat="41.0415674" lon="9.1065472"><ele>473.0</ele><time>2026-04-30T09:38:12.738Z</time></trkpt><trkpt lat="41.0413892" lon="9.106374"><ele>473.0</ele><time>2026-04-30T09:38:13.733Z</time></trkpt><trkpt lat="41.0412146" lon="9.1061911"><ele>473.0</ele><time>2026-04-30T09:38:14.735Z</time></trkpt><trkpt lat="41.0410461" lon="9.1059932"><ele>473.0</ele><time>2026-04-30T09:38:15.732Z</time></trkpt><trkpt lat="41.0408817" lon="9.1057881"><ele>470.5</ele><time>2026-04-30T09:38:16.733Z</time></trkpt><trkpt lat="41.0407188" lon="9.1055872"><ele>468.0</ele><time>2026-04-30T09:38:17.734Z</time></trkpt><trkpt lat="41.0405525" lon="9.1053815"><ele>468.0</ele><time>2026-04-30T09:38:18.735Z</time></trkpt><trkpt lat="41.0403855" lon="9.1051773"><ele>468.0</ele><time>2026-04-30T09:38:19.731Z</time></trkpt><trkpt lat="41.0402251" lon="9.1049808"><ele>468.0</ele><time>2026-04-30T09:38:20.731Z</time></trkpt><trkpt lat="41.0400688" lon="9.1047855"><ele>467.33333333333337</ele><time>2026-04-30T09:38:21.731Z</time></trkpt><trkpt lat="41.0399104" lon="9.1045882"><ele>466.6666666666667</ele><time>2026-04-30T09:38:22.732Z</time></trkpt><trkpt lat="41.0397485" lon="9.1043885"><ele>466.0</ele><time>2026-04-30T09:38:23.732Z</time></trkpt><trkpt lat="41.039584" lon="9.104189"><ele>464.6666666666667</ele><time>2026-04-30T09:38:24.733Z</time></trkpt><trkpt lat="41.0394275" lon="9.1039955"><ele>463.33333333333337</ele><time>2026-04-30T09:38:25.733Z</time></trkpt><trkpt lat="41.0392806" lon="9.1038105"><ele>462.0</ele><time>2026-04-30T09:38:26.734Z</time></trkpt><trkpt lat="41.0391499" lon="9.1036256"><ele>462.0</ele><time>2026-04-30T09:38:27.731Z</time></trkpt><trkpt lat="41.0390383" lon="9.1034295"><ele>462.0</ele><time>2026-04-30T09:38:28.731Z</time></trkpt><trkpt lat="41.0389589" lon="9.1032237"><ele>462.0</ele><time>2026-04-30T09:38:29.734Z</time></trkpt><trkpt lat="41.0389103" lon="9.1029981"><ele>460.66666666666663</ele><time>2026-04-30T09:38:30.732Z</time></trkpt><trkpt lat="41.0388939" lon="9.1027533"><ele>459.3333333333333</ele><time>2026-04-30T09:38:31.732Z</time></trkpt><trkpt lat="41.0388989" lon="9.1024923"><ele>458.0</ele><time>2026-04-30T09:38:32.73Z</time></trkpt><trkpt lat="41.0389107" lon="9.1022167"><ele>457.66666666666663</ele><time>2026-04-30T09:38:33.731Z</time></trkpt><trkpt lat="41.0389215" lon="9.1019547"><ele>457.33333333333337</ele><time>2026-04-30T09:38:34.731Z</time></trkpt><trkpt lat="41.0389259" lon="9.101719"><ele>457.0</ele><time>2026-04-30T09:38:35.734Z</time></trkpt><trkpt lat="41.0389237" lon="9.1015054"><ele>455.6666666666667</ele><time>2026-04-30T09:38:36.735Z</time></trkpt><trkpt lat="41.0389056" lon="9.1012995"><ele>454.33333333333337</ele><time>2026-04-30T09:38:37.733Z</time></trkpt><trkpt lat="41.0388672" lon="9.1010951"><ele>453.0</ele><time>2026-04-30T09:38:38.734Z</time></trkpt><trkpt lat="41.0388016" lon="9.1009028"><ele>449.66666666666663</ele><time>2026-04-30T09:38:39.733Z</time></trkpt><trkpt lat="41.0387062" lon="9.1007073"><ele>446.3333333333333</ele><time>2026-04-30T09:38:40.736Z</time></trkpt><trkpt lat="41.0385855" lon="9.1005013"><ele>443.0</ele><time>2026-04-30T09:38:41.734Z</time></trkpt><trkpt lat="41.0384463" lon="9.100275"><ele>443.0</ele><time>2026-04-30T09:38:42.732Z</time></trkpt><trkpt lat="41.0383084" lon="9.1000466"><ele>443.0</ele><time>2026-04-30T09:38:43.733Z</time></trkpt><trkpt lat="41.0381735" lon="9.0998278"><ele>443.0</ele><time>2026-04-30T09:38:44.734Z</time></trkpt><trkpt lat="41.0380405" lon="9.0996057"><ele>440.5</ele><time>2026-04-30T09:38:45.732Z</time></trkpt><trkpt lat="41.0379149" lon="9.0993615"><ele>438.0</ele><time>2026-04-30T09:38:46.735Z</time></trkpt><trkpt lat="41.0377992" lon="9.0990977"><ele>436.0</ele><time>2026-04-30T09:38:47.734Z</time></trkpt><trkpt lat="41.0376964" lon="9.09882"><ele>434.0</ele><time>2026-04-30T09:38:48.734Z</time></trkpt><trkpt lat="41.0376035" lon="9.0985427"><ele>434.0</ele><time>2026-04-30T09:38:49.735Z</time></trkpt><trkpt lat="41.0375197" lon="9.0982709"><ele>434.0</ele><time>2026-04-30T09:38:50.734Z</time></trkpt><trkpt lat="41.0374326" lon="9.0980257"><ele>434.0</ele><time>2026-04-30T09:38:51.733Z</time></trkpt><trkpt lat="41.0373371" lon="9.097816"><ele>431.3333333333333</ele><time>2026-04-30T09:38:52.735Z</time></trkpt><trkpt lat="41.037219" lon="9.0976334"><ele>428.66666666666663</ele><time>2026-04-30T09:38:53.735Z</time></trkpt><trkpt lat="41.0370721" lon="9.097478"><ele>426.0</ele><time>2026-04-30T09:38:54.733Z</time></trkpt><trkpt lat="41.0368967" lon="9.0973541"><ele>419.0</ele><time>2026-04-30T09:38:55.735Z</time></trkpt><trkpt lat="41.0366927" lon="9.0972474"><ele>412.0</ele><time>2026-04-30T09:38:56.732Z</time></trkpt><trkpt lat="41.036469" lon="9.0971594"><ele>407.5</ele><time>2026-04-30T09:38:57.732Z</time></trkpt><trkpt lat="41.0362445" lon="9.0970951"><ele>403.0</ele><time>2026-04-30T09:38:58.733Z</time></trkpt><trkpt lat="41.0360215" lon="9.0970468"><ele>403.0</ele><time>2026-04-30T09:38:59.733Z</time></trkpt><trkpt lat="41.0358174" lon="9.0969844"><ele>403.0</ele><time>2026-04-30T09:39:00.731Z</time></trkpt><trkpt lat="41.035622" lon="9.0969132"><ele>403.0</ele><time>2026-04-30T09:39:01.733Z</time></trkpt><trkpt lat="41.0354349" lon="9.0968651"><ele>401.6666666666667</ele><time>2026-04-30T09:39:02.734Z</time></trkpt><trkpt lat="41.0352291" lon="9.0968567"><ele>400.33333333333337</ele><time>2026-04-30T09:39:03.732Z</time></trkpt><trkpt lat="41.0350261" lon="9.0968458"><ele>399.0</ele><time>2026-04-30T09:39:04.735Z</time></trkpt><trkpt lat="41.0348295" lon="9.096811"><ele>397.66666666666663</ele><time>2026-04-30T09:39:05.732Z</time></trkpt><trkpt lat="41.0346408" lon="9.0967503"><ele>396.3333333333333</ele><time>2026-04-30T09:39:06.732Z</time></trkpt><trkpt lat="41.0344648" lon="9.0966683"><ele>395.0</ele><time>2026-04-30T09:39:07.733Z</time></trkpt><trkpt lat="41.0342951" lon="9.0965515"><ele>391.66666666666663</ele><time>2026-04-30T09:39:08.733Z</time></trkpt><trkpt lat="41.0341325" lon="9.0964048"><ele>388.33333333333337</ele><time>2026-04-30T09:39:09.734Z</time></trkpt><trkpt lat="41.0339816" lon="9.0962295"><ele>385.0</ele><time>2026-04-30T09:39:10.734Z</time></trkpt><trkpt lat="41.033845" lon="9.0960367"><ele>385.0</ele><time>2026-04-30T09:39:11.735Z</time></trkpt><trkpt lat="41.0337178" lon="9.0958509"><ele>385.0</ele><time>2026-04-30T09:39:12.733Z</time></trkpt><trkpt lat="41.0335925" lon="9.0956761"><ele>385.0</ele><time>2026-04-30T09:39:13.733Z</time></trkpt><trkpt lat="41.0334605" lon="9.0955175"><ele>381.6666666666667</ele><time>2026-04-30T09:39:14.733Z</time></trkpt><trkpt lat="41.0333167" lon="9.0953799"><ele>378.33333333333337</ele><time>2026-04-30T09:39:15.733Z</time></trkpt><trkpt lat="41.0331624" lon="9.0952731"><ele>375.0</ele><time>2026-04-30T09:39:16.732Z</time></trkpt><trkpt lat="41.0329981" lon="9.0952082"><ele>375.0</ele><time>2026-04-30T09:39:17.732Z</time></trkpt><trkpt lat="41.0328388" lon="9.0951791"><ele>375.0</ele><time>2026-04-30T09:39:18.73Z</time></trkpt><trkpt lat="41.0326973" lon="9.0951665"><ele>375.0</ele><time>2026-04-30T09:39:19.731Z</time></trkpt><trkpt lat="41.0325768" lon="9.0951516"><ele>375.0</ele><time>2026-04-30T09:39:20.735Z</time></trkpt><trkpt lat="41.0324709" lon="9.09511"><ele>371.2</ele><time>2026-04-30T09:39:21.734Z</time></trkpt><trkpt lat="41.03239" lon="9.0950314"><ele>367.4</ele><time>2026-04-30T09:39:22.732Z</time></trkpt><trkpt lat="41.0323423" lon="9.0949234"><ele>363.6</ele><time>2026-04-30T09:39:23.732Z</time></trkpt><trkpt lat="41.0323377" lon="9.0948008"><ele>359.8</ele><time>2026-04-30T09:39:24.732Z</time></trkpt><trkpt lat="41.0323748" lon="9.0946924"><ele>356.0</ele><time>2026-04-30T09:39:25.733Z</time></trkpt><trkpt lat="41.0324436" lon="9.0946215"><ele>357.25</ele><time>2026-04-30T09:39:26.732Z</time></trkpt><trkpt lat="41.0325397" lon="9.0945808"><ele>358.5</ele><time>2026-04-30T09:39:27.734Z</time></trkpt><trkpt lat="41.0326569" lon="9.09457"><ele>359.75</ele><time>2026-04-30T09:39:28.732Z</time></trkpt><trkpt lat="41.0327924" lon="9.0945717"><ele>361.0</ele><time>2026-04-30T09:39:29.731Z</time></trkpt><trkpt lat="41.032941" lon="9.0945904"><ele>361.0</ele><time>2026-04-30T09:39:30.731Z</time></trkpt><trkpt lat="41.0330756" lon="9.094644"><ele>361.0</ele><time>2026-04-30T09:39:31.731Z</time></trkpt><trkpt lat="41.0332085" lon="9.0947361"><ele>361.0</ele><time>2026-04-30T09:39:32.731Z</time></trkpt><trkpt lat="41.0333294" lon="9.0948511"><ele>361.0</ele><time>2026-04-30T09:39:33.733Z</time></trkpt><trkpt lat="41.0334393" lon="9.0949608"><ele>360.25</ele><time>2026-04-30T09:39:34.734Z</time></trkpt><trkpt lat="41.0335532" lon="9.0950276"><ele>359.5</ele><time>2026-04-30T09:39:35.733Z</time></trkpt><trkpt lat="41.0336697" lon="9.095039"><ele>358.75</ele><time>2026-04-30T09:39:36.731Z</time></trkpt><trkpt lat="41.0337697" lon="9.0949912"><ele>358.0</ele><time>2026-04-30T09:39:37.731Z</time></trkpt><trkpt lat="41.033839" lon="9.0948898"><ele>358.0</ele><time>2026-04-30T09:39:38.733Z</time></trkpt><trkpt lat="41.0338703" lon="9.0947514"><ele>358.0</ele><time>2026-04-30T09:39:39.734Z</time></trkpt><trkpt lat="41.033849" lon="9.0946091"><ele>358.0</ele><time>2026-04-30T09:39:40.735Z</time></trkpt><trkpt lat="41.0337761" lon="9.0945011"><ele>358.0</ele><time>2026-04-30T09:39:41.732Z</time></trkpt><trkpt lat="41.0336652" lon="9.0944298"><ele>358.0</ele><time>2026-04-30T09:39:42.732Z</time></trkpt><trkpt lat="41.0335147" lon="9.0943863"><ele>358.0</ele><time>2026-04-30T09:39:43.734Z</time></trkpt><trkpt lat="41.0333301" lon="9.0943316"><ele>358.0</ele><time>2026-04-30T09:39:44.734Z</time></trkpt><trkpt lat="41.0331431" lon="9.0942578"><ele>359.0</ele><time>2026-04-30T09:39:45.734Z</time></trkpt><trkpt lat="41.0329661" lon="9.0941775"><ele>360.0</ele><time>2026-04-30T09:39:46.733Z</time></trkpt><trkpt lat="41.0327814" lon="9.0940883"><ele>361.0</ele><time>2026-04-30T09:39:47.733Z</time></trkpt><trkpt lat="41.0326039" lon="9.0939986"><ele>355.66666666666663</ele><time>2026-04-30T09:39:48.732Z</time></trkpt><trkpt lat="41.0324324" lon="9.0939127"><ele>350.3333333333333</ele><time>2026-04-30T09:39:49.732Z</time></trkpt><trkpt lat="41.0322629" lon="9.0938437"><ele>345.0</ele><time>2026-04-30T09:39:50.73Z</time></trkpt><trkpt lat="41.0320826" lon="9.0938132"><ele>345.0</ele><time>2026-04-30T09:39:51.732Z</time></trkpt><trkpt lat="41.0318974" lon="9.0938182"><ele>345.0</ele><time>2026-04-30T09:39:52.734Z</time></trkpt><trkpt lat="41.0317052" lon="9.0938591"><ele>345.0</ele><time>2026-04-30T09:39:53.734Z</time></trkpt><trkpt lat="41.0315074" lon="9.0939205"><ele>344.3333333333333</ele><time>2026-04-30T09:39:54.732Z</time></trkpt><trkpt lat="41.0313029" lon="9.0939897"><ele>343.66666666666663</ele><time>2026-04-30T09:39:55.74Z</time></trkpt><trkpt lat="41.0310907" lon="9.0940394"><ele>343.0</ele><time>2026-04-30T09:39:56.732Z</time></trkpt><trkpt lat="41.0308686" lon="9.09408"><ele>345.0</ele><time>2026-04-30T09:39:57.732Z</time></trkpt><trkpt lat="41.0306352" lon="9.0941222"><ele>347.0</ele><time>2026-04-30T09:39:58.733Z</time></trkpt><trkpt lat="41.0304042" lon="9.0941608"><ele>347.0</ele><time>2026-04-30T09:39:59.734Z</time></trkpt><trkpt lat="41.030187" lon="9.0941918"><ele>347.0</ele><time>2026-04-30T09:40:00.731Z</time></trkpt><trkpt lat="41.0299952" lon="9.0942242"><ele>347.0</ele><time>2026-04-30T09:40:01.732Z</time></trkpt><trkpt lat="41.0298271" lon="9.0942676"><ele>350.0</ele><time>2026-04-30T09:40:02.732Z</time></trkpt><trkpt lat="41.0296829" lon="9.0943373"><ele>353.0</ele><time>2026-04-30T09:40:03.733Z</time></trkpt><trkpt lat="41.0295531" lon="9.0944393"><ele>356.0</ele><time>2026-04-30T09:40:04.733Z</time></trkpt><trkpt lat="41.0294374" lon="9.0945762"><ele>356.0</ele><time>2026-04-30T09:40:05.734Z</time></trkpt><trkpt lat="41.029328" lon="9.0947378"><ele>356.0</ele><time>2026-04-30T09:40:06.732Z</time></trkpt><trkpt lat="41.0292165" lon="9.094915"><ele>356.0</ele><time>2026-04-30T09:40:07.734Z</time></trkpt><trkpt lat="41.0290984" lon="9.0951021"><ele>357.33333333333337</ele><time>2026-04-30T09:40:08.732Z</time></trkpt><trkpt lat="41.0289697" lon="9.0952852"><ele>358.6666666666667</ele><time>2026-04-30T09:40:09.732Z</time></trkpt><trkpt lat="41.0288313" lon="9.0954697"><ele>360.0</ele><time>2026-04-30T09:40:10.742Z</time></trkpt><trkpt lat="41.0286836" lon="9.0956576"><ele>358.6666666666667</ele><time>2026-04-30T09:40:11.732Z</time></trkpt><trkpt lat="41.0285576" lon="9.0958337"><ele>357.33333333333337</ele><time>2026-04-30T09:40:12.735Z</time></trkpt><trkpt lat="41.0284533" lon="9.0960244"><ele>356.0</ele><time>2026-04-30T09:40:13.734Z</time></trkpt><trkpt lat="41.0283791" lon="9.0962362"><ele>356.0</ele><time>2026-04-30T09:40:14.732Z</time></trkpt><trkpt lat="41.0283353" lon="9.0964682"><ele>356.0</ele><time>2026-04-30T09:40:15.732Z</time></trkpt><trkpt lat="41.0283166" lon="9.0967168"><ele>356.0</ele><time>2026-04-30T09:40:16.733Z</time></trkpt><trkpt lat="41.0283052" lon="9.0969839"><ele>357.6666666666667</ele><time>2026-04-30T09:40:17.733Z</time></trkpt><trkpt lat="41.0283037" lon="9.0972565"><ele>359.3333333333333</ele><time>2026-04-30T09:40:18.735Z</time></trkpt><trkpt lat="41.0283238" lon="9.0975129"><ele>361.0</ele><time>2026-04-30T09:40:19.734Z</time></trkpt><trkpt lat="41.0283755" lon="9.097756"><ele>361.0</ele><time>2026-04-30T09:40:20.733Z</time></trkpt><trkpt lat="41.0284522" lon="9.0979941"><ele>361.0</ele><time>2026-04-30T09:40:21.733Z</time></trkpt><trkpt lat="41.0285402" lon="9.0982346"><ele>361.0</ele><time>2026-04-30T09:40:22.738Z</time></trkpt><trkpt lat="41.0286127" lon="9.098479"><ele>364.3333333333333</ele><time>2026-04-30T09:40:23.731Z</time></trkpt><trkpt lat="41.0286629" lon="9.0987233"><ele>367.6666666666667</ele><time>2026-04-30T09:40:24.734Z</time></trkpt><trkpt lat="41.0286901" lon="9.0989768"><ele>371.0</ele><time>2026-04-30T09:40:25.734Z</time></trkpt><trkpt lat="41.0286875" lon="9.099234"><ele>374.33333333333337</ele><time>2026-04-30T09:40:26.735Z</time></trkpt><trkpt lat="41.0286686" lon="9.0995021"><ele>377.6666666666667</ele><time>2026-04-30T09:40:27.731Z</time></trkpt><trkpt lat="41.0286475" lon="9.0997845"><ele>381.0</ele><time>2026-04-30T09:40:28.731Z</time></trkpt><trkpt lat="41.0286283" lon="9.1000712"><ele>382.0</ele><time>2026-04-30T09:40:29.733Z</time></trkpt><trkpt lat="41.0286143" lon="9.100328"><ele>383.0</ele><time>2026-04-30T09:40:30.733Z</time></trkpt><trkpt lat="41.0286029" lon="9.1005593"><ele>384.0</ele><time>2026-04-30T09:40:31.733Z</time></trkpt><trkpt lat="41.0285962" lon="9.1007621"><ele>384.6</ele><time>2026-04-30T09:40:32.734Z</time></trkpt><trkpt lat="41.0285833" lon="9.1009303"><ele>385.2</ele><time>2026-04-30T09:40:33.733Z</time></trkpt><trkpt lat="41.0285471" lon="9.1010614"><ele>385.8</ele><time>2026-04-30T09:40:34.732Z</time></trkpt><trkpt lat="41.028485" lon="9.1011534"><ele>386.40000000000003</ele><time>2026-04-30T09:40:35.732Z</time></trkpt><trkpt lat="41.0284" lon="9.1012086"><ele>387.0</ele><time>2026-04-30T09:40:36.733Z</time></trkpt><trkpt lat="41.0283184" lon="9.1012029"><ele>389.8</ele><time>2026-04-30T09:40:37.731Z</time></trkpt><trkpt lat="41.0282452" lon="9.1011531"><ele>392.6</ele><time>2026-04-30T09:40:38.733Z</time></trkpt><trkpt lat="41.0281933" lon="9.1010476"><ele>395.40000000000003</ele><time>2026-04-30T09:40:39.733Z</time></trkpt><trkpt lat="41.0281677" lon="9.1009147"><ele>398.20000000000005</ele><time>2026-04-30T09:40:40.731Z</time></trkpt><trkpt lat="41.0281803" lon="9.1007562"><ele>401.0</ele><time>2026-04-30T09:40:41.731Z</time></trkpt><trkpt lat="41.0282111" lon="9.1005837"><ele>401.0</ele><time>2026-04-30T09:40:42.737Z</time></trkpt><trkpt lat="41.0282196" lon="9.100403"><ele>401.0</ele><time>2026-04-30T09:40:43.731Z</time></trkpt><trkpt lat="41.0281974" lon="9.1002245"><ele>401.0</ele><time>2026-04-30T09:40:44.734Z</time></trkpt><trkpt lat="41.0281495" lon="9.1000631"><ele>401.0</ele><time>2026-04-30T09:40:45.734Z</time></trkpt><trkpt lat="41.0280765" lon="9.099928"><ele>398.25</ele><time>2026-04-30T09:40:46.732Z</time></trkpt><trkpt lat="41.0279795" lon="9.0998221"><ele>395.5</ele><time>2026-04-30T09:40:47.731Z</time></trkpt><trkpt lat="41.0278627" lon="9.0997543"><ele>392.75</ele><time>2026-04-30T09:40:48.734Z</time></trkpt><trkpt lat="41.0277358" lon="9.0997204"><ele>390.0</ele><time>2026-04-30T09:40:49.731Z</time></trkpt><trkpt lat="41.0275983" lon="9.0997076"><ele>394.75</ele><time>2026-04-30T09:40:50.733Z</time></trkpt><trkpt lat="41.0274599" lon="9.0996781"><ele>399.5</ele><time>2026-04-30T09:40:51.735Z</time></trkpt><trkpt lat="41.0273363" lon="9.0996223"><ele>404.25</ele><time>2026-04-30T09:40:52.734Z</time></trkpt><trkpt lat="41.0272285" lon="9.0995338"><ele>409.0</ele><time>2026-04-30T09:40:53.733Z</time></trkpt><trkpt lat="41.0271517" lon="9.0994076"><ele>409.0</ele><time>2026-04-30T09:40:54.732Z</time></trkpt><trkpt lat="41.027099" lon="9.0992659"><ele>409.0</ele><time>2026-04-30T09:40:55.731Z</time></trkpt><trkpt lat="41.0270494" lon="9.0991469"><ele>409.0</ele><time>2026-04-30T09:40:56.733Z</time></trkpt><trkpt lat="41.0269845" lon="9.0990547"><ele>409.0</ele><time>2026-04-30T09:40:57.732Z</time></trkpt><trkpt lat="41.0268989" lon="9.0990038"><ele>409.0</ele><time>2026-04-30T09:40:58.733Z</time></trkpt><trkpt lat="41.0268052" lon="9.0990058"><ele>409.0</ele><time>2026-04-30T09:40:59.73Z</time></trkpt><trkpt lat="41.0267232" lon="9.0990594"><ele>409.0</ele><time>2026-04-30T09:41:00.731Z</time></trkpt><trkpt lat="41.0266603" lon="9.0991593"><ele>409.0</ele><time>2026-04-30T09:41:01.731Z</time></trkpt><trkpt lat="41.0266346" lon="9.0992877"><ele>409.0</ele><time>2026-04-30T09:41:02.733Z</time></trkpt><trkpt lat="41.0266524" lon="9.0994266"><ele>409.0</ele><time>2026-04-30T09:41:03.731Z</time></trkpt><trkpt lat="41.0267142" lon="9.0995518"><ele>409.0</ele><time>2026-04-30T09:41:04.732Z</time></trkpt><trkpt lat="41.0268011" lon="9.0996666"><ele>409.0</ele><time>2026-04-30T09:41:05.732Z</time></trkpt><trkpt lat="41.0268943" lon="9.0998025"><ele>409.0</ele><time>2026-04-30T09:41:06.732Z</time></trkpt><trkpt lat="41.0269794" lon="9.0999782"><ele>409.0</ele><time>2026-04-30T09:41:07.73Z</time></trkpt><trkpt lat="41.0270607" lon="9.100169"><ele>411.25</ele><time>2026-04-30T09:41:08.733Z</time></trkpt><trkpt lat="41.0271282" lon="9.1003319"><ele>413.5</ele><time>2026-04-30T09:41:09.733Z</time></trkpt><trkpt lat="41.0271735" lon="9.1004918"><ele>415.75</ele><time>2026-04-30T09:41:10.733Z</time></trkpt><trkpt lat="41.0271898" lon="9.1006462"><ele>418.0</ele><time>2026-04-30T09:41:11.734Z</time></trkpt><trkpt lat="41.027164" lon="9.1007666"><ele>418.00000000000006</ele><time>2026-04-30T09:41:12.732Z</time></trkpt><trkpt lat="41.0271132" lon="9.1008477"><ele>418.0</ele><time>2026-04-30T09:41:13.731Z</time></trkpt><trkpt lat="41.0270368" lon="9.1008937"><ele>418.0</ele><time>2026-04-30T09:41:14.732Z</time></trkpt><trkpt lat="41.0269494" lon="9.1008878"><ele>418.0</ele><time>2026-04-30T09:41:15.731Z</time></trkpt><trkpt lat="41.0268674" lon="9.1008375"><ele>418.00000000000006</ele><time>2026-04-30T09:41:16.732Z</time></trkpt><trkpt lat="41.0268014" lon="9.1007493"><ele>418.0</ele><time>2026-04-30T09:41:17.734Z</time></trkpt><trkpt lat="41.0267502" lon="9.1006291"><ele>418.0</ele><time>2026-04-30T09:41:18.731Z</time></trkpt><trkpt lat="41.0266924" lon="9.1004794"><ele>418.0</ele><time>2026-04-30T09:41:19.733Z</time></trkpt><trkpt lat="41.0266184" lon="9.10031"><ele>418.0</ele><time>2026-04-30T09:41:20.73Z</time></trkpt><trkpt lat="41.0265328" lon="9.1001411"><ele>418.0</ele><time>2026-04-30T09:41:21.733Z</time></trkpt><trkpt lat="41.0264408" lon="9.0999983"><ele>422.0</ele><time>2026-04-30T09:41:22.733Z</time></trkpt><trkpt lat="41.0263282" lon="9.0998731"><ele>426.0</ele><time>2026-04-30T09:41:23.733Z</time></trkpt><trkpt lat="41.0261991" lon="9.0997696"><ele>430.0</ele><time>2026-04-30T09:41:24.732Z</time></trkpt><trkpt lat="41.0260579" lon="9.0996682"><ele>430.0</ele><time>2026-04-30T09:41:25.73Z</time></trkpt><trkpt lat="41.0259237" lon="9.0995474"><ele>430.0</ele><time>2026-04-30T09:41:26.731Z</time></trkpt><trkpt lat="41.0258104" lon="9.0993894"><ele>430.0</ele><time>2026-04-30T09:41:27.731Z</time></trkpt><trkpt lat="41.025707" lon="9.09921"><ele>434.0</ele><time>2026-04-30T09:41:28.731Z</time></trkpt><trkpt lat="41.0256059" lon="9.0990115"><ele>438.0</ele><time>2026-04-30T09:41:29.733Z</time></trkpt><trkpt lat="41.0255062" lon="9.0988026"><ele>442.0</ele><time>2026-04-30T09:41:30.733Z</time></trkpt><trkpt lat="41.0254044" lon="9.098585"><ele>442.0</ele><time>2026-04-30T09:41:31.732Z</time></trkpt><trkpt lat="41.0252987" lon="9.0983597"><ele>442.0</ele><time>2026-04-30T09:41:32.732Z</time></trkpt><trkpt lat="41.0251939" lon="9.0981313"><ele>442.0</ele><time>2026-04-30T09:41:33.731Z</time></trkpt><trkpt lat="41.0250967" lon="9.0979162"><ele>442.33333333333337</ele><time>2026-04-30T09:41:34.732Z</time></trkpt><trkpt lat="41.0250007" lon="9.097721"><ele>442.66666666666663</ele><time>2026-04-30T09:41:35.733Z</time></trkpt><trkpt lat="41.0248955" lon="9.0975513"><ele>443.0</ele><time>2026-04-30T09:41:36.732Z</time></trkpt><trkpt lat="41.0247715" lon="9.0974033"><ele>446.3333333333333</ele><time>2026-04-30T09:41:37.732Z</time></trkpt><trkpt lat="41.0246352" lon="9.097265"><ele>449.66666666666663</ele><time>2026-04-30T09:41:38.731Z</time></trkpt><trkpt lat="41.0244918" lon="9.0971222"><ele>453.0</ele><time>2026-04-30T09:41:39.732Z</time></trkpt><trkpt lat="41.0243403" lon="9.0969699"><ele>453.0</ele><time>2026-04-30T09:41:40.734Z</time></trkpt><trkpt lat="41.024183" lon="9.0968168"><ele>453.0</ele><time>2026-04-30T09:41:41.732Z</time></trkpt><trkpt lat="41.0240158" lon="9.0966588"><ele>453.0</ele><time>2026-04-30T09:41:42.737Z</time></trkpt><trkpt lat="41.0238385" lon="9.0965071"><ele>454.33333333333337</ele><time>2026-04-30T09:41:43.734Z</time></trkpt><trkpt lat="41.0236498" lon="9.0963678"><ele>455.6666666666667</ele><time>2026-04-30T09:41:44.734Z</time></trkpt><trkpt lat="41.0234475" lon="9.0962393"><ele>457.0</ele><time>2026-04-30T09:41:45.732Z</time></trkpt><trkpt lat="41.0232381" lon="9.0961135"><ele>458.5</ele><time>2026-04-30T09:41:46.731Z</time></trkpt><trkpt lat="41.0230289" lon="9.0959879"><ele>460.0</ele><time>2026-04-30T09:41:47.733Z</time></trkpt><trkpt lat="41.0228172" lon="9.0958643"><ele>461.5</ele><time>2026-04-30T09:41:48.733Z</time></trkpt><trkpt lat="41.0226034" lon="9.0957399"><ele>463.0</ele><time>2026-04-30T09:41:49.733Z</time></trkpt><trkpt lat="41.0223956" lon="9.0956178"><ele>464.0</ele><time>2026-04-30T09:41:50.733Z</time></trkpt><trkpt lat="41.0222019" lon="9.0955031"><ele>465.0</ele><time>2026-04-30T09:41:51.733Z</time></trkpt><trkpt lat="41.0220166" lon="9.09539"><ele>466.0</ele><time>2026-04-30T09:41:52.733Z</time></trkpt><trkpt lat="41.0218398" lon="9.09529"><ele>466.0</ele><time>2026-04-30T09:41:53.732Z</time></trkpt><trkpt lat="41.0216694" lon="9.095212"><ele>466.0</ele><time>2026-04-30T09:41:54.734Z</time></trkpt><trkpt lat="41.0215005" lon="9.0951654"><ele>466.0</ele><time>2026-04-30T09:41:55.736Z</time></trkpt><trkpt lat="41.0213246" lon="9.0951461"><ele>466.6666666666667</ele><time>2026-04-30T09:41:56.733Z</time></trkpt><trkpt lat="41.0211306" lon="9.0951608"><ele>467.33333333333337</ele><time>2026-04-30T09:41:57.732Z</time></trkpt><trkpt lat="41.0209307" lon="9.0951856"><ele>468.0</ele><time>2026-04-30T09:41:58.734Z</time></trkpt><trkpt lat="41.0207484" lon="9.0952046"><ele>468.0</ele><time>2026-04-30T09:41:59.738Z</time></trkpt><trkpt lat="41.020579" lon="9.0951998"><ele>468.0</ele><time>2026-04-30T09:42:00.734Z</time></trkpt><trkpt lat="41.0204095" lon="9.0951592"><ele>468.0</ele><time>2026-04-30T09:42:01.734Z</time></trkpt><trkpt lat="41.0202514" lon="9.095078"><ele>468.0</ele><time>2026-04-30T09:42:02.733Z</time></trkpt><trkpt lat="41.0200966" lon="9.0949627"><ele>468.0</ele><time>2026-04-30T09:42:03.732Z</time></trkpt><trkpt lat="41.0199258" lon="9.0948414"><ele>468.0</ele><time>2026-04-30T09:42:04.731Z</time></trkpt><trkpt lat="41.0197446" lon="9.0947424"><ele>467.66666666666663</ele><time>2026-04-30T09:42:05.734Z</time></trkpt><trkpt lat="41.0195409" lon="9.0946535"><ele>467.3333333333333</ele><time>2026-04-30T09:42:06.735Z</time></trkpt><trkpt lat="41.0193232" lon="9.0945629"><ele>467.0</ele><time>2026-04-30T09:42:07.731Z</time></trkpt><trkpt lat="41.0191168" lon="9.0944662"><ele>467.0</ele><time>2026-04-30T09:42:08.733Z</time></trkpt><trkpt lat="41.0189074" lon="9.0943567"><ele>467.0</ele><time>2026-04-30T09:42:09.733Z</time></trkpt><trkpt lat="41.0186977" lon="9.094245"><ele>467.0</ele><time>2026-04-30T09:42:10.731Z</time></trkpt><trkpt lat="41.0184911" lon="9.0941578"><ele>467.0</ele><time>2026-04-30T09:42:11.733Z</time></trkpt><trkpt lat="41.0182713" lon="9.094091"><ele>467.0</ele><time>2026-04-30T09:42:12.731Z</time></trkpt><trkpt lat="41.0180469" lon="9.0940302"><ele>473.5</ele><time>2026-04-30T09:42:13.733Z</time></trkpt><trkpt lat="41.0178187" lon="9.0939597"><ele>480.0</ele><time>2026-04-30T09:42:14.734Z</time></trkpt><trkpt lat="41.0176111" lon="9.0938799"><ele>472.66666666666663</ele><time>2026-04-30T09:42:15.733Z</time></trkpt><trkpt lat="41.0174208" lon="9.0937926"><ele>465.3333333333333</ele><time>2026-04-30T09:42:16.733Z</time></trkpt><trkpt lat="41.0172524" lon="9.0936717"><ele>458.0</ele><time>2026-04-30T09:42:17.735Z</time></trkpt><trkpt lat="41.0170926" lon="9.0935126"><ele>458.0</ele><time>2026-04-30T09:42:18.731Z</time></trkpt><trkpt lat="41.0169371" lon="9.0933253"><ele>458.0</ele><time>2026-04-30T09:42:19.734Z</time></trkpt><trkpt lat="41.0167927" lon="9.0931389"><ele>458.0</ele><time>2026-04-30T09:42:20.733Z</time></trkpt><trkpt lat="41.0166412" lon="9.092974"><ele>454.3333333333333</ele><time>2026-04-30T09:42:21.734Z</time></trkpt><trkpt lat="41.0164973" lon="9.0928167"><ele>450.66666666666663</ele><time>2026-04-30T09:42:22.734Z</time></trkpt><trkpt lat="41.0163571" lon="9.0926428"><ele>447.0</ele><time>2026-04-30T09:42:23.732Z</time></trkpt><trkpt lat="41.0162273" lon="9.0924537"><ele>454.0</ele><time>2026-04-30T09:42:24.731Z</time></trkpt><trkpt lat="41.0161047" lon="9.0922641"><ele>461.0</ele><time>2026-04-30T09:42:25.735Z</time></trkpt><trkpt lat="41.0159773" lon="9.0920861"><ele>468.0</ele><time>2026-04-30T09:42:26.732Z</time></trkpt><trkpt lat="41.0158392" lon="9.0919264"><ele>462.33333333333337</ele><time>2026-04-30T09:42:27.732Z</time></trkpt><trkpt lat="41.0156893" lon="9.0918039"><ele>456.6666666666667</ele><time>2026-04-30T09:42:28.732Z</time></trkpt><trkpt lat="41.01552" lon="9.0917053"><ele>451.0</ele><time>2026-04-30T09:42:29.733Z</time></trkpt><trkpt lat="41.0153388" lon="9.0916385"><ele>452.33333333333337</ele><time>2026-04-30T09:42:30.735Z</time></trkpt><trkpt lat="41.015161" lon="9.0915887"><ele>453.66666666666663</ele><time>2026-04-30T09:42:31.732Z</time></trkpt><trkpt lat="41.0149876" lon="9.0915234"><ele>455.0</ele><time>2026-04-30T09:42:32.733Z</time></trkpt><trkpt lat="41.0148195" lon="9.0914223"><ele>455.0</ele><time>2026-04-30T09:42:33.734Z</time></trkpt><trkpt lat="41.0146542" lon="9.0913013"><ele>455.0</ele><time>2026-04-30T09:42:34.732Z</time></trkpt><trkpt lat="41.0144801" lon="9.0911868"><ele>455.0</ele><time>2026-04-30T09:42:35.733Z</time></trkpt><trkpt lat="41.0142947" lon="9.0910868"><ele>454.3333333333333</ele><time>2026-04-30T09:42:36.732Z</time></trkpt><trkpt lat="41.0141061" lon="9.0909919"><ele>453.66666666666663</ele><time>2026-04-30T09:42:37.732Z</time></trkpt><trkpt lat="41.0139339" lon="9.0908861"><ele>453.0</ele><time>2026-04-30T09:42:38.73Z</time></trkpt><trkpt lat="41.0137789" lon="9.0907465"><ele>453.0</ele><time>2026-04-30T09:42:39.732Z</time></trkpt><trkpt lat="41.0136285" lon="9.0905675"><ele>453.0</ele><time>2026-04-30T09:42:40.733Z</time></trkpt><trkpt lat="41.0134838" lon="9.0903777"><ele>453.0</ele><time>2026-04-30T09:42:41.735Z</time></trkpt><trkpt lat="41.0133554" lon="9.0901936"><ele>447.66666666666663</ele><time>2026-04-30T09:42:42.732Z</time></trkpt><trkpt lat="41.0132517" lon="9.0900137"><ele>442.3333333333333</ele><time>2026-04-30T09:42:43.732Z</time></trkpt><trkpt lat="41.0131816" lon="9.089818"><ele>437.0</ele><time>2026-04-30T09:42:44.732Z</time></trkpt><trkpt lat="41.0131415" lon="9.0896083"><ele>437.0</ele><time>2026-04-30T09:42:45.734Z</time></trkpt><trkpt lat="41.0131172" lon="9.0893907"><ele>437.0</ele><time>2026-04-30T09:42:46.735Z</time></trkpt><trkpt lat="41.0130712" lon="9.089185"><ele>437.0</ele><time>2026-04-30T09:42:47.733Z</time></trkpt><trkpt lat="41.0129881" lon="9.0889883"><ele>440.66666666666663</ele><time>2026-04-30T09:42:48.731Z</time></trkpt><trkpt lat="41.01288" lon="9.0887926"><ele>444.33333333333337</ele><time>2026-04-30T09:42:49.735Z</time></trkpt><trkpt lat="41.0127607" lon="9.0886077"><ele>448.0</ele><time>2026-04-30T09:42:50.731Z</time></trkpt><trkpt lat="41.0126289" lon="9.0884549"><ele>447.0</ele><time>2026-04-30T09:42:51.732Z</time></trkpt><trkpt lat="41.0124708" lon="9.0883452"><ele>446.0</ele><time>2026-04-30T09:42:52.734Z</time></trkpt><trkpt lat="41.0122929" lon="9.0882768"><ele>445.0</ele><time>2026-04-30T09:42:53.733Z</time></trkpt><trkpt lat="41.0121007" lon="9.088259"><ele>441.0</ele><time>2026-04-30T09:42:54.731Z</time></trkpt><trkpt lat="41.0119011" lon="9.088291"><ele>437.0</ele><time>2026-04-30T09:42:55.732Z</time></trkpt><trkpt lat="41.011697" lon="9.0883546"><ele>433.0</ele><time>2026-04-30T09:42:56.732Z</time></trkpt><trkpt lat="41.0114949" lon="9.0884202"><ele>432.6666666666667</ele><time>2026-04-30T09:42:57.734Z</time></trkpt><trkpt lat="41.0112839" lon="9.0884502"><ele>432.33333333333337</ele><time>2026-04-30T09:42:58.732Z</time></trkpt><trkpt lat="41.0110604" lon="9.0884551"><ele>432.0</ele><time>2026-04-30T09:42:59.734Z</time></trkpt><trkpt lat="41.0108253" lon="9.088451"><ele>426.5</ele><time>2026-04-30T09:43:00.732Z</time></trkpt><trkpt lat="41.0105945" lon="9.0884429"><ele>421.0</ele><time>2026-04-30T09:43:01.733Z</time></trkpt><trkpt lat="41.0103702" lon="9.088434"><ele>421.0</ele><time>2026-04-30T09:43:02.733Z</time></trkpt><trkpt lat="41.0101503" lon="9.0884075"><ele>421.0</ele><time>2026-04-30T09:43:03.734Z</time></trkpt><trkpt lat="41.009938" lon="9.0883521"><ele>421.0</ele><time>2026-04-30T09:43:04.732Z</time></trkpt><trkpt lat="41.0097267" lon="9.0882673"><ele>420.0</ele><time>2026-04-30T09:43:05.734Z</time></trkpt><trkpt lat="41.0095197" lon="9.0881491"><ele>419.0</ele><time>2026-04-30T09:43:06.734Z</time></trkpt><trkpt lat="41.0093177" lon="9.0880009"><ele>411.0</ele><time>2026-04-30T09:43:07.733Z</time></trkpt><trkpt lat="41.0091228" lon="9.0878167"><ele>403.0</ele><time>2026-04-30T09:43:08.733Z</time></trkpt><trkpt lat="41.008937" lon="9.0876174"><ele>408.0</ele><time>2026-04-30T09:43:09.733Z</time></trkpt><trkpt lat="41.0087611" lon="9.0874243"><ele>413.0</ele><time>2026-04-30T09:43:10.731Z</time></trkpt><trkpt lat="41.0085847" lon="9.0872428"><ele>413.0</ele><time>2026-04-30T09:43:11.732Z</time></trkpt><trkpt lat="41.008398" lon="9.0870826"><ele>413.0</ele><time>2026-04-30T09:43:12.733Z</time></trkpt><trkpt lat="41.0082011" lon="9.0869503"><ele>413.0</ele><time>2026-04-30T09:43:13.735Z</time></trkpt><trkpt lat="41.0079888" lon="9.0868504"><ele>408.0</ele><time>2026-04-30T09:43:14.734Z</time></trkpt><trkpt lat="41.0077642" lon="9.0867705"><ele>403.0</ele><time>2026-04-30T09:43:15.733Z</time></trkpt><trkpt lat="41.0075278" lon="9.0866991"><ele>401.0</ele><time>2026-04-30T09:43:16.731Z</time></trkpt><trkpt lat="41.007282" lon="9.0866222"><ele>399.0</ele><time>2026-04-30T09:43:17.733Z</time></trkpt><trkpt lat="41.0070252" lon="9.0865428"><ele>399.0</ele><time>2026-04-30T09:43:18.733Z</time></trkpt><trkpt lat="41.0067608" lon="9.0864608"><ele>399.0</ele><time>2026-04-30T09:43:19.732Z</time></trkpt><trkpt lat="41.0064956" lon="9.086376"><ele>398.5</ele><time>2026-04-30T09:43:20.732Z</time></trkpt><trkpt lat="41.0062284" lon="9.0862916"><ele>398.0</ele><time>2026-04-30T09:43:21.734Z</time></trkpt><trkpt lat="41.0059585" lon="9.0862057"><ele>397.0</ele><time>2026-04-30T09:43:22.731Z</time></trkpt><trkpt lat="41.0056861" lon="9.0861205"><ele>396.0</ele><time>2026-04-30T09:43:23.733Z</time></trkpt><trkpt lat="41.005413" lon="9.086035"><ele>396.0</ele><time>2026-04-30T09:43:24.733Z</time></trkpt><trkpt lat="41.0051404" lon="9.0859482"><ele>396.0</ele><time>2026-04-30T09:43:25.733Z</time></trkpt><trkpt lat="41.0048676" lon="9.0858636"><ele>396.0</ele><time>2026-04-30T09:43:26.733Z</time></trkpt><trkpt lat="41.0045999" lon="9.0857796"><ele>396.0</ele><time>2026-04-30T09:43:27.732Z</time></trkpt><trkpt lat="41.0043446" lon="9.0857002"><ele>394.5</ele><time>2026-04-30T09:43:28.733Z</time></trkpt><trkpt lat="41.0040976" lon="9.0856189"><ele>393.0</ele><time>2026-04-30T09:43:29.736Z</time></trkpt><trkpt lat="41.0038518" lon="9.0855452"><ele>393.0</ele><time>2026-04-30T09:43:30.732Z</time></trkpt><trkpt lat="41.0036113" lon="9.0854693"><ele>393.0</ele><time>2026-04-30T09:43:31.735Z</time></trkpt><trkpt lat="41.003374" lon="9.0853925"><ele>392.0</ele><time>2026-04-30T09:43:32.734Z</time></trkpt><trkpt lat="41.0031313" lon="9.0853142"><ele>391.0</ele><time>2026-04-30T09:43:33.74Z</time></trkpt><trkpt lat="41.0028794" lon="9.0852336"><ele>391.0</ele><time>2026-04-30T09:43:34.733Z</time></trkpt><trkpt lat="41.0026261" lon="9.0851535"><ele>391.0</ele><time>2026-04-30T09:43:35.733Z</time></trkpt><trkpt lat="41.0023768" lon="9.0850742"><ele>391.0</ele><time>2026-04-30T09:43:36.732Z</time></trkpt><trkpt lat="41.0021271" lon="9.084991"><ele>391.0</ele><time>2026-04-30T09:43:37.733Z</time></trkpt><trkpt lat="41.0018815" lon="9.0849126"><ele>390.5</ele><time>2026-04-30T09:43:38.732Z</time></trkpt><trkpt lat="41.0016424" lon="9.0848375"><ele>390.0</ele><time>2026-04-30T09:43:39.732Z</time></trkpt><trkpt lat="41.0014011" lon="9.0847617"><ele>390.0</ele><time>2026-04-30T09:43:40.732Z</time></trkpt><trkpt lat="41.0011624" lon="9.0846858"><ele>390.0</ele><time>2026-04-30T09:43:41.739Z</time></trkpt><trkpt lat="41.0009232" lon="9.0846114"><ele>390.0</ele><time>2026-04-30T09:43:42.731Z</time></trkpt><trkpt lat="41.0006863" lon="9.0845377"><ele>390.0</ele><time>2026-04-30T09:43:43.733Z</time></trkpt><trkpt lat="41.0004499" lon="9.0844619"><ele>390.0</ele><time>2026-04-30T09:43:44.733Z</time></trkpt><trkpt lat="41.0002119" lon="9.0843864"><ele>390.0</ele><time>2026-04-30T09:43:45.734Z</time></trkpt><trkpt lat="40.9999712" lon="9.0843114"><ele>390.0</ele><time>2026-04-30T09:43:46.733Z</time></trkpt><trkpt lat="40.9997282" lon="9.0842371"><ele>390.0</ele><time>2026-04-30T09:43:47.733Z</time></trkpt><trkpt lat="40.9994782" lon="9.0841607"><ele>390.5</ele><time>2026-04-30T09:43:48.733Z</time></trkpt><trkpt lat="40.999227" lon="9.0840791"><ele>391.0</ele><time>2026-04-30T09:43:49.732Z</time></trkpt><trkpt lat="40.9989725" lon="9.0839981"><ele>389.5</ele><time>2026-04-30T09:43:50.732Z</time></trkpt><trkpt lat="40.9987187" lon="9.0839137"><ele>388.0</ele><time>2026-04-30T09:43:51.731Z</time></trkpt><trkpt lat="40.9984622" lon="9.0838312"><ele>390.0</ele><time>2026-04-30T09:43:52.732Z</time></trkpt><trkpt lat="40.9982044" lon="9.0837485"><ele>392.0</ele><time>2026-04-30T09:43:53.733Z</time></trkpt><trkpt lat="40.9979491" lon="9.0836626"><ele>392.0</ele><time>2026-04-30T09:43:54.732Z</time></trkpt><trkpt lat="40.9976931" lon="9.083582"><ele>392.0</ele><time>2026-04-30T09:43:55.733Z</time></trkpt><trkpt lat="40.9974401" lon="9.0835018"><ele>392.0</ele><time>2026-04-30T09:43:56.731Z</time></trkpt><trkpt lat="40.997184" lon="9.0834253"><ele>392.0</ele><time>2026-04-30T09:43:57.732Z</time></trkpt><trkpt lat="40.9969321" lon="9.0833448"><ele>392.0</ele><time>2026-04-30T09:43:58.734Z</time></trkpt><trkpt lat="40.9966801" lon="9.0832677"><ele>392.0</ele><time>2026-04-30T09:43:59.734Z</time></trkpt><trkpt lat="40.9964298" lon="9.0831908"><ele>392.5</ele><time>2026-04-30T09:44:00.731Z</time></trkpt><trkpt lat="40.9961829" lon="9.0831076"><ele>393.0</ele><time>2026-04-30T09:44:01.732Z</time></trkpt><trkpt lat="40.9959366" lon="9.08302"><ele>395.0</ele><time>2026-04-30T09:44:02.731Z</time></trkpt><trkpt lat="40.9956917" lon="9.0829263"><ele>397.0</ele><time>2026-04-30T09:44:03.732Z</time></trkpt><trkpt lat="40.9954424" lon="9.0828335"><ele>397.0</ele><time>2026-04-30T09:44:04.732Z</time></trkpt><trkpt lat="40.9951949" lon="9.082736"><ele>397.0</ele><time>2026-04-30T09:44:05.735Z</time></trkpt><trkpt lat="40.9949456" lon="9.0826383"><ele>396.0</ele><time>2026-04-30T09:44:06.731Z</time></trkpt><trkpt lat="40.9946953" lon="9.0825374"><ele>395.0</ele><time>2026-04-30T09:44:07.73Z</time></trkpt><trkpt lat="40.9944449" lon="9.0824372"><ele>394.0</ele><time>2026-04-30T09:44:08.732Z</time></trkpt><trkpt lat="40.9941974" lon="9.0823308"><ele>393.0</ele><time>2026-04-30T09:44:09.731Z</time></trkpt><trkpt lat="40.9939512" lon="9.082222"><ele>393.0</ele><time>2026-04-30T09:44:10.732Z</time></trkpt><trkpt lat="40.9937162" lon="9.0821025"><ele>393.0</ele><time>2026-04-30T09:44:11.732Z</time></trkpt><trkpt lat="40.9934906" lon="9.0819795"><ele>397.5</ele><time>2026-04-30T09:44:12.732Z</time></trkpt><trkpt lat="40.9932724" lon="9.0818555"><ele>402.0</ele><time>2026-04-30T09:44:13.733Z</time></trkpt><trkpt lat="40.9930568" lon="9.0817316"><ele>402.0</ele><time>2026-04-30T09:44:14.733Z</time></trkpt><trkpt lat="40.9928434" lon="9.0816088"><ele>402.0</ele><time>2026-04-30T09:44:15.731Z</time></trkpt><trkpt lat="40.9926372" lon="9.0814812"><ele>401.5</ele><time>2026-04-30T09:44:16.731Z</time></trkpt><trkpt lat="40.9924302" lon="9.0813573"><ele>401.0</ele><time>2026-04-30T09:44:17.728Z</time></trkpt><trkpt lat="40.9922233" lon="9.0812335"><ele>401.0</ele><time>2026-04-30T09:44:18.734Z</time></trkpt><trkpt lat="40.992025" lon="9.0811225"><ele>401.0</ele><time>2026-04-30T09:44:19.733Z</time></trkpt><trkpt lat="40.9918336" lon="9.0810287"><ele>401.0</ele><time>2026-04-30T09:44:20.735Z</time></trkpt><trkpt lat="40.9916424" lon="9.0809717"><ele>402.0</ele><time>2026-04-30T09:44:21.732Z</time></trkpt><trkpt lat="40.9914514" lon="9.0809508"><ele>403.0</ele><time>2026-04-30T09:44:22.73Z</time></trkpt><trkpt lat="40.9912486" lon="9.0809739"><ele>404.0</ele><time>2026-04-30T09:44:23.731Z</time></trkpt><trkpt lat="40.9910359" lon="9.0810138"><ele>402.5</ele><time>2026-04-30T09:44:24.736Z</time></trkpt><trkpt lat="40.9908126" lon="9.0810589"><ele>401.0</ele><time>2026-04-30T09:44:25.732Z</time></trkpt><trkpt lat="40.9905785" lon="9.0811145"><ele>401.0</ele><time>2026-04-30T09:44:26.731Z</time></trkpt><trkpt lat="40.9903387" lon="9.0811847"><ele>401.0</ele><time>2026-04-30T09:44:27.73Z</time></trkpt><trkpt lat="40.9901013" lon="9.0812651"><ele>399.5</ele><time>2026-04-30T09:44:28.73Z</time></trkpt><trkpt lat="40.9898696" lon="9.0813537"><ele>398.0</ele><time>2026-04-30T09:44:29.731Z</time></trkpt><trkpt lat="40.9896425" lon="9.0814393"><ele>398.0</ele><time>2026-04-30T09:44:30.741Z</time></trkpt><trkpt lat="40.9894164" lon="9.0815245"><ele>398.0</ele><time>2026-04-30T09:44:31.733Z</time></trkpt><trkpt lat="40.9891951" lon="9.0816072"><ele>398.3333333333333</ele><time>2026-04-30T09:44:32.735Z</time></trkpt><trkpt lat="40.988987" lon="9.0816852"><ele>398.66666666666663</ele><time>2026-04-30T09:44:33.733Z</time></trkpt><trkpt lat="40.9887864" lon="9.0817675"><ele>399.0</ele><time>2026-04-30T09:44:34.732Z</time></trkpt><trkpt lat="40.988591" lon="9.0818673"><ele>399.0</ele><time>2026-04-30T09:44:35.731Z</time></trkpt><trkpt lat="40.9884037" lon="9.0819898"><ele>399.0</ele><time>2026-04-30T09:44:36.734Z</time></trkpt><trkpt lat="40.9882183" lon="9.0821262"><ele>399.0</ele><time>2026-04-30T09:44:37.731Z</time></trkpt><trkpt lat="40.98803" lon="9.0822604"><ele>399.33333333333337</ele><time>2026-04-30T09:44:38.733Z</time></trkpt><trkpt lat="40.9878352" lon="9.0823837"><ele>399.6666666666667</ele><time>2026-04-30T09:44:39.733Z</time></trkpt><trkpt lat="40.987633" lon="9.082493"><ele>400.0</ele><time>2026-04-30T09:44:40.731Z</time></trkpt><trkpt lat="40.9874187" lon="9.0825858"><ele>401.5</ele><time>2026-04-30T09:44:41.732Z</time></trkpt><trkpt lat="40.987194" lon="9.0826642"><ele>403.0</ele><time>2026-04-30T09:44:42.732Z</time></trkpt><trkpt lat="40.9869601" lon="9.0827393"><ele>403.0</ele><time>2026-04-30T09:44:43.731Z</time></trkpt><trkpt lat="40.9867249" lon="9.0828113"><ele>403.0</ele><time>2026-04-30T09:44:44.733Z</time></trkpt><trkpt lat="40.9865052" lon="9.08288"><ele>402.0</ele><time>2026-04-30T09:44:45.736Z</time></trkpt><trkpt lat="40.9863037" lon="9.0829589"><ele>401.0</ele><time>2026-04-30T09:44:46.734Z</time></trkpt><trkpt lat="40.9861235" lon="9.0830616"><ele>400.0</ele><time>2026-04-30T09:44:47.731Z</time></trkpt><trkpt lat="40.9859568" lon="9.0832005"><ele>402.6666666666667</ele><time>2026-04-30T09:44:48.73Z</time></trkpt><trkpt lat="40.985805" lon="9.0833686"><ele>405.33333333333337</ele><time>2026-04-30T09:44:49.731Z</time></trkpt><trkpt lat="40.9856614" lon="9.083568"><ele>408.0</ele><time>2026-04-30T09:44:50.733Z</time></trkpt><trkpt lat="40.9855172" lon="9.0837907"><ele>408.0</ele><time>2026-04-30T09:44:51.731Z</time></trkpt><trkpt lat="40.9853675" lon="9.0840215"><ele>408.0</ele><time>2026-04-30T09:44:52.733Z</time></trkpt><trkpt lat="40.9852101" lon="9.0842566"><ele>408.5</ele><time>2026-04-30T09:44:53.731Z</time></trkpt><trkpt lat="40.9850531" lon="9.084493"><ele>409.0</ele><time>2026-04-30T09:44:54.732Z</time></trkpt><trkpt lat="40.9849032" lon="9.084715"><ele>407.0</ele><time>2026-04-30T09:44:55.732Z</time></trkpt><trkpt lat="40.9847572" lon="9.0849094"><ele>405.0</ele><time>2026-04-30T09:44:56.731Z</time></trkpt><trkpt lat="40.9846054" lon="9.0850679"><ele>403.0</ele><time>2026-04-30T09:44:57.731Z</time></trkpt><trkpt lat="40.9844356" lon="9.0851841"><ele>403.0</ele><time>2026-04-30T09:44:58.732Z</time></trkpt><trkpt lat="40.9842565" lon="9.0852536"><ele>403.0</ele><time>2026-04-30T09:44:59.733Z</time></trkpt><trkpt lat="40.9840654" lon="9.0852777"><ele>403.0</ele><time>2026-04-30T09:45:00.733Z</time></trkpt><trkpt lat="40.9838652" lon="9.0852796"><ele>402.0</ele><time>2026-04-30T09:45:01.73Z</time></trkpt><trkpt lat="40.9836526" lon="9.0852882"><ele>401.0</ele><time>2026-04-30T09:45:02.732Z</time></trkpt><trkpt lat="40.9834497" lon="9.0853047"><ele>400.0</ele><time>2026-04-30T09:45:03.73Z</time></trkpt><trkpt lat="40.9832552" lon="9.0853517"><ele>400.0</ele><time>2026-04-30T09:45:04.734Z</time></trkpt><trkpt lat="40.983064" lon="9.0854488"><ele>400.0</ele><time>2026-04-30T09:45:05.731Z</time></trkpt><trkpt lat="40.9828693" lon="9.0855746"><ele>400.0</ele><time>2026-04-30T09:45:06.734Z</time></trkpt><trkpt lat="40.9826707" lon="9.0857196"><ele>399.5</ele><time>2026-04-30T09:45:07.73Z</time></trkpt><trkpt lat="40.9824679" lon="9.0858761"><ele>399.0</ele><time>2026-04-30T09:45:08.731Z</time></trkpt><trkpt lat="40.9822577" lon="9.0860348"><ele>399.0</ele><time>2026-04-30T09:45:09.73Z</time></trkpt><trkpt lat="40.9820418" lon="9.0861958"><ele>399.0</ele><time>2026-04-30T09:45:10.731Z</time></trkpt><trkpt lat="40.981822" lon="9.0863645"><ele>398.0</ele><time>2026-04-30T09:45:11.731Z</time></trkpt><trkpt lat="40.9816015" lon="9.0865375"><ele>397.0</ele><time>2026-04-30T09:45:12.732Z</time></trkpt><trkpt lat="40.9813792" lon="9.086713"><ele>396.5</ele><time>2026-04-30T09:45:13.73Z</time></trkpt><trkpt lat="40.981157" lon="9.0868876"><ele>396.0</ele><time>2026-04-30T09:45:14.734Z</time></trkpt><trkpt lat="40.9809378" lon="9.0870567"><ele>395.0</ele><time>2026-04-30T09:45:15.731Z</time></trkpt><trkpt lat="40.9807277" lon="9.0872191"><ele>394.0</ele><time>2026-04-30T09:45:16.731Z</time></trkpt><trkpt lat="40.9805192" lon="9.0873812"><ele>395.0</ele><time>2026-04-30T09:45:17.732Z</time></trkpt><trkpt lat="40.9803127" lon="9.0875427"><ele>396.0</ele><time>2026-04-30T09:45:18.732Z</time></trkpt><trkpt lat="40.9801063" lon="9.0877037"><ele>396.5</ele><time>2026-04-30T09:45:19.734Z</time></trkpt><trkpt lat="40.9799016" lon="9.0878686"><ele>397.0</ele><time>2026-04-30T09:45:20.731Z</time></trkpt><trkpt lat="40.9797077" lon="9.0880302"><ele>397.0</ele><time>2026-04-30T09:45:21.73Z</time></trkpt><trkpt lat="40.9795157" lon="9.088198"><ele>397.0</ele><time>2026-04-30T09:45:22.73Z</time></trkpt><trkpt lat="40.979325" lon="9.0883706"><ele>398.0</ele><time>2026-04-30T09:45:23.728Z</time></trkpt><trkpt lat="40.9791334" lon="9.0885441"><ele>399.0</ele><time>2026-04-30T09:45:24.732Z</time></trkpt><trkpt lat="40.9789402" lon="9.0887155"><ele>399.0</ele><time>2026-04-30T09:45:25.733Z</time></trkpt><trkpt lat="40.9787443" lon="9.0888868"><ele>399.0</ele><time>2026-04-30T09:45:26.73Z</time></trkpt><trkpt lat="40.9785558" lon="9.0890511"><ele>399.0</ele><time>2026-04-30T09:45:27.73Z</time></trkpt><trkpt lat="40.978376" lon="9.0892074"><ele>399.0</ele><time>2026-04-30T09:45:28.731Z</time></trkpt><trkpt lat="40.9781988" lon="9.0893621"><ele>399.0</ele><time>2026-04-30T09:45:29.73Z</time></trkpt><trkpt lat="40.9780274" lon="9.0895136"><ele>399.0</ele><time>2026-04-30T09:45:30.735Z</time></trkpt><trkpt lat="40.9778606" lon="9.0896727"><ele>399.0</ele><time>2026-04-30T09:45:31.734Z</time></trkpt><trkpt lat="40.9777007" lon="9.0898486"><ele>399.0</ele><time>2026-04-30T09:45:32.73Z</time></trkpt><trkpt lat="40.9775552" lon="9.0900473"><ele>400.33333333333337</ele><time>2026-04-30T09:45:33.73Z</time></trkpt><trkpt lat="40.9774246" lon="9.0902699"><ele>401.6666666666667</ele><time>2026-04-30T09:45:34.732Z</time></trkpt><trkpt lat="40.977301" lon="9.0905056"><ele>403.0</ele><time>2026-04-30T09:45:35.73Z</time></trkpt><trkpt lat="40.9771764" lon="9.0907474"><ele>401.5</ele><time>2026-04-30T09:45:36.731Z</time></trkpt><trkpt lat="40.9770483" lon="9.0909939"><ele>400.0</ele><time>2026-04-30T09:45:37.733Z</time></trkpt><trkpt lat="40.9769153" lon="9.0912495"><ele>400.0</ele><time>2026-04-30T09:45:38.732Z</time></trkpt><trkpt lat="40.9767765" lon="9.0915189"><ele>400.0</ele><time>2026-04-30T09:45:39.732Z</time></trkpt><trkpt lat="40.9766355" lon="9.091795"><ele>401.0</ele><time>2026-04-30T09:45:40.733Z</time></trkpt><trkpt lat="40.9764962" lon="9.0920696"><ele>402.0</ele><time>2026-04-30T09:45:41.731Z</time></trkpt><trkpt lat="40.9763548" lon="9.0923418"><ele>400.5</ele><time>2026-04-30T09:45:42.731Z</time></trkpt><trkpt lat="40.9762151" lon="9.0926119"><ele>399.0</ele><time>2026-04-30T09:45:43.733Z</time></trkpt><trkpt lat="40.9760784" lon="9.0928835"><ele>399.0</ele><time>2026-04-30T09:45:44.733Z</time></trkpt><trkpt lat="40.9759451" lon="9.0931493"><ele>399.0</ele><time>2026-04-30T09:45:45.736Z</time></trkpt><trkpt lat="40.9758181" lon="9.0933958"><ele>401.66666666666663</ele><time>2026-04-30T09:45:46.731Z</time></trkpt><trkpt lat="40.975707" lon="9.0936076"><ele>404.3333333333333</ele><time>2026-04-30T09:45:47.731Z</time></trkpt><trkpt lat="40.9755992" lon="9.0937915"><ele>407.0</ele><time>2026-04-30T09:45:48.73Z</time></trkpt><trkpt lat="40.9754802" lon="9.0939466"><ele>407.0</ele><time>2026-04-30T09:45:49.732Z</time></trkpt><trkpt lat="40.9753386" lon="9.0940689"><ele>407.0</ele><time>2026-04-30T09:45:50.733Z</time></trkpt><trkpt lat="40.975182" lon="9.094149"><ele>407.0</ele><time>2026-04-30T09:45:51.734Z</time></trkpt><trkpt lat="40.975017" lon="9.0941921"><ele>407.0</ele><time>2026-04-30T09:45:52.731Z</time></trkpt><trkpt lat="40.9748472" lon="9.0941976"><ele>407.0</ele><time>2026-04-30T09:45:53.73Z</time></trkpt><trkpt lat="40.9746745" lon="9.0941628"><ele>407.0</ele><time>2026-04-30T09:45:54.731Z</time></trkpt><trkpt lat="40.9745047" lon="9.0940877"><ele>408.66666666666663</ele><time>2026-04-30T09:45:55.732Z</time></trkpt><trkpt lat="40.9743421" lon="9.0939738"><ele>410.33333333333337</ele><time>2026-04-30T09:45:56.734Z</time></trkpt><trkpt lat="40.9741818" lon="9.0938244"><ele>412.0</ele><time>2026-04-30T09:45:57.733Z</time></trkpt><trkpt lat="40.9740136" lon="9.0936571"><ele>412.0</ele><time>2026-04-30T09:45:58.733Z</time></trkpt><trkpt lat="40.9738345" lon="9.0934709"><ele>412.0</ele><time>2026-04-30T09:45:59.732Z</time></trkpt><trkpt lat="40.9736659" lon="9.0932927"><ele>412.0</ele><time>2026-04-30T09:46:00.73Z</time></trkpt><trkpt lat="40.9734997" lon="9.093131"><ele>413.33333333333337</ele><time>2026-04-30T09:46:01.73Z</time></trkpt><trkpt lat="40.9733353" lon="9.092974"><ele>414.66666666666663</ele><time>2026-04-30T09:46:02.731Z</time></trkpt><trkpt lat="40.9731637" lon="9.0928401"><ele>416.0</ele><time>2026-04-30T09:46:03.732Z</time></trkpt><trkpt lat="40.9729756" lon="9.092734"><ele>416.0</ele><time>2026-04-30T09:46:04.732Z</time></trkpt><trkpt lat="40.9727748" lon="9.0926446"><ele>416.0</ele><time>2026-04-30T09:46:05.732Z</time></trkpt><trkpt lat="40.9725642" lon="9.0925727"><ele>416.0</ele><time>2026-04-30T09:46:06.73Z</time></trkpt><trkpt lat="40.9723589" lon="9.0925222"><ele>414.3333333333333</ele><time>2026-04-30T09:46:07.731Z</time></trkpt><trkpt lat="40.9721557" lon="9.092501"><ele>412.66666666666663</ele><time>2026-04-30T09:46:08.73Z</time></trkpt><trkpt lat="40.971945" lon="9.0925131"><ele>411.0</ele><time>2026-04-30T09:46:09.731Z</time></trkpt><trkpt lat="40.9717249" lon="9.0925491"><ele>411.33333333333337</ele><time>2026-04-30T09:46:10.734Z</time></trkpt><trkpt lat="40.9715068" lon="9.0925991"><ele>411.6666666666667</ele><time>2026-04-30T09:46:11.731Z</time></trkpt><trkpt lat="40.9712898" lon="9.0926616"><ele>412.0</ele><time>2026-04-30T09:46:12.736Z</time></trkpt><trkpt lat="40.9710753" lon="9.0927256"><ele>412.0</ele><time>2026-04-30T09:46:13.731Z</time></trkpt><trkpt lat="40.9708727" lon="9.0927874"><ele>412.0</ele><time>2026-04-30T09:46:14.73Z</time></trkpt><trkpt lat="40.9706708" lon="9.09285"><ele>412.0</ele><time>2026-04-30T09:46:15.734Z</time></trkpt><trkpt lat="40.9704729" lon="9.0929124"><ele>412.33333333333337</ele><time>2026-04-30T09:46:16.734Z</time></trkpt><trkpt lat="40.9702748" lon="9.0929721"><ele>412.66666666666663</ele><time>2026-04-30T09:46:17.732Z</time></trkpt><trkpt lat="40.9700807" lon="9.0930301"><ele>413.0</ele><time>2026-04-30T09:46:18.732Z</time></trkpt><trkpt lat="40.9698853" lon="9.0930905"><ele>413.0</ele><time>2026-04-30T09:46:19.732Z</time></trkpt><trkpt lat="40.9696952" lon="9.0931519"><ele>413.0</ele><time>2026-04-30T09:46:20.73Z</time></trkpt><trkpt lat="40.9695129" lon="9.093208"><ele>413.0</ele><time>2026-04-30T09:46:21.731Z</time></trkpt><trkpt lat="40.9693306" lon="9.0932639"><ele>414.66666666666663</ele><time>2026-04-30T09:46:22.733Z</time></trkpt><trkpt lat="40.9691462" lon="9.093321"><ele>416.33333333333337</ele><time>2026-04-30T09:46:23.733Z</time></trkpt><trkpt lat="40.9689565" lon="9.0933791"><ele>418.0</ele><time>2026-04-30T09:46:24.733Z</time></trkpt><trkpt lat="40.9687622" lon="9.0934374"><ele>418.0</ele><time>2026-04-30T09:46:25.731Z</time></trkpt><trkpt lat="40.9685636" lon="9.0935003"><ele>418.0</ele><time>2026-04-30T09:46:26.731Z</time></trkpt><trkpt lat="40.9683604" lon="9.093567"><ele>418.0</ele><time>2026-04-30T09:46:27.731Z</time></trkpt><trkpt lat="40.9681554" lon="9.0936355"><ele>418.0</ele><time>2026-04-30T09:46:28.73Z</time></trkpt><trkpt lat="40.9679498" lon="9.0937042"><ele>418.0</ele><time>2026-04-30T09:46:29.733Z</time></trkpt><trkpt lat="40.9677392" lon="9.0937736"><ele>418.0</ele><time>2026-04-30T09:46:30.733Z</time></trkpt><trkpt lat="40.9675266" lon="9.0938397"><ele>418.0</ele><time>2026-04-30T09:46:31.732Z</time></trkpt><trkpt lat="40.967327" lon="9.0939059"><ele>418.0</ele><time>2026-04-30T09:46:32.731Z</time></trkpt><trkpt lat="40.9671304" lon="9.0939657"><ele>418.0</ele><time>2026-04-30T09:46:33.73Z</time></trkpt><trkpt lat="40.9669324" lon="9.0940268"><ele>418.33333333333337</ele><time>2026-04-30T09:46:34.731Z</time></trkpt><trkpt lat="40.9667359" lon="9.0940897"><ele>418.66666666666663</ele><time>2026-04-30T09:46:35.732Z</time></trkpt><trkpt lat="40.9665384" lon="9.0941574"><ele>419.0</ele><time>2026-04-30T09:46:36.731Z</time></trkpt><trkpt lat="40.9663382" lon="9.094222"><ele>419.0</ele><time>2026-04-30T09:46:37.734Z</time></trkpt><trkpt lat="40.9661345" lon="9.0942865"><ele>419.0</ele><time>2026-04-30T09:46:38.742Z</time></trkpt><trkpt lat="40.9659263" lon="9.09435"><ele>419.0</ele><time>2026-04-30T09:46:39.73Z</time></trkpt><trkpt lat="40.9657168" lon="9.0944154"><ele>419.0</ele><time>2026-04-30T09:46:40.735Z</time></trkpt><trkpt lat="40.965507" lon="9.0944808"><ele>419.0</ele><time>2026-04-30T09:46:41.731Z</time></trkpt><trkpt lat="40.9652974" lon="9.0945492"><ele>419.0</ele><time>2026-04-30T09:46:42.734Z</time></trkpt><trkpt lat="40.9650872" lon="9.0946189"><ele>422.3333333333333</ele><time>2026-04-30T09:46:43.733Z</time></trkpt><trkpt lat="40.9648777" lon="9.0946863"><ele>425.66666666666663</ele><time>2026-04-30T09:46:44.733Z</time></trkpt><trkpt lat="40.9646702" lon="9.0947521"><ele>429.0</ele><time>2026-04-30T09:46:45.732Z</time></trkpt><trkpt lat="40.9644639" lon="9.0948151"><ele>429.0</ele><time>2026-04-30T09:46:46.731Z</time></trkpt><trkpt lat="40.9642589" lon="9.0948791"><ele>429.0</ele><time>2026-04-30T09:46:47.732Z</time></trkpt><trkpt lat="40.9640533" lon="9.0949429"><ele>429.0</ele><time>2026-04-30T09:46:48.733Z</time></trkpt><trkpt lat="40.9638508" lon="9.0950061"><ele>428.33333333333337</ele><time>2026-04-30T09:46:49.732Z</time></trkpt><trkpt lat="40.9636501" lon="9.095071"><ele>427.6666666666667</ele><time>2026-04-30T09:46:50.733Z</time></trkpt><trkpt lat="40.9634505" lon="9.0951317"><ele>427.0</ele><time>2026-04-30T09:46:51.731Z</time></trkpt><trkpt lat="40.9632517" lon="9.0951921"><ele>429.0</ele><time>2026-04-30T09:46:52.73Z</time></trkpt><trkpt lat="40.9630513" lon="9.0952546"><ele>431.0</ele><time>2026-04-30T09:46:53.732Z</time></trkpt><trkpt lat="40.9628493" lon="9.0953177"><ele>433.0</ele><time>2026-04-30T09:46:54.731Z</time></trkpt><trkpt lat="40.9626467" lon="9.0953822"><ele>433.6666666666667</ele><time>2026-04-30T09:46:55.735Z</time></trkpt><trkpt lat="40.9624464" lon="9.0954454"><ele>434.33333333333337</ele><time>2026-04-30T09:46:56.731Z</time></trkpt><trkpt lat="40.9622473" lon="9.0955143"><ele>435.0</ele><time>2026-04-30T09:46:57.732Z</time></trkpt><trkpt lat="40.9620501" lon="9.095591"><ele>435.0</ele><time>2026-04-30T09:46:58.732Z</time></trkpt><trkpt lat="40.9618551" lon="9.095673"><ele>435.0</ele><time>2026-04-30T09:46:59.732Z</time></trkpt><trkpt lat="40.961661" lon="9.0957637"><ele>435.0</ele><time>2026-04-30T09:47:00.73Z</time></trkpt><trkpt lat="40.961471" lon="9.0958705"><ele>433.66666666666663</ele><time>2026-04-30T09:47:01.732Z</time></trkpt><trkpt lat="40.9612895" lon="9.0959945"><ele>432.3333333333333</ele><time>2026-04-30T09:47:02.732Z</time></trkpt><trkpt lat="40.9611155" lon="9.0961235"><ele>431.0</ele><time>2026-04-30T09:47:03.732Z</time></trkpt><trkpt lat="40.960939" lon="9.0962573"><ele>430.66666666666663</ele><time>2026-04-30T09:47:04.742Z</time></trkpt><trkpt lat="40.9607644" lon="9.0963912"><ele>430.33333333333337</ele><time>2026-04-30T09:47:05.732Z</time></trkpt><trkpt lat="40.9605936" lon="9.0965254"><ele>430.0</ele><time>2026-04-30T09:47:06.732Z</time></trkpt><trkpt lat="40.9604272" lon="9.096658"><ele>429.33333333333337</ele><time>2026-04-30T09:47:07.732Z</time></trkpt><trkpt lat="40.9602576" lon="9.0967922"><ele>428.66666666666663</ele><time>2026-04-30T09:47:08.732Z</time></trkpt><trkpt lat="40.9600854" lon="9.0969301"><ele>428.0</ele><time>2026-04-30T09:47:09.732Z</time></trkpt><trkpt lat="40.959909" lon="9.0970737"><ele>426.66666666666663</ele><time>2026-04-30T09:47:10.732Z</time></trkpt><trkpt lat="40.9597291" lon="9.0972204"><ele>425.33333333333337</ele><time>2026-04-30T09:47:11.733Z</time></trkpt><trkpt lat="40.9595427" lon="9.0973713"><ele>424.0</ele><time>2026-04-30T09:47:12.732Z</time></trkpt><trkpt lat="40.95935" lon="9.0975273"><ele>422.0</ele><time>2026-04-30T09:47:13.732Z</time></trkpt><trkpt lat="40.9591507" lon="9.0976877"><ele>420.0</ele><time>2026-04-30T09:47:14.735Z</time></trkpt><trkpt lat="40.9589449" lon="9.0978537"><ele>420.0</ele><time>2026-04-30T09:47:15.733Z</time></trkpt><trkpt lat="40.9587357" lon="9.0980257"><ele>420.0</ele><time>2026-04-30T09:47:16.732Z</time></trkpt><trkpt lat="40.9585231" lon="9.0982019"><ele>418.0</ele><time>2026-04-30T09:47:17.732Z</time></trkpt><trkpt lat="40.9583082" lon="9.0983782"><ele>416.0</ele><time>2026-04-30T09:47:18.731Z</time></trkpt><trkpt lat="40.9580995" lon="9.0985457"><ele>416.0</ele><time>2026-04-30T09:47:19.733Z</time></trkpt><trkpt lat="40.9578977" lon="9.098707"><ele>416.0</ele><time>2026-04-30T09:47:20.733Z</time></trkpt><trkpt lat="40.9577019" lon="9.0988624"><ele>415.3333333333333</ele><time>2026-04-30T09:47:21.734Z</time></trkpt><trkpt lat="40.9575166" lon="9.0990113"><ele>414.66666666666663</ele><time>2026-04-30T09:47:22.732Z</time></trkpt><trkpt lat="40.9573562" lon="9.0991531"><ele>414.0</ele><time>2026-04-30T09:47:23.73Z</time></trkpt><trkpt lat="40.957223" lon="9.0992982"><ele>413.66666666666663</ele><time>2026-04-30T09:47:24.73Z</time></trkpt><trkpt lat="40.9571182" lon="9.0994604"><ele>413.3333333333333</ele><time>2026-04-30T09:47:25.733Z</time></trkpt><trkpt lat="40.9570366" lon="9.0996398"><ele>413.0</ele><time>2026-04-30T09:47:26.732Z</time></trkpt><trkpt lat="40.9569706" lon="9.099837"><ele>412.3333333333333</ele><time>2026-04-30T09:47:27.733Z</time></trkpt><trkpt lat="40.9569094" lon="9.1000416"><ele>411.66666666666663</ele><time>2026-04-30T09:47:28.732Z</time></trkpt><trkpt lat="40.9568506" lon="9.1002293"><ele>411.0</ele><time>2026-04-30T09:47:29.733Z</time></trkpt><trkpt lat="40.9567996" lon="9.1003885"><ele>411.0</ele><time>2026-04-30T09:47:30.731Z</time></trkpt><trkpt lat="40.9567546" lon="9.1005273"><ele>411.0</ele><time>2026-04-30T09:47:31.731Z</time></trkpt><trkpt lat="40.9567068" lon="9.1006338"><ele>411.0</ele><time>2026-04-30T09:47:32.734Z</time></trkpt><trkpt lat="40.9566473" lon="9.1007096"><ele>411.0</ele><time>2026-04-30T09:47:33.736Z</time></trkpt><trkpt lat="40.9565825" lon="9.100751"><ele>411.0</ele><time>2026-04-30T09:47:34.733Z</time></trkpt><trkpt lat="40.956459" lon="9.100745"><ele>410.6</ele><time>2026-04-30T09:47:36.731Z</time></trkpt><trkpt lat="40.9563942" lon="9.1007058"><ele>410.20000000000005</ele><time>2026-04-30T09:47:37.734Z</time></trkpt><trkpt lat="40.9563165" lon="9.1006512"><ele>409.79999999999995</ele><time>2026-04-30T09:47:38.732Z</time></trkpt><trkpt lat="40.9562254" lon="9.1005884"><ele>409.4</ele><time>2026-04-30T09:47:39.732Z</time></trkpt><trkpt lat="40.9561201" lon="9.1005208"><ele>409.0</ele><time>2026-04-30T09:47:40.733Z</time></trkpt><trkpt lat="40.9560009" lon="9.1004407"><ele>410.33333333333337</ele><time>2026-04-30T09:47:41.732Z</time></trkpt><trkpt lat="40.9558657" lon="9.100346"><ele>411.66666666666663</ele><time>2026-04-30T09:47:42.732Z</time></trkpt><trkpt lat="40.9557156" lon="9.1002401"><ele>413.0</ele><time>2026-04-30T09:47:43.732Z</time></trkpt><trkpt lat="40.9555616" lon="9.1001224"><ele>413.0</ele><time>2026-04-30T09:47:44.732Z</time></trkpt><trkpt lat="40.9553996" lon="9.0999994"><ele>413.0</ele><time>2026-04-30T09:47:45.733Z</time></trkpt><trkpt lat="40.9552314" lon="9.0998729"><ele>413.0</ele><time>2026-04-30T09:47:46.734Z</time></trkpt><trkpt lat="40.9550601" lon="9.0997387"><ele>413.3333333333333</ele><time>2026-04-30T09:47:47.732Z</time></trkpt><trkpt lat="40.9548863" lon="9.0996074"><ele>413.66666666666663</ele><time>2026-04-30T09:47:48.732Z</time></trkpt><trkpt lat="40.9547237" lon="9.0994836"><ele>414.0</ele><time>2026-04-30T09:47:49.734Z</time></trkpt><trkpt lat="40.9545649" lon="9.0993606"><ele>414.0</ele><time>2026-04-30T09:47:50.738Z</time></trkpt><trkpt lat="40.9544047" lon="9.0992412"><ele>414.0</ele><time>2026-04-30T09:47:51.731Z</time></trkpt><trkpt lat="40.9542423" lon="9.0991154"><ele>414.0</ele><time>2026-04-30T09:47:52.733Z</time></trkpt><trkpt lat="40.9540771" lon="9.0989829"><ele>415.0</ele><time>2026-04-30T09:47:53.732Z</time></trkpt><trkpt lat="40.9539051" lon="9.0988519"><ele>416.0</ele><time>2026-04-30T09:47:54.732Z</time></trkpt><trkpt lat="40.9537299" lon="9.0987159"><ele>417.0</ele><time>2026-04-30T09:47:55.731Z</time></trkpt><trkpt lat="40.9535494" lon="9.0985833"><ele>417.66666666666663</ele><time>2026-04-30T09:47:56.733Z</time></trkpt><trkpt lat="40.9533704" lon="9.0984451"><ele>418.3333333333333</ele><time>2026-04-30T09:47:57.732Z</time></trkpt><trkpt lat="40.9531994" lon="9.0983157"><ele>419.0</ele><time>2026-04-30T09:47:58.732Z</time></trkpt><trkpt lat="40.9530413" lon="9.0982004"><ele>419.66666666666663</ele><time>2026-04-30T09:47:59.73Z</time></trkpt><trkpt lat="40.9529002" lon="9.0980835"><ele>420.33333333333337</ele><time>2026-04-30T09:48:00.733Z</time></trkpt><trkpt lat="40.9527756" lon="9.0979499"><ele>421.0</ele><time>2026-04-30T09:48:01.732Z</time></trkpt><trkpt lat="40.9526709" lon="9.0977969"><ele>421.0</ele><time>2026-04-30T09:48:02.732Z</time></trkpt><trkpt lat="40.9525944" lon="9.0976165"><ele>421.0</ele><time>2026-04-30T09:48:03.739Z</time></trkpt><trkpt lat="40.9525448" lon="9.0974127"><ele>421.0</ele><time>2026-04-30T09:48:04.735Z</time></trkpt><trkpt lat="40.9525077" lon="9.0971987"><ele>420.33333333333337</ele><time>2026-04-30T09:48:05.734Z</time></trkpt><trkpt lat="40.9524767" lon="9.0969864"><ele>419.66666666666663</ele><time>2026-04-30T09:48:06.733Z</time></trkpt><trkpt lat="40.9524467" lon="9.0967893"><ele>419.0</ele><time>2026-04-30T09:48:07.734Z</time></trkpt><trkpt lat="40.952423" lon="9.0966036"><ele>419.75</ele><time>2026-04-30T09:48:08.73Z</time></trkpt><trkpt lat="40.9523976" lon="9.0964312"><ele>420.5</ele><time>2026-04-30T09:48:09.734Z</time></trkpt><trkpt lat="40.9523698" lon="9.0962721"><ele>421.25</ele><time>2026-04-30T09:48:10.731Z</time></trkpt><trkpt lat="40.9523361" lon="9.0961307"><ele>422.0</ele><time>2026-04-30T09:48:11.733Z</time></trkpt><trkpt lat="40.9522692" lon="9.0960274"><ele>422.0</ele><time>2026-04-30T09:48:12.735Z</time></trkpt><trkpt lat="40.9521782" lon="9.0959683"><ele>422.0</ele><time>2026-04-30T09:48:13.733Z</time></trkpt><trkpt lat="40.9520765" lon="9.0959616"><ele>422.0</ele><time>2026-04-30T09:48:14.731Z</time></trkpt><trkpt lat="40.9519703" lon="9.0960044"><ele>422.0</ele><time>2026-04-30T09:48:15.732Z</time></trkpt><trkpt lat="40.9518582" lon="9.0960611"><ele>422.0</ele><time>2026-04-30T09:48:16.735Z</time></trkpt><trkpt lat="40.9517391" lon="9.0961218"><ele>422.0</ele><time>2026-04-30T09:48:17.73Z</time></trkpt><trkpt lat="40.9516177" lon="9.0961838"><ele>422.0</ele><time>2026-04-30T09:48:18.732Z</time></trkpt><trkpt lat="40.9515117" lon="9.0962375"><ele>422.0</ele><time>2026-04-30T09:48:19.731Z</time></trkpt><trkpt lat="40.9514197" lon="9.0962857"><ele>422.0</ele><time>2026-04-30T09:48:20.731Z</time></trkpt><trkpt lat="40.9513357" lon="9.0963278"><ele>422.0</ele><time>2026-04-30T09:48:21.733Z</time></trkpt><trkpt lat="40.9512605" lon="9.0963642"><ele>421.99999999999994</ele><time>2026-04-30T09:48:22.741Z</time></trkpt><trkpt lat="40.951186" lon="9.0964024"><ele>422.0</ele><time>2026-04-30T09:48:23.73Z</time></trkpt><trkpt lat="40.9511086" lon="9.0964408"><ele>422.0</ele><time>2026-04-30T09:48:24.732Z</time></trkpt><trkpt lat="40.9510254" lon="9.0964682"><ele>422.0</ele><time>2026-04-30T09:48:25.731Z</time></trkpt><trkpt lat="40.9509334" lon="9.0964781"><ele>421.99999999999994</ele><time>2026-04-30T09:48:26.733Z</time></trkpt><trkpt lat="40.9508362" lon="9.0964647"><ele>422.0</ele><time>2026-04-30T09:48:27.731Z</time></trkpt><trkpt lat="40.9507377" lon="9.0964209"><ele>424.3333333333333</ele><time>2026-04-30T09:48:28.731Z</time></trkpt><trkpt lat="40.9505408" lon="9.0962625"><ele>426.66666666666663</ele><time>2026-04-30T09:48:30.73Z</time></trkpt><trkpt lat="40.9504357" lon="9.0961564"><ele>429.0</ele><time>2026-04-30T09:48:31.731Z</time></trkpt><trkpt lat="40.9503157" lon="9.0960379"><ele>429.0</ele><time>2026-04-30T09:48:32.732Z</time></trkpt><trkpt lat="40.95018" lon="9.0959046"><ele>429.0</ele><time>2026-04-30T09:48:33.732Z</time></trkpt><trkpt lat="40.9500315" lon="9.0957513"><ele>429.0</ele><time>2026-04-30T09:48:34.733Z</time></trkpt><trkpt lat="40.9498664" lon="9.0955846"><ele>429.5</ele><time>2026-04-30T09:48:35.732Z</time></trkpt><trkpt lat="40.9496851" lon="9.0954089"><ele>430.0</ele><time>2026-04-30T09:48:36.733Z</time></trkpt><trkpt lat="40.9494993" lon="9.0952299"><ele>430.0</ele><time>2026-04-30T09:48:37.73Z</time></trkpt><trkpt lat="40.9493257" lon="9.0950605"><ele>430.0</ele><time>2026-04-30T09:48:38.732Z</time></trkpt><trkpt lat="40.9491668" lon="9.0949015"><ele>430.0</ele><time>2026-04-30T09:48:39.733Z</time></trkpt><trkpt lat="40.9490165" lon="9.0947549"><ele>430.6666666666667</ele><time>2026-04-30T09:48:40.731Z</time></trkpt><trkpt lat="40.9488767" lon="9.0946187"><ele>431.33333333333337</ele><time>2026-04-30T09:48:41.73Z</time></trkpt><trkpt lat="40.9487626" lon="9.0944788"><ele>432.0</ele><time>2026-04-30T09:48:42.73Z</time></trkpt><trkpt lat="40.948663" lon="9.0943231"><ele>432.0</ele><time>2026-04-30T09:48:43.732Z</time></trkpt><trkpt lat="40.9485656" lon="9.0941521"><ele>432.0</ele><time>2026-04-30T09:48:44.733Z</time></trkpt><trkpt lat="40.9484694" lon="9.0939733"><ele>432.0</ele><time>2026-04-30T09:48:45.733Z</time></trkpt><trkpt lat="40.9483783" lon="9.0937928"><ele>430.66666666666663</ele><time>2026-04-30T09:48:46.732Z</time></trkpt><trkpt lat="40.9482917" lon="9.0936174"><ele>429.3333333333333</ele><time>2026-04-30T09:48:47.735Z</time></trkpt><trkpt lat="40.9482099" lon="9.0934386"><ele>428.0</ele><time>2026-04-30T09:48:48.732Z</time></trkpt><trkpt lat="40.9481429" lon="9.0932391"><ele>428.0</ele><time>2026-04-30T09:48:49.734Z</time></trkpt><trkpt lat="40.9480929" lon="9.0930274"><ele>428.0</ele><time>2026-04-30T09:48:50.732Z</time></trkpt><trkpt lat="40.9480633" lon="9.0928129"><ele>428.0</ele><time>2026-04-30T09:48:51.732Z</time></trkpt><trkpt lat="40.9480445" lon="9.0926122"><ele>427.5</ele><time>2026-04-30T09:48:52.733Z</time></trkpt><trkpt lat="40.9480314" lon="9.0924221"><ele>427.0</ele><time>2026-04-30T09:48:53.731Z</time></trkpt><trkpt lat="40.9480079" lon="9.0922478"><ele>426.5</ele><time>2026-04-30T09:48:54.737Z</time></trkpt><trkpt lat="40.9479494" lon="9.092099"><ele>426.0</ele><time>2026-04-30T09:48:55.732Z</time></trkpt><trkpt lat="40.9478863" lon="9.091968"><ele>426.0</ele><time>2026-04-30T09:48:56.734Z</time></trkpt><trkpt lat="40.9478465" lon="9.0918248"><ele>426.0</ele><time>2026-04-30T09:48:57.734Z</time></trkpt><trkpt lat="40.9478382" lon="9.0916764"><ele>426.0</ele><time>2026-04-30T09:48:58.733Z</time></trkpt><trkpt lat="40.9478467" lon="9.0915298"><ele>426.0</ele><time>2026-04-30T09:48:59.736Z</time></trkpt><trkpt lat="40.9478327" lon="9.0913915"><ele>426.0</ele><time>2026-04-30T09:49:00.737Z</time></trkpt><trkpt lat="40.9477828" lon="9.091269"><ele>425.8</ele><time>2026-04-30T09:49:01.733Z</time></trkpt><trkpt lat="40.9477113" lon="9.091183"><ele>425.6</ele><time>2026-04-30T09:49:02.736Z</time></trkpt><trkpt lat="40.947633" lon="9.0911104"><ele>425.4</ele><time>2026-04-30T09:49:03.733Z</time></trkpt><trkpt lat="40.9475634" lon="9.0910083"><ele>425.2</ele><time>2026-04-30T09:49:04.738Z</time></trkpt><trkpt lat="40.9475084" lon="9.0908922"><ele>425.0</ele><time>2026-04-30T09:49:05.733Z</time></trkpt><trkpt lat="40.947471" lon="9.0907658"><ele>423.4</ele><time>2026-04-30T09:49:06.737Z</time></trkpt><trkpt lat="40.9474493" lon="9.0906341"><ele>421.8</ele><time>2026-04-30T09:49:07.733Z</time></trkpt><trkpt lat="40.947429" lon="9.0905017"><ele>420.20000000000005</ele><time>2026-04-30T09:49:08.734Z</time></trkpt><trkpt lat="40.9473924" lon="9.0903844"><ele>418.6</ele><time>2026-04-30T09:49:09.733Z</time></trkpt><trkpt lat="40.9473288" lon="9.0902978"><ele>417.0</ele><time>2026-04-30T09:49:10.734Z</time></trkpt><trkpt lat="40.9472501" lon="9.0902523"><ele>417.0</ele><time>2026-04-30T09:49:11.733Z</time></trkpt><trkpt lat="40.9471621" lon="9.0902357"><ele>417.0</ele><time>2026-04-30T09:49:12.732Z</time></trkpt><trkpt lat="40.9470671" lon="9.0902517"><ele>417.0</ele><time>2026-04-30T09:49:13.736Z</time></trkpt><trkpt lat="40.9469795" lon="9.0903069"><ele>417.0</ele><time>2026-04-30T09:49:14.731Z</time></trkpt><trkpt lat="40.9469122" lon="9.0904154"><ele>417.0</ele><time>2026-04-30T09:49:15.737Z</time></trkpt><trkpt lat="40.9468675" lon="9.090556"><ele>417.0</ele><time>2026-04-30T09:49:16.736Z</time></trkpt><trkpt lat="40.9468266" lon="9.090715"><ele>417.0</ele><time>2026-04-30T09:49:17.733Z</time></trkpt><trkpt lat="40.9467649" lon="9.0908926"><ele>417.0</ele><time>2026-04-30T09:49:18.734Z</time></trkpt><trkpt lat="40.9466702" lon="9.0910705"><ele>417.0</ele><time>2026-04-30T09:49:19.735Z</time></trkpt><trkpt lat="40.9465531" lon="9.0912611"><ele>417.66666666666663</ele><time>2026-04-30T09:49:20.735Z</time></trkpt><trkpt lat="40.9464282" lon="9.0914377"><ele>418.3333333333333</ele><time>2026-04-30T09:49:21.733Z</time></trkpt><trkpt lat="40.9462828" lon="9.0915877"><ele>419.0</ele><time>2026-04-30T09:49:22.733Z</time></trkpt><trkpt lat="40.9461067" lon="9.0917146"><ele>420.0</ele><time>2026-04-30T09:49:23.735Z</time></trkpt><trkpt lat="40.9459141" lon="9.0918342"><ele>421.0</ele><time>2026-04-30T09:49:24.734Z</time></trkpt><trkpt lat="40.9457287" lon="9.0919455"><ele>422.0</ele><time>2026-04-30T09:49:25.73Z</time></trkpt><trkpt lat="40.9455653" lon="9.0920468"><ele>422.0</ele><time>2026-04-30T09:49:26.731Z</time></trkpt><trkpt lat="40.9454432" lon="9.0921549"><ele>422.0</ele><time>2026-04-30T09:49:27.734Z</time></trkpt><trkpt lat="40.9453498" lon="9.092299"><ele>422.0</ele><time>2026-04-30T09:49:28.734Z</time></trkpt><trkpt lat="40.9452947" lon="9.0924833"><ele>422.0</ele><time>2026-04-30T09:49:29.737Z</time></trkpt><trkpt lat="40.9452492" lon="9.0926939"><ele>422.5</ele><time>2026-04-30T09:49:30.739Z</time></trkpt><trkpt lat="40.9452021" lon="9.0928806"><ele>423.0</ele><time>2026-04-30T09:49:31.742Z</time></trkpt><trkpt lat="40.9451409" lon="9.0930368"><ele>423.5</ele><time>2026-04-30T09:49:32.731Z</time></trkpt><trkpt lat="40.9450599" lon="9.0931566"><ele>424.0</ele><time>2026-04-30T09:49:33.731Z</time></trkpt><trkpt lat="40.9449537" lon="9.093246"><ele>424.0</ele><time>2026-04-30T09:49:34.729Z</time></trkpt><trkpt lat="40.9448186" lon="9.093295"><ele>424.0</ele><time>2026-04-30T09:49:35.735Z</time></trkpt><trkpt lat="40.9446883" lon="9.0932927"><ele>424.0</ele><time>2026-04-30T09:49:36.733Z</time></trkpt><trkpt lat="40.9445724" lon="9.0932282"><ele>424.0</ele><time>2026-04-30T09:49:37.731Z</time></trkpt><trkpt lat="40.9444682" lon="9.0931045"><ele>424.0</ele><time>2026-04-30T09:49:38.732Z</time></trkpt><trkpt lat="40.9443694" lon="9.0929253"><ele>424.0</ele><time>2026-04-30T09:49:39.733Z</time></trkpt><trkpt lat="40.9442871" lon="9.0927077"><ele>424.0</ele><time>2026-04-30T09:49:40.735Z</time></trkpt><trkpt lat="40.944229" lon="9.0924613"><ele>424.33333333333337</ele><time>2026-04-30T09:49:41.733Z</time></trkpt><trkpt lat="40.944187" lon="9.0922407"><ele>424.66666666666663</ele><time>2026-04-30T09:49:42.732Z</time></trkpt><trkpt lat="40.9441341" lon="9.0920499"><ele>425.0</ele><time>2026-04-30T09:49:43.735Z</time></trkpt><trkpt lat="40.9440545" lon="9.0919103"><ele>425.0</ele><time>2026-04-30T09:49:44.733Z</time></trkpt><trkpt lat="40.9439442" lon="9.0918423"><ele>425.0</ele><time>2026-04-30T09:49:45.73Z</time></trkpt><trkpt lat="40.9438273" lon="9.0918321"><ele>425.0</ele><time>2026-04-30T09:49:46.732Z</time></trkpt><trkpt lat="40.9436943" lon="9.0918997"><ele>425.0</ele><time>2026-04-30T09:49:47.734Z</time></trkpt><trkpt lat="40.9435468" lon="9.0920061"><ele>425.0</ele><time>2026-04-30T09:49:48.733Z</time></trkpt><trkpt lat="40.9434131" lon="9.0921037"><ele>425.0</ele><time>2026-04-30T09:49:49.735Z</time></trkpt><trkpt lat="40.9432949" lon="9.0921457"><ele>425.0</ele><time>2026-04-30T09:49:50.733Z</time></trkpt><trkpt lat="40.9431816" lon="9.0921168"><ele>425.0</ele><time>2026-04-30T09:49:51.733Z</time></trkpt><trkpt lat="40.9430848" lon="9.0920243"><ele>425.66666666666663</ele><time>2026-04-30T09:49:52.735Z</time></trkpt><trkpt lat="40.9429963" lon="9.0918637"><ele>426.33333333333337</ele><time>2026-04-30T09:49:53.734Z</time></trkpt><trkpt lat="40.9428995" lon="9.0916548"><ele>427.0</ele><time>2026-04-30T09:49:54.736Z</time></trkpt><trkpt lat="40.9428" lon="9.0914212"><ele>427.25</ele><time>2026-04-30T09:49:55.734Z</time></trkpt><trkpt lat="40.9427166" lon="9.0912271"><ele>427.5</ele><time>2026-04-30T09:49:56.732Z</time></trkpt><trkpt lat="40.9426384" lon="9.0910768"><ele>427.75</ele><time>2026-04-30T09:49:57.732Z</time></trkpt><trkpt lat="40.9425481" lon="9.0909795"><ele>428.0</ele><time>2026-04-30T09:49:58.734Z</time></trkpt><trkpt lat="40.9424422" lon="9.090962"><ele>428.0</ele><time>2026-04-30T09:49:59.74Z</time></trkpt><trkpt lat="40.9423422" lon="9.0910096"><ele>427.99999999999994</ele><time>2026-04-30T09:50:00.732Z</time></trkpt><trkpt lat="40.9422778" lon="9.0911134"><ele>427.99999999999994</ele><time>2026-04-30T09:50:01.731Z</time></trkpt><trkpt lat="40.9422577" lon="9.0912565"><ele>428.0</ele><time>2026-04-30T09:50:02.737Z</time></trkpt><trkpt lat="40.9422698" lon="9.0914248"><ele>428.0</ele><time>2026-04-30T09:50:03.733Z</time></trkpt><trkpt lat="40.9422775" lon="9.091618"><ele>427.3333333333333</ele><time>2026-04-30T09:50:04.733Z</time></trkpt><trkpt lat="40.9422531" lon="9.091825"><ele>426.66666666666663</ele><time>2026-04-30T09:50:05.734Z</time></trkpt><trkpt lat="40.9421934" lon="9.0920234"><ele>426.0</ele><time>2026-04-30T09:50:06.732Z</time></trkpt><trkpt lat="40.9420986" lon="9.0922153"><ele>426.0</ele><time>2026-04-30T09:50:07.734Z</time></trkpt><trkpt lat="40.9419794" lon="9.0924213"><ele>426.0</ele><time>2026-04-30T09:50:08.732Z</time></trkpt><trkpt lat="40.9418437" lon="9.0926304"><ele>426.0</ele><time>2026-04-30T09:50:09.735Z</time></trkpt><trkpt lat="40.9417086" lon="9.0927962"><ele>429.33333333333337</ele><time>2026-04-30T09:50:10.733Z</time></trkpt><trkpt lat="40.9415508" lon="9.0929295"><ele>432.6666666666667</ele><time>2026-04-30T09:50:11.733Z</time></trkpt><trkpt lat="40.9413777" lon="9.0930143"><ele>436.0</ele><time>2026-04-30T09:50:12.735Z</time></trkpt><trkpt lat="40.9411815" lon="9.093054"><ele>436.0</ele><time>2026-04-30T09:50:13.731Z</time></trkpt><trkpt lat="40.9409672" lon="9.0930804"><ele>436.0</ele><time>2026-04-30T09:50:14.731Z</time></trkpt><trkpt lat="40.9407325" lon="9.0931103"><ele>440.5</ele><time>2026-04-30T09:50:15.734Z</time></trkpt><trkpt lat="40.9404818" lon="9.0931429"><ele>445.0</ele><time>2026-04-30T09:50:16.734Z</time></trkpt><trkpt lat="40.9402136" lon="9.0931741"><ele>445.0</ele><time>2026-04-30T09:50:17.733Z</time></trkpt><trkpt lat="40.9399299" lon="9.0932075"><ele>445.0</ele><time>2026-04-30T09:50:18.734Z</time></trkpt><trkpt lat="40.939636" lon="9.0932354"><ele>443.5</ele><time>2026-04-30T09:50:19.737Z</time></trkpt><trkpt lat="40.9393543" lon="9.0932667"><ele>442.0</ele><time>2026-04-30T09:50:20.732Z</time></trkpt><trkpt lat="40.9390818" lon="9.0932966"><ele>440.0</ele><time>2026-04-30T09:50:21.733Z</time></trkpt><trkpt lat="40.9388125" lon="9.0933215"><ele>438.0</ele><time>2026-04-30T09:50:22.734Z</time></trkpt><trkpt lat="40.9385443" lon="9.0933457"><ele>435.5</ele><time>2026-04-30T09:50:23.734Z</time></trkpt><trkpt lat="40.9382806" lon="9.093373"><ele>433.0</ele><time>2026-04-30T09:50:24.736Z</time></trkpt><trkpt lat="40.9380278" lon="9.0934043"><ele>433.0</ele><time>2026-04-30T09:50:25.734Z</time></trkpt><trkpt lat="40.9377732" lon="9.0934458"><ele>433.0</ele><time>2026-04-30T09:50:26.731Z</time></trkpt><trkpt lat="40.9375185" lon="9.0935015"><ele>431.5</ele><time>2026-04-30T09:50:27.734Z</time></trkpt><trkpt lat="40.9372623" lon="9.0935689"><ele>430.0</ele><time>2026-04-30T09:50:28.736Z</time></trkpt><trkpt lat="40.9370048" lon="9.0936513"><ele>430.0</ele><time>2026-04-30T09:50:29.736Z</time></trkpt><trkpt lat="40.9367479" lon="9.0937452"><ele>430.0</ele><time>2026-04-30T09:50:30.734Z</time></trkpt><trkpt lat="40.9364912" lon="9.0938517"><ele>430.0</ele><time>2026-04-30T09:50:31.736Z</time></trkpt><trkpt lat="40.9362334" lon="9.0939743"><ele>430.0</ele><time>2026-04-30T09:50:32.736Z</time></trkpt><trkpt lat="40.9359777" lon="9.094114"><ele>432.0</ele><time>2026-04-30T09:50:33.736Z</time></trkpt><trkpt lat="40.9357241" lon="9.0942622"><ele>434.0</ele><time>2026-04-30T09:50:34.737Z</time></trkpt><trkpt lat="40.9354721" lon="9.0944234"><ele>434.0</ele><time>2026-04-30T09:50:35.733Z</time></trkpt><trkpt lat="40.9352217" lon="9.0945999"><ele>434.0</ele><time>2026-04-30T09:50:36.736Z</time></trkpt><trkpt lat="40.9349717" lon="9.0947867"><ele>429.0</ele><time>2026-04-30T09:50:37.736Z</time></trkpt><trkpt lat="40.9347243" lon="9.0949768"><ele>424.0</ele><time>2026-04-30T09:50:38.733Z</time></trkpt><trkpt lat="40.9344785" lon="9.0951655"><ele>424.0</ele><time>2026-04-30T09:50:39.734Z</time></trkpt><trkpt lat="40.9342349" lon="9.0953536"><ele>424.0</ele><time>2026-04-30T09:50:40.733Z</time></trkpt><trkpt lat="40.9339945" lon="9.095542"><ele>418.0</ele><time>2026-04-30T09:50:41.735Z</time></trkpt><trkpt lat="40.9337547" lon="9.0957286"><ele>412.0</ele><time>2026-04-30T09:50:42.732Z</time></trkpt><trkpt lat="40.933514" lon="9.0959121"><ele>415.5</ele><time>2026-04-30T09:50:43.735Z</time></trkpt><trkpt lat="40.9332742" lon="9.0960824"><ele>419.0</ele><time>2026-04-30T09:50:44.735Z</time></trkpt><trkpt lat="40.9330327" lon="9.0962393"><ele>419.0</ele><time>2026-04-30T09:50:45.736Z</time></trkpt><trkpt lat="40.932788" lon="9.0963828"><ele>419.0</ele><time>2026-04-30T09:50:46.731Z</time></trkpt><trkpt lat="40.9325449" lon="9.0965047"><ele>422.0</ele><time>2026-04-30T09:50:47.737Z</time></trkpt><trkpt lat="40.9323101" lon="9.0966018"><ele>425.0</ele><time>2026-04-30T09:50:48.733Z</time></trkpt><trkpt lat="40.9320739" lon="9.0966812"><ele>425.0</ele><time>2026-04-30T09:50:49.733Z</time></trkpt><trkpt lat="40.9318351" lon="9.0967436"><ele>425.0</ele><time>2026-04-30T09:50:50.733Z</time></trkpt><trkpt lat="40.9315939" lon="9.0967893"><ele>430.0</ele><time>2026-04-30T09:50:51.732Z</time></trkpt><trkpt lat="40.9313513" lon="9.0968235"><ele>435.0</ele><time>2026-04-30T09:50:52.73Z</time></trkpt><trkpt lat="40.9311071" lon="9.0968389"><ele>437.0</ele><time>2026-04-30T09:50:53.736Z</time></trkpt><trkpt lat="40.9308607" lon="9.0968332"><ele>439.0</ele><time>2026-04-30T09:50:54.732Z</time></trkpt><trkpt lat="40.9306082" lon="9.0968083"><ele>439.0</ele><time>2026-04-30T09:50:55.738Z</time></trkpt><trkpt lat="40.9303561" lon="9.0967644"><ele>439.0</ele><time>2026-04-30T09:50:56.733Z</time></trkpt><trkpt lat="40.9301036" lon="9.0967016"><ele>439.5</ele><time>2026-04-30T09:50:57.736Z</time></trkpt><trkpt lat="40.9298493" lon="9.0966224"><ele>440.0</ele><time>2026-04-30T09:50:58.737Z</time></trkpt><trkpt lat="40.9295949" lon="9.0965325"><ele>440.0</ele><time>2026-04-30T09:50:59.736Z</time></trkpt><trkpt lat="40.9293402" lon="9.0964289"><ele>440.0</ele><time>2026-04-30T09:51:00.734Z</time></trkpt><trkpt lat="40.9290824" lon="9.0963166"><ele>440.0</ele><time>2026-04-30T09:51:01.733Z</time></trkpt><trkpt lat="40.9288217" lon="9.0961996"><ele>440.0</ele><time>2026-04-30T09:51:02.732Z</time></trkpt><trkpt lat="40.9285629" lon="9.0960821"><ele>437.5</ele><time>2026-04-30T09:51:03.733Z</time></trkpt><trkpt lat="40.9283203" lon="9.0959692"><ele>435.0</ele><time>2026-04-30T09:51:04.735Z</time></trkpt><trkpt lat="40.9280974" lon="9.0958636"><ele>435.0</ele><time>2026-04-30T09:51:05.734Z</time></trkpt><trkpt lat="40.9278947" lon="9.0957669"><ele>435.0</ele><time>2026-04-30T09:51:06.732Z</time></trkpt><trkpt lat="40.9277109" lon="9.09568"><ele>435.0</ele><time>2026-04-30T09:51:07.731Z</time></trkpt><trkpt lat="40.9275402" lon="9.0956083"><ele>435.0</ele><time>2026-04-30T09:51:08.733Z</time></trkpt><trkpt lat="40.9273768" lon="9.0955735"><ele>435.0</ele><time>2026-04-30T09:51:09.734Z</time></trkpt><trkpt lat="40.9272122" lon="9.0955692"><ele>435.0</ele><time>2026-04-30T09:51:10.735Z</time></trkpt><trkpt lat="40.9270389" lon="9.0955801"><ele>435.0</ele><time>2026-04-30T09:51:11.742Z</time></trkpt><trkpt lat="40.9268543" lon="9.0955983"><ele>435.0</ele><time>2026-04-30T09:51:12.731Z</time></trkpt><trkpt lat="40.9266997" lon="9.0955991"><ele>435.0</ele><time>2026-04-30T09:51:13.733Z</time></trkpt><trkpt lat="40.9265646" lon="9.0955969"><ele>434.5</ele><time>2026-04-30T09:51:14.735Z</time></trkpt><trkpt lat="40.9264436" lon="9.0955755"><ele>434.0</ele><time>2026-04-30T09:51:15.735Z</time></trkpt><trkpt lat="40.9263374" lon="9.0955132"><ele>433.5</ele><time>2026-04-30T09:51:16.734Z</time></trkpt><trkpt lat="40.9262355" lon="9.0954058"><ele>433.0</ele><time>2026-04-30T09:51:17.736Z</time></trkpt><trkpt lat="40.9261307" lon="9.095268"><ele>433.0</ele><time>2026-04-30T09:51:18.733Z</time></trkpt><trkpt lat="40.9260304" lon="9.0950878"><ele>433.0</ele><time>2026-04-30T09:51:19.738Z</time></trkpt><trkpt lat="40.925912" lon="9.0949072"><ele>433.0</ele><time>2026-04-30T09:51:20.736Z</time></trkpt><trkpt lat="40.9257839" lon="9.0947045"><ele>432.6666666666667</ele><time>2026-04-30T09:51:21.732Z</time></trkpt><trkpt lat="40.9256494" lon="9.0944909"><ele>432.33333333333337</ele><time>2026-04-30T09:51:22.736Z</time></trkpt><trkpt lat="40.9255098" lon="9.0942661"><ele>432.0</ele><time>2026-04-30T09:51:23.737Z</time></trkpt><trkpt lat="40.9253679" lon="9.0940393"><ele>432.33333333333337</ele><time>2026-04-30T09:51:24.734Z</time></trkpt><trkpt lat="40.9252386" lon="9.0938269"><ele>432.6666666666667</ele><time>2026-04-30T09:51:25.733Z</time></trkpt><trkpt lat="40.9251201" lon="9.0936317"><ele>433.0</ele><time>2026-04-30T09:51:26.732Z</time></trkpt><trkpt lat="40.9250135" lon="9.0934599"><ele>433.0</ele><time>2026-04-30T09:51:27.733Z</time></trkpt><trkpt lat="40.9249153" lon="9.0933172"><ele>433.0</ele><time>2026-04-30T09:51:28.732Z</time></trkpt><trkpt lat="40.9248129" lon="9.0932106"><ele>433.0</ele><time>2026-04-30T09:51:29.734Z</time></trkpt><trkpt lat="40.9247065" lon="9.0931555"><ele>433.0</ele><time>2026-04-30T09:51:30.736Z</time></trkpt><trkpt lat="40.9246094" lon="9.0931576"><ele>432.2</ele><time>2026-04-30T09:51:31.736Z</time></trkpt><trkpt lat="40.9245191" lon="9.0931922"><ele>431.4</ele><time>2026-04-30T09:51:32.734Z</time></trkpt><trkpt lat="40.9244215" lon="9.0932009"><ele>430.59999999999997</ele><time>2026-04-30T09:51:33.733Z</time></trkpt><trkpt lat="40.9243283" lon="9.0931495"><ele>429.79999999999995</ele><time>2026-04-30T09:51:34.733Z</time></trkpt><trkpt lat="40.9242398" lon="9.0930476"><ele>429.0</ele><time>2026-04-30T09:51:35.733Z</time></trkpt><trkpt lat="40.9241411" lon="9.0928974"><ele>429.0</ele><time>2026-04-30T09:51:36.735Z</time></trkpt><trkpt lat="40.9240301" lon="9.0927034"><ele>429.0</ele><time>2026-04-30T09:51:37.732Z</time></trkpt><trkpt lat="40.9239111" lon="9.0924929"><ele>429.0</ele><time>2026-04-30T09:51:38.734Z</time></trkpt><trkpt lat="40.9238028" lon="9.0922988"><ele>429.0</ele><time>2026-04-30T09:51:39.738Z</time></trkpt><trkpt lat="40.9237088" lon="9.0921282"><ele>429.0</ele><time>2026-04-30T09:51:40.733Z</time></trkpt><trkpt lat="40.9236294" lon="9.0919892"><ele>429.0</ele><time>2026-04-30T09:51:41.735Z</time></trkpt><trkpt lat="40.9235449" lon="9.0918909"><ele>429.0</ele><time>2026-04-30T09:51:42.735Z</time></trkpt><trkpt lat="40.9234477" lon="9.0918607"><ele>429.33333333333337</ele><time>2026-04-30T09:51:43.734Z</time></trkpt><trkpt lat="40.9233257" lon="9.0918826"><ele>429.6666666666667</ele><time>2026-04-30T09:51:44.734Z</time></trkpt><trkpt lat="40.9231765" lon="9.0919417"><ele>430.0</ele><time>2026-04-30T09:51:45.733Z</time></trkpt><trkpt lat="40.9229998" lon="9.0920116"><ele>430.0</ele><time>2026-04-30T09:51:46.733Z</time></trkpt><trkpt lat="40.9228171" lon="9.0920826"><ele>430.0</ele><time>2026-04-30T09:51:47.733Z</time></trkpt><trkpt lat="40.9226498" lon="9.0921535"><ele>430.0</ele><time>2026-04-30T09:51:48.733Z</time></trkpt><trkpt lat="40.922487" lon="9.0922349"><ele>430.0</ele><time>2026-04-30T09:51:49.734Z</time></trkpt><trkpt lat="40.9223418" lon="9.0923215"><ele>430.0</ele><time>2026-04-30T09:51:50.735Z</time></trkpt><trkpt lat="40.9222201" lon="9.0924188"><ele>430.0</ele><time>2026-04-30T09:51:51.732Z</time></trkpt><trkpt lat="40.9221166" lon="9.0925438"><ele>430.0</ele><time>2026-04-30T09:51:52.734Z</time></trkpt><trkpt lat="40.9220388" lon="9.0927068"><ele>433.25</ele><time>2026-04-30T09:51:53.73Z</time></trkpt><trkpt lat="40.9219788" lon="9.092887"><ele>436.5</ele><time>2026-04-30T09:51:54.735Z</time></trkpt><trkpt lat="40.9219165" lon="9.0930609"><ele>439.75</ele><time>2026-04-30T09:51:55.735Z</time></trkpt><trkpt lat="40.9218518" lon="9.093206"><ele>443.0</ele><time>2026-04-30T09:51:56.73Z</time></trkpt><trkpt lat="40.9217695" lon="9.0933122"><ele>442.75</ele><time>2026-04-30T09:51:57.733Z</time></trkpt><trkpt lat="40.9216612" lon="9.0933664"><ele>442.5</ele><time>2026-04-30T09:51:58.735Z</time></trkpt><trkpt lat="40.9215271" lon="9.0933867"><ele>442.25</ele><time>2026-04-30T09:51:59.732Z</time></trkpt><trkpt lat="40.9213676" lon="9.0934023"><ele>442.0</ele><time>2026-04-30T09:52:00.737Z</time></trkpt><trkpt lat="40.921186" lon="9.0934189"><ele>442.0</ele><time>2026-04-30T09:52:01.733Z</time></trkpt><trkpt lat="40.9210241" lon="9.0934323"><ele>442.0</ele><time>2026-04-30T09:52:02.732Z</time></trkpt><trkpt lat="40.9208859" lon="9.0934557"><ele>442.0</ele><time>2026-04-30T09:52:03.741Z</time></trkpt><trkpt lat="40.920766" lon="9.0935249"><ele>442.0</ele><time>2026-04-30T09:52:04.733Z</time></trkpt><trkpt lat="40.9206636" lon="9.0936425"><ele>441.5</ele><time>2026-04-30T09:52:05.733Z</time></trkpt><trkpt lat="40.9205646" lon="9.0937776"><ele>441.0</ele><time>2026-04-30T09:52:06.732Z</time></trkpt><trkpt lat="40.920451" lon="9.0939137"><ele>440.5</ele><time>2026-04-30T09:52:07.733Z</time></trkpt><trkpt lat="40.9203218" lon="9.0940119"><ele>440.0</ele><time>2026-04-30T09:52:08.732Z</time></trkpt><trkpt lat="40.9201827" lon="9.0940681"><ele>439.5</ele><time>2026-04-30T09:52:09.736Z</time></trkpt><trkpt lat="40.9200281" lon="9.0940825"><ele>439.0</ele><time>2026-04-30T09:52:10.733Z</time></trkpt><trkpt lat="40.9198716" lon="9.0940835"><ele>438.5</ele><time>2026-04-30T09:52:11.732Z</time></trkpt><trkpt lat="40.9197368" lon="9.0940983"><ele>438.0</ele><time>2026-04-30T09:52:12.733Z</time></trkpt><trkpt lat="40.919622" lon="9.0941543"><ele>440.25</ele><time>2026-04-30T09:52:13.734Z</time></trkpt><trkpt lat="40.9195249" lon="9.0942641"><ele>442.5</ele><time>2026-04-30T09:52:14.733Z</time></trkpt><trkpt lat="40.919436" lon="9.0943981"><ele>444.75</ele><time>2026-04-30T09:52:15.738Z</time></trkpt><trkpt lat="40.9193255" lon="9.0945288"><ele>447.0</ele><time>2026-04-30T09:52:16.735Z</time></trkpt><trkpt lat="40.9191893" lon="9.0946388"><ele>447.0</ele><time>2026-04-30T09:52:17.737Z</time></trkpt><trkpt lat="40.9190321" lon="9.0947221"><ele>447.0</ele><time>2026-04-30T09:52:18.735Z</time></trkpt><trkpt lat="40.9188476" lon="9.0947933"><ele>447.0</ele><time>2026-04-30T09:52:19.737Z</time></trkpt><trkpt lat="40.9186458" lon="9.0948661"><ele>452.0</ele><time>2026-04-30T09:52:20.733Z</time></trkpt><trkpt lat="40.9184321" lon="9.0949451"><ele>457.0</ele><time>2026-04-30T09:52:21.733Z</time></trkpt><trkpt lat="40.9182122" lon="9.0950238"><ele>457.0</ele><time>2026-04-30T09:52:22.734Z</time></trkpt><trkpt lat="40.918003" lon="9.0950923"><ele>457.0</ele><time>2026-04-30T09:52:23.738Z</time></trkpt><trkpt lat="40.9178059" lon="9.0951604"><ele>457.0</ele><time>2026-04-30T09:52:24.734Z</time></trkpt><trkpt lat="40.9176334" lon="9.0952292"><ele>456.25</ele><time>2026-04-30T09:52:25.734Z</time></trkpt><trkpt lat="40.917488" lon="9.0953116"><ele>455.5</ele><time>2026-04-30T09:52:26.732Z</time></trkpt><trkpt lat="40.9173708" lon="9.0954078"><ele>454.75</ele><time>2026-04-30T09:52:27.736Z</time></trkpt><trkpt lat="40.9172661" lon="9.095473"><ele>454.0</ele><time>2026-04-30T09:52:28.734Z</time></trkpt><trkpt lat="40.9171676" lon="9.0954743"><ele>454.0</ele><time>2026-04-30T09:52:29.734Z</time></trkpt><trkpt lat="40.917073" lon="9.0954231"><ele>454.0</ele><time>2026-04-30T09:52:30.74Z</time></trkpt><trkpt lat="40.9169759" lon="9.0953402"><ele>454.0</ele><time>2026-04-30T09:52:31.734Z</time></trkpt><trkpt lat="40.9168569" lon="9.09527"><ele>454.0</ele><time>2026-04-30T09:52:32.736Z</time></trkpt><trkpt lat="40.9167112" lon="9.0952468"><ele>455.0</ele><time>2026-04-30T09:52:33.736Z</time></trkpt><trkpt lat="40.916582" lon="9.0952547"><ele>456.0</ele><time>2026-04-30T09:52:34.733Z</time></trkpt><trkpt lat="40.9164689" lon="9.0953087"><ele>457.0</ele><time>2026-04-30T09:52:35.734Z</time></trkpt><trkpt lat="40.9163792" lon="9.0954176"><ele>458.0</ele><time>2026-04-30T09:52:36.733Z</time></trkpt><trkpt lat="40.9163263" lon="9.0955659"><ele>458.0</ele><time>2026-04-30T09:52:37.735Z</time></trkpt><trkpt lat="40.9162884" lon="9.0957302"><ele>458.0</ele><time>2026-04-30T09:52:38.732Z</time></trkpt><trkpt lat="40.9162248" lon="9.0958843"><ele>458.0</ele><time>2026-04-30T09:52:39.738Z</time></trkpt><trkpt lat="40.9161215" lon="9.0960113"><ele>458.0</ele><time>2026-04-30T09:52:40.735Z</time></trkpt><trkpt lat="40.9159888" lon="9.0961254"><ele>460.3333333333333</ele><time>2026-04-30T09:52:41.732Z</time></trkpt><trkpt lat="40.9158383" lon="9.0962406"><ele>462.66666666666663</ele><time>2026-04-30T09:52:42.735Z</time></trkpt><trkpt lat="40.9156899" lon="9.0963314"><ele>465.0</ele><time>2026-04-30T09:52:43.732Z</time></trkpt><trkpt lat="40.91553" lon="9.0963865"><ele>465.0</ele><time>2026-04-30T09:52:44.737Z</time></trkpt><trkpt lat="40.9153543" lon="9.0964054"><ele>465.0</ele><time>2026-04-30T09:52:45.735Z</time></trkpt><trkpt lat="40.9151592" lon="9.096411"><ele>465.0</ele><time>2026-04-30T09:52:46.733Z</time></trkpt><trkpt lat="40.9149664" lon="9.0964185"><ele>463.33333333333337</ele><time>2026-04-30T09:52:47.732Z</time></trkpt><trkpt lat="40.9147863" lon="9.0964283"><ele>461.6666666666667</ele><time>2026-04-30T09:52:48.734Z</time></trkpt><trkpt lat="40.914623" lon="9.0964782"><ele>460.0</ele><time>2026-04-30T09:52:49.733Z</time></trkpt><trkpt lat="40.914471" lon="9.096571"><ele>463.33333333333337</ele><time>2026-04-30T09:52:50.733Z</time></trkpt><trkpt lat="40.9143352" lon="9.0966811"><ele>466.66666666666663</ele><time>2026-04-30T09:52:51.737Z</time></trkpt><trkpt lat="40.9142046" lon="9.0967644"><ele>470.0</ele><time>2026-04-30T09:52:52.734Z</time></trkpt><trkpt lat="40.9140611" lon="9.096803"><ele>470.0</ele><time>2026-04-30T09:52:53.733Z</time></trkpt><trkpt lat="40.9139125" lon="9.0967845"><ele>470.0</ele><time>2026-04-30T09:52:54.737Z</time></trkpt><trkpt lat="40.9137616" lon="9.0967247"><ele>470.0</ele><time>2026-04-30T09:52:55.736Z</time></trkpt><trkpt lat="40.9135962" lon="9.0966451"><ele>468.3333333333333</ele><time>2026-04-30T09:52:56.735Z</time></trkpt><trkpt lat="40.9134164" lon="9.0965608"><ele>466.66666666666663</ele><time>2026-04-30T09:52:57.733Z</time></trkpt><trkpt lat="40.9132463" lon="9.0964891"><ele>465.0</ele><time>2026-04-30T09:52:58.734Z</time></trkpt><trkpt lat="40.9130898" lon="9.0964365"><ele>465.0</ele><time>2026-04-30T09:52:59.733Z</time></trkpt><trkpt lat="40.9129367" lon="9.096428"><ele>465.0</ele><time>2026-04-30T09:53:00.735Z</time></trkpt><trkpt lat="40.9127871" lon="9.0964455"><ele>465.0</ele><time>2026-04-30T09:53:01.732Z</time></trkpt><trkpt lat="40.9126433" lon="9.0964262"><ele>465.0</ele><time>2026-04-30T09:53:02.735Z</time></trkpt><trkpt lat="40.9125034" lon="9.0963701"><ele>467.66666666666663</ele><time>2026-04-30T09:53:03.737Z</time></trkpt><trkpt lat="40.9123649" lon="9.0962819"><ele>470.3333333333333</ele><time>2026-04-30T09:53:04.74Z</time></trkpt><trkpt lat="40.9122125" lon="9.0962001"><ele>473.0</ele><time>2026-04-30T09:53:05.735Z</time></trkpt><trkpt lat="40.9120394" lon="9.0961419"><ele>473.0</ele><time>2026-04-30T09:53:06.734Z</time></trkpt><trkpt lat="40.9118584" lon="9.0960949"><ele>473.0</ele><time>2026-04-30T09:53:07.734Z</time></trkpt><trkpt lat="40.9116984" lon="9.0960646"><ele>473.0</ele><time>2026-04-30T09:53:08.737Z</time></trkpt><trkpt lat="40.9115573" lon="9.0960568"><ele>474.5</ele><time>2026-04-30T09:53:09.734Z</time></trkpt><trkpt lat="40.9114399" lon="9.0961011"><ele>476.0</ele><time>2026-04-30T09:53:10.739Z</time></trkpt><trkpt lat="40.9113464" lon="9.0961946"><ele>477.5</ele><time>2026-04-30T09:53:11.736Z</time></trkpt><trkpt lat="40.9112826" lon="9.096326"><ele>479.0</ele><time>2026-04-30T09:53:12.732Z</time></trkpt><trkpt lat="40.9112298" lon="9.0964782"><ele>482.0</ele><time>2026-04-30T09:53:13.732Z</time></trkpt><trkpt lat="40.9111706" lon="9.0966253"><ele>485.0</ele><time>2026-04-30T09:53:14.734Z</time></trkpt><trkpt lat="40.9110886" lon="9.0967371"><ele>488.0</ele><time>2026-04-30T09:53:15.731Z</time></trkpt><trkpt lat="40.9109853" lon="9.096819"><ele>491.0</ele><time>2026-04-30T09:53:16.736Z</time></trkpt><trkpt lat="40.9108652" lon="9.0968676"><ele>491.5</ele><time>2026-04-30T09:53:17.734Z</time></trkpt><trkpt lat="40.91074" lon="9.0968973"><ele>492.0</ele><time>2026-04-30T09:53:18.737Z</time></trkpt><trkpt lat="40.910616" lon="9.0968891"><ele>492.5</ele><time>2026-04-30T09:53:19.735Z</time></trkpt><trkpt lat="40.9104888" lon="9.0968451"><ele>493.0</ele><time>2026-04-30T09:53:20.733Z</time></trkpt><trkpt lat="40.9103685" lon="9.0967603"><ele>493.0</ele><time>2026-04-30T09:53:21.734Z</time></trkpt><trkpt lat="40.9102576" lon="9.096642"><ele>493.0</ele><time>2026-04-30T09:53:22.734Z</time></trkpt><trkpt lat="40.9101453" lon="9.0965155"><ele>493.0</ele><time>2026-04-30T09:53:23.736Z</time></trkpt><trkpt lat="40.9100161" lon="9.0964106"><ele>493.0</ele><time>2026-04-30T09:53:24.734Z</time></trkpt><trkpt lat="40.9098728" lon="9.0963025"><ele>493.6666666666667</ele><time>2026-04-30T09:53:25.734Z</time></trkpt><trkpt lat="40.909733" lon="9.0961944"><ele>494.33333333333337</ele><time>2026-04-30T09:53:26.731Z</time></trkpt><trkpt lat="40.9095955" lon="9.0960993"><ele>495.0</ele><time>2026-04-30T09:53:27.732Z</time></trkpt><trkpt lat="40.9094481" lon="9.0960277"><ele>495.0</ele><time>2026-04-30T09:53:28.731Z</time></trkpt><trkpt lat="40.9092908" lon="9.0959858"><ele>495.0</ele><time>2026-04-30T09:53:29.732Z</time></trkpt><trkpt lat="40.9091276" lon="9.0959588"><ele>495.0</ele><time>2026-04-30T09:53:30.732Z</time></trkpt><trkpt lat="40.9089586" lon="9.0959365"><ele>497.33333333333337</ele><time>2026-04-30T09:53:31.732Z</time></trkpt><trkpt lat="40.9087949" lon="9.095916"><ele>499.6666666666667</ele><time>2026-04-30T09:53:32.731Z</time></trkpt><trkpt lat="40.9086461" lon="9.0958993"><ele>502.0</ele><time>2026-04-30T09:53:33.731Z</time></trkpt><trkpt lat="40.9085056" lon="9.0959066"><ele>503.5</ele><time>2026-04-30T09:53:34.733Z</time></trkpt><trkpt lat="40.908385" lon="9.0959621"><ele>505.0</ele><time>2026-04-30T09:53:35.732Z</time></trkpt><trkpt lat="40.9082754" lon="9.0960418"><ele>506.5</ele><time>2026-04-30T09:53:36.732Z</time></trkpt><trkpt lat="40.9081539" lon="9.0960897"><ele>508.0</ele><time>2026-04-30T09:53:37.733Z</time></trkpt><trkpt lat="40.9080352" lon="9.0961046"><ele>508.0</ele><time>2026-04-30T09:53:38.732Z</time></trkpt><trkpt lat="40.9079308" lon="9.0960839"><ele>507.99999999999994</ele><time>2026-04-30T09:53:39.731Z</time></trkpt><trkpt lat="40.9078448" lon="9.0960257"><ele>507.99999999999994</ele><time>2026-04-30T09:53:40.73Z</time></trkpt><trkpt lat="40.9077737" lon="9.0959378"><ele>508.0</ele><time>2026-04-30T09:53:41.731Z</time></trkpt><trkpt lat="40.9077072" lon="9.0958311"><ele>508.0</ele><time>2026-04-30T09:53:42.73Z</time></trkpt><trkpt lat="40.9076271" lon="9.0957388"><ele>507.79999999999995</ele><time>2026-04-30T09:53:43.731Z</time></trkpt><trkpt lat="40.9075295" lon="9.0956817"><ele>507.59999999999997</ele><time>2026-04-30T09:53:44.733Z</time></trkpt><trkpt lat="40.9074359" lon="9.0956856"><ele>507.40000000000003</ele><time>2026-04-30T09:53:45.735Z</time></trkpt><trkpt lat="40.907355" lon="9.0957481"><ele>507.20000000000005</ele><time>2026-04-30T09:53:46.732Z</time></trkpt><trkpt lat="40.9072807" lon="9.0958481"><ele>507.0</ele><time>2026-04-30T09:53:47.734Z</time></trkpt><trkpt lat="40.9072194" lon="9.0959692"><ele>508.5</ele><time>2026-04-30T09:53:48.735Z</time></trkpt><trkpt lat="40.9071929" lon="9.0961249"><ele>510.0</ele><time>2026-04-30T09:53:49.733Z</time></trkpt><trkpt lat="40.9071882" lon="9.0962963"><ele>511.5</ele><time>2026-04-30T09:53:50.736Z</time></trkpt><trkpt lat="40.9071877" lon="9.0964632"><ele>513.0</ele><time>2026-04-30T09:53:51.732Z</time></trkpt><trkpt lat="40.9071689" lon="9.0966102"><ele>515.0</ele><time>2026-04-30T09:53:52.732Z</time></trkpt><trkpt lat="40.9071153" lon="9.0967175"><ele>517.0</ele><time>2026-04-30T09:53:53.731Z</time></trkpt><trkpt lat="40.9070426" lon="9.0967928"><ele>519.0</ele><time>2026-04-30T09:53:54.731Z</time></trkpt><trkpt lat="40.9069486" lon="9.0968307"><ele>521.0</ele><time>2026-04-30T09:53:55.731Z</time></trkpt><trkpt lat="40.9068376" lon="9.0968395"><ele>523.0</ele><time>2026-04-30T09:53:56.735Z</time></trkpt><trkpt lat="40.9067165" lon="9.0968233"><ele>523.5</ele><time>2026-04-30T09:53:57.733Z</time></trkpt><trkpt lat="40.9065975" lon="9.096781"><ele>524.0</ele><time>2026-04-30T09:53:58.735Z</time></trkpt><trkpt lat="40.9064816" lon="9.096742"><ele>524.5</ele><time>2026-04-30T09:53:59.735Z</time></trkpt><trkpt lat="40.9063701" lon="9.0967384"><ele>525.0</ele><time>2026-04-30T09:54:00.732Z</time></trkpt><trkpt lat="40.9062676" lon="9.0967763"><ele>525.0</ele><time>2026-04-30T09:54:01.733Z</time></trkpt><trkpt lat="40.9061811" lon="9.0968552"><ele>525.0</ele><time>2026-04-30T09:54:02.736Z</time></trkpt><trkpt lat="40.9061135" lon="9.0969748"><ele>525.0</ele><time>2026-04-30T09:54:03.735Z</time></trkpt><trkpt lat="40.906047" lon="9.09711"><ele>525.0</ele><time>2026-04-30T09:54:04.731Z</time></trkpt><trkpt lat="40.9059763" lon="9.0972556"><ele>524.0</ele><time>2026-04-30T09:54:05.73Z</time></trkpt><trkpt lat="40.9059007" lon="9.0974063"><ele>523.0</ele><time>2026-04-30T09:54:06.731Z</time></trkpt><trkpt lat="40.9058223" lon="9.0975562"><ele>522.0</ele><time>2026-04-30T09:54:07.73Z</time></trkpt><trkpt lat="40.9057503" lon="9.0976943"><ele>521.0</ele><time>2026-04-30T09:54:08.734Z</time></trkpt><trkpt lat="40.9056796" lon="9.0978353"><ele>523.0</ele><time>2026-04-30T09:54:09.733Z</time></trkpt><trkpt lat="40.905615" lon="9.0979702"><ele>525.0</ele><time>2026-04-30T09:54:10.733Z</time></trkpt><trkpt lat="40.9055658" lon="9.098101"><ele>527.0</ele><time>2026-04-30T09:54:11.733Z</time></trkpt><trkpt lat="40.9055316" lon="9.0982263"><ele>529.0</ele><time>2026-04-30T09:54:12.732Z</time></trkpt><trkpt lat="40.9055122" lon="9.0983518"><ele>531.0</ele><time>2026-04-30T09:54:13.734Z</time></trkpt><trkpt lat="40.9055012" lon="9.0984761"><ele>532.1666666666666</ele><time>2026-04-30T09:54:14.731Z</time></trkpt><trkpt lat="40.9054976" lon="9.0986028"><ele>533.3333333333334</ele><time>2026-04-30T09:54:15.732Z</time></trkpt><trkpt lat="40.9054916" lon="9.0987229"><ele>534.5</ele><time>2026-04-30T09:54:16.732Z</time></trkpt><trkpt lat="40.9054896" lon="9.0988328"><ele>535.6666666666667</ele><time>2026-04-30T09:54:17.736Z</time></trkpt><trkpt lat="40.9054857" lon="9.0989286"><ele>536.8333333333334</ele><time>2026-04-30T09:54:18.733Z</time></trkpt><trkpt lat="40.9054813" lon="9.0990224"><ele>538.0</ele><time>2026-04-30T09:54:19.733Z</time></trkpt><trkpt lat="40.9054787" lon="9.0991169"><ele>538.6666666666667</ele><time>2026-04-30T09:54:20.733Z</time></trkpt><trkpt lat="40.9054761" lon="9.0992141"><ele>539.3333333333334</ele><time>2026-04-30T09:54:21.734Z</time></trkpt><trkpt lat="40.9054701" lon="9.0993158"><ele>540.0</ele><time>2026-04-30T09:54:22.734Z</time></trkpt><trkpt lat="40.9054638" lon="9.0994254"><ele>540.6666666666666</ele><time>2026-04-30T09:54:23.734Z</time></trkpt><trkpt lat="40.9054586" lon="9.0995342"><ele>541.3333333333333</ele><time>2026-04-30T09:54:24.731Z</time></trkpt><trkpt lat="40.9054498" lon="9.0996408"><ele>542.0</ele><time>2026-04-30T09:54:25.733Z</time></trkpt><trkpt lat="40.9054317" lon="9.0997407"><ele>542.0</ele><time>2026-04-30T09:54:26.739Z</time></trkpt><trkpt lat="40.9054001" lon="9.099838"><ele>542.0</ele><time>2026-04-30T09:54:27.738Z</time></trkpt><trkpt lat="40.9053575" lon="9.0999305"><ele>542.0</ele><time>2026-04-30T09:54:28.735Z</time></trkpt><trkpt lat="40.9053071" lon="9.1000281"><ele>542.0</ele><time>2026-04-30T09:54:29.735Z</time></trkpt><trkpt lat="40.905247" lon="9.1001168"><ele>542.0</ele><time>2026-04-30T09:54:30.73Z</time></trkpt><trkpt lat="40.9051723" lon="9.1002013"><ele>542.0</ele><time>2026-04-30T09:54:31.733Z</time></trkpt><trkpt lat="40.905096" lon="9.1002695"><ele>542.1666666666666</ele><time>2026-04-30T09:54:32.732Z</time></trkpt><trkpt lat="40.9050263" lon="9.1003242"><ele>542.3333333333333</ele><time>2026-04-30T09:54:33.732Z</time></trkpt><trkpt lat="40.9049598" lon="9.1003757"><ele>542.5</ele><time>2026-04-30T09:54:34.732Z</time></trkpt><trkpt lat="40.9048898" lon="9.1004263"><ele>542.6666666666666</ele><time>2026-04-30T09:54:35.732Z</time></trkpt><trkpt lat="40.9048226" lon="9.1004819"><ele>542.8333333333334</ele><time>2026-04-30T09:54:36.731Z</time></trkpt><trkpt lat="40.9047521" lon="9.1005394"><ele>543.0</ele><time>2026-04-30T09:54:37.729Z</time></trkpt><trkpt lat="40.9046785" lon="9.1006001"><ele>543.0</ele><time>2026-04-30T09:54:38.733Z</time></trkpt><trkpt lat="40.904604" lon="9.1006632"><ele>543.0</ele><time>2026-04-30T09:54:39.74Z</time></trkpt><trkpt lat="40.9045258" lon="9.1007274"><ele>543.0</ele><time>2026-04-30T09:54:40.733Z</time></trkpt><trkpt lat="40.9044458" lon="9.1007928"><ele>543.0</ele><time>2026-04-30T09:54:41.734Z</time></trkpt><trkpt lat="40.9043621" lon="9.100861"><ele>543.0</ele><time>2026-04-30T09:54:42.731Z</time></trkpt><trkpt lat="40.9042767" lon="9.1009329"><ele>544.6</ele><time>2026-04-30T09:54:43.733Z</time></trkpt><trkpt lat="40.9041853" lon="9.1010076"><ele>546.1999999999999</ele><time>2026-04-30T09:54:44.734Z</time></trkpt><trkpt lat="40.9040922" lon="9.101087"><ele>547.8</ele><time>2026-04-30T09:54:45.736Z</time></trkpt><trkpt lat="40.9040012" lon="9.1011606"><ele>549.4</ele><time>2026-04-30T09:54:46.732Z</time></trkpt><trkpt lat="40.903916" lon="9.1012298"><ele>551.0</ele><time>2026-04-30T09:54:47.731Z</time></trkpt><trkpt lat="40.9038333" lon="9.1012964"><ele>551.0</ele><time>2026-04-30T09:54:48.733Z</time></trkpt><trkpt lat="40.9037529" lon="9.1013609"><ele>551.0</ele><time>2026-04-30T09:54:49.731Z</time></trkpt><trkpt lat="40.9036762" lon="9.1014264"><ele>551.0</ele><time>2026-04-30T09:54:50.734Z</time></trkpt><trkpt lat="40.9036001" lon="9.1014899"><ele>551.0</ele><time>2026-04-30T09:54:51.736Z</time></trkpt><trkpt lat="40.9035243" lon="9.1015509"><ele>551.0</ele><time>2026-04-30T09:54:52.732Z</time></trkpt><trkpt lat="40.9034465" lon="9.1016084"><ele>552.0</ele><time>2026-04-30T09:54:53.732Z</time></trkpt><trkpt lat="40.9033648" lon="9.1016659"><ele>553.0</ele><time>2026-04-30T09:54:54.733Z</time></trkpt><trkpt lat="40.9032789" lon="9.1017108"><ele>554.0</ele><time>2026-04-30T09:54:55.731Z</time></trkpt><trkpt lat="40.903198" lon="9.1017465"><ele>555.0</ele><time>2026-04-30T09:54:56.732Z</time></trkpt><trkpt lat="40.9031151" lon="9.1017609"><ele>556.0</ele><time>2026-04-30T09:54:57.731Z</time></trkpt><trkpt lat="40.9030316" lon="9.1017676"><ele>557.0</ele><time>2026-04-30T09:54:58.73Z</time></trkpt><trkpt lat="40.9029426" lon="9.1017615"><ele>557.0</ele><time>2026-04-30T09:54:59.729Z</time></trkpt><trkpt lat="40.9028524" lon="9.1017421"><ele>557.0</ele><time>2026-04-30T09:55:00.731Z</time></trkpt><trkpt lat="40.9027679" lon="9.1017208"><ele>557.0</ele><time>2026-04-30T09:55:01.731Z</time></trkpt><trkpt lat="40.9026783" lon="9.1016901"><ele>557.0</ele><time>2026-04-30T09:55:02.732Z</time></trkpt><trkpt lat="40.9025922" lon="9.1016594"><ele>557.0</ele><time>2026-04-30T09:55:03.733Z</time></trkpt><trkpt lat="40.9025128" lon="9.1016364"><ele>557.0</ele><time>2026-04-30T09:55:04.732Z</time></trkpt><trkpt lat="40.9024439" lon="9.1016068"><ele>557.6666666666666</ele><time>2026-04-30T09:55:05.732Z</time></trkpt><trkpt lat="40.9023811" lon="9.1015829"><ele>558.3333333333333</ele><time>2026-04-30T09:55:06.732Z</time></trkpt><trkpt lat="40.902252" lon="9.1015564"><ele>559.0</ele><time>2026-04-30T09:55:08.735Z</time></trkpt><trkpt lat="40.9021823" lon="9.101534"><ele>559.6666666666666</ele><time>2026-04-30T09:55:09.733Z</time></trkpt><trkpt lat="40.9021108" lon="9.1015115"><ele>560.3333333333334</ele><time>2026-04-30T09:55:10.731Z</time></trkpt><trkpt lat="40.9020374" lon="9.1015015"><ele>561.0</ele><time>2026-04-30T09:55:11.733Z</time></trkpt><trkpt lat="40.9019687" lon="9.1014951"><ele>559.6</ele><time>2026-04-30T09:55:12.731Z</time></trkpt><trkpt lat="40.9019002" lon="9.1014943"><ele>558.2</ele><time>2026-04-30T09:55:13.737Z</time></trkpt><trkpt lat="40.9017772" lon="9.1014941"><ele>556.8</ele><time>2026-04-30T09:55:15.732Z</time></trkpt><trkpt lat="40.901669" lon="9.1014899"><ele>555.4</ele><time>2026-04-30T09:55:17.734Z</time></trkpt><trkpt lat="40.9016" lon="9.1015041"><ele>554.0</ele><time>2026-04-30T09:55:19.731Z</time></trkpt><trkpt lat="40.9015137" lon="9.1015275"><ele>554.0</ele><time>2026-04-30T09:55:23.729Z</time></trkpt><trkpt lat="40.9014486" lon="9.1015246"><ele>554.0</ele><time>2026-04-30T09:55:25.731Z</time></trkpt><trkpt lat="40.901386" lon="9.1015033"><ele>554.0</ele><time>2026-04-30T09:55:29.732Z</time></trkpt><trkpt lat="40.9013203" lon="9.1014709"><ele>554.0</ele><time>2026-04-30T09:55:38.732Z</time></trkpt><trkpt lat="40.9012489" lon="9.1014344"><ele>554.0</ele><time>2026-04-30T09:55:40.732Z</time></trkpt><trkpt lat="40.9011851" lon="9.1014225"><ele>554.0</ele><time>2026-04-30T09:55:42.732Z</time></trkpt><trkpt lat="40.9011177" lon="9.1014377"><ele>554.0</ele><time>2026-04-30T09:55:44.733Z</time></trkpt><trkpt lat="40.9010177" lon="9.1014397"><ele>555.5</ele><time>2026-04-30T09:55:46.734Z</time></trkpt><trkpt lat="40.9008981" lon="9.1013946"><ele>557.0</ele><time>2026-04-30T09:55:48.734Z</time></trkpt><trkpt lat="40.9008355" lon="9.1013563"><ele>558.5</ele><time>2026-04-30T09:55:49.729Z</time></trkpt><trkpt lat="40.9007418" lon="9.1012883"><ele>560.0</ele><time>2026-04-30T09:55:51.732Z</time></trkpt><trkpt lat="40.9006862" lon="9.1012434"><ele>561.5</ele><time>2026-04-30T09:55:53.73Z</time></trkpt><trkpt lat="40.9006202" lon="9.1011935"><ele>563.0</ele><time>2026-04-30T09:55:55.73Z</time></trkpt><trkpt lat="40.9005457" lon="9.1011371"><ele>563.0</ele><time>2026-04-30T09:55:57.73Z</time></trkpt><trkpt lat="40.9004659" lon="9.1010716"><ele>563.0</ele><time>2026-04-30T09:55:59.732Z</time></trkpt><trkpt lat="40.9003758" lon="9.1010049"><ele>563.0</ele><time>2026-04-30T09:56:01.733Z</time></trkpt><trkpt lat="40.9002621" lon="9.1009155"><ele>563.0</ele><time>2026-04-30T09:56:03.733Z</time></trkpt><trkpt lat="40.9002029" lon="9.1008637"><ele>563.0</ele><time>2026-04-30T09:56:04.732Z</time></trkpt><trkpt lat="40.900142" lon="9.1008143"><ele>563.0</ele><time>2026-04-30T09:56:05.734Z</time></trkpt><trkpt lat="40.9000837" lon="9.1007586"><ele>563.0</ele><time>2026-04-30T09:56:06.736Z</time></trkpt><trkpt lat="40.900019" lon="9.100707"><ele>563.0</ele><time>2026-04-30T09:56:07.732Z</time></trkpt><trkpt lat="40.8999513" lon="9.1006535"><ele>563.0</ele><time>2026-04-30T09:56:08.734Z</time></trkpt><trkpt lat="40.8998803" lon="9.1006024"><ele>563.0</ele><time>2026-04-30T09:56:09.733Z</time></trkpt><trkpt lat="40.8998131" lon="9.1005564"><ele>563.0</ele><time>2026-04-30T09:56:10.73Z</time></trkpt><trkpt lat="40.8997439" lon="9.1005059"><ele>563.6666666666666</ele><time>2026-04-30T09:56:11.731Z</time></trkpt><trkpt lat="40.8996797" lon="9.1004549"><ele>564.3333333333333</ele><time>2026-04-30T09:56:12.73Z</time></trkpt><trkpt lat="40.8996248" lon="9.1004076"><ele>565.0</ele><time>2026-04-30T09:56:13.732Z</time></trkpt><trkpt lat="40.899527" lon="9.100331"><ele>565.6666666666666</ele><time>2026-04-30T09:56:15.731Z</time></trkpt><trkpt lat="40.8994446" lon="9.1002754"><ele>566.3333333333334</ele><time>2026-04-30T09:56:17.734Z</time></trkpt><trkpt lat="40.8993629" lon="9.1002813"><ele>567.0</ele><time>2026-04-30T09:56:19.732Z</time></trkpt><trkpt lat="40.8993127" lon="9.100338"><ele>567.0</ele><time>2026-04-30T09:56:21.731Z</time></trkpt><trkpt lat="40.8992679" lon="9.1004271"><ele>567.0</ele><time>2026-04-30T09:56:23.731Z</time></trkpt><trkpt lat="40.8992189" lon="9.1005168"><ele>567.0</ele><time>2026-04-30T09:56:25.732Z</time></trkpt><trkpt lat="40.8991722" lon="9.100605"><ele>567.0</ele><time>2026-04-30T09:56:27.73Z</time></trkpt><trkpt lat="40.8991411" lon="9.1006914"><ele>567.0</ele><time>2026-04-30T09:56:29.732Z</time></trkpt><trkpt lat="40.8990989" lon="9.1007789"><ele>567.0</ele><time>2026-04-30T09:56:35.732Z</time></trkpt><trkpt lat="40.8990459" lon="9.1008532"><ele>568.8333333333334</ele><time>2026-04-30T09:56:37.736Z</time></trkpt><trkpt lat="40.8989996" lon="9.1009278"><ele>570.6666666666666</ele><time>2026-04-30T09:56:39.73Z</time></trkpt><trkpt lat="40.8989476" lon="9.1009956"><ele>572.5</ele><time>2026-04-30T09:56:41.732Z</time></trkpt><trkpt lat="40.8988898" lon="9.101085"><ele>574.3333333333333</ele><time>2026-04-30T09:56:43.738Z</time></trkpt><trkpt lat="40.8988296" lon="9.1011714"><ele>576.1666666666666</ele><time>2026-04-30T09:56:45.738Z</time></trkpt><trkpt lat="40.8987776" lon="9.1012522"><ele>578.0</ele><time>2026-04-30T09:56:47.732Z</time></trkpt><trkpt lat="40.8987214" lon="9.1013253"><ele>578.0</ele><time>2026-04-30T09:56:49.732Z</time></trkpt><trkpt lat="40.8986658" lon="9.101384"><ele>578.0</ele><time>2026-04-30T09:56:51.731Z</time></trkpt><trkpt lat="40.8986055" lon="9.1014242"><ele>578.0</ele><time>2026-04-30T09:56:59.734Z</time></trkpt><trkpt lat="40.898547" lon="9.1014789"><ele>578.0</ele><time>2026-04-30T09:57:03.734Z</time></trkpt><trkpt lat="40.8984859" lon="9.1015491"><ele>578.0</ele><time>2026-04-30T09:57:11.733Z</time></trkpt><trkpt lat="40.8984312" lon="9.1016472"><ele>578.0</ele><time>2026-04-30T09:57:14.733Z</time></trkpt><trkpt lat="40.8984475" lon="9.1017347"><ele>577.8</ele><time>2026-04-30T09:57:16.731Z</time></trkpt><trkpt lat="40.8984959" lon="9.1018198"><ele>577.5999999999999</ele><time>2026-04-30T09:57:18.729Z</time></trkpt><trkpt lat="40.8985519" lon="9.1019192"><ele>577.4000000000001</ele><time>2026-04-30T09:57:20.732Z</time></trkpt><trkpt lat="40.8986089" lon="9.1020273"><ele>577.2</ele><time>2026-04-30T09:57:22.732Z</time></trkpt><trkpt lat="40.8986685" lon="9.1021316"><ele>577.0</ele><time>2026-04-30T09:57:24.731Z</time></trkpt><trkpt lat="40.8987349" lon="9.1022338"><ele>577.0</ele><time>2026-04-30T09:57:26.731Z</time></trkpt><trkpt lat="40.8988152" lon="9.1023763"><ele>577.0</ele><time>2026-04-30T09:57:28.731Z</time></trkpt><trkpt lat="40.8988612" lon="9.1024553"><ele>577.0</ele><time>2026-04-30T09:57:29.734Z</time></trkpt><trkpt lat="40.8989095" lon="9.1025379"><ele>577.0</ele><time>2026-04-30T09:57:30.735Z</time></trkpt><trkpt lat="40.8989588" lon="9.1026164"><ele>577.0</ele><time>2026-04-30T09:57:31.732Z</time></trkpt><trkpt lat="40.8990063" lon="9.1027025"><ele>577.0</ele><time>2026-04-30T09:57:32.734Z</time></trkpt><trkpt lat="40.8990543" lon="9.1027908"><ele>575.8333333333334</ele><time>2026-04-30T09:57:33.737Z</time></trkpt><trkpt lat="40.8991008" lon="9.1028697"><ele>574.6666666666667</ele><time>2026-04-30T09:57:34.732Z</time></trkpt><trkpt lat="40.899143" lon="9.1029408"><ele>573.5</ele><time>2026-04-30T09:57:35.734Z</time></trkpt><trkpt lat="40.8992067" lon="9.1030453"><ele>572.3333333333334</ele><time>2026-04-30T09:57:37.736Z</time></trkpt><trkpt lat="40.8992361" lon="9.1031508"><ele>571.1666666666666</ele><time>2026-04-30T09:57:39.732Z</time></trkpt><trkpt lat="40.8991908" lon="9.1032533"><ele>570.0</ele><time>2026-04-30T09:57:41.738Z</time></trkpt><trkpt lat="40.8990807" lon="9.1032856"><ele>568.8333333333334</ele><time>2026-04-30T09:57:43.732Z</time></trkpt><trkpt lat="40.8990141" lon="9.1032961"><ele>567.6666666666666</ele><time>2026-04-30T09:57:44.731Z</time></trkpt><trkpt lat="40.8989375" lon="9.1033196"><ele>566.5</ele><time>2026-04-30T09:57:45.732Z</time></trkpt><trkpt lat="40.8988549" lon="9.1033493"><ele>565.3333333333333</ele><time>2026-04-30T09:57:46.731Z</time></trkpt><trkpt lat="40.8987619" lon="9.1033832"><ele>564.1666666666666</ele><time>2026-04-30T09:57:47.731Z</time></trkpt><trkpt lat="40.8986606" lon="9.103424"><ele>563.0</ele><time>2026-04-30T09:57:48.73Z</time></trkpt><trkpt lat="40.8985559" lon="9.1034692"><ele>563.0</ele><time>2026-04-30T09:57:49.739Z</time></trkpt><trkpt lat="40.8984442" lon="9.1035152"><ele>563.0</ele><time>2026-04-30T09:57:50.732Z</time></trkpt><trkpt lat="40.8983361" lon="9.1035591"><ele>563.0</ele><time>2026-04-30T09:57:51.733Z</time></trkpt><trkpt lat="40.8982345" lon="9.1036058"><ele>563.0</ele><time>2026-04-30T09:57:52.732Z</time></trkpt><trkpt lat="40.8981391" lon="9.1036482"><ele>563.0</ele><time>2026-04-30T09:57:53.731Z</time></trkpt><trkpt lat="40.8980506" lon="9.1036953"><ele>563.1666666666666</ele><time>2026-04-30T09:57:54.733Z</time></trkpt><trkpt lat="40.8979714" lon="9.1037458"><ele>563.3333333333333</ele><time>2026-04-30T09:57:55.732Z</time></trkpt><trkpt lat="40.8978984" lon="9.1038046"><ele>563.5</ele><time>2026-04-30T09:57:56.732Z</time></trkpt><trkpt lat="40.8978309" lon="9.1038731"><ele>563.6666666666666</ele><time>2026-04-30T09:57:57.735Z</time></trkpt><trkpt lat="40.897769" lon="9.1039587"><ele>563.8333333333334</ele><time>2026-04-30T09:57:58.733Z</time></trkpt><trkpt lat="40.8977104" lon="9.1040633"><ele>564.0</ele><time>2026-04-30T09:57:59.732Z</time></trkpt><trkpt lat="40.8976483" lon="9.1041819"><ele>563.0</ele><time>2026-04-30T09:58:00.731Z</time></trkpt><trkpt lat="40.8975873" lon="9.1043135"><ele>562.0</ele><time>2026-04-30T09:58:01.733Z</time></trkpt><trkpt lat="40.8975284" lon="9.1044418"><ele>561.0</ele><time>2026-04-30T09:58:02.732Z</time></trkpt><trkpt lat="40.8974742" lon="9.104566"><ele>560.0</ele><time>2026-04-30T09:58:03.733Z</time></trkpt><trkpt lat="40.8974092" lon="9.1046674"><ele>559.0</ele><time>2026-04-30T09:58:04.733Z</time></trkpt><trkpt lat="40.8973343" lon="9.1047287"><ele>559.0</ele><time>2026-04-30T09:58:05.738Z</time></trkpt><trkpt lat="40.8972507" lon="9.104743"><ele>559.0</ele><time>2026-04-30T09:58:06.734Z</time></trkpt><trkpt lat="40.897177" lon="9.1047278"><ele>559.0</ele><time>2026-04-30T09:58:07.733Z</time></trkpt><trkpt lat="40.8970837" lon="9.1046971"><ele>559.0</ele><time>2026-04-30T09:58:09.734Z</time></trkpt><trkpt lat="40.8969995" lon="9.1046861"><ele>559.0</ele><time>2026-04-30T09:58:24.734Z</time></trkpt><trkpt lat="40.8968926" lon="9.1046749"><ele>559.0</ele><time>2026-04-30T09:58:26.739Z</time></trkpt><trkpt lat="40.8967814" lon="9.1046541"><ele>559.2</ele><time>2026-04-30T09:58:28.73Z</time></trkpt><trkpt lat="40.8966842" lon="9.1046415"><ele>559.4</ele><time>2026-04-30T09:58:30.73Z</time></trkpt><trkpt lat="40.8965846" lon="9.1046627"><ele>559.6</ele><time>2026-04-30T09:58:32.731Z</time></trkpt><trkpt lat="40.8964917" lon="9.1047098"><ele>559.8</ele><time>2026-04-30T09:58:34.73Z</time></trkpt><trkpt lat="40.8964182" lon="9.1048127"><ele>560.0</ele><time>2026-04-30T09:58:36.732Z</time></trkpt><trkpt lat="40.8963849" lon="9.1049853"><ele>558.5714285714286</ele><time>2026-04-30T09:58:38.73Z</time></trkpt><trkpt lat="40.8963916" lon="9.105082"><ele>557.1428571428571</ele><time>2026-04-30T09:58:39.734Z</time></trkpt><trkpt lat="40.8964232" lon="9.1051587"><ele>555.7142857142858</ele><time>2026-04-30T09:58:40.729Z</time></trkpt><trkpt lat="40.8964716" lon="9.1052195"><ele>554.2857142857142</ele><time>2026-04-30T09:58:41.731Z</time></trkpt><trkpt lat="40.8965347" lon="9.1052672"><ele>552.8571428571429</ele><time>2026-04-30T09:58:42.732Z</time></trkpt><trkpt lat="40.8966015" lon="9.1053136"><ele>551.4285714285714</ele><time>2026-04-30T09:58:43.731Z</time></trkpt><trkpt lat="40.8966642" lon="9.1053566"><ele>550.0</ele><time>2026-04-30T09:58:44.732Z</time></trkpt><trkpt lat="40.896724" lon="9.1054017"><ele>550.1666666666667</ele><time>2026-04-30T09:58:45.732Z</time></trkpt><trkpt lat="40.8967866" lon="9.1054484"><ele>550.3333333333334</ele><time>2026-04-30T09:58:46.731Z</time></trkpt><trkpt lat="40.8968352" lon="9.1055242"><ele>550.5</ele><time>2026-04-30T09:58:47.732Z</time></trkpt><trkpt lat="40.8968709" lon="9.1056178"><ele>550.6666666666666</ele><time>2026-04-30T09:58:48.732Z</time></trkpt><trkpt lat="40.8968821" lon="9.1057149"><ele>550.8333333333333</ele><time>2026-04-30T09:58:49.733Z</time></trkpt><trkpt lat="40.896864" lon="9.1058079"><ele>551.0</ele><time>2026-04-30T09:58:50.73Z</time></trkpt><trkpt lat="40.8968176" lon="9.1058941"><ele>550.0</ele><time>2026-04-30T09:58:51.731Z</time></trkpt><trkpt lat="40.8967527" lon="9.1059695"><ele>549.0</ele><time>2026-04-30T09:58:52.73Z</time></trkpt><trkpt lat="40.8966731" lon="9.106049"><ele>548.0</ele><time>2026-04-30T09:58:53.731Z</time></trkpt><trkpt lat="40.8965807" lon="9.1061266"><ele>547.0</ele><time>2026-04-30T09:58:54.73Z</time></trkpt><trkpt lat="40.8964813" lon="9.1061948"><ele>546.0</ele><time>2026-04-30T09:58:55.732Z</time></trkpt><trkpt lat="40.8963841" lon="9.1062535"><ele>546.0</ele><time>2026-04-30T09:58:56.73Z</time></trkpt><trkpt lat="40.8962932" lon="9.1062981"><ele>546.0</ele><time>2026-04-30T09:58:57.731Z</time></trkpt><trkpt lat="40.8962036" lon="9.1063336"><ele>546.0</ele><time>2026-04-30T09:58:58.732Z</time></trkpt><trkpt lat="40.8961172" lon="9.106367"><ele>546.0</ele><time>2026-04-30T09:58:59.733Z</time></trkpt><trkpt lat="40.8960315" lon="9.1063961"><ele>546.0</ele><time>2026-04-30T09:59:00.731Z</time></trkpt><trkpt lat="40.8959463" lon="9.1064247"><ele>545.0</ele><time>2026-04-30T09:59:01.732Z</time></trkpt><trkpt lat="40.8958631" lon="9.1064456"><ele>544.0</ele><time>2026-04-30T09:59:02.732Z</time></trkpt><trkpt lat="40.8957756" lon="9.1064613"><ele>543.0</ele><time>2026-04-30T09:59:03.732Z</time></trkpt><trkpt lat="40.8956866" lon="9.1064613"><ele>542.0</ele><time>2026-04-30T09:59:04.731Z</time></trkpt><trkpt lat="40.8955966" lon="9.1064487"><ele>541.0</ele><time>2026-04-30T09:59:05.733Z</time></trkpt><trkpt lat="40.8955065" lon="9.1064229"><ele>540.0</ele><time>2026-04-30T09:59:06.733Z</time></trkpt><trkpt lat="40.8954203" lon="9.106391"><ele>540.0</ele><time>2026-04-30T09:59:07.73Z</time></trkpt><trkpt lat="40.8953259" lon="9.1063447"><ele>540.0</ele><time>2026-04-30T09:59:08.73Z</time></trkpt><trkpt lat="40.8952429" lon="9.1062944"><ele>540.0</ele><time>2026-04-30T09:59:09.732Z</time></trkpt><trkpt lat="40.8951616" lon="9.1062423"><ele>540.0</ele><time>2026-04-30T09:59:10.731Z</time></trkpt><trkpt lat="40.8950862" lon="9.1061861"><ele>540.0</ele><time>2026-04-30T09:59:11.732Z</time></trkpt><trkpt lat="40.8950191" lon="9.106119"><ele>540.2857142857142</ele><time>2026-04-30T09:59:12.729Z</time></trkpt><trkpt lat="40.8949776" lon="9.1060353"><ele>540.5714285714286</ele><time>2026-04-30T09:59:13.732Z</time></trkpt><trkpt lat="40.8949606" lon="9.1059452"><ele>540.8571428571429</ele><time>2026-04-30T09:59:14.732Z</time></trkpt><trkpt lat="40.8949694" lon="9.1058501"><ele>541.1428571428571</ele><time>2026-04-30T09:59:15.73Z</time></trkpt><trkpt lat="40.8950089" lon="9.1057686"><ele>541.4285714285714</ele><time>2026-04-30T09:59:16.733Z</time></trkpt><trkpt lat="40.8950682" lon="9.1057195"><ele>541.7142857142857</ele><time>2026-04-30T09:59:17.732Z</time></trkpt><trkpt lat="40.8951427" lon="9.1057018"><ele>542.0</ele><time>2026-04-30T09:59:18.735Z</time></trkpt><trkpt lat="40.8952231" lon="9.1057161"><ele>541.6666666666666</ele><time>2026-04-30T09:59:19.732Z</time></trkpt><trkpt lat="40.8953065" lon="9.1057593"><ele>541.3333333333333</ele><time>2026-04-30T09:59:20.732Z</time></trkpt><trkpt lat="40.8953933" lon="9.1058157"><ele>541.0</ele><time>2026-04-30T09:59:21.732Z</time></trkpt><trkpt lat="40.8954775" lon="9.105864"><ele>540.6666666666666</ele><time>2026-04-30T09:59:22.732Z</time></trkpt><trkpt lat="40.8955635" lon="9.1058832"><ele>540.3333333333334</ele><time>2026-04-30T09:59:23.731Z</time></trkpt><trkpt lat="40.8956462" lon="9.105869"><ele>540.0</ele><time>2026-04-30T09:59:24.728Z</time></trkpt><trkpt lat="40.8957163" lon="9.1058189"><ele>540.2857142857142</ele><time>2026-04-30T09:59:25.735Z</time></trkpt><trkpt lat="40.8957694" lon="9.1057416"><ele>540.5714285714286</ele><time>2026-04-30T09:59:26.732Z</time></trkpt><trkpt lat="40.8957993" lon="9.1056491"><ele>540.8571428571429</ele><time>2026-04-30T09:59:27.728Z</time></trkpt><trkpt lat="40.8958102" lon="9.1055508"><ele>541.1428571428571</ele><time>2026-04-30T09:59:28.736Z</time></trkpt><trkpt lat="40.8958038" lon="9.1054523"><ele>541.4285714285714</ele><time>2026-04-30T09:59:29.731Z</time></trkpt><trkpt lat="40.8957784" lon="9.1053645"><ele>541.7142857142857</ele><time>2026-04-30T09:59:30.732Z</time></trkpt><trkpt lat="40.8957375" lon="9.105292"><ele>542.0</ele><time>2026-04-30T09:59:31.734Z</time></trkpt><trkpt lat="40.8956826" lon="9.1052212"><ele>542.0</ele><time>2026-04-30T09:59:32.731Z</time></trkpt><trkpt lat="40.8956235" lon="9.1051549"><ele>542.0</ele><time>2026-04-30T09:59:33.736Z</time></trkpt><trkpt lat="40.8955641" lon="9.1050854"><ele>542.0</ele><time>2026-04-30T09:59:34.73Z</time></trkpt><trkpt lat="40.8955041" lon="9.10502"><ele>542.0</ele><time>2026-04-30T09:59:35.732Z</time></trkpt><trkpt lat="40.8954462" lon="9.1049564"><ele>542.0</ele><time>2026-04-30T09:59:36.734Z</time></trkpt><trkpt lat="40.8953869" lon="9.1048897"><ele>542.0</ele><time>2026-04-30T09:59:37.732Z</time></trkpt><trkpt lat="40.8953312" lon="9.1048275"><ele>542.5</ele><time>2026-04-30T09:59:38.732Z</time></trkpt><trkpt lat="40.8952814" lon="9.1047535"><ele>543.0</ele><time>2026-04-30T09:59:39.731Z</time></trkpt><trkpt lat="40.895241" lon="9.1046662"><ele>543.5</ele><time>2026-04-30T09:59:40.738Z</time></trkpt><trkpt lat="40.8952028" lon="9.1045634"><ele>544.0</ele><time>2026-04-30T09:59:41.734Z</time></trkpt><trkpt lat="40.8951744" lon="9.1044556"><ele>544.5</ele><time>2026-04-30T09:59:42.735Z</time></trkpt><trkpt lat="40.8951617" lon="9.1043473"><ele>545.0</ele><time>2026-04-30T09:59:43.732Z</time></trkpt><trkpt lat="40.8951534" lon="9.1042375"><ele>545.0</ele><time>2026-04-30T09:59:44.733Z</time></trkpt><trkpt lat="40.8951356" lon="9.1041245"><ele>545.0</ele><time>2026-04-30T09:59:45.734Z</time></trkpt><trkpt lat="40.8951076" lon="9.1040075"><ele>545.0</ele><time>2026-04-30T09:59:46.734Z</time></trkpt><trkpt lat="40.8950692" lon="9.1038876"><ele>545.0</ele><time>2026-04-30T09:59:47.733Z</time></trkpt><trkpt lat="40.8950306" lon="9.1037725"><ele>545.0</ele><time>2026-04-30T09:59:48.733Z</time></trkpt><trkpt lat="40.8949915" lon="9.1036659"><ele>543.0</ele><time>2026-04-30T09:59:49.733Z</time></trkpt><trkpt lat="40.8949556" lon="9.1035647"><ele>541.0</ele><time>2026-04-30T09:59:50.733Z</time></trkpt><trkpt lat="40.8949174" lon="9.1034708"><ele>539.0</ele><time>2026-04-30T09:59:51.736Z</time></trkpt><trkpt lat="40.8948718" lon="9.1033897"><ele>537.0</ele><time>2026-04-30T09:59:52.731Z</time></trkpt><trkpt lat="40.894814" lon="9.1033139"><ele>535.0</ele><time>2026-04-30T09:59:53.731Z</time></trkpt><trkpt lat="40.8947423" lon="9.1032584"><ele>533.0</ele><time>2026-04-30T09:59:54.733Z</time></trkpt><trkpt lat="40.8946653" lon="9.1032267"><ele>533.0</ele><time>2026-04-30T09:59:55.732Z</time></trkpt><trkpt lat="40.8945906" lon="9.1032108"><ele>533.0</ele><time>2026-04-30T09:59:56.734Z</time></trkpt><trkpt lat="40.8945152" lon="9.1032045"><ele>533.0</ele><time>2026-04-30T09:59:57.735Z</time></trkpt><trkpt lat="40.8944378" lon="9.1032048"><ele>533.0</ele><time>2026-04-30T09:59:58.735Z</time></trkpt><trkpt lat="40.8943593" lon="9.1032047"><ele>533.0</ele><time>2026-04-30T09:59:59.733Z</time></trkpt><trkpt lat="40.8942891" lon="9.1032018"><ele>533.0</ele><time>2026-04-30T10:00:00.729Z</time></trkpt><trkpt lat="40.8942199" lon="9.1032011"><ele>533.0</ele><time>2026-04-30T10:00:01.731Z</time></trkpt><trkpt lat="40.8941551" lon="9.1032089"><ele>532.2857142857142</ele><time>2026-04-30T10:00:02.729Z</time></trkpt><trkpt lat="40.8940828" lon="9.1032164"><ele>531.5714285714286</ele><time>2026-04-30T10:00:03.732Z</time></trkpt><trkpt lat="40.8940103" lon="9.1032219"><ele>530.8571428571429</ele><time>2026-04-30T10:00:04.731Z</time></trkpt><trkpt lat="40.8939333" lon="9.1032254"><ele>530.1428571428571</ele><time>2026-04-30T10:00:05.732Z</time></trkpt><trkpt lat="40.8938596" lon="9.1032309"><ele>529.4285714285714</ele><time>2026-04-30T10:00:06.732Z</time></trkpt><trkpt lat="40.8937891" lon="9.1032345"><ele>528.7142857142857</ele><time>2026-04-30T10:00:07.732Z</time></trkpt><trkpt lat="40.8937167" lon="9.1032337"><ele>528.0</ele><time>2026-04-30T10:00:08.734Z</time></trkpt><trkpt lat="40.8936386" lon="9.1032348"><ele>528.0</ele><time>2026-04-30T10:00:09.732Z</time></trkpt><trkpt lat="40.8935543" lon="9.1032341"><ele>528.0</ele><time>2026-04-30T10:00:10.733Z</time></trkpt><trkpt lat="40.8934611" lon="9.1032348"><ele>528.0</ele><time>2026-04-30T10:00:11.734Z</time></trkpt><trkpt lat="40.8933617" lon="9.103235"><ele>528.0</ele><time>2026-04-30T10:00:12.731Z</time></trkpt><trkpt lat="40.8932557" lon="9.1032375"><ele>528.0</ele><time>2026-04-30T10:00:13.73Z</time></trkpt><trkpt lat="40.8931413" lon="9.1032388"><ele>528.5</ele><time>2026-04-30T10:00:14.73Z</time></trkpt><trkpt lat="40.8930239" lon="9.1032391"><ele>529.0</ele><time>2026-04-30T10:00:15.73Z</time></trkpt><trkpt lat="40.8929036" lon="9.1032379"><ele>529.5</ele><time>2026-04-30T10:00:16.735Z</time></trkpt><trkpt lat="40.892784" lon="9.1032354"><ele>530.0</ele><time>2026-04-30T10:00:17.731Z</time></trkpt><trkpt lat="40.8926636" lon="9.1032371"><ele>529.5</ele><time>2026-04-30T10:00:18.734Z</time></trkpt><trkpt lat="40.8925429" lon="9.103245"><ele>529.0</ele><time>2026-04-30T10:00:19.733Z</time></trkpt><trkpt lat="40.8924243" lon="9.1032771"><ele>528.5</ele><time>2026-04-30T10:00:20.732Z</time></trkpt><trkpt lat="40.8923156" lon="9.1033265"><ele>528.0</ele><time>2026-04-30T10:00:21.73Z</time></trkpt><trkpt lat="40.8922194" lon="9.1034042"><ele>527.0</ele><time>2026-04-30T10:00:22.734Z</time></trkpt><trkpt lat="40.8921339" lon="9.1035001"><ele>526.0</ele><time>2026-04-30T10:00:23.733Z</time></trkpt><trkpt lat="40.8920603" lon="9.1036167"><ele>525.0</ele><time>2026-04-30T10:00:24.734Z</time></trkpt><trkpt lat="40.8919876" lon="9.1037414"><ele>524.0</ele><time>2026-04-30T10:00:25.732Z</time></trkpt><trkpt lat="40.8919135" lon="9.1038722"><ele>524.0</ele><time>2026-04-30T10:00:26.73Z</time></trkpt><trkpt lat="40.8918388" lon="9.1040109"><ele>524.0</ele><time>2026-04-30T10:00:27.732Z</time></trkpt><trkpt lat="40.8917615" lon="9.1041428"><ele>524.0</ele><time>2026-04-30T10:00:28.731Z</time></trkpt><trkpt lat="40.891679" lon="9.1042557"><ele>524.0</ele><time>2026-04-30T10:00:29.733Z</time></trkpt><trkpt lat="40.8915813" lon="9.1043262"><ele>523.75</ele><time>2026-04-30T10:00:30.731Z</time></trkpt><trkpt lat="40.8914762" lon="9.1043562"><ele>523.5</ele><time>2026-04-30T10:00:31.732Z</time></trkpt><trkpt lat="40.8913629" lon="9.1043431"><ele>523.25</ele><time>2026-04-30T10:00:32.734Z</time></trkpt><trkpt lat="40.8912453" lon="9.104305"><ele>523.0</ele><time>2026-04-30T10:00:33.735Z</time></trkpt><trkpt lat="40.8911202" lon="9.1042624"><ele>523.0</ele><time>2026-04-30T10:00:34.733Z</time></trkpt><trkpt lat="40.8909805" lon="9.1042151"><ele>523.0</ele><time>2026-04-30T10:00:35.732Z</time></trkpt><trkpt lat="40.8908359" lon="9.1041684"><ele>523.0</ele><time>2026-04-30T10:00:36.734Z</time></trkpt><trkpt lat="40.8906971" lon="9.1041442"><ele>523.0</ele><time>2026-04-30T10:00:37.734Z</time></trkpt><trkpt lat="40.8905592" lon="9.1041529"><ele>522.5</ele><time>2026-04-30T10:00:38.732Z</time></trkpt><trkpt lat="40.8904249" lon="9.1042003"><ele>522.0</ele><time>2026-04-30T10:00:39.736Z</time></trkpt><trkpt lat="40.890293" lon="9.1042848"><ele>521.5</ele><time>2026-04-30T10:00:40.732Z</time></trkpt><trkpt lat="40.890152" lon="9.1043924"><ele>521.0</ele><time>2026-04-30T10:00:41.732Z</time></trkpt><trkpt lat="40.8900024" lon="9.1045116"><ele>522.6666666666666</ele><time>2026-04-30T10:00:42.734Z</time></trkpt><trkpt lat="40.8898486" lon="9.1046339"><ele>524.3333333333334</ele><time>2026-04-30T10:00:43.732Z</time></trkpt><trkpt lat="40.8897051" lon="9.1047459"><ele>526.0</ele><time>2026-04-30T10:00:44.732Z</time></trkpt><trkpt lat="40.8895772" lon="9.1048666"><ele>524.6666666666667</ele><time>2026-04-30T10:00:45.733Z</time></trkpt><trkpt lat="40.8894599" lon="9.1050032"><ele>523.3333333333334</ele><time>2026-04-30T10:00:46.733Z</time></trkpt><trkpt lat="40.8893611" lon="9.105155"><ele>522.0</ele><time>2026-04-30T10:00:47.739Z</time></trkpt><trkpt lat="40.889284" lon="9.1053256"><ele>523.25</ele><time>2026-04-30T10:00:48.731Z</time></trkpt><trkpt lat="40.889218" lon="9.1055052"><ele>524.5</ele><time>2026-04-30T10:00:49.732Z</time></trkpt><trkpt lat="40.8891539" lon="9.1056845"><ele>525.75</ele><time>2026-04-30T10:00:50.732Z</time></trkpt><trkpt lat="40.8890883" lon="9.1058582"><ele>527.0</ele><time>2026-04-30T10:00:51.731Z</time></trkpt><trkpt lat="40.8890198" lon="9.1060166"><ele>527.0</ele><time>2026-04-30T10:00:52.732Z</time></trkpt><trkpt lat="40.8889371" lon="9.1061429"><ele>527.0</ele><time>2026-04-30T10:00:53.731Z</time></trkpt><trkpt lat="40.8888369" lon="9.1062388"><ele>527.0</ele><time>2026-04-30T10:00:54.731Z</time></trkpt><trkpt lat="40.8887197" lon="9.1063001"><ele>527.0</ele><time>2026-04-30T10:00:55.732Z</time></trkpt><trkpt lat="40.8885901" lon="9.1063401"><ele>527.0</ele><time>2026-04-30T10:00:56.732Z</time></trkpt><trkpt lat="40.8884475" lon="9.1063551"><ele>527.0</ele><time>2026-04-30T10:00:57.732Z</time></trkpt><trkpt lat="40.8882908" lon="9.1063623"><ele>527.0</ele><time>2026-04-30T10:00:58.732Z</time></trkpt><trkpt lat="40.8881253" lon="9.1063634"><ele>527.3333333333333</ele><time>2026-04-30T10:00:59.733Z</time></trkpt><trkpt lat="40.8879517" lon="9.1063674"><ele>527.6666666666666</ele><time>2026-04-30T10:01:00.731Z</time></trkpt><trkpt lat="40.8877865" lon="9.1063696"><ele>528.0</ele><time>2026-04-30T10:01:01.731Z</time></trkpt><trkpt lat="40.8876284" lon="9.1063701"><ele>528.6666666666666</ele><time>2026-04-30T10:01:02.732Z</time></trkpt><trkpt lat="40.8874709" lon="9.1063812"><ele>529.3333333333333</ele><time>2026-04-30T10:01:03.731Z</time></trkpt><trkpt lat="40.8873197" lon="9.1064083"><ele>530.0</ele><time>2026-04-30T10:01:04.732Z</time></trkpt><trkpt lat="40.8871773" lon="9.1064499"><ele>530.0</ele><time>2026-04-30T10:01:05.73Z</time></trkpt><trkpt lat="40.8870475" lon="9.1065088"><ele>530.0</ele><time>2026-04-30T10:01:06.731Z</time></trkpt><trkpt lat="40.8869258" lon="9.106591"><ele>530.0</ele><time>2026-04-30T10:01:07.729Z</time></trkpt><trkpt lat="40.8868191" lon="9.1066951"><ele>530.0</ele><time>2026-04-30T10:01:08.733Z</time></trkpt><trkpt lat="40.8867302" lon="9.1068222"><ele>528.75</ele><time>2026-04-30T10:01:09.734Z</time></trkpt><trkpt lat="40.8866749" lon="9.1069704"><ele>527.5</ele><time>2026-04-30T10:01:10.732Z</time></trkpt><trkpt lat="40.8866491" lon="9.1071323"><ele>526.25</ele><time>2026-04-30T10:01:11.732Z</time></trkpt><trkpt lat="40.8866533" lon="9.107308"><ele>525.0</ele><time>2026-04-30T10:01:12.733Z</time></trkpt><trkpt lat="40.8866868" lon="9.1074878"><ele>524.5</ele><time>2026-04-30T10:01:13.733Z</time></trkpt><trkpt lat="40.8867341" lon="9.1076678"><ele>524.0</ele><time>2026-04-30T10:01:14.732Z</time></trkpt><trkpt lat="40.8867846" lon="9.107845"><ele>523.5</ele><time>2026-04-30T10:01:15.73Z</time></trkpt><trkpt lat="40.886829" lon="9.1080229"><ele>523.0</ele><time>2026-04-30T10:01:16.731Z</time></trkpt><trkpt lat="40.8868772" lon="9.1082017"><ele>523.0</ele><time>2026-04-30T10:01:17.731Z</time></trkpt><trkpt lat="40.8869255" lon="9.1083777"><ele>523.0</ele><time>2026-04-30T10:01:18.731Z</time></trkpt><trkpt lat="40.8869713" lon="9.1085531"><ele>523.0</ele><time>2026-04-30T10:01:19.732Z</time></trkpt><trkpt lat="40.8870169" lon="9.1087304"><ele>523.0</ele><time>2026-04-30T10:01:20.733Z</time></trkpt><trkpt lat="40.8870664" lon="9.1089117"><ele>523.3333333333334</ele><time>2026-04-30T10:01:21.734Z</time></trkpt><trkpt lat="40.8871169" lon="9.1091006"><ele>523.6666666666666</ele><time>2026-04-30T10:01:22.731Z</time></trkpt><trkpt lat="40.8871701" lon="9.1092937"><ele>524.0</ele><time>2026-04-30T10:01:23.732Z</time></trkpt><trkpt lat="40.8872246" lon="9.1094939"><ele>524.0</ele><time>2026-04-30T10:01:24.731Z</time></trkpt><trkpt lat="40.8872818" lon="9.109705"><ele>524.0</ele><time>2026-04-30T10:01:25.732Z</time></trkpt><trkpt lat="40.8873408" lon="9.109927"><ele>524.0</ele><time>2026-04-30T10:01:26.733Z</time></trkpt><trkpt lat="40.8874045" lon="9.1101586"><ele>524.6666666666666</ele><time>2026-04-30T10:01:27.732Z</time></trkpt><trkpt lat="40.8874693" lon="9.1103905"><ele>525.3333333333334</ele><time>2026-04-30T10:01:28.731Z</time></trkpt><trkpt lat="40.8875299" lon="9.1106119"><ele>526.0</ele><time>2026-04-30T10:01:29.731Z</time></trkpt><trkpt lat="40.887588" lon="9.1108245"><ele>524.6666666666667</ele><time>2026-04-30T10:01:30.732Z</time></trkpt><trkpt lat="40.8876458" lon="9.1110325"><ele>523.3333333333334</ele><time>2026-04-30T10:01:31.732Z</time></trkpt><trkpt lat="40.8877041" lon="9.1112393"><ele>522.0</ele><time>2026-04-30T10:01:32.731Z</time></trkpt><trkpt lat="40.8877567" lon="9.1114429"><ele>522.0</ele><time>2026-04-30T10:01:33.733Z</time></trkpt><trkpt lat="40.887797" lon="9.1116435"><ele>522.0</ele><time>2026-04-30T10:01:34.731Z</time></trkpt><trkpt lat="40.8878212" lon="9.1118407"><ele>522.0</ele><time>2026-04-30T10:01:35.733Z</time></trkpt><trkpt lat="40.8878275" lon="9.112038"><ele>522.0</ele><time>2026-04-30T10:01:36.731Z</time></trkpt><trkpt lat="40.887817" lon="9.1122362"><ele>522.0</ele><time>2026-04-30T10:01:37.734Z</time></trkpt><trkpt lat="40.8877882" lon="9.1124366"><ele>522.0</ele><time>2026-04-30T10:01:38.733Z</time></trkpt><trkpt lat="40.8877502" lon="9.1126441"><ele>521.6666666666666</ele><time>2026-04-30T10:01:39.735Z</time></trkpt><trkpt lat="40.8877007" lon="9.1128483"><ele>521.3333333333333</ele><time>2026-04-30T10:01:40.733Z</time></trkpt><trkpt lat="40.8876365" lon="9.1130395"><ele>521.0</ele><time>2026-04-30T10:01:41.732Z</time></trkpt><trkpt lat="40.8875675" lon="9.1132133"><ele>521.6666666666666</ele><time>2026-04-30T10:01:42.731Z</time></trkpt><trkpt lat="40.8874892" lon="9.1133831"><ele>522.3333333333334</ele><time>2026-04-30T10:01:43.739Z</time></trkpt><trkpt lat="40.8873997" lon="9.1135507"><ele>523.0</ele><time>2026-04-30T10:01:44.732Z</time></trkpt><trkpt lat="40.8873064" lon="9.1137183"><ele>523.0</ele><time>2026-04-30T10:01:45.732Z</time></trkpt><trkpt lat="40.8872148" lon="9.1138791"><ele>523.0</ele><time>2026-04-30T10:01:46.732Z</time></trkpt><trkpt lat="40.8871242" lon="9.1140396"><ele>523.0</ele><time>2026-04-30T10:01:47.732Z</time></trkpt><trkpt lat="40.8870289" lon="9.114206"><ele>523.0</ele><time>2026-04-30T10:01:48.732Z</time></trkpt><trkpt lat="40.8869359" lon="9.1143776"><ele>523.0</ele><time>2026-04-30T10:01:49.738Z</time></trkpt><trkpt lat="40.8868488" lon="9.1145603"><ele>523.0</ele><time>2026-04-30T10:01:50.732Z</time></trkpt><trkpt lat="40.8867724" lon="9.1147583"><ele>520.6666666666667</ele><time>2026-04-30T10:01:51.734Z</time></trkpt><trkpt lat="40.8867072" lon="9.1149768"><ele>518.3333333333334</ele><time>2026-04-30T10:01:52.733Z</time></trkpt><trkpt lat="40.8866487" lon="9.1152144"><ele>516.0</ele><time>2026-04-30T10:01:53.732Z</time></trkpt><trkpt lat="40.8865943" lon="9.1154697"><ele>516.0</ele><time>2026-04-30T10:01:54.732Z</time></trkpt><trkpt lat="40.8865373" lon="9.1157304"><ele>516.0</ele><time>2026-04-30T10:01:55.732Z</time></trkpt><trkpt lat="40.8864807" lon="9.1159888"><ele>516.0</ele><time>2026-04-30T10:01:56.732Z</time></trkpt><trkpt lat="40.8864233" lon="9.1162503"><ele>515.0</ele><time>2026-04-30T10:01:57.732Z</time></trkpt><trkpt lat="40.8863691" lon="9.1165078"><ele>514.0</ele><time>2026-04-30T10:01:58.732Z</time></trkpt><trkpt lat="40.8863164" lon="9.1167593"><ele>513.0</ele><time>2026-04-30T10:01:59.733Z</time></trkpt><trkpt lat="40.8862614" lon="9.1170003"><ele>511.33333333333337</ele><time>2026-04-30T10:02:00.733Z</time></trkpt><trkpt lat="40.8862126" lon="9.1172286"><ele>509.6666666666667</ele><time>2026-04-30T10:02:01.734Z</time></trkpt><trkpt lat="40.8861661" lon="9.1174439"><ele>508.0</ele><time>2026-04-30T10:02:02.732Z</time></trkpt><trkpt lat="40.8861272" lon="9.1176349"><ele>507.25</ele><time>2026-04-30T10:02:03.737Z</time></trkpt><trkpt lat="40.8861058" lon="9.1178182"><ele>506.5</ele><time>2026-04-30T10:02:04.733Z</time></trkpt><trkpt lat="40.886118" lon="9.1180002"><ele>505.75</ele><time>2026-04-30T10:02:05.734Z</time></trkpt><trkpt lat="40.8861666" lon="9.1181729"><ele>505.0</ele><time>2026-04-30T10:02:06.733Z</time></trkpt><trkpt lat="40.886239" lon="9.1183256"><ele>504.75</ele><time>2026-04-30T10:02:07.732Z</time></trkpt><trkpt lat="40.8863261" lon="9.1184672"><ele>504.5</ele><time>2026-04-30T10:02:08.732Z</time></trkpt><trkpt lat="40.8863974" lon="9.1186256"><ele>504.25</ele><time>2026-04-30T10:02:09.732Z</time></trkpt><trkpt lat="40.8864396" lon="9.118801"><ele>504.0</ele><time>2026-04-30T10:02:10.73Z</time></trkpt><trkpt lat="40.8864498" lon="9.1189926"><ele>503.33333333333337</ele><time>2026-04-30T10:02:11.733Z</time></trkpt><trkpt lat="40.8864277" lon="9.1191863"><ele>502.6666666666667</ele><time>2026-04-30T10:02:12.731Z</time></trkpt><trkpt lat="40.8863903" lon="9.1193894"><ele>502.0</ele><time>2026-04-30T10:02:13.734Z</time></trkpt><trkpt lat="40.886352" lon="9.1196045"><ele>502.0</ele><time>2026-04-30T10:02:14.732Z</time></trkpt><trkpt lat="40.8863208" lon="9.1198112"><ele>502.0</ele><time>2026-04-30T10:02:15.732Z</time></trkpt><trkpt lat="40.8863147" lon="9.1200053"><ele>502.0</ele><time>2026-04-30T10:02:16.734Z</time></trkpt><trkpt lat="40.8863445" lon="9.1202031"><ele>501.0</ele><time>2026-04-30T10:02:17.731Z</time></trkpt><trkpt lat="40.8864103" lon="9.1203849"><ele>500.0</ele><time>2026-04-30T10:02:18.733Z</time></trkpt><trkpt lat="40.8865031" lon="9.1205399"><ele>499.0</ele><time>2026-04-30T10:02:19.734Z</time></trkpt><trkpt lat="40.8866078" lon="9.1206837"><ele>499.0</ele><time>2026-04-30T10:02:20.731Z</time></trkpt><trkpt lat="40.8867019" lon="9.1208156"><ele>499.0</ele><time>2026-04-30T10:02:21.732Z</time></trkpt><trkpt lat="40.8867805" lon="9.1209542"><ele>499.0</ele><time>2026-04-30T10:02:22.731Z</time></trkpt><trkpt lat="40.8868276" lon="9.121103"><ele>499.0</ele><time>2026-04-30T10:02:23.732Z</time></trkpt><trkpt lat="40.8868393" lon="9.1212581"><ele>499.0</ele><time>2026-04-30T10:02:24.731Z</time></trkpt><trkpt lat="40.8868221" lon="9.1214157"><ele>499.0</ele><time>2026-04-30T10:02:25.733Z</time></trkpt><trkpt lat="40.8867707" lon="9.1215759"><ele>499.0</ele><time>2026-04-30T10:02:26.732Z</time></trkpt><trkpt lat="40.8866936" lon="9.1217212"><ele>499.0</ele><time>2026-04-30T10:02:27.733Z</time></trkpt><trkpt lat="40.8865926" lon="9.1218574"><ele>502.5</ele><time>2026-04-30T10:02:28.734Z</time></trkpt><trkpt lat="40.8864747" lon="9.1219587"><ele>506.0</ele><time>2026-04-30T10:02:29.734Z</time></trkpt><trkpt lat="40.8863661" lon="9.122039"><ele>509.5</ele><time>2026-04-30T10:02:30.732Z</time></trkpt><trkpt lat="40.8862709" lon="9.1221155"><ele>513.0</ele><time>2026-04-30T10:02:31.732Z</time></trkpt><trkpt lat="40.8862068" lon="9.1222106"><ele>513.0</ele><time>2026-04-30T10:02:32.734Z</time></trkpt><trkpt lat="40.8861683" lon="9.1223258"><ele>513.0</ele><time>2026-04-30T10:02:33.731Z</time></trkpt><trkpt lat="40.8861699" lon="9.1224568"><ele>513.0</ele><time>2026-04-30T10:02:34.732Z</time></trkpt><trkpt lat="40.8861931" lon="9.1225919"><ele>513.0</ele><time>2026-04-30T10:02:35.73Z</time></trkpt><trkpt lat="40.886237" lon="9.122743"><ele>513.0</ele><time>2026-04-30T10:02:36.731Z</time></trkpt><trkpt lat="40.8862714" lon="9.1229037"><ele>513.5</ele><time>2026-04-30T10:02:37.733Z</time></trkpt><trkpt lat="40.8862826" lon="9.1230803"><ele>514.0</ele><time>2026-04-30T10:02:38.735Z</time></trkpt><trkpt lat="40.8862709" lon="9.1232521"><ele>514.5</ele><time>2026-04-30T10:02:39.731Z</time></trkpt><trkpt lat="40.886228" lon="9.1234137"><ele>515.0</ele><time>2026-04-30T10:02:40.735Z</time></trkpt><trkpt lat="40.8861568" lon="9.1235685"><ele>516.6666666666666</ele><time>2026-04-30T10:02:41.733Z</time></trkpt><trkpt lat="40.8860574" lon="9.1237084"><ele>518.3333333333334</ele><time>2026-04-30T10:02:42.732Z</time></trkpt><trkpt lat="40.885945" lon="9.1238399"><ele>520.0</ele><time>2026-04-30T10:02:43.731Z</time></trkpt><trkpt lat="40.8858134" lon="9.1239481"><ele>522.3333333333334</ele><time>2026-04-30T10:02:44.735Z</time></trkpt><trkpt lat="40.885678" lon="9.1240281"><ele>524.6666666666666</ele><time>2026-04-30T10:02:45.731Z</time></trkpt><trkpt lat="40.8855211" lon="9.1240856"><ele>527.0</ele><time>2026-04-30T10:02:46.732Z</time></trkpt><trkpt lat="40.8853448" lon="9.1241426"><ele>527.0</ele><time>2026-04-30T10:02:47.734Z</time></trkpt><trkpt lat="40.8851533" lon="9.1241852"><ele>527.0</ele><time>2026-04-30T10:02:48.73Z</time></trkpt><trkpt lat="40.8849684" lon="9.124224"><ele>527.0</ele><time>2026-04-30T10:02:49.73Z</time></trkpt><trkpt lat="40.8847875" lon="9.124259"><ele>526.0</ele><time>2026-04-30T10:02:50.732Z</time></trkpt><trkpt lat="40.8846002" lon="9.1242905"><ele>525.0</ele><time>2026-04-30T10:02:51.732Z</time></trkpt><trkpt lat="40.8844181" lon="9.1243266"><ele>524.0</ele><time>2026-04-30T10:02:52.732Z</time></trkpt><trkpt lat="40.8842318" lon="9.124363"><ele>523.6666666666666</ele><time>2026-04-30T10:02:53.734Z</time></trkpt><trkpt lat="40.8840482" lon="9.1244065"><ele>523.3333333333334</ele><time>2026-04-30T10:02:54.735Z</time></trkpt><trkpt lat="40.8838731" lon="9.1244577"><ele>523.0</ele><time>2026-04-30T10:02:55.734Z</time></trkpt><trkpt lat="40.8837065" lon="9.1245234"><ele>523.0</ele><time>2026-04-30T10:02:56.73Z</time></trkpt><trkpt lat="40.883539" lon="9.1246168"><ele>523.0</ele><time>2026-04-30T10:02:57.729Z</time></trkpt><trkpt lat="40.8833788" lon="9.1247336"><ele>523.0</ele><time>2026-04-30T10:02:58.734Z</time></trkpt><trkpt lat="40.8832239" lon="9.1248887"><ele>521.3333333333334</ele><time>2026-04-30T10:02:59.732Z</time></trkpt><trkpt lat="40.8830683" lon="9.1250668"><ele>519.6666666666666</ele><time>2026-04-30T10:03:00.734Z</time></trkpt><trkpt lat="40.882909" lon="9.125258"><ele>518.0</ele><time>2026-04-30T10:03:01.732Z</time></trkpt><trkpt lat="40.882756" lon="9.1254433"><ele>518.0</ele><time>2026-04-30T10:03:02.733Z</time></trkpt><trkpt lat="40.8826127" lon="9.1256209"><ele>518.0</ele><time>2026-04-30T10:03:03.731Z</time></trkpt><trkpt lat="40.8824722" lon="9.1257912"><ele>518.0</ele><time>2026-04-30T10:03:04.733Z</time></trkpt><trkpt lat="40.8823362" lon="9.1259483"><ele>516.0</ele><time>2026-04-30T10:03:05.735Z</time></trkpt><trkpt lat="40.8822066" lon="9.1260901"><ele>514.0</ele><time>2026-04-30T10:03:06.729Z</time></trkpt><trkpt lat="40.8820846" lon="9.1262108"><ele>512.0</ele><time>2026-04-30T10:03:07.73Z</time></trkpt><trkpt lat="40.8819627" lon="9.1263139"><ele>512.0</ele><time>2026-04-30T10:03:08.733Z</time></trkpt><trkpt lat="40.8818273" lon="9.1264001"><ele>512.0</ele><time>2026-04-30T10:03:09.734Z</time></trkpt><trkpt lat="40.88168" lon="9.1264754"><ele>512.0</ele><time>2026-04-30T10:03:10.732Z</time></trkpt><trkpt lat="40.8815248" lon="9.1265321"><ele>515.0</ele><time>2026-04-30T10:03:11.731Z</time></trkpt><trkpt lat="40.8813553" lon="9.1265911"><ele>518.0</ele><time>2026-04-30T10:03:12.733Z</time></trkpt><trkpt lat="40.881182" lon="9.1266555"><ele>521.0</ele><time>2026-04-30T10:03:13.731Z</time></trkpt><trkpt lat="40.8810065" lon="9.1267164"><ele>521.3333333333333</ele><time>2026-04-30T10:03:14.731Z</time></trkpt><trkpt lat="40.8808328" lon="9.1267752"><ele>521.6666666666666</ele><time>2026-04-30T10:03:15.731Z</time></trkpt><trkpt lat="40.8806542" lon="9.1268361"><ele>522.0</ele><time>2026-04-30T10:03:16.731Z</time></trkpt><trkpt lat="40.8804765" lon="9.1268919"><ele>522.0</ele><time>2026-04-30T10:03:17.733Z</time></trkpt><trkpt lat="40.8802963" lon="9.1269558"><ele>522.0</ele><time>2026-04-30T10:03:18.731Z</time></trkpt><trkpt lat="40.8801148" lon="9.1270194"><ele>522.0</ele><time>2026-04-30T10:03:19.736Z</time></trkpt><trkpt lat="40.8799404" lon="9.127083"><ele>522.3333333333334</ele><time>2026-04-30T10:03:20.733Z</time></trkpt><trkpt lat="40.8797792" lon="9.1271385"><ele>522.6666666666667</ele><time>2026-04-30T10:03:21.734Z</time></trkpt><trkpt lat="40.8796324" lon="9.127188"><ele>523.0</ele><time>2026-04-30T10:03:22.733Z</time></trkpt><trkpt lat="40.8794984" lon="9.1272352"><ele>523.0</ele><time>2026-04-30T10:03:23.733Z</time></trkpt><trkpt lat="40.8793716" lon="9.1272824"><ele>523.0</ele><time>2026-04-30T10:03:24.733Z</time></trkpt><trkpt lat="40.8792504" lon="9.1273392"><ele>523.0</ele><time>2026-04-30T10:03:25.742Z</time></trkpt><trkpt lat="40.8791272" lon="9.1274049"><ele>523.0</ele><time>2026-04-30T10:03:26.73Z</time></trkpt><trkpt lat="40.8790009" lon="9.1274786"><ele>523.0</ele><time>2026-04-30T10:03:27.733Z</time></trkpt><trkpt lat="40.8788786" lon="9.1275666"><ele>523.0</ele><time>2026-04-30T10:03:28.732Z</time></trkpt><trkpt lat="40.878763" lon="9.127668"><ele>523.0</ele><time>2026-04-30T10:03:29.733Z</time></trkpt><trkpt lat="40.8786447" lon="9.1277806"><ele>523.0</ele><time>2026-04-30T10:03:30.733Z</time></trkpt><trkpt lat="40.8785243" lon="9.1278949"><ele>522.75</ele><time>2026-04-30T10:03:31.733Z</time></trkpt><trkpt lat="40.8783979" lon="9.128001"><ele>522.5</ele><time>2026-04-30T10:03:32.732Z</time></trkpt><trkpt lat="40.8782715" lon="9.1280973"><ele>522.25</ele><time>2026-04-30T10:03:33.736Z</time></trkpt><trkpt lat="40.8781382" lon="9.1281865"><ele>522.0</ele><time>2026-04-30T10:03:34.735Z</time></trkpt><trkpt lat="40.8779987" lon="9.1282544"><ele>521.25</ele><time>2026-04-30T10:03:35.733Z</time></trkpt><trkpt lat="40.8778541" lon="9.1282958"><ele>520.5</ele><time>2026-04-30T10:03:36.731Z</time></trkpt><trkpt lat="40.8777126" lon="9.1283176"><ele>519.75</ele><time>2026-04-30T10:03:37.732Z</time></trkpt><trkpt lat="40.8775801" lon="9.1283297"><ele>519.0</ele><time>2026-04-30T10:03:38.731Z</time></trkpt><trkpt lat="40.8774702" lon="9.1283321"><ele>518.5</ele><time>2026-04-30T10:03:39.732Z</time></trkpt><trkpt lat="40.8773779" lon="9.1283359"><ele>518.0</ele><time>2026-04-30T10:03:40.73Z</time></trkpt><trkpt lat="40.8772979" lon="9.1283401"><ele>517.5</ele><time>2026-04-30T10:03:41.732Z</time></trkpt><trkpt lat="40.8772257" lon="9.1283435"><ele>517.0</ele><time>2026-04-30T10:03:42.734Z</time></trkpt><trkpt lat="40.877159" lon="9.1283489"><ele>516.5</ele><time>2026-04-30T10:03:43.733Z</time></trkpt><trkpt lat="40.8770562" lon="9.128355"><ele>516.0</ele><time>2026-04-30T10:03:45.732Z</time></trkpt><trkpt lat="40.8769798" lon="9.1283572"><ele>516.0</ele><time>2026-04-30T10:03:47.733Z</time></trkpt><trkpt lat="40.8768981" lon="9.1283618"><ele>516.0</ele><time>2026-04-30T10:03:49.733Z</time></trkpt><trkpt lat="40.8768183" lon="9.1283644"><ele>516.0</ele><time>2026-04-30T10:03:51.732Z</time></trkpt><trkpt lat="40.8767278" lon="9.1283658"><ele>516.0</ele><time>2026-04-30T10:03:54.731Z</time></trkpt><trkpt lat="40.8766456" lon="9.1283713"><ele>516.0</ele><time>2026-04-30T10:03:57.732Z</time></trkpt><trkpt lat="40.8765691" lon="9.1283711"><ele>516.0</ele><time>2026-04-30T10:04:00.731Z</time></trkpt><trkpt lat="40.8765024" lon="9.1283782"><ele>516.1666666666666</ele><time>2026-04-30T10:04:03.73Z</time></trkpt><trkpt lat="40.8764167" lon="9.1283899"><ele>516.3333333333334</ele><time>2026-04-30T10:04:15.733Z</time></trkpt><trkpt lat="40.8763273" lon="9.1283922"><ele>516.5</ele><time>2026-04-30T10:04:18.733Z</time></trkpt><trkpt lat="40.8762621" lon="9.1283904"><ele>516.6666666666667</ele><time>2026-04-30T10:04:21.73Z</time></trkpt><trkpt lat="40.8761784" lon="9.128383"><ele>516.8333333333334</ele><time>2026-04-30T10:04:25.737Z</time></trkpt><trkpt lat="40.8761049" lon="9.1283817"><ele>517.0</ele><time>2026-04-30T10:04:28.732Z</time></trkpt><trkpt lat="40.8760376" lon="9.1283702"><ele>517.0</ele><time>2026-04-30T10:04:31.732Z</time></trkpt><trkpt lat="40.8759615" lon="9.1283488"><ele>517.0</ele><time>2026-04-30T10:04:35.733Z</time></trkpt><trkpt lat="40.8758873" lon="9.1283173"><ele>517.0</ele><time>2026-04-30T10:04:38.734Z</time></trkpt><trkpt lat="40.8758183" lon="9.1282764"><ele>517.0</ele><time>2026-04-30T10:04:42.731Z</time></trkpt><trkpt lat="40.8757594" lon="9.1282291"><ele>517.0</ele><time>2026-04-30T10:04:46.732Z</time></trkpt><trkpt lat="40.8756908" lon="9.1281821"><ele>517.0</ele><time>2026-04-30T10:04:49.733Z</time></trkpt><trkpt lat="40.875625" lon="9.1281341"><ele>517.8333333333334</ele><time>2026-04-30T10:04:51.732Z</time></trkpt><trkpt lat="40.8755506" lon="9.1280752"><ele>518.6666666666667</ele><time>2026-04-30T10:04:53.731Z</time></trkpt><trkpt lat="40.8754706" lon="9.1280193"><ele>519.5</ele><time>2026-04-30T10:04:55.731Z</time></trkpt><trkpt lat="40.8754163" lon="9.1279762"><ele>520.3333333333334</ele><time>2026-04-30T10:04:57.73Z</time></trkpt><trkpt lat="40.8753559" lon="9.1279345"><ele>521.1666666666666</ele><time>2026-04-30T10:04:59.733Z</time></trkpt><trkpt lat="40.8752917" lon="9.12789"><ele>522.0</ele><time>2026-04-30T10:05:01.733Z</time></trkpt><trkpt lat="40.8752163" lon="9.1278246"><ele>522.8000000000001</ele><time>2026-04-30T10:05:03.732Z</time></trkpt><trkpt lat="40.8751028" lon="9.1277268"><ele>523.6</ele><time>2026-04-30T10:05:05.729Z</time></trkpt><trkpt lat="40.8750328" lon="9.127673"><ele>524.4000000000001</ele><time>2026-04-30T10:05:06.729Z</time></trkpt><trkpt lat="40.8749689" lon="9.1276205"><ele>525.2</ele><time>2026-04-30T10:05:07.73Z</time></trkpt><trkpt lat="40.8749019" lon="9.127568"><ele>526.0</ele><time>2026-04-30T10:05:08.732Z</time></trkpt><trkpt lat="40.8748266" lon="9.1275095"><ele>526.0</ele><time>2026-04-30T10:05:09.731Z</time></trkpt><trkpt lat="40.8747425" lon="9.1274525"><ele>526.0</ele><time>2026-04-30T10:05:10.731Z</time></trkpt><trkpt lat="40.874647" lon="9.1274055"><ele>526.0</ele><time>2026-04-30T10:05:11.73Z</time></trkpt><trkpt lat="40.8745359" lon="9.1273862"><ele>526.0</ele><time>2026-04-30T10:05:12.73Z</time></trkpt><trkpt lat="40.874412" lon="9.1274072"><ele>526.0</ele><time>2026-04-30T10:05:13.733Z</time></trkpt><trkpt lat="40.8742894" lon="9.1274463"><ele>525.75</ele><time>2026-04-30T10:05:14.733Z</time></trkpt><trkpt lat="40.8741798" lon="9.1274963"><ele>525.5</ele><time>2026-04-30T10:05:15.732Z</time></trkpt><trkpt lat="40.8740737" lon="9.1275643"><ele>525.25</ele><time>2026-04-30T10:05:16.736Z</time></trkpt><trkpt lat="40.8739797" lon="9.1276612"><ele>525.0</ele><time>2026-04-30T10:05:17.733Z</time></trkpt><trkpt lat="40.8739078" lon="9.1277834"><ele>525.0</ele><time>2026-04-30T10:05:18.733Z</time></trkpt><trkpt lat="40.8738554" lon="9.1279342"><ele>525.0</ele><time>2026-04-30T10:05:19.733Z</time></trkpt><trkpt lat="40.873814" lon="9.1281055"><ele>525.0</ele><time>2026-04-30T10:05:20.735Z</time></trkpt><trkpt lat="40.8737715" lon="9.1283023"><ele>525.0</ele><time>2026-04-30T10:05:21.73Z</time></trkpt><trkpt lat="40.8737241" lon="9.1285044"><ele>524.25</ele><time>2026-04-30T10:05:22.736Z</time></trkpt><trkpt lat="40.8736742" lon="9.1286866"><ele>523.5</ele><time>2026-04-30T10:05:23.733Z</time></trkpt><trkpt lat="40.8735966" lon="9.1288367"><ele>522.75</ele><time>2026-04-30T10:05:24.731Z</time></trkpt><trkpt lat="40.8734931" lon="9.1289725"><ele>522.0</ele><time>2026-04-30T10:05:25.729Z</time></trkpt><trkpt lat="40.8733613" lon="9.1290922"><ele>525.3333333333334</ele><time>2026-04-30T10:05:26.732Z</time></trkpt><trkpt lat="40.8732156" lon="9.1292082"><ele>528.6666666666667</ele><time>2026-04-30T10:05:27.734Z</time></trkpt><trkpt lat="40.8730773" lon="9.1293056"><ele>532.0</ele><time>2026-04-30T10:05:28.735Z</time></trkpt><trkpt lat="40.8729484" lon="9.1293666"><ele>532.0</ele><time>2026-04-30T10:05:29.733Z</time></trkpt><trkpt lat="40.8728129" lon="9.1293772"><ele>532.0</ele><time>2026-04-30T10:05:30.732Z</time></trkpt><trkpt lat="40.8726758" lon="9.1293438"><ele>532.0</ele><time>2026-04-30T10:05:31.733Z</time></trkpt><trkpt lat="40.8725277" lon="9.1292805"><ele>532.0</ele><time>2026-04-30T10:05:32.733Z</time></trkpt><trkpt lat="40.8723745" lon="9.1292015"><ele>534.3333333333334</ele><time>2026-04-30T10:05:33.733Z</time></trkpt><trkpt lat="40.8722249" lon="9.12909"><ele>536.6666666666666</ele><time>2026-04-30T10:05:34.73Z</time></trkpt><trkpt lat="40.8720837" lon="9.128949"><ele>539.0</ele><time>2026-04-30T10:05:35.731Z</time></trkpt><trkpt lat="40.8719499" lon="9.128786"><ele>542.5</ele><time>2026-04-30T10:05:36.729Z</time></trkpt><trkpt lat="40.871835" lon="9.128649"><ele>546.0</ele><time>2026-04-30T10:05:37.733Z</time></trkpt><trkpt lat="40.8717305" lon="9.1285508"><ele>549.5</ele><time>2026-04-30T10:05:38.737Z</time></trkpt><trkpt lat="40.8716284" lon="9.128522"><ele>553.0</ele><time>2026-04-30T10:05:39.727Z</time></trkpt><trkpt lat="40.8715237" lon="9.1285403"><ele>553.0</ele><time>2026-04-30T10:05:40.73Z</time></trkpt><trkpt lat="40.8714224" lon="9.1285959"><ele>553.0</ele><time>2026-04-30T10:05:41.734Z</time></trkpt><trkpt lat="40.8713164" lon="9.1286511"><ele>553.0</ele><time>2026-04-30T10:05:42.733Z</time></trkpt><trkpt lat="40.8712028" lon="9.1286516"><ele>553.0</ele><time>2026-04-30T10:05:43.733Z</time></trkpt><trkpt lat="40.8710866" lon="9.1286106"><ele>553.0</ele><time>2026-04-30T10:05:44.731Z</time></trkpt><trkpt lat="40.8709552" lon="9.128562"><ele>553.0</ele><time>2026-04-30T10:05:45.731Z</time></trkpt><trkpt lat="40.8708161" lon="9.1285402"><ele>553.0</ele><time>2026-04-30T10:05:46.732Z</time></trkpt><trkpt lat="40.8706806" lon="9.1285777"><ele>553.0</ele><time>2026-04-30T10:05:47.73Z</time></trkpt><trkpt lat="40.8705405" lon="9.1286669"><ele>554.5</ele><time>2026-04-30T10:05:48.732Z</time></trkpt><trkpt lat="40.8704049" lon="9.1287688"><ele>556.0</ele><time>2026-04-30T10:05:49.733Z</time></trkpt><trkpt lat="40.8702782" lon="9.1288427"><ele>557.5</ele><time>2026-04-30T10:05:50.729Z</time></trkpt><trkpt lat="40.8701437" lon="9.128868"><ele>559.0</ele><time>2026-04-30T10:05:51.734Z</time></trkpt><trkpt lat="40.8700007" lon="9.1288484"><ele>560.6666666666667</ele><time>2026-04-30T10:05:52.732Z</time></trkpt><trkpt lat="40.8698468" lon="9.1287887"><ele>562.3333333333334</ele><time>2026-04-30T10:05:53.731Z</time></trkpt><trkpt lat="40.8696754" lon="9.1287062"><ele>564.0</ele><time>2026-04-30T10:05:54.733Z</time></trkpt><trkpt lat="40.8694909" lon="9.1286142"><ele>564.0</ele><time>2026-04-30T10:05:55.732Z</time></trkpt><trkpt lat="40.8693164" lon="9.128552"><ele>564.0</ele><time>2026-04-30T10:05:56.731Z</time></trkpt><trkpt lat="40.8691397" lon="9.1285309"><ele>564.0</ele><time>2026-04-30T10:05:57.731Z</time></trkpt><trkpt lat="40.868962" lon="9.1285451"><ele>565.6666666666666</ele><time>2026-04-30T10:05:58.734Z</time></trkpt><trkpt lat="40.868785" lon="9.1285809"><ele>567.3333333333333</ele><time>2026-04-30T10:05:59.732Z</time></trkpt><trkpt lat="40.8686018" lon="9.1286009"><ele>569.0</ele><time>2026-04-30T10:06:00.731Z</time></trkpt><trkpt lat="40.8684051" lon="9.1285851"><ele>569.3333333333333</ele><time>2026-04-30T10:06:01.73Z</time></trkpt><trkpt lat="40.8681949" lon="9.1285429"><ele>569.6666666666666</ele><time>2026-04-30T10:06:02.732Z</time></trkpt><trkpt lat="40.867988" lon="9.1284994"><ele>570.0</ele><time>2026-04-30T10:06:03.729Z</time></trkpt><trkpt lat="40.8677923" lon="9.1284844"><ele>570.6666666666666</ele><time>2026-04-30T10:06:04.729Z</time></trkpt><trkpt lat="40.8675845" lon="9.1284934"><ele>571.3333333333333</ele><time>2026-04-30T10:06:05.732Z</time></trkpt><trkpt lat="40.8673603" lon="9.1285179"><ele>572.0</ele><time>2026-04-30T10:06:06.731Z</time></trkpt><trkpt lat="40.867143" lon="9.1285466"><ele>572.0</ele><time>2026-04-30T10:06:07.731Z</time></trkpt><trkpt lat="40.8669398" lon="9.1285618"><ele>572.0</ele><time>2026-04-30T10:06:08.731Z</time></trkpt><trkpt lat="40.8667317" lon="9.1285561"><ele>572.0</ele><time>2026-04-30T10:06:09.73Z</time></trkpt><trkpt lat="40.8665157" lon="9.1285233"><ele>572.3333333333333</ele><time>2026-04-30T10:06:10.729Z</time></trkpt><trkpt lat="40.8662869" lon="9.1284813"><ele>572.6666666666666</ele><time>2026-04-30T10:06:11.733Z</time></trkpt><trkpt lat="40.866073" lon="9.1284301"><ele>573.0</ele><time>2026-04-30T10:06:12.733Z</time></trkpt><trkpt lat="40.8658607" lon="9.1283583"><ele>573.0</ele><time>2026-04-30T10:06:13.731Z</time></trkpt><trkpt lat="40.8656571" lon="9.1282707"><ele>573.0</ele><time>2026-04-30T10:06:14.73Z</time></trkpt><trkpt lat="40.8654717" lon="9.1281902"><ele>573.0</ele><time>2026-04-30T10:06:15.729Z</time></trkpt><trkpt lat="40.8653074" lon="9.1281131"><ele>574.3333333333334</ele><time>2026-04-30T10:06:16.736Z</time></trkpt><trkpt lat="40.8651502" lon="9.1280483"><ele>575.6666666666667</ele><time>2026-04-30T10:06:17.729Z</time></trkpt><trkpt lat="40.8649901" lon="9.1280059"><ele>577.0</ele><time>2026-04-30T10:06:18.729Z</time></trkpt><trkpt lat="40.8648371" lon="9.1280012"><ele>577.0</ele><time>2026-04-30T10:06:19.733Z</time></trkpt><trkpt lat="40.8646965" lon="9.1280162"><ele>577.0</ele><time>2026-04-30T10:06:20.732Z</time></trkpt><trkpt lat="40.8646051" lon="9.128078"><ele>577.0</ele><time>2026-04-30T10:06:21.731Z</time></trkpt><trkpt lat="40.8645325" lon="9.128174"><ele>577.0</ele><time>2026-04-30T10:06:22.732Z</time></trkpt><trkpt lat="40.8644786" lon="9.1282997"><ele>576.75</ele><time>2026-04-30T10:06:23.735Z</time></trkpt><trkpt lat="40.8644303" lon="9.1284533"><ele>576.5</ele><time>2026-04-30T10:06:24.73Z</time></trkpt><trkpt lat="40.8643777" lon="9.1286291"><ele>576.25</ele><time>2026-04-30T10:06:25.733Z</time></trkpt><trkpt lat="40.8643273" lon="9.1287927"><ele>576.0</ele><time>2026-04-30T10:06:26.729Z</time></trkpt><trkpt lat="40.8642463" lon="9.128937"><ele>577.0</ele><time>2026-04-30T10:06:27.734Z</time></trkpt><trkpt lat="40.864145" lon="9.1290733"><ele>578.0</ele><time>2026-04-30T10:06:28.732Z</time></trkpt><trkpt lat="40.8640222" lon="9.1291899"><ele>579.0</ele><time>2026-04-30T10:06:29.731Z</time></trkpt><trkpt lat="40.8638853" lon="9.129302"><ele>579.0</ele><time>2026-04-30T10:06:30.731Z</time></trkpt><trkpt lat="40.863754" lon="9.1293906"><ele>579.0</ele><time>2026-04-30T10:06:31.733Z</time></trkpt><trkpt lat="40.8636394" lon="9.1294709"><ele>579.0</ele><time>2026-04-30T10:06:32.73Z</time></trkpt><trkpt lat="40.8635413" lon="9.1295304"><ele>579.0</ele><time>2026-04-30T10:06:33.734Z</time></trkpt><trkpt lat="40.8634452" lon="9.1295432"><ele>579.75</ele><time>2026-04-30T10:06:34.73Z</time></trkpt><trkpt lat="40.8633518" lon="9.1295056"><ele>580.5</ele><time>2026-04-30T10:06:35.733Z</time></trkpt><trkpt lat="40.8632582" lon="9.129428"><ele>581.25</ele><time>2026-04-30T10:06:36.73Z</time></trkpt><trkpt lat="40.8631492" lon="9.1293043"><ele>582.0</ele><time>2026-04-30T10:06:37.73Z</time></trkpt><trkpt lat="40.8630237" lon="9.1291687"><ele>580.3333333333334</ele><time>2026-04-30T10:06:38.729Z</time></trkpt><trkpt lat="40.8628613" lon="9.1289724"><ele>578.6666666666667</ele><time>2026-04-30T10:06:39.729Z</time></trkpt><trkpt lat="40.8627206" lon="9.1288125"><ele>577.0</ele><time>2026-04-30T10:06:40.732Z</time></trkpt><trkpt lat="40.8625945" lon="9.128662"><ele>577.0</ele><time>2026-04-30T10:06:41.73Z</time></trkpt><trkpt lat="40.8624583" lon="9.1285258"><ele>577.0</ele><time>2026-04-30T10:06:42.73Z</time></trkpt><trkpt lat="40.8623102" lon="9.1285507"><ele>577.0</ele><time>2026-04-30T10:06:43.734Z</time></trkpt><trkpt lat="40.8621827" lon="9.1285018"><ele>577.0</ele><time>2026-04-30T10:06:44.733Z</time></trkpt><trkpt lat="40.8620898" lon="9.1284325"><ele>577.0</ele><time>2026-04-30T10:06:45.731Z</time></trkpt><trkpt lat="40.8620191" lon="9.1283174"><ele>577.0</ele><time>2026-04-30T10:06:46.729Z</time></trkpt><trkpt lat="40.8619872" lon="9.128182"><ele>577.0</ele><time>2026-04-30T10:06:47.734Z</time></trkpt><trkpt lat="40.8619576" lon="9.1280386"><ele>577.0</ele><time>2026-04-30T10:06:48.729Z</time></trkpt><trkpt lat="40.8619834" lon="9.1278901"><ele>576.25</ele><time>2026-04-30T10:06:49.736Z</time></trkpt><trkpt lat="40.8620685" lon="9.1277183"><ele>575.5</ele><time>2026-04-30T10:06:50.732Z</time></trkpt><trkpt lat="40.8621005" lon="9.127554"><ele>574.75</ele><time>2026-04-30T10:06:51.731Z</time></trkpt><trkpt lat="40.8621111" lon="9.1273863"><ele>574.0</ele><time>2026-04-30T10:06:52.729Z</time></trkpt><trkpt lat="40.8620866" lon="9.1271984"><ele>574.0</ele><time>2026-04-30T10:06:53.73Z</time></trkpt><trkpt lat="40.8619808" lon="9.1270371"><ele>574.0</ele><time>2026-04-30T10:06:54.731Z</time></trkpt><trkpt lat="40.8618959" lon="9.126878"><ele>574.0</ele><time>2026-04-30T10:06:55.73Z</time></trkpt><trkpt lat="40.8617783" lon="9.1267439"><ele>572.6666666666667</ele><time>2026-04-30T10:06:56.736Z</time></trkpt><trkpt lat="40.8616376" lon="9.126642"><ele>571.3333333333334</ele><time>2026-04-30T10:06:57.74Z</time></trkpt><trkpt lat="40.8615052" lon="9.1265449"><ele>570.0</ele><time>2026-04-30T10:06:58.727Z</time></trkpt><trkpt lat="40.8613758" lon="9.1264217"><ele>570.0</ele><time>2026-04-30T10:06:59.732Z</time></trkpt><trkpt lat="40.861276" lon="9.1262522"><ele>570.0</ele><time>2026-04-30T10:07:00.734Z</time></trkpt><trkpt lat="40.8611761" lon="9.1260543"><ele>570.0</ele><time>2026-04-30T10:07:01.73Z</time></trkpt><trkpt lat="40.8610795" lon="9.1258265"><ele>570.3333333333334</ele><time>2026-04-30T10:07:02.731Z</time></trkpt><trkpt lat="40.8609979" lon="9.1256073"><ele>570.6666666666667</ele><time>2026-04-30T10:07:03.734Z</time></trkpt><trkpt lat="40.8609376" lon="9.1253807"><ele>571.0</ele><time>2026-04-30T10:07:04.73Z</time></trkpt><trkpt lat="40.8609065" lon="9.1251493"><ele>571.0</ele><time>2026-04-30T10:07:05.732Z</time></trkpt><trkpt lat="40.8609009" lon="9.1249186"><ele>571.0</ele><time>2026-04-30T10:07:06.73Z</time></trkpt><trkpt lat="40.8609066" lon="9.1247114"><ele>571.0</ele><time>2026-04-30T10:07:07.732Z</time></trkpt><trkpt lat="40.8609091" lon="9.1245313"><ele>567.25</ele><time>2026-04-30T10:07:08.731Z</time></trkpt><trkpt lat="40.8608998" lon="9.1243666"><ele>563.5</ele><time>2026-04-30T10:07:09.732Z</time></trkpt><trkpt lat="40.8608484" lon="9.1242318"><ele>559.75</ele><time>2026-04-30T10:07:10.732Z</time></trkpt><trkpt lat="40.8607577" lon="9.124137"><ele>556.0</ele><time>2026-04-30T10:07:11.736Z</time></trkpt><trkpt lat="40.8606459" lon="9.124072"><ele>556.25</ele><time>2026-04-30T10:07:12.732Z</time></trkpt><trkpt lat="40.8605094" lon="9.1240243"><ele>556.5</ele><time>2026-04-30T10:07:13.731Z</time></trkpt><trkpt lat="40.8603712" lon="9.1239736"><ele>556.75</ele><time>2026-04-30T10:07:14.731Z</time></trkpt><trkpt lat="40.8602459" lon="9.1239051"><ele>557.0</ele><time>2026-04-30T10:07:15.729Z</time></trkpt><trkpt lat="40.8601148" lon="9.1238202"><ele>557.0</ele><time>2026-04-30T10:07:16.733Z</time></trkpt><trkpt lat="40.8600281" lon="9.1236481"><ele>557.0</ele><time>2026-04-30T10:07:17.731Z</time></trkpt><trkpt lat="40.8599274" lon="9.123493"><ele>557.0</ele><time>2026-04-30T10:07:18.739Z</time></trkpt><trkpt lat="40.8598837" lon="9.1232696"><ele>555.0</ele><time>2026-04-30T10:07:19.736Z</time></trkpt><trkpt lat="40.8598244" lon="9.123087"><ele>553.0</ele><time>2026-04-30T10:07:20.736Z</time></trkpt><trkpt lat="40.859751" lon="9.1229324"><ele>551.0</ele><time>2026-04-30T10:07:21.737Z</time></trkpt><trkpt lat="40.8596539" lon="9.1228186"><ele>549.0</ele><time>2026-04-30T10:07:22.73Z</time></trkpt><trkpt lat="40.8595326" lon="9.1227478"><ele>549.0</ele><time>2026-04-30T10:07:23.732Z</time></trkpt><trkpt lat="40.8593909" lon="9.1227117"><ele>549.0</ele><time>2026-04-30T10:07:24.731Z</time></trkpt><trkpt lat="40.8592347" lon="9.1226934"><ele>549.0</ele><time>2026-04-30T10:07:25.731Z</time></trkpt><trkpt lat="40.8590556" lon="9.1226893"><ele>548.5</ele><time>2026-04-30T10:07:26.733Z</time></trkpt><trkpt lat="40.8588927" lon="9.1226799"><ele>548.0</ele><time>2026-04-30T10:07:27.732Z</time></trkpt><trkpt lat="40.8587642" lon="9.1226525"><ele>547.5</ele><time>2026-04-30T10:07:28.731Z</time></trkpt><trkpt lat="40.8586647" lon="9.1226063"><ele>547.0</ele><time>2026-04-30T10:07:29.731Z</time></trkpt><trkpt lat="40.8585911" lon="9.12253"><ele>547.0</ele><time>2026-04-30T10:07:30.731Z</time></trkpt><trkpt lat="40.8585441" lon="9.1224288"><ele>547.0</ele><time>2026-04-30T10:07:31.728Z</time></trkpt><trkpt lat="40.8585153" lon="9.1223013"><ele>547.0</ele><time>2026-04-30T10:07:32.739Z</time></trkpt><trkpt lat="40.858485" lon="9.1221351"><ele>547.0</ele><time>2026-04-30T10:07:33.73Z</time></trkpt><trkpt lat="40.8584436" lon="9.1219486"><ele>547.6666666666667</ele><time>2026-04-30T10:07:34.734Z</time></trkpt><trkpt lat="40.8583945" lon="9.1217277"><ele>548.3333333333334</ele><time>2026-04-30T10:07:35.732Z</time></trkpt><trkpt lat="40.8583427" lon="9.121492"><ele>549.0</ele><time>2026-04-30T10:07:36.73Z</time></trkpt><trkpt lat="40.8582915" lon="9.1212452"><ele>547.3333333333334</ele><time>2026-04-30T10:07:37.731Z</time></trkpt><trkpt lat="40.8582381" lon="9.1209903"><ele>545.6666666666667</ele><time>2026-04-30T10:07:38.738Z</time></trkpt><trkpt lat="40.8581834" lon="9.120731"><ele>544.0</ele><time>2026-04-30T10:07:39.732Z</time></trkpt><trkpt lat="40.8581361" lon="9.1204884"><ele>543.3333333333334</ele><time>2026-04-30T10:07:40.73Z</time></trkpt><trkpt lat="40.8580891" lon="9.1202492"><ele>542.6666666666666</ele><time>2026-04-30T10:07:41.733Z</time></trkpt><trkpt lat="40.8580471" lon="9.1200292"><ele>542.0</ele><time>2026-04-30T10:07:42.732Z</time></trkpt><trkpt lat="40.8579981" lon="9.1198374"><ele>538.6666666666666</ele><time>2026-04-30T10:07:43.732Z</time></trkpt><trkpt lat="40.8579106" lon="9.1196692"><ele>535.3333333333334</ele><time>2026-04-30T10:07:44.731Z</time></trkpt><trkpt lat="40.8577908" lon="9.1195153"><ele>532.0</ele><time>2026-04-30T10:07:45.727Z</time></trkpt><trkpt lat="40.857645" lon="9.1193604"><ele>534.0</ele><time>2026-04-30T10:07:46.729Z</time></trkpt><trkpt lat="40.8574882" lon="9.1192069"><ele>536.0</ele><time>2026-04-30T10:07:47.731Z</time></trkpt><trkpt lat="40.8573543" lon="9.1190598"><ele>538.0</ele><time>2026-04-30T10:07:48.73Z</time></trkpt><trkpt lat="40.857222" lon="9.1189424"><ele>538.0</ele><time>2026-04-30T10:07:49.733Z</time></trkpt><trkpt lat="40.8570788" lon="9.1188758"><ele>538.0</ele><time>2026-04-30T10:07:50.73Z</time></trkpt><trkpt lat="40.8569294" lon="9.1188564"><ele>538.0</ele><time>2026-04-30T10:07:51.737Z</time></trkpt><trkpt lat="40.8567846" lon="9.1188269"><ele>538.0</ele><time>2026-04-30T10:07:52.732Z</time></trkpt><trkpt lat="40.856643" lon="9.1187539"><ele>540.6666666666667</ele><time>2026-04-30T10:07:53.731Z</time></trkpt><trkpt lat="40.8565077" lon="9.1186399"><ele>543.3333333333334</ele><time>2026-04-30T10:07:54.735Z</time></trkpt><trkpt lat="40.8563922" lon="9.1184846"><ele>546.0</ele><time>2026-04-30T10:07:55.732Z</time></trkpt><trkpt lat="40.8562808" lon="9.1183073"><ele>547.0</ele><time>2026-04-30T10:07:56.728Z</time></trkpt><trkpt lat="40.8561641" lon="9.1181162"><ele>548.0</ele><time>2026-04-30T10:07:57.729Z</time></trkpt><trkpt lat="40.8560392" lon="9.1179004"><ele>549.0</ele><time>2026-04-30T10:07:58.732Z</time></trkpt><trkpt lat="40.8559245" lon="9.1176865"><ele>549.0</ele><time>2026-04-30T10:07:59.731Z</time></trkpt><trkpt lat="40.8558169" lon="9.1174859"><ele>549.0</ele><time>2026-04-30T10:08:00.731Z</time></trkpt><trkpt lat="40.8556961" lon="9.1172973"><ele>549.0</ele><time>2026-04-30T10:08:01.731Z</time></trkpt><trkpt lat="40.8555646" lon="9.1171171"><ele>543.6666666666666</ele><time>2026-04-30T10:08:02.733Z</time></trkpt><trkpt lat="40.855429" lon="9.1169365"><ele>538.3333333333333</ele><time>2026-04-30T10:08:03.731Z</time></trkpt><trkpt lat="40.8552851" lon="9.1167547"><ele>533.0</ele><time>2026-04-30T10:08:04.734Z</time></trkpt><trkpt lat="40.8551382" lon="9.1165674"><ele>534.0</ele><time>2026-04-30T10:08:05.733Z</time></trkpt><trkpt lat="40.8549856" lon="9.1163746"><ele>535.0</ele><time>2026-04-30T10:08:06.734Z</time></trkpt><trkpt lat="40.8548373" lon="9.1161821"><ele>536.0</ele><time>2026-04-30T10:08:07.734Z</time></trkpt><trkpt lat="40.8546916" lon="9.1159926"><ele>536.0</ele><time>2026-04-30T10:08:08.733Z</time></trkpt><trkpt lat="40.8545573" lon="9.1158001"><ele>536.0</ele><time>2026-04-30T10:08:09.729Z</time></trkpt><trkpt lat="40.8544406" lon="9.1156044"><ele>536.0</ele><time>2026-04-30T10:08:10.729Z</time></trkpt><trkpt lat="40.8543201" lon="9.1154195"><ele>538.3333333333333</ele><time>2026-04-30T10:08:11.729Z</time></trkpt><trkpt lat="40.8541875" lon="9.1152396"><ele>540.6666666666666</ele><time>2026-04-30T10:08:12.729Z</time></trkpt><trkpt lat="40.8540374" lon="9.1150711"><ele>543.0</ele><time>2026-04-30T10:08:13.732Z</time></trkpt><trkpt lat="40.8538723" lon="9.1149084"><ele>544.0</ele><time>2026-04-30T10:08:14.73Z</time></trkpt><trkpt lat="40.8537004" lon="9.1147503"><ele>545.0</ele><time>2026-04-30T10:08:15.733Z</time></trkpt><trkpt lat="40.8535213" lon="9.1146048"><ele>546.0</ele><time>2026-04-30T10:08:16.729Z</time></trkpt><trkpt lat="40.8533387" lon="9.1144759"><ele>546.0</ele><time>2026-04-30T10:08:17.73Z</time></trkpt><trkpt lat="40.8531604" lon="9.1143565"><ele>546.0</ele><time>2026-04-30T10:08:18.732Z</time></trkpt><trkpt lat="40.8529923" lon="9.1142216"><ele>546.0</ele><time>2026-04-30T10:08:19.729Z</time></trkpt><trkpt lat="40.8528395" lon="9.1140615"><ele>549.3333333333334</ele><time>2026-04-30T10:08:20.73Z</time></trkpt><trkpt lat="40.8526799" lon="9.1139042"><ele>552.6666666666667</ele><time>2026-04-30T10:08:21.728Z</time></trkpt><trkpt lat="40.8525041" lon="9.1137562"><ele>556.0</ele><time>2026-04-30T10:08:22.73Z</time></trkpt><trkpt lat="40.8523346" lon="9.1135965"><ele>556.0</ele><time>2026-04-30T10:08:23.73Z</time></trkpt><trkpt lat="40.8521737" lon="9.1134231"><ele>556.0</ele><time>2026-04-30T10:08:24.73Z</time></trkpt><trkpt lat="40.8520085" lon="9.1132473"><ele>556.0</ele><time>2026-04-30T10:08:25.731Z</time></trkpt><trkpt lat="40.8518292" lon="9.1130904"><ele>557.0</ele><time>2026-04-30T10:08:26.732Z</time></trkpt><trkpt lat="40.8516317" lon="9.1129493"><ele>558.0</ele><time>2026-04-30T10:08:27.731Z</time></trkpt><trkpt lat="40.8514267" lon="9.1128134"><ele>558.0</ele><time>2026-04-30T10:08:28.734Z</time></trkpt><trkpt lat="40.8512144" lon="9.1126802"><ele>558.0</ele><time>2026-04-30T10:08:29.733Z</time></trkpt><trkpt lat="40.8510232" lon="9.1125519"><ele>558.0</ele><time>2026-04-30T10:08:30.733Z</time></trkpt><trkpt lat="40.8508513" lon="9.1124162"><ele>556.6666666666666</ele><time>2026-04-30T10:08:31.729Z</time></trkpt><trkpt lat="40.8506911" lon="9.1122781"><ele>555.3333333333333</ele><time>2026-04-30T10:08:32.732Z</time></trkpt><trkpt lat="40.8505292" lon="9.1121393"><ele>554.0</ele><time>2026-04-30T10:08:33.727Z</time></trkpt><trkpt lat="40.8503614" lon="9.1120128"><ele>554.0</ele><time>2026-04-30T10:08:34.73Z</time></trkpt><trkpt lat="40.8501816" lon="9.1119083"><ele>554.0</ele><time>2026-04-30T10:08:35.73Z</time></trkpt><trkpt lat="40.8499933" lon="9.1118221"><ele>554.0</ele><time>2026-04-30T10:08:36.728Z</time></trkpt><trkpt lat="40.8498028" lon="9.1117375"><ele>554.6666666666666</ele><time>2026-04-30T10:08:37.73Z</time></trkpt><trkpt lat="40.8496282" lon="9.1116389"><ele>555.3333333333334</ele><time>2026-04-30T10:08:38.729Z</time></trkpt><trkpt lat="40.8494737" lon="9.1115284"><ele>556.0</ele><time>2026-04-30T10:08:39.729Z</time></trkpt><trkpt lat="40.8493342" lon="9.1114119"><ele>564.0</ele><time>2026-04-30T10:08:40.732Z</time></trkpt><trkpt lat="40.8491923" lon="9.1113183"><ele>572.0</ele><time>2026-04-30T10:08:41.73Z</time></trkpt><trkpt lat="40.8490326" lon="9.1112552"><ele>580.0</ele><time>2026-04-30T10:08:42.729Z</time></trkpt><trkpt lat="40.8488735" lon="9.1112095"><ele>580.0</ele><time>2026-04-30T10:08:43.729Z</time></trkpt><trkpt lat="40.8487153" lon="9.1111955"><ele>580.0</ele><time>2026-04-30T10:08:44.729Z</time></trkpt><trkpt lat="40.8485584" lon="9.1112153"><ele>580.0</ele><time>2026-04-30T10:08:45.729Z</time></trkpt><trkpt lat="40.8484018" lon="9.1112611"><ele>582.25</ele><time>2026-04-30T10:08:46.729Z</time></trkpt><trkpt lat="40.8482506" lon="9.1113164"><ele>584.5</ele><time>2026-04-30T10:08:47.732Z</time></trkpt><trkpt lat="40.8481119" lon="9.1113683"><ele>586.75</ele><time>2026-04-30T10:08:48.729Z</time></trkpt><trkpt lat="40.8479769" lon="9.1114076"><ele>589.0</ele><time>2026-04-30T10:08:49.73Z</time></trkpt><trkpt lat="40.8478417" lon="9.1114207"><ele>589.0</ele><time>2026-04-30T10:08:50.73Z</time></trkpt><trkpt lat="40.847717" lon="9.1114193"><ele>589.0</ele><time>2026-04-30T10:08:51.731Z</time></trkpt><trkpt lat="40.8476219" lon="9.1113875"><ele>589.0</ele><time>2026-04-30T10:08:52.729Z</time></trkpt><trkpt lat="40.8475488" lon="9.1113146"><ele>589.0</ele><time>2026-04-30T10:08:53.728Z</time></trkpt><trkpt lat="40.847497" lon="9.111214"><ele>589.0</ele><time>2026-04-30T10:08:54.73Z</time></trkpt><trkpt lat="40.8474737" lon="9.1110904"><ele>593.6</ele><time>2026-04-30T10:08:55.731Z</time></trkpt><trkpt lat="40.8474856" lon="9.1109578"><ele>598.2</ele><time>2026-04-30T10:08:56.729Z</time></trkpt><trkpt lat="40.8475251" lon="9.1108237"><ele>602.8000000000001</ele><time>2026-04-30T10:08:57.729Z</time></trkpt><trkpt lat="40.8475789" lon="9.1106943"><ele>607.4</ele><time>2026-04-30T10:08:58.728Z</time></trkpt><trkpt lat="40.847619" lon="9.1105684"><ele>612.0</ele><time>2026-04-30T10:08:59.731Z</time></trkpt><trkpt lat="40.8476195" lon="9.1104278"><ele>612.0</ele><time>2026-04-30T10:09:00.729Z</time></trkpt><trkpt lat="40.8475954" lon="9.1102876"><ele>612.0</ele><time>2026-04-30T10:09:01.733Z</time></trkpt><trkpt lat="40.847556" lon="9.1101269"><ele>612.0</ele><time>2026-04-30T10:09:02.728Z</time></trkpt><trkpt lat="40.8475072" lon="9.1099443"><ele>612.0</ele><time>2026-04-30T10:09:03.727Z</time></trkpt><trkpt lat="40.8474533" lon="9.1097379"><ele>608.0</ele><time>2026-04-30T10:09:04.728Z</time></trkpt><trkpt lat="40.8473506" lon="9.1093653"><ele>604.0</ele><time>2026-04-30T10:09:06.73Z</time></trkpt><trkpt lat="40.8472655" lon="9.1092226"><ele>600.0</ele><time>2026-04-30T10:09:07.729Z</time></trkpt><trkpt lat="40.8471502" lon="9.1090924"><ele>594.0</ele><time>2026-04-30T10:09:08.73Z</time></trkpt><trkpt lat="40.84703" lon="9.1089488"><ele>588.0</ele><time>2026-04-30T10:09:09.728Z</time></trkpt><trkpt lat="40.8469284" lon="9.1087736"><ele>582.0</ele><time>2026-04-30T10:09:10.729Z</time></trkpt><trkpt lat="40.8468363" lon="9.1085768"><ele>587.5</ele><time>2026-04-30T10:09:11.729Z</time></trkpt><trkpt lat="40.8467573" lon="9.1084107"><ele>593.0</ele><time>2026-04-30T10:09:12.732Z</time></trkpt><trkpt lat="40.8466616" lon="9.1082662"><ele>598.5</ele><time>2026-04-30T10:09:13.73Z</time></trkpt><trkpt lat="40.8465412" lon="9.1081538"><ele>604.0</ele><time>2026-04-30T10:09:14.728Z</time></trkpt><trkpt lat="40.8464083" lon="9.10804"><ele>604.0</ele><time>2026-04-30T10:09:15.737Z</time></trkpt><trkpt lat="40.8462955" lon="9.1078896"><ele>604.0</ele><time>2026-04-30T10:09:16.728Z</time></trkpt><trkpt lat="40.8462051" lon="9.1077374"><ele>604.0</ele><time>2026-04-30T10:09:17.729Z</time></trkpt><trkpt lat="40.8461438" lon="9.1075855"><ele>604.0</ele><time>2026-04-30T10:09:18.729Z</time></trkpt><trkpt lat="40.8461147" lon="9.1074112"><ele>602.0</ele><time>2026-04-30T10:09:19.73Z</time></trkpt><trkpt lat="40.8461064" lon="9.1072391"><ele>600.0</ele><time>2026-04-30T10:09:20.729Z</time></trkpt><trkpt lat="40.8460717" lon="9.1070699"><ele>598.0</ele><time>2026-04-30T10:09:21.729Z</time></trkpt><trkpt lat="40.8459977" lon="9.1068997"><ele>596.0</ele><time>2026-04-30T10:09:22.728Z</time></trkpt><trkpt lat="40.8459105" lon="9.1067493"><ele>598.6666666666666</ele><time>2026-04-30T10:09:23.729Z</time></trkpt><trkpt lat="40.845797" lon="9.1066366"><ele>601.3333333333334</ele><time>2026-04-30T10:09:24.731Z</time></trkpt><trkpt lat="40.8456555" lon="9.106546"><ele>604.0</ele><time>2026-04-30T10:09:25.731Z</time></trkpt><trkpt lat="40.8454942" lon="9.1064431"><ele>604.0</ele><time>2026-04-30T10:09:26.73Z</time></trkpt><trkpt lat="40.845316" lon="9.1063231"><ele>604.0</ele><time>2026-04-30T10:09:27.729Z</time></trkpt><trkpt lat="40.8451172" lon="9.1061867"><ele>604.0</ele><time>2026-04-30T10:09:28.729Z</time></trkpt><trkpt lat="40.844905" lon="9.1060391"><ele>607.3333333333334</ele><time>2026-04-30T10:09:29.73Z</time></trkpt><trkpt lat="40.844705" lon="9.1058973"><ele>610.6666666666666</ele><time>2026-04-30T10:09:30.728Z</time></trkpt><trkpt lat="40.8445338" lon="9.1057745"><ele>614.0</ele><time>2026-04-30T10:09:31.73Z</time></trkpt><trkpt lat="40.8443798" lon="9.1056783"><ele>619.25</ele><time>2026-04-30T10:09:32.733Z</time></trkpt><trkpt lat="40.8442375" lon="9.1056119"><ele>624.5</ele><time>2026-04-30T10:09:33.729Z</time></trkpt><trkpt lat="40.8441018" lon="9.1055844"><ele>629.75</ele><time>2026-04-30T10:09:34.731Z</time></trkpt><trkpt lat="40.8439756" lon="9.1055527"><ele>635.0</ele><time>2026-04-30T10:09:35.733Z</time></trkpt><trkpt lat="40.8438783" lon="9.1054903"><ele>635.0</ele><time>2026-04-30T10:09:36.73Z</time></trkpt><trkpt lat="40.8438208" lon="9.1053973"><ele>635.0</ele><time>2026-04-30T10:09:37.732Z</time></trkpt><trkpt lat="40.8438013" lon="9.1052913"><ele>635.0</ele><time>2026-04-30T10:09:38.73Z</time></trkpt><trkpt lat="40.8438151" lon="9.1051773"><ele>635.0</ele><time>2026-04-30T10:09:39.732Z</time></trkpt><trkpt lat="40.8438525" lon="9.1050524"><ele>635.0</ele><time>2026-04-30T10:09:40.729Z</time></trkpt><trkpt lat="40.8438752" lon="9.1048991"><ele>636.6666666666666</ele><time>2026-04-30T10:09:41.73Z</time></trkpt><trkpt lat="40.8438833" lon="9.1047212"><ele>638.3333333333334</ele><time>2026-04-30T10:09:42.73Z</time></trkpt><trkpt lat="40.8438683" lon="9.1045249"><ele>640.0</ele><time>2026-04-30T10:09:43.731Z</time></trkpt><trkpt lat="40.8438395" lon="9.1043034"><ele>646.3333333333334</ele><time>2026-04-30T10:09:44.732Z</time></trkpt><trkpt lat="40.8437998" lon="9.1040664"><ele>652.6666666666666</ele><time>2026-04-30T10:09:45.731Z</time></trkpt><trkpt lat="40.8437662" lon="9.1038618"><ele>659.0</ele><time>2026-04-30T10:09:46.738Z</time></trkpt><trkpt lat="40.8437462" lon="9.1036902"><ele>659.0</ele><time>2026-04-30T10:09:47.732Z</time></trkpt><trkpt lat="40.8437576" lon="9.1035524"><ele>659.0</ele><time>2026-04-30T10:09:48.731Z</time></trkpt><trkpt lat="40.8438071" lon="9.1034334"><ele>659.0</ele><time>2026-04-30T10:09:49.732Z</time></trkpt><trkpt lat="40.8438904" lon="9.1033489"><ele>659.0</ele><time>2026-04-30T10:09:50.732Z</time></trkpt><trkpt lat="40.843998" lon="9.1032795"><ele>659.0</ele><time>2026-04-30T10:09:51.734Z</time></trkpt><trkpt lat="40.8441445" lon="9.103244"><ele>668.3333333333333</ele><time>2026-04-30T10:09:52.736Z</time></trkpt><trkpt lat="40.8443135" lon="9.1032067"><ele>677.6666666666666</ele><time>2026-04-30T10:09:53.731Z</time></trkpt><trkpt lat="40.8444708" lon="9.1031821"><ele>687.0</ele><time>2026-04-30T10:09:54.73Z</time></trkpt><trkpt lat="40.844599" lon="9.1031737"><ele>687.0</ele><time>2026-04-30T10:09:55.729Z</time></trkpt><trkpt lat="40.8446881" lon="9.1031454"><ele>687.0</ele><time>2026-04-30T10:09:56.731Z</time></trkpt><trkpt lat="40.8447488" lon="9.1030632"><ele>687.0</ele><time>2026-04-30T10:09:57.731Z</time></trkpt><trkpt lat="40.8447619" lon="9.1029595"><ele>687.0</ele><time>2026-04-30T10:09:58.734Z</time></trkpt><trkpt lat="40.8447257" lon="9.1028648"><ele>687.0</ele><time>2026-04-30T10:09:59.731Z</time></trkpt><trkpt lat="40.8446485" lon="9.1028056"><ele>687.0</ele><time>2026-04-30T10:10:00.73Z</time></trkpt><trkpt lat="40.8445509" lon="9.1027915"><ele>687.0</ele><time>2026-04-30T10:10:01.734Z</time></trkpt><trkpt lat="40.8444175" lon="9.1028075"><ele>687.0</ele><time>2026-04-30T10:10:02.73Z</time></trkpt><trkpt lat="40.8442535" lon="9.1028355"><ele>687.0</ele><time>2026-04-30T10:10:03.73Z</time></trkpt><trkpt lat="40.8440614" lon="9.1028664"><ele>687.0</ele><time>2026-04-30T10:10:04.733Z</time></trkpt><trkpt lat="40.8438508" lon="9.1029003"><ele>687.0</ele><time>2026-04-30T10:10:05.73Z</time></trkpt><trkpt lat="40.8436167" lon="9.1029426"><ele>687.0</ele><time>2026-04-30T10:10:06.731Z</time></trkpt><trkpt lat="40.8433672" lon="9.1029901"><ele>688.0</ele><time>2026-04-30T10:10:07.731Z</time></trkpt><trkpt lat="40.8431009" lon="9.1030372"><ele>689.0</ele><time>2026-04-30T10:10:08.73Z</time></trkpt><trkpt lat="40.8428494" lon="9.1030765"><ele>683.0</ele><time>2026-04-30T10:10:09.729Z</time></trkpt><trkpt lat="40.8426088" lon="9.1031154"><ele>677.0</ele><time>2026-04-30T10:10:10.73Z</time></trkpt><trkpt lat="40.8423881" lon="9.1031568"><ele>677.0</ele><time>2026-04-30T10:10:11.729Z</time></trkpt><trkpt lat="40.8421802" lon="9.1031945"><ele>677.0</ele><time>2026-04-30T10:10:12.73Z</time></trkpt><trkpt lat="40.8419824" lon="9.1032269"><ele>677.0</ele><time>2026-04-30T10:10:13.732Z</time></trkpt><trkpt lat="40.8417951" lon="9.1032614"><ele>675.6666666666666</ele><time>2026-04-30T10:10:14.731Z</time></trkpt><trkpt lat="40.8416227" lon="9.1032953"><ele>674.3333333333334</ele><time>2026-04-30T10:10:15.73Z</time></trkpt><trkpt lat="40.8414721" lon="9.1033217"><ele>673.0</ele><time>2026-04-30T10:10:16.729Z</time></trkpt><trkpt lat="40.8413355" lon="9.1033337"><ele>673.0</ele><time>2026-04-30T10:10:17.731Z</time></trkpt><trkpt lat="40.8412151" lon="9.1033042"><ele>673.0</ele><time>2026-04-30T10:10:18.731Z</time></trkpt><trkpt lat="40.8411148" lon="9.103221"><ele>673.0</ele><time>2026-04-30T10:10:19.731Z</time></trkpt><trkpt lat="40.8410203" lon="9.1030849"><ele>673.0</ele><time>2026-04-30T10:10:20.729Z</time></trkpt><trkpt lat="40.8409164" lon="9.1029046"><ele>666.6666666666667</ele><time>2026-04-30T10:10:21.738Z</time></trkpt><trkpt lat="40.8407901" lon="9.1027158"><ele>660.3333333333334</ele><time>2026-04-30T10:10:22.729Z</time></trkpt><trkpt lat="40.8406515" lon="9.1025553"><ele>654.0</ele><time>2026-04-30T10:10:23.731Z</time></trkpt><trkpt lat="40.840497" lon="9.1023981"><ele>648.3333333333334</ele><time>2026-04-30T10:10:24.733Z</time></trkpt><trkpt lat="40.8403556" lon="9.1022541"><ele>642.6666666666667</ele><time>2026-04-30T10:10:25.732Z</time></trkpt><trkpt lat="40.8402391" lon="9.1021112"><ele>637.0</ele><time>2026-04-30T10:10:26.735Z</time></trkpt><trkpt lat="40.8401481" lon="9.1019538"><ele>636.5</ele><time>2026-04-30T10:10:27.733Z</time></trkpt><trkpt lat="40.840084" lon="9.1017867"><ele>636.0</ele><time>2026-04-30T10:10:28.733Z</time></trkpt><trkpt lat="40.8400207" lon="9.1016291"><ele>635.5</ele><time>2026-04-30T10:10:29.732Z</time></trkpt><trkpt lat="40.8399323" lon="9.1014896"><ele>635.0</ele><time>2026-04-30T10:10:30.732Z</time></trkpt><trkpt lat="40.839816" lon="9.1013922"><ele>635.0</ele><time>2026-04-30T10:10:31.73Z</time></trkpt><trkpt lat="40.8396783" lon="9.1013527"><ele>635.0</ele><time>2026-04-30T10:10:32.733Z</time></trkpt><trkpt lat="40.8395312" lon="9.1013477"><ele>635.0</ele><time>2026-04-30T10:10:33.737Z</time></trkpt><trkpt lat="40.8393953" lon="9.1013125"><ele>635.0</ele><time>2026-04-30T10:10:34.73Z</time></trkpt><trkpt lat="40.8392697" lon="9.1012305"><ele>632.0</ele><time>2026-04-30T10:10:35.735Z</time></trkpt><trkpt lat="40.8391619" lon="9.1011036"><ele>629.0</ele><time>2026-04-30T10:10:36.731Z</time></trkpt><trkpt lat="40.8390613" lon="9.1009274"><ele>626.0</ele><time>2026-04-30T10:10:37.733Z</time></trkpt><trkpt lat="40.8389435" lon="9.1007272"><ele>626.0</ele><time>2026-04-30T10:10:38.731Z</time></trkpt><trkpt lat="40.8388271" lon="9.1005556"><ele>626.0</ele><time>2026-04-30T10:10:39.734Z</time></trkpt><trkpt lat="40.8387054" lon="9.1004062"><ele>626.0</ele><time>2026-04-30T10:10:40.733Z</time></trkpt><trkpt lat="40.8385768" lon="9.1002907"><ele>632.3333333333333</ele><time>2026-04-30T10:10:41.731Z</time></trkpt><trkpt lat="40.8384348" lon="9.1002042"><ele>638.6666666666666</ele><time>2026-04-30T10:10:42.736Z</time></trkpt><trkpt lat="40.8382752" lon="9.1001668"><ele>645.0</ele><time>2026-04-30T10:10:43.732Z</time></trkpt><trkpt lat="40.838106" lon="9.1001505"><ele>645.0</ele><time>2026-04-30T10:10:44.731Z</time></trkpt><trkpt lat="40.8379496" lon="9.1001196"><ele>645.0</ele><time>2026-04-30T10:10:45.731Z</time></trkpt><trkpt lat="40.837798" lon="9.1000504"><ele>645.0</ele><time>2026-04-30T10:10:46.73Z</time></trkpt><trkpt lat="40.8376467" lon="9.0999362"><ele>639.3333333333334</ele><time>2026-04-30T10:10:47.729Z</time></trkpt><trkpt lat="40.8374774" lon="9.0997901"><ele>633.6666666666667</ele><time>2026-04-30T10:10:48.728Z</time></trkpt><trkpt lat="40.8373071" lon="9.0996413"><ele>628.0</ele><time>2026-04-30T10:10:49.729Z</time></trkpt><trkpt lat="40.837148" lon="9.0994996"><ele>628.0</ele><time>2026-04-30T10:10:50.729Z</time></trkpt><trkpt lat="40.8369981" lon="9.0993473"><ele>628.0</ele><time>2026-04-30T10:10:51.733Z</time></trkpt><trkpt lat="40.8368698" lon="9.0991849"><ele>628.0</ele><time>2026-04-30T10:10:52.732Z</time></trkpt><trkpt lat="40.8367564" lon="9.0990054"><ele>626.0</ele><time>2026-04-30T10:10:53.737Z</time></trkpt><trkpt lat="40.8366484" lon="9.0988497"><ele>624.0</ele><time>2026-04-30T10:10:54.728Z</time></trkpt><trkpt lat="40.8365184" lon="9.098745"><ele>622.0</ele><time>2026-04-30T10:10:55.73Z</time></trkpt><trkpt lat="40.836366" lon="9.0986801"><ele>622.0</ele><time>2026-04-30T10:10:56.73Z</time></trkpt><trkpt lat="40.8362048" lon="9.0986468"><ele>622.0</ele><time>2026-04-30T10:10:57.733Z</time></trkpt><trkpt lat="40.8360171" lon="9.0986608"><ele>622.0</ele><time>2026-04-30T10:10:58.728Z</time></trkpt><trkpt lat="40.8358237" lon="9.0986566"><ele>624.6666666666667</ele><time>2026-04-30T10:10:59.73Z</time></trkpt><trkpt lat="40.8356298" lon="9.0986217"><ele>627.3333333333334</ele><time>2026-04-30T10:11:00.729Z</time></trkpt><trkpt lat="40.8354289" lon="9.0985587"><ele>630.0</ele><time>2026-04-30T10:11:01.728Z</time></trkpt><trkpt lat="40.8352322" lon="9.0984906"><ele>632.3333333333334</ele><time>2026-04-30T10:11:02.728Z</time></trkpt><trkpt lat="40.8350578" lon="9.0984371"><ele>634.6666666666667</ele><time>2026-04-30T10:11:03.73Z</time></trkpt><trkpt lat="40.8349111" lon="9.0983844"><ele>637.0</ele><time>2026-04-30T10:11:04.732Z</time></trkpt><trkpt lat="40.8347758" lon="9.0983353"><ele>637.0</ele><time>2026-04-30T10:11:05.729Z</time></trkpt><trkpt lat="40.8346502" lon="9.0983"><ele>637.0</ele><time>2026-04-30T10:11:06.728Z</time></trkpt><trkpt lat="40.8345273" lon="9.0983046"><ele>637.0</ele><time>2026-04-30T10:11:07.729Z</time></trkpt><trkpt lat="40.8344106" lon="9.0983486"><ele>637.0</ele><time>2026-04-30T10:11:08.727Z</time></trkpt><trkpt lat="40.8343068" lon="9.0984437"><ele>636.75</ele><time>2026-04-30T10:11:09.731Z</time></trkpt><trkpt lat="40.8342069" lon="9.0985651"><ele>636.5</ele><time>2026-04-30T10:11:10.73Z</time></trkpt><trkpt lat="40.8341128" lon="9.0986777"><ele>636.25</ele><time>2026-04-30T10:11:11.73Z</time></trkpt><trkpt lat="40.8340242" lon="9.0987685"><ele>636.0</ele><time>2026-04-30T10:11:12.727Z</time></trkpt><trkpt lat="40.8339466" lon="9.0988163"><ele>636.0</ele><time>2026-04-30T10:11:13.729Z</time></trkpt><trkpt lat="40.8338663" lon="9.0988199"><ele>636.0</ele><time>2026-04-30T10:11:14.729Z</time></trkpt><trkpt lat="40.8337917" lon="9.098779"><ele>636.0</ele><time>2026-04-30T10:11:15.73Z</time></trkpt><trkpt lat="40.8337378" lon="9.0986951"><ele>636.0</ele><time>2026-04-30T10:11:16.73Z</time></trkpt><trkpt lat="40.833701" lon="9.0985795"><ele>636.0</ele><time>2026-04-30T10:11:17.732Z</time></trkpt><trkpt lat="40.8336713" lon="9.0984261"><ele>629.0</ele><time>2026-04-30T10:11:18.731Z</time></trkpt><trkpt lat="40.8336319" lon="9.0982378"><ele>622.0</ele><time>2026-04-30T10:11:19.729Z</time></trkpt><trkpt lat="40.8335842" lon="9.0980211"><ele>615.0</ele><time>2026-04-30T10:11:20.731Z</time></trkpt><trkpt lat="40.8335223" lon="9.0977785"><ele>617.6666666666666</ele><time>2026-04-30T10:11:21.731Z</time></trkpt><trkpt lat="40.8334501" lon="9.0975459"><ele>620.3333333333333</ele><time>2026-04-30T10:11:22.73Z</time></trkpt><trkpt lat="40.8333552" lon="9.0973348"><ele>623.0</ele><time>2026-04-30T10:11:23.731Z</time></trkpt><trkpt lat="40.8332378" lon="9.0971402"><ele>623.0</ele><time>2026-04-30T10:11:24.73Z</time></trkpt><trkpt lat="40.833125" lon="9.0969504"><ele>623.0</ele><time>2026-04-30T10:11:25.729Z</time></trkpt><trkpt lat="40.8330316" lon="9.0967576"><ele>623.0</ele><time>2026-04-30T10:11:26.729Z</time></trkpt><trkpt lat="40.8329644" lon="9.0965414"><ele>621.6666666666666</ele><time>2026-04-30T10:11:27.73Z</time></trkpt><trkpt lat="40.8329134" lon="9.0963003"><ele>620.3333333333334</ele><time>2026-04-30T10:11:28.728Z</time></trkpt><trkpt lat="40.8328706" lon="9.0960649"><ele>619.0</ele><time>2026-04-30T10:11:29.729Z</time></trkpt><trkpt lat="40.8328004" lon="9.0958403"><ele>617.6666666666667</ele><time>2026-04-30T10:11:30.73Z</time></trkpt><trkpt lat="40.8327008" lon="9.0956181"><ele>616.3333333333334</ele><time>2026-04-30T10:11:31.731Z</time></trkpt><trkpt lat="40.8325811" lon="9.0954016"><ele>615.0</ele><time>2026-04-30T10:11:32.729Z</time></trkpt><trkpt lat="40.8324459" lon="9.09518"><ele>615.0</ele><time>2026-04-30T10:11:33.73Z</time></trkpt><trkpt lat="40.8322987" lon="9.0949596"><ele>615.0</ele><time>2026-04-30T10:11:34.731Z</time></trkpt><trkpt lat="40.8321403" lon="9.094753"><ele>615.0</ele><time>2026-04-30T10:11:35.731Z</time></trkpt><trkpt lat="40.8319691" lon="9.0945747"><ele>613.5</ele><time>2026-04-30T10:11:36.728Z</time></trkpt><trkpt lat="40.831779" lon="9.0944168"><ele>612.0</ele><time>2026-04-30T10:11:37.73Z</time></trkpt><trkpt lat="40.8315802" lon="9.0942744"><ele>612.0</ele><time>2026-04-30T10:11:38.73Z</time></trkpt><trkpt lat="40.8313762" lon="9.0941372"><ele>612.0</ele><time>2026-04-30T10:11:39.731Z</time></trkpt><trkpt lat="40.8311804" lon="9.0939928"><ele>608.0</ele><time>2026-04-30T10:11:40.729Z</time></trkpt><trkpt lat="40.8309931" lon="9.0938306"><ele>604.0</ele><time>2026-04-30T10:11:41.73Z</time></trkpt><trkpt lat="40.8308116" lon="9.093647"><ele>604.0</ele><time>2026-04-30T10:11:42.731Z</time></trkpt><trkpt lat="40.8306422" lon="9.0934485"><ele>604.0</ele><time>2026-04-30T10:11:43.731Z</time></trkpt><trkpt lat="40.8304784" lon="9.0932501"><ele>604.0</ele><time>2026-04-30T10:11:44.729Z</time></trkpt><trkpt lat="40.8303069" lon="9.0930644"><ele>601.6666666666667</ele><time>2026-04-30T10:11:45.73Z</time></trkpt><trkpt lat="40.830134" lon="9.092901"><ele>599.3333333333334</ele><time>2026-04-30T10:11:46.728Z</time></trkpt><trkpt lat="40.8299797" lon="9.0927682"><ele>597.0</ele><time>2026-04-30T10:11:47.729Z</time></trkpt><trkpt lat="40.8298386" lon="9.092656"><ele>597.0</ele><time>2026-04-30T10:11:48.731Z</time></trkpt><trkpt lat="40.8296944" lon="9.092577"><ele>597.0</ele><time>2026-04-30T10:11:49.731Z</time></trkpt><trkpt lat="40.82954" lon="9.0925353"><ele>597.0</ele><time>2026-04-30T10:11:50.73Z</time></trkpt><trkpt lat="40.8293718" lon="9.0925411"><ele>598.0</ele><time>2026-04-30T10:11:51.73Z</time></trkpt><trkpt lat="40.8291898" lon="9.092574"><ele>599.0</ele><time>2026-04-30T10:11:52.728Z</time></trkpt><trkpt lat="40.8289896" lon="9.0926198"><ele>600.0</ele><time>2026-04-30T10:11:53.728Z</time></trkpt><trkpt lat="40.8287783" lon="9.0926719"><ele>600.0</ele><time>2026-04-30T10:11:54.73Z</time></trkpt><trkpt lat="40.8285788" lon="9.0927188"><ele>600.0</ele><time>2026-04-30T10:11:55.731Z</time></trkpt><trkpt lat="40.8283946" lon="9.0927652"><ele>600.0</ele><time>2026-04-30T10:11:56.729Z</time></trkpt><trkpt lat="40.8282305" lon="9.0928039"><ele>596.3333333333334</ele><time>2026-04-30T10:11:57.729Z</time></trkpt><trkpt lat="40.8280713" lon="9.0928325"><ele>592.6666666666667</ele><time>2026-04-30T10:11:58.732Z</time></trkpt><trkpt lat="40.827915" lon="9.0928347"><ele>589.0</ele><time>2026-04-30T10:11:59.73Z</time></trkpt><trkpt lat="40.8277518" lon="9.0928045"><ele>589.6666666666667</ele><time>2026-04-30T10:12:00.731Z</time></trkpt><trkpt lat="40.8275863" lon="9.0927321"><ele>590.3333333333334</ele><time>2026-04-30T10:12:01.73Z</time></trkpt><trkpt lat="40.8274184" lon="9.0926331"><ele>591.0</ele><time>2026-04-30T10:12:02.729Z</time></trkpt><trkpt lat="40.8272644" lon="9.0925326"><ele>591.0</ele><time>2026-04-30T10:12:03.728Z</time></trkpt><trkpt lat="40.8271313" lon="9.0924498"><ele>591.0</ele><time>2026-04-30T10:12:04.729Z</time></trkpt><trkpt lat="40.8270026" lon="9.092423"><ele>591.0</ele><time>2026-04-30T10:12:05.729Z</time></trkpt><trkpt lat="40.8268698" lon="9.0924545"><ele>591.0</ele><time>2026-04-30T10:12:06.729Z</time></trkpt><trkpt lat="40.8267344" lon="9.0925097"><ele>591.5</ele><time>2026-04-30T10:12:07.729Z</time></trkpt><trkpt lat="40.8265894" lon="9.0925217"><ele>592.0</ele><time>2026-04-30T10:12:08.731Z</time></trkpt><trkpt lat="40.8264446" lon="9.0925064"><ele>592.5</ele><time>2026-04-30T10:12:09.729Z</time></trkpt><trkpt lat="40.8263153" lon="9.0924738"><ele>593.0</ele><time>2026-04-30T10:12:10.729Z</time></trkpt><trkpt lat="40.8262051" lon="9.0924007"><ele>590.25</ele><time>2026-04-30T10:12:11.728Z</time></trkpt><trkpt lat="40.8261138" lon="9.0922884"><ele>587.5</ele><time>2026-04-30T10:12:12.729Z</time></trkpt><trkpt lat="40.826032" lon="9.0921294"><ele>584.75</ele><time>2026-04-30T10:12:13.729Z</time></trkpt><trkpt lat="40.8259484" lon="9.0919607"><ele>582.0</ele><time>2026-04-30T10:12:14.729Z</time></trkpt><trkpt lat="40.8258497" lon="9.0918062"><ele>582.0</ele><time>2026-04-30T10:12:15.729Z</time></trkpt><trkpt lat="40.8257512" lon="9.0916504"><ele>582.0</ele><time>2026-04-30T10:12:16.73Z</time></trkpt><trkpt lat="40.8255887" lon="9.0916184"><ele>582.0</ele><time>2026-04-30T10:12:17.727Z</time></trkpt><trkpt lat="40.8254564" lon="9.0915265"><ele>581.25</ele><time>2026-04-30T10:12:18.731Z</time></trkpt><trkpt lat="40.825302" lon="9.0915761"><ele>580.5</ele><time>2026-04-30T10:12:19.729Z</time></trkpt><trkpt lat="40.8251982" lon="9.0914853"><ele>579.75</ele><time>2026-04-30T10:12:20.73Z</time></trkpt><trkpt lat="40.8251143" lon="9.0913621"><ele>579.0</ele><time>2026-04-30T10:12:21.727Z</time></trkpt><trkpt lat="40.8250419" lon="9.0911978"><ele>579.0</ele><time>2026-04-30T10:12:22.729Z</time></trkpt><trkpt lat="40.8249709" lon="9.0909984"><ele>579.0</ele><time>2026-04-30T10:12:23.73Z</time></trkpt><trkpt lat="40.8248938" lon="9.0908089"><ele>579.0</ele><time>2026-04-30T10:12:24.732Z</time></trkpt><trkpt lat="40.8247917" lon="9.0906312"><ele>576.5</ele><time>2026-04-30T10:12:25.729Z</time></trkpt><trkpt lat="40.8246891" lon="9.0904629"><ele>574.0</ele><time>2026-04-30T10:12:26.729Z</time></trkpt><trkpt lat="40.8245568" lon="9.0903867"><ele>571.5</ele><time>2026-04-30T10:12:27.73Z</time></trkpt><trkpt lat="40.8244474" lon="9.0903259"><ele>569.0</ele><time>2026-04-30T10:12:28.728Z</time></trkpt><trkpt lat="40.8243334" lon="9.0903185"><ele>571.3333333333333</ele><time>2026-04-30T10:12:29.73Z</time></trkpt><trkpt lat="40.8242143" lon="9.090376"><ele>573.6666666666666</ele><time>2026-04-30T10:12:30.73Z</time></trkpt><trkpt lat="40.8240791" lon="9.0904627"><ele>576.0</ele><time>2026-04-30T10:12:31.73Z</time></trkpt><trkpt lat="40.8239273" lon="9.090574"><ele>576.0</ele><time>2026-04-30T10:12:32.731Z</time></trkpt><trkpt lat="40.823785" lon="9.0906834"><ele>576.0</ele><time>2026-04-30T10:12:33.732Z</time></trkpt><trkpt lat="40.8236626" lon="9.0907831"><ele>576.0</ele><time>2026-04-30T10:12:34.732Z</time></trkpt><trkpt lat="40.8235647" lon="9.0908922"><ele>576.0</ele><time>2026-04-30T10:12:35.728Z</time></trkpt><trkpt lat="40.8234925" lon="9.0910283"><ele>574.75</ele><time>2026-04-30T10:12:36.729Z</time></trkpt><trkpt lat="40.8234504" lon="9.0911929"><ele>573.5</ele><time>2026-04-30T10:12:37.73Z</time></trkpt><trkpt lat="40.8234353" lon="9.0913533"><ele>572.25</ele><time>2026-04-30T10:12:38.733Z</time></trkpt><trkpt lat="40.8234267" lon="9.091503"><ele>571.0</ele><time>2026-04-30T10:12:39.733Z</time></trkpt><trkpt lat="40.8233958" lon="9.0916274"><ele>571.0</ele><time>2026-04-30T10:12:40.732Z</time></trkpt><trkpt lat="40.8233341" lon="9.0917098"><ele>571.0</ele><time>2026-04-30T10:12:41.731Z</time></trkpt><trkpt lat="40.8232475" lon="9.0917409"><ele>571.0</ele><time>2026-04-30T10:12:42.729Z</time></trkpt><trkpt lat="40.8231595" lon="9.0917222"><ele>571.0</ele><time>2026-04-30T10:12:43.733Z</time></trkpt><trkpt lat="40.8230918" lon="9.0916465"><ele>571.0</ele><time>2026-04-30T10:12:44.731Z</time></trkpt><trkpt lat="40.8230382" lon="9.0915227"><ele>571.0</ele><time>2026-04-30T10:12:45.73Z</time></trkpt><trkpt lat="40.8229961" lon="9.0913617"><ele>571.0</ele><time>2026-04-30T10:12:46.732Z</time></trkpt><trkpt lat="40.8229325" lon="9.0911856"><ele>571.0</ele><time>2026-04-30T10:12:47.733Z</time></trkpt><trkpt lat="40.8228451" lon="9.091005"><ele>571.0</ele><time>2026-04-30T10:12:48.729Z</time></trkpt><trkpt lat="40.8227345" lon="9.0908151"><ele>567.75</ele><time>2026-04-30T10:12:49.734Z</time></trkpt><trkpt lat="40.8226276" lon="9.0906439"><ele>564.5</ele><time>2026-04-30T10:12:50.733Z</time></trkpt><trkpt lat="40.82253" lon="9.0905062"><ele>561.25</ele><time>2026-04-30T10:12:51.732Z</time></trkpt><trkpt lat="40.8224274" lon="9.0904073"><ele>558.0</ele><time>2026-04-30T10:12:52.732Z</time></trkpt><trkpt lat="40.822309" lon="9.0903656"><ele>558.0</ele><time>2026-04-30T10:12:53.732Z</time></trkpt><trkpt lat="40.8221812" lon="9.0903699"><ele>558.0</ele><time>2026-04-30T10:12:54.729Z</time></trkpt><trkpt lat="40.8220621" lon="9.0903824"><ele>558.0</ele><time>2026-04-30T10:12:55.73Z</time></trkpt><trkpt lat="40.8219772" lon="9.0903321"><ele>558.0</ele><time>2026-04-30T10:12:56.731Z</time></trkpt><trkpt lat="40.8219185" lon="9.0902447"><ele>558.0</ele><time>2026-04-30T10:12:57.73Z</time></trkpt><trkpt lat="40.8218943" lon="9.0901305"><ele>558.0</ele><time>2026-04-30T10:12:58.731Z</time></trkpt><trkpt lat="40.8219066" lon="9.0899912"><ele>558.0</ele><time>2026-04-30T10:12:59.732Z</time></trkpt><trkpt lat="40.8219424" lon="9.089816"><ele>558.0</ele><time>2026-04-30T10:13:00.733Z</time></trkpt><trkpt lat="40.8220022" lon="9.0895961"><ele>558.0</ele><time>2026-04-30T10:13:01.732Z</time></trkpt><trkpt lat="40.8220738" lon="9.0893982"><ele>557.0</ele><time>2026-04-30T10:13:02.733Z</time></trkpt><trkpt lat="40.8221694" lon="9.0892288"><ele>556.0</ele><time>2026-04-30T10:13:03.732Z</time></trkpt><trkpt lat="40.8222695" lon="9.0890845"><ele>555.0</ele><time>2026-04-30T10:13:04.733Z</time></trkpt><trkpt lat="40.8223425" lon="9.0889408"><ele>554.0</ele><time>2026-04-30T10:13:05.731Z</time></trkpt><trkpt lat="40.8223818" lon="9.0887703"><ele>553.3333333333333</ele><time>2026-04-30T10:13:06.733Z</time></trkpt><trkpt lat="40.8223854" lon="9.0885872"><ele>552.6666666666666</ele><time>2026-04-30T10:13:07.728Z</time></trkpt><trkpt lat="40.8223426" lon="9.0883774"><ele>552.0</ele><time>2026-04-30T10:13:08.733Z</time></trkpt><trkpt lat="40.822294" lon="9.0881461"><ele>547.6666666666666</ele><time>2026-04-30T10:13:09.731Z</time></trkpt><trkpt lat="40.8222449" lon="9.0878854"><ele>543.3333333333333</ele><time>2026-04-30T10:13:10.731Z</time></trkpt><trkpt lat="40.8221916" lon="9.0876482"><ele>539.0</ele><time>2026-04-30T10:13:11.729Z</time></trkpt><trkpt lat="40.8221185" lon="9.0874283"><ele>534.0</ele><time>2026-04-30T10:13:12.738Z</time></trkpt><trkpt lat="40.8220463" lon="9.0872318"><ele>529.0</ele><time>2026-04-30T10:13:13.731Z</time></trkpt><trkpt lat="40.8219677" lon="9.0870638"><ele>524.0</ele><time>2026-04-30T10:13:14.73Z</time></trkpt><trkpt lat="40.8218747" lon="9.0869224"><ele>532.0</ele><time>2026-04-30T10:13:15.732Z</time></trkpt><trkpt lat="40.8217539" lon="9.0868038"><ele>540.0</ele><time>2026-04-30T10:13:16.728Z</time></trkpt><trkpt lat="40.821612" lon="9.086706"><ele>548.0</ele><time>2026-04-30T10:13:17.735Z</time></trkpt><trkpt lat="40.8214465" lon="9.0866143"><ele>545.0</ele><time>2026-04-30T10:13:18.729Z</time></trkpt><trkpt lat="40.821267" lon="9.0865106"><ele>542.0</ele><time>2026-04-30T10:13:19.729Z</time></trkpt><trkpt lat="40.8210956" lon="9.0864075"><ele>539.0</ele><time>2026-04-30T10:13:20.73Z</time></trkpt><trkpt lat="40.8209423" lon="9.0862942"><ele>539.0</ele><time>2026-04-30T10:13:21.73Z</time></trkpt><trkpt lat="40.8208148" lon="9.0861502"><ele>539.0</ele><time>2026-04-30T10:13:22.729Z</time></trkpt><trkpt lat="40.8207041" lon="9.085985"><ele>539.0</ele><time>2026-04-30T10:13:23.73Z</time></trkpt><trkpt lat="40.820616" lon="9.0858141"><ele>535.0</ele><time>2026-04-30T10:13:24.734Z</time></trkpt><trkpt lat="40.8205269" lon="9.0856688"><ele>531.0</ele><time>2026-04-30T10:13:25.73Z</time></trkpt><trkpt lat="40.8204078" lon="9.0855588"><ele>527.0</ele><time>2026-04-30T10:13:26.732Z</time></trkpt><trkpt lat="40.8202615" lon="9.0854993"><ele>523.0</ele><time>2026-04-30T10:13:27.731Z</time></trkpt><trkpt lat="40.8201009" lon="9.0854833"><ele>523.0</ele><time>2026-04-30T10:13:28.731Z</time></trkpt><trkpt lat="40.8199366" lon="9.0854995"><ele>523.0</ele><time>2026-04-30T10:13:29.73Z</time></trkpt><trkpt lat="40.8197688" lon="9.0855537"><ele>523.0</ele><time>2026-04-30T10:13:30.73Z</time></trkpt><trkpt lat="40.8196181" lon="9.0856272"><ele>523.0</ele><time>2026-04-30T10:13:31.729Z</time></trkpt><trkpt lat="40.8194829" lon="9.085703"><ele>523.0</ele><time>2026-04-30T10:13:32.734Z</time></trkpt><trkpt lat="40.8193675" lon="9.0857732"><ele>523.0</ele><time>2026-04-30T10:13:33.728Z</time></trkpt><trkpt lat="40.8192604" lon="9.0858195"><ele>523.0</ele><time>2026-04-30T10:13:34.731Z</time></trkpt><trkpt lat="40.8191556" lon="9.0858072"><ele>525.6</ele><time>2026-04-30T10:13:35.729Z</time></trkpt><trkpt lat="40.8190669" lon="9.0857431"><ele>528.1999999999999</ele><time>2026-04-30T10:13:36.729Z</time></trkpt><trkpt lat="40.8190134" lon="9.0856464"><ele>530.8</ele><time>2026-04-30T10:13:37.729Z</time></trkpt><trkpt lat="40.8190003" lon="9.0855287"><ele>533.4</ele><time>2026-04-30T10:13:38.729Z</time></trkpt><trkpt lat="40.8190133" lon="9.0853969"><ele>536.0</ele><time>2026-04-30T10:13:39.731Z</time></trkpt><trkpt lat="40.819035" lon="9.0852415"><ele>536.0</ele><time>2026-04-30T10:13:40.732Z</time></trkpt><trkpt lat="40.8190487" lon="9.0850568"><ele>536.0</ele><time>2026-04-30T10:13:41.73Z</time></trkpt><trkpt lat="40.819053" lon="9.0848487"><ele>536.0</ele><time>2026-04-30T10:13:42.73Z</time></trkpt><trkpt lat="40.8190307" lon="9.0846454"><ele>533.0</ele><time>2026-04-30T10:13:43.729Z</time></trkpt><trkpt lat="40.8189792" lon="9.0844467"><ele>530.0</ele><time>2026-04-30T10:13:44.735Z</time></trkpt><trkpt lat="40.8188971" lon="9.0842441"><ele>527.0</ele><time>2026-04-30T10:13:45.731Z</time></trkpt><trkpt lat="40.8187924" lon="9.084037"><ele>528.3333333333333</ele><time>2026-04-30T10:13:46.732Z</time></trkpt><trkpt lat="40.8186805" lon="9.0838415"><ele>529.6666666666666</ele><time>2026-04-30T10:13:47.731Z</time></trkpt><trkpt lat="40.818558" lon="9.0836606"><ele>531.0</ele><time>2026-04-30T10:13:48.73Z</time></trkpt><trkpt lat="40.8184245" lon="9.0834918"><ele>531.0</ele><time>2026-04-30T10:13:49.733Z</time></trkpt><trkpt lat="40.818291" lon="9.0833417"><ele>531.0</ele><time>2026-04-30T10:13:50.73Z</time></trkpt><trkpt lat="40.818152" lon="9.0832239"><ele>531.0</ele><time>2026-04-30T10:13:51.731Z</time></trkpt><trkpt lat="40.8180066" lon="9.0831433"><ele>528.75</ele><time>2026-04-30T10:13:52.736Z</time></trkpt><trkpt lat="40.8178637" lon="9.0830919"><ele>526.5</ele><time>2026-04-30T10:13:53.732Z</time></trkpt><trkpt lat="40.8177279" lon="9.0830507"><ele>524.25</ele><time>2026-04-30T10:13:54.735Z</time></trkpt><trkpt lat="40.817614" lon="9.0829943"><ele>522.0</ele><time>2026-04-30T10:13:55.73Z</time></trkpt><trkpt lat="40.8175188" lon="9.08289"><ele>522.0</ele><time>2026-04-30T10:13:56.73Z</time></trkpt><trkpt lat="40.817438" lon="9.0827498"><ele>522.0</ele><time>2026-04-30T10:13:57.732Z</time></trkpt><trkpt lat="40.8173765" lon="9.0825848"><ele>522.0</ele><time>2026-04-30T10:13:58.729Z</time></trkpt><trkpt lat="40.8173005" lon="9.0824051"><ele>522.0</ele><time>2026-04-30T10:13:59.734Z</time></trkpt><trkpt lat="40.8172036" lon="9.0822194"><ele>516.3333333333334</ele><time>2026-04-30T10:14:00.731Z</time></trkpt><trkpt lat="40.8170971" lon="9.082029"><ele>510.6666666666667</ele><time>2026-04-30T10:14:01.728Z</time></trkpt><trkpt lat="40.816995" lon="9.0818312"><ele>505.0</ele><time>2026-04-30T10:14:02.729Z</time></trkpt><trkpt lat="40.8169115" lon="9.0816253"><ele>509.6666666666667</ele><time>2026-04-30T10:14:03.734Z</time></trkpt><trkpt lat="40.8168519" lon="9.081407"><ele>514.3333333333334</ele><time>2026-04-30T10:14:04.735Z</time></trkpt><trkpt lat="40.8168155" lon="9.0811917"><ele>519.0</ele><time>2026-04-30T10:14:05.734Z</time></trkpt><trkpt lat="40.8167724" lon="9.0809946"><ele>519.0</ele><time>2026-04-30T10:14:06.731Z</time></trkpt><trkpt lat="40.8166979" lon="9.0808051"><ele>519.0</ele><time>2026-04-30T10:14:07.731Z</time></trkpt><trkpt lat="40.8165876" lon="9.0806267"><ele>519.0</ele><time>2026-04-30T10:14:08.734Z</time></trkpt><trkpt lat="40.8164742" lon="9.0804728"><ele>514.0</ele><time>2026-04-30T10:14:09.729Z</time></trkpt><trkpt lat="40.8163691" lon="9.0803535"><ele>509.0</ele><time>2026-04-30T10:14:10.732Z</time></trkpt><trkpt lat="40.8162582" lon="9.0802826"><ele>504.0</ele><time>2026-04-30T10:14:11.732Z</time></trkpt><trkpt lat="40.8161397" lon="9.080269"><ele>499.0</ele><time>2026-04-30T10:14:12.73Z</time></trkpt><trkpt lat="40.8160139" lon="9.08031"><ele>499.6666666666667</ele><time>2026-04-30T10:14:13.73Z</time></trkpt><trkpt lat="40.8158777" lon="9.0803728"><ele>500.33333333333337</ele><time>2026-04-30T10:14:14.733Z</time></trkpt><trkpt lat="40.8157267" lon="9.0804535"><ele>501.0</ele><time>2026-04-30T10:14:15.728Z</time></trkpt><trkpt lat="40.8155862" lon="9.0805266"><ele>501.0</ele><time>2026-04-30T10:14:16.728Z</time></trkpt><trkpt lat="40.8154532" lon="9.0806053"><ele>501.0</ele><time>2026-04-30T10:14:17.732Z</time></trkpt><trkpt lat="40.8153437" lon="9.0807091"><ele>501.0</ele><time>2026-04-30T10:14:18.731Z</time></trkpt><trkpt lat="40.8152561" lon="9.0808426"><ele>501.0</ele><time>2026-04-30T10:14:19.728Z</time></trkpt><trkpt lat="40.815197" lon="9.080984"><ele>503.0</ele><time>2026-04-30T10:14:20.729Z</time></trkpt><trkpt lat="40.8151469" lon="9.0811171"><ele>505.0</ele><time>2026-04-30T10:14:21.729Z</time></trkpt><trkpt lat="40.8150828" lon="9.0812152"><ele>507.0</ele><time>2026-04-30T10:14:22.727Z</time></trkpt><trkpt lat="40.8150045" lon="9.0812603"><ele>509.0</ele><time>2026-04-30T10:14:23.73Z</time></trkpt><trkpt lat="40.8149233" lon="9.0812632"><ele>511.0</ele><time>2026-04-30T10:14:24.728Z</time></trkpt><trkpt lat="40.8148545" lon="9.0812252"><ele>511.00000000000006</ele><time>2026-04-30T10:14:25.73Z</time></trkpt><trkpt lat="40.814808" lon="9.0811628"><ele>511.0</ele><time>2026-04-30T10:14:26.73Z</time></trkpt><trkpt lat="40.8147435" lon="9.0810414"><ele>511.0</ele><time>2026-04-30T10:14:28.729Z</time></trkpt><trkpt lat="40.814693" lon="9.0809757"><ele>511.0</ele><time>2026-04-30T10:14:30.727Z</time></trkpt><trkpt lat="40.8146465" lon="9.0809102"><ele>511.00000000000006</ele><time>2026-04-30T10:14:33.73Z</time></trkpt><trkpt lat="40.8145746" lon="9.0809317"><ele>511.0</ele><time>2026-04-30T10:21:12.731Z</time></trkpt><trkpt lat="40.8144877" lon="9.0809725"><ele>511.0</ele><time>2026-04-30T10:21:14.737Z</time></trkpt><trkpt lat="40.8143814" lon="9.0810328"><ele>511.0</ele><time>2026-04-30T10:21:16.73Z</time></trkpt><trkpt lat="40.8142669" lon="9.0810351"><ele>511.0</ele><time>2026-04-30T10:21:18.73Z</time></trkpt><trkpt lat="40.814167" lon="9.0809458"><ele>511.0</ele><time>2026-04-30T10:21:20.731Z</time></trkpt><trkpt lat="40.8141478" lon="9.0808611"><ele>511.0</ele><time>2026-04-30T10:21:21.728Z</time></trkpt><trkpt lat="40.814138" lon="9.0807597"><ele>513.75</ele><time>2026-04-30T10:21:22.731Z</time></trkpt><trkpt lat="40.8141497" lon="9.0806231"><ele>516.5</ele><time>2026-04-30T10:21:23.729Z</time></trkpt><trkpt lat="40.8141573" lon="9.0804787"><ele>519.25</ele><time>2026-04-30T10:21:24.729Z</time></trkpt><trkpt lat="40.814182" lon="9.0803237"><ele>522.0</ele><time>2026-04-30T10:21:25.729Z</time></trkpt><trkpt lat="40.8142158" lon="9.0801567"><ele>522.0</ele><time>2026-04-30T10:21:26.729Z</time></trkpt><trkpt lat="40.8142837" lon="9.0799995"><ele>522.0</ele><time>2026-04-30T10:21:27.729Z</time></trkpt><trkpt lat="40.8143565" lon="9.0798488"><ele>522.0</ele><time>2026-04-30T10:21:28.732Z</time></trkpt><trkpt lat="40.8144544" lon="9.0797317"><ele>522.0</ele><time>2026-04-30T10:21:29.73Z</time></trkpt><trkpt lat="40.814551" lon="9.0796222"><ele>515.25</ele><time>2026-04-30T10:21:30.727Z</time></trkpt><trkpt lat="40.8146396" lon="9.0795234"><ele>508.5</ele><time>2026-04-30T10:21:31.731Z</time></trkpt><trkpt lat="40.8147157" lon="9.0794205"><ele>501.75</ele><time>2026-04-30T10:21:32.731Z</time></trkpt><trkpt lat="40.8147677" lon="9.0792909"><ele>495.0</ele><time>2026-04-30T10:21:33.727Z</time></trkpt><trkpt lat="40.8147855" lon="9.0791352"><ele>492.25</ele><time>2026-04-30T10:21:34.728Z</time></trkpt><trkpt lat="40.8147811" lon="9.0789826"><ele>489.5</ele><time>2026-04-30T10:21:35.728Z</time></trkpt><trkpt lat="40.8147487" lon="9.0788411"><ele>486.75</ele><time>2026-04-30T10:21:36.729Z</time></trkpt><trkpt lat="40.8146875" lon="9.0787111"><ele>484.0</ele><time>2026-04-30T10:21:37.731Z</time></trkpt><trkpt lat="40.8145959" lon="9.0786168"><ele>484.0</ele><time>2026-04-30T10:21:38.73Z</time></trkpt><trkpt lat="40.8144928" lon="9.078532"><ele>484.0</ele><time>2026-04-30T10:21:39.728Z</time></trkpt><trkpt lat="40.8143513" lon="9.0785013"><ele>484.0</ele><time>2026-04-30T10:21:40.73Z</time></trkpt><trkpt lat="40.8142147" lon="9.0784517"><ele>484.0</ele><time>2026-04-30T10:21:41.729Z</time></trkpt><trkpt lat="40.814082" lon="9.0784074"><ele>482.25</ele><time>2026-04-30T10:21:42.728Z</time></trkpt><trkpt lat="40.8139518" lon="9.0783643"><ele>480.5</ele><time>2026-04-30T10:21:43.728Z</time></trkpt><trkpt lat="40.8138326" lon="9.0783083"><ele>478.75</ele><time>2026-04-30T10:21:44.729Z</time></trkpt><trkpt lat="40.8137303" lon="9.0782349"><ele>477.0</ele><time>2026-04-30T10:21:45.728Z</time></trkpt><trkpt lat="40.8136629" lon="9.0781379"><ele>477.0</ele><time>2026-04-30T10:21:46.729Z</time></trkpt><trkpt lat="40.8136128" lon="9.0780122"><ele>477.00000000000006</ele><time>2026-04-30T10:21:47.726Z</time></trkpt><trkpt lat="40.8135771" lon="9.0778745"><ele>477.00000000000006</ele><time>2026-04-30T10:21:48.728Z</time></trkpt><trkpt lat="40.8135327" lon="9.0777393"><ele>477.0</ele><time>2026-04-30T10:21:49.739Z</time></trkpt><trkpt lat="40.8134548" lon="9.077626"><ele>477.0</ele><time>2026-04-30T10:21:50.727Z</time></trkpt><trkpt lat="40.8133493" lon="9.0775514"><ele>482.5</ele><time>2026-04-30T10:21:51.729Z</time></trkpt><trkpt lat="40.813241" lon="9.0774921"><ele>488.0</ele><time>2026-04-30T10:21:52.726Z</time></trkpt><trkpt lat="40.8131103" lon="9.0774805"><ele>493.5</ele><time>2026-04-30T10:21:53.729Z</time></trkpt><trkpt lat="40.8129823" lon="9.0774611"><ele>499.0</ele><time>2026-04-30T10:21:54.729Z</time></trkpt><trkpt lat="40.8128591" lon="9.0774566"><ele>499.0</ele><time>2026-04-30T10:21:55.727Z</time></trkpt><trkpt lat="40.8127423" lon="9.0774722"><ele>499.0</ele><time>2026-04-30T10:21:56.73Z</time></trkpt><trkpt lat="40.8126321" lon="9.0775215"><ele>499.0</ele><time>2026-04-30T10:21:57.726Z</time></trkpt><trkpt lat="40.8125291" lon="9.0775539"><ele>499.0</ele><time>2026-04-30T10:21:58.727Z</time></trkpt><trkpt lat="40.8124312" lon="9.0775547"><ele>499.0</ele><time>2026-04-30T10:21:59.724Z</time></trkpt><trkpt lat="40.8123445" lon="9.0775111"><ele>500.4</ele><time>2026-04-30T10:22:00.725Z</time></trkpt><trkpt lat="40.8122707" lon="9.0774456"><ele>501.79999999999995</ele><time>2026-04-30T10:22:01.725Z</time></trkpt><trkpt lat="40.8122148" lon="9.0773483"><ele>503.20000000000005</ele><time>2026-04-30T10:22:02.726Z</time></trkpt><trkpt lat="40.8121878" lon="9.0772292"><ele>504.6</ele><time>2026-04-30T10:22:03.733Z</time></trkpt><trkpt lat="40.8121645" lon="9.0770968"><ele>506.0</ele><time>2026-04-30T10:22:04.728Z</time></trkpt><trkpt lat="40.8121422" lon="9.0769441"><ele>500.25</ele><time>2026-04-30T10:22:05.727Z</time></trkpt><trkpt lat="40.8121319" lon="9.0767814"><ele>494.5</ele><time>2026-04-30T10:22:06.73Z</time></trkpt><trkpt lat="40.8121209" lon="9.0766346"><ele>488.75</ele><time>2026-04-30T10:22:07.729Z</time></trkpt><trkpt lat="40.812105" lon="9.0764738"><ele>483.0</ele><time>2026-04-30T10:22:08.727Z</time></trkpt><trkpt lat="40.8120693" lon="9.0763157"><ele>480.25</ele><time>2026-04-30T10:22:09.731Z</time></trkpt><trkpt lat="40.8120067" lon="9.0761701"><ele>477.5</ele><time>2026-04-30T10:22:10.73Z</time></trkpt><trkpt lat="40.8119235" lon="9.07605"><ele>474.75</ele><time>2026-04-30T10:22:11.732Z</time></trkpt><trkpt lat="40.8118181" lon="9.0759514"><ele>472.0</ele><time>2026-04-30T10:22:12.731Z</time></trkpt><trkpt lat="40.8116939" lon="9.0758789"><ele>471.5</ele><time>2026-04-30T10:22:13.729Z</time></trkpt><trkpt lat="40.8115661" lon="9.0758149"><ele>471.0</ele><time>2026-04-30T10:22:14.73Z</time></trkpt><trkpt lat="40.811434" lon="9.0757398"><ele>470.5</ele><time>2026-04-30T10:22:15.732Z</time></trkpt><trkpt lat="40.8113159" lon="9.0756631"><ele>470.0</ele><time>2026-04-30T10:22:16.724Z</time></trkpt><trkpt lat="40.8112344" lon="9.0755503"><ele>470.0</ele><time>2026-04-30T10:22:17.727Z</time></trkpt><trkpt lat="40.8111797" lon="9.0754236"><ele>470.0</ele><time>2026-04-30T10:22:18.728Z</time></trkpt><trkpt lat="40.8111382" lon="9.07527"><ele>470.0</ele><time>2026-04-30T10:22:19.728Z</time></trkpt><trkpt lat="40.811092" lon="9.0751033"><ele>470.0</ele><time>2026-04-30T10:22:20.73Z</time></trkpt><trkpt lat="40.811015" lon="9.0749214"><ele>471.3333333333333</ele><time>2026-04-30T10:22:21.73Z</time></trkpt><trkpt lat="40.8109178" lon="9.0747363"><ele>472.66666666666663</ele><time>2026-04-30T10:22:22.728Z</time></trkpt><trkpt lat="40.8108019" lon="9.0745466"><ele>474.0</ele><time>2026-04-30T10:22:23.73Z</time></trkpt><trkpt lat="40.8106825" lon="9.074367"><ele>474.0</ele><time>2026-04-30T10:22:24.731Z</time></trkpt><trkpt lat="40.8105749" lon="9.0742164"><ele>474.0</ele><time>2026-04-30T10:22:25.73Z</time></trkpt><trkpt lat="40.8104559" lon="9.0740988"><ele>474.0</ele><time>2026-04-30T10:22:26.729Z</time></trkpt><trkpt lat="40.8103147" lon="9.0740291"><ele>474.5</ele><time>2026-04-30T10:22:27.732Z</time></trkpt><trkpt lat="40.8101514" lon="9.0739825"><ele>475.0</ele><time>2026-04-30T10:22:28.728Z</time></trkpt><trkpt lat="40.810003" lon="9.0739551"><ele>475.5</ele><time>2026-04-30T10:22:29.727Z</time></trkpt><trkpt lat="40.8098887" lon="9.0739217"><ele>476.0</ele><time>2026-04-30T10:22:30.729Z</time></trkpt><trkpt lat="40.8098116" lon="9.0738578"><ele>476.0</ele><time>2026-04-30T10:22:31.726Z</time></trkpt><trkpt lat="40.8097705" lon="9.0737601"><ele>476.0</ele><time>2026-04-30T10:22:32.731Z</time></trkpt><trkpt lat="40.8097579" lon="9.0736348"><ele>476.0</ele><time>2026-04-30T10:22:33.731Z</time></trkpt><trkpt lat="40.8097529" lon="9.0734729"><ele>476.0</ele><time>2026-04-30T10:22:34.731Z</time></trkpt><trkpt lat="40.8097392" lon="9.0732861"><ele>476.0</ele><time>2026-04-30T10:22:35.727Z</time></trkpt><trkpt lat="40.8097098" lon="9.073084"><ele>473.0</ele><time>2026-04-30T10:22:36.732Z</time></trkpt><trkpt lat="40.8096624" lon="9.0728559"><ele>470.0</ele><time>2026-04-30T10:22:37.731Z</time></trkpt><trkpt lat="40.8096225" lon="9.0726373"><ele>467.0</ele><time>2026-04-30T10:22:38.728Z</time></trkpt><trkpt lat="40.8095465" lon="9.0724738"><ele>467.25</ele><time>2026-04-30T10:22:39.728Z</time></trkpt><trkpt lat="40.8094408" lon="9.0723365"><ele>467.5</ele><time>2026-04-30T10:22:40.73Z</time></trkpt><trkpt lat="40.8093141" lon="9.0722427"><ele>467.75</ele><time>2026-04-30T10:22:41.731Z</time></trkpt><trkpt lat="40.8091686" lon="9.0721689"><ele>468.0</ele><time>2026-04-30T10:22:42.732Z</time></trkpt><trkpt lat="40.8089983" lon="9.0721106"><ele>466.66666666666663</ele><time>2026-04-30T10:22:43.728Z</time></trkpt><trkpt lat="40.8088171" lon="9.072061"><ele>465.3333333333333</ele><time>2026-04-30T10:22:44.733Z</time></trkpt><trkpt lat="40.8086487" lon="9.0720009"><ele>464.0</ele><time>2026-04-30T10:22:45.731Z</time></trkpt><trkpt lat="40.8084988" lon="9.0719218"><ele>463.0</ele><time>2026-04-30T10:22:46.732Z</time></trkpt><trkpt lat="40.8083652" lon="9.0718285"><ele>462.0</ele><time>2026-04-30T10:22:47.731Z</time></trkpt><trkpt lat="40.8082644" lon="9.0717034"><ele>461.0</ele><time>2026-04-30T10:22:48.733Z</time></trkpt><trkpt lat="40.808189" lon="9.0715367"><ele>460.0</ele><time>2026-04-30T10:22:49.732Z</time></trkpt><trkpt lat="40.8081276" lon="9.0713282"><ele>460.0</ele><time>2026-04-30T10:22:50.735Z</time></trkpt><trkpt lat="40.8080554" lon="9.0711019"><ele>460.0</ele><time>2026-04-30T10:22:51.727Z</time></trkpt><trkpt lat="40.8079742" lon="9.0708797"><ele>460.0</ele><time>2026-04-30T10:22:52.731Z</time></trkpt><trkpt lat="40.8078855" lon="9.0706837"><ele>460.75</ele><time>2026-04-30T10:22:53.727Z</time></trkpt><trkpt lat="40.8077846" lon="9.0705269"><ele>461.5</ele><time>2026-04-30T10:22:54.726Z</time></trkpt><trkpt lat="40.8076806" lon="9.0704157"><ele>462.25</ele><time>2026-04-30T10:22:55.726Z</time></trkpt><trkpt lat="40.8075689" lon="9.0703702"><ele>463.0</ele><time>2026-04-30T10:22:56.727Z</time></trkpt><trkpt lat="40.8074433" lon="9.0703896"><ele>465.25</ele><time>2026-04-30T10:22:57.732Z</time></trkpt><trkpt lat="40.807307" lon="9.07045"><ele>467.5</ele><time>2026-04-30T10:22:58.731Z</time></trkpt><trkpt lat="40.8071625" lon="9.070532"><ele>469.75</ele><time>2026-04-30T10:22:59.725Z</time></trkpt><trkpt lat="40.8070284" lon="9.0706129"><ele>472.0</ele><time>2026-04-30T10:23:00.725Z</time></trkpt><trkpt lat="40.8069107" lon="9.0706705"><ele>468.75</ele><time>2026-04-30T10:23:01.727Z</time></trkpt><trkpt lat="40.8068052" lon="9.0707094"><ele>465.5</ele><time>2026-04-30T10:23:02.727Z</time></trkpt><trkpt lat="40.8067108" lon="9.0706394"><ele>462.25</ele><time>2026-04-30T10:23:03.725Z</time></trkpt><trkpt lat="40.8066214" lon="9.0705494"><ele>459.0</ele><time>2026-04-30T10:23:04.727Z</time></trkpt><trkpt lat="40.8065297" lon="9.0704322"><ele>459.0</ele><time>2026-04-30T10:23:05.729Z</time></trkpt><trkpt lat="40.8064206" lon="9.0702752"><ele>459.0</ele><time>2026-04-30T10:23:06.728Z</time></trkpt><trkpt lat="40.8062996" lon="9.0701148"><ele>459.0</ele><time>2026-04-30T10:23:07.729Z</time></trkpt><trkpt lat="40.806147" lon="9.0699514"><ele>456.0</ele><time>2026-04-30T10:23:08.732Z</time></trkpt><trkpt lat="40.8059783" lon="9.0697937"><ele>453.0</ele><time>2026-04-30T10:23:09.728Z</time></trkpt><trkpt lat="40.8057904" lon="9.0696308"><ele>450.0</ele><time>2026-04-30T10:23:10.728Z</time></trkpt><trkpt lat="40.8055884" lon="9.0694969"><ele>450.0</ele><time>2026-04-30T10:23:11.73Z</time></trkpt><trkpt lat="40.8053924" lon="9.0693675"><ele>450.0</ele><time>2026-04-30T10:23:12.732Z</time></trkpt><trkpt lat="40.8051968" lon="9.069265"><ele>450.0</ele><time>2026-04-30T10:23:13.728Z</time></trkpt><trkpt lat="40.8048046" lon="9.0691435"><ele>447.0</ele><time>2026-04-30T10:23:15.728Z</time></trkpt><trkpt lat="40.8046177" lon="9.0691014"><ele>444.0</ele><time>2026-04-30T10:23:16.734Z</time></trkpt><trkpt lat="40.8044388" lon="9.0690316"><ele>441.0</ele><time>2026-04-30T10:23:17.73Z</time></trkpt><trkpt lat="40.804274" lon="9.0689251"><ele>439.66666666666663</ele><time>2026-04-30T10:23:18.731Z</time></trkpt><trkpt lat="40.8041103" lon="9.0687975"><ele>438.3333333333333</ele><time>2026-04-30T10:23:19.731Z</time></trkpt><trkpt lat="40.8039606" lon="9.0686031"><ele>437.0</ele><time>2026-04-30T10:23:20.73Z</time></trkpt><trkpt lat="40.8038265" lon="9.0684137"><ele>434.3333333333333</ele><time>2026-04-30T10:23:21.729Z</time></trkpt><trkpt lat="40.8037149" lon="9.0682231"><ele>431.66666666666663</ele><time>2026-04-30T10:23:22.73Z</time></trkpt><trkpt lat="40.8035991" lon="9.0680665"><ele>429.0</ele><time>2026-04-30T10:23:23.728Z</time></trkpt><trkpt lat="40.8034784" lon="9.0679621"><ele>429.0</ele><time>2026-04-30T10:23:24.727Z</time></trkpt><trkpt lat="40.8033514" lon="9.0678913"><ele>429.0</ele><time>2026-04-30T10:23:25.728Z</time></trkpt><trkpt lat="40.8032165" lon="9.0678963"><ele>429.0</ele><time>2026-04-30T10:23:26.728Z</time></trkpt><trkpt lat="40.8030833" lon="9.0679192"><ele>429.0</ele><time>2026-04-30T10:23:27.729Z</time></trkpt><trkpt lat="40.8029974" lon="9.0681266"><ele>429.0</ele><time>2026-04-30T10:23:28.726Z</time></trkpt><trkpt lat="40.8029002" lon="9.068227"><ele>429.0</ele><time>2026-04-30T10:23:29.727Z</time></trkpt><trkpt lat="40.8027981" lon="9.0682784"><ele>429.0</ele><time>2026-04-30T10:23:30.728Z</time></trkpt><trkpt lat="40.8027033" lon="9.068267"><ele>429.0</ele><time>2026-04-30T10:23:31.73Z</time></trkpt><trkpt lat="40.8026151" lon="9.0681919"><ele>429.0</ele><time>2026-04-30T10:23:32.729Z</time></trkpt><trkpt lat="40.8025526" lon="9.0680716"><ele>434.33333333333337</ele><time>2026-04-30T10:23:33.726Z</time></trkpt><trkpt lat="40.8025265" lon="9.0679001"><ele>439.6666666666667</ele><time>2026-04-30T10:23:34.727Z</time></trkpt><trkpt lat="40.8025231" lon="9.0676988"><ele>445.0</ele><time>2026-04-30T10:23:35.727Z</time></trkpt><trkpt lat="40.802551" lon="9.067473"><ele>443.6666666666667</ele><time>2026-04-30T10:23:36.728Z</time></trkpt><trkpt lat="40.8026061" lon="9.0672632"><ele>442.33333333333337</ele><time>2026-04-30T10:23:37.726Z</time></trkpt><trkpt lat="40.8026609" lon="9.0670572"><ele>441.0</ele><time>2026-04-30T10:23:38.73Z</time></trkpt><trkpt lat="40.8027041" lon="9.0668814"><ele>436.5</ele><time>2026-04-30T10:23:39.728Z</time></trkpt><trkpt lat="40.8027038" lon="9.0666915"><ele>432.0</ele><time>2026-04-30T10:23:40.73Z</time></trkpt><trkpt lat="40.802687" lon="9.0665149"><ele>427.5</ele><time>2026-04-30T10:23:41.728Z</time></trkpt><trkpt lat="40.8025755" lon="9.0663761"><ele>423.0</ele><time>2026-04-30T10:23:42.728Z</time></trkpt><trkpt lat="40.8024726" lon="9.0662488"><ele>423.0</ele><time>2026-04-30T10:23:43.725Z</time></trkpt><trkpt lat="40.802332" lon="9.0661038"><ele>423.0</ele><time>2026-04-30T10:23:44.73Z</time></trkpt><trkpt lat="40.8021706" lon="9.06594"><ele>423.0</ele><time>2026-04-30T10:23:45.731Z</time></trkpt><trkpt lat="40.8020288" lon="9.0657847"><ele>420.75</ele><time>2026-04-30T10:23:46.727Z</time></trkpt><trkpt lat="40.8018942" lon="9.0656557"><ele>418.5</ele><time>2026-04-30T10:23:47.727Z</time></trkpt><trkpt lat="40.8017665" lon="9.0655881"><ele>416.25</ele><time>2026-04-30T10:23:48.73Z</time></trkpt><trkpt lat="40.801652" lon="9.0655748"><ele>414.0</ele><time>2026-04-30T10:23:49.729Z</time></trkpt><trkpt lat="40.8015493" lon="9.0656437"><ele>414.0</ele><time>2026-04-30T10:23:50.729Z</time></trkpt><trkpt lat="40.8014499" lon="9.0657536"><ele>414.0</ele><time>2026-04-30T10:23:51.728Z</time></trkpt><trkpt lat="40.8013357" lon="9.0659106"><ele>414.0</ele><time>2026-04-30T10:23:52.727Z</time></trkpt><trkpt lat="40.801221" lon="9.0660743"><ele>418.2</ele><time>2026-04-30T10:23:53.729Z</time></trkpt><trkpt lat="40.8011217" lon="9.0662165"><ele>422.4</ele><time>2026-04-30T10:23:54.727Z</time></trkpt><trkpt lat="40.801032" lon="9.0663168"><ele>426.6</ele><time>2026-04-30T10:23:55.727Z</time></trkpt><trkpt lat="40.8009476" lon="9.0663586"><ele>430.8</ele><time>2026-04-30T10:23:56.728Z</time></trkpt><trkpt lat="40.8008738" lon="9.0663367"><ele>435.0</ele><time>2026-04-30T10:23:57.729Z</time></trkpt><trkpt lat="40.80083" lon="9.0662664"><ele>435.25</ele><time>2026-04-30T10:23:58.729Z</time></trkpt><trkpt lat="40.800815" lon="9.0661555"><ele>435.5</ele><time>2026-04-30T10:23:59.729Z</time></trkpt><trkpt lat="40.8008171" lon="9.0660039"><ele>435.75</ele><time>2026-04-30T10:24:00.727Z</time></trkpt><trkpt lat="40.8008381" lon="9.0658084"><ele>436.0</ele><time>2026-04-30T10:24:01.728Z</time></trkpt><trkpt lat="40.8008337" lon="9.0655898"><ele>431.6666666666667</ele><time>2026-04-30T10:24:02.727Z</time></trkpt><trkpt lat="40.8007948" lon="9.0653745"><ele>427.33333333333337</ele><time>2026-04-30T10:24:03.728Z</time></trkpt><trkpt lat="40.8007236" lon="9.0651559"><ele>423.0</ele><time>2026-04-30T10:24:04.731Z</time></trkpt><trkpt lat="40.8006595" lon="9.0649155"><ele>417.66666666666663</ele><time>2026-04-30T10:24:05.728Z</time></trkpt><trkpt lat="40.8006109" lon="9.0646986"><ele>412.3333333333333</ele><time>2026-04-30T10:24:06.729Z</time></trkpt><trkpt lat="40.8005355" lon="9.0645178"><ele>407.0</ele><time>2026-04-30T10:24:07.726Z</time></trkpt><trkpt lat="40.8004189" lon="9.0643597"><ele>407.0</ele><time>2026-04-30T10:24:08.726Z</time></trkpt><trkpt lat="40.8002822" lon="9.0642113"><ele>407.0</ele><time>2026-04-30T10:24:09.727Z</time></trkpt><trkpt lat="40.8001387" lon="9.064062"><ele>407.0</ele><time>2026-04-30T10:24:10.727Z</time></trkpt><trkpt lat="40.800002" lon="9.0639296"><ele>408.25</ele><time>2026-04-30T10:24:11.73Z</time></trkpt><trkpt lat="40.7998718" lon="9.0638333"><ele>409.5</ele><time>2026-04-30T10:24:12.727Z</time></trkpt><trkpt lat="40.799731" lon="9.06379"><ele>410.75</ele><time>2026-04-30T10:24:13.726Z</time></trkpt><trkpt lat="40.7995833" lon="9.0638035"><ele>412.0</ele><time>2026-04-30T10:24:14.728Z</time></trkpt><trkpt lat="40.799423" lon="9.063843"><ele>412.33333333333337</ele><time>2026-04-30T10:24:15.729Z</time></trkpt><trkpt lat="40.7992522" lon="9.0638921"><ele>412.66666666666663</ele><time>2026-04-30T10:24:16.731Z</time></trkpt><trkpt lat="40.7990786" lon="9.0639199"><ele>413.0</ele><time>2026-04-30T10:24:17.729Z</time></trkpt><trkpt lat="40.7988962" lon="9.0639013"><ele>413.0</ele><time>2026-04-30T10:24:18.727Z</time></trkpt><trkpt lat="40.798727" lon="9.0638867"><ele>413.0</ele><time>2026-04-30T10:24:19.728Z</time></trkpt><trkpt lat="40.7985725" lon="9.0638517"><ele>413.0</ele><time>2026-04-30T10:24:20.727Z</time></trkpt><trkpt lat="40.7984484" lon="9.063765"><ele>414.0</ele><time>2026-04-30T10:24:21.73Z</time></trkpt><trkpt lat="40.7983299" lon="9.0636387"><ele>415.0</ele><time>2026-04-30T10:24:22.731Z</time></trkpt><trkpt lat="40.7982001" lon="9.0634781"><ele>416.0</ele><time>2026-04-30T10:24:23.728Z</time></trkpt><trkpt lat="40.7980579" lon="9.0633107"><ele>416.66666666666663</ele><time>2026-04-30T10:24:24.728Z</time></trkpt><trkpt lat="40.7979063" lon="9.0631298"><ele>417.33333333333337</ele><time>2026-04-30T10:24:25.728Z</time></trkpt><trkpt lat="40.7977603" lon="9.0629369"><ele>418.0</ele><time>2026-04-30T10:24:26.729Z</time></trkpt><trkpt lat="40.7976233" lon="9.062767"><ele>418.0</ele><time>2026-04-30T10:24:27.728Z</time></trkpt><trkpt lat="40.7975091" lon="9.0626227"><ele>418.0</ele><time>2026-04-30T10:24:28.728Z</time></trkpt><trkpt lat="40.7974214" lon="9.0624921"><ele>418.0</ele><time>2026-04-30T10:24:29.731Z</time></trkpt><trkpt lat="40.7973641" lon="9.0623638"><ele>418.0</ele><time>2026-04-30T10:24:30.73Z</time></trkpt><trkpt lat="40.7973444" lon="9.0622254"><ele>415.25</ele><time>2026-04-30T10:24:31.728Z</time></trkpt><trkpt lat="40.7973417" lon="9.0620791"><ele>412.5</ele><time>2026-04-30T10:24:32.73Z</time></trkpt><trkpt lat="40.7973095" lon="9.061919"><ele>409.75</ele><time>2026-04-30T10:24:33.728Z</time></trkpt><trkpt lat="40.7972455" lon="9.0617521"><ele>407.0</ele><time>2026-04-30T10:24:34.73Z</time></trkpt><trkpt lat="40.7971498" lon="9.0615692"><ele>410.66666666666663</ele><time>2026-04-30T10:24:35.724Z</time></trkpt><trkpt lat="40.7970492" lon="9.0613828"><ele>414.33333333333337</ele><time>2026-04-30T10:24:36.728Z</time></trkpt><trkpt lat="40.7969381" lon="9.0611851"><ele>418.0</ele><time>2026-04-30T10:24:37.728Z</time></trkpt><trkpt lat="40.7968353" lon="9.0609907"><ele>418.0</ele><time>2026-04-30T10:24:38.727Z</time></trkpt><trkpt lat="40.7967367" lon="9.0608056"><ele>418.0</ele><time>2026-04-30T10:24:39.727Z</time></trkpt><trkpt lat="40.7966394" lon="9.0606244"><ele>418.0</ele><time>2026-04-30T10:24:40.729Z</time></trkpt><trkpt lat="40.7965352" lon="9.0604341"><ele>412.6666666666667</ele><time>2026-04-30T10:24:41.731Z</time></trkpt><trkpt lat="40.7964337" lon="9.0602355"><ele>407.33333333333337</ele><time>2026-04-30T10:24:42.732Z</time></trkpt><trkpt lat="40.7963206" lon="9.060043"><ele>402.0</ele><time>2026-04-30T10:24:43.726Z</time></trkpt><trkpt lat="40.7961919" lon="9.0598692"><ele>400.0</ele><time>2026-04-30T10:24:44.73Z</time></trkpt><trkpt lat="40.7960491" lon="9.0597161"><ele>398.0</ele><time>2026-04-30T10:24:45.728Z</time></trkpt><trkpt lat="40.7958844" lon="9.0596041"><ele>396.0</ele><time>2026-04-30T10:24:46.732Z</time></trkpt><trkpt lat="40.7957064" lon="9.0595094"><ele>396.0</ele><time>2026-04-30T10:24:47.729Z</time></trkpt><trkpt lat="40.7955198" lon="9.0594409"><ele>396.0</ele><time>2026-04-30T10:24:48.737Z</time></trkpt><trkpt lat="40.7953237" lon="9.0593713"><ele>396.0</ele><time>2026-04-30T10:24:49.728Z</time></trkpt><trkpt lat="40.7951339" lon="9.0593011"><ele>392.66666666666663</ele><time>2026-04-30T10:24:50.729Z</time></trkpt><trkpt lat="40.7949588" lon="9.0592274"><ele>389.3333333333333</ele><time>2026-04-30T10:24:51.728Z</time></trkpt><trkpt lat="40.7947913" lon="9.0591547"><ele>386.0</ele><time>2026-04-30T10:24:52.728Z</time></trkpt><trkpt lat="40.7946383" lon="9.0590604"><ele>386.0</ele><time>2026-04-30T10:24:53.731Z</time></trkpt><trkpt lat="40.7944992" lon="9.0589337"><ele>386.0</ele><time>2026-04-30T10:24:54.729Z</time></trkpt><trkpt lat="40.7943555" lon="9.058793"><ele>386.0</ele><time>2026-04-30T10:24:55.729Z</time></trkpt><trkpt lat="40.7942095" lon="9.0586397"><ele>384.3333333333333</ele><time>2026-04-30T10:24:56.729Z</time></trkpt><trkpt lat="40.7940593" lon="9.0584652"><ele>382.66666666666663</ele><time>2026-04-30T10:24:57.728Z</time></trkpt><trkpt lat="40.7938959" lon="9.0582812"><ele>381.0</ele><time>2026-04-30T10:24:58.728Z</time></trkpt><trkpt lat="40.7937354" lon="9.0581048"><ele>381.0</ele><time>2026-04-30T10:24:59.728Z</time></trkpt><trkpt lat="40.7935838" lon="9.0579286"><ele>381.0</ele><time>2026-04-30T10:25:00.73Z</time></trkpt><trkpt lat="40.7934492" lon="9.0577442"><ele>381.0</ele><time>2026-04-30T10:25:01.732Z</time></trkpt><trkpt lat="40.7933347" lon="9.0575308"><ele>385.33333333333337</ele><time>2026-04-30T10:25:02.73Z</time></trkpt><trkpt lat="40.7932441" lon="9.0572951"><ele>389.6666666666667</ele><time>2026-04-30T10:25:03.735Z</time></trkpt><trkpt lat="40.7931715" lon="9.0570519"><ele>394.0</ele><time>2026-04-30T10:25:04.728Z</time></trkpt><trkpt lat="40.7931241" lon="9.0568339"><ele>394.0</ele><time>2026-04-30T10:25:05.73Z</time></trkpt><trkpt lat="40.7930761" lon="9.0566211"><ele>394.0</ele><time>2026-04-30T10:25:06.733Z</time></trkpt><trkpt lat="40.7930002" lon="9.0564538"><ele>394.0</ele><time>2026-04-30T10:25:07.73Z</time></trkpt><trkpt lat="40.7929039" lon="9.056316"><ele>392.75</ele><time>2026-04-30T10:25:08.727Z</time></trkpt><trkpt lat="40.7927859" lon="9.0562351"><ele>391.5</ele><time>2026-04-30T10:25:09.728Z</time></trkpt><trkpt lat="40.7926516" lon="9.0561913"><ele>390.25</ele><time>2026-04-30T10:25:10.733Z</time></trkpt><trkpt lat="40.7924974" lon="9.0561693"><ele>389.0</ele><time>2026-04-30T10:25:11.731Z</time></trkpt><trkpt lat="40.7923228" lon="9.0561663"><ele>389.0</ele><time>2026-04-30T10:25:12.732Z</time></trkpt><trkpt lat="40.792149" lon="9.0561572"><ele>389.0</ele><time>2026-04-30T10:25:13.73Z</time></trkpt><trkpt lat="40.7919895" lon="9.0561558"><ele>389.0</ele><time>2026-04-30T10:25:14.728Z</time></trkpt><trkpt lat="40.7918475" lon="9.0561936"><ele>387.75</ele><time>2026-04-30T10:25:15.728Z</time></trkpt><trkpt lat="40.791714" lon="9.0562486"><ele>386.5</ele><time>2026-04-30T10:25:16.732Z</time></trkpt><trkpt lat="40.7916299" lon="9.0563952"><ele>385.25</ele><time>2026-04-30T10:25:17.728Z</time></trkpt><trkpt lat="40.7915469" lon="9.0565585"><ele>384.0</ele><time>2026-04-30T10:25:18.732Z</time></trkpt><trkpt lat="40.7914715" lon="9.0567071"><ele>388.2</ele><time>2026-04-30T10:25:19.727Z</time></trkpt><trkpt lat="40.791376" lon="9.0568185"><ele>392.4</ele><time>2026-04-30T10:25:20.731Z</time></trkpt><trkpt lat="40.7912834" lon="9.0568794"><ele>396.6</ele><time>2026-04-30T10:25:21.731Z</time></trkpt><trkpt lat="40.7911888" lon="9.0568786"><ele>400.8</ele><time>2026-04-30T10:25:22.728Z</time></trkpt><trkpt lat="40.7911041" lon="9.056824"><ele>405.0</ele><time>2026-04-30T10:25:23.728Z</time></trkpt><trkpt lat="40.7910251" lon="9.056729"><ele>405.0</ele><time>2026-04-30T10:25:24.737Z</time></trkpt><trkpt lat="40.7909253" lon="9.0566298"><ele>405.0</ele><time>2026-04-30T10:25:25.726Z</time></trkpt><trkpt lat="40.7908047" lon="9.0565473"><ele>405.0</ele><time>2026-04-30T10:25:26.728Z</time></trkpt><trkpt lat="40.7906501" lon="9.0564719"><ele>405.0</ele><time>2026-04-30T10:25:27.73Z</time></trkpt><trkpt lat="40.7904783" lon="9.0563987"><ele>406.0</ele><time>2026-04-30T10:25:28.727Z</time></trkpt><trkpt lat="40.7903203" lon="9.0563171"><ele>407.0</ele><time>2026-04-30T10:25:29.726Z</time></trkpt><trkpt lat="40.7901782" lon="9.0562219"><ele>408.0</ele><time>2026-04-30T10:25:30.729Z</time></trkpt><trkpt lat="40.7900647" lon="9.0561149"><ele>408.0</ele><time>2026-04-30T10:25:31.728Z</time></trkpt><trkpt lat="40.7899687" lon="9.0560025"><ele>408.0</ele><time>2026-04-30T10:25:32.727Z</time></trkpt><trkpt lat="40.7899173" lon="9.0558992"><ele>408.0</ele><time>2026-04-30T10:25:33.728Z</time></trkpt><trkpt lat="40.7899703" lon="9.0558007"><ele>408.0</ele><time>2026-04-30T10:25:34.73Z</time></trkpt><trkpt lat="40.7900094" lon="9.0557084"><ele>408.0</ele><time>2026-04-30T10:25:35.728Z</time></trkpt><trkpt lat="40.7900768" lon="9.0556019"><ele>408.75</ele><time>2026-04-30T10:25:36.731Z</time></trkpt><trkpt lat="40.7901621" lon="9.0554659"><ele>409.5</ele><time>2026-04-30T10:25:37.729Z</time></trkpt><trkpt lat="40.7902427" lon="9.0553063"><ele>410.25</ele><time>2026-04-30T10:25:38.729Z</time></trkpt><trkpt lat="40.7903244" lon="9.0551189"><ele>411.0</ele><time>2026-04-30T10:25:39.732Z</time></trkpt><trkpt lat="40.7904128" lon="9.0549265"><ele>401.0</ele><time>2026-04-30T10:25:40.733Z</time></trkpt><trkpt lat="40.7905154" lon="9.0547616"><ele>391.0</ele><time>2026-04-30T10:25:41.731Z</time></trkpt><trkpt lat="40.7906205" lon="9.0546228"><ele>381.0</ele><time>2026-04-30T10:25:42.736Z</time></trkpt><trkpt lat="40.790699" lon="9.0544683"><ele>381.0</ele><time>2026-04-30T10:25:43.726Z</time></trkpt><trkpt lat="40.7907554" lon="9.054292"><ele>381.0</ele><time>2026-04-30T10:25:44.73Z</time></trkpt><trkpt lat="40.790785" lon="9.0541133"><ele>381.0</ele><time>2026-04-30T10:25:45.728Z</time></trkpt><trkpt lat="40.7907791" lon="9.0539254"><ele>381.0</ele><time>2026-04-30T10:25:46.729Z</time></trkpt><trkpt lat="40.7907433" lon="9.0537257"><ele>378.5</ele><time>2026-04-30T10:25:47.727Z</time></trkpt><trkpt lat="40.7906575" lon="9.0533039"><ele>376.0</ele><time>2026-04-30T10:25:49.728Z</time></trkpt><trkpt lat="40.7906148" lon="9.0530819"><ele>372.0</ele><time>2026-04-30T10:25:50.73Z</time></trkpt><trkpt lat="40.7905656" lon="9.0528525"><ele>368.0</ele><time>2026-04-30T10:25:51.737Z</time></trkpt><trkpt lat="40.7905015" lon="9.0526414"><ele>364.0</ele><time>2026-04-30T10:25:52.728Z</time></trkpt><trkpt lat="40.7904326" lon="9.0524439"><ele>365.0</ele><time>2026-04-30T10:25:53.725Z</time></trkpt><trkpt lat="40.7903179" lon="9.0522838"><ele>366.0</ele><time>2026-04-30T10:25:54.727Z</time></trkpt><trkpt lat="40.7901847" lon="9.0521466"><ele>367.0</ele><time>2026-04-30T10:25:55.729Z</time></trkpt><trkpt lat="40.7900453" lon="9.0520282"><ele>367.0</ele><time>2026-04-30T10:25:56.727Z</time></trkpt><trkpt lat="40.7899165" lon="9.0519462"><ele>367.0</ele><time>2026-04-30T10:25:57.727Z</time></trkpt><trkpt lat="40.7898052" lon="9.0519247"><ele>367.0</ele><time>2026-04-30T10:25:58.727Z</time></trkpt><trkpt lat="40.7897018" lon="9.0519627"><ele>367.0</ele><time>2026-04-30T10:25:59.726Z</time></trkpt><trkpt lat="40.7896015" lon="9.0520547"><ele>367.0</ele><time>2026-04-30T10:26:00.73Z</time></trkpt><trkpt lat="40.7895016" lon="9.0521815"><ele>367.0</ele><time>2026-04-30T10:26:01.728Z</time></trkpt><trkpt lat="40.7893916" lon="9.0522706"><ele>367.0</ele><time>2026-04-30T10:26:02.728Z</time></trkpt><trkpt lat="40.7892671" lon="9.0523292"><ele>367.0</ele><time>2026-04-30T10:26:03.728Z</time></trkpt><trkpt lat="40.7891221" lon="9.0523476"><ele>363.66666666666663</ele><time>2026-04-30T10:26:04.727Z</time></trkpt><trkpt lat="40.7889591" lon="9.0523436"><ele>360.3333333333333</ele><time>2026-04-30T10:26:05.727Z</time></trkpt><trkpt lat="40.7888031" lon="9.0523454"><ele>357.0</ele><time>2026-04-30T10:26:06.734Z</time></trkpt><trkpt lat="40.7886469" lon="9.0523652"><ele>356.0</ele><time>2026-04-30T10:26:07.726Z</time></trkpt><trkpt lat="40.7884963" lon="9.0523791"><ele>355.0</ele><time>2026-04-30T10:26:08.727Z</time></trkpt><trkpt lat="40.7883515" lon="9.0523676"><ele>354.0</ele><time>2026-04-30T10:26:09.726Z</time></trkpt><trkpt lat="40.7882048" lon="9.0523158"><ele>353.0</ele><time>2026-04-30T10:26:10.727Z</time></trkpt><trkpt lat="40.788076" lon="9.0522485"><ele>353.0</ele><time>2026-04-30T10:26:11.726Z</time></trkpt><trkpt lat="40.7879634" lon="9.0521354"><ele>353.0</ele><time>2026-04-30T10:26:12.727Z</time></trkpt><trkpt lat="40.7878661" lon="9.0519923"><ele>353.0</ele><time>2026-04-30T10:26:13.728Z</time></trkpt><trkpt lat="40.7878042" lon="9.0518234"><ele>353.0</ele><time>2026-04-30T10:26:14.729Z</time></trkpt><trkpt lat="40.7877626" lon="9.0516497"><ele>353.25</ele><time>2026-04-30T10:26:15.724Z</time></trkpt><trkpt lat="40.7877053" lon="9.0514638"><ele>353.5</ele><time>2026-04-30T10:26:16.727Z</time></trkpt><trkpt lat="40.7876415" lon="9.0512873"><ele>353.75</ele><time>2026-04-30T10:26:17.726Z</time></trkpt><trkpt lat="40.7875661" lon="9.0511429"><ele>354.0</ele><time>2026-04-30T10:26:18.728Z</time></trkpt><trkpt lat="40.7874819" lon="9.0510235"><ele>354.0</ele><time>2026-04-30T10:26:19.725Z</time></trkpt><trkpt lat="40.78737" lon="9.0509659"><ele>354.0</ele><time>2026-04-30T10:26:20.727Z</time></trkpt><trkpt lat="40.7872202" lon="9.0509808"><ele>354.0</ele><time>2026-04-30T10:26:21.731Z</time></trkpt><trkpt lat="40.7870854" lon="9.0509795"><ele>354.0</ele><time>2026-04-30T10:26:22.728Z</time></trkpt><trkpt lat="40.7869603" lon="9.0509652"><ele>356.0</ele><time>2026-04-30T10:26:23.728Z</time></trkpt><trkpt lat="40.7868441" lon="9.0509334"><ele>358.0</ele><time>2026-04-30T10:26:24.725Z</time></trkpt><trkpt lat="40.7867377" lon="9.0508677"><ele>360.0</ele><time>2026-04-30T10:26:25.727Z</time></trkpt><trkpt lat="40.7866532" lon="9.0507522"><ele>362.0</ele><time>2026-04-30T10:26:26.725Z</time></trkpt><trkpt lat="40.7865819" lon="9.0506023"><ele>356.75</ele><time>2026-04-30T10:26:27.727Z</time></trkpt><trkpt lat="40.7865324" lon="9.0504243"><ele>351.5</ele><time>2026-04-30T10:26:28.731Z</time></trkpt><trkpt lat="40.7864758" lon="9.0502557"><ele>346.25</ele><time>2026-04-30T10:26:29.728Z</time></trkpt><trkpt lat="40.7864027" lon="9.0501085"><ele>341.0</ele><time>2026-04-30T10:26:30.73Z</time></trkpt><trkpt lat="40.7862994" lon="9.0499749"><ele>342.75</ele><time>2026-04-30T10:26:31.727Z</time></trkpt><trkpt lat="40.7861841" lon="9.0498488"><ele>344.5</ele><time>2026-04-30T10:26:32.731Z</time></trkpt><trkpt lat="40.7860687" lon="9.0497299"><ele>346.25</ele><time>2026-04-30T10:26:33.729Z</time></trkpt><trkpt lat="40.7859793" lon="9.0495896"><ele>348.0</ele><time>2026-04-30T10:26:34.729Z</time></trkpt><trkpt lat="40.7859072" lon="9.0494402"><ele>348.0</ele><time>2026-04-30T10:26:35.727Z</time></trkpt><trkpt lat="40.7859018" lon="9.0492582"><ele>348.0</ele><time>2026-04-30T10:26:36.73Z</time></trkpt><trkpt lat="40.7858697" lon="9.049089"><ele>348.0</ele><time>2026-04-30T10:26:37.73Z</time></trkpt><trkpt lat="40.7858081" lon="9.0489279"><ele>348.0</ele><time>2026-04-30T10:26:38.731Z</time></trkpt><trkpt lat="40.785724" lon="9.0487972"><ele>345.5</ele><time>2026-04-30T10:26:39.727Z</time></trkpt><trkpt lat="40.7856242" lon="9.0487244"><ele>343.0</ele><time>2026-04-30T10:26:40.728Z</time></trkpt><trkpt lat="40.7855172" lon="9.048718"><ele>340.5</ele><time>2026-04-30T10:26:41.729Z</time></trkpt><trkpt lat="40.785402" lon="9.0487645"><ele>338.0</ele><time>2026-04-30T10:26:42.732Z</time></trkpt><trkpt lat="40.7852895" lon="9.0488475"><ele>338.0</ele><time>2026-04-30T10:26:43.731Z</time></trkpt><trkpt lat="40.7851986" lon="9.0489595"><ele>338.0</ele><time>2026-04-30T10:26:44.732Z</time></trkpt><trkpt lat="40.7851297" lon="9.0491074"><ele>338.0</ele><time>2026-04-30T10:26:45.73Z</time></trkpt><trkpt lat="40.785073" lon="9.0492602"><ele>338.0</ele><time>2026-04-30T10:26:46.729Z</time></trkpt><trkpt lat="40.7850064" lon="9.0494073"><ele>338.33333333333337</ele><time>2026-04-30T10:26:47.732Z</time></trkpt><trkpt lat="40.7849067" lon="9.0495406"><ele>338.6666666666667</ele><time>2026-04-30T10:26:48.731Z</time></trkpt><trkpt lat="40.784773" lon="9.049639"><ele>339.0</ele><time>2026-04-30T10:26:49.729Z</time></trkpt><trkpt lat="40.7846079" lon="9.0497102"><ele>339.0</ele><time>2026-04-30T10:26:50.731Z</time></trkpt><trkpt lat="40.7844297" lon="9.049756"><ele>339.0</ele><time>2026-04-30T10:26:51.732Z</time></trkpt><trkpt lat="40.7842466" lon="9.0497715"><ele>339.0</ele><time>2026-04-30T10:26:52.731Z</time></trkpt><trkpt lat="40.784054" lon="9.0497573"><ele>337.3333333333333</ele><time>2026-04-30T10:26:53.73Z</time></trkpt><trkpt lat="40.7838535" lon="9.0497136"><ele>335.66666666666663</ele><time>2026-04-30T10:26:54.727Z</time></trkpt><trkpt lat="40.7836683" lon="9.0496684"><ele>334.0</ele><time>2026-04-30T10:26:55.726Z</time></trkpt><trkpt lat="40.7834961" lon="9.0496423"><ele>334.0</ele><time>2026-04-30T10:26:56.729Z</time></trkpt><trkpt lat="40.7833496" lon="9.0496581"><ele>334.0</ele><time>2026-04-30T10:26:57.733Z</time></trkpt><trkpt lat="40.7832042" lon="9.049707"><ele>334.0</ele><time>2026-04-30T10:26:58.729Z</time></trkpt><trkpt lat="40.7830872" lon="9.0497926"><ele>334.0</ele><time>2026-04-30T10:26:59.727Z</time></trkpt><trkpt lat="40.7830033" lon="9.0499282"><ele>338.3333333333333</ele><time>2026-04-30T10:27:00.729Z</time></trkpt><trkpt lat="40.7829386" lon="9.0500849"><ele>342.6666666666667</ele><time>2026-04-30T10:27:01.727Z</time></trkpt><trkpt lat="40.7829088" lon="9.0502991"><ele>347.0</ele><time>2026-04-30T10:27:02.727Z</time></trkpt><trkpt lat="40.7828742" lon="9.0505356"><ele>347.0</ele><time>2026-04-30T10:27:03.728Z</time></trkpt><trkpt lat="40.7828428" lon="9.0507838"><ele>347.0</ele><time>2026-04-30T10:27:04.73Z</time></trkpt><trkpt lat="40.7828334" lon="9.0510164"><ele>347.0</ele><time>2026-04-30T10:27:05.73Z</time></trkpt><trkpt lat="40.7828491" lon="9.0512346"><ele>348.25</ele><time>2026-04-30T10:27:06.73Z</time></trkpt><trkpt lat="40.7828847" lon="9.051429"><ele>349.5</ele><time>2026-04-30T10:27:07.732Z</time></trkpt><trkpt lat="40.7829151" lon="9.0516055"><ele>350.75</ele><time>2026-04-30T10:27:08.732Z</time></trkpt><trkpt lat="40.78289" lon="9.0517769"><ele>352.0</ele><time>2026-04-30T10:27:09.73Z</time></trkpt><trkpt lat="40.7828604" lon="9.0519572"><ele>352.0</ele><time>2026-04-30T10:27:10.731Z</time></trkpt><trkpt lat="40.782843" lon="9.0521415"><ele>352.0</ele><time>2026-04-30T10:27:11.726Z</time></trkpt><trkpt lat="40.7828362" lon="9.0523015"><ele>352.0</ele><time>2026-04-30T10:27:12.729Z</time></trkpt><trkpt lat="40.7828197" lon="9.0524303"><ele>352.0</ele><time>2026-04-30T10:27:13.73Z</time></trkpt><trkpt lat="40.7827816" lon="9.0525228"><ele>352.0</ele><time>2026-04-30T10:27:14.733Z</time></trkpt><trkpt lat="40.782666" lon="9.0525257"><ele>346.8</ele><time>2026-04-30T10:27:16.732Z</time></trkpt><trkpt lat="40.7826175" lon="9.0524554"><ele>341.6</ele><time>2026-04-30T10:27:17.728Z</time></trkpt><trkpt lat="40.7825905" lon="9.0523409"><ele>336.40000000000003</ele><time>2026-04-30T10:27:18.73Z</time></trkpt><trkpt lat="40.7825587" lon="9.0521991"><ele>331.20000000000005</ele><time>2026-04-30T10:27:19.728Z</time></trkpt><trkpt lat="40.7825121" lon="9.0520219"><ele>326.0</ele><time>2026-04-30T10:27:20.729Z</time></trkpt><trkpt lat="40.78246" lon="9.0518597"><ele>326.0</ele><time>2026-04-30T10:27:21.731Z</time></trkpt><trkpt lat="40.7823957" lon="9.0517162"><ele>326.0</ele><time>2026-04-30T10:27:22.727Z</time></trkpt><trkpt lat="40.7823011" lon="9.0516279"><ele>326.0</ele><time>2026-04-30T10:27:23.728Z</time></trkpt><trkpt lat="40.7821974" lon="9.0515958"><ele>326.0</ele><time>2026-04-30T10:27:24.731Z</time></trkpt><trkpt lat="40.7820913" lon="9.0516237"><ele>326.0</ele><time>2026-04-30T10:27:25.728Z</time></trkpt><trkpt lat="40.7819813" lon="9.0516997"><ele>326.0</ele><time>2026-04-30T10:27:26.733Z</time></trkpt><trkpt lat="40.781856" lon="9.0517859"><ele>326.0</ele><time>2026-04-30T10:27:27.728Z</time></trkpt><trkpt lat="40.7817101" lon="9.0518445"><ele>326.0</ele><time>2026-04-30T10:27:28.732Z</time></trkpt><trkpt lat="40.7815477" lon="9.0518899"><ele>322.33333333333337</ele><time>2026-04-30T10:27:29.729Z</time></trkpt><trkpt lat="40.781379" lon="9.0519196"><ele>318.6666666666667</ele><time>2026-04-30T10:27:30.732Z</time></trkpt><trkpt lat="40.7812035" lon="9.0519206"><ele>315.0</ele><time>2026-04-30T10:27:31.733Z</time></trkpt><trkpt lat="40.7810063" lon="9.0518582"><ele>312.3333333333333</ele><time>2026-04-30T10:27:32.728Z</time></trkpt><trkpt lat="40.7808222" lon="9.0517929"><ele>309.66666666666663</ele><time>2026-04-30T10:27:33.732Z</time></trkpt><trkpt lat="40.7806449" lon="9.0517239"><ele>307.0</ele><time>2026-04-30T10:27:34.73Z</time></trkpt><trkpt lat="40.7804738" lon="9.0516553"><ele>306.66666666666663</ele><time>2026-04-30T10:27:35.728Z</time></trkpt><trkpt lat="40.7803188" lon="9.0515771"><ele>306.3333333333333</ele><time>2026-04-30T10:27:36.732Z</time></trkpt><trkpt lat="40.7801746" lon="9.0515083"><ele>306.0</ele><time>2026-04-30T10:27:37.731Z</time></trkpt><trkpt lat="40.7800382" lon="9.0514654"><ele>306.75</ele><time>2026-04-30T10:27:38.729Z</time></trkpt><trkpt lat="40.7799118" lon="9.0514489"><ele>307.5</ele><time>2026-04-30T10:27:39.729Z</time></trkpt><trkpt lat="40.7797878" lon="9.0514949"><ele>308.25</ele><time>2026-04-30T10:27:40.732Z</time></trkpt><trkpt lat="40.7796748" lon="9.0515662"><ele>309.0</ele><time>2026-04-30T10:27:41.729Z</time></trkpt><trkpt lat="40.7795678" lon="9.0516636"><ele>309.0</ele><time>2026-04-30T10:27:42.73Z</time></trkpt><trkpt lat="40.7794668" lon="9.0517619"><ele>309.0</ele><time>2026-04-30T10:27:43.732Z</time></trkpt><trkpt lat="40.7793579" lon="9.051854"><ele>309.0</ele><time>2026-04-30T10:27:44.733Z</time></trkpt><trkpt lat="40.7792197" lon="9.0519091"><ele>309.0</ele><time>2026-04-30T10:27:45.73Z</time></trkpt><trkpt lat="40.7790823" lon="9.0519584"><ele>306.25</ele><time>2026-04-30T10:27:46.732Z</time></trkpt><trkpt lat="40.778953" lon="9.0519863"><ele>303.5</ele><time>2026-04-30T10:27:47.73Z</time></trkpt><trkpt lat="40.7788238" lon="9.0520181"><ele>300.75</ele><time>2026-04-30T10:27:48.735Z</time></trkpt><trkpt lat="40.7787059" lon="9.0520627"><ele>298.0</ele><time>2026-04-30T10:27:49.731Z</time></trkpt><trkpt lat="40.7785936" lon="9.0521352"><ele>297.0</ele><time>2026-04-30T10:27:50.73Z</time></trkpt><trkpt lat="40.7785046" lon="9.0522384"><ele>296.0</ele><time>2026-04-30T10:27:51.728Z</time></trkpt><trkpt lat="40.7784398" lon="9.0523753"><ele>295.0</ele><time>2026-04-30T10:27:52.73Z</time></trkpt><trkpt lat="40.7783984" lon="9.0525343"><ele>294.0</ele><time>2026-04-30T10:27:53.729Z</time></trkpt><trkpt lat="40.7783758" lon="9.0527171"><ele>294.0</ele><time>2026-04-30T10:27:54.73Z</time></trkpt><trkpt lat="40.7783688" lon="9.0529042"><ele>294.0</ele><time>2026-04-30T10:27:55.729Z</time></trkpt><trkpt lat="40.778366" lon="9.053084"><ele>294.0</ele><time>2026-04-30T10:27:56.729Z</time></trkpt><trkpt lat="40.7783685" lon="9.0532555"><ele>294.0</ele><time>2026-04-30T10:27:57.728Z</time></trkpt><trkpt lat="40.7783815" lon="9.0534128"><ele>293.59999999999997</ele><time>2026-04-30T10:27:58.731Z</time></trkpt><trkpt lat="40.7783963" lon="9.0535621"><ele>293.2</ele><time>2026-04-30T10:27:59.733Z</time></trkpt><trkpt lat="40.778401" lon="9.0537034"><ele>292.79999999999995</ele><time>2026-04-30T10:28:00.731Z</time></trkpt><trkpt lat="40.7783788" lon="9.0538254"><ele>292.4</ele><time>2026-04-30T10:28:01.729Z</time></trkpt><trkpt lat="40.7783351" lon="9.0539297"><ele>292.0</ele><time>2026-04-30T10:28:02.729Z</time></trkpt><trkpt lat="40.7782234" lon="9.0539485"><ele>292.0</ele><time>2026-04-30T10:28:03.733Z</time></trkpt><trkpt lat="40.77811" lon="9.053957"><ele>292.0</ele><time>2026-04-30T10:28:04.731Z</time></trkpt><trkpt lat="40.7779872" lon="9.0539379"><ele>292.0</ele><time>2026-04-30T10:28:05.728Z</time></trkpt><trkpt lat="40.7778773" lon="9.0538877"><ele>292.0</ele><time>2026-04-30T10:28:06.731Z</time></trkpt><trkpt lat="40.7777749" lon="9.0538335"><ele>290.6</ele><time>2026-04-30T10:28:07.732Z</time></trkpt><trkpt lat="40.7776807" lon="9.053809"><ele>289.2</ele><time>2026-04-30T10:28:08.731Z</time></trkpt><trkpt lat="40.7775874" lon="9.0538262"><ele>287.8</ele><time>2026-04-30T10:28:09.734Z</time></trkpt><trkpt lat="40.7775165" lon="9.0539031"><ele>286.4</ele><time>2026-04-30T10:28:10.73Z</time></trkpt><trkpt lat="40.7774683" lon="9.0540234"><ele>285.0</ele><time>2026-04-30T10:28:11.733Z</time></trkpt><trkpt lat="40.7774455" lon="9.0541761"><ele>285.0</ele><time>2026-04-30T10:28:12.729Z</time></trkpt><trkpt lat="40.7774432" lon="9.0543543"><ele>285.0</ele><time>2026-04-30T10:28:13.73Z</time></trkpt><trkpt lat="40.777451" lon="9.0545607"><ele>285.0</ele><time>2026-04-30T10:28:14.731Z</time></trkpt><trkpt lat="40.7774615" lon="9.0548098"><ele>285.3333333333333</ele><time>2026-04-30T10:28:15.732Z</time></trkpt><trkpt lat="40.7774633" lon="9.0550455"><ele>285.66666666666663</ele><time>2026-04-30T10:28:16.733Z</time></trkpt><trkpt lat="40.7774571" lon="9.0552692"><ele>286.0</ele><time>2026-04-30T10:28:17.733Z</time></trkpt><trkpt lat="40.7774386" lon="9.0554844"><ele>286.0</ele><time>2026-04-30T10:28:18.731Z</time></trkpt><trkpt lat="40.7774234" lon="9.0556884"><ele>286.0</ele><time>2026-04-30T10:28:19.733Z</time></trkpt><trkpt lat="40.7774213" lon="9.0558999"><ele>286.0</ele><time>2026-04-30T10:28:20.731Z</time></trkpt><trkpt lat="40.7774572" lon="9.056092"><ele>285.25</ele><time>2026-04-30T10:28:21.733Z</time></trkpt><trkpt lat="40.7775102" lon="9.0562663"><ele>284.5</ele><time>2026-04-30T10:28:22.731Z</time></trkpt><trkpt lat="40.7775739" lon="9.0564382"><ele>283.75</ele><time>2026-04-30T10:28:23.732Z</time></trkpt><trkpt lat="40.7776285" lon="9.0566229"><ele>283.0</ele><time>2026-04-30T10:28:24.732Z</time></trkpt><trkpt lat="40.7776558" lon="9.0568205"><ele>280.75</ele><time>2026-04-30T10:28:25.729Z</time></trkpt><trkpt lat="40.7776795" lon="9.0570108"><ele>278.5</ele><time>2026-04-30T10:28:26.732Z</time></trkpt><trkpt lat="40.7777273" lon="9.05719"><ele>276.25</ele><time>2026-04-30T10:28:27.731Z</time></trkpt><trkpt lat="40.777793" lon="9.057352"><ele>274.0</ele><time>2026-04-30T10:28:28.729Z</time></trkpt><trkpt lat="40.7778492" lon="9.0575104"><ele>271.75</ele><time>2026-04-30T10:28:29.732Z</time></trkpt><trkpt lat="40.7778692" lon="9.0576664"><ele>269.5</ele><time>2026-04-30T10:28:30.732Z</time></trkpt><trkpt lat="40.7778427" lon="9.0578198"><ele>267.25</ele><time>2026-04-30T10:28:31.731Z</time></trkpt><trkpt lat="40.7777831" lon="9.0579696"><ele>265.0</ele><time>2026-04-30T10:28:32.73Z</time></trkpt><trkpt lat="40.7776799" lon="9.0581145"><ele>265.0</ele><time>2026-04-30T10:28:33.73Z</time></trkpt><trkpt lat="40.7775843" lon="9.0582535"><ele>265.0</ele><time>2026-04-30T10:28:34.733Z</time></trkpt><trkpt lat="40.7774943" lon="9.0584084"><ele>265.0</ele><time>2026-04-30T10:28:35.734Z</time></trkpt><trkpt lat="40.7774135" lon="9.0585792"><ele>265.0</ele><time>2026-04-30T10:28:36.731Z</time></trkpt><trkpt lat="40.7773544" lon="9.0587502"><ele>266.0</ele><time>2026-04-30T10:28:37.728Z</time></trkpt><trkpt lat="40.7772908" lon="9.0590742"><ele>267.0</ele><time>2026-04-30T10:28:39.728Z</time></trkpt><trkpt lat="40.7773077" lon="9.0592192"><ele>268.0</ele><time>2026-04-30T10:28:40.727Z</time></trkpt><trkpt lat="40.7773562" lon="9.0593445"><ele>269.0</ele><time>2026-04-30T10:28:41.728Z</time></trkpt><trkpt lat="40.777425" lon="9.0594564"><ele>270.0</ele><time>2026-04-30T10:28:42.726Z</time></trkpt><trkpt lat="40.7774913" lon="9.0595744"><ele>271.0</ele><time>2026-04-30T10:28:43.726Z</time></trkpt><trkpt lat="40.7775492" lon="9.0596854"><ele>272.0</ele><time>2026-04-30T10:28:44.73Z</time></trkpt><trkpt lat="40.7775848" lon="9.0598063"><ele>273.0</ele><time>2026-04-30T10:28:45.728Z</time></trkpt><trkpt lat="40.7775398" lon="9.0599031"><ele>273.0</ele><time>2026-04-30T10:28:46.729Z</time></trkpt><trkpt lat="40.7774182" lon="9.0599564"><ele>273.0</ele><time>2026-04-30T10:28:48.728Z</time></trkpt><trkpt lat="40.7773323" lon="9.0599322"><ele>273.0</ele><time>2026-04-30T10:28:49.732Z</time></trkpt><trkpt lat="40.7772321" lon="9.0599089"><ele>273.0</ele><time>2026-04-30T10:28:50.725Z</time></trkpt><trkpt lat="40.7771247" lon="9.0599231"><ele>273.0</ele><time>2026-04-30T10:28:51.73Z</time></trkpt><trkpt lat="40.7770087" lon="9.0599898"><ele>272.0</ele><time>2026-04-30T10:28:52.729Z</time></trkpt><trkpt lat="40.7768944" lon="9.0600907"><ele>271.0</ele><time>2026-04-30T10:28:53.727Z</time></trkpt><trkpt lat="40.7767951" lon="9.060214"><ele>270.0</ele><time>2026-04-30T10:28:54.729Z</time></trkpt><trkpt lat="40.7767021" lon="9.0603559"><ele>269.0</ele><time>2026-04-30T10:28:55.729Z</time></trkpt><trkpt lat="40.7766673" lon="9.0605149"><ele>266.8</ele><time>2026-04-30T10:28:56.732Z</time></trkpt><trkpt lat="40.7766369" lon="9.0606655"><ele>264.59999999999997</ele><time>2026-04-30T10:28:57.731Z</time></trkpt><trkpt lat="40.7766073" lon="9.0608088"><ele>262.4</ele><time>2026-04-30T10:28:58.732Z</time></trkpt><trkpt lat="40.7765329" lon="9.0609073"><ele>260.2</ele><time>2026-04-30T10:28:59.729Z</time></trkpt><trkpt lat="40.7764382" lon="9.0609774"><ele>258.0</ele><time>2026-04-30T10:29:00.73Z</time></trkpt><trkpt lat="40.776318" lon="9.0610024"><ele>258.0</ele><time>2026-04-30T10:29:01.727Z</time></trkpt><trkpt lat="40.7761982" lon="9.0610224"><ele>258.0</ele><time>2026-04-30T10:29:02.729Z</time></trkpt><trkpt lat="40.7760982" lon="9.0610534"><ele>258.0</ele><time>2026-04-30T10:29:03.729Z</time></trkpt><trkpt lat="40.776024" lon="9.0611348"><ele>258.0</ele><time>2026-04-30T10:29:04.73Z</time></trkpt><trkpt lat="40.7759725" lon="9.0612512"><ele>258.0</ele><time>2026-04-30T10:29:05.736Z</time></trkpt><trkpt lat="40.7759568" lon="9.0613975"><ele>253.66666666666669</ele><time>2026-04-30T10:29:06.732Z</time></trkpt><trkpt lat="40.7759558" lon="9.0615792"><ele>249.33333333333334</ele><time>2026-04-30T10:29:07.731Z</time></trkpt><trkpt lat="40.7759656" lon="9.0617848"><ele>245.0</ele><time>2026-04-30T10:29:08.732Z</time></trkpt><trkpt lat="40.7759829" lon="9.0620144"><ele>245.0</ele><time>2026-04-30T10:29:09.733Z</time></trkpt><trkpt lat="40.7759881" lon="9.0622453"><ele>245.0</ele><time>2026-04-30T10:29:10.731Z</time></trkpt><trkpt lat="40.7759732" lon="9.0624756"><ele>245.0</ele><time>2026-04-30T10:29:11.73Z</time></trkpt><trkpt lat="40.7759352" lon="9.0627142"><ele>245.0</ele><time>2026-04-30T10:29:12.728Z</time></trkpt><trkpt lat="40.7758923" lon="9.0629648"><ele>245.0</ele><time>2026-04-30T10:29:13.727Z</time></trkpt><trkpt lat="40.7758501" lon="9.0632417"><ele>245.0</ele><time>2026-04-30T10:29:14.729Z</time></trkpt><trkpt lat="40.7758077" lon="9.0635011"><ele>244.66666666666669</ele><time>2026-04-30T10:29:15.732Z</time></trkpt><trkpt lat="40.7757699" lon="9.0637452"><ele>244.33333333333331</ele><time>2026-04-30T10:29:16.73Z</time></trkpt><trkpt lat="40.775743" lon="9.0639651"><ele>244.0</ele><time>2026-04-30T10:29:17.73Z</time></trkpt><trkpt lat="40.7757357" lon="9.0641653"><ele>243.66666666666666</ele><time>2026-04-30T10:29:18.73Z</time></trkpt><trkpt lat="40.775759" lon="9.0643624"><ele>243.33333333333331</ele><time>2026-04-30T10:29:19.729Z</time></trkpt><trkpt lat="40.7758118" lon="9.0645574"><ele>243.0</ele><time>2026-04-30T10:29:20.73Z</time></trkpt><trkpt lat="40.7758663" lon="9.0647646"><ele>241.0</ele><time>2026-04-30T10:29:21.728Z</time></trkpt><trkpt lat="40.7759091" lon="9.0649823"><ele>239.0</ele><time>2026-04-30T10:29:22.728Z</time></trkpt><trkpt lat="40.775934" lon="9.0652071"><ele>237.0</ele><time>2026-04-30T10:29:23.733Z</time></trkpt><trkpt lat="40.7759357" lon="9.0654296"><ele>237.0</ele><time>2026-04-30T10:29:24.729Z</time></trkpt><trkpt lat="40.7759212" lon="9.0656337"><ele>237.0</ele><time>2026-04-30T10:29:25.729Z</time></trkpt><trkpt lat="40.7759131" lon="9.065817"><ele>237.0</ele><time>2026-04-30T10:29:26.731Z</time></trkpt><trkpt lat="40.7759238" lon="9.0659815"><ele>237.0</ele><time>2026-04-30T10:29:27.729Z</time></trkpt><trkpt lat="40.7759711" lon="9.0661401"><ele>238.0</ele><time>2026-04-30T10:29:28.729Z</time></trkpt><trkpt lat="40.7760461" lon="9.0662874"><ele>239.0</ele><time>2026-04-30T10:29:29.729Z</time></trkpt><trkpt lat="40.7761509" lon="9.0664369"><ele>240.0</ele><time>2026-04-30T10:29:30.731Z</time></trkpt><trkpt lat="40.7762547" lon="9.0665771"><ele>241.0</ele><time>2026-04-30T10:29:31.731Z</time></trkpt><trkpt lat="40.7763374" lon="9.0666855"><ele>240.99999999999997</ele><time>2026-04-30T10:29:32.731Z</time></trkpt><trkpt lat="40.7763774" lon="9.0667695"><ele>241.0</ele><time>2026-04-30T10:29:33.728Z</time></trkpt><trkpt lat="40.7763917" lon="9.0668675"><ele>241.0</ele><time>2026-04-30T10:29:34.73Z</time></trkpt><trkpt lat="40.7763152" lon="9.0669825"><ele>241.0</ele><time>2026-04-30T10:29:36.73Z</time></trkpt><trkpt lat="40.776246" lon="9.0669603"><ele>240.99999999999997</ele><time>2026-04-30T10:29:37.73Z</time></trkpt><trkpt lat="40.7761742" lon="9.0669062"><ele>241.0</ele><time>2026-04-30T10:29:38.73Z</time></trkpt><trkpt lat="40.7760657" lon="9.0668386"><ele>237.0</ele><time>2026-04-30T10:29:39.732Z</time></trkpt><trkpt lat="40.7759483" lon="9.0667752"><ele>233.0</ele><time>2026-04-30T10:29:40.729Z</time></trkpt><trkpt lat="40.7757827" lon="9.0667329"><ele>229.0</ele><time>2026-04-30T10:29:41.729Z</time></trkpt><trkpt lat="40.7756155" lon="9.0667155"><ele>229.0</ele><time>2026-04-30T10:29:42.728Z</time></trkpt><trkpt lat="40.7754665" lon="9.0667022"><ele>229.0</ele><time>2026-04-30T10:29:43.73Z</time></trkpt><trkpt lat="40.7753257" lon="9.0666672"><ele>229.0</ele><time>2026-04-30T10:29:44.734Z</time></trkpt><trkpt lat="40.7751903" lon="9.0665867"><ele>229.0</ele><time>2026-04-30T10:29:45.729Z</time></trkpt><trkpt lat="40.775055" lon="9.0665124"><ele>228.0</ele><time>2026-04-30T10:29:46.729Z</time></trkpt><trkpt lat="40.7749291" lon="9.0664493"><ele>227.0</ele><time>2026-04-30T10:29:47.733Z</time></trkpt><trkpt lat="40.7748019" lon="9.0664305"><ele>226.0</ele><time>2026-04-30T10:29:48.733Z</time></trkpt><trkpt lat="40.7746759" lon="9.0664647"><ele>225.0</ele><time>2026-04-30T10:29:49.731Z</time></trkpt><trkpt lat="40.7745468" lon="9.0665506"><ele>224.33333333333331</ele><time>2026-04-30T10:29:50.733Z</time></trkpt><trkpt lat="40.7743966" lon="9.0666542"><ele>223.66666666666666</ele><time>2026-04-30T10:29:51.729Z</time></trkpt><trkpt lat="40.77424" lon="9.066745"><ele>223.0</ele><time>2026-04-30T10:29:52.731Z</time></trkpt><trkpt lat="40.7740645" lon="9.0668069"><ele>221.33333333333331</ele><time>2026-04-30T10:29:53.731Z</time></trkpt><trkpt lat="40.7738712" lon="9.0668494"><ele>219.66666666666669</ele><time>2026-04-30T10:29:54.73Z</time></trkpt><trkpt lat="40.7736739" lon="9.0668854"><ele>218.0</ele><time>2026-04-30T10:29:55.731Z</time></trkpt><trkpt lat="40.77346" lon="9.06691"><ele>217.0</ele><time>2026-04-30T10:29:56.734Z</time></trkpt><trkpt lat="40.7732373" lon="9.066938"><ele>216.0</ele><time>2026-04-30T10:29:57.732Z</time></trkpt><trkpt lat="40.7730148" lon="9.0669719"><ele>215.0</ele><time>2026-04-30T10:29:58.728Z</time></trkpt><trkpt lat="40.7728048" lon="9.0669806"><ele>213.0</ele><time>2026-04-30T10:29:59.733Z</time></trkpt><trkpt lat="40.7726126" lon="9.0669899"><ele>211.0</ele><time>2026-04-30T10:30:00.73Z</time></trkpt><trkpt lat="40.7724438" lon="9.0669945"><ele>209.0</ele><time>2026-04-30T10:30:01.73Z</time></trkpt><trkpt lat="40.7722822" lon="9.0670005"><ele>209.0</ele><time>2026-04-30T10:30:02.731Z</time></trkpt><trkpt lat="40.7721349" lon="9.0670564"><ele>209.0</ele><time>2026-04-30T10:30:03.731Z</time></trkpt><trkpt lat="40.7720095" lon="9.0671506"><ele>209.0</ele><time>2026-04-30T10:30:04.732Z</time></trkpt><trkpt lat="40.7718906" lon="9.0672327"><ele>209.0</ele><time>2026-04-30T10:30:05.732Z</time></trkpt><trkpt lat="40.7717562" lon="9.0672927"><ele>206.66666666666669</ele><time>2026-04-30T10:30:06.732Z</time></trkpt><trkpt lat="40.7716161" lon="9.0673279"><ele>204.33333333333331</ele><time>2026-04-30T10:30:07.734Z</time></trkpt><trkpt lat="40.7714664" lon="9.0673291"><ele>202.0</ele><time>2026-04-30T10:30:08.731Z</time></trkpt><trkpt lat="40.771302" lon="9.0673006"><ele>202.0</ele><time>2026-04-30T10:30:09.732Z</time></trkpt><trkpt lat="40.7711223" lon="9.067266"><ele>202.0</ele><time>2026-04-30T10:30:10.73Z</time></trkpt><trkpt lat="40.7709325" lon="9.0672456"><ele>202.0</ele><time>2026-04-30T10:30:11.73Z</time></trkpt><trkpt lat="40.7707352" lon="9.0672207"><ele>202.0</ele><time>2026-04-30T10:30:12.729Z</time></trkpt><trkpt lat="40.7705326" lon="9.0671891"><ele>202.0</ele><time>2026-04-30T10:30:13.736Z</time></trkpt><trkpt lat="40.7703285" lon="9.0671574"><ele>202.0</ele><time>2026-04-30T10:30:14.733Z</time></trkpt><trkpt lat="40.7701246" lon="9.0671334"><ele>202.0</ele><time>2026-04-30T10:30:15.739Z</time></trkpt><trkpt lat="40.7699277" lon="9.0670986"><ele>202.0</ele><time>2026-04-30T10:30:16.731Z</time></trkpt><trkpt lat="40.7697722" lon="9.0670771"><ele>202.0</ele><time>2026-04-30T10:30:17.73Z</time></trkpt><trkpt lat="40.7696212" lon="9.0670573"><ele>201.99999999999997</ele><time>2026-04-30T10:30:18.731Z</time></trkpt><trkpt lat="40.7695161" lon="9.0670398"><ele>202.0</ele><time>2026-04-30T10:30:19.732Z</time></trkpt><trkpt lat="40.7694292" lon="9.067017"><ele>202.0</ele><time>2026-04-30T10:30:20.732Z</time></trkpt><trkpt lat="40.7693496" lon="9.0670059"><ele>202.0</ele><time>2026-04-30T10:30:21.731Z</time></trkpt><trkpt lat="40.7692764" lon="9.0669939"><ele>201.99999999999997</ele><time>2026-04-30T10:30:22.732Z</time></trkpt><trkpt lat="40.769211" lon="9.0669868"><ele>202.0</ele><time>2026-04-30T10:30:23.731Z</time></trkpt><trkpt lat="40.7690922" lon="9.0669714"><ele>200.99999999999997</ele><time>2026-04-30T10:30:25.729Z</time></trkpt><trkpt lat="40.7690018" lon="9.0669683"><ele>200.0</ele><time>2026-04-30T10:30:27.732Z</time></trkpt><trkpt lat="40.7689277" lon="9.0669582"><ele>199.0</ele><time>2026-04-30T10:30:29.731Z</time></trkpt><trkpt lat="40.7688383" lon="9.0669332"><ele>198.0</ele><time>2026-04-30T10:34:33.732Z</time></trkpt><trkpt lat="40.7687707" lon="9.0669239"><ele>196.99999999999997</ele><time>2026-04-30T10:34:34.739Z</time></trkpt><trkpt lat="40.768704" lon="9.066917"><ele>196.0</ele><time>2026-04-30T10:34:35.734Z</time></trkpt><trkpt lat="40.7686294" lon="9.0669115"><ele>196.0</ele><time>2026-04-30T10:34:36.734Z</time></trkpt><trkpt lat="40.7685396" lon="9.0668977"><ele>196.0</ele><time>2026-04-30T10:34:37.726Z</time></trkpt><trkpt lat="40.7684441" lon="9.0668811"><ele>196.0</ele><time>2026-04-30T10:34:38.733Z</time></trkpt><trkpt lat="40.768347" lon="9.0668679"><ele>196.0</ele><time>2026-04-30T10:34:39.731Z</time></trkpt><trkpt lat="40.7682387" lon="9.0668537"><ele>196.0</ele><time>2026-04-30T10:34:40.735Z</time></trkpt><trkpt lat="40.7681251" lon="9.0668344"><ele>194.5</ele><time>2026-04-30T10:34:41.736Z</time></trkpt><trkpt lat="40.768011" lon="9.0668208"><ele>193.0</ele><time>2026-04-30T10:34:42.735Z</time></trkpt><trkpt lat="40.7678763" lon="9.0668181"><ele>191.5</ele><time>2026-04-30T10:34:43.734Z</time></trkpt><trkpt lat="40.7677326" lon="9.0668261"><ele>190.0</ele><time>2026-04-30T10:34:44.736Z</time></trkpt><trkpt lat="40.7675802" lon="9.0668434"><ele>190.0</ele><time>2026-04-30T10:34:45.732Z</time></trkpt><trkpt lat="40.7674312" lon="9.0668687"><ele>190.0</ele><time>2026-04-30T10:34:46.705Z</time></trkpt><trkpt lat="40.7672819" lon="9.0669075"><ele>190.0</ele><time>2026-04-30T10:34:47.732Z</time></trkpt><trkpt lat="40.7671378" lon="9.0669428"><ele>190.0</ele><time>2026-04-30T10:34:48.728Z</time></trkpt><trkpt lat="40.7670007" lon="9.0669821"><ele>190.0</ele><time>2026-04-30T10:34:49.732Z</time></trkpt><trkpt lat="40.7668688" lon="9.0670258"><ele>190.0</ele><time>2026-04-30T10:34:50.733Z</time></trkpt><trkpt lat="40.7667363" lon="9.0670773"><ele>190.0</ele><time>2026-04-30T10:34:51.73Z</time></trkpt><trkpt lat="40.7666001" lon="9.067134"><ele>190.0</ele><time>2026-04-30T10:34:52.733Z</time></trkpt><trkpt lat="40.7664554" lon="9.0671928"><ele>189.25</ele><time>2026-04-30T10:34:53.732Z</time></trkpt><trkpt lat="40.7663236" lon="9.0672703"><ele>188.5</ele><time>2026-04-30T10:34:54.735Z</time></trkpt><trkpt lat="40.7662019" lon="9.0673509"><ele>187.75</ele><time>2026-04-30T10:34:55.702Z</time></trkpt><trkpt lat="40.7660722" lon="9.0674299"><ele>187.0</ele><time>2026-04-30T10:34:56.701Z</time></trkpt><trkpt lat="40.7659488" lon="9.0675148"><ele>185.25</ele><time>2026-04-30T10:34:57.703Z</time></trkpt><trkpt lat="40.7658308" lon="9.0675991"><ele>183.5</ele><time>2026-04-30T10:34:58.704Z</time></trkpt><trkpt lat="40.7657044" lon="9.0676897"><ele>181.75</ele><time>2026-04-30T10:34:59.701Z</time></trkpt><trkpt lat="40.7655788" lon="9.0677753"><ele>180.0</ele><time>2026-04-30T10:35:00.701Z</time></trkpt><trkpt lat="40.7654442" lon="9.0678579"><ele>180.0</ele><time>2026-04-30T10:35:01.701Z</time></trkpt><trkpt lat="40.7653136" lon="9.0679272"><ele>180.0</ele><time>2026-04-30T10:35:02.701Z</time></trkpt><trkpt lat="40.7651798" lon="9.0679915"><ele>180.0</ele><time>2026-04-30T10:35:03.701Z</time></trkpt><trkpt lat="40.7650428" lon="9.0680526"><ele>180.0</ele><time>2026-04-30T10:35:04.701Z</time></trkpt><trkpt lat="40.7649096" lon="9.0681094"><ele>179.75</ele><time>2026-04-30T10:35:05.701Z</time></trkpt><trkpt lat="40.7647807" lon="9.0681684"><ele>179.5</ele><time>2026-04-30T10:35:06.701Z</time></trkpt><trkpt lat="40.7646463" lon="9.0682392"><ele>179.25</ele><time>2026-04-30T10:35:07.701Z</time></trkpt><trkpt lat="40.76452" lon="9.0683217"><ele>179.0</ele><time>2026-04-30T10:35:08.701Z</time></trkpt><trkpt lat="40.7643971" lon="9.0684172"><ele>176.75</ele><time>2026-04-30T10:35:09.701Z</time></trkpt><trkpt lat="40.764279" lon="9.0685147"><ele>174.5</ele><time>2026-04-30T10:35:10.701Z</time></trkpt><trkpt lat="40.7641554" lon="9.0686148"><ele>172.25</ele><time>2026-04-30T10:35:11.701Z</time></trkpt><trkpt lat="40.7640311" lon="9.0687145"><ele>170.0</ele><time>2026-04-30T10:35:12.701Z</time></trkpt><trkpt lat="40.763909" lon="9.0688102"><ele>170.0</ele><time>2026-04-30T10:35:13.701Z</time></trkpt><trkpt lat="40.7637932" lon="9.0689006"><ele>170.0</ele><time>2026-04-30T10:35:14.701Z</time></trkpt><trkpt lat="40.7636763" lon="9.0689943"><ele>170.0</ele><time>2026-04-30T10:35:15.701Z</time></trkpt><trkpt lat="40.7635691" lon="9.0690643"><ele>170.0</ele><time>2026-04-30T10:35:16.701Z</time></trkpt><trkpt lat="40.7634623" lon="9.0690984"><ele>170.25</ele><time>2026-04-30T10:35:17.701Z</time></trkpt><trkpt lat="40.7633567" lon="9.0690962"><ele>170.5</ele><time>2026-04-30T10:35:18.701Z</time></trkpt><trkpt lat="40.7632436" lon="9.0690687"><ele>170.75</ele><time>2026-04-30T10:35:19.701Z</time></trkpt><trkpt lat="40.763115" lon="9.0690261"><ele>171.0</ele><time>2026-04-30T10:35:20.7Z</time></trkpt><trkpt lat="40.7629779" lon="9.0689837"><ele>171.0</ele><time>2026-04-30T10:35:21.701Z</time></trkpt><trkpt lat="40.7628356" lon="9.0689383"><ele>171.0</ele><time>2026-04-30T10:35:22.701Z</time></trkpt><trkpt lat="40.7626785" lon="9.0688822"><ele>171.0</ele><time>2026-04-30T10:35:23.7Z</time></trkpt><trkpt lat="40.762525" lon="9.0688204"><ele>170.0</ele><time>2026-04-30T10:35:24.701Z</time></trkpt><trkpt lat="40.7623736" lon="9.068755"><ele>169.0</ele><time>2026-04-30T10:35:25.701Z</time></trkpt><trkpt lat="40.7622287" lon="9.0686889"><ele>168.0</ele><time>2026-04-30T10:35:26.701Z</time></trkpt><trkpt lat="40.7620696" lon="9.0686107"><ele>168.0</ele><time>2026-04-30T10:35:27.731Z</time></trkpt><trkpt lat="40.7619131" lon="9.0685534"><ele>168.0</ele><time>2026-04-30T10:35:28.732Z</time></trkpt><trkpt lat="40.7617567" lon="9.0684902"><ele>168.0</ele><time>2026-04-30T10:35:29.73Z</time></trkpt><trkpt lat="40.761605" lon="9.0684232"><ele>168.25</ele><time>2026-04-30T10:35:30.728Z</time></trkpt><trkpt lat="40.7614642" lon="9.068366"><ele>168.5</ele><time>2026-04-30T10:35:31.727Z</time></trkpt><trkpt lat="40.7613279" lon="9.0683242"><ele>168.75</ele><time>2026-04-30T10:35:32.73Z</time></trkpt><trkpt lat="40.7612022" lon="9.0682937"><ele>169.0</ele><time>2026-04-30T10:35:33.733Z</time></trkpt><trkpt lat="40.7610774" lon="9.0682958"><ele>169.25</ele><time>2026-04-30T10:35:34.727Z</time></trkpt><trkpt lat="40.7609659" lon="9.0683402"><ele>169.5</ele><time>2026-04-30T10:35:35.728Z</time></trkpt><trkpt lat="40.7608765" lon="9.0684232"><ele>169.75</ele><time>2026-04-30T10:35:36.732Z</time></trkpt><trkpt lat="40.7608129" lon="9.0685406"><ele>170.0</ele><time>2026-04-30T10:35:37.731Z</time></trkpt><trkpt lat="40.7607699" lon="9.0686837"><ele>170.0</ele><time>2026-04-30T10:35:38.73Z</time></trkpt><trkpt lat="40.7607567" lon="9.0688393"><ele>170.0</ele><time>2026-04-30T10:35:39.728Z</time></trkpt><trkpt lat="40.760764" lon="9.069003"><ele>170.0</ele><time>2026-04-30T10:35:40.728Z</time></trkpt><trkpt lat="40.7608232" lon="9.0691556"><ele>170.0</ele><time>2026-04-30T10:35:41.728Z</time></trkpt><trkpt lat="40.7608833" lon="9.0693062"><ele>170.5</ele><time>2026-04-30T10:35:42.729Z</time></trkpt><trkpt lat="40.7609271" lon="9.0694494"><ele>171.0</ele><time>2026-04-30T10:35:43.726Z</time></trkpt><trkpt lat="40.7609269" lon="9.0695977"><ele>171.5</ele><time>2026-04-30T10:35:44.728Z</time></trkpt><trkpt lat="40.7608879" lon="9.0697386"><ele>172.0</ele><time>2026-04-30T10:35:45.726Z</time></trkpt><trkpt lat="40.7608154" lon="9.0698602"><ele>172.0</ele><time>2026-04-30T10:35:46.733Z</time></trkpt><trkpt lat="40.7607288" lon="9.0699902"><ele>172.0</ele><time>2026-04-30T10:35:47.731Z</time></trkpt><trkpt lat="40.7606363" lon="9.070132"><ele>172.0</ele><time>2026-04-30T10:35:48.726Z</time></trkpt><trkpt lat="40.7605567" lon="9.0702864"><ele>172.0</ele><time>2026-04-30T10:35:49.729Z</time></trkpt><trkpt lat="40.7605114" lon="9.0704525"><ele>172.0</ele><time>2026-04-30T10:35:50.729Z</time></trkpt><trkpt lat="40.7604796" lon="9.070636"><ele>172.0</ele><time>2026-04-30T10:35:51.729Z</time></trkpt><trkpt lat="40.7604604" lon="9.070831"><ele>172.0</ele><time>2026-04-30T10:35:52.724Z</time></trkpt><trkpt lat="40.7604419" lon="9.0710316"><ele>172.0</ele><time>2026-04-30T10:35:53.724Z</time></trkpt><trkpt lat="40.7604286" lon="9.0712408"><ele>175.0</ele><time>2026-04-30T10:35:54.723Z</time></trkpt><trkpt lat="40.7604065" lon="9.0714558"><ele>178.0</ele><time>2026-04-30T10:35:55.726Z</time></trkpt><trkpt lat="40.7603877" lon="9.0716744"><ele>181.0</ele><time>2026-04-30T10:35:56.725Z</time></trkpt><trkpt lat="40.7603705" lon="9.0719"><ele>181.33333333333334</ele><time>2026-04-30T10:35:57.73Z</time></trkpt><trkpt lat="40.7603483" lon="9.0721322"><ele>181.66666666666666</ele><time>2026-04-30T10:35:58.733Z</time></trkpt><trkpt lat="40.7603274" lon="9.0723486"><ele>182.0</ele><time>2026-04-30T10:35:59.734Z</time></trkpt><trkpt lat="40.760318" lon="9.0725391"><ele>182.0</ele><time>2026-04-30T10:36:00.727Z</time></trkpt><trkpt lat="40.7603326" lon="9.0727062"><ele>182.0</ele><time>2026-04-30T10:36:01.726Z</time></trkpt><trkpt lat="40.7603775" lon="9.0728576"><ele>182.0</ele><time>2026-04-30T10:36:02.722Z</time></trkpt><trkpt lat="40.7604344" lon="9.0729941"><ele>182.0</ele><time>2026-04-30T10:36:03.727Z</time></trkpt><trkpt lat="40.7605512" lon="9.0730713"><ele>182.0</ele><time>2026-04-30T10:36:04.725Z</time></trkpt><trkpt lat="40.7606651" lon="9.0731495"><ele>182.0</ele><time>2026-04-30T10:36:05.726Z</time></trkpt><trkpt lat="40.7607698" lon="9.0732222"><ele>182.0</ele><time>2026-04-30T10:36:06.725Z</time></trkpt><trkpt lat="40.7608486" lon="9.0733156"><ele>182.0</ele><time>2026-04-30T10:36:07.728Z</time></trkpt><trkpt lat="40.7608989" lon="9.073415"><ele>182.0</ele><time>2026-04-30T10:36:08.73Z</time></trkpt><trkpt lat="40.760926" lon="9.0735183"><ele>179.8</ele><time>2026-04-30T10:36:09.727Z</time></trkpt><trkpt lat="40.7608932" lon="9.0736154"><ele>177.6</ele><time>2026-04-30T10:36:10.729Z</time></trkpt><trkpt lat="40.7608488" lon="9.0737038"><ele>175.4</ele><time>2026-04-30T10:36:11.73Z</time></trkpt><trkpt lat="40.7607662" lon="9.073765"><ele>173.20000000000002</ele><time>2026-04-30T10:36:12.73Z</time></trkpt><trkpt lat="40.7606538" lon="9.0737994"><ele>171.0</ele><time>2026-04-30T10:36:13.727Z</time></trkpt><trkpt lat="40.7605293" lon="9.0738203"><ele>171.0</ele><time>2026-04-30T10:36:14.731Z</time></trkpt><trkpt lat="40.7603639" lon="9.0738181"><ele>171.0</ele><time>2026-04-30T10:36:15.728Z</time></trkpt><trkpt lat="40.7602178" lon="9.073854"><ele>171.0</ele><time>2026-04-30T10:36:16.729Z</time></trkpt><trkpt lat="40.7600835" lon="9.0739206"><ele>171.33333333333334</ele><time>2026-04-30T10:36:17.732Z</time></trkpt><trkpt lat="40.759962" lon="9.0740416"><ele>171.66666666666669</ele><time>2026-04-30T10:36:18.726Z</time></trkpt><trkpt lat="40.759852" lon="9.0741877"><ele>172.0</ele><time>2026-04-30T10:36:19.727Z</time></trkpt><trkpt lat="40.7597826" lon="9.0744261"><ele>172.0</ele><time>2026-04-30T10:36:20.731Z</time></trkpt><trkpt lat="40.7596901" lon="9.0746588"><ele>172.0</ele><time>2026-04-30T10:36:21.729Z</time></trkpt><trkpt lat="40.7595954" lon="9.0748538"><ele>172.0</ele><time>2026-04-30T10:36:22.729Z</time></trkpt><trkpt lat="40.7594708" lon="9.0750221"><ele>170.66666666666669</ele><time>2026-04-30T10:36:23.726Z</time></trkpt><trkpt lat="40.7593214" lon="9.075175"><ele>169.33333333333334</ele><time>2026-04-30T10:36:24.728Z</time></trkpt><trkpt lat="40.7591588" lon="9.0753176"><ele>168.0</ele><time>2026-04-30T10:36:25.729Z</time></trkpt><trkpt lat="40.7589985" lon="9.0754576"><ele>168.0</ele><time>2026-04-30T10:36:26.73Z</time></trkpt><trkpt lat="40.7588583" lon="9.0755839"><ele>168.0</ele><time>2026-04-30T10:36:27.728Z</time></trkpt><trkpt lat="40.7587377" lon="9.0757004"><ele>168.0</ele><time>2026-04-30T10:36:28.731Z</time></trkpt><trkpt lat="40.7586639" lon="9.0758274"><ele>168.0</ele><time>2026-04-30T10:36:29.73Z</time></trkpt><trkpt lat="40.7586537" lon="9.0759735"><ele>170.2</ele><time>2026-04-30T10:36:30.732Z</time></trkpt><trkpt lat="40.7586633" lon="9.0761219"><ele>172.4</ele><time>2026-04-30T10:36:31.727Z</time></trkpt><trkpt lat="40.7586907" lon="9.0762586"><ele>174.6</ele><time>2026-04-30T10:36:32.728Z</time></trkpt><trkpt lat="40.7587168" lon="9.0763959"><ele>176.79999999999998</ele><time>2026-04-30T10:36:33.726Z</time></trkpt><trkpt lat="40.7587125" lon="9.0765289"><ele>179.0</ele><time>2026-04-30T10:36:34.727Z</time></trkpt><trkpt lat="40.7586929" lon="9.0766397"><ele>179.0</ele><time>2026-04-30T10:36:35.729Z</time></trkpt><trkpt lat="40.75861" lon="9.076723"><ele>179.0</ele><time>2026-04-30T10:36:36.73Z</time></trkpt><trkpt lat="40.7585228" lon="9.0768088"><ele>179.0</ele><time>2026-04-30T10:36:37.728Z</time></trkpt><trkpt lat="40.7584227" lon="9.0769077"><ele>179.0</ele><time>2026-04-30T10:36:38.732Z</time></trkpt><trkpt lat="40.7583157" lon="9.0770014"><ele>176.0</ele><time>2026-04-30T10:36:39.726Z</time></trkpt><trkpt lat="40.7582189" lon="9.0770857"><ele>173.0</ele><time>2026-04-30T10:36:40.731Z</time></trkpt><trkpt lat="40.7581329" lon="9.0771545"><ele>170.0</ele><time>2026-04-30T10:36:41.727Z</time></trkpt><trkpt lat="40.7580604" lon="9.0772281"><ele>167.0</ele><time>2026-04-30T10:36:42.731Z</time></trkpt><trkpt lat="40.757989" lon="9.0772888"><ele>164.0</ele><time>2026-04-30T10:36:43.732Z</time></trkpt><trkpt lat="40.7579192" lon="9.0773363"><ele>164.0</ele><time>2026-04-30T10:36:44.727Z</time></trkpt><trkpt lat="40.7578372" lon="9.0773703"><ele>164.0</ele><time>2026-04-30T10:36:45.728Z</time></trkpt><trkpt lat="40.7577417" lon="9.0773844"><ele>164.0</ele><time>2026-04-30T10:36:46.731Z</time></trkpt><trkpt lat="40.7576367" lon="9.0773785"><ele>164.0</ele><time>2026-04-30T10:36:47.726Z</time></trkpt><trkpt lat="40.7575193" lon="9.0773575"><ele>164.0</ele><time>2026-04-30T10:36:48.731Z</time></trkpt><trkpt lat="40.757396" lon="9.0773345"><ele>162.25</ele><time>2026-04-30T10:36:49.729Z</time></trkpt><trkpt lat="40.7572775" lon="9.0773064"><ele>160.5</ele><time>2026-04-30T10:36:50.728Z</time></trkpt><trkpt lat="40.7571658" lon="9.0772843"><ele>158.75</ele><time>2026-04-30T10:36:51.727Z</time></trkpt><trkpt lat="40.7570517" lon="9.0772656"><ele>157.0</ele><time>2026-04-30T10:36:52.73Z</time></trkpt><trkpt lat="40.7569378" lon="9.0772431"><ele>155.75</ele><time>2026-04-30T10:36:53.727Z</time></trkpt><trkpt lat="40.7568221" lon="9.0772225"><ele>154.5</ele><time>2026-04-30T10:36:54.732Z</time></trkpt><trkpt lat="40.7567032" lon="9.0772027"><ele>153.25</ele><time>2026-04-30T10:36:55.731Z</time></trkpt><trkpt lat="40.7565917" lon="9.0771763"><ele>152.0</ele><time>2026-04-30T10:36:56.729Z</time></trkpt><trkpt lat="40.756481" lon="9.0771616"><ele>152.0</ele><time>2026-04-30T10:36:57.728Z</time></trkpt><trkpt lat="40.756372" lon="9.0771398"><ele>152.0</ele><time>2026-04-30T10:36:58.726Z</time></trkpt><trkpt lat="40.7562611" lon="9.0771181"><ele>152.0</ele><time>2026-04-30T10:36:59.732Z</time></trkpt><trkpt lat="40.7561482" lon="9.0770957"><ele>152.0</ele><time>2026-04-30T10:37:00.728Z</time></trkpt><trkpt lat="40.7560334" lon="9.0770737"><ele>152.0</ele><time>2026-04-30T10:37:01.73Z</time></trkpt><trkpt lat="40.7559131" lon="9.0770544"><ele>152.0</ele><time>2026-04-30T10:37:02.73Z</time></trkpt><trkpt lat="40.7557935" lon="9.0770331"><ele>152.0</ele><time>2026-04-30T10:37:03.729Z</time></trkpt><trkpt lat="40.755681" lon="9.0770099"><ele>152.0</ele><time>2026-04-30T10:37:04.73Z</time></trkpt><trkpt lat="40.7555677" lon="9.0769876"><ele>152.0</ele><time>2026-04-30T10:37:05.729Z</time></trkpt><trkpt lat="40.755455" lon="9.0769695"><ele>152.0</ele><time>2026-04-30T10:37:06.732Z</time></trkpt><trkpt lat="40.7553419" lon="9.076952"><ele>152.0</ele><time>2026-04-30T10:37:07.73Z</time></trkpt><trkpt lat="40.7552301" lon="9.0769313"><ele>152.0</ele><time>2026-04-30T10:37:08.729Z</time></trkpt><trkpt lat="40.7551242" lon="9.0769141"><ele>152.0</ele><time>2026-04-30T10:37:09.73Z</time></trkpt><trkpt lat="40.7550188" lon="9.0768911"><ele>153.8</ele><time>2026-04-30T10:37:10.729Z</time></trkpt><trkpt lat="40.7549141" lon="9.0768721"><ele>155.6</ele><time>2026-04-30T10:37:11.727Z</time></trkpt><trkpt lat="40.7548109" lon="9.0768355"><ele>157.4</ele><time>2026-04-30T10:37:12.731Z</time></trkpt><trkpt lat="40.7547109" lon="9.076788"><ele>159.20000000000002</ele><time>2026-04-30T10:37:13.729Z</time></trkpt><trkpt lat="40.7546116" lon="9.0767187"><ele>161.0</ele><time>2026-04-30T10:37:14.729Z</time></trkpt><trkpt lat="40.75451" lon="9.0766349"><ele>160.25</ele><time>2026-04-30T10:37:15.73Z</time></trkpt><trkpt lat="40.754395" lon="9.0765516"><ele>159.5</ele><time>2026-04-30T10:37:16.727Z</time></trkpt><trkpt lat="40.7542668" lon="9.0764937"><ele>158.75</ele><time>2026-04-30T10:37:17.728Z</time></trkpt><trkpt lat="40.7541233" lon="9.0764956"><ele>158.0</ele><time>2026-04-30T10:37:18.727Z</time></trkpt><trkpt lat="40.7539708" lon="9.0765141"><ele>160.0</ele><time>2026-04-30T10:37:19.731Z</time></trkpt><trkpt lat="40.7538175" lon="9.076569"><ele>162.0</ele><time>2026-04-30T10:37:20.729Z</time></trkpt><trkpt lat="40.7536676" lon="9.0766339"><ele>164.0</ele><time>2026-04-30T10:37:21.727Z</time></trkpt><trkpt lat="40.7535133" lon="9.0767177"><ele>166.33333333333331</ele><time>2026-04-30T10:37:22.729Z</time></trkpt><trkpt lat="40.7533586" lon="9.0768058"><ele>168.66666666666666</ele><time>2026-04-30T10:37:23.725Z</time></trkpt><trkpt lat="40.753201" lon="9.0769"><ele>171.0</ele><time>2026-04-30T10:37:24.73Z</time></trkpt><trkpt lat="40.7530427" lon="9.0769873"><ele>171.0</ele><time>2026-04-30T10:37:25.729Z</time></trkpt><trkpt lat="40.752904" lon="9.0770689"><ele>171.0</ele><time>2026-04-30T10:37:26.729Z</time></trkpt><trkpt lat="40.7527595" lon="9.0771312"><ele>171.0</ele><time>2026-04-30T10:37:27.728Z</time></trkpt><trkpt lat="40.7526114" lon="9.0771663"><ele>170.66666666666666</ele><time>2026-04-30T10:37:28.728Z</time></trkpt><trkpt lat="40.7524621" lon="9.077183"><ele>170.33333333333331</ele><time>2026-04-30T10:37:29.726Z</time></trkpt><trkpt lat="40.7523119" lon="9.077143"><ele>170.0</ele><time>2026-04-30T10:37:30.727Z</time></trkpt><trkpt lat="40.7521633" lon="9.0770775"><ele>170.0</ele><time>2026-04-30T10:37:31.725Z</time></trkpt><trkpt lat="40.7520199" lon="9.0769778"><ele>170.0</ele><time>2026-04-30T10:37:32.725Z</time></trkpt><trkpt lat="40.7518913" lon="9.0768565"><ele>170.0</ele><time>2026-04-30T10:37:33.729Z</time></trkpt><trkpt lat="40.7517878" lon="9.0767197"><ele>172.33333333333331</ele><time>2026-04-30T10:37:34.728Z</time></trkpt><trkpt lat="40.7517059" lon="9.0765579"><ele>174.66666666666666</ele><time>2026-04-30T10:37:35.727Z</time></trkpt><trkpt lat="40.751647" lon="9.0763777"><ele>177.0</ele><time>2026-04-30T10:37:36.727Z</time></trkpt><trkpt lat="40.751587" lon="9.0761857"><ele>177.0</ele><time>2026-04-30T10:37:37.727Z</time></trkpt><trkpt lat="40.7515286" lon="9.0759897"><ele>177.0</ele><time>2026-04-30T10:37:38.726Z</time></trkpt><trkpt lat="40.75147" lon="9.075807"><ele>177.0</ele><time>2026-04-30T10:37:39.726Z</time></trkpt><trkpt lat="40.7513815" lon="9.0756518"><ele>177.66666666666666</ele><time>2026-04-30T10:37:40.727Z</time></trkpt><trkpt lat="40.7512672" lon="9.0755079"><ele>178.33333333333331</ele><time>2026-04-30T10:37:41.728Z</time></trkpt><trkpt lat="40.7511347" lon="9.0753666"><ele>179.0</ele><time>2026-04-30T10:37:42.725Z</time></trkpt><trkpt lat="40.7509888" lon="9.0752297"><ele>179.33333333333331</ele><time>2026-04-30T10:37:43.727Z</time></trkpt><trkpt lat="40.7508344" lon="9.0750784"><ele>179.66666666666666</ele><time>2026-04-30T10:37:44.731Z</time></trkpt><trkpt lat="40.7506694" lon="9.0749246"><ele>180.0</ele><time>2026-04-30T10:37:45.727Z</time></trkpt><trkpt lat="40.7504858" lon="9.0747516"><ele>180.0</ele><time>2026-04-30T10:37:46.729Z</time></trkpt><trkpt lat="40.7502979" lon="9.0745838"><ele>180.0</ele><time>2026-04-30T10:37:47.728Z</time></trkpt><trkpt lat="40.7501091" lon="9.0743937"><ele>179.0</ele><time>2026-04-30T10:37:48.727Z</time></trkpt><trkpt lat="40.7499116" lon="9.0741992"><ele>178.0</ele><time>2026-04-30T10:37:49.727Z</time></trkpt><trkpt lat="40.7497091" lon="9.0740098"><ele>176.5</ele><time>2026-04-30T10:37:50.726Z</time></trkpt><trkpt lat="40.7495095" lon="9.0738357"><ele>175.0</ele><time>2026-04-30T10:37:51.725Z</time></trkpt><trkpt lat="40.7493342" lon="9.073669"><ele>174.0</ele><time>2026-04-30T10:37:52.726Z</time></trkpt><trkpt lat="40.7491646" lon="9.0735193"><ele>173.0</ele><time>2026-04-30T10:37:53.727Z</time></trkpt><trkpt lat="40.7490092" lon="9.073375"><ele>172.0</ele><time>2026-04-30T10:37:54.728Z</time></trkpt><trkpt lat="40.7488515" lon="9.0732597"><ele>171.66666666666669</ele><time>2026-04-30T10:37:55.727Z</time></trkpt><trkpt lat="40.7486768" lon="9.0731938"><ele>171.33333333333334</ele><time>2026-04-30T10:37:56.725Z</time></trkpt><trkpt lat="40.7484987" lon="9.0731815"><ele>171.0</ele><time>2026-04-30T10:37:57.728Z</time></trkpt><trkpt lat="40.7483234" lon="9.0732274"><ele>170.0</ele><time>2026-04-30T10:37:58.727Z</time></trkpt><trkpt lat="40.7481443" lon="9.0733142"><ele>169.0</ele><time>2026-04-30T10:37:59.727Z</time></trkpt><trkpt lat="40.7479598" lon="9.0734327"><ele>168.0</ele><time>2026-04-30T10:38:00.727Z</time></trkpt><trkpt lat="40.7477685" lon="9.0735622"><ele>166.0</ele><time>2026-04-30T10:38:01.726Z</time></trkpt><trkpt lat="40.7475792" lon="9.0736891"><ele>164.0</ele><time>2026-04-30T10:38:02.725Z</time></trkpt><trkpt lat="40.7474048" lon="9.0738116"><ele>162.0</ele><time>2026-04-30T10:38:03.724Z</time></trkpt><trkpt lat="40.7472443" lon="9.0739313"><ele>162.0</ele><time>2026-04-30T10:38:04.73Z</time></trkpt><trkpt lat="40.7471027" lon="9.0740837"><ele>162.0</ele><time>2026-04-30T10:38:05.73Z</time></trkpt><trkpt lat="40.7469792" lon="9.0742696"><ele>162.0</ele><time>2026-04-30T10:38:06.727Z</time></trkpt><trkpt lat="40.7468601" lon="9.0744781"><ele>163.66666666666666</ele><time>2026-04-30T10:38:07.726Z</time></trkpt><trkpt lat="40.7467341" lon="9.0746943"><ele>165.33333333333331</ele><time>2026-04-30T10:38:08.727Z</time></trkpt><trkpt lat="40.746601" lon="9.0749168"><ele>167.0</ele><time>2026-04-30T10:38:09.726Z</time></trkpt><trkpt lat="40.7464743" lon="9.0751384"><ele>169.33333333333331</ele><time>2026-04-30T10:38:10.726Z</time></trkpt><trkpt lat="40.7463535" lon="9.0753414"><ele>171.66666666666666</ele><time>2026-04-30T10:38:11.725Z</time></trkpt><trkpt lat="40.7462539" lon="9.0755248"><ele>174.0</ele><time>2026-04-30T10:38:12.729Z</time></trkpt><trkpt lat="40.74618" lon="9.0757078"><ele>173.0</ele><time>2026-04-30T10:38:13.728Z</time></trkpt><trkpt lat="40.7461241" lon="9.0758864"><ele>172.0</ele><time>2026-04-30T10:38:14.723Z</time></trkpt><trkpt lat="40.7460728" lon="9.0760386"><ele>171.0</ele><time>2026-04-30T10:38:15.725Z</time></trkpt><trkpt lat="40.7459925" lon="9.0761589"><ele>170.0</ele><time>2026-04-30T10:38:16.726Z</time></trkpt><trkpt lat="40.7458725" lon="9.0762333"><ele>170.0</ele><time>2026-04-30T10:38:17.726Z</time></trkpt><trkpt lat="40.7457434" lon="9.0762709"><ele>170.0</ele><time>2026-04-30T10:38:18.725Z</time></trkpt><trkpt lat="40.7456015" lon="9.0762602"><ele>170.0</ele><time>2026-04-30T10:38:19.725Z</time></trkpt><trkpt lat="40.745447" lon="9.0762002"><ele>170.0</ele><time>2026-04-30T10:38:20.727Z</time></trkpt><trkpt lat="40.7452809" lon="9.0760929"><ele>170.66666666666666</ele><time>2026-04-30T10:38:21.728Z</time></trkpt><trkpt lat="40.745111" lon="9.0759561"><ele>171.33333333333334</ele><time>2026-04-30T10:38:22.725Z</time></trkpt><trkpt lat="40.7449532" lon="9.0757911"><ele>172.0</ele><time>2026-04-30T10:38:23.725Z</time></trkpt><trkpt lat="40.7448084" lon="9.075597"><ele>172.33333333333334</ele><time>2026-04-30T10:38:24.726Z</time></trkpt><trkpt lat="40.7446607" lon="9.075399"><ele>172.66666666666666</ele><time>2026-04-30T10:38:25.728Z</time></trkpt><trkpt lat="40.7445162" lon="9.0752035"><ele>173.0</ele><time>2026-04-30T10:38:26.727Z</time></trkpt><trkpt lat="40.7443792" lon="9.0750068"><ele>171.0</ele><time>2026-04-30T10:38:27.726Z</time></trkpt><trkpt lat="40.7442722" lon="9.0747776"><ele>169.0</ele><time>2026-04-30T10:38:28.726Z</time></trkpt><trkpt lat="40.7441683" lon="9.0745376"><ele>167.0</ele><time>2026-04-30T10:38:29.726Z</time></trkpt><trkpt lat="40.7440779" lon="9.0742798"><ele>168.66666666666666</ele><time>2026-04-30T10:38:30.729Z</time></trkpt><trkpt lat="40.7439887" lon="9.0740279"><ele>170.33333333333334</ele><time>2026-04-30T10:38:31.73Z</time></trkpt><trkpt lat="40.7439054" lon="9.073791"><ele>172.0</ele><time>2026-04-30T10:38:32.727Z</time></trkpt><trkpt lat="40.7438186" lon="9.0735758"><ele>172.0</ele><time>2026-04-30T10:38:33.728Z</time></trkpt><trkpt lat="40.7437232" lon="9.0733815"><ele>172.0</ele><time>2026-04-30T10:38:34.726Z</time></trkpt><trkpt lat="40.743608" lon="9.073208"><ele>172.0</ele><time>2026-04-30T10:38:35.726Z</time></trkpt><trkpt lat="40.7434687" lon="9.073047"><ele>172.33333333333334</ele><time>2026-04-30T10:38:36.725Z</time></trkpt><trkpt lat="40.7433145" lon="9.0728866"><ele>172.66666666666666</ele><time>2026-04-30T10:38:37.728Z</time></trkpt><trkpt lat="40.7431544" lon="9.0727306"><ele>173.0</ele><time>2026-04-30T10:38:38.727Z</time></trkpt><trkpt lat="40.7429867" lon="9.0725702"><ele>172.66666666666666</ele><time>2026-04-30T10:38:39.727Z</time></trkpt><trkpt lat="40.7428204" lon="9.0724098"><ele>172.33333333333334</ele><time>2026-04-30T10:38:40.728Z</time></trkpt><trkpt lat="40.7426531" lon="9.0722558"><ele>172.0</ele><time>2026-04-30T10:38:41.726Z</time></trkpt><trkpt lat="40.7424997" lon="9.0720912"><ele>173.0</ele><time>2026-04-30T10:38:42.726Z</time></trkpt><trkpt lat="40.7423587" lon="9.0719551"><ele>174.0</ele><time>2026-04-30T10:38:43.727Z</time></trkpt><trkpt lat="40.7422216" lon="9.0718249"><ele>175.0</ele><time>2026-04-30T10:38:44.73Z</time></trkpt><trkpt lat="40.7420933" lon="9.0716864"><ele>174.33333333333334</ele><time>2026-04-30T10:38:45.727Z</time></trkpt><trkpt lat="40.7419546" lon="9.071549"><ele>173.66666666666666</ele><time>2026-04-30T10:38:46.727Z</time></trkpt><trkpt lat="40.7418093" lon="9.0714198"><ele>173.0</ele><time>2026-04-30T10:38:47.728Z</time></trkpt><trkpt lat="40.7416651" lon="9.0712898"><ele>174.33333333333331</ele><time>2026-04-30T10:38:48.724Z</time></trkpt><trkpt lat="40.7415302" lon="9.0711686"><ele>175.66666666666666</ele><time>2026-04-30T10:38:49.726Z</time></trkpt><trkpt lat="40.741388" lon="9.0710756"><ele>177.0</ele><time>2026-04-30T10:38:50.728Z</time></trkpt><trkpt lat="40.7412428" lon="9.0710253"><ele>177.0</ele><time>2026-04-30T10:38:51.729Z</time></trkpt><trkpt lat="40.7410882" lon="9.0710165"><ele>177.0</ele><time>2026-04-30T10:38:52.728Z</time></trkpt><trkpt lat="40.7409342" lon="9.0710397"><ele>177.0</ele><time>2026-04-30T10:38:53.727Z</time></trkpt><trkpt lat="40.7407795" lon="9.071132"><ele>179.33333333333334</ele><time>2026-04-30T10:38:54.727Z</time></trkpt><trkpt lat="40.7406197" lon="9.0712347"><ele>181.66666666666669</ele><time>2026-04-30T10:38:55.727Z</time></trkpt><trkpt lat="40.7404478" lon="9.0713365"><ele>184.0</ele><time>2026-04-30T10:38:56.727Z</time></trkpt><trkpt lat="40.7402708" lon="9.0714485"><ele>186.0</ele><time>2026-04-30T10:38:57.729Z</time></trkpt><trkpt lat="40.740083" lon="9.0715635"><ele>188.0</ele><time>2026-04-30T10:38:58.726Z</time></trkpt><trkpt lat="40.7398993" lon="9.0716785"><ele>190.0</ele><time>2026-04-30T10:38:59.727Z</time></trkpt><trkpt lat="40.7397184" lon="9.0717803"><ele>190.33333333333334</ele><time>2026-04-30T10:39:00.726Z</time></trkpt><trkpt lat="40.7395423" lon="9.0718891"><ele>190.66666666666666</ele><time>2026-04-30T10:39:01.725Z</time></trkpt><trkpt lat="40.7393711" lon="9.0720067"><ele>191.0</ele><time>2026-04-30T10:39:02.726Z</time></trkpt><trkpt lat="40.7391928" lon="9.0721257"><ele>191.0</ele><time>2026-04-30T10:39:03.725Z</time></trkpt><trkpt lat="40.7390013" lon="9.0722482"><ele>191.0</ele><time>2026-04-30T10:39:04.728Z</time></trkpt><trkpt lat="40.7388185" lon="9.0723564"><ele>191.0</ele><time>2026-04-30T10:39:05.726Z</time></trkpt><trkpt lat="40.738628" lon="9.0724538"><ele>192.0</ele><time>2026-04-30T10:39:06.726Z</time></trkpt><trkpt lat="40.738432" lon="9.0725284"><ele>193.0</ele><time>2026-04-30T10:39:07.726Z</time></trkpt><trkpt lat="40.7382307" lon="9.0725925"><ele>194.0</ele><time>2026-04-30T10:39:08.724Z</time></trkpt><trkpt lat="40.7380211" lon="9.072644"><ele>194.0</ele><time>2026-04-30T10:39:09.725Z</time></trkpt><trkpt lat="40.7378062" lon="9.0726914"><ele>194.0</ele><time>2026-04-30T10:39:10.728Z</time></trkpt><trkpt lat="40.7375933" lon="9.07273"><ele>194.0</ele><time>2026-04-30T10:39:11.727Z</time></trkpt><trkpt lat="40.7373917" lon="9.0727694"><ele>196.33333333333334</ele><time>2026-04-30T10:39:12.729Z</time></trkpt><trkpt lat="40.737191" lon="9.0728138"><ele>198.66666666666669</ele><time>2026-04-30T10:39:13.727Z</time></trkpt><trkpt lat="40.7370023" lon="9.0728793"><ele>201.0</ele><time>2026-04-30T10:39:14.727Z</time></trkpt><trkpt lat="40.7368194" lon="9.0729566"><ele>203.0</ele><time>2026-04-30T10:39:15.729Z</time></trkpt><trkpt lat="40.7366403" lon="9.0730581"><ele>205.0</ele><time>2026-04-30T10:39:16.729Z</time></trkpt><trkpt lat="40.7364685" lon="9.0731715"><ele>207.0</ele><time>2026-04-30T10:39:17.725Z</time></trkpt><trkpt lat="40.7363071" lon="9.0733191"><ele>207.0</ele><time>2026-04-30T10:39:18.731Z</time></trkpt><trkpt lat="40.7361558" lon="9.0734841"><ele>207.0</ele><time>2026-04-30T10:39:19.734Z</time></trkpt><trkpt lat="40.7360139" lon="9.07366"><ele>207.0</ele><time>2026-04-30T10:39:20.727Z</time></trkpt><trkpt lat="40.7358767" lon="9.0738652"><ele>209.0</ele><time>2026-04-30T10:39:21.727Z</time></trkpt><trkpt lat="40.7357508" lon="9.0740876"><ele>211.0</ele><time>2026-04-30T10:39:22.724Z</time></trkpt><trkpt lat="40.7356618" lon="9.0743163"><ele>213.0</ele><time>2026-04-30T10:39:23.726Z</time></trkpt><trkpt lat="40.7356007" lon="9.0745569"><ele>213.0</ele><time>2026-04-30T10:39:24.726Z</time></trkpt><trkpt lat="40.7355538" lon="9.0748042"><ele>213.0</ele><time>2026-04-30T10:39:25.727Z</time></trkpt><trkpt lat="40.7355032" lon="9.0750509"><ele>213.0</ele><time>2026-04-30T10:39:26.727Z</time></trkpt><trkpt lat="40.7354355" lon="9.0752884"><ele>214.0</ele><time>2026-04-30T10:39:27.726Z</time></trkpt><trkpt lat="40.7353529" lon="9.075503"><ele>215.0</ele><time>2026-04-30T10:39:28.724Z</time></trkpt><trkpt lat="40.7352586" lon="9.0757047"><ele>216.0</ele><time>2026-04-30T10:39:29.727Z</time></trkpt><trkpt lat="40.7351428" lon="9.0759005"><ele>217.66666666666669</ele><time>2026-04-30T10:39:30.726Z</time></trkpt><trkpt lat="40.7350182" lon="9.0760967"><ele>219.33333333333334</ele><time>2026-04-30T10:39:31.727Z</time></trkpt><trkpt lat="40.7348844" lon="9.0762903"><ele>221.0</ele><time>2026-04-30T10:39:32.729Z</time></trkpt><trkpt lat="40.7347666" lon="9.0764932"><ele>221.33333333333334</ele><time>2026-04-30T10:39:33.735Z</time></trkpt><trkpt lat="40.7346663" lon="9.0767084"><ele>221.66666666666669</ele><time>2026-04-30T10:39:34.724Z</time></trkpt><trkpt lat="40.7345759" lon="9.0769447"><ele>222.0</ele><time>2026-04-30T10:39:35.727Z</time></trkpt><trkpt lat="40.7344882" lon="9.077189"><ele>222.0</ele><time>2026-04-30T10:39:36.73Z</time></trkpt><trkpt lat="40.7344009" lon="9.0774326"><ele>222.0</ele><time>2026-04-30T10:39:37.728Z</time></trkpt><trkpt lat="40.7343203" lon="9.077662"><ele>222.0</ele><time>2026-04-30T10:39:38.728Z</time></trkpt><trkpt lat="40.7342372" lon="9.0778925"><ele>221.66666666666669</ele><time>2026-04-30T10:39:39.728Z</time></trkpt><trkpt lat="40.7341553" lon="9.0781239"><ele>221.33333333333334</ele><time>2026-04-30T10:39:40.73Z</time></trkpt><trkpt lat="40.7340771" lon="9.0783573"><ele>221.0</ele><time>2026-04-30T10:39:41.726Z</time></trkpt><trkpt lat="40.7340065" lon="9.0785962"><ele>220.66666666666669</ele><time>2026-04-30T10:39:42.726Z</time></trkpt><trkpt lat="40.7339278" lon="9.0788216"><ele>220.33333333333331</ele><time>2026-04-30T10:39:43.73Z</time></trkpt><trkpt lat="40.7338506" lon="9.0790422"><ele>220.0</ele><time>2026-04-30T10:39:44.735Z</time></trkpt><trkpt lat="40.7337733" lon="9.0792464"><ele>220.0</ele><time>2026-04-30T10:39:45.727Z</time></trkpt><trkpt lat="40.73369" lon="9.0794454"><ele>220.0</ele><time>2026-04-30T10:39:46.727Z</time></trkpt><trkpt lat="40.7335933" lon="9.079638"><ele>220.0</ele><time>2026-04-30T10:39:47.725Z</time></trkpt><trkpt lat="40.7334724" lon="9.0798016"><ele>219.66666666666666</ele><time>2026-04-30T10:39:48.724Z</time></trkpt><trkpt lat="40.7333376" lon="9.0799465"><ele>219.33333333333331</ele><time>2026-04-30T10:39:49.727Z</time></trkpt><trkpt lat="40.7331807" lon="9.0800617"><ele>219.0</ele><time>2026-04-30T10:39:50.728Z</time></trkpt><trkpt lat="40.7330033" lon="9.0801679"><ele>219.0</ele><time>2026-04-30T10:39:51.727Z</time></trkpt><trkpt lat="40.7328229" lon="9.0802652"><ele>219.0</ele><time>2026-04-30T10:39:52.727Z</time></trkpt><trkpt lat="40.7326445" lon="9.0803599"><ele>219.0</ele><time>2026-04-30T10:39:53.725Z</time></trkpt><trkpt lat="40.7324856" lon="9.0804589"><ele>218.66666666666669</ele><time>2026-04-30T10:39:54.725Z</time></trkpt><trkpt lat="40.7323413" lon="9.0805763"><ele>218.33333333333334</ele><time>2026-04-30T10:39:55.727Z</time></trkpt><trkpt lat="40.7322256" lon="9.0807262"><ele>218.0</ele><time>2026-04-30T10:39:56.725Z</time></trkpt><trkpt lat="40.7321223" lon="9.0809001"><ele>218.0</ele><time>2026-04-30T10:39:57.728Z</time></trkpt><trkpt lat="40.7320397" lon="9.0811013"><ele>218.0</ele><time>2026-04-30T10:39:58.726Z</time></trkpt><trkpt lat="40.7319595" lon="9.0813277"><ele>218.0</ele><time>2026-04-30T10:39:59.727Z</time></trkpt><trkpt lat="40.7318745" lon="9.0815695"><ele>215.33333333333334</ele><time>2026-04-30T10:40:00.726Z</time></trkpt><trkpt lat="40.7317921" lon="9.0818113"><ele>212.66666666666669</ele><time>2026-04-30T10:40:01.726Z</time></trkpt><trkpt lat="40.7317052" lon="9.0820622"><ele>210.0</ele><time>2026-04-30T10:40:02.726Z</time></trkpt><trkpt lat="40.7316193" lon="9.0823256"><ele>210.5</ele><time>2026-04-30T10:40:03.725Z</time></trkpt><trkpt lat="40.7315293" lon="9.0825959"><ele>211.0</ele><time>2026-04-30T10:40:04.728Z</time></trkpt><trkpt lat="40.7314405" lon="9.082886"><ele>211.0</ele><time>2026-04-30T10:40:05.727Z</time></trkpt><trkpt lat="40.7313443" lon="9.0831746"><ele>211.0</ele><time>2026-04-30T10:40:06.728Z</time></trkpt><trkpt lat="40.731244" lon="9.0834688"><ele>210.0</ele><time>2026-04-30T10:40:07.726Z</time></trkpt><trkpt lat="40.7311456" lon="9.0837623"><ele>209.0</ele><time>2026-04-30T10:40:08.725Z</time></trkpt><trkpt lat="40.7310478" lon="9.0840419"><ele>209.0</ele><time>2026-04-30T10:40:09.724Z</time></trkpt><trkpt lat="40.7309549" lon="9.0843094"><ele>209.0</ele><time>2026-04-30T10:40:10.728Z</time></trkpt><trkpt lat="40.7308581" lon="9.0845671"><ele>209.0</ele><time>2026-04-30T10:40:11.726Z</time></trkpt><trkpt lat="40.7307627" lon="9.084806"><ele>210.0</ele><time>2026-04-30T10:40:12.727Z</time></trkpt><trkpt lat="40.73065" lon="9.0850284"><ele>211.0</ele><time>2026-04-30T10:40:13.727Z</time></trkpt><trkpt lat="40.7305237" lon="9.0852321"><ele>212.0</ele><time>2026-04-30T10:40:14.727Z</time></trkpt><trkpt lat="40.7303879" lon="9.0854173"><ele>212.0</ele><time>2026-04-30T10:40:15.731Z</time></trkpt><trkpt lat="40.7302494" lon="9.0855889"><ele>212.0</ele><time>2026-04-30T10:40:16.73Z</time></trkpt><trkpt lat="40.7301073" lon="9.0857401"><ele>212.0</ele><time>2026-04-30T10:40:17.726Z</time></trkpt><trkpt lat="40.7299625" lon="9.0858721"><ele>213.33333333333334</ele><time>2026-04-30T10:40:18.726Z</time></trkpt><trkpt lat="40.7298201" lon="9.0859872"><ele>214.66666666666669</ele><time>2026-04-30T10:40:19.727Z</time></trkpt><trkpt lat="40.7296743" lon="9.0860947"><ele>216.0</ele><time>2026-04-30T10:40:20.73Z</time></trkpt><trkpt lat="40.7295301" lon="9.0862005"><ele>216.0</ele><time>2026-04-30T10:40:21.73Z</time></trkpt><trkpt lat="40.7293986" lon="9.0863053"><ele>216.0</ele><time>2026-04-30T10:40:22.727Z</time></trkpt><trkpt lat="40.7292725" lon="9.0864011"><ele>216.0</ele><time>2026-04-30T10:40:23.727Z</time></trkpt><trkpt lat="40.7291466" lon="9.0864928"><ele>216.0</ele><time>2026-04-30T10:40:24.729Z</time></trkpt><trkpt lat="40.7290274" lon="9.0865874"><ele>214.75</ele><time>2026-04-30T10:40:25.726Z</time></trkpt><trkpt lat="40.7289113" lon="9.0866816"><ele>213.5</ele><time>2026-04-30T10:40:26.725Z</time></trkpt><trkpt lat="40.7288004" lon="9.0867714"><ele>212.25</ele><time>2026-04-30T10:40:27.726Z</time></trkpt><trkpt lat="40.7286871" lon="9.0868534"><ele>211.0</ele><time>2026-04-30T10:40:28.726Z</time></trkpt><trkpt lat="40.7285719" lon="9.0869273"><ele>210.75</ele><time>2026-04-30T10:40:29.727Z</time></trkpt><trkpt lat="40.7284555" lon="9.0869788"><ele>210.5</ele><time>2026-04-30T10:40:30.729Z</time></trkpt><trkpt lat="40.7283428" lon="9.0870083"><ele>210.25</ele><time>2026-04-30T10:40:31.728Z</time></trkpt><trkpt lat="40.7282298" lon="9.0869973"><ele>210.0</ele><time>2026-04-30T10:40:32.73Z</time></trkpt><trkpt lat="40.7281163" lon="9.0869409"><ele>210.0</ele><time>2026-04-30T10:40:33.728Z</time></trkpt><trkpt lat="40.7280227" lon="9.086843"><ele>210.0</ele><time>2026-04-30T10:40:34.726Z</time></trkpt><trkpt lat="40.7279315" lon="9.0867103"><ele>210.0</ele><time>2026-04-30T10:40:35.727Z</time></trkpt><trkpt lat="40.7278318" lon="9.0865662"><ele>210.0</ele><time>2026-04-30T10:40:36.727Z</time></trkpt><trkpt lat="40.7277121" lon="9.0864674"><ele>209.75</ele><time>2026-04-30T10:40:37.726Z</time></trkpt><trkpt lat="40.7275822" lon="9.0864074"><ele>209.5</ele><time>2026-04-30T10:40:38.726Z</time></trkpt><trkpt lat="40.727435" lon="9.0863983"><ele>209.25</ele><time>2026-04-30T10:40:39.727Z</time></trkpt><trkpt lat="40.7272921" lon="9.0864351"><ele>209.0</ele><time>2026-04-30T10:40:40.726Z</time></trkpt><trkpt lat="40.7271596" lon="9.0864975"><ele>209.0</ele><time>2026-04-30T10:40:41.729Z</time></trkpt><trkpt lat="40.7270252" lon="9.0865394"><ele>209.0</ele><time>2026-04-30T10:40:42.729Z</time></trkpt><trkpt lat="40.7268918" lon="9.0865433"><ele>209.0</ele><time>2026-04-30T10:40:43.727Z</time></trkpt><trkpt lat="40.7267693" lon="9.086503"><ele>209.0</ele><time>2026-04-30T10:40:44.726Z</time></trkpt><trkpt lat="40.7266536" lon="9.0864134"><ele>208.33333333333334</ele><time>2026-04-30T10:40:45.728Z</time></trkpt><trkpt lat="40.7265459" lon="9.0862759"><ele>207.66666666666669</ele><time>2026-04-30T10:40:46.726Z</time></trkpt><trkpt lat="40.7264358" lon="9.0861102"><ele>207.0</ele><time>2026-04-30T10:40:47.727Z</time></trkpt><trkpt lat="40.7263146" lon="9.0859016"><ele>206.0</ele><time>2026-04-30T10:40:48.729Z</time></trkpt><trkpt lat="40.7261863" lon="9.08567"><ele>205.0</ele><time>2026-04-30T10:40:49.729Z</time></trkpt><trkpt lat="40.7260401" lon="9.0854193"><ele>204.5</ele><time>2026-04-30T10:40:50.725Z</time></trkpt><trkpt lat="40.7258949" lon="9.0851654"><ele>204.0</ele><time>2026-04-30T10:40:51.729Z</time></trkpt><trkpt lat="40.7257569" lon="9.084919"><ele>204.0</ele><time>2026-04-30T10:40:52.729Z</time></trkpt><trkpt lat="40.7256203" lon="9.0846799"><ele>204.0</ele><time>2026-04-30T10:40:53.727Z</time></trkpt><trkpt lat="40.7254818" lon="9.0844468"><ele>204.0</ele><time>2026-04-30T10:40:54.727Z</time></trkpt><trkpt lat="40.7253424" lon="9.0842069"><ele>204.0</ele><time>2026-04-30T10:40:55.728Z</time></trkpt><trkpt lat="40.7252051" lon="9.0839755"><ele>201.5</ele><time>2026-04-30T10:40:56.728Z</time></trkpt><trkpt lat="40.7250623" lon="9.0837243"><ele>199.0</ele><time>2026-04-30T10:40:57.725Z</time></trkpt><trkpt lat="40.7249177" lon="9.0834634"><ele>199.0</ele><time>2026-04-30T10:40:58.726Z</time></trkpt><trkpt lat="40.7247694" lon="9.0831915"><ele>199.0</ele><time>2026-04-30T10:40:59.728Z</time></trkpt><trkpt lat="40.7246129" lon="9.0828958"><ele>199.0</ele><time>2026-04-30T10:41:00.728Z</time></trkpt><trkpt lat="40.7244533" lon="9.0825948"><ele>199.0</ele><time>2026-04-30T10:41:01.732Z</time></trkpt><trkpt lat="40.7242857" lon="9.0822871"><ele>194.5</ele><time>2026-04-30T10:41:02.727Z</time></trkpt><trkpt lat="40.7241231" lon="9.0819743"><ele>190.0</ele><time>2026-04-30T10:41:03.73Z</time></trkpt><trkpt lat="40.7239582" lon="9.081654"><ele>189.0</ele><time>2026-04-30T10:41:04.725Z</time></trkpt><trkpt lat="40.7237869" lon="9.0813313"><ele>188.0</ele><time>2026-04-30T10:41:05.728Z</time></trkpt><trkpt lat="40.7236188" lon="9.0809947"><ele>184.5</ele><time>2026-04-30T10:41:06.725Z</time></trkpt><trkpt lat="40.7234493" lon="9.0806664"><ele>181.0</ele><time>2026-04-30T10:41:07.727Z</time></trkpt><trkpt lat="40.7232896" lon="9.0803545"><ele>181.0</ele><time>2026-04-30T10:41:08.728Z</time></trkpt><trkpt lat="40.7231277" lon="9.0800379"><ele>181.0</ele><time>2026-04-30T10:41:09.726Z</time></trkpt><trkpt lat="40.7229684" lon="9.0797278"><ele>179.5</ele><time>2026-04-30T10:41:10.73Z</time></trkpt><trkpt lat="40.7228043" lon="9.0794191"><ele>178.0</ele><time>2026-04-30T10:41:11.73Z</time></trkpt><trkpt lat="40.7226498" lon="9.0791082"><ele>178.0</ele><time>2026-04-30T10:41:12.729Z</time></trkpt><trkpt lat="40.7224885" lon="9.0787936"><ele>178.0</ele><time>2026-04-30T10:41:13.725Z</time></trkpt><trkpt lat="40.7223324" lon="9.0784831"><ele>177.0</ele><time>2026-04-30T10:41:14.729Z</time></trkpt><trkpt lat="40.7221733" lon="9.0781764"><ele>176.0</ele><time>2026-04-30T10:41:15.728Z</time></trkpt><trkpt lat="40.7220107" lon="9.0778659"><ele>176.0</ele><time>2026-04-30T10:41:16.726Z</time></trkpt><trkpt lat="40.7218492" lon="9.0775575"><ele>176.0</ele><time>2026-04-30T10:41:17.728Z</time></trkpt><trkpt lat="40.7216947" lon="9.077261"><ele>176.0</ele><time>2026-04-30T10:41:18.729Z</time></trkpt><trkpt lat="40.7215418" lon="9.0769617"><ele>176.0</ele><time>2026-04-30T10:41:19.727Z</time></trkpt><trkpt lat="40.7213949" lon="9.0766674"><ele>178.5</ele><time>2026-04-30T10:41:20.728Z</time></trkpt><trkpt lat="40.7212444" lon="9.0763762"><ele>181.0</ele><time>2026-04-30T10:41:21.728Z</time></trkpt><trkpt lat="40.7210963" lon="9.076088"><ele>181.0</ele><time>2026-04-30T10:41:22.726Z</time></trkpt><trkpt lat="40.7209464" lon="9.0757934"><ele>181.0</ele><time>2026-04-30T10:41:23.73Z</time></trkpt><trkpt lat="40.7207943" lon="9.0754977"><ele>182.5</ele><time>2026-04-30T10:41:24.727Z</time></trkpt><trkpt lat="40.7206424" lon="9.0751912"><ele>184.0</ele><time>2026-04-30T10:41:25.726Z</time></trkpt><trkpt lat="40.7204864" lon="9.0748885"><ele>185.5</ele><time>2026-04-30T10:41:26.726Z</time></trkpt><trkpt lat="40.720328" lon="9.0745837"><ele>187.0</ele><time>2026-04-30T10:41:27.727Z</time></trkpt><trkpt lat="40.7201717" lon="9.0742758"><ele>190.5</ele><time>2026-04-30T10:41:28.727Z</time></trkpt><trkpt lat="40.7200106" lon="9.0739598"><ele>194.0</ele><time>2026-04-30T10:41:29.728Z</time></trkpt><trkpt lat="40.719843" lon="9.0736477"><ele>194.0</ele><time>2026-04-30T10:41:30.729Z</time></trkpt><trkpt lat="40.7196793" lon="9.0733434"><ele>194.0</ele><time>2026-04-30T10:41:31.724Z</time></trkpt><trkpt lat="40.7195238" lon="9.0730386"><ele>196.0</ele><time>2026-04-30T10:41:32.728Z</time></trkpt><trkpt lat="40.7193713" lon="9.0727345"><ele>198.0</ele><time>2026-04-30T10:41:33.728Z</time></trkpt><trkpt lat="40.7192166" lon="9.0724367"><ele>200.0</ele><time>2026-04-30T10:41:34.728Z</time></trkpt><trkpt lat="40.719065" lon="9.0721447"><ele>202.0</ele><time>2026-04-30T10:41:35.727Z</time></trkpt><trkpt lat="40.7189166" lon="9.0718502"><ele>204.5</ele><time>2026-04-30T10:41:36.726Z</time></trkpt><trkpt lat="40.7187697" lon="9.0715603"><ele>207.0</ele><time>2026-04-30T10:41:37.728Z</time></trkpt><trkpt lat="40.71862" lon="9.071268"><ele>207.0</ele><time>2026-04-30T10:41:38.726Z</time></trkpt><trkpt lat="40.7184671" lon="9.0709762"><ele>207.0</ele><time>2026-04-30T10:41:39.727Z</time></trkpt><trkpt lat="40.7183121" lon="9.0706757"><ele>207.0</ele><time>2026-04-30T10:41:40.729Z</time></trkpt><trkpt lat="40.718152" lon="9.0703806"><ele>207.0</ele><time>2026-04-30T10:41:41.726Z</time></trkpt><trkpt lat="40.7179968" lon="9.0700838"><ele>207.0</ele><time>2026-04-30T10:41:42.725Z</time></trkpt><trkpt lat="40.7178464" lon="9.0697831"><ele>207.0</ele><time>2026-04-30T10:41:43.726Z</time></trkpt><trkpt lat="40.7176968" lon="9.0694743"><ele>209.5</ele><time>2026-04-30T10:41:44.73Z</time></trkpt><trkpt lat="40.7175449" lon="9.0691741"><ele>212.0</ele><time>2026-04-30T10:41:45.729Z</time></trkpt><trkpt lat="40.7173982" lon="9.0688706"><ele>214.0</ele><time>2026-04-30T10:41:46.725Z</time></trkpt><trkpt lat="40.7172454" lon="9.0685682"><ele>216.0</ele><time>2026-04-30T10:41:47.725Z</time></trkpt><trkpt lat="40.7170891" lon="9.0682595"><ele>217.5</ele><time>2026-04-30T10:41:48.726Z</time></trkpt><trkpt lat="40.7169284" lon="9.0679495"><ele>219.0</ele><time>2026-04-30T10:41:49.727Z</time></trkpt><trkpt lat="40.716765" lon="9.0676405"><ele>223.0</ele><time>2026-04-30T10:41:50.728Z</time></trkpt><trkpt lat="40.7166063" lon="9.0673358"><ele>227.0</ele><time>2026-04-30T10:41:51.729Z</time></trkpt><trkpt lat="40.7164482" lon="9.0670249"><ele>227.0</ele><time>2026-04-30T10:41:52.728Z</time></trkpt><trkpt lat="40.7162861" lon="9.0667218"><ele>227.0</ele><time>2026-04-30T10:41:53.726Z</time></trkpt><trkpt lat="40.7161284" lon="9.0664136"><ele>229.5</ele><time>2026-04-30T10:41:54.727Z</time></trkpt><trkpt lat="40.7159679" lon="9.0660905"><ele>232.0</ele><time>2026-04-30T10:41:55.726Z</time></trkpt><trkpt lat="40.7158013" lon="9.0657712"><ele>234.5</ele><time>2026-04-30T10:41:56.726Z</time></trkpt><trkpt lat="40.7156321" lon="9.065446"><ele>237.0</ele><time>2026-04-30T10:41:57.731Z</time></trkpt><trkpt lat="40.7154625" lon="9.0651206"><ele>237.0</ele><time>2026-04-30T10:41:58.727Z</time></trkpt><trkpt lat="40.7152911" lon="9.0647914"><ele>237.0</ele><time>2026-04-30T10:41:59.727Z</time></trkpt><trkpt lat="40.7151207" lon="9.0644638"><ele>237.0</ele><time>2026-04-30T10:42:00.725Z</time></trkpt><trkpt lat="40.7149585" lon="9.0641238"><ele>237.0</ele><time>2026-04-30T10:42:01.725Z</time></trkpt><trkpt lat="40.7147906" lon="9.0637903"><ele>237.5</ele><time>2026-04-30T10:42:02.726Z</time></trkpt><trkpt lat="40.7146228" lon="9.0634577"><ele>238.0</ele><time>2026-04-30T10:42:03.725Z</time></trkpt><trkpt lat="40.7144534" lon="9.0631377"><ele>236.0</ele><time>2026-04-30T10:42:04.727Z</time></trkpt><trkpt lat="40.7142786" lon="9.0628104"><ele>234.0</ele><time>2026-04-30T10:42:05.727Z</time></trkpt><trkpt lat="40.7141148" lon="9.0624954"><ele>234.5</ele><time>2026-04-30T10:42:06.726Z</time></trkpt><trkpt lat="40.7139501" lon="9.0621654"><ele>235.0</ele><time>2026-04-30T10:42:07.726Z</time></trkpt><trkpt lat="40.7137862" lon="9.0618478"><ele>235.0</ele><time>2026-04-30T10:42:08.726Z</time></trkpt><trkpt lat="40.7136271" lon="9.0615324"><ele>235.0</ele><time>2026-04-30T10:42:09.724Z</time></trkpt><trkpt lat="40.7134589" lon="9.0612224"><ele>231.5</ele><time>2026-04-30T10:42:10.73Z</time></trkpt><trkpt lat="40.7132972" lon="9.0609096"><ele>228.0</ele><time>2026-04-30T10:42:11.723Z</time></trkpt><trkpt lat="40.7131351" lon="9.0605804"><ele>228.0</ele><time>2026-04-30T10:42:12.726Z</time></trkpt><trkpt lat="40.7129674" lon="9.06026"><ele>228.0</ele><time>2026-04-30T10:42:13.726Z</time></trkpt><trkpt lat="40.7128056" lon="9.0599302"><ele>226.0</ele><time>2026-04-30T10:42:14.728Z</time></trkpt><trkpt lat="40.7126415" lon="9.0596075"><ele>224.0</ele><time>2026-04-30T10:42:15.727Z</time></trkpt><trkpt lat="40.7124775" lon="9.0592801"><ele>228.0</ele><time>2026-04-30T10:42:16.726Z</time></trkpt><trkpt lat="40.7123121" lon="9.058957"><ele>232.0</ele><time>2026-04-30T10:42:17.726Z</time></trkpt><trkpt lat="40.7121535" lon="9.0586431"><ele>232.0</ele><time>2026-04-30T10:42:18.726Z</time></trkpt><trkpt lat="40.7119896" lon="9.0583308"><ele>232.0</ele><time>2026-04-30T10:42:19.727Z</time></trkpt><trkpt lat="40.7118272" lon="9.0580245"><ele>228.0</ele><time>2026-04-30T10:42:20.726Z</time></trkpt><trkpt lat="40.7116641" lon="9.0577153"><ele>224.0</ele><time>2026-04-30T10:42:21.726Z</time></trkpt><trkpt lat="40.7115055" lon="9.057405"><ele>220.5</ele><time>2026-04-30T10:42:22.729Z</time></trkpt><trkpt lat="40.7113467" lon="9.0570857"><ele>217.0</ele><time>2026-04-30T10:42:23.728Z</time></trkpt><trkpt lat="40.711183" lon="9.0567669"><ele>215.5</ele><time>2026-04-30T10:42:24.728Z</time></trkpt><trkpt lat="40.7110211" lon="9.0564525"><ele>214.0</ele><time>2026-04-30T10:42:25.725Z</time></trkpt><trkpt lat="40.7108605" lon="9.0561455"><ele>214.0</ele><time>2026-04-30T10:42:26.724Z</time></trkpt><trkpt lat="40.7107023" lon="9.0558345"><ele>214.0</ele><time>2026-04-30T10:42:27.726Z</time></trkpt><trkpt lat="40.7105362" lon="9.0555318"><ele>211.0</ele><time>2026-04-30T10:42:28.725Z</time></trkpt><trkpt lat="40.7103738" lon="9.0552296"><ele>208.0</ele><time>2026-04-30T10:42:29.729Z</time></trkpt><trkpt lat="40.7102064" lon="9.0549246"><ele>208.0</ele><time>2026-04-30T10:42:30.729Z</time></trkpt><trkpt lat="40.7100415" lon="9.0546299"><ele>208.0</ele><time>2026-04-30T10:42:31.729Z</time></trkpt><trkpt lat="40.7098698" lon="9.054328"><ele>206.0</ele><time>2026-04-30T10:42:32.728Z</time></trkpt><trkpt lat="40.7096967" lon="9.0540253"><ele>204.0</ele><time>2026-04-30T10:42:33.727Z</time></trkpt><trkpt lat="40.7095156" lon="9.0537274"><ele>203.5</ele><time>2026-04-30T10:42:34.729Z</time></trkpt><trkpt lat="40.7093319" lon="9.0534324"><ele>203.0</ele><time>2026-04-30T10:42:35.73Z</time></trkpt><trkpt lat="40.7091444" lon="9.0531386"><ele>203.0</ele><time>2026-04-30T10:42:36.728Z</time></trkpt><trkpt lat="40.7089531" lon="9.0528424"><ele>203.0</ele><time>2026-04-30T10:42:37.728Z</time></trkpt><trkpt lat="40.7087598" lon="9.0525537"><ele>200.5</ele><time>2026-04-30T10:42:38.728Z</time></trkpt><trkpt lat="40.7085659" lon="9.0522733"><ele>198.0</ele><time>2026-04-30T10:42:39.729Z</time></trkpt><trkpt lat="40.7083699" lon="9.0519868"><ele>198.0</ele><time>2026-04-30T10:42:40.727Z</time></trkpt><trkpt lat="40.708173" lon="9.0517093"><ele>198.0</ele><time>2026-04-30T10:42:41.728Z</time></trkpt><trkpt lat="40.7079709" lon="9.0514349"><ele>197.5</ele><time>2026-04-30T10:42:42.725Z</time></trkpt><trkpt lat="40.7077629" lon="9.0511683"><ele>197.0</ele><time>2026-04-30T10:42:43.728Z</time></trkpt><trkpt lat="40.7075515" lon="9.0508999"><ele>194.0</ele><time>2026-04-30T10:42:44.726Z</time></trkpt><trkpt lat="40.7073415" lon="9.0506365"><ele>191.0</ele><time>2026-04-30T10:42:45.727Z</time></trkpt><trkpt lat="40.7071302" lon="9.0503911"><ele>191.0</ele><time>2026-04-30T10:42:46.726Z</time></trkpt><trkpt lat="40.7069158" lon="9.0501452"><ele>191.0</ele><time>2026-04-30T10:42:47.726Z</time></trkpt><trkpt lat="40.7066964" lon="9.0498926"><ele>186.0</ele><time>2026-04-30T10:42:48.726Z</time></trkpt><trkpt lat="40.7064799" lon="9.049643"><ele>181.0</ele><time>2026-04-30T10:42:49.726Z</time></trkpt><trkpt lat="40.7062569" lon="9.0494016"><ele>181.5</ele><time>2026-04-30T10:42:50.73Z</time></trkpt><trkpt lat="40.7060291" lon="9.0491609"><ele>182.0</ele><time>2026-04-30T10:42:51.728Z</time></trkpt><trkpt lat="40.7058043" lon="9.0489251"><ele>179.5</ele><time>2026-04-30T10:42:52.726Z</time></trkpt><trkpt lat="40.7055727" lon="9.0486969"><ele>177.0</ele><time>2026-04-30T10:42:53.726Z</time></trkpt><trkpt lat="40.705337" lon="9.0484705"><ele>175.0</ele><time>2026-04-30T10:42:54.725Z</time></trkpt><trkpt lat="40.7051021" lon="9.0482505"><ele>173.0</ele><time>2026-04-30T10:42:55.725Z</time></trkpt><trkpt lat="40.7048653" lon="9.0480292"><ele>173.0</ele><time>2026-04-30T10:42:56.729Z</time></trkpt><trkpt lat="40.7046248" lon="9.0478122"><ele>173.0</ele><time>2026-04-30T10:42:57.726Z</time></trkpt><trkpt lat="40.7043825" lon="9.0475957"><ele>170.0</ele><time>2026-04-30T10:42:58.727Z</time></trkpt><trkpt lat="40.7041421" lon="9.047376"><ele>167.0</ele><time>2026-04-30T10:42:59.727Z</time></trkpt><trkpt lat="40.7039032" lon="9.0471607"><ele>167.0</ele><time>2026-04-30T10:43:00.724Z</time></trkpt><trkpt lat="40.7036666" lon="9.0469527"><ele>167.0</ele><time>2026-04-30T10:43:01.726Z</time></trkpt><trkpt lat="40.7034397" lon="9.0467466"><ele>166.0</ele><time>2026-04-30T10:43:02.724Z</time></trkpt><trkpt lat="40.7032065" lon="9.0465409"><ele>165.0</ele><time>2026-04-30T10:43:03.728Z</time></trkpt><trkpt lat="40.7029772" lon="9.0463443"><ele>165.0</ele><time>2026-04-30T10:43:04.729Z</time></trkpt><trkpt lat="40.70275" lon="9.0461418"><ele>165.0</ele><time>2026-04-30T10:43:05.726Z</time></trkpt><trkpt lat="40.7025215" lon="9.0459399"><ele>164.5</ele><time>2026-04-30T10:43:06.726Z</time></trkpt><trkpt lat="40.7022885" lon="9.0457351"><ele>164.0</ele><time>2026-04-30T10:43:07.727Z</time></trkpt><trkpt lat="40.7020546" lon="9.0455342"><ele>166.5</ele><time>2026-04-30T10:43:08.729Z</time></trkpt><trkpt lat="40.7018187" lon="9.0453276"><ele>169.0</ele><time>2026-04-30T10:43:09.723Z</time></trkpt><trkpt lat="40.7015848" lon="9.0451208"><ele>170.0</ele><time>2026-04-30T10:43:10.726Z</time></trkpt><trkpt lat="40.7013475" lon="9.0449025"><ele>171.0</ele><time>2026-04-30T10:43:11.725Z</time></trkpt><trkpt lat="40.7011042" lon="9.0446912"><ele>171.0</ele><time>2026-04-30T10:43:12.728Z</time></trkpt><trkpt lat="40.7008614" lon="9.0444849"><ele>171.0</ele><time>2026-04-30T10:43:13.726Z</time></trkpt><trkpt lat="40.7006172" lon="9.0442723"><ele>170.0</ele><time>2026-04-30T10:43:14.724Z</time></trkpt><trkpt lat="40.7003707" lon="9.0440601"><ele>169.0</ele><time>2026-04-30T10:43:15.726Z</time></trkpt><trkpt lat="40.7001234" lon="9.0438505"><ele>167.0</ele><time>2026-04-30T10:43:16.724Z</time></trkpt><trkpt lat="40.6998801" lon="9.043635"><ele>165.0</ele><time>2026-04-30T10:43:17.727Z</time></trkpt><trkpt lat="40.6996336" lon="9.043423"><ele>165.0</ele><time>2026-04-30T10:43:18.742Z</time></trkpt><trkpt lat="40.6993928" lon="9.0432068"><ele>165.0</ele><time>2026-04-30T10:43:19.726Z</time></trkpt><trkpt lat="40.6991564" lon="9.0429873"><ele>165.0</ele><time>2026-04-30T10:43:20.725Z</time></trkpt><trkpt lat="40.6989164" lon="9.0427727"><ele>165.0</ele><time>2026-04-30T10:43:21.727Z</time></trkpt><trkpt lat="40.6986755" lon="9.0425583"><ele>166.0</ele><time>2026-04-30T10:43:22.727Z</time></trkpt><trkpt lat="40.6984355" lon="9.0423468"><ele>167.0</ele><time>2026-04-30T10:43:23.728Z</time></trkpt><trkpt lat="40.6981975" lon="9.0421394"><ele>167.0</ele><time>2026-04-30T10:43:24.726Z</time></trkpt><trkpt lat="40.69796" lon="9.0419324"><ele>167.0</ele><time>2026-04-30T10:43:25.726Z</time></trkpt><trkpt lat="40.6977262" lon="9.0417319"><ele>171.0</ele><time>2026-04-30T10:43:26.73Z</time></trkpt><trkpt lat="40.6974965" lon="9.0415206"><ele>175.0</ele><time>2026-04-30T10:43:27.725Z</time></trkpt><trkpt lat="40.6972616" lon="9.0413171"><ele>175.0</ele><time>2026-04-30T10:43:28.728Z</time></trkpt><trkpt lat="40.6970315" lon="9.0411151"><ele>175.0</ele><time>2026-04-30T10:43:29.725Z</time></trkpt><trkpt lat="40.6968028" lon="9.040912"><ele>176.5</ele><time>2026-04-30T10:43:30.728Z</time></trkpt><trkpt lat="40.6965722" lon="9.040716"><ele>178.0</ele><time>2026-04-30T10:43:31.728Z</time></trkpt><trkpt lat="40.6963412" lon="9.0405056"><ele>178.0</ele><time>2026-04-30T10:43:32.727Z</time></trkpt><trkpt lat="40.6961063" lon="9.0402904"><ele>178.0</ele><time>2026-04-30T10:43:33.725Z</time></trkpt><trkpt lat="40.6958653" lon="9.0400871"><ele>178.0</ele><time>2026-04-30T10:43:34.729Z</time></trkpt><trkpt lat="40.6956295" lon="9.0398722"><ele>178.0</ele><time>2026-04-30T10:43:35.729Z</time></trkpt><trkpt lat="40.6953926" lon="9.0396635"><ele>179.5</ele><time>2026-04-30T10:43:36.729Z</time></trkpt><trkpt lat="40.6951493" lon="9.0394536"><ele>181.0</ele><time>2026-04-30T10:43:37.726Z</time></trkpt><trkpt lat="40.69491" lon="9.0392393"><ele>181.0</ele><time>2026-04-30T10:43:38.727Z</time></trkpt><trkpt lat="40.6946656" lon="9.0390263"><ele>181.0</ele><time>2026-04-30T10:43:39.727Z</time></trkpt><trkpt lat="40.6944197" lon="9.0388116"><ele>181.0</ele><time>2026-04-30T10:43:40.726Z</time></trkpt><trkpt lat="40.6941697" lon="9.0385963"><ele>181.0</ele><time>2026-04-30T10:43:41.726Z</time></trkpt><trkpt lat="40.6939181" lon="9.0383821"><ele>180.0</ele><time>2026-04-30T10:43:42.726Z</time></trkpt><trkpt lat="40.693672" lon="9.0381757"><ele>179.0</ele><time>2026-04-30T10:43:43.728Z</time></trkpt><trkpt lat="40.6934248" lon="9.0379701"><ele>179.0</ele><time>2026-04-30T10:43:44.727Z</time></trkpt><trkpt lat="40.6931791" lon="9.0377639"><ele>179.0</ele><time>2026-04-30T10:43:45.726Z</time></trkpt><trkpt lat="40.6929332" lon="9.0375492"><ele>179.0</ele><time>2026-04-30T10:43:46.725Z</time></trkpt><trkpt lat="40.6926888" lon="9.0373362"><ele>179.0</ele><time>2026-04-30T10:43:47.725Z</time></trkpt><trkpt lat="40.6924435" lon="9.037118"><ele>179.0</ele><time>2026-04-30T10:43:48.725Z</time></trkpt><trkpt lat="40.6922072" lon="9.0369021"><ele>179.0</ele><time>2026-04-30T10:43:49.725Z</time></trkpt><trkpt lat="40.6919719" lon="9.0366925"><ele>181.5</ele><time>2026-04-30T10:43:50.726Z</time></trkpt><trkpt lat="40.6917358" lon="9.0364755"><ele>184.0</ele><time>2026-04-30T10:43:51.726Z</time></trkpt><trkpt lat="40.6914996" lon="9.0362551"><ele>184.0</ele><time>2026-04-30T10:43:52.73Z</time></trkpt><trkpt lat="40.691262" lon="9.0360417"><ele>184.0</ele><time>2026-04-30T10:43:53.729Z</time></trkpt><trkpt lat="40.6910215" lon="9.0358297"><ele>184.0</ele><time>2026-04-30T10:43:54.727Z</time></trkpt><trkpt lat="40.6907843" lon="9.0356175"><ele>184.0</ele><time>2026-04-30T10:43:55.727Z</time></trkpt><trkpt lat="40.6905484" lon="9.0354083"><ele>184.0</ele><time>2026-04-30T10:43:56.726Z</time></trkpt><trkpt lat="40.6903234" lon="9.035202"><ele>184.0</ele><time>2026-04-30T10:43:57.725Z</time></trkpt><trkpt lat="40.6900995" lon="9.0349948"><ele>181.5</ele><time>2026-04-30T10:43:58.726Z</time></trkpt><trkpt lat="40.6898802" lon="9.0347968"><ele>179.0</ele><time>2026-04-30T10:43:59.725Z</time></trkpt><trkpt lat="40.6896619" lon="9.0346063"><ele>179.0</ele><time>2026-04-30T10:44:00.723Z</time></trkpt><trkpt lat="40.6894518" lon="9.0344198"><ele>179.0</ele><time>2026-04-30T10:44:01.726Z</time></trkpt><trkpt lat="40.6892386" lon="9.0342357"><ele>180.0</ele><time>2026-04-30T10:44:02.727Z</time></trkpt><trkpt lat="40.689028" lon="9.0340492"><ele>181.0</ele><time>2026-04-30T10:44:03.725Z</time></trkpt><trkpt lat="40.6888209" lon="9.0338623"><ele>181.0</ele><time>2026-04-30T10:44:04.726Z</time></trkpt><trkpt lat="40.6886069" lon="9.0336725"><ele>181.0</ele><time>2026-04-30T10:44:05.724Z</time></trkpt><trkpt lat="40.6883944" lon="9.0334751"><ele>180.5</ele><time>2026-04-30T10:44:06.725Z</time></trkpt><trkpt lat="40.6881803" lon="9.0332799"><ele>180.0</ele><time>2026-04-30T10:44:07.726Z</time></trkpt><trkpt lat="40.6879672" lon="9.0330792"><ele>180.5</ele><time>2026-04-30T10:44:08.728Z</time></trkpt><trkpt lat="40.6877578" lon="9.0328787"><ele>181.0</ele><time>2026-04-30T10:44:09.727Z</time></trkpt><trkpt lat="40.6875489" lon="9.0326777"><ele>180.0</ele><time>2026-04-30T10:44:10.724Z</time></trkpt><trkpt lat="40.6873434" lon="9.032469"><ele>179.0</ele><time>2026-04-30T10:44:11.725Z</time></trkpt><trkpt lat="40.6871468" lon="9.0322671"><ele>179.0</ele><time>2026-04-30T10:44:12.725Z</time></trkpt><trkpt lat="40.6869539" lon="9.0320691"><ele>179.0</ele><time>2026-04-30T10:44:13.725Z</time></trkpt><trkpt lat="40.6867644" lon="9.0318709"><ele>178.5</ele><time>2026-04-30T10:44:14.727Z</time></trkpt><trkpt lat="40.6865797" lon="9.0316662"><ele>178.0</ele><time>2026-04-30T10:44:15.726Z</time></trkpt><trkpt lat="40.6863996" lon="9.0314636"><ele>178.0</ele><time>2026-04-30T10:44:16.728Z</time></trkpt><trkpt lat="40.6862211" lon="9.0312546"><ele>178.0</ele><time>2026-04-30T10:44:17.727Z</time></trkpt><trkpt lat="40.6860462" lon="9.0310439"><ele>178.0</ele><time>2026-04-30T10:44:18.726Z</time></trkpt><trkpt lat="40.6858724" lon="9.0308357"><ele>178.0</ele><time>2026-04-30T10:44:19.736Z</time></trkpt><trkpt lat="40.6857066" lon="9.0306256"><ele>178.0</ele><time>2026-04-30T10:44:20.73Z</time></trkpt><trkpt lat="40.6855395" lon="9.0304143"><ele>178.0</ele><time>2026-04-30T10:44:21.726Z</time></trkpt><trkpt lat="40.6853731" lon="9.0301947"><ele>178.5</ele><time>2026-04-30T10:44:22.727Z</time></trkpt><trkpt lat="40.6852037" lon="9.0299784"><ele>179.0</ele><time>2026-04-30T10:44:23.727Z</time></trkpt><trkpt lat="40.6850408" lon="9.0297544"><ele>179.0</ele><time>2026-04-30T10:44:24.725Z</time></trkpt><trkpt lat="40.6848788" lon="9.0295246"><ele>179.0</ele><time>2026-04-30T10:44:25.735Z</time></trkpt><trkpt lat="40.6847152" lon="9.0293027"><ele>179.0</ele><time>2026-04-30T10:44:26.728Z</time></trkpt><trkpt lat="40.684559" lon="9.0290724"><ele>179.0</ele><time>2026-04-30T10:44:27.727Z</time></trkpt><trkpt lat="40.6843995" lon="9.0288397"><ele>180.0</ele><time>2026-04-30T10:44:28.728Z</time></trkpt><trkpt lat="40.6842429" lon="9.0286026"><ele>181.0</ele><time>2026-04-30T10:44:29.726Z</time></trkpt><trkpt lat="40.6840894" lon="9.0283666"><ele>180.5</ele><time>2026-04-30T10:44:30.726Z</time></trkpt><trkpt lat="40.6839369" lon="9.028125"><ele>180.0</ele><time>2026-04-30T10:44:31.726Z</time></trkpt><trkpt lat="40.6837871" lon="9.0278708"><ele>180.0</ele><time>2026-04-30T10:44:32.728Z</time></trkpt><trkpt lat="40.6836327" lon="9.0276138"><ele>180.0</ele><time>2026-04-30T10:44:33.727Z</time></trkpt><trkpt lat="40.6834827" lon="9.0273539"><ele>180.5</ele><time>2026-04-30T10:44:34.732Z</time></trkpt><trkpt lat="40.6833341" lon="9.0270926"><ele>181.0</ele><time>2026-04-30T10:44:35.729Z</time></trkpt><trkpt lat="40.6831867" lon="9.0268222"><ele>181.5</ele><time>2026-04-30T10:44:36.725Z</time></trkpt><trkpt lat="40.6830381" lon="9.0265494"><ele>182.0</ele><time>2026-04-30T10:44:37.724Z</time></trkpt><trkpt lat="40.6828864" lon="9.0262704"><ele>183.0</ele><time>2026-04-30T10:44:38.726Z</time></trkpt><trkpt lat="40.6827405" lon="9.0259885"><ele>184.0</ele><time>2026-04-30T10:44:39.727Z</time></trkpt><trkpt lat="40.6825945" lon="9.0257041"><ele>185.0</ele><time>2026-04-30T10:44:40.726Z</time></trkpt><trkpt lat="40.6824571" lon="9.0254139"><ele>186.0</ele><time>2026-04-30T10:44:41.728Z</time></trkpt><trkpt lat="40.6823207" lon="9.0250994"><ele>186.0</ele><time>2026-04-30T10:44:42.727Z</time></trkpt><trkpt lat="40.6821833" lon="9.0247954"><ele>186.0</ele><time>2026-04-30T10:44:43.726Z</time></trkpt><trkpt lat="40.6820509" lon="9.0244943"><ele>187.5</ele><time>2026-04-30T10:44:44.725Z</time></trkpt><trkpt lat="40.6819204" lon="9.024186"><ele>189.0</ele><time>2026-04-30T10:44:45.727Z</time></trkpt><trkpt lat="40.6817884" lon="9.023861"><ele>189.5</ele><time>2026-04-30T10:44:46.727Z</time></trkpt><trkpt lat="40.6816578" lon="9.0235204"><ele>190.0</ele><time>2026-04-30T10:44:47.726Z</time></trkpt><trkpt lat="40.6815233" lon="9.0231695"><ele>190.0</ele><time>2026-04-30T10:44:48.725Z</time></trkpt><trkpt lat="40.6813949" lon="9.0228106"><ele>190.0</ele><time>2026-04-30T10:44:49.727Z</time></trkpt><trkpt lat="40.6812654" lon="9.0224616"><ele>189.5</ele><time>2026-04-30T10:44:50.724Z</time></trkpt><trkpt lat="40.6811392" lon="9.0221078"><ele>189.0</ele><time>2026-04-30T10:44:51.725Z</time></trkpt><trkpt lat="40.6810158" lon="9.0217482"><ele>187.0</ele><time>2026-04-30T10:44:52.726Z</time></trkpt><trkpt lat="40.6808962" lon="9.0213805"><ele>185.0</ele><time>2026-04-30T10:44:53.727Z</time></trkpt><trkpt lat="40.6807817" lon="9.0210129"><ele>184.0</ele><time>2026-04-30T10:44:54.726Z</time></trkpt><trkpt lat="40.680668" lon="9.0206432"><ele>183.0</ele><time>2026-04-30T10:44:55.725Z</time></trkpt><trkpt lat="40.6805531" lon="9.020272"><ele>181.5</ele><time>2026-04-30T10:44:56.726Z</time></trkpt><trkpt lat="40.6804535" lon="9.0198958"><ele>180.0</ele><time>2026-04-30T10:44:57.728Z</time></trkpt><trkpt lat="40.6803563" lon="9.019522"><ele>180.0</ele><time>2026-04-30T10:44:58.729Z</time></trkpt><trkpt lat="40.6802679" lon="9.0191696"><ele>180.0</ele><time>2026-04-30T10:44:59.725Z</time></trkpt><trkpt lat="40.680186" lon="9.0188141"><ele>179.0</ele><time>2026-04-30T10:45:00.727Z</time></trkpt><trkpt lat="40.6801054" lon="9.018467"><ele>178.0</ele><time>2026-04-30T10:45:01.726Z</time></trkpt><trkpt lat="40.6800284" lon="9.0181099"><ele>177.5</ele><time>2026-04-30T10:45:02.727Z</time></trkpt><trkpt lat="40.6799501" lon="9.0177596"><ele>177.0</ele><time>2026-04-30T10:45:03.725Z</time></trkpt><trkpt lat="40.6798787" lon="9.0174079"><ele>177.0</ele><time>2026-04-30T10:45:04.726Z</time></trkpt><trkpt lat="40.67981" lon="9.0170554"><ele>177.0</ele><time>2026-04-30T10:45:05.726Z</time></trkpt><trkpt lat="40.6797394" lon="9.0166991"><ele>176.5</ele><time>2026-04-30T10:45:06.727Z</time></trkpt><trkpt lat="40.6796686" lon="9.0163416"><ele>176.0</ele><time>2026-04-30T10:45:07.726Z</time></trkpt><trkpt lat="40.679598" lon="9.0159873"><ele>176.0</ele><time>2026-04-30T10:45:08.725Z</time></trkpt><trkpt lat="40.6795298" lon="9.0156254"><ele>176.0</ele><time>2026-04-30T10:45:09.725Z</time></trkpt><trkpt lat="40.6794646" lon="9.0152694"><ele>176.5</ele><time>2026-04-30T10:45:10.729Z</time></trkpt><trkpt lat="40.679397" lon="9.0149196"><ele>177.0</ele><time>2026-04-30T10:45:11.727Z</time></trkpt><trkpt lat="40.6793286" lon="9.0145641"><ele>177.0</ele><time>2026-04-30T10:45:12.728Z</time></trkpt><trkpt lat="40.6792652" lon="9.0142022"><ele>177.0</ele><time>2026-04-30T10:45:13.727Z</time></trkpt><trkpt lat="40.6791976" lon="9.0138476"><ele>177.0</ele><time>2026-04-30T10:45:14.726Z</time></trkpt><trkpt lat="40.6791339" lon="9.0134973"><ele>177.0</ele><time>2026-04-30T10:45:15.724Z</time></trkpt><trkpt lat="40.6790633" lon="9.0131494"><ele>177.0</ele><time>2026-04-30T10:45:16.726Z</time></trkpt><trkpt lat="40.6789848" lon="9.0128013"><ele>177.0</ele><time>2026-04-30T10:45:17.723Z</time></trkpt><trkpt lat="40.678903" lon="9.0124447"><ele>176.0</ele><time>2026-04-30T10:45:18.725Z</time></trkpt><trkpt lat="40.6788179" lon="9.0120835"><ele>175.0</ele><time>2026-04-30T10:45:19.73Z</time></trkpt><trkpt lat="40.6787332" lon="9.0117147"><ele>175.5</ele><time>2026-04-30T10:45:20.726Z</time></trkpt><trkpt lat="40.6786435" lon="9.0113388"><ele>176.0</ele><time>2026-04-30T10:45:21.726Z</time></trkpt><trkpt lat="40.678547" lon="9.0109734"><ele>177.5</ele><time>2026-04-30T10:45:22.726Z</time></trkpt><trkpt lat="40.6784489" lon="9.0106021"><ele>179.0</ele><time>2026-04-30T10:45:23.725Z</time></trkpt><trkpt lat="40.678346" lon="9.0102324"><ele>177.0</ele><time>2026-04-30T10:45:24.725Z</time></trkpt><trkpt lat="40.6782437" lon="9.0098628"><ele>175.0</ele><time>2026-04-30T10:45:25.729Z</time></trkpt><trkpt lat="40.6781409" lon="9.0094945"><ele>174.0</ele><time>2026-04-30T10:45:26.727Z</time></trkpt><trkpt lat="40.6780302" lon="9.0091328"><ele>173.0</ele><time>2026-04-30T10:45:27.726Z</time></trkpt><trkpt lat="40.6779165" lon="9.0087707"><ele>173.0</ele><time>2026-04-30T10:45:28.725Z</time></trkpt><trkpt lat="40.6777964" lon="9.0084228"><ele>173.0</ele><time>2026-04-30T10:45:29.724Z</time></trkpt><trkpt lat="40.6776774" lon="9.0080861"><ele>173.5</ele><time>2026-04-30T10:45:30.725Z</time></trkpt><trkpt lat="40.6775487" lon="9.007749"><ele>174.0</ele><time>2026-04-30T10:45:31.727Z</time></trkpt><trkpt lat="40.6774207" lon="9.0074246"><ele>172.5</ele><time>2026-04-30T10:45:32.73Z</time></trkpt><trkpt lat="40.677291" lon="9.0071068"><ele>171.0</ele><time>2026-04-30T10:45:33.727Z</time></trkpt><trkpt lat="40.6771602" lon="9.0067931"><ele>171.5</ele><time>2026-04-30T10:45:34.727Z</time></trkpt><trkpt lat="40.6770266" lon="9.0064762"><ele>172.0</ele><time>2026-04-30T10:45:35.724Z</time></trkpt><trkpt lat="40.6768908" lon="9.0061566"><ele>172.0</ele><time>2026-04-30T10:45:36.726Z</time></trkpt><trkpt lat="40.6767524" lon="9.0058395"><ele>172.0</ele><time>2026-04-30T10:45:37.729Z</time></trkpt><trkpt lat="40.6766188" lon="9.0055146"><ele>172.5</ele><time>2026-04-30T10:45:38.725Z</time></trkpt><trkpt lat="40.6764819" lon="9.0052054"><ele>173.0</ele><time>2026-04-30T10:45:39.726Z</time></trkpt><trkpt lat="40.6763473" lon="9.0048925"><ele>173.0</ele><time>2026-04-30T10:45:40.726Z</time></trkpt><trkpt lat="40.6762096" lon="9.0045773"><ele>173.0</ele><time>2026-04-30T10:45:41.724Z</time></trkpt><trkpt lat="40.6760766" lon="9.004257"><ele>172.5</ele><time>2026-04-30T10:45:42.725Z</time></trkpt><trkpt lat="40.6759391" lon="9.0039355"><ele>172.0</ele><time>2026-04-30T10:45:43.723Z</time></trkpt><trkpt lat="40.6758006" lon="9.0036336"><ele>171.5</ele><time>2026-04-30T10:45:44.727Z</time></trkpt><trkpt lat="40.6756637" lon="9.0033276"><ele>171.0</ele><time>2026-04-30T10:45:45.728Z</time></trkpt><trkpt lat="40.6755285" lon="9.0030186"><ele>171.0</ele><time>2026-04-30T10:45:46.727Z</time></trkpt><trkpt lat="40.6753964" lon="9.0027071"><ele>171.0</ele><time>2026-04-30T10:45:47.724Z</time></trkpt><trkpt lat="40.6752644" lon="9.0024024"><ele>171.0</ele><time>2026-04-30T10:45:48.725Z</time></trkpt><trkpt lat="40.6751344" lon="9.0021134"><ele>171.0</ele><time>2026-04-30T10:45:49.725Z</time></trkpt><trkpt lat="40.6750077" lon="9.0018228"><ele>171.0</ele><time>2026-04-30T10:45:50.726Z</time></trkpt><trkpt lat="40.6748913" lon="9.0015449"><ele>171.0</ele><time>2026-04-30T10:45:51.725Z</time></trkpt><trkpt lat="40.6747779" lon="9.0012646"><ele>171.0</ele><time>2026-04-30T10:45:52.727Z</time></trkpt><trkpt lat="40.6746777" lon="9.0009902"><ele>171.0</ele><time>2026-04-30T10:45:53.727Z</time></trkpt><trkpt lat="40.6745717" lon="9.0007205"><ele>171.5</ele><time>2026-04-30T10:45:54.725Z</time></trkpt><trkpt lat="40.6744727" lon="9.0004359"><ele>172.0</ele><time>2026-04-30T10:45:55.724Z</time></trkpt><trkpt lat="40.6743771" lon="9.0001533"><ele>170.5</ele><time>2026-04-30T10:45:56.725Z</time></trkpt><trkpt lat="40.674287" lon="8.9998739"><ele>169.0</ele><time>2026-04-30T10:45:57.725Z</time></trkpt><trkpt lat="40.6742106" lon="8.9995816"><ele>169.0</ele><time>2026-04-30T10:45:58.728Z</time></trkpt><trkpt lat="40.6741322" lon="8.9992955"><ele>169.0</ele><time>2026-04-30T10:45:59.727Z</time></trkpt><trkpt lat="40.674056" lon="8.9990076"><ele>169.0</ele><time>2026-04-30T10:46:00.726Z</time></trkpt><trkpt lat="40.6739867" lon="8.9987022"><ele>169.0</ele><time>2026-04-30T10:46:01.726Z</time></trkpt><trkpt lat="40.6739277" lon="8.9984163"><ele>169.5</ele><time>2026-04-30T10:46:02.725Z</time></trkpt><trkpt lat="40.6738623" lon="8.9981283"><ele>170.0</ele><time>2026-04-30T10:46:03.725Z</time></trkpt><trkpt lat="40.6738133" lon="8.9978383"><ele>170.0</ele><time>2026-04-30T10:46:04.728Z</time></trkpt><trkpt lat="40.6737654" lon="8.9975374"><ele>170.0</ele><time>2026-04-30T10:46:05.727Z</time></trkpt><trkpt lat="40.6737222" lon="8.9972341"><ele>169.5</ele><time>2026-04-30T10:46:06.727Z</time></trkpt><trkpt lat="40.6736829" lon="8.9969296"><ele>169.0</ele><time>2026-04-30T10:46:07.725Z</time></trkpt><trkpt lat="40.6736459" lon="8.9966299"><ele>168.5</ele><time>2026-04-30T10:46:08.727Z</time></trkpt><trkpt lat="40.6736053" lon="8.9963363"><ele>168.0</ele><time>2026-04-30T10:46:09.725Z</time></trkpt><trkpt lat="40.6735679" lon="8.996032"><ele>167.5</ele><time>2026-04-30T10:46:10.731Z</time></trkpt><trkpt lat="40.6735321" lon="8.9957269"><ele>167.0</ele><time>2026-04-30T10:46:11.728Z</time></trkpt><trkpt lat="40.6734943" lon="8.9954076"><ele>167.0</ele><time>2026-04-30T10:46:12.727Z</time></trkpt><trkpt lat="40.67346" lon="8.9950919"><ele>167.0</ele><time>2026-04-30T10:46:13.726Z</time></trkpt><trkpt lat="40.6734203" lon="8.9947624"><ele>166.5</ele><time>2026-04-30T10:46:14.725Z</time></trkpt><trkpt lat="40.6733789" lon="8.9944309"><ele>166.0</ele><time>2026-04-30T10:46:15.723Z</time></trkpt><trkpt lat="40.673339" lon="8.9940949"><ele>167.0</ele><time>2026-04-30T10:46:16.725Z</time></trkpt><trkpt lat="40.6732976" lon="8.9937558"><ele>168.0</ele><time>2026-04-30T10:46:17.725Z</time></trkpt><trkpt lat="40.6732543" lon="8.9934173"><ele>168.5</ele><time>2026-04-30T10:46:18.726Z</time></trkpt><trkpt lat="40.673213" lon="8.9930865"><ele>169.0</ele><time>2026-04-30T10:46:19.728Z</time></trkpt><trkpt lat="40.6731749" lon="8.9927527"><ele>168.5</ele><time>2026-04-30T10:46:20.725Z</time></trkpt><trkpt lat="40.6731351" lon="8.9924107"><ele>168.0</ele><time>2026-04-30T10:46:21.724Z</time></trkpt><trkpt lat="40.6730982" lon="8.9920721"><ele>168.0</ele><time>2026-04-30T10:46:22.725Z</time></trkpt><trkpt lat="40.6730618" lon="8.9917344"><ele>168.0</ele><time>2026-04-30T10:46:23.724Z</time></trkpt><trkpt lat="40.6730225" lon="8.9913882"><ele>168.5</ele><time>2026-04-30T10:46:24.728Z</time></trkpt><trkpt lat="40.6729731" lon="8.9910612"><ele>169.0</ele><time>2026-04-30T10:46:25.727Z</time></trkpt><trkpt lat="40.6729207" lon="8.9907313"><ele>169.0</ele><time>2026-04-30T10:46:26.728Z</time></trkpt><trkpt lat="40.6728627" lon="8.9904026"><ele>169.0</ele><time>2026-04-30T10:46:27.725Z</time></trkpt><trkpt lat="40.6728006" lon="8.9900786"><ele>169.5</ele><time>2026-04-30T10:46:28.725Z</time></trkpt><trkpt lat="40.6727311" lon="8.9897531"><ele>170.0</ele><time>2026-04-30T10:46:29.724Z</time></trkpt><trkpt lat="40.6726564" lon="8.9894284"><ele>169.5</ele><time>2026-04-30T10:46:30.729Z</time></trkpt><trkpt lat="40.6725756" lon="8.9891064"><ele>169.0</ele><time>2026-04-30T10:46:31.726Z</time></trkpt><trkpt lat="40.6724891" lon="8.9887877"><ele>169.0</ele><time>2026-04-30T10:46:32.726Z</time></trkpt><trkpt lat="40.6723958" lon="8.9884736"><ele>169.0</ele><time>2026-04-30T10:46:33.725Z</time></trkpt><trkpt lat="40.6722962" lon="8.9881669"><ele>168.5</ele><time>2026-04-30T10:46:34.725Z</time></trkpt><trkpt lat="40.6721882" lon="8.9878625"><ele>168.0</ele><time>2026-04-30T10:46:35.727Z</time></trkpt><trkpt lat="40.6720807" lon="8.9875589"><ele>168.0</ele><time>2026-04-30T10:46:36.726Z</time></trkpt><trkpt lat="40.6719669" lon="8.9872589"><ele>168.0</ele><time>2026-04-30T10:46:37.727Z</time></trkpt><trkpt lat="40.6718457" lon="8.9869629"><ele>168.5</ele><time>2026-04-30T10:46:38.727Z</time></trkpt><trkpt lat="40.6717218" lon="8.9866656"><ele>169.0</ele><time>2026-04-30T10:46:39.725Z</time></trkpt><trkpt lat="40.6715939" lon="8.9863797"><ele>169.0</ele><time>2026-04-30T10:46:40.725Z</time></trkpt><trkpt lat="40.6714594" lon="8.9860905"><ele>169.0</ele><time>2026-04-30T10:46:41.731Z</time></trkpt><trkpt lat="40.6713186" lon="8.9858082"><ele>168.5</ele><time>2026-04-30T10:46:42.727Z</time></trkpt><trkpt lat="40.6711745" lon="8.9855282"><ele>168.0</ele><time>2026-04-30T10:46:43.727Z</time></trkpt><trkpt lat="40.6710255" lon="8.9852529"><ele>168.5</ele><time>2026-04-30T10:46:44.726Z</time></trkpt><trkpt lat="40.6708709" lon="8.9849804"><ele>169.0</ele><time>2026-04-30T10:46:45.726Z</time></trkpt><trkpt lat="40.6707115" lon="8.9847118"><ele>169.0</ele><time>2026-04-30T10:46:46.724Z</time></trkpt><trkpt lat="40.6705563" lon="8.9844404"><ele>169.0</ele><time>2026-04-30T10:46:47.725Z</time></trkpt><trkpt lat="40.6703996" lon="8.9841754"><ele>169.0</ele><time>2026-04-30T10:46:48.727Z</time></trkpt><trkpt lat="40.6702417" lon="8.9839115"><ele>169.0</ele><time>2026-04-30T10:46:49.726Z</time></trkpt><trkpt lat="40.6700834" lon="8.9836391"><ele>169.0</ele><time>2026-04-30T10:46:50.727Z</time></trkpt><trkpt lat="40.6699258" lon="8.9833738"><ele>169.0</ele><time>2026-04-30T10:46:51.726Z</time></trkpt><trkpt lat="40.6697696" lon="8.9831049"><ele>169.5</ele><time>2026-04-30T10:46:52.727Z</time></trkpt><trkpt lat="40.6696139" lon="8.9828396"><ele>170.0</ele><time>2026-04-30T10:46:53.725Z</time></trkpt><trkpt lat="40.6694647" lon="8.9825777"><ele>171.5</ele><time>2026-04-30T10:46:54.727Z</time></trkpt><trkpt lat="40.6693058" lon="8.9823117"><ele>173.0</ele><time>2026-04-30T10:46:55.726Z</time></trkpt><trkpt lat="40.6691495" lon="8.9820413"><ele>173.0</ele><time>2026-04-30T10:46:56.725Z</time></trkpt><trkpt lat="40.6689937" lon="8.9817705"><ele>173.0</ele><time>2026-04-30T10:46:57.728Z</time></trkpt><trkpt lat="40.6688351" lon="8.981504"><ele>172.5</ele><time>2026-04-30T10:46:58.726Z</time></trkpt><trkpt lat="40.668679" lon="8.9812364"><ele>172.0</ele><time>2026-04-30T10:46:59.725Z</time></trkpt><trkpt lat="40.6685211" lon="8.9809699"><ele>171.5</ele><time>2026-04-30T10:47:00.728Z</time></trkpt><trkpt lat="40.668365" lon="8.9807106"><ele>171.0</ele><time>2026-04-30T10:47:01.727Z</time></trkpt><trkpt lat="40.6682064" lon="8.9804367"><ele>171.0</ele><time>2026-04-30T10:47:02.728Z</time></trkpt><trkpt lat="40.6680486" lon="8.9801684"><ele>171.0</ele><time>2026-04-30T10:47:03.726Z</time></trkpt><trkpt lat="40.6678947" lon="8.9799038"><ele>172.0</ele><time>2026-04-30T10:47:04.727Z</time></trkpt><trkpt lat="40.6677387" lon="8.9796345"><ele>173.0</ele><time>2026-04-30T10:47:05.726Z</time></trkpt><trkpt lat="40.6675848" lon="8.9793708"><ele>172.0</ele><time>2026-04-30T10:47:06.729Z</time></trkpt><trkpt lat="40.667425" lon="8.979104"><ele>171.0</ele><time>2026-04-30T10:47:07.724Z</time></trkpt><trkpt lat="40.6672642" lon="8.9788358"><ele>171.0</ele><time>2026-04-30T10:47:08.727Z</time></trkpt><trkpt lat="40.6671073" lon="8.9785718"><ele>171.0</ele><time>2026-04-30T10:47:09.726Z</time></trkpt><trkpt lat="40.6669445" lon="8.9783013"><ele>171.0</ele><time>2026-04-30T10:47:10.726Z</time></trkpt><trkpt lat="40.6667867" lon="8.9780319"><ele>171.0</ele><time>2026-04-30T10:47:11.724Z</time></trkpt><trkpt lat="40.6666311" lon="8.9777646"><ele>171.0</ele><time>2026-04-30T10:47:12.725Z</time></trkpt><trkpt lat="40.666475" lon="8.9774944"><ele>171.0</ele><time>2026-04-30T10:47:13.729Z</time></trkpt><trkpt lat="40.6663133" lon="8.977228"><ele>171.0</ele><time>2026-04-30T10:47:14.73Z</time></trkpt><trkpt lat="40.6661555" lon="8.9769691"><ele>171.0</ele><time>2026-04-30T10:47:15.729Z</time></trkpt><trkpt lat="40.6659937" lon="8.976706"><ele>171.5</ele><time>2026-04-30T10:47:16.726Z</time></trkpt><trkpt lat="40.6658344" lon="8.9764383"><ele>172.0</ele><time>2026-04-30T10:47:17.726Z</time></trkpt><trkpt lat="40.6656725" lon="8.9761796"><ele>172.0</ele><time>2026-04-30T10:47:18.728Z</time></trkpt><trkpt lat="40.6655079" lon="8.9759192"><ele>172.0</ele><time>2026-04-30T10:47:19.726Z</time></trkpt><trkpt lat="40.6653419" lon="8.9756604"><ele>172.5</ele><time>2026-04-30T10:47:20.728Z</time></trkpt><trkpt lat="40.6651815" lon="8.9753989"><ele>173.0</ele><time>2026-04-30T10:47:21.726Z</time></trkpt><trkpt lat="40.6650205" lon="8.9751361"><ele>172.5</ele><time>2026-04-30T10:47:22.73Z</time></trkpt><trkpt lat="40.6648554" lon="8.9748751"><ele>172.0</ele><time>2026-04-30T10:47:23.725Z</time></trkpt><trkpt lat="40.6646914" lon="8.9746116"><ele>172.0</ele><time>2026-04-30T10:47:24.727Z</time></trkpt><trkpt lat="40.6645273" lon="8.9743527"><ele>172.0</ele><time>2026-04-30T10:47:25.728Z</time></trkpt><trkpt lat="40.6643616" lon="8.9740899"><ele>172.5</ele><time>2026-04-30T10:47:26.73Z</time></trkpt><trkpt lat="40.6641917" lon="8.9738316"><ele>173.0</ele><time>2026-04-30T10:47:27.726Z</time></trkpt><trkpt lat="40.6640205" lon="8.9735768"><ele>174.0</ele><time>2026-04-30T10:47:28.728Z</time></trkpt><trkpt lat="40.6638506" lon="8.9733271"><ele>175.0</ele><time>2026-04-30T10:47:29.726Z</time></trkpt><trkpt lat="40.6636796" lon="8.9730828"><ele>174.0</ele><time>2026-04-30T10:47:30.726Z</time></trkpt><trkpt lat="40.663503" lon="8.972837"><ele>173.0</ele><time>2026-04-30T10:47:31.725Z</time></trkpt><trkpt lat="40.6633276" lon="8.9725858"><ele>173.0</ele><time>2026-04-30T10:47:32.723Z</time></trkpt><trkpt lat="40.6631535" lon="8.9723329"><ele>173.0</ele><time>2026-04-30T10:47:33.727Z</time></trkpt><trkpt lat="40.6629776" lon="8.9720838"><ele>173.0</ele><time>2026-04-30T10:47:34.727Z</time></trkpt><trkpt lat="40.6628054" lon="8.9718337"><ele>173.0</ele><time>2026-04-30T10:47:35.725Z</time></trkpt><trkpt lat="40.6626322" lon="8.9715822"><ele>173.0</ele><time>2026-04-30T10:47:36.728Z</time></trkpt><trkpt lat="40.6624605" lon="8.9713328"><ele>173.0</ele><time>2026-04-30T10:47:37.725Z</time></trkpt><trkpt lat="40.6622853" lon="8.9710844"><ele>173.0</ele><time>2026-04-30T10:47:38.726Z</time></trkpt><trkpt lat="40.6621106" lon="8.9708343"><ele>173.0</ele><time>2026-04-30T10:47:39.726Z</time></trkpt><trkpt lat="40.6619359" lon="8.9705856"><ele>173.0</ele><time>2026-04-30T10:47:40.727Z</time></trkpt><trkpt lat="40.6617617" lon="8.9703358"><ele>173.0</ele><time>2026-04-30T10:47:41.727Z</time></trkpt><trkpt lat="40.6615858" lon="8.9700891"><ele>173.5</ele><time>2026-04-30T10:47:42.727Z</time></trkpt><trkpt lat="40.6614103" lon="8.9698416"><ele>174.0</ele><time>2026-04-30T10:47:43.726Z</time></trkpt><trkpt lat="40.6612341" lon="8.969595"><ele>174.5</ele><time>2026-04-30T10:47:44.725Z</time></trkpt><trkpt lat="40.6610566" lon="8.9693488"><ele>175.0</ele><time>2026-04-30T10:47:45.728Z</time></trkpt><trkpt lat="40.6608781" lon="8.9691018"><ele>175.5</ele><time>2026-04-30T10:47:46.726Z</time></trkpt><trkpt lat="40.6607013" lon="8.9688564"><ele>176.0</ele><time>2026-04-30T10:47:47.727Z</time></trkpt><trkpt lat="40.660525" lon="8.9686103"><ele>176.0</ele><time>2026-04-30T10:47:48.727Z</time></trkpt><trkpt lat="40.6603487" lon="8.968364"><ele>176.0</ele><time>2026-04-30T10:47:49.729Z</time></trkpt><trkpt lat="40.6601716" lon="8.9681174"><ele>176.0</ele><time>2026-04-30T10:47:50.726Z</time></trkpt><trkpt lat="40.6599963" lon="8.9678684"><ele>176.0</ele><time>2026-04-30T10:47:51.728Z</time></trkpt><trkpt lat="40.6598203" lon="8.9676214"><ele>175.5</ele><time>2026-04-30T10:47:52.727Z</time></trkpt><trkpt lat="40.6596441" lon="8.9673739"><ele>175.0</ele><time>2026-04-30T10:47:53.73Z</time></trkpt><trkpt lat="40.6594665" lon="8.9671278"><ele>175.5</ele><time>2026-04-30T10:47:54.726Z</time></trkpt><trkpt lat="40.6592895" lon="8.9668815"><ele>176.0</ele><time>2026-04-30T10:47:55.727Z</time></trkpt><trkpt lat="40.6591122" lon="8.9666351"><ele>176.5</ele><time>2026-04-30T10:47:56.726Z</time></trkpt><trkpt lat="40.6589356" lon="8.9663893"><ele>177.0</ele><time>2026-04-30T10:47:57.726Z</time></trkpt><trkpt lat="40.6587576" lon="8.966144"><ele>177.0</ele><time>2026-04-30T10:47:58.73Z</time></trkpt><trkpt lat="40.6585825" lon="8.9658982"><ele>177.0</ele><time>2026-04-30T10:47:59.725Z</time></trkpt><trkpt lat="40.658407" lon="8.9656493"><ele>177.5</ele><time>2026-04-30T10:48:00.727Z</time></trkpt><trkpt lat="40.6582308" lon="8.965402"><ele>178.0</ele><time>2026-04-30T10:48:01.727Z</time></trkpt><trkpt lat="40.6580542" lon="8.9651539"><ele>178.0</ele><time>2026-04-30T10:48:02.725Z</time></trkpt><trkpt lat="40.6578776" lon="8.9649076"><ele>178.0</ele><time>2026-04-30T10:48:03.725Z</time></trkpt><trkpt lat="40.6577031" lon="8.9646636"><ele>178.0</ele><time>2026-04-30T10:48:04.727Z</time></trkpt><trkpt lat="40.6575278" lon="8.9644191"><ele>178.0</ele><time>2026-04-30T10:48:05.728Z</time></trkpt><trkpt lat="40.6573521" lon="8.9641738"><ele>178.0</ele><time>2026-04-30T10:48:06.728Z</time></trkpt><trkpt lat="40.6571746" lon="8.9639257"><ele>178.0</ele><time>2026-04-30T10:48:07.728Z</time></trkpt><trkpt lat="40.6569975" lon="8.9636769"><ele>178.0</ele><time>2026-04-30T10:48:08.727Z</time></trkpt><trkpt lat="40.6568199" lon="8.9634265"><ele>178.0</ele><time>2026-04-30T10:48:09.727Z</time></trkpt><trkpt lat="40.6566437" lon="8.9631774"><ele>178.0</ele><time>2026-04-30T10:48:10.729Z</time></trkpt><trkpt lat="40.6564669" lon="8.9629301"><ele>178.0</ele><time>2026-04-30T10:48:11.727Z</time></trkpt><trkpt lat="40.65629" lon="8.9626846"><ele>179.5</ele><time>2026-04-30T10:48:12.727Z</time></trkpt><trkpt lat="40.6561139" lon="8.9624394"><ele>181.0</ele><time>2026-04-30T10:48:13.726Z</time></trkpt><trkpt lat="40.6559345" lon="8.9621901"><ele>181.0</ele><time>2026-04-30T10:48:14.726Z</time></trkpt><trkpt lat="40.6557535" lon="8.9619369"><ele>181.0</ele><time>2026-04-30T10:48:15.725Z</time></trkpt><trkpt lat="40.6555681" lon="8.9616807"><ele>181.0</ele><time>2026-04-30T10:48:16.726Z</time></trkpt><trkpt lat="40.6553795" lon="8.9614192"><ele>181.0</ele><time>2026-04-30T10:48:17.725Z</time></trkpt><trkpt lat="40.6551902" lon="8.9611569"><ele>181.5</ele><time>2026-04-30T10:48:18.726Z</time></trkpt><trkpt lat="40.6550006" lon="8.9608928"><ele>182.0</ele><time>2026-04-30T10:48:19.728Z</time></trkpt><trkpt lat="40.654811" lon="8.9606267"><ele>182.0</ele><time>2026-04-30T10:48:20.729Z</time></trkpt><trkpt lat="40.6546201" lon="8.9603617"><ele>182.0</ele><time>2026-04-30T10:48:21.726Z</time></trkpt><trkpt lat="40.6544302" lon="8.9600965"><ele>182.0</ele><time>2026-04-30T10:48:22.725Z</time></trkpt><trkpt lat="40.6542414" lon="8.9598308"><ele>182.0</ele><time>2026-04-30T10:48:23.726Z</time></trkpt><trkpt lat="40.6540542" lon="8.959564"><ele>182.0</ele><time>2026-04-30T10:48:24.725Z</time></trkpt><trkpt lat="40.6538681" lon="8.9592972"><ele>182.0</ele><time>2026-04-30T10:48:25.726Z</time></trkpt><trkpt lat="40.6536818" lon="8.9590295"><ele>182.5</ele><time>2026-04-30T10:48:26.726Z</time></trkpt><trkpt lat="40.6534968" lon="8.9587597"><ele>183.0</ele><time>2026-04-30T10:48:27.728Z</time></trkpt><trkpt lat="40.6533114" lon="8.9584902"><ele>183.5</ele><time>2026-04-30T10:48:28.725Z</time></trkpt><trkpt lat="40.6531255" lon="8.9582216"><ele>184.0</ele><time>2026-04-30T10:48:29.726Z</time></trkpt><trkpt lat="40.6529398" lon="8.9579542"><ele>184.0</ele><time>2026-04-30T10:48:30.725Z</time></trkpt><trkpt lat="40.6527529" lon="8.9576904"><ele>184.0</ele><time>2026-04-30T10:48:31.725Z</time></trkpt><trkpt lat="40.6525643" lon="8.9574246"><ele>183.5</ele><time>2026-04-30T10:48:32.729Z</time></trkpt><trkpt lat="40.6523767" lon="8.9571588"><ele>183.0</ele><time>2026-04-30T10:48:33.729Z</time></trkpt><trkpt lat="40.6521891" lon="8.9568916"><ele>182.5</ele><time>2026-04-30T10:48:34.725Z</time></trkpt><trkpt lat="40.6520026" lon="8.9566251"><ele>182.0</ele><time>2026-04-30T10:48:35.725Z</time></trkpt><trkpt lat="40.6518157" lon="8.9563585"><ele>182.5</ele><time>2026-04-30T10:48:36.723Z</time></trkpt><trkpt lat="40.6516276" lon="8.9560931"><ele>183.0</ele><time>2026-04-30T10:48:37.725Z</time></trkpt><trkpt lat="40.6514395" lon="8.9558287"><ele>183.0</ele><time>2026-04-30T10:48:38.726Z</time></trkpt><trkpt lat="40.6512502" lon="8.9555638"><ele>183.0</ele><time>2026-04-30T10:48:39.727Z</time></trkpt><trkpt lat="40.6510608" lon="8.9552974"><ele>183.5</ele><time>2026-04-30T10:48:40.727Z</time></trkpt><trkpt lat="40.6508721" lon="8.955031"><ele>184.0</ele><time>2026-04-30T10:48:41.723Z</time></trkpt><trkpt lat="40.6506831" lon="8.9547648"><ele>184.0</ele><time>2026-04-30T10:48:42.725Z</time></trkpt><trkpt lat="40.6504939" lon="8.9544998"><ele>184.0</ele><time>2026-04-30T10:48:43.729Z</time></trkpt><trkpt lat="40.6503052" lon="8.9542358"><ele>185.5</ele><time>2026-04-30T10:48:44.725Z</time></trkpt><trkpt lat="40.6501165" lon="8.9539717"><ele>187.0</ele><time>2026-04-30T10:48:45.725Z</time></trkpt><trkpt lat="40.649928" lon="8.9537066"><ele>187.0</ele><time>2026-04-30T10:48:46.726Z</time></trkpt><trkpt lat="40.649741" lon="8.9534441"><ele>187.0</ele><time>2026-04-30T10:48:47.725Z</time></trkpt><trkpt lat="40.6495653" lon="8.9531943"><ele>187.5</ele><time>2026-04-30T10:48:48.725Z</time></trkpt><trkpt lat="40.6493976" lon="8.9529525"><ele>188.0</ele><time>2026-04-30T10:48:49.728Z</time></trkpt><trkpt lat="40.6492374" lon="8.9527175"><ele>189.66666666666666</ele><time>2026-04-30T10:48:50.727Z</time></trkpt><trkpt lat="40.6490892" lon="8.9524904"><ele>191.33333333333331</ele><time>2026-04-30T10:48:51.727Z</time></trkpt><trkpt lat="40.6489497" lon="8.9522719"><ele>193.0</ele><time>2026-04-30T10:48:52.725Z</time></trkpt><trkpt lat="40.6488178" lon="8.9520655"><ele>193.0</ele><time>2026-04-30T10:48:53.726Z</time></trkpt><trkpt lat="40.6486937" lon="8.9518587"><ele>193.0</ele><time>2026-04-30T10:48:54.726Z</time></trkpt><trkpt lat="40.6485677" lon="8.9516545"><ele>193.0</ele><time>2026-04-30T10:48:55.727Z</time></trkpt><trkpt lat="40.6484412" lon="8.9514478"><ele>193.66666666666666</ele><time>2026-04-30T10:48:56.726Z</time></trkpt><trkpt lat="40.6483215" lon="8.9512415"><ele>194.33333333333331</ele><time>2026-04-30T10:48:57.727Z</time></trkpt><trkpt lat="40.648201" lon="8.9510295"><ele>195.0</ele><time>2026-04-30T10:48:58.725Z</time></trkpt><trkpt lat="40.6480813" lon="8.9508179"><ele>195.66666666666669</ele><time>2026-04-30T10:48:59.725Z</time></trkpt><trkpt lat="40.647965" lon="8.9506053"><ele>196.33333333333334</ele><time>2026-04-30T10:49:00.724Z</time></trkpt><trkpt lat="40.6478531" lon="8.9503994"><ele>197.0</ele><time>2026-04-30T10:49:01.725Z</time></trkpt><trkpt lat="40.6477428" lon="8.9501945"><ele>200.33333333333334</ele><time>2026-04-30T10:49:02.726Z</time></trkpt><trkpt lat="40.6476324" lon="8.9499849"><ele>203.66666666666669</ele><time>2026-04-30T10:49:03.725Z</time></trkpt><trkpt lat="40.6475239" lon="8.9497766"><ele>207.0</ele><time>2026-04-30T10:49:04.727Z</time></trkpt><trkpt lat="40.6474215" lon="8.9495748"><ele>207.0</ele><time>2026-04-30T10:49:05.726Z</time></trkpt><trkpt lat="40.6473266" lon="8.9493815"><ele>207.0</ele><time>2026-04-30T10:49:06.724Z</time></trkpt><trkpt lat="40.6472353" lon="8.9491961"><ele>207.0</ele><time>2026-04-30T10:49:07.725Z</time></trkpt><trkpt lat="40.647148" lon="8.9490162"><ele>207.0</ele><time>2026-04-30T10:49:08.725Z</time></trkpt><trkpt lat="40.6470639" lon="8.9488348"><ele>207.0</ele><time>2026-04-30T10:49:09.724Z</time></trkpt><trkpt lat="40.6469804" lon="8.9486427"><ele>207.0</ele><time>2026-04-30T10:49:10.727Z</time></trkpt><trkpt lat="40.6468886" lon="8.9484326"><ele>207.0</ele><time>2026-04-30T10:49:11.727Z</time></trkpt><trkpt lat="40.6467922" lon="8.9482154"><ele>207.0</ele><time>2026-04-30T10:49:12.726Z</time></trkpt><trkpt lat="40.6466953" lon="8.9479964"><ele>207.0</ele><time>2026-04-30T10:49:13.725Z</time></trkpt><trkpt lat="40.6465891" lon="8.9477648"><ele>207.66666666666669</ele><time>2026-04-30T10:49:14.724Z</time></trkpt><trkpt lat="40.6464798" lon="8.947532"><ele>208.33333333333334</ele><time>2026-04-30T10:49:15.726Z</time></trkpt><trkpt lat="40.646367" lon="8.9472924"><ele>209.0</ele><time>2026-04-30T10:49:16.726Z</time></trkpt><trkpt lat="40.6462522" lon="8.947043"><ele>209.0</ele><time>2026-04-30T10:49:17.726Z</time></trkpt><trkpt lat="40.646133" lon="8.9467886"><ele>209.0</ele><time>2026-04-30T10:49:18.726Z</time></trkpt><trkpt lat="40.6460079" lon="8.9465267"><ele>206.5</ele><time>2026-04-30T10:49:19.728Z</time></trkpt><trkpt lat="40.6458779" lon="8.946257"><ele>204.0</ele><time>2026-04-30T10:49:20.726Z</time></trkpt><trkpt lat="40.6457473" lon="8.945979"><ele>204.0</ele><time>2026-04-30T10:49:21.726Z</time></trkpt><trkpt lat="40.6456127" lon="8.9456927"><ele>204.0</ele><time>2026-04-30T10:49:22.726Z</time></trkpt><trkpt lat="40.6454753" lon="8.9453973"><ele>204.0</ele><time>2026-04-30T10:49:23.727Z</time></trkpt><trkpt lat="40.6453346" lon="8.945095"><ele>204.0</ele><time>2026-04-30T10:49:24.729Z</time></trkpt><trkpt lat="40.6451904" lon="8.9447866"><ele>205.0</ele><time>2026-04-30T10:49:25.725Z</time></trkpt><trkpt lat="40.6450441" lon="8.944472"><ele>206.0</ele><time>2026-04-30T10:49:26.725Z</time></trkpt><trkpt lat="40.6448979" lon="8.9441522"><ele>207.0</ele><time>2026-04-30T10:49:27.727Z</time></trkpt><trkpt lat="40.6447554" lon="8.9438335"><ele>208.0</ele><time>2026-04-30T10:49:28.727Z</time></trkpt><trkpt lat="40.6446188" lon="8.9435237"><ele>208.0</ele><time>2026-04-30T10:49:29.729Z</time></trkpt><trkpt lat="40.6444828" lon="8.9432168"><ele>208.0</ele><time>2026-04-30T10:49:30.726Z</time></trkpt><trkpt lat="40.6443514" lon="8.9429201"><ele>208.0</ele><time>2026-04-30T10:49:31.727Z</time></trkpt><trkpt lat="40.6442264" lon="8.9426358"><ele>208.0</ele><time>2026-04-30T10:49:32.725Z</time></trkpt><trkpt lat="40.6441055" lon="8.9423592"><ele>209.0</ele><time>2026-04-30T10:49:33.724Z</time></trkpt><trkpt lat="40.6439862" lon="8.9420864"><ele>210.0</ele><time>2026-04-30T10:49:34.727Z</time></trkpt><trkpt lat="40.6438711" lon="8.941815"><ele>210.5</ele><time>2026-04-30T10:49:35.725Z</time></trkpt><trkpt lat="40.6437567" lon="8.9415441"><ele>211.0</ele><time>2026-04-30T10:49:36.725Z</time></trkpt><trkpt lat="40.6436418" lon="8.9412735"><ele>210.5</ele><time>2026-04-30T10:49:37.727Z</time></trkpt><trkpt lat="40.6435276" lon="8.9409956"><ele>210.0</ele><time>2026-04-30T10:49:38.725Z</time></trkpt><trkpt lat="40.643414" lon="8.9407108"><ele>210.0</ele><time>2026-04-30T10:49:39.726Z</time></trkpt><trkpt lat="40.6433057" lon="8.9404349"><ele>210.0</ele><time>2026-04-30T10:49:40.727Z</time></trkpt><trkpt lat="40.6432024" lon="8.9401635"><ele>211.5</ele><time>2026-04-30T10:49:41.727Z</time></trkpt><trkpt lat="40.6431021" lon="8.9398947"><ele>213.0</ele><time>2026-04-30T10:49:42.731Z</time></trkpt><trkpt lat="40.6430043" lon="8.9396257"><ele>213.0</ele><time>2026-04-30T10:49:43.725Z</time></trkpt><trkpt lat="40.6429068" lon="8.939355"><ele>213.0</ele><time>2026-04-30T10:49:44.726Z</time></trkpt><trkpt lat="40.642811" lon="8.9390813"><ele>213.0</ele><time>2026-04-30T10:49:45.723Z</time></trkpt><trkpt lat="40.6427172" lon="8.9388033"><ele>213.0</ele><time>2026-04-30T10:49:46.726Z</time></trkpt><trkpt lat="40.6426248" lon="8.9385224"><ele>213.5</ele><time>2026-04-30T10:49:47.727Z</time></trkpt><trkpt lat="40.6425356" lon="8.9382393"><ele>214.0</ele><time>2026-04-30T10:49:48.726Z</time></trkpt><trkpt lat="40.6424477" lon="8.937957"><ele>214.0</ele><time>2026-04-30T10:49:49.725Z</time></trkpt><trkpt lat="40.6423643" lon="8.937672"><ele>214.0</ele><time>2026-04-30T10:49:50.726Z</time></trkpt><trkpt lat="40.6422845" lon="8.9373892"><ele>215.0</ele><time>2026-04-30T10:49:51.725Z</time></trkpt><trkpt lat="40.6422074" lon="8.9371038"><ele>216.0</ele><time>2026-04-30T10:49:52.724Z</time></trkpt><trkpt lat="40.6421322" lon="8.9368166"><ele>217.0</ele><time>2026-04-30T10:49:53.728Z</time></trkpt><trkpt lat="40.6420579" lon="8.9365295"><ele>218.0</ele><time>2026-04-30T10:49:54.725Z</time></trkpt><trkpt lat="40.6419858" lon="8.9362415"><ele>218.0</ele><time>2026-04-30T10:49:55.725Z</time></trkpt><trkpt lat="40.641915" lon="8.9359525"><ele>218.0</ele><time>2026-04-30T10:49:56.726Z</time></trkpt><trkpt lat="40.6418456" lon="8.935663"><ele>218.0</ele><time>2026-04-30T10:49:57.726Z</time></trkpt><trkpt lat="40.6417787" lon="8.9353731"><ele>218.0</ele><time>2026-04-30T10:49:58.726Z</time></trkpt><trkpt lat="40.6417161" lon="8.9350816"><ele>218.5</ele><time>2026-04-30T10:49:59.726Z</time></trkpt><trkpt lat="40.6416551" lon="8.9347884"><ele>219.0</ele><time>2026-04-30T10:50:00.727Z</time></trkpt><trkpt lat="40.6415975" lon="8.9344937"><ele>218.5</ele><time>2026-04-30T10:50:01.729Z</time></trkpt><trkpt lat="40.6415442" lon="8.9341981"><ele>218.0</ele><time>2026-04-30T10:50:02.728Z</time></trkpt><trkpt lat="40.6414933" lon="8.9339032"><ele>218.0</ele><time>2026-04-30T10:50:03.725Z</time></trkpt><trkpt lat="40.6414442" lon="8.933606"><ele>218.0</ele><time>2026-04-30T10:50:04.724Z</time></trkpt><trkpt lat="40.6413969" lon="8.9333103"><ele>218.0</ele><time>2026-04-30T10:50:05.726Z</time></trkpt><trkpt lat="40.6413504" lon="8.9330162"><ele>218.0</ele><time>2026-04-30T10:50:06.726Z</time></trkpt><trkpt lat="40.641307" lon="8.9327156"><ele>219.0</ele><time>2026-04-30T10:50:07.728Z</time></trkpt><trkpt lat="40.6412657" lon="8.9324122"><ele>220.0</ele><time>2026-04-30T10:50:08.727Z</time></trkpt><trkpt lat="40.641225" lon="8.9321061"><ele>220.0</ele><time>2026-04-30T10:50:09.727Z</time></trkpt><trkpt lat="40.641188" lon="8.9317986"><ele>220.0</ele><time>2026-04-30T10:50:10.725Z</time></trkpt><trkpt lat="40.6411536" lon="8.9314909"><ele>221.5</ele><time>2026-04-30T10:50:11.726Z</time></trkpt><trkpt lat="40.6411213" lon="8.931185"><ele>223.0</ele><time>2026-04-30T10:50:12.724Z</time></trkpt><trkpt lat="40.6410916" lon="8.930878"><ele>224.5</ele><time>2026-04-30T10:50:13.725Z</time></trkpt><trkpt lat="40.6410665" lon="8.9305695"><ele>226.0</ele><time>2026-04-30T10:50:14.727Z</time></trkpt><trkpt lat="40.6410462" lon="8.9302614"><ele>227.5</ele><time>2026-04-30T10:50:15.728Z</time></trkpt><trkpt lat="40.6410273" lon="8.9299523"><ele>229.0</ele><time>2026-04-30T10:50:16.727Z</time></trkpt><trkpt lat="40.641009" lon="8.9296416"><ele>229.0</ele><time>2026-04-30T10:50:17.724Z</time></trkpt><trkpt lat="40.6409927" lon="8.9293316"><ele>229.0</ele><time>2026-04-30T10:50:18.727Z</time></trkpt><trkpt lat="40.640979" lon="8.9290151"><ele>230.0</ele><time>2026-04-30T10:50:19.724Z</time></trkpt><trkpt lat="40.6409661" lon="8.9286913"><ele>231.0</ele><time>2026-04-30T10:50:20.727Z</time></trkpt><trkpt lat="40.6409548" lon="8.9283629"><ele>231.0</ele><time>2026-04-30T10:50:21.728Z</time></trkpt><trkpt lat="40.6409464" lon="8.9280283"><ele>231.0</ele><time>2026-04-30T10:50:22.727Z</time></trkpt><trkpt lat="40.6409467" lon="8.9276855"><ele>231.5</ele><time>2026-04-30T10:50:23.726Z</time></trkpt><trkpt lat="40.6409451" lon="8.9273315"><ele>232.0</ele><time>2026-04-30T10:50:24.727Z</time></trkpt><trkpt lat="40.6409468" lon="8.9269646"><ele>232.5</ele><time>2026-04-30T10:50:25.727Z</time></trkpt><trkpt lat="40.6409502" lon="8.9265883"><ele>233.0</ele><time>2026-04-30T10:50:26.729Z</time></trkpt><trkpt lat="40.6409527" lon="8.9262114"><ele>233.5</ele><time>2026-04-30T10:50:27.726Z</time></trkpt><trkpt lat="40.6409546" lon="8.9258365"><ele>234.0</ele><time>2026-04-30T10:50:28.727Z</time></trkpt><trkpt lat="40.6409559" lon="8.9254672"><ele>234.0</ele><time>2026-04-30T10:50:29.725Z</time></trkpt><trkpt lat="40.6409576" lon="8.9251014"><ele>234.0</ele><time>2026-04-30T10:50:30.725Z</time></trkpt><trkpt lat="40.6409584" lon="8.9247395"><ele>234.0</ele><time>2026-04-30T10:50:31.724Z</time></trkpt><trkpt lat="40.6409585" lon="8.9243789"><ele>234.0</ele><time>2026-04-30T10:50:32.726Z</time></trkpt><trkpt lat="40.6409585" lon="8.9240208"><ele>234.0</ele><time>2026-04-30T10:50:33.727Z</time></trkpt><trkpt lat="40.6409562" lon="8.9236637"><ele>234.0</ele><time>2026-04-30T10:50:34.726Z</time></trkpt><trkpt lat="40.6409494" lon="8.9233087"><ele>234.5</ele><time>2026-04-30T10:50:35.726Z</time></trkpt><trkpt lat="40.640941" lon="8.9229541"><ele>235.0</ele><time>2026-04-30T10:50:36.725Z</time></trkpt><trkpt lat="40.6409296" lon="8.9226001"><ele>235.0</ele><time>2026-04-30T10:50:37.725Z</time></trkpt><trkpt lat="40.6409143" lon="8.9222468"><ele>235.0</ele><time>2026-04-30T10:50:38.726Z</time></trkpt><trkpt lat="40.6408951" lon="8.9218924"><ele>236.0</ele><time>2026-04-30T10:50:39.725Z</time></trkpt><trkpt lat="40.6408718" lon="8.9215367"><ele>237.0</ele><time>2026-04-30T10:50:40.727Z</time></trkpt><trkpt lat="40.6408429" lon="8.92118"><ele>236.5</ele><time>2026-04-30T10:50:41.726Z</time></trkpt><trkpt lat="40.6408108" lon="8.9208203"><ele>236.0</ele><time>2026-04-30T10:50:42.725Z</time></trkpt><trkpt lat="40.6407752" lon="8.9204572"><ele>236.0</ele><time>2026-04-30T10:50:43.724Z</time></trkpt><trkpt lat="40.640736" lon="8.9200945"><ele>236.0</ele><time>2026-04-30T10:50:44.726Z</time></trkpt><trkpt lat="40.640692" lon="8.9197324"><ele>237.0</ele><time>2026-04-30T10:50:45.726Z</time></trkpt><trkpt lat="40.6406448" lon="8.919371"><ele>238.0</ele><time>2026-04-30T10:50:46.726Z</time></trkpt><trkpt lat="40.6405927" lon="8.9190106"><ele>238.0</ele><time>2026-04-30T10:50:47.726Z</time></trkpt><trkpt lat="40.6405384" lon="8.9186563"><ele>238.0</ele><time>2026-04-30T10:50:48.725Z</time></trkpt><trkpt lat="40.6404821" lon="8.9183137"><ele>237.0</ele><time>2026-04-30T10:50:49.725Z</time></trkpt><trkpt lat="40.6404231" lon="8.9179737"><ele>236.0</ele><time>2026-04-30T10:50:50.727Z</time></trkpt><trkpt lat="40.6403606" lon="8.9176367"><ele>237.0</ele><time>2026-04-30T10:50:51.726Z</time></trkpt><trkpt lat="40.6402963" lon="8.9173112"><ele>238.0</ele><time>2026-04-30T10:50:52.729Z</time></trkpt><trkpt lat="40.6402286" lon="8.9169906"><ele>236.5</ele><time>2026-04-30T10:50:53.726Z</time></trkpt><trkpt lat="40.6401575" lon="8.9166737"><ele>235.0</ele><time>2026-04-30T10:50:54.729Z</time></trkpt><trkpt lat="40.6400843" lon="8.9163548"><ele>235.0</ele><time>2026-04-30T10:50:55.728Z</time></trkpt><trkpt lat="40.6400081" lon="8.9160366"><ele>235.0</ele><time>2026-04-30T10:50:56.727Z</time></trkpt><trkpt lat="40.6399268" lon="8.915714"><ele>235.0</ele><time>2026-04-30T10:50:57.728Z</time></trkpt><trkpt lat="40.6398398" lon="8.91539"><ele>235.0</ele><time>2026-04-30T10:50:58.727Z</time></trkpt><trkpt lat="40.6397479" lon="8.9150625"><ele>235.5</ele><time>2026-04-30T10:50:59.726Z</time></trkpt><trkpt lat="40.6396508" lon="8.9147265"><ele>236.0</ele><time>2026-04-30T10:51:00.726Z</time></trkpt><trkpt lat="40.6395478" lon="8.9143905"><ele>236.0</ele><time>2026-04-30T10:51:01.724Z</time></trkpt><trkpt lat="40.6394397" lon="8.9140483"><ele>236.0</ele><time>2026-04-30T10:51:02.725Z</time></trkpt><trkpt lat="40.6393252" lon="8.9136977"><ele>235.5</ele><time>2026-04-30T10:51:03.726Z</time></trkpt><trkpt lat="40.6392068" lon="8.9133496"><ele>235.0</ele><time>2026-04-30T10:51:04.728Z</time></trkpt><trkpt lat="40.6390831" lon="8.9130002"><ele>235.0</ele><time>2026-04-30T10:51:05.728Z</time></trkpt><trkpt lat="40.6389596" lon="8.9126515"><ele>235.0</ele><time>2026-04-30T10:51:06.727Z</time></trkpt><trkpt lat="40.6388274" lon="8.9122977"><ele>235.0</ele><time>2026-04-30T10:51:07.726Z</time></trkpt><trkpt lat="40.6386892" lon="8.9119423"><ele>235.0</ele><time>2026-04-30T10:51:08.725Z</time></trkpt><trkpt lat="40.638548" lon="8.9115889"><ele>233.0</ele><time>2026-04-30T10:51:09.732Z</time></trkpt><trkpt lat="40.6384103" lon="8.9112496"><ele>231.0</ele><time>2026-04-30T10:51:10.726Z</time></trkpt><trkpt lat="40.6382736" lon="8.910915"><ele>231.0</ele><time>2026-04-30T10:51:11.729Z</time></trkpt><trkpt lat="40.6381402" lon="8.9105931"><ele>231.0</ele><time>2026-04-30T10:51:12.732Z</time></trkpt><trkpt lat="40.6380063" lon="8.9102714"><ele>231.5</ele><time>2026-04-30T10:51:13.724Z</time></trkpt><trkpt lat="40.6378756" lon="8.9099486"><ele>232.0</ele><time>2026-04-30T10:51:14.726Z</time></trkpt><trkpt lat="40.6377485" lon="8.9096253"><ele>232.0</ele><time>2026-04-30T10:51:15.724Z</time></trkpt><trkpt lat="40.6376232" lon="8.9093049"><ele>232.0</ele><time>2026-04-30T10:51:16.728Z</time></trkpt><trkpt lat="40.6375011" lon="8.9089875"><ele>232.5</ele><time>2026-04-30T10:51:17.726Z</time></trkpt><trkpt lat="40.637382" lon="8.9086706"><ele>233.0</ele><time>2026-04-30T10:51:18.727Z</time></trkpt><trkpt lat="40.6372662" lon="8.9083542"><ele>234.0</ele><time>2026-04-30T10:51:19.725Z</time></trkpt><trkpt lat="40.6371512" lon="8.9080393"><ele>235.0</ele><time>2026-04-30T10:51:20.726Z</time></trkpt><trkpt lat="40.6370342" lon="8.9077209"><ele>235.5</ele><time>2026-04-30T10:51:21.727Z</time></trkpt><trkpt lat="40.6369176" lon="8.9073984"><ele>236.0</ele><time>2026-04-30T10:51:22.736Z</time></trkpt><trkpt lat="40.636802" lon="8.9070671"><ele>238.0</ele><time>2026-04-30T10:51:23.727Z</time></trkpt><trkpt lat="40.6366861" lon="8.9067196"><ele>240.0</ele><time>2026-04-30T10:51:24.724Z</time></trkpt><trkpt lat="40.6365912" lon="8.9064075"><ele>240.0</ele><time>2026-04-30T10:51:25.731Z</time></trkpt><trkpt lat="40.6365126" lon="8.9061185"><ele>240.0</ele><time>2026-04-30T10:51:26.726Z</time></trkpt><trkpt lat="40.6364556" lon="8.9058583"><ele>240.0</ele><time>2026-04-30T10:51:27.723Z</time></trkpt><trkpt lat="40.6364126" lon="8.9056116"><ele>241.66666666666669</ele><time>2026-04-30T10:51:28.726Z</time></trkpt><trkpt lat="40.636368" lon="8.9053528"><ele>243.33333333333334</ele><time>2026-04-30T10:51:29.726Z</time></trkpt><trkpt lat="40.6363114" lon="8.9050665"><ele>245.0</ele><time>2026-04-30T10:51:30.724Z</time></trkpt><trkpt lat="40.6362414" lon="8.9047592"><ele>243.5</ele><time>2026-04-30T10:51:31.726Z</time></trkpt><trkpt lat="40.6361649" lon="8.9044321"><ele>242.0</ele><time>2026-04-30T10:51:32.725Z</time></trkpt><trkpt lat="40.6360862" lon="8.904082"><ele>242.0</ele><time>2026-04-30T10:51:33.726Z</time></trkpt><trkpt lat="40.6360183" lon="8.9037404"><ele>242.0</ele><time>2026-04-30T10:51:34.727Z</time></trkpt><trkpt lat="40.6359613" lon="8.9034126"><ele>240.0</ele><time>2026-04-30T10:51:35.727Z</time></trkpt><trkpt lat="40.6359123" lon="8.9030947"><ele>238.0</ele><time>2026-04-30T10:51:36.726Z</time></trkpt><trkpt lat="40.6358743" lon="8.9027823"><ele>237.5</ele><time>2026-04-30T10:51:37.726Z</time></trkpt><trkpt lat="40.6358449" lon="8.9024783"><ele>237.0</ele><time>2026-04-30T10:51:38.725Z</time></trkpt><trkpt lat="40.6358194" lon="8.9021921"><ele>237.0</ele><time>2026-04-30T10:51:39.725Z</time></trkpt><trkpt lat="40.6357939" lon="8.901911"><ele>237.0</ele><time>2026-04-30T10:51:40.726Z</time></trkpt><trkpt lat="40.6357719" lon="8.901645"><ele>237.0</ele><time>2026-04-30T10:51:41.726Z</time></trkpt><trkpt lat="40.6357506" lon="8.9013949"><ele>236.33333333333331</ele><time>2026-04-30T10:51:42.728Z</time></trkpt><trkpt lat="40.63573" lon="8.9011595"><ele>235.66666666666666</ele><time>2026-04-30T10:51:43.727Z</time></trkpt><trkpt lat="40.6357096" lon="8.9009404"><ele>235.0</ele><time>2026-04-30T10:51:44.727Z</time></trkpt><trkpt lat="40.6356914" lon="8.9007447"><ele>235.0</ele><time>2026-04-30T10:51:45.725Z</time></trkpt><trkpt lat="40.6356761" lon="8.900575"><ele>235.0</ele><time>2026-04-30T10:51:46.725Z</time></trkpt><trkpt lat="40.6356702" lon="8.9004343"><ele>235.0</ele><time>2026-04-30T10:51:47.725Z</time></trkpt><trkpt lat="40.6356739" lon="8.9003466"><ele>235.0</ele><time>2026-04-30T10:51:48.728Z</time></trkpt><trkpt lat="40.6356997" lon="8.9002191"><ele>235.0</ele><time>2026-04-30T10:51:50.726Z</time></trkpt><trkpt lat="40.6357144" lon="8.9001233"><ele>234.0</ele><time>2026-04-30T10:51:51.725Z</time></trkpt><trkpt lat="40.6357209" lon="8.9000029"><ele>233.0</ele><time>2026-04-30T10:51:52.74Z</time></trkpt><trkpt lat="40.6357067" lon="8.8998787"><ele>232.0</ele><time>2026-04-30T10:51:53.727Z</time></trkpt><trkpt lat="40.6356682" lon="8.8997644"><ele>231.0</ele><time>2026-04-30T10:51:54.725Z</time></trkpt><trkpt lat="40.6356017" lon="8.8996612"><ele>230.0</ele><time>2026-04-30T10:51:55.727Z</time></trkpt><trkpt lat="40.6355189" lon="8.899602"><ele>230.0</ele><time>2026-04-30T10:51:56.726Z</time></trkpt><trkpt lat="40.6354262" lon="8.8995852"><ele>230.0</ele><time>2026-04-30T10:51:57.726Z</time></trkpt><trkpt lat="40.6353413" lon="8.8995762"><ele>230.0</ele><time>2026-04-30T10:51:58.728Z</time></trkpt><trkpt lat="40.6352529" lon="8.8996516"><ele>230.0</ele><time>2026-04-30T10:51:59.725Z</time></trkpt><trkpt lat="40.635182" lon="8.8997504"><ele>230.0</ele><time>2026-04-30T10:52:00.726Z</time></trkpt><trkpt lat="40.6351216" lon="8.8998564"><ele>230.25</ele><time>2026-04-30T10:52:01.728Z</time></trkpt><trkpt lat="40.6350594" lon="8.8999652"><ele>230.5</ele><time>2026-04-30T10:52:02.727Z</time></trkpt><trkpt lat="40.6349711" lon="8.9000473"><ele>230.75</ele><time>2026-04-30T10:52:03.723Z</time></trkpt><trkpt lat="40.6348627" lon="8.9001028"><ele>231.0</ele><time>2026-04-30T10:52:04.726Z</time></trkpt><trkpt lat="40.6347357" lon="8.9001544"><ele>231.0</ele><time>2026-04-30T10:52:05.724Z</time></trkpt><trkpt lat="40.6345922" lon="8.90021"><ele>231.0</ele><time>2026-04-30T10:52:06.726Z</time></trkpt><trkpt lat="40.6344608" lon="8.9002537"><ele>231.0</ele><time>2026-04-30T10:52:07.726Z</time></trkpt><trkpt lat="40.6343382" lon="8.900286"><ele>231.0</ele><time>2026-04-30T10:52:08.724Z</time></trkpt><trkpt lat="40.6342201" lon="8.9003065"><ele>230.20000000000002</ele><time>2026-04-30T10:52:09.726Z</time></trkpt><trkpt lat="40.6341117" lon="8.9003048"><ele>229.40000000000003</ele><time>2026-04-30T10:52:10.724Z</time></trkpt><trkpt lat="40.6340133" lon="8.900274"><ele>228.6</ele><time>2026-04-30T10:52:11.725Z</time></trkpt><trkpt lat="40.633923" lon="8.9002392"><ele>227.8</ele><time>2026-04-30T10:52:12.729Z</time></trkpt><trkpt lat="40.6338373" lon="8.9002239"><ele>227.0</ele><time>2026-04-30T10:52:13.727Z</time></trkpt><trkpt lat="40.633753" lon="8.9002514"><ele>227.0</ele><time>2026-04-30T10:52:14.725Z</time></trkpt><trkpt lat="40.6336719" lon="8.9003123"><ele>227.0</ele><time>2026-04-30T10:52:15.727Z</time></trkpt><trkpt lat="40.6335918" lon="8.9003923"><ele>227.0</ele><time>2026-04-30T10:52:16.731Z</time></trkpt><trkpt lat="40.6334949" lon="8.9004639"><ele>227.0</ele><time>2026-04-30T10:52:17.725Z</time></trkpt><trkpt lat="40.6333803" lon="8.9005197"><ele>227.0</ele><time>2026-04-30T10:52:18.727Z</time></trkpt><trkpt lat="40.6332474" lon="8.9005548"><ele>227.0</ele><time>2026-04-30T10:52:19.728Z</time></trkpt><trkpt lat="40.6330991" lon="8.900579"><ele>227.0</ele><time>2026-04-30T10:52:20.726Z</time></trkpt><trkpt lat="40.6329355" lon="8.9005968"><ele>227.0</ele><time>2026-04-30T10:52:21.727Z</time></trkpt><trkpt lat="40.6327615" lon="8.9006126"><ele>227.66666666666669</ele><time>2026-04-30T10:52:22.728Z</time></trkpt><trkpt lat="40.6325748" lon="8.9006255"><ele>228.33333333333331</ele><time>2026-04-30T10:52:23.725Z</time></trkpt><trkpt lat="40.6323801" lon="8.9006292"><ele>229.0</ele><time>2026-04-30T10:52:24.73Z</time></trkpt><trkpt lat="40.632175" lon="8.9006197"><ele>228.66666666666666</ele><time>2026-04-30T10:52:25.723Z</time></trkpt><trkpt lat="40.631964" lon="8.9005944"><ele>228.33333333333331</ele><time>2026-04-30T10:52:26.724Z</time></trkpt><trkpt lat="40.6317465" lon="8.900552"><ele>228.0</ele><time>2026-04-30T10:52:27.726Z</time></trkpt><trkpt lat="40.6315227" lon="8.9004955"><ele>228.0</ele><time>2026-04-30T10:52:28.725Z</time></trkpt><trkpt lat="40.6312951" lon="8.9004242"><ele>228.0</ele><time>2026-04-30T10:52:29.724Z</time></trkpt><trkpt lat="40.6310666" lon="8.9003401"><ele>227.5</ele><time>2026-04-30T10:52:30.724Z</time></trkpt><trkpt lat="40.6308314" lon="8.90025"><ele>227.0</ele><time>2026-04-30T10:52:31.727Z</time></trkpt><trkpt lat="40.630593" lon="8.9001594"><ele>227.0</ele><time>2026-04-30T10:52:32.727Z</time></trkpt><trkpt lat="40.6303657" lon="8.9000734"><ele>227.0</ele><time>2026-04-30T10:52:33.726Z</time></trkpt><trkpt lat="40.6301466" lon="8.8999856"><ele>227.0</ele><time>2026-04-30T10:52:34.725Z</time></trkpt><trkpt lat="40.6299343" lon="8.8999031"><ele>227.0</ele><time>2026-04-30T10:52:35.727Z</time></trkpt><trkpt lat="40.6297296" lon="8.8998242"><ele>227.0</ele><time>2026-04-30T10:52:36.725Z</time></trkpt><trkpt lat="40.6295325" lon="8.8997489"><ele>227.0</ele><time>2026-04-30T10:52:37.726Z</time></trkpt><trkpt lat="40.6293374" lon="8.8996801"><ele>227.0</ele><time>2026-04-30T10:52:38.726Z</time></trkpt><trkpt lat="40.629137" lon="8.8996171"><ele>227.0</ele><time>2026-04-30T10:52:39.727Z</time></trkpt><trkpt lat="40.6289376" lon="8.8995685"><ele>227.0</ele><time>2026-04-30T10:52:40.726Z</time></trkpt><trkpt lat="40.6287439" lon="8.8995374"><ele>227.0</ele><time>2026-04-30T10:52:41.726Z</time></trkpt><trkpt lat="40.6285546" lon="8.8995277"><ele>227.0</ele><time>2026-04-30T10:52:42.726Z</time></trkpt><trkpt lat="40.628371" lon="8.8995363"><ele>225.66666666666669</ele><time>2026-04-30T10:52:43.727Z</time></trkpt><trkpt lat="40.6282004" lon="8.8995563"><ele>224.33333333333331</ele><time>2026-04-30T10:52:44.726Z</time></trkpt><trkpt lat="40.6280383" lon="8.8995888"><ele>223.0</ele><time>2026-04-30T10:52:45.728Z</time></trkpt><trkpt lat="40.6278775" lon="8.899629"><ele>222.0</ele><time>2026-04-30T10:52:46.726Z</time></trkpt><trkpt lat="40.6277128" lon="8.8996743"><ele>221.0</ele><time>2026-04-30T10:52:47.729Z</time></trkpt><trkpt lat="40.6275412" lon="8.8997262"><ele>220.0</ele><time>2026-04-30T10:52:48.726Z</time></trkpt><trkpt lat="40.6273599" lon="8.8997838"><ele>220.0</ele><time>2026-04-30T10:52:49.726Z</time></trkpt><trkpt lat="40.6271694" lon="8.8998456"><ele>220.0</ele><time>2026-04-30T10:52:50.727Z</time></trkpt><trkpt lat="40.6269729" lon="8.8999117"><ele>220.0</ele><time>2026-04-30T10:52:51.725Z</time></trkpt><trkpt lat="40.6267738" lon="8.8999755"><ele>219.33333333333331</ele><time>2026-04-30T10:52:52.727Z</time></trkpt><trkpt lat="40.6265709" lon="8.9000359"><ele>218.66666666666669</ele><time>2026-04-30T10:52:53.727Z</time></trkpt><trkpt lat="40.6263647" lon="8.9000888"><ele>218.0</ele><time>2026-04-30T10:52:54.727Z</time></trkpt><trkpt lat="40.6261578" lon="8.9001334"><ele>217.33333333333334</ele><time>2026-04-30T10:52:55.724Z</time></trkpt><trkpt lat="40.6259492" lon="8.9001586"><ele>216.66666666666669</ele><time>2026-04-30T10:52:56.727Z</time></trkpt><trkpt lat="40.6257392" lon="8.9001639"><ele>216.0</ele><time>2026-04-30T10:52:57.727Z</time></trkpt><trkpt lat="40.6255295" lon="8.9001515"><ele>216.0</ele><time>2026-04-30T10:52:58.729Z</time></trkpt><trkpt lat="40.6253221" lon="8.9001255"><ele>216.0</ele><time>2026-04-30T10:52:59.73Z</time></trkpt><trkpt lat="40.6251239" lon="8.9000909"><ele>216.0</ele><time>2026-04-30T10:53:00.726Z</time></trkpt><trkpt lat="40.6249363" lon="8.9000564"><ele>215.66666666666669</ele><time>2026-04-30T10:53:01.725Z</time></trkpt><trkpt lat="40.6247555" lon="8.9000249"><ele>215.33333333333334</ele><time>2026-04-30T10:53:02.726Z</time></trkpt><trkpt lat="40.6245817" lon="8.8999914"><ele>215.0</ele><time>2026-04-30T10:53:03.727Z</time></trkpt><trkpt lat="40.6244132" lon="8.8999589"><ele>215.0</ele><time>2026-04-30T10:53:04.726Z</time></trkpt><trkpt lat="40.6242489" lon="8.8999263"><ele>215.0</ele><time>2026-04-30T10:53:05.726Z</time></trkpt><trkpt lat="40.6240932" lon="8.8998948"><ele>215.0</ele><time>2026-04-30T10:53:06.727Z</time></trkpt><trkpt lat="40.6239474" lon="8.899864"><ele>215.0</ele><time>2026-04-30T10:53:07.726Z</time></trkpt><trkpt lat="40.623813" lon="8.8998375"><ele>215.0</ele><time>2026-04-30T10:53:08.726Z</time></trkpt><trkpt lat="40.6236835" lon="8.89981"><ele>215.0</ele><time>2026-04-30T10:53:09.729Z</time></trkpt><trkpt lat="40.6235659" lon="8.8997861"><ele>215.0</ele><time>2026-04-30T10:53:10.727Z</time></trkpt><trkpt lat="40.6234553" lon="8.8997643"><ele>215.8</ele><time>2026-04-30T10:53:11.727Z</time></trkpt><trkpt lat="40.6233472" lon="8.8997423"><ele>216.6</ele><time>2026-04-30T10:53:12.727Z</time></trkpt><trkpt lat="40.6232395" lon="8.8997162"><ele>217.39999999999998</ele><time>2026-04-30T10:53:13.727Z</time></trkpt><trkpt lat="40.6231428" lon="8.8996776"><ele>218.2</ele><time>2026-04-30T10:53:14.726Z</time></trkpt><trkpt lat="40.6230557" lon="8.8996172"><ele>219.0</ele><time>2026-04-30T10:53:15.724Z</time></trkpt><trkpt lat="40.6229777" lon="8.8995315"><ele>219.0</ele><time>2026-04-30T10:53:16.726Z</time></trkpt><trkpt lat="40.6229056" lon="8.8994409"><ele>219.0</ele><time>2026-04-30T10:53:17.727Z</time></trkpt><trkpt lat="40.6228289" lon="8.8993973"><ele>219.0</ele><time>2026-04-30T10:53:18.728Z</time></trkpt><trkpt lat="40.6227496" lon="8.899388"><ele>219.0</ele><time>2026-04-30T10:53:19.728Z</time></trkpt><trkpt lat="40.6226748" lon="8.8994173"><ele>219.0</ele><time>2026-04-30T10:53:20.726Z</time></trkpt><trkpt lat="40.6226116" lon="8.899487"><ele>219.0</ele><time>2026-04-30T10:53:21.723Z</time></trkpt><trkpt lat="40.6225723" lon="8.8995831"><ele>218.79999999999998</ele><time>2026-04-30T10:53:22.725Z</time></trkpt><trkpt lat="40.6225655" lon="8.8996874"><ele>218.59999999999997</ele><time>2026-04-30T10:53:23.726Z</time></trkpt><trkpt lat="40.6225818" lon="8.8997976"><ele>218.4</ele><time>2026-04-30T10:53:24.725Z</time></trkpt><trkpt lat="40.6225964" lon="8.8999218"><ele>218.2</ele><time>2026-04-30T10:53:25.727Z</time></trkpt><trkpt lat="40.6225876" lon="8.9000641"><ele>218.0</ele><time>2026-04-30T10:53:26.729Z</time></trkpt><trkpt lat="40.6225613" lon="8.9002246"><ele>218.0</ele><time>2026-04-30T10:53:27.724Z</time></trkpt><trkpt lat="40.6225216" lon="8.9003957"><ele>218.0</ele><time>2026-04-30T10:53:28.725Z</time></trkpt><trkpt lat="40.6224671" lon="8.9005768"><ele>218.0</ele><time>2026-04-30T10:53:29.724Z</time></trkpt><trkpt lat="40.6224012" lon="8.9007742"><ele>218.0</ele><time>2026-04-30T10:53:30.728Z</time></trkpt><trkpt lat="40.6223252" lon="8.9009854"><ele>217.66666666666669</ele><time>2026-04-30T10:53:31.727Z</time></trkpt><trkpt lat="40.6222393" lon="8.9012063"><ele>217.33333333333331</ele><time>2026-04-30T10:53:32.726Z</time></trkpt><trkpt lat="40.6221478" lon="8.901436"><ele>217.0</ele><time>2026-04-30T10:53:33.728Z</time></trkpt><trkpt lat="40.6220484" lon="8.9016756"><ele>216.33333333333331</ele><time>2026-04-30T10:53:34.726Z</time></trkpt><trkpt lat="40.6219414" lon="8.9019198"><ele>215.66666666666669</ele><time>2026-04-30T10:53:35.727Z</time></trkpt><trkpt lat="40.6218264" lon="8.9021659"><ele>215.0</ele><time>2026-04-30T10:53:36.724Z</time></trkpt><trkpt lat="40.6217029" lon="8.9024125"><ele>215.0</ele><time>2026-04-30T10:53:37.728Z</time></trkpt><trkpt lat="40.6215736" lon="8.9026575"><ele>215.0</ele><time>2026-04-30T10:53:38.725Z</time></trkpt><trkpt lat="40.6214388" lon="8.9028993"><ele>215.0</ele><time>2026-04-30T10:53:39.725Z</time></trkpt><trkpt lat="40.6213008" lon="8.9031375"><ele>215.0</ele><time>2026-04-30T10:53:40.726Z</time></trkpt><trkpt lat="40.6211678" lon="8.9033652"><ele>215.0</ele><time>2026-04-30T10:53:41.726Z</time></trkpt><trkpt lat="40.6210427" lon="8.9035844"><ele>215.0</ele><time>2026-04-30T10:53:42.726Z</time></trkpt><trkpt lat="40.62092" lon="8.9037994"><ele>215.0</ele><time>2026-04-30T10:53:43.727Z</time></trkpt><trkpt lat="40.6207972" lon="8.9040134"><ele>215.0</ele><time>2026-04-30T10:53:44.729Z</time></trkpt><trkpt lat="40.6206764" lon="8.9042248"><ele>214.33333333333334</ele><time>2026-04-30T10:53:45.727Z</time></trkpt><trkpt lat="40.6205535" lon="8.904436"><ele>213.66666666666669</ele><time>2026-04-30T10:53:46.727Z</time></trkpt><trkpt lat="40.6204293" lon="8.9046502"><ele>213.0</ele><time>2026-04-30T10:53:47.726Z</time></trkpt><trkpt lat="40.6203053" lon="8.9048666"><ele>212.66666666666669</ele><time>2026-04-30T10:53:48.726Z</time></trkpt><trkpt lat="40.6201798" lon="8.9050852"><ele>212.33333333333334</ele><time>2026-04-30T10:53:49.725Z</time></trkpt><trkpt lat="40.6200525" lon="8.905305"><ele>212.0</ele><time>2026-04-30T10:53:50.726Z</time></trkpt><trkpt lat="40.6199257" lon="8.9055331"><ele>212.0</ele><time>2026-04-30T10:53:51.726Z</time></trkpt><trkpt lat="40.6197945" lon="8.9057632"><ele>212.0</ele><time>2026-04-30T10:53:52.726Z</time></trkpt><trkpt lat="40.619662" lon="8.9059965"><ele>212.0</ele><time>2026-04-30T10:53:53.725Z</time></trkpt><trkpt lat="40.6195289" lon="8.9062292"><ele>212.0</ele><time>2026-04-30T10:53:54.727Z</time></trkpt><trkpt lat="40.6193934" lon="8.906464"><ele>212.0</ele><time>2026-04-30T10:53:55.734Z</time></trkpt><trkpt lat="40.6192567" lon="8.9066976"><ele>212.0</ele><time>2026-04-30T10:53:56.726Z</time></trkpt><trkpt lat="40.6191232" lon="8.9069343"><ele>212.0</ele><time>2026-04-30T10:53:57.726Z</time></trkpt><trkpt lat="40.6190026" lon="8.9071621"><ele>212.0</ele><time>2026-04-30T10:53:58.727Z</time></trkpt><trkpt lat="40.6188924" lon="8.9073876"><ele>212.0</ele><time>2026-04-30T10:53:59.725Z</time></trkpt><trkpt lat="40.618792" lon="8.9076123"><ele>212.0</ele><time>2026-04-30T10:54:00.724Z</time></trkpt><trkpt lat="40.6186985" lon="8.9078407"><ele>212.0</ele><time>2026-04-30T10:54:01.727Z</time></trkpt><trkpt lat="40.6186121" lon="8.9080756"><ele>212.0</ele><time>2026-04-30T10:54:02.727Z</time></trkpt><trkpt lat="40.6185316" lon="8.9083152"><ele>212.66666666666669</ele><time>2026-04-30T10:54:03.728Z</time></trkpt><trkpt lat="40.6184566" lon="8.9085615"><ele>213.33333333333331</ele><time>2026-04-30T10:54:04.728Z</time></trkpt><trkpt lat="40.6183852" lon="8.9088111"><ele>214.0</ele><time>2026-04-30T10:54:05.726Z</time></trkpt><trkpt lat="40.6183117" lon="8.9090634"><ele>213.66666666666666</ele><time>2026-04-30T10:54:06.725Z</time></trkpt><trkpt lat="40.6182377" lon="8.909318"><ele>213.33333333333331</ele><time>2026-04-30T10:54:07.728Z</time></trkpt><trkpt lat="40.6181628" lon="8.9095755"><ele>213.0</ele><time>2026-04-30T10:54:08.727Z</time></trkpt><trkpt lat="40.6180855" lon="8.9098357"><ele>212.33333333333331</ele><time>2026-04-30T10:54:09.726Z</time></trkpt><trkpt lat="40.6180079" lon="8.9100934"><ele>211.66666666666666</ele><time>2026-04-30T10:54:10.725Z</time></trkpt><trkpt lat="40.6179275" lon="8.9103543"><ele>211.0</ele><time>2026-04-30T10:54:11.726Z</time></trkpt><trkpt lat="40.6178506" lon="8.9106182"><ele>212.33333333333331</ele><time>2026-04-30T10:54:12.723Z</time></trkpt><trkpt lat="40.6177724" lon="8.9108831"><ele>213.66666666666669</ele><time>2026-04-30T10:54:13.727Z</time></trkpt><trkpt lat="40.6176989" lon="8.9111369"><ele>215.0</ele><time>2026-04-30T10:54:14.724Z</time></trkpt><trkpt lat="40.617627" lon="8.911392"><ele>215.0</ele><time>2026-04-30T10:54:15.727Z</time></trkpt><trkpt lat="40.6175544" lon="8.9116442"><ele>215.0</ele><time>2026-04-30T10:54:16.729Z</time></trkpt><trkpt lat="40.6174808" lon="8.9118974"><ele>215.0</ele><time>2026-04-30T10:54:17.725Z</time></trkpt><trkpt lat="40.6174076" lon="8.9121453"><ele>214.66666666666669</ele><time>2026-04-30T10:54:18.728Z</time></trkpt><trkpt lat="40.617339" lon="8.9123832"><ele>214.33333333333331</ele><time>2026-04-30T10:54:19.724Z</time></trkpt><trkpt lat="40.6172709" lon="8.9126216"><ele>214.0</ele><time>2026-04-30T10:54:20.728Z</time></trkpt><trkpt lat="40.617202" lon="8.9128633"><ele>213.66666666666666</ele><time>2026-04-30T10:54:21.731Z</time></trkpt><trkpt lat="40.6171332" lon="8.9130942"><ele>213.33333333333331</ele><time>2026-04-30T10:54:22.723Z</time></trkpt><trkpt lat="40.6170654" lon="8.9133229"><ele>213.0</ele><time>2026-04-30T10:54:23.727Z</time></trkpt><trkpt lat="40.616998" lon="8.9135485"><ele>214.33333333333331</ele><time>2026-04-30T10:54:24.725Z</time></trkpt><trkpt lat="40.6169309" lon="8.9137738"><ele>215.66666666666666</ele><time>2026-04-30T10:54:25.725Z</time></trkpt><trkpt lat="40.6168658" lon="8.913997"><ele>217.0</ele><time>2026-04-30T10:54:26.725Z</time></trkpt><trkpt lat="40.616801" lon="8.9142246"><ele>216.66666666666666</ele><time>2026-04-30T10:54:27.725Z</time></trkpt><trkpt lat="40.61673" lon="8.9144533"><ele>216.33333333333331</ele><time>2026-04-30T10:54:28.727Z</time></trkpt><trkpt lat="40.6166549" lon="8.9146879"><ele>216.0</ele><time>2026-04-30T10:54:29.726Z</time></trkpt><trkpt lat="40.6165777" lon="8.9149313"><ele>215.33333333333331</ele><time>2026-04-30T10:54:30.727Z</time></trkpt><trkpt lat="40.6165039" lon="8.9151803"><ele>214.66666666666666</ele><time>2026-04-30T10:54:31.726Z</time></trkpt><trkpt lat="40.6164319" lon="8.9154304"><ele>214.0</ele><time>2026-04-30T10:54:32.727Z</time></trkpt><trkpt lat="40.6163584" lon="8.9156816"><ele>214.33333333333331</ele><time>2026-04-30T10:54:33.726Z</time></trkpt><trkpt lat="40.616282" lon="8.9159357"><ele>214.66666666666669</ele><time>2026-04-30T10:54:34.727Z</time></trkpt><trkpt lat="40.6162088" lon="8.9161973"><ele>215.0</ele><time>2026-04-30T10:54:35.727Z</time></trkpt><trkpt lat="40.6161369" lon="8.9164608"><ele>215.0</ele><time>2026-04-30T10:54:36.726Z</time></trkpt><trkpt lat="40.6160743" lon="8.9167285"><ele>215.0</ele><time>2026-04-30T10:54:37.726Z</time></trkpt><trkpt lat="40.6160237" lon="8.9170028"><ele>215.0</ele><time>2026-04-30T10:54:38.728Z</time></trkpt><trkpt lat="40.6159861" lon="8.9172802"><ele>215.33333333333334</ele><time>2026-04-30T10:54:39.727Z</time></trkpt><trkpt lat="40.6159573" lon="8.9175588"><ele>215.66666666666669</ele><time>2026-04-30T10:54:40.729Z</time></trkpt><trkpt lat="40.6159332" lon="8.9178368"><ele>216.0</ele><time>2026-04-30T10:54:41.728Z</time></trkpt><trkpt lat="40.6159058" lon="8.9181154"><ele>216.0</ele><time>2026-04-30T10:54:42.727Z</time></trkpt><trkpt lat="40.6158788" lon="8.9183938"><ele>216.0</ele><time>2026-04-30T10:54:43.724Z</time></trkpt><trkpt lat="40.6158518" lon="8.9186713"><ele>216.0</ele><time>2026-04-30T10:54:44.727Z</time></trkpt><trkpt lat="40.6158239" lon="8.9189484"><ele>215.66666666666669</ele><time>2026-04-30T10:54:45.725Z</time></trkpt><trkpt lat="40.6157961" lon="8.919226"><ele>215.33333333333334</ele><time>2026-04-30T10:54:46.726Z</time></trkpt><trkpt lat="40.6157673" lon="8.9195058"><ele>215.0</ele><time>2026-04-30T10:54:47.728Z</time></trkpt><trkpt lat="40.6157405" lon="8.9197858"><ele>215.0</ele><time>2026-04-30T10:54:48.726Z</time></trkpt><trkpt lat="40.615712" lon="8.9200649"><ele>215.0</ele><time>2026-04-30T10:54:49.726Z</time></trkpt><trkpt lat="40.615684" lon="8.9203447"><ele>215.0</ele><time>2026-04-30T10:54:50.724Z</time></trkpt><trkpt lat="40.6156553" lon="8.9206259"><ele>215.66666666666669</ele><time>2026-04-30T10:54:51.729Z</time></trkpt><trkpt lat="40.6156269" lon="8.920908"><ele>216.33333333333331</ele><time>2026-04-30T10:54:52.728Z</time></trkpt><trkpt lat="40.6155995" lon="8.9211909"><ele>217.0</ele><time>2026-04-30T10:54:53.726Z</time></trkpt><trkpt lat="40.6155722" lon="8.9214746"><ele>217.0</ele><time>2026-04-30T10:54:54.726Z</time></trkpt><trkpt lat="40.6155451" lon="8.9217479"><ele>217.0</ele><time>2026-04-30T10:54:55.727Z</time></trkpt><trkpt lat="40.6155186" lon="8.9220132"><ele>217.0</ele><time>2026-04-30T10:54:56.726Z</time></trkpt><trkpt lat="40.6154938" lon="8.9222688"><ele>217.0</ele><time>2026-04-30T10:54:57.727Z</time></trkpt><trkpt lat="40.6154858" lon="8.9225217"><ele>217.0</ele><time>2026-04-30T10:54:58.727Z</time></trkpt><trkpt lat="40.6154639" lon="8.9227606"><ele>217.0</ele><time>2026-04-30T10:54:59.729Z</time></trkpt><trkpt lat="40.6154407" lon="8.9229996"><ele>217.0</ele><time>2026-04-30T10:55:00.725Z</time></trkpt><trkpt lat="40.6154153" lon="8.923239"><ele>217.0</ele><time>2026-04-30T10:55:01.727Z</time></trkpt><trkpt lat="40.6153887" lon="8.9234816"><ele>217.0</ele><time>2026-04-30T10:55:02.726Z</time></trkpt><trkpt lat="40.6153629" lon="8.9237257"><ele>217.0</ele><time>2026-04-30T10:55:03.724Z</time></trkpt><trkpt lat="40.6153392" lon="8.9239787"><ele>217.0</ele><time>2026-04-30T10:55:04.725Z</time></trkpt><trkpt lat="40.6153168" lon="8.9242377"><ele>217.0</ele><time>2026-04-30T10:55:05.73Z</time></trkpt><trkpt lat="40.6152926" lon="8.9245017"><ele>216.33333333333331</ele><time>2026-04-30T10:55:06.727Z</time></trkpt><trkpt lat="40.6152669" lon="8.9247718"><ele>215.66666666666669</ele><time>2026-04-30T10:55:07.725Z</time></trkpt><trkpt lat="40.6152378" lon="8.9250487"><ele>215.0</ele><time>2026-04-30T10:55:08.727Z</time></trkpt><trkpt lat="40.6152097" lon="8.9253315"><ele>215.0</ele><time>2026-04-30T10:55:09.725Z</time></trkpt><trkpt lat="40.6151805" lon="8.9256197"><ele>215.0</ele><time>2026-04-30T10:55:10.725Z</time></trkpt><trkpt lat="40.6151504" lon="8.9259139"><ele>215.0</ele><time>2026-04-30T10:55:11.728Z</time></trkpt><trkpt lat="40.6151227" lon="8.926213"><ele>215.0</ele><time>2026-04-30T10:55:12.725Z</time></trkpt><trkpt lat="40.6150957" lon="8.926495"><ele>215.0</ele><time>2026-04-30T10:55:13.729Z</time></trkpt><trkpt lat="40.615069" lon="8.9267662"><ele>215.0</ele><time>2026-04-30T10:55:14.726Z</time></trkpt><trkpt lat="40.6150428" lon="8.9270373"><ele>215.0</ele><time>2026-04-30T10:55:15.724Z</time></trkpt><trkpt lat="40.6150174" lon="8.9273069"><ele>215.0</ele><time>2026-04-30T10:55:16.725Z</time></trkpt><trkpt lat="40.6149916" lon="8.9275631"><ele>215.0</ele><time>2026-04-30T10:55:17.726Z</time></trkpt><trkpt lat="40.6149629" lon="8.9278091"><ele>215.0</ele><time>2026-04-30T10:55:18.727Z</time></trkpt><trkpt lat="40.6149287" lon="8.928051"><ele>215.0</ele><time>2026-04-30T10:55:19.726Z</time></trkpt><trkpt lat="40.6148857" lon="8.9282881"><ele>215.0</ele><time>2026-04-30T10:55:20.726Z</time></trkpt><trkpt lat="40.6148303" lon="8.9284991"><ele>214.33333333333334</ele><time>2026-04-30T10:55:21.725Z</time></trkpt><trkpt lat="40.6147614" lon="8.9286773"><ele>213.66666666666669</ele><time>2026-04-30T10:55:22.726Z</time></trkpt><trkpt lat="40.6146771" lon="8.9288447"><ele>213.0</ele><time>2026-04-30T10:55:23.724Z</time></trkpt><trkpt lat="40.614571" lon="8.9289948"><ele>213.0</ele><time>2026-04-30T10:55:24.729Z</time></trkpt><trkpt lat="40.6144521" lon="8.929129"><ele>213.0</ele><time>2026-04-30T10:55:25.727Z</time></trkpt><trkpt lat="40.6143166" lon="8.929236"><ele>213.0</ele><time>2026-04-30T10:55:26.727Z</time></trkpt><trkpt lat="40.6141735" lon="8.9293248"><ele>213.25</ele><time>2026-04-30T10:55:27.727Z</time></trkpt><trkpt lat="40.6140204" lon="8.9293897"><ele>213.5</ele><time>2026-04-30T10:55:28.724Z</time></trkpt><trkpt lat="40.6138742" lon="8.9294267"><ele>213.75</ele><time>2026-04-30T10:55:29.724Z</time></trkpt><trkpt lat="40.6137362" lon="8.929432"><ele>214.0</ele><time>2026-04-30T10:55:30.727Z</time></trkpt><trkpt lat="40.6136083" lon="8.9294147"><ele>214.0</ele><time>2026-04-30T10:55:31.729Z</time></trkpt><trkpt lat="40.6134906" lon="8.9293944"><ele>214.0</ele><time>2026-04-30T10:55:32.727Z</time></trkpt><trkpt lat="40.6133697" lon="8.9293764"><ele>214.0</ele><time>2026-04-30T10:55:33.725Z</time></trkpt><trkpt lat="40.6132424" lon="8.9293739"><ele>214.0</ele><time>2026-04-30T10:55:34.724Z</time></trkpt><trkpt lat="40.6131109" lon="8.9293909"><ele>214.0</ele><time>2026-04-30T10:55:35.725Z</time></trkpt><trkpt lat="40.6129767" lon="8.9294275"><ele>214.0</ele><time>2026-04-30T10:55:36.723Z</time></trkpt><trkpt lat="40.6128412" lon="8.9294899"><ele>214.0</ele><time>2026-04-30T10:55:37.727Z</time></trkpt><trkpt lat="40.6127077" lon="8.929578"><ele>214.0</ele><time>2026-04-30T10:55:38.726Z</time></trkpt><trkpt lat="40.6125755" lon="8.9296787"><ele>214.5</ele><time>2026-04-30T10:55:39.726Z</time></trkpt><trkpt lat="40.6124637" lon="8.9297943"><ele>215.0</ele><time>2026-04-30T10:55:40.724Z</time></trkpt><trkpt lat="40.6123611" lon="8.929905"><ele>215.5</ele><time>2026-04-30T10:55:41.723Z</time></trkpt><trkpt lat="40.6122478" lon="8.9299804"><ele>216.0</ele><time>2026-04-30T10:55:42.724Z</time></trkpt><trkpt lat="40.6121207" lon="8.930034"><ele>216.75</ele><time>2026-04-30T10:55:43.729Z</time></trkpt><trkpt lat="40.6119818" lon="8.9300586"><ele>217.5</ele><time>2026-04-30T10:55:44.725Z</time></trkpt><trkpt lat="40.6118428" lon="8.930045"><ele>218.25</ele><time>2026-04-30T10:55:45.726Z</time></trkpt><trkpt lat="40.6117064" lon="8.9299951"><ele>219.0</ele><time>2026-04-30T10:55:46.727Z</time></trkpt><trkpt lat="40.611573" lon="8.9299084"><ele>219.0</ele><time>2026-04-30T10:55:47.725Z</time></trkpt><trkpt lat="40.6114522" lon="8.9297891"><ele>219.0</ele><time>2026-04-30T10:55:48.725Z</time></trkpt><trkpt lat="40.6113586" lon="8.9296389"><ele>219.0</ele><time>2026-04-30T10:55:49.726Z</time></trkpt><trkpt lat="40.6112652" lon="8.9294632"><ele>219.0</ele><time>2026-04-30T10:55:50.726Z</time></trkpt><trkpt lat="40.611169" lon="8.9292771"><ele>219.0</ele><time>2026-04-30T10:55:51.727Z</time></trkpt><trkpt lat="40.6110725" lon="8.9290858"><ele>219.0</ele><time>2026-04-30T10:55:52.727Z</time></trkpt><trkpt lat="40.6109728" lon="8.9288869"><ele>219.0</ele><time>2026-04-30T10:55:53.725Z</time></trkpt><trkpt lat="40.6108703" lon="8.9286817"><ele>219.0</ele><time>2026-04-30T10:55:54.725Z</time></trkpt><trkpt lat="40.6107709" lon="8.9284835"><ele>219.0</ele><time>2026-04-30T10:55:55.728Z</time></trkpt><trkpt lat="40.6106773" lon="8.9282952"><ele>218.0</ele><time>2026-04-30T10:55:56.723Z</time></trkpt><trkpt lat="40.610587" lon="8.9281153"><ele>217.0</ele><time>2026-04-30T10:55:57.727Z</time></trkpt><trkpt lat="40.610497" lon="8.9279389"><ele>216.0</ele><time>2026-04-30T10:55:58.729Z</time></trkpt><trkpt lat="40.6104054" lon="8.9277664"><ele>216.33333333333331</ele><time>2026-04-30T10:55:59.729Z</time></trkpt><trkpt lat="40.6103113" lon="8.9275894"><ele>216.66666666666666</ele><time>2026-04-30T10:56:00.725Z</time></trkpt><trkpt lat="40.6102154" lon="8.9274139"><ele>217.0</ele><time>2026-04-30T10:56:01.724Z</time></trkpt><trkpt lat="40.6101146" lon="8.927241"><ele>217.66666666666666</ele><time>2026-04-30T10:56:02.726Z</time></trkpt><trkpt lat="40.6100124" lon="8.9270625"><ele>218.33333333333331</ele><time>2026-04-30T10:56:03.727Z</time></trkpt><trkpt lat="40.6099118" lon="8.9268772"><ele>219.0</ele><time>2026-04-30T10:56:04.728Z</time></trkpt><trkpt lat="40.6098078" lon="8.9266921"><ele>219.0</ele><time>2026-04-30T10:56:05.726Z</time></trkpt><trkpt lat="40.6097006" lon="8.9265047"><ele>219.0</ele><time>2026-04-30T10:56:06.724Z</time></trkpt><trkpt lat="40.6095912" lon="8.9263147"><ele>219.0</ele><time>2026-04-30T10:56:07.724Z</time></trkpt><trkpt lat="40.6094813" lon="8.9261253"><ele>218.66666666666669</ele><time>2026-04-30T10:56:08.722Z</time></trkpt><trkpt lat="40.60937" lon="8.9259301"><ele>218.33333333333334</ele><time>2026-04-30T10:56:09.724Z</time></trkpt><trkpt lat="40.6092545" lon="8.9257279"><ele>218.0</ele><time>2026-04-30T10:56:10.726Z</time></trkpt><trkpt lat="40.609133" lon="8.925516"><ele>218.0</ele><time>2026-04-30T10:56:11.726Z</time></trkpt><trkpt lat="40.6090095" lon="8.9252975"><ele>218.0</ele><time>2026-04-30T10:56:12.726Z</time></trkpt><trkpt lat="40.6088786" lon="8.9250707"><ele>218.0</ele><time>2026-04-30T10:56:13.723Z</time></trkpt><trkpt lat="40.6087423" lon="8.9248366"><ele>219.0</ele><time>2026-04-30T10:56:14.725Z</time></trkpt><trkpt lat="40.6085965" lon="8.9245844"><ele>220.0</ele><time>2026-04-30T10:56:15.724Z</time></trkpt><trkpt lat="40.6084448" lon="8.9243257"><ele>221.0</ele><time>2026-04-30T10:56:16.725Z</time></trkpt><trkpt lat="40.6082963" lon="8.9240748"><ele>222.0</ele><time>2026-04-30T10:56:17.725Z</time></trkpt><trkpt lat="40.6081568" lon="8.9238293"><ele>222.0</ele><time>2026-04-30T10:56:18.727Z</time></trkpt><trkpt lat="40.6080247" lon="8.9235988"><ele>222.0</ele><time>2026-04-30T10:56:19.724Z</time></trkpt><trkpt lat="40.6079091" lon="8.9233858"><ele>222.0</ele><time>2026-04-30T10:56:20.727Z</time></trkpt><trkpt lat="40.6078044" lon="8.9231969"><ele>221.66666666666669</ele><time>2026-04-30T10:56:21.725Z</time></trkpt><trkpt lat="40.6077044" lon="8.9230258"><ele>221.33333333333334</ele><time>2026-04-30T10:56:22.725Z</time></trkpt><trkpt lat="40.6076105" lon="8.9228611"><ele>221.0</ele><time>2026-04-30T10:56:23.725Z</time></trkpt><trkpt lat="40.6075202" lon="8.9226951"><ele>221.0</ele><time>2026-04-30T10:56:24.725Z</time></trkpt><trkpt lat="40.6074355" lon="8.9225238"><ele>221.0</ele><time>2026-04-30T10:56:25.725Z</time></trkpt><trkpt lat="40.6073531" lon="8.9223471"><ele>221.0</ele><time>2026-04-30T10:56:26.724Z</time></trkpt><trkpt lat="40.6072706" lon="8.9221667"><ele>221.0</ele><time>2026-04-30T10:56:27.727Z</time></trkpt><trkpt lat="40.6071881" lon="8.9219786"><ele>221.0</ele><time>2026-04-30T10:56:28.725Z</time></trkpt><trkpt lat="40.6071074" lon="8.9217883"><ele>221.0</ele><time>2026-04-30T10:56:29.723Z</time></trkpt><trkpt lat="40.6070216" lon="8.9215727"><ele>221.0</ele><time>2026-04-30T10:56:30.739Z</time></trkpt><trkpt lat="40.6069324" lon="8.9213293"><ele>221.0</ele><time>2026-04-30T10:56:31.724Z</time></trkpt><trkpt lat="40.6068396" lon="8.921056"><ele>221.0</ele><time>2026-04-30T10:56:32.724Z</time></trkpt><trkpt lat="40.6067483" lon="8.9207643"><ele>222.0</ele><time>2026-04-30T10:56:33.724Z</time></trkpt><trkpt lat="40.6066588" lon="8.9204477"><ele>223.0</ele><time>2026-04-30T10:56:34.724Z</time></trkpt><trkpt lat="40.6065701" lon="8.9201213"><ele>221.5</ele><time>2026-04-30T10:56:35.727Z</time></trkpt><trkpt lat="40.6064775" lon="8.9197838"><ele>220.0</ele><time>2026-04-30T10:56:36.728Z</time></trkpt><trkpt lat="40.606379" lon="8.9194377"><ele>219.5</ele><time>2026-04-30T10:56:37.726Z</time></trkpt><trkpt lat="40.606277" lon="8.91909"><ele>219.0</ele><time>2026-04-30T10:56:38.725Z</time></trkpt><trkpt lat="40.606171" lon="8.9187363"><ele>222.0</ele><time>2026-04-30T10:56:39.722Z</time></trkpt><trkpt lat="40.6060639" lon="8.9183767"><ele>225.0</ele><time>2026-04-30T10:56:40.726Z</time></trkpt><trkpt lat="40.6059533" lon="8.9180117"><ele>225.0</ele><time>2026-04-30T10:56:41.725Z</time></trkpt><trkpt lat="40.6058438" lon="8.9176446"><ele>225.0</ele><time>2026-04-30T10:56:42.726Z</time></trkpt><trkpt lat="40.6057333" lon="8.917277"><ele>225.5</ele><time>2026-04-30T10:56:43.727Z</time></trkpt><trkpt lat="40.6056227" lon="8.9169114"><ele>226.0</ele><time>2026-04-30T10:56:44.724Z</time></trkpt><trkpt lat="40.6055131" lon="8.9165525"><ele>226.0</ele><time>2026-04-30T10:56:45.725Z</time></trkpt><trkpt lat="40.6054047" lon="8.9161963"><ele>226.0</ele><time>2026-04-30T10:56:46.723Z</time></trkpt><trkpt lat="40.6052991" lon="8.915844"><ele>226.5</ele><time>2026-04-30T10:56:47.725Z</time></trkpt><trkpt lat="40.6051965" lon="8.9154944"><ele>227.0</ele><time>2026-04-30T10:56:48.728Z</time></trkpt><trkpt lat="40.6050922" lon="8.9151461"><ele>227.5</ele><time>2026-04-30T10:56:49.728Z</time></trkpt><trkpt lat="40.6049885" lon="8.9148007"><ele>228.0</ele><time>2026-04-30T10:56:50.726Z</time></trkpt><trkpt lat="40.6048856" lon="8.9144569"><ele>228.0</ele><time>2026-04-30T10:56:51.725Z</time></trkpt><trkpt lat="40.6047794" lon="8.9141166"><ele>228.0</ele><time>2026-04-30T10:56:52.724Z</time></trkpt><trkpt lat="40.6046667" lon="8.9137778"><ele>228.0</ele><time>2026-04-30T10:56:53.727Z</time></trkpt><trkpt lat="40.6045459" lon="8.9134464"><ele>228.0</ele><time>2026-04-30T10:56:54.724Z</time></trkpt><trkpt lat="40.6044169" lon="8.9131233"><ele>227.5</ele><time>2026-04-30T10:56:55.733Z</time></trkpt><trkpt lat="40.6042804" lon="8.9128072"><ele>227.0</ele><time>2026-04-30T10:56:56.725Z</time></trkpt><trkpt lat="40.6041385" lon="8.9124997"><ele>227.0</ele><time>2026-04-30T10:56:57.724Z</time></trkpt><trkpt lat="40.6039914" lon="8.9121979"><ele>227.0</ele><time>2026-04-30T10:56:58.724Z</time></trkpt><trkpt lat="40.6038489" lon="8.9119073"><ele>227.0</ele><time>2026-04-30T10:56:59.726Z</time></trkpt><trkpt lat="40.603714" lon="8.9116265"><ele>227.0</ele><time>2026-04-30T10:57:00.726Z</time></trkpt><trkpt lat="40.6035841" lon="8.9113531"><ele>227.5</ele><time>2026-04-30T10:57:01.726Z</time></trkpt><trkpt lat="40.603455" lon="8.9110842"><ele>228.0</ele><time>2026-04-30T10:57:02.726Z</time></trkpt><trkpt lat="40.6033256" lon="8.9108168"><ele>228.0</ele><time>2026-04-30T10:57:03.723Z</time></trkpt><trkpt lat="40.6031969" lon="8.9105455"><ele>228.0</ele><time>2026-04-30T10:57:04.724Z</time></trkpt><trkpt lat="40.6030675" lon="8.9102729"><ele>227.5</ele><time>2026-04-30T10:57:05.724Z</time></trkpt><trkpt lat="40.6029368" lon="8.9099996"><ele>227.0</ele><time>2026-04-30T10:57:06.725Z</time></trkpt><trkpt lat="40.6028017" lon="8.9097249"><ele>227.0</ele><time>2026-04-30T10:57:07.727Z</time></trkpt><trkpt lat="40.6026671" lon="8.9094508"><ele>227.0</ele><time>2026-04-30T10:57:08.727Z</time></trkpt><trkpt lat="40.6025389" lon="8.9091909"><ele>226.0</ele><time>2026-04-30T10:57:09.726Z</time></trkpt><trkpt lat="40.6024122" lon="8.9089342"><ele>225.0</ele><time>2026-04-30T10:57:10.725Z</time></trkpt><trkpt lat="40.6022902" lon="8.9086833"><ele>225.0</ele><time>2026-04-30T10:57:11.724Z</time></trkpt><trkpt lat="40.6021711" lon="8.9084395"><ele>225.0</ele><time>2026-04-30T10:57:12.725Z</time></trkpt><trkpt lat="40.6020573" lon="8.9082026"><ele>225.0</ele><time>2026-04-30T10:57:13.728Z</time></trkpt><trkpt lat="40.6019431" lon="8.907962"><ele>224.66666666666669</ele><time>2026-04-30T10:57:14.726Z</time></trkpt><trkpt lat="40.6018283" lon="8.9077256"><ele>224.33333333333334</ele><time>2026-04-30T10:57:15.725Z</time></trkpt><trkpt lat="40.6017187" lon="8.9074877"><ele>224.0</ele><time>2026-04-30T10:57:16.726Z</time></trkpt><trkpt lat="40.6016024" lon="8.9072455"><ele>224.0</ele><time>2026-04-30T10:57:17.724Z</time></trkpt><trkpt lat="40.6014849" lon="8.9070001"><ele>224.0</ele><time>2026-04-30T10:57:18.726Z</time></trkpt><trkpt lat="40.601365" lon="8.9067527"><ele>224.0</ele><time>2026-04-30T10:57:19.724Z</time></trkpt><trkpt lat="40.6012463" lon="8.9065065"><ele>224.0</ele><time>2026-04-30T10:57:20.724Z</time></trkpt><trkpt lat="40.6011334" lon="8.906269"><ele>224.0</ele><time>2026-04-30T10:57:21.725Z</time></trkpt><trkpt lat="40.6010171" lon="8.9060261"><ele>224.0</ele><time>2026-04-30T10:57:22.726Z</time></trkpt><trkpt lat="40.6008996" lon="8.905785"><ele>224.0</ele><time>2026-04-30T10:57:23.726Z</time></trkpt><trkpt lat="40.6007806" lon="8.9055449"><ele>224.0</ele><time>2026-04-30T10:57:24.726Z</time></trkpt><trkpt lat="40.6006579" lon="8.9053037"><ele>224.0</ele><time>2026-04-30T10:57:25.722Z</time></trkpt><trkpt lat="40.6005292" lon="8.9050662"><ele>224.0</ele><time>2026-04-30T10:57:26.728Z</time></trkpt><trkpt lat="40.6003938" lon="8.9048255"><ele>224.0</ele><time>2026-04-30T10:57:27.725Z</time></trkpt><trkpt lat="40.6002524" lon="8.9045897"><ele>224.0</ele><time>2026-04-30T10:57:28.727Z</time></trkpt><trkpt lat="40.6001043" lon="8.9043557"><ele>224.0</ele><time>2026-04-30T10:57:29.725Z</time></trkpt><trkpt lat="40.5999459" lon="8.9041212"><ele>223.5</ele><time>2026-04-30T10:57:30.725Z</time></trkpt><trkpt lat="40.599779" lon="8.9038889"><ele>223.0</ele><time>2026-04-30T10:57:31.727Z</time></trkpt><trkpt lat="40.5996042" lon="8.9036573"><ele>223.0</ele><time>2026-04-30T10:57:32.725Z</time></trkpt><trkpt lat="40.5994251" lon="8.9034296"><ele>223.0</ele><time>2026-04-30T10:57:33.727Z</time></trkpt><trkpt lat="40.599245" lon="8.9032031"><ele>223.5</ele><time>2026-04-30T10:57:34.725Z</time></trkpt><trkpt lat="40.5990642" lon="8.9029795"><ele>224.0</ele><time>2026-04-30T10:57:35.725Z</time></trkpt><trkpt lat="40.5988816" lon="8.9027521"><ele>224.0</ele><time>2026-04-30T10:57:36.724Z</time></trkpt><trkpt lat="40.5986985" lon="8.9025191"><ele>224.0</ele><time>2026-04-30T10:57:37.723Z</time></trkpt><trkpt lat="40.5985134" lon="8.9022868"><ele>224.0</ele><time>2026-04-30T10:57:38.728Z</time></trkpt><trkpt lat="40.5983252" lon="8.9020512"><ele>224.0</ele><time>2026-04-30T10:57:39.726Z</time></trkpt><trkpt lat="40.5981351" lon="8.9018152"><ele>224.5</ele><time>2026-04-30T10:57:40.728Z</time></trkpt><trkpt lat="40.5979467" lon="8.9015778"><ele>225.0</ele><time>2026-04-30T10:57:41.726Z</time></trkpt><trkpt lat="40.5977581" lon="8.9013384"><ele>225.0</ele><time>2026-04-30T10:57:42.725Z</time></trkpt><trkpt lat="40.5975693" lon="8.901097"><ele>225.0</ele><time>2026-04-30T10:57:43.724Z</time></trkpt><trkpt lat="40.5973803" lon="8.9008544"><ele>225.0</ele><time>2026-04-30T10:57:44.725Z</time></trkpt><trkpt lat="40.59719" lon="8.90061"><ele>225.0</ele><time>2026-04-30T10:57:45.725Z</time></trkpt><trkpt lat="40.5969975" lon="8.900368"><ele>224.5</ele><time>2026-04-30T10:57:46.724Z</time></trkpt><trkpt lat="40.5968049" lon="8.9001257"><ele>224.0</ele><time>2026-04-30T10:57:47.726Z</time></trkpt><trkpt lat="40.5966117" lon="8.8998838"><ele>224.0</ele><time>2026-04-30T10:57:48.725Z</time></trkpt><trkpt lat="40.5964194" lon="8.8996415"><ele>224.0</ele><time>2026-04-30T10:57:49.727Z</time></trkpt><trkpt lat="40.5962269" lon="8.8994008"><ele>224.0</ele><time>2026-04-30T10:57:50.723Z</time></trkpt><trkpt lat="40.5960352" lon="8.8991611"><ele>224.0</ele><time>2026-04-30T10:57:51.726Z</time></trkpt><trkpt lat="40.5958442" lon="8.8989229"><ele>224.0</ele><time>2026-04-30T10:57:52.726Z</time></trkpt><trkpt lat="40.5956538" lon="8.8986846"><ele>224.0</ele><time>2026-04-30T10:57:53.728Z</time></trkpt><trkpt lat="40.5954669" lon="8.8984491"><ele>224.5</ele><time>2026-04-30T10:57:54.726Z</time></trkpt><trkpt lat="40.5952905" lon="8.8982248"><ele>225.0</ele><time>2026-04-30T10:57:55.726Z</time></trkpt><trkpt lat="40.5951183" lon="8.8980085"><ele>225.0</ele><time>2026-04-30T10:57:56.724Z</time></trkpt><trkpt lat="40.5949493" lon="8.8977944"><ele>225.0</ele><time>2026-04-30T10:57:57.726Z</time></trkpt><trkpt lat="40.5947829" lon="8.897584"><ele>225.0</ele><time>2026-04-30T10:57:58.725Z</time></trkpt><trkpt lat="40.5946186" lon="8.8973752"><ele>225.0</ele><time>2026-04-30T10:57:59.728Z</time></trkpt><trkpt lat="40.5944535" lon="8.8971664"><ele>226.0</ele><time>2026-04-30T10:58:00.725Z</time></trkpt><trkpt lat="40.5942883" lon="8.8969584"><ele>227.0</ele><time>2026-04-30T10:58:01.725Z</time></trkpt><trkpt lat="40.5941229" lon="8.8967495"><ele>227.0</ele><time>2026-04-30T10:58:02.724Z</time></trkpt><trkpt lat="40.5939579" lon="8.8965393"><ele>227.0</ele><time>2026-04-30T10:58:03.724Z</time></trkpt><trkpt lat="40.5937923" lon="8.8963292"><ele>227.5</ele><time>2026-04-30T10:58:04.722Z</time></trkpt><trkpt lat="40.5936274" lon="8.896119"><ele>228.0</ele><time>2026-04-30T10:58:05.727Z</time></trkpt><trkpt lat="40.5934611" lon="8.8959094"><ele>228.5</ele><time>2026-04-30T10:58:06.724Z</time></trkpt><trkpt lat="40.5932937" lon="8.8956992"><ele>229.0</ele><time>2026-04-30T10:58:07.727Z</time></trkpt><trkpt lat="40.5931251" lon="8.8954879"><ele>229.0</ele><time>2026-04-30T10:58:08.725Z</time></trkpt><trkpt lat="40.5929568" lon="8.8952751"><ele>229.0</ele><time>2026-04-30T10:58:09.726Z</time></trkpt><trkpt lat="40.5927889" lon="8.8950623"><ele>228.5</ele><time>2026-04-30T10:58:10.725Z</time></trkpt><trkpt lat="40.5926206" lon="8.8948482"><ele>228.0</ele><time>2026-04-30T10:58:11.726Z</time></trkpt><trkpt lat="40.5924509" lon="8.8946347"><ele>228.0</ele><time>2026-04-30T10:58:12.725Z</time></trkpt><trkpt lat="40.5922804" lon="8.8944175"><ele>228.0</ele><time>2026-04-30T10:58:13.725Z</time></trkpt><trkpt lat="40.5921096" lon="8.8941966"><ele>229.5</ele><time>2026-04-30T10:58:14.724Z</time></trkpt><trkpt lat="40.5919387" lon="8.8939744"><ele>231.0</ele><time>2026-04-30T10:58:15.723Z</time></trkpt><trkpt lat="40.5917681" lon="8.8937517"><ele>231.0</ele><time>2026-04-30T10:58:16.723Z</time></trkpt><trkpt lat="40.5915997" lon="8.8935266"><ele>231.0</ele><time>2026-04-30T10:58:17.727Z</time></trkpt><trkpt lat="40.5914352" lon="8.893299"><ele>230.5</ele><time>2026-04-30T10:58:18.726Z</time></trkpt><trkpt lat="40.5912736" lon="8.8930682"><ele>230.0</ele><time>2026-04-30T10:58:19.724Z</time></trkpt><trkpt lat="40.5911127" lon="8.8928373"><ele>230.0</ele><time>2026-04-30T10:58:20.725Z</time></trkpt><trkpt lat="40.5909519" lon="8.8926054"><ele>230.0</ele><time>2026-04-30T10:58:21.725Z</time></trkpt><trkpt lat="40.5907922" lon="8.8923723"><ele>230.0</ele><time>2026-04-30T10:58:22.728Z</time></trkpt><trkpt lat="40.5906287" lon="8.8921383"><ele>230.0</ele><time>2026-04-30T10:58:23.724Z</time></trkpt><trkpt lat="40.590467" lon="8.8919066"><ele>229.5</ele><time>2026-04-30T10:58:24.725Z</time></trkpt><trkpt lat="40.590308" lon="8.8916728"><ele>229.0</ele><time>2026-04-30T10:58:25.726Z</time></trkpt><trkpt lat="40.5901487" lon="8.8914381"><ele>229.0</ele><time>2026-04-30T10:58:26.725Z</time></trkpt><trkpt lat="40.589991" lon="8.8912082"><ele>229.0</ele><time>2026-04-30T10:58:27.725Z</time></trkpt><trkpt lat="40.5898424" lon="8.8909866"><ele>229.33333333333331</ele><time>2026-04-30T10:58:28.724Z</time></trkpt><trkpt lat="40.5896922" lon="8.8907711"><ele>229.66666666666669</ele><time>2026-04-30T10:58:29.724Z</time></trkpt><trkpt lat="40.5895445" lon="8.8905569"><ele>230.0</ele><time>2026-04-30T10:58:30.725Z</time></trkpt><trkpt lat="40.589398" lon="8.8903411"><ele>230.0</ele><time>2026-04-30T10:58:31.725Z</time></trkpt><trkpt lat="40.589251" lon="8.8901238"><ele>230.0</ele><time>2026-04-30T10:58:32.725Z</time></trkpt><trkpt lat="40.5891035" lon="8.8899088"><ele>230.0</ele><time>2026-04-30T10:58:33.724Z</time></trkpt><trkpt lat="40.5889527" lon="8.8896896"><ele>229.5</ele><time>2026-04-30T10:58:34.731Z</time></trkpt><trkpt lat="40.588799" lon="8.8894708"><ele>229.0</ele><time>2026-04-30T10:58:35.724Z</time></trkpt><trkpt lat="40.5886449" lon="8.8892497"><ele>229.0</ele><time>2026-04-30T10:58:36.725Z</time></trkpt><trkpt lat="40.5884903" lon="8.8890263"><ele>229.0</ele><time>2026-04-30T10:58:37.728Z</time></trkpt><trkpt lat="40.5883345" lon="8.8887998"><ele>229.0</ele><time>2026-04-30T10:58:38.726Z</time></trkpt><trkpt lat="40.5881768" lon="8.8885724"><ele>229.0</ele><time>2026-04-30T10:58:39.725Z</time></trkpt><trkpt lat="40.5880187" lon="8.8883417"><ele>230.0</ele><time>2026-04-30T10:58:40.724Z</time></trkpt><trkpt lat="40.5878597" lon="8.8881101"><ele>231.0</ele><time>2026-04-30T10:58:41.724Z</time></trkpt><trkpt lat="40.587702" lon="8.8878751"><ele>231.0</ele><time>2026-04-30T10:58:42.723Z</time></trkpt><trkpt lat="40.5875417" lon="8.8876398"><ele>231.0</ele><time>2026-04-30T10:58:43.725Z</time></trkpt><trkpt lat="40.5873786" lon="8.8874064"><ele>231.5</ele><time>2026-04-30T10:58:44.725Z</time></trkpt><trkpt lat="40.587215" lon="8.8871726"><ele>232.0</ele><time>2026-04-30T10:58:45.727Z</time></trkpt><trkpt lat="40.5870603" lon="8.8869449"><ele>231.5</ele><time>2026-04-30T10:58:46.733Z</time></trkpt><trkpt lat="40.5869021" lon="8.8867195"><ele>231.0</ele><time>2026-04-30T10:58:47.723Z</time></trkpt><trkpt lat="40.5867473" lon="8.8864958"><ele>231.0</ele><time>2026-04-30T10:58:48.727Z</time></trkpt><trkpt lat="40.5865922" lon="8.8862723"><ele>231.0</ele><time>2026-04-30T10:58:49.741Z</time></trkpt><trkpt lat="40.5864384" lon="8.8860481"><ele>231.0</ele><time>2026-04-30T10:58:50.723Z</time></trkpt><trkpt lat="40.5862825" lon="8.8858293"><ele>231.0</ele><time>2026-04-30T10:58:51.723Z</time></trkpt><trkpt lat="40.5861218" lon="8.8856142"><ele>232.0</ele><time>2026-04-30T10:58:52.725Z</time></trkpt><trkpt lat="40.5859568" lon="8.8854026"><ele>233.0</ele><time>2026-04-30T10:58:53.724Z</time></trkpt><trkpt lat="40.5857908" lon="8.8851918"><ele>233.0</ele><time>2026-04-30T10:58:54.726Z</time></trkpt><trkpt lat="40.5856252" lon="8.8849779"><ele>233.0</ele><time>2026-04-30T10:58:55.724Z</time></trkpt><trkpt lat="40.5854579" lon="8.8847609"><ele>232.5</ele><time>2026-04-30T10:58:56.726Z</time></trkpt><trkpt lat="40.5852873" lon="8.8845424"><ele>232.0</ele><time>2026-04-30T10:58:57.725Z</time></trkpt><trkpt lat="40.5851151" lon="8.8843217"><ele>232.5</ele><time>2026-04-30T10:58:58.724Z</time></trkpt><trkpt lat="40.5849408" lon="8.8840988"><ele>233.0</ele><time>2026-04-30T10:58:59.725Z</time></trkpt><trkpt lat="40.5847697" lon="8.8838771"><ele>233.0</ele><time>2026-04-30T10:59:00.723Z</time></trkpt><trkpt lat="40.5845915" lon="8.8836494"><ele>233.0</ele><time>2026-04-30T10:59:01.725Z</time></trkpt><trkpt lat="40.58441" lon="8.8834211"><ele>233.0</ele><time>2026-04-30T10:59:02.725Z</time></trkpt><trkpt lat="40.5842276" lon="8.8831927"><ele>233.0</ele><time>2026-04-30T10:59:03.725Z</time></trkpt><trkpt lat="40.5840458" lon="8.8829609"><ele>233.0</ele><time>2026-04-30T10:59:04.731Z</time></trkpt><trkpt lat="40.583863" lon="8.8827282"><ele>233.0</ele><time>2026-04-30T10:59:05.723Z</time></trkpt><trkpt lat="40.5836796" lon="8.8824952"><ele>233.5</ele><time>2026-04-30T10:59:06.724Z</time></trkpt><trkpt lat="40.5834968" lon="8.8822586"><ele>234.0</ele><time>2026-04-30T10:59:07.725Z</time></trkpt><trkpt lat="40.5833117" lon="8.8820223"><ele>234.0</ele><time>2026-04-30T10:59:08.723Z</time></trkpt><trkpt lat="40.5831245" lon="8.8817891"><ele>234.0</ele><time>2026-04-30T10:59:09.725Z</time></trkpt><trkpt lat="40.5829362" lon="8.8815537"><ele>235.0</ele><time>2026-04-30T10:59:10.726Z</time></trkpt><trkpt lat="40.5827465" lon="8.8813173"><ele>236.0</ele><time>2026-04-30T10:59:11.726Z</time></trkpt><trkpt lat="40.582557" lon="8.8810799"><ele>236.5</ele><time>2026-04-30T10:59:12.723Z</time></trkpt><trkpt lat="40.5823695" lon="8.8808381"><ele>237.0</ele><time>2026-04-30T10:59:13.724Z</time></trkpt><trkpt lat="40.5821834" lon="8.8805938"><ele>236.0</ele><time>2026-04-30T10:59:14.727Z</time></trkpt><trkpt lat="40.582004" lon="8.8803467"><ele>235.0</ele><time>2026-04-30T10:59:15.727Z</time></trkpt><trkpt lat="40.5818388" lon="8.8801089"><ele>236.5</ele><time>2026-04-30T10:59:16.733Z</time></trkpt><trkpt lat="40.5816813" lon="8.8798686"><ele>238.0</ele><time>2026-04-30T10:59:17.725Z</time></trkpt><trkpt lat="40.581529" lon="8.8796272"><ele>238.0</ele><time>2026-04-30T10:59:18.726Z</time></trkpt><trkpt lat="40.581377" lon="8.8793888"><ele>238.0</ele><time>2026-04-30T10:59:19.724Z</time></trkpt><trkpt lat="40.5812233" lon="8.879149"><ele>239.5</ele><time>2026-04-30T10:59:20.725Z</time></trkpt><trkpt lat="40.5810706" lon="8.878914"><ele>241.0</ele><time>2026-04-30T10:59:21.725Z</time></trkpt><trkpt lat="40.5809172" lon="8.8786798"><ele>241.0</ele><time>2026-04-30T10:59:22.728Z</time></trkpt><trkpt lat="40.5807624" lon="8.8784464"><ele>241.0</ele><time>2026-04-30T10:59:23.724Z</time></trkpt><trkpt lat="40.5806078" lon="8.878212"><ele>240.5</ele><time>2026-04-30T10:59:24.725Z</time></trkpt><trkpt lat="40.5804581" lon="8.8779772"><ele>240.0</ele><time>2026-04-30T10:59:25.724Z</time></trkpt><trkpt lat="40.5803096" lon="8.8777413"><ele>240.0</ele><time>2026-04-30T10:59:26.727Z</time></trkpt><trkpt lat="40.5801778" lon="8.8775069"><ele>240.0</ele><time>2026-04-30T10:59:27.725Z</time></trkpt><trkpt lat="40.58003" lon="8.8772736"><ele>240.0</ele><time>2026-04-30T10:59:28.728Z</time></trkpt><trkpt lat="40.5798836" lon="8.8770424"><ele>240.0</ele><time>2026-04-30T10:59:29.727Z</time></trkpt><trkpt lat="40.5797382" lon="8.8768121"><ele>240.66666666666669</ele><time>2026-04-30T10:59:30.725Z</time></trkpt><trkpt lat="40.579593" lon="8.876586"><ele>241.33333333333334</ele><time>2026-04-30T10:59:31.725Z</time></trkpt><trkpt lat="40.5794462" lon="8.8763641"><ele>242.0</ele><time>2026-04-30T10:59:32.726Z</time></trkpt><trkpt lat="40.5792946" lon="8.8761489"><ele>242.66666666666669</ele><time>2026-04-30T10:59:33.724Z</time></trkpt><trkpt lat="40.5791362" lon="8.875946"><ele>243.33333333333331</ele><time>2026-04-30T10:59:34.728Z</time></trkpt><trkpt lat="40.5789697" lon="8.8757574"><ele>244.0</ele><time>2026-04-30T10:59:35.724Z</time></trkpt><trkpt lat="40.5788039" lon="8.8755833"><ele>245.33333333333331</ele><time>2026-04-30T10:59:36.726Z</time></trkpt><trkpt lat="40.5786367" lon="8.8754256"><ele>246.66666666666669</ele><time>2026-04-30T10:59:37.725Z</time></trkpt><trkpt lat="40.5784672" lon="8.8752754"><ele>248.0</ele><time>2026-04-30T10:59:38.724Z</time></trkpt><trkpt lat="40.5782993" lon="8.8751302"><ele>247.33333333333334</ele><time>2026-04-30T10:59:39.729Z</time></trkpt><trkpt lat="40.5781285" lon="8.8749946"><ele>246.66666666666669</ele><time>2026-04-30T10:59:40.723Z</time></trkpt><trkpt lat="40.577955" lon="8.8748681"><ele>246.0</ele><time>2026-04-30T10:59:41.727Z</time></trkpt><trkpt lat="40.5777861" lon="8.8747482"><ele>247.66666666666669</ele><time>2026-04-30T10:59:42.727Z</time></trkpt><trkpt lat="40.5776264" lon="8.8746308"><ele>249.33333333333334</ele><time>2026-04-30T10:59:43.726Z</time></trkpt><trkpt lat="40.5774663" lon="8.8745137"><ele>251.0</ele><time>2026-04-30T10:59:44.725Z</time></trkpt><trkpt lat="40.5773055" lon="8.8743958"><ele>251.0</ele><time>2026-04-30T10:59:45.727Z</time></trkpt><trkpt lat="40.5771454" lon="8.8742782"><ele>251.0</ele><time>2026-04-30T10:59:46.726Z</time></trkpt><trkpt lat="40.5769854" lon="8.874163"><ele>251.0</ele><time>2026-04-30T10:59:47.727Z</time></trkpt><trkpt lat="40.5768227" lon="8.8740476"><ele>252.66666666666669</ele><time>2026-04-30T10:59:48.725Z</time></trkpt><trkpt lat="40.5766548" lon="8.8739317"><ele>254.33333333333331</ele><time>2026-04-30T10:59:49.725Z</time></trkpt><trkpt lat="40.5764852" lon="8.8738101"><ele>256.0</ele><time>2026-04-30T10:59:50.725Z</time></trkpt><trkpt lat="40.5763164" lon="8.873676"><ele>256.0</ele><time>2026-04-30T10:59:51.723Z</time></trkpt><trkpt lat="40.5761486" lon="8.8735314"><ele>256.0</ele><time>2026-04-30T10:59:52.726Z</time></trkpt><trkpt lat="40.5759857" lon="8.873375"><ele>256.0</ele><time>2026-04-30T10:59:53.725Z</time></trkpt><trkpt lat="40.5758233" lon="8.8732091"><ele>256.0</ele><time>2026-04-30T10:59:54.726Z</time></trkpt><trkpt lat="40.5756614" lon="8.8730344"><ele>256.0</ele><time>2026-04-30T10:59:55.724Z</time></trkpt><trkpt lat="40.5755034" lon="8.872849"><ele>256.0</ele><time>2026-04-30T10:59:56.725Z</time></trkpt><trkpt lat="40.5753485" lon="8.872655"><ele>256.0</ele><time>2026-04-30T10:59:57.725Z</time></trkpt><trkpt lat="40.5752" lon="8.8724509"><ele>256.0</ele><time>2026-04-30T10:59:58.729Z</time></trkpt><trkpt lat="40.575057" lon="8.8722407"><ele>256.0</ele><time>2026-04-30T10:59:59.726Z</time></trkpt><trkpt lat="40.5749241" lon="8.8720273"><ele>256.0</ele><time>2026-04-30T11:00:00.726Z</time></trkpt><trkpt lat="40.5747965" lon="8.8718091"><ele>256.0</ele><time>2026-04-30T11:00:01.724Z</time></trkpt><trkpt lat="40.5746747" lon="8.8715846"><ele>256.0</ele><time>2026-04-30T11:00:02.725Z</time></trkpt><trkpt lat="40.5745592" lon="8.8713545"><ele>257.3333333333333</ele><time>2026-04-30T11:00:03.724Z</time></trkpt><trkpt lat="40.5744555" lon="8.8711233"><ele>258.6666666666667</ele><time>2026-04-30T11:00:04.728Z</time></trkpt><trkpt lat="40.5743656" lon="8.8709006"><ele>260.0</ele><time>2026-04-30T11:00:05.728Z</time></trkpt><trkpt lat="40.5742869" lon="8.870684"><ele>261.0</ele><time>2026-04-30T11:00:06.737Z</time></trkpt><trkpt lat="40.5742173" lon="8.8704785"><ele>262.0</ele><time>2026-04-30T11:00:07.727Z</time></trkpt><trkpt lat="40.5741551" lon="8.8702808"><ele>263.0</ele><time>2026-04-30T11:00:08.725Z</time></trkpt><trkpt lat="40.5740986" lon="8.8700922"><ele>263.0</ele><time>2026-04-30T11:00:09.725Z</time></trkpt><trkpt lat="40.5740499" lon="8.8699114"><ele>263.0</ele><time>2026-04-30T11:00:10.725Z</time></trkpt><trkpt lat="40.5740062" lon="8.8697391"><ele>263.0</ele><time>2026-04-30T11:00:11.726Z</time></trkpt><trkpt lat="40.5739638" lon="8.8695569"><ele>263.0</ele><time>2026-04-30T11:00:12.727Z</time></trkpt><trkpt lat="40.5739238" lon="8.8693659"><ele>263.33333333333337</ele><time>2026-04-30T11:00:13.725Z</time></trkpt><trkpt lat="40.5738886" lon="8.8691632"><ele>263.6666666666667</ele><time>2026-04-30T11:00:14.725Z</time></trkpt><trkpt lat="40.5738575" lon="8.8689483"><ele>264.0</ele><time>2026-04-30T11:00:15.725Z</time></trkpt><trkpt lat="40.5738282" lon="8.8687286"><ele>264.0</ele><time>2026-04-30T11:00:16.725Z</time></trkpt><trkpt lat="40.5737984" lon="8.8684937"><ele>264.0</ele><time>2026-04-30T11:00:17.726Z</time></trkpt><trkpt lat="40.5737703" lon="8.8682443"><ele>264.0</ele><time>2026-04-30T11:00:18.725Z</time></trkpt><trkpt lat="40.5737404" lon="8.8679791"><ele>264.3333333333333</ele><time>2026-04-30T11:00:19.726Z</time></trkpt><trkpt lat="40.5737067" lon="8.8676989"><ele>264.66666666666663</ele><time>2026-04-30T11:00:20.727Z</time></trkpt><trkpt lat="40.5736721" lon="8.8674042"><ele>265.0</ele><time>2026-04-30T11:00:21.727Z</time></trkpt><trkpt lat="40.5736366" lon="8.8670972"><ele>263.0</ele><time>2026-04-30T11:00:22.725Z</time></trkpt><trkpt lat="40.5736007" lon="8.8667788"><ele>261.0</ele><time>2026-04-30T11:00:23.725Z</time></trkpt><trkpt lat="40.5735637" lon="8.8664539"><ele>261.0</ele><time>2026-04-30T11:00:24.723Z</time></trkpt><trkpt lat="40.5735271" lon="8.8661225"><ele>261.0</ele><time>2026-04-30T11:00:25.727Z</time></trkpt><trkpt lat="40.5734914" lon="8.8657872"><ele>262.5</ele><time>2026-04-30T11:00:26.726Z</time></trkpt><trkpt lat="40.5734548" lon="8.8654484"><ele>264.0</ele><time>2026-04-30T11:00:27.725Z</time></trkpt><trkpt lat="40.5734187" lon="8.8651073"><ele>265.0</ele><time>2026-04-30T11:00:28.725Z</time></trkpt><trkpt lat="40.5733824" lon="8.8647607"><ele>266.0</ele><time>2026-04-30T11:00:29.725Z</time></trkpt><trkpt lat="40.5733451" lon="8.8644156"><ele>267.0</ele><time>2026-04-30T11:00:30.724Z</time></trkpt><trkpt lat="40.5733067" lon="8.8640695"><ele>268.0</ele><time>2026-04-30T11:00:31.723Z</time></trkpt><trkpt lat="40.5732686" lon="8.8637253"><ele>270.5</ele><time>2026-04-30T11:00:32.726Z</time></trkpt><trkpt lat="40.5732283" lon="8.8633801"><ele>273.0</ele><time>2026-04-30T11:00:33.725Z</time></trkpt><trkpt lat="40.5731877" lon="8.8630339"><ele>273.0</ele><time>2026-04-30T11:00:34.724Z</time></trkpt><trkpt lat="40.5731512" lon="8.8626845"><ele>273.0</ele><time>2026-04-30T11:00:35.724Z</time></trkpt><trkpt lat="40.5731144" lon="8.8623334"><ele>273.5</ele><time>2026-04-30T11:00:36.723Z</time></trkpt><trkpt lat="40.5730771" lon="8.8619838"><ele>274.0</ele><time>2026-04-30T11:00:37.723Z</time></trkpt><trkpt lat="40.5730371" lon="8.8616391"><ele>274.5</ele><time>2026-04-30T11:00:38.725Z</time></trkpt><trkpt lat="40.5729997" lon="8.8613037"><ele>275.0</ele><time>2026-04-30T11:00:39.726Z</time></trkpt><trkpt lat="40.5729657" lon="8.8609823"><ele>276.5</ele><time>2026-04-30T11:00:40.726Z</time></trkpt><trkpt lat="40.5729327" lon="8.8606752"><ele>278.0</ele><time>2026-04-30T11:00:41.726Z</time></trkpt><trkpt lat="40.5729018" lon="8.8603811"><ele>278.33333333333337</ele><time>2026-04-30T11:00:42.725Z</time></trkpt><trkpt lat="40.5728719" lon="8.8601029"><ele>278.6666666666667</ele><time>2026-04-30T11:00:43.724Z</time></trkpt><trkpt lat="40.5728431" lon="8.8598372"><ele>279.0</ele><time>2026-04-30T11:00:44.727Z</time></trkpt><trkpt lat="40.5728141" lon="8.8595777"><ele>278.3333333333333</ele><time>2026-04-30T11:00:45.724Z</time></trkpt><trkpt lat="40.5727858" lon="8.8593184"><ele>277.66666666666663</ele><time>2026-04-30T11:00:46.727Z</time></trkpt><trkpt lat="40.5727582" lon="8.8590645"><ele>277.0</ele><time>2026-04-30T11:00:47.725Z</time></trkpt><trkpt lat="40.5727305" lon="8.8588063"><ele>278.3333333333333</ele><time>2026-04-30T11:00:48.722Z</time></trkpt><trkpt lat="40.5726975" lon="8.858528"><ele>279.6666666666667</ele><time>2026-04-30T11:00:49.727Z</time></trkpt><trkpt lat="40.5726599" lon="8.8582337"><ele>281.0</ele><time>2026-04-30T11:00:50.729Z</time></trkpt><trkpt lat="40.5726182" lon="8.8579149"><ele>284.5</ele><time>2026-04-30T11:00:51.725Z</time></trkpt><trkpt lat="40.5725822" lon="8.8575862"><ele>288.0</ele><time>2026-04-30T11:00:52.731Z</time></trkpt><trkpt lat="40.5725432" lon="8.8572412"><ele>288.0</ele><time>2026-04-30T11:00:53.734Z</time></trkpt><trkpt lat="40.5725059" lon="8.8568786"><ele>288.0</ele><time>2026-04-30T11:00:54.724Z</time></trkpt><trkpt lat="40.5724727" lon="8.8565131"><ele>290.0</ele><time>2026-04-30T11:00:55.724Z</time></trkpt><trkpt lat="40.5724404" lon="8.8561359"><ele>292.0</ele><time>2026-04-30T11:00:56.723Z</time></trkpt><trkpt lat="40.5724057" lon="8.8557531"><ele>292.0</ele><time>2026-04-30T11:00:57.726Z</time></trkpt><trkpt lat="40.5723674" lon="8.8553622"><ele>292.0</ele><time>2026-04-30T11:00:58.727Z</time></trkpt><trkpt lat="40.5723268" lon="8.8549661"><ele>293.0</ele><time>2026-04-30T11:00:59.725Z</time></trkpt><trkpt lat="40.572289" lon="8.8545665"><ele>294.0</ele><time>2026-04-30T11:01:00.726Z</time></trkpt><trkpt lat="40.572258" lon="8.8541787"><ele>293.5</ele><time>2026-04-30T11:01:01.725Z</time></trkpt><trkpt lat="40.5722352" lon="8.8537979"><ele>293.0</ele><time>2026-04-30T11:01:02.723Z</time></trkpt><trkpt lat="40.5722205" lon="8.8534218"><ele>293.0</ele><time>2026-04-30T11:01:03.724Z</time></trkpt><trkpt lat="40.5722118" lon="8.8530487"><ele>293.0</ele><time>2026-04-30T11:01:04.727Z</time></trkpt><trkpt lat="40.5722106" lon="8.8526812"><ele>292.5</ele><time>2026-04-30T11:01:05.728Z</time></trkpt><trkpt lat="40.5722165" lon="8.8523153"><ele>292.0</ele><time>2026-04-30T11:01:06.727Z</time></trkpt><trkpt lat="40.5722284" lon="8.851954"><ele>293.5</ele><time>2026-04-30T11:01:07.724Z</time></trkpt><trkpt lat="40.5722466" lon="8.851599"><ele>295.0</ele><time>2026-04-30T11:01:08.725Z</time></trkpt><trkpt lat="40.5722681" lon="8.8512499"><ele>297.0</ele><time>2026-04-30T11:01:09.724Z</time></trkpt><trkpt lat="40.572292" lon="8.8509043"><ele>299.0</ele><time>2026-04-30T11:01:10.726Z</time></trkpt><trkpt lat="40.5723167" lon="8.8505595"><ele>299.0</ele><time>2026-04-30T11:01:11.724Z</time></trkpt><trkpt lat="40.5723405" lon="8.8502176"><ele>299.0</ele><time>2026-04-30T11:01:12.726Z</time></trkpt><trkpt lat="40.5723602" lon="8.8498779"><ele>298.5</ele><time>2026-04-30T11:01:13.725Z</time></trkpt><trkpt lat="40.5723791" lon="8.8495406"><ele>298.0</ele><time>2026-04-30T11:01:14.724Z</time></trkpt><trkpt lat="40.5723955" lon="8.8492065"><ele>299.5</ele><time>2026-04-30T11:01:15.723Z</time></trkpt><trkpt lat="40.5724061" lon="8.8488716"><ele>301.0</ele><time>2026-04-30T11:01:16.724Z</time></trkpt><trkpt lat="40.5724111" lon="8.8485363"><ele>303.0</ele><time>2026-04-30T11:01:17.735Z</time></trkpt><trkpt lat="40.5724085" lon="8.8482032"><ele>305.0</ele><time>2026-04-30T11:01:18.727Z</time></trkpt><trkpt lat="40.5724013" lon="8.8478689"><ele>307.0</ele><time>2026-04-30T11:01:19.724Z</time></trkpt><trkpt lat="40.5723868" lon="8.8475313"><ele>309.0</ele><time>2026-04-30T11:01:20.727Z</time></trkpt><trkpt lat="40.5723658" lon="8.8471928"><ele>309.0</ele><time>2026-04-30T11:01:21.725Z</time></trkpt><trkpt lat="40.5723364" lon="8.8468496"><ele>309.0</ele><time>2026-04-30T11:01:22.727Z</time></trkpt><trkpt lat="40.5722989" lon="8.8465035"><ele>309.0</ele><time>2026-04-30T11:01:23.728Z</time></trkpt><trkpt lat="40.5722558" lon="8.8461574"><ele>309.0</ele><time>2026-04-30T11:01:24.728Z</time></trkpt><trkpt lat="40.5722016" lon="8.8458143"><ele>310.0</ele><time>2026-04-30T11:01:25.727Z</time></trkpt><trkpt lat="40.5721436" lon="8.8454777"><ele>311.0</ele><time>2026-04-30T11:01:26.726Z</time></trkpt><trkpt lat="40.5720841" lon="8.8451562"><ele>313.5</ele><time>2026-04-30T11:01:27.725Z</time></trkpt><trkpt lat="40.5720191" lon="8.8448447"><ele>316.0</ele><time>2026-04-30T11:01:28.724Z</time></trkpt><trkpt lat="40.5719451" lon="8.8445348"><ele>316.5</ele><time>2026-04-30T11:01:29.727Z</time></trkpt><trkpt lat="40.5718689" lon="8.8442275"><ele>317.0</ele><time>2026-04-30T11:01:30.726Z</time></trkpt><trkpt lat="40.5717955" lon="8.8439349"><ele>317.0</ele><time>2026-04-30T11:01:31.725Z</time></trkpt><trkpt lat="40.5717222" lon="8.8436528"><ele>317.0</ele><time>2026-04-30T11:01:32.725Z</time></trkpt><trkpt lat="40.5716479" lon="8.8433742"><ele>319.5</ele><time>2026-04-30T11:01:33.724Z</time></trkpt><trkpt lat="40.5715721" lon="8.8430974"><ele>322.0</ele><time>2026-04-30T11:01:34.723Z</time></trkpt><trkpt lat="40.5714959" lon="8.8428164"><ele>324.0</ele><time>2026-04-30T11:01:35.722Z</time></trkpt><trkpt lat="40.5714248" lon="8.8425285"><ele>326.0</ele><time>2026-04-30T11:01:36.723Z</time></trkpt><trkpt lat="40.5713566" lon="8.8422313"><ele>326.0</ele><time>2026-04-30T11:01:37.728Z</time></trkpt><trkpt lat="40.5712908" lon="8.8419225"><ele>326.0</ele><time>2026-04-30T11:01:38.726Z</time></trkpt><trkpt lat="40.5712284" lon="8.841612"><ele>330.0</ele><time>2026-04-30T11:01:39.725Z</time></trkpt><trkpt lat="40.5711723" lon="8.8413095"><ele>334.0</ele><time>2026-04-30T11:01:40.723Z</time></trkpt><trkpt lat="40.5711225" lon="8.8410031"><ele>336.0</ele><time>2026-04-30T11:01:41.724Z</time></trkpt><trkpt lat="40.5710726" lon="8.840687"><ele>338.0</ele><time>2026-04-30T11:01:42.725Z</time></trkpt><trkpt lat="40.5710272" lon="8.8403659"><ele>337.0</ele><time>2026-04-30T11:01:43.727Z</time></trkpt><trkpt lat="40.5709922" lon="8.8400447"><ele>336.0</ele><time>2026-04-30T11:01:44.724Z</time></trkpt><trkpt lat="40.5709664" lon="8.8397134"><ele>336.0</ele><time>2026-04-30T11:01:45.726Z</time></trkpt><trkpt lat="40.570946" lon="8.8393762"><ele>336.0</ele><time>2026-04-30T11:01:46.724Z</time></trkpt><trkpt lat="40.5709346" lon="8.8390329"><ele>332.5</ele><time>2026-04-30T11:01:47.724Z</time></trkpt><trkpt lat="40.5709298" lon="8.8386877"><ele>329.0</ele><time>2026-04-30T11:01:48.726Z</time></trkpt><trkpt lat="40.5709288" lon="8.8383436"><ele>328.0</ele><time>2026-04-30T11:01:49.725Z</time></trkpt><trkpt lat="40.570933" lon="8.8380094"><ele>327.0</ele><time>2026-04-30T11:01:50.729Z</time></trkpt><trkpt lat="40.5709385" lon="8.8376777"><ele>328.5</ele><time>2026-04-30T11:01:51.725Z</time></trkpt><trkpt lat="40.5709429" lon="8.8373413"><ele>330.0</ele><time>2026-04-30T11:01:52.725Z</time></trkpt><trkpt lat="40.570948" lon="8.8369997"><ele>332.5</ele><time>2026-04-30T11:01:53.726Z</time></trkpt><trkpt lat="40.5709515" lon="8.8366599"><ele>335.0</ele><time>2026-04-30T11:01:54.724Z</time></trkpt><trkpt lat="40.5709532" lon="8.8363131"><ele>335.0</ele><time>2026-04-30T11:01:55.727Z</time></trkpt><trkpt lat="40.5709542" lon="8.8359646"><ele>335.0</ele><time>2026-04-30T11:01:56.729Z</time></trkpt><trkpt lat="40.5709614" lon="8.8356086"><ele>335.0</ele><time>2026-04-30T11:01:57.726Z</time></trkpt><trkpt lat="40.5709668" lon="8.8352518"><ele>335.0</ele><time>2026-04-30T11:01:58.725Z</time></trkpt><trkpt lat="40.5709739" lon="8.8348938"><ele>331.5</ele><time>2026-04-30T11:01:59.725Z</time></trkpt><trkpt lat="40.5709911" lon="8.8345399"><ele>328.0</ele><time>2026-04-30T11:02:00.724Z</time></trkpt><trkpt lat="40.5709982" lon="8.8341777"><ele>323.5</ele><time>2026-04-30T11:02:01.724Z</time></trkpt><trkpt lat="40.5710065" lon="8.8338124"><ele>319.0</ele><time>2026-04-30T11:02:02.723Z</time></trkpt><trkpt lat="40.5710144" lon="8.8334486"><ele>319.0</ele><time>2026-04-30T11:02:03.724Z</time></trkpt><trkpt lat="40.5710214" lon="8.8330878"><ele>319.0</ele><time>2026-04-30T11:02:04.723Z</time></trkpt><trkpt lat="40.5710282" lon="8.8327316"><ele>320.0</ele><time>2026-04-30T11:02:05.725Z</time></trkpt><trkpt lat="40.571035" lon="8.8323758"><ele>321.0</ele><time>2026-04-30T11:02:06.724Z</time></trkpt><trkpt lat="40.5710421" lon="8.8320235"><ele>321.0</ele><time>2026-04-30T11:02:07.726Z</time></trkpt><trkpt lat="40.5710483" lon="8.8316721"><ele>321.0</ele><time>2026-04-30T11:02:08.725Z</time></trkpt><trkpt lat="40.571055" lon="8.8313258"><ele>321.0</ele><time>2026-04-30T11:02:09.725Z</time></trkpt><trkpt lat="40.5710603" lon="8.8309916"><ele>321.0</ele><time>2026-04-30T11:02:10.723Z</time></trkpt><trkpt lat="40.5710645" lon="8.8306558"><ele>324.5</ele><time>2026-04-30T11:02:11.727Z</time></trkpt><trkpt lat="40.5710673" lon="8.8303221"><ele>328.0</ele><time>2026-04-30T11:02:12.725Z</time></trkpt><trkpt lat="40.5710722" lon="8.8299884"><ele>329.0</ele><time>2026-04-30T11:02:13.723Z</time></trkpt><trkpt lat="40.5710792" lon="8.829657"><ele>330.0</ele><time>2026-04-30T11:02:14.724Z</time></trkpt><trkpt lat="40.5710862" lon="8.8293252"><ele>330.5</ele><time>2026-04-30T11:02:15.726Z</time></trkpt><trkpt lat="40.5710929" lon="8.828994"><ele>331.0</ele><time>2026-04-30T11:02:16.728Z</time></trkpt><trkpt lat="40.5711012" lon="8.8286748"><ele>334.0</ele><time>2026-04-30T11:02:17.726Z</time></trkpt><trkpt lat="40.5711073" lon="8.8283521"><ele>337.0</ele><time>2026-04-30T11:02:18.726Z</time></trkpt><trkpt lat="40.5711127" lon="8.8280263"><ele>337.0</ele><time>2026-04-30T11:02:19.725Z</time></trkpt><trkpt lat="40.5711161" lon="8.8276966"><ele>337.0</ele><time>2026-04-30T11:02:20.724Z</time></trkpt><trkpt lat="40.5711198" lon="8.827366"><ele>334.0</ele><time>2026-04-30T11:02:21.724Z</time></trkpt><trkpt lat="40.5711223" lon="8.8270361"><ele>331.0</ele><time>2026-04-30T11:02:22.728Z</time></trkpt><trkpt lat="40.5711218" lon="8.8267106"><ele>329.0</ele><time>2026-04-30T11:02:23.726Z</time></trkpt><trkpt lat="40.5711156" lon="8.8263896"><ele>327.0</ele><time>2026-04-30T11:02:24.726Z</time></trkpt><trkpt lat="40.5711009" lon="8.8260734"><ele>325.0</ele><time>2026-04-30T11:02:25.727Z</time></trkpt><trkpt lat="40.5710798" lon="8.8257738"><ele>323.0</ele><time>2026-04-30T11:02:26.726Z</time></trkpt><trkpt lat="40.571053" lon="8.8254815"><ele>323.0</ele><time>2026-04-30T11:02:27.727Z</time></trkpt><trkpt lat="40.5710167" lon="8.8251908"><ele>323.0</ele><time>2026-04-30T11:02:28.725Z</time></trkpt><trkpt lat="40.5709741" lon="8.8248983"><ele>322.5</ele><time>2026-04-30T11:02:29.724Z</time></trkpt><trkpt lat="40.5709227" lon="8.8245976"><ele>322.0</ele><time>2026-04-30T11:02:30.725Z</time></trkpt><trkpt lat="40.5708634" lon="8.8242923"><ele>327.0</ele><time>2026-04-30T11:02:31.729Z</time></trkpt><trkpt lat="40.5707961" lon="8.82399"><ele>332.0</ele><time>2026-04-30T11:02:32.723Z</time></trkpt><trkpt lat="40.5707164" lon="8.8236838"><ele>333.0</ele><time>2026-04-30T11:02:33.725Z</time></trkpt><trkpt lat="40.5706297" lon="8.823381"><ele>334.0</ele><time>2026-04-30T11:02:34.725Z</time></trkpt><trkpt lat="40.5705365" lon="8.8230777"><ele>334.0</ele><time>2026-04-30T11:02:35.723Z</time></trkpt><trkpt lat="40.5704343" lon="8.8227764"><ele>334.0</ele><time>2026-04-30T11:02:36.724Z</time></trkpt><trkpt lat="40.5703237" lon="8.8224779"><ele>344.5</ele><time>2026-04-30T11:02:37.724Z</time></trkpt><trkpt lat="40.570208" lon="8.8221856"><ele>355.0</ele><time>2026-04-30T11:02:38.725Z</time></trkpt><trkpt lat="40.5700833" lon="8.8219011"><ele>353.0</ele><time>2026-04-30T11:02:39.724Z</time></trkpt><trkpt lat="40.5699494" lon="8.8216242"><ele>351.0</ele><time>2026-04-30T11:02:40.726Z</time></trkpt><trkpt lat="40.5698077" lon="8.8213483"><ele>351.0</ele><time>2026-04-30T11:02:41.724Z</time></trkpt><trkpt lat="40.5696555" lon="8.821079"><ele>351.0</ele><time>2026-04-30T11:02:42.724Z</time></trkpt><trkpt lat="40.569494" lon="8.8208151"><ele>349.0</ele><time>2026-04-30T11:02:43.725Z</time></trkpt><trkpt lat="40.5693291" lon="8.8205555"><ele>347.0</ele><time>2026-04-30T11:02:44.725Z</time></trkpt><trkpt lat="40.569147" lon="8.8203116"><ele>344.5</ele><time>2026-04-30T11:02:45.725Z</time></trkpt><trkpt lat="40.5689654" lon="8.8200761"><ele>342.0</ele><time>2026-04-30T11:02:46.729Z</time></trkpt><trkpt lat="40.568786" lon="8.8198563"><ele>346.5</ele><time>2026-04-30T11:02:47.724Z</time></trkpt><trkpt lat="40.5686016" lon="8.819645"><ele>351.0</ele><time>2026-04-30T11:02:48.724Z</time></trkpt><trkpt lat="40.5684162" lon="8.8194396"><ele>350.0</ele><time>2026-04-30T11:02:49.724Z</time></trkpt><trkpt lat="40.5682286" lon="8.819246"><ele>349.0</ele><time>2026-04-30T11:02:50.724Z</time></trkpt><trkpt lat="40.5680332" lon="8.8190595"><ele>349.5</ele><time>2026-04-30T11:02:51.727Z</time></trkpt><trkpt lat="40.5678338" lon="8.818884"><ele>350.0</ele><time>2026-04-30T11:02:52.724Z</time></trkpt><trkpt lat="40.5676275" lon="8.8187177"><ele>350.0</ele><time>2026-04-30T11:02:53.721Z</time></trkpt><trkpt lat="40.5674141" lon="8.8185592"><ele>350.0</ele><time>2026-04-30T11:02:54.725Z</time></trkpt><trkpt lat="40.5671888" lon="8.8184039"><ele>349.0</ele><time>2026-04-30T11:02:55.724Z</time></trkpt><trkpt lat="40.566963" lon="8.8182525"><ele>348.0</ele><time>2026-04-30T11:02:56.724Z</time></trkpt><trkpt lat="40.56673" lon="8.8181039"><ele>348.0</ele><time>2026-04-30T11:02:57.725Z</time></trkpt><trkpt lat="40.566497" lon="8.8179498"><ele>348.0</ele><time>2026-04-30T11:02:58.725Z</time></trkpt><trkpt lat="40.5662627" lon="8.817797"><ele>345.5</ele><time>2026-04-30T11:02:59.723Z</time></trkpt><trkpt lat="40.5660375" lon="8.8176496"><ele>343.0</ele><time>2026-04-30T11:03:00.722Z</time></trkpt><trkpt lat="40.5658021" lon="8.8174977"><ele>343.0</ele><time>2026-04-30T11:03:01.722Z</time></trkpt><trkpt lat="40.5655687" lon="8.8173482"><ele>343.0</ele><time>2026-04-30T11:03:02.723Z</time></trkpt><trkpt lat="40.5653405" lon="8.8171985"><ele>344.5</ele><time>2026-04-30T11:03:03.723Z</time></trkpt><trkpt lat="40.565112" lon="8.8170462"><ele>346.0</ele><time>2026-04-30T11:03:04.725Z</time></trkpt><trkpt lat="40.5648856" lon="8.8169007"><ele>344.5</ele><time>2026-04-30T11:03:05.721Z</time></trkpt><trkpt lat="40.5646612" lon="8.8167519"><ele>343.0</ele><time>2026-04-30T11:03:06.733Z</time></trkpt><trkpt lat="40.5644357" lon="8.8166075"><ele>342.0</ele><time>2026-04-30T11:03:07.723Z</time></trkpt><trkpt lat="40.5642084" lon="8.8164607"><ele>341.0</ele><time>2026-04-30T11:03:08.724Z</time></trkpt><trkpt lat="40.5639841" lon="8.8163168"><ele>341.0</ele><time>2026-04-30T11:03:09.724Z</time></trkpt><trkpt lat="40.5637596" lon="8.8161685"><ele>341.0</ele><time>2026-04-30T11:03:10.725Z</time></trkpt><trkpt lat="40.5635341" lon="8.8160209"><ele>340.5</ele><time>2026-04-30T11:03:11.723Z</time></trkpt><trkpt lat="40.5633035" lon="8.8158676"><ele>340.0</ele><time>2026-04-30T11:03:12.725Z</time></trkpt><trkpt lat="40.5630712" lon="8.8157181"><ele>341.5</ele><time>2026-04-30T11:03:13.721Z</time></trkpt><trkpt lat="40.5628369" lon="8.8155695"><ele>343.0</ele><time>2026-04-30T11:03:14.723Z</time></trkpt><trkpt lat="40.5626042" lon="8.8154203"><ele>343.0</ele><time>2026-04-30T11:03:15.724Z</time></trkpt><trkpt lat="40.5623817" lon="8.815274"><ele>343.0</ele><time>2026-04-30T11:03:16.723Z</time></trkpt><trkpt lat="40.5621634" lon="8.815132"><ele>342.0</ele><time>2026-04-30T11:03:17.724Z</time></trkpt><trkpt lat="40.5619441" lon="8.8149866"><ele>341.0</ele><time>2026-04-30T11:03:18.724Z</time></trkpt><trkpt lat="40.5617226" lon="8.8148394"><ele>341.0</ele><time>2026-04-30T11:03:19.725Z</time></trkpt><trkpt lat="40.561499" lon="8.8146964"><ele>341.0</ele><time>2026-04-30T11:03:20.722Z</time></trkpt><trkpt lat="40.5612715" lon="8.814552"><ele>341.0</ele><time>2026-04-30T11:03:21.725Z</time></trkpt><trkpt lat="40.5610487" lon="8.8144081"><ele>341.0</ele><time>2026-04-30T11:03:22.723Z</time></trkpt><trkpt lat="40.5608287" lon="8.8142661"><ele>339.5</ele><time>2026-04-30T11:03:23.723Z</time></trkpt><trkpt lat="40.5606069" lon="8.81412"><ele>338.0</ele><time>2026-04-30T11:03:24.722Z</time></trkpt><trkpt lat="40.5603841" lon="8.8139761"><ele>338.0</ele><time>2026-04-30T11:03:25.723Z</time></trkpt><trkpt lat="40.5601602" lon="8.8138367"><ele>338.0</ele><time>2026-04-30T11:03:26.722Z</time></trkpt><trkpt lat="40.5599333" lon="8.8136951"><ele>338.0</ele><time>2026-04-30T11:03:27.726Z</time></trkpt><trkpt lat="40.559707" lon="8.8135553"><ele>338.0</ele><time>2026-04-30T11:03:28.724Z</time></trkpt><trkpt lat="40.5594814" lon="8.8134138"><ele>338.0</ele><time>2026-04-30T11:03:29.725Z</time></trkpt><trkpt lat="40.55926" lon="8.8132745"><ele>338.0</ele><time>2026-04-30T11:03:30.722Z</time></trkpt><trkpt lat="40.5590365" lon="8.813137"><ele>338.0</ele><time>2026-04-30T11:03:31.723Z</time></trkpt><trkpt lat="40.5588181" lon="8.813002"><ele>338.0</ele><time>2026-04-30T11:03:32.725Z</time></trkpt><trkpt lat="40.5586017" lon="8.8128665"><ele>337.5</ele><time>2026-04-30T11:03:33.724Z</time></trkpt><trkpt lat="40.558383" lon="8.8127303"><ele>337.0</ele><time>2026-04-30T11:03:34.726Z</time></trkpt><trkpt lat="40.5581625" lon="8.812591"><ele>335.5</ele><time>2026-04-30T11:03:35.735Z</time></trkpt><trkpt lat="40.5579381" lon="8.8124513"><ele>334.0</ele><time>2026-04-30T11:03:36.723Z</time></trkpt><trkpt lat="40.5577105" lon="8.8123097"><ele>334.0</ele><time>2026-04-30T11:03:37.724Z</time></trkpt><trkpt lat="40.5574815" lon="8.8121674"><ele>334.0</ele><time>2026-04-30T11:03:38.724Z</time></trkpt><trkpt lat="40.5572503" lon="8.8120251"><ele>333.5</ele><time>2026-04-30T11:03:39.724Z</time></trkpt><trkpt lat="40.5570186" lon="8.8118806"><ele>333.0</ele><time>2026-04-30T11:03:40.726Z</time></trkpt><trkpt lat="40.5567909" lon="8.8117342"><ele>333.0</ele><time>2026-04-30T11:03:41.725Z</time></trkpt><trkpt lat="40.5565698" lon="8.8115913"><ele>333.0</ele><time>2026-04-30T11:03:42.729Z</time></trkpt><trkpt lat="40.5563553" lon="8.8114468"><ele>334.0</ele><time>2026-04-30T11:03:43.721Z</time></trkpt><trkpt lat="40.5561382" lon="8.8112954"><ele>335.0</ele><time>2026-04-30T11:03:44.723Z</time></trkpt><trkpt lat="40.5559137" lon="8.8111271"><ele>335.0</ele><time>2026-04-30T11:03:45.725Z</time></trkpt><trkpt lat="40.5556943" lon="8.8109566"><ele>335.0</ele><time>2026-04-30T11:03:46.724Z</time></trkpt><trkpt lat="40.5554823" lon="8.8107853"><ele>334.5</ele><time>2026-04-30T11:03:47.725Z</time></trkpt><trkpt lat="40.5552744" lon="8.8106041"><ele>334.0</ele><time>2026-04-30T11:03:48.724Z</time></trkpt><trkpt lat="40.5550671" lon="8.8104156"><ele>334.0</ele><time>2026-04-30T11:03:49.722Z</time></trkpt><trkpt lat="40.5548628" lon="8.8102145"><ele>334.0</ele><time>2026-04-30T11:03:50.723Z</time></trkpt><trkpt lat="40.5546584" lon="8.8100037"><ele>332.0</ele><time>2026-04-30T11:03:51.725Z</time></trkpt><trkpt lat="40.5544567" lon="8.8097814"><ele>330.0</ele><time>2026-04-30T11:03:52.723Z</time></trkpt><trkpt lat="40.5542659" lon="8.8095591"><ele>329.5</ele><time>2026-04-30T11:03:53.725Z</time></trkpt><trkpt lat="40.5540666" lon="8.8093159"><ele>329.0</ele><time>2026-04-30T11:03:54.723Z</time></trkpt><trkpt lat="40.5538706" lon="8.8090605"><ele>329.5</ele><time>2026-04-30T11:03:55.722Z</time></trkpt><trkpt lat="40.5536793" lon="8.8087999"><ele>330.0</ele><time>2026-04-30T11:03:56.722Z</time></trkpt><trkpt lat="40.5534903" lon="8.8085294"><ele>328.0</ele><time>2026-04-30T11:03:57.725Z</time></trkpt><trkpt lat="40.5533077" lon="8.8082529"><ele>326.0</ele><time>2026-04-30T11:03:58.726Z</time></trkpt><trkpt lat="40.5531358" lon="8.8079653"><ele>326.0</ele><time>2026-04-30T11:03:59.724Z</time></trkpt><trkpt lat="40.5529705" lon="8.8076695"><ele>326.0</ele><time>2026-04-30T11:04:00.725Z</time></trkpt><trkpt lat="40.5528114" lon="8.807368"><ele>326.0</ele><time>2026-04-30T11:04:01.723Z</time></trkpt><trkpt lat="40.5526663" lon="8.8070727"><ele>326.0</ele><time>2026-04-30T11:04:02.724Z</time></trkpt><trkpt lat="40.5525283" lon="8.8067815"><ele>323.5</ele><time>2026-04-30T11:04:03.723Z</time></trkpt><trkpt lat="40.5524003" lon="8.8065027"><ele>321.0</ele><time>2026-04-30T11:04:04.725Z</time></trkpt><trkpt lat="40.5522769" lon="8.8062312"><ele>320.5</ele><time>2026-04-30T11:04:05.724Z</time></trkpt><trkpt lat="40.5521599" lon="8.8059664"><ele>320.0</ele><time>2026-04-30T11:04:06.726Z</time></trkpt><trkpt lat="40.5520453" lon="8.8057099"><ele>321.33333333333337</ele><time>2026-04-30T11:04:07.726Z</time></trkpt><trkpt lat="40.5519362" lon="8.8054642"><ele>322.6666666666667</ele><time>2026-04-30T11:04:08.724Z</time></trkpt><trkpt lat="40.5518304" lon="8.8052242"><ele>324.0</ele><time>2026-04-30T11:04:09.723Z</time></trkpt><trkpt lat="40.5517295" lon="8.8049952"><ele>324.0</ele><time>2026-04-30T11:04:10.725Z</time></trkpt><trkpt lat="40.5516306" lon="8.8047712"><ele>324.0</ele><time>2026-04-30T11:04:11.724Z</time></trkpt><trkpt lat="40.551536" lon="8.8045551"><ele>324.0</ele><time>2026-04-30T11:04:12.725Z</time></trkpt><trkpt lat="40.5514497" lon="8.8043557"><ele>324.5</ele><time>2026-04-30T11:04:13.726Z</time></trkpt><trkpt lat="40.5513726" lon="8.8041852"><ele>325.0</ele><time>2026-04-30T11:04:14.725Z</time></trkpt><trkpt lat="40.5513028" lon="8.8040379"><ele>325.5</ele><time>2026-04-30T11:04:15.724Z</time></trkpt><trkpt lat="40.5512403" lon="8.8039054"><ele>326.0</ele><time>2026-04-30T11:04:16.724Z</time></trkpt><trkpt lat="40.5511835" lon="8.8037851"><ele>326.0</ele><time>2026-04-30T11:04:17.725Z</time></trkpt><trkpt lat="40.5511317" lon="8.8036764"><ele>326.0</ele><time>2026-04-30T11:04:18.724Z</time></trkpt><trkpt lat="40.5510868" lon="8.8035644"><ele>326.0</ele><time>2026-04-30T11:04:19.723Z</time></trkpt><trkpt lat="40.551058" lon="8.8034423"><ele>326.0</ele><time>2026-04-30T11:04:20.724Z</time></trkpt><trkpt lat="40.551036" lon="8.8033031"><ele>326.0</ele><time>2026-04-30T11:04:21.724Z</time></trkpt><trkpt lat="40.5509971" lon="8.8031681"><ele>324.5</ele><time>2026-04-30T11:04:22.723Z</time></trkpt><trkpt lat="40.5509348" lon="8.8030422"><ele>323.0</ele><time>2026-04-30T11:04:23.723Z</time></trkpt><trkpt lat="40.5508679" lon="8.8029066"><ele>321.5</ele><time>2026-04-30T11:04:24.726Z</time></trkpt><trkpt lat="40.5508113" lon="8.8027537"><ele>320.0</ele><time>2026-04-30T11:04:25.727Z</time></trkpt><trkpt lat="40.5507659" lon="8.8025873"><ele>319.0</ele><time>2026-04-30T11:04:26.727Z</time></trkpt><trkpt lat="40.5507245" lon="8.8024019"><ele>318.0</ele><time>2026-04-30T11:04:27.725Z</time></trkpt><trkpt lat="40.5506814" lon="8.8022063"><ele>317.0</ele><time>2026-04-30T11:04:28.726Z</time></trkpt><trkpt lat="40.5506414" lon="8.8019981"><ele>316.6666666666667</ele><time>2026-04-30T11:04:29.723Z</time></trkpt><trkpt lat="40.550605" lon="8.8017765"><ele>316.3333333333333</ele><time>2026-04-30T11:04:30.725Z</time></trkpt><trkpt lat="40.5505733" lon="8.8015399"><ele>316.0</ele><time>2026-04-30T11:04:31.726Z</time></trkpt><trkpt lat="40.5505428" lon="8.8012841"><ele>316.0</ele><time>2026-04-30T11:04:32.725Z</time></trkpt><trkpt lat="40.5505099" lon="8.8010136"><ele>316.0</ele><time>2026-04-30T11:04:33.726Z</time></trkpt><trkpt lat="40.5504763" lon="8.8007226"><ele>316.0</ele><time>2026-04-30T11:04:34.727Z</time></trkpt><trkpt lat="40.5504418" lon="8.8004126"><ele>316.0</ele><time>2026-04-30T11:04:35.726Z</time></trkpt><trkpt lat="40.5504038" lon="8.80009"><ele>316.0</ele><time>2026-04-30T11:04:36.728Z</time></trkpt><trkpt lat="40.5503623" lon="8.7997468"><ele>317.5</ele><time>2026-04-30T11:04:37.723Z</time></trkpt><trkpt lat="40.5503201" lon="8.7993879"><ele>319.0</ele><time>2026-04-30T11:04:38.724Z</time></trkpt><trkpt lat="40.5502755" lon="8.7990139"><ele>319.0</ele><time>2026-04-30T11:04:39.728Z</time></trkpt><trkpt lat="40.5502292" lon="8.798634"><ele>319.0</ele><time>2026-04-30T11:04:40.724Z</time></trkpt><trkpt lat="40.5501853" lon="8.7982764"><ele>317.0</ele><time>2026-04-30T11:04:41.724Z</time></trkpt><trkpt lat="40.5501427" lon="8.7979319"><ele>315.0</ele><time>2026-04-30T11:04:42.722Z</time></trkpt><trkpt lat="40.5501011" lon="8.7976036"><ele>313.0</ele><time>2026-04-30T11:04:43.723Z</time></trkpt><trkpt lat="40.5500636" lon="8.7972863"><ele>311.0</ele><time>2026-04-30T11:04:44.725Z</time></trkpt><trkpt lat="40.5500278" lon="8.7969763"><ele>309.5</ele><time>2026-04-30T11:04:45.725Z</time></trkpt><trkpt lat="40.5499875" lon="8.7966775"><ele>308.0</ele><time>2026-04-30T11:04:46.725Z</time></trkpt><trkpt lat="40.5499359" lon="8.7963942"><ele>308.0</ele><time>2026-04-30T11:04:47.725Z</time></trkpt><trkpt lat="40.5498732" lon="8.7961167"><ele>308.0</ele><time>2026-04-30T11:04:48.724Z</time></trkpt><trkpt lat="40.5497993" lon="8.7958411"><ele>308.0</ele><time>2026-04-30T11:04:49.725Z</time></trkpt><trkpt lat="40.5497087" lon="8.7955718"><ele>307.5</ele><time>2026-04-30T11:04:50.724Z</time></trkpt><trkpt lat="40.5496018" lon="8.7953108"><ele>307.0</ele><time>2026-04-30T11:04:51.724Z</time></trkpt><trkpt lat="40.5494779" lon="8.7950618"><ele>307.0</ele><time>2026-04-30T11:04:52.723Z</time></trkpt><trkpt lat="40.5493323" lon="8.7948259"><ele>307.0</ele><time>2026-04-30T11:04:53.725Z</time></trkpt><trkpt lat="40.549173" lon="8.7946011"><ele>307.0</ele><time>2026-04-30T11:04:54.723Z</time></trkpt><trkpt lat="40.5489965" lon="8.7943717"><ele>307.0</ele><time>2026-04-30T11:04:55.727Z</time></trkpt><trkpt lat="40.5488123" lon="8.7941362"><ele>309.0</ele><time>2026-04-30T11:04:56.725Z</time></trkpt><trkpt lat="40.5486252" lon="8.7939019"><ele>311.0</ele><time>2026-04-30T11:04:57.727Z</time></trkpt><trkpt lat="40.5484374" lon="8.793668"><ele>312.5</ele><time>2026-04-30T11:04:58.73Z</time></trkpt><trkpt lat="40.5482598" lon="8.7934444"><ele>314.0</ele><time>2026-04-30T11:04:59.725Z</time></trkpt><trkpt lat="40.5480882" lon="8.7932308"><ele>314.0</ele><time>2026-04-30T11:05:00.723Z</time></trkpt><trkpt lat="40.5479162" lon="8.7930243"><ele>314.0</ele><time>2026-04-30T11:05:01.725Z</time></trkpt><trkpt lat="40.547748" lon="8.792818"><ele>313.6666666666667</ele><time>2026-04-30T11:05:02.723Z</time></trkpt><trkpt lat="40.5475825" lon="8.7926147"><ele>313.3333333333333</ele><time>2026-04-30T11:05:03.723Z</time></trkpt><trkpt lat="40.5474242" lon="8.7924151"><ele>313.0</ele><time>2026-04-30T11:05:04.723Z</time></trkpt><trkpt lat="40.5472713" lon="8.7922164"><ele>313.0</ele><time>2026-04-30T11:05:05.725Z</time></trkpt><trkpt lat="40.5471269" lon="8.7920127"><ele>313.0</ele><time>2026-04-30T11:05:06.726Z</time></trkpt><trkpt lat="40.5469911" lon="8.791795"><ele>313.0</ele><time>2026-04-30T11:05:07.724Z</time></trkpt><trkpt lat="40.5468654" lon="8.7915698"><ele>314.0</ele><time>2026-04-30T11:05:08.726Z</time></trkpt><trkpt lat="40.5467508" lon="8.7913283"><ele>315.0</ele><time>2026-04-30T11:05:09.723Z</time></trkpt><trkpt lat="40.5466477" lon="8.7910698"><ele>316.0</ele><time>2026-04-30T11:05:10.725Z</time></trkpt><trkpt lat="40.5465605" lon="8.7907958"><ele>316.0</ele><time>2026-04-30T11:05:11.725Z</time></trkpt><trkpt lat="40.5464859" lon="8.790504"><ele>316.0</ele><time>2026-04-30T11:05:12.723Z</time></trkpt><trkpt lat="40.5464177" lon="8.790191"><ele>316.0</ele><time>2026-04-30T11:05:13.723Z</time></trkpt><trkpt lat="40.5463513" lon="8.7898566"><ele>316.0</ele><time>2026-04-30T11:05:14.723Z</time></trkpt><trkpt lat="40.5462818" lon="8.7895087"><ele>316.0</ele><time>2026-04-30T11:05:15.723Z</time></trkpt><trkpt lat="40.5462125" lon="8.7891648"><ele>316.0</ele><time>2026-04-30T11:05:16.725Z</time></trkpt><trkpt lat="40.5461453" lon="8.7888331"><ele>315.5</ele><time>2026-04-30T11:05:17.725Z</time></trkpt><trkpt lat="40.5460801" lon="8.7885095"><ele>315.0</ele><time>2026-04-30T11:05:18.724Z</time></trkpt><trkpt lat="40.5460164" lon="8.7881875"><ele>315.0</ele><time>2026-04-30T11:05:19.723Z</time></trkpt><trkpt lat="40.5459548" lon="8.7878724"><ele>315.0</ele><time>2026-04-30T11:05:20.724Z</time></trkpt><trkpt lat="40.5458936" lon="8.7875618"><ele>313.0</ele><time>2026-04-30T11:05:21.723Z</time></trkpt><trkpt lat="40.545834" lon="8.787261"><ele>311.0</ele><time>2026-04-30T11:05:22.726Z</time></trkpt><trkpt lat="40.5457772" lon="8.7869732"><ele>309.6666666666667</ele><time>2026-04-30T11:05:23.726Z</time></trkpt><trkpt lat="40.5457209" lon="8.7866966"><ele>308.3333333333333</ele><time>2026-04-30T11:05:24.723Z</time></trkpt><trkpt lat="40.5456628" lon="8.7864304"><ele>307.0</ele><time>2026-04-30T11:05:25.724Z</time></trkpt><trkpt lat="40.5455965" lon="8.7861696"><ele>307.3333333333333</ele><time>2026-04-30T11:05:26.723Z</time></trkpt><trkpt lat="40.5455182" lon="8.7859112"><ele>307.6666666666667</ele><time>2026-04-30T11:05:27.725Z</time></trkpt><trkpt lat="40.5454273" lon="8.7856575"><ele>308.0</ele><time>2026-04-30T11:05:28.723Z</time></trkpt><trkpt lat="40.545319" lon="8.7854119"><ele>309.33333333333337</ele><time>2026-04-30T11:05:29.722Z</time></trkpt><trkpt lat="40.5451948" lon="8.7851739"><ele>310.6666666666667</ele><time>2026-04-30T11:05:30.725Z</time></trkpt><trkpt lat="40.5450539" lon="8.784939"><ele>312.0</ele><time>2026-04-30T11:05:31.725Z</time></trkpt><trkpt lat="40.5448983" lon="8.7847073"><ele>312.0</ele><time>2026-04-30T11:05:32.723Z</time></trkpt><trkpt lat="40.5447358" lon="8.7844755"><ele>312.0</ele><time>2026-04-30T11:05:33.724Z</time></trkpt><trkpt lat="40.5445735" lon="8.7842382"><ele>311.5</ele><time>2026-04-30T11:05:34.722Z</time></trkpt><trkpt lat="40.5444132" lon="8.784001"><ele>311.0</ele><time>2026-04-30T11:05:35.725Z</time></trkpt><trkpt lat="40.5442631" lon="8.7837755"><ele>311.0</ele><time>2026-04-30T11:05:36.725Z</time></trkpt><trkpt lat="40.5441159" lon="8.7835554"><ele>311.0</ele><time>2026-04-30T11:05:37.725Z</time></trkpt><trkpt lat="40.5439684" lon="8.7833351"><ele>311.0</ele><time>2026-04-30T11:05:38.727Z</time></trkpt><trkpt lat="40.543824" lon="8.7831166"><ele>312.0</ele><time>2026-04-30T11:05:39.724Z</time></trkpt><trkpt lat="40.5436843" lon="8.7828982"><ele>313.0</ele><time>2026-04-30T11:05:40.723Z</time></trkpt><trkpt lat="40.5435503" lon="8.7826784"><ele>314.0</ele><time>2026-04-30T11:05:41.723Z</time></trkpt><trkpt lat="40.543422" lon="8.7824532"><ele>315.0</ele><time>2026-04-30T11:05:42.726Z</time></trkpt><trkpt lat="40.5433003" lon="8.7822236"><ele>316.0</ele><time>2026-04-30T11:05:43.722Z</time></trkpt><trkpt lat="40.5431868" lon="8.7819895"><ele>317.0</ele><time>2026-04-30T11:05:44.725Z</time></trkpt><trkpt lat="40.5430793" lon="8.7817514"><ele>318.0</ele><time>2026-04-30T11:05:45.725Z</time></trkpt><trkpt lat="40.5429721" lon="8.7815139"><ele>319.0</ele><time>2026-04-30T11:05:46.723Z</time></trkpt><trkpt lat="40.542876" lon="8.7812703"><ele>320.0</ele><time>2026-04-30T11:05:47.724Z</time></trkpt><trkpt lat="40.542781" lon="8.7810413"><ele>320.0</ele><time>2026-04-30T11:05:48.723Z</time></trkpt><trkpt lat="40.5426886" lon="8.780814"><ele>320.0</ele><time>2026-04-30T11:05:49.723Z</time></trkpt><trkpt lat="40.5425942" lon="8.7805897"><ele>320.0</ele><time>2026-04-30T11:05:50.723Z</time></trkpt><trkpt lat="40.5424999" lon="8.7803679"><ele>320.0</ele><time>2026-04-30T11:05:51.722Z</time></trkpt><trkpt lat="40.5424101" lon="8.7801537"><ele>320.0</ele><time>2026-04-30T11:05:52.723Z</time></trkpt><trkpt lat="40.5423217" lon="8.7799452"><ele>320.0</ele><time>2026-04-30T11:05:53.723Z</time></trkpt><trkpt lat="40.5422337" lon="8.7797392"><ele>320.0</ele><time>2026-04-30T11:05:54.724Z</time></trkpt><trkpt lat="40.5421464" lon="8.7795346"><ele>320.0</ele><time>2026-04-30T11:05:55.726Z</time></trkpt><trkpt lat="40.5420591" lon="8.7793315"><ele>320.0</ele><time>2026-04-30T11:05:56.724Z</time></trkpt><trkpt lat="40.5419715" lon="8.7791242"><ele>321.6666666666667</ele><time>2026-04-30T11:05:57.724Z</time></trkpt><trkpt lat="40.5418801" lon="8.7789099"><ele>323.3333333333333</ele><time>2026-04-30T11:05:58.725Z</time></trkpt><trkpt lat="40.5417867" lon="8.7786872"><ele>325.0</ele><time>2026-04-30T11:05:59.727Z</time></trkpt><trkpt lat="40.5416907" lon="8.7784594"><ele>325.0</ele><time>2026-04-30T11:06:00.722Z</time></trkpt><trkpt lat="40.5415956" lon="8.778231"><ele>325.0</ele><time>2026-04-30T11:06:01.725Z</time></trkpt><trkpt lat="40.5415022" lon="8.7780024"><ele>325.0</ele><time>2026-04-30T11:06:02.722Z</time></trkpt><trkpt lat="40.5414128" lon="8.7777858"><ele>325.0</ele><time>2026-04-30T11:06:03.725Z</time></trkpt><trkpt lat="40.5413237" lon="8.7775671"><ele>325.0</ele><time>2026-04-30T11:06:04.725Z</time></trkpt><trkpt lat="40.5412391" lon="8.7773497"><ele>325.0</ele><time>2026-04-30T11:06:05.724Z</time></trkpt><trkpt lat="40.5411551" lon="8.7771342"><ele>327.66666666666663</ele><time>2026-04-30T11:06:06.723Z</time></trkpt><trkpt lat="40.5410629" lon="8.7769246"><ele>330.3333333333333</ele><time>2026-04-30T11:06:07.729Z</time></trkpt><trkpt lat="40.5409541" lon="8.7767339"><ele>333.0</ele><time>2026-04-30T11:06:08.726Z</time></trkpt><trkpt lat="40.5408236" lon="8.7765748"><ele>333.0</ele><time>2026-04-30T11:06:09.725Z</time></trkpt><trkpt lat="40.5406761" lon="8.776443"><ele>333.0</ele><time>2026-04-30T11:06:10.725Z</time></trkpt><trkpt lat="40.540519" lon="8.7763272"><ele>333.0</ele><time>2026-04-30T11:06:11.725Z</time></trkpt><trkpt lat="40.5403596" lon="8.776216"><ele>333.3333333333333</ele><time>2026-04-30T11:06:12.724Z</time></trkpt><trkpt lat="40.5401976" lon="8.7761066"><ele>333.66666666666663</ele><time>2026-04-30T11:06:13.73Z</time></trkpt><trkpt lat="40.5400334" lon="8.7759988"><ele>334.0</ele><time>2026-04-30T11:06:14.721Z</time></trkpt><trkpt lat="40.5398682" lon="8.7758895"><ele>334.0</ele><time>2026-04-30T11:06:15.733Z</time></trkpt><trkpt lat="40.5397031" lon="8.7757763"><ele>334.0</ele><time>2026-04-30T11:06:16.724Z</time></trkpt><trkpt lat="40.5395376" lon="8.7756577"><ele>334.0</ele><time>2026-04-30T11:06:17.722Z</time></trkpt><trkpt lat="40.5393735" lon="8.7755339"><ele>335.0</ele><time>2026-04-30T11:06:18.723Z</time></trkpt><trkpt lat="40.5392181" lon="8.7753956"><ele>336.0</ele><time>2026-04-30T11:06:19.721Z</time></trkpt><trkpt lat="40.5390803" lon="8.7752319"><ele>337.0</ele><time>2026-04-30T11:06:20.722Z</time></trkpt><trkpt lat="40.5389575" lon="8.7750445"><ele>337.0</ele><time>2026-04-30T11:06:21.724Z</time></trkpt><trkpt lat="40.5388465" lon="8.7748341"><ele>337.0</ele><time>2026-04-30T11:06:22.723Z</time></trkpt><trkpt lat="40.5387453" lon="8.7745997"><ele>337.0</ele><time>2026-04-30T11:06:23.725Z</time></trkpt><trkpt lat="40.5386452" lon="8.7743518"><ele>340.3333333333333</ele><time>2026-04-30T11:06:24.723Z</time></trkpt><trkpt lat="40.5385368" lon="8.774099"><ele>343.6666666666667</ele><time>2026-04-30T11:06:25.723Z</time></trkpt><trkpt lat="40.5384247" lon="8.7738482"><ele>347.0</ele><time>2026-04-30T11:06:26.724Z</time></trkpt><trkpt lat="40.5383067" lon="8.7735973"><ele>345.6666666666667</ele><time>2026-04-30T11:06:27.724Z</time></trkpt><trkpt lat="40.538188" lon="8.7733491"><ele>344.3333333333333</ele><time>2026-04-30T11:06:28.723Z</time></trkpt><trkpt lat="40.5380767" lon="8.7731153"><ele>343.0</ele><time>2026-04-30T11:06:29.725Z</time></trkpt><trkpt lat="40.5379787" lon="8.7729"><ele>343.0</ele><time>2026-04-30T11:06:30.723Z</time></trkpt><trkpt lat="40.5378886" lon="8.7727011"><ele>343.0</ele><time>2026-04-30T11:06:31.724Z</time></trkpt><trkpt lat="40.5378222" lon="8.7725165"><ele>343.0</ele><time>2026-04-30T11:06:32.722Z</time></trkpt><trkpt lat="40.5377829" lon="8.7723332"><ele>344.0</ele><time>2026-04-30T11:06:33.722Z</time></trkpt><trkpt lat="40.5377717" lon="8.7721435"><ele>345.0</ele><time>2026-04-30T11:06:34.725Z</time></trkpt><trkpt lat="40.5377845" lon="8.7719527"><ele>346.0</ele><time>2026-04-30T11:06:35.724Z</time></trkpt><trkpt lat="40.5378197" lon="8.7717661"><ele>347.0</ele><time>2026-04-30T11:06:36.725Z</time></trkpt><trkpt lat="40.5378638" lon="8.7715903"><ele>347.0</ele><time>2026-04-30T11:06:37.724Z</time></trkpt><trkpt lat="40.5378827" lon="8.7714427"><ele>347.0</ele><time>2026-04-30T11:06:38.724Z</time></trkpt><trkpt lat="40.5378621" lon="8.771306"><ele>347.0</ele><time>2026-04-30T11:06:39.725Z</time></trkpt><trkpt lat="40.5378088" lon="8.771194"><ele>347.0</ele><time>2026-04-30T11:06:40.725Z</time></trkpt><trkpt lat="40.5377282" lon="8.7711098"><ele>347.0</ele><time>2026-04-30T11:06:41.723Z</time></trkpt><trkpt lat="40.5376301" lon="8.7710457"><ele>347.25</ele><time>2026-04-30T11:06:42.725Z</time></trkpt><trkpt lat="40.5375253" lon="8.770962"><ele>347.5</ele><time>2026-04-30T11:06:43.723Z</time></trkpt><trkpt lat="40.537429" lon="8.7708399"><ele>347.75</ele><time>2026-04-30T11:06:44.722Z</time></trkpt><trkpt lat="40.5373362" lon="8.7706761"><ele>348.0</ele><time>2026-04-30T11:06:45.721Z</time></trkpt><trkpt lat="40.5372378" lon="8.770484"><ele>348.0</ele><time>2026-04-30T11:06:46.724Z</time></trkpt><trkpt lat="40.5371238" lon="8.7702887"><ele>348.0</ele><time>2026-04-30T11:06:47.723Z</time></trkpt><trkpt lat="40.5369827" lon="8.7701052"><ele>348.0</ele><time>2026-04-30T11:06:48.726Z</time></trkpt><trkpt lat="40.536845" lon="8.7699471"><ele>349.3333333333333</ele><time>2026-04-30T11:06:49.722Z</time></trkpt><trkpt lat="40.536734" lon="8.7698106"><ele>350.66666666666663</ele><time>2026-04-30T11:06:50.723Z</time></trkpt><trkpt lat="40.5366471" lon="8.7696377"><ele>352.0</ele><time>2026-04-30T11:06:51.725Z</time></trkpt><trkpt lat="40.5365761" lon="8.769428"><ele>353.66666666666663</ele><time>2026-04-30T11:06:52.722Z</time></trkpt><trkpt lat="40.536507" lon="8.7691938"><ele>355.3333333333333</ele><time>2026-04-30T11:06:53.723Z</time></trkpt><trkpt lat="40.5364357" lon="8.7689626"><ele>357.0</ele><time>2026-04-30T11:06:54.722Z</time></trkpt><trkpt lat="40.5363573" lon="8.7687601"><ele>357.0</ele><time>2026-04-30T11:06:55.723Z</time></trkpt><trkpt lat="40.5362562" lon="8.7685986"><ele>357.0</ele><time>2026-04-30T11:06:56.722Z</time></trkpt><trkpt lat="40.5361314" lon="8.7684885"><ele>357.0</ele><time>2026-04-30T11:06:57.722Z</time></trkpt><trkpt lat="40.535989" lon="8.7684262"><ele>359.0</ele><time>2026-04-30T11:06:58.726Z</time></trkpt><trkpt lat="40.5358375" lon="8.7683787"><ele>361.0</ele><time>2026-04-30T11:06:59.724Z</time></trkpt><trkpt lat="40.535684" lon="8.7682938"><ele>363.0</ele><time>2026-04-30T11:07:00.722Z</time></trkpt><trkpt lat="40.5355238" lon="8.7681715"><ele>365.3333333333333</ele><time>2026-04-30T11:07:01.723Z</time></trkpt><trkpt lat="40.5353746" lon="8.7680494"><ele>367.66666666666663</ele><time>2026-04-30T11:07:02.724Z</time></trkpt><trkpt lat="40.5352317" lon="8.767962"><ele>370.0</ele><time>2026-04-30T11:07:03.724Z</time></trkpt><trkpt lat="40.5350906" lon="8.7679375"><ele>370.0</ele><time>2026-04-30T11:07:04.722Z</time></trkpt><trkpt lat="40.534971" lon="8.7679767"><ele>370.0</ele><time>2026-04-30T11:07:05.723Z</time></trkpt><trkpt lat="40.5348769" lon="8.7680674"><ele>370.0</ele><time>2026-04-30T11:07:06.723Z</time></trkpt><trkpt lat="40.5348037" lon="8.7681834"><ele>370.0</ele><time>2026-04-30T11:07:07.724Z</time></trkpt><trkpt lat="40.5347317" lon="8.76828"><ele>370.0</ele><time>2026-04-30T11:07:08.726Z</time></trkpt><trkpt lat="40.5346536" lon="8.7683336"><ele>370.0</ele><time>2026-04-30T11:07:09.724Z</time></trkpt><trkpt lat="40.5345634" lon="8.7683482"><ele>370.0</ele><time>2026-04-30T11:07:10.723Z</time></trkpt><trkpt lat="40.5344632" lon="8.7683465"><ele>370.0</ele><time>2026-04-30T11:07:11.723Z</time></trkpt><trkpt lat="40.5343587" lon="8.7683317"><ele>370.0</ele><time>2026-04-30T11:07:12.722Z</time></trkpt><trkpt lat="40.5342481" lon="8.7683147"><ele>371.4</ele><time>2026-04-30T11:07:13.725Z</time></trkpt><trkpt lat="40.5341324" lon="8.7682964"><ele>372.8</ele><time>2026-04-30T11:07:14.724Z</time></trkpt><trkpt lat="40.5340187" lon="8.7682771"><ele>374.20000000000005</ele><time>2026-04-30T11:07:15.723Z</time></trkpt><trkpt lat="40.5339163" lon="8.7682509"><ele>375.6</ele><time>2026-04-30T11:07:16.727Z</time></trkpt><trkpt lat="40.5338287" lon="8.7682133"><ele>377.0</ele><time>2026-04-30T11:07:17.722Z</time></trkpt><trkpt lat="40.5337566" lon="8.7681758"><ele>377.1428571428571</ele><time>2026-04-30T11:07:18.725Z</time></trkpt><trkpt lat="40.5336938" lon="8.7681365"><ele>377.2857142857143</ele><time>2026-04-30T11:07:19.724Z</time></trkpt><trkpt lat="40.5336357" lon="8.7680964"><ele>377.42857142857144</ele><time>2026-04-30T11:07:20.724Z</time></trkpt><trkpt lat="40.5335787" lon="8.768055"><ele>377.57142857142856</ele><time>2026-04-30T11:07:21.725Z</time></trkpt><trkpt lat="40.5335236" lon="8.7680075"><ele>377.7142857142857</ele><time>2026-04-30T11:07:22.724Z</time></trkpt><trkpt lat="40.5334816" lon="8.7679433"><ele>377.85714285714283</ele><time>2026-04-30T11:07:23.725Z</time></trkpt><trkpt lat="40.5334567" lon="8.7678613"><ele>378.0</ele><time>2026-04-30T11:07:24.73Z</time></trkpt><trkpt lat="40.533449" lon="8.7677754"><ele>378.3333333333333</ele><time>2026-04-30T11:07:25.724Z</time></trkpt><trkpt lat="40.5334589" lon="8.7676871"><ele>378.6666666666667</ele><time>2026-04-30T11:07:26.726Z</time></trkpt><trkpt lat="40.5334807" lon="8.7676005"><ele>379.0</ele><time>2026-04-30T11:07:27.723Z</time></trkpt><trkpt lat="40.5335063" lon="8.7675196"><ele>379.33333333333337</ele><time>2026-04-30T11:07:28.725Z</time></trkpt><trkpt lat="40.5335483" lon="8.7673903"><ele>379.6666666666667</ele><time>2026-04-30T11:07:30.725Z</time></trkpt><trkpt lat="40.5335879" lon="8.7672407"><ele>380.0</ele><time>2026-04-30T11:07:32.727Z</time></trkpt><trkpt lat="40.5336063" lon="8.7671586"><ele>380.0</ele><time>2026-04-30T11:07:33.728Z</time></trkpt><trkpt lat="40.5336276" lon="8.7670723"><ele>380.0</ele><time>2026-04-30T11:07:34.725Z</time></trkpt><trkpt lat="40.5336478" lon="8.7669831"><ele>380.0</ele><time>2026-04-30T11:07:35.725Z</time></trkpt><trkpt lat="40.5336679" lon="8.7668899"><ele>380.0</ele><time>2026-04-30T11:07:36.724Z</time></trkpt><trkpt lat="40.5336886" lon="8.7667957"><ele>380.0</ele><time>2026-04-30T11:07:37.724Z</time></trkpt><trkpt lat="40.5337107" lon="8.7667021"><ele>380.0</ele><time>2026-04-30T11:07:38.724Z</time></trkpt><trkpt lat="40.5337322" lon="8.7666053"><ele>380.0</ele><time>2026-04-30T11:07:39.728Z</time></trkpt><trkpt lat="40.5337555" lon="8.7665066"><ele>380.5</ele><time>2026-04-30T11:07:40.726Z</time></trkpt><trkpt lat="40.5337789" lon="8.7664056"><ele>381.0</ele><time>2026-04-30T11:07:41.721Z</time></trkpt><trkpt lat="40.5338023" lon="8.7663023"><ele>381.5</ele><time>2026-04-30T11:07:42.726Z</time></trkpt><trkpt lat="40.5338231" lon="8.7661941"><ele>382.0</ele><time>2026-04-30T11:07:43.725Z</time></trkpt><trkpt lat="40.533846" lon="8.7660824"><ele>382.5</ele><time>2026-04-30T11:07:44.725Z</time></trkpt><trkpt lat="40.5338673" lon="8.7659659"><ele>383.0</ele><time>2026-04-30T11:07:45.724Z</time></trkpt><trkpt lat="40.5338866" lon="8.7658438"><ele>383.59999999999997</ele><time>2026-04-30T11:07:46.724Z</time></trkpt><trkpt lat="40.5339074" lon="8.7657181"><ele>384.2</ele><time>2026-04-30T11:07:47.724Z</time></trkpt><trkpt lat="40.5339299" lon="8.7655875"><ele>384.8</ele><time>2026-04-30T11:07:48.729Z</time></trkpt><trkpt lat="40.5339587" lon="8.7654545"><ele>385.4</ele><time>2026-04-30T11:07:49.724Z</time></trkpt><trkpt lat="40.5339803" lon="8.7653118"><ele>386.0</ele><time>2026-04-30T11:07:50.724Z</time></trkpt><trkpt lat="40.533998" lon="8.7651643"><ele>387.25</ele><time>2026-04-30T11:07:51.724Z</time></trkpt><trkpt lat="40.5340118" lon="8.7650111"><ele>388.5</ele><time>2026-04-30T11:07:52.724Z</time></trkpt><trkpt lat="40.534026" lon="8.7648556"><ele>389.75</ele><time>2026-04-30T11:07:53.725Z</time></trkpt><trkpt lat="40.5340335" lon="8.7646928"><ele>391.0</ele><time>2026-04-30T11:07:54.724Z</time></trkpt><trkpt lat="40.5340377" lon="8.7645275"><ele>391.5</ele><time>2026-04-30T11:07:55.722Z</time></trkpt><trkpt lat="40.5340373" lon="8.7643596"><ele>392.0</ele><time>2026-04-30T11:07:56.724Z</time></trkpt><trkpt lat="40.5340347" lon="8.7641901"><ele>392.5</ele><time>2026-04-30T11:07:57.723Z</time></trkpt><trkpt lat="40.5340292" lon="8.76402"><ele>393.0</ele><time>2026-04-30T11:07:58.725Z</time></trkpt><trkpt lat="40.5340225" lon="8.7638494"><ele>393.0</ele><time>2026-04-30T11:07:59.724Z</time></trkpt><trkpt lat="40.5340188" lon="8.7636781"><ele>393.0</ele><time>2026-04-30T11:08:00.725Z</time></trkpt><trkpt lat="40.5340232" lon="8.7635109"><ele>393.0</ele><time>2026-04-30T11:08:01.722Z</time></trkpt><trkpt lat="40.5340368" lon="8.7633497"><ele>393.0</ele><time>2026-04-30T11:08:02.723Z</time></trkpt><trkpt lat="40.5340596" lon="8.7632105"><ele>394.5</ele><time>2026-04-30T11:08:03.725Z</time></trkpt><trkpt lat="40.5340875" lon="8.7630862"><ele>396.0</ele><time>2026-04-30T11:08:04.723Z</time></trkpt><trkpt lat="40.5341112" lon="8.7629684"><ele>397.5</ele><time>2026-04-30T11:08:05.725Z</time></trkpt><trkpt lat="40.5341352" lon="8.7628542"><ele>399.0</ele><time>2026-04-30T11:08:06.725Z</time></trkpt><trkpt lat="40.5341537" lon="8.7627448"><ele>400.5</ele><time>2026-04-30T11:08:07.725Z</time></trkpt><trkpt lat="40.5341655" lon="8.7626374"><ele>402.0</ele><time>2026-04-30T11:08:08.727Z</time></trkpt><trkpt lat="40.534167" lon="8.7625317"><ele>403.1666666666667</ele><time>2026-04-30T11:08:09.723Z</time></trkpt><trkpt lat="40.5341653" lon="8.7624399"><ele>404.33333333333337</ele><time>2026-04-30T11:08:10.724Z</time></trkpt><trkpt lat="40.5341586" lon="8.7623572"><ele>405.5</ele><time>2026-04-30T11:08:11.725Z</time></trkpt><trkpt lat="40.5341462" lon="8.7622219"><ele>406.6666666666667</ele><time>2026-04-30T11:08:13.724Z</time></trkpt><trkpt lat="40.5341324" lon="8.7620738"><ele>407.83333333333337</ele><time>2026-04-30T11:08:15.723Z</time></trkpt><trkpt lat="40.5341303" lon="8.7619792"><ele>409.0</ele><time>2026-04-30T11:08:16.725Z</time></trkpt><trkpt lat="40.5341298" lon="8.761888"><ele>409.50000000000006</ele><time>2026-04-30T11:08:17.723Z</time></trkpt><trkpt lat="40.5341293" lon="8.7618029"><ele>410.0</ele><time>2026-04-30T11:08:18.724Z</time></trkpt><trkpt lat="40.5341246" lon="8.7616526"><ele>410.5</ele><time>2026-04-30T11:08:20.723Z</time></trkpt><trkpt lat="40.5341198" lon="8.7615674"><ele>411.0</ele><time>2026-04-30T11:08:21.723Z</time></trkpt><trkpt lat="40.5341096" lon="8.7614768"><ele>411.50000000000006</ele><time>2026-04-30T11:08:22.723Z</time></trkpt><trkpt lat="40.5340864" lon="8.7613942"><ele>412.0</ele><time>2026-04-30T11:08:23.721Z</time></trkpt><trkpt lat="40.5340342" lon="8.761312"><ele>412.0</ele><time>2026-04-30T11:08:24.728Z</time></trkpt><trkpt lat="40.533974" lon="8.7612385"><ele>412.0</ele><time>2026-04-30T11:08:25.723Z</time></trkpt><trkpt lat="40.533924" lon="8.761183"><ele>412.0</ele><time>2026-04-30T11:08:26.724Z</time></trkpt><trkpt lat="40.5338293" lon="8.7610919"><ele>412.0</ele><time>2026-04-30T11:08:28.726Z</time></trkpt><trkpt lat="40.5337534" lon="8.760985"><ele>412.0</ele><time>2026-04-30T11:08:30.724Z</time></trkpt><trkpt lat="40.5336867" lon="8.7608732"><ele>412.6</ele><time>2026-04-30T11:08:32.726Z</time></trkpt><trkpt lat="40.5336232" lon="8.7607578"><ele>413.20000000000005</ele><time>2026-04-30T11:08:34.723Z</time></trkpt><trkpt lat="40.5335708" lon="8.7606612"><ele>413.8</ele><time>2026-04-30T11:08:36.727Z</time></trkpt><trkpt lat="40.5335181" lon="8.760566"><ele>414.4</ele><time>2026-04-30T11:08:38.723Z</time></trkpt><trkpt lat="40.5334591" lon="8.7604778"><ele>415.0</ele><time>2026-04-30T11:08:40.724Z</time></trkpt><trkpt lat="40.5333969" lon="8.7603858"><ele>415.0</ele><time>2026-04-30T11:08:42.723Z</time></trkpt><trkpt lat="40.5333338" lon="8.7602904"><ele>415.0</ele><time>2026-04-30T11:08:44.725Z</time></trkpt><trkpt lat="40.5332611" lon="8.7601915"><ele>415.0</ele><time>2026-04-30T11:08:46.724Z</time></trkpt><trkpt lat="40.5331861" lon="8.7601074"><ele>415.0</ele><time>2026-04-30T11:08:48.723Z</time></trkpt><trkpt lat="40.5331347" lon="8.7600579"><ele>415.0</ele><time>2026-04-30T11:08:49.726Z</time></trkpt><trkpt lat="40.5330401" lon="8.7599827"><ele>415.2</ele><time>2026-04-30T11:08:51.726Z</time></trkpt><trkpt lat="40.5329378" lon="8.7598958"><ele>415.4</ele><time>2026-04-30T11:08:53.722Z</time></trkpt><trkpt lat="40.5328747" lon="8.7598459"><ele>415.6</ele><time>2026-04-30T11:08:54.723Z</time></trkpt><trkpt lat="40.532806" lon="8.75979"><ele>415.8</ele><time>2026-04-30T11:08:55.724Z</time></trkpt><trkpt lat="40.532732" lon="8.7597305"><ele>416.0</ele><time>2026-04-30T11:08:56.724Z</time></trkpt><trkpt lat="40.5326571" lon="8.7596718"><ele>414.99999999999994</ele><time>2026-04-30T11:08:57.725Z</time></trkpt><trkpt lat="40.5325854" lon="8.759616"><ele>414.0</ele><time>2026-04-30T11:08:58.724Z</time></trkpt><trkpt lat="40.5325164" lon="8.7595634"><ele>413.0</ele><time>2026-04-30T11:08:59.725Z</time></trkpt><trkpt lat="40.5324461" lon="8.7595143"><ele>412.0</ele><time>2026-04-30T11:09:00.723Z</time></trkpt><trkpt lat="40.5323717" lon="8.7594635"><ele>410.99999999999994</ele><time>2026-04-30T11:09:01.722Z</time></trkpt><trkpt lat="40.5322929" lon="8.7594081"><ele>410.0</ele><time>2026-04-30T11:09:02.726Z</time></trkpt><trkpt lat="40.5322113" lon="8.7593433"><ele>410.0</ele><time>2026-04-30T11:09:03.723Z</time></trkpt><trkpt lat="40.5321246" lon="8.7592569"><ele>410.0</ele><time>2026-04-30T11:09:04.724Z</time></trkpt><trkpt lat="40.532034" lon="8.7591561"><ele>410.0</ele><time>2026-04-30T11:09:05.723Z</time></trkpt><trkpt lat="40.5319482" lon="8.759052"><ele>410.0</ele><time>2026-04-30T11:09:06.723Z</time></trkpt><trkpt lat="40.5318636" lon="8.7589493"><ele>408.5</ele><time>2026-04-30T11:09:07.723Z</time></trkpt><trkpt lat="40.5317697" lon="8.758855"><ele>407.0</ele><time>2026-04-30T11:09:08.727Z</time></trkpt><trkpt lat="40.5316638" lon="8.7587833"><ele>405.5</ele><time>2026-04-30T11:09:09.725Z</time></trkpt><trkpt lat="40.5315501" lon="8.7587335"><ele>404.0</ele><time>2026-04-30T11:09:10.725Z</time></trkpt><trkpt lat="40.531431" lon="8.7587065"><ele>404.0</ele><time>2026-04-30T11:09:11.725Z</time></trkpt><trkpt lat="40.5313076" lon="8.7586848"><ele>404.0</ele><time>2026-04-30T11:09:12.724Z</time></trkpt><trkpt lat="40.5311816" lon="8.7586657"><ele>404.0</ele><time>2026-04-30T11:09:13.723Z</time></trkpt><trkpt lat="40.5310497" lon="8.7586467"><ele>404.0</ele><time>2026-04-30T11:09:14.725Z</time></trkpt><trkpt lat="40.5309149" lon="8.758623"><ele>403.5</ele><time>2026-04-30T11:09:15.723Z</time></trkpt><trkpt lat="40.5307882" lon="8.7585971"><ele>403.0</ele><time>2026-04-30T11:09:16.73Z</time></trkpt><trkpt lat="40.530675" lon="8.7585681"><ele>402.5</ele><time>2026-04-30T11:09:17.725Z</time></trkpt><trkpt lat="40.5305712" lon="8.7585136"><ele>402.0</ele><time>2026-04-30T11:09:18.723Z</time></trkpt><trkpt lat="40.5304885" lon="8.7584317"><ele>403.5</ele><time>2026-04-30T11:09:19.722Z</time></trkpt><trkpt lat="40.5304154" lon="8.7583163"><ele>405.0</ele><time>2026-04-30T11:09:20.722Z</time></trkpt><trkpt lat="40.5303536" lon="8.758178"><ele>406.5</ele><time>2026-04-30T11:09:21.723Z</time></trkpt><trkpt lat="40.5302941" lon="8.758018"><ele>408.0</ele><time>2026-04-30T11:09:22.723Z</time></trkpt><trkpt lat="40.5302293" lon="8.7578425"><ele>408.66666666666663</ele><time>2026-04-30T11:09:23.725Z</time></trkpt><trkpt lat="40.5301554" lon="8.757654"><ele>409.3333333333333</ele><time>2026-04-30T11:09:24.729Z</time></trkpt><trkpt lat="40.5300771" lon="8.7574493"><ele>410.0</ele><time>2026-04-30T11:09:25.723Z</time></trkpt><trkpt lat="40.5299965" lon="8.7572252"><ele>410.0</ele><time>2026-04-30T11:09:26.724Z</time></trkpt><trkpt lat="40.5299106" lon="8.7569896"><ele>410.0</ele><time>2026-04-30T11:09:27.727Z</time></trkpt><trkpt lat="40.5298118" lon="8.75675"><ele>410.0</ele><time>2026-04-30T11:09:28.728Z</time></trkpt><trkpt lat="40.5296949" lon="8.7565156"><ele>410.0</ele><time>2026-04-30T11:09:29.727Z</time></trkpt><trkpt lat="40.5295648" lon="8.7562853"><ele>410.0</ele><time>2026-04-30T11:09:30.726Z</time></trkpt><trkpt lat="40.5294251" lon="8.7560532"><ele>410.0</ele><time>2026-04-30T11:09:31.723Z</time></trkpt><trkpt lat="40.5292807" lon="8.755816"><ele>413.5</ele><time>2026-04-30T11:09:32.727Z</time></trkpt><trkpt lat="40.5291361" lon="8.7555767"><ele>417.0</ele><time>2026-04-30T11:09:33.723Z</time></trkpt><trkpt lat="40.5290042" lon="8.7553481"><ele>417.66666666666663</ele><time>2026-04-30T11:09:34.725Z</time></trkpt><trkpt lat="40.5288855" lon="8.7551199"><ele>418.3333333333333</ele><time>2026-04-30T11:09:35.727Z</time></trkpt><trkpt lat="40.5287849" lon="8.75489"><ele>419.0</ele><time>2026-04-30T11:09:36.725Z</time></trkpt><trkpt lat="40.5286939" lon="8.7546564"><ele>419.0</ele><time>2026-04-30T11:09:37.725Z</time></trkpt><trkpt lat="40.5286043" lon="8.75442"><ele>419.0</ele><time>2026-04-30T11:09:38.723Z</time></trkpt><trkpt lat="40.5285145" lon="8.7541773"><ele>419.0</ele><time>2026-04-30T11:09:39.726Z</time></trkpt><trkpt lat="40.5284259" lon="8.7539321"><ele>421.66666666666663</ele><time>2026-04-30T11:09:40.729Z</time></trkpt><trkpt lat="40.5283432" lon="8.753697"><ele>424.33333333333337</ele><time>2026-04-30T11:09:41.724Z</time></trkpt><trkpt lat="40.5282671" lon="8.7534784"><ele>427.0</ele><time>2026-04-30T11:09:42.723Z</time></trkpt><trkpt lat="40.5281889" lon="8.7532894"><ele>427.5</ele><time>2026-04-30T11:09:43.724Z</time></trkpt><trkpt lat="40.5280985" lon="8.7531419"><ele>428.0</ele><time>2026-04-30T11:09:44.724Z</time></trkpt><trkpt lat="40.527989" lon="8.7530186"><ele>428.5</ele><time>2026-04-30T11:09:45.724Z</time></trkpt><trkpt lat="40.527857" lon="8.7529048"><ele>429.0</ele><time>2026-04-30T11:09:46.725Z</time></trkpt><trkpt lat="40.527705" lon="8.7527913"><ele>433.66666666666663</ele><time>2026-04-30T11:09:47.725Z</time></trkpt><trkpt lat="40.5275409" lon="8.7526721"><ele>438.3333333333333</ele><time>2026-04-30T11:09:48.726Z</time></trkpt><trkpt lat="40.527373" lon="8.7525449"><ele>443.0</ele><time>2026-04-30T11:09:49.725Z</time></trkpt><trkpt lat="40.5272011" lon="8.7524165"><ele>441.0</ele><time>2026-04-30T11:09:50.724Z</time></trkpt><trkpt lat="40.5270373" lon="8.7522999"><ele>439.0</ele><time>2026-04-30T11:09:51.724Z</time></trkpt><trkpt lat="40.5268794" lon="8.7521822"><ele>437.0</ele><time>2026-04-30T11:09:52.724Z</time></trkpt><trkpt lat="40.5267323" lon="8.7520543"><ele>437.0</ele><time>2026-04-30T11:09:53.723Z</time></trkpt><trkpt lat="40.5266075" lon="8.7519167"><ele>437.0</ele><time>2026-04-30T11:09:54.723Z</time></trkpt><trkpt lat="40.5264989" lon="8.7517528"><ele>437.0</ele><time>2026-04-30T11:09:55.722Z</time></trkpt><trkpt lat="40.5264" lon="8.751571"><ele>438.0</ele><time>2026-04-30T11:09:56.728Z</time></trkpt><trkpt lat="40.526296" lon="8.7513712"><ele>439.0</ele><time>2026-04-30T11:09:57.723Z</time></trkpt><trkpt lat="40.5261809" lon="8.7511556"><ele>440.0</ele><time>2026-04-30T11:09:58.723Z</time></trkpt><trkpt lat="40.526063" lon="8.7509584"><ele>442.66666666666663</ele><time>2026-04-30T11:09:59.722Z</time></trkpt><trkpt lat="40.5259223" lon="8.7507868"><ele>445.33333333333337</ele><time>2026-04-30T11:10:00.724Z</time></trkpt><trkpt lat="40.5257666" lon="8.7506307"><ele>448.0</ele><time>2026-04-30T11:10:01.722Z</time></trkpt><trkpt lat="40.5256068" lon="8.7504743"><ele>448.0</ele><time>2026-04-30T11:10:02.722Z</time></trkpt><trkpt lat="40.5254449" lon="8.7503178"><ele>448.0</ele><time>2026-04-30T11:10:03.723Z</time></trkpt><trkpt lat="40.5252903" lon="8.7501756"><ele>448.0</ele><time>2026-04-30T11:10:04.729Z</time></trkpt><trkpt lat="40.5251458" lon="8.7500419"><ele>449.0</ele><time>2026-04-30T11:10:05.722Z</time></trkpt><trkpt lat="40.5250156" lon="8.7499054"><ele>450.0</ele><time>2026-04-30T11:10:06.723Z</time></trkpt><trkpt lat="40.5249051" lon="8.7497567"><ele>451.0</ele><time>2026-04-30T11:10:07.722Z</time></trkpt><trkpt lat="40.5248111" lon="8.7495931"><ele>451.0</ele><time>2026-04-30T11:10:08.722Z</time></trkpt><trkpt lat="40.524729" lon="8.7494163"><ele>451.0</ele><time>2026-04-30T11:10:09.723Z</time></trkpt><trkpt lat="40.5246553" lon="8.7492312"><ele>451.0</ele><time>2026-04-30T11:10:10.723Z</time></trkpt><trkpt lat="40.5245817" lon="8.7490417"><ele>449.6666666666667</ele><time>2026-04-30T11:10:11.721Z</time></trkpt><trkpt lat="40.5245067" lon="8.7488475"><ele>448.33333333333337</ele><time>2026-04-30T11:10:12.728Z</time></trkpt><trkpt lat="40.5244339" lon="8.7486599"><ele>447.0</ele><time>2026-04-30T11:10:13.72Z</time></trkpt><trkpt lat="40.5243692" lon="8.7484933"><ele>450.75</ele><time>2026-04-30T11:10:14.721Z</time></trkpt><trkpt lat="40.5243089" lon="8.7483389"><ele>454.5</ele><time>2026-04-30T11:10:15.724Z</time></trkpt><trkpt lat="40.5242518" lon="8.7481949"><ele>458.25</ele><time>2026-04-30T11:10:16.724Z</time></trkpt><trkpt lat="40.5241999" lon="8.7480632"><ele>462.0</ele><time>2026-04-30T11:10:17.722Z</time></trkpt><trkpt lat="40.524146" lon="8.7479309"><ele>462.0</ele><time>2026-04-30T11:10:18.722Z</time></trkpt><trkpt lat="40.5240855" lon="8.7477896"><ele>462.0</ele><time>2026-04-30T11:10:19.722Z</time></trkpt><trkpt lat="40.5240125" lon="8.7476457"><ele>462.0</ele><time>2026-04-30T11:10:20.727Z</time></trkpt><trkpt lat="40.5239244" lon="8.7475042"><ele>462.0</ele><time>2026-04-30T11:10:21.724Z</time></trkpt><trkpt lat="40.5238211" lon="8.7473707"><ele>463.75</ele><time>2026-04-30T11:10:22.723Z</time></trkpt><trkpt lat="40.5237054" lon="8.7472495"><ele>465.5</ele><time>2026-04-30T11:10:23.724Z</time></trkpt><trkpt lat="40.5235909" lon="8.7471282"><ele>467.25</ele><time>2026-04-30T11:10:24.73Z</time></trkpt><trkpt lat="40.5234936" lon="8.7469923"><ele>469.0</ele><time>2026-04-30T11:10:25.724Z</time></trkpt><trkpt lat="40.5234208" lon="8.7468475"><ele>469.0</ele><time>2026-04-30T11:10:26.721Z</time></trkpt><trkpt lat="40.5233678" lon="8.7466833"><ele>469.0</ele><time>2026-04-30T11:10:27.723Z</time></trkpt><trkpt lat="40.5233303" lon="8.7464981"><ele>469.0</ele><time>2026-04-30T11:10:28.729Z</time></trkpt><trkpt lat="40.5232991" lon="8.746302"><ele>469.0</ele><time>2026-04-30T11:10:29.724Z</time></trkpt><trkpt lat="40.5232887" lon="8.7461283"><ele>470.25</ele><time>2026-04-30T11:10:30.722Z</time></trkpt><trkpt lat="40.5233039" lon="8.745969"><ele>471.5</ele><time>2026-04-30T11:10:31.722Z</time></trkpt><trkpt lat="40.5233428" lon="8.7458295"><ele>472.75</ele><time>2026-04-30T11:10:32.722Z</time></trkpt><trkpt lat="40.5234039" lon="8.7456988"><ele>474.0</ele><time>2026-04-30T11:10:33.724Z</time></trkpt><trkpt lat="40.5234814" lon="8.7455727"><ele>474.0</ele><time>2026-04-30T11:10:34.727Z</time></trkpt><trkpt lat="40.5235512" lon="8.7454539"><ele>474.0</ele><time>2026-04-30T11:10:35.724Z</time></trkpt><trkpt lat="40.5235921" lon="8.7453334"><ele>474.0</ele><time>2026-04-30T11:10:36.728Z</time></trkpt><trkpt lat="40.5236024" lon="8.7452148"><ele>474.0</ele><time>2026-04-30T11:10:37.722Z</time></trkpt><trkpt lat="40.5235822" lon="8.7451089"><ele>474.0</ele><time>2026-04-30T11:10:38.722Z</time></trkpt><trkpt lat="40.5235403" lon="8.7450171"><ele>474.2857142857142</ele><time>2026-04-30T11:10:39.723Z</time></trkpt><trkpt lat="40.5234841" lon="8.7449432"><ele>474.57142857142856</ele><time>2026-04-30T11:10:40.724Z</time></trkpt><trkpt lat="40.5234187" lon="8.744882"><ele>474.85714285714283</ele><time>2026-04-30T11:10:41.725Z</time></trkpt><trkpt lat="40.5233587" lon="8.7448269"><ele>475.1428571428571</ele><time>2026-04-30T11:10:42.724Z</time></trkpt><trkpt lat="40.5233141" lon="8.744766"><ele>475.42857142857144</ele><time>2026-04-30T11:10:43.722Z</time></trkpt><trkpt lat="40.5232763" lon="8.7446899"><ele>475.7142857142857</ele><time>2026-04-30T11:10:44.722Z</time></trkpt><trkpt lat="40.5232395" lon="8.7446095"><ele>476.0</ele><time>2026-04-30T11:10:45.722Z</time></trkpt><trkpt lat="40.523199" lon="8.7445263"><ele>475.99999999999994</ele><time>2026-04-30T11:10:46.723Z</time></trkpt><trkpt lat="40.5231561" lon="8.7444502"><ele>476.0</ele><time>2026-04-30T11:10:47.724Z</time></trkpt><trkpt lat="40.5231086" lon="8.7443709"><ele>476.0</ele><time>2026-04-30T11:10:48.723Z</time></trkpt><trkpt lat="40.5230654" lon="8.7442964"><ele>476.0</ele><time>2026-04-30T11:10:49.722Z</time></trkpt><trkpt lat="40.5230259" lon="8.7442277"><ele>475.99999999999994</ele><time>2026-04-30T11:10:50.723Z</time></trkpt><trkpt lat="40.5229557" lon="8.7441023"><ele>476.0</ele><time>2026-04-30T11:10:52.726Z</time></trkpt><trkpt lat="40.5228889" lon="8.7439759"><ele>476.16666666666663</ele><time>2026-04-30T11:10:54.722Z</time></trkpt><trkpt lat="40.5228128" lon="8.7438551"><ele>476.3333333333333</ele><time>2026-04-30T11:10:56.722Z</time></trkpt><trkpt lat="40.522763" lon="8.7438019"><ele>476.5</ele><time>2026-04-30T11:10:57.722Z</time></trkpt><trkpt lat="40.5227042" lon="8.7437473"><ele>476.66666666666663</ele><time>2026-04-30T11:10:58.723Z</time></trkpt><trkpt lat="40.5226535" lon="8.7436817"><ele>476.8333333333333</ele><time>2026-04-30T11:10:59.724Z</time></trkpt><trkpt lat="40.5226063" lon="8.7435868"><ele>477.0</ele><time>2026-04-30T11:11:00.723Z</time></trkpt><trkpt lat="40.5225625" lon="8.7434794"><ele>478.40000000000003</ele><time>2026-04-30T11:11:01.722Z</time></trkpt><trkpt lat="40.5225079" lon="8.7433915"><ele>479.80000000000007</ele><time>2026-04-30T11:11:02.721Z</time></trkpt><trkpt lat="40.5224403" lon="8.7432958"><ele>481.2</ele><time>2026-04-30T11:11:03.721Z</time></trkpt><trkpt lat="40.5223586" lon="8.743201"><ele>482.6</ele><time>2026-04-30T11:11:04.722Z</time></trkpt><trkpt lat="40.5222667" lon="8.7431027"><ele>484.0</ele><time>2026-04-30T11:11:05.722Z</time></trkpt><trkpt lat="40.5221689" lon="8.7430044"><ele>484.0</ele><time>2026-04-30T11:11:06.724Z</time></trkpt><trkpt lat="40.5220686" lon="8.7429025"><ele>484.0</ele><time>2026-04-30T11:11:07.723Z</time></trkpt><trkpt lat="40.5219697" lon="8.7427981"><ele>484.0</ele><time>2026-04-30T11:11:08.722Z</time></trkpt><trkpt lat="40.5218823" lon="8.7427023"><ele>484.0</ele><time>2026-04-30T11:11:09.721Z</time></trkpt><trkpt lat="40.5218003" lon="8.7426002"><ele>484.79999999999995</ele><time>2026-04-30T11:11:10.722Z</time></trkpt><trkpt lat="40.5217287" lon="8.7425083"><ele>485.59999999999997</ele><time>2026-04-30T11:11:11.721Z</time></trkpt><trkpt lat="40.5216569" lon="8.7424129"><ele>486.4</ele><time>2026-04-30T11:11:12.722Z</time></trkpt><trkpt lat="40.5215811" lon="8.742314"><ele>487.2</ele><time>2026-04-30T11:11:13.723Z</time></trkpt><trkpt lat="40.5215023" lon="8.7422086"><ele>488.0</ele><time>2026-04-30T11:11:14.722Z</time></trkpt><trkpt lat="40.5214272" lon="8.7421139"><ele>487.99999999999994</ele><time>2026-04-30T11:11:15.721Z</time></trkpt><trkpt lat="40.521359" lon="8.7420274"><ele>488.0</ele><time>2026-04-30T11:11:16.721Z</time></trkpt><trkpt lat="40.5212976" lon="8.7419344"><ele>488.0</ele><time>2026-04-30T11:11:17.722Z</time></trkpt><trkpt lat="40.5212466" lon="8.741839"><ele>488.0</ele><time>2026-04-30T11:11:18.721Z</time></trkpt><trkpt lat="40.5211984" lon="8.7417407"><ele>487.99999999999994</ele><time>2026-04-30T11:11:19.725Z</time></trkpt><trkpt lat="40.521159" lon="8.7416451"><ele>488.0</ele><time>2026-04-30T11:11:20.722Z</time></trkpt><trkpt lat="40.5211235" lon="8.7415521"><ele>486.79999999999995</ele><time>2026-04-30T11:11:21.721Z</time></trkpt><trkpt lat="40.5211048" lon="8.7414601"><ele>485.59999999999997</ele><time>2026-04-30T11:11:22.72Z</time></trkpt><trkpt lat="40.5211014" lon="8.7413427"><ele>484.40000000000003</ele><time>2026-04-30T11:11:23.721Z</time></trkpt><trkpt lat="40.5211172" lon="8.7412119"><ele>483.20000000000005</ele><time>2026-04-30T11:11:24.72Z</time></trkpt><trkpt lat="40.5211501" lon="8.7410708"><ele>482.0</ele><time>2026-04-30T11:11:25.725Z</time></trkpt><trkpt lat="40.5212038" lon="8.7409347"><ele>486.25</ele><time>2026-04-30T11:11:26.723Z</time></trkpt><trkpt lat="40.5212815" lon="8.7408089"><ele>490.5</ele><time>2026-04-30T11:11:27.721Z</time></trkpt><trkpt lat="40.5213825" lon="8.7406947"><ele>494.75</ele><time>2026-04-30T11:11:28.721Z</time></trkpt><trkpt lat="40.5215026" lon="8.7405905"><ele>499.0</ele><time>2026-04-30T11:11:29.721Z</time></trkpt><trkpt lat="40.5216337" lon="8.7404829"><ele>499.0</ele><time>2026-04-30T11:11:30.72Z</time></trkpt><trkpt lat="40.5217733" lon="8.7403648"><ele>499.0</ele><time>2026-04-30T11:11:31.721Z</time></trkpt><trkpt lat="40.5219224" lon="8.7402265"><ele>499.0</ele><time>2026-04-30T11:11:32.723Z</time></trkpt><trkpt lat="40.5220705" lon="8.7400795"><ele>501.0</ele><time>2026-04-30T11:11:33.722Z</time></trkpt><trkpt lat="40.5221988" lon="8.7399356"><ele>503.0</ele><time>2026-04-30T11:11:34.722Z</time></trkpt><trkpt lat="40.5223054" lon="8.7398102"><ele>505.0</ele><time>2026-04-30T11:11:35.721Z</time></trkpt><trkpt lat="40.5223907" lon="8.7397033"><ele>507.0</ele><time>2026-04-30T11:11:36.723Z</time></trkpt><trkpt lat="40.5224497" lon="8.739599"><ele>507.0</ele><time>2026-04-30T11:11:37.723Z</time></trkpt><trkpt lat="40.5224637" lon="8.7394856"><ele>507.0</ele><time>2026-04-30T11:11:38.723Z</time></trkpt><trkpt lat="40.522443" lon="8.73938"><ele>507.0</ele><time>2026-04-30T11:11:39.724Z</time></trkpt><trkpt lat="40.5223966" lon="8.7392771"><ele>507.0</ele><time>2026-04-30T11:11:40.722Z</time></trkpt><trkpt lat="40.5223408" lon="8.739181"><ele>507.0</ele><time>2026-04-30T11:11:41.722Z</time></trkpt><trkpt lat="40.52227" lon="8.7391228"><ele>507.0</ele><time>2026-04-30T11:11:42.721Z</time></trkpt><trkpt lat="40.5221886" lon="8.7391095"><ele>505.8</ele><time>2026-04-30T11:11:43.723Z</time></trkpt><trkpt lat="40.5220973" lon="8.7391298"><ele>504.6</ele><time>2026-04-30T11:11:44.723Z</time></trkpt><trkpt lat="40.5219982" lon="8.7391783"><ele>503.40000000000003</ele><time>2026-04-30T11:11:45.723Z</time></trkpt><trkpt lat="40.5218869" lon="8.7392205"><ele>502.20000000000005</ele><time>2026-04-30T11:11:46.724Z</time></trkpt><trkpt lat="40.5217581" lon="8.7392303"><ele>501.0</ele><time>2026-04-30T11:11:47.722Z</time></trkpt><trkpt lat="40.5216116" lon="8.7392088"><ele>500.66666666666663</ele><time>2026-04-30T11:11:48.721Z</time></trkpt><trkpt lat="40.5214454" lon="8.739169"><ele>500.3333333333333</ele><time>2026-04-30T11:11:49.721Z</time></trkpt><trkpt lat="40.5212589" lon="8.7391213"><ele>500.0</ele><time>2026-04-30T11:11:50.723Z</time></trkpt><trkpt lat="40.5210617" lon="8.7390697"><ele>500.0</ele><time>2026-04-30T11:11:51.723Z</time></trkpt><trkpt lat="40.5208645" lon="8.7390343"><ele>500.0</ele><time>2026-04-30T11:11:52.724Z</time></trkpt><trkpt lat="40.5206818" lon="8.7390277"><ele>500.0</ele><time>2026-04-30T11:11:53.723Z</time></trkpt><trkpt lat="40.5205162" lon="8.7390456"><ele>502.25</ele><time>2026-04-30T11:11:54.721Z</time></trkpt><trkpt lat="40.5203734" lon="8.7390888"><ele>504.5</ele><time>2026-04-30T11:11:55.722Z</time></trkpt><trkpt lat="40.5202453" lon="8.7391397"><ele>506.75</ele><time>2026-04-30T11:11:56.722Z</time></trkpt><trkpt lat="40.5201245" lon="8.7391623"><ele>509.0</ele><time>2026-04-30T11:11:57.724Z</time></trkpt><trkpt lat="40.5200093" lon="8.739161"><ele>508.99999999999994</ele><time>2026-04-30T11:11:58.724Z</time></trkpt><trkpt lat="40.5199104" lon="8.7391753"><ele>509.0</ele><time>2026-04-30T11:11:59.723Z</time></trkpt><trkpt lat="40.5198304" lon="8.7392343"><ele>509.0</ele><time>2026-04-30T11:12:00.722Z</time></trkpt><trkpt lat="40.5197748" lon="8.7393141"><ele>509.0</ele><time>2026-04-30T11:12:01.724Z</time></trkpt><trkpt lat="40.5197228" lon="8.7393976"><ele>508.99999999999994</ele><time>2026-04-30T11:12:02.722Z</time></trkpt><trkpt lat="40.5196572" lon="8.7394549"><ele>509.0</ele><time>2026-04-30T11:12:03.724Z</time></trkpt><trkpt lat="40.5195927" lon="8.7394659"><ele>509.0</ele><time>2026-04-30T11:12:04.723Z</time></trkpt><trkpt lat="40.5195149" lon="8.7393809"><ele>509.0</ele><time>2026-04-30T11:12:06.722Z</time></trkpt><trkpt lat="40.5195104" lon="8.7392965"><ele>509.0</ele><time>2026-04-30T11:12:07.724Z</time></trkpt><trkpt lat="40.5195318" lon="8.7391958"><ele>509.0</ele><time>2026-04-30T11:12:08.721Z</time></trkpt><trkpt lat="40.5195685" lon="8.7390647"><ele>509.0</ele><time>2026-04-30T11:12:09.729Z</time></trkpt><trkpt lat="40.5196193" lon="8.7389013"><ele>509.0</ele><time>2026-04-30T11:12:10.722Z</time></trkpt><trkpt lat="40.5196678" lon="8.7387285"><ele>509.0</ele><time>2026-04-30T11:12:11.723Z</time></trkpt><trkpt lat="40.519711" lon="8.7385662"><ele>509.0</ele><time>2026-04-30T11:12:12.723Z</time></trkpt><trkpt lat="40.5197483" lon="8.7384315"><ele>509.0</ele><time>2026-04-30T11:12:13.722Z</time></trkpt><trkpt lat="40.5197769" lon="8.7383165"><ele>510.3333333333333</ele><time>2026-04-30T11:12:14.722Z</time></trkpt><trkpt lat="40.5198037" lon="8.738214"><ele>511.66666666666663</ele><time>2026-04-30T11:12:15.72Z</time></trkpt><trkpt lat="40.5198297" lon="8.7381143"><ele>513.0</ele><time>2026-04-30T11:12:16.723Z</time></trkpt><trkpt lat="40.5198563" lon="8.7380049"><ele>514.3333333333334</ele><time>2026-04-30T11:12:17.723Z</time></trkpt><trkpt lat="40.5198867" lon="8.7378871"><ele>515.6666666666667</ele><time>2026-04-30T11:12:18.724Z</time></trkpt><trkpt lat="40.5199233" lon="8.7377586"><ele>517.0</ele><time>2026-04-30T11:12:19.723Z</time></trkpt><trkpt lat="40.5199653" lon="8.7376275"><ele>517.0</ele><time>2026-04-30T11:12:20.722Z</time></trkpt><trkpt lat="40.520007" lon="8.7374921"><ele>517.0</ele><time>2026-04-30T11:12:21.723Z</time></trkpt><trkpt lat="40.5200518" lon="8.7373586"><ele>517.0</ele><time>2026-04-30T11:12:22.723Z</time></trkpt><trkpt lat="40.5201047" lon="8.7372344"><ele>517.0</ele><time>2026-04-30T11:12:23.724Z</time></trkpt><trkpt lat="40.5201692" lon="8.7371081"><ele>517.0</ele><time>2026-04-30T11:12:24.722Z</time></trkpt><trkpt lat="40.5202492" lon="8.7369834"><ele>518.25</ele><time>2026-04-30T11:12:25.728Z</time></trkpt><trkpt lat="40.5203396" lon="8.7368613"><ele>519.5</ele><time>2026-04-30T11:12:26.723Z</time></trkpt><trkpt lat="40.5204312" lon="8.7367461"><ele>520.75</ele><time>2026-04-30T11:12:27.724Z</time></trkpt><trkpt lat="40.5205234" lon="8.736624"><ele>522.0</ele><time>2026-04-30T11:12:28.724Z</time></trkpt><trkpt lat="40.5206177" lon="8.7364886"><ele>522.0</ele><time>2026-04-30T11:12:29.724Z</time></trkpt><trkpt lat="40.5207001" lon="8.736332"><ele>522.0</ele><time>2026-04-30T11:12:30.724Z</time></trkpt><trkpt lat="40.5207702" lon="8.7361602"><ele>522.0</ele><time>2026-04-30T11:12:31.724Z</time></trkpt><trkpt lat="40.5208309" lon="8.7359681"><ele>519.3333333333334</ele><time>2026-04-30T11:12:32.721Z</time></trkpt><trkpt lat="40.5208869" lon="8.7357602"><ele>516.6666666666667</ele><time>2026-04-30T11:12:33.726Z</time></trkpt><trkpt lat="40.5209451" lon="8.7355478"><ele>514.0</ele><time>2026-04-30T11:12:34.723Z</time></trkpt><trkpt lat="40.5210041" lon="8.7353483"><ele>512.3333333333334</ele><time>2026-04-30T11:12:35.727Z</time></trkpt><trkpt lat="40.5210621" lon="8.7351547"><ele>510.66666666666663</ele><time>2026-04-30T11:12:36.724Z</time></trkpt><trkpt lat="40.5211203" lon="8.7349603"><ele>509.0</ele><time>2026-04-30T11:12:37.724Z</time></trkpt><trkpt lat="40.5211782" lon="8.7347611"><ele>512.5</ele><time>2026-04-30T11:12:38.722Z</time></trkpt><trkpt lat="40.5212329" lon="8.7345734"><ele>516.0</ele><time>2026-04-30T11:12:39.722Z</time></trkpt><trkpt lat="40.5212879" lon="8.7343942"><ele>519.5</ele><time>2026-04-30T11:12:40.722Z</time></trkpt><trkpt lat="40.5213374" lon="8.734227"><ele>523.0</ele><time>2026-04-30T11:12:41.727Z</time></trkpt><trkpt lat="40.521374" lon="8.7340582"><ele>523.0</ele><time>2026-04-30T11:12:42.723Z</time></trkpt><trkpt lat="40.5213869" lon="8.7338914"><ele>523.0</ele><time>2026-04-30T11:12:43.725Z</time></trkpt><trkpt lat="40.5213736" lon="8.7337253"><ele>523.0</ele><time>2026-04-30T11:12:44.723Z</time></trkpt><trkpt lat="40.52134" lon="8.7335538"><ele>523.0</ele><time>2026-04-30T11:12:45.722Z</time></trkpt><trkpt lat="40.5213023" lon="8.7333705"><ele>518.6666666666667</ele><time>2026-04-30T11:12:46.724Z</time></trkpt><trkpt lat="40.521266" lon="8.7331753"><ele>514.3333333333334</ele><time>2026-04-30T11:12:47.722Z</time></trkpt><trkpt lat="40.5212402" lon="8.7329693"><ele>510.0</ele><time>2026-04-30T11:12:48.724Z</time></trkpt><trkpt lat="40.521226" lon="8.7327639"><ele>506.75</ele><time>2026-04-30T11:12:49.727Z</time></trkpt><trkpt lat="40.5212282" lon="8.7325656"><ele>503.5</ele><time>2026-04-30T11:12:50.724Z</time></trkpt><trkpt lat="40.5212273" lon="8.732368"><ele>500.25</ele><time>2026-04-30T11:12:51.724Z</time></trkpt><trkpt lat="40.5212297" lon="8.7321811"><ele>497.0</ele><time>2026-04-30T11:12:52.722Z</time></trkpt><trkpt lat="40.5212297" lon="8.7320183"><ele>495.6</ele><time>2026-04-30T11:12:53.725Z</time></trkpt><trkpt lat="40.5212092" lon="8.7318816"><ele>494.20000000000005</ele><time>2026-04-30T11:12:54.73Z</time></trkpt><trkpt lat="40.5211613" lon="8.7317701"><ele>492.8</ele><time>2026-04-30T11:12:55.721Z</time></trkpt><trkpt lat="40.5210828" lon="8.7317019"><ele>491.4</ele><time>2026-04-30T11:12:56.724Z</time></trkpt><trkpt lat="40.520991" lon="8.7316898"><ele>490.0</ele><time>2026-04-30T11:12:57.723Z</time></trkpt><trkpt lat="40.5208906" lon="8.7317308"><ele>490.0</ele><time>2026-04-30T11:12:58.722Z</time></trkpt><trkpt lat="40.5207872" lon="8.7318136"><ele>490.0</ele><time>2026-04-30T11:12:59.726Z</time></trkpt><trkpt lat="40.5206772" lon="8.7319171"><ele>490.0</ele><time>2026-04-30T11:13:00.719Z</time></trkpt><trkpt lat="40.5205487" lon="8.7320423"><ele>490.0</ele><time>2026-04-30T11:13:01.723Z</time></trkpt><trkpt lat="40.5203972" lon="8.7321849"><ele>488.0</ele><time>2026-04-30T11:13:02.725Z</time></trkpt><trkpt lat="40.5202582" lon="8.7323157"><ele>486.0</ele><time>2026-04-30T11:13:03.722Z</time></trkpt><trkpt lat="40.520132" lon="8.732435"><ele>484.0</ele><time>2026-04-30T11:13:04.723Z</time></trkpt><trkpt lat="40.5200179" lon="8.732547"><ele>484.0</ele><time>2026-04-30T11:13:05.724Z</time></trkpt><trkpt lat="40.5199064" lon="8.7326585"><ele>484.0</ele><time>2026-04-30T11:13:06.722Z</time></trkpt><trkpt lat="40.5198007" lon="8.7327708"><ele>484.0</ele><time>2026-04-30T11:13:07.725Z</time></trkpt><trkpt lat="40.5196963" lon="8.7328837"><ele>484.0</ele><time>2026-04-30T11:13:08.725Z</time></trkpt><trkpt lat="40.5195864" lon="8.7330033"><ele>480.33333333333337</ele><time>2026-04-30T11:13:09.726Z</time></trkpt><trkpt lat="40.5194866" lon="8.7331434"><ele>476.66666666666663</ele><time>2026-04-30T11:13:10.724Z</time></trkpt><trkpt lat="40.5193917" lon="8.7333029"><ele>473.0</ele><time>2026-04-30T11:13:11.724Z</time></trkpt><trkpt lat="40.5193043" lon="8.7334819"><ele>474.0</ele><time>2026-04-30T11:13:12.721Z</time></trkpt><trkpt lat="40.5192347" lon="8.7336666"><ele>475.0</ele><time>2026-04-30T11:13:13.724Z</time></trkpt><trkpt lat="40.5191795" lon="8.7338531"><ele>476.0</ele><time>2026-04-30T11:13:14.724Z</time></trkpt><trkpt lat="40.5191446" lon="8.7340335"><ele>476.0</ele><time>2026-04-30T11:13:15.725Z</time></trkpt><trkpt lat="40.5191328" lon="8.7342119"><ele>476.0</ele><time>2026-04-30T11:13:16.723Z</time></trkpt><trkpt lat="40.5191364" lon="8.7343781"><ele>476.0</ele><time>2026-04-30T11:13:17.723Z</time></trkpt><trkpt lat="40.519136" lon="8.7345312"><ele>476.0</ele><time>2026-04-30T11:13:18.721Z</time></trkpt><trkpt lat="40.5191044" lon="8.734672"><ele>476.25</ele><time>2026-04-30T11:13:19.72Z</time></trkpt><trkpt lat="40.5190371" lon="8.7347877"><ele>476.5</ele><time>2026-04-30T11:13:20.722Z</time></trkpt><trkpt lat="40.5189359" lon="8.7348641"><ele>476.75</ele><time>2026-04-30T11:13:21.724Z</time></trkpt><trkpt lat="40.51882" lon="8.7348832"><ele>477.0</ele><time>2026-04-30T11:13:22.723Z</time></trkpt><trkpt lat="40.5186959" lon="8.7348494"><ele>475.0</ele><time>2026-04-30T11:13:23.722Z</time></trkpt><trkpt lat="40.5185599" lon="8.7347855"><ele>473.0</ele><time>2026-04-30T11:13:24.722Z</time></trkpt><trkpt lat="40.5184095" lon="8.7347103"><ele>471.0</ele><time>2026-04-30T11:13:25.72Z</time></trkpt><trkpt lat="40.5182661" lon="8.7346378"><ele>471.0</ele><time>2026-04-30T11:13:26.722Z</time></trkpt><trkpt lat="40.5181257" lon="8.7345693"><ele>471.0</ele><time>2026-04-30T11:13:27.722Z</time></trkpt><trkpt lat="40.517989" lon="8.7345021"><ele>471.0</ele><time>2026-04-30T11:13:28.723Z</time></trkpt><trkpt lat="40.5178601" lon="8.7344285"><ele>471.0</ele><time>2026-04-30T11:13:29.723Z</time></trkpt><trkpt lat="40.5177447" lon="8.7343362"><ele>468.5</ele><time>2026-04-30T11:13:30.724Z</time></trkpt><trkpt lat="40.5176475" lon="8.7342216"><ele>466.0</ele><time>2026-04-30T11:13:31.721Z</time></trkpt><trkpt lat="40.5175827" lon="8.7340856"><ele>463.5</ele><time>2026-04-30T11:13:32.724Z</time></trkpt><trkpt lat="40.5175484" lon="8.733927"><ele>461.0</ele><time>2026-04-30T11:13:33.723Z</time></trkpt><trkpt lat="40.5175258" lon="8.7337438"><ele>461.0</ele><time>2026-04-30T11:13:34.726Z</time></trkpt><trkpt lat="40.5175135" lon="8.7335721"><ele>461.0</ele><time>2026-04-30T11:13:35.723Z</time></trkpt><trkpt lat="40.5175237" lon="8.7333913"><ele>461.0</ele><time>2026-04-30T11:13:36.724Z</time></trkpt><trkpt lat="40.5175608" lon="8.7332211"><ele>461.0</ele><time>2026-04-30T11:13:37.721Z</time></trkpt><trkpt lat="40.5176085" lon="8.7330747"><ele>460.16666666666663</ele><time>2026-04-30T11:13:38.722Z</time></trkpt><trkpt lat="40.5176454" lon="8.7329476"><ele>459.3333333333333</ele><time>2026-04-30T11:13:39.723Z</time></trkpt><trkpt lat="40.5176517" lon="8.7328317"><ele>458.5</ele><time>2026-04-30T11:13:40.724Z</time></trkpt><trkpt lat="40.5176206" lon="8.7327383"><ele>457.66666666666663</ele><time>2026-04-30T11:13:41.723Z</time></trkpt><trkpt lat="40.517558" lon="8.7326862"><ele>456.8333333333333</ele><time>2026-04-30T11:13:42.723Z</time></trkpt><trkpt lat="40.5174752" lon="8.7326815"><ele>456.0</ele><time>2026-04-30T11:13:43.722Z</time></trkpt><trkpt lat="40.5173817" lon="8.7327221"><ele>456.0</ele><time>2026-04-30T11:13:44.72Z</time></trkpt><trkpt lat="40.5172722" lon="8.7327953"><ele>456.0</ele><time>2026-04-30T11:13:45.722Z</time></trkpt><trkpt lat="40.517161" lon="8.7328507"><ele>456.0</ele><time>2026-04-30T11:13:46.722Z</time></trkpt><trkpt lat="40.5170575" lon="8.7328676"><ele>456.0</ele><time>2026-04-30T11:13:47.724Z</time></trkpt><trkpt lat="40.5169657" lon="8.7328431"><ele>456.0</ele><time>2026-04-30T11:13:48.722Z</time></trkpt><trkpt lat="40.5168998" lon="8.7327744"><ele>455.0</ele><time>2026-04-30T11:13:49.723Z</time></trkpt><trkpt lat="40.5168705" lon="8.7326824"><ele>454.0</ele><time>2026-04-30T11:13:50.722Z</time></trkpt><trkpt lat="40.5168676" lon="8.7325823"><ele>453.0</ele><time>2026-04-30T11:13:51.721Z</time></trkpt><trkpt lat="40.5168959" lon="8.7324775"><ele>452.0</ele><time>2026-04-30T11:13:52.719Z</time></trkpt><trkpt lat="40.5169529" lon="8.7323779"><ele>451.0</ele><time>2026-04-30T11:13:53.722Z</time></trkpt><trkpt lat="40.5170329" lon="8.7322803"><ele>450.0</ele><time>2026-04-30T11:13:54.723Z</time></trkpt><trkpt lat="40.5171244" lon="8.7321766"><ele>449.5</ele><time>2026-04-30T11:13:55.728Z</time></trkpt><trkpt lat="40.5172079" lon="8.7320715"><ele>449.0</ele><time>2026-04-30T11:13:56.724Z</time></trkpt><trkpt lat="40.517274" lon="8.7319562"><ele>448.5</ele><time>2026-04-30T11:13:57.722Z</time></trkpt><trkpt lat="40.5173212" lon="8.7318179"><ele>448.0</ele><time>2026-04-30T11:13:58.724Z</time></trkpt><trkpt lat="40.5173476" lon="8.7316721"><ele>447.0</ele><time>2026-04-30T11:13:59.722Z</time></trkpt><trkpt lat="40.5173676" lon="8.7315337"><ele>445.99999999999994</ele><time>2026-04-30T11:14:00.728Z</time></trkpt><trkpt lat="40.5174155" lon="8.7314211"><ele>444.99999999999994</ele><time>2026-04-30T11:14:01.723Z</time></trkpt><trkpt lat="40.5174899" lon="8.7313233"><ele>444.0</ele><time>2026-04-30T11:14:02.722Z</time></trkpt><trkpt lat="40.5175805" lon="8.7312265"><ele>443.0</ele><time>2026-04-30T11:14:03.721Z</time></trkpt><trkpt lat="40.5176683" lon="8.7311212"><ele>441.59999999999997</ele><time>2026-04-30T11:14:04.722Z</time></trkpt><trkpt lat="40.5177227" lon="8.7309945"><ele>440.19999999999993</ele><time>2026-04-30T11:14:05.722Z</time></trkpt><trkpt lat="40.5177494" lon="8.730853"><ele>438.8</ele><time>2026-04-30T11:14:06.723Z</time></trkpt><trkpt lat="40.5177482" lon="8.7307041"><ele>437.4</ele><time>2026-04-30T11:14:07.726Z</time></trkpt><trkpt lat="40.5177285" lon="8.7305746"><ele>436.0</ele><time>2026-04-30T11:14:08.722Z</time></trkpt><trkpt lat="40.5177087" lon="8.7304685"><ele>436.00000000000006</ele><time>2026-04-30T11:14:09.723Z</time></trkpt><trkpt lat="40.5176909" lon="8.7303768"><ele>436.0</ele><time>2026-04-30T11:14:10.722Z</time></trkpt><trkpt lat="40.5176679" lon="8.7302556"><ele>436.0</ele><time>2026-04-30T11:14:12.723Z</time></trkpt><trkpt lat="40.5176499" lon="8.7301718"><ele>436.0</ele><time>2026-04-30T11:14:14.724Z</time></trkpt><trkpt lat="40.5176297" lon="8.7300736"><ele>436.00000000000006</ele><time>2026-04-30T11:14:22.721Z</time></trkpt><trkpt lat="40.5176467" lon="8.7299455"><ele>436.0</ele><time>2026-04-30T11:14:25.724Z</time></trkpt><trkpt lat="40.5177422" lon="8.7298418"><ele>435.5</ele><time>2026-04-30T11:14:27.724Z</time></trkpt><trkpt lat="40.5178214" lon="8.7297827"><ele>435.0</ele><time>2026-04-30T11:14:28.723Z</time></trkpt><trkpt lat="40.5179278" lon="8.7296957"><ele>434.5</ele><time>2026-04-30T11:14:29.724Z</time></trkpt><trkpt lat="40.5180427" lon="8.7295905"><ele>434.0</ele><time>2026-04-30T11:14:30.723Z</time></trkpt><trkpt lat="40.5181412" lon="8.729496"><ele>434.0</ele><time>2026-04-30T11:14:31.721Z</time></trkpt><trkpt lat="40.5182482" lon="8.7293956"><ele>434.0</ele><time>2026-04-30T11:14:32.723Z</time></trkpt><trkpt lat="40.5183554" lon="8.7293004"><ele>434.0</ele><time>2026-04-30T11:14:33.724Z</time></trkpt><trkpt lat="40.5184605" lon="8.7292042"><ele>434.0</ele><time>2026-04-30T11:14:34.723Z</time></trkpt><trkpt lat="40.5185623" lon="8.7290987"><ele>433.25</ele><time>2026-04-30T11:14:35.722Z</time></trkpt><trkpt lat="40.5186674" lon="8.7289917"><ele>432.5</ele><time>2026-04-30T11:14:36.723Z</time></trkpt><trkpt lat="40.5187763" lon="8.728885"><ele>431.75</ele><time>2026-04-30T11:14:37.723Z</time></trkpt><trkpt lat="40.518891" lon="8.7287806"><ele>431.0</ele><time>2026-04-30T11:14:38.724Z</time></trkpt><trkpt lat="40.5190106" lon="8.7286763"><ele>431.3333333333333</ele><time>2026-04-30T11:14:39.724Z</time></trkpt><trkpt lat="40.519135" lon="8.7285646"><ele>431.66666666666663</ele><time>2026-04-30T11:14:40.725Z</time></trkpt><trkpt lat="40.5192643" lon="8.7284423"><ele>432.0</ele><time>2026-04-30T11:14:41.721Z</time></trkpt><trkpt lat="40.5194013" lon="8.7283114"><ele>432.0</ele><time>2026-04-30T11:14:42.723Z</time></trkpt><trkpt lat="40.5195395" lon="8.7281799"><ele>432.0</ele><time>2026-04-30T11:14:43.724Z</time></trkpt><trkpt lat="40.519668" lon="8.7280567"><ele>432.0</ele><time>2026-04-30T11:14:44.723Z</time></trkpt><trkpt lat="40.5197825" lon="8.7279512"><ele>432.75</ele><time>2026-04-30T11:14:45.724Z</time></trkpt><trkpt lat="40.5198893" lon="8.72785"><ele>433.5</ele><time>2026-04-30T11:14:46.723Z</time></trkpt><trkpt lat="40.5199905" lon="8.7277554"><ele>434.25</ele><time>2026-04-30T11:14:47.722Z</time></trkpt><trkpt lat="40.5200872" lon="8.7276644"><ele>435.0</ele><time>2026-04-30T11:14:48.721Z</time></trkpt><trkpt lat="40.5201782" lon="8.7275767"><ele>434.2</ele><time>2026-04-30T11:14:49.724Z</time></trkpt><trkpt lat="40.5202673" lon="8.72749"><ele>433.4</ele><time>2026-04-30T11:14:50.723Z</time></trkpt><trkpt lat="40.5203507" lon="8.7274065"><ele>432.6</ele><time>2026-04-30T11:14:51.724Z</time></trkpt><trkpt lat="40.5204322" lon="8.7273288"><ele>431.8</ele><time>2026-04-30T11:14:52.722Z</time></trkpt><trkpt lat="40.5205017" lon="8.7272621"><ele>431.0</ele><time>2026-04-30T11:14:53.724Z</time></trkpt><trkpt lat="40.5205616" lon="8.7272061"><ele>431.0</ele><time>2026-04-30T11:14:54.722Z</time></trkpt><trkpt lat="40.5206601" lon="8.727118"><ele>431.0</ele><time>2026-04-30T11:14:56.724Z</time></trkpt><trkpt lat="40.5207545" lon="8.7270372"><ele>431.0</ele><time>2026-04-30T11:14:58.722Z</time></trkpt><trkpt lat="40.5208089" lon="8.726986"><ele>431.0</ele><time>2026-04-30T11:14:59.722Z</time></trkpt><trkpt lat="40.5208784" lon="8.7269283"><ele>431.0</ele><time>2026-04-30T11:15:00.723Z</time></trkpt><trkpt lat="40.5209562" lon="8.726867"><ele>431.20000000000005</ele><time>2026-04-30T11:15:01.723Z</time></trkpt><trkpt lat="40.5210332" lon="8.7267901"><ele>431.40000000000003</ele><time>2026-04-30T11:15:02.724Z</time></trkpt><trkpt lat="40.5211257" lon="8.7267147"><ele>431.6</ele><time>2026-04-30T11:15:03.724Z</time></trkpt><trkpt lat="40.5212233" lon="8.7266357"><ele>431.8</ele><time>2026-04-30T11:15:04.724Z</time></trkpt><trkpt lat="40.5213227" lon="8.7265588"><ele>432.0</ele><time>2026-04-30T11:15:05.727Z</time></trkpt><trkpt lat="40.5214166" lon="8.7264949"><ele>432.0</ele><time>2026-04-30T11:15:06.726Z</time></trkpt><trkpt lat="40.5215046" lon="8.7264467"><ele>432.0</ele><time>2026-04-30T11:15:07.721Z</time></trkpt><trkpt lat="40.5215867" lon="8.7264086"><ele>432.0</ele><time>2026-04-30T11:15:08.722Z</time></trkpt><trkpt lat="40.521669" lon="8.7263782"><ele>432.0</ele><time>2026-04-30T11:15:09.724Z</time></trkpt><trkpt lat="40.5217501" lon="8.7263435"><ele>432.0</ele><time>2026-04-30T11:15:10.724Z</time></trkpt><trkpt lat="40.521834" lon="8.7263027"><ele>432.0</ele><time>2026-04-30T11:15:11.724Z</time></trkpt><trkpt lat="40.5219173" lon="8.7262522"><ele>432.0</ele><time>2026-04-30T11:15:12.722Z</time></trkpt><trkpt lat="40.521997" lon="8.726183"><ele>432.00000000000006</ele><time>2026-04-30T11:15:13.723Z</time></trkpt><trkpt lat="40.5220671" lon="8.7260909"><ele>432.00000000000006</ele><time>2026-04-30T11:15:14.722Z</time></trkpt><trkpt lat="40.5221271" lon="8.7259815"><ele>432.0</ele><time>2026-04-30T11:15:15.724Z</time></trkpt><trkpt lat="40.5221732" lon="8.7258551"><ele>432.0</ele><time>2026-04-30T11:15:16.723Z</time></trkpt><trkpt lat="40.5222071" lon="8.7257148"><ele>432.0</ele><time>2026-04-30T11:15:17.723Z</time></trkpt><trkpt lat="40.5222331" lon="8.7255627"><ele>432.0</ele><time>2026-04-30T11:15:18.723Z</time></trkpt><trkpt lat="40.522256" lon="8.7254027"><ele>432.0</ele><time>2026-04-30T11:15:19.723Z</time></trkpt><trkpt lat="40.5222793" lon="8.725232"><ele>432.0</ele><time>2026-04-30T11:15:20.725Z</time></trkpt><trkpt lat="40.5223041" lon="8.7250537"><ele>432.25</ele><time>2026-04-30T11:15:21.723Z</time></trkpt><trkpt lat="40.5223292" lon="8.7248659"><ele>432.5</ele><time>2026-04-30T11:15:22.722Z</time></trkpt><trkpt lat="40.5223558" lon="8.7246735"><ele>432.75</ele><time>2026-04-30T11:15:23.723Z</time></trkpt><trkpt lat="40.522384" lon="8.7244744"><ele>433.0</ele><time>2026-04-30T11:15:24.724Z</time></trkpt><trkpt lat="40.522417" lon="8.7242788"><ele>432.5</ele><time>2026-04-30T11:15:25.723Z</time></trkpt><trkpt lat="40.5224537" lon="8.7240957"><ele>432.0</ele><time>2026-04-30T11:15:26.721Z</time></trkpt><trkpt lat="40.5224981" lon="8.723916"><ele>431.5</ele><time>2026-04-30T11:15:27.722Z</time></trkpt><trkpt lat="40.5225443" lon="8.7237323"><ele>431.0</ele><time>2026-04-30T11:15:28.722Z</time></trkpt><trkpt lat="40.5225946" lon="8.7235427"><ele>431.0</ele><time>2026-04-30T11:15:29.723Z</time></trkpt><trkpt lat="40.5226497" lon="8.7233452"><ele>431.0</ele><time>2026-04-30T11:15:30.723Z</time></trkpt><trkpt lat="40.5227049" lon="8.7231406"><ele>431.0</ele><time>2026-04-30T11:15:31.723Z</time></trkpt><trkpt lat="40.5227634" lon="8.7229307"><ele>431.0</ele><time>2026-04-30T11:15:32.721Z</time></trkpt><trkpt lat="40.5228157" lon="8.7227338"><ele>431.0</ele><time>2026-04-30T11:15:33.721Z</time></trkpt><trkpt lat="40.5228665" lon="8.7225478"><ele>431.0</ele><time>2026-04-30T11:15:34.721Z</time></trkpt><trkpt lat="40.5229152" lon="8.7223649"><ele>431.5</ele><time>2026-04-30T11:15:35.722Z</time></trkpt><trkpt lat="40.5229612" lon="8.722198"><ele>432.0</ele><time>2026-04-30T11:15:36.722Z</time></trkpt><trkpt lat="40.5230023" lon="8.722044"><ele>432.5</ele><time>2026-04-30T11:15:37.722Z</time></trkpt><trkpt lat="40.52304" lon="8.7219087"><ele>433.0</ele><time>2026-04-30T11:15:38.723Z</time></trkpt><trkpt lat="40.5230743" lon="8.7217838"><ele>434.2</ele><time>2026-04-30T11:15:39.723Z</time></trkpt><trkpt lat="40.5231096" lon="8.7216685"><ele>435.4</ele><time>2026-04-30T11:15:40.721Z</time></trkpt><trkpt lat="40.523157" lon="8.7215643"><ele>436.59999999999997</ele><time>2026-04-30T11:15:41.722Z</time></trkpt><trkpt lat="40.5232191" lon="8.7214655"><ele>437.79999999999995</ele><time>2026-04-30T11:15:42.723Z</time></trkpt><trkpt lat="40.5232997" lon="8.7213788"><ele>439.0</ele><time>2026-04-30T11:15:43.724Z</time></trkpt><trkpt lat="40.5233988" lon="8.7213048"><ele>439.0</ele><time>2026-04-30T11:15:44.723Z</time></trkpt><trkpt lat="40.5235153" lon="8.7212399"><ele>439.0</ele><time>2026-04-30T11:15:45.723Z</time></trkpt><trkpt lat="40.5236433" lon="8.7211803"><ele>439.0</ele><time>2026-04-30T11:15:46.722Z</time></trkpt><trkpt lat="40.5237663" lon="8.7211171"><ele>439.0</ele><time>2026-04-30T11:15:47.722Z</time></trkpt><trkpt lat="40.523886" lon="8.7210504"><ele>441.2</ele><time>2026-04-30T11:15:48.722Z</time></trkpt><trkpt lat="40.524002" lon="8.720988"><ele>443.4</ele><time>2026-04-30T11:15:49.723Z</time></trkpt><trkpt lat="40.5241045" lon="8.7209389"><ele>445.6</ele><time>2026-04-30T11:15:50.722Z</time></trkpt><trkpt lat="40.5242014" lon="8.7208885"><ele>447.8</ele><time>2026-04-30T11:15:51.723Z</time></trkpt><trkpt lat="40.5242938" lon="8.7208377"><ele>450.0</ele><time>2026-04-30T11:15:52.722Z</time></trkpt><trkpt lat="40.5243798" lon="8.7207862"><ele>450.0</ele><time>2026-04-30T11:15:53.72Z</time></trkpt><trkpt lat="40.5244568" lon="8.7207387"><ele>450.0</ele><time>2026-04-30T11:15:54.722Z</time></trkpt><trkpt lat="40.5245132" lon="8.7206856"><ele>450.0</ele><time>2026-04-30T11:15:55.721Z</time></trkpt><trkpt lat="40.5245858" lon="8.7205805"><ele>450.0</ele><time>2026-04-30T11:15:57.724Z</time></trkpt><trkpt lat="40.5246417" lon="8.7204913"><ele>450.0</ele><time>2026-04-30T11:15:59.723Z</time></trkpt><trkpt lat="40.524703" lon="8.7204279"><ele>450.0</ele><time>2026-04-30T11:16:01.72Z</time></trkpt><trkpt lat="40.524771" lon="8.7203764"><ele>449.2</ele><time>2026-04-30T11:16:04.723Z</time></trkpt><trkpt lat="40.5248681" lon="8.7203571"><ele>448.4</ele><time>2026-04-30T11:16:19.731Z</time></trkpt><trkpt lat="40.5249744" lon="8.7203585"><ele>447.6</ele><time>2026-04-30T11:16:21.722Z</time></trkpt><trkpt lat="40.525063" lon="8.7203717"><ele>446.8</ele><time>2026-04-30T11:16:23.722Z</time></trkpt><trkpt lat="40.5251644" lon="8.7203933"><ele>446.0</ele><time>2026-04-30T11:16:25.722Z</time></trkpt><trkpt lat="40.5252746" lon="8.7204044"><ele>446.0</ele><time>2026-04-30T11:16:27.72Z</time></trkpt><trkpt lat="40.5253772" lon="8.7204162"><ele>446.0</ele><time>2026-04-30T11:16:29.725Z</time></trkpt><trkpt lat="40.5254585" lon="8.7204195"><ele>446.0</ele><time>2026-04-30T11:16:31.721Z</time></trkpt><trkpt lat="40.525526" lon="8.7204091"><ele>446.0</ele><time>2026-04-30T11:16:33.72Z</time></trkpt><trkpt lat="40.5256225" lon="8.7204001"><ele>446.0</ele><time>2026-04-30T11:16:35.729Z</time></trkpt><trkpt lat="40.5257272" lon="8.7203931"><ele>446.8333333333333</ele><time>2026-04-30T11:16:37.723Z</time></trkpt><trkpt lat="40.5258097" lon="8.7203867"><ele>447.66666666666663</ele><time>2026-04-30T11:16:39.723Z</time></trkpt><trkpt lat="40.5258824" lon="8.7203729"><ele>448.5</ele><time>2026-04-30T11:17:02.722Z</time></trkpt><trkpt lat="40.525951" lon="8.7203755"><ele>449.33333333333337</ele><time>2026-04-30T11:17:12.721Z</time></trkpt><trkpt lat="40.5260385" lon="8.7203697"><ele>450.1666666666667</ele><time>2026-04-30T11:17:15.723Z</time></trkpt><trkpt lat="40.5261196" lon="8.7203653"><ele>451.0</ele><time>2026-04-30T11:17:17.722Z</time></trkpt><trkpt lat="40.5262076" lon="8.7203531"><ele>450.83333333333337</ele><time>2026-04-30T11:17:19.721Z</time></trkpt><trkpt lat="40.526303" lon="8.7203468"><ele>450.6666666666667</ele><time>2026-04-30T11:17:21.723Z</time></trkpt><trkpt lat="40.5264111" lon="8.7203393"><ele>450.5</ele><time>2026-04-30T11:17:23.72Z</time></trkpt><trkpt lat="40.5264761" lon="8.7203379"><ele>450.33333333333337</ele><time>2026-04-30T11:17:24.721Z</time></trkpt><trkpt lat="40.5265469" lon="8.720337"><ele>450.1666666666667</ele><time>2026-04-30T11:17:25.719Z</time></trkpt><trkpt lat="40.5266163" lon="8.7203279"><ele>450.0</ele><time>2026-04-30T11:17:26.721Z</time></trkpt><trkpt lat="40.5266839" lon="8.7203238"><ele>450.00000000000006</ele><time>2026-04-30T11:17:27.729Z</time></trkpt><trkpt lat="40.5267496" lon="8.7203202"><ele>450.0</ele><time>2026-04-30T11:17:28.724Z</time></trkpt><trkpt lat="40.5268128" lon="8.7203147"><ele>450.00000000000006</ele><time>2026-04-30T11:17:29.721Z</time></trkpt><trkpt lat="40.5268783" lon="8.7203066"><ele>450.00000000000006</ele><time>2026-04-30T11:17:30.72Z</time></trkpt><trkpt lat="40.52695" lon="8.7203005"><ele>450.0</ele><time>2026-04-30T11:17:31.72Z</time></trkpt><trkpt lat="40.5270264" lon="8.7202933"><ele>450.00000000000006</ele><time>2026-04-30T11:17:32.721Z</time></trkpt><trkpt lat="40.5271095" lon="8.7202942"><ele>450.00000000000006</ele><time>2026-04-30T11:17:33.72Z</time></trkpt><trkpt lat="40.527194" lon="8.7202893"><ele>450.00000000000006</ele><time>2026-04-30T11:17:34.724Z</time></trkpt><trkpt lat="40.5272774" lon="8.7202926"><ele>450.0</ele><time>2026-04-30T11:17:35.722Z</time></trkpt><trkpt lat="40.527352" lon="8.7202893"><ele>450.00000000000006</ele><time>2026-04-30T11:17:36.721Z</time></trkpt><trkpt lat="40.5274228" lon="8.7202863"><ele>450.00000000000006</ele><time>2026-04-30T11:17:37.721Z</time></trkpt><trkpt lat="40.5274936" lon="8.7202813"><ele>450.0</ele><time>2026-04-30T11:17:38.723Z</time></trkpt><trkpt lat="40.5275662" lon="8.7202792"><ele>450.00000000000006</ele><time>2026-04-30T11:17:39.724Z</time></trkpt><trkpt lat="40.5276413" lon="8.7202727"><ele>450.00000000000006</ele><time>2026-04-30T11:17:40.724Z</time></trkpt><trkpt lat="40.5277176" lon="8.7202666"><ele>450.0</ele><time>2026-04-30T11:17:41.724Z</time></trkpt><trkpt lat="40.5277963" lon="8.7202593"><ele>450.0</ele><time>2026-04-30T11:17:42.722Z</time></trkpt><trkpt lat="40.5278784" lon="8.7202524"><ele>450.0</ele><time>2026-04-30T11:17:43.721Z</time></trkpt><trkpt lat="40.5279655" lon="8.7202463"><ele>450.0</ele><time>2026-04-30T11:17:44.721Z</time></trkpt><trkpt lat="40.5280567" lon="8.7202416"><ele>450.0</ele><time>2026-04-30T11:17:45.72Z</time></trkpt><trkpt lat="40.5281522" lon="8.7202353"><ele>450.0</ele><time>2026-04-30T11:17:46.722Z</time></trkpt><trkpt lat="40.5282536" lon="8.7202287"><ele>451.0</ele><time>2026-04-30T11:17:47.723Z</time></trkpt><trkpt lat="40.5283599" lon="8.7202166"><ele>452.0</ele><time>2026-04-30T11:17:48.721Z</time></trkpt><trkpt lat="40.5284764" lon="8.7202136"><ele>453.0</ele><time>2026-04-30T11:17:49.722Z</time></trkpt><trkpt lat="40.5285878" lon="8.7202047"><ele>454.0</ele><time>2026-04-30T11:17:50.72Z</time></trkpt><trkpt lat="40.5286935" lon="8.7201979"><ele>455.0</ele><time>2026-04-30T11:17:51.721Z</time></trkpt><trkpt lat="40.528799" lon="8.7201926"><ele>455.0</ele><time>2026-04-30T11:17:52.721Z</time></trkpt><trkpt lat="40.5289" lon="8.7201896"><ele>455.0</ele><time>2026-04-30T11:17:53.723Z</time></trkpt><trkpt lat="40.5289993" lon="8.720189"><ele>455.0</ele><time>2026-04-30T11:17:54.722Z</time></trkpt><trkpt lat="40.5290963" lon="8.7201853"><ele>455.0</ele><time>2026-04-30T11:17:55.722Z</time></trkpt><trkpt lat="40.5291885" lon="8.7201822"><ele>455.0</ele><time>2026-04-30T11:17:56.721Z</time></trkpt><trkpt lat="40.5292729" lon="8.7201787"><ele>454.99999999999994</ele><time>2026-04-30T11:17:57.72Z</time></trkpt><trkpt lat="40.5293519" lon="8.7201779"><ele>455.0</ele><time>2026-04-30T11:17:58.723Z</time></trkpt><trkpt lat="40.5294212" lon="8.7201753"><ele>455.0</ele><time>2026-04-30T11:17:59.722Z</time></trkpt><trkpt lat="40.5294847" lon="8.7201728"><ele>455.0</ele><time>2026-04-30T11:18:00.723Z</time></trkpt><trkpt lat="40.5295947" lon="8.720172"><ele>454.99999999999994</ele><time>2026-04-30T11:18:02.723Z</time></trkpt><trkpt lat="40.5296957" lon="8.7201909"><ele>455.0</ele><time>2026-04-30T11:18:04.719Z</time></trkpt><trkpt lat="40.5297667" lon="8.7201965"><ele>454.16666666666663</ele><time>2026-04-30T11:18:06.723Z</time></trkpt><trkpt lat="40.5298396" lon="8.7201988"><ele>453.3333333333333</ele><time>2026-04-30T11:18:09.721Z</time></trkpt><trkpt lat="40.5299133" lon="8.720217"><ele>452.5</ele><time>2026-04-30T11:18:24.723Z</time></trkpt><trkpt lat="40.529986" lon="8.7202525"><ele>451.66666666666663</ele><time>2026-04-30T11:18:26.726Z</time></trkpt><trkpt lat="40.5300514" lon="8.720289"><ele>450.8333333333333</ele><time>2026-04-30T11:18:28.723Z</time></trkpt><trkpt lat="40.5301213" lon="8.7203336"><ele>450.0</ele><time>2026-04-30T11:18:30.722Z</time></trkpt><trkpt lat="40.5301921" lon="8.7203892"><ele>449.8</ele><time>2026-04-30T11:18:32.724Z</time></trkpt><trkpt lat="40.5302554" lon="8.7204447"><ele>449.6</ele><time>2026-04-30T11:18:34.725Z</time></trkpt><trkpt lat="40.5303203" lon="8.7205156"><ele>449.4</ele><time>2026-04-30T11:18:37.722Z</time></trkpt><trkpt lat="40.5304217" lon="8.7205623"><ele>449.2</ele><time>2026-04-30T11:19:55.715Z</time></trkpt><trkpt lat="40.5304912" lon="8.7205967"><ele>449.0</ele><time>2026-04-30T11:19:56.715Z</time></trkpt><trkpt lat="40.530592" lon="8.720653"><ele>448.99999999999994</ele><time>2026-04-30T11:19:58.715Z</time></trkpt><trkpt lat="40.5306617" lon="8.7207"><ele>449.0</ele><time>2026-04-30T11:20:00.715Z</time></trkpt><trkpt lat="40.5307289" lon="8.7207097"><ele>449.0</ele><time>2026-04-30T11:20:02.714Z</time></trkpt><trkpt lat="40.5308057" lon="8.7206651"><ele>449.0</ele><time>2026-04-30T11:20:04.715Z</time></trkpt><trkpt lat="40.5308721" lon="8.7205999"><ele>448.99999999999994</ele><time>2026-04-30T11:20:06.715Z</time></trkpt><trkpt lat="40.5309258" lon="8.7205358"><ele>449.0</ele><time>2026-04-30T11:20:09.715Z</time></trkpt><trkpt lat="40.5309849" lon="8.7204732"><ele>449.0</ele><time>2026-04-30T11:20:12.715Z</time></trkpt><trkpt lat="40.5310474" lon="8.7204064"><ele>448.99999999999994</ele><time>2026-04-30T11:20:14.715Z</time></trkpt><trkpt lat="40.5310496" lon="8.7204956"><ele>449.0</ele><time>2026-04-30T11:22:44.715Z</time></trkpt><trkpt lat="40.5309959" lon="8.7205563"><ele>449.0</ele><time>2026-04-30T11:22:52.715Z</time></trkpt><trkpt lat="40.5309521" lon="8.7206239"><ele>448.99999999999994</ele><time>2026-04-30T11:22:59.715Z</time></trkpt><trkpt lat="40.5309424" lon="8.7207174"><ele>449.0</ele><time>2026-04-30T11:23:06.715Z</time></trkpt><trkpt lat="40.5309496" lon="8.7208052"><ele>449.0</ele><time>2026-04-30T11:23:16.715Z</time></trkpt><trkpt lat="40.5309995" lon="8.7208562"><ele>449.0</ele><time>2026-04-30T11:23:27.715Z</time></trkpt><trkpt lat="40.5310199" lon="8.7209355"><ele>449.0</ele><time>2026-04-30T11:23:34.715Z</time></trkpt><trkpt lat="40.5310306" lon="8.7210247"><ele>449.0</ele><time>2026-04-30T11:23:44.597Z</time></trkpt><trkpt lat="40.5310968" lon="8.7210447"><ele>449.0</ele><time>2026-04-30T11:24:01.715Z</time></trkpt><trkpt lat="40.5311061" lon="8.7211306"><ele>450.0</ele><time>2026-04-30T11:24:08.715Z</time></trkpt></trkseg><trkseg><trkpt lat="40.5310788" lon="8.7210873"><ele>450.00000000000006</ele><time>2026-04-30T12:48:53.702Z</time></trkpt><trkpt lat="40.5310617" lon="8.7211691"><ele>450.0</ele><time>2026-04-30T12:49:50.703Z</time></trkpt><trkpt lat="40.531069" lon="8.721074"><ele>450.00000000000006</ele><time>2026-04-30T12:50:49.502Z</time></trkpt><trkpt lat="40.5310154" lon="8.72103"><ele>450.00000000000006</ele><time>2026-04-30T12:51:57.286Z</time></trkpt><trkpt lat="40.5309976" lon="8.7209427"><ele>450.0</ele><time>2026-04-30T12:52:05.506Z</time></trkpt><trkpt lat="40.531027" lon="8.7208564"><ele>450.00000000000006</ele><time>2026-04-30T12:52:12.222Z</time></trkpt><trkpt lat="40.5309813" lon="8.7207884"><ele>450.00000000000006</ele><time>2026-04-30T12:52:19.702Z</time></trkpt><trkpt lat="40.5309466" lon="8.7207098"><ele>449.8333333333333</ele><time>2026-04-30T12:52:27.706Z</time></trkpt><trkpt lat="40.5309764" lon="8.7206331"><ele>449.66666666666663</ele><time>2026-04-30T12:52:35.649Z</time></trkpt><trkpt lat="40.5309982" lon="8.7205491"><ele>449.5</ele><time>2026-04-30T12:52:42.702Z</time></trkpt><trkpt lat="40.5310209" lon="8.7204641"><ele>449.3333333333333</ele><time>2026-04-30T12:52:50.702Z</time></trkpt><trkpt lat="40.5310812" lon="8.7204245"><ele>449.16666666666663</ele><time>2026-04-30T12:52:57.664Z</time></trkpt><trkpt lat="40.5311722" lon="8.720403"><ele>449.0</ele><time>2026-04-30T12:59:33.706Z</time></trkpt><trkpt lat="40.5312581" lon="8.7203355"><ele>449.3333333333333</ele><time>2026-04-30T12:59:35.706Z</time></trkpt><trkpt lat="40.5313297" lon="8.7202914"><ele>449.66666666666663</ele><time>2026-04-30T12:59:37.706Z</time></trkpt><trkpt lat="40.531403" lon="8.7202341"><ele>450.0</ele><time>2026-04-30T12:59:40.706Z</time></trkpt><trkpt lat="40.5314513" lon="8.7201592"><ele>450.33333333333337</ele><time>2026-04-30T12:59:43.706Z</time></trkpt><trkpt lat="40.531405" lon="8.7201008"><ele>450.6666666666667</ele><time>2026-04-30T12:59:55.706Z</time></trkpt><trkpt lat="40.5313277" lon="8.7201545"><ele>451.0</ele><time>2026-04-30T13:00:00.706Z</time></trkpt><trkpt lat="40.5312599" lon="8.7202294"><ele>450.71428571428567</ele><time>2026-04-30T13:00:03.705Z</time></trkpt><trkpt lat="40.5312068" lon="8.7202744"><ele>450.42857142857144</ele><time>2026-04-30T13:00:05.706Z</time></trkpt><trkpt lat="40.5311566" lon="8.720325"><ele>450.1428571428571</ele><time>2026-04-30T13:00:07.706Z</time></trkpt><trkpt lat="40.5310919" lon="8.7203775"><ele>449.85714285714283</ele><time>2026-04-30T13:00:10.706Z</time></trkpt><trkpt lat="40.5310233" lon="8.7204445"><ele>449.57142857142856</ele><time>2026-04-30T13:00:34.706Z</time></trkpt><trkpt lat="40.5309737" lon="8.7205318"><ele>449.2857142857143</ele><time>2026-04-30T13:00:37.706Z</time></trkpt><trkpt lat="40.5309186" lon="8.7205738"><ele>449.0</ele><time>2026-04-30T13:00:39.706Z</time></trkpt><trkpt lat="40.530849" lon="8.7205999"><ele>448.99999999999994</ele><time>2026-04-30T13:00:42.706Z</time></trkpt><trkpt lat="40.5307722" lon="8.7206966"><ele>449.0</ele><time>2026-04-30T13:02:33.705Z</time></trkpt><trkpt lat="40.530712" lon="8.7208055"><ele>449.0</ele><time>2026-04-30T13:02:35.706Z</time></trkpt><trkpt lat="40.5306614" lon="8.7208868"><ele>449.0</ele><time>2026-04-30T13:02:37.705Z</time></trkpt><trkpt lat="40.5306138" lon="8.7209443"><ele>448.99999999999994</ele><time>2026-04-30T13:02:39.706Z</time></trkpt><trkpt lat="40.5305599" lon="8.7209883"><ele>449.0</ele><time>2026-04-30T13:02:41.706Z</time></trkpt><trkpt lat="40.5304754" lon="8.7210089"><ele>449.0</ele><time>2026-04-30T13:02:44.705Z</time></trkpt><trkpt lat="40.5304084" lon="8.7209755"><ele>449.0</ele><time>2026-04-30T13:03:00.706Z</time></trkpt><trkpt lat="40.5303396" lon="8.7209607"><ele>449.0</ele><time>2026-04-30T13:03:02.706Z</time></trkpt><trkpt lat="40.5302514" lon="8.7209837"><ele>449.0</ele><time>2026-04-30T13:03:04.706Z</time></trkpt><trkpt lat="40.5301557" lon="8.7210557"><ele>449.0</ele><time>2026-04-30T13:03:06.706Z</time></trkpt><trkpt lat="40.5300579" lon="8.7211411"><ele>449.2</ele><time>2026-04-30T13:03:08.706Z</time></trkpt><trkpt lat="40.529979" lon="8.7212529"><ele>449.4</ele><time>2026-04-30T13:03:10.706Z</time></trkpt><trkpt lat="40.5299007" lon="8.721395"><ele>449.6</ele><time>2026-04-30T13:03:12.706Z</time></trkpt><trkpt lat="40.5298558" lon="8.7214752"><ele>449.8</ele><time>2026-04-30T13:03:13.706Z</time></trkpt><trkpt lat="40.5298132" lon="8.7215533"><ele>450.0</ele><time>2026-04-30T13:03:14.706Z</time></trkpt><trkpt lat="40.529775" lon="8.7216209"><ele>450.0</ele><time>2026-04-30T13:03:15.706Z</time></trkpt><trkpt lat="40.5296987" lon="8.7217535"><ele>450.0</ele><time>2026-04-30T13:03:17.706Z</time></trkpt><trkpt lat="40.5296548" lon="8.7218253"><ele>450.0</ele><time>2026-04-30T13:03:18.706Z</time></trkpt><trkpt lat="40.5295999" lon="8.7219003"><ele>450.0</ele><time>2026-04-30T13:03:19.706Z</time></trkpt><trkpt lat="40.5295353" lon="8.7219715"><ele>450.0</ele><time>2026-04-30T13:03:20.706Z</time></trkpt><trkpt lat="40.5294638" lon="8.7220365"><ele>450.0</ele><time>2026-04-30T13:03:21.706Z</time></trkpt><trkpt lat="40.529389" lon="8.7220814"><ele>450.5</ele><time>2026-04-30T13:03:22.706Z</time></trkpt><trkpt lat="40.5293134" lon="8.7221081"><ele>451.0</ele><time>2026-04-30T13:03:23.705Z</time></trkpt><trkpt lat="40.5292367" lon="8.7221195"><ele>451.5</ele><time>2026-04-30T13:03:24.706Z</time></trkpt><trkpt lat="40.5291544" lon="8.7221238"><ele>452.0</ele><time>2026-04-30T13:03:25.706Z</time></trkpt><trkpt lat="40.5290674" lon="8.7221234"><ele>452.5</ele><time>2026-04-30T13:03:26.705Z</time></trkpt><trkpt lat="40.5289701" lon="8.722116"><ele>453.0</ele><time>2026-04-30T13:03:27.706Z</time></trkpt><trkpt lat="40.5288663" lon="8.7221089"><ele>453.0</ele><time>2026-04-30T13:03:28.706Z</time></trkpt><trkpt lat="40.5287583" lon="8.7221015"><ele>453.0</ele><time>2026-04-30T13:03:29.706Z</time></trkpt><trkpt lat="40.5286469" lon="8.7220935"><ele>453.0</ele><time>2026-04-30T13:03:30.706Z</time></trkpt><trkpt lat="40.5285278" lon="8.7220845"><ele>453.0</ele><time>2026-04-30T13:03:31.706Z</time></trkpt><trkpt lat="40.5284038" lon="8.7220734"><ele>452.25</ele><time>2026-04-30T13:03:32.706Z</time></trkpt><trkpt lat="40.5282827" lon="8.7220647"><ele>451.5</ele><time>2026-04-30T13:03:33.706Z</time></trkpt><trkpt lat="40.5281542" lon="8.7220565"><ele>450.75</ele><time>2026-04-30T13:03:34.706Z</time></trkpt><trkpt lat="40.5280245" lon="8.722048"><ele>450.0</ele><time>2026-04-30T13:03:35.706Z</time></trkpt><trkpt lat="40.5278981" lon="8.7220472"><ele>449.75</ele><time>2026-04-30T13:03:36.706Z</time></trkpt><trkpt lat="40.5277801" lon="8.7220581"><ele>449.5</ele><time>2026-04-30T13:03:37.706Z</time></trkpt><trkpt lat="40.5276636" lon="8.7220856"><ele>449.25</ele><time>2026-04-30T13:03:38.706Z</time></trkpt><trkpt lat="40.5275556" lon="8.7221264"><ele>449.0</ele><time>2026-04-30T13:03:39.706Z</time></trkpt><trkpt lat="40.5274611" lon="8.7221726"><ele>448.99999999999994</ele><time>2026-04-30T13:03:40.706Z</time></trkpt><trkpt lat="40.5273806" lon="8.7222144"><ele>449.0</ele><time>2026-04-30T13:03:41.706Z</time></trkpt><trkpt lat="40.5273131" lon="8.7222553"><ele>449.0</ele><time>2026-04-30T13:03:42.706Z</time></trkpt><trkpt lat="40.5272529" lon="8.7222953"><ele>449.0</ele><time>2026-04-30T13:03:43.706Z</time></trkpt><trkpt lat="40.5271914" lon="8.722337"><ele>448.99999999999994</ele><time>2026-04-30T13:03:44.706Z</time></trkpt><trkpt lat="40.5271188" lon="8.7223848"><ele>449.0</ele><time>2026-04-30T13:03:45.706Z</time></trkpt><trkpt lat="40.5270372" lon="8.7224426"><ele>447.25</ele><time>2026-04-30T13:03:46.706Z</time></trkpt><trkpt lat="40.5269466" lon="8.7225062"><ele>445.5</ele><time>2026-04-30T13:03:47.706Z</time></trkpt><trkpt lat="40.5268463" lon="8.7225741"><ele>443.75</ele><time>2026-04-30T13:03:48.706Z</time></trkpt><trkpt lat="40.5267379" lon="8.7226477"><ele>442.0</ele><time>2026-04-30T13:03:49.706Z</time></trkpt><trkpt lat="40.5266225" lon="8.722727"><ele>442.25</ele><time>2026-04-30T13:03:50.706Z</time></trkpt><trkpt lat="40.5264991" lon="8.7228123"><ele>442.5</ele><time>2026-04-30T13:03:51.706Z</time></trkpt><trkpt lat="40.5263698" lon="8.7229047"><ele>442.75</ele><time>2026-04-30T13:03:52.705Z</time></trkpt><trkpt lat="40.5262331" lon="8.7229997"><ele>443.0</ele><time>2026-04-30T13:03:53.706Z</time></trkpt><trkpt lat="40.5260891" lon="8.7230887"><ele>442.3333333333333</ele><time>2026-04-30T13:03:54.706Z</time></trkpt><trkpt lat="40.5259385" lon="8.7231669"><ele>441.66666666666663</ele><time>2026-04-30T13:03:55.706Z</time></trkpt><trkpt lat="40.5257817" lon="8.7232368"><ele>441.0</ele><time>2026-04-30T13:03:56.706Z</time></trkpt><trkpt lat="40.5256221" lon="8.7233018"><ele>441.0</ele><time>2026-04-30T13:03:57.706Z</time></trkpt><trkpt lat="40.5254712" lon="8.7233636"><ele>441.0</ele><time>2026-04-30T13:03:58.706Z</time></trkpt><trkpt lat="40.5253255" lon="8.7234222"><ele>441.0</ele><time>2026-04-30T13:03:59.706Z</time></trkpt><trkpt lat="40.5251837" lon="8.7234775"><ele>440.75</ele><time>2026-04-30T13:04:00.706Z</time></trkpt><trkpt lat="40.5250486" lon="8.7235319"><ele>440.5</ele><time>2026-04-30T13:04:01.705Z</time></trkpt><trkpt lat="40.5249122" lon="8.7235915"><ele>440.25</ele><time>2026-04-30T13:04:02.706Z</time></trkpt><trkpt lat="40.5247751" lon="8.7236563"><ele>440.0</ele><time>2026-04-30T13:04:03.706Z</time></trkpt><trkpt lat="40.5246367" lon="8.7237308"><ele>439.5</ele><time>2026-04-30T13:04:04.706Z</time></trkpt><trkpt lat="40.5245013" lon="8.7238143"><ele>439.0</ele><time>2026-04-30T13:04:05.705Z</time></trkpt><trkpt lat="40.524379" lon="8.7238959"><ele>438.5</ele><time>2026-04-30T13:04:06.705Z</time></trkpt><trkpt lat="40.5242754" lon="8.7239624"><ele>438.0</ele><time>2026-04-30T13:04:07.706Z</time></trkpt><trkpt lat="40.5241883" lon="8.7240175"><ele>438.0</ele><time>2026-04-30T13:04:08.706Z</time></trkpt><trkpt lat="40.5241113" lon="8.7240601"><ele>438.0</ele><time>2026-04-30T13:04:09.706Z</time></trkpt><trkpt lat="40.5240433" lon="8.7240933"><ele>438.0</ele><time>2026-04-30T13:04:10.706Z</time></trkpt><trkpt lat="40.5239768" lon="8.7241296"><ele>438.0</ele><time>2026-04-30T13:04:11.706Z</time></trkpt><trkpt lat="40.5239041" lon="8.7241724"><ele>438.0</ele><time>2026-04-30T13:04:12.706Z</time></trkpt><trkpt lat="40.5238276" lon="8.7242324"><ele>438.0</ele><time>2026-04-30T13:04:13.706Z</time></trkpt><trkpt lat="40.523751" lon="8.7243055"><ele>437.75</ele><time>2026-04-30T13:04:14.706Z</time></trkpt><trkpt lat="40.5236721" lon="8.7244007"><ele>437.5</ele><time>2026-04-30T13:04:15.706Z</time></trkpt><trkpt lat="40.5235889" lon="8.7245078"><ele>437.25</ele><time>2026-04-30T13:04:16.706Z</time></trkpt><trkpt lat="40.5234988" lon="8.7246236"><ele>437.0</ele><time>2026-04-30T13:04:17.706Z</time></trkpt><trkpt lat="40.5234101" lon="8.7247486"><ele>437.0</ele><time>2026-04-30T13:04:18.706Z</time></trkpt><trkpt lat="40.5233201" lon="8.7248768"><ele>437.0</ele><time>2026-04-30T13:04:19.705Z</time></trkpt><trkpt lat="40.5232288" lon="8.7250077"><ele>437.0</ele><time>2026-04-30T13:04:20.705Z</time></trkpt><trkpt lat="40.5231429" lon="8.7251373"><ele>437.0</ele><time>2026-04-30T13:04:21.706Z</time></trkpt><trkpt lat="40.5230641" lon="8.7252566"><ele>437.25</ele><time>2026-04-30T13:04:22.705Z</time></trkpt><trkpt lat="40.5229851" lon="8.7253689"><ele>437.5</ele><time>2026-04-30T13:04:23.706Z</time></trkpt><trkpt lat="40.5229095" lon="8.7254799"><ele>437.75</ele><time>2026-04-30T13:04:24.706Z</time></trkpt><trkpt lat="40.5228347" lon="8.7255902"><ele>438.0</ele><time>2026-04-30T13:04:25.706Z</time></trkpt><trkpt lat="40.522763" lon="8.725697"><ele>437.0</ele><time>2026-04-30T13:04:26.706Z</time></trkpt><trkpt lat="40.5226909" lon="8.7257983"><ele>436.0</ele><time>2026-04-30T13:04:27.705Z</time></trkpt><trkpt lat="40.5226223" lon="8.7258897"><ele>435.0</ele><time>2026-04-30T13:04:28.706Z</time></trkpt><trkpt lat="40.5225497" lon="8.725962"><ele>434.0</ele><time>2026-04-30T13:04:29.706Z</time></trkpt><trkpt lat="40.522478" lon="8.7260051"><ele>433.0</ele><time>2026-04-30T13:04:30.706Z</time></trkpt><trkpt lat="40.5224086" lon="8.7260161"><ele>432.0</ele><time>2026-04-30T13:04:31.706Z</time></trkpt><trkpt lat="40.5223431" lon="8.7260084"><ele>432.0</ele><time>2026-04-30T13:04:32.706Z</time></trkpt><trkpt lat="40.5222504" lon="8.725969"><ele>432.00000000000006</ele><time>2026-04-30T13:04:34.706Z</time></trkpt><trkpt lat="40.5221623" lon="8.7259785"><ele>432.00000000000006</ele><time>2026-04-30T13:04:36.705Z</time></trkpt><trkpt lat="40.522044" lon="8.7260837"><ele>432.0</ele><time>2026-04-30T13:04:38.705Z</time></trkpt><trkpt lat="40.521967" lon="8.7261579"><ele>432.0</ele><time>2026-04-30T13:04:39.706Z</time></trkpt><trkpt lat="40.5218712" lon="8.7262271"><ele>432.0</ele><time>2026-04-30T13:04:40.706Z</time></trkpt><trkpt lat="40.5217593" lon="8.7262872"><ele>432.0</ele><time>2026-04-30T13:04:41.706Z</time></trkpt><trkpt lat="40.5216365" lon="8.726342"><ele>432.0</ele><time>2026-04-30T13:04:42.706Z</time></trkpt><trkpt lat="40.5215084" lon="8.7264021"><ele>432.0</ele><time>2026-04-30T13:04:43.706Z</time></trkpt><trkpt lat="40.5213778" lon="8.726478"><ele>432.0</ele><time>2026-04-30T13:04:44.706Z</time></trkpt><trkpt lat="40.5212515" lon="8.7265664"><ele>432.0</ele><time>2026-04-30T13:04:45.705Z</time></trkpt><trkpt lat="40.5211283" lon="8.7266679"><ele>432.0</ele><time>2026-04-30T13:04:46.706Z</time></trkpt><trkpt lat="40.5210079" lon="8.7267748"><ele>432.0</ele><time>2026-04-30T13:04:47.705Z</time></trkpt><trkpt lat="40.5208932" lon="8.7268814"><ele>431.75</ele><time>2026-04-30T13:04:48.705Z</time></trkpt><trkpt lat="40.5207821" lon="8.7269853"><ele>431.5</ele><time>2026-04-30T13:04:49.705Z</time></trkpt><trkpt lat="40.5206789" lon="8.727082"><ele>431.25</ele><time>2026-04-30T13:04:50.706Z</time></trkpt><trkpt lat="40.520586" lon="8.7271697"><ele>431.0</ele><time>2026-04-30T13:04:51.706Z</time></trkpt><trkpt lat="40.5205024" lon="8.7272491"><ele>430.99999999999994</ele><time>2026-04-30T13:04:52.706Z</time></trkpt><trkpt lat="40.5204259" lon="8.7273219"><ele>431.0</ele><time>2026-04-30T13:04:53.705Z</time></trkpt><trkpt lat="40.5203605" lon="8.727382"><ele>431.0</ele><time>2026-04-30T13:04:54.706Z</time></trkpt><trkpt lat="40.5203052" lon="8.7274347"><ele>431.0</ele><time>2026-04-30T13:04:55.706Z</time></trkpt><trkpt lat="40.5202273" lon="8.7275165"><ele>430.99999999999994</ele><time>2026-04-30T13:04:57.706Z</time></trkpt><trkpt lat="40.5201928" lon="8.7276001"><ele>431.0</ele><time>2026-04-30T13:04:59.706Z</time></trkpt><trkpt lat="40.5202341" lon="8.7277012"><ele>430.99999999999994</ele><time>2026-04-30T13:05:02.706Z</time></trkpt><trkpt lat="40.520323" lon="8.7276994"><ele>431.0</ele><time>2026-04-30T13:05:05.706Z</time></trkpt><trkpt lat="40.5203784" lon="8.7276423"><ele>431.0</ele><time>2026-04-30T13:12:06.705Z</time></trkpt><trkpt lat="40.5203826" lon="8.7275532"><ele>431.0</ele><time>2026-04-30T13:12:09.706Z</time></trkpt><trkpt lat="40.5203783" lon="8.7274645"><ele>430.99999999999994</ele><time>2026-04-30T13:13:57.706Z</time></trkpt><trkpt lat="40.5204376" lon="8.7273638"><ele>431.0</ele><time>2026-04-30T13:13:59.706Z</time></trkpt><trkpt lat="40.5205453" lon="8.7272661"><ele>430.99999999999994</ele><time>2026-04-30T13:14:01.705Z</time></trkpt><trkpt lat="40.5206103" lon="8.7272093"><ele>431.0</ele><time>2026-04-30T13:14:02.706Z</time></trkpt><trkpt lat="40.5206782" lon="8.7271464"><ele>431.0</ele><time>2026-04-30T13:14:03.706Z</time></trkpt><trkpt lat="40.5207508" lon="8.7270764"><ele>431.0</ele><time>2026-04-30T13:14:04.706Z</time></trkpt><trkpt lat="40.520827" lon="8.727005"><ele>430.99999999999994</ele><time>2026-04-30T13:14:05.705Z</time></trkpt><trkpt lat="40.5209067" lon="8.7269284"><ele>431.0</ele><time>2026-04-30T13:14:06.706Z</time></trkpt><trkpt lat="40.5209888" lon="8.7268491"><ele>431.25</ele><time>2026-04-30T13:14:07.706Z</time></trkpt><trkpt lat="40.5210769" lon="8.7267678"><ele>431.5</ele><time>2026-04-30T13:14:08.706Z</time></trkpt><trkpt lat="40.5211717" lon="8.7266893"><ele>431.75</ele><time>2026-04-30T13:14:09.706Z</time></trkpt><trkpt lat="40.5212733" lon="8.7266129"><ele>432.0</ele><time>2026-04-30T13:14:10.706Z</time></trkpt><trkpt lat="40.5213792" lon="8.7265389"><ele>432.0</ele><time>2026-04-30T13:14:11.706Z</time></trkpt><trkpt lat="40.521487" lon="8.7264765"><ele>432.00000000000006</ele><time>2026-04-30T13:14:12.705Z</time></trkpt><trkpt lat="40.5215887" lon="8.7264281"><ele>432.00000000000006</ele><time>2026-04-30T13:14:13.706Z</time></trkpt><trkpt lat="40.5216877" lon="8.7263911"><ele>432.0</ele><time>2026-04-30T13:14:14.706Z</time></trkpt><trkpt lat="40.5217807" lon="8.7263559"><ele>432.0</ele><time>2026-04-30T13:14:15.706Z</time></trkpt><trkpt lat="40.5218628" lon="8.7263134"><ele>432.0</ele><time>2026-04-30T13:14:16.706Z</time></trkpt><trkpt lat="40.5219437" lon="8.7262539"><ele>432.00000000000006</ele><time>2026-04-30T13:14:17.706Z</time></trkpt><trkpt lat="40.5220163" lon="8.7261755"><ele>432.00000000000006</ele><time>2026-04-30T13:14:18.706Z</time></trkpt><trkpt lat="40.5220824" lon="8.7260801"><ele>432.0</ele><time>2026-04-30T13:14:19.706Z</time></trkpt><trkpt lat="40.5221379" lon="8.725966"><ele>432.0</ele><time>2026-04-30T13:14:20.706Z</time></trkpt><trkpt lat="40.5221811" lon="8.7258359"><ele>432.0</ele><time>2026-04-30T13:14:21.706Z</time></trkpt><trkpt lat="40.5222122" lon="8.7256934"><ele>432.0</ele><time>2026-04-30T13:14:22.706Z</time></trkpt><trkpt lat="40.522234" lon="8.7255414"><ele>432.0</ele><time>2026-04-30T13:14:23.706Z</time></trkpt><trkpt lat="40.5222522" lon="8.7253838"><ele>432.0</ele><time>2026-04-30T13:14:24.706Z</time></trkpt><trkpt lat="40.5222721" lon="8.7252238"><ele>432.25</ele><time>2026-04-30T13:14:25.706Z</time></trkpt><trkpt lat="40.5222932" lon="8.7250603"><ele>432.5</ele><time>2026-04-30T13:14:26.706Z</time></trkpt><trkpt lat="40.5223172" lon="8.7248939"><ele>432.75</ele><time>2026-04-30T13:14:27.706Z</time></trkpt><trkpt lat="40.522343" lon="8.7247262"><ele>433.0</ele><time>2026-04-30T13:14:28.706Z</time></trkpt><trkpt lat="40.5223684" lon="8.7245541"><ele>432.5</ele><time>2026-04-30T13:14:29.706Z</time></trkpt><trkpt lat="40.5223943" lon="8.7243795"><ele>432.0</ele><time>2026-04-30T13:14:30.705Z</time></trkpt><trkpt lat="40.5224269" lon="8.7242046"><ele>431.5</ele><time>2026-04-30T13:14:31.706Z</time></trkpt><trkpt lat="40.5224658" lon="8.7240334"><ele>431.0</ele><time>2026-04-30T13:14:32.706Z</time></trkpt><trkpt lat="40.522505" lon="8.7238731"><ele>431.0</ele><time>2026-04-30T13:14:33.706Z</time></trkpt><trkpt lat="40.5225472" lon="8.7237103"><ele>431.0</ele><time>2026-04-30T13:14:34.706Z</time></trkpt><trkpt lat="40.5225896" lon="8.7235483"><ele>431.0</ele><time>2026-04-30T13:14:35.705Z</time></trkpt><trkpt lat="40.5226319" lon="8.7233843"><ele>431.0</ele><time>2026-04-30T13:14:36.706Z</time></trkpt><trkpt lat="40.5226752" lon="8.7232213"><ele>431.0</ele><time>2026-04-30T13:14:37.706Z</time></trkpt><trkpt lat="40.5227196" lon="8.7230582"><ele>431.0</ele><time>2026-04-30T13:14:38.706Z</time></trkpt><trkpt lat="40.522764" lon="8.7228967"><ele>431.0</ele><time>2026-04-30T13:14:39.706Z</time></trkpt><trkpt lat="40.5228075" lon="8.7227347"><ele>431.0</ele><time>2026-04-30T13:14:40.706Z</time></trkpt><trkpt lat="40.5228492" lon="8.7225755"><ele>431.25</ele><time>2026-04-30T13:14:41.706Z</time></trkpt><trkpt lat="40.5228923" lon="8.7224164"><ele>431.5</ele><time>2026-04-30T13:14:42.706Z</time></trkpt><trkpt lat="40.5229354" lon="8.7222603"><ele>431.75</ele><time>2026-04-30T13:14:43.705Z</time></trkpt><trkpt lat="40.5229792" lon="8.722101"><ele>432.0</ele><time>2026-04-30T13:14:44.705Z</time></trkpt><trkpt lat="40.5230226" lon="8.721938"><ele>433.75</ele><time>2026-04-30T13:14:45.706Z</time></trkpt><trkpt lat="40.5230689" lon="8.721774"><ele>435.5</ele><time>2026-04-30T13:14:46.706Z</time></trkpt><trkpt lat="40.5231229" lon="8.7216294"><ele>437.25</ele><time>2026-04-30T13:14:47.705Z</time></trkpt><trkpt lat="40.523195" lon="8.7215186"><ele>439.0</ele><time>2026-04-30T13:14:48.705Z</time></trkpt><trkpt lat="40.523283" lon="8.721421"><ele>439.0</ele><time>2026-04-30T13:14:49.706Z</time></trkpt><trkpt lat="40.523384" lon="8.7213414"><ele>439.0</ele><time>2026-04-30T13:14:50.706Z</time></trkpt><trkpt lat="40.5235013" lon="8.7212726"><ele>439.0</ele><time>2026-04-30T13:14:51.706Z</time></trkpt><trkpt lat="40.5236283" lon="8.7212074"><ele>439.0</ele><time>2026-04-30T13:14:52.706Z</time></trkpt><trkpt lat="40.5237659" lon="8.7211348"><ele>442.6666666666667</ele><time>2026-04-30T13:14:53.706Z</time></trkpt><trkpt lat="40.5239115" lon="8.7210564"><ele>446.33333333333337</ele><time>2026-04-30T13:14:54.706Z</time></trkpt><trkpt lat="40.524054" lon="8.7209817"><ele>450.0</ele><time>2026-04-30T13:14:55.706Z</time></trkpt><trkpt lat="40.5241945" lon="8.7209084"><ele>450.0</ele><time>2026-04-30T13:14:56.705Z</time></trkpt><trkpt lat="40.5243198" lon="8.7208415"><ele>450.0</ele><time>2026-04-30T13:14:57.706Z</time></trkpt><trkpt lat="40.5244259" lon="8.7207725"><ele>450.0</ele><time>2026-04-30T13:14:58.706Z</time></trkpt><trkpt lat="40.5245137" lon="8.7206879"><ele>450.0</ele><time>2026-04-30T13:14:59.706Z</time></trkpt><trkpt lat="40.5245737" lon="8.7206081"><ele>450.0</ele><time>2026-04-30T13:15:00.705Z</time></trkpt><trkpt lat="40.5246258" lon="8.7205271"><ele>449.3333333333333</ele><time>2026-04-30T13:15:01.705Z</time></trkpt><trkpt lat="40.5246769" lon="8.7204664"><ele>448.66666666666663</ele><time>2026-04-30T13:15:02.706Z</time></trkpt><trkpt lat="40.5247341" lon="8.7204248"><ele>448.0</ele><time>2026-04-30T13:15:03.706Z</time></trkpt><trkpt lat="40.524805" lon="8.7204025"><ele>447.3333333333333</ele><time>2026-04-30T13:15:04.706Z</time></trkpt><trkpt lat="40.5248921" lon="8.720394"><ele>446.66666666666663</ele><time>2026-04-30T13:15:05.706Z</time></trkpt><trkpt lat="40.5249946" lon="8.7203963"><ele>446.0</ele><time>2026-04-30T13:15:06.706Z</time></trkpt><trkpt lat="40.525112" lon="8.7204107"><ele>446.0</ele><time>2026-04-30T13:15:07.706Z</time></trkpt><trkpt lat="40.5252177" lon="8.7204276"><ele>446.0</ele><time>2026-04-30T13:15:08.705Z</time></trkpt><trkpt lat="40.5253166" lon="8.7204407"><ele>446.0</ele><time>2026-04-30T13:15:09.706Z</time></trkpt><trkpt lat="40.5254149" lon="8.7204575"><ele>446.0</ele><time>2026-04-30T13:15:10.706Z</time></trkpt><trkpt lat="40.525502" lon="8.7204532"><ele>446.0</ele><time>2026-04-30T13:15:11.706Z</time></trkpt><trkpt lat="40.5255907" lon="8.7204445"><ele>447.0</ele><time>2026-04-30T13:15:12.706Z</time></trkpt><trkpt lat="40.5256824" lon="8.7204342"><ele>448.0</ele><time>2026-04-30T13:15:13.706Z</time></trkpt><trkpt lat="40.5257788" lon="8.7204257"><ele>449.0</ele><time>2026-04-30T13:15:14.706Z</time></trkpt><trkpt lat="40.5258806" lon="8.7204168"><ele>450.0</ele><time>2026-04-30T13:15:15.706Z</time></trkpt><trkpt lat="40.5259859" lon="8.7204114"><ele>451.0</ele><time>2026-04-30T13:15:16.705Z</time></trkpt><trkpt lat="40.5260959" lon="8.7204019"><ele>451.0</ele><time>2026-04-30T13:15:17.706Z</time></trkpt><trkpt lat="40.5262018" lon="8.7203955"><ele>451.0</ele><time>2026-04-30T13:15:18.706Z</time></trkpt><trkpt lat="40.5263033" lon="8.7203883"><ele>451.0</ele><time>2026-04-30T13:15:19.705Z</time></trkpt><trkpt lat="40.5264023" lon="8.7203814"><ele>451.0</ele><time>2026-04-30T13:15:20.706Z</time></trkpt><trkpt lat="40.5265019" lon="8.7203739"><ele>451.0</ele><time>2026-04-30T13:15:21.706Z</time></trkpt><trkpt lat="40.5265977" lon="8.7203666"><ele>450.8</ele><time>2026-04-30T13:15:22.706Z</time></trkpt><trkpt lat="40.5266924" lon="8.7203675"><ele>450.6</ele><time>2026-04-30T13:15:23.706Z</time></trkpt><trkpt lat="40.5267799" lon="8.7203619"><ele>450.4</ele><time>2026-04-30T13:15:24.706Z</time></trkpt><trkpt lat="40.5268671" lon="8.7203531"><ele>450.2</ele><time>2026-04-30T13:15:25.706Z</time></trkpt><trkpt lat="40.5269577" lon="8.7203406"><ele>450.0</ele><time>2026-04-30T13:15:26.706Z</time></trkpt><trkpt lat="40.5270495" lon="8.72033"><ele>450.0</ele><time>2026-04-30T13:15:27.706Z</time></trkpt><trkpt lat="40.5271413" lon="8.7203231"><ele>450.0</ele><time>2026-04-30T13:15:28.706Z</time></trkpt><trkpt lat="40.5272388" lon="8.7203225"><ele>450.0</ele><time>2026-04-30T13:15:29.706Z</time></trkpt><trkpt lat="40.5273361" lon="8.7203201"><ele>450.0</ele><time>2026-04-30T13:15:30.705Z</time></trkpt><trkpt lat="40.5274408" lon="8.7203122"><ele>450.0</ele><time>2026-04-30T13:15:31.706Z</time></trkpt><trkpt lat="40.5275505" lon="8.7203043"><ele>450.0</ele><time>2026-04-30T13:15:32.706Z</time></trkpt><trkpt lat="40.527665" lon="8.7202963"><ele>450.0</ele><time>2026-04-30T13:15:33.706Z</time></trkpt><trkpt lat="40.5277834" lon="8.7202883"><ele>450.0</ele><time>2026-04-30T13:15:34.706Z</time></trkpt><trkpt lat="40.5279079" lon="8.7202804"><ele>450.0</ele><time>2026-04-30T13:15:35.706Z</time></trkpt><trkpt lat="40.5280354" lon="8.7202718"><ele>450.75</ele><time>2026-04-30T13:15:36.706Z</time></trkpt><trkpt lat="40.5281681" lon="8.7202612"><ele>451.5</ele><time>2026-04-30T13:15:37.706Z</time></trkpt><trkpt lat="40.5283006" lon="8.7202536"><ele>452.25</ele><time>2026-04-30T13:15:38.706Z</time></trkpt><trkpt lat="40.5284376" lon="8.7202411"><ele>453.0</ele><time>2026-04-30T13:15:39.706Z</time></trkpt><trkpt lat="40.5285747" lon="8.72023"><ele>453.5</ele><time>2026-04-30T13:15:40.706Z</time></trkpt><trkpt lat="40.5287124" lon="8.7202216"><ele>454.0</ele><time>2026-04-30T13:15:41.706Z</time></trkpt><trkpt lat="40.5288469" lon="8.7202156"><ele>454.5</ele><time>2026-04-30T13:15:42.706Z</time></trkpt><trkpt lat="40.5289734" lon="8.7202104"><ele>455.0</ele><time>2026-04-30T13:15:43.706Z</time></trkpt><trkpt lat="40.5290966" lon="8.7202103"><ele>455.0</ele><time>2026-04-30T13:15:44.706Z</time></trkpt><trkpt lat="40.5292241" lon="8.7202077"><ele>455.0</ele><time>2026-04-30T13:15:45.706Z</time></trkpt><trkpt lat="40.5293539" lon="8.7202045"><ele>455.0</ele><time>2026-04-30T13:15:46.706Z</time></trkpt><trkpt lat="40.529483" lon="8.7202049"><ele>455.0</ele><time>2026-04-30T13:15:47.706Z</time></trkpt><trkpt lat="40.5295992" lon="8.7202066"><ele>454.16666666666663</ele><time>2026-04-30T13:15:48.706Z</time></trkpt><trkpt lat="40.5297045" lon="8.7202088"><ele>453.3333333333333</ele><time>2026-04-30T13:15:49.706Z</time></trkpt><trkpt lat="40.5297965" lon="8.7202115"><ele>452.5</ele><time>2026-04-30T13:15:50.706Z</time></trkpt><trkpt lat="40.5298802" lon="8.7202041"><ele>451.66666666666663</ele><time>2026-04-30T13:15:51.706Z</time></trkpt><trkpt lat="40.5299552" lon="8.7201714"><ele>450.8333333333333</ele><time>2026-04-30T13:15:52.706Z</time></trkpt><trkpt lat="40.5300264" lon="8.7201101"><ele>450.0</ele><time>2026-04-30T13:15:53.706Z</time></trkpt><trkpt lat="40.530093" lon="8.7200257"><ele>450.0</ele><time>2026-04-30T13:15:54.706Z</time></trkpt><trkpt lat="40.5301558" lon="8.719917"><ele>450.0</ele><time>2026-04-30T13:15:55.706Z</time></trkpt><trkpt lat="40.5302085" lon="8.7197894"><ele>450.0</ele><time>2026-04-30T13:15:56.706Z</time></trkpt><trkpt lat="40.5302515" lon="8.7196432"><ele>450.0</ele><time>2026-04-30T13:15:57.705Z</time></trkpt><trkpt lat="40.5302937" lon="8.7194868"><ele>450.5</ele><time>2026-04-30T13:15:58.705Z</time></trkpt><trkpt lat="40.5303359" lon="8.7193205"><ele>451.0</ele><time>2026-04-30T13:15:59.706Z</time></trkpt><trkpt lat="40.5303722" lon="8.7191493"><ele>451.5</ele><time>2026-04-30T13:16:00.706Z</time></trkpt><trkpt lat="40.5304" lon="8.7189804"><ele>452.0</ele><time>2026-04-30T13:16:01.706Z</time></trkpt><trkpt lat="40.5304199" lon="8.7188184"><ele>450.0</ele><time>2026-04-30T13:16:02.706Z</time></trkpt><trkpt lat="40.5304275" lon="8.7186589"><ele>448.00000000000006</ele><time>2026-04-30T13:16:03.706Z</time></trkpt><trkpt lat="40.5304307" lon="8.7185103"><ele>446.00000000000006</ele><time>2026-04-30T13:16:04.706Z</time></trkpt><trkpt lat="40.5304437" lon="8.7183749"><ele>444.0</ele><time>2026-04-30T13:16:05.705Z</time></trkpt><trkpt lat="40.5304848" lon="8.7182721"><ele>442.0</ele><time>2026-04-30T13:16:06.706Z</time></trkpt><trkpt lat="40.530522" lon="8.7181848"><ele>442.0</ele><time>2026-04-30T13:16:07.706Z</time></trkpt><trkpt lat="40.5306099" lon="8.7182157"><ele>442.00000000000006</ele><time>2026-04-30T13:16:08.706Z</time></trkpt><trkpt lat="40.5306698" lon="8.7182563"><ele>442.00000000000006</ele><time>2026-04-30T13:16:09.705Z</time></trkpt><trkpt lat="40.5306413" lon="8.7184208"><ele>442.0</ele><time>2026-04-30T13:16:11.706Z</time></trkpt><trkpt lat="40.5306062" lon="8.7185257"><ele>442.0</ele><time>2026-04-30T13:16:12.706Z</time></trkpt><trkpt lat="40.5305831" lon="8.7186659"><ele>442.00000000000006</ele><time>2026-04-30T13:16:13.705Z</time></trkpt><trkpt lat="40.5305743" lon="8.7187911"><ele>442.0</ele><time>2026-04-30T13:16:14.706Z</time></trkpt><trkpt lat="40.5305739" lon="8.718912"><ele>442.0</ele><time>2026-04-30T13:16:15.705Z</time></trkpt><trkpt lat="40.5306055" lon="8.7190108"><ele>442.0</ele><time>2026-04-30T13:16:16.706Z</time></trkpt><trkpt lat="40.5306741" lon="8.7190717"><ele>442.00000000000006</ele><time>2026-04-30T13:16:17.706Z</time></trkpt><trkpt lat="40.5307457" lon="8.7190738"><ele>442.0</ele><time>2026-04-30T13:16:18.705Z</time></trkpt><trkpt lat="40.5308074" lon="8.7190217"><ele>442.0</ele><time>2026-04-30T13:16:19.705Z</time></trkpt><trkpt lat="40.5308696" lon="8.7189342"><ele>442.0</ele><time>2026-04-30T13:16:20.706Z</time></trkpt><trkpt lat="40.5309347" lon="8.7188169"><ele>442.0</ele><time>2026-04-30T13:16:21.706Z</time></trkpt><trkpt lat="40.5310047" lon="8.7186839"><ele>442.0</ele><time>2026-04-30T13:16:22.705Z</time></trkpt><trkpt lat="40.5310822" lon="8.7185468"><ele>441.25</ele><time>2026-04-30T13:16:23.706Z</time></trkpt><trkpt lat="40.5311675" lon="8.7184069"><ele>440.5</ele><time>2026-04-30T13:16:24.706Z</time></trkpt><trkpt lat="40.5312561" lon="8.7182619"><ele>439.75</ele><time>2026-04-30T13:16:25.706Z</time></trkpt><trkpt lat="40.5313514" lon="8.7181138"><ele>439.0</ele><time>2026-04-30T13:16:26.706Z</time></trkpt><trkpt lat="40.53145" lon="8.7179607"><ele>438.6666666666667</ele><time>2026-04-30T13:16:27.706Z</time></trkpt><trkpt lat="40.5315441" lon="8.7178094"><ele>438.33333333333337</ele><time>2026-04-30T13:16:28.706Z</time></trkpt><trkpt lat="40.531633" lon="8.7176481"><ele>438.0</ele><time>2026-04-30T13:16:29.706Z</time></trkpt><trkpt lat="40.5317144" lon="8.7174709"><ele>434.33333333333337</ele><time>2026-04-30T13:16:30.706Z</time></trkpt><trkpt lat="40.5317914" lon="8.7172865"><ele>430.6666666666667</ele><time>2026-04-30T13:16:31.706Z</time></trkpt><trkpt lat="40.5318615" lon="8.7170971"><ele>427.0</ele><time>2026-04-30T13:16:32.706Z</time></trkpt><trkpt lat="40.5319272" lon="8.7169137"><ele>426.5</ele><time>2026-04-30T13:16:33.706Z</time></trkpt><trkpt lat="40.531998" lon="8.7167389"><ele>426.0</ele><time>2026-04-30T13:16:34.706Z</time></trkpt><trkpt lat="40.5320798" lon="8.7165765"><ele>425.5</ele><time>2026-04-30T13:16:35.706Z</time></trkpt><trkpt lat="40.5321771" lon="8.716425"><ele>425.0</ele><time>2026-04-30T13:16:36.705Z</time></trkpt><trkpt lat="40.5322883" lon="8.7162891"><ele>423.75</ele><time>2026-04-30T13:16:37.706Z</time></trkpt><trkpt lat="40.532406" lon="8.7161682"><ele>422.5</ele><time>2026-04-30T13:16:38.706Z</time></trkpt><trkpt lat="40.532514" lon="8.7160401"><ele>421.25</ele><time>2026-04-30T13:16:39.706Z</time></trkpt><trkpt lat="40.5325924" lon="8.7158826"><ele>420.0</ele><time>2026-04-30T13:16:40.705Z</time></trkpt><trkpt lat="40.5326224" lon="8.7157058"><ele>420.0</ele><time>2026-04-30T13:16:41.706Z</time></trkpt><trkpt lat="40.5326049" lon="8.715533"><ele>420.0</ele><time>2026-04-30T13:16:42.706Z</time></trkpt><trkpt lat="40.5325404" lon="8.715381"><ele>420.0</ele><time>2026-04-30T13:16:43.706Z</time></trkpt><trkpt lat="40.5324416" lon="8.7152473"><ele>420.0</ele><time>2026-04-30T13:16:44.706Z</time></trkpt><trkpt lat="40.5323323" lon="8.7151077"><ele>419.33333333333337</ele><time>2026-04-30T13:16:45.705Z</time></trkpt><trkpt lat="40.5322314" lon="8.7149328"><ele>418.6666666666667</ele><time>2026-04-30T13:16:46.705Z</time></trkpt><trkpt lat="40.5321377" lon="8.7147416"><ele>418.0</ele><time>2026-04-30T13:16:47.706Z</time></trkpt><trkpt lat="40.5320434" lon="8.7145395"><ele>416.0</ele><time>2026-04-30T13:16:48.706Z</time></trkpt><trkpt lat="40.5319442" lon="8.7143297"><ele>414.0</ele><time>2026-04-30T13:16:49.706Z</time></trkpt><trkpt lat="40.5318473" lon="8.7141294"><ele>412.0</ele><time>2026-04-30T13:16:50.706Z</time></trkpt><trkpt lat="40.5317446" lon="8.7139428"><ele>412.0</ele><time>2026-04-30T13:16:51.706Z</time></trkpt><trkpt lat="40.5316303" lon="8.713781"><ele>412.0</ele><time>2026-04-30T13:16:52.706Z</time></trkpt><trkpt lat="40.5315263" lon="8.7136305"><ele>412.0</ele><time>2026-04-30T13:16:53.706Z</time></trkpt><trkpt lat="40.5314343" lon="8.7134482"><ele>414.33333333333337</ele><time>2026-04-30T13:16:54.706Z</time></trkpt><trkpt lat="40.5313586" lon="8.71324"><ele>416.66666666666663</ele><time>2026-04-30T13:16:55.706Z</time></trkpt><trkpt lat="40.5312978" lon="8.7130233"><ele>419.0</ele><time>2026-04-30T13:16:56.706Z</time></trkpt><trkpt lat="40.5312646" lon="8.7128049"><ele>421.3333333333333</ele><time>2026-04-30T13:16:57.705Z</time></trkpt><trkpt lat="40.5312663" lon="8.7125736"><ele>423.66666666666663</ele><time>2026-04-30T13:16:58.705Z</time></trkpt><trkpt lat="40.5312848" lon="8.7123315"><ele>426.0</ele><time>2026-04-30T13:16:59.706Z</time></trkpt><trkpt lat="40.5313059" lon="8.7120799"><ele>424.66666666666663</ele><time>2026-04-30T13:17:00.706Z</time></trkpt><trkpt lat="40.5313236" lon="8.7118177"><ele>423.3333333333333</ele><time>2026-04-30T13:17:01.705Z</time></trkpt><trkpt lat="40.5313394" lon="8.7115585"><ele>422.0</ele><time>2026-04-30T13:17:02.706Z</time></trkpt><trkpt lat="40.5313529" lon="8.7113091"><ele>419.3333333333333</ele><time>2026-04-30T13:17:03.706Z</time></trkpt><trkpt lat="40.5313536" lon="8.7110645"><ele>416.66666666666663</ele><time>2026-04-30T13:17:04.706Z</time></trkpt><trkpt lat="40.5313318" lon="8.7108205"><ele>414.0</ele><time>2026-04-30T13:17:05.706Z</time></trkpt><trkpt lat="40.5312787" lon="8.7105827"><ele>409.66666666666663</ele><time>2026-04-30T13:17:06.705Z</time></trkpt><trkpt lat="40.5311942" lon="8.7103575"><ele>405.3333333333333</ele><time>2026-04-30T13:17:07.706Z</time></trkpt><trkpt lat="40.5310844" lon="8.7101438"><ele>401.0</ele><time>2026-04-30T13:17:08.706Z</time></trkpt><trkpt lat="40.5309676" lon="8.7099237"><ele>401.0</ele><time>2026-04-30T13:17:09.706Z</time></trkpt><trkpt lat="40.5308684" lon="8.7096863"><ele>401.0</ele><time>2026-04-30T13:17:10.705Z</time></trkpt><trkpt lat="40.5307754" lon="8.7094425"><ele>401.0</ele><time>2026-04-30T13:17:11.706Z</time></trkpt><trkpt lat="40.5306816" lon="8.7092004"><ele>400.0</ele><time>2026-04-30T13:17:12.705Z</time></trkpt><trkpt lat="40.5305778" lon="8.7089881"><ele>399.0</ele><time>2026-04-30T13:17:13.706Z</time></trkpt><trkpt lat="40.5304668" lon="8.7088067"><ele>398.0</ele><time>2026-04-30T13:17:14.706Z</time></trkpt><trkpt lat="40.5303722" lon="8.7086325"><ele>398.0</ele><time>2026-04-30T13:17:15.706Z</time></trkpt><trkpt lat="40.5303174" lon="8.7084508"><ele>398.0</ele><time>2026-04-30T13:17:16.706Z</time></trkpt><trkpt lat="40.5303009" lon="8.7082573"><ele>398.0</ele><time>2026-04-30T13:17:17.705Z</time></trkpt><trkpt lat="40.5303031" lon="8.7080308"><ele>398.0</ele><time>2026-04-30T13:17:18.705Z</time></trkpt><trkpt lat="40.5303101" lon="8.7077784"><ele>398.0</ele><time>2026-04-30T13:17:19.706Z</time></trkpt><trkpt lat="40.5303042" lon="8.7075179"><ele>398.0</ele><time>2026-04-30T13:17:20.706Z</time></trkpt><trkpt lat="40.5302905" lon="8.707251"><ele>397.0</ele><time>2026-04-30T13:17:21.706Z</time></trkpt><trkpt lat="40.5302779" lon="8.7069769"><ele>396.0</ele><time>2026-04-30T13:17:22.706Z</time></trkpt><trkpt lat="40.5302644" lon="8.7066977"><ele>395.0</ele><time>2026-04-30T13:17:23.706Z</time></trkpt><trkpt lat="40.5302458" lon="8.7064172"><ele>394.3333333333333</ele><time>2026-04-30T13:17:24.706Z</time></trkpt><trkpt lat="40.5302013" lon="8.7061374"><ele>393.66666666666663</ele><time>2026-04-30T13:17:25.706Z</time></trkpt><trkpt lat="40.5301421" lon="8.7058561"><ele>393.0</ele><time>2026-04-30T13:17:26.706Z</time></trkpt><trkpt lat="40.5300824" lon="8.7055872"><ele>392.0</ele><time>2026-04-30T13:17:27.706Z</time></trkpt><trkpt lat="40.5300317" lon="8.7053542"><ele>391.0</ele><time>2026-04-30T13:17:28.706Z</time></trkpt><trkpt lat="40.5299845" lon="8.7051495"><ele>390.0</ele><time>2026-04-30T13:17:29.706Z</time></trkpt><trkpt lat="40.5299205" lon="8.7049594"><ele>389.0</ele><time>2026-04-30T13:17:30.706Z</time></trkpt><trkpt lat="40.5298291" lon="8.7047845"><ele>388.0</ele><time>2026-04-30T13:17:31.706Z</time></trkpt><trkpt lat="40.5297269" lon="8.7046321"><ele>387.0</ele><time>2026-04-30T13:17:32.706Z</time></trkpt><trkpt lat="40.5296361" lon="8.7044749"><ele>385.3333333333333</ele><time>2026-04-30T13:17:33.706Z</time></trkpt><trkpt lat="40.5295619" lon="8.7042956"><ele>383.66666666666663</ele><time>2026-04-30T13:17:34.706Z</time></trkpt><trkpt lat="40.5295101" lon="8.7041002"><ele>382.0</ele><time>2026-04-30T13:17:35.706Z</time></trkpt><trkpt lat="40.5294763" lon="8.7038896"><ele>381.66666666666663</ele><time>2026-04-30T13:17:36.706Z</time></trkpt><trkpt lat="40.5294504" lon="8.7036673"><ele>381.3333333333333</ele><time>2026-04-30T13:17:37.706Z</time></trkpt><trkpt lat="40.5294212" lon="8.7034338"><ele>381.0</ele><time>2026-04-30T13:17:38.706Z</time></trkpt><trkpt lat="40.5293935" lon="8.703184"><ele>381.0</ele><time>2026-04-30T13:17:39.706Z</time></trkpt><trkpt lat="40.529366" lon="8.7029254"><ele>381.0</ele><time>2026-04-30T13:17:40.706Z</time></trkpt><trkpt lat="40.5293412" lon="8.7026646"><ele>381.0</ele><time>2026-04-30T13:17:41.706Z</time></trkpt><trkpt lat="40.529317" lon="8.7024168"><ele>381.3333333333333</ele><time>2026-04-30T13:17:42.705Z</time></trkpt><trkpt lat="40.529291" lon="8.7021641"><ele>381.66666666666663</ele><time>2026-04-30T13:17:43.706Z</time></trkpt><trkpt lat="40.5292541" lon="8.7019129"><ele>382.0</ele><time>2026-04-30T13:17:44.705Z</time></trkpt><trkpt lat="40.5291919" lon="8.7016693"><ele>382.3333333333333</ele><time>2026-04-30T13:17:45.706Z</time></trkpt><trkpt lat="40.5291022" lon="8.7014342"><ele>382.6666666666667</ele><time>2026-04-30T13:17:46.706Z</time></trkpt><trkpt lat="40.52899" lon="8.7012048"><ele>383.0</ele><time>2026-04-30T13:17:47.705Z</time></trkpt><trkpt lat="40.5288683" lon="8.7009697"><ele>383.0</ele><time>2026-04-30T13:17:48.706Z</time></trkpt><trkpt lat="40.5287447" lon="8.7007253"><ele>383.0</ele><time>2026-04-30T13:17:49.706Z</time></trkpt><trkpt lat="40.5286157" lon="8.7004715"><ele>382.0</ele><time>2026-04-30T13:17:50.706Z</time></trkpt><trkpt lat="40.5284842" lon="8.7002094"><ele>381.0</ele><time>2026-04-30T13:17:51.706Z</time></trkpt><trkpt lat="40.5283554" lon="8.699952"><ele>381.0</ele><time>2026-04-30T13:17:52.706Z</time></trkpt><trkpt lat="40.5282275" lon="8.6996989"><ele>381.0</ele><time>2026-04-30T13:17:53.706Z</time></trkpt><trkpt lat="40.5280982" lon="8.6994493"><ele>381.5</ele><time>2026-04-30T13:17:54.706Z</time></trkpt><trkpt lat="40.5279688" lon="8.6991974"><ele>382.0</ele><time>2026-04-30T13:17:55.706Z</time></trkpt><trkpt lat="40.5278397" lon="8.6989412"><ele>378.5</ele><time>2026-04-30T13:17:56.705Z</time></trkpt><trkpt lat="40.5277121" lon="8.698679"><ele>375.0</ele><time>2026-04-30T13:17:57.705Z</time></trkpt><trkpt lat="40.5275824" lon="8.6984167"><ele>375.0</ele><time>2026-04-30T13:17:58.706Z</time></trkpt><trkpt lat="40.5274483" lon="8.6981499"><ele>375.0</ele><time>2026-04-30T13:17:59.705Z</time></trkpt><trkpt lat="40.5273172" lon="8.6978811"><ele>376.0</ele><time>2026-04-30T13:18:00.706Z</time></trkpt><trkpt lat="40.5271822" lon="8.6976127"><ele>377.0</ele><time>2026-04-30T13:18:01.706Z</time></trkpt><trkpt lat="40.5270455" lon="8.6973414"><ele>375.5</ele><time>2026-04-30T13:18:02.706Z</time></trkpt><trkpt lat="40.5269062" lon="8.697062"><ele>374.0</ele><time>2026-04-30T13:18:03.705Z</time></trkpt><trkpt lat="40.5267652" lon="8.6967819"><ele>374.0</ele><time>2026-04-30T13:18:04.706Z</time></trkpt><trkpt lat="40.5266237" lon="8.6965005"><ele>374.0</ele><time>2026-04-30T13:18:05.705Z</time></trkpt><trkpt lat="40.5264868" lon="8.6962296"><ele>375.0</ele><time>2026-04-30T13:18:06.706Z</time></trkpt><trkpt lat="40.5263569" lon="8.6959736"><ele>376.0</ele><time>2026-04-30T13:18:07.706Z</time></trkpt><trkpt lat="40.5262366" lon="8.695733"><ele>373.66666666666663</ele><time>2026-04-30T13:18:08.706Z</time></trkpt><trkpt lat="40.5261279" lon="8.6955011"><ele>371.3333333333333</ele><time>2026-04-30T13:18:09.706Z</time></trkpt><trkpt lat="40.5260446" lon="8.6952652"><ele>369.0</ele><time>2026-04-30T13:18:10.706Z</time></trkpt><trkpt lat="40.5259851" lon="8.6950163"><ele>368.0</ele><time>2026-04-30T13:18:11.706Z</time></trkpt><trkpt lat="40.5259453" lon="8.6947524"><ele>367.0</ele><time>2026-04-30T13:18:12.705Z</time></trkpt><trkpt lat="40.5259093" lon="8.6944808"><ele>366.0</ele><time>2026-04-30T13:18:13.706Z</time></trkpt><trkpt lat="40.525875" lon="8.6942008"><ele>365.5</ele><time>2026-04-30T13:18:14.705Z</time></trkpt><trkpt lat="40.5258355" lon="8.6939127"><ele>365.0</ele><time>2026-04-30T13:18:15.705Z</time></trkpt><trkpt lat="40.525797" lon="8.6936135"><ele>364.5</ele><time>2026-04-30T13:18:16.706Z</time></trkpt><trkpt lat="40.5257586" lon="8.6933154"><ele>364.0</ele><time>2026-04-30T13:18:17.706Z</time></trkpt><trkpt lat="40.5257201" lon="8.6930188"><ele>364.0</ele><time>2026-04-30T13:18:18.706Z</time></trkpt><trkpt lat="40.5256792" lon="8.6927365"><ele>364.0</ele><time>2026-04-30T13:18:19.706Z</time></trkpt><trkpt lat="40.5256438" lon="8.6924675"><ele>364.0</ele><time>2026-04-30T13:18:20.706Z</time></trkpt><trkpt lat="40.5256222" lon="8.6922085"><ele>364.0</ele><time>2026-04-30T13:18:21.706Z</time></trkpt><trkpt lat="40.5256141" lon="8.6919679"><ele>364.0</ele><time>2026-04-30T13:18:22.706Z</time></trkpt><trkpt lat="40.5256369" lon="8.6917339"><ele>364.0</ele><time>2026-04-30T13:18:23.706Z</time></trkpt><trkpt lat="40.5256882" lon="8.6914997"><ele>364.0</ele><time>2026-04-30T13:18:24.706Z</time></trkpt><trkpt lat="40.5257535" lon="8.6912577"><ele>364.0</ele><time>2026-04-30T13:18:25.705Z</time></trkpt><trkpt lat="40.5258064" lon="8.6910201"><ele>364.0</ele><time>2026-04-30T13:18:26.705Z</time></trkpt><trkpt lat="40.525853" lon="8.690785"><ele>361.66666666666663</ele><time>2026-04-30T13:18:27.706Z</time></trkpt><trkpt lat="40.5258809" lon="8.6905514"><ele>359.3333333333333</ele><time>2026-04-30T13:18:28.706Z</time></trkpt><trkpt lat="40.5258718" lon="8.6903241"><ele>357.0</ele><time>2026-04-30T13:18:29.706Z</time></trkpt><trkpt lat="40.5258271" lon="8.6900935"><ele>356.6666666666667</ele><time>2026-04-30T13:18:30.706Z</time></trkpt><trkpt lat="40.5257616" lon="8.6898576"><ele>356.33333333333337</ele><time>2026-04-30T13:18:31.706Z</time></trkpt><trkpt lat="40.5256886" lon="8.6896054"><ele>356.0</ele><time>2026-04-30T13:18:32.706Z</time></trkpt><trkpt lat="40.5256114" lon="8.6893453"><ele>355.5</ele><time>2026-04-30T13:18:33.706Z</time></trkpt><trkpt lat="40.5255301" lon="8.6890728"><ele>355.0</ele><time>2026-04-30T13:18:34.705Z</time></trkpt><trkpt lat="40.525446" lon="8.6887896"><ele>349.5</ele><time>2026-04-30T13:18:35.706Z</time></trkpt><trkpt lat="40.5253587" lon="8.688496"><ele>344.0</ele><time>2026-04-30T13:18:36.706Z</time></trkpt><trkpt lat="40.5252692" lon="8.6881961"><ele>344.0</ele><time>2026-04-30T13:18:37.705Z</time></trkpt><trkpt lat="40.5251749" lon="8.6878885"><ele>344.0</ele><time>2026-04-30T13:18:38.706Z</time></trkpt><trkpt lat="40.5250774" lon="8.6875796"><ele>342.5</ele><time>2026-04-30T13:18:39.706Z</time></trkpt><trkpt lat="40.5249793" lon="8.6872689"><ele>341.0</ele><time>2026-04-30T13:18:40.706Z</time></trkpt><trkpt lat="40.524883" lon="8.6869555"><ele>339.0</ele><time>2026-04-30T13:18:41.706Z</time></trkpt><trkpt lat="40.5247852" lon="8.6866459"><ele>337.0</ele><time>2026-04-30T13:18:42.706Z</time></trkpt><trkpt lat="40.5246933" lon="8.6863445"><ele>337.0</ele><time>2026-04-30T13:18:43.706Z</time></trkpt><trkpt lat="40.5245989" lon="8.6860607"><ele>337.0</ele><time>2026-04-30T13:18:44.706Z</time></trkpt><trkpt lat="40.524509" lon="8.685789"><ele>337.0</ele><time>2026-04-30T13:18:45.706Z</time></trkpt><trkpt lat="40.5244237" lon="8.6855293"><ele>337.0</ele><time>2026-04-30T13:18:46.706Z</time></trkpt><trkpt lat="40.524353" lon="8.6852796"><ele>337.0</ele><time>2026-04-30T13:18:47.706Z</time></trkpt><trkpt lat="40.5243101" lon="8.6850393"><ele>336.66666666666663</ele><time>2026-04-30T13:18:48.705Z</time></trkpt><trkpt lat="40.5243069" lon="8.6848069"><ele>336.3333333333333</ele><time>2026-04-30T13:18:49.706Z</time></trkpt><trkpt lat="40.5243382" lon="8.6845807"><ele>336.0</ele><time>2026-04-30T13:18:50.705Z</time></trkpt><trkpt lat="40.5244074" lon="8.6843714"><ele>336.0</ele><time>2026-04-30T13:18:51.705Z</time></trkpt><trkpt lat="40.5245044" lon="8.6841808"><ele>336.0</ele><time>2026-04-30T13:18:52.706Z</time></trkpt><trkpt lat="40.524627" lon="8.684015"><ele>336.0</ele><time>2026-04-30T13:18:53.706Z</time></trkpt><trkpt lat="40.5247776" lon="8.6838841"><ele>335.6666666666667</ele><time>2026-04-30T13:18:54.706Z</time></trkpt><trkpt lat="40.5249515" lon="8.6837913"><ele>335.33333333333337</ele><time>2026-04-30T13:18:55.706Z</time></trkpt><trkpt lat="40.5251464" lon="8.6837252"><ele>335.0</ele><time>2026-04-30T13:18:56.706Z</time></trkpt><trkpt lat="40.525358" lon="8.683657"><ele>337.0</ele><time>2026-04-30T13:18:57.706Z</time></trkpt><trkpt lat="40.525578" lon="8.6835824"><ele>339.0</ele><time>2026-04-30T13:18:58.706Z</time></trkpt><trkpt lat="40.5257949" lon="8.6835101"><ele>339.0</ele><time>2026-04-30T13:18:59.706Z</time></trkpt><trkpt lat="40.5260094" lon="8.68344"><ele>339.0</ele><time>2026-04-30T13:19:00.706Z</time></trkpt><trkpt lat="40.5262216" lon="8.6833731"><ele>339.0</ele><time>2026-04-30T13:19:01.705Z</time></trkpt><trkpt lat="40.5264236" lon="8.6833073"><ele>338.0</ele><time>2026-04-30T13:19:02.706Z</time></trkpt><trkpt lat="40.5266108" lon="8.683225"><ele>337.0</ele><time>2026-04-30T13:19:03.706Z</time></trkpt><trkpt lat="40.5267857" lon="8.6831124"><ele>336.0</ele><time>2026-04-30T13:19:04.706Z</time></trkpt><trkpt lat="40.526945" lon="8.6829642"><ele>335.6666666666667</ele><time>2026-04-30T13:19:05.706Z</time></trkpt><trkpt lat="40.5270824" lon="8.6827834"><ele>335.33333333333337</ele><time>2026-04-30T13:19:06.706Z</time></trkpt><trkpt lat="40.527203" lon="8.6825771"><ele>335.0</ele><time>2026-04-30T13:19:07.706Z</time></trkpt><trkpt lat="40.5273178" lon="8.6823601"><ele>335.0</ele><time>2026-04-30T13:19:08.705Z</time></trkpt><trkpt lat="40.5274422" lon="8.682152"><ele>335.0</ele><time>2026-04-30T13:19:09.705Z</time></trkpt><trkpt lat="40.5275844" lon="8.6819783"><ele>335.0</ele><time>2026-04-30T13:19:10.706Z</time></trkpt><trkpt lat="40.5277526" lon="8.6818379"><ele>335.6666666666667</ele><time>2026-04-30T13:19:11.706Z</time></trkpt><trkpt lat="40.5279428" lon="8.6817243"><ele>336.3333333333333</ele><time>2026-04-30T13:19:12.706Z</time></trkpt><trkpt lat="40.5281495" lon="8.6816385"><ele>337.0</ele><time>2026-04-30T13:19:13.706Z</time></trkpt><trkpt lat="40.5283726" lon="8.6815598"><ele>337.0</ele><time>2026-04-30T13:19:14.706Z</time></trkpt><trkpt lat="40.528609" lon="8.681473"><ele>337.0</ele><time>2026-04-30T13:19:15.706Z</time></trkpt><trkpt lat="40.5288332" lon="8.6813903"><ele>336.66666666666663</ele><time>2026-04-30T13:19:16.706Z</time></trkpt><trkpt lat="40.5290425" lon="8.6813149"><ele>336.3333333333333</ele><time>2026-04-30T13:19:17.706Z</time></trkpt><trkpt lat="40.5292372" lon="8.6812348"><ele>336.0</ele><time>2026-04-30T13:19:18.706Z</time></trkpt><trkpt lat="40.5294261" lon="8.6811262"><ele>335.6666666666667</ele><time>2026-04-30T13:19:19.706Z</time></trkpt><trkpt lat="40.5295949" lon="8.6809787"><ele>335.33333333333337</ele><time>2026-04-30T13:19:20.705Z</time></trkpt><trkpt lat="40.5297498" lon="8.6808044"><ele>335.0</ele><time>2026-04-30T13:19:21.706Z</time></trkpt><trkpt lat="40.5299058" lon="8.6806169"><ele>335.0</ele><time>2026-04-30T13:19:22.706Z</time></trkpt><trkpt lat="40.5300622" lon="8.6804359"><ele>335.0</ele><time>2026-04-30T13:19:23.706Z</time></trkpt><trkpt lat="40.5302268" lon="8.6802911"><ele>335.0</ele><time>2026-04-30T13:19:24.706Z</time></trkpt><trkpt lat="40.530411" lon="8.6801785"><ele>337.0</ele><time>2026-04-30T13:19:25.706Z</time></trkpt><trkpt lat="40.5306053" lon="8.6800994"><ele>339.0</ele><time>2026-04-30T13:19:26.706Z</time></trkpt><trkpt lat="40.5308101" lon="8.6800739"><ele>341.0</ele><time>2026-04-30T13:19:27.706Z</time></trkpt><trkpt lat="40.5310189" lon="8.6800689"><ele>341.0</ele><time>2026-04-30T13:19:28.706Z</time></trkpt><trkpt lat="40.5312235" lon="8.6800574"><ele>341.0</ele><time>2026-04-30T13:19:29.706Z</time></trkpt><trkpt lat="40.5314156" lon="8.6800145"><ele>341.0</ele><time>2026-04-30T13:19:30.706Z</time></trkpt><trkpt lat="40.5315989" lon="8.6799299"><ele>340.0</ele><time>2026-04-30T13:19:31.706Z</time></trkpt><trkpt lat="40.5317725" lon="8.6798009"><ele>339.0</ele><time>2026-04-30T13:19:32.706Z</time></trkpt><trkpt lat="40.5319421" lon="8.6796334"><ele>338.0</ele><time>2026-04-30T13:19:33.706Z</time></trkpt><trkpt lat="40.5321156" lon="8.6794456"><ele>335.5</ele><time>2026-04-30T13:19:34.705Z</time></trkpt><trkpt lat="40.5322921" lon="8.6792581"><ele>333.0</ele><time>2026-04-30T13:19:35.705Z</time></trkpt><trkpt lat="40.5324689" lon="8.6790732"><ele>333.0</ele><time>2026-04-30T13:19:36.706Z</time></trkpt><trkpt lat="40.5326377" lon="8.6788965"><ele>333.0</ele><time>2026-04-30T13:19:37.706Z</time></trkpt><trkpt lat="40.5327932" lon="8.678733"><ele>333.0</ele><time>2026-04-30T13:19:38.706Z</time></trkpt><trkpt lat="40.5329214" lon="8.6785698"><ele>333.3333333333333</ele><time>2026-04-30T13:19:39.706Z</time></trkpt><trkpt lat="40.5330072" lon="8.6783925"><ele>333.66666666666663</ele><time>2026-04-30T13:19:40.705Z</time></trkpt><trkpt lat="40.5330561" lon="8.678202"><ele>334.0</ele><time>2026-04-30T13:19:41.706Z</time></trkpt><trkpt lat="40.5330677" lon="8.6780009"><ele>334.0</ele><time>2026-04-30T13:19:42.706Z</time></trkpt><trkpt lat="40.5330357" lon="8.6778002"><ele>334.0</ele><time>2026-04-30T13:19:43.706Z</time></trkpt><trkpt lat="40.5329628" lon="8.677608"><ele>334.0</ele><time>2026-04-30T13:19:44.706Z</time></trkpt><trkpt lat="40.5328688" lon="8.6774212"><ele>338.0</ele><time>2026-04-30T13:19:45.706Z</time></trkpt><trkpt lat="40.5327843" lon="8.6772274"><ele>342.0</ele><time>2026-04-30T13:19:46.705Z</time></trkpt><trkpt lat="40.5327241" lon="8.6770369"><ele>346.0</ele><time>2026-04-30T13:19:47.705Z</time></trkpt><trkpt lat="40.5326888" lon="8.6768398"><ele>346.0</ele><time>2026-04-30T13:19:48.705Z</time></trkpt><trkpt lat="40.5326764" lon="8.6766394"><ele>346.0</ele><time>2026-04-30T13:19:49.705Z</time></trkpt><trkpt lat="40.5326759" lon="8.6764386"><ele>346.0</ele><time>2026-04-30T13:19:50.706Z</time></trkpt><trkpt lat="40.5326802" lon="8.6762357"><ele>344.66666666666663</ele><time>2026-04-30T13:19:51.706Z</time></trkpt><trkpt lat="40.5326837" lon="8.6760291"><ele>343.3333333333333</ele><time>2026-04-30T13:19:52.706Z</time></trkpt><trkpt lat="40.5326877" lon="8.6758323"><ele>342.0</ele><time>2026-04-30T13:19:53.705Z</time></trkpt><trkpt lat="40.5326899" lon="8.6756317"><ele>342.0</ele><time>2026-04-30T13:19:54.706Z</time></trkpt><trkpt lat="40.5326917" lon="8.6754296"><ele>342.0</ele><time>2026-04-30T13:19:55.706Z</time></trkpt><trkpt lat="40.5326954" lon="8.6752376"><ele>342.0</ele><time>2026-04-30T13:19:56.706Z</time></trkpt><trkpt lat="40.5327064" lon="8.6750549"><ele>342.0</ele><time>2026-04-30T13:19:57.705Z</time></trkpt><trkpt lat="40.5327329" lon="8.6748764"><ele>341.0</ele><time>2026-04-30T13:19:58.706Z</time></trkpt><trkpt lat="40.5327774" lon="8.6746959"><ele>340.0</ele><time>2026-04-30T13:19:59.706Z</time></trkpt><trkpt lat="40.5328398" lon="8.6745142"><ele>339.0</ele><time>2026-04-30T13:20:00.706Z</time></trkpt><trkpt lat="40.5329199" lon="8.6743394"><ele>338.6666666666667</ele><time>2026-04-30T13:20:01.706Z</time></trkpt><trkpt lat="40.5330203" lon="8.6741718"><ele>338.33333333333337</ele><time>2026-04-30T13:20:02.706Z</time></trkpt><trkpt lat="40.5331534" lon="8.6740072"><ele>338.0</ele><time>2026-04-30T13:20:03.706Z</time></trkpt><trkpt lat="40.5333056" lon="8.6738364"><ele>338.0</ele><time>2026-04-30T13:20:04.706Z</time></trkpt><trkpt lat="40.5334764" lon="8.6736579"><ele>338.0</ele><time>2026-04-30T13:20:05.706Z</time></trkpt><trkpt lat="40.5336588" lon="8.6734666"><ele>341.5</ele><time>2026-04-30T13:20:06.706Z</time></trkpt><trkpt lat="40.5338436" lon="8.6732714"><ele>345.0</ele><time>2026-04-30T13:20:07.706Z</time></trkpt><trkpt lat="40.5340345" lon="8.6730783"><ele>345.0</ele><time>2026-04-30T13:20:08.706Z</time></trkpt><trkpt lat="40.5342204" lon="8.672896"><ele>345.0</ele><time>2026-04-30T13:20:09.705Z</time></trkpt><trkpt lat="40.5343946" lon="8.6727293"><ele>345.0</ele><time>2026-04-30T13:20:10.705Z</time></trkpt><trkpt lat="40.5345617" lon="8.6725627"><ele>346.6666666666667</ele><time>2026-04-30T13:20:11.705Z</time></trkpt><trkpt lat="40.5347256" lon="8.6723956"><ele>348.33333333333337</ele><time>2026-04-30T13:20:12.706Z</time></trkpt><trkpt lat="40.5348877" lon="8.6722301"><ele>350.0</ele><time>2026-04-30T13:20:13.706Z</time></trkpt><trkpt lat="40.5350481" lon="8.6720658"><ele>351.0</ele><time>2026-04-30T13:20:14.705Z</time></trkpt><trkpt lat="40.5352133" lon="8.6719021"><ele>352.0</ele><time>2026-04-30T13:20:15.705Z</time></trkpt><trkpt lat="40.5353761" lon="8.6717356"><ele>353.0</ele><time>2026-04-30T13:20:16.706Z</time></trkpt><trkpt lat="40.5355407" lon="8.6715693"><ele>353.0</ele><time>2026-04-30T13:20:17.705Z</time></trkpt><trkpt lat="40.5357037" lon="8.6714023"><ele>353.0</ele><time>2026-04-30T13:20:18.706Z</time></trkpt><trkpt lat="40.535869" lon="8.6712364"><ele>353.0</ele><time>2026-04-30T13:20:19.706Z</time></trkpt><trkpt lat="40.5360338" lon="8.671071"><ele>355.33333333333337</ele><time>2026-04-30T13:20:20.705Z</time></trkpt><trkpt lat="40.5361968" lon="8.6709047"><ele>357.6666666666667</ele><time>2026-04-30T13:20:21.706Z</time></trkpt><trkpt lat="40.5363599" lon="8.6707314"><ele>360.0</ele><time>2026-04-30T13:20:22.706Z</time></trkpt><trkpt lat="40.5365184" lon="8.6705513"><ele>360.0</ele><time>2026-04-30T13:20:23.706Z</time></trkpt><trkpt lat="40.5366719" lon="8.6703613"><ele>360.0</ele><time>2026-04-30T13:20:24.706Z</time></trkpt><trkpt lat="40.5368195" lon="8.6701633"><ele>360.0</ele><time>2026-04-30T13:20:25.706Z</time></trkpt><trkpt lat="40.5369583" lon="8.6699557"><ele>359.3333333333333</ele><time>2026-04-30T13:20:26.706Z</time></trkpt><trkpt lat="40.5370843" lon="8.6697376"><ele>358.66666666666663</ele><time>2026-04-30T13:20:27.706Z</time></trkpt><trkpt lat="40.5371969" lon="8.6695163"><ele>358.0</ele><time>2026-04-30T13:20:28.705Z</time></trkpt><trkpt lat="40.5372979" lon="8.6693052"><ele>360.66666666666663</ele><time>2026-04-30T13:20:29.705Z</time></trkpt><trkpt lat="40.5373951" lon="8.6691036"><ele>363.3333333333333</ele><time>2026-04-30T13:20:30.705Z</time></trkpt><trkpt lat="40.5374932" lon="8.6689183"><ele>366.0</ele><time>2026-04-30T13:20:31.706Z</time></trkpt><trkpt lat="40.5375999" lon="8.6687551"><ele>366.0</ele><time>2026-04-30T13:20:32.705Z</time></trkpt><trkpt lat="40.5377169" lon="8.6686149"><ele>366.0</ele><time>2026-04-30T13:20:33.706Z</time></trkpt><trkpt lat="40.5378479" lon="8.6684895"><ele>366.0</ele><time>2026-04-30T13:20:34.706Z</time></trkpt><trkpt lat="40.5379904" lon="8.6683837"><ele>366.6666666666667</ele><time>2026-04-30T13:20:35.706Z</time></trkpt><trkpt lat="40.5381441" lon="8.6683032"><ele>367.33333333333337</ele><time>2026-04-30T13:20:36.706Z</time></trkpt><trkpt lat="40.5383055" lon="8.6682441"><ele>368.0</ele><time>2026-04-30T13:20:37.705Z</time></trkpt><trkpt lat="40.5384712" lon="8.6681911"><ele>368.0</ele><time>2026-04-30T13:20:38.706Z</time></trkpt><trkpt lat="40.538642" lon="8.6681357"><ele>368.0</ele><time>2026-04-30T13:20:39.706Z</time></trkpt><trkpt lat="40.5388191" lon="8.6680792"><ele>368.0</ele><time>2026-04-30T13:20:40.706Z</time></trkpt><trkpt lat="40.538999" lon="8.6680213"><ele>366.6666666666667</ele><time>2026-04-30T13:20:41.706Z</time></trkpt><trkpt lat="40.5391802" lon="8.6679614"><ele>365.3333333333333</ele><time>2026-04-30T13:20:42.706Z</time></trkpt><trkpt lat="40.5393642" lon="8.6678984"><ele>364.0</ele><time>2026-04-30T13:20:43.706Z</time></trkpt><trkpt lat="40.5395488" lon="8.6678215"><ele>365.66666666666663</ele><time>2026-04-30T13:20:44.706Z</time></trkpt><trkpt lat="40.5397325" lon="8.6677222"><ele>367.3333333333333</ele><time>2026-04-30T13:20:45.705Z</time></trkpt><trkpt lat="40.5399117" lon="8.6675996"><ele>369.0</ele><time>2026-04-30T13:20:46.706Z</time></trkpt><trkpt lat="40.5400858" lon="8.6674563"><ele>369.0</ele><time>2026-04-30T13:20:47.706Z</time></trkpt><trkpt lat="40.5402528" lon="8.6672912"><ele>369.0</ele><time>2026-04-30T13:20:48.706Z</time></trkpt><trkpt lat="40.5404093" lon="8.6671017"><ele>369.0</ele><time>2026-04-30T13:20:49.706Z</time></trkpt><trkpt lat="40.5405585" lon="8.6668981"><ele>367.6666666666667</ele><time>2026-04-30T13:20:50.706Z</time></trkpt><trkpt lat="40.5407084" lon="8.6666853"><ele>366.33333333333337</ele><time>2026-04-30T13:20:51.706Z</time></trkpt><trkpt lat="40.5408623" lon="8.6664691"><ele>365.0</ele><time>2026-04-30T13:20:52.706Z</time></trkpt><trkpt lat="40.5410195" lon="8.6662495"><ele>366.5</ele><time>2026-04-30T13:20:53.705Z</time></trkpt><trkpt lat="40.5411794" lon="8.6660289"><ele>368.0</ele><time>2026-04-30T13:20:54.706Z</time></trkpt><trkpt lat="40.5413397" lon="8.6658057"><ele>363.0</ele><time>2026-04-30T13:20:55.706Z</time></trkpt><trkpt lat="40.5414986" lon="8.6655816"><ele>358.0</ele><time>2026-04-30T13:20:56.706Z</time></trkpt><trkpt lat="40.5416519" lon="8.665365"><ele>359.3333333333333</ele><time>2026-04-30T13:20:57.705Z</time></trkpt><trkpt lat="40.5418037" lon="8.6651464"><ele>360.6666666666667</ele><time>2026-04-30T13:20:58.705Z</time></trkpt><trkpt lat="40.5419534" lon="8.66493"><ele>362.0</ele><time>2026-04-30T13:20:59.706Z</time></trkpt><trkpt lat="40.5421026" lon="8.6647155"><ele>362.0</ele><time>2026-04-30T13:21:00.706Z</time></trkpt><trkpt lat="40.5422517" lon="8.6645013"><ele>362.0</ele><time>2026-04-30T13:21:01.706Z</time></trkpt><trkpt lat="40.5424001" lon="8.6642881"><ele>362.0</ele><time>2026-04-30T13:21:02.706Z</time></trkpt><trkpt lat="40.5425482" lon="8.6640757"><ele>363.0</ele><time>2026-04-30T13:21:03.706Z</time></trkpt><trkpt lat="40.5426978" lon="8.6638639"><ele>364.0</ele><time>2026-04-30T13:21:04.706Z</time></trkpt><trkpt lat="40.5428476" lon="8.6636515"><ele>365.0</ele><time>2026-04-30T13:21:05.706Z</time></trkpt><trkpt lat="40.5430015" lon="8.6634482"><ele>365.0</ele><time>2026-04-30T13:21:06.706Z</time></trkpt><trkpt lat="40.5431583" lon="8.6632637"><ele>365.0</ele><time>2026-04-30T13:21:07.706Z</time></trkpt><trkpt lat="40.543326" lon="8.6630928"><ele>365.0</ele><time>2026-04-30T13:21:08.706Z</time></trkpt><trkpt lat="40.5435053" lon="8.6629441"><ele>365.0</ele><time>2026-04-30T13:21:09.706Z</time></trkpt><trkpt lat="40.5436938" lon="8.6628204"><ele>365.0</ele><time>2026-04-30T13:21:10.706Z</time></trkpt><trkpt lat="40.5438899" lon="8.6627251"><ele>365.0</ele><time>2026-04-30T13:21:11.706Z</time></trkpt><trkpt lat="40.5440946" lon="8.6626575"><ele>365.0</ele><time>2026-04-30T13:21:12.706Z</time></trkpt><trkpt lat="40.5443016" lon="8.662603"><ele>365.0</ele><time>2026-04-30T13:21:13.705Z</time></trkpt><trkpt lat="40.5445053" lon="8.6625514"><ele>365.0</ele><time>2026-04-30T13:21:14.706Z</time></trkpt><trkpt lat="40.5447012" lon="8.6625052"><ele>362.33333333333337</ele><time>2026-04-30T13:21:15.706Z</time></trkpt><trkpt lat="40.5448904" lon="8.6624604"><ele>359.6666666666667</ele><time>2026-04-30T13:21:16.706Z</time></trkpt><trkpt lat="40.5450681" lon="8.662413"><ele>357.0</ele><time>2026-04-30T13:21:17.706Z</time></trkpt><trkpt lat="40.5452322" lon="8.6623468"><ele>356.3333333333333</ele><time>2026-04-30T13:21:18.706Z</time></trkpt><trkpt lat="40.5453812" lon="8.6622561"><ele>355.66666666666663</ele><time>2026-04-30T13:21:19.706Z</time></trkpt><trkpt lat="40.5455099" lon="8.6621338"><ele>355.0</ele><time>2026-04-30T13:21:20.705Z</time></trkpt><trkpt lat="40.5456254" lon="8.6619787"><ele>355.66666666666663</ele><time>2026-04-30T13:21:21.706Z</time></trkpt><trkpt lat="40.5457223" lon="8.6618014"><ele>356.3333333333333</ele><time>2026-04-30T13:21:22.706Z</time></trkpt><trkpt lat="40.545789" lon="8.6615993"><ele>357.0</ele><time>2026-04-30T13:21:23.706Z</time></trkpt><trkpt lat="40.5458265" lon="8.661374"><ele>357.0</ele><time>2026-04-30T13:21:24.705Z</time></trkpt><trkpt lat="40.5458347" lon="8.6611386"><ele>357.0</ele><time>2026-04-30T13:21:25.706Z</time></trkpt><trkpt lat="40.5458202" lon="8.6608971"><ele>357.0</ele><time>2026-04-30T13:21:26.706Z</time></trkpt><trkpt lat="40.5458015" lon="8.6606598"><ele>356.0</ele><time>2026-04-30T13:21:27.706Z</time></trkpt><trkpt lat="40.5458042" lon="8.6604235"><ele>355.0</ele><time>2026-04-30T13:21:28.706Z</time></trkpt><trkpt lat="40.545837" lon="8.6601865"><ele>354.0</ele><time>2026-04-30T13:21:29.705Z</time></trkpt><trkpt lat="40.5458888" lon="8.659951"><ele>353.6666666666667</ele><time>2026-04-30T13:21:30.706Z</time></trkpt><trkpt lat="40.5459481" lon="8.6597274"><ele>353.33333333333337</ele><time>2026-04-30T13:21:31.706Z</time></trkpt><trkpt lat="40.5460104" lon="8.6595142"><ele>353.0</ele><time>2026-04-30T13:21:32.706Z</time></trkpt><trkpt lat="40.5460721" lon="8.6593107"><ele>351.33333333333337</ele><time>2026-04-30T13:21:33.706Z</time></trkpt><trkpt lat="40.5461441" lon="8.6591157"><ele>349.6666666666667</ele><time>2026-04-30T13:21:34.705Z</time></trkpt><trkpt lat="40.5462317" lon="8.6589346"><ele>348.0</ele><time>2026-04-30T13:21:35.705Z</time></trkpt><trkpt lat="40.5463358" lon="8.6587744"><ele>348.0</ele><time>2026-04-30T13:21:36.706Z</time></trkpt><trkpt lat="40.5464542" lon="8.6586273"><ele>348.0</ele><time>2026-04-30T13:21:37.706Z</time></trkpt><trkpt lat="40.5465878" lon="8.6584966"><ele>348.0</ele><time>2026-04-30T13:21:38.706Z</time></trkpt><trkpt lat="40.5467361" lon="8.6583826"><ele>345.3333333333333</ele><time>2026-04-30T13:21:39.705Z</time></trkpt><trkpt lat="40.5468962" lon="8.6582772"><ele>342.66666666666663</ele><time>2026-04-30T13:21:40.706Z</time></trkpt><trkpt lat="40.5470584" lon="8.6581595"><ele>340.0</ele><time>2026-04-30T13:21:41.706Z</time></trkpt><trkpt lat="40.5472109" lon="8.6580287"><ele>340.0</ele><time>2026-04-30T13:21:42.706Z</time></trkpt><trkpt lat="40.5473494" lon="8.6578781"><ele>340.0</ele><time>2026-04-30T13:21:43.706Z</time></trkpt><trkpt lat="40.54748" lon="8.6577103"><ele>340.0</ele><time>2026-04-30T13:21:44.706Z</time></trkpt><trkpt lat="40.5475996" lon="8.6575254"><ele>341.66666666666663</ele><time>2026-04-30T13:21:45.706Z</time></trkpt><trkpt lat="40.5477078" lon="8.6573207"><ele>343.3333333333333</ele><time>2026-04-30T13:21:46.706Z</time></trkpt><trkpt lat="40.5478041" lon="8.6571042"><ele>345.0</ele><time>2026-04-30T13:21:47.706Z</time></trkpt><trkpt lat="40.5478811" lon="8.6568721"><ele>345.0</ele><time>2026-04-30T13:21:48.706Z</time></trkpt><trkpt lat="40.5479386" lon="8.6566282"><ele>345.0</ele><time>2026-04-30T13:21:49.706Z</time></trkpt><trkpt lat="40.5479792" lon="8.6563708"><ele>345.0</ele><time>2026-04-30T13:21:50.705Z</time></trkpt><trkpt lat="40.5480002" lon="8.6561073"><ele>342.0</ele><time>2026-04-30T13:21:51.706Z</time></trkpt><trkpt lat="40.5480006" lon="8.6558402"><ele>339.0</ele><time>2026-04-30T13:21:52.706Z</time></trkpt><trkpt lat="40.5479887" lon="8.6555681"><ele>336.0</ele><time>2026-04-30T13:21:53.706Z</time></trkpt><trkpt lat="40.5479768" lon="8.6552887"><ele>336.0</ele><time>2026-04-30T13:21:54.706Z</time></trkpt><trkpt lat="40.5479628" lon="8.6550049"><ele>336.0</ele><time>2026-04-30T13:21:55.706Z</time></trkpt><trkpt lat="40.5479487" lon="8.6547343"><ele>336.0</ele><time>2026-04-30T13:21:56.706Z</time></trkpt><trkpt lat="40.5479409" lon="8.6544817"><ele>337.0</ele><time>2026-04-30T13:21:57.706Z</time></trkpt><trkpt lat="40.547949" lon="8.6542497"><ele>338.0</ele><time>2026-04-30T13:21:58.706Z</time></trkpt><trkpt lat="40.5479825" lon="8.6540306"><ele>339.0</ele><time>2026-04-30T13:21:59.706Z</time></trkpt><trkpt lat="40.548049" lon="8.6538382"><ele>339.0</ele><time>2026-04-30T13:22:00.706Z</time></trkpt><trkpt lat="40.5481447" lon="8.6536766"><ele>339.0</ele><time>2026-04-30T13:22:01.705Z</time></trkpt><trkpt lat="40.548271" lon="8.6535473"><ele>339.0</ele><time>2026-04-30T13:22:02.706Z</time></trkpt><trkpt lat="40.5484141" lon="8.653456"><ele>339.6666666666667</ele><time>2026-04-30T13:22:03.705Z</time></trkpt><trkpt lat="40.5485693" lon="8.6534125"><ele>340.33333333333337</ele><time>2026-04-30T13:22:04.706Z</time></trkpt><trkpt lat="40.5487295" lon="8.6534184"><ele>341.0</ele><time>2026-04-30T13:22:05.706Z</time></trkpt><trkpt lat="40.5488877" lon="8.6534697"><ele>341.0</ele><time>2026-04-30T13:22:06.706Z</time></trkpt><trkpt lat="40.5490268" lon="8.6535644"><ele>341.0</ele><time>2026-04-30T13:22:07.705Z</time></trkpt><trkpt lat="40.5491374" lon="8.6536989"><ele>341.0</ele><time>2026-04-30T13:22:08.706Z</time></trkpt><trkpt lat="40.5492232" lon="8.653862"><ele>341.0</ele><time>2026-04-30T13:22:09.706Z</time></trkpt><trkpt lat="40.5492874" lon="8.6540448"><ele>341.0</ele><time>2026-04-30T13:22:10.706Z</time></trkpt><trkpt lat="40.5493232" lon="8.6542481"><ele>341.0</ele><time>2026-04-30T13:22:11.705Z</time></trkpt><trkpt lat="40.5493493" lon="8.65447"><ele>340.0</ele><time>2026-04-30T13:22:12.705Z</time></trkpt><trkpt lat="40.5493799" lon="8.6547211"><ele>339.0</ele><time>2026-04-30T13:22:13.706Z</time></trkpt><trkpt lat="40.5494273" lon="8.6549522"><ele>338.0</ele><time>2026-04-30T13:22:14.706Z</time></trkpt><trkpt lat="40.5494858" lon="8.6551678"><ele>340.0</ele><time>2026-04-30T13:22:15.706Z</time></trkpt><trkpt lat="40.5495732" lon="8.6553894"><ele>342.0</ele><time>2026-04-30T13:22:16.706Z</time></trkpt><trkpt lat="40.5496899" lon="8.6556212"><ele>344.0</ele><time>2026-04-30T13:22:17.706Z</time></trkpt><trkpt lat="40.5498256" lon="8.6558817"><ele>341.0</ele><time>2026-04-30T13:22:18.706Z</time></trkpt><trkpt lat="40.5499735" lon="8.6561762"><ele>338.0</ele><time>2026-04-30T13:22:19.705Z</time></trkpt><trkpt lat="40.5501216" lon="8.6564842"><ele>338.0</ele><time>2026-04-30T13:22:20.706Z</time></trkpt><trkpt lat="40.5502605" lon="8.6567746"><ele>338.0</ele><time>2026-04-30T13:22:21.706Z</time></trkpt><trkpt lat="40.5504026" lon="8.6570675"><ele>338.5</ele><time>2026-04-30T13:22:22.706Z</time></trkpt><trkpt lat="40.5505463" lon="8.6573501"><ele>339.0</ele><time>2026-04-30T13:22:23.706Z</time></trkpt><trkpt lat="40.5506899" lon="8.657629"><ele>339.5</ele><time>2026-04-30T13:22:24.706Z</time></trkpt><trkpt lat="40.5508206" lon="8.6578918"><ele>340.0</ele><time>2026-04-30T13:22:25.706Z</time></trkpt><trkpt lat="40.5509421" lon="8.6581269"><ele>340.0</ele><time>2026-04-30T13:22:26.706Z</time></trkpt><trkpt lat="40.5510671" lon="8.658329"><ele>340.0</ele><time>2026-04-30T13:22:27.706Z</time></trkpt><trkpt lat="40.5512015" lon="8.658489"><ele>340.0</ele><time>2026-04-30T13:22:28.706Z</time></trkpt><trkpt lat="40.551353" lon="8.6586161"><ele>342.0</ele><time>2026-04-30T13:22:29.706Z</time></trkpt><trkpt lat="40.5515259" lon="8.6586974"><ele>344.0</ele><time>2026-04-30T13:22:30.706Z</time></trkpt><trkpt lat="40.5517072" lon="8.6587399"><ele>346.0</ele><time>2026-04-30T13:22:31.705Z</time></trkpt><trkpt lat="40.5518958" lon="8.6587323"><ele>351.66666666666663</ele><time>2026-04-30T13:22:32.706Z</time></trkpt><trkpt lat="40.5520799" lon="8.6586717"><ele>357.3333333333333</ele><time>2026-04-30T13:22:33.706Z</time></trkpt><trkpt lat="40.5522548" lon="8.6585577"><ele>363.0</ele><time>2026-04-30T13:22:34.705Z</time></trkpt><trkpt lat="40.5524157" lon="8.6583974"><ele>363.0</ele><time>2026-04-30T13:22:35.706Z</time></trkpt><trkpt lat="40.5525466" lon="8.6581939"><ele>363.0</ele><time>2026-04-30T13:22:36.706Z</time></trkpt><trkpt lat="40.5526465" lon="8.65795"><ele>363.0</ele><time>2026-04-30T13:22:37.705Z</time></trkpt><trkpt lat="40.5527306" lon="8.6576662"><ele>361.5</ele><time>2026-04-30T13:22:38.706Z</time></trkpt><trkpt lat="40.5528061" lon="8.6573495"><ele>360.0</ele><time>2026-04-30T13:22:39.706Z</time></trkpt><trkpt lat="40.5528803" lon="8.6570266"><ele>366.3333333333333</ele><time>2026-04-30T13:22:40.705Z</time></trkpt><trkpt lat="40.552949" lon="8.6567576"><ele>372.66666666666663</ele><time>2026-04-30T13:22:41.706Z</time></trkpt><trkpt lat="40.5529958" lon="8.6565288"><ele>379.0</ele><time>2026-04-30T13:22:42.706Z</time></trkpt><trkpt lat="40.5529978" lon="8.6563328"><ele>379.0</ele><time>2026-04-30T13:22:43.706Z</time></trkpt><trkpt lat="40.5529552" lon="8.6561459"><ele>379.0</ele><time>2026-04-30T13:22:44.706Z</time></trkpt><trkpt lat="40.5528794" lon="8.6559735"><ele>379.0</ele><time>2026-04-30T13:22:45.705Z</time></trkpt><trkpt lat="40.5528148" lon="8.6558224"><ele>379.0</ele><time>2026-04-30T13:22:46.706Z</time></trkpt><trkpt lat="40.5527842" lon="8.6556741"><ele>380.75</ele><time>2026-04-30T13:22:47.705Z</time></trkpt><trkpt lat="40.5527955" lon="8.6555164"><ele>382.5</ele><time>2026-04-30T13:22:48.706Z</time></trkpt><trkpt lat="40.5528432" lon="8.655345"><ele>384.25</ele><time>2026-04-30T13:22:49.706Z</time></trkpt><trkpt lat="40.5529203" lon="8.6551505"><ele>386.0</ele><time>2026-04-30T13:22:50.706Z</time></trkpt><trkpt lat="40.5530118" lon="8.6549173"><ele>386.0</ele><time>2026-04-30T13:22:51.706Z</time></trkpt><trkpt lat="40.5530896" lon="8.654695"><ele>386.0</ele><time>2026-04-30T13:22:52.706Z</time></trkpt><trkpt lat="40.5531582" lon="8.6545008"><ele>386.0</ele><time>2026-04-30T13:22:53.706Z</time></trkpt><trkpt lat="40.5532385" lon="8.6543352"><ele>384.75</ele><time>2026-04-30T13:22:54.706Z</time></trkpt><trkpt lat="40.5533404" lon="8.6541939"><ele>383.5</ele><time>2026-04-30T13:22:55.706Z</time></trkpt><trkpt lat="40.5534534" lon="8.6540633"><ele>382.25</ele><time>2026-04-30T13:22:56.706Z</time></trkpt><trkpt lat="40.553566" lon="8.6539329"><ele>381.0</ele><time>2026-04-30T13:22:57.705Z</time></trkpt><trkpt lat="40.5536851" lon="8.6538084"><ele>386.66666666666663</ele><time>2026-04-30T13:22:58.706Z</time></trkpt><trkpt lat="40.5538099" lon="8.6536888"><ele>392.3333333333333</ele><time>2026-04-30T13:22:59.706Z</time></trkpt><trkpt lat="40.5539288" lon="8.653561"><ele>398.0</ele><time>2026-04-30T13:23:00.705Z</time></trkpt><trkpt lat="40.5540327" lon="8.6534106"><ele>398.0</ele><time>2026-04-30T13:23:01.706Z</time></trkpt><trkpt lat="40.5541201" lon="8.6532286"><ele>398.0</ele><time>2026-04-30T13:23:02.706Z</time></trkpt><trkpt lat="40.5542018" lon="8.6530355"><ele>398.0</ele><time>2026-04-30T13:23:03.705Z</time></trkpt><trkpt lat="40.5542827" lon="8.652833"><ele>396.3333333333333</ele><time>2026-04-30T13:23:04.706Z</time></trkpt><trkpt lat="40.5543652" lon="8.652625"><ele>394.66666666666663</ele><time>2026-04-30T13:23:05.706Z</time></trkpt><trkpt lat="40.5544522" lon="8.6524221"><ele>393.0</ele><time>2026-04-30T13:23:06.706Z</time></trkpt><trkpt lat="40.5545566" lon="8.6522373"><ele>397.0</ele><time>2026-04-30T13:23:07.706Z</time></trkpt><trkpt lat="40.5546798" lon="8.6520719"><ele>401.0</ele><time>2026-04-30T13:23:08.706Z</time></trkpt><trkpt lat="40.554816" lon="8.6519181"><ele>405.0</ele><time>2026-04-30T13:23:09.706Z</time></trkpt><trkpt lat="40.5549536" lon="8.6517735"><ele>405.0</ele><time>2026-04-30T13:23:10.705Z</time></trkpt><trkpt lat="40.5550976" lon="8.6516573"><ele>405.0</ele><time>2026-04-30T13:23:11.706Z</time></trkpt><trkpt lat="40.5552503" lon="8.6515643"><ele>405.0</ele><time>2026-04-30T13:23:12.705Z</time></trkpt><trkpt lat="40.5554083" lon="8.6514988"><ele>411.0</ele><time>2026-04-30T13:23:13.706Z</time></trkpt><trkpt lat="40.5555662" lon="8.6514348"><ele>417.0</ele><time>2026-04-30T13:23:14.706Z</time></trkpt><trkpt lat="40.5557201" lon="8.6513341"><ele>423.0</ele><time>2026-04-30T13:23:15.705Z</time></trkpt><trkpt lat="40.5558661" lon="8.6511992"><ele>424.33333333333337</ele><time>2026-04-30T13:23:16.706Z</time></trkpt><trkpt lat="40.5560066" lon="8.6510601"><ele>425.6666666666667</ele><time>2026-04-30T13:23:17.706Z</time></trkpt><trkpt lat="40.5561614" lon="8.6509484"><ele>427.0</ele><time>2026-04-30T13:23:18.705Z</time></trkpt><trkpt lat="40.5563256" lon="8.6508509"><ele>427.0</ele><time>2026-04-30T13:23:19.706Z</time></trkpt><trkpt lat="40.5564879" lon="8.6507329"><ele>427.0</ele><time>2026-04-30T13:23:20.706Z</time></trkpt><trkpt lat="40.556643" lon="8.650591"><ele>427.0</ele><time>2026-04-30T13:23:21.706Z</time></trkpt><trkpt lat="40.5567995" lon="8.6504331"><ele>424.0</ele><time>2026-04-30T13:23:22.706Z</time></trkpt><trkpt lat="40.5569559" lon="8.6502716"><ele>421.0</ele><time>2026-04-30T13:23:23.706Z</time></trkpt><trkpt lat="40.5571135" lon="8.6501058"><ele>418.0</ele><time>2026-04-30T13:23:24.706Z</time></trkpt><trkpt lat="40.5572728" lon="8.6499383"><ele>420.6666666666667</ele><time>2026-04-30T13:23:25.706Z</time></trkpt><trkpt lat="40.5574328" lon="8.6497725"><ele>423.33333333333337</ele><time>2026-04-30T13:23:26.706Z</time></trkpt><trkpt lat="40.5575879" lon="8.6496082"><ele>426.0</ele><time>2026-04-30T13:23:27.706Z</time></trkpt><trkpt lat="40.5577247" lon="8.6494468"><ele>426.0</ele><time>2026-04-30T13:23:28.705Z</time></trkpt><trkpt lat="40.5578334" lon="8.6492755"><ele>426.0</ele><time>2026-04-30T13:23:29.706Z</time></trkpt><trkpt lat="40.5579231" lon="8.6491038"><ele>426.0</ele><time>2026-04-30T13:23:30.706Z</time></trkpt><trkpt lat="40.5580242" lon="8.6489489"><ele>429.33333333333337</ele><time>2026-04-30T13:23:31.705Z</time></trkpt><trkpt lat="40.5581567" lon="8.6488164"><ele>432.6666666666667</ele><time>2026-04-30T13:23:32.706Z</time></trkpt><trkpt lat="40.5582987" lon="8.6486814"><ele>436.0</ele><time>2026-04-30T13:23:33.706Z</time></trkpt><trkpt lat="40.5584417" lon="8.6485476"><ele>436.0</ele><time>2026-04-30T13:23:34.706Z</time></trkpt><trkpt lat="40.5585853" lon="8.6484153"><ele>436.0</ele><time>2026-04-30T13:23:35.706Z</time></trkpt><trkpt lat="40.558731" lon="8.6482973"><ele>436.0</ele><time>2026-04-30T13:23:36.706Z</time></trkpt><trkpt lat="40.5588806" lon="8.6482072"><ele>441.0</ele><time>2026-04-30T13:23:37.706Z</time></trkpt><trkpt lat="40.5590366" lon="8.6481474"><ele>446.0</ele><time>2026-04-30T13:23:38.705Z</time></trkpt><trkpt lat="40.5592021" lon="8.6481043"><ele>451.0</ele><time>2026-04-30T13:23:39.706Z</time></trkpt><trkpt lat="40.5593726" lon="8.6480759"><ele>454.33333333333337</ele><time>2026-04-30T13:23:40.706Z</time></trkpt><trkpt lat="40.559544" lon="8.648048"><ele>457.66666666666663</ele><time>2026-04-30T13:23:41.706Z</time></trkpt><trkpt lat="40.5596933" lon="8.6480116"><ele>461.0</ele><time>2026-04-30T13:23:42.706Z</time></trkpt><trkpt lat="40.559827" lon="8.6479517"><ele>461.0</ele><time>2026-04-30T13:23:43.706Z</time></trkpt><trkpt lat="40.5599466" lon="8.6478582"><ele>461.0</ele><time>2026-04-30T13:23:44.706Z</time></trkpt><trkpt lat="40.5600405" lon="8.6477339"><ele>461.0</ele><time>2026-04-30T13:23:45.706Z</time></trkpt><trkpt lat="40.5601013" lon="8.6475767"><ele>461.0</ele><time>2026-04-30T13:23:46.706Z</time></trkpt><trkpt lat="40.5601321" lon="8.6473996"><ele>458.66666666666663</ele><time>2026-04-30T13:23:47.706Z</time></trkpt><trkpt lat="40.5601257" lon="8.6471973"><ele>456.33333333333337</ele><time>2026-04-30T13:23:48.705Z</time></trkpt><trkpt lat="40.5600975" lon="8.6469892"><ele>454.0</ele><time>2026-04-30T13:23:49.705Z</time></trkpt><trkpt lat="40.560065" lon="8.6467971"><ele>454.0</ele><time>2026-04-30T13:23:50.706Z</time></trkpt><trkpt lat="40.5600488" lon="8.6466048"><ele>454.0</ele><time>2026-04-30T13:23:51.706Z</time></trkpt><trkpt lat="40.560073" lon="8.6464281"><ele>454.0</ele><time>2026-04-30T13:23:52.706Z</time></trkpt><trkpt lat="40.5601366" lon="8.6462838"><ele>454.0</ele><time>2026-04-30T13:23:53.706Z</time></trkpt><trkpt lat="40.5602363" lon="8.6461563"><ele>458.0</ele><time>2026-04-30T13:23:54.706Z</time></trkpt><trkpt lat="40.5603674" lon="8.6460351"><ele>462.0</ele><time>2026-04-30T13:23:55.706Z</time></trkpt><trkpt lat="40.5605236" lon="8.6459184"><ele>466.0</ele><time>2026-04-30T13:23:56.706Z</time></trkpt><trkpt lat="40.5606864" lon="8.645832"><ele>466.0</ele><time>2026-04-30T13:23:57.706Z</time></trkpt><trkpt lat="40.5608374" lon="8.645773"><ele>466.0</ele><time>2026-04-30T13:23:58.706Z</time></trkpt><trkpt lat="40.5609567" lon="8.6456804"><ele>466.0</ele><time>2026-04-30T13:23:59.706Z</time></trkpt><trkpt lat="40.5610467" lon="8.6455432"><ele>466.0</ele><time>2026-04-30T13:24:00.706Z</time></trkpt><trkpt lat="40.5611141" lon="8.6453647"><ele>466.33333333333337</ele><time>2026-04-30T13:24:01.706Z</time></trkpt><trkpt lat="40.561162" lon="8.6451582"><ele>466.66666666666663</ele><time>2026-04-30T13:24:02.706Z</time></trkpt><trkpt lat="40.5611963" lon="8.6449271"><ele>467.0</ele><time>2026-04-30T13:24:03.706Z</time></trkpt><trkpt lat="40.561216" lon="8.6446885"><ele>468.3333333333333</ele><time>2026-04-30T13:24:04.706Z</time></trkpt><trkpt lat="40.5612175" lon="8.6444448"><ele>469.66666666666663</ele><time>2026-04-30T13:24:05.705Z</time></trkpt><trkpt lat="40.5612032" lon="8.6441969"><ele>471.0</ele><time>2026-04-30T13:24:06.706Z</time></trkpt><trkpt lat="40.5611842" lon="8.6439466"><ele>471.0</ele><time>2026-04-30T13:24:07.706Z</time></trkpt><trkpt lat="40.5611625" lon="8.6436909"><ele>471.0</ele><time>2026-04-30T13:24:08.706Z</time></trkpt><trkpt lat="40.5611421" lon="8.6434411"><ele>471.0</ele><time>2026-04-30T13:24:09.706Z</time></trkpt><trkpt lat="40.5611227" lon="8.6432134"><ele>473.25</ele><time>2026-04-30T13:24:10.706Z</time></trkpt><trkpt lat="40.5611118" lon="8.6430075"><ele>475.5</ele><time>2026-04-30T13:24:11.706Z</time></trkpt><trkpt lat="40.5611333" lon="8.6428373"><ele>477.75</ele><time>2026-04-30T13:24:12.705Z</time></trkpt><trkpt lat="40.5611911" lon="8.6427052"><ele>480.0</ele><time>2026-04-30T13:24:13.706Z</time></trkpt><trkpt lat="40.5612808" lon="8.6426103"><ele>483.75</ele><time>2026-04-30T13:24:14.706Z</time></trkpt><trkpt lat="40.5613966" lon="8.642559"><ele>487.5</ele><time>2026-04-30T13:24:15.706Z</time></trkpt><trkpt lat="40.5615352" lon="8.6425303"><ele>491.25</ele><time>2026-04-30T13:24:16.706Z</time></trkpt><trkpt lat="40.5616871" lon="8.6425008"><ele>495.0</ele><time>2026-04-30T13:24:17.706Z</time></trkpt><trkpt lat="40.5618413" lon="8.6424581"><ele>495.0</ele><time>2026-04-30T13:24:18.705Z</time></trkpt><trkpt lat="40.5620061" lon="8.6423974"><ele>495.0</ele><time>2026-04-30T13:24:19.706Z</time></trkpt><trkpt lat="40.5621731" lon="8.6423318"><ele>495.0</ele><time>2026-04-30T13:24:20.706Z</time></trkpt><trkpt lat="40.5623327" lon="8.6422669"><ele>499.0</ele><time>2026-04-30T13:24:21.706Z</time></trkpt><trkpt lat="40.5625051" lon="8.6421912"><ele>503.0</ele><time>2026-04-30T13:24:22.705Z</time></trkpt><trkpt lat="40.5626555" lon="8.6421124"><ele>507.0</ele><time>2026-04-30T13:24:23.706Z</time></trkpt><trkpt lat="40.5627776" lon="8.6420168"><ele>508.5</ele><time>2026-04-30T13:24:24.706Z</time></trkpt><trkpt lat="40.562866" lon="8.6418976"><ele>510.0</ele><time>2026-04-30T13:24:25.706Z</time></trkpt><trkpt lat="40.5629189" lon="8.641751"><ele>511.5</ele><time>2026-04-30T13:24:26.706Z</time></trkpt><trkpt lat="40.5629431" lon="8.6415968"><ele>513.0</ele><time>2026-04-30T13:24:27.706Z</time></trkpt><trkpt lat="40.5629528" lon="8.6414418"><ele>513.0</ele><time>2026-04-30T13:24:28.706Z</time></trkpt><trkpt lat="40.5629954" lon="8.6413285"><ele>513.0</ele><time>2026-04-30T13:24:29.706Z</time></trkpt><trkpt lat="40.56306" lon="8.6412914"><ele>513.0</ele><time>2026-04-30T13:24:30.705Z</time></trkpt><trkpt lat="40.563178" lon="8.6413663"><ele>513.0</ele><time>2026-04-30T13:24:32.706Z</time></trkpt><trkpt lat="40.563224" lon="8.6414824"><ele>513.0</ele><time>2026-04-30T13:24:33.705Z</time></trkpt><trkpt lat="40.5632745" lon="8.6416292"><ele>513.0</ele><time>2026-04-30T13:24:34.706Z</time></trkpt><trkpt lat="40.5633432" lon="8.6417666"><ele>513.0</ele><time>2026-04-30T13:24:35.706Z</time></trkpt><trkpt lat="40.5634359" lon="8.6418752"><ele>513.0</ele><time>2026-04-30T13:24:36.706Z</time></trkpt><trkpt lat="40.5635481" lon="8.6419378"><ele>513.0</ele><time>2026-04-30T13:24:37.706Z</time></trkpt><trkpt lat="40.5636766" lon="8.6419596"><ele>516.3333333333334</ele><time>2026-04-30T13:24:38.705Z</time></trkpt><trkpt lat="40.5638271" lon="8.6419601"><ele>519.6666666666667</ele><time>2026-04-30T13:24:39.706Z</time></trkpt><trkpt lat="40.5639965" lon="8.6419559"><ele>523.0</ele><time>2026-04-30T13:24:40.705Z</time></trkpt><trkpt lat="40.5641775" lon="8.6419535"><ele>523.0</ele><time>2026-04-30T13:24:41.706Z</time></trkpt><trkpt lat="40.564371" lon="8.6419493"><ele>523.0</ele><time>2026-04-30T13:24:42.706Z</time></trkpt><trkpt lat="40.5645745" lon="8.6419445"><ele>523.0</ele><time>2026-04-30T13:24:43.706Z</time></trkpt><trkpt lat="40.5647786" lon="8.6419366"><ele>524.0</ele><time>2026-04-30T13:24:44.705Z</time></trkpt><trkpt lat="40.5649865" lon="8.6419276"><ele>525.0</ele><time>2026-04-30T13:24:45.706Z</time></trkpt><trkpt lat="40.565198" lon="8.6419208"><ele>526.0</ele><time>2026-04-30T13:24:46.706Z</time></trkpt><trkpt lat="40.5654115" lon="8.6419162"><ele>527.0</ele><time>2026-04-30T13:24:47.706Z</time></trkpt><trkpt lat="40.5656234" lon="8.6419108"><ele>528.0</ele><time>2026-04-30T13:24:48.706Z</time></trkpt><trkpt lat="40.565836" lon="8.6419023"><ele>529.0</ele><time>2026-04-30T13:24:49.706Z</time></trkpt><trkpt lat="40.5660382" lon="8.6418925"><ele>530.0</ele><time>2026-04-30T13:24:50.705Z</time></trkpt><trkpt lat="40.5662307" lon="8.6418839"><ele>531.0</ele><time>2026-04-30T13:24:51.705Z</time></trkpt><trkpt lat="40.5664117" lon="8.6418667"><ele>532.0</ele><time>2026-04-30T13:24:52.706Z</time></trkpt><trkpt lat="40.5665858" lon="8.6418236"><ele>532.0</ele><time>2026-04-30T13:24:53.706Z</time></trkpt><trkpt lat="40.5667574" lon="8.6417432"><ele>532.0</ele><time>2026-04-30T13:24:54.705Z</time></trkpt><trkpt lat="40.5669219" lon="8.6416132"><ele>532.0</ele><time>2026-04-30T13:24:55.706Z</time></trkpt><trkpt lat="40.5670827" lon="8.6414686"><ele>533.0</ele><time>2026-04-30T13:24:56.706Z</time></trkpt><trkpt lat="40.5672479" lon="8.6413095"><ele>534.0</ele><time>2026-04-30T13:24:57.706Z</time></trkpt><trkpt lat="40.5674162" lon="8.6411441"><ele>535.0</ele><time>2026-04-30T13:24:58.706Z</time></trkpt><trkpt lat="40.5675878" lon="8.6409761"><ele>535.0</ele><time>2026-04-30T13:24:59.706Z</time></trkpt><trkpt lat="40.5677588" lon="8.6408082"><ele>535.0</ele><time>2026-04-30T13:25:00.705Z</time></trkpt><trkpt lat="40.5679317" lon="8.6406407"><ele>535.0</ele><time>2026-04-30T13:25:01.705Z</time></trkpt><trkpt lat="40.5681041" lon="8.6404718"><ele>536.0</ele><time>2026-04-30T13:25:02.705Z</time></trkpt><trkpt lat="40.5682739" lon="8.6403043"><ele>537.0</ele><time>2026-04-30T13:25:03.706Z</time></trkpt><trkpt lat="40.5684447" lon="8.6401335"><ele>538.0</ele><time>2026-04-30T13:25:04.706Z</time></trkpt><trkpt lat="40.568611" lon="8.6399716"><ele>537.3333333333334</ele><time>2026-04-30T13:25:05.706Z</time></trkpt><trkpt lat="40.568764" lon="8.6398201"><ele>536.6666666666666</ele><time>2026-04-30T13:25:06.706Z</time></trkpt><trkpt lat="40.5688994" lon="8.6396712"><ele>536.0</ele><time>2026-04-30T13:25:07.706Z</time></trkpt><trkpt lat="40.5690125" lon="8.6395075"><ele>536.6666666666666</ele><time>2026-04-30T13:25:08.706Z</time></trkpt><trkpt lat="40.5690903" lon="8.6393036"><ele>537.3333333333334</ele><time>2026-04-30T13:25:09.706Z</time></trkpt><trkpt lat="40.5691562" lon="8.6390777"><ele>538.0</ele><time>2026-04-30T13:25:10.705Z</time></trkpt><trkpt lat="40.5692186" lon="8.6388329"><ele>539.6666666666667</ele><time>2026-04-30T13:25:11.706Z</time></trkpt><trkpt lat="40.5692797" lon="8.6385847"><ele>541.3333333333334</ele><time>2026-04-30T13:25:12.706Z</time></trkpt><trkpt lat="40.5693362" lon="8.6383518"><ele>543.0</ele><time>2026-04-30T13:25:13.705Z</time></trkpt><trkpt lat="40.5693692" lon="8.6381269"><ele>543.0</ele><time>2026-04-30T13:25:14.705Z</time></trkpt><trkpt lat="40.5693597" lon="8.6379154"><ele>543.0</ele><time>2026-04-30T13:25:15.705Z</time></trkpt><trkpt lat="40.5693299" lon="8.6377386"><ele>543.0</ele><time>2026-04-30T13:25:16.705Z</time></trkpt><trkpt lat="40.5693209" lon="8.6375696"><ele>543.0</ele><time>2026-04-30T13:25:17.706Z</time></trkpt><trkpt lat="40.5693519" lon="8.6374166"><ele>544.25</ele><time>2026-04-30T13:25:18.705Z</time></trkpt><trkpt lat="40.5694195" lon="8.6372793"><ele>545.5</ele><time>2026-04-30T13:25:19.706Z</time></trkpt><trkpt lat="40.5695018" lon="8.6371535"><ele>546.75</ele><time>2026-04-30T13:25:20.706Z</time></trkpt><trkpt lat="40.5695654" lon="8.6369965"><ele>548.0</ele><time>2026-04-30T13:25:21.706Z</time></trkpt><trkpt lat="40.5695946" lon="8.6368148"><ele>548.5</ele><time>2026-04-30T13:25:22.706Z</time></trkpt><trkpt lat="40.5695725" lon="8.6366474"><ele>549.0</ele><time>2026-04-30T13:25:23.705Z</time></trkpt><trkpt lat="40.5695065" lon="8.6364915"><ele>549.5</ele><time>2026-04-30T13:25:24.706Z</time></trkpt><trkpt lat="40.5694187" lon="8.636349"><ele>550.0</ele><time>2026-04-30T13:25:25.706Z</time></trkpt><trkpt lat="40.5693542" lon="8.6362048"><ele>550.5</ele><time>2026-04-30T13:25:26.706Z</time></trkpt><trkpt lat="40.5693226" lon="8.6360481"><ele>551.0</ele><time>2026-04-30T13:25:27.706Z</time></trkpt><trkpt lat="40.5693408" lon="8.6358967"><ele>551.5</ele><time>2026-04-30T13:25:28.706Z</time></trkpt><trkpt lat="40.5694052" lon="8.6357769"><ele>552.0</ele><time>2026-04-30T13:25:29.706Z</time></trkpt><trkpt lat="40.5694947" lon="8.6356743"><ele>547.5</ele><time>2026-04-30T13:25:30.706Z</time></trkpt><trkpt lat="40.5695612" lon="8.6355385"><ele>543.0</ele><time>2026-04-30T13:25:31.706Z</time></trkpt><trkpt lat="40.5695889" lon="8.6353632"><ele>538.5</ele><time>2026-04-30T13:25:32.706Z</time></trkpt><trkpt lat="40.5696007" lon="8.635167"><ele>534.0</ele><time>2026-04-30T13:25:33.706Z</time></trkpt><trkpt lat="40.5696447" lon="8.6349663"><ele>534.0</ele><time>2026-04-30T13:25:34.706Z</time></trkpt><trkpt lat="40.5697098" lon="8.634773"><ele>534.0</ele><time>2026-04-30T13:25:35.706Z</time></trkpt><trkpt lat="40.5697528" lon="8.6345732"><ele>534.0</ele><time>2026-04-30T13:25:36.706Z</time></trkpt><trkpt lat="40.5697502" lon="8.6343565"><ele>535.6666666666666</ele><time>2026-04-30T13:25:37.706Z</time></trkpt><trkpt lat="40.5697407" lon="8.634137"><ele>537.3333333333333</ele><time>2026-04-30T13:25:38.706Z</time></trkpt><trkpt lat="40.5697697" lon="8.6339069"><ele>539.0</ele><time>2026-04-30T13:25:39.706Z</time></trkpt><trkpt lat="40.5698354" lon="8.6336687"><ele>542.0</ele><time>2026-04-30T13:25:40.706Z</time></trkpt><trkpt lat="40.5699169" lon="8.6334051"><ele>545.0</ele><time>2026-04-30T13:25:41.706Z</time></trkpt><trkpt lat="40.5700076" lon="8.6331173"><ele>545.0</ele><time>2026-04-30T13:25:42.706Z</time></trkpt><trkpt lat="40.5700869" lon="8.6328594"><ele>545.0</ele><time>2026-04-30T13:25:43.705Z</time></trkpt><trkpt lat="40.5701567" lon="8.6326292"><ele>545.0</ele><time>2026-04-30T13:25:44.706Z</time></trkpt><trkpt lat="40.5702266" lon="8.6324195"><ele>547.3333333333333</ele><time>2026-04-30T13:25:45.706Z</time></trkpt><trkpt lat="40.5703106" lon="8.6322358"><ele>549.6666666666666</ele><time>2026-04-30T13:25:46.706Z</time></trkpt><trkpt lat="40.5704263" lon="8.632084"><ele>552.0</ele><time>2026-04-30T13:25:47.706Z</time></trkpt><trkpt lat="40.5705743" lon="8.6319503"><ele>552.0</ele><time>2026-04-30T13:25:48.706Z</time></trkpt><trkpt lat="40.5707475" lon="8.6318159"><ele>552.0</ele><time>2026-04-30T13:25:49.706Z</time></trkpt><trkpt lat="40.5709405" lon="8.6316836"><ele>552.0</ele><time>2026-04-30T13:25:50.706Z</time></trkpt><trkpt lat="40.5711458" lon="8.6315656"><ele>548.3333333333334</ele><time>2026-04-30T13:25:51.706Z</time></trkpt><trkpt lat="40.5713404" lon="8.631466"><ele>544.6666666666667</ele><time>2026-04-30T13:25:52.705Z</time></trkpt><trkpt lat="40.5715229" lon="8.631364"><ele>541.0</ele><time>2026-04-30T13:25:53.705Z</time></trkpt><trkpt lat="40.5716761" lon="8.6312364"><ele>542.3333333333334</ele><time>2026-04-30T13:25:54.706Z</time></trkpt><trkpt lat="40.5718161" lon="8.6310867"><ele>543.6666666666666</ele><time>2026-04-30T13:25:55.705Z</time></trkpt><trkpt lat="40.5719362" lon="8.6309071"><ele>545.0</ele><time>2026-04-30T13:25:56.706Z</time></trkpt><trkpt lat="40.5720356" lon="8.6307015"><ele>545.0</ele><time>2026-04-30T13:25:57.705Z</time></trkpt><trkpt lat="40.5721239" lon="8.6304724"><ele>545.0</ele><time>2026-04-30T13:25:58.705Z</time></trkpt><trkpt lat="40.5722117" lon="8.6302317"><ele>545.0</ele><time>2026-04-30T13:25:59.706Z</time></trkpt><trkpt lat="40.5723029" lon="8.6299845"><ele>545.0</ele><time>2026-04-30T13:26:00.706Z</time></trkpt><trkpt lat="40.5723969" lon="8.6297312"><ele>545.0</ele><time>2026-04-30T13:26:01.706Z</time></trkpt><trkpt lat="40.5724908" lon="8.6294733"><ele>545.0</ele><time>2026-04-30T13:26:02.705Z</time></trkpt><trkpt lat="40.5725848" lon="8.6292069"><ele>544.5</ele><time>2026-04-30T13:26:03.706Z</time></trkpt><trkpt lat="40.5726786" lon="8.6289344"><ele>544.0</ele><time>2026-04-30T13:26:04.706Z</time></trkpt><trkpt lat="40.5727719" lon="8.6286551"><ele>543.0</ele><time>2026-04-30T13:26:05.706Z</time></trkpt><trkpt lat="40.5728635" lon="8.6283712"><ele>542.0</ele><time>2026-04-30T13:26:06.706Z</time></trkpt><trkpt lat="40.5729541" lon="8.6280795"><ele>542.0</ele><time>2026-04-30T13:26:07.706Z</time></trkpt><trkpt lat="40.5730444" lon="8.627787"><ele>542.0</ele><time>2026-04-30T13:26:08.706Z</time></trkpt><trkpt lat="40.5731343" lon="8.627496"><ele>542.0</ele><time>2026-04-30T13:26:09.706Z</time></trkpt><trkpt lat="40.5732271" lon="8.6272023"><ele>542.0</ele><time>2026-04-30T13:26:10.706Z</time></trkpt><trkpt lat="40.5733191" lon="8.626904"><ele>542.0</ele><time>2026-04-30T13:26:11.706Z</time></trkpt><trkpt lat="40.5734119" lon="8.6266043"><ele>542.0</ele><time>2026-04-30T13:26:12.706Z</time></trkpt><trkpt lat="40.5735072" lon="8.6263055"><ele>541.5</ele><time>2026-04-30T13:26:13.706Z</time></trkpt><trkpt lat="40.5736041" lon="8.6260005"><ele>541.0</ele><time>2026-04-30T13:26:14.705Z</time></trkpt><trkpt lat="40.573702" lon="8.6256928"><ele>541.0</ele><time>2026-04-30T13:26:15.706Z</time></trkpt><trkpt lat="40.5737985" lon="8.6253878"><ele>541.0</ele><time>2026-04-30T13:26:16.706Z</time></trkpt><trkpt lat="40.5738952" lon="8.6250818"><ele>540.0</ele><time>2026-04-30T13:26:17.706Z</time></trkpt><trkpt lat="40.5739918" lon="8.6247746"><ele>539.0</ele><time>2026-04-30T13:26:18.706Z</time></trkpt><trkpt lat="40.5740893" lon="8.6244673"><ele>538.0</ele><time>2026-04-30T13:26:19.706Z</time></trkpt><trkpt lat="40.5741867" lon="8.6241574"><ele>537.0</ele><time>2026-04-30T13:26:20.706Z</time></trkpt><trkpt lat="40.5742837" lon="8.6238463"><ele>537.0</ele><time>2026-04-30T13:26:21.705Z</time></trkpt><trkpt lat="40.5743818" lon="8.6235337"><ele>537.0</ele><time>2026-04-30T13:26:22.706Z</time></trkpt><trkpt lat="40.5744796" lon="8.6232228"><ele>536.5</ele><time>2026-04-30T13:26:23.706Z</time></trkpt><trkpt lat="40.5745764" lon="8.6229124"><ele>536.0</ele><time>2026-04-30T13:26:24.706Z</time></trkpt><trkpt lat="40.5746727" lon="8.6226023"><ele>536.0</ele><time>2026-04-30T13:26:25.705Z</time></trkpt><trkpt lat="40.5747702" lon="8.6222877"><ele>536.0</ele><time>2026-04-30T13:26:26.705Z</time></trkpt><trkpt lat="40.5748659" lon="8.621976"><ele>539.5</ele><time>2026-04-30T13:26:27.705Z</time></trkpt><trkpt lat="40.5749624" lon="8.621669"><ele>543.0</ele><time>2026-04-30T13:26:28.706Z</time></trkpt><trkpt lat="40.5750595" lon="8.6213648"><ele>545.5</ele><time>2026-04-30T13:26:29.706Z</time></trkpt><trkpt lat="40.5751559" lon="8.6210573"><ele>548.0</ele><time>2026-04-30T13:26:30.706Z</time></trkpt><trkpt lat="40.5752524" lon="8.6207483"><ele>548.0</ele><time>2026-04-30T13:26:31.705Z</time></trkpt><trkpt lat="40.5753489" lon="8.620438"><ele>548.0</ele><time>2026-04-30T13:26:32.706Z</time></trkpt><trkpt lat="40.5754448" lon="8.6201275"><ele>548.5</ele><time>2026-04-30T13:26:33.706Z</time></trkpt><trkpt lat="40.5755434" lon="8.6198183"><ele>549.0</ele><time>2026-04-30T13:26:34.705Z</time></trkpt><trkpt lat="40.5756399" lon="8.6195092"><ele>551.0</ele><time>2026-04-30T13:26:35.706Z</time></trkpt><trkpt lat="40.5757368" lon="8.6191974"><ele>553.0</ele><time>2026-04-30T13:26:36.706Z</time></trkpt><trkpt lat="40.5758343" lon="8.6188851"><ele>553.0</ele><time>2026-04-30T13:26:37.706Z</time></trkpt><trkpt lat="40.5759332" lon="8.6185716"><ele>553.0</ele><time>2026-04-30T13:26:38.705Z</time></trkpt><trkpt lat="40.5760321" lon="8.6182572"><ele>553.0</ele><time>2026-04-30T13:26:39.706Z</time></trkpt><trkpt lat="40.5761286" lon="8.617948"><ele>553.0</ele><time>2026-04-30T13:26:40.705Z</time></trkpt><trkpt lat="40.5762188" lon="8.6176606"><ele>554.0</ele><time>2026-04-30T13:26:41.705Z</time></trkpt><trkpt lat="40.576301" lon="8.617406"><ele>555.0</ele><time>2026-04-30T13:26:42.705Z</time></trkpt><trkpt lat="40.5763696" lon="8.6171871"><ele>556.0</ele><time>2026-04-30T13:26:43.705Z</time></trkpt><trkpt lat="40.5764221" lon="8.6169797"><ele>556.0</ele><time>2026-04-30T13:26:44.706Z</time></trkpt><trkpt lat="40.5764438" lon="8.61677"><ele>556.0</ele><time>2026-04-30T13:26:45.706Z</time></trkpt><trkpt lat="40.5764412" lon="8.6165447"><ele>556.0</ele><time>2026-04-30T13:26:46.706Z</time></trkpt><trkpt lat="40.576427" lon="8.6163178"><ele>555.0</ele><time>2026-04-30T13:26:47.706Z</time></trkpt><trkpt lat="40.5763946" lon="8.6161062"><ele>554.0</ele><time>2026-04-30T13:26:48.706Z</time></trkpt><trkpt lat="40.5763218" lon="8.6159197"><ele>553.0</ele><time>2026-04-30T13:26:49.706Z</time></trkpt><trkpt lat="40.5762074" lon="8.6157538"><ele>553.6666666666667</ele><time>2026-04-30T13:26:50.706Z</time></trkpt><trkpt lat="40.5760639" lon="8.615589"><ele>554.3333333333334</ele><time>2026-04-30T13:26:51.706Z</time></trkpt><trkpt lat="40.575894" lon="8.6153988"><ele>555.0</ele><time>2026-04-30T13:26:52.705Z</time></trkpt><trkpt lat="40.5757292" lon="8.6152101"><ele>553.6666666666666</ele><time>2026-04-30T13:26:53.706Z</time></trkpt><trkpt lat="40.575566" lon="8.6150256"><ele>552.3333333333333</ele><time>2026-04-30T13:26:54.706Z</time></trkpt><trkpt lat="40.5753989" lon="8.6148382"><ele>551.0</ele><time>2026-04-30T13:26:55.706Z</time></trkpt><trkpt lat="40.5752331" lon="8.6146564"><ele>548.3333333333333</ele><time>2026-04-30T13:26:56.705Z</time></trkpt><trkpt lat="40.5750783" lon="8.6144822"><ele>545.6666666666666</ele><time>2026-04-30T13:26:57.706Z</time></trkpt><trkpt lat="40.5749372" lon="8.6143079"><ele>543.0</ele><time>2026-04-30T13:26:58.705Z</time></trkpt><trkpt lat="40.5748154" lon="8.6141206"><ele>543.0</ele><time>2026-04-30T13:26:59.706Z</time></trkpt><trkpt lat="40.574722" lon="8.6139165"><ele>543.0</ele><time>2026-04-30T13:27:00.706Z</time></trkpt><trkpt lat="40.574666" lon="8.6137225"><ele>543.0</ele><time>2026-04-30T13:27:01.706Z</time></trkpt><trkpt lat="40.5746069" lon="8.6135544"><ele>542.6666666666666</ele><time>2026-04-30T13:27:02.706Z</time></trkpt><trkpt lat="40.5745061" lon="8.6134231"><ele>542.3333333333333</ele><time>2026-04-30T13:27:03.706Z</time></trkpt><trkpt lat="40.5743759" lon="8.6133202"><ele>542.0</ele><time>2026-04-30T13:27:04.706Z</time></trkpt><trkpt lat="40.5742346" lon="8.6131989"><ele>542.0</ele><time>2026-04-30T13:27:05.704Z</time></trkpt><trkpt lat="40.5740968" lon="8.6130303"><ele>542.0</ele><time>2026-04-30T13:27:06.705Z</time></trkpt><trkpt lat="40.5739677" lon="8.6128231"><ele>542.0</ele><time>2026-04-30T13:27:07.706Z</time></trkpt><trkpt lat="40.5738499" lon="8.6125962"><ele>540.6666666666666</ele><time>2026-04-30T13:27:08.706Z</time></trkpt><trkpt lat="40.5737595" lon="8.6123862"><ele>539.3333333333334</ele><time>2026-04-30T13:27:09.706Z</time></trkpt><trkpt lat="40.5736928" lon="8.6121781"><ele>538.0</ele><time>2026-04-30T13:27:10.706Z</time></trkpt><trkpt lat="40.5736688" lon="8.6119628"><ele>537.3333333333334</ele><time>2026-04-30T13:27:11.706Z</time></trkpt><trkpt lat="40.5736847" lon="8.6117482"><ele>536.6666666666666</ele><time>2026-04-30T13:27:12.706Z</time></trkpt><trkpt lat="40.573738" lon="8.6115431"><ele>536.0</ele><time>2026-04-30T13:27:13.706Z</time></trkpt><trkpt lat="40.5738246" lon="8.6113659"><ele>536.0</ele><time>2026-04-30T13:27:14.706Z</time></trkpt><trkpt lat="40.573925" lon="8.611197"><ele>536.0</ele><time>2026-04-30T13:27:15.706Z</time></trkpt><trkpt lat="40.5740084" lon="8.6110123"><ele>536.0</ele><time>2026-04-30T13:27:16.706Z</time></trkpt><trkpt lat="40.5740582" lon="8.6108038"><ele>534.0</ele><time>2026-04-30T13:27:17.705Z</time></trkpt><trkpt lat="40.574071" lon="8.6105821"><ele>532.0</ele><time>2026-04-30T13:27:18.706Z</time></trkpt><trkpt lat="40.5740471" lon="8.6103372"><ele>530.0</ele><time>2026-04-30T13:27:19.706Z</time></trkpt><trkpt lat="40.5740076" lon="8.6100692"><ele>530.5</ele><time>2026-04-30T13:27:20.705Z</time></trkpt><trkpt lat="40.5739632" lon="8.6097815"><ele>531.0</ele><time>2026-04-30T13:27:21.706Z</time></trkpt><trkpt lat="40.5739165" lon="8.6094842"><ele>531.0</ele><time>2026-04-30T13:27:22.706Z</time></trkpt><trkpt lat="40.5738701" lon="8.6091833"><ele>531.0</ele><time>2026-04-30T13:27:23.706Z</time></trkpt><trkpt lat="40.5738226" lon="8.6088776"><ele>530.0</ele><time>2026-04-30T13:27:24.706Z</time></trkpt><trkpt lat="40.5737784" lon="8.608567"><ele>529.0</ele><time>2026-04-30T13:27:25.706Z</time></trkpt><trkpt lat="40.5737324" lon="8.6082549"><ele>527.5</ele><time>2026-04-30T13:27:26.706Z</time></trkpt><trkpt lat="40.5736856" lon="8.6079398"><ele>526.0</ele><time>2026-04-30T13:27:27.706Z</time></trkpt><trkpt lat="40.5736405" lon="8.6076248"><ele>526.0</ele><time>2026-04-30T13:27:28.706Z</time></trkpt><trkpt lat="40.5735977" lon="8.6073359"><ele>526.0</ele><time>2026-04-30T13:27:29.706Z</time></trkpt><trkpt lat="40.5735549" lon="8.6070551"><ele>526.0</ele><time>2026-04-30T13:27:30.706Z</time></trkpt><trkpt lat="40.5734996" lon="8.606777"><ele>524.6666666666667</ele><time>2026-04-30T13:27:31.706Z</time></trkpt><trkpt lat="40.5734244" lon="8.6065075"><ele>523.3333333333334</ele><time>2026-04-30T13:27:32.706Z</time></trkpt><trkpt lat="40.5733262" lon="8.6062435"><ele>522.0</ele><time>2026-04-30T13:27:33.706Z</time></trkpt><trkpt lat="40.5732214" lon="8.6059788"><ele>521.0</ele><time>2026-04-30T13:27:34.705Z</time></trkpt><trkpt lat="40.5731133" lon="8.6057154"><ele>520.0</ele><time>2026-04-30T13:27:35.706Z</time></trkpt><trkpt lat="40.5730142" lon="8.605438"><ele>522.0</ele><time>2026-04-30T13:27:36.706Z</time></trkpt><trkpt lat="40.5729126" lon="8.6051703"><ele>524.0</ele><time>2026-04-30T13:27:37.706Z</time></trkpt><trkpt lat="40.5728145" lon="8.6049001"><ele>521.0</ele><time>2026-04-30T13:27:38.705Z</time></trkpt><trkpt lat="40.5727197" lon="8.6046314"><ele>518.0</ele><time>2026-04-30T13:27:39.706Z</time></trkpt><trkpt lat="40.5726254" lon="8.6043609"><ele>518.0</ele><time>2026-04-30T13:27:40.705Z</time></trkpt><trkpt lat="40.5725369" lon="8.6040871"><ele>518.0</ele><time>2026-04-30T13:27:41.705Z</time></trkpt><trkpt lat="40.5724467" lon="8.6038119"><ele>517.5</ele><time>2026-04-30T13:27:42.706Z</time></trkpt><trkpt lat="40.5723565" lon="8.6035324"><ele>517.0</ele><time>2026-04-30T13:27:43.706Z</time></trkpt><trkpt lat="40.5722648" lon="8.6032498"><ele>517.0</ele><time>2026-04-30T13:27:44.706Z</time></trkpt><trkpt lat="40.5721716" lon="8.6029607"><ele>517.0</ele><time>2026-04-30T13:27:45.706Z</time></trkpt><trkpt lat="40.5720762" lon="8.6026699"><ele>515.0</ele><time>2026-04-30T13:27:46.706Z</time></trkpt><trkpt lat="40.5719803" lon="8.6023746"><ele>513.0</ele><time>2026-04-30T13:27:47.706Z</time></trkpt><trkpt lat="40.5718851" lon="8.6020763"><ele>511.0</ele><time>2026-04-30T13:27:48.706Z</time></trkpt><trkpt lat="40.571788" lon="8.6017785"><ele>509.0</ele><time>2026-04-30T13:27:49.705Z</time></trkpt><trkpt lat="40.5716896" lon="8.6014797"><ele>509.0</ele><time>2026-04-30T13:27:50.705Z</time></trkpt><trkpt lat="40.5715911" lon="8.6011831"><ele>509.0</ele><time>2026-04-30T13:27:51.706Z</time></trkpt><trkpt lat="40.5714932" lon="8.6008861"><ele>509.0</ele><time>2026-04-30T13:27:52.706Z</time></trkpt><trkpt lat="40.5713973" lon="8.6005906"><ele>509.0</ele><time>2026-04-30T13:27:53.706Z</time></trkpt><trkpt lat="40.5713003" lon="8.6002963"><ele>510.0</ele><time>2026-04-30T13:27:54.706Z</time></trkpt><trkpt lat="40.5712035" lon="8.5999997"><ele>511.0</ele><time>2026-04-30T13:27:55.706Z</time></trkpt><trkpt lat="40.5711067" lon="8.5997021"><ele>506.5</ele><time>2026-04-30T13:27:56.706Z</time></trkpt><trkpt lat="40.5710085" lon="8.5994031"><ele>502.0</ele><time>2026-04-30T13:27:57.705Z</time></trkpt><trkpt lat="40.5709091" lon="8.5991008"><ele>502.0</ele><time>2026-04-30T13:27:58.706Z</time></trkpt><trkpt lat="40.5708105" lon="8.598798"><ele>502.0</ele><time>2026-04-30T13:27:59.706Z</time></trkpt><trkpt lat="40.5707128" lon="8.5984887"><ele>502.0</ele><time>2026-04-30T13:28:00.706Z</time></trkpt><trkpt lat="40.5706222" lon="8.5981859"><ele>502.0</ele><time>2026-04-30T13:28:01.706Z</time></trkpt><trkpt lat="40.5705392" lon="8.5978903"><ele>502.5</ele><time>2026-04-30T13:28:02.706Z</time></trkpt><trkpt lat="40.5704692" lon="8.5975943"><ele>503.0</ele><time>2026-04-30T13:28:03.706Z</time></trkpt><trkpt lat="40.5703947" lon="8.5973046"><ele>497.0</ele><time>2026-04-30T13:28:04.706Z</time></trkpt><trkpt lat="40.5703216" lon="8.597017"><ele>491.0</ele><time>2026-04-30T13:28:05.705Z</time></trkpt><trkpt lat="40.5702488" lon="8.5967285"><ele>491.0</ele><time>2026-04-30T13:28:06.706Z</time></trkpt><trkpt lat="40.5701769" lon="8.596442"><ele>491.0</ele><time>2026-04-30T13:28:07.706Z</time></trkpt><trkpt lat="40.570106" lon="8.5961545"><ele>491.5</ele><time>2026-04-30T13:28:08.706Z</time></trkpt><trkpt lat="40.5700341" lon="8.5958651"><ele>492.0</ele><time>2026-04-30T13:28:09.706Z</time></trkpt><trkpt lat="40.5699609" lon="8.5955747"><ele>491.5</ele><time>2026-04-30T13:28:10.706Z</time></trkpt><trkpt lat="40.5698843" lon="8.5952843"><ele>491.0</ele><time>2026-04-30T13:28:11.706Z</time></trkpt><trkpt lat="40.5698099" lon="8.594994"><ele>491.0</ele><time>2026-04-30T13:28:12.706Z</time></trkpt><trkpt lat="40.5697361" lon="8.5947027"><ele>491.0</ele><time>2026-04-30T13:28:13.706Z</time></trkpt><trkpt lat="40.5696643" lon="8.5944091"><ele>491.5</ele><time>2026-04-30T13:28:14.706Z</time></trkpt><trkpt lat="40.5695893" lon="8.59412"><ele>492.0</ele><time>2026-04-30T13:28:15.706Z</time></trkpt><trkpt lat="40.5695171" lon="8.5938307"><ele>487.5</ele><time>2026-04-30T13:28:16.706Z</time></trkpt><trkpt lat="40.569452" lon="8.5935392"><ele>483.0</ele><time>2026-04-30T13:28:17.706Z</time></trkpt><trkpt lat="40.5693987" lon="8.5932454"><ele>483.0</ele><time>2026-04-30T13:28:18.706Z</time></trkpt><trkpt lat="40.5693518" lon="8.5929495"><ele>483.0</ele><time>2026-04-30T13:28:19.705Z</time></trkpt><trkpt lat="40.5693079" lon="8.5926522"><ele>482.5</ele><time>2026-04-30T13:28:20.706Z</time></trkpt><trkpt lat="40.5692653" lon="8.592354"><ele>482.0</ele><time>2026-04-30T13:28:21.705Z</time></trkpt><trkpt lat="40.569223" lon="8.5920565"><ele>482.0</ele><time>2026-04-30T13:28:22.706Z</time></trkpt><trkpt lat="40.5691821" lon="8.5917659"><ele>482.0</ele><time>2026-04-30T13:28:23.706Z</time></trkpt><trkpt lat="40.5691433" lon="8.5914805"><ele>482.0</ele><time>2026-04-30T13:28:24.706Z</time></trkpt><trkpt lat="40.5691031" lon="8.5911903"><ele>482.0</ele><time>2026-04-30T13:28:25.705Z</time></trkpt><trkpt lat="40.5690606" lon="8.5908987"><ele>482.0</ele><time>2026-04-30T13:28:26.705Z</time></trkpt><trkpt lat="40.5690196" lon="8.5906112"><ele>482.0</ele><time>2026-04-30T13:28:27.706Z</time></trkpt><trkpt lat="40.5689815" lon="8.590331"><ele>481.0</ele><time>2026-04-30T13:28:28.706Z</time></trkpt><trkpt lat="40.5689441" lon="8.5900576"><ele>480.0</ele><time>2026-04-30T13:28:29.706Z</time></trkpt><trkpt lat="40.5688956" lon="8.5897814"><ele>479.0</ele><time>2026-04-30T13:28:30.706Z</time></trkpt><trkpt lat="40.5688273" lon="8.589513"><ele>478.0</ele><time>2026-04-30T13:28:31.706Z</time></trkpt><trkpt lat="40.568752" lon="8.5892565"><ele>477.0</ele><time>2026-04-30T13:28:32.705Z</time></trkpt><trkpt lat="40.5686743" lon="8.589012"><ele>476.0</ele><time>2026-04-30T13:28:33.706Z</time></trkpt><trkpt lat="40.5686047" lon="8.588786"><ele>473.3333333333333</ele><time>2026-04-30T13:28:34.706Z</time></trkpt><trkpt lat="40.5685437" lon="8.5885767"><ele>470.66666666666663</ele><time>2026-04-30T13:28:35.706Z</time></trkpt><trkpt lat="40.5684961" lon="8.588391"><ele>468.0</ele><time>2026-04-30T13:28:36.706Z</time></trkpt><trkpt lat="40.5684745" lon="8.5882166"><ele>468.0</ele><time>2026-04-30T13:28:37.706Z</time></trkpt><trkpt lat="40.5684879" lon="8.5880549"><ele>468.0</ele><time>2026-04-30T13:28:38.706Z</time></trkpt><trkpt lat="40.5685396" lon="8.5879216"><ele>468.0</ele><time>2026-04-30T13:28:39.706Z</time></trkpt><trkpt lat="40.5686289" lon="8.5878276"><ele>468.0</ele><time>2026-04-30T13:28:40.706Z</time></trkpt><trkpt lat="40.5687526" lon="8.5877559"><ele>467.33333333333337</ele><time>2026-04-30T13:28:41.705Z</time></trkpt><trkpt lat="40.5688999" lon="8.5876914"><ele>466.6666666666667</ele><time>2026-04-30T13:28:42.706Z</time></trkpt><trkpt lat="40.5690478" lon="8.587592"><ele>466.0</ele><time>2026-04-30T13:28:43.705Z</time></trkpt><trkpt lat="40.5691794" lon="8.5874556"><ele>466.0</ele><time>2026-04-30T13:28:44.706Z</time></trkpt><trkpt lat="40.5692796" lon="8.5872897"><ele>466.0</ele><time>2026-04-30T13:28:45.706Z</time></trkpt><trkpt lat="40.5693418" lon="8.5870864"><ele>466.0</ele><time>2026-04-30T13:28:46.706Z</time></trkpt><trkpt lat="40.5693599" lon="8.586852"><ele>463.33333333333337</ele><time>2026-04-30T13:28:47.706Z</time></trkpt><trkpt lat="40.5693416" lon="8.5865881"><ele>460.66666666666663</ele><time>2026-04-30T13:28:48.706Z</time></trkpt><trkpt lat="40.5692949" lon="8.5863254"><ele>458.0</ele><time>2026-04-30T13:28:49.706Z</time></trkpt><trkpt lat="40.5692344" lon="8.5860867"><ele>457.0</ele><time>2026-04-30T13:28:50.706Z</time></trkpt><trkpt lat="40.5691828" lon="8.5858523"><ele>456.0</ele><time>2026-04-30T13:28:51.706Z</time></trkpt><trkpt lat="40.5691615" lon="8.5856232"><ele>455.0</ele><time>2026-04-30T13:28:52.706Z</time></trkpt><trkpt lat="40.5691697" lon="8.5854209"><ele>454.0</ele><time>2026-04-30T13:28:53.706Z</time></trkpt><trkpt lat="40.5692062" lon="8.5852445"><ele>453.0</ele><time>2026-04-30T13:28:54.706Z</time></trkpt><trkpt lat="40.5692802" lon="8.5850944"><ele>452.0</ele><time>2026-04-30T13:28:55.705Z</time></trkpt><trkpt lat="40.5693904" lon="8.5849692"><ele>451.0</ele><time>2026-04-30T13:28:56.706Z</time></trkpt><trkpt lat="40.5695263" lon="8.5848907"><ele>451.0</ele><time>2026-04-30T13:28:57.706Z</time></trkpt><trkpt lat="40.5696835" lon="8.5848518"><ele>451.0</ele><time>2026-04-30T13:28:58.706Z</time></trkpt><trkpt lat="40.5698351" lon="8.5848069"><ele>451.0</ele><time>2026-04-30T13:28:59.705Z</time></trkpt><trkpt lat="40.5699742" lon="8.5847202"><ele>451.0</ele><time>2026-04-30T13:29:00.706Z</time></trkpt><trkpt lat="40.570105" lon="8.5845931"><ele>451.0</ele><time>2026-04-30T13:29:01.706Z</time></trkpt><trkpt lat="40.5702511" lon="8.5844769"><ele>451.0</ele><time>2026-04-30T13:29:02.706Z</time></trkpt><trkpt lat="40.5704253" lon="8.5843914"><ele>448.33333333333337</ele><time>2026-04-30T13:29:03.706Z</time></trkpt><trkpt lat="40.5706047" lon="8.5842927"><ele>445.66666666666663</ele><time>2026-04-30T13:29:04.706Z</time></trkpt><trkpt lat="40.5707706" lon="8.5841844"><ele>443.0</ele><time>2026-04-30T13:29:05.705Z</time></trkpt><trkpt lat="40.5709488" lon="8.5840913"><ele>443.0</ele><time>2026-04-30T13:29:06.706Z</time></trkpt><trkpt lat="40.5711412" lon="8.5840113"><ele>443.0</ele><time>2026-04-30T13:29:07.706Z</time></trkpt><trkpt lat="40.5713421" lon="8.5839406"><ele>443.0</ele><time>2026-04-30T13:29:08.706Z</time></trkpt><trkpt lat="40.5715502" lon="8.5838683"><ele>444.0</ele><time>2026-04-30T13:29:09.705Z</time></trkpt><trkpt lat="40.5717558" lon="8.5837948"><ele>445.0</ele><time>2026-04-30T13:29:10.706Z</time></trkpt><trkpt lat="40.5719533" lon="8.5837174"><ele>446.0</ele><time>2026-04-30T13:29:11.706Z</time></trkpt><trkpt lat="40.5721555" lon="8.5836377"><ele>439.3333333333333</ele><time>2026-04-30T13:29:12.706Z</time></trkpt><trkpt lat="40.572358" lon="8.5835705"><ele>432.66666666666663</ele><time>2026-04-30T13:29:13.706Z</time></trkpt><trkpt lat="40.5725642" lon="8.5835261"><ele>426.0</ele><time>2026-04-30T13:29:14.705Z</time></trkpt><trkpt lat="40.5727744" lon="8.5835069"><ele>425.66666666666663</ele><time>2026-04-30T13:29:15.706Z</time></trkpt><trkpt lat="40.5729864" lon="8.5834877"><ele>425.3333333333333</ele><time>2026-04-30T13:29:16.706Z</time></trkpt><trkpt lat="40.5731986" lon="8.583449"><ele>425.0</ele><time>2026-04-30T13:29:17.706Z</time></trkpt><trkpt lat="40.5734088" lon="8.5833869"><ele>425.0</ele><time>2026-04-30T13:29:18.706Z</time></trkpt><trkpt lat="40.5736194" lon="8.5833094"><ele>425.0</ele><time>2026-04-30T13:29:19.706Z</time></trkpt><trkpt lat="40.5738287" lon="8.5832238"><ele>425.0</ele><time>2026-04-30T13:29:20.706Z</time></trkpt><trkpt lat="40.5740319" lon="8.5831399"><ele>425.3333333333333</ele><time>2026-04-30T13:29:21.706Z</time></trkpt><trkpt lat="40.5742346" lon="8.5830661"><ele>425.66666666666663</ele><time>2026-04-30T13:29:22.705Z</time></trkpt><trkpt lat="40.5744431" lon="8.5830137"><ele>426.0</ele><time>2026-04-30T13:29:23.706Z</time></trkpt><trkpt lat="40.5746473" lon="8.5829785"><ele>426.0</ele><time>2026-04-30T13:29:24.706Z</time></trkpt><trkpt lat="40.5748411" lon="8.5829583"><ele>426.0</ele><time>2026-04-30T13:29:25.705Z</time></trkpt><trkpt lat="40.5750229" lon="8.5829426"><ele>426.0</ele><time>2026-04-30T13:29:26.706Z</time></trkpt><trkpt lat="40.5751872" lon="8.5829014"><ele>419.33333333333337</ele><time>2026-04-30T13:29:27.706Z</time></trkpt><trkpt lat="40.5753395" lon="8.5828196"><ele>412.6666666666667</ele><time>2026-04-30T13:29:28.705Z</time></trkpt><trkpt lat="40.5754733" lon="8.5827152"><ele>406.0</ele><time>2026-04-30T13:29:29.705Z</time></trkpt><trkpt lat="40.5756031" lon="8.5826193"><ele>406.0</ele><time>2026-04-30T13:29:30.706Z</time></trkpt><trkpt lat="40.5757415" lon="8.5825682"><ele>406.0</ele><time>2026-04-30T13:29:31.706Z</time></trkpt><trkpt lat="40.5758993" lon="8.5825528"><ele>406.0</ele><time>2026-04-30T13:29:32.706Z</time></trkpt><trkpt lat="40.5760739" lon="8.5825626"><ele>404.33333333333337</ele><time>2026-04-30T13:29:33.705Z</time></trkpt><trkpt lat="40.5762611" lon="8.582591"><ele>402.66666666666663</ele><time>2026-04-30T13:29:34.706Z</time></trkpt><trkpt lat="40.5764467" lon="8.5826254"><ele>401.0</ele><time>2026-04-30T13:29:35.706Z</time></trkpt><trkpt lat="40.5766283" lon="8.582648"><ele>401.0</ele><time>2026-04-30T13:29:36.705Z</time></trkpt><trkpt lat="40.5768157" lon="8.5826624"><ele>401.0</ele><time>2026-04-30T13:29:37.705Z</time></trkpt><trkpt lat="40.5770091" lon="8.5826721"><ele>401.0</ele><time>2026-04-30T13:29:38.706Z</time></trkpt><trkpt lat="40.5772101" lon="8.5826752"><ele>398.66666666666663</ele><time>2026-04-30T13:29:39.705Z</time></trkpt><trkpt lat="40.5774009" lon="8.5826776"><ele>396.33333333333337</ele><time>2026-04-30T13:29:40.705Z</time></trkpt><trkpt lat="40.577575" lon="8.5826808"><ele>394.0</ele><time>2026-04-30T13:29:41.706Z</time></trkpt><trkpt lat="40.5777295" lon="8.5826864"><ele>393.79999999999995</ele><time>2026-04-30T13:29:42.706Z</time></trkpt><trkpt lat="40.5778677" lon="8.5826884"><ele>393.59999999999997</ele><time>2026-04-30T13:29:43.706Z</time></trkpt><trkpt lat="40.5779821" lon="8.5826812"><ele>393.4</ele><time>2026-04-30T13:29:44.706Z</time></trkpt><trkpt lat="40.5780662" lon="8.5826615"><ele>393.2</ele><time>2026-04-30T13:29:45.706Z</time></trkpt><trkpt lat="40.578126" lon="8.5826228"><ele>393.0</ele><time>2026-04-30T13:29:46.705Z</time></trkpt><trkpt lat="40.5782062" lon="8.5825131"><ele>393.0</ele><time>2026-04-30T13:29:48.706Z</time></trkpt><trkpt lat="40.5782384" lon="8.5823937"><ele>393.0</ele><time>2026-04-30T13:29:50.706Z</time></trkpt><trkpt lat="40.5782369" lon="8.5822365"><ele>393.0</ele><time>2026-04-30T13:29:52.706Z</time></trkpt><trkpt lat="40.5782268" lon="8.5821226"><ele>393.0</ele><time>2026-04-30T13:29:54.706Z</time></trkpt><trkpt lat="40.5782246" lon="8.5820282"><ele>393.0</ele><time>2026-04-30T13:30:08.706Z</time></trkpt><trkpt lat="40.5781646" lon="8.581989"><ele>393.0</ele><time>2026-04-30T13:30:10.705Z</time></trkpt><trkpt lat="40.5780461" lon="8.5819292"><ele>393.0</ele><time>2026-04-30T13:30:12.705Z</time></trkpt><trkpt lat="40.5779652" lon="8.5818754"><ele>393.0</ele><time>2026-04-30T13:30:13.706Z</time></trkpt><trkpt lat="40.5778645" lon="8.5818083"><ele>393.0</ele><time>2026-04-30T13:30:14.706Z</time></trkpt><trkpt lat="40.5777541" lon="8.5817313"><ele>393.0</ele><time>2026-04-30T13:30:15.706Z</time></trkpt><trkpt lat="40.5776319" lon="8.5816451"><ele>392.5</ele><time>2026-04-30T13:30:16.706Z</time></trkpt><trkpt lat="40.577504" lon="8.5815535"><ele>392.0</ele><time>2026-04-30T13:30:17.706Z</time></trkpt><trkpt lat="40.57738" lon="8.5814665"><ele>391.5</ele><time>2026-04-30T13:30:18.706Z</time></trkpt><trkpt lat="40.5772463" lon="8.5813716"><ele>391.0</ele><time>2026-04-30T13:30:19.706Z</time></trkpt><trkpt lat="40.5771025" lon="8.5812715"><ele>391.6666666666667</ele><time>2026-04-30T13:30:20.705Z</time></trkpt><trkpt lat="40.5769481" lon="8.5811754"><ele>392.33333333333337</ele><time>2026-04-30T13:30:21.706Z</time></trkpt><trkpt lat="40.5767803" lon="8.5810843"><ele>393.0</ele><time>2026-04-30T13:30:22.706Z</time></trkpt><trkpt lat="40.5766127" lon="8.581003"><ele>393.0</ele><time>2026-04-30T13:30:23.705Z</time></trkpt><trkpt lat="40.5764529" lon="8.5809374"><ele>393.0</ele><time>2026-04-30T13:30:24.706Z</time></trkpt><trkpt lat="40.5762986" lon="8.5808811"><ele>393.0</ele><time>2026-04-30T13:30:25.706Z</time></trkpt><trkpt lat="40.5761452" lon="8.5808252"><ele>393.0</ele><time>2026-04-30T13:30:26.706Z</time></trkpt><trkpt lat="40.5760072" lon="8.5807739"><ele>393.0</ele><time>2026-04-30T13:30:27.705Z</time></trkpt><trkpt lat="40.5758882" lon="8.5807285"><ele>393.0</ele><time>2026-04-30T13:30:28.706Z</time></trkpt><trkpt lat="40.5757922" lon="8.5806927"><ele>393.0</ele><time>2026-04-30T13:30:29.706Z</time></trkpt><trkpt lat="40.5757074" lon="8.5806659"><ele>393.0</ele><time>2026-04-30T13:30:30.705Z</time></trkpt><trkpt lat="40.5756447" lon="8.5806447"><ele>393.0</ele><time>2026-04-30T13:30:31.706Z</time></trkpt><trkpt lat="40.5755935" lon="8.5805697"><ele>393.0</ele><time>2026-04-30T13:30:33.706Z</time></trkpt><trkpt lat="40.5756199" lon="8.5804824"><ele>393.0</ele><time>2026-04-30T13:30:35.706Z</time></trkpt><trkpt lat="40.5757266" lon="8.5804252"><ele>393.0</ele><time>2026-04-30T13:30:37.706Z</time></trkpt><trkpt lat="40.5758145" lon="8.5803883"><ele>393.0</ele><time>2026-04-30T13:30:38.706Z</time></trkpt><trkpt lat="40.5759267" lon="8.5803405"><ele>393.25</ele><time>2026-04-30T13:30:39.706Z</time></trkpt><trkpt lat="40.5760504" lon="8.580291"><ele>393.5</ele><time>2026-04-30T13:30:40.706Z</time></trkpt><trkpt lat="40.576179" lon="8.5802371"><ele>393.75</ele><time>2026-04-30T13:30:41.706Z</time></trkpt><trkpt lat="40.5763126" lon="8.5801797"><ele>394.0</ele><time>2026-04-30T13:30:42.706Z</time></trkpt><trkpt lat="40.5764498" lon="8.5801183"><ele>394.5</ele><time>2026-04-30T13:30:43.706Z</time></trkpt><trkpt lat="40.5765854" lon="8.5800599"><ele>395.0</ele><time>2026-04-30T13:30:44.706Z</time></trkpt><trkpt lat="40.5767172" lon="8.5800019"><ele>395.5</ele><time>2026-04-30T13:30:45.705Z</time></trkpt><trkpt lat="40.5768501" lon="8.579939"><ele>396.0</ele><time>2026-04-30T13:30:46.705Z</time></trkpt><trkpt lat="40.5769795" lon="8.5798797"><ele>396.0</ele><time>2026-04-30T13:30:47.706Z</time></trkpt><trkpt lat="40.5771103" lon="8.5798194"><ele>396.0</ele><time>2026-04-30T13:30:48.706Z</time></trkpt><trkpt lat="40.5772383" lon="8.5797554"><ele>396.0</ele><time>2026-04-30T13:30:49.706Z</time></trkpt><trkpt lat="40.5773662" lon="8.5796936"><ele>396.0</ele><time>2026-04-30T13:30:50.706Z</time></trkpt><trkpt lat="40.5774887" lon="8.5796463"><ele>396.0</ele><time>2026-04-30T13:30:51.706Z</time></trkpt><trkpt lat="40.5776179" lon="8.5796143"><ele>396.0</ele><time>2026-04-30T13:30:52.706Z</time></trkpt><trkpt lat="40.5777501" lon="8.5796043"><ele>396.0</ele><time>2026-04-30T13:30:53.706Z</time></trkpt><trkpt lat="40.5778821" lon="8.5796037"><ele>396.0</ele><time>2026-04-30T13:30:54.706Z</time></trkpt><trkpt lat="40.5780116" lon="8.5796051"><ele>397.6</ele><time>2026-04-30T13:30:55.706Z</time></trkpt><trkpt lat="40.5781274" lon="8.5796001"><ele>399.20000000000005</ele><time>2026-04-30T13:30:56.706Z</time></trkpt><trkpt lat="40.5782341" lon="8.5795967"><ele>400.79999999999995</ele><time>2026-04-30T13:30:57.706Z</time></trkpt><trkpt lat="40.578316" lon="8.5795932"><ele>402.4</ele><time>2026-04-30T13:30:58.706Z</time></trkpt><trkpt lat="40.5784081" lon="8.5795848"><ele>404.0</ele><time>2026-04-30T13:31:00.706Z</time></trkpt><trkpt lat="40.5784746" lon="8.579562"><ele>403.79999999999995</ele><time>2026-04-30T13:31:02.706Z</time></trkpt><trkpt lat="40.5785556" lon="8.5794455"><ele>403.59999999999997</ele><time>2026-04-30T13:31:04.706Z</time></trkpt><trkpt lat="40.5785904" lon="8.5793575"><ele>403.4</ele><time>2026-04-30T13:31:05.706Z</time></trkpt><trkpt lat="40.5786143" lon="8.5792507"><ele>403.2</ele><time>2026-04-30T13:31:06.706Z</time></trkpt><trkpt lat="40.5786178" lon="8.5791311"><ele>403.0</ele><time>2026-04-30T13:31:07.705Z</time></trkpt><trkpt lat="40.5785989" lon="8.5790105"><ele>403.0</ele><time>2026-04-30T13:31:08.706Z</time></trkpt><trkpt lat="40.578559" lon="8.5788976"><ele>403.0</ele><time>2026-04-30T13:31:09.706Z</time></trkpt><trkpt lat="40.578498" lon="8.5787882"><ele>403.0</ele><time>2026-04-30T13:31:10.705Z</time></trkpt><trkpt lat="40.5784189" lon="8.5786765"><ele>403.0</ele><time>2026-04-30T13:31:11.706Z</time></trkpt><trkpt lat="40.5783288" lon="8.5785517"><ele>403.0</ele><time>2026-04-30T13:31:12.706Z</time></trkpt><trkpt lat="40.5782523" lon="8.5783926"><ele>403.33333333333337</ele><time>2026-04-30T13:31:13.706Z</time></trkpt><trkpt lat="40.5781992" lon="8.5782143"><ele>403.66666666666663</ele><time>2026-04-30T13:31:14.706Z</time></trkpt><trkpt lat="40.5781696" lon="8.5780129"><ele>404.0</ele><time>2026-04-30T13:31:15.706Z</time></trkpt><trkpt lat="40.578168" lon="8.5777999"><ele>403.3333333333333</ele><time>2026-04-30T13:31:16.706Z</time></trkpt><trkpt lat="40.5781878" lon="8.5775625"><ele>402.66666666666663</ele><time>2026-04-30T13:31:17.706Z</time></trkpt><trkpt lat="40.5782087" lon="8.5772905"><ele>402.0</ele><time>2026-04-30T13:31:18.706Z</time></trkpt><trkpt lat="40.5782319" lon="8.5770265"><ele>401.66666666666663</ele><time>2026-04-30T13:31:19.705Z</time></trkpt><trkpt lat="40.5782641" lon="8.5767727"><ele>401.3333333333333</ele><time>2026-04-30T13:31:20.706Z</time></trkpt><trkpt lat="40.5783103" lon="8.5765201"><ele>401.0</ele><time>2026-04-30T13:31:21.705Z</time></trkpt><trkpt lat="40.5783739" lon="8.5762718"><ele>400.66666666666663</ele><time>2026-04-30T13:31:22.706Z</time></trkpt><trkpt lat="40.5784572" lon="8.5760237"><ele>400.33333333333337</ele><time>2026-04-30T13:31:23.705Z</time></trkpt><trkpt lat="40.5785567" lon="8.575778"><ele>400.0</ele><time>2026-04-30T13:31:24.706Z</time></trkpt><trkpt lat="40.5786745" lon="8.5755376"><ele>399.0</ele><time>2026-04-30T13:31:25.706Z</time></trkpt><trkpt lat="40.5788101" lon="8.5752997"><ele>398.0</ele><time>2026-04-30T13:31:26.705Z</time></trkpt><trkpt lat="40.5789671" lon="8.5750702"><ele>398.0</ele><time>2026-04-30T13:31:27.706Z</time></trkpt><trkpt lat="40.5791426" lon="8.5748518"><ele>398.0</ele><time>2026-04-30T13:31:28.706Z</time></trkpt><trkpt lat="40.5793291" lon="8.5746366"><ele>394.5</ele><time>2026-04-30T13:31:29.705Z</time></trkpt><trkpt lat="40.5795257" lon="8.5744159"><ele>391.0</ele><time>2026-04-30T13:31:30.706Z</time></trkpt><trkpt lat="40.5797268" lon="8.5741862"><ele>391.0</ele><time>2026-04-30T13:31:31.706Z</time></trkpt><trkpt lat="40.5799303" lon="8.5739557"><ele>391.0</ele><time>2026-04-30T13:31:32.706Z</time></trkpt><trkpt lat="40.5801342" lon="8.5737249"><ele>390.0</ele><time>2026-04-30T13:31:33.706Z</time></trkpt><trkpt lat="40.5803338" lon="8.5734986"><ele>389.0</ele><time>2026-04-30T13:31:34.706Z</time></trkpt><trkpt lat="40.5805264" lon="8.5732825"><ele>389.0</ele><time>2026-04-30T13:31:35.705Z</time></trkpt><trkpt lat="40.5807124" lon="8.5730733"><ele>389.0</ele><time>2026-04-30T13:31:36.706Z</time></trkpt><trkpt lat="40.5808933" lon="8.5728692"><ele>387.5</ele><time>2026-04-30T13:31:37.706Z</time></trkpt><trkpt lat="40.5810743" lon="8.5726649"><ele>386.0</ele><time>2026-04-30T13:31:38.706Z</time></trkpt><trkpt lat="40.5812574" lon="8.57246"><ele>389.0</ele><time>2026-04-30T13:31:39.705Z</time></trkpt><trkpt lat="40.58144" lon="8.5722553"><ele>392.0</ele><time>2026-04-30T13:31:40.706Z</time></trkpt><trkpt lat="40.581624" lon="8.5720489"><ele>391.5</ele><time>2026-04-30T13:31:41.706Z</time></trkpt><trkpt lat="40.5818078" lon="8.5718429"><ele>391.0</ele><time>2026-04-30T13:31:42.705Z</time></trkpt><trkpt lat="40.5819945" lon="8.5716347"><ele>394.0</ele><time>2026-04-30T13:31:43.706Z</time></trkpt><trkpt lat="40.5821773" lon="8.5714299"><ele>397.0</ele><time>2026-04-30T13:31:44.706Z</time></trkpt><trkpt lat="40.582357" lon="8.5712225"><ele>394.0</ele><time>2026-04-30T13:31:45.706Z</time></trkpt><trkpt lat="40.5825377" lon="8.5710176"><ele>391.0</ele><time>2026-04-30T13:31:46.706Z</time></trkpt><trkpt lat="40.5827196" lon="8.5708159"><ele>394.5</ele><time>2026-04-30T13:31:47.705Z</time></trkpt><trkpt lat="40.5829021" lon="8.570613"><ele>398.0</ele><time>2026-04-30T13:31:48.706Z</time></trkpt><trkpt lat="40.5830871" lon="8.5704101"><ele>395.5</ele><time>2026-04-30T13:31:49.706Z</time></trkpt><trkpt lat="40.5832755" lon="8.5702107"><ele>393.0</ele><time>2026-04-30T13:31:50.706Z</time></trkpt><trkpt lat="40.5834689" lon="8.5700172"><ele>393.0</ele><time>2026-04-30T13:31:51.706Z</time></trkpt><trkpt lat="40.5836666" lon="8.5698288"><ele>393.0</ele><time>2026-04-30T13:31:52.706Z</time></trkpt><trkpt lat="40.5838681" lon="8.5696423"><ele>391.5</ele><time>2026-04-30T13:31:53.705Z</time></trkpt><trkpt lat="40.5840736" lon="8.5694593"><ele>390.0</ele><time>2026-04-30T13:31:54.706Z</time></trkpt><trkpt lat="40.5842824" lon="8.5692803"><ele>390.0</ele><time>2026-04-30T13:31:55.706Z</time></trkpt><trkpt lat="40.5844944" lon="8.5691027"><ele>390.0</ele><time>2026-04-30T13:31:56.705Z</time></trkpt><trkpt lat="40.5847089" lon="8.5689275"><ele>390.0</ele><time>2026-04-30T13:31:57.706Z</time></trkpt><trkpt lat="40.5849251" lon="8.5687537"><ele>390.0</ele><time>2026-04-30T13:31:58.706Z</time></trkpt><trkpt lat="40.5851428" lon="8.56858"><ele>387.5</ele><time>2026-04-30T13:31:59.706Z</time></trkpt><trkpt lat="40.58536" lon="8.5684047"><ele>385.0</ele><time>2026-04-30T13:32:00.706Z</time></trkpt><trkpt lat="40.5855762" lon="8.5682282"><ele>385.0</ele><time>2026-04-30T13:32:01.706Z</time></trkpt><trkpt lat="40.5857915" lon="8.5680516"><ele>385.0</ele><time>2026-04-30T13:32:02.706Z</time></trkpt><trkpt lat="40.5860046" lon="8.5678729"><ele>387.0</ele><time>2026-04-30T13:32:03.705Z</time></trkpt><trkpt lat="40.5862123" lon="8.5676875"><ele>389.0</ele><time>2026-04-30T13:32:04.706Z</time></trkpt><trkpt lat="40.5864104" lon="8.5674897"><ele>389.0</ele><time>2026-04-30T13:32:05.706Z</time></trkpt><trkpt lat="40.5865959" lon="8.5672751"><ele>389.0</ele><time>2026-04-30T13:32:06.706Z</time></trkpt><trkpt lat="40.5867713" lon="8.5670532"><ele>390.0</ele><time>2026-04-30T13:32:07.706Z</time></trkpt><trkpt lat="40.586944" lon="8.5668292"><ele>391.0</ele><time>2026-04-30T13:32:08.706Z</time></trkpt><trkpt lat="40.5871157" lon="8.566605"><ele>392.5</ele><time>2026-04-30T13:32:09.706Z</time></trkpt><trkpt lat="40.5872875" lon="8.5663825"><ele>394.0</ele><time>2026-04-30T13:32:10.706Z</time></trkpt><trkpt lat="40.5874592" lon="8.5661624"><ele>395.0</ele><time>2026-04-30T13:32:11.705Z</time></trkpt><trkpt lat="40.5876288" lon="8.5659404"><ele>396.0</ele><time>2026-04-30T13:32:12.706Z</time></trkpt><trkpt lat="40.5877965" lon="8.5657147"><ele>398.0</ele><time>2026-04-30T13:32:13.706Z</time></trkpt><trkpt lat="40.5879612" lon="8.5654807"><ele>400.0</ele><time>2026-04-30T13:32:14.705Z</time></trkpt><trkpt lat="40.5881192" lon="8.5652379"><ele>402.0</ele><time>2026-04-30T13:32:15.706Z</time></trkpt><trkpt lat="40.5882688" lon="8.5649872"><ele>404.0</ele><time>2026-04-30T13:32:16.706Z</time></trkpt><trkpt lat="40.5884093" lon="8.5647239"><ele>407.0</ele><time>2026-04-30T13:32:17.706Z</time></trkpt><trkpt lat="40.5885379" lon="8.5644497"><ele>410.0</ele><time>2026-04-30T13:32:18.706Z</time></trkpt><trkpt lat="40.5886586" lon="8.5641682"><ele>408.5</ele><time>2026-04-30T13:32:19.705Z</time></trkpt><trkpt lat="40.5887754" lon="8.5638799"><ele>407.0</ele><time>2026-04-30T13:32:20.705Z</time></trkpt><trkpt lat="40.5888906" lon="8.5635972"><ele>407.0</ele><time>2026-04-30T13:32:21.706Z</time></trkpt><trkpt lat="40.5890009" lon="8.5633201"><ele>407.0</ele><time>2026-04-30T13:32:22.706Z</time></trkpt><trkpt lat="40.5891108" lon="8.5630488"><ele>406.5</ele><time>2026-04-30T13:32:23.706Z</time></trkpt><trkpt lat="40.5892216" lon="8.5627896"><ele>406.0</ele><time>2026-04-30T13:32:24.706Z</time></trkpt><trkpt lat="40.5893383" lon="8.5625312"><ele>406.0</ele><time>2026-04-30T13:32:25.706Z</time></trkpt><trkpt lat="40.5894599" lon="8.5622744"><ele>406.0</ele><time>2026-04-30T13:32:26.706Z</time></trkpt><trkpt lat="40.5895882" lon="8.5620163"><ele>401.5</ele><time>2026-04-30T13:32:27.705Z</time></trkpt><trkpt lat="40.5897226" lon="8.5617583"><ele>397.0</ele><time>2026-04-30T13:32:28.706Z</time></trkpt><trkpt lat="40.5898622" lon="8.5615003"><ele>397.0</ele><time>2026-04-30T13:32:29.706Z</time></trkpt><trkpt lat="40.5900074" lon="8.5612438"><ele>397.0</ele><time>2026-04-30T13:32:30.706Z</time></trkpt><trkpt lat="40.5901609" lon="8.5609899"><ele>396.0</ele><time>2026-04-30T13:32:31.706Z</time></trkpt><trkpt lat="40.5903207" lon="8.5607402"><ele>395.0</ele><time>2026-04-30T13:32:32.706Z</time></trkpt><trkpt lat="40.5904843" lon="8.5604928"><ele>388.0</ele><time>2026-04-30T13:32:33.706Z</time></trkpt><trkpt lat="40.5906542" lon="8.5602431"><ele>381.0</ele><time>2026-04-30T13:32:34.706Z</time></trkpt><trkpt lat="40.5908209" lon="8.5599921"><ele>381.0</ele><time>2026-04-30T13:32:35.705Z</time></trkpt><trkpt lat="40.5909879" lon="8.5597385"><ele>381.0</ele><time>2026-04-30T13:32:36.706Z</time></trkpt><trkpt lat="40.5911552" lon="8.5594877"><ele>383.5</ele><time>2026-04-30T13:32:37.704Z</time></trkpt><trkpt lat="40.5913245" lon="8.559232"><ele>386.0</ele><time>2026-04-30T13:32:38.706Z</time></trkpt><trkpt lat="40.591493" lon="8.5589679"><ele>381.5</ele><time>2026-04-30T13:32:39.706Z</time></trkpt><trkpt lat="40.5916575" lon="8.5586967"><ele>377.0</ele><time>2026-04-30T13:32:40.705Z</time></trkpt><trkpt lat="40.5918191" lon="8.5584177"><ele>377.0</ele><time>2026-04-30T13:32:41.706Z</time></trkpt><trkpt lat="40.5919784" lon="8.5581322"><ele>377.0</ele><time>2026-04-30T13:32:42.705Z</time></trkpt><trkpt lat="40.5921347" lon="8.5578386"><ele>379.5</ele><time>2026-04-30T13:32:43.706Z</time></trkpt><trkpt lat="40.5922835" lon="8.5575353"><ele>382.0</ele><time>2026-04-30T13:32:44.706Z</time></trkpt><trkpt lat="40.5924268" lon="8.5572231"><ele>374.0</ele><time>2026-04-30T13:32:45.706Z</time></trkpt><trkpt lat="40.5925677" lon="8.5569049"><ele>366.0</ele><time>2026-04-30T13:32:46.706Z</time></trkpt><trkpt lat="40.5927026" lon="8.5565805"><ele>366.0</ele><time>2026-04-30T13:32:47.705Z</time></trkpt><trkpt lat="40.5928291" lon="8.5562559"><ele>366.0</ele><time>2026-04-30T13:32:48.706Z</time></trkpt><trkpt lat="40.5929434" lon="8.5559473"><ele>368.5</ele><time>2026-04-30T13:32:49.705Z</time></trkpt><trkpt lat="40.5930486" lon="8.5556524"><ele>371.0</ele><time>2026-04-30T13:32:50.706Z</time></trkpt><trkpt lat="40.5931442" lon="8.5553667"><ele>371.0</ele><time>2026-04-30T13:32:51.706Z</time></trkpt><trkpt lat="40.5932311" lon="8.5550885"><ele>371.0</ele><time>2026-04-30T13:32:52.706Z</time></trkpt><trkpt lat="40.5933169" lon="8.5548196"><ele>371.0</ele><time>2026-04-30T13:32:53.705Z</time></trkpt><trkpt lat="40.5934143" lon="8.554564"><ele>371.0</ele><time>2026-04-30T13:32:54.706Z</time></trkpt><trkpt lat="40.5935313" lon="8.5543168"><ele>371.0</ele><time>2026-04-30T13:32:55.706Z</time></trkpt><trkpt lat="40.593668" lon="8.5540745"><ele>369.5</ele><time>2026-04-30T13:32:56.706Z</time></trkpt><trkpt lat="40.5938209" lon="8.553831"><ele>368.0</ele><time>2026-04-30T13:32:57.706Z</time></trkpt><trkpt lat="40.5939809" lon="8.5535966"><ele>364.0</ele><time>2026-04-30T13:32:58.706Z</time></trkpt><trkpt lat="40.5941366" lon="8.5533745"><ele>360.0</ele><time>2026-04-30T13:32:59.706Z</time></trkpt><trkpt lat="40.5942842" lon="8.553167"><ele>356.0</ele><time>2026-04-30T13:33:00.706Z</time></trkpt><trkpt lat="40.5944192" lon="8.5529782"><ele>358.0</ele><time>2026-04-30T13:33:01.705Z</time></trkpt><trkpt lat="40.5945435" lon="8.5528012"><ele>360.0</ele><time>2026-04-30T13:33:02.706Z</time></trkpt><trkpt lat="40.5946514" lon="8.5526257"><ele>362.0</ele><time>2026-04-30T13:33:03.704Z</time></trkpt><trkpt lat="40.59473" lon="8.5524356"><ele>362.0</ele><time>2026-04-30T13:33:04.706Z</time></trkpt><trkpt lat="40.5947755" lon="8.5522219"><ele>362.0</ele><time>2026-04-30T13:33:05.706Z</time></trkpt><trkpt lat="40.594792" lon="8.5519853"><ele>362.0</ele><time>2026-04-30T13:33:06.705Z</time></trkpt><trkpt lat="40.5947833" lon="8.5517309"><ele>360.6666666666667</ele><time>2026-04-30T13:33:07.706Z</time></trkpt><trkpt lat="40.5947505" lon="8.5514624"><ele>359.3333333333333</ele><time>2026-04-30T13:33:08.705Z</time></trkpt><trkpt lat="40.594707" lon="8.5511758"><ele>358.0</ele><time>2026-04-30T13:33:09.704Z</time></trkpt><trkpt lat="40.5946696" lon="8.5508764"><ele>358.0</ele><time>2026-04-30T13:33:10.705Z</time></trkpt><trkpt lat="40.5946368" lon="8.5505861"><ele>358.0</ele><time>2026-04-30T13:33:11.705Z</time></trkpt><trkpt lat="40.5945928" lon="8.5503059"><ele>358.0</ele><time>2026-04-30T13:33:12.706Z</time></trkpt><trkpt lat="40.594537" lon="8.5500343"><ele>348.66666666666663</ele><time>2026-04-30T13:33:13.706Z</time></trkpt><trkpt lat="40.5944896" lon="8.5497607"><ele>339.3333333333333</ele><time>2026-04-30T13:33:14.706Z</time></trkpt><trkpt lat="40.5944567" lon="8.5494928"><ele>330.0</ele><time>2026-04-30T13:33:15.706Z</time></trkpt><trkpt lat="40.5944296" lon="8.549235"><ele>328.6666666666667</ele><time>2026-04-30T13:33:16.706Z</time></trkpt><trkpt lat="40.5943895" lon="8.5489967"><ele>327.33333333333337</ele><time>2026-04-30T13:33:17.706Z</time></trkpt><trkpt lat="40.5943481" lon="8.5487815"><ele>326.0</ele><time>2026-04-30T13:33:18.705Z</time></trkpt><trkpt lat="40.5943269" lon="8.5485805"><ele>324.6666666666667</ele><time>2026-04-30T13:33:19.706Z</time></trkpt><trkpt lat="40.5943328" lon="8.5483846"><ele>323.3333333333333</ele><time>2026-04-30T13:33:20.705Z</time></trkpt><trkpt lat="40.5943689" lon="8.548199"><ele>322.0</ele><time>2026-04-30T13:33:21.706Z</time></trkpt><trkpt lat="40.5944297" lon="8.548001"><ele>325.0</ele><time>2026-04-30T13:33:22.706Z</time></trkpt><trkpt lat="40.5945115" lon="8.5477784"><ele>328.0</ele><time>2026-04-30T13:33:23.705Z</time></trkpt><trkpt lat="40.5945944" lon="8.5475343"><ele>331.0</ele><time>2026-04-30T13:33:24.706Z</time></trkpt><trkpt lat="40.5946771" lon="8.5473059"><ele>331.0</ele><time>2026-04-30T13:33:25.706Z</time></trkpt><trkpt lat="40.5947592" lon="8.5471049"><ele>331.0</ele><time>2026-04-30T13:33:26.706Z</time></trkpt><trkpt lat="40.5948543" lon="8.5469331"><ele>331.0</ele><time>2026-04-30T13:33:27.706Z</time></trkpt><trkpt lat="40.5949691" lon="8.5467954"><ele>326.5</ele><time>2026-04-30T13:33:28.706Z</time></trkpt><trkpt lat="40.5950884" lon="8.5467011"><ele>322.0</ele><time>2026-04-30T13:33:29.706Z</time></trkpt><trkpt lat="40.5952147" lon="8.5466586"><ele>317.5</ele><time>2026-04-30T13:33:30.706Z</time></trkpt><trkpt lat="40.5953467" lon="8.5466642"><ele>313.0</ele><time>2026-04-30T13:33:31.706Z</time></trkpt><trkpt lat="40.5954823" lon="8.5467127"><ele>309.66666666666663</ele><time>2026-04-30T13:33:32.706Z</time></trkpt><trkpt lat="40.5956151" lon="8.5468015"><ele>306.3333333333333</ele><time>2026-04-30T13:33:33.706Z</time></trkpt><trkpt lat="40.5957496" lon="8.5469272"><ele>303.0</ele><time>2026-04-30T13:33:34.706Z</time></trkpt><trkpt lat="40.5959057" lon="8.5470785"><ele>309.3333333333333</ele><time>2026-04-30T13:33:35.706Z</time></trkpt><trkpt lat="40.5960476" lon="8.5472013"><ele>315.66666666666663</ele><time>2026-04-30T13:33:36.706Z</time></trkpt><trkpt lat="40.596194" lon="8.5472974"><ele>322.0</ele><time>2026-04-30T13:33:37.706Z</time></trkpt><trkpt lat="40.596338" lon="8.5473544"><ele>322.0</ele><time>2026-04-30T13:33:38.706Z</time></trkpt><trkpt lat="40.596465" lon="8.5473068"><ele>322.0</ele><time>2026-04-30T13:33:39.706Z</time></trkpt><trkpt lat="40.5965822" lon="8.547219"><ele>322.0</ele><time>2026-04-30T13:33:40.706Z</time></trkpt><trkpt lat="40.5966598" lon="8.5470828"><ele>322.0</ele><time>2026-04-30T13:33:41.706Z</time></trkpt><trkpt lat="40.5966967" lon="8.54691"><ele>316.66666666666663</ele><time>2026-04-30T13:33:42.706Z</time></trkpt><trkpt lat="40.5967031" lon="8.5467097"><ele>311.3333333333333</ele><time>2026-04-30T13:33:43.706Z</time></trkpt><trkpt lat="40.5967096" lon="8.5464814"><ele>306.0</ele><time>2026-04-30T13:33:44.706Z</time></trkpt><trkpt lat="40.5967513" lon="8.5462514"><ele>303.3333333333333</ele><time>2026-04-30T13:33:45.706Z</time></trkpt><trkpt lat="40.5968083" lon="8.5460234"><ele>300.66666666666663</ele><time>2026-04-30T13:33:46.706Z</time></trkpt><trkpt lat="40.5968408" lon="8.5458064"><ele>298.0</ele><time>2026-04-30T13:33:47.706Z</time></trkpt><trkpt lat="40.5968287" lon="8.5455815"><ele>296.66666666666663</ele><time>2026-04-30T13:33:48.705Z</time></trkpt><trkpt lat="40.5967995" lon="8.5453476"><ele>295.3333333333333</ele><time>2026-04-30T13:33:49.706Z</time></trkpt><trkpt lat="40.5967878" lon="8.5451003"><ele>294.0</ele><time>2026-04-30T13:33:50.705Z</time></trkpt><trkpt lat="40.5967719" lon="8.5448431"><ele>294.0</ele><time>2026-04-30T13:33:51.705Z</time></trkpt><trkpt lat="40.5967256" lon="8.5445897"><ele>294.0</ele><time>2026-04-30T13:33:52.706Z</time></trkpt><trkpt lat="40.5966546" lon="8.5443394"><ele>294.0</ele><time>2026-04-30T13:33:53.706Z</time></trkpt><trkpt lat="40.5965709" lon="8.5440958"><ele>293.6666666666667</ele><time>2026-04-30T13:33:54.705Z</time></trkpt><trkpt lat="40.5964967" lon="8.5438598"><ele>293.33333333333337</ele><time>2026-04-30T13:33:55.705Z</time></trkpt><trkpt lat="40.5964498" lon="8.543626"><ele>293.0</ele><time>2026-04-30T13:33:56.706Z</time></trkpt><trkpt lat="40.5964334" lon="8.5433793"><ele>293.0</ele><time>2026-04-30T13:33:57.706Z</time></trkpt><trkpt lat="40.596452" lon="8.5431202"><ele>293.0</ele><time>2026-04-30T13:33:58.705Z</time></trkpt><trkpt lat="40.5964942" lon="8.542851"><ele>293.0</ele><time>2026-04-30T13:33:59.706Z</time></trkpt><trkpt lat="40.5965615" lon="8.5425747"><ele>290.33333333333337</ele><time>2026-04-30T13:34:00.706Z</time></trkpt><trkpt lat="40.5966441" lon="8.5423015"><ele>287.6666666666667</ele><time>2026-04-30T13:34:01.706Z</time></trkpt><trkpt lat="40.5967294" lon="8.5420397"><ele>285.0</ele><time>2026-04-30T13:34:02.706Z</time></trkpt><trkpt lat="40.5968033" lon="8.5417673"><ele>281.6666666666667</ele><time>2026-04-30T13:34:03.706Z</time></trkpt><trkpt lat="40.5968492" lon="8.5414792"><ele>278.33333333333337</ele><time>2026-04-30T13:34:04.706Z</time></trkpt><trkpt lat="40.5968684" lon="8.5411862"><ele>275.0</ele><time>2026-04-30T13:34:05.705Z</time></trkpt><trkpt lat="40.5968652" lon="8.5409257"><ele>273.25</ele><time>2026-04-30T13:34:06.706Z</time></trkpt><trkpt lat="40.596859" lon="8.5407071"><ele>271.5</ele><time>2026-04-30T13:34:07.706Z</time></trkpt><trkpt lat="40.596853" lon="8.540523"><ele>269.75</ele><time>2026-04-30T13:34:08.706Z</time></trkpt><trkpt lat="40.5968485" lon="8.5403648"><ele>268.0</ele><time>2026-04-30T13:34:09.705Z</time></trkpt><trkpt lat="40.5968454" lon="8.5402157"><ele>268.0</ele><time>2026-04-30T13:34:10.706Z</time></trkpt><trkpt lat="40.5968411" lon="8.5400678"><ele>268.0</ele><time>2026-04-30T13:34:11.706Z</time></trkpt><trkpt lat="40.5968343" lon="8.5399109"><ele>268.0</ele><time>2026-04-30T13:34:12.705Z</time></trkpt><trkpt lat="40.5968264" lon="8.5397463"><ele>268.0</ele><time>2026-04-30T13:34:13.705Z</time></trkpt><trkpt lat="40.5968197" lon="8.539574"><ele>267.5</ele><time>2026-04-30T13:34:14.706Z</time></trkpt><trkpt lat="40.5968101" lon="8.5393933"><ele>267.0</ele><time>2026-04-30T13:34:15.706Z</time></trkpt><trkpt lat="40.5967982" lon="8.5391987"><ele>266.5</ele><time>2026-04-30T13:34:16.705Z</time></trkpt><trkpt lat="40.5967881" lon="8.5389997"><ele>266.0</ele><time>2026-04-30T13:34:17.705Z</time></trkpt><trkpt lat="40.5967876" lon="8.5388037"><ele>262.33333333333337</ele><time>2026-04-30T13:34:18.706Z</time></trkpt><trkpt lat="40.5968068" lon="8.5386131"><ele>258.6666666666667</ele><time>2026-04-30T13:34:19.706Z</time></trkpt><trkpt lat="40.5968538" lon="8.5384206"><ele>255.0</ele><time>2026-04-30T13:34:20.706Z</time></trkpt><trkpt lat="40.5969315" lon="8.5382217"><ele>256.0</ele><time>2026-04-30T13:34:21.706Z</time></trkpt><trkpt lat="40.597028" lon="8.5380303"><ele>257.0</ele><time>2026-04-30T13:34:22.705Z</time></trkpt><trkpt lat="40.5971416" lon="8.5378424"><ele>258.0</ele><time>2026-04-30T13:34:23.706Z</time></trkpt><trkpt lat="40.5972654" lon="8.5376542"><ele>258.0</ele><time>2026-04-30T13:34:24.706Z</time></trkpt><trkpt lat="40.5973877" lon="8.5374728"><ele>258.0</ele><time>2026-04-30T13:34:25.703Z</time></trkpt><trkpt lat="40.5975117" lon="8.5373103"><ele>258.0</ele><time>2026-04-30T13:34:26.706Z</time></trkpt><trkpt lat="40.5976455" lon="8.5371842"><ele>258.0</ele><time>2026-04-30T13:34:27.706Z</time></trkpt><trkpt lat="40.597782" lon="8.5370843"><ele>258.0</ele><time>2026-04-30T13:34:28.706Z</time></trkpt><trkpt lat="40.5979053" lon="8.5369766"><ele>258.0</ele><time>2026-04-30T13:34:29.705Z</time></trkpt><trkpt lat="40.5980028" lon="8.5368313"><ele>257.6666666666667</ele><time>2026-04-30T13:34:30.705Z</time></trkpt><trkpt lat="40.5980722" lon="8.5366461"><ele>257.33333333333337</ele><time>2026-04-30T13:34:31.706Z</time></trkpt><trkpt lat="40.5981266" lon="8.536434"><ele>257.0</ele><time>2026-04-30T13:34:32.706Z</time></trkpt><trkpt lat="40.5981825" lon="8.5361976"><ele>252.66666666666669</ele><time>2026-04-30T13:34:33.706Z</time></trkpt><trkpt lat="40.5982501" lon="8.535946"><ele>248.33333333333331</ele><time>2026-04-30T13:34:34.706Z</time></trkpt><trkpt lat="40.5983383" lon="8.5356957"><ele>244.0</ele><time>2026-04-30T13:34:35.706Z</time></trkpt><trkpt lat="40.5984447" lon="8.5354582"><ele>243.66666666666666</ele><time>2026-04-30T13:34:36.705Z</time></trkpt><trkpt lat="40.598552" lon="8.5352417"><ele>243.33333333333331</ele><time>2026-04-30T13:34:37.706Z</time></trkpt><trkpt lat="40.5986386" lon="8.5350288"><ele>243.0</ele><time>2026-04-30T13:34:38.706Z</time></trkpt><trkpt lat="40.5987089" lon="8.5348376"><ele>243.0</ele><time>2026-04-30T13:34:39.705Z</time></trkpt><trkpt lat="40.5987723" lon="8.5346679"><ele>243.0</ele><time>2026-04-30T13:34:40.705Z</time></trkpt><trkpt lat="40.5988398" lon="8.5345158"><ele>243.0</ele><time>2026-04-30T13:34:41.706Z</time></trkpt><trkpt lat="40.5989276" lon="8.534399"><ele>243.0</ele><time>2026-04-30T13:34:42.706Z</time></trkpt><trkpt lat="40.5990422" lon="8.5343212"><ele>237.66666666666669</ele><time>2026-04-30T13:34:43.706Z</time></trkpt><trkpt lat="40.5991785" lon="8.5342797"><ele>232.33333333333334</ele><time>2026-04-30T13:34:44.706Z</time></trkpt><trkpt lat="40.5993304" lon="8.5342584"><ele>227.0</ele><time>2026-04-30T13:34:45.706Z</time></trkpt><trkpt lat="40.5994878" lon="8.5342547"><ele>224.66666666666669</ele><time>2026-04-30T13:34:46.706Z</time></trkpt><trkpt lat="40.5996332" lon="8.5342796"><ele>222.33333333333331</ele><time>2026-04-30T13:34:47.705Z</time></trkpt><trkpt lat="40.5997732" lon="8.5343489"><ele>220.0</ele><time>2026-04-30T13:34:48.706Z</time></trkpt><trkpt lat="40.5999133" lon="8.5344567"><ele>219.33333333333331</ele><time>2026-04-30T13:34:49.705Z</time></trkpt><trkpt lat="40.6000705" lon="8.534573"><ele>218.66666666666669</ele><time>2026-04-30T13:34:50.706Z</time></trkpt><trkpt lat="40.6002393" lon="8.5346578"><ele>218.0</ele><time>2026-04-30T13:34:51.706Z</time></trkpt><trkpt lat="40.6003994" lon="8.5347263"><ele>218.0</ele><time>2026-04-30T13:34:52.706Z</time></trkpt><trkpt lat="40.6005459" lon="8.534809"><ele>218.0</ele><time>2026-04-30T13:34:53.705Z</time></trkpt><trkpt lat="40.600682" lon="8.534921"><ele>218.0</ele><time>2026-04-30T13:34:54.706Z</time></trkpt><trkpt lat="40.6008038" lon="8.5350691"><ele>218.0</ele><time>2026-04-30T13:34:55.705Z</time></trkpt><trkpt lat="40.6009165" lon="8.5352481"><ele>218.0</ele><time>2026-04-30T13:34:56.705Z</time></trkpt><trkpt lat="40.6010363" lon="8.5354385"><ele>218.0</ele><time>2026-04-30T13:34:57.706Z</time></trkpt><trkpt lat="40.6011541" lon="8.5356118"><ele>217.25</ele><time>2026-04-30T13:34:58.706Z</time></trkpt><trkpt lat="40.601265" lon="8.5357604"><ele>216.5</ele><time>2026-04-30T13:34:59.705Z</time></trkpt><trkpt lat="40.6013853" lon="8.5358563"><ele>215.75</ele><time>2026-04-30T13:35:00.705Z</time></trkpt><trkpt lat="40.6015123" lon="8.5358815"><ele>215.0</ele><time>2026-04-30T13:35:01.706Z</time></trkpt><trkpt lat="40.6016368" lon="8.5358361"><ele>215.0</ele><time>2026-04-30T13:35:02.706Z</time></trkpt><trkpt lat="40.6017691" lon="8.5357654"><ele>215.0</ele><time>2026-04-30T13:35:03.706Z</time></trkpt><trkpt lat="40.6019208" lon="8.5357199"><ele>215.0</ele><time>2026-04-30T13:35:04.705Z</time></trkpt><trkpt lat="40.6020964" lon="8.5357074"><ele>213.33333333333334</ele><time>2026-04-30T13:35:05.706Z</time></trkpt><trkpt lat="40.6022885" lon="8.5357195"><ele>211.66666666666669</ele><time>2026-04-30T13:35:06.704Z</time></trkpt><trkpt lat="40.6024866" lon="8.5357542"><ele>210.0</ele><time>2026-04-30T13:35:07.705Z</time></trkpt><trkpt lat="40.6026829" lon="8.5358268"><ele>208.33333333333331</ele><time>2026-04-30T13:35:08.706Z</time></trkpt><trkpt lat="40.6028582" lon="8.5359326"><ele>206.66666666666666</ele><time>2026-04-30T13:35:09.706Z</time></trkpt><trkpt lat="40.6030082" lon="8.5360474"><ele>205.0</ele><time>2026-04-30T13:35:10.706Z</time></trkpt><trkpt lat="40.6031336" lon="8.5361272"><ele>205.0</ele><time>2026-04-30T13:35:11.706Z</time></trkpt><trkpt lat="40.6032524" lon="8.5361541"><ele>205.0</ele><time>2026-04-30T13:35:12.706Z</time></trkpt><trkpt lat="40.6033632" lon="8.5361218"><ele>205.0</ele><time>2026-04-30T13:35:13.706Z</time></trkpt><trkpt lat="40.6034573" lon="8.5360242"><ele>205.0</ele><time>2026-04-30T13:35:14.706Z</time></trkpt><trkpt lat="40.6035515" lon="8.5358714"><ele>205.0</ele><time>2026-04-30T13:35:15.706Z</time></trkpt><trkpt lat="40.6036573" lon="8.5356771"><ele>205.0</ele><time>2026-04-30T13:35:16.705Z</time></trkpt><trkpt lat="40.6037504" lon="8.5355114"><ele>205.0</ele><time>2026-04-30T13:35:17.706Z</time></trkpt><trkpt lat="40.6038423" lon="8.5353708"><ele>204.2</ele><time>2026-04-30T13:35:18.706Z</time></trkpt><trkpt lat="40.6039374" lon="8.5352753"><ele>203.4</ele><time>2026-04-30T13:35:19.706Z</time></trkpt><trkpt lat="40.6040355" lon="8.5352467"><ele>202.60000000000002</ele><time>2026-04-30T13:35:20.705Z</time></trkpt><trkpt lat="40.604125" lon="8.5352762"><ele>201.8</ele><time>2026-04-30T13:35:21.705Z</time></trkpt><trkpt lat="40.6042011" lon="8.5353671"><ele>201.0</ele><time>2026-04-30T13:35:22.706Z</time></trkpt><trkpt lat="40.604252" lon="8.5355066"><ele>201.0</ele><time>2026-04-30T13:35:23.706Z</time></trkpt><trkpt lat="40.6043146" lon="8.5356577"><ele>201.0</ele><time>2026-04-30T13:35:24.705Z</time></trkpt><trkpt lat="40.6044161" lon="8.5357838"><ele>201.0</ele><time>2026-04-30T13:35:25.706Z</time></trkpt><trkpt lat="40.6045397" lon="8.535887"><ele>201.0</ele><time>2026-04-30T13:35:26.706Z</time></trkpt><trkpt lat="40.6046821" lon="8.5359381"><ele>199.66666666666669</ele><time>2026-04-30T13:35:27.705Z</time></trkpt><trkpt lat="40.6048333" lon="8.5359356"><ele>198.33333333333334</ele><time>2026-04-30T13:35:28.706Z</time></trkpt><trkpt lat="40.6049855" lon="8.535877"><ele>197.0</ele><time>2026-04-30T13:35:29.705Z</time></trkpt><trkpt lat="40.6051223" lon="8.5357681"><ele>197.0</ele><time>2026-04-30T13:35:30.705Z</time></trkpt><trkpt lat="40.6052311" lon="8.5356131"><ele>197.0</ele><time>2026-04-30T13:35:31.703Z</time></trkpt><trkpt lat="40.6053143" lon="8.5354273"><ele>197.0</ele><time>2026-04-30T13:35:32.704Z</time></trkpt><trkpt lat="40.6053984" lon="8.5352406"><ele>197.33333333333334</ele><time>2026-04-30T13:35:33.705Z</time></trkpt><trkpt lat="40.6055112" lon="8.5350738"><ele>197.66666666666669</ele><time>2026-04-30T13:35:34.703Z</time></trkpt><trkpt lat="40.6056523" lon="8.5349223"><ele>198.0</ele><time>2026-04-30T13:35:35.706Z</time></trkpt><trkpt lat="40.605804" lon="8.5347782"><ele>198.0</ele><time>2026-04-30T13:35:36.706Z</time></trkpt><trkpt lat="40.6059646" lon="8.5346312"><ele>198.0</ele><time>2026-04-30T13:35:37.706Z</time></trkpt><trkpt lat="40.6061251" lon="8.5344712"><ele>198.0</ele><time>2026-04-30T13:35:38.706Z</time></trkpt><trkpt lat="40.6062808" lon="8.5343217"><ele>194.66666666666666</ele><time>2026-04-30T13:35:39.706Z</time></trkpt><trkpt lat="40.6064339" lon="8.5341818"><ele>191.33333333333331</ele><time>2026-04-30T13:35:40.705Z</time></trkpt><trkpt lat="40.606577" lon="8.5340516"><ele>188.0</ele><time>2026-04-30T13:35:41.706Z</time></trkpt><trkpt lat="40.6067134" lon="8.5339443"><ele>188.0</ele><time>2026-04-30T13:35:42.706Z</time></trkpt><trkpt lat="40.6068548" lon="8.5338789"><ele>188.0</ele><time>2026-04-30T13:35:43.706Z</time></trkpt><trkpt lat="40.6069966" lon="8.5338699"><ele>188.0</ele><time>2026-04-30T13:35:44.706Z</time></trkpt><trkpt lat="40.6071362" lon="8.5339051"><ele>188.0</ele><time>2026-04-30T13:35:45.706Z</time></trkpt><trkpt lat="40.6072661" lon="8.5339593"><ele>187.75</ele><time>2026-04-30T13:35:46.706Z</time></trkpt><trkpt lat="40.6073874" lon="8.5339768"><ele>187.5</ele><time>2026-04-30T13:35:47.706Z</time></trkpt><trkpt lat="40.6074983" lon="8.5339356"><ele>187.25</ele><time>2026-04-30T13:35:48.706Z</time></trkpt><trkpt lat="40.6075787" lon="8.5338403"><ele>187.0</ele><time>2026-04-30T13:35:49.706Z</time></trkpt><trkpt lat="40.6076165" lon="8.5336906"><ele>184.0</ele><time>2026-04-30T13:35:50.706Z</time></trkpt><trkpt lat="40.6076259" lon="8.533512"><ele>181.0</ele><time>2026-04-30T13:35:51.706Z</time></trkpt><trkpt lat="40.6076063" lon="8.5332828"><ele>178.0</ele><time>2026-04-30T13:35:52.705Z</time></trkpt><trkpt lat="40.6075803" lon="8.5330251"><ele>175.33333333333334</ele><time>2026-04-30T13:35:53.705Z</time></trkpt><trkpt lat="40.6075627" lon="8.5327921"><ele>172.66666666666666</ele><time>2026-04-30T13:35:54.702Z</time></trkpt><trkpt lat="40.6075562" lon="8.5325782"><ele>170.0</ele><time>2026-04-30T13:35:55.706Z</time></trkpt><trkpt lat="40.6075809" lon="8.5323743"><ele>170.0</ele><time>2026-04-30T13:35:56.706Z</time></trkpt><trkpt lat="40.6076488" lon="8.5321799"><ele>170.0</ele><time>2026-04-30T13:35:57.706Z</time></trkpt><trkpt lat="40.6077518" lon="8.5319821"><ele>170.0</ele><time>2026-04-30T13:35:58.706Z</time></trkpt><trkpt lat="40.6078791" lon="8.5317675"><ele>174.5</ele><time>2026-04-30T13:35:59.706Z</time></trkpt><trkpt lat="40.6080251" lon="8.531542"><ele>179.0</ele><time>2026-04-30T13:36:00.705Z</time></trkpt><trkpt lat="40.6081768" lon="8.5313238"><ele>172.66666666666666</ele><time>2026-04-30T13:36:01.706Z</time></trkpt><trkpt lat="40.608326" lon="8.5311144"><ele>166.33333333333334</ele><time>2026-04-30T13:36:02.706Z</time></trkpt><trkpt lat="40.6084701" lon="8.5308876"><ele>160.0</ele><time>2026-04-30T13:36:03.705Z</time></trkpt><trkpt lat="40.6085911" lon="8.5306481"><ele>161.0</ele><time>2026-04-30T13:36:04.705Z</time></trkpt><trkpt lat="40.6086899" lon="8.5304014"><ele>162.0</ele><time>2026-04-30T13:36:05.706Z</time></trkpt><trkpt lat="40.608778" lon="8.5301608"><ele>163.0</ele><time>2026-04-30T13:36:06.706Z</time></trkpt><trkpt lat="40.6088806" lon="8.5299529"><ele>163.0</ele><time>2026-04-30T13:36:07.706Z</time></trkpt><trkpt lat="40.6090011" lon="8.5297654"><ele>163.0</ele><time>2026-04-30T13:36:08.706Z</time></trkpt><trkpt lat="40.6091022" lon="8.5295723"><ele>163.0</ele><time>2026-04-30T13:36:09.706Z</time></trkpt><trkpt lat="40.6092013" lon="8.5293846"><ele>160.66666666666669</ele><time>2026-04-30T13:36:10.706Z</time></trkpt><trkpt lat="40.6093074" lon="8.5292306"><ele>158.33333333333334</ele><time>2026-04-30T13:36:11.705Z</time></trkpt><trkpt lat="40.6094245" lon="8.5291082"><ele>156.0</ele><time>2026-04-30T13:36:12.705Z</time></trkpt><trkpt lat="40.6095696" lon="8.5290032"><ele>156.0</ele><time>2026-04-30T13:36:13.705Z</time></trkpt><trkpt lat="40.6097385" lon="8.528903"><ele>156.0</ele><time>2026-04-30T13:36:14.705Z</time></trkpt><trkpt lat="40.6099287" lon="8.5287932"><ele>156.0</ele><time>2026-04-30T13:36:15.706Z</time></trkpt><trkpt lat="40.6101326" lon="8.5286745"><ele>150.0</ele><time>2026-04-30T13:36:16.706Z</time></trkpt><trkpt lat="40.6103446" lon="8.528553"><ele>144.0</ele><time>2026-04-30T13:36:17.706Z</time></trkpt><trkpt lat="40.6105457" lon="8.5284399"><ele>144.0</ele><time>2026-04-30T13:36:18.705Z</time></trkpt><trkpt lat="40.6107431" lon="8.5283271"><ele>144.0</ele><time>2026-04-30T13:36:19.703Z</time></trkpt><trkpt lat="40.6109363" lon="8.5282137"><ele>144.0</ele><time>2026-04-30T13:36:20.706Z</time></trkpt><trkpt lat="40.6111165" lon="8.5280819"><ele>144.33333333333334</ele><time>2026-04-30T13:36:21.706Z</time></trkpt><trkpt lat="40.6112749" lon="8.5279167"><ele>144.66666666666669</ele><time>2026-04-30T13:36:22.706Z</time></trkpt><trkpt lat="40.6114147" lon="8.5277184"><ele>145.0</ele><time>2026-04-30T13:36:23.703Z</time></trkpt><trkpt lat="40.611544" lon="8.5274991"><ele>143.0</ele><time>2026-04-30T13:36:24.705Z</time></trkpt><trkpt lat="40.6116784" lon="8.527262"><ele>141.0</ele><time>2026-04-30T13:36:25.705Z</time></trkpt><trkpt lat="40.6118151" lon="8.5270235"><ele>140.0</ele><time>2026-04-30T13:36:26.704Z</time></trkpt><trkpt lat="40.6119539" lon="8.5267842"><ele>139.0</ele><time>2026-04-30T13:36:27.705Z</time></trkpt><trkpt lat="40.6120923" lon="8.5265403"><ele>141.0</ele><time>2026-04-30T13:36:28.706Z</time></trkpt><trkpt lat="40.6122324" lon="8.5262927"><ele>143.0</ele><time>2026-04-30T13:36:29.705Z</time></trkpt><trkpt lat="40.6123754" lon="8.5260433"><ele>143.0</ele><time>2026-04-30T13:36:30.706Z</time></trkpt><trkpt lat="40.6125213" lon="8.5257913"><ele>143.0</ele><time>2026-04-30T13:36:31.706Z</time></trkpt><trkpt lat="40.6126664" lon="8.5255362"><ele>144.0</ele><time>2026-04-30T13:36:32.706Z</time></trkpt><trkpt lat="40.6128104" lon="8.5252784"><ele>145.0</ele><time>2026-04-30T13:36:33.705Z</time></trkpt><trkpt lat="40.6129549" lon="8.5250187"><ele>145.0</ele><time>2026-04-30T13:36:34.706Z</time></trkpt><trkpt lat="40.6130992" lon="8.5247613"><ele>145.0</ele><time>2026-04-30T13:36:35.706Z</time></trkpt><trkpt lat="40.613242" lon="8.5245091"><ele>141.0</ele><time>2026-04-30T13:36:36.706Z</time></trkpt><trkpt lat="40.613379" lon="8.5242681"><ele>137.0</ele><time>2026-04-30T13:36:37.705Z</time></trkpt><trkpt lat="40.6135135" lon="8.524031"><ele>137.0</ele><time>2026-04-30T13:36:38.705Z</time></trkpt><trkpt lat="40.6136473" lon="8.5237939"><ele>137.0</ele><time>2026-04-30T13:36:39.706Z</time></trkpt><trkpt lat="40.6137828" lon="8.5235561"><ele>138.33333333333331</ele><time>2026-04-30T13:36:40.706Z</time></trkpt><trkpt lat="40.6139193" lon="8.5233168"><ele>139.66666666666666</ele><time>2026-04-30T13:36:41.706Z</time></trkpt><trkpt lat="40.6140504" lon="8.5230884"><ele>141.0</ele><time>2026-04-30T13:36:42.705Z</time></trkpt><trkpt lat="40.6141737" lon="8.5228779"><ele>141.0</ele><time>2026-04-30T13:36:43.705Z</time></trkpt><trkpt lat="40.6142832" lon="8.5226812"><ele>141.0</ele><time>2026-04-30T13:36:44.706Z</time></trkpt><trkpt lat="40.6143811" lon="8.5224932"><ele>141.0</ele><time>2026-04-30T13:36:45.706Z</time></trkpt><trkpt lat="40.6144548" lon="8.522307"><ele>140.66666666666666</ele><time>2026-04-30T13:36:46.706Z</time></trkpt><trkpt lat="40.6144997" lon="8.5221009"><ele>140.33333333333331</ele><time>2026-04-30T13:36:47.706Z</time></trkpt><trkpt lat="40.6145059" lon="8.5218794"><ele>140.0</ele><time>2026-04-30T13:36:48.706Z</time></trkpt><trkpt lat="40.6144728" lon="8.5216533"><ele>140.0</ele><time>2026-04-30T13:36:49.706Z</time></trkpt><trkpt lat="40.6144005" lon="8.5214361"><ele>140.0</ele><time>2026-04-30T13:36:50.704Z</time></trkpt><trkpt lat="40.6142891" lon="8.5212245"><ele>140.0</ele><time>2026-04-30T13:36:51.706Z</time></trkpt><trkpt lat="40.6141507" lon="8.5210229"><ele>142.0</ele><time>2026-04-30T13:36:52.706Z</time></trkpt><trkpt lat="40.6139969" lon="8.5208432"><ele>144.0</ele><time>2026-04-30T13:36:53.704Z</time></trkpt><trkpt lat="40.6138457" lon="8.5206903"><ele>146.0</ele><time>2026-04-30T13:36:54.706Z</time></trkpt><trkpt lat="40.6137104" lon="8.5205432"><ele>142.33333333333331</ele><time>2026-04-30T13:36:55.706Z</time></trkpt><trkpt lat="40.6136113" lon="8.5203682"><ele>138.66666666666666</ele><time>2026-04-30T13:36:56.705Z</time></trkpt><trkpt lat="40.6135341" lon="8.520171"><ele>135.0</ele><time>2026-04-30T13:36:57.706Z</time></trkpt><trkpt lat="40.6134834" lon="8.519948"><ele>135.0</ele><time>2026-04-30T13:36:58.706Z</time></trkpt><trkpt lat="40.6134526" lon="8.5196999"><ele>135.0</ele><time>2026-04-30T13:36:59.706Z</time></trkpt><trkpt lat="40.6134264" lon="8.5194277"><ele>135.0</ele><time>2026-04-30T13:37:00.706Z</time></trkpt><trkpt lat="40.6134033" lon="8.5191347"><ele>135.33333333333334</ele><time>2026-04-30T13:37:01.706Z</time></trkpt><trkpt lat="40.6133795" lon="8.5188664"><ele>135.66666666666669</ele><time>2026-04-30T13:37:02.706Z</time></trkpt><trkpt lat="40.6133389" lon="8.5186098"><ele>136.0</ele><time>2026-04-30T13:37:03.706Z</time></trkpt><trkpt lat="40.613269" lon="8.5183563"><ele>138.0</ele><time>2026-04-30T13:37:04.706Z</time></trkpt><trkpt lat="40.6131663" lon="8.5181194"><ele>140.0</ele><time>2026-04-30T13:37:05.706Z</time></trkpt><trkpt lat="40.6130442" lon="8.5178845"><ele>142.0</ele><time>2026-04-30T13:37:06.706Z</time></trkpt><trkpt lat="40.6129189" lon="8.5176429"><ele>138.66666666666669</ele><time>2026-04-30T13:37:07.705Z</time></trkpt><trkpt lat="40.6128049" lon="8.5174261"><ele>135.33333333333334</ele><time>2026-04-30T13:37:08.706Z</time></trkpt><trkpt lat="40.612704" lon="8.5172258"><ele>132.0</ele><time>2026-04-30T13:37:09.706Z</time></trkpt><trkpt lat="40.612623" lon="8.517024"><ele>132.0</ele><time>2026-04-30T13:37:10.706Z</time></trkpt><trkpt lat="40.6125816" lon="8.5168078"><ele>132.0</ele><time>2026-04-30T13:37:11.706Z</time></trkpt><trkpt lat="40.6125752" lon="8.5165742"><ele>132.0</ele><time>2026-04-30T13:37:12.705Z</time></trkpt><trkpt lat="40.6126022" lon="8.5163241"><ele>130.66666666666666</ele><time>2026-04-30T13:37:13.706Z</time></trkpt><trkpt lat="40.6126523" lon="8.5160527"><ele>129.33333333333331</ele><time>2026-04-30T13:37:14.706Z</time></trkpt><trkpt lat="40.612711" lon="8.5157596"><ele>128.0</ele><time>2026-04-30T13:37:15.705Z</time></trkpt><trkpt lat="40.6127738" lon="8.5154464"><ele>137.5</ele><time>2026-04-30T13:37:16.706Z</time></trkpt><trkpt lat="40.6128377" lon="8.515115"><ele>147.0</ele><time>2026-04-30T13:37:17.706Z</time></trkpt><trkpt lat="40.6129041" lon="8.5147728"><ele>145.0</ele><time>2026-04-30T13:37:18.706Z</time></trkpt><trkpt lat="40.6129714" lon="8.5144276"><ele>143.0</ele><time>2026-04-30T13:37:19.706Z</time></trkpt><trkpt lat="40.6130385" lon="8.5140717"><ele>140.5</ele><time>2026-04-30T13:37:20.706Z</time></trkpt><trkpt lat="40.6131082" lon="8.5137128"><ele>138.0</ele><time>2026-04-30T13:37:21.706Z</time></trkpt><trkpt lat="40.6131799" lon="8.5133493"><ele>138.0</ele><time>2026-04-30T13:37:22.704Z</time></trkpt><trkpt lat="40.613252" lon="8.5129815"><ele>138.0</ele><time>2026-04-30T13:37:23.706Z</time></trkpt><trkpt lat="40.6133269" lon="8.5126085"><ele>134.5</ele><time>2026-04-30T13:37:24.706Z</time></trkpt><trkpt lat="40.6133998" lon="8.5122376"><ele>131.0</ele><time>2026-04-30T13:37:25.705Z</time></trkpt><trkpt lat="40.6134693" lon="8.5118847"><ele>128.0</ele><time>2026-04-30T13:37:26.706Z</time></trkpt><trkpt lat="40.6135352" lon="8.5115494"><ele>125.0</ele><time>2026-04-30T13:37:27.706Z</time></trkpt><trkpt lat="40.6135965" lon="8.5112304"><ele>123.33333333333333</ele><time>2026-04-30T13:37:28.705Z</time></trkpt><trkpt lat="40.6136521" lon="8.5109396"><ele>121.66666666666666</ele><time>2026-04-30T13:37:29.705Z</time></trkpt><trkpt lat="40.6137052" lon="8.5106744"><ele>120.0</ele><time>2026-04-30T13:37:30.706Z</time></trkpt><trkpt lat="40.6137549" lon="8.5104229"><ele>123.66666666666666</ele><time>2026-04-30T13:37:31.705Z</time></trkpt><trkpt lat="40.6138108" lon="8.5101954"><ele>127.33333333333333</ele><time>2026-04-30T13:37:32.706Z</time></trkpt><trkpt lat="40.6138983" lon="8.5099853"><ele>131.0</ele><time>2026-04-30T13:37:33.706Z</time></trkpt><trkpt lat="40.6140082" lon="8.5097866"><ele>131.0</ele><time>2026-04-30T13:37:34.706Z</time></trkpt><trkpt lat="40.6141269" lon="8.5095917"><ele>131.0</ele><time>2026-04-30T13:37:35.706Z</time></trkpt><trkpt lat="40.614231" lon="8.5094001"><ele>131.0</ele><time>2026-04-30T13:37:36.706Z</time></trkpt><trkpt lat="40.6143253" lon="8.509181"><ele>128.66666666666666</ele><time>2026-04-30T13:37:37.705Z</time></trkpt><trkpt lat="40.6144005" lon="8.5089334"><ele>126.33333333333334</ele><time>2026-04-30T13:37:38.706Z</time></trkpt><trkpt lat="40.6144502" lon="8.5086594"><ele>124.0</ele><time>2026-04-30T13:37:39.706Z</time></trkpt><trkpt lat="40.614477" lon="8.5083652"><ele>122.5</ele><time>2026-04-30T13:37:40.706Z</time></trkpt><trkpt lat="40.6144824" lon="8.5080549"><ele>121.0</ele><time>2026-04-30T13:37:41.705Z</time></trkpt><trkpt lat="40.6144749" lon="8.5077375"><ele>121.0</ele><time>2026-04-30T13:37:42.706Z</time></trkpt><trkpt lat="40.6144694" lon="8.5074279"><ele>121.0</ele><time>2026-04-30T13:37:43.706Z</time></trkpt><trkpt lat="40.614473" lon="8.5071128"><ele>136.0</ele><time>2026-04-30T13:37:44.705Z</time></trkpt><trkpt lat="40.6144908" lon="8.5067945"><ele>151.0</ele><time>2026-04-30T13:37:45.706Z</time></trkpt><trkpt lat="40.6145267" lon="8.5064743"><ele>149.0</ele><time>2026-04-30T13:37:46.706Z</time></trkpt><trkpt lat="40.6145743" lon="8.5061555"><ele>147.0</ele><time>2026-04-30T13:37:47.706Z</time></trkpt><trkpt lat="40.6146292" lon="8.5058371"><ele>147.0</ele><time>2026-04-30T13:37:48.706Z</time></trkpt><trkpt lat="40.6146824" lon="8.5055298"><ele>147.0</ele><time>2026-04-30T13:37:49.705Z</time></trkpt><trkpt lat="40.6147229" lon="8.5052375"><ele>146.66666666666666</ele><time>2026-04-30T13:37:50.705Z</time></trkpt><trkpt lat="40.6147402" lon="8.5049479"><ele>146.33333333333331</ele><time>2026-04-30T13:37:51.706Z</time></trkpt><trkpt lat="40.6147365" lon="8.5046549"><ele>146.0</ele><time>2026-04-30T13:37:52.706Z</time></trkpt><trkpt lat="40.6147214" lon="8.504354"><ele>146.0</ele><time>2026-04-30T13:37:53.706Z</time></trkpt><trkpt lat="40.6147003" lon="8.5040437"><ele>146.0</ele><time>2026-04-30T13:37:54.705Z</time></trkpt><trkpt lat="40.6146789" lon="8.5037278"><ele>147.0</ele><time>2026-04-30T13:37:55.706Z</time></trkpt><trkpt lat="40.6146548" lon="8.5034077"><ele>148.0</ele><time>2026-04-30T13:37:56.705Z</time></trkpt><trkpt lat="40.6146336" lon="8.503086"><ele>148.0</ele><time>2026-04-30T13:37:57.706Z</time></trkpt><trkpt lat="40.6146141" lon="8.5027644"><ele>148.0</ele><time>2026-04-30T13:37:58.706Z</time></trkpt><trkpt lat="40.6145952" lon="8.5024408"><ele>148.0</ele><time>2026-04-30T13:37:59.706Z</time></trkpt><trkpt lat="40.6145745" lon="8.5021172"><ele>148.0</ele><time>2026-04-30T13:38:00.706Z</time></trkpt><trkpt lat="40.6145536" lon="8.5018071"><ele>149.33333333333334</ele><time>2026-04-30T13:38:01.705Z</time></trkpt><trkpt lat="40.6145267" lon="8.5015115"><ele>150.66666666666666</ele><time>2026-04-30T13:38:02.706Z</time></trkpt><trkpt lat="40.614479" lon="8.5012281"><ele>152.0</ele><time>2026-04-30T13:38:03.706Z</time></trkpt><trkpt lat="40.6144029" lon="8.5009591"><ele>147.0</ele><time>2026-04-30T13:38:04.705Z</time></trkpt><trkpt lat="40.6142968" lon="8.5007124"><ele>142.0</ele><time>2026-04-30T13:38:05.706Z</time></trkpt><trkpt lat="40.6141706" lon="8.5004834"><ele>137.0</ele><time>2026-04-30T13:38:06.706Z</time></trkpt><trkpt lat="40.6140376" lon="8.500263"><ele>137.0</ele><time>2026-04-30T13:38:07.705Z</time></trkpt><trkpt lat="40.6139313" lon="8.5000427"><ele>137.0</ele><time>2026-04-30T13:38:08.706Z</time></trkpt><trkpt lat="40.6138556" lon="8.4998137"><ele>137.0</ele><time>2026-04-30T13:38:09.706Z</time></trkpt><trkpt lat="40.6138108" lon="8.4995817"><ele>137.0</ele><time>2026-04-30T13:38:10.704Z</time></trkpt><trkpt lat="40.6137999" lon="8.4993242"><ele>137.0</ele><time>2026-04-30T13:38:11.705Z</time></trkpt><trkpt lat="40.6138227" lon="8.4990517"><ele>137.0</ele><time>2026-04-30T13:38:12.706Z</time></trkpt><trkpt lat="40.6138479" lon="8.4987754"><ele>135.66666666666666</ele><time>2026-04-30T13:38:13.702Z</time></trkpt><trkpt lat="40.6138529" lon="8.4984872"><ele>134.33333333333334</ele><time>2026-04-30T13:38:14.706Z</time></trkpt><trkpt lat="40.6138286" lon="8.4981981"><ele>133.0</ele><time>2026-04-30T13:38:15.706Z</time></trkpt><trkpt lat="40.6137722" lon="8.4979257"><ele>132.66666666666669</ele><time>2026-04-30T13:38:16.704Z</time></trkpt><trkpt lat="40.6136895" lon="8.497656"><ele>132.33333333333334</ele><time>2026-04-30T13:38:17.706Z</time></trkpt><trkpt lat="40.6135997" lon="8.4973901"><ele>132.0</ele><time>2026-04-30T13:38:18.706Z</time></trkpt><trkpt lat="40.6135306" lon="8.49713"><ele>126.66666666666666</ele><time>2026-04-30T13:38:19.706Z</time></trkpt><trkpt lat="40.6134955" lon="8.4968657"><ele>121.33333333333333</ele><time>2026-04-30T13:38:20.705Z</time></trkpt><trkpt lat="40.6134858" lon="8.4965901"><ele>116.0</ele><time>2026-04-30T13:38:21.705Z</time></trkpt><trkpt lat="40.6135167" lon="8.4963149"><ele>115.0</ele><time>2026-04-30T13:38:22.706Z</time></trkpt><trkpt lat="40.6135789" lon="8.4960333"><ele>114.0</ele><time>2026-04-30T13:38:23.705Z</time></trkpt><trkpt lat="40.6136569" lon="8.4957423"><ele>120.5</ele><time>2026-04-30T13:38:24.705Z</time></trkpt><trkpt lat="40.613739" lon="8.4954482"><ele>127.0</ele><time>2026-04-30T13:38:25.706Z</time></trkpt><trkpt lat="40.6138256" lon="8.4951509"><ele>127.0</ele><time>2026-04-30T13:38:26.705Z</time></trkpt><trkpt lat="40.6139138" lon="8.494857"><ele>127.0</ele><time>2026-04-30T13:38:27.706Z</time></trkpt><trkpt lat="40.6140037" lon="8.4945799"><ele>124.33333333333334</ele><time>2026-04-30T13:38:28.706Z</time></trkpt><trkpt lat="40.6141124" lon="8.494327"><ele>121.66666666666666</ele><time>2026-04-30T13:38:29.706Z</time></trkpt><trkpt lat="40.6142414" lon="8.4940919"><ele>119.0</ele><time>2026-04-30T13:38:30.705Z</time></trkpt><trkpt lat="40.6143958" lon="8.4938788"><ele>117.5</ele><time>2026-04-30T13:38:31.706Z</time></trkpt><trkpt lat="40.6145682" lon="8.4936763"><ele>116.0</ele><time>2026-04-30T13:38:32.706Z</time></trkpt><trkpt lat="40.6147583" lon="8.4934795"><ele>116.0</ele><time>2026-04-30T13:38:33.705Z</time></trkpt><trkpt lat="40.6149503" lon="8.4932896"><ele>116.0</ele><time>2026-04-30T13:38:34.706Z</time></trkpt><trkpt lat="40.6151275" lon="8.4931006"><ele>115.33333333333333</ele><time>2026-04-30T13:38:35.706Z</time></trkpt><trkpt lat="40.6152825" lon="8.4928979"><ele>114.66666666666666</ele><time>2026-04-30T13:38:36.706Z</time></trkpt><trkpt lat="40.6154127" lon="8.4926739"><ele>114.0</ele><time>2026-04-30T13:38:37.706Z</time></trkpt><trkpt lat="40.6155161" lon="8.4924256"><ele>116.33333333333334</ele><time>2026-04-30T13:38:38.705Z</time></trkpt><trkpt lat="40.6155867" lon="8.4921565"><ele>118.66666666666667</ele><time>2026-04-30T13:38:39.706Z</time></trkpt><trkpt lat="40.6156201" lon="8.4918696"><ele>121.0</ele><time>2026-04-30T13:38:40.705Z</time></trkpt><trkpt lat="40.6156205" lon="8.4915725"><ele>123.0</ele><time>2026-04-30T13:38:41.706Z</time></trkpt><trkpt lat="40.6155955" lon="8.4912571"><ele>125.0</ele><time>2026-04-30T13:38:42.706Z</time></trkpt><trkpt lat="40.61557" lon="8.4909287"><ele>125.0</ele><time>2026-04-30T13:38:43.706Z</time></trkpt><trkpt lat="40.6155459" lon="8.4905927"><ele>125.0</ele><time>2026-04-30T13:38:44.706Z</time></trkpt><trkpt lat="40.6155219" lon="8.4902571"><ele>125.0</ele><time>2026-04-30T13:38:45.706Z</time></trkpt><trkpt lat="40.615498" lon="8.4899356"><ele>125.0</ele><time>2026-04-30T13:38:46.706Z</time></trkpt><trkpt lat="40.61547" lon="8.4896192"><ele>127.0</ele><time>2026-04-30T13:38:47.706Z</time></trkpt><trkpt lat="40.6154278" lon="8.489313"><ele>129.0</ele><time>2026-04-30T13:38:48.706Z</time></trkpt><trkpt lat="40.6153592" lon="8.4890191"><ele>124.0</ele><time>2026-04-30T13:38:49.706Z</time></trkpt><trkpt lat="40.6152695" lon="8.4887236"><ele>119.0</ele><time>2026-04-30T13:38:50.706Z</time></trkpt><trkpt lat="40.615168" lon="8.4884146"><ele>119.0</ele><time>2026-04-30T13:38:51.706Z</time></trkpt><trkpt lat="40.6150569" lon="8.4880941"><ele>119.0</ele><time>2026-04-30T13:38:52.706Z</time></trkpt><trkpt lat="40.6149387" lon="8.4877612"><ele>122.0</ele><time>2026-04-30T13:38:53.705Z</time></trkpt><trkpt lat="40.6148173" lon="8.4874165"><ele>125.0</ele><time>2026-04-30T13:38:54.706Z</time></trkpt><trkpt lat="40.6146972" lon="8.4870756"><ele>126.5</ele><time>2026-04-30T13:38:55.706Z</time></trkpt><trkpt lat="40.614585" lon="8.4867598"><ele>128.0</ele><time>2026-04-30T13:38:56.706Z</time></trkpt><trkpt lat="40.6144785" lon="8.4864626"><ele>122.0</ele><time>2026-04-30T13:38:57.706Z</time></trkpt><trkpt lat="40.6143809" lon="8.4861775"><ele>116.0</ele><time>2026-04-30T13:38:58.706Z</time></trkpt><trkpt lat="40.6143022" lon="8.4859034"><ele>116.0</ele><time>2026-04-30T13:38:59.705Z</time></trkpt><trkpt lat="40.6142494" lon="8.4856223"><ele>116.0</ele><time>2026-04-30T13:39:00.706Z</time></trkpt><trkpt lat="40.614223" lon="8.4853278"><ele>116.0</ele><time>2026-04-30T13:39:01.706Z</time></trkpt><trkpt lat="40.6142209" lon="8.4850288"><ele>116.0</ele><time>2026-04-30T13:39:02.706Z</time></trkpt><trkpt lat="40.6142524" lon="8.484725"><ele>116.0</ele><time>2026-04-30T13:39:03.705Z</time></trkpt><trkpt lat="40.6143131" lon="8.4844304"><ele>116.5</ele><time>2026-04-30T13:39:04.706Z</time></trkpt><trkpt lat="40.6144019" lon="8.4841419"><ele>117.0</ele><time>2026-04-30T13:39:05.706Z</time></trkpt><trkpt lat="40.6145099" lon="8.4838682"><ele>118.0</ele><time>2026-04-30T13:39:06.706Z</time></trkpt><trkpt lat="40.6146266" lon="8.4836259"><ele>119.0</ele><time>2026-04-30T13:39:07.705Z</time></trkpt><trkpt lat="40.6147538" lon="8.4834278"><ele>120.0</ele><time>2026-04-30T13:39:08.704Z</time></trkpt><trkpt lat="40.6149124" lon="8.4832492"><ele>120.0</ele><time>2026-04-30T13:39:09.706Z</time></trkpt><trkpt lat="40.6150933" lon="8.4830974"><ele>120.0</ele><time>2026-04-30T13:39:10.705Z</time></trkpt><trkpt lat="40.6152936" lon="8.4829643"><ele>120.0</ele><time>2026-04-30T13:39:11.706Z</time></trkpt><trkpt lat="40.615509" lon="8.482835"><ele>119.0</ele><time>2026-04-30T13:39:12.706Z</time></trkpt><trkpt lat="40.6157151" lon="8.4827094"><ele>118.0</ele><time>2026-04-30T13:39:13.706Z</time></trkpt><trkpt lat="40.6159088" lon="8.4825777"><ele>117.0</ele><time>2026-04-30T13:39:14.705Z</time></trkpt><trkpt lat="40.6160953" lon="8.4824251"><ele>118.66666666666666</ele><time>2026-04-30T13:39:15.706Z</time></trkpt><trkpt lat="40.6162675" lon="8.4822526"><ele>120.33333333333333</ele><time>2026-04-30T13:39:16.706Z</time></trkpt><trkpt lat="40.6164241" lon="8.4820609"><ele>122.0</ele><time>2026-04-30T13:39:17.706Z</time></trkpt><trkpt lat="40.6165602" lon="8.4818462"><ele>122.0</ele><time>2026-04-30T13:39:18.706Z</time></trkpt><trkpt lat="40.6166744" lon="8.4816117"><ele>122.0</ele><time>2026-04-30T13:39:19.706Z</time></trkpt><trkpt lat="40.6167657" lon="8.4813595"><ele>122.0</ele><time>2026-04-30T13:39:20.705Z</time></trkpt><trkpt lat="40.6168383" lon="8.4810907"><ele>122.0</ele><time>2026-04-30T13:39:21.706Z</time></trkpt><trkpt lat="40.616901" lon="8.4808093"><ele>122.0</ele><time>2026-04-30T13:39:22.706Z</time></trkpt><trkpt lat="40.6169618" lon="8.4805239"><ele>122.0</ele><time>2026-04-30T13:39:23.705Z</time></trkpt><trkpt lat="40.6170229" lon="8.4802391"><ele>124.5</ele><time>2026-04-30T13:39:24.706Z</time></trkpt><trkpt lat="40.617085" lon="8.4799519"><ele>127.0</ele><time>2026-04-30T13:39:25.705Z</time></trkpt><trkpt lat="40.6171491" lon="8.4796614"><ele>126.5</ele><time>2026-04-30T13:39:26.705Z</time></trkpt><trkpt lat="40.6172137" lon="8.4793691"><ele>126.0</ele><time>2026-04-30T13:39:27.705Z</time></trkpt><trkpt lat="40.6172776" lon="8.479072"><ele>126.0</ele><time>2026-04-30T13:39:28.706Z</time></trkpt><trkpt lat="40.6173411" lon="8.4787709"><ele>126.0</ele><time>2026-04-30T13:39:29.706Z</time></trkpt><trkpt lat="40.6174047" lon="8.4784663"><ele>124.5</ele><time>2026-04-30T13:39:30.705Z</time></trkpt><trkpt lat="40.6174693" lon="8.4781597"><ele>123.0</ele><time>2026-04-30T13:39:31.706Z</time></trkpt><trkpt lat="40.6175337" lon="8.4778512"><ele>122.5</ele><time>2026-04-30T13:39:32.706Z</time></trkpt><trkpt lat="40.6175985" lon="8.4775432"><ele>122.0</ele><time>2026-04-30T13:39:33.706Z</time></trkpt><trkpt lat="40.6176673" lon="8.4772333"><ele>122.5</ele><time>2026-04-30T13:39:34.706Z</time></trkpt><trkpt lat="40.6177363" lon="8.4769216"><ele>123.0</ele><time>2026-04-30T13:39:35.706Z</time></trkpt><trkpt lat="40.6178044" lon="8.4766083"><ele>126.5</ele><time>2026-04-30T13:39:36.706Z</time></trkpt><trkpt lat="40.6178666" lon="8.4763143"><ele>130.0</ele><time>2026-04-30T13:39:37.706Z</time></trkpt><trkpt lat="40.6179249" lon="8.4760363"><ele>130.33333333333334</ele><time>2026-04-30T13:39:38.705Z</time></trkpt><trkpt lat="40.6179839" lon="8.4757762"><ele>130.66666666666666</ele><time>2026-04-30T13:39:39.705Z</time></trkpt><trkpt lat="40.6180587" lon="8.4755332"><ele>131.0</ele><time>2026-04-30T13:39:40.706Z</time></trkpt><trkpt lat="40.6181599" lon="8.4753123"><ele>131.33333333333331</ele><time>2026-04-30T13:39:41.706Z</time></trkpt><trkpt lat="40.6182862" lon="8.4751232"><ele>131.66666666666666</ele><time>2026-04-30T13:39:42.706Z</time></trkpt><trkpt lat="40.6184375" lon="8.474955"><ele>132.0</ele><time>2026-04-30T13:39:43.706Z</time></trkpt><trkpt lat="40.6186093" lon="8.4748182"><ele>131.33333333333334</ele><time>2026-04-30T13:39:44.706Z</time></trkpt><trkpt lat="40.6188002" lon="8.4747104"><ele>130.66666666666669</ele><time>2026-04-30T13:39:45.704Z</time></trkpt><trkpt lat="40.6189904" lon="8.4746335"><ele>130.0</ele><time>2026-04-30T13:39:46.705Z</time></trkpt><trkpt lat="40.6191742" lon="8.4745538"><ele>129.33333333333334</ele><time>2026-04-30T13:39:47.706Z</time></trkpt><trkpt lat="40.6193519" lon="8.4744429"><ele>128.66666666666666</ele><time>2026-04-30T13:39:48.705Z</time></trkpt><trkpt lat="40.6195113" lon="8.4742975"><ele>128.0</ele><time>2026-04-30T13:39:49.706Z</time></trkpt><trkpt lat="40.6196591" lon="8.4741182"><ele>126.33333333333333</ele><time>2026-04-30T13:39:50.705Z</time></trkpt><trkpt lat="40.6197827" lon="8.4739105"><ele>124.66666666666666</ele><time>2026-04-30T13:39:51.705Z</time></trkpt><trkpt lat="40.6198809" lon="8.4736731"><ele>123.0</ele><time>2026-04-30T13:39:52.706Z</time></trkpt><trkpt lat="40.619953" lon="8.4734171"><ele>122.33333333333334</ele><time>2026-04-30T13:39:53.706Z</time></trkpt><trkpt lat="40.6199937" lon="8.473147"><ele>121.66666666666667</ele><time>2026-04-30T13:39:54.706Z</time></trkpt><trkpt lat="40.619997" lon="8.4728617"><ele>121.0</ele><time>2026-04-30T13:39:55.705Z</time></trkpt><trkpt lat="40.6199865" lon="8.472559"><ele>119.0</ele><time>2026-04-30T13:39:56.706Z</time></trkpt><trkpt lat="40.6199735" lon="8.4722469"><ele>117.0</ele><time>2026-04-30T13:39:57.706Z</time></trkpt><trkpt lat="40.6199585" lon="8.4719325"><ele>116.5</ele><time>2026-04-30T13:39:58.706Z</time></trkpt><trkpt lat="40.6199421" lon="8.4716216"><ele>116.0</ele><time>2026-04-30T13:39:59.706Z</time></trkpt><trkpt lat="40.6199264" lon="8.4713144"><ele>116.0</ele><time>2026-04-30T13:40:00.706Z</time></trkpt><trkpt lat="40.6199112" lon="8.4710122"><ele>116.0</ele><time>2026-04-30T13:40:01.704Z</time></trkpt><trkpt lat="40.6198964" lon="8.4707137"><ele>116.5</ele><time>2026-04-30T13:40:02.706Z</time></trkpt><trkpt lat="40.6198821" lon="8.4704162"><ele>117.0</ele><time>2026-04-30T13:40:03.706Z</time></trkpt><trkpt lat="40.6198679" lon="8.4701196"><ele>117.0</ele><time>2026-04-30T13:40:04.706Z</time></trkpt><trkpt lat="40.6198513" lon="8.4698252"><ele>117.0</ele><time>2026-04-30T13:40:05.706Z</time></trkpt><trkpt lat="40.6198355" lon="8.469548"><ele>117.0</ele><time>2026-04-30T13:40:06.705Z</time></trkpt><trkpt lat="40.6198351" lon="8.4692856"><ele>117.33333333333334</ele><time>2026-04-30T13:40:07.706Z</time></trkpt><trkpt lat="40.6198583" lon="8.4690218"><ele>117.66666666666667</ele><time>2026-04-30T13:40:08.706Z</time></trkpt><trkpt lat="40.6199088" lon="8.4687657"><ele>118.0</ele><time>2026-04-30T13:40:09.706Z</time></trkpt><trkpt lat="40.6199886" lon="8.4685264"><ele>118.0</ele><time>2026-04-30T13:40:10.704Z</time></trkpt><trkpt lat="40.6200942" lon="8.468298"><ele>118.0</ele><time>2026-04-30T13:40:11.706Z</time></trkpt><trkpt lat="40.6202181" lon="8.4680753"><ele>118.0</ele><time>2026-04-30T13:40:12.706Z</time></trkpt><trkpt lat="40.6203454" lon="8.4678474"><ele>118.0</ele><time>2026-04-30T13:40:13.706Z</time></trkpt><trkpt lat="40.6204527" lon="8.4676125"><ele>118.0</ele><time>2026-04-30T13:40:14.705Z</time></trkpt><trkpt lat="40.6205301" lon="8.4673684"><ele>118.0</ele><time>2026-04-30T13:40:15.705Z</time></trkpt><trkpt lat="40.6205786" lon="8.4671105"><ele>118.0</ele><time>2026-04-30T13:40:16.706Z</time></trkpt><trkpt lat="40.6205938" lon="8.4668411"><ele>118.0</ele><time>2026-04-30T13:40:17.706Z</time></trkpt><trkpt lat="40.6205795" lon="8.466563"><ele>118.0</ele><time>2026-04-30T13:40:18.706Z</time></trkpt><trkpt lat="40.620541" lon="8.4662766"><ele>120.0</ele><time>2026-04-30T13:40:19.706Z</time></trkpt><trkpt lat="40.6204889" lon="8.4659773"><ele>122.0</ele><time>2026-04-30T13:40:20.705Z</time></trkpt><trkpt lat="40.6204399" lon="8.4656738"><ele>122.66666666666666</ele><time>2026-04-30T13:40:21.706Z</time></trkpt><trkpt lat="40.6203952" lon="8.4653775"><ele>123.33333333333334</ele><time>2026-04-30T13:40:22.706Z</time></trkpt><trkpt lat="40.6203613" lon="8.4650971"><ele>124.0</ele><time>2026-04-30T13:40:23.706Z</time></trkpt><trkpt lat="40.6203489" lon="8.4648328"><ele>123.66666666666667</ele><time>2026-04-30T13:40:24.706Z</time></trkpt><trkpt lat="40.6203542" lon="8.4645751"><ele>123.33333333333334</ele><time>2026-04-30T13:40:25.705Z</time></trkpt><trkpt lat="40.6203768" lon="8.4643234"><ele>123.0</ele><time>2026-04-30T13:40:26.706Z</time></trkpt><trkpt lat="40.6204179" lon="8.4640892"><ele>123.0</ele><time>2026-04-30T13:40:27.705Z</time></trkpt><trkpt lat="40.620478" lon="8.463861"><ele>123.0</ele><time>2026-04-30T13:40:28.706Z</time></trkpt><trkpt lat="40.6205556" lon="8.463642"><ele>123.0</ele><time>2026-04-30T13:40:29.705Z</time></trkpt><trkpt lat="40.6206469" lon="8.4634362"><ele>121.0</ele><time>2026-04-30T13:40:30.706Z</time></trkpt><trkpt lat="40.6207467" lon="8.463249"><ele>119.0</ele><time>2026-04-30T13:40:31.706Z</time></trkpt><trkpt lat="40.6208556" lon="8.4630786"><ele>117.0</ele><time>2026-04-30T13:40:32.706Z</time></trkpt><trkpt lat="40.6209707" lon="8.462919"><ele>116.66666666666666</ele><time>2026-04-30T13:40:33.706Z</time></trkpt><trkpt lat="40.6210956" lon="8.4627592"><ele>116.33333333333333</ele><time>2026-04-30T13:40:34.706Z</time></trkpt><trkpt lat="40.6212229" lon="8.4626008"><ele>116.0</ele><time>2026-04-30T13:40:35.706Z</time></trkpt><trkpt lat="40.6213435" lon="8.4624527"><ele>116.0</ele><time>2026-04-30T13:40:36.706Z</time></trkpt><trkpt lat="40.6214641" lon="8.4623086"><ele>116.0</ele><time>2026-04-30T13:40:37.706Z</time></trkpt><trkpt lat="40.6215902" lon="8.4621609"><ele>116.0</ele><time>2026-04-30T13:40:38.706Z</time></trkpt><trkpt lat="40.6217171" lon="8.4620062"><ele>115.66666666666666</ele><time>2026-04-30T13:40:39.706Z</time></trkpt><trkpt lat="40.6218379" lon="8.4618358"><ele>115.33333333333334</ele><time>2026-04-30T13:40:40.705Z</time></trkpt><trkpt lat="40.6219444" lon="8.4616447"><ele>115.0</ele><time>2026-04-30T13:40:41.706Z</time></trkpt><trkpt lat="40.6220314" lon="8.4614462"><ele>116.0</ele><time>2026-04-30T13:40:42.706Z</time></trkpt><trkpt lat="40.622102" lon="8.4612481"><ele>117.0</ele><time>2026-04-30T13:40:43.706Z</time></trkpt><trkpt lat="40.6221602" lon="8.4610528"><ele>118.0</ele><time>2026-04-30T13:40:44.705Z</time></trkpt><trkpt lat="40.6222103" lon="8.4608662"><ele>118.0</ele><time>2026-04-30T13:40:45.706Z</time></trkpt><trkpt lat="40.6222563" lon="8.4606939"><ele>118.0</ele><time>2026-04-30T13:40:46.705Z</time></trkpt><trkpt lat="40.6223017" lon="8.4605275"><ele>118.0</ele><time>2026-04-30T13:40:47.706Z</time></trkpt><trkpt lat="40.6223471" lon="8.4603601"><ele>118.0</ele><time>2026-04-30T13:40:48.706Z</time></trkpt><trkpt lat="40.6223943" lon="8.4601929"><ele>117.75</ele><time>2026-04-30T13:40:49.704Z</time></trkpt><trkpt lat="40.6224422" lon="8.4600193"><ele>117.5</ele><time>2026-04-30T13:40:50.704Z</time></trkpt><trkpt lat="40.6224922" lon="8.4598441"><ele>117.25</ele><time>2026-04-30T13:40:51.706Z</time></trkpt><trkpt lat="40.6225435" lon="8.4596786"><ele>117.0</ele><time>2026-04-30T13:40:52.705Z</time></trkpt><trkpt lat="40.6225981" lon="8.459526"><ele>117.0</ele><time>2026-04-30T13:40:53.706Z</time></trkpt><trkpt lat="40.6226557" lon="8.4593878"><ele>116.99999999999999</ele><time>2026-04-30T13:40:54.705Z</time></trkpt><trkpt lat="40.6227116" lon="8.4592615"><ele>116.99999999999999</ele><time>2026-04-30T13:40:55.705Z</time></trkpt><trkpt lat="40.6227681" lon="8.4591468"><ele>117.0</ele><time>2026-04-30T13:40:56.705Z</time></trkpt><trkpt lat="40.6228201" lon="8.4590474"><ele>117.0</ele><time>2026-04-30T13:40:57.706Z</time></trkpt><trkpt lat="40.622866" lon="8.4589675"><ele>117.6</ele><time>2026-04-30T13:40:58.706Z</time></trkpt><trkpt lat="40.6229351" lon="8.4588625"><ele>118.19999999999999</ele><time>2026-04-30T13:41:00.706Z</time></trkpt><trkpt lat="40.622979" lon="8.4587935"><ele>118.8</ele><time>2026-04-30T13:41:03.706Z</time></trkpt><trkpt lat="40.6230124" lon="8.4586799"><ele>119.4</ele><time>2026-04-30T13:41:09.706Z</time></trkpt><trkpt lat="40.6230327" lon="8.4585292"><ele>120.0</ele><time>2026-04-30T13:41:11.706Z</time></trkpt><trkpt lat="40.6230319" lon="8.4584293"><ele>120.0</ele><time>2026-04-30T13:41:12.706Z</time></trkpt><trkpt lat="40.6230277" lon="8.4583131"><ele>120.0</ele><time>2026-04-30T13:41:13.706Z</time></trkpt><trkpt lat="40.6230268" lon="8.4581882"><ele>120.0</ele><time>2026-04-30T13:41:14.706Z</time></trkpt><trkpt lat="40.6230316" lon="8.4580511"><ele>120.0</ele><time>2026-04-30T13:41:15.706Z</time></trkpt><trkpt lat="40.6230446" lon="8.4578973"><ele>120.0</ele><time>2026-04-30T13:41:16.706Z</time></trkpt><trkpt lat="40.6230627" lon="8.4577272"><ele>117.66666666666666</ele><time>2026-04-30T13:41:17.706Z</time></trkpt><trkpt lat="40.6230903" lon="8.4575398"><ele>115.33333333333333</ele><time>2026-04-30T13:41:18.706Z</time></trkpt><trkpt lat="40.6231295" lon="8.4573342"><ele>113.0</ele><time>2026-04-30T13:41:19.706Z</time></trkpt><trkpt lat="40.6231787" lon="8.4571228"><ele>111.0</ele><time>2026-04-30T13:41:20.706Z</time></trkpt><trkpt lat="40.6232371" lon="8.4569088"><ele>109.0</ele><time>2026-04-30T13:41:21.706Z</time></trkpt><trkpt lat="40.623303" lon="8.4566852"><ele>107.0</ele><time>2026-04-30T13:41:22.706Z</time></trkpt><trkpt lat="40.6233714" lon="8.4564554"><ele>106.0</ele><time>2026-04-30T13:41:23.706Z</time></trkpt><trkpt lat="40.6234422" lon="8.4562194"><ele>105.0</ele><time>2026-04-30T13:41:24.704Z</time></trkpt><trkpt lat="40.6235131" lon="8.4559764"><ele>104.0</ele><time>2026-04-30T13:41:25.705Z</time></trkpt><trkpt lat="40.6235801" lon="8.4557224"><ele>104.0</ele><time>2026-04-30T13:41:26.706Z</time></trkpt><trkpt lat="40.623641" lon="8.4554579"><ele>104.0</ele><time>2026-04-30T13:41:27.706Z</time></trkpt><trkpt lat="40.6236972" lon="8.4551814"><ele>104.0</ele><time>2026-04-30T13:41:28.706Z</time></trkpt><trkpt lat="40.623751" lon="8.4549011"><ele>97.0</ele><time>2026-04-30T13:41:29.706Z</time></trkpt><trkpt lat="40.623801" lon="8.4546267"><ele>90.0</ele><time>2026-04-30T13:41:30.706Z</time></trkpt><trkpt lat="40.6238401" lon="8.4543554"><ele>83.0</ele><time>2026-04-30T13:41:31.706Z</time></trkpt><trkpt lat="40.6238628" lon="8.4540952"><ele>82.66666666666667</ele><time>2026-04-30T13:41:32.706Z</time></trkpt><trkpt lat="40.6238716" lon="8.453849"><ele>82.33333333333333</ele><time>2026-04-30T13:41:33.706Z</time></trkpt><trkpt lat="40.6238608" lon="8.4536026"><ele>82.0</ele><time>2026-04-30T13:41:34.705Z</time></trkpt><trkpt lat="40.6238238" lon="8.4533554"><ele>82.66666666666666</ele><time>2026-04-30T13:41:35.705Z</time></trkpt><trkpt lat="40.6237615" lon="8.4531096"><ele>83.33333333333333</ele><time>2026-04-30T13:41:36.705Z</time></trkpt><trkpt lat="40.6236827" lon="8.4528593"><ele>84.0</ele><time>2026-04-30T13:41:37.706Z</time></trkpt><trkpt lat="40.6235879" lon="8.4525997"><ele>84.0</ele><time>2026-04-30T13:41:38.706Z</time></trkpt><trkpt lat="40.623476" lon="8.4523322"><ele>84.0</ele><time>2026-04-30T13:41:39.706Z</time></trkpt><trkpt lat="40.6233511" lon="8.4520528"><ele>78.0</ele><time>2026-04-30T13:41:40.706Z</time></trkpt><trkpt lat="40.623227" lon="8.4517924"><ele>72.0</ele><time>2026-04-30T13:41:41.705Z</time></trkpt><trkpt lat="40.6230837" lon="8.4515395"><ele>72.0</ele><time>2026-04-30T13:41:42.706Z</time></trkpt><trkpt lat="40.6229218" lon="8.451295"><ele>72.0</ele><time>2026-04-30T13:41:43.706Z</time></trkpt><trkpt lat="40.6227497" lon="8.4510465"><ele>72.0</ele><time>2026-04-30T13:41:44.705Z</time></trkpt><trkpt lat="40.6225752" lon="8.4507971"><ele>72.0</ele><time>2026-04-30T13:41:45.706Z</time></trkpt><trkpt lat="40.6224078" lon="8.4505564"><ele>65.5</ele><time>2026-04-30T13:41:46.706Z</time></trkpt><trkpt lat="40.6222538" lon="8.4503044"><ele>59.0</ele><time>2026-04-30T13:41:47.706Z</time></trkpt><trkpt lat="40.6221069" lon="8.4500397"><ele>57.5</ele><time>2026-04-30T13:41:48.705Z</time></trkpt><trkpt lat="40.621976" lon="8.4497642"><ele>56.0</ele><time>2026-04-30T13:41:49.706Z</time></trkpt><trkpt lat="40.6218721" lon="8.4494695"><ele>56.0</ele><time>2026-04-30T13:41:50.705Z</time></trkpt><trkpt lat="40.6217873" lon="8.4491543"><ele>56.0</ele><time>2026-04-30T13:41:51.706Z</time></trkpt><trkpt lat="40.6217161" lon="8.4488231"><ele>54.5</ele><time>2026-04-30T13:41:52.706Z</time></trkpt><trkpt lat="40.6216589" lon="8.448482"><ele>53.0</ele><time>2026-04-30T13:41:53.702Z</time></trkpt><trkpt lat="40.6216114" lon="8.4481334"><ele>52.0</ele><time>2026-04-30T13:41:54.706Z</time></trkpt><trkpt lat="40.621567" lon="8.447776"><ele>51.0</ele><time>2026-04-30T13:41:55.706Z</time></trkpt><trkpt lat="40.6215229" lon="8.4474124"><ele>50.0</ele><time>2026-04-30T13:41:56.706Z</time></trkpt><trkpt lat="40.6214775" lon="8.4470457"><ele>49.0</ele><time>2026-04-30T13:41:57.706Z</time></trkpt><trkpt lat="40.621432" lon="8.4466777"><ele>49.0</ele><time>2026-04-30T13:41:58.706Z</time></trkpt><trkpt lat="40.6213863" lon="8.4463097"><ele>49.0</ele><time>2026-04-30T13:41:59.706Z</time></trkpt><trkpt lat="40.6213401" lon="8.4459413"><ele>48.5</ele><time>2026-04-30T13:42:00.706Z</time></trkpt><trkpt lat="40.6212955" lon="8.4455748"><ele>48.0</ele><time>2026-04-30T13:42:01.706Z</time></trkpt><trkpt lat="40.621252" lon="8.4452107"><ele>48.0</ele><time>2026-04-30T13:42:02.706Z</time></trkpt><trkpt lat="40.62121" lon="8.4448482"><ele>48.0</ele><time>2026-04-30T13:42:03.706Z</time></trkpt><trkpt lat="40.6211683" lon="8.4444877"><ele>48.5</ele><time>2026-04-30T13:42:04.705Z</time></trkpt><trkpt lat="40.621127" lon="8.4441294"><ele>49.0</ele><time>2026-04-30T13:42:05.706Z</time></trkpt><trkpt lat="40.6210842" lon="8.4437728"><ele>49.5</ele><time>2026-04-30T13:42:06.706Z</time></trkpt><trkpt lat="40.6210412" lon="8.4434228"><ele>50.0</ele><time>2026-04-30T13:42:07.705Z</time></trkpt><trkpt lat="40.621001" lon="8.4430925"><ele>49.5</ele><time>2026-04-30T13:42:08.706Z</time></trkpt><trkpt lat="40.6209627" lon="8.4427736"><ele>49.0</ele><time>2026-04-30T13:42:09.705Z</time></trkpt><trkpt lat="40.6209218" lon="8.4424539"><ele>49.5</ele><time>2026-04-30T13:42:10.704Z</time></trkpt><trkpt lat="40.62088" lon="8.4421286"><ele>50.0</ele><time>2026-04-30T13:42:11.706Z</time></trkpt><trkpt lat="40.6208406" lon="8.4418259"><ele>50.0</ele><time>2026-04-30T13:42:12.705Z</time></trkpt><trkpt lat="40.620799" lon="8.4415276"><ele>50.0</ele><time>2026-04-30T13:42:13.706Z</time></trkpt><trkpt lat="40.6207534" lon="8.4412234"><ele>50.0</ele><time>2026-04-30T13:42:14.705Z</time></trkpt><trkpt lat="40.6207037" lon="8.4409245"><ele>50.0</ele><time>2026-04-30T13:42:15.706Z</time></trkpt><trkpt lat="40.6206511" lon="8.4406234"><ele>50.5</ele><time>2026-04-30T13:42:16.705Z</time></trkpt><trkpt lat="40.6205931" lon="8.440328"><ele>51.0</ele><time>2026-04-30T13:42:17.706Z</time></trkpt><trkpt lat="40.6205186" lon="8.4400347"><ele>51.0</ele><time>2026-04-30T13:42:18.706Z</time></trkpt><trkpt lat="40.6204311" lon="8.4397372"><ele>51.0</ele><time>2026-04-30T13:42:19.705Z</time></trkpt><trkpt lat="40.6203307" lon="8.439441"><ele>49.0</ele><time>2026-04-30T13:42:20.705Z</time></trkpt><trkpt lat="40.6202258" lon="8.4391472"><ele>47.0</ele><time>2026-04-30T13:42:21.705Z</time></trkpt><trkpt lat="40.6201247" lon="8.438865"><ele>46.666666666666664</ele><time>2026-04-30T13:42:22.706Z</time></trkpt><trkpt lat="40.6200387" lon="8.4385978"><ele>46.333333333333336</ele><time>2026-04-30T13:42:23.706Z</time></trkpt><trkpt lat="40.6199771" lon="8.4383343"><ele>46.0</ele><time>2026-04-30T13:42:24.705Z</time></trkpt><trkpt lat="40.6199455" lon="8.4380646"><ele>46.333333333333336</ele><time>2026-04-30T13:42:25.704Z</time></trkpt><trkpt lat="40.6199415" lon="8.437781"><ele>46.666666666666664</ele><time>2026-04-30T13:42:26.705Z</time></trkpt><trkpt lat="40.6199586" lon="8.4374814"><ele>47.0</ele><time>2026-04-30T13:42:27.706Z</time></trkpt><trkpt lat="40.6199822" lon="8.4371713"><ele>47.5</ele><time>2026-04-30T13:42:28.706Z</time></trkpt><trkpt lat="40.6200073" lon="8.4368564"><ele>48.0</ele><time>2026-04-30T13:42:29.705Z</time></trkpt><trkpt lat="40.620031" lon="8.4365431"><ele>48.0</ele><time>2026-04-30T13:42:30.706Z</time></trkpt><trkpt lat="40.6200617" lon="8.4362317"><ele>48.0</ele><time>2026-04-30T13:42:31.705Z</time></trkpt><trkpt lat="40.6201" lon="8.4359232"><ele>48.0</ele><time>2026-04-30T13:42:32.705Z</time></trkpt><trkpt lat="40.6201468" lon="8.4356185"><ele>48.0</ele><time>2026-04-30T13:42:33.705Z</time></trkpt><trkpt lat="40.6201976" lon="8.4353185"><ele>47.0</ele><time>2026-04-30T13:42:34.706Z</time></trkpt><trkpt lat="40.6202486" lon="8.4350193"><ele>46.0</ele><time>2026-04-30T13:42:35.706Z</time></trkpt><trkpt lat="40.6202994" lon="8.4347203"><ele>49.0</ele><time>2026-04-30T13:42:36.705Z</time></trkpt><trkpt lat="40.6203503" lon="8.4344188"><ele>52.0</ele><time>2026-04-30T13:42:37.706Z</time></trkpt><trkpt lat="40.6204019" lon="8.4341246"><ele>52.0</ele><time>2026-04-30T13:42:38.704Z</time></trkpt><trkpt lat="40.6204531" lon="8.4338325"><ele>52.0</ele><time>2026-04-30T13:42:39.705Z</time></trkpt><trkpt lat="40.6205041" lon="8.4335388"><ele>52.0</ele><time>2026-04-30T13:42:40.706Z</time></trkpt><trkpt lat="40.6205561" lon="8.4332456"><ele>52.0</ele><time>2026-04-30T13:42:41.706Z</time></trkpt><trkpt lat="40.6206077" lon="8.4329511"><ele>52.0</ele><time>2026-04-30T13:42:42.705Z</time></trkpt><trkpt lat="40.6206591" lon="8.4326564"><ele>52.0</ele><time>2026-04-30T13:42:43.706Z</time></trkpt><trkpt lat="40.6207109" lon="8.4323625"><ele>52.0</ele><time>2026-04-30T13:42:44.706Z</time></trkpt><trkpt lat="40.6207629" lon="8.4320674"><ele>52.0</ele><time>2026-04-30T13:42:45.706Z</time></trkpt><trkpt lat="40.6208139" lon="8.4317752"><ele>52.0</ele><time>2026-04-30T13:42:46.706Z</time></trkpt><trkpt lat="40.620863" lon="8.4314851"><ele>52.0</ele><time>2026-04-30T13:42:47.705Z</time></trkpt><trkpt lat="40.6209122" lon="8.4311924"><ele>52.5</ele><time>2026-04-30T13:42:48.706Z</time></trkpt><trkpt lat="40.6209629" lon="8.4308979"><ele>53.0</ele><time>2026-04-30T13:42:49.705Z</time></trkpt><trkpt lat="40.6210159" lon="8.4305992"><ele>53.0</ele><time>2026-04-30T13:42:50.706Z</time></trkpt><trkpt lat="40.6210698" lon="8.430301"><ele>53.0</ele><time>2026-04-30T13:42:51.706Z</time></trkpt><trkpt lat="40.6211221" lon="8.4299977"><ele>53.0</ele><time>2026-04-30T13:42:52.706Z</time></trkpt><trkpt lat="40.6211739" lon="8.4296904"><ele>53.0</ele><time>2026-04-30T13:42:53.706Z</time></trkpt><trkpt lat="40.6212265" lon="8.429381"><ele>53.0</ele><time>2026-04-30T13:42:54.706Z</time></trkpt><trkpt lat="40.6212799" lon="8.4290724"><ele>53.0</ele><time>2026-04-30T13:42:55.706Z</time></trkpt><trkpt lat="40.6213323" lon="8.4287684"><ele>52.0</ele><time>2026-04-30T13:42:56.706Z</time></trkpt><trkpt lat="40.6213867" lon="8.4284634"><ele>51.0</ele><time>2026-04-30T13:42:57.706Z</time></trkpt><trkpt lat="40.6214428" lon="8.4281556"><ele>52.5</ele><time>2026-04-30T13:42:58.706Z</time></trkpt><trkpt lat="40.6214968" lon="8.4278432"><ele>54.0</ele><time>2026-04-30T13:42:59.705Z</time></trkpt><trkpt lat="40.6215506" lon="8.4275311"><ele>54.0</ele><time>2026-04-30T13:43:00.706Z</time></trkpt><trkpt lat="40.6216041" lon="8.4272188"><ele>54.0</ele><time>2026-04-30T13:43:01.706Z</time></trkpt><trkpt lat="40.6216577" lon="8.4269075"><ele>54.0</ele><time>2026-04-30T13:43:02.705Z</time></trkpt><trkpt lat="40.6217109" lon="8.4265973"><ele>54.0</ele><time>2026-04-30T13:43:03.705Z</time></trkpt><trkpt lat="40.6217662" lon="8.426287"><ele>54.0</ele><time>2026-04-30T13:43:04.706Z</time></trkpt><trkpt lat="40.6218197" lon="8.4259775"><ele>54.0</ele><time>2026-04-30T13:43:05.706Z</time></trkpt><trkpt lat="40.6218736" lon="8.4256715"><ele>53.5</ele><time>2026-04-30T13:43:06.705Z</time></trkpt><trkpt lat="40.6219269" lon="8.4253648"><ele>53.0</ele><time>2026-04-30T13:43:07.706Z</time></trkpt><trkpt lat="40.6219805" lon="8.4250583"><ele>56.0</ele><time>2026-04-30T13:43:08.706Z</time></trkpt><trkpt lat="40.6220328" lon="8.4247521"><ele>59.0</ele><time>2026-04-30T13:43:09.706Z</time></trkpt><trkpt lat="40.6220858" lon="8.4244425"><ele>59.0</ele><time>2026-04-30T13:43:10.706Z</time></trkpt><trkpt lat="40.6221386" lon="8.4241324"><ele>59.0</ele><time>2026-04-30T13:43:11.706Z</time></trkpt><trkpt lat="40.6221955" lon="8.4238217"><ele>59.0</ele><time>2026-04-30T13:43:12.706Z</time></trkpt><trkpt lat="40.6222581" lon="8.42351"><ele>59.0</ele><time>2026-04-30T13:43:13.706Z</time></trkpt><trkpt lat="40.6223218" lon="8.4231969"><ele>57.5</ele><time>2026-04-30T13:43:14.706Z</time></trkpt><trkpt lat="40.6223892" lon="8.4228783"><ele>56.0</ele><time>2026-04-30T13:43:15.705Z</time></trkpt><trkpt lat="40.6224592" lon="8.4225566"><ele>56.0</ele><time>2026-04-30T13:43:16.706Z</time></trkpt><trkpt lat="40.6225281" lon="8.4222303"><ele>56.0</ele><time>2026-04-30T13:43:17.706Z</time></trkpt><trkpt lat="40.6225995" lon="8.4218981"><ele>55.5</ele><time>2026-04-30T13:43:18.706Z</time></trkpt><trkpt lat="40.6226702" lon="8.4215657"><ele>55.0</ele><time>2026-04-30T13:43:19.706Z</time></trkpt><trkpt lat="40.6227412" lon="8.4212334"><ele>56.0</ele><time>2026-04-30T13:43:20.706Z</time></trkpt><trkpt lat="40.622814" lon="8.4208987"><ele>57.0</ele><time>2026-04-30T13:43:21.706Z</time></trkpt><trkpt lat="40.6228857" lon="8.4205732"><ele>58.5</ele><time>2026-04-30T13:43:22.706Z</time></trkpt><trkpt lat="40.6229573" lon="8.4202495"><ele>60.0</ele><time>2026-04-30T13:43:23.706Z</time></trkpt><trkpt lat="40.6230278" lon="8.4199229"><ele>60.5</ele><time>2026-04-30T13:43:24.705Z</time></trkpt><trkpt lat="40.6230971" lon="8.419595"><ele>61.0</ele><time>2026-04-30T13:43:25.706Z</time></trkpt><trkpt lat="40.6231674" lon="8.4192661"><ele>61.0</ele><time>2026-04-30T13:43:26.706Z</time></trkpt><trkpt lat="40.623238" lon="8.4189374"><ele>61.0</ele><time>2026-04-30T13:43:27.706Z</time></trkpt><trkpt lat="40.6233105" lon="8.4186103"><ele>61.5</ele><time>2026-04-30T13:43:28.705Z</time></trkpt><trkpt lat="40.6233809" lon="8.4182841"><ele>62.0</ele><time>2026-04-30T13:43:29.704Z</time></trkpt><trkpt lat="40.6234502" lon="8.4179609"><ele>64.5</ele><time>2026-04-30T13:43:30.706Z</time></trkpt><trkpt lat="40.6235179" lon="8.417637"><ele>67.0</ele><time>2026-04-30T13:43:31.706Z</time></trkpt><trkpt lat="40.6235831" lon="8.4173125"><ele>68.5</ele><time>2026-04-30T13:43:32.706Z</time></trkpt><trkpt lat="40.6236433" lon="8.4169884"><ele>70.0</ele><time>2026-04-30T13:43:33.706Z</time></trkpt><trkpt lat="40.6236978" lon="8.4166638"><ele>70.0</ele><time>2026-04-30T13:43:34.706Z</time></trkpt><trkpt lat="40.6237447" lon="8.4163368"><ele>70.0</ele><time>2026-04-30T13:43:35.705Z</time></trkpt><trkpt lat="40.6237835" lon="8.4160069"><ele>70.0</ele><time>2026-04-30T13:43:36.706Z</time></trkpt><trkpt lat="40.6238185" lon="8.4156754"><ele>70.0</ele><time>2026-04-30T13:43:37.703Z</time></trkpt><trkpt lat="40.6238572" lon="8.415345"><ele>67.0</ele><time>2026-04-30T13:43:38.706Z</time></trkpt><trkpt lat="40.6239041" lon="8.4150133"><ele>64.0</ele><time>2026-04-30T13:43:39.706Z</time></trkpt><trkpt lat="40.623959" lon="8.4146812"><ele>62.0</ele><time>2026-04-30T13:43:40.706Z</time></trkpt><trkpt lat="40.6240262" lon="8.4143516"><ele>60.0</ele><time>2026-04-30T13:43:41.706Z</time></trkpt><trkpt lat="40.6241114" lon="8.4140282"><ele>63.0</ele><time>2026-04-30T13:43:42.706Z</time></trkpt><trkpt lat="40.6242092" lon="8.4137104"><ele>66.0</ele><time>2026-04-30T13:43:43.706Z</time></trkpt><trkpt lat="40.6243158" lon="8.4133927"><ele>66.0</ele><time>2026-04-30T13:43:44.705Z</time></trkpt><trkpt lat="40.6244258" lon="8.4130714"><ele>66.0</ele><time>2026-04-30T13:43:45.706Z</time></trkpt><trkpt lat="40.6245359" lon="8.4127504"><ele>61.0</ele><time>2026-04-30T13:43:46.706Z</time></trkpt><trkpt lat="40.6246337" lon="8.4124268"><ele>56.0</ele><time>2026-04-30T13:43:47.703Z</time></trkpt><trkpt lat="40.624713" lon="8.4120941"><ele>56.0</ele><time>2026-04-30T13:43:48.705Z</time></trkpt><trkpt lat="40.624774" lon="8.4117578"><ele>56.0</ele><time>2026-04-30T13:43:49.706Z</time></trkpt><trkpt lat="40.6248225" lon="8.4114167"><ele>57.5</ele><time>2026-04-30T13:43:50.706Z</time></trkpt><trkpt lat="40.6248722" lon="8.4110741"><ele>59.0</ele><time>2026-04-30T13:43:51.706Z</time></trkpt><trkpt lat="40.6249179" lon="8.4107403"><ele>59.0</ele><time>2026-04-30T13:43:52.705Z</time></trkpt><trkpt lat="40.6249593" lon="8.4104275"><ele>59.0</ele><time>2026-04-30T13:43:53.705Z</time></trkpt><trkpt lat="40.6249962" lon="8.4101167"><ele>59.0</ele><time>2026-04-30T13:43:54.704Z</time></trkpt><trkpt lat="40.6250251" lon="8.4098085"><ele>59.0</ele><time>2026-04-30T13:43:55.706Z</time></trkpt><trkpt lat="40.625043" lon="8.4095002"><ele>60.5</ele><time>2026-04-30T13:43:56.706Z</time></trkpt><trkpt lat="40.6250489" lon="8.4091898"><ele>62.0</ele><time>2026-04-30T13:43:57.706Z</time></trkpt><trkpt lat="40.6250499" lon="8.4088767"><ele>61.5</ele><time>2026-04-30T13:43:58.706Z</time></trkpt><trkpt lat="40.6250445" lon="8.408561"><ele>61.0</ele><time>2026-04-30T13:43:59.705Z</time></trkpt><trkpt lat="40.6250344" lon="8.4082455"><ele>60.5</ele><time>2026-04-30T13:44:00.705Z</time></trkpt><trkpt lat="40.6250251" lon="8.4079396"><ele>60.0</ele><time>2026-04-30T13:44:01.706Z</time></trkpt><trkpt lat="40.6250119" lon="8.4076382"><ele>60.0</ele><time>2026-04-30T13:44:02.706Z</time></trkpt><trkpt lat="40.6249974" lon="8.4073442"><ele>60.0</ele><time>2026-04-30T13:44:03.706Z</time></trkpt><trkpt lat="40.6249776" lon="8.4070662"><ele>60.0</ele><time>2026-04-30T13:44:04.706Z</time></trkpt><trkpt lat="40.6249441" lon="8.4068064"><ele>59.33333333333333</ele><time>2026-04-30T13:44:05.704Z</time></trkpt><trkpt lat="40.6248862" lon="8.4065604"><ele>58.666666666666664</ele><time>2026-04-30T13:44:06.706Z</time></trkpt><trkpt lat="40.624799" lon="8.4063254"><ele>58.0</ele><time>2026-04-30T13:44:07.706Z</time></trkpt><trkpt lat="40.624687" lon="8.4060968"><ele>56.666666666666664</ele><time>2026-04-30T13:44:08.703Z</time></trkpt><trkpt lat="40.6245606" lon="8.4058648"><ele>55.33333333333333</ele><time>2026-04-30T13:44:09.706Z</time></trkpt><trkpt lat="40.6244236" lon="8.4056291"><ele>54.0</ele><time>2026-04-30T13:44:10.706Z</time></trkpt><trkpt lat="40.624275" lon="8.4053945"><ele>54.0</ele><time>2026-04-30T13:44:11.706Z</time></trkpt><trkpt lat="40.6241159" lon="8.4051619"><ele>54.0</ele><time>2026-04-30T13:44:12.706Z</time></trkpt><trkpt lat="40.623945" lon="8.4049361"><ele>54.0</ele><time>2026-04-30T13:44:13.705Z</time></trkpt><trkpt lat="40.6237765" lon="8.4047127"><ele>54.0</ele><time>2026-04-30T13:44:14.706Z</time></trkpt><trkpt lat="40.6236184" lon="8.4044952"><ele>50.5</ele><time>2026-04-30T13:44:15.705Z</time></trkpt><trkpt lat="40.6234626" lon="8.4042661"><ele>47.0</ele><time>2026-04-30T13:44:16.706Z</time></trkpt><trkpt lat="40.6233135" lon="8.4040239"><ele>47.5</ele><time>2026-04-30T13:44:17.706Z</time></trkpt><trkpt lat="40.6231667" lon="8.4037703"><ele>48.0</ele><time>2026-04-30T13:44:18.705Z</time></trkpt><trkpt lat="40.6230187" lon="8.403511"><ele>48.0</ele><time>2026-04-30T13:44:19.706Z</time></trkpt><trkpt lat="40.6228664" lon="8.4032502"><ele>48.0</ele><time>2026-04-30T13:44:20.704Z</time></trkpt><trkpt lat="40.6227107" lon="8.4029881"><ele>39.5</ele><time>2026-04-30T13:44:21.706Z</time></trkpt><trkpt lat="40.6225554" lon="8.4027189"><ele>31.0</ele><time>2026-04-30T13:44:22.706Z</time></trkpt><trkpt lat="40.622403" lon="8.4024429"><ele>29.5</ele><time>2026-04-30T13:44:23.706Z</time></trkpt><trkpt lat="40.6222629" lon="8.402159"><ele>28.0</ele><time>2026-04-30T13:44:24.706Z</time></trkpt><trkpt lat="40.6221367" lon="8.4018668"><ele>28.0</ele><time>2026-04-30T13:44:25.706Z</time></trkpt><trkpt lat="40.6220193" lon="8.401571"><ele>28.0</ele><time>2026-04-30T13:44:26.706Z</time></trkpt><trkpt lat="40.621906" lon="8.4012746"><ele>27.5</ele><time>2026-04-30T13:44:27.706Z</time></trkpt><trkpt lat="40.621792" lon="8.4009827"><ele>27.0</ele><time>2026-04-30T13:44:28.705Z</time></trkpt><trkpt lat="40.6216735" lon="8.4006977"><ele>26.0</ele><time>2026-04-30T13:44:29.704Z</time></trkpt><trkpt lat="40.621549" lon="8.4004186"><ele>25.0</ele><time>2026-04-30T13:44:30.706Z</time></trkpt><trkpt lat="40.6214153" lon="8.4001459"><ele>25.0</ele><time>2026-04-30T13:44:31.706Z</time></trkpt><trkpt lat="40.6212745" lon="8.3998805"><ele>25.0</ele><time>2026-04-30T13:44:32.705Z</time></trkpt><trkpt lat="40.6211281" lon="8.399618"><ele>25.0</ele><time>2026-04-30T13:44:33.706Z</time></trkpt><trkpt lat="40.6209756" lon="8.3993595"><ele>25.0</ele><time>2026-04-30T13:44:34.705Z</time></trkpt><trkpt lat="40.6208224" lon="8.3991016"><ele>25.0</ele><time>2026-04-30T13:44:35.705Z</time></trkpt><trkpt lat="40.620667" lon="8.3988451"><ele>25.0</ele><time>2026-04-30T13:44:36.706Z</time></trkpt><trkpt lat="40.6205121" lon="8.3985873"><ele>25.0</ele><time>2026-04-30T13:44:37.706Z</time></trkpt><trkpt lat="40.6203569" lon="8.398329"><ele>25.0</ele><time>2026-04-30T13:44:38.705Z</time></trkpt><trkpt lat="40.6202022" lon="8.3980692"><ele>26.5</ele><time>2026-04-30T13:44:39.702Z</time></trkpt><trkpt lat="40.6200476" lon="8.3978083"><ele>28.0</ele><time>2026-04-30T13:44:40.703Z</time></trkpt><trkpt lat="40.6198928" lon="8.3975488"><ele>28.0</ele><time>2026-04-30T13:44:41.705Z</time></trkpt><trkpt lat="40.6197357" lon="8.3972867"><ele>28.0</ele><time>2026-04-30T13:44:42.706Z</time></trkpt><trkpt lat="40.6195791" lon="8.3970277"><ele>29.0</ele><time>2026-04-30T13:44:43.706Z</time></trkpt><trkpt lat="40.6194226" lon="8.3967684"><ele>30.0</ele><time>2026-04-30T13:44:44.703Z</time></trkpt><trkpt lat="40.6192644" lon="8.3965056"><ele>30.0</ele><time>2026-04-30T13:44:45.706Z</time></trkpt><trkpt lat="40.6191028" lon="8.3962406"><ele>30.0</ele><time>2026-04-30T13:44:46.706Z</time></trkpt><trkpt lat="40.6189393" lon="8.3959727"><ele>30.0</ele><time>2026-04-30T13:44:47.705Z</time></trkpt><trkpt lat="40.6187749" lon="8.3957033"><ele>30.0</ele><time>2026-04-30T13:44:48.705Z</time></trkpt><trkpt lat="40.6186099" lon="8.3954364"><ele>31.5</ele><time>2026-04-30T13:44:49.706Z</time></trkpt><trkpt lat="40.6184451" lon="8.3951652"><ele>33.0</ele><time>2026-04-30T13:44:50.706Z</time></trkpt><trkpt lat="40.6182792" lon="8.3948897"><ele>33.0</ele><time>2026-04-30T13:44:51.705Z</time></trkpt><trkpt lat="40.6181108" lon="8.394614"><ele>33.0</ele><time>2026-04-30T13:44:52.705Z</time></trkpt><trkpt lat="40.6179402" lon="8.3943374"><ele>33.0</ele><time>2026-04-30T13:44:53.706Z</time></trkpt><trkpt lat="40.6177708" lon="8.3940608"><ele>33.0</ele><time>2026-04-30T13:44:54.706Z</time></trkpt><trkpt lat="40.6176006" lon="8.393784"><ele>33.0</ele><time>2026-04-30T13:44:55.706Z</time></trkpt><trkpt lat="40.6174332" lon="8.3935065"><ele>33.0</ele><time>2026-04-30T13:44:56.706Z</time></trkpt><trkpt lat="40.6172658" lon="8.3932324"><ele>33.0</ele><time>2026-04-30T13:44:57.706Z</time></trkpt><trkpt lat="40.6170987" lon="8.3929584"><ele>33.0</ele><time>2026-04-30T13:44:58.704Z</time></trkpt><trkpt lat="40.6169307" lon="8.3926833"><ele>33.0</ele><time>2026-04-30T13:44:59.706Z</time></trkpt><trkpt lat="40.6167629" lon="8.3924092"><ele>33.0</ele><time>2026-04-30T13:45:00.706Z</time></trkpt><trkpt lat="40.6165949" lon="8.3921345"><ele>32.5</ele><time>2026-04-30T13:45:01.706Z</time></trkpt><trkpt lat="40.6164267" lon="8.3918608"><ele>32.0</ele><time>2026-04-30T13:45:02.706Z</time></trkpt><trkpt lat="40.6162589" lon="8.3915868"><ele>31.5</ele><time>2026-04-30T13:45:03.705Z</time></trkpt><trkpt lat="40.6160914" lon="8.391311"><ele>31.0</ele><time>2026-04-30T13:45:04.706Z</time></trkpt><trkpt lat="40.6159252" lon="8.3910359"><ele>31.0</ele><time>2026-04-30T13:45:05.706Z</time></trkpt><trkpt lat="40.6157602" lon="8.3907645"><ele>31.0</ele><time>2026-04-30T13:45:06.706Z</time></trkpt><trkpt lat="40.6155969" lon="8.3904923"><ele>30.0</ele><time>2026-04-30T13:45:07.706Z</time></trkpt><trkpt lat="40.6154345" lon="8.3902207"><ele>29.0</ele><time>2026-04-30T13:45:08.706Z</time></trkpt><trkpt lat="40.6152709" lon="8.3899526"><ele>28.5</ele><time>2026-04-30T13:45:09.706Z</time></trkpt><trkpt lat="40.615108" lon="8.3896835"><ele>28.0</ele><time>2026-04-30T13:45:10.706Z</time></trkpt><trkpt lat="40.6149449" lon="8.3894164"><ele>28.0</ele><time>2026-04-30T13:45:11.706Z</time></trkpt><trkpt lat="40.6147812" lon="8.3891512"><ele>28.0</ele><time>2026-04-30T13:45:12.706Z</time></trkpt><trkpt lat="40.6146204" lon="8.3888839"><ele>27.0</ele><time>2026-04-30T13:45:13.706Z</time></trkpt><trkpt lat="40.6144597" lon="8.3886166"><ele>26.0</ele><time>2026-04-30T13:45:14.706Z</time></trkpt><trkpt lat="40.6142956" lon="8.3883506"><ele>26.0</ele><time>2026-04-30T13:45:15.706Z</time></trkpt><trkpt lat="40.6141334" lon="8.3880815"><ele>26.0</ele><time>2026-04-30T13:45:16.705Z</time></trkpt><trkpt lat="40.6139703" lon="8.3878113"><ele>26.0</ele><time>2026-04-30T13:45:17.706Z</time></trkpt><trkpt lat="40.6138072" lon="8.3875415"><ele>26.0</ele><time>2026-04-30T13:45:18.706Z</time></trkpt><trkpt lat="40.6136439" lon="8.3872709"><ele>27.5</ele><time>2026-04-30T13:45:19.706Z</time></trkpt><trkpt lat="40.6134802" lon="8.3870011"><ele>29.0</ele><time>2026-04-30T13:45:20.706Z</time></trkpt><trkpt lat="40.6133148" lon="8.3867329"><ele>29.0</ele><time>2026-04-30T13:45:21.705Z</time></trkpt><trkpt lat="40.6131507" lon="8.3864625"><ele>29.0</ele><time>2026-04-30T13:45:22.706Z</time></trkpt><trkpt lat="40.6129859" lon="8.3861924"><ele>29.0</ele><time>2026-04-30T13:45:23.705Z</time></trkpt><trkpt lat="40.6128202" lon="8.3859236"><ele>29.0</ele><time>2026-04-30T13:45:24.705Z</time></trkpt><trkpt lat="40.612657" lon="8.3856606"><ele>30.5</ele><time>2026-04-30T13:45:25.705Z</time></trkpt><trkpt lat="40.6125072" lon="8.3854134"><ele>32.0</ele><time>2026-04-30T13:45:26.706Z</time></trkpt><trkpt lat="40.6123678" lon="8.3851829"><ele>32.0</ele><time>2026-04-30T13:45:27.706Z</time></trkpt><trkpt lat="40.6122415" lon="8.3849712"><ele>32.0</ele><time>2026-04-30T13:45:28.706Z</time></trkpt><trkpt lat="40.6121293" lon="8.3847828"><ele>32.0</ele><time>2026-04-30T13:45:29.706Z</time></trkpt><trkpt lat="40.6120321" lon="8.3846081"><ele>32.33333333333333</ele><time>2026-04-30T13:45:30.703Z</time></trkpt><trkpt lat="40.6119563" lon="8.3844341"><ele>32.666666666666664</ele><time>2026-04-30T13:45:31.704Z</time></trkpt><trkpt lat="40.6118946" lon="8.3842577"><ele>33.0</ele><time>2026-04-30T13:45:32.706Z</time></trkpt><trkpt lat="40.6118396" lon="8.3840722"><ele>33.0</ele><time>2026-04-30T13:45:33.705Z</time></trkpt><trkpt lat="40.6117979" lon="8.3838706"><ele>33.0</ele><time>2026-04-30T13:45:34.706Z</time></trkpt><trkpt lat="40.6117598" lon="8.3836567"><ele>33.0</ele><time>2026-04-30T13:45:35.706Z</time></trkpt><trkpt lat="40.6117208" lon="8.3834328"><ele>32.333333333333336</ele><time>2026-04-30T13:45:36.706Z</time></trkpt><trkpt lat="40.6116821" lon="8.3832079"><ele>31.666666666666668</ele><time>2026-04-30T13:45:37.706Z</time></trkpt><trkpt lat="40.6116431" lon="8.3829903"><ele>31.0</ele><time>2026-04-30T13:45:38.706Z</time></trkpt><trkpt lat="40.6116034" lon="8.3827826"><ele>30.75</ele><time>2026-04-30T13:45:39.706Z</time></trkpt><trkpt lat="40.6115641" lon="8.3825804"><ele>30.5</ele><time>2026-04-30T13:45:40.706Z</time></trkpt><trkpt lat="40.6115264" lon="8.3823915"><ele>30.25</ele><time>2026-04-30T13:45:41.706Z</time></trkpt><trkpt lat="40.6114969" lon="8.3822156"><ele>30.0</ele><time>2026-04-30T13:45:42.706Z</time></trkpt><trkpt lat="40.6114868" lon="8.3820524"><ele>30.0</ele><time>2026-04-30T13:45:43.706Z</time></trkpt><trkpt lat="40.6115042" lon="8.3819014"><ele>30.0</ele><time>2026-04-30T13:45:44.706Z</time></trkpt><trkpt lat="40.6115455" lon="8.3817585"><ele>30.0</ele><time>2026-04-30T13:45:45.706Z</time></trkpt><trkpt lat="40.6115914" lon="8.381619"><ele>30.0</ele><time>2026-04-30T13:45:46.706Z</time></trkpt><trkpt lat="40.6116244" lon="8.3814764"><ele>29.6</ele><time>2026-04-30T13:45:47.706Z</time></trkpt><trkpt lat="40.6116261" lon="8.3813294"><ele>29.2</ele><time>2026-04-30T13:45:48.704Z</time></trkpt><trkpt lat="40.6115955" lon="8.3811857"><ele>28.799999999999997</ele><time>2026-04-30T13:45:49.706Z</time></trkpt><trkpt lat="40.6115341" lon="8.3810647"><ele>28.4</ele><time>2026-04-30T13:45:50.706Z</time></trkpt><trkpt lat="40.6114492" lon="8.3809855"><ele>28.0</ele><time>2026-04-30T13:45:51.706Z</time></trkpt><trkpt lat="40.6113451" lon="8.3809431"><ele>28.0</ele><time>2026-04-30T13:45:52.703Z</time></trkpt><trkpt lat="40.6112361" lon="8.3809517"><ele>28.0</ele><time>2026-04-30T13:45:53.706Z</time></trkpt><trkpt lat="40.6111319" lon="8.3810079"><ele>28.0</ele><time>2026-04-30T13:45:54.704Z</time></trkpt><trkpt lat="40.6110435" lon="8.3811061"><ele>28.0</ele><time>2026-04-30T13:45:55.706Z</time></trkpt><trkpt lat="40.6109743" lon="8.38123"><ele>28.75</ele><time>2026-04-30T13:45:56.706Z</time></trkpt><trkpt lat="40.6109044" lon="8.3813673"><ele>29.5</ele><time>2026-04-30T13:45:57.706Z</time></trkpt><trkpt lat="40.6108093" lon="8.3814934"><ele>30.25</ele><time>2026-04-30T13:45:58.706Z</time></trkpt><trkpt lat="40.610698" lon="8.3816005"><ele>31.0</ele><time>2026-04-30T13:45:59.704Z</time></trkpt><trkpt lat="40.6105805" lon="8.3816671"><ele>31.0</ele><time>2026-04-30T13:46:00.706Z</time></trkpt><trkpt lat="40.6104574" lon="8.3816875"><ele>31.0</ele><time>2026-04-30T13:46:01.705Z</time></trkpt><trkpt lat="40.6103286" lon="8.3816627"><ele>31.0</ele><time>2026-04-30T13:46:02.706Z</time></trkpt><trkpt lat="40.6101989" lon="8.3816029"><ele>31.0</ele><time>2026-04-30T13:46:03.706Z</time></trkpt><trkpt lat="40.6100623" lon="8.3815267"><ele>31.333333333333336</ele><time>2026-04-30T13:46:04.706Z</time></trkpt><trkpt lat="40.6099174" lon="8.3814505"><ele>31.666666666666664</ele><time>2026-04-30T13:46:05.705Z</time></trkpt><trkpt lat="40.6097634" lon="8.3813804"><ele>32.0</ele><time>2026-04-30T13:46:06.706Z</time></trkpt><trkpt lat="40.6095975" lon="8.3813185"><ele>30.666666666666664</ele><time>2026-04-30T13:46:07.705Z</time></trkpt><trkpt lat="40.6094159" lon="8.381257"><ele>29.333333333333336</ele><time>2026-04-30T13:46:08.706Z</time></trkpt><trkpt lat="40.6092252" lon="8.3811983"><ele>28.0</ele><time>2026-04-30T13:46:09.705Z</time></trkpt><trkpt lat="40.6090437" lon="8.3811435"><ele>28.0</ele><time>2026-04-30T13:46:10.706Z</time></trkpt><trkpt lat="40.6088675" lon="8.3810916"><ele>28.0</ele><time>2026-04-30T13:46:11.706Z</time></trkpt><trkpt lat="40.6086981" lon="8.3810394"><ele>28.0</ele><time>2026-04-30T13:46:12.706Z</time></trkpt><trkpt lat="40.6085324" lon="8.380989"><ele>26.333333333333336</ele><time>2026-04-30T13:46:13.706Z</time></trkpt><trkpt lat="40.6083706" lon="8.3809387"><ele>24.666666666666668</ele><time>2026-04-30T13:46:14.705Z</time></trkpt><trkpt lat="40.6082075" lon="8.3808858"><ele>23.0</ele><time>2026-04-30T13:46:15.706Z</time></trkpt><trkpt lat="40.6080416" lon="8.3808369"><ele>23.0</ele><time>2026-04-30T13:46:16.705Z</time></trkpt><trkpt lat="40.607873" lon="8.38079"><ele>23.0</ele><time>2026-04-30T13:46:17.706Z</time></trkpt><trkpt lat="40.6077039" lon="8.3807436"><ele>23.0</ele><time>2026-04-30T13:46:18.706Z</time></trkpt><trkpt lat="40.6075337" lon="8.3806952"><ele>22.0</ele><time>2026-04-30T13:46:19.705Z</time></trkpt><trkpt lat="40.6073617" lon="8.3806429"><ele>21.0</ele><time>2026-04-30T13:46:20.706Z</time></trkpt><trkpt lat="40.607185" lon="8.3805897"><ele>20.0</ele><time>2026-04-30T13:46:21.706Z</time></trkpt><trkpt lat="40.607007" lon="8.3805354"><ele>19.333333333333336</ele><time>2026-04-30T13:46:22.706Z</time></trkpt><trkpt lat="40.6068252" lon="8.380479"><ele>18.666666666666668</ele><time>2026-04-30T13:46:23.706Z</time></trkpt><trkpt lat="40.6066375" lon="8.3804243"><ele>18.0</ele><time>2026-04-30T13:46:24.706Z</time></trkpt><trkpt lat="40.6064465" lon="8.3803686"><ele>18.0</ele><time>2026-04-30T13:46:25.706Z</time></trkpt><trkpt lat="40.6062539" lon="8.3803092"><ele>18.0</ele><time>2026-04-30T13:46:26.706Z</time></trkpt><trkpt lat="40.6060599" lon="8.3802521"><ele>18.0</ele><time>2026-04-30T13:46:27.703Z</time></trkpt><trkpt lat="40.6058636" lon="8.380198"><ele>17.333333333333332</ele><time>2026-04-30T13:46:28.704Z</time></trkpt><trkpt lat="40.6056674" lon="8.3801391"><ele>16.666666666666664</ele><time>2026-04-30T13:46:29.706Z</time></trkpt><trkpt lat="40.6054706" lon="8.3800781"><ele>16.0</ele><time>2026-04-30T13:46:30.706Z</time></trkpt><trkpt lat="40.6052733" lon="8.3800195"><ele>15.666666666666666</ele><time>2026-04-30T13:46:31.706Z</time></trkpt><trkpt lat="40.6050748" lon="8.3799596"><ele>15.333333333333332</ele><time>2026-04-30T13:46:32.706Z</time></trkpt><trkpt lat="40.6048764" lon="8.3798999"><ele>15.0</ele><time>2026-04-30T13:46:33.706Z</time></trkpt><trkpt lat="40.6046742" lon="8.379839"><ele>15.0</ele><time>2026-04-30T13:46:34.705Z</time></trkpt><trkpt lat="40.6044711" lon="8.3797788"><ele>15.0</ele><time>2026-04-30T13:46:35.706Z</time></trkpt><trkpt lat="40.604268" lon="8.379718"><ele>15.0</ele><time>2026-04-30T13:46:36.706Z</time></trkpt><trkpt lat="40.6040685" lon="8.3796581"><ele>15.0</ele><time>2026-04-30T13:46:37.706Z</time></trkpt><trkpt lat="40.6038692" lon="8.3795981"><ele>15.0</ele><time>2026-04-30T13:46:38.706Z</time></trkpt><trkpt lat="40.6036729" lon="8.3795403"><ele>15.0</ele><time>2026-04-30T13:46:39.706Z</time></trkpt><trkpt lat="40.603479" lon="8.3794821"><ele>15.666666666666668</ele><time>2026-04-30T13:46:40.706Z</time></trkpt><trkpt lat="40.6032829" lon="8.3794228"><ele>16.333333333333336</ele><time>2026-04-30T13:46:41.704Z</time></trkpt><trkpt lat="40.6030887" lon="8.3793612"><ele>17.0</ele><time>2026-04-30T13:46:42.706Z</time></trkpt><trkpt lat="40.6028928" lon="8.3793026"><ele>17.0</ele><time>2026-04-30T13:46:43.706Z</time></trkpt><trkpt lat="40.6026964" lon="8.3792424"><ele>17.0</ele><time>2026-04-30T13:46:44.705Z</time></trkpt><trkpt lat="40.6024979" lon="8.379181"><ele>17.0</ele><time>2026-04-30T13:46:45.706Z</time></trkpt><trkpt lat="40.6022973" lon="8.3791218"><ele>17.0</ele><time>2026-04-30T13:46:46.706Z</time></trkpt><trkpt lat="40.6020963" lon="8.379061"><ele>17.0</ele><time>2026-04-30T13:46:47.706Z</time></trkpt><trkpt lat="40.6018965" lon="8.3790003"><ele>17.0</ele><time>2026-04-30T13:46:48.706Z</time></trkpt><trkpt lat="40.6016932" lon="8.3789379"><ele>17.333333333333336</ele><time>2026-04-30T13:46:49.706Z</time></trkpt><trkpt lat="40.6014892" lon="8.3788739"><ele>17.666666666666668</ele><time>2026-04-30T13:46:50.706Z</time></trkpt><trkpt lat="40.6012826" lon="8.378811"><ele>18.0</ele><time>2026-04-30T13:46:51.706Z</time></trkpt><trkpt lat="40.601073" lon="8.3787499"><ele>18.333333333333332</ele><time>2026-04-30T13:46:52.706Z</time></trkpt><trkpt lat="40.6008637" lon="8.3786887"><ele>18.666666666666664</ele><time>2026-04-30T13:46:53.705Z</time></trkpt><trkpt lat="40.6006573" lon="8.3786276"><ele>19.0</ele><time>2026-04-30T13:46:54.705Z</time></trkpt><trkpt lat="40.6004552" lon="8.3785673"><ele>19.0</ele><time>2026-04-30T13:46:55.705Z</time></trkpt><trkpt lat="40.6002546" lon="8.3785075"><ele>19.0</ele><time>2026-04-30T13:46:56.706Z</time></trkpt><trkpt lat="40.6000556" lon="8.3784483"><ele>19.0</ele><time>2026-04-30T13:46:57.706Z</time></trkpt><trkpt lat="40.5998583" lon="8.378387"><ele>19.0</ele><time>2026-04-30T13:46:58.705Z</time></trkpt><trkpt lat="40.5996649" lon="8.3783287"><ele>19.0</ele><time>2026-04-30T13:46:59.706Z</time></trkpt><trkpt lat="40.5994742" lon="8.378273"><ele>19.0</ele><time>2026-04-30T13:47:00.706Z</time></trkpt><trkpt lat="40.5992928" lon="8.3782209"><ele>19.666666666666664</ele><time>2026-04-30T13:47:01.705Z</time></trkpt><trkpt lat="40.5991115" lon="8.3781689"><ele>20.333333333333332</ele><time>2026-04-30T13:47:02.706Z</time></trkpt><trkpt lat="40.5989344" lon="8.378116"><ele>21.0</ele><time>2026-04-30T13:47:03.706Z</time></trkpt><trkpt lat="40.5987581" lon="8.378062"><ele>21.333333333333332</ele><time>2026-04-30T13:47:04.706Z</time></trkpt><trkpt lat="40.598582" lon="8.3780089"><ele>21.666666666666664</ele><time>2026-04-30T13:47:05.706Z</time></trkpt><trkpt lat="40.598405" lon="8.3779554"><ele>22.0</ele><time>2026-04-30T13:47:06.706Z</time></trkpt><trkpt lat="40.5982271" lon="8.3779015"><ele>22.0</ele><time>2026-04-30T13:47:07.704Z</time></trkpt><trkpt lat="40.598048" lon="8.3778473"><ele>22.0</ele><time>2026-04-30T13:47:08.706Z</time></trkpt><trkpt lat="40.5978679" lon="8.3777931"><ele>22.0</ele><time>2026-04-30T13:47:09.703Z</time></trkpt><trkpt lat="40.5976851" lon="8.3777387"><ele>23.666666666666664</ele><time>2026-04-30T13:47:10.706Z</time></trkpt><trkpt lat="40.5975008" lon="8.3776847"><ele>25.333333333333332</ele><time>2026-04-30T13:47:11.706Z</time></trkpt><trkpt lat="40.5973144" lon="8.3776293"><ele>27.0</ele><time>2026-04-30T13:47:12.706Z</time></trkpt><trkpt lat="40.5971224" lon="8.3775719"><ele>27.333333333333336</ele><time>2026-04-30T13:47:13.705Z</time></trkpt><trkpt lat="40.596928" lon="8.3775135"><ele>27.666666666666668</ele><time>2026-04-30T13:47:14.706Z</time></trkpt><trkpt lat="40.5967308" lon="8.3774538"><ele>28.0</ele><time>2026-04-30T13:47:15.706Z</time></trkpt><trkpt lat="40.5965307" lon="8.3773947"><ele>28.0</ele><time>2026-04-30T13:47:16.706Z</time></trkpt><trkpt lat="40.5963249" lon="8.3773376"><ele>28.0</ele><time>2026-04-30T13:47:17.706Z</time></trkpt><trkpt lat="40.5961159" lon="8.3772778"><ele>28.0</ele><time>2026-04-30T13:47:18.704Z</time></trkpt><trkpt lat="40.5959042" lon="8.3772166"><ele>27.0</ele><time>2026-04-30T13:47:19.704Z</time></trkpt><trkpt lat="40.5956888" lon="8.3771534"><ele>26.0</ele><time>2026-04-30T13:47:20.706Z</time></trkpt><trkpt lat="40.5954721" lon="8.3770892"><ele>25.0</ele><time>2026-04-30T13:47:21.706Z</time></trkpt><trkpt lat="40.5952525" lon="8.3770225"><ele>25.0</ele><time>2026-04-30T13:47:22.706Z</time></trkpt><trkpt lat="40.5950326" lon="8.3769556"><ele>25.0</ele><time>2026-04-30T13:47:23.705Z</time></trkpt><trkpt lat="40.5948115" lon="8.3768902"><ele>25.0</ele><time>2026-04-30T13:47:24.705Z</time></trkpt><trkpt lat="40.5945886" lon="8.376827"><ele>25.0</ele><time>2026-04-30T13:47:25.706Z</time></trkpt><trkpt lat="40.5943661" lon="8.3767622"><ele>24.5</ele><time>2026-04-30T13:47:26.706Z</time></trkpt><trkpt lat="40.5941437" lon="8.3766965"><ele>24.0</ele><time>2026-04-30T13:47:27.704Z</time></trkpt><trkpt lat="40.5939218" lon="8.3766294"><ele>24.0</ele><time>2026-04-30T13:47:28.703Z</time></trkpt><trkpt lat="40.5936989" lon="8.3765611"><ele>24.0</ele><time>2026-04-30T13:47:29.706Z</time></trkpt><trkpt lat="40.593475" lon="8.3764917"><ele>24.0</ele><time>2026-04-30T13:47:30.706Z</time></trkpt><trkpt lat="40.5932531" lon="8.3764222"><ele>24.0</ele><time>2026-04-30T13:47:31.706Z</time></trkpt><trkpt lat="40.5930423" lon="8.3763588"><ele>24.0</ele><time>2026-04-30T13:47:32.703Z</time></trkpt><trkpt lat="40.5928369" lon="8.3762986"><ele>24.0</ele><time>2026-04-30T13:47:33.705Z</time></trkpt><trkpt lat="40.5926321" lon="8.3762395"><ele>24.0</ele><time>2026-04-30T13:47:34.706Z</time></trkpt><trkpt lat="40.5924372" lon="8.3761828"><ele>24.0</ele><time>2026-04-30T13:47:35.706Z</time></trkpt><trkpt lat="40.5922515" lon="8.376128"><ele>24.0</ele><time>2026-04-30T13:47:36.706Z</time></trkpt><trkpt lat="40.5920719" lon="8.3760752"><ele>24.0</ele><time>2026-04-30T13:47:37.706Z</time></trkpt><trkpt lat="40.5918993" lon="8.3760239"><ele>24.0</ele><time>2026-04-30T13:47:38.705Z</time></trkpt><trkpt lat="40.5917273" lon="8.3759733"><ele>25.0</ele><time>2026-04-30T13:47:39.705Z</time></trkpt><trkpt lat="40.5915575" lon="8.3759219"><ele>26.0</ele><time>2026-04-30T13:47:40.706Z</time></trkpt><trkpt lat="40.5913875" lon="8.3758724"><ele>27.0</ele><time>2026-04-30T13:47:41.706Z</time></trkpt><trkpt lat="40.5912186" lon="8.3758229"><ele>27.333333333333336</ele><time>2026-04-30T13:47:42.706Z</time></trkpt><trkpt lat="40.5910487" lon="8.3757738"><ele>27.666666666666668</ele><time>2026-04-30T13:47:43.706Z</time></trkpt><trkpt lat="40.590879" lon="8.3757247"><ele>28.0</ele><time>2026-04-30T13:47:44.706Z</time></trkpt><trkpt lat="40.5907044" lon="8.3756737"><ele>28.0</ele><time>2026-04-30T13:47:45.705Z</time></trkpt><trkpt lat="40.5905259" lon="8.375623"><ele>28.0</ele><time>2026-04-30T13:47:46.706Z</time></trkpt><trkpt lat="40.5903483" lon="8.3755698"><ele>28.0</ele><time>2026-04-30T13:47:47.706Z</time></trkpt><trkpt lat="40.5901676" lon="8.3755176"><ele>29.666666666666668</ele><time>2026-04-30T13:47:48.705Z</time></trkpt><trkpt lat="40.5899859" lon="8.375465"><ele>31.333333333333336</ele><time>2026-04-30T13:47:49.705Z</time></trkpt><trkpt lat="40.5898024" lon="8.3754101"><ele>33.0</ele><time>2026-04-30T13:47:50.706Z</time></trkpt><trkpt lat="40.589617" lon="8.375352"><ele>33.333333333333336</ele><time>2026-04-30T13:47:51.705Z</time></trkpt><trkpt lat="40.5894312" lon="8.3752879"><ele>33.66666666666667</ele><time>2026-04-30T13:47:52.705Z</time></trkpt><trkpt lat="40.5892471" lon="8.375213"><ele>34.0</ele><time>2026-04-30T13:47:53.706Z</time></trkpt><trkpt lat="40.5890644" lon="8.3751213"><ele>34.0</ele><time>2026-04-30T13:47:54.706Z</time></trkpt><trkpt lat="40.5888796" lon="8.3750218"><ele>34.0</ele><time>2026-04-30T13:47:55.706Z</time></trkpt><trkpt lat="40.5886955" lon="8.3749139"><ele>34.0</ele><time>2026-04-30T13:47:56.705Z</time></trkpt><trkpt lat="40.5885102" lon="8.3748043"><ele>33.66666666666667</ele><time>2026-04-30T13:47:57.706Z</time></trkpt><trkpt lat="40.5883282" lon="8.3747"><ele>33.333333333333336</ele><time>2026-04-30T13:47:58.706Z</time></trkpt><trkpt lat="40.5881528" lon="8.3746042"><ele>33.0</ele><time>2026-04-30T13:47:59.704Z</time></trkpt><trkpt lat="40.5879758" lon="8.3745094"><ele>34.0</ele><time>2026-04-30T13:48:00.705Z</time></trkpt><trkpt lat="40.5878043" lon="8.3744122"><ele>35.0</ele><time>2026-04-30T13:48:01.706Z</time></trkpt><trkpt lat="40.5876363" lon="8.3743149"><ele>36.0</ele><time>2026-04-30T13:48:02.705Z</time></trkpt><trkpt lat="40.5874768" lon="8.3742228"><ele>36.0</ele><time>2026-04-30T13:48:03.705Z</time></trkpt><trkpt lat="40.5873199" lon="8.3741378"><ele>36.0</ele><time>2026-04-30T13:48:04.706Z</time></trkpt><trkpt lat="40.5871625" lon="8.3740603"><ele>36.0</ele><time>2026-04-30T13:48:05.706Z</time></trkpt><trkpt lat="40.5870046" lon="8.3739897"><ele>36.333333333333336</ele><time>2026-04-30T13:48:06.706Z</time></trkpt><trkpt lat="40.5868433" lon="8.3739316"><ele>36.66666666666667</ele><time>2026-04-30T13:48:07.706Z</time></trkpt><trkpt lat="40.5866784" lon="8.3738854"><ele>37.0</ele><time>2026-04-30T13:48:08.703Z</time></trkpt><trkpt lat="40.5865108" lon="8.3738525"><ele>37.0</ele><time>2026-04-30T13:48:09.705Z</time></trkpt><trkpt lat="40.5863416" lon="8.373834"><ele>37.0</ele><time>2026-04-30T13:48:10.703Z</time></trkpt><trkpt lat="40.5861702" lon="8.3738262"><ele>37.0</ele><time>2026-04-30T13:48:11.705Z</time></trkpt><trkpt lat="40.5859903" lon="8.3738322"><ele>38.333333333333336</ele><time>2026-04-30T13:48:12.706Z</time></trkpt><trkpt lat="40.5858049" lon="8.373839"><ele>39.666666666666664</ele><time>2026-04-30T13:48:13.706Z</time></trkpt><trkpt lat="40.5856177" lon="8.3738491"><ele>41.0</ele><time>2026-04-30T13:48:14.706Z</time></trkpt><trkpt lat="40.5854265" lon="8.3738581"><ele>44.666666666666664</ele><time>2026-04-30T13:48:15.706Z</time></trkpt><trkpt lat="40.5852458" lon="8.3738638"><ele>48.33333333333333</ele><time>2026-04-30T13:48:16.705Z</time></trkpt><trkpt lat="40.5850653" lon="8.3738657"><ele>52.0</ele><time>2026-04-30T13:48:17.703Z</time></trkpt><trkpt lat="40.5848882" lon="8.3738537"><ele>52.0</ele><time>2026-04-30T13:48:18.706Z</time></trkpt><trkpt lat="40.5847123" lon="8.3738257"><ele>52.0</ele><time>2026-04-30T13:48:19.706Z</time></trkpt><trkpt lat="40.5845369" lon="8.3737841"><ele>52.0</ele><time>2026-04-30T13:48:20.705Z</time></trkpt><trkpt lat="40.5843623" lon="8.3737281"><ele>52.666666666666664</ele><time>2026-04-30T13:48:21.706Z</time></trkpt><trkpt lat="40.5841864" lon="8.3736605"><ele>53.33333333333333</ele><time>2026-04-30T13:48:22.706Z</time></trkpt><trkpt lat="40.5840122" lon="8.3735862"><ele>54.0</ele><time>2026-04-30T13:48:23.706Z</time></trkpt><trkpt lat="40.5838234" lon="8.3735033"><ele>52.0</ele><time>2026-04-30T13:48:24.706Z</time></trkpt><trkpt lat="40.5836191" lon="8.3734102"><ele>50.0</ele><time>2026-04-30T13:48:25.706Z</time></trkpt><trkpt lat="40.5833977" lon="8.3733059"><ele>50.0</ele><time>2026-04-30T13:48:26.706Z</time></trkpt><trkpt lat="40.583166" lon="8.3731907"><ele>50.0</ele><time>2026-04-30T13:48:27.706Z</time></trkpt><trkpt lat="40.5829285" lon="8.3730565"><ele>46.0</ele><time>2026-04-30T13:48:28.706Z</time></trkpt><trkpt lat="40.5826924" lon="8.3729045"><ele>42.0</ele><time>2026-04-30T13:48:29.705Z</time></trkpt><trkpt lat="40.5824581" lon="8.3727515"><ele>42.0</ele><time>2026-04-30T13:48:30.706Z</time></trkpt><trkpt lat="40.5822281" lon="8.3726092"><ele>42.0</ele><time>2026-04-30T13:48:31.706Z</time></trkpt><trkpt lat="40.5820068" lon="8.3724749"><ele>41.0</ele><time>2026-04-30T13:48:32.706Z</time></trkpt><trkpt lat="40.581796" lon="8.372348"><ele>40.0</ele><time>2026-04-30T13:48:33.705Z</time></trkpt><trkpt lat="40.5816003" lon="8.3722262"><ele>39.0</ele><time>2026-04-30T13:48:34.706Z</time></trkpt><trkpt lat="40.5814168" lon="8.3720956"><ele>39.0</ele><time>2026-04-30T13:48:35.706Z</time></trkpt><trkpt lat="40.581249" lon="8.3719556"><ele>39.0</ele><time>2026-04-30T13:48:36.706Z</time></trkpt><trkpt lat="40.5810901" lon="8.3717991"><ele>39.0</ele><time>2026-04-30T13:48:37.706Z</time></trkpt><trkpt lat="40.5809405" lon="8.3716321"><ele>38.333333333333336</ele><time>2026-04-30T13:48:38.705Z</time></trkpt><trkpt lat="40.5808033" lon="8.3714477"><ele>37.66666666666667</ele><time>2026-04-30T13:48:39.706Z</time></trkpt><trkpt lat="40.5806759" lon="8.3712564"><ele>37.0</ele><time>2026-04-30T13:48:40.705Z</time></trkpt><trkpt lat="40.5805521" lon="8.3710578"><ele>37.0</ele><time>2026-04-30T13:48:41.705Z</time></trkpt><trkpt lat="40.5804305" lon="8.3708652"><ele>37.0</ele><time>2026-04-30T13:48:42.706Z</time></trkpt><trkpt lat="40.5803085" lon="8.3706735"><ele>37.0</ele><time>2026-04-30T13:48:43.705Z</time></trkpt><trkpt lat="40.5801826" lon="8.3704848"><ele>34.66666666666667</ele><time>2026-04-30T13:48:44.706Z</time></trkpt><trkpt lat="40.5800579" lon="8.3703134"><ele>32.333333333333336</ele><time>2026-04-30T13:48:45.705Z</time></trkpt><trkpt lat="40.5799231" lon="8.370147"><ele>30.0</ele><time>2026-04-30T13:48:46.706Z</time></trkpt><trkpt lat="40.5797684" lon="8.3699781"><ele>30.0</ele><time>2026-04-30T13:48:47.705Z</time></trkpt><trkpt lat="40.5795913" lon="8.3698043"><ele>30.0</ele><time>2026-04-30T13:48:48.706Z</time></trkpt><trkpt lat="40.579395" lon="8.3696157"><ele>28.0</ele><time>2026-04-30T13:48:49.706Z</time></trkpt><trkpt lat="40.5791994" lon="8.3694141"><ele>26.0</ele><time>2026-04-30T13:48:50.706Z</time></trkpt><trkpt lat="40.5790194" lon="8.3692134"><ele>26.0</ele><time>2026-04-30T13:48:51.705Z</time></trkpt><trkpt lat="40.5788382" lon="8.3690171"><ele>26.0</ele><time>2026-04-30T13:48:52.706Z</time></trkpt><trkpt lat="40.578655" lon="8.3688217"><ele>25.666666666666664</ele><time>2026-04-30T13:48:53.706Z</time></trkpt><trkpt lat="40.5784853" lon="8.3686199"><ele>25.333333333333336</ele><time>2026-04-30T13:48:54.706Z</time></trkpt><trkpt lat="40.5783308" lon="8.3684124"><ele>25.0</ele><time>2026-04-30T13:48:55.706Z</time></trkpt><trkpt lat="40.5781878" lon="8.3681959"><ele>25.333333333333336</ele><time>2026-04-30T13:48:56.706Z</time></trkpt><trkpt lat="40.5780564" lon="8.3679666"><ele>25.666666666666664</ele><time>2026-04-30T13:48:57.706Z</time></trkpt><trkpt lat="40.5779338" lon="8.3677267"><ele>26.0</ele><time>2026-04-30T13:48:58.706Z</time></trkpt><trkpt lat="40.5778131" lon="8.3674772"><ele>24.5</ele><time>2026-04-30T13:48:59.706Z</time></trkpt><trkpt lat="40.5776924" lon="8.367219"><ele>23.0</ele><time>2026-04-30T13:49:00.706Z</time></trkpt><trkpt lat="40.5775738" lon="8.3669608"><ele>22.5</ele><time>2026-04-30T13:49:01.705Z</time></trkpt><trkpt lat="40.5774564" lon="8.3667069"><ele>22.0</ele><time>2026-04-30T13:49:02.706Z</time></trkpt><trkpt lat="40.5773395" lon="8.3664539"><ele>23.0</ele><time>2026-04-30T13:49:03.706Z</time></trkpt><trkpt lat="40.577222" lon="8.3662016"><ele>24.0</ele><time>2026-04-30T13:49:04.705Z</time></trkpt><trkpt lat="40.5771043" lon="8.3659464"><ele>23.0</ele><time>2026-04-30T13:49:05.704Z</time></trkpt><trkpt lat="40.5769884" lon="8.3656903"><ele>22.0</ele><time>2026-04-30T13:49:06.706Z</time></trkpt><trkpt lat="40.5768725" lon="8.3654388"><ele>22.0</ele><time>2026-04-30T13:49:07.706Z</time></trkpt><trkpt lat="40.5767567" lon="8.365188"><ele>22.0</ele><time>2026-04-30T13:49:08.706Z</time></trkpt><trkpt lat="40.5766401" lon="8.3649354"><ele>22.0</ele><time>2026-04-30T13:49:09.706Z</time></trkpt><trkpt lat="40.5765237" lon="8.3646836"><ele>22.333333333333332</ele><time>2026-04-30T13:49:10.706Z</time></trkpt><trkpt lat="40.5764074" lon="8.3644349"><ele>22.666666666666668</ele><time>2026-04-30T13:49:11.706Z</time></trkpt><trkpt lat="40.5762905" lon="8.3641835"><ele>23.0</ele><time>2026-04-30T13:49:12.704Z</time></trkpt><trkpt lat="40.5761791" lon="8.363941"><ele>22.666666666666668</ele><time>2026-04-30T13:49:13.705Z</time></trkpt><trkpt lat="40.5760755" lon="8.3636997"><ele>22.333333333333332</ele><time>2026-04-30T13:49:14.706Z</time></trkpt><trkpt lat="40.5759802" lon="8.3634555"><ele>22.0</ele><time>2026-04-30T13:49:15.706Z</time></trkpt><trkpt lat="40.5758989" lon="8.3632029"><ele>22.666666666666664</ele><time>2026-04-30T13:49:16.706Z</time></trkpt><trkpt lat="40.575831" lon="8.362944"><ele>23.333333333333332</ele><time>2026-04-30T13:49:17.706Z</time></trkpt><trkpt lat="40.575776" lon="8.3626794"><ele>24.0</ele><time>2026-04-30T13:49:18.705Z</time></trkpt><trkpt lat="40.5757241" lon="8.3624057"><ele>23.666666666666668</ele><time>2026-04-30T13:49:19.706Z</time></trkpt><trkpt lat="40.5756713" lon="8.3621315"><ele>23.333333333333336</ele><time>2026-04-30T13:49:20.706Z</time></trkpt><trkpt lat="40.5756175" lon="8.3618565"><ele>23.0</ele><time>2026-04-30T13:49:21.706Z</time></trkpt><trkpt lat="40.5755633" lon="8.3615769"><ele>21.666666666666668</ele><time>2026-04-30T13:49:22.705Z</time></trkpt><trkpt lat="40.5755047" lon="8.3612976"><ele>20.333333333333332</ele><time>2026-04-30T13:49:23.706Z</time></trkpt><trkpt lat="40.5754473" lon="8.361017"><ele>19.0</ele><time>2026-04-30T13:49:24.705Z</time></trkpt><trkpt lat="40.5753902" lon="8.360739"><ele>20.0</ele><time>2026-04-30T13:49:25.704Z</time></trkpt><trkpt lat="40.5753336" lon="8.3604562"><ele>21.0</ele><time>2026-04-30T13:49:26.706Z</time></trkpt><trkpt lat="40.5752771" lon="8.3601718"><ele>22.0</ele><time>2026-04-30T13:49:27.705Z</time></trkpt><trkpt lat="40.5752224" lon="8.3598892"><ele>22.333333333333332</ele><time>2026-04-30T13:49:28.705Z</time></trkpt><trkpt lat="40.5751663" lon="8.3596042"><ele>22.666666666666668</ele><time>2026-04-30T13:49:29.704Z</time></trkpt><trkpt lat="40.5751098" lon="8.3593218"><ele>23.0</ele><time>2026-04-30T13:49:30.705Z</time></trkpt><trkpt lat="40.5750537" lon="8.3590384"><ele>22.333333333333336</ele><time>2026-04-30T13:49:31.706Z</time></trkpt><trkpt lat="40.5749954" lon="8.3587567"><ele>21.666666666666668</ele><time>2026-04-30T13:49:32.704Z</time></trkpt><trkpt lat="40.574938" lon="8.3584717"><ele>21.0</ele><time>2026-04-30T13:49:33.706Z</time></trkpt><trkpt lat="40.5748798" lon="8.3581895"><ele>20.333333333333332</ele><time>2026-04-30T13:49:34.706Z</time></trkpt><trkpt lat="40.5748199" lon="8.35791"><ele>19.666666666666664</ele><time>2026-04-30T13:49:35.704Z</time></trkpt><trkpt lat="40.574764" lon="8.3576314"><ele>19.0</ele><time>2026-04-30T13:49:36.706Z</time></trkpt><trkpt lat="40.5747077" lon="8.3573553"><ele>19.0</ele><time>2026-04-30T13:49:37.706Z</time></trkpt><trkpt lat="40.5746545" lon="8.3570895"><ele>19.0</ele><time>2026-04-30T13:49:38.706Z</time></trkpt><trkpt lat="40.5746" lon="8.3568273"><ele>19.0</ele><time>2026-04-30T13:49:39.706Z</time></trkpt><trkpt lat="40.5745434" lon="8.356566"><ele>20.666666666666664</ele><time>2026-04-30T13:49:40.706Z</time></trkpt><trkpt lat="40.5744832" lon="8.3563036"><ele>22.333333333333332</ele><time>2026-04-30T13:49:41.706Z</time></trkpt><trkpt lat="40.5744166" lon="8.3560463"><ele>24.0</ele><time>2026-04-30T13:49:42.706Z</time></trkpt><trkpt lat="40.574347" lon="8.3557861"><ele>23.0</ele><time>2026-04-30T13:49:43.704Z</time></trkpt><trkpt lat="40.5742766" lon="8.3555282"><ele>22.0</ele><time>2026-04-30T13:49:44.706Z</time></trkpt><trkpt lat="40.5742075" lon="8.3552689"><ele>21.0</ele><time>2026-04-30T13:49:45.706Z</time></trkpt><trkpt lat="40.5741383" lon="8.3550109"><ele>21.0</ele><time>2026-04-30T13:49:46.705Z</time></trkpt><trkpt lat="40.5740704" lon="8.3547556"><ele>21.0</ele><time>2026-04-30T13:49:47.706Z</time></trkpt><trkpt lat="40.5740026" lon="8.3545015"><ele>21.0</ele><time>2026-04-30T13:49:48.706Z</time></trkpt><trkpt lat="40.5739332" lon="8.3542492"><ele>21.0</ele><time>2026-04-30T13:49:49.706Z</time></trkpt><trkpt lat="40.5738633" lon="8.3539976"><ele>21.0</ele><time>2026-04-30T13:49:50.706Z</time></trkpt><trkpt lat="40.5737973" lon="8.3537461"><ele>21.0</ele><time>2026-04-30T13:49:51.705Z</time></trkpt><trkpt lat="40.5737328" lon="8.3534982"><ele>22.0</ele><time>2026-04-30T13:49:52.703Z</time></trkpt><trkpt lat="40.5736678" lon="8.3532507"><ele>23.0</ele><time>2026-04-30T13:49:53.705Z</time></trkpt><trkpt lat="40.5736008" lon="8.3530095"><ele>24.0</ele><time>2026-04-30T13:49:54.705Z</time></trkpt><trkpt lat="40.573536" lon="8.3527634"><ele>24.666666666666664</ele><time>2026-04-30T13:49:55.706Z</time></trkpt><trkpt lat="40.5734693" lon="8.3525154"><ele>25.333333333333332</ele><time>2026-04-30T13:49:56.706Z</time></trkpt><trkpt lat="40.5734024" lon="8.3522639"><ele>26.0</ele><time>2026-04-30T13:49:57.706Z</time></trkpt><trkpt lat="40.5733355" lon="8.3520081"><ele>28.333333333333332</ele><time>2026-04-30T13:49:58.706Z</time></trkpt><trkpt lat="40.5732694" lon="8.3517501"><ele>30.666666666666664</ele><time>2026-04-30T13:49:59.706Z</time></trkpt><trkpt lat="40.5732028" lon="8.3514953"><ele>33.0</ele><time>2026-04-30T13:50:00.705Z</time></trkpt><trkpt lat="40.5731333" lon="8.3512381"><ele>34.666666666666664</ele><time>2026-04-30T13:50:01.702Z</time></trkpt><trkpt lat="40.5730631" lon="8.350982"><ele>36.33333333333333</ele><time>2026-04-30T13:50:02.706Z</time></trkpt><trkpt lat="40.572998" lon="8.3507217"><ele>38.0</ele><time>2026-04-30T13:50:03.705Z</time></trkpt><trkpt lat="40.5729391" lon="8.3504558"><ele>38.0</ele><time>2026-04-30T13:50:04.706Z</time></trkpt><trkpt lat="40.5728879" lon="8.3501822"><ele>38.0</ele><time>2026-04-30T13:50:05.704Z</time></trkpt><trkpt lat="40.5728495" lon="8.3499089"><ele>38.0</ele><time>2026-04-30T13:50:06.706Z</time></trkpt><trkpt lat="40.5728217" lon="8.349652"><ele>38.0</ele><time>2026-04-30T13:50:07.706Z</time></trkpt><trkpt lat="40.5728" lon="8.3494072"><ele>38.0</ele><time>2026-04-30T13:50:08.705Z</time></trkpt><trkpt lat="40.5727821" lon="8.349163"><ele>38.0</ele><time>2026-04-30T13:50:09.705Z</time></trkpt><trkpt lat="40.5727645" lon="8.348918"><ele>38.0</ele><time>2026-04-30T13:50:10.705Z</time></trkpt><trkpt lat="40.5727458" lon="8.3486841"><ele>38.0</ele><time>2026-04-30T13:50:11.705Z</time></trkpt><trkpt lat="40.5727232" lon="8.3484508"><ele>38.0</ele><time>2026-04-30T13:50:12.705Z</time></trkpt><trkpt lat="40.5726877" lon="8.3482135"><ele>37.666666666666664</ele><time>2026-04-30T13:50:13.706Z</time></trkpt><trkpt lat="40.5726424" lon="8.3479686"><ele>37.333333333333336</ele><time>2026-04-30T13:50:14.706Z</time></trkpt><trkpt lat="40.5725847" lon="8.3477243"><ele>37.0</ele><time>2026-04-30T13:50:15.706Z</time></trkpt><trkpt lat="40.5725152" lon="8.3474812"><ele>37.0</ele><time>2026-04-30T13:50:16.706Z</time></trkpt><trkpt lat="40.5724452" lon="8.3472387"><ele>37.0</ele><time>2026-04-30T13:50:17.706Z</time></trkpt><trkpt lat="40.5723736" lon="8.3469971"><ele>37.0</ele><time>2026-04-30T13:50:18.705Z</time></trkpt><trkpt lat="40.5723017" lon="8.3467536"><ele>37.333333333333336</ele><time>2026-04-30T13:50:19.705Z</time></trkpt><trkpt lat="40.57223" lon="8.3465119"><ele>37.666666666666664</ele><time>2026-04-30T13:50:20.706Z</time></trkpt><trkpt lat="40.5721614" lon="8.3462803"><ele>38.0</ele><time>2026-04-30T13:50:21.706Z</time></trkpt><trkpt lat="40.5720954" lon="8.3460569"><ele>38.33333333333333</ele><time>2026-04-30T13:50:22.706Z</time></trkpt><trkpt lat="40.5720296" lon="8.3458403"><ele>38.666666666666664</ele><time>2026-04-30T13:50:23.706Z</time></trkpt><trkpt lat="40.5719628" lon="8.3456207"><ele>39.0</ele><time>2026-04-30T13:50:24.706Z</time></trkpt><trkpt lat="40.5718964" lon="8.345402"><ele>38.0</ele><time>2026-04-30T13:50:25.705Z</time></trkpt><trkpt lat="40.5718342" lon="8.3451961"><ele>37.0</ele><time>2026-04-30T13:50:26.705Z</time></trkpt><trkpt lat="40.5717747" lon="8.3449998"><ele>36.0</ele><time>2026-04-30T13:50:27.706Z</time></trkpt><trkpt lat="40.5717204" lon="8.3448125"><ele>35.75</ele><time>2026-04-30T13:50:28.705Z</time></trkpt><trkpt lat="40.5716666" lon="8.344636"><ele>35.5</ele><time>2026-04-30T13:50:29.706Z</time></trkpt><trkpt lat="40.571613" lon="8.3444643"><ele>35.25</ele><time>2026-04-30T13:50:30.706Z</time></trkpt><trkpt lat="40.5715597" lon="8.3442937"><ele>35.0</ele><time>2026-04-30T13:50:31.706Z</time></trkpt><trkpt lat="40.5715079" lon="8.3441292"><ele>35.0</ele><time>2026-04-30T13:50:32.706Z</time></trkpt><trkpt lat="40.5714565" lon="8.3439602"><ele>35.0</ele><time>2026-04-30T13:50:33.706Z</time></trkpt><trkpt lat="40.5714027" lon="8.3437858"><ele>35.0</ele><time>2026-04-30T13:50:34.706Z</time></trkpt><trkpt lat="40.5713481" lon="8.3436038"><ele>35.0</ele><time>2026-04-30T13:50:35.706Z</time></trkpt><trkpt lat="40.5712916" lon="8.343414"><ele>34.33333333333333</ele><time>2026-04-30T13:50:36.706Z</time></trkpt><trkpt lat="40.5712324" lon="8.3432226"><ele>33.666666666666664</ele><time>2026-04-30T13:50:37.706Z</time></trkpt><trkpt lat="40.5711721" lon="8.3430285"><ele>33.0</ele><time>2026-04-30T13:50:38.706Z</time></trkpt><trkpt lat="40.5711159" lon="8.3428379"><ele>32.75</ele><time>2026-04-30T13:50:39.706Z</time></trkpt><trkpt lat="40.5710626" lon="8.3426554"><ele>32.5</ele><time>2026-04-30T13:50:40.706Z</time></trkpt><trkpt lat="40.5710124" lon="8.342482"><ele>32.25</ele><time>2026-04-30T13:50:41.705Z</time></trkpt><trkpt lat="40.5709617" lon="8.3423139"><ele>32.0</ele><time>2026-04-30T13:50:42.706Z</time></trkpt><trkpt lat="40.5709083" lon="8.3421406"><ele>32.0</ele><time>2026-04-30T13:50:43.706Z</time></trkpt><trkpt lat="40.570854" lon="8.3419603"><ele>32.0</ele><time>2026-04-30T13:50:44.704Z</time></trkpt><trkpt lat="40.5707981" lon="8.341774"><ele>32.0</ele><time>2026-04-30T13:50:45.706Z</time></trkpt><trkpt lat="40.5707405" lon="8.3415805"><ele>32.0</ele><time>2026-04-30T13:50:46.705Z</time></trkpt><trkpt lat="40.5706837" lon="8.3413817"><ele>32.0</ele><time>2026-04-30T13:50:47.706Z</time></trkpt><trkpt lat="40.5706272" lon="8.3411797"><ele>32.0</ele><time>2026-04-30T13:50:48.705Z</time></trkpt><trkpt lat="40.5705712" lon="8.3409898"><ele>32.0</ele><time>2026-04-30T13:50:49.706Z</time></trkpt><trkpt lat="40.5705125" lon="8.3407929"><ele>32.0</ele><time>2026-04-30T13:50:50.705Z</time></trkpt><trkpt lat="40.5704521" lon="8.3405908"><ele>32.0</ele><time>2026-04-30T13:50:51.706Z</time></trkpt><trkpt lat="40.5703845" lon="8.3403872"><ele>31.666666666666664</ele><time>2026-04-30T13:50:52.706Z</time></trkpt><trkpt lat="40.5703129" lon="8.3401869"><ele>31.333333333333336</ele><time>2026-04-30T13:50:53.706Z</time></trkpt><trkpt lat="40.5702398" lon="8.340003"><ele>31.0</ele><time>2026-04-30T13:50:54.706Z</time></trkpt><trkpt lat="40.5701645" lon="8.3398297"><ele>30.333333333333336</ele><time>2026-04-30T13:50:55.706Z</time></trkpt><trkpt lat="40.5700825" lon="8.3396594"><ele>29.666666666666664</ele><time>2026-04-30T13:50:56.702Z</time></trkpt><trkpt lat="40.57" lon="8.3394961"><ele>29.0</ele><time>2026-04-30T13:50:57.706Z</time></trkpt><trkpt lat="40.5699122" lon="8.3393358"><ele>29.0</ele><time>2026-04-30T13:50:58.706Z</time></trkpt><trkpt lat="40.5698292" lon="8.3391835"><ele>29.0</ele><time>2026-04-30T13:50:59.705Z</time></trkpt><trkpt lat="40.569749" lon="8.3390379"><ele>29.0</ele><time>2026-04-30T13:51:00.706Z</time></trkpt><trkpt lat="40.569669" lon="8.3388992"><ele>29.0</ele><time>2026-04-30T13:51:01.706Z</time></trkpt><trkpt lat="40.5695895" lon="8.3387587"><ele>28.75</ele><time>2026-04-30T13:51:02.705Z</time></trkpt><trkpt lat="40.5695083" lon="8.3386185"><ele>28.5</ele><time>2026-04-30T13:51:03.706Z</time></trkpt><trkpt lat="40.5694247" lon="8.3384759"><ele>28.25</ele><time>2026-04-30T13:51:04.706Z</time></trkpt><trkpt lat="40.5693385" lon="8.3383269"><ele>28.0</ele><time>2026-04-30T13:51:05.706Z</time></trkpt><trkpt lat="40.5692486" lon="8.3381771"><ele>27.666666666666668</ele><time>2026-04-30T13:51:06.706Z</time></trkpt><trkpt lat="40.5691576" lon="8.3380218"><ele>27.333333333333336</ele><time>2026-04-30T13:51:07.706Z</time></trkpt><trkpt lat="40.5690637" lon="8.3378636"><ele>27.0</ele><time>2026-04-30T13:51:08.706Z</time></trkpt><trkpt lat="40.5689694" lon="8.3376995"><ele>27.0</ele><time>2026-04-30T13:51:09.706Z</time></trkpt><trkpt lat="40.5688754" lon="8.3375414"><ele>27.0</ele><time>2026-04-30T13:51:10.706Z</time></trkpt><trkpt lat="40.5687798" lon="8.3373796"><ele>27.0</ele><time>2026-04-30T13:51:11.706Z</time></trkpt><trkpt lat="40.5686893" lon="8.337225"><ele>26.25</ele><time>2026-04-30T13:51:12.706Z</time></trkpt><trkpt lat="40.5686019" lon="8.3370782"><ele>25.5</ele><time>2026-04-30T13:51:13.704Z</time></trkpt><trkpt lat="40.5685188" lon="8.336936"><ele>24.75</ele><time>2026-04-30T13:51:14.705Z</time></trkpt><trkpt lat="40.5684398" lon="8.3367956"><ele>24.0</ele><time>2026-04-30T13:51:15.706Z</time></trkpt><trkpt lat="40.5683634" lon="8.3366574"><ele>24.0</ele><time>2026-04-30T13:51:16.704Z</time></trkpt><trkpt lat="40.5682934" lon="8.3365196"><ele>24.0</ele><time>2026-04-30T13:51:17.705Z</time></trkpt><trkpt lat="40.5682305" lon="8.3363895"><ele>24.0</ele><time>2026-04-30T13:51:18.706Z</time></trkpt><trkpt lat="40.5681798" lon="8.3362872"><ele>24.0</ele><time>2026-04-30T13:51:19.706Z</time></trkpt><trkpt lat="40.5681409" lon="8.3362016"><ele>24.0</ele><time>2026-04-30T13:51:20.706Z</time></trkpt><trkpt lat="40.5681" lon="8.3361083"><ele>24.0</ele><time>2026-04-30T13:51:21.706Z</time></trkpt><trkpt lat="40.568055" lon="8.3360071"><ele>24.0</ele><time>2026-04-30T13:51:22.704Z</time></trkpt><trkpt lat="40.5680064" lon="8.3358976"><ele>24.0</ele><time>2026-04-30T13:51:23.706Z</time></trkpt><trkpt lat="40.5679519" lon="8.335783"><ele>24.0</ele><time>2026-04-30T13:51:24.706Z</time></trkpt><trkpt lat="40.5678989" lon="8.3356648"><ele>24.0</ele><time>2026-04-30T13:51:25.706Z</time></trkpt><trkpt lat="40.5678482" lon="8.3355459"><ele>23.75</ele><time>2026-04-30T13:51:26.704Z</time></trkpt><trkpt lat="40.5677954" lon="8.335422"><ele>23.5</ele><time>2026-04-30T13:51:27.705Z</time></trkpt><trkpt lat="40.567735" lon="8.3352912"><ele>23.25</ele><time>2026-04-30T13:51:28.704Z</time></trkpt><trkpt lat="40.5676731" lon="8.3351525"><ele>23.0</ele><time>2026-04-30T13:51:29.703Z</time></trkpt><trkpt lat="40.5676072" lon="8.3350063"><ele>23.0</ele><time>2026-04-30T13:51:30.705Z</time></trkpt><trkpt lat="40.5675366" lon="8.334858"><ele>23.0</ele><time>2026-04-30T13:51:31.706Z</time></trkpt><trkpt lat="40.5674647" lon="8.3347034"><ele>23.0</ele><time>2026-04-30T13:51:32.705Z</time></trkpt><trkpt lat="40.5673917" lon="8.3345437"><ele>23.0</ele><time>2026-04-30T13:51:33.706Z</time></trkpt><trkpt lat="40.5673185" lon="8.3343792"><ele>22.75</ele><time>2026-04-30T13:51:34.706Z</time></trkpt><trkpt lat="40.5672424" lon="8.3342097"><ele>22.5</ele><time>2026-04-30T13:51:35.705Z</time></trkpt><trkpt lat="40.5671652" lon="8.3340391"><ele>22.25</ele><time>2026-04-30T13:51:36.706Z</time></trkpt><trkpt lat="40.5670903" lon="8.3338694"><ele>22.0</ele><time>2026-04-30T13:51:37.704Z</time></trkpt><trkpt lat="40.5670197" lon="8.3337097"><ele>21.75</ele><time>2026-04-30T13:51:38.705Z</time></trkpt><trkpt lat="40.56695" lon="8.3335522"><ele>21.5</ele><time>2026-04-30T13:51:39.705Z</time></trkpt><trkpt lat="40.5668794" lon="8.3333942"><ele>21.25</ele><time>2026-04-30T13:51:40.705Z</time></trkpt><trkpt lat="40.5668092" lon="8.3332347"><ele>21.0</ele><time>2026-04-30T13:51:41.706Z</time></trkpt><trkpt lat="40.5667403" lon="8.333075"><ele>20.5</ele><time>2026-04-30T13:51:42.706Z</time></trkpt><trkpt lat="40.5666693" lon="8.3329164"><ele>20.0</ele><time>2026-04-30T13:51:43.706Z</time></trkpt><trkpt lat="40.5665981" lon="8.3327585"><ele>19.5</ele><time>2026-04-30T13:51:44.706Z</time></trkpt><trkpt lat="40.566529" lon="8.3326032"><ele>19.0</ele><time>2026-04-30T13:51:45.706Z</time></trkpt><trkpt lat="40.5664635" lon="8.332455"><ele>19.0</ele><time>2026-04-30T13:51:46.706Z</time></trkpt><trkpt lat="40.566402" lon="8.3323204"><ele>19.0</ele><time>2026-04-30T13:51:47.706Z</time></trkpt><trkpt lat="40.5663444" lon="8.332201"><ele>19.0</ele><time>2026-04-30T13:51:48.705Z</time></trkpt><trkpt lat="40.5662913" lon="8.3320851"><ele>19.0</ele><time>2026-04-30T13:51:49.706Z</time></trkpt><trkpt lat="40.5662427" lon="8.3319809"><ele>19.0</ele><time>2026-04-30T13:51:50.705Z</time></trkpt><trkpt lat="40.5661973" lon="8.3318842"><ele>19.166666666666664</ele><time>2026-04-30T13:51:51.704Z</time></trkpt><trkpt lat="40.5661514" lon="8.3317984"><ele>19.333333333333332</ele><time>2026-04-30T13:51:52.706Z</time></trkpt><trkpt lat="40.5661131" lon="8.3317157"><ele>19.5</ele><time>2026-04-30T13:51:53.705Z</time></trkpt><trkpt lat="40.5660761" lon="8.331638"><ele>19.666666666666668</ele><time>2026-04-30T13:51:54.705Z</time></trkpt><trkpt lat="40.5660407" lon="8.3315653"><ele>19.833333333333336</ele><time>2026-04-30T13:51:55.706Z</time></trkpt><trkpt lat="40.5659857" lon="8.331447"><ele>20.0</ele><time>2026-04-30T13:51:57.706Z</time></trkpt><trkpt lat="40.5659568" lon="8.3313726"><ele>20.0</ele><time>2026-04-30T13:51:59.706Z</time></trkpt><trkpt lat="40.5659365" lon="8.3312664"><ele>20.0</ele><time>2026-04-30T13:52:07.705Z</time></trkpt><trkpt lat="40.5659297" lon="8.3311541"><ele>20.0</ele><time>2026-04-30T13:52:09.706Z</time></trkpt><trkpt lat="40.5659373" lon="8.331068"><ele>20.0</ele><time>2026-04-30T13:52:10.706Z</time></trkpt><trkpt lat="40.5659388" lon="8.330974"><ele>20.0</ele><time>2026-04-30T13:52:11.706Z</time></trkpt><trkpt lat="40.5659253" lon="8.3308856"><ele>20.0</ele><time>2026-04-30T13:52:12.706Z</time></trkpt><trkpt lat="40.5658897" lon="8.3308042"><ele>20.0</ele><time>2026-04-30T13:52:13.703Z</time></trkpt><trkpt lat="40.5658338" lon="8.3307354"><ele>20.0</ele><time>2026-04-30T13:52:14.705Z</time></trkpt><trkpt lat="40.565764" lon="8.3306746"><ele>20.0</ele><time>2026-04-30T13:52:15.704Z</time></trkpt><trkpt lat="40.5656888" lon="8.3306148"><ele>20.0</ele><time>2026-04-30T13:52:16.704Z</time></trkpt><trkpt lat="40.5656238" lon="8.3305417"><ele>20.0</ele><time>2026-04-30T13:52:17.706Z</time></trkpt><trkpt lat="40.5655609" lon="8.3304541"><ele>20.0</ele><time>2026-04-30T13:52:18.705Z</time></trkpt><trkpt lat="40.5654962" lon="8.3303506"><ele>19.75</ele><time>2026-04-30T13:52:19.706Z</time></trkpt><trkpt lat="40.5654325" lon="8.3302267"><ele>19.5</ele><time>2026-04-30T13:52:20.706Z</time></trkpt><trkpt lat="40.5653706" lon="8.3300901"><ele>19.25</ele><time>2026-04-30T13:52:21.706Z</time></trkpt><trkpt lat="40.5653101" lon="8.3299559"><ele>19.0</ele><time>2026-04-30T13:52:22.706Z</time></trkpt><trkpt lat="40.5652488" lon="8.3298213"><ele>18.5</ele><time>2026-04-30T13:52:23.706Z</time></trkpt><trkpt lat="40.5651866" lon="8.3296858"><ele>18.0</ele><time>2026-04-30T13:52:24.705Z</time></trkpt><trkpt lat="40.5651242" lon="8.3295501"><ele>17.5</ele><time>2026-04-30T13:52:25.706Z</time></trkpt><trkpt lat="40.5650613" lon="8.3294138"><ele>17.0</ele><time>2026-04-30T13:52:26.706Z</time></trkpt><trkpt lat="40.5649973" lon="8.329272"><ele>17.0</ele><time>2026-04-30T13:52:27.706Z</time></trkpt><trkpt lat="40.5649321" lon="8.3291331"><ele>17.0</ele><time>2026-04-30T13:52:28.706Z</time></trkpt><trkpt lat="40.5648655" lon="8.3289898"><ele>17.0</ele><time>2026-04-30T13:52:29.705Z</time></trkpt><trkpt lat="40.5648032" lon="8.3288485"><ele>17.0</ele><time>2026-04-30T13:52:30.705Z</time></trkpt><trkpt lat="40.564743" lon="8.3287158"><ele>17.0</ele><time>2026-04-30T13:52:31.705Z</time></trkpt><trkpt lat="40.5646868" lon="8.3285877"><ele>17.0</ele><time>2026-04-30T13:52:32.706Z</time></trkpt><trkpt lat="40.5646298" lon="8.3284648"><ele>17.0</ele><time>2026-04-30T13:52:33.706Z</time></trkpt><trkpt lat="40.5645853" lon="8.3283493"><ele>17.0</ele><time>2026-04-30T13:52:34.705Z</time></trkpt><trkpt lat="40.5645441" lon="8.3282553"><ele>17.0</ele><time>2026-04-30T13:52:35.706Z</time></trkpt><trkpt lat="40.5645099" lon="8.3281705"><ele>16.833333333333336</ele><time>2026-04-30T13:52:36.704Z</time></trkpt><trkpt lat="40.564479" lon="8.3280865"><ele>16.666666666666668</ele><time>2026-04-30T13:52:37.702Z</time></trkpt><trkpt lat="40.5644205" lon="8.3279627"><ele>16.5</ele><time>2026-04-30T13:52:39.706Z</time></trkpt><trkpt lat="40.5643664" lon="8.3278799"><ele>16.333333333333332</ele><time>2026-04-30T13:52:49.706Z</time></trkpt><trkpt lat="40.5643181" lon="8.3277697"><ele>16.166666666666664</ele><time>2026-04-30T13:52:51.706Z</time></trkpt><trkpt lat="40.5642906" lon="8.3276943"><ele>16.0</ele><time>2026-04-30T13:52:52.705Z</time></trkpt><trkpt lat="40.5642391" lon="8.3275557"><ele>15.833333333333332</ele><time>2026-04-30T13:52:54.704Z</time></trkpt><trkpt lat="40.5641941" lon="8.3274535"><ele>15.666666666666666</ele><time>2026-04-30T13:52:56.706Z</time></trkpt><trkpt lat="40.5641596" lon="8.3273706"><ele>15.5</ele><time>2026-04-30T13:52:59.704Z</time></trkpt><trkpt lat="40.5641213" lon="8.3272743"><ele>15.333333333333332</ele><time>2026-04-30T13:53:02.705Z</time></trkpt><trkpt lat="40.5640762" lon="8.3271803"><ele>15.166666666666666</ele><time>2026-04-30T13:53:04.705Z</time></trkpt><trkpt lat="40.5640328" lon="8.3270867"><ele>15.0</ele><time>2026-04-30T13:53:06.706Z</time></trkpt><trkpt lat="40.5639937" lon="8.3270036"><ele>15.0</ele><time>2026-04-30T13:53:08.706Z</time></trkpt><trkpt lat="40.5639438" lon="8.3269079"><ele>15.0</ele><time>2026-04-30T13:53:11.7Z</time></trkpt><trkpt lat="40.5638908" lon="8.3267878"><ele>15.0</ele><time>2026-04-30T13:53:14.706Z</time></trkpt><trkpt lat="40.5638229" lon="8.3266857"><ele>15.0</ele><time>2026-04-30T13:53:16.705Z</time></trkpt><trkpt lat="40.5637316" lon="8.3266857"><ele>15.0</ele><time>2026-04-30T13:53:18.705Z</time></trkpt><trkpt lat="40.5636556" lon="8.3267886"><ele>15.0</ele><time>2026-04-30T13:53:20.706Z</time></trkpt><trkpt lat="40.5636088" lon="8.326863"><ele>15.0</ele><time>2026-04-30T13:53:21.703Z</time></trkpt><trkpt lat="40.5635502" lon="8.3269322"><ele>15.0</ele><time>2026-04-30T13:53:22.705Z</time></trkpt><trkpt lat="40.5634793" lon="8.3269932"><ele>15.0</ele><time>2026-04-30T13:53:23.705Z</time></trkpt><trkpt lat="40.5634019" lon="8.3270393"><ele>15.0</ele><time>2026-04-30T13:53:24.706Z</time></trkpt><trkpt lat="40.563314" lon="8.3270769"><ele>15.0</ele><time>2026-04-30T13:53:25.704Z</time></trkpt><trkpt lat="40.5632243" lon="8.3271141"><ele>15.0</ele><time>2026-04-30T13:53:26.706Z</time></trkpt><trkpt lat="40.5631398" lon="8.3271509"><ele>15.0</ele><time>2026-04-30T13:53:27.704Z</time></trkpt><trkpt lat="40.5630619" lon="8.3271863"><ele>15.0</ele><time>2026-04-30T13:53:28.703Z</time></trkpt><trkpt lat="40.5629896" lon="8.3272179"><ele>15.0</ele><time>2026-04-30T13:53:29.706Z</time></trkpt><trkpt lat="40.5629141" lon="8.3272487"><ele>15.0</ele><time>2026-04-30T13:53:30.706Z</time></trkpt><trkpt lat="40.5628417" lon="8.3272756"><ele>15.0</ele><time>2026-04-30T13:53:31.705Z</time></trkpt><trkpt lat="40.562778" lon="8.3272994"><ele>15.8</ele><time>2026-04-30T13:53:32.705Z</time></trkpt><trkpt lat="40.5626645" lon="8.3273466"><ele>16.6</ele><time>2026-04-30T13:53:34.705Z</time></trkpt><trkpt lat="40.5625494" lon="8.3273971"><ele>17.4</ele><time>2026-04-30T13:53:36.706Z</time></trkpt><trkpt lat="40.5624466" lon="8.3274372"><ele>18.2</ele><time>2026-04-30T13:53:38.704Z</time></trkpt><trkpt lat="40.5623749" lon="8.3274613"><ele>19.0</ele><time>2026-04-30T13:53:40.705Z</time></trkpt><trkpt lat="40.5623065" lon="8.3274763"><ele>19.0</ele><time>2026-04-30T13:53:43.706Z</time></trkpt><trkpt lat="40.5622043" lon="8.3274838"><ele>19.0</ele><time>2026-04-30T13:53:50.705Z</time></trkpt><trkpt lat="40.5621378" lon="8.3274175"><ele>19.0</ele><time>2026-04-30T13:53:52.702Z</time></trkpt><trkpt lat="40.5620805" lon="8.3273146"><ele>19.0</ele><time>2026-04-30T13:53:54.705Z</time></trkpt><trkpt lat="40.5620258" lon="8.3271951"><ele>19.0</ele><time>2026-04-30T13:53:56.702Z</time></trkpt><trkpt lat="40.5619645" lon="8.327059"><ele>19.4</ele><time>2026-04-30T13:53:58.704Z</time></trkpt><trkpt lat="40.5618996" lon="8.326916"><ele>19.799999999999997</ele><time>2026-04-30T13:54:00.706Z</time></trkpt><trkpt lat="40.5618378" lon="8.3267833"><ele>20.200000000000003</ele><time>2026-04-30T13:54:02.704Z</time></trkpt><trkpt lat="40.5618065" lon="8.3267096"><ele>20.6</ele><time>2026-04-30T13:54:03.706Z</time></trkpt><trkpt lat="40.5617446" lon="8.3265725"><ele>21.0</ele><time>2026-04-30T13:54:05.702Z</time></trkpt><trkpt lat="40.5616984" lon="8.3264645"><ele>21.0</ele><time>2026-04-30T13:54:07.706Z</time></trkpt><trkpt lat="40.56166" lon="8.3263947"><ele>21.0</ele><time>2026-04-30T13:54:09.706Z</time></trkpt><trkpt lat="40.5616269" lon="8.3263234"><ele>21.0</ele><time>2026-04-30T13:54:11.705Z</time></trkpt><trkpt lat="40.5615952" lon="8.3262454"><ele>21.0</ele><time>2026-04-30T13:54:13.706Z</time></trkpt><trkpt lat="40.5615574" lon="8.3261677"><ele>21.0</ele><time>2026-04-30T13:54:15.705Z</time></trkpt><trkpt lat="40.5615147" lon="8.3260851"><ele>21.0</ele><time>2026-04-30T13:54:17.704Z</time></trkpt><trkpt lat="40.5614815" lon="8.3260049"><ele>21.0</ele><time>2026-04-30T13:54:19.705Z</time></trkpt><trkpt lat="40.5614479" lon="8.3259328"><ele>21.0</ele><time>2026-04-30T13:54:21.705Z</time></trkpt><trkpt lat="40.5614085" lon="8.3258432"><ele>21.0</ele><time>2026-04-30T13:54:31.703Z</time></trkpt><trkpt lat="40.561365" lon="8.3257545"><ele>21.0</ele><time>2026-04-30T13:54:33.704Z</time></trkpt><trkpt lat="40.5613279" lon="8.3256805"><ele>21.0</ele><time>2026-04-30T13:54:35.705Z</time></trkpt><trkpt lat="40.561285" lon="8.3255847"><ele>21.0</ele><time>2026-04-30T13:54:38.705Z</time></trkpt><trkpt lat="40.5612476" lon="8.3255046"><ele>21.0</ele><time>2026-04-30T13:54:40.705Z</time></trkpt><trkpt lat="40.5611894" lon="8.3253814"><ele>21.5</ele><time>2026-04-30T13:54:42.706Z</time></trkpt><trkpt lat="40.561151" lon="8.3253002"><ele>22.0</ele><time>2026-04-30T13:54:43.705Z</time></trkpt><trkpt lat="40.5611062" lon="8.3252077"><ele>22.5</ele><time>2026-04-30T13:54:44.706Z</time></trkpt><trkpt lat="40.5610562" lon="8.3251022"><ele>23.0</ele><time>2026-04-30T13:54:45.705Z</time></trkpt><trkpt lat="40.5610047" lon="8.3249933"><ele>23.5</ele><time>2026-04-30T13:54:46.705Z</time></trkpt><trkpt lat="40.5609516" lon="8.324881"><ele>24.0</ele><time>2026-04-30T13:54:47.706Z</time></trkpt><trkpt lat="40.5609019" lon="8.3247714"><ele>23.799999999999997</ele><time>2026-04-30T13:54:48.705Z</time></trkpt><trkpt lat="40.5608489" lon="8.3246549"><ele>23.599999999999998</ele><time>2026-04-30T13:54:49.704Z</time></trkpt><trkpt lat="40.5607997" lon="8.3245483"><ele>23.4</ele><time>2026-04-30T13:54:50.706Z</time></trkpt><trkpt lat="40.5607526" lon="8.3244411"><ele>23.2</ele><time>2026-04-30T13:54:51.706Z</time></trkpt><trkpt lat="40.5607049" lon="8.3243396"><ele>23.0</ele><time>2026-04-30T13:54:52.706Z</time></trkpt><trkpt lat="40.5606639" lon="8.3242449"><ele>23.0</ele><time>2026-04-30T13:54:53.706Z</time></trkpt><trkpt lat="40.5606268" lon="8.3241582"><ele>23.0</ele><time>2026-04-30T13:54:54.703Z</time></trkpt><trkpt lat="40.5605918" lon="8.3240755"><ele>23.0</ele><time>2026-04-30T13:54:55.704Z</time></trkpt><trkpt lat="40.5605584" lon="8.3239987"><ele>23.0</ele><time>2026-04-30T13:54:56.706Z</time></trkpt><trkpt lat="40.5604974" lon="8.3238655"><ele>23.0</ele><time>2026-04-30T13:54:58.706Z</time></trkpt><trkpt lat="40.560428" lon="8.3237242"><ele>22.5</ele><time>2026-04-30T13:55:00.706Z</time></trkpt><trkpt lat="40.56039" lon="8.3236405"><ele>22.0</ele><time>2026-04-30T13:55:01.699Z</time></trkpt><trkpt lat="40.5603494" lon="8.3235514"><ele>21.5</ele><time>2026-04-30T13:55:02.705Z</time></trkpt><trkpt lat="40.5603099" lon="8.3234642"><ele>21.0</ele><time>2026-04-30T13:55:03.703Z</time></trkpt><trkpt lat="40.5602725" lon="8.3233816"><ele>20.5</ele><time>2026-04-30T13:55:04.705Z</time></trkpt><trkpt lat="40.5602378" lon="8.3233067"><ele>20.0</ele><time>2026-04-30T13:55:05.704Z</time></trkpt><trkpt lat="40.5601732" lon="8.3231693"><ele>20.0</ele><time>2026-04-30T13:55:07.704Z</time></trkpt><trkpt lat="40.5601418" lon="8.3230961"><ele>20.0</ele><time>2026-04-30T13:55:08.705Z</time></trkpt><trkpt lat="40.5601066" lon="8.3230142"><ele>20.0</ele><time>2026-04-30T13:55:09.705Z</time></trkpt><trkpt lat="40.5600685" lon="8.3229252"><ele>20.0</ele><time>2026-04-30T13:55:10.705Z</time></trkpt><trkpt lat="40.5600292" lon="8.3228316"><ele>20.0</ele><time>2026-04-30T13:55:11.703Z</time></trkpt><trkpt lat="40.5599872" lon="8.3227391"><ele>20.0</ele><time>2026-04-30T13:55:12.704Z</time></trkpt><trkpt lat="40.5599449" lon="8.3226526"><ele>19.833333333333336</ele><time>2026-04-30T13:55:13.706Z</time></trkpt><trkpt lat="40.5599075" lon="8.3225695"><ele>19.666666666666668</ele><time>2026-04-30T13:55:14.706Z</time></trkpt><trkpt lat="40.5598542" lon="8.3224547"><ele>19.5</ele><time>2026-04-30T13:55:16.706Z</time></trkpt><trkpt lat="40.559822" lon="8.3223777"><ele>19.333333333333332</ele><time>2026-04-30T13:55:19.704Z</time></trkpt><trkpt lat="40.5597721" lon="8.3223072"><ele>19.166666666666664</ele><time>2026-04-30T13:55:33.705Z</time></trkpt><trkpt lat="40.5597248" lon="8.3222068"><ele>19.0</ele><time>2026-04-30T13:55:35.704Z</time></trkpt><trkpt lat="40.5596867" lon="8.3221215"><ele>19.0</ele><time>2026-04-30T13:55:37.706Z</time></trkpt><trkpt lat="40.5596509" lon="8.3220434"><ele>19.0</ele><time>2026-04-30T13:55:39.706Z</time></trkpt><trkpt lat="40.5596059" lon="8.3219468"><ele>19.0</ele><time>2026-04-30T13:55:41.706Z</time></trkpt><trkpt lat="40.5595497" lon="8.3218157"><ele>19.0</ele><time>2026-04-30T13:55:43.704Z</time></trkpt><trkpt lat="40.5595151" lon="8.3217373"><ele>19.0</ele><time>2026-04-30T13:55:44.705Z</time></trkpt><trkpt lat="40.5594736" lon="8.3216454"><ele>19.0</ele><time>2026-04-30T13:55:45.704Z</time></trkpt><trkpt lat="40.5594276" lon="8.321548"><ele>19.0</ele><time>2026-04-30T13:55:46.704Z</time></trkpt><trkpt lat="40.5593861" lon="8.3214595"><ele>19.0</ele><time>2026-04-30T13:55:47.705Z</time></trkpt><trkpt lat="40.5593492" lon="8.3213846"><ele>19.0</ele><time>2026-04-30T13:55:48.706Z</time></trkpt><trkpt lat="40.5592982" lon="8.3212599"><ele>19.0</ele><time>2026-04-30T13:55:50.706Z</time></trkpt><trkpt lat="40.5592556" lon="8.3211612"><ele>19.0</ele><time>2026-04-30T13:55:52.703Z</time></trkpt><trkpt lat="40.5592046" lon="8.3210721"><ele>19.0</ele><time>2026-04-30T13:55:54.674Z</time></trkpt><trkpt lat="40.5591539" lon="8.3209563"><ele>19.0</ele><time>2026-04-30T13:55:56.675Z</time></trkpt><trkpt lat="40.559103" lon="8.3208359"><ele>19.0</ele><time>2026-04-30T13:55:58.684Z</time></trkpt><trkpt lat="40.5590444" lon="8.3207071"><ele>19.0</ele><time>2026-04-30T13:56:00.684Z</time></trkpt><trkpt lat="40.5589782" lon="8.3205667"><ele>19.0</ele><time>2026-04-30T13:56:02.683Z</time></trkpt><trkpt lat="40.5589418" lon="8.3204908"><ele>19.0</ele><time>2026-04-30T13:56:03.683Z</time></trkpt><trkpt lat="40.5589089" lon="8.3204176"><ele>19.0</ele><time>2026-04-30T13:56:04.684Z</time></trkpt><trkpt lat="40.558849" lon="8.3202909"><ele>19.0</ele><time>2026-04-30T13:56:06.683Z</time></trkpt><trkpt lat="40.5588104" lon="8.3202017"><ele>19.0</ele><time>2026-04-30T13:56:08.684Z</time></trkpt><trkpt lat="40.5587781" lon="8.3201238"><ele>19.0</ele><time>2026-04-30T13:56:10.684Z</time></trkpt><trkpt lat="40.5587214" lon="8.3200004"><ele>19.0</ele><time>2026-04-30T13:56:12.684Z</time></trkpt><trkpt lat="40.5586863" lon="8.3199251"><ele>19.0</ele><time>2026-04-30T13:56:13.683Z</time></trkpt><trkpt lat="40.5586493" lon="8.3198435"><ele>19.333333333333332</ele><time>2026-04-30T13:56:14.684Z</time></trkpt><trkpt lat="40.5586121" lon="8.319761"><ele>19.666666666666664</ele><time>2026-04-30T13:56:15.684Z</time></trkpt><trkpt lat="40.5585759" lon="8.3196826"><ele>20.0</ele><time>2026-04-30T13:56:16.683Z</time></trkpt><trkpt lat="40.5585423" lon="8.3196093"><ele>20.333333333333332</ele><time>2026-04-30T13:56:17.684Z</time></trkpt><trkpt lat="40.5584864" lon="8.3194837"><ele>20.666666666666668</ele><time>2026-04-30T13:56:19.684Z</time></trkpt><trkpt lat="40.5584521" lon="8.3194091"><ele>21.0</ele><time>2026-04-30T13:56:21.684Z</time></trkpt><trkpt lat="40.5584151" lon="8.3193373"><ele>21.0</ele><time>2026-04-30T13:56:51.683Z</time></trkpt><trkpt lat="40.5583654" lon="8.319231"><ele>21.0</ele><time>2026-04-30T13:56:54.683Z</time></trkpt><trkpt lat="40.5583169" lon="8.3191293"><ele>21.0</ele><time>2026-04-30T13:56:56.684Z</time></trkpt><trkpt lat="40.5582526" lon="8.3189979"><ele>21.0</ele><time>2026-04-30T13:56:58.684Z</time></trkpt><trkpt lat="40.5582157" lon="8.3189167"><ele>21.0</ele><time>2026-04-30T13:56:59.684Z</time></trkpt><trkpt lat="40.5581773" lon="8.3188311"><ele>20.666666666666668</ele><time>2026-04-30T13:57:00.684Z</time></trkpt><trkpt lat="40.5581379" lon="8.3187443"><ele>20.333333333333332</ele><time>2026-04-30T13:57:01.684Z</time></trkpt><trkpt lat="40.5580963" lon="8.3186511"><ele>20.0</ele><time>2026-04-30T13:57:02.684Z</time></trkpt><trkpt lat="40.558054" lon="8.3185553"><ele>19.666666666666664</ele><time>2026-04-30T13:57:03.683Z</time></trkpt><trkpt lat="40.5580125" lon="8.3184619"><ele>19.333333333333332</ele><time>2026-04-30T13:57:04.683Z</time></trkpt><trkpt lat="40.5579728" lon="8.3183736"><ele>19.0</ele><time>2026-04-30T13:57:05.684Z</time></trkpt><trkpt lat="40.557934" lon="8.318289"><ele>19.0</ele><time>2026-04-30T13:57:06.683Z</time></trkpt><trkpt lat="40.5578938" lon="8.3182018"><ele>19.0</ele><time>2026-04-30T13:57:07.684Z</time></trkpt><trkpt lat="40.5578541" lon="8.3181155"><ele>19.0</ele><time>2026-04-30T13:57:08.684Z</time></trkpt><trkpt lat="40.5578146" lon="8.3180305"><ele>19.0</ele><time>2026-04-30T13:57:09.683Z</time></trkpt><trkpt lat="40.5577737" lon="8.3179453"><ele>19.0</ele><time>2026-04-30T13:57:10.683Z</time></trkpt><trkpt lat="40.5577349" lon="8.3178638"><ele>19.0</ele><time>2026-04-30T13:57:11.683Z</time></trkpt><trkpt lat="40.5576987" lon="8.3177852"><ele>19.0</ele><time>2026-04-30T13:57:12.684Z</time></trkpt><trkpt lat="40.557664" lon="8.31771"><ele>19.0</ele><time>2026-04-30T13:57:13.683Z</time></trkpt><trkpt lat="40.5576306" lon="8.3176376"><ele>19.0</ele><time>2026-04-30T13:57:14.683Z</time></trkpt><trkpt lat="40.5575958" lon="8.3175639"><ele>19.0</ele><time>2026-04-30T13:57:15.684Z</time></trkpt><trkpt lat="40.557559" lon="8.3174883"><ele>19.0</ele><time>2026-04-30T13:57:16.683Z</time></trkpt><trkpt lat="40.5575226" lon="8.3174115"><ele>19.0</ele><time>2026-04-30T13:57:17.684Z</time></trkpt><trkpt lat="40.557489" lon="8.3173356"><ele>19.0</ele><time>2026-04-30T13:57:18.684Z</time></trkpt><trkpt lat="40.5574358" lon="8.3172143"><ele>19.0</ele><time>2026-04-30T13:57:20.684Z</time></trkpt><trkpt lat="40.5574018" lon="8.3171329"><ele>18.666666666666664</ele><time>2026-04-30T13:57:22.683Z</time></trkpt><trkpt lat="40.5573673" lon="8.3170536"><ele>18.333333333333332</ele><time>2026-04-30T13:57:26.684Z</time></trkpt><trkpt lat="40.5573232" lon="8.3169629"><ele>18.0</ele><time>2026-04-30T13:57:29.684Z</time></trkpt><trkpt lat="40.5572856" lon="8.3168912"><ele>17.666666666666668</ele><time>2026-04-30T13:57:31.683Z</time></trkpt><trkpt lat="40.5572325" lon="8.3167707"><ele>17.333333333333336</ele><time>2026-04-30T13:57:34.684Z</time></trkpt><trkpt lat="40.5571731" lon="8.3166367"><ele>17.0</ele><time>2026-04-30T13:57:36.684Z</time></trkpt><trkpt lat="40.557134" lon="8.3165533"><ele>17.0</ele><time>2026-04-30T13:57:37.683Z</time></trkpt><trkpt lat="40.5570954" lon="8.3164682"><ele>17.0</ele><time>2026-04-30T13:57:38.684Z</time></trkpt><trkpt lat="40.5570573" lon="8.3163844"><ele>17.0</ele><time>2026-04-30T13:57:39.684Z</time></trkpt><trkpt lat="40.5570222" lon="8.3163097"><ele>17.0</ele><time>2026-04-30T13:57:40.684Z</time></trkpt><trkpt lat="40.5569633" lon="8.3161814"><ele>17.0</ele><time>2026-04-30T13:57:42.684Z</time></trkpt><trkpt lat="40.5569162" lon="8.3160757"><ele>17.0</ele><time>2026-04-30T13:57:44.684Z</time></trkpt><trkpt lat="40.5568731" lon="8.3159783"><ele>16.0</ele><time>2026-04-30T13:57:46.684Z</time></trkpt><trkpt lat="40.5568253" lon="8.3158669"><ele>15.0</ele><time>2026-04-30T13:57:48.684Z</time></trkpt><trkpt lat="40.5567766" lon="8.3157632"><ele>14.0</ele><time>2026-04-30T13:57:50.684Z</time></trkpt><trkpt lat="40.5567136" lon="8.3156764"><ele>13.0</ele><time>2026-04-30T13:57:52.684Z</time></trkpt><trkpt lat="40.5566384" lon="8.3156091"><ele>12.0</ele><time>2026-04-30T13:57:54.684Z</time></trkpt><trkpt lat="40.5565616" lon="8.3155524"><ele>11.857142857142856</ele><time>2026-04-30T13:57:56.683Z</time></trkpt><trkpt lat="40.5565088" lon="8.3154735"><ele>11.714285714285714</ele><time>2026-04-30T13:57:58.706Z</time></trkpt><trkpt lat="40.5564458" lon="8.3154085"><ele>11.571428571428571</ele><time>2026-04-30T13:58:00.704Z</time></trkpt><trkpt lat="40.5563833" lon="8.3153626"><ele>11.428571428571427</ele><time>2026-04-30T13:58:02.706Z</time></trkpt><trkpt lat="40.5563183" lon="8.3153697"><ele>11.285714285714285</ele><time>2026-04-30T13:58:04.706Z</time></trkpt><trkpt lat="40.5562704" lon="8.3154249"><ele>11.142857142857142</ele><time>2026-04-30T13:58:06.676Z</time></trkpt><trkpt lat="40.5562171" lon="8.3155058"><ele>11.0</ele><time>2026-04-30T13:58:08.673Z</time></trkpt><trkpt lat="40.5561399" lon="8.3155914"><ele>10.75</ele><time>2026-04-30T13:58:10.676Z</time></trkpt><trkpt lat="40.5560404" lon="8.3156747"><ele>10.5</ele><time>2026-04-30T13:58:12.68Z</time></trkpt><trkpt lat="40.5559364" lon="8.3157518"><ele>10.25</ele><time>2026-04-30T13:58:14.681Z</time></trkpt><trkpt lat="40.5558314" lon="8.3158271"><ele>10.0</ele><time>2026-04-30T13:58:16.681Z</time></trkpt><trkpt lat="40.5557089" lon="8.3158705"><ele>10.0</ele><time>2026-04-30T13:58:18.681Z</time></trkpt><trkpt lat="40.5556417" lon="8.3158763"><ele>10.0</ele><time>2026-04-30T13:58:19.68Z</time></trkpt><trkpt lat="40.5555761" lon="8.3158765"><ele>10.0</ele><time>2026-04-30T13:58:20.681Z</time></trkpt><trkpt lat="40.5555123" lon="8.3158742"><ele>10.0</ele><time>2026-04-30T13:58:21.681Z</time></trkpt><trkpt lat="40.5554467" lon="8.3158712"><ele>10.0</ele><time>2026-04-30T13:58:22.681Z</time></trkpt><trkpt lat="40.5553811" lon="8.3158664"><ele>10.0</ele><time>2026-04-30T13:58:23.681Z</time></trkpt><trkpt lat="40.5553161" lon="8.3158561"><ele>10.0</ele><time>2026-04-30T13:58:24.681Z</time></trkpt><trkpt lat="40.5552529" lon="8.3158366"><ele>10.0</ele><time>2026-04-30T13:58:25.681Z</time></trkpt><trkpt lat="40.5551928" lon="8.3158054"><ele>10.0</ele><time>2026-04-30T13:58:26.681Z</time></trkpt><trkpt lat="40.5551329" lon="8.3157654"><ele>10.0</ele><time>2026-04-30T13:58:27.681Z</time></trkpt><trkpt lat="40.5550732" lon="8.3157276"><ele>10.0</ele><time>2026-04-30T13:58:28.681Z</time></trkpt><trkpt lat="40.5550136" lon="8.3156984"><ele>10.0</ele><time>2026-04-30T13:58:29.681Z</time></trkpt><trkpt lat="40.5549507" lon="8.3156793"><ele>10.0</ele><time>2026-04-30T13:58:30.68Z</time></trkpt><trkpt lat="40.554887" lon="8.3156686"><ele>10.0</ele><time>2026-04-30T13:58:31.681Z</time></trkpt><trkpt lat="40.5548228" lon="8.315663"><ele>10.0</ele><time>2026-04-30T13:58:32.681Z</time></trkpt><trkpt lat="40.554758" lon="8.3156613"><ele>10.0</ele><time>2026-04-30T13:58:33.681Z</time></trkpt><trkpt lat="40.5546925" lon="8.3156651"><ele>10.0</ele><time>2026-04-30T13:58:34.681Z</time></trkpt><trkpt lat="40.5546256" lon="8.3156789"><ele>10.0</ele><time>2026-04-30T13:58:35.681Z</time></trkpt><trkpt lat="40.5545618" lon="8.3156995"><ele>10.0</ele><time>2026-04-30T13:58:36.68Z</time></trkpt><trkpt lat="40.5545008" lon="8.3157215"><ele>10.0</ele><time>2026-04-30T13:58:37.681Z</time></trkpt><trkpt lat="40.5544371" lon="8.3157455"><ele>10.0</ele><time>2026-04-30T13:58:38.68Z</time></trkpt><trkpt lat="40.5543725" lon="8.3157718"><ele>9.714285714285714</ele><time>2026-04-30T13:58:39.681Z</time></trkpt><trkpt lat="40.5543062" lon="8.315799"><ele>9.428571428571429</ele><time>2026-04-30T13:58:40.681Z</time></trkpt><trkpt lat="40.5542385" lon="8.3158277"><ele>9.142857142857142</ele><time>2026-04-30T13:58:41.68Z</time></trkpt><trkpt lat="40.5541702" lon="8.3158581"><ele>8.857142857142858</ele><time>2026-04-30T13:58:42.681Z</time></trkpt><trkpt lat="40.5540984" lon="8.3158926"><ele>8.571428571428571</ele><time>2026-04-30T13:58:43.68Z</time></trkpt><trkpt lat="40.5540278" lon="8.315928"><ele>8.285714285714285</ele><time>2026-04-30T13:58:44.68Z</time></trkpt><trkpt lat="40.5539581" lon="8.315964"><ele>8.0</ele><time>2026-04-30T13:58:45.681Z</time></trkpt><trkpt lat="40.5538871" lon="8.3160017"><ele>7.999999999999999</ele><time>2026-04-30T13:58:46.681Z</time></trkpt><trkpt lat="40.5538203" lon="8.3160361"><ele>8.0</ele><time>2026-04-30T13:58:47.681Z</time></trkpt><trkpt lat="40.5537569" lon="8.3160652"><ele>8.0</ele><time>2026-04-30T13:58:48.681Z</time></trkpt><trkpt lat="40.5536965" lon="8.3160888"><ele>8.0</ele><time>2026-04-30T13:58:49.681Z</time></trkpt><trkpt lat="40.5535828" lon="8.3161195"><ele>7.999999999999999</ele><time>2026-04-30T13:58:51.68Z</time></trkpt><trkpt lat="40.5534867" lon="8.3161373"><ele>8.0</ele><time>2026-04-30T13:58:53.681Z</time></trkpt><trkpt lat="40.5533888" lon="8.3161658"><ele>7.499999999999999</ele><time>2026-04-30T13:58:55.681Z</time></trkpt><trkpt lat="40.5532692" lon="8.3161921"><ele>7.0</ele><time>2026-04-30T13:58:57.681Z</time></trkpt><trkpt lat="40.5532009" lon="8.3162045"><ele>6.5</ele><time>2026-04-30T13:58:58.681Z</time></trkpt><trkpt lat="40.5531253" lon="8.3162193"><ele>6.0</ele><time>2026-04-30T13:58:59.68Z</time></trkpt><trkpt lat="40.5530477" lon="8.3162348"><ele>5.5</ele><time>2026-04-30T13:59:00.681Z</time></trkpt><trkpt lat="40.5529744" lon="8.3162486"><ele>5.0</ele><time>2026-04-30T13:59:01.681Z</time></trkpt><trkpt lat="40.5529025" lon="8.3162632"><ele>4.5</ele><time>2026-04-30T13:59:02.68Z</time></trkpt><trkpt lat="40.5528368" lon="8.3162793"><ele>4.0</ele><time>2026-04-30T13:59:03.68Z</time></trkpt><trkpt lat="40.5527332" lon="8.3163352"><ele>3.5</ele><time>2026-04-30T13:59:05.681Z</time></trkpt><trkpt lat="40.5526761" lon="8.3164064"><ele>3.0</ele><time>2026-04-30T13:59:07.681Z</time></trkpt><trkpt lat="40.5526471" lon="8.3164924"><ele>2.5</ele><time>2026-04-30T13:59:17.681Z</time></trkpt><trkpt lat="40.5526207" lon="8.3165869"><ele>2.0</ele><time>2026-04-30T13:59:19.681Z</time></trkpt><trkpt lat="40.5525817" lon="8.3167477"><ele>3.0</ele><time>2026-04-30T13:59:21.681Z</time></trkpt><trkpt lat="40.5525599" lon="8.3168402"><ele>4.0</ele><time>2026-04-30T13:59:22.681Z</time></trkpt><trkpt lat="40.5525359" lon="8.316939"><ele>5.0</ele><time>2026-04-30T13:59:23.681Z</time></trkpt><trkpt lat="40.5525114" lon="8.3170373"><ele>6.0</ele><time>2026-04-30T13:59:24.681Z</time></trkpt><trkpt lat="40.5524871" lon="8.3171342"><ele>6.999999999999999</ele><time>2026-04-30T13:59:25.681Z</time></trkpt><trkpt lat="40.5524623" lon="8.3172364"><ele>8.0</ele><time>2026-04-30T13:59:26.681Z</time></trkpt><trkpt lat="40.5524374" lon="8.3173385"><ele>8.5</ele><time>2026-04-30T13:59:27.681Z</time></trkpt><trkpt lat="40.5524128" lon="8.3174396"><ele>9.0</ele><time>2026-04-30T13:59:28.681Z</time></trkpt><trkpt lat="40.5523881" lon="8.3175396"><ele>9.5</ele><time>2026-04-30T13:59:29.68Z</time></trkpt><trkpt lat="40.5523653" lon="8.3176318"><ele>10.0</ele><time>2026-04-30T13:59:30.681Z</time></trkpt><trkpt lat="40.5523442" lon="8.3177206"><ele>10.5</ele><time>2026-04-30T13:59:31.681Z</time></trkpt><trkpt lat="40.5523252" lon="8.3177999"><ele>11.0</ele><time>2026-04-30T13:59:32.681Z</time></trkpt><trkpt lat="40.5522916" lon="8.3179396"><ele>11.0</ele><time>2026-04-30T13:59:34.681Z</time></trkpt><trkpt lat="40.5522596" lon="8.3180459"><ele>11.0</ele><time>2026-04-30T13:59:36.68Z</time></trkpt><trkpt lat="40.5522203" lon="8.3181354"><ele>11.0</ele><time>2026-04-30T13:59:39.681Z</time></trkpt><trkpt lat="40.5521561" lon="8.3181448"><ele>11.0</ele><time>2026-04-30T14:00:43.7Z</time></trkpt><trkpt lat="40.5522236" lon="8.3181805"><ele>11.0</ele><time>2026-04-30T14:02:13.703Z</time></trkpt><trkpt lat="40.5521983" lon="8.3182589"><ele>11.0</ele><time>2026-04-30T14:02:15.702Z</time></trkpt><trkpt lat="40.5521539" lon="8.3183633"><ele>11.8</ele><time>2026-04-30T14:02:17.705Z</time></trkpt><trkpt lat="40.5520982" lon="8.3184616"><ele>12.600000000000001</ele><time>2026-04-30T14:02:19.706Z</time></trkpt><trkpt lat="40.5520187" lon="8.3185679"><ele>13.4</ele><time>2026-04-30T14:02:21.704Z</time></trkpt><trkpt lat="40.5519246" lon="8.3186813"><ele>14.2</ele><time>2026-04-30T14:02:23.7Z</time></trkpt><trkpt lat="40.5518634" lon="8.3187397"><ele>15.0</ele><time>2026-04-30T14:02:24.706Z</time></trkpt><trkpt lat="40.5517994" lon="8.3187863"><ele>15.2</ele><time>2026-04-30T14:02:25.702Z</time></trkpt><trkpt lat="40.5517225" lon="8.3188179"><ele>15.4</ele><time>2026-04-30T14:02:26.702Z</time></trkpt><trkpt lat="40.5515707" lon="8.3188374"><ele>15.600000000000001</ele><time>2026-04-30T14:02:28.701Z</time></trkpt><trkpt lat="40.5514929" lon="8.3188509"><ele>15.8</ele><time>2026-04-30T14:02:29.704Z</time></trkpt><trkpt lat="40.5514148" lon="8.3188798"><ele>16.0</ele><time>2026-04-30T14:02:30.706Z</time></trkpt><trkpt lat="40.5513381" lon="8.3189289"><ele>16.0</ele><time>2026-04-30T14:02:31.699Z</time></trkpt><trkpt lat="40.5512746" lon="8.3190036"><ele>16.0</ele><time>2026-04-30T14:02:32.702Z</time></trkpt><trkpt lat="40.5512062" lon="8.3190845"><ele>16.0</ele><time>2026-04-30T14:02:33.706Z</time></trkpt><trkpt lat="40.5511381" lon="8.3191842"><ele>16.0</ele><time>2026-04-30T14:02:34.7Z</time></trkpt><trkpt lat="40.5510729" lon="8.3192943"><ele>16.0</ele><time>2026-04-30T14:02:35.701Z</time></trkpt><trkpt lat="40.5510096" lon="8.3194143"><ele>15.600000000000001</ele><time>2026-04-30T14:02:36.703Z</time></trkpt><trkpt lat="40.5509613" lon="8.3195443"><ele>15.200000000000001</ele><time>2026-04-30T14:02:37.701Z</time></trkpt><trkpt lat="40.5509092" lon="8.3196712"><ele>14.799999999999999</ele><time>2026-04-30T14:02:38.703Z</time></trkpt><trkpt lat="40.5508629" lon="8.3197901"><ele>14.399999999999999</ele><time>2026-04-30T14:02:39.702Z</time></trkpt><trkpt lat="40.5508219" lon="8.3199071"><ele>14.0</ele><time>2026-04-30T14:02:40.702Z</time></trkpt><trkpt lat="40.5507814" lon="8.3200163"><ele>14.000000000000002</ele><time>2026-04-30T14:02:41.705Z</time></trkpt><trkpt lat="40.5507533" lon="8.3201106"><ele>14.0</ele><time>2026-04-30T14:02:42.702Z</time></trkpt><trkpt lat="40.5507136" lon="8.3202105"><ele>14.0</ele><time>2026-04-30T14:02:43.704Z</time></trkpt><trkpt lat="40.5506651" lon="8.3203024"><ele>14.0</ele><time>2026-04-30T14:02:44.702Z</time></trkpt><trkpt lat="40.5506234" lon="8.3203929"><ele>14.000000000000002</ele><time>2026-04-30T14:02:45.705Z</time></trkpt><trkpt lat="40.550573" lon="8.32048"><ele>14.0</ele><time>2026-04-30T14:02:46.704Z</time></trkpt><trkpt lat="40.5505188" lon="8.3205627"><ele>13.500000000000002</ele><time>2026-04-30T14:02:47.706Z</time></trkpt><trkpt lat="40.550451" lon="8.3206388"><ele>13.0</ele><time>2026-04-30T14:02:48.706Z</time></trkpt><trkpt lat="40.5503784" lon="8.3206936"><ele>12.5</ele><time>2026-04-30T14:02:49.705Z</time></trkpt><trkpt lat="40.5503006" lon="8.3207361"><ele>12.0</ele><time>2026-04-30T14:02:50.701Z</time></trkpt><trkpt lat="40.5502127" lon="8.3207786"><ele>11.5</ele><time>2026-04-30T14:02:51.702Z</time></trkpt><trkpt lat="40.5501297" lon="8.3208156"><ele>11.0</ele><time>2026-04-30T14:02:52.705Z</time></trkpt><trkpt lat="40.5500414" lon="8.320842"><ele>11.0</ele><time>2026-04-30T14:02:53.706Z</time></trkpt><trkpt lat="40.5499557" lon="8.3208704"><ele>11.0</ele><time>2026-04-30T14:02:54.702Z</time></trkpt><trkpt lat="40.5498731" lon="8.3209017"><ele>11.0</ele><time>2026-04-30T14:02:55.706Z</time></trkpt><trkpt lat="40.5497881" lon="8.3209281"><ele>11.0</ele><time>2026-04-30T14:02:56.706Z</time></trkpt><trkpt lat="40.5497067" lon="8.3209531"><ele>11.0</ele><time>2026-04-30T14:02:57.706Z</time></trkpt><trkpt lat="40.5496291" lon="8.3209728"><ele>11.0</ele><time>2026-04-30T14:02:58.706Z</time></trkpt><trkpt lat="40.5495515" lon="8.3209906"><ele>10.5</ele><time>2026-04-30T14:02:59.703Z</time></trkpt><trkpt lat="40.549481" lon="8.3209981"><ele>10.0</ele><time>2026-04-30T14:03:00.706Z</time></trkpt><trkpt lat="40.5494085" lon="8.3210047"><ele>9.5</ele><time>2026-04-30T14:03:01.704Z</time></trkpt><trkpt lat="40.5493359" lon="8.3210009"><ele>9.0</ele><time>2026-04-30T14:03:02.705Z</time></trkpt><trkpt lat="40.5492554" lon="8.3210009"><ele>8.5</ele><time>2026-04-30T14:03:03.702Z</time></trkpt><trkpt lat="40.549177" lon="8.3209912"><ele>8.0</ele><time>2026-04-30T14:03:04.705Z</time></trkpt><trkpt lat="40.5491031" lon="8.3209806"><ele>7.999999999999999</ele><time>2026-04-30T14:03:05.706Z</time></trkpt><trkpt lat="40.5490227" lon="8.320967"><ele>8.0</ele><time>2026-04-30T14:03:06.705Z</time></trkpt><trkpt lat="40.5489397" lon="8.3209538"><ele>8.0</ele><time>2026-04-30T14:03:07.705Z</time></trkpt><trkpt lat="40.5488568" lon="8.3209396"><ele>8.0</ele><time>2026-04-30T14:03:08.702Z</time></trkpt><trkpt lat="40.5487764" lon="8.3209238"><ele>7.999999999999999</ele><time>2026-04-30T14:03:09.706Z</time></trkpt><trkpt lat="40.548688" lon="8.3209251"><ele>8.0</ele><time>2026-04-30T14:03:10.702Z</time></trkpt><trkpt lat="40.5486067" lon="8.3209586"><ele>9.0</ele><time>2026-04-30T14:03:11.703Z</time></trkpt><trkpt lat="40.5485297" lon="8.3210065"><ele>10.0</ele><time>2026-04-30T14:03:12.704Z</time></trkpt><trkpt lat="40.5484611" lon="8.3210685"><ele>11.0</ele><time>2026-04-30T14:03:13.704Z</time></trkpt><trkpt lat="40.5483966" lon="8.3211524"><ele>12.0</ele><time>2026-04-30T14:03:14.706Z</time></trkpt><trkpt lat="40.5483403" lon="8.3212552"><ele>13.0</ele><time>2026-04-30T14:03:15.706Z</time></trkpt><trkpt lat="40.5482992" lon="8.3213675"><ele>14.600000000000001</ele><time>2026-04-30T14:03:16.702Z</time></trkpt><trkpt lat="40.5482621" lon="8.3214833"><ele>16.200000000000003</ele><time>2026-04-30T14:03:17.703Z</time></trkpt><trkpt lat="40.5482284" lon="8.3216037"><ele>17.8</ele><time>2026-04-30T14:03:18.706Z</time></trkpt><trkpt lat="40.5481921" lon="8.3217332"><ele>19.400000000000002</ele><time>2026-04-30T14:03:19.704Z</time></trkpt><trkpt lat="40.5481653" lon="8.3218622"><ele>21.0</ele><time>2026-04-30T14:03:20.706Z</time></trkpt><trkpt lat="40.5481304" lon="8.3219906"><ele>21.0</ele><time>2026-04-30T14:03:21.704Z</time></trkpt><trkpt lat="40.5480872" lon="8.3221285"><ele>21.0</ele><time>2026-04-30T14:03:22.703Z</time></trkpt><trkpt lat="40.548028" lon="8.3222455"><ele>21.0</ele><time>2026-04-30T14:03:23.701Z</time></trkpt><trkpt lat="40.5479743" lon="8.3223591"><ele>21.0</ele><time>2026-04-30T14:03:24.703Z</time></trkpt><trkpt lat="40.5479203" lon="8.3224547"><ele>21.0</ele><time>2026-04-30T14:03:25.702Z</time></trkpt><trkpt lat="40.5478636" lon="8.3225337"><ele>20.833333333333332</ele><time>2026-04-30T14:03:26.706Z</time></trkpt><trkpt lat="40.5478" lon="8.322611"><ele>20.666666666666668</ele><time>2026-04-30T14:03:27.702Z</time></trkpt><trkpt lat="40.5477393" lon="8.3226695"><ele>20.5</ele><time>2026-04-30T14:03:28.704Z</time></trkpt><trkpt lat="40.5476737" lon="8.3227162"><ele>20.333333333333336</ele><time>2026-04-30T14:03:29.706Z</time></trkpt><trkpt lat="40.5475911" lon="8.3227597"><ele>20.166666666666668</ele><time>2026-04-30T14:03:30.702Z</time></trkpt><trkpt lat="40.5475086" lon="8.3228005"><ele>20.0</ele><time>2026-04-30T14:03:31.706Z</time></trkpt><trkpt lat="40.547414" lon="8.3228288"><ele>20.0</ele><time>2026-04-30T14:03:32.702Z</time></trkpt><trkpt lat="40.5473192" lon="8.3228429"><ele>20.0</ele><time>2026-04-30T14:03:33.701Z</time></trkpt><trkpt lat="40.5472286" lon="8.322841"><ele>20.0</ele><time>2026-04-30T14:03:34.702Z</time></trkpt><trkpt lat="40.5471435" lon="8.3228119"><ele>20.0</ele><time>2026-04-30T14:03:35.703Z</time></trkpt><trkpt lat="40.5470506" lon="8.32278"><ele>20.0</ele><time>2026-04-30T14:03:36.704Z</time></trkpt><trkpt lat="40.5469499" lon="8.322725"><ele>19.75</ele><time>2026-04-30T14:03:37.704Z</time></trkpt><trkpt lat="40.5468473" lon="8.3226603"><ele>19.5</ele><time>2026-04-30T14:03:38.701Z</time></trkpt><trkpt lat="40.5467356" lon="8.3225845"><ele>19.25</ele><time>2026-04-30T14:03:39.706Z</time></trkpt><trkpt lat="40.5466203" lon="8.322504"><ele>19.0</ele><time>2026-04-30T14:03:40.705Z</time></trkpt><trkpt lat="40.5465014" lon="8.3224263"><ele>19.0</ele><time>2026-04-30T14:03:41.7Z</time></trkpt><trkpt lat="40.5463736" lon="8.3223453"><ele>19.0</ele><time>2026-04-30T14:03:42.705Z</time></trkpt><trkpt lat="40.546239" lon="8.322283"><ele>19.0</ele><time>2026-04-30T14:03:43.7Z</time></trkpt><trkpt lat="40.5461012" lon="8.3222127"><ele>19.0</ele><time>2026-04-30T14:03:44.706Z</time></trkpt><trkpt lat="40.5459549" lon="8.3221529"><ele>16.0</ele><time>2026-04-30T14:03:45.706Z</time></trkpt><trkpt lat="40.5458099" lon="8.3220906"><ele>13.0</ele><time>2026-04-30T14:03:46.703Z</time></trkpt><trkpt lat="40.5456576" lon="8.3220357"><ele>10.0</ele><time>2026-04-30T14:03:47.703Z</time></trkpt><trkpt lat="40.5455058" lon="8.3219692"><ele>10.333333333333334</ele><time>2026-04-30T14:03:48.704Z</time></trkpt><trkpt lat="40.545363" lon="8.3218986"><ele>10.666666666666666</ele><time>2026-04-30T14:03:49.705Z</time></trkpt><trkpt lat="40.5452201" lon="8.3218103"><ele>11.0</ele><time>2026-04-30T14:03:50.702Z</time></trkpt><trkpt lat="40.5450905" lon="8.3217175"><ele>11.0</ele><time>2026-04-30T14:03:51.702Z</time></trkpt><trkpt lat="40.5449642" lon="8.3216159"><ele>11.0</ele><time>2026-04-30T14:03:52.706Z</time></trkpt><trkpt lat="40.5448455" lon="8.3215209"><ele>11.0</ele><time>2026-04-30T14:03:53.705Z</time></trkpt><trkpt lat="40.5447269" lon="8.3214375"><ele>11.0</ele><time>2026-04-30T14:03:54.702Z</time></trkpt><trkpt lat="40.5446037" lon="8.3213745"><ele>11.5</ele><time>2026-04-30T14:03:55.706Z</time></trkpt><trkpt lat="40.5444828" lon="8.3213489"><ele>12.0</ele><time>2026-04-30T14:03:56.706Z</time></trkpt><trkpt lat="40.5443579" lon="8.3213603"><ele>12.5</ele><time>2026-04-30T14:03:57.706Z</time></trkpt><trkpt lat="40.5442332" lon="8.3213986"><ele>13.0</ele><time>2026-04-30T14:03:58.699Z</time></trkpt><trkpt lat="40.5441197" lon="8.3214744"><ele>13.0</ele><time>2026-04-30T14:03:59.702Z</time></trkpt><trkpt lat="40.5440167" lon="8.3215853"><ele>13.0</ele><time>2026-04-30T14:04:00.705Z</time></trkpt><trkpt lat="40.5439468" lon="8.3217159"><ele>13.0</ele><time>2026-04-30T14:04:01.704Z</time></trkpt><trkpt lat="40.5439083" lon="8.3218675"><ele>13.0</ele><time>2026-04-30T14:04:02.705Z</time></trkpt><trkpt lat="40.5438918" lon="8.3220297"><ele>13.0</ele><time>2026-04-30T14:04:03.705Z</time></trkpt><trkpt lat="40.5438767" lon="8.3222026"><ele>13.0</ele><time>2026-04-30T14:04:04.704Z</time></trkpt><trkpt lat="40.5438476" lon="8.3223662"><ele>13.0</ele><time>2026-04-30T14:04:05.705Z</time></trkpt><trkpt lat="40.5437923" lon="8.3225149"><ele>13.0</ele><time>2026-04-30T14:04:06.705Z</time></trkpt><trkpt lat="40.5437166" lon="8.3226513"><ele>11.75</ele><time>2026-04-30T14:04:07.704Z</time></trkpt><trkpt lat="40.5436304" lon="8.3227712"><ele>10.5</ele><time>2026-04-30T14:04:08.705Z</time></trkpt><trkpt lat="40.5435395" lon="8.3228749"><ele>9.25</ele><time>2026-04-30T14:04:09.705Z</time></trkpt><trkpt lat="40.5434416" lon="8.322954"><ele>8.0</ele><time>2026-04-30T14:04:10.706Z</time></trkpt><trkpt lat="40.5433382" lon="8.3230187"><ele>8.0</ele><time>2026-04-30T14:04:11.704Z</time></trkpt><trkpt lat="40.5432251" lon="8.323054"><ele>8.0</ele><time>2026-04-30T14:04:12.706Z</time></trkpt><trkpt lat="40.543104" lon="8.3230632"><ele>8.0</ele><time>2026-04-30T14:04:13.704Z</time></trkpt><trkpt lat="40.54298" lon="8.323051"><ele>8.0</ele><time>2026-04-30T14:04:14.704Z</time></trkpt><trkpt lat="40.5428492" lon="8.3230064"><ele>8.5</ele><time>2026-04-30T14:04:15.706Z</time></trkpt><trkpt lat="40.542728" lon="8.3229366"><ele>9.0</ele><time>2026-04-30T14:04:16.705Z</time></trkpt><trkpt lat="40.5426128" lon="8.3228343"><ele>9.5</ele><time>2026-04-30T14:04:17.7Z</time></trkpt><trkpt lat="40.5425053" lon="8.3227012"><ele>10.0</ele><time>2026-04-30T14:04:18.703Z</time></trkpt><trkpt lat="40.5424238" lon="8.3225596"><ele>10.0</ele><time>2026-04-30T14:04:19.704Z</time></trkpt><trkpt lat="40.5423653" lon="8.3224047"><ele>10.0</ele><time>2026-04-30T14:04:20.703Z</time></trkpt><trkpt lat="40.5423084" lon="8.3222509"><ele>10.0</ele><time>2026-04-30T14:04:21.703Z</time></trkpt><trkpt lat="40.5422453" lon="8.3221201"><ele>10.0</ele><time>2026-04-30T14:04:22.706Z</time></trkpt><trkpt lat="40.5421627" lon="8.3220221"><ele>9.0</ele><time>2026-04-30T14:04:23.701Z</time></trkpt><trkpt lat="40.5420634" lon="8.3219624"><ele>8.0</ele><time>2026-04-30T14:04:24.702Z</time></trkpt><trkpt lat="40.5419594" lon="8.3219338"><ele>7.0</ele><time>2026-04-30T14:04:25.702Z</time></trkpt><trkpt lat="40.5418402" lon="8.3219486"><ele>6.0</ele><time>2026-04-30T14:04:26.706Z</time></trkpt><trkpt lat="40.5417305" lon="8.3219932"><ele>6.0</ele><time>2026-04-30T14:04:27.703Z</time></trkpt><trkpt lat="40.5416329" lon="8.3220797"><ele>6.0</ele><time>2026-04-30T14:04:28.702Z</time></trkpt><trkpt lat="40.5415443" lon="8.3222027"><ele>6.0</ele><time>2026-04-30T14:04:29.703Z</time></trkpt><trkpt lat="40.5414596" lon="8.3223343"><ele>6.0</ele><time>2026-04-30T14:04:30.705Z</time></trkpt><trkpt lat="40.5413836" lon="8.3224591"><ele>5.8</ele><time>2026-04-30T14:04:31.706Z</time></trkpt><trkpt lat="40.541315" lon="8.322577"><ele>5.6</ele><time>2026-04-30T14:04:32.705Z</time></trkpt><trkpt lat="40.5412489" lon="8.322691"><ele>5.4</ele><time>2026-04-30T14:04:33.703Z</time></trkpt><trkpt lat="40.5411869" lon="8.3227908"><ele>5.2</ele><time>2026-04-30T14:04:34.705Z</time></trkpt><trkpt lat="40.5411213" lon="8.3228954"><ele>5.0</ele><time>2026-04-30T14:04:35.701Z</time></trkpt><trkpt lat="40.541051" lon="8.3229968"><ele>8.75</ele><time>2026-04-30T14:04:36.701Z</time></trkpt><trkpt lat="40.540963" lon="8.3230993"><ele>12.5</ele><time>2026-04-30T14:04:37.702Z</time></trkpt><trkpt lat="40.5408651" lon="8.3232001"><ele>16.25</ele><time>2026-04-30T14:04:38.701Z</time></trkpt><trkpt lat="40.5407555" lon="8.3232924"><ele>20.0</ele><time>2026-04-30T14:04:39.704Z</time></trkpt><trkpt lat="40.540637" lon="8.3233822"><ele>20.0</ele><time>2026-04-30T14:04:40.704Z</time></trkpt><trkpt lat="40.5405169" lon="8.3234729"><ele>20.0</ele><time>2026-04-30T14:04:41.704Z</time></trkpt><trkpt lat="40.5403918" lon="8.3235656"><ele>20.0</ele><time>2026-04-30T14:04:42.706Z</time></trkpt><trkpt lat="40.5402584" lon="8.3236555"><ele>20.0</ele><time>2026-04-30T14:04:43.702Z</time></trkpt><trkpt lat="40.5401187" lon="8.3237598"><ele>20.333333333333336</ele><time>2026-04-30T14:04:44.704Z</time></trkpt><trkpt lat="40.5399725" lon="8.3238658"><ele>20.666666666666668</ele><time>2026-04-30T14:04:45.703Z</time></trkpt><trkpt lat="40.539824" lon="8.3239725"><ele>21.0</ele><time>2026-04-30T14:04:46.706Z</time></trkpt><trkpt lat="40.5396763" lon="8.3240824"><ele>17.666666666666668</ele><time>2026-04-30T14:04:47.706Z</time></trkpt><trkpt lat="40.5395202" lon="8.3241856"><ele>14.333333333333332</ele><time>2026-04-30T14:04:48.706Z</time></trkpt><trkpt lat="40.5393709" lon="8.3242619"><ele>11.0</ele><time>2026-04-30T14:04:49.704Z</time></trkpt><trkpt lat="40.5392108" lon="8.3243053"><ele>11.0</ele><time>2026-04-30T14:04:50.706Z</time></trkpt><trkpt lat="40.5390501" lon="8.3243131"><ele>11.0</ele><time>2026-04-30T14:04:51.704Z</time></trkpt><trkpt lat="40.5388969" lon="8.3242942"><ele>11.0</ele><time>2026-04-30T14:04:52.706Z</time></trkpt><trkpt lat="40.5387392" lon="8.3242464"><ele>11.333333333333332</ele><time>2026-04-30T14:04:53.706Z</time></trkpt><trkpt lat="40.5385753" lon="8.3241946"><ele>11.666666666666666</ele><time>2026-04-30T14:04:54.706Z</time></trkpt><trkpt lat="40.5384087" lon="8.3241436"><ele>12.0</ele><time>2026-04-30T14:04:55.706Z</time></trkpt><trkpt lat="40.5382541" lon="8.3240888"><ele>12.0</ele><time>2026-04-30T14:04:56.704Z</time></trkpt><trkpt lat="40.5380993" lon="8.324035"><ele>12.0</ele><time>2026-04-30T14:04:57.706Z</time></trkpt><trkpt lat="40.5379449" lon="8.3239812"><ele>12.0</ele><time>2026-04-30T14:04:58.706Z</time></trkpt><trkpt lat="40.5377763" lon="8.3239292"><ele>9.666666666666666</ele><time>2026-04-30T14:04:59.704Z</time></trkpt><trkpt lat="40.5376152" lon="8.3238835"><ele>7.333333333333334</ele><time>2026-04-30T14:05:00.703Z</time></trkpt><trkpt lat="40.5374606" lon="8.3238505"><ele>5.0</ele><time>2026-04-30T14:05:01.702Z</time></trkpt><trkpt lat="40.5373158" lon="8.3238419"><ele>5.0</ele><time>2026-04-30T14:05:02.703Z</time></trkpt><trkpt lat="40.5371857" lon="8.3238655"><ele>5.0</ele><time>2026-04-30T14:05:03.706Z</time></trkpt><trkpt lat="40.5370796" lon="8.3239122"><ele>5.0</ele><time>2026-04-30T14:05:04.703Z</time></trkpt><trkpt lat="40.5369785" lon="8.323983"><ele>5.0</ele><time>2026-04-30T14:05:05.703Z</time></trkpt><trkpt lat="40.5368909" lon="8.3240766"><ele>6.75</ele><time>2026-04-30T14:05:06.701Z</time></trkpt><trkpt lat="40.536809" lon="8.3241928"><ele>8.5</ele><time>2026-04-30T14:05:07.703Z</time></trkpt><trkpt lat="40.5367423" lon="8.3243056"><ele>10.25</ele><time>2026-04-30T14:05:08.705Z</time></trkpt><trkpt lat="40.536686" lon="8.3244352"><ele>12.0</ele><time>2026-04-30T14:05:09.702Z</time></trkpt><trkpt lat="40.5366375" lon="8.3245735"><ele>12.0</ele><time>2026-04-30T14:05:10.703Z</time></trkpt><trkpt lat="40.5365968" lon="8.3247014"><ele>12.0</ele><time>2026-04-30T14:05:11.704Z</time></trkpt><trkpt lat="40.5365573" lon="8.3248357"><ele>12.0</ele><time>2026-04-30T14:05:12.702Z</time></trkpt><trkpt lat="40.5365044" lon="8.3249982"><ele>12.0</ele><time>2026-04-30T14:05:13.701Z</time></trkpt><trkpt lat="40.5364434" lon="8.3251677"><ele>11.0</ele><time>2026-04-30T14:05:14.699Z</time></trkpt><trkpt lat="40.536371" lon="8.325323"><ele>10.0</ele><time>2026-04-30T14:05:15.704Z</time></trkpt><trkpt lat="40.5362923" lon="8.3254522"><ele>9.0</ele><time>2026-04-30T14:05:16.703Z</time></trkpt><trkpt lat="40.5361935" lon="8.3255525"><ele>8.0</ele><time>2026-04-30T14:05:17.706Z</time></trkpt><trkpt lat="40.5360815" lon="8.3256202"><ele>12.75</ele><time>2026-04-30T14:05:18.702Z</time></trkpt><trkpt lat="40.5359611" lon="8.3256664"><ele>17.5</ele><time>2026-04-30T14:05:19.704Z</time></trkpt><trkpt lat="40.5358293" lon="8.3257163"><ele>22.25</ele><time>2026-04-30T14:05:20.7Z</time></trkpt><trkpt lat="40.5356891" lon="8.3257702"><ele>27.0</ele><time>2026-04-30T14:05:21.704Z</time></trkpt><trkpt lat="40.5355446" lon="8.3258222"><ele>27.0</ele><time>2026-04-30T14:05:22.705Z</time></trkpt><trkpt lat="40.5354124" lon="8.3258713"><ele>27.0</ele><time>2026-04-30T14:05:23.703Z</time></trkpt><trkpt lat="40.5352717" lon="8.3259251"><ele>27.0</ele><time>2026-04-30T14:05:24.706Z</time></trkpt><trkpt lat="40.5351376" lon="8.3259778"><ele>27.0</ele><time>2026-04-30T14:05:25.706Z</time></trkpt><trkpt lat="40.5350035" lon="8.3260259"><ele>24.333333333333332</ele><time>2026-04-30T14:05:26.706Z</time></trkpt><trkpt lat="40.5348593" lon="8.3260774"><ele>21.666666666666664</ele><time>2026-04-30T14:05:27.704Z</time></trkpt><trkpt lat="40.5347166" lon="8.3261283"><ele>19.0</ele><time>2026-04-30T14:05:28.705Z</time></trkpt><trkpt lat="40.5345625" lon="8.3261891"><ele>16.666666666666664</ele><time>2026-04-30T14:05:29.706Z</time></trkpt><trkpt lat="40.5344033" lon="8.3262456"><ele>14.333333333333332</ele><time>2026-04-30T14:05:30.705Z</time></trkpt><trkpt lat="40.5342344" lon="8.326308"><ele>12.0</ele><time>2026-04-30T14:05:31.701Z</time></trkpt><trkpt lat="40.5340741" lon="8.3263727"><ele>17.666666666666664</ele><time>2026-04-30T14:05:32.703Z</time></trkpt><trkpt lat="40.5339079" lon="8.3264339"><ele>23.333333333333332</ele><time>2026-04-30T14:05:33.7Z</time></trkpt><trkpt lat="40.5337368" lon="8.3264969"><ele>29.0</ele><time>2026-04-30T14:05:34.705Z</time></trkpt><trkpt lat="40.5335531" lon="8.3265729"><ele>29.0</ele><time>2026-04-30T14:05:35.706Z</time></trkpt><trkpt lat="40.5333426" lon="8.3266619"><ele>29.0</ele><time>2026-04-30T14:05:36.706Z</time></trkpt><trkpt lat="40.5331311" lon="8.3267482"><ele>29.0</ele><time>2026-04-30T14:05:37.703Z</time></trkpt><trkpt lat="40.5329303" lon="8.3268209"><ele>27.666666666666664</ele><time>2026-04-30T14:05:38.704Z</time></trkpt><trkpt lat="40.5327349" lon="8.3268676"><ele>26.333333333333336</ele><time>2026-04-30T14:05:39.706Z</time></trkpt><trkpt lat="40.5325581" lon="8.3268931"><ele>25.0</ele><time>2026-04-30T14:05:40.705Z</time></trkpt><trkpt lat="40.5323984" lon="8.3268652"><ele>25.0</ele><time>2026-04-30T14:05:41.706Z</time></trkpt><trkpt lat="40.5322452" lon="8.3268393"><ele>25.0</ele><time>2026-04-30T14:05:42.702Z</time></trkpt><trkpt lat="40.5321002" lon="8.3268039"><ele>25.0</ele><time>2026-04-30T14:05:43.704Z</time></trkpt><trkpt lat="40.5319512" lon="8.3267957"><ele>25.0</ele><time>2026-04-30T14:05:44.706Z</time></trkpt><trkpt lat="40.5317988" lon="8.3268055"><ele>25.0</ele><time>2026-04-30T14:05:45.704Z</time></trkpt><trkpt lat="40.5316386" lon="8.3268379"><ele>25.0</ele><time>2026-04-30T14:05:46.702Z</time></trkpt><trkpt lat="40.531477" lon="8.3268925"><ele>25.0</ele><time>2026-04-30T14:05:47.705Z</time></trkpt><trkpt lat="40.5313115" lon="8.3269465"><ele>25.0</ele><time>2026-04-30T14:05:48.706Z</time></trkpt><trkpt lat="40.5311513" lon="8.3270036"><ele>25.0</ele><time>2026-04-30T14:05:49.706Z</time></trkpt><trkpt lat="40.5310103" lon="8.3270619"><ele>21.666666666666668</ele><time>2026-04-30T14:05:50.705Z</time></trkpt><trkpt lat="40.5308678" lon="8.3271383"><ele>18.333333333333336</ele><time>2026-04-30T14:05:51.702Z</time></trkpt><trkpt lat="40.5307247" lon="8.3272252"><ele>15.0</ele><time>2026-04-30T14:05:52.703Z</time></trkpt><trkpt lat="40.5305886" lon="8.3273358"><ele>16.333333333333332</ele><time>2026-04-30T14:05:53.703Z</time></trkpt><trkpt lat="40.5304796" lon="8.3274991"><ele>17.666666666666664</ele><time>2026-04-30T14:05:54.703Z</time></trkpt><trkpt lat="40.5303593" lon="8.3276817"><ele>19.0</ele><time>2026-04-30T14:05:55.706Z</time></trkpt><trkpt lat="40.5302202" lon="8.3278897"><ele>24.333333333333332</ele><time>2026-04-30T14:05:56.706Z</time></trkpt><trkpt lat="40.5300815" lon="8.3280768"><ele>29.666666666666664</ele><time>2026-04-30T14:05:57.702Z</time></trkpt><trkpt lat="40.5299509" lon="8.3282644"><ele>35.0</ele><time>2026-04-30T14:05:58.705Z</time></trkpt><trkpt lat="40.5298335" lon="8.3284381"><ele>35.0</ele><time>2026-04-30T14:05:59.703Z</time></trkpt><trkpt lat="40.5297311" lon="8.3285925"><ele>35.0</ele><time>2026-04-30T14:06:00.704Z</time></trkpt><trkpt lat="40.5296402" lon="8.3287083"><ele>35.0</ele><time>2026-04-30T14:06:01.703Z</time></trkpt><trkpt lat="40.5295448" lon="8.3287878"><ele>35.0</ele><time>2026-04-30T14:06:02.703Z</time></trkpt><trkpt lat="40.5294499" lon="8.3288191"><ele>30.5</ele><time>2026-04-30T14:06:03.702Z</time></trkpt><trkpt lat="40.5293425" lon="8.3288092"><ele>26.0</ele><time>2026-04-30T14:06:04.705Z</time></trkpt><trkpt lat="40.5292289" lon="8.328776"><ele>21.5</ele><time>2026-04-30T14:06:05.703Z</time></trkpt><trkpt lat="40.5291103" lon="8.3287401"><ele>17.0</ele><time>2026-04-30T14:06:06.704Z</time></trkpt><trkpt lat="40.5289956" lon="8.3287143"><ele>17.0</ele><time>2026-04-30T14:06:07.704Z</time></trkpt><trkpt lat="40.5288976" lon="8.3287073"><ele>17.0</ele><time>2026-04-30T14:06:08.706Z</time></trkpt><trkpt lat="40.5287988" lon="8.3287293"><ele>17.0</ele><time>2026-04-30T14:06:09.703Z</time></trkpt><trkpt lat="40.5287002" lon="8.3287831"><ele>17.0</ele><time>2026-04-30T14:06:10.705Z</time></trkpt><trkpt lat="40.5286239" lon="8.3288688"><ele>17.0</ele><time>2026-04-30T14:06:11.704Z</time></trkpt><trkpt lat="40.5285529" lon="8.3289882"><ele>19.5</ele><time>2026-04-30T14:06:12.705Z</time></trkpt><trkpt lat="40.5284841" lon="8.3291211"><ele>22.0</ele><time>2026-04-30T14:06:13.703Z</time></trkpt><trkpt lat="40.5284006" lon="8.3292672"><ele>24.5</ele><time>2026-04-30T14:06:14.706Z</time></trkpt><trkpt lat="40.5283063" lon="8.329406"><ele>27.0</ele><time>2026-04-30T14:06:15.705Z</time></trkpt><trkpt lat="40.5281955" lon="8.3295442"><ele>27.0</ele><time>2026-04-30T14:06:16.704Z</time></trkpt><trkpt lat="40.5280616" lon="8.3296813"><ele>27.0</ele><time>2026-04-30T14:06:17.704Z</time></trkpt><trkpt lat="40.5279352" lon="8.3298056"><ele>27.0</ele><time>2026-04-30T14:06:18.703Z</time></trkpt><trkpt lat="40.5278128" lon="8.3299268"><ele>26.666666666666664</ele><time>2026-04-30T14:06:19.703Z</time></trkpt><trkpt lat="40.5276788" lon="8.3300479"><ele>26.333333333333332</ele><time>2026-04-30T14:06:20.705Z</time></trkpt><trkpt lat="40.5275364" lon="8.3301592"><ele>26.0</ele><time>2026-04-30T14:06:21.706Z</time></trkpt><trkpt lat="40.5273939" lon="8.3302544"><ele>26.0</ele><time>2026-04-30T14:06:22.702Z</time></trkpt><trkpt lat="40.527255" lon="8.330335"><ele>26.0</ele><time>2026-04-30T14:06:23.704Z</time></trkpt><trkpt lat="40.527104" lon="8.330413"><ele>26.0</ele><time>2026-04-30T14:06:24.703Z</time></trkpt><trkpt lat="40.5269542" lon="8.3304829"><ele>28.666666666666664</ele><time>2026-04-30T14:06:25.704Z</time></trkpt><trkpt lat="40.5267972" lon="8.3305519"><ele>31.333333333333336</ele><time>2026-04-30T14:06:26.705Z</time></trkpt><trkpt lat="40.5266422" lon="8.3306013"><ele>34.0</ele><time>2026-04-30T14:06:27.703Z</time></trkpt><trkpt lat="40.5265003" lon="8.3306445"><ele>34.0</ele><time>2026-04-30T14:06:28.705Z</time></trkpt><trkpt lat="40.5263661" lon="8.3306741"><ele>34.0</ele><time>2026-04-30T14:06:29.706Z</time></trkpt><trkpt lat="40.5262311" lon="8.3307099"><ele>34.0</ele><time>2026-04-30T14:06:30.704Z</time></trkpt><trkpt lat="40.5261011" lon="8.3307837"><ele>34.0</ele><time>2026-04-30T14:06:31.703Z</time></trkpt><trkpt lat="40.5259689" lon="8.3308817"><ele>27.0</ele><time>2026-04-30T14:06:32.704Z</time></trkpt><trkpt lat="40.5258412" lon="8.3310106"><ele>20.0</ele><time>2026-04-30T14:06:33.705Z</time></trkpt><trkpt lat="40.5257137" lon="8.331159"><ele>13.0</ele><time>2026-04-30T14:06:34.705Z</time></trkpt><trkpt lat="40.5255729" lon="8.3313242"><ele>13.333333333333332</ele><time>2026-04-30T14:06:35.705Z</time></trkpt><trkpt lat="40.5254455" lon="8.3314863"><ele>13.666666666666668</ele><time>2026-04-30T14:06:36.705Z</time></trkpt><trkpt lat="40.5252943" lon="8.3316485"><ele>14.0</ele><time>2026-04-30T14:06:37.706Z</time></trkpt><trkpt lat="40.5251435" lon="8.3318021"><ele>14.0</ele><time>2026-04-30T14:06:38.706Z</time></trkpt><trkpt lat="40.5249787" lon="8.3319453"><ele>14.0</ele><time>2026-04-30T14:06:39.705Z</time></trkpt><trkpt lat="40.5248148" lon="8.3320695"><ele>14.0</ele><time>2026-04-30T14:06:40.704Z</time></trkpt><trkpt lat="40.5246501" lon="8.3321876"><ele>15.666666666666668</ele><time>2026-04-30T14:06:41.703Z</time></trkpt><trkpt lat="40.5244927" lon="8.3322981"><ele>17.333333333333332</ele><time>2026-04-30T14:06:42.706Z</time></trkpt><trkpt lat="40.5243368" lon="8.3324032"><ele>19.0</ele><time>2026-04-30T14:06:43.702Z</time></trkpt><trkpt lat="40.5241875" lon="8.332482"><ele>19.0</ele><time>2026-04-30T14:06:44.706Z</time></trkpt><trkpt lat="40.5240448" lon="8.3325614"><ele>19.0</ele><time>2026-04-30T14:06:45.705Z</time></trkpt><trkpt lat="40.5239062" lon="8.3326259"><ele>19.0</ele><time>2026-04-30T14:06:46.705Z</time></trkpt><trkpt lat="40.5237795" lon="8.332692"><ele>19.0</ele><time>2026-04-30T14:06:47.703Z</time></trkpt><trkpt lat="40.5236453" lon="8.3327582"><ele>19.75</ele><time>2026-04-30T14:06:48.706Z</time></trkpt><trkpt lat="40.5235241" lon="8.3328529"><ele>20.5</ele><time>2026-04-30T14:06:49.705Z</time></trkpt><trkpt lat="40.5234201" lon="8.3329757"><ele>21.25</ele><time>2026-04-30T14:06:50.706Z</time></trkpt><trkpt lat="40.5233268" lon="8.3331353"><ele>22.0</ele><time>2026-04-30T14:06:51.705Z</time></trkpt><trkpt lat="40.5232442" lon="8.3333004"><ele>22.0</ele><time>2026-04-30T14:06:52.706Z</time></trkpt><trkpt lat="40.523166" lon="8.3334621"><ele>22.0</ele><time>2026-04-30T14:06:53.705Z</time></trkpt><trkpt lat="40.523101" lon="8.3336191"><ele>22.0</ele><time>2026-04-30T14:06:54.705Z</time></trkpt><trkpt lat="40.5230447" lon="8.3337586"><ele>22.0</ele><time>2026-04-30T14:06:55.704Z</time></trkpt><trkpt lat="40.5230145" lon="8.333904"><ele>24.25</ele><time>2026-04-30T14:06:56.704Z</time></trkpt><trkpt lat="40.5230202" lon="8.3340542"><ele>26.5</ele><time>2026-04-30T14:06:57.706Z</time></trkpt><trkpt lat="40.5230698" lon="8.3342043"><ele>28.75</ele><time>2026-04-30T14:06:58.706Z</time></trkpt><trkpt lat="40.5231399" lon="8.3343487"><ele>31.0</ele><time>2026-04-30T14:06:59.706Z</time></trkpt><trkpt lat="40.5232377" lon="8.3344914"><ele>31.0</ele><time>2026-04-30T14:07:00.706Z</time></trkpt><trkpt lat="40.523329" lon="8.3346267"><ele>31.0</ele><time>2026-04-30T14:07:01.703Z</time></trkpt><trkpt lat="40.5234098" lon="8.334759"><ele>31.0</ele><time>2026-04-30T14:07:02.703Z</time></trkpt><trkpt lat="40.5234836" lon="8.3349035"><ele>31.0</ele><time>2026-04-30T14:07:03.705Z</time></trkpt><trkpt lat="40.5235394" lon="8.3350495"><ele>33.0</ele><time>2026-04-30T14:07:04.705Z</time></trkpt><trkpt lat="40.5235822" lon="8.3352135"><ele>35.0</ele><time>2026-04-30T14:07:05.703Z</time></trkpt><trkpt lat="40.5236074" lon="8.3353967"><ele>37.0</ele><time>2026-04-30T14:07:06.702Z</time></trkpt><trkpt lat="40.5236319" lon="8.3356089"><ele>39.0</ele><time>2026-04-30T14:07:07.704Z</time></trkpt><trkpt lat="40.5236447" lon="8.3358371"><ele>42.33333333333333</ele><time>2026-04-30T14:07:08.703Z</time></trkpt><trkpt lat="40.523647" lon="8.3360744"><ele>45.666666666666664</ele><time>2026-04-30T14:07:09.706Z</time></trkpt><trkpt lat="40.5236306" lon="8.3363229"><ele>49.0</ele><time>2026-04-30T14:07:10.704Z</time></trkpt><trkpt lat="40.5236144" lon="8.3365811"><ele>50.666666666666664</ele><time>2026-04-30T14:07:11.703Z</time></trkpt><trkpt lat="40.5236043" lon="8.3368222"><ele>52.33333333333333</ele><time>2026-04-30T14:07:12.706Z</time></trkpt><trkpt lat="40.5235899" lon="8.3370389"><ele>54.0</ele><time>2026-04-30T14:07:13.702Z</time></trkpt><trkpt lat="40.5235519" lon="8.337237"><ele>55.0</ele><time>2026-04-30T14:07:14.703Z</time></trkpt><trkpt lat="40.5234846" lon="8.3374327"><ele>56.0</ele><time>2026-04-30T14:07:15.703Z</time></trkpt><trkpt lat="40.5233965" lon="8.3376162"><ele>57.0</ele><time>2026-04-30T14:07:16.706Z</time></trkpt><trkpt lat="40.5232949" lon="8.3378165"><ele>57.0</ele><time>2026-04-30T14:07:17.704Z</time></trkpt><trkpt lat="40.5231903" lon="8.3380262"><ele>57.0</ele><time>2026-04-30T14:07:18.705Z</time></trkpt><trkpt lat="40.5230633" lon="8.3382452"><ele>57.0</ele><time>2026-04-30T14:07:19.706Z</time></trkpt><trkpt lat="40.5229348" lon="8.3384743"><ele>60.33333333333333</ele><time>2026-04-30T14:07:20.704Z</time></trkpt><trkpt lat="40.5228081" lon="8.3387069"><ele>63.666666666666664</ele><time>2026-04-30T14:07:21.706Z</time></trkpt><trkpt lat="40.5226713" lon="8.3389379"><ele>67.0</ele><time>2026-04-30T14:07:22.706Z</time></trkpt><trkpt lat="40.5225382" lon="8.3391815"><ele>67.5</ele><time>2026-04-30T14:07:23.704Z</time></trkpt><trkpt lat="40.5224057" lon="8.3394219"><ele>68.0</ele><time>2026-04-30T14:07:24.704Z</time></trkpt><trkpt lat="40.5222722" lon="8.3396631"><ele>70.0</ele><time>2026-04-30T14:07:25.702Z</time></trkpt><trkpt lat="40.5221339" lon="8.3399045"><ele>72.0</ele><time>2026-04-30T14:07:26.705Z</time></trkpt><trkpt lat="40.5220009" lon="8.3401438"><ele>73.5</ele><time>2026-04-30T14:07:27.704Z</time></trkpt><trkpt lat="40.5218624" lon="8.3403876"><ele>75.0</ele><time>2026-04-30T14:07:28.7Z</time></trkpt><trkpt lat="40.5217298" lon="8.3406371"><ele>75.5</ele><time>2026-04-30T14:07:29.705Z</time></trkpt><trkpt lat="40.5215957" lon="8.340885"><ele>76.0</ele><time>2026-04-30T14:07:30.703Z</time></trkpt><trkpt lat="40.521462" lon="8.3411281"><ele>76.0</ele><time>2026-04-30T14:07:31.703Z</time></trkpt><trkpt lat="40.521338" lon="8.3413538"><ele>76.0</ele><time>2026-04-30T14:07:32.703Z</time></trkpt><trkpt lat="40.5212038" lon="8.3415645"><ele>76.0</ele><time>2026-04-30T14:07:33.705Z</time></trkpt><trkpt lat="40.5210665" lon="8.3417518"><ele>77.33333333333333</ele><time>2026-04-30T14:07:34.703Z</time></trkpt><trkpt lat="40.520903" lon="8.3419022"><ele>78.66666666666667</ele><time>2026-04-30T14:07:35.706Z</time></trkpt><trkpt lat="40.5207401" lon="8.3420245"><ele>80.0</ele><time>2026-04-30T14:07:36.705Z</time></trkpt><trkpt lat="40.5205733" lon="8.3421379"><ele>82.66666666666667</ele><time>2026-04-30T14:07:37.703Z</time></trkpt><trkpt lat="40.5203946" lon="8.3422542"><ele>85.33333333333333</ele><time>2026-04-30T14:07:38.703Z</time></trkpt><trkpt lat="40.5202253" lon="8.3423549"><ele>88.0</ele><time>2026-04-30T14:07:39.705Z</time></trkpt><trkpt lat="40.5200634" lon="8.3424286"><ele>88.0</ele><time>2026-04-30T14:07:40.706Z</time></trkpt><trkpt lat="40.5199004" lon="8.3424735"><ele>88.0</ele><time>2026-04-30T14:07:41.705Z</time></trkpt><trkpt lat="40.5197392" lon="8.3424866"><ele>88.0</ele><time>2026-04-30T14:07:42.704Z</time></trkpt><trkpt lat="40.5195749" lon="8.3424671"><ele>89.33333333333333</ele><time>2026-04-30T14:07:43.706Z</time></trkpt><trkpt lat="40.5194048" lon="8.3424362"><ele>90.66666666666667</ele><time>2026-04-30T14:07:44.704Z</time></trkpt><trkpt lat="40.5192257" lon="8.3423998"><ele>92.0</ele><time>2026-04-30T14:07:45.706Z</time></trkpt><trkpt lat="40.5190341" lon="8.3423649"><ele>92.0</ele><time>2026-04-30T14:07:46.705Z</time></trkpt><trkpt lat="40.5188321" lon="8.342339"><ele>92.0</ele><time>2026-04-30T14:07:47.706Z</time></trkpt><trkpt lat="40.5186256" lon="8.3423128"><ele>92.0</ele><time>2026-04-30T14:07:48.706Z</time></trkpt><trkpt lat="40.518412" lon="8.3422976"><ele>92.33333333333334</ele><time>2026-04-30T14:07:49.705Z</time></trkpt><trkpt lat="40.518194" lon="8.3422882"><ele>92.66666666666667</ele><time>2026-04-30T14:07:50.702Z</time></trkpt><trkpt lat="40.5179701" lon="8.342286"><ele>93.0</ele><time>2026-04-30T14:07:51.705Z</time></trkpt><trkpt lat="40.517742" lon="8.3422869"><ele>93.0</ele><time>2026-04-30T14:07:52.706Z</time></trkpt><trkpt lat="40.5175153" lon="8.3422802"><ele>93.0</ele><time>2026-04-30T14:07:53.705Z</time></trkpt><trkpt lat="40.5173008" lon="8.3422758"><ele>93.0</ele><time>2026-04-30T14:07:54.705Z</time></trkpt><trkpt lat="40.5170887" lon="8.3422726"><ele>93.0</ele><time>2026-04-30T14:07:55.706Z</time></trkpt><trkpt lat="40.5168759" lon="8.3422731"><ele>93.0</ele><time>2026-04-30T14:07:56.705Z</time></trkpt><trkpt lat="40.516662" lon="8.3422741"><ele>93.0</ele><time>2026-04-30T14:07:57.706Z</time></trkpt><trkpt lat="40.5164575" lon="8.3422728"><ele>93.0</ele><time>2026-04-30T14:07:58.702Z</time></trkpt><trkpt lat="40.5162555" lon="8.3422681"><ele>93.0</ele><time>2026-04-30T14:07:59.703Z</time></trkpt><trkpt lat="40.5160771" lon="8.3422723"><ele>93.0</ele><time>2026-04-30T14:08:00.704Z</time></trkpt><trkpt lat="40.5159079" lon="8.3422665"><ele>93.66666666666667</ele><time>2026-04-30T14:08:01.706Z</time></trkpt><trkpt lat="40.5157387" lon="8.3422746"><ele>94.33333333333334</ele><time>2026-04-30T14:08:02.704Z</time></trkpt><trkpt lat="40.5155748" lon="8.3422978"><ele>95.0</ele><time>2026-04-30T14:08:03.706Z</time></trkpt><trkpt lat="40.5154049" lon="8.3423497"><ele>94.66666666666667</ele><time>2026-04-30T14:08:04.704Z</time></trkpt><trkpt lat="40.5152426" lon="8.3424214"><ele>94.33333333333333</ele><time>2026-04-30T14:08:05.703Z</time></trkpt><trkpt lat="40.5150783" lon="8.3425179"><ele>94.0</ele><time>2026-04-30T14:08:06.706Z</time></trkpt><trkpt lat="40.5149033" lon="8.3426254"><ele>94.0</ele><time>2026-04-30T14:08:07.705Z</time></trkpt><trkpt lat="40.5147269" lon="8.3427338"><ele>94.0</ele><time>2026-04-30T14:08:08.706Z</time></trkpt><trkpt lat="40.5145469" lon="8.3428436"><ele>94.0</ele><time>2026-04-30T14:08:09.706Z</time></trkpt><trkpt lat="40.5143841" lon="8.3429549"><ele>94.66666666666666</ele><time>2026-04-30T14:08:10.706Z</time></trkpt><trkpt lat="40.5142347" lon="8.3430837"><ele>95.33333333333333</ele><time>2026-04-30T14:08:11.706Z</time></trkpt><trkpt lat="40.5140996" lon="8.3432236"><ele>96.0</ele><time>2026-04-30T14:08:12.701Z</time></trkpt><trkpt lat="40.5139826" lon="8.3434005"><ele>96.0</ele><time>2026-04-30T14:08:13.706Z</time></trkpt><trkpt lat="40.5138717" lon="8.3435845"><ele>96.0</ele><time>2026-04-30T14:08:14.706Z</time></trkpt><trkpt lat="40.5137643" lon="8.3437751"><ele>96.0</ele><time>2026-04-30T14:08:15.705Z</time></trkpt><trkpt lat="40.5136538" lon="8.3439816"><ele>95.66666666666667</ele><time>2026-04-30T14:08:16.706Z</time></trkpt><trkpt lat="40.5135363" lon="8.3441825"><ele>95.33333333333334</ele><time>2026-04-30T14:08:17.704Z</time></trkpt><trkpt lat="40.513423" lon="8.3443789"><ele>95.0</ele><time>2026-04-30T14:08:18.706Z</time></trkpt><trkpt lat="40.513313" lon="8.344576"><ele>96.33333333333334</ele><time>2026-04-30T14:08:19.704Z</time></trkpt><trkpt lat="40.5132066" lon="8.3447598"><ele>97.66666666666667</ele><time>2026-04-30T14:08:20.705Z</time></trkpt><trkpt lat="40.513104" lon="8.3449414"><ele>99.0</ele><time>2026-04-30T14:08:21.706Z</time></trkpt><trkpt lat="40.5129998" lon="8.3451246"><ele>99.0</ele><time>2026-04-30T14:08:22.706Z</time></trkpt><trkpt lat="40.5128992" lon="8.3453087"><ele>99.0</ele><time>2026-04-30T14:08:23.706Z</time></trkpt><trkpt lat="40.5128043" lon="8.3454804"><ele>99.0</ele><time>2026-04-30T14:08:24.701Z</time></trkpt><trkpt lat="40.5127123" lon="8.3456484"><ele>99.0</ele><time>2026-04-30T14:08:25.701Z</time></trkpt><trkpt lat="40.5126195" lon="8.3458291"><ele>99.0</ele><time>2026-04-30T14:08:26.702Z</time></trkpt><trkpt lat="40.5125381" lon="8.3460161"><ele>99.0</ele><time>2026-04-30T14:08:27.703Z</time></trkpt><trkpt lat="40.5124707" lon="8.3462085"><ele>99.0</ele><time>2026-04-30T14:08:28.705Z</time></trkpt><trkpt lat="40.5124327" lon="8.3464162"><ele>99.0</ele><time>2026-04-30T14:08:29.703Z</time></trkpt><trkpt lat="40.5123968" lon="8.3466317"><ele>99.0</ele><time>2026-04-30T14:08:30.704Z</time></trkpt><trkpt lat="40.5123683" lon="8.3468465"><ele>99.0</ele><time>2026-04-30T14:08:31.706Z</time></trkpt><trkpt lat="40.5123394" lon="8.3470614"><ele>99.0</ele><time>2026-04-30T14:08:32.704Z</time></trkpt><trkpt lat="40.5123103" lon="8.3472898"><ele>99.0</ele><time>2026-04-30T14:08:33.703Z</time></trkpt><trkpt lat="40.5122796" lon="8.3475204"><ele>99.66666666666666</ele><time>2026-04-30T14:08:34.703Z</time></trkpt><trkpt lat="40.5122475" lon="8.3477575"><ele>100.33333333333333</ele><time>2026-04-30T14:08:35.703Z</time></trkpt><trkpt lat="40.5122164" lon="8.3479895"><ele>101.0</ele><time>2026-04-30T14:08:36.705Z</time></trkpt><trkpt lat="40.5121911" lon="8.3482077"><ele>101.33333333333333</ele><time>2026-04-30T14:08:37.706Z</time></trkpt><trkpt lat="40.5121764" lon="8.3484209"><ele>101.66666666666666</ele><time>2026-04-30T14:08:38.706Z</time></trkpt><trkpt lat="40.5121817" lon="8.3486331"><ele>102.0</ele><time>2026-04-30T14:08:39.706Z</time></trkpt><trkpt lat="40.5122008" lon="8.3488433"><ele>103.0</ele><time>2026-04-30T14:08:40.705Z</time></trkpt><trkpt lat="40.5122286" lon="8.349058"><ele>104.0</ele><time>2026-04-30T14:08:41.706Z</time></trkpt><trkpt lat="40.5122572" lon="8.3492759"><ele>105.0</ele><time>2026-04-30T14:08:42.704Z</time></trkpt><trkpt lat="40.5122911" lon="8.349507"><ele>105.33333333333334</ele><time>2026-04-30T14:08:43.706Z</time></trkpt><trkpt lat="40.512326" lon="8.3497374"><ele>105.66666666666667</ele><time>2026-04-30T14:08:44.702Z</time></trkpt><trkpt lat="40.5123582" lon="8.349975"><ele>106.0</ele><time>2026-04-30T14:08:45.704Z</time></trkpt><trkpt lat="40.512391" lon="8.3502167"><ele>106.0</ele><time>2026-04-30T14:08:46.705Z</time></trkpt><trkpt lat="40.5124256" lon="8.3504575"><ele>106.0</ele><time>2026-04-30T14:08:47.704Z</time></trkpt><trkpt lat="40.5124666" lon="8.3507079"><ele>106.0</ele><time>2026-04-30T14:08:48.704Z</time></trkpt><trkpt lat="40.5125033" lon="8.350973"><ele>105.66666666666667</ele><time>2026-04-30T14:08:49.703Z</time></trkpt><trkpt lat="40.5125363" lon="8.3512345"><ele>105.33333333333334</ele><time>2026-04-30T14:08:50.706Z</time></trkpt><trkpt lat="40.5125724" lon="8.3514971"><ele>105.0</ele><time>2026-04-30T14:08:51.704Z</time></trkpt><trkpt lat="40.5126074" lon="8.3517503"><ele>106.66666666666666</ele><time>2026-04-30T14:08:52.706Z</time></trkpt><trkpt lat="40.5126431" lon="8.3519976"><ele>108.33333333333333</ele><time>2026-04-30T14:08:53.706Z</time></trkpt><trkpt lat="40.5126768" lon="8.3522461"><ele>110.0</ele><time>2026-04-30T14:08:54.703Z</time></trkpt><trkpt lat="40.5127097" lon="8.352474"><ele>110.0</ele><time>2026-04-30T14:08:55.705Z</time></trkpt><trkpt lat="40.512731" lon="8.3526905"><ele>110.0</ele><time>2026-04-30T14:08:56.703Z</time></trkpt><trkpt lat="40.5127309" lon="8.3528892"><ele>110.0</ele><time>2026-04-30T14:08:57.705Z</time></trkpt><trkpt lat="40.5126984" lon="8.3530643"><ele>110.0</ele><time>2026-04-30T14:08:58.705Z</time></trkpt><trkpt lat="40.5126299" lon="8.3532426"><ele>110.0</ele><time>2026-04-30T14:08:59.7Z</time></trkpt><trkpt lat="40.5125405" lon="8.35342"><ele>110.0</ele><time>2026-04-30T14:09:00.706Z</time></trkpt><trkpt lat="40.5124444" lon="8.3536057"><ele>110.0</ele><time>2026-04-30T14:09:01.702Z</time></trkpt><trkpt lat="40.5123439" lon="8.3537954"><ele>110.0</ele><time>2026-04-30T14:09:02.704Z</time></trkpt><trkpt lat="40.5122464" lon="8.3539849"><ele>110.0</ele><time>2026-04-30T14:09:03.703Z</time></trkpt><trkpt lat="40.5121468" lon="8.3541757"><ele>107.0</ele><time>2026-04-30T14:09:04.702Z</time></trkpt><trkpt lat="40.5120441" lon="8.3543785"><ele>104.0</ele><time>2026-04-30T14:09:05.706Z</time></trkpt><trkpt lat="40.5119387" lon="8.3545908"><ele>101.0</ele><time>2026-04-30T14:09:06.706Z</time></trkpt><trkpt lat="40.5118268" lon="8.3547946"><ele>98.66666666666666</ele><time>2026-04-30T14:09:07.703Z</time></trkpt><trkpt lat="40.5117081" lon="8.3549877"><ele>96.33333333333333</ele><time>2026-04-30T14:09:08.706Z</time></trkpt><trkpt lat="40.5115779" lon="8.3551618"><ele>94.0</ele><time>2026-04-30T14:09:09.703Z</time></trkpt><trkpt lat="40.5114374" lon="8.3553235"><ele>94.0</ele><time>2026-04-30T14:09:10.706Z</time></trkpt><trkpt lat="40.5112853" lon="8.3554812"><ele>94.0</ele><time>2026-04-30T14:09:11.704Z</time></trkpt><trkpt lat="40.5111233" lon="8.3556376"><ele>94.0</ele><time>2026-04-30T14:09:12.703Z</time></trkpt><trkpt lat="40.5109522" lon="8.3557914"><ele>91.0</ele><time>2026-04-30T14:09:13.704Z</time></trkpt><trkpt lat="40.5107922" lon="8.3559468"><ele>88.0</ele><time>2026-04-30T14:09:14.703Z</time></trkpt><trkpt lat="40.5106437" lon="8.3560955"><ele>85.0</ele><time>2026-04-30T14:09:15.706Z</time></trkpt><trkpt lat="40.5105056" lon="8.3562385"><ele>82.66666666666666</ele><time>2026-04-30T14:09:16.701Z</time></trkpt><trkpt lat="40.5103674" lon="8.3563676"><ele>80.33333333333333</ele><time>2026-04-30T14:09:17.704Z</time></trkpt><trkpt lat="40.5102312" lon="8.3564779"><ele>78.0</ele><time>2026-04-30T14:09:18.704Z</time></trkpt><trkpt lat="40.51009" lon="8.3565593"><ele>77.33333333333333</ele><time>2026-04-30T14:09:19.706Z</time></trkpt><trkpt lat="40.5099385" lon="8.3565976"><ele>76.66666666666666</ele><time>2026-04-30T14:09:20.705Z</time></trkpt><trkpt lat="40.509769" lon="8.3566148"><ele>76.0</ele><time>2026-04-30T14:09:21.704Z</time></trkpt><trkpt lat="40.5095921" lon="8.3566158"><ele>73.33333333333333</ele><time>2026-04-30T14:09:22.704Z</time></trkpt><trkpt lat="40.5094031" lon="8.3566061"><ele>70.66666666666667</ele><time>2026-04-30T14:09:23.705Z</time></trkpt><trkpt lat="40.5091982" lon="8.3565885"><ele>68.0</ele><time>2026-04-30T14:09:24.705Z</time></trkpt><trkpt lat="40.5089827" lon="8.3565703"><ele>68.0</ele><time>2026-04-30T14:09:25.706Z</time></trkpt><trkpt lat="40.5087525" lon="8.3565576"><ele>68.0</ele><time>2026-04-30T14:09:26.706Z</time></trkpt><trkpt lat="40.5085165" lon="8.3565444"><ele>65.5</ele><time>2026-04-30T14:09:27.706Z</time></trkpt><trkpt lat="40.5082764" lon="8.3565304"><ele>63.0</ele><time>2026-04-30T14:09:28.703Z</time></trkpt><trkpt lat="40.5080229" lon="8.3565173"><ele>61.0</ele><time>2026-04-30T14:09:29.706Z</time></trkpt><trkpt lat="40.5077616" lon="8.3565053"><ele>59.0</ele><time>2026-04-30T14:09:30.703Z</time></trkpt><trkpt lat="40.5075013" lon="8.3564926"><ele>59.0</ele><time>2026-04-30T14:09:31.706Z</time></trkpt><trkpt lat="40.5072502" lon="8.3564723"><ele>59.0</ele><time>2026-04-30T14:09:32.705Z</time></trkpt><trkpt lat="40.5070091" lon="8.3564592"><ele>57.5</ele><time>2026-04-30T14:09:33.705Z</time></trkpt><trkpt lat="40.5067768" lon="8.3564461"><ele>56.0</ele><time>2026-04-30T14:09:34.701Z</time></trkpt><trkpt lat="40.5065587" lon="8.3564447"><ele>56.0</ele><time>2026-04-30T14:09:35.701Z</time></trkpt><trkpt lat="40.5063543" lon="8.3564739"><ele>56.0</ele><time>2026-04-30T14:09:36.704Z</time></trkpt><trkpt lat="40.5061668" lon="8.356535"><ele>56.0</ele><time>2026-04-30T14:09:37.704Z</time></trkpt><trkpt lat="40.5059826" lon="8.3566254"><ele>56.333333333333336</ele><time>2026-04-30T14:09:38.701Z</time></trkpt><trkpt lat="40.5058037" lon="8.3567378"><ele>56.66666666666667</ele><time>2026-04-30T14:09:39.704Z</time></trkpt><trkpt lat="40.5056325" lon="8.3568624"><ele>57.0</ele><time>2026-04-30T14:09:40.701Z</time></trkpt><trkpt lat="40.5054478" lon="8.3569903"><ele>58.33333333333333</ele><time>2026-04-30T14:09:41.706Z</time></trkpt><trkpt lat="40.5052646" lon="8.3571186"><ele>59.666666666666664</ele><time>2026-04-30T14:09:42.705Z</time></trkpt><trkpt lat="40.5050783" lon="8.3572482"><ele>61.0</ele><time>2026-04-30T14:09:43.704Z</time></trkpt><trkpt lat="40.5048859" lon="8.3573785"><ele>61.0</ele><time>2026-04-30T14:09:44.704Z</time></trkpt><trkpt lat="40.5046908" lon="8.3574871"><ele>61.0</ele><time>2026-04-30T14:09:45.704Z</time></trkpt><trkpt lat="40.5044877" lon="8.3575879"><ele>61.0</ele><time>2026-04-30T14:09:46.701Z</time></trkpt><trkpt lat="40.5042762" lon="8.3576796"><ele>62.5</ele><time>2026-04-30T14:09:47.706Z</time></trkpt><trkpt lat="40.504061" lon="8.3577721"><ele>64.0</ele><time>2026-04-30T14:09:48.704Z</time></trkpt><trkpt lat="40.5038463" lon="8.3578603"><ele>64.33333333333333</ele><time>2026-04-30T14:09:49.705Z</time></trkpt><trkpt lat="40.5036447" lon="8.3579415"><ele>64.66666666666667</ele><time>2026-04-30T14:09:50.704Z</time></trkpt><trkpt lat="40.5034575" lon="8.358021"><ele>65.0</ele><time>2026-04-30T14:09:51.706Z</time></trkpt><trkpt lat="40.5032977" lon="8.3581091"><ele>65.0</ele><time>2026-04-30T14:09:52.706Z</time></trkpt><trkpt lat="40.5031611" lon="8.358223"><ele>65.0</ele><time>2026-04-30T14:09:53.701Z</time></trkpt><trkpt lat="40.5030467" lon="8.3583597"><ele>65.0</ele><time>2026-04-30T14:09:54.703Z</time></trkpt><trkpt lat="40.5029554" lon="8.358518"><ele>68.33333333333334</ele><time>2026-04-30T14:09:55.706Z</time></trkpt><trkpt lat="40.5028781" lon="8.3586901"><ele>71.66666666666667</ele><time>2026-04-30T14:09:56.705Z</time></trkpt><trkpt lat="40.5028047" lon="8.358884"><ele>75.0</ele><time>2026-04-30T14:09:57.703Z</time></trkpt><trkpt lat="40.5027325" lon="8.3590674"><ele>75.0</ele><time>2026-04-30T14:09:58.704Z</time></trkpt><trkpt lat="40.5026554" lon="8.3592578"><ele>75.0</ele><time>2026-04-30T14:09:59.705Z</time></trkpt><trkpt lat="40.5025846" lon="8.3594469"><ele>75.0</ele><time>2026-04-30T14:10:00.706Z</time></trkpt><trkpt lat="40.5025207" lon="8.3596398"><ele>73.0</ele><time>2026-04-30T14:10:01.704Z</time></trkpt><trkpt lat="40.5024697" lon="8.3598386"><ele>71.0</ele><time>2026-04-30T14:10:02.704Z</time></trkpt><trkpt lat="40.5024392" lon="8.3600283"><ele>69.0</ele><time>2026-04-30T14:10:03.702Z</time></trkpt><trkpt lat="40.5024162" lon="8.3602183"><ele>69.0</ele><time>2026-04-30T14:10:04.7Z</time></trkpt><trkpt lat="40.5023968" lon="8.3604022"><ele>69.0</ele><time>2026-04-30T14:10:05.706Z</time></trkpt><trkpt lat="40.5023762" lon="8.3605933"><ele>69.0</ele><time>2026-04-30T14:10:06.7Z</time></trkpt><trkpt lat="40.5023482" lon="8.3607863"><ele>69.0</ele><time>2026-04-30T14:10:07.702Z</time></trkpt><trkpt lat="40.5023197" lon="8.3609835"><ele>67.33333333333333</ele><time>2026-04-30T14:10:08.705Z</time></trkpt><trkpt lat="40.5022862" lon="8.3611858"><ele>65.66666666666666</ele><time>2026-04-30T14:10:09.702Z</time></trkpt><trkpt lat="40.5022407" lon="8.3614013"><ele>64.0</ele><time>2026-04-30T14:10:10.703Z</time></trkpt><trkpt lat="40.5021855" lon="8.3616378"><ele>62.33333333333333</ele><time>2026-04-30T14:10:11.706Z</time></trkpt><trkpt lat="40.5021219" lon="8.3618957"><ele>60.66666666666667</ele><time>2026-04-30T14:10:12.706Z</time></trkpt><trkpt lat="40.5020569" lon="8.3621783"><ele>59.0</ele><time>2026-04-30T14:10:13.706Z</time></trkpt><trkpt lat="40.5019828" lon="8.3624912"><ele>65.0</ele><time>2026-04-30T14:10:14.706Z</time></trkpt><trkpt lat="40.501915" lon="8.3627896"><ele>71.0</ele><time>2026-04-30T14:10:15.702Z</time></trkpt><trkpt lat="40.5018474" lon="8.3630891"><ele>71.0</ele><time>2026-04-30T14:10:16.706Z</time></trkpt><trkpt lat="40.5017829" lon="8.3633789"><ele>71.0</ele><time>2026-04-30T14:10:17.702Z</time></trkpt><trkpt lat="40.5017176" lon="8.3636566"><ele>68.66666666666667</ele><time>2026-04-30T14:10:18.706Z</time></trkpt><trkpt lat="40.50165" lon="8.3639181"><ele>66.33333333333333</ele><time>2026-04-30T14:10:19.704Z</time></trkpt><trkpt lat="40.501585" lon="8.3641651"><ele>64.0</ele><time>2026-04-30T14:10:20.706Z</time></trkpt><trkpt lat="40.5015233" lon="8.3643988"><ele>64.0</ele><time>2026-04-30T14:10:21.706Z</time></trkpt><trkpt lat="40.5014559" lon="8.364615"><ele>64.0</ele><time>2026-04-30T14:10:22.703Z</time></trkpt><trkpt lat="40.5013737" lon="8.3648127"><ele>64.0</ele><time>2026-04-30T14:10:23.703Z</time></trkpt><trkpt lat="40.5012823" lon="8.3649945"><ele>66.33333333333333</ele><time>2026-04-30T14:10:24.705Z</time></trkpt><trkpt lat="40.501164" lon="8.3651597"><ele>68.66666666666667</ele><time>2026-04-30T14:10:25.705Z</time></trkpt><trkpt lat="40.5010273" lon="8.3653068"><ele>71.0</ele><time>2026-04-30T14:10:26.706Z</time></trkpt><trkpt lat="40.5008832" lon="8.3654316"><ele>64.0</ele><time>2026-04-30T14:10:27.706Z</time></trkpt><trkpt lat="40.500716" lon="8.3655506"><ele>57.0</ele><time>2026-04-30T14:10:28.705Z</time></trkpt><trkpt lat="40.5005504" lon="8.3656691"><ele>50.0</ele><time>2026-04-30T14:10:29.702Z</time></trkpt><trkpt lat="40.5003917" lon="8.3657814"><ele>50.0</ele><time>2026-04-30T14:10:30.706Z</time></trkpt><trkpt lat="40.5002325" lon="8.3658936"><ele>50.0</ele><time>2026-04-30T14:10:31.704Z</time></trkpt><trkpt lat="40.500072" lon="8.3660096"><ele>50.0</ele><time>2026-04-30T14:10:32.704Z</time></trkpt><trkpt lat="40.4999156" lon="8.3661362"><ele>50.0</ele><time>2026-04-30T14:10:33.706Z</time></trkpt><trkpt lat="40.499775" lon="8.3662763"><ele>50.0</ele><time>2026-04-30T14:10:34.706Z</time></trkpt><trkpt lat="40.4996557" lon="8.3664372"><ele>50.0</ele><time>2026-04-30T14:10:35.706Z</time></trkpt><trkpt lat="40.4995716" lon="8.3666081"><ele>48.66666666666667</ele><time>2026-04-30T14:10:36.703Z</time></trkpt><trkpt lat="40.4995211" lon="8.3668074"><ele>47.333333333333336</ele><time>2026-04-30T14:10:37.706Z</time></trkpt><trkpt lat="40.4994996" lon="8.3670136"><ele>46.0</ele><time>2026-04-30T14:10:38.701Z</time></trkpt><trkpt lat="40.4994765" lon="8.3672158"><ele>42.0</ele><time>2026-04-30T14:10:39.706Z</time></trkpt><trkpt lat="40.4994407" lon="8.367409"><ele>38.0</ele><time>2026-04-30T14:10:40.706Z</time></trkpt><trkpt lat="40.4993825" lon="8.3676009"><ele>34.0</ele><time>2026-04-30T14:10:41.703Z</time></trkpt><trkpt lat="40.4993058" lon="8.3677679"><ele>34.0</ele><time>2026-04-30T14:10:42.706Z</time></trkpt><trkpt lat="40.4992108" lon="8.367899"><ele>34.0</ele><time>2026-04-30T14:10:43.706Z</time></trkpt><trkpt lat="40.4990943" lon="8.3679923"><ele>34.0</ele><time>2026-04-30T14:10:44.704Z</time></trkpt><trkpt lat="40.4989637" lon="8.3680525"><ele>34.0</ele><time>2026-04-30T14:10:45.705Z</time></trkpt><trkpt lat="40.4988187" lon="8.3680851"><ele>33.333333333333336</ele><time>2026-04-30T14:10:46.704Z</time></trkpt><trkpt lat="40.4986602" lon="8.3680732"><ele>32.666666666666664</ele><time>2026-04-30T14:10:47.702Z</time></trkpt><trkpt lat="40.4984911" lon="8.3680285"><ele>32.0</ele><time>2026-04-30T14:10:48.702Z</time></trkpt><trkpt lat="40.4983339" lon="8.3679764"><ele>32.0</ele><time>2026-04-30T14:10:49.706Z</time></trkpt><trkpt lat="40.4981895" lon="8.3679347"><ele>32.0</ele><time>2026-04-30T14:10:50.706Z</time></trkpt><trkpt lat="40.4980589" lon="8.3679186"><ele>32.0</ele><time>2026-04-30T14:10:51.706Z</time></trkpt><trkpt lat="40.4979313" lon="8.3679452"><ele>32.0</ele><time>2026-04-30T14:10:52.705Z</time></trkpt><trkpt lat="40.4978289" lon="8.3680184"><ele>26.5</ele><time>2026-04-30T14:10:53.705Z</time></trkpt><trkpt lat="40.4977469" lon="8.3681301"><ele>21.0</ele><time>2026-04-30T14:10:54.705Z</time></trkpt><trkpt lat="40.4976937" lon="8.3682534"><ele>15.5</ele><time>2026-04-30T14:10:55.7Z</time></trkpt><trkpt lat="40.4976614" lon="8.3684002"><ele>10.0</ele><time>2026-04-30T14:10:56.706Z</time></trkpt><trkpt lat="40.4976273" lon="8.368573"><ele>10.0</ele><time>2026-04-30T14:10:57.704Z</time></trkpt><trkpt lat="40.4975927" lon="8.3687703"><ele>10.0</ele><time>2026-04-30T14:10:58.706Z</time></trkpt><trkpt lat="40.4975599" lon="8.3689817"><ele>10.0</ele><time>2026-04-30T14:10:59.703Z</time></trkpt><trkpt lat="40.4975291" lon="8.3691994"><ele>9.666666666666668</ele><time>2026-04-30T14:11:00.706Z</time></trkpt><trkpt lat="40.4974925" lon="8.3694387"><ele>9.333333333333334</ele><time>2026-04-30T14:11:01.702Z</time></trkpt><trkpt lat="40.4974578" lon="8.3696818"><ele>9.0</ele><time>2026-04-30T14:11:02.705Z</time></trkpt><trkpt lat="40.4974177" lon="8.369933"><ele>10.333333333333332</ele><time>2026-04-30T14:11:03.706Z</time></trkpt><trkpt lat="40.49738" lon="8.3701694"><ele>11.666666666666666</ele><time>2026-04-30T14:11:04.703Z</time></trkpt><trkpt lat="40.4973509" lon="8.3703923"><ele>13.0</ele><time>2026-04-30T14:11:05.706Z</time></trkpt><trkpt lat="40.4973176" lon="8.3705904"><ele>13.75</ele><time>2026-04-30T14:11:06.704Z</time></trkpt><trkpt lat="40.4972514" lon="8.3707501"><ele>14.5</ele><time>2026-04-30T14:11:07.701Z</time></trkpt><trkpt lat="40.4971776" lon="8.3708805"><ele>15.25</ele><time>2026-04-30T14:11:08.706Z</time></trkpt><trkpt lat="40.4970883" lon="8.3709771"><ele>16.0</ele><time>2026-04-30T14:11:09.703Z</time></trkpt><trkpt lat="40.4969677" lon="8.3710352"><ele>16.0</ele><time>2026-04-30T14:11:10.706Z</time></trkpt><trkpt lat="40.4968459" lon="8.3710877"><ele>16.0</ele><time>2026-04-30T14:11:11.705Z</time></trkpt><trkpt lat="40.4966844" lon="8.3711502"><ele>16.0</ele><time>2026-04-30T14:11:12.705Z</time></trkpt><trkpt lat="40.4965201" lon="8.371212"><ele>16.0</ele><time>2026-04-30T14:11:13.706Z</time></trkpt><trkpt lat="40.4963486" lon="8.3712748"><ele>16.0</ele><time>2026-04-30T14:11:14.703Z</time></trkpt><trkpt lat="40.4961726" lon="8.3713372"><ele>16.0</ele><time>2026-04-30T14:11:15.706Z</time></trkpt><trkpt lat="40.4959873" lon="8.3714108"><ele>17.0</ele><time>2026-04-30T14:11:16.705Z</time></trkpt><trkpt lat="40.4957973" lon="8.3714888"><ele>18.0</ele><time>2026-04-30T14:11:17.704Z</time></trkpt><trkpt lat="40.4956024" lon="8.3715717"><ele>19.0</ele><time>2026-04-30T14:11:18.705Z</time></trkpt><trkpt lat="40.4954104" lon="8.3716559"><ele>19.333333333333332</ele><time>2026-04-30T14:11:19.705Z</time></trkpt><trkpt lat="40.4952164" lon="8.371749"><ele>19.666666666666668</ele><time>2026-04-30T14:11:20.704Z</time></trkpt><trkpt lat="40.4950205" lon="8.3718494"><ele>20.0</ele><time>2026-04-30T14:11:21.706Z</time></trkpt><trkpt lat="40.4948265" lon="8.3719479"><ele>20.0</ele><time>2026-04-30T14:11:22.701Z</time></trkpt><trkpt lat="40.4946441" lon="8.3720387"><ele>20.0</ele><time>2026-04-30T14:11:23.705Z</time></trkpt><trkpt lat="40.4944806" lon="8.372126"><ele>20.0</ele><time>2026-04-30T14:11:24.706Z</time></trkpt><trkpt lat="40.4943289" lon="8.3722242"><ele>22.0</ele><time>2026-04-30T14:11:25.702Z</time></trkpt><trkpt lat="40.4941835" lon="8.3723371"><ele>24.0</ele><time>2026-04-30T14:11:26.706Z</time></trkpt><trkpt lat="40.4940492" lon="8.3724788"><ele>26.0</ele><time>2026-04-30T14:11:27.704Z</time></trkpt><trkpt lat="40.4939225" lon="8.372636"><ele>26.0</ele><time>2026-04-30T14:11:28.704Z</time></trkpt><trkpt lat="40.4938011" lon="8.3728149"><ele>26.0</ele><time>2026-04-30T14:11:29.705Z</time></trkpt><trkpt lat="40.4936815" lon="8.3730015"><ele>26.0</ele><time>2026-04-30T14:11:30.704Z</time></trkpt><trkpt lat="40.4935571" lon="8.3731855"><ele>27.666666666666664</ele><time>2026-04-30T14:11:31.703Z</time></trkpt><trkpt lat="40.493428" lon="8.3733788"><ele>29.333333333333336</ele><time>2026-04-30T14:11:32.706Z</time></trkpt><trkpt lat="40.4933088" lon="8.3735468"><ele>31.0</ele><time>2026-04-30T14:11:33.704Z</time></trkpt><trkpt lat="40.493185" lon="8.3736981"><ele>31.0</ele><time>2026-04-30T14:11:34.702Z</time></trkpt><trkpt lat="40.4930532" lon="8.373809"><ele>31.0</ele><time>2026-04-30T14:11:35.705Z</time></trkpt><trkpt lat="40.492915" lon="8.373884"><ele>31.0</ele><time>2026-04-30T14:11:36.705Z</time></trkpt><trkpt lat="40.492769" lon="8.3739285"><ele>33.66666666666667</ele><time>2026-04-30T14:11:37.706Z</time></trkpt><trkpt lat="40.4926036" lon="8.3739695"><ele>36.333333333333336</ele><time>2026-04-30T14:11:38.706Z</time></trkpt><trkpt lat="40.4924363" lon="8.3740017"><ele>39.0</ele><time>2026-04-30T14:11:39.705Z</time></trkpt><trkpt lat="40.4922845" lon="8.3740443"><ele>39.0</ele><time>2026-04-30T14:11:40.706Z</time></trkpt><trkpt lat="40.4921344" lon="8.3741061"><ele>39.0</ele><time>2026-04-30T14:11:41.706Z</time></trkpt><trkpt lat="40.4919951" lon="8.3741909"><ele>39.0</ele><time>2026-04-30T14:11:42.705Z</time></trkpt><trkpt lat="40.4918513" lon="8.3742934"><ele>36.666666666666664</ele><time>2026-04-30T14:11:43.7Z</time></trkpt><trkpt lat="40.4917079" lon="8.3744054"><ele>34.33333333333333</ele><time>2026-04-30T14:11:44.703Z</time></trkpt><trkpt lat="40.4915623" lon="8.3745309"><ele>32.0</ele><time>2026-04-30T14:11:45.705Z</time></trkpt><trkpt lat="40.4914225" lon="8.3746591"><ele>35.33333333333333</ele><time>2026-04-30T14:11:46.703Z</time></trkpt><trkpt lat="40.4912738" lon="8.3747794"><ele>38.666666666666664</ele><time>2026-04-30T14:11:47.704Z</time></trkpt><trkpt lat="40.4911235" lon="8.3748992"><ele>42.0</ele><time>2026-04-30T14:11:48.704Z</time></trkpt><trkpt lat="40.4909742" lon="8.3750267"><ele>42.0</ele><time>2026-04-30T14:11:49.705Z</time></trkpt><trkpt lat="40.4908464" lon="8.3751389"><ele>42.0</ele><time>2026-04-30T14:11:50.706Z</time></trkpt><trkpt lat="40.490717" lon="8.3752524"><ele>42.0</ele><time>2026-04-30T14:11:51.706Z</time></trkpt><trkpt lat="40.4905967" lon="8.375368"><ele>42.75</ele><time>2026-04-30T14:11:52.704Z</time></trkpt><trkpt lat="40.4905047" lon="8.3755223"><ele>43.5</ele><time>2026-04-30T14:11:53.7Z</time></trkpt><trkpt lat="40.4904302" lon="8.3756835"><ele>44.25</ele><time>2026-04-30T14:11:54.705Z</time></trkpt><trkpt lat="40.4903703" lon="8.3758646"><ele>45.0</ele><time>2026-04-30T14:11:55.703Z</time></trkpt><trkpt lat="40.4903417" lon="8.3760576"><ele>45.0</ele><time>2026-04-30T14:11:56.703Z</time></trkpt><trkpt lat="40.490347" lon="8.3762454"><ele>45.0</ele><time>2026-04-30T14:11:57.706Z</time></trkpt><trkpt lat="40.4903843" lon="8.3764426"><ele>45.0</ele><time>2026-04-30T14:11:58.705Z</time></trkpt><trkpt lat="40.4904481" lon="8.3766326"><ele>49.33333333333333</ele><time>2026-04-30T14:11:59.704Z</time></trkpt><trkpt lat="40.4905388" lon="8.376824"><ele>53.666666666666664</ele><time>2026-04-30T14:12:00.701Z</time></trkpt><trkpt lat="40.4906344" lon="8.3770327"><ele>58.0</ele><time>2026-04-30T14:12:01.7Z</time></trkpt><trkpt lat="40.4907206" lon="8.3772275"><ele>58.0</ele><time>2026-04-30T14:12:02.706Z</time></trkpt><trkpt lat="40.4907893" lon="8.3774252"><ele>58.0</ele><time>2026-04-30T14:12:03.701Z</time></trkpt><trkpt lat="40.4908282" lon="8.3776192"><ele>58.0</ele><time>2026-04-30T14:12:04.702Z</time></trkpt><trkpt lat="40.4908337" lon="8.3778011"><ele>58.0</ele><time>2026-04-30T14:12:05.704Z</time></trkpt><trkpt lat="40.4908106" lon="8.3779676"><ele>58.0</ele><time>2026-04-30T14:12:06.704Z</time></trkpt><trkpt lat="40.4907478" lon="8.3781285"><ele>58.0</ele><time>2026-04-30T14:12:07.702Z</time></trkpt><trkpt lat="40.490665" lon="8.3782719"><ele>58.0</ele><time>2026-04-30T14:12:08.705Z</time></trkpt><trkpt lat="40.4905433" lon="8.378382"><ele>56.5</ele><time>2026-04-30T14:12:09.705Z</time></trkpt><trkpt lat="40.4904088" lon="8.3784605"><ele>55.0</ele><time>2026-04-30T14:12:10.702Z</time></trkpt><trkpt lat="40.490262" lon="8.3784906"><ele>53.5</ele><time>2026-04-30T14:12:11.701Z</time></trkpt><trkpt lat="40.4901141" lon="8.3784704"><ele>52.0</ele><time>2026-04-30T14:12:12.702Z</time></trkpt><trkpt lat="40.4899761" lon="8.3783969"><ele>52.0</ele><time>2026-04-30T14:12:13.703Z</time></trkpt><trkpt lat="40.4898439" lon="8.3782897"><ele>52.0</ele><time>2026-04-30T14:12:14.706Z</time></trkpt><trkpt lat="40.4897141" lon="8.3781373"><ele>52.0</ele><time>2026-04-30T14:12:15.701Z</time></trkpt><trkpt lat="40.4896004" lon="8.3779673"><ele>50.0</ele><time>2026-04-30T14:12:16.705Z</time></trkpt><trkpt lat="40.4894923" lon="8.3778075"><ele>48.0</ele><time>2026-04-30T14:12:17.703Z</time></trkpt><trkpt lat="40.4894169" lon="8.3776399"><ele>46.0</ele><time>2026-04-30T14:12:18.706Z</time></trkpt><trkpt lat="40.489359" lon="8.3774539"><ele>46.0</ele><time>2026-04-30T14:12:19.701Z</time></trkpt><trkpt lat="40.4893126" lon="8.3772417"><ele>46.0</ele><time>2026-04-30T14:12:20.706Z</time></trkpt><trkpt lat="40.4892681" lon="8.3769888"><ele>46.0</ele><time>2026-04-30T14:12:21.706Z</time></trkpt><trkpt lat="40.4892282" lon="8.3767439"><ele>43.0</ele><time>2026-04-30T14:12:22.706Z</time></trkpt><trkpt lat="40.4891964" lon="8.3765344"><ele>40.0</ele><time>2026-04-30T14:12:23.702Z</time></trkpt><trkpt lat="40.4891394" lon="8.3763399"><ele>37.0</ele><time>2026-04-30T14:12:24.705Z</time></trkpt><trkpt lat="40.489055" lon="8.3761691"><ele>35.25</ele><time>2026-04-30T14:12:25.703Z</time></trkpt><trkpt lat="40.4889678" lon="8.3760205"><ele>33.5</ele><time>2026-04-30T14:12:26.702Z</time></trkpt><trkpt lat="40.4888277" lon="8.3759372"><ele>31.75</ele><time>2026-04-30T14:12:27.706Z</time></trkpt><trkpt lat="40.4886861" lon="8.3758671"><ele>30.0</ele><time>2026-04-30T14:12:28.704Z</time></trkpt><trkpt lat="40.488521" lon="8.375865"><ele>29.333333333333336</ele><time>2026-04-30T14:12:29.706Z</time></trkpt><trkpt lat="40.4883626" lon="8.3758948"><ele>28.666666666666668</ele><time>2026-04-30T14:12:30.702Z</time></trkpt><trkpt lat="40.488205" lon="8.375976"><ele>28.0</ele><time>2026-04-30T14:12:31.702Z</time></trkpt><trkpt lat="40.4880233" lon="8.3760887"><ele>30.333333333333336</ele><time>2026-04-30T14:12:32.704Z</time></trkpt><trkpt lat="40.4878443" lon="8.3762229"><ele>32.666666666666664</ele><time>2026-04-30T14:12:33.703Z</time></trkpt><trkpt lat="40.487686" lon="8.3763547"><ele>35.0</ele><time>2026-04-30T14:12:34.706Z</time></trkpt><trkpt lat="40.4875326" lon="8.3764881"><ele>35.0</ele><time>2026-04-30T14:12:35.705Z</time></trkpt><trkpt lat="40.4874009" lon="8.3766342"><ele>35.0</ele><time>2026-04-30T14:12:36.702Z</time></trkpt><trkpt lat="40.4872888" lon="8.3767873"><ele>35.0</ele><time>2026-04-30T14:12:37.703Z</time></trkpt><trkpt lat="40.4871901" lon="8.3769618"><ele>35.0</ele><time>2026-04-30T14:12:38.705Z</time></trkpt><trkpt lat="40.4871077" lon="8.377154"><ele>35.0</ele><time>2026-04-30T14:12:39.703Z</time></trkpt><trkpt lat="40.4870394" lon="8.3773546"><ele>35.0</ele><time>2026-04-30T14:12:40.701Z</time></trkpt><trkpt lat="40.4869984" lon="8.3775633"><ele>35.75</ele><time>2026-04-30T14:12:41.701Z</time></trkpt><trkpt lat="40.4869542" lon="8.3777509"><ele>36.5</ele><time>2026-04-30T14:12:42.702Z</time></trkpt><trkpt lat="40.4868804" lon="8.3779205"><ele>37.25</ele><time>2026-04-30T14:12:43.702Z</time></trkpt><trkpt lat="40.4867816" lon="8.3780698"><ele>38.0</ele><time>2026-04-30T14:12:44.704Z</time></trkpt><trkpt lat="40.4866737" lon="8.378199"><ele>38.0</ele><time>2026-04-30T14:12:45.703Z</time></trkpt><trkpt lat="40.4865136" lon="8.3782887"><ele>38.0</ele><time>2026-04-30T14:12:46.702Z</time></trkpt><trkpt lat="40.4863573" lon="8.3783753"><ele>38.0</ele><time>2026-04-30T14:12:47.701Z</time></trkpt><trkpt lat="40.4862009" lon="8.3784349"><ele>38.666666666666664</ele><time>2026-04-30T14:12:48.7Z</time></trkpt><trkpt lat="40.48604" lon="8.3784619"><ele>39.333333333333336</ele><time>2026-04-30T14:12:49.703Z</time></trkpt><trkpt lat="40.4858863" lon="8.3784501"><ele>40.0</ele><time>2026-04-30T14:12:50.704Z</time></trkpt><trkpt lat="40.4857525" lon="8.3783992"><ele>40.0</ele><time>2026-04-30T14:12:51.701Z</time></trkpt><trkpt lat="40.4856332" lon="8.3783114"><ele>40.0</ele><time>2026-04-30T14:12:52.706Z</time></trkpt><trkpt lat="40.4855328" lon="8.3781718"><ele>40.0</ele><time>2026-04-30T14:12:53.705Z</time></trkpt><trkpt lat="40.4854372" lon="8.3780105"><ele>40.0</ele><time>2026-04-30T14:12:54.706Z</time></trkpt><trkpt lat="40.4853509" lon="8.3778054"><ele>39.0</ele><time>2026-04-30T14:12:55.705Z</time></trkpt><trkpt lat="40.4852429" lon="8.3776229"><ele>38.0</ele><time>2026-04-30T14:12:56.702Z</time></trkpt><trkpt lat="40.4851173" lon="8.377461"><ele>37.0</ele><time>2026-04-30T14:12:57.704Z</time></trkpt><trkpt lat="40.4849821" lon="8.3773119"><ele>37.0</ele><time>2026-04-30T14:12:58.706Z</time></trkpt><trkpt lat="40.4848088" lon="8.3772333"><ele>37.0</ele><time>2026-04-30T14:12:59.704Z</time></trkpt><trkpt lat="40.4846268" lon="8.3771861"><ele>37.0</ele><time>2026-04-30T14:13:00.703Z</time></trkpt><trkpt lat="40.4844432" lon="8.3771729"><ele>36.66666666666667</ele><time>2026-04-30T14:13:01.705Z</time></trkpt><trkpt lat="40.4842555" lon="8.3772076"><ele>36.333333333333336</ele><time>2026-04-30T14:13:02.704Z</time></trkpt><trkpt lat="40.4840654" lon="8.3772953"><ele>36.0</ele><time>2026-04-30T14:13:03.703Z</time></trkpt><trkpt lat="40.4838724" lon="8.3774104"><ele>36.333333333333336</ele><time>2026-04-30T14:13:04.702Z</time></trkpt><trkpt lat="40.4836696" lon="8.3775318"><ele>36.66666666666667</ele><time>2026-04-30T14:13:05.706Z</time></trkpt><trkpt lat="40.4834727" lon="8.3776515"><ele>37.0</ele><time>2026-04-30T14:13:06.704Z</time></trkpt><trkpt lat="40.4832737" lon="8.3777552"><ele>37.0</ele><time>2026-04-30T14:13:07.702Z</time></trkpt><trkpt lat="40.4830702" lon="8.377843"><ele>37.0</ele><time>2026-04-30T14:13:08.706Z</time></trkpt><trkpt lat="40.4828575" lon="8.3778823"><ele>37.0</ele><time>2026-04-30T14:13:09.706Z</time></trkpt><trkpt lat="40.4826447" lon="8.3778928"><ele>35.5</ele><time>2026-04-30T14:13:10.704Z</time></trkpt><trkpt lat="40.4824207" lon="8.3778814"><ele>34.0</ele><time>2026-04-30T14:13:11.706Z</time></trkpt><trkpt lat="40.4821905" lon="8.3778549"><ele>32.0</ele><time>2026-04-30T14:13:12.706Z</time></trkpt><trkpt lat="40.4819533" lon="8.3778171"><ele>30.0</ele><time>2026-04-30T14:13:13.706Z</time></trkpt><trkpt lat="40.4817089" lon="8.3777803"><ele>30.0</ele><time>2026-04-30T14:13:14.706Z</time></trkpt><trkpt lat="40.4814625" lon="8.3777404"><ele>30.0</ele><time>2026-04-30T14:13:15.706Z</time></trkpt><trkpt lat="40.4812036" lon="8.3777065"><ele>29.0</ele><time>2026-04-30T14:13:16.706Z</time></trkpt><trkpt lat="40.480963" lon="8.3776729"><ele>28.0</ele><time>2026-04-30T14:13:17.705Z</time></trkpt><trkpt lat="40.4807363" lon="8.3776533"><ele>28.0</ele><time>2026-04-30T14:13:18.705Z</time></trkpt><trkpt lat="40.4805088" lon="8.3776589"><ele>28.0</ele><time>2026-04-30T14:13:19.702Z</time></trkpt><trkpt lat="40.480275" lon="8.3776861"><ele>29.5</ele><time>2026-04-30T14:13:20.704Z</time></trkpt><trkpt lat="40.4800384" lon="8.3777382"><ele>31.0</ele><time>2026-04-30T14:13:21.702Z</time></trkpt><trkpt lat="40.4798025" lon="8.3777958"><ele>31.0</ele><time>2026-04-30T14:13:22.702Z</time></trkpt><trkpt lat="40.4795544" lon="8.3778682"><ele>31.0</ele><time>2026-04-30T14:13:23.704Z</time></trkpt><trkpt lat="40.4793131" lon="8.3779454"><ele>41.0</ele><time>2026-04-30T14:13:24.702Z</time></trkpt><trkpt lat="40.4790851" lon="8.3780251"><ele>51.0</ele><time>2026-04-30T14:13:25.705Z</time></trkpt><trkpt lat="40.4788738" lon="8.37812"><ele>48.0</ele><time>2026-04-30T14:13:26.704Z</time></trkpt><trkpt lat="40.4786746" lon="8.3782321"><ele>45.0</ele><time>2026-04-30T14:13:27.705Z</time></trkpt><trkpt lat="40.4784899" lon="8.3783781"><ele>42.0</ele><time>2026-04-30T14:13:28.706Z</time></trkpt><trkpt lat="40.4783101" lon="8.3785505"><ele>42.0</ele><time>2026-04-30T14:13:29.705Z</time></trkpt><trkpt lat="40.478136" lon="8.3787471"><ele>42.0</ele><time>2026-04-30T14:13:30.704Z</time></trkpt><trkpt lat="40.4779595" lon="8.3789516"><ele>45.0</ele><time>2026-04-30T14:13:31.698Z</time></trkpt><trkpt lat="40.4777789" lon="8.3791558"><ele>48.0</ele><time>2026-04-30T14:13:32.703Z</time></trkpt><trkpt lat="40.4776058" lon="8.3793554"><ele>48.0</ele><time>2026-04-30T14:13:33.706Z</time></trkpt><trkpt lat="40.4774475" lon="8.3795332"><ele>48.0</ele><time>2026-04-30T14:13:34.705Z</time></trkpt><trkpt lat="40.4772939" lon="8.3796751"><ele>48.0</ele><time>2026-04-30T14:13:35.702Z</time></trkpt><trkpt lat="40.4771347" lon="8.3797857"><ele>48.66666666666667</ele><time>2026-04-30T14:13:36.706Z</time></trkpt><trkpt lat="40.4769687" lon="8.3798557"><ele>49.333333333333336</ele><time>2026-04-30T14:13:37.702Z</time></trkpt><trkpt lat="40.4767898" lon="8.3798926"><ele>50.0</ele><time>2026-04-30T14:13:38.703Z</time></trkpt><trkpt lat="40.4766002" lon="8.3799219"><ele>50.0</ele><time>2026-04-30T14:13:39.703Z</time></trkpt><trkpt lat="40.4764051" lon="8.3799531"><ele>50.0</ele><time>2026-04-30T14:13:40.703Z</time></trkpt><trkpt lat="40.476221" lon="8.3799949"><ele>50.0</ele><time>2026-04-30T14:13:41.706Z</time></trkpt><trkpt lat="40.4760471" lon="8.3800653"><ele>48.0</ele><time>2026-04-30T14:13:42.706Z</time></trkpt><trkpt lat="40.4758745" lon="8.3801661"><ele>46.0</ele><time>2026-04-30T14:13:43.7Z</time></trkpt><trkpt lat="40.4757064" lon="8.3803001"><ele>44.0</ele><time>2026-04-30T14:13:44.704Z</time></trkpt><trkpt lat="40.4755405" lon="8.380448"><ele>46.33333333333333</ele><time>2026-04-30T14:13:45.706Z</time></trkpt><trkpt lat="40.4753767" lon="8.3805942"><ele>48.666666666666664</ele><time>2026-04-30T14:13:46.705Z</time></trkpt><trkpt lat="40.4752037" lon="8.3807185"><ele>51.0</ele><time>2026-04-30T14:13:47.703Z</time></trkpt><trkpt lat="40.4750207" lon="8.3808186"><ele>51.0</ele><time>2026-04-30T14:13:48.702Z</time></trkpt><trkpt lat="40.4748231" lon="8.3808916"><ele>51.0</ele><time>2026-04-30T14:13:49.706Z</time></trkpt><trkpt lat="40.4746086" lon="8.3809437"><ele>51.0</ele><time>2026-04-30T14:13:50.703Z</time></trkpt><trkpt lat="40.4743992" lon="8.381009"><ele>49.666666666666664</ele><time>2026-04-30T14:13:51.706Z</time></trkpt><trkpt lat="40.4741906" lon="8.3810689"><ele>48.33333333333333</ele><time>2026-04-30T14:13:52.704Z</time></trkpt><trkpt lat="40.4739939" lon="8.3811147"><ele>47.0</ele><time>2026-04-30T14:13:53.706Z</time></trkpt><trkpt lat="40.4737973" lon="8.3811341"><ele>45.33333333333333</ele><time>2026-04-30T14:13:54.705Z</time></trkpt><trkpt lat="40.4736042" lon="8.381118"><ele>43.666666666666664</ele><time>2026-04-30T14:13:55.7Z</time></trkpt><trkpt lat="40.4734062" lon="8.3810821"><ele>42.0</ele><time>2026-04-30T14:13:56.706Z</time></trkpt><trkpt lat="40.4732299" lon="8.3810343"><ele>42.0</ele><time>2026-04-30T14:13:57.706Z</time></trkpt><trkpt lat="40.4730612" lon="8.381016"><ele>42.0</ele><time>2026-04-30T14:13:58.705Z</time></trkpt><trkpt lat="40.4728832" lon="8.3810283"><ele>42.0</ele><time>2026-04-30T14:13:59.706Z</time></trkpt><trkpt lat="40.472685" lon="8.3810581"><ele>40.5</ele><time>2026-04-30T14:14:00.7Z</time></trkpt><trkpt lat="40.4724684" lon="8.3810965"><ele>39.0</ele><time>2026-04-30T14:14:01.704Z</time></trkpt><trkpt lat="40.4722394" lon="8.3811388"><ele>35.5</ele><time>2026-04-30T14:14:02.704Z</time></trkpt><trkpt lat="40.4719858" lon="8.3811852"><ele>32.0</ele><time>2026-04-30T14:14:03.701Z</time></trkpt><trkpt lat="40.4717429" lon="8.3812327"><ele>32.0</ele><time>2026-04-30T14:14:04.704Z</time></trkpt><trkpt lat="40.4715214" lon="8.3812674"><ele>32.0</ele><time>2026-04-30T14:14:05.705Z</time></trkpt><trkpt lat="40.4713259" lon="8.3813052"><ele>32.0</ele><time>2026-04-30T14:14:06.706Z</time></trkpt><trkpt lat="40.4711502" lon="8.3813662"><ele>39.666666666666664</ele><time>2026-04-30T14:14:07.705Z</time></trkpt><trkpt lat="40.4709881" lon="8.3814587"><ele>47.33333333333333</ele><time>2026-04-30T14:14:08.705Z</time></trkpt><trkpt lat="40.4708399" lon="8.381578"><ele>55.0</ele><time>2026-04-30T14:14:09.704Z</time></trkpt><trkpt lat="40.4706962" lon="8.3816837"><ele>55.0</ele><time>2026-04-30T14:14:10.704Z</time></trkpt><trkpt lat="40.4705405" lon="8.381752"><ele>55.0</ele><time>2026-04-30T14:14:11.704Z</time></trkpt><trkpt lat="40.4704103" lon="8.3817901"><ele>55.0</ele><time>2026-04-30T14:14:12.704Z</time></trkpt><trkpt lat="40.4702882" lon="8.3817899"><ele>55.0</ele><time>2026-04-30T14:14:13.706Z</time></trkpt><trkpt lat="40.4701931" lon="8.3817352"><ele>54.75</ele><time>2026-04-30T14:14:14.703Z</time></trkpt><trkpt lat="40.4700973" lon="8.3816419"><ele>54.5</ele><time>2026-04-30T14:14:15.703Z</time></trkpt><trkpt lat="40.4700242" lon="8.3814977"><ele>54.25</ele><time>2026-04-30T14:14:16.705Z</time></trkpt><trkpt lat="40.4699612" lon="8.3813204"><ele>54.0</ele><time>2026-04-30T14:14:17.704Z</time></trkpt><trkpt lat="40.4698833" lon="8.3811394"><ele>47.333333333333336</ele><time>2026-04-30T14:14:18.703Z</time></trkpt><trkpt lat="40.4697798" lon="8.3809876"><ele>40.66666666666667</ele><time>2026-04-30T14:14:19.706Z</time></trkpt><trkpt lat="40.4696526" lon="8.3808791"><ele>34.0</ele><time>2026-04-30T14:14:20.706Z</time></trkpt><trkpt lat="40.4695083" lon="8.3808051"><ele>34.0</ele><time>2026-04-30T14:14:21.704Z</time></trkpt><trkpt lat="40.4693357" lon="8.3807736"><ele>34.0</ele><time>2026-04-30T14:14:22.703Z</time></trkpt><trkpt lat="40.4691466" lon="8.3807898"><ele>34.0</ele><time>2026-04-30T14:14:23.703Z</time></trkpt><trkpt lat="40.4689566" lon="8.3808591"><ele>30.666666666666668</ele><time>2026-04-30T14:14:24.703Z</time></trkpt><trkpt lat="40.4687707" lon="8.3809641"><ele>27.333333333333336</ele><time>2026-04-30T14:14:25.704Z</time></trkpt><trkpt lat="40.4686034" lon="8.3811121"><ele>24.0</ele><time>2026-04-30T14:14:26.701Z</time></trkpt><trkpt lat="40.4684605" lon="8.3813058"><ele>33.0</ele><time>2026-04-30T14:14:27.706Z</time></trkpt><trkpt lat="40.4683327" lon="8.3815393"><ele>42.0</ele><time>2026-04-30T14:14:28.702Z</time></trkpt><trkpt lat="40.468213" lon="8.381808"><ele>42.0</ele><time>2026-04-30T14:14:29.701Z</time></trkpt><trkpt lat="40.468102" lon="8.3820487"><ele>42.0</ele><time>2026-04-30T14:14:30.703Z</time></trkpt><trkpt lat="40.4679994" lon="8.3822734"><ele>42.0</ele><time>2026-04-30T14:14:31.702Z</time></trkpt><trkpt lat="40.4678679" lon="8.3824498"><ele>41.0</ele><time>2026-04-30T14:14:32.699Z</time></trkpt><trkpt lat="40.4677258" lon="8.382621"><ele>40.0</ele><time>2026-04-30T14:14:33.705Z</time></trkpt><trkpt lat="40.4675653" lon="8.3827936"><ele>39.0</ele><time>2026-04-30T14:14:34.705Z</time></trkpt><trkpt lat="40.4673902" lon="8.3829694"><ele>38.666666666666664</ele><time>2026-04-30T14:14:35.704Z</time></trkpt><trkpt lat="40.4672195" lon="8.3831491"><ele>38.33333333333333</ele><time>2026-04-30T14:14:36.706Z</time></trkpt><trkpt lat="40.4670454" lon="8.3833474"><ele>38.0</ele><time>2026-04-30T14:14:37.706Z</time></trkpt><trkpt lat="40.4668752" lon="8.3835691"><ele>38.0</ele><time>2026-04-30T14:14:38.706Z</time></trkpt><trkpt lat="40.4667246" lon="8.3838015"><ele>38.0</ele><time>2026-04-30T14:14:39.706Z</time></trkpt><trkpt lat="40.4665801" lon="8.384024"><ele>37.0</ele><time>2026-04-30T14:14:40.705Z</time></trkpt><trkpt lat="40.466446" lon="8.3842327"><ele>36.0</ele><time>2026-04-30T14:14:41.704Z</time></trkpt><trkpt lat="40.4663183" lon="8.3844208"><ele>35.0</ele><time>2026-04-30T14:14:42.705Z</time></trkpt><trkpt lat="40.4661893" lon="8.3845887"><ele>42.666666666666664</ele><time>2026-04-30T14:14:43.705Z</time></trkpt><trkpt lat="40.4660534" lon="8.3847164"><ele>50.33333333333333</ele><time>2026-04-30T14:14:44.7Z</time></trkpt><trkpt lat="40.4659038" lon="8.3848258"><ele>58.0</ele><time>2026-04-30T14:14:45.706Z</time></trkpt><trkpt lat="40.4657452" lon="8.3849146"><ele>58.0</ele><time>2026-04-30T14:14:46.704Z</time></trkpt><trkpt lat="40.4655717" lon="8.3850005"><ele>58.0</ele><time>2026-04-30T14:14:47.705Z</time></trkpt><trkpt lat="40.4653914" lon="8.3850778"><ele>58.0</ele><time>2026-04-30T14:14:48.704Z</time></trkpt><trkpt lat="40.4651961" lon="8.3851589"><ele>56.0</ele><time>2026-04-30T14:14:49.702Z</time></trkpt><trkpt lat="40.4650144" lon="8.3852424"><ele>54.0</ele><time>2026-04-30T14:14:50.702Z</time></trkpt><trkpt lat="40.4648248" lon="8.3853189"><ele>52.0</ele><time>2026-04-30T14:14:51.702Z</time></trkpt><trkpt lat="40.464633" lon="8.385389"><ele>49.666666666666664</ele><time>2026-04-30T14:14:52.701Z</time></trkpt><trkpt lat="40.4644297" lon="8.3854381"><ele>47.33333333333333</ele><time>2026-04-30T14:14:53.702Z</time></trkpt><trkpt lat="40.4642205" lon="8.3854932"><ele>45.0</ele><time>2026-04-30T14:14:54.701Z</time></trkpt><trkpt lat="40.4640136" lon="8.3855444"><ele>52.33333333333333</ele><time>2026-04-30T14:14:55.703Z</time></trkpt><trkpt lat="40.4638205" lon="8.385585"><ele>59.666666666666664</ele><time>2026-04-30T14:14:56.701Z</time></trkpt><trkpt lat="40.4636314" lon="8.3856315"><ele>67.0</ele><time>2026-04-30T14:14:57.705Z</time></trkpt><trkpt lat="40.46345" lon="8.3856811"><ele>67.0</ele><time>2026-04-30T14:14:58.702Z</time></trkpt><trkpt lat="40.4632691" lon="8.3857243"><ele>67.0</ele><time>2026-04-30T14:14:59.704Z</time></trkpt><trkpt lat="40.4630839" lon="8.3857578"><ele>67.0</ele><time>2026-04-30T14:15:00.705Z</time></trkpt><trkpt lat="40.4629005" lon="8.3857722"><ele>67.0</ele><time>2026-04-30T14:15:01.706Z</time></trkpt><trkpt lat="40.46271" lon="8.3857759"><ele>67.0</ele><time>2026-04-30T14:15:02.704Z</time></trkpt><trkpt lat="40.462525" lon="8.3857763"><ele>67.0</ele><time>2026-04-30T14:15:03.705Z</time></trkpt><trkpt lat="40.4623392" lon="8.3857712"><ele>67.0</ele><time>2026-04-30T14:15:04.701Z</time></trkpt><trkpt lat="40.4621537" lon="8.3857646"><ele>67.0</ele><time>2026-04-30T14:15:05.703Z</time></trkpt><trkpt lat="40.4619702" lon="8.3857567"><ele>67.0</ele><time>2026-04-30T14:15:06.706Z</time></trkpt><trkpt lat="40.4617995" lon="8.3857564"><ele>66.0</ele><time>2026-04-30T14:15:07.705Z</time></trkpt><trkpt lat="40.4616387" lon="8.3857482"><ele>65.0</ele><time>2026-04-30T14:15:08.703Z</time></trkpt><trkpt lat="40.4614899" lon="8.3857474"><ele>64.0</ele><time>2026-04-30T14:15:09.703Z</time></trkpt><trkpt lat="40.4613553" lon="8.385772"><ele>63.0</ele><time>2026-04-30T14:15:10.704Z</time></trkpt><trkpt lat="40.4612311" lon="8.3858333"><ele>62.75</ele><time>2026-04-30T14:15:11.705Z</time></trkpt><trkpt lat="40.4611124" lon="8.3859178"><ele>62.5</ele><time>2026-04-30T14:15:12.705Z</time></trkpt><trkpt lat="40.4610109" lon="8.3860152"><ele>62.25</ele><time>2026-04-30T14:15:13.706Z</time></trkpt><trkpt lat="40.4609115" lon="8.3861173"><ele>62.0</ele><time>2026-04-30T14:15:14.704Z</time></trkpt><trkpt lat="40.4608094" lon="8.3861904"><ele>62.0</ele><time>2026-04-30T14:15:15.706Z</time></trkpt><trkpt lat="40.4607071" lon="8.3862278"><ele>62.0</ele><time>2026-04-30T14:15:16.702Z</time></trkpt><trkpt lat="40.4605975" lon="8.3862233"><ele>62.0</ele><time>2026-04-30T14:15:17.703Z</time></trkpt><trkpt lat="40.4604915" lon="8.386186"><ele>62.0</ele><time>2026-04-30T14:15:18.703Z</time></trkpt><trkpt lat="40.4603864" lon="8.3861182"><ele>62.0</ele><time>2026-04-30T14:15:19.705Z</time></trkpt><trkpt lat="40.4602911" lon="8.386022"><ele>64.0</ele><time>2026-04-30T14:15:20.703Z</time></trkpt><trkpt lat="40.4601924" lon="8.3859215"><ele>66.0</ele><time>2026-04-30T14:15:21.702Z</time></trkpt><trkpt lat="40.4600752" lon="8.3858404"><ele>68.0</ele><time>2026-04-30T14:15:22.705Z</time></trkpt><trkpt lat="40.4599445" lon="8.3857848"><ele>70.0</ele><time>2026-04-30T14:15:23.703Z</time></trkpt><trkpt lat="40.459803" lon="8.3857492"><ele>70.0</ele><time>2026-04-30T14:15:24.701Z</time></trkpt><trkpt lat="40.4596571" lon="8.3857172"><ele>70.0</ele><time>2026-04-30T14:15:25.705Z</time></trkpt><trkpt lat="40.4594984" lon="8.3856889"><ele>70.0</ele><time>2026-04-30T14:15:26.702Z</time></trkpt><trkpt lat="40.4593494" lon="8.3856578"><ele>70.75</ele><time>2026-04-30T14:15:27.704Z</time></trkpt><trkpt lat="40.4592106" lon="8.385641"><ele>71.5</ele><time>2026-04-30T14:15:28.705Z</time></trkpt><trkpt lat="40.4590699" lon="8.3856516"><ele>72.25</ele><time>2026-04-30T14:15:29.704Z</time></trkpt><trkpt lat="40.4589368" lon="8.3857006"><ele>73.0</ele><time>2026-04-30T14:15:30.705Z</time></trkpt><trkpt lat="40.4588025" lon="8.3857831"><ele>67.66666666666666</ele><time>2026-04-30T14:15:31.702Z</time></trkpt><trkpt lat="40.4586621" lon="8.3858918"><ele>62.33333333333333</ele><time>2026-04-30T14:15:32.705Z</time></trkpt><trkpt lat="40.4585081" lon="8.3860153"><ele>57.0</ele><time>2026-04-30T14:15:33.703Z</time></trkpt><trkpt lat="40.4583576" lon="8.3861417"><ele>57.0</ele><time>2026-04-30T14:15:34.703Z</time></trkpt><trkpt lat="40.4581944" lon="8.3862422"><ele>57.0</ele><time>2026-04-30T14:15:35.705Z</time></trkpt><trkpt lat="40.4580175" lon="8.3863173"><ele>57.0</ele><time>2026-04-30T14:15:36.705Z</time></trkpt><trkpt lat="40.4578341" lon="8.3863629"><ele>62.33333333333333</ele><time>2026-04-30T14:15:37.704Z</time></trkpt><trkpt lat="40.4576394" lon="8.3863991"><ele>67.66666666666666</ele><time>2026-04-30T14:15:38.706Z</time></trkpt><trkpt lat="40.4574514" lon="8.3864198"><ele>73.0</ele><time>2026-04-30T14:15:39.704Z</time></trkpt><trkpt lat="40.4572648" lon="8.3864428"><ele>72.33333333333333</ele><time>2026-04-30T14:15:40.703Z</time></trkpt><trkpt lat="40.4570738" lon="8.3864802"><ele>71.66666666666667</ele><time>2026-04-30T14:15:41.704Z</time></trkpt><trkpt lat="40.4568907" lon="8.3865272"><ele>71.0</ele><time>2026-04-30T14:15:42.705Z</time></trkpt><trkpt lat="40.4567099" lon="8.3865935"><ele>71.0</ele><time>2026-04-30T14:15:43.704Z</time></trkpt><trkpt lat="40.4565254" lon="8.3866668"><ele>71.0</ele><time>2026-04-30T14:15:44.706Z</time></trkpt><trkpt lat="40.4563378" lon="8.3867402"><ele>71.0</ele><time>2026-04-30T14:15:45.702Z</time></trkpt><trkpt lat="40.456143" lon="8.3868167"><ele>69.66666666666667</ele><time>2026-04-30T14:15:46.705Z</time></trkpt><trkpt lat="40.4559484" lon="8.3868965"><ele>68.33333333333333</ele><time>2026-04-30T14:15:47.704Z</time></trkpt><trkpt lat="40.4557469" lon="8.3869736"><ele>67.0</ele><time>2026-04-30T14:15:48.703Z</time></trkpt><trkpt lat="40.4555442" lon="8.3870459"><ele>63.666666666666664</ele><time>2026-04-30T14:15:49.704Z</time></trkpt><trkpt lat="40.4553412" lon="8.3871162"><ele>60.33333333333333</ele><time>2026-04-30T14:15:50.706Z</time></trkpt><trkpt lat="40.4551433" lon="8.3871726"><ele>57.0</ele><time>2026-04-30T14:15:51.701Z</time></trkpt><trkpt lat="40.4549399" lon="8.3872416"><ele>64.0</ele><time>2026-04-30T14:15:52.701Z</time></trkpt><trkpt lat="40.4547378" lon="8.3873147"><ele>71.0</ele><time>2026-04-30T14:15:53.706Z</time></trkpt><trkpt lat="40.4545469" lon="8.387391"><ele>78.0</ele><time>2026-04-30T14:15:54.706Z</time></trkpt><trkpt lat="40.4543681" lon="8.3874568"><ele>78.0</ele><time>2026-04-30T14:15:55.706Z</time></trkpt><trkpt lat="40.4542009" lon="8.3875344"><ele>78.0</ele><time>2026-04-30T14:15:56.703Z</time></trkpt><trkpt lat="40.4540473" lon="8.3876323"><ele>78.0</ele><time>2026-04-30T14:15:57.705Z</time></trkpt><trkpt lat="40.4539215" lon="8.3877543"><ele>78.0</ele><time>2026-04-30T14:15:58.704Z</time></trkpt><trkpt lat="40.4538127" lon="8.3879125"><ele>78.0</ele><time>2026-04-30T14:15:59.7Z</time></trkpt><trkpt lat="40.4537102" lon="8.3880775"><ele>78.0</ele><time>2026-04-30T14:16:00.705Z</time></trkpt><trkpt lat="40.4536017" lon="8.3882269"><ele>81.33333333333333</ele><time>2026-04-30T14:16:01.705Z</time></trkpt><trkpt lat="40.4534851" lon="8.3883695"><ele>84.66666666666666</ele><time>2026-04-30T14:16:02.706Z</time></trkpt><trkpt lat="40.4533537" lon="8.3884994"><ele>88.0</ele><time>2026-04-30T14:16:03.706Z</time></trkpt><trkpt lat="40.4532109" lon="8.3886099"><ele>88.0</ele><time>2026-04-30T14:16:04.705Z</time></trkpt><trkpt lat="40.4530592" lon="8.3887051"><ele>88.0</ele><time>2026-04-30T14:16:05.702Z</time></trkpt><trkpt lat="40.4529056" lon="8.3887758"><ele>88.0</ele><time>2026-04-30T14:16:06.701Z</time></trkpt><trkpt lat="40.4527529" lon="8.3888144"><ele>85.66666666666666</ele><time>2026-04-30T14:16:07.705Z</time></trkpt><trkpt lat="40.4526023" lon="8.3888152"><ele>83.33333333333333</ele><time>2026-04-30T14:16:08.704Z</time></trkpt><trkpt lat="40.452442" lon="8.3887974"><ele>81.0</ele><time>2026-04-30T14:16:09.706Z</time></trkpt><trkpt lat="40.452284" lon="8.3887681"><ele>81.0</ele><time>2026-04-30T14:16:10.706Z</time></trkpt><trkpt lat="40.45215" lon="8.3887443"><ele>81.0</ele><time>2026-04-30T14:16:11.705Z</time></trkpt><trkpt lat="40.4520339" lon="8.3887495"><ele>81.0</ele><time>2026-04-30T14:16:12.703Z</time></trkpt><trkpt lat="40.4519261" lon="8.388805"><ele>81.0</ele><time>2026-04-30T14:16:13.703Z</time></trkpt><trkpt lat="40.4518438" lon="8.3889062"><ele>83.0</ele><time>2026-04-30T14:16:14.705Z</time></trkpt><trkpt lat="40.4517854" lon="8.3890409"><ele>85.0</ele><time>2026-04-30T14:16:15.704Z</time></trkpt><trkpt lat="40.4517461" lon="8.3892008"><ele>87.0</ele><time>2026-04-30T14:16:16.704Z</time></trkpt><trkpt lat="40.4517289" lon="8.389373"><ele>89.0</ele><time>2026-04-30T14:16:17.704Z</time></trkpt><trkpt lat="40.4517117" lon="8.3895361"><ele>95.0</ele><time>2026-04-30T14:16:18.7Z</time></trkpt><trkpt lat="40.4516835" lon="8.3896962"><ele>101.0</ele><time>2026-04-30T14:16:19.706Z</time></trkpt><trkpt lat="40.451631" lon="8.3898421"><ele>107.0</ele><time>2026-04-30T14:16:20.703Z</time></trkpt><trkpt lat="40.4515503" lon="8.3899733"><ele>113.0</ele><time>2026-04-30T14:16:21.703Z</time></trkpt><trkpt lat="40.4514418" lon="8.3900764"><ele>113.0</ele><time>2026-04-30T14:16:22.705Z</time></trkpt><trkpt lat="40.4513012" lon="8.3901663"><ele>113.0</ele><time>2026-04-30T14:16:23.702Z</time></trkpt><trkpt lat="40.4511538" lon="8.3902402"><ele>113.0</ele><time>2026-04-30T14:16:24.703Z</time></trkpt><trkpt lat="40.4509877" lon="8.3903178"><ele>117.33333333333333</ele><time>2026-04-30T14:16:25.704Z</time></trkpt><trkpt lat="40.4508127" lon="8.3904081"><ele>121.66666666666666</ele><time>2026-04-30T14:16:26.704Z</time></trkpt><trkpt lat="40.4506404" lon="8.3905113"><ele>126.0</ele><time>2026-04-30T14:16:27.704Z</time></trkpt><trkpt lat="40.4504616" lon="8.3906272"><ele>123.0</ele><time>2026-04-30T14:16:28.701Z</time></trkpt><trkpt lat="40.4502632" lon="8.3907549"><ele>120.0</ele><time>2026-04-30T14:16:29.704Z</time></trkpt><trkpt lat="40.4500804" lon="8.3908602"><ele>117.0</ele><time>2026-04-30T14:16:30.703Z</time></trkpt><trkpt lat="40.4499163" lon="8.3909679"><ele>117.0</ele><time>2026-04-30T14:16:31.705Z</time></trkpt><trkpt lat="40.4497767" lon="8.3910943"><ele>117.0</ele><time>2026-04-30T14:16:32.705Z</time></trkpt><trkpt lat="40.4496592" lon="8.3912294"><ele>117.0</ele><time>2026-04-30T14:16:33.703Z</time></trkpt><trkpt lat="40.4495379" lon="8.3913578"><ele>118.75</ele><time>2026-04-30T14:16:34.704Z</time></trkpt><trkpt lat="40.4494081" lon="8.3914538"><ele>120.5</ele><time>2026-04-30T14:16:35.706Z</time></trkpt><trkpt lat="40.4492912" lon="8.3915396"><ele>122.25</ele><time>2026-04-30T14:16:36.702Z</time></trkpt><trkpt lat="40.4491911" lon="8.3916478"><ele>124.0</ele><time>2026-04-30T14:16:37.701Z</time></trkpt><trkpt lat="40.4491132" lon="8.3917895"><ele>124.0</ele><time>2026-04-30T14:16:38.704Z</time></trkpt><trkpt lat="40.4490499" lon="8.3919542"><ele>124.0</ele><time>2026-04-30T14:16:39.705Z</time></trkpt><trkpt lat="40.448988" lon="8.3921426"><ele>124.0</ele><time>2026-04-30T14:16:40.703Z</time></trkpt><trkpt lat="40.4489205" lon="8.3923255"><ele>126.75</ele><time>2026-04-30T14:16:41.701Z</time></trkpt><trkpt lat="40.4488486" lon="8.3924846"><ele>129.5</ele><time>2026-04-30T14:16:42.706Z</time></trkpt><trkpt lat="40.4487606" lon="8.3926137"><ele>132.25</ele><time>2026-04-30T14:16:43.706Z</time></trkpt><trkpt lat="40.4486571" lon="8.3927096"><ele>135.0</ele><time>2026-04-30T14:16:44.702Z</time></trkpt><trkpt lat="40.4485342" lon="8.3927509"><ele>135.0</ele><time>2026-04-30T14:16:45.703Z</time></trkpt><trkpt lat="40.4484027" lon="8.3927458"><ele>135.0</ele><time>2026-04-30T14:16:46.702Z</time></trkpt><trkpt lat="40.4482617" lon="8.3927172"><ele>135.0</ele><time>2026-04-30T14:16:47.703Z</time></trkpt><trkpt lat="40.4481132" lon="8.3927006"><ele>135.0</ele><time>2026-04-30T14:16:48.701Z</time></trkpt><trkpt lat="40.4479542" lon="8.3927262"><ele>134.0</ele><time>2026-04-30T14:16:49.703Z</time></trkpt><trkpt lat="40.4477924" lon="8.3927592"><ele>133.0</ele><time>2026-04-30T14:16:50.7Z</time></trkpt><trkpt lat="40.447637" lon="8.3927667"><ele>132.0</ele><time>2026-04-30T14:16:51.705Z</time></trkpt><trkpt lat="40.4474764" lon="8.3927361"><ele>132.0</ele><time>2026-04-30T14:16:52.703Z</time></trkpt><trkpt lat="40.4473105" lon="8.3926897"><ele>132.0</ele><time>2026-04-30T14:16:53.701Z</time></trkpt><trkpt lat="40.4471365" lon="8.3926437"><ele>132.0</ele><time>2026-04-30T14:16:54.701Z</time></trkpt><trkpt lat="40.4469527" lon="8.3926151"><ele>136.0</ele><time>2026-04-30T14:16:55.702Z</time></trkpt><trkpt lat="40.4467687" lon="8.3925881"><ele>140.0</ele><time>2026-04-30T14:16:56.7Z</time></trkpt><trkpt lat="40.4465876" lon="8.3925621"><ele>144.0</ele><time>2026-04-30T14:16:57.706Z</time></trkpt><trkpt lat="40.4464185" lon="8.3925557"><ele>141.0</ele><time>2026-04-30T14:16:58.705Z</time></trkpt><trkpt lat="40.4462514" lon="8.3925701"><ele>138.0</ele><time>2026-04-30T14:16:59.705Z</time></trkpt><trkpt lat="40.4460878" lon="8.3926116"><ele>135.0</ele><time>2026-04-30T14:17:00.705Z</time></trkpt><trkpt lat="40.4459306" lon="8.3926707"><ele>135.0</ele><time>2026-04-30T14:17:01.7Z</time></trkpt><trkpt lat="40.4457875" lon="8.3927528"><ele>135.0</ele><time>2026-04-30T14:17:02.704Z</time></trkpt><trkpt lat="40.4456639" lon="8.3928503"><ele>135.0</ele><time>2026-04-30T14:17:03.701Z</time></trkpt><trkpt lat="40.4455443" lon="8.3929593"><ele>135.0</ele><time>2026-04-30T14:17:04.702Z</time></trkpt><trkpt lat="40.4454148" lon="8.3930597"><ele>142.0</ele><time>2026-04-30T14:17:05.702Z</time></trkpt><trkpt lat="40.4452661" lon="8.3931306"><ele>149.0</ele><time>2026-04-30T14:17:06.702Z</time></trkpt><trkpt lat="40.4451015" lon="8.3931751"><ele>156.0</ele><time>2026-04-30T14:17:07.705Z</time></trkpt><trkpt lat="40.4449197" lon="8.3932107"><ele>156.0</ele><time>2026-04-30T14:17:08.702Z</time></trkpt><trkpt lat="40.4447415" lon="8.3932525"><ele>156.0</ele><time>2026-04-30T14:17:09.703Z</time></trkpt><trkpt lat="40.444574" lon="8.3932756"><ele>156.0</ele><time>2026-04-30T14:17:10.705Z</time></trkpt><trkpt lat="40.4444026" lon="8.3933101"><ele>150.0</ele><time>2026-04-30T14:17:11.706Z</time></trkpt><trkpt lat="40.4442338" lon="8.393369"><ele>144.0</ele><time>2026-04-30T14:17:12.702Z</time></trkpt><trkpt lat="40.4440628" lon="8.3934622"><ele>138.0</ele><time>2026-04-30T14:17:13.703Z</time></trkpt><trkpt lat="40.4438962" lon="8.3935826"><ele>138.66666666666666</ele><time>2026-04-30T14:17:14.704Z</time></trkpt><trkpt lat="40.4437282" lon="8.3937308"><ele>139.33333333333331</ele><time>2026-04-30T14:17:15.7Z</time></trkpt><trkpt lat="40.4435631" lon="8.3938898"><ele>140.0</ele><time>2026-04-30T14:17:16.706Z</time></trkpt><trkpt lat="40.443412" lon="8.394054"><ele>140.0</ele><time>2026-04-30T14:17:17.705Z</time></trkpt><trkpt lat="40.4432814" lon="8.3942219"><ele>140.0</ele><time>2026-04-30T14:17:18.703Z</time></trkpt><trkpt lat="40.443182" lon="8.394406"><ele>140.0</ele><time>2026-04-30T14:17:19.704Z</time></trkpt><trkpt lat="40.4431001" lon="8.3945903"><ele>147.33333333333331</ele><time>2026-04-30T14:17:20.703Z</time></trkpt><trkpt lat="40.4430444" lon="8.3947816"><ele>154.66666666666666</ele><time>2026-04-30T14:17:21.703Z</time></trkpt><trkpt lat="40.4429798" lon="8.3949594"><ele>162.0</ele><time>2026-04-30T14:17:22.706Z</time></trkpt><trkpt lat="40.4428939" lon="8.3951294"><ele>151.0</ele><time>2026-04-30T14:17:23.7Z</time></trkpt><trkpt lat="40.4427934" lon="8.3952658"><ele>140.0</ele><time>2026-04-30T14:17:24.706Z</time></trkpt><trkpt lat="40.442676" lon="8.3953625"><ele>129.0</ele><time>2026-04-30T14:17:25.706Z</time></trkpt><trkpt lat="40.4425536" lon="8.3954302"><ele>118.0</ele><time>2026-04-30T14:17:26.704Z</time></trkpt><trkpt lat="40.4424019" lon="8.3954264"><ele>118.0</ele><time>2026-04-30T14:17:27.701Z</time></trkpt><trkpt lat="40.4422404" lon="8.3954224"><ele>118.0</ele><time>2026-04-30T14:17:28.701Z</time></trkpt><trkpt lat="40.4420822" lon="8.3954007"><ele>118.0</ele><time>2026-04-30T14:17:29.702Z</time></trkpt><trkpt lat="40.4419158" lon="8.3953946"><ele>121.66666666666667</ele><time>2026-04-30T14:17:30.702Z</time></trkpt><trkpt lat="40.4417525" lon="8.3954163"><ele>125.33333333333334</ele><time>2026-04-30T14:17:31.705Z</time></trkpt><trkpt lat="40.4416023" lon="8.3954495"><ele>129.0</ele><time>2026-04-30T14:17:32.705Z</time></trkpt><trkpt lat="40.4414576" lon="8.3955209"><ele>129.0</ele><time>2026-04-30T14:17:33.702Z</time></trkpt><trkpt lat="40.441317" lon="8.3956268"><ele>129.0</ele><time>2026-04-30T14:17:34.701Z</time></trkpt><trkpt lat="40.4411919" lon="8.3957382"><ele>129.0</ele><time>2026-04-30T14:17:35.7Z</time></trkpt><trkpt lat="40.4410903" lon="8.3958785"><ele>122.5</ele><time>2026-04-30T14:17:36.703Z</time></trkpt><trkpt lat="40.4410156" lon="8.3960485"><ele>116.0</ele><time>2026-04-30T14:17:37.705Z</time></trkpt><trkpt lat="40.4409604" lon="8.3962275"><ele>109.5</ele><time>2026-04-30T14:17:38.701Z</time></trkpt><trkpt lat="40.4409212" lon="8.3964067"><ele>103.0</ele><time>2026-04-30T14:17:39.702Z</time></trkpt><trkpt lat="40.440896" lon="8.3965951"><ele>103.0</ele><time>2026-04-30T14:17:40.705Z</time></trkpt><trkpt lat="40.4408795" lon="8.3967637"><ele>103.0</ele><time>2026-04-30T14:17:41.7Z</time></trkpt><trkpt lat="40.4408822" lon="8.3969262"><ele>103.0</ele><time>2026-04-30T14:17:42.703Z</time></trkpt><trkpt lat="40.4408964" lon="8.3970882"><ele>103.0</ele><time>2026-04-30T14:17:43.7Z</time></trkpt><trkpt lat="40.4409304" lon="8.3972488"><ele>101.5</ele><time>2026-04-30T14:17:44.699Z</time></trkpt><trkpt lat="40.4409687" lon="8.3974228"><ele>100.0</ele><time>2026-04-30T14:17:45.699Z</time></trkpt><trkpt lat="40.4410105" lon="8.3976147"><ele>98.5</ele><time>2026-04-30T14:17:46.704Z</time></trkpt><trkpt lat="40.441054" lon="8.3978099"><ele>97.0</ele><time>2026-04-30T14:17:47.704Z</time></trkpt><trkpt lat="40.4411055" lon="8.3980069"><ele>94.0</ele><time>2026-04-30T14:17:48.699Z</time></trkpt><trkpt lat="40.4411384" lon="8.3982248"><ele>91.0</ele><time>2026-04-30T14:17:49.7Z</time></trkpt><trkpt lat="40.4411656" lon="8.3984403"><ele>88.0</ele><time>2026-04-30T14:17:50.706Z</time></trkpt><trkpt lat="40.4411739" lon="8.3986389"><ele>88.0</ele><time>2026-04-30T14:17:51.706Z</time></trkpt><trkpt lat="40.4411734" lon="8.3988318"><ele>88.0</ele><time>2026-04-30T14:17:52.704Z</time></trkpt><trkpt lat="40.4411582" lon="8.3990249"><ele>88.0</ele><time>2026-04-30T14:17:53.703Z</time></trkpt><trkpt lat="40.4411198" lon="8.3991995"><ele>88.0</ele><time>2026-04-30T14:17:54.703Z</time></trkpt><trkpt lat="40.4410687" lon="8.3993542"><ele>89.0</ele><time>2026-04-30T14:17:55.704Z</time></trkpt><trkpt lat="40.4409829" lon="8.3994981"><ele>90.0</ele><time>2026-04-30T14:17:56.705Z</time></trkpt><trkpt lat="40.4408768" lon="8.3996175"><ele>91.0</ele><time>2026-04-30T14:17:57.704Z</time></trkpt><trkpt lat="40.4407512" lon="8.3997098"><ele>92.0</ele><time>2026-04-30T14:17:58.706Z</time></trkpt><trkpt lat="40.4406085" lon="8.3997657"><ele>96.0</ele><time>2026-04-30T14:17:59.702Z</time></trkpt><trkpt lat="40.4404625" lon="8.3997949"><ele>100.0</ele><time>2026-04-30T14:18:00.704Z</time></trkpt><trkpt lat="40.4403107" lon="8.3997926"><ele>104.0</ele><time>2026-04-30T14:18:01.706Z</time></trkpt><trkpt lat="40.4401505" lon="8.399774"><ele>104.0</ele><time>2026-04-30T14:18:02.703Z</time></trkpt><trkpt lat="40.4399904" lon="8.399741"><ele>104.0</ele><time>2026-04-30T14:18:03.7Z</time></trkpt><trkpt lat="40.4398142" lon="8.3997064"><ele>104.0</ele><time>2026-04-30T14:18:04.706Z</time></trkpt><trkpt lat="40.4396296" lon="8.3996692"><ele>100.66666666666666</ele><time>2026-04-30T14:18:05.705Z</time></trkpt><trkpt lat="40.4394335" lon="8.399629"><ele>97.33333333333333</ele><time>2026-04-30T14:18:06.705Z</time></trkpt><trkpt lat="40.4392326" lon="8.3995868"><ele>94.0</ele><time>2026-04-30T14:18:07.698Z</time></trkpt><trkpt lat="40.4390226" lon="8.3995389"><ele>94.0</ele><time>2026-04-30T14:18:08.704Z</time></trkpt><trkpt lat="40.4388149" lon="8.3994879"><ele>94.0</ele><time>2026-04-30T14:18:09.705Z</time></trkpt><trkpt lat="40.4386118" lon="8.3994443"><ele>94.0</ele><time>2026-04-30T14:18:10.706Z</time></trkpt><trkpt lat="40.4384026" lon="8.3994016"><ele>96.33333333333333</ele><time>2026-04-30T14:18:11.706Z</time></trkpt><trkpt lat="40.4381973" lon="8.3993584"><ele>98.66666666666666</ele><time>2026-04-30T14:18:12.703Z</time></trkpt><trkpt lat="40.4379938" lon="8.3993156"><ele>101.0</ele><time>2026-04-30T14:18:13.706Z</time></trkpt><trkpt lat="40.4377909" lon="8.399272"><ele>102.66666666666666</ele><time>2026-04-30T14:18:14.704Z</time></trkpt><trkpt lat="40.4376051" lon="8.3992333"><ele>104.33333333333334</ele><time>2026-04-30T14:18:15.705Z</time></trkpt><trkpt lat="40.4374331" lon="8.3991996"><ele>106.0</ele><time>2026-04-30T14:18:16.699Z</time></trkpt><trkpt lat="40.4372772" lon="8.3991774"><ele>110.66666666666667</ele><time>2026-04-30T14:18:17.701Z</time></trkpt><trkpt lat="40.4371247" lon="8.3991794"><ele>115.33333333333334</ele><time>2026-04-30T14:18:18.701Z</time></trkpt><trkpt lat="40.4369775" lon="8.3992024"><ele>120.0</ele><time>2026-04-30T14:18:19.702Z</time></trkpt><trkpt lat="40.436828" lon="8.3992568"><ele>120.0</ele><time>2026-04-30T14:18:20.703Z</time></trkpt><trkpt lat="40.4366918" lon="8.3993493"><ele>120.0</ele><time>2026-04-30T14:18:21.704Z</time></trkpt><trkpt lat="40.436569" lon="8.3994715"><ele>120.0</ele><time>2026-04-30T14:18:22.7Z</time></trkpt><trkpt lat="40.4364572" lon="8.3996225"><ele>122.66666666666666</ele><time>2026-04-30T14:18:23.701Z</time></trkpt><trkpt lat="40.4363788" lon="8.3998234"><ele>125.33333333333333</ele><time>2026-04-30T14:18:24.705Z</time></trkpt><trkpt lat="40.4363178" lon="8.400026"><ele>128.0</ele><time>2026-04-30T14:18:25.701Z</time></trkpt><trkpt lat="40.4362615" lon="8.4002518"><ele>122.33333333333333</ele><time>2026-04-30T14:18:26.705Z</time></trkpt><trkpt lat="40.4362001" lon="8.400484"><ele>116.66666666666666</ele><time>2026-04-30T14:18:27.704Z</time></trkpt><trkpt lat="40.4361453" lon="8.4007239"><ele>111.0</ele><time>2026-04-30T14:18:28.703Z</time></trkpt><trkpt lat="40.4360903" lon="8.4009544"><ele>111.0</ele><time>2026-04-30T14:18:29.702Z</time></trkpt><trkpt lat="40.4360392" lon="8.401191"><ele>111.0</ele><time>2026-04-30T14:18:30.703Z</time></trkpt><trkpt lat="40.4359786" lon="8.401433"><ele>111.0</ele><time>2026-04-30T14:18:31.705Z</time></trkpt><trkpt lat="40.4359244" lon="8.4016621"><ele>116.0</ele><time>2026-04-30T14:18:32.704Z</time></trkpt><trkpt lat="40.4358769" lon="8.4018857"><ele>121.0</ele><time>2026-04-30T14:18:33.702Z</time></trkpt><trkpt lat="40.4358393" lon="8.4021275"><ele>126.0</ele><time>2026-04-30T14:18:34.706Z</time></trkpt><trkpt lat="40.4358072" lon="8.4023734"><ele>128.33333333333334</ele><time>2026-04-30T14:18:35.703Z</time></trkpt><trkpt lat="40.4357969" lon="8.4026526"><ele>130.66666666666669</ele><time>2026-04-30T14:18:36.702Z</time></trkpt><trkpt lat="40.4357792" lon="8.4029362"><ele>133.0</ele><time>2026-04-30T14:18:37.706Z</time></trkpt><trkpt lat="40.4357591" lon="8.4032306"><ele>137.0</ele><time>2026-04-30T14:18:38.706Z</time></trkpt><trkpt lat="40.4357394" lon="8.4035358"><ele>141.0</ele><time>2026-04-30T14:18:39.702Z</time></trkpt><trkpt lat="40.4357225" lon="8.4038392"><ele>143.33333333333334</ele><time>2026-04-30T14:18:40.706Z</time></trkpt><trkpt lat="40.4356997" lon="8.4041358"><ele>145.66666666666669</ele><time>2026-04-30T14:18:41.705Z</time></trkpt><trkpt lat="40.4356851" lon="8.4044246"><ele>148.0</ele><time>2026-04-30T14:18:42.706Z</time></trkpt><trkpt lat="40.4356753" lon="8.4046832"><ele>149.33333333333334</ele><time>2026-04-30T14:18:43.701Z</time></trkpt><trkpt lat="40.435673" lon="8.4049196"><ele>150.66666666666666</ele><time>2026-04-30T14:18:44.704Z</time></trkpt><trkpt lat="40.4356858" lon="8.4051452"><ele>152.0</ele><time>2026-04-30T14:18:45.702Z</time></trkpt><trkpt lat="40.4357015" lon="8.4053528"><ele>151.5</ele><time>2026-04-30T14:18:46.705Z</time></trkpt><trkpt lat="40.4357136" lon="8.4055543"><ele>151.0</ele><time>2026-04-30T14:18:47.703Z</time></trkpt><trkpt lat="40.4357053" lon="8.4057416"><ele>150.5</ele><time>2026-04-30T14:18:48.7Z</time></trkpt><trkpt lat="40.4356688" lon="8.4059154"><ele>150.0</ele><time>2026-04-30T14:18:49.701Z</time></trkpt><trkpt lat="40.435602" lon="8.4060727"><ele>150.0</ele><time>2026-04-30T14:18:50.702Z</time></trkpt><trkpt lat="40.435506" lon="8.4062182"><ele>150.0</ele><time>2026-04-30T14:18:51.702Z</time></trkpt><trkpt lat="40.4353981" lon="8.406343"><ele>150.0</ele><time>2026-04-30T14:18:52.704Z</time></trkpt><trkpt lat="40.4352687" lon="8.4064345"><ele>150.0</ele><time>2026-04-30T14:18:53.705Z</time></trkpt><trkpt lat="40.4351263" lon="8.4065054"><ele>147.25</ele><time>2026-04-30T14:18:54.702Z</time></trkpt><trkpt lat="40.4349827" lon="8.4065508"><ele>144.5</ele><time>2026-04-30T14:18:55.705Z</time></trkpt><trkpt lat="40.434844" lon="8.4065672"><ele>141.75</ele><time>2026-04-30T14:18:56.702Z</time></trkpt><trkpt lat="40.4347014" lon="8.4065543"><ele>139.0</ele><time>2026-04-30T14:18:57.701Z</time></trkpt><trkpt lat="40.4345575" lon="8.4065254"><ele>143.0</ele><time>2026-04-30T14:18:58.703Z</time></trkpt><trkpt lat="40.434407" lon="8.4064588"><ele>147.0</ele><time>2026-04-30T14:18:59.702Z</time></trkpt><trkpt lat="40.4342612" lon="8.4063838"><ele>151.0</ele><time>2026-04-30T14:19:00.701Z</time></trkpt><trkpt lat="40.4341236" lon="8.4062891"><ele>151.0</ele><time>2026-04-30T14:19:01.698Z</time></trkpt><trkpt lat="40.4340049" lon="8.4061615"><ele>151.0</ele><time>2026-04-30T14:19:02.699Z</time></trkpt><trkpt lat="40.4339041" lon="8.4060107"><ele>151.0</ele><time>2026-04-30T14:19:03.698Z</time></trkpt><trkpt lat="40.433825" lon="8.4058353"><ele>157.66666666666669</ele><time>2026-04-30T14:19:04.699Z</time></trkpt><trkpt lat="40.4337524" lon="8.4056452"><ele>164.33333333333334</ele><time>2026-04-30T14:19:05.701Z</time></trkpt><trkpt lat="40.4337138" lon="8.4054173"><ele>171.0</ele><time>2026-04-30T14:19:06.7Z</time></trkpt><trkpt lat="40.4336694" lon="8.4051832"><ele>171.0</ele><time>2026-04-30T14:19:07.701Z</time></trkpt><trkpt lat="40.4336264" lon="8.4049526"><ele>171.0</ele><time>2026-04-30T14:19:08.706Z</time></trkpt><trkpt lat="40.4335772" lon="8.4047359"><ele>171.0</ele><time>2026-04-30T14:19:09.706Z</time></trkpt><trkpt lat="40.4335095" lon="8.4045335"><ele>165.33333333333334</ele><time>2026-04-30T14:19:10.703Z</time></trkpt><trkpt lat="40.4334212" lon="8.4043378"><ele>159.66666666666669</ele><time>2026-04-30T14:19:11.706Z</time></trkpt><trkpt lat="40.433312" lon="8.4041394"><ele>154.0</ele><time>2026-04-30T14:19:12.703Z</time></trkpt><trkpt lat="40.4332023" lon="8.4039459"><ele>149.66666666666669</ele><time>2026-04-30T14:19:13.706Z</time></trkpt><trkpt lat="40.4330925" lon="8.4037492"><ele>145.33333333333334</ele><time>2026-04-30T14:19:14.704Z</time></trkpt><trkpt lat="40.4329859" lon="8.4035635"><ele>141.0</ele><time>2026-04-30T14:19:15.701Z</time></trkpt><trkpt lat="40.4328786" lon="8.4033701"><ele>147.66666666666666</ele><time>2026-04-30T14:19:16.705Z</time></trkpt><trkpt lat="40.4327695" lon="8.4031857"><ele>154.33333333333331</ele><time>2026-04-30T14:19:17.706Z</time></trkpt><trkpt lat="40.4326529" lon="8.4030181"><ele>161.0</ele><time>2026-04-30T14:19:18.706Z</time></trkpt><trkpt lat="40.4325172" lon="8.4028618"><ele>161.0</ele><time>2026-04-30T14:19:19.706Z</time></trkpt><trkpt lat="40.4323788" lon="8.4027209"><ele>161.0</ele><time>2026-04-30T14:19:20.701Z</time></trkpt><trkpt lat="40.4322232" lon="8.4025857"><ele>161.0</ele><time>2026-04-30T14:19:21.704Z</time></trkpt><trkpt lat="40.4320648" lon="8.4024691"><ele>161.33333333333331</ele><time>2026-04-30T14:19:22.705Z</time></trkpt><trkpt lat="40.4319054" lon="8.4023487"><ele>161.66666666666666</ele><time>2026-04-30T14:19:23.702Z</time></trkpt><trkpt lat="40.431738" lon="8.4022374"><ele>162.0</ele><time>2026-04-30T14:19:24.706Z</time></trkpt><trkpt lat="40.4315667" lon="8.4021307"><ele>162.0</ele><time>2026-04-30T14:19:25.706Z</time></trkpt><trkpt lat="40.4313823" lon="8.4020419"><ele>162.0</ele><time>2026-04-30T14:19:26.703Z</time></trkpt><trkpt lat="40.4312005" lon="8.4019678"><ele>162.0</ele><time>2026-04-30T14:19:27.703Z</time></trkpt><trkpt lat="40.4310127" lon="8.4019068"><ele>164.66666666666666</ele><time>2026-04-30T14:19:28.701Z</time></trkpt><trkpt lat="40.4308143" lon="8.401858"><ele>167.33333333333331</ele><time>2026-04-30T14:19:29.706Z</time></trkpt><trkpt lat="40.4306109" lon="8.4018188"><ele>170.0</ele><time>2026-04-30T14:19:30.706Z</time></trkpt><trkpt lat="40.4304058" lon="8.4017828"><ele>173.66666666666666</ele><time>2026-04-30T14:19:31.704Z</time></trkpt><trkpt lat="40.430198" lon="8.4017472"><ele>177.33333333333334</ele><time>2026-04-30T14:19:32.706Z</time></trkpt><trkpt lat="40.4299844" lon="8.4017198"><ele>181.0</ele><time>2026-04-30T14:19:33.702Z</time></trkpt><trkpt lat="40.4297709" lon="8.4016907"><ele>183.0</ele><time>2026-04-30T14:19:34.705Z</time></trkpt><trkpt lat="40.4295517" lon="8.4016632"><ele>185.0</ele><time>2026-04-30T14:19:35.703Z</time></trkpt><trkpt lat="40.4293371" lon="8.4016312"><ele>187.0</ele><time>2026-04-30T14:19:36.706Z</time></trkpt><trkpt lat="40.4291209" lon="8.4015981"><ele>187.0</ele><time>2026-04-30T14:19:37.703Z</time></trkpt><trkpt lat="40.4289114" lon="8.4015717"><ele>187.0</ele><time>2026-04-30T14:19:38.706Z</time></trkpt><trkpt lat="40.4287049" lon="8.4015575"><ele>187.0</ele><time>2026-04-30T14:19:39.705Z</time></trkpt><trkpt lat="40.4285006" lon="8.401563"><ele>188.66666666666669</ele><time>2026-04-30T14:19:40.703Z</time></trkpt><trkpt lat="40.4283003" lon="8.401596"><ele>190.33333333333334</ele><time>2026-04-30T14:19:41.702Z</time></trkpt><trkpt lat="40.4281044" lon="8.4016552"><ele>192.0</ele><time>2026-04-30T14:19:42.701Z</time></trkpt><trkpt lat="40.4279137" lon="8.4017282"><ele>192.0</ele><time>2026-04-30T14:19:43.705Z</time></trkpt><trkpt lat="40.427716" lon="8.4018097"><ele>192.0</ele><time>2026-04-30T14:19:44.703Z</time></trkpt><trkpt lat="40.4275168" lon="8.4018933"><ele>192.0</ele><time>2026-04-30T14:19:45.703Z</time></trkpt><trkpt lat="40.4273195" lon="8.4019767"><ele>191.33333333333334</ele><time>2026-04-30T14:19:46.702Z</time></trkpt><trkpt lat="40.4271265" lon="8.4020463"><ele>190.66666666666669</ele><time>2026-04-30T14:19:47.706Z</time></trkpt><trkpt lat="40.4269301" lon="8.4021046"><ele>190.0</ele><time>2026-04-30T14:19:48.703Z</time></trkpt><trkpt lat="40.4267268" lon="8.4021399"><ele>190.0</ele><time>2026-04-30T14:19:49.704Z</time></trkpt><trkpt lat="40.4265201" lon="8.4021409"><ele>190.0</ele><time>2026-04-30T14:19:50.701Z</time></trkpt><trkpt lat="40.4263044" lon="8.402134"><ele>190.0</ele><time>2026-04-30T14:19:51.706Z</time></trkpt><trkpt lat="40.426077" lon="8.4021251"><ele>188.33333333333334</ele><time>2026-04-30T14:19:52.702Z</time></trkpt><trkpt lat="40.4258548" lon="8.4021164"><ele>186.66666666666666</ele><time>2026-04-30T14:19:53.705Z</time></trkpt><trkpt lat="40.4256402" lon="8.4021113"><ele>185.0</ele><time>2026-04-30T14:19:54.706Z</time></trkpt><trkpt lat="40.425439" lon="8.402115"><ele>185.0</ele><time>2026-04-30T14:19:55.704Z</time></trkpt><trkpt lat="40.4252409" lon="8.402137"><ele>185.0</ele><time>2026-04-30T14:19:56.705Z</time></trkpt><trkpt lat="40.4250441" lon="8.4021817"><ele>185.0</ele><time>2026-04-30T14:19:57.706Z</time></trkpt><trkpt lat="40.4248573" lon="8.4022633"><ele>192.33333333333331</ele><time>2026-04-30T14:19:58.701Z</time></trkpt><trkpt lat="40.4246759" lon="8.4023798"><ele>199.66666666666666</ele><time>2026-04-30T14:19:59.704Z</time></trkpt><trkpt lat="40.4245092" lon="8.4025186"><ele>207.0</ele><time>2026-04-30T14:20:00.706Z</time></trkpt><trkpt lat="40.4243416" lon="8.4026869"><ele>207.0</ele><time>2026-04-30T14:20:01.705Z</time></trkpt><trkpt lat="40.4241867" lon="8.4028802"><ele>207.0</ele><time>2026-04-30T14:20:02.706Z</time></trkpt><trkpt lat="40.4240362" lon="8.4030798"><ele>207.0</ele><time>2026-04-30T14:20:03.705Z</time></trkpt><trkpt lat="40.4238808" lon="8.4032812"><ele>206.33333333333331</ele><time>2026-04-30T14:20:04.702Z</time></trkpt><trkpt lat="40.4237249" lon="8.4034821"><ele>205.66666666666666</ele><time>2026-04-30T14:20:05.704Z</time></trkpt><trkpt lat="40.4235697" lon="8.4036697"><ele>205.0</ele><time>2026-04-30T14:20:06.706Z</time></trkpt><trkpt lat="40.4234284" lon="8.4038465"><ele>213.33333333333331</ele><time>2026-04-30T14:20:07.705Z</time></trkpt><trkpt lat="40.423286" lon="8.4040355"><ele>221.66666666666669</ele><time>2026-04-30T14:20:08.705Z</time></trkpt><trkpt lat="40.4231614" lon="8.4042392"><ele>230.0</ele><time>2026-04-30T14:20:09.704Z</time></trkpt><trkpt lat="40.423054" lon="8.4044598"><ele>229.66666666666669</ele><time>2026-04-30T14:20:10.704Z</time></trkpt><trkpt lat="40.4229703" lon="8.4046954"><ele>229.33333333333331</ele><time>2026-04-30T14:20:11.704Z</time></trkpt><trkpt lat="40.4228953" lon="8.4049431"><ele>229.0</ele><time>2026-04-30T14:20:12.704Z</time></trkpt><trkpt lat="40.4228268" lon="8.4052008"><ele>229.0</ele><time>2026-04-30T14:20:13.705Z</time></trkpt><trkpt lat="40.422757" lon="8.4054581"><ele>229.0</ele><time>2026-04-30T14:20:14.706Z</time></trkpt><trkpt lat="40.4226829" lon="8.4057192"><ele>229.0</ele><time>2026-04-30T14:20:15.704Z</time></trkpt><trkpt lat="40.4226158" lon="8.4059749"><ele>229.66666666666666</ele><time>2026-04-30T14:20:16.705Z</time></trkpt><trkpt lat="40.422548" lon="8.4062098"><ele>230.33333333333331</ele><time>2026-04-30T14:20:17.705Z</time></trkpt><trkpt lat="40.4224874" lon="8.4064298"><ele>231.0</ele><time>2026-04-30T14:20:18.703Z</time></trkpt><trkpt lat="40.4224228" lon="8.4066211"><ele>232.5</ele><time>2026-04-30T14:20:19.705Z</time></trkpt><trkpt lat="40.4223501" lon="8.4067883"><ele>234.0</ele><time>2026-04-30T14:20:20.703Z</time></trkpt><trkpt lat="40.4222717" lon="8.4069307"><ele>235.5</ele><time>2026-04-30T14:20:21.704Z</time></trkpt><trkpt lat="40.4221624" lon="8.4070513"><ele>237.0</ele><time>2026-04-30T14:20:22.705Z</time></trkpt><trkpt lat="40.4220369" lon="8.4071356"><ele>238.0</ele><time>2026-04-30T14:20:23.704Z</time></trkpt><trkpt lat="40.4219043" lon="8.4071847"><ele>239.0</ele><time>2026-04-30T14:20:24.704Z</time></trkpt><trkpt lat="40.4217597" lon="8.4071972"><ele>240.0</ele><time>2026-04-30T14:20:25.706Z</time></trkpt><trkpt lat="40.4215998" lon="8.4071723"><ele>241.0</ele><time>2026-04-30T14:20:26.705Z</time></trkpt><trkpt lat="40.4214204" lon="8.4071332"><ele>231.66666666666666</ele><time>2026-04-30T14:20:27.706Z</time></trkpt><trkpt lat="40.4212287" lon="8.4070935"><ele>222.33333333333331</ele><time>2026-04-30T14:20:28.701Z</time></trkpt><trkpt lat="40.4210371" lon="8.4070374"><ele>213.0</ele><time>2026-04-30T14:20:29.705Z</time></trkpt><trkpt lat="40.4208527" lon="8.4069672"><ele>213.0</ele><time>2026-04-30T14:20:30.702Z</time></trkpt><trkpt lat="40.420668" lon="8.4068763"><ele>213.0</ele><time>2026-04-30T14:20:31.704Z</time></trkpt><trkpt lat="40.4204826" lon="8.4067907"><ele>213.0</ele><time>2026-04-30T14:20:32.705Z</time></trkpt><trkpt lat="40.4202938" lon="8.4067197"><ele>215.0</ele><time>2026-04-30T14:20:33.7Z</time></trkpt><trkpt lat="40.420107" lon="8.406682"><ele>217.0</ele><time>2026-04-30T14:20:34.704Z</time></trkpt><trkpt lat="40.4199222" lon="8.4066896"><ele>219.0</ele><time>2026-04-30T14:20:35.702Z</time></trkpt><trkpt lat="40.4197568" lon="8.4067318"><ele>218.66666666666669</ele><time>2026-04-30T14:20:36.706Z</time></trkpt><trkpt lat="40.4195977" lon="8.4068005"><ele>218.33333333333334</ele><time>2026-04-30T14:20:37.704Z</time></trkpt><trkpt lat="40.4194403" lon="8.4068702"><ele>218.0</ele><time>2026-04-30T14:20:38.706Z</time></trkpt><trkpt lat="40.4192788" lon="8.4069253"><ele>218.0</ele><time>2026-04-30T14:20:39.699Z</time></trkpt><trkpt lat="40.4191206" lon="8.4069516"><ele>218.0</ele><time>2026-04-30T14:20:40.701Z</time></trkpt><trkpt lat="40.4189681" lon="8.4069245"><ele>218.0</ele><time>2026-04-30T14:20:41.7Z</time></trkpt><trkpt lat="40.4188274" lon="8.4068587"><ele>222.66666666666669</ele><time>2026-04-30T14:20:42.704Z</time></trkpt><trkpt lat="40.4186768" lon="8.4067938"><ele>227.33333333333331</ele><time>2026-04-30T14:20:43.702Z</time></trkpt><trkpt lat="40.4185134" lon="8.4067454"><ele>232.0</ele><time>2026-04-30T14:20:44.7Z</time></trkpt><trkpt lat="40.4183368" lon="8.4067144"><ele>232.0</ele><time>2026-04-30T14:20:45.704Z</time></trkpt><trkpt lat="40.4181576" lon="8.4067106"><ele>232.0</ele><time>2026-04-30T14:20:46.702Z</time></trkpt><trkpt lat="40.4179842" lon="8.4067352"><ele>232.0</ele><time>2026-04-30T14:20:47.703Z</time></trkpt><trkpt lat="40.4178122" lon="8.4068019"><ele>228.0</ele><time>2026-04-30T14:20:48.705Z</time></trkpt><trkpt lat="40.4176444" lon="8.4068951"><ele>224.0</ele><time>2026-04-30T14:20:49.704Z</time></trkpt><trkpt lat="40.4174883" lon="8.4070152"><ele>220.0</ele><time>2026-04-30T14:20:50.704Z</time></trkpt><trkpt lat="40.4173613" lon="8.4071581"><ele>220.33333333333331</ele><time>2026-04-30T14:20:51.704Z</time></trkpt><trkpt lat="40.4172369" lon="8.4073158"><ele>220.66666666666669</ele><time>2026-04-30T14:20:52.702Z</time></trkpt><trkpt lat="40.4171534" lon="8.4074985"><ele>221.0</ele><time>2026-04-30T14:20:53.705Z</time></trkpt><trkpt lat="40.417069" lon="8.4076928"><ele>221.0</ele><time>2026-04-30T14:20:54.702Z</time></trkpt><trkpt lat="40.4169849" lon="8.4078793"><ele>221.0</ele><time>2026-04-30T14:20:55.704Z</time></trkpt><trkpt lat="40.4169007" lon="8.4080396"><ele>221.0</ele><time>2026-04-30T14:20:56.706Z</time></trkpt><trkpt lat="40.4167954" lon="8.4081768"><ele>226.5</ele><time>2026-04-30T14:20:57.703Z</time></trkpt><trkpt lat="40.4166693" lon="8.4082749"><ele>232.0</ele><time>2026-04-30T14:20:58.705Z</time></trkpt><trkpt lat="40.4165333" lon="8.4083336"><ele>237.5</ele><time>2026-04-30T14:20:59.706Z</time></trkpt><trkpt lat="40.4163838" lon="8.4083479"><ele>243.0</ele><time>2026-04-30T14:21:00.705Z</time></trkpt><trkpt lat="40.4162266" lon="8.4083293"><ele>243.0</ele><time>2026-04-30T14:21:01.706Z</time></trkpt><trkpt lat="40.4160496" lon="8.4082849"><ele>243.0</ele><time>2026-04-30T14:21:02.703Z</time></trkpt><trkpt lat="40.4158505" lon="8.408228"><ele>243.0</ele><time>2026-04-30T14:21:03.706Z</time></trkpt><trkpt lat="40.4156258" lon="8.4081719"><ele>247.0</ele><time>2026-04-30T14:21:04.703Z</time></trkpt><trkpt lat="40.415374" lon="8.408103"><ele>251.0</ele><time>2026-04-30T14:21:05.703Z</time></trkpt><trkpt lat="40.4151352" lon="8.4080429"><ele>237.5</ele><time>2026-04-30T14:21:06.702Z</time></trkpt><trkpt lat="40.4149091" lon="8.4079742"><ele>224.0</ele><time>2026-04-30T14:21:07.706Z</time></trkpt><trkpt lat="40.4146981" lon="8.4078975"><ele>227.33333333333334</ele><time>2026-04-30T14:21:08.706Z</time></trkpt><trkpt lat="40.4144934" lon="8.4077986"><ele>230.66666666666669</ele><time>2026-04-30T14:21:09.706Z</time></trkpt><trkpt lat="40.4143078" lon="8.4076869"><ele>234.0</ele><time>2026-04-30T14:21:10.706Z</time></trkpt><trkpt lat="40.4141309" lon="8.4075748"><ele>234.0</ele><time>2026-04-30T14:21:11.706Z</time></trkpt><trkpt lat="40.4139605" lon="8.4074851"><ele>234.0</ele><time>2026-04-30T14:21:12.703Z</time></trkpt><trkpt lat="40.4137863" lon="8.4074327"><ele>234.0</ele><time>2026-04-30T14:21:13.705Z</time></trkpt><trkpt lat="40.4135968" lon="8.4074192"><ele>232.66666666666669</ele><time>2026-04-30T14:21:14.703Z</time></trkpt><trkpt lat="40.4134038" lon="8.4074478"><ele>231.33333333333334</ele><time>2026-04-30T14:21:15.705Z</time></trkpt><trkpt lat="40.4132003" lon="8.4074765"><ele>230.0</ele><time>2026-04-30T14:21:16.704Z</time></trkpt><trkpt lat="40.4129914" lon="8.4075141"><ele>228.66666666666669</ele><time>2026-04-30T14:21:17.705Z</time></trkpt><trkpt lat="40.4127918" lon="8.4075505"><ele>227.33333333333331</ele><time>2026-04-30T14:21:18.705Z</time></trkpt><trkpt lat="40.4126065" lon="8.4075697"><ele>226.0</ele><time>2026-04-30T14:21:19.702Z</time></trkpt><trkpt lat="40.412432" lon="8.4075629"><ele>226.0</ele><time>2026-04-30T14:21:20.705Z</time></trkpt><trkpt lat="40.4122499" lon="8.4075207"><ele>226.0</ele><time>2026-04-30T14:21:21.7Z</time></trkpt><trkpt lat="40.4120664" lon="8.4074687"><ele>226.0</ele><time>2026-04-30T14:21:22.704Z</time></trkpt><trkpt lat="40.4118635" lon="8.4073837"><ele>225.0</ele><time>2026-04-30T14:21:23.704Z</time></trkpt><trkpt lat="40.4116528" lon="8.4073056"><ele>224.0</ele><time>2026-04-30T14:21:24.702Z</time></trkpt><trkpt lat="40.4114206" lon="8.4072266"><ele>212.5</ele><time>2026-04-30T14:21:25.705Z</time></trkpt><trkpt lat="40.4111991" lon="8.4071483"><ele>201.0</ele><time>2026-04-30T14:21:26.706Z</time></trkpt><trkpt lat="40.4109689" lon="8.4070734"><ele>201.0</ele><time>2026-04-30T14:21:27.705Z</time></trkpt><trkpt lat="40.4107384" lon="8.4070038"><ele>201.0</ele><time>2026-04-30T14:21:28.706Z</time></trkpt><trkpt lat="40.410496" lon="8.4069467"><ele>196.5</ele><time>2026-04-30T14:21:29.703Z</time></trkpt><trkpt lat="40.4102575" lon="8.4068931"><ele>192.0</ele><time>2026-04-30T14:21:30.705Z</time></trkpt><trkpt lat="40.4100408" lon="8.4068435"><ele>192.0</ele><time>2026-04-30T14:21:31.703Z</time></trkpt><trkpt lat="40.4098374" lon="8.4068202"><ele>192.0</ele><time>2026-04-30T14:21:32.706Z</time></trkpt><trkpt lat="40.409645" lon="8.4068202"><ele>192.0</ele><time>2026-04-30T14:21:33.705Z</time></trkpt><trkpt lat="40.4094607" lon="8.4068587"><ele>190.0</ele><time>2026-04-30T14:21:34.706Z</time></trkpt><trkpt lat="40.4092721" lon="8.4069285"><ele>188.0</ele><time>2026-04-30T14:21:35.706Z</time></trkpt><trkpt lat="40.4090835" lon="8.4070331"><ele>186.0</ele><time>2026-04-30T14:21:36.704Z</time></trkpt><trkpt lat="40.408898" lon="8.4071466"><ele>188.0</ele><time>2026-04-30T14:21:37.704Z</time></trkpt><trkpt lat="40.4087156" lon="8.4072573"><ele>190.0</ele><time>2026-04-30T14:21:38.704Z</time></trkpt><trkpt lat="40.4085377" lon="8.4073612"><ele>192.0</ele><time>2026-04-30T14:21:39.705Z</time></trkpt><trkpt lat="40.408365" lon="8.4074687"><ele>192.0</ele><time>2026-04-30T14:21:40.705Z</time></trkpt><trkpt lat="40.4081975" lon="8.4075689"><ele>192.0</ele><time>2026-04-30T14:21:41.704Z</time></trkpt><trkpt lat="40.4080417" lon="8.4076847"><ele>192.0</ele><time>2026-04-30T14:21:42.701Z</time></trkpt><trkpt lat="40.407901" lon="8.407815"><ele>187.33333333333334</ele><time>2026-04-30T14:21:43.706Z</time></trkpt><trkpt lat="40.4077721" lon="8.4079684"><ele>182.66666666666669</ele><time>2026-04-30T14:21:44.702Z</time></trkpt><trkpt lat="40.40767" lon="8.4081362"><ele>178.0</ele><time>2026-04-30T14:21:45.706Z</time></trkpt><trkpt lat="40.4075985" lon="8.4083261"><ele>178.0</ele><time>2026-04-30T14:21:46.705Z</time></trkpt><trkpt lat="40.4075549" lon="8.4085268"><ele>178.0</ele><time>2026-04-30T14:21:47.701Z</time></trkpt><trkpt lat="40.4075361" lon="8.408737"><ele>178.0</ele><time>2026-04-30T14:21:48.704Z</time></trkpt><trkpt lat="40.4075409" lon="8.4089613"><ele>176.66666666666669</ele><time>2026-04-30T14:21:49.703Z</time></trkpt><trkpt lat="40.407575" lon="8.4091842"><ele>175.33333333333334</ele><time>2026-04-30T14:21:50.705Z</time></trkpt><trkpt lat="40.4076304" lon="8.4093942"><ele>174.0</ele><time>2026-04-30T14:21:51.706Z</time></trkpt><trkpt lat="40.4077118" lon="8.4096002"><ele>169.66666666666666</ele><time>2026-04-30T14:21:52.702Z</time></trkpt><trkpt lat="40.4078031" lon="8.409808"><ele>165.33333333333331</ele><time>2026-04-30T14:21:53.703Z</time></trkpt><trkpt lat="40.407887" lon="8.410009"><ele>161.0</ele><time>2026-04-30T14:21:54.702Z</time></trkpt><trkpt lat="40.4079478" lon="8.4102041"><ele>161.0</ele><time>2026-04-30T14:21:55.705Z</time></trkpt><trkpt lat="40.407984" lon="8.410403"><ele>161.0</ele><time>2026-04-30T14:21:56.704Z</time></trkpt><trkpt lat="40.4079886" lon="8.4106125"><ele>161.0</ele><time>2026-04-30T14:21:57.705Z</time></trkpt><trkpt lat="40.4079624" lon="8.4108277"><ele>161.66666666666666</ele><time>2026-04-30T14:21:58.706Z</time></trkpt><trkpt lat="40.4079148" lon="8.4110368"><ele>162.33333333333334</ele><time>2026-04-30T14:21:59.706Z</time></trkpt><trkpt lat="40.4078459" lon="8.4112371"><ele>163.0</ele><time>2026-04-30T14:22:00.705Z</time></trkpt><trkpt lat="40.4077414" lon="8.4114303"><ele>163.0</ele><time>2026-04-30T14:22:01.702Z</time></trkpt><trkpt lat="40.4076388" lon="8.4116256"><ele>163.0</ele><time>2026-04-30T14:22:02.702Z</time></trkpt><trkpt lat="40.4075272" lon="8.4118321"><ele>163.0</ele><time>2026-04-30T14:22:03.703Z</time></trkpt><trkpt lat="40.4074209" lon="8.4120389"><ele>168.0</ele><time>2026-04-30T14:22:04.7Z</time></trkpt><trkpt lat="40.4073227" lon="8.4122374"><ele>173.0</ele><time>2026-04-30T14:22:05.702Z</time></trkpt><trkpt lat="40.4072217" lon="8.4124349"><ele>178.0</ele><time>2026-04-30T14:22:06.704Z</time></trkpt><trkpt lat="40.407121" lon="8.4126237"><ele>168.33333333333334</ele><time>2026-04-30T14:22:07.702Z</time></trkpt><trkpt lat="40.4070354" lon="8.412799"><ele>158.66666666666666</ele><time>2026-04-30T14:22:08.702Z</time></trkpt><trkpt lat="40.4069407" lon="8.4129674"><ele>149.0</ele><time>2026-04-30T14:22:09.702Z</time></trkpt><trkpt lat="40.406844" lon="8.4131267"><ele>149.0</ele><time>2026-04-30T14:22:10.706Z</time></trkpt><trkpt lat="40.4067276" lon="8.4132789"><ele>149.0</ele><time>2026-04-30T14:22:11.7Z</time></trkpt><trkpt lat="40.4065944" lon="8.4133991"><ele>149.0</ele><time>2026-04-30T14:22:12.705Z</time></trkpt><trkpt lat="40.4064406" lon="8.413486"><ele>147.33333333333331</ele><time>2026-04-30T14:22:13.704Z</time></trkpt><trkpt lat="40.4062754" lon="8.413525"><ele>145.66666666666666</ele><time>2026-04-30T14:22:14.704Z</time></trkpt><trkpt lat="40.4061081" lon="8.4135214"><ele>144.0</ele><time>2026-04-30T14:22:15.704Z</time></trkpt><trkpt lat="40.4059534" lon="8.4134764"><ele>144.0</ele><time>2026-04-30T14:22:16.705Z</time></trkpt><trkpt lat="40.4057977" lon="8.413378"><ele>144.0</ele><time>2026-04-30T14:22:17.703Z</time></trkpt><trkpt lat="40.4056483" lon="8.4132465"><ele>144.0</ele><time>2026-04-30T14:22:18.706Z</time></trkpt><trkpt lat="40.4055085" lon="8.4130786"><ele>145.0</ele><time>2026-04-30T14:22:19.703Z</time></trkpt><trkpt lat="40.4053613" lon="8.4129004"><ele>146.0</ele><time>2026-04-30T14:22:20.704Z</time></trkpt><trkpt lat="40.4051905" lon="8.4127175"><ele>147.0</ele><time>2026-04-30T14:22:21.703Z</time></trkpt><trkpt lat="40.4050063" lon="8.4125429"><ele>147.0</ele><time>2026-04-30T14:22:22.705Z</time></trkpt><trkpt lat="40.4048128" lon="8.4123678"><ele>147.0</ele><time>2026-04-30T14:22:23.704Z</time></trkpt><trkpt lat="40.404623" lon="8.4122052"><ele>147.0</ele><time>2026-04-30T14:22:24.703Z</time></trkpt><trkpt lat="40.4044427" lon="8.4120447"><ele>147.0</ele><time>2026-04-30T14:22:25.706Z</time></trkpt><trkpt lat="40.4042849" lon="8.4118853"><ele>147.0</ele><time>2026-04-30T14:22:26.706Z</time></trkpt><trkpt lat="40.4041454" lon="8.4117179"><ele>147.0</ele><time>2026-04-30T14:22:27.704Z</time></trkpt><trkpt lat="40.4040249" lon="8.4115342"><ele>147.0</ele><time>2026-04-30T14:22:28.704Z</time></trkpt><trkpt lat="40.4039277" lon="8.4113286"><ele>147.0</ele><time>2026-04-30T14:22:29.705Z</time></trkpt><trkpt lat="40.4038453" lon="8.4111144"><ele>151.66666666666666</ele><time>2026-04-30T14:22:30.701Z</time></trkpt><trkpt lat="40.4037615" lon="8.4108889"><ele>156.33333333333331</ele><time>2026-04-30T14:22:31.701Z</time></trkpt><trkpt lat="40.4036601" lon="8.4106556"><ele>161.0</ele><time>2026-04-30T14:22:32.702Z</time></trkpt><trkpt lat="40.4035474" lon="8.4104147"><ele>161.0</ele><time>2026-04-30T14:22:33.699Z</time></trkpt><trkpt lat="40.4034164" lon="8.4101528"><ele>161.0</ele><time>2026-04-30T14:22:34.699Z</time></trkpt><trkpt lat="40.4032938" lon="8.4099081"><ele>161.0</ele><time>2026-04-30T14:22:35.703Z</time></trkpt><trkpt lat="40.4031843" lon="8.4096905"><ele>161.0</ele><time>2026-04-30T14:22:36.701Z</time></trkpt><trkpt lat="40.403074" lon="8.4095007"><ele>161.0</ele><time>2026-04-30T14:22:37.706Z</time></trkpt><trkpt lat="40.4029376" lon="8.4093443"><ele>164.0</ele><time>2026-04-30T14:22:38.703Z</time></trkpt><trkpt lat="40.4027864" lon="8.409217"><ele>167.0</ele><time>2026-04-30T14:22:39.705Z</time></trkpt><trkpt lat="40.4026169" lon="8.4091106"><ele>170.0</ele><time>2026-04-30T14:22:40.704Z</time></trkpt><trkpt lat="40.4024534" lon="8.4090341"><ele>170.0</ele><time>2026-04-30T14:22:41.702Z</time></trkpt><trkpt lat="40.4023048" lon="8.4090087"><ele>170.0</ele><time>2026-04-30T14:22:42.703Z</time></trkpt><trkpt lat="40.4021454" lon="8.4090339"><ele>170.0</ele><time>2026-04-30T14:22:43.705Z</time></trkpt><trkpt lat="40.401988" lon="8.4090958"><ele>167.0</ele><time>2026-04-30T14:22:44.705Z</time></trkpt><trkpt lat="40.4018478" lon="8.4092288"><ele>164.0</ele><time>2026-04-30T14:22:45.7Z</time></trkpt><trkpt lat="40.4016985" lon="8.4093724"><ele>161.0</ele><time>2026-04-30T14:22:46.7Z</time></trkpt><trkpt lat="40.4015384" lon="8.4095559"><ele>163.66666666666666</ele><time>2026-04-30T14:22:47.703Z</time></trkpt><trkpt lat="40.4013672" lon="8.4097393"><ele>166.33333333333334</ele><time>2026-04-30T14:22:48.702Z</time></trkpt><trkpt lat="40.4011945" lon="8.4099324"><ele>169.0</ele><time>2026-04-30T14:22:49.704Z</time></trkpt><trkpt lat="40.4010303" lon="8.4101119"><ele>169.0</ele><time>2026-04-30T14:22:50.706Z</time></trkpt><trkpt lat="40.4008808" lon="8.4102826"><ele>169.0</ele><time>2026-04-30T14:22:51.706Z</time></trkpt><trkpt lat="40.4007295" lon="8.4104568"><ele>169.0</ele><time>2026-04-30T14:22:52.704Z</time></trkpt><trkpt lat="40.4005845" lon="8.4106204"><ele>172.66666666666669</ele><time>2026-04-30T14:22:53.705Z</time></trkpt><trkpt lat="40.4004379" lon="8.4107776"><ele>176.33333333333334</ele><time>2026-04-30T14:22:54.704Z</time></trkpt><trkpt lat="40.4003041" lon="8.4109073"><ele>180.0</ele><time>2026-04-30T14:22:55.704Z</time></trkpt><trkpt lat="40.4001588" lon="8.411"><ele>180.0</ele><time>2026-04-30T14:22:56.7Z</time></trkpt><trkpt lat="40.400014" lon="8.4110577"><ele>180.0</ele><time>2026-04-30T14:22:57.705Z</time></trkpt><trkpt lat="40.399861" lon="8.4110741"><ele>180.0</ele><time>2026-04-30T14:22:58.706Z</time></trkpt><trkpt lat="40.3996925" lon="8.4110641"><ele>183.66666666666666</ele><time>2026-04-30T14:22:59.7Z</time></trkpt><trkpt lat="40.399512" lon="8.4110458"><ele>187.33333333333331</ele><time>2026-04-30T14:23:00.704Z</time></trkpt><trkpt lat="40.3993395" lon="8.4110192"><ele>191.0</ele><time>2026-04-30T14:23:01.702Z</time></trkpt><trkpt lat="40.3991824" lon="8.4109784"><ele>191.0</ele><time>2026-04-30T14:23:02.704Z</time></trkpt><trkpt lat="40.3990339" lon="8.4109145"><ele>191.0</ele><time>2026-04-30T14:23:03.702Z</time></trkpt><trkpt lat="40.3989014" lon="8.4108009"><ele>191.0</ele><time>2026-04-30T14:23:04.703Z</time></trkpt><trkpt lat="40.3987769" lon="8.4106632"><ele>194.66666666666666</ele><time>2026-04-30T14:23:05.705Z</time></trkpt><trkpt lat="40.3986569" lon="8.4104956"><ele>198.33333333333331</ele><time>2026-04-30T14:23:06.7Z</time></trkpt><trkpt lat="40.3985406" lon="8.4103046"><ele>202.0</ele><time>2026-04-30T14:23:07.702Z</time></trkpt><trkpt lat="40.3984148" lon="8.4101018"><ele>202.0</ele><time>2026-04-30T14:23:08.704Z</time></trkpt><trkpt lat="40.3982838" lon="8.4098997"><ele>202.0</ele><time>2026-04-30T14:23:09.705Z</time></trkpt><trkpt lat="40.398165" lon="8.4097073"><ele>202.0</ele><time>2026-04-30T14:23:10.704Z</time></trkpt><trkpt lat="40.3980628" lon="8.4095132"><ele>209.33333333333331</ele><time>2026-04-30T14:23:11.701Z</time></trkpt><trkpt lat="40.3979825" lon="8.4093158"><ele>216.66666666666669</ele><time>2026-04-30T14:23:12.702Z</time></trkpt><trkpt lat="40.3979366" lon="8.4091007"><ele>224.0</ele><time>2026-04-30T14:23:13.706Z</time></trkpt><trkpt lat="40.3979166" lon="8.4088898"><ele>224.33333333333334</ele><time>2026-04-30T14:23:14.704Z</time></trkpt><trkpt lat="40.3979391" lon="8.4086909"><ele>224.66666666666669</ele><time>2026-04-30T14:23:15.703Z</time></trkpt><trkpt lat="40.397995" lon="8.4085072"><ele>225.0</ele><time>2026-04-30T14:23:16.703Z</time></trkpt><trkpt lat="40.3980904" lon="8.4083351"><ele>225.33333333333331</ele><time>2026-04-30T14:23:17.704Z</time></trkpt><trkpt lat="40.3982188" lon="8.4081789"><ele>225.66666666666666</ele><time>2026-04-30T14:23:18.705Z</time></trkpt><trkpt lat="40.3983699" lon="8.4080432"><ele>226.0</ele><time>2026-04-30T14:23:19.702Z</time></trkpt><trkpt lat="40.3985405" lon="8.4079372"><ele>226.0</ele><time>2026-04-30T14:23:20.702Z</time></trkpt><trkpt lat="40.3987053" lon="8.4078398"><ele>226.0</ele><time>2026-04-30T14:23:21.702Z</time></trkpt><trkpt lat="40.3988637" lon="8.4077431"><ele>226.0</ele><time>2026-04-30T14:23:22.703Z</time></trkpt><trkpt lat="40.3989979" lon="8.4076237"><ele>222.0</ele><time>2026-04-30T14:23:23.704Z</time></trkpt><trkpt lat="40.3990999" lon="8.4074636"><ele>218.0</ele><time>2026-04-30T14:23:24.703Z</time></trkpt><trkpt lat="40.3991704" lon="8.4072705"><ele>214.0</ele><time>2026-04-30T14:23:25.7Z</time></trkpt><trkpt lat="40.3992047" lon="8.4070407"><ele>214.0</ele><time>2026-04-30T14:23:26.703Z</time></trkpt><trkpt lat="40.3992062" lon="8.4067791"><ele>214.0</ele><time>2026-04-30T14:23:27.701Z</time></trkpt><trkpt lat="40.3991845" lon="8.4064977"><ele>214.0</ele><time>2026-04-30T14:23:28.701Z</time></trkpt><trkpt lat="40.3991343" lon="8.4061933"><ele>212.0</ele><time>2026-04-30T14:23:29.706Z</time></trkpt><trkpt lat="40.3990697" lon="8.4058817"><ele>210.0</ele><time>2026-04-30T14:23:30.706Z</time></trkpt><trkpt lat="40.398995" lon="8.4055507"><ele>203.5</ele><time>2026-04-30T14:23:31.703Z</time></trkpt><trkpt lat="40.3989295" lon="8.4052289"><ele>197.0</ele><time>2026-04-30T14:23:32.703Z</time></trkpt><trkpt lat="40.3988713" lon="8.4049059"><ele>207.33333333333334</ele><time>2026-04-30T14:23:33.701Z</time></trkpt><trkpt lat="40.3988293" lon="8.4046093"><ele>217.66666666666669</ele><time>2026-04-30T14:23:34.703Z</time></trkpt><trkpt lat="40.3987966" lon="8.4043413"><ele>228.0</ele><time>2026-04-30T14:23:35.706Z</time></trkpt><trkpt lat="40.3987581" lon="8.4040996"><ele>228.0</ele><time>2026-04-30T14:23:36.701Z</time></trkpt><trkpt lat="40.398687" lon="8.4038863"><ele>228.0</ele><time>2026-04-30T14:23:37.704Z</time></trkpt><trkpt lat="40.3985813" lon="8.4036924"><ele>228.0</ele><time>2026-04-30T14:23:38.703Z</time></trkpt><trkpt lat="40.398441" lon="8.4035271"><ele>224.66666666666669</ele><time>2026-04-30T14:23:39.702Z</time></trkpt><trkpt lat="40.3982709" lon="8.4033928"><ele>221.33333333333334</ele><time>2026-04-30T14:23:40.7Z</time></trkpt><trkpt lat="40.3980738" lon="8.4032919"><ele>218.0</ele><time>2026-04-30T14:23:41.703Z</time></trkpt><trkpt lat="40.3978584" lon="8.403246"><ele>218.0</ele><time>2026-04-30T14:23:42.706Z</time></trkpt><trkpt lat="40.3976468" lon="8.4032307"><ele>218.0</ele><time>2026-04-30T14:23:43.7Z</time></trkpt><trkpt lat="40.3974414" lon="8.4032575"><ele>218.0</ele><time>2026-04-30T14:23:44.706Z</time></trkpt><trkpt lat="40.3972529" lon="8.4033338"><ele>215.0</ele><time>2026-04-30T14:23:45.702Z</time></trkpt><trkpt lat="40.3970701" lon="8.4034649"><ele>212.0</ele><time>2026-04-30T14:23:46.7Z</time></trkpt><trkpt lat="40.3969029" lon="8.4036256"><ele>209.0</ele><time>2026-04-30T14:23:47.704Z</time></trkpt><trkpt lat="40.3967552" lon="8.4038198"><ele>210.33333333333334</ele><time>2026-04-30T14:23:48.702Z</time></trkpt><trkpt lat="40.3966271" lon="8.4040343"><ele>211.66666666666669</ele><time>2026-04-30T14:23:49.704Z</time></trkpt><trkpt lat="40.3965097" lon="8.4042544"><ele>213.0</ele><time>2026-04-30T14:23:50.703Z</time></trkpt><trkpt lat="40.3964057" lon="8.4044621"><ele>209.66666666666669</ele><time>2026-04-30T14:23:51.706Z</time></trkpt><trkpt lat="40.396297" lon="8.4046335"><ele>206.33333333333334</ele><time>2026-04-30T14:23:52.705Z</time></trkpt><trkpt lat="40.3961698" lon="8.4047719"><ele>203.0</ele><time>2026-04-30T14:23:53.704Z</time></trkpt><trkpt lat="40.39602" lon="8.4048635"><ele>209.66666666666669</ele><time>2026-04-30T14:23:54.706Z</time></trkpt><trkpt lat="40.3958597" lon="8.4049088"><ele>216.33333333333331</ele><time>2026-04-30T14:23:55.705Z</time></trkpt><trkpt lat="40.3956939" lon="8.4049004"><ele>223.0</ele><time>2026-04-30T14:23:56.701Z</time></trkpt><trkpt lat="40.3955102" lon="8.4048629"><ele>222.33333333333331</ele><time>2026-04-30T14:23:57.705Z</time></trkpt><trkpt lat="40.3953079" lon="8.4048306"><ele>221.66666666666669</ele><time>2026-04-30T14:23:58.705Z</time></trkpt><trkpt lat="40.3950812" lon="8.4048189"><ele>221.0</ele><time>2026-04-30T14:23:59.702Z</time></trkpt><trkpt lat="40.3948256" lon="8.404826"><ele>221.5</ele><time>2026-04-30T14:24:00.702Z</time></trkpt><trkpt lat="40.3945556" lon="8.4048278"><ele>222.0</ele><time>2026-04-30T14:24:01.702Z</time></trkpt><trkpt lat="40.3942624" lon="8.4048363"><ele>222.0</ele><time>2026-04-30T14:24:02.704Z</time></trkpt><trkpt lat="40.3939921" lon="8.4048416"><ele>222.0</ele><time>2026-04-30T14:24:03.702Z</time></trkpt><trkpt lat="40.393731" lon="8.4048572"><ele>222.5</ele><time>2026-04-30T14:24:04.703Z</time></trkpt><trkpt lat="40.3934921" lon="8.40487"><ele>223.0</ele><time>2026-04-30T14:24:05.705Z</time></trkpt><trkpt lat="40.3932763" lon="8.4048736"><ele>223.0</ele><time>2026-04-30T14:24:06.706Z</time></trkpt><trkpt lat="40.3930598" lon="8.4048561"><ele>223.0</ele><time>2026-04-30T14:24:07.701Z</time></trkpt><trkpt lat="40.3928462" lon="8.4048094"><ele>223.0</ele><time>2026-04-30T14:24:08.704Z</time></trkpt><trkpt lat="40.3926261" lon="8.4047409"><ele>219.33333333333331</ele><time>2026-04-30T14:24:09.701Z</time></trkpt><trkpt lat="40.3924042" lon="8.4046486"><ele>215.66666666666669</ele><time>2026-04-30T14:24:10.705Z</time></trkpt><trkpt lat="40.3921982" lon="8.4045698"><ele>212.0</ele><time>2026-04-30T14:24:11.704Z</time></trkpt><trkpt lat="40.3920082" lon="8.4044941"><ele>212.0</ele><time>2026-04-30T14:24:12.706Z</time></trkpt><trkpt lat="40.3918311" lon="8.4044328"><ele>212.0</ele><time>2026-04-30T14:24:13.702Z</time></trkpt><trkpt lat="40.3916623" lon="8.4044087"><ele>212.0</ele><time>2026-04-30T14:24:14.703Z</time></trkpt><trkpt lat="40.3915033" lon="8.4044293"><ele>212.0</ele><time>2026-04-30T14:24:15.705Z</time></trkpt><trkpt lat="40.3913462" lon="8.404474"><ele>212.0</ele><time>2026-04-30T14:24:16.7Z</time></trkpt><trkpt lat="40.391228" lon="8.4045947"><ele>212.0</ele><time>2026-04-30T14:24:17.704Z</time></trkpt><trkpt lat="40.3911209" lon="8.4047237"><ele>219.0</ele><time>2026-04-30T14:24:18.704Z</time></trkpt><trkpt lat="40.3910107" lon="8.4048569"><ele>226.0</ele><time>2026-04-30T14:24:19.704Z</time></trkpt><trkpt lat="40.3908801" lon="8.4049537"><ele>233.0</ele><time>2026-04-30T14:24:20.704Z</time></trkpt><trkpt lat="40.3907293" lon="8.405014"><ele>233.0</ele><time>2026-04-30T14:24:21.706Z</time></trkpt><trkpt lat="40.3905792" lon="8.4050278"><ele>233.0</ele><time>2026-04-30T14:24:22.703Z</time></trkpt><trkpt lat="40.3904335" lon="8.404999"><ele>233.0</ele><time>2026-04-30T14:24:23.703Z</time></trkpt><trkpt lat="40.3902925" lon="8.4049163"><ele>234.0</ele><time>2026-04-30T14:24:24.705Z</time></trkpt><trkpt lat="40.3901688" lon="8.4047859"><ele>235.0</ele><time>2026-04-30T14:24:25.702Z</time></trkpt><trkpt lat="40.3900735" lon="8.4046209"><ele>236.0</ele><time>2026-04-30T14:24:26.706Z</time></trkpt><trkpt lat="40.3900137" lon="8.4044233"><ele>233.66666666666669</ele><time>2026-04-30T14:24:27.705Z</time></trkpt><trkpt lat="40.389985" lon="8.4041916"><ele>231.33333333333331</ele><time>2026-04-30T14:24:28.706Z</time></trkpt><trkpt lat="40.3899808" lon="8.4039417"><ele>229.0</ele><time>2026-04-30T14:24:29.705Z</time></trkpt><trkpt lat="40.3899848" lon="8.4036868"><ele>228.0</ele><time>2026-04-30T14:24:30.704Z</time></trkpt><trkpt lat="40.3899713" lon="8.4034522"><ele>227.0</ele><time>2026-04-30T14:24:31.704Z</time></trkpt><trkpt lat="40.3899275" lon="8.403248"><ele>226.0</ele><time>2026-04-30T14:24:32.703Z</time></trkpt><trkpt lat="40.3898428" lon="8.4030787"><ele>221.33333333333331</ele><time>2026-04-30T14:24:33.704Z</time></trkpt><trkpt lat="40.3897348" lon="8.4029559"><ele>216.66666666666669</ele><time>2026-04-30T14:24:34.703Z</time></trkpt><trkpt lat="40.3895983" lon="8.4028776"><ele>212.0</ele><time>2026-04-30T14:24:35.7Z</time></trkpt><trkpt lat="40.3894318" lon="8.4028151"><ele>211.66666666666669</ele><time>2026-04-30T14:24:36.704Z</time></trkpt><trkpt lat="40.3892336" lon="8.4027835"><ele>211.33333333333331</ele><time>2026-04-30T14:24:37.702Z</time></trkpt><trkpt lat="40.3890057" lon="8.4027626"><ele>211.0</ele><time>2026-04-30T14:24:38.704Z</time></trkpt><trkpt lat="40.3887463" lon="8.4027523"><ele>211.0</ele><time>2026-04-30T14:24:39.702Z</time></trkpt><trkpt lat="40.3884723" lon="8.4027443"><ele>211.0</ele><time>2026-04-30T14:24:40.703Z</time></trkpt><trkpt lat="40.3881801" lon="8.402736"><ele>213.5</ele><time>2026-04-30T14:24:41.704Z</time></trkpt><trkpt lat="40.3878952" lon="8.4027317"><ele>216.0</ele><time>2026-04-30T14:24:42.702Z</time></trkpt><trkpt lat="40.3876194" lon="8.4027322"><ele>216.0</ele><time>2026-04-30T14:24:43.706Z</time></trkpt><trkpt lat="40.3873436" lon="8.4027281"><ele>216.0</ele><time>2026-04-30T14:24:44.701Z</time></trkpt><trkpt lat="40.3870756" lon="8.4027287"><ele>215.0</ele><time>2026-04-30T14:24:45.706Z</time></trkpt><trkpt lat="40.3868002" lon="8.402752"><ele>214.0</ele><time>2026-04-30T14:24:46.701Z</time></trkpt><trkpt lat="40.3865206" lon="8.4027794"><ele>219.5</ele><time>2026-04-30T14:24:47.703Z</time></trkpt><trkpt lat="40.3862488" lon="8.4028113"><ele>225.0</ele><time>2026-04-30T14:24:48.703Z</time></trkpt><trkpt lat="40.3859892" lon="8.402836"><ele>225.0</ele><time>2026-04-30T14:24:49.703Z</time></trkpt><trkpt lat="40.3857616" lon="8.4028586"><ele>225.0</ele><time>2026-04-30T14:24:50.706Z</time></trkpt><trkpt lat="40.3855646" lon="8.4028799"><ele>225.0</ele><time>2026-04-30T14:24:51.705Z</time></trkpt><trkpt lat="40.3853869" lon="8.4029055"><ele>225.33333333333331</ele><time>2026-04-30T14:24:52.704Z</time></trkpt><trkpt lat="40.3852319" lon="8.4029482"><ele>225.66666666666666</ele><time>2026-04-30T14:24:53.705Z</time></trkpt><trkpt lat="40.3850929" lon="8.4030275"><ele>226.0</ele><time>2026-04-30T14:24:54.705Z</time></trkpt><trkpt lat="40.3849796" lon="8.4031492"><ele>232.66666666666666</ele><time>2026-04-30T14:24:55.706Z</time></trkpt><trkpt lat="40.384883" lon="8.4033188"><ele>239.33333333333331</ele><time>2026-04-30T14:24:56.701Z</time></trkpt><trkpt lat="40.3847917" lon="8.4035277"><ele>246.0</ele><time>2026-04-30T14:24:57.704Z</time></trkpt><trkpt lat="40.3847075" lon="8.4037235"><ele>247.66666666666669</ele><time>2026-04-30T14:24:58.705Z</time></trkpt><trkpt lat="40.384624" lon="8.4039233"><ele>249.33333333333334</ele><time>2026-04-30T14:24:59.7Z</time></trkpt><trkpt lat="40.3845382" lon="8.4041041"><ele>251.0</ele><time>2026-04-30T14:25:00.703Z</time></trkpt><trkpt lat="40.3844405" lon="8.4042585"><ele>251.0</ele><time>2026-04-30T14:25:01.699Z</time></trkpt><trkpt lat="40.3843155" lon="8.4043796"><ele>251.0</ele><time>2026-04-30T14:25:02.701Z</time></trkpt><trkpt lat="40.3841841" lon="8.4044673"><ele>251.0</ele><time>2026-04-30T14:25:03.705Z</time></trkpt><trkpt lat="40.384055" lon="8.4045089"><ele>251.0</ele><time>2026-04-30T14:25:04.702Z</time></trkpt><trkpt lat="40.3839097" lon="8.4045097"><ele>254.25</ele><time>2026-04-30T14:25:05.703Z</time></trkpt><trkpt lat="40.3837639" lon="8.4044713"><ele>257.5</ele><time>2026-04-30T14:25:06.704Z</time></trkpt><trkpt lat="40.3836317" lon="8.4043995"><ele>260.75</ele><time>2026-04-30T14:25:07.704Z</time></trkpt><trkpt lat="40.3835273" lon="8.4042709"><ele>264.0</ele><time>2026-04-30T14:25:08.701Z</time></trkpt><trkpt lat="40.3834354" lon="8.4041282"><ele>264.0</ele><time>2026-04-30T14:25:09.699Z</time></trkpt><trkpt lat="40.383339" lon="8.4039752"><ele>264.0</ele><time>2026-04-30T14:25:10.704Z</time></trkpt><trkpt lat="40.383233" lon="8.4038294"><ele>264.0</ele><time>2026-04-30T14:25:11.7Z</time></trkpt><trkpt lat="40.3831162" lon="8.4037209"><ele>264.0</ele><time>2026-04-30T14:25:12.702Z</time></trkpt><trkpt lat="40.382988" lon="8.4036489"><ele>262.0</ele><time>2026-04-30T14:25:13.705Z</time></trkpt><trkpt lat="40.3828427" lon="8.4036067"><ele>260.0</ele><time>2026-04-30T14:25:14.706Z</time></trkpt><trkpt lat="40.3827" lon="8.4036041"><ele>258.0</ele><time>2026-04-30T14:25:15.701Z</time></trkpt><trkpt lat="40.3825544" lon="8.403653"><ele>256.0</ele><time>2026-04-30T14:25:16.703Z</time></trkpt><trkpt lat="40.3824129" lon="8.403743"><ele>257.3333333333333</ele><time>2026-04-30T14:25:17.701Z</time></trkpt><trkpt lat="40.382294" lon="8.4038666"><ele>258.6666666666667</ele><time>2026-04-30T14:25:18.7Z</time></trkpt><trkpt lat="40.3821965" lon="8.4040175"><ele>260.0</ele><time>2026-04-30T14:25:19.701Z</time></trkpt><trkpt lat="40.3821039" lon="8.4041933"><ele>260.0</ele><time>2026-04-30T14:25:20.702Z</time></trkpt><trkpt lat="40.3820091" lon="8.4043937"><ele>260.0</ele><time>2026-04-30T14:25:21.701Z</time></trkpt><trkpt lat="40.381907" lon="8.4046074"><ele>260.0</ele><time>2026-04-30T14:25:22.7Z</time></trkpt><trkpt lat="40.3818044" lon="8.4048176"><ele>267.0</ele><time>2026-04-30T14:25:23.702Z</time></trkpt><trkpt lat="40.381699" lon="8.405028"><ele>274.0</ele><time>2026-04-30T14:25:24.702Z</time></trkpt><trkpt lat="40.3815934" lon="8.4052397"><ele>281.0</ele><time>2026-04-30T14:25:25.703Z</time></trkpt><trkpt lat="40.3814852" lon="8.4054586"><ele>277.6666666666667</ele><time>2026-04-30T14:25:26.706Z</time></trkpt><trkpt lat="40.3813802" lon="8.4056897"><ele>274.3333333333333</ele><time>2026-04-30T14:25:27.702Z</time></trkpt><trkpt lat="40.3812762" lon="8.405938"><ele>271.0</ele><time>2026-04-30T14:25:28.704Z</time></trkpt><trkpt lat="40.381178" lon="8.4061903"><ele>277.0</ele><time>2026-04-30T14:25:29.704Z</time></trkpt><trkpt lat="40.3810894" lon="8.4064219"><ele>283.0</ele><time>2026-04-30T14:25:30.703Z</time></trkpt><trkpt lat="40.3810088" lon="8.4066413"><ele>289.0</ele><time>2026-04-30T14:25:31.705Z</time></trkpt><trkpt lat="40.3809377" lon="8.4068392"><ele>289.0</ele><time>2026-04-30T14:25:32.701Z</time></trkpt><trkpt lat="40.3808699" lon="8.4070225"><ele>289.0</ele><time>2026-04-30T14:25:33.7Z</time></trkpt><trkpt lat="40.3807879" lon="8.4071881"><ele>289.0</ele><time>2026-04-30T14:25:34.697Z</time></trkpt><trkpt lat="40.3806896" lon="8.4073266"><ele>293.5</ele><time>2026-04-30T14:25:35.703Z</time></trkpt><trkpt lat="40.3805737" lon="8.407435"><ele>298.0</ele><time>2026-04-30T14:25:36.703Z</time></trkpt><trkpt lat="40.3804407" lon="8.4075036"><ele>302.5</ele><time>2026-04-30T14:25:37.703Z</time></trkpt><trkpt lat="40.3803012" lon="8.4075325"><ele>307.0</ele><time>2026-04-30T14:25:38.705Z</time></trkpt><trkpt lat="40.3801738" lon="8.4075243"><ele>307.0</ele><time>2026-04-30T14:25:39.705Z</time></trkpt><trkpt lat="40.3800501" lon="8.4074782"><ele>307.0</ele><time>2026-04-30T14:25:40.703Z</time></trkpt><trkpt lat="40.3799303" lon="8.4073975"><ele>307.0</ele><time>2026-04-30T14:25:41.705Z</time></trkpt><trkpt lat="40.3798247" lon="8.4072854"><ele>307.0</ele><time>2026-04-30T14:25:42.701Z</time></trkpt><trkpt lat="40.3797219" lon="8.4071403"><ele>310.0</ele><time>2026-04-30T14:25:43.705Z</time></trkpt><trkpt lat="40.3796122" lon="8.4069777"><ele>313.0</ele><time>2026-04-30T14:25:44.702Z</time></trkpt><trkpt lat="40.3794903" lon="8.4068067"><ele>316.0</ele><time>2026-04-30T14:25:45.704Z</time></trkpt><trkpt lat="40.3793755" lon="8.4066403"><ele>316.0</ele><time>2026-04-30T14:25:46.702Z</time></trkpt><trkpt lat="40.3792521" lon="8.4064908"><ele>316.0</ele><time>2026-04-30T14:25:47.703Z</time></trkpt><trkpt lat="40.3791205" lon="8.4063791"><ele>316.0</ele><time>2026-04-30T14:25:48.699Z</time></trkpt><trkpt lat="40.3789714" lon="8.4063114"><ele>317.3333333333333</ele><time>2026-04-30T14:25:49.7Z</time></trkpt><trkpt lat="40.3788116" lon="8.4062639"><ele>318.6666666666667</ele><time>2026-04-30T14:25:50.705Z</time></trkpt><trkpt lat="40.3786626" lon="8.406235"><ele>320.0</ele><time>2026-04-30T14:25:51.702Z</time></trkpt><trkpt lat="40.3785157" lon="8.4061893"><ele>320.0</ele><time>2026-04-30T14:25:52.703Z</time></trkpt><trkpt lat="40.3783879" lon="8.4060901"><ele>320.0</ele><time>2026-04-30T14:25:53.697Z</time></trkpt><trkpt lat="40.378275" lon="8.4059765"><ele>320.0</ele><time>2026-04-30T14:25:54.702Z</time></trkpt><trkpt lat="40.3781831" lon="8.4058194"><ele>320.0</ele><time>2026-04-30T14:25:55.701Z</time></trkpt><trkpt lat="40.3781007" lon="8.4056285"><ele>318.6666666666667</ele><time>2026-04-30T14:25:56.701Z</time></trkpt><trkpt lat="40.3780289" lon="8.4054132"><ele>317.3333333333333</ele><time>2026-04-30T14:25:57.704Z</time></trkpt><trkpt lat="40.3779759" lon="8.405177"><ele>316.0</ele><time>2026-04-30T14:25:58.702Z</time></trkpt><trkpt lat="40.3779199" lon="8.4049428"><ele>325.3333333333333</ele><time>2026-04-30T14:25:59.706Z</time></trkpt><trkpt lat="40.3778542" lon="8.4047217"><ele>334.6666666666667</ele><time>2026-04-30T14:26:00.703Z</time></trkpt><trkpt lat="40.3777763" lon="8.4045309"><ele>344.0</ele><time>2026-04-30T14:26:01.704Z</time></trkpt><trkpt lat="40.3776746" lon="8.4043756"><ele>344.0</ele><time>2026-04-30T14:26:02.702Z</time></trkpt><trkpt lat="40.3775554" lon="8.4042498"><ele>344.0</ele><time>2026-04-30T14:26:03.702Z</time></trkpt><trkpt lat="40.3774116" lon="8.4041601"><ele>344.0</ele><time>2026-04-30T14:26:04.7Z</time></trkpt><trkpt lat="40.3772454" lon="8.4041092"><ele>345.0</ele><time>2026-04-30T14:26:05.706Z</time></trkpt><trkpt lat="40.3770559" lon="8.4040847"><ele>346.0</ele><time>2026-04-30T14:26:06.701Z</time></trkpt><trkpt lat="40.3768584" lon="8.4040733"><ele>347.0</ele><time>2026-04-30T14:26:07.702Z</time></trkpt><trkpt lat="40.3766398" lon="8.4040651"><ele>347.0</ele><time>2026-04-30T14:26:08.704Z</time></trkpt><trkpt lat="40.376406" lon="8.4040577"><ele>347.0</ele><time>2026-04-30T14:26:09.701Z</time></trkpt><trkpt lat="40.3761902" lon="8.4040521"><ele>347.6666666666667</ele><time>2026-04-30T14:26:10.704Z</time></trkpt><trkpt lat="40.375999" lon="8.4040623"><ele>348.3333333333333</ele><time>2026-04-30T14:26:11.702Z</time></trkpt><trkpt lat="40.3758217" lon="8.4040885"><ele>349.0</ele><time>2026-04-30T14:26:12.706Z</time></trkpt><trkpt lat="40.3756828" lon="8.4041858"><ele>349.0</ele><time>2026-04-30T14:26:13.706Z</time></trkpt><trkpt lat="40.3755613" lon="8.4043048"><ele>349.0</ele><time>2026-04-30T14:26:14.704Z</time></trkpt><trkpt lat="40.3754452" lon="8.4044554"><ele>349.0</ele><time>2026-04-30T14:26:15.703Z</time></trkpt><trkpt lat="40.3753574" lon="8.4046268"><ele>349.5</ele><time>2026-04-30T14:26:16.7Z</time></trkpt><trkpt lat="40.375283" lon="8.4048147"><ele>350.0</ele><time>2026-04-30T14:26:17.7Z</time></trkpt><trkpt lat="40.3752084" lon="8.404978"><ele>350.5</ele><time>2026-04-30T14:26:18.702Z</time></trkpt><trkpt lat="40.375124" lon="8.4051113"><ele>351.0</ele><time>2026-04-30T14:26:19.7Z</time></trkpt><trkpt lat="40.3750088" lon="8.4052118"><ele>351.0</ele><time>2026-04-30T14:26:20.7Z</time></trkpt><trkpt lat="40.3748734" lon="8.4052808"><ele>351.0</ele><time>2026-04-30T14:26:21.701Z</time></trkpt><trkpt lat="40.3747228" lon="8.4053116"><ele>351.0</ele><time>2026-04-30T14:26:22.703Z</time></trkpt><trkpt lat="40.3745571" lon="8.4053044"><ele>352.3333333333333</ele><time>2026-04-30T14:26:23.701Z</time></trkpt><trkpt lat="40.3743732" lon="8.4052626"><ele>353.66666666666663</ele><time>2026-04-30T14:26:24.702Z</time></trkpt><trkpt lat="40.3741706" lon="8.4052188"><ele>355.0</ele><time>2026-04-30T14:26:25.701Z</time></trkpt><trkpt lat="40.3739408" lon="8.4051667"><ele>359.0</ele><time>2026-04-30T14:26:26.703Z</time></trkpt><trkpt lat="40.3737345" lon="8.4051215"><ele>363.0</ele><time>2026-04-30T14:26:27.7Z</time></trkpt><trkpt lat="40.3735546" lon="8.4050804"><ele>367.0</ele><time>2026-04-30T14:26:28.7Z</time></trkpt><trkpt lat="40.3733867" lon="8.4050242"><ele>367.0</ele><time>2026-04-30T14:26:29.7Z</time></trkpt><trkpt lat="40.3732504" lon="8.4049275"><ele>367.0</ele><time>2026-04-30T14:26:30.701Z</time></trkpt><trkpt lat="40.3731241" lon="8.404787"><ele>367.0</ele><time>2026-04-30T14:26:31.703Z</time></trkpt><trkpt lat="40.3730325" lon="8.4046137"><ele>372.66666666666663</ele><time>2026-04-30T14:26:32.7Z</time></trkpt><trkpt lat="40.3729775" lon="8.4044116"><ele>378.3333333333333</ele><time>2026-04-30T14:26:33.703Z</time></trkpt><trkpt lat="40.3729661" lon="8.4041839"><ele>384.0</ele><time>2026-04-30T14:26:34.706Z</time></trkpt><trkpt lat="40.3729791" lon="8.403942"><ele>383.6666666666667</ele><time>2026-04-30T14:26:35.703Z</time></trkpt><trkpt lat="40.3730048" lon="8.4036862"><ele>383.33333333333337</ele><time>2026-04-30T14:26:36.706Z</time></trkpt><trkpt lat="40.3730129" lon="8.4034347"><ele>383.0</ele><time>2026-04-30T14:26:37.702Z</time></trkpt><trkpt lat="40.3729958" lon="8.4031838"><ele>380.0</ele><time>2026-04-30T14:26:38.704Z</time></trkpt><trkpt lat="40.3729605" lon="8.4029418"><ele>377.0</ele><time>2026-04-30T14:26:39.703Z</time></trkpt><trkpt lat="40.3729193" lon="8.4027151"><ele>374.0</ele><time>2026-04-30T14:26:40.704Z</time></trkpt><trkpt lat="40.3728783" lon="8.4024955"><ele>374.0</ele><time>2026-04-30T14:26:41.7Z</time></trkpt><trkpt lat="40.3727916" lon="8.4023341"><ele>374.0</ele><time>2026-04-30T14:26:42.702Z</time></trkpt><trkpt lat="40.3726993" lon="8.4021899"><ele>374.0</ele><time>2026-04-30T14:26:43.704Z</time></trkpt><trkpt lat="40.3725812" lon="8.4020934"><ele>374.0</ele><time>2026-04-30T14:26:44.705Z</time></trkpt><trkpt lat="40.3724493" lon="8.40203"><ele>370.0</ele><time>2026-04-30T14:26:45.703Z</time></trkpt><trkpt lat="40.3722914" lon="8.4019981"><ele>366.0</ele><time>2026-04-30T14:26:46.704Z</time></trkpt><trkpt lat="40.3721216" lon="8.4019717"><ele>362.0</ele><time>2026-04-30T14:26:47.704Z</time></trkpt><trkpt lat="40.3719184" lon="8.4019358"><ele>361.0</ele><time>2026-04-30T14:26:48.701Z</time></trkpt><trkpt lat="40.3716993" lon="8.4019116"><ele>360.0</ele><time>2026-04-30T14:26:49.701Z</time></trkpt><trkpt lat="40.3714797" lon="8.4018892"><ele>359.0</ele><time>2026-04-30T14:26:50.703Z</time></trkpt><trkpt lat="40.3712535" lon="8.4018599"><ele>359.0</ele><time>2026-04-30T14:26:51.703Z</time></trkpt><trkpt lat="40.3710161" lon="8.4018302"><ele>359.0</ele><time>2026-04-30T14:26:52.705Z</time></trkpt><trkpt lat="40.37077" lon="8.4018067"><ele>359.0</ele><time>2026-04-30T14:26:53.703Z</time></trkpt><trkpt lat="40.370516" lon="8.4017796"><ele>359.0</ele><time>2026-04-30T14:26:54.706Z</time></trkpt><trkpt lat="40.3702569" lon="8.4017469"><ele>359.0</ele><time>2026-04-30T14:26:55.699Z</time></trkpt><trkpt lat="40.3700027" lon="8.4017118"><ele>359.0</ele><time>2026-04-30T14:26:56.704Z</time></trkpt><trkpt lat="40.369748" lon="8.4016877"><ele>362.0</ele><time>2026-04-30T14:26:57.703Z</time></trkpt><trkpt lat="40.3695026" lon="8.401657"><ele>365.0</ele><time>2026-04-30T14:26:58.704Z</time></trkpt><trkpt lat="40.3692577" lon="8.4016294"><ele>365.0</ele><time>2026-04-30T14:26:59.701Z</time></trkpt><trkpt lat="40.3690105" lon="8.4016271"><ele>365.0</ele><time>2026-04-30T14:27:00.705Z</time></trkpt><trkpt lat="40.3687547" lon="8.4016338"><ele>365.0</ele><time>2026-04-30T14:27:01.703Z</time></trkpt><trkpt lat="40.368498" lon="8.401641"><ele>365.0</ele><time>2026-04-30T14:27:02.701Z</time></trkpt><trkpt lat="40.3682545" lon="8.4016568"><ele>366.0</ele><time>2026-04-30T14:27:03.704Z</time></trkpt><trkpt lat="40.3680265" lon="8.4016569"><ele>367.0</ele><time>2026-04-30T14:27:04.699Z</time></trkpt><trkpt lat="40.3678041" lon="8.4016243"><ele>367.0</ele><time>2026-04-30T14:27:05.704Z</time></trkpt><trkpt lat="40.3675806" lon="8.4015605"><ele>367.0</ele><time>2026-04-30T14:27:06.701Z</time></trkpt><trkpt lat="40.3673664" lon="8.401472"><ele>369.3333333333333</ele><time>2026-04-30T14:27:07.7Z</time></trkpt><trkpt lat="40.3671676" lon="8.4013782"><ele>371.6666666666667</ele><time>2026-04-30T14:27:08.706Z</time></trkpt><trkpt lat="40.3669868" lon="8.4012916"><ele>374.0</ele><time>2026-04-30T14:27:09.706Z</time></trkpt><trkpt lat="40.3668286" lon="8.401232"><ele>374.0</ele><time>2026-04-30T14:27:10.704Z</time></trkpt><trkpt lat="40.3666711" lon="8.4012082"><ele>374.0</ele><time>2026-04-30T14:27:11.705Z</time></trkpt><trkpt lat="40.3665139" lon="8.401267"><ele>374.0</ele><time>2026-04-30T14:27:12.706Z</time></trkpt><trkpt lat="40.3663699" lon="8.4013512"><ele>367.6666666666667</ele><time>2026-04-30T14:27:13.698Z</time></trkpt><trkpt lat="40.3662433" lon="8.4014783"><ele>361.3333333333333</ele><time>2026-04-30T14:27:14.702Z</time></trkpt><trkpt lat="40.3661245" lon="8.4016312"><ele>355.0</ele><time>2026-04-30T14:27:15.703Z</time></trkpt><trkpt lat="40.3660007" lon="8.4017686"><ele>355.0</ele><time>2026-04-30T14:27:16.704Z</time></trkpt><trkpt lat="40.3658486" lon="8.4018692"><ele>355.0</ele><time>2026-04-30T14:27:17.702Z</time></trkpt><trkpt lat="40.3657038" lon="8.4019355"><ele>355.0</ele><time>2026-04-30T14:27:18.7Z</time></trkpt><trkpt lat="40.3655305" lon="8.4019522"><ele>351.66666666666663</ele><time>2026-04-30T14:27:19.701Z</time></trkpt><trkpt lat="40.3653513" lon="8.4019706"><ele>348.3333333333333</ele><time>2026-04-30T14:27:20.705Z</time></trkpt><trkpt lat="40.3651924" lon="8.401998"><ele>345.0</ele><time>2026-04-30T14:27:21.703Z</time></trkpt><trkpt lat="40.3650536" lon="8.4020465"><ele>345.0</ele><time>2026-04-30T14:27:22.701Z</time></trkpt><trkpt lat="40.3649336" lon="8.40211"><ele>345.0</ele><time>2026-04-30T14:27:23.705Z</time></trkpt><trkpt lat="40.3648452" lon="8.4021905"><ele>345.0</ele><time>2026-04-30T14:27:24.7Z</time></trkpt><trkpt lat="40.3647614" lon="8.4022632"><ele>345.0</ele><time>2026-04-30T14:27:25.703Z</time></trkpt><trkpt lat="40.3646973" lon="8.4023329"><ele>345.0</ele><time>2026-04-30T14:27:26.705Z</time></trkpt><trkpt lat="40.3646439" lon="8.4023842"><ele>345.7142857142857</ele><time>2026-04-30T14:27:27.702Z</time></trkpt><trkpt lat="40.3645684" lon="8.4024324"><ele>346.42857142857144</ele><time>2026-04-30T14:27:29.706Z</time></trkpt><trkpt lat="40.3645057" lon="8.4024693"><ele>347.1428571428571</ele><time>2026-04-30T14:29:26.698Z</time></trkpt><trkpt lat="40.3644865" lon="8.4023811"><ele>347.8571428571429</ele><time>2026-04-30T14:29:33.703Z</time></trkpt><trkpt lat="40.3645108" lon="8.4024596"><ele>348.57142857142856</ele><time>2026-04-30T14:30:57.704Z</time></trkpt><trkpt lat="40.36449" lon="8.402544"><ele>349.2857142857143</ele><time>2026-04-30T14:45:54.698Z</time></trkpt><trkpt lat="40.364534" lon="8.4026184"><ele>350.0</ele><time>2026-04-30T14:46:02.701Z</time></trkpt><trkpt lat="40.3645758" lon="8.4027027"><ele>350.0</ele><time>2026-04-30T14:46:06.697Z</time></trkpt><trkpt lat="40.3646105" lon="8.4027799"><ele>350.0</ele><time>2026-04-30T14:46:32.699Z</time></trkpt><trkpt lat="40.3646505" lon="8.4028701"><ele>350.0</ele><time>2026-04-30T14:46:34.702Z</time></trkpt><trkpt lat="40.3646908" lon="8.4030258"><ele>350.0</ele><time>2026-04-30T14:46:36.701Z</time></trkpt><trkpt lat="40.3647146" lon="8.4031391"><ele>350.0</ele><time>2026-04-30T14:46:37.701Z</time></trkpt><trkpt lat="40.3647534" lon="8.4032259"><ele>350.0</ele><time>2026-04-30T14:46:38.706Z</time></trkpt><trkpt lat="40.364803" lon="8.4033033"><ele>353.0</ele><time>2026-04-30T14:46:39.698Z</time></trkpt><trkpt lat="40.3648635" lon="8.4033725"><ele>356.0</ele><time>2026-04-30T14:46:40.697Z</time></trkpt><trkpt lat="40.36493" lon="8.4034318"><ele>359.0</ele><time>2026-04-30T14:46:41.696Z</time></trkpt><trkpt lat="40.3650053" lon="8.4034869"><ele>362.0</ele><time>2026-04-30T14:46:42.704Z</time></trkpt><trkpt lat="40.3650883" lon="8.403544"><ele>365.0</ele><time>2026-04-30T14:46:43.699Z</time></trkpt><trkpt lat="40.3651839" lon="8.4036002"><ele>368.0</ele><time>2026-04-30T14:46:44.694Z</time></trkpt><trkpt lat="40.3652954" lon="8.4036508"><ele>368.0</ele><time>2026-04-30T14:46:45.694Z</time></trkpt><trkpt lat="40.3654136" lon="8.4037025"><ele>368.0</ele><time>2026-04-30T14:46:46.698Z</time></trkpt><trkpt lat="40.3655371" lon="8.4037611"><ele>368.0</ele><time>2026-04-30T14:46:47.699Z</time></trkpt><trkpt lat="40.3656639" lon="8.4038332"><ele>368.0</ele><time>2026-04-30T14:46:48.697Z</time></trkpt><trkpt lat="40.3657919" lon="8.4039214"><ele>366.33333333333337</ele><time>2026-04-30T14:46:49.701Z</time></trkpt><trkpt lat="40.3659191" lon="8.4040249"><ele>364.6666666666667</ele><time>2026-04-30T14:46:50.701Z</time></trkpt><trkpt lat="40.3660443" lon="8.4041428"><ele>363.0</ele><time>2026-04-30T14:46:51.7Z</time></trkpt><trkpt lat="40.3661626" lon="8.4042764"><ele>363.0</ele><time>2026-04-30T14:46:52.702Z</time></trkpt><trkpt lat="40.3662785" lon="8.4044203"><ele>363.0</ele><time>2026-04-30T14:46:53.703Z</time></trkpt><trkpt lat="40.3663902" lon="8.4045624"><ele>363.0</ele><time>2026-04-30T14:46:54.7Z</time></trkpt><trkpt lat="40.3664953" lon="8.4046941"><ele>362.0</ele><time>2026-04-30T14:46:55.699Z</time></trkpt><trkpt lat="40.3666009" lon="8.4048146"><ele>361.0</ele><time>2026-04-30T14:46:56.698Z</time></trkpt><trkpt lat="40.3667096" lon="8.4049203"><ele>360.0</ele><time>2026-04-30T14:46:57.697Z</time></trkpt><trkpt lat="40.366824" lon="8.4050079"><ele>359.0</ele><time>2026-04-30T14:46:58.698Z</time></trkpt><trkpt lat="40.3669408" lon="8.4050798"><ele>359.0</ele><time>2026-04-30T14:46:59.701Z</time></trkpt><trkpt lat="40.3670542" lon="8.4051562"><ele>359.0</ele><time>2026-04-30T14:47:00.697Z</time></trkpt><trkpt lat="40.3671554" lon="8.4052493"><ele>359.0</ele><time>2026-04-30T14:47:01.698Z</time></trkpt><trkpt lat="40.3672438" lon="8.4053622"><ele>359.0</ele><time>2026-04-30T14:47:02.697Z</time></trkpt><trkpt lat="40.3673136" lon="8.4054956"><ele>359.0</ele><time>2026-04-30T14:47:03.698Z</time></trkpt><trkpt lat="40.3673597" lon="8.4056478"><ele>359.0</ele><time>2026-04-30T14:47:04.699Z</time></trkpt><trkpt lat="40.3673777" lon="8.4058111"><ele>359.0</ele><time>2026-04-30T14:47:05.699Z</time></trkpt><trkpt lat="40.3673665" lon="8.4059797"><ele>359.0</ele><time>2026-04-30T14:47:06.702Z</time></trkpt><trkpt lat="40.3673227" lon="8.4061414"><ele>359.0</ele><time>2026-04-30T14:47:07.7Z</time></trkpt><trkpt lat="40.367253" lon="8.4062937"><ele>359.0</ele><time>2026-04-30T14:47:08.697Z</time></trkpt><trkpt lat="40.3671631" lon="8.4064471"><ele>359.0</ele><time>2026-04-30T14:47:09.7Z</time></trkpt><trkpt lat="40.3670615" lon="8.4066098"><ele>359.0</ele><time>2026-04-30T14:47:10.699Z</time></trkpt><trkpt lat="40.3669512" lon="8.4067841"><ele>355.6666666666667</ele><time>2026-04-30T14:47:11.7Z</time></trkpt><trkpt lat="40.3668337" lon="8.4069697"><ele>352.3333333333333</ele><time>2026-04-30T14:47:12.7Z</time></trkpt><trkpt lat="40.3667146" lon="8.4071635"><ele>349.0</ele><time>2026-04-30T14:47:13.699Z</time></trkpt><trkpt lat="40.3666046" lon="8.4073477"><ele>349.0</ele><time>2026-04-30T14:47:14.701Z</time></trkpt><trkpt lat="40.3665091" lon="8.4075269"><ele>349.0</ele><time>2026-04-30T14:47:15.701Z</time></trkpt><trkpt lat="40.3664316" lon="8.4077103"><ele>349.0</ele><time>2026-04-30T14:47:16.702Z</time></trkpt><trkpt lat="40.36638" lon="8.4079044"><ele>349.3333333333333</ele><time>2026-04-30T14:47:17.699Z</time></trkpt><trkpt lat="40.3663587" lon="8.4081083"><ele>349.6666666666667</ele><time>2026-04-30T14:47:18.701Z</time></trkpt><trkpt lat="40.3663619" lon="8.4083232"><ele>350.0</ele><time>2026-04-30T14:47:19.7Z</time></trkpt><trkpt lat="40.3663743" lon="8.4085446"><ele>350.0</ele><time>2026-04-30T14:47:20.697Z</time></trkpt><trkpt lat="40.3663865" lon="8.4087709"><ele>350.0</ele><time>2026-04-30T14:47:21.7Z</time></trkpt><trkpt lat="40.3663917" lon="8.4089941"><ele>350.0</ele><time>2026-04-30T14:47:22.7Z</time></trkpt><trkpt lat="40.3663822" lon="8.4092127"><ele>344.33333333333337</ele><time>2026-04-30T14:47:23.699Z</time></trkpt><trkpt lat="40.3663432" lon="8.409418"><ele>338.6666666666667</ele><time>2026-04-30T14:47:24.7Z</time></trkpt><trkpt lat="40.366282" lon="8.4095991"><ele>333.0</ele><time>2026-04-30T14:47:25.7Z</time></trkpt><trkpt lat="40.3661988" lon="8.409749"><ele>333.0</ele><time>2026-04-30T14:47:26.7Z</time></trkpt><trkpt lat="40.3660954" lon="8.4098732"><ele>333.0</ele><time>2026-04-30T14:47:27.699Z</time></trkpt><trkpt lat="40.3659726" lon="8.409982"><ele>333.0</ele><time>2026-04-30T14:47:28.7Z</time></trkpt><trkpt lat="40.3658332" lon="8.4100748"><ele>333.0</ele><time>2026-04-30T14:47:29.7Z</time></trkpt><trkpt lat="40.3656772" lon="8.4101622"><ele>328.3333333333333</ele><time>2026-04-30T14:47:30.7Z</time></trkpt><trkpt lat="40.3655081" lon="8.4102546"><ele>323.66666666666663</ele><time>2026-04-30T14:47:31.701Z</time></trkpt><trkpt lat="40.365333" lon="8.4103507"><ele>319.0</ele><time>2026-04-30T14:47:32.698Z</time></trkpt><trkpt lat="40.3651638" lon="8.4104456"><ele>324.3333333333333</ele><time>2026-04-30T14:47:33.697Z</time></trkpt><trkpt lat="40.3650031" lon="8.4105509"><ele>329.6666666666667</ele><time>2026-04-30T14:47:34.702Z</time></trkpt><trkpt lat="40.3648588" lon="8.4106786"><ele>335.0</ele><time>2026-04-30T14:47:35.701Z</time></trkpt><trkpt lat="40.3647266" lon="8.4108305"><ele>328.0</ele><time>2026-04-30T14:47:36.697Z</time></trkpt><trkpt lat="40.364598" lon="8.411002"><ele>321.0</ele><time>2026-04-30T14:47:37.703Z</time></trkpt><trkpt lat="40.3644645" lon="8.4111841"><ele>314.0</ele><time>2026-04-30T14:47:38.698Z</time></trkpt><trkpt lat="40.3643296" lon="8.4113716"><ele>314.0</ele><time>2026-04-30T14:47:39.698Z</time></trkpt><trkpt lat="40.3641905" lon="8.4115662"><ele>314.0</ele><time>2026-04-30T14:47:40.698Z</time></trkpt><trkpt lat="40.3640484" lon="8.411765"><ele>314.0</ele><time>2026-04-30T14:47:41.697Z</time></trkpt><trkpt lat="40.3638993" lon="8.4119677"><ele>311.33333333333337</ele><time>2026-04-30T14:47:42.699Z</time></trkpt><trkpt lat="40.3637488" lon="8.4121767"><ele>308.6666666666667</ele><time>2026-04-30T14:47:43.696Z</time></trkpt><trkpt lat="40.3635948" lon="8.4123922"><ele>306.0</ele><time>2026-04-30T14:47:44.694Z</time></trkpt><trkpt lat="40.3634389" lon="8.4126111"><ele>306.0</ele><time>2026-04-30T14:47:45.699Z</time></trkpt><trkpt lat="40.3632795" lon="8.4128348"><ele>306.0</ele><time>2026-04-30T14:47:46.697Z</time></trkpt><trkpt lat="40.3631182" lon="8.4130617"><ele>302.5</ele><time>2026-04-30T14:47:47.699Z</time></trkpt><trkpt lat="40.3629532" lon="8.4132889"><ele>299.0</ele><time>2026-04-30T14:47:48.7Z</time></trkpt><trkpt lat="40.3627888" lon="8.4135174"><ele>299.0</ele><time>2026-04-30T14:47:49.699Z</time></trkpt><trkpt lat="40.3626244" lon="8.4137462"><ele>299.0</ele><time>2026-04-30T14:47:50.697Z</time></trkpt><trkpt lat="40.3624594" lon="8.4139775"><ele>295.5</ele><time>2026-04-30T14:47:51.699Z</time></trkpt><trkpt lat="40.3622937" lon="8.4142106"><ele>292.0</ele><time>2026-04-30T14:47:52.698Z</time></trkpt><trkpt lat="40.3621262" lon="8.4144437"><ele>293.0</ele><time>2026-04-30T14:47:53.701Z</time></trkpt><trkpt lat="40.3619574" lon="8.4146773"><ele>294.0</ele><time>2026-04-30T14:47:54.699Z</time></trkpt><trkpt lat="40.3617878" lon="8.4149129"><ele>294.0</ele><time>2026-04-30T14:47:55.701Z</time></trkpt><trkpt lat="40.3616183" lon="8.41515"><ele>294.0</ele><time>2026-04-30T14:47:56.7Z</time></trkpt><trkpt lat="40.3614505" lon="8.4153824"><ele>290.0</ele><time>2026-04-30T14:47:57.699Z</time></trkpt><trkpt lat="40.3612851" lon="8.4156084"><ele>286.0</ele><time>2026-04-30T14:47:58.698Z</time></trkpt><trkpt lat="40.3611193" lon="8.4158354"><ele>286.0</ele><time>2026-04-30T14:47:59.698Z</time></trkpt><trkpt lat="40.3609534" lon="8.4160627"><ele>286.0</ele><time>2026-04-30T14:48:00.696Z</time></trkpt><trkpt lat="40.3607931" lon="8.4162901"><ele>284.0</ele><time>2026-04-30T14:48:01.703Z</time></trkpt><trkpt lat="40.3606385" lon="8.4165126"><ele>282.0</ele><time>2026-04-30T14:48:02.698Z</time></trkpt><trkpt lat="40.3604895" lon="8.416744"><ele>282.0</ele><time>2026-04-30T14:48:03.703Z</time></trkpt><trkpt lat="40.3603497" lon="8.4169853"><ele>282.0</ele><time>2026-04-30T14:48:04.699Z</time></trkpt><trkpt lat="40.3602192" lon="8.4172367"><ele>286.0</ele><time>2026-04-30T14:48:05.696Z</time></trkpt><trkpt lat="40.3600947" lon="8.4174965"><ele>290.0</ele><time>2026-04-30T14:48:06.697Z</time></trkpt><trkpt lat="40.3599694" lon="8.4177615"><ele>294.0</ele><time>2026-04-30T14:48:07.704Z</time></trkpt><trkpt lat="40.3598409" lon="8.4180286"><ele>298.0</ele><time>2026-04-30T14:48:08.7Z</time></trkpt><trkpt lat="40.3597108" lon="8.4182974"><ele>290.0</ele><time>2026-04-30T14:48:09.706Z</time></trkpt><trkpt lat="40.3595782" lon="8.4185685"><ele>282.0</ele><time>2026-04-30T14:48:10.698Z</time></trkpt><trkpt lat="40.3594478" lon="8.4188367"><ele>282.0</ele><time>2026-04-30T14:48:11.698Z</time></trkpt><trkpt lat="40.3593209" lon="8.4190948"><ele>282.0</ele><time>2026-04-30T14:48:12.697Z</time></trkpt><trkpt lat="40.3591985" lon="8.4193426"><ele>282.0</ele><time>2026-04-30T14:48:13.697Z</time></trkpt><trkpt lat="40.3590782" lon="8.419588"><ele>282.0</ele><time>2026-04-30T14:48:14.699Z</time></trkpt><trkpt lat="40.3589585" lon="8.4198341"><ele>282.0</ele><time>2026-04-30T14:48:15.697Z</time></trkpt><trkpt lat="40.3588389" lon="8.4200835"><ele>280.0</ele><time>2026-04-30T14:48:16.699Z</time></trkpt><trkpt lat="40.358721" lon="8.4203267"><ele>278.0</ele><time>2026-04-30T14:48:17.701Z</time></trkpt><trkpt lat="40.35861" lon="8.4205501"><ele>276.0</ele><time>2026-04-30T14:48:18.699Z</time></trkpt><trkpt lat="40.3584989" lon="8.4207451"><ele>276.0</ele><time>2026-04-30T14:48:19.699Z</time></trkpt><trkpt lat="40.358374" lon="8.4209069"><ele>276.0</ele><time>2026-04-30T14:48:20.698Z</time></trkpt><trkpt lat="40.358231" lon="8.4210392"><ele>276.0</ele><time>2026-04-30T14:48:21.699Z</time></trkpt><trkpt lat="40.3580719" lon="8.4211333"><ele>273.0</ele><time>2026-04-30T14:48:22.699Z</time></trkpt><trkpt lat="40.3579037" lon="8.4211915"><ele>270.0</ele><time>2026-04-30T14:48:23.698Z</time></trkpt><trkpt lat="40.357731" lon="8.4212126"><ele>267.0</ele><time>2026-04-30T14:48:24.702Z</time></trkpt><trkpt lat="40.3575561" lon="8.4212129"><ele>267.0</ele><time>2026-04-30T14:48:25.698Z</time></trkpt><trkpt lat="40.3573871" lon="8.4212173"><ele>267.0</ele><time>2026-04-30T14:48:26.698Z</time></trkpt><trkpt lat="40.3572343" lon="8.4212536"><ele>267.0</ele><time>2026-04-30T14:48:27.701Z</time></trkpt><trkpt lat="40.3570936" lon="8.4213166"><ele>273.5</ele><time>2026-04-30T14:48:28.704Z</time></trkpt><trkpt lat="40.3569616" lon="8.4213955"><ele>280.0</ele><time>2026-04-30T14:48:29.704Z</time></trkpt><trkpt lat="40.3568363" lon="8.4214962"><ele>286.5</ele><time>2026-04-30T14:48:30.699Z</time></trkpt><trkpt lat="40.356718" lon="8.4216228"><ele>293.0</ele><time>2026-04-30T14:48:31.7Z</time></trkpt><trkpt lat="40.3566008" lon="8.421774"><ele>293.0</ele><time>2026-04-30T14:48:32.699Z</time></trkpt><trkpt lat="40.356485" lon="8.4219467"><ele>293.0</ele><time>2026-04-30T14:48:33.699Z</time></trkpt><trkpt lat="40.3563706" lon="8.4221338"><ele>293.0</ele><time>2026-04-30T14:48:34.696Z</time></trkpt><trkpt lat="40.3562591" lon="8.4223286"><ele>293.6666666666667</ele><time>2026-04-30T14:48:35.702Z</time></trkpt><trkpt lat="40.3561459" lon="8.4225282"><ele>294.3333333333333</ele><time>2026-04-30T14:48:36.698Z</time></trkpt><trkpt lat="40.3560299" lon="8.4227323"><ele>295.0</ele><time>2026-04-30T14:48:37.7Z</time></trkpt><trkpt lat="40.3559122" lon="8.4229428"><ele>299.0</ele><time>2026-04-30T14:48:38.698Z</time></trkpt><trkpt lat="40.3557907" lon="8.4231584"><ele>303.0</ele><time>2026-04-30T14:48:39.704Z</time></trkpt><trkpt lat="40.3556676" lon="8.4233822"><ele>307.0</ele><time>2026-04-30T14:48:40.7Z</time></trkpt><trkpt lat="40.3555425" lon="8.4236137"><ele>298.5</ele><time>2026-04-30T14:48:41.7Z</time></trkpt><trkpt lat="40.355415" lon="8.4238517"><ele>290.0</ele><time>2026-04-30T14:48:42.7Z</time></trkpt><trkpt lat="40.3552824" lon="8.4240962"><ele>290.0</ele><time>2026-04-30T14:48:43.699Z</time></trkpt><trkpt lat="40.3551456" lon="8.4243466"><ele>290.0</ele><time>2026-04-30T14:48:44.698Z</time></trkpt><trkpt lat="40.3550059" lon="8.4246026"><ele>293.5</ele><time>2026-04-30T14:48:45.7Z</time></trkpt><trkpt lat="40.3548611" lon="8.4248644"><ele>297.0</ele><time>2026-04-30T14:48:46.7Z</time></trkpt><trkpt lat="40.3547157" lon="8.4251287"><ele>285.5</ele><time>2026-04-30T14:48:47.698Z</time></trkpt><trkpt lat="40.3545676" lon="8.4253956"><ele>274.0</ele><time>2026-04-30T14:48:48.7Z</time></trkpt><trkpt lat="40.3544187" lon="8.4256672"><ele>274.0</ele><time>2026-04-30T14:48:49.698Z</time></trkpt><trkpt lat="40.3542686" lon="8.4259393"><ele>274.0</ele><time>2026-04-30T14:48:50.7Z</time></trkpt><trkpt lat="40.3541242" lon="8.4262054"><ele>279.5</ele><time>2026-04-30T14:48:51.7Z</time></trkpt><trkpt lat="40.3539837" lon="8.4264619"><ele>285.0</ele><time>2026-04-30T14:48:52.704Z</time></trkpt><trkpt lat="40.3538462" lon="8.4267126"><ele>274.5</ele><time>2026-04-30T14:48:53.705Z</time></trkpt><trkpt lat="40.3537081" lon="8.4269644"><ele>264.0</ele><time>2026-04-30T14:48:54.702Z</time></trkpt><trkpt lat="40.3535687" lon="8.4272193"><ele>264.0</ele><time>2026-04-30T14:48:55.699Z</time></trkpt><trkpt lat="40.3534278" lon="8.4274751"><ele>264.0</ele><time>2026-04-30T14:48:56.7Z</time></trkpt><trkpt lat="40.3532858" lon="8.4277338"><ele>267.0</ele><time>2026-04-30T14:48:57.696Z</time></trkpt><trkpt lat="40.3531424" lon="8.4279951"><ele>270.0</ele><time>2026-04-30T14:48:58.699Z</time></trkpt><trkpt lat="40.3529983" lon="8.4282581"><ele>257.5</ele><time>2026-04-30T14:48:59.7Z</time></trkpt><trkpt lat="40.3528558" lon="8.4285187"><ele>245.0</ele><time>2026-04-30T14:49:00.7Z</time></trkpt><trkpt lat="40.3527192" lon="8.4287714"><ele>249.0</ele><time>2026-04-30T14:49:01.702Z</time></trkpt><trkpt lat="40.3525916" lon="8.4290086"><ele>253.0</ele><time>2026-04-30T14:49:02.7Z</time></trkpt><trkpt lat="40.35247" lon="8.4292289"><ele>257.0</ele><time>2026-04-30T14:49:03.702Z</time></trkpt><trkpt lat="40.3523524" lon="8.4294299"><ele>257.0</ele><time>2026-04-30T14:49:04.695Z</time></trkpt><trkpt lat="40.3522373" lon="8.4295968"><ele>257.0</ele><time>2026-04-30T14:49:05.699Z</time></trkpt><trkpt lat="40.3521172" lon="8.429731"><ele>257.0</ele><time>2026-04-30T14:49:06.698Z</time></trkpt><trkpt lat="40.3519889" lon="8.4298269"><ele>259.6666666666667</ele><time>2026-04-30T14:49:07.699Z</time></trkpt><trkpt lat="40.3518483" lon="8.4298975"><ele>262.3333333333333</ele><time>2026-04-30T14:49:08.698Z</time></trkpt><trkpt lat="40.3516909" lon="8.4299313"><ele>265.0</ele><time>2026-04-30T14:49:09.7Z</time></trkpt><trkpt lat="40.3515204" lon="8.4299402"><ele>262.66666666666663</ele><time>2026-04-30T14:49:10.699Z</time></trkpt><trkpt lat="40.3513343" lon="8.4299276"><ele>260.3333333333333</ele><time>2026-04-30T14:49:11.698Z</time></trkpt><trkpt lat="40.3511378" lon="8.4299005"><ele>258.0</ele><time>2026-04-30T14:49:12.698Z</time></trkpt><trkpt lat="40.3509278" lon="8.4298621"><ele>258.0</ele><time>2026-04-30T14:49:13.699Z</time></trkpt><trkpt lat="40.3507085" lon="8.429817"><ele>258.0</ele><time>2026-04-30T14:49:14.698Z</time></trkpt><trkpt lat="40.3504766" lon="8.4297698"><ele>255.5</ele><time>2026-04-30T14:49:15.701Z</time></trkpt><trkpt lat="40.3502428" lon="8.429722"><ele>253.0</ele><time>2026-04-30T14:49:16.698Z</time></trkpt><trkpt lat="40.3500197" lon="8.4296759"><ele>247.66666666666666</ele><time>2026-04-30T14:49:17.701Z</time></trkpt><trkpt lat="40.3498025" lon="8.4296325"><ele>242.33333333333331</ele><time>2026-04-30T14:49:18.699Z</time></trkpt><trkpt lat="40.3496012" lon="8.4295921"><ele>237.0</ele><time>2026-04-30T14:49:19.699Z</time></trkpt><trkpt lat="40.3494116" lon="8.4295541"><ele>235.33333333333331</ele><time>2026-04-30T14:49:20.701Z</time></trkpt><trkpt lat="40.3492374" lon="8.4295068"><ele>233.66666666666666</ele><time>2026-04-30T14:49:21.698Z</time></trkpt><trkpt lat="40.3490796" lon="8.4294323"><ele>232.0</ele><time>2026-04-30T14:49:22.697Z</time></trkpt><trkpt lat="40.3489382" lon="8.429321"><ele>231.0</ele><time>2026-04-30T14:49:23.698Z</time></trkpt><trkpt lat="40.3488126" lon="8.4291771"><ele>230.0</ele><time>2026-04-30T14:49:24.701Z</time></trkpt><trkpt lat="40.3487084" lon="8.4290005"><ele>229.0</ele><time>2026-04-30T14:49:25.7Z</time></trkpt><trkpt lat="40.348628" lon="8.428793"><ele>229.0</ele><time>2026-04-30T14:49:26.7Z</time></trkpt><trkpt lat="40.3485609" lon="8.428563"><ele>229.0</ele><time>2026-04-30T14:49:27.699Z</time></trkpt><trkpt lat="40.3484894" lon="8.4283184"><ele>229.0</ele><time>2026-04-30T14:49:28.702Z</time></trkpt><trkpt lat="40.3484059" lon="8.4280636"><ele>221.5</ele><time>2026-04-30T14:49:29.696Z</time></trkpt><trkpt lat="40.3483113" lon="8.4277969"><ele>214.0</ele><time>2026-04-30T14:49:30.706Z</time></trkpt><trkpt lat="40.3482071" lon="8.4275248"><ele>214.0</ele><time>2026-04-30T14:49:31.697Z</time></trkpt><trkpt lat="40.3480955" lon="8.4272502"><ele>214.0</ele><time>2026-04-30T14:49:32.697Z</time></trkpt><trkpt lat="40.3479706" lon="8.4269718"><ele>220.0</ele><time>2026-04-30T14:49:33.697Z</time></trkpt><trkpt lat="40.3478437" lon="8.4266971"><ele>226.0</ele><time>2026-04-30T14:49:34.697Z</time></trkpt><trkpt lat="40.3477143" lon="8.4264295"><ele>219.0</ele><time>2026-04-30T14:49:35.699Z</time></trkpt><trkpt lat="40.3475732" lon="8.4261657"><ele>212.0</ele><time>2026-04-30T14:49:36.701Z</time></trkpt><trkpt lat="40.3474241" lon="8.4259085"><ele>212.0</ele><time>2026-04-30T14:49:37.698Z</time></trkpt><trkpt lat="40.3472637" lon="8.4256581"><ele>212.0</ele><time>2026-04-30T14:49:38.701Z</time></trkpt><trkpt lat="40.3470936" lon="8.4254085"><ele>208.5</ele><time>2026-04-30T14:49:39.697Z</time></trkpt><trkpt lat="40.3469205" lon="8.4251579"><ele>205.0</ele><time>2026-04-30T14:49:40.699Z</time></trkpt><trkpt lat="40.3467473" lon="8.4249039"><ele>197.0</ele><time>2026-04-30T14:49:41.698Z</time></trkpt><trkpt lat="40.3465733" lon="8.4246459"><ele>189.0</ele><time>2026-04-30T14:49:42.696Z</time></trkpt><trkpt lat="40.3463972" lon="8.4243894"><ele>193.5</ele><time>2026-04-30T14:49:43.698Z</time></trkpt><trkpt lat="40.3462262" lon="8.4241419"><ele>198.0</ele><time>2026-04-30T14:49:44.697Z</time></trkpt><trkpt lat="40.3460611" lon="8.4239022"><ele>195.0</ele><time>2026-04-30T14:49:45.699Z</time></trkpt><trkpt lat="40.3459023" lon="8.4236689"><ele>192.0</ele><time>2026-04-30T14:49:46.696Z</time></trkpt><trkpt lat="40.3457493" lon="8.4234478"><ele>192.0</ele><time>2026-04-30T14:49:47.702Z</time></trkpt><trkpt lat="40.3456083" lon="8.4232461"><ele>192.0</ele><time>2026-04-30T14:49:48.698Z</time></trkpt><trkpt lat="40.3454701" lon="8.4230715"><ele>192.0</ele><time>2026-04-30T14:49:49.697Z</time></trkpt><trkpt lat="40.3453331" lon="8.4229338"><ele>193.0</ele><time>2026-04-30T14:49:50.699Z</time></trkpt><trkpt lat="40.3451897" lon="8.4228412"><ele>194.0</ele><time>2026-04-30T14:49:51.697Z</time></trkpt><trkpt lat="40.3450399" lon="8.4227904"><ele>195.0</ele><time>2026-04-30T14:49:52.697Z</time></trkpt><trkpt lat="40.3448876" lon="8.4227841"><ele>195.0</ele><time>2026-04-30T14:49:53.695Z</time></trkpt><trkpt lat="40.3447311" lon="8.4228112"><ele>195.0</ele><time>2026-04-30T14:49:54.696Z</time></trkpt><trkpt lat="40.3445682" lon="8.4228662"><ele>195.0</ele><time>2026-04-30T14:49:55.696Z</time></trkpt><trkpt lat="40.3444035" lon="8.4229457"><ele>196.33333333333331</ele><time>2026-04-30T14:49:56.7Z</time></trkpt><trkpt lat="40.3442377" lon="8.4230435"><ele>197.66666666666666</ele><time>2026-04-30T14:49:57.699Z</time></trkpt><trkpt lat="40.3440738" lon="8.423156"><ele>199.0</ele><time>2026-04-30T14:49:58.699Z</time></trkpt><trkpt lat="40.3439355" lon="8.4232734"><ele>193.25</ele><time>2026-04-30T14:49:59.698Z</time></trkpt><trkpt lat="40.343821" lon="8.423402"><ele>187.5</ele><time>2026-04-30T14:50:00.699Z</time></trkpt><trkpt lat="40.343728" lon="8.4235524"><ele>181.75</ele><time>2026-04-30T14:50:01.699Z</time></trkpt><trkpt lat="40.3436603" lon="8.4237278"><ele>176.0</ele><time>2026-04-30T14:50:02.699Z</time></trkpt><trkpt lat="40.3436164" lon="8.4239285"><ele>176.0</ele><time>2026-04-30T14:50:03.697Z</time></trkpt><trkpt lat="40.3435877" lon="8.4241482"><ele>176.0</ele><time>2026-04-30T14:50:04.698Z</time></trkpt><trkpt lat="40.3435674" lon="8.4243799"><ele>176.0</ele><time>2026-04-30T14:50:05.702Z</time></trkpt><trkpt lat="40.3435639" lon="8.4246078"><ele>172.66666666666666</ele><time>2026-04-30T14:50:06.699Z</time></trkpt><trkpt lat="40.3435811" lon="8.4248387"><ele>169.33333333333334</ele><time>2026-04-30T14:50:07.702Z</time></trkpt><trkpt lat="40.343619" lon="8.4250553"><ele>166.0</ele><time>2026-04-30T14:50:08.698Z</time></trkpt><trkpt lat="40.3436762" lon="8.4252625"><ele>166.0</ele><time>2026-04-30T14:50:09.698Z</time></trkpt><trkpt lat="40.3437483" lon="8.4254571"><ele>166.0</ele><time>2026-04-30T14:50:10.699Z</time></trkpt><trkpt lat="40.3438278" lon="8.4256437"><ele>166.0</ele><time>2026-04-30T14:50:11.706Z</time></trkpt><trkpt lat="40.3439012" lon="8.4258297"><ele>169.75</ele><time>2026-04-30T14:50:12.698Z</time></trkpt><trkpt lat="40.3439473" lon="8.4260173"><ele>173.5</ele><time>2026-04-30T14:50:13.698Z</time></trkpt><trkpt lat="40.3439699" lon="8.4262105"><ele>177.25</ele><time>2026-04-30T14:50:14.698Z</time></trkpt><trkpt lat="40.3439651" lon="8.4264045"><ele>181.0</ele><time>2026-04-30T14:50:15.698Z</time></trkpt><trkpt lat="40.3439324" lon="8.4266058"><ele>172.66666666666669</ele><time>2026-04-30T14:50:16.698Z</time></trkpt><trkpt lat="40.3438779" lon="8.4268171"><ele>164.33333333333334</ele><time>2026-04-30T14:50:17.699Z</time></trkpt><trkpt lat="40.3438113" lon="8.4270352"><ele>156.0</ele><time>2026-04-30T14:50:18.696Z</time></trkpt><trkpt lat="40.3437414" lon="8.4272359"><ele>156.0</ele><time>2026-04-30T14:50:19.698Z</time></trkpt><trkpt lat="40.3436502" lon="8.4274134"><ele>156.0</ele><time>2026-04-30T14:50:20.696Z</time></trkpt><trkpt lat="40.3435293" lon="8.4275699"><ele>156.0</ele><time>2026-04-30T14:50:21.7Z</time></trkpt><trkpt lat="40.3433863" lon="8.4276907"><ele>156.0</ele><time>2026-04-30T14:50:22.699Z</time></trkpt><trkpt lat="40.3432215" lon="8.4277754"><ele>156.0</ele><time>2026-04-30T14:50:23.699Z</time></trkpt><trkpt lat="40.3430434" lon="8.4278331"><ele>156.0</ele><time>2026-04-30T14:50:24.697Z</time></trkpt><trkpt lat="40.3428573" lon="8.4278895"><ele>157.0</ele><time>2026-04-30T14:50:25.702Z</time></trkpt><trkpt lat="40.3426784" lon="8.4279489"><ele>158.0</ele><time>2026-04-30T14:50:26.697Z</time></trkpt><trkpt lat="40.3425069" lon="8.4280231"><ele>159.0</ele><time>2026-04-30T14:50:27.697Z</time></trkpt><trkpt lat="40.3423515" lon="8.4281222"><ele>159.0</ele><time>2026-04-30T14:50:28.699Z</time></trkpt><trkpt lat="40.3422149" lon="8.4282489"><ele>159.0</ele><time>2026-04-30T14:50:29.697Z</time></trkpt><trkpt lat="40.3420961" lon="8.4283968"><ele>159.0</ele><time>2026-04-30T14:50:30.697Z</time></trkpt><trkpt lat="40.3419891" lon="8.4285634"><ele>154.33333333333334</ele><time>2026-04-30T14:50:31.698Z</time></trkpt><trkpt lat="40.341883" lon="8.428728"><ele>149.66666666666669</ele><time>2026-04-30T14:50:32.699Z</time></trkpt><trkpt lat="40.3417657" lon="8.4288685"><ele>145.0</ele><time>2026-04-30T14:50:33.696Z</time></trkpt><trkpt lat="40.3416373" lon="8.4289683"><ele>145.0</ele><time>2026-04-30T14:50:34.697Z</time></trkpt><trkpt lat="40.341498" lon="8.4290242"><ele>145.0</ele><time>2026-04-30T14:50:35.699Z</time></trkpt><trkpt lat="40.3413484" lon="8.4290347"><ele>145.0</ele><time>2026-04-30T14:50:36.699Z</time></trkpt><trkpt lat="40.3411953" lon="8.4290029"><ele>142.33333333333334</ele><time>2026-04-30T14:50:37.698Z</time></trkpt><trkpt lat="40.3410304" lon="8.4289428"><ele>139.66666666666666</ele><time>2026-04-30T14:50:38.696Z</time></trkpt><trkpt lat="40.3408635" lon="8.428883"><ele>137.0</ele><time>2026-04-30T14:50:39.701Z</time></trkpt><trkpt lat="40.3407088" lon="8.428845"><ele>137.0</ele><time>2026-04-30T14:50:40.698Z</time></trkpt><trkpt lat="40.3405612" lon="8.4288364"><ele>137.0</ele><time>2026-04-30T14:50:41.702Z</time></trkpt><trkpt lat="40.3404184" lon="8.4288654"><ele>137.0</ele><time>2026-04-30T14:50:42.7Z</time></trkpt><trkpt lat="40.3402879" lon="8.4289352"><ele>137.0</ele><time>2026-04-30T14:50:43.696Z</time></trkpt><trkpt lat="40.3401743" lon="8.4290392"><ele>132.5</ele><time>2026-04-30T14:50:44.698Z</time></trkpt><trkpt lat="40.3400886" lon="8.4291654"><ele>128.0</ele><time>2026-04-30T14:50:45.697Z</time></trkpt><trkpt lat="40.3400276" lon="8.4293227"><ele>123.5</ele><time>2026-04-30T14:50:46.697Z</time></trkpt><trkpt lat="40.3399984" lon="8.4294987"><ele>119.0</ele><time>2026-04-30T14:50:47.697Z</time></trkpt><trkpt lat="40.3400008" lon="8.4296874"><ele>118.66666666666666</ele><time>2026-04-30T14:50:48.7Z</time></trkpt><trkpt lat="40.3400231" lon="8.4298882"><ele>118.33333333333334</ele><time>2026-04-30T14:50:49.699Z</time></trkpt><trkpt lat="40.3400562" lon="8.4301"><ele>118.0</ele><time>2026-04-30T14:50:50.697Z</time></trkpt><trkpt lat="40.3400922" lon="8.4303063"><ele>116.75</ele><time>2026-04-30T14:50:51.697Z</time></trkpt><trkpt lat="40.3401201" lon="8.4305035"><ele>115.5</ele><time>2026-04-30T14:50:52.699Z</time></trkpt><trkpt lat="40.3401219" lon="8.4306893"><ele>114.25</ele><time>2026-04-30T14:50:53.699Z</time></trkpt><trkpt lat="40.3400841" lon="8.4308607"><ele>113.0</ele><time>2026-04-30T14:50:54.697Z</time></trkpt><trkpt lat="40.3400264" lon="8.4310235"><ele>113.0</ele><time>2026-04-30T14:50:55.699Z</time></trkpt><trkpt lat="40.3399396" lon="8.4311604"><ele>113.0</ele><time>2026-04-30T14:50:56.696Z</time></trkpt><trkpt lat="40.3398293" lon="8.4312576"><ele>113.0</ele><time>2026-04-30T14:50:57.701Z</time></trkpt><trkpt lat="40.3396977" lon="8.4313145"><ele>113.0</ele><time>2026-04-30T14:50:58.699Z</time></trkpt><trkpt lat="40.3395468" lon="8.4313356"><ele>116.33333333333333</ele><time>2026-04-30T14:50:59.699Z</time></trkpt><trkpt lat="40.3393819" lon="8.4313426"><ele>119.66666666666666</ele><time>2026-04-30T14:51:00.699Z</time></trkpt><trkpt lat="40.3392239" lon="8.4313386"><ele>123.0</ele><time>2026-04-30T14:51:01.701Z</time></trkpt><trkpt lat="40.3390709" lon="8.4313053"><ele>117.66666666666666</ele><time>2026-04-30T14:51:02.699Z</time></trkpt><trkpt lat="40.3389277" lon="8.4312365"><ele>112.33333333333333</ele><time>2026-04-30T14:51:03.696Z</time></trkpt><trkpt lat="40.3387977" lon="8.4311285"><ele>107.0</ele><time>2026-04-30T14:51:04.695Z</time></trkpt><trkpt lat="40.3386753" lon="8.4309818"><ele>107.0</ele><time>2026-04-30T14:51:05.701Z</time></trkpt><trkpt lat="40.3385509" lon="8.4308136"><ele>107.0</ele><time>2026-04-30T14:51:06.697Z</time></trkpt><trkpt lat="40.3384132" lon="8.4306342"><ele>107.0</ele><time>2026-04-30T14:51:07.699Z</time></trkpt><trkpt lat="40.3382633" lon="8.4304552"><ele>104.0</ele><time>2026-04-30T14:51:08.699Z</time></trkpt><trkpt lat="40.338106" lon="8.4302803"><ele>101.0</ele><time>2026-04-30T14:51:09.7Z</time></trkpt><trkpt lat="40.3379514" lon="8.4301168"><ele>98.0</ele><time>2026-04-30T14:51:10.7Z</time></trkpt><trkpt lat="40.337806" lon="8.4299746"><ele>98.0</ele><time>2026-04-30T14:51:11.698Z</time></trkpt><trkpt lat="40.3376609" lon="8.4298604"><ele>98.0</ele><time>2026-04-30T14:51:12.697Z</time></trkpt><trkpt lat="40.3375105" lon="8.4297884"><ele>98.0</ele><time>2026-04-30T14:51:13.695Z</time></trkpt><trkpt lat="40.3373557" lon="8.4297531"><ele>96.66666666666666</ele><time>2026-04-30T14:51:14.698Z</time></trkpt><trkpt lat="40.3371907" lon="8.4297543"><ele>95.33333333333333</ele><time>2026-04-30T14:51:15.698Z</time></trkpt><trkpt lat="40.3370203" lon="8.4297884"><ele>94.0</ele><time>2026-04-30T14:51:16.698Z</time></trkpt><trkpt lat="40.3368399" lon="8.4298392"><ele>94.0</ele><time>2026-04-30T14:51:17.702Z</time></trkpt><trkpt lat="40.3366467" lon="8.4298949"><ele>94.0</ele><time>2026-04-30T14:51:18.701Z</time></trkpt><trkpt lat="40.3364612" lon="8.4299478"><ele>94.0</ele><time>2026-04-30T14:51:19.699Z</time></trkpt><trkpt lat="40.3362883" lon="8.429999"><ele>88.33333333333333</ele><time>2026-04-30T14:51:20.695Z</time></trkpt><trkpt lat="40.3361286" lon="8.4300652"><ele>82.66666666666667</ele><time>2026-04-30T14:51:21.696Z</time></trkpt><trkpt lat="40.3359915" lon="8.4301757"><ele>77.0</ele><time>2026-04-30T14:51:22.7Z</time></trkpt><trkpt lat="40.3358694" lon="8.4303131"><ele>82.0</ele><time>2026-04-30T14:51:23.696Z</time></trkpt><trkpt lat="40.3357635" lon="8.4304823"><ele>87.0</ele><time>2026-04-30T14:51:24.698Z</time></trkpt><trkpt lat="40.3356679" lon="8.43068"><ele>92.0</ele><time>2026-04-30T14:51:25.697Z</time></trkpt><trkpt lat="40.3355714" lon="8.4308989"><ele>86.66666666666667</ele><time>2026-04-30T14:51:26.702Z</time></trkpt><trkpt lat="40.3354767" lon="8.4311324"><ele>81.33333333333333</ele><time>2026-04-30T14:51:27.699Z</time></trkpt><trkpt lat="40.3353807" lon="8.4313617"><ele>76.0</ele><time>2026-04-30T14:51:28.698Z</time></trkpt><trkpt lat="40.3352826" lon="8.4315931"><ele>76.0</ele><time>2026-04-30T14:51:29.698Z</time></trkpt><trkpt lat="40.3351846" lon="8.4318229"><ele>76.0</ele><time>2026-04-30T14:51:30.7Z</time></trkpt><trkpt lat="40.3350931" lon="8.4320415"><ele>76.0</ele><time>2026-04-30T14:51:31.697Z</time></trkpt><trkpt lat="40.3350122" lon="8.4322528"><ele>79.66666666666666</ele><time>2026-04-30T14:51:32.7Z</time></trkpt><trkpt lat="40.334949" lon="8.4324571"><ele>83.33333333333333</ele><time>2026-04-30T14:51:33.7Z</time></trkpt><trkpt lat="40.3349039" lon="8.4326663"><ele>87.0</ele><time>2026-04-30T14:51:34.699Z</time></trkpt><trkpt lat="40.3348727" lon="8.4328787"><ele>89.66666666666667</ele><time>2026-04-30T14:51:35.699Z</time></trkpt><trkpt lat="40.3348523" lon="8.4330837"><ele>92.33333333333334</ele><time>2026-04-30T14:51:36.697Z</time></trkpt><trkpt lat="40.3348206" lon="8.4332756"><ele>95.0</ele><time>2026-04-30T14:51:37.696Z</time></trkpt><trkpt lat="40.3347519" lon="8.4334496"><ele>93.66666666666667</ele><time>2026-04-30T14:51:38.698Z</time></trkpt><trkpt lat="40.3346567" lon="8.4336087"><ele>92.33333333333333</ele><time>2026-04-30T14:51:39.698Z</time></trkpt><trkpt lat="40.3345315" lon="8.433746"><ele>91.0</ele><time>2026-04-30T14:51:40.701Z</time></trkpt><trkpt lat="40.3343863" lon="8.4338783"><ele>91.0</ele><time>2026-04-30T14:51:41.702Z</time></trkpt><trkpt lat="40.3342273" lon="8.4340184"><ele>91.0</ele><time>2026-04-30T14:51:42.697Z</time></trkpt><trkpt lat="40.3340627" lon="8.4341668"><ele>91.0</ele><time>2026-04-30T14:51:43.701Z</time></trkpt><trkpt lat="40.3338965" lon="8.4343173"><ele>89.0</ele><time>2026-04-30T14:51:44.699Z</time></trkpt><trkpt lat="40.3337282" lon="8.4344675"><ele>87.0</ele><time>2026-04-30T14:51:45.697Z</time></trkpt><trkpt lat="40.3335706" lon="8.434615"><ele>85.0</ele><time>2026-04-30T14:51:46.699Z</time></trkpt><trkpt lat="40.3334138" lon="8.4347718"><ele>85.0</ele><time>2026-04-30T14:51:47.697Z</time></trkpt><trkpt lat="40.3332595" lon="8.4349366"><ele>85.0</ele><time>2026-04-30T14:51:48.696Z</time></trkpt><trkpt lat="40.333106" lon="8.4351112"><ele>85.0</ele><time>2026-04-30T14:51:49.699Z</time></trkpt><trkpt lat="40.3329512" lon="8.4352957"><ele>82.66666666666666</ele><time>2026-04-30T14:51:50.698Z</time></trkpt><trkpt lat="40.3327949" lon="8.4354861"><ele>80.33333333333333</ele><time>2026-04-30T14:51:51.699Z</time></trkpt><trkpt lat="40.3326387" lon="8.4356744"><ele>78.0</ele><time>2026-04-30T14:51:52.697Z</time></trkpt><trkpt lat="40.3324836" lon="8.4358558"><ele>78.0</ele><time>2026-04-30T14:51:53.696Z</time></trkpt><trkpt lat="40.3323313" lon="8.4360365"><ele>78.0</ele><time>2026-04-30T14:51:54.698Z</time></trkpt><trkpt lat="40.3321894" lon="8.4362072"><ele>78.0</ele><time>2026-04-30T14:51:55.697Z</time></trkpt><trkpt lat="40.3320576" lon="8.4363643"><ele>73.66666666666667</ele><time>2026-04-30T14:51:56.701Z</time></trkpt><trkpt lat="40.3319222" lon="8.4365128"><ele>69.33333333333334</ele><time>2026-04-30T14:51:57.702Z</time></trkpt><trkpt lat="40.3317837" lon="8.4366353"><ele>65.0</ele><time>2026-04-30T14:51:58.699Z</time></trkpt><trkpt lat="40.3316313" lon="8.4367338"><ele>65.0</ele><time>2026-04-30T14:51:59.698Z</time></trkpt><trkpt lat="40.3314772" lon="8.4368075"><ele>65.0</ele><time>2026-04-30T14:52:00.7Z</time></trkpt><trkpt lat="40.3313237" lon="8.4368509"><ele>65.0</ele><time>2026-04-30T14:52:01.705Z</time></trkpt><trkpt lat="40.3311596" lon="8.4368647"><ele>62.0</ele><time>2026-04-30T14:52:02.698Z</time></trkpt><trkpt lat="40.3309893" lon="8.4368501"><ele>59.0</ele><time>2026-04-30T14:52:03.698Z</time></trkpt><trkpt lat="40.330821" lon="8.436803"><ele>56.0</ele><time>2026-04-30T14:52:04.698Z</time></trkpt><trkpt lat="40.3306531" lon="8.4367163"><ele>51.66666666666667</ele><time>2026-04-30T14:52:05.699Z</time></trkpt><trkpt lat="40.3304891" lon="8.436598"><ele>47.333333333333336</ele><time>2026-04-30T14:52:06.701Z</time></trkpt><trkpt lat="40.3303288" lon="8.4364535"><ele>43.0</ele><time>2026-04-30T14:52:07.697Z</time></trkpt><trkpt lat="40.3301794" lon="8.4363087"><ele>44.333333333333336</ele><time>2026-04-30T14:52:08.697Z</time></trkpt><trkpt lat="40.3300318" lon="8.43618"><ele>45.666666666666664</ele><time>2026-04-30T14:52:09.697Z</time></trkpt><trkpt lat="40.3298816" lon="8.4360763"><ele>47.0</ele><time>2026-04-30T14:52:10.698Z</time></trkpt><trkpt lat="40.329732" lon="8.4360044"><ele>43.0</ele><time>2026-04-30T14:52:11.698Z</time></trkpt><trkpt lat="40.329579" lon="8.4359693"><ele>39.0</ele><time>2026-04-30T14:52:12.696Z</time></trkpt><trkpt lat="40.329419" lon="8.4359782"><ele>35.0</ele><time>2026-04-30T14:52:13.7Z</time></trkpt><trkpt lat="40.3292573" lon="8.436019"><ele>35.0</ele><time>2026-04-30T14:52:14.696Z</time></trkpt><trkpt lat="40.3291064" lon="8.4360952"><ele>35.0</ele><time>2026-04-30T14:52:15.693Z</time></trkpt><trkpt lat="40.3289763" lon="8.4362065"><ele>35.0</ele><time>2026-04-30T14:52:16.696Z</time></trkpt><trkpt lat="40.3288525" lon="8.4363566"><ele>34.0</ele><time>2026-04-30T14:52:17.698Z</time></trkpt><trkpt lat="40.3287271" lon="8.4365297"><ele>33.0</ele><time>2026-04-30T14:52:18.694Z</time></trkpt><trkpt lat="40.3285948" lon="8.4367212"><ele>32.0</ele><time>2026-04-30T14:52:19.698Z</time></trkpt><trkpt lat="40.3284599" lon="8.4369216"><ele>32.0</ele><time>2026-04-30T14:52:20.694Z</time></trkpt><trkpt lat="40.3283217" lon="8.437129"><ele>32.0</ele><time>2026-04-30T14:52:21.694Z</time></trkpt><trkpt lat="40.3281793" lon="8.4373421"><ele>32.0</ele><time>2026-04-30T14:52:22.697Z</time></trkpt><trkpt lat="40.328032" lon="8.4375606"><ele>32.33333333333333</ele><time>2026-04-30T14:52:23.7Z</time></trkpt><trkpt lat="40.3278849" lon="8.4377831"><ele>32.666666666666664</ele><time>2026-04-30T14:52:24.7Z</time></trkpt><trkpt lat="40.3277464" lon="8.4380091"><ele>33.0</ele><time>2026-04-30T14:52:25.701Z</time></trkpt><trkpt lat="40.3276149" lon="8.4382428"><ele>33.0</ele><time>2026-04-30T14:52:26.697Z</time></trkpt><trkpt lat="40.3274915" lon="8.4384883"><ele>33.0</ele><time>2026-04-30T14:52:27.698Z</time></trkpt><trkpt lat="40.3273736" lon="8.4387298"><ele>33.0</ele><time>2026-04-30T14:52:28.699Z</time></trkpt><trkpt lat="40.3272632" lon="8.4389539"><ele>31.666666666666664</ele><time>2026-04-30T14:52:29.699Z</time></trkpt><trkpt lat="40.3271567" lon="8.4391665"><ele>30.333333333333332</ele><time>2026-04-30T14:52:30.694Z</time></trkpt><trkpt lat="40.3270549" lon="8.4393676"><ele>29.0</ele><time>2026-04-30T14:52:31.698Z</time></trkpt><trkpt lat="40.3269624" lon="8.4395558"><ele>31.0</ele><time>2026-04-30T14:52:32.7Z</time></trkpt><trkpt lat="40.3268878" lon="8.4397362"><ele>33.0</ele><time>2026-04-30T14:52:33.697Z</time></trkpt><trkpt lat="40.3268384" lon="8.4399204"><ele>35.0</ele><time>2026-04-30T14:52:34.699Z</time></trkpt><trkpt lat="40.3268115" lon="8.4401143"><ele>35.0</ele><time>2026-04-30T14:52:35.697Z</time></trkpt><trkpt lat="40.3267977" lon="8.4403173"><ele>35.0</ele><time>2026-04-30T14:52:36.699Z</time></trkpt><trkpt lat="40.3267854" lon="8.4405273"><ele>35.0</ele><time>2026-04-30T14:52:37.698Z</time></trkpt><trkpt lat="40.3267738" lon="8.4407477"><ele>35.0</ele><time>2026-04-30T14:52:38.7Z</time></trkpt><trkpt lat="40.3267582" lon="8.4409782"><ele>35.0</ele><time>2026-04-30T14:52:39.696Z</time></trkpt><trkpt lat="40.3267389" lon="8.4412171"><ele>35.0</ele><time>2026-04-30T14:52:40.699Z</time></trkpt><trkpt lat="40.3267191" lon="8.4414609"><ele>35.0</ele><time>2026-04-30T14:52:41.698Z</time></trkpt><trkpt lat="40.3266997" lon="8.4417035"><ele>35.0</ele><time>2026-04-30T14:52:42.698Z</time></trkpt><trkpt lat="40.3266821" lon="8.4419363"><ele>35.0</ele><time>2026-04-30T14:52:43.7Z</time></trkpt><trkpt lat="40.3266671" lon="8.4421569"><ele>34.0</ele><time>2026-04-30T14:52:44.698Z</time></trkpt><trkpt lat="40.3266613" lon="8.442372"><ele>33.0</ele><time>2026-04-30T14:52:45.699Z</time></trkpt><trkpt lat="40.3266692" lon="8.4425884"><ele>32.0</ele><time>2026-04-30T14:52:46.702Z</time></trkpt><trkpt lat="40.3266978" lon="8.4428043"><ele>31.0</ele><time>2026-04-30T14:52:47.698Z</time></trkpt><trkpt lat="40.3267364" lon="8.4430199"><ele>30.0</ele><time>2026-04-30T14:52:48.699Z</time></trkpt><trkpt lat="40.3267833" lon="8.4432387"><ele>29.0</ele><time>2026-04-30T14:52:49.697Z</time></trkpt><trkpt lat="40.3268324" lon="8.4434586"><ele>29.0</ele><time>2026-04-30T14:52:50.698Z</time></trkpt><trkpt lat="40.3268801" lon="8.4436891"><ele>29.0</ele><time>2026-04-30T14:52:51.697Z</time></trkpt><trkpt lat="40.3269322" lon="8.4439306"><ele>29.0</ele><time>2026-04-30T14:52:52.696Z</time></trkpt><trkpt lat="40.326976" lon="8.4441679"><ele>29.666666666666664</ele><time>2026-04-30T14:52:53.698Z</time></trkpt><trkpt lat="40.3270139" lon="8.444403"><ele>30.333333333333336</ele><time>2026-04-30T14:52:54.697Z</time></trkpt><trkpt lat="40.3270559" lon="8.4446384"><ele>31.0</ele><time>2026-04-30T14:52:55.697Z</time></trkpt><trkpt lat="40.3270954" lon="8.4448648"><ele>34.66666666666667</ele><time>2026-04-30T14:52:56.695Z</time></trkpt><trkpt lat="40.3271234" lon="8.4450772"><ele>38.333333333333336</ele><time>2026-04-30T14:52:57.699Z</time></trkpt><trkpt lat="40.3271217" lon="8.4452839"><ele>42.0</ele><time>2026-04-30T14:52:58.698Z</time></trkpt><trkpt lat="40.3270964" lon="8.445486"><ele>43.333333333333336</ele><time>2026-04-30T14:52:59.697Z</time></trkpt><trkpt lat="40.3270463" lon="8.4456873"><ele>44.66666666666667</ele><time>2026-04-30T14:53:00.697Z</time></trkpt><trkpt lat="40.3269837" lon="8.4458972"><ele>46.0</ele><time>2026-04-30T14:53:01.695Z</time></trkpt><trkpt lat="40.3269184" lon="8.446123"><ele>45.0</ele><time>2026-04-30T14:53:02.696Z</time></trkpt><trkpt lat="40.3268491" lon="8.4463594"><ele>44.0</ele><time>2026-04-30T14:53:03.698Z</time></trkpt><trkpt lat="40.3267763" lon="8.4466033"><ele>43.0</ele><time>2026-04-30T14:53:04.697Z</time></trkpt><trkpt lat="40.3267027" lon="8.4468487"><ele>43.0</ele><time>2026-04-30T14:53:05.699Z</time></trkpt><trkpt lat="40.3266266" lon="8.4470971"><ele>43.0</ele><time>2026-04-30T14:53:06.702Z</time></trkpt><trkpt lat="40.3265484" lon="8.4473472"><ele>43.0</ele><time>2026-04-30T14:53:07.697Z</time></trkpt><trkpt lat="40.3264782" lon="8.4475863"><ele>43.0</ele><time>2026-04-30T14:53:08.698Z</time></trkpt><trkpt lat="40.3264086" lon="8.4478298"><ele>43.0</ele><time>2026-04-30T14:53:09.698Z</time></trkpt><trkpt lat="40.3263385" lon="8.4480585"><ele>43.0</ele><time>2026-04-30T14:53:10.696Z</time></trkpt><trkpt lat="40.326264" lon="8.4482843"><ele>43.0</ele><time>2026-04-30T14:53:11.696Z</time></trkpt><trkpt lat="40.3261951" lon="8.4485116"><ele>43.0</ele><time>2026-04-30T14:53:12.698Z</time></trkpt><trkpt lat="40.3261477" lon="8.4487355"><ele>43.0</ele><time>2026-04-30T14:53:13.698Z</time></trkpt><trkpt lat="40.3261256" lon="8.448964"><ele>43.333333333333336</ele><time>2026-04-30T14:53:14.697Z</time></trkpt><trkpt lat="40.3261177" lon="8.4492081"><ele>43.666666666666664</ele><time>2026-04-30T14:53:15.696Z</time></trkpt><trkpt lat="40.326118" lon="8.4494659"><ele>44.0</ele><time>2026-04-30T14:53:16.702Z</time></trkpt><trkpt lat="40.3261192" lon="8.4497257"><ele>44.666666666666664</ele><time>2026-04-30T14:53:17.698Z</time></trkpt><trkpt lat="40.326122" lon="8.4499902"><ele>45.333333333333336</ele><time>2026-04-30T14:53:18.7Z</time></trkpt><trkpt lat="40.3261227" lon="8.4502423"><ele>46.0</ele><time>2026-04-30T14:53:19.699Z</time></trkpt><trkpt lat="40.3261228" lon="8.4504748"><ele>46.5</ele><time>2026-04-30T14:53:20.701Z</time></trkpt><trkpt lat="40.3261229" lon="8.4506817"><ele>47.0</ele><time>2026-04-30T14:53:21.7Z</time></trkpt><trkpt lat="40.326111" lon="8.4508674"><ele>47.5</ele><time>2026-04-30T14:53:22.697Z</time></trkpt><trkpt lat="40.3260742" lon="8.4510345"><ele>48.0</ele><time>2026-04-30T14:53:23.703Z</time></trkpt><trkpt lat="40.3260076" lon="8.4511628"><ele>48.0</ele><time>2026-04-30T14:53:24.699Z</time></trkpt><trkpt lat="40.325911" lon="8.4512624"><ele>48.0</ele><time>2026-04-30T14:53:25.697Z</time></trkpt><trkpt lat="40.3257904" lon="8.4513413"><ele>48.0</ele><time>2026-04-30T14:53:26.696Z</time></trkpt><trkpt lat="40.3256485" lon="8.4514152"><ele>48.0</ele><time>2026-04-30T14:53:27.701Z</time></trkpt><trkpt lat="40.3254906" lon="8.4515004"><ele>49.0</ele><time>2026-04-30T14:53:28.697Z</time></trkpt><trkpt lat="40.3253248" lon="8.4515977"><ele>50.0</ele><time>2026-04-30T14:53:29.699Z</time></trkpt><trkpt lat="40.3251496" lon="8.4516965"><ele>51.0</ele><time>2026-04-30T14:53:30.696Z</time></trkpt><trkpt lat="40.3249733" lon="8.4517841"><ele>51.0</ele><time>2026-04-30T14:53:31.7Z</time></trkpt><trkpt lat="40.3248017" lon="8.4518663"><ele>51.0</ele><time>2026-04-30T14:53:32.697Z</time></trkpt><trkpt lat="40.3246275" lon="8.4519436"><ele>51.0</ele><time>2026-04-30T14:53:33.696Z</time></trkpt><trkpt lat="40.3244569" lon="8.4520168"><ele>52.33333333333333</ele><time>2026-04-30T14:53:34.698Z</time></trkpt><trkpt lat="40.324304" lon="8.4520867"><ele>53.666666666666664</ele><time>2026-04-30T14:53:35.698Z</time></trkpt><trkpt lat="40.3241639" lon="8.4521649"><ele>55.0</ele><time>2026-04-30T14:53:36.702Z</time></trkpt><trkpt lat="40.3240569" lon="8.4522766"><ele>55.0</ele><time>2026-04-30T14:53:37.701Z</time></trkpt><trkpt lat="40.3239687" lon="8.452423"><ele>55.0</ele><time>2026-04-30T14:53:38.697Z</time></trkpt><trkpt lat="40.323883" lon="8.4525895"><ele>55.0</ele><time>2026-04-30T14:53:39.701Z</time></trkpt><trkpt lat="40.3238003" lon="8.4527609"><ele>55.33333333333333</ele><time>2026-04-30T14:53:40.7Z</time></trkpt><trkpt lat="40.3237292" lon="8.4529498"><ele>55.66666666666667</ele><time>2026-04-30T14:53:41.702Z</time></trkpt><trkpt lat="40.3236718" lon="8.4531578"><ele>56.0</ele><time>2026-04-30T14:53:42.7Z</time></trkpt><trkpt lat="40.3236184" lon="8.4533742"><ele>56.0</ele><time>2026-04-30T14:53:43.697Z</time></trkpt><trkpt lat="40.3235661" lon="8.4535974"><ele>56.0</ele><time>2026-04-30T14:53:44.701Z</time></trkpt><trkpt lat="40.3235122" lon="8.4538271"><ele>56.0</ele><time>2026-04-30T14:53:45.699Z</time></trkpt><trkpt lat="40.3234528" lon="8.4540632"><ele>57.0</ele><time>2026-04-30T14:53:46.701Z</time></trkpt><trkpt lat="40.323393" lon="8.454305"><ele>58.0</ele><time>2026-04-30T14:53:47.7Z</time></trkpt><trkpt lat="40.3233371" lon="8.454534"><ele>59.0</ele><time>2026-04-30T14:53:48.698Z</time></trkpt><trkpt lat="40.3232787" lon="8.4547523"><ele>60.66666666666667</ele><time>2026-04-30T14:53:49.698Z</time></trkpt><trkpt lat="40.3232099" lon="8.4549591"><ele>62.33333333333333</ele><time>2026-04-30T14:53:50.698Z</time></trkpt><trkpt lat="40.3231222" lon="8.4551548"><ele>64.0</ele><time>2026-04-30T14:53:51.697Z</time></trkpt><trkpt lat="40.3230157" lon="8.455337"><ele>60.666666666666664</ele><time>2026-04-30T14:53:52.698Z</time></trkpt><trkpt lat="40.3228925" lon="8.4555053"><ele>57.33333333333333</ele><time>2026-04-30T14:53:53.699Z</time></trkpt><trkpt lat="40.3227592" lon="8.4556721"><ele>54.0</ele><time>2026-04-30T14:53:54.703Z</time></trkpt><trkpt lat="40.3226223" lon="8.4558405"><ele>54.0</ele><time>2026-04-30T14:53:55.702Z</time></trkpt><trkpt lat="40.3224891" lon="8.4560009"><ele>54.0</ele><time>2026-04-30T14:53:56.699Z</time></trkpt><trkpt lat="40.3223572" lon="8.4561551"><ele>54.0</ele><time>2026-04-30T14:53:57.698Z</time></trkpt><trkpt lat="40.3222217" lon="8.4562922"><ele>52.0</ele><time>2026-04-30T14:53:58.702Z</time></trkpt><trkpt lat="40.322084" lon="8.4564032"><ele>50.0</ele><time>2026-04-30T14:53:59.697Z</time></trkpt><trkpt lat="40.3219507" lon="8.4564984"><ele>48.0</ele><time>2026-04-30T14:54:00.699Z</time></trkpt><trkpt lat="40.3218275" lon="8.4565949"><ele>48.0</ele><time>2026-04-30T14:54:01.696Z</time></trkpt><trkpt lat="40.3217231" lon="8.4567148"><ele>48.0</ele><time>2026-04-30T14:54:02.696Z</time></trkpt><trkpt lat="40.3216377" lon="8.4568547"><ele>48.0</ele><time>2026-04-30T14:54:03.697Z</time></trkpt><trkpt lat="40.3215666" lon="8.4570064"><ele>48.0</ele><time>2026-04-30T14:54:04.698Z</time></trkpt><trkpt lat="40.3214954" lon="8.4571721"><ele>51.33333333333333</ele><time>2026-04-30T14:54:05.703Z</time></trkpt><trkpt lat="40.3214221" lon="8.4573453"><ele>54.666666666666664</ele><time>2026-04-30T14:54:06.7Z</time></trkpt><trkpt lat="40.3213531" lon="8.4575313"><ele>58.0</ele><time>2026-04-30T14:54:07.7Z</time></trkpt><trkpt lat="40.32129" lon="8.457724"><ele>51.666666666666664</ele><time>2026-04-30T14:54:08.697Z</time></trkpt><trkpt lat="40.3212229" lon="8.4579075"><ele>45.33333333333333</ele><time>2026-04-30T14:54:09.699Z</time></trkpt><trkpt lat="40.321139" lon="8.4580778"><ele>39.0</ele><time>2026-04-30T14:54:10.699Z</time></trkpt><trkpt lat="40.3210452" lon="8.4582247"><ele>39.0</ele><time>2026-04-30T14:54:11.704Z</time></trkpt><trkpt lat="40.3209524" lon="8.4583782"><ele>39.0</ele><time>2026-04-30T14:54:12.703Z</time></trkpt><trkpt lat="40.3208704" lon="8.4585493"><ele>39.0</ele><time>2026-04-30T14:54:13.699Z</time></trkpt><trkpt lat="40.3207993" lon="8.4587346"><ele>43.66666666666667</ele><time>2026-04-30T14:54:14.696Z</time></trkpt><trkpt lat="40.3207302" lon="8.4589272"><ele>48.333333333333336</ele><time>2026-04-30T14:54:15.699Z</time></trkpt><trkpt lat="40.3206609" lon="8.4591199"><ele>53.0</ele><time>2026-04-30T14:54:16.701Z</time></trkpt><trkpt lat="40.3205949" lon="8.4593048"><ele>49.25</ele><time>2026-04-30T14:54:17.7Z</time></trkpt><trkpt lat="40.3205235" lon="8.4594784"><ele>45.5</ele><time>2026-04-30T14:54:18.698Z</time></trkpt><trkpt lat="40.3204379" lon="8.4596311"><ele>41.75</ele><time>2026-04-30T14:54:19.698Z</time></trkpt><trkpt lat="40.3203355" lon="8.4597604"><ele>38.0</ele><time>2026-04-30T14:54:20.697Z</time></trkpt><trkpt lat="40.3202198" lon="8.4598643"><ele>38.0</ele><time>2026-04-30T14:54:21.696Z</time></trkpt><trkpt lat="40.3200989" lon="8.4599591"><ele>38.0</ele><time>2026-04-30T14:54:22.697Z</time></trkpt><trkpt lat="40.3199965" lon="8.4600662"><ele>38.0</ele><time>2026-04-30T14:54:23.7Z</time></trkpt><trkpt lat="40.3199151" lon="8.4602092"><ele>38.0</ele><time>2026-04-30T14:54:24.696Z</time></trkpt><trkpt lat="40.3198457" lon="8.460371"><ele>42.0</ele><time>2026-04-30T14:54:25.699Z</time></trkpt><trkpt lat="40.3197737" lon="8.460546"><ele>46.0</ele><time>2026-04-30T14:54:26.7Z</time></trkpt><trkpt lat="40.3196982" lon="8.4607277"><ele>50.0</ele><time>2026-04-30T14:54:27.697Z</time></trkpt><trkpt lat="40.3196257" lon="8.4609163"><ele>42.66666666666667</ele><time>2026-04-30T14:54:28.697Z</time></trkpt><trkpt lat="40.319559" lon="8.4611149"><ele>35.333333333333336</ele><time>2026-04-30T14:54:29.697Z</time></trkpt><trkpt lat="40.3194952" lon="8.4613175"><ele>28.0</ele><time>2026-04-30T14:54:30.697Z</time></trkpt><trkpt lat="40.3194309" lon="8.4615192"><ele>28.0</ele><time>2026-04-30T14:54:31.696Z</time></trkpt><trkpt lat="40.3193624" lon="8.461728"><ele>28.0</ele><time>2026-04-30T14:54:32.695Z</time></trkpt><trkpt lat="40.3192929" lon="8.4619459"><ele>28.0</ele><time>2026-04-30T14:54:33.698Z</time></trkpt><trkpt lat="40.3192223" lon="8.4621699"><ele>31.0</ele><time>2026-04-30T14:54:34.699Z</time></trkpt><trkpt lat="40.3191467" lon="8.4623835"><ele>34.0</ele><time>2026-04-30T14:54:35.7Z</time></trkpt><trkpt lat="40.319063" lon="8.4625849"><ele>37.0</ele><time>2026-04-30T14:54:36.701Z</time></trkpt><trkpt lat="40.3189767" lon="8.4627793"><ele>31.333333333333336</ele><time>2026-04-30T14:54:37.696Z</time></trkpt><trkpt lat="40.3188872" lon="8.4629658"><ele>25.666666666666668</ele><time>2026-04-30T14:54:38.698Z</time></trkpt><trkpt lat="40.3187978" lon="8.4631529"><ele>20.0</ele><time>2026-04-30T14:54:39.7Z</time></trkpt><trkpt lat="40.3187191" lon="8.4633502"><ele>20.0</ele><time>2026-04-30T14:54:40.696Z</time></trkpt><trkpt lat="40.3186554" lon="8.4635633"><ele>20.0</ele><time>2026-04-30T14:54:41.698Z</time></trkpt><trkpt lat="40.3186078" lon="8.4637957"><ele>20.0</ele><time>2026-04-30T14:54:42.698Z</time></trkpt><trkpt lat="40.3185643" lon="8.4640386"><ele>20.333333333333336</ele><time>2026-04-30T14:54:43.698Z</time></trkpt><trkpt lat="40.3185244" lon="8.4642925"><ele>20.666666666666668</ele><time>2026-04-30T14:54:44.701Z</time></trkpt><trkpt lat="40.3184867" lon="8.4645573"><ele>21.0</ele><time>2026-04-30T14:54:45.7Z</time></trkpt><trkpt lat="40.3184517" lon="8.4648311"><ele>21.0</ele><time>2026-04-30T14:54:46.7Z</time></trkpt><trkpt lat="40.3184165" lon="8.4651072"><ele>21.0</ele><time>2026-04-30T14:54:47.7Z</time></trkpt><trkpt lat="40.3183777" lon="8.4653878"><ele>21.0</ele><time>2026-04-30T14:54:48.697Z</time></trkpt><trkpt lat="40.3183332" lon="8.4656671"><ele>20.666666666666668</ele><time>2026-04-30T14:54:49.698Z</time></trkpt><trkpt lat="40.3182809" lon="8.4659459"><ele>20.333333333333336</ele><time>2026-04-30T14:54:50.698Z</time></trkpt><trkpt lat="40.3182153" lon="8.4662161"><ele>20.0</ele><time>2026-04-30T14:54:51.699Z</time></trkpt><trkpt lat="40.3181321" lon="8.4664712"><ele>18.333333333333336</ele><time>2026-04-30T14:54:52.698Z</time></trkpt><trkpt lat="40.3180346" lon="8.4667191"><ele>16.666666666666668</ele><time>2026-04-30T14:54:53.705Z</time></trkpt><trkpt lat="40.317935" lon="8.4669661"><ele>15.0</ele><time>2026-04-30T14:54:54.699Z</time></trkpt><trkpt lat="40.3178368" lon="8.4672127"><ele>15.0</ele><time>2026-04-30T14:54:55.704Z</time></trkpt><trkpt lat="40.3177395" lon="8.4674586"><ele>15.0</ele><time>2026-04-30T14:54:56.7Z</time></trkpt><trkpt lat="40.3176506" lon="8.4677109"><ele>15.0</ele><time>2026-04-30T14:54:57.698Z</time></trkpt><trkpt lat="40.3175733" lon="8.467973"><ele>16.333333333333332</ele><time>2026-04-30T14:54:58.697Z</time></trkpt><trkpt lat="40.3175048" lon="8.4682415"><ele>17.666666666666664</ele><time>2026-04-30T14:54:59.695Z</time></trkpt><trkpt lat="40.3174401" lon="8.468515"><ele>19.0</ele><time>2026-04-30T14:55:00.699Z</time></trkpt><trkpt lat="40.3173768" lon="8.468793"><ele>19.333333333333332</ele><time>2026-04-30T14:55:01.704Z</time></trkpt><trkpt lat="40.3173141" lon="8.4690716"><ele>19.666666666666668</ele><time>2026-04-30T14:55:02.699Z</time></trkpt><trkpt lat="40.3172503" lon="8.4693513"><ele>20.0</ele><time>2026-04-30T14:55:03.697Z</time></trkpt><trkpt lat="40.3171871" lon="8.4696329"><ele>20.0</ele><time>2026-04-30T14:55:04.697Z</time></trkpt><trkpt lat="40.3171252" lon="8.4699137"><ele>20.0</ele><time>2026-04-30T14:55:05.699Z</time></trkpt><trkpt lat="40.3170615" lon="8.4701941"><ele>20.0</ele><time>2026-04-30T14:55:06.699Z</time></trkpt><trkpt lat="40.3169956" lon="8.470471"><ele>20.333333333333336</ele><time>2026-04-30T14:55:07.699Z</time></trkpt><trkpt lat="40.3169304" lon="8.4707341"><ele>20.666666666666668</ele><time>2026-04-30T14:55:08.697Z</time></trkpt><trkpt lat="40.3168709" lon="8.4709804"><ele>21.0</ele><time>2026-04-30T14:55:09.699Z</time></trkpt><trkpt lat="40.3168237" lon="8.4712125"><ele>22.0</ele><time>2026-04-30T14:55:10.7Z</time></trkpt><trkpt lat="40.3168028" lon="8.4714352"><ele>23.0</ele><time>2026-04-30T14:55:11.696Z</time></trkpt><trkpt lat="40.3168048" lon="8.4716523"><ele>24.0</ele><time>2026-04-30T14:55:12.695Z</time></trkpt><trkpt lat="40.3168299" lon="8.4718696"><ele>24.0</ele><time>2026-04-30T14:55:13.7Z</time></trkpt><trkpt lat="40.316856" lon="8.4720924"><ele>24.0</ele><time>2026-04-30T14:55:14.697Z</time></trkpt><trkpt lat="40.3168653" lon="8.4723191"><ele>24.0</ele><time>2026-04-30T14:55:15.699Z</time></trkpt><trkpt lat="40.3168411" lon="8.4725424"><ele>25.333333333333336</ele><time>2026-04-30T14:55:16.699Z</time></trkpt><trkpt lat="40.3167889" lon="8.4727636"><ele>26.666666666666668</ele><time>2026-04-30T14:55:17.697Z</time></trkpt><trkpt lat="40.3167251" lon="8.4729912"><ele>28.0</ele><time>2026-04-30T14:55:18.7Z</time></trkpt><trkpt lat="40.316656" lon="8.4732239"><ele>29.666666666666668</ele><time>2026-04-30T14:55:19.698Z</time></trkpt><trkpt lat="40.3165843" lon="8.4734572"><ele>31.333333333333336</ele><time>2026-04-30T14:55:20.698Z</time></trkpt><trkpt lat="40.3165265" lon="8.4736984"><ele>33.0</ele><time>2026-04-30T14:55:21.7Z</time></trkpt><trkpt lat="40.3164951" lon="8.473951"><ele>34.0</ele><time>2026-04-30T14:55:22.697Z</time></trkpt><trkpt lat="40.316478" lon="8.4742144"><ele>35.0</ele><time>2026-04-30T14:55:23.7Z</time></trkpt><trkpt lat="40.3164672" lon="8.4744859"><ele>36.0</ele><time>2026-04-30T14:55:24.696Z</time></trkpt><trkpt lat="40.3164585" lon="8.4747618"><ele>36.666666666666664</ele><time>2026-04-30T14:55:25.698Z</time></trkpt><trkpt lat="40.3164343" lon="8.4750368"><ele>37.33333333333333</ele><time>2026-04-30T14:55:26.696Z</time></trkpt><trkpt lat="40.3163887" lon="8.4753114"><ele>38.0</ele><time>2026-04-30T14:55:27.699Z</time></trkpt><trkpt lat="40.3163309" lon="8.4755831"><ele>37.33333333333333</ele><time>2026-04-30T14:55:28.702Z</time></trkpt><trkpt lat="40.3162718" lon="8.4758559"><ele>36.666666666666664</ele><time>2026-04-30T14:55:29.699Z</time></trkpt><trkpt lat="40.3162179" lon="8.4761342"><ele>36.0</ele><time>2026-04-30T14:55:30.697Z</time></trkpt><trkpt lat="40.3161749" lon="8.4764225"><ele>36.0</ele><time>2026-04-30T14:55:31.698Z</time></trkpt><trkpt lat="40.3161369" lon="8.4767077"><ele>36.0</ele><time>2026-04-30T14:55:32.698Z</time></trkpt><trkpt lat="40.3161026" lon="8.4769746"><ele>36.0</ele><time>2026-04-30T14:55:33.705Z</time></trkpt><trkpt lat="40.3160588" lon="8.4772249"><ele>36.666666666666664</ele><time>2026-04-30T14:55:34.696Z</time></trkpt><trkpt lat="40.3159927" lon="8.4774506"><ele>37.33333333333333</ele><time>2026-04-30T14:55:35.699Z</time></trkpt><trkpt lat="40.3159066" lon="8.4776713"><ele>38.0</ele><time>2026-04-30T14:55:36.698Z</time></trkpt><trkpt lat="40.3158122" lon="8.477895"><ele>39.666666666666664</ele><time>2026-04-30T14:55:37.697Z</time></trkpt><trkpt lat="40.3157126" lon="8.4781314"><ele>41.333333333333336</ele><time>2026-04-30T14:55:38.701Z</time></trkpt><trkpt lat="40.31561" lon="8.4783701"><ele>43.0</ele><time>2026-04-30T14:55:39.7Z</time></trkpt><trkpt lat="40.3155048" lon="8.4786153"><ele>43.5</ele><time>2026-04-30T14:55:40.703Z</time></trkpt><trkpt lat="40.3153966" lon="8.4788684"><ele>44.0</ele><time>2026-04-30T14:55:41.696Z</time></trkpt><trkpt lat="40.3152843" lon="8.4791296"><ele>44.0</ele><time>2026-04-30T14:55:42.698Z</time></trkpt><trkpt lat="40.3151664" lon="8.4793963"><ele>44.0</ele><time>2026-04-30T14:55:43.699Z</time></trkpt><trkpt lat="40.3150482" lon="8.479666"><ele>46.666666666666664</ele><time>2026-04-30T14:55:44.697Z</time></trkpt><trkpt lat="40.3149385" lon="8.4799178"><ele>49.33333333333333</ele><time>2026-04-30T14:55:45.701Z</time></trkpt><trkpt lat="40.3148369" lon="8.4801589"><ele>52.0</ele><time>2026-04-30T14:55:46.7Z</time></trkpt><trkpt lat="40.3147466" lon="8.4803903"><ele>54.33333333333333</ele><time>2026-04-30T14:55:47.706Z</time></trkpt><trkpt lat="40.3146744" lon="8.4806299"><ele>56.66666666666667</ele><time>2026-04-30T14:55:48.698Z</time></trkpt><trkpt lat="40.3146219" lon="8.4808812"><ele>59.0</ele><time>2026-04-30T14:55:49.695Z</time></trkpt><trkpt lat="40.3145764" lon="8.4811455"><ele>59.0</ele><time>2026-04-30T14:55:50.696Z</time></trkpt><trkpt lat="40.3145293" lon="8.4814198"><ele>59.0</ele><time>2026-04-30T14:55:51.699Z</time></trkpt><trkpt lat="40.3144778" lon="8.4817029"><ele>59.0</ele><time>2026-04-30T14:55:52.697Z</time></trkpt><trkpt lat="40.3144238" lon="8.4819902"><ele>58.5</ele><time>2026-04-30T14:55:53.701Z</time></trkpt><trkpt lat="40.3143705" lon="8.4822823"><ele>58.0</ele><time>2026-04-30T14:55:54.701Z</time></trkpt><trkpt lat="40.314318" lon="8.4825775"><ele>58.0</ele><time>2026-04-30T14:55:55.698Z</time></trkpt><trkpt lat="40.3142645" lon="8.4828751"><ele>58.0</ele><time>2026-04-30T14:55:56.699Z</time></trkpt><trkpt lat="40.3142102" lon="8.4831789"><ele>58.5</ele><time>2026-04-30T14:55:57.697Z</time></trkpt><trkpt lat="40.3141553" lon="8.483487"><ele>59.0</ele><time>2026-04-30T14:55:58.7Z</time></trkpt><trkpt lat="40.3140998" lon="8.4838002"><ele>63.0</ele><time>2026-04-30T14:55:59.7Z</time></trkpt><trkpt lat="40.3140451" lon="8.4841164"><ele>67.0</ele><time>2026-04-30T14:56:00.698Z</time></trkpt><trkpt lat="40.313992" lon="8.4844335"><ele>70.0</ele><time>2026-04-30T14:56:01.698Z</time></trkpt><trkpt lat="40.3139421" lon="8.4847264"><ele>73.0</ele><time>2026-04-30T14:56:02.697Z</time></trkpt><trkpt lat="40.3138905" lon="8.4850003"><ele>76.0</ele><time>2026-04-30T14:56:03.698Z</time></trkpt><trkpt lat="40.3138277" lon="8.4852524"><ele>78.33333333333333</ele><time>2026-04-30T14:56:04.699Z</time></trkpt><trkpt lat="40.3137434" lon="8.4854936"><ele>80.66666666666667</ele><time>2026-04-30T14:56:05.698Z</time></trkpt><trkpt lat="40.3136403" lon="8.4857243"><ele>83.0</ele><time>2026-04-30T14:56:06.698Z</time></trkpt><trkpt lat="40.3135246" lon="8.4859599"><ele>83.0</ele><time>2026-04-30T14:56:07.697Z</time></trkpt><trkpt lat="40.3134054" lon="8.4862085"><ele>83.0</ele><time>2026-04-30T14:56:08.697Z</time></trkpt><trkpt lat="40.3132797" lon="8.4864665"><ele>83.66666666666667</ele><time>2026-04-30T14:56:09.697Z</time></trkpt><trkpt lat="40.3131576" lon="8.486719"><ele>84.33333333333333</ele><time>2026-04-30T14:56:10.697Z</time></trkpt><trkpt lat="40.313041" lon="8.4869613"><ele>85.0</ele><time>2026-04-30T14:56:11.697Z</time></trkpt><trkpt lat="40.3129291" lon="8.4871979"><ele>83.0</ele><time>2026-04-30T14:56:12.7Z</time></trkpt><trkpt lat="40.3128224" lon="8.4874231"><ele>81.0</ele><time>2026-04-30T14:56:13.698Z</time></trkpt><trkpt lat="40.312717" lon="8.4876378"><ele>79.0</ele><time>2026-04-30T14:56:14.696Z</time></trkpt><trkpt lat="40.3126114" lon="8.4878381"><ele>78.66666666666666</ele><time>2026-04-30T14:56:15.698Z</time></trkpt><trkpt lat="40.3124979" lon="8.4880219"><ele>78.33333333333333</ele><time>2026-04-30T14:56:16.698Z</time></trkpt><trkpt lat="40.3123659" lon="8.4881836"><ele>78.0</ele><time>2026-04-30T14:56:17.698Z</time></trkpt><trkpt lat="40.3122168" lon="8.4883243"><ele>78.0</ele><time>2026-04-30T14:56:18.695Z</time></trkpt><trkpt lat="40.31206" lon="8.4884486"><ele>78.0</ele><time>2026-04-30T14:56:19.697Z</time></trkpt><trkpt lat="40.3119184" lon="8.4885473"><ele>78.0</ele><time>2026-04-30T14:56:20.699Z</time></trkpt><trkpt lat="40.3117819" lon="8.4886209"><ele>78.0</ele><time>2026-04-30T14:56:21.701Z</time></trkpt><trkpt lat="40.3116414" lon="8.4886504"><ele>78.0</ele><time>2026-04-30T14:56:22.698Z</time></trkpt><trkpt lat="40.3114894" lon="8.4886389"><ele>78.0</ele><time>2026-04-30T14:56:23.697Z</time></trkpt><trkpt lat="40.3113244" lon="8.4886059"><ele>75.66666666666667</ele><time>2026-04-30T14:56:24.698Z</time></trkpt><trkpt lat="40.3111535" lon="8.4885774"><ele>73.33333333333334</ele><time>2026-04-30T14:56:25.701Z</time></trkpt><trkpt lat="40.310997" lon="8.4885571"><ele>71.0</ele><time>2026-04-30T14:56:26.697Z</time></trkpt><trkpt lat="40.3108504" lon="8.4885284"><ele>71.0</ele><time>2026-04-30T14:56:27.705Z</time></trkpt><trkpt lat="40.3107244" lon="8.4884782"><ele>71.0</ele><time>2026-04-30T14:56:28.698Z</time></trkpt><trkpt lat="40.3106133" lon="8.4883912"><ele>71.0</ele><time>2026-04-30T14:56:29.7Z</time></trkpt><trkpt lat="40.3105133" lon="8.4882695"><ele>71.0</ele><time>2026-04-30T14:56:30.698Z</time></trkpt><trkpt lat="40.3104104" lon="8.4881235"><ele>68.33333333333334</ele><time>2026-04-30T14:56:31.7Z</time></trkpt><trkpt lat="40.3102965" lon="8.4879573"><ele>65.66666666666667</ele><time>2026-04-30T14:56:32.698Z</time></trkpt><trkpt lat="40.3101746" lon="8.4877731"><ele>63.0</ele><time>2026-04-30T14:56:33.701Z</time></trkpt><trkpt lat="40.310041" lon="8.4875719"><ele>63.0</ele><time>2026-04-30T14:56:34.7Z</time></trkpt><trkpt lat="40.3099035" lon="8.487366"><ele>63.0</ele><time>2026-04-30T14:56:35.706Z</time></trkpt><trkpt lat="40.3097748" lon="8.4871708"><ele>63.0</ele><time>2026-04-30T14:56:36.697Z</time></trkpt><trkpt lat="40.309649" lon="8.4869819"><ele>60.0</ele><time>2026-04-30T14:56:37.697Z</time></trkpt><trkpt lat="40.3095169" lon="8.4868113"><ele>57.0</ele><time>2026-04-30T14:56:38.696Z</time></trkpt><trkpt lat="40.3093677" lon="8.48666"><ele>54.0</ele><time>2026-04-30T14:56:39.696Z</time></trkpt><trkpt lat="40.3091961" lon="8.4865311"><ele>54.0</ele><time>2026-04-30T14:56:40.699Z</time></trkpt><trkpt lat="40.309009" lon="8.4864125"><ele>54.0</ele><time>2026-04-30T14:56:41.697Z</time></trkpt><trkpt lat="40.3088132" lon="8.4862919"><ele>54.0</ele><time>2026-04-30T14:56:42.697Z</time></trkpt><trkpt lat="40.3086201" lon="8.4861695"><ele>53.66666666666667</ele><time>2026-04-30T14:56:43.701Z</time></trkpt><trkpt lat="40.3084364" lon="8.4860541"><ele>53.333333333333336</ele><time>2026-04-30T14:56:44.7Z</time></trkpt><trkpt lat="40.308269" lon="8.4859496"><ele>53.0</ele><time>2026-04-30T14:56:45.699Z</time></trkpt><trkpt lat="40.3081212" lon="8.4858532"><ele>46.66666666666667</ele><time>2026-04-30T14:56:46.699Z</time></trkpt><trkpt lat="40.3079966" lon="8.4857441"><ele>40.333333333333336</ele><time>2026-04-30T14:56:47.698Z</time></trkpt><trkpt lat="40.3078869" lon="8.4856019"><ele>34.0</ele><time>2026-04-30T14:56:48.698Z</time></trkpt><trkpt lat="40.307789" lon="8.4854296"><ele>36.66666666666667</ele><time>2026-04-30T14:56:49.699Z</time></trkpt><trkpt lat="40.3076906" lon="8.4852347"><ele>39.333333333333336</ele><time>2026-04-30T14:56:50.697Z</time></trkpt><trkpt lat="40.3075904" lon="8.4850384"><ele>42.0</ele><time>2026-04-30T14:56:51.7Z</time></trkpt><trkpt lat="40.307483" lon="8.484867"><ele>42.0</ele><time>2026-04-30T14:56:52.696Z</time></trkpt><trkpt lat="40.3073506" lon="8.4847364"><ele>42.0</ele><time>2026-04-30T14:56:53.698Z</time></trkpt><trkpt lat="40.3071929" lon="8.4846414"><ele>42.0</ele><time>2026-04-30T14:56:54.699Z</time></trkpt><trkpt lat="40.3070203" lon="8.4845606"><ele>42.0</ele><time>2026-04-30T14:56:55.704Z</time></trkpt><trkpt lat="40.3068346" lon="8.4844831"><ele>42.0</ele><time>2026-04-30T14:56:56.702Z</time></trkpt><trkpt lat="40.3066449" lon="8.4844023"><ele>42.0</ele><time>2026-04-30T14:56:57.706Z</time></trkpt><trkpt lat="40.3064502" lon="8.4843225"><ele>39.333333333333336</ele><time>2026-04-30T14:56:58.7Z</time></trkpt><trkpt lat="40.3062451" lon="8.4842644"><ele>36.66666666666667</ele><time>2026-04-30T14:56:59.7Z</time></trkpt><trkpt lat="40.3060329" lon="8.4842264"><ele>34.0</ele><time>2026-04-30T14:57:00.701Z</time></trkpt><trkpt lat="40.305815" lon="8.4841989"><ele>34.0</ele><time>2026-04-30T14:57:01.697Z</time></trkpt><trkpt lat="40.3055928" lon="8.4841736"><ele>34.0</ele><time>2026-04-30T14:57:02.696Z</time></trkpt><trkpt lat="40.3053689" lon="8.4841494"><ele>34.0</ele><time>2026-04-30T14:57:03.698Z</time></trkpt><trkpt lat="40.3051469" lon="8.4841244"><ele>31.0</ele><time>2026-04-30T14:57:04.695Z</time></trkpt><trkpt lat="40.3049268" lon="8.4840986"><ele>28.0</ele><time>2026-04-30T14:57:05.702Z</time></trkpt><trkpt lat="40.3047048" lon="8.4840729"><ele>25.0</ele><time>2026-04-30T14:57:06.702Z</time></trkpt><trkpt lat="40.3044806" lon="8.4840443"><ele>23.5</ele><time>2026-04-30T14:57:07.7Z</time></trkpt><trkpt lat="40.3042553" lon="8.4840191"><ele>22.0</ele><time>2026-04-30T14:57:08.697Z</time></trkpt><trkpt lat="40.3040317" lon="8.484008"><ele>21.333333333333332</ele><time>2026-04-30T14:57:09.704Z</time></trkpt><trkpt lat="40.3038122" lon="8.4840186"><ele>20.666666666666668</ele><time>2026-04-30T14:57:10.703Z</time></trkpt><trkpt lat="40.3035928" lon="8.4840507"><ele>20.0</ele><time>2026-04-30T14:57:11.704Z</time></trkpt><trkpt lat="40.3033743" lon="8.4840982"><ele>20.0</ele><time>2026-04-30T14:57:12.702Z</time></trkpt><trkpt lat="40.3031572" lon="8.4841573"><ele>20.0</ele><time>2026-04-30T14:57:13.697Z</time></trkpt><trkpt lat="40.3029476" lon="8.4842126"><ele>20.0</ele><time>2026-04-30T14:57:14.701Z</time></trkpt><trkpt lat="40.3027542" lon="8.4842664"><ele>20.333333333333336</ele><time>2026-04-30T14:57:15.698Z</time></trkpt><trkpt lat="40.3025773" lon="8.4843461"><ele>20.666666666666668</ele><time>2026-04-30T14:57:16.7Z</time></trkpt><trkpt lat="40.3024165" lon="8.4844565"><ele>21.0</ele><time>2026-04-30T14:57:17.7Z</time></trkpt><trkpt lat="40.3022677" lon="8.4845742"><ele>17.0</ele><time>2026-04-30T14:57:18.698Z</time></trkpt><trkpt lat="40.3021163" lon="8.4846747"><ele>13.0</ele><time>2026-04-30T14:57:19.696Z</time></trkpt><trkpt lat="40.3019532" lon="8.4847475"><ele>9.0</ele><time>2026-04-30T14:57:20.697Z</time></trkpt><trkpt lat="40.301782" lon="8.4847961"><ele>9.0</ele><time>2026-04-30T14:57:21.697Z</time></trkpt><trkpt lat="40.3016042" lon="8.4848156"><ele>9.0</ele><time>2026-04-30T14:57:22.697Z</time></trkpt><trkpt lat="40.3014187" lon="8.4848122"><ele>9.0</ele><time>2026-04-30T14:57:23.7Z</time></trkpt><trkpt lat="40.3012252" lon="8.4848027"><ele>8.0</ele><time>2026-04-30T14:57:24.702Z</time></trkpt><trkpt lat="40.3010262" lon="8.4847942"><ele>7.0</ele><time>2026-04-30T14:57:25.695Z</time></trkpt><trkpt lat="40.3008223" lon="8.4847866"><ele>6.0</ele><time>2026-04-30T14:57:26.7Z</time></trkpt><trkpt lat="40.3006176" lon="8.4847782"><ele>5.666666666666667</ele><time>2026-04-30T14:57:27.698Z</time></trkpt><trkpt lat="40.3004216" lon="8.484772"><ele>5.333333333333334</ele><time>2026-04-30T14:57:28.698Z</time></trkpt><trkpt lat="40.3002317" lon="8.4847694"><ele>5.0</ele><time>2026-04-30T14:57:29.697Z</time></trkpt><trkpt lat="40.3000438" lon="8.4847681"><ele>5.0</ele><time>2026-04-30T14:57:30.698Z</time></trkpt><trkpt lat="40.2998662" lon="8.4847713"><ele>5.0</ele><time>2026-04-30T14:57:31.697Z</time></trkpt><trkpt lat="40.2996987" lon="8.4847803"><ele>5.0</ele><time>2026-04-30T14:57:32.697Z</time></trkpt><trkpt lat="40.2995477" lon="8.4847879"><ele>5.0</ele><time>2026-04-30T14:57:33.699Z</time></trkpt><trkpt lat="40.2994176" lon="8.4847957"><ele>5.0</ele><time>2026-04-30T14:57:34.695Z</time></trkpt><trkpt lat="40.2992975" lon="8.4848035"><ele>5.0</ele><time>2026-04-30T14:57:35.701Z</time></trkpt><trkpt lat="40.2991826" lon="8.4848115"><ele>5.0</ele><time>2026-04-30T14:57:36.698Z</time></trkpt><trkpt lat="40.299069" lon="8.4848188"><ele>5.0</ele><time>2026-04-30T14:57:37.699Z</time></trkpt><trkpt lat="40.2989548" lon="8.4848249"><ele>5.0</ele><time>2026-04-30T14:57:38.698Z</time></trkpt><trkpt lat="40.298838" lon="8.4848332"><ele>5.0</ele><time>2026-04-30T14:57:39.7Z</time></trkpt><trkpt lat="40.2987201" lon="8.4848413"><ele>5.0</ele><time>2026-04-30T14:57:40.7Z</time></trkpt><trkpt lat="40.2986058" lon="8.4848511"><ele>4.6</ele><time>2026-04-30T14:57:41.698Z</time></trkpt><trkpt lat="40.29849" lon="8.4848575"><ele>4.2</ele><time>2026-04-30T14:57:42.696Z</time></trkpt><trkpt lat="40.2983748" lon="8.4848652"><ele>3.8</ele><time>2026-04-30T14:57:43.699Z</time></trkpt><trkpt lat="40.2982646" lon="8.4848727"><ele>3.4</ele><time>2026-04-30T14:57:44.7Z</time></trkpt><trkpt lat="40.298162" lon="8.4848806"><ele>3.0</ele><time>2026-04-30T14:57:45.7Z</time></trkpt><trkpt lat="40.2980661" lon="8.4848878"><ele>3.0</ele><time>2026-04-30T14:57:46.699Z</time></trkpt><trkpt lat="40.2979846" lon="8.4848949"><ele>3.0</ele><time>2026-04-30T14:57:47.701Z</time></trkpt><trkpt lat="40.2979147" lon="8.484898"><ele>3.0</ele><time>2026-04-30T14:57:48.705Z</time></trkpt><trkpt lat="40.2977949" lon="8.4849069"><ele>3.0</ele><time>2026-04-30T14:57:50.698Z</time></trkpt><trkpt lat="40.2976863" lon="8.4849137"><ele>3.0</ele><time>2026-04-30T14:57:52.703Z</time></trkpt><trkpt lat="40.2976053" lon="8.4849153"><ele>2.9999999999999996</ele><time>2026-04-30T14:57:54.699Z</time></trkpt><trkpt lat="40.2975413" lon="8.4849142"><ele>3.0</ele><time>2026-04-30T14:57:56.7Z</time></trkpt><trkpt lat="40.2974664" lon="8.4849131"><ele>3.0</ele><time>2026-04-30T14:57:59.697Z</time></trkpt><trkpt lat="40.29739" lon="8.4849015"><ele>3.0</ele><time>2026-04-30T14:58:01.701Z</time></trkpt><trkpt lat="40.2973013" lon="8.4849011"><ele>3.0</ele><time>2026-04-30T14:58:04.703Z</time></trkpt><trkpt lat="40.2972358" lon="8.4848847"><ele>2.9999999999999996</ele><time>2026-04-30T14:58:06.698Z</time></trkpt><trkpt lat="40.2971664" lon="8.4848855"><ele>3.0</ele><time>2026-04-30T14:58:08.698Z</time></trkpt><trkpt lat="40.2970517" lon="8.4849379"><ele>3.0</ele><time>2026-04-30T14:58:10.7Z</time></trkpt><trkpt lat="40.2969611" lon="8.4849601"><ele>3.0</ele><time>2026-04-30T14:58:11.698Z</time></trkpt><trkpt lat="40.2968492" lon="8.484973"><ele>3.0</ele><time>2026-04-30T14:58:12.696Z</time></trkpt><trkpt lat="40.2967182" lon="8.4849814"><ele>3.0</ele><time>2026-04-30T14:58:13.696Z</time></trkpt><trkpt lat="40.2965725" lon="8.4849888"><ele>2.6666666666666665</ele><time>2026-04-30T14:58:14.697Z</time></trkpt><trkpt lat="40.2964181" lon="8.485007"><ele>2.333333333333333</ele><time>2026-04-30T14:58:15.698Z</time></trkpt><trkpt lat="40.2962541" lon="8.4850173"><ele>2.0</ele><time>2026-04-30T14:58:16.698Z</time></trkpt><trkpt lat="40.2960845" lon="8.4850287"><ele>2.0</ele><time>2026-04-30T14:58:17.701Z</time></trkpt><trkpt lat="40.2959089" lon="8.4850386"><ele>2.0</ele><time>2026-04-30T14:58:18.705Z</time></trkpt><trkpt lat="40.2957411" lon="8.4850395"><ele>2.0</ele><time>2026-04-30T14:58:19.699Z</time></trkpt><trkpt lat="40.295583" lon="8.4850261"><ele>2.0</ele><time>2026-04-30T14:58:20.697Z</time></trkpt><trkpt lat="40.2954438" lon="8.4849827"><ele>2.0</ele><time>2026-04-30T14:58:21.697Z</time></trkpt><trkpt lat="40.295315" lon="8.4849193"><ele>2.0</ele><time>2026-04-30T14:58:22.7Z</time></trkpt><trkpt lat="40.2951924" lon="8.4848441"><ele>2.0</ele><time>2026-04-30T14:58:23.697Z</time></trkpt><trkpt lat="40.2950737" lon="8.4847624"><ele>2.0</ele><time>2026-04-30T14:58:24.694Z</time></trkpt><trkpt lat="40.2949671" lon="8.484685"><ele>2.0</ele><time>2026-04-30T14:58:25.699Z</time></trkpt><trkpt lat="40.2948659" lon="8.484613"><ele>2.0</ele><time>2026-04-30T14:58:26.702Z</time></trkpt><trkpt lat="40.2947696" lon="8.4845449"><ele>2.0</ele><time>2026-04-30T14:58:27.699Z</time></trkpt><trkpt lat="40.2946714" lon="8.4844766"><ele>1.8</ele><time>2026-04-30T14:58:28.698Z</time></trkpt><trkpt lat="40.2945785" lon="8.4844098"><ele>1.6</ele><time>2026-04-30T14:58:29.7Z</time></trkpt><trkpt lat="40.2944882" lon="8.4843468"><ele>1.4000000000000001</ele><time>2026-04-30T14:58:30.701Z</time></trkpt><trkpt lat="40.2943963" lon="8.484282"><ele>1.2000000000000002</ele><time>2026-04-30T14:58:31.7Z</time></trkpt><trkpt lat="40.2943031" lon="8.4842152"><ele>1.0</ele><time>2026-04-30T14:58:32.7Z</time></trkpt><trkpt lat="40.2942066" lon="8.4841457"><ele>1.0</ele><time>2026-04-30T14:58:33.698Z</time></trkpt><trkpt lat="40.2941073" lon="8.4840751"><ele>1.0</ele><time>2026-04-30T14:58:34.704Z</time></trkpt><trkpt lat="40.2940048" lon="8.4840046"><ele>1.0</ele><time>2026-04-30T14:58:35.699Z</time></trkpt><trkpt lat="40.293899" lon="8.4839323"><ele>1.0</ele><time>2026-04-30T14:58:36.697Z</time></trkpt><trkpt lat="40.2937919" lon="8.4838557"><ele>1.0</ele><time>2026-04-30T14:58:37.701Z</time></trkpt><trkpt lat="40.29368" lon="8.4837782"><ele>1.0</ele><time>2026-04-30T14:58:38.7Z</time></trkpt><trkpt lat="40.2935635" lon="8.4837025"><ele>1.0</ele><time>2026-04-30T14:58:39.698Z</time></trkpt><trkpt lat="40.2934448" lon="8.4836419"><ele>1.0</ele><time>2026-04-30T14:58:40.698Z</time></trkpt><trkpt lat="40.2933292" lon="8.483601"><ele>0.8</ele><time>2026-04-30T14:58:41.698Z</time></trkpt><trkpt lat="40.2932174" lon="8.4835844"><ele>0.6000000000000001</ele><time>2026-04-30T14:58:42.694Z</time></trkpt><trkpt lat="40.2931094" lon="8.4835821"><ele>0.4</ele><time>2026-04-30T14:58:43.697Z</time></trkpt><trkpt lat="40.2930059" lon="8.4835788"><ele>0.2</ele><time>2026-04-30T14:58:44.696Z</time></trkpt><trkpt lat="40.2929049" lon="8.4835675"><ele>0.0</ele><time>2026-04-30T14:58:45.699Z</time></trkpt><trkpt lat="40.2928052" lon="8.4835405"><ele>0.4</ele><time>2026-04-30T14:58:46.7Z</time></trkpt><trkpt lat="40.2927108" lon="8.4834889"><ele>0.8</ele><time>2026-04-30T14:58:47.698Z</time></trkpt><trkpt lat="40.2926313" lon="8.4834166"><ele>1.2000000000000002</ele><time>2026-04-30T14:58:48.696Z</time></trkpt><trkpt lat="40.2925666" lon="8.4833258"><ele>1.6</ele><time>2026-04-30T14:58:49.697Z</time></trkpt><trkpt lat="40.2925243" lon="8.4832203"><ele>2.0</ele><time>2026-04-30T14:58:50.699Z</time></trkpt><trkpt lat="40.2924866" lon="8.4831069"><ele>2.0</ele><time>2026-04-30T14:58:51.695Z</time></trkpt><trkpt lat="40.2924456" lon="8.4829899"><ele>2.0</ele><time>2026-04-30T14:58:52.701Z</time></trkpt><trkpt lat="40.2924035" lon="8.4828682"><ele>2.0</ele><time>2026-04-30T14:58:53.694Z</time></trkpt><trkpt lat="40.2923618" lon="8.4827458"><ele>2.0</ele><time>2026-04-30T14:58:54.701Z</time></trkpt><trkpt lat="40.2923196" lon="8.4826179"><ele>2.0</ele><time>2026-04-30T14:58:55.702Z</time></trkpt><trkpt lat="40.2922752" lon="8.4824766"><ele>2.0</ele><time>2026-04-30T14:58:56.694Z</time></trkpt><trkpt lat="40.2922265" lon="8.4823198"><ele>2.0</ele><time>2026-04-30T14:58:57.7Z</time></trkpt><trkpt lat="40.2921781" lon="8.4821493"><ele>2.0</ele><time>2026-04-30T14:58:58.699Z</time></trkpt><trkpt lat="40.2921283" lon="8.4819495"><ele>2.0</ele><time>2026-04-30T14:58:59.699Z</time></trkpt><trkpt lat="40.2920725" lon="8.4817221"><ele>2.333333333333333</ele><time>2026-04-30T14:59:00.699Z</time></trkpt><trkpt lat="40.2920069" lon="8.4814671"><ele>2.6666666666666665</ele><time>2026-04-30T14:59:01.7Z</time></trkpt><trkpt lat="40.2919466" lon="8.4812036"><ele>3.0</ele><time>2026-04-30T14:59:02.696Z</time></trkpt><trkpt lat="40.2918954" lon="8.4809599"><ele>3.0</ele><time>2026-04-30T14:59:03.697Z</time></trkpt><trkpt lat="40.291847" lon="8.4807286"><ele>3.0</ele><time>2026-04-30T14:59:04.696Z</time></trkpt><trkpt lat="40.2917984" lon="8.4805157"><ele>3.0</ele><time>2026-04-30T14:59:05.695Z</time></trkpt><trkpt lat="40.2917536" lon="8.4803165"><ele>3.0</ele><time>2026-04-30T14:59:06.699Z</time></trkpt><trkpt lat="40.2917127" lon="8.4801295"><ele>3.0</ele><time>2026-04-30T14:59:07.696Z</time></trkpt><trkpt lat="40.2916693" lon="8.4799446"><ele>3.0</ele><time>2026-04-30T14:59:08.696Z</time></trkpt><trkpt lat="40.2916256" lon="8.479762"><ele>3.0</ele><time>2026-04-30T14:59:09.698Z</time></trkpt><trkpt lat="40.291584" lon="8.4795851"><ele>3.0</ele><time>2026-04-30T14:59:10.704Z</time></trkpt><trkpt lat="40.291542" lon="8.4794125"><ele>3.0</ele><time>2026-04-30T14:59:11.7Z</time></trkpt><trkpt lat="40.2915011" lon="8.479244"><ele>3.0</ele><time>2026-04-30T14:59:12.696Z</time></trkpt><trkpt lat="40.2914587" lon="8.479079"><ele>3.0</ele><time>2026-04-30T14:59:13.701Z</time></trkpt><trkpt lat="40.2914182" lon="8.4789219"><ele>3.2</ele><time>2026-04-30T14:59:14.701Z</time></trkpt><trkpt lat="40.291383" lon="8.4787706"><ele>3.4</ele><time>2026-04-30T14:59:15.7Z</time></trkpt><trkpt lat="40.29135" lon="8.4786263"><ele>3.6000000000000005</ele><time>2026-04-30T14:59:16.698Z</time></trkpt><trkpt lat="40.2913192" lon="8.4784895"><ele>3.8000000000000003</ele><time>2026-04-30T14:59:17.697Z</time></trkpt><trkpt lat="40.2912881" lon="8.4783595"><ele>4.0</ele><time>2026-04-30T14:59:18.696Z</time></trkpt><trkpt lat="40.2912578" lon="8.4782312"><ele>4.0</ele><time>2026-04-30T14:59:19.7Z</time></trkpt><trkpt lat="40.2912299" lon="8.4781028"><ele>4.0</ele><time>2026-04-30T14:59:20.698Z</time></trkpt><trkpt lat="40.2911988" lon="8.4779725"><ele>4.0</ele><time>2026-04-30T14:59:21.701Z</time></trkpt><trkpt lat="40.2911623" lon="8.477835"><ele>4.0</ele><time>2026-04-30T14:59:22.701Z</time></trkpt><trkpt lat="40.2911155" lon="8.4777003"><ele>4.0</ele><time>2026-04-30T14:59:23.698Z</time></trkpt><trkpt lat="40.2910595" lon="8.4775674"><ele>4.0</ele><time>2026-04-30T14:59:24.7Z</time></trkpt><trkpt lat="40.290993" lon="8.4774325"><ele>4.0</ele><time>2026-04-30T14:59:25.702Z</time></trkpt><trkpt lat="40.2909208" lon="8.4772878"><ele>4.0</ele><time>2026-04-30T14:59:26.701Z</time></trkpt><trkpt lat="40.2908382" lon="8.4771267"><ele>4.0</ele><time>2026-04-30T14:59:27.698Z</time></trkpt><trkpt lat="40.2907636" lon="8.4769834"><ele>4.0</ele><time>2026-04-30T14:59:28.704Z</time></trkpt><trkpt lat="40.2906979" lon="8.4768549"><ele>4.0</ele><time>2026-04-30T14:59:29.699Z</time></trkpt><trkpt lat="40.2906404" lon="8.4767375"><ele>4.0</ele><time>2026-04-30T14:59:30.698Z</time></trkpt><trkpt lat="40.2905842" lon="8.476644"><ele>4.0</ele><time>2026-04-30T14:59:31.701Z</time></trkpt><trkpt lat="40.2905164" lon="8.476587"><ele>4.0</ele><time>2026-04-30T14:59:32.699Z</time></trkpt><trkpt lat="40.2904457" lon="8.4765792"><ele>4.0</ele><time>2026-04-30T14:59:33.698Z</time></trkpt><trkpt lat="40.290387" lon="8.4766145"><ele>3.9999999999999996</ele><time>2026-04-30T14:59:34.702Z</time></trkpt><trkpt lat="40.2903431" lon="8.4766807"><ele>4.0</ele><time>2026-04-30T14:59:35.7Z</time></trkpt><trkpt lat="40.2903122" lon="8.4767627"><ele>4.0</ele><time>2026-04-30T14:59:36.701Z</time></trkpt><trkpt lat="40.2902833" lon="8.4768556"><ele>3.9999999999999996</ele><time>2026-04-30T14:59:37.695Z</time></trkpt><trkpt lat="40.2902523" lon="8.4769538"><ele>4.0</ele><time>2026-04-30T14:59:38.696Z</time></trkpt><trkpt lat="40.2902202" lon="8.4770576"><ele>4.0</ele><time>2026-04-30T14:59:39.697Z</time></trkpt><trkpt lat="40.2901852" lon="8.4771626"><ele>3.8000000000000003</ele><time>2026-04-30T14:59:40.701Z</time></trkpt><trkpt lat="40.2901486" lon="8.4772726"><ele>3.6000000000000005</ele><time>2026-04-30T14:59:41.697Z</time></trkpt><trkpt lat="40.2901109" lon="8.4773973"><ele>3.4</ele><time>2026-04-30T14:59:42.7Z</time></trkpt><trkpt lat="40.2900692" lon="8.4775364"><ele>3.2</ele><time>2026-04-30T14:59:43.699Z</time></trkpt><trkpt lat="40.2900236" lon="8.4776848"><ele>3.0</ele><time>2026-04-30T14:59:44.703Z</time></trkpt><trkpt lat="40.2899738" lon="8.4778472"><ele>3.5</ele><time>2026-04-30T14:59:45.696Z</time></trkpt><trkpt lat="40.2899169" lon="8.4780182"><ele>4.0</ele><time>2026-04-30T14:59:46.697Z</time></trkpt><trkpt lat="40.2898574" lon="8.4781946"><ele>4.5</ele><time>2026-04-30T14:59:47.701Z</time></trkpt><trkpt lat="40.289798" lon="8.4783675"><ele>5.0</ele><time>2026-04-30T14:59:48.702Z</time></trkpt><trkpt lat="40.2897422" lon="8.4785302"><ele>4.5</ele><time>2026-04-30T14:59:49.698Z</time></trkpt><trkpt lat="40.2896881" lon="8.478687"><ele>4.0</ele><time>2026-04-30T14:59:50.7Z</time></trkpt><trkpt lat="40.2896366" lon="8.4788375"><ele>3.5</ele><time>2026-04-30T14:59:51.699Z</time></trkpt><trkpt lat="40.2895871" lon="8.4789823"><ele>3.0</ele><time>2026-04-30T14:59:52.701Z</time></trkpt><trkpt lat="40.2895375" lon="8.4791194"><ele>3.0</ele><time>2026-04-30T14:59:53.696Z</time></trkpt><trkpt lat="40.289491" lon="8.4792516"><ele>3.0</ele><time>2026-04-30T14:59:54.701Z</time></trkpt><trkpt lat="40.289446" lon="8.4793883"><ele>3.0</ele><time>2026-04-30T14:59:55.696Z</time></trkpt><trkpt lat="40.2894001" lon="8.4795251"><ele>3.0</ele><time>2026-04-30T14:59:56.698Z</time></trkpt><trkpt lat="40.2893519" lon="8.4796597"><ele>3.5</ele><time>2026-04-30T14:59:57.702Z</time></trkpt><trkpt lat="40.2893021" lon="8.4797968"><ele>4.0</ele><time>2026-04-30T14:59:58.698Z</time></trkpt><trkpt lat="40.2892511" lon="8.4799341"><ele>4.5</ele><time>2026-04-30T14:59:59.695Z</time></trkpt><trkpt lat="40.2891999" lon="8.4800604"><ele>5.0</ele><time>2026-04-30T15:00:00.696Z</time></trkpt><trkpt lat="40.2891469" lon="8.4801867"><ele>5.0</ele><time>2026-04-30T15:00:01.7Z</time></trkpt><trkpt lat="40.2890854" lon="8.4803048"><ele>5.0</ele><time>2026-04-30T15:00:02.697Z</time></trkpt><trkpt lat="40.2890114" lon="8.4804147"><ele>5.0</ele><time>2026-04-30T15:00:03.699Z</time></trkpt><trkpt lat="40.2889272" lon="8.4805179"><ele>5.0</ele><time>2026-04-30T15:00:04.7Z</time></trkpt><trkpt lat="40.2888387" lon="8.4806238"><ele>4.5</ele><time>2026-04-30T15:00:05.701Z</time></trkpt><trkpt lat="40.2887455" lon="8.4807316"><ele>4.0</ele><time>2026-04-30T15:00:06.7Z</time></trkpt><trkpt lat="40.2886445" lon="8.4808384"><ele>3.5</ele><time>2026-04-30T15:00:07.698Z</time></trkpt><trkpt lat="40.2885378" lon="8.4809491"><ele>3.0</ele><time>2026-04-30T15:00:08.7Z</time></trkpt><trkpt lat="40.2884269" lon="8.4810663"><ele>3.0</ele><time>2026-04-30T15:00:09.695Z</time></trkpt><trkpt lat="40.288313" lon="8.4811906"><ele>3.0</ele><time>2026-04-30T15:00:10.697Z</time></trkpt><trkpt lat="40.2881957" lon="8.4813183"><ele>3.0</ele><time>2026-04-30T15:00:11.704Z</time></trkpt><trkpt lat="40.2880758" lon="8.4814459"><ele>2.3333333333333335</ele><time>2026-04-30T15:00:12.696Z</time></trkpt><trkpt lat="40.2879593" lon="8.4815746"><ele>1.6666666666666665</ele><time>2026-04-30T15:00:13.699Z</time></trkpt><trkpt lat="40.2878405" lon="8.4817026"><ele>1.0</ele><time>2026-04-30T15:00:14.698Z</time></trkpt><trkpt lat="40.2877201" lon="8.4818297"><ele>1.0</ele><time>2026-04-30T15:00:15.702Z</time></trkpt><trkpt lat="40.2875956" lon="8.4819613"><ele>1.0</ele><time>2026-04-30T15:00:16.701Z</time></trkpt><trkpt lat="40.2874711" lon="8.4820938"><ele>1.0</ele><time>2026-04-30T15:00:17.695Z</time></trkpt><trkpt lat="40.2873473" lon="8.4822288"><ele>1.3333333333333333</ele><time>2026-04-30T15:00:18.698Z</time></trkpt><trkpt lat="40.2872208" lon="8.4823643"><ele>1.6666666666666665</ele><time>2026-04-30T15:00:19.697Z</time></trkpt><trkpt lat="40.2870952" lon="8.4824976"><ele>2.0</ele><time>2026-04-30T15:00:20.696Z</time></trkpt><trkpt lat="40.2869707" lon="8.4826277"><ele>2.0</ele><time>2026-04-30T15:00:21.701Z</time></trkpt><trkpt lat="40.2868456" lon="8.482755"><ele>2.0</ele><time>2026-04-30T15:00:22.699Z</time></trkpt><trkpt lat="40.2867189" lon="8.4828833"><ele>2.0</ele><time>2026-04-30T15:00:23.696Z</time></trkpt><trkpt lat="40.286591" lon="8.4830126"><ele>2.333333333333333</ele><time>2026-04-30T15:00:24.697Z</time></trkpt><trkpt lat="40.2864643" lon="8.4831355"><ele>2.6666666666666665</ele><time>2026-04-30T15:00:25.702Z</time></trkpt><trkpt lat="40.2863408" lon="8.4832436"><ele>3.0</ele><time>2026-04-30T15:00:26.699Z</time></trkpt><trkpt lat="40.2862116" lon="8.4833349"><ele>3.0</ele><time>2026-04-30T15:00:27.7Z</time></trkpt><trkpt lat="40.2860809" lon="8.4833937"><ele>3.0</ele><time>2026-04-30T15:00:28.698Z</time></trkpt><trkpt lat="40.2859402" lon="8.4834323"><ele>3.0</ele><time>2026-04-30T15:00:29.698Z</time></trkpt><trkpt lat="40.2857979" lon="8.4834502"><ele>3.0</ele><time>2026-04-30T15:00:30.703Z</time></trkpt><trkpt lat="40.2856527" lon="8.4834469"><ele>3.0</ele><time>2026-04-30T15:00:31.701Z</time></trkpt><trkpt lat="40.2855152" lon="8.4834203"><ele>3.0</ele><time>2026-04-30T15:00:32.7Z</time></trkpt><trkpt lat="40.2853796" lon="8.4833743"><ele>3.0</ele><time>2026-04-30T15:00:33.7Z</time></trkpt><trkpt lat="40.2852447" lon="8.483321"><ele>3.0</ele><time>2026-04-30T15:00:34.697Z</time></trkpt><trkpt lat="40.2851153" lon="8.4832731"><ele>3.0</ele><time>2026-04-30T15:00:35.7Z</time></trkpt><trkpt lat="40.2849869" lon="8.4832296"><ele>3.0</ele><time>2026-04-30T15:00:36.696Z</time></trkpt><trkpt lat="40.284858" lon="8.4831959"><ele>3.0</ele><time>2026-04-30T15:00:37.696Z</time></trkpt><trkpt lat="40.2847272" lon="8.4831756"><ele>3.0</ele><time>2026-04-30T15:00:38.7Z</time></trkpt><trkpt lat="40.2845938" lon="8.4831726"><ele>2.75</ele><time>2026-04-30T15:00:39.7Z</time></trkpt><trkpt lat="40.2844583" lon="8.4831857"><ele>2.5</ele><time>2026-04-30T15:00:40.698Z</time></trkpt><trkpt lat="40.2843229" lon="8.4832136"><ele>2.25</ele><time>2026-04-30T15:00:41.701Z</time></trkpt><trkpt lat="40.284188" lon="8.4832581"><ele>2.0</ele><time>2026-04-30T15:00:42.699Z</time></trkpt><trkpt lat="40.284054" lon="8.4833175"><ele>2.0</ele><time>2026-04-30T15:00:43.7Z</time></trkpt><trkpt lat="40.2839235" lon="8.4833868"><ele>2.0</ele><time>2026-04-30T15:00:44.696Z</time></trkpt><trkpt lat="40.2837929" lon="8.4834659"><ele>2.0</ele><time>2026-04-30T15:00:45.698Z</time></trkpt><trkpt lat="40.2836622" lon="8.4835491"><ele>2.0</ele><time>2026-04-30T15:00:46.699Z</time></trkpt><trkpt lat="40.2835314" lon="8.4836298"><ele>2.0</ele><time>2026-04-30T15:00:47.698Z</time></trkpt><trkpt lat="40.2833939" lon="8.4837074"><ele>2.0</ele><time>2026-04-30T15:00:48.7Z</time></trkpt><trkpt lat="40.2832521" lon="8.4837714"><ele>2.0</ele><time>2026-04-30T15:00:49.7Z</time></trkpt><trkpt lat="40.2831068" lon="8.4838206"><ele>5.0</ele><time>2026-04-30T15:00:50.699Z</time></trkpt><trkpt lat="40.2829579" lon="8.4838537"><ele>8.0</ele><time>2026-04-30T15:00:51.696Z</time></trkpt><trkpt lat="40.2828052" lon="8.4838665"><ele>11.0</ele><time>2026-04-30T15:00:52.695Z</time></trkpt><trkpt lat="40.2826535" lon="8.4838639"><ele>11.0</ele><time>2026-04-30T15:00:53.696Z</time></trkpt><trkpt lat="40.282501" lon="8.4838433"><ele>11.0</ele><time>2026-04-30T15:00:54.702Z</time></trkpt><trkpt lat="40.2823514" lon="8.4838108"><ele>11.0</ele><time>2026-04-30T15:00:55.703Z</time></trkpt><trkpt lat="40.2822005" lon="8.4837784"><ele>8.0</ele><time>2026-04-30T15:00:56.699Z</time></trkpt><trkpt lat="40.2820433" lon="8.4837489"><ele>5.0</ele><time>2026-04-30T15:00:57.704Z</time></trkpt><trkpt lat="40.2818837" lon="8.4837256"><ele>2.0</ele><time>2026-04-30T15:00:58.699Z</time></trkpt><trkpt lat="40.2817203" lon="8.4837072"><ele>2.0</ele><time>2026-04-30T15:00:59.702Z</time></trkpt><trkpt lat="40.2815591" lon="8.4836918"><ele>2.0</ele><time>2026-04-30T15:01:00.696Z</time></trkpt><trkpt lat="40.2813963" lon="8.4836787"><ele>2.0</ele><time>2026-04-30T15:01:01.698Z</time></trkpt><trkpt lat="40.2812331" lon="8.4836681"><ele>2.0</ele><time>2026-04-30T15:01:02.701Z</time></trkpt><trkpt lat="40.2810705" lon="8.483663"><ele>2.0</ele><time>2026-04-30T15:01:03.7Z</time></trkpt><trkpt lat="40.2809065" lon="8.4836733"><ele>2.0</ele><time>2026-04-30T15:01:04.699Z</time></trkpt><trkpt lat="40.2807464" lon="8.4837051"><ele>2.0</ele><time>2026-04-30T15:01:05.698Z</time></trkpt><trkpt lat="40.280591" lon="8.4837554"><ele>2.0</ele><time>2026-04-30T15:01:06.699Z</time></trkpt><trkpt lat="40.2804439" lon="8.4838191"><ele>2.0</ele><time>2026-04-30T15:01:07.7Z</time></trkpt><trkpt lat="40.2803013" lon="8.4838702"><ele>7.666666666666666</ele><time>2026-04-30T15:01:08.697Z</time></trkpt><trkpt lat="40.2801519" lon="8.4838828"><ele>13.333333333333332</ele><time>2026-04-30T15:01:09.698Z</time></trkpt><trkpt lat="40.2800002" lon="8.4838641"><ele>19.0</ele><time>2026-04-30T15:01:10.703Z</time></trkpt><trkpt lat="40.2798409" lon="8.4838266"><ele>19.0</ele><time>2026-04-30T15:01:11.706Z</time></trkpt><trkpt lat="40.2796781" lon="8.483786"><ele>19.0</ele><time>2026-04-30T15:01:12.697Z</time></trkpt><trkpt lat="40.2795144" lon="8.4837596"><ele>19.0</ele><time>2026-04-30T15:01:13.7Z</time></trkpt><trkpt lat="40.2793462" lon="8.4837638"><ele>19.0</ele><time>2026-04-30T15:01:14.698Z</time></trkpt><trkpt lat="40.2791776" lon="8.4837927"><ele>19.0</ele><time>2026-04-30T15:01:15.7Z</time></trkpt><trkpt lat="40.2790065" lon="8.4838334"><ele>19.0</ele><time>2026-04-30T15:01:16.697Z</time></trkpt><trkpt lat="40.2788329" lon="8.4838788"><ele>18.0</ele><time>2026-04-30T15:01:17.699Z</time></trkpt><trkpt lat="40.2786578" lon="8.483924"><ele>17.0</ele><time>2026-04-30T15:01:18.699Z</time></trkpt><trkpt lat="40.27848" lon="8.4839608"><ele>16.0</ele><time>2026-04-30T15:01:19.7Z</time></trkpt><trkpt lat="40.2782996" lon="8.4839899"><ele>16.0</ele><time>2026-04-30T15:01:20.697Z</time></trkpt><trkpt lat="40.2781181" lon="8.4840116"><ele>16.0</ele><time>2026-04-30T15:01:21.699Z</time></trkpt><trkpt lat="40.2779347" lon="8.4840238"><ele>16.0</ele><time>2026-04-30T15:01:22.7Z</time></trkpt><trkpt lat="40.2777589" lon="8.4840171"><ele>14.666666666666666</ele><time>2026-04-30T15:01:23.698Z</time></trkpt><trkpt lat="40.2775878" lon="8.4839906"><ele>13.333333333333332</ele><time>2026-04-30T15:01:24.705Z</time></trkpt><trkpt lat="40.2774169" lon="8.4839548"><ele>12.0</ele><time>2026-04-30T15:01:25.7Z</time></trkpt><trkpt lat="40.2772475" lon="8.483936"><ele>11.666666666666666</ele><time>2026-04-30T15:01:26.698Z</time></trkpt><trkpt lat="40.2770758" lon="8.4839482"><ele>11.333333333333332</ele><time>2026-04-30T15:01:27.7Z</time></trkpt><trkpt lat="40.2769038" lon="8.4839778"><ele>11.0</ele><time>2026-04-30T15:01:28.697Z</time></trkpt><trkpt lat="40.2767306" lon="8.4840176"><ele>11.0</ele><time>2026-04-30T15:01:29.698Z</time></trkpt><trkpt lat="40.276555" lon="8.4840601"><ele>11.0</ele><time>2026-04-30T15:01:30.699Z</time></trkpt><trkpt lat="40.2763759" lon="8.4841052"><ele>11.0</ele><time>2026-04-30T15:01:31.699Z</time></trkpt><trkpt lat="40.2761934" lon="8.4841499"><ele>9.0</ele><time>2026-04-30T15:01:32.695Z</time></trkpt><trkpt lat="40.2760088" lon="8.4841916"><ele>7.0</ele><time>2026-04-30T15:01:33.698Z</time></trkpt><trkpt lat="40.2758219" lon="8.4842268"><ele>5.0</ele><time>2026-04-30T15:01:34.699Z</time></trkpt><trkpt lat="40.2756366" lon="8.4842508"><ele>4.666666666666667</ele><time>2026-04-30T15:01:35.699Z</time></trkpt><trkpt lat="40.2754629" lon="8.4842635"><ele>4.333333333333333</ele><time>2026-04-30T15:01:36.701Z</time></trkpt><trkpt lat="40.2752958" lon="8.4842816"><ele>4.0</ele><time>2026-04-30T15:01:37.7Z</time></trkpt><trkpt lat="40.2751324" lon="8.4843186"><ele>4.0</ele><time>2026-04-30T15:01:38.697Z</time></trkpt><trkpt lat="40.2749753" lon="8.4843686"><ele>4.0</ele><time>2026-04-30T15:01:39.698Z</time></trkpt><trkpt lat="40.2748234" lon="8.4844332"><ele>4.0</ele><time>2026-04-30T15:01:40.699Z</time></trkpt><trkpt lat="40.2746692" lon="8.4845105"><ele>3.333333333333333</ele><time>2026-04-30T15:01:41.695Z</time></trkpt><trkpt lat="40.2745137" lon="8.4845906"><ele>2.6666666666666665</ele><time>2026-04-30T15:01:42.697Z</time></trkpt><trkpt lat="40.2743544" lon="8.4846681"><ele>2.0</ele><time>2026-04-30T15:01:43.705Z</time></trkpt><trkpt lat="40.2741919" lon="8.4847432"><ele>3.333333333333333</ele><time>2026-04-30T15:01:44.704Z</time></trkpt><trkpt lat="40.2740289" lon="8.4848015"><ele>4.666666666666667</ele><time>2026-04-30T15:01:45.698Z</time></trkpt><trkpt lat="40.2738635" lon="8.4848364"><ele>6.0</ele><time>2026-04-30T15:01:46.7Z</time></trkpt><trkpt lat="40.2736976" lon="8.4848465"><ele>6.0</ele><time>2026-04-30T15:01:47.704Z</time></trkpt><trkpt lat="40.2735327" lon="8.4848299"><ele>6.0</ele><time>2026-04-30T15:01:48.699Z</time></trkpt><trkpt lat="40.2733706" lon="8.4847886"><ele>6.0</ele><time>2026-04-30T15:01:49.699Z</time></trkpt><trkpt lat="40.273213" lon="8.484729"><ele>6.25</ele><time>2026-04-30T15:01:50.699Z</time></trkpt><trkpt lat="40.2730677" lon="8.4846562"><ele>6.5</ele><time>2026-04-30T15:01:51.7Z</time></trkpt><trkpt lat="40.2729439" lon="8.484578"><ele>6.75</ele><time>2026-04-30T15:01:52.696Z</time></trkpt><trkpt lat="40.2728335" lon="8.4845038"><ele>7.0</ele><time>2026-04-30T15:01:53.698Z</time></trkpt><trkpt lat="40.2727275" lon="8.4844419"><ele>7.000000000000001</ele><time>2026-04-30T15:01:54.698Z</time></trkpt><trkpt lat="40.2726304" lon="8.4844156"><ele>7.0</ele><time>2026-04-30T15:01:55.698Z</time></trkpt><trkpt lat="40.2725377" lon="8.4844147"><ele>7.0</ele><time>2026-04-30T15:01:56.696Z</time></trkpt><trkpt lat="40.2724577" lon="8.4844382"><ele>7.0</ele><time>2026-04-30T15:01:57.703Z</time></trkpt><trkpt lat="40.2723916" lon="8.4844828"><ele>7.000000000000001</ele><time>2026-04-30T15:01:58.698Z</time></trkpt><trkpt lat="40.2723366" lon="8.4845468"><ele>7.0</ele><time>2026-04-30T15:01:59.7Z</time></trkpt><trkpt lat="40.2722906" lon="8.4846331"><ele>9.6</ele><time>2026-04-30T15:02:00.696Z</time></trkpt><trkpt lat="40.272257" lon="8.4847452"><ele>12.2</ele><time>2026-04-30T15:02:01.697Z</time></trkpt><trkpt lat="40.2722342" lon="8.4848773"><ele>14.8</ele><time>2026-04-30T15:02:02.697Z</time></trkpt><trkpt lat="40.2722232" lon="8.485032"><ele>17.4</ele><time>2026-04-30T15:02:03.698Z</time></trkpt><trkpt lat="40.2722278" lon="8.4852027"><ele>20.0</ele><time>2026-04-30T15:02:04.695Z</time></trkpt><trkpt lat="40.2722435" lon="8.4853875"><ele>22.666666666666668</ele><time>2026-04-30T15:02:05.697Z</time></trkpt><trkpt lat="40.2722719" lon="8.4855794"><ele>25.333333333333336</ele><time>2026-04-30T15:02:06.703Z</time></trkpt><trkpt lat="40.2723119" lon="8.4857729"><ele>28.0</ele><time>2026-04-30T15:02:07.698Z</time></trkpt><trkpt lat="40.2723642" lon="8.485966"><ele>24.333333333333336</ele><time>2026-04-30T15:02:08.7Z</time></trkpt><trkpt lat="40.2724209" lon="8.4861623"><ele>20.666666666666668</ele><time>2026-04-30T15:02:09.698Z</time></trkpt><trkpt lat="40.2724762" lon="8.4863493"><ele>17.0</ele><time>2026-04-30T15:02:10.694Z</time></trkpt><trkpt lat="40.272531" lon="8.4865158"><ele>17.0</ele><time>2026-04-30T15:02:11.699Z</time></trkpt><trkpt lat="40.2725931" lon="8.4866563"><ele>17.0</ele><time>2026-04-30T15:02:12.7Z</time></trkpt><trkpt lat="40.2726605" lon="8.4867755"><ele>17.0</ele><time>2026-04-30T15:02:13.699Z</time></trkpt><trkpt lat="40.2727231" lon="8.48687"><ele>17.0</ele><time>2026-04-30T15:02:14.7Z</time></trkpt><trkpt lat="40.2727674" lon="8.486962"><ele>17.0</ele><time>2026-04-30T15:02:15.697Z</time></trkpt><trkpt lat="40.2727761" lon="8.4870549"><ele>19.333333333333336</ele><time>2026-04-30T15:02:16.702Z</time></trkpt><trkpt lat="40.2727608" lon="8.4871359"><ele>21.666666666666668</ele><time>2026-04-30T15:02:17.701Z</time></trkpt><trkpt lat="40.2727218" lon="8.4872015"><ele>24.0</ele><time>2026-04-30T15:02:18.699Z</time></trkpt><trkpt lat="40.272658" lon="8.4872439"><ele>26.333333333333336</ele><time>2026-04-30T15:02:19.699Z</time></trkpt><trkpt lat="40.2725707" lon="8.4872725"><ele>28.666666666666668</ele><time>2026-04-30T15:02:20.696Z</time></trkpt><trkpt lat="40.2724793" lon="8.4872714"><ele>31.0</ele><time>2026-04-30T15:02:21.701Z</time></trkpt><trkpt lat="40.2723928" lon="8.4872282"><ele>31.0</ele><time>2026-04-30T15:02:22.704Z</time></trkpt><trkpt lat="40.272326" lon="8.4871466"><ele>31.0</ele><time>2026-04-30T15:02:23.701Z</time></trkpt><trkpt lat="40.2722871" lon="8.4870335"><ele>31.0</ele><time>2026-04-30T15:02:24.697Z</time></trkpt><trkpt lat="40.2722786" lon="8.4869051"><ele>31.0</ele><time>2026-04-30T15:02:25.699Z</time></trkpt><trkpt lat="40.2722655" lon="8.4867747"><ele>31.0</ele><time>2026-04-30T15:02:26.697Z</time></trkpt><trkpt lat="40.2722161" lon="8.4866463"><ele>30.25</ele><time>2026-04-30T15:02:27.706Z</time></trkpt><trkpt lat="40.2721392" lon="8.4865187"><ele>29.5</ele><time>2026-04-30T15:02:28.698Z</time></trkpt><trkpt lat="40.2720429" lon="8.4863941"><ele>28.75</ele><time>2026-04-30T15:02:29.697Z</time></trkpt><trkpt lat="40.2719446" lon="8.4862631"><ele>28.0</ele><time>2026-04-30T15:02:30.697Z</time></trkpt><trkpt lat="40.2718513" lon="8.4861246"><ele>28.0</ele><time>2026-04-30T15:02:31.698Z</time></trkpt><trkpt lat="40.2717686" lon="8.4859806"><ele>28.0</ele><time>2026-04-30T15:02:32.7Z</time></trkpt><trkpt lat="40.2716904" lon="8.485836"><ele>28.0</ele><time>2026-04-30T15:02:33.7Z</time></trkpt><trkpt lat="40.2716133" lon="8.4856962"><ele>28.0</ele><time>2026-04-30T15:02:34.7Z</time></trkpt><trkpt lat="40.2715313" lon="8.4855605"><ele>32.0</ele><time>2026-04-30T15:02:35.7Z</time></trkpt><trkpt lat="40.2714385" lon="8.4854355"><ele>36.0</ele><time>2026-04-30T15:02:36.697Z</time></trkpt><trkpt lat="40.2713364" lon="8.4853222"><ele>40.0</ele><time>2026-04-30T15:02:37.7Z</time></trkpt><trkpt lat="40.2712278" lon="8.4852161"><ele>44.0</ele><time>2026-04-30T15:02:38.697Z</time></trkpt><trkpt lat="40.2711127" lon="8.4851188"><ele>44.0</ele><time>2026-04-30T15:02:39.699Z</time></trkpt><trkpt lat="40.2709973" lon="8.4850276"><ele>44.0</ele><time>2026-04-30T15:02:40.696Z</time></trkpt><trkpt lat="40.2708792" lon="8.4849434"><ele>44.0</ele><time>2026-04-30T15:02:41.696Z</time></trkpt><trkpt lat="40.2707599" lon="8.4848637"><ele>44.0</ele><time>2026-04-30T15:02:42.695Z</time></trkpt><trkpt lat="40.2706384" lon="8.4847795"><ele>46.5</ele><time>2026-04-30T15:02:43.698Z</time></trkpt><trkpt lat="40.2705221" lon="8.4846831"><ele>49.0</ele><time>2026-04-30T15:02:44.693Z</time></trkpt><trkpt lat="40.270415" lon="8.4845704"><ele>51.5</ele><time>2026-04-30T15:02:45.693Z</time></trkpt><trkpt lat="40.2703194" lon="8.4844423"><ele>54.0</ele><time>2026-04-30T15:02:46.696Z</time></trkpt><trkpt lat="40.2702252" lon="8.4843104"><ele>54.0</ele><time>2026-04-30T15:02:47.696Z</time></trkpt><trkpt lat="40.2701282" lon="8.4841772"><ele>54.0</ele><time>2026-04-30T15:02:48.698Z</time></trkpt><trkpt lat="40.2700395" lon="8.4840538"><ele>54.0</ele><time>2026-04-30T15:02:49.694Z</time></trkpt><trkpt lat="40.2699528" lon="8.4839447"><ele>54.0</ele><time>2026-04-30T15:02:50.695Z</time></trkpt><trkpt lat="40.2698486" lon="8.4838774"><ele>57.5</ele><time>2026-04-30T15:02:51.695Z</time></trkpt><trkpt lat="40.2697372" lon="8.4838493"><ele>61.0</ele><time>2026-04-30T15:02:52.7Z</time></trkpt><trkpt lat="40.2696248" lon="8.4838718"><ele>64.5</ele><time>2026-04-30T15:02:53.695Z</time></trkpt><trkpt lat="40.2695192" lon="8.4839379"><ele>68.0</ele><time>2026-04-30T15:02:54.698Z</time></trkpt><trkpt lat="40.2694155" lon="8.4840375"><ele>68.0</ele><time>2026-04-30T15:02:55.696Z</time></trkpt><trkpt lat="40.2693077" lon="8.4841516"><ele>68.0</ele><time>2026-04-30T15:02:56.696Z</time></trkpt><trkpt lat="40.2692097" lon="8.4842536"><ele>68.0</ele><time>2026-04-30T15:02:57.695Z</time></trkpt><trkpt lat="40.2691137" lon="8.4843552"><ele>68.0</ele><time>2026-04-30T15:02:58.693Z</time></trkpt><trkpt lat="40.2690167" lon="8.484457"><ele>67.6</ele><time>2026-04-30T15:02:59.695Z</time></trkpt><trkpt lat="40.2689219" lon="8.4845561"><ele>67.19999999999999</ele><time>2026-04-30T15:03:00.694Z</time></trkpt><trkpt lat="40.2688374" lon="8.4846462"><ele>66.8</ele><time>2026-04-30T15:03:01.698Z</time></trkpt><trkpt lat="40.2687559" lon="8.4847378"><ele>66.39999999999999</ele><time>2026-04-30T15:03:02.701Z</time></trkpt><trkpt lat="40.268681" lon="8.4848337"><ele>66.0</ele><time>2026-04-30T15:03:03.694Z</time></trkpt><trkpt lat="40.2686258" lon="8.484946"><ele>66.0</ele><time>2026-04-30T15:03:04.694Z</time></trkpt><trkpt lat="40.2685973" lon="8.4850811"><ele>66.0</ele><time>2026-04-30T15:03:05.698Z</time></trkpt><trkpt lat="40.2685822" lon="8.4852335"><ele>66.0</ele><time>2026-04-30T15:03:06.697Z</time></trkpt><trkpt lat="40.2685684" lon="8.4853997"><ele>66.0</ele><time>2026-04-30T15:03:07.696Z</time></trkpt><trkpt lat="40.2685561" lon="8.4855716"><ele>66.75</ele><time>2026-04-30T15:03:08.699Z</time></trkpt><trkpt lat="40.2685368" lon="8.4857497"><ele>67.5</ele><time>2026-04-30T15:03:09.7Z</time></trkpt><trkpt lat="40.2685047" lon="8.4859256"><ele>68.25</ele><time>2026-04-30T15:03:10.7Z</time></trkpt><trkpt lat="40.2684547" lon="8.4860926"><ele>69.0</ele><time>2026-04-30T15:03:11.697Z</time></trkpt><trkpt lat="40.2683894" lon="8.4862525"><ele>69.75</ele><time>2026-04-30T15:03:12.7Z</time></trkpt><trkpt lat="40.2683186" lon="8.4863994"><ele>70.5</ele><time>2026-04-30T15:03:13.699Z</time></trkpt><trkpt lat="40.2682472" lon="8.4865368"><ele>71.25</ele><time>2026-04-30T15:03:14.7Z</time></trkpt><trkpt lat="40.2681752" lon="8.4866813"><ele>72.0</ele><time>2026-04-30T15:03:15.699Z</time></trkpt><trkpt lat="40.2681003" lon="8.4868238"><ele>72.0</ele><time>2026-04-30T15:03:16.701Z</time></trkpt><trkpt lat="40.2680236" lon="8.4869631"><ele>72.0</ele><time>2026-04-30T15:03:17.698Z</time></trkpt><trkpt lat="40.2679462" lon="8.4871063"><ele>72.0</ele><time>2026-04-30T15:03:18.696Z</time></trkpt><trkpt lat="40.2678812" lon="8.4872476"><ele>72.0</ele><time>2026-04-30T15:03:19.701Z</time></trkpt><trkpt lat="40.2678354" lon="8.4873909"><ele>72.75</ele><time>2026-04-30T15:03:20.706Z</time></trkpt><trkpt lat="40.2678161" lon="8.4875467"><ele>73.5</ele><time>2026-04-30T15:03:21.7Z</time></trkpt><trkpt lat="40.2678147" lon="8.4877134"><ele>74.25</ele><time>2026-04-30T15:03:22.697Z</time></trkpt><trkpt lat="40.2678202" lon="8.4878908"><ele>75.0</ele><time>2026-04-30T15:03:23.693Z</time></trkpt><trkpt lat="40.2678288" lon="8.4880754"><ele>76.5</ele><time>2026-04-30T15:03:24.695Z</time></trkpt><trkpt lat="40.2678359" lon="8.4882688"><ele>78.0</ele><time>2026-04-30T15:03:25.697Z</time></trkpt><trkpt lat="40.2678408" lon="8.4884579"><ele>79.5</ele><time>2026-04-30T15:03:26.697Z</time></trkpt><trkpt lat="40.2678469" lon="8.488626"><ele>81.0</ele><time>2026-04-30T15:03:27.698Z</time></trkpt><trkpt lat="40.2678516" lon="8.4887638"><ele>81.5</ele><time>2026-04-30T15:03:28.703Z</time></trkpt><trkpt lat="40.2678553" lon="8.4888812"><ele>82.0</ele><time>2026-04-30T15:03:29.702Z</time></trkpt><trkpt lat="40.2678564" lon="8.4889994"><ele>82.5</ele><time>2026-04-30T15:03:30.696Z</time></trkpt><trkpt lat="40.2678573" lon="8.4891081"><ele>83.0</ele><time>2026-04-30T15:03:31.695Z</time></trkpt><trkpt lat="40.2678576" lon="8.4892218"><ele>83.5</ele><time>2026-04-30T15:03:32.698Z</time></trkpt><trkpt lat="40.2678545" lon="8.4893453"><ele>84.0</ele><time>2026-04-30T15:03:33.697Z</time></trkpt><trkpt lat="40.2678528" lon="8.4894794"><ele>85.0</ele><time>2026-04-30T15:03:34.701Z</time></trkpt><trkpt lat="40.2678489" lon="8.489625"><ele>86.0</ele><time>2026-04-30T15:03:35.699Z</time></trkpt><trkpt lat="40.267839" lon="8.4897802"><ele>87.0</ele><time>2026-04-30T15:03:36.706Z</time></trkpt><trkpt lat="40.2678173" lon="8.4899403"><ele>88.0</ele><time>2026-04-30T15:03:37.697Z</time></trkpt><trkpt lat="40.2677797" lon="8.4900992"><ele>88.0</ele><time>2026-04-30T15:03:38.698Z</time></trkpt><trkpt lat="40.2677264" lon="8.4902602"><ele>88.0</ele><time>2026-04-30T15:03:39.704Z</time></trkpt><trkpt lat="40.2676602" lon="8.490425"><ele>88.0</ele><time>2026-04-30T15:03:40.699Z</time></trkpt><trkpt lat="40.2675876" lon="8.4905901"><ele>88.0</ele><time>2026-04-30T15:03:41.697Z</time></trkpt><trkpt lat="40.2675096" lon="8.4907589"><ele>89.33333333333333</ele><time>2026-04-30T15:03:42.698Z</time></trkpt><trkpt lat="40.2674298" lon="8.4909358"><ele>90.66666666666667</ele><time>2026-04-30T15:03:43.698Z</time></trkpt><trkpt lat="40.2673595" lon="8.4911247"><ele>92.0</ele><time>2026-04-30T15:03:44.704Z</time></trkpt><trkpt lat="40.2673027" lon="8.4913315"><ele>95.0</ele><time>2026-04-30T15:03:45.696Z</time></trkpt><trkpt lat="40.2672572" lon="8.4915457"><ele>98.0</ele><time>2026-04-30T15:03:46.699Z</time></trkpt><trkpt lat="40.2672104" lon="8.4917614"><ele>101.0</ele><time>2026-04-30T15:03:47.695Z</time></trkpt><trkpt lat="40.2671586" lon="8.4919738"><ele>102.33333333333333</ele><time>2026-04-30T15:03:48.696Z</time></trkpt><trkpt lat="40.2671003" lon="8.4921824"><ele>103.66666666666666</ele><time>2026-04-30T15:03:49.697Z</time></trkpt><trkpt lat="40.2670357" lon="8.4923832"><ele>105.0</ele><time>2026-04-30T15:03:50.701Z</time></trkpt><trkpt lat="40.2669625" lon="8.4925764"><ele>105.0</ele><time>2026-04-30T15:03:51.696Z</time></trkpt><trkpt lat="40.266883" lon="8.4927651"><ele>105.0</ele><time>2026-04-30T15:03:52.706Z</time></trkpt><trkpt lat="40.2667983" lon="8.4929452"><ele>105.0</ele><time>2026-04-30T15:03:53.701Z</time></trkpt><trkpt lat="40.266708" lon="8.4931189"><ele>107.66666666666666</ele><time>2026-04-30T15:03:54.698Z</time></trkpt><trkpt lat="40.2666149" lon="8.4932881"><ele>110.33333333333333</ele><time>2026-04-30T15:03:55.7Z</time></trkpt><trkpt lat="40.2665195" lon="8.4934562"><ele>113.0</ele><time>2026-04-30T15:03:56.7Z</time></trkpt><trkpt lat="40.2664288" lon="8.493618"><ele>114.75</ele><time>2026-04-30T15:03:57.7Z</time></trkpt><trkpt lat="40.2663487" lon="8.4937719"><ele>116.5</ele><time>2026-04-30T15:03:58.702Z</time></trkpt><trkpt lat="40.2662753" lon="8.4939285"><ele>118.25</ele><time>2026-04-30T15:03:59.7Z</time></trkpt><trkpt lat="40.2662124" lon="8.4940885"><ele>120.0</ele><time>2026-04-30T15:04:00.699Z</time></trkpt><trkpt lat="40.266156" lon="8.4942501"><ele>120.0</ele><time>2026-04-30T15:04:01.7Z</time></trkpt><trkpt lat="40.2661019" lon="8.4944122"><ele>120.0</ele><time>2026-04-30T15:04:02.695Z</time></trkpt><trkpt lat="40.2660397" lon="8.4945653"><ele>120.0</ele><time>2026-04-30T15:04:03.701Z</time></trkpt><trkpt lat="40.2659612" lon="8.4947069"><ele>120.0</ele><time>2026-04-30T15:04:04.697Z</time></trkpt><trkpt lat="40.2658666" lon="8.4948414"><ele>122.66666666666666</ele><time>2026-04-30T15:04:05.698Z</time></trkpt><trkpt lat="40.265758" lon="8.4949749"><ele>125.33333333333333</ele><time>2026-04-30T15:04:06.7Z</time></trkpt><trkpt lat="40.2656404" lon="8.4951117"><ele>128.0</ele><time>2026-04-30T15:04:07.698Z</time></trkpt><trkpt lat="40.2655164" lon="8.4952587"><ele>129.66666666666666</ele><time>2026-04-30T15:04:08.701Z</time></trkpt><trkpt lat="40.2653912" lon="8.4954093"><ele>131.33333333333334</ele><time>2026-04-30T15:04:09.698Z</time></trkpt><trkpt lat="40.2652685" lon="8.495565"><ele>133.0</ele><time>2026-04-30T15:04:10.695Z</time></trkpt><trkpt lat="40.2651502" lon="8.4957334"><ele>135.0</ele><time>2026-04-30T15:04:11.701Z</time></trkpt><trkpt lat="40.2650347" lon="8.4959103"><ele>137.0</ele><time>2026-04-30T15:04:12.701Z</time></trkpt><trkpt lat="40.2649198" lon="8.4960854"><ele>139.0</ele><time>2026-04-30T15:04:13.695Z</time></trkpt><trkpt lat="40.26481" lon="8.4962336"><ele>141.0</ele><time>2026-04-30T15:04:14.695Z</time></trkpt><trkpt lat="40.2647091" lon="8.4963605"><ele>143.0</ele><time>2026-04-30T15:04:15.699Z</time></trkpt><trkpt lat="40.2646188" lon="8.4964651"><ele>145.0</ele><time>2026-04-30T15:04:16.701Z</time></trkpt><trkpt lat="40.2645375" lon="8.4965644"><ele>147.0</ele><time>2026-04-30T15:04:17.7Z</time></trkpt><trkpt lat="40.2644617" lon="8.496668"><ele>147.0</ele><time>2026-04-30T15:04:18.698Z</time></trkpt><trkpt lat="40.2643895" lon="8.4967825"><ele>147.0</ele><time>2026-04-30T15:04:19.696Z</time></trkpt><trkpt lat="40.2643245" lon="8.4969032"><ele>147.0</ele><time>2026-04-30T15:04:20.694Z</time></trkpt><trkpt lat="40.2642645" lon="8.4970269"><ele>147.0</ele><time>2026-04-30T15:04:21.701Z</time></trkpt><trkpt lat="40.264209" lon="8.4971529"><ele>147.0</ele><time>2026-04-30T15:04:22.698Z</time></trkpt><trkpt lat="40.2641559" lon="8.4972905"><ele>149.25</ele><time>2026-04-30T15:04:23.699Z</time></trkpt><trkpt lat="40.264109" lon="8.4974401"><ele>151.5</ele><time>2026-04-30T15:04:24.701Z</time></trkpt><trkpt lat="40.2640614" lon="8.4975982"><ele>153.75</ele><time>2026-04-30T15:04:25.696Z</time></trkpt><trkpt lat="40.2640146" lon="8.4977659"><ele>156.0</ele><time>2026-04-30T15:04:26.699Z</time></trkpt><trkpt lat="40.2639699" lon="8.4979325"><ele>158.5</ele><time>2026-04-30T15:04:27.699Z</time></trkpt><trkpt lat="40.2639252" lon="8.4981028"><ele>161.0</ele><time>2026-04-30T15:04:28.706Z</time></trkpt><trkpt lat="40.2638784" lon="8.4982734"><ele>163.5</ele><time>2026-04-30T15:04:29.699Z</time></trkpt><trkpt lat="40.2638269" lon="8.4984452"><ele>166.0</ele><time>2026-04-30T15:04:30.698Z</time></trkpt><trkpt lat="40.2637695" lon="8.4986041"><ele>167.0</ele><time>2026-04-30T15:04:31.701Z</time></trkpt><trkpt lat="40.2637074" lon="8.498752"><ele>168.0</ele><time>2026-04-30T15:04:32.695Z</time></trkpt><trkpt lat="40.2636418" lon="8.4989026"><ele>169.0</ele><time>2026-04-30T15:04:33.699Z</time></trkpt><trkpt lat="40.2635743" lon="8.4990519"><ele>170.0</ele><time>2026-04-30T15:04:34.702Z</time></trkpt><trkpt lat="40.2634977" lon="8.4991961"><ele>170.0</ele><time>2026-04-30T15:04:35.704Z</time></trkpt><trkpt lat="40.2634121" lon="8.4993283"><ele>170.0</ele><time>2026-04-30T15:04:36.701Z</time></trkpt><trkpt lat="40.2633168" lon="8.4994516"><ele>170.0</ele><time>2026-04-30T15:04:37.699Z</time></trkpt><trkpt lat="40.2632144" lon="8.4995738"><ele>170.0</ele><time>2026-04-30T15:04:38.701Z</time></trkpt><trkpt lat="40.263106" lon="8.4997"><ele>174.0</ele><time>2026-04-30T15:04:39.696Z</time></trkpt><trkpt lat="40.262982" lon="8.4998459"><ele>178.0</ele><time>2026-04-30T15:04:40.701Z</time></trkpt><trkpt lat="40.2628426" lon="8.5000066"><ele>182.0</ele><time>2026-04-30T15:04:41.698Z</time></trkpt><trkpt lat="40.2626938" lon="8.5001645"><ele>182.0</ele><time>2026-04-30T15:04:42.693Z</time></trkpt><trkpt lat="40.2625479" lon="8.5002989"><ele>182.0</ele><time>2026-04-30T15:04:43.697Z</time></trkpt><trkpt lat="40.2623935" lon="8.5004247"><ele>182.0</ele><time>2026-04-30T15:04:44.696Z</time></trkpt><trkpt lat="40.2622593" lon="8.5005437"><ele>181.75</ele><time>2026-04-30T15:04:45.7Z</time></trkpt><trkpt lat="40.2621543" lon="8.500679"><ele>181.5</ele><time>2026-04-30T15:04:46.695Z</time></trkpt><trkpt lat="40.262071" lon="8.5008291"><ele>181.25</ele><time>2026-04-30T15:04:47.702Z</time></trkpt><trkpt lat="40.2619928" lon="8.5010096"><ele>181.0</ele><time>2026-04-30T15:04:48.697Z</time></trkpt><trkpt lat="40.2619117" lon="8.5012106"><ele>181.33333333333334</ele><time>2026-04-30T15:04:49.696Z</time></trkpt><trkpt lat="40.2618442" lon="8.501405"><ele>181.66666666666666</ele><time>2026-04-30T15:04:50.702Z</time></trkpt><trkpt lat="40.2617938" lon="8.5016182"><ele>182.0</ele><time>2026-04-30T15:04:51.701Z</time></trkpt><trkpt lat="40.261757" lon="8.5018496"><ele>181.66666666666666</ele><time>2026-04-30T15:04:52.7Z</time></trkpt><trkpt lat="40.2617278" lon="8.5020962"><ele>181.33333333333334</ele><time>2026-04-30T15:04:53.698Z</time></trkpt><trkpt lat="40.2617084" lon="8.5023513"><ele>181.0</ele><time>2026-04-30T15:04:54.698Z</time></trkpt><trkpt lat="40.2616916" lon="8.5026134"><ele>181.0</ele><time>2026-04-30T15:04:55.702Z</time></trkpt><trkpt lat="40.2616724" lon="8.5028792"><ele>181.0</ele><time>2026-04-30T15:04:56.7Z</time></trkpt><trkpt lat="40.2616569" lon="8.5031322"><ele>181.0</ele><time>2026-04-30T15:04:57.699Z</time></trkpt><trkpt lat="40.2616539" lon="8.5033885"><ele>181.0</ele><time>2026-04-30T15:04:58.699Z</time></trkpt><trkpt lat="40.2616586" lon="8.5036514"><ele>181.0</ele><time>2026-04-30T15:04:59.701Z</time></trkpt><trkpt lat="40.2616609" lon="8.5039224"><ele>181.0</ele><time>2026-04-30T15:05:00.7Z</time></trkpt><trkpt lat="40.2616635" lon="8.5042014"><ele>179.33333333333334</ele><time>2026-04-30T15:05:01.698Z</time></trkpt><trkpt lat="40.2616655" lon="8.5044866"><ele>177.66666666666666</ele><time>2026-04-30T15:05:02.697Z</time></trkpt><trkpt lat="40.2616621" lon="8.5047747"><ele>176.0</ele><time>2026-04-30T15:05:03.701Z</time></trkpt><trkpt lat="40.261651" lon="8.5050505"><ele>175.66666666666666</ele><time>2026-04-30T15:05:04.699Z</time></trkpt><trkpt lat="40.2616339" lon="8.5053195"><ele>175.33333333333334</ele><time>2026-04-30T15:05:05.7Z</time></trkpt><trkpt lat="40.2616155" lon="8.5055808"><ele>175.0</ele><time>2026-04-30T15:05:06.701Z</time></trkpt><trkpt lat="40.2615959" lon="8.5058335"><ele>174.0</ele><time>2026-04-30T15:05:07.696Z</time></trkpt><trkpt lat="40.2615717" lon="8.5060786"><ele>173.0</ele><time>2026-04-30T15:05:08.7Z</time></trkpt><trkpt lat="40.2615296" lon="8.5063134"><ele>172.0</ele><time>2026-04-30T15:05:09.699Z</time></trkpt><trkpt lat="40.2614655" lon="8.5065424"><ele>171.66666666666669</ele><time>2026-04-30T15:05:10.703Z</time></trkpt><trkpt lat="40.2613882" lon="8.5067723"><ele>171.33333333333334</ele><time>2026-04-30T15:05:11.699Z</time></trkpt><trkpt lat="40.2613008" lon="8.5070017"><ele>171.0</ele><time>2026-04-30T15:05:12.698Z</time></trkpt><trkpt lat="40.2612" lon="8.5072249"><ele>171.0</ele><time>2026-04-30T15:05:13.698Z</time></trkpt><trkpt lat="40.2610971" lon="8.5074365"><ele>171.0</ele><time>2026-04-30T15:05:14.694Z</time></trkpt><trkpt lat="40.2609926" lon="8.5076323"><ele>171.0</ele><time>2026-04-30T15:05:15.698Z</time></trkpt><trkpt lat="40.2608946" lon="8.5078117"><ele>172.25</ele><time>2026-04-30T15:05:16.699Z</time></trkpt><trkpt lat="40.2607991" lon="8.5079692"><ele>173.5</ele><time>2026-04-30T15:05:17.7Z</time></trkpt><trkpt lat="40.2606899" lon="8.5080905"><ele>174.75</ele><time>2026-04-30T15:05:18.703Z</time></trkpt><trkpt lat="40.2605638" lon="8.5081873"><ele>176.0</ele><time>2026-04-30T15:05:19.699Z</time></trkpt><trkpt lat="40.2604212" lon="8.5082742"><ele>176.5</ele><time>2026-04-30T15:05:20.7Z</time></trkpt><trkpt lat="40.2602814" lon="8.5083476"><ele>177.0</ele><time>2026-04-30T15:05:21.698Z</time></trkpt><trkpt lat="40.2601476" lon="8.508416"><ele>177.5</ele><time>2026-04-30T15:05:22.695Z</time></trkpt><trkpt lat="40.2600232" lon="8.5084853"><ele>178.0</ele><time>2026-04-30T15:05:23.699Z</time></trkpt><trkpt lat="40.2599098" lon="8.5085558"><ele>178.0</ele><time>2026-04-30T15:05:24.696Z</time></trkpt><trkpt lat="40.259812" lon="8.5086267"><ele>178.0</ele><time>2026-04-30T15:05:25.696Z</time></trkpt><trkpt lat="40.2597229" lon="8.508712"><ele>178.0</ele><time>2026-04-30T15:05:26.696Z</time></trkpt><trkpt lat="40.2596533" lon="8.5088109"><ele>178.0</ele><time>2026-04-30T15:05:27.699Z</time></trkpt><trkpt lat="40.2595975" lon="8.5089129"><ele>178.0</ele><time>2026-04-30T15:05:28.7Z</time></trkpt><trkpt lat="40.2595488" lon="8.5090083"><ele>179.0</ele><time>2026-04-30T15:05:29.699Z</time></trkpt><trkpt lat="40.2595021" lon="8.5090968"><ele>180.0</ele><time>2026-04-30T15:05:30.701Z</time></trkpt><trkpt lat="40.2594545" lon="8.5091955"><ele>181.0</ele><time>2026-04-30T15:05:31.701Z</time></trkpt><trkpt lat="40.259414" lon="8.5093135"><ele>182.0</ele><time>2026-04-30T15:05:32.7Z</time></trkpt><trkpt lat="40.259381" lon="8.5094463"><ele>183.0</ele><time>2026-04-30T15:05:33.696Z</time></trkpt><trkpt lat="40.2593548" lon="8.5095965"><ele>183.75</ele><time>2026-04-30T15:05:34.698Z</time></trkpt><trkpt lat="40.2593301" lon="8.5097643"><ele>184.5</ele><time>2026-04-30T15:05:35.696Z</time></trkpt><trkpt lat="40.2593031" lon="8.5099434"><ele>185.25</ele><time>2026-04-30T15:05:36.697Z</time></trkpt><trkpt lat="40.2592721" lon="8.5101292"><ele>186.0</ele><time>2026-04-30T15:05:37.7Z</time></trkpt><trkpt lat="40.2592368" lon="8.51032"><ele>187.66666666666666</ele><time>2026-04-30T15:05:38.7Z</time></trkpt><trkpt lat="40.2591982" lon="8.510518"><ele>189.33333333333331</ele><time>2026-04-30T15:05:39.698Z</time></trkpt><trkpt lat="40.2591604" lon="8.5107152"><ele>191.0</ele><time>2026-04-30T15:05:40.697Z</time></trkpt><trkpt lat="40.2591241" lon="8.5109101"><ele>191.0</ele><time>2026-04-30T15:05:41.697Z</time></trkpt><trkpt lat="40.259088" lon="8.511101"><ele>191.0</ele><time>2026-04-30T15:05:42.696Z</time></trkpt><trkpt lat="40.2590537" lon="8.5112868"><ele>191.0</ele><time>2026-04-30T15:05:43.698Z</time></trkpt><trkpt lat="40.2590228" lon="8.5114531"><ele>191.0</ele><time>2026-04-30T15:05:44.694Z</time></trkpt><trkpt lat="40.2589938" lon="8.5116174"><ele>194.0</ele><time>2026-04-30T15:05:45.701Z</time></trkpt><trkpt lat="40.2589696" lon="8.5117796"><ele>197.0</ele><time>2026-04-30T15:05:46.697Z</time></trkpt><trkpt lat="40.2589583" lon="8.5119404"><ele>200.0</ele><time>2026-04-30T15:05:47.698Z</time></trkpt><trkpt lat="40.2589709" lon="8.5121"><ele>203.0</ele><time>2026-04-30T15:05:48.7Z</time></trkpt><trkpt lat="40.2590068" lon="8.5122518"><ele>203.0</ele><time>2026-04-30T15:05:49.7Z</time></trkpt><trkpt lat="40.259072" lon="8.5123973"><ele>203.0</ele><time>2026-04-30T15:05:50.694Z</time></trkpt><trkpt lat="40.2591543" lon="8.5125364"><ele>203.0</ele><time>2026-04-30T15:05:51.702Z</time></trkpt><trkpt lat="40.259238" lon="8.5126826"><ele>203.0</ele><time>2026-04-30T15:05:52.696Z</time></trkpt><trkpt lat="40.2593013" lon="8.512844"><ele>201.33333333333334</ele><time>2026-04-30T15:05:53.698Z</time></trkpt><trkpt lat="40.2593479" lon="8.5130215"><ele>199.66666666666669</ele><time>2026-04-30T15:05:54.698Z</time></trkpt><trkpt lat="40.2593817" lon="8.5132159"><ele>198.0</ele><time>2026-04-30T15:05:55.694Z</time></trkpt><trkpt lat="40.2594065" lon="8.5134211"><ele>198.0</ele><time>2026-04-30T15:05:56.698Z</time></trkpt><trkpt lat="40.2594288" lon="8.5136205"><ele>198.0</ele><time>2026-04-30T15:05:57.7Z</time></trkpt><trkpt lat="40.2594543" lon="8.5138147"><ele>198.0</ele><time>2026-04-30T15:05:58.694Z</time></trkpt><trkpt lat="40.2594925" lon="8.5140041"><ele>197.5</ele><time>2026-04-30T15:05:59.699Z</time></trkpt><trkpt lat="40.2595513" lon="8.5141871"><ele>197.0</ele><time>2026-04-30T15:06:00.704Z</time></trkpt><trkpt lat="40.2596293" lon="8.5143478"><ele>196.5</ele><time>2026-04-30T15:06:01.699Z</time></trkpt><trkpt lat="40.2597274" lon="8.5144988"><ele>196.0</ele><time>2026-04-30T15:06:02.693Z</time></trkpt><trkpt lat="40.2598359" lon="8.5146427"><ele>195.33333333333331</ele><time>2026-04-30T15:06:03.698Z</time></trkpt><trkpt lat="40.2599434" lon="8.514794"><ele>194.66666666666669</ele><time>2026-04-30T15:06:04.699Z</time></trkpt><trkpt lat="40.2600435" lon="8.5149558"><ele>194.0</ele><time>2026-04-30T15:06:05.696Z</time></trkpt><trkpt lat="40.2601389" lon="8.5151284"><ele>194.0</ele><time>2026-04-30T15:06:06.697Z</time></trkpt><trkpt lat="40.2602333" lon="8.5153078"><ele>194.0</ele><time>2026-04-30T15:06:07.698Z</time></trkpt><trkpt lat="40.2603287" lon="8.5154912"><ele>194.0</ele><time>2026-04-30T15:06:08.698Z</time></trkpt><trkpt lat="40.2604238" lon="8.5156743"><ele>193.5</ele><time>2026-04-30T15:06:09.697Z</time></trkpt><trkpt lat="40.2605153" lon="8.51585"><ele>193.0</ele><time>2026-04-30T15:06:10.699Z</time></trkpt><trkpt lat="40.2605939" lon="8.5160067"><ele>192.5</ele><time>2026-04-30T15:06:11.702Z</time></trkpt><trkpt lat="40.2606536" lon="8.5161209"><ele>192.0</ele><time>2026-04-30T15:06:12.7Z</time></trkpt><trkpt lat="40.260701" lon="8.5162195"><ele>192.8</ele><time>2026-04-30T15:06:13.699Z</time></trkpt><trkpt lat="40.2607443" lon="8.5163134"><ele>193.6</ele><time>2026-04-30T15:06:14.698Z</time></trkpt><trkpt lat="40.2607817" lon="8.5164127"><ele>194.4</ele><time>2026-04-30T15:06:15.699Z</time></trkpt><trkpt lat="40.2608151" lon="8.5165257"><ele>195.20000000000002</ele><time>2026-04-30T15:06:16.702Z</time></trkpt><trkpt lat="40.260839" lon="8.5166522"><ele>196.0</ele><time>2026-04-30T15:06:17.7Z</time></trkpt><trkpt lat="40.2608481" lon="8.5167806"><ele>196.0</ele><time>2026-04-30T15:06:18.698Z</time></trkpt><trkpt lat="40.2608431" lon="8.516905"><ele>196.0</ele><time>2026-04-30T15:06:19.698Z</time></trkpt><trkpt lat="40.2608245" lon="8.5170339"><ele>196.0</ele><time>2026-04-30T15:06:20.702Z</time></trkpt><trkpt lat="40.2607947" lon="8.5171671"><ele>196.0</ele><time>2026-04-30T15:06:21.702Z</time></trkpt><trkpt lat="40.2607591" lon="8.5173087"><ele>196.0</ele><time>2026-04-30T15:06:22.697Z</time></trkpt><trkpt lat="40.2607239" lon="8.5174546"><ele>196.75</ele><time>2026-04-30T15:06:23.701Z</time></trkpt><trkpt lat="40.2607057" lon="8.5176151"><ele>197.5</ele><time>2026-04-30T15:06:24.704Z</time></trkpt><trkpt lat="40.2607064" lon="8.5177847"><ele>198.25</ele><time>2026-04-30T15:06:25.698Z</time></trkpt><trkpt lat="40.2607177" lon="8.5179655"><ele>199.0</ele><time>2026-04-30T15:06:26.698Z</time></trkpt><trkpt lat="40.2607412" lon="8.5181543"><ele>201.0</ele><time>2026-04-30T15:06:27.697Z</time></trkpt><trkpt lat="40.2607746" lon="8.51835"><ele>203.0</ele><time>2026-04-30T15:06:28.7Z</time></trkpt><trkpt lat="40.2608165" lon="8.5185512"><ele>205.0</ele><time>2026-04-30T15:06:29.697Z</time></trkpt><trkpt lat="40.2608672" lon="8.5187552"><ele>208.33333333333331</ele><time>2026-04-30T15:06:30.7Z</time></trkpt><trkpt lat="40.2609209" lon="8.5189581"><ele>211.66666666666669</ele><time>2026-04-30T15:06:31.699Z</time></trkpt><trkpt lat="40.2609738" lon="8.5191609"><ele>215.0</ele><time>2026-04-30T15:06:32.696Z</time></trkpt><trkpt lat="40.2610236" lon="8.5193642"><ele>217.66666666666669</ele><time>2026-04-30T15:06:33.7Z</time></trkpt><trkpt lat="40.2610695" lon="8.5195675"><ele>220.33333333333331</ele><time>2026-04-30T15:06:34.698Z</time></trkpt><trkpt lat="40.2611048" lon="8.5197733"><ele>223.0</ele><time>2026-04-30T15:06:35.698Z</time></trkpt><trkpt lat="40.2611262" lon="8.5199825"><ele>223.0</ele><time>2026-04-30T15:06:36.698Z</time></trkpt><trkpt lat="40.2611384" lon="8.5201914"><ele>223.0</ele><time>2026-04-30T15:06:37.7Z</time></trkpt><trkpt lat="40.2611416" lon="8.5204031"><ele>223.0</ele><time>2026-04-30T15:06:38.699Z</time></trkpt><trkpt lat="40.2611339" lon="8.5206171"><ele>223.33333333333331</ele><time>2026-04-30T15:06:39.7Z</time></trkpt><trkpt lat="40.2611201" lon="8.520833"><ele>223.66666666666669</ele><time>2026-04-30T15:06:40.706Z</time></trkpt><trkpt lat="40.261101" lon="8.5210537"><ele>224.0</ele><time>2026-04-30T15:06:41.7Z</time></trkpt><trkpt lat="40.2610769" lon="8.5212794"><ele>224.0</ele><time>2026-04-30T15:06:42.701Z</time></trkpt><trkpt lat="40.2610492" lon="8.5215092"><ele>224.0</ele><time>2026-04-30T15:06:43.696Z</time></trkpt><trkpt lat="40.261021" lon="8.5217446"><ele>224.0</ele><time>2026-04-30T15:06:44.699Z</time></trkpt><trkpt lat="40.260994" lon="8.5219841"><ele>224.66666666666669</ele><time>2026-04-30T15:06:45.699Z</time></trkpt><trkpt lat="40.2609671" lon="8.5222243"><ele>225.33333333333331</ele><time>2026-04-30T15:06:46.696Z</time></trkpt><trkpt lat="40.2609351" lon="8.5224631"><ele>226.0</ele><time>2026-04-30T15:06:47.7Z</time></trkpt><trkpt lat="40.2609029" lon="8.5227008"><ele>229.0</ele><time>2026-04-30T15:06:48.702Z</time></trkpt><trkpt lat="40.2608719" lon="8.5229418"><ele>232.0</ele><time>2026-04-30T15:06:49.698Z</time></trkpt><trkpt lat="40.2608475" lon="8.5231783"><ele>235.0</ele><time>2026-04-30T15:06:50.699Z</time></trkpt><trkpt lat="40.260837" lon="8.5234235"><ele>235.0</ele><time>2026-04-30T15:06:51.699Z</time></trkpt><trkpt lat="40.2608451" lon="8.5236556"><ele>235.0</ele><time>2026-04-30T15:06:52.695Z</time></trkpt><trkpt lat="40.2608741" lon="8.5238784"><ele>235.0</ele><time>2026-04-30T15:06:53.695Z</time></trkpt><trkpt lat="40.2609258" lon="8.5240895"><ele>237.33333333333331</ele><time>2026-04-30T15:06:54.697Z</time></trkpt><trkpt lat="40.2609975" lon="8.524287"><ele>239.66666666666669</ele><time>2026-04-30T15:06:55.696Z</time></trkpt><trkpt lat="40.2610902" lon="8.5244681"><ele>242.0</ele><time>2026-04-30T15:06:56.706Z</time></trkpt><trkpt lat="40.2611971" lon="8.5246355"><ele>241.66666666666669</ele><time>2026-04-30T15:06:57.7Z</time></trkpt><trkpt lat="40.261313" lon="8.5247961"><ele>241.33333333333331</ele><time>2026-04-30T15:06:58.701Z</time></trkpt><trkpt lat="40.2614259" lon="8.524949"><ele>241.0</ele><time>2026-04-30T15:06:59.703Z</time></trkpt><trkpt lat="40.2615286" lon="8.525093"><ele>241.0</ele><time>2026-04-30T15:07:00.704Z</time></trkpt><trkpt lat="40.2616212" lon="8.5252277"><ele>241.0</ele><time>2026-04-30T15:07:01.699Z</time></trkpt><trkpt lat="40.2617048" lon="8.5253523"><ele>241.0</ele><time>2026-04-30T15:07:02.699Z</time></trkpt><trkpt lat="40.2617784" lon="8.5254647"><ele>241.0</ele><time>2026-04-30T15:07:03.697Z</time></trkpt><trkpt lat="40.2618433" lon="8.5255715"><ele>242.83333333333331</ele><time>2026-04-30T15:07:04.703Z</time></trkpt><trkpt lat="40.2619008" lon="8.5256701"><ele>244.66666666666666</ele><time>2026-04-30T15:07:05.695Z</time></trkpt><trkpt lat="40.2619494" lon="8.525762"><ele>246.5</ele><time>2026-04-30T15:07:06.698Z</time></trkpt><trkpt lat="40.2619843" lon="8.5258493"><ele>248.33333333333331</ele><time>2026-04-30T15:07:07.7Z</time></trkpt><trkpt lat="40.2620064" lon="8.5259385"><ele>250.16666666666666</ele><time>2026-04-30T15:07:08.697Z</time></trkpt><trkpt lat="40.2620159" lon="8.5260313"><ele>252.0</ele><time>2026-04-30T15:07:09.7Z</time></trkpt><trkpt lat="40.2620151" lon="8.526124"><ele>252.0</ele><time>2026-04-30T15:07:10.698Z</time></trkpt><trkpt lat="40.2619971" lon="8.5262122"><ele>252.0</ele><time>2026-04-30T15:07:11.703Z</time></trkpt><trkpt lat="40.2619607" lon="8.5262877"><ele>252.0</ele><time>2026-04-30T15:07:12.7Z</time></trkpt><trkpt lat="40.2618616" lon="8.5263448"><ele>252.0</ele><time>2026-04-30T15:07:14.701Z</time></trkpt><trkpt lat="40.2617309" lon="8.5262865"><ele>252.0</ele><time>2026-04-30T15:07:16.699Z</time></trkpt><trkpt lat="40.2616418" lon="8.5262437"><ele>252.0</ele><time>2026-04-30T15:07:17.698Z</time></trkpt><trkpt lat="40.2615296" lon="8.5262017"><ele>252.0</ele><time>2026-04-30T15:07:18.7Z</time></trkpt><trkpt lat="40.2614028" lon="8.5261561"><ele>252.0</ele><time>2026-04-30T15:07:19.698Z</time></trkpt><trkpt lat="40.2612732" lon="8.5261089"><ele>252.0</ele><time>2026-04-30T15:07:20.696Z</time></trkpt><trkpt lat="40.2611387" lon="8.5260636"><ele>253.25</ele><time>2026-04-30T15:07:21.7Z</time></trkpt><trkpt lat="40.2610151" lon="8.5260199"><ele>254.5</ele><time>2026-04-30T15:07:22.695Z</time></trkpt><trkpt lat="40.2608893" lon="8.5259743"><ele>255.75</ele><time>2026-04-30T15:07:23.696Z</time></trkpt><trkpt lat="40.2607637" lon="8.5259297"><ele>257.0</ele><time>2026-04-30T15:07:24.702Z</time></trkpt><trkpt lat="40.2606392" lon="8.5258826"><ele>258.25</ele><time>2026-04-30T15:07:25.699Z</time></trkpt><trkpt lat="40.2605159" lon="8.5258344"><ele>259.5</ele><time>2026-04-30T15:07:26.695Z</time></trkpt><trkpt lat="40.2603901" lon="8.5257871"><ele>260.75</ele><time>2026-04-30T15:07:27.703Z</time></trkpt><trkpt lat="40.260264" lon="8.5257372"><ele>262.0</ele><time>2026-04-30T15:07:28.699Z</time></trkpt><trkpt lat="40.2601379" lon="8.5256889"><ele>262.0</ele><time>2026-04-30T15:07:29.7Z</time></trkpt><trkpt lat="40.2600303" lon="8.5256501"><ele>262.0</ele><time>2026-04-30T15:07:30.698Z</time></trkpt><trkpt lat="40.2599413" lon="8.5256188"><ele>262.0</ele><time>2026-04-30T15:07:31.699Z</time></trkpt><trkpt lat="40.2598666" lon="8.5255894"><ele>262.0</ele><time>2026-04-30T15:07:32.696Z</time></trkpt><trkpt lat="40.2597999" lon="8.5255637"><ele>262.0</ele><time>2026-04-30T15:07:33.699Z</time></trkpt><trkpt lat="40.259687" lon="8.525516"><ele>262.2</ele><time>2026-04-30T15:07:35.699Z</time></trkpt><trkpt lat="40.2596151" lon="8.5254892"><ele>262.4</ele><time>2026-04-30T15:07:37.699Z</time></trkpt><trkpt lat="40.2595217" lon="8.5254616"><ele>262.6</ele><time>2026-04-30T15:07:44.698Z</time></trkpt><trkpt lat="40.2593994" lon="8.5254124"><ele>262.8</ele><time>2026-04-30T15:07:46.701Z</time></trkpt><trkpt lat="40.2593024" lon="8.5253736"><ele>263.0</ele><time>2026-04-30T15:07:47.697Z</time></trkpt><trkpt lat="40.2591858" lon="8.5253282"><ele>262.75</ele><time>2026-04-30T15:07:48.701Z</time></trkpt><trkpt lat="40.2590661" lon="8.5252838"><ele>262.5</ele><time>2026-04-30T15:07:49.696Z</time></trkpt><trkpt lat="40.2589494" lon="8.5252411"><ele>262.25</ele><time>2026-04-30T15:07:50.698Z</time></trkpt><trkpt lat="40.2588289" lon="8.5252009"><ele>262.0</ele><time>2026-04-30T15:07:51.7Z</time></trkpt><trkpt lat="40.2587042" lon="8.5251602"><ele>262.0</ele><time>2026-04-30T15:07:52.697Z</time></trkpt><trkpt lat="40.2585741" lon="8.5251171"><ele>262.0</ele><time>2026-04-30T15:07:53.698Z</time></trkpt><trkpt lat="40.2584355" lon="8.5250748"><ele>262.0</ele><time>2026-04-30T15:07:54.7Z</time></trkpt><trkpt lat="40.2582939" lon="8.5250295"><ele>262.0</ele><time>2026-04-30T15:07:55.698Z</time></trkpt><trkpt lat="40.2581487" lon="8.5249829"><ele>262.75</ele><time>2026-04-30T15:07:56.695Z</time></trkpt><trkpt lat="40.2580077" lon="8.5249351"><ele>263.5</ele><time>2026-04-30T15:07:57.696Z</time></trkpt><trkpt lat="40.2578635" lon="8.5248837"><ele>264.25</ele><time>2026-04-30T15:07:58.699Z</time></trkpt><trkpt lat="40.2577167" lon="8.5248296"><ele>265.0</ele><time>2026-04-30T15:07:59.698Z</time></trkpt><trkpt lat="40.2575707" lon="8.524772"><ele>265.0</ele><time>2026-04-30T15:08:00.695Z</time></trkpt><trkpt lat="40.2574347" lon="8.5247091"><ele>265.0</ele><time>2026-04-30T15:08:01.696Z</time></trkpt><trkpt lat="40.257306" lon="8.5246383"><ele>265.0</ele><time>2026-04-30T15:08:02.697Z</time></trkpt><trkpt lat="40.2571826" lon="8.5245555"><ele>265.0</ele><time>2026-04-30T15:08:03.695Z</time></trkpt><trkpt lat="40.2570693" lon="8.5244569"><ele>265.0</ele><time>2026-04-30T15:08:04.695Z</time></trkpt><trkpt lat="40.2569654" lon="8.5243393"><ele>265.0</ele><time>2026-04-30T15:08:05.701Z</time></trkpt><trkpt lat="40.2568712" lon="8.524205"><ele>265.0</ele><time>2026-04-30T15:08:06.704Z</time></trkpt><trkpt lat="40.2567831" lon="8.5240588"><ele>265.0</ele><time>2026-04-30T15:08:07.699Z</time></trkpt><trkpt lat="40.2566994" lon="8.5239041"><ele>265.0</ele><time>2026-04-30T15:08:08.698Z</time></trkpt><trkpt lat="40.2566162" lon="8.523744"><ele>265.0</ele><time>2026-04-30T15:08:09.698Z</time></trkpt><trkpt lat="40.2565317" lon="8.5235897"><ele>265.0</ele><time>2026-04-30T15:08:10.695Z</time></trkpt><trkpt lat="40.2564526" lon="8.5234462"><ele>265.0</ele><time>2026-04-30T15:08:11.696Z</time></trkpt><trkpt lat="40.2563702" lon="8.5233028"><ele>265.25</ele><time>2026-04-30T15:08:12.706Z</time></trkpt><trkpt lat="40.2562926" lon="8.52317"><ele>265.5</ele><time>2026-04-30T15:08:13.696Z</time></trkpt><trkpt lat="40.2562148" lon="8.5230435"><ele>265.75</ele><time>2026-04-30T15:08:14.695Z</time></trkpt><trkpt lat="40.2561362" lon="8.5229265"><ele>266.0</ele><time>2026-04-30T15:08:15.701Z</time></trkpt><trkpt lat="40.2560556" lon="8.5228191"><ele>266.0</ele><time>2026-04-30T15:08:16.7Z</time></trkpt><trkpt lat="40.255972" lon="8.5227308"><ele>266.0</ele><time>2026-04-30T15:08:17.698Z</time></trkpt><trkpt lat="40.2558905" lon="8.5226532"><ele>266.0</ele><time>2026-04-30T15:08:18.698Z</time></trkpt><trkpt lat="40.2558091" lon="8.5225847"><ele>266.0</ele><time>2026-04-30T15:08:19.695Z</time></trkpt><trkpt lat="40.2557326" lon="8.5225206"><ele>266.0</ele><time>2026-04-30T15:08:20.697Z</time></trkpt><trkpt lat="40.2556551" lon="8.5224587"><ele>266.40000000000003</ele><time>2026-04-30T15:08:21.695Z</time></trkpt><trkpt lat="40.2555761" lon="8.5224002"><ele>266.8</ele><time>2026-04-30T15:08:22.7Z</time></trkpt><trkpt lat="40.2554959" lon="8.5223408"><ele>267.20000000000005</ele><time>2026-04-30T15:08:23.699Z</time></trkpt><trkpt lat="40.2554143" lon="8.522285"><ele>267.6</ele><time>2026-04-30T15:08:24.694Z</time></trkpt><trkpt lat="40.2553291" lon="8.5222315"><ele>268.0</ele><time>2026-04-30T15:08:25.695Z</time></trkpt><trkpt lat="40.255237" lon="8.5221874"><ele>268.0</ele><time>2026-04-30T15:08:26.696Z</time></trkpt><trkpt lat="40.255137" lon="8.5221549"><ele>268.0</ele><time>2026-04-30T15:08:27.696Z</time></trkpt><trkpt lat="40.2550293" lon="8.5221404"><ele>268.0</ele><time>2026-04-30T15:08:28.695Z</time></trkpt><trkpt lat="40.2549151" lon="8.5221458"><ele>268.0</ele><time>2026-04-30T15:08:29.695Z</time></trkpt><trkpt lat="40.2548001" lon="8.5221545"><ele>268.0</ele><time>2026-04-30T15:08:30.699Z</time></trkpt><trkpt lat="40.2546932" lon="8.5221652"><ele>268.0</ele><time>2026-04-30T15:08:31.7Z</time></trkpt><trkpt lat="40.2545883" lon="8.5221798"><ele>268.0</ele><time>2026-04-30T15:08:32.697Z</time></trkpt><trkpt lat="40.2544798" lon="8.5221838"><ele>268.0</ele><time>2026-04-30T15:08:33.7Z</time></trkpt><trkpt lat="40.2543703" lon="8.522185"><ele>268.0</ele><time>2026-04-30T15:08:34.696Z</time></trkpt><trkpt lat="40.2542674" lon="8.5221766"><ele>268.0</ele><time>2026-04-30T15:08:35.695Z</time></trkpt><trkpt lat="40.2541698" lon="8.5221721"><ele>268.0</ele><time>2026-04-30T15:08:36.697Z</time></trkpt><trkpt lat="40.2540762" lon="8.5221756"><ele>268.0</ele><time>2026-04-30T15:08:37.7Z</time></trkpt><trkpt lat="40.2539844" lon="8.5221786"><ele>268.0</ele><time>2026-04-30T15:08:38.697Z</time></trkpt><trkpt lat="40.2538914" lon="8.5221712"><ele>268.0</ele><time>2026-04-30T15:08:39.696Z</time></trkpt><trkpt lat="40.2537942" lon="8.5221501"><ele>268.0</ele><time>2026-04-30T15:08:40.695Z</time></trkpt><trkpt lat="40.2536904" lon="8.5221186"><ele>267.6</ele><time>2026-04-30T15:08:41.697Z</time></trkpt><trkpt lat="40.2535794" lon="8.5220853"><ele>267.20000000000005</ele><time>2026-04-30T15:08:42.698Z</time></trkpt><trkpt lat="40.2534701" lon="8.5220461"><ele>266.8</ele><time>2026-04-30T15:08:43.699Z</time></trkpt><trkpt lat="40.2533634" lon="8.5220034"><ele>266.40000000000003</ele><time>2026-04-30T15:08:44.702Z</time></trkpt><trkpt lat="40.2532612" lon="8.5219572"><ele>266.0</ele><time>2026-04-30T15:08:45.696Z</time></trkpt><trkpt lat="40.2531645" lon="8.5219019"><ele>265.0</ele><time>2026-04-30T15:08:46.697Z</time></trkpt><trkpt lat="40.2530753" lon="8.5218376"><ele>264.0</ele><time>2026-04-30T15:08:47.695Z</time></trkpt><trkpt lat="40.2529878" lon="8.5217737"><ele>263.0</ele><time>2026-04-30T15:08:48.696Z</time></trkpt><trkpt lat="40.2529051" lon="8.5217127"><ele>262.0</ele><time>2026-04-30T15:08:49.696Z</time></trkpt><trkpt lat="40.2528287" lon="8.5216563"><ele>261.0</ele><time>2026-04-30T15:08:50.698Z</time></trkpt><trkpt lat="40.2527494" lon="8.5216073"><ele>261.0</ele><time>2026-04-30T15:08:51.696Z</time></trkpt><trkpt lat="40.2526751" lon="8.5215428"><ele>261.0</ele><time>2026-04-30T15:08:52.698Z</time></trkpt><trkpt lat="40.2525997" lon="8.5214738"><ele>261.0</ele><time>2026-04-30T15:08:53.695Z</time></trkpt><trkpt lat="40.2525312" lon="8.5214"><ele>261.0</ele><time>2026-04-30T15:08:54.695Z</time></trkpt><trkpt lat="40.2524612" lon="8.5213137"><ele>261.0</ele><time>2026-04-30T15:08:55.695Z</time></trkpt><trkpt lat="40.2523976" lon="8.5212146"><ele>261.1666666666667</ele><time>2026-04-30T15:08:56.696Z</time></trkpt><trkpt lat="40.2523477" lon="8.5211186"><ele>261.3333333333333</ele><time>2026-04-30T15:08:57.697Z</time></trkpt><trkpt lat="40.2523048" lon="8.5210184"><ele>261.5</ele><time>2026-04-30T15:08:58.701Z</time></trkpt><trkpt lat="40.2522613" lon="8.5209257"><ele>261.66666666666663</ele><time>2026-04-30T15:08:59.696Z</time></trkpt><trkpt lat="40.252211" lon="8.5208342"><ele>261.8333333333333</ele><time>2026-04-30T15:09:00.695Z</time></trkpt><trkpt lat="40.2521563" lon="8.5207475"><ele>262.0</ele><time>2026-04-30T15:09:01.695Z</time></trkpt><trkpt lat="40.2521069" lon="8.5206549"><ele>261.6</ele><time>2026-04-30T15:09:02.697Z</time></trkpt><trkpt lat="40.2520519" lon="8.520564"><ele>261.2</ele><time>2026-04-30T15:09:03.695Z</time></trkpt><trkpt lat="40.2519924" lon="8.5204744"><ele>260.8</ele><time>2026-04-30T15:09:04.698Z</time></trkpt><trkpt lat="40.2519277" lon="8.5203795"><ele>260.4</ele><time>2026-04-30T15:09:05.694Z</time></trkpt><trkpt lat="40.2518627" lon="8.520286"><ele>260.0</ele><time>2026-04-30T15:09:06.694Z</time></trkpt><trkpt lat="40.2518026" lon="8.5202035"><ele>260.0</ele><time>2026-04-30T15:09:07.695Z</time></trkpt><trkpt lat="40.2517462" lon="8.5201219"><ele>260.0</ele><time>2026-04-30T15:09:08.696Z</time></trkpt><trkpt lat="40.2516935" lon="8.520041"><ele>260.0</ele><time>2026-04-30T15:09:09.696Z</time></trkpt><trkpt lat="40.2516414" lon="8.5199624"><ele>260.0</ele><time>2026-04-30T15:09:10.696Z</time></trkpt><trkpt lat="40.2515903" lon="8.5198831"><ele>260.0</ele><time>2026-04-30T15:09:11.698Z</time></trkpt><trkpt lat="40.2515363" lon="8.519811"><ele>260.0</ele><time>2026-04-30T15:09:12.697Z</time></trkpt><trkpt lat="40.2514743" lon="8.5197455"><ele>259.6666666666667</ele><time>2026-04-30T15:09:13.698Z</time></trkpt><trkpt lat="40.2514021" lon="8.519705"><ele>259.33333333333337</ele><time>2026-04-30T15:09:14.698Z</time></trkpt><trkpt lat="40.2513198" lon="8.5196887"><ele>259.0</ele><time>2026-04-30T15:09:15.697Z</time></trkpt><trkpt lat="40.2512354" lon="8.5197064"><ele>258.6666666666667</ele><time>2026-04-30T15:09:16.696Z</time></trkpt><trkpt lat="40.2511489" lon="8.5197545"><ele>258.3333333333333</ele><time>2026-04-30T15:09:17.696Z</time></trkpt><trkpt lat="40.2510633" lon="8.5198312"><ele>258.0</ele><time>2026-04-30T15:09:18.699Z</time></trkpt><trkpt lat="40.2509757" lon="8.5199332"><ele>258.0</ele><time>2026-04-30T15:09:19.7Z</time></trkpt><trkpt lat="40.2508832" lon="8.5200248"><ele>258.0</ele><time>2026-04-30T15:09:20.695Z</time></trkpt><trkpt lat="40.2507764" lon="8.5201011"><ele>258.0</ele><time>2026-04-30T15:09:21.695Z</time></trkpt><trkpt lat="40.2506567" lon="8.5201729"><ele>258.0</ele><time>2026-04-30T15:09:22.697Z</time></trkpt><trkpt lat="40.2505155" lon="8.5202531"><ele>258.5</ele><time>2026-04-30T15:09:23.696Z</time></trkpt><trkpt lat="40.250384" lon="8.5203272"><ele>259.0</ele><time>2026-04-30T15:09:24.697Z</time></trkpt><trkpt lat="40.2502631" lon="8.5203941"><ele>259.5</ele><time>2026-04-30T15:09:25.697Z</time></trkpt><trkpt lat="40.2501596" lon="8.5204518"><ele>260.0</ele><time>2026-04-30T15:09:26.696Z</time></trkpt><trkpt lat="40.2500659" lon="8.520505"><ele>259.4</ele><time>2026-04-30T15:09:27.698Z</time></trkpt><trkpt lat="40.2499789" lon="8.5205572"><ele>258.8</ele><time>2026-04-30T15:09:28.697Z</time></trkpt><trkpt lat="40.2498861" lon="8.5206134"><ele>258.2</ele><time>2026-04-30T15:09:29.697Z</time></trkpt><trkpt lat="40.2497999" lon="8.5206714"><ele>257.6</ele><time>2026-04-30T15:09:30.7Z</time></trkpt><trkpt lat="40.2497212" lon="8.5207293"><ele>257.0</ele><time>2026-04-30T15:09:31.697Z</time></trkpt><trkpt lat="40.2496437" lon="8.5207884"><ele>257.0</ele><time>2026-04-30T15:09:32.697Z</time></trkpt><trkpt lat="40.2495674" lon="8.5208495"><ele>257.0</ele><time>2026-04-30T15:09:33.702Z</time></trkpt><trkpt lat="40.249489" lon="8.5209165"><ele>257.0</ele><time>2026-04-30T15:09:34.699Z</time></trkpt><trkpt lat="40.2494059" lon="8.5209926"><ele>257.0</ele><time>2026-04-30T15:09:35.693Z</time></trkpt><trkpt lat="40.2493165" lon="8.5210681"><ele>257.0</ele><time>2026-04-30T15:09:36.697Z</time></trkpt><trkpt lat="40.2492238" lon="8.5211419"><ele>257.0</ele><time>2026-04-30T15:09:37.694Z</time></trkpt><trkpt lat="40.2491307" lon="8.5212101"><ele>257.0</ele><time>2026-04-30T15:09:38.696Z</time></trkpt><trkpt lat="40.2490322" lon="8.5212742"><ele>257.0</ele><time>2026-04-30T15:09:39.696Z</time></trkpt><trkpt lat="40.2489261" lon="8.5213346"><ele>257.0</ele><time>2026-04-30T15:09:40.7Z</time></trkpt><trkpt lat="40.2488149" lon="8.5213855"><ele>256.0</ele><time>2026-04-30T15:09:41.7Z</time></trkpt><trkpt lat="40.2486997" lon="8.5214338"><ele>255.0</ele><time>2026-04-30T15:09:42.702Z</time></trkpt><trkpt lat="40.2485782" lon="8.5214811"><ele>254.0</ele><time>2026-04-30T15:09:43.695Z</time></trkpt><trkpt lat="40.2484511" lon="8.5215319"><ele>253.0</ele><time>2026-04-30T15:09:44.696Z</time></trkpt><trkpt lat="40.2483171" lon="8.521586"><ele>253.0</ele><time>2026-04-30T15:09:45.7Z</time></trkpt><trkpt lat="40.2481777" lon="8.5216411"><ele>253.0</ele><time>2026-04-30T15:09:46.693Z</time></trkpt><trkpt lat="40.2480318" lon="8.5217007"><ele>253.0</ele><time>2026-04-30T15:09:47.696Z</time></trkpt><trkpt lat="40.2478802" lon="8.5217632"><ele>254.33333333333331</ele><time>2026-04-30T15:09:48.699Z</time></trkpt><trkpt lat="40.247724" lon="8.5218247"><ele>255.66666666666669</ele><time>2026-04-30T15:09:49.698Z</time></trkpt><trkpt lat="40.2475633" lon="8.5218864"><ele>257.0</ele><time>2026-04-30T15:09:50.702Z</time></trkpt><trkpt lat="40.2474009" lon="8.5219505"><ele>257.6666666666667</ele><time>2026-04-30T15:09:51.697Z</time></trkpt><trkpt lat="40.2472372" lon="8.5220139"><ele>258.3333333333333</ele><time>2026-04-30T15:09:52.702Z</time></trkpt><trkpt lat="40.2470725" lon="8.5220793"><ele>259.0</ele><time>2026-04-30T15:09:53.695Z</time></trkpt><trkpt lat="40.2469051" lon="8.5221485"><ele>256.66666666666663</ele><time>2026-04-30T15:09:54.698Z</time></trkpt><trkpt lat="40.2467477" lon="8.522216"><ele>254.33333333333331</ele><time>2026-04-30T15:09:55.701Z</time></trkpt><trkpt lat="40.2465979" lon="8.5222796"><ele>252.0</ele><time>2026-04-30T15:09:56.701Z</time></trkpt><trkpt lat="40.2464542" lon="8.5223396"><ele>252.0</ele><time>2026-04-30T15:09:57.699Z</time></trkpt><trkpt lat="40.2463126" lon="8.5223972"><ele>252.0</ele><time>2026-04-30T15:09:58.702Z</time></trkpt><trkpt lat="40.2461738" lon="8.5224472"><ele>252.0</ele><time>2026-04-30T15:09:59.698Z</time></trkpt><trkpt lat="40.2460389" lon="8.522485"><ele>252.0</ele><time>2026-04-30T15:10:00.703Z</time></trkpt><trkpt lat="40.2459097" lon="8.5225144"><ele>252.0</ele><time>2026-04-30T15:10:01.696Z</time></trkpt><trkpt lat="40.245784" lon="8.5225367"><ele>252.0</ele><time>2026-04-30T15:10:02.695Z</time></trkpt><trkpt lat="40.2456649" lon="8.5225538"><ele>252.0</ele><time>2026-04-30T15:10:03.698Z</time></trkpt><trkpt lat="40.2455513" lon="8.522569"><ele>252.0</ele><time>2026-04-30T15:10:04.696Z</time></trkpt><trkpt lat="40.2454391" lon="8.5225984"><ele>251.5</ele><time>2026-04-30T15:10:05.696Z</time></trkpt><trkpt lat="40.245328" lon="8.5226439"><ele>251.0</ele><time>2026-04-30T15:10:06.696Z</time></trkpt><trkpt lat="40.2452177" lon="8.522708"><ele>250.5</ele><time>2026-04-30T15:10:07.698Z</time></trkpt><trkpt lat="40.2451126" lon="8.5227951"><ele>250.0</ele><time>2026-04-30T15:10:08.694Z</time></trkpt><trkpt lat="40.2450154" lon="8.5229073"><ele>250.0</ele><time>2026-04-30T15:10:09.695Z</time></trkpt><trkpt lat="40.2449294" lon="8.5230373"><ele>250.0</ele><time>2026-04-30T15:10:10.696Z</time></trkpt><trkpt lat="40.2448448" lon="8.5231847"><ele>250.0</ele><time>2026-04-30T15:10:11.7Z</time></trkpt><trkpt lat="40.244769" lon="8.5233455"><ele>250.0</ele><time>2026-04-30T15:10:12.697Z</time></trkpt><trkpt lat="40.244702" lon="8.5235145"><ele>252.25</ele><time>2026-04-30T15:10:13.697Z</time></trkpt><trkpt lat="40.2446505" lon="8.5236982"><ele>254.5</ele><time>2026-04-30T15:10:14.703Z</time></trkpt><trkpt lat="40.2446155" lon="8.523887"><ele>256.75</ele><time>2026-04-30T15:10:15.697Z</time></trkpt><trkpt lat="40.2445901" lon="8.5240779"><ele>259.0</ele><time>2026-04-30T15:10:16.695Z</time></trkpt><trkpt lat="40.2445704" lon="8.5242639"><ele>259.0</ele><time>2026-04-30T15:10:17.698Z</time></trkpt><trkpt lat="40.2445522" lon="8.5244423"><ele>259.0</ele><time>2026-04-30T15:10:18.696Z</time></trkpt><trkpt lat="40.2445347" lon="8.5246136"><ele>259.0</ele><time>2026-04-30T15:10:19.701Z</time></trkpt><trkpt lat="40.2445101" lon="8.5247786"><ele>259.0</ele><time>2026-04-30T15:10:20.698Z</time></trkpt><trkpt lat="40.2444726" lon="8.5249427"><ele>258.25</ele><time>2026-04-30T15:10:21.697Z</time></trkpt><trkpt lat="40.2444228" lon="8.5251054"><ele>257.5</ele><time>2026-04-30T15:10:22.696Z</time></trkpt><trkpt lat="40.2443686" lon="8.5252564"><ele>256.75</ele><time>2026-04-30T15:10:23.697Z</time></trkpt><trkpt lat="40.2443125" lon="8.525397"><ele>256.0</ele><time>2026-04-30T15:10:24.698Z</time></trkpt><trkpt lat="40.2442574" lon="8.5255253"><ele>254.60000000000002</ele><time>2026-04-30T15:10:25.697Z</time></trkpt><trkpt lat="40.244201" lon="8.525638"><ele>253.20000000000002</ele><time>2026-04-30T15:10:26.699Z</time></trkpt><trkpt lat="40.2441346" lon="8.5257296"><ele>251.79999999999998</ele><time>2026-04-30T15:10:27.699Z</time></trkpt><trkpt lat="40.2440573" lon="8.5257894"><ele>250.39999999999998</ele><time>2026-04-30T15:10:28.699Z</time></trkpt><trkpt lat="40.2439744" lon="8.5258134"><ele>249.0</ele><time>2026-04-30T15:10:29.701Z</time></trkpt><trkpt lat="40.2438868" lon="8.5258082"><ele>248.6</ele><time>2026-04-30T15:10:30.697Z</time></trkpt><trkpt lat="40.2437975" lon="8.5257776"><ele>248.2</ele><time>2026-04-30T15:10:31.696Z</time></trkpt><trkpt lat="40.2437047" lon="8.5257313"><ele>247.79999999999998</ele><time>2026-04-30T15:10:32.696Z</time></trkpt><trkpt lat="40.2436056" lon="8.525683"><ele>247.39999999999998</ele><time>2026-04-30T15:10:33.698Z</time></trkpt><trkpt lat="40.2434987" lon="8.5256323"><ele>247.0</ele><time>2026-04-30T15:10:34.697Z</time></trkpt><trkpt lat="40.24339" lon="8.5255811"><ele>247.0</ele><time>2026-04-30T15:10:35.699Z</time></trkpt><trkpt lat="40.2432838" lon="8.5255318"><ele>247.0</ele><time>2026-04-30T15:10:36.698Z</time></trkpt><trkpt lat="40.2431762" lon="8.5254902"><ele>247.0</ele><time>2026-04-30T15:10:37.695Z</time></trkpt><trkpt lat="40.2430672" lon="8.5254542"><ele>247.0</ele><time>2026-04-30T15:10:38.7Z</time></trkpt><trkpt lat="40.2429605" lon="8.5254254"><ele>247.0</ele><time>2026-04-30T15:10:39.696Z</time></trkpt><trkpt lat="40.2428626" lon="8.5254074"><ele>246.66666666666666</ele><time>2026-04-30T15:10:40.698Z</time></trkpt><trkpt lat="40.2427836" lon="8.525398"><ele>246.33333333333331</ele><time>2026-04-30T15:10:41.7Z</time></trkpt><trkpt lat="40.2426907" lon="8.5254058"><ele>246.0</ele><time>2026-04-30T15:10:43.696Z</time></trkpt><trkpt lat="40.2426144" lon="8.5254521"><ele>245.66666666666669</ele><time>2026-04-30T15:10:46.696Z</time></trkpt><trkpt lat="40.2425654" lon="8.5255128"><ele>245.33333333333334</ele><time>2026-04-30T15:10:48.695Z</time></trkpt><trkpt lat="40.2425155" lon="8.5255896"><ele>245.0</ele><time>2026-04-30T15:10:50.694Z</time></trkpt><trkpt lat="40.2424239" lon="8.5256828"><ele>245.0</ele><time>2026-04-30T15:10:52.701Z</time></trkpt><trkpt lat="40.2423531" lon="8.5257281"><ele>245.0</ele><time>2026-04-30T15:10:53.7Z</time></trkpt><trkpt lat="40.2422669" lon="8.5257796"><ele>245.0</ele><time>2026-04-30T15:10:54.696Z</time></trkpt><trkpt lat="40.2421689" lon="8.5258455"><ele>245.0</ele><time>2026-04-30T15:10:55.695Z</time></trkpt><trkpt lat="40.2420671" lon="8.5259387"><ele>245.0</ele><time>2026-04-30T15:10:56.696Z</time></trkpt><trkpt lat="40.2419664" lon="8.5260607"><ele>244.0</ele><time>2026-04-30T15:10:57.7Z</time></trkpt><trkpt lat="40.2418609" lon="8.526208"><ele>243.0</ele><time>2026-04-30T15:10:58.694Z</time></trkpt><trkpt lat="40.2417505" lon="8.5263703"><ele>242.0</ele><time>2026-04-30T15:10:59.698Z</time></trkpt><trkpt lat="40.2416306" lon="8.5265383"><ele>242.0</ele><time>2026-04-30T15:11:00.697Z</time></trkpt><trkpt lat="40.2415072" lon="8.5267175"><ele>242.0</ele><time>2026-04-30T15:11:01.693Z</time></trkpt><trkpt lat="40.2413798" lon="8.5269035"><ele>242.0</ele><time>2026-04-30T15:11:02.7Z</time></trkpt><trkpt lat="40.2412574" lon="8.5270793"><ele>241.33333333333334</ele><time>2026-04-30T15:11:03.701Z</time></trkpt><trkpt lat="40.2411392" lon="8.5272501"><ele>240.66666666666669</ele><time>2026-04-30T15:11:04.695Z</time></trkpt><trkpt lat="40.2410289" lon="8.5274104"><ele>240.0</ele><time>2026-04-30T15:11:05.696Z</time></trkpt><trkpt lat="40.2409184" lon="8.527552"><ele>240.0</ele><time>2026-04-30T15:11:06.699Z</time></trkpt><trkpt lat="40.2408031" lon="8.5276795"><ele>240.0</ele><time>2026-04-30T15:11:07.7Z</time></trkpt><trkpt lat="40.2406821" lon="8.5277884"><ele>240.0</ele><time>2026-04-30T15:11:08.701Z</time></trkpt><trkpt lat="40.2405569" lon="8.5278782"><ele>240.0</ele><time>2026-04-30T15:11:09.698Z</time></trkpt><trkpt lat="40.2404313" lon="8.5279475"><ele>238.75</ele><time>2026-04-30T15:11:10.698Z</time></trkpt><trkpt lat="40.2403098" lon="8.5279962"><ele>237.5</ele><time>2026-04-30T15:11:11.7Z</time></trkpt><trkpt lat="40.2401856" lon="8.5280385"><ele>236.25</ele><time>2026-04-30T15:11:12.702Z</time></trkpt><trkpt lat="40.2400592" lon="8.5280823"><ele>235.0</ele><time>2026-04-30T15:11:13.7Z</time></trkpt><trkpt lat="40.2399388" lon="8.5281329"><ele>235.0</ele><time>2026-04-30T15:11:14.7Z</time></trkpt><trkpt lat="40.2398262" lon="8.5282007"><ele>235.0</ele><time>2026-04-30T15:11:15.697Z</time></trkpt><trkpt lat="40.2397215" lon="8.5282857"><ele>235.0</ele><time>2026-04-30T15:11:16.696Z</time></trkpt><trkpt lat="40.2396187" lon="8.5283885"><ele>235.0</ele><time>2026-04-30T15:11:17.699Z</time></trkpt><trkpt lat="40.2395177" lon="8.5285089"><ele>234.66666666666666</ele><time>2026-04-30T15:11:18.697Z</time></trkpt><trkpt lat="40.2394125" lon="8.5286598"><ele>234.33333333333331</ele><time>2026-04-30T15:11:19.698Z</time></trkpt><trkpt lat="40.2393003" lon="8.5288403"><ele>234.0</ele><time>2026-04-30T15:11:20.695Z</time></trkpt><trkpt lat="40.2391778" lon="8.5290452"><ele>233.66666666666669</ele><time>2026-04-30T15:11:21.698Z</time></trkpt><trkpt lat="40.2390447" lon="8.5292677"><ele>233.33333333333334</ele><time>2026-04-30T15:11:22.7Z</time></trkpt><trkpt lat="40.2388994" lon="8.5295066"><ele>233.0</ele><time>2026-04-30T15:11:23.7Z</time></trkpt><trkpt lat="40.2387503" lon="8.5297482"><ele>236.0</ele><time>2026-04-30T15:11:24.698Z</time></trkpt><trkpt lat="40.2385974" lon="8.5299922"><ele>239.0</ele><time>2026-04-30T15:11:25.698Z</time></trkpt><trkpt lat="40.2384474" lon="8.5302306"><ele>238.0</ele><time>2026-04-30T15:11:26.695Z</time></trkpt><trkpt lat="40.2383027" lon="8.5304503"><ele>237.0</ele><time>2026-04-30T15:11:27.697Z</time></trkpt><trkpt lat="40.2381657" lon="8.5306649"><ele>236.0</ele><time>2026-04-30T15:11:28.699Z</time></trkpt><trkpt lat="40.2380293" lon="8.5308892"><ele>239.5</ele><time>2026-04-30T15:11:29.7Z</time></trkpt><trkpt lat="40.2378852" lon="8.5311229"><ele>243.0</ele><time>2026-04-30T15:11:30.697Z</time></trkpt><trkpt lat="40.2377324" lon="8.5313623"><ele>243.0</ele><time>2026-04-30T15:11:31.697Z</time></trkpt><trkpt lat="40.2375722" lon="8.5316028"><ele>243.0</ele><time>2026-04-30T15:11:32.696Z</time></trkpt><trkpt lat="40.2374126" lon="8.5318415"><ele>245.66666666666669</ele><time>2026-04-30T15:11:33.696Z</time></trkpt><trkpt lat="40.237269" lon="8.5320695"><ele>248.33333333333334</ele><time>2026-04-30T15:11:34.696Z</time></trkpt><trkpt lat="40.2371327" lon="8.5322883"><ele>251.0</ele><time>2026-04-30T15:11:35.695Z</time></trkpt><trkpt lat="40.2370026" lon="8.5325007"><ele>251.0</ele><time>2026-04-30T15:11:36.7Z</time></trkpt><trkpt lat="40.2368764" lon="8.5327115"><ele>251.0</ele><time>2026-04-30T15:11:37.697Z</time></trkpt><trkpt lat="40.2367548" lon="8.5329203"><ele>251.0</ele><time>2026-04-30T15:11:38.698Z</time></trkpt><trkpt lat="40.2366387" lon="8.5331294"><ele>250.66666666666669</ele><time>2026-04-30T15:11:39.7Z</time></trkpt><trkpt lat="40.2365247" lon="8.5333386"><ele>250.33333333333331</ele><time>2026-04-30T15:11:40.699Z</time></trkpt><trkpt lat="40.2364124" lon="8.5335479"><ele>250.0</ele><time>2026-04-30T15:11:41.697Z</time></trkpt><trkpt lat="40.2362992" lon="8.5337628"><ele>249.66666666666666</ele><time>2026-04-30T15:11:42.7Z</time></trkpt><trkpt lat="40.2361844" lon="8.5339782"><ele>249.33333333333331</ele><time>2026-04-30T15:11:43.697Z</time></trkpt><trkpt lat="40.236064" lon="8.5341847"><ele>249.0</ele><time>2026-04-30T15:11:44.694Z</time></trkpt><trkpt lat="40.2359328" lon="8.534366"><ele>249.0</ele><time>2026-04-30T15:11:45.696Z</time></trkpt><trkpt lat="40.2357883" lon="8.5345267"><ele>249.0</ele><time>2026-04-30T15:11:46.704Z</time></trkpt><trkpt lat="40.2356298" lon="8.5346639"><ele>249.0</ele><time>2026-04-30T15:11:47.7Z</time></trkpt><trkpt lat="40.2354678" lon="8.5347947"><ele>246.66666666666669</ele><time>2026-04-30T15:11:48.702Z</time></trkpt><trkpt lat="40.2353188" lon="8.534933"><ele>244.33333333333334</ele><time>2026-04-30T15:11:49.698Z</time></trkpt><trkpt lat="40.2351795" lon="8.5350959"><ele>242.0</ele><time>2026-04-30T15:11:50.703Z</time></trkpt><trkpt lat="40.2350558" lon="8.5352844"><ele>239.33333333333334</ele><time>2026-04-30T15:11:51.698Z</time></trkpt><trkpt lat="40.2349429" lon="8.5354928"><ele>236.66666666666669</ele><time>2026-04-30T15:11:52.699Z</time></trkpt><trkpt lat="40.2348312" lon="8.5357104"><ele>234.0</ele><time>2026-04-30T15:11:53.696Z</time></trkpt><trkpt lat="40.2347277" lon="8.5359235"><ele>234.0</ele><time>2026-04-30T15:11:54.701Z</time></trkpt><trkpt lat="40.2346383" lon="8.5361373"><ele>234.0</ele><time>2026-04-30T15:11:55.701Z</time></trkpt><trkpt lat="40.2345647" lon="8.536367"><ele>234.0</ele><time>2026-04-30T15:11:56.7Z</time></trkpt><trkpt lat="40.2345015" lon="8.5366065"><ele>236.33333333333331</ele><time>2026-04-30T15:11:57.697Z</time></trkpt><trkpt lat="40.234435" lon="8.5368424"><ele>238.66666666666666</ele><time>2026-04-30T15:11:58.699Z</time></trkpt><trkpt lat="40.2343663" lon="8.5370725"><ele>241.0</ele><time>2026-04-30T15:11:59.703Z</time></trkpt><trkpt lat="40.2342863" lon="8.5373008"><ele>242.66666666666666</ele><time>2026-04-30T15:12:00.696Z</time></trkpt><trkpt lat="40.234191" lon="8.5375271"><ele>244.33333333333331</ele><time>2026-04-30T15:12:01.697Z</time></trkpt><trkpt lat="40.2340855" lon="8.5377505"><ele>246.0</ele><time>2026-04-30T15:12:02.696Z</time></trkpt><trkpt lat="40.2339717" lon="8.5379703"><ele>241.0</ele><time>2026-04-30T15:12:03.695Z</time></trkpt><trkpt lat="40.2338497" lon="8.5381902"><ele>236.0</ele><time>2026-04-30T15:12:04.697Z</time></trkpt><trkpt lat="40.2337247" lon="8.5384"><ele>231.0</ele><time>2026-04-30T15:12:05.694Z</time></trkpt><trkpt lat="40.2336002" lon="8.5385953"><ele>234.66666666666669</ele><time>2026-04-30T15:12:06.696Z</time></trkpt><trkpt lat="40.233479" lon="8.5387777"><ele>238.33333333333334</ele><time>2026-04-30T15:12:07.695Z</time></trkpt><trkpt lat="40.233363" lon="8.5389502"><ele>242.0</ele><time>2026-04-30T15:12:08.699Z</time></trkpt><trkpt lat="40.2332533" lon="8.5391148"><ele>242.0</ele><time>2026-04-30T15:12:09.695Z</time></trkpt><trkpt lat="40.2331513" lon="8.5392676"><ele>242.0</ele><time>2026-04-30T15:12:10.699Z</time></trkpt><trkpt lat="40.233058" lon="8.5394062"><ele>242.0</ele><time>2026-04-30T15:12:11.702Z</time></trkpt><trkpt lat="40.2329674" lon="8.5395266"><ele>242.0</ele><time>2026-04-30T15:12:12.698Z</time></trkpt><trkpt lat="40.2328702" lon="8.5396122"><ele>240.2</ele><time>2026-04-30T15:12:13.695Z</time></trkpt><trkpt lat="40.2327693" lon="8.5396398"><ele>238.39999999999998</ele><time>2026-04-30T15:12:14.697Z</time></trkpt><trkpt lat="40.2326667" lon="8.5396147"><ele>236.60000000000002</ele><time>2026-04-30T15:12:15.697Z</time></trkpt><trkpt lat="40.2325627" lon="8.53955"><ele>234.8</ele><time>2026-04-30T15:12:16.694Z</time></trkpt><trkpt lat="40.2324603" lon="8.5394719"><ele>233.0</ele><time>2026-04-30T15:12:17.701Z</time></trkpt><trkpt lat="40.2323762" lon="8.539377"><ele>233.0</ele><time>2026-04-30T15:12:18.697Z</time></trkpt><trkpt lat="40.2323396" lon="8.5392577"><ele>233.0</ele><time>2026-04-30T15:12:19.697Z</time></trkpt><trkpt lat="40.2323381" lon="8.5391334"><ele>233.0</ele><time>2026-04-30T15:12:20.695Z</time></trkpt><trkpt lat="40.2323656" lon="8.5390123"><ele>233.0</ele><time>2026-04-30T15:12:21.697Z</time></trkpt><trkpt lat="40.2324062" lon="8.5388724"><ele>233.0</ele><time>2026-04-30T15:12:22.698Z</time></trkpt><trkpt lat="40.232451" lon="8.538705"><ele>234.66666666666669</ele><time>2026-04-30T15:12:23.698Z</time></trkpt><trkpt lat="40.2325009" lon="8.5385119"><ele>236.33333333333331</ele><time>2026-04-30T15:12:24.699Z</time></trkpt><trkpt lat="40.2325547" lon="8.538298"><ele>238.0</ele><time>2026-04-30T15:12:25.701Z</time></trkpt><trkpt lat="40.2325875" lon="8.5381011"><ele>238.0</ele><time>2026-04-30T15:12:26.701Z</time></trkpt><trkpt lat="40.2325961" lon="8.5378915"><ele>238.0</ele><time>2026-04-30T15:12:27.697Z</time></trkpt><trkpt lat="40.2325824" lon="8.5376825"><ele>238.0</ele><time>2026-04-30T15:12:28.7Z</time></trkpt><trkpt lat="40.2325613" lon="8.5374729"><ele>239.75</ele><time>2026-04-30T15:12:29.697Z</time></trkpt><trkpt lat="40.2325416" lon="8.5372811"><ele>241.5</ele><time>2026-04-30T15:12:30.697Z</time></trkpt><trkpt lat="40.2325237" lon="8.5371107"><ele>243.25</ele><time>2026-04-30T15:12:31.699Z</time></trkpt><trkpt lat="40.2325059" lon="8.536957"><ele>245.0</ele><time>2026-04-30T15:12:32.697Z</time></trkpt><trkpt lat="40.2324899" lon="8.5368231"><ele>245.00000000000003</ele><time>2026-04-30T15:12:33.694Z</time></trkpt><trkpt lat="40.2324756" lon="8.5367081"><ele>245.0</ele><time>2026-04-30T15:12:34.695Z</time></trkpt><trkpt lat="40.2324636" lon="8.5366087"><ele>245.0</ele><time>2026-04-30T15:12:35.695Z</time></trkpt><trkpt lat="40.2324505" lon="8.5365084"><ele>245.0</ele><time>2026-04-30T15:12:36.696Z</time></trkpt><trkpt lat="40.2324368" lon="8.5363991"><ele>245.00000000000003</ele><time>2026-04-30T15:12:37.699Z</time></trkpt><trkpt lat="40.2324214" lon="8.536287"><ele>245.0</ele><time>2026-04-30T15:12:38.697Z</time></trkpt><trkpt lat="40.2324006" lon="8.5361721"><ele>244.8</ele><time>2026-04-30T15:12:39.696Z</time></trkpt><trkpt lat="40.2323604" lon="8.5360616"><ele>244.6</ele><time>2026-04-30T15:12:40.698Z</time></trkpt><trkpt lat="40.2322985" lon="8.5359648"><ele>244.39999999999998</ele><time>2026-04-30T15:12:41.697Z</time></trkpt><trkpt lat="40.2322164" lon="8.5358853"><ele>244.2</ele><time>2026-04-30T15:12:42.697Z</time></trkpt><trkpt lat="40.2321173" lon="8.5358096"><ele>244.0</ele><time>2026-04-30T15:12:43.698Z</time></trkpt><trkpt lat="40.2320105" lon="8.5357333"><ele>247.39999999999998</ele><time>2026-04-30T15:12:44.696Z</time></trkpt><trkpt lat="40.2319206" lon="8.5356691"><ele>250.79999999999998</ele><time>2026-04-30T15:12:45.699Z</time></trkpt><trkpt lat="40.2318405" lon="8.535613"><ele>254.20000000000002</ele><time>2026-04-30T15:12:46.697Z</time></trkpt><trkpt lat="40.2317664" lon="8.5355632"><ele>257.6</ele><time>2026-04-30T15:12:47.693Z</time></trkpt><trkpt lat="40.2316852" lon="8.5355161"><ele>261.0</ele><time>2026-04-30T15:12:48.698Z</time></trkpt><trkpt lat="40.2315989" lon="8.5354788"><ele>261.0</ele><time>2026-04-30T15:12:49.698Z</time></trkpt><trkpt lat="40.2315095" lon="8.5354514"><ele>261.0</ele><time>2026-04-30T15:12:50.698Z</time></trkpt><trkpt lat="40.2314128" lon="8.5354361"><ele>261.0</ele><time>2026-04-30T15:12:51.7Z</time></trkpt><trkpt lat="40.2313118" lon="8.5354349"><ele>261.0</ele><time>2026-04-30T15:12:52.698Z</time></trkpt><trkpt lat="40.2312079" lon="8.5354522"><ele>261.0</ele><time>2026-04-30T15:12:53.699Z</time></trkpt><trkpt lat="40.2311025" lon="8.5354888"><ele>262.75</ele><time>2026-04-30T15:12:54.696Z</time></trkpt><trkpt lat="40.2309969" lon="8.5355451"><ele>264.5</ele><time>2026-04-30T15:12:55.697Z</time></trkpt><trkpt lat="40.2308932" lon="8.5356207"><ele>266.25</ele><time>2026-04-30T15:12:56.696Z</time></trkpt><trkpt lat="40.2307911" lon="8.5357137"><ele>268.0</ele><time>2026-04-30T15:12:57.696Z</time></trkpt><trkpt lat="40.2306919" lon="8.5358178"><ele>268.0</ele><time>2026-04-30T15:12:58.695Z</time></trkpt><trkpt lat="40.2305993" lon="8.5359177"><ele>268.0</ele><time>2026-04-30T15:12:59.694Z</time></trkpt><trkpt lat="40.2305033" lon="8.5360209"><ele>268.0</ele><time>2026-04-30T15:13:00.695Z</time></trkpt><trkpt lat="40.2304047" lon="8.5361265"><ele>268.0</ele><time>2026-04-30T15:13:01.7Z</time></trkpt><trkpt lat="40.2303029" lon="8.5362354"><ele>268.75</ele><time>2026-04-30T15:13:02.699Z</time></trkpt><trkpt lat="40.230199" lon="8.5363471"><ele>269.5</ele><time>2026-04-30T15:13:03.695Z</time></trkpt><trkpt lat="40.2300902" lon="8.5364639"><ele>270.25</ele><time>2026-04-30T15:13:04.697Z</time></trkpt><trkpt lat="40.229975" lon="8.5365867"><ele>271.0</ele><time>2026-04-30T15:13:05.703Z</time></trkpt><trkpt lat="40.2298536" lon="8.5367165"><ele>271.0</ele><time>2026-04-30T15:13:06.694Z</time></trkpt><trkpt lat="40.2297266" lon="8.5368524"><ele>271.0</ele><time>2026-04-30T15:13:07.699Z</time></trkpt><trkpt lat="40.2295955" lon="8.5369937"><ele>271.0</ele><time>2026-04-30T15:13:08.698Z</time></trkpt><trkpt lat="40.2294628" lon="8.5371367"><ele>272.3333333333333</ele><time>2026-04-30T15:13:09.7Z</time></trkpt><trkpt lat="40.229328" lon="8.5372811"><ele>273.6666666666667</ele><time>2026-04-30T15:13:10.698Z</time></trkpt><trkpt lat="40.2291914" lon="8.5374291"><ele>275.0</ele><time>2026-04-30T15:13:11.7Z</time></trkpt><trkpt lat="40.2290524" lon="8.5375792"><ele>275.0</ele><time>2026-04-30T15:13:12.695Z</time></trkpt><trkpt lat="40.2289106" lon="8.5377315"><ele>275.0</ele><time>2026-04-30T15:13:13.698Z</time></trkpt><trkpt lat="40.228763" lon="8.5378919"><ele>275.0</ele><time>2026-04-30T15:13:14.699Z</time></trkpt><trkpt lat="40.2286079" lon="8.5380611"><ele>275.0</ele><time>2026-04-30T15:13:15.697Z</time></trkpt><trkpt lat="40.2284507" lon="8.5382371"><ele>275.0</ele><time>2026-04-30T15:13:16.694Z</time></trkpt><trkpt lat="40.2282848" lon="8.5384185"><ele>275.0</ele><time>2026-04-30T15:13:17.696Z</time></trkpt><trkpt lat="40.2281112" lon="8.5386046"><ele>275.0</ele><time>2026-04-30T15:13:18.696Z</time></trkpt><trkpt lat="40.2279326" lon="8.5387945"><ele>275.0</ele><time>2026-04-30T15:13:19.702Z</time></trkpt><trkpt lat="40.2277483" lon="8.5389853"><ele>275.0</ele><time>2026-04-30T15:13:20.699Z</time></trkpt><trkpt lat="40.2275592" lon="8.5391776"><ele>275.0</ele><time>2026-04-30T15:13:21.7Z</time></trkpt><trkpt lat="40.2273667" lon="8.5393733"><ele>274.0</ele><time>2026-04-30T15:13:22.699Z</time></trkpt><trkpt lat="40.227176" lon="8.5395715"><ele>273.0</ele><time>2026-04-30T15:13:23.699Z</time></trkpt><trkpt lat="40.2269892" lon="8.5397684"><ele>273.0</ele><time>2026-04-30T15:13:24.698Z</time></trkpt><trkpt lat="40.2268104" lon="8.539958"><ele>273.0</ele><time>2026-04-30T15:13:25.704Z</time></trkpt><trkpt lat="40.2266408" lon="8.5401385"><ele>273.0</ele><time>2026-04-30T15:13:26.697Z</time></trkpt><trkpt lat="40.2264808" lon="8.5403077"><ele>273.3333333333333</ele><time>2026-04-30T15:13:27.695Z</time></trkpt><trkpt lat="40.2263272" lon="8.5404696"><ele>273.66666666666663</ele><time>2026-04-30T15:13:28.695Z</time></trkpt><trkpt lat="40.2261764" lon="8.5406285"><ele>274.0</ele><time>2026-04-30T15:13:29.698Z</time></trkpt><trkpt lat="40.2260277" lon="8.5407886"><ele>274.0</ele><time>2026-04-30T15:13:30.697Z</time></trkpt><trkpt lat="40.2258802" lon="8.5409475"><ele>274.0</ele><time>2026-04-30T15:13:31.697Z</time></trkpt><trkpt lat="40.2257316" lon="8.5411065"><ele>274.0</ele><time>2026-04-30T15:13:32.699Z</time></trkpt><trkpt lat="40.2255818" lon="8.5412672"><ele>274.3333333333333</ele><time>2026-04-30T15:13:33.695Z</time></trkpt><trkpt lat="40.2254291" lon="8.5414301"><ele>274.6666666666667</ele><time>2026-04-30T15:13:34.697Z</time></trkpt><trkpt lat="40.2252732" lon="8.541595"><ele>275.0</ele><time>2026-04-30T15:13:35.697Z</time></trkpt><trkpt lat="40.2251143" lon="8.5417619"><ele>275.0</ele><time>2026-04-30T15:13:36.697Z</time></trkpt><trkpt lat="40.2249519" lon="8.5419337"><ele>275.0</ele><time>2026-04-30T15:13:37.693Z</time></trkpt><trkpt lat="40.2247885" lon="8.5421092"><ele>275.0</ele><time>2026-04-30T15:13:38.698Z</time></trkpt><trkpt lat="40.2246227" lon="8.5422873"><ele>275.33333333333337</ele><time>2026-04-30T15:13:39.696Z</time></trkpt><trkpt lat="40.2244542" lon="8.5424673"><ele>275.6666666666667</ele><time>2026-04-30T15:13:40.692Z</time></trkpt><trkpt lat="40.2242825" lon="8.5426492"><ele>276.0</ele><time>2026-04-30T15:13:41.699Z</time></trkpt><trkpt lat="40.2241152" lon="8.5428273"><ele>276.3333333333333</ele><time>2026-04-30T15:13:42.695Z</time></trkpt><trkpt lat="40.223954" lon="8.542999"><ele>276.66666666666663</ele><time>2026-04-30T15:13:43.698Z</time></trkpt><trkpt lat="40.2237928" lon="8.5431698"><ele>277.0</ele><time>2026-04-30T15:13:44.695Z</time></trkpt><trkpt lat="40.2236342" lon="8.5433385"><ele>277.0</ele><time>2026-04-30T15:13:45.695Z</time></trkpt><trkpt lat="40.2234761" lon="8.5435054"><ele>277.0</ele><time>2026-04-30T15:13:46.696Z</time></trkpt><trkpt lat="40.2233183" lon="8.5436707"><ele>277.0</ele><time>2026-04-30T15:13:47.696Z</time></trkpt><trkpt lat="40.2231609" lon="8.5438374"><ele>276.0</ele><time>2026-04-30T15:13:48.698Z</time></trkpt><trkpt lat="40.2230053" lon="8.5440086"><ele>275.0</ele><time>2026-04-30T15:13:49.697Z</time></trkpt><trkpt lat="40.222853" lon="8.5441872"><ele>274.0</ele><time>2026-04-30T15:13:50.697Z</time></trkpt><trkpt lat="40.2227077" lon="8.5443797"><ele>274.66666666666663</ele><time>2026-04-30T15:13:51.699Z</time></trkpt><trkpt lat="40.2225724" lon="8.5445858"><ele>275.3333333333333</ele><time>2026-04-30T15:13:52.701Z</time></trkpt><trkpt lat="40.2224451" lon="8.5448036"><ele>276.0</ele><time>2026-04-30T15:13:53.696Z</time></trkpt><trkpt lat="40.2223292" lon="8.5450345"><ele>275.0</ele><time>2026-04-30T15:13:54.695Z</time></trkpt><trkpt lat="40.2222258" lon="8.5452781"><ele>274.0</ele><time>2026-04-30T15:13:55.698Z</time></trkpt><trkpt lat="40.2221307" lon="8.5455283"><ele>273.0</ele><time>2026-04-30T15:13:56.698Z</time></trkpt><trkpt lat="40.2220393" lon="8.5457829"><ele>273.0</ele><time>2026-04-30T15:13:57.697Z</time></trkpt><trkpt lat="40.2219487" lon="8.5460446"><ele>273.0</ele><time>2026-04-30T15:13:58.695Z</time></trkpt><trkpt lat="40.2218587" lon="8.5463041"><ele>273.0</ele><time>2026-04-30T15:13:59.699Z</time></trkpt><trkpt lat="40.2217678" lon="8.5465646"><ele>273.6666666666667</ele><time>2026-04-30T15:14:00.694Z</time></trkpt><trkpt lat="40.2216763" lon="8.5468264"><ele>274.33333333333337</ele><time>2026-04-30T15:14:01.695Z</time></trkpt><trkpt lat="40.2215854" lon="8.5470909"><ele>275.0</ele><time>2026-04-30T15:14:02.697Z</time></trkpt><trkpt lat="40.2214953" lon="8.5473562"><ele>275.0</ele><time>2026-04-30T15:14:03.696Z</time></trkpt><trkpt lat="40.2214043" lon="8.5476235"><ele>275.0</ele><time>2026-04-30T15:14:04.7Z</time></trkpt><trkpt lat="40.2213127" lon="8.5478896"><ele>275.0</ele><time>2026-04-30T15:14:05.698Z</time></trkpt><trkpt lat="40.22122" lon="8.5481541"><ele>275.0</ele><time>2026-04-30T15:14:06.695Z</time></trkpt><trkpt lat="40.2211282" lon="8.548418"><ele>275.0</ele><time>2026-04-30T15:14:07.699Z</time></trkpt><trkpt lat="40.221037" lon="8.5486819"><ele>275.0</ele><time>2026-04-30T15:14:08.696Z</time></trkpt><trkpt lat="40.2209462" lon="8.5489452"><ele>276.0</ele><time>2026-04-30T15:14:09.697Z</time></trkpt><trkpt lat="40.2208565" lon="8.5492077"><ele>277.0</ele><time>2026-04-30T15:14:10.697Z</time></trkpt><trkpt lat="40.2207658" lon="8.5494696"><ele>278.0</ele><time>2026-04-30T15:14:11.693Z</time></trkpt><trkpt lat="40.2206737" lon="8.5497294"><ele>278.0</ele><time>2026-04-30T15:14:12.696Z</time></trkpt><trkpt lat="40.2205842" lon="8.5499775"><ele>278.0</ele><time>2026-04-30T15:14:13.697Z</time></trkpt><trkpt lat="40.2204899" lon="8.5502111"><ele>278.0</ele><time>2026-04-30T15:14:14.696Z</time></trkpt><trkpt lat="40.2203812" lon="8.5504289"><ele>278.0</ele><time>2026-04-30T15:14:15.696Z</time></trkpt><trkpt lat="40.2202563" lon="8.5506321"><ele>278.0</ele><time>2026-04-30T15:14:16.696Z</time></trkpt><trkpt lat="40.2201154" lon="8.5508057"><ele>278.0</ele><time>2026-04-30T15:14:17.697Z</time></trkpt><trkpt lat="40.2199553" lon="8.5509464"><ele>277.6666666666667</ele><time>2026-04-30T15:14:18.7Z</time></trkpt><trkpt lat="40.2197807" lon="8.5510536"><ele>277.3333333333333</ele><time>2026-04-30T15:14:19.697Z</time></trkpt><trkpt lat="40.219596" lon="8.5511296"><ele>277.0</ele><time>2026-04-30T15:14:20.7Z</time></trkpt><trkpt lat="40.2194052" lon="8.5511819"><ele>277.0</ele><time>2026-04-30T15:14:21.699Z</time></trkpt><trkpt lat="40.2192078" lon="8.551219"><ele>277.0</ele><time>2026-04-30T15:14:22.699Z</time></trkpt><trkpt lat="40.2190022" lon="8.551246"><ele>277.0</ele><time>2026-04-30T15:14:23.697Z</time></trkpt><trkpt lat="40.2187893" lon="8.5512706"><ele>277.0</ele><time>2026-04-30T15:14:24.698Z</time></trkpt><trkpt lat="40.2185688" lon="8.5512944"><ele>277.0</ele><time>2026-04-30T15:14:25.696Z</time></trkpt><trkpt lat="40.2183427" lon="8.5513178"><ele>277.0</ele><time>2026-04-30T15:14:26.697Z</time></trkpt><trkpt lat="40.2181121" lon="8.551344"><ele>277.0</ele><time>2026-04-30T15:14:27.696Z</time></trkpt><trkpt lat="40.2178799" lon="8.5513709"><ele>277.0</ele><time>2026-04-30T15:14:28.701Z</time></trkpt><trkpt lat="40.2176458" lon="8.551397"><ele>277.0</ele><time>2026-04-30T15:14:29.697Z</time></trkpt><trkpt lat="40.2174093" lon="8.5514212"><ele>277.0</ele><time>2026-04-30T15:14:30.697Z</time></trkpt><trkpt lat="40.2171713" lon="8.5514467"><ele>277.0</ele><time>2026-04-30T15:14:31.699Z</time></trkpt><trkpt lat="40.2169318" lon="8.5514734"><ele>277.0</ele><time>2026-04-30T15:14:32.695Z</time></trkpt><trkpt lat="40.216691" lon="8.5515044"><ele>277.5</ele><time>2026-04-30T15:14:33.697Z</time></trkpt><trkpt lat="40.21645" lon="8.5515453"><ele>278.0</ele><time>2026-04-30T15:14:34.699Z</time></trkpt><trkpt lat="40.2162112" lon="8.5516"><ele>278.0</ele><time>2026-04-30T15:14:35.703Z</time></trkpt><trkpt lat="40.2159776" lon="8.5516763"><ele>278.0</ele><time>2026-04-30T15:14:36.703Z</time></trkpt><trkpt lat="40.2157507" lon="8.5517727"><ele>278.0</ele><time>2026-04-30T15:14:37.7Z</time></trkpt><trkpt lat="40.2155333" lon="8.5518931"><ele>278.0</ele><time>2026-04-30T15:14:38.697Z</time></trkpt><trkpt lat="40.2153311" lon="8.5520324"><ele>277.6666666666667</ele><time>2026-04-30T15:14:39.699Z</time></trkpt><trkpt lat="40.2151474" lon="8.5521853"><ele>277.3333333333333</ele><time>2026-04-30T15:14:40.696Z</time></trkpt><trkpt lat="40.2149764" lon="8.5523528"><ele>277.0</ele><time>2026-04-30T15:14:41.696Z</time></trkpt><trkpt lat="40.2148178" lon="8.5525371"><ele>275.66666666666663</ele><time>2026-04-30T15:14:42.695Z</time></trkpt><trkpt lat="40.2146753" lon="8.5527272"><ele>274.3333333333333</ele><time>2026-04-30T15:14:43.697Z</time></trkpt><trkpt lat="40.2145427" lon="8.5529267"><ele>273.0</ele><time>2026-04-30T15:14:44.697Z</time></trkpt><trkpt lat="40.2144178" lon="8.5531288"><ele>272.6666666666667</ele><time>2026-04-30T15:14:45.697Z</time></trkpt><trkpt lat="40.2143001" lon="8.5533272"><ele>272.33333333333337</ele><time>2026-04-30T15:14:46.697Z</time></trkpt><trkpt lat="40.2141844" lon="8.5535209"><ele>272.0</ele><time>2026-04-30T15:14:47.698Z</time></trkpt><trkpt lat="40.2140744" lon="8.5537047"><ele>271.6666666666667</ele><time>2026-04-30T15:14:48.697Z</time></trkpt><trkpt lat="40.2139733" lon="8.5538715"><ele>271.3333333333333</ele><time>2026-04-30T15:14:49.698Z</time></trkpt><trkpt lat="40.2138788" lon="8.5540308"><ele>271.0</ele><time>2026-04-30T15:14:50.695Z</time></trkpt><trkpt lat="40.213792" lon="8.5541743"><ele>271.0</ele><time>2026-04-30T15:14:51.7Z</time></trkpt><trkpt lat="40.2137127" lon="8.5543192"><ele>271.0</ele><time>2026-04-30T15:14:52.697Z</time></trkpt><trkpt lat="40.2136336" lon="8.554452"><ele>271.0</ele><time>2026-04-30T15:14:53.695Z</time></trkpt><trkpt lat="40.2135573" lon="8.5545807"><ele>271.0</ele><time>2026-04-30T15:14:54.696Z</time></trkpt><trkpt lat="40.2134846" lon="8.5547023"><ele>271.0</ele><time>2026-04-30T15:14:55.698Z</time></trkpt><trkpt lat="40.2134118" lon="8.5548258"><ele>271.0</ele><time>2026-04-30T15:14:56.696Z</time></trkpt><trkpt lat="40.213337" lon="8.5549512"><ele>271.0</ele><time>2026-04-30T15:14:57.698Z</time></trkpt><trkpt lat="40.2132585" lon="8.5550817"><ele>271.0</ele><time>2026-04-30T15:14:58.706Z</time></trkpt><trkpt lat="40.2131811" lon="8.5552112"><ele>271.25</ele><time>2026-04-30T15:14:59.695Z</time></trkpt><trkpt lat="40.2131152" lon="8.5553407"><ele>271.5</ele><time>2026-04-30T15:15:00.702Z</time></trkpt><trkpt lat="40.2130766" lon="8.5554775"><ele>271.75</ele><time>2026-04-30T15:15:01.701Z</time></trkpt><trkpt lat="40.2130657" lon="8.5556263"><ele>272.0</ele><time>2026-04-30T15:15:02.704Z</time></trkpt><trkpt lat="40.2130806" lon="8.5557829"><ele>272.0</ele><time>2026-04-30T15:15:03.694Z</time></trkpt><trkpt lat="40.2131182" lon="8.5559411"><ele>272.0</ele><time>2026-04-30T15:15:04.696Z</time></trkpt><trkpt lat="40.213175" lon="8.5561045"><ele>272.0</ele><time>2026-04-30T15:15:05.695Z</time></trkpt><trkpt lat="40.213245" lon="8.5562524"><ele>272.0</ele><time>2026-04-30T15:15:06.699Z</time></trkpt><trkpt lat="40.2133296" lon="8.556379"><ele>271.0</ele><time>2026-04-30T15:15:07.694Z</time></trkpt><trkpt lat="40.2134347" lon="8.5564877"><ele>270.0</ele><time>2026-04-30T15:15:08.694Z</time></trkpt><trkpt lat="40.2135544" lon="8.556581"><ele>269.0</ele><time>2026-04-30T15:15:09.695Z</time></trkpt><trkpt lat="40.2136759" lon="8.5566808"><ele>268.0</ele><time>2026-04-30T15:15:10.694Z</time></trkpt><trkpt lat="40.2137924" lon="8.5568039"><ele>268.0</ele><time>2026-04-30T15:15:11.695Z</time></trkpt><trkpt lat="40.2139029" lon="8.5569518"><ele>268.0</ele><time>2026-04-30T15:15:12.697Z</time></trkpt><trkpt lat="40.2140005" lon="8.5571229"><ele>268.0</ele><time>2026-04-30T15:15:13.693Z</time></trkpt><trkpt lat="40.2140834" lon="8.5572964"><ele>266.5</ele><time>2026-04-30T15:15:14.697Z</time></trkpt><trkpt lat="40.2141525" lon="8.5574627"><ele>265.0</ele><time>2026-04-30T15:15:15.696Z</time></trkpt><trkpt lat="40.2142116" lon="8.5576214"><ele>263.5</ele><time>2026-04-30T15:15:16.695Z</time></trkpt><trkpt lat="40.214247" lon="8.5577672"><ele>262.0</ele><time>2026-04-30T15:15:17.693Z</time></trkpt><trkpt lat="40.2142362" lon="8.5579036"><ele>262.0</ele><time>2026-04-30T15:15:18.695Z</time></trkpt><trkpt lat="40.2141891" lon="8.5580123"><ele>262.0</ele><time>2026-04-30T15:15:19.696Z</time></trkpt><trkpt lat="40.2141148" lon="8.5580765"><ele>262.0</ele><time>2026-04-30T15:15:20.695Z</time></trkpt><trkpt lat="40.2140199" lon="8.5581047"><ele>262.0</ele><time>2026-04-30T15:15:21.694Z</time></trkpt><trkpt lat="40.2139148" lon="8.558129"><ele>262.0</ele><time>2026-04-30T15:15:22.697Z</time></trkpt><trkpt lat="40.2138135" lon="8.5582054"><ele>260.25</ele><time>2026-04-30T15:15:23.695Z</time></trkpt><trkpt lat="40.2137182" lon="8.5583193"><ele>258.5</ele><time>2026-04-30T15:15:24.697Z</time></trkpt><trkpt lat="40.2136156" lon="8.5584609"><ele>256.75</ele><time>2026-04-30T15:15:25.701Z</time></trkpt><trkpt lat="40.2135041" lon="8.5586111"><ele>255.0</ele><time>2026-04-30T15:15:26.695Z</time></trkpt><trkpt lat="40.2133871" lon="8.5587717"><ele>255.0</ele><time>2026-04-30T15:15:27.697Z</time></trkpt><trkpt lat="40.2132619" lon="8.5589423"><ele>255.0</ele><time>2026-04-30T15:15:28.696Z</time></trkpt><trkpt lat="40.2131428" lon="8.5591031"><ele>255.0</ele><time>2026-04-30T15:15:29.703Z</time></trkpt><trkpt lat="40.2130262" lon="8.559258"><ele>252.25</ele><time>2026-04-30T15:15:30.697Z</time></trkpt><trkpt lat="40.21292" lon="8.5594027"><ele>249.5</ele><time>2026-04-30T15:15:31.697Z</time></trkpt><trkpt lat="40.212827" lon="8.5595378"><ele>246.75</ele><time>2026-04-30T15:15:32.694Z</time></trkpt><trkpt lat="40.2127554" lon="8.559676"><ele>244.0</ele><time>2026-04-30T15:15:33.697Z</time></trkpt><trkpt lat="40.2127106" lon="8.5598278"><ele>243.25</ele><time>2026-04-30T15:15:34.696Z</time></trkpt><trkpt lat="40.2127058" lon="8.5599969"><ele>242.5</ele><time>2026-04-30T15:15:35.693Z</time></trkpt><trkpt lat="40.2127293" lon="8.5601705"><ele>241.75</ele><time>2026-04-30T15:15:36.692Z</time></trkpt><trkpt lat="40.2127672" lon="8.560334"><ele>241.0</ele><time>2026-04-30T15:15:37.695Z</time></trkpt><trkpt lat="40.2128054" lon="8.5604889"><ele>240.75</ele><time>2026-04-30T15:15:38.697Z</time></trkpt><trkpt lat="40.2128369" lon="8.5606412"><ele>240.5</ele><time>2026-04-30T15:15:39.697Z</time></trkpt><trkpt lat="40.2128551" lon="8.5607895"><ele>240.25</ele><time>2026-04-30T15:15:40.698Z</time></trkpt><trkpt lat="40.2128456" lon="8.5609323"><ele>240.0</ele><time>2026-04-30T15:15:41.7Z</time></trkpt><trkpt lat="40.2128059" lon="8.5610637"><ele>240.0</ele><time>2026-04-30T15:15:42.697Z</time></trkpt><trkpt lat="40.2127346" lon="8.5611691"><ele>240.0</ele><time>2026-04-30T15:15:43.7Z</time></trkpt><trkpt lat="40.2126365" lon="8.5612462"><ele>240.0</ele><time>2026-04-30T15:15:44.695Z</time></trkpt><trkpt lat="40.2125188" lon="8.5612977"><ele>240.0</ele><time>2026-04-30T15:15:45.696Z</time></trkpt><trkpt lat="40.2123873" lon="8.5613437"><ele>240.75</ele><time>2026-04-30T15:15:46.694Z</time></trkpt><trkpt lat="40.2122461" lon="8.5613953"><ele>241.5</ele><time>2026-04-30T15:15:47.698Z</time></trkpt><trkpt lat="40.2120972" lon="8.5614491"><ele>242.25</ele><time>2026-04-30T15:15:48.699Z</time></trkpt><trkpt lat="40.2119605" lon="8.5614985"><ele>243.0</ele><time>2026-04-30T15:15:49.695Z</time></trkpt><trkpt lat="40.211839" lon="8.5615458"><ele>243.0</ele><time>2026-04-30T15:15:50.7Z</time></trkpt><trkpt lat="40.2117261" lon="8.5615868"><ele>243.0</ele><time>2026-04-30T15:15:51.695Z</time></trkpt><trkpt lat="40.2116119" lon="8.5616283"><ele>243.0</ele><time>2026-04-30T15:15:52.691Z</time></trkpt><trkpt lat="40.2114951" lon="8.5616778"><ele>243.0</ele><time>2026-04-30T15:15:53.695Z</time></trkpt><trkpt lat="40.2113765" lon="8.5617333"><ele>243.5</ele><time>2026-04-30T15:15:54.695Z</time></trkpt><trkpt lat="40.2112554" lon="8.5618014"><ele>244.0</ele><time>2026-04-30T15:15:55.698Z</time></trkpt><trkpt lat="40.2111363" lon="8.5618815"><ele>244.5</ele><time>2026-04-30T15:15:56.697Z</time></trkpt><trkpt lat="40.2110177" lon="8.5619742"><ele>245.0</ele><time>2026-04-30T15:15:57.697Z</time></trkpt><trkpt lat="40.2109069" lon="8.5620804"><ele>246.75</ele><time>2026-04-30T15:15:58.692Z</time></trkpt><trkpt lat="40.2108015" lon="8.5621982"><ele>248.5</ele><time>2026-04-30T15:15:59.697Z</time></trkpt><trkpt lat="40.2106973" lon="8.5623207"><ele>250.25</ele><time>2026-04-30T15:16:00.699Z</time></trkpt><trkpt lat="40.2105962" lon="8.5624436"><ele>252.0</ele><time>2026-04-30T15:16:01.696Z</time></trkpt><trkpt lat="40.2104992" lon="8.5625684"><ele>252.0</ele><time>2026-04-30T15:16:02.695Z</time></trkpt><trkpt lat="40.2104044" lon="8.5626942"><ele>252.0</ele><time>2026-04-30T15:16:03.701Z</time></trkpt><trkpt lat="40.2103089" lon="8.5628214"><ele>252.0</ele><time>2026-04-30T15:16:04.696Z</time></trkpt><trkpt lat="40.2102163" lon="8.5629507"><ele>252.0</ele><time>2026-04-30T15:16:05.699Z</time></trkpt><trkpt lat="40.2101214" lon="8.5630762"><ele>252.25</ele><time>2026-04-30T15:16:06.697Z</time></trkpt><trkpt lat="40.2100278" lon="8.5632036"><ele>252.5</ele><time>2026-04-30T15:16:07.698Z</time></trkpt><trkpt lat="40.2099316" lon="8.5633332"><ele>252.75</ele><time>2026-04-30T15:16:08.698Z</time></trkpt><trkpt lat="40.2098348" lon="8.5634612"><ele>253.0</ele><time>2026-04-30T15:16:09.698Z</time></trkpt><trkpt lat="40.2097413" lon="8.5635992"><ele>254.0</ele><time>2026-04-30T15:16:10.695Z</time></trkpt><trkpt lat="40.209654" lon="8.5637552"><ele>255.0</ele><time>2026-04-30T15:16:11.695Z</time></trkpt><trkpt lat="40.209582" lon="8.5639227"><ele>256.0</ele><time>2026-04-30T15:16:12.699Z</time></trkpt><trkpt lat="40.209523" lon="8.5641016"><ele>257.0</ele><time>2026-04-30T15:16:13.693Z</time></trkpt><trkpt lat="40.2094789" lon="8.5642885"><ele>257.0</ele><time>2026-04-30T15:16:14.697Z</time></trkpt><trkpt lat="40.2094618" lon="8.5644772"><ele>257.0</ele><time>2026-04-30T15:16:15.696Z</time></trkpt><trkpt lat="40.2094722" lon="8.5646658"><ele>257.0</ele><time>2026-04-30T15:16:16.698Z</time></trkpt><trkpt lat="40.2095071" lon="8.5648483"><ele>257.0</ele><time>2026-04-30T15:16:17.696Z</time></trkpt><trkpt lat="40.2095569" lon="8.5650264"><ele>258.0</ele><time>2026-04-30T15:16:18.697Z</time></trkpt><trkpt lat="40.2096127" lon="8.5652005"><ele>259.0</ele><time>2026-04-30T15:16:19.698Z</time></trkpt><trkpt lat="40.2096636" lon="8.5653635"><ele>260.0</ele><time>2026-04-30T15:16:20.706Z</time></trkpt><trkpt lat="40.2096998" lon="8.5655129"><ele>261.0</ele><time>2026-04-30T15:16:21.7Z</time></trkpt><trkpt lat="40.2097157" lon="8.5656547"><ele>261.8</ele><time>2026-04-30T15:16:22.698Z</time></trkpt><trkpt lat="40.2096973" lon="8.5657828"><ele>262.6</ele><time>2026-04-30T15:16:23.697Z</time></trkpt><trkpt lat="40.2096475" lon="8.5658853"><ele>263.4</ele><time>2026-04-30T15:16:24.694Z</time></trkpt><trkpt lat="40.209571" lon="8.5659519"><ele>264.2</ele><time>2026-04-30T15:16:25.7Z</time></trkpt><trkpt lat="40.2094732" lon="8.5659835"><ele>265.0</ele><time>2026-04-30T15:16:26.701Z</time></trkpt><trkpt lat="40.2093642" lon="8.5659786"><ele>265.0</ele><time>2026-04-30T15:16:27.698Z</time></trkpt><trkpt lat="40.2092569" lon="8.5659269"><ele>265.0</ele><time>2026-04-30T15:16:28.695Z</time></trkpt><trkpt lat="40.2091678" lon="8.5658273"><ele>265.0</ele><time>2026-04-30T15:16:29.697Z</time></trkpt><trkpt lat="40.209091" lon="8.5657061"><ele>265.0</ele><time>2026-04-30T15:16:30.698Z</time></trkpt><trkpt lat="40.2090126" lon="8.5655869"><ele>266.5</ele><time>2026-04-30T15:16:31.697Z</time></trkpt><trkpt lat="40.2089076" lon="8.5655058"><ele>268.0</ele><time>2026-04-30T15:16:32.697Z</time></trkpt><trkpt lat="40.2087925" lon="8.5654488"><ele>269.5</ele><time>2026-04-30T15:16:33.697Z</time></trkpt><trkpt lat="40.2086648" lon="8.565413"><ele>271.0</ele><time>2026-04-30T15:16:34.697Z</time></trkpt><trkpt lat="40.2085236" lon="8.5653865"><ele>271.0</ele><time>2026-04-30T15:16:35.703Z</time></trkpt><trkpt lat="40.208382" lon="8.5653661"><ele>271.0</ele><time>2026-04-30T15:16:36.698Z</time></trkpt><trkpt lat="40.2082522" lon="8.565349"><ele>271.0</ele><time>2026-04-30T15:16:37.697Z</time></trkpt><trkpt lat="40.2081165" lon="8.5653372"><ele>271.0</ele><time>2026-04-30T15:16:38.696Z</time></trkpt><trkpt lat="40.2079827" lon="8.5653273"><ele>271.5</ele><time>2026-04-30T15:16:39.697Z</time></trkpt><trkpt lat="40.2078492" lon="8.5653147"><ele>272.0</ele><time>2026-04-30T15:16:40.694Z</time></trkpt><trkpt lat="40.2077224" lon="8.5653028"><ele>272.5</ele><time>2026-04-30T15:16:41.698Z</time></trkpt><trkpt lat="40.2076081" lon="8.5652948"><ele>273.0</ele><time>2026-04-30T15:16:42.694Z</time></trkpt><trkpt lat="40.2075002" lon="8.5652921"><ele>273.0</ele><time>2026-04-30T15:16:43.694Z</time></trkpt><trkpt lat="40.2073898" lon="8.5652943"><ele>273.0</ele><time>2026-04-30T15:16:44.701Z</time></trkpt><trkpt lat="40.207276" lon="8.565305"><ele>273.0</ele><time>2026-04-30T15:16:45.695Z</time></trkpt><trkpt lat="40.2071578" lon="8.565323"><ele>273.0</ele><time>2026-04-30T15:16:46.694Z</time></trkpt><trkpt lat="40.207037" lon="8.5653437"><ele>277.75</ele><time>2026-04-30T15:16:47.696Z</time></trkpt><trkpt lat="40.206911" lon="8.5653643"><ele>282.5</ele><time>2026-04-30T15:16:48.697Z</time></trkpt><trkpt lat="40.2067897" lon="8.5653852"><ele>287.25</ele><time>2026-04-30T15:16:49.7Z</time></trkpt><trkpt lat="40.206677" lon="8.565406"><ele>292.0</ele><time>2026-04-30T15:16:50.695Z</time></trkpt><trkpt lat="40.2065643" lon="8.5654243"><ele>292.4</ele><time>2026-04-30T15:16:51.698Z</time></trkpt><trkpt lat="40.2064522" lon="8.5654431"><ele>292.79999999999995</ele><time>2026-04-30T15:16:52.697Z</time></trkpt><trkpt lat="40.2063432" lon="8.5654632"><ele>293.2</ele><time>2026-04-30T15:16:53.698Z</time></trkpt><trkpt lat="40.2062351" lon="8.5654833"><ele>293.59999999999997</ele><time>2026-04-30T15:16:54.702Z</time></trkpt><trkpt lat="40.2061263" lon="8.5655041"><ele>294.0</ele><time>2026-04-30T15:16:55.694Z</time></trkpt><trkpt lat="40.2060178" lon="8.5655238"><ele>294.0</ele><time>2026-04-30T15:16:56.695Z</time></trkpt><trkpt lat="40.205912" lon="8.5655424"><ele>294.0</ele><time>2026-04-30T15:16:57.698Z</time></trkpt><trkpt lat="40.205806" lon="8.5655653"><ele>294.0</ele><time>2026-04-30T15:16:58.695Z</time></trkpt><trkpt lat="40.2056979" lon="8.5655904"><ele>294.0</ele><time>2026-04-30T15:16:59.699Z</time></trkpt><trkpt lat="40.2055863" lon="8.5656155"><ele>294.0</ele><time>2026-04-30T15:17:00.697Z</time></trkpt><trkpt lat="40.205471" lon="8.5656476"><ele>294.25</ele><time>2026-04-30T15:17:01.697Z</time></trkpt><trkpt lat="40.2053544" lon="8.5656891"><ele>294.5</ele><time>2026-04-30T15:17:02.696Z</time></trkpt><trkpt lat="40.2052364" lon="8.5657398"><ele>294.75</ele><time>2026-04-30T15:17:03.696Z</time></trkpt><trkpt lat="40.2051162" lon="8.5658023"><ele>295.0</ele><time>2026-04-30T15:17:04.694Z</time></trkpt><trkpt lat="40.2049982" lon="8.5658799"><ele>295.0</ele><time>2026-04-30T15:17:05.697Z</time></trkpt><trkpt lat="40.2048827" lon="8.5659703"><ele>295.0</ele><time>2026-04-30T15:17:06.696Z</time></trkpt><trkpt lat="40.2047727" lon="8.5660772"><ele>295.0</ele><time>2026-04-30T15:17:07.697Z</time></trkpt><trkpt lat="40.2046696" lon="8.5661883"><ele>295.0</ele><time>2026-04-30T15:17:08.696Z</time></trkpt><trkpt lat="40.2045824" lon="8.5662941"><ele>297.0</ele><time>2026-04-30T15:17:09.697Z</time></trkpt><trkpt lat="40.2044983" lon="8.5664005"><ele>299.0</ele><time>2026-04-30T15:17:10.699Z</time></trkpt><trkpt lat="40.2044296" lon="8.5664981"><ele>301.0</ele><time>2026-04-30T15:17:11.696Z</time></trkpt><trkpt lat="40.2043732" lon="8.5665783"><ele>303.0</ele><time>2026-04-30T15:17:12.695Z</time></trkpt><trkpt lat="40.2043266" lon="8.5666448"><ele>305.0</ele><time>2026-04-30T15:17:13.697Z</time></trkpt><trkpt lat="40.2042509" lon="8.5667593"><ele>305.0</ele><time>2026-04-30T15:17:15.698Z</time></trkpt><trkpt lat="40.2041772" lon="8.5668763"><ele>305.0</ele><time>2026-04-30T15:17:17.695Z</time></trkpt><trkpt lat="40.2040892" lon="8.567006"><ele>305.0</ele><time>2026-04-30T15:17:19.697Z</time></trkpt><trkpt lat="40.2040364" lon="8.5670823"><ele>305.0</ele><time>2026-04-30T15:17:20.695Z</time></trkpt><trkpt lat="40.2039772" lon="8.5671659"><ele>305.0</ele><time>2026-04-30T15:17:21.7Z</time></trkpt><trkpt lat="40.2039123" lon="8.5672597"><ele>305.0</ele><time>2026-04-30T15:17:22.698Z</time></trkpt><trkpt lat="40.2038436" lon="8.5673628"><ele>305.0</ele><time>2026-04-30T15:17:23.7Z</time></trkpt><trkpt lat="40.2037681" lon="8.5674738"><ele>305.0</ele><time>2026-04-30T15:17:24.696Z</time></trkpt><trkpt lat="40.2036895" lon="8.5675886"><ele>305.0</ele><time>2026-04-30T15:17:25.698Z</time></trkpt><trkpt lat="40.2036097" lon="8.5677075"><ele>305.0</ele><time>2026-04-30T15:17:26.702Z</time></trkpt><trkpt lat="40.2035281" lon="8.5678307"><ele>305.0</ele><time>2026-04-30T15:17:27.696Z</time></trkpt><trkpt lat="40.2034443" lon="8.5679564"><ele>305.0</ele><time>2026-04-30T15:17:28.699Z</time></trkpt><trkpt lat="40.2033546" lon="8.5680855"><ele>305.0</ele><time>2026-04-30T15:17:29.697Z</time></trkpt><trkpt lat="40.2032613" lon="8.5682166"><ele>304.5</ele><time>2026-04-30T15:17:30.696Z</time></trkpt><trkpt lat="40.2031663" lon="8.5683537"><ele>304.0</ele><time>2026-04-30T15:17:31.697Z</time></trkpt><trkpt lat="40.2030677" lon="8.5684959"><ele>303.5</ele><time>2026-04-30T15:17:32.698Z</time></trkpt><trkpt lat="40.2029704" lon="8.5686365"><ele>303.0</ele><time>2026-04-30T15:17:33.696Z</time></trkpt><trkpt lat="40.2028834" lon="8.5687607"><ele>306.0</ele><time>2026-04-30T15:17:34.7Z</time></trkpt><trkpt lat="40.2028068" lon="8.5688641"><ele>309.0</ele><time>2026-04-30T15:17:35.695Z</time></trkpt><trkpt lat="40.2027369" lon="8.5689481"><ele>312.0</ele><time>2026-04-30T15:17:36.694Z</time></trkpt><trkpt lat="40.2026702" lon="8.5690172"><ele>315.0</ele><time>2026-04-30T15:17:37.695Z</time></trkpt><trkpt lat="40.2026021" lon="8.5690818"><ele>318.0</ele><time>2026-04-30T15:17:38.699Z</time></trkpt><trkpt lat="40.2025306" lon="8.56914"><ele>318.0</ele><time>2026-04-30T15:17:39.698Z</time></trkpt><trkpt lat="40.2024565" lon="8.5691964"><ele>318.0</ele><time>2026-04-30T15:17:40.699Z</time></trkpt><trkpt lat="40.2023832" lon="8.5692573"><ele>318.0</ele><time>2026-04-30T15:17:41.698Z</time></trkpt><trkpt lat="40.2023096" lon="8.5693289"><ele>318.0</ele><time>2026-04-30T15:17:42.7Z</time></trkpt><trkpt lat="40.2022395" lon="8.5694166"><ele>318.0</ele><time>2026-04-30T15:17:43.698Z</time></trkpt><trkpt lat="40.2021714" lon="8.5695252"><ele>317.5</ele><time>2026-04-30T15:17:44.697Z</time></trkpt><trkpt lat="40.2021141" lon="8.5696545"><ele>317.0</ele><time>2026-04-30T15:17:45.695Z</time></trkpt><trkpt lat="40.202077" lon="8.5698004"><ele>316.5</ele><time>2026-04-30T15:17:46.695Z</time></trkpt><trkpt lat="40.2020597" lon="8.5699581"><ele>316.0</ele><time>2026-04-30T15:17:47.694Z</time></trkpt><trkpt lat="40.2020643" lon="8.5701213"><ele>316.0</ele><time>2026-04-30T15:17:48.696Z</time></trkpt><trkpt lat="40.2020854" lon="8.5702845"><ele>316.0</ele><time>2026-04-30T15:17:49.695Z</time></trkpt><trkpt lat="40.2021042" lon="8.5704496"><ele>316.0</ele><time>2026-04-30T15:17:50.704Z</time></trkpt><trkpt lat="40.2021056" lon="8.5706219"><ele>316.0</ele><time>2026-04-30T15:17:51.695Z</time></trkpt><trkpt lat="40.2020793" lon="8.5707936"><ele>318.0</ele><time>2026-04-30T15:17:52.694Z</time></trkpt><trkpt lat="40.202025" lon="8.570954"><ele>320.0</ele><time>2026-04-30T15:17:53.696Z</time></trkpt><trkpt lat="40.2019574" lon="8.5711065"><ele>322.0</ele><time>2026-04-30T15:17:54.696Z</time></trkpt><trkpt lat="40.2018968" lon="8.5712695"><ele>324.0</ele><time>2026-04-30T15:17:55.696Z</time></trkpt><trkpt lat="40.201854" lon="8.5714476"><ele>326.25</ele><time>2026-04-30T15:17:56.697Z</time></trkpt><trkpt lat="40.2018248" lon="8.5716365"><ele>328.5</ele><time>2026-04-30T15:17:57.694Z</time></trkpt><trkpt lat="40.2017998" lon="8.5718289"><ele>330.75</ele><time>2026-04-30T15:17:58.695Z</time></trkpt><trkpt lat="40.201774" lon="8.5720102"><ele>333.0</ele><time>2026-04-30T15:17:59.695Z</time></trkpt><trkpt lat="40.2017405" lon="8.5721908"><ele>332.5</ele><time>2026-04-30T15:18:00.697Z</time></trkpt><trkpt lat="40.2016932" lon="8.5723625"><ele>332.0</ele><time>2026-04-30T15:18:01.694Z</time></trkpt><trkpt lat="40.2016312" lon="8.5725253"><ele>331.5</ele><time>2026-04-30T15:18:02.695Z</time></trkpt><trkpt lat="40.2015599" lon="8.572686"><ele>331.0</ele><time>2026-04-30T15:18:03.696Z</time></trkpt><trkpt lat="40.2014825" lon="8.572848"><ele>332.25</ele><time>2026-04-30T15:18:04.695Z</time></trkpt><trkpt lat="40.2014032" lon="8.5730122"><ele>333.5</ele><time>2026-04-30T15:18:05.699Z</time></trkpt><trkpt lat="40.2013224" lon="8.573173"><ele>334.75</ele><time>2026-04-30T15:18:06.696Z</time></trkpt><trkpt lat="40.2012413" lon="8.5733387"><ele>336.0</ele><time>2026-04-30T15:18:07.695Z</time></trkpt><trkpt lat="40.2011606" lon="8.5735035"><ele>336.0</ele><time>2026-04-30T15:18:08.698Z</time></trkpt><trkpt lat="40.2010815" lon="8.5736613"><ele>336.0</ele><time>2026-04-30T15:18:09.695Z</time></trkpt><trkpt lat="40.2010033" lon="8.5738122"><ele>336.0</ele><time>2026-04-30T15:18:10.695Z</time></trkpt><trkpt lat="40.2009298" lon="8.5739542"><ele>336.0</ele><time>2026-04-30T15:18:11.699Z</time></trkpt><trkpt lat="40.20085" lon="8.5740758"><ele>339.0</ele><time>2026-04-30T15:18:12.696Z</time></trkpt><trkpt lat="40.2007573" lon="8.5741673"><ele>342.0</ele><time>2026-04-30T15:18:13.695Z</time></trkpt><trkpt lat="40.2006513" lon="8.5742296"><ele>345.0</ele><time>2026-04-30T15:18:14.695Z</time></trkpt><trkpt lat="40.2005346" lon="8.5742586"><ele>348.0</ele><time>2026-04-30T15:18:15.694Z</time></trkpt><trkpt lat="40.2004058" lon="8.574267"><ele>348.25</ele><time>2026-04-30T15:18:16.698Z</time></trkpt><trkpt lat="40.2002757" lon="8.5742658"><ele>348.5</ele><time>2026-04-30T15:18:17.699Z</time></trkpt><trkpt lat="40.2001571" lon="8.5742629"><ele>348.75</ele><time>2026-04-30T15:18:18.704Z</time></trkpt><trkpt lat="40.2000487" lon="8.5742601"><ele>349.0</ele><time>2026-04-30T15:18:19.7Z</time></trkpt><trkpt lat="40.1999452" lon="8.5742563"><ele>349.0</ele><time>2026-04-30T15:18:20.703Z</time></trkpt><trkpt lat="40.1998427" lon="8.5742523"><ele>349.0</ele><time>2026-04-30T15:18:21.695Z</time></trkpt><trkpt lat="40.1997409" lon="8.5742526"><ele>349.0</ele><time>2026-04-30T15:18:22.706Z</time></trkpt><trkpt lat="40.1996364" lon="8.5742737"><ele>349.0</ele><time>2026-04-30T15:18:23.697Z</time></trkpt><trkpt lat="40.1995357" lon="8.5743238"><ele>349.0</ele><time>2026-04-30T15:18:24.699Z</time></trkpt><trkpt lat="40.1994493" lon="8.5744106"><ele>350.5</ele><time>2026-04-30T15:18:25.695Z</time></trkpt><trkpt lat="40.1993744" lon="8.5745334"><ele>352.0</ele><time>2026-04-30T15:18:26.692Z</time></trkpt><trkpt lat="40.1993092" lon="8.5746798"><ele>353.5</ele><time>2026-04-30T15:18:27.699Z</time></trkpt><trkpt lat="40.1992475" lon="8.5748501"><ele>355.0</ele><time>2026-04-30T15:18:28.699Z</time></trkpt><trkpt lat="40.1991849" lon="8.5750277"><ele>355.0</ele><time>2026-04-30T15:18:29.701Z</time></trkpt><trkpt lat="40.1991121" lon="8.5752238"><ele>355.0</ele><time>2026-04-30T15:18:30.699Z</time></trkpt><trkpt lat="40.1990376" lon="8.575441"><ele>355.0</ele><time>2026-04-30T15:18:31.697Z</time></trkpt><trkpt lat="40.1989591" lon="8.5756881"><ele>354.5</ele><time>2026-04-30T15:18:32.697Z</time></trkpt><trkpt lat="40.198863" lon="8.5759564"><ele>354.0</ele><time>2026-04-30T15:18:33.699Z</time></trkpt><trkpt lat="40.1987503" lon="8.576245"><ele>357.5</ele><time>2026-04-30T15:18:34.699Z</time></trkpt><trkpt lat="40.1986408" lon="8.5765347"><ele>361.0</ele><time>2026-04-30T15:18:35.696Z</time></trkpt><trkpt lat="40.1985454" lon="8.5767925"><ele>361.0</ele><time>2026-04-30T15:18:36.696Z</time></trkpt><trkpt lat="40.1984655" lon="8.5770093"><ele>361.0</ele><time>2026-04-30T15:18:37.694Z</time></trkpt><trkpt lat="40.1983953" lon="8.5771964"><ele>361.0</ele><time>2026-04-30T15:18:38.697Z</time></trkpt><trkpt lat="40.1983344" lon="8.5773647"><ele>362.5</ele><time>2026-04-30T15:18:39.695Z</time></trkpt><trkpt lat="40.1982799" lon="8.5775221"><ele>364.0</ele><time>2026-04-30T15:18:40.696Z</time></trkpt><trkpt lat="40.1982257" lon="8.5776616"><ele>365.5</ele><time>2026-04-30T15:18:41.698Z</time></trkpt><trkpt lat="40.1981627" lon="8.5777884"><ele>367.0</ele><time>2026-04-30T15:18:42.701Z</time></trkpt><trkpt lat="40.1980682" lon="8.5778791"><ele>369.0</ele><time>2026-04-30T15:18:43.699Z</time></trkpt><trkpt lat="40.1979506" lon="8.57794"><ele>371.0</ele><time>2026-04-30T15:18:44.704Z</time></trkpt><trkpt lat="40.1978214" lon="8.5779622"><ele>373.0</ele><time>2026-04-30T15:18:45.7Z</time></trkpt><trkpt lat="40.1976763" lon="8.5779681"><ele>375.0</ele><time>2026-04-30T15:18:46.696Z</time></trkpt><trkpt lat="40.1975079" lon="8.577977"><ele>376.6666666666667</ele><time>2026-04-30T15:18:47.696Z</time></trkpt><trkpt lat="40.1973113" lon="8.5779525"><ele>378.33333333333337</ele><time>2026-04-30T15:18:48.694Z</time></trkpt><trkpt lat="40.1971362" lon="8.5779181"><ele>380.0</ele><time>2026-04-30T15:18:49.695Z</time></trkpt><trkpt lat="40.196979" lon="8.5778671"><ele>379.0</ele><time>2026-04-30T15:18:50.693Z</time></trkpt><trkpt lat="40.1968423" lon="8.5777677"><ele>378.0</ele><time>2026-04-30T15:18:51.694Z</time></trkpt><trkpt lat="40.1967376" lon="8.5776265"><ele>377.0</ele><time>2026-04-30T15:18:52.694Z</time></trkpt><trkpt lat="40.1966707" lon="8.5774525"><ele>377.0</ele><time>2026-04-30T15:18:53.696Z</time></trkpt><trkpt lat="40.19663" lon="8.5772444"><ele>377.0</ele><time>2026-04-30T15:18:54.696Z</time></trkpt><trkpt lat="40.1965949" lon="8.577007"><ele>377.0</ele><time>2026-04-30T15:18:55.697Z</time></trkpt><trkpt lat="40.1965611" lon="8.5767409"><ele>377.5</ele><time>2026-04-30T15:18:56.697Z</time></trkpt><trkpt lat="40.1965214" lon="8.5764502"><ele>378.0</ele><time>2026-04-30T15:18:57.695Z</time></trkpt><trkpt lat="40.1964772" lon="8.5761299"><ele>387.0</ele><time>2026-04-30T15:18:58.697Z</time></trkpt><trkpt lat="40.1964371" lon="8.5758127"><ele>396.0</ele><time>2026-04-30T15:18:59.696Z</time></trkpt><trkpt lat="40.1963996" lon="8.5755207"><ele>397.0</ele><time>2026-04-30T15:19:00.695Z</time></trkpt><trkpt lat="40.1963609" lon="8.5752232"><ele>398.0</ele><time>2026-04-30T15:19:01.695Z</time></trkpt><trkpt lat="40.1963242" lon="8.5749317"><ele>398.0</ele><time>2026-04-30T15:19:02.695Z</time></trkpt><trkpt lat="40.1962941" lon="8.5746558"><ele>398.0</ele><time>2026-04-30T15:19:03.695Z</time></trkpt><trkpt lat="40.1962747" lon="8.5743972"><ele>398.0</ele><time>2026-04-30T15:19:04.698Z</time></trkpt><trkpt lat="40.1962963" lon="8.5741589"><ele>399.0</ele><time>2026-04-30T15:19:05.696Z</time></trkpt><trkpt lat="40.1963476" lon="8.5739233"><ele>400.0</ele><time>2026-04-30T15:19:06.699Z</time></trkpt><trkpt lat="40.1963922" lon="8.5737047"><ele>401.0</ele><time>2026-04-30T15:19:07.696Z</time></trkpt><trkpt lat="40.1964108" lon="8.5734947"><ele>401.5</ele><time>2026-04-30T15:19:08.696Z</time></trkpt><trkpt lat="40.1963927" lon="8.5732992"><ele>402.0</ele><time>2026-04-30T15:19:09.695Z</time></trkpt><trkpt lat="40.1963275" lon="8.5731294"><ele>402.5</ele><time>2026-04-30T15:19:10.698Z</time></trkpt><trkpt lat="40.196222" lon="8.5729906"><ele>403.0</ele><time>2026-04-30T15:19:11.694Z</time></trkpt><trkpt lat="40.1960823" lon="8.5728547"><ele>401.33333333333337</ele><time>2026-04-30T15:19:12.696Z</time></trkpt><trkpt lat="40.1959231" lon="8.5727032"><ele>399.66666666666663</ele><time>2026-04-30T15:19:13.696Z</time></trkpt><trkpt lat="40.195751" lon="8.5725329"><ele>398.0</ele><time>2026-04-30T15:19:14.695Z</time></trkpt><trkpt lat="40.1956029" lon="8.572386"><ele>398.0</ele><time>2026-04-30T15:19:15.694Z</time></trkpt><trkpt lat="40.195465" lon="8.5722663"><ele>398.0</ele><time>2026-04-30T15:19:16.696Z</time></trkpt><trkpt lat="40.1953263" lon="8.5721929"><ele>398.0</ele><time>2026-04-30T15:19:17.695Z</time></trkpt><trkpt lat="40.1951846" lon="8.5721827"><ele>398.0</ele><time>2026-04-30T15:19:18.696Z</time></trkpt><trkpt lat="40.19506" lon="8.5722361"><ele>398.0</ele><time>2026-04-30T15:19:19.693Z</time></trkpt><trkpt lat="40.1949499" lon="8.5723423"><ele>398.0</ele><time>2026-04-30T15:19:20.695Z</time></trkpt><trkpt lat="40.1948348" lon="8.5724903"><ele>398.0</ele><time>2026-04-30T15:19:21.695Z</time></trkpt><trkpt lat="40.1947042" lon="8.5726619"><ele>397.3333333333333</ele><time>2026-04-30T15:19:22.695Z</time></trkpt><trkpt lat="40.1945699" lon="8.572837"><ele>396.66666666666663</ele><time>2026-04-30T15:19:23.696Z</time></trkpt><trkpt lat="40.194455" lon="8.572976"><ele>396.0</ele><time>2026-04-30T15:19:24.695Z</time></trkpt><trkpt lat="40.1943335" lon="8.573094"><ele>399.25</ele><time>2026-04-30T15:19:25.694Z</time></trkpt><trkpt lat="40.194203" lon="8.5731616"><ele>402.5</ele><time>2026-04-30T15:19:26.694Z</time></trkpt><trkpt lat="40.1940688" lon="8.5731769"><ele>405.75</ele><time>2026-04-30T15:19:27.695Z</time></trkpt><trkpt lat="40.1939242" lon="8.573158"><ele>409.0</ele><time>2026-04-30T15:19:28.696Z</time></trkpt><trkpt lat="40.1938069" lon="8.5731466"><ele>408.6666666666667</ele><time>2026-04-30T15:19:29.695Z</time></trkpt><trkpt lat="40.1937073" lon="8.5731425"><ele>408.33333333333337</ele><time>2026-04-30T15:19:30.697Z</time></trkpt><trkpt lat="40.1936244" lon="8.5731219"><ele>408.0</ele><time>2026-04-30T15:19:31.698Z</time></trkpt><trkpt lat="40.193555" lon="8.5730801"><ele>407.66666666666663</ele><time>2026-04-30T15:19:32.697Z</time></trkpt><trkpt lat="40.1934844" lon="8.5730059"><ele>407.3333333333333</ele><time>2026-04-30T15:19:33.696Z</time></trkpt><trkpt lat="40.1934242" lon="8.5729091"><ele>407.0</ele><time>2026-04-30T15:19:34.694Z</time></trkpt><trkpt lat="40.1933812" lon="8.5728042"><ele>407.0</ele><time>2026-04-30T15:19:35.694Z</time></trkpt><trkpt lat="40.19336" lon="8.5726968"><ele>407.0</ele><time>2026-04-30T15:19:36.695Z</time></trkpt><trkpt lat="40.1933614" lon="8.5725831"><ele>407.0</ele><time>2026-04-30T15:19:37.696Z</time></trkpt><trkpt lat="40.1933767" lon="8.5724608"><ele>407.0</ele><time>2026-04-30T15:19:38.696Z</time></trkpt><trkpt lat="40.1933962" lon="8.5723213"><ele>407.0</ele><time>2026-04-30T15:19:39.696Z</time></trkpt><trkpt lat="40.1934159" lon="8.5721505"><ele>408.0</ele><time>2026-04-30T15:19:40.694Z</time></trkpt><trkpt lat="40.1934343" lon="8.5719537"><ele>409.0</ele><time>2026-04-30T15:19:41.696Z</time></trkpt><trkpt lat="40.1934436" lon="8.5717233"><ele>410.0</ele><time>2026-04-30T15:19:42.695Z</time></trkpt><trkpt lat="40.1934371" lon="8.5714643"><ele>410.0</ele><time>2026-04-30T15:19:43.697Z</time></trkpt><trkpt lat="40.1934065" lon="8.5711823"><ele>410.0</ele><time>2026-04-30T15:19:44.695Z</time></trkpt><trkpt lat="40.1933523" lon="8.5708655"><ele>410.0</ele><time>2026-04-30T15:19:45.697Z</time></trkpt><trkpt lat="40.1932814" lon="8.5705128"><ele>410.0</ele><time>2026-04-30T15:19:46.7Z</time></trkpt><trkpt lat="40.1932043" lon="8.5701299"><ele>411.0</ele><time>2026-04-30T15:19:47.694Z</time></trkpt><trkpt lat="40.1931296" lon="8.569768"><ele>412.0</ele><time>2026-04-30T15:19:48.697Z</time></trkpt><trkpt lat="40.19306" lon="8.5694297"><ele>409.5</ele><time>2026-04-30T15:19:49.695Z</time></trkpt><trkpt lat="40.1930099" lon="8.5690962"><ele>407.0</ele><time>2026-04-30T15:19:50.693Z</time></trkpt><trkpt lat="40.1929714" lon="8.5687565"><ele>409.0</ele><time>2026-04-30T15:19:51.696Z</time></trkpt><trkpt lat="40.1929502" lon="8.5684146"><ele>411.0</ele><time>2026-04-30T15:19:52.694Z</time></trkpt><trkpt lat="40.1929377" lon="8.5680746"><ele>412.5</ele><time>2026-04-30T15:19:53.697Z</time></trkpt><trkpt lat="40.1929285" lon="8.567749"><ele>414.0</ele><time>2026-04-30T15:19:54.696Z</time></trkpt><trkpt lat="40.1929167" lon="8.5674337"><ele>414.0</ele><time>2026-04-30T15:19:55.696Z</time></trkpt><trkpt lat="40.1929056" lon="8.5671278"><ele>414.0</ele><time>2026-04-30T15:19:56.692Z</time></trkpt><trkpt lat="40.1928919" lon="8.5668224"><ele>411.5</ele><time>2026-04-30T15:19:57.695Z</time></trkpt><trkpt lat="40.1928707" lon="8.5665192"><ele>409.0</ele><time>2026-04-30T15:19:58.697Z</time></trkpt><trkpt lat="40.1928362" lon="8.5662154"><ele>403.0</ele><time>2026-04-30T15:19:59.7Z</time></trkpt><trkpt lat="40.1927819" lon="8.5659105"><ele>397.0</ele><time>2026-04-30T15:20:00.702Z</time></trkpt><trkpt lat="40.1927083" lon="8.5656096"><ele>390.5</ele><time>2026-04-30T15:20:01.696Z</time></trkpt><trkpt lat="40.1926128" lon="8.5653247"><ele>384.0</ele><time>2026-04-30T15:20:02.701Z</time></trkpt><trkpt lat="40.1925027" lon="8.5650515"><ele>384.0</ele><time>2026-04-30T15:20:03.696Z</time></trkpt><trkpt lat="40.1923881" lon="8.564792"><ele>384.0</ele><time>2026-04-30T15:20:04.698Z</time></trkpt><trkpt lat="40.1922737" lon="8.5645394"><ele>386.66666666666663</ele><time>2026-04-30T15:20:05.698Z</time></trkpt><trkpt lat="40.1921586" lon="8.5642923"><ele>389.3333333333333</ele><time>2026-04-30T15:20:06.695Z</time></trkpt><trkpt lat="40.1920531" lon="8.5640549"><ele>392.0</ele><time>2026-04-30T15:20:07.696Z</time></trkpt><trkpt lat="40.1919619" lon="8.5638261"><ele>388.3333333333333</ele><time>2026-04-30T15:20:08.697Z</time></trkpt><trkpt lat="40.1918901" lon="8.5635898"><ele>384.66666666666663</ele><time>2026-04-30T15:20:09.694Z</time></trkpt><trkpt lat="40.1918491" lon="8.563348"><ele>381.0</ele><time>2026-04-30T15:20:10.698Z</time></trkpt><trkpt lat="40.1918462" lon="8.563102"><ele>380.3333333333333</ele><time>2026-04-30T15:20:11.694Z</time></trkpt><trkpt lat="40.1918786" lon="8.5628487"><ele>379.66666666666663</ele><time>2026-04-30T15:20:12.696Z</time></trkpt><trkpt lat="40.191949" lon="8.5625929"><ele>379.0</ele><time>2026-04-30T15:20:13.693Z</time></trkpt><trkpt lat="40.1920561" lon="8.5623253"><ele>379.0</ele><time>2026-04-30T15:20:14.696Z</time></trkpt><trkpt lat="40.19219" lon="8.5620528"><ele>379.0</ele><time>2026-04-30T15:20:15.703Z</time></trkpt><trkpt lat="40.1923312" lon="8.5617969"><ele>366.0</ele><time>2026-04-30T15:20:16.696Z</time></trkpt><trkpt lat="40.19248" lon="8.5615345"><ele>353.0</ele><time>2026-04-30T15:20:17.698Z</time></trkpt><trkpt lat="40.1926246" lon="8.5612728"><ele>355.0</ele><time>2026-04-30T15:20:18.695Z</time></trkpt><trkpt lat="40.1927651" lon="8.5610165"><ele>357.0</ele><time>2026-04-30T15:20:19.697Z</time></trkpt><trkpt lat="40.1928934" lon="8.5607745"><ele>357.0</ele><time>2026-04-30T15:20:20.699Z</time></trkpt><trkpt lat="40.1930108" lon="8.5605431"><ele>357.0</ele><time>2026-04-30T15:20:21.698Z</time></trkpt><trkpt lat="40.1931183" lon="8.5603245"><ele>357.0</ele><time>2026-04-30T15:20:22.697Z</time></trkpt><trkpt lat="40.1932214" lon="8.5601159"><ele>350.6666666666667</ele><time>2026-04-30T15:20:23.694Z</time></trkpt><trkpt lat="40.1933234" lon="8.5599126"><ele>344.33333333333337</ele><time>2026-04-30T15:20:24.695Z</time></trkpt><trkpt lat="40.1934185" lon="8.5597114"><ele>338.0</ele><time>2026-04-30T15:20:25.699Z</time></trkpt><trkpt lat="40.1934953" lon="8.5595032"><ele>338.0</ele><time>2026-04-30T15:20:26.698Z</time></trkpt><trkpt lat="40.1935422" lon="8.5592796"><ele>338.0</ele><time>2026-04-30T15:20:27.7Z</time></trkpt><trkpt lat="40.1935557" lon="8.5590441"><ele>338.0</ele><time>2026-04-30T15:20:28.699Z</time></trkpt><trkpt lat="40.1935317" lon="8.5588103"><ele>336.0</ele><time>2026-04-30T15:20:29.693Z</time></trkpt><trkpt lat="40.1934693" lon="8.5585801"><ele>334.0</ele><time>2026-04-30T15:20:30.699Z</time></trkpt><trkpt lat="40.1933781" lon="8.5583754"><ele>332.0</ele><time>2026-04-30T15:20:31.698Z</time></trkpt><trkpt lat="40.1932494" lon="8.5582047"><ele>330.0</ele><time>2026-04-30T15:20:32.697Z</time></trkpt><trkpt lat="40.1930895" lon="8.5580666"><ele>328.0</ele><time>2026-04-30T15:20:33.694Z</time></trkpt><trkpt lat="40.1928995" lon="8.5579727"><ele>326.0</ele><time>2026-04-30T15:20:34.706Z</time></trkpt><trkpt lat="40.192679" lon="8.5579043"><ele>320.5</ele><time>2026-04-30T15:20:35.695Z</time></trkpt><trkpt lat="40.1924401" lon="8.5578499"><ele>315.0</ele><time>2026-04-30T15:20:36.694Z</time></trkpt><trkpt lat="40.1921859" lon="8.5577894"><ele>314.0</ele><time>2026-04-30T15:20:37.694Z</time></trkpt><trkpt lat="40.1919402" lon="8.5577314"><ele>313.0</ele><time>2026-04-30T15:20:38.698Z</time></trkpt><trkpt lat="40.1916991" lon="8.5576761"><ele>314.0</ele><time>2026-04-30T15:20:39.695Z</time></trkpt><trkpt lat="40.1914624" lon="8.5576171"><ele>315.0</ele><time>2026-04-30T15:20:40.698Z</time></trkpt><trkpt lat="40.1912298" lon="8.5575617"><ele>315.0</ele><time>2026-04-30T15:20:41.699Z</time></trkpt><trkpt lat="40.1910042" lon="8.5575105"><ele>315.0</ele><time>2026-04-30T15:20:42.697Z</time></trkpt><trkpt lat="40.1907795" lon="8.5574616"><ele>314.3333333333333</ele><time>2026-04-30T15:20:43.698Z</time></trkpt><trkpt lat="40.190565" lon="8.557413"><ele>313.66666666666663</ele><time>2026-04-30T15:20:44.701Z</time></trkpt><trkpt lat="40.1903501" lon="8.5573625"><ele>313.0</ele><time>2026-04-30T15:20:45.697Z</time></trkpt><trkpt lat="40.190133" lon="8.5573151"><ele>313.0</ele><time>2026-04-30T15:20:46.692Z</time></trkpt><trkpt lat="40.1899156" lon="8.5572683"><ele>313.0</ele><time>2026-04-30T15:20:47.695Z</time></trkpt><trkpt lat="40.1896937" lon="8.5572243"><ele>313.0</ele><time>2026-04-30T15:20:48.701Z</time></trkpt><trkpt lat="40.1894717" lon="8.5571911"><ele>314.3333333333333</ele><time>2026-04-30T15:20:49.693Z</time></trkpt><trkpt lat="40.1892475" lon="8.5571749"><ele>315.6666666666667</ele><time>2026-04-30T15:20:50.706Z</time></trkpt><trkpt lat="40.1890233" lon="8.5571844"><ele>317.0</ele><time>2026-04-30T15:20:51.692Z</time></trkpt><trkpt lat="40.1887969" lon="8.557226"><ele>317.0</ele><time>2026-04-30T15:20:52.693Z</time></trkpt><trkpt lat="40.188573" lon="8.5572961"><ele>317.0</ele><time>2026-04-30T15:20:53.695Z</time></trkpt><trkpt lat="40.1883551" lon="8.5573929"><ele>319.6666666666667</ele><time>2026-04-30T15:20:54.695Z</time></trkpt><trkpt lat="40.188144" lon="8.5575093"><ele>322.3333333333333</ele><time>2026-04-30T15:20:55.694Z</time></trkpt><trkpt lat="40.1879482" lon="8.5576387"><ele>325.0</ele><time>2026-04-30T15:20:56.697Z</time></trkpt><trkpt lat="40.1877717" lon="8.5577622"><ele>326.3333333333333</ele><time>2026-04-30T15:20:57.694Z</time></trkpt><trkpt lat="40.1876134" lon="8.5578764"><ele>327.6666666666667</ele><time>2026-04-30T15:20:58.692Z</time></trkpt><trkpt lat="40.1874672" lon="8.5579838"><ele>329.0</ele><time>2026-04-30T15:20:59.692Z</time></trkpt><trkpt lat="40.1873244" lon="8.5580831"><ele>332.0</ele><time>2026-04-30T15:21:00.696Z</time></trkpt><trkpt lat="40.1871831" lon="8.5581627"><ele>335.0</ele><time>2026-04-30T15:21:01.695Z</time></trkpt><trkpt lat="40.1870307" lon="8.5582168"><ele>338.0</ele><time>2026-04-30T15:21:02.699Z</time></trkpt><trkpt lat="40.186866" lon="8.558253"><ele>338.0</ele><time>2026-04-30T15:21:03.695Z</time></trkpt><trkpt lat="40.1867096" lon="8.5582701"><ele>338.0</ele><time>2026-04-30T15:21:04.697Z</time></trkpt><trkpt lat="40.1865711" lon="8.5582773"><ele>338.0</ele><time>2026-04-30T15:21:05.694Z</time></trkpt><trkpt lat="40.1864473" lon="8.5582807"><ele>338.0</ele><time>2026-04-30T15:21:06.697Z</time></trkpt><trkpt lat="40.1863451" lon="8.5582739"><ele>340.0</ele><time>2026-04-30T15:21:07.695Z</time></trkpt><trkpt lat="40.1862605" lon="8.5582462"><ele>342.0</ele><time>2026-04-30T15:21:08.694Z</time></trkpt><trkpt lat="40.1861823" lon="8.558187"><ele>344.0</ele><time>2026-04-30T15:21:09.697Z</time></trkpt><trkpt lat="40.1861016" lon="8.5581058"><ele>346.0</ele><time>2026-04-30T15:21:10.695Z</time></trkpt><trkpt lat="40.1860128" lon="8.558025"><ele>348.0</ele><time>2026-04-30T15:21:11.695Z</time></trkpt><trkpt lat="40.1859067" lon="8.557997"><ele>348.0</ele><time>2026-04-30T15:21:12.698Z</time></trkpt><trkpt lat="40.1857953" lon="8.5579995"><ele>348.0</ele><time>2026-04-30T15:21:13.697Z</time></trkpt><trkpt lat="40.1856769" lon="8.5580091"><ele>348.0</ele><time>2026-04-30T15:21:14.696Z</time></trkpt><trkpt lat="40.1855588" lon="8.557979"><ele>348.0</ele><time>2026-04-30T15:21:15.693Z</time></trkpt><trkpt lat="40.1854413" lon="8.5579165"><ele>348.25</ele><time>2026-04-30T15:21:16.699Z</time></trkpt><trkpt lat="40.1853166" lon="8.5578612"><ele>348.5</ele><time>2026-04-30T15:21:17.697Z</time></trkpt><trkpt lat="40.1851911" lon="8.5578543"><ele>348.75</ele><time>2026-04-30T15:21:18.694Z</time></trkpt><trkpt lat="40.1850739" lon="8.557897"><ele>349.0</ele><time>2026-04-30T15:21:19.697Z</time></trkpt><trkpt lat="40.1849817" lon="8.5579848"><ele>349.0</ele><time>2026-04-30T15:21:20.697Z</time></trkpt><trkpt lat="40.1849097" lon="8.558122"><ele>349.0</ele><time>2026-04-30T15:21:21.696Z</time></trkpt><trkpt lat="40.1848446" lon="8.558297"><ele>349.0</ele><time>2026-04-30T15:21:22.696Z</time></trkpt><trkpt lat="40.1847675" lon="8.5585005"><ele>349.0</ele><time>2026-04-30T15:21:23.693Z</time></trkpt><trkpt lat="40.1846706" lon="8.5587269"><ele>343.66666666666663</ele><time>2026-04-30T15:21:24.696Z</time></trkpt><trkpt lat="40.1845622" lon="8.5589606"><ele>338.3333333333333</ele><time>2026-04-30T15:21:25.698Z</time></trkpt><trkpt lat="40.1844597" lon="8.5591852"><ele>333.0</ele><time>2026-04-30T15:21:26.695Z</time></trkpt><trkpt lat="40.1843696" lon="8.5594099"><ele>335.0</ele><time>2026-04-30T15:21:27.696Z</time></trkpt><trkpt lat="40.1842962" lon="8.5596364"><ele>337.0</ele><time>2026-04-30T15:21:28.694Z</time></trkpt><trkpt lat="40.1842413" lon="8.5598651"><ele>339.0</ele><time>2026-04-30T15:21:29.694Z</time></trkpt><trkpt lat="40.1841967" lon="8.5600927"><ele>339.0</ele><time>2026-04-30T15:21:30.696Z</time></trkpt><trkpt lat="40.1841479" lon="8.5603126"><ele>339.0</ele><time>2026-04-30T15:21:31.701Z</time></trkpt><trkpt lat="40.1840805" lon="8.5605137"><ele>339.0</ele><time>2026-04-30T15:21:32.695Z</time></trkpt><trkpt lat="40.1839976" lon="8.5606944"><ele>335.0</ele><time>2026-04-30T15:21:33.701Z</time></trkpt><trkpt lat="40.1838935" lon="8.5608441"><ele>331.0</ele><time>2026-04-30T15:21:34.693Z</time></trkpt><trkpt lat="40.1837697" lon="8.56098"><ele>327.0</ele><time>2026-04-30T15:21:35.696Z</time></trkpt><trkpt lat="40.1836318" lon="8.561117"><ele>331.0</ele><time>2026-04-30T15:21:36.697Z</time></trkpt><trkpt lat="40.1834969" lon="8.5612506"><ele>335.0</ele><time>2026-04-30T15:21:37.693Z</time></trkpt><trkpt lat="40.1833652" lon="8.5613733"><ele>339.0</ele><time>2026-04-30T15:21:38.694Z</time></trkpt><trkpt lat="40.1832416" lon="8.5614848"><ele>336.0</ele><time>2026-04-30T15:21:39.696Z</time></trkpt><trkpt lat="40.1831205" lon="8.5615803"><ele>333.0</ele><time>2026-04-30T15:21:40.695Z</time></trkpt><trkpt lat="40.1829927" lon="8.5616457"><ele>330.0</ele><time>2026-04-30T15:21:41.697Z</time></trkpt><trkpt lat="40.1828641" lon="8.5616646"><ele>327.0</ele><time>2026-04-30T15:21:42.697Z</time></trkpt><trkpt lat="40.182744" lon="8.5616299"><ele>327.0</ele><time>2026-04-30T15:21:43.697Z</time></trkpt><trkpt lat="40.1826364" lon="8.5615511"><ele>327.0</ele><time>2026-04-30T15:21:44.696Z</time></trkpt><trkpt lat="40.1825612" lon="8.5614318"><ele>327.0</ele><time>2026-04-30T15:21:45.697Z</time></trkpt><trkpt lat="40.1825157" lon="8.5612807"><ele>327.0</ele><time>2026-04-30T15:21:46.695Z</time></trkpt><trkpt lat="40.1825043" lon="8.5610873"><ele>325.6666666666667</ele><time>2026-04-30T15:21:47.697Z</time></trkpt><trkpt lat="40.1825168" lon="8.5608677"><ele>324.33333333333337</ele><time>2026-04-30T15:21:48.696Z</time></trkpt><trkpt lat="40.1825485" lon="8.5606214"><ele>323.0</ele><time>2026-04-30T15:21:49.695Z</time></trkpt><trkpt lat="40.1825846" lon="8.5603742"><ele>323.33333333333337</ele><time>2026-04-30T15:21:50.694Z</time></trkpt><trkpt lat="40.1826189" lon="8.5601348"><ele>323.6666666666667</ele><time>2026-04-30T15:21:51.693Z</time></trkpt><trkpt lat="40.1826518" lon="8.5599041"><ele>324.0</ele><time>2026-04-30T15:21:52.695Z</time></trkpt><trkpt lat="40.1826871" lon="8.5596803"><ele>326.3333333333333</ele><time>2026-04-30T15:21:53.695Z</time></trkpt><trkpt lat="40.1827358" lon="8.5594566"><ele>328.66666666666663</ele><time>2026-04-30T15:21:54.698Z</time></trkpt><trkpt lat="40.1827973" lon="8.559235"><ele>331.0</ele><time>2026-04-30T15:21:55.698Z</time></trkpt><trkpt lat="40.1828769" lon="8.5590147"><ele>331.0</ele><time>2026-04-30T15:21:56.694Z</time></trkpt><trkpt lat="40.1829644" lon="8.5588021"><ele>331.0</ele><time>2026-04-30T15:21:57.7Z</time></trkpt><trkpt lat="40.1830504" lon="8.5585957"><ele>331.0</ele><time>2026-04-30T15:21:58.696Z</time></trkpt><trkpt lat="40.1831327" lon="8.5583919"><ele>326.66666666666663</ele><time>2026-04-30T15:21:59.694Z</time></trkpt><trkpt lat="40.1832062" lon="8.5581915"><ele>322.3333333333333</ele><time>2026-04-30T15:22:00.694Z</time></trkpt><trkpt lat="40.1832747" lon="8.5579915"><ele>318.0</ele><time>2026-04-30T15:22:01.697Z</time></trkpt><trkpt lat="40.1833419" lon="8.5577911"><ele>318.0</ele><time>2026-04-30T15:22:02.696Z</time></trkpt><trkpt lat="40.1834109" lon="8.5575891"><ele>318.0</ele><time>2026-04-30T15:22:03.694Z</time></trkpt><trkpt lat="40.1834812" lon="8.5573861"><ele>318.0</ele><time>2026-04-30T15:22:04.695Z</time></trkpt><trkpt lat="40.1835531" lon="8.5571823"><ele>319.0</ele><time>2026-04-30T15:22:05.697Z</time></trkpt><trkpt lat="40.1836157" lon="8.5569805"><ele>320.0</ele><time>2026-04-30T15:22:06.695Z</time></trkpt><trkpt lat="40.1836617" lon="8.5567724"><ele>321.0</ele><time>2026-04-30T15:22:07.699Z</time></trkpt><trkpt lat="40.1836792" lon="8.556563"><ele>321.0</ele><time>2026-04-30T15:22:08.695Z</time></trkpt><trkpt lat="40.1836689" lon="8.5563515"><ele>321.0</ele><time>2026-04-30T15:22:09.697Z</time></trkpt><trkpt lat="40.1836386" lon="8.556139"><ele>321.0</ele><time>2026-04-30T15:22:10.699Z</time></trkpt><trkpt lat="40.1836053" lon="8.5559315"><ele>321.0</ele><time>2026-04-30T15:22:11.695Z</time></trkpt><trkpt lat="40.1835711" lon="8.5557237"><ele>321.0</ele><time>2026-04-30T15:22:12.695Z</time></trkpt><trkpt lat="40.1835409" lon="8.5555171"><ele>321.0</ele><time>2026-04-30T15:22:13.699Z</time></trkpt><trkpt lat="40.1835245" lon="8.5553163"><ele>322.6666666666667</ele><time>2026-04-30T15:22:14.696Z</time></trkpt><trkpt lat="40.1835213" lon="8.5551153"><ele>324.33333333333337</ele><time>2026-04-30T15:22:15.694Z</time></trkpt><trkpt lat="40.1835385" lon="8.5549065"><ele>326.0</ele><time>2026-04-30T15:22:16.692Z</time></trkpt><trkpt lat="40.1835717" lon="8.5546944"><ele>328.33333333333337</ele><time>2026-04-30T15:22:17.695Z</time></trkpt><trkpt lat="40.1836167" lon="8.5544829"><ele>330.6666666666667</ele><time>2026-04-30T15:22:18.693Z</time></trkpt><trkpt lat="40.1836652" lon="8.5542753"><ele>333.0</ele><time>2026-04-30T15:22:19.695Z</time></trkpt><trkpt lat="40.1837141" lon="8.5540675"><ele>333.0</ele><time>2026-04-30T15:22:20.693Z</time></trkpt><trkpt lat="40.1837615" lon="8.5538604"><ele>333.0</ele><time>2026-04-30T15:22:21.694Z</time></trkpt><trkpt lat="40.1838097" lon="8.5536544"><ele>333.0</ele><time>2026-04-30T15:22:22.697Z</time></trkpt><trkpt lat="40.183859" lon="8.5534494"><ele>334.0</ele><time>2026-04-30T15:22:23.697Z</time></trkpt><trkpt lat="40.1839059" lon="8.5532444"><ele>335.0</ele><time>2026-04-30T15:22:24.695Z</time></trkpt><trkpt lat="40.1839517" lon="8.5530385"><ele>336.0</ele><time>2026-04-30T15:22:25.694Z</time></trkpt><trkpt lat="40.1839926" lon="8.5528325"><ele>326.0</ele><time>2026-04-30T15:22:26.694Z</time></trkpt><trkpt lat="40.1840238" lon="8.5526236"><ele>316.0</ele><time>2026-04-30T15:22:27.696Z</time></trkpt><trkpt lat="40.184034" lon="8.5524216"><ele>306.0</ele><time>2026-04-30T15:22:28.694Z</time></trkpt><trkpt lat="40.1840196" lon="8.5522256"><ele>314.6666666666667</ele><time>2026-04-30T15:22:29.696Z</time></trkpt><trkpt lat="40.1839859" lon="8.5520312"><ele>323.33333333333337</ele><time>2026-04-30T15:22:30.695Z</time></trkpt><trkpt lat="40.1839563" lon="8.5518426"><ele>332.0</ele><time>2026-04-30T15:22:31.695Z</time></trkpt><trkpt lat="40.18395" lon="8.551646"><ele>332.0</ele><time>2026-04-30T15:22:32.697Z</time></trkpt><trkpt lat="40.1839612" lon="8.5514514"><ele>332.0</ele><time>2026-04-30T15:22:33.695Z</time></trkpt><trkpt lat="40.1839841" lon="8.5512609"><ele>332.0</ele><time>2026-04-30T15:22:34.695Z</time></trkpt><trkpt lat="40.18402" lon="8.5510699"><ele>332.0</ele><time>2026-04-30T15:22:35.699Z</time></trkpt><trkpt lat="40.18407" lon="8.5508738"><ele>324.33333333333337</ele><time>2026-04-30T15:22:36.693Z</time></trkpt><trkpt lat="40.1841336" lon="8.5506947"><ele>316.6666666666667</ele><time>2026-04-30T15:22:37.697Z</time></trkpt><trkpt lat="40.1842183" lon="8.5505251"><ele>309.0</ele><time>2026-04-30T15:22:38.694Z</time></trkpt><trkpt lat="40.1843241" lon="8.5503777"><ele>312.6666666666667</ele><time>2026-04-30T15:22:39.696Z</time></trkpt><trkpt lat="40.1844405" lon="8.5502463"><ele>316.33333333333337</ele><time>2026-04-30T15:22:40.706Z</time></trkpt><trkpt lat="40.1845457" lon="8.5501157"><ele>320.0</ele><time>2026-04-30T15:22:41.696Z</time></trkpt><trkpt lat="40.1846436" lon="8.5499643"><ele>320.0</ele><time>2026-04-30T15:22:42.696Z</time></trkpt><trkpt lat="40.1847272" lon="8.5497992"><ele>320.0</ele><time>2026-04-30T15:22:43.696Z</time></trkpt><trkpt lat="40.1847954" lon="8.5496137"><ele>320.0</ele><time>2026-04-30T15:22:44.694Z</time></trkpt><trkpt lat="40.1848438" lon="8.5494106"><ele>317.0</ele><time>2026-04-30T15:22:45.698Z</time></trkpt><trkpt lat="40.184879" lon="8.5491979"><ele>314.0</ele><time>2026-04-30T15:22:46.699Z</time></trkpt><trkpt lat="40.1849074" lon="8.5489784"><ele>311.0</ele><time>2026-04-30T15:22:47.694Z</time></trkpt><trkpt lat="40.184936" lon="8.5487607"><ele>312.0</ele><time>2026-04-30T15:22:48.696Z</time></trkpt><trkpt lat="40.1849628" lon="8.5485589"><ele>313.0</ele><time>2026-04-30T15:22:49.697Z</time></trkpt><trkpt lat="40.1849871" lon="8.548376"><ele>314.0</ele><time>2026-04-30T15:22:50.694Z</time></trkpt><trkpt lat="40.1850073" lon="8.5482126"><ele>315.0</ele><time>2026-04-30T15:22:51.7Z</time></trkpt><trkpt lat="40.1850263" lon="8.5480651"><ele>315.0</ele><time>2026-04-30T15:22:52.697Z</time></trkpt><trkpt lat="40.1850446" lon="8.5479299"><ele>315.0</ele><time>2026-04-30T15:22:53.694Z</time></trkpt><trkpt lat="40.1850596" lon="8.5478142"><ele>315.0</ele><time>2026-04-30T15:22:54.693Z</time></trkpt><trkpt lat="40.1850727" lon="8.5477099"><ele>315.0</ele><time>2026-04-30T15:22:55.696Z</time></trkpt><trkpt lat="40.1850842" lon="8.5476132"><ele>315.0</ele><time>2026-04-30T15:22:56.693Z</time></trkpt><trkpt lat="40.1850902" lon="8.5475153"><ele>315.0</ele><time>2026-04-30T15:22:57.698Z</time></trkpt><trkpt lat="40.1850856" lon="8.5474131"><ele>315.0</ele><time>2026-04-30T15:22:58.696Z</time></trkpt><trkpt lat="40.1850607" lon="8.5473095"><ele>315.0</ele><time>2026-04-30T15:22:59.694Z</time></trkpt><trkpt lat="40.1850148" lon="8.5471986"><ele>315.0</ele><time>2026-04-30T15:23:00.7Z</time></trkpt><trkpt lat="40.1849509" lon="8.5470847"><ele>315.0</ele><time>2026-04-30T15:23:01.695Z</time></trkpt><trkpt lat="40.1848784" lon="8.5469641"><ele>315.0</ele><time>2026-04-30T15:23:02.695Z</time></trkpt><trkpt lat="40.1848006" lon="8.5468351"><ele>315.0</ele><time>2026-04-30T15:23:03.698Z</time></trkpt><trkpt lat="40.1847153" lon="8.5466974"><ele>315.0</ele><time>2026-04-30T15:23:04.698Z</time></trkpt><trkpt lat="40.1846228" lon="8.5465498"><ele>315.0</ele><time>2026-04-30T15:23:05.694Z</time></trkpt><trkpt lat="40.1845246" lon="8.5463917"><ele>315.0</ele><time>2026-04-30T15:23:06.695Z</time></trkpt><trkpt lat="40.1844238" lon="8.5462282"><ele>312.6666666666667</ele><time>2026-04-30T15:23:07.695Z</time></trkpt><trkpt lat="40.1843224" lon="8.5460631"><ele>310.33333333333337</ele><time>2026-04-30T15:23:08.695Z</time></trkpt><trkpt lat="40.1842177" lon="8.5458915"><ele>308.0</ele><time>2026-04-30T15:23:09.695Z</time></trkpt><trkpt lat="40.1841086" lon="8.5457131"><ele>308.0</ele><time>2026-04-30T15:23:10.695Z</time></trkpt><trkpt lat="40.1839876" lon="8.545524"><ele>308.0</ele><time>2026-04-30T15:23:11.697Z</time></trkpt><trkpt lat="40.183844" lon="8.5453099"><ele>308.0</ele><time>2026-04-30T15:23:12.697Z</time></trkpt><trkpt lat="40.1836837" lon="8.5450677"><ele>305.0</ele><time>2026-04-30T15:23:13.696Z</time></trkpt><trkpt lat="40.1835076" lon="8.5447922"><ele>302.0</ele><time>2026-04-30T15:23:14.698Z</time></trkpt><trkpt lat="40.1833073" lon="8.5444679"><ele>298.5</ele><time>2026-04-30T15:23:15.695Z</time></trkpt><trkpt lat="40.1830952" lon="8.5441234"><ele>295.0</ele><time>2026-04-30T15:23:16.696Z</time></trkpt><trkpt lat="40.1828758" lon="8.5437597"><ele>291.5</ele><time>2026-04-30T15:23:17.695Z</time></trkpt><trkpt lat="40.182668" lon="8.5434128"><ele>288.0</ele><time>2026-04-30T15:23:18.696Z</time></trkpt><trkpt lat="40.1824665" lon="8.543079"><ele>285.0</ele><time>2026-04-30T15:23:19.693Z</time></trkpt><trkpt lat="40.1822652" lon="8.5427524"><ele>282.0</ele><time>2026-04-30T15:23:20.694Z</time></trkpt><trkpt lat="40.1820621" lon="8.5424256"><ele>282.0</ele><time>2026-04-30T15:23:21.697Z</time></trkpt><trkpt lat="40.1818582" lon="8.5420946"><ele>282.0</ele><time>2026-04-30T15:23:22.697Z</time></trkpt><trkpt lat="40.1816517" lon="8.5417625"><ele>279.5</ele><time>2026-04-30T15:23:23.7Z</time></trkpt><trkpt lat="40.1814519" lon="8.5414424"><ele>277.0</ele><time>2026-04-30T15:23:24.696Z</time></trkpt><trkpt lat="40.1812605" lon="8.5411369"><ele>275.5</ele><time>2026-04-30T15:23:25.696Z</time></trkpt><trkpt lat="40.1810723" lon="8.5408341"><ele>274.0</ele><time>2026-04-30T15:23:26.695Z</time></trkpt><trkpt lat="40.1808882" lon="8.5405381"><ele>274.5</ele><time>2026-04-30T15:23:27.698Z</time></trkpt><trkpt lat="40.1807059" lon="8.5402441"><ele>275.0</ele><time>2026-04-30T15:23:28.701Z</time></trkpt><trkpt lat="40.1805238" lon="8.5399531"><ele>275.0</ele><time>2026-04-30T15:23:29.699Z</time></trkpt><trkpt lat="40.1803415" lon="8.539664"><ele>275.0</ele><time>2026-04-30T15:23:30.697Z</time></trkpt><trkpt lat="40.1801583" lon="8.5393726"><ele>273.5</ele><time>2026-04-30T15:23:31.694Z</time></trkpt><trkpt lat="40.1799773" lon="8.5390827"><ele>272.0</ele><time>2026-04-30T15:23:32.697Z</time></trkpt><trkpt lat="40.1798113" lon="8.5388136"><ele>274.5</ele><time>2026-04-30T15:23:33.697Z</time></trkpt><trkpt lat="40.1796599" lon="8.538566"><ele>277.0</ele><time>2026-04-30T15:23:34.696Z</time></trkpt><trkpt lat="40.1795161" lon="8.5383323"><ele>277.0</ele><time>2026-04-30T15:23:35.697Z</time></trkpt><trkpt lat="40.1793812" lon="8.5381169"><ele>277.0</ele><time>2026-04-30T15:23:36.694Z</time></trkpt><trkpt lat="40.1792563" lon="8.537914"><ele>277.0</ele><time>2026-04-30T15:23:37.695Z</time></trkpt><trkpt lat="40.1791398" lon="8.5377244"><ele>277.0</ele><time>2026-04-30T15:23:38.698Z</time></trkpt><trkpt lat="40.1790263" lon="8.5375508"><ele>277.0</ele><time>2026-04-30T15:23:39.697Z</time></trkpt><trkpt lat="40.1789027" lon="8.5374014"><ele>277.0</ele><time>2026-04-30T15:23:40.696Z</time></trkpt><trkpt lat="40.1787592" lon="8.5372743"><ele>277.0</ele><time>2026-04-30T15:23:41.699Z</time></trkpt><trkpt lat="40.1785961" lon="8.5371592"><ele>277.0</ele><time>2026-04-30T15:23:42.695Z</time></trkpt><trkpt lat="40.1784139" lon="8.5370388"><ele>277.0</ele><time>2026-04-30T15:23:43.696Z</time></trkpt><trkpt lat="40.1782212" lon="8.5369092"><ele>277.0</ele><time>2026-04-30T15:23:44.696Z</time></trkpt><trkpt lat="40.1780147" lon="8.536772"><ele>277.0</ele><time>2026-04-30T15:23:45.7Z</time></trkpt><trkpt lat="40.1778079" lon="8.5366365"><ele>277.0</ele><time>2026-04-30T15:23:46.696Z</time></trkpt><trkpt lat="40.1776019" lon="8.536502"><ele>277.0</ele><time>2026-04-30T15:23:47.694Z</time></trkpt><trkpt lat="40.1774036" lon="8.536368"><ele>277.0</ele><time>2026-04-30T15:23:48.693Z</time></trkpt><trkpt lat="40.1772242" lon="8.5362464"><ele>277.0</ele><time>2026-04-30T15:23:49.693Z</time></trkpt><trkpt lat="40.1770543" lon="8.5361294"><ele>277.0</ele><time>2026-04-30T15:23:50.693Z</time></trkpt><trkpt lat="40.1768849" lon="8.5360131"><ele>277.0</ele><time>2026-04-30T15:23:51.696Z</time></trkpt><trkpt lat="40.1767066" lon="8.5358942"><ele>277.0</ele><time>2026-04-30T15:23:52.693Z</time></trkpt><trkpt lat="40.1765234" lon="8.5357735"><ele>277.0</ele><time>2026-04-30T15:23:53.696Z</time></trkpt><trkpt lat="40.1763417" lon="8.5356529"><ele>277.3333333333333</ele><time>2026-04-30T15:23:54.696Z</time></trkpt><trkpt lat="40.1761608" lon="8.5355317"><ele>277.6666666666667</ele><time>2026-04-30T15:23:55.698Z</time></trkpt><trkpt lat="40.1759887" lon="8.5354164"><ele>278.0</ele><time>2026-04-30T15:23:56.696Z</time></trkpt><trkpt lat="40.1758205" lon="8.5353047"><ele>279.0</ele><time>2026-04-30T15:23:57.697Z</time></trkpt><trkpt lat="40.175649" lon="8.535193"><ele>280.0</ele><time>2026-04-30T15:23:58.695Z</time></trkpt><trkpt lat="40.1754758" lon="8.5350799"><ele>281.0</ele><time>2026-04-30T15:23:59.698Z</time></trkpt><trkpt lat="40.1753023" lon="8.5349634"><ele>281.0</ele><time>2026-04-30T15:24:00.701Z</time></trkpt><trkpt lat="40.175124" lon="8.5348446"><ele>281.0</ele><time>2026-04-30T15:24:01.698Z</time></trkpt><trkpt lat="40.1749417" lon="8.5347218"><ele>281.0</ele><time>2026-04-30T15:24:02.696Z</time></trkpt><trkpt lat="40.1747534" lon="8.5345952"><ele>280.6666666666667</ele><time>2026-04-30T15:24:03.694Z</time></trkpt><trkpt lat="40.1745733" lon="8.5344744"><ele>280.3333333333333</ele><time>2026-04-30T15:24:04.698Z</time></trkpt><trkpt lat="40.1744009" lon="8.5343603"><ele>280.0</ele><time>2026-04-30T15:24:05.699Z</time></trkpt><trkpt lat="40.1742293" lon="8.5342462"><ele>280.0</ele><time>2026-04-30T15:24:06.698Z</time></trkpt><trkpt lat="40.1740529" lon="8.5341273"><ele>280.0</ele><time>2026-04-30T15:24:07.695Z</time></trkpt><trkpt lat="40.1738699" lon="8.5340048"><ele>280.0</ele><time>2026-04-30T15:24:08.695Z</time></trkpt><trkpt lat="40.1736813" lon="8.5338784"><ele>280.66666666666663</ele><time>2026-04-30T15:24:09.693Z</time></trkpt><trkpt lat="40.1734848" lon="8.5337452"><ele>281.3333333333333</ele><time>2026-04-30T15:24:10.699Z</time></trkpt><trkpt lat="40.1732852" lon="8.5336088"><ele>282.0</ele><time>2026-04-30T15:24:11.691Z</time></trkpt><trkpt lat="40.1730816" lon="8.5334693"><ele>279.0</ele><time>2026-04-30T15:24:12.694Z</time></trkpt><trkpt lat="40.1728714" lon="8.5333258"><ele>276.0</ele><time>2026-04-30T15:24:13.695Z</time></trkpt><trkpt lat="40.1726541" lon="8.5331786"><ele>276.0</ele><time>2026-04-30T15:24:14.693Z</time></trkpt><trkpt lat="40.1724308" lon="8.5330251"><ele>276.0</ele><time>2026-04-30T15:24:15.694Z</time></trkpt><trkpt lat="40.1722018" lon="8.5328673"><ele>274.5</ele><time>2026-04-30T15:24:16.696Z</time></trkpt><trkpt lat="40.1719714" lon="8.532709"><ele>273.0</ele><time>2026-04-30T15:24:17.696Z</time></trkpt><trkpt lat="40.1717431" lon="8.5325514"><ele>273.5</ele><time>2026-04-30T15:24:18.696Z</time></trkpt><trkpt lat="40.171523" lon="8.5323997"><ele>274.0</ele><time>2026-04-30T15:24:19.695Z</time></trkpt><trkpt lat="40.1713141" lon="8.5322561"><ele>274.0</ele><time>2026-04-30T15:24:20.695Z</time></trkpt><trkpt lat="40.1711113" lon="8.5321152"><ele>274.0</ele><time>2026-04-30T15:24:21.697Z</time></trkpt><trkpt lat="40.1709129" lon="8.5319786"><ele>274.0</ele><time>2026-04-30T15:24:22.696Z</time></trkpt><trkpt lat="40.1707115" lon="8.5318414"><ele>274.0</ele><time>2026-04-30T15:24:23.697Z</time></trkpt><trkpt lat="40.1705109" lon="8.5317005"><ele>274.0</ele><time>2026-04-30T15:24:24.694Z</time></trkpt><trkpt lat="40.1703098" lon="8.5315631"><ele>274.0</ele><time>2026-04-30T15:24:25.693Z</time></trkpt><trkpt lat="40.1701101" lon="8.5314281"><ele>274.0</ele><time>2026-04-30T15:24:26.695Z</time></trkpt><trkpt lat="40.1699114" lon="8.5312912"><ele>274.0</ele><time>2026-04-30T15:24:27.693Z</time></trkpt><trkpt lat="40.1697114" lon="8.5311566"><ele>274.0</ele><time>2026-04-30T15:24:28.696Z</time></trkpt><trkpt lat="40.1695118" lon="8.5310208"><ele>273.0</ele><time>2026-04-30T15:24:29.696Z</time></trkpt><trkpt lat="40.169312" lon="8.530881"><ele>272.0</ele><time>2026-04-30T15:24:30.699Z</time></trkpt><trkpt lat="40.1691119" lon="8.5307385"><ele>272.5</ele><time>2026-04-30T15:24:31.698Z</time></trkpt><trkpt lat="40.1689079" lon="8.5305942"><ele>273.0</ele><time>2026-04-30T15:24:32.699Z</time></trkpt><trkpt lat="40.1686977" lon="8.5304506"><ele>271.0</ele><time>2026-04-30T15:24:33.697Z</time></trkpt><trkpt lat="40.1684847" lon="8.5303052"><ele>269.0</ele><time>2026-04-30T15:24:34.695Z</time></trkpt><trkpt lat="40.1682713" lon="8.5301576"><ele>270.0</ele><time>2026-04-30T15:24:35.695Z</time></trkpt><trkpt lat="40.16806" lon="8.5300116"><ele>271.0</ele><time>2026-04-30T15:24:36.696Z</time></trkpt><trkpt lat="40.1678451" lon="8.5298711"><ele>271.0</ele><time>2026-04-30T15:24:37.693Z</time></trkpt><trkpt lat="40.1676269" lon="8.5297452"><ele>271.0</ele><time>2026-04-30T15:24:38.695Z</time></trkpt><trkpt lat="40.1674029" lon="8.5296373"><ele>269.0</ele><time>2026-04-30T15:24:39.7Z</time></trkpt><trkpt lat="40.1671682" lon="8.5295457"><ele>267.0</ele><time>2026-04-30T15:24:40.693Z</time></trkpt><trkpt lat="40.1669224" lon="8.5294646"><ele>267.0</ele><time>2026-04-30T15:24:41.699Z</time></trkpt><trkpt lat="40.1666688" lon="8.5293913"><ele>267.0</ele><time>2026-04-30T15:24:42.702Z</time></trkpt><trkpt lat="40.1664041" lon="8.5293203"><ele>267.0</ele><time>2026-04-30T15:24:43.696Z</time></trkpt><trkpt lat="40.1661308" lon="8.5292472"><ele>267.0</ele><time>2026-04-30T15:24:44.701Z</time></trkpt><trkpt lat="40.1658719" lon="8.5291773"><ele>267.5</ele><time>2026-04-30T15:24:45.698Z</time></trkpt><trkpt lat="40.1656157" lon="8.5291081"><ele>268.0</ele><time>2026-04-30T15:24:46.697Z</time></trkpt><trkpt lat="40.1653577" lon="8.5290389"><ele>268.0</ele><time>2026-04-30T15:24:47.695Z</time></trkpt><trkpt lat="40.1650962" lon="8.5289686"><ele>268.0</ele><time>2026-04-30T15:24:48.695Z</time></trkpt><trkpt lat="40.1648318" lon="8.5288983"><ele>268.0</ele><time>2026-04-30T15:24:49.699Z</time></trkpt><trkpt lat="40.1645658" lon="8.5288272"><ele>268.0</ele><time>2026-04-30T15:24:50.697Z</time></trkpt><trkpt lat="40.1642949" lon="8.5287552"><ele>266.5</ele><time>2026-04-30T15:24:51.695Z</time></trkpt><trkpt lat="40.1640247" lon="8.5286837"><ele>265.0</ele><time>2026-04-30T15:24:52.699Z</time></trkpt><trkpt lat="40.1637692" lon="8.5286173"><ele>265.0</ele><time>2026-04-30T15:24:53.696Z</time></trkpt><trkpt lat="40.1635232" lon="8.5285514"><ele>265.0</ele><time>2026-04-30T15:24:54.698Z</time></trkpt><trkpt lat="40.1632779" lon="8.5284857"><ele>266.5</ele><time>2026-04-30T15:24:55.695Z</time></trkpt><trkpt lat="40.1630315" lon="8.5284208"><ele>268.0</ele><time>2026-04-30T15:24:56.696Z</time></trkpt><trkpt lat="40.162784" lon="8.528355"><ele>268.0</ele><time>2026-04-30T15:24:57.694Z</time></trkpt><trkpt lat="40.1625368" lon="8.5282894"><ele>268.0</ele><time>2026-04-30T15:24:58.698Z</time></trkpt><trkpt lat="40.16229" lon="8.5282226"><ele>270.5</ele><time>2026-04-30T15:24:59.7Z</time></trkpt><trkpt lat="40.1620531" lon="8.5281581"><ele>273.0</ele><time>2026-04-30T15:25:00.698Z</time></trkpt><trkpt lat="40.1618218" lon="8.5280959"><ele>273.0</ele><time>2026-04-30T15:25:01.697Z</time></trkpt><trkpt lat="40.1615933" lon="8.5280341"><ele>273.0</ele><time>2026-04-30T15:25:02.695Z</time></trkpt><trkpt lat="40.1613658" lon="8.5279718"><ele>273.0</ele><time>2026-04-30T15:25:03.7Z</time></trkpt><trkpt lat="40.1611385" lon="8.5279095"><ele>273.0</ele><time>2026-04-30T15:25:04.692Z</time></trkpt><trkpt lat="40.1609069" lon="8.5278444"><ele>269.0</ele><time>2026-04-30T15:25:05.697Z</time></trkpt><trkpt lat="40.1606685" lon="8.5277793"><ele>265.0</ele><time>2026-04-30T15:25:06.696Z</time></trkpt><trkpt lat="40.1604271" lon="8.5277135"><ele>265.0</ele><time>2026-04-30T15:25:07.695Z</time></trkpt><trkpt lat="40.1601838" lon="8.5276475"><ele>265.0</ele><time>2026-04-30T15:25:08.698Z</time></trkpt><trkpt lat="40.1599371" lon="8.5275817"><ele>264.0</ele><time>2026-04-30T15:25:09.704Z</time></trkpt><trkpt lat="40.1596872" lon="8.5275156"><ele>263.0</ele><time>2026-04-30T15:25:10.692Z</time></trkpt><trkpt lat="40.1594345" lon="8.5274469"><ele>263.0</ele><time>2026-04-30T15:25:11.698Z</time></trkpt><trkpt lat="40.1591789" lon="8.5273768"><ele>263.0</ele><time>2026-04-30T15:25:12.696Z</time></trkpt><trkpt lat="40.1589198" lon="8.5273059"><ele>262.0</ele><time>2026-04-30T15:25:13.695Z</time></trkpt><trkpt lat="40.1586581" lon="8.5272333"><ele>261.0</ele><time>2026-04-30T15:25:14.696Z</time></trkpt><trkpt lat="40.1584066" lon="8.5271632"><ele>259.5</ele><time>2026-04-30T15:25:15.698Z</time></trkpt><trkpt lat="40.1581615" lon="8.5270945"><ele>258.0</ele><time>2026-04-30T15:25:16.694Z</time></trkpt><trkpt lat="40.1579223" lon="8.5270298"><ele>255.0</ele><time>2026-04-30T15:25:17.696Z</time></trkpt><trkpt lat="40.1576835" lon="8.5269651"><ele>252.0</ele><time>2026-04-30T15:25:18.693Z</time></trkpt><trkpt lat="40.1574528" lon="8.5269022"><ele>249.5</ele><time>2026-04-30T15:25:19.695Z</time></trkpt><trkpt lat="40.1572282" lon="8.52684"><ele>247.0</ele><time>2026-04-30T15:25:20.696Z</time></trkpt><trkpt lat="40.1570094" lon="8.5267796"><ele>247.0</ele><time>2026-04-30T15:25:21.695Z</time></trkpt><trkpt lat="40.1567971" lon="8.5267219"><ele>247.0</ele><time>2026-04-30T15:25:22.695Z</time></trkpt><trkpt lat="40.1565902" lon="8.5266649"><ele>247.0</ele><time>2026-04-30T15:25:23.699Z</time></trkpt><trkpt lat="40.1563873" lon="8.5266081"><ele>245.66666666666666</ele><time>2026-04-30T15:25:24.699Z</time></trkpt><trkpt lat="40.1561881" lon="8.5265533"><ele>244.33333333333331</ele><time>2026-04-30T15:25:25.695Z</time></trkpt><trkpt lat="40.1559858" lon="8.5264989"><ele>243.0</ele><time>2026-04-30T15:25:26.697Z</time></trkpt><trkpt lat="40.1557812" lon="8.5264448"><ele>244.0</ele><time>2026-04-30T15:25:27.694Z</time></trkpt><trkpt lat="40.1555736" lon="8.526389"><ele>245.0</ele><time>2026-04-30T15:25:28.696Z</time></trkpt><trkpt lat="40.1553647" lon="8.5263323"><ele>246.0</ele><time>2026-04-30T15:25:29.699Z</time></trkpt><trkpt lat="40.1551526" lon="8.5262776"><ele>244.0</ele><time>2026-04-30T15:25:30.701Z</time></trkpt><trkpt lat="40.1549381" lon="8.5262223"><ele>242.0</ele><time>2026-04-30T15:25:31.694Z</time></trkpt><trkpt lat="40.1547214" lon="8.526166"><ele>240.0</ele><time>2026-04-30T15:25:32.696Z</time></trkpt><trkpt lat="40.1545027" lon="8.5261068"><ele>240.0</ele><time>2026-04-30T15:25:33.694Z</time></trkpt><trkpt lat="40.1542816" lon="8.5260466"><ele>240.0</ele><time>2026-04-30T15:25:34.695Z</time></trkpt><trkpt lat="40.1540573" lon="8.5259894"><ele>237.0</ele><time>2026-04-30T15:25:35.694Z</time></trkpt><trkpt lat="40.1538322" lon="8.5259308"><ele>234.0</ele><time>2026-04-30T15:25:36.695Z</time></trkpt><trkpt lat="40.1536052" lon="8.5258675"><ele>234.0</ele><time>2026-04-30T15:25:37.698Z</time></trkpt><trkpt lat="40.153377" lon="8.525804"><ele>234.0</ele><time>2026-04-30T15:25:38.694Z</time></trkpt><trkpt lat="40.153147" lon="8.5257406"><ele>235.5</ele><time>2026-04-30T15:25:39.694Z</time></trkpt><trkpt lat="40.1529159" lon="8.5256783"><ele>237.0</ele><time>2026-04-30T15:25:40.695Z</time></trkpt><trkpt lat="40.1526861" lon="8.5256182"><ele>237.0</ele><time>2026-04-30T15:25:41.694Z</time></trkpt><trkpt lat="40.1524683" lon="8.52556"><ele>237.0</ele><time>2026-04-30T15:25:42.693Z</time></trkpt><trkpt lat="40.1522516" lon="8.5255004"><ele>237.0</ele><time>2026-04-30T15:25:43.694Z</time></trkpt><trkpt lat="40.1520351" lon="8.5254416"><ele>237.33333333333331</ele><time>2026-04-30T15:25:44.695Z</time></trkpt><trkpt lat="40.1518195" lon="8.5253832"><ele>237.66666666666666</ele><time>2026-04-30T15:25:45.697Z</time></trkpt><trkpt lat="40.1516043" lon="8.5253242"><ele>238.0</ele><time>2026-04-30T15:25:46.697Z</time></trkpt><trkpt lat="40.1513883" lon="8.5252651"><ele>238.0</ele><time>2026-04-30T15:25:47.696Z</time></trkpt><trkpt lat="40.1511723" lon="8.5252066"><ele>238.0</ele><time>2026-04-30T15:25:48.696Z</time></trkpt><trkpt lat="40.1509581" lon="8.5251491"><ele>238.0</ele><time>2026-04-30T15:25:49.696Z</time></trkpt><trkpt lat="40.1507531" lon="8.5250935"><ele>238.33333333333331</ele><time>2026-04-30T15:25:50.696Z</time></trkpt><trkpt lat="40.1505429" lon="8.5250371"><ele>238.66666666666669</ele><time>2026-04-30T15:25:51.697Z</time></trkpt><trkpt lat="40.1503333" lon="8.5249803"><ele>239.0</ele><time>2026-04-30T15:25:52.695Z</time></trkpt><trkpt lat="40.1501238" lon="8.5249229"><ele>239.0</ele><time>2026-04-30T15:25:53.697Z</time></trkpt><trkpt lat="40.1499119" lon="8.5248649"><ele>239.0</ele><time>2026-04-30T15:25:54.698Z</time></trkpt><trkpt lat="40.1496978" lon="8.5248076"><ele>239.0</ele><time>2026-04-30T15:25:55.695Z</time></trkpt><trkpt lat="40.1494801" lon="8.5247486"><ele>239.0</ele><time>2026-04-30T15:25:56.699Z</time></trkpt><trkpt lat="40.149258" lon="8.5246892"><ele>239.0</ele><time>2026-04-30T15:25:57.698Z</time></trkpt><trkpt lat="40.1490342" lon="8.5246288"><ele>239.0</ele><time>2026-04-30T15:25:58.703Z</time></trkpt><trkpt lat="40.1488093" lon="8.5245668"><ele>239.0</ele><time>2026-04-30T15:25:59.697Z</time></trkpt><trkpt lat="40.148594" lon="8.524506"><ele>238.66666666666669</ele><time>2026-04-30T15:26:00.696Z</time></trkpt><trkpt lat="40.148385" lon="8.524448"><ele>238.33333333333331</ele><time>2026-04-30T15:26:01.695Z</time></trkpt><trkpt lat="40.1481751" lon="8.5243907"><ele>238.0</ele><time>2026-04-30T15:26:02.695Z</time></trkpt><trkpt lat="40.1479665" lon="8.5243339"><ele>238.0</ele><time>2026-04-30T15:26:03.697Z</time></trkpt><trkpt lat="40.1477577" lon="8.5242787"><ele>238.0</ele><time>2026-04-30T15:26:04.693Z</time></trkpt><trkpt lat="40.1475496" lon="8.5242232"><ele>238.0</ele><time>2026-04-30T15:26:05.703Z</time></trkpt><trkpt lat="40.1473517" lon="8.5241709"><ele>238.0</ele><time>2026-04-30T15:26:06.697Z</time></trkpt><trkpt lat="40.1471515" lon="8.5241187"><ele>238.0</ele><time>2026-04-30T15:26:07.696Z</time></trkpt><trkpt lat="40.1469513" lon="8.5240657"><ele>238.0</ele><time>2026-04-30T15:26:08.698Z</time></trkpt><trkpt lat="40.1467501" lon="8.5240124"><ele>238.0</ele><time>2026-04-30T15:26:09.697Z</time></trkpt><trkpt lat="40.1465497" lon="8.5239585"><ele>238.0</ele><time>2026-04-30T15:26:10.693Z</time></trkpt><trkpt lat="40.1463595" lon="8.5239071"><ele>238.0</ele><time>2026-04-30T15:26:11.698Z</time></trkpt><trkpt lat="40.1461816" lon="8.5238575"><ele>237.66666666666666</ele><time>2026-04-30T15:26:12.692Z</time></trkpt><trkpt lat="40.1460151" lon="8.523796"><ele>237.33333333333331</ele><time>2026-04-30T15:26:13.693Z</time></trkpt><trkpt lat="40.1458492" lon="8.5237102"><ele>237.0</ele><time>2026-04-30T15:26:14.702Z</time></trkpt><trkpt lat="40.1456908" lon="8.5235955"><ele>235.0</ele><time>2026-04-30T15:26:15.692Z</time></trkpt><trkpt lat="40.1455485" lon="8.5234505"><ele>233.0</ele><time>2026-04-30T15:26:16.692Z</time></trkpt><trkpt lat="40.1454223" lon="8.5232778"><ele>231.0</ele><time>2026-04-30T15:26:17.698Z</time></trkpt><trkpt lat="40.1453091" lon="8.5230805"><ele>229.66666666666669</ele><time>2026-04-30T15:26:18.694Z</time></trkpt><trkpt lat="40.1451964" lon="8.5228651"><ele>228.33333333333334</ele><time>2026-04-30T15:26:19.694Z</time></trkpt><trkpt lat="40.1450761" lon="8.5226338"><ele>227.0</ele><time>2026-04-30T15:26:20.694Z</time></trkpt><trkpt lat="40.1449511" lon="8.5223874"><ele>226.5</ele><time>2026-04-30T15:26:21.694Z</time></trkpt><trkpt lat="40.1448162" lon="8.5221263"><ele>226.0</ele><time>2026-04-30T15:26:22.693Z</time></trkpt><trkpt lat="40.1446733" lon="8.5218561"><ele>223.5</ele><time>2026-04-30T15:26:23.694Z</time></trkpt><trkpt lat="40.1445256" lon="8.5215756"><ele>221.0</ele><time>2026-04-30T15:26:24.693Z</time></trkpt><trkpt lat="40.1443754" lon="8.52129"><ele>219.5</ele><time>2026-04-30T15:26:25.699Z</time></trkpt><trkpt lat="40.1442268" lon="8.5209996"><ele>218.0</ele><time>2026-04-30T15:26:26.695Z</time></trkpt><trkpt lat="40.1440823" lon="8.5207077"><ele>216.5</ele><time>2026-04-30T15:26:27.699Z</time></trkpt><trkpt lat="40.1439367" lon="8.5204136"><ele>215.0</ele><time>2026-04-30T15:26:28.696Z</time></trkpt><trkpt lat="40.1437918" lon="8.5201205"><ele>213.0</ele><time>2026-04-30T15:26:29.694Z</time></trkpt><trkpt lat="40.143651" lon="8.5198276"><ele>211.0</ele><time>2026-04-30T15:26:30.7Z</time></trkpt><trkpt lat="40.1435109" lon="8.5195354"><ele>208.0</ele><time>2026-04-30T15:26:31.694Z</time></trkpt><trkpt lat="40.1433706" lon="8.5192506"><ele>205.0</ele><time>2026-04-30T15:26:32.7Z</time></trkpt><trkpt lat="40.1432276" lon="8.5189658"><ele>203.5</ele><time>2026-04-30T15:26:33.695Z</time></trkpt><trkpt lat="40.1430863" lon="8.5186858"><ele>202.0</ele><time>2026-04-30T15:26:34.695Z</time></trkpt><trkpt lat="40.1429487" lon="8.5184138"><ele>202.0</ele><time>2026-04-30T15:26:35.697Z</time></trkpt><trkpt lat="40.142809" lon="8.5181411"><ele>202.0</ele><time>2026-04-30T15:26:36.699Z</time></trkpt><trkpt lat="40.1426677" lon="8.517866"><ele>200.5</ele><time>2026-04-30T15:26:37.695Z</time></trkpt><trkpt lat="40.1425281" lon="8.5175898"><ele>199.0</ele><time>2026-04-30T15:26:38.698Z</time></trkpt><trkpt lat="40.1423921" lon="8.5173225"><ele>195.5</ele><time>2026-04-30T15:26:39.697Z</time></trkpt><trkpt lat="40.1422592" lon="8.517059"><ele>192.0</ele><time>2026-04-30T15:26:40.696Z</time></trkpt><trkpt lat="40.1421304" lon="8.5168047"><ele>192.0</ele><time>2026-04-30T15:26:41.699Z</time></trkpt><trkpt lat="40.1420013" lon="8.5165524"><ele>192.0</ele><time>2026-04-30T15:26:42.698Z</time></trkpt><trkpt lat="40.1418718" lon="8.516295"><ele>190.0</ele><time>2026-04-30T15:26:43.698Z</time></trkpt><trkpt lat="40.1417404" lon="8.5160345"><ele>188.0</ele><time>2026-04-30T15:26:44.695Z</time></trkpt><trkpt lat="40.1416049" lon="8.515771"><ele>187.5</ele><time>2026-04-30T15:26:45.694Z</time></trkpt><trkpt lat="40.1414678" lon="8.5155056"><ele>187.0</ele><time>2026-04-30T15:26:46.696Z</time></trkpt><trkpt lat="40.141333" lon="8.5152367"><ele>185.5</ele><time>2026-04-30T15:26:47.696Z</time></trkpt><trkpt lat="40.1411968" lon="8.5149664"><ele>184.0</ele><time>2026-04-30T15:26:48.695Z</time></trkpt><trkpt lat="40.1410573" lon="8.5146922"><ele>182.0</ele><time>2026-04-30T15:26:49.699Z</time></trkpt><trkpt lat="40.1409187" lon="8.514416"><ele>180.0</ele><time>2026-04-30T15:26:50.693Z</time></trkpt><trkpt lat="40.1407769" lon="8.5141352"><ele>177.5</ele><time>2026-04-30T15:26:51.697Z</time></trkpt><trkpt lat="40.1406332" lon="8.5138512"><ele>175.0</ele><time>2026-04-30T15:26:52.694Z</time></trkpt><trkpt lat="40.1404877" lon="8.5135652"><ele>174.5</ele><time>2026-04-30T15:26:53.695Z</time></trkpt><trkpt lat="40.1403395" lon="8.5132759"><ele>174.0</ele><time>2026-04-30T15:26:54.692Z</time></trkpt><trkpt lat="40.1401897" lon="8.5129837"><ele>172.5</ele><time>2026-04-30T15:26:55.697Z</time></trkpt><trkpt lat="40.1400459" lon="8.5126966"><ele>171.0</ele><time>2026-04-30T15:26:56.699Z</time></trkpt><trkpt lat="40.1399051" lon="8.5124176"><ele>166.0</ele><time>2026-04-30T15:26:57.698Z</time></trkpt><trkpt lat="40.1397627" lon="8.5121386"><ele>161.0</ele><time>2026-04-30T15:26:58.695Z</time></trkpt><trkpt lat="40.1396193" lon="8.5118557"><ele>161.0</ele><time>2026-04-30T15:26:59.697Z</time></trkpt><trkpt lat="40.1394763" lon="8.5115739"><ele>161.0</ele><time>2026-04-30T15:27:00.697Z</time></trkpt><trkpt lat="40.1393343" lon="8.5112935"><ele>162.0</ele><time>2026-04-30T15:27:01.692Z</time></trkpt><trkpt lat="40.139193" lon="8.5110135"><ele>163.0</ele><time>2026-04-30T15:27:02.695Z</time></trkpt><trkpt lat="40.1390514" lon="8.5107317"><ele>159.0</ele><time>2026-04-30T15:27:03.694Z</time></trkpt><trkpt lat="40.1389082" lon="8.5104482"><ele>155.0</ele><time>2026-04-30T15:27:04.697Z</time></trkpt><trkpt lat="40.1387635" lon="8.5101649"><ele>155.0</ele><time>2026-04-30T15:27:05.692Z</time></trkpt><trkpt lat="40.1386181" lon="8.5098764"><ele>155.0</ele><time>2026-04-30T15:27:06.694Z</time></trkpt><trkpt lat="40.1384722" lon="8.5095925"><ele>156.0</ele><time>2026-04-30T15:27:07.7Z</time></trkpt><trkpt lat="40.1383256" lon="8.5093048"><ele>157.0</ele><time>2026-04-30T15:27:08.695Z</time></trkpt><trkpt lat="40.1381792" lon="8.5090164"><ele>153.0</ele><time>2026-04-30T15:27:09.699Z</time></trkpt><trkpt lat="40.138032" lon="8.5087271"><ele>149.0</ele><time>2026-04-30T15:27:10.699Z</time></trkpt><trkpt lat="40.1378855" lon="8.5084386"><ele>149.0</ele><time>2026-04-30T15:27:11.695Z</time></trkpt><trkpt lat="40.1377381" lon="8.5081502"><ele>149.0</ele><time>2026-04-30T15:27:12.695Z</time></trkpt><trkpt lat="40.1375904" lon="8.5078605"><ele>148.5</ele><time>2026-04-30T15:27:13.699Z</time></trkpt><trkpt lat="40.1374441" lon="8.5075728"><ele>148.0</ele><time>2026-04-30T15:27:14.695Z</time></trkpt><trkpt lat="40.1373027" lon="8.5072914"><ele>146.0</ele><time>2026-04-30T15:27:15.694Z</time></trkpt><trkpt lat="40.1371611" lon="8.5070097"><ele>144.0</ele><time>2026-04-30T15:27:16.693Z</time></trkpt><trkpt lat="40.1370189" lon="8.5067286"><ele>144.0</ele><time>2026-04-30T15:27:17.695Z</time></trkpt><trkpt lat="40.1368773" lon="8.5064475"><ele>144.0</ele><time>2026-04-30T15:27:18.694Z</time></trkpt><trkpt lat="40.1367359" lon="8.5061666"><ele>143.5</ele><time>2026-04-30T15:27:19.695Z</time></trkpt><trkpt lat="40.1365941" lon="8.5058845"><ele>143.0</ele><time>2026-04-30T15:27:20.7Z</time></trkpt><trkpt lat="40.1364498" lon="8.5056016"><ele>141.0</ele><time>2026-04-30T15:27:21.697Z</time></trkpt><trkpt lat="40.1363041" lon="8.5053174"><ele>139.0</ele><time>2026-04-30T15:27:22.697Z</time></trkpt><trkpt lat="40.13616" lon="8.5050305"><ele>139.0</ele><time>2026-04-30T15:27:23.699Z</time></trkpt><trkpt lat="40.1360186" lon="8.5047545"><ele>139.0</ele><time>2026-04-30T15:27:24.699Z</time></trkpt><trkpt lat="40.1358783" lon="8.50448"><ele>137.5</ele><time>2026-04-30T15:27:25.694Z</time></trkpt><trkpt lat="40.1357379" lon="8.5042064"><ele>136.0</ele><time>2026-04-30T15:27:26.696Z</time></trkpt><trkpt lat="40.1355982" lon="8.5039306"><ele>135.0</ele><time>2026-04-30T15:27:27.695Z</time></trkpt><trkpt lat="40.1354573" lon="8.5036544"><ele>134.0</ele><time>2026-04-30T15:27:28.696Z</time></trkpt><trkpt lat="40.1353169" lon="8.5033766"><ele>134.0</ele><time>2026-04-30T15:27:29.697Z</time></trkpt><trkpt lat="40.1351746" lon="8.5030974"><ele>134.0</ele><time>2026-04-30T15:27:30.696Z</time></trkpt><trkpt lat="40.1350338" lon="8.5028157"><ele>133.0</ele><time>2026-04-30T15:27:31.693Z</time></trkpt><trkpt lat="40.13489" lon="8.5025344"><ele>132.0</ele><time>2026-04-30T15:27:32.7Z</time></trkpt><trkpt lat="40.1347472" lon="8.5022518"><ele>129.5</ele><time>2026-04-30T15:27:33.697Z</time></trkpt><trkpt lat="40.1346042" lon="8.5019692"><ele>127.0</ele><time>2026-04-30T15:27:34.704Z</time></trkpt><trkpt lat="40.1344607" lon="8.5016875"><ele>127.0</ele><time>2026-04-30T15:27:35.696Z</time></trkpt><trkpt lat="40.1343178" lon="8.501405"><ele>127.0</ele><time>2026-04-30T15:27:36.695Z</time></trkpt><trkpt lat="40.1341783" lon="8.501129"><ele>124.5</ele><time>2026-04-30T15:27:37.699Z</time></trkpt><trkpt lat="40.1340415" lon="8.5008603"><ele>122.0</ele><time>2026-04-30T15:27:38.698Z</time></trkpt><trkpt lat="40.1339055" lon="8.5005894"><ele>122.0</ele><time>2026-04-30T15:27:39.696Z</time></trkpt><trkpt lat="40.1337682" lon="8.5003199"><ele>122.0</ele><time>2026-04-30T15:27:40.7Z</time></trkpt><trkpt lat="40.13363" lon="8.5000498"><ele>122.0</ele><time>2026-04-30T15:27:41.697Z</time></trkpt><trkpt lat="40.1334917" lon="8.4997767"><ele>122.0</ele><time>2026-04-30T15:27:42.693Z</time></trkpt><trkpt lat="40.1333534" lon="8.4995042"><ele>119.5</ele><time>2026-04-30T15:27:43.696Z</time></trkpt><trkpt lat="40.1332184" lon="8.4992377"><ele>117.0</ele><time>2026-04-30T15:27:44.698Z</time></trkpt><trkpt lat="40.1330876" lon="8.4989815"><ele>116.0</ele><time>2026-04-30T15:27:45.695Z</time></trkpt><trkpt lat="40.1329616" lon="8.4987318"><ele>115.0</ele><time>2026-04-30T15:27:46.696Z</time></trkpt><trkpt lat="40.1328347" lon="8.4984795"><ele>115.0</ele><time>2026-04-30T15:27:47.698Z</time></trkpt><trkpt lat="40.1327062" lon="8.4982264"><ele>115.0</ele><time>2026-04-30T15:27:48.703Z</time></trkpt><trkpt lat="40.13258" lon="8.4979785"><ele>114.33333333333334</ele><time>2026-04-30T15:27:49.699Z</time></trkpt><trkpt lat="40.1324596" lon="8.4977418"><ele>113.66666666666666</ele><time>2026-04-30T15:27:50.701Z</time></trkpt><trkpt lat="40.1323421" lon="8.4975255"><ele>113.0</ele><time>2026-04-30T15:27:51.696Z</time></trkpt><trkpt lat="40.1322184" lon="8.4973354"><ele>112.66666666666666</ele><time>2026-04-30T15:27:52.691Z</time></trkpt><trkpt lat="40.1320802" lon="8.4971597"><ele>112.33333333333334</ele><time>2026-04-30T15:27:53.694Z</time></trkpt><trkpt lat="40.1319244" lon="8.4970066"><ele>112.0</ele><time>2026-04-30T15:27:54.701Z</time></trkpt><trkpt lat="40.1317549" lon="8.4968732"><ele>111.33333333333334</ele><time>2026-04-30T15:27:55.696Z</time></trkpt><trkpt lat="40.1315672" lon="8.4967667"><ele>110.66666666666666</ele><time>2026-04-30T15:27:56.695Z</time></trkpt><trkpt lat="40.1313722" lon="8.4966781"><ele>110.0</ele><time>2026-04-30T15:27:57.699Z</time></trkpt><trkpt lat="40.1311869" lon="8.4965984"><ele>109.33333333333333</ele><time>2026-04-30T15:27:58.695Z</time></trkpt><trkpt lat="40.131014" lon="8.4965256"><ele>108.66666666666666</ele><time>2026-04-30T15:27:59.698Z</time></trkpt><trkpt lat="40.13085" lon="8.4964537"><ele>108.0</ele><time>2026-04-30T15:28:00.694Z</time></trkpt><trkpt lat="40.1306837" lon="8.496384"><ele>107.33333333333334</ele><time>2026-04-30T15:28:01.693Z</time></trkpt><trkpt lat="40.1305104" lon="8.4963139"><ele>106.66666666666667</ele><time>2026-04-30T15:28:02.693Z</time></trkpt><trkpt lat="40.1303302" lon="8.4962442"><ele>106.0</ele><time>2026-04-30T15:28:03.694Z</time></trkpt><trkpt lat="40.1301415" lon="8.4961683"><ele>105.33333333333334</ele><time>2026-04-30T15:28:04.695Z</time></trkpt><trkpt lat="40.1299424" lon="8.4960897"><ele>104.66666666666666</ele><time>2026-04-30T15:28:05.694Z</time></trkpt><trkpt lat="40.1297335" lon="8.4960068"><ele>104.0</ele><time>2026-04-30T15:28:06.694Z</time></trkpt><trkpt lat="40.1295113" lon="8.4959181"><ele>102.5</ele><time>2026-04-30T15:28:07.693Z</time></trkpt><trkpt lat="40.1292778" lon="8.4958224"><ele>101.0</ele><time>2026-04-30T15:28:08.695Z</time></trkpt><trkpt lat="40.1290353" lon="8.4957232"><ele>100.0</ele><time>2026-04-30T15:28:09.696Z</time></trkpt><trkpt lat="40.1287865" lon="8.4956199"><ele>99.0</ele><time>2026-04-30T15:28:10.697Z</time></trkpt><trkpt lat="40.1285388" lon="8.4955163"><ele>98.0</ele><time>2026-04-30T15:28:11.698Z</time></trkpt><trkpt lat="40.1282927" lon="8.4954093"><ele>97.0</ele><time>2026-04-30T15:28:12.695Z</time></trkpt><trkpt lat="40.1280456" lon="8.4953019"><ele>96.5</ele><time>2026-04-30T15:28:13.701Z</time></trkpt><trkpt lat="40.1278014" lon="8.4951957"><ele>96.0</ele><time>2026-04-30T15:28:14.699Z</time></trkpt><trkpt lat="40.1275679" lon="8.4950932"><ele>94.0</ele><time>2026-04-30T15:28:15.699Z</time></trkpt><trkpt lat="40.1273406" lon="8.4949937"><ele>92.0</ele><time>2026-04-30T15:28:16.697Z</time></trkpt><trkpt lat="40.1271169" lon="8.494895"><ele>92.0</ele><time>2026-04-30T15:28:17.7Z</time></trkpt><trkpt lat="40.1268916" lon="8.4947977"><ele>92.0</ele><time>2026-04-30T15:28:18.697Z</time></trkpt><trkpt lat="40.1266653" lon="8.4947012"><ele>90.5</ele><time>2026-04-30T15:28:19.696Z</time></trkpt><trkpt lat="40.1264376" lon="8.4946037"><ele>89.0</ele><time>2026-04-30T15:28:20.698Z</time></trkpt><trkpt lat="40.1262073" lon="8.4945071"><ele>89.0</ele><time>2026-04-30T15:28:21.695Z</time></trkpt><trkpt lat="40.125975" lon="8.4944107"><ele>89.0</ele><time>2026-04-30T15:28:22.698Z</time></trkpt><trkpt lat="40.1257418" lon="8.4943137"><ele>87.5</ele><time>2026-04-30T15:28:23.702Z</time></trkpt><trkpt lat="40.1255077" lon="8.4942164"><ele>86.0</ele><time>2026-04-30T15:28:24.694Z</time></trkpt><trkpt lat="40.1252735" lon="8.494119"><ele>86.0</ele><time>2026-04-30T15:28:25.695Z</time></trkpt><trkpt lat="40.1250445" lon="8.4940252"><ele>86.0</ele><time>2026-04-30T15:28:26.695Z</time></trkpt><trkpt lat="40.1248247" lon="8.4939352"><ele>86.0</ele><time>2026-04-30T15:28:27.701Z</time></trkpt><trkpt lat="40.124612" lon="8.4938477"><ele>86.0</ele><time>2026-04-30T15:28:28.697Z</time></trkpt><trkpt lat="40.1244066" lon="8.493761"><ele>86.0</ele><time>2026-04-30T15:28:29.695Z</time></trkpt><trkpt lat="40.124202" lon="8.4936726"><ele>85.33333333333334</ele><time>2026-04-30T15:28:30.696Z</time></trkpt><trkpt lat="40.1239947" lon="8.4935837"><ele>84.66666666666667</ele><time>2026-04-30T15:28:31.696Z</time></trkpt><trkpt lat="40.1237845" lon="8.493495"><ele>84.0</ele><time>2026-04-30T15:28:32.695Z</time></trkpt><trkpt lat="40.1235723" lon="8.4934064"><ele>84.0</ele><time>2026-04-30T15:28:33.696Z</time></trkpt><trkpt lat="40.1233565" lon="8.4933172"><ele>84.0</ele><time>2026-04-30T15:28:34.695Z</time></trkpt><trkpt lat="40.1231381" lon="8.4932277"><ele>82.5</ele><time>2026-04-30T15:28:35.697Z</time></trkpt><trkpt lat="40.1229159" lon="8.4931389"><ele>81.0</ele><time>2026-04-30T15:28:36.693Z</time></trkpt><trkpt lat="40.1226907" lon="8.4930475"><ele>81.0</ele><time>2026-04-30T15:28:37.695Z</time></trkpt><trkpt lat="40.1224629" lon="8.4929538"><ele>81.0</ele><time>2026-04-30T15:28:38.7Z</time></trkpt><trkpt lat="40.1222318" lon="8.492859"><ele>79.5</ele><time>2026-04-30T15:28:39.699Z</time></trkpt><trkpt lat="40.1219979" lon="8.4927616"><ele>78.0</ele><time>2026-04-30T15:28:40.697Z</time></trkpt><trkpt lat="40.1217688" lon="8.4926644"><ele>77.0</ele><time>2026-04-30T15:28:41.697Z</time></trkpt><trkpt lat="40.121547" lon="8.492571"><ele>76.0</ele><time>2026-04-30T15:28:42.701Z</time></trkpt><trkpt lat="40.1213235" lon="8.4924786"><ele>76.0</ele><time>2026-04-30T15:28:43.702Z</time></trkpt><trkpt lat="40.1210997" lon="8.4923871"><ele>76.0</ele><time>2026-04-30T15:28:44.699Z</time></trkpt><trkpt lat="40.1208738" lon="8.4922941"><ele>74.5</ele><time>2026-04-30T15:28:45.694Z</time></trkpt><trkpt lat="40.1206459" lon="8.4922"><ele>73.0</ele><time>2026-04-30T15:28:46.698Z</time></trkpt><trkpt lat="40.1204136" lon="8.4921038"><ele>72.0</ele><time>2026-04-30T15:28:47.696Z</time></trkpt><trkpt lat="40.1201772" lon="8.4920058"><ele>71.0</ele><time>2026-04-30T15:28:48.698Z</time></trkpt><trkpt lat="40.1199376" lon="8.4919057"><ele>69.5</ele><time>2026-04-30T15:28:49.693Z</time></trkpt><trkpt lat="40.1196948" lon="8.4918035"><ele>68.0</ele><time>2026-04-30T15:28:50.696Z</time></trkpt><trkpt lat="40.1194503" lon="8.4917011"><ele>68.0</ele><time>2026-04-30T15:28:51.699Z</time></trkpt><trkpt lat="40.1192037" lon="8.4915981"><ele>68.0</ele><time>2026-04-30T15:28:52.699Z</time></trkpt><trkpt lat="40.118956" lon="8.4914957"><ele>67.5</ele><time>2026-04-30T15:28:53.694Z</time></trkpt><trkpt lat="40.1187098" lon="8.4913958"><ele>67.0</ele><time>2026-04-30T15:28:54.703Z</time></trkpt><trkpt lat="40.1184641" lon="8.491296"><ele>65.0</ele><time>2026-04-30T15:28:55.701Z</time></trkpt><trkpt lat="40.1182197" lon="8.4911949"><ele>63.0</ele><time>2026-04-30T15:28:56.691Z</time></trkpt><trkpt lat="40.1179772" lon="8.4910949"><ele>63.0</ele><time>2026-04-30T15:28:57.694Z</time></trkpt><trkpt lat="40.1177357" lon="8.4909961"><ele>63.0</ele><time>2026-04-30T15:28:58.697Z</time></trkpt><trkpt lat="40.117503" lon="8.4909008"><ele>63.0</ele><time>2026-04-30T15:28:59.696Z</time></trkpt><trkpt lat="40.1172794" lon="8.4908068"><ele>63.0</ele><time>2026-04-30T15:29:00.695Z</time></trkpt><trkpt lat="40.1170629" lon="8.4907176"><ele>63.0</ele><time>2026-04-30T15:29:01.696Z</time></trkpt><trkpt lat="40.1168538" lon="8.4906317"><ele>63.0</ele><time>2026-04-30T15:29:02.693Z</time></trkpt><trkpt lat="40.1166525" lon="8.4905474"><ele>63.0</ele><time>2026-04-30T15:29:03.699Z</time></trkpt><trkpt lat="40.1164532" lon="8.4904643"><ele>61.66666666666667</ele><time>2026-04-30T15:29:04.699Z</time></trkpt><trkpt lat="40.1162508" lon="8.4903802"><ele>60.333333333333336</ele><time>2026-04-30T15:29:05.694Z</time></trkpt><trkpt lat="40.116046" lon="8.4902967"><ele>59.0</ele><time>2026-04-30T15:29:06.691Z</time></trkpt><trkpt lat="40.1158418" lon="8.4902113"><ele>58.333333333333336</ele><time>2026-04-30T15:29:07.693Z</time></trkpt><trkpt lat="40.1156353" lon="8.4901255"><ele>57.66666666666667</ele><time>2026-04-30T15:29:08.697Z</time></trkpt><trkpt lat="40.1154278" lon="8.4900408"><ele>57.0</ele><time>2026-04-30T15:29:09.692Z</time></trkpt><trkpt lat="40.115219" lon="8.4899539"><ele>57.0</ele><time>2026-04-30T15:29:10.696Z</time></trkpt><trkpt lat="40.1150111" lon="8.4898665"><ele>57.0</ele><time>2026-04-30T15:29:11.693Z</time></trkpt><trkpt lat="40.1148043" lon="8.4897782"><ele>57.0</ele><time>2026-04-30T15:29:12.698Z</time></trkpt><trkpt lat="40.1146057" lon="8.4896934"><ele>57.0</ele><time>2026-04-30T15:29:13.694Z</time></trkpt><trkpt lat="40.114416" lon="8.4896106"><ele>57.0</ele><time>2026-04-30T15:29:14.695Z</time></trkpt><trkpt lat="40.1142318" lon="8.4895352"><ele>57.0</ele><time>2026-04-30T15:29:15.699Z</time></trkpt><trkpt lat="40.1140551" lon="8.4894649"><ele>54.66666666666667</ele><time>2026-04-30T15:29:16.694Z</time></trkpt><trkpt lat="40.1138932" lon="8.4894009"><ele>52.333333333333336</ele><time>2026-04-30T15:29:17.694Z</time></trkpt><trkpt lat="40.1137361" lon="8.4893517"><ele>50.0</ele><time>2026-04-30T15:29:18.702Z</time></trkpt><trkpt lat="40.1135791" lon="8.4893278"><ele>50.0</ele><time>2026-04-30T15:29:19.697Z</time></trkpt><trkpt lat="40.1134225" lon="8.4893365"><ele>50.0</ele><time>2026-04-30T15:29:20.697Z</time></trkpt><trkpt lat="40.1132689" lon="8.4893723"><ele>50.0</ele><time>2026-04-30T15:29:21.695Z</time></trkpt><trkpt lat="40.1131188" lon="8.4894272"><ele>50.333333333333336</ele><time>2026-04-30T15:29:22.697Z</time></trkpt><trkpt lat="40.1129675" lon="8.4894912"><ele>50.66666666666667</ele><time>2026-04-30T15:29:23.695Z</time></trkpt><trkpt lat="40.1128113" lon="8.4895527"><ele>51.0</ele><time>2026-04-30T15:29:24.693Z</time></trkpt><trkpt lat="40.1126497" lon="8.4896124"><ele>51.0</ele><time>2026-04-30T15:29:25.695Z</time></trkpt><trkpt lat="40.1124824" lon="8.4896728"><ele>51.0</ele><time>2026-04-30T15:29:26.695Z</time></trkpt><trkpt lat="40.112313" lon="8.4897411"><ele>51.0</ele><time>2026-04-30T15:29:27.699Z</time></trkpt><trkpt lat="40.1121406" lon="8.4898104"><ele>48.333333333333336</ele><time>2026-04-30T15:29:28.694Z</time></trkpt><trkpt lat="40.111972" lon="8.4898765"><ele>45.66666666666667</ele><time>2026-04-30T15:29:29.695Z</time></trkpt><trkpt lat="40.1118075" lon="8.4899424"><ele>43.0</ele><time>2026-04-30T15:29:30.699Z</time></trkpt><trkpt lat="40.1116451" lon="8.4900079"><ele>41.0</ele><time>2026-04-30T15:29:31.694Z</time></trkpt><trkpt lat="40.111484" lon="8.4900752"><ele>39.0</ele><time>2026-04-30T15:29:32.698Z</time></trkpt><trkpt lat="40.1113201" lon="8.4901513"><ele>37.0</ele><time>2026-04-30T15:29:33.694Z</time></trkpt><trkpt lat="40.1111486" lon="8.4902196"><ele>37.0</ele><time>2026-04-30T15:29:34.7Z</time></trkpt><trkpt lat="40.1109757" lon="8.4902905"><ele>37.0</ele><time>2026-04-30T15:29:35.695Z</time></trkpt><trkpt lat="40.1107997" lon="8.490366"><ele>37.0</ele><time>2026-04-30T15:29:36.7Z</time></trkpt><trkpt lat="40.1106289" lon="8.4904334"><ele>36.0</ele><time>2026-04-30T15:29:37.699Z</time></trkpt><trkpt lat="40.1104621" lon="8.4904991"><ele>35.0</ele><time>2026-04-30T15:29:38.695Z</time></trkpt><trkpt lat="40.1102992" lon="8.4905636"><ele>34.0</ele><time>2026-04-30T15:29:39.699Z</time></trkpt><trkpt lat="40.1101432" lon="8.4906264"><ele>34.0</ele><time>2026-04-30T15:29:40.705Z</time></trkpt><trkpt lat="40.1099889" lon="8.4906864"><ele>34.0</ele><time>2026-04-30T15:29:41.699Z</time></trkpt><trkpt lat="40.1098343" lon="8.4907476"><ele>34.0</ele><time>2026-04-30T15:29:42.696Z</time></trkpt><trkpt lat="40.1096819" lon="8.4908072"><ele>33.333333333333336</ele><time>2026-04-30T15:29:43.698Z</time></trkpt><trkpt lat="40.1095306" lon="8.4908662"><ele>32.666666666666664</ele><time>2026-04-30T15:29:44.698Z</time></trkpt><trkpt lat="40.1093762" lon="8.4909276"><ele>32.0</ele><time>2026-04-30T15:29:45.699Z</time></trkpt><trkpt lat="40.1092225" lon="8.4909883"><ele>31.666666666666664</ele><time>2026-04-30T15:29:46.697Z</time></trkpt><trkpt lat="40.1090689" lon="8.4910492"><ele>31.333333333333336</ele><time>2026-04-30T15:29:47.695Z</time></trkpt><trkpt lat="40.1089107" lon="8.491112"><ele>31.0</ele><time>2026-04-30T15:29:48.695Z</time></trkpt><trkpt lat="40.1087547" lon="8.4911741"><ele>31.0</ele><time>2026-04-30T15:29:49.699Z</time></trkpt><trkpt lat="40.1085998" lon="8.4912354"><ele>31.0</ele><time>2026-04-30T15:29:50.704Z</time></trkpt><trkpt lat="40.1084492" lon="8.4912969"><ele>31.0</ele><time>2026-04-30T15:29:51.696Z</time></trkpt><trkpt lat="40.108303" lon="8.4913533"><ele>28.0</ele><time>2026-04-30T15:29:52.695Z</time></trkpt><trkpt lat="40.1081595" lon="8.4913969"><ele>25.0</ele><time>2026-04-30T15:29:53.699Z</time></trkpt><trkpt lat="40.1080144" lon="8.4914213"><ele>22.0</ele><time>2026-04-30T15:29:54.697Z</time></trkpt><trkpt lat="40.1078673" lon="8.4914162"><ele>19.0</ele><time>2026-04-30T15:29:55.697Z</time></trkpt><trkpt lat="40.1077229" lon="8.4913772"><ele>19.0</ele><time>2026-04-30T15:29:56.697Z</time></trkpt><trkpt lat="40.1075847" lon="8.4913093"><ele>19.0</ele><time>2026-04-30T15:29:57.696Z</time></trkpt><trkpt lat="40.107451" lon="8.4912228"><ele>19.0</ele><time>2026-04-30T15:29:58.698Z</time></trkpt><trkpt lat="40.107315" lon="8.4911335"><ele>19.0</ele><time>2026-04-30T15:29:59.695Z</time></trkpt><trkpt lat="40.107181" lon="8.4910485"><ele>18.0</ele><time>2026-04-30T15:30:00.697Z</time></trkpt><trkpt lat="40.1070487" lon="8.4909626"><ele>17.0</ele><time>2026-04-30T15:30:01.693Z</time></trkpt><trkpt lat="40.1069149" lon="8.4908742"><ele>16.0</ele><time>2026-04-30T15:30:02.698Z</time></trkpt><trkpt lat="40.1067771" lon="8.4907859"><ele>16.0</ele><time>2026-04-30T15:30:03.699Z</time></trkpt><trkpt lat="40.1066389" lon="8.4906978"><ele>16.0</ele><time>2026-04-30T15:30:04.697Z</time></trkpt><trkpt lat="40.1065017" lon="8.4906084"><ele>16.0</ele><time>2026-04-30T15:30:05.694Z</time></trkpt><trkpt lat="40.1063641" lon="8.4905288"><ele>13.5</ele><time>2026-04-30T15:30:06.696Z</time></trkpt><trkpt lat="40.1062241" lon="8.4904746"><ele>11.0</ele><time>2026-04-30T15:30:07.694Z</time></trkpt><trkpt lat="40.10608" lon="8.4904491"><ele>8.5</ele><time>2026-04-30T15:30:08.695Z</time></trkpt><trkpt lat="40.1059308" lon="8.4904607"><ele>6.0</ele><time>2026-04-30T15:30:09.7Z</time></trkpt><trkpt lat="40.1057875" lon="8.4905097"><ele>5.666666666666667</ele><time>2026-04-30T15:30:10.695Z</time></trkpt><trkpt lat="40.1056464" lon="8.4905859"><ele>5.333333333333334</ele><time>2026-04-30T15:30:11.694Z</time></trkpt><trkpt lat="40.1055026" lon="8.4906727"><ele>5.0</ele><time>2026-04-30T15:30:12.696Z</time></trkpt><trkpt lat="40.1053555" lon="8.4907659"><ele>5.0</ele><time>2026-04-30T15:30:13.694Z</time></trkpt><trkpt lat="40.1052072" lon="8.4908626"><ele>5.0</ele><time>2026-04-30T15:30:14.697Z</time></trkpt><trkpt lat="40.1050549" lon="8.490957"><ele>5.0</ele><time>2026-04-30T15:30:15.699Z</time></trkpt><trkpt lat="40.1049002" lon="8.4910541"><ele>4.666666666666667</ele><time>2026-04-30T15:30:16.697Z</time></trkpt><trkpt lat="40.1047458" lon="8.4911522"><ele>4.333333333333333</ele><time>2026-04-30T15:30:17.693Z</time></trkpt><trkpt lat="40.1045994" lon="8.4912464"><ele>4.0</ele><time>2026-04-30T15:30:18.7Z</time></trkpt><trkpt lat="40.1044605" lon="8.4913494"><ele>5.666666666666666</ele><time>2026-04-30T15:30:19.693Z</time></trkpt><trkpt lat="40.1043372" lon="8.49147"><ele>7.333333333333333</ele><time>2026-04-30T15:30:20.694Z</time></trkpt><trkpt lat="40.1042273" lon="8.4916097"><ele>9.0</ele><time>2026-04-30T15:30:21.694Z</time></trkpt><trkpt lat="40.1041263" lon="8.4917597"><ele>8.75</ele><time>2026-04-30T15:30:22.697Z</time></trkpt><trkpt lat="40.1040253" lon="8.4919078"><ele>8.5</ele><time>2026-04-30T15:30:23.693Z</time></trkpt><trkpt lat="40.1039249" lon="8.492049"><ele>8.25</ele><time>2026-04-30T15:30:24.694Z</time></trkpt><trkpt lat="40.1038192" lon="8.4921703"><ele>8.0</ele><time>2026-04-30T15:30:25.697Z</time></trkpt><trkpt lat="40.1036937" lon="8.4922417"><ele>8.0</ele><time>2026-04-30T15:30:26.698Z</time></trkpt><trkpt lat="40.1035523" lon="8.4922832"><ele>8.0</ele><time>2026-04-30T15:30:27.7Z</time></trkpt><trkpt lat="40.1033984" lon="8.4923051"><ele>8.0</ele><time>2026-04-30T15:30:28.698Z</time></trkpt><trkpt lat="40.1032323" lon="8.492326"><ele>9.333333333333332</ele><time>2026-04-30T15:30:29.696Z</time></trkpt><trkpt lat="40.103074" lon="8.4923461"><ele>10.666666666666666</ele><time>2026-04-30T15:30:30.7Z</time></trkpt><trkpt lat="40.1029256" lon="8.4923687"><ele>12.0</ele><time>2026-04-30T15:30:31.697Z</time></trkpt><trkpt lat="40.1027772" lon="8.4924099"><ele>12.0</ele><time>2026-04-30T15:30:32.694Z</time></trkpt><trkpt lat="40.1026408" lon="8.4924862"><ele>12.0</ele><time>2026-04-30T15:30:33.692Z</time></trkpt><trkpt lat="40.1025141" lon="8.4925943"><ele>12.0</ele><time>2026-04-30T15:30:34.694Z</time></trkpt><trkpt lat="40.1023964" lon="8.492728"><ele>16.666666666666664</ele><time>2026-04-30T15:30:35.693Z</time></trkpt><trkpt lat="40.1022819" lon="8.4928794"><ele>21.333333333333332</ele><time>2026-04-30T15:30:36.697Z</time></trkpt><trkpt lat="40.1021614" lon="8.4930501"><ele>26.0</ele><time>2026-04-30T15:30:37.693Z</time></trkpt><trkpt lat="40.1020284" lon="8.4932401"><ele>26.0</ele><time>2026-04-30T15:30:38.696Z</time></trkpt><trkpt lat="40.101905" lon="8.4934094"><ele>26.0</ele><time>2026-04-30T15:30:39.702Z</time></trkpt><trkpt lat="40.1017791" lon="8.4935545"><ele>26.0</ele><time>2026-04-30T15:30:40.693Z</time></trkpt><trkpt lat="40.1016449" lon="8.493678"><ele>26.5</ele><time>2026-04-30T15:30:41.697Z</time></trkpt><trkpt lat="40.1015161" lon="8.4937799"><ele>27.0</ele><time>2026-04-30T15:30:42.696Z</time></trkpt><trkpt lat="40.1013913" lon="8.4938486"><ele>27.5</ele><time>2026-04-30T15:30:43.694Z</time></trkpt><trkpt lat="40.1012621" lon="8.4938922"><ele>28.0</ele><time>2026-04-30T15:30:44.694Z</time></trkpt><trkpt lat="40.1011374" lon="8.4939096"><ele>28.0</ele><time>2026-04-30T15:30:45.693Z</time></trkpt><trkpt lat="40.1010164" lon="8.4939113"><ele>27.999999999999996</ele><time>2026-04-30T15:30:46.693Z</time></trkpt><trkpt lat="40.1009007" lon="8.4939107"><ele>27.999999999999996</ele><time>2026-04-30T15:30:47.695Z</time></trkpt><trkpt lat="40.1007984" lon="8.4939221"><ele>28.0</ele><time>2026-04-30T15:30:48.695Z</time></trkpt><trkpt lat="40.1007172" lon="8.4939532"><ele>28.0</ele><time>2026-04-30T15:30:49.695Z</time></trkpt><trkpt lat="40.1006602" lon="8.4940129"><ele>28.833333333333336</ele><time>2026-04-30T15:30:50.698Z</time></trkpt><trkpt lat="40.1006307" lon="8.4940975"><ele>29.666666666666668</ele><time>2026-04-30T15:30:51.697Z</time></trkpt><trkpt lat="40.1006373" lon="8.4941923"><ele>30.5</ele><time>2026-04-30T15:30:52.695Z</time></trkpt><trkpt lat="40.1006614" lon="8.49429"><ele>31.333333333333336</ele><time>2026-04-30T15:30:53.702Z</time></trkpt><trkpt lat="40.1006962" lon="8.4944009"><ele>32.166666666666664</ele><time>2026-04-30T15:30:54.697Z</time></trkpt><trkpt lat="40.1007358" lon="8.4945318"><ele>33.0</ele><time>2026-04-30T15:30:55.7Z</time></trkpt><trkpt lat="40.1007763" lon="8.4946811"><ele>33.0</ele><time>2026-04-30T15:30:56.692Z</time></trkpt><trkpt lat="40.1008227" lon="8.4948473"><ele>33.0</ele><time>2026-04-30T15:30:57.696Z</time></trkpt><trkpt lat="40.1008697" lon="8.4950285"><ele>33.0</ele><time>2026-04-30T15:30:58.699Z</time></trkpt><trkpt lat="40.1009221" lon="8.4952152"><ele>33.0</ele><time>2026-04-30T15:30:59.694Z</time></trkpt><trkpt lat="40.1009737" lon="8.4953901"><ele>34.5</ele><time>2026-04-30T15:31:00.693Z</time></trkpt><trkpt lat="40.101013" lon="8.4955501"><ele>36.0</ele><time>2026-04-30T15:31:01.691Z</time></trkpt><trkpt lat="40.1010313" lon="8.4957107"><ele>37.5</ele><time>2026-04-30T15:31:02.695Z</time></trkpt><trkpt lat="40.1010215" lon="8.4958666"><ele>39.0</ele><time>2026-04-30T15:31:03.701Z</time></trkpt><trkpt lat="40.1009815" lon="8.4960099"><ele>39.0</ele><time>2026-04-30T15:31:04.694Z</time></trkpt><trkpt lat="40.100912" lon="8.4961289"><ele>39.0</ele><time>2026-04-30T15:31:05.697Z</time></trkpt><trkpt lat="40.1008163" lon="8.49621"><ele>39.0</ele><time>2026-04-30T15:31:06.697Z</time></trkpt><trkpt lat="40.1006999" lon="8.4962529"><ele>39.0</ele><time>2026-04-30T15:31:07.701Z</time></trkpt><trkpt lat="40.100567" lon="8.4962608"><ele>42.0</ele><time>2026-04-30T15:31:08.696Z</time></trkpt><trkpt lat="40.1004237" lon="8.4962346"><ele>45.0</ele><time>2026-04-30T15:31:09.695Z</time></trkpt><trkpt lat="40.1002764" lon="8.4961736"><ele>48.0</ele><time>2026-04-30T15:31:10.694Z</time></trkpt><trkpt lat="40.1001329" lon="8.4960839"><ele>48.0</ele><time>2026-04-30T15:31:11.698Z</time></trkpt><trkpt lat="40.0999962" lon="8.4960083"><ele>48.0</ele><time>2026-04-30T15:31:12.695Z</time></trkpt><trkpt lat="40.0998589" lon="8.4959709"><ele>48.0</ele><time>2026-04-30T15:31:13.694Z</time></trkpt><trkpt lat="40.0997143" lon="8.4959916"><ele>48.0</ele><time>2026-04-30T15:31:14.697Z</time></trkpt><trkpt lat="40.0995755" lon="8.4960626"><ele>47.666666666666664</ele><time>2026-04-30T15:31:15.693Z</time></trkpt><trkpt lat="40.0994496" lon="8.4961799"><ele>47.33333333333333</ele><time>2026-04-30T15:31:16.692Z</time></trkpt><trkpt lat="40.0993375" lon="8.4963347"><ele>47.0</ele><time>2026-04-30T15:31:17.694Z</time></trkpt><trkpt lat="40.0992243" lon="8.4965068"><ele>47.0</ele><time>2026-04-30T15:31:18.695Z</time></trkpt><trkpt lat="40.0991003" lon="8.4966703"><ele>47.0</ele><time>2026-04-30T15:31:19.697Z</time></trkpt><trkpt lat="40.0989607" lon="8.4968152"><ele>47.0</ele><time>2026-04-30T15:31:20.697Z</time></trkpt><trkpt lat="40.0988104" lon="8.4969469"><ele>48.0</ele><time>2026-04-30T15:31:21.698Z</time></trkpt><trkpt lat="40.0986554" lon="8.4970732"><ele>49.0</ele><time>2026-04-30T15:31:22.697Z</time></trkpt><trkpt lat="40.0985061" lon="8.4971845"><ele>50.0</ele><time>2026-04-30T15:31:23.695Z</time></trkpt><trkpt lat="40.098357" lon="8.4972604"><ele>49.66666666666667</ele><time>2026-04-30T15:31:24.696Z</time></trkpt><trkpt lat="40.0982032" lon="8.4972922"><ele>49.33333333333333</ele><time>2026-04-30T15:31:25.695Z</time></trkpt><trkpt lat="40.0980385" lon="8.4972871"><ele>49.0</ele><time>2026-04-30T15:31:26.693Z</time></trkpt><trkpt lat="40.0978635" lon="8.4972487"><ele>49.0</ele><time>2026-04-30T15:31:27.696Z</time></trkpt><trkpt lat="40.0976777" lon="8.4971935"><ele>49.0</ele><time>2026-04-30T15:31:28.694Z</time></trkpt><trkpt lat="40.0974788" lon="8.4971328"><ele>49.0</ele><time>2026-04-30T15:31:29.697Z</time></trkpt><trkpt lat="40.0972644" lon="8.4970722"><ele>45.5</ele><time>2026-04-30T15:31:30.696Z</time></trkpt><trkpt lat="40.0970369" lon="8.4970095"><ele>42.0</ele><time>2026-04-30T15:31:31.696Z</time></trkpt><trkpt lat="40.0968046" lon="8.4969449"><ele>41.5</ele><time>2026-04-30T15:31:32.696Z</time></trkpt><trkpt lat="40.0965829" lon="8.4968837"><ele>41.0</ele><time>2026-04-30T15:31:33.695Z</time></trkpt><trkpt lat="40.0963627" lon="8.4968228"><ele>41.0</ele><time>2026-04-30T15:31:34.695Z</time></trkpt><trkpt lat="40.0961465" lon="8.496755"><ele>41.0</ele><time>2026-04-30T15:31:35.695Z</time></trkpt><trkpt lat="40.0959388" lon="8.4966559"><ele>41.0</ele><time>2026-04-30T15:31:36.698Z</time></trkpt><trkpt lat="40.0957398" lon="8.496529"><ele>41.33333333333333</ele><time>2026-04-30T15:31:37.699Z</time></trkpt><trkpt lat="40.0955497" lon="8.4963794"><ele>41.666666666666664</ele><time>2026-04-30T15:31:38.697Z</time></trkpt><trkpt lat="40.0953608" lon="8.4962215"><ele>42.0</ele><time>2026-04-30T15:31:39.697Z</time></trkpt><trkpt lat="40.0951708" lon="8.4960635"><ele>39.666666666666664</ele><time>2026-04-30T15:31:40.697Z</time></trkpt><trkpt lat="40.0949829" lon="8.4959005"><ele>37.33333333333333</ele><time>2026-04-30T15:31:41.694Z</time></trkpt><trkpt lat="40.094807" lon="8.4957352"><ele>35.0</ele><time>2026-04-30T15:31:42.706Z</time></trkpt><trkpt lat="40.0946442" lon="8.4955596"><ele>33.0</ele><time>2026-04-30T15:31:43.695Z</time></trkpt><trkpt lat="40.0944932" lon="8.4953795"><ele>31.0</ele><time>2026-04-30T15:31:44.697Z</time></trkpt><trkpt lat="40.0943484" lon="8.495199"><ele>29.0</ele><time>2026-04-30T15:31:45.697Z</time></trkpt><trkpt lat="40.0942108" lon="8.4950236"><ele>29.0</ele><time>2026-04-30T15:31:46.702Z</time></trkpt><trkpt lat="40.094095" lon="8.4948411"><ele>29.0</ele><time>2026-04-30T15:31:47.693Z</time></trkpt><trkpt lat="40.0940077" lon="8.4946364"><ele>29.0</ele><time>2026-04-30T15:31:48.695Z</time></trkpt><trkpt lat="40.0939457" lon="8.4944151"><ele>29.666666666666664</ele><time>2026-04-30T15:31:49.695Z</time></trkpt><trkpt lat="40.0938918" lon="8.4941864"><ele>30.333333333333336</ele><time>2026-04-30T15:31:50.696Z</time></trkpt><trkpt lat="40.0938414" lon="8.4939594"><ele>31.0</ele><time>2026-04-30T15:31:51.696Z</time></trkpt><trkpt lat="40.0938092" lon="8.4937444"><ele>31.0</ele><time>2026-04-30T15:31:52.697Z</time></trkpt><trkpt lat="40.0938116" lon="8.493535"><ele>31.0</ele><time>2026-04-30T15:31:53.695Z</time></trkpt><trkpt lat="40.0938451" lon="8.4933365"><ele>31.0</ele><time>2026-04-30T15:31:54.697Z</time></trkpt><trkpt lat="40.0938853" lon="8.4931448"><ele>31.0</ele><time>2026-04-30T15:31:55.695Z</time></trkpt><trkpt lat="40.093918" lon="8.4929575"><ele>31.0</ele><time>2026-04-30T15:31:56.7Z</time></trkpt><trkpt lat="40.0939258" lon="8.4927635"><ele>31.0</ele><time>2026-04-30T15:31:57.699Z</time></trkpt><trkpt lat="40.0938946" lon="8.4925792"><ele>31.0</ele><time>2026-04-30T15:31:58.7Z</time></trkpt><trkpt lat="40.093828" lon="8.4924131"><ele>29.5</ele><time>2026-04-30T15:31:59.699Z</time></trkpt><trkpt lat="40.0937193" lon="8.4922969"><ele>28.0</ele><time>2026-04-30T15:32:00.696Z</time></trkpt><trkpt lat="40.0935857" lon="8.4922457"><ele>26.5</ele><time>2026-04-30T15:32:01.696Z</time></trkpt><trkpt lat="40.093439" lon="8.4922501"><ele>25.0</ele><time>2026-04-30T15:32:02.698Z</time></trkpt><trkpt lat="40.0932781" lon="8.4922776"><ele>24.333333333333336</ele><time>2026-04-30T15:32:03.694Z</time></trkpt><trkpt lat="40.0931002" lon="8.4923089"><ele>23.666666666666668</ele><time>2026-04-30T15:32:04.694Z</time></trkpt><trkpt lat="40.0929206" lon="8.4923313"><ele>23.0</ele><time>2026-04-30T15:32:05.695Z</time></trkpt><trkpt lat="40.0927489" lon="8.4923544"><ele>23.0</ele><time>2026-04-30T15:32:06.696Z</time></trkpt><trkpt lat="40.092573" lon="8.4923789"><ele>23.0</ele><time>2026-04-30T15:32:07.695Z</time></trkpt><trkpt lat="40.0923981" lon="8.4923999"><ele>23.0</ele><time>2026-04-30T15:32:08.697Z</time></trkpt><trkpt lat="40.092232" lon="8.4924189"><ele>22.0</ele><time>2026-04-30T15:32:09.695Z</time></trkpt><trkpt lat="40.0920699" lon="8.4924392"><ele>21.0</ele><time>2026-04-30T15:32:10.698Z</time></trkpt><trkpt lat="40.0919038" lon="8.4924593"><ele>20.0</ele><time>2026-04-30T15:32:11.693Z</time></trkpt><trkpt lat="40.0917376" lon="8.4924791"><ele>19.666666666666668</ele><time>2026-04-30T15:32:12.697Z</time></trkpt><trkpt lat="40.0915704" lon="8.4924967"><ele>19.333333333333332</ele><time>2026-04-30T15:32:13.696Z</time></trkpt><trkpt lat="40.0914064" lon="8.4925156"><ele>19.0</ele><time>2026-04-30T15:32:14.695Z</time></trkpt><trkpt lat="40.0912507" lon="8.4925245"><ele>19.0</ele><time>2026-04-30T15:32:15.698Z</time></trkpt><trkpt lat="40.0911006" lon="8.4925105"><ele>19.0</ele><time>2026-04-30T15:32:16.696Z</time></trkpt><trkpt lat="40.0909498" lon="8.4924852"><ele>19.0</ele><time>2026-04-30T15:32:17.693Z</time></trkpt><trkpt lat="40.0907946" lon="8.492469"><ele>18.0</ele><time>2026-04-30T15:32:18.697Z</time></trkpt><trkpt lat="40.0906387" lon="8.4924649"><ele>17.0</ele><time>2026-04-30T15:32:19.695Z</time></trkpt><trkpt lat="40.0904912" lon="8.4924717"><ele>16.0</ele><time>2026-04-30T15:32:20.693Z</time></trkpt><trkpt lat="40.0903526" lon="8.49248"><ele>15.0</ele><time>2026-04-30T15:32:21.694Z</time></trkpt><trkpt lat="40.0902176" lon="8.492498"><ele>15.0</ele><time>2026-04-30T15:32:22.701Z</time></trkpt><trkpt lat="40.0900812" lon="8.4925341"><ele>15.0</ele><time>2026-04-30T15:32:23.698Z</time></trkpt><trkpt lat="40.0899479" lon="8.4926012"><ele>15.0</ele><time>2026-04-30T15:32:24.697Z</time></trkpt><trkpt lat="40.0898209" lon="8.4926962"><ele>15.0</ele><time>2026-04-30T15:32:25.695Z</time></trkpt><trkpt lat="40.0897" lon="8.4928134"><ele>14.0</ele><time>2026-04-30T15:32:26.695Z</time></trkpt><trkpt lat="40.0895801" lon="8.492947"><ele>13.0</ele><time>2026-04-30T15:32:27.693Z</time></trkpt><trkpt lat="40.0894616" lon="8.4930901"><ele>12.0</ele><time>2026-04-30T15:32:28.695Z</time></trkpt><trkpt lat="40.0893548" lon="8.4932431"><ele>12.0</ele><time>2026-04-30T15:32:29.696Z</time></trkpt><trkpt lat="40.0892584" lon="8.4934155"><ele>12.0</ele><time>2026-04-30T15:32:30.695Z</time></trkpt><trkpt lat="40.0891734" lon="8.4936049"><ele>12.0</ele><time>2026-04-30T15:32:31.696Z</time></trkpt><trkpt lat="40.0890983" lon="8.4938072"><ele>11.0</ele><time>2026-04-30T15:32:32.699Z</time></trkpt><trkpt lat="40.0890292" lon="8.4940192"><ele>10.0</ele><time>2026-04-30T15:32:33.695Z</time></trkpt><trkpt lat="40.0889677" lon="8.494226"><ele>9.0</ele><time>2026-04-30T15:32:34.696Z</time></trkpt><trkpt lat="40.0889086" lon="8.4944143"><ele>9.0</ele><time>2026-04-30T15:32:35.694Z</time></trkpt><trkpt lat="40.0888532" lon="8.4945795"><ele>9.0</ele><time>2026-04-30T15:32:36.701Z</time></trkpt><trkpt lat="40.0887992" lon="8.4947173"><ele>9.0</ele><time>2026-04-30T15:32:37.698Z</time></trkpt><trkpt lat="40.0887288" lon="8.4948215"><ele>9.0</ele><time>2026-04-30T15:32:38.698Z</time></trkpt><trkpt lat="40.0886394" lon="8.4948799"><ele>8.75</ele><time>2026-04-30T15:32:39.694Z</time></trkpt><trkpt lat="40.0885342" lon="8.4948927"><ele>8.5</ele><time>2026-04-30T15:32:40.694Z</time></trkpt><trkpt lat="40.088417" lon="8.4948769"><ele>8.25</ele><time>2026-04-30T15:32:41.692Z</time></trkpt><trkpt lat="40.0882873" lon="8.49484"><ele>8.0</ele><time>2026-04-30T15:32:42.697Z</time></trkpt><trkpt lat="40.088143" lon="8.4948091"><ele>9.75</ele><time>2026-04-30T15:32:43.693Z</time></trkpt><trkpt lat="40.0880124" lon="8.4947784"><ele>11.5</ele><time>2026-04-30T15:32:44.694Z</time></trkpt><trkpt lat="40.0878974" lon="8.4947345"><ele>13.25</ele><time>2026-04-30T15:32:45.692Z</time></trkpt><trkpt lat="40.0878105" lon="8.4946533"><ele>15.0</ele><time>2026-04-30T15:32:46.694Z</time></trkpt><trkpt lat="40.0877589" lon="8.4945434"><ele>15.75</ele><time>2026-04-30T15:32:47.691Z</time></trkpt><trkpt lat="40.087751" lon="8.4944203"><ele>16.5</ele><time>2026-04-30T15:32:48.695Z</time></trkpt><trkpt lat="40.0877759" lon="8.494288"><ele>17.25</ele><time>2026-04-30T15:32:49.694Z</time></trkpt><trkpt lat="40.0878338" lon="8.4941516"><ele>18.0</ele><time>2026-04-30T15:32:50.697Z</time></trkpt><trkpt lat="40.0879113" lon="8.4939945"><ele>18.0</ele><time>2026-04-30T15:32:51.698Z</time></trkpt><trkpt lat="40.0879893" lon="8.4938237"><ele>18.0</ele><time>2026-04-30T15:32:52.697Z</time></trkpt><trkpt lat="40.0880495" lon="8.4936811"><ele>18.0</ele><time>2026-04-30T15:32:53.695Z</time></trkpt><trkpt lat="40.0880919" lon="8.493541"><ele>18.0</ele><time>2026-04-30T15:32:54.692Z</time></trkpt><trkpt lat="40.0880958" lon="8.493402"><ele>17.8</ele><time>2026-04-30T15:32:55.694Z</time></trkpt><trkpt lat="40.0880555" lon="8.4932947"><ele>17.6</ele><time>2026-04-30T15:32:56.692Z</time></trkpt><trkpt lat="40.0879795" lon="8.4932246"><ele>17.4</ele><time>2026-04-30T15:32:57.694Z</time></trkpt><trkpt lat="40.0878711" lon="8.4931883"><ele>17.2</ele><time>2026-04-30T15:32:58.694Z</time></trkpt><trkpt lat="40.0877346" lon="8.4931872"><ele>17.0</ele><time>2026-04-30T15:32:59.695Z</time></trkpt><trkpt lat="40.0875792" lon="8.4932138"><ele>17.0</ele><time>2026-04-30T15:33:00.696Z</time></trkpt><trkpt lat="40.0874477" lon="8.4932428"><ele>17.0</ele><time>2026-04-30T15:33:01.695Z</time></trkpt><trkpt lat="40.0873207" lon="8.4932606"><ele>17.0</ele><time>2026-04-30T15:33:02.699Z</time></trkpt><trkpt lat="40.0872027" lon="8.4932643"><ele>17.0</ele><time>2026-04-30T15:33:03.695Z</time></trkpt><trkpt lat="40.0870879" lon="8.4932513"><ele>19.2</ele><time>2026-04-30T15:33:04.695Z</time></trkpt><trkpt lat="40.0869777" lon="8.4932292"><ele>21.4</ele><time>2026-04-30T15:33:05.695Z</time></trkpt><trkpt lat="40.0868752" lon="8.4932038"><ele>23.599999999999998</ele><time>2026-04-30T15:33:06.692Z</time></trkpt><trkpt lat="40.0867809" lon="8.4931846"><ele>25.799999999999997</ele><time>2026-04-30T15:33:07.696Z</time></trkpt><trkpt lat="40.0866933" lon="8.4931629"><ele>28.0</ele><time>2026-04-30T15:33:08.696Z</time></trkpt><trkpt lat="40.08661" lon="8.4931456"><ele>28.833333333333336</ele><time>2026-04-30T15:33:09.693Z</time></trkpt><trkpt lat="40.0865322" lon="8.493129"><ele>29.666666666666668</ele><time>2026-04-30T15:33:10.694Z</time></trkpt><trkpt lat="40.0864563" lon="8.493113"><ele>30.5</ele><time>2026-04-30T15:33:11.695Z</time></trkpt><trkpt lat="40.0863791" lon="8.4930994"><ele>31.333333333333336</ele><time>2026-04-30T15:33:12.696Z</time></trkpt><trkpt lat="40.0862963" lon="8.4930865"><ele>32.166666666666664</ele><time>2026-04-30T15:33:13.695Z</time></trkpt><trkpt lat="40.0862122" lon="8.4930702"><ele>33.0</ele><time>2026-04-30T15:33:14.697Z</time></trkpt><trkpt lat="40.086127" lon="8.4930485"><ele>33.0</ele><time>2026-04-30T15:33:15.697Z</time></trkpt><trkpt lat="40.086046" lon="8.4930062"><ele>33.0</ele><time>2026-04-30T15:33:16.694Z</time></trkpt><trkpt lat="40.0859802" lon="8.4929342"><ele>33.0</ele><time>2026-04-30T15:33:17.696Z</time></trkpt><trkpt lat="40.0859415" lon="8.4928367"><ele>33.0</ele><time>2026-04-30T15:33:18.699Z</time></trkpt><trkpt lat="40.0859258" lon="8.4927258"><ele>33.0</ele><time>2026-04-30T15:33:19.695Z</time></trkpt><trkpt lat="40.0859285" lon="8.492613"><ele>33.0</ele><time>2026-04-30T15:33:20.7Z</time></trkpt><trkpt lat="40.0859378" lon="8.4925023"><ele>31.333333333333332</ele><time>2026-04-30T15:33:21.696Z</time></trkpt><trkpt lat="40.0859233" lon="8.4923991"><ele>29.666666666666668</ele><time>2026-04-30T15:33:22.697Z</time></trkpt><trkpt lat="40.0858922" lon="8.4922978"><ele>28.0</ele><time>2026-04-30T15:33:23.694Z</time></trkpt><trkpt lat="40.0858423" lon="8.4922091"><ele>26.333333333333336</ele><time>2026-04-30T15:33:24.698Z</time></trkpt><trkpt lat="40.085783" lon="8.4921347"><ele>24.666666666666668</ele><time>2026-04-30T15:33:25.697Z</time></trkpt><trkpt lat="40.0857111" lon="8.4920667"><ele>23.0</ele><time>2026-04-30T15:33:26.699Z</time></trkpt><trkpt lat="40.085626" lon="8.492011"><ele>22.4</ele><time>2026-04-30T15:33:27.696Z</time></trkpt><trkpt lat="40.0855344" lon="8.4919687"><ele>21.799999999999997</ele><time>2026-04-30T15:33:28.697Z</time></trkpt><trkpt lat="40.0854373" lon="8.4919366"><ele>21.2</ele><time>2026-04-30T15:33:29.696Z</time></trkpt><trkpt lat="40.0853335" lon="8.4919124"><ele>20.6</ele><time>2026-04-30T15:33:30.696Z</time></trkpt><trkpt lat="40.0852249" lon="8.4918855"><ele>20.0</ele><time>2026-04-30T15:33:31.697Z</time></trkpt><trkpt lat="40.0851091" lon="8.4918577"><ele>20.0</ele><time>2026-04-30T15:33:32.692Z</time></trkpt><trkpt lat="40.0849907" lon="8.4918312"><ele>20.0</ele><time>2026-04-30T15:33:33.693Z</time></trkpt><trkpt lat="40.0848748" lon="8.4918066"><ele>20.0</ele><time>2026-04-30T15:33:34.695Z</time></trkpt><trkpt lat="40.0847613" lon="8.4917829"><ele>20.0</ele><time>2026-04-30T15:33:35.695Z</time></trkpt><trkpt lat="40.0846469" lon="8.4917596"><ele>20.0</ele><time>2026-04-30T15:33:36.693Z</time></trkpt><trkpt lat="40.0845392" lon="8.4917404"><ele>20.0</ele><time>2026-04-30T15:33:37.696Z</time></trkpt><trkpt lat="40.0844334" lon="8.4917255"><ele>20.0</ele><time>2026-04-30T15:33:38.696Z</time></trkpt><trkpt lat="40.0843244" lon="8.4917136"><ele>20.0</ele><time>2026-04-30T15:33:39.7Z</time></trkpt><trkpt lat="40.08421" lon="8.4917047"><ele>20.0</ele><time>2026-04-30T15:33:40.696Z</time></trkpt><trkpt lat="40.08409" lon="8.4916987"><ele>20.0</ele><time>2026-04-30T15:33:41.697Z</time></trkpt><trkpt lat="40.083964" lon="8.4916941"><ele>20.0</ele><time>2026-04-30T15:33:42.697Z</time></trkpt><trkpt lat="40.0838337" lon="8.4916925"><ele>20.0</ele><time>2026-04-30T15:33:43.695Z</time></trkpt><trkpt lat="40.0837014" lon="8.4916886"><ele>20.0</ele><time>2026-04-30T15:33:44.697Z</time></trkpt><trkpt lat="40.0835746" lon="8.4916867"><ele>20.0</ele><time>2026-04-30T15:33:45.696Z</time></trkpt><trkpt lat="40.083451" lon="8.4916867"><ele>20.0</ele><time>2026-04-30T15:33:46.693Z</time></trkpt><trkpt lat="40.0833334" lon="8.4916888"><ele>20.0</ele><time>2026-04-30T15:33:47.697Z</time></trkpt><trkpt lat="40.0832218" lon="8.4916855"><ele>20.0</ele><time>2026-04-30T15:33:48.696Z</time></trkpt><trkpt lat="40.0831102" lon="8.4916802"><ele>19.75</ele><time>2026-04-30T15:33:49.693Z</time></trkpt><trkpt lat="40.0829963" lon="8.4916763"><ele>19.5</ele><time>2026-04-30T15:33:50.694Z</time></trkpt><trkpt lat="40.0828789" lon="8.4916729"><ele>19.25</ele><time>2026-04-30T15:33:51.702Z</time></trkpt><trkpt lat="40.0827619" lon="8.4916715"><ele>19.0</ele><time>2026-04-30T15:33:52.694Z</time></trkpt><trkpt lat="40.0826428" lon="8.4916685"><ele>19.0</ele><time>2026-04-30T15:33:53.7Z</time></trkpt><trkpt lat="40.0825204" lon="8.4916673"><ele>19.0</ele><time>2026-04-30T15:33:54.696Z</time></trkpt><trkpt lat="40.0823969" lon="8.4916671"><ele>19.0</ele><time>2026-04-30T15:33:55.694Z</time></trkpt><trkpt lat="40.08227" lon="8.4916645"><ele>19.0</ele><time>2026-04-30T15:33:56.69Z</time></trkpt><trkpt lat="40.082137" lon="8.4916676"><ele>18.75</ele><time>2026-04-30T15:33:57.698Z</time></trkpt><trkpt lat="40.0819991" lon="8.4916761"><ele>18.5</ele><time>2026-04-30T15:33:58.699Z</time></trkpt><trkpt lat="40.081855" lon="8.4916934"><ele>18.25</ele><time>2026-04-30T15:33:59.692Z</time></trkpt><trkpt lat="40.0817064" lon="8.4917201"><ele>18.0</ele><time>2026-04-30T15:34:00.694Z</time></trkpt><trkpt lat="40.0815559" lon="8.4917549"><ele>17.666666666666668</ele><time>2026-04-30T15:34:01.693Z</time></trkpt><trkpt lat="40.0814012" lon="8.4917952"><ele>17.333333333333336</ele><time>2026-04-30T15:34:02.694Z</time></trkpt><trkpt lat="40.0812427" lon="8.4918372"><ele>17.0</ele><time>2026-04-30T15:34:03.694Z</time></trkpt><trkpt lat="40.0810868" lon="8.4918775"><ele>17.0</ele><time>2026-04-30T15:34:04.699Z</time></trkpt><trkpt lat="40.0809344" lon="8.4919163"><ele>17.0</ele><time>2026-04-30T15:34:05.7Z</time></trkpt><trkpt lat="40.0807796" lon="8.4919535"><ele>17.0</ele><time>2026-04-30T15:34:06.695Z</time></trkpt><trkpt lat="40.0806247" lon="8.4919861"><ele>16.666666666666668</ele><time>2026-04-30T15:34:07.7Z</time></trkpt><trkpt lat="40.0804691" lon="8.492011"><ele>16.333333333333332</ele><time>2026-04-30T15:34:08.695Z</time></trkpt><trkpt lat="40.0803117" lon="8.4920245"><ele>16.0</ele><time>2026-04-30T15:34:09.696Z</time></trkpt><trkpt lat="40.0801558" lon="8.4920241"><ele>16.0</ele><time>2026-04-30T15:34:10.701Z</time></trkpt><trkpt lat="40.0799989" lon="8.4920106"><ele>16.0</ele><time>2026-04-30T15:34:11.698Z</time></trkpt><trkpt lat="40.0798374" lon="8.4919899"><ele>16.0</ele><time>2026-04-30T15:34:12.698Z</time></trkpt><trkpt lat="40.0796738" lon="8.4919644"><ele>16.333333333333332</ele><time>2026-04-30T15:34:13.697Z</time></trkpt><trkpt lat="40.0795068" lon="8.4919365"><ele>16.666666666666668</ele><time>2026-04-30T15:34:14.696Z</time></trkpt><trkpt lat="40.0793385" lon="8.4919057"><ele>17.0</ele><time>2026-04-30T15:34:15.693Z</time></trkpt><trkpt lat="40.0791682" lon="8.4918774"><ele>17.0</ele><time>2026-04-30T15:34:16.696Z</time></trkpt><trkpt lat="40.0789954" lon="8.4918477"><ele>17.0</ele><time>2026-04-30T15:34:17.695Z</time></trkpt><trkpt lat="40.0788186" lon="8.4918167"><ele>17.0</ele><time>2026-04-30T15:34:18.695Z</time></trkpt><trkpt lat="40.0786418" lon="8.4917917"><ele>17.0</ele><time>2026-04-30T15:34:19.696Z</time></trkpt><trkpt lat="40.078465" lon="8.4917784"><ele>17.0</ele><time>2026-04-30T15:34:20.699Z</time></trkpt><trkpt lat="40.0782892" lon="8.4917888"><ele>17.0</ele><time>2026-04-30T15:34:21.694Z</time></trkpt><trkpt lat="40.0781145" lon="8.4918228"><ele>17.0</ele><time>2026-04-30T15:34:22.697Z</time></trkpt><trkpt lat="40.0779446" lon="8.4918814"><ele>17.0</ele><time>2026-04-30T15:34:23.694Z</time></trkpt><trkpt lat="40.0777814" lon="8.4919657"><ele>17.0</ele><time>2026-04-30T15:34:24.696Z</time></trkpt><trkpt lat="40.0776255" lon="8.4920636"><ele>18.0</ele><time>2026-04-30T15:34:25.697Z</time></trkpt><trkpt lat="40.0774743" lon="8.492168"><ele>19.0</ele><time>2026-04-30T15:34:26.695Z</time></trkpt><trkpt lat="40.0773223" lon="8.4922722"><ele>20.0</ele><time>2026-04-30T15:34:27.696Z</time></trkpt><trkpt lat="40.0771644" lon="8.4923778"><ele>20.333333333333336</ele><time>2026-04-30T15:34:28.695Z</time></trkpt><trkpt lat="40.0770026" lon="8.4924876"><ele>20.666666666666668</ele><time>2026-04-30T15:34:29.697Z</time></trkpt><trkpt lat="40.0768394" lon="8.4925977"><ele>21.0</ele><time>2026-04-30T15:34:30.693Z</time></trkpt><trkpt lat="40.0766713" lon="8.4927097"><ele>22.0</ele><time>2026-04-30T15:34:31.695Z</time></trkpt><trkpt lat="40.0765052" lon="8.4928198"><ele>23.0</ele><time>2026-04-30T15:34:32.696Z</time></trkpt><trkpt lat="40.0763417" lon="8.4929278"><ele>24.0</ele><time>2026-04-30T15:34:33.696Z</time></trkpt><trkpt lat="40.0761786" lon="8.4930378"><ele>25.0</ele><time>2026-04-30T15:34:34.698Z</time></trkpt><trkpt lat="40.0760209" lon="8.4931442"><ele>26.0</ele><time>2026-04-30T15:34:35.698Z</time></trkpt><trkpt lat="40.0758729" lon="8.4932398"><ele>27.0</ele><time>2026-04-30T15:34:36.696Z</time></trkpt><trkpt lat="40.0757319" lon="8.4933346"><ele>27.0</ele><time>2026-04-30T15:34:37.697Z</time></trkpt><trkpt lat="40.075587" lon="8.4934327"><ele>27.0</ele><time>2026-04-30T15:34:38.697Z</time></trkpt><trkpt lat="40.0754383" lon="8.4935287"><ele>27.0</ele><time>2026-04-30T15:34:39.699Z</time></trkpt><trkpt lat="40.0752878" lon="8.4936225"><ele>27.0</ele><time>2026-04-30T15:34:40.698Z</time></trkpt><trkpt lat="40.0751406" lon="8.4937123"><ele>27.0</ele><time>2026-04-30T15:34:41.691Z</time></trkpt><trkpt lat="40.0749977" lon="8.4938193"><ele>27.0</ele><time>2026-04-30T15:34:42.693Z</time></trkpt><trkpt lat="40.0748612" lon="8.4939453"><ele>27.0</ele><time>2026-04-30T15:34:43.698Z</time></trkpt><trkpt lat="40.0747342" lon="8.4940871"><ele>27.0</ele><time>2026-04-30T15:34:44.694Z</time></trkpt><trkpt lat="40.0746099" lon="8.4942428"><ele>27.0</ele><time>2026-04-30T15:34:45.694Z</time></trkpt><trkpt lat="40.0744757" lon="8.4944129"><ele>27.0</ele><time>2026-04-30T15:34:46.697Z</time></trkpt><trkpt lat="40.0743292" lon="8.4945985"><ele>27.0</ele><time>2026-04-30T15:34:47.697Z</time></trkpt><trkpt lat="40.074174" lon="8.4948027"><ele>27.0</ele><time>2026-04-30T15:34:48.693Z</time></trkpt><trkpt lat="40.0740056" lon="8.4950139"><ele>27.0</ele><time>2026-04-30T15:34:49.692Z</time></trkpt><trkpt lat="40.0738457" lon="8.4951971"><ele>27.0</ele><time>2026-04-30T15:34:50.703Z</time></trkpt><trkpt lat="40.073688" lon="8.4953708"><ele>27.0</ele><time>2026-04-30T15:34:51.695Z</time></trkpt><trkpt lat="40.0735248" lon="8.4955332"><ele>27.666666666666664</ele><time>2026-04-30T15:34:52.694Z</time></trkpt><trkpt lat="40.073364" lon="8.4956807"><ele>28.333333333333332</ele><time>2026-04-30T15:34:53.691Z</time></trkpt><trkpt lat="40.0732176" lon="8.4958106"><ele>29.0</ele><time>2026-04-30T15:34:54.695Z</time></trkpt><trkpt lat="40.0730812" lon="8.4959289"><ele>29.0</ele><time>2026-04-30T15:34:55.697Z</time></trkpt><trkpt lat="40.0729636" lon="8.4960307"><ele>29.0</ele><time>2026-04-30T15:34:56.692Z</time></trkpt><trkpt lat="40.0728554" lon="8.4961177"><ele>29.0</ele><time>2026-04-30T15:34:57.695Z</time></trkpt><trkpt lat="40.0727505" lon="8.496169"><ele>29.0</ele><time>2026-04-30T15:34:58.697Z</time></trkpt><trkpt lat="40.0726513" lon="8.4961736"><ele>29.0</ele><time>2026-04-30T15:34:59.693Z</time></trkpt><trkpt lat="40.0725723" lon="8.4961264"><ele>29.0</ele><time>2026-04-30T15:35:00.698Z</time></trkpt><trkpt lat="40.0725108" lon="8.4960363"><ele>29.0</ele><time>2026-04-30T15:35:01.694Z</time></trkpt><trkpt lat="40.0724596" lon="8.4959163"><ele>29.0</ele><time>2026-04-30T15:35:02.696Z</time></trkpt><trkpt lat="40.0724271" lon="8.4957734"><ele>29.0</ele><time>2026-04-30T15:35:03.694Z</time></trkpt><trkpt lat="40.0724295" lon="8.4956208"><ele>29.0</ele><time>2026-04-30T15:35:04.696Z</time></trkpt><trkpt lat="40.0724727" lon="8.4954715"><ele>29.0</ele><time>2026-04-30T15:35:05.695Z</time></trkpt><trkpt lat="40.0725442" lon="8.4953242"><ele>29.0</ele><time>2026-04-30T15:35:06.693Z</time></trkpt><trkpt lat="40.0726369" lon="8.4951598"><ele>29.0</ele><time>2026-04-30T15:35:07.698Z</time></trkpt><trkpt lat="40.0727137" lon="8.4949937"><ele>31.0</ele><time>2026-04-30T15:35:08.697Z</time></trkpt><trkpt lat="40.0727872" lon="8.4948435"><ele>33.0</ele><time>2026-04-30T15:35:09.692Z</time></trkpt><trkpt lat="40.072849" lon="8.4946869"><ele>35.0</ele><time>2026-04-30T15:35:10.695Z</time></trkpt><trkpt lat="40.0728877" lon="8.4945201"><ele>37.0</ele><time>2026-04-30T15:35:11.691Z</time></trkpt><trkpt lat="40.0729058" lon="8.4943429"><ele>37.0</ele><time>2026-04-30T15:35:12.694Z</time></trkpt><trkpt lat="40.0728969" lon="8.494161"><ele>37.0</ele><time>2026-04-30T15:35:13.695Z</time></trkpt><trkpt lat="40.0728517" lon="8.493983"><ele>37.0</ele><time>2026-04-30T15:35:14.691Z</time></trkpt><trkpt lat="40.0727662" lon="8.4938239"><ele>37.0</ele><time>2026-04-30T15:35:15.698Z</time></trkpt><trkpt lat="40.0726453" lon="8.4936902"><ele>35.333333333333336</ele><time>2026-04-30T15:35:16.696Z</time></trkpt><trkpt lat="40.0725008" lon="8.4935813"><ele>33.666666666666664</ele><time>2026-04-30T15:35:17.694Z</time></trkpt><trkpt lat="40.0723516" lon="8.49352"><ele>32.0</ele><time>2026-04-30T15:35:18.693Z</time></trkpt><trkpt lat="40.0721893" lon="8.4935262"><ele>32.666666666666664</ele><time>2026-04-30T15:35:19.693Z</time></trkpt><trkpt lat="40.0720272" lon="8.4935937"><ele>33.333333333333336</ele><time>2026-04-30T15:35:20.692Z</time></trkpt><trkpt lat="40.071871" lon="8.4937152"><ele>34.0</ele><time>2026-04-30T15:35:21.694Z</time></trkpt><trkpt lat="40.071707" lon="8.493875"><ele>31.333333333333336</ele><time>2026-04-30T15:35:22.694Z</time></trkpt><trkpt lat="40.0715375" lon="8.4940605"><ele>28.666666666666664</ele><time>2026-04-30T15:35:23.693Z</time></trkpt><trkpt lat="40.0713705" lon="8.4942614"><ele>26.0</ele><time>2026-04-30T15:35:24.697Z</time></trkpt><trkpt lat="40.0712111" lon="8.494455"><ele>27.333333333333332</ele><time>2026-04-30T15:35:25.693Z</time></trkpt><trkpt lat="40.0710535" lon="8.4946491"><ele>28.666666666666664</ele><time>2026-04-30T15:35:26.696Z</time></trkpt><trkpt lat="40.0708947" lon="8.4948459"><ele>30.0</ele><time>2026-04-30T15:35:27.701Z</time></trkpt><trkpt lat="40.0707331" lon="8.4950429"><ele>29.333333333333336</ele><time>2026-04-30T15:35:28.694Z</time></trkpt><trkpt lat="40.0705672" lon="8.4952369"><ele>28.666666666666668</ele><time>2026-04-30T15:35:29.693Z</time></trkpt><trkpt lat="40.0704023" lon="8.495439"><ele>28.0</ele><time>2026-04-30T15:35:30.7Z</time></trkpt><trkpt lat="40.0702352" lon="8.4956465"><ele>28.0</ele><time>2026-04-30T15:35:31.696Z</time></trkpt><trkpt lat="40.0700641" lon="8.4958631"><ele>28.0</ele><time>2026-04-30T15:35:32.697Z</time></trkpt><trkpt lat="40.0698937" lon="8.4960747"><ele>27.0</ele><time>2026-04-30T15:35:33.692Z</time></trkpt><trkpt lat="40.0697225" lon="8.4962855"><ele>26.0</ele><time>2026-04-30T15:35:34.696Z</time></trkpt><trkpt lat="40.0695513" lon="8.4964973"><ele>26.0</ele><time>2026-04-30T15:35:35.696Z</time></trkpt><trkpt lat="40.0693794" lon="8.4967094"><ele>26.0</ele><time>2026-04-30T15:35:36.697Z</time></trkpt><trkpt lat="40.0692076" lon="8.4969204"><ele>25.5</ele><time>2026-04-30T15:35:37.697Z</time></trkpt><trkpt lat="40.0690326" lon="8.4971304"><ele>25.0</ele><time>2026-04-30T15:35:38.695Z</time></trkpt><trkpt lat="40.0688586" lon="8.4973424"><ele>25.0</ele><time>2026-04-30T15:35:39.695Z</time></trkpt><trkpt lat="40.0686837" lon="8.497556"><ele>25.0</ele><time>2026-04-30T15:35:40.698Z</time></trkpt><trkpt lat="40.068508" lon="8.4977705"><ele>23.5</ele><time>2026-04-30T15:35:41.696Z</time></trkpt><trkpt lat="40.068333" lon="8.4979908"><ele>22.0</ele><time>2026-04-30T15:35:42.694Z</time></trkpt><trkpt lat="40.0681565" lon="8.498206"><ele>22.0</ele><time>2026-04-30T15:35:43.693Z</time></trkpt><trkpt lat="40.0679812" lon="8.4984188"><ele>22.0</ele><time>2026-04-30T15:35:44.694Z</time></trkpt><trkpt lat="40.0678058" lon="8.4986327"><ele>26.5</ele><time>2026-04-30T15:35:45.698Z</time></trkpt><trkpt lat="40.0676284" lon="8.4988487"><ele>31.0</ele><time>2026-04-30T15:35:46.695Z</time></trkpt><trkpt lat="40.0674496" lon="8.4990672"><ele>27.0</ele><time>2026-04-30T15:35:47.698Z</time></trkpt><trkpt lat="40.0672713" lon="8.4992857"><ele>23.0</ele><time>2026-04-30T15:35:48.697Z</time></trkpt><trkpt lat="40.0670926" lon="8.4995029"><ele>30.5</ele><time>2026-04-30T15:35:49.695Z</time></trkpt><trkpt lat="40.0669142" lon="8.4997153"><ele>38.0</ele><time>2026-04-30T15:35:50.694Z</time></trkpt><trkpt lat="40.0667408" lon="8.4999216"><ele>37.33333333333333</ele><time>2026-04-30T15:35:51.698Z</time></trkpt><trkpt lat="40.0665774" lon="8.5001117"><ele>36.666666666666664</ele><time>2026-04-30T15:35:52.691Z</time></trkpt><trkpt lat="40.0664162" lon="8.5002936"><ele>36.0</ele><time>2026-04-30T15:35:53.696Z</time></trkpt><trkpt lat="40.0662561" lon="8.5004709"><ele>36.0</ele><time>2026-04-30T15:35:54.702Z</time></trkpt><trkpt lat="40.066097" lon="8.500645"><ele>36.0</ele><time>2026-04-30T15:35:55.698Z</time></trkpt><trkpt lat="40.0659353" lon="8.500818"><ele>36.0</ele><time>2026-04-30T15:35:56.694Z</time></trkpt><trkpt lat="40.0657696" lon="8.5009901"><ele>36.333333333333336</ele><time>2026-04-30T15:35:57.694Z</time></trkpt><trkpt lat="40.0656064" lon="8.5011612"><ele>36.66666666666667</ele><time>2026-04-30T15:35:58.69Z</time></trkpt><trkpt lat="40.0654414" lon="8.501329"><ele>37.0</ele><time>2026-04-30T15:35:59.701Z</time></trkpt><trkpt lat="40.0652805" lon="8.5014844"><ele>37.0</ele><time>2026-04-30T15:36:00.695Z</time></trkpt><trkpt lat="40.0651277" lon="8.5016125"><ele>37.0</ele><time>2026-04-30T15:36:01.694Z</time></trkpt><trkpt lat="40.0649743" lon="8.5017063"><ele>37.0</ele><time>2026-04-30T15:36:02.696Z</time></trkpt><trkpt lat="40.064816" lon="8.5017638"><ele>42.0</ele><time>2026-04-30T15:36:03.698Z</time></trkpt><trkpt lat="40.064654" lon="8.501788"><ele>47.0</ele><time>2026-04-30T15:36:04.693Z</time></trkpt><trkpt lat="40.0644938" lon="8.5017731"><ele>52.0</ele><time>2026-04-30T15:36:05.695Z</time></trkpt><trkpt lat="40.0643392" lon="8.5017182"><ele>52.0</ele><time>2026-04-30T15:36:06.696Z</time></trkpt><trkpt lat="40.0641948" lon="8.5016273"><ele>52.0</ele><time>2026-04-30T15:36:07.693Z</time></trkpt><trkpt lat="40.064073" lon="8.501499"><ele>52.0</ele><time>2026-04-30T15:36:08.7Z</time></trkpt><trkpt lat="40.0639731" lon="8.5013396"><ele>57.0</ele><time>2026-04-30T15:36:09.696Z</time></trkpt><trkpt lat="40.0639034" lon="8.501155"><ele>62.0</ele><time>2026-04-30T15:36:10.694Z</time></trkpt><trkpt lat="40.0638668" lon="8.5009484"><ele>67.0</ele><time>2026-04-30T15:36:11.695Z</time></trkpt><trkpt lat="40.0638612" lon="8.5007234"><ele>67.0</ele><time>2026-04-30T15:36:12.695Z</time></trkpt><trkpt lat="40.0638687" lon="8.500489"><ele>67.0</ele><time>2026-04-30T15:36:13.693Z</time></trkpt><trkpt lat="40.0638709" lon="8.5002734"><ele>67.0</ele><time>2026-04-30T15:36:14.695Z</time></trkpt><trkpt lat="40.0638481" lon="8.5000615"><ele>67.33333333333333</ele><time>2026-04-30T15:36:15.694Z</time></trkpt><trkpt lat="40.0637915" lon="8.4998671"><ele>67.66666666666667</ele><time>2026-04-30T15:36:16.694Z</time></trkpt><trkpt lat="40.063695" lon="8.4996976"><ele>68.0</ele><time>2026-04-30T15:36:17.694Z</time></trkpt><trkpt lat="40.0635669" lon="8.4995615"><ele>68.0</ele><time>2026-04-30T15:36:18.695Z</time></trkpt><trkpt lat="40.0634093" lon="8.4994688"><ele>68.0</ele><time>2026-04-30T15:36:19.693Z</time></trkpt><trkpt lat="40.0632221" lon="8.4994159"><ele>68.0</ele><time>2026-04-30T15:36:20.695Z</time></trkpt><trkpt lat="40.0630125" lon="8.49939"><ele>69.5</ele><time>2026-04-30T15:36:21.697Z</time></trkpt><trkpt lat="40.0627886" lon="8.4993732"><ele>71.0</ele><time>2026-04-30T15:36:22.694Z</time></trkpt><trkpt lat="40.0625611" lon="8.4993569"><ele>72.0</ele><time>2026-04-30T15:36:23.694Z</time></trkpt><trkpt lat="40.0623359" lon="8.4993369"><ele>73.0</ele><time>2026-04-30T15:36:24.693Z</time></trkpt><trkpt lat="40.0621108" lon="8.4993171"><ele>73.0</ele><time>2026-04-30T15:36:25.694Z</time></trkpt><trkpt lat="40.061886" lon="8.4992955"><ele>73.0</ele><time>2026-04-30T15:36:26.695Z</time></trkpt><trkpt lat="40.0616626" lon="8.4992771"><ele>73.0</ele><time>2026-04-30T15:36:27.696Z</time></trkpt><trkpt lat="40.0614458" lon="8.4992615"><ele>73.33333333333333</ele><time>2026-04-30T15:36:28.694Z</time></trkpt><trkpt lat="40.0612305" lon="8.4992507"><ele>73.66666666666667</ele><time>2026-04-30T15:36:29.694Z</time></trkpt><trkpt lat="40.061017" lon="8.4992582"><ele>74.0</ele><time>2026-04-30T15:36:30.699Z</time></trkpt><trkpt lat="40.0608041" lon="8.4992953"><ele>75.0</ele><time>2026-04-30T15:36:31.693Z</time></trkpt><trkpt lat="40.0605946" lon="8.4993602"><ele>76.0</ele><time>2026-04-30T15:36:32.695Z</time></trkpt><trkpt lat="40.060391" lon="8.4994537"><ele>77.0</ele><time>2026-04-30T15:36:33.692Z</time></trkpt><trkpt lat="40.0601911" lon="8.4995655"><ele>76.66666666666667</ele><time>2026-04-30T15:36:34.694Z</time></trkpt><trkpt lat="40.0600045" lon="8.4996787"><ele>76.33333333333333</ele><time>2026-04-30T15:36:35.694Z</time></trkpt><trkpt lat="40.0598321" lon="8.4997856"><ele>76.0</ele><time>2026-04-30T15:36:36.693Z</time></trkpt><trkpt lat="40.0596715" lon="8.4998852"><ele>76.0</ele><time>2026-04-30T15:36:37.69Z</time></trkpt><trkpt lat="40.0595093" lon="8.4999889"><ele>76.0</ele><time>2026-04-30T15:36:38.694Z</time></trkpt><trkpt lat="40.0593446" lon="8.5000932"><ele>76.0</ele><time>2026-04-30T15:36:39.697Z</time></trkpt><trkpt lat="40.0591765" lon="8.5002021"><ele>75.66666666666666</ele><time>2026-04-30T15:36:40.693Z</time></trkpt><trkpt lat="40.0590029" lon="8.5003123"><ele>75.33333333333333</ele><time>2026-04-30T15:36:41.694Z</time></trkpt><trkpt lat="40.0588225" lon="8.5004243"><ele>75.0</ele><time>2026-04-30T15:36:42.693Z</time></trkpt><trkpt lat="40.058638" lon="8.500545"><ele>75.66666666666667</ele><time>2026-04-30T15:36:43.695Z</time></trkpt><trkpt lat="40.0584465" lon="8.5006673"><ele>76.33333333333334</ele><time>2026-04-30T15:36:44.695Z</time></trkpt><trkpt lat="40.0582529" lon="8.5007924"><ele>77.0</ele><time>2026-04-30T15:36:45.696Z</time></trkpt><trkpt lat="40.0580502" lon="8.5009241"><ele>77.0</ele><time>2026-04-30T15:36:46.693Z</time></trkpt><trkpt lat="40.0578414" lon="8.5010624"><ele>77.0</ele><time>2026-04-30T15:36:47.696Z</time></trkpt><trkpt lat="40.0576257" lon="8.5012027"><ele>76.5</ele><time>2026-04-30T15:36:48.696Z</time></trkpt><trkpt lat="40.0574035" lon="8.5013454"><ele>76.0</ele><time>2026-04-30T15:36:49.696Z</time></trkpt><trkpt lat="40.0571764" lon="8.5014918"><ele>76.0</ele><time>2026-04-30T15:36:50.695Z</time></trkpt><trkpt lat="40.0569438" lon="8.5016415"><ele>76.0</ele><time>2026-04-30T15:36:51.696Z</time></trkpt><trkpt lat="40.0567098" lon="8.5017925"><ele>75.0</ele><time>2026-04-30T15:36:52.695Z</time></trkpt><trkpt lat="40.0564756" lon="8.501948"><ele>74.0</ele><time>2026-04-30T15:36:53.694Z</time></trkpt><trkpt lat="40.0562426" lon="8.5021086"><ele>73.0</ele><time>2026-04-30T15:36:54.695Z</time></trkpt><trkpt lat="40.0560087" lon="8.5022729"><ele>72.0</ele><time>2026-04-30T15:36:55.698Z</time></trkpt><trkpt lat="40.0557759" lon="8.5024354"><ele>70.0</ele><time>2026-04-30T15:36:56.694Z</time></trkpt><trkpt lat="40.0555486" lon="8.5025925"><ele>68.0</ele><time>2026-04-30T15:36:57.699Z</time></trkpt><trkpt lat="40.0553313" lon="8.5027441"><ele>68.0</ele><time>2026-04-30T15:36:58.69Z</time></trkpt><trkpt lat="40.0551215" lon="8.5028916"><ele>68.0</ele><time>2026-04-30T15:36:59.694Z</time></trkpt><trkpt lat="40.0549184" lon="8.5030358"><ele>66.0</ele><time>2026-04-30T15:37:00.695Z</time></trkpt><trkpt lat="40.0547214" lon="8.5031787"><ele>64.0</ele><time>2026-04-30T15:37:01.699Z</time></trkpt><trkpt lat="40.0545218" lon="8.5033168"><ele>64.0</ele><time>2026-04-30T15:37:02.698Z</time></trkpt><trkpt lat="40.0543238" lon="8.503453"><ele>64.0</ele><time>2026-04-30T15:37:03.692Z</time></trkpt><trkpt lat="40.0541237" lon="8.503587"><ele>64.0</ele><time>2026-04-30T15:37:04.692Z</time></trkpt><trkpt lat="40.053925" lon="8.5037211"><ele>61.0</ele><time>2026-04-30T15:37:05.694Z</time></trkpt><trkpt lat="40.0537229" lon="8.5038568"><ele>58.0</ele><time>2026-04-30T15:37:06.695Z</time></trkpt><trkpt lat="40.0535202" lon="8.5039923"><ele>58.0</ele><time>2026-04-30T15:37:07.693Z</time></trkpt><trkpt lat="40.0533136" lon="8.5041277"><ele>58.0</ele><time>2026-04-30T15:37:08.698Z</time></trkpt><trkpt lat="40.0531021" lon="8.504266"><ele>60.0</ele><time>2026-04-30T15:37:09.699Z</time></trkpt><trkpt lat="40.0528891" lon="8.5044084"><ele>62.0</ele><time>2026-04-30T15:37:10.696Z</time></trkpt><trkpt lat="40.0526727" lon="8.5045515"><ele>63.0</ele><time>2026-04-30T15:37:11.695Z</time></trkpt><trkpt lat="40.0524576" lon="8.5046959"><ele>64.0</ele><time>2026-04-30T15:37:12.695Z</time></trkpt><trkpt lat="40.052242" lon="8.5048269"><ele>66.5</ele><time>2026-04-30T15:37:13.696Z</time></trkpt><trkpt lat="40.0520204" lon="8.5049448"><ele>69.0</ele><time>2026-04-30T15:37:14.696Z</time></trkpt><trkpt lat="40.0517907" lon="8.5050485"><ele>72.0</ele><time>2026-04-30T15:37:15.696Z</time></trkpt><trkpt lat="40.0515581" lon="8.5051415"><ele>75.0</ele><time>2026-04-30T15:37:16.697Z</time></trkpt><trkpt lat="40.0513192" lon="8.5052283"><ele>75.0</ele><time>2026-04-30T15:37:17.693Z</time></trkpt><trkpt lat="40.0510862" lon="8.5053127"><ele>75.0</ele><time>2026-04-30T15:37:18.694Z</time></trkpt><trkpt lat="40.050864" lon="8.5053936"><ele>76.33333333333333</ele><time>2026-04-30T15:37:19.693Z</time></trkpt><trkpt lat="40.0506514" lon="8.5054719"><ele>77.66666666666666</ele><time>2026-04-30T15:37:20.693Z</time></trkpt><trkpt lat="40.050451" lon="8.505548"><ele>79.0</ele><time>2026-04-30T15:37:21.698Z</time></trkpt><trkpt lat="40.0502579" lon="8.5056191"><ele>79.0</ele><time>2026-04-30T15:37:22.695Z</time></trkpt><trkpt lat="40.0500647" lon="8.5056922"><ele>79.0</ele><time>2026-04-30T15:37:23.692Z</time></trkpt><trkpt lat="40.0498711" lon="8.5057699"><ele>79.0</ele><time>2026-04-30T15:37:24.698Z</time></trkpt><trkpt lat="40.0496786" lon="8.5058606"><ele>79.0</ele><time>2026-04-30T15:37:25.693Z</time></trkpt><trkpt lat="40.0494897" lon="8.5059752"><ele>79.0</ele><time>2026-04-30T15:37:26.697Z</time></trkpt><trkpt lat="40.0493041" lon="8.5061155"><ele>79.0</ele><time>2026-04-30T15:37:27.699Z</time></trkpt><trkpt lat="40.0491156" lon="8.5062697"><ele>76.5</ele><time>2026-04-30T15:37:28.693Z</time></trkpt><trkpt lat="40.0489206" lon="8.5064378"><ele>74.0</ele><time>2026-04-30T15:37:29.693Z</time></trkpt><trkpt lat="40.0487185" lon="8.5066123"><ele>74.0</ele><time>2026-04-30T15:37:30.701Z</time></trkpt><trkpt lat="40.048512" lon="8.5067903"><ele>74.0</ele><time>2026-04-30T15:37:31.693Z</time></trkpt><trkpt lat="40.0483027" lon="8.5069714"><ele>70.0</ele><time>2026-04-30T15:37:32.695Z</time></trkpt><trkpt lat="40.0480879" lon="8.5071565"><ele>66.0</ele><time>2026-04-30T15:37:33.694Z</time></trkpt><trkpt lat="40.047873" lon="8.5073422"><ele>66.0</ele><time>2026-04-30T15:37:34.699Z</time></trkpt><trkpt lat="40.0476608" lon="8.5075231"><ele>66.0</ele><time>2026-04-30T15:37:35.697Z</time></trkpt><trkpt lat="40.0474488" lon="8.5077057"><ele>64.5</ele><time>2026-04-30T15:37:36.701Z</time></trkpt><trkpt lat="40.0472351" lon="8.5078869"><ele>63.0</ele><time>2026-04-30T15:37:37.695Z</time></trkpt><trkpt lat="40.0470161" lon="8.5080614"><ele>63.0</ele><time>2026-04-30T15:37:38.693Z</time></trkpt><trkpt lat="40.046792" lon="8.5082287"><ele>63.0</ele><time>2026-04-30T15:37:39.693Z</time></trkpt><trkpt lat="40.0465672" lon="8.5083931"><ele>61.0</ele><time>2026-04-30T15:37:40.691Z</time></trkpt><trkpt lat="40.0463372" lon="8.5085511"><ele>59.0</ele><time>2026-04-30T15:37:41.692Z</time></trkpt><trkpt lat="40.0461059" lon="8.5087073"><ele>59.5</ele><time>2026-04-30T15:37:42.692Z</time></trkpt><trkpt lat="40.0458743" lon="8.5088681"><ele>60.0</ele><time>2026-04-30T15:37:43.695Z</time></trkpt><trkpt lat="40.0456431" lon="8.5090285"><ele>60.0</ele><time>2026-04-30T15:37:44.692Z</time></trkpt><trkpt lat="40.0454115" lon="8.509189"><ele>60.0</ele><time>2026-04-30T15:37:45.693Z</time></trkpt><trkpt lat="40.0451786" lon="8.5093503"><ele>58.0</ele><time>2026-04-30T15:37:46.695Z</time></trkpt><trkpt lat="40.0449466" lon="8.5095109"><ele>56.0</ele><time>2026-04-30T15:37:47.694Z</time></trkpt><trkpt lat="40.0447128" lon="8.5096698"><ele>55.0</ele><time>2026-04-30T15:37:48.692Z</time></trkpt><trkpt lat="40.0444778" lon="8.5098292"><ele>54.0</ele><time>2026-04-30T15:37:49.694Z</time></trkpt><trkpt lat="40.044242" lon="8.5099888"><ele>52.5</ele><time>2026-04-30T15:37:50.695Z</time></trkpt><trkpt lat="40.0440067" lon="8.5101507"><ele>51.0</ele><time>2026-04-30T15:37:51.693Z</time></trkpt><trkpt lat="40.043771" lon="8.5103141"><ele>51.5</ele><time>2026-04-30T15:37:52.695Z</time></trkpt><trkpt lat="40.0435342" lon="8.5104763"><ele>52.0</ele><time>2026-04-30T15:37:53.692Z</time></trkpt><trkpt lat="40.0432983" lon="8.5106373"><ele>52.0</ele><time>2026-04-30T15:37:54.692Z</time></trkpt><trkpt lat="40.043069" lon="8.5107918"><ele>52.0</ele><time>2026-04-30T15:37:55.691Z</time></trkpt><trkpt lat="40.0428495" lon="8.5109403"><ele>52.0</ele><time>2026-04-30T15:37:56.697Z</time></trkpt><trkpt lat="40.0426378" lon="8.5110846"><ele>52.0</ele><time>2026-04-30T15:37:57.699Z</time></trkpt><trkpt lat="40.0424307" lon="8.5112271"><ele>54.0</ele><time>2026-04-30T15:37:58.693Z</time></trkpt><trkpt lat="40.0422232" lon="8.5113641"><ele>56.0</ele><time>2026-04-30T15:37:59.694Z</time></trkpt><trkpt lat="40.0420124" lon="8.5114906"><ele>56.0</ele><time>2026-04-30T15:38:00.694Z</time></trkpt><trkpt lat="40.0417991" lon="8.5116057"><ele>56.0</ele><time>2026-04-30T15:38:01.694Z</time></trkpt><trkpt lat="40.0415776" lon="8.5117026"><ele>55.0</ele><time>2026-04-30T15:38:02.699Z</time></trkpt><trkpt lat="40.0413539" lon="8.5117938"><ele>54.0</ele><time>2026-04-30T15:38:03.704Z</time></trkpt><trkpt lat="40.0411257" lon="8.5118819"><ele>54.0</ele><time>2026-04-30T15:38:04.69Z</time></trkpt><trkpt lat="40.040896" lon="8.5119724"><ele>54.0</ele><time>2026-04-30T15:38:05.69Z</time></trkpt><trkpt lat="40.0406653" lon="8.512062"><ele>53.5</ele><time>2026-04-30T15:38:06.694Z</time></trkpt><trkpt lat="40.0404327" lon="8.5121525"><ele>53.0</ele><time>2026-04-30T15:38:07.692Z</time></trkpt><trkpt lat="40.040215" lon="8.5122381"><ele>53.0</ele><time>2026-04-30T15:38:08.696Z</time></trkpt><trkpt lat="40.0400508" lon="8.5123036"><ele>53.0</ele><time>2026-04-30T15:38:09.693Z</time></trkpt><trkpt lat="40.0399335" lon="8.5123488"><ele>53.0</ele><time>2026-04-30T15:38:10.696Z</time></trkpt><trkpt lat="40.0398516" lon="8.5123814"><ele>53.0</ele><time>2026-04-30T15:38:11.691Z</time></trkpt><trkpt lat="40.0397881" lon="8.5124052"><ele>53.0</ele><time>2026-04-30T15:38:12.695Z</time></trkpt><trkpt lat="40.0397115" lon="8.5124372"><ele>52.599999999999994</ele><time>2026-04-30T15:38:13.694Z</time></trkpt><trkpt lat="40.0396284" lon="8.5124721"><ele>52.199999999999996</ele><time>2026-04-30T15:38:14.699Z</time></trkpt><trkpt lat="40.03954" lon="8.512508"><ele>51.8</ele><time>2026-04-30T15:38:15.695Z</time></trkpt><trkpt lat="40.0394553" lon="8.5125416"><ele>51.4</ele><time>2026-04-30T15:38:16.7Z</time></trkpt><trkpt lat="40.0393677" lon="8.5125759"><ele>51.0</ele><time>2026-04-30T15:38:17.699Z</time></trkpt><trkpt lat="40.0392771" lon="8.5126116"><ele>51.0</ele><time>2026-04-30T15:38:18.695Z</time></trkpt><trkpt lat="40.0391753" lon="8.5126529"><ele>51.0</ele><time>2026-04-30T15:38:19.7Z</time></trkpt><trkpt lat="40.0390558" lon="8.5127009"><ele>51.0</ele><time>2026-04-30T15:38:20.695Z</time></trkpt><trkpt lat="40.0389251" lon="8.5127503"><ele>51.0</ele><time>2026-04-30T15:38:21.694Z</time></trkpt><trkpt lat="40.0387851" lon="8.5128046"><ele>50.66666666666667</ele><time>2026-04-30T15:38:22.692Z</time></trkpt><trkpt lat="40.0386355" lon="8.5128644"><ele>50.333333333333336</ele><time>2026-04-30T15:38:23.696Z</time></trkpt><trkpt lat="40.0384735" lon="8.5129268"><ele>50.0</ele><time>2026-04-30T15:38:24.694Z</time></trkpt><trkpt lat="40.0383095" lon="8.5129921"><ele>49.66666666666667</ele><time>2026-04-30T15:38:25.696Z</time></trkpt><trkpt lat="40.0381371" lon="8.5130617"><ele>49.33333333333333</ele><time>2026-04-30T15:38:26.693Z</time></trkpt><trkpt lat="40.0379528" lon="8.513132"><ele>49.0</ele><time>2026-04-30T15:38:27.692Z</time></trkpt><trkpt lat="40.037759" lon="8.5132074"><ele>49.0</ele><time>2026-04-30T15:38:28.698Z</time></trkpt><trkpt lat="40.0375547" lon="8.5132876"><ele>49.0</ele><time>2026-04-30T15:38:29.7Z</time></trkpt><trkpt lat="40.0373569" lon="8.5133644"><ele>49.0</ele><time>2026-04-30T15:38:30.7Z</time></trkpt><trkpt lat="40.0371576" lon="8.5134438"><ele>48.666666666666664</ele><time>2026-04-30T15:38:31.696Z</time></trkpt><trkpt lat="40.0369574" lon="8.5135225"><ele>48.33333333333333</ele><time>2026-04-30T15:38:32.698Z</time></trkpt><trkpt lat="40.0367569" lon="8.5136007"><ele>48.0</ele><time>2026-04-30T15:38:33.695Z</time></trkpt><trkpt lat="40.0365527" lon="8.5136838"><ele>47.0</ele><time>2026-04-30T15:38:34.698Z</time></trkpt><trkpt lat="40.0363497" lon="8.5137809"><ele>46.0</ele><time>2026-04-30T15:38:35.696Z</time></trkpt><trkpt lat="40.0361408" lon="8.5138911"><ele>45.0</ele><time>2026-04-30T15:38:36.694Z</time></trkpt><trkpt lat="40.0359299" lon="8.5140064"><ele>44.666666666666664</ele><time>2026-04-30T15:38:37.695Z</time></trkpt><trkpt lat="40.03572" lon="8.5141208"><ele>44.33333333333333</ele><time>2026-04-30T15:38:38.695Z</time></trkpt><trkpt lat="40.0355153" lon="8.5142328"><ele>44.0</ele><time>2026-04-30T15:38:39.694Z</time></trkpt><trkpt lat="40.0353097" lon="8.5143479"><ele>44.0</ele><time>2026-04-30T15:38:40.695Z</time></trkpt><trkpt lat="40.0351039" lon="8.5144688"><ele>44.0</ele><time>2026-04-30T15:38:41.696Z</time></trkpt><trkpt lat="40.0348948" lon="8.5145805"><ele>44.666666666666664</ele><time>2026-04-30T15:38:42.696Z</time></trkpt><trkpt lat="40.034685" lon="8.5146964"><ele>45.333333333333336</ele><time>2026-04-30T15:38:43.696Z</time></trkpt><trkpt lat="40.0344836" lon="8.514809"><ele>46.0</ele><time>2026-04-30T15:38:44.696Z</time></trkpt><trkpt lat="40.034295" lon="8.5149125"><ele>45.333333333333336</ele><time>2026-04-30T15:38:45.696Z</time></trkpt><trkpt lat="40.0341099" lon="8.5150163"><ele>44.666666666666664</ele><time>2026-04-30T15:38:46.694Z</time></trkpt><trkpt lat="40.0339202" lon="8.5151237"><ele>44.0</ele><time>2026-04-30T15:38:47.696Z</time></trkpt><trkpt lat="40.0337231" lon="8.5152336"><ele>44.0</ele><time>2026-04-30T15:38:48.696Z</time></trkpt><trkpt lat="40.0335213" lon="8.515346"><ele>44.0</ele><time>2026-04-30T15:38:49.693Z</time></trkpt><trkpt lat="40.0333124" lon="8.515461"><ele>44.0</ele><time>2026-04-30T15:38:50.695Z</time></trkpt><trkpt lat="40.0330962" lon="8.5155821"><ele>44.0</ele><time>2026-04-30T15:38:51.692Z</time></trkpt><trkpt lat="40.0328716" lon="8.5157076"><ele>44.0</ele><time>2026-04-30T15:38:52.698Z</time></trkpt><trkpt lat="40.0326429" lon="8.5158345"><ele>42.5</ele><time>2026-04-30T15:38:53.703Z</time></trkpt><trkpt lat="40.0324082" lon="8.5159661"><ele>41.0</ele><time>2026-04-30T15:38:54.699Z</time></trkpt><trkpt lat="40.0321775" lon="8.5160947"><ele>41.0</ele><time>2026-04-30T15:38:55.698Z</time></trkpt><trkpt lat="40.0319507" lon="8.516221"><ele>41.0</ele><time>2026-04-30T15:38:56.697Z</time></trkpt><trkpt lat="40.0317254" lon="8.5163461"><ele>41.5</ele><time>2026-04-30T15:38:57.698Z</time></trkpt><trkpt lat="40.0315106" lon="8.5164646"><ele>42.0</ele><time>2026-04-30T15:38:58.697Z</time></trkpt><trkpt lat="40.0313039" lon="8.5165804"><ele>42.0</ele><time>2026-04-30T15:38:59.692Z</time></trkpt><trkpt lat="40.0311022" lon="8.5166937"><ele>42.0</ele><time>2026-04-30T15:39:00.694Z</time></trkpt><trkpt lat="40.0309109" lon="8.5167993"><ele>42.0</ele><time>2026-04-30T15:39:01.697Z</time></trkpt><trkpt lat="40.0307234" lon="8.5169025"><ele>41.666666666666664</ele><time>2026-04-30T15:39:02.693Z</time></trkpt><trkpt lat="40.0305319" lon="8.5170079"><ele>41.33333333333333</ele><time>2026-04-30T15:39:03.693Z</time></trkpt><trkpt lat="40.0303332" lon="8.5171132"><ele>41.0</ele><time>2026-04-30T15:39:04.693Z</time></trkpt><trkpt lat="40.0301288" lon="8.5172147"><ele>39.0</ele><time>2026-04-30T15:39:05.696Z</time></trkpt><trkpt lat="40.0299294" lon="8.517306"><ele>37.0</ele><time>2026-04-30T15:39:06.694Z</time></trkpt><trkpt lat="40.0297248" lon="8.5173896"><ele>35.0</ele><time>2026-04-30T15:39:07.696Z</time></trkpt><trkpt lat="40.0295117" lon="8.51746"><ele>35.0</ele><time>2026-04-30T15:39:08.693Z</time></trkpt><trkpt lat="40.0292921" lon="8.517521"><ele>35.0</ele><time>2026-04-30T15:39:09.695Z</time></trkpt><trkpt lat="40.0290666" lon="8.5175791"><ele>32.5</ele><time>2026-04-30T15:39:10.699Z</time></trkpt><trkpt lat="40.028836" lon="8.5176365"><ele>30.0</ele><time>2026-04-30T15:39:11.696Z</time></trkpt><trkpt lat="40.0286011" lon="8.517696"><ele>30.0</ele><time>2026-04-30T15:39:12.698Z</time></trkpt><trkpt lat="40.0283696" lon="8.5177564"><ele>30.0</ele><time>2026-04-30T15:39:13.694Z</time></trkpt><trkpt lat="40.0281332" lon="8.5178181"><ele>29.0</ele><time>2026-04-30T15:39:14.695Z</time></trkpt><trkpt lat="40.0278953" lon="8.5178765"><ele>28.0</ele><time>2026-04-30T15:39:15.697Z</time></trkpt><trkpt lat="40.0276602" lon="8.5179362"><ele>27.0</ele><time>2026-04-30T15:39:16.702Z</time></trkpt><trkpt lat="40.0274414" lon="8.517993"><ele>26.0</ele><time>2026-04-30T15:39:17.703Z</time></trkpt><trkpt lat="40.0272388" lon="8.518046"><ele>25.0</ele><time>2026-04-30T15:39:18.697Z</time></trkpt><trkpt lat="40.0270449" lon="8.5180947"><ele>25.0</ele><time>2026-04-30T15:39:19.692Z</time></trkpt><trkpt lat="40.0268516" lon="8.5181427"><ele>25.0</ele><time>2026-04-30T15:39:20.693Z</time></trkpt><trkpt lat="40.0266575" lon="8.5181975"><ele>25.0</ele><time>2026-04-30T15:39:21.695Z</time></trkpt><trkpt lat="40.0264628" lon="8.5182702"><ele>25.0</ele><time>2026-04-30T15:39:22.7Z</time></trkpt><trkpt lat="40.0262676" lon="8.5183695"><ele>25.0</ele><time>2026-04-30T15:39:23.695Z</time></trkpt><trkpt lat="40.0260719" lon="8.5184882"><ele>25.0</ele><time>2026-04-30T15:39:24.692Z</time></trkpt><trkpt lat="40.0258766" lon="8.5186182"><ele>24.0</ele><time>2026-04-30T15:39:25.695Z</time></trkpt><trkpt lat="40.0256813" lon="8.51875"><ele>23.0</ele><time>2026-04-30T15:39:26.694Z</time></trkpt><trkpt lat="40.0254853" lon="8.5188813"><ele>22.0</ele><time>2026-04-30T15:39:27.693Z</time></trkpt><trkpt lat="40.0252896" lon="8.5190122"><ele>22.0</ele><time>2026-04-30T15:39:28.695Z</time></trkpt><trkpt lat="40.025095" lon="8.5191445"><ele>22.0</ele><time>2026-04-30T15:39:29.694Z</time></trkpt><trkpt lat="40.0249088" lon="8.5192702"><ele>22.0</ele><time>2026-04-30T15:39:30.695Z</time></trkpt><trkpt lat="40.024728" lon="8.5193904"><ele>21.0</ele><time>2026-04-30T15:39:31.694Z</time></trkpt><trkpt lat="40.0245538" lon="8.5195072"><ele>20.0</ele><time>2026-04-30T15:39:32.698Z</time></trkpt><trkpt lat="40.0243829" lon="8.5196225"><ele>19.0</ele><time>2026-04-30T15:39:33.697Z</time></trkpt><trkpt lat="40.0242098" lon="8.5197401"><ele>18.666666666666664</ele><time>2026-04-30T15:39:34.693Z</time></trkpt><trkpt lat="40.0240381" lon="8.519857"><ele>18.333333333333332</ele><time>2026-04-30T15:39:35.693Z</time></trkpt><trkpt lat="40.023868" lon="8.519973"><ele>18.0</ele><time>2026-04-30T15:39:36.693Z</time></trkpt><trkpt lat="40.0237033" lon="8.5200838"><ele>18.0</ele><time>2026-04-30T15:39:37.697Z</time></trkpt><trkpt lat="40.0235435" lon="8.5201907"><ele>18.0</ele><time>2026-04-30T15:39:38.694Z</time></trkpt><trkpt lat="40.0233867" lon="8.5202976"><ele>18.0</ele><time>2026-04-30T15:39:39.693Z</time></trkpt><trkpt lat="40.0232324" lon="8.5204024"><ele>17.666666666666668</ele><time>2026-04-30T15:39:40.691Z</time></trkpt><trkpt lat="40.0230813" lon="8.520505"><ele>17.333333333333336</ele><time>2026-04-30T15:39:41.695Z</time></trkpt><trkpt lat="40.0229316" lon="8.5206054"><ele>17.0</ele><time>2026-04-30T15:39:42.697Z</time></trkpt><trkpt lat="40.022784" lon="8.520704"><ele>17.0</ele><time>2026-04-30T15:39:43.693Z</time></trkpt><trkpt lat="40.0226386" lon="8.5208004"><ele>17.0</ele><time>2026-04-30T15:39:44.694Z</time></trkpt><trkpt lat="40.0224951" lon="8.520896"><ele>17.0</ele><time>2026-04-30T15:39:45.696Z</time></trkpt><trkpt lat="40.0223522" lon="8.5209905"><ele>17.0</ele><time>2026-04-30T15:39:46.695Z</time></trkpt><trkpt lat="40.0222131" lon="8.5210842"><ele>17.0</ele><time>2026-04-30T15:39:47.697Z</time></trkpt><trkpt lat="40.022078" lon="8.5211767"><ele>17.0</ele><time>2026-04-30T15:39:48.7Z</time></trkpt><trkpt lat="40.0219419" lon="8.5212678"><ele>17.333333333333336</ele><time>2026-04-30T15:39:49.696Z</time></trkpt><trkpt lat="40.0218036" lon="8.5213587"><ele>17.666666666666668</ele><time>2026-04-30T15:39:50.7Z</time></trkpt><trkpt lat="40.0216661" lon="8.521451"><ele>18.0</ele><time>2026-04-30T15:39:51.695Z</time></trkpt><trkpt lat="40.0215272" lon="8.5215456"><ele>18.0</ele><time>2026-04-30T15:39:52.696Z</time></trkpt><trkpt lat="40.0213901" lon="8.5216403"><ele>18.0</ele><time>2026-04-30T15:39:53.696Z</time></trkpt><trkpt lat="40.021253" lon="8.5217339"><ele>18.0</ele><time>2026-04-30T15:39:54.698Z</time></trkpt><trkpt lat="40.0211213" lon="8.5218212"><ele>18.0</ele><time>2026-04-30T15:39:55.696Z</time></trkpt><trkpt lat="40.0209922" lon="8.5219088"><ele>18.0</ele><time>2026-04-30T15:39:56.699Z</time></trkpt><trkpt lat="40.0208613" lon="8.5220007"><ele>18.0</ele><time>2026-04-30T15:39:57.696Z</time></trkpt><trkpt lat="40.0207318" lon="8.5220889"><ele>18.0</ele><time>2026-04-30T15:39:58.694Z</time></trkpt><trkpt lat="40.0205994" lon="8.5221779"><ele>18.0</ele><time>2026-04-30T15:39:59.694Z</time></trkpt><trkpt lat="40.0204633" lon="8.5222698"><ele>18.0</ele><time>2026-04-30T15:40:00.697Z</time></trkpt><trkpt lat="40.0203193" lon="8.5223661"><ele>18.0</ele><time>2026-04-30T15:40:01.697Z</time></trkpt><trkpt lat="40.0201658" lon="8.5224685"><ele>18.0</ele><time>2026-04-30T15:40:02.696Z</time></trkpt><trkpt lat="40.0200052" lon="8.5225738"><ele>18.0</ele><time>2026-04-30T15:40:03.696Z</time></trkpt><trkpt lat="40.0198377" lon="8.5226847"><ele>18.0</ele><time>2026-04-30T15:40:04.694Z</time></trkpt><trkpt lat="40.0196659" lon="8.5228006"><ele>18.0</ele><time>2026-04-30T15:40:05.695Z</time></trkpt><trkpt lat="40.0194991" lon="8.5229138"><ele>18.0</ele><time>2026-04-30T15:40:06.697Z</time></trkpt><trkpt lat="40.0193332" lon="8.523025"><ele>18.0</ele><time>2026-04-30T15:40:07.695Z</time></trkpt><trkpt lat="40.019176" lon="8.5231311"><ele>18.0</ele><time>2026-04-30T15:40:08.694Z</time></trkpt><trkpt lat="40.0190214" lon="8.523234"><ele>18.0</ele><time>2026-04-30T15:40:09.696Z</time></trkpt><trkpt lat="40.0188692" lon="8.5233364"><ele>18.0</ele><time>2026-04-30T15:40:10.697Z</time></trkpt><trkpt lat="40.0187229" lon="8.5234347"><ele>18.0</ele><time>2026-04-30T15:40:11.692Z</time></trkpt><trkpt lat="40.0185847" lon="8.5235271"><ele>18.0</ele><time>2026-04-30T15:40:12.699Z</time></trkpt><trkpt lat="40.0184571" lon="8.5236141"><ele>18.0</ele><time>2026-04-30T15:40:13.695Z</time></trkpt><trkpt lat="40.018338" lon="8.5236916"><ele>18.0</ele><time>2026-04-30T15:40:14.694Z</time></trkpt><trkpt lat="40.0182308" lon="8.5237618"><ele>17.6</ele><time>2026-04-30T15:40:15.696Z</time></trkpt><trkpt lat="40.0181283" lon="8.5238293"><ele>17.200000000000003</ele><time>2026-04-30T15:40:16.696Z</time></trkpt><trkpt lat="40.0180328" lon="8.5238951"><ele>16.8</ele><time>2026-04-30T15:40:17.694Z</time></trkpt><trkpt lat="40.0179402" lon="8.523959"><ele>16.400000000000002</ele><time>2026-04-30T15:40:18.693Z</time></trkpt><trkpt lat="40.0178499" lon="8.5240207"><ele>16.0</ele><time>2026-04-30T15:40:19.697Z</time></trkpt><trkpt lat="40.0177636" lon="8.524081"><ele>15.999999999999998</ele><time>2026-04-30T15:40:20.695Z</time></trkpt><trkpt lat="40.0176833" lon="8.5241369"><ele>16.0</ele><time>2026-04-30T15:40:21.693Z</time></trkpt><trkpt lat="40.0176084" lon="8.5241859"><ele>16.0</ele><time>2026-04-30T15:40:22.695Z</time></trkpt><trkpt lat="40.0175376" lon="8.5242311"><ele>16.0</ele><time>2026-04-30T15:40:23.694Z</time></trkpt><trkpt lat="40.0174708" lon="8.5242751"><ele>15.999999999999998</ele><time>2026-04-30T15:40:24.697Z</time></trkpt><trkpt lat="40.0174077" lon="8.5243145"><ele>16.0</ele><time>2026-04-30T15:40:25.697Z</time></trkpt><trkpt lat="40.0173483" lon="8.5243551"><ele>15.999999999999998</ele><time>2026-04-30T15:40:26.697Z</time></trkpt><trkpt lat="40.0172868" lon="8.5243996"><ele>16.0</ele><time>2026-04-30T15:40:27.692Z</time></trkpt><trkpt lat="40.0172275" lon="8.5244403"><ele>16.0</ele><time>2026-04-30T15:40:28.699Z</time></trkpt><trkpt lat="40.0171713" lon="8.524479"><ele>16.0</ele><time>2026-04-30T15:40:29.696Z</time></trkpt><trkpt lat="40.0170669" lon="8.5245506"><ele>15.999999999999998</ele><time>2026-04-30T15:40:31.694Z</time></trkpt><trkpt lat="40.0169708" lon="8.5246149"><ele>16.0</ele><time>2026-04-30T15:40:33.7Z</time></trkpt><trkpt lat="40.0168848" lon="8.5246693"><ele>15.999999999999998</ele><time>2026-04-30T15:40:35.697Z</time></trkpt><trkpt lat="40.0168133" lon="8.5247113"><ele>16.0</ele><time>2026-04-30T15:40:38.699Z</time></trkpt><trkpt lat="40.0167546" lon="8.5247436"><ele>16.0</ele><time>2026-04-30T15:41:13.695Z</time></trkpt><trkpt lat="40.0166926" lon="8.5247893"><ele>16.0</ele><time>2026-04-30T15:41:14.702Z</time></trkpt><trkpt lat="40.0166202" lon="8.5248384"><ele>15.999999999999998</ele><time>2026-04-30T15:41:15.693Z</time></trkpt><trkpt lat="40.0165426" lon="8.5248908"><ele>16.0</ele><time>2026-04-30T15:41:16.701Z</time></trkpt><trkpt lat="40.0164586" lon="8.5249468"><ele>16.0</ele><time>2026-04-30T15:41:17.7Z</time></trkpt><trkpt lat="40.0163706" lon="8.5250075"><ele>16.0</ele><time>2026-04-30T15:41:18.702Z</time></trkpt><trkpt lat="40.0162764" lon="8.5250727"><ele>16.0</ele><time>2026-04-30T15:41:19.694Z</time></trkpt><trkpt lat="40.016177" lon="8.5251455"><ele>16.0</ele><time>2026-04-30T15:41:20.698Z</time></trkpt><trkpt lat="40.0160726" lon="8.5252228"><ele>16.0</ele><time>2026-04-30T15:41:21.691Z</time></trkpt><trkpt lat="40.015966" lon="8.5252972"><ele>16.0</ele><time>2026-04-30T15:41:22.67Z</time></trkpt><trkpt lat="40.0158568" lon="8.5253748"><ele>16.0</ele><time>2026-04-30T15:41:23.665Z</time></trkpt><trkpt lat="40.0157528" lon="8.5254483"><ele>16.0</ele><time>2026-04-30T15:41:24.666Z</time></trkpt><trkpt lat="40.0156461" lon="8.5255228"><ele>16.0</ele><time>2026-04-30T15:41:25.664Z</time></trkpt><trkpt lat="40.0155397" lon="8.5255947"><ele>15.8</ele><time>2026-04-30T15:41:26.663Z</time></trkpt><trkpt lat="40.0154392" lon="8.5256612"><ele>15.600000000000001</ele><time>2026-04-30T15:41:27.661Z</time></trkpt><trkpt lat="40.01534" lon="8.5257263"><ele>15.4</ele><time>2026-04-30T15:41:28.661Z</time></trkpt><trkpt lat="40.0152405" lon="8.5257905"><ele>15.2</ele><time>2026-04-30T15:41:29.661Z</time></trkpt><trkpt lat="40.0151423" lon="8.5258515"><ele>15.0</ele><time>2026-04-30T15:41:30.661Z</time></trkpt><trkpt lat="40.0150356" lon="8.5259164"><ele>14.75</ele><time>2026-04-30T15:41:31.661Z</time></trkpt><trkpt lat="40.0149304" lon="8.5259813"><ele>14.5</ele><time>2026-04-30T15:41:32.661Z</time></trkpt><trkpt lat="40.0148165" lon="8.5260537"><ele>14.25</ele><time>2026-04-30T15:41:33.661Z</time></trkpt><trkpt lat="40.0146988" lon="8.5261314"><ele>14.0</ele><time>2026-04-30T15:41:34.661Z</time></trkpt><trkpt lat="40.0145872" lon="8.5262055"><ele>13.75</ele><time>2026-04-30T15:41:35.661Z</time></trkpt><trkpt lat="40.0144795" lon="8.5262765"><ele>13.5</ele><time>2026-04-30T15:41:36.66Z</time></trkpt><trkpt lat="40.0143774" lon="8.5263435"><ele>13.25</ele><time>2026-04-30T15:41:37.661Z</time></trkpt><trkpt lat="40.0142762" lon="8.5264117"><ele>13.0</ele><time>2026-04-30T15:41:38.66Z</time></trkpt><trkpt lat="40.0141704" lon="8.5264841"><ele>13.25</ele><time>2026-04-30T15:41:39.661Z</time></trkpt><trkpt lat="40.0140635" lon="8.526557"><ele>13.5</ele><time>2026-04-30T15:41:40.661Z</time></trkpt><trkpt lat="40.0139503" lon="8.5266328"><ele>13.75</ele><time>2026-04-30T15:41:41.66Z</time></trkpt><trkpt lat="40.0138331" lon="8.5267127"><ele>14.0</ele><time>2026-04-30T15:41:42.66Z</time></trkpt><trkpt lat="40.0137123" lon="8.5267961"><ele>14.0</ele><time>2026-04-30T15:41:43.66Z</time></trkpt><trkpt lat="40.0135873" lon="8.5268818"><ele>14.0</ele><time>2026-04-30T15:41:44.661Z</time></trkpt><trkpt lat="40.0134623" lon="8.5269654"><ele>14.0</ele><time>2026-04-30T15:41:45.661Z</time></trkpt><trkpt lat="40.0133318" lon="8.5270499"><ele>14.0</ele><time>2026-04-30T15:41:46.66Z</time></trkpt><trkpt lat="40.0131983" lon="8.5271367"><ele>13.5</ele><time>2026-04-30T15:41:47.661Z</time></trkpt><trkpt lat="40.0130724" lon="8.5272194"><ele>13.0</ele><time>2026-04-30T15:41:48.661Z</time></trkpt><trkpt lat="40.0129445" lon="8.5273041"><ele>12.5</ele><time>2026-04-30T15:41:49.661Z</time></trkpt><trkpt lat="40.0128238" lon="8.5273836"><ele>12.0</ele><time>2026-04-30T15:41:50.661Z</time></trkpt><trkpt lat="40.012708" lon="8.527459"><ele>12.0</ele><time>2026-04-30T15:41:51.661Z</time></trkpt><trkpt lat="40.0125888" lon="8.5275358"><ele>12.0</ele><time>2026-04-30T15:41:52.661Z</time></trkpt><trkpt lat="40.0124704" lon="8.5276123"><ele>12.0</ele><time>2026-04-30T15:41:53.661Z</time></trkpt><trkpt lat="40.0123489" lon="8.5276911"><ele>12.0</ele><time>2026-04-30T15:41:54.66Z</time></trkpt><trkpt lat="40.0122199" lon="8.527776"><ele>12.25</ele><time>2026-04-30T15:41:55.66Z</time></trkpt><trkpt lat="40.012095" lon="8.5278596"><ele>12.5</ele><time>2026-04-30T15:41:56.661Z</time></trkpt><trkpt lat="40.01196" lon="8.5279506"><ele>12.75</ele><time>2026-04-30T15:41:57.661Z</time></trkpt><trkpt lat="40.0118232" lon="8.5280437"><ele>13.0</ele><time>2026-04-30T15:41:58.66Z</time></trkpt><trkpt lat="40.0116837" lon="8.5281391"><ele>13.0</ele><time>2026-04-30T15:41:59.661Z</time></trkpt><trkpt lat="40.0115322" lon="8.5282432"><ele>13.0</ele><time>2026-04-30T15:42:00.661Z</time></trkpt><trkpt lat="40.0113796" lon="8.5283481"><ele>13.0</ele><time>2026-04-30T15:42:01.661Z</time></trkpt><trkpt lat="40.011221" lon="8.5284562"><ele>13.0</ele><time>2026-04-30T15:42:02.661Z</time></trkpt><trkpt lat="40.0110564" lon="8.5285685"><ele>13.0</ele><time>2026-04-30T15:42:03.661Z</time></trkpt><trkpt lat="40.0108979" lon="8.528677"><ele>13.0</ele><time>2026-04-30T15:42:04.661Z</time></trkpt><trkpt lat="40.0107342" lon="8.5287895"><ele>12.666666666666666</ele><time>2026-04-30T15:42:05.661Z</time></trkpt><trkpt lat="40.0105747" lon="8.5288987"><ele>12.333333333333332</ele><time>2026-04-30T15:42:06.66Z</time></trkpt><trkpt lat="40.0104205" lon="8.5290043"><ele>12.0</ele><time>2026-04-30T15:42:07.661Z</time></trkpt><trkpt lat="40.0102609" lon="8.5291131"><ele>12.0</ele><time>2026-04-30T15:42:08.66Z</time></trkpt><trkpt lat="40.0101052" lon="8.5292176"><ele>12.0</ele><time>2026-04-30T15:42:09.661Z</time></trkpt><trkpt lat="40.0099505" lon="8.5293202"><ele>12.0</ele><time>2026-04-30T15:42:10.66Z</time></trkpt><trkpt lat="40.0097919" lon="8.529426"><ele>11.666666666666666</ele><time>2026-04-30T15:42:11.661Z</time></trkpt><trkpt lat="40.0096412" lon="8.5295268"><ele>11.333333333333332</ele><time>2026-04-30T15:42:12.661Z</time></trkpt><trkpt lat="40.0094893" lon="8.5296295"><ele>11.0</ele><time>2026-04-30T15:42:13.661Z</time></trkpt><trkpt lat="40.0093352" lon="8.5297337"><ele>11.0</ele><time>2026-04-30T15:42:14.66Z</time></trkpt><trkpt lat="40.0091806" lon="8.5298385"><ele>11.0</ele><time>2026-04-30T15:42:15.661Z</time></trkpt><trkpt lat="40.0090246" lon="8.529944"><ele>11.0</ele><time>2026-04-30T15:42:16.661Z</time></trkpt><trkpt lat="40.0088649" lon="8.5300517"><ele>10.333333333333332</ele><time>2026-04-30T15:42:17.661Z</time></trkpt><trkpt lat="40.0087125" lon="8.5301645"><ele>9.666666666666666</ele><time>2026-04-30T15:42:18.694Z</time></trkpt><trkpt lat="40.0085479" lon="8.5302729"><ele>9.0</ele><time>2026-04-30T15:42:19.694Z</time></trkpt><trkpt lat="40.0083828" lon="8.5303829"><ele>9.0</ele><time>2026-04-30T15:42:20.696Z</time></trkpt><trkpt lat="40.0082158" lon="8.530498"><ele>9.0</ele><time>2026-04-30T15:42:21.69Z</time></trkpt><trkpt lat="40.0080456" lon="8.5306116"><ele>9.0</ele><time>2026-04-30T15:42:22.697Z</time></trkpt><trkpt lat="40.0078816" lon="8.5307212"><ele>9.0</ele><time>2026-04-30T15:42:23.693Z</time></trkpt><trkpt lat="40.007725" lon="8.5308262"><ele>9.0</ele><time>2026-04-30T15:42:24.699Z</time></trkpt><trkpt lat="40.0075669" lon="8.5309314"><ele>9.0</ele><time>2026-04-30T15:42:25.668Z</time></trkpt><trkpt lat="40.0074067" lon="8.531038"><ele>9.0</ele><time>2026-04-30T15:42:26.664Z</time></trkpt><trkpt lat="40.0072458" lon="8.5311452"><ele>9.0</ele><time>2026-04-30T15:42:27.669Z</time></trkpt><trkpt lat="40.0070813" lon="8.5312566"><ele>9.0</ele><time>2026-04-30T15:42:28.664Z</time></trkpt><trkpt lat="40.0069132" lon="8.5313692"><ele>9.333333333333334</ele><time>2026-04-30T15:42:29.663Z</time></trkpt><trkpt lat="40.0067428" lon="8.5314836"><ele>9.666666666666668</ele><time>2026-04-30T15:42:30.663Z</time></trkpt><trkpt lat="40.0065746" lon="8.5315954"><ele>10.0</ele><time>2026-04-30T15:42:31.662Z</time></trkpt><trkpt lat="40.0063912" lon="8.5317186"><ele>9.333333333333334</ele><time>2026-04-30T15:42:32.663Z</time></trkpt><trkpt lat="40.0062104" lon="8.5318397"><ele>8.666666666666666</ele><time>2026-04-30T15:42:33.663Z</time></trkpt><trkpt lat="40.0060261" lon="8.5319626"><ele>8.0</ele><time>2026-04-30T15:42:34.663Z</time></trkpt><trkpt lat="40.0058385" lon="8.532087"><ele>8.333333333333332</ele><time>2026-04-30T15:42:35.662Z</time></trkpt><trkpt lat="40.0056512" lon="8.5322121"><ele>8.666666666666666</ele><time>2026-04-30T15:42:36.663Z</time></trkpt><trkpt lat="40.0054596" lon="8.5323411"><ele>9.0</ele><time>2026-04-30T15:42:37.663Z</time></trkpt><trkpt lat="40.0052724" lon="8.5324673"><ele>9.0</ele><time>2026-04-30T15:42:38.663Z</time></trkpt><trkpt lat="40.005095" lon="8.5325798"><ele>9.0</ele><time>2026-04-30T15:42:39.662Z</time></trkpt><trkpt lat="40.0049211" lon="8.5327048"><ele>9.0</ele><time>2026-04-30T15:42:40.663Z</time></trkpt><trkpt lat="40.0047609" lon="8.5328154"><ele>8.0</ele><time>2026-04-30T15:42:41.663Z</time></trkpt><trkpt lat="40.0046094" lon="8.532918"><ele>7.0</ele><time>2026-04-30T15:42:42.663Z</time></trkpt><trkpt lat="40.0044653" lon="8.5330139"><ele>6.0</ele><time>2026-04-30T15:42:43.663Z</time></trkpt><trkpt lat="40.0043288" lon="8.5331059"><ele>6.0</ele><time>2026-04-30T15:42:44.662Z</time></trkpt><trkpt lat="40.0041988" lon="8.5331943"><ele>6.0</ele><time>2026-04-30T15:42:45.663Z</time></trkpt><trkpt lat="40.0040714" lon="8.5332819"><ele>6.0</ele><time>2026-04-30T15:42:46.663Z</time></trkpt><trkpt lat="40.0039484" lon="8.5333648"><ele>6.0</ele><time>2026-04-30T15:42:47.662Z</time></trkpt><trkpt lat="40.0038148" lon="8.5334516"><ele>5.5</ele><time>2026-04-30T15:42:48.663Z</time></trkpt><trkpt lat="40.0036824" lon="8.533537"><ele>5.0</ele><time>2026-04-30T15:42:49.663Z</time></trkpt><trkpt lat="40.003543" lon="8.5336106"><ele>4.5</ele><time>2026-04-30T15:42:50.694Z</time></trkpt><trkpt lat="40.0034167" lon="8.5336907"><ele>4.0</ele><time>2026-04-30T15:42:51.696Z</time></trkpt><trkpt lat="40.0032933" lon="8.5337597"><ele>4.0</ele><time>2026-04-30T15:42:52.693Z</time></trkpt><trkpt lat="40.0031671" lon="8.533817"><ele>4.0</ele><time>2026-04-30T15:42:53.692Z</time></trkpt><trkpt lat="40.0030495" lon="8.5338408"><ele>4.0</ele><time>2026-04-30T15:42:54.694Z</time></trkpt><trkpt lat="40.0029431" lon="8.5338473"><ele>4.0</ele><time>2026-04-30T15:42:55.696Z</time></trkpt><trkpt lat="40.0028488" lon="8.5338502"><ele>3.9999999999999996</ele><time>2026-04-30T15:42:56.694Z</time></trkpt><trkpt lat="40.0027651" lon="8.533872"><ele>4.0</ele><time>2026-04-30T15:42:57.7Z</time></trkpt><trkpt lat="40.0026943" lon="8.5339281"><ele>4.0</ele><time>2026-04-30T15:42:58.691Z</time></trkpt><trkpt lat="40.0026396" lon="8.5340034"><ele>4.0</ele><time>2026-04-30T15:42:59.663Z</time></trkpt><trkpt lat="40.002585" lon="8.534097"><ele>3.9999999999999996</ele><time>2026-04-30T15:43:00.665Z</time></trkpt><trkpt lat="40.00252" lon="8.5341841"><ele>4.0</ele><time>2026-04-30T15:43:01.666Z</time></trkpt><trkpt lat="40.0024416" lon="8.5342602"><ele>3.25</ele><time>2026-04-30T15:43:02.666Z</time></trkpt><trkpt lat="40.0023526" lon="8.5343294"><ele>2.5</ele><time>2026-04-30T15:43:03.665Z</time></trkpt><trkpt lat="40.0022536" lon="8.5343987"><ele>1.75</ele><time>2026-04-30T15:43:04.665Z</time></trkpt><trkpt lat="40.0021508" lon="8.5344698"><ele>1.0</ele><time>2026-04-30T15:43:05.664Z</time></trkpt><trkpt lat="40.0020436" lon="8.5345426"><ele>1.25</ele><time>2026-04-30T15:43:06.664Z</time></trkpt><trkpt lat="40.0019326" lon="8.5346174"><ele>1.5</ele><time>2026-04-30T15:43:07.691Z</time></trkpt><trkpt lat="40.0018156" lon="8.534699"><ele>1.75</ele><time>2026-04-30T15:43:08.696Z</time></trkpt><trkpt lat="40.001698" lon="8.5347743"><ele>2.0</ele><time>2026-04-30T15:43:09.694Z</time></trkpt><trkpt lat="40.0015809" lon="8.5348432"><ele>1.5</ele><time>2026-04-30T15:43:10.694Z</time></trkpt><trkpt lat="40.0014629" lon="8.5349114"><ele>1.0</ele><time>2026-04-30T15:43:11.692Z</time></trkpt><trkpt lat="40.0013394" lon="8.5349838"><ele>0.5</ele><time>2026-04-30T15:43:12.696Z</time></trkpt><trkpt lat="40.0012158" lon="8.5350625"><ele>0.0</ele><time>2026-04-30T15:43:13.694Z</time></trkpt><trkpt lat="40.001086" lon="8.5351408"><ele>0.0</ele><time>2026-04-30T15:43:14.694Z</time></trkpt><trkpt lat="40.0009555" lon="8.5352239"><ele>0.0</ele><time>2026-04-30T15:43:15.696Z</time></trkpt><trkpt lat="40.0008255" lon="8.5353058"><ele>0.0</ele><time>2026-04-30T15:43:16.696Z</time></trkpt><trkpt lat="40.0006997" lon="8.5353799"><ele>0.0</ele><time>2026-04-30T15:43:17.693Z</time></trkpt><trkpt lat="40.0005697" lon="8.5354566"><ele>0.0</ele><time>2026-04-30T15:43:18.694Z</time></trkpt><trkpt lat="40.0004432" lon="8.5355309"><ele>0.0</ele><time>2026-04-30T15:43:19.692Z</time></trkpt><trkpt lat="40.0003115" lon="8.5356071"><ele>0.0</ele><time>2026-04-30T15:43:20.691Z</time></trkpt><trkpt lat="40.0001802" lon="8.5356994"><ele>0.0</ele><time>2026-04-30T15:43:21.694Z</time></trkpt><trkpt lat="40.0000503" lon="8.535798"><ele>0.0</ele><time>2026-04-30T15:43:22.692Z</time></trkpt><trkpt lat="39.9999239" lon="8.5359184"><ele>0.0</ele><time>2026-04-30T15:43:23.694Z</time></trkpt><trkpt lat="39.9998127" lon="8.5360331"><ele>0.0</ele><time>2026-04-30T15:43:24.694Z</time></trkpt><trkpt lat="39.9997092" lon="8.536149"><ele>0.0</ele><time>2026-04-30T15:43:25.699Z</time></trkpt><trkpt lat="39.9996105" lon="8.5362624"><ele>-0.25</ele><time>2026-04-30T15:43:26.694Z</time></trkpt><trkpt lat="39.9995127" lon="8.5363714"><ele>-0.5</ele><time>2026-04-30T15:43:27.694Z</time></trkpt><trkpt lat="39.9994267" lon="8.5364728"><ele>-0.75</ele><time>2026-04-30T15:43:28.696Z</time></trkpt><trkpt lat="39.9993457" lon="8.5365625"><ele>-1.0</ele><time>2026-04-30T15:43:29.694Z</time></trkpt><trkpt lat="39.9992649" lon="8.5366536"><ele>-1.0</ele><time>2026-04-30T15:43:30.701Z</time></trkpt><trkpt lat="39.9991896" lon="8.5367399"><ele>-1.0</ele><time>2026-04-30T15:43:31.693Z</time></trkpt><trkpt lat="39.9991171" lon="8.5368209"><ele>-1.0</ele><time>2026-04-30T15:43:32.699Z</time></trkpt><trkpt lat="39.9990498" lon="8.5368943"><ele>-1.0</ele><time>2026-04-30T15:43:33.695Z</time></trkpt><trkpt lat="39.9989817" lon="8.5369613"><ele>-1.0</ele><time>2026-04-30T15:43:34.695Z</time></trkpt><trkpt lat="39.9989108" lon="8.5370365"><ele>-0.4</ele><time>2026-04-30T15:43:35.692Z</time></trkpt><trkpt lat="39.998845" lon="8.537115"><ele>0.19999999999999996</ele><time>2026-04-30T15:43:36.703Z</time></trkpt><trkpt lat="39.9987646" lon="8.5371982"><ele>0.8000000000000002</ele><time>2026-04-30T15:43:37.693Z</time></trkpt><trkpt lat="39.9986837" lon="8.5372892"><ele>1.4000000000000001</ele><time>2026-04-30T15:43:38.698Z</time></trkpt><trkpt lat="39.9985982" lon="8.5373844"><ele>2.0</ele><time>2026-04-30T15:43:39.692Z</time></trkpt><trkpt lat="39.9985151" lon="8.5374783"><ele>2.0</ele><time>2026-04-30T15:43:40.697Z</time></trkpt><trkpt lat="39.9984328" lon="8.5375765"><ele>2.0</ele><time>2026-04-30T15:43:41.692Z</time></trkpt><trkpt lat="39.9983482" lon="8.5376636"><ele>2.0</ele><time>2026-04-30T15:43:42.698Z</time></trkpt><trkpt lat="39.998269" lon="8.5377504"><ele>2.0</ele><time>2026-04-30T15:43:43.693Z</time></trkpt><trkpt lat="39.9981992" lon="8.5378246"><ele>2.0</ele><time>2026-04-30T15:43:44.693Z</time></trkpt><trkpt lat="39.9981335" lon="8.5378911"><ele>2.0</ele><time>2026-04-30T15:43:45.691Z</time></trkpt><trkpt lat="39.9980781" lon="8.5379541"><ele>1.9999999999999998</ele><time>2026-04-30T15:43:46.692Z</time></trkpt><trkpt lat="39.9980257" lon="8.5380131"><ele>2.0</ele><time>2026-04-30T15:43:47.694Z</time></trkpt><trkpt lat="39.997976" lon="8.5380652"><ele>2.0</ele><time>2026-04-30T15:43:48.696Z</time></trkpt><trkpt lat="39.9979236" lon="8.538115"><ele>1.9999999999999998</ele><time>2026-04-30T15:43:49.696Z</time></trkpt><trkpt lat="39.9978674" lon="8.5381637"><ele>2.0</ele><time>2026-04-30T15:43:50.693Z</time></trkpt><trkpt lat="39.9978076" lon="8.5382115"><ele>2.0</ele><time>2026-04-30T15:43:51.697Z</time></trkpt><trkpt lat="39.9977395" lon="8.5382573"><ele>1.9999999999999998</ele><time>2026-04-30T15:43:52.697Z</time></trkpt><trkpt lat="39.9976731" lon="8.5382962"><ele>2.0</ele><time>2026-04-30T15:43:53.696Z</time></trkpt><trkpt lat="39.9975975" lon="8.5383397"><ele>2.0</ele><time>2026-04-30T15:43:54.695Z</time></trkpt><trkpt lat="39.997521" lon="8.5383831"><ele>2.0</ele><time>2026-04-30T15:43:55.696Z</time></trkpt><trkpt lat="39.9974469" lon="8.5384191"><ele>1.9999999999999998</ele><time>2026-04-30T15:43:56.694Z</time></trkpt><trkpt lat="39.9973752" lon="8.5384553"><ele>2.0</ele><time>2026-04-30T15:43:57.694Z</time></trkpt><trkpt lat="39.9973083" lon="8.5384872"><ele>2.1666666666666665</ele><time>2026-04-30T15:43:58.696Z</time></trkpt><trkpt lat="39.9972377" lon="8.5385171"><ele>2.333333333333333</ele><time>2026-04-30T15:43:59.694Z</time></trkpt><trkpt lat="39.9971596" lon="8.538552"><ele>2.5</ele><time>2026-04-30T15:44:00.696Z</time></trkpt><trkpt lat="39.9970848" lon="8.5385852"><ele>2.6666666666666665</ele><time>2026-04-30T15:44:01.694Z</time></trkpt><trkpt lat="39.9970061" lon="8.5386204"><ele>2.8333333333333335</ele><time>2026-04-30T15:44:02.7Z</time></trkpt><trkpt lat="39.9969325" lon="8.5386548"><ele>3.0</ele><time>2026-04-30T15:44:03.694Z</time></trkpt><trkpt lat="39.996862" lon="8.538692"><ele>3.1428571428571423</ele><time>2026-04-30T15:44:04.693Z</time></trkpt><trkpt lat="39.9967981" lon="8.5387283"><ele>3.2857142857142856</ele><time>2026-04-30T15:44:05.693Z</time></trkpt><trkpt lat="39.9967381" lon="8.5387593"><ele>3.4285714285714284</ele><time>2026-04-30T15:44:06.693Z</time></trkpt><trkpt lat="39.9966756" lon="8.5387859"><ele>3.571428571428571</ele><time>2026-04-30T15:44:07.694Z</time></trkpt><trkpt lat="39.9966122" lon="8.5388134"><ele>3.714285714285714</ele><time>2026-04-30T15:44:08.693Z</time></trkpt><trkpt lat="39.9965445" lon="8.5388435"><ele>3.8571428571428568</ele><time>2026-04-30T15:44:09.693Z</time></trkpt><trkpt lat="39.996471" lon="8.5388728"><ele>4.0</ele><time>2026-04-30T15:44:10.693Z</time></trkpt><trkpt lat="39.9963972" lon="8.5389101"><ele>4.166666666666666</ele><time>2026-04-30T15:44:11.692Z</time></trkpt><trkpt lat="39.9963249" lon="8.5389466"><ele>4.333333333333333</ele><time>2026-04-30T15:44:12.695Z</time></trkpt><trkpt lat="39.9962433" lon="8.53899"><ele>4.5</ele><time>2026-04-30T15:44:13.692Z</time></trkpt><trkpt lat="39.9961594" lon="8.5390305"><ele>4.666666666666667</ele><time>2026-04-30T15:44:14.693Z</time></trkpt><trkpt lat="39.9960771" lon="8.5390687"><ele>4.833333333333334</ele><time>2026-04-30T15:44:15.694Z</time></trkpt><trkpt lat="39.9960008" lon="8.5391057"><ele>5.0</ele><time>2026-04-30T15:44:16.694Z</time></trkpt><trkpt lat="39.9959299" lon="8.5391345"><ele>5.0</ele><time>2026-04-30T15:44:17.691Z</time></trkpt><trkpt lat="39.9958613" lon="8.539164"><ele>5.0</ele><time>2026-04-30T15:44:18.696Z</time></trkpt><trkpt lat="39.9957966" lon="8.5391855"><ele>5.0</ele><time>2026-04-30T15:44:19.69Z</time></trkpt><trkpt lat="39.9957291" lon="8.5392116"><ele>5.0</ele><time>2026-04-30T15:44:20.697Z</time></trkpt><trkpt lat="39.9956583" lon="8.5392333"><ele>5.0</ele><time>2026-04-30T15:44:21.695Z</time></trkpt><trkpt lat="39.9955843" lon="8.5392568"><ele>5.0</ele><time>2026-04-30T15:44:22.696Z</time></trkpt><trkpt lat="39.9954995" lon="8.5392842"><ele>5.0</ele><time>2026-04-30T15:44:23.691Z</time></trkpt><trkpt lat="39.9954273" lon="8.5393354"><ele>5.428571428571429</ele><time>2026-04-30T15:44:24.694Z</time></trkpt><trkpt lat="39.9953699" lon="8.5393945"><ele>5.857142857142858</ele><time>2026-04-30T15:44:25.692Z</time></trkpt><trkpt lat="39.9953173" lon="8.5394506"><ele>6.285714285714286</ele><time>2026-04-30T15:44:26.693Z</time></trkpt><trkpt lat="39.9952663" lon="8.5395101"><ele>6.7142857142857135</ele><time>2026-04-30T15:44:27.692Z</time></trkpt><trkpt lat="39.9952201" lon="8.5395748"><ele>7.142857142857142</ele><time>2026-04-30T15:44:28.694Z</time></trkpt><trkpt lat="39.9951705" lon="8.5396515"><ele>7.571428571428571</ele><time>2026-04-30T15:44:29.696Z</time></trkpt><trkpt lat="39.9951166" lon="8.5397235"><ele>8.0</ele><time>2026-04-30T15:44:30.7Z</time></trkpt><trkpt lat="39.9950559" lon="8.5397983"><ele>8.166666666666666</ele><time>2026-04-30T15:44:31.692Z</time></trkpt><trkpt lat="39.9949976" lon="8.539873"><ele>8.333333333333332</ele><time>2026-04-30T15:44:32.694Z</time></trkpt><trkpt lat="39.9949375" lon="8.5399599"><ele>8.5</ele><time>2026-04-30T15:44:33.696Z</time></trkpt><trkpt lat="39.9948715" lon="8.5400408"><ele>8.666666666666666</ele><time>2026-04-30T15:44:34.697Z</time></trkpt><trkpt lat="39.9948098" lon="8.5401169"><ele>8.833333333333334</ele><time>2026-04-30T15:44:35.692Z</time></trkpt><trkpt lat="39.9947537" lon="8.5401856"><ele>9.0</ele><time>2026-04-30T15:44:36.692Z</time></trkpt><trkpt lat="39.9946962" lon="8.5402546"><ele>9.000000000000002</ele><time>2026-04-30T15:44:37.692Z</time></trkpt><trkpt lat="39.9946434" lon="8.5403151"><ele>9.0</ele><time>2026-04-30T15:44:38.696Z</time></trkpt><trkpt lat="39.9945972" lon="8.5403732"><ele>9.0</ele><time>2026-04-30T15:44:39.693Z</time></trkpt><trkpt lat="39.9945508" lon="8.5404319"><ele>9.0</ele><time>2026-04-30T15:44:40.692Z</time></trkpt><trkpt lat="39.9944998" lon="8.5404957"><ele>9.0</ele><time>2026-04-30T15:44:41.693Z</time></trkpt><trkpt lat="39.9944407" lon="8.5405623"><ele>9.000000000000002</ele><time>2026-04-30T15:44:42.691Z</time></trkpt><trkpt lat="39.9943806" lon="8.540631"><ele>9.0</ele><time>2026-04-30T15:44:43.694Z</time></trkpt><trkpt lat="39.994321" lon="8.5406965"><ele>8.833333333333334</ele><time>2026-04-30T15:44:44.7Z</time></trkpt><trkpt lat="39.9942538" lon="8.5407729"><ele>8.666666666666666</ele><time>2026-04-30T15:44:45.696Z</time></trkpt><trkpt lat="39.9941917" lon="8.5408453"><ele>8.5</ele><time>2026-04-30T15:44:46.695Z</time></trkpt><trkpt lat="39.9941213" lon="8.5409241"><ele>8.333333333333332</ele><time>2026-04-30T15:44:47.696Z</time></trkpt><trkpt lat="39.9940539" lon="8.5409909"><ele>8.166666666666666</ele><time>2026-04-30T15:44:48.691Z</time></trkpt><trkpt lat="39.9939756" lon="8.541056"><ele>8.0</ele><time>2026-04-30T15:44:49.691Z</time></trkpt><trkpt lat="39.9938949" lon="8.5411092"><ele>7.999999999999999</ele><time>2026-04-30T15:44:50.692Z</time></trkpt><trkpt lat="39.9938126" lon="8.5411451"><ele>8.0</ele><time>2026-04-30T15:44:51.693Z</time></trkpt><trkpt lat="39.9937252" lon="8.5411733"><ele>8.0</ele><time>2026-04-30T15:44:52.692Z</time></trkpt><trkpt lat="39.9936453" lon="8.5411957"><ele>8.0</ele><time>2026-04-30T15:44:53.693Z</time></trkpt><trkpt lat="39.9935733" lon="8.5412204"><ele>7.999999999999999</ele><time>2026-04-30T15:44:54.694Z</time></trkpt><trkpt lat="39.9934963" lon="8.5412412"><ele>8.0</ele><time>2026-04-30T15:44:55.693Z</time></trkpt><trkpt lat="39.9934153" lon="8.5412701"><ele>7.800000000000001</ele><time>2026-04-30T15:44:56.694Z</time></trkpt><trkpt lat="39.993329" lon="8.5413006"><ele>7.6000000000000005</ele><time>2026-04-30T15:44:57.691Z</time></trkpt><trkpt lat="39.9932319" lon="8.5413341"><ele>7.3999999999999995</ele><time>2026-04-30T15:44:58.693Z</time></trkpt><trkpt lat="39.9931341" lon="8.54137"><ele>7.199999999999999</ele><time>2026-04-30T15:44:59.692Z</time></trkpt><trkpt lat="39.9930342" lon="8.5413981"><ele>7.0</ele><time>2026-04-30T15:45:00.697Z</time></trkpt><trkpt lat="39.9929349" lon="8.541426"><ele>7.0</ele><time>2026-04-30T15:45:01.692Z</time></trkpt><trkpt lat="39.992847" lon="8.5414515"><ele>6.999999999999999</ele><time>2026-04-30T15:45:02.698Z</time></trkpt><trkpt lat="39.9927645" lon="8.5414793"><ele>6.999999999999999</ele><time>2026-04-30T15:45:03.692Z</time></trkpt><trkpt lat="39.9926792" lon="8.5415053"><ele>7.0</ele><time>2026-04-30T15:45:04.693Z</time></trkpt><trkpt lat="39.9925861" lon="8.5415294"><ele>7.0</ele><time>2026-04-30T15:45:05.69Z</time></trkpt><trkpt lat="39.992486" lon="8.5415452"><ele>7.199999999999999</ele><time>2026-04-30T15:45:06.695Z</time></trkpt><trkpt lat="39.9923837" lon="8.5415603"><ele>7.3999999999999995</ele><time>2026-04-30T15:45:07.691Z</time></trkpt><trkpt lat="39.9922799" lon="8.5415707"><ele>7.6000000000000005</ele><time>2026-04-30T15:45:08.691Z</time></trkpt><trkpt lat="39.9921877" lon="8.5415815"><ele>7.800000000000001</ele><time>2026-04-30T15:45:09.692Z</time></trkpt><trkpt lat="39.9921032" lon="8.54159"><ele>8.0</ele><time>2026-04-30T15:45:10.691Z</time></trkpt><trkpt lat="39.9920199" lon="8.5416013"><ele>8.0</ele><time>2026-04-30T15:45:11.698Z</time></trkpt><trkpt lat="39.9919441" lon="8.5416107"><ele>7.999999999999999</ele><time>2026-04-30T15:45:12.696Z</time></trkpt><trkpt lat="39.9918663" lon="8.5416193"><ele>8.0</ele><time>2026-04-30T15:45:13.695Z</time></trkpt><trkpt lat="39.9917851" lon="8.5416279"><ele>8.0</ele><time>2026-04-30T15:45:14.693Z</time></trkpt><trkpt lat="39.9917152" lon="8.5416389"><ele>7.999999999999999</ele><time>2026-04-30T15:45:15.693Z</time></trkpt><trkpt lat="39.9916475" lon="8.5416467"><ele>8.0</ele><time>2026-04-30T15:45:16.697Z</time></trkpt><trkpt lat="39.991582" lon="8.5416567"><ele>8.0</ele><time>2026-04-30T15:45:17.691Z</time></trkpt><trkpt lat="39.9915184" lon="8.5416651"><ele>8.142857142857142</ele><time>2026-04-30T15:45:18.695Z</time></trkpt><trkpt lat="39.9914535" lon="8.5416773"><ele>8.285714285714285</ele><time>2026-04-30T15:45:19.692Z</time></trkpt><trkpt lat="39.991387" lon="8.5416815"><ele>8.428571428571429</ele><time>2026-04-30T15:45:20.692Z</time></trkpt><trkpt lat="39.9913198" lon="8.5416866"><ele>8.571428571428571</ele><time>2026-04-30T15:45:21.694Z</time></trkpt><trkpt lat="39.9912488" lon="8.5416843"><ele>8.714285714285715</ele><time>2026-04-30T15:45:22.697Z</time></trkpt><trkpt lat="39.991184" lon="8.5416886"><ele>8.857142857142858</ele><time>2026-04-30T15:45:23.693Z</time></trkpt><trkpt lat="39.9910739" lon="8.5417034"><ele>9.0</ele><time>2026-04-30T15:45:25.694Z</time></trkpt><trkpt lat="39.9909467" lon="8.5417187"><ele>8.8</ele><time>2026-04-30T15:45:27.692Z</time></trkpt><trkpt lat="39.9908238" lon="8.5417258"><ele>8.600000000000001</ele><time>2026-04-30T15:45:29.693Z</time></trkpt><trkpt lat="39.99071" lon="8.5417363"><ele>8.4</ele><time>2026-04-30T15:45:31.697Z</time></trkpt><trkpt lat="39.9905864" lon="8.5417396"><ele>8.200000000000001</ele><time>2026-04-30T15:45:33.694Z</time></trkpt><trkpt lat="39.9905208" lon="8.5417336"><ele>8.0</ele><time>2026-04-30T15:45:34.694Z</time></trkpt><trkpt lat="39.9904561" lon="8.5417262"><ele>7.999999999999999</ele><time>2026-04-30T15:45:35.696Z</time></trkpt><trkpt lat="39.9903854" lon="8.5417147"><ele>8.0</ele><time>2026-04-30T15:45:36.697Z</time></trkpt><trkpt lat="39.9903138" lon="8.5416999"><ele>8.0</ele><time>2026-04-30T15:45:37.697Z</time></trkpt><trkpt lat="39.9902408" lon="8.5416857"><ele>8.0</ele><time>2026-04-30T15:45:38.695Z</time></trkpt><trkpt lat="39.9901574" lon="8.5416556"><ele>7.999999999999999</ele><time>2026-04-30T15:45:39.692Z</time></trkpt><trkpt lat="39.9900725" lon="8.5416208"><ele>8.0</ele><time>2026-04-30T15:45:40.695Z</time></trkpt><trkpt lat="39.9899885" lon="8.5415912"><ele>8.0</ele><time>2026-04-30T15:45:41.695Z</time></trkpt><trkpt lat="39.9899076" lon="8.5415475"><ele>8.0</ele><time>2026-04-30T15:45:42.691Z</time></trkpt><trkpt lat="39.9898243" lon="8.5415062"><ele>8.0</ele><time>2026-04-30T15:45:43.698Z</time></trkpt><trkpt lat="39.9897371" lon="8.5414576"><ele>8.0</ele><time>2026-04-30T15:45:44.693Z</time></trkpt><trkpt lat="39.9896494" lon="8.5414102"><ele>8.0</ele><time>2026-04-30T15:45:45.694Z</time></trkpt><trkpt lat="39.9895645" lon="8.5413608"><ele>8.0</ele><time>2026-04-30T15:45:46.697Z</time></trkpt><trkpt lat="39.9894793" lon="8.5413111"><ele>8.0</ele><time>2026-04-30T15:45:47.693Z</time></trkpt><trkpt lat="39.9893871" lon="8.541261"><ele>8.0</ele><time>2026-04-30T15:45:48.693Z</time></trkpt><trkpt lat="39.9892949" lon="8.5412092"><ele>8.0</ele><time>2026-04-30T15:45:49.697Z</time></trkpt><trkpt lat="39.9892011" lon="8.5411551"><ele>8.0</ele><time>2026-04-30T15:45:50.69Z</time></trkpt><trkpt lat="39.9891032" lon="8.5410958"><ele>8.0</ele><time>2026-04-30T15:45:51.693Z</time></trkpt><trkpt lat="39.9889978" lon="8.5410385"><ele>8.0</ele><time>2026-04-30T15:45:52.694Z</time></trkpt><trkpt lat="39.9888858" lon="8.5409717"><ele>8.0</ele><time>2026-04-30T15:45:53.695Z</time></trkpt><trkpt lat="39.988771" lon="8.5409113"><ele>8.0</ele><time>2026-04-30T15:45:54.692Z</time></trkpt><trkpt lat="39.9886535" lon="8.5408538"><ele>8.0</ele><time>2026-04-30T15:45:55.693Z</time></trkpt><trkpt lat="39.9885277" lon="8.5407962"><ele>8.0</ele><time>2026-04-30T15:45:56.695Z</time></trkpt><trkpt lat="39.9883995" lon="8.5407527"><ele>8.0</ele><time>2026-04-30T15:45:57.694Z</time></trkpt><trkpt lat="39.9882662" lon="8.5407106"><ele>8.0</ele><time>2026-04-30T15:45:58.693Z</time></trkpt><trkpt lat="39.9881327" lon="8.5406828"><ele>7.25</ele><time>2026-04-30T15:45:59.695Z</time></trkpt><trkpt lat="39.9879961" lon="8.5406605"><ele>6.5</ele><time>2026-04-30T15:46:00.695Z</time></trkpt><trkpt lat="39.987861" lon="8.5406418"><ele>5.75</ele><time>2026-04-30T15:46:01.693Z</time></trkpt><trkpt lat="39.9877273" lon="8.5406211"><ele>5.0</ele><time>2026-04-30T15:46:02.695Z</time></trkpt><trkpt lat="39.9875961" lon="8.5406009"><ele>4.5</ele><time>2026-04-30T15:46:03.693Z</time></trkpt><trkpt lat="39.9874663" lon="8.5405854"><ele>4.0</ele><time>2026-04-30T15:46:04.688Z</time></trkpt><trkpt lat="39.9873389" lon="8.5405702"><ele>3.5</ele><time>2026-04-30T15:46:05.694Z</time></trkpt><trkpt lat="39.9872073" lon="8.54055"><ele>3.0</ele><time>2026-04-30T15:46:06.696Z</time></trkpt><trkpt lat="39.9870755" lon="8.5405296"><ele>3.0</ele><time>2026-04-30T15:46:07.694Z</time></trkpt><trkpt lat="39.9869496" lon="8.5405059"><ele>3.0</ele><time>2026-04-30T15:46:08.692Z</time></trkpt><trkpt lat="39.9868243" lon="8.5404788"><ele>3.0</ele><time>2026-04-30T15:46:09.692Z</time></trkpt><trkpt lat="39.9866974" lon="8.5404536"><ele>3.0</ele><time>2026-04-30T15:46:10.695Z</time></trkpt><trkpt lat="39.9865693" lon="8.5404174"><ele>3.25</ele><time>2026-04-30T15:46:11.69Z</time></trkpt><trkpt lat="39.9864471" lon="8.5403895"><ele>3.5</ele><time>2026-04-30T15:46:12.693Z</time></trkpt><trkpt lat="39.9863208" lon="8.5403646"><ele>3.75</ele><time>2026-04-30T15:46:13.695Z</time></trkpt><trkpt lat="39.986204" lon="8.5403417"><ele>4.0</ele><time>2026-04-30T15:46:14.694Z</time></trkpt><trkpt lat="39.9860957" lon="8.5403153"><ele>4.2</ele><time>2026-04-30T15:46:15.693Z</time></trkpt><trkpt lat="39.9859904" lon="8.5402874"><ele>4.4</ele><time>2026-04-30T15:46:16.696Z</time></trkpt><trkpt lat="39.9858853" lon="8.5402671"><ele>4.6</ele><time>2026-04-30T15:46:17.692Z</time></trkpt><trkpt lat="39.9857889" lon="8.5402454"><ele>4.8</ele><time>2026-04-30T15:46:18.699Z</time></trkpt><trkpt lat="39.9856983" lon="8.5402222"><ele>5.0</ele><time>2026-04-30T15:46:19.692Z</time></trkpt><trkpt lat="39.9856057" lon="8.5401998"><ele>5.0</ele><time>2026-04-30T15:46:20.692Z</time></trkpt><trkpt lat="39.9855128" lon="8.5401742"><ele>5.0</ele><time>2026-04-30T15:46:21.692Z</time></trkpt><trkpt lat="39.9854094" lon="8.5401497"><ele>5.0</ele><time>2026-04-30T15:46:22.693Z</time></trkpt><trkpt lat="39.9853038" lon="8.5401272"><ele>5.0</ele><time>2026-04-30T15:46:23.696Z</time></trkpt><trkpt lat="39.9851982" lon="8.5401013"><ele>5.0</ele><time>2026-04-30T15:46:24.691Z</time></trkpt><trkpt lat="39.9850913" lon="8.5400747"><ele>5.25</ele><time>2026-04-30T15:46:25.691Z</time></trkpt><trkpt lat="39.9849855" lon="8.540044"><ele>5.5</ele><time>2026-04-30T15:46:26.692Z</time></trkpt><trkpt lat="39.9848762" lon="8.5400141"><ele>5.75</ele><time>2026-04-30T15:46:27.694Z</time></trkpt><trkpt lat="39.9847598" lon="8.5399838"><ele>6.0</ele><time>2026-04-30T15:46:28.692Z</time></trkpt><trkpt lat="39.984645" lon="8.5399555"><ele>6.0</ele><time>2026-04-30T15:46:29.693Z</time></trkpt><trkpt lat="39.9845276" lon="8.5399264"><ele>6.0</ele><time>2026-04-30T15:46:30.695Z</time></trkpt><trkpt lat="39.9844165" lon="8.5398999"><ele>6.0</ele><time>2026-04-30T15:46:31.696Z</time></trkpt><trkpt lat="39.9843065" lon="8.5398755"><ele>6.0</ele><time>2026-04-30T15:46:32.694Z</time></trkpt><trkpt lat="39.9841944" lon="8.539851"><ele>6.0</ele><time>2026-04-30T15:46:33.695Z</time></trkpt><trkpt lat="39.9840802" lon="8.539821"><ele>6.0</ele><time>2026-04-30T15:46:34.692Z</time></trkpt><trkpt lat="39.9839701" lon="8.5397921"><ele>6.0</ele><time>2026-04-30T15:46:35.696Z</time></trkpt><trkpt lat="39.9838595" lon="8.5397684"><ele>6.0</ele><time>2026-04-30T15:46:36.698Z</time></trkpt><trkpt lat="39.983755" lon="8.5397399"><ele>6.0</ele><time>2026-04-30T15:46:37.693Z</time></trkpt><trkpt lat="39.9836517" lon="8.5397119"><ele>6.0</ele><time>2026-04-30T15:46:38.696Z</time></trkpt><trkpt lat="39.9835566" lon="8.5396876"><ele>6.0</ele><time>2026-04-30T15:46:39.696Z</time></trkpt><trkpt lat="39.9834684" lon="8.5396675"><ele>6.0</ele><time>2026-04-30T15:46:40.695Z</time></trkpt><trkpt lat="39.9833843" lon="8.539646"><ele>6.0</ele><time>2026-04-30T15:46:41.694Z</time></trkpt><trkpt lat="39.9833061" lon="8.5396291"><ele>6.0</ele><time>2026-04-30T15:46:42.695Z</time></trkpt><trkpt lat="39.9832327" lon="8.5396117"><ele>6.0</ele><time>2026-04-30T15:46:43.694Z</time></trkpt><trkpt lat="39.9831577" lon="8.539594"><ele>6.0</ele><time>2026-04-30T15:46:44.694Z</time></trkpt><trkpt lat="39.9830793" lon="8.5395718"><ele>6.0</ele><time>2026-04-30T15:46:45.7Z</time></trkpt><trkpt lat="39.9830055" lon="8.5395557"><ele>6.0</ele><time>2026-04-30T15:46:46.699Z</time></trkpt><trkpt lat="39.9829267" lon="8.5395385"><ele>6.0</ele><time>2026-04-30T15:46:47.692Z</time></trkpt><trkpt lat="39.9828494" lon="8.5395277"><ele>6.0</ele><time>2026-04-30T15:46:48.693Z</time></trkpt><trkpt lat="39.9827765" lon="8.5395155"><ele>6.0</ele><time>2026-04-30T15:46:49.7Z</time></trkpt><trkpt lat="39.9826994" lon="8.5394973"><ele>6.0</ele><time>2026-04-30T15:46:50.695Z</time></trkpt><trkpt lat="39.9826166" lon="8.5394758"><ele>6.0</ele><time>2026-04-30T15:46:51.692Z</time></trkpt><trkpt lat="39.9825409" lon="8.5394491"><ele>6.0</ele><time>2026-04-30T15:46:52.694Z</time></trkpt><trkpt lat="39.9824733" lon="8.5394078"><ele>6.0</ele><time>2026-04-30T15:46:53.692Z</time></trkpt><trkpt lat="39.9824145" lon="8.5393511"><ele>6.0</ele><time>2026-04-30T15:46:54.691Z</time></trkpt><trkpt lat="39.9823721" lon="8.5392721"><ele>6.0</ele><time>2026-04-30T15:46:55.698Z</time></trkpt><trkpt lat="39.9823205" lon="8.5391999"><ele>5.999999999999999</ele><time>2026-04-30T15:46:56.695Z</time></trkpt><trkpt lat="39.9822658" lon="8.5391544"><ele>6.0</ele><time>2026-04-30T15:46:57.696Z</time></trkpt><trkpt lat="39.9821995" lon="8.5391446"><ele>6.0</ele><time>2026-04-30T15:46:58.703Z</time></trkpt><trkpt lat="39.9820978" lon="8.5392073"><ele>6.0</ele><time>2026-04-30T15:47:00.693Z</time></trkpt><trkpt lat="39.9820384" lon="8.5392396"><ele>6.0</ele><time>2026-04-30T15:47:01.691Z</time></trkpt><trkpt lat="39.9819752" lon="8.5392583"><ele>5.999999999999999</ele><time>2026-04-30T15:47:02.691Z</time></trkpt><trkpt lat="39.9819103" lon="8.5392703"><ele>6.0</ele><time>2026-04-30T15:47:03.693Z</time></trkpt><trkpt lat="39.9818346" lon="8.5392617"><ele>5.999999999999999</ele><time>2026-04-30T15:47:04.691Z</time></trkpt><trkpt lat="39.9817666" lon="8.5392494"><ele>6.0</ele><time>2026-04-30T15:47:05.696Z</time></trkpt><trkpt lat="39.9816983" lon="8.5392394"><ele>6.0</ele><time>2026-04-30T15:47:06.691Z</time></trkpt><trkpt lat="39.981637" lon="8.5392182"><ele>6.0</ele><time>2026-04-30T15:47:07.692Z</time></trkpt><trkpt lat="39.9815659" lon="8.5392015"><ele>6.0</ele><time>2026-04-30T15:47:08.696Z</time></trkpt><trkpt lat="39.9814867" lon="8.5391832"><ele>5.999999999999999</ele><time>2026-04-30T15:47:09.693Z</time></trkpt><trkpt lat="39.981413" lon="8.5391661"><ele>6.0</ele><time>2026-04-30T15:47:10.696Z</time></trkpt><trkpt lat="39.9813335" lon="8.5391464"><ele>5.833333333333333</ele><time>2026-04-30T15:47:11.697Z</time></trkpt><trkpt lat="39.9812529" lon="8.5391252"><ele>5.666666666666667</ele><time>2026-04-30T15:47:12.695Z</time></trkpt><trkpt lat="39.9811703" lon="8.539109"><ele>5.5</ele><time>2026-04-30T15:47:13.695Z</time></trkpt><trkpt lat="39.9810982" lon="8.5390961"><ele>5.333333333333334</ele><time>2026-04-30T15:47:14.696Z</time></trkpt><trkpt lat="39.9809786" lon="8.5390681"><ele>5.166666666666667</ele><time>2026-04-30T15:47:16.692Z</time></trkpt><trkpt lat="39.9809135" lon="8.539058"><ele>5.0</ele><time>2026-04-30T15:47:17.694Z</time></trkpt><trkpt lat="39.9808445" lon="8.5390419"><ele>5.0</ele><time>2026-04-30T15:47:18.694Z</time></trkpt><trkpt lat="39.9807706" lon="8.5390227"><ele>5.0</ele><time>2026-04-30T15:47:19.695Z</time></trkpt><trkpt lat="39.9806966" lon="8.5390034"><ele>5.0</ele><time>2026-04-30T15:47:20.692Z</time></trkpt><trkpt lat="39.9806118" lon="8.5389815"><ele>5.0</ele><time>2026-04-30T15:47:21.698Z</time></trkpt><trkpt lat="39.9805281" lon="8.5389619"><ele>5.0</ele><time>2026-04-30T15:47:22.696Z</time></trkpt><trkpt lat="39.9804461" lon="8.5389407"><ele>5.0</ele><time>2026-04-30T15:47:23.693Z</time></trkpt><trkpt lat="39.9803607" lon="8.5389239"><ele>5.0</ele><time>2026-04-30T15:47:24.694Z</time></trkpt><trkpt lat="39.9802741" lon="8.5389043"><ele>5.0</ele><time>2026-04-30T15:47:25.697Z</time></trkpt><trkpt lat="39.9801851" lon="8.5388841"><ele>5.0</ele><time>2026-04-30T15:47:26.695Z</time></trkpt><trkpt lat="39.9800974" lon="8.5388681"><ele>5.0</ele><time>2026-04-30T15:47:27.694Z</time></trkpt><trkpt lat="39.9800069" lon="8.5388464"><ele>5.0</ele><time>2026-04-30T15:47:28.696Z</time></trkpt><trkpt lat="39.9799119" lon="8.5388234"><ele>4.8</ele><time>2026-04-30T15:47:29.696Z</time></trkpt><trkpt lat="39.9798171" lon="8.5388066"><ele>4.6</ele><time>2026-04-30T15:47:30.695Z</time></trkpt><trkpt lat="39.979718" lon="8.5387795"><ele>4.4</ele><time>2026-04-30T15:47:31.692Z</time></trkpt><trkpt lat="39.9796115" lon="8.5387476"><ele>4.2</ele><time>2026-04-30T15:47:32.693Z</time></trkpt><trkpt lat="39.9795081" lon="8.5387176"><ele>4.0</ele><time>2026-04-30T15:47:33.699Z</time></trkpt><trkpt lat="39.9794192" lon="8.5386943"><ele>3.9999999999999996</ele><time>2026-04-30T15:47:34.693Z</time></trkpt><trkpt lat="39.979336" lon="8.5386712"><ele>4.0</ele><time>2026-04-30T15:47:35.697Z</time></trkpt><trkpt lat="39.9792479" lon="8.5386554"><ele>4.0</ele><time>2026-04-30T15:47:36.698Z</time></trkpt><trkpt lat="39.9791579" lon="8.5386373"><ele>4.0</ele><time>2026-04-30T15:47:37.698Z</time></trkpt><trkpt lat="39.9790739" lon="8.5386136"><ele>3.9999999999999996</ele><time>2026-04-30T15:47:38.695Z</time></trkpt><trkpt lat="39.978989" lon="8.5385963"><ele>4.0</ele><time>2026-04-30T15:47:39.688Z</time></trkpt><trkpt lat="39.9788995" lon="8.5385868"><ele>4.0</ele><time>2026-04-30T15:47:40.691Z</time></trkpt><trkpt lat="39.9788095" lon="8.5385799"><ele>4.0</ele><time>2026-04-30T15:47:41.691Z</time></trkpt><trkpt lat="39.9787132" lon="8.5385657"><ele>4.0</ele><time>2026-04-30T15:47:42.698Z</time></trkpt><trkpt lat="39.9786179" lon="8.538552"><ele>4.0</ele><time>2026-04-30T15:47:43.69Z</time></trkpt><trkpt lat="39.9785224" lon="8.5385404"><ele>4.0</ele><time>2026-04-30T15:47:44.698Z</time></trkpt><trkpt lat="39.9784249" lon="8.5385261"><ele>4.333333333333333</ele><time>2026-04-30T15:47:45.693Z</time></trkpt><trkpt lat="39.9783351" lon="8.5385185"><ele>4.666666666666666</ele><time>2026-04-30T15:47:46.695Z</time></trkpt><trkpt lat="39.9782547" lon="8.5385042"><ele>5.0</ele><time>2026-04-30T15:47:47.693Z</time></trkpt><trkpt lat="39.9781753" lon="8.5384914"><ele>5.333333333333333</ele><time>2026-04-30T15:47:48.698Z</time></trkpt><trkpt lat="39.9780926" lon="8.5384876"><ele>5.666666666666667</ele><time>2026-04-30T15:47:49.695Z</time></trkpt><trkpt lat="39.9780062" lon="8.5384794"><ele>6.0</ele><time>2026-04-30T15:47:50.695Z</time></trkpt><trkpt lat="39.9779135" lon="8.5384719"><ele>6.0</ele><time>2026-04-30T15:47:51.695Z</time></trkpt><trkpt lat="39.9778228" lon="8.5384655"><ele>6.0</ele><time>2026-04-30T15:47:52.695Z</time></trkpt><trkpt lat="39.9777289" lon="8.538456"><ele>6.0</ele><time>2026-04-30T15:47:53.693Z</time></trkpt><trkpt lat="39.9776353" lon="8.5384528"><ele>6.0</ele><time>2026-04-30T15:47:54.694Z</time></trkpt><trkpt lat="39.9775335" lon="8.5384407"><ele>6.0</ele><time>2026-04-30T15:47:55.696Z</time></trkpt><trkpt lat="39.9774287" lon="8.538429"><ele>6.199999999999999</ele><time>2026-04-30T15:47:56.693Z</time></trkpt><trkpt lat="39.9773284" lon="8.538414"><ele>6.3999999999999995</ele><time>2026-04-30T15:47:57.692Z</time></trkpt><trkpt lat="39.9772261" lon="8.5384021"><ele>6.6</ele><time>2026-04-30T15:47:58.692Z</time></trkpt><trkpt lat="39.9771215" lon="8.5383963"><ele>6.8</ele><time>2026-04-30T15:47:59.696Z</time></trkpt><trkpt lat="39.9770056" lon="8.5383957"><ele>7.0</ele><time>2026-04-30T15:48:00.695Z</time></trkpt><trkpt lat="39.976897" lon="8.5383973"><ele>7.0</ele><time>2026-04-30T15:48:01.692Z</time></trkpt><trkpt lat="39.9767886" lon="8.538401"><ele>6.999999999999999</ele><time>2026-04-30T15:48:02.694Z</time></trkpt><trkpt lat="39.9766849" lon="8.5384107"><ele>6.999999999999999</ele><time>2026-04-30T15:48:03.697Z</time></trkpt><trkpt lat="39.9765793" lon="8.5384246"><ele>7.0</ele><time>2026-04-30T15:48:04.693Z</time></trkpt><trkpt lat="39.9764806" lon="8.5384421"><ele>7.0</ele><time>2026-04-30T15:48:05.7Z</time></trkpt><trkpt lat="39.9763749" lon="8.5384493"><ele>7.166666666666667</ele><time>2026-04-30T15:48:06.693Z</time></trkpt><trkpt lat="39.9762764" lon="8.5384642"><ele>7.333333333333334</ele><time>2026-04-30T15:48:07.691Z</time></trkpt><trkpt lat="39.976183" lon="8.5384745"><ele>7.5</ele><time>2026-04-30T15:48:08.693Z</time></trkpt><trkpt lat="39.9760974" lon="8.53848"><ele>7.666666666666666</ele><time>2026-04-30T15:48:09.694Z</time></trkpt><trkpt lat="39.9760192" lon="8.5384837"><ele>7.833333333333333</ele><time>2026-04-30T15:48:10.693Z</time></trkpt><trkpt lat="39.9759403" lon="8.5384809"><ele>8.0</ele><time>2026-04-30T15:48:11.695Z</time></trkpt><trkpt lat="39.9758557" lon="8.5384791"><ele>7.666666666666666</ele><time>2026-04-30T15:48:12.701Z</time></trkpt><trkpt lat="39.9757702" lon="8.5384739"><ele>7.333333333333333</ele><time>2026-04-30T15:48:13.699Z</time></trkpt><trkpt lat="39.9756867" lon="8.5384692"><ele>7.0</ele><time>2026-04-30T15:48:14.694Z</time></trkpt><trkpt lat="39.9755987" lon="8.5384596"><ele>6.666666666666666</ele><time>2026-04-30T15:48:15.697Z</time></trkpt><trkpt lat="39.9755079" lon="8.5384549"><ele>6.333333333333333</ele><time>2026-04-30T15:48:16.695Z</time></trkpt><trkpt lat="39.9754129" lon="8.5384475"><ele>6.0</ele><time>2026-04-30T15:48:17.694Z</time></trkpt><trkpt lat="39.9753168" lon="8.5384526"><ele>6.0</ele><time>2026-04-30T15:48:18.692Z</time></trkpt><trkpt lat="39.9752175" lon="8.5384815"><ele>6.0</ele><time>2026-04-30T15:48:19.692Z</time></trkpt><trkpt lat="39.9751274" lon="8.5385362"><ele>6.0</ele><time>2026-04-30T15:48:20.695Z</time></trkpt><trkpt lat="39.9750378" lon="8.5386"><ele>6.0</ele><time>2026-04-30T15:48:21.691Z</time></trkpt><trkpt lat="39.974942" lon="8.5386696"><ele>6.0</ele><time>2026-04-30T15:48:22.7Z</time></trkpt><trkpt lat="39.974843" lon="8.5387332"><ele>6.4</ele><time>2026-04-30T15:48:23.692Z</time></trkpt><trkpt lat="39.974733" lon="8.5387975"><ele>6.8</ele><time>2026-04-30T15:48:24.695Z</time></trkpt><trkpt lat="39.9746286" lon="8.5388393"><ele>7.200000000000001</ele><time>2026-04-30T15:48:25.696Z</time></trkpt><trkpt lat="39.9745402" lon="8.5388806"><ele>7.6000000000000005</ele><time>2026-04-30T15:48:26.696Z</time></trkpt><trkpt lat="39.9744425" lon="8.538907"><ele>8.0</ele><time>2026-04-30T15:48:27.694Z</time></trkpt><trkpt lat="39.9743614" lon="8.5389228"><ele>8.0</ele><time>2026-04-30T15:48:28.694Z</time></trkpt><trkpt lat="39.9742856" lon="8.5389299"><ele>8.0</ele><time>2026-04-30T15:48:29.694Z</time></trkpt><trkpt lat="39.9742205" lon="8.538936"><ele>8.0</ele><time>2026-04-30T15:48:30.693Z</time></trkpt><trkpt lat="39.9740935" lon="8.5389406"><ele>8.0</ele><time>2026-04-30T15:48:32.69Z</time></trkpt><trkpt lat="39.973961" lon="8.5389544"><ele>8.0</ele><time>2026-04-30T15:48:34.694Z</time></trkpt><trkpt lat="39.9738879" lon="8.5389643"><ele>8.0</ele><time>2026-04-30T15:48:35.693Z</time></trkpt><trkpt lat="39.9738099" lon="8.5389805"><ele>8.0</ele><time>2026-04-30T15:48:36.697Z</time></trkpt><trkpt lat="39.9737246" lon="8.5390039"><ele>8.0</ele><time>2026-04-30T15:48:37.697Z</time></trkpt><trkpt lat="39.9736298" lon="8.5390348"><ele>8.0</ele><time>2026-04-30T15:48:38.691Z</time></trkpt><trkpt lat="39.9735313" lon="8.5390735"><ele>8.0</ele><time>2026-04-30T15:48:39.691Z</time></trkpt><trkpt lat="39.973422" lon="8.5391216"><ele>7.75</ele><time>2026-04-30T15:48:40.693Z</time></trkpt><trkpt lat="39.9732997" lon="8.5391689"><ele>7.5</ele><time>2026-04-30T15:48:41.694Z</time></trkpt><trkpt lat="39.9731764" lon="8.5392275"><ele>7.25</ele><time>2026-04-30T15:48:42.694Z</time></trkpt><trkpt lat="39.9730421" lon="8.5392854"><ele>7.0</ele><time>2026-04-30T15:48:43.692Z</time></trkpt><trkpt lat="39.9729043" lon="8.5393442"><ele>7.0</ele><time>2026-04-30T15:48:44.693Z</time></trkpt><trkpt lat="39.9727571" lon="8.5394111"><ele>7.0</ele><time>2026-04-30T15:48:45.694Z</time></trkpt><trkpt lat="39.9726136" lon="8.5394724"><ele>7.0</ele><time>2026-04-30T15:48:46.694Z</time></trkpt><trkpt lat="39.9724696" lon="8.5395315"><ele>6.666666666666667</ele><time>2026-04-30T15:48:47.69Z</time></trkpt><trkpt lat="39.97232" lon="8.5395946"><ele>6.333333333333334</ele><time>2026-04-30T15:48:48.697Z</time></trkpt><trkpt lat="39.9721703" lon="8.5396611"><ele>6.0</ele><time>2026-04-30T15:48:49.696Z</time></trkpt><trkpt lat="39.9720278" lon="8.5397213"><ele>6.0</ele><time>2026-04-30T15:48:50.698Z</time></trkpt><trkpt lat="39.9718896" lon="8.5397755"><ele>6.0</ele><time>2026-04-30T15:48:51.694Z</time></trkpt><trkpt lat="39.9717476" lon="8.5398452"><ele>6.0</ele><time>2026-04-30T15:48:52.698Z</time></trkpt><trkpt lat="39.971609" lon="8.539906"><ele>6.0</ele><time>2026-04-30T15:48:53.692Z</time></trkpt><trkpt lat="39.9714763" lon="8.5399627"><ele>6.0</ele><time>2026-04-30T15:48:54.693Z</time></trkpt><trkpt lat="39.9713569" lon="8.5400207"><ele>6.0</ele><time>2026-04-30T15:48:55.692Z</time></trkpt><trkpt lat="39.9712314" lon="8.5400761"><ele>6.0</ele><time>2026-04-30T15:48:56.695Z</time></trkpt><trkpt lat="39.9711036" lon="8.5401349"><ele>6.0</ele><time>2026-04-30T15:48:57.69Z</time></trkpt><trkpt lat="39.9709741" lon="8.5401941"><ele>6.0</ele><time>2026-04-30T15:48:58.695Z</time></trkpt><trkpt lat="39.9708367" lon="8.5402472"><ele>6.0</ele><time>2026-04-30T15:48:59.695Z</time></trkpt><trkpt lat="39.9706991" lon="8.5403055"><ele>6.0</ele><time>2026-04-30T15:49:00.694Z</time></trkpt><trkpt lat="39.970565" lon="8.5403655"><ele>6.0</ele><time>2026-04-30T15:49:01.695Z</time></trkpt><trkpt lat="39.9704321" lon="8.5404289"><ele>6.0</ele><time>2026-04-30T15:49:02.696Z</time></trkpt><trkpt lat="39.9702864" lon="8.5404864"><ele>6.0</ele><time>2026-04-30T15:49:03.69Z</time></trkpt><trkpt lat="39.9701484" lon="8.5405517"><ele>6.0</ele><time>2026-04-30T15:49:04.696Z</time></trkpt><trkpt lat="39.9700075" lon="8.5406145"><ele>6.0</ele><time>2026-04-30T15:49:05.694Z</time></trkpt><trkpt lat="39.9698719" lon="8.5406715"><ele>6.25</ele><time>2026-04-30T15:49:06.703Z</time></trkpt><trkpt lat="39.9697353" lon="8.5407226"><ele>6.5</ele><time>2026-04-30T15:49:07.691Z</time></trkpt><trkpt lat="39.9695953" lon="8.5407669"><ele>6.75</ele><time>2026-04-30T15:49:08.692Z</time></trkpt><trkpt lat="39.9694604" lon="8.5408046"><ele>7.0</ele><time>2026-04-30T15:49:09.693Z</time></trkpt><trkpt lat="39.9693168" lon="8.540834"><ele>7.25</ele><time>2026-04-30T15:49:10.695Z</time></trkpt><trkpt lat="39.9691714" lon="8.540858"><ele>7.5</ele><time>2026-04-30T15:49:11.693Z</time></trkpt><trkpt lat="39.9690317" lon="8.5408835"><ele>7.75</ele><time>2026-04-30T15:49:12.693Z</time></trkpt><trkpt lat="39.9688886" lon="8.5409032"><ele>8.0</ele><time>2026-04-30T15:49:13.695Z</time></trkpt><trkpt lat="39.968748" lon="8.5409217"><ele>8.0</ele><time>2026-04-30T15:49:14.692Z</time></trkpt><trkpt lat="39.9686109" lon="8.5409395"><ele>8.0</ele><time>2026-04-30T15:49:15.693Z</time></trkpt><trkpt lat="39.968474" lon="8.5409603"><ele>8.0</ele><time>2026-04-30T15:49:16.695Z</time></trkpt><trkpt lat="39.968334" lon="8.5409745"><ele>8.0</ele><time>2026-04-30T15:49:17.694Z</time></trkpt><trkpt lat="39.9681955" lon="8.5409941"><ele>7.5</ele><time>2026-04-30T15:49:18.69Z</time></trkpt><trkpt lat="39.9680472" lon="8.5410058"><ele>7.0</ele><time>2026-04-30T15:49:19.693Z</time></trkpt><trkpt lat="39.9679099" lon="8.5410354"><ele>6.5</ele><time>2026-04-30T15:49:20.698Z</time></trkpt><trkpt lat="39.9677675" lon="8.5410646"><ele>6.0</ele><time>2026-04-30T15:49:21.692Z</time></trkpt><trkpt lat="39.9676296" lon="8.5410976"><ele>6.0</ele><time>2026-04-30T15:49:22.694Z</time></trkpt><trkpt lat="39.9674999" lon="8.5411339"><ele>6.0</ele><time>2026-04-30T15:49:23.696Z</time></trkpt><trkpt lat="39.9673704" lon="8.5411733"><ele>6.0</ele><time>2026-04-30T15:49:24.699Z</time></trkpt><trkpt lat="39.9672507" lon="8.5412119"><ele>6.0</ele><time>2026-04-30T15:49:25.691Z</time></trkpt><trkpt lat="39.9671297" lon="8.5412388"><ele>6.0</ele><time>2026-04-30T15:49:26.692Z</time></trkpt><trkpt lat="39.9670081" lon="8.5412524"><ele>6.0</ele><time>2026-04-30T15:49:27.692Z</time></trkpt><trkpt lat="39.966902" lon="8.5412435"><ele>6.0</ele><time>2026-04-30T15:49:28.693Z</time></trkpt><trkpt lat="39.9668031" lon="8.5412183"><ele>6.0</ele><time>2026-04-30T15:49:29.696Z</time></trkpt><trkpt lat="39.9667114" lon="8.5412081"><ele>6.0</ele><time>2026-04-30T15:49:30.703Z</time></trkpt><trkpt lat="39.9666256" lon="8.5412326"><ele>5.6</ele><time>2026-04-30T15:49:31.694Z</time></trkpt><trkpt lat="39.9665472" lon="8.5412857"><ele>5.199999999999999</ele><time>2026-04-30T15:49:32.693Z</time></trkpt><trkpt lat="39.9664743" lon="8.5413646"><ele>4.800000000000001</ele><time>2026-04-30T15:49:33.693Z</time></trkpt><trkpt lat="39.9663914" lon="8.5414464"><ele>4.4</ele><time>2026-04-30T15:49:34.696Z</time></trkpt><trkpt lat="39.9662983" lon="8.5415236"><ele>4.0</ele><time>2026-04-30T15:49:35.692Z</time></trkpt><trkpt lat="39.966192" lon="8.5415892"><ele>4.0</ele><time>2026-04-30T15:49:36.698Z</time></trkpt><trkpt lat="39.966073" lon="8.5416481"><ele>4.0</ele><time>2026-04-30T15:49:37.697Z</time></trkpt><trkpt lat="39.9659517" lon="8.541707"><ele>4.0</ele><time>2026-04-30T15:49:38.696Z</time></trkpt><trkpt lat="39.9658223" lon="8.5417638"><ele>4.0</ele><time>2026-04-30T15:49:39.694Z</time></trkpt><trkpt lat="39.965686" lon="8.5418143"><ele>4.0</ele><time>2026-04-30T15:49:40.691Z</time></trkpt><trkpt lat="39.9655453" lon="8.5418688"><ele>4.0</ele><time>2026-04-30T15:49:41.701Z</time></trkpt><trkpt lat="39.965404" lon="8.5419279"><ele>4.0</ele><time>2026-04-30T15:49:42.697Z</time></trkpt><trkpt lat="39.9652562" lon="8.5419905"><ele>4.666666666666666</ele><time>2026-04-30T15:49:43.695Z</time></trkpt><trkpt lat="39.9651056" lon="8.5420541"><ele>5.333333333333333</ele><time>2026-04-30T15:49:44.693Z</time></trkpt><trkpt lat="39.9649496" lon="8.5421147"><ele>6.0</ele><time>2026-04-30T15:49:45.691Z</time></trkpt><trkpt lat="39.9647908" lon="8.5421774"><ele>6.0</ele><time>2026-04-30T15:49:46.694Z</time></trkpt><trkpt lat="39.9646274" lon="8.5422375"><ele>6.0</ele><time>2026-04-30T15:49:47.694Z</time></trkpt><trkpt lat="39.9644574" lon="8.5422989"><ele>6.0</ele><time>2026-04-30T15:49:48.695Z</time></trkpt><trkpt lat="39.9642908" lon="8.5423678"><ele>5.333333333333333</ele><time>2026-04-30T15:49:49.691Z</time></trkpt><trkpt lat="39.9641215" lon="8.5424478"><ele>4.666666666666666</ele><time>2026-04-30T15:49:50.691Z</time></trkpt><trkpt lat="39.963956" lon="8.5425477"><ele>4.0</ele><time>2026-04-30T15:49:51.693Z</time></trkpt><trkpt lat="39.9637995" lon="8.5426737"><ele>4.0</ele><time>2026-04-30T15:49:52.696Z</time></trkpt><trkpt lat="39.963649" lon="8.5428173"><ele>4.0</ele><time>2026-04-30T15:49:53.694Z</time></trkpt><trkpt lat="39.9635032" lon="8.5429699"><ele>4.0</ele><time>2026-04-30T15:49:54.691Z</time></trkpt><trkpt lat="39.9633549" lon="8.5431303"><ele>3.333333333333333</ele><time>2026-04-30T15:49:55.695Z</time></trkpt><trkpt lat="39.9632144" lon="8.5432931"><ele>2.6666666666666665</ele><time>2026-04-30T15:49:56.693Z</time></trkpt><trkpt lat="39.9630664" lon="8.5434583"><ele>2.0</ele><time>2026-04-30T15:49:57.695Z</time></trkpt><trkpt lat="39.9629168" lon="8.5436297"><ele>2.333333333333333</ele><time>2026-04-30T15:49:58.691Z</time></trkpt><trkpt lat="39.9627747" lon="8.5438109"><ele>2.6666666666666665</ele><time>2026-04-30T15:49:59.695Z</time></trkpt><trkpt lat="39.9626515" lon="8.5440102"><ele>3.0</ele><time>2026-04-30T15:50:00.696Z</time></trkpt><trkpt lat="39.96255" lon="8.5442362"><ele>3.333333333333333</ele><time>2026-04-30T15:50:01.695Z</time></trkpt><trkpt lat="39.9624675" lon="8.5444705"><ele>3.6666666666666665</ele><time>2026-04-30T15:50:02.693Z</time></trkpt><trkpt lat="39.962396" lon="8.544717"><ele>4.0</ele><time>2026-04-30T15:50:03.691Z</time></trkpt><trkpt lat="39.9623179" lon="8.5449652"><ele>4.0</ele><time>2026-04-30T15:50:04.692Z</time></trkpt><trkpt lat="39.9622344" lon="8.5452091"><ele>4.0</ele><time>2026-04-30T15:50:05.694Z</time></trkpt><trkpt lat="39.9621381" lon="8.5454479"><ele>4.0</ele><time>2026-04-30T15:50:06.697Z</time></trkpt><trkpt lat="39.9620292" lon="8.5456709"><ele>4.0</ele><time>2026-04-30T15:50:07.696Z</time></trkpt><trkpt lat="39.9619146" lon="8.545892"><ele>4.0</ele><time>2026-04-30T15:50:08.696Z</time></trkpt><trkpt lat="39.9617824" lon="8.5461053"><ele>4.0</ele><time>2026-04-30T15:50:09.697Z</time></trkpt><trkpt lat="39.9616479" lon="8.5463237"><ele>4.333333333333333</ele><time>2026-04-30T15:50:10.696Z</time></trkpt><trkpt lat="39.9615138" lon="8.5465442"><ele>4.666666666666667</ele><time>2026-04-30T15:50:11.694Z</time></trkpt><trkpt lat="39.9613718" lon="8.546772"><ele>5.0</ele><time>2026-04-30T15:50:12.696Z</time></trkpt><trkpt lat="39.9612264" lon="8.5469997"><ele>5.0</ele><time>2026-04-30T15:50:13.695Z</time></trkpt><trkpt lat="39.9610768" lon="8.5472314"><ele>5.0</ele><time>2026-04-30T15:50:14.694Z</time></trkpt><trkpt lat="39.9609235" lon="8.547467"><ele>4.5</ele><time>2026-04-30T15:50:15.694Z</time></trkpt><trkpt lat="39.9607742" lon="8.5477065"><ele>4.0</ele><time>2026-04-30T15:50:16.688Z</time></trkpt><trkpt lat="39.9606227" lon="8.5479488"><ele>4.0</ele><time>2026-04-30T15:50:17.695Z</time></trkpt><trkpt lat="39.9604718" lon="8.5481957"><ele>4.0</ele><time>2026-04-30T15:50:18.697Z</time></trkpt><trkpt lat="39.9603152" lon="8.5484474"><ele>4.0</ele><time>2026-04-30T15:50:19.692Z</time></trkpt><trkpt lat="39.960161" lon="8.5486923"><ele>4.0</ele><time>2026-04-30T15:50:20.694Z</time></trkpt><trkpt lat="39.9600015" lon="8.548944"><ele>4.0</ele><time>2026-04-30T15:50:21.691Z</time></trkpt><trkpt lat="39.9598456" lon="8.5491942"><ele>4.0</ele><time>2026-04-30T15:50:22.691Z</time></trkpt><trkpt lat="39.9596907" lon="8.5494476"><ele>4.0</ele><time>2026-04-30T15:50:23.695Z</time></trkpt><trkpt lat="39.9595346" lon="8.5497071"><ele>4.0</ele><time>2026-04-30T15:50:24.691Z</time></trkpt><trkpt lat="39.9593781" lon="8.5499618"><ele>4.0</ele><time>2026-04-30T15:50:25.695Z</time></trkpt><trkpt lat="39.9592186" lon="8.5502203"><ele>4.0</ele><time>2026-04-30T15:50:26.692Z</time></trkpt><trkpt lat="39.959059" lon="8.5504781"><ele>4.0</ele><time>2026-04-30T15:50:27.694Z</time></trkpt><trkpt lat="39.9589004" lon="8.5507388"><ele>4.0</ele><time>2026-04-30T15:50:28.693Z</time></trkpt><trkpt lat="39.9587408" lon="8.5509934"><ele>4.5</ele><time>2026-04-30T15:50:29.693Z</time></trkpt><trkpt lat="39.958576" lon="8.5512456"><ele>5.0</ele><time>2026-04-30T15:50:30.693Z</time></trkpt><trkpt lat="39.95841" lon="8.551491"><ele>5.5</ele><time>2026-04-30T15:50:31.69Z</time></trkpt><trkpt lat="39.9582406" lon="8.55173"><ele>6.0</ele><time>2026-04-30T15:50:32.692Z</time></trkpt><trkpt lat="39.9580611" lon="8.5519603"><ele>6.0</ele><time>2026-04-30T15:50:33.695Z</time></trkpt><trkpt lat="39.9578802" lon="8.5521841"><ele>6.0</ele><time>2026-04-30T15:50:34.692Z</time></trkpt><trkpt lat="39.957702" lon="8.5523998"><ele>6.0</ele><time>2026-04-30T15:50:35.693Z</time></trkpt><trkpt lat="39.957522" lon="8.5526171"><ele>6.0</ele><time>2026-04-30T15:50:36.696Z</time></trkpt><trkpt lat="39.95734" lon="8.5528326"><ele>6.0</ele><time>2026-04-30T15:50:37.695Z</time></trkpt><trkpt lat="39.9571524" lon="8.5530488"><ele>6.0</ele><time>2026-04-30T15:50:38.692Z</time></trkpt><trkpt lat="39.9569678" lon="8.5532618"><ele>6.0</ele><time>2026-04-30T15:50:39.696Z</time></trkpt><trkpt lat="39.9567833" lon="8.5534754"><ele>6.0</ele><time>2026-04-30T15:50:40.692Z</time></trkpt><trkpt lat="39.9566017" lon="8.5536871"><ele>7.0</ele><time>2026-04-30T15:50:41.693Z</time></trkpt><trkpt lat="39.9564177" lon="8.5539001"><ele>8.0</ele><time>2026-04-30T15:50:42.695Z</time></trkpt><trkpt lat="39.9562361" lon="8.5541079"><ele>8.0</ele><time>2026-04-30T15:50:43.694Z</time></trkpt><trkpt lat="39.9560592" lon="8.5543174"><ele>8.0</ele><time>2026-04-30T15:50:44.69Z</time></trkpt><trkpt lat="39.95589" lon="8.5545137"><ele>7.666666666666666</ele><time>2026-04-30T15:50:45.691Z</time></trkpt><trkpt lat="39.9557213" lon="8.5547124"><ele>7.333333333333334</ele><time>2026-04-30T15:50:46.696Z</time></trkpt><trkpt lat="39.9555574" lon="8.5549075"><ele>7.0</ele><time>2026-04-30T15:50:47.691Z</time></trkpt><trkpt lat="39.955393" lon="8.5551047"><ele>7.0</ele><time>2026-04-30T15:50:48.692Z</time></trkpt><trkpt lat="39.955234" lon="8.5552951"><ele>7.0</ele><time>2026-04-30T15:50:49.696Z</time></trkpt><trkpt lat="39.9550768" lon="8.5554788"><ele>7.0</ele><time>2026-04-30T15:50:50.689Z</time></trkpt><trkpt lat="39.9549269" lon="8.5556581"><ele>6.0</ele><time>2026-04-30T15:50:51.691Z</time></trkpt><trkpt lat="39.954773" lon="8.5558376"><ele>5.0</ele><time>2026-04-30T15:50:52.693Z</time></trkpt><trkpt lat="39.954625" lon="8.5560149"><ele>4.0</ele><time>2026-04-30T15:50:53.693Z</time></trkpt><trkpt lat="39.9544742" lon="8.5561891"><ele>4.333333333333333</ele><time>2026-04-30T15:50:54.694Z</time></trkpt><trkpt lat="39.954326" lon="8.556364"><ele>4.666666666666667</ele><time>2026-04-30T15:50:55.694Z</time></trkpt><trkpt lat="39.9541732" lon="8.5565405"><ele>5.0</ele><time>2026-04-30T15:50:56.695Z</time></trkpt><trkpt lat="39.9540178" lon="8.5567172"><ele>5.0</ele><time>2026-04-30T15:50:57.696Z</time></trkpt><trkpt lat="39.9538641" lon="8.5568908"><ele>5.0</ele><time>2026-04-30T15:50:58.693Z</time></trkpt><trkpt lat="39.953717" lon="8.5570677"><ele>5.0</ele><time>2026-04-30T15:50:59.692Z</time></trkpt><trkpt lat="39.9535666" lon="8.5572498"><ele>5.0</ele><time>2026-04-30T15:51:00.692Z</time></trkpt><trkpt lat="39.9534173" lon="8.5574286"><ele>5.0</ele><time>2026-04-30T15:51:01.696Z</time></trkpt><trkpt lat="39.9532604" lon="8.5576004"><ele>5.0</ele><time>2026-04-30T15:51:02.693Z</time></trkpt><trkpt lat="39.9531056" lon="8.5577789"><ele>5.333333333333334</ele><time>2026-04-30T15:51:03.697Z</time></trkpt><trkpt lat="39.9529538" lon="8.5579577"><ele>5.666666666666667</ele><time>2026-04-30T15:51:04.701Z</time></trkpt><trkpt lat="39.9527976" lon="8.5581384"><ele>6.0</ele><time>2026-04-30T15:51:05.694Z</time></trkpt><trkpt lat="39.9526466" lon="8.5583188"><ele>5.666666666666667</ele><time>2026-04-30T15:51:06.693Z</time></trkpt><trkpt lat="39.9524916" lon="8.558501"><ele>5.333333333333334</ele><time>2026-04-30T15:51:07.692Z</time></trkpt><trkpt lat="39.9523366" lon="8.558687"><ele>5.0</ele><time>2026-04-30T15:51:08.698Z</time></trkpt><trkpt lat="39.9521682" lon="8.5588608"><ele>4.666666666666667</ele><time>2026-04-30T15:51:09.694Z</time></trkpt><trkpt lat="39.9520124" lon="8.5590464"><ele>4.333333333333333</ele><time>2026-04-30T15:51:10.689Z</time></trkpt><trkpt lat="39.9518554" lon="8.5592333"><ele>4.0</ele><time>2026-04-30T15:51:11.695Z</time></trkpt><trkpt lat="39.9516976" lon="8.5594277"><ele>4.333333333333333</ele><time>2026-04-30T15:51:12.698Z</time></trkpt><trkpt lat="39.9515374" lon="8.5596197"><ele>4.666666666666667</ele><time>2026-04-30T15:51:13.697Z</time></trkpt><trkpt lat="39.9513761" lon="8.5598106"><ele>5.0</ele><time>2026-04-30T15:51:14.696Z</time></trkpt><trkpt lat="39.951214" lon="8.5600054"><ele>5.0</ele><time>2026-04-30T15:51:15.694Z</time></trkpt><trkpt lat="39.9510528" lon="8.5602"><ele>5.0</ele><time>2026-04-30T15:51:16.694Z</time></trkpt><trkpt lat="39.9508914" lon="8.5603932"><ele>5.0</ele><time>2026-04-30T15:51:17.691Z</time></trkpt><trkpt lat="39.9507304" lon="8.5605854"><ele>4.666666666666667</ele><time>2026-04-30T15:51:18.694Z</time></trkpt><trkpt lat="39.9505702" lon="8.5607724"><ele>4.333333333333333</ele><time>2026-04-30T15:51:19.693Z</time></trkpt><trkpt lat="39.9504128" lon="8.5609619"><ele>4.0</ele><time>2026-04-30T15:51:20.694Z</time></trkpt><trkpt lat="39.9502672" lon="8.5611403"><ele>4.333333333333333</ele><time>2026-04-30T15:51:21.693Z</time></trkpt><trkpt lat="39.9501239" lon="8.5613097"><ele>4.666666666666667</ele><time>2026-04-30T15:51:22.695Z</time></trkpt><trkpt lat="39.9499801" lon="8.5614772"><ele>5.0</ele><time>2026-04-30T15:51:23.692Z</time></trkpt><trkpt lat="39.9498432" lon="8.561647"><ele>4.333333333333334</ele><time>2026-04-30T15:51:24.693Z</time></trkpt><trkpt lat="39.9497095" lon="8.5618087"><ele>3.666666666666667</ele><time>2026-04-30T15:51:25.695Z</time></trkpt><trkpt lat="39.9495785" lon="8.5619668"><ele>3.0</ele><time>2026-04-30T15:51:26.694Z</time></trkpt><trkpt lat="39.9494443" lon="8.5621253"><ele>3.0</ele><time>2026-04-30T15:51:27.697Z</time></trkpt><trkpt lat="39.9493056" lon="8.5622823"><ele>3.0</ele><time>2026-04-30T15:51:28.692Z</time></trkpt><trkpt lat="39.9491689" lon="8.5624363"><ele>3.0</ele><time>2026-04-30T15:51:29.694Z</time></trkpt><trkpt lat="39.9490287" lon="8.5625976"><ele>2.3333333333333335</ele><time>2026-04-30T15:51:30.698Z</time></trkpt><trkpt lat="39.9488847" lon="8.5627652"><ele>1.6666666666666665</ele><time>2026-04-30T15:51:31.692Z</time></trkpt><trkpt lat="39.9487386" lon="8.5629388"><ele>1.0</ele><time>2026-04-30T15:51:32.694Z</time></trkpt><trkpt lat="39.9485878" lon="8.5631153"><ele>2.0</ele><time>2026-04-30T15:51:33.693Z</time></trkpt><trkpt lat="39.9484367" lon="8.5632939"><ele>3.0</ele><time>2026-04-30T15:51:34.695Z</time></trkpt><trkpt lat="39.9482839" lon="8.5634743"><ele>4.0</ele><time>2026-04-30T15:51:35.691Z</time></trkpt><trkpt lat="39.9481282" lon="8.5636591"><ele>4.333333333333333</ele><time>2026-04-30T15:51:36.694Z</time></trkpt><trkpt lat="39.9479719" lon="8.563846"><ele>4.666666666666667</ele><time>2026-04-30T15:51:37.697Z</time></trkpt><trkpt lat="39.9478106" lon="8.5640361"><ele>5.0</ele><time>2026-04-30T15:51:38.694Z</time></trkpt><trkpt lat="39.9476545" lon="8.5642202"><ele>5.0</ele><time>2026-04-30T15:51:39.7Z</time></trkpt><trkpt lat="39.9474868" lon="8.5644023"><ele>5.0</ele><time>2026-04-30T15:51:40.695Z</time></trkpt><trkpt lat="39.9473209" lon="8.5645884"><ele>5.0</ele><time>2026-04-30T15:51:41.694Z</time></trkpt><trkpt lat="39.9471598" lon="8.5647838"><ele>5.0</ele><time>2026-04-30T15:51:42.69Z</time></trkpt><trkpt lat="39.947002" lon="8.5649812"><ele>5.0</ele><time>2026-04-30T15:51:43.693Z</time></trkpt><trkpt lat="39.9468324" lon="8.5651768"><ele>5.0</ele><time>2026-04-30T15:51:44.692Z</time></trkpt><trkpt lat="39.9466719" lon="8.5653733"><ele>6.5</ele><time>2026-04-30T15:51:45.695Z</time></trkpt><trkpt lat="39.9465042" lon="8.5655725"><ele>8.0</ele><time>2026-04-30T15:51:46.695Z</time></trkpt><trkpt lat="39.9463374" lon="8.5657696"><ele>8.0</ele><time>2026-04-30T15:51:47.694Z</time></trkpt><trkpt lat="39.9461726" lon="8.5659676"><ele>8.0</ele><time>2026-04-30T15:51:48.691Z</time></trkpt><trkpt lat="39.9460025" lon="8.5661669"><ele>7.0</ele><time>2026-04-30T15:51:49.692Z</time></trkpt><trkpt lat="39.9458315" lon="8.5663685"><ele>6.0</ele><time>2026-04-30T15:51:50.694Z</time></trkpt><trkpt lat="39.9456632" lon="8.5665671"><ele>6.0</ele><time>2026-04-30T15:51:51.692Z</time></trkpt><trkpt lat="39.9454921" lon="8.5667685"><ele>6.0</ele><time>2026-04-30T15:51:52.69Z</time></trkpt><trkpt lat="39.9453212" lon="8.5669661"><ele>6.0</ele><time>2026-04-30T15:51:53.699Z</time></trkpt><trkpt lat="39.9451533" lon="8.5671697"><ele>6.0</ele><time>2026-04-30T15:51:54.7Z</time></trkpt><trkpt lat="39.9449755" lon="8.5673726"><ele>5.5</ele><time>2026-04-30T15:51:55.697Z</time></trkpt><trkpt lat="39.9448021" lon="8.5675734"><ele>5.0</ele><time>2026-04-30T15:51:56.696Z</time></trkpt><trkpt lat="39.9446263" lon="8.5677727"><ele>5.5</ele><time>2026-04-30T15:51:57.692Z</time></trkpt><trkpt lat="39.9444501" lon="8.5679739"><ele>6.0</ele><time>2026-04-30T15:51:58.691Z</time></trkpt><trkpt lat="39.9442716" lon="8.5681701"><ele>6.0</ele><time>2026-04-30T15:51:59.691Z</time></trkpt><trkpt lat="39.9440898" lon="8.5683684"><ele>6.0</ele><time>2026-04-30T15:52:00.692Z</time></trkpt><trkpt lat="39.9439008" lon="8.5685663"><ele>6.5</ele><time>2026-04-30T15:52:01.692Z</time></trkpt><trkpt lat="39.9437071" lon="8.568769"><ele>7.0</ele><time>2026-04-30T15:52:02.693Z</time></trkpt><trkpt lat="39.9435223" lon="8.5689668"><ele>8.0</ele><time>2026-04-30T15:52:03.695Z</time></trkpt><trkpt lat="39.9433483" lon="8.5691571"><ele>9.0</ele><time>2026-04-30T15:52:04.692Z</time></trkpt><trkpt lat="39.9431675" lon="8.5693461"><ele>8.333333333333334</ele><time>2026-04-30T15:52:05.693Z</time></trkpt><trkpt lat="39.9429917" lon="8.5695332"><ele>7.666666666666667</ele><time>2026-04-30T15:52:06.69Z</time></trkpt><trkpt lat="39.9428229" lon="8.5697127"><ele>7.0</ele><time>2026-04-30T15:52:07.694Z</time></trkpt><trkpt lat="39.9426578" lon="8.5698723"><ele>7.0</ele><time>2026-04-30T15:52:08.694Z</time></trkpt><trkpt lat="39.9424898" lon="8.5700032"><ele>7.0</ele><time>2026-04-30T15:52:09.693Z</time></trkpt><trkpt lat="39.9423185" lon="8.5701072"><ele>7.0</ele><time>2026-04-30T15:52:10.695Z</time></trkpt><trkpt lat="39.9421349" lon="8.5701819"><ele>7.0</ele><time>2026-04-30T15:52:11.689Z</time></trkpt><trkpt lat="39.9419484" lon="8.5702252"><ele>7.0</ele><time>2026-04-30T15:52:12.695Z</time></trkpt><trkpt lat="39.9417586" lon="8.5702439"><ele>7.0</ele><time>2026-04-30T15:52:13.694Z</time></trkpt><trkpt lat="39.9415562" lon="8.5702421"><ele>7.333333333333334</ele><time>2026-04-30T15:52:14.689Z</time></trkpt><trkpt lat="39.9413549" lon="8.5702328"><ele>7.666666666666666</ele><time>2026-04-30T15:52:15.691Z</time></trkpt><trkpt lat="39.9411667" lon="8.570233"><ele>8.0</ele><time>2026-04-30T15:52:16.693Z</time></trkpt><trkpt lat="39.9409784" lon="8.5702403"><ele>8.0</ele><time>2026-04-30T15:52:17.697Z</time></trkpt><trkpt lat="39.9407912" lon="8.5702789"><ele>8.0</ele><time>2026-04-30T15:52:18.695Z</time></trkpt><trkpt lat="39.9406071" lon="8.5703386"><ele>8.0</ele><time>2026-04-30T15:52:19.691Z</time></trkpt><trkpt lat="39.9404229" lon="8.5704185"><ele>8.0</ele><time>2026-04-30T15:52:20.696Z</time></trkpt><trkpt lat="39.9402397" lon="8.5705109"><ele>8.0</ele><time>2026-04-30T15:52:21.693Z</time></trkpt><trkpt lat="39.9400553" lon="8.5706154"><ele>8.0</ele><time>2026-04-30T15:52:22.697Z</time></trkpt><trkpt lat="39.9398674" lon="8.5707162"><ele>8.0</ele><time>2026-04-30T15:52:23.69Z</time></trkpt><trkpt lat="39.9396714" lon="8.5708214"><ele>8.0</ele><time>2026-04-30T15:52:24.693Z</time></trkpt><trkpt lat="39.9394816" lon="8.5709276"><ele>8.0</ele><time>2026-04-30T15:52:25.693Z</time></trkpt><trkpt lat="39.9392954" lon="8.5710377"><ele>8.333333333333332</ele><time>2026-04-30T15:52:26.695Z</time></trkpt><trkpt lat="39.9391023" lon="8.5711446"><ele>8.666666666666666</ele><time>2026-04-30T15:52:27.695Z</time></trkpt><trkpt lat="39.9389179" lon="8.5712573"><ele>9.0</ele><time>2026-04-30T15:52:28.688Z</time></trkpt><trkpt lat="39.9387459" lon="8.571367"><ele>9.0</ele><time>2026-04-30T15:52:29.69Z</time></trkpt><trkpt lat="39.9385803" lon="8.5714716"><ele>9.0</ele><time>2026-04-30T15:52:30.694Z</time></trkpt><trkpt lat="39.9384327" lon="8.5715659"><ele>9.0</ele><time>2026-04-30T15:52:31.69Z</time></trkpt><trkpt lat="39.9382896" lon="8.5716447"><ele>9.333333333333334</ele><time>2026-04-30T15:52:32.697Z</time></trkpt><trkpt lat="39.9381441" lon="8.5717105"><ele>9.666666666666668</ele><time>2026-04-30T15:52:33.7Z</time></trkpt><trkpt lat="39.9379936" lon="8.5717541"><ele>10.0</ele><time>2026-04-30T15:52:34.695Z</time></trkpt><trkpt lat="39.9378386" lon="8.5717928"><ele>10.0</ele><time>2026-04-30T15:52:35.699Z</time></trkpt><trkpt lat="39.9376829" lon="8.5718283"><ele>10.0</ele><time>2026-04-30T15:52:36.694Z</time></trkpt><trkpt lat="39.9375195" lon="8.5718566"><ele>10.0</ele><time>2026-04-30T15:52:37.691Z</time></trkpt><trkpt lat="39.9373594" lon="8.5718982"><ele>10.666666666666668</ele><time>2026-04-30T15:52:38.694Z</time></trkpt><trkpt lat="39.937196" lon="8.5719525"><ele>11.333333333333334</ele><time>2026-04-30T15:52:39.694Z</time></trkpt><trkpt lat="39.93704" lon="8.5720242"><ele>12.0</ele><time>2026-04-30T15:52:40.693Z</time></trkpt><trkpt lat="39.9368956" lon="8.5721109"><ele>12.0</ele><time>2026-04-30T15:52:41.694Z</time></trkpt><trkpt lat="39.9367611" lon="8.572208"><ele>12.0</ele><time>2026-04-30T15:52:42.691Z</time></trkpt><trkpt lat="39.9366398" lon="8.5723113"><ele>12.0</ele><time>2026-04-30T15:52:43.693Z</time></trkpt><trkpt lat="39.9365153" lon="8.5724157"><ele>12.0</ele><time>2026-04-30T15:52:44.697Z</time></trkpt><trkpt lat="39.9363953" lon="8.5725157"><ele>12.25</ele><time>2026-04-30T15:52:45.694Z</time></trkpt><trkpt lat="39.9362754" lon="8.5726154"><ele>12.5</ele><time>2026-04-30T15:52:46.695Z</time></trkpt><trkpt lat="39.9361582" lon="8.5727157"><ele>12.75</ele><time>2026-04-30T15:52:47.69Z</time></trkpt><trkpt lat="39.9360448" lon="8.572817"><ele>13.0</ele><time>2026-04-30T15:52:48.689Z</time></trkpt><trkpt lat="39.9359451" lon="8.5728991"><ele>12.8</ele><time>2026-04-30T15:52:49.692Z</time></trkpt><trkpt lat="39.9358572" lon="8.5729763"><ele>12.600000000000001</ele><time>2026-04-30T15:52:50.692Z</time></trkpt><trkpt lat="39.9357804" lon="8.5730479"><ele>12.399999999999999</ele><time>2026-04-30T15:52:51.693Z</time></trkpt><trkpt lat="39.9356973" lon="8.5731167"><ele>12.2</ele><time>2026-04-30T15:52:52.693Z</time></trkpt><trkpt lat="39.9356273" lon="8.5731702"><ele>12.0</ele><time>2026-04-30T15:52:53.692Z</time></trkpt><trkpt lat="39.9355538" lon="8.573217"><ele>11.999999999999998</ele><time>2026-04-30T15:52:54.693Z</time></trkpt><trkpt lat="39.9354804" lon="8.5732431"><ele>12.0</ele><time>2026-04-30T15:52:55.695Z</time></trkpt><trkpt lat="39.9354038" lon="8.5732498"><ele>12.0</ele><time>2026-04-30T15:52:56.693Z</time></trkpt><trkpt lat="39.9353246" lon="8.5732298"><ele>12.0</ele><time>2026-04-30T15:52:57.692Z</time></trkpt><trkpt lat="39.9352478" lon="8.5732025"><ele>12.0</ele><time>2026-04-30T15:52:58.692Z</time></trkpt><trkpt lat="39.9351827" lon="8.5731763"><ele>11.999999999999998</ele><time>2026-04-30T15:52:59.694Z</time></trkpt><trkpt lat="39.9351165" lon="8.5731594"><ele>12.0</ele><time>2026-04-30T15:53:00.694Z</time></trkpt><trkpt lat="39.9350484" lon="8.5731425"><ele>11.6</ele><time>2026-04-30T15:53:01.693Z</time></trkpt><trkpt lat="39.9349156" lon="8.5731176"><ele>11.2</ele><time>2026-04-30T15:53:03.691Z</time></trkpt><trkpt lat="39.9348412" lon="8.5730933"><ele>10.8</ele><time>2026-04-30T15:53:04.695Z</time></trkpt><trkpt lat="39.9347618" lon="8.5730728"><ele>10.4</ele><time>2026-04-30T15:53:05.691Z</time></trkpt><trkpt lat="39.9346705" lon="8.5730573"><ele>10.0</ele><time>2026-04-30T15:53:06.691Z</time></trkpt><trkpt lat="39.9345828" lon="8.5730257"><ele>10.0</ele><time>2026-04-30T15:53:07.69Z</time></trkpt><trkpt lat="39.9344901" lon="8.5729904"><ele>10.0</ele><time>2026-04-30T15:53:08.697Z</time></trkpt><trkpt lat="39.9343861" lon="8.5729599"><ele>10.0</ele><time>2026-04-30T15:53:09.695Z</time></trkpt><trkpt lat="39.9343007" lon="8.5729295"><ele>10.0</ele><time>2026-04-30T15:53:10.691Z</time></trkpt><trkpt lat="39.9341993" lon="8.5729049"><ele>10.0</ele><time>2026-04-30T15:53:11.693Z</time></trkpt><trkpt lat="39.9341093" lon="8.5728796"><ele>9.833333333333334</ele><time>2026-04-30T15:53:12.689Z</time></trkpt><trkpt lat="39.9340242" lon="8.5728641"><ele>9.666666666666668</ele><time>2026-04-30T15:53:13.692Z</time></trkpt><trkpt lat="39.9339438" lon="8.5728656"><ele>9.5</ele><time>2026-04-30T15:53:14.693Z</time></trkpt><trkpt lat="39.9338698" lon="8.5728787"><ele>9.333333333333334</ele><time>2026-04-30T15:53:15.69Z</time></trkpt><trkpt lat="39.9337934" lon="8.5728985"><ele>9.166666666666666</ele><time>2026-04-30T15:53:16.695Z</time></trkpt><trkpt lat="39.9337303" lon="8.5729234"><ele>9.0</ele><time>2026-04-30T15:53:17.691Z</time></trkpt><trkpt lat="39.9336075" lon="8.5729915"><ele>9.0</ele><time>2026-04-30T15:53:19.691Z</time></trkpt><trkpt lat="39.9335375" lon="8.5730284"><ele>9.0</ele><time>2026-04-30T15:53:20.694Z</time></trkpt><trkpt lat="39.9334672" lon="8.5730686"><ele>9.0</ele><time>2026-04-30T15:53:21.689Z</time></trkpt><trkpt lat="39.9334016" lon="8.5731154"><ele>9.0</ele><time>2026-04-30T15:53:22.696Z</time></trkpt><trkpt lat="39.9333379" lon="8.5731548"><ele>9.0</ele><time>2026-04-30T15:53:23.693Z</time></trkpt><trkpt lat="39.933229" lon="8.5732243"><ele>9.0</ele><time>2026-04-30T15:53:25.694Z</time></trkpt><trkpt lat="39.9331567" lon="8.5732757"><ele>9.166666666666666</ele><time>2026-04-30T15:53:27.689Z</time></trkpt><trkpt lat="39.9330989" lon="8.5733142"><ele>9.333333333333334</ele><time>2026-04-30T15:53:30.691Z</time></trkpt><trkpt lat="39.9330135" lon="8.5733886"><ele>9.5</ele><time>2026-04-30T15:57:05.692Z</time></trkpt><trkpt lat="39.9329487" lon="8.573439"><ele>9.666666666666668</ele><time>2026-04-30T15:57:06.698Z</time></trkpt><trkpt lat="39.9328844" lon="8.5734885"><ele>9.833333333333334</ele><time>2026-04-30T15:57:07.686Z</time></trkpt><trkpt lat="39.9328167" lon="8.5735425"><ele>10.0</ele><time>2026-04-30T15:57:08.693Z</time></trkpt><trkpt lat="39.9327512" lon="8.5736006"><ele>10.0</ele><time>2026-04-30T15:57:09.69Z</time></trkpt><trkpt lat="39.9326817" lon="8.5736649"><ele>10.0</ele><time>2026-04-30T15:57:10.689Z</time></trkpt><trkpt lat="39.9326158" lon="8.5737331"><ele>10.0</ele><time>2026-04-30T15:57:11.69Z</time></trkpt><trkpt lat="39.9325461" lon="8.5738076"><ele>10.0</ele><time>2026-04-30T15:57:12.694Z</time></trkpt><trkpt lat="39.9324729" lon="8.5738786"><ele>10.0</ele><time>2026-04-30T15:57:13.691Z</time></trkpt><trkpt lat="39.9323968" lon="8.5739577"><ele>10.0</ele><time>2026-04-30T15:57:14.691Z</time></trkpt><trkpt lat="39.9323085" lon="8.574045"><ele>10.25</ele><time>2026-04-30T15:57:15.689Z</time></trkpt><trkpt lat="39.9322099" lon="8.5741233"><ele>10.5</ele><time>2026-04-30T15:57:16.694Z</time></trkpt><trkpt lat="39.9321" lon="8.5742049"><ele>10.75</ele><time>2026-04-30T15:57:17.69Z</time></trkpt><trkpt lat="39.9319861" lon="8.5742781"><ele>11.0</ele><time>2026-04-30T15:57:18.693Z</time></trkpt><trkpt lat="39.9318659" lon="8.5743542"><ele>11.0</ele><time>2026-04-30T15:57:19.693Z</time></trkpt><trkpt lat="39.931742" lon="8.5744291"><ele>11.0</ele><time>2026-04-30T15:57:20.691Z</time></trkpt><trkpt lat="39.9316093" lon="8.5745029"><ele>11.0</ele><time>2026-04-30T15:57:21.691Z</time></trkpt><trkpt lat="39.9314717" lon="8.5745724"><ele>11.0</ele><time>2026-04-30T15:57:22.692Z</time></trkpt><trkpt lat="39.9313423" lon="8.5746376"><ele>10.75</ele><time>2026-04-30T15:57:23.69Z</time></trkpt><trkpt lat="39.9312168" lon="8.5747002"><ele>10.5</ele><time>2026-04-30T15:57:24.692Z</time></trkpt><trkpt lat="39.9310971" lon="8.5747636"><ele>10.25</ele><time>2026-04-30T15:57:25.698Z</time></trkpt><trkpt lat="39.9309748" lon="8.5748275"><ele>10.0</ele><time>2026-04-30T15:57:26.694Z</time></trkpt><trkpt lat="39.9308577" lon="8.5748986"><ele>10.0</ele><time>2026-04-30T15:57:27.695Z</time></trkpt><trkpt lat="39.9307339" lon="8.5749563"><ele>10.0</ele><time>2026-04-30T15:57:28.692Z</time></trkpt><trkpt lat="39.9306129" lon="8.5750198"><ele>10.0</ele><time>2026-04-30T15:57:29.693Z</time></trkpt><trkpt lat="39.9304949" lon="8.5750833"><ele>10.0</ele><time>2026-04-30T15:57:30.694Z</time></trkpt><trkpt lat="39.9303736" lon="8.5751462"><ele>10.0</ele><time>2026-04-30T15:57:31.691Z</time></trkpt><trkpt lat="39.9302552" lon="8.575208"><ele>10.0</ele><time>2026-04-30T15:57:32.691Z</time></trkpt><trkpt lat="39.9301356" lon="8.5752715"><ele>10.0</ele><time>2026-04-30T15:57:33.693Z</time></trkpt><trkpt lat="39.9300172" lon="8.5753327"><ele>10.0</ele><time>2026-04-30T15:57:34.694Z</time></trkpt><trkpt lat="39.9298912" lon="8.5753956"><ele>10.75</ele><time>2026-04-30T15:57:35.692Z</time></trkpt><trkpt lat="39.9297667" lon="8.5754651"><ele>11.5</ele><time>2026-04-30T15:57:36.694Z</time></trkpt><trkpt lat="39.9296348" lon="8.5755314"><ele>12.25</ele><time>2026-04-30T15:57:37.693Z</time></trkpt><trkpt lat="39.9295083" lon="8.5755932"><ele>13.0</ele><time>2026-04-30T15:57:38.696Z</time></trkpt><trkpt lat="39.929389" lon="8.5756525"><ele>13.0</ele><time>2026-04-30T15:57:39.695Z</time></trkpt><trkpt lat="39.9292674" lon="8.5757144"><ele>13.0</ele><time>2026-04-30T15:57:40.691Z</time></trkpt><trkpt lat="39.9291473" lon="8.5757837"><ele>13.0</ele><time>2026-04-30T15:57:41.692Z</time></trkpt><trkpt lat="39.9290314" lon="8.5758418"><ele>13.0</ele><time>2026-04-30T15:57:42.692Z</time></trkpt><trkpt lat="39.9289078" lon="8.5759074"><ele>13.0</ele><time>2026-04-30T15:57:43.692Z</time></trkpt><trkpt lat="39.9287965" lon="8.5759863"><ele>13.0</ele><time>2026-04-30T15:57:44.695Z</time></trkpt><trkpt lat="39.9286751" lon="8.5760694"><ele>13.0</ele><time>2026-04-30T15:57:45.691Z</time></trkpt><trkpt lat="39.928555" lon="8.5761582"><ele>13.0</ele><time>2026-04-30T15:57:46.691Z</time></trkpt><trkpt lat="39.928436" lon="8.5762524"><ele>12.5</ele><time>2026-04-30T15:57:47.695Z</time></trkpt><trkpt lat="39.9283174" lon="8.5763417"><ele>12.0</ele><time>2026-04-30T15:57:48.693Z</time></trkpt><trkpt lat="39.928206" lon="8.5764265"><ele>11.5</ele><time>2026-04-30T15:57:49.692Z</time></trkpt><trkpt lat="39.9281002" lon="8.5765013"><ele>11.0</ele><time>2026-04-30T15:57:50.692Z</time></trkpt><trkpt lat="39.9279957" lon="8.5765794"><ele>11.0</ele><time>2026-04-30T15:57:51.694Z</time></trkpt><trkpt lat="39.9278987" lon="8.5766503"><ele>11.0</ele><time>2026-04-30T15:57:52.693Z</time></trkpt><trkpt lat="39.9278119" lon="8.5767222"><ele>11.0</ele><time>2026-04-30T15:57:53.691Z</time></trkpt><trkpt lat="39.9277234" lon="8.5767943"><ele>11.0</ele><time>2026-04-30T15:57:54.693Z</time></trkpt><trkpt lat="39.9276435" lon="8.5768969"><ele>11.0</ele><time>2026-04-30T15:57:55.691Z</time></trkpt><trkpt lat="39.927557" lon="8.5769901"><ele>10.8</ele><time>2026-04-30T15:57:56.691Z</time></trkpt><trkpt lat="39.9274798" lon="8.5770876"><ele>10.600000000000001</ele><time>2026-04-30T15:57:57.692Z</time></trkpt><trkpt lat="39.9274125" lon="8.5771866"><ele>10.4</ele><time>2026-04-30T15:57:58.694Z</time></trkpt><trkpt lat="39.9273626" lon="8.5772779"><ele>10.2</ele><time>2026-04-30T15:57:59.693Z</time></trkpt><trkpt lat="39.9273216" lon="8.5773676"><ele>10.0</ele><time>2026-04-30T15:58:00.693Z</time></trkpt><trkpt lat="39.9272901" lon="8.5774564"><ele>10.0</ele><time>2026-04-30T15:58:01.692Z</time></trkpt><trkpt lat="39.9272652" lon="8.5775437"><ele>10.0</ele><time>2026-04-30T15:58:02.688Z</time></trkpt><trkpt lat="39.9272427" lon="8.5776326"><ele>10.0</ele><time>2026-04-30T15:58:03.694Z</time></trkpt><trkpt lat="39.9272235" lon="8.577718"><ele>10.0</ele><time>2026-04-30T15:58:04.69Z</time></trkpt><trkpt lat="39.9272017" lon="8.5778005"><ele>10.0</ele><time>2026-04-30T15:58:05.688Z</time></trkpt><trkpt lat="39.9271761" lon="8.5778773"><ele>10.0</ele><time>2026-04-30T15:58:06.691Z</time></trkpt><trkpt lat="39.9271295" lon="8.5780149"><ele>10.0</ele><time>2026-04-30T15:58:08.691Z</time></trkpt><trkpt lat="39.9270723" lon="8.5781234"><ele>10.0</ele><time>2026-04-30T15:58:10.697Z</time></trkpt><trkpt lat="39.9270206" lon="8.5781894"><ele>10.0</ele><time>2026-04-30T15:58:12.697Z</time></trkpt><trkpt lat="39.9269671" lon="8.5782399"><ele>10.0</ele><time>2026-04-30T15:58:25.691Z</time></trkpt><trkpt lat="39.9268609" lon="8.5783171"><ele>10.0</ele><time>2026-04-30T15:58:27.695Z</time></trkpt><trkpt lat="39.9267884" lon="8.578384"><ele>10.0</ele><time>2026-04-30T15:58:28.697Z</time></trkpt><trkpt lat="39.9267191" lon="8.5784656"><ele>10.0</ele><time>2026-04-30T15:58:29.695Z</time></trkpt><trkpt lat="39.9266443" lon="8.5785559"><ele>10.0</ele><time>2026-04-30T15:58:30.695Z</time></trkpt><trkpt lat="39.9265667" lon="8.5786457"><ele>10.0</ele><time>2026-04-30T15:58:31.693Z</time></trkpt><trkpt lat="39.9264739" lon="8.5787353"><ele>10.0</ele><time>2026-04-30T15:58:32.689Z</time></trkpt><trkpt lat="39.9263647" lon="8.5788186"><ele>9.666666666666668</ele><time>2026-04-30T15:58:33.698Z</time></trkpt><trkpt lat="39.9262363" lon="8.5789057"><ele>9.333333333333334</ele><time>2026-04-30T15:58:34.691Z</time></trkpt><trkpt lat="39.9260996" lon="8.5789874"><ele>9.0</ele><time>2026-04-30T15:58:35.692Z</time></trkpt><trkpt lat="39.9259565" lon="8.5790776"><ele>8.666666666666666</ele><time>2026-04-30T15:58:36.69Z</time></trkpt><trkpt lat="39.9258048" lon="8.5791722"><ele>8.333333333333332</ele><time>2026-04-30T15:58:37.69Z</time></trkpt><trkpt lat="39.9256708" lon="8.5792502"><ele>8.0</ele><time>2026-04-30T15:58:38.691Z</time></trkpt><trkpt lat="39.9255458" lon="8.5793188"><ele>8.0</ele><time>2026-04-30T15:58:39.69Z</time></trkpt><trkpt lat="39.9254187" lon="8.5793922"><ele>8.0</ele><time>2026-04-30T15:58:40.692Z</time></trkpt><trkpt lat="39.925291" lon="8.5794722"><ele>8.0</ele><time>2026-04-30T15:58:41.69Z</time></trkpt><trkpt lat="39.9251471" lon="8.5795559"><ele>8.0</ele><time>2026-04-30T15:58:42.69Z</time></trkpt><trkpt lat="39.9250004" lon="8.579638"><ele>7.333333333333333</ele><time>2026-04-30T15:58:43.689Z</time></trkpt><trkpt lat="39.9248486" lon="8.5797381"><ele>6.666666666666666</ele><time>2026-04-30T15:58:44.692Z</time></trkpt><trkpt lat="39.9246878" lon="8.5798359"><ele>6.0</ele><time>2026-04-30T15:58:45.691Z</time></trkpt><trkpt lat="39.9245153" lon="8.5799345"><ele>6.0</ele><time>2026-04-30T15:58:46.692Z</time></trkpt><trkpt lat="39.9243474" lon="8.5800374"><ele>6.0</ele><time>2026-04-30T15:58:47.688Z</time></trkpt><trkpt lat="39.9241706" lon="8.5801413"><ele>6.0</ele><time>2026-04-30T15:58:48.691Z</time></trkpt><trkpt lat="39.9239909" lon="8.5802495"><ele>5.666666666666667</ele><time>2026-04-30T15:58:49.689Z</time></trkpt><trkpt lat="39.923814" lon="8.5803535"><ele>5.333333333333334</ele><time>2026-04-30T15:58:50.696Z</time></trkpt><trkpt lat="39.9236375" lon="8.5804544"><ele>5.0</ele><time>2026-04-30T15:58:51.689Z</time></trkpt><trkpt lat="39.9234662" lon="8.5805631"><ele>5.666666666666667</ele><time>2026-04-30T15:58:52.695Z</time></trkpt><trkpt lat="39.9233027" lon="8.5806602"><ele>6.333333333333334</ele><time>2026-04-30T15:58:53.692Z</time></trkpt><trkpt lat="39.9231503" lon="8.5807488"><ele>7.0</ele><time>2026-04-30T15:58:54.688Z</time></trkpt><trkpt lat="39.9229915" lon="8.5808345"><ele>7.0</ele><time>2026-04-30T15:58:55.693Z</time></trkpt><trkpt lat="39.9228338" lon="8.5809221"><ele>7.0</ele><time>2026-04-30T15:58:56.689Z</time></trkpt><trkpt lat="39.9226727" lon="8.5810173"><ele>7.0</ele><time>2026-04-30T15:58:57.693Z</time></trkpt><trkpt lat="39.9225144" lon="8.5811029"><ele>6.666666666666667</ele><time>2026-04-30T15:58:58.694Z</time></trkpt><trkpt lat="39.9223599" lon="8.5811907"><ele>6.333333333333334</ele><time>2026-04-30T15:58:59.69Z</time></trkpt><trkpt lat="39.9221992" lon="8.5812753"><ele>6.0</ele><time>2026-04-30T15:59:00.69Z</time></trkpt><trkpt lat="39.9220398" lon="8.5813603"><ele>6.0</ele><time>2026-04-30T15:59:01.7Z</time></trkpt><trkpt lat="39.9218891" lon="8.5814515"><ele>6.0</ele><time>2026-04-30T15:59:02.698Z</time></trkpt><trkpt lat="39.9217367" lon="8.5815311"><ele>6.0</ele><time>2026-04-30T15:59:03.692Z</time></trkpt><trkpt lat="39.9215839" lon="8.5816188"><ele>5.75</ele><time>2026-04-30T15:59:04.693Z</time></trkpt><trkpt lat="39.9214436" lon="8.5816922"><ele>5.5</ele><time>2026-04-30T15:59:05.694Z</time></trkpt><trkpt lat="39.9213008" lon="8.5817657"><ele>5.25</ele><time>2026-04-30T15:59:06.692Z</time></trkpt><trkpt lat="39.9211735" lon="8.5818373"><ele>5.0</ele><time>2026-04-30T15:59:07.692Z</time></trkpt><trkpt lat="39.9210469" lon="8.5818974"><ele>5.0</ele><time>2026-04-30T15:59:08.692Z</time></trkpt><trkpt lat="39.9209244" lon="8.5819602"><ele>5.0</ele><time>2026-04-30T15:59:09.69Z</time></trkpt><trkpt lat="39.9208086" lon="8.5820261"><ele>5.0</ele><time>2026-04-30T15:59:10.692Z</time></trkpt><trkpt lat="39.9206898" lon="8.582088"><ele>5.0</ele><time>2026-04-30T15:59:11.692Z</time></trkpt><trkpt lat="39.9205639" lon="8.5821581"><ele>5.25</ele><time>2026-04-30T15:59:12.694Z</time></trkpt><trkpt lat="39.9204366" lon="8.5822277"><ele>5.5</ele><time>2026-04-30T15:59:13.692Z</time></trkpt><trkpt lat="39.9203042" lon="8.5823017"><ele>5.75</ele><time>2026-04-30T15:59:14.698Z</time></trkpt><trkpt lat="39.9201643" lon="8.5823769"><ele>6.0</ele><time>2026-04-30T15:59:15.697Z</time></trkpt><trkpt lat="39.920021" lon="8.5824512"><ele>6.0</ele><time>2026-04-30T15:59:16.696Z</time></trkpt><trkpt lat="39.9198713" lon="8.5825333"><ele>6.0</ele><time>2026-04-30T15:59:17.689Z</time></trkpt><trkpt lat="39.9197267" lon="8.5826124"><ele>6.0</ele><time>2026-04-30T15:59:18.692Z</time></trkpt><trkpt lat="39.9195719" lon="8.5826975"><ele>6.0</ele><time>2026-04-30T15:59:19.691Z</time></trkpt><trkpt lat="39.9194198" lon="8.5827825"><ele>6.0</ele><time>2026-04-30T15:59:20.692Z</time></trkpt><trkpt lat="39.9192575" lon="8.5828699"><ele>6.0</ele><time>2026-04-30T15:59:21.694Z</time></trkpt><trkpt lat="39.9190985" lon="8.5829615"><ele>5.333333333333333</ele><time>2026-04-30T15:59:22.692Z</time></trkpt><trkpt lat="39.9189345" lon="8.5830464"><ele>4.666666666666666</ele><time>2026-04-30T15:59:23.691Z</time></trkpt><trkpt lat="39.9187788" lon="8.5831317"><ele>4.0</ele><time>2026-04-30T15:59:24.695Z</time></trkpt><trkpt lat="39.9186167" lon="8.5832176"><ele>4.0</ele><time>2026-04-30T15:59:25.697Z</time></trkpt><trkpt lat="39.9184551" lon="8.5833068"><ele>4.0</ele><time>2026-04-30T15:59:26.692Z</time></trkpt><trkpt lat="39.918301" lon="8.5833882"><ele>4.0</ele><time>2026-04-30T15:59:27.691Z</time></trkpt><trkpt lat="39.9181519" lon="8.5834723"><ele>4.25</ele><time>2026-04-30T15:59:28.693Z</time></trkpt><trkpt lat="39.9180116" lon="8.5835475"><ele>4.5</ele><time>2026-04-30T15:59:29.695Z</time></trkpt><trkpt lat="39.9178796" lon="8.5836219"><ele>4.75</ele><time>2026-04-30T15:59:30.694Z</time></trkpt><trkpt lat="39.9177545" lon="8.5836856"><ele>5.0</ele><time>2026-04-30T15:59:31.693Z</time></trkpt><trkpt lat="39.9176394" lon="8.5837446"><ele>5.2</ele><time>2026-04-30T15:59:32.693Z</time></trkpt><trkpt lat="39.9175362" lon="8.5838007"><ele>5.4</ele><time>2026-04-30T15:59:33.693Z</time></trkpt><trkpt lat="39.9174352" lon="8.5838559"><ele>5.6</ele><time>2026-04-30T15:59:34.692Z</time></trkpt><trkpt lat="39.9173428" lon="8.5839147"><ele>5.8</ele><time>2026-04-30T15:59:35.691Z</time></trkpt><trkpt lat="39.9172516" lon="8.5839686"><ele>6.0</ele><time>2026-04-30T15:59:36.689Z</time></trkpt><trkpt lat="39.917153" lon="8.5840302"><ele>6.0</ele><time>2026-04-30T15:59:37.691Z</time></trkpt><trkpt lat="39.9170552" lon="8.5841042"><ele>6.0</ele><time>2026-04-30T15:59:38.698Z</time></trkpt><trkpt lat="39.9169494" lon="8.5841797"><ele>6.0</ele><time>2026-04-30T15:59:39.69Z</time></trkpt><trkpt lat="39.9168387" lon="8.5842611"><ele>6.0</ele><time>2026-04-30T15:59:40.69Z</time></trkpt><trkpt lat="39.9167269" lon="8.5843394"><ele>6.0</ele><time>2026-04-30T15:59:41.694Z</time></trkpt><trkpt lat="39.9166147" lon="8.5844111"><ele>6.0</ele><time>2026-04-30T15:59:42.692Z</time></trkpt><trkpt lat="39.9165078" lon="8.5844804"><ele>6.0</ele><time>2026-04-30T15:59:43.693Z</time></trkpt><trkpt lat="39.9164125" lon="8.5845497"><ele>6.0</ele><time>2026-04-30T15:59:44.693Z</time></trkpt><trkpt lat="39.9163131" lon="8.5846179"><ele>6.0</ele><time>2026-04-30T15:59:45.695Z</time></trkpt><trkpt lat="39.9162182" lon="8.5846846"><ele>6.0</ele><time>2026-04-30T15:59:46.693Z</time></trkpt><trkpt lat="39.916122" lon="8.5847488"><ele>6.0</ele><time>2026-04-30T15:59:47.692Z</time></trkpt><trkpt lat="39.916027" lon="8.584809"><ele>6.0</ele><time>2026-04-30T15:59:48.694Z</time></trkpt><trkpt lat="39.9159289" lon="8.5848747"><ele>6.0</ele><time>2026-04-30T15:59:49.692Z</time></trkpt><trkpt lat="39.9158218" lon="8.5849417"><ele>6.25</ele><time>2026-04-30T15:59:50.693Z</time></trkpt><trkpt lat="39.9157117" lon="8.5850049"><ele>6.5</ele><time>2026-04-30T15:59:51.692Z</time></trkpt><trkpt lat="39.9156011" lon="8.5850681"><ele>6.75</ele><time>2026-04-30T15:59:52.693Z</time></trkpt><trkpt lat="39.9155033" lon="8.58513"><ele>7.0</ele><time>2026-04-30T15:59:53.691Z</time></trkpt><trkpt lat="39.9154065" lon="8.5851955"><ele>7.000000000000001</ele><time>2026-04-30T15:59:54.692Z</time></trkpt><trkpt lat="39.9153143" lon="8.5852543"><ele>7.0</ele><time>2026-04-30T15:59:55.693Z</time></trkpt><trkpt lat="39.9152371" lon="8.5853039"><ele>7.0</ele><time>2026-04-30T15:59:56.694Z</time></trkpt><trkpt lat="39.9151739" lon="8.585342"><ele>7.0</ele><time>2026-04-30T15:59:57.693Z</time></trkpt><trkpt lat="39.9150823" lon="8.5853934"><ele>7.000000000000001</ele><time>2026-04-30T15:59:59.692Z</time></trkpt><trkpt lat="39.9150089" lon="8.5854262"><ele>7.0</ele><time>2026-04-30T16:00:01.688Z</time></trkpt><trkpt lat="39.9149079" lon="8.5854655"><ele>7.166666666666667</ele><time>2026-04-30T16:00:03.704Z</time></trkpt><trkpt lat="39.9148089" lon="8.5854799"><ele>7.333333333333334</ele><time>2026-04-30T16:00:05.694Z</time></trkpt><trkpt lat="39.9147319" lon="8.5855311"><ele>7.5</ele><time>2026-04-30T16:00:08.698Z</time></trkpt><trkpt lat="39.9146808" lon="8.5855891"><ele>7.666666666666666</ele><time>2026-04-30T16:00:10.699Z</time></trkpt><trkpt lat="39.914617" lon="8.5856471"><ele>7.833333333333333</ele><time>2026-04-30T16:00:12.688Z</time></trkpt><trkpt lat="39.9145543" lon="8.5856922"><ele>8.0</ele><time>2026-04-30T16:00:14.69Z</time></trkpt><trkpt lat="39.9144805" lon="8.5857481"><ele>7.999999999999999</ele><time>2026-04-30T16:00:16.693Z</time></trkpt><trkpt lat="39.9143754" lon="8.5858213"><ele>8.0</ele><time>2026-04-30T16:00:18.695Z</time></trkpt><trkpt lat="39.9143042" lon="8.5858646"><ele>8.0</ele><time>2026-04-30T16:00:19.69Z</time></trkpt><trkpt lat="39.9142334" lon="8.5859074"><ele>8.0</ele><time>2026-04-30T16:00:20.695Z</time></trkpt><trkpt lat="39.9141622" lon="8.5859547"><ele>7.999999999999999</ele><time>2026-04-30T16:00:21.691Z</time></trkpt><trkpt lat="39.914093" lon="8.586"><ele>8.0</ele><time>2026-04-30T16:00:22.696Z</time></trkpt><trkpt lat="39.9140204" lon="8.5860428"><ele>7.833333333333333</ele><time>2026-04-30T16:00:23.694Z</time></trkpt><trkpt lat="39.9139473" lon="8.5860923"><ele>7.666666666666666</ele><time>2026-04-30T16:00:24.693Z</time></trkpt><trkpt lat="39.9138706" lon="8.5861398"><ele>7.5</ele><time>2026-04-30T16:00:25.692Z</time></trkpt><trkpt lat="39.9138018" lon="8.5861826"><ele>7.333333333333334</ele><time>2026-04-30T16:00:26.695Z</time></trkpt><trkpt lat="39.9137274" lon="8.5862365"><ele>7.166666666666667</ele><time>2026-04-30T16:00:27.69Z</time></trkpt><trkpt lat="39.9136578" lon="8.58628"><ele>7.0</ele><time>2026-04-30T16:00:28.693Z</time></trkpt><trkpt lat="39.9135888" lon="8.5863279"><ele>6.833333333333334</ele><time>2026-04-30T16:00:29.693Z</time></trkpt><trkpt lat="39.9135216" lon="8.5863727"><ele>6.666666666666667</ele><time>2026-04-30T16:00:30.694Z</time></trkpt><trkpt lat="39.9134515" lon="8.5864206"><ele>6.5</ele><time>2026-04-30T16:00:31.691Z</time></trkpt><trkpt lat="39.9133774" lon="8.5864682"><ele>6.333333333333334</ele><time>2026-04-30T16:00:32.692Z</time></trkpt><trkpt lat="39.9132978" lon="8.5865137"><ele>6.166666666666667</ele><time>2026-04-30T16:00:33.695Z</time></trkpt><trkpt lat="39.9132196" lon="8.5865607"><ele>6.0</ele><time>2026-04-30T16:00:34.694Z</time></trkpt><trkpt lat="39.9131452" lon="8.58661"><ele>6.0</ele><time>2026-04-30T16:00:35.694Z</time></trkpt><trkpt lat="39.9130703" lon="8.5866504"><ele>6.0</ele><time>2026-04-30T16:00:36.69Z</time></trkpt><trkpt lat="39.9130063" lon="8.586691"><ele>6.0</ele><time>2026-04-30T16:00:37.69Z</time></trkpt><trkpt lat="39.9129403" lon="8.5867372"><ele>6.0</ele><time>2026-04-30T16:00:38.692Z</time></trkpt><trkpt lat="39.912866" lon="8.5867768"><ele>6.0</ele><time>2026-04-30T16:00:39.687Z</time></trkpt><trkpt lat="39.9127951" lon="8.5868243"><ele>6.0</ele><time>2026-04-30T16:00:40.691Z</time></trkpt><trkpt lat="39.9127168" lon="8.5868716"><ele>6.0</ele><time>2026-04-30T16:00:41.692Z</time></trkpt><trkpt lat="39.9126379" lon="8.5869187"><ele>6.0</ele><time>2026-04-30T16:00:42.693Z</time></trkpt><trkpt lat="39.9125665" lon="8.5869827"><ele>6.0</ele><time>2026-04-30T16:00:43.695Z</time></trkpt><trkpt lat="39.9124887" lon="8.5870236"><ele>6.0</ele><time>2026-04-30T16:00:44.692Z</time></trkpt><trkpt lat="39.9124306" lon="8.5870583"><ele>6.0</ele><time>2026-04-30T16:00:45.697Z</time></trkpt><trkpt lat="39.9123421" lon="8.5871111"><ele>6.0</ele><time>2026-04-30T16:00:47.694Z</time></trkpt><trkpt lat="39.9122679" lon="8.5871498"><ele>6.199999999999999</ele><time>2026-04-30T16:00:51.693Z</time></trkpt><trkpt lat="39.9121886" lon="8.5871849"><ele>6.3999999999999995</ele><time>2026-04-30T16:01:01.694Z</time></trkpt><trkpt lat="39.9120613" lon="8.5872319"><ele>6.6</ele><time>2026-04-30T16:01:03.69Z</time></trkpt><trkpt lat="39.9119815" lon="8.5872873"><ele>6.8</ele><time>2026-04-30T16:01:04.694Z</time></trkpt><trkpt lat="39.9118982" lon="8.5873557"><ele>7.0</ele><time>2026-04-30T16:01:05.692Z</time></trkpt><trkpt lat="39.9118046" lon="8.5874348"><ele>6.75</ele><time>2026-04-30T16:01:06.689Z</time></trkpt><trkpt lat="39.9116979" lon="8.5875025"><ele>6.5</ele><time>2026-04-30T16:01:07.694Z</time></trkpt><trkpt lat="39.9115875" lon="8.587574"><ele>6.25</ele><time>2026-04-30T16:01:08.691Z</time></trkpt><trkpt lat="39.9114705" lon="8.5876472"><ele>6.0</ele><time>2026-04-30T16:01:09.688Z</time></trkpt><trkpt lat="39.9113489" lon="8.5877295"><ele>6.0</ele><time>2026-04-30T16:01:10.695Z</time></trkpt><trkpt lat="39.91124" lon="8.5877982"><ele>6.0</ele><time>2026-04-30T16:01:11.691Z</time></trkpt><trkpt lat="39.9111258" lon="8.5878709"><ele>6.0</ele><time>2026-04-30T16:01:12.694Z</time></trkpt><trkpt lat="39.911007" lon="8.5879389"><ele>6.0</ele><time>2026-04-30T16:01:13.694Z</time></trkpt><trkpt lat="39.9108956" lon="8.5880017"><ele>6.4</ele><time>2026-04-30T16:01:14.694Z</time></trkpt><trkpt lat="39.9107834" lon="8.58806"><ele>6.8</ele><time>2026-04-30T16:01:15.693Z</time></trkpt><trkpt lat="39.9106793" lon="8.5881189"><ele>7.200000000000001</ele><time>2026-04-30T16:01:16.692Z</time></trkpt><trkpt lat="39.91059" lon="8.5881749"><ele>7.6000000000000005</ele><time>2026-04-30T16:01:17.689Z</time></trkpt><trkpt lat="39.9105189" lon="8.5882164"><ele>8.0</ele><time>2026-04-30T16:01:18.694Z</time></trkpt><trkpt lat="39.9104503" lon="8.5882441"><ele>8.0</ele><time>2026-04-30T16:01:19.7Z</time></trkpt><trkpt lat="39.9103886" lon="8.5882625"><ele>8.0</ele><time>2026-04-30T16:01:20.691Z</time></trkpt><trkpt lat="39.9102766" lon="8.5882884"><ele>8.0</ele><time>2026-04-30T16:01:22.688Z</time></trkpt><trkpt lat="39.9101736" lon="8.5883019"><ele>8.0</ele><time>2026-04-30T16:01:24.698Z</time></trkpt><trkpt lat="39.9100707" lon="8.5883128"><ele>8.0</ele><time>2026-04-30T16:01:26.691Z</time></trkpt><trkpt lat="39.909965" lon="8.5883307"><ele>7.666666666666666</ele><time>2026-04-30T16:01:28.693Z</time></trkpt><trkpt lat="39.9098969" lon="8.588336"><ele>7.333333333333333</ele><time>2026-04-30T16:01:29.689Z</time></trkpt><trkpt lat="39.9098294" lon="8.5883395"><ele>7.0</ele><time>2026-04-30T16:01:30.689Z</time></trkpt><trkpt lat="39.9097643" lon="8.5883528"><ele>6.666666666666666</ele><time>2026-04-30T16:01:31.693Z</time></trkpt><trkpt lat="39.9096452" lon="8.5883634"><ele>6.333333333333333</ele><time>2026-04-30T16:01:33.693Z</time></trkpt><trkpt lat="39.9095286" lon="8.5883661"><ele>6.0</ele><time>2026-04-30T16:01:35.69Z</time></trkpt><trkpt lat="39.9094028" lon="8.5883731"><ele>6.0</ele><time>2026-04-30T16:01:37.69Z</time></trkpt><trkpt lat="39.9093295" lon="8.5883762"><ele>6.0</ele><time>2026-04-30T16:01:38.693Z</time></trkpt><trkpt lat="39.9092535" lon="8.5883697"><ele>6.0</ele><time>2026-04-30T16:01:39.691Z</time></trkpt><trkpt lat="39.9091703" lon="8.5883698"><ele>6.0</ele><time>2026-04-30T16:01:40.69Z</time></trkpt><trkpt lat="39.9090867" lon="8.5883741"><ele>6.0</ele><time>2026-04-30T16:01:41.692Z</time></trkpt><trkpt lat="39.9090116" lon="8.5883791"><ele>6.0</ele><time>2026-04-30T16:01:42.689Z</time></trkpt><trkpt lat="39.9089257" lon="8.5883767"><ele>6.166666666666667</ele><time>2026-04-30T16:01:43.694Z</time></trkpt><trkpt lat="39.9088401" lon="8.5883827"><ele>6.333333333333334</ele><time>2026-04-30T16:01:44.693Z</time></trkpt><trkpt lat="39.9087572" lon="8.5883787"><ele>6.5</ele><time>2026-04-30T16:01:45.689Z</time></trkpt><trkpt lat="39.90867" lon="8.5883796"><ele>6.666666666666667</ele><time>2026-04-30T16:01:46.691Z</time></trkpt><trkpt lat="39.9085873" lon="8.5883806"><ele>6.833333333333334</ele><time>2026-04-30T16:01:47.695Z</time></trkpt><trkpt lat="39.9085085" lon="8.5883776"><ele>7.0</ele><time>2026-04-30T16:01:48.693Z</time></trkpt><trkpt lat="39.9084327" lon="8.588385"><ele>7.0</ele><time>2026-04-30T16:01:49.688Z</time></trkpt><trkpt lat="39.9083654" lon="8.5883749"><ele>7.0</ele><time>2026-04-30T16:01:50.691Z</time></trkpt><trkpt lat="39.9082954" lon="8.5883717"><ele>7.0</ele><time>2026-04-30T16:01:51.695Z</time></trkpt><trkpt lat="39.9082259" lon="8.588373"><ele>7.0</ele><time>2026-04-30T16:01:52.694Z</time></trkpt><trkpt lat="39.9081532" lon="8.5883761"><ele>7.0</ele><time>2026-04-30T16:01:53.69Z</time></trkpt><trkpt lat="39.908061" lon="8.5883718"><ele>7.0</ele><time>2026-04-30T16:02:42.691Z</time></trkpt><trkpt lat="39.9079901" lon="8.5883706"><ele>7.0</ele><time>2026-04-30T16:02:44.691Z</time></trkpt><trkpt lat="39.9079205" lon="8.5883308"><ele>7.0</ele><time>2026-04-30T16:02:46.693Z</time></trkpt><trkpt lat="39.9078677" lon="8.5882459"><ele>6.999999999999999</ele><time>2026-04-30T16:02:48.692Z</time></trkpt><trkpt lat="39.9078064" lon="8.5880943"><ele>6.999999999999999</ele><time>2026-04-30T16:02:50.696Z</time></trkpt><trkpt lat="39.9077608" lon="8.5880172"><ele>7.0</ele><time>2026-04-30T16:02:51.691Z</time></trkpt><trkpt lat="39.9077125" lon="8.5879452"><ele>7.0</ele><time>2026-04-30T16:02:52.691Z</time></trkpt><trkpt lat="39.907632" lon="8.5878902"><ele>7.0</ele><time>2026-04-30T16:02:53.691Z</time></trkpt><trkpt lat="39.9075455" lon="8.587822"><ele>7.0</ele><time>2026-04-30T16:02:54.69Z</time></trkpt><trkpt lat="39.907447" lon="8.5877388"><ele>7.0</ele><time>2026-04-30T16:02:55.693Z</time></trkpt><trkpt lat="39.9073448" lon="8.5876668"><ele>7.0</ele><time>2026-04-30T16:02:56.692Z</time></trkpt><trkpt lat="39.9072252" lon="8.5875883"><ele>7.0</ele><time>2026-04-30T16:02:57.69Z</time></trkpt><trkpt lat="39.9071009" lon="8.5874978"><ele>7.0</ele><time>2026-04-30T16:02:58.69Z</time></trkpt><trkpt lat="39.9069727" lon="8.5874065"><ele>7.0</ele><time>2026-04-30T16:02:59.69Z</time></trkpt><trkpt lat="39.9068396" lon="8.587318"><ele>7.0</ele><time>2026-04-30T16:03:00.691Z</time></trkpt><trkpt lat="39.9067159" lon="8.5872359"><ele>7.166666666666667</ele><time>2026-04-30T16:03:01.692Z</time></trkpt><trkpt lat="39.9066201" lon="8.5871696"><ele>7.333333333333334</ele><time>2026-04-30T16:03:02.692Z</time></trkpt><trkpt lat="39.9065404" lon="8.5871133"><ele>7.5</ele><time>2026-04-30T16:03:03.695Z</time></trkpt><trkpt lat="39.9064818" lon="8.5870764"><ele>7.666666666666666</ele><time>2026-04-30T16:03:04.695Z</time></trkpt><trkpt lat="39.9064101" lon="8.587013"><ele>7.833333333333333</ele><time>2026-04-30T16:03:50.687Z</time></trkpt><trkpt lat="39.9063538" lon="8.586976"><ele>8.0</ele><time>2026-04-30T16:03:51.691Z</time></trkpt><trkpt lat="39.9062754" lon="8.5869277"><ele>8.0</ele><time>2026-04-30T16:03:52.69Z</time></trkpt><trkpt lat="39.9061823" lon="8.5868832"><ele>8.0</ele><time>2026-04-30T16:03:53.692Z</time></trkpt><trkpt lat="39.9060844" lon="8.5868471"><ele>8.0</ele><time>2026-04-30T16:03:54.697Z</time></trkpt><trkpt lat="39.9059434" lon="8.5868408"><ele>8.0</ele><time>2026-04-30T16:03:55.696Z</time></trkpt><trkpt lat="39.9057999" lon="8.5868224"><ele>7.6000000000000005</ele><time>2026-04-30T16:03:56.692Z</time></trkpt><trkpt lat="39.905665" lon="8.5868111"><ele>7.200000000000001</ele><time>2026-04-30T16:03:57.691Z</time></trkpt><trkpt lat="39.905549" lon="8.5868001"><ele>6.8</ele><time>2026-04-30T16:03:58.694Z</time></trkpt><trkpt lat="39.9054595" lon="8.5867954"><ele>6.4</ele><time>2026-04-30T16:03:59.696Z</time></trkpt><trkpt lat="39.9053862" lon="8.5867921"><ele>6.0</ele><time>2026-04-30T16:04:00.694Z</time></trkpt><trkpt lat="39.9053249" lon="8.5867469"><ele>6.0</ele><time>2026-04-30T16:04:02.694Z</time></trkpt><trkpt lat="39.9053056" lon="8.5866493"><ele>6.0</ele><time>2026-04-30T16:04:04.69Z</time></trkpt><trkpt lat="39.9053265" lon="8.586539"><ele>6.0</ele><time>2026-04-30T16:04:06.665Z</time></trkpt><trkpt lat="39.905329" lon="8.5864492"><ele>6.0</ele><time>2026-04-30T16:04:07.66Z</time></trkpt><trkpt lat="39.9053359" lon="8.5863616"><ele>6.0</ele><time>2026-04-30T16:04:08.663Z</time></trkpt><trkpt lat="39.9053546" lon="8.5861852"><ele>6.0</ele><time>2026-04-30T16:04:10.689Z</time></trkpt><trkpt lat="39.9053709" lon="8.5860258"><ele>5.8</ele><time>2026-04-30T16:04:12.693Z</time></trkpt><trkpt lat="39.905373" lon="8.5858769"><ele>5.6</ele><time>2026-04-30T16:04:14.694Z</time></trkpt><trkpt lat="39.9053642" lon="8.5857531"><ele>5.4</ele><time>2026-04-30T16:04:16.693Z</time></trkpt><trkpt lat="39.9052914" lon="8.5856966"><ele>5.2</ele><time>2026-04-30T16:04:19.697Z</time></trkpt><trkpt lat="39.9051975" lon="8.5856875"><ele>5.0</ele><time>2026-04-30T16:04:22.665Z</time></trkpt><trkpt lat="39.9051187" lon="8.5856802"><ele>5.333333333333334</ele><time>2026-04-30T16:04:24.663Z</time></trkpt><trkpt lat="39.9050295" lon="8.585668"><ele>5.666666666666667</ele><time>2026-04-30T16:04:26.659Z</time></trkpt><trkpt lat="39.9049327" lon="8.5856528"><ele>6.0</ele><time>2026-04-30T16:04:28.658Z</time></trkpt><trkpt lat="39.9048449" lon="8.5856468"><ele>6.333333333333334</ele><time>2026-04-30T16:04:30.659Z</time></trkpt><trkpt lat="39.9047669" lon="8.5856848"><ele>6.666666666666667</ele><time>2026-04-30T16:04:32.659Z</time></trkpt><trkpt lat="39.9047395" lon="8.585794"><ele>7.0</ele><time>2026-04-30T16:04:35.659Z</time></trkpt><trkpt lat="39.9047383" lon="8.5858941"><ele>7.0</ele><time>2026-04-30T16:04:38.659Z</time></trkpt><trkpt lat="39.9047403" lon="8.5859882"><ele>7.0</ele><time>2026-04-30T16:04:49.659Z</time></trkpt><trkpt lat="39.9047336" lon="8.5860756"><ele>7.0</ele><time>2026-04-30T16:04:51.659Z</time></trkpt><trkpt lat="39.9047213" lon="8.5861722"><ele>7.0</ele><time>2026-04-30T16:04:54.659Z</time></trkpt><trkpt lat="39.9047435" lon="8.5860934"><ele>7.0</ele><time>2026-04-30T16:05:32.659Z</time></trkpt><trkpt lat="39.9047056" lon="8.5860207"><ele>7.0</ele><time>2026-04-30T16:08:10.694Z</time></trkpt><trkpt lat="39.9046798" lon="8.585945"><ele>7.0</ele><time>2026-04-30T16:10:01.693Z</time></trkpt><trkpt lat="39.9046254" lon="8.5859025"><ele>7.0</ele><time>2026-04-30T16:10:12.695Z</time></trkpt><trkpt lat="39.9045345" lon="8.5859283"><ele>7.0</ele><time>2026-04-30T16:10:17.695Z</time></trkpt><trkpt lat="39.9044718" lon="8.5859611"><ele>7.0</ele><time>2026-04-30T16:10:19.688Z</time></trkpt><trkpt lat="39.9045344" lon="8.5859381"><ele>7.0</ele><time>2026-04-30T16:10:53.238Z</time></trkpt><trkpt lat="39.9045979" lon="8.5859495"><ele>7.0</ele><time>2026-04-30T16:10:59.689Z</time></trkpt><trkpt lat="39.9046688" lon="8.5859866"><ele>7.0</ele><time>2026-04-30T16:11:11.692Z</time></trkpt><trkpt lat="39.904739" lon="8.5859909"><ele>7.0</ele><time>2026-04-30T16:11:23.689Z</time></trkpt><trkpt lat="39.9047197" lon="8.5859063"><ele>7.000000000000001</ele><time>2026-04-30T16:12:08.695Z</time></trkpt><trkpt lat="39.904649" lon="8.5858961"><ele>7.0</ele><time>2026-04-30T16:12:13.69Z</time></trkpt><trkpt lat="39.9045882" lon="8.5859628"><ele>7.0</ele><time>2026-04-30T16:12:17.696Z</time></trkpt><trkpt lat="39.9046617" lon="8.5859803"><ele>7.0</ele><time>2026-04-30T16:12:27.694Z</time></trkpt><trkpt lat="39.9047289" lon="8.5859818"><ele>7.000000000000001</ele><time>2026-04-30T16:12:34.673Z</time></trkpt><trkpt lat="39.9048168" lon="8.5859385"><ele>7.0</ele><time>2026-04-30T16:14:57.694Z</time></trkpt><trkpt lat="39.9048174" lon="8.5860223"><ele>7.0</ele><time>2026-04-30T16:15:05.694Z</time></trkpt><trkpt lat="39.9047937" lon="8.5861035"><ele>6.999999999999999</ele><time>2026-04-30T16:15:25.692Z</time></trkpt><trkpt lat="39.904824" lon="8.5862072"><ele>6.999999999999999</ele><time>2026-04-30T16:15:29.692Z</time></trkpt><trkpt lat="39.9046691" lon="8.586225"><ele>7.0</ele><time>2026-04-30T16:15:30.688Z</time></trkpt><trkpt lat="39.9045795" lon="8.5862393"><ele>7.0</ele><time>2026-04-30T16:15:33.688Z</time></trkpt><trkpt lat="39.9045139" lon="8.586238"><ele>7.0</ele><time>2026-04-30T16:15:35.698Z</time></trkpt><trkpt lat="39.9044307" lon="8.5862548"><ele>7.0</ele><time>2026-04-30T16:15:37.688Z</time></trkpt><trkpt lat="39.9045514" lon="8.5859822"><ele>7.0</ele><time>2026-04-30T16:16:06.421Z</time></trkpt><trkpt lat="39.904632" lon="8.5861417"><ele>7.0</ele><time>2026-04-30T16:17:13.112Z</time></trkpt><trkpt lat="39.9044932" lon="8.5861992"><ele>8.0</ele><time>2026-04-30T16:17:15.335Z</time></trkpt><trkpt lat="39.9043996" lon="8.5860312"><ele>7.0</ele><time>2026-04-30T16:17:23.658Z</time></trkpt><trkpt lat="39.9044949" lon="8.5859784"><ele>7.0</ele><time>2026-04-30T16:20:53.815Z</time></trkpt></trkseg><trkseg><trkpt lat="39.9046779" lon="8.586276"><ele>7.999999999999999</ele><time>2026-05-01T06:41:37.552Z</time></trkpt><trkpt lat="39.9047152" lon="8.5862094"><ele>8.0</ele><time>2026-05-01T06:42:30.257Z</time></trkpt><trkpt lat="39.904769" lon="8.586272"><ele>8.0</ele><time>2026-05-01T06:44:47.258Z</time></trkpt><trkpt lat="39.9047545" lon="8.5863533"><ele>8.0</ele><time>2026-05-01T06:44:50.256Z</time></trkpt><trkpt lat="39.9047399" lon="8.5864931"><ele>7.999999999999999</ele><time>2026-05-01T06:44:52.258Z</time></trkpt><trkpt lat="39.9047367" lon="8.5865874"><ele>8.0</ele><time>2026-05-01T06:44:54.257Z</time></trkpt><trkpt lat="39.9047231" lon="8.5867035"><ele>8.0</ele><time>2026-05-01T06:45:13.258Z</time></trkpt><trkpt lat="39.9047156" lon="8.5868237"><ele>8.0</ele><time>2026-05-01T06:45:15.257Z</time></trkpt><trkpt lat="39.9047068" lon="8.5869959"><ele>8.0</ele><time>2026-05-01T06:45:17.257Z</time></trkpt><trkpt lat="39.9047034" lon="8.5870879"><ele>8.0</ele><time>2026-05-01T06:45:18.258Z</time></trkpt><trkpt lat="39.904699" lon="8.5871704"><ele>8.0</ele><time>2026-05-01T06:45:19.256Z</time></trkpt><trkpt lat="39.9046932" lon="8.587327"><ele>8.0</ele><time>2026-05-01T06:45:21.258Z</time></trkpt><trkpt lat="39.904687" lon="8.5874936"><ele>8.0</ele><time>2026-05-01T06:45:23.256Z</time></trkpt><trkpt lat="39.9046812" lon="8.5876475"><ele>8.0</ele><time>2026-05-01T06:45:25.257Z</time></trkpt><trkpt lat="39.9046749" lon="8.5877854"><ele>8.0</ele><time>2026-05-01T06:45:27.258Z</time></trkpt><trkpt lat="39.9046726" lon="8.5878868"><ele>8.0</ele><time>2026-05-01T06:45:29.257Z</time></trkpt><trkpt lat="39.9046685" lon="8.5879785"><ele>7.999999999999999</ele><time>2026-05-01T06:45:32.256Z</time></trkpt><trkpt lat="39.9046637" lon="8.588082"><ele>8.0</ele><time>2026-05-01T06:46:05.257Z</time></trkpt><trkpt lat="39.9046596" lon="8.5881837"><ele>8.0</ele><time>2026-05-01T06:46:07.258Z</time></trkpt><trkpt lat="39.9046367" lon="8.5882991"><ele>8.0</ele><time>2026-05-01T06:46:09.256Z</time></trkpt><trkpt lat="39.9045508" lon="8.5883456"><ele>7.999999999999999</ele><time>2026-05-01T06:46:11.257Z</time></trkpt><trkpt lat="39.9044853" lon="8.5883514"><ele>8.0</ele><time>2026-05-01T06:46:12.258Z</time></trkpt><trkpt lat="39.90441" lon="8.588351"><ele>8.0</ele><time>2026-05-01T06:46:13.256Z</time></trkpt><trkpt lat="39.9043279" lon="8.5883485"><ele>8.0</ele><time>2026-05-01T06:46:14.255Z</time></trkpt><trkpt lat="39.9042386" lon="8.5883456"><ele>8.0</ele><time>2026-05-01T06:46:15.257Z</time></trkpt><trkpt lat="39.9041422" lon="8.5883435"><ele>8.0</ele><time>2026-05-01T06:46:16.256Z</time></trkpt><trkpt lat="39.9040471" lon="8.5883435"><ele>8.0</ele><time>2026-05-01T06:46:17.257Z</time></trkpt><trkpt lat="39.9039564" lon="8.5883404"><ele>8.333333333333332</ele><time>2026-05-01T06:46:18.257Z</time></trkpt><trkpt lat="39.9038688" lon="8.5883386"><ele>8.666666666666666</ele><time>2026-05-01T06:46:19.257Z</time></trkpt><trkpt lat="39.9037823" lon="8.5883419"><ele>9.0</ele><time>2026-05-01T06:46:20.257Z</time></trkpt><trkpt lat="39.9036992" lon="8.5883376"><ele>9.333333333333334</ele><time>2026-05-01T06:46:21.258Z</time></trkpt><trkpt lat="39.9036108" lon="8.5883422"><ele>9.666666666666668</ele><time>2026-05-01T06:46:22.258Z</time></trkpt><trkpt lat="39.9035177" lon="8.5883412"><ele>10.0</ele><time>2026-05-01T06:46:23.257Z</time></trkpt><trkpt lat="39.9034251" lon="8.5883401"><ele>10.0</ele><time>2026-05-01T06:46:24.257Z</time></trkpt><trkpt lat="39.9033289" lon="8.5883414"><ele>10.0</ele><time>2026-05-01T06:46:25.256Z</time></trkpt><trkpt lat="39.9032329" lon="8.5883463"><ele>10.0</ele><time>2026-05-01T06:46:26.257Z</time></trkpt><trkpt lat="39.9031312" lon="8.5883543"><ele>10.0</ele><time>2026-05-01T06:46:27.257Z</time></trkpt><trkpt lat="39.90303" lon="8.5883632"><ele>10.0</ele><time>2026-05-01T06:46:28.257Z</time></trkpt><trkpt lat="39.9029268" lon="8.5883799"><ele>10.0</ele><time>2026-05-01T06:46:29.257Z</time></trkpt><trkpt lat="39.9028224" lon="8.5884074"><ele>10.0</ele><time>2026-05-01T06:46:30.257Z</time></trkpt><trkpt lat="39.9027175" lon="8.5884482"><ele>10.0</ele><time>2026-05-01T06:46:31.258Z</time></trkpt><trkpt lat="39.9026131" lon="8.5885015"><ele>10.0</ele><time>2026-05-01T06:46:32.257Z</time></trkpt><trkpt lat="39.9025102" lon="8.588562"><ele>10.0</ele><time>2026-05-01T06:46:33.257Z</time></trkpt><trkpt lat="39.9024105" lon="8.588637"><ele>10.0</ele><time>2026-05-01T06:46:34.256Z</time></trkpt><trkpt lat="39.9023143" lon="8.5887228"><ele>10.0</ele><time>2026-05-01T06:46:35.258Z</time></trkpt><trkpt lat="39.9022226" lon="8.5888201"><ele>10.0</ele><time>2026-05-01T06:46:36.257Z</time></trkpt><trkpt lat="39.902139" lon="8.588931"><ele>10.0</ele><time>2026-05-01T06:46:37.256Z</time></trkpt><trkpt lat="39.902055" lon="8.5890504"><ele>10.0</ele><time>2026-05-01T06:46:38.258Z</time></trkpt><trkpt lat="39.9019837" lon="8.5891785"><ele>10.0</ele><time>2026-05-01T06:46:39.258Z</time></trkpt><trkpt lat="39.9019193" lon="8.5893171"><ele>10.0</ele><time>2026-05-01T06:46:40.256Z</time></trkpt><trkpt lat="39.9018575" lon="8.589454"><ele>10.0</ele><time>2026-05-01T06:46:41.257Z</time></trkpt><trkpt lat="39.901797" lon="8.5895842"><ele>10.0</ele><time>2026-05-01T06:46:42.256Z</time></trkpt><trkpt lat="39.901738" lon="8.5897121"><ele>10.0</ele><time>2026-05-01T06:46:43.257Z</time></trkpt><trkpt lat="39.9016769" lon="8.5898405"><ele>10.0</ele><time>2026-05-01T06:46:44.258Z</time></trkpt><trkpt lat="39.9016188" lon="8.5899648"><ele>10.0</ele><time>2026-05-01T06:46:45.257Z</time></trkpt><trkpt lat="39.901563" lon="8.5900916"><ele>10.0</ele><time>2026-05-01T06:46:46.257Z</time></trkpt><trkpt lat="39.9015026" lon="8.5902196"><ele>10.0</ele><time>2026-05-01T06:46:47.257Z</time></trkpt><trkpt lat="39.9014404" lon="8.5903514"><ele>10.0</ele><time>2026-05-01T06:46:48.258Z</time></trkpt><trkpt lat="39.901378" lon="8.5904837"><ele>10.0</ele><time>2026-05-01T06:46:49.257Z</time></trkpt><trkpt lat="39.9013139" lon="8.5906165"><ele>10.2</ele><time>2026-05-01T06:46:50.258Z</time></trkpt><trkpt lat="39.9012449" lon="8.5907456"><ele>10.4</ele><time>2026-05-01T06:46:51.258Z</time></trkpt><trkpt lat="39.9011851" lon="8.5908749"><ele>10.600000000000001</ele><time>2026-05-01T06:46:52.257Z</time></trkpt><trkpt lat="39.9011361" lon="8.5909874"><ele>10.8</ele><time>2026-05-01T06:46:53.257Z</time></trkpt><trkpt lat="39.9010882" lon="8.5910935"><ele>11.0</ele><time>2026-05-01T06:46:54.256Z</time></trkpt><trkpt lat="39.9010421" lon="8.5911912"><ele>11.142857142857142</ele><time>2026-05-01T06:46:55.256Z</time></trkpt><trkpt lat="39.9010001" lon="8.591284"><ele>11.285714285714285</ele><time>2026-05-01T06:46:56.257Z</time></trkpt><trkpt lat="39.9009577" lon="8.5913657"><ele>11.428571428571427</ele><time>2026-05-01T06:46:57.257Z</time></trkpt><trkpt lat="39.9009212" lon="8.5914455"><ele>11.571428571428571</ele><time>2026-05-01T06:46:58.256Z</time></trkpt><trkpt lat="39.900889" lon="8.5915211"><ele>11.714285714285714</ele><time>2026-05-01T06:46:59.258Z</time></trkpt><trkpt lat="39.9008473" lon="8.591595"><ele>11.857142857142856</ele><time>2026-05-01T06:47:00.258Z</time></trkpt><trkpt lat="39.9007963" lon="8.5916621"><ele>12.0</ele><time>2026-05-01T06:47:01.257Z</time></trkpt><trkpt lat="39.9007407" lon="8.5917371"><ele>12.0</ele><time>2026-05-01T06:47:02.258Z</time></trkpt><trkpt lat="39.9006791" lon="8.5918199"><ele>12.0</ele><time>2026-05-01T06:47:03.256Z</time></trkpt><trkpt lat="39.9006117" lon="8.5919029"><ele>12.0</ele><time>2026-05-01T06:47:04.257Z</time></trkpt><trkpt lat="39.9005285" lon="8.5919784"><ele>12.0</ele><time>2026-05-01T06:47:05.258Z</time></trkpt><trkpt lat="39.9004438" lon="8.5920499"><ele>12.0</ele><time>2026-05-01T06:47:06.257Z</time></trkpt><trkpt lat="39.9003536" lon="8.5921231"><ele>12.25</ele><time>2026-05-01T06:47:07.258Z</time></trkpt><trkpt lat="39.9002567" lon="8.5921973"><ele>12.5</ele><time>2026-05-01T06:47:08.258Z</time></trkpt><trkpt lat="39.9001555" lon="8.5922701"><ele>12.75</ele><time>2026-05-01T06:47:09.256Z</time></trkpt><trkpt lat="39.9000568" lon="8.5923417"><ele>13.0</ele><time>2026-05-01T06:47:10.258Z</time></trkpt><trkpt lat="39.8999548" lon="8.5924164"><ele>12.8</ele><time>2026-05-01T06:47:11.258Z</time></trkpt><trkpt lat="39.8998606" lon="8.592492"><ele>12.600000000000001</ele><time>2026-05-01T06:47:12.257Z</time></trkpt><trkpt lat="39.8997708" lon="8.5925679"><ele>12.399999999999999</ele><time>2026-05-01T06:47:13.258Z</time></trkpt><trkpt lat="39.8996918" lon="8.5926556"><ele>12.2</ele><time>2026-05-01T06:47:14.257Z</time></trkpt><trkpt lat="39.8996135" lon="8.5927494"><ele>12.0</ele><time>2026-05-01T06:47:15.256Z</time></trkpt><trkpt lat="39.8995332" lon="8.5928619"><ele>12.0</ele><time>2026-05-01T06:47:16.255Z</time></trkpt><trkpt lat="39.8994551" lon="8.5929609"><ele>12.0</ele><time>2026-05-01T06:47:17.257Z</time></trkpt><trkpt lat="39.8993817" lon="8.5930528"><ele>12.0</ele><time>2026-05-01T06:47:18.257Z</time></trkpt><trkpt lat="39.8993155" lon="8.5931375"><ele>12.0</ele><time>2026-05-01T06:47:19.256Z</time></trkpt><trkpt lat="39.8992599" lon="8.5932108"><ele>12.0</ele><time>2026-05-01T06:47:20.256Z</time></trkpt><trkpt lat="39.8992113" lon="8.5932759"><ele>12.0</ele><time>2026-05-01T06:47:21.258Z</time></trkpt><trkpt lat="39.8991302" lon="8.5933785"><ele>12.0</ele><time>2026-05-01T06:47:23.258Z</time></trkpt><trkpt lat="39.8990637" lon="8.593453"><ele>12.0</ele><time>2026-05-01T06:47:25.255Z</time></trkpt><trkpt lat="39.8990008" lon="8.5935261"><ele>12.0</ele><time>2026-05-01T06:47:28.257Z</time></trkpt><trkpt lat="39.8989312" lon="8.5936048"><ele>12.0</ele><time>2026-05-01T06:48:03.257Z</time></trkpt><trkpt lat="39.8988566" lon="8.5937053"><ele>12.166666666666666</ele><time>2026-05-01T06:48:05.258Z</time></trkpt><trkpt lat="39.8988044" lon="8.5937597"><ele>12.333333333333332</ele><time>2026-05-01T06:48:06.257Z</time></trkpt><trkpt lat="39.8987559" lon="8.5938204"><ele>12.5</ele><time>2026-05-01T06:48:07.257Z</time></trkpt><trkpt lat="39.8987046" lon="8.5938866"><ele>12.666666666666666</ele><time>2026-05-01T06:48:08.257Z</time></trkpt><trkpt lat="39.8986478" lon="8.5939612"><ele>12.833333333333332</ele><time>2026-05-01T06:48:09.256Z</time></trkpt><trkpt lat="39.8985839" lon="8.5940364"><ele>13.0</ele><time>2026-05-01T06:48:10.256Z</time></trkpt><trkpt lat="39.898512" lon="8.5941112"><ele>13.0</ele><time>2026-05-01T06:48:11.257Z</time></trkpt><trkpt lat="39.8984362" lon="8.5941814"><ele>13.0</ele><time>2026-05-01T06:48:12.258Z</time></trkpt><trkpt lat="39.8983504" lon="8.5942505"><ele>13.0</ele><time>2026-05-01T06:48:13.258Z</time></trkpt><trkpt lat="39.8982559" lon="8.5943201"><ele>13.0</ele><time>2026-05-01T06:48:14.257Z</time></trkpt><trkpt lat="39.898157" lon="8.5943933"><ele>13.0</ele><time>2026-05-01T06:48:15.256Z</time></trkpt><trkpt lat="39.8980567" lon="8.5944653"><ele>13.25</ele><time>2026-05-01T06:48:16.257Z</time></trkpt><trkpt lat="39.8979605" lon="8.5945354"><ele>13.5</ele><time>2026-05-01T06:48:17.258Z</time></trkpt><trkpt lat="39.8978583" lon="8.594606"><ele>13.75</ele><time>2026-05-01T06:48:18.258Z</time></trkpt><trkpt lat="39.8977553" lon="8.594679"><ele>14.0</ele><time>2026-05-01T06:48:19.257Z</time></trkpt><trkpt lat="39.897656" lon="8.5947454"><ele>13.799999999999999</ele><time>2026-05-01T06:48:20.258Z</time></trkpt><trkpt lat="39.8975587" lon="8.5948165"><ele>13.599999999999998</ele><time>2026-05-01T06:48:21.257Z</time></trkpt><trkpt lat="39.8974691" lon="8.5948848"><ele>13.4</ele><time>2026-05-01T06:48:22.258Z</time></trkpt><trkpt lat="39.8973848" lon="8.594948"><ele>13.2</ele><time>2026-05-01T06:48:23.257Z</time></trkpt><trkpt lat="39.8972992" lon="8.5950092"><ele>13.0</ele><time>2026-05-01T06:48:24.257Z</time></trkpt><trkpt lat="39.8972126" lon="8.595065"><ele>13.0</ele><time>2026-05-01T06:48:25.256Z</time></trkpt><trkpt lat="39.8971209" lon="8.5951315"><ele>13.0</ele><time>2026-05-01T06:48:26.256Z</time></trkpt><trkpt lat="39.8970271" lon="8.5952022"><ele>13.0</ele><time>2026-05-01T06:48:27.258Z</time></trkpt><trkpt lat="39.8969241" lon="8.5952764"><ele>13.0</ele><time>2026-05-01T06:48:28.257Z</time></trkpt><trkpt lat="39.8968177" lon="8.5953562"><ele>12.75</ele><time>2026-05-01T06:48:29.256Z</time></trkpt><trkpt lat="39.8967078" lon="8.5954364"><ele>12.5</ele><time>2026-05-01T06:48:30.258Z</time></trkpt><trkpt lat="39.896598" lon="8.5955153"><ele>12.25</ele><time>2026-05-01T06:48:31.258Z</time></trkpt><trkpt lat="39.8964869" lon="8.5955922"><ele>12.0</ele><time>2026-05-01T06:48:32.258Z</time></trkpt><trkpt lat="39.8963814" lon="8.5956649"><ele>12.0</ele><time>2026-05-01T06:48:33.257Z</time></trkpt><trkpt lat="39.896269" lon="8.5957441"><ele>12.0</ele><time>2026-05-01T06:48:34.258Z</time></trkpt><trkpt lat="39.8961544" lon="8.5958233"><ele>12.0</ele><time>2026-05-01T06:48:35.256Z</time></trkpt><trkpt lat="39.8960336" lon="8.5959066"><ele>12.0</ele><time>2026-05-01T06:48:36.256Z</time></trkpt><trkpt lat="39.8959114" lon="8.5959923"><ele>12.0</ele><time>2026-05-01T06:48:37.256Z</time></trkpt><trkpt lat="39.8957878" lon="8.5960831"><ele>12.0</ele><time>2026-05-01T06:48:38.257Z</time></trkpt><trkpt lat="39.8956493" lon="8.5961755"><ele>12.0</ele><time>2026-05-01T06:48:39.256Z</time></trkpt><trkpt lat="39.8955068" lon="8.5962764"><ele>12.0</ele><time>2026-05-01T06:48:40.256Z</time></trkpt><trkpt lat="39.8953672" lon="8.5963731"><ele>12.0</ele><time>2026-05-01T06:48:41.257Z</time></trkpt><trkpt lat="39.8952348" lon="8.59647"><ele>12.0</ele><time>2026-05-01T06:48:42.257Z</time></trkpt><trkpt lat="39.8950994" lon="8.5965666"><ele>11.666666666666666</ele><time>2026-05-01T06:48:43.258Z</time></trkpt><trkpt lat="39.894964" lon="8.5966613"><ele>11.333333333333332</ele><time>2026-05-01T06:48:44.255Z</time></trkpt><trkpt lat="39.8948296" lon="8.596758"><ele>11.0</ele><time>2026-05-01T06:48:45.258Z</time></trkpt><trkpt lat="39.8946919" lon="8.5968543"><ele>11.0</ele><time>2026-05-01T06:48:46.255Z</time></trkpt><trkpt lat="39.8945541" lon="8.5969595"><ele>11.0</ele><time>2026-05-01T06:48:47.256Z</time></trkpt><trkpt lat="39.8944154" lon="8.5970626"><ele>11.0</ele><time>2026-05-01T06:48:48.258Z</time></trkpt><trkpt lat="39.8942725" lon="8.5971609"><ele>11.0</ele><time>2026-05-01T06:48:49.257Z</time></trkpt><trkpt lat="39.8941302" lon="8.5972636"><ele>11.0</ele><time>2026-05-01T06:48:50.257Z</time></trkpt><trkpt lat="39.8939899" lon="8.5973659"><ele>11.0</ele><time>2026-05-01T06:48:51.258Z</time></trkpt><trkpt lat="39.8938532" lon="8.5974666"><ele>11.0</ele><time>2026-05-01T06:48:52.257Z</time></trkpt><trkpt lat="39.8937137" lon="8.5975666"><ele>11.0</ele><time>2026-05-01T06:48:53.257Z</time></trkpt><trkpt lat="39.8935797" lon="8.5976651"><ele>11.0</ele><time>2026-05-01T06:48:54.257Z</time></trkpt><trkpt lat="39.8934427" lon="8.5977619"><ele>11.25</ele><time>2026-05-01T06:48:55.257Z</time></trkpt><trkpt lat="39.8933151" lon="8.5978528"><ele>11.5</ele><time>2026-05-01T06:48:56.257Z</time></trkpt><trkpt lat="39.8931857" lon="8.5979417"><ele>11.75</ele><time>2026-05-01T06:48:57.257Z</time></trkpt><trkpt lat="39.8930661" lon="8.5980257"><ele>12.0</ele><time>2026-05-01T06:48:58.257Z</time></trkpt><trkpt lat="39.8929464" lon="8.5981158"><ele>12.0</ele><time>2026-05-01T06:48:59.255Z</time></trkpt><trkpt lat="39.8928316" lon="8.5982012"><ele>12.0</ele><time>2026-05-01T06:49:00.255Z</time></trkpt><trkpt lat="39.8927126" lon="8.5982885"><ele>12.0</ele><time>2026-05-01T06:49:01.257Z</time></trkpt><trkpt lat="39.8925937" lon="8.5983759"><ele>12.0</ele><time>2026-05-01T06:49:02.255Z</time></trkpt><trkpt lat="39.892473" lon="8.5984625"><ele>11.333333333333334</ele><time>2026-05-01T06:49:03.257Z</time></trkpt><trkpt lat="39.8923447" lon="8.5985549"><ele>10.666666666666668</ele><time>2026-05-01T06:49:04.258Z</time></trkpt><trkpt lat="39.8922117" lon="8.5986501"><ele>10.0</ele><time>2026-05-01T06:49:05.257Z</time></trkpt><trkpt lat="39.8920786" lon="8.5987458"><ele>10.0</ele><time>2026-05-01T06:49:06.257Z</time></trkpt><trkpt lat="39.8919399" lon="8.5988424"><ele>10.0</ele><time>2026-05-01T06:49:07.258Z</time></trkpt><trkpt lat="39.8917999" lon="8.5989432"><ele>10.0</ele><time>2026-05-01T06:49:08.257Z</time></trkpt><trkpt lat="39.8916643" lon="8.5990428"><ele>10.0</ele><time>2026-05-01T06:49:09.258Z</time></trkpt><trkpt lat="39.8915308" lon="8.5991367"><ele>10.0</ele><time>2026-05-01T06:49:10.256Z</time></trkpt><trkpt lat="39.8914014" lon="8.5992267"><ele>10.0</ele><time>2026-05-01T06:49:11.256Z</time></trkpt><trkpt lat="39.8912817" lon="8.5993152"><ele>10.0</ele><time>2026-05-01T06:49:12.256Z</time></trkpt><trkpt lat="39.8911635" lon="8.5993997"><ele>10.0</ele><time>2026-05-01T06:49:13.255Z</time></trkpt><trkpt lat="39.8910507" lon="8.5994815"><ele>10.0</ele><time>2026-05-01T06:49:14.257Z</time></trkpt><trkpt lat="39.8909455" lon="8.5995577"><ele>10.0</ele><time>2026-05-01T06:49:15.257Z</time></trkpt><trkpt lat="39.8908508" lon="8.599623"><ele>10.0</ele><time>2026-05-01T06:49:16.256Z</time></trkpt><trkpt lat="39.8907681" lon="8.5996811"><ele>9.4</ele><time>2026-05-01T06:49:17.258Z</time></trkpt><trkpt lat="39.8906982" lon="8.5997237"><ele>8.8</ele><time>2026-05-01T06:49:18.257Z</time></trkpt><trkpt lat="39.8905948" lon="8.599771"><ele>8.2</ele><time>2026-05-01T06:49:20.255Z</time></trkpt><trkpt lat="39.8905021" lon="8.5998141"><ele>7.6</ele><time>2026-05-01T06:49:22.258Z</time></trkpt><trkpt lat="39.8903995" lon="8.5998889"><ele>7.0</ele><time>2026-05-01T06:49:24.256Z</time></trkpt><trkpt lat="39.8903449" lon="8.5999466"><ele>7.000000000000001</ele><time>2026-05-01T06:49:25.256Z</time></trkpt><trkpt lat="39.8902866" lon="8.5999991"><ele>7.0</ele><time>2026-05-01T06:49:26.256Z</time></trkpt><trkpt lat="39.8902231" lon="8.6000529"><ele>7.0</ele><time>2026-05-01T06:49:27.257Z</time></trkpt><trkpt lat="39.8901553" lon="8.6001066"><ele>7.0</ele><time>2026-05-01T06:49:28.256Z</time></trkpt><trkpt lat="39.8900858" lon="8.6001617"><ele>7.000000000000001</ele><time>2026-05-01T06:49:29.257Z</time></trkpt><trkpt lat="39.8900124" lon="8.6002172"><ele>7.0</ele><time>2026-05-01T06:49:30.257Z</time></trkpt><trkpt lat="39.8899341" lon="8.6002758"><ele>7.6</ele><time>2026-05-01T06:49:31.257Z</time></trkpt><trkpt lat="39.889852" lon="8.600337"><ele>8.2</ele><time>2026-05-01T06:49:32.258Z</time></trkpt><trkpt lat="39.8897699" lon="8.6003983"><ele>8.8</ele><time>2026-05-01T06:49:33.256Z</time></trkpt><trkpt lat="39.8896852" lon="8.6004641"><ele>9.4</ele><time>2026-05-01T06:49:34.256Z</time></trkpt><trkpt lat="39.8896042" lon="8.6005233"><ele>10.0</ele><time>2026-05-01T06:49:35.256Z</time></trkpt><trkpt lat="39.8895219" lon="8.6005808"><ele>10.0</ele><time>2026-05-01T06:49:36.256Z</time></trkpt><trkpt lat="39.8894382" lon="8.600639"><ele>10.0</ele><time>2026-05-01T06:49:37.257Z</time></trkpt><trkpt lat="39.8893532" lon="8.6006996"><ele>10.0</ele><time>2026-05-01T06:49:38.257Z</time></trkpt><trkpt lat="39.8892693" lon="8.6007639"><ele>10.0</ele><time>2026-05-01T06:49:39.257Z</time></trkpt><trkpt lat="39.8891833" lon="8.6008259"><ele>10.0</ele><time>2026-05-01T06:49:40.258Z</time></trkpt><trkpt lat="39.8890967" lon="8.6008875"><ele>9.666666666666668</ele><time>2026-05-01T06:49:41.257Z</time></trkpt><trkpt lat="39.8890131" lon="8.6009468"><ele>9.333333333333334</ele><time>2026-05-01T06:49:42.256Z</time></trkpt><trkpt lat="39.8889339" lon="8.6010024"><ele>9.0</ele><time>2026-05-01T06:49:43.257Z</time></trkpt><trkpt lat="39.8888561" lon="8.6010593"><ele>8.666666666666666</ele><time>2026-05-01T06:49:44.255Z</time></trkpt><trkpt lat="39.8887865" lon="8.6011131"><ele>8.333333333333332</ele><time>2026-05-01T06:49:45.257Z</time></trkpt><trkpt lat="39.8887197" lon="8.601167"><ele>8.0</ele><time>2026-05-01T06:49:46.257Z</time></trkpt><trkpt lat="39.8886512" lon="8.6012249"><ele>7.999999999999999</ele><time>2026-05-01T06:49:47.257Z</time></trkpt><trkpt lat="39.8885778" lon="8.6012755"><ele>8.0</ele><time>2026-05-01T06:49:48.258Z</time></trkpt><trkpt lat="39.8885027" lon="8.60132"><ele>8.0</ele><time>2026-05-01T06:49:49.258Z</time></trkpt><trkpt lat="39.8884285" lon="8.6013648"><ele>8.0</ele><time>2026-05-01T06:49:50.258Z</time></trkpt><trkpt lat="39.8883615" lon="8.6014046"><ele>7.999999999999999</ele><time>2026-05-01T06:49:51.256Z</time></trkpt><trkpt lat="39.8882928" lon="8.6014429"><ele>8.0</ele><time>2026-05-01T06:49:52.256Z</time></trkpt><trkpt lat="39.8882112" lon="8.6014712"><ele>8.166666666666666</ele><time>2026-05-01T06:49:53.257Z</time></trkpt><trkpt lat="39.8881383" lon="8.6015117"><ele>8.333333333333332</ele><time>2026-05-01T06:49:54.257Z</time></trkpt><trkpt lat="39.8880621" lon="8.6015512"><ele>8.5</ele><time>2026-05-01T06:49:55.257Z</time></trkpt><trkpt lat="39.8879886" lon="8.6015911"><ele>8.666666666666666</ele><time>2026-05-01T06:49:56.257Z</time></trkpt><trkpt lat="39.8879151" lon="8.601632"><ele>8.833333333333334</ele><time>2026-05-01T06:49:57.256Z</time></trkpt><trkpt lat="39.8878366" lon="8.6016731"><ele>9.0</ele><time>2026-05-01T06:49:58.257Z</time></trkpt><trkpt lat="39.8877566" lon="8.6017145"><ele>9.0</ele><time>2026-05-01T06:49:59.256Z</time></trkpt><trkpt lat="39.8876788" lon="8.6017544"><ele>9.0</ele><time>2026-05-01T06:50:00.256Z</time></trkpt><trkpt lat="39.8875991" lon="8.6017927"><ele>9.0</ele><time>2026-05-01T06:50:01.258Z</time></trkpt><trkpt lat="39.8875233" lon="8.6018321"><ele>9.0</ele><time>2026-05-01T06:50:02.256Z</time></trkpt><trkpt lat="39.8874472" lon="8.6018713"><ele>9.0</ele><time>2026-05-01T06:50:03.257Z</time></trkpt><trkpt lat="39.8873769" lon="8.6019085"><ele>9.0</ele><time>2026-05-01T06:50:04.258Z</time></trkpt><trkpt lat="39.8873062" lon="8.6019492"><ele>8.857142857142858</ele><time>2026-05-01T06:50:05.258Z</time></trkpt><trkpt lat="39.8872356" lon="8.6019862"><ele>8.714285714285715</ele><time>2026-05-01T06:50:06.257Z</time></trkpt><trkpt lat="39.887166" lon="8.6020236"><ele>8.571428571428571</ele><time>2026-05-01T06:50:07.257Z</time></trkpt><trkpt lat="39.887095" lon="8.6020542"><ele>8.428571428571429</ele><time>2026-05-01T06:50:08.258Z</time></trkpt><trkpt lat="39.8870237" lon="8.6020787"><ele>8.285714285714285</ele><time>2026-05-01T06:50:09.257Z</time></trkpt><trkpt lat="39.8869539" lon="8.6020903"><ele>8.142857142857142</ele><time>2026-05-01T06:50:10.257Z</time></trkpt><trkpt lat="39.886889" lon="8.6021004"><ele>8.0</ele><time>2026-05-01T06:50:11.258Z</time></trkpt><trkpt lat="39.8868241" lon="8.6021262"><ele>8.333333333333332</ele><time>2026-05-01T06:50:12.258Z</time></trkpt><trkpt lat="39.8867611" lon="8.6021777"><ele>8.666666666666666</ele><time>2026-05-01T06:50:13.257Z</time></trkpt><trkpt lat="39.8867091" lon="8.6022461"><ele>9.0</ele><time>2026-05-01T06:50:14.258Z</time></trkpt><trkpt lat="39.8866606" lon="8.6023298"><ele>9.333333333333334</ele><time>2026-05-01T06:50:15.257Z</time></trkpt><trkpt lat="39.8866083" lon="8.6024119"><ele>9.666666666666668</ele><time>2026-05-01T06:50:16.257Z</time></trkpt><trkpt lat="39.8865439" lon="8.6024868"><ele>10.0</ele><time>2026-05-01T06:50:17.257Z</time></trkpt><trkpt lat="39.8864746" lon="8.6025708"><ele>9.4</ele><time>2026-05-01T06:50:18.258Z</time></trkpt><trkpt lat="39.8864026" lon="8.6026552"><ele>8.8</ele><time>2026-05-01T06:50:19.255Z</time></trkpt><trkpt lat="39.8863248" lon="8.6027393"><ele>8.2</ele><time>2026-05-01T06:50:20.257Z</time></trkpt><trkpt lat="39.8862411" lon="8.6028215"><ele>7.6</ele><time>2026-05-01T06:50:21.256Z</time></trkpt><trkpt lat="39.8861542" lon="8.6029124"><ele>7.0</ele><time>2026-05-01T06:50:22.257Z</time></trkpt><trkpt lat="39.8860579" lon="8.6029961"><ele>7.0</ele><time>2026-05-01T06:50:23.258Z</time></trkpt><trkpt lat="39.8859594" lon="8.603079"><ele>7.0</ele><time>2026-05-01T06:50:24.256Z</time></trkpt><trkpt lat="39.8858536" lon="8.6031627"><ele>7.0</ele><time>2026-05-01T06:50:25.258Z</time></trkpt><trkpt lat="39.8857444" lon="8.6032433"><ele>7.0</ele><time>2026-05-01T06:50:26.257Z</time></trkpt><trkpt lat="39.8856322" lon="8.603329"><ele>7.0</ele><time>2026-05-01T06:50:27.256Z</time></trkpt><trkpt lat="39.8855191" lon="8.6034137"><ele>7.0</ele><time>2026-05-01T06:50:28.257Z</time></trkpt><trkpt lat="39.8854003" lon="8.6035065"><ele>7.0</ele><time>2026-05-01T06:50:29.256Z</time></trkpt><trkpt lat="39.8852893" lon="8.6035983"><ele>7.0</ele><time>2026-05-01T06:50:30.257Z</time></trkpt><trkpt lat="39.8851735" lon="8.6037041"><ele>6.25</ele><time>2026-05-01T06:50:31.258Z</time></trkpt><trkpt lat="39.8850582" lon="8.6038113"><ele>5.5</ele><time>2026-05-01T06:50:32.257Z</time></trkpt><trkpt lat="39.8849421" lon="8.6039197"><ele>4.75</ele><time>2026-05-01T06:50:33.257Z</time></trkpt><trkpt lat="39.8848239" lon="8.6040302"><ele>4.0</ele><time>2026-05-01T06:50:34.256Z</time></trkpt><trkpt lat="39.8847001" lon="8.6041394"><ele>4.0</ele><time>2026-05-01T06:50:35.256Z</time></trkpt><trkpt lat="39.8845771" lon="8.604247"><ele>4.0</ele><time>2026-05-01T06:50:36.256Z</time></trkpt><trkpt lat="39.8844551" lon="8.6043451"><ele>4.0</ele><time>2026-05-01T06:50:37.257Z</time></trkpt><trkpt lat="39.8843342" lon="8.6044303"><ele>4.0</ele><time>2026-05-01T06:50:38.256Z</time></trkpt><trkpt lat="39.8842126" lon="8.604505"><ele>4.25</ele><time>2026-05-01T06:50:39.257Z</time></trkpt><trkpt lat="39.8840913" lon="8.6045786"><ele>4.5</ele><time>2026-05-01T06:50:40.255Z</time></trkpt><trkpt lat="39.8839714" lon="8.6046542"><ele>4.75</ele><time>2026-05-01T06:50:41.257Z</time></trkpt><trkpt lat="39.8838548" lon="8.6047365"><ele>5.0</ele><time>2026-05-01T06:50:42.258Z</time></trkpt><trkpt lat="39.8837358" lon="8.6048192"><ele>5.0</ele><time>2026-05-01T06:50:43.258Z</time></trkpt><trkpt lat="39.8836145" lon="8.6049015"><ele>5.0</ele><time>2026-05-01T06:50:44.258Z</time></trkpt><trkpt lat="39.883493" lon="8.6049892"><ele>5.0</ele><time>2026-05-01T06:50:45.256Z</time></trkpt><trkpt lat="39.8833711" lon="8.6050791"><ele>5.0</ele><time>2026-05-01T06:50:46.256Z</time></trkpt><trkpt lat="39.8832523" lon="8.605166"><ele>5.0</ele><time>2026-05-01T06:50:47.258Z</time></trkpt><trkpt lat="39.8831353" lon="8.6052458"><ele>5.0</ele><time>2026-05-01T06:50:48.258Z</time></trkpt><trkpt lat="39.8830241" lon="8.6053226"><ele>5.0</ele><time>2026-05-01T06:50:49.258Z</time></trkpt><trkpt lat="39.8829186" lon="8.6053987"><ele>5.0</ele><time>2026-05-01T06:50:50.255Z</time></trkpt><trkpt lat="39.8828188" lon="8.6054736"><ele>5.0</ele><time>2026-05-01T06:50:51.257Z</time></trkpt><trkpt lat="39.8827169" lon="8.6055494"><ele>5.0</ele><time>2026-05-01T06:50:52.257Z</time></trkpt><trkpt lat="39.8826118" lon="8.6056277"><ele>5.0</ele><time>2026-05-01T06:50:53.256Z</time></trkpt><trkpt lat="39.8825004" lon="8.6057098"><ele>5.0</ele><time>2026-05-01T06:50:54.257Z</time></trkpt><trkpt lat="39.8823828" lon="8.6057944"><ele>4.75</ele><time>2026-05-01T06:50:55.257Z</time></trkpt><trkpt lat="39.8822626" lon="8.6058762"><ele>4.5</ele><time>2026-05-01T06:50:56.256Z</time></trkpt><trkpt lat="39.8821384" lon="8.6059647"><ele>4.25</ele><time>2026-05-01T06:50:57.255Z</time></trkpt><trkpt lat="39.8820179" lon="8.6060502"><ele>4.0</ele><time>2026-05-01T06:50:58.257Z</time></trkpt><trkpt lat="39.8819026" lon="8.6061335"><ele>4.0</ele><time>2026-05-01T06:50:59.257Z</time></trkpt><trkpt lat="39.8817868" lon="8.6062123"><ele>4.0</ele><time>2026-05-01T06:51:00.258Z</time></trkpt><trkpt lat="39.88167" lon="8.6062931"><ele>4.0</ele><time>2026-05-01T06:51:01.256Z</time></trkpt><trkpt lat="39.8815575" lon="8.6063748"><ele>4.0</ele><time>2026-05-01T06:51:02.258Z</time></trkpt><trkpt lat="39.8814489" lon="8.6064511"><ele>4.2</ele><time>2026-05-01T06:51:03.256Z</time></trkpt><trkpt lat="39.8813491" lon="8.6065218"><ele>4.4</ele><time>2026-05-01T06:51:04.255Z</time></trkpt><trkpt lat="39.8812528" lon="8.6065879"><ele>4.6</ele><time>2026-05-01T06:51:05.255Z</time></trkpt><trkpt lat="39.8811694" lon="8.6066486"><ele>4.8</ele><time>2026-05-01T06:51:06.255Z</time></trkpt><trkpt lat="39.8810945" lon="8.6067045"><ele>5.0</ele><time>2026-05-01T06:51:07.257Z</time></trkpt><trkpt lat="39.8810279" lon="8.606759"><ele>5.0</ele><time>2026-05-01T06:51:08.256Z</time></trkpt><trkpt lat="39.8809636" lon="8.6068026"><ele>5.0</ele><time>2026-05-01T06:51:09.255Z</time></trkpt><trkpt lat="39.8808982" lon="8.6068199"><ele>5.0</ele><time>2026-05-01T06:51:10.257Z</time></trkpt><trkpt lat="39.8807724" lon="8.6068104"><ele>5.0</ele><time>2026-05-01T06:51:12.256Z</time></trkpt><trkpt lat="39.8807035" lon="8.606816"><ele>5.0</ele><time>2026-05-01T06:51:13.256Z</time></trkpt><trkpt lat="39.8806268" lon="8.6068336"><ele>5.0</ele><time>2026-05-01T06:51:14.256Z</time></trkpt><trkpt lat="39.8805542" lon="8.6068612"><ele>5.0</ele><time>2026-05-01T06:51:15.258Z</time></trkpt><trkpt lat="39.8804846" lon="8.6068959"><ele>5.0</ele><time>2026-05-01T06:51:16.256Z</time></trkpt><trkpt lat="39.8804133" lon="8.6069347"><ele>5.0</ele><time>2026-05-01T06:51:17.256Z</time></trkpt><trkpt lat="39.8803405" lon="8.60698"><ele>5.0</ele><time>2026-05-01T06:51:18.257Z</time></trkpt><trkpt lat="39.8802664" lon="8.607028"><ele>5.0</ele><time>2026-05-01T06:51:19.256Z</time></trkpt><trkpt lat="39.8801942" lon="8.6070736"><ele>5.0</ele><time>2026-05-01T06:51:20.256Z</time></trkpt><trkpt lat="39.8801189" lon="8.6071349"><ele>5.0</ele><time>2026-05-01T06:51:21.255Z</time></trkpt><trkpt lat="39.8800543" lon="8.6072065"><ele>5.0</ele><time>2026-05-01T06:51:22.256Z</time></trkpt><trkpt lat="39.879995" lon="8.6072786"><ele>5.0</ele><time>2026-05-01T06:51:23.255Z</time></trkpt><trkpt lat="39.8799356" lon="8.6073567"><ele>5.0</ele><time>2026-05-01T06:51:24.258Z</time></trkpt><trkpt lat="39.879873" lon="8.6074369"><ele>5.0</ele><time>2026-05-01T06:51:25.257Z</time></trkpt><trkpt lat="39.8798096" lon="8.607514"><ele>5.0</ele><time>2026-05-01T06:51:26.257Z</time></trkpt><trkpt lat="39.8797404" lon="8.6075971"><ele>5.0</ele><time>2026-05-01T06:51:27.257Z</time></trkpt><trkpt lat="39.8796661" lon="8.607685"><ele>5.0</ele><time>2026-05-01T06:51:28.256Z</time></trkpt><trkpt lat="39.8795923" lon="8.6077661"><ele>5.0</ele><time>2026-05-01T06:51:29.257Z</time></trkpt><trkpt lat="39.8795131" lon="8.6078435"><ele>5.0</ele><time>2026-05-01T06:51:30.257Z</time></trkpt><trkpt lat="39.8794363" lon="8.6079155"><ele>5.0</ele><time>2026-05-01T06:51:31.256Z</time></trkpt><trkpt lat="39.8793568" lon="8.6079835"><ele>5.0</ele><time>2026-05-01T06:51:32.255Z</time></trkpt><trkpt lat="39.8792797" lon="8.6080518"><ele>5.0</ele><time>2026-05-01T06:51:33.258Z</time></trkpt><trkpt lat="39.8791984" lon="8.6081173"><ele>5.0</ele><time>2026-05-01T06:51:34.256Z</time></trkpt><trkpt lat="39.8791154" lon="8.6081824"><ele>5.0</ele><time>2026-05-01T06:51:35.258Z</time></trkpt><trkpt lat="39.8790299" lon="8.6082447"><ele>5.0</ele><time>2026-05-01T06:51:36.255Z</time></trkpt><trkpt lat="39.8789406" lon="8.6083038"><ele>5.0</ele><time>2026-05-01T06:51:37.257Z</time></trkpt><trkpt lat="39.878852" lon="8.6083649"><ele>5.0</ele><time>2026-05-01T06:51:38.257Z</time></trkpt><trkpt lat="39.8787664" lon="8.608425"><ele>5.0</ele><time>2026-05-01T06:51:39.257Z</time></trkpt><trkpt lat="39.8786824" lon="8.608485"><ele>5.0</ele><time>2026-05-01T06:51:40.257Z</time></trkpt><trkpt lat="39.8786003" lon="8.6085381"><ele>5.0</ele><time>2026-05-01T06:51:41.256Z</time></trkpt><trkpt lat="39.8785111" lon="8.6085953"><ele>5.0</ele><time>2026-05-01T06:51:42.256Z</time></trkpt><trkpt lat="39.8784014" lon="8.6086666"><ele>5.0</ele><time>2026-05-01T06:51:43.258Z</time></trkpt><trkpt lat="39.8782711" lon="8.6087473"><ele>5.0</ele><time>2026-05-01T06:51:44.257Z</time></trkpt><trkpt lat="39.8781297" lon="8.6088325"><ele>5.0</ele><time>2026-05-01T06:51:45.256Z</time></trkpt><trkpt lat="39.8779825" lon="8.6089233"><ele>5.0</ele><time>2026-05-01T06:51:46.257Z</time></trkpt><trkpt lat="39.8778285" lon="8.6090126"><ele>5.0</ele><time>2026-05-01T06:51:47.258Z</time></trkpt><trkpt lat="39.8776679" lon="8.6091071"><ele>5.0</ele><time>2026-05-01T06:51:48.258Z</time></trkpt><trkpt lat="39.8775038" lon="8.6092053"><ele>5.0</ele><time>2026-05-01T06:51:49.256Z</time></trkpt><trkpt lat="39.8773394" lon="8.609309"><ele>5.0</ele><time>2026-05-01T06:51:50.255Z</time></trkpt><trkpt lat="39.8771771" lon="8.6094116"><ele>5.0</ele><time>2026-05-01T06:51:51.257Z</time></trkpt><trkpt lat="39.8770183" lon="8.6095045"><ele>5.0</ele><time>2026-05-01T06:51:52.257Z</time></trkpt><trkpt lat="39.8768622" lon="8.6095878"><ele>5.0</ele><time>2026-05-01T06:51:53.256Z</time></trkpt><trkpt lat="39.8767088" lon="8.6096556"><ele>5.0</ele><time>2026-05-01T06:51:54.258Z</time></trkpt><trkpt lat="39.8765532" lon="8.6097063"><ele>4.666666666666667</ele><time>2026-05-01T06:51:55.258Z</time></trkpt><trkpt lat="39.8763941" lon="8.6097518"><ele>4.333333333333333</ele><time>2026-05-01T06:51:56.256Z</time></trkpt><trkpt lat="39.8762312" lon="8.6097949"><ele>4.0</ele><time>2026-05-01T06:51:57.258Z</time></trkpt><trkpt lat="39.8760676" lon="8.6098371"><ele>4.0</ele><time>2026-05-01T06:51:58.257Z</time></trkpt><trkpt lat="39.8759143" lon="8.6098787"><ele>4.0</ele><time>2026-05-01T06:51:59.256Z</time></trkpt><trkpt lat="39.8757778" lon="8.6099173"><ele>4.0</ele><time>2026-05-01T06:52:00.257Z</time></trkpt><trkpt lat="39.8756588" lon="8.6099512"><ele>4.0</ele><time>2026-05-01T06:52:01.256Z</time></trkpt><trkpt lat="39.8755506" lon="8.6099646"><ele>4.0</ele><time>2026-05-01T06:52:02.255Z</time></trkpt><trkpt lat="39.8754525" lon="8.6099554"><ele>4.0</ele><time>2026-05-01T06:52:03.258Z</time></trkpt><trkpt lat="39.8753688" lon="8.6098729"><ele>4.0</ele><time>2026-05-01T06:52:04.257Z</time></trkpt><trkpt lat="39.8752912" lon="8.6097974"><ele>4.0</ele><time>2026-05-01T06:52:05.258Z</time></trkpt><trkpt lat="39.8752338" lon="8.6097116"><ele>4.0</ele><time>2026-05-01T06:52:06.258Z</time></trkpt><trkpt lat="39.8751788" lon="8.6096483"><ele>4.0</ele><time>2026-05-01T06:52:07.256Z</time></trkpt><trkpt lat="39.875118" lon="8.6096231"><ele>4.0</ele><time>2026-05-01T06:52:08.257Z</time></trkpt><trkpt lat="39.8749949" lon="8.6096778"><ele>4.0</ele><time>2026-05-01T06:52:10.255Z</time></trkpt><trkpt lat="39.8749084" lon="8.6097099"><ele>4.0</ele><time>2026-05-01T06:52:11.255Z</time></trkpt><trkpt lat="39.8748038" lon="8.6097281"><ele>4.0</ele><time>2026-05-01T06:52:12.256Z</time></trkpt><trkpt lat="39.874699" lon="8.6097504"><ele>4.2</ele><time>2026-05-01T06:52:13.257Z</time></trkpt><trkpt lat="39.874602" lon="8.6098011"><ele>4.4</ele><time>2026-05-01T06:52:14.257Z</time></trkpt><trkpt lat="39.8745249" lon="8.6098817"><ele>4.6</ele><time>2026-05-01T06:52:15.258Z</time></trkpt><trkpt lat="39.8744713" lon="8.6099814"><ele>4.8</ele><time>2026-05-01T06:52:16.257Z</time></trkpt><trkpt lat="39.8744269" lon="8.6100793"><ele>5.0</ele><time>2026-05-01T06:52:17.256Z</time></trkpt><trkpt lat="39.8743686" lon="8.6101662"><ele>5.0</ele><time>2026-05-01T06:52:18.258Z</time></trkpt><trkpt lat="39.8742926" lon="8.6102465"><ele>5.0</ele><time>2026-05-01T06:52:19.257Z</time></trkpt><trkpt lat="39.874197" lon="8.6103108"><ele>5.0</ele><time>2026-05-01T06:52:20.256Z</time></trkpt><trkpt lat="39.8740894" lon="8.6103378"><ele>5.0</ele><time>2026-05-01T06:52:21.257Z</time></trkpt><trkpt lat="39.8739759" lon="8.6103434"><ele>5.0</ele><time>2026-05-01T06:52:22.257Z</time></trkpt><trkpt lat="39.8738451" lon="8.6103273"><ele>4.333333333333334</ele><time>2026-05-01T06:52:23.256Z</time></trkpt><trkpt lat="39.8736906" lon="8.6102826"><ele>3.666666666666667</ele><time>2026-05-01T06:52:24.256Z</time></trkpt><trkpt lat="39.8735382" lon="8.6102466"><ele>3.0</ele><time>2026-05-01T06:52:25.257Z</time></trkpt><trkpt lat="39.8733759" lon="8.6102086"><ele>3.0</ele><time>2026-05-01T06:52:26.257Z</time></trkpt><trkpt lat="39.8732049" lon="8.6101643"><ele>3.0</ele><time>2026-05-01T06:52:27.256Z</time></trkpt><trkpt lat="39.8730334" lon="8.6101202"><ele>3.0</ele><time>2026-05-01T06:52:28.257Z</time></trkpt><trkpt lat="39.8728557" lon="8.6100798"><ele>3.0</ele><time>2026-05-01T06:52:29.257Z</time></trkpt><trkpt lat="39.872676" lon="8.6100378"><ele>3.0</ele><time>2026-05-01T06:52:30.256Z</time></trkpt><trkpt lat="39.8724933" lon="8.6099933"><ele>3.0</ele><time>2026-05-01T06:52:31.257Z</time></trkpt><trkpt lat="39.8723073" lon="8.609947"><ele>3.666666666666667</ele><time>2026-05-01T06:52:32.256Z</time></trkpt><trkpt lat="39.8721237" lon="8.6099014"><ele>4.333333333333334</ele><time>2026-05-01T06:52:33.256Z</time></trkpt><trkpt lat="39.8719449" lon="8.6098563"><ele>5.0</ele><time>2026-05-01T06:52:34.257Z</time></trkpt><trkpt lat="39.8717633" lon="8.6098134"><ele>5.0</ele><time>2026-05-01T06:52:35.255Z</time></trkpt><trkpt lat="39.8715828" lon="8.6097685"><ele>5.0</ele><time>2026-05-01T06:52:36.257Z</time></trkpt><trkpt lat="39.8714059" lon="8.609727"><ele>5.0</ele><time>2026-05-01T06:52:37.256Z</time></trkpt><trkpt lat="39.8712352" lon="8.6096852"><ele>5.0</ele><time>2026-05-01T06:52:38.256Z</time></trkpt><trkpt lat="39.8710699" lon="8.6096426"><ele>5.0</ele><time>2026-05-01T06:52:39.257Z</time></trkpt><trkpt lat="39.8709073" lon="8.6096031"><ele>5.0</ele><time>2026-05-01T06:52:40.256Z</time></trkpt><trkpt lat="39.8707447" lon="8.6095644"><ele>4.75</ele><time>2026-05-01T06:52:41.256Z</time></trkpt><trkpt lat="39.8705838" lon="8.609522"><ele>4.5</ele><time>2026-05-01T06:52:42.257Z</time></trkpt><trkpt lat="39.8704569" lon="8.6094923"><ele>4.25</ele><time>2026-05-01T06:52:43.257Z</time></trkpt><trkpt lat="39.8703305" lon="8.6094599"><ele>4.0</ele><time>2026-05-01T06:52:44.257Z</time></trkpt><trkpt lat="39.8702061" lon="8.6094301"><ele>4.75</ele><time>2026-05-01T06:52:45.257Z</time></trkpt><trkpt lat="39.8700864" lon="8.6093992"><ele>5.5</ele><time>2026-05-01T06:52:46.258Z</time></trkpt><trkpt lat="39.8699661" lon="8.6093696"><ele>6.25</ele><time>2026-05-01T06:52:47.255Z</time></trkpt><trkpt lat="39.8698437" lon="8.6093396"><ele>7.0</ele><time>2026-05-01T06:52:48.257Z</time></trkpt><trkpt lat="39.8697161" lon="8.6093107"><ele>7.0</ele><time>2026-05-01T06:52:49.256Z</time></trkpt><trkpt lat="39.8695828" lon="8.6092808"><ele>7.0</ele><time>2026-05-01T06:52:50.257Z</time></trkpt><trkpt lat="39.8694504" lon="8.6092516"><ele>7.0</ele><time>2026-05-01T06:52:51.257Z</time></trkpt><trkpt lat="39.8693211" lon="8.6092211"><ele>7.0</ele><time>2026-05-01T06:52:52.256Z</time></trkpt><trkpt lat="39.869194" lon="8.6091919"><ele>6.25</ele><time>2026-05-01T06:52:53.258Z</time></trkpt><trkpt lat="39.8690657" lon="8.6091684"><ele>5.5</ele><time>2026-05-01T06:52:54.257Z</time></trkpt><trkpt lat="39.8689406" lon="8.6091498"><ele>4.75</ele><time>2026-05-01T06:52:55.256Z</time></trkpt><trkpt lat="39.8688045" lon="8.6091437"><ele>4.0</ele><time>2026-05-01T06:52:56.257Z</time></trkpt><trkpt lat="39.8686674" lon="8.6091418"><ele>4.0</ele><time>2026-05-01T06:52:57.257Z</time></trkpt><trkpt lat="39.8685195" lon="8.6091561"><ele>4.0</ele><time>2026-05-01T06:52:58.256Z</time></trkpt><trkpt lat="39.8683657" lon="8.6091832"><ele>4.0</ele><time>2026-05-01T06:52:59.255Z</time></trkpt><trkpt lat="39.8682113" lon="8.6092269"><ele>4.333333333333333</ele><time>2026-05-01T06:53:00.255Z</time></trkpt><trkpt lat="39.8680505" lon="8.6092892"><ele>4.666666666666667</ele><time>2026-05-01T06:53:01.257Z</time></trkpt><trkpt lat="39.8678903" lon="8.6093661"><ele>5.0</ele><time>2026-05-01T06:53:02.257Z</time></trkpt><trkpt lat="39.8677298" lon="8.6094452"><ele>4.0</ele><time>2026-05-01T06:53:03.256Z</time></trkpt><trkpt lat="39.8675639" lon="8.60953"><ele>3.0</ele><time>2026-05-01T06:53:04.256Z</time></trkpt><trkpt lat="39.8673952" lon="8.60962"><ele>2.0</ele><time>2026-05-01T06:53:05.256Z</time></trkpt><trkpt lat="39.8672282" lon="8.6097121"><ele>2.0</ele><time>2026-05-01T06:53:06.258Z</time></trkpt><trkpt lat="39.8670536" lon="8.6098076"><ele>2.0</ele><time>2026-05-01T06:53:07.257Z</time></trkpt><trkpt lat="39.8668823" lon="8.6099032"><ele>2.0</ele><time>2026-05-01T06:53:08.256Z</time></trkpt><trkpt lat="39.8667117" lon="8.6100016"><ele>2.0</ele><time>2026-05-01T06:53:09.257Z</time></trkpt><trkpt lat="39.8665404" lon="8.6101079"><ele>2.0</ele><time>2026-05-01T06:53:10.256Z</time></trkpt><trkpt lat="39.8663705" lon="8.6102216"><ele>2.0</ele><time>2026-05-01T06:53:11.257Z</time></trkpt><trkpt lat="39.8662004" lon="8.6103433"><ele>2.0</ele><time>2026-05-01T06:53:12.256Z</time></trkpt><trkpt lat="39.866025" lon="8.6104818"><ele>2.0</ele><time>2026-05-01T06:53:13.256Z</time></trkpt><trkpt lat="39.8658603" lon="8.610619"><ele>2.0</ele><time>2026-05-01T06:53:14.258Z</time></trkpt><trkpt lat="39.8656921" lon="8.6107656"><ele>2.0</ele><time>2026-05-01T06:53:15.257Z</time></trkpt><trkpt lat="39.8655283" lon="8.6109184"><ele>2.0</ele><time>2026-05-01T06:53:16.258Z</time></trkpt><trkpt lat="39.8653647" lon="8.6110704"><ele>2.0</ele><time>2026-05-01T06:53:17.257Z</time></trkpt><trkpt lat="39.8652182" lon="8.6112083"><ele>2.333333333333333</ele><time>2026-05-01T06:53:18.256Z</time></trkpt><trkpt lat="39.8650657" lon="8.6113431"><ele>2.6666666666666665</ele><time>2026-05-01T06:53:19.256Z</time></trkpt><trkpt lat="39.8649062" lon="8.6114571"><ele>3.0</ele><time>2026-05-01T06:53:20.257Z</time></trkpt><trkpt lat="39.8647375" lon="8.6115501"><ele>3.0</ele><time>2026-05-01T06:53:21.258Z</time></trkpt><trkpt lat="39.8645615" lon="8.6116209"><ele>3.0</ele><time>2026-05-01T06:53:22.258Z</time></trkpt><trkpt lat="39.864376" lon="8.6116827"><ele>3.0</ele><time>2026-05-01T06:53:23.255Z</time></trkpt><trkpt lat="39.8641819" lon="8.6117487"><ele>3.0</ele><time>2026-05-01T06:53:24.258Z</time></trkpt><trkpt lat="39.8639776" lon="8.6118193"><ele>3.0</ele><time>2026-05-01T06:53:25.257Z</time></trkpt><trkpt lat="39.8637656" lon="8.6118962"><ele>3.0</ele><time>2026-05-01T06:53:26.257Z</time></trkpt><trkpt lat="39.8635428" lon="8.6119786"><ele>3.0</ele><time>2026-05-01T06:53:27.256Z</time></trkpt><trkpt lat="39.8633128" lon="8.6120575"><ele>3.0</ele><time>2026-05-01T06:53:28.256Z</time></trkpt><trkpt lat="39.8630836" lon="8.6121394"><ele>3.0</ele><time>2026-05-01T06:53:29.258Z</time></trkpt><trkpt lat="39.8628564" lon="8.612227"><ele>3.0</ele><time>2026-05-01T06:53:30.256Z</time></trkpt><trkpt lat="39.8626227" lon="8.6123224"><ele>4.5</ele><time>2026-05-01T06:53:31.258Z</time></trkpt><trkpt lat="39.8623885" lon="8.6124294"><ele>6.0</ele><time>2026-05-01T06:53:32.256Z</time></trkpt><trkpt lat="39.8621513" lon="8.6125471"><ele>6.0</ele><time>2026-05-01T06:53:33.257Z</time></trkpt><trkpt lat="39.8619137" lon="8.612668"><ele>6.0</ele><time>2026-05-01T06:53:34.257Z</time></trkpt><trkpt lat="39.8616855" lon="8.6127905"><ele>5.5</ele><time>2026-05-01T06:53:35.256Z</time></trkpt><trkpt lat="39.8614622" lon="8.612913"><ele>5.0</ele><time>2026-05-01T06:53:36.257Z</time></trkpt><trkpt lat="39.8612417" lon="8.6130301"><ele>5.0</ele><time>2026-05-01T06:53:37.256Z</time></trkpt><trkpt lat="39.8610169" lon="8.6131462"><ele>5.0</ele><time>2026-05-01T06:53:38.257Z</time></trkpt><trkpt lat="39.8607953" lon="8.613268"><ele>5.5</ele><time>2026-05-01T06:53:39.257Z</time></trkpt><trkpt lat="39.8605708" lon="8.6133894"><ele>6.0</ele><time>2026-05-01T06:53:40.256Z</time></trkpt><trkpt lat="39.8603474" lon="8.6135093"><ele>6.0</ele><time>2026-05-01T06:53:41.256Z</time></trkpt><trkpt lat="39.8601226" lon="8.6136253"><ele>6.0</ele><time>2026-05-01T06:53:42.257Z</time></trkpt><trkpt lat="39.8598995" lon="8.6137468"><ele>5.0</ele><time>2026-05-01T06:53:43.257Z</time></trkpt><trkpt lat="39.8596767" lon="8.6138687"><ele>4.0</ele><time>2026-05-01T06:53:44.256Z</time></trkpt><trkpt lat="39.8594594" lon="8.6139909"><ele>3.5</ele><time>2026-05-01T06:53:45.256Z</time></trkpt><trkpt lat="39.859244" lon="8.6141092"><ele>3.0</ele><time>2026-05-01T06:53:46.257Z</time></trkpt><trkpt lat="39.8590257" lon="8.6142315"><ele>3.0</ele><time>2026-05-01T06:53:47.258Z</time></trkpt><trkpt lat="39.8588103" lon="8.6143494"><ele>3.0</ele><time>2026-05-01T06:53:48.255Z</time></trkpt><trkpt lat="39.8585921" lon="8.6144677"><ele>3.0</ele><time>2026-05-01T06:53:49.256Z</time></trkpt><trkpt lat="39.8583731" lon="8.6145878"><ele>3.0</ele><time>2026-05-01T06:53:50.256Z</time></trkpt><trkpt lat="39.858153" lon="8.6147079"><ele>3.0</ele><time>2026-05-01T06:53:51.255Z</time></trkpt><trkpt lat="39.8579338" lon="8.6148305"><ele>3.0</ele><time>2026-05-01T06:53:52.256Z</time></trkpt><trkpt lat="39.8577131" lon="8.6149523"><ele>2.5</ele><time>2026-05-01T06:53:53.257Z</time></trkpt><trkpt lat="39.857491" lon="8.6150715"><ele>2.0</ele><time>2026-05-01T06:53:54.257Z</time></trkpt><trkpt lat="39.8572724" lon="8.6151899"><ele>2.0</ele><time>2026-05-01T06:53:55.257Z</time></trkpt><trkpt lat="39.8570529" lon="8.6153108"><ele>2.0</ele><time>2026-05-01T06:53:56.257Z</time></trkpt><trkpt lat="39.8568335" lon="8.6154294"><ele>3.0</ele><time>2026-05-01T06:53:57.256Z</time></trkpt><trkpt lat="39.8566151" lon="8.6155479"><ele>4.0</ele><time>2026-05-01T06:53:58.257Z</time></trkpt><trkpt lat="39.8563966" lon="8.615666"><ele>4.0</ele><time>2026-05-01T06:53:59.257Z</time></trkpt><trkpt lat="39.856179" lon="8.6157795"><ele>4.0</ele><time>2026-05-01T06:54:00.257Z</time></trkpt><trkpt lat="39.8559632" lon="8.6158945"><ele>5.0</ele><time>2026-05-01T06:54:01.258Z</time></trkpt><trkpt lat="39.8557461" lon="8.6160098"><ele>6.0</ele><time>2026-05-01T06:54:02.257Z</time></trkpt><trkpt lat="39.8555289" lon="8.6161265"><ele>4.5</ele><time>2026-05-01T06:54:03.255Z</time></trkpt><trkpt lat="39.8553111" lon="8.6162412"><ele>3.0</ele><time>2026-05-01T06:54:04.257Z</time></trkpt><trkpt lat="39.8550936" lon="8.6163593"><ele>3.0</ele><time>2026-05-01T06:54:05.256Z</time></trkpt><trkpt lat="39.8548744" lon="8.6164808"><ele>3.0</ele><time>2026-05-01T06:54:06.256Z</time></trkpt><trkpt lat="39.8546521" lon="8.6166"><ele>3.0</ele><time>2026-05-01T06:54:07.257Z</time></trkpt><trkpt lat="39.8544309" lon="8.6167186"><ele>3.0</ele><time>2026-05-01T06:54:08.257Z</time></trkpt><trkpt lat="39.8542066" lon="8.6168377"><ele>2.5</ele><time>2026-05-01T06:54:09.257Z</time></trkpt><trkpt lat="39.8539803" lon="8.6169603"><ele>2.0</ele><time>2026-05-01T06:54:10.257Z</time></trkpt><trkpt lat="39.8537542" lon="8.6170823"><ele>2.0</ele><time>2026-05-01T06:54:11.256Z</time></trkpt><trkpt lat="39.8535243" lon="8.6172054"><ele>2.0</ele><time>2026-05-01T06:54:12.258Z</time></trkpt><trkpt lat="39.8532937" lon="8.617329"><ele>2.0</ele><time>2026-05-01T06:54:13.257Z</time></trkpt><trkpt lat="39.8530631" lon="8.6174569"><ele>2.0</ele><time>2026-05-01T06:54:14.256Z</time></trkpt><trkpt lat="39.8528281" lon="8.6175862"><ele>2.0</ele><time>2026-05-01T06:54:15.255Z</time></trkpt><trkpt lat="39.8525941" lon="8.6177102"><ele>2.0</ele><time>2026-05-01T06:54:16.257Z</time></trkpt><trkpt lat="39.852353" lon="8.6178357"><ele>2.0</ele><time>2026-05-01T06:54:17.258Z</time></trkpt><trkpt lat="39.8521155" lon="8.6179609"><ele>2.0</ele><time>2026-05-01T06:54:18.257Z</time></trkpt><trkpt lat="39.8518795" lon="8.6180839"><ele>3.0</ele><time>2026-05-01T06:54:19.256Z</time></trkpt><trkpt lat="39.8516457" lon="8.6182065"><ele>4.0</ele><time>2026-05-01T06:54:20.257Z</time></trkpt><trkpt lat="39.8514105" lon="8.6183326"><ele>4.0</ele><time>2026-05-01T06:54:21.257Z</time></trkpt><trkpt lat="39.8511752" lon="8.6184581"><ele>4.0</ele><time>2026-05-01T06:54:22.258Z</time></trkpt><trkpt lat="39.8509425" lon="8.6185827"><ele>4.5</ele><time>2026-05-01T06:54:23.256Z</time></trkpt><trkpt lat="39.8507101" lon="8.6187074"><ele>5.0</ele><time>2026-05-01T06:54:24.257Z</time></trkpt><trkpt lat="39.8504762" lon="8.6188312"><ele>5.0</ele><time>2026-05-01T06:54:25.256Z</time></trkpt><trkpt lat="39.8502429" lon="8.6189541"><ele>5.0</ele><time>2026-05-01T06:54:26.257Z</time></trkpt><trkpt lat="39.8500089" lon="8.6190778"><ele>4.5</ele><time>2026-05-01T06:54:27.258Z</time></trkpt><trkpt lat="39.8497736" lon="8.6192011"><ele>4.0</ele><time>2026-05-01T06:54:28.258Z</time></trkpt><trkpt lat="39.8495382" lon="8.6193213"><ele>4.0</ele><time>2026-05-01T06:54:29.257Z</time></trkpt><trkpt lat="39.8493002" lon="8.6194444"><ele>4.0</ele><time>2026-05-01T06:54:30.256Z</time></trkpt><trkpt lat="39.8490675" lon="8.6195689"><ele>5.0</ele><time>2026-05-01T06:54:31.257Z</time></trkpt><trkpt lat="39.8488313" lon="8.6196936"><ele>6.0</ele><time>2026-05-01T06:54:32.258Z</time></trkpt><trkpt lat="39.8485942" lon="8.6198198"><ele>5.5</ele><time>2026-05-01T06:54:33.255Z</time></trkpt><trkpt lat="39.8483568" lon="8.6199484"><ele>5.0</ele><time>2026-05-01T06:54:34.257Z</time></trkpt><trkpt lat="39.848121" lon="8.6200739"><ele>5.0</ele><time>2026-05-01T06:54:35.256Z</time></trkpt><trkpt lat="39.8478909" lon="8.6201977"><ele>5.0</ele><time>2026-05-01T06:54:36.257Z</time></trkpt><trkpt lat="39.847663" lon="8.6203176"><ele>5.0</ele><time>2026-05-01T06:54:37.258Z</time></trkpt><trkpt lat="39.8474382" lon="8.6204378"><ele>5.0</ele><time>2026-05-01T06:54:38.257Z</time></trkpt><trkpt lat="39.8472095" lon="8.6205601"><ele>5.0</ele><time>2026-05-01T06:54:39.256Z</time></trkpt><trkpt lat="39.8469779" lon="8.6206811"><ele>5.0</ele><time>2026-05-01T06:54:40.257Z</time></trkpt><trkpt lat="39.8467429" lon="8.6208028"><ele>5.5</ele><time>2026-05-01T06:54:41.256Z</time></trkpt><trkpt lat="39.8465095" lon="8.6209275"><ele>6.0</ele><time>2026-05-01T06:54:42.256Z</time></trkpt><trkpt lat="39.8462757" lon="8.6210495"><ele>6.0</ele><time>2026-05-01T06:54:43.255Z</time></trkpt><trkpt lat="39.8460375" lon="8.6211697"><ele>6.0</ele><time>2026-05-01T06:54:44.256Z</time></trkpt><trkpt lat="39.8457942" lon="8.6212991"><ele>6.0</ele><time>2026-05-01T06:54:45.258Z</time></trkpt><trkpt lat="39.8455544" lon="8.621432"><ele>6.0</ele><time>2026-05-01T06:54:46.256Z</time></trkpt><trkpt lat="39.8453129" lon="8.6215621"><ele>7.0</ele><time>2026-05-01T06:54:47.257Z</time></trkpt><trkpt lat="39.8450734" lon="8.6216916"><ele>8.0</ele><time>2026-05-01T06:54:48.256Z</time></trkpt><trkpt lat="39.8448333" lon="8.6218205"><ele>8.0</ele><time>2026-05-01T06:54:49.257Z</time></trkpt><trkpt lat="39.8445934" lon="8.6219458"><ele>8.0</ele><time>2026-05-01T06:54:50.256Z</time></trkpt><trkpt lat="39.8443523" lon="8.6220721"><ele>8.5</ele><time>2026-05-01T06:54:51.256Z</time></trkpt><trkpt lat="39.8441153" lon="8.6222012"><ele>9.0</ele><time>2026-05-01T06:54:52.256Z</time></trkpt><trkpt lat="39.8438804" lon="8.6223303"><ele>9.0</ele><time>2026-05-01T06:54:53.257Z</time></trkpt><trkpt lat="39.8436453" lon="8.6224601"><ele>9.0</ele><time>2026-05-01T06:54:54.256Z</time></trkpt><trkpt lat="39.8434095" lon="8.6225865"><ele>9.0</ele><time>2026-05-01T06:54:55.256Z</time></trkpt><trkpt lat="39.8431754" lon="8.622716"><ele>9.0</ele><time>2026-05-01T06:54:56.257Z</time></trkpt><trkpt lat="39.8429378" lon="8.6228438"><ele>8.5</ele><time>2026-05-01T06:54:57.257Z</time></trkpt><trkpt lat="39.8427005" lon="8.6229772"><ele>8.0</ele><time>2026-05-01T06:54:58.256Z</time></trkpt><trkpt lat="39.8424602" lon="8.6231046"><ele>7.5</ele><time>2026-05-01T06:54:59.255Z</time></trkpt><trkpt lat="39.842219" lon="8.6232339"><ele>7.0</ele><time>2026-05-01T06:55:00.257Z</time></trkpt><trkpt lat="39.8419802" lon="8.6233635"><ele>6.5</ele><time>2026-05-01T06:55:01.257Z</time></trkpt><trkpt lat="39.8417391" lon="8.6234962"><ele>6.0</ele><time>2026-05-01T06:55:02.256Z</time></trkpt><trkpt lat="39.8414942" lon="8.6236306"><ele>7.0</ele><time>2026-05-01T06:55:03.258Z</time></trkpt><trkpt lat="39.8412493" lon="8.623766"><ele>8.0</ele><time>2026-05-01T06:55:04.258Z</time></trkpt><trkpt lat="39.8410005" lon="8.6238995"><ele>7.0</ele><time>2026-05-01T06:55:05.256Z</time></trkpt><trkpt lat="39.8407511" lon="8.624036"><ele>6.0</ele><time>2026-05-01T06:55:06.257Z</time></trkpt><trkpt lat="39.8405018" lon="8.6241682"><ele>6.0</ele><time>2026-05-01T06:55:07.257Z</time></trkpt><trkpt lat="39.8402486" lon="8.624302"><ele>6.0</ele><time>2026-05-01T06:55:08.256Z</time></trkpt><trkpt lat="39.8399961" lon="8.624438"><ele>6.5</ele><time>2026-05-01T06:55:09.256Z</time></trkpt><trkpt lat="39.8397443" lon="8.6245741"><ele>7.0</ele><time>2026-05-01T06:55:10.256Z</time></trkpt><trkpt lat="39.8394925" lon="8.6247109"><ele>7.5</ele><time>2026-05-01T06:55:11.257Z</time></trkpt><trkpt lat="39.8392395" lon="8.6248487"><ele>8.0</ele><time>2026-05-01T06:55:12.256Z</time></trkpt><trkpt lat="39.8389864" lon="8.6249847"><ele>8.0</ele><time>2026-05-01T06:55:13.256Z</time></trkpt><trkpt lat="39.838733" lon="8.6251201"><ele>8.0</ele><time>2026-05-01T06:55:14.257Z</time></trkpt><trkpt lat="39.8384809" lon="8.625254"><ele>9.5</ele><time>2026-05-01T06:55:15.258Z</time></trkpt><trkpt lat="39.8382311" lon="8.6253898"><ele>11.0</ele><time>2026-05-01T06:55:16.255Z</time></trkpt><trkpt lat="39.8379818" lon="8.6255251"><ele>11.0</ele><time>2026-05-01T06:55:17.256Z</time></trkpt><trkpt lat="39.837733" lon="8.6256583"><ele>11.0</ele><time>2026-05-01T06:55:18.258Z</time></trkpt><trkpt lat="39.8374843" lon="8.6257872"><ele>11.0</ele><time>2026-05-01T06:55:19.257Z</time></trkpt><trkpt lat="39.8372381" lon="8.6259186"><ele>11.0</ele><time>2026-05-01T06:55:20.257Z</time></trkpt><trkpt lat="39.8369894" lon="8.6260495"><ele>10.5</ele><time>2026-05-01T06:55:21.257Z</time></trkpt><trkpt lat="39.8367416" lon="8.6261793"><ele>10.0</ele><time>2026-05-01T06:55:22.255Z</time></trkpt><trkpt lat="39.836494" lon="8.6263105"><ele>10.0</ele><time>2026-05-01T06:55:23.256Z</time></trkpt><trkpt lat="39.8362455" lon="8.6264397"><ele>10.0</ele><time>2026-05-01T06:55:24.255Z</time></trkpt><trkpt lat="39.8359977" lon="8.6265665"><ele>10.5</ele><time>2026-05-01T06:55:25.257Z</time></trkpt><trkpt lat="39.8357583" lon="8.6266893"><ele>11.0</ele><time>2026-05-01T06:55:26.258Z</time></trkpt><trkpt lat="39.8355218" lon="8.6268111"><ele>11.0</ele><time>2026-05-01T06:55:27.256Z</time></trkpt><trkpt lat="39.835285" lon="8.6269347"><ele>11.0</ele><time>2026-05-01T06:55:28.257Z</time></trkpt><trkpt lat="39.8350477" lon="8.6270543"><ele>10.0</ele><time>2026-05-01T06:55:29.256Z</time></trkpt><trkpt lat="39.8348111" lon="8.627179"><ele>9.0</ele><time>2026-05-01T06:55:30.257Z</time></trkpt><trkpt lat="39.8345744" lon="8.6272991"><ele>9.0</ele><time>2026-05-01T06:55:31.257Z</time></trkpt><trkpt lat="39.834337" lon="8.6274201"><ele>9.0</ele><time>2026-05-01T06:55:32.255Z</time></trkpt><trkpt lat="39.8340974" lon="8.6275416"><ele>9.5</ele><time>2026-05-01T06:55:33.257Z</time></trkpt><trkpt lat="39.8338549" lon="8.6276677"><ele>10.0</ele><time>2026-05-01T06:55:34.257Z</time></trkpt><trkpt lat="39.8336109" lon="8.6277954"><ele>10.0</ele><time>2026-05-01T06:55:35.257Z</time></trkpt><trkpt lat="39.8333651" lon="8.6279239"><ele>10.0</ele><time>2026-05-01T06:55:36.257Z</time></trkpt><trkpt lat="39.8331176" lon="8.6280526"><ele>10.0</ele><time>2026-05-01T06:55:37.255Z</time></trkpt><trkpt lat="39.832867" lon="8.62818"><ele>10.0</ele><time>2026-05-01T06:55:38.257Z</time></trkpt><trkpt lat="39.8326127" lon="8.6283059"><ele>9.0</ele><time>2026-05-01T06:55:39.256Z</time></trkpt><trkpt lat="39.8323602" lon="8.6284339"><ele>8.0</ele><time>2026-05-01T06:55:40.258Z</time></trkpt><trkpt lat="39.8321045" lon="8.6285615"><ele>8.0</ele><time>2026-05-01T06:55:41.256Z</time></trkpt><trkpt lat="39.8318505" lon="8.6286899"><ele>8.0</ele><time>2026-05-01T06:55:42.257Z</time></trkpt><trkpt lat="39.8316008" lon="8.628818"><ele>8.0</ele><time>2026-05-01T06:55:43.258Z</time></trkpt><trkpt lat="39.8313505" lon="8.6289457"><ele>8.0</ele><time>2026-05-01T06:55:44.257Z</time></trkpt><trkpt lat="39.8310978" lon="8.6290731"><ele>6.0</ele><time>2026-05-01T06:55:45.256Z</time></trkpt><trkpt lat="39.8308505" lon="8.6292018"><ele>4.0</ele><time>2026-05-01T06:55:46.257Z</time></trkpt><trkpt lat="39.8306047" lon="8.6293248"><ele>4.0</ele><time>2026-05-01T06:55:47.257Z</time></trkpt><trkpt lat="39.8303618" lon="8.6294495"><ele>4.0</ele><time>2026-05-01T06:55:48.257Z</time></trkpt><trkpt lat="39.8301222" lon="8.6295707"><ele>3.0</ele><time>2026-05-01T06:55:49.258Z</time></trkpt><trkpt lat="39.8298853" lon="8.6296933"><ele>2.0</ele><time>2026-05-01T06:55:50.257Z</time></trkpt><trkpt lat="39.829649" lon="8.6298149"><ele>2.0</ele><time>2026-05-01T06:55:51.258Z</time></trkpt><trkpt lat="39.8294077" lon="8.6299338"><ele>2.0</ele><time>2026-05-01T06:55:52.257Z</time></trkpt><trkpt lat="39.8291695" lon="8.6300541"><ele>3.0</ele><time>2026-05-01T06:55:53.257Z</time></trkpt><trkpt lat="39.828931" lon="8.630175"><ele>4.0</ele><time>2026-05-01T06:55:54.257Z</time></trkpt><trkpt lat="39.8286939" lon="8.6302985"><ele>3.0</ele><time>2026-05-01T06:55:55.257Z</time></trkpt><trkpt lat="39.8284572" lon="8.6304247"><ele>2.0</ele><time>2026-05-01T06:55:56.256Z</time></trkpt><trkpt lat="39.8282196" lon="8.6305481"><ele>2.0</ele><time>2026-05-01T06:55:57.257Z</time></trkpt><trkpt lat="39.8279837" lon="8.6306703"><ele>2.0</ele><time>2026-05-01T06:55:58.257Z</time></trkpt><trkpt lat="39.8277467" lon="8.6307931"><ele>2.0</ele><time>2026-05-01T06:55:59.257Z</time></trkpt><trkpt lat="39.8275116" lon="8.6309153"><ele>2.0</ele><time>2026-05-01T06:56:00.256Z</time></trkpt><trkpt lat="39.8272792" lon="8.6310387"><ele>2.0</ele><time>2026-05-01T06:56:01.257Z</time></trkpt><trkpt lat="39.8270479" lon="8.6311597"><ele>2.0</ele><time>2026-05-01T06:56:02.257Z</time></trkpt><trkpt lat="39.8268183" lon="8.6312834"><ele>3.5</ele><time>2026-05-01T06:56:03.258Z</time></trkpt><trkpt lat="39.8265897" lon="8.631407"><ele>5.0</ele><time>2026-05-01T06:56:04.257Z</time></trkpt><trkpt lat="39.8263611" lon="8.6315309"><ele>5.0</ele><time>2026-05-01T06:56:05.256Z</time></trkpt><trkpt lat="39.8261328" lon="8.6316536"><ele>5.0</ele><time>2026-05-01T06:56:06.257Z</time></trkpt><trkpt lat="39.8259062" lon="8.6317768"><ele>4.5</ele><time>2026-05-01T06:56:07.257Z</time></trkpt><trkpt lat="39.8256787" lon="8.6318993"><ele>4.0</ele><time>2026-05-01T06:56:08.257Z</time></trkpt><trkpt lat="39.8254496" lon="8.6320188"><ele>4.5</ele><time>2026-05-01T06:56:09.258Z</time></trkpt><trkpt lat="39.8252218" lon="8.6321388"><ele>5.0</ele><time>2026-05-01T06:56:10.256Z</time></trkpt><trkpt lat="39.824993" lon="8.6322595"><ele>5.0</ele><time>2026-05-01T06:56:11.257Z</time></trkpt><trkpt lat="39.8247629" lon="8.6323831"><ele>5.0</ele><time>2026-05-01T06:56:12.257Z</time></trkpt><trkpt lat="39.824535" lon="8.6325136"><ele>4.0</ele><time>2026-05-01T06:56:13.258Z</time></trkpt><trkpt lat="39.8243053" lon="8.632644"><ele>3.0</ele><time>2026-05-01T06:56:14.257Z</time></trkpt><trkpt lat="39.8240759" lon="8.6327715"><ele>3.0</ele><time>2026-05-01T06:56:15.257Z</time></trkpt><trkpt lat="39.8238455" lon="8.6329032"><ele>3.0</ele><time>2026-05-01T06:56:16.255Z</time></trkpt><trkpt lat="39.8236139" lon="8.6330353"><ele>3.5</ele><time>2026-05-01T06:56:17.255Z</time></trkpt><trkpt lat="39.8233857" lon="8.6331655"><ele>4.0</ele><time>2026-05-01T06:56:18.257Z</time></trkpt><trkpt lat="39.8231555" lon="8.6332968"><ele>4.0</ele><time>2026-05-01T06:56:19.256Z</time></trkpt><trkpt lat="39.8229277" lon="8.6334293"><ele>4.0</ele><time>2026-05-01T06:56:20.256Z</time></trkpt><trkpt lat="39.8226986" lon="8.6335635"><ele>4.5</ele><time>2026-05-01T06:56:21.256Z</time></trkpt><trkpt lat="39.8224658" lon="8.6336943"><ele>5.0</ele><time>2026-05-01T06:56:22.257Z</time></trkpt><trkpt lat="39.8222351" lon="8.6338297"><ele>5.0</ele><time>2026-05-01T06:56:23.256Z</time></trkpt><trkpt lat="39.8220053" lon="8.6339632"><ele>5.0</ele><time>2026-05-01T06:56:24.256Z</time></trkpt><trkpt lat="39.8217699" lon="8.6340966"><ele>5.5</ele><time>2026-05-01T06:56:25.256Z</time></trkpt><trkpt lat="39.8215335" lon="8.6342294"><ele>6.0</ele><time>2026-05-01T06:56:26.257Z</time></trkpt><trkpt lat="39.8212987" lon="8.6343626"><ele>6.0</ele><time>2026-05-01T06:56:27.257Z</time></trkpt><trkpt lat="39.821063" lon="8.634498"><ele>6.0</ele><time>2026-05-01T06:56:28.258Z</time></trkpt><trkpt lat="39.8208252" lon="8.6346326"><ele>7.0</ele><time>2026-05-01T06:56:29.256Z</time></trkpt><trkpt lat="39.8205823" lon="8.6347652"><ele>8.0</ele><time>2026-05-01T06:56:30.256Z</time></trkpt><trkpt lat="39.8203441" lon="8.6348961"><ele>9.5</ele><time>2026-05-01T06:56:31.257Z</time></trkpt><trkpt lat="39.820104" lon="8.6350254"><ele>11.0</ele><time>2026-05-01T06:56:32.257Z</time></trkpt><trkpt lat="39.8198651" lon="8.6351579"><ele>11.0</ele><time>2026-05-01T06:56:33.258Z</time></trkpt><trkpt lat="39.8196256" lon="8.6352893"><ele>11.0</ele><time>2026-05-01T06:56:34.256Z</time></trkpt><trkpt lat="39.8193837" lon="8.6354161"><ele>12.0</ele><time>2026-05-01T06:56:35.257Z</time></trkpt><trkpt lat="39.8191488" lon="8.6355464"><ele>13.0</ele><time>2026-05-01T06:56:36.258Z</time></trkpt><trkpt lat="39.8189118" lon="8.6356837"><ele>13.0</ele><time>2026-05-01T06:56:37.256Z</time></trkpt><trkpt lat="39.8186747" lon="8.6358104"><ele>13.0</ele><time>2026-05-01T06:56:38.257Z</time></trkpt><trkpt lat="39.8184369" lon="8.6359402"><ele>12.0</ele><time>2026-05-01T06:56:39.255Z</time></trkpt><trkpt lat="39.8182008" lon="8.6360721"><ele>11.0</ele><time>2026-05-01T06:56:40.257Z</time></trkpt><trkpt lat="39.8179642" lon="8.6362002"><ele>11.5</ele><time>2026-05-01T06:56:41.256Z</time></trkpt><trkpt lat="39.8177243" lon="8.6363304"><ele>12.0</ele><time>2026-05-01T06:56:42.257Z</time></trkpt><trkpt lat="39.8174877" lon="8.6364586"><ele>12.0</ele><time>2026-05-01T06:56:43.256Z</time></trkpt><trkpt lat="39.8172523" lon="8.6365848"><ele>12.0</ele><time>2026-05-01T06:56:44.255Z</time></trkpt><trkpt lat="39.817013" lon="8.6367134"><ele>10.0</ele><time>2026-05-01T06:56:45.257Z</time></trkpt><trkpt lat="39.8167765" lon="8.6368394"><ele>8.0</ele><time>2026-05-01T06:56:46.257Z</time></trkpt><trkpt lat="39.8165367" lon="8.6369686"><ele>9.0</ele><time>2026-05-01T06:56:47.256Z</time></trkpt><trkpt lat="39.8162955" lon="8.6370985"><ele>10.0</ele><time>2026-05-01T06:56:48.257Z</time></trkpt><trkpt lat="39.8160539" lon="8.6372303"><ele>9.5</ele><time>2026-05-01T06:56:49.256Z</time></trkpt><trkpt lat="39.815814" lon="8.63736"><ele>9.0</ele><time>2026-05-01T06:56:50.256Z</time></trkpt><trkpt lat="39.8155696" lon="8.6374944"><ele>9.0</ele><time>2026-05-01T06:56:51.257Z</time></trkpt><trkpt lat="39.8153296" lon="8.6376244"><ele>9.0</ele><time>2026-05-01T06:56:52.256Z</time></trkpt><trkpt lat="39.8150865" lon="8.6377543"><ele>11.0</ele><time>2026-05-01T06:56:53.257Z</time></trkpt><trkpt lat="39.8148445" lon="8.6378849"><ele>13.0</ele><time>2026-05-01T06:56:54.257Z</time></trkpt><trkpt lat="39.8146027" lon="8.6380123"><ele>13.0</ele><time>2026-05-01T06:56:55.257Z</time></trkpt><trkpt lat="39.8143608" lon="8.6381388"><ele>13.0</ele><time>2026-05-01T06:56:56.256Z</time></trkpt><trkpt lat="39.8141189" lon="8.6382672"><ele>14.5</ele><time>2026-05-01T06:56:57.256Z</time></trkpt><trkpt lat="39.8138766" lon="8.6383946"><ele>16.0</ele><time>2026-05-01T06:56:58.257Z</time></trkpt><trkpt lat="39.8136355" lon="8.6385209"><ele>16.5</ele><time>2026-05-01T06:56:59.255Z</time></trkpt><trkpt lat="39.8133919" lon="8.6386561"><ele>17.0</ele><time>2026-05-01T06:57:00.256Z</time></trkpt><trkpt lat="39.8131498" lon="8.6387841"><ele>17.0</ele><time>2026-05-01T06:57:01.258Z</time></trkpt><trkpt lat="39.8129081" lon="8.6389142"><ele>17.0</ele><time>2026-05-01T06:57:02.257Z</time></trkpt><trkpt lat="39.812663" lon="8.6390397"><ele>17.0</ele><time>2026-05-01T06:57:03.257Z</time></trkpt><trkpt lat="39.812418" lon="8.6391664"><ele>17.0</ele><time>2026-05-01T06:57:04.257Z</time></trkpt><trkpt lat="39.8121709" lon="8.6392971"><ele>17.0</ele><time>2026-05-01T06:57:05.256Z</time></trkpt><trkpt lat="39.8119248" lon="8.6394274"><ele>17.0</ele><time>2026-05-01T06:57:06.256Z</time></trkpt><trkpt lat="39.8116798" lon="8.6395601"><ele>17.0</ele><time>2026-05-01T06:57:07.256Z</time></trkpt><trkpt lat="39.8114309" lon="8.6396907"><ele>17.0</ele><time>2026-05-01T06:57:08.256Z</time></trkpt><trkpt lat="39.8111851" lon="8.639824"><ele>17.0</ele><time>2026-05-01T06:57:09.258Z</time></trkpt><trkpt lat="39.8109388" lon="8.639956"><ele>17.0</ele><time>2026-05-01T06:57:10.256Z</time></trkpt><trkpt lat="39.8106925" lon="8.6400896"><ele>17.0</ele><time>2026-05-01T06:57:11.256Z</time></trkpt><trkpt lat="39.810443" lon="8.6402202"><ele>17.0</ele><time>2026-05-01T06:57:12.257Z</time></trkpt><trkpt lat="39.810193" lon="8.6403522"><ele>16.0</ele><time>2026-05-01T06:57:13.256Z</time></trkpt><trkpt lat="39.8099428" lon="8.6404854"><ele>15.0</ele><time>2026-05-01T06:57:14.257Z</time></trkpt><trkpt lat="39.8096909" lon="8.6406165"><ele>15.0</ele><time>2026-05-01T06:57:15.255Z</time></trkpt><trkpt lat="39.8094382" lon="8.6407503"><ele>15.0</ele><time>2026-05-01T06:57:16.256Z</time></trkpt><trkpt lat="39.8091876" lon="8.640884"><ele>14.5</ele><time>2026-05-01T06:57:17.258Z</time></trkpt><trkpt lat="39.8089374" lon="8.6410167"><ele>14.0</ele><time>2026-05-01T06:57:18.256Z</time></trkpt><trkpt lat="39.8086882" lon="8.6411491"><ele>12.5</ele><time>2026-05-01T06:57:19.256Z</time></trkpt><trkpt lat="39.8084388" lon="8.6412825"><ele>11.0</ele><time>2026-05-01T06:57:20.255Z</time></trkpt><trkpt lat="39.8081924" lon="8.6414155"><ele>11.0</ele><time>2026-05-01T06:57:21.255Z</time></trkpt><trkpt lat="39.8079401" lon="8.6415465"><ele>11.0</ele><time>2026-05-01T06:57:22.257Z</time></trkpt><trkpt lat="39.8076947" lon="8.6416773"><ele>12.5</ele><time>2026-05-01T06:57:23.257Z</time></trkpt><trkpt lat="39.8074472" lon="8.6418084"><ele>14.0</ele><time>2026-05-01T06:57:24.257Z</time></trkpt><trkpt lat="39.8072019" lon="8.6419412"><ele>14.0</ele><time>2026-05-01T06:57:25.258Z</time></trkpt><trkpt lat="39.8069589" lon="8.642076"><ele>14.0</ele><time>2026-05-01T06:57:26.257Z</time></trkpt><trkpt lat="39.8067147" lon="8.6422103"><ele>14.0</ele><time>2026-05-01T06:57:27.257Z</time></trkpt><trkpt lat="39.8064723" lon="8.6423466"><ele>14.0</ele><time>2026-05-01T06:57:28.257Z</time></trkpt><trkpt lat="39.8062305" lon="8.6424834"><ele>14.0</ele><time>2026-05-01T06:57:29.257Z</time></trkpt><trkpt lat="39.8059893" lon="8.6426193"><ele>14.0</ele><time>2026-05-01T06:57:30.257Z</time></trkpt><trkpt lat="39.8057466" lon="8.6427562"><ele>16.0</ele><time>2026-05-01T06:57:31.255Z</time></trkpt><trkpt lat="39.805506" lon="8.6428908"><ele>18.0</ele><time>2026-05-01T06:57:32.257Z</time></trkpt><trkpt lat="39.8052631" lon="8.643024"><ele>17.5</ele><time>2026-05-01T06:57:33.257Z</time></trkpt><trkpt lat="39.805018" lon="8.6431521"><ele>17.0</ele><time>2026-05-01T06:57:34.257Z</time></trkpt><trkpt lat="39.8047725" lon="8.6432762"><ele>17.0</ele><time>2026-05-01T06:57:35.257Z</time></trkpt><trkpt lat="39.8045272" lon="8.6434006"><ele>17.0</ele><time>2026-05-01T06:57:36.258Z</time></trkpt><trkpt lat="39.8042839" lon="8.6435235"><ele>17.5</ele><time>2026-05-01T06:57:37.258Z</time></trkpt><trkpt lat="39.8040399" lon="8.643647"><ele>18.0</ele><time>2026-05-01T06:57:38.255Z</time></trkpt><trkpt lat="39.8037964" lon="8.6437719"><ele>18.0</ele><time>2026-05-01T06:57:39.257Z</time></trkpt><trkpt lat="39.8035548" lon="8.6438981"><ele>18.0</ele><time>2026-05-01T06:57:40.256Z</time></trkpt><trkpt lat="39.8033152" lon="8.644026"><ele>18.0</ele><time>2026-05-01T06:57:41.256Z</time></trkpt><trkpt lat="39.8030794" lon="8.6441517"><ele>18.0</ele><time>2026-05-01T06:57:42.257Z</time></trkpt><trkpt lat="39.8028451" lon="8.6442761"><ele>18.0</ele><time>2026-05-01T06:57:43.258Z</time></trkpt><trkpt lat="39.8026092" lon="8.6443971"><ele>18.0</ele><time>2026-05-01T06:57:44.257Z</time></trkpt><trkpt lat="39.802376" lon="8.6445204"><ele>18.5</ele><time>2026-05-01T06:57:45.257Z</time></trkpt><trkpt lat="39.8021393" lon="8.6446433"><ele>19.0</ele><time>2026-05-01T06:57:46.258Z</time></trkpt><trkpt lat="39.801911" lon="8.6447678"><ele>19.0</ele><time>2026-05-01T06:57:47.257Z</time></trkpt><trkpt lat="39.8016827" lon="8.6448907"><ele>19.0</ele><time>2026-05-01T06:57:48.257Z</time></trkpt><trkpt lat="39.801455" lon="8.6450154"><ele>19.0</ele><time>2026-05-01T06:57:49.256Z</time></trkpt><trkpt lat="39.8012262" lon="8.6451383"><ele>19.0</ele><time>2026-05-01T06:57:50.256Z</time></trkpt><trkpt lat="39.8009965" lon="8.6452623"><ele>19.5</ele><time>2026-05-01T06:57:51.258Z</time></trkpt><trkpt lat="39.8007688" lon="8.6453854"><ele>20.0</ele><time>2026-05-01T06:57:52.256Z</time></trkpt><trkpt lat="39.8005426" lon="8.6455102"><ele>20.0</ele><time>2026-05-01T06:57:53.256Z</time></trkpt><trkpt lat="39.8003157" lon="8.6456329"><ele>20.0</ele><time>2026-05-01T06:57:54.257Z</time></trkpt><trkpt lat="39.8000885" lon="8.6457566"><ele>20.0</ele><time>2026-05-01T06:57:55.255Z</time></trkpt><trkpt lat="39.7998612" lon="8.6458785"><ele>20.0</ele><time>2026-05-01T06:57:56.257Z</time></trkpt><trkpt lat="39.7996323" lon="8.6460051"><ele>21.0</ele><time>2026-05-01T06:57:57.256Z</time></trkpt><trkpt lat="39.7993999" lon="8.6461309"><ele>22.0</ele><time>2026-05-01T06:57:58.256Z</time></trkpt><trkpt lat="39.7991722" lon="8.6462557"><ele>22.0</ele><time>2026-05-01T06:57:59.257Z</time></trkpt><trkpt lat="39.7989299" lon="8.6463814"><ele>22.0</ele><time>2026-05-01T06:58:00.257Z</time></trkpt><trkpt lat="39.7986987" lon="8.6465109"><ele>22.0</ele><time>2026-05-01T06:58:01.256Z</time></trkpt><trkpt lat="39.7984654" lon="8.6466392"><ele>22.0</ele><time>2026-05-01T06:58:02.256Z</time></trkpt><trkpt lat="39.7982313" lon="8.6467667"><ele>22.0</ele><time>2026-05-01T06:58:03.257Z</time></trkpt><trkpt lat="39.7979953" lon="8.6468959"><ele>22.0</ele><time>2026-05-01T06:58:04.255Z</time></trkpt><trkpt lat="39.7977579" lon="8.6470262"><ele>22.5</ele><time>2026-05-01T06:58:05.255Z</time></trkpt><trkpt lat="39.7975172" lon="8.6471576"><ele>23.0</ele><time>2026-05-01T06:58:06.256Z</time></trkpt><trkpt lat="39.7972774" lon="8.647287"><ele>23.0</ele><time>2026-05-01T06:58:07.256Z</time></trkpt><trkpt lat="39.7970391" lon="8.6474224"><ele>23.0</ele><time>2026-05-01T06:58:08.258Z</time></trkpt><trkpt lat="39.7967981" lon="8.6475553"><ele>23.0</ele><time>2026-05-01T06:58:09.256Z</time></trkpt><trkpt lat="39.7965555" lon="8.6476916"><ele>23.0</ele><time>2026-05-01T06:58:10.256Z</time></trkpt><trkpt lat="39.7963145" lon="8.647824"><ele>23.0</ele><time>2026-05-01T06:58:11.256Z</time></trkpt><trkpt lat="39.7960745" lon="8.6479547"><ele>23.0</ele><time>2026-05-01T06:58:12.256Z</time></trkpt><trkpt lat="39.7958372" lon="8.6480857"><ele>22.5</ele><time>2026-05-01T06:58:13.256Z</time></trkpt><trkpt lat="39.7956071" lon="8.6482106"><ele>22.0</ele><time>2026-05-01T06:58:14.257Z</time></trkpt><trkpt lat="39.7953822" lon="8.6483316"><ele>21.0</ele><time>2026-05-01T06:58:15.256Z</time></trkpt><trkpt lat="39.7951677" lon="8.648447"><ele>20.0</ele><time>2026-05-01T06:58:16.256Z</time></trkpt><trkpt lat="39.7949652" lon="8.6485588"><ele>21.0</ele><time>2026-05-01T06:58:17.256Z</time></trkpt><trkpt lat="39.7947687" lon="8.648667"><ele>22.0</ele><time>2026-05-01T06:58:18.256Z</time></trkpt><trkpt lat="39.7945824" lon="8.6487723"><ele>23.0</ele><time>2026-05-01T06:58:19.255Z</time></trkpt><trkpt lat="39.7944029" lon="8.6488731"><ele>22.666666666666668</ele><time>2026-05-01T06:58:20.256Z</time></trkpt><trkpt lat="39.7942277" lon="8.6489716"><ele>22.333333333333332</ele><time>2026-05-01T06:58:21.257Z</time></trkpt><trkpt lat="39.7940494" lon="8.6490714"><ele>22.0</ele><time>2026-05-01T06:58:22.257Z</time></trkpt><trkpt lat="39.7938685" lon="8.6491727"><ele>22.0</ele><time>2026-05-01T06:58:23.257Z</time></trkpt><trkpt lat="39.7936841" lon="8.6492733"><ele>22.0</ele><time>2026-05-01T06:58:24.256Z</time></trkpt><trkpt lat="39.7934929" lon="8.6493769"><ele>22.0</ele><time>2026-05-01T06:58:25.256Z</time></trkpt><trkpt lat="39.7932948" lon="8.6494809"><ele>22.333333333333332</ele><time>2026-05-01T06:58:26.257Z</time></trkpt><trkpt lat="39.7930923" lon="8.6495854"><ele>22.666666666666668</ele><time>2026-05-01T06:58:27.257Z</time></trkpt><trkpt lat="39.7928864" lon="8.6496945"><ele>23.0</ele><time>2026-05-01T06:58:28.255Z</time></trkpt><trkpt lat="39.7926767" lon="8.6498097"><ele>23.0</ele><time>2026-05-01T06:58:29.256Z</time></trkpt><trkpt lat="39.7924634" lon="8.6499258"><ele>23.0</ele><time>2026-05-01T06:58:30.257Z</time></trkpt><trkpt lat="39.7922465" lon="8.6500411"><ele>23.0</ele><time>2026-05-01T06:58:31.257Z</time></trkpt><trkpt lat="39.7920272" lon="8.6501576"><ele>23.0</ele><time>2026-05-01T06:58:32.257Z</time></trkpt><trkpt lat="39.7918042" lon="8.6502749"><ele>23.5</ele><time>2026-05-01T06:58:33.255Z</time></trkpt><trkpt lat="39.7915886" lon="8.6503877"><ele>24.0</ele><time>2026-05-01T06:58:34.255Z</time></trkpt><trkpt lat="39.7913732" lon="8.6505015"><ele>24.0</ele><time>2026-05-01T06:58:35.256Z</time></trkpt><trkpt lat="39.7911595" lon="8.6506137"><ele>24.0</ele><time>2026-05-01T06:58:36.257Z</time></trkpt><trkpt lat="39.7909485" lon="8.6507221"><ele>23.666666666666668</ele><time>2026-05-01T06:58:37.256Z</time></trkpt><trkpt lat="39.7907426" lon="8.6508277"><ele>23.333333333333336</ele><time>2026-05-01T06:58:38.255Z</time></trkpt><trkpt lat="39.7905402" lon="8.6509315"><ele>23.0</ele><time>2026-05-01T06:58:39.257Z</time></trkpt><trkpt lat="39.7903404" lon="8.6510345"><ele>24.0</ele><time>2026-05-01T06:58:40.257Z</time></trkpt><trkpt lat="39.7901436" lon="8.6511355"><ele>25.0</ele><time>2026-05-01T06:58:41.255Z</time></trkpt><trkpt lat="39.7899468" lon="8.6512352"><ele>26.0</ele><time>2026-05-01T06:58:42.256Z</time></trkpt><trkpt lat="39.7897497" lon="8.6513347"><ele>26.0</ele><time>2026-05-01T06:58:43.255Z</time></trkpt><trkpt lat="39.7895515" lon="8.6514353"><ele>26.0</ele><time>2026-05-01T06:58:44.256Z</time></trkpt><trkpt lat="39.7893521" lon="8.651536"><ele>26.0</ele><time>2026-05-01T06:58:45.256Z</time></trkpt><trkpt lat="39.7891517" lon="8.6516371"><ele>26.333333333333332</ele><time>2026-05-01T06:58:46.257Z</time></trkpt><trkpt lat="39.7889502" lon="8.6517389"><ele>26.666666666666664</ele><time>2026-05-01T06:58:47.257Z</time></trkpt><trkpt lat="39.7887472" lon="8.6518412"><ele>27.0</ele><time>2026-05-01T06:58:48.256Z</time></trkpt><trkpt lat="39.7885426" lon="8.6519431"><ele>27.333333333333336</ele><time>2026-05-01T06:58:49.256Z</time></trkpt><trkpt lat="39.7883374" lon="8.6520466"><ele>27.666666666666668</ele><time>2026-05-01T06:58:50.255Z</time></trkpt><trkpt lat="39.7881301" lon="8.6521511"><ele>28.0</ele><time>2026-05-01T06:58:51.256Z</time></trkpt><trkpt lat="39.7879212" lon="8.6522562"><ele>28.0</ele><time>2026-05-01T06:58:52.257Z</time></trkpt><trkpt lat="39.7877111" lon="8.6523634"><ele>28.0</ele><time>2026-05-01T06:58:53.256Z</time></trkpt><trkpt lat="39.7874987" lon="8.6524732"><ele>28.0</ele><time>2026-05-01T06:58:54.256Z</time></trkpt><trkpt lat="39.7872849" lon="8.6525849"><ele>28.0</ele><time>2026-05-01T06:58:55.256Z</time></trkpt><trkpt lat="39.7870698" lon="8.6526963"><ele>28.0</ele><time>2026-05-01T06:58:56.257Z</time></trkpt><trkpt lat="39.7868554" lon="8.6528081"><ele>28.0</ele><time>2026-05-01T06:58:57.257Z</time></trkpt><trkpt lat="39.7866428" lon="8.6529205"><ele>28.5</ele><time>2026-05-01T06:58:58.256Z</time></trkpt><trkpt lat="39.7864327" lon="8.6530333"><ele>29.0</ele><time>2026-05-01T06:58:59.256Z</time></trkpt><trkpt lat="39.7862239" lon="8.6531461"><ele>29.0</ele><time>2026-05-01T06:59:00.256Z</time></trkpt><trkpt lat="39.7860162" lon="8.6532591"><ele>29.0</ele><time>2026-05-01T06:59:01.256Z</time></trkpt><trkpt lat="39.7858105" lon="8.6533718"><ele>29.0</ele><time>2026-05-01T06:59:02.257Z</time></trkpt><trkpt lat="39.7856058" lon="8.6534842"><ele>29.0</ele><time>2026-05-01T06:59:03.257Z</time></trkpt><trkpt lat="39.7854025" lon="8.6535935"><ele>29.0</ele><time>2026-05-01T06:59:04.256Z</time></trkpt><trkpt lat="39.7852008" lon="8.6537012"><ele>29.0</ele><time>2026-05-01T06:59:05.255Z</time></trkpt><trkpt lat="39.7849993" lon="8.6538124"><ele>29.333333333333332</ele><time>2026-05-01T06:59:06.256Z</time></trkpt><trkpt lat="39.7847976" lon="8.6539254"><ele>29.666666666666664</ele><time>2026-05-01T06:59:07.255Z</time></trkpt><trkpt lat="39.7845937" lon="8.6540385"><ele>30.0</ele><time>2026-05-01T06:59:08.257Z</time></trkpt><trkpt lat="39.7843866" lon="8.6541515"><ele>30.0</ele><time>2026-05-01T06:59:09.255Z</time></trkpt><trkpt lat="39.7841794" lon="8.6542648"><ele>30.0</ele><time>2026-05-01T06:59:10.257Z</time></trkpt><trkpt lat="39.7839684" lon="8.6543787"><ele>30.0</ele><time>2026-05-01T06:59:11.255Z</time></trkpt><trkpt lat="39.7837581" lon="8.6544957"><ele>30.0</ele><time>2026-05-01T06:59:12.256Z</time></trkpt><trkpt lat="39.7835455" lon="8.6546155"><ele>30.5</ele><time>2026-05-01T06:59:13.257Z</time></trkpt><trkpt lat="39.7833314" lon="8.6547371"><ele>31.0</ele><time>2026-05-01T06:59:14.257Z</time></trkpt><trkpt lat="39.7831147" lon="8.6548612"><ele>31.0</ele><time>2026-05-01T06:59:15.256Z</time></trkpt><trkpt lat="39.7828954" lon="8.6549859"><ele>31.0</ele><time>2026-05-01T06:59:16.255Z</time></trkpt><trkpt lat="39.7826718" lon="8.6551105"><ele>30.5</ele><time>2026-05-01T06:59:17.256Z</time></trkpt><trkpt lat="39.7824453" lon="8.6552364"><ele>30.0</ele><time>2026-05-01T06:59:18.256Z</time></trkpt><trkpt lat="39.7822159" lon="8.6553651"><ele>30.0</ele><time>2026-05-01T06:59:19.256Z</time></trkpt><trkpt lat="39.7819827" lon="8.6554929"><ele>30.0</ele><time>2026-05-01T06:59:20.256Z</time></trkpt><trkpt lat="39.7817483" lon="8.6556223"><ele>31.0</ele><time>2026-05-01T06:59:21.256Z</time></trkpt><trkpt lat="39.7815141" lon="8.6557538"><ele>32.0</ele><time>2026-05-01T06:59:22.257Z</time></trkpt><trkpt lat="39.7812782" lon="8.6558852"><ele>32.0</ele><time>2026-05-01T06:59:23.255Z</time></trkpt><trkpt lat="39.7810426" lon="8.6560188"><ele>32.0</ele><time>2026-05-01T06:59:24.255Z</time></trkpt><trkpt lat="39.7808076" lon="8.6561578"><ele>32.5</ele><time>2026-05-01T06:59:25.255Z</time></trkpt><trkpt lat="39.7805716" lon="8.6563004"><ele>33.0</ele><time>2026-05-01T06:59:26.255Z</time></trkpt><trkpt lat="39.780335" lon="8.6564463"><ele>32.0</ele><time>2026-05-01T06:59:27.256Z</time></trkpt><trkpt lat="39.780098" lon="8.6565944"><ele>31.0</ele><time>2026-05-01T06:59:28.256Z</time></trkpt><trkpt lat="39.7798596" lon="8.6567445"><ele>31.0</ele><time>2026-05-01T06:59:29.256Z</time></trkpt><trkpt lat="39.7796196" lon="8.6568962"><ele>31.0</ele><time>2026-05-01T06:59:30.255Z</time></trkpt><trkpt lat="39.7793783" lon="8.6570492"><ele>31.5</ele><time>2026-05-01T06:59:31.255Z</time></trkpt><trkpt lat="39.7791361" lon="8.6572021"><ele>32.0</ele><time>2026-05-01T06:59:32.256Z</time></trkpt><trkpt lat="39.7788926" lon="8.6573577"><ele>32.0</ele><time>2026-05-01T06:59:33.255Z</time></trkpt><trkpt lat="39.7786464" lon="8.6575156"><ele>32.0</ele><time>2026-05-01T06:59:34.255Z</time></trkpt><trkpt lat="39.7784001" lon="8.6576748"><ele>33.0</ele><time>2026-05-01T06:59:35.255Z</time></trkpt><trkpt lat="39.7781559" lon="8.6578348"><ele>34.0</ele><time>2026-05-01T06:59:36.255Z</time></trkpt><trkpt lat="39.7779087" lon="8.6579909"><ele>34.5</ele><time>2026-05-01T06:59:37.256Z</time></trkpt><trkpt lat="39.7776623" lon="8.658148"><ele>35.0</ele><time>2026-05-01T06:59:38.257Z</time></trkpt><trkpt lat="39.777414" lon="8.6583046"><ele>35.0</ele><time>2026-05-01T06:59:39.257Z</time></trkpt><trkpt lat="39.7771637" lon="8.658459"><ele>35.0</ele><time>2026-05-01T06:59:40.257Z</time></trkpt><trkpt lat="39.7769143" lon="8.6586081"><ele>35.5</ele><time>2026-05-01T06:59:41.257Z</time></trkpt><trkpt lat="39.7766624" lon="8.6587545"><ele>36.0</ele><time>2026-05-01T06:59:42.257Z</time></trkpt><trkpt lat="39.7764078" lon="8.658897"><ele>36.0</ele><time>2026-05-01T06:59:43.257Z</time></trkpt><trkpt lat="39.7761529" lon="8.6590379"><ele>36.0</ele><time>2026-05-01T06:59:44.256Z</time></trkpt><trkpt lat="39.7758953" lon="8.6591745"><ele>34.5</ele><time>2026-05-01T06:59:45.257Z</time></trkpt><trkpt lat="39.7756377" lon="8.6593103"><ele>33.0</ele><time>2026-05-01T06:59:46.256Z</time></trkpt><trkpt lat="39.7753816" lon="8.6594445"><ele>34.0</ele><time>2026-05-01T06:59:47.257Z</time></trkpt><trkpt lat="39.7751261" lon="8.6595788"><ele>35.0</ele><time>2026-05-01T06:59:48.256Z</time></trkpt><trkpt lat="39.7748706" lon="8.6597122"><ele>35.0</ele><time>2026-05-01T06:59:49.256Z</time></trkpt><trkpt lat="39.7746155" lon="8.6598462"><ele>35.0</ele><time>2026-05-01T06:59:50.256Z</time></trkpt><trkpt lat="39.7743601" lon="8.659979"><ele>34.5</ele><time>2026-05-01T06:59:51.257Z</time></trkpt><trkpt lat="39.7741035" lon="8.6601112"><ele>34.0</ele><time>2026-05-01T06:59:52.257Z</time></trkpt><trkpt lat="39.7738459" lon="8.6602435"><ele>34.5</ele><time>2026-05-01T06:59:53.256Z</time></trkpt><trkpt lat="39.773589" lon="8.660378"><ele>35.0</ele><time>2026-05-01T06:59:54.257Z</time></trkpt><trkpt lat="39.7733319" lon="8.6605137"><ele>35.0</ele><time>2026-05-01T06:59:55.257Z</time></trkpt><trkpt lat="39.7730742" lon="8.6606488"><ele>35.0</ele><time>2026-05-01T06:59:56.256Z</time></trkpt><trkpt lat="39.7728169" lon="8.6607837"><ele>35.0</ele><time>2026-05-01T06:59:57.257Z</time></trkpt><trkpt lat="39.772559" lon="8.6609181"><ele>35.0</ele><time>2026-05-01T06:59:58.257Z</time></trkpt><trkpt lat="39.7723035" lon="8.6610514"><ele>35.0</ele><time>2026-05-01T06:59:59.256Z</time></trkpt><trkpt lat="39.772059" lon="8.661177"><ele>35.0</ele><time>2026-05-01T07:00:00.256Z</time></trkpt><trkpt lat="39.7718239" lon="8.6612992"><ele>35.5</ele><time>2026-05-01T07:00:01.255Z</time></trkpt><trkpt lat="39.771593" lon="8.6614182"><ele>36.0</ele><time>2026-05-01T07:00:02.256Z</time></trkpt><trkpt lat="39.7713635" lon="8.6615375"><ele>36.0</ele><time>2026-05-01T07:00:03.256Z</time></trkpt><trkpt lat="39.7711349" lon="8.6616567"><ele>36.0</ele><time>2026-05-01T07:00:04.257Z</time></trkpt><trkpt lat="39.7709049" lon="8.661779"><ele>35.0</ele><time>2026-05-01T07:00:05.257Z</time></trkpt><trkpt lat="39.7706736" lon="8.6619002"><ele>34.0</ele><time>2026-05-01T07:00:06.256Z</time></trkpt><trkpt lat="39.7704406" lon="8.6620205"><ele>34.0</ele><time>2026-05-01T07:00:07.257Z</time></trkpt><trkpt lat="39.7702058" lon="8.6621445"><ele>34.0</ele><time>2026-05-01T07:00:08.257Z</time></trkpt><trkpt lat="39.7699696" lon="8.6622698"><ele>34.0</ele><time>2026-05-01T07:00:09.257Z</time></trkpt><trkpt lat="39.769732" lon="8.6623952"><ele>34.0</ele><time>2026-05-01T07:00:10.257Z</time></trkpt><trkpt lat="39.7694946" lon="8.6625243"><ele>34.0</ele><time>2026-05-01T07:00:11.257Z</time></trkpt><trkpt lat="39.7692576" lon="8.6626545"><ele>34.0</ele><time>2026-05-01T07:00:12.256Z</time></trkpt><trkpt lat="39.7690268" lon="8.6627781"><ele>34.5</ele><time>2026-05-01T07:00:13.256Z</time></trkpt><trkpt lat="39.7688028" lon="8.6628992"><ele>35.0</ele><time>2026-05-01T07:00:14.257Z</time></trkpt><trkpt lat="39.7685803" lon="8.6630186"><ele>35.0</ele><time>2026-05-01T07:00:15.257Z</time></trkpt><trkpt lat="39.7683602" lon="8.6631372"><ele>35.0</ele><time>2026-05-01T07:00:16.257Z</time></trkpt><trkpt lat="39.7681401" lon="8.6632536"><ele>35.0</ele><time>2026-05-01T07:00:17.257Z</time></trkpt><trkpt lat="39.7679213" lon="8.6633692"><ele>35.0</ele><time>2026-05-01T07:00:18.256Z</time></trkpt><trkpt lat="39.7676994" lon="8.6634847"><ele>34.5</ele><time>2026-05-01T07:00:19.257Z</time></trkpt><trkpt lat="39.7674777" lon="8.6636015"><ele>34.0</ele><time>2026-05-01T07:00:20.256Z</time></trkpt><trkpt lat="39.7672539" lon="8.6637216"><ele>34.0</ele><time>2026-05-01T07:00:21.257Z</time></trkpt><trkpt lat="39.7670267" lon="8.663844"><ele>34.0</ele><time>2026-05-01T07:00:22.257Z</time></trkpt><trkpt lat="39.766799" lon="8.663968"><ele>35.0</ele><time>2026-05-01T07:00:23.257Z</time></trkpt><trkpt lat="39.7665661" lon="8.6640951"><ele>36.0</ele><time>2026-05-01T07:00:24.257Z</time></trkpt><trkpt lat="39.7663311" lon="8.6642232"><ele>36.0</ele><time>2026-05-01T07:00:25.257Z</time></trkpt><trkpt lat="39.7660921" lon="8.6643529"><ele>36.0</ele><time>2026-05-01T07:00:26.257Z</time></trkpt><trkpt lat="39.7658532" lon="8.6644813"><ele>36.0</ele><time>2026-05-01T07:00:27.256Z</time></trkpt><trkpt lat="39.7656084" lon="8.6646099"><ele>36.0</ele><time>2026-05-01T07:00:28.256Z</time></trkpt><trkpt lat="39.7653644" lon="8.6647407"><ele>36.0</ele><time>2026-05-01T07:00:29.257Z</time></trkpt><trkpt lat="39.7651192" lon="8.6648745"><ele>36.0</ele><time>2026-05-01T07:00:30.256Z</time></trkpt><trkpt lat="39.7648732" lon="8.6650101"><ele>36.0</ele><time>2026-05-01T07:00:31.257Z</time></trkpt><trkpt lat="39.764624" lon="8.6651452"><ele>36.0</ele><time>2026-05-01T07:00:32.257Z</time></trkpt><trkpt lat="39.7643727" lon="8.6652812"><ele>36.5</ele><time>2026-05-01T07:00:33.256Z</time></trkpt><trkpt lat="39.7641183" lon="8.6654181"><ele>37.0</ele><time>2026-05-01T07:00:34.256Z</time></trkpt><trkpt lat="39.7638645" lon="8.6655547"><ele>37.0</ele><time>2026-05-01T07:00:35.257Z</time></trkpt><trkpt lat="39.7636095" lon="8.665692"><ele>37.0</ele><time>2026-05-01T07:00:36.257Z</time></trkpt><trkpt lat="39.7633529" lon="8.6658302"><ele>37.5</ele><time>2026-05-01T07:00:37.256Z</time></trkpt><trkpt lat="39.7630964" lon="8.66597"><ele>38.0</ele><time>2026-05-01T07:00:38.256Z</time></trkpt><trkpt lat="39.7628375" lon="8.6661088"><ele>38.5</ele><time>2026-05-01T07:00:39.257Z</time></trkpt><trkpt lat="39.7625766" lon="8.6662505"><ele>39.0</ele><time>2026-05-01T07:00:40.257Z</time></trkpt><trkpt lat="39.7623189" lon="8.6663908"><ele>39.0</ele><time>2026-05-01T07:00:41.256Z</time></trkpt><trkpt lat="39.7620613" lon="8.6665297"><ele>39.0</ele><time>2026-05-01T07:00:42.257Z</time></trkpt><trkpt lat="39.7618044" lon="8.6666685"><ele>39.5</ele><time>2026-05-01T07:00:43.255Z</time></trkpt><trkpt lat="39.7615493" lon="8.6668057"><ele>40.0</ele><time>2026-05-01T07:00:44.256Z</time></trkpt><trkpt lat="39.7612938" lon="8.6669423"><ele>40.5</ele><time>2026-05-01T07:00:45.256Z</time></trkpt><trkpt lat="39.7610402" lon="8.6670803"><ele>41.0</ele><time>2026-05-01T07:00:46.256Z</time></trkpt><trkpt lat="39.7607869" lon="8.667219"><ele>41.0</ele><time>2026-05-01T07:00:47.256Z</time></trkpt><trkpt lat="39.7605328" lon="8.6673573"><ele>41.0</ele><time>2026-05-01T07:00:48.256Z</time></trkpt><trkpt lat="39.7602792" lon="8.6674938"><ele>41.0</ele><time>2026-05-01T07:00:49.255Z</time></trkpt><trkpt lat="39.7600246" lon="8.6676297"><ele>41.0</ele><time>2026-05-01T07:00:50.255Z</time></trkpt><trkpt lat="39.759774" lon="8.6677637"><ele>41.5</ele><time>2026-05-01T07:00:51.256Z</time></trkpt><trkpt lat="39.7595238" lon="8.6678977"><ele>42.0</ele><time>2026-05-01T07:00:52.255Z</time></trkpt><trkpt lat="39.7592749" lon="8.6680325"><ele>42.0</ele><time>2026-05-01T07:00:53.256Z</time></trkpt><trkpt lat="39.7590272" lon="8.6681661"><ele>42.0</ele><time>2026-05-01T07:00:54.256Z</time></trkpt><trkpt lat="39.7587823" lon="8.6682991"><ele>42.0</ele><time>2026-05-01T07:00:55.256Z</time></trkpt><trkpt lat="39.7585384" lon="8.6684324"><ele>42.0</ele><time>2026-05-01T07:00:56.256Z</time></trkpt><trkpt lat="39.7582945" lon="8.6685637"><ele>43.0</ele><time>2026-05-01T07:00:57.256Z</time></trkpt><trkpt lat="39.7580503" lon="8.6686936"><ele>44.0</ele><time>2026-05-01T07:00:58.256Z</time></trkpt><trkpt lat="39.7578045" lon="8.6688251"><ele>45.0</ele><time>2026-05-01T07:00:59.257Z</time></trkpt><trkpt lat="39.7575585" lon="8.6689559"><ele>46.0</ele><time>2026-05-01T07:01:00.256Z</time></trkpt><trkpt lat="39.757312" lon="8.6690874"><ele>46.0</ele><time>2026-05-01T07:01:01.257Z</time></trkpt><trkpt lat="39.7570659" lon="8.669217"><ele>46.0</ele><time>2026-05-01T07:01:02.256Z</time></trkpt><trkpt lat="39.7568189" lon="8.6693494"><ele>46.0</ele><time>2026-05-01T07:01:03.256Z</time></trkpt><trkpt lat="39.7565697" lon="8.6694825"><ele>46.0</ele><time>2026-05-01T07:01:04.255Z</time></trkpt><trkpt lat="39.7563208" lon="8.669614"><ele>46.0</ele><time>2026-05-01T07:01:05.256Z</time></trkpt><trkpt lat="39.7560685" lon="8.6697464"><ele>46.0</ele><time>2026-05-01T07:01:06.255Z</time></trkpt><trkpt lat="39.7558176" lon="8.6698774"><ele>45.5</ele><time>2026-05-01T07:01:07.257Z</time></trkpt><trkpt lat="39.7555668" lon="8.6700075"><ele>45.0</ele><time>2026-05-01T07:01:08.255Z</time></trkpt><trkpt lat="39.7553126" lon="8.6701361"><ele>44.5</ele><time>2026-05-01T07:01:09.256Z</time></trkpt><trkpt lat="39.7550611" lon="8.6702658"><ele>44.0</ele><time>2026-05-01T07:01:10.256Z</time></trkpt><trkpt lat="39.754816" lon="8.6703933"><ele>45.5</ele><time>2026-05-01T07:01:11.257Z</time></trkpt><trkpt lat="39.7545777" lon="8.6705187"><ele>47.0</ele><time>2026-05-01T07:01:12.257Z</time></trkpt><trkpt lat="39.7543405" lon="8.6706413"><ele>47.0</ele><time>2026-05-01T07:01:13.255Z</time></trkpt><trkpt lat="39.7541047" lon="8.6707636"><ele>47.0</ele><time>2026-05-01T07:01:14.256Z</time></trkpt><trkpt lat="39.753869" lon="8.6708881"><ele>47.0</ele><time>2026-05-01T07:01:15.257Z</time></trkpt><trkpt lat="39.753637" lon="8.6710071"><ele>47.0</ele><time>2026-05-01T07:01:16.257Z</time></trkpt><trkpt lat="39.7534097" lon="8.6711248"><ele>47.5</ele><time>2026-05-01T07:01:17.256Z</time></trkpt><trkpt lat="39.7531811" lon="8.671243"><ele>48.0</ele><time>2026-05-01T07:01:18.256Z</time></trkpt><trkpt lat="39.7529532" lon="8.6713581"><ele>48.0</ele><time>2026-05-01T07:01:19.256Z</time></trkpt><trkpt lat="39.7527239" lon="8.6714752"><ele>48.0</ele><time>2026-05-01T07:01:20.256Z</time></trkpt><trkpt lat="39.7524938" lon="8.6715936"><ele>47.5</ele><time>2026-05-01T07:01:21.256Z</time></trkpt><trkpt lat="39.7522615" lon="8.6717145"><ele>47.0</ele><time>2026-05-01T07:01:22.257Z</time></trkpt><trkpt lat="39.7520296" lon="8.6718369"><ele>47.0</ele><time>2026-05-01T07:01:23.256Z</time></trkpt><trkpt lat="39.7517946" lon="8.6719602"><ele>47.0</ele><time>2026-05-01T07:01:24.256Z</time></trkpt><trkpt lat="39.7515583" lon="8.6720845"><ele>47.0</ele><time>2026-05-01T07:01:25.257Z</time></trkpt><trkpt lat="39.7513204" lon="8.6722091"><ele>47.0</ele><time>2026-05-01T07:01:26.257Z</time></trkpt><trkpt lat="39.7510828" lon="8.6723347"><ele>46.0</ele><time>2026-05-01T07:01:27.257Z</time></trkpt><trkpt lat="39.7508441" lon="8.6724613"><ele>45.0</ele><time>2026-05-01T07:01:28.256Z</time></trkpt><trkpt lat="39.7506062" lon="8.6725907"><ele>45.0</ele><time>2026-05-01T07:01:29.256Z</time></trkpt><trkpt lat="39.7503675" lon="8.6727225"><ele>45.0</ele><time>2026-05-01T07:01:30.256Z</time></trkpt><trkpt lat="39.7501285" lon="8.6728541"><ele>46.0</ele><time>2026-05-01T07:01:31.257Z</time></trkpt><trkpt lat="39.7498908" lon="8.6729875"><ele>47.0</ele><time>2026-05-01T07:01:32.256Z</time></trkpt><trkpt lat="39.7496531" lon="8.6731225"><ele>47.0</ele><time>2026-05-01T07:01:33.256Z</time></trkpt><trkpt lat="39.7494154" lon="8.6732589"><ele>47.0</ele><time>2026-05-01T07:01:34.257Z</time></trkpt><trkpt lat="39.7491781" lon="8.673396"><ele>47.0</ele><time>2026-05-01T07:01:35.256Z</time></trkpt><trkpt lat="39.7489402" lon="8.6735335"><ele>47.0</ele><time>2026-05-01T07:01:36.256Z</time></trkpt><trkpt lat="39.7487024" lon="8.6736712"><ele>47.0</ele><time>2026-05-01T07:01:37.257Z</time></trkpt><trkpt lat="39.7484649" lon="8.67381"><ele>47.0</ele><time>2026-05-01T07:01:38.257Z</time></trkpt><trkpt lat="39.7482266" lon="8.6739472"><ele>47.0</ele><time>2026-05-01T07:01:39.257Z</time></trkpt><trkpt lat="39.7479867" lon="8.6740846"><ele>47.0</ele><time>2026-05-01T07:01:40.256Z</time></trkpt><trkpt lat="39.7477473" lon="8.6742224"><ele>47.0</ele><time>2026-05-01T07:01:41.256Z</time></trkpt><trkpt lat="39.747509" lon="8.6743601"><ele>47.0</ele><time>2026-05-01T07:01:42.256Z</time></trkpt><trkpt lat="39.7472709" lon="8.6744955"><ele>47.0</ele><time>2026-05-01T07:01:43.257Z</time></trkpt><trkpt lat="39.7470332" lon="8.6746309"><ele>47.0</ele><time>2026-05-01T07:01:44.256Z</time></trkpt><trkpt lat="39.7467956" lon="8.674765"><ele>47.0</ele><time>2026-05-01T07:01:45.256Z</time></trkpt><trkpt lat="39.7465698" lon="8.6748938"><ele>47.0</ele><time>2026-05-01T07:01:46.256Z</time></trkpt><trkpt lat="39.7463453" lon="8.6750202"><ele>47.0</ele><time>2026-05-01T07:01:47.256Z</time></trkpt><trkpt lat="39.746121" lon="8.6751445"><ele>47.0</ele><time>2026-05-01T07:01:48.256Z</time></trkpt><trkpt lat="39.7458955" lon="8.6752687"><ele>48.0</ele><time>2026-05-01T07:01:49.255Z</time></trkpt><trkpt lat="39.7456659" lon="8.675393"><ele>49.0</ele><time>2026-05-01T07:01:50.257Z</time></trkpt><trkpt lat="39.7454368" lon="8.675517"><ele>49.0</ele><time>2026-05-01T07:01:51.256Z</time></trkpt><trkpt lat="39.7452182" lon="8.6756367"><ele>49.0</ele><time>2026-05-01T07:01:52.257Z</time></trkpt><trkpt lat="39.7450061" lon="8.6757493"><ele>48.0</ele><time>2026-05-01T07:01:53.256Z</time></trkpt><trkpt lat="39.744797" lon="8.675854"><ele>47.0</ele><time>2026-05-01T07:01:54.255Z</time></trkpt><trkpt lat="39.7446059" lon="8.6759461"><ele>46.0</ele><time>2026-05-01T07:01:55.256Z</time></trkpt><trkpt lat="39.7444283" lon="8.6760298"><ele>46.333333333333336</ele><time>2026-05-01T07:01:56.256Z</time></trkpt><trkpt lat="39.744259" lon="8.6761124"><ele>46.666666666666664</ele><time>2026-05-01T07:01:57.257Z</time></trkpt><trkpt lat="39.7440978" lon="8.6761917"><ele>47.0</ele><time>2026-05-01T07:01:58.257Z</time></trkpt><trkpt lat="39.7439386" lon="8.6762739"><ele>47.0</ele><time>2026-05-01T07:01:59.255Z</time></trkpt><trkpt lat="39.7437779" lon="8.6763605"><ele>47.0</ele><time>2026-05-01T07:02:00.256Z</time></trkpt><trkpt lat="39.7436122" lon="8.6764395"><ele>47.0</ele><time>2026-05-01T07:02:01.256Z</time></trkpt><trkpt lat="39.7434405" lon="8.6765118"><ele>46.666666666666664</ele><time>2026-05-01T07:02:02.257Z</time></trkpt><trkpt lat="39.7432667" lon="8.6765715"><ele>46.333333333333336</ele><time>2026-05-01T07:02:03.256Z</time></trkpt><trkpt lat="39.7430921" lon="8.6766137"><ele>46.0</ele><time>2026-05-01T07:02:04.257Z</time></trkpt><trkpt lat="39.7429177" lon="8.67664"><ele>46.0</ele><time>2026-05-01T07:02:05.256Z</time></trkpt><trkpt lat="39.7427402" lon="8.676649"><ele>46.0</ele><time>2026-05-01T07:02:06.257Z</time></trkpt><trkpt lat="39.7425622" lon="8.6766382"><ele>46.0</ele><time>2026-05-01T07:02:07.256Z</time></trkpt><trkpt lat="39.7423809" lon="8.6766065"><ele>45.333333333333336</ele><time>2026-05-01T07:02:08.255Z</time></trkpt><trkpt lat="39.7421933" lon="8.6765607"><ele>44.666666666666664</ele><time>2026-05-01T07:02:09.255Z</time></trkpt><trkpt lat="39.7420075" lon="8.6765184"><ele>44.0</ele><time>2026-05-01T07:02:10.256Z</time></trkpt><trkpt lat="39.7418274" lon="8.6764748"><ele>43.666666666666664</ele><time>2026-05-01T07:02:11.256Z</time></trkpt><trkpt lat="39.7416581" lon="8.6764318"><ele>43.333333333333336</ele><time>2026-05-01T07:02:12.257Z</time></trkpt><trkpt lat="39.7414998" lon="8.676393"><ele>43.0</ele><time>2026-05-01T07:02:13.256Z</time></trkpt><trkpt lat="39.7413456" lon="8.6763616"><ele>43.0</ele><time>2026-05-01T07:02:14.257Z</time></trkpt><trkpt lat="39.7411862" lon="8.6763466"><ele>43.0</ele><time>2026-05-01T07:02:15.257Z</time></trkpt><trkpt lat="39.7410186" lon="8.6763529"><ele>43.0</ele><time>2026-05-01T07:02:16.257Z</time></trkpt><trkpt lat="39.7408442" lon="8.6763799"><ele>42.66666666666667</ele><time>2026-05-01T07:02:17.257Z</time></trkpt><trkpt lat="39.74066" lon="8.6764243"><ele>42.333333333333336</ele><time>2026-05-01T07:02:18.256Z</time></trkpt><trkpt lat="39.7404658" lon="8.6764806"><ele>42.0</ele><time>2026-05-01T07:02:19.257Z</time></trkpt><trkpt lat="39.7402642" lon="8.6765419"><ele>41.0</ele><time>2026-05-01T07:02:20.256Z</time></trkpt><trkpt lat="39.7400552" lon="8.6766049"><ele>40.0</ele><time>2026-05-01T07:02:21.256Z</time></trkpt><trkpt lat="39.7398401" lon="8.6766638"><ele>39.0</ele><time>2026-05-01T07:02:22.257Z</time></trkpt><trkpt lat="39.7396237" lon="8.6767224"><ele>39.0</ele><time>2026-05-01T07:02:23.257Z</time></trkpt><trkpt lat="39.7394163" lon="8.6767788"><ele>39.0</ele><time>2026-05-01T07:02:24.255Z</time></trkpt><trkpt lat="39.7392087" lon="8.6768316"><ele>39.0</ele><time>2026-05-01T07:02:25.256Z</time></trkpt><trkpt lat="39.7389993" lon="8.6768842"><ele>39.333333333333336</ele><time>2026-05-01T07:02:26.257Z</time></trkpt><trkpt lat="39.7387864" lon="8.6769382"><ele>39.66666666666667</ele><time>2026-05-01T07:02:27.256Z</time></trkpt><trkpt lat="39.7385683" lon="8.6769921"><ele>40.0</ele><time>2026-05-01T07:02:28.257Z</time></trkpt><trkpt lat="39.7383494" lon="8.6770483"><ele>40.333333333333336</ele><time>2026-05-01T07:02:29.256Z</time></trkpt><trkpt lat="39.7381321" lon="8.6771032"><ele>40.666666666666664</ele><time>2026-05-01T07:02:30.255Z</time></trkpt><trkpt lat="39.7379218" lon="8.6771518"><ele>41.0</ele><time>2026-05-01T07:02:31.255Z</time></trkpt><trkpt lat="39.7377096" lon="8.6771884"><ele>41.0</ele><time>2026-05-01T07:02:32.256Z</time></trkpt><trkpt lat="39.737506" lon="8.6772134"><ele>41.0</ele><time>2026-05-01T07:02:33.256Z</time></trkpt><trkpt lat="39.7373101" lon="8.6772275"><ele>41.0</ele><time>2026-05-01T07:02:34.256Z</time></trkpt><trkpt lat="39.7371208" lon="8.6772244"><ele>41.0</ele><time>2026-05-01T07:02:35.256Z</time></trkpt><trkpt lat="39.7369358" lon="8.6772037"><ele>41.0</ele><time>2026-05-01T07:02:36.256Z</time></trkpt><trkpt lat="39.7367557" lon="8.6771677"><ele>41.0</ele><time>2026-05-01T07:02:37.255Z</time></trkpt><trkpt lat="39.7365968" lon="8.6771238"><ele>40.33333333333333</ele><time>2026-05-01T07:02:38.255Z</time></trkpt><trkpt lat="39.7364472" lon="8.6770729"><ele>39.666666666666664</ele><time>2026-05-01T07:02:39.255Z</time></trkpt><trkpt lat="39.7363076" lon="8.6770121"><ele>39.0</ele><time>2026-05-01T07:02:40.256Z</time></trkpt><trkpt lat="39.7361668" lon="8.6769444"><ele>39.333333333333336</ele><time>2026-05-01T07:02:41.256Z</time></trkpt><trkpt lat="39.7360255" lon="8.6768671"><ele>39.66666666666667</ele><time>2026-05-01T07:02:42.256Z</time></trkpt><trkpt lat="39.7358838" lon="8.6767719"><ele>40.0</ele><time>2026-05-01T07:02:43.256Z</time></trkpt><trkpt lat="39.7357399" lon="8.6766612"><ele>40.0</ele><time>2026-05-01T07:02:44.257Z</time></trkpt><trkpt lat="39.7355931" lon="8.6765386"><ele>40.0</ele><time>2026-05-01T07:02:45.257Z</time></trkpt><trkpt lat="39.7354461" lon="8.6764013"><ele>40.0</ele><time>2026-05-01T07:02:46.257Z</time></trkpt><trkpt lat="39.7353074" lon="8.6762417"><ele>39.333333333333336</ele><time>2026-05-01T07:02:47.257Z</time></trkpt><trkpt lat="39.7351732" lon="8.676061"><ele>38.666666666666664</ele><time>2026-05-01T07:02:48.256Z</time></trkpt><trkpt lat="39.7350425" lon="8.675863"><ele>38.0</ele><time>2026-05-01T07:02:49.256Z</time></trkpt><trkpt lat="39.7349132" lon="8.675647"><ele>38.0</ele><time>2026-05-01T07:02:50.257Z</time></trkpt><trkpt lat="39.7347902" lon="8.6754212"><ele>38.0</ele><time>2026-05-01T07:02:51.256Z</time></trkpt><trkpt lat="39.7346751" lon="8.6751831"><ele>38.0</ele><time>2026-05-01T07:02:52.256Z</time></trkpt><trkpt lat="39.7345678" lon="8.6749279"><ele>36.5</ele><time>2026-05-01T07:02:53.256Z</time></trkpt><trkpt lat="39.7344657" lon="8.6746594"><ele>35.0</ele><time>2026-05-01T07:02:54.257Z</time></trkpt><trkpt lat="39.734364" lon="8.6743793"><ele>35.0</ele><time>2026-05-01T07:02:55.255Z</time></trkpt><trkpt lat="39.7342622" lon="8.6740944"><ele>35.0</ele><time>2026-05-01T07:02:56.256Z</time></trkpt><trkpt lat="39.7341597" lon="8.6738052"><ele>34.5</ele><time>2026-05-01T07:02:57.255Z</time></trkpt><trkpt lat="39.7340581" lon="8.6735154"><ele>34.0</ele><time>2026-05-01T07:02:58.256Z</time></trkpt><trkpt lat="39.7339577" lon="8.673226"><ele>34.0</ele><time>2026-05-01T07:02:59.255Z</time></trkpt><trkpt lat="39.7338587" lon="8.6729392"><ele>34.0</ele><time>2026-05-01T07:03:00.256Z</time></trkpt><trkpt lat="39.7337622" lon="8.6726618"><ele>33.333333333333336</ele><time>2026-05-01T07:03:01.257Z</time></trkpt><trkpt lat="39.7336693" lon="8.6723965"><ele>32.666666666666664</ele><time>2026-05-01T07:03:02.256Z</time></trkpt><trkpt lat="39.7335801" lon="8.6721424"><ele>32.0</ele><time>2026-05-01T07:03:03.257Z</time></trkpt><trkpt lat="39.7334937" lon="8.6718977"><ele>32.0</ele><time>2026-05-01T07:03:04.256Z</time></trkpt><trkpt lat="39.7334086" lon="8.6716546"><ele>32.0</ele><time>2026-05-01T07:03:05.257Z</time></trkpt><trkpt lat="39.7333224" lon="8.6714096"><ele>32.0</ele><time>2026-05-01T07:03:06.257Z</time></trkpt><trkpt lat="39.7332349" lon="8.6711646"><ele>31.0</ele><time>2026-05-01T07:03:07.256Z</time></trkpt><trkpt lat="39.7331478" lon="8.6709184"><ele>30.0</ele><time>2026-05-01T07:03:08.256Z</time></trkpt><trkpt lat="39.7330603" lon="8.6706716"><ele>29.0</ele><time>2026-05-01T07:03:09.257Z</time></trkpt><trkpt lat="39.7329738" lon="8.6704261"><ele>29.0</ele><time>2026-05-01T07:03:10.256Z</time></trkpt><trkpt lat="39.7328872" lon="8.6701834"><ele>29.0</ele><time>2026-05-01T07:03:11.257Z</time></trkpt><trkpt lat="39.732802" lon="8.6699424"><ele>29.0</ele><time>2026-05-01T07:03:12.256Z</time></trkpt><trkpt lat="39.7327177" lon="8.6697015"><ele>29.0</ele><time>2026-05-01T07:03:13.256Z</time></trkpt><trkpt lat="39.7326348" lon="8.6694623"><ele>29.0</ele><time>2026-05-01T07:03:14.256Z</time></trkpt><trkpt lat="39.7325561" lon="8.6692226"><ele>29.0</ele><time>2026-05-01T07:03:15.256Z</time></trkpt><trkpt lat="39.7324866" lon="8.6689881"><ele>28.666666666666664</ele><time>2026-05-01T07:03:16.257Z</time></trkpt><trkpt lat="39.7324255" lon="8.6687604"><ele>28.333333333333336</ele><time>2026-05-01T07:03:17.256Z</time></trkpt><trkpt lat="39.7323706" lon="8.66854"><ele>28.0</ele><time>2026-05-01T07:03:18.256Z</time></trkpt><trkpt lat="39.7323185" lon="8.6683242"><ele>27.666666666666668</ele><time>2026-05-01T07:03:19.256Z</time></trkpt><trkpt lat="39.7322694" lon="8.6681061"><ele>27.333333333333336</ele><time>2026-05-01T07:03:20.256Z</time></trkpt><trkpt lat="39.7322207" lon="8.6678833"><ele>27.0</ele><time>2026-05-01T07:03:21.256Z</time></trkpt><trkpt lat="39.7321712" lon="8.6676575"><ele>27.0</ele><time>2026-05-01T07:03:22.257Z</time></trkpt><trkpt lat="39.7321227" lon="8.6674275"><ele>27.0</ele><time>2026-05-01T07:03:23.256Z</time></trkpt><trkpt lat="39.732078" lon="8.667193"><ele>27.0</ele><time>2026-05-01T07:03:24.257Z</time></trkpt><trkpt lat="39.7320386" lon="8.6669522"><ele>26.333333333333336</ele><time>2026-05-01T07:03:25.257Z</time></trkpt><trkpt lat="39.7320068" lon="8.6667047"><ele>25.666666666666668</ele><time>2026-05-01T07:03:26.257Z</time></trkpt><trkpt lat="39.7319845" lon="8.666451"><ele>25.0</ele><time>2026-05-01T07:03:27.257Z</time></trkpt><trkpt lat="39.7319739" lon="8.6661926"><ele>24.666666666666668</ele><time>2026-05-01T07:03:28.256Z</time></trkpt><trkpt lat="39.7319737" lon="8.6659288"><ele>24.333333333333336</ele><time>2026-05-01T07:03:29.256Z</time></trkpt><trkpt lat="39.7319811" lon="8.6656622"><ele>24.0</ele><time>2026-05-01T07:03:30.255Z</time></trkpt><trkpt lat="39.7319929" lon="8.6653913"><ele>23.666666666666668</ele><time>2026-05-01T07:03:31.255Z</time></trkpt><trkpt lat="39.7320055" lon="8.6651207"><ele>23.333333333333336</ele><time>2026-05-01T07:03:32.256Z</time></trkpt><trkpt lat="39.7320173" lon="8.6648507"><ele>23.0</ele><time>2026-05-01T07:03:33.257Z</time></trkpt><trkpt lat="39.7320302" lon="8.6645843"><ele>22.666666666666668</ele><time>2026-05-01T07:03:34.256Z</time></trkpt><trkpt lat="39.7320426" lon="8.6643309"><ele>22.333333333333332</ele><time>2026-05-01T07:03:35.256Z</time></trkpt><trkpt lat="39.7320542" lon="8.6640855"><ele>22.0</ele><time>2026-05-01T07:03:36.255Z</time></trkpt><trkpt lat="39.7320644" lon="8.6638484"><ele>22.0</ele><time>2026-05-01T07:03:37.256Z</time></trkpt><trkpt lat="39.7320742" lon="8.6636195"><ele>22.0</ele><time>2026-05-01T07:03:38.256Z</time></trkpt><trkpt lat="39.732084" lon="8.6633966"><ele>22.0</ele><time>2026-05-01T07:03:39.256Z</time></trkpt><trkpt lat="39.7320933" lon="8.6631786"><ele>21.666666666666664</ele><time>2026-05-01T07:03:40.257Z</time></trkpt><trkpt lat="39.7321008" lon="8.6629581"><ele>21.333333333333332</ele><time>2026-05-01T07:03:41.256Z</time></trkpt><trkpt lat="39.7321002" lon="8.6627327"><ele>21.0</ele><time>2026-05-01T07:03:42.257Z</time></trkpt><trkpt lat="39.73209" lon="8.6625003"><ele>20.666666666666668</ele><time>2026-05-01T07:03:43.257Z</time></trkpt><trkpt lat="39.7320707" lon="8.662261"><ele>20.333333333333336</ele><time>2026-05-01T07:03:44.256Z</time></trkpt><trkpt lat="39.7320437" lon="8.662015"><ele>20.0</ele><time>2026-05-01T07:03:45.256Z</time></trkpt><trkpt lat="39.7320106" lon="8.6617601"><ele>19.666666666666668</ele><time>2026-05-01T07:03:46.256Z</time></trkpt><trkpt lat="39.7319752" lon="8.6614957"><ele>19.333333333333332</ele><time>2026-05-01T07:03:47.256Z</time></trkpt><trkpt lat="39.7319384" lon="8.6612273"><ele>19.0</ele><time>2026-05-01T07:03:48.257Z</time></trkpt><trkpt lat="39.7319018" lon="8.6609545"><ele>19.0</ele><time>2026-05-01T07:03:49.257Z</time></trkpt><trkpt lat="39.7318631" lon="8.6606775"><ele>19.0</ele><time>2026-05-01T07:03:50.257Z</time></trkpt><trkpt lat="39.7318236" lon="8.6603974"><ele>19.0</ele><time>2026-05-01T07:03:51.256Z</time></trkpt><trkpt lat="39.7317858" lon="8.6601169"><ele>19.333333333333332</ele><time>2026-05-01T07:03:52.256Z</time></trkpt><trkpt lat="39.7317485" lon="8.6598366"><ele>19.666666666666668</ele><time>2026-05-01T07:03:53.256Z</time></trkpt><trkpt lat="39.7317127" lon="8.6595692"><ele>20.0</ele><time>2026-05-01T07:03:54.256Z</time></trkpt><trkpt lat="39.7316793" lon="8.6593161"><ele>20.0</ele><time>2026-05-01T07:03:55.257Z</time></trkpt><trkpt lat="39.7316476" lon="8.6590761"><ele>20.0</ele><time>2026-05-01T07:03:56.256Z</time></trkpt><trkpt lat="39.731617" lon="8.6588454"><ele>20.0</ele><time>2026-05-01T07:03:57.256Z</time></trkpt><trkpt lat="39.731585" lon="8.6586194"><ele>19.333333333333336</ele><time>2026-05-01T07:03:58.256Z</time></trkpt><trkpt lat="39.7315422" lon="8.6583927"><ele>18.666666666666668</ele><time>2026-05-01T07:03:59.256Z</time></trkpt><trkpt lat="39.7314847" lon="8.6581705"><ele>18.0</ele><time>2026-05-01T07:04:00.255Z</time></trkpt><trkpt lat="39.7314098" lon="8.6579541"><ele>17.666666666666668</ele><time>2026-05-01T07:04:01.255Z</time></trkpt><trkpt lat="39.731319" lon="8.6577418"><ele>17.333333333333336</ele><time>2026-05-01T07:04:02.256Z</time></trkpt><trkpt lat="39.7312151" lon="8.6575359"><ele>17.0</ele><time>2026-05-01T07:04:03.256Z</time></trkpt><trkpt lat="39.7310994" lon="8.6573323"><ele>17.0</ele><time>2026-05-01T07:04:04.257Z</time></trkpt><trkpt lat="39.7309783" lon="8.6571266"><ele>17.0</ele><time>2026-05-01T07:04:05.257Z</time></trkpt><trkpt lat="39.7308555" lon="8.656912"><ele>17.0</ele><time>2026-05-01T07:04:06.256Z</time></trkpt><trkpt lat="39.7307382" lon="8.6566951"><ele>17.0</ele><time>2026-05-01T07:04:07.257Z</time></trkpt><trkpt lat="39.7306284" lon="8.6564865"><ele>17.0</ele><time>2026-05-01T07:04:08.256Z</time></trkpt><trkpt lat="39.7305328" lon="8.6563024"><ele>17.0</ele><time>2026-05-01T07:04:09.256Z</time></trkpt><trkpt lat="39.7304476" lon="8.6561383"><ele>16.75</ele><time>2026-05-01T07:04:10.256Z</time></trkpt><trkpt lat="39.7303704" lon="8.6559795"><ele>16.5</ele><time>2026-05-01T07:04:11.257Z</time></trkpt><trkpt lat="39.7302991" lon="8.655836"><ele>16.25</ele><time>2026-05-01T07:04:12.256Z</time></trkpt><trkpt lat="39.7302288" lon="8.6556961"><ele>16.0</ele><time>2026-05-01T07:04:13.257Z</time></trkpt><trkpt lat="39.7301645" lon="8.6555628"><ele>16.0</ele><time>2026-05-01T07:04:14.256Z</time></trkpt><trkpt lat="39.7301017" lon="8.6554212"><ele>16.0</ele><time>2026-05-01T07:04:15.256Z</time></trkpt><trkpt lat="39.7300451" lon="8.6552661"><ele>16.0</ele><time>2026-05-01T07:04:16.256Z</time></trkpt><trkpt lat="39.7299953" lon="8.6550914"><ele>16.0</ele><time>2026-05-01T07:04:17.255Z</time></trkpt><trkpt lat="39.7299511" lon="8.654906"><ele>16.0</ele><time>2026-05-01T07:04:18.256Z</time></trkpt><trkpt lat="39.7299094" lon="8.6547191"><ele>16.0</ele><time>2026-05-01T07:04:19.257Z</time></trkpt><trkpt lat="39.7298697" lon="8.6545142"><ele>16.0</ele><time>2026-05-01T07:04:20.257Z</time></trkpt><trkpt lat="39.7298367" lon="8.6542927"><ele>16.0</ele><time>2026-05-01T07:04:21.257Z</time></trkpt><trkpt lat="39.7298087" lon="8.6540545"><ele>16.0</ele><time>2026-05-01T07:04:22.257Z</time></trkpt><trkpt lat="39.7297827" lon="8.653802"><ele>16.0</ele><time>2026-05-01T07:04:23.256Z</time></trkpt><trkpt lat="39.7297569" lon="8.6535486"><ele>16.0</ele><time>2026-05-01T07:04:24.256Z</time></trkpt><trkpt lat="39.7297296" lon="8.6533053"><ele>16.0</ele><time>2026-05-01T07:04:25.257Z</time></trkpt><trkpt lat="39.7297041" lon="8.6530578"><ele>16.0</ele><time>2026-05-01T07:04:26.256Z</time></trkpt><trkpt lat="39.7296774" lon="8.6528057"><ele>15.333333333333332</ele><time>2026-05-01T07:04:27.256Z</time></trkpt><trkpt lat="39.7296484" lon="8.6525461"><ele>14.666666666666668</ele><time>2026-05-01T07:04:28.256Z</time></trkpt><trkpt lat="39.7296169" lon="8.6522771"><ele>14.0</ele><time>2026-05-01T07:04:29.256Z</time></trkpt><trkpt lat="39.7295854" lon="8.6520018"><ele>14.0</ele><time>2026-05-01T07:04:30.255Z</time></trkpt><trkpt lat="39.7295538" lon="8.6517227"><ele>14.0</ele><time>2026-05-01T07:04:31.255Z</time></trkpt><trkpt lat="39.7295217" lon="8.6514404"><ele>14.0</ele><time>2026-05-01T07:04:32.257Z</time></trkpt><trkpt lat="39.7294936" lon="8.6511681"><ele>12.666666666666668</ele><time>2026-05-01T07:04:33.257Z</time></trkpt><trkpt lat="39.7294668" lon="8.6509066"><ele>11.333333333333334</ele><time>2026-05-01T07:04:34.257Z</time></trkpt><trkpt lat="39.7294388" lon="8.6506546"><ele>10.0</ele><time>2026-05-01T07:04:35.257Z</time></trkpt><trkpt lat="39.7294062" lon="8.6504067"><ele>9.666666666666668</ele><time>2026-05-01T07:04:36.257Z</time></trkpt><trkpt lat="39.7293646" lon="8.6501633"><ele>9.333333333333334</ele><time>2026-05-01T07:04:37.257Z</time></trkpt><trkpt lat="39.7293102" lon="8.6499218"><ele>9.0</ele><time>2026-05-01T07:04:38.256Z</time></trkpt><trkpt lat="39.7292453" lon="8.6496836"><ele>9.333333333333334</ele><time>2026-05-01T07:04:39.256Z</time></trkpt><trkpt lat="39.729175" lon="8.6494459"><ele>9.666666666666668</ele><time>2026-05-01T07:04:40.256Z</time></trkpt><trkpt lat="39.7291028" lon="8.6492096"><ele>10.0</ele><time>2026-05-01T07:04:41.256Z</time></trkpt><trkpt lat="39.7290345" lon="8.6489828"><ele>10.0</ele><time>2026-05-01T07:04:42.256Z</time></trkpt><trkpt lat="39.7289689" lon="8.6487615"><ele>10.0</ele><time>2026-05-01T07:04:43.255Z</time></trkpt><trkpt lat="39.7289063" lon="8.6485455"><ele>10.0</ele><time>2026-05-01T07:04:44.255Z</time></trkpt><trkpt lat="39.7288472" lon="8.6483439"><ele>10.0</ele><time>2026-05-01T07:04:45.256Z</time></trkpt><trkpt lat="39.7287951" lon="8.6481652"><ele>10.0</ele><time>2026-05-01T07:04:46.257Z</time></trkpt><trkpt lat="39.728746" lon="8.6480022"><ele>10.0</ele><time>2026-05-01T07:04:47.257Z</time></trkpt><trkpt lat="39.7287063" lon="8.647867"><ele>10.0</ele><time>2026-05-01T07:04:48.257Z</time></trkpt><trkpt lat="39.7286774" lon="8.6477552"><ele>9.666666666666668</ele><time>2026-05-01T07:04:49.256Z</time></trkpt><trkpt lat="39.7286521" lon="8.6476623"><ele>9.333333333333334</ele><time>2026-05-01T07:04:50.257Z</time></trkpt><trkpt lat="39.7286316" lon="8.6475737"><ele>9.0</ele><time>2026-05-01T07:04:51.256Z</time></trkpt><trkpt lat="39.7286246" lon="8.6474766"><ele>8.666666666666666</ele><time>2026-05-01T07:04:52.257Z</time></trkpt><trkpt lat="39.728635" lon="8.6473778"><ele>8.333333333333332</ele><time>2026-05-01T07:04:53.257Z</time></trkpt><trkpt lat="39.7286631" lon="8.6472849"><ele>8.0</ele><time>2026-05-01T07:04:54.257Z</time></trkpt><trkpt lat="39.7287097" lon="8.6471852"><ele>8.0</ele><time>2026-05-01T07:04:55.256Z</time></trkpt><trkpt lat="39.7287628" lon="8.6470673"><ele>8.0</ele><time>2026-05-01T07:04:56.257Z</time></trkpt><trkpt lat="39.7287913" lon="8.646932"><ele>8.0</ele><time>2026-05-01T07:04:57.256Z</time></trkpt><trkpt lat="39.7287941" lon="8.6467839"><ele>8.0</ele><time>2026-05-01T07:04:58.256Z</time></trkpt><trkpt lat="39.7287696" lon="8.6466346"><ele>8.0</ele><time>2026-05-01T07:04:59.255Z</time></trkpt><trkpt lat="39.7287157" lon="8.6465048"><ele>8.0</ele><time>2026-05-01T07:05:00.256Z</time></trkpt><trkpt lat="39.7286321" lon="8.6463966"><ele>8.0</ele><time>2026-05-01T07:05:01.256Z</time></trkpt><trkpt lat="39.728527" lon="8.646325"><ele>8.0</ele><time>2026-05-01T07:05:02.257Z</time></trkpt><trkpt lat="39.7284135" lon="8.6462965"><ele>8.0</ele><time>2026-05-01T07:05:03.256Z</time></trkpt><trkpt lat="39.7282938" lon="8.6463135"><ele>8.0</ele><time>2026-05-01T07:05:04.257Z</time></trkpt><trkpt lat="39.7281834" lon="8.6463716"><ele>8.0</ele><time>2026-05-01T07:05:05.257Z</time></trkpt><trkpt lat="39.7280945" lon="8.6464625"><ele>8.0</ele><time>2026-05-01T07:05:06.257Z</time></trkpt><trkpt lat="39.7280311" lon="8.6465869"><ele>8.0</ele><time>2026-05-01T07:05:07.257Z</time></trkpt><trkpt lat="39.7279942" lon="8.6467347"><ele>8.0</ele><time>2026-05-01T07:05:08.256Z</time></trkpt><trkpt lat="39.7279889" lon="8.6468917"><ele>8.0</ele><time>2026-05-01T07:05:09.256Z</time></trkpt><trkpt lat="39.7279988" lon="8.6470422"><ele>8.0</ele><time>2026-05-01T07:05:10.257Z</time></trkpt><trkpt lat="39.7279959" lon="8.6471803"><ele>8.0</ele><time>2026-05-01T07:05:11.256Z</time></trkpt><trkpt lat="39.727959" lon="8.6473112"><ele>8.25</ele><time>2026-05-01T07:05:12.257Z</time></trkpt><trkpt lat="39.7278962" lon="8.6474427"><ele>8.5</ele><time>2026-05-01T07:05:13.257Z</time></trkpt><trkpt lat="39.7278091" lon="8.6475743"><ele>8.75</ele><time>2026-05-01T07:05:14.257Z</time></trkpt><trkpt lat="39.7277038" lon="8.6477128"><ele>9.0</ele><time>2026-05-01T07:05:15.255Z</time></trkpt><trkpt lat="39.7275842" lon="8.647868"><ele>9.0</ele><time>2026-05-01T07:05:16.257Z</time></trkpt><trkpt lat="39.7274547" lon="8.6480402"><ele>9.0</ele><time>2026-05-01T07:05:17.256Z</time></trkpt><trkpt lat="39.7273176" lon="8.6482223"><ele>9.0</ele><time>2026-05-01T07:05:18.256Z</time></trkpt><trkpt lat="39.7271737" lon="8.6484122"><ele>9.0</ele><time>2026-05-01T07:05:19.256Z</time></trkpt><trkpt lat="39.7270277" lon="8.6486068"><ele>9.0</ele><time>2026-05-01T07:05:20.257Z</time></trkpt><trkpt lat="39.7268778" lon="8.6488069"><ele>9.0</ele><time>2026-05-01T07:05:21.257Z</time></trkpt><trkpt lat="39.7267182" lon="8.6490197"><ele>9.0</ele><time>2026-05-01T07:05:22.256Z</time></trkpt><trkpt lat="39.726564" lon="8.649224"><ele>9.0</ele><time>2026-05-01T07:05:23.255Z</time></trkpt><trkpt lat="39.7264166" lon="8.6494233"><ele>9.0</ele><time>2026-05-01T07:05:24.256Z</time></trkpt><trkpt lat="39.7262683" lon="8.6496254"><ele>8.666666666666666</ele><time>2026-05-01T07:05:25.256Z</time></trkpt><trkpt lat="39.7261166" lon="8.6498279"><ele>8.333333333333332</ele><time>2026-05-01T07:05:26.257Z</time></trkpt><trkpt lat="39.7259622" lon="8.6500361"><ele>8.0</ele><time>2026-05-01T07:05:27.256Z</time></trkpt><trkpt lat="39.7258074" lon="8.6502441"><ele>8.5</ele><time>2026-05-01T07:05:28.256Z</time></trkpt><trkpt lat="39.7256473" lon="8.6504573"><ele>9.0</ele><time>2026-05-01T07:05:29.256Z</time></trkpt><trkpt lat="39.7254915" lon="8.6506639"><ele>9.0</ele><time>2026-05-01T07:05:30.255Z</time></trkpt><trkpt lat="39.7253378" lon="8.6508696"><ele>9.0</ele><time>2026-05-01T07:05:31.256Z</time></trkpt><trkpt lat="39.7251907" lon="8.6510678"><ele>9.0</ele><time>2026-05-01T07:05:32.256Z</time></trkpt><trkpt lat="39.7250467" lon="8.6512639"><ele>9.333333333333334</ele><time>2026-05-01T07:05:33.256Z</time></trkpt><trkpt lat="39.7248999" lon="8.6514615"><ele>9.666666666666668</ele><time>2026-05-01T07:05:34.257Z</time></trkpt><trkpt lat="39.7247498" lon="8.6516619"><ele>10.0</ele><time>2026-05-01T07:05:35.257Z</time></trkpt><trkpt lat="39.7245997" lon="8.6518626"><ele>10.333333333333334</ele><time>2026-05-01T07:05:36.257Z</time></trkpt><trkpt lat="39.7244494" lon="8.6520636"><ele>10.666666666666666</ele><time>2026-05-01T07:05:37.256Z</time></trkpt><trkpt lat="39.7242994" lon="8.652263"><ele>11.0</ele><time>2026-05-01T07:05:38.256Z</time></trkpt><trkpt lat="39.7241529" lon="8.6524572"><ele>11.0</ele><time>2026-05-01T07:05:39.256Z</time></trkpt><trkpt lat="39.7240143" lon="8.6526445"><ele>11.0</ele><time>2026-05-01T07:05:40.256Z</time></trkpt><trkpt lat="39.7238758" lon="8.6528311"><ele>11.0</ele><time>2026-05-01T07:05:41.257Z</time></trkpt><trkpt lat="39.7237358" lon="8.6530175"><ele>10.666666666666666</ele><time>2026-05-01T07:05:42.256Z</time></trkpt><trkpt lat="39.7235954" lon="8.653205"><ele>10.333333333333334</ele><time>2026-05-01T07:05:43.256Z</time></trkpt><trkpt lat="39.7234539" lon="8.6533901"><ele>10.0</ele><time>2026-05-01T07:05:44.256Z</time></trkpt><trkpt lat="39.7233134" lon="8.6535788"><ele>9.666666666666668</ele><time>2026-05-01T07:05:45.257Z</time></trkpt><trkpt lat="39.7231718" lon="8.6537738"><ele>9.333333333333334</ele><time>2026-05-01T07:05:46.256Z</time></trkpt><trkpt lat="39.7230265" lon="8.6539704"><ele>9.0</ele><time>2026-05-01T07:05:47.256Z</time></trkpt><trkpt lat="39.7228772" lon="8.6541683"><ele>9.333333333333334</ele><time>2026-05-01T07:05:48.256Z</time></trkpt><trkpt lat="39.7227253" lon="8.65437"><ele>9.666666666666668</ele><time>2026-05-01T07:05:49.257Z</time></trkpt><trkpt lat="39.7225722" lon="8.6545761"><ele>10.0</ele><time>2026-05-01T07:05:50.255Z</time></trkpt><trkpt lat="39.722427" lon="8.6547734"><ele>10.0</ele><time>2026-05-01T07:05:51.255Z</time></trkpt><trkpt lat="39.7222907" lon="8.6549568"><ele>10.0</ele><time>2026-05-01T07:05:52.255Z</time></trkpt><trkpt lat="39.7221744" lon="8.655112"><ele>10.0</ele><time>2026-05-01T07:05:53.257Z</time></trkpt><trkpt lat="39.7220753" lon="8.6552424"><ele>9.8</ele><time>2026-05-01T07:05:54.257Z</time></trkpt><trkpt lat="39.7219889" lon="8.6553575"><ele>9.6</ele><time>2026-05-01T07:05:55.257Z</time></trkpt><trkpt lat="39.7219114" lon="8.6554616"><ele>9.4</ele><time>2026-05-01T07:05:56.256Z</time></trkpt><trkpt lat="39.7218406" lon="8.6555581"><ele>9.2</ele><time>2026-05-01T07:05:57.256Z</time></trkpt><trkpt lat="39.7217731" lon="8.6556498"><ele>9.0</ele><time>2026-05-01T07:05:58.257Z</time></trkpt><trkpt lat="39.7217121" lon="8.6557303"><ele>9.166666666666666</ele><time>2026-05-01T07:05:59.257Z</time></trkpt><trkpt lat="39.721654" lon="8.655806"><ele>9.333333333333334</ele><time>2026-05-01T07:06:00.257Z</time></trkpt><trkpt lat="39.7215974" lon="8.6558783"><ele>9.5</ele><time>2026-05-01T07:06:01.256Z</time></trkpt><trkpt lat="39.7215447" lon="8.6559521"><ele>9.666666666666668</ele><time>2026-05-01T07:06:02.257Z</time></trkpt><trkpt lat="39.7214926" lon="8.6560226"><ele>9.833333333333334</ele><time>2026-05-01T07:06:03.257Z</time></trkpt><trkpt lat="39.7214435" lon="8.6560878"><ele>10.0</ele><time>2026-05-01T07:06:04.257Z</time></trkpt><trkpt lat="39.7213921" lon="8.6561555"><ele>10.0</ele><time>2026-05-01T07:06:05.256Z</time></trkpt><trkpt lat="39.7213431" lon="8.6562229"><ele>10.0</ele><time>2026-05-01T07:06:06.255Z</time></trkpt><trkpt lat="39.7212624" lon="8.6563337"><ele>10.0</ele><time>2026-05-01T07:06:08.257Z</time></trkpt><trkpt lat="39.7211865" lon="8.6564386"><ele>10.0</ele><time>2026-05-01T07:06:10.256Z</time></trkpt><trkpt lat="39.72111" lon="8.6565403"><ele>10.0</ele><time>2026-05-01T07:06:12.256Z</time></trkpt><trkpt lat="39.7210296" lon="8.656626"><ele>10.0</ele><time>2026-05-01T07:06:14.256Z</time></trkpt><trkpt lat="39.7209262" lon="8.656664"><ele>10.0</ele><time>2026-05-01T07:06:16.257Z</time></trkpt><trkpt lat="39.7208083" lon="8.6566184"><ele>10.0</ele><time>2026-05-01T07:06:18.257Z</time></trkpt><trkpt lat="39.7207508" lon="8.6565565"><ele>10.0</ele><time>2026-05-01T07:06:19.256Z</time></trkpt><trkpt lat="39.7206874" lon="8.6564764"><ele>10.0</ele><time>2026-05-01T07:06:20.256Z</time></trkpt><trkpt lat="39.7206131" lon="8.6563847"><ele>10.0</ele><time>2026-05-01T07:06:21.256Z</time></trkpt><trkpt lat="39.7205314" lon="8.6562816"><ele>10.0</ele><time>2026-05-01T07:06:22.256Z</time></trkpt><trkpt lat="39.7204476" lon="8.6561775"><ele>10.0</ele><time>2026-05-01T07:06:23.257Z</time></trkpt><trkpt lat="39.7203684" lon="8.6560736"><ele>10.0</ele><time>2026-05-01T07:06:24.255Z</time></trkpt><trkpt lat="39.7202852" lon="8.6559682"><ele>10.0</ele><time>2026-05-01T07:06:25.256Z</time></trkpt><trkpt lat="39.7201989" lon="8.6558621"><ele>10.0</ele><time>2026-05-01T07:06:26.257Z</time></trkpt><trkpt lat="39.7201086" lon="8.6557496"><ele>10.0</ele><time>2026-05-01T07:06:27.256Z</time></trkpt><trkpt lat="39.7200139" lon="8.6556312"><ele>10.0</ele><time>2026-05-01T07:06:28.256Z</time></trkpt><trkpt lat="39.719915" lon="8.6555032"><ele>10.0</ele><time>2026-05-01T07:06:29.256Z</time></trkpt><trkpt lat="39.7198122" lon="8.6553708"><ele>10.0</ele><time>2026-05-01T07:06:30.257Z</time></trkpt><trkpt lat="39.7197043" lon="8.6552327"><ele>10.0</ele><time>2026-05-01T07:06:31.256Z</time></trkpt><trkpt lat="39.7195906" lon="8.6550904"><ele>10.0</ele><time>2026-05-01T07:06:32.257Z</time></trkpt><trkpt lat="39.7194736" lon="8.6549408"><ele>10.0</ele><time>2026-05-01T07:06:33.257Z</time></trkpt><trkpt lat="39.7193538" lon="8.6547884"><ele>10.0</ele><time>2026-05-01T07:06:34.257Z</time></trkpt><trkpt lat="39.7192325" lon="8.6546352"><ele>10.0</ele><time>2026-05-01T07:06:35.257Z</time></trkpt><trkpt lat="39.7191081" lon="8.6544788"><ele>10.0</ele><time>2026-05-01T07:06:36.257Z</time></trkpt><trkpt lat="39.718981" lon="8.6543187"><ele>10.0</ele><time>2026-05-01T07:06:37.257Z</time></trkpt><trkpt lat="39.7188509" lon="8.6541514"><ele>10.0</ele><time>2026-05-01T07:06:38.257Z</time></trkpt><trkpt lat="39.7187156" lon="8.6539824"><ele>10.0</ele><time>2026-05-01T07:06:39.257Z</time></trkpt><trkpt lat="39.7185789" lon="8.6538113"><ele>10.0</ele><time>2026-05-01T07:06:40.256Z</time></trkpt><trkpt lat="39.7184469" lon="8.6536432"><ele>9.666666666666668</ele><time>2026-05-01T07:06:41.256Z</time></trkpt><trkpt lat="39.7183208" lon="8.6534812"><ele>9.333333333333334</ele><time>2026-05-01T07:06:42.256Z</time></trkpt><trkpt lat="39.7181957" lon="8.6533244"><ele>9.0</ele><time>2026-05-01T07:06:43.256Z</time></trkpt><trkpt lat="39.718068" lon="8.6531732"><ele>9.0</ele><time>2026-05-01T07:06:44.257Z</time></trkpt><trkpt lat="39.717937" lon="8.6530256"><ele>9.0</ele><time>2026-05-01T07:06:45.256Z</time></trkpt><trkpt lat="39.7178003" lon="8.6528813"><ele>9.0</ele><time>2026-05-01T07:06:46.257Z</time></trkpt><trkpt lat="39.7176547" lon="8.6527453"><ele>9.333333333333334</ele><time>2026-05-01T07:06:47.257Z</time></trkpt><trkpt lat="39.717497" lon="8.6526162"><ele>9.666666666666668</ele><time>2026-05-01T07:06:48.255Z</time></trkpt><trkpt lat="39.717332" lon="8.6524876"><ele>10.0</ele><time>2026-05-01T07:06:49.255Z</time></trkpt><trkpt lat="39.7171591" lon="8.6523581"><ele>10.0</ele><time>2026-05-01T07:06:50.256Z</time></trkpt><trkpt lat="39.7169819" lon="8.652225"><ele>10.0</ele><time>2026-05-01T07:06:51.255Z</time></trkpt><trkpt lat="39.7168026" lon="8.6520912"><ele>10.0</ele><time>2026-05-01T07:06:52.255Z</time></trkpt><trkpt lat="39.7166283" lon="8.6519606"><ele>9.666666666666668</ele><time>2026-05-01T07:06:53.257Z</time></trkpt><trkpt lat="39.7164626" lon="8.6518382"><ele>9.333333333333334</ele><time>2026-05-01T07:06:54.257Z</time></trkpt><trkpt lat="39.7163028" lon="8.6517218"><ele>9.0</ele><time>2026-05-01T07:06:55.257Z</time></trkpt><trkpt lat="39.7161519" lon="8.6516111"><ele>9.333333333333334</ele><time>2026-05-01T07:06:56.257Z</time></trkpt><trkpt lat="39.7160086" lon="8.6515032"><ele>9.666666666666668</ele><time>2026-05-01T07:06:57.256Z</time></trkpt><trkpt lat="39.7158657" lon="8.6513957"><ele>10.0</ele><time>2026-05-01T07:06:58.256Z</time></trkpt><trkpt lat="39.7157207" lon="8.6512865"><ele>10.0</ele><time>2026-05-01T07:06:59.257Z</time></trkpt><trkpt lat="39.7155731" lon="8.6511762"><ele>10.0</ele><time>2026-05-01T07:07:00.256Z</time></trkpt><trkpt lat="39.7154207" lon="8.6510606"><ele>10.0</ele><time>2026-05-01T07:07:01.255Z</time></trkpt><trkpt lat="39.7152616" lon="8.6509426"><ele>10.333333333333334</ele><time>2026-05-01T07:07:02.256Z</time></trkpt><trkpt lat="39.7150974" lon="8.6508222"><ele>10.666666666666666</ele><time>2026-05-01T07:07:03.257Z</time></trkpt><trkpt lat="39.7149296" lon="8.6506968"><ele>11.0</ele><time>2026-05-01T07:07:04.257Z</time></trkpt><trkpt lat="39.71476" lon="8.6505711"><ele>11.0</ele><time>2026-05-01T07:07:05.256Z</time></trkpt><trkpt lat="39.7145936" lon="8.6504376"><ele>11.0</ele><time>2026-05-01T07:07:06.256Z</time></trkpt><trkpt lat="39.7144386" lon="8.6502938"><ele>11.0</ele><time>2026-05-01T07:07:07.257Z</time></trkpt><trkpt lat="39.7142949" lon="8.6501403"><ele>11.333333333333332</ele><time>2026-05-01T07:07:08.256Z</time></trkpt><trkpt lat="39.7141567" lon="8.6499763"><ele>11.666666666666666</ele><time>2026-05-01T07:07:09.256Z</time></trkpt><trkpt lat="39.7140262" lon="8.6498031"><ele>12.0</ele><time>2026-05-01T07:07:10.255Z</time></trkpt><trkpt lat="39.7139018" lon="8.6496205"><ele>12.0</ele><time>2026-05-01T07:07:11.255Z</time></trkpt><trkpt lat="39.7137826" lon="8.6494311"><ele>12.0</ele><time>2026-05-01T07:07:12.255Z</time></trkpt><trkpt lat="39.7136632" lon="8.6492335"><ele>12.0</ele><time>2026-05-01T07:07:13.256Z</time></trkpt><trkpt lat="39.7135404" lon="8.6490283"><ele>12.0</ele><time>2026-05-01T07:07:14.255Z</time></trkpt><trkpt lat="39.7134133" lon="8.648813"><ele>12.0</ele><time>2026-05-01T07:07:15.257Z</time></trkpt><trkpt lat="39.7132822" lon="8.6485896"><ele>12.0</ele><time>2026-05-01T07:07:16.257Z</time></trkpt><trkpt lat="39.7131577" lon="8.6483763"><ele>12.0</ele><time>2026-05-01T07:07:17.257Z</time></trkpt><trkpt lat="39.7130357" lon="8.6481664"><ele>12.0</ele><time>2026-05-01T07:07:18.255Z</time></trkpt><trkpt lat="39.7129187" lon="8.6479678"><ele>12.0</ele><time>2026-05-01T07:07:19.256Z</time></trkpt><trkpt lat="39.7128052" lon="8.647775"><ele>12.666666666666668</ele><time>2026-05-01T07:07:20.257Z</time></trkpt><trkpt lat="39.7126898" lon="8.6475805"><ele>13.333333333333334</ele><time>2026-05-01T07:07:21.256Z</time></trkpt><trkpt lat="39.7125708" lon="8.6473802"><ele>14.0</ele><time>2026-05-01T07:07:22.257Z</time></trkpt><trkpt lat="39.7124477" lon="8.6471714"><ele>13.0</ele><time>2026-05-01T07:07:23.257Z</time></trkpt><trkpt lat="39.7123214" lon="8.6469553"><ele>12.0</ele><time>2026-05-01T07:07:24.257Z</time></trkpt><trkpt lat="39.7121984" lon="8.6467442"><ele>11.0</ele><time>2026-05-01T07:07:25.257Z</time></trkpt><trkpt lat="39.712083" lon="8.6465421"><ele>11.0</ele><time>2026-05-01T07:07:26.256Z</time></trkpt><trkpt lat="39.7119683" lon="8.6463449"><ele>11.0</ele><time>2026-05-01T07:07:27.256Z</time></trkpt><trkpt lat="39.7118554" lon="8.6461483"><ele>11.0</ele><time>2026-05-01T07:07:28.257Z</time></trkpt><trkpt lat="39.7117439" lon="8.6459546"><ele>11.0</ele><time>2026-05-01T07:07:29.255Z</time></trkpt><trkpt lat="39.7116328" lon="8.645755"><ele>11.0</ele><time>2026-05-01T07:07:30.255Z</time></trkpt><trkpt lat="39.711519" lon="8.6455534"><ele>11.0</ele><time>2026-05-01T07:07:31.257Z</time></trkpt><trkpt lat="39.7114019" lon="8.6453506"><ele>11.333333333333332</ele><time>2026-05-01T07:07:32.256Z</time></trkpt><trkpt lat="39.711286" lon="8.6451479"><ele>11.666666666666666</ele><time>2026-05-01T07:07:33.256Z</time></trkpt><trkpt lat="39.7111734" lon="8.6449507"><ele>12.0</ele><time>2026-05-01T07:07:34.256Z</time></trkpt><trkpt lat="39.7110671" lon="8.6447548"><ele>12.0</ele><time>2026-05-01T07:07:35.256Z</time></trkpt><trkpt lat="39.7109665" lon="8.6445543"><ele>12.0</ele><time>2026-05-01T07:07:36.256Z</time></trkpt><trkpt lat="39.7108702" lon="8.6443478"><ele>12.0</ele><time>2026-05-01T07:07:37.257Z</time></trkpt><trkpt lat="39.7107799" lon="8.6441315"><ele>11.333333333333334</ele><time>2026-05-01T07:07:38.257Z</time></trkpt><trkpt lat="39.7106955" lon="8.6439035"><ele>10.666666666666668</ele><time>2026-05-01T07:07:39.257Z</time></trkpt><trkpt lat="39.7106123" lon="8.6436651"><ele>10.0</ele><time>2026-05-01T07:07:40.256Z</time></trkpt><trkpt lat="39.7105279" lon="8.6434174"><ele>10.0</ele><time>2026-05-01T07:07:41.255Z</time></trkpt><trkpt lat="39.7104396" lon="8.6431636"><ele>10.0</ele><time>2026-05-01T07:07:42.256Z</time></trkpt><trkpt lat="39.7103497" lon="8.6429089"><ele>10.0</ele><time>2026-05-01T07:07:43.255Z</time></trkpt><trkpt lat="39.7102633" lon="8.6426588"><ele>10.333333333333334</ele><time>2026-05-01T07:07:44.255Z</time></trkpt><trkpt lat="39.7101813" lon="8.6424251"><ele>10.666666666666666</ele><time>2026-05-01T07:07:45.256Z</time></trkpt><trkpt lat="39.7101038" lon="8.6422077"><ele>11.0</ele><time>2026-05-01T07:07:46.256Z</time></trkpt><trkpt lat="39.7100263" lon="8.6419952"><ele>11.0</ele><time>2026-05-01T07:07:47.255Z</time></trkpt><trkpt lat="39.7099468" lon="8.6417781"><ele>11.0</ele><time>2026-05-01T07:07:48.256Z</time></trkpt><trkpt lat="39.7098651" lon="8.6415563"><ele>11.0</ele><time>2026-05-01T07:07:49.256Z</time></trkpt><trkpt lat="39.7097811" lon="8.6413269"><ele>11.0</ele><time>2026-05-01T07:07:50.256Z</time></trkpt><trkpt lat="39.7096965" lon="8.6410899"><ele>11.0</ele><time>2026-05-01T07:07:51.257Z</time></trkpt><trkpt lat="39.7096137" lon="8.6408455"><ele>11.0</ele><time>2026-05-01T07:07:52.255Z</time></trkpt><trkpt lat="39.7095305" lon="8.6405989"><ele>11.0</ele><time>2026-05-01T07:07:53.256Z</time></trkpt><trkpt lat="39.7094484" lon="8.6403499"><ele>11.0</ele><time>2026-05-01T07:07:54.256Z</time></trkpt><trkpt lat="39.7093684" lon="8.640112"><ele>11.0</ele><time>2026-05-01T07:07:55.255Z</time></trkpt><trkpt lat="39.7092874" lon="8.6398772"><ele>11.0</ele><time>2026-05-01T07:07:56.257Z</time></trkpt><trkpt lat="39.7092106" lon="8.6396523"><ele>11.0</ele><time>2026-05-01T07:07:57.257Z</time></trkpt><trkpt lat="39.7091355" lon="8.6394351"><ele>11.0</ele><time>2026-05-01T07:07:58.256Z</time></trkpt><trkpt lat="39.7090642" lon="8.6392203"><ele>10.666666666666666</ele><time>2026-05-01T07:07:59.256Z</time></trkpt><trkpt lat="39.7089943" lon="8.6390151"><ele>10.333333333333334</ele><time>2026-05-01T07:08:00.255Z</time></trkpt><trkpt lat="39.7089297" lon="8.638825"><ele>10.0</ele><time>2026-05-01T07:08:01.256Z</time></trkpt><trkpt lat="39.708871" lon="8.6386503"><ele>10.2</ele><time>2026-05-01T07:08:02.256Z</time></trkpt><trkpt lat="39.7088147" lon="8.6384889"><ele>10.4</ele><time>2026-05-01T07:08:03.255Z</time></trkpt><trkpt lat="39.7087651" lon="8.6383453"><ele>10.600000000000001</ele><time>2026-05-01T07:08:04.255Z</time></trkpt><trkpt lat="39.7087297" lon="8.6382219"><ele>10.8</ele><time>2026-05-01T07:08:05.257Z</time></trkpt><trkpt lat="39.708708" lon="8.6381141"><ele>11.0</ele><time>2026-05-01T07:08:06.257Z</time></trkpt><trkpt lat="39.708699" lon="8.6380201"><ele>11.0</ele><time>2026-05-01T07:08:07.257Z</time></trkpt><trkpt lat="39.708697" lon="8.6378702"><ele>11.0</ele><time>2026-05-01T07:08:09.256Z</time></trkpt><trkpt lat="39.7086717" lon="8.6377508"><ele>11.0</ele><time>2026-05-01T07:08:11.257Z</time></trkpt><trkpt lat="39.708602" lon="8.6376684"><ele>11.0</ele><time>2026-05-01T07:08:13.257Z</time></trkpt><trkpt lat="39.7085415" lon="8.637644"><ele>11.0</ele><time>2026-05-01T07:08:14.257Z</time></trkpt><trkpt lat="39.7084667" lon="8.6376396"><ele>11.0</ele><time>2026-05-01T07:08:15.256Z</time></trkpt><trkpt lat="39.7083767" lon="8.6376497"><ele>11.25</ele><time>2026-05-01T07:08:16.255Z</time></trkpt><trkpt lat="39.7082687" lon="8.6376756"><ele>11.5</ele><time>2026-05-01T07:08:17.255Z</time></trkpt><trkpt lat="39.7081402" lon="8.637713"><ele>11.75</ele><time>2026-05-01T07:08:18.256Z</time></trkpt><trkpt lat="39.7079968" lon="8.6377598"><ele>12.0</ele><time>2026-05-01T07:08:19.256Z</time></trkpt><trkpt lat="39.7078417" lon="8.6378119"><ele>11.666666666666666</ele><time>2026-05-01T07:08:20.255Z</time></trkpt><trkpt lat="39.7076748" lon="8.6378683"><ele>11.333333333333332</ele><time>2026-05-01T07:08:21.257Z</time></trkpt><trkpt lat="39.7075018" lon="8.6379307"><ele>11.0</ele><time>2026-05-01T07:08:22.256Z</time></trkpt><trkpt lat="39.7073381" lon="8.6379943"><ele>11.0</ele><time>2026-05-01T07:08:23.256Z</time></trkpt><trkpt lat="39.7071732" lon="8.6380613"><ele>11.0</ele><time>2026-05-01T07:08:24.257Z</time></trkpt><trkpt lat="39.7070096" lon="8.6381276"><ele>11.0</ele><time>2026-05-01T07:08:25.256Z</time></trkpt><trkpt lat="39.7068524" lon="8.6381886"><ele>11.0</ele><time>2026-05-01T07:08:26.256Z</time></trkpt><trkpt lat="39.7066989" lon="8.6382457"><ele>11.0</ele><time>2026-05-01T07:08:27.256Z</time></trkpt><trkpt lat="39.7065412" lon="8.6383034"><ele>11.0</ele><time>2026-05-01T07:08:28.256Z</time></trkpt><trkpt lat="39.7063788" lon="8.6383648"><ele>11.0</ele><time>2026-05-01T07:08:29.256Z</time></trkpt><trkpt lat="39.7062121" lon="8.6384284"><ele>11.0</ele><time>2026-05-01T07:08:30.256Z</time></trkpt><trkpt lat="39.7060412" lon="8.6384932"><ele>11.0</ele><time>2026-05-01T07:08:31.256Z</time></trkpt><trkpt lat="39.7058652" lon="8.6385581"><ele>10.666666666666666</ele><time>2026-05-01T07:08:32.255Z</time></trkpt><trkpt lat="39.7056845" lon="8.6386262"><ele>10.333333333333334</ele><time>2026-05-01T07:08:33.256Z</time></trkpt><trkpt lat="39.7055006" lon="8.638697"><ele>10.0</ele><time>2026-05-01T07:08:34.256Z</time></trkpt><trkpt lat="39.7053145" lon="8.6387687"><ele>10.666666666666668</ele><time>2026-05-01T07:08:35.256Z</time></trkpt><trkpt lat="39.705126" lon="8.6388397"><ele>11.333333333333334</ele><time>2026-05-01T07:08:36.256Z</time></trkpt><trkpt lat="39.7049375" lon="8.6389089"><ele>12.0</ele><time>2026-05-01T07:08:37.255Z</time></trkpt><trkpt lat="39.7047571" lon="8.6389769"><ele>12.0</ele><time>2026-05-01T07:08:38.256Z</time></trkpt><trkpt lat="39.7045761" lon="8.6390461"><ele>12.0</ele><time>2026-05-01T07:08:39.255Z</time></trkpt><trkpt lat="39.7043953" lon="8.6391134"><ele>12.0</ele><time>2026-05-01T07:08:40.257Z</time></trkpt><trkpt lat="39.7042147" lon="8.63918"><ele>12.0</ele><time>2026-05-01T07:08:41.256Z</time></trkpt><trkpt lat="39.7040339" lon="8.6392466"><ele>12.0</ele><time>2026-05-01T07:08:42.255Z</time></trkpt><trkpt lat="39.7038529" lon="8.6393135"><ele>12.0</ele><time>2026-05-01T07:08:43.257Z</time></trkpt><trkpt lat="39.703672" lon="8.6393817"><ele>12.333333333333332</ele><time>2026-05-01T07:08:44.257Z</time></trkpt><trkpt lat="39.7034906" lon="8.6394495"><ele>12.666666666666666</ele><time>2026-05-01T07:08:45.257Z</time></trkpt><trkpt lat="39.7033079" lon="8.6395175"><ele>13.0</ele><time>2026-05-01T07:08:46.256Z</time></trkpt><trkpt lat="39.7031241" lon="8.6395861"><ele>13.0</ele><time>2026-05-01T07:08:47.255Z</time></trkpt><trkpt lat="39.7029385" lon="8.6396568"><ele>13.0</ele><time>2026-05-01T07:08:48.256Z</time></trkpt><trkpt lat="39.7027507" lon="8.6397285"><ele>13.0</ele><time>2026-05-01T07:08:49.256Z</time></trkpt><trkpt lat="39.7025616" lon="8.6398021"><ele>13.333333333333332</ele><time>2026-05-01T07:08:50.256Z</time></trkpt><trkpt lat="39.7023787" lon="8.6398729"><ele>13.666666666666668</ele><time>2026-05-01T07:08:51.256Z</time></trkpt><trkpt lat="39.7022017" lon="8.6399395"><ele>14.0</ele><time>2026-05-01T07:08:52.255Z</time></trkpt><trkpt lat="39.7020297" lon="8.640004"><ele>13.666666666666668</ele><time>2026-05-01T07:08:53.255Z</time></trkpt><trkpt lat="39.7018624" lon="8.6400653"><ele>13.333333333333332</ele><time>2026-05-01T07:08:54.255Z</time></trkpt><trkpt lat="39.7017002" lon="8.6401235"><ele>13.0</ele><time>2026-05-01T07:08:55.256Z</time></trkpt><trkpt lat="39.7015409" lon="8.6401819"><ele>13.0</ele><time>2026-05-01T07:08:56.255Z</time></trkpt><trkpt lat="39.7013854" lon="8.6402411"><ele>13.0</ele><time>2026-05-01T07:08:57.256Z</time></trkpt><trkpt lat="39.7012387" lon="8.6402954"><ele>13.0</ele><time>2026-05-01T07:08:58.256Z</time></trkpt><trkpt lat="39.7010973" lon="8.6403472"><ele>13.333333333333332</ele><time>2026-05-01T07:08:59.256Z</time></trkpt><trkpt lat="39.7009544" lon="8.6403989"><ele>13.666666666666668</ele><time>2026-05-01T07:09:00.257Z</time></trkpt><trkpt lat="39.7008067" lon="8.6404526"><ele>14.0</ele><time>2026-05-01T07:09:01.257Z</time></trkpt><trkpt lat="39.7006528" lon="8.6405088"><ele>14.0</ele><time>2026-05-01T07:09:02.256Z</time></trkpt><trkpt lat="39.7004953" lon="8.6405658"><ele>14.0</ele><time>2026-05-01T07:09:03.256Z</time></trkpt><trkpt lat="39.7003328" lon="8.6406242"><ele>14.0</ele><time>2026-05-01T07:09:04.256Z</time></trkpt><trkpt lat="39.7001649" lon="8.6406856"><ele>13.666666666666668</ele><time>2026-05-01T07:09:05.256Z</time></trkpt><trkpt lat="39.6999941" lon="8.6407476"><ele>13.333333333333332</ele><time>2026-05-01T07:09:06.256Z</time></trkpt><trkpt lat="39.699826" lon="8.6408078"><ele>13.0</ele><time>2026-05-01T07:09:07.256Z</time></trkpt><trkpt lat="39.6996545" lon="8.6408691"><ele>13.0</ele><time>2026-05-01T07:09:08.256Z</time></trkpt><trkpt lat="39.6994787" lon="8.6409319"><ele>13.0</ele><time>2026-05-01T07:09:09.255Z</time></trkpt><trkpt lat="39.6992978" lon="8.6409958"><ele>13.0</ele><time>2026-05-01T07:09:10.255Z</time></trkpt><trkpt lat="39.6991132" lon="8.6410622"><ele>13.0</ele><time>2026-05-01T07:09:11.255Z</time></trkpt><trkpt lat="39.6989356" lon="8.6411257"><ele>13.0</ele><time>2026-05-01T07:09:12.257Z</time></trkpt><trkpt lat="39.6987581" lon="8.6411905"><ele>13.0</ele><time>2026-05-01T07:09:13.256Z</time></trkpt><trkpt lat="39.6985777" lon="8.6412549"><ele>13.666666666666666</ele><time>2026-05-01T07:09:14.257Z</time></trkpt><trkpt lat="39.6983948" lon="8.6413175"><ele>14.333333333333332</ele><time>2026-05-01T07:09:15.257Z</time></trkpt><trkpt lat="39.6982191" lon="8.6413806"><ele>15.0</ele><time>2026-05-01T07:09:16.256Z</time></trkpt><trkpt lat="39.6980439" lon="8.6414452"><ele>15.0</ele><time>2026-05-01T07:09:17.256Z</time></trkpt><trkpt lat="39.6978637" lon="8.6415091"><ele>15.0</ele><time>2026-05-01T07:09:18.256Z</time></trkpt><trkpt lat="39.6976783" lon="8.6415748"><ele>15.0</ele><time>2026-05-01T07:09:19.256Z</time></trkpt><trkpt lat="39.6974907" lon="8.6416401"><ele>14.666666666666668</ele><time>2026-05-01T07:09:20.256Z</time></trkpt><trkpt lat="39.697308" lon="8.6417062"><ele>14.333333333333334</ele><time>2026-05-01T07:09:21.255Z</time></trkpt><trkpt lat="39.6971207" lon="8.6417725"><ele>14.0</ele><time>2026-05-01T07:09:22.256Z</time></trkpt><trkpt lat="39.6969269" lon="8.6418417"><ele>14.0</ele><time>2026-05-01T07:09:23.256Z</time></trkpt><trkpt lat="39.6967187" lon="8.6419153"><ele>14.0</ele><time>2026-05-01T07:09:24.257Z</time></trkpt><trkpt lat="39.6965179" lon="8.6419882"><ele>14.0</ele><time>2026-05-01T07:09:25.256Z</time></trkpt><trkpt lat="39.6963165" lon="8.6420591"><ele>14.333333333333334</ele><time>2026-05-01T07:09:26.257Z</time></trkpt><trkpt lat="39.6961221" lon="8.642128"><ele>14.666666666666668</ele><time>2026-05-01T07:09:27.256Z</time></trkpt><trkpt lat="39.6959337" lon="8.6421954"><ele>15.0</ele><time>2026-05-01T07:09:28.255Z</time></trkpt><trkpt lat="39.6957438" lon="8.6422621"><ele>15.0</ele><time>2026-05-01T07:09:29.256Z</time></trkpt><trkpt lat="39.6955551" lon="8.642329"><ele>15.0</ele><time>2026-05-01T07:09:30.256Z</time></trkpt><trkpt lat="39.6953636" lon="8.6423984"><ele>15.0</ele><time>2026-05-01T07:09:31.255Z</time></trkpt><trkpt lat="39.6951728" lon="8.6424682"><ele>15.0</ele><time>2026-05-01T07:09:32.255Z</time></trkpt><trkpt lat="39.6949853" lon="8.6425363"><ele>15.0</ele><time>2026-05-01T07:09:33.255Z</time></trkpt><trkpt lat="39.6948016" lon="8.6426002"><ele>15.0</ele><time>2026-05-01T07:09:34.256Z</time></trkpt><trkpt lat="39.6946158" lon="8.6426657"><ele>15.0</ele><time>2026-05-01T07:09:35.257Z</time></trkpt><trkpt lat="39.6944303" lon="8.6427336"><ele>15.0</ele><time>2026-05-01T07:09:36.256Z</time></trkpt><trkpt lat="39.6942431" lon="8.6427991"><ele>15.0</ele><time>2026-05-01T07:09:37.256Z</time></trkpt><trkpt lat="39.6940617" lon="8.642863"><ele>15.0</ele><time>2026-05-01T07:09:38.256Z</time></trkpt><trkpt lat="39.6938773" lon="8.6429281"><ele>15.0</ele><time>2026-05-01T07:09:39.256Z</time></trkpt><trkpt lat="39.6936884" lon="8.6429953"><ele>15.0</ele><time>2026-05-01T07:09:40.257Z</time></trkpt><trkpt lat="39.6934943" lon="8.6430646"><ele>15.0</ele><time>2026-05-01T07:09:41.256Z</time></trkpt><trkpt lat="39.6932954" lon="8.6431352"><ele>15.0</ele><time>2026-05-01T07:09:42.255Z</time></trkpt><trkpt lat="39.6930976" lon="8.643205"><ele>15.0</ele><time>2026-05-01T07:09:43.256Z</time></trkpt><trkpt lat="39.6928956" lon="8.643278"><ele>15.0</ele><time>2026-05-01T07:09:44.255Z</time></trkpt><trkpt lat="39.6926931" lon="8.6433503"><ele>15.0</ele><time>2026-05-01T07:09:45.256Z</time></trkpt><trkpt lat="39.6924938" lon="8.6434202"><ele>15.0</ele><time>2026-05-01T07:09:46.256Z</time></trkpt><trkpt lat="39.692301" lon="8.6434889"><ele>15.0</ele><time>2026-05-01T07:09:47.257Z</time></trkpt><trkpt lat="39.6921077" lon="8.6435579"><ele>15.0</ele><time>2026-05-01T07:09:48.255Z</time></trkpt><trkpt lat="39.691912" lon="8.6436276"><ele>15.0</ele><time>2026-05-01T07:09:49.256Z</time></trkpt><trkpt lat="39.6917163" lon="8.6436979"><ele>14.666666666666668</ele><time>2026-05-01T07:09:50.256Z</time></trkpt><trkpt lat="39.6915207" lon="8.643767"><ele>14.333333333333334</ele><time>2026-05-01T07:09:51.256Z</time></trkpt><trkpt lat="39.6913246" lon="8.643835"><ele>14.0</ele><time>2026-05-01T07:09:52.256Z</time></trkpt><trkpt lat="39.691131" lon="8.643905"><ele>14.666666666666668</ele><time>2026-05-01T07:09:53.255Z</time></trkpt><trkpt lat="39.6909438" lon="8.6439727"><ele>15.333333333333332</ele><time>2026-05-01T07:09:54.257Z</time></trkpt><trkpt lat="39.6907586" lon="8.6440387"><ele>16.0</ele><time>2026-05-01T07:09:55.255Z</time></trkpt><trkpt lat="39.6905779" lon="8.6441051"><ele>16.0</ele><time>2026-05-01T07:09:56.256Z</time></trkpt><trkpt lat="39.6904039" lon="8.6441692"><ele>16.0</ele><time>2026-05-01T07:09:57.256Z</time></trkpt><trkpt lat="39.6902369" lon="8.6442314"><ele>16.0</ele><time>2026-05-01T07:09:58.255Z</time></trkpt><trkpt lat="39.6900744" lon="8.6442914"><ele>16.0</ele><time>2026-05-01T07:09:59.256Z</time></trkpt><trkpt lat="39.6899228" lon="8.6443455"><ele>16.0</ele><time>2026-05-01T07:10:00.257Z</time></trkpt><trkpt lat="39.6897795" lon="8.6443963"><ele>16.0</ele><time>2026-05-01T07:10:01.256Z</time></trkpt><trkpt lat="39.6896454" lon="8.6444441"><ele>16.0</ele><time>2026-05-01T07:10:02.257Z</time></trkpt><trkpt lat="39.6895131" lon="8.6444923"><ele>15.75</ele><time>2026-05-01T07:10:03.256Z</time></trkpt><trkpt lat="39.6893756" lon="8.6445418"><ele>15.5</ele><time>2026-05-01T07:10:04.256Z</time></trkpt><trkpt lat="39.6892349" lon="8.6445897"><ele>15.25</ele><time>2026-05-01T07:10:05.256Z</time></trkpt><trkpt lat="39.6890905" lon="8.6446394"><ele>15.0</ele><time>2026-05-01T07:10:06.255Z</time></trkpt><trkpt lat="39.6889493" lon="8.64469"><ele>15.0</ele><time>2026-05-01T07:10:07.257Z</time></trkpt><trkpt lat="39.6888083" lon="8.6447394"><ele>15.0</ele><time>2026-05-01T07:10:08.256Z</time></trkpt><trkpt lat="39.6886659" lon="8.6447903"><ele>15.0</ele><time>2026-05-01T07:10:09.257Z</time></trkpt><trkpt lat="39.6885201" lon="8.6448405"><ele>15.0</ele><time>2026-05-01T07:10:10.256Z</time></trkpt><trkpt lat="39.6883721" lon="8.6448944"><ele>15.0</ele><time>2026-05-01T07:10:11.256Z</time></trkpt><trkpt lat="39.6882261" lon="8.6449458"><ele>15.0</ele><time>2026-05-01T07:10:12.256Z</time></trkpt><trkpt lat="39.6880859" lon="8.6449962"><ele>15.0</ele><time>2026-05-01T07:10:13.255Z</time></trkpt><trkpt lat="39.6879482" lon="8.645046"><ele>15.0</ele><time>2026-05-01T07:10:14.256Z</time></trkpt><trkpt lat="39.687809" lon="8.6450921"><ele>15.0</ele><time>2026-05-01T07:10:15.255Z</time></trkpt><trkpt lat="39.6876666" lon="8.6451242"><ele>15.0</ele><time>2026-05-01T07:10:16.257Z</time></trkpt><trkpt lat="39.6875203" lon="8.6451419"><ele>15.0</ele><time>2026-05-01T07:10:17.257Z</time></trkpt><trkpt lat="39.6873781" lon="8.6451438"><ele>15.0</ele><time>2026-05-01T07:10:18.256Z</time></trkpt><trkpt lat="39.6872408" lon="8.6451274"><ele>15.0</ele><time>2026-05-01T07:10:19.257Z</time></trkpt><trkpt lat="39.6871163" lon="8.645099"><ele>15.0</ele><time>2026-05-01T07:10:20.255Z</time></trkpt><trkpt lat="39.6870076" lon="8.6450705"><ele>15.0</ele><time>2026-05-01T07:10:21.255Z</time></trkpt><trkpt lat="39.6869102" lon="8.6450458"><ele>15.0</ele><time>2026-05-01T07:10:22.256Z</time></trkpt><trkpt lat="39.6868197" lon="8.6450268"><ele>15.0</ele><time>2026-05-01T07:10:23.256Z</time></trkpt><trkpt lat="39.6867334" lon="8.6450078"><ele>15.0</ele><time>2026-05-01T07:10:24.256Z</time></trkpt><trkpt lat="39.6866496" lon="8.6449775"><ele>15.0</ele><time>2026-05-01T07:10:25.256Z</time></trkpt><trkpt lat="39.6865641" lon="8.6449411"><ele>15.0</ele><time>2026-05-01T07:10:26.257Z</time></trkpt><trkpt lat="39.6864672" lon="8.6449012"><ele>15.0</ele><time>2026-05-01T07:10:27.256Z</time></trkpt><trkpt lat="39.6863577" lon="8.6448612"><ele>15.0</ele><time>2026-05-01T07:10:28.256Z</time></trkpt><trkpt lat="39.6862363" lon="8.6448244"><ele>15.0</ele><time>2026-05-01T07:10:29.256Z</time></trkpt><trkpt lat="39.6861099" lon="8.6447867"><ele>15.0</ele><time>2026-05-01T07:10:30.257Z</time></trkpt><trkpt lat="39.6859881" lon="8.644748"><ele>15.0</ele><time>2026-05-01T07:10:31.257Z</time></trkpt><trkpt lat="39.6858655" lon="8.6447105"><ele>15.0</ele><time>2026-05-01T07:10:32.257Z</time></trkpt><trkpt lat="39.6857504" lon="8.6446764"><ele>14.75</ele><time>2026-05-01T07:10:33.257Z</time></trkpt><trkpt lat="39.6856429" lon="8.6446505"><ele>14.5</ele><time>2026-05-01T07:10:34.257Z</time></trkpt><trkpt lat="39.6855311" lon="8.6446433"><ele>14.25</ele><time>2026-05-01T07:10:35.257Z</time></trkpt><trkpt lat="39.6854146" lon="8.6446644"><ele>14.0</ele><time>2026-05-01T07:10:36.257Z</time></trkpt><trkpt lat="39.685298" lon="8.6447087"><ele>14.0</ele><time>2026-05-01T07:10:37.256Z</time></trkpt><trkpt lat="39.6851849" lon="8.6447714"><ele>14.0</ele><time>2026-05-01T07:10:38.256Z</time></trkpt><trkpt lat="39.6850806" lon="8.6448412"><ele>14.0</ele><time>2026-05-01T07:10:39.256Z</time></trkpt><trkpt lat="39.6849826" lon="8.6449136"><ele>14.0</ele><time>2026-05-01T07:10:40.256Z</time></trkpt><trkpt lat="39.6848872" lon="8.6449863"><ele>14.000000000000002</ele><time>2026-05-01T07:10:41.257Z</time></trkpt><trkpt lat="39.6847949" lon="8.6450514"><ele>14.0</ele><time>2026-05-01T07:10:42.256Z</time></trkpt><trkpt lat="39.6847066" lon="8.6451163"><ele>14.0</ele><time>2026-05-01T07:10:43.257Z</time></trkpt><trkpt lat="39.6846289" lon="8.6451755"><ele>14.0</ele><time>2026-05-01T07:10:44.257Z</time></trkpt><trkpt lat="39.6845629" lon="8.6452298"><ele>14.000000000000002</ele><time>2026-05-01T07:10:45.256Z</time></trkpt><trkpt lat="39.6845068" lon="8.6452797"><ele>14.0</ele><time>2026-05-01T07:10:46.255Z</time></trkpt><trkpt lat="39.6844235" lon="8.6453696"><ele>14.0</ele><time>2026-05-01T07:10:48.255Z</time></trkpt><trkpt lat="39.6843448" lon="8.6454948"><ele>13.999999999999998</ele><time>2026-05-01T07:10:50.256Z</time></trkpt><trkpt lat="39.6843023" lon="8.6455756"><ele>13.999999999999998</ele><time>2026-05-01T07:10:51.256Z</time></trkpt><trkpt lat="39.6842604" lon="8.6456659"><ele>14.0</ele><time>2026-05-01T07:10:52.256Z</time></trkpt><trkpt lat="39.6842191" lon="8.6457659"><ele>14.0</ele><time>2026-05-01T07:10:53.256Z</time></trkpt><trkpt lat="39.6841764" lon="8.6458702"><ele>14.000000000000002</ele><time>2026-05-01T07:10:54.257Z</time></trkpt><trkpt lat="39.684136" lon="8.645974"><ele>14.0</ele><time>2026-05-01T07:10:55.256Z</time></trkpt><trkpt lat="39.6841008" lon="8.6460706"><ele>14.0</ele><time>2026-05-01T07:10:56.257Z</time></trkpt><trkpt lat="39.6840675" lon="8.6461657"><ele>14.0</ele><time>2026-05-01T07:10:57.256Z</time></trkpt><trkpt lat="39.6840301" lon="8.6462586"><ele>14.000000000000002</ele><time>2026-05-01T07:10:58.256Z</time></trkpt><trkpt lat="39.6839859" lon="8.646354"><ele>14.0</ele><time>2026-05-01T07:10:59.257Z</time></trkpt><trkpt lat="39.6839327" lon="8.6464476"><ele>14.399999999999999</ele><time>2026-05-01T07:11:00.256Z</time></trkpt><trkpt lat="39.683868" lon="8.6465356"><ele>14.799999999999999</ele><time>2026-05-01T07:11:01.256Z</time></trkpt><trkpt lat="39.6837918" lon="8.6466211"><ele>15.200000000000001</ele><time>2026-05-01T07:11:02.257Z</time></trkpt><trkpt lat="39.6837083" lon="8.6467107"><ele>15.600000000000001</ele><time>2026-05-01T07:11:03.257Z</time></trkpt><trkpt lat="39.6836165" lon="8.6468011"><ele>16.0</ele><time>2026-05-01T07:11:04.255Z</time></trkpt><trkpt lat="39.6835194" lon="8.6468989"><ele>16.25</ele><time>2026-05-01T07:11:05.255Z</time></trkpt><trkpt lat="39.6834182" lon="8.6470024"><ele>16.5</ele><time>2026-05-01T07:11:06.256Z</time></trkpt><trkpt lat="39.6833099" lon="8.6471101"><ele>16.75</ele><time>2026-05-01T07:11:07.256Z</time></trkpt><trkpt lat="39.6832023" lon="8.6472197"><ele>17.0</ele><time>2026-05-01T07:11:08.256Z</time></trkpt><trkpt lat="39.6830914" lon="8.6473335"><ele>17.0</ele><time>2026-05-01T07:11:09.256Z</time></trkpt><trkpt lat="39.6829817" lon="8.6474435"><ele>17.0</ele><time>2026-05-01T07:11:10.256Z</time></trkpt><trkpt lat="39.6828757" lon="8.6475498"><ele>17.0</ele><time>2026-05-01T07:11:11.256Z</time></trkpt><trkpt lat="39.6827734" lon="8.6476557"><ele>17.0</ele><time>2026-05-01T07:11:12.256Z</time></trkpt><trkpt lat="39.6826752" lon="8.6477561"><ele>16.75</ele><time>2026-05-01T07:11:13.257Z</time></trkpt><trkpt lat="39.6825726" lon="8.6478593"><ele>16.5</ele><time>2026-05-01T07:11:14.256Z</time></trkpt><trkpt lat="39.6824704" lon="8.6479626"><ele>16.25</ele><time>2026-05-01T07:11:15.257Z</time></trkpt><trkpt lat="39.682365" lon="8.6480677"><ele>16.0</ele><time>2026-05-01T07:11:16.256Z</time></trkpt><trkpt lat="39.6822598" lon="8.6481741"><ele>16.0</ele><time>2026-05-01T07:11:17.257Z</time></trkpt><trkpt lat="39.682154" lon="8.648282"><ele>16.0</ele><time>2026-05-01T07:11:18.255Z</time></trkpt><trkpt lat="39.6820441" lon="8.6483909"><ele>16.0</ele><time>2026-05-01T07:11:19.256Z</time></trkpt><trkpt lat="39.6819336" lon="8.6485018"><ele>16.0</ele><time>2026-05-01T07:11:20.257Z</time></trkpt><trkpt lat="39.6818216" lon="8.6486139"><ele>16.0</ele><time>2026-05-01T07:11:21.256Z</time></trkpt><trkpt lat="39.6817071" lon="8.6487297"><ele>16.0</ele><time>2026-05-01T07:11:22.256Z</time></trkpt><trkpt lat="39.6815905" lon="8.6488469"><ele>16.0</ele><time>2026-05-01T07:11:23.256Z</time></trkpt><trkpt lat="39.6814781" lon="8.6489614"><ele>16.0</ele><time>2026-05-01T07:11:24.256Z</time></trkpt><trkpt lat="39.6813697" lon="8.649072"><ele>16.0</ele><time>2026-05-01T07:11:25.255Z</time></trkpt><trkpt lat="39.6812629" lon="8.6491807"><ele>16.0</ele><time>2026-05-01T07:11:26.255Z</time></trkpt><trkpt lat="39.6811538" lon="8.6492908"><ele>16.0</ele><time>2026-05-01T07:11:27.257Z</time></trkpt><trkpt lat="39.6810414" lon="8.6494041"><ele>16.0</ele><time>2026-05-01T07:11:28.256Z</time></trkpt><trkpt lat="39.6809252" lon="8.6495204"><ele>16.0</ele><time>2026-05-01T07:11:29.256Z</time></trkpt><trkpt lat="39.6808054" lon="8.6496407"><ele>16.0</ele><time>2026-05-01T07:11:30.255Z</time></trkpt><trkpt lat="39.680682" lon="8.6497664"><ele>16.0</ele><time>2026-05-01T07:11:31.255Z</time></trkpt><trkpt lat="39.680555" lon="8.6498968"><ele>16.0</ele><time>2026-05-01T07:11:32.255Z</time></trkpt><trkpt lat="39.6804242" lon="8.6500303"><ele>16.0</ele><time>2026-05-01T07:11:33.257Z</time></trkpt><trkpt lat="39.680298" lon="8.6501589"><ele>16.0</ele><time>2026-05-01T07:11:34.256Z</time></trkpt><trkpt lat="39.6801746" lon="8.6502826"><ele>16.0</ele><time>2026-05-01T07:11:35.257Z</time></trkpt><trkpt lat="39.6800529" lon="8.6503985"><ele>16.0</ele><time>2026-05-01T07:11:36.257Z</time></trkpt><trkpt lat="39.679933" lon="8.6505064"><ele>16.0</ele><time>2026-05-01T07:11:37.257Z</time></trkpt><trkpt lat="39.6798133" lon="8.6506069"><ele>16.0</ele><time>2026-05-01T07:11:38.257Z</time></trkpt><trkpt lat="39.6796943" lon="8.6506961"><ele>16.0</ele><time>2026-05-01T07:11:39.255Z</time></trkpt><trkpt lat="39.6795755" lon="8.650773"><ele>16.0</ele><time>2026-05-01T07:11:40.257Z</time></trkpt><trkpt lat="39.6794638" lon="8.6508348"><ele>16.0</ele><time>2026-05-01T07:11:41.255Z</time></trkpt><trkpt lat="39.6793618" lon="8.6508748"><ele>16.0</ele><time>2026-05-01T07:11:42.257Z</time></trkpt><trkpt lat="39.6792674" lon="8.6508849"><ele>15.600000000000001</ele><time>2026-05-01T07:11:43.257Z</time></trkpt><trkpt lat="39.6791791" lon="8.65087"><ele>15.200000000000001</ele><time>2026-05-01T07:11:44.256Z</time></trkpt><trkpt lat="39.6790937" lon="8.6508601"><ele>14.799999999999999</ele><time>2026-05-01T07:11:45.256Z</time></trkpt><trkpt lat="39.6790121" lon="8.650896"><ele>14.399999999999999</ele><time>2026-05-01T07:11:46.256Z</time></trkpt><trkpt lat="39.6789316" lon="8.650962"><ele>14.0</ele><time>2026-05-01T07:11:47.257Z</time></trkpt><trkpt lat="39.6788396" lon="8.6510294"><ele>14.0</ele><time>2026-05-01T07:11:48.256Z</time></trkpt><trkpt lat="39.6787294" lon="8.6510738"><ele>14.0</ele><time>2026-05-01T07:11:49.256Z</time></trkpt><trkpt lat="39.6786056" lon="8.6510989"><ele>14.0</ele><time>2026-05-01T07:11:50.256Z</time></trkpt><trkpt lat="39.6784675" lon="8.6511182"><ele>14.0</ele><time>2026-05-01T07:11:51.256Z</time></trkpt><trkpt lat="39.6783138" lon="8.6511356"><ele>14.333333333333334</ele><time>2026-05-01T07:11:52.256Z</time></trkpt><trkpt lat="39.6781472" lon="8.6511536"><ele>14.666666666666668</ele><time>2026-05-01T07:11:53.257Z</time></trkpt><trkpt lat="39.6779718" lon="8.6511737"><ele>15.0</ele><time>2026-05-01T07:11:54.257Z</time></trkpt><trkpt lat="39.67779" lon="8.6511947"><ele>14.666666666666668</ele><time>2026-05-01T07:11:55.256Z</time></trkpt><trkpt lat="39.6776053" lon="8.6512156"><ele>14.333333333333334</ele><time>2026-05-01T07:11:56.256Z</time></trkpt><trkpt lat="39.677417" lon="8.6512367"><ele>14.0</ele><time>2026-05-01T07:11:57.256Z</time></trkpt><trkpt lat="39.6772283" lon="8.651256"><ele>14.0</ele><time>2026-05-01T07:11:58.257Z</time></trkpt><trkpt lat="39.6770387" lon="8.6512753"><ele>14.0</ele><time>2026-05-01T07:11:59.256Z</time></trkpt><trkpt lat="39.6768467" lon="8.6512956"><ele>14.0</ele><time>2026-05-01T07:12:00.256Z</time></trkpt><trkpt lat="39.6766521" lon="8.6513182"><ele>14.0</ele><time>2026-05-01T07:12:01.256Z</time></trkpt><trkpt lat="39.6764539" lon="8.6513411"><ele>14.0</ele><time>2026-05-01T07:12:02.257Z</time></trkpt><trkpt lat="39.6762535" lon="8.6513626"><ele>14.0</ele><time>2026-05-01T07:12:03.257Z</time></trkpt><trkpt lat="39.6760504" lon="8.6513851"><ele>13.333333333333334</ele><time>2026-05-01T07:12:04.257Z</time></trkpt><trkpt lat="39.6758436" lon="8.6514084"><ele>12.666666666666668</ele><time>2026-05-01T07:12:05.257Z</time></trkpt><trkpt lat="39.675646" lon="8.6514303"><ele>12.0</ele><time>2026-05-01T07:12:06.256Z</time></trkpt><trkpt lat="39.6754528" lon="8.6514516"><ele>11.666666666666666</ele><time>2026-05-01T07:12:07.257Z</time></trkpt><trkpt lat="39.6752589" lon="8.6514719"><ele>11.333333333333332</ele><time>2026-05-01T07:12:08.256Z</time></trkpt><trkpt lat="39.6750659" lon="8.6514894"><ele>11.0</ele><time>2026-05-01T07:12:09.256Z</time></trkpt><trkpt lat="39.6748723" lon="8.6515087"><ele>11.0</ele><time>2026-05-01T07:12:10.255Z</time></trkpt><trkpt lat="39.6746781" lon="8.6515275"><ele>11.0</ele><time>2026-05-01T07:12:11.255Z</time></trkpt><trkpt lat="39.6744838" lon="8.6515469"><ele>11.0</ele><time>2026-05-01T07:12:12.256Z</time></trkpt><trkpt lat="39.6742894" lon="8.651568"><ele>11.666666666666666</ele><time>2026-05-01T07:12:13.256Z</time></trkpt><trkpt lat="39.6740967" lon="8.651589"><ele>12.333333333333332</ele><time>2026-05-01T07:12:14.255Z</time></trkpt><trkpt lat="39.6739093" lon="8.6516073"><ele>13.0</ele><time>2026-05-01T07:12:15.255Z</time></trkpt><trkpt lat="39.6737305" lon="8.6516238"><ele>12.666666666666666</ele><time>2026-05-01T07:12:16.255Z</time></trkpt><trkpt lat="39.6735546" lon="8.6516433"><ele>12.333333333333332</ele><time>2026-05-01T07:12:17.256Z</time></trkpt><trkpt lat="39.6733765" lon="8.6516613"><ele>12.0</ele><time>2026-05-01T07:12:18.256Z</time></trkpt><trkpt lat="39.6731992" lon="8.6516777"><ele>12.0</ele><time>2026-05-01T07:12:19.255Z</time></trkpt><trkpt lat="39.6730223" lon="8.651695"><ele>12.0</ele><time>2026-05-01T07:12:20.256Z</time></trkpt><trkpt lat="39.6728461" lon="8.6517168"><ele>12.0</ele><time>2026-05-01T07:12:21.257Z</time></trkpt><trkpt lat="39.6726671" lon="8.6517337"><ele>11.666666666666666</ele><time>2026-05-01T07:12:22.256Z</time></trkpt><trkpt lat="39.672487" lon="8.6517524"><ele>11.333333333333332</ele><time>2026-05-01T07:12:23.257Z</time></trkpt><trkpt lat="39.672306" lon="8.6517691"><ele>11.0</ele><time>2026-05-01T07:12:24.256Z</time></trkpt><trkpt lat="39.67213" lon="8.6517865"><ele>11.0</ele><time>2026-05-01T07:12:25.257Z</time></trkpt><trkpt lat="39.6719539" lon="8.651805"><ele>11.0</ele><time>2026-05-01T07:12:26.257Z</time></trkpt><trkpt lat="39.671781" lon="8.6518251"><ele>11.0</ele><time>2026-05-01T07:12:27.256Z</time></trkpt><trkpt lat="39.671607" lon="8.6518429"><ele>11.333333333333332</ele><time>2026-05-01T07:12:28.256Z</time></trkpt><trkpt lat="39.6714305" lon="8.6518605"><ele>11.666666666666666</ele><time>2026-05-01T07:12:29.256Z</time></trkpt><trkpt lat="39.6712533" lon="8.6518792"><ele>12.0</ele><time>2026-05-01T07:12:30.255Z</time></trkpt><trkpt lat="39.6710719" lon="8.651898"><ele>12.0</ele><time>2026-05-01T07:12:31.256Z</time></trkpt><trkpt lat="39.6708878" lon="8.6519169"><ele>12.0</ele><time>2026-05-01T07:12:32.255Z</time></trkpt><trkpt lat="39.6706983" lon="8.6519355"><ele>12.0</ele><time>2026-05-01T07:12:33.255Z</time></trkpt><trkpt lat="39.6705028" lon="8.6519546"><ele>12.0</ele><time>2026-05-01T07:12:34.256Z</time></trkpt><trkpt lat="39.670306" lon="8.6519736"><ele>12.0</ele><time>2026-05-01T07:12:35.255Z</time></trkpt><trkpt lat="39.6701091" lon="8.651994"><ele>12.0</ele><time>2026-05-01T07:12:36.256Z</time></trkpt><trkpt lat="39.6699097" lon="8.6520149"><ele>12.0</ele><time>2026-05-01T07:12:37.257Z</time></trkpt><trkpt lat="39.6697086" lon="8.6520374"><ele>12.0</ele><time>2026-05-01T07:12:38.256Z</time></trkpt><trkpt lat="39.6695114" lon="8.6520588"><ele>12.0</ele><time>2026-05-01T07:12:39.255Z</time></trkpt><trkpt lat="39.6693196" lon="8.6520755"><ele>12.333333333333332</ele><time>2026-05-01T07:12:40.256Z</time></trkpt><trkpt lat="39.6691363" lon="8.6520949"><ele>12.666666666666666</ele><time>2026-05-01T07:12:41.256Z</time></trkpt><trkpt lat="39.6689602" lon="8.6521099"><ele>13.0</ele><time>2026-05-01T07:12:42.257Z</time></trkpt><trkpt lat="39.6687963" lon="8.6521233"><ele>13.0</ele><time>2026-05-01T07:12:43.256Z</time></trkpt><trkpt lat="39.6686377" lon="8.6521365"><ele>13.0</ele><time>2026-05-01T07:12:44.257Z</time></trkpt><trkpt lat="39.6684807" lon="8.6521484"><ele>13.0</ele><time>2026-05-01T07:12:45.256Z</time></trkpt><trkpt lat="39.6683407" lon="8.6521605"><ele>13.2</ele><time>2026-05-01T07:12:46.257Z</time></trkpt><trkpt lat="39.668212" lon="8.6521698"><ele>13.4</ele><time>2026-05-01T07:12:47.257Z</time></trkpt><trkpt lat="39.668096" lon="8.6521788"><ele>13.599999999999998</ele><time>2026-05-01T07:12:48.257Z</time></trkpt><trkpt lat="39.6679932" lon="8.6521827"><ele>13.799999999999999</ele><time>2026-05-01T07:12:49.257Z</time></trkpt><trkpt lat="39.6679014" lon="8.6521718"><ele>14.0</ele><time>2026-05-01T07:12:50.257Z</time></trkpt><trkpt lat="39.6678223" lon="8.6521399"><ele>14.166666666666668</ele><time>2026-05-01T07:12:51.257Z</time></trkpt><trkpt lat="39.6677567" lon="8.6520872"><ele>14.333333333333334</ele><time>2026-05-01T07:12:52.256Z</time></trkpt><trkpt lat="39.6677078" lon="8.6520153"><ele>14.5</ele><time>2026-05-01T07:12:53.256Z</time></trkpt><trkpt lat="39.6676848" lon="8.6519252"><ele>14.666666666666668</ele><time>2026-05-01T07:12:54.256Z</time></trkpt><trkpt lat="39.667685" lon="8.6518188"><ele>14.833333333333334</ele><time>2026-05-01T07:12:55.256Z</time></trkpt><trkpt lat="39.6677055" lon="8.6516964"><ele>15.0</ele><time>2026-05-01T07:12:56.257Z</time></trkpt><trkpt lat="39.6677492" lon="8.6515678"><ele>14.75</ele><time>2026-05-01T07:12:57.257Z</time></trkpt><trkpt lat="39.6678121" lon="8.6514444"><ele>14.5</ele><time>2026-05-01T07:12:58.256Z</time></trkpt><trkpt lat="39.6678909" lon="8.6513173"><ele>14.25</ele><time>2026-05-01T07:12:59.256Z</time></trkpt><trkpt lat="39.6679772" lon="8.6511832"><ele>14.0</ele><time>2026-05-01T07:13:00.257Z</time></trkpt><trkpt lat="39.6680551" lon="8.6510451"><ele>14.0</ele><time>2026-05-01T07:13:01.255Z</time></trkpt><trkpt lat="39.6681148" lon="8.650901"><ele>14.0</ele><time>2026-05-01T07:13:02.255Z</time></trkpt><trkpt lat="39.6681549" lon="8.6507514"><ele>14.0</ele><time>2026-05-01T07:13:03.255Z</time></trkpt><trkpt lat="39.6681755" lon="8.6505984"><ele>14.0</ele><time>2026-05-01T07:13:04.256Z</time></trkpt><trkpt lat="39.6681785" lon="8.6504328"><ele>14.25</ele><time>2026-05-01T07:13:05.256Z</time></trkpt><trkpt lat="39.668168" lon="8.65026"><ele>14.5</ele><time>2026-05-01T07:13:06.257Z</time></trkpt><trkpt lat="39.6681475" lon="8.650073"><ele>14.75</ele><time>2026-05-01T07:13:07.257Z</time></trkpt><trkpt lat="39.6681209" lon="8.6498737"><ele>15.0</ele><time>2026-05-01T07:13:08.256Z</time></trkpt><trkpt lat="39.6680926" lon="8.649663"><ele>14.666666666666668</ele><time>2026-05-01T07:13:09.256Z</time></trkpt><trkpt lat="39.6680646" lon="8.6494433"><ele>14.333333333333334</ele><time>2026-05-01T07:13:10.256Z</time></trkpt><trkpt lat="39.6680365" lon="8.6492204"><ele>14.0</ele><time>2026-05-01T07:13:11.256Z</time></trkpt><trkpt lat="39.6680091" lon="8.648993"><ele>14.0</ele><time>2026-05-01T07:13:12.256Z</time></trkpt><trkpt lat="39.6679802" lon="8.6487617"><ele>14.0</ele><time>2026-05-01T07:13:13.256Z</time></trkpt><trkpt lat="39.6679498" lon="8.6485262"><ele>14.0</ele><time>2026-05-01T07:13:14.255Z</time></trkpt><trkpt lat="39.667919" lon="8.6482835"><ele>14.333333333333334</ele><time>2026-05-01T07:13:15.256Z</time></trkpt><trkpt lat="39.6678868" lon="8.6480381"><ele>14.666666666666668</ele><time>2026-05-01T07:13:16.256Z</time></trkpt><trkpt lat="39.6678565" lon="8.647794"><ele>15.0</ele><time>2026-05-01T07:13:17.256Z</time></trkpt><trkpt lat="39.6678264" lon="8.6475495"><ele>15.0</ele><time>2026-05-01T07:13:18.255Z</time></trkpt><trkpt lat="39.6677957" lon="8.6473071"><ele>15.0</ele><time>2026-05-01T07:13:19.256Z</time></trkpt><trkpt lat="39.6677647" lon="8.6470644"><ele>15.0</ele><time>2026-05-01T07:13:20.256Z</time></trkpt><trkpt lat="39.6677325" lon="8.6468216"><ele>14.666666666666668</ele><time>2026-05-01T07:13:21.255Z</time></trkpt><trkpt lat="39.6677009" lon="8.646575"><ele>14.333333333333334</ele><time>2026-05-01T07:13:22.257Z</time></trkpt><trkpt lat="39.6676676" lon="8.6463209"><ele>14.0</ele><time>2026-05-01T07:13:23.256Z</time></trkpt><trkpt lat="39.6676346" lon="8.6460644"><ele>14.0</ele><time>2026-05-01T07:13:24.256Z</time></trkpt><trkpt lat="39.6676012" lon="8.6458008"><ele>14.0</ele><time>2026-05-01T07:13:25.256Z</time></trkpt><trkpt lat="39.6675666" lon="8.6455316"><ele>14.0</ele><time>2026-05-01T07:13:26.257Z</time></trkpt><trkpt lat="39.6675302" lon="8.6452559"><ele>14.0</ele><time>2026-05-01T07:13:27.256Z</time></trkpt><trkpt lat="39.6674952" lon="8.6449847"><ele>14.0</ele><time>2026-05-01T07:13:28.256Z</time></trkpt><trkpt lat="39.6674622" lon="8.6447227"><ele>14.0</ele><time>2026-05-01T07:13:29.256Z</time></trkpt><trkpt lat="39.6674292" lon="8.6444695"><ele>14.333333333333334</ele><time>2026-05-01T07:13:30.255Z</time></trkpt><trkpt lat="39.6673978" lon="8.6442282"><ele>14.666666666666668</ele><time>2026-05-01T07:13:31.256Z</time></trkpt><trkpt lat="39.667367" lon="8.64399"><ele>15.0</ele><time>2026-05-01T07:13:32.255Z</time></trkpt><trkpt lat="39.6673375" lon="8.6437505"><ele>15.0</ele><time>2026-05-01T07:13:33.256Z</time></trkpt><trkpt lat="39.6673086" lon="8.6435113"><ele>15.0</ele><time>2026-05-01T07:13:34.256Z</time></trkpt><trkpt lat="39.6672788" lon="8.6432701"><ele>15.0</ele><time>2026-05-01T07:13:35.257Z</time></trkpt><trkpt lat="39.6672484" lon="8.6430314"><ele>14.666666666666668</ele><time>2026-05-01T07:13:36.256Z</time></trkpt><trkpt lat="39.6672179" lon="8.6427937"><ele>14.333333333333334</ele><time>2026-05-01T07:13:37.256Z</time></trkpt><trkpt lat="39.6671882" lon="8.6425538"><ele>14.0</ele><time>2026-05-01T07:13:38.256Z</time></trkpt><trkpt lat="39.6671554" lon="8.642315"><ele>14.0</ele><time>2026-05-01T07:13:39.256Z</time></trkpt><trkpt lat="39.6671245" lon="8.6420771"><ele>14.0</ele><time>2026-05-01T07:13:40.255Z</time></trkpt><trkpt lat="39.6670944" lon="8.6418386"><ele>14.0</ele><time>2026-05-01T07:13:41.256Z</time></trkpt><trkpt lat="39.6670653" lon="8.6416078"><ele>14.0</ele><time>2026-05-01T07:13:42.257Z</time></trkpt><trkpt lat="39.6670386" lon="8.6413788"><ele>14.0</ele><time>2026-05-01T07:13:43.257Z</time></trkpt><trkpt lat="39.6670153" lon="8.6411475"><ele>14.0</ele><time>2026-05-01T07:13:44.257Z</time></trkpt><trkpt lat="39.6669988" lon="8.640914"><ele>14.0</ele><time>2026-05-01T07:13:45.256Z</time></trkpt><trkpt lat="39.6669907" lon="8.6406817"><ele>14.0</ele><time>2026-05-01T07:13:46.256Z</time></trkpt><trkpt lat="39.6669906" lon="8.6404433"><ele>14.0</ele><time>2026-05-01T07:13:47.256Z</time></trkpt><trkpt lat="39.6670045" lon="8.6402009"><ele>14.0</ele><time>2026-05-01T07:13:48.255Z</time></trkpt><trkpt lat="39.6670276" lon="8.6399561"><ele>14.0</ele><time>2026-05-01T07:13:49.256Z</time></trkpt><trkpt lat="39.6670611" lon="8.6397107"><ele>14.0</ele><time>2026-05-01T07:13:50.256Z</time></trkpt><trkpt lat="39.6671036" lon="8.6394611"><ele>13.666666666666668</ele><time>2026-05-01T07:13:51.255Z</time></trkpt><trkpt lat="39.6671565" lon="8.6392139"><ele>13.333333333333332</ele><time>2026-05-01T07:13:52.255Z</time></trkpt><trkpt lat="39.6672242" lon="8.6389758"><ele>13.0</ele><time>2026-05-01T07:13:53.256Z</time></trkpt><trkpt lat="39.6672977" lon="8.6387558"><ele>13.333333333333332</ele><time>2026-05-01T07:13:54.256Z</time></trkpt><trkpt lat="39.6673775" lon="8.6385405"><ele>13.666666666666668</ele><time>2026-05-01T07:13:55.256Z</time></trkpt><trkpt lat="39.6674653" lon="8.6383286"><ele>14.0</ele><time>2026-05-01T07:13:56.255Z</time></trkpt><trkpt lat="39.667565" lon="8.6381165"><ele>14.0</ele><time>2026-05-01T07:13:57.256Z</time></trkpt><trkpt lat="39.6676759" lon="8.6378971"><ele>14.0</ele><time>2026-05-01T07:13:58.256Z</time></trkpt><trkpt lat="39.6677909" lon="8.6376803"><ele>14.0</ele><time>2026-05-01T07:13:59.256Z</time></trkpt><trkpt lat="39.6679048" lon="8.6374666"><ele>14.0</ele><time>2026-05-01T07:14:00.255Z</time></trkpt><trkpt lat="39.6680207" lon="8.6372536"><ele>14.0</ele><time>2026-05-01T07:14:01.256Z</time></trkpt><trkpt lat="39.6681387" lon="8.6370391"><ele>14.0</ele><time>2026-05-01T07:14:02.256Z</time></trkpt><trkpt lat="39.6682553" lon="8.6368236"><ele>14.0</ele><time>2026-05-01T07:14:03.255Z</time></trkpt><trkpt lat="39.6683735" lon="8.6366068"><ele>14.0</ele><time>2026-05-01T07:14:04.255Z</time></trkpt><trkpt lat="39.6684912" lon="8.6363891"><ele>14.0</ele><time>2026-05-01T07:14:05.255Z</time></trkpt><trkpt lat="39.6686101" lon="8.6361725"><ele>13.333333333333334</ele><time>2026-05-01T07:14:06.255Z</time></trkpt><trkpt lat="39.668726" lon="8.6359638"><ele>12.666666666666668</ele><time>2026-05-01T07:14:07.256Z</time></trkpt><trkpt lat="39.6688392" lon="8.6357663"><ele>12.0</ele><time>2026-05-01T07:14:08.255Z</time></trkpt><trkpt lat="39.6689528" lon="8.6355778"><ele>12.0</ele><time>2026-05-01T07:14:09.256Z</time></trkpt><trkpt lat="39.6690716" lon="8.6353895"><ele>12.0</ele><time>2026-05-01T07:14:10.256Z</time></trkpt><trkpt lat="39.6691938" lon="8.6352075"><ele>12.0</ele><time>2026-05-01T07:14:11.255Z</time></trkpt><trkpt lat="39.6693206" lon="8.635028"><ele>12.0</ele><time>2026-05-01T07:14:12.255Z</time></trkpt><trkpt lat="39.6694521" lon="8.6348494"><ele>12.0</ele><time>2026-05-01T07:14:13.257Z</time></trkpt><trkpt lat="39.6695896" lon="8.6346753"><ele>12.0</ele><time>2026-05-01T07:14:14.256Z</time></trkpt><trkpt lat="39.6697338" lon="8.6345052"><ele>12.333333333333332</ele><time>2026-05-01T07:14:15.255Z</time></trkpt><trkpt lat="39.669882" lon="8.6343355"><ele>12.666666666666666</ele><time>2026-05-01T07:14:16.257Z</time></trkpt><trkpt lat="39.6700357" lon="8.6341626"><ele>13.0</ele><time>2026-05-01T07:14:17.255Z</time></trkpt><trkpt lat="39.6701893" lon="8.6339933"><ele>12.666666666666666</ele><time>2026-05-01T07:14:18.255Z</time></trkpt><trkpt lat="39.6703372" lon="8.6338287"><ele>12.333333333333332</ele><time>2026-05-01T07:14:19.256Z</time></trkpt><trkpt lat="39.6704865" lon="8.6336625"><ele>12.0</ele><time>2026-05-01T07:14:20.256Z</time></trkpt><trkpt lat="39.6706346" lon="8.6334985"><ele>12.666666666666668</ele><time>2026-05-01T07:14:21.256Z</time></trkpt><trkpt lat="39.6707832" lon="8.6333367"><ele>13.333333333333334</ele><time>2026-05-01T07:14:22.255Z</time></trkpt><trkpt lat="39.6709316" lon="8.6331731"><ele>14.0</ele><time>2026-05-01T07:14:23.255Z</time></trkpt><trkpt lat="39.6710727" lon="8.6330167"><ele>13.666666666666668</ele><time>2026-05-01T07:14:24.256Z</time></trkpt><trkpt lat="39.6712116" lon="8.6328624"><ele>13.333333333333332</ele><time>2026-05-01T07:14:25.256Z</time></trkpt><trkpt lat="39.6713501" lon="8.6327098"><ele>13.0</ele><time>2026-05-01T07:14:26.256Z</time></trkpt><trkpt lat="39.6714891" lon="8.6325551"><ele>13.0</ele><time>2026-05-01T07:14:27.256Z</time></trkpt><trkpt lat="39.6716292" lon="8.632399"><ele>13.0</ele><time>2026-05-01T07:14:28.257Z</time></trkpt><trkpt lat="39.6717723" lon="8.6322429"><ele>13.0</ele><time>2026-05-01T07:14:29.256Z</time></trkpt><trkpt lat="39.671915" lon="8.6320859"><ele>12.666666666666666</ele><time>2026-05-01T07:14:30.256Z</time></trkpt><trkpt lat="39.6720576" lon="8.6319264"><ele>12.333333333333332</ele><time>2026-05-01T07:14:31.257Z</time></trkpt><trkpt lat="39.6721986" lon="8.6317664"><ele>12.0</ele><time>2026-05-01T07:14:32.256Z</time></trkpt><trkpt lat="39.6723403" lon="8.6316102"><ele>12.0</ele><time>2026-05-01T07:14:33.257Z</time></trkpt><trkpt lat="39.6724821" lon="8.6314565"><ele>12.0</ele><time>2026-05-01T07:14:34.257Z</time></trkpt><trkpt lat="39.6726234" lon="8.6313014"><ele>12.0</ele><time>2026-05-01T07:14:35.256Z</time></trkpt><trkpt lat="39.6727631" lon="8.6311426"><ele>11.666666666666666</ele><time>2026-05-01T07:14:36.256Z</time></trkpt><trkpt lat="39.6728986" lon="8.6309784"><ele>11.333333333333332</ele><time>2026-05-01T07:14:37.256Z</time></trkpt><trkpt lat="39.6730265" lon="8.6308034"><ele>11.0</ele><time>2026-05-01T07:14:38.257Z</time></trkpt><trkpt lat="39.6731452" lon="8.6306205"><ele>11.0</ele><time>2026-05-01T07:14:39.257Z</time></trkpt><trkpt lat="39.67325" lon="8.6304372"><ele>11.0</ele><time>2026-05-01T07:14:40.256Z</time></trkpt><trkpt lat="39.6733445" lon="8.6302503"><ele>11.0</ele><time>2026-05-01T07:14:41.257Z</time></trkpt><trkpt lat="39.6734323" lon="8.6300511"><ele>11.0</ele><time>2026-05-01T07:14:42.256Z</time></trkpt><trkpt lat="39.6735113" lon="8.6298391"><ele>11.0</ele><time>2026-05-01T07:14:43.256Z</time></trkpt><trkpt lat="39.6735789" lon="8.6296135"><ele>11.0</ele><time>2026-05-01T07:14:44.257Z</time></trkpt><trkpt lat="39.6736351" lon="8.629376"><ele>11.0</ele><time>2026-05-01T07:14:45.256Z</time></trkpt><trkpt lat="39.6736783" lon="8.6291281"><ele>11.0</ele><time>2026-05-01T07:14:46.255Z</time></trkpt><trkpt lat="39.6737092" lon="8.6288682"><ele>11.0</ele><time>2026-05-01T07:14:47.257Z</time></trkpt><trkpt lat="39.6737279" lon="8.6285999"><ele>11.0</ele><time>2026-05-01T07:14:48.256Z</time></trkpt><trkpt lat="39.6737396" lon="8.6283244"><ele>11.0</ele><time>2026-05-01T07:14:49.255Z</time></trkpt><trkpt lat="39.6737511" lon="8.6280457"><ele>11.0</ele><time>2026-05-01T07:14:50.256Z</time></trkpt><trkpt lat="39.6737629" lon="8.6277805"><ele>11.0</ele><time>2026-05-01T07:14:51.256Z</time></trkpt><trkpt lat="39.6737731" lon="8.627527"><ele>11.0</ele><time>2026-05-01T07:14:52.256Z</time></trkpt><trkpt lat="39.6737832" lon="8.627284"><ele>11.0</ele><time>2026-05-01T07:14:53.257Z</time></trkpt><trkpt lat="39.6737922" lon="8.6270448"><ele>11.0</ele><time>2026-05-01T07:14:54.256Z</time></trkpt><trkpt lat="39.6738011" lon="8.6268127"><ele>11.0</ele><time>2026-05-01T07:14:55.255Z</time></trkpt><trkpt lat="39.6738109" lon="8.6265816"><ele>11.0</ele><time>2026-05-01T07:14:56.256Z</time></trkpt><trkpt lat="39.6738212" lon="8.626346"><ele>12.0</ele><time>2026-05-01T07:14:57.256Z</time></trkpt><trkpt lat="39.6738299" lon="8.6261061"><ele>13.0</ele><time>2026-05-01T07:14:58.256Z</time></trkpt><trkpt lat="39.6738393" lon="8.6258611"><ele>14.0</ele><time>2026-05-01T07:14:59.256Z</time></trkpt><trkpt lat="39.6738564" lon="8.6256132"><ele>14.0</ele><time>2026-05-01T07:15:00.256Z</time></trkpt><trkpt lat="39.673885" lon="8.6253692"><ele>14.0</ele><time>2026-05-01T07:15:01.257Z</time></trkpt><trkpt lat="39.6739304" lon="8.6251387"><ele>14.0</ele><time>2026-05-01T07:15:02.256Z</time></trkpt><trkpt lat="39.6739892" lon="8.6249172"><ele>14.0</ele><time>2026-05-01T07:15:03.257Z</time></trkpt><trkpt lat="39.6740627" lon="8.6246986"><ele>14.0</ele><time>2026-05-01T07:15:04.257Z</time></trkpt><trkpt lat="39.6741487" lon="8.6244926"><ele>14.0</ele><time>2026-05-01T07:15:05.257Z</time></trkpt><trkpt lat="39.6742476" lon="8.6243051"><ele>14.0</ele><time>2026-05-01T07:15:06.256Z</time></trkpt><trkpt lat="39.6743597" lon="8.6241266"><ele>14.0</ele><time>2026-05-01T07:15:07.257Z</time></trkpt><trkpt lat="39.6744838" lon="8.6239558"><ele>14.0</ele><time>2026-05-01T07:15:08.257Z</time></trkpt><trkpt lat="39.6746175" lon="8.6237862"><ele>13.0</ele><time>2026-05-01T07:15:09.256Z</time></trkpt><trkpt lat="39.6747579" lon="8.6236099"><ele>12.0</ele><time>2026-05-01T07:15:10.257Z</time></trkpt><trkpt lat="39.674897" lon="8.6234378"><ele>11.0</ele><time>2026-05-01T07:15:11.256Z</time></trkpt><trkpt lat="39.6750313" lon="8.6232751"><ele>11.0</ele><time>2026-05-01T07:15:12.256Z</time></trkpt><trkpt lat="39.6751635" lon="8.6231107"><ele>11.0</ele><time>2026-05-01T07:15:13.256Z</time></trkpt><trkpt lat="39.6752867" lon="8.622939"><ele>11.0</ele><time>2026-05-01T07:15:14.256Z</time></trkpt><trkpt lat="39.6753971" lon="8.6227606"><ele>10.666666666666666</ele><time>2026-05-01T07:15:15.255Z</time></trkpt><trkpt lat="39.6754944" lon="8.6225692"><ele>10.333333333333334</ele><time>2026-05-01T07:15:16.256Z</time></trkpt><trkpt lat="39.6755818" lon="8.6223636"><ele>10.0</ele><time>2026-05-01T07:15:17.255Z</time></trkpt><trkpt lat="39.6756548" lon="8.6221445"><ele>9.333333333333334</ele><time>2026-05-01T07:15:18.256Z</time></trkpt><trkpt lat="39.6757057" lon="8.6219119"><ele>8.666666666666666</ele><time>2026-05-01T07:15:19.256Z</time></trkpt><trkpt lat="39.6757365" lon="8.6216718"><ele>8.0</ele><time>2026-05-01T07:15:20.256Z</time></trkpt><trkpt lat="39.6757528" lon="8.6214255"><ele>8.0</ele><time>2026-05-01T07:15:21.256Z</time></trkpt><trkpt lat="39.6757579" lon="8.6211815"><ele>8.0</ele><time>2026-05-01T07:15:22.256Z</time></trkpt><trkpt lat="39.6757602" lon="8.6209491"><ele>8.0</ele><time>2026-05-01T07:15:23.256Z</time></trkpt><trkpt lat="39.6757611" lon="8.6207222"><ele>8.333333333333332</ele><time>2026-05-01T07:15:24.255Z</time></trkpt><trkpt lat="39.6757622" lon="8.6204959"><ele>8.666666666666666</ele><time>2026-05-01T07:15:25.255Z</time></trkpt><trkpt lat="39.6757608" lon="8.6202677"><ele>9.0</ele><time>2026-05-01T07:15:26.255Z</time></trkpt><trkpt lat="39.6757602" lon="8.6200361"><ele>9.333333333333334</ele><time>2026-05-01T07:15:27.256Z</time></trkpt><trkpt lat="39.6757606" lon="8.6197941"><ele>9.666666666666668</ele><time>2026-05-01T07:15:28.256Z</time></trkpt><trkpt lat="39.6757595" lon="8.6195439"><ele>10.0</ele><time>2026-05-01T07:15:29.257Z</time></trkpt><trkpt lat="39.6757562" lon="8.61929"><ele>10.0</ele><time>2026-05-01T07:15:30.255Z</time></trkpt><trkpt lat="39.6757531" lon="8.6190389"><ele>10.0</ele><time>2026-05-01T07:15:31.256Z</time></trkpt><trkpt lat="39.6757518" lon="8.6187992"><ele>10.0</ele><time>2026-05-01T07:15:32.256Z</time></trkpt><trkpt lat="39.6757506" lon="8.6185649"><ele>10.0</ele><time>2026-05-01T07:15:33.256Z</time></trkpt><trkpt lat="39.6757498" lon="8.6183291"><ele>10.0</ele><time>2026-05-01T07:15:34.256Z</time></trkpt><trkpt lat="39.6757486" lon="8.6181059"><ele>10.0</ele><time>2026-05-01T07:15:35.256Z</time></trkpt><trkpt lat="39.6757469" lon="8.6179018"><ele>10.0</ele><time>2026-05-01T07:15:36.255Z</time></trkpt><trkpt lat="39.6757428" lon="8.6177056"><ele>10.0</ele><time>2026-05-01T07:15:37.256Z</time></trkpt><trkpt lat="39.6757344" lon="8.617513"><ele>10.0</ele><time>2026-05-01T07:15:38.256Z</time></trkpt><trkpt lat="39.6757117" lon="8.6173245"><ele>10.0</ele><time>2026-05-01T07:15:39.255Z</time></trkpt><trkpt lat="39.6756691" lon="8.6171447"><ele>10.0</ele><time>2026-05-01T07:15:40.255Z</time></trkpt><trkpt lat="39.6756215" lon="8.61699"><ele>10.0</ele><time>2026-05-01T07:15:41.255Z</time></trkpt><trkpt lat="39.6755735" lon="8.6168557"><ele>10.0</ele><time>2026-05-01T07:15:42.256Z</time></trkpt><trkpt lat="39.6755239" lon="8.6167389"><ele>10.0</ele><time>2026-05-01T07:15:43.256Z</time></trkpt><trkpt lat="39.6754786" lon="8.6166321"><ele>10.0</ele><time>2026-05-01T07:15:44.257Z</time></trkpt><trkpt lat="39.6754425" lon="8.6165292"><ele>9.8</ele><time>2026-05-01T07:15:45.257Z</time></trkpt><trkpt lat="39.6754029" lon="8.6164317"><ele>9.6</ele><time>2026-05-01T07:15:46.255Z</time></trkpt><trkpt lat="39.6753578" lon="8.6163361"><ele>9.4</ele><time>2026-05-01T07:15:47.256Z</time></trkpt><trkpt lat="39.6753079" lon="8.6162339"><ele>9.2</ele><time>2026-05-01T07:15:48.256Z</time></trkpt><trkpt lat="39.6752607" lon="8.6161233"><ele>9.0</ele><time>2026-05-01T07:15:49.257Z</time></trkpt><trkpt lat="39.6752118" lon="8.6160069"><ele>9.0</ele><time>2026-05-01T07:15:50.256Z</time></trkpt><trkpt lat="39.6751587" lon="8.6158849"><ele>9.0</ele><time>2026-05-01T07:15:51.257Z</time></trkpt><trkpt lat="39.6751005" lon="8.6157512"><ele>9.0</ele><time>2026-05-01T07:15:52.256Z</time></trkpt><trkpt lat="39.675038" lon="8.615608"><ele>9.0</ele><time>2026-05-01T07:15:53.257Z</time></trkpt><trkpt lat="39.6749743" lon="8.6154573"><ele>9.0</ele><time>2026-05-01T07:15:54.256Z</time></trkpt><trkpt lat="39.6749113" lon="8.6153125"><ele>9.0</ele><time>2026-05-01T07:15:55.257Z</time></trkpt><trkpt lat="39.6748455" lon="8.6151622"><ele>9.0</ele><time>2026-05-01T07:15:56.257Z</time></trkpt><trkpt lat="39.6747774" lon="8.615007"><ele>9.0</ele><time>2026-05-01T07:15:57.257Z</time></trkpt><trkpt lat="39.674709" lon="8.6148402"><ele>9.0</ele><time>2026-05-01T07:15:58.257Z</time></trkpt><trkpt lat="39.6746421" lon="8.6146698"><ele>9.0</ele><time>2026-05-01T07:15:59.256Z</time></trkpt><trkpt lat="39.6745859" lon="8.614499"><ele>9.0</ele><time>2026-05-01T07:16:00.257Z</time></trkpt><trkpt lat="39.67454" lon="8.6143299"><ele>9.0</ele><time>2026-05-01T07:16:01.257Z</time></trkpt><trkpt lat="39.6744987" lon="8.6141562"><ele>8.75</ele><time>2026-05-01T07:16:02.256Z</time></trkpt><trkpt lat="39.6744608" lon="8.6139842"><ele>8.5</ele><time>2026-05-01T07:16:03.255Z</time></trkpt><trkpt lat="39.6744289" lon="8.6138251"><ele>8.25</ele><time>2026-05-01T07:16:04.255Z</time></trkpt><trkpt lat="39.6743995" lon="8.6136821"><ele>8.0</ele><time>2026-05-01T07:16:05.255Z</time></trkpt><trkpt lat="39.674373" lon="8.6135508"><ele>8.4</ele><time>2026-05-01T07:16:06.257Z</time></trkpt><trkpt lat="39.6743492" lon="8.6134266"><ele>8.8</ele><time>2026-05-01T07:16:07.255Z</time></trkpt><trkpt lat="39.6743236" lon="8.613303"><ele>9.2</ele><time>2026-05-01T07:16:08.256Z</time></trkpt><trkpt lat="39.674294" lon="8.6131787"><ele>9.6</ele><time>2026-05-01T07:16:09.256Z</time></trkpt><trkpt lat="39.6742541" lon="8.6130512"><ele>10.0</ele><time>2026-05-01T07:16:10.257Z</time></trkpt><trkpt lat="39.6741951" lon="8.6129262"><ele>10.0</ele><time>2026-05-01T07:16:11.255Z</time></trkpt><trkpt lat="39.6741164" lon="8.6128049"><ele>10.0</ele><time>2026-05-01T07:16:12.257Z</time></trkpt><trkpt lat="39.6740158" lon="8.6126893"><ele>10.0</ele><time>2026-05-01T07:16:13.257Z</time></trkpt><trkpt lat="39.6739023" lon="8.6125715"><ele>10.0</ele><time>2026-05-01T07:16:14.256Z</time></trkpt><trkpt lat="39.6737752" lon="8.6124516"><ele>10.0</ele><time>2026-05-01T07:16:15.256Z</time></trkpt><trkpt lat="39.6736431" lon="8.6123301"><ele>10.0</ele><time>2026-05-01T07:16:16.257Z</time></trkpt><trkpt lat="39.6735155" lon="8.6122072"><ele>10.0</ele><time>2026-05-01T07:16:17.256Z</time></trkpt><trkpt lat="39.6734021" lon="8.6120971"><ele>10.0</ele><time>2026-05-01T07:16:18.256Z</time></trkpt><trkpt lat="39.673299" lon="8.6119988"><ele>10.0</ele><time>2026-05-01T07:16:19.255Z</time></trkpt><trkpt lat="39.6731961" lon="8.6119035"><ele>10.0</ele><time>2026-05-01T07:16:20.256Z</time></trkpt><trkpt lat="39.6730939" lon="8.6118094"><ele>10.0</ele><time>2026-05-01T07:16:21.256Z</time></trkpt><trkpt lat="39.6729942" lon="8.6117193"><ele>10.0</ele><time>2026-05-01T07:16:22.255Z</time></trkpt><trkpt lat="39.6729012" lon="8.6116327"><ele>10.0</ele><time>2026-05-01T07:16:23.255Z</time></trkpt><trkpt lat="39.672811" lon="8.6115461"><ele>10.0</ele><time>2026-05-01T07:16:24.255Z</time></trkpt><trkpt lat="39.672714" lon="8.6114561"><ele>10.0</ele><time>2026-05-01T07:16:25.255Z</time></trkpt><trkpt lat="39.6726179" lon="8.6113668"><ele>10.25</ele><time>2026-05-01T07:16:26.255Z</time></trkpt><trkpt lat="39.6725262" lon="8.6112812"><ele>10.5</ele><time>2026-05-01T07:16:27.256Z</time></trkpt><trkpt lat="39.6724322" lon="8.6111928"><ele>10.75</ele><time>2026-05-01T07:16:28.257Z</time></trkpt><trkpt lat="39.6723348" lon="8.6111"><ele>11.0</ele><time>2026-05-01T07:16:29.257Z</time></trkpt><trkpt lat="39.6722326" lon="8.6110036"><ele>11.0</ele><time>2026-05-01T07:16:30.257Z</time></trkpt><trkpt lat="39.6721362" lon="8.6109118"><ele>11.0</ele><time>2026-05-01T07:16:31.256Z</time></trkpt><trkpt lat="39.672036" lon="8.6108148"><ele>11.0</ele><time>2026-05-01T07:16:32.256Z</time></trkpt><trkpt lat="39.6719342" lon="8.6107103"><ele>11.0</ele><time>2026-05-01T07:16:33.257Z</time></trkpt><trkpt lat="39.6718305" lon="8.6105988"><ele>12.0</ele><time>2026-05-01T07:16:34.255Z</time></trkpt><trkpt lat="39.6717219" lon="8.6104801"><ele>13.0</ele><time>2026-05-01T07:16:35.257Z</time></trkpt><trkpt lat="39.6716046" lon="8.6103541"><ele>14.0</ele><time>2026-05-01T07:16:36.256Z</time></trkpt><trkpt lat="39.6714832" lon="8.6102227"><ele>14.0</ele><time>2026-05-01T07:16:37.256Z</time></trkpt><trkpt lat="39.6713687" lon="8.6100862"><ele>14.0</ele><time>2026-05-01T07:16:38.255Z</time></trkpt><trkpt lat="39.6712534" lon="8.6099451"><ele>14.0</ele><time>2026-05-01T07:16:39.256Z</time></trkpt><trkpt lat="39.6711338" lon="8.6098013"><ele>15.0</ele><time>2026-05-01T07:16:40.256Z</time></trkpt><trkpt lat="39.6710129" lon="8.6096583"><ele>16.0</ele><time>2026-05-01T07:16:41.256Z</time></trkpt><trkpt lat="39.6709016" lon="8.6095273"><ele>17.0</ele><time>2026-05-01T07:16:42.256Z</time></trkpt><trkpt lat="39.6707912" lon="8.6093965"><ele>17.25</ele><time>2026-05-01T07:16:43.256Z</time></trkpt><trkpt lat="39.6706812" lon="8.6092621"><ele>17.5</ele><time>2026-05-01T07:16:44.257Z</time></trkpt><trkpt lat="39.6705824" lon="8.6091338"><ele>17.75</ele><time>2026-05-01T07:16:45.256Z</time></trkpt><trkpt lat="39.6704946" lon="8.6090089"><ele>18.0</ele><time>2026-05-01T07:16:46.256Z</time></trkpt><trkpt lat="39.6704312" lon="8.6088784"><ele>18.0</ele><time>2026-05-01T07:16:47.256Z</time></trkpt><trkpt lat="39.6703902" lon="8.608731"><ele>18.0</ele><time>2026-05-01T07:16:48.256Z</time></trkpt><trkpt lat="39.6703709" lon="8.6085725"><ele>18.0</ele><time>2026-05-01T07:16:49.257Z</time></trkpt><trkpt lat="39.6703748" lon="8.6084075"><ele>18.0</ele><time>2026-05-01T07:16:50.257Z</time></trkpt><trkpt lat="39.6703868" lon="8.6082338"><ele>18.0</ele><time>2026-05-01T07:16:51.257Z</time></trkpt><trkpt lat="39.6704024" lon="8.608054"><ele>18.0</ele><time>2026-05-01T07:16:52.255Z</time></trkpt><trkpt lat="39.6704186" lon="8.6078794"><ele>18.0</ele><time>2026-05-01T07:16:53.256Z</time></trkpt><trkpt lat="39.6704365" lon="8.6077069"><ele>18.0</ele><time>2026-05-01T07:16:54.257Z</time></trkpt><trkpt lat="39.6704518" lon="8.6075489"><ele>18.0</ele><time>2026-05-01T07:16:55.257Z</time></trkpt><trkpt lat="39.6704646" lon="8.6074014"><ele>18.0</ele><time>2026-05-01T07:16:56.257Z</time></trkpt><trkpt lat="39.6704759" lon="8.6072623"><ele>18.0</ele><time>2026-05-01T07:16:57.256Z</time></trkpt><trkpt lat="39.6704872" lon="8.6071323"><ele>18.0</ele><time>2026-05-01T07:16:58.256Z</time></trkpt><trkpt lat="39.6704974" lon="8.6070083"><ele>18.0</ele><time>2026-05-01T07:16:59.256Z</time></trkpt><trkpt lat="39.6705074" lon="8.6068949"><ele>17.8</ele><time>2026-05-01T07:17:00.256Z</time></trkpt><trkpt lat="39.6705177" lon="8.6067797"><ele>17.6</ele><time>2026-05-01T07:17:01.257Z</time></trkpt><trkpt lat="39.6705296" lon="8.6066568"><ele>17.4</ele><time>2026-05-01T07:17:02.255Z</time></trkpt><trkpt lat="39.670541" lon="8.6065269"><ele>17.2</ele><time>2026-05-01T07:17:03.257Z</time></trkpt><trkpt lat="39.6705528" lon="8.6063867"><ele>17.0</ele><time>2026-05-01T07:17:04.257Z</time></trkpt><trkpt lat="39.6705663" lon="8.606238"><ele>17.25</ele><time>2026-05-01T07:17:05.256Z</time></trkpt><trkpt lat="39.6705804" lon="8.6060725"><ele>17.5</ele><time>2026-05-01T07:17:06.255Z</time></trkpt><trkpt lat="39.6705938" lon="8.6058889"><ele>17.75</ele><time>2026-05-01T07:17:07.256Z</time></trkpt><trkpt lat="39.6706104" lon="8.605692"><ele>18.0</ele><time>2026-05-01T07:17:08.255Z</time></trkpt><trkpt lat="39.6706293" lon="8.605479"><ele>18.0</ele><time>2026-05-01T07:17:09.256Z</time></trkpt><trkpt lat="39.6706498" lon="8.6052509"><ele>18.0</ele><time>2026-05-01T07:17:10.256Z</time></trkpt><trkpt lat="39.6706689" lon="8.6050427"><ele>18.0</ele><time>2026-05-01T07:17:11.257Z</time></trkpt><trkpt lat="39.6706889" lon="8.6048224"><ele>18.0</ele><time>2026-05-01T07:17:12.257Z</time></trkpt><trkpt lat="39.6707088" lon="8.6045975"><ele>18.0</ele><time>2026-05-01T07:17:13.256Z</time></trkpt><trkpt lat="39.6707273" lon="8.604369"><ele>18.0</ele><time>2026-05-01T07:17:14.256Z</time></trkpt><trkpt lat="39.6707456" lon="8.6041454"><ele>18.0</ele><time>2026-05-01T07:17:15.255Z</time></trkpt><trkpt lat="39.6707661" lon="8.6039219"><ele>18.0</ele><time>2026-05-01T07:17:16.256Z</time></trkpt><trkpt lat="39.6707868" lon="8.6036969"><ele>18.0</ele><time>2026-05-01T07:17:17.255Z</time></trkpt><trkpt lat="39.6708079" lon="8.6034591"><ele>18.0</ele><time>2026-05-01T07:17:18.257Z</time></trkpt><trkpt lat="39.6708283" lon="8.6032415"><ele>18.0</ele><time>2026-05-01T07:17:19.257Z</time></trkpt><trkpt lat="39.6708484" lon="8.6030246"><ele>18.0</ele><time>2026-05-01T07:17:20.256Z</time></trkpt><trkpt lat="39.6708694" lon="8.6027991"><ele>18.666666666666668</ele><time>2026-05-01T07:17:21.257Z</time></trkpt><trkpt lat="39.6708902" lon="8.602571"><ele>19.333333333333336</ele><time>2026-05-01T07:17:22.256Z</time></trkpt><trkpt lat="39.6709105" lon="8.6023566"><ele>20.0</ele><time>2026-05-01T07:17:23.256Z</time></trkpt><trkpt lat="39.6709302" lon="8.6021449"><ele>19.0</ele><time>2026-05-01T07:17:24.257Z</time></trkpt><trkpt lat="39.6709493" lon="8.6019283"><ele>18.0</ele><time>2026-05-01T07:17:25.257Z</time></trkpt><trkpt lat="39.6709675" lon="8.601713"><ele>17.0</ele><time>2026-05-01T07:17:26.257Z</time></trkpt><trkpt lat="39.6709848" lon="8.601512"><ele>17.0</ele><time>2026-05-01T07:17:27.256Z</time></trkpt><trkpt lat="39.6710033" lon="8.6013075"><ele>17.0</ele><time>2026-05-01T07:17:28.256Z</time></trkpt><trkpt lat="39.6710209" lon="8.601102"><ele>17.0</ele><time>2026-05-01T07:17:29.255Z</time></trkpt><trkpt lat="39.6710383" lon="8.6008956"><ele>17.0</ele><time>2026-05-01T07:17:30.255Z</time></trkpt><trkpt lat="39.6710557" lon="8.6007006"><ele>17.0</ele><time>2026-05-01T07:17:31.256Z</time></trkpt><trkpt lat="39.6710735" lon="8.6004986"><ele>17.0</ele><time>2026-05-01T07:17:32.255Z</time></trkpt><trkpt lat="39.6710907" lon="8.6002958"><ele>17.0</ele><time>2026-05-01T07:17:33.256Z</time></trkpt><trkpt lat="39.6711037" lon="8.6001094"><ele>17.0</ele><time>2026-05-01T07:17:34.256Z</time></trkpt><trkpt lat="39.6711207" lon="8.5999364"><ele>17.0</ele><time>2026-05-01T07:17:35.256Z</time></trkpt><trkpt lat="39.671137" lon="8.5997743"><ele>17.0</ele><time>2026-05-01T07:17:36.257Z</time></trkpt><trkpt lat="39.6711492" lon="8.5996259"><ele>17.0</ele><time>2026-05-01T07:17:37.256Z</time></trkpt><trkpt lat="39.6711591" lon="8.5995021"><ele>17.0</ele><time>2026-05-01T07:17:38.256Z</time></trkpt><trkpt lat="39.6711677" lon="8.5994056"><ele>17.0</ele><time>2026-05-01T07:17:39.257Z</time></trkpt><trkpt lat="39.6711745" lon="8.5993211"><ele>17.0</ele><time>2026-05-01T07:17:40.255Z</time></trkpt><trkpt lat="39.6711895" lon="8.5991535"><ele>17.0</ele><time>2026-05-01T07:17:42.257Z</time></trkpt><trkpt lat="39.6711998" lon="8.5990553"><ele>17.0</ele><time>2026-05-01T07:17:43.256Z</time></trkpt><trkpt lat="39.671211" lon="8.5989406"><ele>17.0</ele><time>2026-05-01T07:17:44.256Z</time></trkpt><trkpt lat="39.6712271" lon="8.5988038"><ele>17.0</ele><time>2026-05-01T07:17:45.256Z</time></trkpt><trkpt lat="39.6712485" lon="8.5986472"><ele>17.0</ele><time>2026-05-01T07:17:46.255Z</time></trkpt><trkpt lat="39.6712774" lon="8.5984804"><ele>17.0</ele><time>2026-05-01T07:17:47.256Z</time></trkpt><trkpt lat="39.671313" lon="8.5983131"><ele>17.0</ele><time>2026-05-01T07:17:48.255Z</time></trkpt><trkpt lat="39.6713568" lon="8.5981516"><ele>17.0</ele><time>2026-05-01T07:17:49.257Z</time></trkpt><trkpt lat="39.67141" lon="8.5979897"><ele>17.0</ele><time>2026-05-01T07:17:50.256Z</time></trkpt><trkpt lat="39.6714757" lon="8.5978253"><ele>17.0</ele><time>2026-05-01T07:17:51.257Z</time></trkpt><trkpt lat="39.6715502" lon="8.5976554"><ele>17.0</ele><time>2026-05-01T07:17:52.257Z</time></trkpt><trkpt lat="39.6716327" lon="8.5974785"><ele>17.0</ele><time>2026-05-01T07:17:53.257Z</time></trkpt><trkpt lat="39.6717176" lon="8.5973023"><ele>17.0</ele><time>2026-05-01T07:17:54.257Z</time></trkpt><trkpt lat="39.671799" lon="8.597132"><ele>16.666666666666668</ele><time>2026-05-01T07:17:55.256Z</time></trkpt><trkpt lat="39.6718785" lon="8.5969621"><ele>16.333333333333332</ele><time>2026-05-01T07:17:56.256Z</time></trkpt><trkpt lat="39.6719585" lon="8.5967903"><ele>16.0</ele><time>2026-05-01T07:17:57.255Z</time></trkpt><trkpt lat="39.6720361" lon="8.5966245"><ele>15.75</ele><time>2026-05-01T07:17:58.256Z</time></trkpt><trkpt lat="39.6721119" lon="8.5964644"><ele>15.5</ele><time>2026-05-01T07:17:59.255Z</time></trkpt><trkpt lat="39.6721855" lon="8.5963112"><ele>15.25</ele><time>2026-05-01T07:18:00.256Z</time></trkpt><trkpt lat="39.6722523" lon="8.5961724"><ele>15.0</ele><time>2026-05-01T07:18:01.257Z</time></trkpt><trkpt lat="39.6723203" lon="8.596036"><ele>14.25</ele><time>2026-05-01T07:18:02.256Z</time></trkpt><trkpt lat="39.6723887" lon="8.5958974"><ele>13.5</ele><time>2026-05-01T07:18:03.256Z</time></trkpt><trkpt lat="39.672459" lon="8.5957516"><ele>12.75</ele><time>2026-05-01T07:18:04.255Z</time></trkpt><trkpt lat="39.672524" lon="8.5956079"><ele>12.0</ele><time>2026-05-01T07:18:05.257Z</time></trkpt><trkpt lat="39.6725933" lon="8.5954611"><ele>12.0</ele><time>2026-05-01T07:18:06.255Z</time></trkpt><trkpt lat="39.6726632" lon="8.5953181"><ele>12.0</ele><time>2026-05-01T07:18:07.256Z</time></trkpt><trkpt lat="39.6727267" lon="8.5951862"><ele>12.0</ele><time>2026-05-01T07:18:08.255Z</time></trkpt><trkpt lat="39.672783" lon="8.5950698"><ele>12.0</ele><time>2026-05-01T07:18:09.256Z</time></trkpt><trkpt lat="39.6728363" lon="8.59496"><ele>12.0</ele><time>2026-05-01T07:18:10.257Z</time></trkpt><trkpt lat="39.6728907" lon="8.5948453"><ele>12.0</ele><time>2026-05-01T07:18:11.256Z</time></trkpt><trkpt lat="39.6729474" lon="8.5947287"><ele>12.0</ele><time>2026-05-01T07:18:12.255Z</time></trkpt><trkpt lat="39.672999" lon="8.59462"><ele>12.0</ele><time>2026-05-01T07:18:13.257Z</time></trkpt><trkpt lat="39.6730493" lon="8.5945147"><ele>12.0</ele><time>2026-05-01T07:18:14.257Z</time></trkpt><trkpt lat="39.6731005" lon="8.5944106"><ele>12.0</ele><time>2026-05-01T07:18:15.257Z</time></trkpt><trkpt lat="39.6731533" lon="8.5943045"><ele>12.0</ele><time>2026-05-01T07:18:16.257Z</time></trkpt><trkpt lat="39.673208" lon="8.5941944"><ele>12.0</ele><time>2026-05-01T07:18:17.256Z</time></trkpt><trkpt lat="39.6732699" lon="8.5940684"><ele>12.0</ele><time>2026-05-01T07:18:18.256Z</time></trkpt><trkpt lat="39.6733363" lon="8.5939286"><ele>12.0</ele><time>2026-05-01T07:18:19.257Z</time></trkpt><trkpt lat="39.673408" lon="8.5937745"><ele>11.333333333333334</ele><time>2026-05-01T07:18:20.256Z</time></trkpt><trkpt lat="39.6734875" lon="8.5936038"><ele>10.666666666666668</ele><time>2026-05-01T07:18:21.255Z</time></trkpt><trkpt lat="39.6735703" lon="8.5934303"><ele>10.0</ele><time>2026-05-01T07:18:22.255Z</time></trkpt><trkpt lat="39.6736462" lon="8.5932728"><ele>10.0</ele><time>2026-05-01T07:18:23.256Z</time></trkpt><trkpt lat="39.6737187" lon="8.5931219"><ele>10.0</ele><time>2026-05-01T07:18:24.256Z</time></trkpt><trkpt lat="39.6737862" lon="8.5929797"><ele>10.0</ele><time>2026-05-01T07:18:25.256Z</time></trkpt><trkpt lat="39.673854" lon="8.5928358"><ele>10.0</ele><time>2026-05-01T07:18:26.256Z</time></trkpt><trkpt lat="39.6739256" lon="8.5926874"><ele>10.25</ele><time>2026-05-01T07:18:27.257Z</time></trkpt><trkpt lat="39.6739989" lon="8.5925375"><ele>10.5</ele><time>2026-05-01T07:18:28.256Z</time></trkpt><trkpt lat="39.6740729" lon="8.592387"><ele>10.75</ele><time>2026-05-01T07:18:29.256Z</time></trkpt><trkpt lat="39.674141" lon="8.59225"><ele>11.0</ele><time>2026-05-01T07:18:30.256Z</time></trkpt><trkpt lat="39.6742047" lon="8.5921178"><ele>10.75</ele><time>2026-05-01T07:18:31.256Z</time></trkpt><trkpt lat="39.674269" lon="8.5919822"><ele>10.5</ele><time>2026-05-01T07:18:32.257Z</time></trkpt><trkpt lat="39.6743341" lon="8.5918417"><ele>10.25</ele><time>2026-05-01T07:18:33.257Z</time></trkpt><trkpt lat="39.6743987" lon="8.5917073"><ele>10.0</ele><time>2026-05-01T07:18:34.256Z</time></trkpt><trkpt lat="39.6744604" lon="8.5915806"><ele>10.0</ele><time>2026-05-01T07:18:35.257Z</time></trkpt><trkpt lat="39.6745195" lon="8.5914595"><ele>10.0</ele><time>2026-05-01T07:18:36.256Z</time></trkpt><trkpt lat="39.6745757" lon="8.5913435"><ele>10.0</ele><time>2026-05-01T07:18:37.256Z</time></trkpt><trkpt lat="39.6746271" lon="8.5912359"><ele>10.0</ele><time>2026-05-01T07:18:38.257Z</time></trkpt><trkpt lat="39.6746726" lon="8.5911444"><ele>10.0</ele><time>2026-05-01T07:18:39.257Z</time></trkpt><trkpt lat="39.6747136" lon="8.5910602"><ele>9.833333333333334</ele><time>2026-05-01T07:18:40.255Z</time></trkpt><trkpt lat="39.6747532" lon="8.5909791"><ele>9.666666666666668</ele><time>2026-05-01T07:18:41.257Z</time></trkpt><trkpt lat="39.6747988" lon="8.5908862"><ele>9.5</ele><time>2026-05-01T07:18:42.256Z</time></trkpt><trkpt lat="39.674841" lon="8.5907933"><ele>9.333333333333334</ele><time>2026-05-01T07:18:43.257Z</time></trkpt><trkpt lat="39.6748788" lon="8.5907084"><ele>9.166666666666666</ele><time>2026-05-01T07:18:44.256Z</time></trkpt><trkpt lat="39.6749107" lon="8.5906302"><ele>9.0</ele><time>2026-05-01T07:18:45.257Z</time></trkpt><trkpt lat="39.6749396" lon="8.5905554"><ele>9.0</ele><time>2026-05-01T07:18:46.256Z</time></trkpt><trkpt lat="39.6749721" lon="8.5904718"><ele>9.0</ele><time>2026-05-01T07:18:47.256Z</time></trkpt><trkpt lat="39.6750097" lon="8.5903749"><ele>9.0</ele><time>2026-05-01T07:18:48.257Z</time></trkpt><trkpt lat="39.6750441" lon="8.5902707"><ele>9.0</ele><time>2026-05-01T07:18:49.256Z</time></trkpt><trkpt lat="39.6750737" lon="8.5901696"><ele>9.0</ele><time>2026-05-01T07:18:50.256Z</time></trkpt><trkpt lat="39.6750996" lon="8.5900678"><ele>9.0</ele><time>2026-05-01T07:18:51.256Z</time></trkpt><trkpt lat="39.6751219" lon="8.5899747"><ele>9.0</ele><time>2026-05-01T07:18:52.257Z</time></trkpt><trkpt lat="39.6751437" lon="8.5898849"><ele>9.0</ele><time>2026-05-01T07:18:53.256Z</time></trkpt><trkpt lat="39.6751674" lon="8.589784"><ele>9.0</ele><time>2026-05-01T07:18:54.256Z</time></trkpt><trkpt lat="39.6751941" lon="8.5896761"><ele>9.0</ele><time>2026-05-01T07:18:55.256Z</time></trkpt><trkpt lat="39.6752242" lon="8.5895571"><ele>9.0</ele><time>2026-05-01T07:18:56.256Z</time></trkpt><trkpt lat="39.6752538" lon="8.589431"><ele>9.0</ele><time>2026-05-01T07:18:57.257Z</time></trkpt><trkpt lat="39.6752818" lon="8.5893056"><ele>8.833333333333334</ele><time>2026-05-01T07:18:58.256Z</time></trkpt><trkpt lat="39.6753066" lon="8.5891936"><ele>8.666666666666666</ele><time>2026-05-01T07:18:59.256Z</time></trkpt><trkpt lat="39.6753289" lon="8.5890896"><ele>8.5</ele><time>2026-05-01T07:19:00.257Z</time></trkpt><trkpt lat="39.6753498" lon="8.5889942"><ele>8.333333333333332</ele><time>2026-05-01T07:19:01.256Z</time></trkpt><trkpt lat="39.6753755" lon="8.5888961"><ele>8.166666666666666</ele><time>2026-05-01T07:19:02.257Z</time></trkpt><trkpt lat="39.6754027" lon="8.5887866"><ele>8.0</ele><time>2026-05-01T07:19:03.256Z</time></trkpt><trkpt lat="39.6754305" lon="8.5886705"><ele>8.0</ele><time>2026-05-01T07:19:04.256Z</time></trkpt><trkpt lat="39.6754593" lon="8.588544"><ele>8.0</ele><time>2026-05-01T07:19:05.257Z</time></trkpt><trkpt lat="39.6754897" lon="8.5884108"><ele>8.0</ele><time>2026-05-01T07:19:06.254Z</time></trkpt><trkpt lat="39.6755184" lon="8.5882925"><ele>8.0</ele><time>2026-05-01T07:19:07.257Z</time></trkpt><trkpt lat="39.6755448" lon="8.588181"><ele>8.0</ele><time>2026-05-01T07:19:08.257Z</time></trkpt><trkpt lat="39.6755695" lon="8.5880733"><ele>8.0</ele><time>2026-05-01T07:19:09.256Z</time></trkpt><trkpt lat="39.6755937" lon="8.5879715"><ele>7.999999999999999</ele><time>2026-05-01T07:19:10.255Z</time></trkpt><trkpt lat="39.6756169" lon="8.5878791"><ele>8.0</ele><time>2026-05-01T07:19:11.257Z</time></trkpt><trkpt lat="39.6756387" lon="8.5877977"><ele>8.0</ele><time>2026-05-01T07:19:12.255Z</time></trkpt><trkpt lat="39.6756598" lon="8.5877199"><ele>7.999999999999999</ele><time>2026-05-01T07:19:13.257Z</time></trkpt><trkpt lat="39.675681" lon="8.5876409"><ele>8.0</ele><time>2026-05-01T07:19:14.256Z</time></trkpt><trkpt lat="39.6757052" lon="8.5875531"><ele>8.0</ele><time>2026-05-01T07:19:15.257Z</time></trkpt><trkpt lat="39.6757312" lon="8.5874566"><ele>8.0</ele><time>2026-05-01T07:19:16.255Z</time></trkpt><trkpt lat="39.6757591" lon="8.5873486"><ele>8.0</ele><time>2026-05-01T07:19:17.257Z</time></trkpt><trkpt lat="39.675793" lon="8.5872237"><ele>8.0</ele><time>2026-05-01T07:19:18.256Z</time></trkpt><trkpt lat="39.6758289" lon="8.5870792"><ele>8.0</ele><time>2026-05-01T07:19:19.255Z</time></trkpt><trkpt lat="39.6758687" lon="8.5869195"><ele>8.0</ele><time>2026-05-01T07:19:20.256Z</time></trkpt><trkpt lat="39.6759078" lon="8.5867437"><ele>9.0</ele><time>2026-05-01T07:19:21.257Z</time></trkpt><trkpt lat="39.6759443" lon="8.5865539"><ele>10.0</ele><time>2026-05-01T07:19:22.256Z</time></trkpt><trkpt lat="39.6759804" lon="8.5863542"><ele>11.0</ele><time>2026-05-01T07:19:23.257Z</time></trkpt><trkpt lat="39.6760137" lon="8.5861576"><ele>11.0</ele><time>2026-05-01T07:19:24.256Z</time></trkpt><trkpt lat="39.6760427" lon="8.5859698"><ele>11.0</ele><time>2026-05-01T07:19:25.257Z</time></trkpt><trkpt lat="39.6760676" lon="8.5857889"><ele>11.0</ele><time>2026-05-01T07:19:26.256Z</time></trkpt><trkpt lat="39.6760885" lon="8.5856073"><ele>11.0</ele><time>2026-05-01T07:19:27.257Z</time></trkpt><trkpt lat="39.6761083" lon="8.585416"><ele>10.333333333333332</ele><time>2026-05-01T07:19:28.256Z</time></trkpt><trkpt lat="39.676126" lon="8.5852222"><ele>9.666666666666666</ele><time>2026-05-01T07:19:29.256Z</time></trkpt><trkpt lat="39.6761442" lon="8.5850209"><ele>9.0</ele><time>2026-05-01T07:19:30.256Z</time></trkpt><trkpt lat="39.6761646" lon="8.5848118"><ele>9.0</ele><time>2026-05-01T07:19:31.256Z</time></trkpt><trkpt lat="39.6761855" lon="8.584594"><ele>9.0</ele><time>2026-05-01T07:19:32.255Z</time></trkpt><trkpt lat="39.6762087" lon="8.584375"><ele>9.0</ele><time>2026-05-01T07:19:33.256Z</time></trkpt><trkpt lat="39.6762291" lon="8.5841667"><ele>9.0</ele><time>2026-05-01T07:19:34.256Z</time></trkpt><trkpt lat="39.6762505" lon="8.5839578"><ele>9.0</ele><time>2026-05-01T07:19:35.255Z</time></trkpt><trkpt lat="39.6762712" lon="8.5837473"><ele>9.0</ele><time>2026-05-01T07:19:36.256Z</time></trkpt><trkpt lat="39.6762907" lon="8.5835321"><ele>9.0</ele><time>2026-05-01T07:19:37.256Z</time></trkpt><trkpt lat="39.6763115" lon="8.5833125"><ele>9.0</ele><time>2026-05-01T07:19:38.256Z</time></trkpt><trkpt lat="39.6763342" lon="8.5830831"><ele>9.0</ele><time>2026-05-01T07:19:39.256Z</time></trkpt><trkpt lat="39.6763583" lon="8.5828426"><ele>9.333333333333334</ele><time>2026-05-01T07:19:40.255Z</time></trkpt><trkpt lat="39.6763847" lon="8.5825885"><ele>9.666666666666668</ele><time>2026-05-01T07:19:41.257Z</time></trkpt><trkpt lat="39.6764086" lon="8.5823308"><ele>10.0</ele><time>2026-05-01T07:19:42.257Z</time></trkpt><trkpt lat="39.6764353" lon="8.5820706"><ele>10.333333333333334</ele><time>2026-05-01T07:19:43.256Z</time></trkpt><trkpt lat="39.6764605" lon="8.5818205"><ele>10.666666666666666</ele><time>2026-05-01T07:19:44.256Z</time></trkpt><trkpt lat="39.676484" lon="8.5815842"><ele>11.0</ele><time>2026-05-01T07:19:45.256Z</time></trkpt><trkpt lat="39.6765075" lon="8.5813524"><ele>11.0</ele><time>2026-05-01T07:19:46.255Z</time></trkpt><trkpt lat="39.6765288" lon="8.5811325"><ele>11.0</ele><time>2026-05-01T07:19:47.256Z</time></trkpt><trkpt lat="39.6765507" lon="8.5809217"><ele>11.0</ele><time>2026-05-01T07:19:48.256Z</time></trkpt><trkpt lat="39.6765709" lon="8.580716"><ele>11.0</ele><time>2026-05-01T07:19:49.255Z</time></trkpt><trkpt lat="39.6765932" lon="8.5805117"><ele>11.0</ele><time>2026-05-01T07:19:50.255Z</time></trkpt><trkpt lat="39.6766122" lon="8.580307"><ele>11.0</ele><time>2026-05-01T07:19:51.256Z</time></trkpt><trkpt lat="39.6766308" lon="8.5801002"><ele>11.25</ele><time>2026-05-01T07:19:52.255Z</time></trkpt><trkpt lat="39.6766495" lon="8.5799037"><ele>11.5</ele><time>2026-05-01T07:19:53.256Z</time></trkpt><trkpt lat="39.676666" lon="8.5797158"><ele>11.75</ele><time>2026-05-01T07:19:54.257Z</time></trkpt><trkpt lat="39.6766846" lon="8.5795264"><ele>12.0</ele><time>2026-05-01T07:19:55.256Z</time></trkpt><trkpt lat="39.6767046" lon="8.5793371"><ele>12.25</ele><time>2026-05-01T07:19:56.257Z</time></trkpt><trkpt lat="39.6767234" lon="8.5791487"><ele>12.5</ele><time>2026-05-01T07:19:57.257Z</time></trkpt><trkpt lat="39.6767417" lon="8.5789609"><ele>12.75</ele><time>2026-05-01T07:19:58.257Z</time></trkpt><trkpt lat="39.6767581" lon="8.5787734"><ele>13.0</ele><time>2026-05-01T07:19:59.257Z</time></trkpt><trkpt lat="39.6767773" lon="8.5785835"><ele>13.0</ele><time>2026-05-01T07:20:00.257Z</time></trkpt><trkpt lat="39.6767977" lon="8.5783908"><ele>13.0</ele><time>2026-05-01T07:20:01.257Z</time></trkpt><trkpt lat="39.6768174" lon="8.5781979"><ele>13.0</ele><time>2026-05-01T07:20:02.255Z</time></trkpt><trkpt lat="39.676839" lon="8.5780019"><ele>13.0</ele><time>2026-05-01T07:20:03.256Z</time></trkpt><trkpt lat="39.6768585" lon="8.5778011"><ele>13.0</ele><time>2026-05-01T07:20:04.257Z</time></trkpt><trkpt lat="39.6768789" lon="8.5775961"><ele>13.0</ele><time>2026-05-01T07:20:05.255Z</time></trkpt><trkpt lat="39.6769" lon="8.5773847"><ele>13.0</ele><time>2026-05-01T07:20:06.255Z</time></trkpt><trkpt lat="39.6769203" lon="8.5771677"><ele>13.0</ele><time>2026-05-01T07:20:07.255Z</time></trkpt><trkpt lat="39.6769429" lon="8.5769412"><ele>13.0</ele><time>2026-05-01T07:20:08.257Z</time></trkpt><trkpt lat="39.676967" lon="8.5767022"><ele>12.666666666666666</ele><time>2026-05-01T07:20:09.256Z</time></trkpt><trkpt lat="39.6769909" lon="8.5764471"><ele>12.333333333333332</ele><time>2026-05-01T07:20:10.256Z</time></trkpt><trkpt lat="39.6770149" lon="8.576178"><ele>12.0</ele><time>2026-05-01T07:20:11.256Z</time></trkpt><trkpt lat="39.6770408" lon="8.5758973"><ele>13.5</ele><time>2026-05-01T07:20:12.256Z</time></trkpt><trkpt lat="39.6770677" lon="8.5756029"><ele>15.0</ele><time>2026-05-01T07:20:13.257Z</time></trkpt><trkpt lat="39.6770973" lon="8.5752977"><ele>15.0</ele><time>2026-05-01T07:20:14.257Z</time></trkpt><trkpt lat="39.677128" lon="8.5749852"><ele>15.0</ele><time>2026-05-01T07:20:15.257Z</time></trkpt><trkpt lat="39.6771576" lon="8.5746669"><ele>14.5</ele><time>2026-05-01T07:20:16.256Z</time></trkpt><trkpt lat="39.6771858" lon="8.5743455"><ele>14.0</ele><time>2026-05-01T07:20:17.256Z</time></trkpt><trkpt lat="39.6772147" lon="8.5740204"><ele>14.0</ele><time>2026-05-01T07:20:18.257Z</time></trkpt><trkpt lat="39.6772442" lon="8.5736945"><ele>14.0</ele><time>2026-05-01T07:20:19.257Z</time></trkpt><trkpt lat="39.6772777" lon="8.5733681"><ele>13.5</ele><time>2026-05-01T07:20:20.256Z</time></trkpt><trkpt lat="39.6773147" lon="8.5730408"><ele>13.0</ele><time>2026-05-01T07:20:21.257Z</time></trkpt><trkpt lat="39.6773534" lon="8.5727207"><ele>12.5</ele><time>2026-05-01T07:20:22.256Z</time></trkpt><trkpt lat="39.6773896" lon="8.5724088"><ele>12.0</ele><time>2026-05-01T07:20:23.256Z</time></trkpt><trkpt lat="39.677424" lon="8.5720994"><ele>11.666666666666666</ele><time>2026-05-01T07:20:24.256Z</time></trkpt><trkpt lat="39.6774538" lon="8.5718029"><ele>11.333333333333332</ele><time>2026-05-01T07:20:25.257Z</time></trkpt><trkpt lat="39.6774806" lon="8.57152"><ele>11.0</ele><time>2026-05-01T07:20:26.255Z</time></trkpt><trkpt lat="39.6775084" lon="8.5712403"><ele>11.666666666666666</ele><time>2026-05-01T07:20:27.256Z</time></trkpt><trkpt lat="39.6775363" lon="8.5709727"><ele>12.333333333333332</ele><time>2026-05-01T07:20:28.256Z</time></trkpt><trkpt lat="39.6775646" lon="8.5707054"><ele>13.0</ele><time>2026-05-01T07:20:29.257Z</time></trkpt><trkpt lat="39.6775973" lon="8.5704469"><ele>13.333333333333332</ele><time>2026-05-01T07:20:30.257Z</time></trkpt><trkpt lat="39.6776361" lon="8.5702025"><ele>13.666666666666668</ele><time>2026-05-01T07:20:31.256Z</time></trkpt><trkpt lat="39.6776849" lon="8.5699678"><ele>14.0</ele><time>2026-05-01T07:20:32.257Z</time></trkpt><trkpt lat="39.6777452" lon="8.5697386"><ele>13.0</ele><time>2026-05-01T07:20:33.255Z</time></trkpt><trkpt lat="39.6778122" lon="8.5695132"><ele>12.0</ele><time>2026-05-01T07:20:34.256Z</time></trkpt><trkpt lat="39.6778851" lon="8.5692913"><ele>11.0</ele><time>2026-05-01T07:20:35.256Z</time></trkpt><trkpt lat="39.6779617" lon="8.5690672"><ele>11.0</ele><time>2026-05-01T07:20:36.255Z</time></trkpt><trkpt lat="39.6780389" lon="8.5688411"><ele>11.0</ele><time>2026-05-01T07:20:37.255Z</time></trkpt><trkpt lat="39.6781159" lon="8.5686117"><ele>11.0</ele><time>2026-05-01T07:20:38.255Z</time></trkpt><trkpt lat="39.6781949" lon="8.5683808"><ele>11.0</ele><time>2026-05-01T07:20:39.256Z</time></trkpt><trkpt lat="39.6782763" lon="8.5681478"><ele>11.0</ele><time>2026-05-01T07:20:40.256Z</time></trkpt><trkpt lat="39.678359" lon="8.5679115"><ele>11.0</ele><time>2026-05-01T07:20:41.255Z</time></trkpt><trkpt lat="39.6784423" lon="8.5676694"><ele>11.0</ele><time>2026-05-01T07:20:42.257Z</time></trkpt><trkpt lat="39.6785271" lon="8.5674236"><ele>11.0</ele><time>2026-05-01T07:20:43.257Z</time></trkpt><trkpt lat="39.678614" lon="8.5671714"><ele>11.0</ele><time>2026-05-01T07:20:44.256Z</time></trkpt><trkpt lat="39.6787035" lon="8.5669128"><ele>10.0</ele><time>2026-05-01T07:20:45.256Z</time></trkpt><trkpt lat="39.6787946" lon="8.56665"><ele>9.0</ele><time>2026-05-01T07:20:46.256Z</time></trkpt><trkpt lat="39.6788863" lon="8.5663849"><ele>8.0</ele><time>2026-05-01T07:20:47.255Z</time></trkpt><trkpt lat="39.6789786" lon="8.5661151"><ele>7.5</ele><time>2026-05-01T07:20:48.256Z</time></trkpt><trkpt lat="39.6790718" lon="8.5658416"><ele>7.0</ele><time>2026-05-01T07:20:49.256Z</time></trkpt><trkpt lat="39.6791662" lon="8.5655669"><ele>7.5</ele><time>2026-05-01T07:20:50.256Z</time></trkpt><trkpt lat="39.6792606" lon="8.5652925"><ele>8.0</ele><time>2026-05-01T07:20:51.256Z</time></trkpt><trkpt lat="39.6793559" lon="8.5650176"><ele>7.5</ele><time>2026-05-01T07:20:52.256Z</time></trkpt><trkpt lat="39.6794521" lon="8.564742"><ele>7.0</ele><time>2026-05-01T07:20:53.255Z</time></trkpt><trkpt lat="39.6795491" lon="8.564464"><ele>7.0</ele><time>2026-05-01T07:20:54.256Z</time></trkpt><trkpt lat="39.6796451" lon="8.5641846"><ele>7.0</ele><time>2026-05-01T07:20:55.256Z</time></trkpt><trkpt lat="39.6797406" lon="8.563903"><ele>7.0</ele><time>2026-05-01T07:20:56.255Z</time></trkpt><trkpt lat="39.6798369" lon="8.5636205"><ele>7.0</ele><time>2026-05-01T07:20:57.256Z</time></trkpt><trkpt lat="39.6799331" lon="8.5633372"><ele>7.0</ele><time>2026-05-01T07:20:58.256Z</time></trkpt><trkpt lat="39.6800292" lon="8.5630544"><ele>7.0</ele><time>2026-05-01T07:20:59.255Z</time></trkpt><trkpt lat="39.680124" lon="8.5627765"><ele>7.0</ele><time>2026-05-01T07:21:00.256Z</time></trkpt><trkpt lat="39.6802156" lon="8.5625137"><ele>7.0</ele><time>2026-05-01T07:21:01.256Z</time></trkpt><trkpt lat="39.6803037" lon="8.5622601"><ele>7.0</ele><time>2026-05-01T07:21:02.256Z</time></trkpt><trkpt lat="39.6803911" lon="8.5620076"><ele>7.0</ele><time>2026-05-01T07:21:03.256Z</time></trkpt><trkpt lat="39.6804783" lon="8.5617559"><ele>7.0</ele><time>2026-05-01T07:21:04.256Z</time></trkpt><trkpt lat="39.6805663" lon="8.5615043"><ele>7.0</ele><time>2026-05-01T07:21:05.256Z</time></trkpt><trkpt lat="39.6806546" lon="8.5612523"><ele>7.666666666666667</ele><time>2026-05-01T07:21:06.256Z</time></trkpt><trkpt lat="39.6807427" lon="8.560999"><ele>8.333333333333334</ele><time>2026-05-01T07:21:07.256Z</time></trkpt><trkpt lat="39.6808305" lon="8.5607448"><ele>9.0</ele><time>2026-05-01T07:21:08.256Z</time></trkpt><trkpt lat="39.6809194" lon="8.5604878"><ele>8.666666666666666</ele><time>2026-05-01T07:21:09.256Z</time></trkpt><trkpt lat="39.6810087" lon="8.5602268"><ele>8.333333333333332</ele><time>2026-05-01T07:21:10.257Z</time></trkpt><trkpt lat="39.6810995" lon="8.5599602"><ele>8.0</ele><time>2026-05-01T07:21:11.257Z</time></trkpt><trkpt lat="39.6811923" lon="8.5596924"><ele>9.5</ele><time>2026-05-01T07:21:12.257Z</time></trkpt><trkpt lat="39.6812864" lon="8.559423"><ele>11.0</ele><time>2026-05-01T07:21:13.256Z</time></trkpt><trkpt lat="39.6813793" lon="8.5591558"><ele>11.0</ele><time>2026-05-01T07:21:14.256Z</time></trkpt><trkpt lat="39.6814681" lon="8.5588963"><ele>11.0</ele><time>2026-05-01T07:21:15.256Z</time></trkpt><trkpt lat="39.6815529" lon="8.5586444"><ele>11.0</ele><time>2026-05-01T07:21:16.255Z</time></trkpt><trkpt lat="39.6816382" lon="8.5583924"><ele>11.333333333333332</ele><time>2026-05-01T07:21:17.256Z</time></trkpt><trkpt lat="39.6817236" lon="8.5581428"><ele>11.666666666666666</ele><time>2026-05-01T07:21:18.255Z</time></trkpt><trkpt lat="39.6818081" lon="8.5578959"><ele>12.0</ele><time>2026-05-01T07:21:19.256Z</time></trkpt><trkpt lat="39.6818928" lon="8.5576511"><ele>11.333333333333334</ele><time>2026-05-01T07:21:20.256Z</time></trkpt><trkpt lat="39.6819786" lon="8.5574046"><ele>10.666666666666668</ele><time>2026-05-01T07:21:21.257Z</time></trkpt><trkpt lat="39.6820643" lon="8.5571583"><ele>10.0</ele><time>2026-05-01T07:21:22.257Z</time></trkpt><trkpt lat="39.6821498" lon="8.5569109"><ele>10.0</ele><time>2026-05-01T07:21:23.257Z</time></trkpt><trkpt lat="39.6822349" lon="8.5566634"><ele>10.0</ele><time>2026-05-01T07:21:24.257Z</time></trkpt><trkpt lat="39.6823202" lon="8.5564152"><ele>10.0</ele><time>2026-05-01T07:21:25.257Z</time></trkpt><trkpt lat="39.6824048" lon="8.5561681"><ele>10.333333333333334</ele><time>2026-05-01T07:21:26.257Z</time></trkpt><trkpt lat="39.6824867" lon="8.5559297"><ele>10.666666666666666</ele><time>2026-05-01T07:21:27.257Z</time></trkpt><trkpt lat="39.6825686" lon="8.5556907"><ele>11.0</ele><time>2026-05-01T07:21:28.255Z</time></trkpt><trkpt lat="39.6826498" lon="8.5554538"><ele>10.666666666666666</ele><time>2026-05-01T07:21:29.255Z</time></trkpt><trkpt lat="39.6827315" lon="8.5552186"><ele>10.333333333333334</ele><time>2026-05-01T07:21:30.255Z</time></trkpt><trkpt lat="39.6828129" lon="8.5549838"><ele>10.0</ele><time>2026-05-01T07:21:31.256Z</time></trkpt><trkpt lat="39.6828929" lon="8.5547474"><ele>9.666666666666668</ele><time>2026-05-01T07:21:32.256Z</time></trkpt><trkpt lat="39.6829736" lon="8.5545099"><ele>9.333333333333334</ele><time>2026-05-01T07:21:33.255Z</time></trkpt><trkpt lat="39.6830549" lon="8.5542717"><ele>9.0</ele><time>2026-05-01T07:21:34.256Z</time></trkpt><trkpt lat="39.6831362" lon="8.5540339"><ele>9.0</ele><time>2026-05-01T07:21:35.256Z</time></trkpt><trkpt lat="39.6832178" lon="8.5537975"><ele>9.0</ele><time>2026-05-01T07:21:36.257Z</time></trkpt><trkpt lat="39.6832984" lon="8.5535665"><ele>9.0</ele><time>2026-05-01T07:21:37.257Z</time></trkpt><trkpt lat="39.6833786" lon="8.553332"><ele>10.0</ele><time>2026-05-01T07:21:38.256Z</time></trkpt><trkpt lat="39.6834601" lon="8.5530958"><ele>11.0</ele><time>2026-05-01T07:21:39.257Z</time></trkpt><trkpt lat="39.6835442" lon="8.5528569"><ele>12.0</ele><time>2026-05-01T07:21:40.257Z</time></trkpt><trkpt lat="39.683627" lon="8.5526191"><ele>13.0</ele><time>2026-05-01T07:21:41.255Z</time></trkpt><trkpt lat="39.6837092" lon="8.5523818"><ele>14.0</ele><time>2026-05-01T07:21:42.257Z</time></trkpt><trkpt lat="39.6837911" lon="8.5521441"><ele>15.0</ele><time>2026-05-01T07:21:43.256Z</time></trkpt><trkpt lat="39.6838721" lon="8.5519104"><ele>15.333333333333332</ele><time>2026-05-01T07:21:44.256Z</time></trkpt><trkpt lat="39.683953" lon="8.5516751"><ele>15.666666666666666</ele><time>2026-05-01T07:21:45.256Z</time></trkpt><trkpt lat="39.6840339" lon="8.5514386"><ele>16.0</ele><time>2026-05-01T07:21:46.256Z</time></trkpt><trkpt lat="39.6841143" lon="8.5512051"><ele>16.333333333333332</ele><time>2026-05-01T07:21:47.257Z</time></trkpt><trkpt lat="39.6841946" lon="8.5509706"><ele>16.666666666666668</ele><time>2026-05-01T07:21:48.257Z</time></trkpt><trkpt lat="39.6842748" lon="8.5507381"><ele>17.0</ele><time>2026-05-01T07:21:49.256Z</time></trkpt><trkpt lat="39.6843551" lon="8.5505082"><ele>17.0</ele><time>2026-05-01T07:21:50.257Z</time></trkpt><trkpt lat="39.6844343" lon="8.550279"><ele>17.0</ele><time>2026-05-01T07:21:51.257Z</time></trkpt><trkpt lat="39.684513" lon="8.5500502"><ele>17.0</ele><time>2026-05-01T07:21:52.256Z</time></trkpt><trkpt lat="39.6845921" lon="8.549822"><ele>17.0</ele><time>2026-05-01T07:21:53.255Z</time></trkpt><trkpt lat="39.684671" lon="8.5495919"><ele>17.0</ele><time>2026-05-01T07:21:54.257Z</time></trkpt><trkpt lat="39.6847501" lon="8.5493617"><ele>17.0</ele><time>2026-05-01T07:21:55.256Z</time></trkpt><trkpt lat="39.6848303" lon="8.549131"><ele>17.666666666666668</ele><time>2026-05-01T07:21:56.256Z</time></trkpt><trkpt lat="39.684911" lon="8.5488987"><ele>18.333333333333332</ele><time>2026-05-01T07:21:57.257Z</time></trkpt><trkpt lat="39.6849916" lon="8.5486661"><ele>19.0</ele><time>2026-05-01T07:21:58.257Z</time></trkpt><trkpt lat="39.6850693" lon="8.5484412"><ele>19.0</ele><time>2026-05-01T07:21:59.256Z</time></trkpt><trkpt lat="39.685148" lon="8.548215"><ele>19.0</ele><time>2026-05-01T07:22:00.256Z</time></trkpt><trkpt lat="39.685228" lon="8.5479896"><ele>19.0</ele><time>2026-05-01T07:22:01.257Z</time></trkpt><trkpt lat="39.68531" lon="8.547761"><ele>19.0</ele><time>2026-05-01T07:22:02.256Z</time></trkpt><trkpt lat="39.6853931" lon="8.5475287"><ele>19.0</ele><time>2026-05-01T07:22:03.257Z</time></trkpt><trkpt lat="39.6854777" lon="8.5472912"><ele>19.0</ele><time>2026-05-01T07:22:04.256Z</time></trkpt><trkpt lat="39.6855636" lon="8.5470489"><ele>19.0</ele><time>2026-05-01T07:22:05.256Z</time></trkpt><trkpt lat="39.6856521" lon="8.5468009"><ele>19.0</ele><time>2026-05-01T07:22:06.257Z</time></trkpt><trkpt lat="39.6857424" lon="8.5465482"><ele>19.0</ele><time>2026-05-01T07:22:07.256Z</time></trkpt><trkpt lat="39.6858345" lon="8.5462927"><ele>19.0</ele><time>2026-05-01T07:22:08.256Z</time></trkpt><trkpt lat="39.6859265" lon="8.5460355"><ele>19.0</ele><time>2026-05-01T07:22:09.256Z</time></trkpt><trkpt lat="39.6860183" lon="8.5457777"><ele>19.0</ele><time>2026-05-01T07:22:10.256Z</time></trkpt><trkpt lat="39.6861097" lon="8.5455222"><ele>19.0</ele><time>2026-05-01T07:22:11.256Z</time></trkpt><trkpt lat="39.6862014" lon="8.5452702"><ele>19.0</ele><time>2026-05-01T07:22:12.257Z</time></trkpt><trkpt lat="39.686293" lon="8.5450181"><ele>19.0</ele><time>2026-05-01T07:22:13.257Z</time></trkpt><trkpt lat="39.6863854" lon="8.5447636"><ele>19.0</ele><time>2026-05-01T07:22:14.256Z</time></trkpt><trkpt lat="39.6864776" lon="8.544508"><ele>19.0</ele><time>2026-05-01T07:22:15.255Z</time></trkpt><trkpt lat="39.6865684" lon="8.5442521"><ele>19.0</ele><time>2026-05-01T07:22:16.256Z</time></trkpt><trkpt lat="39.6866542" lon="8.544007"><ele>19.0</ele><time>2026-05-01T07:22:17.256Z</time></trkpt><trkpt lat="39.6867376" lon="8.543771"><ele>19.0</ele><time>2026-05-01T07:22:18.256Z</time></trkpt><trkpt lat="39.6868222" lon="8.5435374"><ele>19.0</ele><time>2026-05-01T07:22:19.256Z</time></trkpt><trkpt lat="39.6869075" lon="8.5433019"><ele>19.0</ele><time>2026-05-01T07:22:20.257Z</time></trkpt><trkpt lat="39.6869931" lon="8.5430648"><ele>19.0</ele><time>2026-05-01T07:22:21.256Z</time></trkpt><trkpt lat="39.6870787" lon="8.5428236"><ele>19.0</ele><time>2026-05-01T07:22:22.257Z</time></trkpt><trkpt lat="39.6871656" lon="8.5425766"><ele>19.0</ele><time>2026-05-01T07:22:23.256Z</time></trkpt><trkpt lat="39.6872552" lon="8.5423244"><ele>19.0</ele><time>2026-05-01T07:22:24.257Z</time></trkpt><trkpt lat="39.6873474" lon="8.5420661"><ele>19.0</ele><time>2026-05-01T07:22:25.257Z</time></trkpt><trkpt lat="39.6874395" lon="8.5418065"><ele>18.666666666666664</ele><time>2026-05-01T07:22:26.257Z</time></trkpt><trkpt lat="39.6875315" lon="8.5415484"><ele>18.333333333333332</ele><time>2026-05-01T07:22:27.257Z</time></trkpt><trkpt lat="39.687623" lon="8.5412917"><ele>18.0</ele><time>2026-05-01T07:22:28.257Z</time></trkpt><trkpt lat="39.6877149" lon="8.5410357"><ele>16.666666666666668</ele><time>2026-05-01T07:22:29.256Z</time></trkpt><trkpt lat="39.6878071" lon="8.540781"><ele>15.333333333333334</ele><time>2026-05-01T07:22:30.257Z</time></trkpt><trkpt lat="39.6878988" lon="8.5405264"><ele>14.0</ele><time>2026-05-01T07:22:31.257Z</time></trkpt><trkpt lat="39.6879911" lon="8.5402709"><ele>14.0</ele><time>2026-05-01T07:22:32.256Z</time></trkpt><trkpt lat="39.6880837" lon="8.5400153"><ele>14.0</ele><time>2026-05-01T07:22:33.256Z</time></trkpt><trkpt lat="39.688177" lon="8.5397605"><ele>14.0</ele><time>2026-05-01T07:22:34.257Z</time></trkpt><trkpt lat="39.6882656" lon="8.5395166"><ele>14.0</ele><time>2026-05-01T07:22:35.256Z</time></trkpt><trkpt lat="39.6883543" lon="8.5392726"><ele>14.0</ele><time>2026-05-01T07:22:36.256Z</time></trkpt><trkpt lat="39.6884423" lon="8.5390266"><ele>14.0</ele><time>2026-05-01T07:22:37.257Z</time></trkpt><trkpt lat="39.6885295" lon="8.5387787"><ele>13.666666666666668</ele><time>2026-05-01T07:22:38.256Z</time></trkpt><trkpt lat="39.6886174" lon="8.5385277"><ele>13.333333333333332</ele><time>2026-05-01T07:22:39.256Z</time></trkpt><trkpt lat="39.6887064" lon="8.5382751"><ele>13.0</ele><time>2026-05-01T07:22:40.257Z</time></trkpt><trkpt lat="39.6887959" lon="8.5380216"><ele>12.333333333333332</ele><time>2026-05-01T07:22:41.257Z</time></trkpt><trkpt lat="39.6888859" lon="8.5377677"><ele>11.666666666666666</ele><time>2026-05-01T07:22:42.256Z</time></trkpt><trkpt lat="39.6889781" lon="8.5375129"><ele>11.0</ele><time>2026-05-01T07:22:43.254Z</time></trkpt><trkpt lat="39.6890701" lon="8.5372586"><ele>10.0</ele><time>2026-05-01T07:22:44.254Z</time></trkpt><trkpt lat="39.6891591" lon="8.5370112"><ele>9.0</ele><time>2026-05-01T07:22:45.255Z</time></trkpt><trkpt lat="39.6892445" lon="8.5367722"><ele>8.0</ele><time>2026-05-01T07:22:46.256Z</time></trkpt><trkpt lat="39.6893288" lon="8.5365349"><ele>8.0</ele><time>2026-05-01T07:22:47.255Z</time></trkpt><trkpt lat="39.689412" lon="8.5362964"><ele>8.0</ele><time>2026-05-01T07:22:48.256Z</time></trkpt><trkpt lat="39.6894963" lon="8.5360582"><ele>8.0</ele><time>2026-05-01T07:22:49.256Z</time></trkpt><trkpt lat="39.6895815" lon="8.5358172"><ele>7.0</ele><time>2026-05-01T07:22:50.254Z</time></trkpt><trkpt lat="39.6896687" lon="8.5355744"><ele>6.0</ele><time>2026-05-01T07:22:51.255Z</time></trkpt><trkpt lat="39.6897569" lon="8.5353308"><ele>5.0</ele><time>2026-05-01T07:22:52.255Z</time></trkpt><trkpt lat="39.6898417" lon="8.5350973"><ele>5.0</ele><time>2026-05-01T07:22:53.256Z</time></trkpt><trkpt lat="39.6899248" lon="8.5348732"><ele>5.0</ele><time>2026-05-01T07:22:54.255Z</time></trkpt><trkpt lat="39.6900135" lon="8.5346618"><ele>5.0</ele><time>2026-05-01T07:22:55.255Z</time></trkpt><trkpt lat="39.6901173" lon="8.5344688"><ele>5.666666666666667</ele><time>2026-05-01T07:22:56.255Z</time></trkpt><trkpt lat="39.6902386" lon="8.534295"><ele>6.333333333333334</ele><time>2026-05-01T07:22:57.256Z</time></trkpt><trkpt lat="39.690375" lon="8.5341389"><ele>7.0</ele><time>2026-05-01T07:22:58.255Z</time></trkpt><trkpt lat="39.6905238" lon="8.5339972"><ele>7.0</ele><time>2026-05-01T07:22:59.255Z</time></trkpt><trkpt lat="39.6906764" lon="8.5338567"><ele>7.0</ele><time>2026-05-01T07:23:00.255Z</time></trkpt><trkpt lat="39.6908213" lon="8.5337228"><ele>7.0</ele><time>2026-05-01T07:23:01.256Z</time></trkpt><trkpt lat="39.6909616" lon="8.5335907"><ele>6.666666666666667</ele><time>2026-05-01T07:23:02.254Z</time></trkpt><trkpt lat="39.6910913" lon="8.5334523"><ele>6.333333333333334</ele><time>2026-05-01T07:23:03.255Z</time></trkpt><trkpt lat="39.6912099" lon="8.5332991"><ele>6.0</ele><time>2026-05-01T07:23:04.255Z</time></trkpt><trkpt lat="39.6913135" lon="8.5331291"><ele>6.0</ele><time>2026-05-01T07:23:05.255Z</time></trkpt><trkpt lat="39.6913984" lon="8.5329406"><ele>6.0</ele><time>2026-05-01T07:23:06.255Z</time></trkpt><trkpt lat="39.691463" lon="8.5327372"><ele>6.0</ele><time>2026-05-01T07:23:07.255Z</time></trkpt><trkpt lat="39.6915078" lon="8.5325216"><ele>6.0</ele><time>2026-05-01T07:23:08.256Z</time></trkpt><trkpt lat="39.6915376" lon="8.532301"><ele>6.0</ele><time>2026-05-01T07:23:09.255Z</time></trkpt><trkpt lat="39.691559" lon="8.532077"><ele>6.0</ele><time>2026-05-01T07:23:10.256Z</time></trkpt><trkpt lat="39.6915776" lon="8.5318475"><ele>6.0</ele><time>2026-05-01T07:23:11.254Z</time></trkpt><trkpt lat="39.6915919" lon="8.5316138"><ele>6.0</ele><time>2026-05-01T07:23:12.255Z</time></trkpt><trkpt lat="39.6916017" lon="8.5313751"><ele>6.0</ele><time>2026-05-01T07:23:13.256Z</time></trkpt><trkpt lat="39.6916089" lon="8.5311308"><ele>6.0</ele><time>2026-05-01T07:23:14.256Z</time></trkpt><trkpt lat="39.6916136" lon="8.5308776"><ele>6.0</ele><time>2026-05-01T07:23:15.255Z</time></trkpt><trkpt lat="39.6916155" lon="8.5306171"><ele>6.0</ele><time>2026-05-01T07:23:16.255Z</time></trkpt><trkpt lat="39.6916144" lon="8.5303499"><ele>6.0</ele><time>2026-05-01T07:23:17.255Z</time></trkpt><trkpt lat="39.6916128" lon="8.5300812"><ele>6.0</ele><time>2026-05-01T07:23:18.256Z</time></trkpt><trkpt lat="39.6916095" lon="8.5298105"><ele>6.0</ele><time>2026-05-01T07:23:19.255Z</time></trkpt><trkpt lat="39.6916055" lon="8.5295353"><ele>7.333333333333334</ele><time>2026-05-01T07:23:20.256Z</time></trkpt><trkpt lat="39.6916018" lon="8.5292556"><ele>8.666666666666668</ele><time>2026-05-01T07:23:21.256Z</time></trkpt><trkpt lat="39.6915985" lon="8.5289733"><ele>10.0</ele><time>2026-05-01T07:23:22.256Z</time></trkpt><trkpt lat="39.6915983" lon="8.5286868"><ele>10.0</ele><time>2026-05-01T07:23:23.255Z</time></trkpt><trkpt lat="39.6915997" lon="8.5283989"><ele>10.0</ele><time>2026-05-01T07:23:24.256Z</time></trkpt><trkpt lat="39.6916014" lon="8.5281108"><ele>10.0</ele><time>2026-05-01T07:23:25.255Z</time></trkpt><trkpt lat="39.6916006" lon="8.5278299"><ele>9.666666666666668</ele><time>2026-05-01T07:23:26.255Z</time></trkpt><trkpt lat="39.691599" lon="8.5275544"><ele>9.333333333333334</ele><time>2026-05-01T07:23:27.255Z</time></trkpt><trkpt lat="39.691596" lon="8.5272789"><ele>9.0</ele><time>2026-05-01T07:23:28.256Z</time></trkpt><trkpt lat="39.6915922" lon="8.5270097"><ele>8.333333333333334</ele><time>2026-05-01T07:23:29.255Z</time></trkpt><trkpt lat="39.6915898" lon="8.5267532"><ele>7.666666666666667</ele><time>2026-05-01T07:23:30.256Z</time></trkpt><trkpt lat="39.6915892" lon="8.5265117"><ele>7.0</ele><time>2026-05-01T07:23:31.254Z</time></trkpt><trkpt lat="39.6915888" lon="8.5262794"><ele>7.0</ele><time>2026-05-01T07:23:32.255Z</time></trkpt><trkpt lat="39.6915877" lon="8.5260515"><ele>7.0</ele><time>2026-05-01T07:23:33.254Z</time></trkpt><trkpt lat="39.6915856" lon="8.5258231"><ele>7.0</ele><time>2026-05-01T07:23:34.254Z</time></trkpt><trkpt lat="39.6915851" lon="8.5255928"><ele>7.0</ele><time>2026-05-01T07:23:35.256Z</time></trkpt><trkpt lat="39.6915838" lon="8.5253583"><ele>7.0</ele><time>2026-05-01T07:23:36.255Z</time></trkpt><trkpt lat="39.6915832" lon="8.5251195"><ele>7.0</ele><time>2026-05-01T07:23:37.256Z</time></trkpt><trkpt lat="39.6915827" lon="8.5248748"><ele>7.0</ele><time>2026-05-01T07:23:38.256Z</time></trkpt><trkpt lat="39.6915808" lon="8.5246246"><ele>7.0</ele><time>2026-05-01T07:23:39.255Z</time></trkpt><trkpt lat="39.6915811" lon="8.5243721"><ele>7.0</ele><time>2026-05-01T07:23:40.255Z</time></trkpt><trkpt lat="39.6915795" lon="8.5241213"><ele>8.0</ele><time>2026-05-01T07:23:41.255Z</time></trkpt><trkpt lat="39.6915778" lon="8.5238727"><ele>9.0</ele><time>2026-05-01T07:23:42.256Z</time></trkpt><trkpt lat="39.6915782" lon="8.5236224"><ele>10.0</ele><time>2026-05-01T07:23:43.255Z</time></trkpt><trkpt lat="39.6915761" lon="8.5233711"><ele>10.666666666666668</ele><time>2026-05-01T07:23:44.255Z</time></trkpt><trkpt lat="39.6915741" lon="8.5231165"><ele>11.333333333333334</ele><time>2026-05-01T07:23:45.255Z</time></trkpt><trkpt lat="39.6915723" lon="8.5228602"><ele>12.0</ele><time>2026-05-01T07:23:46.254Z</time></trkpt><trkpt lat="39.6915729" lon="8.5226012"><ele>11.333333333333334</ele><time>2026-05-01T07:23:47.254Z</time></trkpt><trkpt lat="39.691579" lon="8.5223432"><ele>10.666666666666668</ele><time>2026-05-01T07:23:48.255Z</time></trkpt><trkpt lat="39.6915951" lon="8.5220877"><ele>10.0</ele><time>2026-05-01T07:23:49.255Z</time></trkpt><trkpt lat="39.6916206" lon="8.5218321"><ele>10.0</ele><time>2026-05-01T07:23:50.256Z</time></trkpt><trkpt lat="39.6916593" lon="8.521578"><ele>10.0</ele><time>2026-05-01T07:23:51.254Z</time></trkpt><trkpt lat="39.6917123" lon="8.5213291"><ele>10.0</ele><time>2026-05-01T07:23:52.255Z</time></trkpt><trkpt lat="39.6917769" lon="8.5210833"><ele>7.0</ele><time>2026-05-01T07:23:53.254Z</time></trkpt><trkpt lat="39.6918493" lon="8.5208396"><ele>4.0</ele><time>2026-05-01T07:23:54.256Z</time></trkpt><trkpt lat="39.6919182" lon="8.5206056"><ele>1.0</ele><time>2026-05-01T07:23:55.255Z</time></trkpt><trkpt lat="39.6919822" lon="8.5203807"><ele>1.0</ele><time>2026-05-01T07:23:56.255Z</time></trkpt><trkpt lat="39.6920466" lon="8.5201553"><ele>1.0</ele><time>2026-05-01T07:23:57.255Z</time></trkpt><trkpt lat="39.6921105" lon="8.5199317"><ele>1.0</ele><time>2026-05-01T07:23:58.256Z</time></trkpt><trkpt lat="39.69217" lon="8.5197184"><ele>1.6666666666666665</ele><time>2026-05-01T07:23:59.255Z</time></trkpt><trkpt lat="39.692228" lon="8.5195118"><ele>2.3333333333333335</ele><time>2026-05-01T07:24:00.255Z</time></trkpt><trkpt lat="39.6922866" lon="8.5193169"><ele>3.0</ele><time>2026-05-01T07:24:01.256Z</time></trkpt><trkpt lat="39.6923431" lon="8.5191289"><ele>3.0</ele><time>2026-05-01T07:24:02.255Z</time></trkpt><trkpt lat="39.6923974" lon="8.5189408"><ele>3.0</ele><time>2026-05-01T07:24:03.255Z</time></trkpt><trkpt lat="39.6924511" lon="8.5187483"><ele>3.0</ele><time>2026-05-01T07:24:04.254Z</time></trkpt><trkpt lat="39.6925072" lon="8.5185481"><ele>3.333333333333333</ele><time>2026-05-01T07:24:05.255Z</time></trkpt><trkpt lat="39.6925643" lon="8.5183438"><ele>3.6666666666666665</ele><time>2026-05-01T07:24:06.255Z</time></trkpt><trkpt lat="39.6926224" lon="8.5181407"><ele>4.0</ele><time>2026-05-01T07:24:07.255Z</time></trkpt><trkpt lat="39.6926833" lon="8.517932"><ele>3.333333333333333</ele><time>2026-05-01T07:24:08.255Z</time></trkpt><trkpt lat="39.6927466" lon="8.517716"><ele>2.6666666666666665</ele><time>2026-05-01T07:24:09.255Z</time></trkpt><trkpt lat="39.6928109" lon="8.5174958"><ele>2.0</ele><time>2026-05-01T07:24:10.255Z</time></trkpt><trkpt lat="39.692878" lon="8.517283"><ele>2.0</ele><time>2026-05-01T07:24:11.254Z</time></trkpt><trkpt lat="39.6929559" lon="8.5170801"><ele>2.0</ele><time>2026-05-01T07:24:12.255Z</time></trkpt><trkpt lat="39.6930485" lon="8.5168922"><ele>2.0</ele><time>2026-05-01T07:24:13.255Z</time></trkpt><trkpt lat="39.6931583" lon="8.5167206"><ele>2.6666666666666665</ele><time>2026-05-01T07:24:14.256Z</time></trkpt><trkpt lat="39.6932856" lon="8.5165615"><ele>3.333333333333333</ele><time>2026-05-01T07:24:15.256Z</time></trkpt><trkpt lat="39.6934232" lon="8.5164114"><ele>4.0</ele><time>2026-05-01T07:24:16.254Z</time></trkpt><trkpt lat="39.6935705" lon="8.5162577"><ele>3.6666666666666665</ele><time>2026-05-01T07:24:17.254Z</time></trkpt><trkpt lat="39.6937211" lon="8.5160981"><ele>3.333333333333333</ele><time>2026-05-01T07:24:18.255Z</time></trkpt><trkpt lat="39.6938765" lon="8.5159366"><ele>3.0</ele><time>2026-05-01T07:24:19.256Z</time></trkpt><trkpt lat="39.6940346" lon="8.5157748"><ele>3.0</ele><time>2026-05-01T07:24:20.255Z</time></trkpt><trkpt lat="39.6941963" lon="8.515608"><ele>3.0</ele><time>2026-05-01T07:24:21.255Z</time></trkpt><trkpt lat="39.6943581" lon="8.5154381"><ele>3.0</ele><time>2026-05-01T07:24:22.254Z</time></trkpt><trkpt lat="39.6945193" lon="8.5152715"><ele>4.0</ele><time>2026-05-01T07:24:23.255Z</time></trkpt><trkpt lat="39.6946725" lon="8.5151154"><ele>5.0</ele><time>2026-05-01T07:24:24.255Z</time></trkpt><trkpt lat="39.6948246" lon="8.5149588"><ele>6.0</ele><time>2026-05-01T07:24:25.255Z</time></trkpt><trkpt lat="39.6949749" lon="8.5148044"><ele>6.0</ele><time>2026-05-01T07:24:26.255Z</time></trkpt><trkpt lat="39.6951246" lon="8.5146496"><ele>6.0</ele><time>2026-05-01T07:24:27.256Z</time></trkpt><trkpt lat="39.6952728" lon="8.5144978"><ele>6.0</ele><time>2026-05-01T07:24:28.255Z</time></trkpt><trkpt lat="39.6954146" lon="8.5143489"><ele>5.333333333333333</ele><time>2026-05-01T07:24:29.255Z</time></trkpt><trkpt lat="39.6955563" lon="8.5142003"><ele>4.666666666666666</ele><time>2026-05-01T07:24:30.256Z</time></trkpt><trkpt lat="39.6956965" lon="8.5140528"><ele>4.0</ele><time>2026-05-01T07:24:31.256Z</time></trkpt><trkpt lat="39.6958374" lon="8.5139042"><ele>4.0</ele><time>2026-05-01T07:24:32.255Z</time></trkpt><trkpt lat="39.6959789" lon="8.5137566"><ele>4.0</ele><time>2026-05-01T07:24:33.256Z</time></trkpt><trkpt lat="39.6961216" lon="8.5136106"><ele>4.0</ele><time>2026-05-01T07:24:34.255Z</time></trkpt><trkpt lat="39.696265" lon="8.5134651"><ele>5.0</ele><time>2026-05-01T07:24:35.255Z</time></trkpt><trkpt lat="39.6964108" lon="8.5133197"><ele>6.0</ele><time>2026-05-01T07:24:36.255Z</time></trkpt><trkpt lat="39.6965644" lon="8.5131853"><ele>7.0</ele><time>2026-05-01T07:24:37.255Z</time></trkpt><trkpt lat="39.6967277" lon="8.5130608"><ele>7.0</ele><time>2026-05-01T07:24:38.255Z</time></trkpt><trkpt lat="39.6969011" lon="8.5129482"><ele>7.0</ele><time>2026-05-01T07:24:39.255Z</time></trkpt><trkpt lat="39.697081" lon="8.5128442"><ele>7.0</ele><time>2026-05-01T07:24:40.256Z</time></trkpt><trkpt lat="39.6972693" lon="8.512744"><ele>7.0</ele><time>2026-05-01T07:24:41.255Z</time></trkpt><trkpt lat="39.6974631" lon="8.5126454"><ele>7.0</ele><time>2026-05-01T07:24:42.255Z</time></trkpt><trkpt lat="39.6976615" lon="8.5125447"><ele>7.0</ele><time>2026-05-01T07:24:43.256Z</time></trkpt><trkpt lat="39.6978634" lon="8.5124408"><ele>7.333333333333334</ele><time>2026-05-01T07:24:44.256Z</time></trkpt><trkpt lat="39.6980695" lon="8.5123334"><ele>7.666666666666666</ele><time>2026-05-01T07:24:45.254Z</time></trkpt><trkpt lat="39.6982785" lon="8.5122254"><ele>8.0</ele><time>2026-05-01T07:24:46.256Z</time></trkpt><trkpt lat="39.6984877" lon="8.5121182"><ele>10.0</ele><time>2026-05-01T07:24:47.255Z</time></trkpt><trkpt lat="39.6986973" lon="8.51201"><ele>12.0</ele><time>2026-05-01T07:24:48.256Z</time></trkpt><trkpt lat="39.6989087" lon="8.5118998"><ele>12.0</ele><time>2026-05-01T07:24:49.256Z</time></trkpt><trkpt lat="39.6991123" lon="8.5117953"><ele>12.0</ele><time>2026-05-01T07:24:50.256Z</time></trkpt><trkpt lat="39.6993073" lon="8.5116963"><ele>12.0</ele><time>2026-05-01T07:24:51.255Z</time></trkpt><trkpt lat="39.6994993" lon="8.5115989"><ele>11.666666666666666</ele><time>2026-05-01T07:24:52.255Z</time></trkpt><trkpt lat="39.6996934" lon="8.5114999"><ele>11.333333333333332</ele><time>2026-05-01T07:24:53.254Z</time></trkpt><trkpt lat="39.6998823" lon="8.5113945"><ele>11.0</ele><time>2026-05-01T07:24:54.256Z</time></trkpt><trkpt lat="39.7000603" lon="8.5112844"><ele>11.666666666666666</ele><time>2026-05-01T07:24:55.255Z</time></trkpt><trkpt lat="39.7002261" lon="8.5111556"><ele>12.333333333333332</ele><time>2026-05-01T07:24:56.255Z</time></trkpt><trkpt lat="39.7003803" lon="8.5110023"><ele>13.0</ele><time>2026-05-01T07:24:57.255Z</time></trkpt><trkpt lat="39.7005175" lon="8.5108223"><ele>11.333333333333332</ele><time>2026-05-01T07:24:58.256Z</time></trkpt><trkpt lat="39.7006376" lon="8.5106198"><ele>9.666666666666666</ele><time>2026-05-01T07:24:59.254Z</time></trkpt><trkpt lat="39.7007497" lon="8.510403"><ele>8.0</ele><time>2026-05-01T07:25:00.256Z</time></trkpt><trkpt lat="39.7008644" lon="8.5101766"><ele>7.666666666666666</ele><time>2026-05-01T07:25:01.256Z</time></trkpt><trkpt lat="39.7009775" lon="8.5099438"><ele>7.333333333333334</ele><time>2026-05-01T07:25:02.255Z</time></trkpt><trkpt lat="39.7010944" lon="8.5097074"><ele>7.0</ele><time>2026-05-01T07:25:03.255Z</time></trkpt><trkpt lat="39.7012103" lon="8.5094674"><ele>7.666666666666667</ele><time>2026-05-01T07:25:04.255Z</time></trkpt><trkpt lat="39.7013278" lon="8.5092311"><ele>8.333333333333334</ele><time>2026-05-01T07:25:05.256Z</time></trkpt><trkpt lat="39.701438" lon="8.5090056"><ele>9.0</ele><time>2026-05-01T07:25:06.256Z</time></trkpt><trkpt lat="39.7015463" lon="8.5087842"><ele>10.0</ele><time>2026-05-01T07:25:07.255Z</time></trkpt><trkpt lat="39.7016539" lon="8.5085627"><ele>11.0</ele><time>2026-05-01T07:25:08.255Z</time></trkpt><trkpt lat="39.7017613" lon="8.508345"><ele>12.0</ele><time>2026-05-01T07:25:09.255Z</time></trkpt><trkpt lat="39.7018666" lon="8.5081281"><ele>12.0</ele><time>2026-05-01T07:25:10.254Z</time></trkpt><trkpt lat="39.7019687" lon="8.50792"><ele>12.0</ele><time>2026-05-01T07:25:11.254Z</time></trkpt><trkpt lat="39.702064" lon="8.5077218"><ele>12.0</ele><time>2026-05-01T07:25:12.255Z</time></trkpt><trkpt lat="39.7021592" lon="8.5075267"><ele>12.0</ele><time>2026-05-01T07:25:13.256Z</time></trkpt><trkpt lat="39.7022561" lon="8.5073271"><ele>12.0</ele><time>2026-05-01T07:25:14.256Z</time></trkpt><trkpt lat="39.7023568" lon="8.5071201"><ele>12.0</ele><time>2026-05-01T07:25:15.255Z</time></trkpt><trkpt lat="39.7024624" lon="8.5069046"><ele>12.0</ele><time>2026-05-01T07:25:16.255Z</time></trkpt><trkpt lat="39.7025713" lon="8.5066809"><ele>12.0</ele><time>2026-05-01T07:25:17.255Z</time></trkpt><trkpt lat="39.7026849" lon="8.5064468"><ele>12.0</ele><time>2026-05-01T07:25:18.255Z</time></trkpt><trkpt lat="39.7027999" lon="8.5062119"><ele>10.666666666666666</ele><time>2026-05-01T07:25:19.255Z</time></trkpt><trkpt lat="39.7029147" lon="8.5059745"><ele>9.333333333333332</ele><time>2026-05-01T07:25:20.255Z</time></trkpt><trkpt lat="39.7030301" lon="8.5057392"><ele>8.0</ele><time>2026-05-01T07:25:21.256Z</time></trkpt><trkpt lat="39.7031412" lon="8.5055111"><ele>8.0</ele><time>2026-05-01T07:25:22.255Z</time></trkpt><trkpt lat="39.7032512" lon="8.5052845"><ele>8.0</ele><time>2026-05-01T07:25:23.255Z</time></trkpt><trkpt lat="39.7033582" lon="8.5050581"><ele>8.0</ele><time>2026-05-01T07:25:24.255Z</time></trkpt><trkpt lat="39.703469" lon="8.5048288"><ele>7.666666666666666</ele><time>2026-05-01T07:25:25.255Z</time></trkpt><trkpt lat="39.7035812" lon="8.5046004"><ele>7.333333333333334</ele><time>2026-05-01T07:25:26.256Z</time></trkpt><trkpt lat="39.7036957" lon="8.5043711"><ele>7.0</ele><time>2026-05-01T07:25:27.255Z</time></trkpt><trkpt lat="39.703809" lon="8.5041432"><ele>8.0</ele><time>2026-05-01T07:25:28.256Z</time></trkpt><trkpt lat="39.7039151" lon="8.5039274"><ele>9.0</ele><time>2026-05-01T07:25:29.255Z</time></trkpt><trkpt lat="39.7040148" lon="8.5037221"><ele>10.0</ele><time>2026-05-01T07:25:30.256Z</time></trkpt><trkpt lat="39.704111" lon="8.5035247"><ele>10.666666666666668</ele><time>2026-05-01T07:25:31.255Z</time></trkpt><trkpt lat="39.7042083" lon="8.5033259"><ele>11.333333333333334</ele><time>2026-05-01T07:25:32.255Z</time></trkpt><trkpt lat="39.704306" lon="8.5031281"><ele>12.0</ele><time>2026-05-01T07:25:33.255Z</time></trkpt><trkpt lat="39.7044028" lon="8.5029322"><ele>12.333333333333332</ele><time>2026-05-01T07:25:34.255Z</time></trkpt><trkpt lat="39.7044971" lon="8.5027412"><ele>12.666666666666666</ele><time>2026-05-01T07:25:35.256Z</time></trkpt><trkpt lat="39.7045878" lon="8.5025666"><ele>13.0</ele><time>2026-05-01T07:25:36.255Z</time></trkpt><trkpt lat="39.7046839" lon="8.5024062"><ele>13.0</ele><time>2026-05-01T07:25:37.256Z</time></trkpt><trkpt lat="39.7047898" lon="8.5022583"><ele>13.0</ele><time>2026-05-01T07:25:38.256Z</time></trkpt><trkpt lat="39.7049097" lon="8.5021282"><ele>13.0</ele><time>2026-05-01T07:25:39.255Z</time></trkpt><trkpt lat="39.7050429" lon="8.502018"><ele>15.0</ele><time>2026-05-01T07:25:40.255Z</time></trkpt><trkpt lat="39.7051898" lon="8.5019304"><ele>17.0</ele><time>2026-05-01T07:25:41.256Z</time></trkpt><trkpt lat="39.7053459" lon="8.5018704"><ele>19.0</ele><time>2026-05-01T07:25:42.255Z</time></trkpt><trkpt lat="39.7055039" lon="8.5018209"><ele>19.0</ele><time>2026-05-01T07:25:43.255Z</time></trkpt><trkpt lat="39.705666" lon="8.5017763"><ele>19.0</ele><time>2026-05-01T07:25:44.256Z</time></trkpt><trkpt lat="39.705823" lon="8.5017349"><ele>19.0</ele><time>2026-05-01T07:25:45.255Z</time></trkpt><trkpt lat="39.7059754" lon="8.5016848"><ele>16.666666666666664</ele><time>2026-05-01T07:25:46.255Z</time></trkpt><trkpt lat="39.7061215" lon="8.5016102"><ele>14.333333333333332</ele><time>2026-05-01T07:25:47.255Z</time></trkpt><trkpt lat="39.7062611" lon="8.5015052"><ele>12.0</ele><time>2026-05-01T07:25:48.256Z</time></trkpt><trkpt lat="39.7063892" lon="8.5013711"><ele>13.333333333333332</ele><time>2026-05-01T07:25:49.256Z</time></trkpt><trkpt lat="39.7065001" lon="8.5012057"><ele>14.666666666666666</ele><time>2026-05-01T07:25:50.256Z</time></trkpt><trkpt lat="39.7065921" lon="8.5010142"><ele>16.0</ele><time>2026-05-01T07:25:51.255Z</time></trkpt><trkpt lat="39.7066616" lon="8.5008149"><ele>16.0</ele><time>2026-05-01T07:25:52.256Z</time></trkpt><trkpt lat="39.7067239" lon="8.500618"><ele>16.0</ele><time>2026-05-01T07:25:53.256Z</time></trkpt><trkpt lat="39.7068074" lon="8.5004376"><ele>16.0</ele><time>2026-05-01T07:25:54.255Z</time></trkpt><trkpt lat="39.7069168" lon="8.5002686"><ele>13.333333333333332</ele><time>2026-05-01T07:25:55.255Z</time></trkpt><trkpt lat="39.7070448" lon="8.5001202"><ele>10.666666666666666</ele><time>2026-05-01T07:25:56.255Z</time></trkpt><trkpt lat="39.7071951" lon="8.5000037"><ele>8.0</ele><time>2026-05-01T07:25:57.255Z</time></trkpt><trkpt lat="39.707362" lon="8.4999187"><ele>8.0</ele><time>2026-05-01T07:25:58.254Z</time></trkpt><trkpt lat="39.7075401" lon="8.4998654"><ele>8.0</ele><time>2026-05-01T07:25:59.255Z</time></trkpt><trkpt lat="39.7077265" lon="8.4998322"><ele>8.0</ele><time>2026-05-01T07:26:00.255Z</time></trkpt><trkpt lat="39.7079065" lon="8.4997998"><ele>6.666666666666666</ele><time>2026-05-01T07:26:01.256Z</time></trkpt><trkpt lat="39.7080763" lon="8.4997595"><ele>5.333333333333333</ele><time>2026-05-01T07:26:02.254Z</time></trkpt><trkpt lat="39.7082404" lon="8.4997093"><ele>4.0</ele><time>2026-05-01T07:26:03.255Z</time></trkpt><trkpt lat="39.7083971" lon="8.4996497"><ele>4.666666666666666</ele><time>2026-05-01T07:26:04.256Z</time></trkpt><trkpt lat="39.7085497" lon="8.4995738"><ele>5.333333333333333</ele><time>2026-05-01T07:26:05.256Z</time></trkpt><trkpt lat="39.7086946" lon="8.499477"><ele>6.0</ele><time>2026-05-01T07:26:06.255Z</time></trkpt><trkpt lat="39.708835" lon="8.4993708"><ele>6.25</ele><time>2026-05-01T07:26:07.255Z</time></trkpt><trkpt lat="39.7089708" lon="8.4992687"><ele>6.5</ele><time>2026-05-01T07:26:08.254Z</time></trkpt><trkpt lat="39.7090956" lon="8.4991678"><ele>6.75</ele><time>2026-05-01T07:26:09.256Z</time></trkpt><trkpt lat="39.7091981" lon="8.499083"><ele>7.0</ele><time>2026-05-01T07:26:10.256Z</time></trkpt><trkpt lat="39.70928" lon="8.4990165"><ele>7.000000000000001</ele><time>2026-05-01T07:26:11.255Z</time></trkpt><trkpt lat="39.7093496" lon="8.498959"><ele>7.0</ele><time>2026-05-01T07:26:12.256Z</time></trkpt><trkpt lat="39.7094136" lon="8.4989054"><ele>7.0</ele><time>2026-05-01T07:26:13.255Z</time></trkpt><trkpt lat="39.7094751" lon="8.4988557"><ele>7.0</ele><time>2026-05-01T07:26:14.255Z</time></trkpt><trkpt lat="39.7095393" lon="8.4988051"><ele>7.000000000000001</ele><time>2026-05-01T07:26:15.254Z</time></trkpt><trkpt lat="39.7096071" lon="8.4987474"><ele>7.0</ele><time>2026-05-01T07:26:16.255Z</time></trkpt><trkpt lat="39.7096861" lon="8.4986803"><ele>7.75</ele><time>2026-05-01T07:26:17.256Z</time></trkpt><trkpt lat="39.7097758" lon="8.4986043"><ele>8.5</ele><time>2026-05-01T07:26:18.255Z</time></trkpt><trkpt lat="39.7098741" lon="8.4985178"><ele>9.25</ele><time>2026-05-01T07:26:19.255Z</time></trkpt><trkpt lat="39.7099836" lon="8.4984266"><ele>10.0</ele><time>2026-05-01T07:26:20.256Z</time></trkpt><trkpt lat="39.7101036" lon="8.498328"><ele>10.0</ele><time>2026-05-01T07:26:21.256Z</time></trkpt><trkpt lat="39.7102346" lon="8.4982232"><ele>10.0</ele><time>2026-05-01T07:26:22.256Z</time></trkpt><trkpt lat="39.7103745" lon="8.4981091"><ele>10.0</ele><time>2026-05-01T07:26:23.255Z</time></trkpt><trkpt lat="39.7105205" lon="8.4979871"><ele>10.333333333333334</ele><time>2026-05-01T07:26:24.255Z</time></trkpt><trkpt lat="39.7106733" lon="8.497858"><ele>10.666666666666666</ele><time>2026-05-01T07:26:25.256Z</time></trkpt><trkpt lat="39.7108339" lon="8.4977237"><ele>11.0</ele><time>2026-05-01T07:26:26.256Z</time></trkpt><trkpt lat="39.7109966" lon="8.4975874"><ele>9.333333333333332</ele><time>2026-05-01T07:26:27.256Z</time></trkpt><trkpt lat="39.7111584" lon="8.4974528"><ele>7.666666666666666</ele><time>2026-05-01T07:26:28.255Z</time></trkpt><trkpt lat="39.7113222" lon="8.4973191"><ele>6.0</ele><time>2026-05-01T07:26:29.256Z</time></trkpt><trkpt lat="39.7114856" lon="8.4971831"><ele>6.333333333333334</ele><time>2026-05-01T07:26:30.256Z</time></trkpt><trkpt lat="39.7116512" lon="8.4970481"><ele>6.666666666666667</ele><time>2026-05-01T07:26:31.255Z</time></trkpt><trkpt lat="39.7118194" lon="8.4969107"><ele>7.0</ele><time>2026-05-01T07:26:32.256Z</time></trkpt><trkpt lat="39.7119859" lon="8.4967755"><ele>6.0</ele><time>2026-05-01T07:26:33.256Z</time></trkpt><trkpt lat="39.7121477" lon="8.4966391"><ele>5.0</ele><time>2026-05-01T07:26:34.256Z</time></trkpt><trkpt lat="39.7123031" lon="8.4964964"><ele>4.0</ele><time>2026-05-01T07:26:35.255Z</time></trkpt><trkpt lat="39.7124441" lon="8.4963483"><ele>4.0</ele><time>2026-05-01T07:26:36.255Z</time></trkpt><trkpt lat="39.7125734" lon="8.4961874"><ele>4.0</ele><time>2026-05-01T07:26:37.256Z</time></trkpt><trkpt lat="39.7126931" lon="8.4960142"><ele>4.0</ele><time>2026-05-01T07:26:38.255Z</time></trkpt><trkpt lat="39.7127971" lon="8.4958295"><ele>3.333333333333333</ele><time>2026-05-01T07:26:39.255Z</time></trkpt><trkpt lat="39.7128877" lon="8.4956302"><ele>2.6666666666666665</ele><time>2026-05-01T07:26:40.255Z</time></trkpt><trkpt lat="39.7129707" lon="8.4954223"><ele>2.0</ele><time>2026-05-01T07:26:41.255Z</time></trkpt><trkpt lat="39.7130544" lon="8.4952083"><ele>1.6666666666666665</ele><time>2026-05-01T07:26:42.256Z</time></trkpt><trkpt lat="39.713142" lon="8.4949838"><ele>1.3333333333333333</ele><time>2026-05-01T07:26:43.255Z</time></trkpt><trkpt lat="39.7132271" lon="8.4947622"><ele>1.0</ele><time>2026-05-01T07:26:44.254Z</time></trkpt><trkpt lat="39.7133101" lon="8.4945461"><ele>2.3333333333333335</ele><time>2026-05-01T07:26:45.255Z</time></trkpt><trkpt lat="39.7133962" lon="8.4943316"><ele>3.666666666666667</ele><time>2026-05-01T07:26:46.255Z</time></trkpt><trkpt lat="39.7134816" lon="8.4941173"><ele>5.0</ele><time>2026-05-01T07:26:47.255Z</time></trkpt><trkpt lat="39.7135672" lon="8.4938945"><ele>4.0</ele><time>2026-05-01T07:26:48.254Z</time></trkpt><trkpt lat="39.713652" lon="8.4936661"><ele>3.0</ele><time>2026-05-01T07:26:49.256Z</time></trkpt><trkpt lat="39.7137431" lon="8.4934369"><ele>2.0</ele><time>2026-05-01T07:26:50.255Z</time></trkpt><trkpt lat="39.7138377" lon="8.4932136"><ele>2.0</ele><time>2026-05-01T07:26:51.256Z</time></trkpt><trkpt lat="39.713933" lon="8.4929985"><ele>2.0</ele><time>2026-05-01T07:26:52.254Z</time></trkpt><trkpt lat="39.7140321" lon="8.4927884"><ele>2.0</ele><time>2026-05-01T07:26:53.256Z</time></trkpt><trkpt lat="39.7141298" lon="8.4925949"><ele>3.666666666666667</ele><time>2026-05-01T07:26:54.256Z</time></trkpt><trkpt lat="39.7142248" lon="8.4924126"><ele>5.333333333333334</ele><time>2026-05-01T07:26:55.256Z</time></trkpt><trkpt lat="39.7143117" lon="8.492242"><ele>7.0</ele><time>2026-05-01T07:26:56.254Z</time></trkpt><trkpt lat="39.7143912" lon="8.4920882"><ele>5.25</ele><time>2026-05-01T07:26:57.255Z</time></trkpt><trkpt lat="39.7144666" lon="8.4919448"><ele>3.5</ele><time>2026-05-01T07:26:58.256Z</time></trkpt><trkpt lat="39.7145308" lon="8.4918104"><ele>1.75</ele><time>2026-05-01T07:26:59.256Z</time></trkpt><trkpt lat="39.7145865" lon="8.4916793"><ele>0.0</ele><time>2026-05-01T07:27:00.254Z</time></trkpt><trkpt lat="39.7146334" lon="8.4915532"><ele>0.0</ele><time>2026-05-01T07:27:01.256Z</time></trkpt><trkpt lat="39.7146729" lon="8.4914306"><ele>0.0</ele><time>2026-05-01T07:27:02.255Z</time></trkpt><trkpt lat="39.7147104" lon="8.491303"><ele>0.0</ele><time>2026-05-01T07:27:03.255Z</time></trkpt><trkpt lat="39.7147486" lon="8.4911625"><ele>0.0</ele><time>2026-05-01T07:27:04.254Z</time></trkpt><trkpt lat="39.714785" lon="8.4910083"><ele>0.0</ele><time>2026-05-01T07:27:05.255Z</time></trkpt><trkpt lat="39.7148171" lon="8.4908452"><ele>0.25</ele><time>2026-05-01T07:27:06.256Z</time></trkpt><trkpt lat="39.7148499" lon="8.4906757"><ele>0.5</ele><time>2026-05-01T07:27:07.254Z</time></trkpt><trkpt lat="39.7148821" lon="8.4904952"><ele>0.75</ele><time>2026-05-01T07:27:08.255Z</time></trkpt><trkpt lat="39.7149196" lon="8.4903061"><ele>1.0</ele><time>2026-05-01T07:27:09.256Z</time></trkpt><trkpt lat="39.7149586" lon="8.4901046"><ele>1.3333333333333333</ele><time>2026-05-01T07:27:10.255Z</time></trkpt><trkpt lat="39.7149986" lon="8.4898942"><ele>1.6666666666666665</ele><time>2026-05-01T07:27:11.254Z</time></trkpt><trkpt lat="39.7150399" lon="8.4896717"><ele>2.0</ele><time>2026-05-01T07:27:12.255Z</time></trkpt><trkpt lat="39.7150775" lon="8.4894566"><ele>2.333333333333333</ele><time>2026-05-01T07:27:13.256Z</time></trkpt><trkpt lat="39.7151049" lon="8.4892498"><ele>2.6666666666666665</ele><time>2026-05-01T07:27:14.255Z</time></trkpt><trkpt lat="39.7151127" lon="8.4890471"><ele>3.0</ele><time>2026-05-01T07:27:15.255Z</time></trkpt><trkpt lat="39.7150984" lon="8.488845"><ele>2.3333333333333335</ele><time>2026-05-01T07:27:16.256Z</time></trkpt><trkpt lat="39.7150605" lon="8.4886406"><ele>1.6666666666666665</ele><time>2026-05-01T07:27:17.256Z</time></trkpt><trkpt lat="39.7150004" lon="8.4884429"><ele>1.0</ele><time>2026-05-01T07:27:18.256Z</time></trkpt><trkpt lat="39.7149242" lon="8.4882558"><ele>1.0</ele><time>2026-05-01T07:27:19.254Z</time></trkpt><trkpt lat="39.714837" lon="8.4880834"><ele>1.0</ele><time>2026-05-01T07:27:20.256Z</time></trkpt><trkpt lat="39.714747" lon="8.487927"><ele>1.0</ele><time>2026-05-01T07:27:21.256Z</time></trkpt><trkpt lat="39.7146575" lon="8.487788"><ele>1.0</ele><time>2026-05-01T07:27:22.254Z</time></trkpt><trkpt lat="39.7145757" lon="8.4876677"><ele>1.0</ele><time>2026-05-01T07:27:23.254Z</time></trkpt><trkpt lat="39.7144998" lon="8.4875568"><ele>1.0</ele><time>2026-05-01T07:27:24.255Z</time></trkpt><trkpt lat="39.7144331" lon="8.4874493"><ele>1.0</ele><time>2026-05-01T07:27:25.255Z</time></trkpt><trkpt lat="39.7143721" lon="8.4873526"><ele>1.0</ele><time>2026-05-01T07:27:26.255Z</time></trkpt><trkpt lat="39.7143105" lon="8.4872632"><ele>1.0</ele><time>2026-05-01T07:27:27.255Z</time></trkpt><trkpt lat="39.7142523" lon="8.4871698"><ele>1.5</ele><time>2026-05-01T07:27:28.255Z</time></trkpt><trkpt lat="39.7141914" lon="8.4870795"><ele>2.0</ele><time>2026-05-01T07:27:29.256Z</time></trkpt><trkpt lat="39.7141278" lon="8.4869861"><ele>2.5</ele><time>2026-05-01T07:27:30.255Z</time></trkpt><trkpt lat="39.7140697" lon="8.4869017"><ele>3.0</ele><time>2026-05-01T07:27:31.255Z</time></trkpt><trkpt lat="39.7140194" lon="8.4868199"><ele>3.4999999999999996</ele><time>2026-05-01T07:27:32.256Z</time></trkpt><trkpt lat="39.7139695" lon="8.4867476"><ele>4.0</ele><time>2026-05-01T07:27:33.256Z</time></trkpt><trkpt lat="39.7139181" lon="8.4866757"><ele>3.9999999999999996</ele><time>2026-05-01T07:27:34.254Z</time></trkpt><trkpt lat="39.7138668" lon="8.4866027"><ele>4.0</ele><time>2026-05-01T07:27:35.255Z</time></trkpt><trkpt lat="39.713813" lon="8.4865302"><ele>4.0</ele><time>2026-05-01T07:27:36.256Z</time></trkpt><trkpt lat="39.7137519" lon="8.4864493"><ele>4.0</ele><time>2026-05-01T07:27:37.256Z</time></trkpt><trkpt lat="39.7136749" lon="8.4863721"><ele>3.9999999999999996</ele><time>2026-05-01T07:27:38.256Z</time></trkpt><trkpt lat="39.713592" lon="8.486307"><ele>4.0</ele><time>2026-05-01T07:27:39.255Z</time></trkpt><trkpt lat="39.7135035" lon="8.4862413"><ele>5.2</ele><time>2026-05-01T07:27:40.256Z</time></trkpt><trkpt lat="39.7134115" lon="8.486174"><ele>6.4</ele><time>2026-05-01T07:27:41.255Z</time></trkpt><trkpt lat="39.7133183" lon="8.4861034"><ele>7.6</ele><time>2026-05-01T07:27:42.254Z</time></trkpt><trkpt lat="39.7132215" lon="8.4860279"><ele>8.8</ele><time>2026-05-01T07:27:43.256Z</time></trkpt><trkpt lat="39.7131239" lon="8.4859452"><ele>10.0</ele><time>2026-05-01T07:27:44.255Z</time></trkpt><trkpt lat="39.7130238" lon="8.4858588"><ele>10.0</ele><time>2026-05-01T07:27:45.255Z</time></trkpt><trkpt lat="39.7129252" lon="8.4857734"><ele>10.0</ele><time>2026-05-01T07:27:46.255Z</time></trkpt><trkpt lat="39.7128367" lon="8.4856977"><ele>10.0</ele><time>2026-05-01T07:27:47.256Z</time></trkpt><trkpt lat="39.7127526" lon="8.4856257"><ele>10.0</ele><time>2026-05-01T07:27:48.255Z</time></trkpt><trkpt lat="39.7126715" lon="8.4855548"><ele>10.0</ele><time>2026-05-01T07:27:49.256Z</time></trkpt><trkpt lat="39.7125916" lon="8.4854884"><ele>10.0</ele><time>2026-05-01T07:27:50.256Z</time></trkpt><trkpt lat="39.7125237" lon="8.4854297"><ele>10.0</ele><time>2026-05-01T07:27:51.255Z</time></trkpt><trkpt lat="39.7124473" lon="8.4853647"><ele>10.0</ele><time>2026-05-01T07:27:52.255Z</time></trkpt><trkpt lat="39.7123653" lon="8.4852948"><ele>10.0</ele><time>2026-05-01T07:27:53.256Z</time></trkpt><trkpt lat="39.7122704" lon="8.4852145"><ele>10.0</ele><time>2026-05-01T07:27:54.255Z</time></trkpt><trkpt lat="39.7121668" lon="8.4851268"><ele>11.5</ele><time>2026-05-01T07:27:55.255Z</time></trkpt><trkpt lat="39.7120565" lon="8.4850325"><ele>13.0</ele><time>2026-05-01T07:27:56.256Z</time></trkpt><trkpt lat="39.7119568" lon="8.4849455"><ele>14.5</ele><time>2026-05-01T07:27:57.255Z</time></trkpt><trkpt lat="39.7118696" lon="8.4848645"><ele>16.0</ele><time>2026-05-01T07:27:58.256Z</time></trkpt><trkpt lat="39.7118127" lon="8.4847674"><ele>16.400000000000002</ele><time>2026-05-01T07:27:59.255Z</time></trkpt><trkpt lat="39.7117848" lon="8.4846677"><ele>16.8</ele><time>2026-05-01T07:28:00.255Z</time></trkpt><trkpt lat="39.7117835" lon="8.4845619"><ele>17.200000000000003</ele><time>2026-05-01T07:28:01.255Z</time></trkpt><trkpt lat="39.7117999" lon="8.4844452"><ele>17.6</ele><time>2026-05-01T07:28:02.254Z</time></trkpt><trkpt lat="39.7118368" lon="8.484316"><ele>18.0</ele><time>2026-05-01T07:28:03.256Z</time></trkpt><trkpt lat="39.7118628" lon="8.4841749"><ele>18.0</ele><time>2026-05-01T07:28:04.255Z</time></trkpt><trkpt lat="39.7118661" lon="8.4840346"><ele>18.0</ele><time>2026-05-01T07:28:05.255Z</time></trkpt><trkpt lat="39.7118377" lon="8.483891"><ele>18.0</ele><time>2026-05-01T07:28:06.256Z</time></trkpt><trkpt lat="39.7117813" lon="8.4837454"><ele>18.0</ele><time>2026-05-01T07:28:07.255Z</time></trkpt><trkpt lat="39.711704" lon="8.483585"><ele>17.333333333333332</ele><time>2026-05-01T07:28:08.255Z</time></trkpt><trkpt lat="39.7116169" lon="8.4834203"><ele>16.666666666666664</ele><time>2026-05-01T07:28:09.254Z</time></trkpt><trkpt lat="39.7115217" lon="8.4832465"><ele>16.0</ele><time>2026-05-01T07:28:10.255Z</time></trkpt><trkpt lat="39.7114268" lon="8.4830681"><ele>15.0</ele><time>2026-05-01T07:28:11.255Z</time></trkpt><trkpt lat="39.7113385" lon="8.4828884"><ele>14.0</ele><time>2026-05-01T07:28:12.254Z</time></trkpt><trkpt lat="39.7112621" lon="8.4827195"><ele>13.0</ele><time>2026-05-01T07:28:13.255Z</time></trkpt><trkpt lat="39.7111942" lon="8.482564"><ele>13.0</ele><time>2026-05-01T07:28:14.255Z</time></trkpt><trkpt lat="39.7111254" lon="8.482427"><ele>13.0</ele><time>2026-05-01T07:28:15.254Z</time></trkpt><trkpt lat="39.7110432" lon="8.4823171"><ele>13.0</ele><time>2026-05-01T07:28:16.255Z</time></trkpt><trkpt lat="39.7109524" lon="8.4822344"><ele>13.0</ele><time>2026-05-01T07:28:17.256Z</time></trkpt><trkpt lat="39.7108496" lon="8.4821698"><ele>14.0</ele><time>2026-05-01T07:28:18.256Z</time></trkpt><trkpt lat="39.7107414" lon="8.4821087"><ele>15.0</ele><time>2026-05-01T07:28:19.255Z</time></trkpt><trkpt lat="39.7106266" lon="8.4820446"><ele>16.0</ele><time>2026-05-01T07:28:20.256Z</time></trkpt><trkpt lat="39.7105038" lon="8.4819773"><ele>17.0</ele><time>2026-05-01T07:28:21.255Z</time></trkpt><trkpt lat="39.7103847" lon="8.4819218"><ele>17.0</ele><time>2026-05-01T07:28:22.255Z</time></trkpt><trkpt lat="39.7102586" lon="8.4818758"><ele>17.0</ele><time>2026-05-01T07:28:23.255Z</time></trkpt><trkpt lat="39.7101269" lon="8.4818552"><ele>17.0</ele><time>2026-05-01T07:28:24.254Z</time></trkpt><trkpt lat="39.709994" lon="8.4818642"><ele>17.0</ele><time>2026-05-01T07:28:25.255Z</time></trkpt><trkpt lat="39.709857" lon="8.4819007"><ele>17.666666666666668</ele><time>2026-05-01T07:28:26.255Z</time></trkpt><trkpt lat="39.709717" lon="8.4819583"><ele>18.333333333333332</ele><time>2026-05-01T07:28:27.256Z</time></trkpt><trkpt lat="39.7095733" lon="8.482032"><ele>19.0</ele><time>2026-05-01T07:28:28.256Z</time></trkpt><trkpt lat="39.7094272" lon="8.4821181"><ele>21.0</ele><time>2026-05-01T07:28:29.256Z</time></trkpt><trkpt lat="39.709283" lon="8.4822136"><ele>23.0</ele><time>2026-05-01T07:28:30.256Z</time></trkpt><trkpt lat="39.7091429" lon="8.4823055"><ele>25.0</ele><time>2026-05-01T07:28:31.256Z</time></trkpt><trkpt lat="39.7090111" lon="8.4823954"><ele>25.0</ele><time>2026-05-01T07:28:32.255Z</time></trkpt><trkpt lat="39.7088877" lon="8.4824842"><ele>25.0</ele><time>2026-05-01T07:28:33.256Z</time></trkpt><trkpt lat="39.7087646" lon="8.4825686"><ele>25.0</ele><time>2026-05-01T07:28:34.254Z</time></trkpt><trkpt lat="39.7086421" lon="8.4826533"><ele>25.0</ele><time>2026-05-01T07:28:35.255Z</time></trkpt><trkpt lat="39.7085279" lon="8.4827282"><ele>24.2</ele><time>2026-05-01T07:28:36.255Z</time></trkpt><trkpt lat="39.7084254" lon="8.4827817"><ele>23.4</ele><time>2026-05-01T07:28:37.255Z</time></trkpt><trkpt lat="39.7083277" lon="8.4828007"><ele>22.6</ele><time>2026-05-01T07:28:38.256Z</time></trkpt><trkpt lat="39.7082425" lon="8.4827611"><ele>21.8</ele><time>2026-05-01T07:28:39.256Z</time></trkpt><trkpt lat="39.708161" lon="8.4826885"><ele>21.0</ele><time>2026-05-01T07:28:40.255Z</time></trkpt><trkpt lat="39.7080812" lon="8.4825913"><ele>21.0</ele><time>2026-05-01T07:28:41.255Z</time></trkpt><trkpt lat="39.7079926" lon="8.48248"><ele>21.0</ele><time>2026-05-01T07:28:42.255Z</time></trkpt><trkpt lat="39.7078967" lon="8.482363"><ele>21.0</ele><time>2026-05-01T07:28:43.254Z</time></trkpt><trkpt lat="39.7077931" lon="8.4822409"><ele>21.0</ele><time>2026-05-01T07:28:44.256Z</time></trkpt><trkpt lat="39.7076878" lon="8.4821138"><ele>21.666666666666668</ele><time>2026-05-01T07:28:45.255Z</time></trkpt><trkpt lat="39.7075809" lon="8.4819801"><ele>22.333333333333336</ele><time>2026-05-01T07:28:46.256Z</time></trkpt><trkpt lat="39.7074709" lon="8.4818397"><ele>23.0</ele><time>2026-05-01T07:28:47.255Z</time></trkpt><trkpt lat="39.707366" lon="8.4817057"><ele>23.0</ele><time>2026-05-01T07:28:48.255Z</time></trkpt><trkpt lat="39.7072558" lon="8.4815908"><ele>23.0</ele><time>2026-05-01T07:28:49.255Z</time></trkpt><trkpt lat="39.7071386" lon="8.4815014"><ele>23.0</ele><time>2026-05-01T07:28:50.255Z</time></trkpt><trkpt lat="39.7070097" lon="8.4814414"><ele>23.0</ele><time>2026-05-01T07:28:51.255Z</time></trkpt><trkpt lat="39.7068771" lon="8.4814133"><ele>23.75</ele><time>2026-05-01T07:28:52.255Z</time></trkpt><trkpt lat="39.7067446" lon="8.4813972"><ele>24.5</ele><time>2026-05-01T07:28:53.255Z</time></trkpt><trkpt lat="39.70662" lon="8.4813811"><ele>25.25</ele><time>2026-05-01T07:28:54.255Z</time></trkpt><trkpt lat="39.7065108" lon="8.4813471"><ele>26.0</ele><time>2026-05-01T07:28:55.256Z</time></trkpt><trkpt lat="39.7064207" lon="8.481287"><ele>27.6</ele><time>2026-05-01T07:28:56.254Z</time></trkpt><trkpt lat="39.706353" lon="8.4811964"><ele>29.200000000000003</ele><time>2026-05-01T07:28:57.256Z</time></trkpt><trkpt lat="39.706304" lon="8.4810851"><ele>30.799999999999997</ele><time>2026-05-01T07:28:58.256Z</time></trkpt><trkpt lat="39.7062639" lon="8.4809754"><ele>32.4</ele><time>2026-05-01T07:28:59.254Z</time></trkpt><trkpt lat="39.7062088" lon="8.480912"><ele>34.0</ele><time>2026-05-01T07:29:00.255Z</time></trkpt><trkpt lat="39.7060971" lon="8.4809313"><ele>33.6</ele><time>2026-05-01T07:29:02.255Z</time></trkpt><trkpt lat="39.7060419" lon="8.4810935"><ele>33.2</ele><time>2026-05-01T07:29:04.255Z</time></trkpt><trkpt lat="39.7060186" lon="8.4812042"><ele>32.800000000000004</ele><time>2026-05-01T07:29:05.255Z</time></trkpt><trkpt lat="39.7059685" lon="8.481307"><ele>32.4</ele><time>2026-05-01T07:29:06.255Z</time></trkpt><trkpt lat="39.7058918" lon="8.4813899"><ele>32.0</ele><time>2026-05-01T07:29:07.255Z</time></trkpt><trkpt lat="39.7057979" lon="8.4814528"><ele>32.0</ele><time>2026-05-01T07:29:08.255Z</time></trkpt><trkpt lat="39.7056926" lon="8.4815078"><ele>32.0</ele><time>2026-05-01T07:29:09.256Z</time></trkpt><trkpt lat="39.7055741" lon="8.4815536"><ele>32.0</ele><time>2026-05-01T07:29:10.255Z</time></trkpt><trkpt lat="39.7054491" lon="8.4815889"><ele>32.0</ele><time>2026-05-01T07:29:11.255Z</time></trkpt><trkpt lat="39.7053349" lon="8.4816137"><ele>32.4</ele><time>2026-05-01T07:29:12.255Z</time></trkpt><trkpt lat="39.7052257" lon="8.4816253"><ele>32.800000000000004</ele><time>2026-05-01T07:29:13.255Z</time></trkpt><trkpt lat="39.705119" lon="8.4816046"><ele>33.2</ele><time>2026-05-01T07:29:14.255Z</time></trkpt><trkpt lat="39.7050142" lon="8.4815558"><ele>33.6</ele><time>2026-05-01T07:29:15.256Z</time></trkpt><trkpt lat="39.7049112" lon="8.4814855"><ele>34.0</ele><time>2026-05-01T07:29:16.255Z</time></trkpt><trkpt lat="39.7048083" lon="8.4813979"><ele>34.0</ele><time>2026-05-01T07:29:17.256Z</time></trkpt><trkpt lat="39.7047044" lon="8.4813094"><ele>34.0</ele><time>2026-05-01T07:29:18.255Z</time></trkpt><trkpt lat="39.7046021" lon="8.48124"><ele>34.0</ele><time>2026-05-01T07:29:19.255Z</time></trkpt><trkpt lat="39.7044972" lon="8.4812128"><ele>34.0</ele><time>2026-05-01T07:29:20.255Z</time></trkpt><trkpt lat="39.7043896" lon="8.4812242"><ele>34.6</ele><time>2026-05-01T07:29:21.254Z</time></trkpt><trkpt lat="39.7042918" lon="8.4812768"><ele>35.2</ele><time>2026-05-01T07:29:22.256Z</time></trkpt><trkpt lat="39.7042037" lon="8.4813542"><ele>35.800000000000004</ele><time>2026-05-01T07:29:23.255Z</time></trkpt><trkpt lat="39.7041187" lon="8.4814356"><ele>36.4</ele><time>2026-05-01T07:29:24.256Z</time></trkpt><trkpt lat="39.7040311" lon="8.4814938"><ele>37.0</ele><time>2026-05-01T07:29:25.255Z</time></trkpt><trkpt lat="39.703941" lon="8.4815153"><ele>37.0</ele><time>2026-05-01T07:29:26.255Z</time></trkpt><trkpt lat="39.7038605" lon="8.481498"><ele>37.0</ele><time>2026-05-01T07:29:27.255Z</time></trkpt><trkpt lat="39.7037964" lon="8.4814361"><ele>37.0</ele><time>2026-05-01T07:29:28.255Z</time></trkpt><trkpt lat="39.7037491" lon="8.4813424"><ele>37.0</ele><time>2026-05-01T07:29:29.255Z</time></trkpt><trkpt lat="39.7037158" lon="8.4812236"><ele>37.0</ele><time>2026-05-01T07:29:30.256Z</time></trkpt><trkpt lat="39.703687" lon="8.4810835"><ele>38.0</ele><time>2026-05-01T07:29:31.256Z</time></trkpt><trkpt lat="39.7036424" lon="8.4809301"><ele>39.0</ele><time>2026-05-01T07:29:32.256Z</time></trkpt><trkpt lat="39.703574" lon="8.4807693"><ele>40.0</ele><time>2026-05-01T07:29:33.256Z</time></trkpt><trkpt lat="39.7034874" lon="8.480583"><ele>41.0</ele><time>2026-05-01T07:29:34.255Z</time></trkpt><trkpt lat="39.7034091" lon="8.4804247"><ele>43.25</ele><time>2026-05-01T07:29:35.256Z</time></trkpt><trkpt lat="39.7033325" lon="8.4803014"><ele>45.5</ele><time>2026-05-01T07:29:36.255Z</time></trkpt><trkpt lat="39.7032417" lon="8.4802215"><ele>47.75</ele><time>2026-05-01T07:29:37.256Z</time></trkpt><trkpt lat="39.7031412" lon="8.4801845"><ele>50.0</ele><time>2026-05-01T07:29:38.255Z</time></trkpt><trkpt lat="39.7030257" lon="8.4801706"><ele>50.0</ele><time>2026-05-01T07:29:39.256Z</time></trkpt><trkpt lat="39.7028973" lon="8.4801685"><ele>50.0</ele><time>2026-05-01T07:29:40.255Z</time></trkpt><trkpt lat="39.7027586" lon="8.4801587"><ele>50.0</ele><time>2026-05-01T07:29:41.256Z</time></trkpt><trkpt lat="39.7026075" lon="8.4801354"><ele>50.0</ele><time>2026-05-01T07:29:42.256Z</time></trkpt><trkpt lat="39.7024477" lon="8.4801092"><ele>50.0</ele><time>2026-05-01T07:29:43.256Z</time></trkpt><trkpt lat="39.7023056" lon="8.4800816"><ele>50.0</ele><time>2026-05-01T07:29:44.255Z</time></trkpt><trkpt lat="39.7021708" lon="8.4800393"><ele>50.0</ele><time>2026-05-01T07:29:45.255Z</time></trkpt><trkpt lat="39.7020374" lon="8.4799778"><ele>50.0</ele><time>2026-05-01T07:29:46.255Z</time></trkpt><trkpt lat="39.7019002" lon="8.4798947"><ele>50.25</ele><time>2026-05-01T07:29:47.256Z</time></trkpt><trkpt lat="39.7017681" lon="8.4798042"><ele>50.5</ele><time>2026-05-01T07:29:48.256Z</time></trkpt><trkpt lat="39.7016475" lon="8.4797208"><ele>50.75</ele><time>2026-05-01T07:29:49.254Z</time></trkpt><trkpt lat="39.7015458" lon="8.4796248"><ele>51.0</ele><time>2026-05-01T07:29:50.256Z</time></trkpt><trkpt lat="39.7014666" lon="8.4794955"><ele>51.0</ele><time>2026-05-01T07:29:51.255Z</time></trkpt><trkpt lat="39.7014109" lon="8.4793418"><ele>51.0</ele><time>2026-05-01T07:29:52.255Z</time></trkpt><trkpt lat="39.7013635" lon="8.4791671"><ele>51.0</ele><time>2026-05-01T07:29:53.256Z</time></trkpt><trkpt lat="39.7013105" lon="8.4789788"><ele>51.0</ele><time>2026-05-01T07:29:54.255Z</time></trkpt><trkpt lat="39.7012532" lon="8.4787785"><ele>50.0</ele><time>2026-05-01T07:29:55.256Z</time></trkpt><trkpt lat="39.7011942" lon="8.4785718"><ele>49.0</ele><time>2026-05-01T07:29:56.255Z</time></trkpt><trkpt lat="39.7011382" lon="8.4783635"><ele>48.0</ele><time>2026-05-01T07:29:57.255Z</time></trkpt><trkpt lat="39.7010786" lon="8.4781547"><ele>49.0</ele><time>2026-05-01T07:29:58.255Z</time></trkpt><trkpt lat="39.7010173" lon="8.4779661"><ele>50.0</ele><time>2026-05-01T07:29:59.255Z</time></trkpt><trkpt lat="39.7009496" lon="8.4777809"><ele>51.0</ele><time>2026-05-01T07:30:00.256Z</time></trkpt><trkpt lat="39.7008797" lon="8.4776235"><ele>51.0</ele><time>2026-05-01T07:30:01.255Z</time></trkpt><trkpt lat="39.7008034" lon="8.4775004"><ele>51.0</ele><time>2026-05-01T07:30:02.255Z</time></trkpt><trkpt lat="39.7007162" lon="8.4774228"><ele>51.0</ele><time>2026-05-01T07:30:03.255Z</time></trkpt><trkpt lat="39.7006154" lon="8.4773868"><ele>51.0</ele><time>2026-05-01T07:30:04.256Z</time></trkpt><trkpt lat="39.700504" lon="8.4773828"><ele>51.0</ele><time>2026-05-01T07:30:05.255Z</time></trkpt><trkpt lat="39.7003828" lon="8.4773917"><ele>51.0</ele><time>2026-05-01T07:30:06.256Z</time></trkpt><trkpt lat="39.7002567" lon="8.4774065"><ele>51.0</ele><time>2026-05-01T07:30:07.255Z</time></trkpt><trkpt lat="39.7001285" lon="8.4774368"><ele>51.0</ele><time>2026-05-01T07:30:08.256Z</time></trkpt><trkpt lat="39.7000004" lon="8.477496"><ele>51.0</ele><time>2026-05-01T07:30:09.256Z</time></trkpt><trkpt lat="39.6998725" lon="8.4775639"><ele>51.75</ele><time>2026-05-01T07:30:10.254Z</time></trkpt><trkpt lat="39.6997364" lon="8.4776026"><ele>52.5</ele><time>2026-05-01T07:30:11.254Z</time></trkpt><trkpt lat="39.6996016" lon="8.4776024"><ele>53.25</ele><time>2026-05-01T07:30:12.256Z</time></trkpt><trkpt lat="39.6994771" lon="8.477582"><ele>54.0</ele><time>2026-05-01T07:30:13.256Z</time></trkpt><trkpt lat="39.6993487" lon="8.4775745"><ele>54.0</ele><time>2026-05-01T07:30:14.255Z</time></trkpt><trkpt lat="39.6992319" lon="8.4775998"><ele>54.00000000000001</ele><time>2026-05-01T07:30:15.255Z</time></trkpt><trkpt lat="39.6991278" lon="8.4776589"><ele>54.00000000000001</ele><time>2026-05-01T07:30:16.256Z</time></trkpt><trkpt lat="39.6990356" lon="8.4777281"><ele>54.0</ele><time>2026-05-01T07:30:17.255Z</time></trkpt><trkpt lat="39.6989423" lon="8.477769"><ele>54.0</ele><time>2026-05-01T07:30:18.255Z</time></trkpt><trkpt lat="39.6988462" lon="8.4777677"><ele>54.0</ele><time>2026-05-01T07:30:19.255Z</time></trkpt><trkpt lat="39.6987533" lon="8.477721"><ele>54.00000000000001</ele><time>2026-05-01T07:30:20.255Z</time></trkpt><trkpt lat="39.6986681" lon="8.4776468"><ele>54.00000000000001</ele><time>2026-05-01T07:30:21.256Z</time></trkpt><trkpt lat="39.6985881" lon="8.477546"><ele>54.0</ele><time>2026-05-01T07:30:22.256Z</time></trkpt><trkpt lat="39.6985166" lon="8.4774436"><ele>54.0</ele><time>2026-05-01T07:30:23.255Z</time></trkpt><trkpt lat="39.6984514" lon="8.4773433"><ele>54.2</ele><time>2026-05-01T07:30:24.255Z</time></trkpt><trkpt lat="39.698381" lon="8.4772555"><ele>54.400000000000006</ele><time>2026-05-01T07:30:25.256Z</time></trkpt><trkpt lat="39.6982902" lon="8.4771945"><ele>54.6</ele><time>2026-05-01T07:30:26.256Z</time></trkpt><trkpt lat="39.698185" lon="8.4771601"><ele>54.8</ele><time>2026-05-01T07:30:27.256Z</time></trkpt><trkpt lat="39.6980709" lon="8.4771395"><ele>55.0</ele><time>2026-05-01T07:30:28.256Z</time></trkpt><trkpt lat="39.6979494" lon="8.4771385"><ele>55.0</ele><time>2026-05-01T07:30:29.256Z</time></trkpt><trkpt lat="39.6978188" lon="8.4771551"><ele>55.0</ele><time>2026-05-01T07:30:30.256Z</time></trkpt><trkpt lat="39.6976774" lon="8.4771801"><ele>55.0</ele><time>2026-05-01T07:30:31.256Z</time></trkpt><trkpt lat="39.6975291" lon="8.4772054"><ele>55.0</ele><time>2026-05-01T07:30:32.255Z</time></trkpt><trkpt lat="39.6973838" lon="8.4772265"><ele>55.75</ele><time>2026-05-01T07:30:33.255Z</time></trkpt><trkpt lat="39.6972452" lon="8.4772398"><ele>56.5</ele><time>2026-05-01T07:30:34.255Z</time></trkpt><trkpt lat="39.6971076" lon="8.4772288"><ele>57.25</ele><time>2026-05-01T07:30:35.256Z</time></trkpt><trkpt lat="39.6969772" lon="8.4771864"><ele>58.0</ele><time>2026-05-01T07:30:36.256Z</time></trkpt><trkpt lat="39.696857" lon="8.4771109"><ele>56.2</ele><time>2026-05-01T07:30:37.255Z</time></trkpt><trkpt lat="39.6967551" lon="8.4770082"><ele>54.4</ele><time>2026-05-01T07:30:38.255Z</time></trkpt><trkpt lat="39.696676" lon="8.476901"><ele>52.6</ele><time>2026-05-01T07:30:39.256Z</time></trkpt><trkpt lat="39.6965982" lon="8.4768131"><ele>50.800000000000004</ele><time>2026-05-01T07:30:40.256Z</time></trkpt><trkpt lat="39.6964996" lon="8.4767753"><ele>49.0</ele><time>2026-05-01T07:30:41.256Z</time></trkpt><trkpt lat="39.6963874" lon="8.4767692"><ele>49.0</ele><time>2026-05-01T07:30:42.256Z</time></trkpt><trkpt lat="39.6962655" lon="8.4767811"><ele>49.0</ele><time>2026-05-01T07:30:43.255Z</time></trkpt><trkpt lat="39.6961381" lon="8.4768014"><ele>49.0</ele><time>2026-05-01T07:30:44.256Z</time></trkpt><trkpt lat="39.6960173" lon="8.4768171"><ele>49.0</ele><time>2026-05-01T07:30:45.255Z</time></trkpt><trkpt lat="39.6958982" lon="8.4768002"><ele>48.75</ele><time>2026-05-01T07:30:46.254Z</time></trkpt><trkpt lat="39.695787" lon="8.4767363"><ele>48.5</ele><time>2026-05-01T07:30:47.256Z</time></trkpt><trkpt lat="39.6956828" lon="8.4766327"><ele>48.25</ele><time>2026-05-01T07:30:48.254Z</time></trkpt><trkpt lat="39.6955774" lon="8.4765088"><ele>48.0</ele><time>2026-05-01T07:30:49.254Z</time></trkpt><trkpt lat="39.6954659" lon="8.4763768"><ele>46.666666666666664</ele><time>2026-05-01T07:30:50.254Z</time></trkpt><trkpt lat="39.6953481" lon="8.4762357"><ele>45.33333333333333</ele><time>2026-05-01T07:30:51.254Z</time></trkpt><trkpt lat="39.6952258" lon="8.4760927"><ele>44.0</ele><time>2026-05-01T07:30:52.255Z</time></trkpt><trkpt lat="39.6951018" lon="8.4759479"><ele>44.0</ele><time>2026-05-01T07:30:53.255Z</time></trkpt><trkpt lat="39.6949786" lon="8.4757999"><ele>44.0</ele><time>2026-05-01T07:30:54.256Z</time></trkpt><trkpt lat="39.6948563" lon="8.4756498"><ele>44.0</ele><time>2026-05-01T07:30:55.255Z</time></trkpt><trkpt lat="39.6947325" lon="8.4755029"><ele>45.33333333333333</ele><time>2026-05-01T07:30:56.255Z</time></trkpt><trkpt lat="39.694608" lon="8.4753559"><ele>46.666666666666664</ele><time>2026-05-01T07:30:57.255Z</time></trkpt><trkpt lat="39.6944797" lon="8.4752258"><ele>48.0</ele><time>2026-05-01T07:30:58.255Z</time></trkpt><trkpt lat="39.6943548" lon="8.4751097"><ele>49.25</ele><time>2026-05-01T07:30:59.255Z</time></trkpt><trkpt lat="39.694235" lon="8.474996"><ele>50.5</ele><time>2026-05-01T07:31:00.255Z</time></trkpt><trkpt lat="39.6941287" lon="8.4748763"><ele>51.75</ele><time>2026-05-01T07:31:01.256Z</time></trkpt><trkpt lat="39.6940311" lon="8.4747481"><ele>53.0</ele><time>2026-05-01T07:31:02.256Z</time></trkpt><trkpt lat="39.693946" lon="8.4746137"><ele>53.8</ele><time>2026-05-01T07:31:03.256Z</time></trkpt><trkpt lat="39.6938702" lon="8.4744835"><ele>54.599999999999994</ele><time>2026-05-01T07:31:04.254Z</time></trkpt><trkpt lat="39.6937983" lon="8.4743671"><ele>55.400000000000006</ele><time>2026-05-01T07:31:05.256Z</time></trkpt><trkpt lat="39.6937339" lon="8.4742691"><ele>56.2</ele><time>2026-05-01T07:31:06.255Z</time></trkpt><trkpt lat="39.6936702" lon="8.4741838"><ele>57.0</ele><time>2026-05-01T07:31:07.256Z</time></trkpt><trkpt lat="39.6936153" lon="8.4741065"><ele>57.6</ele><time>2026-05-01T07:31:08.256Z</time></trkpt><trkpt lat="39.6935615" lon="8.4740354"><ele>58.2</ele><time>2026-05-01T07:31:09.254Z</time></trkpt><trkpt lat="39.6935052" lon="8.4739591"><ele>58.8</ele><time>2026-05-01T07:31:10.254Z</time></trkpt><trkpt lat="39.6934388" lon="8.4738777"><ele>59.4</ele><time>2026-05-01T07:31:11.256Z</time></trkpt><trkpt lat="39.6933679" lon="8.473791"><ele>60.0</ele><time>2026-05-01T07:31:12.255Z</time></trkpt><trkpt lat="39.6932947" lon="8.4736951"><ele>60.0</ele><time>2026-05-01T07:31:13.255Z</time></trkpt><trkpt lat="39.6932196" lon="8.4735903"><ele>60.0</ele><time>2026-05-01T07:31:14.255Z</time></trkpt><trkpt lat="39.6931464" lon="8.4734739"><ele>60.0</ele><time>2026-05-01T07:31:15.256Z</time></trkpt><trkpt lat="39.6930719" lon="8.4733502"><ele>60.0</ele><time>2026-05-01T07:31:16.255Z</time></trkpt><trkpt lat="39.6929973" lon="8.4732227"><ele>60.0</ele><time>2026-05-01T07:31:17.255Z</time></trkpt><trkpt lat="39.6929228" lon="8.4730902"><ele>60.0</ele><time>2026-05-01T07:31:18.254Z</time></trkpt><trkpt lat="39.6928471" lon="8.4729554"><ele>60.0</ele><time>2026-05-01T07:31:19.256Z</time></trkpt><trkpt lat="39.6927738" lon="8.47282"><ele>60.0</ele><time>2026-05-01T07:31:20.254Z</time></trkpt><trkpt lat="39.6927017" lon="8.4726835"><ele>60.5</ele><time>2026-05-01T07:31:21.255Z</time></trkpt><trkpt lat="39.6926342" lon="8.4725496"><ele>61.0</ele><time>2026-05-01T07:31:22.255Z</time></trkpt><trkpt lat="39.6925657" lon="8.472414"><ele>61.5</ele><time>2026-05-01T07:31:23.255Z</time></trkpt><trkpt lat="39.692498" lon="8.4722806"><ele>62.0</ele><time>2026-05-01T07:31:24.255Z</time></trkpt><trkpt lat="39.6924297" lon="8.4721484"><ele>63.0</ele><time>2026-05-01T07:31:25.256Z</time></trkpt><trkpt lat="39.6923592" lon="8.472018"><ele>64.0</ele><time>2026-05-01T07:31:26.255Z</time></trkpt><trkpt lat="39.6922932" lon="8.4718898"><ele>65.0</ele><time>2026-05-01T07:31:27.256Z</time></trkpt><trkpt lat="39.6922392" lon="8.471766"><ele>66.0</ele><time>2026-05-01T07:31:28.255Z</time></trkpt><trkpt lat="39.6921987" lon="8.4716373"><ele>66.0</ele><time>2026-05-01T07:31:29.255Z</time></trkpt><trkpt lat="39.6921672" lon="8.4715043"><ele>66.0</ele><time>2026-05-01T07:31:30.255Z</time></trkpt><trkpt lat="39.6921431" lon="8.4713732"><ele>66.0</ele><time>2026-05-01T07:31:31.254Z</time></trkpt><trkpt lat="39.69212" lon="8.4712441"><ele>66.0</ele><time>2026-05-01T07:31:32.256Z</time></trkpt><trkpt lat="39.6920884" lon="8.4711201"><ele>66.0</ele><time>2026-05-01T07:31:33.255Z</time></trkpt><trkpt lat="39.6920412" lon="8.4710066"><ele>66.0</ele><time>2026-05-01T07:31:34.255Z</time></trkpt><trkpt lat="39.691982" lon="8.4709065"><ele>66.0</ele><time>2026-05-01T07:31:35.256Z</time></trkpt><trkpt lat="39.6919173" lon="8.4708304"><ele>66.0</ele><time>2026-05-01T07:31:36.254Z</time></trkpt><trkpt lat="39.6918487" lon="8.4707786"><ele>66.0</ele><time>2026-05-01T07:31:37.255Z</time></trkpt><trkpt lat="39.6917757" lon="8.4707448"><ele>66.0</ele><time>2026-05-01T07:31:38.255Z</time></trkpt><trkpt lat="39.6916996" lon="8.470711"><ele>66.0</ele><time>2026-05-01T07:31:39.255Z</time></trkpt><trkpt lat="39.6916234" lon="8.4706597"><ele>67.0</ele><time>2026-05-01T07:31:40.256Z</time></trkpt><trkpt lat="39.691556" lon="8.4705917"><ele>68.0</ele><time>2026-05-01T07:31:41.256Z</time></trkpt><trkpt lat="39.6915066" lon="8.470501"><ele>69.0</ele><time>2026-05-01T07:31:42.255Z</time></trkpt><trkpt lat="39.6914812" lon="8.4703935"><ele>70.0</ele><time>2026-05-01T07:31:43.256Z</time></trkpt><trkpt lat="39.691479" lon="8.4702712"><ele>71.0</ele><time>2026-05-01T07:31:44.255Z</time></trkpt><trkpt lat="39.691496" lon="8.4701439"><ele>71.33333333333334</ele><time>2026-05-01T07:31:45.255Z</time></trkpt><trkpt lat="39.691534" lon="8.4700156"><ele>71.66666666666667</ele><time>2026-05-01T07:31:46.255Z</time></trkpt><trkpt lat="39.6915935" lon="8.4699036"><ele>72.0</ele><time>2026-05-01T07:31:47.256Z</time></trkpt><trkpt lat="39.6916525" lon="8.4698212"><ele>72.33333333333333</ele><time>2026-05-01T07:31:48.255Z</time></trkpt><trkpt lat="39.6916928" lon="8.4697403"><ele>72.66666666666666</ele><time>2026-05-01T07:31:49.255Z</time></trkpt><trkpt lat="39.6917078" lon="8.4696592"><ele>73.0</ele><time>2026-05-01T07:31:50.256Z</time></trkpt><trkpt lat="39.6916451" lon="8.469551"><ele>73.0</ele><time>2026-05-01T07:31:52.255Z</time></trkpt><trkpt lat="39.6915263" lon="8.4695437"><ele>73.0</ele><time>2026-05-01T07:31:54.255Z</time></trkpt><trkpt lat="39.6914571" lon="8.4695849"><ele>73.0</ele><time>2026-05-01T07:31:55.255Z</time></trkpt><trkpt lat="39.6913866" lon="8.4696527"><ele>73.0</ele><time>2026-05-01T07:31:56.254Z</time></trkpt><trkpt lat="39.6913098" lon="8.4697364"><ele>73.0</ele><time>2026-05-01T07:31:57.256Z</time></trkpt><trkpt lat="39.6912246" lon="8.4698292"><ele>73.0</ele><time>2026-05-01T07:31:58.256Z</time></trkpt><trkpt lat="39.6911276" lon="8.4699185"><ele>73.0</ele><time>2026-05-01T07:31:59.256Z</time></trkpt><trkpt lat="39.691022" lon="8.4699954"><ele>73.0</ele><time>2026-05-01T07:32:00.254Z</time></trkpt><trkpt lat="39.6909091" lon="8.4700624"><ele>73.0</ele><time>2026-05-01T07:32:01.255Z</time></trkpt><trkpt lat="39.6907975" lon="8.4701257"><ele>74.8</ele><time>2026-05-01T07:32:02.256Z</time></trkpt><trkpt lat="39.6906966" lon="8.4701831"><ele>76.6</ele><time>2026-05-01T07:32:03.255Z</time></trkpt><trkpt lat="39.6905982" lon="8.4702411"><ele>78.39999999999999</ele><time>2026-05-01T07:32:04.255Z</time></trkpt><trkpt lat="39.6904998" lon="8.4703094"><ele>80.19999999999999</ele><time>2026-05-01T07:32:05.254Z</time></trkpt><trkpt lat="39.690405" lon="8.4703948"><ele>82.0</ele><time>2026-05-01T07:32:06.255Z</time></trkpt><trkpt lat="39.6903158" lon="8.4704845"><ele>82.19999999999999</ele><time>2026-05-01T07:32:07.256Z</time></trkpt><trkpt lat="39.6902299" lon="8.4705777"><ele>82.4</ele><time>2026-05-01T07:32:08.256Z</time></trkpt><trkpt lat="39.6901461" lon="8.4706682"><ele>82.6</ele><time>2026-05-01T07:32:09.254Z</time></trkpt><trkpt lat="39.6900658" lon="8.4707552"><ele>82.80000000000001</ele><time>2026-05-01T07:32:10.256Z</time></trkpt><trkpt lat="39.6899933" lon="8.4708454"><ele>83.0</ele><time>2026-05-01T07:32:11.255Z</time></trkpt><trkpt lat="39.6899281" lon="8.4709386"><ele>83.0</ele><time>2026-05-01T07:32:12.255Z</time></trkpt><trkpt lat="39.68987" lon="8.4710365"><ele>83.0</ele><time>2026-05-01T07:32:13.255Z</time></trkpt><trkpt lat="39.6898131" lon="8.4711412"><ele>83.0</ele><time>2026-05-01T07:32:14.255Z</time></trkpt><trkpt lat="39.6897561" lon="8.4712528"><ele>83.0</ele><time>2026-05-01T07:32:15.256Z</time></trkpt><trkpt lat="39.6896973" lon="8.4713677"><ele>83.0</ele><time>2026-05-01T07:32:16.256Z</time></trkpt><trkpt lat="39.6896318" lon="8.4714788"><ele>82.60000000000001</ele><time>2026-05-01T07:32:17.254Z</time></trkpt><trkpt lat="39.6895627" lon="8.4715857"><ele>82.2</ele><time>2026-05-01T07:32:18.255Z</time></trkpt><trkpt lat="39.6894856" lon="8.4716811"><ele>81.8</ele><time>2026-05-01T07:32:19.256Z</time></trkpt><trkpt lat="39.6894004" lon="8.4717528"><ele>81.4</ele><time>2026-05-01T07:32:20.256Z</time></trkpt><trkpt lat="39.6893032" lon="8.4717913"><ele>81.0</ele><time>2026-05-01T07:32:21.255Z</time></trkpt><trkpt lat="39.6892073" lon="8.471793"><ele>81.0</ele><time>2026-05-01T07:32:22.255Z</time></trkpt><trkpt lat="39.6891175" lon="8.4717612"><ele>81.0</ele><time>2026-05-01T07:32:23.255Z</time></trkpt><trkpt lat="39.6890297" lon="8.4717229"><ele>81.0</ele><time>2026-05-01T07:32:24.255Z</time></trkpt><trkpt lat="39.6889328" lon="8.4717199"><ele>81.0</ele><time>2026-05-01T07:32:25.256Z</time></trkpt><trkpt lat="39.6888301" lon="8.4717452"><ele>81.0</ele><time>2026-05-01T07:32:26.255Z</time></trkpt><trkpt lat="39.6887134" lon="8.4717922"><ele>79.75</ele><time>2026-05-01T07:32:27.255Z</time></trkpt><trkpt lat="39.6885881" lon="8.4718401"><ele>78.5</ele><time>2026-05-01T07:32:28.255Z</time></trkpt><trkpt lat="39.6884562" lon="8.4718924"><ele>77.25</ele><time>2026-05-01T07:32:29.254Z</time></trkpt><trkpt lat="39.6883344" lon="8.4719489"><ele>76.0</ele><time>2026-05-01T07:32:30.255Z</time></trkpt><trkpt lat="39.688205" lon="8.4720239"><ele>77.25</ele><time>2026-05-01T07:32:31.256Z</time></trkpt><trkpt lat="39.6880746" lon="8.4721098"><ele>78.5</ele><time>2026-05-01T07:32:32.255Z</time></trkpt><trkpt lat="39.68795" lon="8.4721941"><ele>79.75</ele><time>2026-05-01T07:32:33.255Z</time></trkpt><trkpt lat="39.6878316" lon="8.4722711"><ele>81.0</ele><time>2026-05-01T07:32:34.256Z</time></trkpt><trkpt lat="39.6877153" lon="8.472335"><ele>81.0</ele><time>2026-05-01T07:32:35.255Z</time></trkpt><trkpt lat="39.6875962" lon="8.4723942"><ele>81.0</ele><time>2026-05-01T07:32:36.255Z</time></trkpt><trkpt lat="39.6874776" lon="8.4724464"><ele>81.0</ele><time>2026-05-01T07:32:37.255Z</time></trkpt><trkpt lat="39.6873654" lon="8.4724949"><ele>81.0</ele><time>2026-05-01T07:32:38.254Z</time></trkpt><trkpt lat="39.6872597" lon="8.4725412"><ele>81.0</ele><time>2026-05-01T07:32:39.256Z</time></trkpt><trkpt lat="39.6871605" lon="8.4725699"><ele>81.0</ele><time>2026-05-01T07:32:40.256Z</time></trkpt><trkpt lat="39.6870706" lon="8.4725631"><ele>81.0</ele><time>2026-05-01T07:32:41.256Z</time></trkpt><trkpt lat="39.6869927" lon="8.4725252"><ele>81.0</ele><time>2026-05-01T07:32:42.255Z</time></trkpt><trkpt lat="39.6869398" lon="8.4724618"><ele>81.0</ele><time>2026-05-01T07:32:43.255Z</time></trkpt><trkpt lat="39.686917" lon="8.4723765"><ele>81.0</ele><time>2026-05-01T07:32:44.255Z</time></trkpt><trkpt lat="39.6869191" lon="8.4722726"><ele>81.0</ele><time>2026-05-01T07:32:45.255Z</time></trkpt><trkpt lat="39.6869385" lon="8.4721537"><ele>81.0</ele><time>2026-05-01T07:32:46.255Z</time></trkpt><trkpt lat="39.6869729" lon="8.4720341"><ele>81.0</ele><time>2026-05-01T07:32:47.255Z</time></trkpt><trkpt lat="39.6870258" lon="8.4719401"><ele>81.0</ele><time>2026-05-01T07:32:48.256Z</time></trkpt><trkpt lat="39.687097" lon="8.4718798"><ele>81.0</ele><time>2026-05-01T07:32:49.255Z</time></trkpt><trkpt lat="39.6871773" lon="8.4718517"><ele>81.0</ele><time>2026-05-01T07:32:50.256Z</time></trkpt><trkpt lat="39.68726" lon="8.4718427"><ele>81.0</ele><time>2026-05-01T07:32:51.255Z</time></trkpt><trkpt lat="39.6873438" lon="8.4718261"><ele>81.0</ele><time>2026-05-01T07:32:52.256Z</time></trkpt><trkpt lat="39.6874259" lon="8.4717811"><ele>81.0</ele><time>2026-05-01T07:32:53.254Z</time></trkpt><trkpt lat="39.6875007" lon="8.4717069"><ele>81.0</ele><time>2026-05-01T07:32:54.255Z</time></trkpt><trkpt lat="39.6875658" lon="8.4716061"><ele>81.0</ele><time>2026-05-01T07:32:55.255Z</time></trkpt><trkpt lat="39.687624" lon="8.4714881"><ele>81.0</ele><time>2026-05-01T07:32:56.255Z</time></trkpt><trkpt lat="39.6876804" lon="8.4713544"><ele>81.0</ele><time>2026-05-01T07:32:57.255Z</time></trkpt><trkpt lat="39.6877327" lon="8.4712142"><ele>81.0</ele><time>2026-05-01T07:32:58.255Z</time></trkpt><trkpt lat="39.6877744" lon="8.471083"><ele>81.4</ele><time>2026-05-01T07:32:59.254Z</time></trkpt><trkpt lat="39.6877944" lon="8.4709608"><ele>81.8</ele><time>2026-05-01T07:33:00.255Z</time></trkpt><trkpt lat="39.6877938" lon="8.4708403"><ele>82.2</ele><time>2026-05-01T07:33:01.255Z</time></trkpt><trkpt lat="39.6877693" lon="8.4707165"><ele>82.60000000000001</ele><time>2026-05-01T07:33:02.255Z</time></trkpt><trkpt lat="39.6877207" lon="8.4705887"><ele>83.0</ele><time>2026-05-01T07:33:03.254Z</time></trkpt><trkpt lat="39.6876545" lon="8.4704545"><ele>84.25</ele><time>2026-05-01T07:33:04.254Z</time></trkpt><trkpt lat="39.6875767" lon="8.4703137"><ele>85.5</ele><time>2026-05-01T07:33:05.255Z</time></trkpt><trkpt lat="39.6874897" lon="8.4701644"><ele>86.75</ele><time>2026-05-01T07:33:06.255Z</time></trkpt><trkpt lat="39.6873985" lon="8.4700068"><ele>88.0</ele><time>2026-05-01T07:33:07.255Z</time></trkpt><trkpt lat="39.6873036" lon="8.4698446"><ele>88.0</ele><time>2026-05-01T07:33:08.255Z</time></trkpt><trkpt lat="39.6872053" lon="8.469688"><ele>88.0</ele><time>2026-05-01T07:33:09.255Z</time></trkpt><trkpt lat="39.6870957" lon="8.469541"><ele>88.0</ele><time>2026-05-01T07:33:10.255Z</time></trkpt><trkpt lat="39.6869827" lon="8.469405"><ele>89.5</ele><time>2026-05-01T07:33:11.256Z</time></trkpt><trkpt lat="39.6868638" lon="8.4692883"><ele>91.0</ele><time>2026-05-01T07:33:12.255Z</time></trkpt><trkpt lat="39.6867502" lon="8.4691837"><ele>92.5</ele><time>2026-05-01T07:33:13.255Z</time></trkpt><trkpt lat="39.6866486" lon="8.4690792"><ele>94.0</ele><time>2026-05-01T07:33:14.255Z</time></trkpt><trkpt lat="39.6865624" lon="8.4689572"><ele>94.0</ele><time>2026-05-01T07:33:15.254Z</time></trkpt><trkpt lat="39.6865041" lon="8.4688142"><ele>94.0</ele><time>2026-05-01T07:33:16.256Z</time></trkpt><trkpt lat="39.6864687" lon="8.4686585"><ele>94.0</ele><time>2026-05-01T07:33:17.255Z</time></trkpt><trkpt lat="39.6864413" lon="8.4685131"><ele>94.0</ele><time>2026-05-01T07:33:18.254Z</time></trkpt><trkpt lat="39.6864154" lon="8.4683757"><ele>93.80000000000001</ele><time>2026-05-01T07:33:19.255Z</time></trkpt><trkpt lat="39.6863882" lon="8.4682462"><ele>93.60000000000001</ele><time>2026-05-01T07:33:20.255Z</time></trkpt><trkpt lat="39.6863593" lon="8.4681192"><ele>93.4</ele><time>2026-05-01T07:33:21.255Z</time></trkpt><trkpt lat="39.686333" lon="8.4679883"><ele>93.2</ele><time>2026-05-01T07:33:22.255Z</time></trkpt><trkpt lat="39.6863051" lon="8.4678546"><ele>93.0</ele><time>2026-05-01T07:33:23.255Z</time></trkpt><trkpt lat="39.6862745" lon="8.4677116"><ele>93.0</ele><time>2026-05-01T07:33:24.256Z</time></trkpt><trkpt lat="39.6862462" lon="8.4675709"><ele>93.0</ele><time>2026-05-01T07:33:25.256Z</time></trkpt><trkpt lat="39.6862069" lon="8.4674338"><ele>93.0</ele><time>2026-05-01T07:33:26.254Z</time></trkpt><trkpt lat="39.6861452" lon="8.4673074"><ele>93.0</ele><time>2026-05-01T07:33:27.255Z</time></trkpt><trkpt lat="39.6860657" lon="8.4671972"><ele>91.5</ele><time>2026-05-01T07:33:28.255Z</time></trkpt><trkpt lat="39.6859719" lon="8.4671079"><ele>90.0</ele><time>2026-05-01T07:33:29.256Z</time></trkpt><trkpt lat="39.6858599" lon="8.4670305"><ele>88.5</ele><time>2026-05-01T07:33:30.255Z</time></trkpt><trkpt lat="39.6857438" lon="8.4669622"><ele>87.0</ele><time>2026-05-01T07:33:31.255Z</time></trkpt><trkpt lat="39.685633" lon="8.4668916"><ele>87.0</ele><time>2026-05-01T07:33:32.255Z</time></trkpt><trkpt lat="39.6855387" lon="8.4667939"><ele>87.0</ele><time>2026-05-01T07:33:33.256Z</time></trkpt><trkpt lat="39.6854638" lon="8.4666668"><ele>87.0</ele><time>2026-05-01T07:33:34.256Z</time></trkpt><trkpt lat="39.685381" lon="8.4665338"><ele>87.0</ele><time>2026-05-01T07:33:35.255Z</time></trkpt><trkpt lat="39.6852722" lon="8.4664229"><ele>85.33333333333333</ele><time>2026-05-01T07:33:36.255Z</time></trkpt><trkpt lat="39.6851471" lon="8.4663264"><ele>83.66666666666666</ele><time>2026-05-01T07:33:37.256Z</time></trkpt><trkpt lat="39.6850119" lon="8.4662324"><ele>82.0</ele><time>2026-05-01T07:33:38.254Z</time></trkpt><trkpt lat="39.6848729" lon="8.4661277"><ele>82.0</ele><time>2026-05-01T07:33:39.255Z</time></trkpt><trkpt lat="39.6847328" lon="8.4660314"><ele>82.0</ele><time>2026-05-01T07:33:40.254Z</time></trkpt><trkpt lat="39.6845886" lon="8.4659656"><ele>82.0</ele><time>2026-05-01T07:33:41.255Z</time></trkpt><trkpt lat="39.6844431" lon="8.4659195"><ele>80.0</ele><time>2026-05-01T07:33:42.255Z</time></trkpt><trkpt lat="39.6843" lon="8.4658843"><ele>78.0</ele><time>2026-05-01T07:33:43.256Z</time></trkpt><trkpt lat="39.6841582" lon="8.465859"><ele>76.0</ele><time>2026-05-01T07:33:44.255Z</time></trkpt><trkpt lat="39.6840205" lon="8.465857"><ele>74.0</ele><time>2026-05-01T07:33:45.256Z</time></trkpt><trkpt lat="39.6838885" lon="8.465872"><ele>74.0</ele><time>2026-05-01T07:33:46.255Z</time></trkpt><trkpt lat="39.6837615" lon="8.4658855"><ele>74.0</ele><time>2026-05-01T07:33:47.255Z</time></trkpt><trkpt lat="39.6836527" lon="8.4658673"><ele>74.0</ele><time>2026-05-01T07:33:48.255Z</time></trkpt><trkpt lat="39.6835653" lon="8.4658162"><ele>74.0</ele><time>2026-05-01T07:33:49.255Z</time></trkpt><trkpt lat="39.6835053" lon="8.4657325"><ele>74.0</ele><time>2026-05-01T07:33:50.255Z</time></trkpt><trkpt lat="39.683464" lon="8.4656282"><ele>72.0</ele><time>2026-05-01T07:33:51.256Z</time></trkpt><trkpt lat="39.6834129" lon="8.4655345"><ele>70.0</ele><time>2026-05-01T07:33:52.256Z</time></trkpt><trkpt lat="39.6833331" lon="8.4654807"><ele>68.0</ele><time>2026-05-01T07:33:53.255Z</time></trkpt><trkpt lat="39.6832473" lon="8.4654768"><ele>66.0</ele><time>2026-05-01T07:33:54.254Z</time></trkpt><trkpt lat="39.6831499" lon="8.4655085"><ele>64.0</ele><time>2026-05-01T07:33:55.255Z</time></trkpt><trkpt lat="39.6830474" lon="8.4655598"><ele>64.0</ele><time>2026-05-01T07:33:56.254Z</time></trkpt><trkpt lat="39.6829518" lon="8.4656076"><ele>64.0</ele><time>2026-05-01T07:33:57.255Z</time></trkpt><trkpt lat="39.6828579" lon="8.4656407"><ele>64.0</ele><time>2026-05-01T07:33:58.256Z</time></trkpt><trkpt lat="39.6827668" lon="8.4656407"><ele>64.0</ele><time>2026-05-01T07:33:59.256Z</time></trkpt><trkpt lat="39.6826891" lon="8.4656013"><ele>64.0</ele><time>2026-05-01T07:34:00.255Z</time></trkpt><trkpt lat="39.6826284" lon="8.4655232"><ele>62.800000000000004</ele><time>2026-05-01T07:34:01.255Z</time></trkpt><trkpt lat="39.6825687" lon="8.465426"><ele>61.60000000000001</ele><time>2026-05-01T07:34:02.255Z</time></trkpt><trkpt lat="39.682487" lon="8.4653314"><ele>60.4</ele><time>2026-05-01T07:34:03.256Z</time></trkpt><trkpt lat="39.6823925" lon="8.4652455"><ele>59.2</ele><time>2026-05-01T07:34:04.256Z</time></trkpt><trkpt lat="39.6822886" lon="8.4651787"><ele>58.0</ele><time>2026-05-01T07:34:05.254Z</time></trkpt><trkpt lat="39.6821737" lon="8.4651299"><ele>58.0</ele><time>2026-05-01T07:34:06.255Z</time></trkpt><trkpt lat="39.6820508" lon="8.4651025"><ele>58.0</ele><time>2026-05-01T07:34:07.255Z</time></trkpt><trkpt lat="39.6819224" lon="8.4650941"><ele>58.0</ele><time>2026-05-01T07:34:08.255Z</time></trkpt><trkpt lat="39.6817896" lon="8.4651003"><ele>58.0</ele><time>2026-05-01T07:34:09.255Z</time></trkpt><trkpt lat="39.6816586" lon="8.465136"><ele>58.25</ele><time>2026-05-01T07:34:10.255Z</time></trkpt><trkpt lat="39.6815293" lon="8.4651965"><ele>58.5</ele><time>2026-05-01T07:34:11.255Z</time></trkpt><trkpt lat="39.6813991" lon="8.4652679"><ele>58.75</ele><time>2026-05-01T07:34:12.254Z</time></trkpt><trkpt lat="39.6812651" lon="8.4653379"><ele>59.0</ele><time>2026-05-01T07:34:13.254Z</time></trkpt><trkpt lat="39.6811321" lon="8.4653865"><ele>57.5</ele><time>2026-05-01T07:34:14.254Z</time></trkpt><trkpt lat="39.6810005" lon="8.4654049"><ele>56.0</ele><time>2026-05-01T07:34:15.254Z</time></trkpt><trkpt lat="39.680867" lon="8.4653924"><ele>54.5</ele><time>2026-05-01T07:34:16.255Z</time></trkpt><trkpt lat="39.6807406" lon="8.4653463"><ele>53.0</ele><time>2026-05-01T07:34:17.256Z</time></trkpt><trkpt lat="39.6806232" lon="8.4652762"><ele>53.0</ele><time>2026-05-01T07:34:18.256Z</time></trkpt><trkpt lat="39.6805115" lon="8.4652137"><ele>53.0</ele><time>2026-05-01T07:34:19.256Z</time></trkpt><trkpt lat="39.6804002" lon="8.4651915"><ele>53.0</ele><time>2026-05-01T07:34:20.256Z</time></trkpt><trkpt lat="39.6802981" lon="8.4651725"><ele>53.0</ele><time>2026-05-01T07:34:21.256Z</time></trkpt><trkpt lat="39.6802024" lon="8.4651153"><ele>53.0</ele><time>2026-05-01T07:34:22.255Z</time></trkpt><trkpt lat="39.6801208" lon="8.4650243"><ele>52.5</ele><time>2026-05-01T07:34:23.254Z</time></trkpt><trkpt lat="39.6800479" lon="8.4649069"><ele>52.0</ele><time>2026-05-01T07:34:24.256Z</time></trkpt><trkpt lat="39.679972" lon="8.4647722"><ele>51.5</ele><time>2026-05-01T07:34:25.255Z</time></trkpt><trkpt lat="39.679896" lon="8.4646418"><ele>51.0</ele><time>2026-05-01T07:34:26.255Z</time></trkpt><trkpt lat="39.6798251" lon="8.4645308"><ele>51.0</ele><time>2026-05-01T07:34:27.255Z</time></trkpt><trkpt lat="39.6797543" lon="8.4644578"><ele>51.0</ele><time>2026-05-01T07:34:28.254Z</time></trkpt><trkpt lat="39.6796734" lon="8.4644274"><ele>51.0</ele><time>2026-05-01T07:34:29.256Z</time></trkpt><trkpt lat="39.6795918" lon="8.4644407"><ele>51.0</ele><time>2026-05-01T07:34:30.255Z</time></trkpt><trkpt lat="39.6794976" lon="8.4644755"><ele>51.0</ele><time>2026-05-01T07:34:31.255Z</time></trkpt><trkpt lat="39.6793866" lon="8.4645158"><ele>51.75</ele><time>2026-05-01T07:34:32.253Z</time></trkpt><trkpt lat="39.6792576" lon="8.4645554"><ele>52.5</ele><time>2026-05-01T07:34:33.253Z</time></trkpt><trkpt lat="39.6791121" lon="8.4645948"><ele>53.25</ele><time>2026-05-01T07:34:34.254Z</time></trkpt><trkpt lat="39.6789798" lon="8.4646286"><ele>54.0</ele><time>2026-05-01T07:34:35.254Z</time></trkpt><trkpt lat="39.6788517" lon="8.4646738"><ele>54.2</ele><time>2026-05-01T07:34:36.255Z</time></trkpt><trkpt lat="39.6787356" lon="8.4647347"><ele>54.400000000000006</ele><time>2026-05-01T07:34:37.255Z</time></trkpt><trkpt lat="39.6786361" lon="8.464798"><ele>54.6</ele><time>2026-05-01T07:34:38.255Z</time></trkpt><trkpt lat="39.6785522" lon="8.464852"><ele>54.8</ele><time>2026-05-01T07:34:39.253Z</time></trkpt><trkpt lat="39.6784816" lon="8.4648854"><ele>55.0</ele><time>2026-05-01T07:34:40.254Z</time></trkpt><trkpt lat="39.678417" lon="8.4648941"><ele>55.0</ele><time>2026-05-01T07:34:41.253Z</time></trkpt><trkpt lat="39.6783093" lon="8.4648458"><ele>55.0</ele><time>2026-05-01T07:34:43.255Z</time></trkpt><trkpt lat="39.6782292" lon="8.4647553"><ele>55.0</ele><time>2026-05-01T07:34:45.255Z</time></trkpt><trkpt lat="39.6781914" lon="8.4646513"><ele>55.0</ele><time>2026-05-01T07:34:47.253Z</time></trkpt><trkpt lat="39.6781885" lon="8.4645287"><ele>55.0</ele><time>2026-05-01T07:34:49.253Z</time></trkpt><trkpt lat="39.678234" lon="8.464369"><ele>53.6</ele><time>2026-05-01T07:34:51.255Z</time></trkpt><trkpt lat="39.6782836" lon="8.4642808"><ele>52.2</ele><time>2026-05-01T07:34:52.254Z</time></trkpt><trkpt lat="39.6783418" lon="8.4641813"><ele>50.8</ele><time>2026-05-01T07:34:53.255Z</time></trkpt><trkpt lat="39.6783975" lon="8.4640724"><ele>49.4</ele><time>2026-05-01T07:34:54.254Z</time></trkpt><trkpt lat="39.6784376" lon="8.4639562"><ele>48.0</ele><time>2026-05-01T07:34:55.254Z</time></trkpt><trkpt lat="39.6784551" lon="8.4638185"><ele>48.25</ele><time>2026-05-01T07:34:56.254Z</time></trkpt><trkpt lat="39.6784576" lon="8.4636677"><ele>48.5</ele><time>2026-05-01T07:34:57.254Z</time></trkpt><trkpt lat="39.6784491" lon="8.4635109"><ele>48.75</ele><time>2026-05-01T07:34:58.255Z</time></trkpt><trkpt lat="39.6784395" lon="8.4633603"><ele>49.0</ele><time>2026-05-01T07:34:59.255Z</time></trkpt><trkpt lat="39.6784371" lon="8.463215"><ele>49.0</ele><time>2026-05-01T07:35:00.254Z</time></trkpt><trkpt lat="39.6784469" lon="8.4630744"><ele>49.0</ele><time>2026-05-01T07:35:01.255Z</time></trkpt><trkpt lat="39.6784716" lon="8.4629451"><ele>49.0</ele><time>2026-05-01T07:35:02.255Z</time></trkpt><trkpt lat="39.6785079" lon="8.4628342"><ele>49.0</ele><time>2026-05-01T07:35:03.254Z</time></trkpt><trkpt lat="39.678546" lon="8.4627467"><ele>49.0</ele><time>2026-05-01T07:35:04.254Z</time></trkpt><trkpt lat="39.6786001" lon="8.4626367"><ele>47.83333333333333</ele><time>2026-05-01T07:35:06.254Z</time></trkpt><trkpt lat="39.6786379" lon="8.4625686"><ele>46.666666666666664</ele><time>2026-05-01T07:35:09.254Z</time></trkpt><trkpt lat="39.6786927" lon="8.4625001"><ele>45.5</ele><time>2026-05-01T07:35:13.254Z</time></trkpt><trkpt lat="39.6787902" lon="8.4624775"><ele>44.33333333333333</ele><time>2026-05-01T07:35:16.255Z</time></trkpt><trkpt lat="39.6788638" lon="8.462489"><ele>43.166666666666664</ele><time>2026-05-01T07:35:18.255Z</time></trkpt><trkpt lat="39.6789746" lon="8.4624717"><ele>42.0</ele><time>2026-05-01T07:35:20.255Z</time></trkpt><trkpt lat="39.6790429" lon="8.4624419"><ele>42.0</ele><time>2026-05-01T07:35:21.255Z</time></trkpt><trkpt lat="39.6791252" lon="8.4623931"><ele>42.0</ele><time>2026-05-01T07:35:22.254Z</time></trkpt><trkpt lat="39.6792216" lon="8.4623358"><ele>42.0</ele><time>2026-05-01T07:35:23.254Z</time></trkpt><trkpt lat="39.6793186" lon="8.4622852"><ele>42.0</ele><time>2026-05-01T07:35:24.254Z</time></trkpt><trkpt lat="39.6794075" lon="8.4622495"><ele>42.0</ele><time>2026-05-01T07:35:25.254Z</time></trkpt><trkpt lat="39.6794953" lon="8.4622236"><ele>42.0</ele><time>2026-05-01T07:35:26.255Z</time></trkpt><trkpt lat="39.6795762" lon="8.4621934"><ele>42.0</ele><time>2026-05-01T07:35:27.253Z</time></trkpt><trkpt lat="39.6796394" lon="8.4621437"><ele>42.0</ele><time>2026-05-01T07:35:28.255Z</time></trkpt><trkpt lat="39.679688" lon="8.4620781"><ele>42.0</ele><time>2026-05-01T07:35:29.255Z</time></trkpt><trkpt lat="39.6797334" lon="8.4619879"><ele>42.0</ele><time>2026-05-01T07:35:30.254Z</time></trkpt><trkpt lat="39.6797821" lon="8.4618786"><ele>42.0</ele><time>2026-05-01T07:35:31.255Z</time></trkpt><trkpt lat="39.6798367" lon="8.4617532"><ele>42.0</ele><time>2026-05-01T07:35:32.255Z</time></trkpt><trkpt lat="39.6798983" lon="8.4616144"><ele>42.0</ele><time>2026-05-01T07:35:33.254Z</time></trkpt><trkpt lat="39.6799627" lon="8.4614789"><ele>42.0</ele><time>2026-05-01T07:35:34.255Z</time></trkpt><trkpt lat="39.680027" lon="8.4613534"><ele>42.0</ele><time>2026-05-01T07:35:35.254Z</time></trkpt><trkpt lat="39.6800957" lon="8.4612226"><ele>41.5</ele><time>2026-05-01T07:35:36.254Z</time></trkpt><trkpt lat="39.6801699" lon="8.4610929"><ele>41.0</ele><time>2026-05-01T07:35:37.255Z</time></trkpt><trkpt lat="39.6802519" lon="8.460968"><ele>40.5</ele><time>2026-05-01T07:35:38.254Z</time></trkpt><trkpt lat="39.6803401" lon="8.460847"><ele>40.0</ele><time>2026-05-01T07:35:39.255Z</time></trkpt><trkpt lat="39.6804304" lon="8.4607277"><ele>40.0</ele><time>2026-05-01T07:35:40.255Z</time></trkpt><trkpt lat="39.6805206" lon="8.4606182"><ele>40.0</ele><time>2026-05-01T07:35:41.255Z</time></trkpt><trkpt lat="39.6806086" lon="8.4605183"><ele>40.0</ele><time>2026-05-01T07:35:42.255Z</time></trkpt><trkpt lat="39.6806951" lon="8.4604253"><ele>40.0</ele><time>2026-05-01T07:35:43.253Z</time></trkpt><trkpt lat="39.680783" lon="8.4603368"><ele>40.2</ele><time>2026-05-01T07:35:44.254Z</time></trkpt><trkpt lat="39.6808717" lon="8.4602574"><ele>40.4</ele><time>2026-05-01T07:35:45.255Z</time></trkpt><trkpt lat="39.680959" lon="8.4601886"><ele>40.599999999999994</ele><time>2026-05-01T07:35:46.254Z</time></trkpt><trkpt lat="39.68104" lon="8.4601274"><ele>40.8</ele><time>2026-05-01T07:35:47.254Z</time></trkpt><trkpt lat="39.6811144" lon="8.4600713"><ele>41.0</ele><time>2026-05-01T07:35:48.254Z</time></trkpt><trkpt lat="39.6811889" lon="8.4600072"><ele>41.0</ele><time>2026-05-01T07:35:49.254Z</time></trkpt><trkpt lat="39.681266" lon="8.4599343"><ele>41.0</ele><time>2026-05-01T07:35:50.254Z</time></trkpt><trkpt lat="39.6813512" lon="8.4598525"><ele>41.0</ele><time>2026-05-01T07:35:51.254Z</time></trkpt><trkpt lat="39.6814413" lon="8.4597627"><ele>41.0</ele><time>2026-05-01T07:35:52.254Z</time></trkpt><trkpt lat="39.6815328" lon="8.4596714"><ele>41.0</ele><time>2026-05-01T07:35:53.253Z</time></trkpt><trkpt lat="39.6816214" lon="8.4595886"><ele>40.199999999999996</ele><time>2026-05-01T07:35:54.253Z</time></trkpt><trkpt lat="39.6817144" lon="8.4594992"><ele>39.4</ele><time>2026-05-01T07:35:55.254Z</time></trkpt><trkpt lat="39.681801" lon="8.459414"><ele>38.6</ele><time>2026-05-01T07:35:56.254Z</time></trkpt><trkpt lat="39.6818838" lon="8.4593346"><ele>37.8</ele><time>2026-05-01T07:35:57.255Z</time></trkpt><trkpt lat="39.6819579" lon="8.4592586"><ele>37.0</ele><time>2026-05-01T07:35:58.255Z</time></trkpt><trkpt lat="39.6820233" lon="8.4591749"><ele>37.0</ele><time>2026-05-01T07:35:59.254Z</time></trkpt><trkpt lat="39.6820698" lon="8.4590851"><ele>37.0</ele><time>2026-05-01T07:36:00.255Z</time></trkpt><trkpt lat="39.6820905" lon="8.4589959"><ele>37.0</ele><time>2026-05-01T07:36:01.254Z</time></trkpt><trkpt lat="39.6820964" lon="8.4588965"><ele>37.0</ele><time>2026-05-01T07:36:02.253Z</time></trkpt><trkpt lat="39.6820904" lon="8.4587843"><ele>37.0</ele><time>2026-05-01T07:36:03.255Z</time></trkpt><trkpt lat="39.6820737" lon="8.4586612"><ele>37.0</ele><time>2026-05-01T07:36:04.254Z</time></trkpt><trkpt lat="39.6820572" lon="8.4585373"><ele>37.2</ele><time>2026-05-01T07:36:05.254Z</time></trkpt><trkpt lat="39.6820414" lon="8.4584161"><ele>37.400000000000006</ele><time>2026-05-01T07:36:06.254Z</time></trkpt><trkpt lat="39.6820384" lon="8.4582867"><ele>37.599999999999994</ele><time>2026-05-01T07:36:07.255Z</time></trkpt><trkpt lat="39.682052" lon="8.4581577"><ele>37.8</ele><time>2026-05-01T07:36:08.253Z</time></trkpt><trkpt lat="39.6820756" lon="8.4580332"><ele>38.0</ele><time>2026-05-01T07:36:09.254Z</time></trkpt><trkpt lat="39.6821084" lon="8.4579197"><ele>38.0</ele><time>2026-05-01T07:36:10.253Z</time></trkpt><trkpt lat="39.6821473" lon="8.457815"><ele>38.0</ele><time>2026-05-01T07:36:11.254Z</time></trkpt><trkpt lat="39.6821905" lon="8.4577159"><ele>38.0</ele><time>2026-05-01T07:36:12.255Z</time></trkpt><trkpt lat="39.682235" lon="8.4576295"><ele>38.0</ele><time>2026-05-01T07:36:13.255Z</time></trkpt><trkpt lat="39.6822869" lon="8.457553"><ele>38.0</ele><time>2026-05-01T07:36:14.254Z</time></trkpt><trkpt lat="39.6823493" lon="8.4574838"><ele>38.0</ele><time>2026-05-01T07:36:15.254Z</time></trkpt><trkpt lat="39.6824139" lon="8.4574173"><ele>38.0</ele><time>2026-05-01T07:36:16.255Z</time></trkpt><trkpt lat="39.682474" lon="8.4573563"><ele>38.0</ele><time>2026-05-01T07:36:17.255Z</time></trkpt><trkpt lat="39.6825187" lon="8.4572936"><ele>38.0</ele><time>2026-05-01T07:36:18.253Z</time></trkpt><trkpt lat="39.6825451" lon="8.4572171"><ele>38.0</ele><time>2026-05-01T07:36:19.254Z</time></trkpt><trkpt lat="39.682523" lon="8.4570576"><ele>38.0</ele><time>2026-05-01T07:36:21.255Z</time></trkpt><trkpt lat="39.6824785" lon="8.4569944"><ele>38.0</ele><time>2026-05-01T07:36:22.254Z</time></trkpt><trkpt lat="39.6824132" lon="8.4569404"><ele>37.33333333333333</ele><time>2026-05-01T07:36:23.254Z</time></trkpt><trkpt lat="39.6823353" lon="8.4568868"><ele>36.666666666666664</ele><time>2026-05-01T07:36:24.255Z</time></trkpt><trkpt lat="39.682258" lon="8.4568289"><ele>36.0</ele><time>2026-05-01T07:36:25.254Z</time></trkpt><trkpt lat="39.6821832" lon="8.4567745"><ele>35.333333333333336</ele><time>2026-05-01T07:36:26.254Z</time></trkpt><trkpt lat="39.6821135" lon="8.4567222"><ele>34.66666666666667</ele><time>2026-05-01T07:36:27.253Z</time></trkpt><trkpt lat="39.6820468" lon="8.4566722"><ele>34.0</ele><time>2026-05-01T07:36:28.254Z</time></trkpt><trkpt lat="39.6819863" lon="8.4566197"><ele>36.833333333333336</ele><time>2026-05-01T07:36:29.255Z</time></trkpt><trkpt lat="39.6819243" lon="8.4565698"><ele>39.66666666666667</ele><time>2026-05-01T07:36:30.254Z</time></trkpt><trkpt lat="39.6818559" lon="8.4565248"><ele>42.5</ele><time>2026-05-01T07:36:31.253Z</time></trkpt><trkpt lat="39.6817832" lon="8.4564891"><ele>45.333333333333336</ele><time>2026-05-01T07:36:32.254Z</time></trkpt><trkpt lat="39.6817095" lon="8.4564554"><ele>48.166666666666664</ele><time>2026-05-01T07:36:33.255Z</time></trkpt><trkpt lat="39.681639" lon="8.4564271"><ele>51.0</ele><time>2026-05-01T07:36:34.255Z</time></trkpt><trkpt lat="39.6815266" lon="8.4563741"><ele>47.4</ele><time>2026-05-01T07:36:36.253Z</time></trkpt><trkpt lat="39.6814447" lon="8.4562673"><ele>43.8</ele><time>2026-05-01T07:36:38.255Z</time></trkpt><trkpt lat="39.6814089" lon="8.4561144"><ele>40.199999999999996</ele><time>2026-05-01T07:36:40.255Z</time></trkpt><trkpt lat="39.6814007" lon="8.4560283"><ele>36.599999999999994</ele><time>2026-05-01T07:36:41.253Z</time></trkpt><trkpt lat="39.6813946" lon="8.4559377"><ele>33.0</ele><time>2026-05-01T07:36:42.253Z</time></trkpt><trkpt lat="39.6813865" lon="8.4558423"><ele>33.0</ele><time>2026-05-01T07:36:43.254Z</time></trkpt><trkpt lat="39.6813817" lon="8.4557466"><ele>33.0</ele><time>2026-05-01T07:36:44.255Z</time></trkpt><trkpt lat="39.6813839" lon="8.4556527"><ele>33.0</ele><time>2026-05-01T07:36:45.255Z</time></trkpt><trkpt lat="39.6814008" lon="8.4555628"><ele>33.0</ele><time>2026-05-01T07:36:46.255Z</time></trkpt><trkpt lat="39.68143" lon="8.4554703"><ele>33.0</ele><time>2026-05-01T07:36:47.255Z</time></trkpt><trkpt lat="39.6814695" lon="8.4553753"><ele>33.0</ele><time>2026-05-01T07:36:48.254Z</time></trkpt><trkpt lat="39.6815159" lon="8.4552821"><ele>34.4</ele><time>2026-05-01T07:36:49.254Z</time></trkpt><trkpt lat="39.6815719" lon="8.455189"><ele>35.8</ele><time>2026-05-01T07:36:50.254Z</time></trkpt><trkpt lat="39.681638" lon="8.4550964"><ele>37.2</ele><time>2026-05-01T07:36:51.253Z</time></trkpt><trkpt lat="39.6817074" lon="8.4549981"><ele>38.6</ele><time>2026-05-01T07:36:52.254Z</time></trkpt><trkpt lat="39.6817749" lon="8.454899"><ele>40.0</ele><time>2026-05-01T07:36:53.254Z</time></trkpt><trkpt lat="39.6818345" lon="8.4547957"><ele>40.0</ele><time>2026-05-01T07:36:54.253Z</time></trkpt><trkpt lat="39.6818725" lon="8.4547005"><ele>40.0</ele><time>2026-05-01T07:36:55.253Z</time></trkpt><trkpt lat="39.6818909" lon="8.4546079"><ele>40.0</ele><time>2026-05-01T07:36:56.254Z</time></trkpt><trkpt lat="39.681887" lon="8.4545163"><ele>40.0</ele><time>2026-05-01T07:36:57.255Z</time></trkpt><trkpt lat="39.6818725" lon="8.4544244"><ele>40.0</ele><time>2026-05-01T07:36:58.255Z</time></trkpt><trkpt lat="39.6818457" lon="8.4543264"><ele>40.0</ele><time>2026-05-01T07:36:59.254Z</time></trkpt><trkpt lat="39.6818101" lon="8.4542214"><ele>40.16666666666667</ele><time>2026-05-01T07:37:00.255Z</time></trkpt><trkpt lat="39.6817732" lon="8.4541111"><ele>40.333333333333336</ele><time>2026-05-01T07:37:01.254Z</time></trkpt><trkpt lat="39.6817434" lon="8.4539985"><ele>40.5</ele><time>2026-05-01T07:37:02.254Z</time></trkpt><trkpt lat="39.6817234" lon="8.4538906"><ele>40.666666666666664</ele><time>2026-05-01T07:37:03.254Z</time></trkpt><trkpt lat="39.6817107" lon="8.4537835"><ele>40.83333333333333</ele><time>2026-05-01T07:37:04.254Z</time></trkpt><trkpt lat="39.6817139" lon="8.4536809"><ele>41.0</ele><time>2026-05-01T07:37:05.254Z</time></trkpt><trkpt lat="39.6817333" lon="8.4535793"><ele>41.0</ele><time>2026-05-01T07:37:06.253Z</time></trkpt><trkpt lat="39.6817533" lon="8.4534819"><ele>41.0</ele><time>2026-05-01T07:37:07.255Z</time></trkpt><trkpt lat="39.681777" lon="8.4533831"><ele>41.0</ele><time>2026-05-01T07:37:08.253Z</time></trkpt><trkpt lat="39.6818045" lon="8.4532836"><ele>41.0</ele><time>2026-05-01T07:37:09.255Z</time></trkpt><trkpt lat="39.6818395" lon="8.4531859"><ele>41.0</ele><time>2026-05-01T07:37:10.254Z</time></trkpt><trkpt lat="39.6818826" lon="8.4531028"><ele>41.0</ele><time>2026-05-01T07:37:11.255Z</time></trkpt><trkpt lat="39.6819345" lon="8.4530369"><ele>41.33333333333333</ele><time>2026-05-01T07:37:12.253Z</time></trkpt><trkpt lat="39.6819954" lon="8.4529856"><ele>41.666666666666664</ele><time>2026-05-01T07:37:13.254Z</time></trkpt><trkpt lat="39.6820614" lon="8.4529382"><ele>42.0</ele><time>2026-05-01T07:37:14.254Z</time></trkpt><trkpt lat="39.682133" lon="8.4528911"><ele>42.333333333333336</ele><time>2026-05-01T07:37:15.255Z</time></trkpt><trkpt lat="39.6822093" lon="8.4528381"><ele>42.66666666666667</ele><time>2026-05-01T07:37:16.254Z</time></trkpt><trkpt lat="39.6822879" lon="8.4527796"><ele>43.0</ele><time>2026-05-01T07:37:17.255Z</time></trkpt><trkpt lat="39.6823687" lon="8.452714"><ele>43.0</ele><time>2026-05-01T07:37:18.254Z</time></trkpt><trkpt lat="39.6824389" lon="8.452649"><ele>43.0</ele><time>2026-05-01T07:37:19.255Z</time></trkpt><trkpt lat="39.6825041" lon="8.4526037"><ele>43.0</ele><time>2026-05-01T07:37:20.254Z</time></trkpt><trkpt lat="39.6825657" lon="8.452581"><ele>43.0</ele><time>2026-05-01T07:37:21.254Z</time></trkpt><trkpt lat="39.6826898" lon="8.4525875"><ele>43.0</ele><time>2026-05-01T07:37:23.253Z</time></trkpt><trkpt lat="39.6827629" lon="8.4526068"><ele>43.0</ele><time>2026-05-01T07:37:24.254Z</time></trkpt><trkpt lat="39.6828468" lon="8.4526284"><ele>40.0</ele><time>2026-05-01T07:37:25.253Z</time></trkpt><trkpt lat="39.6829344" lon="8.4526468"><ele>37.0</ele><time>2026-05-01T07:37:26.254Z</time></trkpt><trkpt lat="39.6830227" lon="8.4526669"><ele>34.0</ele><time>2026-05-01T07:37:27.254Z</time></trkpt><trkpt lat="39.6831101" lon="8.4526722"><ele>31.0</ele><time>2026-05-01T07:37:28.254Z</time></trkpt><trkpt lat="39.6831926" lon="8.4526578"><ele>28.000000000000004</ele><time>2026-05-01T07:37:29.255Z</time></trkpt><trkpt lat="39.6832715" lon="8.4526347"><ele>25.0</ele><time>2026-05-01T07:37:30.255Z</time></trkpt><trkpt lat="39.6833526" lon="8.4526009"><ele>25.000000000000004</ele><time>2026-05-01T07:37:31.254Z</time></trkpt><trkpt lat="39.6834254" lon="8.4525609"><ele>25.0</ele><time>2026-05-01T07:37:32.253Z</time></trkpt><trkpt lat="39.6834922" lon="8.4525145"><ele>25.0</ele><time>2026-05-01T07:37:33.254Z</time></trkpt><trkpt lat="39.683544" lon="8.4524537"><ele>25.0</ele><time>2026-05-01T07:37:34.255Z</time></trkpt><trkpt lat="39.6835895" lon="8.4523786"><ele>25.000000000000004</ele><time>2026-05-01T07:37:35.254Z</time></trkpt><trkpt lat="39.6836286" lon="8.4522876"><ele>25.0</ele><time>2026-05-01T07:37:36.255Z</time></trkpt><trkpt lat="39.6836628" lon="8.4521858"><ele>23.0</ele><time>2026-05-01T07:37:37.253Z</time></trkpt><trkpt lat="39.6836881" lon="8.452074"><ele>21.0</ele><time>2026-05-01T07:37:38.253Z</time></trkpt><trkpt lat="39.6837083" lon="8.4519427"><ele>19.0</ele><time>2026-05-01T07:37:39.253Z</time></trkpt><trkpt lat="39.6837282" lon="8.451811"><ele>17.0</ele><time>2026-05-01T07:37:40.255Z</time></trkpt><trkpt lat="39.6837578" lon="8.4516859"><ele>15.0</ele><time>2026-05-01T07:37:41.254Z</time></trkpt><trkpt lat="39.6837985" lon="8.4515616"><ele>15.0</ele><time>2026-05-01T07:37:42.255Z</time></trkpt><trkpt lat="39.6838541" lon="8.4514376"><ele>15.0</ele><time>2026-05-01T07:37:43.255Z</time></trkpt><trkpt lat="39.6839142" lon="8.4513326"><ele>15.0</ele><time>2026-05-01T07:37:44.254Z</time></trkpt><trkpt lat="39.6839741" lon="8.4512402"><ele>15.0</ele><time>2026-05-01T07:37:45.255Z</time></trkpt><trkpt lat="39.6840284" lon="8.4511472"><ele>15.0</ele><time>2026-05-01T07:37:46.255Z</time></trkpt><trkpt lat="39.6840683" lon="8.4510515"><ele>15.666666666666666</ele><time>2026-05-01T07:37:47.253Z</time></trkpt><trkpt lat="39.6840895" lon="8.450953"><ele>16.333333333333332</ele><time>2026-05-01T07:37:48.255Z</time></trkpt><trkpt lat="39.684094" lon="8.4508466"><ele>17.0</ele><time>2026-05-01T07:37:49.254Z</time></trkpt><trkpt lat="39.6840826" lon="8.4507331"><ele>17.666666666666664</ele><time>2026-05-01T07:37:50.255Z</time></trkpt><trkpt lat="39.6840701" lon="8.4506115"><ele>18.333333333333332</ele><time>2026-05-01T07:37:51.254Z</time></trkpt><trkpt lat="39.6840662" lon="8.4504833"><ele>19.0</ele><time>2026-05-01T07:37:52.255Z</time></trkpt><trkpt lat="39.6840742" lon="8.4503547"><ele>19.333333333333332</ele><time>2026-05-01T07:37:53.254Z</time></trkpt><trkpt lat="39.6840955" lon="8.4502361"><ele>19.666666666666664</ele><time>2026-05-01T07:37:54.255Z</time></trkpt><trkpt lat="39.6841264" lon="8.4501305"><ele>20.0</ele><time>2026-05-01T07:37:55.254Z</time></trkpt><trkpt lat="39.684166" lon="8.4500322"><ele>20.333333333333332</ele><time>2026-05-01T07:37:56.255Z</time></trkpt><trkpt lat="39.6842284" lon="8.4499585"><ele>20.666666666666668</ele><time>2026-05-01T07:37:57.254Z</time></trkpt><trkpt lat="39.6843004" lon="8.4499114"><ele>21.0</ele><time>2026-05-01T07:37:58.253Z</time></trkpt><trkpt lat="39.6843733" lon="8.4498799"><ele>19.333333333333332</ele><time>2026-05-01T07:37:59.255Z</time></trkpt><trkpt lat="39.6844379" lon="8.4498406"><ele>17.666666666666668</ele><time>2026-05-01T07:38:00.254Z</time></trkpt><trkpt lat="39.684486" lon="8.4497783"><ele>16.0</ele><time>2026-05-01T07:38:01.253Z</time></trkpt><trkpt lat="39.6845229" lon="8.4497041"><ele>14.333333333333332</ele><time>2026-05-01T07:38:02.255Z</time></trkpt><trkpt lat="39.68455" lon="8.4496113"><ele>12.666666666666666</ele><time>2026-05-01T07:38:03.254Z</time></trkpt><trkpt lat="39.684566" lon="8.4495043"><ele>11.0</ele><time>2026-05-01T07:38:04.254Z</time></trkpt><trkpt lat="39.6845785" lon="8.4493826"><ele>10.8</ele><time>2026-05-01T07:38:05.254Z</time></trkpt><trkpt lat="39.6846012" lon="8.4492572"><ele>10.600000000000001</ele><time>2026-05-01T07:38:06.255Z</time></trkpt><trkpt lat="39.6846382" lon="8.4491414"><ele>10.4</ele><time>2026-05-01T07:38:07.255Z</time></trkpt><trkpt lat="39.6846939" lon="8.449044"><ele>10.2</ele><time>2026-05-01T07:38:08.254Z</time></trkpt><trkpt lat="39.6847621" lon="8.4489654"><ele>10.0</ele><time>2026-05-01T07:38:09.255Z</time></trkpt><trkpt lat="39.68483" lon="8.4488946"><ele>10.0</ele><time>2026-05-01T07:38:10.254Z</time></trkpt><trkpt lat="39.6848927" lon="8.448828"><ele>10.0</ele><time>2026-05-01T07:38:11.253Z</time></trkpt><trkpt lat="39.684959" lon="8.4487513"><ele>10.0</ele><time>2026-05-01T07:38:12.254Z</time></trkpt><trkpt lat="39.685025" lon="8.4486712"><ele>10.0</ele><time>2026-05-01T07:38:13.254Z</time></trkpt><trkpt lat="39.6850861" lon="8.4485864"><ele>10.0</ele><time>2026-05-01T07:38:14.254Z</time></trkpt><trkpt lat="39.6851397" lon="8.4485076"><ele>10.0</ele><time>2026-05-01T07:38:15.255Z</time></trkpt><trkpt lat="39.6851816" lon="8.4484359"><ele>9.0</ele><time>2026-05-01T07:38:16.255Z</time></trkpt><trkpt lat="39.6852149" lon="8.4483625"><ele>8.0</ele><time>2026-05-01T07:38:17.254Z</time></trkpt><trkpt lat="39.6852356" lon="8.448283"><ele>7.0</ele><time>2026-05-01T07:38:18.255Z</time></trkpt><trkpt lat="39.6852515" lon="8.4482009"><ele>6.0</ele><time>2026-05-01T07:38:19.254Z</time></trkpt><trkpt lat="39.6852673" lon="8.4480686"><ele>5.0</ele><time>2026-05-01T07:38:21.254Z</time></trkpt><trkpt lat="39.6852652" lon="8.4479784"><ele>4.0</ele><time>2026-05-01T07:38:23.255Z</time></trkpt><trkpt lat="39.6852573" lon="8.4478884"><ele>3.0</ele><time>2026-05-01T07:38:25.255Z</time></trkpt><trkpt lat="39.6853218" lon="8.4479119"><ele>2.9999999999999996</ele><time>2026-05-01T07:40:39.252Z</time></trkpt><trkpt lat="39.6852967" lon="8.447988"><ele>3.0</ele><time>2026-05-01T07:43:01.253Z</time></trkpt><trkpt lat="39.6853149" lon="8.4479093"><ele>3.0</ele><time>2026-05-01T07:47:35.253Z</time></trkpt><trkpt lat="39.6852521" lon="8.4478747"><ele>3.0</ele><time>2026-05-01T07:49:23.252Z</time></trkpt><trkpt lat="39.6852328" lon="8.4477487"><ele>3.0</ele><time>2026-05-01T07:53:23.252Z</time></trkpt><trkpt lat="39.6852086" lon="8.447671"><ele>2.9999999999999996</ele><time>2026-05-01T07:53:24.253Z</time></trkpt><trkpt lat="39.6851726" lon="8.4475778"><ele>3.0</ele><time>2026-05-01T07:53:25.253Z</time></trkpt><trkpt lat="39.6851156" lon="8.4474711"><ele>5.4</ele><time>2026-05-01T07:53:26.253Z</time></trkpt><trkpt lat="39.685059" lon="8.4473646"><ele>7.8</ele><time>2026-05-01T07:53:27.252Z</time></trkpt><trkpt lat="39.6849961" lon="8.4472562"><ele>10.2</ele><time>2026-05-01T07:53:28.252Z</time></trkpt><trkpt lat="39.6849236" lon="8.4471614"><ele>12.6</ele><time>2026-05-01T07:53:29.252Z</time></trkpt><trkpt lat="39.684839" lon="8.4470839"><ele>15.0</ele><time>2026-05-01T07:53:30.252Z</time></trkpt><trkpt lat="39.6847449" lon="8.4470255"><ele>15.0</ele><time>2026-05-01T07:53:31.252Z</time></trkpt><trkpt lat="39.6846449" lon="8.4469706"><ele>15.0</ele><time>2026-05-01T07:53:32.252Z</time></trkpt><trkpt lat="39.6845472" lon="8.4469112"><ele>15.0</ele><time>2026-05-01T07:53:33.252Z</time></trkpt><trkpt lat="39.6844631" lon="8.4468592"><ele>15.0</ele><time>2026-05-01T07:53:34.252Z</time></trkpt><trkpt lat="39.6843922" lon="8.4468173"><ele>15.0</ele><time>2026-05-01T07:53:35.252Z</time></trkpt><trkpt lat="39.6843237" lon="8.446791"><ele>20.0</ele><time>2026-05-01T07:53:36.252Z</time></trkpt><trkpt lat="39.6842623" lon="8.4468103"><ele>25.0</ele><time>2026-05-01T07:53:37.251Z</time></trkpt><trkpt lat="39.6842128" lon="8.4468681"><ele>30.0</ele><time>2026-05-01T07:53:38.252Z</time></trkpt><trkpt lat="39.684173" lon="8.446946"><ele>35.0</ele><time>2026-05-01T07:53:39.253Z</time></trkpt><trkpt lat="39.6841536" lon="8.4470478"><ele>40.0</ele><time>2026-05-01T07:53:40.253Z</time></trkpt><trkpt lat="39.6841512" lon="8.4471644"><ele>45.0</ele><time>2026-05-01T07:53:41.252Z</time></trkpt><trkpt lat="39.6841623" lon="8.4472881"><ele>46.0</ele><time>2026-05-01T07:53:42.252Z</time></trkpt><trkpt lat="39.6841875" lon="8.4474043"><ele>47.0</ele><time>2026-05-01T07:53:43.251Z</time></trkpt><trkpt lat="39.6842183" lon="8.4475014"><ele>48.0</ele><time>2026-05-01T07:53:44.252Z</time></trkpt><trkpt lat="39.6842392" lon="8.447591"><ele>49.0</ele><time>2026-05-01T07:53:45.253Z</time></trkpt><trkpt lat="39.684237" lon="8.4476799"><ele>50.0</ele><time>2026-05-01T07:53:46.252Z</time></trkpt><trkpt lat="39.684162" lon="8.4477866"><ele>51.0</ele><time>2026-05-01T07:53:48.252Z</time></trkpt><trkpt lat="39.6840518" lon="8.4477485"><ele>51.0</ele><time>2026-05-01T07:53:50.252Z</time></trkpt><trkpt lat="39.6840167" lon="8.4476653"><ele>51.0</ele><time>2026-05-01T07:53:51.252Z</time></trkpt><trkpt lat="39.6839791" lon="8.44757"><ele>51.0</ele><time>2026-05-01T07:53:52.253Z</time></trkpt><trkpt lat="39.6839295" lon="8.447453"><ele>51.0</ele><time>2026-05-01T07:53:53.253Z</time></trkpt><trkpt lat="39.6838692" lon="8.4473139"><ele>51.0</ele><time>2026-05-01T07:53:54.252Z</time></trkpt><trkpt lat="39.683802" lon="8.447155"><ele>49.5</ele><time>2026-05-01T07:53:55.253Z</time></trkpt><trkpt lat="39.6837324" lon="8.4469834"><ele>48.0</ele><time>2026-05-01T07:53:56.253Z</time></trkpt><trkpt lat="39.6836673" lon="8.4468338"><ele>46.5</ele><time>2026-05-01T07:53:57.252Z</time></trkpt><trkpt lat="39.6836145" lon="8.4467131"><ele>45.0</ele><time>2026-05-01T07:53:58.253Z</time></trkpt><trkpt lat="39.6835746" lon="8.4466168"><ele>46.57142857142857</ele><time>2026-05-01T07:53:59.252Z</time></trkpt><trkpt lat="39.6835443" lon="8.4465353"><ele>48.142857142857146</ele><time>2026-05-01T07:54:00.252Z</time></trkpt><trkpt lat="39.6835185" lon="8.4464372"><ele>49.714285714285715</ele><time>2026-05-01T07:54:02.251Z</time></trkpt><trkpt lat="39.683482" lon="8.446367"><ele>51.285714285714285</ele><time>2026-05-01T07:54:05.252Z</time></trkpt><trkpt lat="39.6834268" lon="8.4463204"><ele>52.85714285714286</ele><time>2026-05-01T07:54:30.253Z</time></trkpt><trkpt lat="39.6833676" lon="8.4462685"><ele>54.42857142857143</ele><time>2026-05-01T07:54:37.252Z</time></trkpt><trkpt lat="39.6833749" lon="8.4461819"><ele>56.0</ele><time>2026-05-01T07:54:47.251Z</time></trkpt><trkpt lat="39.6833635" lon="8.4461001"><ele>56.0</ele><time>2026-05-01T07:54:52.253Z</time></trkpt><trkpt lat="39.6833767" lon="8.446006"><ele>56.0</ele><time>2026-05-01T07:54:58.205Z</time></trkpt><trkpt lat="39.6833724" lon="8.4459222"><ele>56.0</ele><time>2026-05-01T07:55:03.218Z</time></trkpt><trkpt lat="39.6833396" lon="8.4458503"><ele>56.0</ele><time>2026-05-01T07:55:09.252Z</time></trkpt><trkpt lat="39.683311" lon="8.4457638"><ele>56.0</ele><time>2026-05-01T07:55:15.218Z</time></trkpt><trkpt lat="39.6833572" lon="8.4456855"><ele>56.0</ele><time>2026-05-01T07:55:57.253Z</time></trkpt><trkpt lat="39.6834074" lon="8.4456162"><ele>56.0</ele><time>2026-05-01T07:56:03.253Z</time></trkpt><trkpt lat="39.6834737" lon="8.4456192"><ele>56.0</ele><time>2026-05-01T07:56:30.251Z</time></trkpt><trkpt lat="39.6834876" lon="8.4457078"><ele>56.0</ele><time>2026-05-01T07:56:39.251Z</time></trkpt><trkpt lat="39.6834696" lon="8.4457946"><ele>56.0</ele><time>2026-05-01T07:56:44.253Z</time></trkpt><trkpt lat="39.6834096" lon="8.4458555"><ele>56.0</ele><time>2026-05-01T07:56:50.251Z</time></trkpt><trkpt lat="39.683364" lon="8.4459119"><ele>56.0</ele><time>2026-05-01T07:56:55.251Z</time></trkpt><trkpt lat="39.6833554" lon="8.4460088"><ele>56.0</ele><time>2026-05-01T07:57:00.252Z</time></trkpt><trkpt lat="39.6833587" lon="8.4460997"><ele>56.0</ele><time>2026-05-01T07:57:05.251Z</time></trkpt><trkpt lat="39.6833751" lon="8.4461806"><ele>56.0</ele><time>2026-05-01T07:57:10.251Z</time></trkpt><trkpt lat="39.6833438" lon="8.4462558"><ele>56.0</ele><time>2026-05-01T07:57:21.251Z</time></trkpt><trkpt lat="39.6834014" lon="8.4462928"><ele>56.0</ele><time>2026-05-01T07:57:33.194Z</time></trkpt><trkpt lat="39.6834634" lon="8.4463205"><ele>56.0</ele><time>2026-05-01T07:57:40.251Z</time></trkpt><trkpt lat="39.6834058" lon="8.446274"><ele>56.0</ele><time>2026-05-01T07:58:40.251Z</time></trkpt><trkpt lat="39.6833321" lon="8.4463013"><ele>56.0</ele><time>2026-05-01T07:59:00.252Z</time></trkpt><trkpt lat="39.6833578" lon="8.4463852"><ele>56.0</ele><time>2026-05-01T08:06:06.25Z</time></trkpt><trkpt lat="39.6833806" lon="8.4464703"><ele>56.8</ele><time>2026-05-01T08:07:02.251Z</time></trkpt><trkpt lat="39.6833877" lon="8.4465726"><ele>57.599999999999994</ele><time>2026-05-01T08:07:04.251Z</time></trkpt><trkpt lat="39.6834146" lon="8.4467371"><ele>58.4</ele><time>2026-05-01T08:07:06.25Z</time></trkpt><trkpt lat="39.6834357" lon="8.4468168"><ele>59.2</ele><time>2026-05-01T08:07:07.251Z</time></trkpt><trkpt lat="39.6834539" lon="8.446898"><ele>60.0</ele><time>2026-05-01T08:07:08.25Z</time></trkpt><trkpt lat="39.6834913" lon="8.4470475"><ele>60.0</ele><time>2026-05-01T08:07:10.25Z</time></trkpt><trkpt lat="39.6835087" lon="8.4471264"><ele>60.0</ele><time>2026-05-01T08:07:11.251Z</time></trkpt><trkpt lat="39.6835222" lon="8.4472108"><ele>60.0</ele><time>2026-05-01T08:07:12.251Z</time></trkpt><trkpt lat="39.6835348" lon="8.4472992"><ele>60.0</ele><time>2026-05-01T08:07:13.251Z</time></trkpt><trkpt lat="39.6835443" lon="8.4473848"><ele>60.0</ele><time>2026-05-01T08:07:14.251Z</time></trkpt><trkpt lat="39.6835511" lon="8.4474708"><ele>60.0</ele><time>2026-05-01T08:07:15.25Z</time></trkpt><trkpt lat="39.6835523" lon="8.4475593"><ele>60.0</ele><time>2026-05-01T08:07:16.249Z</time></trkpt><trkpt lat="39.6835417" lon="8.4476476"><ele>61.0</ele><time>2026-05-01T08:07:17.25Z</time></trkpt><trkpt lat="39.6835247" lon="8.4477322"><ele>62.0</ele><time>2026-05-01T08:07:18.251Z</time></trkpt><trkpt lat="39.6834981" lon="8.4478147"><ele>63.0</ele><time>2026-05-01T08:07:19.249Z</time></trkpt><trkpt lat="39.6834657" lon="8.4479003"><ele>64.0</ele><time>2026-05-01T08:07:20.251Z</time></trkpt><trkpt lat="39.6834297" lon="8.4479931"><ele>65.0</ele><time>2026-05-01T08:07:21.25Z</time></trkpt><trkpt lat="39.6833895" lon="8.448092"><ele>66.0</ele><time>2026-05-01T08:07:22.251Z</time></trkpt><trkpt lat="39.6833459" lon="8.4481964"><ele>66.0</ele><time>2026-05-01T08:07:23.251Z</time></trkpt><trkpt lat="39.6832966" lon="8.4483067"><ele>66.0</ele><time>2026-05-01T08:07:24.251Z</time></trkpt><trkpt lat="39.6832416" lon="8.4484188"><ele>66.0</ele><time>2026-05-01T08:07:25.251Z</time></trkpt><trkpt lat="39.6831871" lon="8.4485295"><ele>66.0</ele><time>2026-05-01T08:07:26.25Z</time></trkpt><trkpt lat="39.6831371" lon="8.4486274"><ele>66.0</ele><time>2026-05-01T08:07:27.251Z</time></trkpt><trkpt lat="39.6830897" lon="8.4487184"><ele>66.33333333333333</ele><time>2026-05-01T08:07:28.25Z</time></trkpt><trkpt lat="39.6830423" lon="8.4488005"><ele>66.66666666666667</ele><time>2026-05-01T08:07:29.25Z</time></trkpt><trkpt lat="39.6829862" lon="8.4488792"><ele>67.0</ele><time>2026-05-01T08:07:30.251Z</time></trkpt><trkpt lat="39.6829193" lon="8.4489457"><ele>67.33333333333334</ele><time>2026-05-01T08:07:31.251Z</time></trkpt><trkpt lat="39.6828377" lon="8.4489909"><ele>67.66666666666667</ele><time>2026-05-01T08:07:32.251Z</time></trkpt><trkpt lat="39.6827477" lon="8.4490125"><ele>68.0</ele><time>2026-05-01T08:07:33.25Z</time></trkpt><trkpt lat="39.6826531" lon="8.4490328"><ele>68.0</ele><time>2026-05-01T08:07:34.251Z</time></trkpt><trkpt lat="39.6825557" lon="8.4490567"><ele>68.0</ele><time>2026-05-01T08:07:35.25Z</time></trkpt><trkpt lat="39.6824584" lon="8.4490914"><ele>68.0</ele><time>2026-05-01T08:07:36.249Z</time></trkpt><trkpt lat="39.6823772" lon="8.4491576"><ele>68.0</ele><time>2026-05-01T08:07:37.25Z</time></trkpt><trkpt lat="39.6823108" lon="8.449238"><ele>68.0</ele><time>2026-05-01T08:07:38.251Z</time></trkpt><trkpt lat="39.6822444" lon="8.4493237"><ele>68.0</ele><time>2026-05-01T08:07:39.25Z</time></trkpt><trkpt lat="39.6821746" lon="8.4494053"><ele>68.0</ele><time>2026-05-01T08:07:40.25Z</time></trkpt><trkpt lat="39.6821039" lon="8.449483"><ele>68.0</ele><time>2026-05-01T08:07:41.251Z</time></trkpt><trkpt lat="39.6820344" lon="8.4495509"><ele>68.0</ele><time>2026-05-01T08:07:42.251Z</time></trkpt><trkpt lat="39.6819663" lon="8.4496048"><ele>68.0</ele><time>2026-05-01T08:07:43.25Z</time></trkpt><trkpt lat="39.6818979" lon="8.4496504"><ele>68.0</ele><time>2026-05-01T08:07:44.251Z</time></trkpt><trkpt lat="39.6818292" lon="8.4496936"><ele>67.8</ele><time>2026-05-01T08:07:45.251Z</time></trkpt><trkpt lat="39.6817517" lon="8.4497333"><ele>67.6</ele><time>2026-05-01T08:07:46.25Z</time></trkpt><trkpt lat="39.681665" lon="8.4497582"><ele>67.4</ele><time>2026-05-01T08:07:47.249Z</time></trkpt><trkpt lat="39.6815723" lon="8.4497679"><ele>67.2</ele><time>2026-05-01T08:07:48.249Z</time></trkpt><trkpt lat="39.6814788" lon="8.449757"><ele>67.0</ele><time>2026-05-01T08:07:49.251Z</time></trkpt><trkpt lat="39.6813868" lon="8.449735"><ele>67.0</ele><time>2026-05-01T08:07:50.251Z</time></trkpt><trkpt lat="39.6812967" lon="8.4497055"><ele>67.0</ele><time>2026-05-01T08:07:51.25Z</time></trkpt><trkpt lat="39.6812087" lon="8.4496755"><ele>67.0</ele><time>2026-05-01T08:07:52.249Z</time></trkpt><trkpt lat="39.6811199" lon="8.4496518"><ele>67.0</ele><time>2026-05-01T08:07:53.25Z</time></trkpt><trkpt lat="39.6810363" lon="8.4496392"><ele>67.0</ele><time>2026-05-01T08:07:54.251Z</time></trkpt><trkpt lat="39.6809616" lon="8.4496367"><ele>67.0</ele><time>2026-05-01T08:07:55.251Z</time></trkpt><trkpt lat="39.6808961" lon="8.4496459"><ele>67.2</ele><time>2026-05-01T08:07:56.25Z</time></trkpt><trkpt lat="39.6807838" lon="8.4496799"><ele>67.4</ele><time>2026-05-01T08:07:58.25Z</time></trkpt><trkpt lat="39.6806776" lon="8.4497371"><ele>67.6</ele><time>2026-05-01T08:08:00.251Z</time></trkpt><trkpt lat="39.6805728" lon="8.4498309"><ele>67.8</ele><time>2026-05-01T08:08:02.251Z</time></trkpt><trkpt lat="39.6805242" lon="8.4498898"><ele>68.0</ele><time>2026-05-01T08:08:03.249Z</time></trkpt><trkpt lat="39.6804812" lon="8.4499573"><ele>67.99999999999999</ele><time>2026-05-01T08:08:04.251Z</time></trkpt><trkpt lat="39.680448" lon="8.4500312"><ele>68.0</ele><time>2026-05-01T08:08:05.25Z</time></trkpt><trkpt lat="39.6804218" lon="8.4501085"><ele>68.0</ele><time>2026-05-01T08:08:06.251Z</time></trkpt><trkpt lat="39.6804048" lon="8.4501889"><ele>68.0</ele><time>2026-05-01T08:08:07.251Z</time></trkpt><trkpt lat="39.6803932" lon="8.4502738"><ele>68.0</ele><time>2026-05-01T08:08:08.251Z</time></trkpt><trkpt lat="39.6803965" lon="8.4503632"><ele>67.99999999999999</ele><time>2026-05-01T08:08:09.251Z</time></trkpt><trkpt lat="39.6804091" lon="8.4504484"><ele>68.0</ele><time>2026-05-01T08:08:10.25Z</time></trkpt><trkpt lat="39.6804274" lon="8.4505425"><ele>67.83333333333334</ele><time>2026-05-01T08:08:11.251Z</time></trkpt><trkpt lat="39.6804521" lon="8.4506431"><ele>67.66666666666667</ele><time>2026-05-01T08:08:12.249Z</time></trkpt><trkpt lat="39.6804801" lon="8.4507433"><ele>67.5</ele><time>2026-05-01T08:08:13.251Z</time></trkpt><trkpt lat="39.6805103" lon="8.4508413"><ele>67.33333333333333</ele><time>2026-05-01T08:08:14.251Z</time></trkpt><trkpt lat="39.6805478" lon="8.4509341"><ele>67.16666666666666</ele><time>2026-05-01T08:08:15.251Z</time></trkpt><trkpt lat="39.6805962" lon="8.4510267"><ele>67.0</ele><time>2026-05-01T08:08:16.251Z</time></trkpt><trkpt lat="39.6806511" lon="8.4511177"><ele>67.0</ele><time>2026-05-01T08:08:17.251Z</time></trkpt><trkpt lat="39.6807013" lon="8.451203"><ele>67.0</ele><time>2026-05-01T08:08:18.25Z</time></trkpt><trkpt lat="39.6807377" lon="8.4512927"><ele>67.0</ele><time>2026-05-01T08:08:19.249Z</time></trkpt><trkpt lat="39.6807577" lon="8.4513831"><ele>67.0</ele><time>2026-05-01T08:08:20.25Z</time></trkpt><trkpt lat="39.6807605" lon="8.4514763"><ele>67.0</ele><time>2026-05-01T08:08:21.251Z</time></trkpt><trkpt lat="39.6807479" lon="8.4515737"><ele>67.0</ele><time>2026-05-01T08:08:22.251Z</time></trkpt><trkpt lat="39.6807232" lon="8.4516751"><ele>66.8</ele><time>2026-05-01T08:08:23.251Z</time></trkpt><trkpt lat="39.6806922" lon="8.4517855"><ele>66.6</ele><time>2026-05-01T08:08:24.25Z</time></trkpt><trkpt lat="39.6806673" lon="8.4519074"><ele>66.39999999999999</ele><time>2026-05-01T08:08:25.251Z</time></trkpt><trkpt lat="39.6806444" lon="8.4520409"><ele>66.2</ele><time>2026-05-01T08:08:26.249Z</time></trkpt><trkpt lat="39.6806245" lon="8.4521823"><ele>66.0</ele><time>2026-05-01T08:08:27.25Z</time></trkpt><trkpt lat="39.6806102" lon="8.4523339"><ele>66.0</ele><time>2026-05-01T08:08:28.251Z</time></trkpt><trkpt lat="39.6806001" lon="8.4524863"><ele>66.0</ele><time>2026-05-01T08:08:29.249Z</time></trkpt><trkpt lat="39.6805917" lon="8.4526375"><ele>66.0</ele><time>2026-05-01T08:08:30.25Z</time></trkpt><trkpt lat="39.6805831" lon="8.4527863"><ele>66.0</ele><time>2026-05-01T08:08:31.249Z</time></trkpt><trkpt lat="39.6805725" lon="8.4529327"><ele>66.25</ele><time>2026-05-01T08:08:32.25Z</time></trkpt><trkpt lat="39.6805654" lon="8.4530791"><ele>66.5</ele><time>2026-05-01T08:08:33.25Z</time></trkpt><trkpt lat="39.6805613" lon="8.4532276"><ele>66.75</ele><time>2026-05-01T08:08:34.251Z</time></trkpt><trkpt lat="39.6805586" lon="8.4533818"><ele>67.0</ele><time>2026-05-01T08:08:35.25Z</time></trkpt><trkpt lat="39.6805567" lon="8.4535381"><ele>67.0</ele><time>2026-05-01T08:08:36.25Z</time></trkpt><trkpt lat="39.6805537" lon="8.4536945"><ele>67.0</ele><time>2026-05-01T08:08:37.251Z</time></trkpt><trkpt lat="39.6805515" lon="8.453851"><ele>67.0</ele><time>2026-05-01T08:08:38.25Z</time></trkpt><trkpt lat="39.6805521" lon="8.4540054"><ele>67.0</ele><time>2026-05-01T08:08:39.25Z</time></trkpt><trkpt lat="39.6805526" lon="8.4541604"><ele>67.25</ele><time>2026-05-01T08:08:40.251Z</time></trkpt><trkpt lat="39.6805528" lon="8.4543176"><ele>67.5</ele><time>2026-05-01T08:08:41.251Z</time></trkpt><trkpt lat="39.6805522" lon="8.4544776"><ele>67.75</ele><time>2026-05-01T08:08:42.251Z</time></trkpt><trkpt lat="39.6805479" lon="8.4546397"><ele>68.0</ele><time>2026-05-01T08:08:43.25Z</time></trkpt><trkpt lat="39.6805415" lon="8.454808"><ele>68.0</ele><time>2026-05-01T08:08:44.251Z</time></trkpt><trkpt lat="39.680532" lon="8.4549829"><ele>68.0</ele><time>2026-05-01T08:08:45.249Z</time></trkpt><trkpt lat="39.6805182" lon="8.4551523"><ele>68.0</ele><time>2026-05-01T08:08:46.25Z</time></trkpt><trkpt lat="39.6805005" lon="8.4553172"><ele>68.0</ele><time>2026-05-01T08:08:47.249Z</time></trkpt><trkpt lat="39.6804763" lon="8.4554786"><ele>67.75</ele><time>2026-05-01T08:08:48.25Z</time></trkpt><trkpt lat="39.680442" lon="8.4556384"><ele>67.5</ele><time>2026-05-01T08:08:49.249Z</time></trkpt><trkpt lat="39.6804006" lon="8.4557941"><ele>67.25</ele><time>2026-05-01T08:08:50.249Z</time></trkpt><trkpt lat="39.6803502" lon="8.455942"><ele>67.0</ele><time>2026-05-01T08:08:51.249Z</time></trkpt><trkpt lat="39.6802971" lon="8.4560855"><ele>70.25</ele><time>2026-05-01T08:08:52.25Z</time></trkpt><trkpt lat="39.6802449" lon="8.4562306"><ele>73.5</ele><time>2026-05-01T08:08:53.251Z</time></trkpt><trkpt lat="39.6801933" lon="8.4563807"><ele>76.75</ele><time>2026-05-01T08:08:54.25Z</time></trkpt><trkpt lat="39.6801385" lon="8.456531"><ele>80.0</ele><time>2026-05-01T08:08:55.25Z</time></trkpt><trkpt lat="39.6800842" lon="8.4566756"><ele>80.4</ele><time>2026-05-01T08:08:56.251Z</time></trkpt><trkpt lat="39.6800349" lon="8.4568018"><ele>80.8</ele><time>2026-05-01T08:08:57.251Z</time></trkpt><trkpt lat="39.6799759" lon="8.4569011"><ele>81.19999999999999</ele><time>2026-05-01T08:08:58.249Z</time></trkpt><trkpt lat="39.6799001" lon="8.4569783"><ele>81.6</ele><time>2026-05-01T08:08:59.25Z</time></trkpt><trkpt lat="39.6798121" lon="8.4570393"><ele>82.0</ele><time>2026-05-01T08:09:00.25Z</time></trkpt><trkpt lat="39.6797159" lon="8.4571004"><ele>83.0</ele><time>2026-05-01T08:09:01.251Z</time></trkpt><trkpt lat="39.6796151" lon="8.4571786"><ele>84.0</ele><time>2026-05-01T08:09:02.25Z</time></trkpt><trkpt lat="39.6795061" lon="8.4572672"><ele>85.0</ele><time>2026-05-01T08:09:03.249Z</time></trkpt><trkpt lat="39.6793888" lon="8.4573588"><ele>86.0</ele><time>2026-05-01T08:09:04.249Z</time></trkpt><trkpt lat="39.6792755" lon="8.4574495"><ele>84.0</ele><time>2026-05-01T08:09:05.25Z</time></trkpt><trkpt lat="39.6791615" lon="8.4575397"><ele>82.0</ele><time>2026-05-01T08:09:06.249Z</time></trkpt><trkpt lat="39.6790501" lon="8.4576269"><ele>80.0</ele><time>2026-05-01T08:09:07.25Z</time></trkpt><trkpt lat="39.6789478" lon="8.4577147"><ele>78.0</ele><time>2026-05-01T08:09:08.251Z</time></trkpt><trkpt lat="39.678862" lon="8.4578149"><ele>78.0</ele><time>2026-05-01T08:09:09.249Z</time></trkpt><trkpt lat="39.6787937" lon="8.4579348"><ele>78.0</ele><time>2026-05-01T08:09:10.25Z</time></trkpt><trkpt lat="39.678751" lon="8.4580778"><ele>78.0</ele><time>2026-05-01T08:09:11.25Z</time></trkpt><trkpt lat="39.6787266" lon="8.4582331"><ele>78.0</ele><time>2026-05-01T08:09:12.251Z</time></trkpt><trkpt lat="39.6787147" lon="8.4583819"><ele>78.0</ele><time>2026-05-01T08:09:13.25Z</time></trkpt><trkpt lat="39.6787111" lon="8.4585147"><ele>78.0</ele><time>2026-05-01T08:09:14.251Z</time></trkpt><trkpt lat="39.678703" lon="8.4586397"><ele>78.0</ele><time>2026-05-01T08:09:15.25Z</time></trkpt><trkpt lat="39.6786749" lon="8.4587546"><ele>78.0</ele><time>2026-05-01T08:09:16.25Z</time></trkpt><trkpt lat="39.6786164" lon="8.4588555"><ele>78.0</ele><time>2026-05-01T08:09:17.25Z</time></trkpt><trkpt lat="39.6785378" lon="8.4589484"><ele>75.4</ele><time>2026-05-01T08:09:18.249Z</time></trkpt><trkpt lat="39.6784496" lon="8.4590198"><ele>72.8</ele><time>2026-05-01T08:09:19.251Z</time></trkpt><trkpt lat="39.6783694" lon="8.45907"><ele>70.2</ele><time>2026-05-01T08:09:20.25Z</time></trkpt><trkpt lat="39.6783015" lon="8.4591075"><ele>67.6</ele><time>2026-05-01T08:09:21.25Z</time></trkpt><trkpt lat="39.6781858" lon="8.4591617"><ele>65.0</ele><time>2026-05-01T08:09:23.25Z</time></trkpt><trkpt lat="39.6780913" lon="8.4591825"><ele>65.0</ele><time>2026-05-01T08:09:25.25Z</time></trkpt><trkpt lat="39.6780241" lon="8.4592113"><ele>65.0</ele><time>2026-05-01T08:09:27.251Z</time></trkpt><trkpt lat="39.6779698" lon="8.459276"><ele>65.0</ele><time>2026-05-01T08:09:29.251Z</time></trkpt><trkpt lat="39.6779185" lon="8.4593672"><ele>65.0</ele><time>2026-05-01T08:09:31.249Z</time></trkpt><trkpt lat="39.677944" lon="8.4594693"><ele>65.0</ele><time>2026-05-01T08:09:33.251Z</time></trkpt><trkpt lat="39.6780485" lon="8.4595336"><ele>65.0</ele><time>2026-05-01T08:09:35.251Z</time></trkpt><trkpt lat="39.6781108" lon="8.4595766"><ele>64.5</ele><time>2026-05-01T08:09:36.25Z</time></trkpt><trkpt lat="39.6781828" lon="8.4596256"><ele>64.0</ele><time>2026-05-01T08:09:37.25Z</time></trkpt><trkpt lat="39.6782527" lon="8.4596777"><ele>63.5</ele><time>2026-05-01T08:09:38.25Z</time></trkpt><trkpt lat="39.6783202" lon="8.4597416"><ele>63.0</ele><time>2026-05-01T08:09:39.251Z</time></trkpt><trkpt lat="39.6783807" lon="8.45982"><ele>62.50000000000001</ele><time>2026-05-01T08:09:40.251Z</time></trkpt><trkpt lat="39.6784269" lon="8.4599174"><ele>62.0</ele><time>2026-05-01T08:09:41.251Z</time></trkpt><trkpt lat="39.6784591" lon="8.4600336"><ele>62.0</ele><time>2026-05-01T08:09:42.251Z</time></trkpt><trkpt lat="39.6784887" lon="8.4601618"><ele>62.0</ele><time>2026-05-01T08:09:43.25Z</time></trkpt><trkpt lat="39.6785217" lon="8.4603007"><ele>62.0</ele><time>2026-05-01T08:09:44.25Z</time></trkpt><trkpt lat="39.6785584" lon="8.4604526"><ele>62.0</ele><time>2026-05-01T08:09:45.251Z</time></trkpt><trkpt lat="39.6786049" lon="8.4606149"><ele>59.25</ele><time>2026-05-01T08:09:46.251Z</time></trkpt><trkpt lat="39.6786585" lon="8.4607842"><ele>56.5</ele><time>2026-05-01T08:09:47.25Z</time></trkpt><trkpt lat="39.6787164" lon="8.4609554"><ele>53.75</ele><time>2026-05-01T08:09:48.25Z</time></trkpt><trkpt lat="39.678763" lon="8.4611326"><ele>51.0</ele><time>2026-05-01T08:09:49.251Z</time></trkpt><trkpt lat="39.6787901" lon="8.4613144"><ele>50.25</ele><time>2026-05-01T08:09:50.25Z</time></trkpt><trkpt lat="39.6788057" lon="8.4614955"><ele>49.5</ele><time>2026-05-01T08:09:51.249Z</time></trkpt><trkpt lat="39.6788124" lon="8.461674"><ele>48.75</ele><time>2026-05-01T08:09:52.25Z</time></trkpt><trkpt lat="39.6788065" lon="8.4618436"><ele>48.0</ele><time>2026-05-01T08:09:53.25Z</time></trkpt><trkpt lat="39.6787897" lon="8.4620085"><ele>48.75</ele><time>2026-05-01T08:09:54.25Z</time></trkpt><trkpt lat="39.6787626" lon="8.4621652"><ele>49.5</ele><time>2026-05-01T08:09:55.251Z</time></trkpt><trkpt lat="39.6787197" lon="8.462314"><ele>50.25</ele><time>2026-05-01T08:09:56.249Z</time></trkpt><trkpt lat="39.6786616" lon="8.4624563"><ele>51.0</ele><time>2026-05-01T08:09:57.249Z</time></trkpt><trkpt lat="39.6785972" lon="8.4625962"><ele>51.0</ele><time>2026-05-01T08:09:58.25Z</time></trkpt><trkpt lat="39.6785326" lon="8.4627364"><ele>51.0</ele><time>2026-05-01T08:09:59.251Z</time></trkpt><trkpt lat="39.6784763" lon="8.4628851"><ele>51.0</ele><time>2026-05-01T08:10:00.251Z</time></trkpt><trkpt lat="39.6784377" lon="8.4630447"><ele>51.0</ele><time>2026-05-01T08:10:01.25Z</time></trkpt><trkpt lat="39.6784289" lon="8.4632156"><ele>50.5</ele><time>2026-05-01T08:10:02.251Z</time></trkpt><trkpt lat="39.6784388" lon="8.4633899"><ele>50.0</ele><time>2026-05-01T08:10:03.251Z</time></trkpt><trkpt lat="39.6784503" lon="8.4635582"><ele>49.5</ele><time>2026-05-01T08:10:04.25Z</time></trkpt><trkpt lat="39.6784545" lon="8.4637146"><ele>49.0</ele><time>2026-05-01T08:10:05.251Z</time></trkpt><trkpt lat="39.6784406" lon="8.4638599"><ele>48.800000000000004</ele><time>2026-05-01T08:10:06.251Z</time></trkpt><trkpt lat="39.6784036" lon="8.4639986"><ele>48.6</ele><time>2026-05-01T08:10:07.25Z</time></trkpt><trkpt lat="39.6783457" lon="8.4641163"><ele>48.4</ele><time>2026-05-01T08:10:08.25Z</time></trkpt><trkpt lat="39.6782711" lon="8.4642003"><ele>48.2</ele><time>2026-05-01T08:10:09.25Z</time></trkpt><trkpt lat="39.6781846" lon="8.4642511"><ele>48.0</ele><time>2026-05-01T08:10:10.251Z</time></trkpt><trkpt lat="39.6780939" lon="8.4642698"><ele>48.0</ele><time>2026-05-01T08:10:11.251Z</time></trkpt><trkpt lat="39.6779916" lon="8.4642621"><ele>48.0</ele><time>2026-05-01T08:10:12.25Z</time></trkpt><trkpt lat="39.6778884" lon="8.4642454"><ele>48.0</ele><time>2026-05-01T08:10:13.251Z</time></trkpt><trkpt lat="39.6777802" lon="8.4642219"><ele>48.0</ele><time>2026-05-01T08:10:14.251Z</time></trkpt><trkpt lat="39.6776617" lon="8.4642031"><ele>48.0</ele><time>2026-05-01T08:10:15.25Z</time></trkpt><trkpt lat="39.6775379" lon="8.4641926"><ele>49.0</ele><time>2026-05-01T08:10:16.25Z</time></trkpt><trkpt lat="39.6774113" lon="8.4641868"><ele>50.0</ele><time>2026-05-01T08:10:17.25Z</time></trkpt><trkpt lat="39.6772815" lon="8.4641821"><ele>51.0</ele><time>2026-05-01T08:10:18.251Z</time></trkpt><trkpt lat="39.6771458" lon="8.4641747"><ele>52.0</ele><time>2026-05-01T08:10:19.251Z</time></trkpt><trkpt lat="39.6770063" lon="8.4641661"><ele>53.0</ele><time>2026-05-01T08:10:20.25Z</time></trkpt><trkpt lat="39.6768629" lon="8.464157"><ele>54.0</ele><time>2026-05-01T08:10:21.25Z</time></trkpt><trkpt lat="39.676717" lon="8.4641487"><ele>55.0</ele><time>2026-05-01T08:10:22.25Z</time></trkpt><trkpt lat="39.6765708" lon="8.4641395"><ele>56.0</ele><time>2026-05-01T08:10:23.25Z</time></trkpt><trkpt lat="39.6764247" lon="8.4641306"><ele>56.0</ele><time>2026-05-01T08:10:24.25Z</time></trkpt><trkpt lat="39.6762786" lon="8.4641231"><ele>56.0</ele><time>2026-05-01T08:10:25.251Z</time></trkpt><trkpt lat="39.6761347" lon="8.4641143"><ele>56.0</ele><time>2026-05-01T08:10:26.251Z</time></trkpt><trkpt lat="39.6759998" lon="8.4641038"><ele>56.0</ele><time>2026-05-01T08:10:27.25Z</time></trkpt><trkpt lat="39.6758687" lon="8.464093"><ele>57.25</ele><time>2026-05-01T08:10:28.25Z</time></trkpt><trkpt lat="39.6757371" lon="8.4640854"><ele>58.5</ele><time>2026-05-01T08:10:29.251Z</time></trkpt><trkpt lat="39.6756047" lon="8.464076"><ele>59.75</ele><time>2026-05-01T08:10:30.25Z</time></trkpt><trkpt lat="39.6754678" lon="8.4640651"><ele>61.0</ele><time>2026-05-01T08:10:31.251Z</time></trkpt><trkpt lat="39.6753276" lon="8.4640515"><ele>61.75</ele><time>2026-05-01T08:10:32.25Z</time></trkpt><trkpt lat="39.6751839" lon="8.4640286"><ele>62.5</ele><time>2026-05-01T08:10:33.251Z</time></trkpt><trkpt lat="39.6750357" lon="8.4639997"><ele>63.25</ele><time>2026-05-01T08:10:34.25Z</time></trkpt><trkpt lat="39.6748829" lon="8.4639687"><ele>64.0</ele><time>2026-05-01T08:10:35.249Z</time></trkpt><trkpt lat="39.674731" lon="8.4639402"><ele>64.0</ele><time>2026-05-01T08:10:36.251Z</time></trkpt><trkpt lat="39.6745846" lon="8.4639067"><ele>64.0</ele><time>2026-05-01T08:10:37.25Z</time></trkpt><trkpt lat="39.6744403" lon="8.463875"><ele>64.0</ele><time>2026-05-01T08:10:38.251Z</time></trkpt><trkpt lat="39.6743003" lon="8.4638531"><ele>64.0</ele><time>2026-05-01T08:10:39.25Z</time></trkpt><trkpt lat="39.6741639" lon="8.463854"><ele>63.5</ele><time>2026-05-01T08:10:40.25Z</time></trkpt><trkpt lat="39.6740302" lon="8.4638793"><ele>63.0</ele><time>2026-05-01T08:10:41.249Z</time></trkpt><trkpt lat="39.6739038" lon="8.463934"><ele>62.5</ele><time>2026-05-01T08:10:42.251Z</time></trkpt><trkpt lat="39.6737852" lon="8.4640128"><ele>62.0</ele><time>2026-05-01T08:10:43.251Z</time></trkpt><trkpt lat="39.673678" lon="8.4641166"><ele>60.0</ele><time>2026-05-01T08:10:44.25Z</time></trkpt><trkpt lat="39.6735843" lon="8.4642375"><ele>58.0</ele><time>2026-05-01T08:10:45.25Z</time></trkpt><trkpt lat="39.6734905" lon="8.4643676"><ele>56.0</ele><time>2026-05-01T08:10:46.251Z</time></trkpt><trkpt lat="39.6733918" lon="8.4645007"><ele>54.0</ele><time>2026-05-01T08:10:47.251Z</time></trkpt><trkpt lat="39.6732916" lon="8.4646367"><ele>54.0</ele><time>2026-05-01T08:10:48.249Z</time></trkpt><trkpt lat="39.6731954" lon="8.4647721"><ele>54.0</ele><time>2026-05-01T08:10:49.249Z</time></trkpt><trkpt lat="39.6730969" lon="8.4648984"><ele>54.0</ele><time>2026-05-01T08:10:50.25Z</time></trkpt><trkpt lat="39.6729832" lon="8.464998"><ele>54.0</ele><time>2026-05-01T08:10:51.25Z</time></trkpt><trkpt lat="39.6728598" lon="8.4650664"><ele>52.75</ele><time>2026-05-01T08:10:52.25Z</time></trkpt><trkpt lat="39.67273" lon="8.4651046"><ele>51.5</ele><time>2026-05-01T08:10:53.249Z</time></trkpt><trkpt lat="39.6725987" lon="8.4651073"><ele>50.25</ele><time>2026-05-01T08:10:54.251Z</time></trkpt><trkpt lat="39.6724717" lon="8.4650723"><ele>49.0</ele><time>2026-05-01T08:10:55.25Z</time></trkpt><trkpt lat="39.6723545" lon="8.4650053"><ele>49.0</ele><time>2026-05-01T08:10:56.249Z</time></trkpt><trkpt lat="39.6722377" lon="8.4649162"><ele>49.0</ele><time>2026-05-01T08:10:57.249Z</time></trkpt><trkpt lat="39.6721193" lon="8.4648164"><ele>49.0</ele><time>2026-05-01T08:10:58.251Z</time></trkpt><trkpt lat="39.6719951" lon="8.4647079"><ele>49.0</ele><time>2026-05-01T08:10:59.25Z</time></trkpt><trkpt lat="39.6718672" lon="8.4645998"><ele>47.0</ele><time>2026-05-01T08:11:00.25Z</time></trkpt><trkpt lat="39.6717416" lon="8.4644957"><ele>45.0</ele><time>2026-05-01T08:11:01.25Z</time></trkpt><trkpt lat="39.6716174" lon="8.4643905"><ele>43.0</ele><time>2026-05-01T08:11:02.249Z</time></trkpt><trkpt lat="39.6714953" lon="8.4642839"><ele>41.0</ele><time>2026-05-01T08:11:03.251Z</time></trkpt><trkpt lat="39.6713749" lon="8.464182"><ele>41.0</ele><time>2026-05-01T08:11:04.25Z</time></trkpt><trkpt lat="39.6712468" lon="8.4640999"><ele>41.0</ele><time>2026-05-01T08:11:05.249Z</time></trkpt><trkpt lat="39.6711112" lon="8.4640636"><ele>41.0</ele><time>2026-05-01T08:11:06.251Z</time></trkpt><trkpt lat="39.6709736" lon="8.464071"><ele>41.0</ele><time>2026-05-01T08:11:07.251Z</time></trkpt><trkpt lat="39.6708365" lon="8.4641107"><ele>40.5</ele><time>2026-05-01T08:11:08.25Z</time></trkpt><trkpt lat="39.670696" lon="8.464169"><ele>40.0</ele><time>2026-05-01T08:11:09.25Z</time></trkpt><trkpt lat="39.6705584" lon="8.4642271"><ele>39.5</ele><time>2026-05-01T08:11:10.25Z</time></trkpt><trkpt lat="39.6704194" lon="8.4642818"><ele>39.0</ele><time>2026-05-01T08:11:11.249Z</time></trkpt><trkpt lat="39.6702828" lon="8.4643344"><ele>37.5</ele><time>2026-05-01T08:11:12.25Z</time></trkpt><trkpt lat="39.6701479" lon="8.4643892"><ele>36.0</ele><time>2026-05-01T08:11:13.249Z</time></trkpt><trkpt lat="39.6700157" lon="8.4644517"><ele>34.5</ele><time>2026-05-01T08:11:14.25Z</time></trkpt><trkpt lat="39.6698885" lon="8.4645278"><ele>33.0</ele><time>2026-05-01T08:11:15.25Z</time></trkpt><trkpt lat="39.6697687" lon="8.4646197"><ele>33.0</ele><time>2026-05-01T08:11:16.249Z</time></trkpt><trkpt lat="39.6696524" lon="8.4647175"><ele>33.0</ele><time>2026-05-01T08:11:17.25Z</time></trkpt><trkpt lat="39.6695367" lon="8.4648165"><ele>33.0</ele><time>2026-05-01T08:11:18.249Z</time></trkpt><trkpt lat="39.6694207" lon="8.4649153"><ele>33.0</ele><time>2026-05-01T08:11:19.25Z</time></trkpt><trkpt lat="39.6693032" lon="8.4650131"><ele>31.0</ele><time>2026-05-01T08:11:20.249Z</time></trkpt><trkpt lat="39.6691869" lon="8.4651111"><ele>29.0</ele><time>2026-05-01T08:11:21.25Z</time></trkpt><trkpt lat="39.6690737" lon="8.4652099"><ele>27.0</ele><time>2026-05-01T08:11:22.249Z</time></trkpt><trkpt lat="39.6689646" lon="8.4653032"><ele>25.0</ele><time>2026-05-01T08:11:23.249Z</time></trkpt><trkpt lat="39.6688575" lon="8.4653746"><ele>25.0</ele><time>2026-05-01T08:11:24.249Z</time></trkpt><trkpt lat="39.6687579" lon="8.4654103"><ele>25.0</ele><time>2026-05-01T08:11:25.25Z</time></trkpt><trkpt lat="39.6686637" lon="8.4654074"><ele>25.0</ele><time>2026-05-01T08:11:26.25Z</time></trkpt><trkpt lat="39.6685777" lon="8.4653754"><ele>25.0</ele><time>2026-05-01T08:11:27.25Z</time></trkpt><trkpt lat="39.6684936" lon="8.465315"><ele>25.0</ele><time>2026-05-01T08:11:28.25Z</time></trkpt><trkpt lat="39.6684173" lon="8.4652341"><ele>24.8</ele><time>2026-05-01T08:11:29.249Z</time></trkpt><trkpt lat="39.6683592" lon="8.4651333"><ele>24.6</ele><time>2026-05-01T08:11:30.249Z</time></trkpt><trkpt lat="39.6683258" lon="8.465011"><ele>24.4</ele><time>2026-05-01T08:11:31.249Z</time></trkpt><trkpt lat="39.6683144" lon="8.4648743"><ele>24.2</ele><time>2026-05-01T08:11:32.249Z</time></trkpt><trkpt lat="39.6683262" lon="8.4647327"><ele>24.0</ele><time>2026-05-01T08:11:33.248Z</time></trkpt><trkpt lat="39.6683513" lon="8.4645937"><ele>24.75</ele><time>2026-05-01T08:11:34.25Z</time></trkpt><trkpt lat="39.6683843" lon="8.4644491"><ele>25.5</ele><time>2026-05-01T08:11:35.25Z</time></trkpt><trkpt lat="39.6684202" lon="8.4642949"><ele>26.25</ele><time>2026-05-01T08:11:36.248Z</time></trkpt><trkpt lat="39.6684559" lon="8.4641306"><ele>27.0</ele><time>2026-05-01T08:11:37.25Z</time></trkpt><trkpt lat="39.6684938" lon="8.4639572"><ele>29.333333333333336</ele><time>2026-05-01T08:11:38.25Z</time></trkpt><trkpt lat="39.6685338" lon="8.4637758"><ele>31.666666666666668</ele><time>2026-05-01T08:11:39.249Z</time></trkpt><trkpt lat="39.6685763" lon="8.463587"><ele>34.0</ele><time>2026-05-01T08:11:40.249Z</time></trkpt><trkpt lat="39.6686184" lon="8.4633872"><ele>29.0</ele><time>2026-05-01T08:11:41.248Z</time></trkpt><trkpt lat="39.6686617" lon="8.46318"><ele>24.0</ele><time>2026-05-01T08:11:42.25Z</time></trkpt><trkpt lat="39.6687029" lon="8.4629808"><ele>19.0</ele><time>2026-05-01T08:11:43.249Z</time></trkpt><trkpt lat="39.6687412" lon="8.4627817"><ele>19.0</ele><time>2026-05-01T08:11:44.248Z</time></trkpt><trkpt lat="39.6687721" lon="8.4625803"><ele>19.0</ele><time>2026-05-01T08:11:45.248Z</time></trkpt><trkpt lat="39.6687929" lon="8.462383"><ele>19.0</ele><time>2026-05-01T08:11:46.249Z</time></trkpt><trkpt lat="39.6688056" lon="8.462195"><ele>18.25</ele><time>2026-05-01T08:11:47.25Z</time></trkpt><trkpt lat="39.6687987" lon="8.4620168"><ele>17.5</ele><time>2026-05-01T08:11:48.25Z</time></trkpt><trkpt lat="39.668771" lon="8.4618471"><ele>16.75</ele><time>2026-05-01T08:11:49.249Z</time></trkpt><trkpt lat="39.6687226" lon="8.4616913"><ele>16.0</ele><time>2026-05-01T08:11:50.25Z</time></trkpt><trkpt lat="39.668654" lon="8.461553"><ele>16.75</ele><time>2026-05-01T08:11:51.249Z</time></trkpt><trkpt lat="39.668567" lon="8.4614351"><ele>17.5</ele><time>2026-05-01T08:11:52.25Z</time></trkpt><trkpt lat="39.6684693" lon="8.461333"><ele>18.25</ele><time>2026-05-01T08:11:53.249Z</time></trkpt><trkpt lat="39.6683691" lon="8.4612348"><ele>19.0</ele><time>2026-05-01T08:11:54.25Z</time></trkpt><trkpt lat="39.6682675" lon="8.4611294"><ele>19.0</ele><time>2026-05-01T08:11:55.25Z</time></trkpt><trkpt lat="39.6681671" lon="8.4610227"><ele>19.0</ele><time>2026-05-01T08:11:56.249Z</time></trkpt><trkpt lat="39.6680726" lon="8.4609309"><ele>19.0</ele><time>2026-05-01T08:11:57.249Z</time></trkpt><trkpt lat="39.6679712" lon="8.4608602"><ele>19.0</ele><time>2026-05-01T08:11:58.25Z</time></trkpt><trkpt lat="39.6678635" lon="8.4608281"><ele>21.2</ele><time>2026-05-01T08:11:59.25Z</time></trkpt><trkpt lat="39.6677549" lon="8.460835"><ele>23.4</ele><time>2026-05-01T08:12:00.248Z</time></trkpt><trkpt lat="39.6676532" lon="8.4608806"><ele>25.6</ele><time>2026-05-01T08:12:01.249Z</time></trkpt><trkpt lat="39.6675673" lon="8.4609616"><ele>27.8</ele><time>2026-05-01T08:12:02.249Z</time></trkpt><trkpt lat="39.6674946" lon="8.4610658"><ele>30.0</ele><time>2026-05-01T08:12:03.25Z</time></trkpt><trkpt lat="39.6674286" lon="8.4611897"><ele>34.5</ele><time>2026-05-01T08:12:04.249Z</time></trkpt><trkpt lat="39.66737" lon="8.4613287"><ele>39.0</ele><time>2026-05-01T08:12:05.249Z</time></trkpt><trkpt lat="39.6673266" lon="8.4614813"><ele>43.5</ele><time>2026-05-01T08:12:06.25Z</time></trkpt><trkpt lat="39.6673017" lon="8.4616438"><ele>48.0</ele><time>2026-05-01T08:12:07.25Z</time></trkpt><trkpt lat="39.6672996" lon="8.461813"><ele>48.0</ele><time>2026-05-01T08:12:08.249Z</time></trkpt><trkpt lat="39.6673098" lon="8.4619884"><ele>48.0</ele><time>2026-05-01T08:12:09.25Z</time></trkpt><trkpt lat="39.6673254" lon="8.4621728"><ele>48.0</ele><time>2026-05-01T08:12:10.248Z</time></trkpt><trkpt lat="39.6673394" lon="8.4623614"><ele>48.0</ele><time>2026-05-01T08:12:11.25Z</time></trkpt><trkpt lat="39.6673552" lon="8.46255"><ele>48.75</ele><time>2026-05-01T08:12:12.249Z</time></trkpt><trkpt lat="39.6673724" lon="8.4627393"><ele>49.5</ele><time>2026-05-01T08:12:13.249Z</time></trkpt><trkpt lat="39.6673889" lon="8.4629282"><ele>50.25</ele><time>2026-05-01T08:12:14.25Z</time></trkpt><trkpt lat="39.6674052" lon="8.4631158"><ele>51.0</ele><time>2026-05-01T08:12:15.25Z</time></trkpt><trkpt lat="39.6674216" lon="8.4632958"><ele>51.25</ele><time>2026-05-01T08:12:16.25Z</time></trkpt><trkpt lat="39.6674379" lon="8.4634667"><ele>51.5</ele><time>2026-05-01T08:12:17.249Z</time></trkpt><trkpt lat="39.6674528" lon="8.4636263"><ele>51.75</ele><time>2026-05-01T08:12:18.249Z</time></trkpt><trkpt lat="39.6674658" lon="8.463778"><ele>52.0</ele><time>2026-05-01T08:12:19.249Z</time></trkpt><trkpt lat="39.6674791" lon="8.4639304"><ele>52.25</ele><time>2026-05-01T08:12:20.249Z</time></trkpt><trkpt lat="39.6674877" lon="8.4640814"><ele>52.5</ele><time>2026-05-01T08:12:21.25Z</time></trkpt><trkpt lat="39.6674869" lon="8.4642319"><ele>52.75</ele><time>2026-05-01T08:12:22.25Z</time></trkpt><trkpt lat="39.6674719" lon="8.4643803"><ele>53.0</ele><time>2026-05-01T08:12:23.249Z</time></trkpt><trkpt lat="39.6674444" lon="8.4645282"><ele>52.5</ele><time>2026-05-01T08:12:24.249Z</time></trkpt><trkpt lat="39.6673997" lon="8.4646716"><ele>52.0</ele><time>2026-05-01T08:12:25.249Z</time></trkpt><trkpt lat="39.6673389" lon="8.4648097"><ele>51.5</ele><time>2026-05-01T08:12:26.25Z</time></trkpt><trkpt lat="39.6672637" lon="8.4649426"><ele>51.0</ele><time>2026-05-01T08:12:27.249Z</time></trkpt><trkpt lat="39.667179" lon="8.4650763"><ele>51.0</ele><time>2026-05-01T08:12:28.249Z</time></trkpt><trkpt lat="39.6670857" lon="8.4652152"><ele>51.0</ele><time>2026-05-01T08:12:29.249Z</time></trkpt><trkpt lat="39.6669892" lon="8.4653599"><ele>51.0</ele><time>2026-05-01T08:12:30.25Z</time></trkpt><trkpt lat="39.6668861" lon="8.4655096"><ele>51.0</ele><time>2026-05-01T08:12:31.249Z</time></trkpt><trkpt lat="39.6667794" lon="8.4656646"><ele>59.66666666666667</ele><time>2026-05-01T08:12:32.249Z</time></trkpt><trkpt lat="39.666669" lon="8.4658233"><ele>68.33333333333334</ele><time>2026-05-01T08:12:33.249Z</time></trkpt><trkpt lat="39.666557" lon="8.4659842"><ele>77.0</ele><time>2026-05-01T08:12:34.249Z</time></trkpt><trkpt lat="39.6664472" lon="8.4661447"><ele>72.66666666666667</ele><time>2026-05-01T08:12:35.249Z</time></trkpt><trkpt lat="39.6663426" lon="8.4662969"><ele>68.33333333333333</ele><time>2026-05-01T08:12:36.249Z</time></trkpt><trkpt lat="39.6662402" lon="8.4664441"><ele>64.0</ele><time>2026-05-01T08:12:37.25Z</time></trkpt><trkpt lat="39.6661408" lon="8.466588"><ele>66.5</ele><time>2026-05-01T08:12:38.25Z</time></trkpt><trkpt lat="39.666042" lon="8.4667279"><ele>69.0</ele><time>2026-05-01T08:12:39.25Z</time></trkpt><trkpt lat="39.6659434" lon="8.4668661"><ele>71.5</ele><time>2026-05-01T08:12:40.249Z</time></trkpt><trkpt lat="39.6658426" lon="8.467008"><ele>74.0</ele><time>2026-05-01T08:12:41.249Z</time></trkpt><trkpt lat="39.6657418" lon="8.4671537"><ele>74.0</ele><time>2026-05-01T08:12:42.249Z</time></trkpt><trkpt lat="39.6656434" lon="8.4672983"><ele>74.0</ele><time>2026-05-01T08:12:43.249Z</time></trkpt><trkpt lat="39.6655429" lon="8.4674427"><ele>74.0</ele><time>2026-05-01T08:12:44.249Z</time></trkpt><trkpt lat="39.6654364" lon="8.4675814"><ele>74.0</ele><time>2026-05-01T08:12:45.249Z</time></trkpt><trkpt lat="39.6653247" lon="8.4677163"><ele>78.0</ele><time>2026-05-01T08:12:46.249Z</time></trkpt><trkpt lat="39.6652085" lon="8.467853"><ele>82.0</ele><time>2026-05-01T08:12:47.249Z</time></trkpt><trkpt lat="39.6650889" lon="8.4679925"><ele>86.0</ele><time>2026-05-01T08:12:48.25Z</time></trkpt><trkpt lat="39.6649697" lon="8.4681405"><ele>86.0</ele><time>2026-05-01T08:12:49.25Z</time></trkpt><trkpt lat="39.6648557" lon="8.4683012"><ele>86.0</ele><time>2026-05-01T08:12:50.249Z</time></trkpt><trkpt lat="39.6647471" lon="8.4684728"><ele>86.0</ele><time>2026-05-01T08:12:51.249Z</time></trkpt><trkpt lat="39.6646427" lon="8.4686512"><ele>85.0</ele><time>2026-05-01T08:12:52.25Z</time></trkpt><trkpt lat="39.6645427" lon="8.4688293"><ele>84.0</ele><time>2026-05-01T08:12:53.25Z</time></trkpt><trkpt lat="39.664448" lon="8.4690046"><ele>83.0</ele><time>2026-05-01T08:12:54.25Z</time></trkpt><trkpt lat="39.664362" lon="8.4691601"><ele>88.75</ele><time>2026-05-01T08:12:55.249Z</time></trkpt><trkpt lat="39.6642765" lon="8.469297"><ele>94.5</ele><time>2026-05-01T08:12:56.249Z</time></trkpt><trkpt lat="39.6641931" lon="8.4694236"><ele>100.25</ele><time>2026-05-01T08:12:57.248Z</time></trkpt><trkpt lat="39.6641239" lon="8.4695434"><ele>106.0</ele><time>2026-05-01T08:12:58.25Z</time></trkpt><trkpt lat="39.6640718" lon="8.469672"><ele>106.25</ele><time>2026-05-01T08:12:59.25Z</time></trkpt><trkpt lat="39.6640353" lon="8.469813"><ele>106.5</ele><time>2026-05-01T08:13:00.248Z</time></trkpt><trkpt lat="39.6640117" lon="8.4699676"><ele>106.75</ele><time>2026-05-01T08:13:01.249Z</time></trkpt><trkpt lat="39.6640123" lon="8.4701237"><ele>107.0</ele><time>2026-05-01T08:13:02.249Z</time></trkpt><trkpt lat="39.6640399" lon="8.4702769"><ele>107.0</ele><time>2026-05-01T08:13:03.25Z</time></trkpt><trkpt lat="39.6640841" lon="8.4704325"><ele>107.0</ele><time>2026-05-01T08:13:04.25Z</time></trkpt><trkpt lat="39.6641346" lon="8.4705929"><ele>107.0</ele><time>2026-05-01T08:13:05.25Z</time></trkpt><trkpt lat="39.6641744" lon="8.4707452"><ele>107.0</ele><time>2026-05-01T08:13:06.249Z</time></trkpt><trkpt lat="39.6641898" lon="8.4708986"><ele>108.0</ele><time>2026-05-01T08:13:07.248Z</time></trkpt><trkpt lat="39.6641814" lon="8.4710573"><ele>109.0</ele><time>2026-05-01T08:13:08.249Z</time></trkpt><trkpt lat="39.6641503" lon="8.471223"><ele>110.0</ele><time>2026-05-01T08:13:09.249Z</time></trkpt><trkpt lat="39.6641048" lon="8.4713993"><ele>111.0</ele><time>2026-05-01T08:13:10.249Z</time></trkpt><trkpt lat="39.6640553" lon="8.4715961"><ele>111.5</ele><time>2026-05-01T08:13:11.248Z</time></trkpt><trkpt lat="39.6640302" lon="8.4717731"><ele>112.0</ele><time>2026-05-01T08:13:12.25Z</time></trkpt><trkpt lat="39.6640304" lon="8.4719492"><ele>112.5</ele><time>2026-05-01T08:13:13.248Z</time></trkpt><trkpt lat="39.6640577" lon="8.4721202"><ele>113.0</ele><time>2026-05-01T08:13:14.25Z</time></trkpt><trkpt lat="39.6640961" lon="8.4722835"><ele>113.5</ele><time>2026-05-01T08:13:15.248Z</time></trkpt><trkpt lat="39.6641096" lon="8.4724414"><ele>114.0</ele><time>2026-05-01T08:13:16.249Z</time></trkpt><trkpt lat="39.6640961" lon="8.4725983"><ele>114.5</ele><time>2026-05-01T08:13:17.25Z</time></trkpt><trkpt lat="39.6640574" lon="8.4727317"><ele>115.0</ele><time>2026-05-01T08:13:18.249Z</time></trkpt><trkpt lat="39.6639894" lon="8.4728422"><ele>115.0</ele><time>2026-05-01T08:13:19.25Z</time></trkpt><trkpt lat="39.6638943" lon="8.4729294"><ele>115.0</ele><time>2026-05-01T08:13:20.25Z</time></trkpt><trkpt lat="39.6637776" lon="8.4729934"><ele>115.0</ele><time>2026-05-01T08:13:21.249Z</time></trkpt><trkpt lat="39.6636419" lon="8.4730406"><ele>115.0</ele><time>2026-05-01T08:13:22.249Z</time></trkpt><trkpt lat="39.663497" lon="8.4730828"><ele>119.66666666666667</ele><time>2026-05-01T08:13:23.25Z</time></trkpt><trkpt lat="39.6633444" lon="8.4731197"><ele>124.33333333333334</ele><time>2026-05-01T08:13:24.25Z</time></trkpt><trkpt lat="39.6631869" lon="8.4731552"><ele>129.0</ele><time>2026-05-01T08:13:25.25Z</time></trkpt><trkpt lat="39.6630279" lon="8.4731955"><ele>129.0</ele><time>2026-05-01T08:13:26.249Z</time></trkpt><trkpt lat="39.6628668" lon="8.4732482"><ele>129.0</ele><time>2026-05-01T08:13:27.249Z</time></trkpt><trkpt lat="39.6627008" lon="8.4733146"><ele>129.0</ele><time>2026-05-01T08:13:28.249Z</time></trkpt><trkpt lat="39.6625331" lon="8.4733916"><ele>131.33333333333334</ele><time>2026-05-01T08:13:29.249Z</time></trkpt><trkpt lat="39.6623584" lon="8.4734721"><ele>133.66666666666669</ele><time>2026-05-01T08:13:30.25Z</time></trkpt><trkpt lat="39.6621799" lon="8.4735545"><ele>136.0</ele><time>2026-05-01T08:13:31.249Z</time></trkpt><trkpt lat="39.6619965" lon="8.4736403"><ele>136.33333333333334</ele><time>2026-05-01T08:13:32.25Z</time></trkpt><trkpt lat="39.6618145" lon="8.4737276"><ele>136.66666666666666</ele><time>2026-05-01T08:13:33.248Z</time></trkpt><trkpt lat="39.6616347" lon="8.4738143"><ele>137.0</ele><time>2026-05-01T08:13:34.25Z</time></trkpt><trkpt lat="39.6614496" lon="8.4739"><ele>134.0</ele><time>2026-05-01T08:13:35.25Z</time></trkpt><trkpt lat="39.6612645" lon="8.4739876"><ele>131.0</ele><time>2026-05-01T08:13:36.249Z</time></trkpt><trkpt lat="39.6610813" lon="8.474076"><ele>128.0</ele><time>2026-05-01T08:13:37.25Z</time></trkpt><trkpt lat="39.6609058" lon="8.474159"><ele>126.0</ele><time>2026-05-01T08:13:38.248Z</time></trkpt><trkpt lat="39.6607377" lon="8.4742417"><ele>124.0</ele><time>2026-05-01T08:13:39.249Z</time></trkpt><trkpt lat="39.6605727" lon="8.4743206"><ele>122.0</ele><time>2026-05-01T08:13:40.25Z</time></trkpt><trkpt lat="39.660409" lon="8.4743976"><ele>122.66666666666666</ele><time>2026-05-01T08:13:41.25Z</time></trkpt><trkpt lat="39.6602503" lon="8.4744716"><ele>123.33333333333334</ele><time>2026-05-01T08:13:42.249Z</time></trkpt><trkpt lat="39.6600908" lon="8.4745473"><ele>124.0</ele><time>2026-05-01T08:13:43.249Z</time></trkpt><trkpt lat="39.6599318" lon="8.474624"><ele>124.0</ele><time>2026-05-01T08:13:44.249Z</time></trkpt><trkpt lat="39.6597743" lon="8.4746982"><ele>124.0</ele><time>2026-05-01T08:13:45.249Z</time></trkpt><trkpt lat="39.6596149" lon="8.4747736"><ele>124.0</ele><time>2026-05-01T08:13:46.248Z</time></trkpt><trkpt lat="39.6594521" lon="8.4748514"><ele>123.33333333333334</ele><time>2026-05-01T08:13:47.249Z</time></trkpt><trkpt lat="39.6592908" lon="8.4749287"><ele>122.66666666666666</ele><time>2026-05-01T08:13:48.249Z</time></trkpt><trkpt lat="39.6591387" lon="8.4750004"><ele>122.0</ele><time>2026-05-01T08:13:49.249Z</time></trkpt><trkpt lat="39.6589869" lon="8.4750721"><ele>122.0</ele><time>2026-05-01T08:13:50.25Z</time></trkpt><trkpt lat="39.6588324" lon="8.4751426"><ele>122.0</ele><time>2026-05-01T08:13:51.249Z</time></trkpt><trkpt lat="39.6586772" lon="8.4752162"><ele>122.0</ele><time>2026-05-01T08:13:52.25Z</time></trkpt><trkpt lat="39.6585248" lon="8.4752912"><ele>122.25</ele><time>2026-05-01T08:13:53.25Z</time></trkpt><trkpt lat="39.6583838" lon="8.4753599"><ele>122.5</ele><time>2026-05-01T08:13:54.248Z</time></trkpt><trkpt lat="39.6582515" lon="8.4754218"><ele>122.75</ele><time>2026-05-01T08:13:55.249Z</time></trkpt><trkpt lat="39.6581167" lon="8.4754854"><ele>123.0</ele><time>2026-05-01T08:13:56.249Z</time></trkpt><trkpt lat="39.6579837" lon="8.4755502"><ele>123.0</ele><time>2026-05-01T08:13:57.249Z</time></trkpt><trkpt lat="39.6578542" lon="8.4756141"><ele>123.0</ele><time>2026-05-01T08:13:58.25Z</time></trkpt><trkpt lat="39.6577271" lon="8.4756727"><ele>123.0</ele><time>2026-05-01T08:13:59.25Z</time></trkpt><trkpt lat="39.6575982" lon="8.4757326"><ele>123.0</ele><time>2026-05-01T08:14:00.249Z</time></trkpt><trkpt lat="39.6574672" lon="8.4758"><ele>126.25</ele><time>2026-05-01T08:14:01.25Z</time></trkpt><trkpt lat="39.6573355" lon="8.4758775"><ele>129.5</ele><time>2026-05-01T08:14:02.249Z</time></trkpt><trkpt lat="39.6572063" lon="8.4759663"><ele>132.75</ele><time>2026-05-01T08:14:03.25Z</time></trkpt><trkpt lat="39.6570789" lon="8.4760633"><ele>136.0</ele><time>2026-05-01T08:14:04.248Z</time></trkpt><trkpt lat="39.6569606" lon="8.4761635"><ele>134.75</ele><time>2026-05-01T08:14:05.249Z</time></trkpt><trkpt lat="39.6568475" lon="8.4762596"><ele>133.5</ele><time>2026-05-01T08:14:06.25Z</time></trkpt><trkpt lat="39.6567383" lon="8.4763499"><ele>132.25</ele><time>2026-05-01T08:14:07.248Z</time></trkpt><trkpt lat="39.6566324" lon="8.4764286"><ele>131.0</ele><time>2026-05-01T08:14:08.249Z</time></trkpt><trkpt lat="39.656527" lon="8.4764809"><ele>132.4</ele><time>2026-05-01T08:14:09.25Z</time></trkpt><trkpt lat="39.656419" lon="8.476494"><ele>133.8</ele><time>2026-05-01T08:14:10.25Z</time></trkpt><trkpt lat="39.656313" lon="8.4764684"><ele>135.20000000000002</ele><time>2026-05-01T08:14:11.249Z</time></trkpt><trkpt lat="39.6562161" lon="8.4764082"><ele>136.6</ele><time>2026-05-01T08:14:12.249Z</time></trkpt><trkpt lat="39.656129" lon="8.4763189"><ele>138.0</ele><time>2026-05-01T08:14:13.249Z</time></trkpt><trkpt lat="39.6560496" lon="8.4762074"><ele>138.0</ele><time>2026-05-01T08:14:14.25Z</time></trkpt><trkpt lat="39.6559824" lon="8.4760636"><ele>138.0</ele><time>2026-05-01T08:14:15.248Z</time></trkpt><trkpt lat="39.6559209" lon="8.4758902"><ele>138.0</ele><time>2026-05-01T08:14:16.25Z</time></trkpt><trkpt lat="39.6558601" lon="8.4757082"><ele>138.0</ele><time>2026-05-01T08:14:17.248Z</time></trkpt><trkpt lat="39.6557875" lon="8.4755598"><ele>135.25</ele><time>2026-05-01T08:14:18.25Z</time></trkpt><trkpt lat="39.6556935" lon="8.4754313"><ele>132.5</ele><time>2026-05-01T08:14:19.249Z</time></trkpt><trkpt lat="39.6555891" lon="8.4753409"><ele>129.75</ele><time>2026-05-01T08:14:20.25Z</time></trkpt><trkpt lat="39.6554759" lon="8.4753047"><ele>127.0</ele><time>2026-05-01T08:14:21.249Z</time></trkpt><trkpt lat="39.6553575" lon="8.4753145"><ele>127.5</ele><time>2026-05-01T08:14:22.248Z</time></trkpt><trkpt lat="39.655234" lon="8.4753601"><ele>128.0</ele><time>2026-05-01T08:14:23.25Z</time></trkpt><trkpt lat="39.6551004" lon="8.4754316"><ele>128.5</ele><time>2026-05-01T08:14:24.249Z</time></trkpt><trkpt lat="39.6549661" lon="8.4755129"><ele>129.0</ele><time>2026-05-01T08:14:25.25Z</time></trkpt><trkpt lat="39.6548511" lon="8.4756004"><ele>132.5</ele><time>2026-05-01T08:14:26.25Z</time></trkpt><trkpt lat="39.6547562" lon="8.4757168"><ele>136.0</ele><time>2026-05-01T08:14:27.248Z</time></trkpt><trkpt lat="39.6546723" lon="8.4758639"><ele>139.5</ele><time>2026-05-01T08:14:28.248Z</time></trkpt><trkpt lat="39.6545927" lon="8.4760336"><ele>143.0</ele><time>2026-05-01T08:14:29.25Z</time></trkpt><trkpt lat="39.6545086" lon="8.4762132"><ele>140.75</ele><time>2026-05-01T08:14:30.25Z</time></trkpt><trkpt lat="39.6544323" lon="8.4763859"><ele>138.5</ele><time>2026-05-01T08:14:31.25Z</time></trkpt><trkpt lat="39.6543702" lon="8.4765511"><ele>136.25</ele><time>2026-05-01T08:14:32.248Z</time></trkpt><trkpt lat="39.654319" lon="8.4767149"><ele>134.0</ele><time>2026-05-01T08:14:33.249Z</time></trkpt><trkpt lat="39.6542766" lon="8.4768873"><ele>134.0</ele><time>2026-05-01T08:14:34.248Z</time></trkpt><trkpt lat="39.6542489" lon="8.4770621"><ele>134.0</ele><time>2026-05-01T08:14:35.249Z</time></trkpt><trkpt lat="39.6542224" lon="8.4772445"><ele>134.0</ele><time>2026-05-01T08:14:36.25Z</time></trkpt><trkpt lat="39.6541966" lon="8.4774308"><ele>134.0</ele><time>2026-05-01T08:14:37.25Z</time></trkpt><trkpt lat="39.6541689" lon="8.4776112"><ele>135.5</ele><time>2026-05-01T08:14:38.25Z</time></trkpt><trkpt lat="39.6541345" lon="8.4777709"><ele>137.0</ele><time>2026-05-01T08:14:39.249Z</time></trkpt><trkpt lat="39.654088" lon="8.4779115"><ele>138.5</ele><time>2026-05-01T08:14:40.249Z</time></trkpt><trkpt lat="39.6540298" lon="8.4780355"><ele>140.0</ele><time>2026-05-01T08:14:41.249Z</time></trkpt><trkpt lat="39.6539584" lon="8.4781322"><ele>142.2</ele><time>2026-05-01T08:14:42.248Z</time></trkpt><trkpt lat="39.6538731" lon="8.4781965"><ele>144.4</ele><time>2026-05-01T08:14:43.25Z</time></trkpt><trkpt lat="39.6537791" lon="8.4782256"><ele>146.6</ele><time>2026-05-01T08:14:44.25Z</time></trkpt><trkpt lat="39.6536795" lon="8.4782132"><ele>148.8</ele><time>2026-05-01T08:14:45.25Z</time></trkpt><trkpt lat="39.6535759" lon="8.4781554"><ele>151.0</ele><time>2026-05-01T08:14:46.249Z</time></trkpt><trkpt lat="39.6534813" lon="8.4780603"><ele>148.5</ele><time>2026-05-01T08:14:47.249Z</time></trkpt><trkpt lat="39.6534092" lon="8.4779323"><ele>146.0</ele><time>2026-05-01T08:14:48.25Z</time></trkpt><trkpt lat="39.6533657" lon="8.4777744"><ele>143.5</ele><time>2026-05-01T08:14:49.249Z</time></trkpt><trkpt lat="39.6533416" lon="8.4776004"><ele>141.0</ele><time>2026-05-01T08:14:50.249Z</time></trkpt><trkpt lat="39.6533188" lon="8.4774128"><ele>141.0</ele><time>2026-05-01T08:14:51.249Z</time></trkpt><trkpt lat="39.6532722" lon="8.4772461"><ele>141.0</ele><time>2026-05-01T08:14:52.249Z</time></trkpt><trkpt lat="39.6532016" lon="8.4770834"><ele>141.0</ele><time>2026-05-01T08:14:53.25Z</time></trkpt><trkpt lat="39.6531046" lon="8.4769223"><ele>141.0</ele><time>2026-05-01T08:14:54.25Z</time></trkpt><trkpt lat="39.6529905" lon="8.4767595"><ele>141.0</ele><time>2026-05-01T08:14:55.249Z</time></trkpt><trkpt lat="39.652887" lon="8.4766234"><ele>141.0</ele><time>2026-05-01T08:14:56.249Z</time></trkpt><trkpt lat="39.6527804" lon="8.4765094"><ele>141.0</ele><time>2026-05-01T08:14:57.249Z</time></trkpt><trkpt lat="39.6526618" lon="8.4764325"><ele>141.0</ele><time>2026-05-01T08:14:58.249Z</time></trkpt><trkpt lat="39.6525354" lon="8.4764006"><ele>141.0</ele><time>2026-05-01T08:14:59.248Z</time></trkpt><trkpt lat="39.6524048" lon="8.47641"><ele>141.0</ele><time>2026-05-01T08:15:00.25Z</time></trkpt><trkpt lat="39.6522792" lon="8.4764662"><ele>141.0</ele><time>2026-05-01T08:15:01.249Z</time></trkpt><trkpt lat="39.6521667" lon="8.4765681"><ele>141.0</ele><time>2026-05-01T08:15:02.25Z</time></trkpt><trkpt lat="39.6520699" lon="8.476709"><ele>141.0</ele><time>2026-05-01T08:15:03.25Z</time></trkpt><trkpt lat="39.6519945" lon="8.4768696"><ele>141.0</ele><time>2026-05-01T08:15:04.249Z</time></trkpt><trkpt lat="39.6519408" lon="8.4770297"><ele>141.0</ele><time>2026-05-01T08:15:05.25Z</time></trkpt><trkpt lat="39.651904" lon="8.4771843"><ele>141.0</ele><time>2026-05-01T08:15:06.25Z</time></trkpt><trkpt lat="39.6518678" lon="8.4773227"><ele>141.0</ele><time>2026-05-01T08:15:07.25Z</time></trkpt><trkpt lat="39.6518128" lon="8.477426"><ele>141.0</ele><time>2026-05-01T08:15:08.25Z</time></trkpt><trkpt lat="39.651736" lon="8.4775046"><ele>141.0</ele><time>2026-05-01T08:15:09.25Z</time></trkpt><trkpt lat="39.6516442" lon="8.4775414"><ele>141.0</ele><time>2026-05-01T08:15:10.25Z</time></trkpt><trkpt lat="39.6515443" lon="8.4775219"><ele>141.0</ele><time>2026-05-01T08:15:11.248Z</time></trkpt><trkpt lat="39.651445" lon="8.4774573"><ele>141.0</ele><time>2026-05-01T08:15:12.25Z</time></trkpt><trkpt lat="39.6513609" lon="8.4773557"><ele>141.0</ele><time>2026-05-01T08:15:13.249Z</time></trkpt><trkpt lat="39.6513056" lon="8.4772273"><ele>141.0</ele><time>2026-05-01T08:15:14.249Z</time></trkpt><trkpt lat="39.6512838" lon="8.4770907"><ele>141.0</ele><time>2026-05-01T08:15:15.248Z</time></trkpt><trkpt lat="39.6512853" lon="8.4769277"><ele>138.75</ele><time>2026-05-01T08:15:16.248Z</time></trkpt><trkpt lat="39.6512878" lon="8.4767357"><ele>136.5</ele><time>2026-05-01T08:15:17.248Z</time></trkpt><trkpt lat="39.6512865" lon="8.4765631"><ele>134.25</ele><time>2026-05-01T08:15:18.25Z</time></trkpt><trkpt lat="39.6512854" lon="8.4763734"><ele>132.0</ele><time>2026-05-01T08:15:19.25Z</time></trkpt><trkpt lat="39.6512915" lon="8.4761826"><ele>131.5</ele><time>2026-05-01T08:15:20.248Z</time></trkpt><trkpt lat="39.6513242" lon="8.4760014"><ele>131.0</ele><time>2026-05-01T08:15:21.248Z</time></trkpt><trkpt lat="39.6513784" lon="8.4758264"><ele>130.5</ele><time>2026-05-01T08:15:22.249Z</time></trkpt><trkpt lat="39.6514348" lon="8.4756571"><ele>130.0</ele><time>2026-05-01T08:15:23.249Z</time></trkpt><trkpt lat="39.6514885" lon="8.4755014"><ele>130.4</ele><time>2026-05-01T08:15:24.25Z</time></trkpt><trkpt lat="39.6515365" lon="8.4753599"><ele>130.8</ele><time>2026-05-01T08:15:25.25Z</time></trkpt><trkpt lat="39.6515533" lon="8.4752271"><ele>131.2</ele><time>2026-05-01T08:15:26.249Z</time></trkpt><trkpt lat="39.6515375" lon="8.4750938"><ele>131.6</ele><time>2026-05-01T08:15:27.249Z</time></trkpt><trkpt lat="39.6514894" lon="8.4749744"><ele>132.0</ele><time>2026-05-01T08:15:28.25Z</time></trkpt><trkpt lat="39.6514115" lon="8.4748757"><ele>132.0</ele><time>2026-05-01T08:15:29.25Z</time></trkpt><trkpt lat="39.6513079" lon="8.4748199"><ele>132.0</ele><time>2026-05-01T08:15:30.249Z</time></trkpt><trkpt lat="39.6511897" lon="8.4748028"><ele>132.0</ele><time>2026-05-01T08:15:31.249Z</time></trkpt><trkpt lat="39.6510646" lon="8.4748245"><ele>132.0</ele><time>2026-05-01T08:15:32.25Z</time></trkpt><trkpt lat="39.6509356" lon="8.4748859"><ele>131.25</ele><time>2026-05-01T08:15:33.248Z</time></trkpt><trkpt lat="39.650798" lon="8.4749611"><ele>130.5</ele><time>2026-05-01T08:15:34.249Z</time></trkpt><trkpt lat="39.6506678" lon="8.4750308"><ele>129.75</ele><time>2026-05-01T08:15:35.248Z</time></trkpt><trkpt lat="39.6505387" lon="8.4750998"><ele>129.0</ele><time>2026-05-01T08:15:36.25Z</time></trkpt><trkpt lat="39.6504053" lon="8.4751402"><ele>127.0</ele><time>2026-05-01T08:15:37.249Z</time></trkpt><trkpt lat="39.6502689" lon="8.4751439"><ele>125.0</ele><time>2026-05-01T08:15:38.25Z</time></trkpt><trkpt lat="39.6501236" lon="8.4751161"><ele>123.0</ele><time>2026-05-01T08:15:39.249Z</time></trkpt><trkpt lat="39.6499738" lon="8.4750753"><ele>121.0</ele><time>2026-05-01T08:15:40.249Z</time></trkpt><trkpt lat="39.6498181" lon="8.4750218"><ele>121.0</ele><time>2026-05-01T08:15:41.249Z</time></trkpt><trkpt lat="39.649663" lon="8.4749706"><ele>121.0</ele><time>2026-05-01T08:15:42.249Z</time></trkpt><trkpt lat="39.6495107" lon="8.4749198"><ele>121.0</ele><time>2026-05-01T08:15:43.25Z</time></trkpt><trkpt lat="39.649371" lon="8.4748824"><ele>119.25</ele><time>2026-05-01T08:15:44.25Z</time></trkpt><trkpt lat="39.6492404" lon="8.4748755"><ele>117.5</ele><time>2026-05-01T08:15:45.248Z</time></trkpt><trkpt lat="39.6491306" lon="8.4749101"><ele>115.75</ele><time>2026-05-01T08:15:46.248Z</time></trkpt><trkpt lat="39.6490447" lon="8.4749874"><ele>114.0</ele><time>2026-05-01T08:15:47.25Z</time></trkpt><trkpt lat="39.648984" lon="8.4750995"><ele>114.0</ele><time>2026-05-01T08:15:48.249Z</time></trkpt><trkpt lat="39.6489439" lon="8.4752432"><ele>114.0</ele><time>2026-05-01T08:15:49.249Z</time></trkpt><trkpt lat="39.648918" lon="8.4753955"><ele>114.0</ele><time>2026-05-01T08:15:50.248Z</time></trkpt><trkpt lat="39.6488967" lon="8.4755478"><ele>114.0</ele><time>2026-05-01T08:15:51.25Z</time></trkpt><trkpt lat="39.6488464" lon="8.4756759"><ele>111.5</ele><time>2026-05-01T08:15:52.25Z</time></trkpt><trkpt lat="39.6487659" lon="8.4757775"><ele>109.0</ele><time>2026-05-01T08:15:53.249Z</time></trkpt><trkpt lat="39.6486566" lon="8.4758626"><ele>106.5</ele><time>2026-05-01T08:15:54.248Z</time></trkpt><trkpt lat="39.648533" lon="8.475922"><ele>104.0</ele><time>2026-05-01T08:15:55.248Z</time></trkpt><trkpt lat="39.6483945" lon="8.4759564"><ele>104.0</ele><time>2026-05-01T08:15:56.249Z</time></trkpt><trkpt lat="39.6482446" lon="8.4759836"><ele>104.0</ele><time>2026-05-01T08:15:57.248Z</time></trkpt><trkpt lat="39.6480838" lon="8.4760092"><ele>104.0</ele><time>2026-05-01T08:15:58.248Z</time></trkpt><trkpt lat="39.647927" lon="8.4760355"><ele>100.33333333333333</ele><time>2026-05-01T08:15:59.25Z</time></trkpt><trkpt lat="39.6477744" lon="8.4760627"><ele>96.66666666666666</ele><time>2026-05-01T08:16:00.25Z</time></trkpt><trkpt lat="39.6476257" lon="8.4760943"><ele>93.0</ele><time>2026-05-01T08:16:01.25Z</time></trkpt><trkpt lat="39.6474789" lon="8.4761247"><ele>93.0</ele><time>2026-05-01T08:16:02.25Z</time></trkpt><trkpt lat="39.6473331" lon="8.4761316"><ele>93.0</ele><time>2026-05-01T08:16:03.249Z</time></trkpt><trkpt lat="39.6471938" lon="8.4761039"><ele>93.0</ele><time>2026-05-01T08:16:04.25Z</time></trkpt><trkpt lat="39.6470693" lon="8.4760313"><ele>93.0</ele><time>2026-05-01T08:16:05.248Z</time></trkpt><trkpt lat="39.6469684" lon="8.4759196"><ele>93.5</ele><time>2026-05-01T08:16:06.25Z</time></trkpt><trkpt lat="39.6468847" lon="8.4757747"><ele>94.0</ele><time>2026-05-01T08:16:07.249Z</time></trkpt><trkpt lat="39.6468049" lon="8.4756163"><ele>94.5</ele><time>2026-05-01T08:16:08.25Z</time></trkpt><trkpt lat="39.6467171" lon="8.4754449"><ele>95.0</ele><time>2026-05-01T08:16:09.249Z</time></trkpt><trkpt lat="39.646625" lon="8.4752719"><ele>95.75</ele><time>2026-05-01T08:16:10.249Z</time></trkpt><trkpt lat="39.646538" lon="8.4751099"><ele>96.5</ele><time>2026-05-01T08:16:11.249Z</time></trkpt><trkpt lat="39.6464443" lon="8.4749637"><ele>97.25</ele><time>2026-05-01T08:16:12.249Z</time></trkpt><trkpt lat="39.6463386" lon="8.4748443"><ele>98.0</ele><time>2026-05-01T08:16:13.25Z</time></trkpt><trkpt lat="39.6462171" lon="8.47475"><ele>98.25</ele><time>2026-05-01T08:16:14.25Z</time></trkpt><trkpt lat="39.6460836" lon="8.4746865"><ele>98.5</ele><time>2026-05-01T08:16:15.249Z</time></trkpt><trkpt lat="39.645938" lon="8.4746483"><ele>98.75</ele><time>2026-05-01T08:16:16.249Z</time></trkpt><trkpt lat="39.6457846" lon="8.474616"><ele>99.0</ele><time>2026-05-01T08:16:17.249Z</time></trkpt><trkpt lat="39.645631" lon="8.4745856"><ele>103.66666666666666</ele><time>2026-05-01T08:16:18.249Z</time></trkpt><trkpt lat="39.645476" lon="8.4745543"><ele>108.33333333333333</ele><time>2026-05-01T08:16:19.249Z</time></trkpt><trkpt lat="39.6453213" lon="8.4745192"><ele>113.0</ele><time>2026-05-01T08:16:20.249Z</time></trkpt><trkpt lat="39.6451636" lon="8.4744827"><ele>114.33333333333333</ele><time>2026-05-01T08:16:21.249Z</time></trkpt><trkpt lat="39.6450055" lon="8.474442"><ele>115.66666666666666</ele><time>2026-05-01T08:16:22.249Z</time></trkpt><trkpt lat="39.6448554" lon="8.4743919"><ele>117.0</ele><time>2026-05-01T08:16:23.249Z</time></trkpt><trkpt lat="39.6447237" lon="8.4743285"><ele>117.0</ele><time>2026-05-01T08:16:24.249Z</time></trkpt><trkpt lat="39.6446039" lon="8.4742413"><ele>117.0</ele><time>2026-05-01T08:16:25.248Z</time></trkpt><trkpt lat="39.6444953" lon="8.4741462"><ele>117.0</ele><time>2026-05-01T08:16:26.25Z</time></trkpt><trkpt lat="39.6443905" lon="8.4740745"><ele>117.0</ele><time>2026-05-01T08:16:27.249Z</time></trkpt><trkpt lat="39.6442832" lon="8.4740462"><ele>117.25</ele><time>2026-05-01T08:16:28.249Z</time></trkpt><trkpt lat="39.6441693" lon="8.4740496"><ele>117.5</ele><time>2026-05-01T08:16:29.249Z</time></trkpt><trkpt lat="39.6440461" lon="8.4740854"><ele>117.75</ele><time>2026-05-01T08:16:30.249Z</time></trkpt><trkpt lat="39.6439115" lon="8.4741464"><ele>118.0</ele><time>2026-05-01T08:16:31.25Z</time></trkpt><trkpt lat="39.6437912" lon="8.4742179"><ele>118.0</ele><time>2026-05-01T08:16:32.248Z</time></trkpt><trkpt lat="39.6436745" lon="8.4742799"><ele>118.0</ele><time>2026-05-01T08:16:33.25Z</time></trkpt><trkpt lat="39.6435534" lon="8.4743161"><ele>118.0</ele><time>2026-05-01T08:16:34.248Z</time></trkpt><trkpt lat="39.6434294" lon="8.4743151"><ele>118.0</ele><time>2026-05-01T08:16:35.25Z</time></trkpt><trkpt lat="39.6432977" lon="8.474286"><ele>120.75</ele><time>2026-05-01T08:16:36.249Z</time></trkpt><trkpt lat="39.6431532" lon="8.4742482"><ele>123.5</ele><time>2026-05-01T08:16:37.25Z</time></trkpt><trkpt lat="39.6430043" lon="8.4742251"><ele>126.25</ele><time>2026-05-01T08:16:38.249Z</time></trkpt><trkpt lat="39.6428554" lon="8.4742307"><ele>129.0</ele><time>2026-05-01T08:16:39.249Z</time></trkpt><trkpt lat="39.6427113" lon="8.4742743"><ele>130.66666666666666</ele><time>2026-05-01T08:16:40.249Z</time></trkpt><trkpt lat="39.6425701" lon="8.4743331"><ele>132.33333333333331</ele><time>2026-05-01T08:16:41.25Z</time></trkpt><trkpt lat="39.642425" lon="8.4743848"><ele>134.0</ele><time>2026-05-01T08:16:42.25Z</time></trkpt><trkpt lat="39.6422735" lon="8.4744018"><ele>134.0</ele><time>2026-05-01T08:16:43.25Z</time></trkpt><trkpt lat="39.64212" lon="8.4744042"><ele>134.0</ele><time>2026-05-01T08:16:44.248Z</time></trkpt><trkpt lat="39.6419663" lon="8.4744017"><ele>134.0</ele><time>2026-05-01T08:16:45.249Z</time></trkpt><trkpt lat="39.6418152" lon="8.4743937"><ele>135.66666666666666</ele><time>2026-05-01T08:16:46.249Z</time></trkpt><trkpt lat="39.6416657" lon="8.4743825"><ele>137.33333333333334</ele><time>2026-05-01T08:16:47.25Z</time></trkpt><trkpt lat="39.6415159" lon="8.4743722"><ele>139.0</ele><time>2026-05-01T08:16:48.249Z</time></trkpt><trkpt lat="39.6413642" lon="8.4743638"><ele>139.0</ele><time>2026-05-01T08:16:49.249Z</time></trkpt><trkpt lat="39.6412123" lon="8.4743559"><ele>139.0</ele><time>2026-05-01T08:16:50.249Z</time></trkpt><trkpt lat="39.6410582" lon="8.4743586"><ele>139.0</ele><time>2026-05-01T08:16:51.249Z</time></trkpt><trkpt lat="39.6409043" lon="8.474385"><ele>138.66666666666669</ele><time>2026-05-01T08:16:52.249Z</time></trkpt><trkpt lat="39.6407539" lon="8.4744289"><ele>138.33333333333334</ele><time>2026-05-01T08:16:53.249Z</time></trkpt><trkpt lat="39.6406161" lon="8.4745037"><ele>138.0</ele><time>2026-05-01T08:16:54.249Z</time></trkpt><trkpt lat="39.6404914" lon="8.4746087"><ele>139.0</ele><time>2026-05-01T08:16:55.249Z</time></trkpt><trkpt lat="39.640379" lon="8.4747438"><ele>140.0</ele><time>2026-05-01T08:16:56.25Z</time></trkpt><trkpt lat="39.6402673" lon="8.4749022"><ele>141.0</ele><time>2026-05-01T08:16:57.25Z</time></trkpt><trkpt lat="39.640156" lon="8.47508"><ele>142.0</ele><time>2026-05-01T08:16:58.25Z</time></trkpt><trkpt lat="39.6400448" lon="8.4752713"><ele>143.0</ele><time>2026-05-01T08:16:59.249Z</time></trkpt><trkpt lat="39.6399313" lon="8.4754706"><ele>144.0</ele><time>2026-05-01T08:17:00.249Z</time></trkpt><trkpt lat="39.6398166" lon="8.4756665"><ele>145.33333333333334</ele><time>2026-05-01T08:17:01.249Z</time></trkpt><trkpt lat="39.6397121" lon="8.4758457"><ele>146.66666666666669</ele><time>2026-05-01T08:17:02.25Z</time></trkpt><trkpt lat="39.6396186" lon="8.4760118"><ele>148.0</ele><time>2026-05-01T08:17:03.249Z</time></trkpt><trkpt lat="39.6395293" lon="8.4761658"><ele>148.25</ele><time>2026-05-01T08:17:04.249Z</time></trkpt><trkpt lat="39.6394326" lon="8.4762956"><ele>148.5</ele><time>2026-05-01T08:17:05.249Z</time></trkpt><trkpt lat="39.6393203" lon="8.4763865"><ele>148.75</ele><time>2026-05-01T08:17:06.249Z</time></trkpt><trkpt lat="39.6391957" lon="8.476439"><ele>149.0</ele><time>2026-05-01T08:17:07.25Z</time></trkpt><trkpt lat="39.6390589" lon="8.4764567"><ele>149.0</ele><time>2026-05-01T08:17:08.25Z</time></trkpt><trkpt lat="39.6389077" lon="8.4764535"><ele>149.0</ele><time>2026-05-01T08:17:09.249Z</time></trkpt><trkpt lat="39.6387543" lon="8.4764486"><ele>149.0</ele><time>2026-05-01T08:17:10.249Z</time></trkpt><trkpt lat="39.6386157" lon="8.4764688"><ele>149.0</ele><time>2026-05-01T08:17:11.25Z</time></trkpt><trkpt lat="39.6384775" lon="8.4765239"><ele>149.66666666666666</ele><time>2026-05-01T08:17:12.25Z</time></trkpt><trkpt lat="39.638341" lon="8.4766055"><ele>150.33333333333334</ele><time>2026-05-01T08:17:13.25Z</time></trkpt><trkpt lat="39.6382016" lon="8.4767105"><ele>151.0</ele><time>2026-05-01T08:17:14.25Z</time></trkpt><trkpt lat="39.6380588" lon="8.4768266"><ele>151.0</ele><time>2026-05-01T08:17:15.249Z</time></trkpt><trkpt lat="39.6379171" lon="8.4769413"><ele>151.0</ele><time>2026-05-01T08:17:16.249Z</time></trkpt><trkpt lat="39.6377766" lon="8.4770532"><ele>151.0</ele><time>2026-05-01T08:17:17.249Z</time></trkpt><trkpt lat="39.637639" lon="8.4771638"><ele>151.66666666666669</ele><time>2026-05-01T08:17:18.249Z</time></trkpt><trkpt lat="39.6375025" lon="8.4772718"><ele>152.33333333333334</ele><time>2026-05-01T08:17:19.249Z</time></trkpt><trkpt lat="39.6373697" lon="8.4773808"><ele>153.0</ele><time>2026-05-01T08:17:20.25Z</time></trkpt><trkpt lat="39.6372382" lon="8.4774901"><ele>153.0</ele><time>2026-05-01T08:17:21.249Z</time></trkpt><trkpt lat="39.6371053" lon="8.4775985"><ele>153.0</ele><time>2026-05-01T08:17:22.25Z</time></trkpt><trkpt lat="39.6369695" lon="8.4777098"><ele>153.0</ele><time>2026-05-01T08:17:23.249Z</time></trkpt><trkpt lat="39.6368334" lon="8.4778233"><ele>153.66666666666666</ele><time>2026-05-01T08:17:24.248Z</time></trkpt><trkpt lat="39.636702" lon="8.4779533"><ele>154.33333333333331</ele><time>2026-05-01T08:17:25.25Z</time></trkpt><trkpt lat="39.6365822" lon="8.4780972"><ele>155.0</ele><time>2026-05-01T08:17:26.249Z</time></trkpt><trkpt lat="39.6364812" lon="8.4782504"><ele>155.0</ele><time>2026-05-01T08:17:27.249Z</time></trkpt><trkpt lat="39.6363924" lon="8.4784039"><ele>155.0</ele><time>2026-05-01T08:17:28.249Z</time></trkpt><trkpt lat="39.6363087" lon="8.4785541"><ele>155.0</ele><time>2026-05-01T08:17:29.249Z</time></trkpt><trkpt lat="39.6362329" lon="8.4786875"><ele>155.0</ele><time>2026-05-01T08:17:30.249Z</time></trkpt><trkpt lat="39.6361625" lon="8.4788074"><ele>153.6</ele><time>2026-05-01T08:17:31.249Z</time></trkpt><trkpt lat="39.6360928" lon="8.4789221"><ele>152.2</ele><time>2026-05-01T08:17:32.249Z</time></trkpt><trkpt lat="39.6360202" lon="8.4790273"><ele>150.8</ele><time>2026-05-01T08:17:33.248Z</time></trkpt><trkpt lat="39.6359361" lon="8.4791208"><ele>149.4</ele><time>2026-05-01T08:17:34.249Z</time></trkpt><trkpt lat="39.6358402" lon="8.4792061"><ele>148.0</ele><time>2026-05-01T08:17:35.25Z</time></trkpt><trkpt lat="39.6357303" lon="8.4792825"><ele>148.0</ele><time>2026-05-01T08:17:36.249Z</time></trkpt><trkpt lat="39.6356098" lon="8.4793523"><ele>148.0</ele><time>2026-05-01T08:17:37.249Z</time></trkpt><trkpt lat="39.6354786" lon="8.479412"><ele>148.0</ele><time>2026-05-01T08:17:38.25Z</time></trkpt><trkpt lat="39.635337" lon="8.4794646"><ele>148.0</ele><time>2026-05-01T08:17:39.25Z</time></trkpt><trkpt lat="39.6351978" lon="8.4794935"><ele>147.75</ele><time>2026-05-01T08:17:40.249Z</time></trkpt><trkpt lat="39.635057" lon="8.4794946"><ele>147.5</ele><time>2026-05-01T08:17:41.249Z</time></trkpt><trkpt lat="39.6349151" lon="8.4794499"><ele>147.25</ele><time>2026-05-01T08:17:42.248Z</time></trkpt><trkpt lat="39.6347781" lon="8.4793736"><ele>147.0</ele><time>2026-05-01T08:17:43.249Z</time></trkpt><trkpt lat="39.6346538" lon="8.4792631"><ele>147.0</ele><time>2026-05-01T08:17:44.248Z</time></trkpt><trkpt lat="39.6345448" lon="8.4791202"><ele>147.0</ele><time>2026-05-01T08:17:45.248Z</time></trkpt><trkpt lat="39.6344601" lon="8.4789543"><ele>147.0</ele><time>2026-05-01T08:17:46.249Z</time></trkpt><trkpt lat="39.634396" lon="8.478763"><ele>146.66666666666666</ele><time>2026-05-01T08:17:47.249Z</time></trkpt><trkpt lat="39.6343512" lon="8.4785496"><ele>146.33333333333331</ele><time>2026-05-01T08:17:48.249Z</time></trkpt><trkpt lat="39.6343129" lon="8.4783241"><ele>146.0</ele><time>2026-05-01T08:17:49.249Z</time></trkpt><trkpt lat="39.6342773" lon="8.4780959"><ele>144.66666666666666</ele><time>2026-05-01T08:17:50.249Z</time></trkpt><trkpt lat="39.6342428" lon="8.4778805"><ele>143.33333333333334</ele><time>2026-05-01T08:17:51.25Z</time></trkpt><trkpt lat="39.6342084" lon="8.4776719"><ele>142.0</ele><time>2026-05-01T08:17:52.249Z</time></trkpt><trkpt lat="39.6341768" lon="8.4774736"><ele>142.0</ele><time>2026-05-01T08:17:53.249Z</time></trkpt><trkpt lat="39.6341491" lon="8.4772925"><ele>142.0</ele><time>2026-05-01T08:17:54.249Z</time></trkpt><trkpt lat="39.6341232" lon="8.4771239"><ele>142.0</ele><time>2026-05-01T08:17:55.248Z</time></trkpt><trkpt lat="39.6340869" lon="8.4769631"><ele>142.0</ele><time>2026-05-01T08:17:56.25Z</time></trkpt><trkpt lat="39.6340308" lon="8.476816"><ele>141.75</ele><time>2026-05-01T08:17:57.25Z</time></trkpt><trkpt lat="39.6339552" lon="8.4766912"><ele>141.5</ele><time>2026-05-01T08:17:58.249Z</time></trkpt><trkpt lat="39.6338608" lon="8.4765961"><ele>141.25</ele><time>2026-05-01T08:17:59.249Z</time></trkpt><trkpt lat="39.6337496" lon="8.4765403"><ele>141.0</ele><time>2026-05-01T08:18:00.25Z</time></trkpt><trkpt lat="39.6336251" lon="8.4765144"><ele>141.0</ele><time>2026-05-01T08:18:01.248Z</time></trkpt><trkpt lat="39.6334967" lon="8.4765307"><ele>141.0</ele><time>2026-05-01T08:18:02.25Z</time></trkpt><trkpt lat="39.6333723" lon="8.476592"><ele>141.0</ele><time>2026-05-01T08:18:03.248Z</time></trkpt><trkpt lat="39.6332508" lon="8.4766921"><ele>141.0</ele><time>2026-05-01T08:18:04.249Z</time></trkpt><trkpt lat="39.6331271" lon="8.4768167"><ele>141.0</ele><time>2026-05-01T08:18:05.249Z</time></trkpt><trkpt lat="39.632999" lon="8.4769605"><ele>141.0</ele><time>2026-05-01T08:18:06.249Z</time></trkpt><trkpt lat="39.6328728" lon="8.4771069"><ele>141.0</ele><time>2026-05-01T08:18:07.249Z</time></trkpt><trkpt lat="39.6327545" lon="8.4772597"><ele>138.0</ele><time>2026-05-01T08:18:08.248Z</time></trkpt><trkpt lat="39.6326509" lon="8.4774177"><ele>135.0</ele><time>2026-05-01T08:18:09.248Z</time></trkpt><trkpt lat="39.6325553" lon="8.4775828"><ele>132.0</ele><time>2026-05-01T08:18:10.249Z</time></trkpt><trkpt lat="39.6324686" lon="8.4777599"><ele>133.33333333333334</ele><time>2026-05-01T08:18:11.25Z</time></trkpt><trkpt lat="39.6323837" lon="8.4779557"><ele>134.66666666666669</ele><time>2026-05-01T08:18:12.249Z</time></trkpt><trkpt lat="39.6322986" lon="8.4781524"><ele>136.0</ele><time>2026-05-01T08:18:13.248Z</time></trkpt><trkpt lat="39.6322192" lon="8.4783374"><ele>136.0</ele><time>2026-05-01T08:18:14.249Z</time></trkpt><trkpt lat="39.6321477" lon="8.4785026"><ele>136.0</ele><time>2026-05-01T08:18:15.25Z</time></trkpt><trkpt lat="39.63208" lon="8.4786382"><ele>136.0</ele><time>2026-05-01T08:18:16.249Z</time></trkpt><trkpt lat="39.6320011" lon="8.4787487"><ele>136.0</ele><time>2026-05-01T08:18:17.249Z</time></trkpt><trkpt lat="39.631915" lon="8.4788257"><ele>132.5</ele><time>2026-05-01T08:18:18.249Z</time></trkpt><trkpt lat="39.631819" lon="8.4788577"><ele>129.0</ele><time>2026-05-01T08:18:19.25Z</time></trkpt><trkpt lat="39.6317131" lon="8.4788433"><ele>125.5</ele><time>2026-05-01T08:18:20.25Z</time></trkpt><trkpt lat="39.6315961" lon="8.4787873"><ele>122.0</ele><time>2026-05-01T08:18:21.25Z</time></trkpt><trkpt lat="39.6314706" lon="8.4787081"><ele>122.0</ele><time>2026-05-01T08:18:22.25Z</time></trkpt><trkpt lat="39.6313301" lon="8.4786112"><ele>122.0</ele><time>2026-05-01T08:18:23.249Z</time></trkpt><trkpt lat="39.6311868" lon="8.4785158"><ele>122.0</ele><time>2026-05-01T08:18:24.25Z</time></trkpt><trkpt lat="39.6310486" lon="8.4784169"><ele>116.0</ele><time>2026-05-01T08:18:25.249Z</time></trkpt><trkpt lat="39.6309163" lon="8.4782955"><ele>110.0</ele><time>2026-05-01T08:18:26.249Z</time></trkpt><trkpt lat="39.6307922" lon="8.4781478"><ele>104.0</ele><time>2026-05-01T08:18:27.249Z</time></trkpt><trkpt lat="39.6306786" lon="8.4779782"><ele>108.66666666666666</ele><time>2026-05-01T08:18:28.25Z</time></trkpt><trkpt lat="39.6305591" lon="8.477802"><ele>113.33333333333334</ele><time>2026-05-01T08:18:29.25Z</time></trkpt><trkpt lat="39.6304386" lon="8.4776272"><ele>118.0</ele><time>2026-05-01T08:18:30.25Z</time></trkpt><trkpt lat="39.6303193" lon="8.4774555"><ele>114.66666666666667</ele><time>2026-05-01T08:18:31.248Z</time></trkpt><trkpt lat="39.6301946" lon="8.477299"><ele>111.33333333333334</ele><time>2026-05-01T08:18:32.248Z</time></trkpt><trkpt lat="39.6300568" lon="8.477159"><ele>108.0</ele><time>2026-05-01T08:18:33.249Z</time></trkpt><trkpt lat="39.629912" lon="8.4770354"><ele>108.0</ele><time>2026-05-01T08:18:34.249Z</time></trkpt><trkpt lat="39.6297729" lon="8.4769092"><ele>108.0</ele><time>2026-05-01T08:18:35.25Z</time></trkpt><trkpt lat="39.6296447" lon="8.4767756"><ele>108.0</ele><time>2026-05-01T08:18:36.249Z</time></trkpt><trkpt lat="39.6295409" lon="8.4766445"><ele>105.60000000000001</ele><time>2026-05-01T08:18:37.249Z</time></trkpt><trkpt lat="39.6294502" lon="8.4765332"><ele>103.20000000000002</ele><time>2026-05-01T08:18:38.25Z</time></trkpt><trkpt lat="39.629363" lon="8.4764701"><ele>100.8</ele><time>2026-05-01T08:18:39.25Z</time></trkpt><trkpt lat="39.6292753" lon="8.476452"><ele>98.4</ele><time>2026-05-01T08:18:40.249Z</time></trkpt><trkpt lat="39.6291786" lon="8.4764629"><ele>96.0</ele><time>2026-05-01T08:18:41.25Z</time></trkpt><trkpt lat="39.6290762" lon="8.4765109"><ele>96.0</ele><time>2026-05-01T08:18:42.25Z</time></trkpt><trkpt lat="39.6289701" lon="8.4765769"><ele>96.0</ele><time>2026-05-01T08:18:43.249Z</time></trkpt><trkpt lat="39.6288562" lon="8.4766336"><ele>96.0</ele><time>2026-05-01T08:18:44.249Z</time></trkpt><trkpt lat="39.6287343" lon="8.4766567"><ele>96.0</ele><time>2026-05-01T08:18:45.249Z</time></trkpt><trkpt lat="39.6286033" lon="8.4766536"><ele>96.25</ele><time>2026-05-01T08:18:46.249Z</time></trkpt><trkpt lat="39.6284629" lon="8.4766336"><ele>96.5</ele><time>2026-05-01T08:18:47.249Z</time></trkpt><trkpt lat="39.6283234" lon="8.4765948"><ele>96.75</ele><time>2026-05-01T08:18:48.249Z</time></trkpt><trkpt lat="39.6281832" lon="8.4765206"><ele>97.0</ele><time>2026-05-01T08:18:49.249Z</time></trkpt><trkpt lat="39.628045" lon="8.4764183"><ele>97.0</ele><time>2026-05-01T08:18:50.25Z</time></trkpt><trkpt lat="39.627892" lon="8.4763035"><ele>97.0</ele><time>2026-05-01T08:18:51.25Z</time></trkpt><trkpt lat="39.6277436" lon="8.4761886"><ele>97.0</ele><time>2026-05-01T08:18:52.249Z</time></trkpt><trkpt lat="39.6276077" lon="8.4760771"><ele>93.33333333333334</ele><time>2026-05-01T08:18:53.249Z</time></trkpt><trkpt lat="39.6274752" lon="8.4759747"><ele>89.66666666666667</ele><time>2026-05-01T08:18:54.249Z</time></trkpt><trkpt lat="39.627337" lon="8.4759052"><ele>86.0</ele><time>2026-05-01T08:18:55.249Z</time></trkpt><trkpt lat="39.6271908" lon="8.4758609"><ele>86.0</ele><time>2026-05-01T08:18:56.248Z</time></trkpt><trkpt lat="39.6270412" lon="8.4758344"><ele>86.0</ele><time>2026-05-01T08:18:57.248Z</time></trkpt><trkpt lat="39.6268921" lon="8.47579"><ele>86.0</ele><time>2026-05-01T08:18:58.249Z</time></trkpt><trkpt lat="39.626745" lon="8.4757319"><ele>90.66666666666667</ele><time>2026-05-01T08:18:59.249Z</time></trkpt><trkpt lat="39.6265963" lon="8.4756691"><ele>95.33333333333334</ele><time>2026-05-01T08:19:00.25Z</time></trkpt><trkpt lat="39.6264527" lon="8.4755831"><ele>100.0</ele><time>2026-05-01T08:19:01.248Z</time></trkpt><trkpt lat="39.6263169" lon="8.4754753"><ele>98.0</ele><time>2026-05-01T08:19:02.249Z</time></trkpt><trkpt lat="39.6261836" lon="8.4753561"><ele>96.0</ele><time>2026-05-01T08:19:03.249Z</time></trkpt><trkpt lat="39.6260453" lon="8.4752435"><ele>94.0</ele><time>2026-05-01T08:19:04.249Z</time></trkpt><trkpt lat="39.6258975" lon="8.4751525"><ele>94.0</ele><time>2026-05-01T08:19:05.25Z</time></trkpt><trkpt lat="39.6257567" lon="8.4750833"><ele>94.0</ele><time>2026-05-01T08:19:06.249Z</time></trkpt><trkpt lat="39.6256271" lon="8.4750087"><ele>94.0</ele><time>2026-05-01T08:19:07.249Z</time></trkpt><trkpt lat="39.6255212" lon="8.4749107"><ele>94.0</ele><time>2026-05-01T08:19:08.249Z</time></trkpt><trkpt lat="39.6254371" lon="8.4747985"><ele>94.0</ele><time>2026-05-01T08:19:09.249Z</time></trkpt><trkpt lat="39.625366" lon="8.4746727"><ele>94.0</ele><time>2026-05-01T08:19:10.25Z</time></trkpt><trkpt lat="39.6253008" lon="8.4745568"><ele>94.0</ele><time>2026-05-01T08:19:11.249Z</time></trkpt><trkpt lat="39.6252316" lon="8.4744733"><ele>94.0</ele><time>2026-05-01T08:19:12.249Z</time></trkpt><trkpt lat="39.6251553" lon="8.4744422"><ele>94.0</ele><time>2026-05-01T08:19:13.249Z</time></trkpt><trkpt lat="39.6250718" lon="8.4744711"><ele>94.5</ele><time>2026-05-01T08:19:14.25Z</time></trkpt><trkpt lat="39.6249925" lon="8.4745453"><ele>95.0</ele><time>2026-05-01T08:19:15.25Z</time></trkpt><trkpt lat="39.6249222" lon="8.4746607"><ele>95.5</ele><time>2026-05-01T08:19:16.25Z</time></trkpt><trkpt lat="39.6248694" lon="8.4748046"><ele>96.0</ele><time>2026-05-01T08:19:17.249Z</time></trkpt><trkpt lat="39.6248332" lon="8.4749631"><ele>96.0</ele><time>2026-05-01T08:19:18.248Z</time></trkpt><trkpt lat="39.6247953" lon="8.4751163"><ele>96.0</ele><time>2026-05-01T08:19:19.248Z</time></trkpt><trkpt lat="39.6247326" lon="8.4752465"><ele>96.0</ele><time>2026-05-01T08:19:20.249Z</time></trkpt><trkpt lat="39.6246468" lon="8.4753641"><ele>96.0</ele><time>2026-05-01T08:19:21.248Z</time></trkpt><trkpt lat="39.6245503" lon="8.4754661"><ele>91.5</ele><time>2026-05-01T08:19:22.248Z</time></trkpt><trkpt lat="39.6244546" lon="8.4755535"><ele>87.0</ele><time>2026-05-01T08:19:23.247Z</time></trkpt><trkpt lat="39.6243747" lon="8.4756543"><ele>82.5</ele><time>2026-05-01T08:19:24.248Z</time></trkpt><trkpt lat="39.6243205" lon="8.4757909"><ele>78.0</ele><time>2026-05-01T08:19:25.248Z</time></trkpt><trkpt lat="39.624281" lon="8.4759391"><ele>78.0</ele><time>2026-05-01T08:19:26.248Z</time></trkpt><trkpt lat="39.6242625" lon="8.4760771"><ele>78.0</ele><time>2026-05-01T08:19:27.248Z</time></trkpt><trkpt lat="39.6242777" lon="8.476204"><ele>78.0</ele><time>2026-05-01T08:19:28.248Z</time></trkpt><trkpt lat="39.6243229" lon="8.4763134"><ele>78.0</ele><time>2026-05-01T08:19:29.248Z</time></trkpt><trkpt lat="39.6243559" lon="8.4764247"><ele>78.0</ele><time>2026-05-01T08:19:30.248Z</time></trkpt><trkpt lat="39.6243568" lon="8.4765543"><ele>77.5</ele><time>2026-05-01T08:19:31.249Z</time></trkpt><trkpt lat="39.6243349" lon="8.4766861"><ele>77.0</ele><time>2026-05-01T08:19:32.248Z</time></trkpt><trkpt lat="39.6242583" lon="8.4768032"><ele>76.5</ele><time>2026-05-01T08:19:33.247Z</time></trkpt><trkpt lat="39.624171" lon="8.4768884"><ele>76.0</ele><time>2026-05-01T08:19:34.248Z</time></trkpt><trkpt lat="39.6240567" lon="8.4769381"><ele>76.0</ele><time>2026-05-01T08:19:35.248Z</time></trkpt><trkpt lat="39.6239278" lon="8.4769818"><ele>76.0</ele><time>2026-05-01T08:19:36.248Z</time></trkpt><trkpt lat="39.6237844" lon="8.4770305"><ele>76.0</ele><time>2026-05-01T08:19:37.248Z</time></trkpt><trkpt lat="39.6236518" lon="8.4770781"><ele>76.0</ele><time>2026-05-01T08:19:38.247Z</time></trkpt><trkpt lat="39.6235297" lon="8.4771331"><ele>77.5</ele><time>2026-05-01T08:19:39.248Z</time></trkpt><trkpt lat="39.6234348" lon="8.4772233"><ele>79.0</ele><time>2026-05-01T08:19:40.248Z</time></trkpt><trkpt lat="39.6233532" lon="8.477344"><ele>80.5</ele><time>2026-05-01T08:19:41.247Z</time></trkpt><trkpt lat="39.6232822" lon="8.4774848"><ele>82.0</ele><time>2026-05-01T08:19:42.248Z</time></trkpt><trkpt lat="39.6232154" lon="8.477638"><ele>82.0</ele><time>2026-05-01T08:19:43.249Z</time></trkpt><trkpt lat="39.6231441" lon="8.477795"><ele>82.0</ele><time>2026-05-01T08:19:44.247Z</time></trkpt><trkpt lat="39.6230642" lon="8.4779436"><ele>82.0</ele><time>2026-05-01T08:19:45.249Z</time></trkpt><trkpt lat="39.6229771" lon="8.4780745"><ele>82.0</ele><time>2026-05-01T08:19:46.247Z</time></trkpt><trkpt lat="39.6228895" lon="8.4781904"><ele>81.5</ele><time>2026-05-01T08:19:47.248Z</time></trkpt><trkpt lat="39.6227969" lon="8.4783015"><ele>81.0</ele><time>2026-05-01T08:19:48.249Z</time></trkpt><trkpt lat="39.6227036" lon="8.4784077"><ele>80.5</ele><time>2026-05-01T08:19:49.248Z</time></trkpt><trkpt lat="39.6226096" lon="8.4785145"><ele>80.0</ele><time>2026-05-01T08:19:50.248Z</time></trkpt><trkpt lat="39.6225136" lon="8.4786223"><ele>80.0</ele><time>2026-05-01T08:19:51.248Z</time></trkpt><trkpt lat="39.6224154" lon="8.4787295"><ele>80.0</ele><time>2026-05-01T08:19:52.248Z</time></trkpt><trkpt lat="39.6223112" lon="8.4788297"><ele>80.0</ele><time>2026-05-01T08:19:53.248Z</time></trkpt><trkpt lat="39.622196" lon="8.4789203"><ele>80.0</ele><time>2026-05-01T08:19:54.249Z</time></trkpt><trkpt lat="39.6220801" lon="8.4790079"><ele>81.25</ele><time>2026-05-01T08:19:55.248Z</time></trkpt><trkpt lat="39.6219601" lon="8.4791017"><ele>82.5</ele><time>2026-05-01T08:19:56.248Z</time></trkpt><trkpt lat="39.6218395" lon="8.4791986"><ele>83.75</ele><time>2026-05-01T08:19:57.249Z</time></trkpt><trkpt lat="39.6217132" lon="8.4793003"><ele>85.0</ele><time>2026-05-01T08:19:58.249Z</time></trkpt><trkpt lat="39.6215831" lon="8.4794017"><ele>85.0</ele><time>2026-05-01T08:19:59.247Z</time></trkpt><trkpt lat="39.6214526" lon="8.4795059"><ele>85.0</ele><time>2026-05-01T08:20:00.248Z</time></trkpt><trkpt lat="39.62132" lon="8.47961"><ele>85.0</ele><time>2026-05-01T08:20:01.249Z</time></trkpt><trkpt lat="39.6211873" lon="8.4797145"><ele>86.33333333333333</ele><time>2026-05-01T08:20:02.248Z</time></trkpt><trkpt lat="39.6210524" lon="8.4798183"><ele>87.66666666666667</ele><time>2026-05-01T08:20:03.249Z</time></trkpt><trkpt lat="39.6209182" lon="8.479921"><ele>89.0</ele><time>2026-05-01T08:20:04.248Z</time></trkpt><trkpt lat="39.6207938" lon="8.4800172"><ele>89.0</ele><time>2026-05-01T08:20:05.247Z</time></trkpt><trkpt lat="39.6206789" lon="8.4800982"><ele>89.0</ele><time>2026-05-01T08:20:06.248Z</time></trkpt><trkpt lat="39.6205655" lon="8.4801478"><ele>89.0</ele><time>2026-05-01T08:20:07.248Z</time></trkpt><trkpt lat="39.6204508" lon="8.4801632"><ele>89.0</ele><time>2026-05-01T08:20:08.248Z</time></trkpt><trkpt lat="39.6203313" lon="8.4801487"><ele>91.0</ele><time>2026-05-01T08:20:09.249Z</time></trkpt><trkpt lat="39.6201996" lon="8.4801159"><ele>93.0</ele><time>2026-05-01T08:20:10.248Z</time></trkpt><trkpt lat="39.6200581" lon="8.4800802"><ele>95.0</ele><time>2026-05-01T08:20:11.249Z</time></trkpt><trkpt lat="39.6199068" lon="8.4800435"><ele>97.0</ele><time>2026-05-01T08:20:12.248Z</time></trkpt><trkpt lat="39.619752" lon="8.480008"><ele>97.0</ele><time>2026-05-01T08:20:13.247Z</time></trkpt><trkpt lat="39.6195942" lon="8.4799704"><ele>97.0</ele><time>2026-05-01T08:20:14.248Z</time></trkpt><trkpt lat="39.6194359" lon="8.4799337"><ele>97.0</ele><time>2026-05-01T08:20:15.248Z</time></trkpt><trkpt lat="39.6192907" lon="8.4798971"><ele>98.0</ele><time>2026-05-01T08:20:16.247Z</time></trkpt><trkpt lat="39.6191532" lon="8.4798641"><ele>99.0</ele><time>2026-05-01T08:20:17.248Z</time></trkpt><trkpt lat="39.6190228" lon="8.4798325"><ele>100.0</ele><time>2026-05-01T08:20:18.248Z</time></trkpt><trkpt lat="39.6189056" lon="8.4798018"><ele>101.0</ele><time>2026-05-01T08:20:19.247Z</time></trkpt><trkpt lat="39.6188051" lon="8.4797729"><ele>101.0</ele><time>2026-05-01T08:20:20.248Z</time></trkpt><trkpt lat="39.6187198" lon="8.4797459"><ele>101.0</ele><time>2026-05-01T08:20:21.248Z</time></trkpt><trkpt lat="39.6186547" lon="8.4797269"><ele>101.0</ele><time>2026-05-01T08:20:22.249Z</time></trkpt><trkpt lat="39.6185751" lon="8.4797183"><ele>101.0</ele><time>2026-05-01T08:20:24.248Z</time></trkpt><trkpt lat="39.6185021" lon="8.4797859"><ele>101.0</ele><time>2026-05-01T08:20:27.249Z</time></trkpt><trkpt lat="39.6184762" lon="8.4799534"><ele>100.8</ele><time>2026-05-01T08:20:29.249Z</time></trkpt><trkpt lat="39.6184674" lon="8.4800694"><ele>100.6</ele><time>2026-05-01T08:20:30.249Z</time></trkpt><trkpt lat="39.6184604" lon="8.4801965"><ele>100.4</ele><time>2026-05-01T08:20:31.249Z</time></trkpt><trkpt lat="39.618453" lon="8.4803319"><ele>100.2</ele><time>2026-05-01T08:20:32.249Z</time></trkpt><trkpt lat="39.6184415" lon="8.4804808"><ele>100.0</ele><time>2026-05-01T08:20:33.249Z</time></trkpt><trkpt lat="39.6184282" lon="8.4806384"><ele>100.5</ele><time>2026-05-01T08:20:34.249Z</time></trkpt><trkpt lat="39.6184155" lon="8.4808007"><ele>101.0</ele><time>2026-05-01T08:20:35.247Z</time></trkpt><trkpt lat="39.6184016" lon="8.4809713"><ele>101.5</ele><time>2026-05-01T08:20:36.249Z</time></trkpt><trkpt lat="39.6183871" lon="8.4811501"><ele>102.0</ele><time>2026-05-01T08:20:37.249Z</time></trkpt><trkpt lat="39.6183699" lon="8.4813382"><ele>102.33333333333334</ele><time>2026-05-01T08:20:38.248Z</time></trkpt><trkpt lat="39.6183514" lon="8.4815345"><ele>102.66666666666667</ele><time>2026-05-01T08:20:39.248Z</time></trkpt><trkpt lat="39.6183386" lon="8.4817355"><ele>103.0</ele><time>2026-05-01T08:20:40.248Z</time></trkpt><trkpt lat="39.6183223" lon="8.4819445"><ele>104.0</ele><time>2026-05-01T08:20:41.248Z</time></trkpt><trkpt lat="39.6183052" lon="8.4821529"><ele>105.0</ele><time>2026-05-01T08:20:42.249Z</time></trkpt><trkpt lat="39.6182879" lon="8.4823604"><ele>106.0</ele><time>2026-05-01T08:20:43.249Z</time></trkpt><trkpt lat="39.6182716" lon="8.4825695"><ele>106.0</ele><time>2026-05-01T08:20:44.248Z</time></trkpt><trkpt lat="39.6182583" lon="8.4827744"><ele>106.0</ele><time>2026-05-01T08:20:45.249Z</time></trkpt><trkpt lat="39.6182439" lon="8.4829645"><ele>106.0</ele><time>2026-05-01T08:20:46.248Z</time></trkpt><trkpt lat="39.6182325" lon="8.4831509"><ele>107.0</ele><time>2026-05-01T08:20:47.247Z</time></trkpt><trkpt lat="39.6182354" lon="8.4833357"><ele>108.0</ele><time>2026-05-01T08:20:48.249Z</time></trkpt><trkpt lat="39.6182547" lon="8.4835222"><ele>109.0</ele><time>2026-05-01T08:20:49.249Z</time></trkpt><trkpt lat="39.6182881" lon="8.483706"><ele>110.0</ele><time>2026-05-01T08:20:50.248Z</time></trkpt><trkpt lat="39.6183261" lon="8.4838934"><ele>111.33333333333333</ele><time>2026-05-01T08:20:51.248Z</time></trkpt><trkpt lat="39.6183669" lon="8.4840826"><ele>112.66666666666666</ele><time>2026-05-01T08:20:52.247Z</time></trkpt><trkpt lat="39.6184096" lon="8.4842797"><ele>114.0</ele><time>2026-05-01T08:20:53.248Z</time></trkpt><trkpt lat="39.6184524" lon="8.4844762"><ele>115.0</ele><time>2026-05-01T08:20:54.249Z</time></trkpt><trkpt lat="39.6184942" lon="8.4846663"><ele>116.0</ele><time>2026-05-01T08:20:55.248Z</time></trkpt><trkpt lat="39.6185351" lon="8.4848481"><ele>117.0</ele><time>2026-05-01T08:20:56.249Z</time></trkpt><trkpt lat="39.618573" lon="8.4850151"><ele>118.0</ele><time>2026-05-01T08:20:57.248Z</time></trkpt><trkpt lat="39.6186048" lon="8.4851623"><ele>118.0</ele><time>2026-05-01T08:20:58.247Z</time></trkpt><trkpt lat="39.6186333" lon="8.4853053"><ele>118.0</ele><time>2026-05-01T08:20:59.248Z</time></trkpt><trkpt lat="39.61865" lon="8.4854508"><ele>118.0</ele><time>2026-05-01T08:21:00.247Z</time></trkpt><trkpt lat="39.6186522" lon="8.4855993"><ele>118.0</ele><time>2026-05-01T08:21:01.248Z</time></trkpt><trkpt lat="39.618634" lon="8.4857486"><ele>118.5</ele><time>2026-05-01T08:21:02.248Z</time></trkpt><trkpt lat="39.6185885" lon="8.4858956"><ele>119.0</ele><time>2026-05-01T08:21:03.247Z</time></trkpt><trkpt lat="39.6185163" lon="8.4860303"><ele>119.5</ele><time>2026-05-01T08:21:04.249Z</time></trkpt><trkpt lat="39.6184261" lon="8.486152"><ele>120.0</ele><time>2026-05-01T08:21:05.248Z</time></trkpt><trkpt lat="39.6183285" lon="8.4862546"><ele>119.25</ele><time>2026-05-01T08:21:06.249Z</time></trkpt><trkpt lat="39.6182258" lon="8.4863514"><ele>118.5</ele><time>2026-05-01T08:21:07.249Z</time></trkpt><trkpt lat="39.618127" lon="8.4864722"><ele>117.75</ele><time>2026-05-01T08:21:08.249Z</time></trkpt><trkpt lat="39.6180255" lon="8.4866059"><ele>117.0</ele><time>2026-05-01T08:21:09.247Z</time></trkpt><trkpt lat="39.6179186" lon="8.4867554"><ele>117.33333333333334</ele><time>2026-05-01T08:21:10.248Z</time></trkpt><trkpt lat="39.6178089" lon="8.4869114"><ele>117.66666666666667</ele><time>2026-05-01T08:21:11.249Z</time></trkpt><trkpt lat="39.6176963" lon="8.487076"><ele>118.0</ele><time>2026-05-01T08:21:12.248Z</time></trkpt><trkpt lat="39.6175824" lon="8.4872451"><ele>118.0</ele><time>2026-05-01T08:21:13.248Z</time></trkpt><trkpt lat="39.6174666" lon="8.4874132"><ele>118.0</ele><time>2026-05-01T08:21:14.248Z</time></trkpt><trkpt lat="39.6173484" lon="8.4875853"><ele>118.0</ele><time>2026-05-01T08:21:15.248Z</time></trkpt><trkpt lat="39.6172279" lon="8.4877595"><ele>117.66666666666667</ele><time>2026-05-01T08:21:16.248Z</time></trkpt><trkpt lat="39.6171066" lon="8.4879341"><ele>117.33333333333334</ele><time>2026-05-01T08:21:17.249Z</time></trkpt><trkpt lat="39.6169899" lon="8.4881009"><ele>117.0</ele><time>2026-05-01T08:21:18.249Z</time></trkpt><trkpt lat="39.6168792" lon="8.4882598"><ele>119.66666666666666</ele><time>2026-05-01T08:21:19.248Z</time></trkpt><trkpt lat="39.6167711" lon="8.4884196"><ele>122.33333333333333</ele><time>2026-05-01T08:21:20.248Z</time></trkpt><trkpt lat="39.6166648" lon="8.4885795"><ele>125.0</ele><time>2026-05-01T08:21:21.248Z</time></trkpt><trkpt lat="39.6165576" lon="8.4887361"><ele>125.0</ele><time>2026-05-01T08:21:22.249Z</time></trkpt><trkpt lat="39.6164558" lon="8.4888841"><ele>125.0</ele><time>2026-05-01T08:21:23.248Z</time></trkpt><trkpt lat="39.6163621" lon="8.4890237"><ele>125.0</ele><time>2026-05-01T08:21:24.249Z</time></trkpt><trkpt lat="39.6162706" lon="8.4891623"><ele>125.0</ele><time>2026-05-01T08:21:25.249Z</time></trkpt><trkpt lat="39.6161764" lon="8.4893"><ele>126.25</ele><time>2026-05-01T08:21:26.249Z</time></trkpt><trkpt lat="39.6160838" lon="8.4894301"><ele>127.5</ele><time>2026-05-01T08:21:27.248Z</time></trkpt><trkpt lat="39.616" lon="8.4895639"><ele>128.75</ele><time>2026-05-01T08:21:28.249Z</time></trkpt><trkpt lat="39.6159271" lon="8.4897155"><ele>130.0</ele><time>2026-05-01T08:21:29.249Z</time></trkpt><trkpt lat="39.6158685" lon="8.489879"><ele>130.0</ele><time>2026-05-01T08:21:30.248Z</time></trkpt><trkpt lat="39.6158232" lon="8.4900572"><ele>130.0</ele><time>2026-05-01T08:21:31.248Z</time></trkpt><trkpt lat="39.6157833" lon="8.4902495"><ele>130.0</ele><time>2026-05-01T08:21:32.247Z</time></trkpt><trkpt lat="39.6157454" lon="8.4904521"><ele>130.66666666666669</ele><time>2026-05-01T08:21:33.247Z</time></trkpt><trkpt lat="39.6157067" lon="8.4906606"><ele>131.33333333333334</ele><time>2026-05-01T08:21:34.249Z</time></trkpt><trkpt lat="39.615666" lon="8.4908667"><ele>132.0</ele><time>2026-05-01T08:21:35.248Z</time></trkpt><trkpt lat="39.6156286" lon="8.4910711"><ele>132.33333333333334</ele><time>2026-05-01T08:21:36.249Z</time></trkpt><trkpt lat="39.6155966" lon="8.4912739"><ele>132.66666666666669</ele><time>2026-05-01T08:21:37.247Z</time></trkpt><trkpt lat="39.6155718" lon="8.4914783"><ele>133.0</ele><time>2026-05-01T08:21:38.248Z</time></trkpt><trkpt lat="39.6155556" lon="8.4916836"><ele>133.0</ele><time>2026-05-01T08:21:39.249Z</time></trkpt><trkpt lat="39.6155421" lon="8.4918819"><ele>133.0</ele><time>2026-05-01T08:21:40.248Z</time></trkpt><trkpt lat="39.6155338" lon="8.4920717"><ele>133.0</ele><time>2026-05-01T08:21:41.248Z</time></trkpt><trkpt lat="39.6155255" lon="8.4922485"><ele>133.0</ele><time>2026-05-01T08:21:42.249Z</time></trkpt><trkpt lat="39.6155178" lon="8.4924168"><ele>134.0</ele><time>2026-05-01T08:21:43.248Z</time></trkpt><trkpt lat="39.6155095" lon="8.4925795"><ele>135.0</ele><time>2026-05-01T08:21:44.249Z</time></trkpt><trkpt lat="39.6154957" lon="8.4927353"><ele>136.0</ele><time>2026-05-01T08:21:45.249Z</time></trkpt><trkpt lat="39.6154706" lon="8.4928847"><ele>137.0</ele><time>2026-05-01T08:21:46.248Z</time></trkpt><trkpt lat="39.6154326" lon="8.493027"><ele>138.25</ele><time>2026-05-01T08:21:47.248Z</time></trkpt><trkpt lat="39.61537" lon="8.4931589"><ele>139.5</ele><time>2026-05-01T08:21:48.249Z</time></trkpt><trkpt lat="39.6152916" lon="8.4932687"><ele>140.75</ele><time>2026-05-01T08:21:49.249Z</time></trkpt><trkpt lat="39.6151887" lon="8.4933609"><ele>142.0</ele><time>2026-05-01T08:21:50.248Z</time></trkpt><trkpt lat="39.6150694" lon="8.4934334"><ele>143.66666666666669</ele><time>2026-05-01T08:21:51.247Z</time></trkpt><trkpt lat="39.6149274" lon="8.4934977"><ele>145.33333333333334</ele><time>2026-05-01T08:21:52.248Z</time></trkpt><trkpt lat="39.6147726" lon="8.4935584"><ele>147.0</ele><time>2026-05-01T08:21:53.249Z</time></trkpt><trkpt lat="39.6146373" lon="8.4936136"><ele>147.0</ele><time>2026-05-01T08:21:54.249Z</time></trkpt><trkpt lat="39.614512" lon="8.4936672"><ele>147.0</ele><time>2026-05-01T08:21:55.249Z</time></trkpt><trkpt lat="39.6143849" lon="8.4936998"><ele>147.0</ele><time>2026-05-01T08:21:56.249Z</time></trkpt><trkpt lat="39.6142552" lon="8.4936932"><ele>147.0</ele><time>2026-05-01T08:21:57.248Z</time></trkpt><trkpt lat="39.6141295" lon="8.4936535"><ele>148.0</ele><time>2026-05-01T08:21:58.248Z</time></trkpt><trkpt lat="39.614" lon="8.4936105"><ele>149.0</ele><time>2026-05-01T08:21:59.249Z</time></trkpt><trkpt lat="39.6138554" lon="8.4935832"><ele>150.0</ele><time>2026-05-01T08:22:00.249Z</time></trkpt><trkpt lat="39.6136998" lon="8.4935631"><ele>151.0</ele><time>2026-05-01T08:22:01.248Z</time></trkpt><trkpt lat="39.6135335" lon="8.4935485"><ele>152.5</ele><time>2026-05-01T08:22:02.248Z</time></trkpt><trkpt lat="39.6133783" lon="8.493535"><ele>154.0</ele><time>2026-05-01T08:22:03.248Z</time></trkpt><trkpt lat="39.6132379" lon="8.4935236"><ele>155.5</ele><time>2026-05-01T08:22:04.248Z</time></trkpt><trkpt lat="39.6130984" lon="8.4935322"><ele>157.0</ele><time>2026-05-01T08:22:05.248Z</time></trkpt><trkpt lat="39.6129623" lon="8.4935609"><ele>157.0</ele><time>2026-05-01T08:22:06.249Z</time></trkpt><trkpt lat="39.6128298" lon="8.4936106"><ele>157.0</ele><time>2026-05-01T08:22:07.249Z</time></trkpt><trkpt lat="39.6127002" lon="8.4936704"><ele>157.0</ele><time>2026-05-01T08:22:08.248Z</time></trkpt><trkpt lat="39.612585" lon="8.4937303"><ele>157.0</ele><time>2026-05-01T08:22:09.249Z</time></trkpt><trkpt lat="39.6124801" lon="8.4938082"><ele>161.25</ele><time>2026-05-01T08:22:10.248Z</time></trkpt><trkpt lat="39.6123884" lon="8.4939161"><ele>165.5</ele><time>2026-05-01T08:22:11.248Z</time></trkpt><trkpt lat="39.6123083" lon="8.4940509"><ele>169.75</ele><time>2026-05-01T08:22:12.248Z</time></trkpt><trkpt lat="39.6122428" lon="8.4942025"><ele>174.0</ele><time>2026-05-01T08:22:13.248Z</time></trkpt><trkpt lat="39.6121958" lon="8.4943542"><ele>174.0</ele><time>2026-05-01T08:22:14.249Z</time></trkpt><trkpt lat="39.6121705" lon="8.4945111"><ele>174.0</ele><time>2026-05-01T08:22:15.249Z</time></trkpt><trkpt lat="39.6121728" lon="8.4946708"><ele>174.0</ele><time>2026-05-01T08:22:16.248Z</time></trkpt><trkpt lat="39.6121996" lon="8.4948299"><ele>174.0</ele><time>2026-05-01T08:22:17.247Z</time></trkpt><trkpt lat="39.6122329" lon="8.4949912"><ele>176.25</ele><time>2026-05-01T08:22:18.249Z</time></trkpt><trkpt lat="39.6122733" lon="8.4951573"><ele>178.5</ele><time>2026-05-01T08:22:19.248Z</time></trkpt><trkpt lat="39.6123304" lon="8.4953268"><ele>180.75</ele><time>2026-05-01T08:22:20.248Z</time></trkpt><trkpt lat="39.6124053" lon="8.4954927"><ele>183.0</ele><time>2026-05-01T08:22:21.248Z</time></trkpt><trkpt lat="39.6124856" lon="8.4956583"><ele>183.0</ele><time>2026-05-01T08:22:22.249Z</time></trkpt><trkpt lat="39.6125434" lon="8.4958232"><ele>183.0</ele><time>2026-05-01T08:22:23.248Z</time></trkpt><trkpt lat="39.6125667" lon="8.4959972"><ele>183.0</ele><time>2026-05-01T08:22:24.247Z</time></trkpt><trkpt lat="39.6125519" lon="8.4961675"><ele>183.0</ele><time>2026-05-01T08:22:25.249Z</time></trkpt><trkpt lat="39.6125041" lon="8.4963295"><ele>185.33333333333334</ele><time>2026-05-01T08:22:26.247Z</time></trkpt><trkpt lat="39.61243" lon="8.4964908"><ele>187.66666666666669</ele><time>2026-05-01T08:22:27.247Z</time></trkpt><trkpt lat="39.6123429" lon="8.4966598"><ele>190.0</ele><time>2026-05-01T08:22:28.248Z</time></trkpt><trkpt lat="39.6122518" lon="8.4968371"><ele>190.0</ele><time>2026-05-01T08:22:29.249Z</time></trkpt><trkpt lat="39.6121783" lon="8.4969916"><ele>190.0</ele><time>2026-05-01T08:22:30.249Z</time></trkpt><trkpt lat="39.6121173" lon="8.4971468"><ele>190.0</ele><time>2026-05-01T08:22:31.248Z</time></trkpt><trkpt lat="39.6120788" lon="8.4973152"><ele>190.0</ele><time>2026-05-01T08:22:32.248Z</time></trkpt><trkpt lat="39.6120649" lon="8.4974907"><ele>193.25</ele><time>2026-05-01T08:22:33.249Z</time></trkpt><trkpt lat="39.6120763" lon="8.4976695"><ele>196.5</ele><time>2026-05-01T08:22:34.248Z</time></trkpt><trkpt lat="39.6121111" lon="8.4978487"><ele>199.75</ele><time>2026-05-01T08:22:35.248Z</time></trkpt><trkpt lat="39.6121632" lon="8.4980286"><ele>203.0</ele><time>2026-05-01T08:22:36.248Z</time></trkpt><trkpt lat="39.6122295" lon="8.4982106"><ele>203.25</ele><time>2026-05-01T08:22:37.248Z</time></trkpt><trkpt lat="39.6122937" lon="8.4983879"><ele>203.5</ele><time>2026-05-01T08:22:38.249Z</time></trkpt><trkpt lat="39.6123495" lon="8.4985467"><ele>203.75</ele><time>2026-05-01T08:22:39.248Z</time></trkpt><trkpt lat="39.6123886" lon="8.498695"><ele>204.0</ele><time>2026-05-01T08:22:40.249Z</time></trkpt><trkpt lat="39.6123931" lon="8.4988441"><ele>205.2</ele><time>2026-05-01T08:22:41.248Z</time></trkpt><trkpt lat="39.6123639" lon="8.4989787"><ele>206.39999999999998</ele><time>2026-05-01T08:22:42.248Z</time></trkpt><trkpt lat="39.6122986" lon="8.499092"><ele>207.6</ele><time>2026-05-01T08:22:43.249Z</time></trkpt><trkpt lat="39.6122107" lon="8.4991767"><ele>208.8</ele><time>2026-05-01T08:22:44.249Z</time></trkpt><trkpt lat="39.6121157" lon="8.499252"><ele>210.0</ele><time>2026-05-01T08:22:45.249Z</time></trkpt><trkpt lat="39.6120354" lon="8.4993325"><ele>208.4</ele><time>2026-05-01T08:22:46.248Z</time></trkpt><trkpt lat="39.6119752" lon="8.4994286"><ele>206.8</ele><time>2026-05-01T08:22:47.248Z</time></trkpt><trkpt lat="39.6119415" lon="8.4995377"><ele>205.2</ele><time>2026-05-01T08:22:48.247Z</time></trkpt><trkpt lat="39.6119284" lon="8.4996644"><ele>203.6</ele><time>2026-05-01T08:22:49.248Z</time></trkpt><trkpt lat="39.6119335" lon="8.4998108"><ele>202.0</ele><time>2026-05-01T08:22:50.249Z</time></trkpt><trkpt lat="39.611949" lon="8.4999758"><ele>202.0</ele><time>2026-05-01T08:22:51.247Z</time></trkpt><trkpt lat="39.6119684" lon="8.5001457"><ele>202.0</ele><time>2026-05-01T08:22:52.248Z</time></trkpt><trkpt lat="39.6119866" lon="8.5003211"><ele>202.0</ele><time>2026-05-01T08:22:53.249Z</time></trkpt><trkpt lat="39.6120034" lon="8.5004961"><ele>202.0</ele><time>2026-05-01T08:22:54.248Z</time></trkpt><trkpt lat="39.6120209" lon="8.5006499"><ele>208.0</ele><time>2026-05-01T08:22:55.248Z</time></trkpt><trkpt lat="39.6120572" lon="8.5007995"><ele>214.0</ele><time>2026-05-01T08:22:56.249Z</time></trkpt><trkpt lat="39.6121117" lon="8.5009394"><ele>220.0</ele><time>2026-05-01T08:22:57.249Z</time></trkpt><trkpt lat="39.6121919" lon="8.5010563"><ele>226.0</ele><time>2026-05-01T08:22:58.248Z</time></trkpt><trkpt lat="39.6122918" lon="8.501171"><ele>225.25</ele><time>2026-05-01T08:22:59.249Z</time></trkpt><trkpt lat="39.6124011" lon="8.501289"><ele>224.5</ele><time>2026-05-01T08:23:00.248Z</time></trkpt><trkpt lat="39.6125148" lon="8.5014095"><ele>223.75</ele><time>2026-05-01T08:23:01.249Z</time></trkpt><trkpt lat="39.6126277" lon="8.5015254"><ele>223.0</ele><time>2026-05-01T08:23:02.249Z</time></trkpt><trkpt lat="39.6127264" lon="8.5016221"><ele>222.99999999999997</ele><time>2026-05-01T08:23:03.249Z</time></trkpt><trkpt lat="39.6128079" lon="8.5017045"><ele>223.0</ele><time>2026-05-01T08:23:04.248Z</time></trkpt><trkpt lat="39.6128699" lon="8.501784"><ele>223.0</ele><time>2026-05-01T08:23:05.249Z</time></trkpt><trkpt lat="39.6128998" lon="8.5018699"><ele>223.0</ele><time>2026-05-01T08:23:06.248Z</time></trkpt><trkpt lat="39.6128821" lon="8.5020186"><ele>222.99999999999997</ele><time>2026-05-01T08:23:08.248Z</time></trkpt><trkpt lat="39.6128244" lon="8.5020553"><ele>223.0</ele><time>2026-05-01T08:23:09.249Z</time></trkpt><trkpt lat="39.6127593" lon="8.5020653"><ele>223.0</ele><time>2026-05-01T08:23:10.248Z</time></trkpt><trkpt lat="39.612682" lon="8.5020575"><ele>223.0</ele><time>2026-05-01T08:23:11.248Z</time></trkpt><trkpt lat="39.6125776" lon="8.5020501"><ele>223.0</ele><time>2026-05-01T08:23:12.249Z</time></trkpt><trkpt lat="39.6124582" lon="8.5020515"><ele>223.0</ele><time>2026-05-01T08:23:13.249Z</time></trkpt><trkpt lat="39.6123351" lon="8.5020659"><ele>223.0</ele><time>2026-05-01T08:23:14.249Z</time></trkpt><trkpt lat="39.6122034" lon="8.5021092"><ele>224.75</ele><time>2026-05-01T08:23:15.247Z</time></trkpt><trkpt lat="39.6120605" lon="8.5021755"><ele>226.5</ele><time>2026-05-01T08:23:16.248Z</time></trkpt><trkpt lat="39.6119359" lon="8.502243"><ele>228.25</ele><time>2026-05-01T08:23:17.249Z</time></trkpt><trkpt lat="39.6118182" lon="8.5023187"><ele>230.0</ele><time>2026-05-01T08:23:18.248Z</time></trkpt><trkpt lat="39.61171" lon="8.5024174"><ele>230.0</ele><time>2026-05-01T08:23:19.248Z</time></trkpt><trkpt lat="39.6116114" lon="8.5025405"><ele>230.0</ele><time>2026-05-01T08:23:20.248Z</time></trkpt><trkpt lat="39.6115181" lon="8.5026799"><ele>230.0</ele><time>2026-05-01T08:23:21.248Z</time></trkpt><trkpt lat="39.6114331" lon="8.5028289"><ele>230.0</ele><time>2026-05-01T08:23:22.248Z</time></trkpt><trkpt lat="39.6113649" lon="8.5029896"><ele>231.75</ele><time>2026-05-01T08:23:23.249Z</time></trkpt><trkpt lat="39.6113245" lon="8.5031586"><ele>233.5</ele><time>2026-05-01T08:23:24.248Z</time></trkpt><trkpt lat="39.6113093" lon="8.5033332"><ele>235.25</ele><time>2026-05-01T08:23:25.248Z</time></trkpt><trkpt lat="39.611324" lon="8.5035079"><ele>237.0</ele><time>2026-05-01T08:23:26.248Z</time></trkpt><trkpt lat="39.6113637" lon="8.5036758"><ele>238.5</ele><time>2026-05-01T08:23:27.248Z</time></trkpt><trkpt lat="39.611409" lon="8.5038281"><ele>240.0</ele><time>2026-05-01T08:23:28.248Z</time></trkpt><trkpt lat="39.6114364" lon="8.5039825"><ele>241.5</ele><time>2026-05-01T08:23:29.248Z</time></trkpt><trkpt lat="39.6114306" lon="8.5041385"><ele>243.0</ele><time>2026-05-01T08:23:30.248Z</time></trkpt><trkpt lat="39.6113864" lon="8.5042793"><ele>243.0</ele><time>2026-05-01T08:23:31.249Z</time></trkpt><trkpt lat="39.6113096" lon="8.5044053"><ele>243.0</ele><time>2026-05-01T08:23:32.248Z</time></trkpt><trkpt lat="39.6112056" lon="8.5045251"><ele>243.0</ele><time>2026-05-01T08:23:33.248Z</time></trkpt><trkpt lat="39.6110798" lon="8.5046562"><ele>243.0</ele><time>2026-05-01T08:23:34.249Z</time></trkpt><trkpt lat="39.6109412" lon="8.5047798"><ele>245.66666666666669</ele><time>2026-05-01T08:23:35.247Z</time></trkpt><trkpt lat="39.6107915" lon="8.5048805"><ele>248.33333333333334</ele><time>2026-05-01T08:23:36.248Z</time></trkpt><trkpt lat="39.6106284" lon="8.5049691"><ele>251.0</ele><time>2026-05-01T08:23:37.249Z</time></trkpt><trkpt lat="39.6104497" lon="8.5050555"><ele>250.33333333333334</ele><time>2026-05-01T08:23:38.247Z</time></trkpt><trkpt lat="39.6102779" lon="8.5051389"><ele>249.66666666666669</ele><time>2026-05-01T08:23:39.248Z</time></trkpt><trkpt lat="39.6101089" lon="8.5052219"><ele>249.0</ele><time>2026-05-01T08:23:40.249Z</time></trkpt><trkpt lat="39.6099487" lon="8.5052987"><ele>249.0</ele><time>2026-05-01T08:23:41.249Z</time></trkpt><trkpt lat="39.6098055" lon="8.5053679"><ele>249.0</ele><time>2026-05-01T08:23:42.248Z</time></trkpt><trkpt lat="39.6096661" lon="8.5054338"><ele>249.0</ele><time>2026-05-01T08:23:43.249Z</time></trkpt><trkpt lat="39.6095313" lon="8.5055128"><ele>249.0</ele><time>2026-05-01T08:23:44.248Z</time></trkpt><trkpt lat="39.6094055" lon="8.5056123"><ele>251.5</ele><time>2026-05-01T08:23:45.248Z</time></trkpt><trkpt lat="39.6092913" lon="8.5057359"><ele>254.0</ele><time>2026-05-01T08:23:46.249Z</time></trkpt><trkpt lat="39.6091913" lon="8.5058757"><ele>256.5</ele><time>2026-05-01T08:23:47.247Z</time></trkpt><trkpt lat="39.6091193" lon="8.5060209"><ele>259.0</ele><time>2026-05-01T08:23:48.247Z</time></trkpt><trkpt lat="39.6090613" lon="8.5061813"><ele>261.75</ele><time>2026-05-01T08:23:49.249Z</time></trkpt><trkpt lat="39.609017" lon="8.5063479"><ele>264.5</ele><time>2026-05-01T08:23:50.248Z</time></trkpt><trkpt lat="39.6089914" lon="8.5065176"><ele>267.25</ele><time>2026-05-01T08:23:51.249Z</time></trkpt><trkpt lat="39.6089801" lon="8.5066896"><ele>270.0</ele><time>2026-05-01T08:23:52.248Z</time></trkpt><trkpt lat="39.6089747" lon="8.5068469"><ele>270.0</ele><time>2026-05-01T08:23:53.248Z</time></trkpt><trkpt lat="39.6089567" lon="8.5069884"><ele>270.0</ele><time>2026-05-01T08:23:54.248Z</time></trkpt><trkpt lat="39.6089036" lon="8.5071032"><ele>270.0</ele><time>2026-05-01T08:23:55.249Z</time></trkpt><trkpt lat="39.6088268" lon="8.507199"><ele>270.0</ele><time>2026-05-01T08:23:56.248Z</time></trkpt><trkpt lat="39.6087372" lon="8.5072615"><ele>270.0</ele><time>2026-05-01T08:23:57.248Z</time></trkpt><trkpt lat="39.6086323" lon="8.5072749"><ele>271.25</ele><time>2026-05-01T08:23:58.249Z</time></trkpt><trkpt lat="39.6085187" lon="8.5072485"><ele>272.5</ele><time>2026-05-01T08:23:59.248Z</time></trkpt><trkpt lat="39.6083932" lon="8.5072125"><ele>273.75</ele><time>2026-05-01T08:24:00.248Z</time></trkpt><trkpt lat="39.6082661" lon="8.5071817"><ele>275.0</ele><time>2026-05-01T08:24:01.249Z</time></trkpt><trkpt lat="39.6081503" lon="8.5071609"><ele>275.0</ele><time>2026-05-01T08:24:02.249Z</time></trkpt><trkpt lat="39.6080315" lon="8.5071711"><ele>275.0</ele><time>2026-05-01T08:24:03.249Z</time></trkpt><trkpt lat="39.6079214" lon="8.5072272"><ele>275.0</ele><time>2026-05-01T08:24:04.247Z</time></trkpt><trkpt lat="39.6078188" lon="8.5073205"><ele>275.0</ele><time>2026-05-01T08:24:05.247Z</time></trkpt><trkpt lat="39.6077178" lon="8.507445"><ele>275.0</ele><time>2026-05-01T08:24:06.248Z</time></trkpt><trkpt lat="39.6076189" lon="8.5075877"><ele>275.0</ele><time>2026-05-01T08:24:07.247Z</time></trkpt><trkpt lat="39.6075253" lon="8.5077302"><ele>275.0</ele><time>2026-05-01T08:24:08.248Z</time></trkpt><trkpt lat="39.6074316" lon="8.507866"><ele>275.0</ele><time>2026-05-01T08:24:09.247Z</time></trkpt><trkpt lat="39.6073371" lon="8.508"><ele>277.75</ele><time>2026-05-01T08:24:10.247Z</time></trkpt><trkpt lat="39.6072423" lon="8.5081353"><ele>280.5</ele><time>2026-05-01T08:24:11.249Z</time></trkpt><trkpt lat="39.607145" lon="8.508277"><ele>283.25</ele><time>2026-05-01T08:24:12.249Z</time></trkpt><trkpt lat="39.6070429" lon="8.5084238"><ele>286.0</ele><time>2026-05-01T08:24:13.248Z</time></trkpt><trkpt lat="39.6069366" lon="8.5085718"><ele>286.0</ele><time>2026-05-01T08:24:14.248Z</time></trkpt><trkpt lat="39.6068301" lon="8.5087225"><ele>286.0</ele><time>2026-05-01T08:24:15.248Z</time></trkpt><trkpt lat="39.6067207" lon="8.5088809"><ele>286.0</ele><time>2026-05-01T08:24:16.249Z</time></trkpt><trkpt lat="39.6066202" lon="8.5090259"><ele>286.66666666666663</ele><time>2026-05-01T08:24:17.248Z</time></trkpt><trkpt lat="39.6065124" lon="8.509177"><ele>287.3333333333333</ele><time>2026-05-01T08:24:18.249Z</time></trkpt><trkpt lat="39.6063986" lon="8.5093324"><ele>288.0</ele><time>2026-05-01T08:24:19.248Z</time></trkpt><trkpt lat="39.6063054" lon="8.5094768"><ele>288.75</ele><time>2026-05-01T08:24:20.249Z</time></trkpt><trkpt lat="39.6062348" lon="8.5096298"><ele>289.5</ele><time>2026-05-01T08:24:21.249Z</time></trkpt><trkpt lat="39.606187" lon="8.5097922"><ele>290.25</ele><time>2026-05-01T08:24:22.249Z</time></trkpt><trkpt lat="39.6061632" lon="8.5099591"><ele>291.0</ele><time>2026-05-01T08:24:23.248Z</time></trkpt><trkpt lat="39.6061632" lon="8.5101375"><ele>291.0</ele><time>2026-05-01T08:24:24.249Z</time></trkpt><trkpt lat="39.6061883" lon="8.5103232"><ele>291.0</ele><time>2026-05-01T08:24:25.249Z</time></trkpt><trkpt lat="39.6062457" lon="8.5105242"><ele>291.0</ele><time>2026-05-01T08:24:26.248Z</time></trkpt><trkpt lat="39.6063116" lon="8.5107256"><ele>290.3333333333333</ele><time>2026-05-01T08:24:27.248Z</time></trkpt><trkpt lat="39.6063791" lon="8.5109142"><ele>289.66666666666663</ele><time>2026-05-01T08:24:28.248Z</time></trkpt><trkpt lat="39.6064393" lon="8.511096"><ele>289.0</ele><time>2026-05-01T08:24:29.248Z</time></trkpt><trkpt lat="39.6064894" lon="8.5112715"><ele>287.25</ele><time>2026-05-01T08:24:30.247Z</time></trkpt><trkpt lat="39.6065311" lon="8.5114443"><ele>285.5</ele><time>2026-05-01T08:24:31.248Z</time></trkpt><trkpt lat="39.6065695" lon="8.5116145"><ele>283.75</ele><time>2026-05-01T08:24:32.248Z</time></trkpt><trkpt lat="39.6066202" lon="8.5117859"><ele>282.0</ele><time>2026-05-01T08:24:33.248Z</time></trkpt><trkpt lat="39.6066795" lon="8.5119535"><ele>281.0</ele><time>2026-05-01T08:24:34.248Z</time></trkpt><trkpt lat="39.6067383" lon="8.5121119"><ele>280.0</ele><time>2026-05-01T08:24:35.249Z</time></trkpt><trkpt lat="39.6067811" lon="8.5122717"><ele>279.0</ele><time>2026-05-01T08:24:36.248Z</time></trkpt><trkpt lat="39.606799" lon="8.5124327"><ele>278.0</ele><time>2026-05-01T08:24:37.249Z</time></trkpt><trkpt lat="39.6067975" lon="8.5125946"><ele>278.0</ele><time>2026-05-01T08:24:38.249Z</time></trkpt><trkpt lat="39.606777" lon="8.5127658"><ele>278.0</ele><time>2026-05-01T08:24:39.249Z</time></trkpt><trkpt lat="39.6067409" lon="8.5129393"><ele>278.0</ele><time>2026-05-01T08:24:40.248Z</time></trkpt><trkpt lat="39.6066941" lon="8.5131202"><ele>278.0</ele><time>2026-05-01T08:24:41.248Z</time></trkpt><trkpt lat="39.6066504" lon="8.5132907"><ele>278.25</ele><time>2026-05-01T08:24:42.248Z</time></trkpt><trkpt lat="39.6066159" lon="8.5134561"><ele>278.5</ele><time>2026-05-01T08:24:43.248Z</time></trkpt><trkpt lat="39.6065942" lon="8.5136133"><ele>278.75</ele><time>2026-05-01T08:24:44.249Z</time></trkpt><trkpt lat="39.6065864" lon="8.5137615"><ele>279.0</ele><time>2026-05-01T08:24:45.249Z</time></trkpt><trkpt lat="39.6065934" lon="8.5139063"><ele>279.0</ele><time>2026-05-01T08:24:46.249Z</time></trkpt><trkpt lat="39.6066215" lon="8.5140509"><ele>279.0</ele><time>2026-05-01T08:24:47.249Z</time></trkpt><trkpt lat="39.6066724" lon="8.5141885"><ele>279.0</ele><time>2026-05-01T08:24:48.248Z</time></trkpt><trkpt lat="39.6067461" lon="8.5143116"><ele>279.0</ele><time>2026-05-01T08:24:49.248Z</time></trkpt><trkpt lat="39.6068432" lon="8.5144189"><ele>279.0</ele><time>2026-05-01T08:24:50.248Z</time></trkpt><trkpt lat="39.6069583" lon="8.5145079"><ele>279.0</ele><time>2026-05-01T08:24:51.249Z</time></trkpt><trkpt lat="39.6070897" lon="8.5145894"><ele>279.0</ele><time>2026-05-01T08:24:52.247Z</time></trkpt><trkpt lat="39.607233" lon="8.5146715"><ele>279.0</ele><time>2026-05-01T08:24:53.249Z</time></trkpt><trkpt lat="39.607381" lon="8.5147514"><ele>280.0</ele><time>2026-05-01T08:24:54.248Z</time></trkpt><trkpt lat="39.6075232" lon="8.5148275"><ele>281.0</ele><time>2026-05-01T08:24:55.249Z</time></trkpt><trkpt lat="39.6076653" lon="8.5149016"><ele>282.0</ele><time>2026-05-01T08:24:56.249Z</time></trkpt><trkpt lat="39.6078044" lon="8.5149761"><ele>283.25</ele><time>2026-05-01T08:24:57.247Z</time></trkpt><trkpt lat="39.6079351" lon="8.5150455"><ele>284.5</ele><time>2026-05-01T08:24:58.247Z</time></trkpt><trkpt lat="39.608059" lon="8.5151117"><ele>285.75</ele><time>2026-05-01T08:24:59.247Z</time></trkpt><trkpt lat="39.6081873" lon="8.5151737"><ele>287.0</ele><time>2026-05-01T08:25:00.248Z</time></trkpt><trkpt lat="39.6083216" lon="8.515225"><ele>287.0</ele><time>2026-05-01T08:25:01.249Z</time></trkpt><trkpt lat="39.6084664" lon="8.5152727"><ele>287.0</ele><time>2026-05-01T08:25:02.249Z</time></trkpt><trkpt lat="39.6086171" lon="8.5153197"><ele>287.0</ele><time>2026-05-01T08:25:03.247Z</time></trkpt><trkpt lat="39.608774" lon="8.5153689"><ele>285.5</ele><time>2026-05-01T08:25:04.248Z</time></trkpt><trkpt lat="39.6089211" lon="8.5154142"><ele>284.0</ele><time>2026-05-01T08:25:05.247Z</time></trkpt><trkpt lat="39.609063" lon="8.5154582"><ele>282.5</ele><time>2026-05-01T08:25:06.248Z</time></trkpt><trkpt lat="39.6092" lon="8.515498"><ele>281.0</ele><time>2026-05-01T08:25:07.247Z</time></trkpt><trkpt lat="39.6093355" lon="8.515537"><ele>281.0</ele><time>2026-05-01T08:25:08.247Z</time></trkpt><trkpt lat="39.6094679" lon="8.5155762"><ele>281.0</ele><time>2026-05-01T08:25:09.249Z</time></trkpt><trkpt lat="39.6095931" lon="8.515614"><ele>281.0</ele><time>2026-05-01T08:25:10.247Z</time></trkpt><trkpt lat="39.6097027" lon="8.5156479"><ele>281.0</ele><time>2026-05-01T08:25:11.249Z</time></trkpt><trkpt lat="39.6098052" lon="8.5156772"><ele>281.8</ele><time>2026-05-01T08:25:12.247Z</time></trkpt><trkpt lat="39.6099001" lon="8.515704"><ele>282.6</ele><time>2026-05-01T08:25:13.247Z</time></trkpt><trkpt lat="39.6099916" lon="8.5157345"><ele>283.4</ele><time>2026-05-01T08:25:14.248Z</time></trkpt><trkpt lat="39.6100716" lon="8.5157793"><ele>284.2</ele><time>2026-05-01T08:25:15.247Z</time></trkpt><trkpt lat="39.6101387" lon="8.5158474"><ele>285.0</ele><time>2026-05-01T08:25:16.249Z</time></trkpt><trkpt lat="39.6101951" lon="8.5159391"><ele>285.0</ele><time>2026-05-01T08:25:17.248Z</time></trkpt><trkpt lat="39.6102337" lon="8.5160549"><ele>285.0</ele><time>2026-05-01T08:25:18.248Z</time></trkpt><trkpt lat="39.6102526" lon="8.5161896"><ele>285.0</ele><time>2026-05-01T08:25:19.248Z</time></trkpt><trkpt lat="39.6102511" lon="8.5163438"><ele>285.0</ele><time>2026-05-01T08:25:20.247Z</time></trkpt><trkpt lat="39.6102368" lon="8.5165167"><ele>283.75</ele><time>2026-05-01T08:25:21.248Z</time></trkpt><trkpt lat="39.6102176" lon="8.5166825"><ele>282.5</ele><time>2026-05-01T08:25:22.247Z</time></trkpt><trkpt lat="39.610197" lon="8.5168513"><ele>281.25</ele><time>2026-05-01T08:25:23.248Z</time></trkpt><trkpt lat="39.6101705" lon="8.5170121"><ele>280.0</ele><time>2026-05-01T08:25:24.249Z</time></trkpt><trkpt lat="39.6101309" lon="8.517166"><ele>280.0</ele><time>2026-05-01T08:25:25.248Z</time></trkpt><trkpt lat="39.610072" lon="8.5173196"><ele>280.0</ele><time>2026-05-01T08:25:26.247Z</time></trkpt><trkpt lat="39.61" lon="8.5174649"><ele>280.0</ele><time>2026-05-01T08:25:27.248Z</time></trkpt><trkpt lat="39.6099328" lon="8.5176021"><ele>280.0</ele><time>2026-05-01T08:25:28.249Z</time></trkpt><trkpt lat="39.6098725" lon="8.5177511"><ele>281.25</ele><time>2026-05-01T08:25:29.249Z</time></trkpt><trkpt lat="39.6098205" lon="8.5179143"><ele>282.5</ele><time>2026-05-01T08:25:30.249Z</time></trkpt><trkpt lat="39.6097797" lon="8.518087"><ele>283.75</ele><time>2026-05-01T08:25:31.249Z</time></trkpt><trkpt lat="39.6097497" lon="8.5182538"><ele>285.0</ele><time>2026-05-01T08:25:32.248Z</time></trkpt><trkpt lat="39.6097301" lon="8.5184121"><ele>285.0</ele><time>2026-05-01T08:25:33.248Z</time></trkpt><trkpt lat="39.6097323" lon="8.5185666"><ele>285.0</ele><time>2026-05-01T08:25:34.247Z</time></trkpt><trkpt lat="39.6097565" lon="8.5187257"><ele>285.0</ele><time>2026-05-01T08:25:35.249Z</time></trkpt><trkpt lat="39.6097971" lon="8.5188862"><ele>285.0</ele><time>2026-05-01T08:25:36.248Z</time></trkpt><trkpt lat="39.6098457" lon="8.5190549"><ele>283.3333333333333</ele><time>2026-05-01T08:25:37.249Z</time></trkpt><trkpt lat="39.6098984" lon="8.5192311"><ele>281.66666666666663</ele><time>2026-05-01T08:25:38.247Z</time></trkpt><trkpt lat="39.6099596" lon="8.5194182"><ele>280.0</ele><time>2026-05-01T08:25:39.248Z</time></trkpt><trkpt lat="39.6100283" lon="8.5196066"><ele>277.0</ele><time>2026-05-01T08:25:40.247Z</time></trkpt><trkpt lat="39.6101019" lon="8.5197945"><ele>274.0</ele><time>2026-05-01T08:25:41.248Z</time></trkpt><trkpt lat="39.6101784" lon="8.5199822"><ele>271.0</ele><time>2026-05-01T08:25:42.249Z</time></trkpt><trkpt lat="39.6102548" lon="8.5201596"><ele>274.5</ele><time>2026-05-01T08:25:43.249Z</time></trkpt><trkpt lat="39.6103283" lon="8.5203268"><ele>278.0</ele><time>2026-05-01T08:25:44.249Z</time></trkpt><trkpt lat="39.6103945" lon="8.5204801"><ele>281.5</ele><time>2026-05-01T08:25:45.249Z</time></trkpt><trkpt lat="39.6104536" lon="8.5206116"><ele>285.0</ele><time>2026-05-01T08:25:46.248Z</time></trkpt><trkpt lat="39.6105036" lon="8.5207297"><ele>285.0</ele><time>2026-05-01T08:25:47.248Z</time></trkpt><trkpt lat="39.6105349" lon="8.5208404"><ele>285.0</ele><time>2026-05-01T08:25:48.248Z</time></trkpt><trkpt lat="39.6105343" lon="8.5209417"><ele>285.0</ele><time>2026-05-01T08:25:49.249Z</time></trkpt><trkpt lat="39.6105015" lon="8.5210299"><ele>285.0</ele><time>2026-05-01T08:25:50.249Z</time></trkpt><trkpt lat="39.6104407" lon="8.5211058"><ele>285.0</ele><time>2026-05-01T08:25:51.248Z</time></trkpt><trkpt lat="39.6103561" lon="8.5211817"><ele>285.0</ele><time>2026-05-01T08:25:52.249Z</time></trkpt><trkpt lat="39.6102561" lon="8.5212695"><ele>283.5</ele><time>2026-05-01T08:25:53.248Z</time></trkpt><trkpt lat="39.6101459" lon="8.5213682"><ele>282.0</ele><time>2026-05-01T08:25:54.249Z</time></trkpt><trkpt lat="39.6100362" lon="8.5214736"><ele>280.5</ele><time>2026-05-01T08:25:55.248Z</time></trkpt><trkpt lat="39.6099326" lon="8.5215719"><ele>279.0</ele><time>2026-05-01T08:25:56.249Z</time></trkpt><trkpt lat="39.6098399" lon="8.5216674"><ele>279.0</ele><time>2026-05-01T08:25:57.249Z</time></trkpt><trkpt lat="39.6097708" lon="8.52178"><ele>279.0</ele><time>2026-05-01T08:25:58.247Z</time></trkpt><trkpt lat="39.6097219" lon="8.5219057"><ele>279.0</ele><time>2026-05-01T08:25:59.248Z</time></trkpt><trkpt lat="39.6096823" lon="8.5220289"><ele>279.0</ele><time>2026-05-01T08:26:00.248Z</time></trkpt><trkpt lat="39.6096162" lon="8.5221269"><ele>279.0</ele><time>2026-05-01T08:26:01.249Z</time></trkpt><trkpt lat="39.6095284" lon="8.5221849"><ele>277.5</ele><time>2026-05-01T08:26:02.248Z</time></trkpt><trkpt lat="39.6094281" lon="8.5221954"><ele>276.0</ele><time>2026-05-01T08:26:03.248Z</time></trkpt><trkpt lat="39.6093326" lon="8.5221519"><ele>274.5</ele><time>2026-05-01T08:26:04.249Z</time></trkpt><trkpt lat="39.6092395" lon="8.5220601"><ele>273.0</ele><time>2026-05-01T08:26:05.249Z</time></trkpt><trkpt lat="39.6091369" lon="8.5219286"><ele>273.0</ele><time>2026-05-01T08:26:06.247Z</time></trkpt><trkpt lat="39.6090183" lon="8.521772"><ele>273.0</ele><time>2026-05-01T08:26:07.249Z</time></trkpt><trkpt lat="39.6088831" lon="8.5215968"><ele>273.0</ele><time>2026-05-01T08:26:08.248Z</time></trkpt><trkpt lat="39.6087543" lon="8.5214411"><ele>271.6666666666667</ele><time>2026-05-01T08:26:09.249Z</time></trkpt><trkpt lat="39.6086279" lon="8.5212967"><ele>270.33333333333337</ele><time>2026-05-01T08:26:10.247Z</time></trkpt><trkpt lat="39.6084959" lon="8.5211728"><ele>269.0</ele><time>2026-05-01T08:26:11.248Z</time></trkpt><trkpt lat="39.6083662" lon="8.5210757"><ele>269.0</ele><time>2026-05-01T08:26:12.249Z</time></trkpt><trkpt lat="39.6082463" lon="8.5209895"><ele>269.0</ele><time>2026-05-01T08:26:13.249Z</time></trkpt><trkpt lat="39.6081375" lon="8.5209136"><ele>269.0</ele><time>2026-05-01T08:26:14.248Z</time></trkpt><trkpt lat="39.6080297" lon="8.5208657"><ele>269.0</ele><time>2026-05-01T08:26:15.249Z</time></trkpt><trkpt lat="39.6079124" lon="8.5208477"><ele>269.75</ele><time>2026-05-01T08:26:16.248Z</time></trkpt><trkpt lat="39.607786" lon="8.5208611"><ele>270.5</ele><time>2026-05-01T08:26:17.248Z</time></trkpt><trkpt lat="39.6076497" lon="8.5208924"><ele>271.25</ele><time>2026-05-01T08:26:18.248Z</time></trkpt><trkpt lat="39.6075083" lon="8.5209335"><ele>272.0</ele><time>2026-05-01T08:26:19.248Z</time></trkpt><trkpt lat="39.6073626" lon="8.5209938"><ele>272.0</ele><time>2026-05-01T08:26:20.249Z</time></trkpt><trkpt lat="39.6072179" lon="8.521071"><ele>272.0</ele><time>2026-05-01T08:26:21.249Z</time></trkpt><trkpt lat="39.6070813" lon="8.5211516"><ele>272.0</ele><time>2026-05-01T08:26:22.249Z</time></trkpt><trkpt lat="39.6069558" lon="8.5212344"><ele>272.0</ele><time>2026-05-01T08:26:23.248Z</time></trkpt><trkpt lat="39.6068387" lon="8.5213269"><ele>273.75</ele><time>2026-05-01T08:26:24.249Z</time></trkpt><trkpt lat="39.6067362" lon="8.5214292"><ele>275.5</ele><time>2026-05-01T08:26:25.248Z</time></trkpt><trkpt lat="39.6066488" lon="8.5215395"><ele>277.25</ele><time>2026-05-01T08:26:26.249Z</time></trkpt><trkpt lat="39.6065747" lon="8.5216582"><ele>279.0</ele><time>2026-05-01T08:26:27.248Z</time></trkpt><trkpt lat="39.6065268" lon="8.5217942"><ele>279.0</ele><time>2026-05-01T08:26:28.248Z</time></trkpt><trkpt lat="39.6065025" lon="8.5219441"><ele>279.0</ele><time>2026-05-01T08:26:29.247Z</time></trkpt><trkpt lat="39.6064905" lon="8.5220978"><ele>279.0</ele><time>2026-05-01T08:26:30.248Z</time></trkpt><trkpt lat="39.6064777" lon="8.5222536"><ele>279.0</ele><time>2026-05-01T08:26:31.247Z</time></trkpt><trkpt lat="39.6064412" lon="8.5223921"><ele>278.5</ele><time>2026-05-01T08:26:32.248Z</time></trkpt><trkpt lat="39.6063764" lon="8.5224998"><ele>278.0</ele><time>2026-05-01T08:26:33.248Z</time></trkpt><trkpt lat="39.6062872" lon="8.5225733"><ele>277.5</ele><time>2026-05-01T08:26:34.248Z</time></trkpt><trkpt lat="39.6061796" lon="8.5226153"><ele>277.0</ele><time>2026-05-01T08:26:35.249Z</time></trkpt><trkpt lat="39.6060513" lon="8.5226241"><ele>277.0</ele><time>2026-05-01T08:26:36.248Z</time></trkpt><trkpt lat="39.6058991" lon="8.5226247"><ele>277.0</ele><time>2026-05-01T08:26:37.249Z</time></trkpt><trkpt lat="39.6057603" lon="8.5226277"><ele>277.0</ele><time>2026-05-01T08:26:38.249Z</time></trkpt><trkpt lat="39.6056315" lon="8.5226333"><ele>277.0</ele><time>2026-05-01T08:26:39.248Z</time></trkpt><trkpt lat="39.6055163" lon="8.5226539"><ele>277.0</ele><time>2026-05-01T08:26:40.247Z</time></trkpt><trkpt lat="39.605412" lon="8.5227044"><ele>277.0</ele><time>2026-05-01T08:26:41.249Z</time></trkpt><trkpt lat="39.6053171" lon="8.5227916"><ele>277.0</ele><time>2026-05-01T08:26:42.248Z</time></trkpt><trkpt lat="39.6052216" lon="8.5229062"><ele>277.0</ele><time>2026-05-01T08:26:43.249Z</time></trkpt><trkpt lat="39.6051162" lon="8.5230377"><ele>279.75</ele><time>2026-05-01T08:26:44.249Z</time></trkpt><trkpt lat="39.6050102" lon="8.5231682"><ele>282.5</ele><time>2026-05-01T08:26:45.248Z</time></trkpt><trkpt lat="39.6049049" lon="8.5232938"><ele>285.25</ele><time>2026-05-01T08:26:46.249Z</time></trkpt><trkpt lat="39.6048008" lon="8.5234171"><ele>288.0</ele><time>2026-05-01T08:26:47.249Z</time></trkpt><trkpt lat="39.6047043" lon="8.5235328"><ele>288.0</ele><time>2026-05-01T08:26:48.249Z</time></trkpt><trkpt lat="39.6046095" lon="8.5236622"><ele>288.0</ele><time>2026-05-01T08:26:49.248Z</time></trkpt><trkpt lat="39.6045261" lon="8.5238118"><ele>288.0</ele><time>2026-05-01T08:26:50.249Z</time></trkpt><trkpt lat="39.6044608" lon="8.523964"><ele>288.0</ele><time>2026-05-01T08:26:51.248Z</time></trkpt><trkpt lat="39.6044256" lon="8.524109"><ele>288.2</ele><time>2026-05-01T08:26:52.248Z</time></trkpt><trkpt lat="39.6044182" lon="8.5242564"><ele>288.4</ele><time>2026-05-01T08:26:53.247Z</time></trkpt><trkpt lat="39.6044295" lon="8.5244046"><ele>288.59999999999997</ele><time>2026-05-01T08:26:54.247Z</time></trkpt><trkpt lat="39.6044456" lon="8.5245512"><ele>288.8</ele><time>2026-05-01T08:26:55.247Z</time></trkpt><trkpt lat="39.6044488" lon="8.5246831"><ele>289.0</ele><time>2026-05-01T08:26:56.249Z</time></trkpt><trkpt lat="39.6044196" lon="8.5247968"><ele>289.0</ele><time>2026-05-01T08:26:57.248Z</time></trkpt><trkpt lat="39.6043667" lon="8.5248861"><ele>289.0</ele><time>2026-05-01T08:26:58.249Z</time></trkpt><trkpt lat="39.6042861" lon="8.5249625"><ele>289.0</ele><time>2026-05-01T08:26:59.248Z</time></trkpt><trkpt lat="39.6041949" lon="8.5250446"><ele>289.0</ele><time>2026-05-01T08:27:00.249Z</time></trkpt><trkpt lat="39.6041011" lon="8.5251376"><ele>289.0</ele><time>2026-05-01T08:27:01.249Z</time></trkpt><trkpt lat="39.6040203" lon="8.5252315"><ele>289.0</ele><time>2026-05-01T08:27:02.249Z</time></trkpt><trkpt lat="39.6039624" lon="8.5253479"><ele>289.0</ele><time>2026-05-01T08:27:03.248Z</time></trkpt><trkpt lat="39.6039179" lon="8.5254896"><ele>289.0</ele><time>2026-05-01T08:27:04.248Z</time></trkpt><trkpt lat="39.6038754" lon="8.5256486"><ele>289.0</ele><time>2026-05-01T08:27:05.249Z</time></trkpt><trkpt lat="39.6038349" lon="8.5258163"><ele>291.75</ele><time>2026-05-01T08:27:06.249Z</time></trkpt><trkpt lat="39.6037997" lon="8.5259708"><ele>294.5</ele><time>2026-05-01T08:27:07.249Z</time></trkpt><trkpt lat="39.6037788" lon="8.5261141"><ele>297.25</ele><time>2026-05-01T08:27:08.249Z</time></trkpt><trkpt lat="39.6037785" lon="8.526257"><ele>300.0</ele><time>2026-05-01T08:27:09.248Z</time></trkpt><trkpt lat="39.6037947" lon="8.5264004"><ele>300.3333333333333</ele><time>2026-05-01T08:27:10.248Z</time></trkpt><trkpt lat="39.6038111" lon="8.5265307"><ele>300.6666666666667</ele><time>2026-05-01T08:27:11.248Z</time></trkpt><trkpt lat="39.6037921" lon="8.5266268"><ele>301.0</ele><time>2026-05-01T08:27:12.248Z</time></trkpt><trkpt lat="39.6037438" lon="8.5266956"><ele>301.33333333333337</ele><time>2026-05-01T08:27:13.248Z</time></trkpt><trkpt lat="39.6036782" lon="8.5267158"><ele>301.6666666666667</ele><time>2026-05-01T08:27:14.248Z</time></trkpt><trkpt lat="39.6035991" lon="8.5266915"><ele>302.0</ele><time>2026-05-01T08:27:15.248Z</time></trkpt><trkpt lat="39.6035157" lon="8.5266322"><ele>302.0</ele><time>2026-05-01T08:27:16.249Z</time></trkpt><trkpt lat="39.6034125" lon="8.5265683"><ele>302.0</ele><time>2026-05-01T08:27:17.248Z</time></trkpt><trkpt lat="39.6032959" lon="8.5265221"><ele>302.0</ele><time>2026-05-01T08:27:18.249Z</time></trkpt><trkpt lat="39.6031678" lon="8.5264781"><ele>302.0</ele><time>2026-05-01T08:27:19.248Z</time></trkpt><trkpt lat="39.6030427" lon="8.5264422"><ele>302.0</ele><time>2026-05-01T08:27:20.247Z</time></trkpt><trkpt lat="39.6029309" lon="8.5264257"><ele>302.0</ele><time>2026-05-01T08:27:21.248Z</time></trkpt><trkpt lat="39.6028185" lon="8.5264362"><ele>302.0</ele><time>2026-05-01T08:27:22.247Z</time></trkpt><trkpt lat="39.6027017" lon="8.5264802"><ele>302.0</ele><time>2026-05-01T08:27:23.248Z</time></trkpt><trkpt lat="39.6025765" lon="8.5265452"><ele>301.6666666666667</ele><time>2026-05-01T08:27:24.248Z</time></trkpt><trkpt lat="39.6024425" lon="8.5266213"><ele>301.3333333333333</ele><time>2026-05-01T08:27:25.249Z</time></trkpt><trkpt lat="39.6022989" lon="8.5267042"><ele>301.0</ele><time>2026-05-01T08:27:26.247Z</time></trkpt><trkpt lat="39.6021591" lon="8.5267833"><ele>301.0</ele><time>2026-05-01T08:27:27.248Z</time></trkpt><trkpt lat="39.6020273" lon="8.5268492"><ele>301.0</ele><time>2026-05-01T08:27:28.248Z</time></trkpt><trkpt lat="39.6019039" lon="8.5269079"><ele>301.0</ele><time>2026-05-01T08:27:29.248Z</time></trkpt><trkpt lat="39.6017916" lon="8.5269596"><ele>301.0</ele><time>2026-05-01T08:27:30.249Z</time></trkpt><trkpt lat="39.6016958" lon="8.5270231"><ele>302.5</ele><time>2026-05-01T08:27:31.248Z</time></trkpt><trkpt lat="39.601617" lon="8.5271164"><ele>304.0</ele><time>2026-05-01T08:27:32.248Z</time></trkpt><trkpt lat="39.601557" lon="8.5272411"><ele>305.5</ele><time>2026-05-01T08:27:33.247Z</time></trkpt><trkpt lat="39.6015026" lon="8.5273861"><ele>307.0</ele><time>2026-05-01T08:27:34.248Z</time></trkpt><trkpt lat="39.6014427" lon="8.527546"><ele>307.0</ele><time>2026-05-01T08:27:35.248Z</time></trkpt><trkpt lat="39.6013837" lon="8.5277132"><ele>307.0</ele><time>2026-05-01T08:27:36.248Z</time></trkpt><trkpt lat="39.6013156" lon="8.5278704"><ele>307.0</ele><time>2026-05-01T08:27:37.248Z</time></trkpt><trkpt lat="39.601233" lon="8.5280055"><ele>307.0</ele><time>2026-05-01T08:27:38.249Z</time></trkpt><trkpt lat="39.6011364" lon="8.5281309"><ele>306.5</ele><time>2026-05-01T08:27:39.249Z</time></trkpt><trkpt lat="39.6010299" lon="8.5282515"><ele>306.0</ele><time>2026-05-01T08:27:40.248Z</time></trkpt><trkpt lat="39.600916" lon="8.5283579"><ele>305.5</ele><time>2026-05-01T08:27:41.248Z</time></trkpt><trkpt lat="39.6007874" lon="8.5284509"><ele>305.0</ele><time>2026-05-01T08:27:42.248Z</time></trkpt><trkpt lat="39.6006606" lon="8.528527"><ele>305.0</ele><time>2026-05-01T08:27:43.247Z</time></trkpt><trkpt lat="39.6005465" lon="8.5286017"><ele>305.0</ele><time>2026-05-01T08:27:44.247Z</time></trkpt><trkpt lat="39.6004575" lon="8.5286734"><ele>305.0</ele><time>2026-05-01T08:27:45.248Z</time></trkpt><trkpt lat="39.6003897" lon="8.5287574"><ele>305.0</ele><time>2026-05-01T08:27:46.248Z</time></trkpt><trkpt lat="39.6003382" lon="8.5288674"><ele>305.0</ele><time>2026-05-01T08:27:47.248Z</time></trkpt><trkpt lat="39.6002961" lon="8.5290067"><ele>304.0</ele><time>2026-05-01T08:27:48.249Z</time></trkpt><trkpt lat="39.6002579" lon="8.529176"><ele>303.0</ele><time>2026-05-01T08:27:49.249Z</time></trkpt><trkpt lat="39.6002159" lon="8.5293608"><ele>302.0</ele><time>2026-05-01T08:27:50.248Z</time></trkpt><trkpt lat="39.6001732" lon="8.5295385"><ele>301.0</ele><time>2026-05-01T08:27:51.248Z</time></trkpt><trkpt lat="39.6001326" lon="8.5297063"><ele>301.0</ele><time>2026-05-01T08:27:52.246Z</time></trkpt><trkpt lat="39.6000936" lon="8.5298673"><ele>301.0</ele><time>2026-05-01T08:27:53.247Z</time></trkpt><trkpt lat="39.6000499" lon="8.5300362"><ele>301.0</ele><time>2026-05-01T08:27:54.246Z</time></trkpt><trkpt lat="39.6000048" lon="8.5302065"><ele>301.0</ele><time>2026-05-01T08:27:55.246Z</time></trkpt><trkpt lat="39.5999569" lon="8.5303823"><ele>302.25</ele><time>2026-05-01T08:27:56.247Z</time></trkpt><trkpt lat="39.5999083" lon="8.5305646"><ele>303.5</ele><time>2026-05-01T08:27:57.248Z</time></trkpt><trkpt lat="39.5998581" lon="8.5307526"><ele>304.75</ele><time>2026-05-01T08:27:58.247Z</time></trkpt><trkpt lat="39.599811" lon="8.5309283"><ele>306.0</ele><time>2026-05-01T08:27:59.247Z</time></trkpt><trkpt lat="39.5997674" lon="8.5310941"><ele>306.0</ele><time>2026-05-01T08:28:00.247Z</time></trkpt><trkpt lat="39.5997263" lon="8.531239"><ele>306.0</ele><time>2026-05-01T08:28:01.248Z</time></trkpt><trkpt lat="39.5996708" lon="8.5313567"><ele>306.0</ele><time>2026-05-01T08:28:02.247Z</time></trkpt><trkpt lat="39.5996016" lon="8.5314362"><ele>306.0</ele><time>2026-05-01T08:28:03.247Z</time></trkpt><trkpt lat="39.5995179" lon="8.53149"><ele>306.0</ele><time>2026-05-01T08:28:04.246Z</time></trkpt><trkpt lat="39.5994182" lon="8.5315226"><ele>306.0</ele><time>2026-05-01T08:28:05.247Z</time></trkpt><trkpt lat="39.5993069" lon="8.5315511"><ele>306.0</ele><time>2026-05-01T08:28:06.246Z</time></trkpt><trkpt lat="39.5991936" lon="8.5315882"><ele>306.0</ele><time>2026-05-01T08:28:07.247Z</time></trkpt><trkpt lat="39.5990756" lon="8.5316307"><ele>306.0</ele><time>2026-05-01T08:28:08.247Z</time></trkpt><trkpt lat="39.5989508" lon="8.5316702"><ele>306.0</ele><time>2026-05-01T08:28:09.247Z</time></trkpt><trkpt lat="39.5988221" lon="8.5317104"><ele>306.0</ele><time>2026-05-01T08:28:10.247Z</time></trkpt><trkpt lat="39.5986926" lon="8.5317519"><ele>306.0</ele><time>2026-05-01T08:28:11.248Z</time></trkpt><trkpt lat="39.5985773" lon="8.5317893"><ele>306.0</ele><time>2026-05-01T08:28:12.247Z</time></trkpt><trkpt lat="39.5984676" lon="8.5318441"><ele>305.0</ele><time>2026-05-01T08:28:13.247Z</time></trkpt><trkpt lat="39.5983699" lon="8.5319199"><ele>304.0</ele><time>2026-05-01T08:28:14.248Z</time></trkpt><trkpt lat="39.5982778" lon="8.5320209"><ele>303.0</ele><time>2026-05-01T08:28:15.248Z</time></trkpt><trkpt lat="39.5981808" lon="8.5321387"><ele>302.0</ele><time>2026-05-01T08:28:16.247Z</time></trkpt><trkpt lat="39.59809" lon="8.5322543"><ele>303.25</ele><time>2026-05-01T08:28:17.247Z</time></trkpt><trkpt lat="39.5980052" lon="8.5323646"><ele>304.5</ele><time>2026-05-01T08:28:18.246Z</time></trkpt><trkpt lat="39.5979237" lon="8.5324712"><ele>305.75</ele><time>2026-05-01T08:28:19.248Z</time></trkpt><trkpt lat="39.5978423" lon="8.5325691"><ele>307.0</ele><time>2026-05-01T08:28:20.247Z</time></trkpt><trkpt lat="39.5977539" lon="8.5326452"><ele>307.0</ele><time>2026-05-01T08:28:21.247Z</time></trkpt><trkpt lat="39.5976654" lon="8.5326777"><ele>307.0</ele><time>2026-05-01T08:28:22.248Z</time></trkpt><trkpt lat="39.5975811" lon="8.5326573"><ele>307.0</ele><time>2026-05-01T08:28:23.248Z</time></trkpt><trkpt lat="39.5975101" lon="8.5326005"><ele>307.0</ele><time>2026-05-01T08:28:24.247Z</time></trkpt><trkpt lat="39.5974506" lon="8.5324942"><ele>307.0</ele><time>2026-05-01T08:28:25.247Z</time></trkpt><trkpt lat="39.597397" lon="8.5323616"><ele>307.0</ele><time>2026-05-01T08:28:26.246Z</time></trkpt><trkpt lat="39.5973335" lon="8.5322208"><ele>307.0</ele><time>2026-05-01T08:28:27.247Z</time></trkpt><trkpt lat="39.59724" lon="8.5320939"><ele>307.0</ele><time>2026-05-01T08:28:28.247Z</time></trkpt><trkpt lat="39.59713" lon="8.5319725"><ele>307.0</ele><time>2026-05-01T08:28:29.248Z</time></trkpt><trkpt lat="39.5970105" lon="8.5318498"><ele>307.25</ele><time>2026-05-01T08:28:30.248Z</time></trkpt><trkpt lat="39.5969089" lon="8.5317145"><ele>307.5</ele><time>2026-05-01T08:28:31.247Z</time></trkpt><trkpt lat="39.5968299" lon="8.5315718"><ele>307.75</ele><time>2026-05-01T08:28:32.246Z</time></trkpt><trkpt lat="39.5967566" lon="8.5314338"><ele>308.0</ele><time>2026-05-01T08:28:33.246Z</time></trkpt><trkpt lat="39.5966739" lon="8.531313"><ele>304.0</ele><time>2026-05-01T08:28:34.247Z</time></trkpt><trkpt lat="39.5965728" lon="8.5312047"><ele>300.0</ele><time>2026-05-01T08:28:35.248Z</time></trkpt><trkpt lat="39.5964632" lon="8.5311209"><ele>296.0</ele><time>2026-05-01T08:28:36.246Z</time></trkpt><trkpt lat="39.5963505" lon="8.5310377"><ele>292.0</ele><time>2026-05-01T08:28:37.247Z</time></trkpt><trkpt lat="39.5962494" lon="8.5309572"><ele>293.4</ele><time>2026-05-01T08:28:38.247Z</time></trkpt><trkpt lat="39.5961499" lon="8.5308845"><ele>294.79999999999995</ele><time>2026-05-01T08:28:39.248Z</time></trkpt><trkpt lat="39.5960526" lon="8.5308377"><ele>296.2</ele><time>2026-05-01T08:28:40.248Z</time></trkpt><trkpt lat="39.5959545" lon="8.5308286"><ele>297.59999999999997</ele><time>2026-05-01T08:28:41.246Z</time></trkpt><trkpt lat="39.5958504" lon="8.5308475"><ele>299.0</ele><time>2026-05-01T08:28:42.247Z</time></trkpt><trkpt lat="39.5957396" lon="8.5308817"><ele>299.0</ele><time>2026-05-01T08:28:43.248Z</time></trkpt><trkpt lat="39.5956191" lon="8.5309214"><ele>299.0</ele><time>2026-05-01T08:28:44.247Z</time></trkpt><trkpt lat="39.5954935" lon="8.5309674"><ele>299.0</ele><time>2026-05-01T08:28:45.247Z</time></trkpt><trkpt lat="39.5953599" lon="8.5310134"><ele>299.0</ele><time>2026-05-01T08:28:46.248Z</time></trkpt><trkpt lat="39.5952275" lon="8.5310781"><ele>301.0</ele><time>2026-05-01T08:28:47.248Z</time></trkpt><trkpt lat="39.5951057" lon="8.5311596"><ele>303.0</ele><time>2026-05-01T08:28:48.247Z</time></trkpt><trkpt lat="39.5949924" lon="8.5312479"><ele>305.0</ele><time>2026-05-01T08:28:49.247Z</time></trkpt><trkpt lat="39.5948877" lon="8.5313606"><ele>307.0</ele><time>2026-05-01T08:28:50.248Z</time></trkpt><trkpt lat="39.5947915" lon="8.531496"><ele>307.0</ele><time>2026-05-01T08:28:51.246Z</time></trkpt><trkpt lat="39.5946983" lon="8.5316446"><ele>307.0</ele><time>2026-05-01T08:28:52.247Z</time></trkpt><trkpt lat="39.5946057" lon="8.5317973"><ele>307.0</ele><time>2026-05-01T08:28:53.247Z</time></trkpt><trkpt lat="39.5945191" lon="8.5319425"><ele>307.0</ele><time>2026-05-01T08:28:54.248Z</time></trkpt><trkpt lat="39.594438" lon="8.532076"><ele>305.8</ele><time>2026-05-01T08:28:55.247Z</time></trkpt><trkpt lat="39.5943663" lon="8.5322006"><ele>304.6</ele><time>2026-05-01T08:28:56.247Z</time></trkpt><trkpt lat="39.5942995" lon="8.5323172"><ele>303.40000000000003</ele><time>2026-05-01T08:28:57.248Z</time></trkpt><trkpt lat="39.5942337" lon="8.5324093"><ele>302.2</ele><time>2026-05-01T08:28:58.247Z</time></trkpt><trkpt lat="39.5941559" lon="8.5324562"><ele>301.0</ele><time>2026-05-01T08:28:59.247Z</time></trkpt><trkpt lat="39.5940809" lon="8.5324622"><ele>301.0</ele><time>2026-05-01T08:29:00.248Z</time></trkpt><trkpt lat="39.5940145" lon="8.5324289"><ele>301.0</ele><time>2026-05-01T08:29:01.247Z</time></trkpt><trkpt lat="39.5939618" lon="8.5323619"><ele>301.0</ele><time>2026-05-01T08:29:02.247Z</time></trkpt><trkpt lat="39.5939125" lon="8.5322691"><ele>301.0</ele><time>2026-05-01T08:29:03.247Z</time></trkpt><trkpt lat="39.5938567" lon="8.5321576"><ele>301.0</ele><time>2026-05-01T08:29:04.248Z</time></trkpt><trkpt lat="39.5937958" lon="8.5320232"><ele>302.0</ele><time>2026-05-01T08:29:05.248Z</time></trkpt><trkpt lat="39.5937276" lon="8.5318752"><ele>303.0</ele><time>2026-05-01T08:29:06.247Z</time></trkpt><trkpt lat="39.5936673" lon="8.5317362"><ele>304.0</ele><time>2026-05-01T08:29:07.248Z</time></trkpt><trkpt lat="39.5936075" lon="8.531579"><ele>305.0</ele><time>2026-05-01T08:29:08.248Z</time></trkpt><trkpt lat="39.5935582" lon="8.531409"><ele>305.0</ele><time>2026-05-01T08:29:09.247Z</time></trkpt><trkpt lat="39.593522" lon="8.5312391"><ele>305.0</ele><time>2026-05-01T08:29:10.247Z</time></trkpt><trkpt lat="39.5934867" lon="8.5310745"><ele>305.0</ele><time>2026-05-01T08:29:11.248Z</time></trkpt><trkpt lat="39.5934469" lon="8.5309098"><ele>305.0</ele><time>2026-05-01T08:29:12.248Z</time></trkpt><trkpt lat="39.5933927" lon="8.5307655"><ele>303.0</ele><time>2026-05-01T08:29:13.247Z</time></trkpt><trkpt lat="39.593316" lon="8.530632"><ele>301.0</ele><time>2026-05-01T08:29:14.248Z</time></trkpt><trkpt lat="39.5932263" lon="8.5305082"><ele>299.0</ele><time>2026-05-01T08:29:15.246Z</time></trkpt><trkpt lat="39.5931637" lon="8.5303696"><ele>297.0</ele><time>2026-05-01T08:29:16.248Z</time></trkpt><trkpt lat="39.5931286" lon="8.5302123"><ele>295.0</ele><time>2026-05-01T08:29:17.247Z</time></trkpt><trkpt lat="39.5931198" lon="8.5300463"><ele>293.0</ele><time>2026-05-01T08:29:18.247Z</time></trkpt><trkpt lat="39.5931084" lon="8.5298763"><ele>291.0</ele><time>2026-05-01T08:29:19.246Z</time></trkpt><trkpt lat="39.593074" lon="8.5297105"><ele>289.0</ele><time>2026-05-01T08:29:20.248Z</time></trkpt><trkpt lat="39.5930085" lon="8.5295552"><ele>288.25</ele><time>2026-05-01T08:29:21.247Z</time></trkpt><trkpt lat="39.592927" lon="8.529403"><ele>287.5</ele><time>2026-05-01T08:29:22.247Z</time></trkpt><trkpt lat="39.5928359" lon="8.5292534"><ele>286.75</ele><time>2026-05-01T08:29:23.248Z</time></trkpt><trkpt lat="39.5927483" lon="8.5291084"><ele>286.0</ele><time>2026-05-01T08:29:24.246Z</time></trkpt><trkpt lat="39.5926556" lon="8.5289775"><ele>290.5</ele><time>2026-05-01T08:29:25.247Z</time></trkpt><trkpt lat="39.5925533" lon="8.5288701"><ele>295.0</ele><time>2026-05-01T08:29:26.248Z</time></trkpt><trkpt lat="39.5924466" lon="8.5288095"><ele>299.5</ele><time>2026-05-01T08:29:27.248Z</time></trkpt><trkpt lat="39.5923328" lon="8.5287855"><ele>304.0</ele><time>2026-05-01T08:29:28.247Z</time></trkpt><trkpt lat="39.5922087" lon="8.5287925"><ele>304.0</ele><time>2026-05-01T08:29:29.248Z</time></trkpt><trkpt lat="39.5920686" lon="8.5288144"><ele>304.0</ele><time>2026-05-01T08:29:30.247Z</time></trkpt><trkpt lat="39.5919215" lon="8.528839"><ele>304.0</ele><time>2026-05-01T08:29:31.247Z</time></trkpt><trkpt lat="39.5917705" lon="8.5288621"><ele>304.0</ele><time>2026-05-01T08:29:32.248Z</time></trkpt><trkpt lat="39.5916198" lon="8.5288828"><ele>304.75</ele><time>2026-05-01T08:29:33.246Z</time></trkpt><trkpt lat="39.5914743" lon="8.5289037"><ele>305.5</ele><time>2026-05-01T08:29:34.247Z</time></trkpt><trkpt lat="39.5913397" lon="8.5289287"><ele>306.25</ele><time>2026-05-01T08:29:35.248Z</time></trkpt><trkpt lat="39.5912054" lon="8.5289494"><ele>307.0</ele><time>2026-05-01T08:29:36.247Z</time></trkpt><trkpt lat="39.59107" lon="8.5289463"><ele>308.5</ele><time>2026-05-01T08:29:37.248Z</time></trkpt><trkpt lat="39.5909343" lon="8.5289239"><ele>310.0</ele><time>2026-05-01T08:29:38.247Z</time></trkpt><trkpt lat="39.5908069" lon="8.5288921"><ele>311.5</ele><time>2026-05-01T08:29:39.247Z</time></trkpt><trkpt lat="39.5906946" lon="8.5288711"><ele>313.0</ele><time>2026-05-01T08:29:40.248Z</time></trkpt><trkpt lat="39.5905848" lon="8.5288755"><ele>313.0</ele><time>2026-05-01T08:29:41.247Z</time></trkpt><trkpt lat="39.5904764" lon="8.5289064"><ele>313.0</ele><time>2026-05-01T08:29:42.246Z</time></trkpt><trkpt lat="39.5903563" lon="8.5289596"><ele>313.0</ele><time>2026-05-01T08:29:43.248Z</time></trkpt><trkpt lat="39.5902216" lon="8.529036"><ele>313.0</ele><time>2026-05-01T08:29:44.248Z</time></trkpt><trkpt lat="39.5900767" lon="8.529124"><ele>311.3333333333333</ele><time>2026-05-01T08:29:45.246Z</time></trkpt><trkpt lat="39.5899309" lon="8.5292163"><ele>309.6666666666667</ele><time>2026-05-01T08:29:46.248Z</time></trkpt><trkpt lat="39.5897944" lon="8.5293054"><ele>308.0</ele><time>2026-05-01T08:29:47.248Z</time></trkpt><trkpt lat="39.5896585" lon="8.5293978"><ele>308.0</ele><time>2026-05-01T08:29:48.248Z</time></trkpt><trkpt lat="39.5895294" lon="8.5294812"><ele>308.0</ele><time>2026-05-01T08:29:49.247Z</time></trkpt><trkpt lat="39.5894051" lon="8.5295578"><ele>308.0</ele><time>2026-05-01T08:29:50.247Z</time></trkpt><trkpt lat="39.589291" lon="8.5296306"><ele>308.0</ele><time>2026-05-01T08:29:51.247Z</time></trkpt><trkpt lat="39.5891953" lon="8.5297067"><ele>307.75</ele><time>2026-05-01T08:29:52.247Z</time></trkpt><trkpt lat="39.5891193" lon="8.5298114"><ele>307.5</ele><time>2026-05-01T08:29:53.247Z</time></trkpt><trkpt lat="39.5890658" lon="8.5299475"><ele>307.25</ele><time>2026-05-01T08:29:54.246Z</time></trkpt><trkpt lat="39.5890284" lon="8.5301101"><ele>307.0</ele><time>2026-05-01T08:29:55.248Z</time></trkpt><trkpt lat="39.5889954" lon="8.5302959"><ele>307.5</ele><time>2026-05-01T08:29:56.248Z</time></trkpt><trkpt lat="39.5889675" lon="8.5304764"><ele>308.0</ele><time>2026-05-01T08:29:57.247Z</time></trkpt><trkpt lat="39.5889403" lon="8.5306484"><ele>308.5</ele><time>2026-05-01T08:29:58.247Z</time></trkpt><trkpt lat="39.5889006" lon="8.5308247"><ele>309.0</ele><time>2026-05-01T08:29:59.248Z</time></trkpt><trkpt lat="39.5888426" lon="8.5309977"><ele>309.0</ele><time>2026-05-01T08:30:00.246Z</time></trkpt><trkpt lat="39.5887623" lon="8.5311597"><ele>309.0</ele><time>2026-05-01T08:30:01.246Z</time></trkpt><trkpt lat="39.588677" lon="8.5313031"><ele>309.0</ele><time>2026-05-01T08:30:02.248Z</time></trkpt><trkpt lat="39.5885962" lon="8.5314393"><ele>309.0</ele><time>2026-05-01T08:30:03.247Z</time></trkpt><trkpt lat="39.5885267" lon="8.5315766"><ele>307.8</ele><time>2026-05-01T08:30:04.248Z</time></trkpt><trkpt lat="39.5884723" lon="8.5317158"><ele>306.59999999999997</ele><time>2026-05-01T08:30:05.248Z</time></trkpt><trkpt lat="39.5884273" lon="8.5318479"><ele>305.4</ele><time>2026-05-01T08:30:06.247Z</time></trkpt><trkpt lat="39.588381" lon="8.5319616"><ele>304.2</ele><time>2026-05-01T08:30:07.246Z</time></trkpt><trkpt lat="39.5883245" lon="8.532043"><ele>303.0</ele><time>2026-05-01T08:30:08.247Z</time></trkpt><trkpt lat="39.5882544" lon="8.5320857"><ele>303.0</ele><time>2026-05-01T08:30:09.248Z</time></trkpt><trkpt lat="39.5881766" lon="8.5320756"><ele>303.0</ele><time>2026-05-01T08:30:10.248Z</time></trkpt><trkpt lat="39.5881041" lon="8.5320189"><ele>303.0</ele><time>2026-05-01T08:30:11.247Z</time></trkpt><trkpt lat="39.5880445" lon="8.5319257"><ele>303.0</ele><time>2026-05-01T08:30:12.247Z</time></trkpt><trkpt lat="39.5879906" lon="8.5318124"><ele>303.0</ele><time>2026-05-01T08:30:13.246Z</time></trkpt><trkpt lat="39.587921" lon="8.5316985"><ele>302.0</ele><time>2026-05-01T08:30:14.247Z</time></trkpt><trkpt lat="39.5878332" lon="8.5315867"><ele>301.0</ele><time>2026-05-01T08:30:15.247Z</time></trkpt><trkpt lat="39.5877361" lon="8.5314694"><ele>300.0</ele><time>2026-05-01T08:30:16.247Z</time></trkpt><trkpt lat="39.5876322" lon="8.5313534"><ele>299.0</ele><time>2026-05-01T08:30:17.246Z</time></trkpt><trkpt lat="39.5875252" lon="8.5312685"><ele>296.75</ele><time>2026-05-01T08:30:18.248Z</time></trkpt><trkpt lat="39.5874057" lon="8.5312117"><ele>294.5</ele><time>2026-05-01T08:30:19.248Z</time></trkpt><trkpt lat="39.5872718" lon="8.5311671"><ele>292.25</ele><time>2026-05-01T08:30:20.247Z</time></trkpt><trkpt lat="39.5871271" lon="8.5311346"><ele>290.0</ele><time>2026-05-01T08:30:21.247Z</time></trkpt><trkpt lat="39.5869754" lon="8.5311061"><ele>290.0</ele><time>2026-05-01T08:30:22.247Z</time></trkpt><trkpt lat="39.5868238" lon="8.5310774"><ele>290.0</ele><time>2026-05-01T08:30:23.246Z</time></trkpt><trkpt lat="39.5866729" lon="8.5310455"><ele>290.0</ele><time>2026-05-01T08:30:24.248Z</time></trkpt><trkpt lat="39.5865362" lon="8.5310126"><ele>290.0</ele><time>2026-05-01T08:30:25.246Z</time></trkpt><trkpt lat="39.5864011" lon="8.5309825"><ele>290.0</ele><time>2026-05-01T08:30:26.247Z</time></trkpt><trkpt lat="39.5862721" lon="8.5309645"><ele>290.0</ele><time>2026-05-01T08:30:27.247Z</time></trkpt><trkpt lat="39.5861468" lon="8.5309845"><ele>290.0</ele><time>2026-05-01T08:30:28.247Z</time></trkpt><trkpt lat="39.5860228" lon="8.5310301"><ele>290.0</ele><time>2026-05-01T08:30:29.246Z</time></trkpt><trkpt lat="39.5859" lon="8.5310822"><ele>291.5</ele><time>2026-05-01T08:30:30.247Z</time></trkpt><trkpt lat="39.585774" lon="8.5311331"><ele>293.0</ele><time>2026-05-01T08:30:31.247Z</time></trkpt><trkpt lat="39.5856432" lon="8.5311669"><ele>294.5</ele><time>2026-05-01T08:30:32.246Z</time></trkpt><trkpt lat="39.585506" lon="8.5311945"><ele>296.0</ele><time>2026-05-01T08:30:33.246Z</time></trkpt><trkpt lat="39.5853711" lon="8.5312211"><ele>298.0</ele><time>2026-05-01T08:30:34.246Z</time></trkpt><trkpt lat="39.5852563" lon="8.53125"><ele>300.0</ele><time>2026-05-01T08:30:35.247Z</time></trkpt><trkpt lat="39.5851523" lon="8.5312918"><ele>302.0</ele><time>2026-05-01T08:30:36.247Z</time></trkpt><trkpt lat="39.5850479" lon="8.5313461"><ele>304.0</ele><time>2026-05-01T08:30:37.247Z</time></trkpt><trkpt lat="39.584939" lon="8.5314113"><ele>304.0</ele><time>2026-05-01T08:30:38.247Z</time></trkpt><trkpt lat="39.5848349" lon="8.5314797"><ele>304.0</ele><time>2026-05-01T08:30:39.248Z</time></trkpt><trkpt lat="39.5847311" lon="8.5315531"><ele>304.0</ele><time>2026-05-01T08:30:40.248Z</time></trkpt><trkpt lat="39.5846303" lon="8.5316334"><ele>304.0</ele><time>2026-05-01T08:30:41.247Z</time></trkpt><trkpt lat="39.5845394" lon="8.531733"><ele>300.75</ele><time>2026-05-01T08:30:42.246Z</time></trkpt><trkpt lat="39.5844471" lon="8.5318475"><ele>297.5</ele><time>2026-05-01T08:30:43.247Z</time></trkpt><trkpt lat="39.5843494" lon="8.5319435"><ele>294.25</ele><time>2026-05-01T08:30:44.247Z</time></trkpt><trkpt lat="39.584244" lon="8.5320132"><ele>291.0</ele><time>2026-05-01T08:30:45.246Z</time></trkpt><trkpt lat="39.5841337" lon="8.5320541"><ele>294.25</ele><time>2026-05-01T08:30:46.247Z</time></trkpt><trkpt lat="39.5840168" lon="8.5320791"><ele>297.5</ele><time>2026-05-01T08:30:47.246Z</time></trkpt><trkpt lat="39.5839016" lon="8.5321083"><ele>300.75</ele><time>2026-05-01T08:30:48.248Z</time></trkpt><trkpt lat="39.5837903" lon="8.5321465"><ele>304.0</ele><time>2026-05-01T08:30:49.248Z</time></trkpt><trkpt lat="39.583687" lon="8.5322134"><ele>301.25</ele><time>2026-05-01T08:30:50.247Z</time></trkpt><trkpt lat="39.5836004" lon="8.5323144"><ele>298.5</ele><time>2026-05-01T08:30:51.247Z</time></trkpt><trkpt lat="39.5835294" lon="8.5324395"><ele>295.75</ele><time>2026-05-01T08:30:52.246Z</time></trkpt><trkpt lat="39.5834569" lon="8.5325848"><ele>293.0</ele><time>2026-05-01T08:30:53.248Z</time></trkpt><trkpt lat="39.5833794" lon="8.5327283"><ele>293.0</ele><time>2026-05-01T08:30:54.248Z</time></trkpt><trkpt lat="39.583298" lon="8.5328528"><ele>293.0</ele><time>2026-05-01T08:30:55.248Z</time></trkpt><trkpt lat="39.5832118" lon="8.5329577"><ele>293.0</ele><time>2026-05-01T08:30:56.248Z</time></trkpt><trkpt lat="39.5831276" lon="8.5330636"><ele>293.0</ele><time>2026-05-01T08:30:57.247Z</time></trkpt><trkpt lat="39.5830634" lon="8.5331871"><ele>296.75</ele><time>2026-05-01T08:30:58.247Z</time></trkpt><trkpt lat="39.583019" lon="8.5333309"><ele>300.5</ele><time>2026-05-01T08:30:59.247Z</time></trkpt><trkpt lat="39.5829886" lon="8.5334909"><ele>304.25</ele><time>2026-05-01T08:31:00.247Z</time></trkpt><trkpt lat="39.5829638" lon="8.5336576"><ele>308.0</ele><time>2026-05-01T08:31:01.246Z</time></trkpt><trkpt lat="39.5829348" lon="8.5338106"><ele>307.4</ele><time>2026-05-01T08:31:02.247Z</time></trkpt><trkpt lat="39.5828969" lon="8.5339439"><ele>306.8</ele><time>2026-05-01T08:31:03.247Z</time></trkpt><trkpt lat="39.582847" lon="8.5340509"><ele>306.2</ele><time>2026-05-01T08:31:04.247Z</time></trkpt><trkpt lat="39.5827781" lon="8.5341292"><ele>305.6</ele><time>2026-05-01T08:31:05.247Z</time></trkpt><trkpt lat="39.5826991" lon="8.5341639"><ele>305.0</ele><time>2026-05-01T08:31:06.246Z</time></trkpt><trkpt lat="39.5826175" lon="8.5341502"><ele>305.0</ele><time>2026-05-01T08:31:07.248Z</time></trkpt><trkpt lat="39.5825401" lon="8.5340983"><ele>305.0</ele><time>2026-05-01T08:31:08.248Z</time></trkpt><trkpt lat="39.5824748" lon="8.5340015"><ele>305.0</ele><time>2026-05-01T08:31:09.248Z</time></trkpt><trkpt lat="39.5824223" lon="8.5338761"><ele>305.0</ele><time>2026-05-01T08:31:10.247Z</time></trkpt><trkpt lat="39.5823605" lon="8.5337416"><ele>305.0</ele><time>2026-05-01T08:31:11.247Z</time></trkpt><trkpt lat="39.5822725" lon="8.5336199"><ele>305.25</ele><time>2026-05-01T08:31:12.248Z</time></trkpt><trkpt lat="39.5821784" lon="8.5334963"><ele>305.5</ele><time>2026-05-01T08:31:13.247Z</time></trkpt><trkpt lat="39.5820994" lon="8.5333699"><ele>305.75</ele><time>2026-05-01T08:31:14.248Z</time></trkpt><trkpt lat="39.5820333" lon="8.5332186"><ele>306.0</ele><time>2026-05-01T08:31:15.247Z</time></trkpt><trkpt lat="39.5819901" lon="8.5330599"><ele>306.0</ele><time>2026-05-01T08:31:16.247Z</time></trkpt><trkpt lat="39.5819451" lon="8.5328947"><ele>306.0</ele><time>2026-05-01T08:31:17.247Z</time></trkpt><trkpt lat="39.5818972" lon="8.5327567"><ele>306.0</ele><time>2026-05-01T08:31:18.247Z</time></trkpt><trkpt lat="39.5818345" lon="8.532646"><ele>306.0</ele><time>2026-05-01T08:31:19.247Z</time></trkpt><trkpt lat="39.5817564" lon="8.5325678"><ele>304.40000000000003</ele><time>2026-05-01T08:31:20.248Z</time></trkpt><trkpt lat="39.5816672" lon="8.5325322"><ele>302.8</ele><time>2026-05-01T08:31:21.247Z</time></trkpt><trkpt lat="39.5815784" lon="8.5325418"><ele>301.20000000000005</ele><time>2026-05-01T08:31:22.246Z</time></trkpt><trkpt lat="39.5814971" lon="8.5325938"><ele>299.6</ele><time>2026-05-01T08:31:23.247Z</time></trkpt><trkpt lat="39.581431" lon="8.5326774"><ele>298.0</ele><time>2026-05-01T08:31:24.247Z</time></trkpt><trkpt lat="39.5813781" lon="8.5327935"><ele>300.0</ele><time>2026-05-01T08:31:25.248Z</time></trkpt><trkpt lat="39.5813321" lon="8.5329327"><ele>302.0</ele><time>2026-05-01T08:31:26.247Z</time></trkpt><trkpt lat="39.5812829" lon="8.5330869"><ele>304.0</ele><time>2026-05-01T08:31:27.247Z</time></trkpt><trkpt lat="39.5812333" lon="8.5332465"><ele>306.0</ele><time>2026-05-01T08:31:28.248Z</time></trkpt><trkpt lat="39.5812043" lon="8.533409"><ele>306.0</ele><time>2026-05-01T08:31:29.248Z</time></trkpt><trkpt lat="39.5811916" lon="8.5335873"><ele>306.0</ele><time>2026-05-01T08:31:30.246Z</time></trkpt><trkpt lat="39.5811798" lon="8.5337564"><ele>306.0</ele><time>2026-05-01T08:31:31.248Z</time></trkpt><trkpt lat="39.581157" lon="8.5339227"><ele>306.0</ele><time>2026-05-01T08:31:32.248Z</time></trkpt><trkpt lat="39.5811385" lon="8.5340938"><ele>304.75</ele><time>2026-05-01T08:31:33.247Z</time></trkpt><trkpt lat="39.5811363" lon="8.534265"><ele>303.5</ele><time>2026-05-01T08:31:34.248Z</time></trkpt><trkpt lat="39.5811395" lon="8.5344274"><ele>302.25</ele><time>2026-05-01T08:31:35.248Z</time></trkpt><trkpt lat="39.5811617" lon="8.5345802"><ele>301.0</ele><time>2026-05-01T08:31:36.246Z</time></trkpt><trkpt lat="39.5812133" lon="8.5347154"><ele>301.0</ele><time>2026-05-01T08:31:37.247Z</time></trkpt><trkpt lat="39.5812855" lon="8.5348223"><ele>301.0</ele><time>2026-05-01T08:31:38.246Z</time></trkpt><trkpt lat="39.5813534" lon="8.5349095"><ele>301.0</ele><time>2026-05-01T08:31:39.247Z</time></trkpt><trkpt lat="39.5813902" lon="8.5349974"><ele>301.0</ele><time>2026-05-01T08:31:40.248Z</time></trkpt><trkpt lat="39.5813918" lon="8.5350902"><ele>301.0</ele><time>2026-05-01T08:31:41.247Z</time></trkpt><trkpt lat="39.5813589" lon="8.5351824"><ele>301.0</ele><time>2026-05-01T08:31:42.248Z</time></trkpt><trkpt lat="39.5812995" lon="8.5352804"><ele>300.2</ele><time>2026-05-01T08:31:43.246Z</time></trkpt><trkpt lat="39.5812336" lon="8.5353903"><ele>299.40000000000003</ele><time>2026-05-01T08:31:44.247Z</time></trkpt><trkpt lat="39.5811752" lon="8.5354972"><ele>298.6</ele><time>2026-05-01T08:31:45.247Z</time></trkpt><trkpt lat="39.5811102" lon="8.5356135"><ele>297.8</ele><time>2026-05-01T08:31:46.248Z</time></trkpt><trkpt lat="39.5810501" lon="8.5357204"><ele>297.0</ele><time>2026-05-01T08:31:47.247Z</time></trkpt><trkpt lat="39.5810015" lon="8.5358286"><ele>293.6</ele><time>2026-05-01T08:31:48.248Z</time></trkpt><trkpt lat="39.5809842" lon="8.5359479"><ele>290.2</ele><time>2026-05-01T08:31:49.247Z</time></trkpt><trkpt lat="39.5809943" lon="8.5360819"><ele>286.8</ele><time>2026-05-01T08:31:50.247Z</time></trkpt><trkpt lat="39.5810179" lon="8.536228"><ele>283.4</ele><time>2026-05-01T08:31:51.247Z</time></trkpt><trkpt lat="39.5810381" lon="8.5363914"><ele>280.0</ele><time>2026-05-01T08:31:52.247Z</time></trkpt><trkpt lat="39.5810483" lon="8.5365657"><ele>278.5</ele><time>2026-05-01T08:31:53.248Z</time></trkpt><trkpt lat="39.5810561" lon="8.5367458"><ele>277.0</ele><time>2026-05-01T08:31:54.247Z</time></trkpt><trkpt lat="39.581066" lon="8.536936"><ele>275.5</ele><time>2026-05-01T08:31:55.248Z</time></trkpt><trkpt lat="39.5810772" lon="8.5371245"><ele>274.0</ele><time>2026-05-01T08:31:56.247Z</time></trkpt><trkpt lat="39.5810885" lon="8.5373148"><ele>273.0</ele><time>2026-05-01T08:31:57.246Z</time></trkpt><trkpt lat="39.5810988" lon="8.5375056"><ele>272.0</ele><time>2026-05-01T08:31:58.247Z</time></trkpt><trkpt lat="39.58111" lon="8.5376955"><ele>271.0</ele><time>2026-05-01T08:31:59.248Z</time></trkpt><trkpt lat="39.5811227" lon="8.5378833"><ele>270.0</ele><time>2026-05-01T08:32:00.247Z</time></trkpt><trkpt lat="39.5811327" lon="8.5380685"><ele>268.5</ele><time>2026-05-01T08:32:01.247Z</time></trkpt><trkpt lat="39.5811347" lon="8.5382511"><ele>267.0</ele><time>2026-05-01T08:32:02.246Z</time></trkpt><trkpt lat="39.5811278" lon="8.5384314"><ele>265.5</ele><time>2026-05-01T08:32:03.247Z</time></trkpt><trkpt lat="39.5811121" lon="8.5386109"><ele>264.0</ele><time>2026-05-01T08:32:04.247Z</time></trkpt><trkpt lat="39.5810953" lon="8.5387918"><ele>263.25</ele><time>2026-05-01T08:32:05.248Z</time></trkpt><trkpt lat="39.581078" lon="8.5389734"><ele>262.5</ele><time>2026-05-01T08:32:06.247Z</time></trkpt><trkpt lat="39.5810596" lon="8.5391535"><ele>261.75</ele><time>2026-05-01T08:32:07.247Z</time></trkpt><trkpt lat="39.5810425" lon="8.539329"><ele>261.0</ele><time>2026-05-01T08:32:08.247Z</time></trkpt><trkpt lat="39.5810285" lon="8.5394996"><ele>260.75</ele><time>2026-05-01T08:32:09.248Z</time></trkpt><trkpt lat="39.5810209" lon="8.5396663"><ele>260.5</ele><time>2026-05-01T08:32:10.248Z</time></trkpt><trkpt lat="39.5810129" lon="8.5398405"><ele>260.25</ele><time>2026-05-01T08:32:11.247Z</time></trkpt><trkpt lat="39.5810053" lon="8.54001"><ele>260.0</ele><time>2026-05-01T08:32:12.247Z</time></trkpt><trkpt lat="39.5809952" lon="8.5401778"><ele>260.0</ele><time>2026-05-01T08:32:13.248Z</time></trkpt><trkpt lat="39.5809885" lon="8.5403495"><ele>260.0</ele><time>2026-05-01T08:32:14.248Z</time></trkpt><trkpt lat="39.5809874" lon="8.5405197"><ele>260.0</ele><time>2026-05-01T08:32:15.248Z</time></trkpt><trkpt lat="39.5809931" lon="8.5406901"><ele>260.0</ele><time>2026-05-01T08:32:16.248Z</time></trkpt><trkpt lat="39.5810073" lon="8.5408558"><ele>258.5</ele><time>2026-05-01T08:32:17.248Z</time></trkpt><trkpt lat="39.5810291" lon="8.5410224"><ele>257.0</ele><time>2026-05-01T08:32:18.248Z</time></trkpt><trkpt lat="39.5810563" lon="8.541186"><ele>255.5</ele><time>2026-05-01T08:32:19.247Z</time></trkpt><trkpt lat="39.5810919" lon="8.5413494"><ele>254.0</ele><time>2026-05-01T08:32:20.248Z</time></trkpt><trkpt lat="39.5811361" lon="8.5415076"><ele>253.75</ele><time>2026-05-01T08:32:21.248Z</time></trkpt><trkpt lat="39.5811947" lon="8.5416569"><ele>253.5</ele><time>2026-05-01T08:32:22.248Z</time></trkpt><trkpt lat="39.5812703" lon="8.5417932"><ele>253.25</ele><time>2026-05-01T08:32:23.248Z</time></trkpt><trkpt lat="39.5813532" lon="8.5419226"><ele>253.0</ele><time>2026-05-01T08:32:24.248Z</time></trkpt><trkpt lat="39.5814294" lon="8.542051"><ele>252.99999999999997</ele><time>2026-05-01T08:32:25.248Z</time></trkpt><trkpt lat="39.5814955" lon="8.5421638"><ele>253.0</ele><time>2026-05-01T08:32:26.248Z</time></trkpt><trkpt lat="39.5815324" lon="8.542273"><ele>253.0</ele><time>2026-05-01T08:32:27.247Z</time></trkpt><trkpt lat="39.5815321" lon="8.5423776"><ele>253.0</ele><time>2026-05-01T08:32:28.247Z</time></trkpt><trkpt lat="39.5814973" lon="8.5424677"><ele>252.99999999999997</ele><time>2026-05-01T08:32:29.247Z</time></trkpt><trkpt lat="39.5814361" lon="8.5425423"><ele>253.0</ele><time>2026-05-01T08:32:30.248Z</time></trkpt><trkpt lat="39.5813594" lon="8.5426136"><ele>253.0</ele><time>2026-05-01T08:32:31.247Z</time></trkpt><trkpt lat="39.5812922" lon="8.5427059"><ele>253.0</ele><time>2026-05-01T08:32:32.247Z</time></trkpt><trkpt lat="39.5812415" lon="8.5428308"><ele>253.0</ele><time>2026-05-01T08:32:33.246Z</time></trkpt><trkpt lat="39.5812013" lon="8.5429778"><ele>253.0</ele><time>2026-05-01T08:32:34.247Z</time></trkpt><trkpt lat="39.5811682" lon="8.5431419"><ele>251.75</ele><time>2026-05-01T08:32:35.248Z</time></trkpt><trkpt lat="39.5811435" lon="8.5432989"><ele>250.5</ele><time>2026-05-01T08:32:36.247Z</time></trkpt><trkpt lat="39.5811194" lon="8.5434618"><ele>249.25</ele><time>2026-05-01T08:32:37.248Z</time></trkpt><trkpt lat="39.5810907" lon="8.5436293"><ele>248.0</ele><time>2026-05-01T08:32:38.248Z</time></trkpt><trkpt lat="39.5810566" lon="8.5437927"><ele>248.0</ele><time>2026-05-01T08:32:39.247Z</time></trkpt><trkpt lat="39.5810161" lon="8.5439408"><ele>248.0</ele><time>2026-05-01T08:32:40.247Z</time></trkpt><trkpt lat="39.5809612" lon="8.5440884"><ele>248.0</ele><time>2026-05-01T08:32:41.246Z</time></trkpt><trkpt lat="39.5808955" lon="8.5442319"><ele>248.0</ele><time>2026-05-01T08:32:42.246Z</time></trkpt><trkpt lat="39.5808156" lon="8.5443662"><ele>248.0</ele><time>2026-05-01T08:32:43.248Z</time></trkpt><trkpt lat="39.5807256" lon="8.5444879"><ele>248.0</ele><time>2026-05-01T08:32:44.247Z</time></trkpt><trkpt lat="39.5806287" lon="8.5445894"><ele>248.0</ele><time>2026-05-01T08:32:45.248Z</time></trkpt><trkpt lat="39.5805247" lon="8.5446766"><ele>248.0</ele><time>2026-05-01T08:32:46.247Z</time></trkpt><trkpt lat="39.5804121" lon="8.5447408"><ele>247.75</ele><time>2026-05-01T08:32:47.247Z</time></trkpt><trkpt lat="39.5802949" lon="8.544787"><ele>247.5</ele><time>2026-05-01T08:32:48.247Z</time></trkpt><trkpt lat="39.5801765" lon="8.5448252"><ele>247.25</ele><time>2026-05-01T08:32:49.247Z</time></trkpt><trkpt lat="39.5800609" lon="8.5448645"><ele>247.0</ele><time>2026-05-01T08:32:50.248Z</time></trkpt><trkpt lat="39.5799437" lon="8.5449044"><ele>247.0</ele><time>2026-05-01T08:32:51.248Z</time></trkpt><trkpt lat="39.5798207" lon="8.5449473"><ele>247.0</ele><time>2026-05-01T08:32:52.248Z</time></trkpt><trkpt lat="39.5796906" lon="8.5449995"><ele>247.0</ele><time>2026-05-01T08:32:53.248Z</time></trkpt><trkpt lat="39.5795596" lon="8.545062"><ele>247.0</ele><time>2026-05-01T08:32:54.248Z</time></trkpt><trkpt lat="39.5794323" lon="8.5451328"><ele>245.5</ele><time>2026-05-01T08:32:55.248Z</time></trkpt><trkpt lat="39.5793096" lon="8.5452071"><ele>244.0</ele><time>2026-05-01T08:32:56.247Z</time></trkpt><trkpt lat="39.579192" lon="8.5452874"><ele>242.5</ele><time>2026-05-01T08:32:57.248Z</time></trkpt><trkpt lat="39.579083" lon="8.5453786"><ele>241.0</ele><time>2026-05-01T08:32:58.248Z</time></trkpt><trkpt lat="39.5789846" lon="8.5454883"><ele>240.5</ele><time>2026-05-01T08:32:59.248Z</time></trkpt><trkpt lat="39.5788954" lon="8.5456174"><ele>240.0</ele><time>2026-05-01T08:33:00.247Z</time></trkpt><trkpt lat="39.5788211" lon="8.5457503"><ele>239.5</ele><time>2026-05-01T08:33:01.247Z</time></trkpt><trkpt lat="39.5787592" lon="8.5458748"><ele>239.0</ele><time>2026-05-01T08:33:02.247Z</time></trkpt><trkpt lat="39.5787157" lon="8.5459941"><ele>239.0</ele><time>2026-05-01T08:33:03.248Z</time></trkpt><trkpt lat="39.5787028" lon="8.5461236"><ele>238.99999999999997</ele><time>2026-05-01T08:33:04.247Z</time></trkpt><trkpt lat="39.5787306" lon="8.5462516"><ele>238.99999999999997</ele><time>2026-05-01T08:33:05.247Z</time></trkpt><trkpt lat="39.578796" lon="8.5463616"><ele>239.0</ele><time>2026-05-01T08:33:06.248Z</time></trkpt><trkpt lat="39.5788872" lon="8.546458"><ele>239.0</ele><time>2026-05-01T08:33:07.248Z</time></trkpt><trkpt lat="39.5789831" lon="8.5465637"><ele>236.25</ele><time>2026-05-01T08:33:08.247Z</time></trkpt><trkpt lat="39.5790666" lon="8.5466809"><ele>233.5</ele><time>2026-05-01T08:33:09.247Z</time></trkpt><trkpt lat="39.5791516" lon="8.5468091"><ele>230.75</ele><time>2026-05-01T08:33:10.247Z</time></trkpt><trkpt lat="39.5792297" lon="8.5469362"><ele>228.0</ele><time>2026-05-01T08:33:11.246Z</time></trkpt><trkpt lat="39.5793118" lon="8.5470523"><ele>227.5</ele><time>2026-05-01T08:33:12.247Z</time></trkpt><trkpt lat="39.5794101" lon="8.5471477"><ele>227.0</ele><time>2026-05-01T08:33:13.247Z</time></trkpt><trkpt lat="39.5795144" lon="8.5472323"><ele>226.5</ele><time>2026-05-01T08:33:14.248Z</time></trkpt><trkpt lat="39.5796207" lon="8.5473109"><ele>226.0</ele><time>2026-05-01T08:33:15.248Z</time></trkpt><trkpt lat="39.5797256" lon="8.5473912"><ele>226.0</ele><time>2026-05-01T08:33:16.248Z</time></trkpt><trkpt lat="39.5798233" lon="8.5474807"><ele>226.0</ele><time>2026-05-01T08:33:17.246Z</time></trkpt><trkpt lat="39.5799111" lon="8.5475848"><ele>226.0</ele><time>2026-05-01T08:33:18.247Z</time></trkpt><trkpt lat="39.5799772" lon="8.5477006"><ele>226.0</ele><time>2026-05-01T08:33:19.246Z</time></trkpt><trkpt lat="39.5800061" lon="8.547826"><ele>223.4</ele><time>2026-05-01T08:33:20.248Z</time></trkpt><trkpt lat="39.5799943" lon="8.5479514"><ele>220.8</ele><time>2026-05-01T08:33:21.246Z</time></trkpt><trkpt lat="39.5799489" lon="8.548074"><ele>218.20000000000002</ele><time>2026-05-01T08:33:22.248Z</time></trkpt><trkpt lat="39.5798817" lon="8.5481969"><ele>215.60000000000002</ele><time>2026-05-01T08:33:23.248Z</time></trkpt><trkpt lat="39.5797993" lon="8.5483197"><ele>213.0</ele><time>2026-05-01T08:33:24.248Z</time></trkpt><trkpt lat="39.579717" lon="8.5484468"><ele>213.0</ele><time>2026-05-01T08:33:25.247Z</time></trkpt><trkpt lat="39.5796458" lon="8.548572"><ele>213.0</ele><time>2026-05-01T08:33:26.248Z</time></trkpt><trkpt lat="39.5795924" lon="8.5487092"><ele>213.0</ele><time>2026-05-01T08:33:27.247Z</time></trkpt><trkpt lat="39.5795541" lon="8.5488638"><ele>213.0</ele><time>2026-05-01T08:33:28.246Z</time></trkpt><trkpt lat="39.5795279" lon="8.5490354"><ele>213.5</ele><time>2026-05-01T08:33:29.247Z</time></trkpt><trkpt lat="39.5794988" lon="8.5492162"><ele>214.0</ele><time>2026-05-01T08:33:30.247Z</time></trkpt><trkpt lat="39.5794652" lon="8.5494012"><ele>214.5</ele><time>2026-05-01T08:33:31.246Z</time></trkpt><trkpt lat="39.5794166" lon="8.54958"><ele>215.0</ele><time>2026-05-01T08:33:32.247Z</time></trkpt><trkpt lat="39.5793548" lon="8.5497412"><ele>217.75</ele><time>2026-05-01T08:33:33.248Z</time></trkpt><trkpt lat="39.5792843" lon="8.549878"><ele>220.5</ele><time>2026-05-01T08:33:34.248Z</time></trkpt><trkpt lat="39.579204" lon="8.5499867"><ele>223.25</ele><time>2026-05-01T08:33:35.247Z</time></trkpt><trkpt lat="39.579119" lon="8.5500732"><ele>226.0</ele><time>2026-05-01T08:33:36.247Z</time></trkpt><trkpt lat="39.5790222" lon="8.5501345"><ele>226.0</ele><time>2026-05-01T08:33:37.248Z</time></trkpt><trkpt lat="39.5789157" lon="8.5501603"><ele>226.0</ele><time>2026-05-01T08:33:38.247Z</time></trkpt><trkpt lat="39.5787971" lon="8.5501571"><ele>226.0</ele><time>2026-05-01T08:33:39.247Z</time></trkpt><trkpt lat="39.5786732" lon="8.5501469"><ele>226.0</ele><time>2026-05-01T08:33:40.246Z</time></trkpt><trkpt lat="39.5785376" lon="8.5501359"><ele>226.5</ele><time>2026-05-01T08:33:41.247Z</time></trkpt><trkpt lat="39.5784017" lon="8.550129"><ele>227.0</ele><time>2026-05-01T08:33:42.247Z</time></trkpt><trkpt lat="39.578267" lon="8.5501231"><ele>227.5</ele><time>2026-05-01T08:33:43.247Z</time></trkpt><trkpt lat="39.5781298" lon="8.5501182"><ele>228.0</ele><time>2026-05-01T08:33:44.248Z</time></trkpt><trkpt lat="39.5779926" lon="8.5501132"><ele>228.0</ele><time>2026-05-01T08:33:45.247Z</time></trkpt><trkpt lat="39.5778631" lon="8.5501115"><ele>228.0</ele><time>2026-05-01T08:33:46.248Z</time></trkpt><trkpt lat="39.5777437" lon="8.550118"><ele>228.0</ele><time>2026-05-01T08:33:47.248Z</time></trkpt><trkpt lat="39.5776343" lon="8.5501503"><ele>228.0</ele><time>2026-05-01T08:33:48.248Z</time></trkpt><trkpt lat="39.5775307" lon="8.5502007"><ele>228.2</ele><time>2026-05-01T08:33:49.248Z</time></trkpt><trkpt lat="39.5774298" lon="8.5502582"><ele>228.4</ele><time>2026-05-01T08:33:50.247Z</time></trkpt><trkpt lat="39.5773229" lon="8.5502998"><ele>228.59999999999997</ele><time>2026-05-01T08:33:51.248Z</time></trkpt><trkpt lat="39.5772124" lon="8.5502963"><ele>228.79999999999998</ele><time>2026-05-01T08:33:52.246Z</time></trkpt><trkpt lat="39.577113" lon="8.5502505"><ele>229.0</ele><time>2026-05-01T08:33:53.247Z</time></trkpt><trkpt lat="39.577013" lon="8.5501942"><ele>230.0</ele><time>2026-05-01T08:33:54.247Z</time></trkpt><trkpt lat="39.5769034" lon="8.5501407"><ele>231.0</ele><time>2026-05-01T08:33:55.248Z</time></trkpt><trkpt lat="39.5767871" lon="8.5501029"><ele>232.0</ele><time>2026-05-01T08:33:56.248Z</time></trkpt><trkpt lat="39.5766605" lon="8.5500776"><ele>233.0</ele><time>2026-05-01T08:33:57.246Z</time></trkpt><trkpt lat="39.5765248" lon="8.5500634"><ele>233.0</ele><time>2026-05-01T08:33:58.247Z</time></trkpt><trkpt lat="39.5763804" lon="8.5500548"><ele>233.0</ele><time>2026-05-01T08:33:59.247Z</time></trkpt><trkpt lat="39.5762294" lon="8.550046"><ele>233.0</ele><time>2026-05-01T08:34:00.247Z</time></trkpt><trkpt lat="39.5760707" lon="8.5500358"><ele>233.66666666666669</ele><time>2026-05-01T08:34:01.247Z</time></trkpt><trkpt lat="39.5759108" lon="8.5500284"><ele>234.33333333333331</ele><time>2026-05-01T08:34:02.247Z</time></trkpt><trkpt lat="39.5757624" lon="8.550021"><ele>235.0</ele><time>2026-05-01T08:34:03.247Z</time></trkpt><trkpt lat="39.5756152" lon="8.5500117"><ele>235.0</ele><time>2026-05-01T08:34:04.248Z</time></trkpt><trkpt lat="39.5754688" lon="8.5500023"><ele>235.0</ele><time>2026-05-01T08:34:05.247Z</time></trkpt><trkpt lat="39.5753218" lon="8.5499837"><ele>235.0</ele><time>2026-05-01T08:34:06.247Z</time></trkpt><trkpt lat="39.575174" lon="8.5499506"><ele>235.0</ele><time>2026-05-01T08:34:07.247Z</time></trkpt><trkpt lat="39.5750217" lon="8.5499021"><ele>235.66666666666666</ele><time>2026-05-01T08:34:08.248Z</time></trkpt><trkpt lat="39.5748758" lon="8.5498386"><ele>236.33333333333331</ele><time>2026-05-01T08:34:09.248Z</time></trkpt><trkpt lat="39.5747398" lon="8.5497605"><ele>237.0</ele><time>2026-05-01T08:34:10.248Z</time></trkpt><trkpt lat="39.5746109" lon="8.5496618"><ele>237.33333333333331</ele><time>2026-05-01T08:34:11.247Z</time></trkpt><trkpt lat="39.5744911" lon="8.5495404"><ele>237.66666666666666</ele><time>2026-05-01T08:34:12.247Z</time></trkpt><trkpt lat="39.5743807" lon="8.5494064"><ele>238.0</ele><time>2026-05-01T08:34:13.247Z</time></trkpt><trkpt lat="39.5742695" lon="8.5492748"><ele>238.0</ele><time>2026-05-01T08:34:14.246Z</time></trkpt><trkpt lat="39.5741574" lon="8.5491439"><ele>238.0</ele><time>2026-05-01T08:34:15.246Z</time></trkpt><trkpt lat="39.5740467" lon="8.5490112"><ele>238.0</ele><time>2026-05-01T08:34:16.247Z</time></trkpt><trkpt lat="39.5739349" lon="8.5488772"><ele>238.0</ele><time>2026-05-01T08:34:17.247Z</time></trkpt><trkpt lat="39.5738295" lon="8.5487459"><ele>238.0</ele><time>2026-05-01T08:34:18.248Z</time></trkpt><trkpt lat="39.5737313" lon="8.5486163"><ele>238.0</ele><time>2026-05-01T08:34:19.246Z</time></trkpt><trkpt lat="39.57364" lon="8.5484905"><ele>238.0</ele><time>2026-05-01T08:34:20.247Z</time></trkpt><trkpt lat="39.5735491" lon="8.5483721"><ele>238.0</ele><time>2026-05-01T08:34:21.247Z</time></trkpt><trkpt lat="39.5734472" lon="8.5482869"><ele>238.0</ele><time>2026-05-01T08:34:22.247Z</time></trkpt><trkpt lat="39.5733302" lon="8.548242"><ele>238.0</ele><time>2026-05-01T08:34:23.246Z</time></trkpt><trkpt lat="39.5732011" lon="8.5482276"><ele>238.0</ele><time>2026-05-01T08:34:24.248Z</time></trkpt><trkpt lat="39.5730617" lon="8.5482247"><ele>238.0</ele><time>2026-05-01T08:34:25.247Z</time></trkpt><trkpt lat="39.5729154" lon="8.5482226"><ele>238.0</ele><time>2026-05-01T08:34:26.248Z</time></trkpt><trkpt lat="39.572764" lon="8.5482204"><ele>238.0</ele><time>2026-05-01T08:34:27.247Z</time></trkpt><trkpt lat="39.572609" lon="8.5482163"><ele>238.5</ele><time>2026-05-01T08:34:28.246Z</time></trkpt><trkpt lat="39.5724556" lon="8.5482102"><ele>239.0</ele><time>2026-05-01T08:34:29.248Z</time></trkpt><trkpt lat="39.5723089" lon="8.5482045"><ele>239.5</ele><time>2026-05-01T08:34:30.248Z</time></trkpt><trkpt lat="39.5721697" lon="8.5481967"><ele>240.0</ele><time>2026-05-01T08:34:31.246Z</time></trkpt><trkpt lat="39.5720434" lon="8.5481907"><ele>239.8</ele><time>2026-05-01T08:34:32.247Z</time></trkpt><trkpt lat="39.5719288" lon="8.5481964"><ele>239.6</ele><time>2026-05-01T08:34:33.246Z</time></trkpt><trkpt lat="39.5718285" lon="8.5482327"><ele>239.39999999999998</ele><time>2026-05-01T08:34:34.248Z</time></trkpt><trkpt lat="39.5717382" lon="8.5483122"><ele>239.2</ele><time>2026-05-01T08:34:35.247Z</time></trkpt><trkpt lat="39.5716489" lon="8.5484162"><ele>239.0</ele><time>2026-05-01T08:34:36.247Z</time></trkpt><trkpt lat="39.5715546" lon="8.5485262"><ele>239.0</ele><time>2026-05-01T08:34:37.247Z</time></trkpt><trkpt lat="39.5714539" lon="8.5486391"><ele>239.0</ele><time>2026-05-01T08:34:38.248Z</time></trkpt><trkpt lat="39.5713484" lon="8.5487543"><ele>239.0</ele><time>2026-05-01T08:34:39.248Z</time></trkpt><trkpt lat="39.5712452" lon="8.5488695"><ele>239.0</ele><time>2026-05-01T08:34:40.247Z</time></trkpt><trkpt lat="39.571146" lon="8.5489841"><ele>238.5</ele><time>2026-05-01T08:34:41.247Z</time></trkpt><trkpt lat="39.5710494" lon="8.5491084"><ele>238.0</ele><time>2026-05-01T08:34:42.247Z</time></trkpt><trkpt lat="39.570959" lon="8.5492443"><ele>237.5</ele><time>2026-05-01T08:34:43.247Z</time></trkpt><trkpt lat="39.5708789" lon="8.5493919"><ele>237.0</ele><time>2026-05-01T08:34:44.247Z</time></trkpt><trkpt lat="39.5708135" lon="8.5495523"><ele>239.25</ele><time>2026-05-01T08:34:45.248Z</time></trkpt><trkpt lat="39.5707666" lon="8.5497242"><ele>241.5</ele><time>2026-05-01T08:34:46.248Z</time></trkpt><trkpt lat="39.570731" lon="8.5499028"><ele>243.75</ele><time>2026-05-01T08:34:47.248Z</time></trkpt><trkpt lat="39.5706948" lon="8.5500789"><ele>246.0</ele><time>2026-05-01T08:34:48.247Z</time></trkpt><trkpt lat="39.5706429" lon="8.5502506"><ele>248.5</ele><time>2026-05-01T08:34:49.248Z</time></trkpt><trkpt lat="39.5705786" lon="8.5504166"><ele>251.0</ele><time>2026-05-01T08:34:50.247Z</time></trkpt><trkpt lat="39.5704972" lon="8.5505833"><ele>253.5</ele><time>2026-05-01T08:34:51.247Z</time></trkpt><trkpt lat="39.5704147" lon="8.5507474"><ele>256.0</ele><time>2026-05-01T08:34:52.247Z</time></trkpt><trkpt lat="39.5703318" lon="8.5509171"><ele>252.75</ele><time>2026-05-01T08:34:53.248Z</time></trkpt><trkpt lat="39.5702503" lon="8.5510853"><ele>249.5</ele><time>2026-05-01T08:34:54.247Z</time></trkpt><trkpt lat="39.5701767" lon="8.5512398"><ele>246.25</ele><time>2026-05-01T08:34:55.247Z</time></trkpt><trkpt lat="39.5701203" lon="8.5513986"><ele>243.0</ele><time>2026-05-01T08:34:56.247Z</time></trkpt><trkpt lat="39.5700863" lon="8.5515691"><ele>243.0</ele><time>2026-05-01T08:34:57.246Z</time></trkpt><trkpt lat="39.5700761" lon="8.5517426"><ele>243.0</ele><time>2026-05-01T08:34:58.246Z</time></trkpt><trkpt lat="39.5700898" lon="8.5519169"><ele>243.0</ele><time>2026-05-01T08:34:59.247Z</time></trkpt><trkpt lat="39.5701299" lon="8.5520849"><ele>243.0</ele><time>2026-05-01T08:35:00.246Z</time></trkpt><trkpt lat="39.5701978" lon="8.5522355"><ele>243.5</ele><time>2026-05-01T08:35:01.247Z</time></trkpt><trkpt lat="39.5702829" lon="8.5523694"><ele>244.0</ele><time>2026-05-01T08:35:02.246Z</time></trkpt><trkpt lat="39.5703617" lon="8.5524928"><ele>244.5</ele><time>2026-05-01T08:35:03.248Z</time></trkpt><trkpt lat="39.5704267" lon="8.5526166"><ele>245.0</ele><time>2026-05-01T08:35:04.247Z</time></trkpt><trkpt lat="39.570458" lon="8.5527403"><ele>247.0</ele><time>2026-05-01T08:35:05.247Z</time></trkpt><trkpt lat="39.5704523" lon="8.5528592"><ele>249.0</ele><time>2026-05-01T08:35:06.248Z</time></trkpt><trkpt lat="39.5704138" lon="8.5529525"><ele>251.0</ele><time>2026-05-01T08:35:07.246Z</time></trkpt><trkpt lat="39.5703488" lon="8.5530356"><ele>253.0</ele><time>2026-05-01T08:35:08.246Z</time></trkpt><trkpt lat="39.5702623" lon="8.5531156"><ele>255.0</ele><time>2026-05-01T08:35:09.247Z</time></trkpt><trkpt lat="39.5701562" lon="8.5531997"><ele>255.0</ele><time>2026-05-01T08:35:10.248Z</time></trkpt><trkpt lat="39.5700379" lon="8.553294"><ele>255.0</ele><time>2026-05-01T08:35:11.248Z</time></trkpt><trkpt lat="39.569914" lon="8.5533966"><ele>255.0</ele><time>2026-05-01T08:35:12.247Z</time></trkpt><trkpt lat="39.5697964" lon="8.553492"><ele>255.0</ele><time>2026-05-01T08:35:13.247Z</time></trkpt><trkpt lat="39.569688" lon="8.5535797"><ele>255.0</ele><time>2026-05-01T08:35:14.246Z</time></trkpt><trkpt lat="39.5695762" lon="8.5536696"><ele>255.0</ele><time>2026-05-01T08:35:15.247Z</time></trkpt><trkpt lat="39.569463" lon="8.5537607"><ele>255.0</ele><time>2026-05-01T08:35:16.248Z</time></trkpt><trkpt lat="39.5693543" lon="8.5538631"><ele>255.0</ele><time>2026-05-01T08:35:17.248Z</time></trkpt><trkpt lat="39.5692568" lon="8.5539853"><ele>255.5</ele><time>2026-05-01T08:35:18.248Z</time></trkpt><trkpt lat="39.5691789" lon="8.5541369"><ele>256.0</ele><time>2026-05-01T08:35:19.247Z</time></trkpt><trkpt lat="39.5691193" lon="8.5542964"><ele>256.5</ele><time>2026-05-01T08:35:20.247Z</time></trkpt><trkpt lat="39.5690865" lon="8.5544772"><ele>257.0</ele><time>2026-05-01T08:35:21.247Z</time></trkpt><trkpt lat="39.5690768" lon="8.5546701"><ele>258.6666666666667</ele><time>2026-05-01T08:35:22.247Z</time></trkpt><trkpt lat="39.5690762" lon="8.5548757"><ele>260.3333333333333</ele><time>2026-05-01T08:35:23.248Z</time></trkpt><trkpt lat="39.5690711" lon="8.5550908"><ele>262.0</ele><time>2026-05-01T08:35:24.247Z</time></trkpt><trkpt lat="39.5690689" lon="8.5553085"><ele>263.66666666666663</ele><time>2026-05-01T08:35:25.247Z</time></trkpt><trkpt lat="39.5690644" lon="8.5555246"><ele>265.3333333333333</ele><time>2026-05-01T08:35:26.246Z</time></trkpt><trkpt lat="39.5690602" lon="8.5557432"><ele>267.0</ele><time>2026-05-01T08:35:27.246Z</time></trkpt><trkpt lat="39.5690576" lon="8.5559665"><ele>267.0</ele><time>2026-05-01T08:35:28.247Z</time></trkpt><trkpt lat="39.5690537" lon="8.5561912"><ele>267.0</ele><time>2026-05-01T08:35:29.247Z</time></trkpt><trkpt lat="39.5690505" lon="8.5564211"><ele>267.0</ele><time>2026-05-01T08:35:30.247Z</time></trkpt><trkpt lat="39.5690467" lon="8.5566531"><ele>268.0</ele><time>2026-05-01T08:35:31.248Z</time></trkpt><trkpt lat="39.56904" lon="8.5568695"><ele>269.0</ele><time>2026-05-01T08:35:32.248Z</time></trkpt><trkpt lat="39.5690297" lon="8.5570858"><ele>270.0</ele><time>2026-05-01T08:35:33.248Z</time></trkpt><trkpt lat="39.5690119" lon="8.5572923"><ele>271.5</ele><time>2026-05-01T08:35:34.248Z</time></trkpt><trkpt lat="39.5689885" lon="8.5574861"><ele>273.0</ele><time>2026-05-01T08:35:35.248Z</time></trkpt><trkpt lat="39.5689657" lon="8.5576778"><ele>274.5</ele><time>2026-05-01T08:35:36.248Z</time></trkpt><trkpt lat="39.5689431" lon="8.5578616"><ele>276.0</ele><time>2026-05-01T08:35:37.246Z</time></trkpt><trkpt lat="39.5689169" lon="8.558026"><ele>275.0</ele><time>2026-05-01T08:35:38.246Z</time></trkpt><trkpt lat="39.5688717" lon="8.5581579"><ele>274.0</ele><time>2026-05-01T08:35:39.248Z</time></trkpt><trkpt lat="39.5688029" lon="8.5582488"><ele>273.0</ele><time>2026-05-01T08:35:40.247Z</time></trkpt><trkpt lat="39.568721" lon="8.5583026"><ele>272.0</ele><time>2026-05-01T08:35:41.248Z</time></trkpt><trkpt lat="39.5686281" lon="8.5583562"><ele>271.0</ele><time>2026-05-01T08:35:42.247Z</time></trkpt><trkpt lat="39.5685349" lon="8.5584423"><ele>271.0</ele><time>2026-05-01T08:35:43.246Z</time></trkpt><trkpt lat="39.5684491" lon="8.5585556"><ele>271.0</ele><time>2026-05-01T08:35:44.247Z</time></trkpt><trkpt lat="39.5683674" lon="8.5586933"><ele>271.0</ele><time>2026-05-01T08:35:45.248Z</time></trkpt><trkpt lat="39.5682925" lon="8.5588477"><ele>271.0</ele><time>2026-05-01T08:35:46.248Z</time></trkpt><trkpt lat="39.5682177" lon="8.5590103"><ele>274.0</ele><time>2026-05-01T08:35:47.247Z</time></trkpt><trkpt lat="39.5681404" lon="8.5591741"><ele>277.0</ele><time>2026-05-01T08:35:48.246Z</time></trkpt><trkpt lat="39.5680624" lon="8.5593356"><ele>280.0</ele><time>2026-05-01T08:35:49.248Z</time></trkpt><trkpt lat="39.5679833" lon="8.5594957"><ele>283.0</ele><time>2026-05-01T08:35:50.248Z</time></trkpt><trkpt lat="39.5679106" lon="8.5596472"><ele>282.5</ele><time>2026-05-01T08:35:51.247Z</time></trkpt><trkpt lat="39.5678564" lon="8.5598057"><ele>282.0</ele><time>2026-05-01T08:35:52.248Z</time></trkpt><trkpt lat="39.5678284" lon="8.5599717"><ele>281.5</ele><time>2026-05-01T08:35:53.247Z</time></trkpt><trkpt lat="39.5678163" lon="8.5601319"><ele>281.0</ele><time>2026-05-01T08:35:54.247Z</time></trkpt><trkpt lat="39.5678082" lon="8.5602788"><ele>284.2</ele><time>2026-05-01T08:35:55.248Z</time></trkpt><trkpt lat="39.5677844" lon="8.5604061"><ele>287.40000000000003</ele><time>2026-05-01T08:35:56.248Z</time></trkpt><trkpt lat="39.5677174" lon="8.5605042"><ele>290.6</ele><time>2026-05-01T08:35:57.248Z</time></trkpt><trkpt lat="39.5676309" lon="8.5605715"><ele>293.8</ele><time>2026-05-01T08:35:58.248Z</time></trkpt><trkpt lat="39.5675274" lon="8.560627"><ele>297.0</ele><time>2026-05-01T08:35:59.247Z</time></trkpt><trkpt lat="39.5674166" lon="8.5606873"><ele>297.0</ele><time>2026-05-01T08:36:00.247Z</time></trkpt><trkpt lat="39.5672997" lon="8.5607518"><ele>297.0</ele><time>2026-05-01T08:36:01.248Z</time></trkpt><trkpt lat="39.5671805" lon="8.5608131"><ele>297.0</ele><time>2026-05-01T08:36:02.247Z</time></trkpt><trkpt lat="39.5670605" lon="8.5608639"><ele>297.0</ele><time>2026-05-01T08:36:03.247Z</time></trkpt><trkpt lat="39.5669442" lon="8.5608891"><ele>296.0</ele><time>2026-05-01T08:36:04.248Z</time></trkpt><trkpt lat="39.56683" lon="8.5609014"><ele>295.0</ele><time>2026-05-01T08:36:05.248Z</time></trkpt><trkpt lat="39.5667146" lon="8.5609205"><ele>294.0</ele><time>2026-05-01T08:36:06.247Z</time></trkpt><trkpt lat="39.5665985" lon="8.5609696"><ele>293.0</ele><time>2026-05-01T08:36:07.246Z</time></trkpt><trkpt lat="39.5664725" lon="8.5610393"><ele>293.0</ele><time>2026-05-01T08:36:08.247Z</time></trkpt><trkpt lat="39.566346" lon="8.5611162"><ele>293.0</ele><time>2026-05-01T08:36:09.247Z</time></trkpt><trkpt lat="39.5662203" lon="8.5611918"><ele>293.0</ele><time>2026-05-01T08:36:10.247Z</time></trkpt><trkpt lat="39.566102" lon="8.5612674"><ele>293.0</ele><time>2026-05-01T08:36:11.246Z</time></trkpt><trkpt lat="39.565987" lon="8.5613515"><ele>295.25</ele><time>2026-05-01T08:36:12.247Z</time></trkpt><trkpt lat="39.5658909" lon="8.561464"><ele>297.5</ele><time>2026-05-01T08:36:13.248Z</time></trkpt><trkpt lat="39.5658143" lon="8.5616116"><ele>299.75</ele><time>2026-05-01T08:36:14.246Z</time></trkpt><trkpt lat="39.5657427" lon="8.561766"><ele>302.0</ele><time>2026-05-01T08:36:15.247Z</time></trkpt><trkpt lat="39.5656714" lon="8.5619265"><ele>305.5</ele><time>2026-05-01T08:36:16.248Z</time></trkpt><trkpt lat="39.5656006" lon="8.5620845"><ele>309.0</ele><time>2026-05-01T08:36:17.247Z</time></trkpt><trkpt lat="39.5655307" lon="8.5622333"><ele>312.5</ele><time>2026-05-01T08:36:18.246Z</time></trkpt><trkpt lat="39.5654667" lon="8.5623693"><ele>316.0</ele><time>2026-05-01T08:36:19.248Z</time></trkpt><trkpt lat="39.5654149" lon="8.5624999"><ele>316.0</ele><time>2026-05-01T08:36:20.247Z</time></trkpt><trkpt lat="39.5653932" lon="8.5626413"><ele>316.0</ele><time>2026-05-01T08:36:21.247Z</time></trkpt><trkpt lat="39.565406" lon="8.5627833"><ele>316.0</ele><time>2026-05-01T08:36:22.248Z</time></trkpt><trkpt lat="39.5654325" lon="8.5629206"><ele>316.0</ele><time>2026-05-01T08:36:23.247Z</time></trkpt><trkpt lat="39.5654537" lon="8.5630455"><ele>316.0</ele><time>2026-05-01T08:36:24.248Z</time></trkpt><trkpt lat="39.5654463" lon="8.5631549"><ele>316.0</ele><time>2026-05-01T08:36:25.248Z</time></trkpt><trkpt lat="39.5654096" lon="8.5632274"><ele>316.0</ele><time>2026-05-01T08:36:26.248Z</time></trkpt><trkpt lat="39.5653066" lon="8.5632514"><ele>316.0</ele><time>2026-05-01T08:36:28.248Z</time></trkpt><trkpt lat="39.5652555" lon="8.5631939"><ele>316.0</ele><time>2026-05-01T08:36:29.247Z</time></trkpt><trkpt lat="39.5652075" lon="8.5630976"><ele>316.0</ele><time>2026-05-01T08:36:30.248Z</time></trkpt><trkpt lat="39.5651512" lon="8.5629728"><ele>316.0</ele><time>2026-05-01T08:36:31.247Z</time></trkpt><trkpt lat="39.5650772" lon="8.5628245"><ele>316.0</ele><time>2026-05-01T08:36:32.248Z</time></trkpt><trkpt lat="39.5649987" lon="8.5626716"><ele>316.0</ele><time>2026-05-01T08:36:33.248Z</time></trkpt><trkpt lat="39.5649183" lon="8.5625217"><ele>316.0</ele><time>2026-05-01T08:36:34.248Z</time></trkpt><trkpt lat="39.5648381" lon="8.5623679"><ele>316.0</ele><time>2026-05-01T08:36:35.246Z</time></trkpt><trkpt lat="39.5647617" lon="8.5622093"><ele>316.0</ele><time>2026-05-01T08:36:36.247Z</time></trkpt><trkpt lat="39.564694" lon="8.5620405"><ele>316.0</ele><time>2026-05-01T08:36:37.247Z</time></trkpt><trkpt lat="39.5646361" lon="8.5618654"><ele>316.0</ele><time>2026-05-01T08:36:38.248Z</time></trkpt><trkpt lat="39.56459" lon="8.5617031"><ele>316.0</ele><time>2026-05-01T08:36:39.247Z</time></trkpt><trkpt lat="39.5645443" lon="8.5615415"><ele>315.75</ele><time>2026-05-01T08:36:40.248Z</time></trkpt><trkpt lat="39.5644882" lon="8.5613876"><ele>315.5</ele><time>2026-05-01T08:36:41.248Z</time></trkpt><trkpt lat="39.5644107" lon="8.5612537"><ele>315.25</ele><time>2026-05-01T08:36:42.247Z</time></trkpt><trkpt lat="39.5643122" lon="8.5611372"><ele>315.0</ele><time>2026-05-01T08:36:43.247Z</time></trkpt><trkpt lat="39.5641975" lon="8.5610472"><ele>315.0</ele><time>2026-05-01T08:36:44.247Z</time></trkpt><trkpt lat="39.5640754" lon="8.5609917"><ele>315.0</ele><time>2026-05-01T08:36:45.247Z</time></trkpt><trkpt lat="39.5639404" lon="8.5609725"><ele>315.0</ele><time>2026-05-01T08:36:46.246Z</time></trkpt><trkpt lat="39.5638041" lon="8.5609857"><ele>315.0</ele><time>2026-05-01T08:36:47.247Z</time></trkpt><trkpt lat="39.5636667" lon="8.5610398"><ele>316.3333333333333</ele><time>2026-05-01T08:36:48.247Z</time></trkpt><trkpt lat="39.5635271" lon="8.5611223"><ele>317.66666666666663</ele><time>2026-05-01T08:36:49.248Z</time></trkpt><trkpt lat="39.5633835" lon="8.5612189"><ele>319.0</ele><time>2026-05-01T08:36:50.248Z</time></trkpt><trkpt lat="39.5632345" lon="8.5613242"><ele>322.3333333333333</ele><time>2026-05-01T08:36:51.248Z</time></trkpt><trkpt lat="39.5630882" lon="8.5614238"><ele>325.6666666666667</ele><time>2026-05-01T08:36:52.247Z</time></trkpt><trkpt lat="39.5629417" lon="8.5615211"><ele>329.0</ele><time>2026-05-01T08:36:53.247Z</time></trkpt><trkpt lat="39.5627958" lon="8.5616194"><ele>329.0</ele><time>2026-05-01T08:36:54.247Z</time></trkpt><trkpt lat="39.5626542" lon="8.5617241"><ele>329.0</ele><time>2026-05-01T08:36:55.247Z</time></trkpt><trkpt lat="39.5625157" lon="8.5618409"><ele>329.0</ele><time>2026-05-01T08:36:56.247Z</time></trkpt><trkpt lat="39.5623816" lon="8.5619681"><ele>330.0</ele><time>2026-05-01T08:36:57.247Z</time></trkpt><trkpt lat="39.5622584" lon="8.562089"><ele>331.0</ele><time>2026-05-01T08:36:58.248Z</time></trkpt><trkpt lat="39.5621379" lon="8.5622099"><ele>332.0</ele><time>2026-05-01T08:36:59.248Z</time></trkpt><trkpt lat="39.5620201" lon="8.5623253"><ele>332.0</ele><time>2026-05-01T08:37:00.247Z</time></trkpt><trkpt lat="39.5619149" lon="8.5624328"><ele>332.0</ele><time>2026-05-01T08:37:01.247Z</time></trkpt><trkpt lat="39.5618216" lon="8.5625486"><ele>332.0</ele><time>2026-05-01T08:37:02.248Z</time></trkpt><trkpt lat="39.5617469" lon="8.5626797"><ele>332.0</ele><time>2026-05-01T08:37:03.247Z</time></trkpt><trkpt lat="39.5617023" lon="8.5628311"><ele>334.75</ele><time>2026-05-01T08:37:04.247Z</time></trkpt><trkpt lat="39.5616852" lon="8.5629919"><ele>337.5</ele><time>2026-05-01T08:37:05.246Z</time></trkpt><trkpt lat="39.5616908" lon="8.5631579"><ele>340.25</ele><time>2026-05-01T08:37:06.246Z</time></trkpt><trkpt lat="39.561706" lon="8.5633285"><ele>343.0</ele><time>2026-05-01T08:37:07.246Z</time></trkpt><trkpt lat="39.5617166" lon="8.5635006"><ele>343.0</ele><time>2026-05-01T08:37:08.246Z</time></trkpt><trkpt lat="39.5617082" lon="8.5636606"><ele>343.0</ele><time>2026-05-01T08:37:09.247Z</time></trkpt><trkpt lat="39.5616776" lon="8.5638081"><ele>343.0</ele><time>2026-05-01T08:37:10.248Z</time></trkpt><trkpt lat="39.5616207" lon="8.56393"><ele>343.0</ele><time>2026-05-01T08:37:11.248Z</time></trkpt><trkpt lat="39.5615376" lon="8.5640427"><ele>343.0</ele><time>2026-05-01T08:37:12.248Z</time></trkpt><trkpt lat="39.5614356" lon="8.5641443"><ele>343.0</ele><time>2026-05-01T08:37:13.247Z</time></trkpt><trkpt lat="39.5613203" lon="8.5642424"><ele>343.0</ele><time>2026-05-01T08:37:14.246Z</time></trkpt><trkpt lat="39.5611995" lon="8.5643406"><ele>343.0</ele><time>2026-05-01T08:37:15.247Z</time></trkpt><trkpt lat="39.5610792" lon="8.5644479"><ele>346.0</ele><time>2026-05-01T08:37:16.246Z</time></trkpt><trkpt lat="39.5609613" lon="8.5645712"><ele>349.0</ele><time>2026-05-01T08:37:17.247Z</time></trkpt><trkpt lat="39.5608449" lon="8.5647067"><ele>352.0</ele><time>2026-05-01T08:37:18.248Z</time></trkpt><trkpt lat="39.5607301" lon="8.5648522"><ele>352.0</ele><time>2026-05-01T08:37:19.248Z</time></trkpt><trkpt lat="39.5606305" lon="8.5649967"><ele>352.0</ele><time>2026-05-01T08:37:20.246Z</time></trkpt><trkpt lat="39.5605399" lon="8.5651411"><ele>352.0</ele><time>2026-05-01T08:37:21.247Z</time></trkpt><trkpt lat="39.5604476" lon="8.5652826"><ele>352.0</ele><time>2026-05-01T08:37:22.248Z</time></trkpt><trkpt lat="39.5603479" lon="8.5654117"><ele>352.75</ele><time>2026-05-01T08:37:23.247Z</time></trkpt><trkpt lat="39.5602404" lon="8.5655287"><ele>353.5</ele><time>2026-05-01T08:37:24.247Z</time></trkpt><trkpt lat="39.5601273" lon="8.5656383"><ele>354.25</ele><time>2026-05-01T08:37:25.248Z</time></trkpt><trkpt lat="39.5600165" lon="8.5657513"><ele>355.0</ele><time>2026-05-01T08:37:26.246Z</time></trkpt><trkpt lat="39.5598998" lon="8.5658629"><ele>355.0</ele><time>2026-05-01T08:37:27.247Z</time></trkpt><trkpt lat="39.5597825" lon="8.5659707"><ele>355.0</ele><time>2026-05-01T08:37:28.247Z</time></trkpt><trkpt lat="39.5596677" lon="8.5660664"><ele>355.0</ele><time>2026-05-01T08:37:29.247Z</time></trkpt><trkpt lat="39.5595503" lon="8.5661461"><ele>355.0</ele><time>2026-05-01T08:37:30.248Z</time></trkpt><trkpt lat="39.559437" lon="8.5662156"><ele>358.0</ele><time>2026-05-01T08:37:31.248Z</time></trkpt><trkpt lat="39.5593106" lon="8.5662515"><ele>361.0</ele><time>2026-05-01T08:37:32.248Z</time></trkpt><trkpt lat="39.5591835" lon="8.566287"><ele>364.0</ele><time>2026-05-01T08:37:33.246Z</time></trkpt><trkpt lat="39.5590554" lon="8.5663114"><ele>367.0</ele><time>2026-05-01T08:37:34.248Z</time></trkpt><trkpt lat="39.5589213" lon="8.5663386"><ele>367.0</ele><time>2026-05-01T08:37:35.248Z</time></trkpt><trkpt lat="39.5587861" lon="8.5663824"><ele>367.0</ele><time>2026-05-01T08:37:36.247Z</time></trkpt><trkpt lat="39.558665" lon="8.566458"><ele>367.0</ele><time>2026-05-01T08:37:37.248Z</time></trkpt><trkpt lat="39.5585535" lon="8.5665516"><ele>367.0</ele><time>2026-05-01T08:37:38.247Z</time></trkpt><trkpt lat="39.5584395" lon="8.5666515"><ele>366.5</ele><time>2026-05-01T08:37:39.248Z</time></trkpt><trkpt lat="39.5583288" lon="8.5667587"><ele>366.0</ele><time>2026-05-01T08:37:40.248Z</time></trkpt><trkpt lat="39.5582181" lon="8.5668672"><ele>365.5</ele><time>2026-05-01T08:37:41.247Z</time></trkpt><trkpt lat="39.5581031" lon="8.5669782"><ele>365.0</ele><time>2026-05-01T08:37:42.247Z</time></trkpt><trkpt lat="39.5579873" lon="8.567092"><ele>363.25</ele><time>2026-05-01T08:37:43.248Z</time></trkpt><trkpt lat="39.5578842" lon="8.567218"><ele>361.5</ele><time>2026-05-01T08:37:44.247Z</time></trkpt><trkpt lat="39.5577959" lon="8.5673583"><ele>359.75</ele><time>2026-05-01T08:37:45.247Z</time></trkpt><trkpt lat="39.557719" lon="8.567511"><ele>358.0</ele><time>2026-05-01T08:37:46.248Z</time></trkpt><trkpt lat="39.5576549" lon="8.5676801"><ele>358.0</ele><time>2026-05-01T08:37:47.248Z</time></trkpt><trkpt lat="39.5575978" lon="8.5678532"><ele>358.0</ele><time>2026-05-01T08:37:48.247Z</time></trkpt><trkpt lat="39.5575491" lon="8.56803"><ele>358.0</ele><time>2026-05-01T08:37:49.247Z</time></trkpt><trkpt lat="39.5575039" lon="8.5682007"><ele>358.0</ele><time>2026-05-01T08:37:50.248Z</time></trkpt><trkpt lat="39.5574628" lon="8.5683745"><ele>360.75</ele><time>2026-05-01T08:37:51.248Z</time></trkpt><trkpt lat="39.5574314" lon="8.5685493"><ele>363.5</ele><time>2026-05-01T08:37:52.247Z</time></trkpt><trkpt lat="39.5574108" lon="8.5687245"><ele>366.25</ele><time>2026-05-01T08:37:53.246Z</time></trkpt><trkpt lat="39.5573972" lon="8.5689011"><ele>369.0</ele><time>2026-05-01T08:37:54.248Z</time></trkpt><trkpt lat="39.5573872" lon="8.5690754"><ele>370.75</ele><time>2026-05-01T08:37:55.247Z</time></trkpt><trkpt lat="39.5573784" lon="8.5692419"><ele>372.5</ele><time>2026-05-01T08:37:56.246Z</time></trkpt><trkpt lat="39.5573598" lon="8.5694094"><ele>374.25</ele><time>2026-05-01T08:37:57.247Z</time></trkpt><trkpt lat="39.5573374" lon="8.5695649"><ele>376.0</ele><time>2026-05-01T08:37:58.247Z</time></trkpt><trkpt lat="39.557314" lon="8.5697065"><ele>376.0</ele><time>2026-05-01T08:37:59.248Z</time></trkpt><trkpt lat="39.5572847" lon="8.5698388"><ele>376.0</ele><time>2026-05-01T08:38:00.247Z</time></trkpt><trkpt lat="39.5572556" lon="8.5699621"><ele>376.0</ele><time>2026-05-01T08:38:01.248Z</time></trkpt><trkpt lat="39.5572312" lon="8.5700644"><ele>376.0</ele><time>2026-05-01T08:38:02.247Z</time></trkpt><trkpt lat="39.5572132" lon="8.570149"><ele>376.0</ele><time>2026-05-01T08:38:03.247Z</time></trkpt><trkpt lat="39.5571862" lon="8.5702523"><ele>376.0</ele><time>2026-05-01T08:38:05.247Z</time></trkpt><trkpt lat="39.5571202" lon="8.5703197"><ele>376.0</ele><time>2026-05-01T08:38:12.246Z</time></trkpt><trkpt lat="39.5570591" lon="8.5702825"><ele>376.0</ele><time>2026-05-01T08:38:14.247Z</time></trkpt><trkpt lat="39.5570227" lon="8.5702099"><ele>376.0</ele><time>2026-05-01T08:38:16.245Z</time></trkpt><trkpt lat="39.5569692" lon="8.5701413"><ele>376.0</ele><time>2026-05-01T08:38:19.246Z</time></trkpt><trkpt lat="39.5568906" lon="8.5700854"><ele>376.0</ele><time>2026-05-01T08:38:22.246Z</time></trkpt><trkpt lat="39.5568229" lon="8.5700181"><ele>376.0</ele><time>2026-05-01T08:38:25.245Z</time></trkpt><trkpt lat="39.5568693" lon="8.5700798"><ele>376.0</ele><time>2026-05-01T08:40:08.246Z</time></trkpt><trkpt lat="39.5569343" lon="8.5701139"><ele>376.0</ele><time>2026-05-01T08:41:07.247Z</time></trkpt><trkpt lat="39.5569951" lon="8.5701369"><ele>376.0</ele><time>2026-05-01T08:41:13.247Z</time></trkpt><trkpt lat="39.5570532" lon="8.5700918"><ele>376.0</ele><time>2026-05-01T08:41:19.245Z</time></trkpt><trkpt lat="39.5570081" lon="8.5700309"><ele>376.0</ele><time>2026-05-01T08:48:26.245Z</time></trkpt><trkpt lat="39.5569395" lon="8.5700146"><ele>376.0</ele><time>2026-05-01T08:49:03.245Z</time></trkpt><trkpt lat="39.5568789" lon="8.5700519"><ele>376.0</ele><time>2026-05-01T08:49:11.245Z</time></trkpt><trkpt lat="39.5567959" lon="8.569961"><ele>375.5</ele><time>2026-05-01T08:51:36.245Z</time></trkpt><trkpt lat="39.5567471" lon="8.5698989"><ele>375.0</ele><time>2026-05-01T08:51:39.243Z</time></trkpt><trkpt lat="39.5567018" lon="8.5697928"><ele>374.5</ele><time>2026-05-01T08:51:46.245Z</time></trkpt><trkpt lat="39.5566704" lon="8.5697218"><ele>374.0</ele><time>2026-05-01T08:51:47.244Z</time></trkpt><trkpt lat="39.5566252" lon="8.5696348"><ele>373.5</ele><time>2026-05-01T08:51:48.244Z</time></trkpt><trkpt lat="39.5565746" lon="8.5695452"><ele>373.0</ele><time>2026-05-01T08:51:49.243Z</time></trkpt><trkpt lat="39.556534" lon="8.5694655"><ele>372.5</ele><time>2026-05-01T08:51:50.244Z</time></trkpt><trkpt lat="39.5564923" lon="8.5693864"><ele>372.0</ele><time>2026-05-01T08:51:51.245Z</time></trkpt><trkpt lat="39.5564462" lon="8.5693069"><ele>371.5</ele><time>2026-05-01T08:51:52.244Z</time></trkpt><trkpt lat="39.5564009" lon="8.5692231"><ele>371.0</ele><time>2026-05-01T08:51:53.245Z</time></trkpt><trkpt lat="39.55636" lon="8.5691294"><ele>370.5</ele><time>2026-05-01T08:51:54.244Z</time></trkpt><trkpt lat="39.5563146" lon="8.5690304"><ele>370.0</ele><time>2026-05-01T08:51:55.244Z</time></trkpt><trkpt lat="39.5562712" lon="8.5689284"><ele>370.0</ele><time>2026-05-01T08:51:56.243Z</time></trkpt><trkpt lat="39.5562237" lon="8.5688574"><ele>370.0</ele><time>2026-05-01T08:51:57.244Z</time></trkpt><trkpt lat="39.5561332" lon="8.5687858"><ele>370.0</ele><time>2026-05-01T08:51:59.244Z</time></trkpt><trkpt lat="39.5560498" lon="8.5687606"><ele>370.0</ele><time>2026-05-01T08:52:01.245Z</time></trkpt><trkpt lat="39.555971" lon="8.5687497"><ele>370.0</ele><time>2026-05-01T08:52:04.244Z</time></trkpt><trkpt lat="39.5559284" lon="8.5688317"><ele>370.0</ele><time>2026-05-01T08:52:13.244Z</time></trkpt><trkpt lat="39.5560081" lon="8.5688395"><ele>370.0</ele><time>2026-05-01T08:52:16.244Z</time></trkpt><trkpt lat="39.5560654" lon="8.5688042"><ele>370.0</ele><time>2026-05-01T08:52:17.245Z</time></trkpt><trkpt lat="39.5561279" lon="8.5688152"><ele>370.0</ele><time>2026-05-01T08:52:18.244Z</time></trkpt><trkpt lat="39.5561891" lon="8.5688571"><ele>370.0</ele><time>2026-05-01T08:52:19.245Z</time></trkpt><trkpt lat="39.5562469" lon="8.5689256"><ele>370.0</ele><time>2026-05-01T08:52:20.243Z</time></trkpt><trkpt lat="39.556298" lon="8.5690166"><ele>370.0</ele><time>2026-05-01T08:52:21.244Z</time></trkpt><trkpt lat="39.55635" lon="8.5691203"><ele>370.0</ele><time>2026-05-01T08:52:22.244Z</time></trkpt><trkpt lat="39.5564021" lon="8.5692323"><ele>370.0</ele><time>2026-05-01T08:52:23.243Z</time></trkpt><trkpt lat="39.5564513" lon="8.56933"><ele>370.0</ele><time>2026-05-01T08:52:24.244Z</time></trkpt><trkpt lat="39.5565035" lon="8.5694227"><ele>370.0</ele><time>2026-05-01T08:52:25.245Z</time></trkpt><trkpt lat="39.5565496" lon="8.5695119"><ele>370.0</ele><time>2026-05-01T08:52:26.243Z</time></trkpt><trkpt lat="39.5565967" lon="8.5695915"><ele>370.0</ele><time>2026-05-01T08:52:27.245Z</time></trkpt><trkpt lat="39.5566549" lon="8.5697181"><ele>370.5</ele><time>2026-05-01T08:52:29.243Z</time></trkpt><trkpt lat="39.5566856" lon="8.5698234"><ele>371.0</ele><time>2026-05-01T08:52:31.244Z</time></trkpt><trkpt lat="39.5566982" lon="8.569928"><ele>371.5</ele><time>2026-05-01T08:52:34.243Z</time></trkpt><trkpt lat="39.5566973" lon="8.5700124"><ele>372.0</ele><time>2026-05-01T08:52:37.244Z</time></trkpt><trkpt lat="39.5567005" lon="8.5701032"><ele>372.5</ele><time>2026-05-01T08:52:40.245Z</time></trkpt><trkpt lat="39.5567001" lon="8.5701961"><ele>373.0</ele><time>2026-05-01T08:52:49.244Z</time></trkpt><trkpt lat="39.5566994" lon="8.5702951"><ele>372.8333333333333</ele><time>2026-05-01T08:52:53.245Z</time></trkpt><trkpt lat="39.5567208" lon="8.5703795"><ele>372.66666666666663</ele><time>2026-05-01T08:52:57.244Z</time></trkpt><trkpt lat="39.5567916" lon="8.5703899"><ele>372.5</ele><time>2026-05-01T08:53:03.244Z</time></trkpt><trkpt lat="39.5568848" lon="8.5703903"><ele>372.3333333333333</ele><time>2026-05-01T08:53:06.245Z</time></trkpt><trkpt lat="39.5569631" lon="8.5703778"><ele>372.1666666666667</ele><time>2026-05-01T08:53:09.244Z</time></trkpt><trkpt lat="39.5570261" lon="8.5703712"><ele>372.0</ele><time>2026-05-01T08:53:14.243Z</time></trkpt><trkpt lat="39.5571012" lon="8.5703809"><ele>371.5</ele><time>2026-05-01T08:53:54.245Z</time></trkpt><trkpt lat="39.5571375" lon="8.5704544"><ele>371.0</ele><time>2026-05-01T08:53:56.245Z</time></trkpt><trkpt lat="39.557133" lon="8.5705618"><ele>370.5</ele><time>2026-05-01T08:53:58.244Z</time></trkpt><trkpt lat="39.5571313" lon="8.5706999"><ele>370.0</ele><time>2026-05-01T08:54:00.245Z</time></trkpt><trkpt lat="39.5571341" lon="8.5707817"><ele>369.5</ele><time>2026-05-01T08:54:01.244Z</time></trkpt><trkpt lat="39.5571389" lon="8.5708751"><ele>369.0</ele><time>2026-05-01T08:54:02.245Z</time></trkpt><trkpt lat="39.5571382" lon="8.5709775"><ele>369.0</ele><time>2026-05-01T08:54:03.245Z</time></trkpt><trkpt lat="39.5571305" lon="8.5710769"><ele>369.0</ele><time>2026-05-01T08:54:04.243Z</time></trkpt><trkpt lat="39.5571043" lon="8.5711652"><ele>369.0</ele><time>2026-05-01T08:54:05.243Z</time></trkpt><trkpt lat="39.5570715" lon="8.5712656"><ele>369.0</ele><time>2026-05-01T08:54:06.245Z</time></trkpt><trkpt lat="39.5569993" lon="8.5713274"><ele>369.0</ele><time>2026-05-01T08:54:07.245Z</time></trkpt><trkpt lat="39.5569214" lon="8.5713654"><ele>369.0</ele><time>2026-05-01T08:54:08.244Z</time></trkpt><trkpt lat="39.5568374" lon="8.5713463"><ele>369.5</ele><time>2026-05-01T08:54:09.244Z</time></trkpt><trkpt lat="39.5567681" lon="8.5713118"><ele>370.0</ele><time>2026-05-01T08:54:10.244Z</time></trkpt><trkpt lat="39.5567035" lon="8.5712538"><ele>370.5</ele><time>2026-05-01T08:54:11.244Z</time></trkpt><trkpt lat="39.556633" lon="8.5712021"><ele>371.0</ele><time>2026-05-01T08:54:12.244Z</time></trkpt><trkpt lat="39.5565562" lon="8.5711807"><ele>371.5</ele><time>2026-05-01T08:54:13.243Z</time></trkpt><trkpt lat="39.5564748" lon="8.5711923"><ele>372.0</ele><time>2026-05-01T08:54:14.244Z</time></trkpt><trkpt lat="39.5563947" lon="8.5712304"><ele>372.1666666666667</ele><time>2026-05-01T08:54:15.244Z</time></trkpt><trkpt lat="39.5563235" lon="8.5713058"><ele>372.3333333333333</ele><time>2026-05-01T08:54:16.244Z</time></trkpt><trkpt lat="39.556276" lon="8.5713809"><ele>372.5</ele><time>2026-05-01T08:54:17.243Z</time></trkpt><trkpt lat="39.556226" lon="8.5714671"><ele>372.66666666666663</ele><time>2026-05-01T08:54:18.244Z</time></trkpt><trkpt lat="39.556188" lon="8.5715457"><ele>372.8333333333333</ele><time>2026-05-01T08:54:19.244Z</time></trkpt><trkpt lat="39.5561368" lon="8.5716819"><ele>373.0</ele><time>2026-05-01T08:54:21.244Z</time></trkpt><trkpt lat="39.5561126" lon="8.5717753"><ele>373.0</ele><time>2026-05-01T08:54:22.244Z</time></trkpt><trkpt lat="39.5560861" lon="8.5718874"><ele>373.0</ele><time>2026-05-01T08:54:23.245Z</time></trkpt><trkpt lat="39.5560795" lon="8.5720141"><ele>373.0</ele><time>2026-05-01T08:54:24.244Z</time></trkpt><trkpt lat="39.556069" lon="8.5721329"><ele>373.0</ele><time>2026-05-01T08:54:25.245Z</time></trkpt><trkpt lat="39.5560556" lon="8.5722564"><ele>373.0</ele><time>2026-05-01T08:54:26.244Z</time></trkpt><trkpt lat="39.5560418" lon="8.5723834"><ele>372.0</ele><time>2026-05-01T08:54:27.244Z</time></trkpt><trkpt lat="39.5560264" lon="8.5725147"><ele>371.0</ele><time>2026-05-01T08:54:28.244Z</time></trkpt><trkpt lat="39.5560093" lon="8.5726512"><ele>370.0</ele><time>2026-05-01T08:54:29.245Z</time></trkpt><trkpt lat="39.5559945" lon="8.572792"><ele>369.0</ele><time>2026-05-01T08:54:30.244Z</time></trkpt><trkpt lat="39.5559786" lon="8.5729337"><ele>368.0</ele><time>2026-05-01T08:54:31.245Z</time></trkpt><trkpt lat="39.5559472" lon="8.573077"><ele>366.5</ele><time>2026-05-01T08:54:32.244Z</time></trkpt><trkpt lat="39.5558964" lon="8.5732181"><ele>365.0</ele><time>2026-05-01T08:54:33.244Z</time></trkpt><trkpt lat="39.5558413" lon="8.5733522"><ele>363.5</ele><time>2026-05-01T08:54:34.245Z</time></trkpt><trkpt lat="39.5557766" lon="8.5734821"><ele>362.0</ele><time>2026-05-01T08:54:35.245Z</time></trkpt><trkpt lat="39.5557092" lon="8.5736036"><ele>360.40000000000003</ele><time>2026-05-01T08:54:36.244Z</time></trkpt><trkpt lat="39.5556498" lon="8.5737188"><ele>358.8</ele><time>2026-05-01T08:54:37.244Z</time></trkpt><trkpt lat="39.5556002" lon="8.5738297"><ele>357.2</ele><time>2026-05-01T08:54:38.245Z</time></trkpt><trkpt lat="39.5555624" lon="8.5739378"><ele>355.6</ele><time>2026-05-01T08:54:39.245Z</time></trkpt><trkpt lat="39.5555367" lon="8.5740514"><ele>354.0</ele><time>2026-05-01T08:54:40.245Z</time></trkpt><trkpt lat="39.5555223" lon="8.5741712"><ele>354.0</ele><time>2026-05-01T08:54:41.245Z</time></trkpt><trkpt lat="39.555511" lon="8.5742922"><ele>354.0</ele><time>2026-05-01T08:54:42.244Z</time></trkpt><trkpt lat="39.5554914" lon="8.574422"><ele>354.0</ele><time>2026-05-01T08:54:43.244Z</time></trkpt><trkpt lat="39.5554556" lon="8.5745493"><ele>354.0</ele><time>2026-05-01T08:54:44.245Z</time></trkpt><trkpt lat="39.555399" lon="8.5746654"><ele>354.0</ele><time>2026-05-01T08:54:45.244Z</time></trkpt><trkpt lat="39.555324" lon="8.5747653"><ele>354.1666666666667</ele><time>2026-05-01T08:54:46.245Z</time></trkpt><trkpt lat="39.5552492" lon="8.5748431"><ele>354.3333333333333</ele><time>2026-05-01T08:54:47.244Z</time></trkpt><trkpt lat="39.5551701" lon="8.5748841"><ele>354.5</ele><time>2026-05-01T08:54:48.244Z</time></trkpt><trkpt lat="39.5550861" lon="8.5748942"><ele>354.66666666666663</ele><time>2026-05-01T08:54:49.244Z</time></trkpt><trkpt lat="39.5550036" lon="8.5748699"><ele>354.8333333333333</ele><time>2026-05-01T08:54:50.244Z</time></trkpt><trkpt lat="39.554916" lon="8.574824"><ele>355.0</ele><time>2026-05-01T08:54:51.243Z</time></trkpt><trkpt lat="39.5548199" lon="8.574784"><ele>355.0</ele><time>2026-05-01T08:54:52.244Z</time></trkpt><trkpt lat="39.5547073" lon="8.5747587"><ele>355.0</ele><time>2026-05-01T08:54:53.245Z</time></trkpt><trkpt lat="39.5545839" lon="8.5747623"><ele>355.0</ele><time>2026-05-01T08:54:54.243Z</time></trkpt><trkpt lat="39.5544644" lon="8.574801"><ele>355.0</ele><time>2026-05-01T08:54:55.244Z</time></trkpt><trkpt lat="39.5543616" lon="8.574874"><ele>357.0</ele><time>2026-05-01T08:54:56.245Z</time></trkpt><trkpt lat="39.554271" lon="8.5749726"><ele>359.0</ele><time>2026-05-01T08:54:57.244Z</time></trkpt><trkpt lat="39.5541893" lon="8.5750717"><ele>361.0</ele><time>2026-05-01T08:54:58.243Z</time></trkpt><trkpt lat="39.5541076" lon="8.5751604"><ele>363.0</ele><time>2026-05-01T08:54:59.244Z</time></trkpt><trkpt lat="39.5540245" lon="8.5752133"><ele>365.0</ele><time>2026-05-01T08:55:00.244Z</time></trkpt><trkpt lat="39.5539399" lon="8.5752275"><ele>365.0</ele><time>2026-05-01T08:55:01.243Z</time></trkpt><trkpt lat="39.5538608" lon="8.5752085"><ele>365.0</ele><time>2026-05-01T08:55:02.244Z</time></trkpt><trkpt lat="39.5537807" lon="8.5751622"><ele>365.0</ele><time>2026-05-01T08:55:03.245Z</time></trkpt><trkpt lat="39.5536939" lon="8.5751015"><ele>365.0</ele><time>2026-05-01T08:55:04.245Z</time></trkpt><trkpt lat="39.5535935" lon="8.5750395"><ele>365.0</ele><time>2026-05-01T08:55:05.244Z</time></trkpt><trkpt lat="39.5534906" lon="8.5749912"><ele>366.0</ele><time>2026-05-01T08:55:06.244Z</time></trkpt><trkpt lat="39.5533869" lon="8.5749667"><ele>367.0</ele><time>2026-05-01T08:55:07.245Z</time></trkpt><trkpt lat="39.5532843" lon="8.5749686"><ele>368.0</ele><time>2026-05-01T08:55:08.244Z</time></trkpt><trkpt lat="39.5531865" lon="8.5749978"><ele>369.0</ele><time>2026-05-01T08:55:09.244Z</time></trkpt><trkpt lat="39.5530968" lon="8.5750476"><ele>370.0</ele><time>2026-05-01T08:55:10.244Z</time></trkpt><trkpt lat="39.5530163" lon="8.5751087"><ele>370.0</ele><time>2026-05-01T08:55:11.244Z</time></trkpt><trkpt lat="39.5529445" lon="8.5751718"><ele>370.0</ele><time>2026-05-01T08:55:12.244Z</time></trkpt><trkpt lat="39.5528879" lon="8.5752447"><ele>370.0</ele><time>2026-05-01T08:55:13.244Z</time></trkpt><trkpt lat="39.5528483" lon="8.5753305"><ele>370.0</ele><time>2026-05-01T08:55:14.243Z</time></trkpt><trkpt lat="39.5528256" lon="8.575425"><ele>370.0</ele><time>2026-05-01T08:55:15.244Z</time></trkpt><trkpt lat="39.5528211" lon="8.5755255"><ele>370.0</ele><time>2026-05-01T08:55:16.244Z</time></trkpt><trkpt lat="39.5528334" lon="8.5756276"><ele>373.8</ele><time>2026-05-01T08:55:17.244Z</time></trkpt><trkpt lat="39.5528576" lon="8.5757351"><ele>377.6</ele><time>2026-05-01T08:55:18.244Z</time></trkpt><trkpt lat="39.5528868" lon="8.575858"><ele>381.4</ele><time>2026-05-01T08:55:19.245Z</time></trkpt><trkpt lat="39.5529153" lon="8.5759933"><ele>385.2</ele><time>2026-05-01T08:55:20.244Z</time></trkpt><trkpt lat="39.5529511" lon="8.5761462"><ele>389.0</ele><time>2026-05-01T08:55:21.245Z</time></trkpt><trkpt lat="39.5529923" lon="8.5763306"><ele>376.3333333333333</ele><time>2026-05-01T08:55:22.244Z</time></trkpt><trkpt lat="39.553042" lon="8.5765452"><ele>363.66666666666663</ele><time>2026-05-01T08:55:23.244Z</time></trkpt><trkpt lat="39.5530768" lon="8.5767458"><ele>351.0</ele><time>2026-05-01T08:55:24.244Z</time></trkpt><trkpt lat="39.5531018" lon="8.5769249"><ele>351.8</ele><time>2026-05-01T08:55:25.244Z</time></trkpt><trkpt lat="39.5531187" lon="8.5770809"><ele>352.6</ele><time>2026-05-01T08:55:26.244Z</time></trkpt><trkpt lat="39.5531271" lon="8.5772203"><ele>353.4</ele><time>2026-05-01T08:55:27.244Z</time></trkpt><trkpt lat="39.5531238" lon="8.5773468"><ele>354.2</ele><time>2026-05-01T08:55:28.245Z</time></trkpt><trkpt lat="39.5531028" lon="8.5774619"><ele>355.0</ele><time>2026-05-01T08:55:29.245Z</time></trkpt><trkpt lat="39.5530588" lon="8.5775596"><ele>355.0</ele><time>2026-05-01T08:55:30.244Z</time></trkpt><trkpt lat="39.5529923" lon="8.5776375"><ele>355.0</ele><time>2026-05-01T08:55:31.244Z</time></trkpt><trkpt lat="39.5529046" lon="8.5776993"><ele>355.0</ele><time>2026-05-01T08:55:32.244Z</time></trkpt><trkpt lat="39.5527959" lon="8.5777462"><ele>355.0</ele><time>2026-05-01T08:55:33.244Z</time></trkpt><trkpt lat="39.5526692" lon="8.5777829"><ele>355.0</ele><time>2026-05-01T08:55:34.244Z</time></trkpt><trkpt lat="39.5525276" lon="8.5778154"><ele>356.0</ele><time>2026-05-01T08:55:35.244Z</time></trkpt><trkpt lat="39.55238" lon="8.5778464"><ele>357.0</ele><time>2026-05-01T08:55:36.243Z</time></trkpt><trkpt lat="39.5522432" lon="8.5778746"><ele>358.0</ele><time>2026-05-01T08:55:37.245Z</time></trkpt><trkpt lat="39.5521176" lon="8.5779091"><ele>359.0</ele><time>2026-05-01T08:55:38.245Z</time></trkpt><trkpt lat="39.5520121" lon="8.5779727"><ele>364.4</ele><time>2026-05-01T08:55:39.243Z</time></trkpt><trkpt lat="39.5519234" lon="8.5780534"><ele>369.79999999999995</ele><time>2026-05-01T08:55:40.244Z</time></trkpt><trkpt lat="39.5518623" lon="8.5781502"><ele>375.20000000000005</ele><time>2026-05-01T08:55:41.244Z</time></trkpt><trkpt lat="39.5518364" lon="8.5782595"><ele>380.6</ele><time>2026-05-01T08:55:42.245Z</time></trkpt><trkpt lat="39.5518481" lon="8.5783682"><ele>386.0</ele><time>2026-05-01T08:55:43.244Z</time></trkpt><trkpt lat="39.5518856" lon="8.5784875"><ele>386.0</ele><time>2026-05-01T08:55:44.243Z</time></trkpt><trkpt lat="39.5519458" lon="8.5786188"><ele>386.0</ele><time>2026-05-01T08:55:45.244Z</time></trkpt><trkpt lat="39.552019" lon="8.5787648"><ele>386.0</ele><time>2026-05-01T08:55:46.245Z</time></trkpt><trkpt lat="39.5521031" lon="8.5789234"><ele>386.0</ele><time>2026-05-01T08:55:47.245Z</time></trkpt><trkpt lat="39.5522018" lon="8.5790816"><ele>379.66666666666663</ele><time>2026-05-01T08:55:48.244Z</time></trkpt><trkpt lat="39.552303" lon="8.5792215"><ele>373.3333333333333</ele><time>2026-05-01T08:55:49.245Z</time></trkpt><trkpt lat="39.5524132" lon="8.5793551"><ele>367.0</ele><time>2026-05-01T08:55:50.245Z</time></trkpt><trkpt lat="39.5525316" lon="8.5794911"><ele>364.3333333333333</ele><time>2026-05-01T08:55:51.244Z</time></trkpt><trkpt lat="39.5526557" lon="8.5796314"><ele>361.6666666666667</ele><time>2026-05-01T08:55:52.245Z</time></trkpt><trkpt lat="39.5527761" lon="8.5797777"><ele>359.0</ele><time>2026-05-01T08:55:53.244Z</time></trkpt><trkpt lat="39.5528791" lon="8.5799242"><ele>359.0</ele><time>2026-05-01T08:55:54.245Z</time></trkpt><trkpt lat="39.5529533" lon="8.5800715"><ele>359.0</ele><time>2026-05-01T08:55:55.244Z</time></trkpt><trkpt lat="39.5529957" lon="8.5802236"><ele>359.0</ele><time>2026-05-01T08:55:56.245Z</time></trkpt><trkpt lat="39.5530079" lon="8.5803819"><ele>359.0</ele><time>2026-05-01T08:55:57.244Z</time></trkpt><trkpt lat="39.5529916" lon="8.5805442"><ele>359.75</ele><time>2026-05-01T08:55:58.243Z</time></trkpt><trkpt lat="39.5529595" lon="8.5807132"><ele>360.5</ele><time>2026-05-01T08:55:59.243Z</time></trkpt><trkpt lat="39.5529224" lon="8.580888"><ele>361.25</ele><time>2026-05-01T08:56:00.244Z</time></trkpt><trkpt lat="39.5528906" lon="8.5810588"><ele>362.0</ele><time>2026-05-01T08:56:01.243Z</time></trkpt><trkpt lat="39.5528624" lon="8.5812337"><ele>362.25</ele><time>2026-05-01T08:56:02.242Z</time></trkpt><trkpt lat="39.5528461" lon="8.5814104"><ele>362.5</ele><time>2026-05-01T08:56:03.244Z</time></trkpt><trkpt lat="39.5528481" lon="8.5815914"><ele>362.75</ele><time>2026-05-01T08:56:04.244Z</time></trkpt><trkpt lat="39.5528664" lon="8.5817749"><ele>363.0</ele><time>2026-05-01T08:56:05.243Z</time></trkpt><trkpt lat="39.5528981" lon="8.5819676"><ele>364.0</ele><time>2026-05-01T08:56:06.243Z</time></trkpt><trkpt lat="39.5529317" lon="8.5821477"><ele>365.0</ele><time>2026-05-01T08:56:07.243Z</time></trkpt><trkpt lat="39.5529622" lon="8.5823161"><ele>366.0</ele><time>2026-05-01T08:56:08.243Z</time></trkpt><trkpt lat="39.5529825" lon="8.5824654"><ele>367.0</ele><time>2026-05-01T08:56:09.244Z</time></trkpt><trkpt lat="39.5529826" lon="8.5826038"><ele>367.0</ele><time>2026-05-01T08:56:10.244Z</time></trkpt><trkpt lat="39.5529586" lon="8.5827234"><ele>367.0</ele><time>2026-05-01T08:56:11.244Z</time></trkpt><trkpt lat="39.5529089" lon="8.5828242"><ele>367.0</ele><time>2026-05-01T08:56:12.243Z</time></trkpt><trkpt lat="39.5528304" lon="8.5829029"><ele>367.0</ele><time>2026-05-01T08:56:13.244Z</time></trkpt><trkpt lat="39.5527317" lon="8.5829577"><ele>367.0</ele><time>2026-05-01T08:56:14.242Z</time></trkpt><trkpt lat="39.5526171" lon="8.582998"><ele>367.75</ele><time>2026-05-01T08:56:15.242Z</time></trkpt><trkpt lat="39.5524891" lon="8.5830385"><ele>368.5</ele><time>2026-05-01T08:56:16.244Z</time></trkpt><trkpt lat="39.5523682" lon="8.583084"><ele>369.25</ele><time>2026-05-01T08:56:17.244Z</time></trkpt><trkpt lat="39.5522575" lon="8.5831123"><ele>370.0</ele><time>2026-05-01T08:56:18.243Z</time></trkpt><trkpt lat="39.5521426" lon="8.5831185"><ele>372.0</ele><time>2026-05-01T08:56:19.244Z</time></trkpt><trkpt lat="39.5520254" lon="8.5830962"><ele>374.0</ele><time>2026-05-01T08:56:20.243Z</time></trkpt><trkpt lat="39.5519044" lon="8.5830644"><ele>376.0</ele><time>2026-05-01T08:56:21.244Z</time></trkpt><trkpt lat="39.5517763" lon="8.58305"><ele>378.0</ele><time>2026-05-01T08:56:22.244Z</time></trkpt><trkpt lat="39.5516462" lon="8.5830574"><ele>378.0</ele><time>2026-05-01T08:56:23.243Z</time></trkpt><trkpt lat="39.5515129" lon="8.5830684"><ele>378.0</ele><time>2026-05-01T08:56:24.243Z</time></trkpt><trkpt lat="39.5513789" lon="8.5830766"><ele>378.0</ele><time>2026-05-01T08:56:25.244Z</time></trkpt><trkpt lat="39.5512426" lon="8.58307"><ele>378.0</ele><time>2026-05-01T08:56:26.243Z</time></trkpt><trkpt lat="39.5511033" lon="8.5830548"><ele>380.75</ele><time>2026-05-01T08:56:27.243Z</time></trkpt><trkpt lat="39.5509698" lon="8.5830343"><ele>383.5</ele><time>2026-05-01T08:56:28.243Z</time></trkpt><trkpt lat="39.5508476" lon="8.5830189"><ele>386.25</ele><time>2026-05-01T08:56:29.243Z</time></trkpt><trkpt lat="39.5507431" lon="8.583031"><ele>389.0</ele><time>2026-05-01T08:56:30.243Z</time></trkpt><trkpt lat="39.5506508" lon="8.5830801"><ele>389.0</ele><time>2026-05-01T08:56:31.244Z</time></trkpt><trkpt lat="39.5505828" lon="8.583173"><ele>389.0</ele><time>2026-05-01T08:56:32.244Z</time></trkpt><trkpt lat="39.5505431" lon="8.5832987"><ele>389.0</ele><time>2026-05-01T08:56:33.243Z</time></trkpt><trkpt lat="39.5505347" lon="8.5834433"><ele>389.0</ele><time>2026-05-01T08:56:34.243Z</time></trkpt><trkpt lat="39.5505569" lon="8.5835965"><ele>389.0</ele><time>2026-05-01T08:56:35.244Z</time></trkpt><trkpt lat="39.5506019" lon="8.5837508"><ele>391.0</ele><time>2026-05-01T08:56:36.244Z</time></trkpt><trkpt lat="39.5506729" lon="8.5838895"><ele>393.0</ele><time>2026-05-01T08:56:37.244Z</time></trkpt><trkpt lat="39.5507679" lon="8.5840004"><ele>395.0</ele><time>2026-05-01T08:56:38.243Z</time></trkpt><trkpt lat="39.5508614" lon="8.5840921"><ele>397.0</ele><time>2026-05-01T08:56:39.243Z</time></trkpt><trkpt lat="39.5509467" lon="8.5841849"><ele>397.0</ele><time>2026-05-01T08:56:40.242Z</time></trkpt><trkpt lat="39.5510225" lon="8.5842912"><ele>397.0</ele><time>2026-05-01T08:56:41.243Z</time></trkpt><trkpt lat="39.5510882" lon="8.584407"><ele>397.0</ele><time>2026-05-01T08:56:42.244Z</time></trkpt><trkpt lat="39.5511466" lon="8.584526"><ele>397.0</ele><time>2026-05-01T08:56:43.243Z</time></trkpt><trkpt lat="39.5511959" lon="8.584649"><ele>397.0</ele><time>2026-05-01T08:56:44.244Z</time></trkpt><trkpt lat="39.5512359" lon="8.5847769"><ele>393.00000000000006</ele><time>2026-05-01T08:56:45.243Z</time></trkpt><trkpt lat="39.5512643" lon="8.584903"><ele>389.0</ele><time>2026-05-01T08:56:46.243Z</time></trkpt><trkpt lat="39.5512835" lon="8.5850228"><ele>385.0</ele><time>2026-05-01T08:56:47.243Z</time></trkpt><trkpt lat="39.5512943" lon="8.585136"><ele>381.0</ele><time>2026-05-01T08:56:48.243Z</time></trkpt><trkpt lat="39.5512975" lon="8.585245"><ele>377.0</ele><time>2026-05-01T08:56:49.244Z</time></trkpt><trkpt lat="39.5512969" lon="8.5853474"><ele>373.0</ele><time>2026-05-01T08:56:50.243Z</time></trkpt><trkpt lat="39.5512945" lon="8.5854427"><ele>372.8571428571429</ele><time>2026-05-01T08:56:51.244Z</time></trkpt><trkpt lat="39.5512902" lon="8.5855301"><ele>372.7142857142857</ele><time>2026-05-01T08:56:52.243Z</time></trkpt><trkpt lat="39.5512834" lon="8.585613"><ele>372.57142857142856</ele><time>2026-05-01T08:56:53.243Z</time></trkpt><trkpt lat="39.5512757" lon="8.5857006"><ele>372.42857142857144</ele><time>2026-05-01T08:56:54.242Z</time></trkpt><trkpt lat="39.5512661" lon="8.5857938"><ele>372.2857142857143</ele><time>2026-05-01T08:56:55.244Z</time></trkpt><trkpt lat="39.5512537" lon="8.585895"><ele>372.14285714285717</ele><time>2026-05-01T08:56:56.243Z</time></trkpt><trkpt lat="39.5512361" lon="8.5859977"><ele>372.0</ele><time>2026-05-01T08:56:57.243Z</time></trkpt><trkpt lat="39.5512205" lon="8.5861076"><ele>377.3333333333333</ele><time>2026-05-01T08:56:58.244Z</time></trkpt><trkpt lat="39.5512032" lon="8.5862202"><ele>382.66666666666663</ele><time>2026-05-01T08:56:59.243Z</time></trkpt><trkpt lat="39.5511814" lon="8.5863271"><ele>388.0</ele><time>2026-05-01T08:57:00.242Z</time></trkpt><trkpt lat="39.5511545" lon="8.5864209"><ele>393.3333333333333</ele><time>2026-05-01T08:57:01.243Z</time></trkpt><trkpt lat="39.5511225" lon="8.5865079"><ele>398.66666666666663</ele><time>2026-05-01T08:57:02.243Z</time></trkpt><trkpt lat="39.5510793" lon="8.5865879"><ele>404.0</ele><time>2026-05-01T08:57:03.244Z</time></trkpt><trkpt lat="39.5510252" lon="8.5866603"><ele>403.99999999999994</ele><time>2026-05-01T08:57:04.243Z</time></trkpt><trkpt lat="39.5509681" lon="8.5867303"><ele>404.0</ele><time>2026-05-01T08:57:05.243Z</time></trkpt><trkpt lat="39.5509102" lon="8.5867973"><ele>404.0</ele><time>2026-05-01T08:57:06.242Z</time></trkpt><trkpt lat="39.5508574" lon="8.586876"><ele>404.0</ele><time>2026-05-01T08:57:07.242Z</time></trkpt><trkpt lat="39.5508168" lon="8.5869735"><ele>403.99999999999994</ele><time>2026-05-01T08:57:08.242Z</time></trkpt><trkpt lat="39.550808" lon="8.5870861"><ele>404.0</ele><time>2026-05-01T08:57:09.244Z</time></trkpt><trkpt lat="39.5508295" lon="8.5871999"><ele>405.2</ele><time>2026-05-01T08:57:10.243Z</time></trkpt><trkpt lat="39.550879" lon="8.5873025"><ele>406.4</ele><time>2026-05-01T08:57:11.244Z</time></trkpt><trkpt lat="39.5509436" lon="8.5873878"><ele>407.6</ele><time>2026-05-01T08:57:12.242Z</time></trkpt><trkpt lat="39.5510174" lon="8.5874654"><ele>408.8</ele><time>2026-05-01T08:57:13.243Z</time></trkpt><trkpt lat="39.5510923" lon="8.5875362"><ele>410.0</ele><time>2026-05-01T08:57:14.244Z</time></trkpt><trkpt lat="39.5511631" lon="8.587604"><ele>405.7142857142857</ele><time>2026-05-01T08:57:15.244Z</time></trkpt><trkpt lat="39.5512267" lon="8.5876671"><ele>401.4285714285714</ele><time>2026-05-01T08:57:16.244Z</time></trkpt><trkpt lat="39.5512861" lon="8.5877245"><ele>397.1428571428571</ele><time>2026-05-01T08:57:17.243Z</time></trkpt><trkpt lat="39.5513417" lon="8.5877786"><ele>392.8571428571429</ele><time>2026-05-01T08:57:18.243Z</time></trkpt><trkpt lat="39.5513984" lon="8.5878381"><ele>388.57142857142856</ele><time>2026-05-01T08:57:19.243Z</time></trkpt><trkpt lat="39.5514463" lon="8.5879013"><ele>384.2857142857143</ele><time>2026-05-01T08:57:20.243Z</time></trkpt><trkpt lat="39.5514917" lon="8.5879777"><ele>380.0</ele><time>2026-05-01T08:57:21.243Z</time></trkpt><trkpt lat="39.5515252" lon="8.5880714"><ele>380.0</ele><time>2026-05-01T08:57:22.242Z</time></trkpt><trkpt lat="39.5515429" lon="8.5881779"><ele>380.0</ele><time>2026-05-01T08:57:23.242Z</time></trkpt><trkpt lat="39.551547" lon="8.5882934"><ele>380.0</ele><time>2026-05-01T08:57:24.244Z</time></trkpt><trkpt lat="39.551536" lon="8.5884139"><ele>380.0</ele><time>2026-05-01T08:57:25.243Z</time></trkpt><trkpt lat="39.5515144" lon="8.5885365"><ele>380.0</ele><time>2026-05-01T08:57:26.243Z</time></trkpt><trkpt lat="39.5514766" lon="8.5886508"><ele>381.2</ele><time>2026-05-01T08:57:27.242Z</time></trkpt><trkpt lat="39.551421" lon="8.5887427"><ele>382.4</ele><time>2026-05-01T08:57:28.242Z</time></trkpt><trkpt lat="39.5513455" lon="8.5888222"><ele>383.6</ele><time>2026-05-01T08:57:29.243Z</time></trkpt><trkpt lat="39.5512531" lon="8.5888868"><ele>384.8</ele><time>2026-05-01T08:57:30.243Z</time></trkpt><trkpt lat="39.5511474" lon="8.5889378"><ele>386.0</ele><time>2026-05-01T08:57:31.244Z</time></trkpt><trkpt lat="39.5510328" lon="8.5889664"><ele>386.0</ele><time>2026-05-01T08:57:32.244Z</time></trkpt><trkpt lat="39.5509106" lon="8.588984"><ele>386.0</ele><time>2026-05-01T08:57:33.243Z</time></trkpt><trkpt lat="39.5507853" lon="8.5889908"><ele>386.0</ele><time>2026-05-01T08:57:34.243Z</time></trkpt><trkpt lat="39.550654" lon="8.5889986"><ele>386.0</ele><time>2026-05-01T08:57:35.243Z</time></trkpt><trkpt lat="39.5505215" lon="8.5890128"><ele>386.0</ele><time>2026-05-01T08:57:36.244Z</time></trkpt><trkpt lat="39.5504071" lon="8.5890421"><ele>386.0</ele><time>2026-05-01T08:57:37.244Z</time></trkpt><trkpt lat="39.5503049" lon="8.5891051"><ele>386.0</ele><time>2026-05-01T08:57:38.244Z</time></trkpt><trkpt lat="39.5502246" lon="8.5892016"><ele>386.0</ele><time>2026-05-01T08:57:39.244Z</time></trkpt><trkpt lat="39.5501646" lon="8.5893342"><ele>387.25</ele><time>2026-05-01T08:57:40.244Z</time></trkpt><trkpt lat="39.5501144" lon="8.5894943"><ele>388.5</ele><time>2026-05-01T08:57:41.242Z</time></trkpt><trkpt lat="39.550036" lon="8.5896287"><ele>389.75</ele><time>2026-05-01T08:57:42.243Z</time></trkpt><trkpt lat="39.5499386" lon="8.5897346"><ele>391.0</ele><time>2026-05-01T08:57:43.242Z</time></trkpt><trkpt lat="39.5498239" lon="8.5898109"><ele>391.0</ele><time>2026-05-01T08:57:44.243Z</time></trkpt><trkpt lat="39.549715" lon="8.5898914"><ele>391.0</ele><time>2026-05-01T08:57:45.244Z</time></trkpt><trkpt lat="39.5496322" lon="8.5900165"><ele>391.0</ele><time>2026-05-01T08:57:46.243Z</time></trkpt><trkpt lat="39.5495877" lon="8.5901717"><ele>391.0</ele><time>2026-05-01T08:57:47.242Z</time></trkpt><trkpt lat="39.549578" lon="8.5903507"><ele>391.5</ele><time>2026-05-01T08:57:48.243Z</time></trkpt><trkpt lat="39.5495873" lon="8.5905355"><ele>392.0</ele><time>2026-05-01T08:57:49.243Z</time></trkpt><trkpt lat="39.5496267" lon="8.5907001"><ele>392.5</ele><time>2026-05-01T08:57:50.243Z</time></trkpt><trkpt lat="39.5497191" lon="8.5908511"><ele>393.0</ele><time>2026-05-01T08:57:51.243Z</time></trkpt><trkpt lat="39.5498429" lon="8.5909982"><ele>393.0</ele><time>2026-05-01T08:57:52.242Z</time></trkpt><trkpt lat="39.5500005" lon="8.5911595"><ele>393.0</ele><time>2026-05-01T08:57:53.244Z</time></trkpt><trkpt lat="39.5501611" lon="8.5913323"><ele>393.0</ele><time>2026-05-01T08:57:54.243Z</time></trkpt><trkpt lat="39.5502933" lon="8.5915073"><ele>393.33333333333337</ele><time>2026-05-01T08:57:55.243Z</time></trkpt><trkpt lat="39.5504123" lon="8.5916852"><ele>393.6666666666667</ele><time>2026-05-01T08:57:56.243Z</time></trkpt><trkpt lat="39.5505129" lon="8.5918607"><ele>394.0</ele><time>2026-05-01T08:57:57.244Z</time></trkpt><trkpt lat="39.5505954" lon="8.5920305"><ele>394.0</ele><time>2026-05-01T08:57:58.242Z</time></trkpt><trkpt lat="39.5506555" lon="8.5922099"><ele>394.0</ele><time>2026-05-01T08:57:59.243Z</time></trkpt><trkpt lat="39.5506927" lon="8.592406"><ele>394.0</ele><time>2026-05-01T08:58:00.243Z</time></trkpt><trkpt lat="39.5507097" lon="8.5926151"><ele>394.0</ele><time>2026-05-01T08:58:01.243Z</time></trkpt><trkpt lat="39.5507152" lon="8.5928284"><ele>394.0</ele><time>2026-05-01T08:58:02.243Z</time></trkpt><trkpt lat="39.5507178" lon="8.5930221"><ele>394.0</ele><time>2026-05-01T08:58:03.244Z</time></trkpt><trkpt lat="39.5507169" lon="8.5932017"><ele>393.5</ele><time>2026-05-01T08:58:04.243Z</time></trkpt><trkpt lat="39.5507057" lon="8.5933676"><ele>393.0</ele><time>2026-05-01T08:58:05.244Z</time></trkpt><trkpt lat="39.5506825" lon="8.5935175"><ele>392.5</ele><time>2026-05-01T08:58:06.243Z</time></trkpt><trkpt lat="39.5506436" lon="8.5936536"><ele>392.0</ele><time>2026-05-01T08:58:07.243Z</time></trkpt><trkpt lat="39.5505857" lon="8.593776"><ele>389.0</ele><time>2026-05-01T08:58:08.242Z</time></trkpt><trkpt lat="39.5505073" lon="8.5938835"><ele>386.0</ele><time>2026-05-01T08:58:09.243Z</time></trkpt><trkpt lat="39.5504076" lon="8.5939858"><ele>383.0</ele><time>2026-05-01T08:58:10.243Z</time></trkpt><trkpt lat="39.5502927" lon="8.594097"><ele>380.0</ele><time>2026-05-01T08:58:11.243Z</time></trkpt><trkpt lat="39.5501674" lon="8.5942099"><ele>380.33333333333337</ele><time>2026-05-01T08:58:12.243Z</time></trkpt><trkpt lat="39.5500335" lon="8.5943256"><ele>380.6666666666667</ele><time>2026-05-01T08:58:13.244Z</time></trkpt><trkpt lat="39.5498939" lon="8.5944476"><ele>381.0</ele><time>2026-05-01T08:58:14.243Z</time></trkpt><trkpt lat="39.5497527" lon="8.5945799"><ele>381.0</ele><time>2026-05-01T08:58:15.244Z</time></trkpt><trkpt lat="39.5496209" lon="8.594724"><ele>381.0</ele><time>2026-05-01T08:58:16.243Z</time></trkpt><trkpt lat="39.5495053" lon="8.5948754"><ele>381.0</ele><time>2026-05-01T08:58:17.243Z</time></trkpt><trkpt lat="39.549379" lon="8.595012"><ele>381.6666666666667</ele><time>2026-05-01T08:58:18.243Z</time></trkpt><trkpt lat="39.5492347" lon="8.5951317"><ele>382.33333333333337</ele><time>2026-05-01T08:58:19.243Z</time></trkpt><trkpt lat="39.5490759" lon="8.5952526"><ele>383.0</ele><time>2026-05-01T08:58:20.242Z</time></trkpt><trkpt lat="39.5489077" lon="8.5953793"><ele>383.0</ele><time>2026-05-01T08:58:21.244Z</time></trkpt><trkpt lat="39.5487579" lon="8.5954914"><ele>383.0</ele><time>2026-05-01T08:58:22.244Z</time></trkpt><trkpt lat="39.5486205" lon="8.5956067"><ele>383.0</ele><time>2026-05-01T08:58:23.243Z</time></trkpt><trkpt lat="39.5484997" lon="8.5957452"><ele>388.0</ele><time>2026-05-01T08:58:24.243Z</time></trkpt><trkpt lat="39.5483968" lon="8.5959088"><ele>393.0</ele><time>2026-05-01T08:58:25.243Z</time></trkpt><trkpt lat="39.548307" lon="8.5960887"><ele>398.0</ele><time>2026-05-01T08:58:26.244Z</time></trkpt><trkpt lat="39.5482131" lon="8.5962619"><ele>398.0</ele><time>2026-05-01T08:58:27.243Z</time></trkpt><trkpt lat="39.5481094" lon="8.596402"><ele>398.0</ele><time>2026-05-01T08:58:28.244Z</time></trkpt><trkpt lat="39.5480011" lon="8.5965209"><ele>398.0</ele><time>2026-05-01T08:58:29.243Z</time></trkpt><trkpt lat="39.5478955" lon="8.5965986"><ele>398.0</ele><time>2026-05-01T08:58:30.243Z</time></trkpt><trkpt lat="39.5477821" lon="8.5966349"><ele>402.5</ele><time>2026-05-01T08:58:31.243Z</time></trkpt><trkpt lat="39.5476668" lon="8.5966264"><ele>407.0</ele><time>2026-05-01T08:58:32.243Z</time></trkpt><trkpt lat="39.54755" lon="8.5965884"><ele>411.5</ele><time>2026-05-01T08:58:33.242Z</time></trkpt><trkpt lat="39.547423" lon="8.5965413"><ele>416.0</ele><time>2026-05-01T08:58:34.243Z</time></trkpt><trkpt lat="39.5473076" lon="8.5965032"><ele>416.0</ele><time>2026-05-01T08:58:35.244Z</time></trkpt><trkpt lat="39.5472025" lon="8.5964872"><ele>416.0</ele><time>2026-05-01T08:58:36.244Z</time></trkpt><trkpt lat="39.5471006" lon="8.5965147"><ele>416.0</ele><time>2026-05-01T08:58:37.244Z</time></trkpt><trkpt lat="39.5470122" lon="8.5965856"><ele>416.0</ele><time>2026-05-01T08:58:38.243Z</time></trkpt><trkpt lat="39.5469359" lon="8.5966933"><ele>416.0</ele><time>2026-05-01T08:58:39.242Z</time></trkpt><trkpt lat="39.5468562" lon="8.5968164"><ele>414.25</ele><time>2026-05-01T08:58:40.242Z</time></trkpt><trkpt lat="39.5467541" lon="8.5969242"><ele>412.5</ele><time>2026-05-01T08:58:41.244Z</time></trkpt><trkpt lat="39.5466304" lon="8.5969861"><ele>410.75</ele><time>2026-05-01T08:58:42.243Z</time></trkpt><trkpt lat="39.546494" lon="8.597017"><ele>409.0</ele><time>2026-05-01T08:58:43.243Z</time></trkpt><trkpt lat="39.5463365" lon="8.5970476"><ele>416.5</ele><time>2026-05-01T08:58:44.244Z</time></trkpt><trkpt lat="39.5461918" lon="8.5970818"><ele>424.0</ele><time>2026-05-01T08:58:45.244Z</time></trkpt><trkpt lat="39.5460747" lon="8.5971234"><ele>431.5</ele><time>2026-05-01T08:58:46.243Z</time></trkpt><trkpt lat="39.54598" lon="8.5972012"><ele>439.0</ele><time>2026-05-01T08:58:47.242Z</time></trkpt><trkpt lat="39.5459119" lon="8.5973185"><ele>439.0</ele><time>2026-05-01T08:58:48.243Z</time></trkpt><trkpt lat="39.5458807" lon="8.5974639"><ele>439.0</ele><time>2026-05-01T08:58:49.243Z</time></trkpt><trkpt lat="39.5458758" lon="8.5976401"><ele>439.0</ele><time>2026-05-01T08:58:50.244Z</time></trkpt><trkpt lat="39.5458783" lon="8.5978418"><ele>439.0</ele><time>2026-05-01T08:58:51.243Z</time></trkpt><trkpt lat="39.5458785" lon="8.5980338"><ele>436.75</ele><time>2026-05-01T08:58:52.244Z</time></trkpt><trkpt lat="39.5458614" lon="8.5981944"><ele>434.5</ele><time>2026-05-01T08:58:53.243Z</time></trkpt><trkpt lat="39.5458174" lon="8.5983327"><ele>432.25</ele><time>2026-05-01T08:58:54.242Z</time></trkpt><trkpt lat="39.5457475" lon="8.5984518"><ele>430.0</ele><time>2026-05-01T08:58:55.243Z</time></trkpt><trkpt lat="39.5456517" lon="8.5985493"><ele>430.0</ele><time>2026-05-01T08:58:56.243Z</time></trkpt><trkpt lat="39.5455555" lon="8.5986341"><ele>430.0</ele><time>2026-05-01T08:58:57.243Z</time></trkpt><trkpt lat="39.5454591" lon="8.5986957"><ele>430.0</ele><time>2026-05-01T08:58:58.242Z</time></trkpt><trkpt lat="39.5453519" lon="8.5987138"><ele>430.0</ele><time>2026-05-01T08:58:59.243Z</time></trkpt><trkpt lat="39.5452495" lon="8.5986852"><ele>430.0</ele><time>2026-05-01T08:59:00.242Z</time></trkpt><trkpt lat="39.5451393" lon="8.5986269"><ele>430.5</ele><time>2026-05-01T08:59:01.243Z</time></trkpt><trkpt lat="39.5450153" lon="8.5985769"><ele>431.0</ele><time>2026-05-01T08:59:02.244Z</time></trkpt><trkpt lat="39.5448881" lon="8.5985876"><ele>431.5</ele><time>2026-05-01T08:59:03.244Z</time></trkpt><trkpt lat="39.5447673" lon="8.5986575"><ele>432.0</ele><time>2026-05-01T08:59:04.243Z</time></trkpt><trkpt lat="39.5446598" lon="8.5987661"><ele>432.0</ele><time>2026-05-01T08:59:05.243Z</time></trkpt><trkpt lat="39.5445799" lon="8.5989109"><ele>432.0</ele><time>2026-05-01T08:59:06.243Z</time></trkpt><trkpt lat="39.544532" lon="8.5990896"><ele>432.0</ele><time>2026-05-01T08:59:07.242Z</time></trkpt><trkpt lat="39.5444958" lon="8.5992929"><ele>432.0</ele><time>2026-05-01T08:59:08.243Z</time></trkpt><trkpt lat="39.5444624" lon="8.5995169"><ele>444.0</ele><time>2026-05-01T08:59:09.242Z</time></trkpt><trkpt lat="39.544434" lon="8.5997473"><ele>456.0</ele><time>2026-05-01T08:59:10.242Z</time></trkpt><trkpt lat="39.5444278" lon="8.5999811"><ele>468.0</ele><time>2026-05-01T08:59:11.244Z</time></trkpt><trkpt lat="39.5444262" lon="8.6002158"><ele>464.66666666666663</ele><time>2026-05-01T08:59:12.244Z</time></trkpt><trkpt lat="39.5444262" lon="8.6004349"><ele>461.3333333333333</ele><time>2026-05-01T08:59:13.243Z</time></trkpt><trkpt lat="39.5444279" lon="8.6006377"><ele>458.0</ele><time>2026-05-01T08:59:14.243Z</time></trkpt><trkpt lat="39.5444253" lon="8.6008055"><ele>458.0</ele><time>2026-05-01T08:59:15.242Z</time></trkpt><trkpt lat="39.5444086" lon="8.6009429"><ele>457.99999999999994</ele><time>2026-05-01T08:59:16.243Z</time></trkpt><trkpt lat="39.5443671" lon="8.6010486"><ele>457.99999999999994</ele><time>2026-05-01T08:59:17.243Z</time></trkpt><trkpt lat="39.5442986" lon="8.6011223"><ele>458.0</ele><time>2026-05-01T08:59:18.243Z</time></trkpt><trkpt lat="39.5442033" lon="8.6011614"><ele>458.0</ele><time>2026-05-01T08:59:19.242Z</time></trkpt><trkpt lat="39.544091" lon="8.6011719"><ele>459.25</ele><time>2026-05-01T08:59:20.243Z</time></trkpt><trkpt lat="39.543964" lon="8.6011672"><ele>460.5</ele><time>2026-05-01T08:59:21.244Z</time></trkpt><trkpt lat="39.5438385" lon="8.6011892"><ele>461.75</ele><time>2026-05-01T08:59:22.244Z</time></trkpt><trkpt lat="39.5437297" lon="8.6012671"><ele>463.0</ele><time>2026-05-01T08:59:23.244Z</time></trkpt><trkpt lat="39.543641" lon="8.6013851"><ele>463.0</ele><time>2026-05-01T08:59:24.244Z</time></trkpt><trkpt lat="39.5435716" lon="8.6015343"><ele>463.0</ele><time>2026-05-01T08:59:25.243Z</time></trkpt><trkpt lat="39.5435153" lon="8.6016981"><ele>463.0</ele><time>2026-05-01T08:59:26.244Z</time></trkpt><trkpt lat="39.5434404" lon="8.601827"><ele>463.0</ele><time>2026-05-01T08:59:27.244Z</time></trkpt><trkpt lat="39.5433386" lon="8.6019302"><ele>463.75</ele><time>2026-05-01T08:59:28.243Z</time></trkpt><trkpt lat="39.5432135" lon="8.6020025"><ele>464.5</ele><time>2026-05-01T08:59:29.244Z</time></trkpt><trkpt lat="39.5430709" lon="8.602046"><ele>465.25</ele><time>2026-05-01T08:59:30.243Z</time></trkpt><trkpt lat="39.542917" lon="8.6020711"><ele>466.0</ele><time>2026-05-01T08:59:31.242Z</time></trkpt><trkpt lat="39.542771" lon="8.6020848"><ele>466.0</ele><time>2026-05-01T08:59:32.244Z</time></trkpt><trkpt lat="39.54262" lon="8.6020896"><ele>466.0</ele><time>2026-05-01T08:59:33.244Z</time></trkpt><trkpt lat="39.5424595" lon="8.6020822"><ele>466.0</ele><time>2026-05-01T08:59:34.243Z</time></trkpt><trkpt lat="39.5422891" lon="8.6020556"><ele>466.0</ele><time>2026-05-01T08:59:35.243Z</time></trkpt><trkpt lat="39.5421096" lon="8.6020172"><ele>466.0</ele><time>2026-05-01T08:59:36.244Z</time></trkpt><trkpt lat="39.541922" lon="8.6019701"><ele>466.0</ele><time>2026-05-01T08:59:37.243Z</time></trkpt><trkpt lat="39.5417335" lon="8.6019062"><ele>459.6666666666667</ele><time>2026-05-01T08:59:38.242Z</time></trkpt><trkpt lat="39.5415511" lon="8.6018386"><ele>453.33333333333337</ele><time>2026-05-01T08:59:39.243Z</time></trkpt><trkpt lat="39.5413696" lon="8.6017722"><ele>447.0</ele><time>2026-05-01T08:59:40.244Z</time></trkpt><trkpt lat="39.5411825" lon="8.6017115"><ele>445.0</ele><time>2026-05-01T08:59:41.243Z</time></trkpt><trkpt lat="39.5409954" lon="8.6016648"><ele>443.0</ele><time>2026-05-01T08:59:42.243Z</time></trkpt><trkpt lat="39.5408104" lon="8.6016429"><ele>441.0</ele><time>2026-05-01T08:59:43.244Z</time></trkpt><trkpt lat="39.5406228" lon="8.6016485"><ele>441.0</ele><time>2026-05-01T08:59:44.243Z</time></trkpt><trkpt lat="39.5404368" lon="8.601684"><ele>441.0</ele><time>2026-05-01T08:59:45.243Z</time></trkpt><trkpt lat="39.5402577" lon="8.6017302"><ele>441.0</ele><time>2026-05-01T08:59:46.243Z</time></trkpt><trkpt lat="39.5400846" lon="8.6017714"><ele>438.33333333333337</ele><time>2026-05-01T08:59:47.244Z</time></trkpt><trkpt lat="39.5399242" lon="8.6017988"><ele>435.6666666666667</ele><time>2026-05-01T08:59:48.244Z</time></trkpt><trkpt lat="39.5397713" lon="8.6018259"><ele>433.0</ele><time>2026-05-01T08:59:49.243Z</time></trkpt><trkpt lat="39.5396245" lon="8.6018786"><ele>429.33333333333337</ele><time>2026-05-01T08:59:50.244Z</time></trkpt><trkpt lat="39.5394841" lon="8.6019581"><ele>425.66666666666663</ele><time>2026-05-01T08:59:51.244Z</time></trkpt><trkpt lat="39.5393411" lon="8.6020319"><ele>422.0</ele><time>2026-05-01T08:59:52.242Z</time></trkpt><trkpt lat="39.5391851" lon="8.6020798"><ele>429.3333333333333</ele><time>2026-05-01T08:59:53.244Z</time></trkpt><trkpt lat="39.539008" lon="8.6021144"><ele>436.66666666666663</ele><time>2026-05-01T08:59:54.243Z</time></trkpt><trkpt lat="39.5388269" lon="8.6021448"><ele>444.0</ele><time>2026-05-01T08:59:55.243Z</time></trkpt><trkpt lat="39.5386532" lon="8.6021618"><ele>444.0</ele><time>2026-05-01T08:59:56.243Z</time></trkpt><trkpt lat="39.5384826" lon="8.6021808"><ele>444.0</ele><time>2026-05-01T08:59:57.242Z</time></trkpt><trkpt lat="39.5383061" lon="8.6022286"><ele>444.0</ele><time>2026-05-01T08:59:58.243Z</time></trkpt><trkpt lat="39.5381329" lon="8.6023007"><ele>444.0</ele><time>2026-05-01T08:59:59.242Z</time></trkpt><trkpt lat="39.5379698" lon="8.6023851"><ele>444.0</ele><time>2026-05-01T09:00:00.244Z</time></trkpt><trkpt lat="39.5378095" lon="8.6024691"><ele>444.0</ele><time>2026-05-01T09:00:01.243Z</time></trkpt><trkpt lat="39.5376432" lon="8.6025479"><ele>437.66666666666663</ele><time>2026-05-01T09:00:02.242Z</time></trkpt><trkpt lat="39.5374798" lon="8.6026092"><ele>431.3333333333333</ele><time>2026-05-01T09:00:03.244Z</time></trkpt><trkpt lat="39.53732" lon="8.6026692"><ele>425.0</ele><time>2026-05-01T09:00:04.244Z</time></trkpt><trkpt lat="39.5371601" lon="8.6027436"><ele>428.0</ele><time>2026-05-01T09:00:05.244Z</time></trkpt><trkpt lat="39.5370092" lon="8.6028407"><ele>431.0</ele><time>2026-05-01T09:00:06.242Z</time></trkpt><trkpt lat="39.5368748" lon="8.6029416"><ele>434.0</ele><time>2026-05-01T09:00:07.243Z</time></trkpt><trkpt lat="39.5367413" lon="8.6030182"><ele>434.0</ele><time>2026-05-01T09:00:08.244Z</time></trkpt><trkpt lat="39.5365993" lon="8.6030407"><ele>434.0</ele><time>2026-05-01T09:00:09.243Z</time></trkpt><trkpt lat="39.5364523" lon="8.6030186"><ele>434.0</ele><time>2026-05-01T09:00:10.243Z</time></trkpt><trkpt lat="39.5363036" lon="8.6029508"><ele>434.0</ele><time>2026-05-01T09:00:11.243Z</time></trkpt><trkpt lat="39.5361505" lon="8.6028575"><ele>425.3333333333333</ele><time>2026-05-01T09:00:12.243Z</time></trkpt><trkpt lat="39.5360006" lon="8.602763"><ele>416.66666666666663</ele><time>2026-05-01T09:00:13.243Z</time></trkpt><trkpt lat="39.5358565" lon="8.6026744"><ele>408.0</ele><time>2026-05-01T09:00:14.244Z</time></trkpt><trkpt lat="39.5357125" lon="8.6026038"><ele>408.0</ele><time>2026-05-01T09:00:15.244Z</time></trkpt><trkpt lat="39.5355703" lon="8.6025674"><ele>408.0</ele><time>2026-05-01T09:00:16.243Z</time></trkpt><trkpt lat="39.5354375" lon="8.6025503"><ele>408.0</ele><time>2026-05-01T09:00:17.244Z</time></trkpt><trkpt lat="39.5353168" lon="8.6025"><ele>408.0</ele><time>2026-05-01T09:00:18.244Z</time></trkpt><trkpt lat="39.5352049" lon="8.6023991"><ele>411.66666666666663</ele><time>2026-05-01T09:00:19.243Z</time></trkpt><trkpt lat="39.535099" lon="8.602266"><ele>415.3333333333333</ele><time>2026-05-01T09:00:20.243Z</time></trkpt><trkpt lat="39.5349747" lon="8.6021134"><ele>419.0</ele><time>2026-05-01T09:00:21.242Z</time></trkpt><trkpt lat="39.5348212" lon="8.6019493"><ele>416.0</ele><time>2026-05-01T09:00:22.243Z</time></trkpt><trkpt lat="39.5346687" lon="8.6018041"><ele>413.0</ele><time>2026-05-01T09:00:23.242Z</time></trkpt><trkpt lat="39.5345015" lon="8.6016729"><ele>410.0</ele><time>2026-05-01T09:00:24.244Z</time></trkpt><trkpt lat="39.5343186" lon="8.6015563"><ele>410.0</ele><time>2026-05-01T09:00:25.244Z</time></trkpt><trkpt lat="39.5341245" lon="8.6014427"><ele>410.0</ele><time>2026-05-01T09:00:26.243Z</time></trkpt><trkpt lat="39.5339343" lon="8.6013274"><ele>410.0</ele><time>2026-05-01T09:00:27.243Z</time></trkpt><trkpt lat="39.5337488" lon="8.6012176"><ele>402.0</ele><time>2026-05-01T09:00:28.244Z</time></trkpt><trkpt lat="39.5335738" lon="8.6011144"><ele>394.0</ele><time>2026-05-01T09:00:29.244Z</time></trkpt><trkpt lat="39.5334106" lon="8.6010196"><ele>386.0</ele><time>2026-05-01T09:00:30.243Z</time></trkpt><trkpt lat="39.5332466" lon="8.6009367"><ele>386.0</ele><time>2026-05-01T09:00:31.244Z</time></trkpt><trkpt lat="39.5330821" lon="8.6008824"><ele>386.0</ele><time>2026-05-01T09:00:32.243Z</time></trkpt><trkpt lat="39.532922" lon="8.6008454"><ele>386.0</ele><time>2026-05-01T09:00:33.243Z</time></trkpt><trkpt lat="39.5327674" lon="8.6008069"><ele>386.5</ele><time>2026-05-01T09:00:34.243Z</time></trkpt><trkpt lat="39.5326234" lon="8.6007482"><ele>387.0</ele><time>2026-05-01T09:00:35.244Z</time></trkpt><trkpt lat="39.53249" lon="8.6006742"><ele>387.5</ele><time>2026-05-01T09:00:36.244Z</time></trkpt><trkpt lat="39.5323567" lon="8.6006211"><ele>388.0</ele><time>2026-05-01T09:00:37.244Z</time></trkpt><trkpt lat="39.5322219" lon="8.6006064"><ele>388.0</ele><time>2026-05-01T09:00:38.243Z</time></trkpt><trkpt lat="39.5320811" lon="8.6006149"><ele>388.0</ele><time>2026-05-01T09:00:39.244Z</time></trkpt><trkpt lat="39.5319399" lon="8.6006354"><ele>388.0</ele><time>2026-05-01T09:00:40.244Z</time></trkpt><trkpt lat="39.5318045" lon="8.6006597"><ele>388.0</ele><time>2026-05-01T09:00:41.243Z</time></trkpt><trkpt lat="39.5316787" lon="8.6006872"><ele>386.5</ele><time>2026-05-01T09:00:42.243Z</time></trkpt><trkpt lat="39.5315519" lon="8.6007216"><ele>385.0</ele><time>2026-05-01T09:00:43.243Z</time></trkpt><trkpt lat="39.5314275" lon="8.6007583"><ele>383.5</ele><time>2026-05-01T09:00:44.242Z</time></trkpt><trkpt lat="39.5313043" lon="8.6007999"><ele>382.0</ele><time>2026-05-01T09:00:45.242Z</time></trkpt><trkpt lat="39.5311791" lon="8.6008398"><ele>378.25</ele><time>2026-05-01T09:00:46.243Z</time></trkpt><trkpt lat="39.5310524" lon="8.6008707"><ele>374.5</ele><time>2026-05-01T09:00:47.244Z</time></trkpt><trkpt lat="39.5309243" lon="8.6008971"><ele>370.75</ele><time>2026-05-01T09:00:48.243Z</time></trkpt><trkpt lat="39.5307953" lon="8.6009202"><ele>367.0</ele><time>2026-05-01T09:00:49.243Z</time></trkpt><trkpt lat="39.5306672" lon="8.6009403"><ele>367.0</ele><time>2026-05-01T09:00:50.242Z</time></trkpt><trkpt lat="39.5305457" lon="8.6009574"><ele>367.0</ele><time>2026-05-01T09:00:51.243Z</time></trkpt><trkpt lat="39.530425" lon="8.6009763"><ele>367.0</ele><time>2026-05-01T09:00:52.243Z</time></trkpt><trkpt lat="39.5303032" lon="8.6010037"><ele>367.0</ele><time>2026-05-01T09:00:53.244Z</time></trkpt><trkpt lat="39.530186" lon="8.6010462"><ele>366.5</ele><time>2026-05-01T09:00:54.243Z</time></trkpt><trkpt lat="39.5300728" lon="8.6011046"><ele>366.0</ele><time>2026-05-01T09:00:55.243Z</time></trkpt><trkpt lat="39.5299696" lon="8.6011824"><ele>365.5</ele><time>2026-05-01T09:00:56.243Z</time></trkpt><trkpt lat="39.5298747" lon="8.6012758"><ele>365.0</ele><time>2026-05-01T09:00:57.243Z</time></trkpt><trkpt lat="39.5297905" lon="8.6013765"><ele>365.0</ele><time>2026-05-01T09:00:58.243Z</time></trkpt><trkpt lat="39.5297078" lon="8.6014846"><ele>365.0</ele><time>2026-05-01T09:00:59.243Z</time></trkpt><trkpt lat="39.5296291" lon="8.601595"><ele>365.0</ele><time>2026-05-01T09:01:00.243Z</time></trkpt><trkpt lat="39.5295559" lon="8.6017111"><ele>365.0</ele><time>2026-05-01T09:01:01.243Z</time></trkpt><trkpt lat="39.5294892" lon="8.6018317"><ele>359.75</ele><time>2026-05-01T09:01:02.244Z</time></trkpt><trkpt lat="39.5294275" lon="8.6019581"><ele>354.5</ele><time>2026-05-01T09:01:03.244Z</time></trkpt><trkpt lat="39.529369" lon="8.6020859"><ele>349.25</ele><time>2026-05-01T09:01:04.243Z</time></trkpt><trkpt lat="39.5293221" lon="8.6022175"><ele>344.0</ele><time>2026-05-01T09:01:05.244Z</time></trkpt><trkpt lat="39.5292915" lon="8.6023574"><ele>344.0</ele><time>2026-05-01T09:01:06.244Z</time></trkpt><trkpt lat="39.5292702" lon="8.6024997"><ele>344.0</ele><time>2026-05-01T09:01:07.244Z</time></trkpt><trkpt lat="39.5292537" lon="8.6026401"><ele>344.0</ele><time>2026-05-01T09:01:08.244Z</time></trkpt><trkpt lat="39.5292279" lon="8.6027855"><ele>344.0</ele><time>2026-05-01T09:01:09.244Z</time></trkpt><trkpt lat="39.5291899" lon="8.60293"><ele>344.6</ele><time>2026-05-01T09:01:10.244Z</time></trkpt><trkpt lat="39.5291434" lon="8.6030649"><ele>345.2</ele><time>2026-05-01T09:01:11.242Z</time></trkpt><trkpt lat="39.5290802" lon="8.6031895"><ele>345.8</ele><time>2026-05-01T09:01:12.244Z</time></trkpt><trkpt lat="39.5290195" lon="8.6032892"><ele>346.40000000000003</ele><time>2026-05-01T09:01:13.243Z</time></trkpt><trkpt lat="39.5289741" lon="8.6033638"><ele>347.0</ele><time>2026-05-01T09:01:14.243Z</time></trkpt><trkpt lat="39.5289401" lon="8.6034345"><ele>347.0</ele><time>2026-05-01T09:01:15.244Z</time></trkpt><trkpt lat="39.5289051" lon="8.6035103"><ele>347.0</ele><time>2026-05-01T09:01:16.243Z</time></trkpt><trkpt lat="39.5288613" lon="8.6035924"><ele>347.0</ele><time>2026-05-01T09:01:17.243Z</time></trkpt><trkpt lat="39.5288208" lon="8.6036637"><ele>347.0</ele><time>2026-05-01T09:01:18.244Z</time></trkpt><trkpt lat="39.5287658" lon="8.6037759"><ele>347.0</ele><time>2026-05-01T09:01:20.243Z</time></trkpt><trkpt lat="39.5287263" lon="8.6038615"><ele>347.0</ele><time>2026-05-01T09:01:23.244Z</time></trkpt><trkpt lat="39.5286882" lon="8.6039594"><ele>344.0</ele><time>2026-05-01T09:01:25.244Z</time></trkpt><trkpt lat="39.5286119" lon="8.6041067"><ele>341.0</ele><time>2026-05-01T09:01:27.244Z</time></trkpt><trkpt lat="39.5285676" lon="8.6041878"><ele>338.0</ele><time>2026-05-01T09:01:28.243Z</time></trkpt><trkpt lat="39.5285252" lon="8.6042647"><ele>335.0</ele><time>2026-05-01T09:01:29.243Z</time></trkpt><trkpt lat="39.5284436" lon="8.6043683"><ele>332.0</ele><time>2026-05-01T09:01:31.244Z</time></trkpt><trkpt lat="39.5283832" lon="8.6044136"><ele>332.0</ele><time>2026-05-01T09:01:33.244Z</time></trkpt><trkpt lat="39.5283098" lon="8.6044314"><ele>332.0</ele><time>2026-05-01T09:01:37.244Z</time></trkpt><trkpt lat="39.5282398" lon="8.6044277"><ele>332.0</ele><time>2026-05-01T09:01:41.242Z</time></trkpt><trkpt lat="39.5281412" lon="8.6044093"><ele>332.0</ele><time>2026-05-01T09:01:48.243Z</time></trkpt><trkpt lat="39.5280703" lon="8.6044325"><ele>332.0</ele><time>2026-05-01T09:01:50.242Z</time></trkpt><trkpt lat="39.5280269" lon="8.6045237"><ele>332.0</ele><time>2026-05-01T09:03:31.242Z</time></trkpt><trkpt lat="39.5279432" lon="8.6046424"><ele>332.1428571428571</ele><time>2026-05-01T09:03:33.242Z</time></trkpt><trkpt lat="39.5278889" lon="8.6047037"><ele>332.28571428571433</ele><time>2026-05-01T09:03:34.244Z</time></trkpt><trkpt lat="39.5278363" lon="8.6047678"><ele>332.42857142857144</ele><time>2026-05-01T09:03:35.243Z</time></trkpt><trkpt lat="39.527783" lon="8.6048295"><ele>332.57142857142856</ele><time>2026-05-01T09:03:36.242Z</time></trkpt><trkpt lat="39.5277272" lon="8.6048904"><ele>332.71428571428567</ele><time>2026-05-01T09:03:37.242Z</time></trkpt><trkpt lat="39.5276741" lon="8.6049557"><ele>332.8571428571429</ele><time>2026-05-01T09:03:38.243Z</time></trkpt><trkpt lat="39.5276279" lon="8.6050281"><ele>333.0</ele><time>2026-05-01T09:03:39.243Z</time></trkpt><trkpt lat="39.5275912" lon="8.6051116"><ele>333.0</ele><time>2026-05-01T09:03:40.241Z</time></trkpt><trkpt lat="39.527564" lon="8.6052018"><ele>333.0</ele><time>2026-05-01T09:03:41.241Z</time></trkpt><trkpt lat="39.5275477" lon="8.605301"><ele>333.0</ele><time>2026-05-01T09:03:42.242Z</time></trkpt><trkpt lat="39.5275461" lon="8.6054077"><ele>333.0</ele><time>2026-05-01T09:03:43.242Z</time></trkpt><trkpt lat="39.5275547" lon="8.6055272"><ele>333.0</ele><time>2026-05-01T09:03:44.242Z</time></trkpt><trkpt lat="39.5275741" lon="8.6056549"><ele>333.0</ele><time>2026-05-01T09:03:45.242Z</time></trkpt><trkpt lat="39.5275975" lon="8.6057902"><ele>334.0</ele><time>2026-05-01T09:03:46.242Z</time></trkpt><trkpt lat="39.5276244" lon="8.6059331"><ele>335.0</ele><time>2026-05-01T09:03:47.242Z</time></trkpt><trkpt lat="39.5276525" lon="8.6060668"><ele>336.0</ele><time>2026-05-01T09:03:48.242Z</time></trkpt><trkpt lat="39.5276828" lon="8.6061941"><ele>337.0</ele><time>2026-05-01T09:03:49.243Z</time></trkpt><trkpt lat="39.5277175" lon="8.6063058"><ele>338.0</ele><time>2026-05-01T09:03:50.241Z</time></trkpt><trkpt lat="39.5277595" lon="8.6064007"><ele>338.6666666666667</ele><time>2026-05-01T09:03:51.241Z</time></trkpt><trkpt lat="39.5277955" lon="8.6064767"><ele>339.33333333333337</ele><time>2026-05-01T09:03:52.243Z</time></trkpt><trkpt lat="39.527817" lon="8.6066102"><ele>340.0</ele><time>2026-05-01T09:03:54.243Z</time></trkpt><trkpt lat="39.5278011" lon="8.6066949"><ele>340.6666666666667</ele><time>2026-05-01T09:03:56.242Z</time></trkpt><trkpt lat="39.5278279" lon="8.6067864"><ele>341.3333333333333</ele><time>2026-05-01T09:04:00.241Z</time></trkpt><trkpt lat="39.5278511" lon="8.6068804"><ele>342.0</ele><time>2026-05-01T09:11:55.243Z</time></trkpt><trkpt lat="39.5278996" lon="8.6069814"><ele>343.0</ele><time>2026-05-01T09:11:57.242Z</time></trkpt><trkpt lat="39.5279419" lon="8.6070592"><ele>344.0</ele><time>2026-05-01T09:11:59.242Z</time></trkpt><trkpt lat="39.5280119" lon="8.6071413"><ele>345.0</ele><time>2026-05-01T09:12:02.243Z</time></trkpt><trkpt lat="39.528039" lon="8.6070196"><ele>346.0</ele><time>2026-05-01T09:12:06.241Z</time></trkpt><trkpt lat="39.5279796" lon="8.6068677"><ele>347.0</ele><time>2026-05-01T09:12:08.243Z</time></trkpt><trkpt lat="39.5279425" lon="8.6067907"><ele>347.0</ele><time>2026-05-01T09:12:09.241Z</time></trkpt><trkpt lat="39.5279053" lon="8.6067122"><ele>347.0</ele><time>2026-05-01T09:12:10.242Z</time></trkpt><trkpt lat="39.527871" lon="8.606632"><ele>347.0</ele><time>2026-05-01T09:12:11.243Z</time></trkpt><trkpt lat="39.5278373" lon="8.6065536"><ele>347.0</ele><time>2026-05-01T09:12:12.243Z</time></trkpt><trkpt lat="39.5278021" lon="8.606477"><ele>347.0</ele><time>2026-05-01T09:12:13.243Z</time></trkpt><trkpt lat="39.5277669" lon="8.6064009"><ele>347.0</ele><time>2026-05-01T09:12:14.242Z</time></trkpt><trkpt lat="39.5277384" lon="8.6063249"><ele>347.0</ele><time>2026-05-01T09:12:15.241Z</time></trkpt><trkpt lat="39.5277117" lon="8.6062369"><ele>345.7142857142857</ele><time>2026-05-01T09:12:16.243Z</time></trkpt><trkpt lat="39.5276864" lon="8.6061437"><ele>344.4285714285714</ele><time>2026-05-01T09:12:17.243Z</time></trkpt><trkpt lat="39.5276628" lon="8.606052"><ele>343.1428571428571</ele><time>2026-05-01T09:12:18.242Z</time></trkpt><trkpt lat="39.5276408" lon="8.6059615"><ele>341.8571428571429</ele><time>2026-05-01T09:12:19.242Z</time></trkpt><trkpt lat="39.5276237" lon="8.6058711"><ele>340.57142857142856</ele><time>2026-05-01T09:12:20.242Z</time></trkpt><trkpt lat="39.5276097" lon="8.6057801"><ele>339.2857142857143</ele><time>2026-05-01T09:12:21.243Z</time></trkpt><trkpt lat="39.527596" lon="8.6056915"><ele>338.0</ele><time>2026-05-01T09:12:22.243Z</time></trkpt><trkpt lat="39.5275863" lon="8.6056055"><ele>338.0</ele><time>2026-05-01T09:12:23.241Z</time></trkpt><trkpt lat="39.5275757" lon="8.60552"><ele>338.0</ele><time>2026-05-01T09:12:24.242Z</time></trkpt><trkpt lat="39.5275724" lon="8.6054347"><ele>338.0</ele><time>2026-05-01T09:12:25.241Z</time></trkpt><trkpt lat="39.5275759" lon="8.6053492"><ele>338.0</ele><time>2026-05-01T09:12:26.242Z</time></trkpt><trkpt lat="39.5275893" lon="8.6052642"><ele>338.0</ele><time>2026-05-01T09:12:27.241Z</time></trkpt><trkpt lat="39.5276099" lon="8.6051765"><ele>338.0</ele><time>2026-05-01T09:12:28.242Z</time></trkpt><trkpt lat="39.5276427" lon="8.6050886"><ele>338.0</ele><time>2026-05-01T09:12:29.241Z</time></trkpt><trkpt lat="39.5276854" lon="8.6050079"><ele>338.14285714285717</ele><time>2026-05-01T09:12:30.242Z</time></trkpt><trkpt lat="39.527731" lon="8.6049317"><ele>338.2857142857143</ele><time>2026-05-01T09:12:31.242Z</time></trkpt><trkpt lat="39.5277818" lon="8.6048564"><ele>338.42857142857144</ele><time>2026-05-01T09:12:32.24Z</time></trkpt><trkpt lat="39.527835" lon="8.6047869"><ele>338.57142857142856</ele><time>2026-05-01T09:12:33.241Z</time></trkpt><trkpt lat="39.5278914" lon="8.60472"><ele>338.7142857142857</ele><time>2026-05-01T09:12:34.241Z</time></trkpt><trkpt lat="39.527946" lon="8.6046559"><ele>338.85714285714283</ele><time>2026-05-01T09:12:35.241Z</time></trkpt><trkpt lat="39.527994" lon="8.6045935"><ele>339.0</ele><time>2026-05-01T09:12:36.24Z</time></trkpt><trkpt lat="39.5280856" lon="8.6044981"><ele>339.0</ele><time>2026-05-01T09:12:38.241Z</time></trkpt><trkpt lat="39.5281776" lon="8.6044689"><ele>339.0</ele><time>2026-05-01T09:12:40.242Z</time></trkpt><trkpt lat="39.5281978" lon="8.6043787"><ele>339.0</ele><time>2026-05-01T09:12:43.242Z</time></trkpt><trkpt lat="39.5281215" lon="8.6044088"><ele>339.0</ele><time>2026-05-01T09:12:47.242Z</time></trkpt><trkpt lat="39.5280527" lon="8.6044652"><ele>339.0</ele><time>2026-05-01T09:12:50.242Z</time></trkpt><trkpt lat="39.5279723" lon="8.6045792"><ele>339.0</ele><time>2026-05-01T09:26:21.239Z</time></trkpt><trkpt lat="39.5279262" lon="8.6046349"><ele>337.79999999999995</ele><time>2026-05-01T09:26:22.239Z</time></trkpt><trkpt lat="39.5278354" lon="8.6047299"><ele>336.59999999999997</ele><time>2026-05-01T09:26:24.24Z</time></trkpt><trkpt lat="39.5277664" lon="8.6048124"><ele>335.4</ele><time>2026-05-01T09:26:26.238Z</time></trkpt><trkpt lat="39.5277053" lon="8.6048856"><ele>334.2</ele><time>2026-05-01T09:26:28.239Z</time></trkpt><trkpt lat="39.527626" lon="8.6049408"><ele>333.0</ele><time>2026-05-01T09:26:30.24Z</time></trkpt><trkpt lat="39.5275509" lon="8.6049426"><ele>333.0</ele><time>2026-05-01T09:26:32.24Z</time></trkpt><trkpt lat="39.5274783" lon="8.6048868"><ele>333.0</ele><time>2026-05-01T09:26:35.239Z</time></trkpt><trkpt lat="39.5273777" lon="8.6048536"><ele>333.0</ele><time>2026-05-01T09:31:24.239Z</time></trkpt><trkpt lat="39.5272734" lon="8.6047843"><ele>333.0</ele><time>2026-05-01T09:31:26.238Z</time></trkpt><trkpt lat="39.5272118" lon="8.6047536"><ele>333.0</ele><time>2026-05-01T09:31:27.237Z</time></trkpt><trkpt lat="39.5271499" lon="8.6047313"><ele>333.0</ele><time>2026-05-01T09:31:28.239Z</time></trkpt><trkpt lat="39.5270847" lon="8.6047672"><ele>331.5</ele><time>2026-05-01T09:31:29.239Z</time></trkpt><trkpt lat="39.527025" lon="8.6048149"><ele>330.0</ele><time>2026-05-01T09:31:30.24Z</time></trkpt><trkpt lat="39.5269639" lon="8.6048875"><ele>328.5</ele><time>2026-05-01T09:31:31.238Z</time></trkpt><trkpt lat="39.5269093" lon="8.6049771"><ele>327.0</ele><time>2026-05-01T09:31:32.239Z</time></trkpt><trkpt lat="39.5268531" lon="8.6050694"><ele>325.5</ele><time>2026-05-01T09:31:33.239Z</time></trkpt><trkpt lat="39.5267914" lon="8.6051677"><ele>324.0</ele><time>2026-05-01T09:31:34.239Z</time></trkpt><trkpt lat="39.5267289" lon="8.6052936"><ele>325.0</ele><time>2026-05-01T09:31:35.222Z</time></trkpt><trkpt lat="39.5266644" lon="8.6053872"><ele>326.0</ele><time>2026-05-01T09:31:36.219Z</time></trkpt><trkpt lat="39.5265974" lon="8.6054876"><ele>327.0</ele><time>2026-05-01T09:31:37.22Z</time></trkpt><trkpt lat="39.5265289" lon="8.6055974"><ele>328.0</ele><time>2026-05-01T09:31:38.216Z</time></trkpt><trkpt lat="39.5264719" lon="8.6056582"><ele>329.0</ele><time>2026-05-01T09:31:39.238Z</time></trkpt><trkpt lat="39.5264046" lon="8.605746"><ele>329.0</ele><time>2026-05-01T09:31:40.238Z</time></trkpt><trkpt lat="39.5263328" lon="8.6058269"><ele>329.0</ele><time>2026-05-01T09:31:41.239Z</time></trkpt><trkpt lat="39.5262433" lon="8.6058564"><ele>329.0</ele><time>2026-05-01T09:31:42.237Z</time></trkpt><trkpt lat="39.5261519" lon="8.605864"><ele>329.0</ele><time>2026-05-01T09:31:43.239Z</time></trkpt><trkpt lat="39.5260554" lon="8.6058588"><ele>329.0</ele><time>2026-05-01T09:31:44.238Z</time></trkpt><trkpt lat="39.5259572" lon="8.6058352"><ele>329.2</ele><time>2026-05-01T09:31:45.238Z</time></trkpt><trkpt lat="39.5258539" lon="8.6058021"><ele>329.4</ele><time>2026-05-01T09:31:46.238Z</time></trkpt><trkpt lat="39.5257686" lon="8.6057489"><ele>329.6</ele><time>2026-05-01T09:31:47.237Z</time></trkpt><trkpt lat="39.5256817" lon="8.6056808"><ele>329.8</ele><time>2026-05-01T09:31:48.238Z</time></trkpt><trkpt lat="39.5256038" lon="8.6055966"><ele>330.0</ele><time>2026-05-01T09:31:49.238Z</time></trkpt><trkpt lat="39.5255399" lon="8.6055041"><ele>330.0</ele><time>2026-05-01T09:31:50.238Z</time></trkpt><trkpt lat="39.525487" lon="8.6054234"><ele>330.0</ele><time>2026-05-01T09:31:51.239Z</time></trkpt><trkpt lat="39.5254567" lon="8.6053512"><ele>330.0</ele><time>2026-05-01T09:31:52.239Z</time></trkpt><trkpt lat="39.5254553" lon="8.6052106"><ele>330.0</ele><time>2026-05-01T09:31:54.238Z</time></trkpt><trkpt lat="39.5255125" lon="8.6050666"><ele>330.0</ele><time>2026-05-01T09:31:56.239Z</time></trkpt><trkpt lat="39.5255456" lon="8.6049785"><ele>328.6</ele><time>2026-05-01T09:31:57.239Z</time></trkpt><trkpt lat="39.5255885" lon="8.604874"><ele>327.2</ele><time>2026-05-01T09:31:58.238Z</time></trkpt><trkpt lat="39.5256222" lon="8.6047605"><ele>325.79999999999995</ele><time>2026-05-01T09:31:59.239Z</time></trkpt><trkpt lat="39.5256601" lon="8.6046506"><ele>324.4</ele><time>2026-05-01T09:32:00.24Z</time></trkpt><trkpt lat="39.5257009" lon="8.6045441"><ele>323.0</ele><time>2026-05-01T09:32:01.24Z</time></trkpt><trkpt lat="39.525744" lon="8.6044356"><ele>322.79999999999995</ele><time>2026-05-01T09:32:02.238Z</time></trkpt><trkpt lat="39.5257906" lon="8.604318"><ele>322.6</ele><time>2026-05-01T09:32:03.239Z</time></trkpt><trkpt lat="39.525837" lon="8.6042044"><ele>322.4</ele><time>2026-05-01T09:32:04.239Z</time></trkpt><trkpt lat="39.5258823" lon="8.6040948"><ele>322.20000000000005</ele><time>2026-05-01T09:32:05.238Z</time></trkpt><trkpt lat="39.5259171" lon="8.6039877"><ele>322.0</ele><time>2026-05-01T09:32:06.239Z</time></trkpt><trkpt lat="39.5259625" lon="8.60387"><ele>322.0</ele><time>2026-05-01T09:32:07.238Z</time></trkpt><trkpt lat="39.5260098" lon="8.6037496"><ele>322.0</ele><time>2026-05-01T09:32:08.239Z</time></trkpt><trkpt lat="39.5260592" lon="8.6036247"><ele>322.0</ele><time>2026-05-01T09:32:09.237Z</time></trkpt><trkpt lat="39.5261014" lon="8.6035041"><ele>322.0</ele><time>2026-05-01T09:32:10.239Z</time></trkpt><trkpt lat="39.5261395" lon="8.6033871"><ele>322.0</ele><time>2026-05-01T09:32:11.237Z</time></trkpt><trkpt lat="39.5261786" lon="8.6032766"><ele>322.0</ele><time>2026-05-01T09:32:12.239Z</time></trkpt><trkpt lat="39.5262182" lon="8.6031762"><ele>322.0</ele><time>2026-05-01T09:32:13.239Z</time></trkpt><trkpt lat="39.5262657" lon="8.6030651"><ele>322.0</ele><time>2026-05-01T09:32:14.237Z</time></trkpt><trkpt lat="39.5263063" lon="8.6029473"><ele>322.0</ele><time>2026-05-01T09:32:15.239Z</time></trkpt><trkpt lat="39.5263421" lon="8.6028143"><ele>322.0</ele><time>2026-05-01T09:32:16.238Z</time></trkpt><trkpt lat="39.526359" lon="8.6026868"><ele>319.40000000000003</ele><time>2026-05-01T09:32:17.238Z</time></trkpt><trkpt lat="39.5263581" lon="8.602561"><ele>316.8</ele><time>2026-05-01T09:32:18.238Z</time></trkpt><trkpt lat="39.5263428" lon="8.6024233"><ele>314.2</ele><time>2026-05-01T09:32:19.237Z</time></trkpt><trkpt lat="39.5263127" lon="8.602292"><ele>311.6</ele><time>2026-05-01T09:32:20.238Z</time></trkpt><trkpt lat="39.5262729" lon="8.6021692"><ele>309.0</ele><time>2026-05-01T09:32:21.238Z</time></trkpt><trkpt lat="39.5262357" lon="8.6020572"><ele>309.0</ele><time>2026-05-01T09:32:22.238Z</time></trkpt><trkpt lat="39.5262008" lon="8.6019439"><ele>309.0</ele><time>2026-05-01T09:32:23.239Z</time></trkpt><trkpt lat="39.5261886" lon="8.6018329"><ele>309.0</ele><time>2026-05-01T09:32:24.237Z</time></trkpt><trkpt lat="39.5261753" lon="8.6017214"><ele>309.0</ele><time>2026-05-01T09:32:25.239Z</time></trkpt><trkpt lat="39.5261601" lon="8.601614"><ele>309.0</ele><time>2026-05-01T09:32:26.239Z</time></trkpt><trkpt lat="39.5261408" lon="8.6015159"><ele>309.0</ele><time>2026-05-01T09:32:27.237Z</time></trkpt><trkpt lat="39.5260854" lon="8.601444"><ele>309.0</ele><time>2026-05-01T09:32:28.238Z</time></trkpt><trkpt lat="39.5260292" lon="8.6013694"><ele>309.0</ele><time>2026-05-01T09:32:29.238Z</time></trkpt><trkpt lat="39.5259681" lon="8.6013021"><ele>309.0</ele><time>2026-05-01T09:32:30.239Z</time></trkpt><trkpt lat="39.525901" lon="8.6012152"><ele>309.0</ele><time>2026-05-01T09:32:31.238Z</time></trkpt><trkpt lat="39.5258284" lon="8.6011354"><ele>309.0</ele><time>2026-05-01T09:32:32.238Z</time></trkpt><trkpt lat="39.5257477" lon="8.6010624"><ele>309.0</ele><time>2026-05-01T09:32:33.238Z</time></trkpt><trkpt lat="39.525662" lon="8.6009967"><ele>307.4</ele><time>2026-05-01T09:32:34.238Z</time></trkpt><trkpt lat="39.525566" lon="8.6009393"><ele>305.79999999999995</ele><time>2026-05-01T09:32:35.239Z</time></trkpt><trkpt lat="39.5254775" lon="8.6008617"><ele>304.20000000000005</ele><time>2026-05-01T09:32:36.238Z</time></trkpt><trkpt lat="39.5254074" lon="8.6007588"><ele>302.6</ele><time>2026-05-01T09:32:37.239Z</time></trkpt><trkpt lat="39.5253358" lon="8.6006614"><ele>301.0</ele><time>2026-05-01T09:32:38.239Z</time></trkpt><trkpt lat="39.5253042" lon="8.6005275"><ele>300.6</ele><time>2026-05-01T09:32:39.236Z</time></trkpt><trkpt lat="39.5252825" lon="8.6003943"><ele>300.20000000000005</ele><time>2026-05-01T09:32:40.238Z</time></trkpt><trkpt lat="39.5252549" lon="8.6002805"><ele>299.79999999999995</ele><time>2026-05-01T09:32:41.239Z</time></trkpt><trkpt lat="39.5252041" lon="8.6001729"><ele>299.4</ele><time>2026-05-01T09:32:42.237Z</time></trkpt><trkpt lat="39.5251329" lon="8.6000739"><ele>299.0</ele><time>2026-05-01T09:32:43.238Z</time></trkpt><trkpt lat="39.525056" lon="8.5999753"><ele>295.5</ele><time>2026-05-01T09:32:44.238Z</time></trkpt><trkpt lat="39.5249679" lon="8.5998649"><ele>292.0</ele><time>2026-05-01T09:32:45.239Z</time></trkpt><trkpt lat="39.5248853" lon="8.5997617"><ele>288.5</ele><time>2026-05-01T09:32:46.237Z</time></trkpt><trkpt lat="39.5248112" lon="8.5996515"><ele>285.0</ele><time>2026-05-01T09:32:47.238Z</time></trkpt><trkpt lat="39.5247436" lon="8.5995461"><ele>285.0</ele><time>2026-05-01T09:32:48.237Z</time></trkpt><trkpt lat="39.5246634" lon="8.5994632"><ele>285.0</ele><time>2026-05-01T09:32:49.237Z</time></trkpt><trkpt lat="39.5245691" lon="8.5994213"><ele>285.0</ele><time>2026-05-01T09:32:50.238Z</time></trkpt><trkpt lat="39.5244543" lon="8.5993986"><ele>285.0</ele><time>2026-05-01T09:32:51.237Z</time></trkpt><trkpt lat="39.5243409" lon="8.5993919"><ele>285.0</ele><time>2026-05-01T09:32:52.239Z</time></trkpt><trkpt lat="39.5242321" lon="8.5993886"><ele>283.4</ele><time>2026-05-01T09:32:53.236Z</time></trkpt><trkpt lat="39.524113" lon="8.5993855"><ele>281.8</ele><time>2026-05-01T09:32:54.238Z</time></trkpt><trkpt lat="39.5240136" lon="8.5993741"><ele>280.2</ele><time>2026-05-01T09:32:55.237Z</time></trkpt><trkpt lat="39.5239162" lon="8.5993658"><ele>278.6</ele><time>2026-05-01T09:32:56.237Z</time></trkpt><trkpt lat="39.5238229" lon="8.5993564"><ele>277.0</ele><time>2026-05-01T09:32:57.238Z</time></trkpt><trkpt lat="39.52373" lon="8.5993454"><ele>275.6</ele><time>2026-05-01T09:32:58.238Z</time></trkpt><trkpt lat="39.5236285" lon="8.5993326"><ele>274.2</ele><time>2026-05-01T09:32:59.238Z</time></trkpt><trkpt lat="39.5235323" lon="8.5993133"><ele>272.8</ele><time>2026-05-01T09:33:00.238Z</time></trkpt><trkpt lat="39.5234346" lon="8.5992827"><ele>271.4</ele><time>2026-05-01T09:33:01.238Z</time></trkpt><trkpt lat="39.523337" lon="8.5992429"><ele>270.0</ele><time>2026-05-01T09:33:02.238Z</time></trkpt><trkpt lat="39.5232321" lon="8.5991884"><ele>270.0</ele><time>2026-05-01T09:33:03.238Z</time></trkpt><trkpt lat="39.5231302" lon="8.5991266"><ele>270.0</ele><time>2026-05-01T09:33:04.237Z</time></trkpt><trkpt lat="39.5230343" lon="8.5990411"><ele>270.0</ele><time>2026-05-01T09:33:05.239Z</time></trkpt><trkpt lat="39.5229465" lon="8.5989452"><ele>270.0</ele><time>2026-05-01T09:33:06.238Z</time></trkpt><trkpt lat="39.5228727" lon="8.5988483"><ele>270.0</ele><time>2026-05-01T09:33:07.239Z</time></trkpt><trkpt lat="39.5228104" lon="8.5987467"><ele>267.4</ele><time>2026-05-01T09:33:08.237Z</time></trkpt><trkpt lat="39.5227589" lon="8.5986258"><ele>264.8</ele><time>2026-05-01T09:33:09.238Z</time></trkpt><trkpt lat="39.5227086" lon="8.5985115"><ele>262.2</ele><time>2026-05-01T09:33:10.238Z</time></trkpt><trkpt lat="39.5226448" lon="8.598402"><ele>259.6</ele><time>2026-05-01T09:33:11.238Z</time></trkpt><trkpt lat="39.5225822" lon="8.598298"><ele>257.0</ele><time>2026-05-01T09:33:12.239Z</time></trkpt><trkpt lat="39.5225337" lon="8.5982135"><ele>257.0</ele><time>2026-05-01T09:33:13.239Z</time></trkpt><trkpt lat="39.5224899" lon="8.5981226"><ele>257.0</ele><time>2026-05-01T09:33:14.238Z</time></trkpt><trkpt lat="39.5224581" lon="8.598029"><ele>257.0</ele><time>2026-05-01T09:33:15.237Z</time></trkpt><trkpt lat="39.5224634" lon="8.597922"><ele>257.0</ele><time>2026-05-01T09:33:16.238Z</time></trkpt><trkpt lat="39.5224628" lon="8.597813"><ele>257.0</ele><time>2026-05-01T09:33:17.238Z</time></trkpt><trkpt lat="39.5224658" lon="8.5976942"><ele>257.0</ele><time>2026-05-01T09:33:18.238Z</time></trkpt><trkpt lat="39.5224689" lon="8.5975755"><ele>257.83333333333337</ele><time>2026-05-01T09:33:19.239Z</time></trkpt><trkpt lat="39.5224762" lon="8.5974538"><ele>258.6666666666667</ele><time>2026-05-01T09:33:20.239Z</time></trkpt><trkpt lat="39.5224705" lon="8.5973328"><ele>259.5</ele><time>2026-05-01T09:33:21.237Z</time></trkpt><trkpt lat="39.5224565" lon="8.5972299"><ele>260.3333333333333</ele><time>2026-05-01T09:33:22.238Z</time></trkpt><trkpt lat="39.5224037" lon="8.5971352"><ele>261.16666666666663</ele><time>2026-05-01T09:33:23.236Z</time></trkpt><trkpt lat="39.5223478" lon="8.5970427"><ele>262.0</ele><time>2026-05-01T09:33:24.239Z</time></trkpt><trkpt lat="39.5222738" lon="8.5969557"><ele>263.0</ele><time>2026-05-01T09:33:25.237Z</time></trkpt><trkpt lat="39.522215" lon="8.5968643"><ele>264.0</ele><time>2026-05-01T09:33:26.238Z</time></trkpt><trkpt lat="39.5221579" lon="8.5967609"><ele>265.0</ele><time>2026-05-01T09:33:27.239Z</time></trkpt><trkpt lat="39.5221484" lon="8.5966605"><ele>266.0</ele><time>2026-05-01T09:33:28.236Z</time></trkpt><trkpt lat="39.5221383" lon="8.5965481"><ele>267.0</ele><time>2026-05-01T09:33:29.238Z</time></trkpt><trkpt lat="39.5221199" lon="8.5964287"><ele>268.0</ele><time>2026-05-01T09:33:30.237Z</time></trkpt><trkpt lat="39.5221161" lon="8.5963222"><ele>268.0</ele><time>2026-05-01T09:33:31.238Z</time></trkpt><trkpt lat="39.522131" lon="8.5962397"><ele>268.0</ele><time>2026-05-01T09:33:32.237Z</time></trkpt><trkpt lat="39.5221579" lon="8.5961592"><ele>268.0</ele><time>2026-05-01T09:33:33.237Z</time></trkpt><trkpt lat="39.522218" lon="8.596103"><ele>268.0</ele><time>2026-05-01T09:33:34.239Z</time></trkpt><trkpt lat="39.5222915" lon="8.5960638"><ele>268.0</ele><time>2026-05-01T09:33:35.238Z</time></trkpt><trkpt lat="39.5223693" lon="8.5960417"><ele>268.0</ele><time>2026-05-01T09:33:36.238Z</time></trkpt><trkpt lat="39.5224628" lon="8.5960153"><ele>267.8333333333333</ele><time>2026-05-01T09:33:37.238Z</time></trkpt><trkpt lat="39.5225582" lon="8.595983"><ele>267.66666666666663</ele><time>2026-05-01T09:33:38.239Z</time></trkpt><trkpt lat="39.5226473" lon="8.5959604"><ele>267.5</ele><time>2026-05-01T09:33:39.239Z</time></trkpt><trkpt lat="39.5227334" lon="8.5959348"><ele>267.3333333333333</ele><time>2026-05-01T09:33:40.238Z</time></trkpt><trkpt lat="39.5228067" lon="8.5958989"><ele>267.1666666666667</ele><time>2026-05-01T09:33:41.238Z</time></trkpt><trkpt lat="39.5228724" lon="8.5958224"><ele>267.0</ele><time>2026-05-01T09:33:42.238Z</time></trkpt><trkpt lat="39.522935" lon="8.5957381"><ele>268.3333333333333</ele><time>2026-05-01T09:33:43.238Z</time></trkpt><trkpt lat="39.522998" lon="8.5956366"><ele>269.6666666666667</ele><time>2026-05-01T09:33:44.238Z</time></trkpt><trkpt lat="39.5230688" lon="8.5955416"><ele>271.0</ele><time>2026-05-01T09:33:45.237Z</time></trkpt><trkpt lat="39.5231364" lon="8.595468"><ele>272.33333333333337</ele><time>2026-05-01T09:33:46.238Z</time></trkpt><trkpt lat="39.5232073" lon="8.595412"><ele>273.6666666666667</ele><time>2026-05-01T09:33:47.239Z</time></trkpt><trkpt lat="39.5232704" lon="8.5953773"><ele>275.0</ele><time>2026-05-01T09:33:48.239Z</time></trkpt><trkpt lat="39.5233597" lon="8.5953519"><ele>275.0</ele><time>2026-05-01T09:33:50.238Z</time></trkpt><trkpt lat="39.5234363" lon="8.5953407"><ele>275.0</ele><time>2026-05-01T09:33:53.237Z</time></trkpt><trkpt lat="39.5234924" lon="8.595297"><ele>275.0</ele><time>2026-05-01T09:33:56.239Z</time></trkpt><trkpt lat="39.5235478" lon="8.5951912"><ele>275.0</ele><time>2026-05-01T09:33:58.238Z</time></trkpt><trkpt lat="39.5235785" lon="8.5950668"><ele>275.0</ele><time>2026-05-01T09:33:59.238Z</time></trkpt><trkpt lat="39.5235968" lon="8.5949572"><ele>275.0</ele><time>2026-05-01T09:34:00.238Z</time></trkpt><trkpt lat="39.5236182" lon="8.5948366"><ele>273.8</ele><time>2026-05-01T09:34:01.238Z</time></trkpt><trkpt lat="39.5236501" lon="8.5947253"><ele>272.6</ele><time>2026-05-01T09:34:02.239Z</time></trkpt><trkpt lat="39.5236935" lon="8.5946205"><ele>271.4</ele><time>2026-05-01T09:34:03.237Z</time></trkpt><trkpt lat="39.523749" lon="8.5945212"><ele>270.2</ele><time>2026-05-01T09:34:04.237Z</time></trkpt><trkpt lat="39.5238181" lon="8.5944448"><ele>269.0</ele><time>2026-05-01T09:34:05.237Z</time></trkpt><trkpt lat="39.5239011" lon="8.5943845"><ele>266.25</ele><time>2026-05-01T09:34:06.238Z</time></trkpt><trkpt lat="39.5240018" lon="8.5943207"><ele>263.5</ele><time>2026-05-01T09:34:07.237Z</time></trkpt><trkpt lat="39.5241107" lon="8.5942814"><ele>260.75</ele><time>2026-05-01T09:34:08.238Z</time></trkpt><trkpt lat="39.5242239" lon="8.5942332"><ele>258.0</ele><time>2026-05-01T09:34:09.238Z</time></trkpt><trkpt lat="39.5243251" lon="8.5941894"><ele>258.0</ele><time>2026-05-01T09:34:10.238Z</time></trkpt><trkpt lat="39.5244324" lon="8.5941523"><ele>258.0</ele><time>2026-05-01T09:34:11.237Z</time></trkpt><trkpt lat="39.5245368" lon="8.5941128"><ele>258.0</ele><time>2026-05-01T09:34:12.238Z</time></trkpt><trkpt lat="39.5246412" lon="8.5940846"><ele>258.0</ele><time>2026-05-01T09:34:13.239Z</time></trkpt><trkpt lat="39.5247436" lon="8.5940714"><ele>258.0</ele><time>2026-05-01T09:34:14.239Z</time></trkpt><trkpt lat="39.5248475" lon="8.5940715"><ele>258.0</ele><time>2026-05-01T09:34:15.236Z</time></trkpt><trkpt lat="39.5249434" lon="8.5940821"><ele>258.0</ele><time>2026-05-01T09:34:16.237Z</time></trkpt><trkpt lat="39.5250378" lon="8.5940978"><ele>258.0</ele><time>2026-05-01T09:34:17.239Z</time></trkpt><trkpt lat="39.5251282" lon="8.5941078"><ele>258.0</ele><time>2026-05-01T09:34:18.237Z</time></trkpt><trkpt lat="39.5252146" lon="8.5941043"><ele>258.0</ele><time>2026-05-01T09:34:19.236Z</time></trkpt><trkpt lat="39.5252928" lon="8.5940792"><ele>258.0</ele><time>2026-05-01T09:34:20.237Z</time></trkpt><trkpt lat="39.525367" lon="8.5940354"><ele>258.0</ele><time>2026-05-01T09:34:21.238Z</time></trkpt><trkpt lat="39.5253921" lon="8.5939495"><ele>258.0</ele><time>2026-05-01T09:34:22.237Z</time></trkpt><trkpt lat="39.5254028" lon="8.5938359"><ele>258.0</ele><time>2026-05-01T09:34:23.238Z</time></trkpt><trkpt lat="39.5254244" lon="8.5937179"><ele>258.0</ele><time>2026-05-01T09:34:24.237Z</time></trkpt><trkpt lat="39.5254363" lon="8.5935855"><ele>258.0</ele><time>2026-05-01T09:34:25.238Z</time></trkpt><trkpt lat="39.5254664" lon="8.5934462"><ele>257.0</ele><time>2026-05-01T09:34:26.238Z</time></trkpt><trkpt lat="39.5255014" lon="8.5933082"><ele>256.0</ele><time>2026-05-01T09:34:27.238Z</time></trkpt><trkpt lat="39.525541" lon="8.5931666"><ele>255.0</ele><time>2026-05-01T09:34:28.238Z</time></trkpt><trkpt lat="39.5255866" lon="8.5930301"><ele>254.0</ele><time>2026-05-01T09:34:29.237Z</time></trkpt><trkpt lat="39.525634" lon="8.5928915"><ele>255.75</ele><time>2026-05-01T09:34:30.239Z</time></trkpt><trkpt lat="39.5256839" lon="8.5927621"><ele>257.5</ele><time>2026-05-01T09:34:31.239Z</time></trkpt><trkpt lat="39.5257386" lon="8.5926284"><ele>259.25</ele><time>2026-05-01T09:34:32.238Z</time></trkpt><trkpt lat="39.5257884" lon="8.5924988"><ele>261.0</ele><time>2026-05-01T09:34:33.238Z</time></trkpt><trkpt lat="39.5258359" lon="8.5923671"><ele>261.0</ele><time>2026-05-01T09:34:34.238Z</time></trkpt><trkpt lat="39.5258628" lon="8.5922426"><ele>261.0</ele><time>2026-05-01T09:34:35.236Z</time></trkpt><trkpt lat="39.5258757" lon="8.5921316"><ele>261.0</ele><time>2026-05-01T09:34:36.238Z</time></trkpt><trkpt lat="39.5258672" lon="8.5920396"><ele>261.0</ele><time>2026-05-01T09:34:37.238Z</time></trkpt><trkpt lat="39.5258361" lon="8.5919438"><ele>261.0</ele><time>2026-05-01T09:34:38.239Z</time></trkpt><trkpt lat="39.5257854" lon="8.5918563"><ele>261.0</ele><time>2026-05-01T09:34:39.237Z</time></trkpt><trkpt lat="39.5257212" lon="8.5917665"><ele>261.40000000000003</ele><time>2026-05-01T09:34:40.238Z</time></trkpt><trkpt lat="39.5256537" lon="8.5916647"><ele>261.8</ele><time>2026-05-01T09:34:41.236Z</time></trkpt><trkpt lat="39.5255867" lon="8.5915683"><ele>262.20000000000005</ele><time>2026-05-01T09:34:42.236Z</time></trkpt><trkpt lat="39.5255215" lon="8.5914725"><ele>262.6</ele><time>2026-05-01T09:34:43.238Z</time></trkpt><trkpt lat="39.5254656" lon="8.5913799"><ele>263.0</ele><time>2026-05-01T09:34:44.238Z</time></trkpt><trkpt lat="39.5254085" lon="8.5912947"><ele>262.1666666666667</ele><time>2026-05-01T09:34:45.239Z</time></trkpt><trkpt lat="39.5253527" lon="8.5912073"><ele>261.33333333333337</ele><time>2026-05-01T09:34:46.239Z</time></trkpt><trkpt lat="39.5252959" lon="8.5911182"><ele>260.5</ele><time>2026-05-01T09:34:47.238Z</time></trkpt><trkpt lat="39.5252399" lon="8.591036"><ele>259.6666666666667</ele><time>2026-05-01T09:34:48.239Z</time></trkpt><trkpt lat="39.5251833" lon="8.5909502"><ele>258.8333333333333</ele><time>2026-05-01T09:34:49.237Z</time></trkpt><trkpt lat="39.5251371" lon="8.590856"><ele>258.0</ele><time>2026-05-01T09:34:50.239Z</time></trkpt><trkpt lat="39.5251108" lon="8.5907423"><ele>257.2</ele><time>2026-05-01T09:34:51.238Z</time></trkpt><trkpt lat="39.525102" lon="8.5906236"><ele>256.4</ele><time>2026-05-01T09:34:52.237Z</time></trkpt><trkpt lat="39.5251173" lon="8.5905013"><ele>255.59999999999997</ele><time>2026-05-01T09:34:53.238Z</time></trkpt><trkpt lat="39.525133" lon="8.5903725"><ele>254.79999999999998</ele><time>2026-05-01T09:34:54.237Z</time></trkpt><trkpt lat="39.5251547" lon="8.5902385"><ele>254.0</ele><time>2026-05-01T09:34:55.237Z</time></trkpt><trkpt lat="39.525177" lon="8.5900947"><ele>253.39999999999998</ele><time>2026-05-01T09:34:56.238Z</time></trkpt><trkpt lat="39.5251929" lon="8.5899582"><ele>252.79999999999998</ele><time>2026-05-01T09:34:57.239Z</time></trkpt><trkpt lat="39.5251931" lon="8.5898244"><ele>252.20000000000002</ele><time>2026-05-01T09:34:58.239Z</time></trkpt><trkpt lat="39.5251689" lon="8.589704"><ele>251.60000000000002</ele><time>2026-05-01T09:34:59.236Z</time></trkpt><trkpt lat="39.5251144" lon="8.5896003"><ele>251.0</ele><time>2026-05-01T09:35:00.238Z</time></trkpt><trkpt lat="39.5250378" lon="8.5895304"><ele>251.0</ele><time>2026-05-01T09:35:01.237Z</time></trkpt><trkpt lat="39.5249512" lon="8.5894597"><ele>251.00000000000003</ele><time>2026-05-01T09:35:02.238Z</time></trkpt><trkpt lat="39.5248674" lon="8.5893802"><ele>251.00000000000003</ele><time>2026-05-01T09:35:03.238Z</time></trkpt><trkpt lat="39.5247926" lon="8.5892984"><ele>251.0</ele><time>2026-05-01T09:35:04.239Z</time></trkpt><trkpt lat="39.5247376" lon="8.5892047"><ele>251.0</ele><time>2026-05-01T09:35:05.237Z</time></trkpt><trkpt lat="39.5246853" lon="8.5891014"><ele>251.0</ele><time>2026-05-01T09:35:06.236Z</time></trkpt><trkpt lat="39.5246826" lon="8.5889618"><ele>251.00000000000003</ele><time>2026-05-01T09:35:07.238Z</time></trkpt><trkpt lat="39.5246794" lon="8.5888275"><ele>251.00000000000003</ele><time>2026-05-01T09:35:08.239Z</time></trkpt><trkpt lat="39.5246916" lon="8.5886888"><ele>251.0</ele><time>2026-05-01T09:35:09.236Z</time></trkpt><trkpt lat="39.5247204" lon="8.5885566"><ele>251.0</ele><time>2026-05-01T09:35:10.238Z</time></trkpt><trkpt lat="39.5247435" lon="8.5884115"><ele>251.0</ele><time>2026-05-01T09:35:11.238Z</time></trkpt><trkpt lat="39.5247527" lon="8.5882713"><ele>251.00000000000003</ele><time>2026-05-01T09:35:12.239Z</time></trkpt><trkpt lat="39.5247515" lon="8.5881474"><ele>251.00000000000003</ele><time>2026-05-01T09:35:13.237Z</time></trkpt><trkpt lat="39.5247219" lon="8.5880277"><ele>251.0</ele><time>2026-05-01T09:35:14.237Z</time></trkpt><trkpt lat="39.5246601" lon="8.5879291"><ele>251.0</ele><time>2026-05-01T09:35:15.236Z</time></trkpt><trkpt lat="39.5245746" lon="8.5878666"><ele>250.20000000000002</ele><time>2026-05-01T09:35:16.237Z</time></trkpt><trkpt lat="39.5244779" lon="8.587841"><ele>249.40000000000003</ele><time>2026-05-01T09:35:17.236Z</time></trkpt><trkpt lat="39.5243832" lon="8.5878513"><ele>248.6</ele><time>2026-05-01T09:35:18.236Z</time></trkpt><trkpt lat="39.5242987" lon="8.5879126"><ele>247.8</ele><time>2026-05-01T09:35:19.238Z</time></trkpt><trkpt lat="39.5242278" lon="8.5880005"><ele>247.0</ele><time>2026-05-01T09:35:20.239Z</time></trkpt><trkpt lat="39.5241541" lon="8.5880769"><ele>246.8</ele><time>2026-05-01T09:35:21.237Z</time></trkpt><trkpt lat="39.5240658" lon="8.5881306"><ele>246.6</ele><time>2026-05-01T09:35:22.238Z</time></trkpt><trkpt lat="39.5239737" lon="8.5881563"><ele>246.40000000000003</ele><time>2026-05-01T09:35:23.237Z</time></trkpt><trkpt lat="39.523874" lon="8.5881568"><ele>246.20000000000002</ele><time>2026-05-01T09:35:24.238Z</time></trkpt><trkpt lat="39.5237622" lon="8.5881391"><ele>246.0</ele><time>2026-05-01T09:35:25.237Z</time></trkpt><trkpt lat="39.5236404" lon="8.5881148"><ele>246.0</ele><time>2026-05-01T09:35:26.239Z</time></trkpt><trkpt lat="39.5235093" lon="8.5880956"><ele>246.0</ele><time>2026-05-01T09:35:27.237Z</time></trkpt><trkpt lat="39.5233823" lon="8.5880742"><ele>246.0</ele><time>2026-05-01T09:35:28.237Z</time></trkpt><trkpt lat="39.523271" lon="8.5880355"><ele>246.0</ele><time>2026-05-01T09:35:29.238Z</time></trkpt><trkpt lat="39.5231556" lon="8.5879747"><ele>246.0</ele><time>2026-05-01T09:35:30.239Z</time></trkpt><trkpt lat="39.5230846" lon="8.587846"><ele>246.0</ele><time>2026-05-01T09:35:31.236Z</time></trkpt><trkpt lat="39.5230246" lon="8.587717"><ele>246.0</ele><time>2026-05-01T09:35:32.238Z</time></trkpt><trkpt lat="39.5229738" lon="8.5875539"><ele>246.0</ele><time>2026-05-01T09:35:33.238Z</time></trkpt><trkpt lat="39.5229301" lon="8.5873741"><ele>246.0</ele><time>2026-05-01T09:35:34.237Z</time></trkpt><trkpt lat="39.5228941" lon="8.5872044"><ele>246.0</ele><time>2026-05-01T09:35:35.238Z</time></trkpt><trkpt lat="39.5228782" lon="8.5870282"><ele>246.0</ele><time>2026-05-01T09:35:36.237Z</time></trkpt><trkpt lat="39.5228965" lon="8.5868531"><ele>246.0</ele><time>2026-05-01T09:35:37.236Z</time></trkpt><trkpt lat="39.5229046" lon="8.5866992"><ele>248.20000000000002</ele><time>2026-05-01T09:35:38.238Z</time></trkpt><trkpt lat="39.5228854" lon="8.5865609"><ele>250.40000000000003</ele><time>2026-05-01T09:35:39.238Z</time></trkpt><trkpt lat="39.5228347" lon="8.5864493"><ele>252.6</ele><time>2026-05-01T09:35:40.237Z</time></trkpt><trkpt lat="39.5227498" lon="8.5863856"><ele>254.8</ele><time>2026-05-01T09:35:41.237Z</time></trkpt><trkpt lat="39.5226491" lon="8.586381"><ele>257.0</ele><time>2026-05-01T09:35:42.237Z</time></trkpt><trkpt lat="39.5225453" lon="8.5863985"><ele>257.0</ele><time>2026-05-01T09:35:43.237Z</time></trkpt><trkpt lat="39.5224314" lon="8.5864414"><ele>257.0</ele><time>2026-05-01T09:35:44.238Z</time></trkpt><trkpt lat="39.5223058" lon="8.5864626"><ele>257.0</ele><time>2026-05-01T09:35:45.238Z</time></trkpt><trkpt lat="39.5221787" lon="8.5864344"><ele>257.0</ele><time>2026-05-01T09:35:46.238Z</time></trkpt><trkpt lat="39.5220618" lon="8.5863662"><ele>257.4</ele><time>2026-05-01T09:35:47.237Z</time></trkpt><trkpt lat="39.5219584" lon="8.5862709"><ele>257.79999999999995</ele><time>2026-05-01T09:35:48.239Z</time></trkpt><trkpt lat="39.5218723" lon="8.5861577"><ele>258.2</ele><time>2026-05-01T09:35:49.237Z</time></trkpt><trkpt lat="39.521826" lon="8.5860412"><ele>258.59999999999997</ele><time>2026-05-01T09:35:50.238Z</time></trkpt><trkpt lat="39.5218203" lon="8.5859304"><ele>259.0</ele><time>2026-05-01T09:35:51.237Z</time></trkpt><trkpt lat="39.5218472" lon="8.5858103"><ele>260.25</ele><time>2026-05-01T09:35:52.237Z</time></trkpt><trkpt lat="39.5218958" lon="8.5856605"><ele>261.5</ele><time>2026-05-01T09:35:53.238Z</time></trkpt><trkpt lat="39.5219613" lon="8.5854769"><ele>262.75</ele><time>2026-05-01T09:35:54.237Z</time></trkpt><trkpt lat="39.5220265" lon="8.5852824"><ele>264.0</ele><time>2026-05-01T09:35:55.238Z</time></trkpt><trkpt lat="39.5220961" lon="8.5850622"><ele>267.5</ele><time>2026-05-01T09:35:56.239Z</time></trkpt><trkpt lat="39.5221609" lon="8.5848606"><ele>271.0</ele><time>2026-05-01T09:35:57.238Z</time></trkpt><trkpt lat="39.522207" lon="8.5846803"><ele>274.5</ele><time>2026-05-01T09:35:58.238Z</time></trkpt><trkpt lat="39.5222103" lon="8.5845243"><ele>278.0</ele><time>2026-05-01T09:35:59.238Z</time></trkpt><trkpt lat="39.5221838" lon="8.5843795"><ele>277.5</ele><time>2026-05-01T09:36:00.238Z</time></trkpt><trkpt lat="39.5221256" lon="8.5842471"><ele>277.0</ele><time>2026-05-01T09:36:01.239Z</time></trkpt><trkpt lat="39.5220308" lon="8.5841069"><ele>276.5</ele><time>2026-05-01T09:36:02.237Z</time></trkpt><trkpt lat="39.5219268" lon="8.5839587"><ele>276.0</ele><time>2026-05-01T09:36:03.239Z</time></trkpt><trkpt lat="39.521794" lon="8.5838046"><ele>279.0</ele><time>2026-05-01T09:36:04.238Z</time></trkpt><trkpt lat="39.5216585" lon="8.5836333"><ele>282.0</ele><time>2026-05-01T09:36:05.237Z</time></trkpt><trkpt lat="39.5215205" lon="8.5834534"><ele>285.0</ele><time>2026-05-01T09:36:06.239Z</time></trkpt><trkpt lat="39.5213783" lon="8.5832687"><ele>285.0</ele><time>2026-05-01T09:36:07.238Z</time></trkpt><trkpt lat="39.5212608" lon="8.583122"><ele>285.0</ele><time>2026-05-01T09:36:08.239Z</time></trkpt><trkpt lat="39.5211562" lon="8.582986"><ele>285.0</ele><time>2026-05-01T09:36:09.237Z</time></trkpt><trkpt lat="39.521062" lon="8.5828645"><ele>285.0</ele><time>2026-05-01T09:36:10.237Z</time></trkpt><trkpt lat="39.5209797" lon="8.5827539"><ele>285.25</ele><time>2026-05-01T09:36:11.237Z</time></trkpt><trkpt lat="39.5208909" lon="8.5826359"><ele>285.5</ele><time>2026-05-01T09:36:12.237Z</time></trkpt><trkpt lat="39.5207984" lon="8.5825144"><ele>285.75</ele><time>2026-05-01T09:36:13.237Z</time></trkpt><trkpt lat="39.5206977" lon="8.5823884"><ele>286.0</ele><time>2026-05-01T09:36:14.238Z</time></trkpt><trkpt lat="39.5205898" lon="8.5822579"><ele>286.0</ele><time>2026-05-01T09:36:15.239Z</time></trkpt><trkpt lat="39.5204854" lon="8.5821315"><ele>286.0</ele><time>2026-05-01T09:36:16.238Z</time></trkpt><trkpt lat="39.520392" lon="8.5820084"><ele>286.0</ele><time>2026-05-01T09:36:17.236Z</time></trkpt><trkpt lat="39.5203289" lon="8.5818879"><ele>286.0</ele><time>2026-05-01T09:36:18.236Z</time></trkpt><trkpt lat="39.5202994" lon="8.5817517"><ele>287.25</ele><time>2026-05-01T09:36:19.237Z</time></trkpt><trkpt lat="39.5202998" lon="8.5816163"><ele>288.5</ele><time>2026-05-01T09:36:20.238Z</time></trkpt><trkpt lat="39.5203143" lon="8.5814724"><ele>289.75</ele><time>2026-05-01T09:36:21.237Z</time></trkpt><trkpt lat="39.5203396" lon="8.5813044"><ele>291.0</ele><time>2026-05-01T09:36:22.237Z</time></trkpt><trkpt lat="39.5203534" lon="8.5811324"><ele>293.25</ele><time>2026-05-01T09:36:23.236Z</time></trkpt><trkpt lat="39.5203463" lon="8.5809577"><ele>295.5</ele><time>2026-05-01T09:36:24.237Z</time></trkpt><trkpt lat="39.5203151" lon="8.580784"><ele>297.75</ele><time>2026-05-01T09:36:25.238Z</time></trkpt><trkpt lat="39.5202696" lon="8.5806272"><ele>300.0</ele><time>2026-05-01T09:36:26.238Z</time></trkpt><trkpt lat="39.520221" lon="8.580485"><ele>300.0</ele><time>2026-05-01T09:36:27.237Z</time></trkpt><trkpt lat="39.520185" lon="8.5803621"><ele>300.0</ele><time>2026-05-01T09:36:28.237Z</time></trkpt><trkpt lat="39.5201555" lon="8.58026"><ele>300.0</ele><time>2026-05-01T09:36:29.238Z</time></trkpt><trkpt lat="39.5201257" lon="8.58017"><ele>300.0</ele><time>2026-05-01T09:36:30.238Z</time></trkpt><trkpt lat="39.5201059" lon="8.5800909"><ele>300.0</ele><time>2026-05-01T09:36:31.236Z</time></trkpt><trkpt lat="39.5200855" lon="8.579951"><ele>300.0</ele><time>2026-05-01T09:36:33.237Z</time></trkpt><trkpt lat="39.520064" lon="8.5797719"><ele>301.75</ele><time>2026-05-01T09:36:35.237Z</time></trkpt><trkpt lat="39.5200455" lon="8.5796419"><ele>303.5</ele><time>2026-05-01T09:36:36.238Z</time></trkpt><trkpt lat="39.5200402" lon="8.579477"><ele>305.25</ele><time>2026-05-01T09:36:37.239Z</time></trkpt><trkpt lat="39.5200413" lon="8.5792938"><ele>307.0</ele><time>2026-05-01T09:36:38.236Z</time></trkpt><trkpt lat="39.5200298" lon="8.5790691"><ele>307.0</ele><time>2026-05-01T09:36:39.237Z</time></trkpt><trkpt lat="39.5200049" lon="8.5788595"><ele>307.0</ele><time>2026-05-01T09:36:40.237Z</time></trkpt><trkpt lat="39.5199765" lon="8.5786623"><ele>307.0</ele><time>2026-05-01T09:36:41.236Z</time></trkpt><trkpt lat="39.519939" lon="8.5784985"><ele>307.0</ele><time>2026-05-01T09:36:42.237Z</time></trkpt><trkpt lat="39.519911" lon="8.5783541"><ele>307.0</ele><time>2026-05-01T09:36:43.237Z</time></trkpt><trkpt lat="39.5199162" lon="8.5782156"><ele>307.0</ele><time>2026-05-01T09:36:44.238Z</time></trkpt><trkpt lat="39.5199457" lon="8.5780789"><ele>307.0</ele><time>2026-05-01T09:36:45.238Z</time></trkpt><trkpt lat="39.5200066" lon="8.5779488"><ele>307.0</ele><time>2026-05-01T09:36:46.238Z</time></trkpt><trkpt lat="39.5200892" lon="8.5778235"><ele>304.0</ele><time>2026-05-01T09:36:47.237Z</time></trkpt><trkpt lat="39.5201697" lon="8.5776739"><ele>301.0</ele><time>2026-05-01T09:36:48.238Z</time></trkpt><trkpt lat="39.5202249" lon="8.5775058"><ele>298.0</ele><time>2026-05-01T09:36:49.238Z</time></trkpt><trkpt lat="39.5202606" lon="8.5773044"><ele>295.0</ele><time>2026-05-01T09:36:50.238Z</time></trkpt><trkpt lat="39.5202866" lon="8.5770916"><ele>293.0</ele><time>2026-05-01T09:36:51.238Z</time></trkpt><trkpt lat="39.520312" lon="8.576871"><ele>291.0</ele><time>2026-05-01T09:36:52.237Z</time></trkpt><trkpt lat="39.5203409" lon="8.576655"><ele>289.0</ele><time>2026-05-01T09:36:53.236Z</time></trkpt><trkpt lat="39.5203697" lon="8.5764496"><ele>289.0</ele><time>2026-05-01T09:36:54.237Z</time></trkpt><trkpt lat="39.5203924" lon="8.5762795"><ele>289.0</ele><time>2026-05-01T09:36:55.236Z</time></trkpt><trkpt lat="39.5203706" lon="8.5761066"><ele>289.0</ele><time>2026-05-01T09:36:56.237Z</time></trkpt><trkpt lat="39.5203256" lon="8.5759383"><ele>289.0</ele><time>2026-05-01T09:36:57.238Z</time></trkpt><trkpt lat="39.5202483" lon="8.5757816"><ele>289.66666666666663</ele><time>2026-05-01T09:36:58.236Z</time></trkpt><trkpt lat="39.5201507" lon="8.5756148"><ele>290.3333333333333</ele><time>2026-05-01T09:36:59.238Z</time></trkpt><trkpt lat="39.5200448" lon="8.5754271"><ele>291.0</ele><time>2026-05-01T09:37:00.237Z</time></trkpt><trkpt lat="39.5199391" lon="8.5752591"><ele>294.6666666666667</ele><time>2026-05-01T09:37:01.236Z</time></trkpt><trkpt lat="39.5198423" lon="8.5750887"><ele>298.33333333333337</ele><time>2026-05-01T09:37:02.238Z</time></trkpt><trkpt lat="39.5197659" lon="8.5749235"><ele>302.0</ele><time>2026-05-01T09:37:03.239Z</time></trkpt><trkpt lat="39.5197291" lon="8.5747477"><ele>302.0</ele><time>2026-05-01T09:37:04.236Z</time></trkpt><trkpt lat="39.519729" lon="8.5745868"><ele>302.0</ele><time>2026-05-01T09:37:05.238Z</time></trkpt><trkpt lat="39.5197677" lon="8.57445"><ele>302.0</ele><time>2026-05-01T09:37:06.237Z</time></trkpt><trkpt lat="39.5198472" lon="8.5743374"><ele>302.0</ele><time>2026-05-01T09:37:07.237Z</time></trkpt><trkpt lat="39.5199433" lon="8.5742389"><ele>300.75</ele><time>2026-05-01T09:37:08.238Z</time></trkpt><trkpt lat="39.5200065" lon="8.5741128"><ele>299.5</ele><time>2026-05-01T09:37:09.238Z</time></trkpt><trkpt lat="39.5200336" lon="8.5739755"><ele>298.25</ele><time>2026-05-01T09:37:10.237Z</time></trkpt><trkpt lat="39.5200044" lon="8.5738125"><ele>297.0</ele><time>2026-05-01T09:37:11.238Z</time></trkpt><trkpt lat="39.5199996" lon="8.5736292"><ele>294.0</ele><time>2026-05-01T09:37:12.237Z</time></trkpt><trkpt lat="39.520043" lon="8.5734238"><ele>291.0</ele><time>2026-05-01T09:37:13.237Z</time></trkpt><trkpt lat="39.5200994" lon="8.573224"><ele>288.0</ele><time>2026-05-01T09:37:14.239Z</time></trkpt><trkpt lat="39.5201748" lon="8.573038"><ele>288.0</ele><time>2026-05-01T09:37:15.237Z</time></trkpt><trkpt lat="39.5202741" lon="8.5728652"><ele>288.0</ele><time>2026-05-01T09:37:16.236Z</time></trkpt><trkpt lat="39.5203787" lon="8.5726947"><ele>288.0</ele><time>2026-05-01T09:37:17.237Z</time></trkpt><trkpt lat="39.5204839" lon="8.5725211"><ele>290.5</ele><time>2026-05-01T09:37:18.238Z</time></trkpt><trkpt lat="39.5205762" lon="8.57236"><ele>293.0</ele><time>2026-05-01T09:37:19.237Z</time></trkpt><trkpt lat="39.5206709" lon="8.5722092"><ele>295.5</ele><time>2026-05-01T09:37:20.238Z</time></trkpt><trkpt lat="39.5207534" lon="8.5720771"><ele>298.0</ele><time>2026-05-01T09:37:21.237Z</time></trkpt><trkpt lat="39.5208231" lon="8.5719521"><ele>298.0</ele><time>2026-05-01T09:37:22.237Z</time></trkpt><trkpt lat="39.5208421" lon="8.5718398"><ele>298.0</ele><time>2026-05-01T09:37:23.238Z</time></trkpt><trkpt lat="39.5208263" lon="8.5717308"><ele>298.0</ele><time>2026-05-01T09:37:24.236Z</time></trkpt><trkpt lat="39.5207689" lon="8.57166"><ele>298.0</ele><time>2026-05-01T09:37:25.237Z</time></trkpt><trkpt lat="39.520675" lon="8.5716131"><ele>298.0</ele><time>2026-05-01T09:37:26.237Z</time></trkpt><trkpt lat="39.5205599" lon="8.5716412"><ele>298.0</ele><time>2026-05-01T09:37:27.238Z</time></trkpt><trkpt lat="39.5204382" lon="8.5717098"><ele>298.0</ele><time>2026-05-01T09:37:28.238Z</time></trkpt><trkpt lat="39.5202962" lon="8.5717847"><ele>298.0</ele><time>2026-05-01T09:37:29.237Z</time></trkpt><trkpt lat="39.5201749" lon="8.5718694"><ele>298.0</ele><time>2026-05-01T09:37:30.237Z</time></trkpt><trkpt lat="39.5200386" lon="8.5719287"><ele>299.25</ele><time>2026-05-01T09:37:31.237Z</time></trkpt><trkpt lat="39.5199033" lon="8.5719528"><ele>300.5</ele><time>2026-05-01T09:37:32.237Z</time></trkpt><trkpt lat="39.5197589" lon="8.5719732"><ele>301.75</ele><time>2026-05-01T09:37:33.237Z</time></trkpt><trkpt lat="39.519627" lon="8.5719686"><ele>303.0</ele><time>2026-05-01T09:37:34.236Z</time></trkpt><trkpt lat="39.5194973" lon="8.5719375"><ele>304.25</ele><time>2026-05-01T09:37:35.238Z</time></trkpt><trkpt lat="39.519369" lon="8.5719058"><ele>305.5</ele><time>2026-05-01T09:37:36.237Z</time></trkpt><trkpt lat="39.519255" lon="8.5718938"><ele>306.75</ele><time>2026-05-01T09:37:37.239Z</time></trkpt><trkpt lat="39.5191355" lon="8.5718925"><ele>308.0</ele><time>2026-05-01T09:37:38.237Z</time></trkpt><trkpt lat="39.5190257" lon="8.571892"><ele>308.0</ele><time>2026-05-01T09:37:39.236Z</time></trkpt><trkpt lat="39.5189369" lon="8.5718691"><ele>308.0</ele><time>2026-05-01T09:37:40.237Z</time></trkpt><trkpt lat="39.5188752" lon="8.5718207"><ele>308.0</ele><time>2026-05-01T09:37:41.236Z</time></trkpt><trkpt lat="39.5188398" lon="8.57175"><ele>308.0</ele><time>2026-05-01T09:37:42.237Z</time></trkpt><trkpt lat="39.5188144" lon="8.5716631"><ele>308.0</ele><time>2026-05-01T09:37:43.237Z</time></trkpt><trkpt lat="39.5188138" lon="8.57153"><ele>308.0</ele><time>2026-05-01T09:37:44.237Z</time></trkpt><trkpt lat="39.5187967" lon="8.5714048"><ele>308.0</ele><time>2026-05-01T09:37:45.237Z</time></trkpt><trkpt lat="39.5187472" lon="8.5712985"><ele>308.0</ele><time>2026-05-01T09:37:46.236Z</time></trkpt><trkpt lat="39.5186711" lon="8.5712241"><ele>308.0</ele><time>2026-05-01T09:37:47.238Z</time></trkpt><trkpt lat="39.5185738" lon="8.5711852"><ele>308.0</ele><time>2026-05-01T09:37:48.238Z</time></trkpt><trkpt lat="39.5184904" lon="8.5711592"><ele>308.0</ele><time>2026-05-01T09:37:49.238Z</time></trkpt><trkpt lat="39.5184147" lon="8.5711226"><ele>308.6</ele><time>2026-05-01T09:37:50.238Z</time></trkpt><trkpt lat="39.5183544" lon="8.5710546"><ele>309.20000000000005</ele><time>2026-05-01T09:37:51.237Z</time></trkpt><trkpt lat="39.5183148" lon="8.5709565"><ele>309.8</ele><time>2026-05-01T09:37:52.236Z</time></trkpt><trkpt lat="39.5182813" lon="8.5708422"><ele>310.40000000000003</ele><time>2026-05-01T09:37:53.237Z</time></trkpt><trkpt lat="39.5182584" lon="8.5706939"><ele>311.0</ele><time>2026-05-01T09:37:54.237Z</time></trkpt><trkpt lat="39.5182327" lon="8.5705243"><ele>311.0</ele><time>2026-05-01T09:37:55.237Z</time></trkpt><trkpt lat="39.5182196" lon="8.5703507"><ele>311.0</ele><time>2026-05-01T09:37:56.237Z</time></trkpt><trkpt lat="39.5181998" lon="8.5701812"><ele>311.0</ele><time>2026-05-01T09:37:57.238Z</time></trkpt><trkpt lat="39.5181726" lon="8.5699954"><ele>311.0</ele><time>2026-05-01T09:37:58.238Z</time></trkpt><trkpt lat="39.5181475" lon="8.5698011"><ele>311.0</ele><time>2026-05-01T09:37:59.236Z</time></trkpt><trkpt lat="39.5181265" lon="8.569599"><ele>311.0</ele><time>2026-05-01T09:38:00.238Z</time></trkpt><trkpt lat="39.5181011" lon="8.5694095"><ele>311.0</ele><time>2026-05-01T09:38:01.237Z</time></trkpt><trkpt lat="39.5180824" lon="8.5692234"><ele>310.5</ele><time>2026-05-01T09:38:02.237Z</time></trkpt><trkpt lat="39.518062" lon="8.5690482"><ele>310.0</ele><time>2026-05-01T09:38:03.238Z</time></trkpt><trkpt lat="39.5180508" lon="8.568867"><ele>309.5</ele><time>2026-05-01T09:38:04.238Z</time></trkpt><trkpt lat="39.5180402" lon="8.5686798"><ele>309.0</ele><time>2026-05-01T09:38:05.237Z</time></trkpt><trkpt lat="39.5180448" lon="8.5684915"><ele>309.0</ele><time>2026-05-01T09:38:06.238Z</time></trkpt><trkpt lat="39.5180642" lon="8.5683166"><ele>309.0</ele><time>2026-05-01T09:38:07.237Z</time></trkpt><trkpt lat="39.5180853" lon="8.5681517"><ele>309.0</ele><time>2026-05-01T09:38:08.238Z</time></trkpt><trkpt lat="39.5181303" lon="8.5680082"><ele>309.0</ele><time>2026-05-01T09:38:09.236Z</time></trkpt><trkpt lat="39.5181809" lon="8.5678669"><ele>308.0</ele><time>2026-05-01T09:38:10.237Z</time></trkpt><trkpt lat="39.5182729" lon="8.5676986"><ele>307.0</ele><time>2026-05-01T09:38:11.236Z</time></trkpt><trkpt lat="39.5183503" lon="8.567546"><ele>306.0</ele><time>2026-05-01T09:38:12.237Z</time></trkpt><trkpt lat="39.5184264" lon="8.5673728"><ele>306.0</ele><time>2026-05-01T09:38:13.237Z</time></trkpt><trkpt lat="39.5184879" lon="8.5671956"><ele>306.0</ele><time>2026-05-01T09:38:14.237Z</time></trkpt><trkpt lat="39.5185304" lon="8.5670039"><ele>306.0</ele><time>2026-05-01T09:38:15.236Z</time></trkpt><trkpt lat="39.5185569" lon="8.566808"><ele>305.0</ele><time>2026-05-01T09:38:16.237Z</time></trkpt><trkpt lat="39.518558" lon="8.5666032"><ele>304.0</ele><time>2026-05-01T09:38:17.236Z</time></trkpt><trkpt lat="39.5185468" lon="8.5663908"><ele>303.0</ele><time>2026-05-01T09:38:18.237Z</time></trkpt><trkpt lat="39.5185303" lon="8.5661861"><ele>303.0</ele><time>2026-05-01T09:38:19.237Z</time></trkpt><trkpt lat="39.518515" lon="8.5659939"><ele>303.0</ele><time>2026-05-01T09:38:20.238Z</time></trkpt><trkpt lat="39.5185002" lon="8.5658152"><ele>303.0</ele><time>2026-05-01T09:38:21.237Z</time></trkpt><trkpt lat="39.5184916" lon="8.5656565"><ele>303.0</ele><time>2026-05-01T09:38:22.238Z</time></trkpt><trkpt lat="39.5184928" lon="8.5654923"><ele>303.6</ele><time>2026-05-01T09:38:23.237Z</time></trkpt><trkpt lat="39.5185078" lon="8.5653345"><ele>304.20000000000005</ele><time>2026-05-01T09:38:24.238Z</time></trkpt><trkpt lat="39.5185307" lon="8.5651914"><ele>304.8</ele><time>2026-05-01T09:38:25.237Z</time></trkpt><trkpt lat="39.5185502" lon="8.5650704"><ele>305.40000000000003</ele><time>2026-05-01T09:38:26.237Z</time></trkpt><trkpt lat="39.5185397" lon="8.5649571"><ele>306.0</ele><time>2026-05-01T09:38:27.238Z</time></trkpt><trkpt lat="39.5185046" lon="8.5648613"><ele>306.0</ele><time>2026-05-01T09:38:28.236Z</time></trkpt><trkpt lat="39.5184136" lon="8.5647895"><ele>306.0</ele><time>2026-05-01T09:38:29.238Z</time></trkpt><trkpt lat="39.518297" lon="8.5647283"><ele>306.0</ele><time>2026-05-01T09:38:30.237Z</time></trkpt><trkpt lat="39.5181471" lon="8.5646589"><ele>306.0</ele><time>2026-05-01T09:38:31.238Z</time></trkpt><trkpt lat="39.5179621" lon="8.5645755"><ele>308.0</ele><time>2026-05-01T09:38:32.238Z</time></trkpt><trkpt lat="39.5177901" lon="8.5644872"><ele>310.0</ele><time>2026-05-01T09:38:33.237Z</time></trkpt><trkpt lat="39.5176267" lon="8.5644089"><ele>312.0</ele><time>2026-05-01T09:38:34.238Z</time></trkpt><trkpt lat="39.517471" lon="8.5643333"><ele>312.0</ele><time>2026-05-01T09:38:35.238Z</time></trkpt><trkpt lat="39.5173291" lon="8.5642516"><ele>312.0</ele><time>2026-05-01T09:38:36.238Z</time></trkpt><trkpt lat="39.5172178" lon="8.5641453"><ele>312.0</ele><time>2026-05-01T09:38:37.237Z</time></trkpt><trkpt lat="39.5171318" lon="8.5639926"><ele>312.0</ele><time>2026-05-01T09:38:38.237Z</time></trkpt><trkpt lat="39.5170569" lon="8.563826"><ele>311.3333333333333</ele><time>2026-05-01T09:38:39.237Z</time></trkpt><trkpt lat="39.5169861" lon="8.563626"><ele>310.66666666666663</ele><time>2026-05-01T09:38:40.237Z</time></trkpt><trkpt lat="39.5169215" lon="8.5634097"><ele>310.0</ele><time>2026-05-01T09:38:41.238Z</time></trkpt><trkpt lat="39.5168626" lon="8.5631875"><ele>310.0</ele><time>2026-05-01T09:38:42.237Z</time></trkpt><trkpt lat="39.5168068" lon="8.5629706"><ele>310.0</ele><time>2026-05-01T09:38:43.237Z</time></trkpt><trkpt lat="39.5167603" lon="8.5627674"><ele>310.0</ele><time>2026-05-01T09:38:44.237Z</time></trkpt><trkpt lat="39.5167065" lon="8.5625792"><ele>311.66666666666663</ele><time>2026-05-01T09:38:45.236Z</time></trkpt><trkpt lat="39.5166328" lon="8.562406"><ele>313.3333333333333</ele><time>2026-05-01T09:38:46.238Z</time></trkpt><trkpt lat="39.5165309" lon="8.5622505"><ele>315.0</ele><time>2026-05-01T09:38:47.238Z</time></trkpt><trkpt lat="39.5164163" lon="8.5621085"><ele>314.75</ele><time>2026-05-01T09:38:48.236Z</time></trkpt><trkpt lat="39.5163114" lon="8.5619733"><ele>314.5</ele><time>2026-05-01T09:38:49.237Z</time></trkpt><trkpt lat="39.5162144" lon="8.5618582"><ele>314.25</ele><time>2026-05-01T09:38:50.238Z</time></trkpt><trkpt lat="39.5161313" lon="8.5617573"><ele>314.0</ele><time>2026-05-01T09:38:51.237Z</time></trkpt><trkpt lat="39.516062" lon="8.5616609"><ele>314.0</ele><time>2026-05-01T09:38:52.237Z</time></trkpt><trkpt lat="39.5160016" lon="8.5615719"><ele>314.0</ele><time>2026-05-01T09:38:53.236Z</time></trkpt><trkpt lat="39.5159303" lon="8.5614786"><ele>314.0</ele><time>2026-05-01T09:38:54.237Z</time></trkpt><trkpt lat="39.5158875" lon="8.5613717"><ele>314.0</ele><time>2026-05-01T09:38:55.237Z</time></trkpt><trkpt lat="39.5158556" lon="8.5612416"><ele>314.0</ele><time>2026-05-01T09:38:56.238Z</time></trkpt><trkpt lat="39.5158238" lon="8.5610934"><ele>314.25</ele><time>2026-05-01T09:38:57.237Z</time></trkpt><trkpt lat="39.515823" lon="8.5609341"><ele>314.5</ele><time>2026-05-01T09:38:58.237Z</time></trkpt><trkpt lat="39.5158415" lon="8.5607802"><ele>314.75</ele><time>2026-05-01T09:38:59.237Z</time></trkpt><trkpt lat="39.5158855" lon="8.5606333"><ele>315.0</ele><time>2026-05-01T09:39:00.236Z</time></trkpt><trkpt lat="39.5159511" lon="8.5604888"><ele>313.75</ele><time>2026-05-01T09:39:01.237Z</time></trkpt><trkpt lat="39.5160329" lon="8.5603391"><ele>312.5</ele><time>2026-05-01T09:39:02.237Z</time></trkpt><trkpt lat="39.5161276" lon="8.5601886"><ele>311.25</ele><time>2026-05-01T09:39:03.235Z</time></trkpt><trkpt lat="39.5162202" lon="8.5600324"><ele>310.0</ele><time>2026-05-01T09:39:04.237Z</time></trkpt><trkpt lat="39.5163172" lon="8.5598605"><ele>312.0</ele><time>2026-05-01T09:39:05.238Z</time></trkpt><trkpt lat="39.5164136" lon="8.5596925"><ele>314.0</ele><time>2026-05-01T09:39:06.237Z</time></trkpt><trkpt lat="39.5165133" lon="8.5595376"><ele>316.0</ele><time>2026-05-01T09:39:07.237Z</time></trkpt><trkpt lat="39.5166202" lon="8.5593888"><ele>316.0</ele><time>2026-05-01T09:39:08.238Z</time></trkpt><trkpt lat="39.5167345" lon="8.5592621"><ele>316.0</ele><time>2026-05-01T09:39:09.237Z</time></trkpt><trkpt lat="39.5168429" lon="8.5591342"><ele>316.0</ele><time>2026-05-01T09:39:10.237Z</time></trkpt><trkpt lat="39.5169485" lon="8.5590033"><ele>316.0</ele><time>2026-05-01T09:39:11.237Z</time></trkpt><trkpt lat="39.517058" lon="8.5588823"><ele>317.3333333333333</ele><time>2026-05-01T09:39:12.237Z</time></trkpt><trkpt lat="39.5171712" lon="8.5587694"><ele>318.6666666666667</ele><time>2026-05-01T09:39:13.238Z</time></trkpt><trkpt lat="39.5173009" lon="8.5586673"><ele>320.0</ele><time>2026-05-01T09:39:14.238Z</time></trkpt><trkpt lat="39.5174365" lon="8.5585692"><ele>320.0</ele><time>2026-05-01T09:39:15.238Z</time></trkpt><trkpt lat="39.5175677" lon="8.5584789"><ele>320.0</ele><time>2026-05-01T09:39:16.236Z</time></trkpt><trkpt lat="39.5176858" lon="8.558407"><ele>320.0</ele><time>2026-05-01T09:39:17.236Z</time></trkpt><trkpt lat="39.5177957" lon="8.5583366"><ele>320.0</ele><time>2026-05-01T09:39:18.238Z</time></trkpt><trkpt lat="39.5178949" lon="8.5582731"><ele>320.4</ele><time>2026-05-01T09:39:19.237Z</time></trkpt><trkpt lat="39.5179801" lon="8.5582082"><ele>320.8</ele><time>2026-05-01T09:39:20.237Z</time></trkpt><trkpt lat="39.5180521" lon="8.5581282"><ele>321.20000000000005</ele><time>2026-05-01T09:39:21.238Z</time></trkpt><trkpt lat="39.5180942" lon="8.5580372"><ele>321.6</ele><time>2026-05-01T09:39:22.237Z</time></trkpt><trkpt lat="39.5181116" lon="8.5579276"><ele>322.0</ele><time>2026-05-01T09:39:23.237Z</time></trkpt><trkpt lat="39.5181051" lon="8.5577937"><ele>322.0</ele><time>2026-05-01T09:39:24.237Z</time></trkpt><trkpt lat="39.5180755" lon="8.5576827"><ele>322.0</ele><time>2026-05-01T09:39:25.237Z</time></trkpt><trkpt lat="39.5180352" lon="8.5575766"><ele>322.0</ele><time>2026-05-01T09:39:26.237Z</time></trkpt><trkpt lat="39.5179767" lon="8.5574887"><ele>322.0</ele><time>2026-05-01T09:39:27.236Z</time></trkpt><trkpt lat="39.517908" lon="8.5574208"><ele>322.0</ele><time>2026-05-01T09:39:28.237Z</time></trkpt><trkpt lat="39.5178156" lon="8.5573919"><ele>322.0</ele><time>2026-05-01T09:39:29.236Z</time></trkpt><trkpt lat="39.5177097" lon="8.5573891"><ele>322.0</ele><time>2026-05-01T09:39:30.238Z</time></trkpt><trkpt lat="39.5175967" lon="8.5574045"><ele>322.0</ele><time>2026-05-01T09:39:31.237Z</time></trkpt><trkpt lat="39.5174552" lon="8.5574406"><ele>322.0</ele><time>2026-05-01T09:39:32.236Z</time></trkpt><trkpt lat="39.5172885" lon="8.5574948"><ele>322.0</ele><time>2026-05-01T09:39:33.238Z</time></trkpt><trkpt lat="39.5171107" lon="8.5575704"><ele>322.0</ele><time>2026-05-01T09:39:34.238Z</time></trkpt><trkpt lat="39.5169184" lon="8.5576565"><ele>322.0</ele><time>2026-05-01T09:39:35.236Z</time></trkpt><trkpt lat="39.5167345" lon="8.5577342"><ele>323.66666666666663</ele><time>2026-05-01T09:39:36.237Z</time></trkpt><trkpt lat="39.5165545" lon="8.5577871"><ele>325.3333333333333</ele><time>2026-05-01T09:39:37.237Z</time></trkpt><trkpt lat="39.5163672" lon="8.5578303"><ele>327.0</ele><time>2026-05-01T09:39:38.236Z</time></trkpt><trkpt lat="39.5161861" lon="8.5578895"><ele>327.0</ele><time>2026-05-01T09:39:39.238Z</time></trkpt><trkpt lat="39.5160265" lon="8.5579539"><ele>327.0</ele><time>2026-05-01T09:39:40.238Z</time></trkpt><trkpt lat="39.5159059" lon="8.5579907"><ele>327.0</ele><time>2026-05-01T09:39:41.237Z</time></trkpt><trkpt lat="39.5157831" lon="8.5579982"><ele>327.0</ele><time>2026-05-01T09:39:42.237Z</time></trkpt><trkpt lat="39.5156733" lon="8.5579633"><ele>327.0</ele><time>2026-05-01T09:39:43.236Z</time></trkpt><trkpt lat="39.5155694" lon="8.5578752"><ele>327.0</ele><time>2026-05-01T09:39:44.238Z</time></trkpt><trkpt lat="39.5154554" lon="8.557764"><ele>327.0</ele><time>2026-05-01T09:39:45.236Z</time></trkpt><trkpt lat="39.5153417" lon="8.5576342"><ele>327.0</ele><time>2026-05-01T09:39:46.236Z</time></trkpt><trkpt lat="39.5152399" lon="8.5575307"><ele>330.40000000000003</ele><time>2026-05-01T09:39:47.236Z</time></trkpt><trkpt lat="39.515143" lon="8.5574624"><ele>333.8</ele><time>2026-05-01T09:39:48.238Z</time></trkpt><trkpt lat="39.5150489" lon="8.5574551"><ele>337.2</ele><time>2026-05-01T09:39:49.235Z</time></trkpt><trkpt lat="39.5149652" lon="8.5575026"><ele>340.6</ele><time>2026-05-01T09:39:50.237Z</time></trkpt><trkpt lat="39.5149061" lon="8.5575968"><ele>344.0</ele><time>2026-05-01T09:39:51.237Z</time></trkpt><trkpt lat="39.5148659" lon="8.5577376"><ele>342.0</ele><time>2026-05-01T09:39:52.237Z</time></trkpt><trkpt lat="39.5148336" lon="8.5578986"><ele>340.0</ele><time>2026-05-01T09:39:53.238Z</time></trkpt><trkpt lat="39.5147872" lon="8.5580442"><ele>338.0</ele><time>2026-05-01T09:39:54.238Z</time></trkpt><trkpt lat="39.514714" lon="8.5581627"><ele>336.0</ele><time>2026-05-01T09:39:55.238Z</time></trkpt><trkpt lat="39.5146033" lon="8.5582407"><ele>339.3333333333333</ele><time>2026-05-01T09:39:56.236Z</time></trkpt><trkpt lat="39.5144667" lon="8.5583049"><ele>342.66666666666663</ele><time>2026-05-01T09:39:57.238Z</time></trkpt><trkpt lat="39.5143197" lon="8.5583349"><ele>346.0</ele><time>2026-05-01T09:39:58.236Z</time></trkpt><trkpt lat="39.5141515" lon="8.558336"><ele>346.0</ele><time>2026-05-01T09:39:59.237Z</time></trkpt><trkpt lat="39.5139825" lon="8.5583078"><ele>346.0</ele><time>2026-05-01T09:40:00.236Z</time></trkpt><trkpt lat="39.5138314" lon="8.5583026"><ele>346.0</ele><time>2026-05-01T09:40:01.236Z</time></trkpt><trkpt lat="39.5136812" lon="8.5583385"><ele>349.0</ele><time>2026-05-01T09:40:02.238Z</time></trkpt><trkpt lat="39.5135382" lon="8.5584105"><ele>352.0</ele><time>2026-05-01T09:40:03.237Z</time></trkpt><trkpt lat="39.5134067" lon="8.558484"><ele>355.0</ele><time>2026-05-01T09:40:04.236Z</time></trkpt><trkpt lat="39.513281" lon="8.5585191"><ele>358.0</ele><time>2026-05-01T09:40:05.237Z</time></trkpt><trkpt lat="39.513139" lon="8.5585096"><ele>358.0</ele><time>2026-05-01T09:40:06.238Z</time></trkpt><trkpt lat="39.5130041" lon="8.5584824"><ele>358.0</ele><time>2026-05-01T09:40:07.237Z</time></trkpt><trkpt lat="39.5128836" lon="8.5585007"><ele>358.0</ele><time>2026-05-01T09:40:08.236Z</time></trkpt><trkpt lat="39.512778" lon="8.5585762"><ele>358.0</ele><time>2026-05-01T09:40:09.237Z</time></trkpt><trkpt lat="39.5126901" lon="8.5587004"><ele>359.0</ele><time>2026-05-01T09:40:10.237Z</time></trkpt><trkpt lat="39.512595" lon="8.5588609"><ele>360.0</ele><time>2026-05-01T09:40:11.236Z</time></trkpt><trkpt lat="39.5124959" lon="8.5590322"><ele>361.0</ele><time>2026-05-01T09:40:12.238Z</time></trkpt><trkpt lat="39.5123984" lon="8.5591787"><ele>361.0</ele><time>2026-05-01T09:40:13.237Z</time></trkpt><trkpt lat="39.512305" lon="8.5593059"><ele>361.0</ele><time>2026-05-01T09:40:14.238Z</time></trkpt><trkpt lat="39.5122106" lon="8.559411"><ele>361.0</ele><time>2026-05-01T09:40:15.237Z</time></trkpt><trkpt lat="39.5121047" lon="8.5594729"><ele>361.0</ele><time>2026-05-01T09:40:16.238Z</time></trkpt><trkpt lat="39.5119915" lon="8.559488"><ele>363.25</ele><time>2026-05-01T09:40:17.238Z</time></trkpt><trkpt lat="39.5118803" lon="8.5595266"><ele>365.5</ele><time>2026-05-01T09:40:18.238Z</time></trkpt><trkpt lat="39.5117574" lon="8.5594458"><ele>367.75</ele><time>2026-05-01T09:40:19.236Z</time></trkpt><trkpt lat="39.5116476" lon="8.5593857"><ele>370.0</ele><time>2026-05-01T09:40:20.236Z</time></trkpt><trkpt lat="39.5115598" lon="8.5593041"><ele>370.0</ele><time>2026-05-01T09:40:21.236Z</time></trkpt><trkpt lat="39.5114879" lon="8.5592007"><ele>370.0</ele><time>2026-05-01T09:40:22.238Z</time></trkpt><trkpt lat="39.5114256" lon="8.5590634"><ele>370.0</ele><time>2026-05-01T09:40:23.235Z</time></trkpt><trkpt lat="39.5113862" lon="8.5589322"><ele>370.0</ele><time>2026-05-01T09:40:24.236Z</time></trkpt><trkpt lat="39.5113535" lon="8.5588091"><ele>370.0</ele><time>2026-05-01T09:40:25.238Z</time></trkpt><trkpt lat="39.5113066" lon="8.5586887"><ele>372.0</ele><time>2026-05-01T09:40:26.237Z</time></trkpt><trkpt lat="39.511259" lon="8.5585766"><ele>374.0</ele><time>2026-05-01T09:40:27.237Z</time></trkpt><trkpt lat="39.5112061" lon="8.5584749"><ele>376.0</ele><time>2026-05-01T09:40:28.237Z</time></trkpt><trkpt lat="39.5111414" lon="8.5583886"><ele>378.0</ele><time>2026-05-01T09:40:29.237Z</time></trkpt><trkpt lat="39.5110533" lon="8.5583277"><ele>380.0</ele><time>2026-05-01T09:40:30.235Z</time></trkpt><trkpt lat="39.5109501" lon="8.5582883"><ele>380.0</ele><time>2026-05-01T09:40:31.236Z</time></trkpt><trkpt lat="39.5108446" lon="8.5582505"><ele>380.0</ele><time>2026-05-01T09:40:32.237Z</time></trkpt><trkpt lat="39.5107472" lon="8.5582068"><ele>380.0</ele><time>2026-05-01T09:40:33.237Z</time></trkpt><trkpt lat="39.5106534" lon="8.5581563"><ele>380.0</ele><time>2026-05-01T09:40:34.238Z</time></trkpt><trkpt lat="39.51056" lon="8.5580755"><ele>380.0</ele><time>2026-05-01T09:40:35.238Z</time></trkpt><trkpt lat="39.5104544" lon="8.5579696"><ele>383.0</ele><time>2026-05-01T09:40:36.238Z</time></trkpt><trkpt lat="39.5103452" lon="8.5578475"><ele>386.0</ele><time>2026-05-01T09:40:37.237Z</time></trkpt><trkpt lat="39.5102202" lon="8.5576989"><ele>389.0</ele><time>2026-05-01T09:40:38.236Z</time></trkpt><trkpt lat="39.5100691" lon="8.557536"><ele>389.0</ele><time>2026-05-01T09:40:39.237Z</time></trkpt><trkpt lat="39.5099304" lon="8.5573699"><ele>389.0</ele><time>2026-05-01T09:40:40.236Z</time></trkpt><trkpt lat="39.5097994" lon="8.5571927"><ele>389.0</ele><time>2026-05-01T09:40:41.237Z</time></trkpt><trkpt lat="39.5096703" lon="8.5570195"><ele>390.66666666666663</ele><time>2026-05-01T09:40:42.238Z</time></trkpt><trkpt lat="39.5095508" lon="8.5568545"><ele>392.33333333333337</ele><time>2026-05-01T09:40:43.237Z</time></trkpt><trkpt lat="39.5094353" lon="8.5567077"><ele>394.0</ele><time>2026-05-01T09:40:44.238Z</time></trkpt><trkpt lat="39.5093385" lon="8.5565709"><ele>394.0</ele><time>2026-05-01T09:40:45.236Z</time></trkpt><trkpt lat="39.5092578" lon="8.5564213"><ele>394.0</ele><time>2026-05-01T09:40:46.238Z</time></trkpt><trkpt lat="39.5092189" lon="8.5562662"><ele>394.0</ele><time>2026-05-01T09:40:47.236Z</time></trkpt><trkpt lat="39.5091957" lon="8.5560946"><ele>394.0</ele><time>2026-05-01T09:40:48.236Z</time></trkpt><trkpt lat="39.5091913" lon="8.555906"><ele>393.6666666666667</ele><time>2026-05-01T09:40:49.235Z</time></trkpt><trkpt lat="39.5091832" lon="8.5557053"><ele>393.33333333333337</ele><time>2026-05-01T09:40:50.237Z</time></trkpt><trkpt lat="39.5091767" lon="8.5554931"><ele>393.0</ele><time>2026-05-01T09:40:51.235Z</time></trkpt><trkpt lat="39.5091653" lon="8.5552796"><ele>392.33333333333337</ele><time>2026-05-01T09:40:52.236Z</time></trkpt><trkpt lat="39.5091627" lon="8.5550629"><ele>391.6666666666667</ele><time>2026-05-01T09:40:53.237Z</time></trkpt><trkpt lat="39.5091568" lon="8.5548334"><ele>391.0</ele><time>2026-05-01T09:40:54.238Z</time></trkpt><trkpt lat="39.5091463" lon="8.5546146"><ele>389.33333333333337</ele><time>2026-05-01T09:40:55.236Z</time></trkpt><trkpt lat="39.5091407" lon="8.5543951"><ele>387.66666666666663</ele><time>2026-05-01T09:40:56.235Z</time></trkpt><trkpt lat="39.5091325" lon="8.5541951"><ele>386.0</ele><time>2026-05-01T09:40:57.236Z</time></trkpt><trkpt lat="39.5091238" lon="8.5540026"><ele>386.0</ele><time>2026-05-01T09:40:58.236Z</time></trkpt><trkpt lat="39.5091189" lon="8.5538216"><ele>386.0</ele><time>2026-05-01T09:40:59.237Z</time></trkpt><trkpt lat="39.5091307" lon="8.553638"><ele>386.0</ele><time>2026-05-01T09:41:00.238Z</time></trkpt><trkpt lat="39.5091735" lon="8.5534571"><ele>386.0</ele><time>2026-05-01T09:41:01.236Z</time></trkpt><trkpt lat="39.5092568" lon="8.5532809"><ele>385.0</ele><time>2026-05-01T09:41:02.236Z</time></trkpt><trkpt lat="39.5093489" lon="8.55311"><ele>384.0</ele><time>2026-05-01T09:41:03.236Z</time></trkpt><trkpt lat="39.5094466" lon="8.5529113"><ele>383.0</ele><time>2026-05-01T09:41:04.235Z</time></trkpt><trkpt lat="39.5095286" lon="8.5526941"><ele>383.6666666666667</ele><time>2026-05-01T09:41:05.236Z</time></trkpt><trkpt lat="39.5096086" lon="8.552444"><ele>384.33333333333337</ele><time>2026-05-01T09:41:06.236Z</time></trkpt><trkpt lat="39.5096745" lon="8.552194"><ele>385.0</ele><time>2026-05-01T09:41:07.237Z</time></trkpt><trkpt lat="39.5097488" lon="8.5519487"><ele>382.6666666666667</ele><time>2026-05-01T09:41:08.237Z</time></trkpt><trkpt lat="39.509815" lon="8.5517203"><ele>380.33333333333337</ele><time>2026-05-01T09:41:09.238Z</time></trkpt><trkpt lat="39.5098825" lon="8.5515111"><ele>378.0</ele><time>2026-05-01T09:41:10.237Z</time></trkpt><trkpt lat="39.509938" lon="8.5512991"><ele>376.3333333333333</ele><time>2026-05-01T09:41:11.236Z</time></trkpt><trkpt lat="39.5099861" lon="8.5511031"><ele>374.66666666666663</ele><time>2026-05-01T09:41:12.236Z</time></trkpt><trkpt lat="39.5100087" lon="8.5509099"><ele>373.0</ele><time>2026-05-01T09:41:13.236Z</time></trkpt><trkpt lat="39.5100004" lon="8.5507177"><ele>373.0</ele><time>2026-05-01T09:41:14.238Z</time></trkpt><trkpt lat="39.5099722" lon="8.5505225"><ele>373.0</ele><time>2026-05-01T09:41:15.237Z</time></trkpt><trkpt lat="39.509949" lon="8.5503317"><ele>373.0</ele><time>2026-05-01T09:41:16.237Z</time></trkpt><trkpt lat="39.5099227" lon="8.5501551"><ele>373.0</ele><time>2026-05-01T09:41:17.238Z</time></trkpt><trkpt lat="39.5098916" lon="8.5499919"><ele>373.25</ele><time>2026-05-01T09:41:18.236Z</time></trkpt><trkpt lat="39.5098575" lon="8.5498467"><ele>373.5</ele><time>2026-05-01T09:41:19.237Z</time></trkpt><trkpt lat="39.5097983" lon="8.5497233"><ele>373.75</ele><time>2026-05-01T09:41:20.238Z</time></trkpt><trkpt lat="39.5097064" lon="8.5496413"><ele>374.0</ele><time>2026-05-01T09:41:21.237Z</time></trkpt><trkpt lat="39.5095989" lon="8.5496012"><ele>374.25</ele><time>2026-05-01T09:41:22.237Z</time></trkpt><trkpt lat="39.5094705" lon="8.549603"><ele>374.5</ele><time>2026-05-01T09:41:23.236Z</time></trkpt><trkpt lat="39.5093108" lon="8.5496182"><ele>374.75</ele><time>2026-05-01T09:41:24.236Z</time></trkpt><trkpt lat="39.5091656" lon="8.5496335"><ele>375.0</ele><time>2026-05-01T09:41:25.237Z</time></trkpt><trkpt lat="39.5090228" lon="8.5496546"><ele>375.0</ele><time>2026-05-01T09:41:26.238Z</time></trkpt><trkpt lat="39.5088905" lon="8.5496734"><ele>375.0</ele><time>2026-05-01T09:41:27.236Z</time></trkpt><trkpt lat="39.5087663" lon="8.5496892"><ele>375.0</ele><time>2026-05-01T09:41:28.238Z</time></trkpt><trkpt lat="39.5086394" lon="8.5496522"><ele>375.0</ele><time>2026-05-01T09:41:29.236Z</time></trkpt><trkpt lat="39.5085404" lon="8.5495845"><ele>377.0</ele><time>2026-05-01T09:41:30.238Z</time></trkpt><trkpt lat="39.5084537" lon="8.5494757"><ele>379.0</ele><time>2026-05-01T09:41:31.237Z</time></trkpt><trkpt lat="39.5083943" lon="8.5493249"><ele>381.0</ele><time>2026-05-01T09:41:32.237Z</time></trkpt><trkpt lat="39.5083304" lon="8.5491355"><ele>383.0</ele><time>2026-05-01T09:41:33.238Z</time></trkpt><trkpt lat="39.5082537" lon="8.5489354"><ele>383.0</ele><time>2026-05-01T09:41:34.236Z</time></trkpt><trkpt lat="39.5081771" lon="8.5487513"><ele>383.0</ele><time>2026-05-01T09:41:35.237Z</time></trkpt><trkpt lat="39.5081055" lon="8.5485895"><ele>383.0</ele><time>2026-05-01T09:41:36.237Z</time></trkpt><trkpt lat="39.508011" lon="8.5484483"><ele>383.0</ele><time>2026-05-01T09:41:37.236Z</time></trkpt><trkpt lat="39.5078842" lon="8.5483492"><ele>384.33333333333337</ele><time>2026-05-01T09:41:38.237Z</time></trkpt><trkpt lat="39.5077425" lon="8.5482858"><ele>385.6666666666667</ele><time>2026-05-01T09:41:39.237Z</time></trkpt><trkpt lat="39.5075877" lon="8.548238"><ele>387.0</ele><time>2026-05-01T09:41:40.237Z</time></trkpt><trkpt lat="39.50745" lon="8.5481925"><ele>387.0</ele><time>2026-05-01T09:41:41.238Z</time></trkpt><trkpt lat="39.5073306" lon="8.5481561"><ele>387.0</ele><time>2026-05-01T09:41:42.237Z</time></trkpt><trkpt lat="39.5072258" lon="8.5480973"><ele>387.0</ele><time>2026-05-01T09:41:43.236Z</time></trkpt><trkpt lat="39.5071432" lon="8.5479987"><ele>387.0</ele><time>2026-05-01T09:41:44.237Z</time></trkpt><trkpt lat="39.5070917" lon="8.5478634"><ele>387.0</ele><time>2026-05-01T09:41:45.236Z</time></trkpt><trkpt lat="39.5070616" lon="8.5476984"><ele>387.0</ele><time>2026-05-01T09:41:46.236Z</time></trkpt><trkpt lat="39.5070367" lon="8.5475035"><ele>387.0</ele><time>2026-05-01T09:41:47.237Z</time></trkpt><trkpt lat="39.5070114" lon="8.5473087"><ele>387.0</ele><time>2026-05-01T09:41:48.237Z</time></trkpt><trkpt lat="39.506985" lon="8.5471279"><ele>388.25</ele><time>2026-05-01T09:41:49.237Z</time></trkpt><trkpt lat="39.5069646" lon="8.5469593"><ele>389.5</ele><time>2026-05-01T09:41:50.237Z</time></trkpt><trkpt lat="39.5069464" lon="8.5468027"><ele>390.75</ele><time>2026-05-01T09:41:51.237Z</time></trkpt><trkpt lat="39.5069203" lon="8.546658"><ele>392.0</ele><time>2026-05-01T09:41:52.236Z</time></trkpt><trkpt lat="39.5068857" lon="8.5465118"><ele>392.0</ele><time>2026-05-01T09:41:53.237Z</time></trkpt><trkpt lat="39.5068342" lon="8.546359"><ele>392.0</ele><time>2026-05-01T09:41:54.236Z</time></trkpt><trkpt lat="39.5067511" lon="8.5462096"><ele>392.0</ele><time>2026-05-01T09:41:55.236Z</time></trkpt><trkpt lat="39.5066615" lon="8.5460422"><ele>392.0</ele><time>2026-05-01T09:41:56.238Z</time></trkpt><trkpt lat="39.5065659" lon="8.5458501"><ele>393.66666666666663</ele><time>2026-05-01T09:41:57.237Z</time></trkpt><trkpt lat="39.5064662" lon="8.5456315"><ele>395.33333333333337</ele><time>2026-05-01T09:41:58.238Z</time></trkpt><trkpt lat="39.5063729" lon="8.5454198"><ele>397.0</ele><time>2026-05-01T09:41:59.238Z</time></trkpt><trkpt lat="39.5062885" lon="8.5451993"><ele>396.33333333333337</ele><time>2026-05-01T09:42:00.238Z</time></trkpt><trkpt lat="39.5062201" lon="8.5449683"><ele>395.66666666666663</ele><time>2026-05-01T09:42:01.237Z</time></trkpt><trkpt lat="39.506155" lon="8.5447224"><ele>395.0</ele><time>2026-05-01T09:42:02.237Z</time></trkpt><trkpt lat="39.506097" lon="8.5444897"><ele>395.0</ele><time>2026-05-01T09:42:03.237Z</time></trkpt><trkpt lat="39.5060416" lon="8.5442648"><ele>395.0</ele><time>2026-05-01T09:42:04.238Z</time></trkpt><trkpt lat="39.5059925" lon="8.5440532"><ele>395.0</ele><time>2026-05-01T09:42:05.238Z</time></trkpt><trkpt lat="39.5059426" lon="8.5438506"><ele>395.3333333333333</ele><time>2026-05-01T09:42:06.238Z</time></trkpt><trkpt lat="39.5059162" lon="8.5436468"><ele>395.66666666666663</ele><time>2026-05-01T09:42:07.237Z</time></trkpt><trkpt lat="39.5059224" lon="8.5434319"><ele>396.0</ele><time>2026-05-01T09:42:08.237Z</time></trkpt><trkpt lat="39.5059548" lon="8.5432173"><ele>396.0</ele><time>2026-05-01T09:42:09.236Z</time></trkpt><trkpt lat="39.5059943" lon="8.5430069"><ele>396.0</ele><time>2026-05-01T09:42:10.236Z</time></trkpt><trkpt lat="39.506033" lon="8.5428128"><ele>396.0</ele><time>2026-05-01T09:42:11.237Z</time></trkpt><trkpt lat="39.5060596" lon="8.5426216"><ele>396.33333333333337</ele><time>2026-05-01T09:42:12.235Z</time></trkpt><trkpt lat="39.5060905" lon="8.5424322"><ele>396.6666666666667</ele><time>2026-05-01T09:42:13.238Z</time></trkpt><trkpt lat="39.5060472" lon="8.5422353"><ele>397.0</ele><time>2026-05-01T09:42:14.236Z</time></trkpt><trkpt lat="39.5059898" lon="8.5420486"><ele>397.33333333333337</ele><time>2026-05-01T09:42:15.237Z</time></trkpt><trkpt lat="39.5059168" lon="8.5418496"><ele>397.66666666666663</ele><time>2026-05-01T09:42:16.237Z</time></trkpt><trkpt lat="39.5058393" lon="8.5416307"><ele>398.0</ele><time>2026-05-01T09:42:17.238Z</time></trkpt><trkpt lat="39.5057529" lon="8.5413984"><ele>398.66666666666663</ele><time>2026-05-01T09:42:18.236Z</time></trkpt><trkpt lat="39.5056721" lon="8.5411591"><ele>399.33333333333337</ele><time>2026-05-01T09:42:19.235Z</time></trkpt><trkpt lat="39.5055926" lon="8.5409235"><ele>400.0</ele><time>2026-05-01T09:42:20.237Z</time></trkpt><trkpt lat="39.5055105" lon="8.5406874"><ele>400.0</ele><time>2026-05-01T09:42:21.235Z</time></trkpt><trkpt lat="39.505433" lon="8.5404432"><ele>400.0</ele><time>2026-05-01T09:42:22.237Z</time></trkpt><trkpt lat="39.5053492" lon="8.5402072"><ele>400.0</ele><time>2026-05-01T09:42:23.236Z</time></trkpt><trkpt lat="39.5052711" lon="8.5399878"><ele>400.6666666666667</ele><time>2026-05-01T09:42:24.237Z</time></trkpt><trkpt lat="39.5052037" lon="8.5397742"><ele>401.33333333333337</ele><time>2026-05-01T09:42:25.238Z</time></trkpt><trkpt lat="39.5051344" lon="8.5395822"><ele>402.0</ele><time>2026-05-01T09:42:26.237Z</time></trkpt><trkpt lat="39.5050703" lon="8.5393996"><ele>403.0</ele><time>2026-05-01T09:42:27.236Z</time></trkpt><trkpt lat="39.505" lon="8.5392306"><ele>404.0</ele><time>2026-05-01T09:42:28.237Z</time></trkpt><trkpt lat="39.5049215" lon="8.5390778"><ele>405.0</ele><time>2026-05-01T09:42:29.238Z</time></trkpt><trkpt lat="39.5048044" lon="8.5389622"><ele>406.0</ele><time>2026-05-01T09:42:30.236Z</time></trkpt><trkpt lat="39.5046774" lon="8.5388706"><ele>406.0</ele><time>2026-05-01T09:42:31.237Z</time></trkpt><trkpt lat="39.5045261" lon="8.5387876"><ele>406.0</ele><time>2026-05-01T09:42:32.238Z</time></trkpt><trkpt lat="39.5043568" lon="8.5387076"><ele>406.0</ele><time>2026-05-01T09:42:33.237Z</time></trkpt><trkpt lat="39.5041975" lon="8.538629"><ele>406.0</ele><time>2026-05-01T09:42:34.237Z</time></trkpt><trkpt lat="39.5040494" lon="8.5385568"><ele>406.0</ele><time>2026-05-01T09:42:35.236Z</time></trkpt><trkpt lat="39.5039147" lon="8.538478"><ele>406.0</ele><time>2026-05-01T09:42:36.238Z</time></trkpt><trkpt lat="39.5037949" lon="8.5383857"><ele>406.0</ele><time>2026-05-01T09:42:37.236Z</time></trkpt><trkpt lat="39.5036881" lon="8.5382504"><ele>406.0</ele><time>2026-05-01T09:42:38.236Z</time></trkpt><trkpt lat="39.5036041" lon="8.5380863"><ele>406.0</ele><time>2026-05-01T09:42:39.236Z</time></trkpt><trkpt lat="39.5035235" lon="8.5378959"><ele>406.0</ele><time>2026-05-01T09:42:40.236Z</time></trkpt><trkpt lat="39.5034442" lon="8.5377113"><ele>407.6666666666667</ele><time>2026-05-01T09:42:41.236Z</time></trkpt><trkpt lat="39.5033652" lon="8.5375312"><ele>409.33333333333337</ele><time>2026-05-01T09:42:42.238Z</time></trkpt><trkpt lat="39.5033082" lon="8.5373501"><ele>411.0</ele><time>2026-05-01T09:42:43.236Z</time></trkpt><trkpt lat="39.5032841" lon="8.5371638"><ele>412.33333333333337</ele><time>2026-05-01T09:42:44.237Z</time></trkpt><trkpt lat="39.5032851" lon="8.5369563"><ele>413.6666666666667</ele><time>2026-05-01T09:42:45.237Z</time></trkpt><trkpt lat="39.5033016" lon="8.5367267"><ele>415.0</ele><time>2026-05-01T09:42:46.236Z</time></trkpt><trkpt lat="39.5033224" lon="8.5364901"><ele>415.0</ele><time>2026-05-01T09:42:47.236Z</time></trkpt><trkpt lat="39.5033394" lon="8.5362619"><ele>415.0</ele><time>2026-05-01T09:42:48.236Z</time></trkpt><trkpt lat="39.5033619" lon="8.5360477"><ele>415.0</ele><time>2026-05-01T09:42:49.237Z</time></trkpt><trkpt lat="39.503381" lon="8.5358342"><ele>415.0</ele><time>2026-05-01T09:42:50.237Z</time></trkpt><trkpt lat="39.5034104" lon="8.5356278"><ele>415.0</ele><time>2026-05-01T09:42:51.237Z</time></trkpt><trkpt lat="39.503463" lon="8.535432"><ele>415.0</ele><time>2026-05-01T09:42:52.237Z</time></trkpt><trkpt lat="39.5035218" lon="8.5352562"><ele>414.5</ele><time>2026-05-01T09:42:53.237Z</time></trkpt><trkpt lat="39.503577" lon="8.5350925"><ele>414.0</ele><time>2026-05-01T09:42:54.237Z</time></trkpt><trkpt lat="39.5036099" lon="8.5349201"><ele>413.5</ele><time>2026-05-01T09:42:55.238Z</time></trkpt><trkpt lat="39.5036137" lon="8.5347346"><ele>413.0</ele><time>2026-05-01T09:42:56.236Z</time></trkpt><trkpt lat="39.5035865" lon="8.5345341"><ele>412.0</ele><time>2026-05-01T09:42:57.237Z</time></trkpt><trkpt lat="39.5035589" lon="8.5343453"><ele>411.0</ele><time>2026-05-01T09:42:58.236Z</time></trkpt><trkpt lat="39.50355" lon="8.5341545"><ele>410.0</ele><time>2026-05-01T09:42:59.236Z</time></trkpt><trkpt lat="39.503565" lon="8.5339768"><ele>409.0</ele><time>2026-05-01T09:43:00.236Z</time></trkpt><trkpt lat="39.5036127" lon="8.5338223"><ele>408.25</ele><time>2026-05-01T09:43:01.236Z</time></trkpt><trkpt lat="39.503702" lon="8.5336907"><ele>407.5</ele><time>2026-05-01T09:43:02.238Z</time></trkpt><trkpt lat="39.5038071" lon="8.5335657"><ele>406.75</ele><time>2026-05-01T09:43:03.238Z</time></trkpt><trkpt lat="39.5039094" lon="8.5334357"><ele>406.0</ele><time>2026-05-01T09:43:04.237Z</time></trkpt><trkpt lat="39.5040074" lon="8.5333132"><ele>406.5</ele><time>2026-05-01T09:43:05.237Z</time></trkpt><trkpt lat="39.504075" lon="8.5331779"><ele>407.0</ele><time>2026-05-01T09:43:06.236Z</time></trkpt><trkpt lat="39.5041015" lon="8.5330323"><ele>407.5</ele><time>2026-05-01T09:43:07.237Z</time></trkpt><trkpt lat="39.5040883" lon="8.5328777"><ele>408.0</ele><time>2026-05-01T09:43:08.237Z</time></trkpt><trkpt lat="39.5040353" lon="8.5327164"><ele>408.0</ele><time>2026-05-01T09:43:09.238Z</time></trkpt><trkpt lat="39.5039613" lon="8.5325456"><ele>408.0</ele><time>2026-05-01T09:43:10.236Z</time></trkpt><trkpt lat="39.5038584" lon="8.5323851"><ele>408.0</ele><time>2026-05-01T09:43:11.236Z</time></trkpt><trkpt lat="39.5037166" lon="8.5322424"><ele>408.0</ele><time>2026-05-01T09:43:12.236Z</time></trkpt><trkpt lat="39.503556" lon="8.5320935"><ele>408.0</ele><time>2026-05-01T09:43:13.238Z</time></trkpt><trkpt lat="39.5033755" lon="8.5319535"><ele>408.0</ele><time>2026-05-01T09:43:14.237Z</time></trkpt><trkpt lat="39.5031985" lon="8.5318107"><ele>409.0</ele><time>2026-05-01T09:43:15.237Z</time></trkpt><trkpt lat="39.5030156" lon="8.5316856"><ele>410.0</ele><time>2026-05-01T09:43:16.236Z</time></trkpt><trkpt lat="39.5028184" lon="8.5316143"><ele>411.0</ele><time>2026-05-01T09:43:17.235Z</time></trkpt><trkpt lat="39.5026212" lon="8.5315468"><ele>411.33333333333337</ele><time>2026-05-01T09:43:18.236Z</time></trkpt><trkpt lat="39.5024294" lon="8.5314803"><ele>411.6666666666667</ele><time>2026-05-01T09:43:19.237Z</time></trkpt><trkpt lat="39.5022524" lon="8.5314264"><ele>412.0</ele><time>2026-05-01T09:43:20.237Z</time></trkpt><trkpt lat="39.5020772" lon="8.531379"><ele>412.0</ele><time>2026-05-01T09:43:21.237Z</time></trkpt><trkpt lat="39.5019121" lon="8.5313202"><ele>412.0</ele><time>2026-05-01T09:43:22.237Z</time></trkpt><trkpt lat="39.501757" lon="8.5312675"><ele>412.0</ele><time>2026-05-01T09:43:23.236Z</time></trkpt><trkpt lat="39.5016244" lon="8.5312124"><ele>413.5</ele><time>2026-05-01T09:43:24.236Z</time></trkpt><trkpt lat="39.5015083" lon="8.5311394"><ele>415.0</ele><time>2026-05-01T09:43:25.235Z</time></trkpt><trkpt lat="39.501434" lon="8.5310305"><ele>416.5</ele><time>2026-05-01T09:43:26.235Z</time></trkpt><trkpt lat="39.5013876" lon="8.530884"><ele>418.0</ele><time>2026-05-01T09:43:27.235Z</time></trkpt><trkpt lat="39.5013443" lon="8.5307232"><ele>418.0</ele><time>2026-05-01T09:43:28.236Z</time></trkpt><trkpt lat="39.5012774" lon="8.5305534"><ele>418.0</ele><time>2026-05-01T09:43:29.235Z</time></trkpt><trkpt lat="39.5011917" lon="8.5303711"><ele>418.0</ele><time>2026-05-01T09:43:30.236Z</time></trkpt><trkpt lat="39.5010579" lon="8.5301546"><ele>416.0</ele><time>2026-05-01T09:43:31.237Z</time></trkpt><trkpt lat="39.5009334" lon="8.529958"><ele>414.0</ele><time>2026-05-01T09:43:32.236Z</time></trkpt><trkpt lat="39.5008239" lon="8.5297678"><ele>412.0</ele><time>2026-05-01T09:43:33.237Z</time></trkpt><trkpt lat="39.5007145" lon="8.5295878"><ele>412.6666666666667</ele><time>2026-05-01T09:43:34.237Z</time></trkpt><trkpt lat="39.5006117" lon="8.5294245"><ele>413.33333333333337</ele><time>2026-05-01T09:43:35.237Z</time></trkpt><trkpt lat="39.5004904" lon="8.5292954"><ele>414.0</ele><time>2026-05-01T09:43:36.236Z</time></trkpt><trkpt lat="39.5003765" lon="8.5292076"><ele>414.0</ele><time>2026-05-01T09:43:37.237Z</time></trkpt><trkpt lat="39.5002689" lon="8.5291151"><ele>414.0</ele><time>2026-05-01T09:43:38.236Z</time></trkpt><trkpt lat="39.5001827" lon="8.5290063"><ele>414.0</ele><time>2026-05-01T09:43:39.235Z</time></trkpt><trkpt lat="39.5001122" lon="8.5288678"><ele>414.0</ele><time>2026-05-01T09:43:40.237Z</time></trkpt><trkpt lat="39.5000495" lon="8.5287049"><ele>415.66666666666663</ele><time>2026-05-01T09:43:41.237Z</time></trkpt><trkpt lat="39.4999758" lon="8.5285304"><ele>417.3333333333333</ele><time>2026-05-01T09:43:42.236Z</time></trkpt><trkpt lat="39.4999025" lon="8.5283529"><ele>419.0</ele><time>2026-05-01T09:43:43.236Z</time></trkpt><trkpt lat="39.499833" lon="8.5281604"><ele>419.0</ele><time>2026-05-01T09:43:44.236Z</time></trkpt><trkpt lat="39.4997576" lon="8.5279692"><ele>419.0</ele><time>2026-05-01T09:43:45.236Z</time></trkpt><trkpt lat="39.4996829" lon="8.5277945"><ele>419.0</ele><time>2026-05-01T09:43:46.235Z</time></trkpt><trkpt lat="39.4996178" lon="8.5276275"><ele>418.75</ele><time>2026-05-01T09:43:47.236Z</time></trkpt><trkpt lat="39.4995586" lon="8.5274789"><ele>418.5</ele><time>2026-05-01T09:43:48.236Z</time></trkpt><trkpt lat="39.499496" lon="8.5273405"><ele>418.25</ele><time>2026-05-01T09:43:49.237Z</time></trkpt><trkpt lat="39.4994137" lon="8.5272367"><ele>418.0</ele><time>2026-05-01T09:43:50.237Z</time></trkpt><trkpt lat="39.4993116" lon="8.5271927"><ele>418.0</ele><time>2026-05-01T09:43:51.236Z</time></trkpt><trkpt lat="39.4992183" lon="8.5271722"><ele>418.0</ele><time>2026-05-01T09:43:52.236Z</time></trkpt><trkpt lat="39.499115" lon="8.5272566"><ele>418.0</ele><time>2026-05-01T09:43:53.235Z</time></trkpt><trkpt lat="39.4989996" lon="8.5273321"><ele>418.0</ele><time>2026-05-01T09:43:54.237Z</time></trkpt><trkpt lat="39.4988811" lon="8.5274259"><ele>418.0</ele><time>2026-05-01T09:43:55.236Z</time></trkpt><trkpt lat="39.4987531" lon="8.5274967"><ele>418.0</ele><time>2026-05-01T09:43:56.236Z</time></trkpt><trkpt lat="39.4986236" lon="8.5275308"><ele>418.0</ele><time>2026-05-01T09:43:57.238Z</time></trkpt><trkpt lat="39.4984863" lon="8.5275259"><ele>418.0</ele><time>2026-05-01T09:43:58.237Z</time></trkpt><trkpt lat="39.4983428" lon="8.5274798"><ele>419.0</ele><time>2026-05-01T09:43:59.236Z</time></trkpt><trkpt lat="39.4981904" lon="8.5274218"><ele>420.0</ele><time>2026-05-01T09:44:00.238Z</time></trkpt><trkpt lat="39.4980492" lon="8.52736"><ele>421.0</ele><time>2026-05-01T09:44:01.238Z</time></trkpt><trkpt lat="39.4979185" lon="8.5272857"><ele>420.25</ele><time>2026-05-01T09:44:02.236Z</time></trkpt><trkpt lat="39.4978082" lon="8.5271932"><ele>419.5</ele><time>2026-05-01T09:44:03.236Z</time></trkpt><trkpt lat="39.4977294" lon="8.5270726"><ele>418.75</ele><time>2026-05-01T09:44:04.237Z</time></trkpt><trkpt lat="39.4976748" lon="8.5269153"><ele>418.0</ele><time>2026-05-01T09:44:05.237Z</time></trkpt><trkpt lat="39.4976424" lon="8.5267393"><ele>418.0</ele><time>2026-05-01T09:44:06.235Z</time></trkpt><trkpt lat="39.4976292" lon="8.5265489"><ele>418.0</ele><time>2026-05-01T09:44:07.236Z</time></trkpt><trkpt lat="39.4976282" lon="8.5263428"><ele>418.0</ele><time>2026-05-01T09:44:08.235Z</time></trkpt><trkpt lat="39.4976421" lon="8.5261277"><ele>417.6666666666667</ele><time>2026-05-01T09:44:09.235Z</time></trkpt><trkpt lat="39.497686" lon="8.5259064"><ele>417.33333333333337</ele><time>2026-05-01T09:44:10.236Z</time></trkpt><trkpt lat="39.4977503" lon="8.5256866"><ele>417.0</ele><time>2026-05-01T09:44:11.237Z</time></trkpt><trkpt lat="39.4978176" lon="8.5254364"><ele>417.33333333333337</ele><time>2026-05-01T09:44:12.236Z</time></trkpt><trkpt lat="39.4978938" lon="8.5251884"><ele>417.6666666666667</ele><time>2026-05-01T09:44:13.236Z</time></trkpt><trkpt lat="39.4979678" lon="8.5249403"><ele>418.0</ele><time>2026-05-01T09:44:14.236Z</time></trkpt><trkpt lat="39.4980325" lon="8.5247172"><ele>419.33333333333337</ele><time>2026-05-01T09:44:15.235Z</time></trkpt><trkpt lat="39.4980916" lon="8.5245104"><ele>420.66666666666663</ele><time>2026-05-01T09:44:16.237Z</time></trkpt><trkpt lat="39.4981523" lon="8.5243222"><ele>422.0</ele><time>2026-05-01T09:44:17.237Z</time></trkpt><trkpt lat="39.4981951" lon="8.5241485"><ele>422.0</ele><time>2026-05-01T09:44:18.236Z</time></trkpt><trkpt lat="39.4982257" lon="8.5239783"><ele>422.0</ele><time>2026-05-01T09:44:19.235Z</time></trkpt><trkpt lat="39.4982063" lon="8.5238092"><ele>422.0</ele><time>2026-05-01T09:44:20.236Z</time></trkpt><trkpt lat="39.4981717" lon="8.5236469"><ele>422.0</ele><time>2026-05-01T09:44:21.236Z</time></trkpt><trkpt lat="39.4981213" lon="8.5234873"><ele>423.5</ele><time>2026-05-01T09:44:22.236Z</time></trkpt><trkpt lat="39.4980565" lon="8.5233349"><ele>425.0</ele><time>2026-05-01T09:44:23.235Z</time></trkpt><trkpt lat="39.4979631" lon="8.5232017"><ele>426.5</ele><time>2026-05-01T09:44:24.235Z</time></trkpt><trkpt lat="39.49785" lon="8.5231103"><ele>428.0</ele><time>2026-05-01T09:44:25.236Z</time></trkpt><trkpt lat="39.4977133" lon="8.5230576"><ele>428.0</ele><time>2026-05-01T09:44:26.236Z</time></trkpt><trkpt lat="39.4975579" lon="8.5230107"><ele>428.0</ele><time>2026-05-01T09:44:27.236Z</time></trkpt><trkpt lat="39.4973909" lon="8.5229657"><ele>428.0</ele><time>2026-05-01T09:44:28.236Z</time></trkpt><trkpt lat="39.4972182" lon="8.5229168"><ele>429.0</ele><time>2026-05-01T09:44:29.236Z</time></trkpt><trkpt lat="39.4970335" lon="8.5228672"><ele>430.0</ele><time>2026-05-01T09:44:30.235Z</time></trkpt><trkpt lat="39.4968372" lon="8.5228114"><ele>431.0</ele><time>2026-05-01T09:44:31.236Z</time></trkpt><trkpt lat="39.4966217" lon="8.5227497"><ele>431.0</ele><time>2026-05-01T09:44:32.235Z</time></trkpt><trkpt lat="39.4964029" lon="8.5227013"><ele>431.0</ele><time>2026-05-01T09:44:33.235Z</time></trkpt><trkpt lat="39.4961803" lon="8.5226326"><ele>433.0</ele><time>2026-05-01T09:44:34.237Z</time></trkpt><trkpt lat="39.495966" lon="8.5225583"><ele>435.0</ele><time>2026-05-01T09:44:35.237Z</time></trkpt><trkpt lat="39.4957386" lon="8.5224965"><ele>435.0</ele><time>2026-05-01T09:44:36.237Z</time></trkpt><trkpt lat="39.4955248" lon="8.5224466"><ele>435.0</ele><time>2026-05-01T09:44:37.236Z</time></trkpt><trkpt lat="39.4953389" lon="8.5223868"><ele>435.0</ele><time>2026-05-01T09:44:38.235Z</time></trkpt><trkpt lat="39.4951434" lon="8.5223351"><ele>436.0</ele><time>2026-05-01T09:44:39.236Z</time></trkpt><trkpt lat="39.4949455" lon="8.5222878"><ele>437.0</ele><time>2026-05-01T09:44:40.236Z</time></trkpt><trkpt lat="39.4947809" lon="8.5222305"><ele>438.0</ele><time>2026-05-01T09:44:41.236Z</time></trkpt><trkpt lat="39.4946256" lon="8.5221451"><ele>439.0</ele><time>2026-05-01T09:44:42.237Z</time></trkpt><trkpt lat="39.4944792" lon="8.5220478"><ele>440.0</ele><time>2026-05-01T09:44:43.237Z</time></trkpt><trkpt lat="39.494334" lon="8.5219272"><ele>441.0</ele><time>2026-05-01T09:44:44.237Z</time></trkpt><trkpt lat="39.4941909" lon="8.5217928"><ele>441.0</ele><time>2026-05-01T09:44:45.235Z</time></trkpt><trkpt lat="39.4940628" lon="8.5216365"><ele>441.0</ele><time>2026-05-01T09:44:46.237Z</time></trkpt><trkpt lat="39.4939524" lon="8.5214613"><ele>441.0</ele><time>2026-05-01T09:44:47.237Z</time></trkpt><trkpt lat="39.4938522" lon="8.5212628"><ele>442.0</ele><time>2026-05-01T09:44:48.235Z</time></trkpt><trkpt lat="39.4937608" lon="8.5210319"><ele>443.0</ele><time>2026-05-01T09:44:49.236Z</time></trkpt><trkpt lat="39.4936525" lon="8.5207808"><ele>444.0</ele><time>2026-05-01T09:44:50.236Z</time></trkpt><trkpt lat="39.4935388" lon="8.5205082"><ele>441.0</ele><time>2026-05-01T09:44:51.236Z</time></trkpt><trkpt lat="39.4934247" lon="8.5202341"><ele>438.0</ele><time>2026-05-01T09:44:52.236Z</time></trkpt><trkpt lat="39.4933132" lon="8.5199653"><ele>438.0</ele><time>2026-05-01T09:44:53.237Z</time></trkpt><trkpt lat="39.4932042" lon="8.5197002"><ele>438.0</ele><time>2026-05-01T09:44:54.237Z</time></trkpt><trkpt lat="39.4930973" lon="8.5194403"><ele>437.5</ele><time>2026-05-01T09:44:55.237Z</time></trkpt><trkpt lat="39.4929872" lon="8.5191776"><ele>437.0</ele><time>2026-05-01T09:44:56.236Z</time></trkpt><trkpt lat="39.492879" lon="8.5189246"><ele>438.0</ele><time>2026-05-01T09:44:57.235Z</time></trkpt><trkpt lat="39.4927832" lon="8.5186842"><ele>439.0</ele><time>2026-05-01T09:44:58.236Z</time></trkpt><trkpt lat="39.4926866" lon="8.5184661"><ele>440.0</ele><time>2026-05-01T09:44:59.237Z</time></trkpt><trkpt lat="39.4925942" lon="8.5182481"><ele>440.0</ele><time>2026-05-01T09:45:00.235Z</time></trkpt><trkpt lat="39.4924942" lon="8.5180415"><ele>440.0</ele><time>2026-05-01T09:45:01.235Z</time></trkpt><trkpt lat="39.4923798" lon="8.5178576"><ele>440.0</ele><time>2026-05-01T09:45:02.236Z</time></trkpt><trkpt lat="39.4922444" lon="8.517701"><ele>440.66666666666663</ele><time>2026-05-01T09:45:03.237Z</time></trkpt><trkpt lat="39.4921027" lon="8.5175668"><ele>441.33333333333337</ele><time>2026-05-01T09:45:04.237Z</time></trkpt><trkpt lat="39.4919528" lon="8.5174284"><ele>442.0</ele><time>2026-05-01T09:45:05.236Z</time></trkpt><trkpt lat="39.4917934" lon="8.5172921"><ele>442.0</ele><time>2026-05-01T09:45:06.236Z</time></trkpt><trkpt lat="39.4916382" lon="8.5171584"><ele>442.0</ele><time>2026-05-01T09:45:07.237Z</time></trkpt><trkpt lat="39.4914887" lon="8.5170342"><ele>442.0</ele><time>2026-05-01T09:45:08.237Z</time></trkpt><trkpt lat="39.4913353" lon="8.5169208"><ele>443.6666666666667</ele><time>2026-05-01T09:45:09.237Z</time></trkpt><trkpt lat="39.4911681" lon="8.5168319"><ele>445.33333333333337</ele><time>2026-05-01T09:45:10.237Z</time></trkpt><trkpt lat="39.4909907" lon="8.5167678"><ele>447.0</ele><time>2026-05-01T09:45:11.236Z</time></trkpt><trkpt lat="39.490807" lon="8.5167396"><ele>447.0</ele><time>2026-05-01T09:45:12.237Z</time></trkpt><trkpt lat="39.4906184" lon="8.5167446"><ele>447.0</ele><time>2026-05-01T09:45:13.235Z</time></trkpt><trkpt lat="39.4904281" lon="8.5167781"><ele>447.0</ele><time>2026-05-01T09:45:14.235Z</time></trkpt><trkpt lat="39.4902278" lon="8.5168496"><ele>449.0</ele><time>2026-05-01T09:45:15.236Z</time></trkpt><trkpt lat="39.4900229" lon="8.5169497"><ele>451.0</ele><time>2026-05-01T09:45:16.235Z</time></trkpt><trkpt lat="39.4898119" lon="8.5170475"><ele>453.0</ele><time>2026-05-01T09:45:17.237Z</time></trkpt><trkpt lat="39.4895905" lon="8.5171472"><ele>453.0</ele><time>2026-05-01T09:45:18.236Z</time></trkpt><trkpt lat="39.4893734" lon="8.5172554"><ele>453.0</ele><time>2026-05-01T09:45:19.236Z</time></trkpt><trkpt lat="39.4891798" lon="8.5173642"><ele>453.0</ele><time>2026-05-01T09:45:20.236Z</time></trkpt><trkpt lat="39.4890075" lon="8.5174705"><ele>453.0</ele><time>2026-05-01T09:45:21.237Z</time></trkpt><trkpt lat="39.4888496" lon="8.5175635"><ele>453.0</ele><time>2026-05-01T09:45:22.236Z</time></trkpt><trkpt lat="39.4887034" lon="8.5176509"><ele>453.0</ele><time>2026-05-01T09:45:23.237Z</time></trkpt><trkpt lat="39.488555" lon="8.5177377"><ele>455.33333333333337</ele><time>2026-05-01T09:45:24.236Z</time></trkpt><trkpt lat="39.4884003" lon="8.5177993"><ele>457.6666666666667</ele><time>2026-05-01T09:45:25.236Z</time></trkpt><trkpt lat="39.4882333" lon="8.5178398"><ele>460.0</ele><time>2026-05-01T09:45:26.237Z</time></trkpt><trkpt lat="39.4880646" lon="8.51784"><ele>460.33333333333337</ele><time>2026-05-01T09:45:27.237Z</time></trkpt><trkpt lat="39.4878857" lon="8.5178009"><ele>460.66666666666663</ele><time>2026-05-01T09:45:28.237Z</time></trkpt><trkpt lat="39.4877142" lon="8.5177168"><ele>461.0</ele><time>2026-05-01T09:45:29.237Z</time></trkpt><trkpt lat="39.4875396" lon="8.5175906"><ele>461.0</ele><time>2026-05-01T09:45:30.236Z</time></trkpt><trkpt lat="39.4873539" lon="8.5174477"><ele>461.0</ele><time>2026-05-01T09:45:31.236Z</time></trkpt><trkpt lat="39.4871803" lon="8.5173105"><ele>461.0</ele><time>2026-05-01T09:45:32.235Z</time></trkpt><trkpt lat="39.4870168" lon="8.5171816"><ele>461.66666666666663</ele><time>2026-05-01T09:45:33.237Z</time></trkpt><trkpt lat="39.4868612" lon="8.5170599"><ele>462.33333333333337</ele><time>2026-05-01T09:45:34.235Z</time></trkpt><trkpt lat="39.4867198" lon="8.5169422"><ele>463.0</ele><time>2026-05-01T09:45:35.235Z</time></trkpt><trkpt lat="39.4866045" lon="8.5168066"><ele>463.0</ele><time>2026-05-01T09:45:36.236Z</time></trkpt><trkpt lat="39.486498" lon="8.5166496"><ele>463.0</ele><time>2026-05-01T09:45:37.236Z</time></trkpt><trkpt lat="39.4864051" lon="8.5164862"><ele>463.0</ele><time>2026-05-01T09:45:38.237Z</time></trkpt><trkpt lat="39.486326" lon="8.516294"><ele>459.6666666666667</ele><time>2026-05-01T09:45:39.236Z</time></trkpt><trkpt lat="39.4862539" lon="8.5160814"><ele>456.33333333333337</ele><time>2026-05-01T09:45:40.236Z</time></trkpt><trkpt lat="39.4861859" lon="8.5158503"><ele>453.0</ele><time>2026-05-01T09:45:41.236Z</time></trkpt><trkpt lat="39.4861145" lon="8.5156173"><ele>452.0</ele><time>2026-05-01T09:45:42.236Z</time></trkpt><trkpt lat="39.4860427" lon="8.515392"><ele>451.0</ele><time>2026-05-01T09:45:43.237Z</time></trkpt><trkpt lat="39.4859688" lon="8.5151617"><ele>450.0</ele><time>2026-05-01T09:45:44.237Z</time></trkpt><trkpt lat="39.4859021" lon="8.5149321"><ele>450.0</ele><time>2026-05-01T09:45:45.237Z</time></trkpt><trkpt lat="39.4858469" lon="8.514701"><ele>450.0</ele><time>2026-05-01T09:45:46.236Z</time></trkpt><trkpt lat="39.4858218" lon="8.5144635"><ele>450.0</ele><time>2026-05-01T09:45:47.236Z</time></trkpt><trkpt lat="39.4858027" lon="8.5142461"><ele>449.25</ele><time>2026-05-01T09:45:48.237Z</time></trkpt><trkpt lat="39.4857646" lon="8.5140596"><ele>448.5</ele><time>2026-05-01T09:45:49.236Z</time></trkpt><trkpt lat="39.4857207" lon="8.5138948"><ele>447.75</ele><time>2026-05-01T09:45:50.236Z</time></trkpt><trkpt lat="39.4857" lon="8.5137247"><ele>447.0</ele><time>2026-05-01T09:45:51.236Z</time></trkpt><trkpt lat="39.4857177" lon="8.5135521"><ele>447.0</ele><time>2026-05-01T09:45:52.236Z</time></trkpt><trkpt lat="39.4857563" lon="8.5133749"><ele>447.0</ele><time>2026-05-01T09:45:53.237Z</time></trkpt><trkpt lat="39.4858093" lon="8.5131971"><ele>447.0</ele><time>2026-05-01T09:45:54.235Z</time></trkpt><trkpt lat="39.4858287" lon="8.513028"><ele>447.0</ele><time>2026-05-01T09:45:55.235Z</time></trkpt><trkpt lat="39.485809" lon="8.512861"><ele>447.0</ele><time>2026-05-01T09:45:56.235Z</time></trkpt><trkpt lat="39.4857363" lon="8.5127223"><ele>447.0</ele><time>2026-05-01T09:45:57.235Z</time></trkpt><trkpt lat="39.4856232" lon="8.5126241"><ele>447.0</ele><time>2026-05-01T09:45:58.236Z</time></trkpt><trkpt lat="39.4855083" lon="8.5125441"><ele>447.0</ele><time>2026-05-01T09:45:59.236Z</time></trkpt><trkpt lat="39.4853987" lon="8.5124008"><ele>443.66666666666663</ele><time>2026-05-01T09:46:00.235Z</time></trkpt><trkpt lat="39.4852771" lon="8.5122338"><ele>440.3333333333333</ele><time>2026-05-01T09:46:01.235Z</time></trkpt><trkpt lat="39.4851283" lon="8.5120557"><ele>437.0</ele><time>2026-05-01T09:46:02.237Z</time></trkpt><trkpt lat="39.4849645" lon="8.5118787"><ele>437.0</ele><time>2026-05-01T09:46:03.235Z</time></trkpt><trkpt lat="39.4848043" lon="8.5117041"><ele>437.0</ele><time>2026-05-01T09:46:04.236Z</time></trkpt><trkpt lat="39.4846456" lon="8.5115415"><ele>437.0</ele><time>2026-05-01T09:46:05.236Z</time></trkpt><trkpt lat="39.4844897" lon="8.5113842"><ele>432.66666666666663</ele><time>2026-05-01T09:46:06.235Z</time></trkpt><trkpt lat="39.4843432" lon="8.5112318"><ele>428.33333333333337</ele><time>2026-05-01T09:46:07.236Z</time></trkpt><trkpt lat="39.4842179" lon="8.5110779"><ele>424.0</ele><time>2026-05-01T09:46:08.235Z</time></trkpt><trkpt lat="39.4841086" lon="8.5109132"><ele>424.0</ele><time>2026-05-01T09:46:09.236Z</time></trkpt><trkpt lat="39.4840161" lon="8.5107378"><ele>424.0</ele><time>2026-05-01T09:46:10.236Z</time></trkpt><trkpt lat="39.4839514" lon="8.5105565"><ele>424.0</ele><time>2026-05-01T09:46:11.236Z</time></trkpt><trkpt lat="39.4839246" lon="8.5103565"><ele>423.0</ele><time>2026-05-01T09:46:12.236Z</time></trkpt><trkpt lat="39.4839219" lon="8.5101374"><ele>422.0</ele><time>2026-05-01T09:46:13.236Z</time></trkpt><trkpt lat="39.4839407" lon="8.509917"><ele>421.0</ele><time>2026-05-01T09:46:14.236Z</time></trkpt><trkpt lat="39.4839876" lon="8.5097041"><ele>416.6666666666667</ele><time>2026-05-01T09:46:15.236Z</time></trkpt><trkpt lat="39.4840653" lon="8.5094967"><ele>412.33333333333337</ele><time>2026-05-01T09:46:16.237Z</time></trkpt><trkpt lat="39.4841684" lon="8.5093202"><ele>408.0</ele><time>2026-05-01T09:46:17.237Z</time></trkpt><trkpt lat="39.4842679" lon="8.5091596"><ele>408.0</ele><time>2026-05-01T09:46:18.236Z</time></trkpt><trkpt lat="39.4843339" lon="8.5089706"><ele>408.0</ele><time>2026-05-01T09:46:19.237Z</time></trkpt><trkpt lat="39.4843828" lon="8.5087729"><ele>408.0</ele><time>2026-05-01T09:46:20.234Z</time></trkpt><trkpt lat="39.4843902" lon="8.50851"><ele>405.0</ele><time>2026-05-01T09:46:21.234Z</time></trkpt><trkpt lat="39.4844089" lon="8.5082413"><ele>402.0</ele><time>2026-05-01T09:46:22.236Z</time></trkpt><trkpt lat="39.484432" lon="8.5079499"><ele>399.0</ele><time>2026-05-01T09:46:23.235Z</time></trkpt><trkpt lat="39.4844505" lon="8.5076708"><ele>397.66666666666663</ele><time>2026-05-01T09:46:24.236Z</time></trkpt><trkpt lat="39.4844725" lon="8.5073973"><ele>396.3333333333333</ele><time>2026-05-01T09:46:25.237Z</time></trkpt><trkpt lat="39.4844912" lon="8.5071289"><ele>395.0</ele><time>2026-05-01T09:46:26.237Z</time></trkpt><trkpt lat="39.4845124" lon="8.5068604"><ele>392.66666666666663</ele><time>2026-05-01T09:46:27.235Z</time></trkpt><trkpt lat="39.4845212" lon="8.5066132"><ele>390.33333333333337</ele><time>2026-05-01T09:46:28.236Z</time></trkpt><trkpt lat="39.4845224" lon="8.5063817"><ele>388.0</ele><time>2026-05-01T09:46:29.236Z</time></trkpt><trkpt lat="39.4845114" lon="8.506177"><ele>387.25</ele><time>2026-05-01T09:46:30.236Z</time></trkpt><trkpt lat="39.4845085" lon="8.5059814"><ele>386.5</ele><time>2026-05-01T09:46:31.235Z</time></trkpt><trkpt lat="39.4845274" lon="8.5057838"><ele>385.75</ele><time>2026-05-01T09:46:32.235Z</time></trkpt><trkpt lat="39.4845733" lon="8.5056144"><ele>385.0</ele><time>2026-05-01T09:46:33.237Z</time></trkpt><trkpt lat="39.4846292" lon="8.5054636"><ele>385.2</ele><time>2026-05-01T09:46:34.236Z</time></trkpt><trkpt lat="39.4846712" lon="8.5053118"><ele>385.4</ele><time>2026-05-01T09:46:35.237Z</time></trkpt><trkpt lat="39.4846766" lon="8.5051682"><ele>385.6</ele><time>2026-05-01T09:46:36.236Z</time></trkpt><trkpt lat="39.484635" lon="8.5050428"><ele>385.8</ele><time>2026-05-01T09:46:37.235Z</time></trkpt><trkpt lat="39.4845608" lon="8.5049643"><ele>386.0</ele><time>2026-05-01T09:46:38.236Z</time></trkpt><trkpt lat="39.4844645" lon="8.504935"><ele>386.0</ele><time>2026-05-01T09:46:39.236Z</time></trkpt><trkpt lat="39.4843587" lon="8.5049668"><ele>386.0</ele><time>2026-05-01T09:46:40.236Z</time></trkpt><trkpt lat="39.4842599" lon="8.505059"><ele>386.0</ele><time>2026-05-01T09:46:41.236Z</time></trkpt><trkpt lat="39.4841567" lon="8.5051936"><ele>386.0</ele><time>2026-05-01T09:46:42.237Z</time></trkpt><trkpt lat="39.4840517" lon="8.5053516"><ele>385.75</ele><time>2026-05-01T09:46:43.235Z</time></trkpt><trkpt lat="39.4839569" lon="8.5055146"><ele>385.5</ele><time>2026-05-01T09:46:44.234Z</time></trkpt><trkpt lat="39.4838662" lon="8.5056519"><ele>385.25</ele><time>2026-05-01T09:46:45.236Z</time></trkpt><trkpt lat="39.4837731" lon="8.5057808"><ele>385.0</ele><time>2026-05-01T09:46:46.236Z</time></trkpt><trkpt lat="39.4836595" lon="8.5058989"><ele>383.6666666666667</ele><time>2026-05-01T09:46:47.237Z</time></trkpt><trkpt lat="39.4835271" lon="8.5059992"><ele>382.33333333333337</ele><time>2026-05-01T09:46:48.235Z</time></trkpt><trkpt lat="39.4833771" lon="8.5060722"><ele>381.0</ele><time>2026-05-01T09:46:49.236Z</time></trkpt><trkpt lat="39.4832171" lon="8.5061353"><ele>381.0</ele><time>2026-05-01T09:46:50.236Z</time></trkpt><trkpt lat="39.4830511" lon="8.5061855"><ele>381.0</ele><time>2026-05-01T09:46:51.235Z</time></trkpt><trkpt lat="39.4829034" lon="8.5062119"><ele>381.0</ele><time>2026-05-01T09:46:52.236Z</time></trkpt><trkpt lat="39.4827681" lon="8.5062411"><ele>378.8</ele><time>2026-05-01T09:46:53.236Z</time></trkpt><trkpt lat="39.4826461" lon="8.5062625"><ele>376.6</ele><time>2026-05-01T09:46:54.234Z</time></trkpt><trkpt lat="39.4825341" lon="8.50627"><ele>374.4</ele><time>2026-05-01T09:46:55.237Z</time></trkpt><trkpt lat="39.482443" lon="8.5062407"><ele>372.2</ele><time>2026-05-01T09:46:56.236Z</time></trkpt><trkpt lat="39.4823774" lon="8.5061727"><ele>370.0</ele><time>2026-05-01T09:46:57.236Z</time></trkpt><trkpt lat="39.482351" lon="8.5060764"><ele>369.5</ele><time>2026-05-01T09:46:58.236Z</time></trkpt><trkpt lat="39.4823532" lon="8.5059674"><ele>369.0</ele><time>2026-05-01T09:46:59.237Z</time></trkpt><trkpt lat="39.4823946" lon="8.5058394"><ele>368.5</ele><time>2026-05-01T09:47:00.236Z</time></trkpt><trkpt lat="39.4824512" lon="8.505706"><ele>368.0</ele><time>2026-05-01T09:47:01.237Z</time></trkpt><trkpt lat="39.4825462" lon="8.5055396"><ele>371.25</ele><time>2026-05-01T09:47:02.236Z</time></trkpt><trkpt lat="39.4826352" lon="8.5054007"><ele>374.5</ele><time>2026-05-01T09:47:03.237Z</time></trkpt><trkpt lat="39.4827375" lon="8.5052816"><ele>377.75</ele><time>2026-05-01T09:47:04.237Z</time></trkpt><trkpt lat="39.4828481" lon="8.5051817"><ele>381.0</ele><time>2026-05-01T09:47:05.235Z</time></trkpt><trkpt lat="39.4829373" lon="8.5050856"><ele>381.0</ele><time>2026-05-01T09:47:06.236Z</time></trkpt><trkpt lat="39.4830022" lon="8.5049764"><ele>381.0</ele><time>2026-05-01T09:47:07.236Z</time></trkpt><trkpt lat="39.4830231" lon="8.5048475"><ele>381.0</ele><time>2026-05-01T09:47:08.237Z</time></trkpt><trkpt lat="39.4830024" lon="8.5047247"><ele>381.0</ele><time>2026-05-01T09:47:09.236Z</time></trkpt><trkpt lat="39.4829494" lon="8.5045915"><ele>381.0</ele><time>2026-05-01T09:47:10.237Z</time></trkpt><trkpt lat="39.4828884" lon="8.5044239"><ele>368.5</ele><time>2026-05-01T09:47:11.236Z</time></trkpt><trkpt lat="39.4828259" lon="8.5042285"><ele>356.0</ele><time>2026-05-01T09:47:12.237Z</time></trkpt><trkpt lat="39.4827701" lon="8.504051"><ele>343.5</ele><time>2026-05-01T09:47:13.235Z</time></trkpt><trkpt lat="39.4827488" lon="8.5038837"><ele>331.0</ele><time>2026-05-01T09:47:14.235Z</time></trkpt><trkpt lat="39.4827323" lon="8.503723"><ele>329.0</ele><time>2026-05-01T09:47:15.237Z</time></trkpt><trkpt lat="39.4827833" lon="8.5035928"><ele>327.0</ele><time>2026-05-01T09:47:16.236Z</time></trkpt><trkpt lat="39.4828583" lon="8.5034548"><ele>325.0</ele><time>2026-05-01T09:47:17.236Z</time></trkpt><trkpt lat="39.4829577" lon="8.5033128"><ele>323.0</ele><time>2026-05-01T09:47:18.237Z</time></trkpt><trkpt lat="39.4830565" lon="8.5031817"><ele>331.0</ele><time>2026-05-01T09:47:19.235Z</time></trkpt><trkpt lat="39.4831541" lon="8.5030695"><ele>339.0</ele><time>2026-05-01T09:47:20.234Z</time></trkpt><trkpt lat="39.4832547" lon="8.5029929"><ele>347.0</ele><time>2026-05-01T09:47:21.235Z</time></trkpt><trkpt lat="39.4833722" lon="8.5029468"><ele>355.0</ele><time>2026-05-01T09:47:22.236Z</time></trkpt><trkpt lat="39.4835059" lon="8.5029447"><ele>355.0</ele><time>2026-05-01T09:47:23.237Z</time></trkpt><trkpt lat="39.4836473" lon="8.502938"><ele>355.0</ele><time>2026-05-01T09:47:24.236Z</time></trkpt><trkpt lat="39.4837764" lon="8.5029296"><ele>355.0</ele><time>2026-05-01T09:47:25.237Z</time></trkpt><trkpt lat="39.4838929" lon="8.5029251"><ele>355.0</ele><time>2026-05-01T09:47:26.236Z</time></trkpt><trkpt lat="39.4839994" lon="8.5028934"><ele>355.6</ele><time>2026-05-01T09:47:27.237Z</time></trkpt><trkpt lat="39.4840755" lon="8.5028299"><ele>356.2</ele><time>2026-05-01T09:47:28.237Z</time></trkpt><trkpt lat="39.4841196" lon="8.5027208"><ele>356.79999999999995</ele><time>2026-05-01T09:47:29.237Z</time></trkpt><trkpt lat="39.4841159" lon="8.5026042"><ele>357.4</ele><time>2026-05-01T09:47:30.235Z</time></trkpt><trkpt lat="39.4840651" lon="8.5024805"><ele>358.0</ele><time>2026-05-01T09:47:31.234Z</time></trkpt><trkpt lat="39.4839931" lon="8.5023389"><ele>358.0</ele><time>2026-05-01T09:47:32.237Z</time></trkpt><trkpt lat="39.4839111" lon="8.5021875"><ele>358.0</ele><time>2026-05-01T09:47:33.236Z</time></trkpt><trkpt lat="39.4838197" lon="8.5020539"><ele>358.0</ele><time>2026-05-01T09:47:34.235Z</time></trkpt><trkpt lat="39.4837254" lon="8.5019419"><ele>358.0</ele><time>2026-05-01T09:47:35.235Z</time></trkpt><trkpt lat="39.4836398" lon="8.5018511"><ele>357.5</ele><time>2026-05-01T09:47:36.236Z</time></trkpt><trkpt lat="39.4835859" lon="8.501757"><ele>357.0</ele><time>2026-05-01T09:47:37.236Z</time></trkpt><trkpt lat="39.4835622" lon="8.5016486"><ele>356.5</ele><time>2026-05-01T09:47:38.235Z</time></trkpt><trkpt lat="39.483577" lon="8.5015428"><ele>356.0</ele><time>2026-05-01T09:47:39.236Z</time></trkpt><trkpt lat="39.4836367" lon="8.501463"><ele>355.5</ele><time>2026-05-01T09:47:40.236Z</time></trkpt><trkpt lat="39.4837139" lon="8.5013924"><ele>355.0</ele><time>2026-05-01T09:47:41.236Z</time></trkpt><trkpt lat="39.4838122" lon="8.501312"><ele>352.6</ele><time>2026-05-01T09:47:42.237Z</time></trkpt><trkpt lat="39.4839006" lon="8.5012329"><ele>350.2</ele><time>2026-05-01T09:47:43.236Z</time></trkpt><trkpt lat="39.4839802" lon="8.5011381"><ele>347.79999999999995</ele><time>2026-05-01T09:47:44.236Z</time></trkpt><trkpt lat="39.4840073" lon="8.5010202"><ele>345.4</ele><time>2026-05-01T09:47:45.237Z</time></trkpt><trkpt lat="39.4840013" lon="8.5009049"><ele>343.0</ele><time>2026-05-01T09:47:46.236Z</time></trkpt><trkpt lat="39.4839408" lon="8.5007942"><ele>343.0</ele><time>2026-05-01T09:47:47.237Z</time></trkpt><trkpt lat="39.4838646" lon="8.5006982"><ele>343.0</ele><time>2026-05-01T09:47:48.235Z</time></trkpt><trkpt lat="39.483797" lon="8.5005784"><ele>343.0</ele><time>2026-05-01T09:47:49.236Z</time></trkpt><trkpt lat="39.4837474" lon="8.5004489"><ele>343.0</ele><time>2026-05-01T09:47:50.235Z</time></trkpt><trkpt lat="39.4837493" lon="8.5003003"><ele>343.0</ele><time>2026-05-01T09:47:51.234Z</time></trkpt><trkpt lat="39.4837571" lon="8.5001543"><ele>342.25</ele><time>2026-05-01T09:47:52.237Z</time></trkpt><trkpt lat="39.4838312" lon="8.5000316"><ele>341.5</ele><time>2026-05-01T09:47:53.236Z</time></trkpt><trkpt lat="39.4838805" lon="8.4998801"><ele>340.75</ele><time>2026-05-01T09:47:54.235Z</time></trkpt><trkpt lat="39.4839046" lon="8.499716"><ele>340.0</ele><time>2026-05-01T09:47:55.237Z</time></trkpt><trkpt lat="39.483899" lon="8.4995245"><ele>339.25</ele><time>2026-05-01T09:47:56.235Z</time></trkpt><trkpt lat="39.4839014" lon="8.4993433"><ele>338.5</ele><time>2026-05-01T09:47:57.235Z</time></trkpt><trkpt lat="39.4839063" lon="8.4991821"><ele>337.75</ele><time>2026-05-01T09:47:58.237Z</time></trkpt><trkpt lat="39.4838849" lon="8.4990531"><ele>337.0</ele><time>2026-05-01T09:47:59.236Z</time></trkpt><trkpt lat="39.4838356" lon="8.4989435"><ele>332.0</ele><time>2026-05-01T09:48:00.236Z</time></trkpt><trkpt lat="39.4837543" lon="8.4988759"><ele>327.0</ele><time>2026-05-01T09:48:01.236Z</time></trkpt><trkpt lat="39.4836554" lon="8.498855"><ele>322.0</ele><time>2026-05-01T09:48:02.236Z</time></trkpt><trkpt lat="39.483539" lon="8.498866"><ele>317.0</ele><time>2026-05-01T09:48:03.236Z</time></trkpt><trkpt lat="39.4833992" lon="8.4989038"><ele>317.0</ele><time>2026-05-01T09:48:04.236Z</time></trkpt><trkpt lat="39.4832709" lon="8.4989481"><ele>317.0</ele><time>2026-05-01T09:48:05.235Z</time></trkpt><trkpt lat="39.4831557" lon="8.4989796"><ele>317.0</ele><time>2026-05-01T09:48:06.235Z</time></trkpt><trkpt lat="39.483031" lon="8.4989909"><ele>317.0</ele><time>2026-05-01T09:48:07.235Z</time></trkpt><trkpt lat="39.4829088" lon="8.498973"><ele>321.25</ele><time>2026-05-01T09:48:08.235Z</time></trkpt><trkpt lat="39.4827813" lon="8.498921"><ele>325.5</ele><time>2026-05-01T09:48:09.236Z</time></trkpt><trkpt lat="39.4826401" lon="8.4988426"><ele>329.75</ele><time>2026-05-01T09:48:10.235Z</time></trkpt><trkpt lat="39.4824996" lon="8.4987613"><ele>334.0</ele><time>2026-05-01T09:48:11.235Z</time></trkpt><trkpt lat="39.4823602" lon="8.4986892"><ele>334.0</ele><time>2026-05-01T09:48:12.236Z</time></trkpt><trkpt lat="39.482225" lon="8.4986164"><ele>334.0</ele><time>2026-05-01T09:48:13.235Z</time></trkpt><trkpt lat="39.4821099" lon="8.4985252"><ele>334.0</ele><time>2026-05-01T09:48:14.237Z</time></trkpt><trkpt lat="39.4820033" lon="8.4984234"><ele>334.0</ele><time>2026-05-01T09:48:15.235Z</time></trkpt><trkpt lat="39.481913" lon="8.4983064"><ele>330.75</ele><time>2026-05-01T09:48:16.236Z</time></trkpt><trkpt lat="39.4818786" lon="8.4981272"><ele>327.5</ele><time>2026-05-01T09:48:17.237Z</time></trkpt><trkpt lat="39.4818124" lon="8.4979729"><ele>324.25</ele><time>2026-05-01T09:48:18.236Z</time></trkpt><trkpt lat="39.4817375" lon="8.4978154"><ele>321.0</ele><time>2026-05-01T09:48:19.236Z</time></trkpt><trkpt lat="39.4816438" lon="8.497686"><ele>321.0</ele><time>2026-05-01T09:48:20.235Z</time></trkpt><trkpt lat="39.4815315" lon="8.4975896"><ele>321.0</ele><time>2026-05-01T09:48:21.237Z</time></trkpt><trkpt lat="39.4813819" lon="8.4975721"><ele>321.0</ele><time>2026-05-01T09:48:22.236Z</time></trkpt><trkpt lat="39.4812317" lon="8.4975686"><ele>321.0</ele><time>2026-05-01T09:48:23.237Z</time></trkpt><trkpt lat="39.4810778" lon="8.4975744"><ele>317.0</ele><time>2026-05-01T09:48:24.236Z</time></trkpt><trkpt lat="39.4809219" lon="8.4975886"><ele>313.0</ele><time>2026-05-01T09:48:25.236Z</time></trkpt><trkpt lat="39.4807704" lon="8.4976025"><ele>309.0</ele><time>2026-05-01T09:48:26.236Z</time></trkpt><trkpt lat="39.4806211" lon="8.497629"><ele>309.0</ele><time>2026-05-01T09:48:27.237Z</time></trkpt><trkpt lat="39.480487" lon="8.4976368"><ele>309.0</ele><time>2026-05-01T09:48:28.236Z</time></trkpt><trkpt lat="39.4803647" lon="8.4976491"><ele>309.0</ele><time>2026-05-01T09:48:29.236Z</time></trkpt><trkpt lat="39.4802415" lon="8.4976601"><ele>309.0</ele><time>2026-05-01T09:48:30.237Z</time></trkpt><trkpt lat="39.4801278" lon="8.4976288"><ele>306.25</ele><time>2026-05-01T09:48:31.235Z</time></trkpt><trkpt lat="39.4800267" lon="8.4975521"><ele>303.5</ele><time>2026-05-01T09:48:32.236Z</time></trkpt><trkpt lat="39.4799297" lon="8.4974426"><ele>300.75</ele><time>2026-05-01T09:48:33.236Z</time></trkpt><trkpt lat="39.4798597" lon="8.4973124"><ele>298.0</ele><time>2026-05-01T09:48:34.237Z</time></trkpt><trkpt lat="39.4798301" lon="8.4971598"><ele>298.25</ele><time>2026-05-01T09:48:35.237Z</time></trkpt><trkpt lat="39.4798281" lon="8.4969943"><ele>298.5</ele><time>2026-05-01T09:48:36.236Z</time></trkpt><trkpt lat="39.4798589" lon="8.4968297"><ele>298.75</ele><time>2026-05-01T09:48:37.236Z</time></trkpt><trkpt lat="39.4799201" lon="8.4966752"><ele>299.0</ele><time>2026-05-01T09:48:38.235Z</time></trkpt><trkpt lat="39.4799733" lon="8.4965118"><ele>299.0</ele><time>2026-05-01T09:48:39.236Z</time></trkpt><trkpt lat="39.4800147" lon="8.4963639"><ele>299.0</ele><time>2026-05-01T09:48:40.237Z</time></trkpt><trkpt lat="39.4799924" lon="8.4962081"><ele>299.0</ele><time>2026-05-01T09:48:41.235Z</time></trkpt><trkpt lat="39.4799379" lon="8.4960676"><ele>299.0</ele><time>2026-05-01T09:48:42.236Z</time></trkpt><trkpt lat="39.4798539" lon="8.4959436"><ele>301.25</ele><time>2026-05-01T09:48:43.237Z</time></trkpt><trkpt lat="39.4797573" lon="8.4958484"><ele>303.5</ele><time>2026-05-01T09:48:44.236Z</time></trkpt><trkpt lat="39.4796502" lon="8.4958002"><ele>305.75</ele><time>2026-05-01T09:48:45.235Z</time></trkpt><trkpt lat="39.4795327" lon="8.4958713"><ele>308.0</ele><time>2026-05-01T09:48:46.236Z</time></trkpt><trkpt lat="39.4794193" lon="8.495923"><ele>308.0</ele><time>2026-05-01T09:48:47.235Z</time></trkpt><trkpt lat="39.479303" lon="8.4959957"><ele>308.0</ele><time>2026-05-01T09:48:48.235Z</time></trkpt><trkpt lat="39.4791888" lon="8.4960807"><ele>308.0</ele><time>2026-05-01T09:48:49.236Z</time></trkpt><trkpt lat="39.4790826" lon="8.4961929"><ele>308.0</ele><time>2026-05-01T09:48:50.237Z</time></trkpt><trkpt lat="39.478974" lon="8.4963123"><ele>303.25</ele><time>2026-05-01T09:48:51.235Z</time></trkpt><trkpt lat="39.4788614" lon="8.4964284"><ele>298.5</ele><time>2026-05-01T09:48:52.235Z</time></trkpt><trkpt lat="39.4787588" lon="8.4965331"><ele>293.75</ele><time>2026-05-01T09:48:53.236Z</time></trkpt><trkpt lat="39.4786576" lon="8.4966293"><ele>289.0</ele><time>2026-05-01T09:48:54.235Z</time></trkpt><trkpt lat="39.4785575" lon="8.4967113"><ele>289.0</ele><time>2026-05-01T09:48:55.236Z</time></trkpt><trkpt lat="39.4784671" lon="8.4968019"><ele>289.0</ele><time>2026-05-01T09:48:56.236Z</time></trkpt><trkpt lat="39.4783605" lon="8.4969121"><ele>289.0</ele><time>2026-05-01T09:48:57.235Z</time></trkpt><trkpt lat="39.4782605" lon="8.4970078"><ele>289.0</ele><time>2026-05-01T09:48:58.235Z</time></trkpt><trkpt lat="39.4781654" lon="8.4970928"><ele>285.2</ele><time>2026-05-01T09:48:59.236Z</time></trkpt><trkpt lat="39.4780794" lon="8.4971697"><ele>281.4</ele><time>2026-05-01T09:49:00.235Z</time></trkpt><trkpt lat="39.4779961" lon="8.4972307"><ele>277.6</ele><time>2026-05-01T09:49:01.234Z</time></trkpt><trkpt lat="39.4779115" lon="8.4972884"><ele>273.8</ele><time>2026-05-01T09:49:02.236Z</time></trkpt><trkpt lat="39.4778233" lon="8.497333"><ele>270.0</ele><time>2026-05-01T09:49:03.236Z</time></trkpt><trkpt lat="39.4777355" lon="8.4973578"><ele>270.0</ele><time>2026-05-01T09:49:04.235Z</time></trkpt><trkpt lat="39.4776391" lon="8.4973811"><ele>270.0</ele><time>2026-05-01T09:49:05.234Z</time></trkpt><trkpt lat="39.477536" lon="8.4973716"><ele>270.0</ele><time>2026-05-01T09:49:06.236Z</time></trkpt><trkpt lat="39.4774364" lon="8.4973472"><ele>270.0</ele><time>2026-05-01T09:49:07.235Z</time></trkpt><trkpt lat="39.4773529" lon="8.4973094"><ele>270.0</ele><time>2026-05-01T09:49:08.234Z</time></trkpt><trkpt lat="39.4772839" lon="8.4972453"><ele>270.0</ele><time>2026-05-01T09:49:09.237Z</time></trkpt><trkpt lat="39.4772285" lon="8.4971594"><ele>270.0</ele><time>2026-05-01T09:49:10.235Z</time></trkpt><trkpt lat="39.4771964" lon="8.4970523"><ele>270.0</ele><time>2026-05-01T09:49:11.236Z</time></trkpt><trkpt lat="39.4771812" lon="8.4969393"><ele>270.0</ele><time>2026-05-01T09:49:12.237Z</time></trkpt><trkpt lat="39.4771871" lon="8.4968216"><ele>270.0</ele><time>2026-05-01T09:49:13.237Z</time></trkpt><trkpt lat="39.4772185" lon="8.4967145"><ele>270.0</ele><time>2026-05-01T09:49:14.235Z</time></trkpt><trkpt lat="39.477245" lon="8.4966062"><ele>270.6666666666667</ele><time>2026-05-01T09:49:15.235Z</time></trkpt><trkpt lat="39.4772782" lon="8.4965041"><ele>271.3333333333333</ele><time>2026-05-01T09:49:16.235Z</time></trkpt><trkpt lat="39.4773087" lon="8.4964011"><ele>272.0</ele><time>2026-05-01T09:49:17.236Z</time></trkpt><trkpt lat="39.4773193" lon="8.4963027"><ele>272.66666666666663</ele><time>2026-05-01T09:49:18.236Z</time></trkpt><trkpt lat="39.4772969" lon="8.4962051"><ele>273.3333333333333</ele><time>2026-05-01T09:49:19.235Z</time></trkpt><trkpt lat="39.477258" lon="8.49612"><ele>274.0</ele><time>2026-05-01T09:49:20.236Z</time></trkpt><trkpt lat="39.477221" lon="8.4960371"><ele>274.0</ele><time>2026-05-01T09:49:21.236Z</time></trkpt><trkpt lat="39.4772051" lon="8.4959419"><ele>274.0</ele><time>2026-05-01T09:49:22.237Z</time></trkpt><trkpt lat="39.4772041" lon="8.495841"><ele>274.0</ele><time>2026-05-01T09:49:23.237Z</time></trkpt><trkpt lat="39.4772212" lon="8.4957457"><ele>274.0</ele><time>2026-05-01T09:49:24.236Z</time></trkpt><trkpt lat="39.4772631" lon="8.4956698"><ele>274.0</ele><time>2026-05-01T09:49:25.236Z</time></trkpt><trkpt lat="39.477322" lon="8.4956279"><ele>274.0</ele><time>2026-05-01T09:49:26.236Z</time></trkpt><trkpt lat="39.4774244" lon="8.4955557"><ele>274.0</ele><time>2026-05-01T09:49:28.235Z</time></trkpt><trkpt lat="39.4774912" lon="8.4954307"><ele>274.0</ele><time>2026-05-01T09:49:30.237Z</time></trkpt><trkpt lat="39.4775003" lon="8.4953413"><ele>274.0</ele><time>2026-05-01T09:49:31.235Z</time></trkpt><trkpt lat="39.4775035" lon="8.4952489"><ele>274.0</ele><time>2026-05-01T09:49:32.234Z</time></trkpt><trkpt lat="39.4774816" lon="8.4951485"><ele>274.0</ele><time>2026-05-01T09:49:33.236Z</time></trkpt><trkpt lat="39.4774419" lon="8.4950561"><ele>274.0</ele><time>2026-05-01T09:49:34.235Z</time></trkpt><trkpt lat="39.4773806" lon="8.4949788"><ele>274.0</ele><time>2026-05-01T09:49:35.235Z</time></trkpt><trkpt lat="39.477307" lon="8.4949266"><ele>274.0</ele><time>2026-05-01T09:49:36.236Z</time></trkpt><trkpt lat="39.4772306" lon="8.494881"><ele>274.0</ele><time>2026-05-01T09:49:37.235Z</time></trkpt><trkpt lat="39.4771567" lon="8.4948156"><ele>274.0</ele><time>2026-05-01T09:49:38.235Z</time></trkpt><trkpt lat="39.47709" lon="8.4947404"><ele>274.0</ele><time>2026-05-01T09:49:39.235Z</time></trkpt><trkpt lat="39.4770521" lon="8.4946387"><ele>274.0</ele><time>2026-05-01T09:49:40.234Z</time></trkpt><trkpt lat="39.4770304" lon="8.494541"><ele>270.14285714285717</ele><time>2026-05-01T09:49:41.236Z</time></trkpt><trkpt lat="39.4770183" lon="8.49444"><ele>266.2857142857143</ele><time>2026-05-01T09:49:42.236Z</time></trkpt><trkpt lat="39.4770235" lon="8.4943331"><ele>262.42857142857144</ele><time>2026-05-01T09:49:43.235Z</time></trkpt><trkpt lat="39.47703" lon="8.4942412"><ele>258.57142857142856</ele><time>2026-05-01T09:49:44.235Z</time></trkpt><trkpt lat="39.4770414" lon="8.4941474"><ele>254.71428571428572</ele><time>2026-05-01T09:49:45.236Z</time></trkpt><trkpt lat="39.4770532" lon="8.4940602"><ele>250.85714285714286</ele><time>2026-05-01T09:49:46.235Z</time></trkpt><trkpt lat="39.4770601" lon="8.4939724"><ele>247.0</ele><time>2026-05-01T09:49:47.236Z</time></trkpt><trkpt lat="39.4770669" lon="8.4938865"><ele>246.99999999999997</ele><time>2026-05-01T09:49:48.236Z</time></trkpt><trkpt lat="39.4770696" lon="8.4937894"><ele>247.0</ele><time>2026-05-01T09:49:49.236Z</time></trkpt><trkpt lat="39.4770559" lon="8.4936956"><ele>247.0</ele><time>2026-05-01T09:49:50.237Z</time></trkpt><trkpt lat="39.477019" lon="8.493609"><ele>247.0</ele><time>2026-05-01T09:49:51.235Z</time></trkpt><trkpt lat="39.4769592" lon="8.4935467"><ele>246.99999999999997</ele><time>2026-05-01T09:49:52.237Z</time></trkpt><trkpt lat="39.4768834" lon="8.4935262"><ele>247.0</ele><time>2026-05-01T09:49:53.236Z</time></trkpt><trkpt lat="39.4768071" lon="8.4935486"><ele>250.57142857142858</ele><time>2026-05-01T09:49:54.235Z</time></trkpt><trkpt lat="39.4767324" lon="8.4935955"><ele>254.1428571428571</ele><time>2026-05-01T09:49:55.235Z</time></trkpt><trkpt lat="39.4766709" lon="8.4936334"><ele>257.71428571428567</ele><time>2026-05-01T09:49:56.236Z</time></trkpt><trkpt lat="39.4766096" lon="8.4936672"><ele>261.2857142857143</ele><time>2026-05-01T09:49:57.236Z</time></trkpt><trkpt lat="39.4765469" lon="8.4936859"><ele>264.85714285714283</ele><time>2026-05-01T09:49:58.235Z</time></trkpt><trkpt lat="39.4764805" lon="8.4936949"><ele>268.4285714285714</ele><time>2026-05-01T09:49:59.235Z</time></trkpt><trkpt lat="39.4764036" lon="8.493685"><ele>272.0</ele><time>2026-05-01T09:50:00.234Z</time></trkpt><trkpt lat="39.4763259" lon="8.4936487"><ele>271.6666666666667</ele><time>2026-05-01T09:50:01.237Z</time></trkpt><trkpt lat="39.4762537" lon="8.4936004"><ele>271.33333333333337</ele><time>2026-05-01T09:50:02.234Z</time></trkpt><trkpt lat="39.4761784" lon="8.493557"><ele>271.0</ele><time>2026-05-01T09:50:03.236Z</time></trkpt><trkpt lat="39.4760996" lon="8.4935418"><ele>270.6666666666667</ele><time>2026-05-01T09:50:04.237Z</time></trkpt><trkpt lat="39.4760265" lon="8.4935418"><ele>270.3333333333333</ele><time>2026-05-01T09:50:05.236Z</time></trkpt><trkpt lat="39.4759635" lon="8.4935935"><ele>270.0</ele><time>2026-05-01T09:50:06.235Z</time></trkpt><trkpt lat="39.475906" lon="8.4936548"><ele>270.0</ele><time>2026-05-01T09:50:07.235Z</time></trkpt><trkpt lat="39.475859" lon="8.4937289"><ele>270.0</ele><time>2026-05-01T09:50:08.236Z</time></trkpt><trkpt lat="39.4758255" lon="8.4938069"><ele>270.0</ele><time>2026-05-01T09:50:09.236Z</time></trkpt><trkpt lat="39.4757921" lon="8.493894"><ele>270.0</ele><time>2026-05-01T09:50:10.235Z</time></trkpt><trkpt lat="39.4757605" lon="8.4939771"><ele>270.0</ele><time>2026-05-01T09:50:11.235Z</time></trkpt><trkpt lat="39.4757252" lon="8.4940577"><ele>270.0</ele><time>2026-05-01T09:50:12.235Z</time></trkpt><trkpt lat="39.4756858" lon="8.4941467"><ele>270.0</ele><time>2026-05-01T09:50:13.235Z</time></trkpt><trkpt lat="39.4756329" lon="8.4942287"><ele>266.0</ele><time>2026-05-01T09:50:14.235Z</time></trkpt><trkpt lat="39.4755727" lon="8.4942939"><ele>262.0</ele><time>2026-05-01T09:50:15.235Z</time></trkpt><trkpt lat="39.4755064" lon="8.494347"><ele>258.0</ele><time>2026-05-01T09:50:16.236Z</time></trkpt><trkpt lat="39.4754278" lon="8.4943722"><ele>254.0</ele><time>2026-05-01T09:50:17.235Z</time></trkpt><trkpt lat="39.4753404" lon="8.4943737"><ele>250.0</ele><time>2026-05-01T09:50:18.236Z</time></trkpt><trkpt lat="39.4752394" lon="8.4943488"><ele>246.0</ele><time>2026-05-01T09:50:19.236Z</time></trkpt><trkpt lat="39.4751268" lon="8.4943116"><ele>246.0</ele><time>2026-05-01T09:50:20.234Z</time></trkpt><trkpt lat="39.4750023" lon="8.4942717"><ele>246.0</ele><time>2026-05-01T09:50:21.235Z</time></trkpt><trkpt lat="39.4748649" lon="8.4942272"><ele>246.0</ele><time>2026-05-01T09:50:22.235Z</time></trkpt><trkpt lat="39.4747329" lon="8.4941786"><ele>246.0</ele><time>2026-05-01T09:50:23.236Z</time></trkpt><trkpt lat="39.474606" lon="8.4941419"><ele>241.75</ele><time>2026-05-01T09:50:24.235Z</time></trkpt><trkpt lat="39.4744752" lon="8.494094"><ele>237.5</ele><time>2026-05-01T09:50:25.236Z</time></trkpt><trkpt lat="39.4743426" lon="8.4940258"><ele>233.25</ele><time>2026-05-01T09:50:26.236Z</time></trkpt><trkpt lat="39.4742265" lon="8.4939476"><ele>229.0</ele><time>2026-05-01T09:50:27.234Z</time></trkpt><trkpt lat="39.4741174" lon="8.4938561"><ele>229.0</ele><time>2026-05-01T09:50:28.235Z</time></trkpt><trkpt lat="39.4740174" lon="8.4937684"><ele>229.0</ele><time>2026-05-01T09:50:29.236Z</time></trkpt><trkpt lat="39.4739075" lon="8.4937105"><ele>229.0</ele><time>2026-05-01T09:50:30.236Z</time></trkpt><trkpt lat="39.4737974" lon="8.4936861"><ele>229.0</ele><time>2026-05-01T09:50:31.234Z</time></trkpt><trkpt lat="39.4736928" lon="8.4936806"><ele>228.39999999999998</ele><time>2026-05-01T09:50:32.235Z</time></trkpt><trkpt lat="39.4735983" lon="8.4936573"><ele>227.79999999999998</ele><time>2026-05-01T09:50:33.235Z</time></trkpt><trkpt lat="39.4734972" lon="8.4936138"><ele>227.20000000000002</ele><time>2026-05-01T09:50:34.236Z</time></trkpt><trkpt lat="39.4734087" lon="8.4935518"><ele>226.60000000000002</ele><time>2026-05-01T09:50:35.235Z</time></trkpt><trkpt lat="39.4733305" lon="8.4934659"><ele>226.0</ele><time>2026-05-01T09:50:36.235Z</time></trkpt><trkpt lat="39.4732798" lon="8.4933617"><ele>225.99999999999997</ele><time>2026-05-01T09:50:37.235Z</time></trkpt><trkpt lat="39.4732593" lon="8.4932378"><ele>226.0</ele><time>2026-05-01T09:50:38.236Z</time></trkpt><trkpt lat="39.473264" lon="8.4931145"><ele>226.0</ele><time>2026-05-01T09:50:39.236Z</time></trkpt><trkpt lat="39.4732735" lon="8.4929957"><ele>226.0</ele><time>2026-05-01T09:50:40.235Z</time></trkpt><trkpt lat="39.4732821" lon="8.4928927"><ele>225.99999999999997</ele><time>2026-05-01T09:50:41.235Z</time></trkpt><trkpt lat="39.4732811" lon="8.4928016"><ele>226.0</ele><time>2026-05-01T09:50:42.236Z</time></trkpt><trkpt lat="39.4732634" lon="8.4927088"><ele>228.0</ele><time>2026-05-01T09:50:43.235Z</time></trkpt><trkpt lat="39.4732246" lon="8.4926307"><ele>230.0</ele><time>2026-05-01T09:50:44.236Z</time></trkpt><trkpt lat="39.4731709" lon="8.4925613"><ele>232.0</ele><time>2026-05-01T09:50:45.235Z</time></trkpt><trkpt lat="39.4731147" lon="8.4925015"><ele>234.0</ele><time>2026-05-01T09:50:46.235Z</time></trkpt><trkpt lat="39.4730571" lon="8.4924442"><ele>236.0</ele><time>2026-05-01T09:50:47.236Z</time></trkpt><trkpt lat="39.4730084" lon="8.4923859"><ele>238.0</ele><time>2026-05-01T09:50:48.236Z</time></trkpt><trkpt lat="39.4729588" lon="8.4923136"><ele>240.0</ele><time>2026-05-01T09:50:49.235Z</time></trkpt><trkpt lat="39.4729178" lon="8.4922206"><ele>235.0</ele><time>2026-05-01T09:50:50.234Z</time></trkpt><trkpt lat="39.4728803" lon="8.4921121"><ele>230.0</ele><time>2026-05-01T09:50:51.235Z</time></trkpt><trkpt lat="39.4728519" lon="8.491993"><ele>225.0</ele><time>2026-05-01T09:50:52.237Z</time></trkpt><trkpt lat="39.4728355" lon="8.4918756"><ele>220.0</ele><time>2026-05-01T09:50:53.235Z</time></trkpt><trkpt lat="39.472824" lon="8.4917621"><ele>215.0</ele><time>2026-05-01T09:50:54.235Z</time></trkpt><trkpt lat="39.4728235" lon="8.4916551"><ele>215.00000000000003</ele><time>2026-05-01T09:50:55.236Z</time></trkpt><trkpt lat="39.4728239" lon="8.4915534"><ele>215.0</ele><time>2026-05-01T09:50:56.235Z</time></trkpt><trkpt lat="39.4728266" lon="8.491468"><ele>215.0</ele><time>2026-05-01T09:50:57.235Z</time></trkpt><trkpt lat="39.4728164" lon="8.4913857"><ele>215.0</ele><time>2026-05-01T09:50:58.236Z</time></trkpt><trkpt lat="39.4727554" lon="8.4912568"><ele>215.00000000000003</ele><time>2026-05-01T09:51:00.235Z</time></trkpt><trkpt lat="39.4726931" lon="8.4912117"><ele>215.0</ele><time>2026-05-01T09:51:01.237Z</time></trkpt><trkpt lat="39.4726162" lon="8.4911862"><ele>217.0</ele><time>2026-05-01T09:51:02.234Z</time></trkpt><trkpt lat="39.4725306" lon="8.4911662"><ele>219.0</ele><time>2026-05-01T09:51:03.237Z</time></trkpt><trkpt lat="39.472427" lon="8.491156"><ele>221.0</ele><time>2026-05-01T09:51:04.235Z</time></trkpt><trkpt lat="39.4723119" lon="8.4911405"><ele>223.0</ele><time>2026-05-01T09:51:05.236Z</time></trkpt><trkpt lat="39.4721888" lon="8.4911165"><ele>225.0</ele><time>2026-05-01T09:51:06.235Z</time></trkpt><trkpt lat="39.4720534" lon="8.4910928"><ele>225.0</ele><time>2026-05-01T09:51:07.235Z</time></trkpt><trkpt lat="39.4718985" lon="8.4910632"><ele>225.0</ele><time>2026-05-01T09:51:08.236Z</time></trkpt><trkpt lat="39.4717354" lon="8.4910365"><ele>225.0</ele><time>2026-05-01T09:51:09.235Z</time></trkpt><trkpt lat="39.4715755" lon="8.491025"><ele>225.0</ele><time>2026-05-01T09:51:10.235Z</time></trkpt><trkpt lat="39.4714121" lon="8.4910207"><ele>225.0</ele><time>2026-05-01T09:51:11.236Z</time></trkpt><trkpt lat="39.4712504" lon="8.491035"><ele>225.0</ele><time>2026-05-01T09:51:12.236Z</time></trkpt><trkpt lat="39.4710993" lon="8.4910596"><ele>224.5</ele><time>2026-05-01T09:51:13.236Z</time></trkpt><trkpt lat="39.4709586" lon="8.4910817"><ele>224.0</ele><time>2026-05-01T09:51:14.236Z</time></trkpt><trkpt lat="39.470826" lon="8.4910907"><ele>223.5</ele><time>2026-05-01T09:51:15.235Z</time></trkpt><trkpt lat="39.4706991" lon="8.4910629"><ele>223.0</ele><time>2026-05-01T09:51:16.235Z</time></trkpt><trkpt lat="39.4705732" lon="8.4910225"><ele>223.0</ele><time>2026-05-01T09:51:17.235Z</time></trkpt><trkpt lat="39.4704605" lon="8.490987"><ele>223.0</ele><time>2026-05-01T09:51:18.236Z</time></trkpt><trkpt lat="39.4703517" lon="8.4909444"><ele>223.0</ele><time>2026-05-01T09:51:19.236Z</time></trkpt><trkpt lat="39.4702421" lon="8.4908885"><ele>223.0</ele><time>2026-05-01T09:51:20.234Z</time></trkpt><trkpt lat="39.4701439" lon="8.4908055"><ele>224.0</ele><time>2026-05-01T09:51:21.234Z</time></trkpt><trkpt lat="39.4700497" lon="8.4907039"><ele>225.0</ele><time>2026-05-01T09:51:22.235Z</time></trkpt><trkpt lat="39.4699783" lon="8.4905775"><ele>226.0</ele><time>2026-05-01T09:51:23.235Z</time></trkpt><trkpt lat="39.4699132" lon="8.490429"><ele>227.0</ele><time>2026-05-01T09:51:24.235Z</time></trkpt><trkpt lat="39.4698371" lon="8.4902928"><ele>227.0</ele><time>2026-05-01T09:51:25.235Z</time></trkpt><trkpt lat="39.4697388" lon="8.4901709"><ele>227.0</ele><time>2026-05-01T09:51:26.236Z</time></trkpt><trkpt lat="39.4696027" lon="8.4900459"><ele>227.0</ele><time>2026-05-01T09:51:27.236Z</time></trkpt><trkpt lat="39.4694339" lon="8.4899139"><ele>223.66666666666669</ele><time>2026-05-01T09:51:28.236Z</time></trkpt><trkpt lat="39.4692484" lon="8.4897728"><ele>220.33333333333331</ele><time>2026-05-01T09:51:29.236Z</time></trkpt><trkpt lat="39.4690752" lon="8.4896368"><ele>217.0</ele><time>2026-05-01T09:51:30.235Z</time></trkpt><trkpt lat="39.468919" lon="8.4895112"><ele>217.0</ele><time>2026-05-01T09:51:31.234Z</time></trkpt><trkpt lat="39.4687801" lon="8.4894016"><ele>217.0</ele><time>2026-05-01T09:51:32.236Z</time></trkpt><trkpt lat="39.4686597" lon="8.4893093"><ele>217.0</ele><time>2026-05-01T09:51:33.235Z</time></trkpt><trkpt lat="39.4685635" lon="8.4891959"><ele>217.0</ele><time>2026-05-01T09:51:34.236Z</time></trkpt><trkpt lat="39.4685236" lon="8.4890563"><ele>211.6</ele><time>2026-05-01T09:51:35.234Z</time></trkpt><trkpt lat="39.4685044" lon="8.488913"><ele>206.2</ele><time>2026-05-01T09:51:36.235Z</time></trkpt><trkpt lat="39.4685109" lon="8.4887666"><ele>200.8</ele><time>2026-05-01T09:51:37.235Z</time></trkpt><trkpt lat="39.4685224" lon="8.4886179"><ele>195.4</ele><time>2026-05-01T09:51:38.236Z</time></trkpt><trkpt lat="39.4685563" lon="8.4884843"><ele>190.0</ele><time>2026-05-01T09:51:39.235Z</time></trkpt><trkpt lat="39.4685811" lon="8.4883613"><ele>190.0</ele><time>2026-05-01T09:51:40.235Z</time></trkpt><trkpt lat="39.4685888" lon="8.4882348"><ele>190.0</ele><time>2026-05-01T09:51:41.235Z</time></trkpt><trkpt lat="39.4685787" lon="8.4881159"><ele>190.0</ele><time>2026-05-01T09:51:42.235Z</time></trkpt><trkpt lat="39.4685565" lon="8.4880124"><ele>190.0</ele><time>2026-05-01T09:51:43.236Z</time></trkpt><trkpt lat="39.4684932" lon="8.4879418"><ele>190.0</ele><time>2026-05-01T09:51:44.236Z</time></trkpt><trkpt lat="39.4684172" lon="8.4878988"><ele>190.0</ele><time>2026-05-01T09:51:45.235Z</time></trkpt><trkpt lat="39.4683348" lon="8.4878789"><ele>190.0</ele><time>2026-05-01T09:51:46.235Z</time></trkpt><trkpt lat="39.4682391" lon="8.4878918"><ele>190.0</ele><time>2026-05-01T09:51:47.235Z</time></trkpt><trkpt lat="39.4681345" lon="8.4879195"><ele>190.0</ele><time>2026-05-01T09:51:48.234Z</time></trkpt><trkpt lat="39.4680228" lon="8.4879577"><ele>190.0</ele><time>2026-05-01T09:51:49.235Z</time></trkpt><trkpt lat="39.4679014" lon="8.4879839"><ele>190.0</ele><time>2026-05-01T09:51:50.236Z</time></trkpt><trkpt lat="39.4677827" lon="8.4880161"><ele>187.2</ele><time>2026-05-01T09:51:51.236Z</time></trkpt><trkpt lat="39.4676785" lon="8.488047"><ele>184.4</ele><time>2026-05-01T09:51:52.236Z</time></trkpt><trkpt lat="39.4675738" lon="8.4880839"><ele>181.60000000000002</ele><time>2026-05-01T09:51:53.235Z</time></trkpt><trkpt lat="39.4674724" lon="8.4881244"><ele>178.8</ele><time>2026-05-01T09:51:54.235Z</time></trkpt><trkpt lat="39.4673796" lon="8.488183"><ele>176.0</ele><time>2026-05-01T09:51:55.234Z</time></trkpt><trkpt lat="39.4672993" lon="8.48824"><ele>176.0</ele><time>2026-05-01T09:51:56.235Z</time></trkpt><trkpt lat="39.4672239" lon="8.4882945"><ele>176.0</ele><time>2026-05-01T09:51:57.236Z</time></trkpt><trkpt lat="39.4671367" lon="8.4883063"><ele>176.0</ele><time>2026-05-01T09:51:58.235Z</time></trkpt><trkpt lat="39.4670513" lon="8.4882974"><ele>176.0</ele><time>2026-05-01T09:51:59.236Z</time></trkpt><trkpt lat="39.4669684" lon="8.4882625"><ele>176.0</ele><time>2026-05-01T09:52:00.235Z</time></trkpt><trkpt lat="39.4668989" lon="8.4882133"><ele>176.0</ele><time>2026-05-01T09:52:01.235Z</time></trkpt><trkpt lat="39.4668311" lon="8.4881585"><ele>174.5</ele><time>2026-05-01T09:52:02.236Z</time></trkpt><trkpt lat="39.4667723" lon="8.4880895"><ele>173.0</ele><time>2026-05-01T09:52:03.236Z</time></trkpt><trkpt lat="39.4667288" lon="8.4879998"><ele>171.5</ele><time>2026-05-01T09:52:04.235Z</time></trkpt><trkpt lat="39.4667246" lon="8.4879042"><ele>170.0</ele><time>2026-05-01T09:52:05.235Z</time></trkpt><trkpt lat="39.4667411" lon="8.4878113"><ele>168.5</ele><time>2026-05-01T09:52:06.236Z</time></trkpt><trkpt lat="39.4667733" lon="8.4877224"><ele>167.0</ele><time>2026-05-01T09:52:07.235Z</time></trkpt><trkpt lat="39.4668074" lon="8.4876305"><ele>167.0</ele><time>2026-05-01T09:52:08.236Z</time></trkpt><trkpt lat="39.466825" lon="8.4875364"><ele>167.0</ele><time>2026-05-01T09:52:09.235Z</time></trkpt><trkpt lat="39.4668258" lon="8.4874392"><ele>167.0</ele><time>2026-05-01T09:52:10.236Z</time></trkpt><trkpt lat="39.466798" lon="8.4873407"><ele>167.0</ele><time>2026-05-01T09:52:11.235Z</time></trkpt><trkpt lat="39.4667568" lon="8.4872491"><ele>167.0</ele><time>2026-05-01T09:52:12.234Z</time></trkpt><trkpt lat="39.4667156" lon="8.4871548"><ele>167.0</ele><time>2026-05-01T09:52:13.234Z</time></trkpt><trkpt lat="39.4666882" lon="8.4870531"><ele>166.5</ele><time>2026-05-01T09:52:14.236Z</time></trkpt><trkpt lat="39.4666859" lon="8.4869449"><ele>166.0</ele><time>2026-05-01T09:52:15.235Z</time></trkpt><trkpt lat="39.4667057" lon="8.4868426"><ele>165.5</ele><time>2026-05-01T09:52:16.236Z</time></trkpt><trkpt lat="39.4667363" lon="8.486746"><ele>165.0</ele><time>2026-05-01T09:52:17.236Z</time></trkpt><trkpt lat="39.4667687" lon="8.4866492"><ele>164.5</ele><time>2026-05-01T09:52:18.234Z</time></trkpt><trkpt lat="39.4668005" lon="8.4865485"><ele>164.0</ele><time>2026-05-01T09:52:19.235Z</time></trkpt><trkpt lat="39.4668068" lon="8.4864432"><ele>163.99999999999997</ele><time>2026-05-01T09:52:20.235Z</time></trkpt><trkpt lat="39.4667919" lon="8.4863426"><ele>164.0</ele><time>2026-05-01T09:52:21.235Z</time></trkpt><trkpt lat="39.4667487" lon="8.4862664"><ele>164.0</ele><time>2026-05-01T09:52:22.236Z</time></trkpt><trkpt lat="39.4666896" lon="8.4862073"><ele>164.0</ele><time>2026-05-01T09:52:23.236Z</time></trkpt><trkpt lat="39.4666202" lon="8.4861739"><ele>164.0</ele><time>2026-05-01T09:52:24.235Z</time></trkpt><trkpt lat="39.4665514" lon="8.4861655"><ele>163.99999999999997</ele><time>2026-05-01T09:52:25.235Z</time></trkpt><trkpt lat="39.4664893" lon="8.4861487"><ele>164.0</ele><time>2026-05-01T09:52:26.235Z</time></trkpt><trkpt lat="39.4664297" lon="8.4861189"><ele>165.16666666666666</ele><time>2026-05-01T09:52:27.236Z</time></trkpt><trkpt lat="39.4663912" lon="8.486043"><ele>166.33333333333331</ele><time>2026-05-01T09:52:28.235Z</time></trkpt><trkpt lat="39.466361" lon="8.4859675"><ele>167.5</ele><time>2026-05-01T09:52:29.235Z</time></trkpt><trkpt lat="39.4663622" lon="8.4858666"><ele>168.66666666666666</ele><time>2026-05-01T09:52:30.233Z</time></trkpt><trkpt lat="39.4663554" lon="8.485763"><ele>169.83333333333334</ele><time>2026-05-01T09:52:31.236Z</time></trkpt><trkpt lat="39.4663337" lon="8.4856511"><ele>171.0</ele><time>2026-05-01T09:52:32.235Z</time></trkpt><trkpt lat="39.4662954" lon="8.4855532"><ele>167.60000000000002</ele><time>2026-05-01T09:52:33.235Z</time></trkpt><trkpt lat="39.466232" lon="8.4854899"><ele>164.20000000000002</ele><time>2026-05-01T09:52:34.236Z</time></trkpt><trkpt lat="39.46616" lon="8.4854162"><ele>160.8</ele><time>2026-05-01T09:52:35.235Z</time></trkpt><trkpt lat="39.4660926" lon="8.4853234"><ele>157.4</ele><time>2026-05-01T09:52:36.235Z</time></trkpt><trkpt lat="39.4660312" lon="8.4851928"><ele>154.0</ele><time>2026-05-01T09:52:37.235Z</time></trkpt><trkpt lat="39.465977" lon="8.4850607"><ele>154.0</ele><time>2026-05-01T09:52:38.236Z</time></trkpt><trkpt lat="39.4659359" lon="8.4849318"><ele>154.0</ele><time>2026-05-01T09:52:39.235Z</time></trkpt><trkpt lat="39.465888" lon="8.4848103"><ele>154.0</ele><time>2026-05-01T09:52:40.236Z</time></trkpt><trkpt lat="39.4658333" lon="8.484704"><ele>154.0</ele><time>2026-05-01T09:52:41.235Z</time></trkpt><trkpt lat="39.4657436" lon="8.4846133"><ele>154.0</ele><time>2026-05-01T09:52:42.235Z</time></trkpt><trkpt lat="39.4656134" lon="8.4845458"><ele>151.0</ele><time>2026-05-01T09:52:43.235Z</time></trkpt><trkpt lat="39.4654497" lon="8.4844528"><ele>148.0</ele><time>2026-05-01T09:52:44.236Z</time></trkpt><trkpt lat="39.4653043" lon="8.4843615"><ele>145.0</ele><time>2026-05-01T09:52:45.236Z</time></trkpt><trkpt lat="39.465171" lon="8.484278"><ele>145.0</ele><time>2026-05-01T09:52:46.235Z</time></trkpt><trkpt lat="39.4650529" lon="8.4842"><ele>145.0</ele><time>2026-05-01T09:52:47.234Z</time></trkpt><trkpt lat="39.4649458" lon="8.4841039"><ele>145.0</ele><time>2026-05-01T09:52:48.235Z</time></trkpt><trkpt lat="39.4649163" lon="8.483948"><ele>145.0</ele><time>2026-05-01T09:52:49.235Z</time></trkpt><trkpt lat="39.4649144" lon="8.4838041"><ele>143.25</ele><time>2026-05-01T09:52:50.236Z</time></trkpt><trkpt lat="39.4649643" lon="8.4836538"><ele>141.5</ele><time>2026-05-01T09:52:51.235Z</time></trkpt><trkpt lat="39.4650458" lon="8.483498"><ele>139.75</ele><time>2026-05-01T09:52:52.234Z</time></trkpt><trkpt lat="39.465151" lon="8.4833625"><ele>138.0</ele><time>2026-05-01T09:52:53.235Z</time></trkpt><trkpt lat="39.4652554" lon="8.4832514"><ele>138.0</ele><time>2026-05-01T09:52:54.235Z</time></trkpt><trkpt lat="39.465332" lon="8.4831241"><ele>138.0</ele><time>2026-05-01T09:52:55.236Z</time></trkpt><trkpt lat="39.4653461" lon="8.4829755"><ele>138.0</ele><time>2026-05-01T09:52:56.236Z</time></trkpt><trkpt lat="39.4653132" lon="8.4828492"><ele>138.0</ele><time>2026-05-01T09:52:57.233Z</time></trkpt><trkpt lat="39.4652585" lon="8.4827267"><ele>134.5</ele><time>2026-05-01T09:52:58.236Z</time></trkpt><trkpt lat="39.4652181" lon="8.4825953"><ele>131.0</ele><time>2026-05-01T09:52:59.236Z</time></trkpt><trkpt lat="39.4652524" lon="8.4824336"><ele>127.5</ele><time>2026-05-01T09:53:00.235Z</time></trkpt><trkpt lat="39.4653237" lon="8.4823004"><ele>124.0</ele><time>2026-05-01T09:53:01.236Z</time></trkpt><trkpt lat="39.4654337" lon="8.4821837"><ele>129.0</ele><time>2026-05-01T09:53:02.236Z</time></trkpt><trkpt lat="39.4655629" lon="8.4820843"><ele>134.0</ele><time>2026-05-01T09:53:03.235Z</time></trkpt><trkpt lat="39.4656695" lon="8.4819889"><ele>139.0</ele><time>2026-05-01T09:53:04.235Z</time></trkpt><trkpt lat="39.4657527" lon="8.4818816"><ele>144.0</ele><time>2026-05-01T09:53:05.235Z</time></trkpt><trkpt lat="39.4657976" lon="8.4817653"><ele>144.0</ele><time>2026-05-01T09:53:06.235Z</time></trkpt><trkpt lat="39.465772" lon="8.4816423"><ele>144.0</ele><time>2026-05-01T09:53:07.234Z</time></trkpt><trkpt lat="39.4657209" lon="8.4815444"><ele>144.0</ele><time>2026-05-01T09:53:08.235Z</time></trkpt><trkpt lat="39.4656127" lon="8.4814819"><ele>144.0</ele><time>2026-05-01T09:53:09.235Z</time></trkpt><trkpt lat="39.4654661" lon="8.4814217"><ele>136.66666666666666</ele><time>2026-05-01T09:53:10.234Z</time></trkpt><trkpt lat="39.465314" lon="8.481372"><ele>129.33333333333331</ele><time>2026-05-01T09:53:11.235Z</time></trkpt><trkpt lat="39.4651604" lon="8.4814034"><ele>122.0</ele><time>2026-05-01T09:53:12.235Z</time></trkpt><trkpt lat="39.4650167" lon="8.4814252"><ele>122.0</ele><time>2026-05-01T09:53:13.236Z</time></trkpt><trkpt lat="39.4648832" lon="8.4814539"><ele>121.99999999999999</ele><time>2026-05-01T09:53:14.235Z</time></trkpt><trkpt lat="39.4647699" lon="8.4814744"><ele>121.99999999999999</ele><time>2026-05-01T09:53:15.234Z</time></trkpt><trkpt lat="39.4646691" lon="8.4814952"><ele>122.0</ele><time>2026-05-01T09:53:16.236Z</time></trkpt><trkpt lat="39.4645763" lon="8.4815042"><ele>122.0</ele><time>2026-05-01T09:53:17.235Z</time></trkpt><trkpt lat="39.4644886" lon="8.4814665"><ele>119.6</ele><time>2026-05-01T09:53:18.235Z</time></trkpt><trkpt lat="39.4644241" lon="8.4813847"><ele>117.19999999999999</ele><time>2026-05-01T09:53:19.235Z</time></trkpt><trkpt lat="39.4643877" lon="8.4812542"><ele>114.8</ele><time>2026-05-01T09:53:20.234Z</time></trkpt><trkpt lat="39.4643942" lon="8.4811077"><ele>112.4</ele><time>2026-05-01T09:53:21.235Z</time></trkpt><trkpt lat="39.4644255" lon="8.4809543"><ele>110.0</ele><time>2026-05-01T09:53:22.234Z</time></trkpt><trkpt lat="39.4644312" lon="8.4808202"><ele>110.0</ele><time>2026-05-01T09:53:23.234Z</time></trkpt><trkpt lat="39.4643863" lon="8.4806973"><ele>110.0</ele><time>2026-05-01T09:53:24.236Z</time></trkpt><trkpt lat="39.4643051" lon="8.4806188"><ele>110.0</ele><time>2026-05-01T09:53:25.236Z</time></trkpt><trkpt lat="39.4641884" lon="8.480594"><ele>110.0</ele><time>2026-05-01T09:53:26.235Z</time></trkpt><trkpt lat="39.4640282" lon="8.4805946"><ele>110.0</ele><time>2026-05-01T09:53:27.235Z</time></trkpt><trkpt lat="39.4638808" lon="8.4805874"><ele>110.0</ele><time>2026-05-01T09:53:28.235Z</time></trkpt><trkpt lat="39.4637338" lon="8.4805876"><ele>110.0</ele><time>2026-05-01T09:53:29.236Z</time></trkpt><trkpt lat="39.4636176" lon="8.4805807"><ele>110.0</ele><time>2026-05-01T09:53:30.235Z</time></trkpt><trkpt lat="39.4635055" lon="8.4805456"><ele>109.75</ele><time>2026-05-01T09:53:31.236Z</time></trkpt><trkpt lat="39.4634096" lon="8.4804586"><ele>109.5</ele><time>2026-05-01T09:53:32.235Z</time></trkpt><trkpt lat="39.4633205" lon="8.4803318"><ele>109.25</ele><time>2026-05-01T09:53:33.234Z</time></trkpt><trkpt lat="39.4632365" lon="8.4801661"><ele>109.0</ele><time>2026-05-01T09:53:34.235Z</time></trkpt><trkpt lat="39.4631424" lon="8.4799732"><ele>109.0</ele><time>2026-05-01T09:53:35.235Z</time></trkpt><trkpt lat="39.4630425" lon="8.4797827"><ele>109.0</ele><time>2026-05-01T09:53:36.236Z</time></trkpt><trkpt lat="39.4629569" lon="8.4796029"><ele>109.0</ele><time>2026-05-01T09:53:37.235Z</time></trkpt><trkpt lat="39.4628816" lon="8.4794461"><ele>104.0</ele><time>2026-05-01T09:53:38.235Z</time></trkpt><trkpt lat="39.4628085" lon="8.4793031"><ele>99.0</ele><time>2026-05-01T09:53:39.235Z</time></trkpt><trkpt lat="39.4627443" lon="8.4791646"><ele>94.0</ele><time>2026-05-01T09:53:40.234Z</time></trkpt><trkpt lat="39.4626972" lon="8.4790334"><ele>89.0</ele><time>2026-05-01T09:53:41.235Z</time></trkpt><trkpt lat="39.462697" lon="8.478905"><ele>89.0</ele><time>2026-05-01T09:53:42.234Z</time></trkpt><trkpt lat="39.4627381" lon="8.4787727"><ele>89.0</ele><time>2026-05-01T09:53:43.236Z</time></trkpt><trkpt lat="39.4628157" lon="8.4786452"><ele>89.0</ele><time>2026-05-01T09:53:44.235Z</time></trkpt><trkpt lat="39.4629247" lon="8.4784887"><ele>89.0</ele><time>2026-05-01T09:53:45.235Z</time></trkpt><trkpt lat="39.4630445" lon="8.4783166"><ele>92.66666666666667</ele><time>2026-05-01T09:53:46.234Z</time></trkpt><trkpt lat="39.4631615" lon="8.4781496"><ele>96.33333333333334</ele><time>2026-05-01T09:53:47.234Z</time></trkpt><trkpt lat="39.4632571" lon="8.4780174"><ele>100.0</ele><time>2026-05-01T09:53:48.234Z</time></trkpt><trkpt lat="39.4633502" lon="8.4778887"><ele>100.0</ele><time>2026-05-01T09:53:49.235Z</time></trkpt><trkpt lat="39.4634254" lon="8.4777615"><ele>100.0</ele><time>2026-05-01T09:53:50.235Z</time></trkpt><trkpt lat="39.4634577" lon="8.4776293"><ele>100.0</ele><time>2026-05-01T09:53:51.235Z</time></trkpt><trkpt lat="39.4634578" lon="8.4775069"><ele>100.0</ele><time>2026-05-01T09:53:52.236Z</time></trkpt><trkpt lat="39.4634048" lon="8.4774155"><ele>100.0</ele><time>2026-05-01T09:53:53.236Z</time></trkpt><trkpt lat="39.4633338" lon="8.4773979"><ele>100.0</ele><time>2026-05-01T09:53:54.234Z</time></trkpt><trkpt lat="39.4632556" lon="8.4774289"><ele>100.0</ele><time>2026-05-01T09:53:55.234Z</time></trkpt><trkpt lat="39.4631615" lon="8.4775119"><ele>100.0</ele><time>2026-05-01T09:53:56.235Z</time></trkpt><trkpt lat="39.4630395" lon="8.4776281"><ele>100.0</ele><time>2026-05-01T09:53:57.236Z</time></trkpt><trkpt lat="39.4629007" lon="8.4777398"><ele>100.0</ele><time>2026-05-01T09:53:58.235Z</time></trkpt><trkpt lat="39.4627583" lon="8.4778422"><ele>100.0</ele><time>2026-05-01T09:53:59.235Z</time></trkpt><trkpt lat="39.4626114" lon="8.4779245"><ele>100.0</ele><time>2026-05-01T09:54:00.236Z</time></trkpt><trkpt lat="39.4624664" lon="8.4779852"><ele>96.75</ele><time>2026-05-01T09:54:01.235Z</time></trkpt><trkpt lat="39.4623286" lon="8.4780215"><ele>93.5</ele><time>2026-05-01T09:54:02.236Z</time></trkpt><trkpt lat="39.4621892" lon="8.4780669"><ele>90.25</ele><time>2026-05-01T09:54:03.235Z</time></trkpt><trkpt lat="39.4620599" lon="8.4781566"><ele>87.0</ele><time>2026-05-01T09:54:04.236Z</time></trkpt><trkpt lat="39.461938" lon="8.4782872"><ele>87.0</ele><time>2026-05-01T09:54:05.234Z</time></trkpt><trkpt lat="39.4618361" lon="8.4784633"><ele>87.0</ele><time>2026-05-01T09:54:06.233Z</time></trkpt><trkpt lat="39.4617371" lon="8.4786691"><ele>87.0</ele><time>2026-05-01T09:54:07.235Z</time></trkpt><trkpt lat="39.4616267" lon="8.4788772"><ele>82.33333333333333</ele><time>2026-05-01T09:54:08.235Z</time></trkpt><trkpt lat="39.4615113" lon="8.479067"><ele>77.66666666666666</ele><time>2026-05-01T09:54:09.236Z</time></trkpt><trkpt lat="39.4613885" lon="8.479241"><ele>73.0</ele><time>2026-05-01T09:54:10.235Z</time></trkpt><trkpt lat="39.4612862" lon="8.4793971"><ele>73.75</ele><time>2026-05-01T09:54:11.235Z</time></trkpt><trkpt lat="39.4611984" lon="8.4795348"><ele>74.5</ele><time>2026-05-01T09:54:12.234Z</time></trkpt><trkpt lat="39.4610943" lon="8.4796353"><ele>75.25</ele><time>2026-05-01T09:54:13.236Z</time></trkpt><trkpt lat="39.4609923" lon="8.4796944"><ele>76.0</ele><time>2026-05-01T09:54:14.235Z</time></trkpt><trkpt lat="39.4608775" lon="8.4797108"><ele>76.0</ele><time>2026-05-01T09:54:15.233Z</time></trkpt><trkpt lat="39.4607531" lon="8.4796732"><ele>76.0</ele><time>2026-05-01T09:54:16.236Z</time></trkpt><trkpt lat="39.4606224" lon="8.4795946"><ele>76.0</ele><time>2026-05-01T09:54:17.235Z</time></trkpt><trkpt lat="39.4604431" lon="8.479429"><ele>71.33333333333333</ele><time>2026-05-01T09:54:18.236Z</time></trkpt><trkpt lat="39.4602809" lon="8.4792853"><ele>66.66666666666667</ele><time>2026-05-01T09:54:19.235Z</time></trkpt><trkpt lat="39.4601365" lon="8.4791452"><ele>62.0</ele><time>2026-05-01T09:54:20.236Z</time></trkpt><trkpt lat="39.4600109" lon="8.4790011"><ele>62.0</ele><time>2026-05-01T09:54:21.235Z</time></trkpt><trkpt lat="39.4599325" lon="8.4788813"><ele>62.0</ele><time>2026-05-01T09:54:22.235Z</time></trkpt><trkpt lat="39.4598269" lon="8.4787935"><ele>62.0</ele><time>2026-05-01T09:54:23.234Z</time></trkpt><trkpt lat="39.4596872" lon="8.4787568"><ele>62.0</ele><time>2026-05-01T09:54:24.234Z</time></trkpt><trkpt lat="39.4594909" lon="8.4787531"><ele>64.0</ele><time>2026-05-01T09:54:25.236Z</time></trkpt><trkpt lat="39.4592606" lon="8.4787478"><ele>66.0</ele><time>2026-05-01T09:54:26.236Z</time></trkpt><trkpt lat="39.4589935" lon="8.4787156"><ele>61.5</ele><time>2026-05-01T09:54:27.236Z</time></trkpt><trkpt lat="39.4586909" lon="8.4786562"><ele>57.0</ele><time>2026-05-01T09:54:28.236Z</time></trkpt><trkpt lat="39.4584093" lon="8.4785881"><ele>57.0</ele><time>2026-05-01T09:54:29.235Z</time></trkpt><trkpt lat="39.4581541" lon="8.4785087"><ele>57.0</ele><time>2026-05-01T09:54:30.234Z</time></trkpt><trkpt lat="39.4579345" lon="8.4784302"><ele>54.33333333333333</ele><time>2026-05-01T09:54:31.235Z</time></trkpt><trkpt lat="39.4577351" lon="8.4783627"><ele>51.666666666666664</ele><time>2026-05-01T09:54:32.236Z</time></trkpt><trkpt lat="39.4575362" lon="8.4783097"><ele>49.0</ele><time>2026-05-01T09:54:33.235Z</time></trkpt><trkpt lat="39.4573348" lon="8.478302"><ele>49.0</ele><time>2026-05-01T09:54:34.234Z</time></trkpt><trkpt lat="39.4571325" lon="8.4783454"><ele>49.0</ele><time>2026-05-01T09:54:35.235Z</time></trkpt><trkpt lat="39.4569454" lon="8.4784163"><ele>49.0</ele><time>2026-05-01T09:54:36.236Z</time></trkpt><trkpt lat="39.4567548" lon="8.4784756"><ele>48.0</ele><time>2026-05-01T09:54:37.234Z</time></trkpt><trkpt lat="39.4565564" lon="8.4784935"><ele>47.0</ele><time>2026-05-01T09:54:38.235Z</time></trkpt><trkpt lat="39.4563414" lon="8.478487"><ele>46.0</ele><time>2026-05-01T09:54:39.236Z</time></trkpt><trkpt lat="39.4561226" lon="8.4784603"><ele>44.66666666666667</ele><time>2026-05-01T09:54:40.234Z</time></trkpt><trkpt lat="39.4559077" lon="8.478442"><ele>43.333333333333336</ele><time>2026-05-01T09:54:41.234Z</time></trkpt><trkpt lat="39.4556968" lon="8.4784378"><ele>42.0</ele><time>2026-05-01T09:54:42.235Z</time></trkpt><trkpt lat="39.4554829" lon="8.478445"><ele>41.0</ele><time>2026-05-01T09:54:43.233Z</time></trkpt><trkpt lat="39.4552694" lon="8.4784467"><ele>40.0</ele><time>2026-05-01T09:54:44.235Z</time></trkpt><trkpt lat="39.4550539" lon="8.4784507"><ele>39.0</ele><time>2026-05-01T09:54:45.235Z</time></trkpt><trkpt lat="39.4548518" lon="8.4784531"><ele>39.0</ele><time>2026-05-01T09:54:46.234Z</time></trkpt><trkpt lat="39.4546652" lon="8.4784567"><ele>39.0</ele><time>2026-05-01T09:54:47.233Z</time></trkpt><trkpt lat="39.454473" lon="8.4784631"><ele>39.0</ele><time>2026-05-01T09:54:48.235Z</time></trkpt><trkpt lat="39.45431" lon="8.4784662"><ele>39.0</ele><time>2026-05-01T09:54:49.233Z</time></trkpt><trkpt lat="39.4541596" lon="8.4784629"><ele>39.0</ele><time>2026-05-01T09:54:50.234Z</time></trkpt><trkpt lat="39.4540167" lon="8.4784717"><ele>39.0</ele><time>2026-05-01T09:54:51.235Z</time></trkpt><trkpt lat="39.4538877" lon="8.4784922"><ele>39.0</ele><time>2026-05-01T09:54:52.235Z</time></trkpt><trkpt lat="39.4537713" lon="8.4785401"><ele>39.0</ele><time>2026-05-01T09:54:53.234Z</time></trkpt><trkpt lat="39.4536855" lon="8.4786203"><ele>39.0</ele><time>2026-05-01T09:54:54.236Z</time></trkpt><trkpt lat="39.4536091" lon="8.4787111"><ele>39.0</ele><time>2026-05-01T09:54:55.235Z</time></trkpt><trkpt lat="39.4535451" lon="8.4787996"><ele>39.0</ele><time>2026-05-01T09:54:56.234Z</time></trkpt><trkpt lat="39.4534812" lon="8.4788792"><ele>39.0</ele><time>2026-05-01T09:54:57.234Z</time></trkpt><trkpt lat="39.4534217" lon="8.4789402"><ele>39.0</ele><time>2026-05-01T09:54:58.233Z</time></trkpt><trkpt lat="39.4533621" lon="8.4789877"><ele>39.0</ele><time>2026-05-01T09:54:59.235Z</time></trkpt><trkpt lat="39.4532597" lon="8.4790302"><ele>39.0</ele><time>2026-05-01T09:55:01.236Z</time></trkpt><trkpt lat="39.4531968" lon="8.4790338"><ele>39.0</ele><time>2026-05-01T09:55:02.234Z</time></trkpt><trkpt lat="39.4531182" lon="8.4790319"><ele>39.0</ele><time>2026-05-01T09:55:03.236Z</time></trkpt><trkpt lat="39.4530282" lon="8.4790146"><ele>39.0</ele><time>2026-05-01T09:55:04.234Z</time></trkpt><trkpt lat="39.4529193" lon="8.478992"><ele>38.0</ele><time>2026-05-01T09:55:05.235Z</time></trkpt><trkpt lat="39.4528016" lon="8.4789696"><ele>37.0</ele><time>2026-05-01T09:55:06.235Z</time></trkpt><trkpt lat="39.4526789" lon="8.4789513"><ele>36.0</ele><time>2026-05-01T09:55:07.234Z</time></trkpt><trkpt lat="39.4525448" lon="8.4789189"><ele>35.0</ele><time>2026-05-01T09:55:08.233Z</time></trkpt><trkpt lat="39.4523966" lon="8.4788838"><ele>35.0</ele><time>2026-05-01T09:55:09.236Z</time></trkpt><trkpt lat="39.4522342" lon="8.4788457"><ele>35.0</ele><time>2026-05-01T09:55:10.233Z</time></trkpt><trkpt lat="39.4520757" lon="8.4788026"><ele>35.0</ele><time>2026-05-01T09:55:11.234Z</time></trkpt><trkpt lat="39.4519087" lon="8.4787492"><ele>35.0</ele><time>2026-05-01T09:55:12.234Z</time></trkpt><trkpt lat="39.4517502" lon="8.478677"><ele>35.0</ele><time>2026-05-01T09:55:13.234Z</time></trkpt><trkpt lat="39.4515965" lon="8.4785957"><ele>35.0</ele><time>2026-05-01T09:55:14.235Z</time></trkpt><trkpt lat="39.4514472" lon="8.4785197"><ele>35.0</ele><time>2026-05-01T09:55:15.235Z</time></trkpt><trkpt lat="39.4513054" lon="8.4784545"><ele>35.0</ele><time>2026-05-01T09:55:16.235Z</time></trkpt><trkpt lat="39.4511658" lon="8.4784188"><ele>35.0</ele><time>2026-05-01T09:55:17.235Z</time></trkpt><trkpt lat="39.4510348" lon="8.4784111"><ele>35.0</ele><time>2026-05-01T09:55:18.234Z</time></trkpt><trkpt lat="39.450917" lon="8.4784133"><ele>35.6</ele><time>2026-05-01T09:55:19.235Z</time></trkpt><trkpt lat="39.4508117" lon="8.4783854"><ele>36.2</ele><time>2026-05-01T09:55:20.235Z</time></trkpt><trkpt lat="39.4507115" lon="8.4783232"><ele>36.8</ele><time>2026-05-01T09:55:21.236Z</time></trkpt><trkpt lat="39.4506304" lon="8.478228"><ele>37.4</ele><time>2026-05-01T09:55:22.236Z</time></trkpt><trkpt lat="39.4505609" lon="8.4781204"><ele>38.0</ele><time>2026-05-01T09:55:23.235Z</time></trkpt><trkpt lat="39.4505202" lon="8.4779518"><ele>37.0</ele><time>2026-05-01T09:55:24.235Z</time></trkpt><trkpt lat="39.4504869" lon="8.4777929"><ele>36.0</ele><time>2026-05-01T09:55:25.234Z</time></trkpt><trkpt lat="39.4504553" lon="8.4776151"><ele>35.0</ele><time>2026-05-01T09:55:26.235Z</time></trkpt><trkpt lat="39.450418" lon="8.4774328"><ele>34.0</ele><time>2026-05-01T09:55:27.233Z</time></trkpt><trkpt lat="39.4503788" lon="8.4772417"><ele>35.333333333333336</ele><time>2026-05-01T09:55:28.235Z</time></trkpt><trkpt lat="39.4503342" lon="8.4770469"><ele>36.666666666666664</ele><time>2026-05-01T09:55:29.235Z</time></trkpt><trkpt lat="39.4502928" lon="8.4768412"><ele>38.0</ele><time>2026-05-01T09:55:30.234Z</time></trkpt><trkpt lat="39.4502515" lon="8.476637"><ele>38.0</ele><time>2026-05-01T09:55:31.235Z</time></trkpt><trkpt lat="39.4502081" lon="8.4764376"><ele>38.0</ele><time>2026-05-01T09:55:32.235Z</time></trkpt><trkpt lat="39.4501672" lon="8.4762472"><ele>38.0</ele><time>2026-05-01T09:55:33.236Z</time></trkpt><trkpt lat="39.4501333" lon="8.4760728"><ele>38.0</ele><time>2026-05-01T09:55:34.233Z</time></trkpt><trkpt lat="39.4501181" lon="8.4758962"><ele>38.0</ele><time>2026-05-01T09:55:35.235Z</time></trkpt><trkpt lat="39.4501213" lon="8.4757193"><ele>38.0</ele><time>2026-05-01T09:55:36.234Z</time></trkpt><trkpt lat="39.4501435" lon="8.4755439"><ele>38.0</ele><time>2026-05-01T09:55:37.233Z</time></trkpt><trkpt lat="39.450172" lon="8.4753665"><ele>40.0</ele><time>2026-05-01T09:55:38.235Z</time></trkpt><trkpt lat="39.4502036" lon="8.4751793"><ele>42.0</ele><time>2026-05-01T09:55:39.235Z</time></trkpt><trkpt lat="39.4502348" lon="8.4749911"><ele>44.0</ele><time>2026-05-01T09:55:40.234Z</time></trkpt><trkpt lat="39.4502758" lon="8.4747982"><ele>44.0</ele><time>2026-05-01T09:55:41.234Z</time></trkpt><trkpt lat="39.4503044" lon="8.4746029"><ele>44.0</ele><time>2026-05-01T09:55:42.235Z</time></trkpt><trkpt lat="39.4503317" lon="8.4743961"><ele>44.0</ele><time>2026-05-01T09:55:43.235Z</time></trkpt><trkpt lat="39.4503467" lon="8.4741937"><ele>44.0</ele><time>2026-05-01T09:55:44.236Z</time></trkpt><trkpt lat="39.450354" lon="8.4739907"><ele>44.0</ele><time>2026-05-01T09:55:45.235Z</time></trkpt><trkpt lat="39.450351" lon="8.4737772"><ele>44.0</ele><time>2026-05-01T09:55:46.235Z</time></trkpt><trkpt lat="39.4503601" lon="8.4735797"><ele>44.75</ele><time>2026-05-01T09:55:47.235Z</time></trkpt><trkpt lat="39.4503767" lon="8.4733821"><ele>45.5</ele><time>2026-05-01T09:55:48.235Z</time></trkpt><trkpt lat="39.4503974" lon="8.4731957"><ele>46.25</ele><time>2026-05-01T09:55:49.235Z</time></trkpt><trkpt lat="39.4504317" lon="8.473017"><ele>47.0</ele><time>2026-05-01T09:55:50.236Z</time></trkpt><trkpt lat="39.4504661" lon="8.4728434"><ele>42.5</ele><time>2026-05-01T09:55:51.235Z</time></trkpt><trkpt lat="39.4504858" lon="8.4726607"><ele>38.0</ele><time>2026-05-01T09:55:52.234Z</time></trkpt><trkpt lat="39.4504978" lon="8.472478"><ele>33.5</ele><time>2026-05-01T09:55:53.234Z</time></trkpt><trkpt lat="39.4504976" lon="8.4722734"><ele>29.0</ele><time>2026-05-01T09:55:54.235Z</time></trkpt><trkpt lat="39.4504926" lon="8.4720667"><ele>28.666666666666664</ele><time>2026-05-01T09:55:55.235Z</time></trkpt><trkpt lat="39.4504846" lon="8.4718527"><ele>28.333333333333336</ele><time>2026-05-01T09:55:56.234Z</time></trkpt><trkpt lat="39.4504728" lon="8.4716416"><ele>28.0</ele><time>2026-05-01T09:55:57.235Z</time></trkpt><trkpt lat="39.4504611" lon="8.4714414"><ele>35.0</ele><time>2026-05-01T09:55:58.236Z</time></trkpt><trkpt lat="39.4504547" lon="8.4712453"><ele>42.0</ele><time>2026-05-01T09:55:59.234Z</time></trkpt><trkpt lat="39.4504486" lon="8.4710458"><ele>49.0</ele><time>2026-05-01T09:56:00.234Z</time></trkpt><trkpt lat="39.4504322" lon="8.4708425"><ele>49.0</ele><time>2026-05-01T09:56:01.235Z</time></trkpt><trkpt lat="39.4504141" lon="8.4706095"><ele>49.0</ele><time>2026-05-01T09:56:02.233Z</time></trkpt><trkpt lat="39.450401" lon="8.470399"><ele>49.0</ele><time>2026-05-01T09:56:03.234Z</time></trkpt><trkpt lat="39.4503809" lon="8.470179"><ele>48.666666666666664</ele><time>2026-05-01T09:56:04.235Z</time></trkpt><trkpt lat="39.4503598" lon="8.469963"><ele>48.33333333333333</ele><time>2026-05-01T09:56:05.235Z</time></trkpt><trkpt lat="39.4503331" lon="8.4697518"><ele>48.0</ele><time>2026-05-01T09:56:06.234Z</time></trkpt><trkpt lat="39.450311" lon="8.4695468"><ele>45.0</ele><time>2026-05-01T09:56:07.235Z</time></trkpt><trkpt lat="39.4502805" lon="8.4693369"><ele>42.0</ele><time>2026-05-01T09:56:08.235Z</time></trkpt><trkpt lat="39.450247" lon="8.4691195"><ele>39.0</ele><time>2026-05-01T09:56:09.235Z</time></trkpt><trkpt lat="39.4502337" lon="8.4688889"><ele>36.666666666666664</ele><time>2026-05-01T09:56:10.234Z</time></trkpt><trkpt lat="39.4502337" lon="8.468669"><ele>34.33333333333333</ele><time>2026-05-01T09:56:11.234Z</time></trkpt><trkpt lat="39.4502512" lon="8.4684781"><ele>32.0</ele><time>2026-05-01T09:56:12.235Z</time></trkpt><trkpt lat="39.4502381" lon="8.4683087"><ele>32.0</ele><time>2026-05-01T09:56:13.234Z</time></trkpt><trkpt lat="39.4501865" lon="8.4681421"><ele>32.0</ele><time>2026-05-01T09:56:14.235Z</time></trkpt><trkpt lat="39.4501072" lon="8.4680071"><ele>32.0</ele><time>2026-05-01T09:56:15.235Z</time></trkpt><trkpt lat="39.4499969" lon="8.4679171"><ele>32.0</ele><time>2026-05-01T09:56:16.235Z</time></trkpt><trkpt lat="39.4498552" lon="8.4678732"><ele>30.666666666666664</ele><time>2026-05-01T09:56:17.235Z</time></trkpt><trkpt lat="39.4496994" lon="8.4678733"><ele>29.333333333333336</ele><time>2026-05-01T09:56:18.235Z</time></trkpt><trkpt lat="39.4495411" lon="8.4678937"><ele>28.0</ele><time>2026-05-01T09:56:19.234Z</time></trkpt><trkpt lat="39.4493985" lon="8.4679173"><ele>27.5</ele><time>2026-05-01T09:56:20.234Z</time></trkpt><trkpt lat="39.4492628" lon="8.4679301"><ele>27.0</ele><time>2026-05-01T09:56:21.235Z</time></trkpt><trkpt lat="39.4491328" lon="8.4679169"><ele>26.5</ele><time>2026-05-01T09:56:22.236Z</time></trkpt><trkpt lat="39.4490083" lon="8.4678709"><ele>26.0</ele><time>2026-05-01T09:56:23.233Z</time></trkpt><trkpt lat="39.4488779" lon="8.4678203"><ele>26.75</ele><time>2026-05-01T09:56:24.234Z</time></trkpt><trkpt lat="39.4487428" lon="8.4677626"><ele>27.5</ele><time>2026-05-01T09:56:25.236Z</time></trkpt><trkpt lat="39.448611" lon="8.4677078"><ele>28.25</ele><time>2026-05-01T09:56:26.236Z</time></trkpt><trkpt lat="39.4484839" lon="8.4676485"><ele>29.0</ele><time>2026-05-01T09:56:27.234Z</time></trkpt><trkpt lat="39.4483652" lon="8.4675974"><ele>29.0</ele><time>2026-05-01T09:56:28.234Z</time></trkpt><trkpt lat="39.4482558" lon="8.4675387"><ele>29.0</ele><time>2026-05-01T09:56:29.233Z</time></trkpt><trkpt lat="39.4481484" lon="8.4674681"><ele>29.0</ele><time>2026-05-01T09:56:30.235Z</time></trkpt><trkpt lat="39.4480447" lon="8.4673882"><ele>29.0</ele><time>2026-05-01T09:56:31.234Z</time></trkpt><trkpt lat="39.4479521" lon="8.4673002"><ele>29.0</ele><time>2026-05-01T09:56:32.233Z</time></trkpt><trkpt lat="39.4478636" lon="8.4672004"><ele>29.0</ele><time>2026-05-01T09:56:33.235Z</time></trkpt><trkpt lat="39.4477782" lon="8.4670914"><ele>29.0</ele><time>2026-05-01T09:56:34.235Z</time></trkpt><trkpt lat="39.4476996" lon="8.4669913"><ele>29.0</ele><time>2026-05-01T09:56:35.234Z</time></trkpt><trkpt lat="39.4476257" lon="8.4668919"><ele>29.0</ele><time>2026-05-01T09:56:36.235Z</time></trkpt><trkpt lat="39.4475598" lon="8.4667806"><ele>29.0</ele><time>2026-05-01T09:56:37.233Z</time></trkpt><trkpt lat="39.4475025" lon="8.4666654"><ele>29.0</ele><time>2026-05-01T09:56:38.234Z</time></trkpt><trkpt lat="39.4474694" lon="8.46654"><ele>29.0</ele><time>2026-05-01T09:56:39.235Z</time></trkpt><trkpt lat="39.4474495" lon="8.4664163"><ele>29.0</ele><time>2026-05-01T09:56:40.234Z</time></trkpt><trkpt lat="39.4474413" lon="8.4662929"><ele>28.666666666666664</ele><time>2026-05-01T09:56:41.235Z</time></trkpt><trkpt lat="39.447439" lon="8.4661806"><ele>28.333333333333332</ele><time>2026-05-01T09:56:42.234Z</time></trkpt><trkpt lat="39.4474449" lon="8.4660706"><ele>28.0</ele><time>2026-05-01T09:56:43.234Z</time></trkpt><trkpt lat="39.4474429" lon="8.465971"><ele>27.666666666666664</ele><time>2026-05-01T09:56:44.235Z</time></trkpt><trkpt lat="39.4474486" lon="8.4658265"><ele>27.333333333333332</ele><time>2026-05-01T09:56:46.234Z</time></trkpt><trkpt lat="39.4474594" lon="8.4657336"><ele>27.0</ele><time>2026-05-01T09:56:48.234Z</time></trkpt><trkpt lat="39.4474665" lon="8.4656394"><ele>27.0</ele><time>2026-05-01T09:56:51.234Z</time></trkpt><trkpt lat="39.4474291" lon="8.4655203"><ele>27.000000000000004</ele><time>2026-05-01T10:03:24.234Z</time></trkpt><trkpt lat="39.4474222" lon="8.4653612"><ele>27.000000000000004</ele><time>2026-05-01T10:03:26.233Z</time></trkpt><trkpt lat="39.4474186" lon="8.4652541"><ele>27.0</ele><time>2026-05-01T10:03:27.234Z</time></trkpt><trkpt lat="39.4474046" lon="8.4651314"><ele>27.0</ele><time>2026-05-01T10:03:28.233Z</time></trkpt><trkpt lat="39.4473819" lon="8.4649993"><ele>26.5</ele><time>2026-05-01T10:03:29.232Z</time></trkpt><trkpt lat="39.4473531" lon="8.4648532"><ele>26.0</ele><time>2026-05-01T10:03:30.233Z</time></trkpt><trkpt lat="39.4473296" lon="8.464699"><ele>25.5</ele><time>2026-05-01T10:03:31.235Z</time></trkpt><trkpt lat="39.4473007" lon="8.4645285"><ele>25.0</ele><time>2026-05-01T10:03:32.234Z</time></trkpt><trkpt lat="39.4472698" lon="8.4643558"><ele>24.333333333333336</ele><time>2026-05-01T10:03:33.233Z</time></trkpt><trkpt lat="39.4472406" lon="8.4641748"><ele>23.666666666666668</ele><time>2026-05-01T10:03:34.233Z</time></trkpt><trkpt lat="39.44721" lon="8.4639809"><ele>23.0</ele><time>2026-05-01T10:03:35.234Z</time></trkpt><trkpt lat="39.4471722" lon="8.4637741"><ele>23.0</ele><time>2026-05-01T10:03:36.233Z</time></trkpt><trkpt lat="39.447135" lon="8.4635656"><ele>23.0</ele><time>2026-05-01T10:03:37.233Z</time></trkpt><trkpt lat="39.4470994" lon="8.4633645"><ele>23.0</ele><time>2026-05-01T10:03:38.233Z</time></trkpt><trkpt lat="39.4470637" lon="8.463178"><ele>23.0</ele><time>2026-05-01T10:03:39.234Z</time></trkpt><trkpt lat="39.4470302" lon="8.4629967"><ele>23.0</ele><time>2026-05-01T10:03:40.232Z</time></trkpt><trkpt lat="39.4470009" lon="8.4628229"><ele>23.0</ele><time>2026-05-01T10:03:41.234Z</time></trkpt><trkpt lat="39.446984" lon="8.4626426"><ele>23.0</ele><time>2026-05-01T10:03:42.235Z</time></trkpt><trkpt lat="39.4469954" lon="8.4624553"><ele>23.0</ele><time>2026-05-01T10:03:43.233Z</time></trkpt><trkpt lat="39.4470261" lon="8.4622612"><ele>23.0</ele><time>2026-05-01T10:03:44.233Z</time></trkpt><trkpt lat="39.4470818" lon="8.4620578"><ele>23.0</ele><time>2026-05-01T10:03:45.233Z</time></trkpt><trkpt lat="39.4471476" lon="8.4618397"><ele>23.0</ele><time>2026-05-01T10:03:46.234Z</time></trkpt><trkpt lat="39.4472237" lon="8.4616069"><ele>23.0</ele><time>2026-05-01T10:03:47.234Z</time></trkpt><trkpt lat="39.4473087" lon="8.461367"><ele>23.0</ele><time>2026-05-01T10:03:48.233Z</time></trkpt><trkpt lat="39.4473927" lon="8.4611037"><ele>25.5</ele><time>2026-05-01T10:03:49.233Z</time></trkpt><trkpt lat="39.4474829" lon="8.4608294"><ele>28.0</ele><time>2026-05-01T10:03:50.233Z</time></trkpt><trkpt lat="39.4475669" lon="8.4605525"><ele>31.0</ele><time>2026-05-01T10:03:51.235Z</time></trkpt><trkpt lat="39.4476526" lon="8.4602898"><ele>34.0</ele><time>2026-05-01T10:03:52.233Z</time></trkpt><trkpt lat="39.4477328" lon="8.4600421"><ele>37.0</ele><time>2026-05-01T10:03:53.234Z</time></trkpt><trkpt lat="39.4478245" lon="8.4598052"><ele>33.333333333333336</ele><time>2026-05-01T10:03:54.232Z</time></trkpt><trkpt lat="39.447925" lon="8.459575"><ele>29.666666666666664</ele><time>2026-05-01T10:03:55.233Z</time></trkpt><trkpt lat="39.448024" lon="8.4593487"><ele>26.0</ele><time>2026-05-01T10:03:56.233Z</time></trkpt><trkpt lat="39.4481139" lon="8.4591328"><ele>26.0</ele><time>2026-05-01T10:03:57.233Z</time></trkpt><trkpt lat="39.4481915" lon="8.4589157"><ele>26.0</ele><time>2026-05-01T10:03:58.233Z</time></trkpt><trkpt lat="39.4482522" lon="8.4586851"><ele>26.0</ele><time>2026-05-01T10:03:59.233Z</time></trkpt><trkpt lat="39.4483099" lon="8.4584546"><ele>27.0</ele><time>2026-05-01T10:04:00.233Z</time></trkpt><trkpt lat="39.4483544" lon="8.4582238"><ele>28.0</ele><time>2026-05-01T10:04:01.233Z</time></trkpt><trkpt lat="39.4483968" lon="8.4579904"><ele>29.0</ele><time>2026-05-01T10:04:02.233Z</time></trkpt><trkpt lat="39.4484594" lon="8.4577675"><ele>30.333333333333332</ele><time>2026-05-01T10:04:03.233Z</time></trkpt><trkpt lat="39.4485327" lon="8.4575473"><ele>31.666666666666664</ele><time>2026-05-01T10:04:04.233Z</time></trkpt><trkpt lat="39.4486237" lon="8.457344"><ele>33.0</ele><time>2026-05-01T10:04:05.234Z</time></trkpt><trkpt lat="39.4487234" lon="8.4571478"><ele>31.333333333333336</ele><time>2026-05-01T10:04:06.232Z</time></trkpt><trkpt lat="39.4488386" lon="8.4569613"><ele>29.666666666666668</ele><time>2026-05-01T10:04:07.234Z</time></trkpt><trkpt lat="39.4489488" lon="8.4567717"><ele>28.0</ele><time>2026-05-01T10:04:08.233Z</time></trkpt><trkpt lat="39.449067" lon="8.4565922"><ele>28.0</ele><time>2026-05-01T10:04:09.233Z</time></trkpt><trkpt lat="39.4491749" lon="8.4564049"><ele>28.0</ele><time>2026-05-01T10:04:10.233Z</time></trkpt><trkpt lat="39.4493417" lon="8.4560954"><ele>49.0</ele><time>2026-05-01T10:04:11.965Z</time></trkpt><trkpt lat="39.4495903" lon="8.4552163"><ele>49.0</ele><time>2026-05-01T10:04:16.231Z</time></trkpt><trkpt lat="39.4496196" lon="8.4549737"><ele>49.0</ele><time>2026-05-01T10:04:17.232Z</time></trkpt><trkpt lat="39.449653" lon="8.4547303"><ele>49.0</ele><time>2026-05-01T10:04:18.232Z</time></trkpt><trkpt lat="39.4496848" lon="8.4544796"><ele>40.0</ele><time>2026-05-01T10:04:19.232Z</time></trkpt><trkpt lat="39.4496952" lon="8.4542166"><ele>31.0</ele><time>2026-05-01T10:04:20.232Z</time></trkpt><trkpt lat="39.449686" lon="8.4539325"><ele>22.0</ele><time>2026-05-01T10:04:21.232Z</time></trkpt><trkpt lat="39.4496671" lon="8.4536275"><ele>21.0</ele><time>2026-05-01T10:04:22.232Z</time></trkpt><trkpt lat="39.4496468" lon="8.4533161"><ele>20.0</ele><time>2026-05-01T10:04:23.231Z</time></trkpt><trkpt lat="39.449627" lon="8.4530328"><ele>25.0</ele><time>2026-05-01T10:04:24.231Z</time></trkpt><trkpt lat="39.4496094" lon="8.4527715"><ele>30.0</ele><time>2026-05-01T10:04:25.231Z</time></trkpt><trkpt lat="39.4495923" lon="8.4525368"><ele>35.0</ele><time>2026-05-01T10:04:26.232Z</time></trkpt><trkpt lat="39.4495757" lon="8.4523248"><ele>35.0</ele><time>2026-05-01T10:04:27.232Z</time></trkpt><trkpt lat="39.4495604" lon="8.4521266"><ele>35.0</ele><time>2026-05-01T10:04:28.232Z</time></trkpt><trkpt lat="39.4495471" lon="8.4519389"><ele>35.0</ele><time>2026-05-01T10:04:29.232Z</time></trkpt><trkpt lat="39.4495435" lon="8.4517583"><ele>35.0</ele><time>2026-05-01T10:04:30.232Z</time></trkpt><trkpt lat="39.4495658" lon="8.4515857"><ele>33.666666666666664</ele><time>2026-05-01T10:04:31.231Z</time></trkpt><trkpt lat="39.4496081" lon="8.4513965"><ele>32.333333333333336</ele><time>2026-05-01T10:04:32.231Z</time></trkpt><trkpt lat="39.4496609" lon="8.4511869"><ele>31.0</ele><time>2026-05-01T10:04:33.232Z</time></trkpt><trkpt lat="39.4497269" lon="8.4509407"><ele>27.333333333333336</ele><time>2026-05-01T10:04:34.232Z</time></trkpt><trkpt lat="39.4498004" lon="8.4507078"><ele>23.666666666666668</ele><time>2026-05-01T10:04:35.231Z</time></trkpt><trkpt lat="39.449867" lon="8.4505046"><ele>20.0</ele><time>2026-05-01T10:04:36.231Z</time></trkpt><trkpt lat="39.4499238" lon="8.4503277"><ele>20.0</ele><time>2026-05-01T10:04:37.232Z</time></trkpt><trkpt lat="39.4499753" lon="8.4501731"><ele>20.0</ele><time>2026-05-01T10:04:38.232Z</time></trkpt><trkpt lat="39.4500058" lon="8.4500241"><ele>20.0</ele><time>2026-05-01T10:04:39.232Z</time></trkpt><trkpt lat="39.4500106" lon="8.4498753"><ele>20.0</ele><time>2026-05-01T10:04:40.232Z</time></trkpt><trkpt lat="39.4499861" lon="8.4497318"><ele>19.0</ele><time>2026-05-01T10:04:41.232Z</time></trkpt><trkpt lat="39.4499233" lon="8.4495889"><ele>18.0</ele><time>2026-05-01T10:04:42.231Z</time></trkpt><trkpt lat="39.4498214" lon="8.4494408"><ele>17.0</ele><time>2026-05-01T10:04:43.232Z</time></trkpt><trkpt lat="39.4496877" lon="8.4492621"><ele>20.666666666666668</ele><time>2026-05-01T10:04:44.231Z</time></trkpt><trkpt lat="39.4495812" lon="8.4490896"><ele>24.333333333333336</ele><time>2026-05-01T10:04:45.231Z</time></trkpt><trkpt lat="39.4494879" lon="8.4489434"><ele>28.0</ele><time>2026-05-01T10:04:46.231Z</time></trkpt><trkpt lat="39.449401" lon="8.4488123"><ele>25.0</ele><time>2026-05-01T10:04:47.231Z</time></trkpt><trkpt lat="39.4493054" lon="8.4486938"><ele>22.0</ele><time>2026-05-01T10:04:48.231Z</time></trkpt><trkpt lat="39.4491854" lon="8.4486088"><ele>19.0</ele><time>2026-05-01T10:04:49.232Z</time></trkpt><trkpt lat="39.449031" lon="8.448538"><ele>16.0</ele><time>2026-05-01T10:04:50.231Z</time></trkpt><trkpt lat="39.4488398" lon="8.4484701"><ele>17.0</ele><time>2026-05-01T10:04:51.232Z</time></trkpt><trkpt lat="39.4486106" lon="8.4483781"><ele>18.0</ele><time>2026-05-01T10:04:52.231Z</time></trkpt><trkpt lat="39.4483622" lon="8.448269"><ele>18.0</ele><time>2026-05-01T10:04:53.231Z</time></trkpt><trkpt lat="39.4480806" lon="8.4481507"><ele>18.0</ele><time>2026-05-01T10:04:54.232Z</time></trkpt><trkpt lat="39.4478154" lon="8.4480463"><ele>16.0</ele><time>2026-05-01T10:04:55.231Z</time></trkpt><trkpt lat="39.4475711" lon="8.447954"><ele>14.0</ele><time>2026-05-01T10:04:56.232Z</time></trkpt><trkpt lat="39.4473559" lon="8.4478764"><ele>14.0</ele><time>2026-05-01T10:04:57.232Z</time></trkpt><trkpt lat="39.4471613" lon="8.4478055"><ele>14.0</ele><time>2026-05-01T10:04:58.231Z</time></trkpt><trkpt lat="39.4469911" lon="8.4477219"><ele>14.0</ele><time>2026-05-01T10:04:59.231Z</time></trkpt><trkpt lat="39.446832" lon="8.4476061"><ele>13.333333333333334</ele><time>2026-05-01T10:05:00.231Z</time></trkpt><trkpt lat="39.4466652" lon="8.447446"><ele>12.666666666666668</ele><time>2026-05-01T10:05:01.232Z</time></trkpt><trkpt lat="39.4464869" lon="8.4472551"><ele>12.0</ele><time>2026-05-01T10:05:02.231Z</time></trkpt><trkpt lat="39.4462973" lon="8.4470454"><ele>16.0</ele><time>2026-05-01T10:05:03.232Z</time></trkpt><trkpt lat="39.446123" lon="8.446841"><ele>20.0</ele><time>2026-05-01T10:05:04.231Z</time></trkpt><trkpt lat="39.4459597" lon="8.4466182"><ele>20.0</ele><time>2026-05-01T10:05:05.232Z</time></trkpt><trkpt lat="39.4458077" lon="8.4463945"><ele>20.0</ele><time>2026-05-01T10:05:06.232Z</time></trkpt><trkpt lat="39.4456507" lon="8.446182"><ele>21.0</ele><time>2026-05-01T10:05:07.231Z</time></trkpt><trkpt lat="39.4454795" lon="8.4459798"><ele>22.0</ele><time>2026-05-01T10:05:08.232Z</time></trkpt><trkpt lat="39.445294" lon="8.4457806"><ele>22.0</ele><time>2026-05-01T10:05:09.232Z</time></trkpt><trkpt lat="39.4451112" lon="8.4455903"><ele>22.0</ele><time>2026-05-01T10:05:10.231Z</time></trkpt><trkpt lat="39.4449435" lon="8.4454129"><ele>23.0</ele><time>2026-05-01T10:05:11.231Z</time></trkpt><trkpt lat="39.4447846" lon="8.4452297"><ele>24.0</ele><time>2026-05-01T10:05:12.232Z</time></trkpt><trkpt lat="39.4446389" lon="8.4450324"><ele>25.0</ele><time>2026-05-01T10:05:13.232Z</time></trkpt><trkpt lat="39.4444985" lon="8.4448274"><ele>21.333333333333336</ele><time>2026-05-01T10:05:14.232Z</time></trkpt><trkpt lat="39.4443588" lon="8.4446145"><ele>17.666666666666668</ele><time>2026-05-01T10:05:15.231Z</time></trkpt><trkpt lat="39.4442251" lon="8.4444049"><ele>14.0</ele><time>2026-05-01T10:05:16.232Z</time></trkpt><trkpt lat="39.4441064" lon="8.4442053"><ele>14.0</ele><time>2026-05-01T10:05:17.231Z</time></trkpt><trkpt lat="39.4440001" lon="8.4440103"><ele>14.0</ele><time>2026-05-01T10:05:18.231Z</time></trkpt><trkpt lat="39.4439198" lon="8.4438087"><ele>14.0</ele><time>2026-05-01T10:05:19.232Z</time></trkpt><trkpt lat="39.4438718" lon="8.4436083"><ele>13.5</ele><time>2026-05-01T10:05:20.232Z</time></trkpt><trkpt lat="39.4438383" lon="8.4434149"><ele>13.0</ele><time>2026-05-01T10:05:21.231Z</time></trkpt><trkpt lat="39.4438738" lon="8.4432285"><ele>12.5</ele><time>2026-05-01T10:05:22.231Z</time></trkpt><trkpt lat="39.4439187" lon="8.443049"><ele>12.0</ele><time>2026-05-01T10:05:23.231Z</time></trkpt><trkpt lat="39.4440168" lon="8.4428554"><ele>13.666666666666668</ele><time>2026-05-01T10:05:24.231Z</time></trkpt><trkpt lat="39.4441248" lon="8.4426621"><ele>15.333333333333334</ele><time>2026-05-01T10:05:25.231Z</time></trkpt><trkpt lat="39.4442394" lon="8.4424356"><ele>17.0</ele><time>2026-05-01T10:05:26.231Z</time></trkpt><trkpt lat="39.4443496" lon="8.4422186"><ele>20.0</ele><time>2026-05-01T10:05:27.232Z</time></trkpt><trkpt lat="39.4444518" lon="8.4420216"><ele>23.0</ele><time>2026-05-01T10:05:28.232Z</time></trkpt><trkpt lat="39.4445473" lon="8.4418301"><ele>26.0</ele><time>2026-05-01T10:05:29.232Z</time></trkpt><trkpt lat="39.4446025" lon="8.4416428"><ele>26.0</ele><time>2026-05-01T10:05:30.231Z</time></trkpt><trkpt lat="39.4446108" lon="8.4414463"><ele>26.0</ele><time>2026-05-01T10:05:31.232Z</time></trkpt><trkpt lat="39.4445961" lon="8.4412412"><ele>26.0</ele><time>2026-05-01T10:05:32.232Z</time></trkpt><trkpt lat="39.4445642" lon="8.441007"><ele>25.0</ele><time>2026-05-01T10:05:33.231Z</time></trkpt><trkpt lat="39.4445263" lon="8.4407555"><ele>24.0</ele><time>2026-05-01T10:05:34.232Z</time></trkpt><trkpt lat="39.4444855" lon="8.4404799"><ele>23.0</ele><time>2026-05-01T10:05:35.231Z</time></trkpt><trkpt lat="39.4444431" lon="8.4401991"><ele>20.666666666666668</ele><time>2026-05-01T10:05:36.231Z</time></trkpt><trkpt lat="39.4444017" lon="8.4399443"><ele>18.333333333333332</ele><time>2026-05-01T10:05:37.232Z</time></trkpt><trkpt lat="39.4443659" lon="8.4397078"><ele>16.0</ele><time>2026-05-01T10:05:38.232Z</time></trkpt><trkpt lat="39.44433" lon="8.4394788"><ele>14.666666666666666</ele><time>2026-05-01T10:05:39.232Z</time></trkpt><trkpt lat="39.4442983" lon="8.4392515"><ele>13.333333333333332</ele><time>2026-05-01T10:05:40.232Z</time></trkpt><trkpt lat="39.4442662" lon="8.4390132"><ele>12.0</ele><time>2026-05-01T10:05:41.231Z</time></trkpt><trkpt lat="39.444242" lon="8.4387533"><ele>11.0</ele><time>2026-05-01T10:05:42.231Z</time></trkpt><trkpt lat="39.4442198" lon="8.4384672"><ele>10.0</ele><time>2026-05-01T10:05:43.232Z</time></trkpt><trkpt lat="39.4441956" lon="8.4381597"><ele>10.5</ele><time>2026-05-01T10:05:44.232Z</time></trkpt><trkpt lat="39.4441746" lon="8.4378369"><ele>11.0</ele><time>2026-05-01T10:05:45.231Z</time></trkpt><trkpt lat="39.4441443" lon="8.4375048"><ele>11.0</ele><time>2026-05-01T10:05:46.232Z</time></trkpt><trkpt lat="39.444123" lon="8.4371691"><ele>11.0</ele><time>2026-05-01T10:05:47.232Z</time></trkpt><trkpt lat="39.4440947" lon="8.436831"><ele>12.0</ele><time>2026-05-01T10:05:48.232Z</time></trkpt><trkpt lat="39.4440702" lon="8.4365218"><ele>13.0</ele><time>2026-05-01T10:05:49.232Z</time></trkpt><trkpt lat="39.4440417" lon="8.436238"><ele>11.333333333333332</ele><time>2026-05-01T10:05:50.231Z</time></trkpt><trkpt lat="39.4439854" lon="8.4359751"><ele>9.666666666666666</ele><time>2026-05-01T10:05:51.231Z</time></trkpt><trkpt lat="39.4438988" lon="8.4357282"><ele>8.0</ele><time>2026-05-01T10:05:52.231Z</time></trkpt><trkpt lat="39.4437907" lon="8.435479"><ele>10.5</ele><time>2026-05-01T10:05:53.231Z</time></trkpt><trkpt lat="39.4436649" lon="8.4352114"><ele>13.0</ele><time>2026-05-01T10:05:54.231Z</time></trkpt><trkpt lat="39.4435392" lon="8.4349321"><ele>13.0</ele><time>2026-05-01T10:05:55.232Z</time></trkpt><trkpt lat="39.4434135" lon="8.43465"><ele>13.0</ele><time>2026-05-01T10:05:56.232Z</time></trkpt><trkpt lat="39.4432958" lon="8.4343915"><ele>13.0</ele><time>2026-05-01T10:05:57.231Z</time></trkpt><trkpt lat="39.4431862" lon="8.4341597"><ele>13.0</ele><time>2026-05-01T10:05:58.232Z</time></trkpt><trkpt lat="39.4430907" lon="8.4339488"><ele>13.0</ele><time>2026-05-01T10:05:59.232Z</time></trkpt><trkpt lat="39.4430146" lon="8.4337271"><ele>15.0</ele><time>2026-05-01T10:06:00.232Z</time></trkpt><trkpt lat="39.4429622" lon="8.4334779"><ele>17.0</ele><time>2026-05-01T10:06:01.231Z</time></trkpt><trkpt lat="39.4429241" lon="8.4331948"><ele>19.0</ele><time>2026-05-01T10:06:02.231Z</time></trkpt><trkpt lat="39.4428909" lon="8.4328881"><ele>19.0</ele><time>2026-05-01T10:06:03.232Z</time></trkpt><trkpt lat="39.442859" lon="8.432556"><ele>19.0</ele><time>2026-05-01T10:06:04.231Z</time></trkpt><trkpt lat="39.4428234" lon="8.4322065"><ele>17.0</ele><time>2026-05-01T10:06:05.232Z</time></trkpt><trkpt lat="39.4427866" lon="8.4318504"><ele>15.0</ele><time>2026-05-01T10:06:06.232Z</time></trkpt><trkpt lat="39.4427496" lon="8.4314817"><ele>14.5</ele><time>2026-05-01T10:06:07.232Z</time></trkpt><trkpt lat="39.442713" lon="8.4311068"><ele>14.0</ele><time>2026-05-01T10:06:08.231Z</time></trkpt><trkpt lat="39.4426759" lon="8.4307251"><ele>12.0</ele><time>2026-05-01T10:06:09.231Z</time></trkpt><trkpt lat="39.4426397" lon="8.4303406"><ele>10.0</ele><time>2026-05-01T10:06:10.232Z</time></trkpt><trkpt lat="39.4426029" lon="8.4299423"><ele>10.0</ele><time>2026-05-01T10:06:11.232Z</time></trkpt><trkpt lat="39.4425614" lon="8.4295418"><ele>10.0</ele><time>2026-05-01T10:06:12.232Z</time></trkpt><trkpt lat="39.4425213" lon="8.4291415"><ele>9.0</ele><time>2026-05-01T10:06:13.232Z</time></trkpt><trkpt lat="39.4424828" lon="8.4287366"><ele>8.0</ele><time>2026-05-01T10:06:14.231Z</time></trkpt><trkpt lat="39.4424478" lon="8.4283277"><ele>7.5</ele><time>2026-05-01T10:06:15.232Z</time></trkpt><trkpt lat="39.4424102" lon="8.4279215"><ele>7.0</ele><time>2026-05-01T10:06:16.232Z</time></trkpt><trkpt lat="39.4423747" lon="8.4275291"><ele>7.0</ele><time>2026-05-01T10:06:17.231Z</time></trkpt><trkpt lat="39.4423423" lon="8.4271699"><ele>7.0</ele><time>2026-05-01T10:06:18.231Z</time></trkpt><trkpt lat="39.4423153" lon="8.4268465"><ele>7.333333333333334</ele><time>2026-05-01T10:06:19.232Z</time></trkpt><trkpt lat="39.4422879" lon="8.4265539"><ele>7.666666666666666</ele><time>2026-05-01T10:06:20.231Z</time></trkpt><trkpt lat="39.4422567" lon="8.4262801"><ele>8.0</ele><time>2026-05-01T10:06:21.231Z</time></trkpt><trkpt lat="39.4422183" lon="8.4260267"><ele>7.333333333333333</ele><time>2026-05-01T10:06:22.231Z</time></trkpt><trkpt lat="39.4421302" lon="8.4257942"><ele>6.666666666666666</ele><time>2026-05-01T10:06:23.231Z</time></trkpt><trkpt lat="39.4420162" lon="8.425563"><ele>6.0</ele><time>2026-05-01T10:06:24.231Z</time></trkpt><trkpt lat="39.4418822" lon="8.4253276"><ele>6.0</ele><time>2026-05-01T10:06:25.232Z</time></trkpt><trkpt lat="39.441709" lon="8.4250698"><ele>6.0</ele><time>2026-05-01T10:06:26.232Z</time></trkpt><trkpt lat="39.4415424" lon="8.4247926"><ele>5.0</ele><time>2026-05-01T10:06:27.231Z</time></trkpt><trkpt lat="39.4413838" lon="8.424508"><ele>4.0</ele><time>2026-05-01T10:06:28.231Z</time></trkpt><trkpt lat="39.4412221" lon="8.4242184"><ele>6.0</ele><time>2026-05-01T10:06:29.231Z</time></trkpt><trkpt lat="39.4410622" lon="8.4239187"><ele>8.0</ele><time>2026-05-01T10:06:30.231Z</time></trkpt><trkpt lat="39.4409067" lon="8.4236282"><ele>8.0</ele><time>2026-05-01T10:06:31.231Z</time></trkpt><trkpt lat="39.4407542" lon="8.4233545"><ele>8.0</ele><time>2026-05-01T10:06:32.231Z</time></trkpt><trkpt lat="39.4406127" lon="8.4230978"><ele>8.0</ele><time>2026-05-01T10:06:33.231Z</time></trkpt><trkpt lat="39.4404769" lon="8.4228504"><ele>8.0</ele><time>2026-05-01T10:06:34.231Z</time></trkpt><trkpt lat="39.4403557" lon="8.4226118"><ele>8.333333333333332</ele><time>2026-05-01T10:06:35.231Z</time></trkpt><trkpt lat="39.4402557" lon="8.4223726"><ele>8.666666666666666</ele><time>2026-05-01T10:06:36.231Z</time></trkpt><trkpt lat="39.4401822" lon="8.4221234"><ele>9.0</ele><time>2026-05-01T10:06:37.232Z</time></trkpt><trkpt lat="39.440135" lon="8.4218505"><ele>9.0</ele><time>2026-05-01T10:06:38.231Z</time></trkpt><trkpt lat="39.4401021" lon="8.4215701"><ele>9.0</ele><time>2026-05-01T10:06:39.231Z</time></trkpt><trkpt lat="39.4400798" lon="8.4212803"><ele>9.0</ele><time>2026-05-01T10:06:40.231Z</time></trkpt><trkpt lat="39.4400639" lon="8.4209763"><ele>8.333333333333334</ele><time>2026-05-01T10:06:41.231Z</time></trkpt><trkpt lat="39.4400456" lon="8.4206818"><ele>7.666666666666667</ele><time>2026-05-01T10:06:42.231Z</time></trkpt><trkpt lat="39.4400306" lon="8.4204063"><ele>7.0</ele><time>2026-05-01T10:06:43.231Z</time></trkpt><trkpt lat="39.439998" lon="8.4201454"><ele>6.333333333333334</ele><time>2026-05-01T10:06:44.231Z</time></trkpt><trkpt lat="39.4399359" lon="8.4198932"><ele>5.666666666666667</ele><time>2026-05-01T10:06:45.231Z</time></trkpt><trkpt lat="39.4398428" lon="8.4196406"><ele>5.0</ele><time>2026-05-01T10:06:46.231Z</time></trkpt><trkpt lat="39.4397277" lon="8.4193895"><ele>5.666666666666667</ele><time>2026-05-01T10:06:47.231Z</time></trkpt><trkpt lat="39.4396146" lon="8.4191545"><ele>6.333333333333334</ele><time>2026-05-01T10:06:48.232Z</time></trkpt><trkpt lat="39.4395092" lon="8.4189205"><ele>7.0</ele><time>2026-05-01T10:06:49.232Z</time></trkpt><trkpt lat="39.4394415" lon="8.4187169"><ele>7.0</ele><time>2026-05-01T10:06:50.231Z</time></trkpt><trkpt lat="39.4393821" lon="8.4185017"><ele>7.0</ele><time>2026-05-01T10:06:51.232Z</time></trkpt><trkpt lat="39.4393421" lon="8.4182676"><ele>7.0</ele><time>2026-05-01T10:06:52.231Z</time></trkpt><trkpt lat="39.4393144" lon="8.4180196"><ele>7.0</ele><time>2026-05-01T10:06:53.231Z</time></trkpt><trkpt lat="39.4392857" lon="8.4177638"><ele>7.0</ele><time>2026-05-01T10:06:54.232Z</time></trkpt><trkpt lat="39.4392601" lon="8.4175202"><ele>7.0</ele><time>2026-05-01T10:06:55.232Z</time></trkpt><trkpt lat="39.4392336" lon="8.4173035"><ele>5.666666666666667</ele><time>2026-05-01T10:06:56.232Z</time></trkpt><trkpt lat="39.4391917" lon="8.4171085"><ele>4.333333333333334</ele><time>2026-05-01T10:06:57.232Z</time></trkpt><trkpt lat="39.4391191" lon="8.4169327"><ele>3.0</ele><time>2026-05-01T10:06:58.231Z</time></trkpt><trkpt lat="39.4390144" lon="8.416768"><ele>3.0</ele><time>2026-05-01T10:06:59.232Z</time></trkpt><trkpt lat="39.4388981" lon="8.4166286"><ele>3.0</ele><time>2026-05-01T10:07:00.232Z</time></trkpt><trkpt lat="39.4387779" lon="8.4165268"><ele>3.0</ele><time>2026-05-01T10:07:01.232Z</time></trkpt><trkpt lat="39.4386493" lon="8.4164773"><ele>3.0</ele><time>2026-05-01T10:07:02.232Z</time></trkpt><trkpt lat="39.4385189" lon="8.4164931"><ele>3.666666666666667</ele><time>2026-05-01T10:07:03.231Z</time></trkpt><trkpt lat="39.4383792" lon="8.4165573"><ele>4.333333333333334</ele><time>2026-05-01T10:07:04.232Z</time></trkpt><trkpt lat="39.4382335" lon="8.4166492"><ele>5.0</ele><time>2026-05-01T10:07:05.232Z</time></trkpt><trkpt lat="39.4380789" lon="8.4167732"><ele>4.75</ele><time>2026-05-01T10:07:06.232Z</time></trkpt><trkpt lat="39.4379319" lon="8.4168732"><ele>4.5</ele><time>2026-05-01T10:07:07.231Z</time></trkpt><trkpt lat="39.4378011" lon="8.4169457"><ele>4.25</ele><time>2026-05-01T10:07:08.231Z</time></trkpt><trkpt lat="39.4376636" lon="8.4169669"><ele>4.0</ele><time>2026-05-01T10:07:09.231Z</time></trkpt><trkpt lat="39.4375141" lon="8.4169498"><ele>4.0</ele><time>2026-05-01T10:07:10.232Z</time></trkpt><trkpt lat="39.4373863" lon="8.416887"><ele>4.0</ele><time>2026-05-01T10:07:11.231Z</time></trkpt><trkpt lat="39.4372716" lon="8.4167829"><ele>4.0</ele><time>2026-05-01T10:07:12.232Z</time></trkpt><trkpt lat="39.4371646" lon="8.4166366"><ele>4.0</ele><time>2026-05-01T10:07:13.231Z</time></trkpt><trkpt lat="39.4370659" lon="8.4164776"><ele>5.75</ele><time>2026-05-01T10:07:14.231Z</time></trkpt><trkpt lat="39.4369948" lon="8.4163035"><ele>7.5</ele><time>2026-05-01T10:07:15.231Z</time></trkpt><trkpt lat="39.4369454" lon="8.4161261"><ele>9.25</ele><time>2026-05-01T10:07:16.232Z</time></trkpt><trkpt lat="39.4369276" lon="8.4159397"><ele>11.0</ele><time>2026-05-01T10:07:17.231Z</time></trkpt><trkpt lat="39.4369307" lon="8.4157435"><ele>11.0</ele><time>2026-05-01T10:07:18.232Z</time></trkpt><trkpt lat="39.4369425" lon="8.4155353"><ele>11.0</ele><time>2026-05-01T10:07:19.232Z</time></trkpt><trkpt lat="39.4369693" lon="8.4153401"><ele>11.0</ele><time>2026-05-01T10:07:20.232Z</time></trkpt><trkpt lat="39.4369906" lon="8.4151532"><ele>10.75</ele><time>2026-05-01T10:07:21.232Z</time></trkpt><trkpt lat="39.4370068" lon="8.4149727"><ele>10.5</ele><time>2026-05-01T10:07:22.232Z</time></trkpt><trkpt lat="39.4370282" lon="8.4147981"><ele>10.25</ele><time>2026-05-01T10:07:23.231Z</time></trkpt><trkpt lat="39.4370449" lon="8.4146306"><ele>10.0</ele><time>2026-05-01T10:07:24.231Z</time></trkpt><trkpt lat="39.4370536" lon="8.4144669"><ele>10.0</ele><time>2026-05-01T10:07:25.232Z</time></trkpt><trkpt lat="39.4370404" lon="8.4142972"><ele>10.0</ele><time>2026-05-01T10:07:26.231Z</time></trkpt><trkpt lat="39.4369827" lon="8.4141399"><ele>10.0</ele><time>2026-05-01T10:07:27.232Z</time></trkpt><trkpt lat="39.436901" lon="8.4140034"><ele>10.0</ele><time>2026-05-01T10:07:28.232Z</time></trkpt><trkpt lat="39.4367963" lon="8.413902"><ele>10.0</ele><time>2026-05-01T10:07:29.232Z</time></trkpt><trkpt lat="39.4366839" lon="8.4138435"><ele>10.0</ele><time>2026-05-01T10:07:30.231Z</time></trkpt><trkpt lat="39.4365688" lon="8.4138188"><ele>10.0</ele><time>2026-05-01T10:07:31.231Z</time></trkpt><trkpt lat="39.4364625" lon="8.4138056"><ele>10.0</ele><time>2026-05-01T10:07:32.232Z</time></trkpt><trkpt lat="39.4363584" lon="8.4137924"><ele>10.0</ele><time>2026-05-01T10:07:33.232Z</time></trkpt><trkpt lat="39.4362481" lon="8.4137892"><ele>8.0</ele><time>2026-05-01T10:07:34.232Z</time></trkpt><trkpt lat="39.4361304" lon="8.4137814"><ele>6.0</ele><time>2026-05-01T10:07:35.232Z</time></trkpt><trkpt lat="39.4360034" lon="8.4137745"><ele>4.0</ele><time>2026-05-01T10:07:36.232Z</time></trkpt><trkpt lat="39.4358635" lon="8.4137637"><ele>2.0</ele><time>2026-05-01T10:07:37.232Z</time></trkpt><trkpt lat="39.4357101" lon="8.4137506"><ele>2.0</ele><time>2026-05-01T10:07:38.232Z</time></trkpt><trkpt lat="39.4355489" lon="8.4137402"><ele>2.0</ele><time>2026-05-01T10:07:39.231Z</time></trkpt><trkpt lat="39.4353833" lon="8.413729"><ele>2.0</ele><time>2026-05-01T10:07:40.232Z</time></trkpt><trkpt lat="39.4352084" lon="8.4137198"><ele>2.0</ele><time>2026-05-01T10:07:41.231Z</time></trkpt><trkpt lat="39.4350431" lon="8.4137092"><ele>2.0</ele><time>2026-05-01T10:07:42.232Z</time></trkpt><trkpt lat="39.4348839" lon="8.4137016"><ele>2.0</ele><time>2026-05-01T10:07:43.232Z</time></trkpt><trkpt lat="39.4347256" lon="8.4136899"><ele>2.25</ele><time>2026-05-01T10:07:44.231Z</time></trkpt><trkpt lat="39.4345798" lon="8.4136819"><ele>2.5</ele><time>2026-05-01T10:07:45.232Z</time></trkpt><trkpt lat="39.4344397" lon="8.4136746"><ele>2.75</ele><time>2026-05-01T10:07:46.232Z</time></trkpt><trkpt lat="39.4342981" lon="8.4136672"><ele>3.0</ele><time>2026-05-01T10:07:47.232Z</time></trkpt><trkpt lat="39.4341575" lon="8.4136658"><ele>3.0</ele><time>2026-05-01T10:07:48.231Z</time></trkpt><trkpt lat="39.4340138" lon="8.4136616"><ele>3.0</ele><time>2026-05-01T10:07:49.231Z</time></trkpt><trkpt lat="39.4338709" lon="8.4136574"><ele>3.0</ele><time>2026-05-01T10:07:50.231Z</time></trkpt><trkpt lat="39.4337347" lon="8.4136585"><ele>3.0</ele><time>2026-05-01T10:07:51.232Z</time></trkpt><trkpt lat="39.4335901" lon="8.4136522"><ele>3.75</ele><time>2026-05-01T10:07:52.231Z</time></trkpt><trkpt lat="39.4334497" lon="8.4136452"><ele>4.5</ele><time>2026-05-01T10:07:53.231Z</time></trkpt><trkpt lat="39.4333189" lon="8.4136379"><ele>5.25</ele><time>2026-05-01T10:07:54.232Z</time></trkpt><trkpt lat="39.4331909" lon="8.4136365"><ele>6.0</ele><time>2026-05-01T10:07:55.231Z</time></trkpt><trkpt lat="39.4330655" lon="8.4136292"><ele>6.0</ele><time>2026-05-01T10:07:56.232Z</time></trkpt><trkpt lat="39.4329451" lon="8.4136173"><ele>6.0</ele><time>2026-05-01T10:07:57.232Z</time></trkpt><trkpt lat="39.4328278" lon="8.4136085"><ele>6.0</ele><time>2026-05-01T10:07:58.232Z</time></trkpt><trkpt lat="39.4327188" lon="8.4135981"><ele>6.0</ele><time>2026-05-01T10:07:59.232Z</time></trkpt><trkpt lat="39.4326004" lon="8.4135925"><ele>6.0</ele><time>2026-05-01T10:08:00.231Z</time></trkpt><trkpt lat="39.4324865" lon="8.413587"><ele>6.0</ele><time>2026-05-01T10:08:01.231Z</time></trkpt><trkpt lat="39.4323668" lon="8.4135823"><ele>6.0</ele><time>2026-05-01T10:08:02.232Z</time></trkpt><trkpt lat="39.4322469" lon="8.413577"><ele>6.0</ele><time>2026-05-01T10:08:03.231Z</time></trkpt><trkpt lat="39.432128" lon="8.4135668"><ele>6.199999999999999</ele><time>2026-05-01T10:08:04.231Z</time></trkpt><trkpt lat="39.4320152" lon="8.4135567"><ele>6.3999999999999995</ele><time>2026-05-01T10:08:05.231Z</time></trkpt><trkpt lat="39.4318997" lon="8.413548"><ele>6.6</ele><time>2026-05-01T10:08:06.231Z</time></trkpt><trkpt lat="39.4317939" lon="8.4135423"><ele>6.8</ele><time>2026-05-01T10:08:07.232Z</time></trkpt><trkpt lat="39.4316897" lon="8.4135361"><ele>7.0</ele><time>2026-05-01T10:08:08.232Z</time></trkpt><trkpt lat="39.4315985" lon="8.4135324"><ele>7.000000000000001</ele><time>2026-05-01T10:08:09.231Z</time></trkpt><trkpt lat="39.4315099" lon="8.413527"><ele>7.0</ele><time>2026-05-01T10:08:10.232Z</time></trkpt><trkpt lat="39.4314278" lon="8.4135194"><ele>7.0</ele><time>2026-05-01T10:08:11.232Z</time></trkpt><trkpt lat="39.4313527" lon="8.4135152"><ele>7.0</ele><time>2026-05-01T10:08:12.232Z</time></trkpt><trkpt lat="39.4312707" lon="8.4135113"><ele>7.000000000000001</ele><time>2026-05-01T10:08:13.232Z</time></trkpt><trkpt lat="39.431185" lon="8.4135071"><ele>7.0</ele><time>2026-05-01T10:08:14.231Z</time></trkpt><trkpt lat="39.4310839" lon="8.4135073"><ele>7.75</ele><time>2026-05-01T10:08:15.232Z</time></trkpt><trkpt lat="39.4309691" lon="8.4134992"><ele>8.5</ele><time>2026-05-01T10:08:16.232Z</time></trkpt><trkpt lat="39.4308515" lon="8.4134906"><ele>9.25</ele><time>2026-05-01T10:08:17.232Z</time></trkpt><trkpt lat="39.4307276" lon="8.4134834"><ele>10.0</ele><time>2026-05-01T10:08:18.231Z</time></trkpt><trkpt lat="39.4305977" lon="8.4134739"><ele>10.0</ele><time>2026-05-01T10:08:19.231Z</time></trkpt><trkpt lat="39.4304506" lon="8.4134659"><ele>10.0</ele><time>2026-05-01T10:08:20.231Z</time></trkpt><trkpt lat="39.4302921" lon="8.4134568"><ele>10.0</ele><time>2026-05-01T10:08:21.231Z</time></trkpt><trkpt lat="39.4301347" lon="8.4134447"><ele>10.0</ele><time>2026-05-01T10:08:22.232Z</time></trkpt><trkpt lat="39.4299763" lon="8.4134298"><ele>10.0</ele><time>2026-05-01T10:08:23.231Z</time></trkpt><trkpt lat="39.4298266" lon="8.413421"><ele>10.0</ele><time>2026-05-01T10:08:24.231Z</time></trkpt><trkpt lat="39.4296709" lon="8.4134084"><ele>10.0</ele><time>2026-05-01T10:08:25.231Z</time></trkpt><trkpt lat="39.4295203" lon="8.4134006"><ele>10.0</ele><time>2026-05-01T10:08:26.231Z</time></trkpt><trkpt lat="39.4293782" lon="8.4133928"><ele>10.0</ele><time>2026-05-01T10:08:27.232Z</time></trkpt><trkpt lat="39.429241" lon="8.413383"><ele>10.0</ele><time>2026-05-01T10:08:28.232Z</time></trkpt><trkpt lat="39.4291149" lon="8.4133757"><ele>10.0</ele><time>2026-05-01T10:08:29.232Z</time></trkpt><trkpt lat="39.4289916" lon="8.4133652"><ele>10.0</ele><time>2026-05-01T10:08:30.231Z</time></trkpt><trkpt lat="39.428866" lon="8.4133563"><ele>10.0</ele><time>2026-05-01T10:08:31.231Z</time></trkpt><trkpt lat="39.4287323" lon="8.4133458"><ele>10.0</ele><time>2026-05-01T10:08:32.232Z</time></trkpt><trkpt lat="39.4285887" lon="8.4133348"><ele>10.0</ele><time>2026-05-01T10:08:33.231Z</time></trkpt><trkpt lat="39.4284548" lon="8.4133309"><ele>10.0</ele><time>2026-05-01T10:08:34.232Z</time></trkpt><trkpt lat="39.4283124" lon="8.4133224"><ele>10.0</ele><time>2026-05-01T10:08:35.232Z</time></trkpt><trkpt lat="39.428171" lon="8.4133152"><ele>10.0</ele><time>2026-05-01T10:08:36.231Z</time></trkpt><trkpt lat="39.4280245" lon="8.4133073"><ele>9.75</ele><time>2026-05-01T10:08:37.232Z</time></trkpt><trkpt lat="39.427881" lon="8.4133039"><ele>9.5</ele><time>2026-05-01T10:08:38.231Z</time></trkpt><trkpt lat="39.4277415" lon="8.4133016"><ele>9.25</ele><time>2026-05-01T10:08:39.232Z</time></trkpt><trkpt lat="39.4276045" lon="8.4133035"><ele>9.0</ele><time>2026-05-01T10:08:40.232Z</time></trkpt><trkpt lat="39.4274687" lon="8.413305"><ele>9.0</ele><time>2026-05-01T10:08:41.232Z</time></trkpt><trkpt lat="39.4273272" lon="8.4133039"><ele>9.0</ele><time>2026-05-01T10:08:42.231Z</time></trkpt><trkpt lat="39.4271892" lon="8.4133046"><ele>9.0</ele><time>2026-05-01T10:08:43.232Z</time></trkpt><trkpt lat="39.4270441" lon="8.4133051"><ele>9.0</ele><time>2026-05-01T10:08:44.232Z</time></trkpt><trkpt lat="39.4268929" lon="8.4133011"><ele>8.333333333333334</ele><time>2026-05-01T10:08:45.232Z</time></trkpt><trkpt lat="39.4267404" lon="8.4132904"><ele>7.666666666666667</ele><time>2026-05-01T10:08:46.231Z</time></trkpt><trkpt lat="39.4265826" lon="8.4132751"><ele>7.0</ele><time>2026-05-01T10:08:47.232Z</time></trkpt><trkpt lat="39.4264298" lon="8.4132667"><ele>7.0</ele><time>2026-05-01T10:08:48.231Z</time></trkpt><trkpt lat="39.4262734" lon="8.41326"><ele>7.0</ele><time>2026-05-01T10:08:49.231Z</time></trkpt><trkpt lat="39.4261214" lon="8.4132463"><ele>7.0</ele><time>2026-05-01T10:08:50.231Z</time></trkpt><trkpt lat="39.4259737" lon="8.4132254"><ele>7.0</ele><time>2026-05-01T10:08:51.231Z</time></trkpt><trkpt lat="39.4258196" lon="8.4132076"><ele>7.0</ele><time>2026-05-01T10:08:52.231Z</time></trkpt><trkpt lat="39.4256683" lon="8.4131893"><ele>7.0</ele><time>2026-05-01T10:08:53.231Z</time></trkpt><trkpt lat="39.4255151" lon="8.4131716"><ele>7.5</ele><time>2026-05-01T10:08:54.231Z</time></trkpt><trkpt lat="39.4253662" lon="8.4131526"><ele>8.0</ele><time>2026-05-01T10:08:55.231Z</time></trkpt><trkpt lat="39.4252219" lon="8.4131367"><ele>8.5</ele><time>2026-05-01T10:08:56.232Z</time></trkpt><trkpt lat="39.4250803" lon="8.4131198"><ele>9.0</ele><time>2026-05-01T10:08:57.232Z</time></trkpt><trkpt lat="39.4249376" lon="8.4130986"><ele>9.0</ele><time>2026-05-01T10:08:58.231Z</time></trkpt><trkpt lat="39.4247998" lon="8.4130802"><ele>9.0</ele><time>2026-05-01T10:08:59.231Z</time></trkpt><trkpt lat="39.4246606" lon="8.4130592"><ele>9.0</ele><time>2026-05-01T10:09:00.231Z</time></trkpt><trkpt lat="39.424529" lon="8.4130447"><ele>9.0</ele><time>2026-05-01T10:09:01.232Z</time></trkpt><trkpt lat="39.4243913" lon="8.4130265"><ele>9.25</ele><time>2026-05-01T10:09:02.231Z</time></trkpt><trkpt lat="39.4242507" lon="8.4130071"><ele>9.5</ele><time>2026-05-01T10:09:03.232Z</time></trkpt><trkpt lat="39.4241118" lon="8.4129914"><ele>9.75</ele><time>2026-05-01T10:09:04.231Z</time></trkpt><trkpt lat="39.4239741" lon="8.4129763"><ele>10.0</ele><time>2026-05-01T10:09:05.231Z</time></trkpt><trkpt lat="39.4238358" lon="8.4129475"><ele>9.5</ele><time>2026-05-01T10:09:06.231Z</time></trkpt><trkpt lat="39.4236977" lon="8.4129192"><ele>9.0</ele><time>2026-05-01T10:09:07.232Z</time></trkpt><trkpt lat="39.4235545" lon="8.4128892"><ele>8.5</ele><time>2026-05-01T10:09:08.232Z</time></trkpt><trkpt lat="39.4234129" lon="8.4128573"><ele>8.0</ele><time>2026-05-01T10:09:09.232Z</time></trkpt><trkpt lat="39.4232624" lon="8.4128218"><ele>8.0</ele><time>2026-05-01T10:09:10.232Z</time></trkpt><trkpt lat="39.4231107" lon="8.4127934"><ele>8.0</ele><time>2026-05-01T10:09:11.231Z</time></trkpt><trkpt lat="39.4229614" lon="8.4127688"><ele>8.0</ele><time>2026-05-01T10:09:12.231Z</time></trkpt><trkpt lat="39.4228222" lon="8.4127488"><ele>8.0</ele><time>2026-05-01T10:09:13.232Z</time></trkpt><trkpt lat="39.4226912" lon="8.4127348"><ele>8.75</ele><time>2026-05-01T10:09:14.232Z</time></trkpt><trkpt lat="39.422562" lon="8.4127153"><ele>9.5</ele><time>2026-05-01T10:09:15.232Z</time></trkpt><trkpt lat="39.4224333" lon="8.4126954"><ele>10.25</ele><time>2026-05-01T10:09:16.232Z</time></trkpt><trkpt lat="39.4222999" lon="8.4126793"><ele>11.0</ele><time>2026-05-01T10:09:17.232Z</time></trkpt><trkpt lat="39.4221667" lon="8.4126631"><ele>11.5</ele><time>2026-05-01T10:09:18.231Z</time></trkpt><trkpt lat="39.4220333" lon="8.4126448"><ele>12.0</ele><time>2026-05-01T10:09:19.231Z</time></trkpt><trkpt lat="39.4218937" lon="8.4126321"><ele>12.5</ele><time>2026-05-01T10:09:20.232Z</time></trkpt><trkpt lat="39.4217489" lon="8.4126261"><ele>13.0</ele><time>2026-05-01T10:09:21.231Z</time></trkpt><trkpt lat="39.4215968" lon="8.4126159"><ele>13.0</ele><time>2026-05-01T10:09:22.231Z</time></trkpt><trkpt lat="39.4214389" lon="8.4125982"><ele>13.0</ele><time>2026-05-01T10:09:23.232Z</time></trkpt><trkpt lat="39.4212742" lon="8.4125791"><ele>13.0</ele><time>2026-05-01T10:09:24.232Z</time></trkpt><trkpt lat="39.4211005" lon="8.4125508"><ele>12.333333333333332</ele><time>2026-05-01T10:09:25.231Z</time></trkpt><trkpt lat="39.4209164" lon="8.4125226"><ele>11.666666666666666</ele><time>2026-05-01T10:09:26.232Z</time></trkpt><trkpt lat="39.420736" lon="8.4124847"><ele>11.0</ele><time>2026-05-01T10:09:27.231Z</time></trkpt><trkpt lat="39.4205584" lon="8.4124492"><ele>10.0</ele><time>2026-05-01T10:09:28.232Z</time></trkpt><trkpt lat="39.4203913" lon="8.4124172"><ele>9.0</ele><time>2026-05-01T10:09:29.231Z</time></trkpt><trkpt lat="39.4202292" lon="8.4123838"><ele>8.0</ele><time>2026-05-01T10:09:30.232Z</time></trkpt><trkpt lat="39.4200782" lon="8.4123445"><ele>8.0</ele><time>2026-05-01T10:09:31.231Z</time></trkpt><trkpt lat="39.4199274" lon="8.4123107"><ele>8.0</ele><time>2026-05-01T10:09:32.232Z</time></trkpt><trkpt lat="39.4197835" lon="8.4122791"><ele>8.0</ele><time>2026-05-01T10:09:33.231Z</time></trkpt><trkpt lat="39.4196491" lon="8.4122487"><ele>8.0</ele><time>2026-05-01T10:09:34.232Z</time></trkpt><trkpt lat="39.41951" lon="8.4122128"><ele>8.0</ele><time>2026-05-01T10:09:35.231Z</time></trkpt><trkpt lat="39.4193655" lon="8.4121797"><ele>8.0</ele><time>2026-05-01T10:09:36.231Z</time></trkpt><trkpt lat="39.4192168" lon="8.4121454"><ele>8.0</ele><time>2026-05-01T10:09:37.232Z</time></trkpt><trkpt lat="39.419061" lon="8.4121078"><ele>8.0</ele><time>2026-05-01T10:09:38.232Z</time></trkpt><trkpt lat="39.4188928" lon="8.4120677"><ele>8.0</ele><time>2026-05-01T10:09:39.232Z</time></trkpt><trkpt lat="39.4187291" lon="8.4120335"><ele>8.0</ele><time>2026-05-01T10:09:40.231Z</time></trkpt><trkpt lat="39.4185544" lon="8.4119953"><ele>11.0</ele><time>2026-05-01T10:09:41.231Z</time></trkpt><trkpt lat="39.4183691" lon="8.4119512"><ele>14.0</ele><time>2026-05-01T10:09:42.231Z</time></trkpt><trkpt lat="39.4181727" lon="8.4119049"><ele>17.0</ele><time>2026-05-01T10:09:43.232Z</time></trkpt><trkpt lat="39.4179753" lon="8.4118451"><ele>21.0</ele><time>2026-05-01T10:09:44.231Z</time></trkpt><trkpt lat="39.4177874" lon="8.4117721"><ele>25.0</ele><time>2026-05-01T10:09:45.231Z</time></trkpt><trkpt lat="39.417609" lon="8.4116938"><ele>29.0</ele><time>2026-05-01T10:09:46.231Z</time></trkpt><trkpt lat="39.4174319" lon="8.4116187"><ele>29.0</ele><time>2026-05-01T10:09:47.232Z</time></trkpt><trkpt lat="39.4172589" lon="8.4115493"><ele>29.0</ele><time>2026-05-01T10:09:48.231Z</time></trkpt><trkpt lat="39.4170913" lon="8.4114821"><ele>29.0</ele><time>2026-05-01T10:09:49.232Z</time></trkpt><trkpt lat="39.4169265" lon="8.4114157"><ele>29.333333333333332</ele><time>2026-05-01T10:09:50.232Z</time></trkpt><trkpt lat="39.4167748" lon="8.4113551"><ele>29.666666666666664</ele><time>2026-05-01T10:09:51.232Z</time></trkpt><trkpt lat="39.4166268" lon="8.4113041"><ele>30.0</ele><time>2026-05-01T10:09:52.232Z</time></trkpt><trkpt lat="39.4164702" lon="8.4112501"><ele>30.0</ele><time>2026-05-01T10:09:53.232Z</time></trkpt><trkpt lat="39.41632" lon="8.4111981"><ele>30.0</ele><time>2026-05-01T10:09:54.232Z</time></trkpt><trkpt lat="39.4161669" lon="8.411152"><ele>30.0</ele><time>2026-05-01T10:09:55.231Z</time></trkpt><trkpt lat="39.4160036" lon="8.4110974"><ele>32.333333333333336</ele><time>2026-05-01T10:09:56.232Z</time></trkpt><trkpt lat="39.4158373" lon="8.4110468"><ele>34.66666666666667</ele><time>2026-05-01T10:09:57.232Z</time></trkpt><trkpt lat="39.4156661" lon="8.4110004"><ele>37.0</ele><time>2026-05-01T10:09:58.231Z</time></trkpt><trkpt lat="39.4154934" lon="8.410955"><ele>40.0</ele><time>2026-05-01T10:09:59.232Z</time></trkpt><trkpt lat="39.4153137" lon="8.4109183"><ele>43.0</ele><time>2026-05-01T10:10:00.231Z</time></trkpt><trkpt lat="39.41514" lon="8.4108917"><ele>46.0</ele><time>2026-05-01T10:10:01.231Z</time></trkpt><trkpt lat="39.4149705" lon="8.4108674"><ele>46.0</ele><time>2026-05-01T10:10:02.231Z</time></trkpt><trkpt lat="39.4148111" lon="8.4108416"><ele>46.0</ele><time>2026-05-01T10:10:03.231Z</time></trkpt><trkpt lat="39.4146701" lon="8.4108168"><ele>46.0</ele><time>2026-05-01T10:10:04.232Z</time></trkpt><trkpt lat="39.4145516" lon="8.4107686"><ele>46.0</ele><time>2026-05-01T10:10:05.232Z</time></trkpt><trkpt lat="39.4144504" lon="8.410683"><ele>47.25</ele><time>2026-05-01T10:10:06.232Z</time></trkpt><trkpt lat="39.414369" lon="8.4105666"><ele>48.5</ele><time>2026-05-01T10:10:07.231Z</time></trkpt><trkpt lat="39.4143104" lon="8.4104244"><ele>49.75</ele><time>2026-05-01T10:10:08.232Z</time></trkpt><trkpt lat="39.4142475" lon="8.4102696"><ele>51.0</ele><time>2026-05-01T10:10:09.232Z</time></trkpt><trkpt lat="39.4141714" lon="8.4101227"><ele>51.0</ele><time>2026-05-01T10:10:10.232Z</time></trkpt><trkpt lat="39.4140804" lon="8.4099892"><ele>51.0</ele><time>2026-05-01T10:10:11.231Z</time></trkpt><trkpt lat="39.4139404" lon="8.4099013"><ele>51.0</ele><time>2026-05-01T10:10:12.232Z</time></trkpt><trkpt lat="39.4137856" lon="8.4098238"><ele>51.0</ele><time>2026-05-01T10:10:13.232Z</time></trkpt><trkpt lat="39.4136084" lon="8.4097562"><ele>51.0</ele><time>2026-05-01T10:10:14.232Z</time></trkpt><trkpt lat="39.4134316" lon="8.4096857"><ele>51.0</ele><time>2026-05-01T10:10:15.232Z</time></trkpt><trkpt lat="39.4132693" lon="8.4096285"><ele>51.0</ele><time>2026-05-01T10:10:16.231Z</time></trkpt><trkpt lat="39.4131303" lon="8.4095534"><ele>51.0</ele><time>2026-05-01T10:10:17.232Z</time></trkpt><trkpt lat="39.4130214" lon="8.4094575"><ele>51.0</ele><time>2026-05-01T10:10:18.232Z</time></trkpt><trkpt lat="39.4129411" lon="8.40933"><ele>51.0</ele><time>2026-05-01T10:10:19.231Z</time></trkpt><trkpt lat="39.4128927" lon="8.4091779"><ele>54.66666666666667</ele><time>2026-05-01T10:10:20.231Z</time></trkpt><trkpt lat="39.412866" lon="8.4089917"><ele>58.333333333333336</ele><time>2026-05-01T10:10:21.231Z</time></trkpt><trkpt lat="39.4128476" lon="8.4087734"><ele>62.0</ele><time>2026-05-01T10:10:22.232Z</time></trkpt><trkpt lat="39.4128288" lon="8.4085666"><ele>62.0</ele><time>2026-05-01T10:10:23.232Z</time></trkpt><trkpt lat="39.4128056" lon="8.4083734"><ele>62.0</ele><time>2026-05-01T10:10:24.232Z</time></trkpt><trkpt lat="39.4127769" lon="8.4082062"><ele>62.0</ele><time>2026-05-01T10:10:25.231Z</time></trkpt><trkpt lat="39.4127285" lon="8.408048"><ele>62.0</ele><time>2026-05-01T10:10:26.232Z</time></trkpt><trkpt lat="39.4126539" lon="8.4078966"><ele>60.333333333333336</ele><time>2026-05-01T10:10:27.232Z</time></trkpt><trkpt lat="39.4125655" lon="8.4077478"><ele>58.66666666666667</ele><time>2026-05-01T10:10:28.232Z</time></trkpt><trkpt lat="39.4124578" lon="8.4075941"><ele>57.0</ele><time>2026-05-01T10:10:29.232Z</time></trkpt><trkpt lat="39.4123549" lon="8.4074495"><ele>57.0</ele><time>2026-05-01T10:10:30.231Z</time></trkpt><trkpt lat="39.4122598" lon="8.4073148"><ele>57.0</ele><time>2026-05-01T10:10:31.232Z</time></trkpt><trkpt lat="39.4121697" lon="8.4071839"><ele>57.0</ele><time>2026-05-01T10:10:32.231Z</time></trkpt><trkpt lat="39.4120826" lon="8.4070615"><ele>57.0</ele><time>2026-05-01T10:10:33.232Z</time></trkpt><trkpt lat="39.4119923" lon="8.4069464"><ele>58.25</ele><time>2026-05-01T10:10:34.231Z</time></trkpt><trkpt lat="39.4118966" lon="8.4068449"><ele>59.5</ele><time>2026-05-01T10:10:35.232Z</time></trkpt><trkpt lat="39.4117871" lon="8.4067686"><ele>60.75</ele><time>2026-05-01T10:10:36.232Z</time></trkpt><trkpt lat="39.4116768" lon="8.4066964"><ele>62.0</ele><time>2026-05-01T10:10:37.231Z</time></trkpt><trkpt lat="39.4115667" lon="8.4066374"><ele>62.0</ele><time>2026-05-01T10:10:38.232Z</time></trkpt><trkpt lat="39.4114575" lon="8.4065852"><ele>62.0</ele><time>2026-05-01T10:10:39.231Z</time></trkpt><trkpt lat="39.411364" lon="8.4065397"><ele>62.0</ele><time>2026-05-01T10:10:40.232Z</time></trkpt><trkpt lat="39.4112777" lon="8.4064905"><ele>62.0</ele><time>2026-05-01T10:10:41.231Z</time></trkpt><trkpt lat="39.4111878" lon="8.4064416"><ele>62.0</ele><time>2026-05-01T10:10:42.231Z</time></trkpt><trkpt lat="39.4110953" lon="8.406388"><ele>62.5</ele><time>2026-05-01T10:10:43.231Z</time></trkpt><trkpt lat="39.4109944" lon="8.406333"><ele>63.0</ele><time>2026-05-01T10:10:44.232Z</time></trkpt><trkpt lat="39.4108875" lon="8.4062771"><ele>63.5</ele><time>2026-05-01T10:10:45.231Z</time></trkpt><trkpt lat="39.4107679" lon="8.4062187"><ele>64.0</ele><time>2026-05-01T10:10:46.231Z</time></trkpt><trkpt lat="39.4106513" lon="8.406162"><ele>64.0</ele><time>2026-05-01T10:10:47.232Z</time></trkpt><trkpt lat="39.4105281" lon="8.4061232"><ele>64.0</ele><time>2026-05-01T10:10:48.232Z</time></trkpt><trkpt lat="39.410395" lon="8.4061043"><ele>64.0</ele><time>2026-05-01T10:10:49.231Z</time></trkpt><trkpt lat="39.4102602" lon="8.4060954"><ele>64.0</ele><time>2026-05-01T10:10:50.232Z</time></trkpt><trkpt lat="39.4101249" lon="8.4060949"><ele>64.75</ele><time>2026-05-01T10:10:51.231Z</time></trkpt><trkpt lat="39.4099804" lon="8.406096"><ele>65.5</ele><time>2026-05-01T10:10:52.232Z</time></trkpt><trkpt lat="39.4098348" lon="8.4060953"><ele>66.25</ele><time>2026-05-01T10:10:53.231Z</time></trkpt><trkpt lat="39.4096806" lon="8.4060914"><ele>67.0</ele><time>2026-05-01T10:10:54.231Z</time></trkpt><trkpt lat="39.4095153" lon="8.4060945"><ele>67.0</ele><time>2026-05-01T10:10:55.232Z</time></trkpt><trkpt lat="39.4093318" lon="8.4060946"><ele>67.0</ele><time>2026-05-01T10:10:56.232Z</time></trkpt><trkpt lat="39.4091551" lon="8.4060973"><ele>67.0</ele><time>2026-05-01T10:10:57.232Z</time></trkpt><trkpt lat="39.4089868" lon="8.4060934"><ele>69.66666666666666</ele><time>2026-05-01T10:10:58.231Z</time></trkpt><trkpt lat="39.4088216" lon="8.4060561"><ele>72.33333333333333</ele><time>2026-05-01T10:10:59.231Z</time></trkpt><trkpt lat="39.4086611" lon="8.4059952"><ele>75.0</ele><time>2026-05-01T10:11:00.232Z</time></trkpt><trkpt lat="39.4085027" lon="8.4059201"><ele>75.0</ele><time>2026-05-01T10:11:01.231Z</time></trkpt><trkpt lat="39.4083618" lon="8.4058345"><ele>75.0</ele><time>2026-05-01T10:11:02.231Z</time></trkpt><trkpt lat="39.4082197" lon="8.4057486"><ele>75.0</ele><time>2026-05-01T10:11:03.231Z</time></trkpt><trkpt lat="39.4080743" lon="8.4056601"><ele>78.66666666666667</ele><time>2026-05-01T10:11:04.232Z</time></trkpt><trkpt lat="39.4079226" lon="8.4055737"><ele>82.33333333333334</ele><time>2026-05-01T10:11:05.232Z</time></trkpt><trkpt lat="39.4077691" lon="8.4054908"><ele>86.0</ele><time>2026-05-01T10:11:06.232Z</time></trkpt><trkpt lat="39.4076126" lon="8.4053987"><ele>82.33333333333334</ele><time>2026-05-01T10:11:07.231Z</time></trkpt><trkpt lat="39.4074535" lon="8.4053103"><ele>78.66666666666667</ele><time>2026-05-01T10:11:08.231Z</time></trkpt><trkpt lat="39.4072873" lon="8.4052157"><ele>75.0</ele><time>2026-05-01T10:11:09.232Z</time></trkpt><trkpt lat="39.4071136" lon="8.4051096"><ele>75.0</ele><time>2026-05-01T10:11:10.232Z</time></trkpt><trkpt lat="39.4069357" lon="8.405011"><ele>75.0</ele><time>2026-05-01T10:11:11.231Z</time></trkpt><trkpt lat="39.4067674" lon="8.404907"><ele>75.0</ele><time>2026-05-01T10:11:12.231Z</time></trkpt><trkpt lat="39.4066068" lon="8.4048131"><ele>75.0</ele><time>2026-05-01T10:11:13.232Z</time></trkpt><trkpt lat="39.4064623" lon="8.4047327"><ele>75.0</ele><time>2026-05-01T10:11:14.232Z</time></trkpt><trkpt lat="39.4063179" lon="8.4046892"><ele>75.0</ele><time>2026-05-01T10:11:15.232Z</time></trkpt><trkpt lat="39.4061828" lon="8.4046881"><ele>75.0</ele><time>2026-05-01T10:11:16.232Z</time></trkpt><trkpt lat="39.4060534" lon="8.4047238"><ele>77.0</ele><time>2026-05-01T10:11:17.232Z</time></trkpt><trkpt lat="39.4059212" lon="8.4047669"><ele>79.0</ele><time>2026-05-01T10:11:18.232Z</time></trkpt><trkpt lat="39.4057896" lon="8.4047931"><ele>81.0</ele><time>2026-05-01T10:11:19.232Z</time></trkpt><trkpt lat="39.4056575" lon="8.4048114"><ele>83.0</ele><time>2026-05-01T10:11:20.231Z</time></trkpt><trkpt lat="39.4055161" lon="8.4048235"><ele>80.0</ele><time>2026-05-01T10:11:21.231Z</time></trkpt><trkpt lat="39.4053653" lon="8.4048389"><ele>77.0</ele><time>2026-05-01T10:11:22.232Z</time></trkpt><trkpt lat="39.4052114" lon="8.4048473"><ele>74.0</ele><time>2026-05-01T10:11:23.231Z</time></trkpt><trkpt lat="39.4050625" lon="8.4048478"><ele>74.0</ele><time>2026-05-01T10:11:24.232Z</time></trkpt><trkpt lat="39.4049197" lon="8.404835"><ele>74.0</ele><time>2026-05-01T10:11:25.232Z</time></trkpt><trkpt lat="39.404774" lon="8.4048018"><ele>74.0</ele><time>2026-05-01T10:11:26.232Z</time></trkpt><trkpt lat="39.4046236" lon="8.4047543"><ele>74.0</ele><time>2026-05-01T10:11:27.232Z</time></trkpt><trkpt lat="39.4044736" lon="8.4046976"><ele>67.0</ele><time>2026-05-01T10:11:28.232Z</time></trkpt><trkpt lat="39.4043173" lon="8.4046276"><ele>60.0</ele><time>2026-05-01T10:11:29.231Z</time></trkpt><trkpt lat="39.4041629" lon="8.4045579"><ele>53.0</ele><time>2026-05-01T10:11:30.231Z</time></trkpt><trkpt lat="39.4040132" lon="8.4044811"><ele>53.0</ele><time>2026-05-01T10:11:31.232Z</time></trkpt><trkpt lat="39.403867" lon="8.404405"><ele>53.0</ele><time>2026-05-01T10:11:32.232Z</time></trkpt><trkpt lat="39.4037504" lon="8.4043309"><ele>53.0</ele><time>2026-05-01T10:11:33.232Z</time></trkpt><trkpt lat="39.4036392" lon="8.4042604"><ele>53.0</ele><time>2026-05-01T10:11:34.232Z</time></trkpt><trkpt lat="39.4035228" lon="8.404185"><ele>55.5</ele><time>2026-05-01T10:11:35.231Z</time></trkpt><trkpt lat="39.4034123" lon="8.404115"><ele>58.0</ele><time>2026-05-01T10:11:36.231Z</time></trkpt><trkpt lat="39.4033032" lon="8.4040286"><ele>60.5</ele><time>2026-05-01T10:11:37.231Z</time></trkpt><trkpt lat="39.4031998" lon="8.4039205"><ele>63.0</ele><time>2026-05-01T10:11:38.231Z</time></trkpt><trkpt lat="39.4031164" lon="8.4037912"><ele>63.0</ele><time>2026-05-01T10:11:39.232Z</time></trkpt><trkpt lat="39.4030333" lon="8.403645"><ele>63.0</ele><time>2026-05-01T10:11:40.232Z</time></trkpt><trkpt lat="39.4029539" lon="8.4034857"><ele>63.0</ele><time>2026-05-01T10:11:41.231Z</time></trkpt><trkpt lat="39.4028729" lon="8.4033231"><ele>63.0</ele><time>2026-05-01T10:11:42.232Z</time></trkpt><trkpt lat="39.4027961" lon="8.4031745"><ele>63.0</ele><time>2026-05-01T10:11:43.231Z</time></trkpt><trkpt lat="39.4027149" lon="8.4030386"><ele>63.0</ele><time>2026-05-01T10:11:44.231Z</time></trkpt><trkpt lat="39.4026221" lon="8.4029282"><ele>63.0</ele><time>2026-05-01T10:11:45.232Z</time></trkpt><trkpt lat="39.4025285" lon="8.4028378"><ele>63.0</ele><time>2026-05-01T10:11:46.232Z</time></trkpt><trkpt lat="39.4024228" lon="8.4027816"><ele>57.5</ele><time>2026-05-01T10:11:47.232Z</time></trkpt><trkpt lat="39.4022953" lon="8.4027639"><ele>52.0</ele><time>2026-05-01T10:11:48.232Z</time></trkpt><trkpt lat="39.4021637" lon="8.4027418"><ele>46.5</ele><time>2026-05-01T10:11:49.231Z</time></trkpt><trkpt lat="39.4020275" lon="8.4027236"><ele>41.0</ele><time>2026-05-01T10:11:50.232Z</time></trkpt><trkpt lat="39.4018876" lon="8.4026943"><ele>41.0</ele><time>2026-05-01T10:11:51.232Z</time></trkpt><trkpt lat="39.4017337" lon="8.4026683"><ele>41.0</ele><time>2026-05-01T10:11:52.231Z</time></trkpt><trkpt lat="39.4015898" lon="8.4026423"><ele>41.0</ele><time>2026-05-01T10:11:53.232Z</time></trkpt><trkpt lat="39.4014668" lon="8.4026189"><ele>41.0</ele><time>2026-05-01T10:11:54.231Z</time></trkpt><trkpt lat="39.4013559" lon="8.4026055"><ele>44.8</ele><time>2026-05-01T10:11:55.232Z</time></trkpt><trkpt lat="39.4012557" lon="8.4025881"><ele>48.599999999999994</ele><time>2026-05-01T10:11:56.232Z</time></trkpt><trkpt lat="39.4011638" lon="8.4025511"><ele>52.4</ele><time>2026-05-01T10:11:57.231Z</time></trkpt><trkpt lat="39.4010821" lon="8.4024941"><ele>56.2</ele><time>2026-05-01T10:11:58.231Z</time></trkpt><trkpt lat="39.4010043" lon="8.402437"><ele>60.0</ele><time>2026-05-01T10:11:59.231Z</time></trkpt><trkpt lat="39.400934" lon="8.4023759"><ele>60.0</ele><time>2026-05-01T10:12:00.231Z</time></trkpt><trkpt lat="39.4008622" lon="8.4023163"><ele>60.0</ele><time>2026-05-01T10:12:01.231Z</time></trkpt><trkpt lat="39.400796" lon="8.4022574"><ele>60.0</ele><time>2026-05-01T10:12:02.231Z</time></trkpt><trkpt lat="39.4007246" lon="8.4021945"><ele>60.0</ele><time>2026-05-01T10:12:03.232Z</time></trkpt><trkpt lat="39.4006597" lon="8.4021421"><ele>60.0</ele><time>2026-05-01T10:12:04.232Z</time></trkpt><trkpt lat="39.4005922" lon="8.4021011"><ele>60.0</ele><time>2026-05-01T10:12:05.232Z</time></trkpt><trkpt lat="39.400529" lon="8.4020882"><ele>61.0</ele><time>2026-05-01T10:12:06.231Z</time></trkpt><trkpt lat="39.4004146" lon="8.4020994"><ele>62.0</ele><time>2026-05-01T10:12:08.231Z</time></trkpt><trkpt lat="39.4003352" lon="8.4021235"><ele>63.0</ele><time>2026-05-01T10:12:10.232Z</time></trkpt><trkpt lat="39.4002596" lon="8.402158"><ele>64.0</ele><time>2026-05-01T10:12:13.232Z</time></trkpt><trkpt lat="39.4001983" lon="8.4021868"><ele>65.0</ele><time>2026-05-01T10:12:15.232Z</time></trkpt><trkpt lat="39.4001007" lon="8.4022459"><ele>66.0</ele><time>2026-05-01T10:12:17.231Z</time></trkpt><trkpt lat="39.400031" lon="8.4022912"><ele>66.0</ele><time>2026-05-01T10:12:18.232Z</time></trkpt><trkpt lat="39.3999444" lon="8.4023424"><ele>66.0</ele><time>2026-05-01T10:12:19.231Z</time></trkpt><trkpt lat="39.3998549" lon="8.4023942"><ele>66.0</ele><time>2026-05-01T10:12:20.232Z</time></trkpt><trkpt lat="39.3997444" lon="8.4024563"><ele>66.0</ele><time>2026-05-01T10:12:21.231Z</time></trkpt><trkpt lat="39.3996331" lon="8.4025152"><ele>66.0</ele><time>2026-05-01T10:12:22.231Z</time></trkpt><trkpt lat="39.3995103" lon="8.40259"><ele>63.0</ele><time>2026-05-01T10:12:23.232Z</time></trkpt><trkpt lat="39.3993788" lon="8.4026494"><ele>60.0</ele><time>2026-05-01T10:12:24.232Z</time></trkpt><trkpt lat="39.3992452" lon="8.4027037"><ele>57.0</ele><time>2026-05-01T10:12:25.231Z</time></trkpt><trkpt lat="39.39911" lon="8.402751"><ele>54.0</ele><time>2026-05-01T10:12:26.232Z</time></trkpt><trkpt lat="39.3989721" lon="8.402801"><ele>54.0</ele><time>2026-05-01T10:12:27.232Z</time></trkpt><trkpt lat="39.3988356" lon="8.4028566"><ele>54.0</ele><time>2026-05-01T10:12:28.231Z</time></trkpt><trkpt lat="39.3986917" lon="8.4029172"><ele>54.0</ele><time>2026-05-01T10:12:29.231Z</time></trkpt><trkpt lat="39.3985445" lon="8.40298"><ele>54.0</ele><time>2026-05-01T10:12:30.232Z</time></trkpt><trkpt lat="39.3983901" lon="8.4030404"><ele>59.0</ele><time>2026-05-01T10:12:31.232Z</time></trkpt><trkpt lat="39.3982344" lon="8.4030943"><ele>64.0</ele><time>2026-05-01T10:12:32.232Z</time></trkpt><trkpt lat="39.3980729" lon="8.4031439"><ele>69.0</ele><time>2026-05-01T10:12:33.232Z</time></trkpt><trkpt lat="39.3979064" lon="8.4031945"><ele>69.0</ele><time>2026-05-01T10:12:34.232Z</time></trkpt><trkpt lat="39.3977377" lon="8.4032523"><ele>69.0</ele><time>2026-05-01T10:12:35.232Z</time></trkpt><trkpt lat="39.3975735" lon="8.4033052"><ele>69.0</ele><time>2026-05-01T10:12:36.232Z</time></trkpt><trkpt lat="39.3974143" lon="8.4033546"><ele>69.0</ele><time>2026-05-01T10:12:37.231Z</time></trkpt><trkpt lat="39.3972592" lon="8.4033995"><ele>69.0</ele><time>2026-05-01T10:12:38.231Z</time></trkpt><trkpt lat="39.3971057" lon="8.4034274"><ele>69.0</ele><time>2026-05-01T10:12:39.231Z</time></trkpt><trkpt lat="39.3969576" lon="8.4034427"><ele>70.0</ele><time>2026-05-01T10:12:40.231Z</time></trkpt><trkpt lat="39.3968103" lon="8.4034462"><ele>71.0</ele><time>2026-05-01T10:12:41.231Z</time></trkpt><trkpt lat="39.3966651" lon="8.403448"><ele>72.0</ele><time>2026-05-01T10:12:42.232Z</time></trkpt><trkpt lat="39.3965349" lon="8.4034438"><ele>73.0</ele><time>2026-05-01T10:12:43.231Z</time></trkpt><trkpt lat="39.396404" lon="8.4034535"><ele>72.0</ele><time>2026-05-01T10:12:44.231Z</time></trkpt><trkpt lat="39.3962703" lon="8.4034758"><ele>71.0</ele><time>2026-05-01T10:12:45.231Z</time></trkpt><trkpt lat="39.3961409" lon="8.4035073"><ele>70.0</ele><time>2026-05-01T10:12:46.232Z</time></trkpt><trkpt lat="39.3960203" lon="8.4035594"><ele>69.0</ele><time>2026-05-01T10:12:47.231Z</time></trkpt><trkpt lat="39.3959115" lon="8.4036302"><ele>69.0</ele><time>2026-05-01T10:12:48.231Z</time></trkpt><trkpt lat="39.3958122" lon="8.4037034"><ele>69.0</ele><time>2026-05-01T10:12:49.232Z</time></trkpt><trkpt lat="39.3957085" lon="8.4037735"><ele>69.0</ele><time>2026-05-01T10:12:50.231Z</time></trkpt><trkpt lat="39.3956071" lon="8.4038493"><ele>69.0</ele><time>2026-05-01T10:12:51.232Z</time></trkpt><trkpt lat="39.3955083" lon="8.403924"><ele>70.25</ele><time>2026-05-01T10:12:52.232Z</time></trkpt><trkpt lat="39.3953992" lon="8.4040003"><ele>71.5</ele><time>2026-05-01T10:12:53.232Z</time></trkpt><trkpt lat="39.3952852" lon="8.4040534"><ele>72.75</ele><time>2026-05-01T10:12:54.232Z</time></trkpt><trkpt lat="39.3951725" lon="8.4040904"><ele>74.0</ele><time>2026-05-01T10:12:55.231Z</time></trkpt><trkpt lat="39.3950476" lon="8.4041016"><ele>74.0</ele><time>2026-05-01T10:12:56.231Z</time></trkpt><trkpt lat="39.3949247" lon="8.4040995"><ele>74.0</ele><time>2026-05-01T10:12:57.232Z</time></trkpt><trkpt lat="39.3948112" lon="8.4040766"><ele>74.0</ele><time>2026-05-01T10:12:58.231Z</time></trkpt><trkpt lat="39.3946979" lon="8.404034"><ele>74.0</ele><time>2026-05-01T10:12:59.232Z</time></trkpt><trkpt lat="39.3945773" lon="8.4039789"><ele>71.75</ele><time>2026-05-01T10:13:00.232Z</time></trkpt><trkpt lat="39.3944594" lon="8.4039282"><ele>69.5</ele><time>2026-05-01T10:13:01.231Z</time></trkpt><trkpt lat="39.3943408" lon="8.4039008"><ele>67.25</ele><time>2026-05-01T10:13:02.231Z</time></trkpt><trkpt lat="39.3942142" lon="8.4038953"><ele>65.0</ele><time>2026-05-01T10:13:03.231Z</time></trkpt><trkpt lat="39.3940923" lon="8.4039234"><ele>65.0</ele><time>2026-05-01T10:13:04.232Z</time></trkpt><trkpt lat="39.3939762" lon="8.403983"><ele>65.0</ele><time>2026-05-01T10:13:05.231Z</time></trkpt><trkpt lat="39.3938656" lon="8.4040642"><ele>65.0</ele><time>2026-05-01T10:13:06.231Z</time></trkpt><trkpt lat="39.3937646" lon="8.4041624"><ele>65.0</ele><time>2026-05-01T10:13:07.232Z</time></trkpt><trkpt lat="39.3936598" lon="8.4042631"><ele>62.5</ele><time>2026-05-01T10:13:08.231Z</time></trkpt><trkpt lat="39.3935584" lon="8.4043666"><ele>60.0</ele><time>2026-05-01T10:13:09.231Z</time></trkpt><trkpt lat="39.3934508" lon="8.4044603"><ele>57.5</ele><time>2026-05-01T10:13:10.232Z</time></trkpt><trkpt lat="39.3933374" lon="8.4045433"><ele>55.0</ele><time>2026-05-01T10:13:11.232Z</time></trkpt><trkpt lat="39.3932245" lon="8.4046143"><ele>57.75</ele><time>2026-05-01T10:13:12.231Z</time></trkpt><trkpt lat="39.3931043" lon="8.4046735"><ele>60.5</ele><time>2026-05-01T10:13:13.231Z</time></trkpt><trkpt lat="39.392982" lon="8.4047309"><ele>63.25</ele><time>2026-05-01T10:13:14.232Z</time></trkpt><trkpt lat="39.3928619" lon="8.404781"><ele>66.0</ele><time>2026-05-01T10:13:15.232Z</time></trkpt><trkpt lat="39.392741" lon="8.4048317"><ele>66.0</ele><time>2026-05-01T10:13:16.232Z</time></trkpt><trkpt lat="39.3926299" lon="8.4048796"><ele>66.0</ele><time>2026-05-01T10:13:17.231Z</time></trkpt><trkpt lat="39.3925238" lon="8.4049281"><ele>66.0</ele><time>2026-05-01T10:13:18.232Z</time></trkpt><trkpt lat="39.3924217" lon="8.4049767"><ele>66.0</ele><time>2026-05-01T10:13:19.232Z</time></trkpt><trkpt lat="39.3923235" lon="8.4050224"><ele>66.0</ele><time>2026-05-01T10:13:20.231Z</time></trkpt><trkpt lat="39.3922263" lon="8.4050631"><ele>66.16666666666667</ele><time>2026-05-01T10:13:21.231Z</time></trkpt><trkpt lat="39.3921357" lon="8.4051036"><ele>66.33333333333333</ele><time>2026-05-01T10:13:22.232Z</time></trkpt><trkpt lat="39.3920506" lon="8.405146"><ele>66.5</ele><time>2026-05-01T10:13:23.231Z</time></trkpt><trkpt lat="39.3919706" lon="8.4051799"><ele>66.66666666666666</ele><time>2026-05-01T10:13:24.232Z</time></trkpt><trkpt lat="39.3918961" lon="8.4052073"><ele>66.83333333333333</ele><time>2026-05-01T10:13:25.231Z</time></trkpt><trkpt lat="39.3918305" lon="8.4052242"><ele>67.0</ele><time>2026-05-01T10:13:26.231Z</time></trkpt><trkpt lat="39.3917232" lon="8.4052266"><ele>67.0</ele><time>2026-05-01T10:13:28.231Z</time></trkpt><trkpt lat="39.3916286" lon="8.4051962"><ele>67.0</ele><time>2026-05-01T10:13:30.232Z</time></trkpt><trkpt lat="39.3915126" lon="8.4051449"><ele>67.0</ele><time>2026-05-01T10:13:32.231Z</time></trkpt><trkpt lat="39.3914394" lon="8.4051365"><ele>67.0</ele><time>2026-05-01T10:13:33.231Z</time></trkpt><trkpt lat="39.3913686" lon="8.4051455"><ele>67.0</ele><time>2026-05-01T10:13:34.232Z</time></trkpt><trkpt lat="39.3912922" lon="8.4051774"><ele>67.0</ele><time>2026-05-01T10:13:35.232Z</time></trkpt><trkpt lat="39.391213" lon="8.4052171"><ele>69.66666666666666</ele><time>2026-05-01T10:13:36.231Z</time></trkpt><trkpt lat="39.3911426" lon="8.4052641"><ele>72.33333333333333</ele><time>2026-05-01T10:13:37.232Z</time></trkpt><trkpt lat="39.3910787" lon="8.4053086"><ele>75.0</ele><time>2026-05-01T10:13:38.232Z</time></trkpt><trkpt lat="39.3910156" lon="8.4053563"><ele>77.66666666666667</ele><time>2026-05-01T10:13:39.232Z</time></trkpt><trkpt lat="39.3909491" lon="8.4054021"><ele>80.33333333333334</ele><time>2026-05-01T10:13:40.231Z</time></trkpt><trkpt lat="39.3908867" lon="8.4054511"><ele>83.0</ele><time>2026-05-01T10:13:41.231Z</time></trkpt><trkpt lat="39.3908185" lon="8.4055019"><ele>83.0</ele><time>2026-05-01T10:13:42.231Z</time></trkpt><trkpt lat="39.3907487" lon="8.405553"><ele>83.0</ele><time>2026-05-01T10:13:43.232Z</time></trkpt><trkpt lat="39.3906822" lon="8.4056056"><ele>83.0</ele><time>2026-05-01T10:13:44.232Z</time></trkpt><trkpt lat="39.3906187" lon="8.4056564"><ele>83.0</ele><time>2026-05-01T10:13:45.231Z</time></trkpt><trkpt lat="39.3905536" lon="8.4057093"><ele>83.0</ele><time>2026-05-01T10:13:46.231Z</time></trkpt><trkpt lat="39.3904888" lon="8.4057676"><ele>83.0</ele><time>2026-05-01T10:13:47.232Z</time></trkpt><trkpt lat="39.3904254" lon="8.4058223"><ele>84.0</ele><time>2026-05-01T10:13:48.232Z</time></trkpt><trkpt lat="39.3903568" lon="8.4058746"><ele>85.0</ele><time>2026-05-01T10:13:49.231Z</time></trkpt><trkpt lat="39.3902828" lon="8.4059232"><ele>86.0</ele><time>2026-05-01T10:13:50.232Z</time></trkpt><trkpt lat="39.3902102" lon="8.4059709"><ele>87.0</ele><time>2026-05-01T10:13:51.231Z</time></trkpt><trkpt lat="39.3901342" lon="8.4060064"><ele>88.0</ele><time>2026-05-01T10:13:52.232Z</time></trkpt><trkpt lat="39.3900518" lon="8.4060338"><ele>89.0</ele><time>2026-05-01T10:13:53.232Z</time></trkpt><trkpt lat="39.3899686" lon="8.4060462"><ele>89.0</ele><time>2026-05-01T10:13:54.232Z</time></trkpt><trkpt lat="39.3898915" lon="8.4060284"><ele>89.0</ele><time>2026-05-01T10:13:55.232Z</time></trkpt><trkpt lat="39.3898118" lon="8.4059865"><ele>89.0</ele><time>2026-05-01T10:13:56.232Z</time></trkpt><trkpt lat="39.3897285" lon="8.4059496"><ele>89.0</ele><time>2026-05-01T10:13:57.232Z</time></trkpt><trkpt lat="39.3896308" lon="8.4059353"><ele>89.0</ele><time>2026-05-01T10:13:58.232Z</time></trkpt><trkpt lat="39.3895316" lon="8.405938"><ele>92.75</ele><time>2026-05-01T10:13:59.231Z</time></trkpt><trkpt lat="39.389424" lon="8.4059539"><ele>96.5</ele><time>2026-05-01T10:14:00.231Z</time></trkpt><trkpt lat="39.3893155" lon="8.4059744"><ele>100.25</ele><time>2026-05-01T10:14:01.232Z</time></trkpt><trkpt lat="39.3891997" lon="8.4059953"><ele>104.0</ele><time>2026-05-01T10:14:02.232Z</time></trkpt><trkpt lat="39.3890737" lon="8.4060335"><ele>104.0</ele><time>2026-05-01T10:14:03.232Z</time></trkpt><trkpt lat="39.3889506" lon="8.4060832"><ele>104.0</ele><time>2026-05-01T10:14:04.232Z</time></trkpt><trkpt lat="39.3888323" lon="8.4061416"><ele>104.0</ele><time>2026-05-01T10:14:05.232Z</time></trkpt><trkpt lat="39.3887157" lon="8.406218"><ele>104.0</ele><time>2026-05-01T10:14:06.231Z</time></trkpt><trkpt lat="39.3886056" lon="8.406302"><ele>103.75</ele><time>2026-05-01T10:14:07.231Z</time></trkpt><trkpt lat="39.3884895" lon="8.4063781"><ele>103.5</ele><time>2026-05-01T10:14:08.231Z</time></trkpt><trkpt lat="39.3883705" lon="8.4064308"><ele>103.25</ele><time>2026-05-01T10:14:09.231Z</time></trkpt><trkpt lat="39.3882502" lon="8.4064611"><ele>103.0</ele><time>2026-05-01T10:14:10.231Z</time></trkpt><trkpt lat="39.3881281" lon="8.4064688"><ele>105.25</ele><time>2026-05-01T10:14:11.231Z</time></trkpt><trkpt lat="39.3880021" lon="8.4064542"><ele>107.5</ele><time>2026-05-01T10:14:12.231Z</time></trkpt><trkpt lat="39.3878717" lon="8.4064368"><ele>109.75</ele><time>2026-05-01T10:14:13.231Z</time></trkpt><trkpt lat="39.3877391" lon="8.4064067"><ele>112.0</ele><time>2026-05-01T10:14:14.232Z</time></trkpt><trkpt lat="39.3876065" lon="8.4063804"><ele>112.0</ele><time>2026-05-01T10:14:15.232Z</time></trkpt><trkpt lat="39.3874706" lon="8.4063722"><ele>112.0</ele><time>2026-05-01T10:14:16.231Z</time></trkpt><trkpt lat="39.3873343" lon="8.4063795"><ele>112.0</ele><time>2026-05-01T10:14:17.232Z</time></trkpt><trkpt lat="39.3871914" lon="8.4064076"><ele>112.0</ele><time>2026-05-01T10:14:18.231Z</time></trkpt><trkpt lat="39.3870466" lon="8.4064467"><ele>115.33333333333334</ele><time>2026-05-01T10:14:19.231Z</time></trkpt><trkpt lat="39.3869002" lon="8.4065045"><ele>118.66666666666666</ele><time>2026-05-01T10:14:20.232Z</time></trkpt><trkpt lat="39.3867571" lon="8.4065675"><ele>122.0</ele><time>2026-05-01T10:14:21.231Z</time></trkpt><trkpt lat="39.3866126" lon="8.4066319"><ele>122.0</ele><time>2026-05-01T10:14:22.232Z</time></trkpt><trkpt lat="39.3864768" lon="8.4066902"><ele>122.0</ele><time>2026-05-01T10:14:23.231Z</time></trkpt><trkpt lat="39.386359" lon="8.4067401"><ele>122.0</ele><time>2026-05-01T10:14:24.232Z</time></trkpt><trkpt lat="39.38625" lon="8.4067792"><ele>122.0</ele><time>2026-05-01T10:14:25.231Z</time></trkpt><trkpt lat="39.3861462" lon="8.4068162"><ele>124.6</ele><time>2026-05-01T10:14:26.232Z</time></trkpt><trkpt lat="39.3860394" lon="8.4068327"><ele>127.19999999999999</ele><time>2026-05-01T10:14:27.231Z</time></trkpt><trkpt lat="39.3859427" lon="8.4068097"><ele>129.8</ele><time>2026-05-01T10:14:28.232Z</time></trkpt><trkpt lat="39.3858591" lon="8.4067546"><ele>132.4</ele><time>2026-05-01T10:14:29.232Z</time></trkpt><trkpt lat="39.3857841" lon="8.4066867"><ele>135.0</ele><time>2026-05-01T10:14:30.231Z</time></trkpt><trkpt lat="39.3857746" lon="8.4065636"><ele>135.0</ele><time>2026-05-01T10:14:31.232Z</time></trkpt><trkpt lat="39.3857772" lon="8.4064408"><ele>135.0</ele><time>2026-05-01T10:14:32.231Z</time></trkpt><trkpt lat="39.3858191" lon="8.4063246"><ele>135.0</ele><time>2026-05-01T10:14:33.232Z</time></trkpt><trkpt lat="39.3858937" lon="8.4061984"><ele>135.0</ele><time>2026-05-01T10:14:34.231Z</time></trkpt><trkpt lat="39.3859783" lon="8.4060618"><ele>133.66666666666666</ele><time>2026-05-01T10:14:35.232Z</time></trkpt><trkpt lat="39.3860968" lon="8.4058742"><ele>132.33333333333331</ele><time>2026-05-01T10:14:36.231Z</time></trkpt><trkpt lat="39.3862379" lon="8.4056864"><ele>131.0</ele><time>2026-05-01T10:14:37.232Z</time></trkpt><trkpt lat="39.3863638" lon="8.4055116"><ele>139.33333333333331</ele><time>2026-05-01T10:14:38.231Z</time></trkpt><trkpt lat="39.3864896" lon="8.4053503"><ele>147.66666666666666</ele><time>2026-05-01T10:14:39.232Z</time></trkpt><trkpt lat="39.3866241" lon="8.4052236"><ele>156.0</ele><time>2026-05-01T10:14:40.231Z</time></trkpt><trkpt lat="39.3867618" lon="8.4051185"><ele>156.0</ele><time>2026-05-01T10:14:41.232Z</time></trkpt><trkpt lat="39.3869074" lon="8.4050354"><ele>156.0</ele><time>2026-05-01T10:14:42.231Z</time></trkpt><trkpt lat="39.3870733" lon="8.4049647"><ele>156.0</ele><time>2026-05-01T10:14:43.232Z</time></trkpt><trkpt lat="39.387258" lon="8.4049087"><ele>153.66666666666666</ele><time>2026-05-01T10:14:44.232Z</time></trkpt><trkpt lat="39.387464" lon="8.4048488"><ele>151.33333333333331</ele><time>2026-05-01T10:14:45.232Z</time></trkpt><trkpt lat="39.3876683" lon="8.4047954"><ele>149.0</ele><time>2026-05-01T10:14:46.231Z</time></trkpt><trkpt lat="39.3878571" lon="8.4047525"><ele>147.0</ele><time>2026-05-01T10:14:47.232Z</time></trkpt><trkpt lat="39.3880512" lon="8.404711"><ele>145.0</ele><time>2026-05-01T10:14:48.231Z</time></trkpt><trkpt lat="39.3882384" lon="8.4046881"><ele>143.0</ele><time>2026-05-01T10:14:49.231Z</time></trkpt><trkpt lat="39.388413" lon="8.4046796"><ele>143.0</ele><time>2026-05-01T10:14:50.231Z</time></trkpt><trkpt lat="39.3885791" lon="8.4046718"><ele>143.0</ele><time>2026-05-01T10:14:51.232Z</time></trkpt><trkpt lat="39.3887329" lon="8.4046579"><ele>143.0</ele><time>2026-05-01T10:14:52.231Z</time></trkpt><trkpt lat="39.3888752" lon="8.4046397"><ele>150.25</ele><time>2026-05-01T10:14:53.232Z</time></trkpt><trkpt lat="39.389013" lon="8.4046143"><ele>157.5</ele><time>2026-05-01T10:14:54.231Z</time></trkpt><trkpt lat="39.3891512" lon="8.4045731"><ele>164.75</ele><time>2026-05-01T10:14:55.231Z</time></trkpt><trkpt lat="39.3892919" lon="8.4045133"><ele>172.0</ele><time>2026-05-01T10:14:56.232Z</time></trkpt><trkpt lat="39.3894318" lon="8.4044398"><ele>172.0</ele><time>2026-05-01T10:14:57.232Z</time></trkpt><trkpt lat="39.3895755" lon="8.4043615"><ele>172.0</ele><time>2026-05-01T10:14:58.231Z</time></trkpt><trkpt lat="39.3897269" lon="8.4042763"><ele>172.0</ele><time>2026-05-01T10:14:59.231Z</time></trkpt><trkpt lat="39.3898682" lon="8.4041861"><ele>165.0</ele><time>2026-05-01T10:15:00.232Z</time></trkpt><trkpt lat="39.3900069" lon="8.4040868"><ele>158.0</ele><time>2026-05-01T10:15:01.232Z</time></trkpt><trkpt lat="39.3901439" lon="8.4039818"><ele>151.0</ele><time>2026-05-01T10:15:02.231Z</time></trkpt><trkpt lat="39.3902778" lon="8.4038641"><ele>153.0</ele><time>2026-05-01T10:15:03.231Z</time></trkpt><trkpt lat="39.3904016" lon="8.403754"><ele>155.0</ele><time>2026-05-01T10:15:04.231Z</time></trkpt><trkpt lat="39.3905342" lon="8.4036604"><ele>157.0</ele><time>2026-05-01T10:15:05.231Z</time></trkpt><trkpt lat="39.3906687" lon="8.4035865"><ele>159.0</ele><time>2026-05-01T10:15:06.231Z</time></trkpt><trkpt lat="39.3908107" lon="8.403519"><ele>159.0</ele><time>2026-05-01T10:15:07.231Z</time></trkpt><trkpt lat="39.3909515" lon="8.4034596"><ele>159.0</ele><time>2026-05-01T10:15:08.232Z</time></trkpt><trkpt lat="39.3910755" lon="8.4033818"><ele>159.0</ele><time>2026-05-01T10:15:09.231Z</time></trkpt><trkpt lat="39.391192" lon="8.4032878"><ele>159.0</ele><time>2026-05-01T10:15:10.232Z</time></trkpt><trkpt lat="39.3912979" lon="8.4031538"><ele>157.33333333333334</ele><time>2026-05-01T10:15:11.232Z</time></trkpt><trkpt lat="39.3913903" lon="8.4029981"><ele>155.66666666666669</ele><time>2026-05-01T10:15:12.232Z</time></trkpt><trkpt lat="39.3914763" lon="8.4028196"><ele>154.0</ele><time>2026-05-01T10:15:13.232Z</time></trkpt><trkpt lat="39.3915767" lon="8.4026458"><ele>154.0</ele><time>2026-05-01T10:15:14.232Z</time></trkpt><trkpt lat="39.3916866" lon="8.4024883"><ele>154.0</ele><time>2026-05-01T10:15:15.232Z</time></trkpt><trkpt lat="39.3918124" lon="8.4023506"><ele>154.0</ele><time>2026-05-01T10:15:16.232Z</time></trkpt><trkpt lat="39.3919709" lon="8.4022692"><ele>154.0</ele><time>2026-05-01T10:15:17.232Z</time></trkpt><trkpt lat="39.3921222" lon="8.4021668"><ele>154.0</ele><time>2026-05-01T10:15:18.232Z</time></trkpt><trkpt lat="39.3922793" lon="8.4020289"><ele>154.0</ele><time>2026-05-01T10:15:19.232Z</time></trkpt><trkpt lat="39.3924418" lon="8.4018914"><ele>156.33333333333334</ele><time>2026-05-01T10:15:20.232Z</time></trkpt><trkpt lat="39.392587" lon="8.4017257"><ele>158.66666666666666</ele><time>2026-05-01T10:15:21.231Z</time></trkpt><trkpt lat="39.3927267" lon="8.401578"><ele>161.0</ele><time>2026-05-01T10:15:22.232Z</time></trkpt><trkpt lat="39.3928691" lon="8.4014643"><ele>165.66666666666666</ele><time>2026-05-01T10:15:23.231Z</time></trkpt><trkpt lat="39.3930317" lon="8.4013983"><ele>170.33333333333334</ele><time>2026-05-01T10:15:24.232Z</time></trkpt><trkpt lat="39.3931805" lon="8.4013605"><ele>175.0</ele><time>2026-05-01T10:15:25.231Z</time></trkpt><trkpt lat="39.3933176" lon="8.4013231"><ele>175.0</ele><time>2026-05-01T10:15:26.232Z</time></trkpt><trkpt lat="39.3934484" lon="8.4012593"><ele>175.0</ele><time>2026-05-01T10:15:27.232Z</time></trkpt><trkpt lat="39.3935748" lon="8.4011706"><ele>175.0</ele><time>2026-05-01T10:15:28.231Z</time></trkpt><trkpt lat="39.3937061" lon="8.4010593"><ele>175.0</ele><time>2026-05-01T10:15:29.232Z</time></trkpt><trkpt lat="39.3938301" lon="8.4009395"><ele>165.33333333333334</ele><time>2026-05-01T10:15:30.231Z</time></trkpt><trkpt lat="39.3939526" lon="8.4008067"><ele>155.66666666666666</ele><time>2026-05-01T10:15:31.231Z</time></trkpt><trkpt lat="39.394079" lon="8.4006593"><ele>146.0</ele><time>2026-05-01T10:15:32.231Z</time></trkpt><trkpt lat="39.3942127" lon="8.4005048"><ele>156.66666666666666</ele><time>2026-05-01T10:15:33.232Z</time></trkpt><trkpt lat="39.394365" lon="8.4003284"><ele>167.33333333333334</ele><time>2026-05-01T10:15:34.231Z</time></trkpt><trkpt lat="39.3945072" lon="8.4001718"><ele>178.0</ele><time>2026-05-01T10:15:35.231Z</time></trkpt><trkpt lat="39.3946437" lon="8.400018"><ele>175.0</ele><time>2026-05-01T10:15:36.231Z</time></trkpt><trkpt lat="39.3947711" lon="8.3998744"><ele>172.0</ele><time>2026-05-01T10:15:37.231Z</time></trkpt><trkpt lat="39.3949006" lon="8.3997357"><ele>169.0</ele><time>2026-05-01T10:15:38.231Z</time></trkpt><trkpt lat="39.3950243" lon="8.3996034"><ele>169.0</ele><time>2026-05-01T10:15:39.231Z</time></trkpt><trkpt lat="39.3951493" lon="8.3994722"><ele>169.0</ele><time>2026-05-01T10:15:40.231Z</time></trkpt><trkpt lat="39.395266" lon="8.3993411"><ele>169.0</ele><time>2026-05-01T10:15:41.231Z</time></trkpt><trkpt lat="39.3953807" lon="8.3992069"><ele>169.0</ele><time>2026-05-01T10:15:42.232Z</time></trkpt><trkpt lat="39.3954874" lon="8.3990556"><ele>169.0</ele><time>2026-05-01T10:15:43.232Z</time></trkpt><trkpt lat="39.3955863" lon="8.3988946"><ele>169.0</ele><time>2026-05-01T10:15:44.231Z</time></trkpt><trkpt lat="39.3956757" lon="8.3987199"><ele>163.0</ele><time>2026-05-01T10:15:45.232Z</time></trkpt><trkpt lat="39.3957629" lon="8.3985439"><ele>157.0</ele><time>2026-05-01T10:15:46.232Z</time></trkpt><trkpt lat="39.3958255" lon="8.3983593"><ele>151.0</ele><time>2026-05-01T10:15:47.231Z</time></trkpt><trkpt lat="39.3958796" lon="8.3981577"><ele>152.33333333333334</ele><time>2026-05-01T10:15:48.231Z</time></trkpt><trkpt lat="39.3959271" lon="8.3979528"><ele>153.66666666666666</ele><time>2026-05-01T10:15:49.231Z</time></trkpt><trkpt lat="39.3959596" lon="8.3977354"><ele>155.0</ele><time>2026-05-01T10:15:50.232Z</time></trkpt><trkpt lat="39.3959742" lon="8.3975147"><ele>155.0</ele><time>2026-05-01T10:15:51.231Z</time></trkpt><trkpt lat="39.3959563" lon="8.3972796"><ele>155.0</ele><time>2026-05-01T10:15:52.232Z</time></trkpt><trkpt lat="39.3959128" lon="8.3970421"><ele>155.0</ele><time>2026-05-01T10:15:53.231Z</time></trkpt><trkpt lat="39.3958493" lon="8.3968196"><ele>153.66666666666666</ele><time>2026-05-01T10:15:54.231Z</time></trkpt><trkpt lat="39.3957717" lon="8.3966051"><ele>152.33333333333334</ele><time>2026-05-01T10:15:55.232Z</time></trkpt><trkpt lat="39.3956773" lon="8.3964105"><ele>151.0</ele><time>2026-05-01T10:15:56.231Z</time></trkpt><trkpt lat="39.395564" lon="8.3962277"><ele>151.0</ele><time>2026-05-01T10:15:57.232Z</time></trkpt><trkpt lat="39.395427" lon="8.3960648"><ele>151.0</ele><time>2026-05-01T10:15:58.232Z</time></trkpt><trkpt lat="39.3952688" lon="8.3959056"><ele>151.0</ele><time>2026-05-01T10:15:59.231Z</time></trkpt><trkpt lat="39.3950945" lon="8.3957444"><ele>151.0</ele><time>2026-05-01T10:16:00.231Z</time></trkpt><trkpt lat="39.3949251" lon="8.3955908"><ele>151.0</ele><time>2026-05-01T10:16:01.231Z</time></trkpt><trkpt lat="39.3947597" lon="8.3954387"><ele>151.0</ele><time>2026-05-01T10:16:02.232Z</time></trkpt><trkpt lat="39.3945978" lon="8.3952907"><ele>148.33333333333334</ele><time>2026-05-01T10:16:03.232Z</time></trkpt><trkpt lat="39.3944436" lon="8.3951515"><ele>145.66666666666666</ele><time>2026-05-01T10:16:04.232Z</time></trkpt><trkpt lat="39.3943022" lon="8.3950335"><ele>143.0</ele><time>2026-05-01T10:16:05.232Z</time></trkpt><trkpt lat="39.3941429" lon="8.394928"><ele>143.0</ele><time>2026-05-01T10:16:06.232Z</time></trkpt><trkpt lat="39.3939767" lon="8.3948534"><ele>143.0</ele><time>2026-05-01T10:16:07.231Z</time></trkpt><trkpt lat="39.3937913" lon="8.3948006"><ele>143.0</ele><time>2026-05-01T10:16:08.232Z</time></trkpt><trkpt lat="39.3935979" lon="8.3947693"><ele>144.33333333333331</ele><time>2026-05-01T10:16:09.231Z</time></trkpt><trkpt lat="39.3934017" lon="8.3947612"><ele>145.66666666666666</ele><time>2026-05-01T10:16:10.232Z</time></trkpt><trkpt lat="39.3931948" lon="8.3947608"><ele>147.0</ele><time>2026-05-01T10:16:11.231Z</time></trkpt><trkpt lat="39.3929832" lon="8.3947577"><ele>147.0</ele><time>2026-05-01T10:16:12.232Z</time></trkpt><trkpt lat="39.3927724" lon="8.3947638"><ele>147.0</ele><time>2026-05-01T10:16:13.231Z</time></trkpt><trkpt lat="39.3925578" lon="8.3947737"><ele>147.0</ele><time>2026-05-01T10:16:14.232Z</time></trkpt><trkpt lat="39.3923377" lon="8.3947868"><ele>146.0</ele><time>2026-05-01T10:16:15.232Z</time></trkpt><trkpt lat="39.3921141" lon="8.3948053"><ele>145.0</ele><time>2026-05-01T10:16:16.231Z</time></trkpt><trkpt lat="39.3918869" lon="8.3948247"><ele>145.0</ele><time>2026-05-01T10:16:17.231Z</time></trkpt><trkpt lat="39.3916555" lon="8.3948528"><ele>145.0</ele><time>2026-05-01T10:16:18.232Z</time></trkpt><trkpt lat="39.3914189" lon="8.3948791"><ele>143.0</ele><time>2026-05-01T10:16:19.231Z</time></trkpt><trkpt lat="39.3911866" lon="8.3949084"><ele>141.0</ele><time>2026-05-01T10:16:20.231Z</time></trkpt><trkpt lat="39.3909536" lon="8.394939"><ele>141.0</ele><time>2026-05-01T10:16:21.231Z</time></trkpt><trkpt lat="39.3907203" lon="8.3949645"><ele>141.0</ele><time>2026-05-01T10:16:22.231Z</time></trkpt><trkpt lat="39.3904827" lon="8.3949891"><ele>141.5</ele><time>2026-05-01T10:16:23.232Z</time></trkpt><trkpt lat="39.3902553" lon="8.3950165"><ele>142.0</ele><time>2026-05-01T10:16:24.232Z</time></trkpt><trkpt lat="39.3900297" lon="8.3950466"><ele>142.0</ele><time>2026-05-01T10:16:25.232Z</time></trkpt><trkpt lat="39.3898162" lon="8.3950706"><ele>142.0</ele><time>2026-05-01T10:16:26.232Z</time></trkpt><trkpt lat="39.3896084" lon="8.3950983"><ele>142.0</ele><time>2026-05-01T10:16:27.231Z</time></trkpt><trkpt lat="39.3894059" lon="8.3951196"><ele>141.0</ele><time>2026-05-01T10:16:28.231Z</time></trkpt><trkpt lat="39.3892071" lon="8.3951456"><ele>140.0</ele><time>2026-05-01T10:16:29.232Z</time></trkpt><trkpt lat="39.3890089" lon="8.395175"><ele>139.0</ele><time>2026-05-01T10:16:30.232Z</time></trkpt><trkpt lat="39.3888097" lon="8.3952032"><ele>138.66666666666669</ele><time>2026-05-01T10:16:31.232Z</time></trkpt><trkpt lat="39.3886071" lon="8.3952202"><ele>138.33333333333334</ele><time>2026-05-01T10:16:32.231Z</time></trkpt><trkpt lat="39.3884053" lon="8.3952367"><ele>138.0</ele><time>2026-05-01T10:16:33.232Z</time></trkpt><trkpt lat="39.3882049" lon="8.3952372"><ele>137.0</ele><time>2026-05-01T10:16:34.232Z</time></trkpt><trkpt lat="39.3879984" lon="8.3952106"><ele>136.0</ele><time>2026-05-01T10:16:35.232Z</time></trkpt><trkpt lat="39.387791" lon="8.3951657"><ele>135.0</ele><time>2026-05-01T10:16:36.232Z</time></trkpt><trkpt lat="39.3875836" lon="8.3951058"><ele>135.0</ele><time>2026-05-01T10:16:37.232Z</time></trkpt><trkpt lat="39.3873645" lon="8.3950374"><ele>135.0</ele><time>2026-05-01T10:16:38.232Z</time></trkpt><trkpt lat="39.3871498" lon="8.3949727"><ele>135.0</ele><time>2026-05-01T10:16:39.231Z</time></trkpt><trkpt lat="39.3869315" lon="8.3949041"><ele>136.0</ele><time>2026-05-01T10:16:40.232Z</time></trkpt><trkpt lat="39.3867152" lon="8.394841"><ele>137.0</ele><time>2026-05-01T10:16:41.231Z</time></trkpt><trkpt lat="39.3865021" lon="8.394773"><ele>138.0</ele><time>2026-05-01T10:16:42.232Z</time></trkpt><trkpt lat="39.3862998" lon="8.3947107"><ele>138.33333333333334</ele><time>2026-05-01T10:16:43.232Z</time></trkpt><trkpt lat="39.3861012" lon="8.3946365"><ele>138.66666666666669</ele><time>2026-05-01T10:16:44.232Z</time></trkpt><trkpt lat="39.3859104" lon="8.3945548"><ele>139.0</ele><time>2026-05-01T10:16:45.232Z</time></trkpt><trkpt lat="39.3857508" lon="8.3944607"><ele>139.0</ele><time>2026-05-01T10:16:46.232Z</time></trkpt><trkpt lat="39.385586" lon="8.3943835"><ele>139.0</ele><time>2026-05-01T10:16:47.232Z</time></trkpt><trkpt lat="39.3854203" lon="8.3943307"><ele>139.0</ele><time>2026-05-01T10:16:48.232Z</time></trkpt><trkpt lat="39.3852492" lon="8.3943103"><ele>139.66666666666669</ele><time>2026-05-01T10:16:49.231Z</time></trkpt><trkpt lat="39.3850708" lon="8.3943009"><ele>140.33333333333334</ele><time>2026-05-01T10:16:50.232Z</time></trkpt><trkpt lat="39.3848854" lon="8.3942894"><ele>141.0</ele><time>2026-05-01T10:16:51.232Z</time></trkpt><trkpt lat="39.3846872" lon="8.3942669"><ele>141.33333333333334</ele><time>2026-05-01T10:16:52.231Z</time></trkpt><trkpt lat="39.3844912" lon="8.3942356"><ele>141.66666666666669</ele><time>2026-05-01T10:16:53.231Z</time></trkpt><trkpt lat="39.3842879" lon="8.3941838"><ele>142.0</ele><time>2026-05-01T10:16:54.231Z</time></trkpt><trkpt lat="39.3840844" lon="8.3941238"><ele>142.0</ele><time>2026-05-01T10:16:55.232Z</time></trkpt><trkpt lat="39.3838765" lon="8.3940529"><ele>142.0</ele><time>2026-05-01T10:16:56.232Z</time></trkpt><trkpt lat="39.3836599" lon="8.3939847"><ele>142.0</ele><time>2026-05-01T10:16:57.231Z</time></trkpt><trkpt lat="39.383446" lon="8.3939084"><ele>142.33333333333334</ele><time>2026-05-01T10:16:58.232Z</time></trkpt><trkpt lat="39.3832435" lon="8.3938402"><ele>142.66666666666666</ele><time>2026-05-01T10:16:59.232Z</time></trkpt><trkpt lat="39.3830432" lon="8.393775"><ele>143.0</ele><time>2026-05-01T10:17:00.232Z</time></trkpt><trkpt lat="39.3828505" lon="8.3937241"><ele>140.33333333333331</ele><time>2026-05-01T10:17:01.231Z</time></trkpt><trkpt lat="39.3826574" lon="8.3936817"><ele>137.66666666666666</ele><time>2026-05-01T10:17:02.231Z</time></trkpt><trkpt lat="39.3824706" lon="8.3936767"><ele>135.0</ele><time>2026-05-01T10:17:03.232Z</time></trkpt><trkpt lat="39.3822803" lon="8.3937308"><ele>135.66666666666666</ele><time>2026-05-01T10:17:04.232Z</time></trkpt><trkpt lat="39.38209" lon="8.3937976"><ele>136.33333333333331</ele><time>2026-05-01T10:17:05.232Z</time></trkpt><trkpt lat="39.3819004" lon="8.3938783"><ele>137.0</ele><time>2026-05-01T10:17:06.232Z</time></trkpt><trkpt lat="39.3817198" lon="8.3939732"><ele>137.0</ele><time>2026-05-01T10:17:07.232Z</time></trkpt><trkpt lat="39.3815674" lon="8.3940904"><ele>137.0</ele><time>2026-05-01T10:17:08.231Z</time></trkpt><trkpt lat="39.381408" lon="8.3942194"><ele>137.0</ele><time>2026-05-01T10:17:09.231Z</time></trkpt><trkpt lat="39.3812476" lon="8.3943521"><ele>135.0</ele><time>2026-05-01T10:17:10.232Z</time></trkpt><trkpt lat="39.3810876" lon="8.3944531"><ele>133.0</ele><time>2026-05-01T10:17:11.232Z</time></trkpt><trkpt lat="39.3809222" lon="8.3945268"><ele>131.0</ele><time>2026-05-01T10:17:12.232Z</time></trkpt><trkpt lat="39.3807493" lon="8.3945693"><ele>131.0</ele><time>2026-05-01T10:17:13.231Z</time></trkpt><trkpt lat="39.3805655" lon="8.3945912"><ele>131.0</ele><time>2026-05-01T10:17:14.231Z</time></trkpt><trkpt lat="39.3803758" lon="8.3946217"><ele>131.0</ele><time>2026-05-01T10:17:15.231Z</time></trkpt><trkpt lat="39.3801865" lon="8.3946698"><ele>132.0</ele><time>2026-05-01T10:17:16.231Z</time></trkpt><trkpt lat="39.3800022" lon="8.3947295"><ele>133.0</ele><time>2026-05-01T10:17:17.232Z</time></trkpt><trkpt lat="39.3798246" lon="8.3948019"><ele>134.0</ele><time>2026-05-01T10:17:18.232Z</time></trkpt><trkpt lat="39.3796642" lon="8.394875"><ele>130.33333333333331</ele><time>2026-05-01T10:17:19.232Z</time></trkpt><trkpt lat="39.3795151" lon="8.3949517"><ele>126.66666666666666</ele><time>2026-05-01T10:17:20.232Z</time></trkpt><trkpt lat="39.3793812" lon="8.3950579"><ele>123.0</ele><time>2026-05-01T10:17:21.231Z</time></trkpt><trkpt lat="39.3792679" lon="8.3951958"><ele>123.0</ele><time>2026-05-01T10:17:22.231Z</time></trkpt><trkpt lat="39.3791612" lon="8.3953475"><ele>123.0</ele><time>2026-05-01T10:17:23.231Z</time></trkpt><trkpt lat="39.3790618" lon="8.3954917"><ele>123.0</ele><time>2026-05-01T10:17:24.232Z</time></trkpt><trkpt lat="39.3789449" lon="8.3956043"><ele>123.66666666666666</ele><time>2026-05-01T10:17:25.231Z</time></trkpt><trkpt lat="39.378802" lon="8.3956728"><ele>124.33333333333333</ele><time>2026-05-01T10:17:26.231Z</time></trkpt><trkpt lat="39.3786498" lon="8.3956969"><ele>125.0</ele><time>2026-05-01T10:17:27.232Z</time></trkpt><trkpt lat="39.3784791" lon="8.3956706"><ele>125.0</ele><time>2026-05-01T10:17:28.231Z</time></trkpt><trkpt lat="39.3783047" lon="8.3956178"><ele>125.0</ele><time>2026-05-01T10:17:29.232Z</time></trkpt><trkpt lat="39.3781163" lon="8.3955614"><ele>125.0</ele><time>2026-05-01T10:17:30.232Z</time></trkpt><trkpt lat="39.377913" lon="8.3955038"><ele>122.0</ele><time>2026-05-01T10:17:31.232Z</time></trkpt><trkpt lat="39.37772" lon="8.3954538"><ele>119.0</ele><time>2026-05-01T10:17:32.231Z</time></trkpt><trkpt lat="39.3775255" lon="8.3954116"><ele>116.0</ele><time>2026-05-01T10:17:33.232Z</time></trkpt><trkpt lat="39.3773392" lon="8.3953731"><ele>115.33333333333333</ele><time>2026-05-01T10:17:34.232Z</time></trkpt><trkpt lat="39.377149" lon="8.3953281"><ele>114.66666666666666</ele><time>2026-05-01T10:17:35.231Z</time></trkpt><trkpt lat="39.3769692" lon="8.3952662"><ele>114.0</ele><time>2026-05-01T10:17:36.232Z</time></trkpt><trkpt lat="39.3767864" lon="8.3951751"><ele>114.0</ele><time>2026-05-01T10:17:37.231Z</time></trkpt><trkpt lat="39.3766104" lon="8.3950537"><ele>114.0</ele><time>2026-05-01T10:17:38.231Z</time></trkpt><trkpt lat="39.3764381" lon="8.3949113"><ele>114.0</ele><time>2026-05-01T10:17:39.231Z</time></trkpt><trkpt lat="39.3762732" lon="8.3947555"><ele>113.0</ele><time>2026-05-01T10:17:40.231Z</time></trkpt><trkpt lat="39.3760997" lon="8.3946014"><ele>112.0</ele><time>2026-05-01T10:17:41.232Z</time></trkpt><trkpt lat="39.3759338" lon="8.3944526"><ele>111.0</ele><time>2026-05-01T10:17:42.231Z</time></trkpt><trkpt lat="39.3757681" lon="8.3943017"><ele>111.0</ele><time>2026-05-01T10:17:43.231Z</time></trkpt><trkpt lat="39.3756073" lon="8.3941528"><ele>111.0</ele><time>2026-05-01T10:17:44.232Z</time></trkpt><trkpt lat="39.3754454" lon="8.3940056"><ele>111.0</ele><time>2026-05-01T10:17:45.232Z</time></trkpt><trkpt lat="39.3752903" lon="8.3938677"><ele>110.66666666666666</ele><time>2026-05-01T10:17:46.232Z</time></trkpt><trkpt lat="39.3751257" lon="8.3937319"><ele>110.33333333333333</ele><time>2026-05-01T10:17:47.232Z</time></trkpt><trkpt lat="39.3749511" lon="8.3935972"><ele>110.0</ele><time>2026-05-01T10:17:48.231Z</time></trkpt><trkpt lat="39.3747799" lon="8.3934798"><ele>108.66666666666666</ele><time>2026-05-01T10:17:49.231Z</time></trkpt><trkpt lat="39.3746076" lon="8.3933746"><ele>107.33333333333334</ele><time>2026-05-01T10:17:50.231Z</time></trkpt><trkpt lat="39.374446" lon="8.3932966"><ele>106.0</ele><time>2026-05-01T10:17:51.232Z</time></trkpt><trkpt lat="39.3742832" lon="8.3932552"><ele>106.0</ele><time>2026-05-01T10:17:52.231Z</time></trkpt><trkpt lat="39.374129" lon="8.3932672"><ele>106.0</ele><time>2026-05-01T10:17:53.232Z</time></trkpt><trkpt lat="39.3739835" lon="8.3933366"><ele>106.0</ele><time>2026-05-01T10:17:54.232Z</time></trkpt><trkpt lat="39.3738448" lon="8.3934505"><ele>102.0</ele><time>2026-05-01T10:17:55.231Z</time></trkpt><trkpt lat="39.3737242" lon="8.3935937"><ele>98.0</ele><time>2026-05-01T10:17:56.231Z</time></trkpt><trkpt lat="39.3736019" lon="8.3937516"><ele>94.0</ele><time>2026-05-01T10:17:57.231Z</time></trkpt><trkpt lat="39.3734784" lon="8.39391"><ele>93.66666666666666</ele><time>2026-05-01T10:17:58.231Z</time></trkpt><trkpt lat="39.373363" lon="8.3940823"><ele>93.33333333333333</ele><time>2026-05-01T10:17:59.232Z</time></trkpt><trkpt lat="39.3732537" lon="8.3942797"><ele>93.0</ele><time>2026-05-01T10:18:00.231Z</time></trkpt><trkpt lat="39.3731456" lon="8.3944887"><ele>96.33333333333334</ele><time>2026-05-01T10:18:01.232Z</time></trkpt><trkpt lat="39.3730447" lon="8.3947027"><ele>99.66666666666667</ele><time>2026-05-01T10:18:02.232Z</time></trkpt><trkpt lat="39.3729456" lon="8.3949141"><ele>103.0</ele><time>2026-05-01T10:18:03.231Z</time></trkpt><trkpt lat="39.3728501" lon="8.3951161"><ele>99.0</ele><time>2026-05-01T10:18:04.231Z</time></trkpt><trkpt lat="39.37276" lon="8.3953136"><ele>95.0</ele><time>2026-05-01T10:18:05.232Z</time></trkpt><trkpt lat="39.3726809" lon="8.3954975"><ele>91.0</ele><time>2026-05-01T10:18:06.231Z</time></trkpt><trkpt lat="39.3726174" lon="8.3956776"><ele>91.0</ele><time>2026-05-01T10:18:07.231Z</time></trkpt><trkpt lat="39.3725598" lon="8.3958471"><ele>91.0</ele><time>2026-05-01T10:18:08.232Z</time></trkpt><trkpt lat="39.3725118" lon="8.3960071"><ele>91.0</ele><time>2026-05-01T10:18:09.232Z</time></trkpt><trkpt lat="39.3724749" lon="8.3961529"><ele>91.0</ele><time>2026-05-01T10:18:10.232Z</time></trkpt><trkpt lat="39.3724357" lon="8.3962724"><ele>91.0</ele><time>2026-05-01T10:18:11.231Z</time></trkpt><trkpt lat="39.3723867" lon="8.3963581"><ele>91.0</ele><time>2026-05-01T10:18:12.231Z</time></trkpt><trkpt lat="39.3723206" lon="8.396401"><ele>91.0</ele><time>2026-05-01T10:18:13.231Z</time></trkpt><trkpt lat="39.3722504" lon="8.3964012"><ele>91.0</ele><time>2026-05-01T10:18:14.232Z</time></trkpt><trkpt lat="39.3721932" lon="8.3963469"><ele>91.0</ele><time>2026-05-01T10:18:15.232Z</time></trkpt><trkpt lat="39.3721707" lon="8.396263"><ele>91.0</ele><time>2026-05-01T10:18:16.231Z</time></trkpt><trkpt lat="39.3721894" lon="8.3961667"><ele>91.0</ele><time>2026-05-01T10:18:17.231Z</time></trkpt><trkpt lat="39.372224" lon="8.3960577"><ele>91.0</ele><time>2026-05-01T10:18:18.231Z</time></trkpt><trkpt lat="39.3722544" lon="8.395914"><ele>91.0</ele><time>2026-05-01T10:18:19.231Z</time></trkpt><trkpt lat="39.3722824" lon="8.3957336"><ele>91.0</ele><time>2026-05-01T10:18:20.231Z</time></trkpt><trkpt lat="39.3722939" lon="8.3954672"><ele>87.33333333333333</ele><time>2026-05-01T10:18:21.232Z</time></trkpt><trkpt lat="39.3723129" lon="8.3952364"><ele>83.66666666666667</ele><time>2026-05-01T10:18:22.232Z</time></trkpt><trkpt lat="39.3723273" lon="8.3950116"><ele>80.0</ele><time>2026-05-01T10:18:23.232Z</time></trkpt><trkpt lat="39.3723371" lon="8.3947923"><ele>77.25</ele><time>2026-05-01T10:18:24.231Z</time></trkpt><trkpt lat="39.3723435" lon="8.3945921"><ele>74.5</ele><time>2026-05-01T10:18:25.231Z</time></trkpt><trkpt lat="39.3723465" lon="8.3944126"><ele>71.75</ele><time>2026-05-01T10:18:26.232Z</time></trkpt><trkpt lat="39.3723344" lon="8.3942505"><ele>69.0</ele><time>2026-05-01T10:18:27.231Z</time></trkpt><trkpt lat="39.3723026" lon="8.3941119"><ele>69.0</ele><time>2026-05-01T10:18:28.232Z</time></trkpt><trkpt lat="39.3722377" lon="8.3940042"><ele>69.0</ele><time>2026-05-01T10:18:29.232Z</time></trkpt><trkpt lat="39.3721209" lon="8.3939398"><ele>69.0</ele><time>2026-05-01T10:18:30.231Z</time></trkpt><trkpt lat="39.3719592" lon="8.3939167"><ele>69.0</ele><time>2026-05-01T10:18:31.232Z</time></trkpt><trkpt lat="39.3718106" lon="8.3938738"><ele>64.66666666666667</ele><time>2026-05-01T10:18:32.231Z</time></trkpt><trkpt lat="39.3716536" lon="8.3938212"><ele>60.333333333333336</ele><time>2026-05-01T10:18:33.232Z</time></trkpt><trkpt lat="39.3715049" lon="8.3937851"><ele>56.0</ele><time>2026-05-01T10:18:34.232Z</time></trkpt><trkpt lat="39.3713606" lon="8.393764"><ele>54.5</ele><time>2026-05-01T10:18:35.232Z</time></trkpt><trkpt lat="39.3712312" lon="8.393717"><ele>53.0</ele><time>2026-05-01T10:18:36.231Z</time></trkpt><trkpt lat="39.3711159" lon="8.3936257"><ele>51.5</ele><time>2026-05-01T10:18:37.232Z</time></trkpt><trkpt lat="39.3710095" lon="8.3935071"><ele>50.0</ele><time>2026-05-01T10:18:38.231Z</time></trkpt><trkpt lat="39.370898" lon="8.3933769"><ele>50.0</ele><time>2026-05-01T10:18:39.232Z</time></trkpt><trkpt lat="39.3707845" lon="8.3932702"><ele>50.0</ele><time>2026-05-01T10:18:40.232Z</time></trkpt><trkpt lat="39.3706766" lon="8.3931719"><ele>50.0</ele><time>2026-05-01T10:18:41.232Z</time></trkpt><trkpt lat="39.3705777" lon="8.3931086"><ele>50.0</ele><time>2026-05-01T10:18:42.231Z</time></trkpt><trkpt lat="39.3704802" lon="8.3930925"><ele>47.0</ele><time>2026-05-01T10:18:43.231Z</time></trkpt><trkpt lat="39.3703907" lon="8.393139"><ele>44.0</ele><time>2026-05-01T10:18:44.232Z</time></trkpt><trkpt lat="39.370317" lon="8.3932288"><ele>41.0</ele><time>2026-05-01T10:18:45.231Z</time></trkpt><trkpt lat="39.3702649" lon="8.3933393"><ele>38.0</ele><time>2026-05-01T10:18:46.232Z</time></trkpt><trkpt lat="39.3702497" lon="8.3935002"><ele>35.0</ele><time>2026-05-01T10:18:47.231Z</time></trkpt><trkpt lat="39.3702153" lon="8.3936506"><ele>35.0</ele><time>2026-05-01T10:18:48.231Z</time></trkpt><trkpt lat="39.3701561" lon="8.3938338"><ele>35.0</ele><time>2026-05-01T10:18:49.231Z</time></trkpt><trkpt lat="39.3700834" lon="8.393996"><ele>35.0</ele><time>2026-05-01T10:18:50.232Z</time></trkpt><trkpt lat="39.369996" lon="8.3941518"><ele>35.0</ele><time>2026-05-01T10:18:51.232Z</time></trkpt><trkpt lat="39.3698987" lon="8.3942972"><ele>34.25</ele><time>2026-05-01T10:18:52.232Z</time></trkpt><trkpt lat="39.3697831" lon="8.3944209"><ele>33.5</ele><time>2026-05-01T10:18:53.232Z</time></trkpt><trkpt lat="39.3696589" lon="8.3945162"><ele>32.75</ele><time>2026-05-01T10:18:54.232Z</time></trkpt><trkpt lat="39.3695288" lon="8.3945835"><ele>32.0</ele><time>2026-05-01T10:18:55.231Z</time></trkpt><trkpt lat="39.3693883" lon="8.394622"><ele>32.0</ele><time>2026-05-01T10:18:56.232Z</time></trkpt><trkpt lat="39.3692423" lon="8.3946159"><ele>32.0</ele><time>2026-05-01T10:18:57.232Z</time></trkpt><trkpt lat="39.3690911" lon="8.3945953"><ele>32.0</ele><time>2026-05-01T10:18:58.232Z</time></trkpt><trkpt lat="39.3689389" lon="8.3945901"><ele>34.666666666666664</ele><time>2026-05-01T10:18:59.232Z</time></trkpt><trkpt lat="39.3687871" lon="8.3946032"><ele>37.333333333333336</ele><time>2026-05-01T10:19:00.231Z</time></trkpt><trkpt lat="39.3686305" lon="8.3946836"><ele>40.0</ele><time>2026-05-01T10:19:01.231Z</time></trkpt><trkpt lat="39.3684853" lon="8.3947765"><ele>40.66666666666667</ele><time>2026-05-01T10:19:02.231Z</time></trkpt><trkpt lat="39.3683452" lon="8.3948866"><ele>41.333333333333336</ele><time>2026-05-01T10:19:03.232Z</time></trkpt><trkpt lat="39.368214" lon="8.3949924"><ele>42.0</ele><time>2026-05-01T10:19:04.232Z</time></trkpt><trkpt lat="39.3680875" lon="8.3951248"><ele>41.0</ele><time>2026-05-01T10:19:05.232Z</time></trkpt><trkpt lat="39.3679693" lon="8.3952745"><ele>40.0</ele><time>2026-05-01T10:19:06.232Z</time></trkpt><trkpt lat="39.3678612" lon="8.3954545"><ele>39.0</ele><time>2026-05-01T10:19:07.231Z</time></trkpt><trkpt lat="39.3677644" lon="8.3956557"><ele>39.0</ele><time>2026-05-01T10:19:08.232Z</time></trkpt><trkpt lat="39.3676807" lon="8.3958792"><ele>39.0</ele><time>2026-05-01T10:19:09.231Z</time></trkpt><trkpt lat="39.367612" lon="8.3961128"><ele>39.0</ele><time>2026-05-01T10:19:10.231Z</time></trkpt><trkpt lat="39.3675505" lon="8.3963515"><ele>42.33333333333333</ele><time>2026-05-01T10:19:11.231Z</time></trkpt><trkpt lat="39.3674963" lon="8.3965727"><ele>45.666666666666664</ele><time>2026-05-01T10:19:12.232Z</time></trkpt><trkpt lat="39.3674467" lon="8.3967775"><ele>49.0</ele><time>2026-05-01T10:19:13.231Z</time></trkpt><trkpt lat="39.3673971" lon="8.3969701"><ele>49.0</ele><time>2026-05-01T10:19:14.231Z</time></trkpt><trkpt lat="39.3673492" lon="8.3971598"><ele>49.0</ele><time>2026-05-01T10:19:15.232Z</time></trkpt><trkpt lat="39.3673028" lon="8.3973529"><ele>49.0</ele><time>2026-05-01T10:19:16.231Z</time></trkpt><trkpt lat="39.3672552" lon="8.3975512"><ele>52.0</ele><time>2026-05-01T10:19:17.232Z</time></trkpt><trkpt lat="39.3672024" lon="8.397752"><ele>55.0</ele><time>2026-05-01T10:19:18.232Z</time></trkpt><trkpt lat="39.3671525" lon="8.3979617"><ele>58.0</ele><time>2026-05-01T10:19:19.232Z</time></trkpt><trkpt lat="39.3670966" lon="8.3981732"><ele>52.0</ele><time>2026-05-01T10:19:20.232Z</time></trkpt><trkpt lat="39.3670401" lon="8.3983905"><ele>46.0</ele><time>2026-05-01T10:19:21.232Z</time></trkpt><trkpt lat="39.3669859" lon="8.3986093"><ele>40.0</ele><time>2026-05-01T10:19:22.232Z</time></trkpt><trkpt lat="39.3669283" lon="8.3988301"><ele>42.0</ele><time>2026-05-01T10:19:23.232Z</time></trkpt><trkpt lat="39.3668681" lon="8.3990336"><ele>44.0</ele><time>2026-05-01T10:19:24.232Z</time></trkpt><trkpt lat="39.3667938" lon="8.399224"><ele>46.0</ele><time>2026-05-01T10:19:25.232Z</time></trkpt><trkpt lat="39.3667017" lon="8.3993726"><ele>46.0</ele><time>2026-05-01T10:19:26.231Z</time></trkpt><trkpt lat="39.3665949" lon="8.399487"><ele>46.0</ele><time>2026-05-01T10:19:27.232Z</time></trkpt><trkpt lat="39.3664748" lon="8.3995738"><ele>46.0</ele><time>2026-05-01T10:19:28.231Z</time></trkpt><trkpt lat="39.3663253" lon="8.3996455"><ele>46.0</ele><time>2026-05-01T10:19:29.232Z</time></trkpt><trkpt lat="39.3661625" lon="8.3997121"><ele>47.333333333333336</ele><time>2026-05-01T10:19:30.232Z</time></trkpt><trkpt lat="39.3659811" lon="8.3997738"><ele>48.66666666666667</ele><time>2026-05-01T10:19:31.232Z</time></trkpt><trkpt lat="39.3658004" lon="8.3998377"><ele>50.0</ele><time>2026-05-01T10:19:32.232Z</time></trkpt><trkpt lat="39.365624" lon="8.3998965"><ele>51.66666666666667</ele><time>2026-05-01T10:19:33.231Z</time></trkpt><trkpt lat="39.3654592" lon="8.3999399"><ele>53.33333333333333</ele><time>2026-05-01T10:19:34.232Z</time></trkpt><trkpt lat="39.3653019" lon="8.3999813"><ele>55.0</ele><time>2026-05-01T10:19:35.232Z</time></trkpt><trkpt lat="39.3651608" lon="8.4000315"><ele>55.0</ele><time>2026-05-01T10:19:36.231Z</time></trkpt><trkpt lat="39.365053" lon="8.4001205"><ele>55.0</ele><time>2026-05-01T10:19:37.231Z</time></trkpt><trkpt lat="39.364964" lon="8.400246"><ele>55.0</ele><time>2026-05-01T10:19:38.231Z</time></trkpt><trkpt lat="39.3649113" lon="8.4004011"><ele>55.0</ele><time>2026-05-01T10:19:39.231Z</time></trkpt><trkpt lat="39.364895" lon="8.400572"><ele>57.25</ele><time>2026-05-01T10:19:40.232Z</time></trkpt><trkpt lat="39.3648846" lon="8.4007535"><ele>59.5</ele><time>2026-05-01T10:19:41.232Z</time></trkpt><trkpt lat="39.3648484" lon="8.4009288"><ele>61.75</ele><time>2026-05-01T10:19:42.231Z</time></trkpt><trkpt lat="39.3647797" lon="8.4010858"><ele>64.0</ele><time>2026-05-01T10:19:43.232Z</time></trkpt><trkpt lat="39.3646844" lon="8.4012199"><ele>66.0</ele><time>2026-05-01T10:19:44.231Z</time></trkpt><trkpt lat="39.3645716" lon="8.4012938"><ele>68.0</ele><time>2026-05-01T10:19:45.232Z</time></trkpt><trkpt lat="39.3644629" lon="8.4013118"><ele>70.0</ele><time>2026-05-01T10:19:46.232Z</time></trkpt><trkpt lat="39.3643454" lon="8.4012738"><ele>72.0</ele><time>2026-05-01T10:19:47.232Z</time></trkpt><trkpt lat="39.3642276" lon="8.4012323"><ele>72.0</ele><time>2026-05-01T10:19:48.232Z</time></trkpt><trkpt lat="39.3641133" lon="8.4012217"><ele>72.0</ele><time>2026-05-01T10:19:49.232Z</time></trkpt><trkpt lat="39.3640052" lon="8.4012706"><ele>72.0</ele><time>2026-05-01T10:19:50.232Z</time></trkpt><trkpt lat="39.3639212" lon="8.4013554"><ele>72.0</ele><time>2026-05-01T10:19:51.232Z</time></trkpt><trkpt lat="39.3638671" lon="8.4014883"><ele>76.0</ele><time>2026-05-01T10:19:52.232Z</time></trkpt><trkpt lat="39.3638488" lon="8.4016467"><ele>80.0</ele><time>2026-05-01T10:19:53.231Z</time></trkpt><trkpt lat="39.3638397" lon="8.4018145"><ele>84.0</ele><time>2026-05-01T10:19:54.232Z</time></trkpt><trkpt lat="39.363806" lon="8.4019815"><ele>88.0</ele><time>2026-05-01T10:19:55.232Z</time></trkpt><trkpt lat="39.3637355" lon="8.4021325"><ele>86.25</ele><time>2026-05-01T10:19:56.231Z</time></trkpt><trkpt lat="39.3636282" lon="8.4022483"><ele>84.5</ele><time>2026-05-01T10:19:57.232Z</time></trkpt><trkpt lat="39.3634985" lon="8.4023321"><ele>82.75</ele><time>2026-05-01T10:19:58.232Z</time></trkpt><trkpt lat="39.3633587" lon="8.4023975"><ele>81.0</ele><time>2026-05-01T10:19:59.232Z</time></trkpt><trkpt lat="39.3632498" lon="8.4024922"><ele>81.0</ele><time>2026-05-01T10:20:00.232Z</time></trkpt><trkpt lat="39.3631609" lon="8.4026183"><ele>81.0</ele><time>2026-05-01T10:20:01.231Z</time></trkpt><trkpt lat="39.3631025" lon="8.4027772"><ele>81.0</ele><time>2026-05-01T10:20:02.232Z</time></trkpt><trkpt lat="39.3630578" lon="8.4029583"><ele>81.0</ele><time>2026-05-01T10:20:03.232Z</time></trkpt><trkpt lat="39.3629984" lon="8.4031233"><ele>82.33333333333333</ele><time>2026-05-01T10:20:04.232Z</time></trkpt><trkpt lat="39.3629148" lon="8.4032683"><ele>83.66666666666666</ele><time>2026-05-01T10:20:05.232Z</time></trkpt><trkpt lat="39.3627964" lon="8.4033874"><ele>85.0</ele><time>2026-05-01T10:20:06.232Z</time></trkpt><trkpt lat="39.3626629" lon="8.403509"><ele>85.0</ele><time>2026-05-01T10:20:07.231Z</time></trkpt><trkpt lat="39.3625174" lon="8.4036424"><ele>85.0</ele><time>2026-05-01T10:20:08.232Z</time></trkpt><trkpt lat="39.3623538" lon="8.4037786"><ele>85.0</ele><time>2026-05-01T10:20:09.232Z</time></trkpt><trkpt lat="39.3621881" lon="8.4039255"><ele>87.33333333333333</ele><time>2026-05-01T10:20:10.232Z</time></trkpt><trkpt lat="39.3620249" lon="8.4040696"><ele>89.66666666666667</ele><time>2026-05-01T10:20:11.231Z</time></trkpt><trkpt lat="39.3618631" lon="8.4042017"><ele>92.0</ele><time>2026-05-01T10:20:12.232Z</time></trkpt><trkpt lat="39.3617005" lon="8.4043355"><ele>92.0</ele><time>2026-05-01T10:20:13.232Z</time></trkpt><trkpt lat="39.3615444" lon="8.4044629"><ele>92.0</ele><time>2026-05-01T10:20:14.232Z</time></trkpt><trkpt lat="39.3613955" lon="8.4045745"><ele>92.0</ele><time>2026-05-01T10:20:15.231Z</time></trkpt><trkpt lat="39.3612545" lon="8.4046802"><ele>92.0</ele><time>2026-05-01T10:20:16.232Z</time></trkpt><trkpt lat="39.3611256" lon="8.4047785"><ele>92.0</ele><time>2026-05-01T10:20:17.232Z</time></trkpt><trkpt lat="39.3610033" lon="8.4048689"><ele>92.0</ele><time>2026-05-01T10:20:18.232Z</time></trkpt><trkpt lat="39.3608925" lon="8.4049708"><ele>92.0</ele><time>2026-05-01T10:20:19.231Z</time></trkpt><trkpt lat="39.3608138" lon="8.405104"><ele>92.0</ele><time>2026-05-01T10:20:20.232Z</time></trkpt><trkpt lat="39.3607563" lon="8.405256"><ele>92.0</ele><time>2026-05-01T10:20:21.232Z</time></trkpt><trkpt lat="39.3607087" lon="8.4054324"><ele>92.0</ele><time>2026-05-01T10:20:22.232Z</time></trkpt><trkpt lat="39.3606547" lon="8.4056172"><ele>92.0</ele><time>2026-05-01T10:20:23.231Z</time></trkpt><trkpt lat="39.3605917" lon="8.4058085"><ele>96.0</ele><time>2026-05-01T10:20:24.232Z</time></trkpt><trkpt lat="39.360513" lon="8.4060079"><ele>100.0</ele><time>2026-05-01T10:20:25.232Z</time></trkpt><trkpt lat="39.3604235" lon="8.406222"><ele>104.0</ele><time>2026-05-01T10:20:26.231Z</time></trkpt><trkpt lat="39.3603281" lon="8.4064198"><ele>104.0</ele><time>2026-05-01T10:20:27.231Z</time></trkpt><trkpt lat="39.3602365" lon="8.4066043"><ele>104.0</ele><time>2026-05-01T10:20:28.231Z</time></trkpt><trkpt lat="39.3601478" lon="8.4067674"><ele>104.0</ele><time>2026-05-01T10:20:29.231Z</time></trkpt><trkpt lat="39.3600618" lon="8.40692"><ele>104.0</ele><time>2026-05-01T10:20:30.231Z</time></trkpt><trkpt lat="39.3599866" lon="8.4070698"><ele>104.0</ele><time>2026-05-01T10:20:31.231Z</time></trkpt><trkpt lat="39.3599279" lon="8.4072264"><ele>104.0</ele><time>2026-05-01T10:20:32.232Z</time></trkpt><trkpt lat="39.3598941" lon="8.4073994"><ele>104.0</ele><time>2026-05-01T10:20:33.231Z</time></trkpt><trkpt lat="39.3598848" lon="8.4075815"><ele>105.33333333333333</ele><time>2026-05-01T10:20:34.232Z</time></trkpt><trkpt lat="39.3598839" lon="8.407781"><ele>106.66666666666666</ele><time>2026-05-01T10:20:35.231Z</time></trkpt><trkpt lat="39.3598775" lon="8.4079872"><ele>108.0</ele><time>2026-05-01T10:20:36.231Z</time></trkpt><trkpt lat="39.3598473" lon="8.4081954"><ele>109.66666666666666</ele><time>2026-05-01T10:20:37.231Z</time></trkpt><trkpt lat="39.3597884" lon="8.4083934"><ele>111.33333333333333</ele><time>2026-05-01T10:20:38.231Z</time></trkpt><trkpt lat="39.3597236" lon="8.408596"><ele>113.0</ele><time>2026-05-01T10:20:39.231Z</time></trkpt><trkpt lat="39.3596309" lon="8.4088204"><ele>114.33333333333333</ele><time>2026-05-01T10:20:40.231Z</time></trkpt><trkpt lat="39.3595575" lon="8.4090223"><ele>115.66666666666666</ele><time>2026-05-01T10:20:41.231Z</time></trkpt><trkpt lat="39.3594963" lon="8.409218"><ele>117.0</ele><time>2026-05-01T10:20:42.231Z</time></trkpt><trkpt lat="39.3594517" lon="8.4094179"><ele>117.0</ele><time>2026-05-01T10:20:43.232Z</time></trkpt><trkpt lat="39.3594216" lon="8.4096214"><ele>117.0</ele><time>2026-05-01T10:20:44.231Z</time></trkpt><trkpt lat="39.3594531" lon="8.4098408"><ele>117.0</ele><time>2026-05-01T10:20:45.231Z</time></trkpt><trkpt lat="39.3594904" lon="8.4100656"><ele>119.33333333333334</ele><time>2026-05-01T10:20:46.232Z</time></trkpt><trkpt lat="39.359547" lon="8.4103165"><ele>121.66666666666667</ele><time>2026-05-01T10:20:47.232Z</time></trkpt><trkpt lat="39.3596055" lon="8.4105723"><ele>124.0</ele><time>2026-05-01T10:20:48.232Z</time></trkpt><trkpt lat="39.3596496" lon="8.4108424"><ele>127.0</ele><time>2026-05-01T10:20:49.232Z</time></trkpt><trkpt lat="39.3596844" lon="8.4111202"><ele>130.0</ele><time>2026-05-01T10:20:50.232Z</time></trkpt><trkpt lat="39.3597078" lon="8.4114169"><ele>133.0</ele><time>2026-05-01T10:20:51.231Z</time></trkpt><trkpt lat="39.3597185" lon="8.4117153"><ele>135.33333333333334</ele><time>2026-05-01T10:20:52.231Z</time></trkpt><trkpt lat="39.3597267" lon="8.4120023"><ele>137.66666666666666</ele><time>2026-05-01T10:20:53.232Z</time></trkpt><trkpt lat="39.3597339" lon="8.4122636"><ele>140.0</ele><time>2026-05-01T10:20:54.231Z</time></trkpt><trkpt lat="39.3597449" lon="8.4125059"><ele>140.0</ele><time>2026-05-01T10:20:55.232Z</time></trkpt><trkpt lat="39.3597641" lon="8.4127424"><ele>140.0</ele><time>2026-05-01T10:20:56.232Z</time></trkpt><trkpt lat="39.3598029" lon="8.4129679"><ele>140.0</ele><time>2026-05-01T10:20:57.232Z</time></trkpt><trkpt lat="39.3598594" lon="8.4131824"><ele>140.33333333333331</ele><time>2026-05-01T10:20:58.232Z</time></trkpt><trkpt lat="39.3599333" lon="8.4134002"><ele>140.66666666666666</ele><time>2026-05-01T10:20:59.231Z</time></trkpt><trkpt lat="39.3600088" lon="8.4136207"><ele>141.0</ele><time>2026-05-01T10:21:00.232Z</time></trkpt><trkpt lat="39.36008" lon="8.4138452"><ele>141.0</ele><time>2026-05-01T10:21:01.231Z</time></trkpt><trkpt lat="39.3601494" lon="8.4140796"><ele>141.0</ele><time>2026-05-01T10:21:02.232Z</time></trkpt><trkpt lat="39.3602142" lon="8.4143113"><ele>141.0</ele><time>2026-05-01T10:21:03.232Z</time></trkpt><trkpt lat="39.360277" lon="8.4145477"><ele>143.0</ele><time>2026-05-01T10:21:04.231Z</time></trkpt><trkpt lat="39.3603577" lon="8.4147711"><ele>145.0</ele><time>2026-05-01T10:21:05.232Z</time></trkpt><trkpt lat="39.3604592" lon="8.4149832"><ele>147.0</ele><time>2026-05-01T10:21:06.231Z</time></trkpt><trkpt lat="39.3605676" lon="8.4151872"><ele>147.66666666666666</ele><time>2026-05-01T10:21:07.232Z</time></trkpt><trkpt lat="39.3607031" lon="8.415381"><ele>148.33333333333331</ele><time>2026-05-01T10:21:08.232Z</time></trkpt><trkpt lat="39.3608349" lon="8.4155722"><ele>149.0</ele><time>2026-05-01T10:21:09.232Z</time></trkpt><trkpt lat="39.3609611" lon="8.4157598"><ele>149.0</ele><time>2026-05-01T10:21:10.231Z</time></trkpt><trkpt lat="39.3610811" lon="8.4159434"><ele>149.0</ele><time>2026-05-01T10:21:11.231Z</time></trkpt><trkpt lat="39.3611895" lon="8.4161233"><ele>149.0</ele><time>2026-05-01T10:21:12.231Z</time></trkpt><trkpt lat="39.3612847" lon="8.4162913"><ele>151.66666666666666</ele><time>2026-05-01T10:21:13.232Z</time></trkpt><trkpt lat="39.3613826" lon="8.4164532"><ele>154.33333333333334</ele><time>2026-05-01T10:21:14.231Z</time></trkpt><trkpt lat="39.3614802" lon="8.4166058"><ele>157.0</ele><time>2026-05-01T10:21:15.231Z</time></trkpt><trkpt lat="39.3615852" lon="8.4167536"><ele>157.0</ele><time>2026-05-01T10:21:16.231Z</time></trkpt><trkpt lat="39.3617007" lon="8.4168971"><ele>157.0</ele><time>2026-05-01T10:21:17.231Z</time></trkpt><trkpt lat="39.3618157" lon="8.4170396"><ele>157.0</ele><time>2026-05-01T10:21:18.231Z</time></trkpt><trkpt lat="39.361966" lon="8.4171653"><ele>158.66666666666669</ele><time>2026-05-01T10:21:19.231Z</time></trkpt><trkpt lat="39.3621166" lon="8.4173047"><ele>160.33333333333334</ele><time>2026-05-01T10:21:20.232Z</time></trkpt><trkpt lat="39.3622764" lon="8.4174523"><ele>162.0</ele><time>2026-05-01T10:21:21.232Z</time></trkpt><trkpt lat="39.3624427" lon="8.4176073"><ele>163.33333333333334</ele><time>2026-05-01T10:21:22.232Z</time></trkpt><trkpt lat="39.362591" lon="8.4177321"><ele>164.66666666666669</ele><time>2026-05-01T10:21:23.231Z</time></trkpt><trkpt lat="39.3627384" lon="8.4178141"><ele>166.0</ele><time>2026-05-01T10:21:24.232Z</time></trkpt><trkpt lat="39.3628766" lon="8.417877"><ele>166.0</ele><time>2026-05-01T10:21:25.232Z</time></trkpt><trkpt lat="39.3630051" lon="8.4179469"><ele>166.0</ele><time>2026-05-01T10:21:26.232Z</time></trkpt><trkpt lat="39.3631128" lon="8.4180741"><ele>166.0</ele><time>2026-05-01T10:21:27.231Z</time></trkpt><trkpt lat="39.3632104" lon="8.4182354"><ele>166.0</ele><time>2026-05-01T10:21:28.231Z</time></trkpt><trkpt lat="39.3633267" lon="8.4184219"><ele>166.33333333333334</ele><time>2026-05-01T10:21:29.231Z</time></trkpt><trkpt lat="39.3634738" lon="8.4186064"><ele>166.66666666666666</ele><time>2026-05-01T10:21:30.232Z</time></trkpt><trkpt lat="39.3636342" lon="8.4187649"><ele>167.0</ele><time>2026-05-01T10:21:31.232Z</time></trkpt><trkpt lat="39.3637866" lon="8.4188888"><ele>169.75</ele><time>2026-05-01T10:21:32.232Z</time></trkpt><trkpt lat="39.3639121" lon="8.4190108"><ele>172.5</ele><time>2026-05-01T10:21:33.232Z</time></trkpt><trkpt lat="39.3640063" lon="8.4191559"><ele>175.25</ele><time>2026-05-01T10:21:34.232Z</time></trkpt><trkpt lat="39.364066" lon="8.4193232"><ele>178.0</ele><time>2026-05-01T10:21:35.232Z</time></trkpt><trkpt lat="39.3640856" lon="8.419486"><ele>178.5</ele><time>2026-05-01T10:21:36.232Z</time></trkpt><trkpt lat="39.3640654" lon="8.4196521"><ele>179.0</ele><time>2026-05-01T10:21:37.231Z</time></trkpt><trkpt lat="39.3640147" lon="8.4198288"><ele>179.5</ele><time>2026-05-01T10:21:38.231Z</time></trkpt><trkpt lat="39.3639562" lon="8.4200251"><ele>180.0</ele><time>2026-05-01T10:21:39.231Z</time></trkpt><trkpt lat="39.36392" lon="8.4201977"><ele>180.0</ele><time>2026-05-01T10:21:40.232Z</time></trkpt><trkpt lat="39.3639135" lon="8.4203829"><ele>180.0</ele><time>2026-05-01T10:21:41.231Z</time></trkpt><trkpt lat="39.3639537" lon="8.4205707"><ele>180.0</ele><time>2026-05-01T10:21:42.231Z</time></trkpt><trkpt lat="39.3640341" lon="8.4207612"><ele>183.66666666666666</ele><time>2026-05-01T10:21:43.231Z</time></trkpt><trkpt lat="39.3641382" lon="8.4209544"><ele>187.33333333333331</ele><time>2026-05-01T10:21:44.232Z</time></trkpt><trkpt lat="39.3642344" lon="8.4211499"><ele>191.0</ele><time>2026-05-01T10:21:45.231Z</time></trkpt><trkpt lat="39.3643111" lon="8.4213292"><ele>192.0</ele><time>2026-05-01T10:21:46.231Z</time></trkpt><trkpt lat="39.3643771" lon="8.4214996"><ele>193.0</ele><time>2026-05-01T10:21:47.232Z</time></trkpt><trkpt lat="39.3644309" lon="8.4216787"><ele>194.0</ele><time>2026-05-01T10:21:48.231Z</time></trkpt><trkpt lat="39.3644772" lon="8.4218853"><ele>194.0</ele><time>2026-05-01T10:21:49.232Z</time></trkpt><trkpt lat="39.3645127" lon="8.4221026"><ele>194.0</ele><time>2026-05-01T10:21:50.231Z</time></trkpt><trkpt lat="39.3645222" lon="8.42233"><ele>194.0</ele><time>2026-05-01T10:21:51.231Z</time></trkpt><trkpt lat="39.364517" lon="8.4225648"><ele>197.0</ele><time>2026-05-01T10:21:52.231Z</time></trkpt><trkpt lat="39.3645257" lon="8.4227849"><ele>200.0</ele><time>2026-05-01T10:21:53.232Z</time></trkpt><trkpt lat="39.3645661" lon="8.4230055"><ele>203.0</ele><time>2026-05-01T10:21:54.231Z</time></trkpt><trkpt lat="39.3646205" lon="8.4232097"><ele>205.75</ele><time>2026-05-01T10:21:55.231Z</time></trkpt><trkpt lat="39.3646497" lon="8.4234008"><ele>208.5</ele><time>2026-05-01T10:21:56.232Z</time></trkpt><trkpt lat="39.36464" lon="8.423583"><ele>211.25</ele><time>2026-05-01T10:21:57.231Z</time></trkpt><trkpt lat="39.3646125" lon="8.4237587"><ele>214.0</ele><time>2026-05-01T10:21:58.231Z</time></trkpt><trkpt lat="39.3646153" lon="8.4239142"><ele>216.5</ele><time>2026-05-01T10:21:59.232Z</time></trkpt><trkpt lat="39.364658" lon="8.4240449"><ele>219.0</ele><time>2026-05-01T10:22:00.232Z</time></trkpt><trkpt lat="39.3647375" lon="8.4241516"><ele>221.5</ele><time>2026-05-01T10:22:01.231Z</time></trkpt><trkpt lat="39.3648313" lon="8.4242673"><ele>224.0</ele><time>2026-05-01T10:22:02.232Z</time></trkpt><trkpt lat="39.364904" lon="8.4244242"><ele>224.0</ele><time>2026-05-01T10:22:03.232Z</time></trkpt><trkpt lat="39.3649476" lon="8.4245979"><ele>224.0</ele><time>2026-05-01T10:22:04.231Z</time></trkpt><trkpt lat="39.3649615" lon="8.4247884"><ele>224.0</ele><time>2026-05-01T10:22:05.232Z</time></trkpt><trkpt lat="39.364963" lon="8.4249685"><ele>224.0</ele><time>2026-05-01T10:22:06.232Z</time></trkpt><trkpt lat="39.3649607" lon="8.425131"><ele>224.5</ele><time>2026-05-01T10:22:07.232Z</time></trkpt><trkpt lat="39.3649639" lon="8.4252934"><ele>225.0</ele><time>2026-05-01T10:22:08.232Z</time></trkpt><trkpt lat="39.3649616" lon="8.4254578"><ele>225.5</ele><time>2026-05-01T10:22:09.232Z</time></trkpt><trkpt lat="39.3649441" lon="8.4256194"><ele>226.0</ele><time>2026-05-01T10:22:10.231Z</time></trkpt><trkpt lat="39.3649032" lon="8.4257761"><ele>226.0</ele><time>2026-05-01T10:22:11.232Z</time></trkpt><trkpt lat="39.3648385" lon="8.4259317"><ele>226.0</ele><time>2026-05-01T10:22:12.232Z</time></trkpt><trkpt lat="39.364757" lon="8.4260873"><ele>226.0</ele><time>2026-05-01T10:22:13.232Z</time></trkpt><trkpt lat="39.3646654" lon="8.4262251"><ele>226.0</ele><time>2026-05-01T10:22:14.232Z</time></trkpt><trkpt lat="39.3645803" lon="8.426345"><ele>226.75</ele><time>2026-05-01T10:22:15.232Z</time></trkpt><trkpt lat="39.3645053" lon="8.4264588"><ele>227.5</ele><time>2026-05-01T10:22:16.231Z</time></trkpt><trkpt lat="39.3644371" lon="8.4265748"><ele>228.25</ele><time>2026-05-01T10:22:17.232Z</time></trkpt><trkpt lat="39.3643759" lon="8.4266964"><ele>229.0</ele><time>2026-05-01T10:22:18.231Z</time></trkpt><trkpt lat="39.3643294" lon="8.4268266"><ele>229.0</ele><time>2026-05-01T10:22:19.231Z</time></trkpt><trkpt lat="39.3643063" lon="8.4269649"><ele>228.99999999999997</ele><time>2026-05-01T10:22:20.231Z</time></trkpt><trkpt lat="39.3643088" lon="8.4271052"><ele>228.99999999999997</ele><time>2026-05-01T10:22:21.231Z</time></trkpt><trkpt lat="39.3643368" lon="8.4272414"><ele>229.0</ele><time>2026-05-01T10:22:22.231Z</time></trkpt><trkpt lat="39.3643774" lon="8.4273699"><ele>229.0</ele><time>2026-05-01T10:22:23.232Z</time></trkpt><trkpt lat="39.3644092" lon="8.4275013"><ele>229.2</ele><time>2026-05-01T10:22:24.231Z</time></trkpt><trkpt lat="39.3644025" lon="8.4276247"><ele>229.39999999999998</ele><time>2026-05-01T10:22:25.231Z</time></trkpt><trkpt lat="39.3643608" lon="8.4277412"><ele>229.6</ele><time>2026-05-01T10:22:26.232Z</time></trkpt><trkpt lat="39.3643006" lon="8.427856"><ele>229.8</ele><time>2026-05-01T10:22:27.231Z</time></trkpt><trkpt lat="39.3642342" lon="8.4279739"><ele>230.0</ele><time>2026-05-01T10:22:28.231Z</time></trkpt><trkpt lat="39.3641771" lon="8.4280916"><ele>230.0</ele><time>2026-05-01T10:22:29.232Z</time></trkpt><trkpt lat="39.364133" lon="8.4282029"><ele>230.0</ele><time>2026-05-01T10:22:30.231Z</time></trkpt><trkpt lat="39.3641108" lon="8.4283291"><ele>230.0</ele><time>2026-05-01T10:22:31.231Z</time></trkpt><trkpt lat="39.3641158" lon="8.4284635"><ele>230.0</ele><time>2026-05-01T10:22:32.232Z</time></trkpt><trkpt lat="39.3641516" lon="8.4285971"><ele>230.0</ele><time>2026-05-01T10:22:33.231Z</time></trkpt><trkpt lat="39.3642016" lon="8.4287266"><ele>231.2</ele><time>2026-05-01T10:22:34.231Z</time></trkpt><trkpt lat="39.36425" lon="8.4288578"><ele>232.4</ele><time>2026-05-01T10:22:35.231Z</time></trkpt><trkpt lat="39.3642777" lon="8.4289875"><ele>233.60000000000002</ele><time>2026-05-01T10:22:36.232Z</time></trkpt><trkpt lat="39.3642816" lon="8.429117"><ele>234.8</ele><time>2026-05-01T10:22:37.232Z</time></trkpt><trkpt lat="39.3642607" lon="8.4292438"><ele>236.0</ele><time>2026-05-01T10:22:38.232Z</time></trkpt><trkpt lat="39.3642176" lon="8.4293584"><ele>236.0</ele><time>2026-05-01T10:22:39.232Z</time></trkpt><trkpt lat="39.3641565" lon="8.4294651"><ele>236.00000000000003</ele><time>2026-05-01T10:22:40.232Z</time></trkpt><trkpt lat="39.3640846" lon="8.4295707"><ele>236.00000000000003</ele><time>2026-05-01T10:22:41.232Z</time></trkpt><trkpt lat="39.3640115" lon="8.4296816"><ele>236.0</ele><time>2026-05-01T10:22:42.232Z</time></trkpt><trkpt lat="39.3639466" lon="8.4297875"><ele>236.0</ele><time>2026-05-01T10:22:43.232Z</time></trkpt><trkpt lat="39.3638889" lon="8.4298938"><ele>239.0</ele><time>2026-05-01T10:22:44.231Z</time></trkpt><trkpt lat="39.3638477" lon="8.4300124"><ele>242.0</ele><time>2026-05-01T10:22:45.231Z</time></trkpt><trkpt lat="39.3638296" lon="8.4301543"><ele>245.0</ele><time>2026-05-01T10:22:46.232Z</time></trkpt><trkpt lat="39.3638369" lon="8.4303223"><ele>248.0</ele><time>2026-05-01T10:22:47.232Z</time></trkpt><trkpt lat="39.3638678" lon="8.4305306"><ele>248.33333333333334</ele><time>2026-05-01T10:22:48.232Z</time></trkpt><trkpt lat="39.3638944" lon="8.4307564"><ele>248.66666666666669</ele><time>2026-05-01T10:22:49.232Z</time></trkpt><trkpt lat="39.3638941" lon="8.4310135"><ele>249.0</ele><time>2026-05-01T10:22:50.231Z</time></trkpt><trkpt lat="39.3638633" lon="8.4312946"><ele>245.66666666666669</ele><time>2026-05-01T10:22:51.231Z</time></trkpt><trkpt lat="39.3637965" lon="8.43157"><ele>242.33333333333334</ele><time>2026-05-01T10:22:52.231Z</time></trkpt><trkpt lat="39.3637109" lon="8.4318244"><ele>239.0</ele><time>2026-05-01T10:22:53.231Z</time></trkpt><trkpt lat="39.3636329" lon="8.4320549"><ele>241.0</ele><time>2026-05-01T10:22:54.232Z</time></trkpt><trkpt lat="39.3635823" lon="8.4322969"><ele>243.0</ele><time>2026-05-01T10:22:55.231Z</time></trkpt><trkpt lat="39.3635599" lon="8.4325624"><ele>245.0</ele><time>2026-05-01T10:22:56.232Z</time></trkpt><trkpt lat="39.3635612" lon="8.4328623"><ele>248.0</ele><time>2026-05-01T10:22:57.232Z</time></trkpt><trkpt lat="39.3635691" lon="8.4332021"><ele>251.0</ele><time>2026-05-01T10:22:58.232Z</time></trkpt><trkpt lat="39.3635635" lon="8.4335715"><ele>252.5</ele><time>2026-05-01T10:22:59.231Z</time></trkpt><trkpt lat="39.3635486" lon="8.4339071"><ele>254.0</ele><time>2026-05-01T10:23:00.232Z</time></trkpt><trkpt lat="39.363527" lon="8.4342189"><ele>254.0</ele><time>2026-05-01T10:23:01.231Z</time></trkpt><trkpt lat="39.3635005" lon="8.4344884"><ele>254.0</ele><time>2026-05-01T10:23:02.232Z</time></trkpt><trkpt lat="39.3634672" lon="8.4347228"><ele>254.0</ele><time>2026-05-01T10:23:03.231Z</time></trkpt><trkpt lat="39.3634402" lon="8.4349416"><ele>255.66666666666669</ele><time>2026-05-01T10:23:04.231Z</time></trkpt><trkpt lat="39.3634433" lon="8.435178"><ele>257.3333333333333</ele><time>2026-05-01T10:23:05.231Z</time></trkpt><trkpt lat="39.3634725" lon="8.4354408"><ele>259.0</ele><time>2026-05-01T10:23:06.232Z</time></trkpt><trkpt lat="39.3635117" lon="8.4357259"><ele>261.0</ele><time>2026-05-01T10:23:07.231Z</time></trkpt><trkpt lat="39.3635506" lon="8.4360102"><ele>263.0</ele><time>2026-05-01T10:23:08.232Z</time></trkpt><trkpt lat="39.3635756" lon="8.4362748"><ele>265.0</ele><time>2026-05-01T10:23:09.232Z</time></trkpt><trkpt lat="39.3635797" lon="8.4365133"><ele>267.0</ele><time>2026-05-01T10:23:10.231Z</time></trkpt><trkpt lat="39.3635615" lon="8.4367544"><ele>269.0</ele><time>2026-05-01T10:23:11.232Z</time></trkpt><trkpt lat="39.3635321" lon="8.4369752"><ele>271.0</ele><time>2026-05-01T10:23:12.231Z</time></trkpt><trkpt lat="39.3635135" lon="8.437175"><ele>271.5</ele><time>2026-05-01T10:23:13.231Z</time></trkpt><trkpt lat="39.3635275" lon="8.4373659"><ele>272.0</ele><time>2026-05-01T10:23:14.231Z</time></trkpt><trkpt lat="39.3635691" lon="8.4375606"><ele>272.5</ele><time>2026-05-01T10:23:15.232Z</time></trkpt><trkpt lat="39.3636136" lon="8.4377297"><ele>273.0</ele><time>2026-05-01T10:23:16.231Z</time></trkpt><trkpt lat="39.3636577" lon="8.4378907"><ele>271.75</ele><time>2026-05-01T10:23:17.231Z</time></trkpt><trkpt lat="39.3636807" lon="8.4380365"><ele>270.5</ele><time>2026-05-01T10:23:18.232Z</time></trkpt><trkpt lat="39.3636788" lon="8.4381856"><ele>269.25</ele><time>2026-05-01T10:23:19.232Z</time></trkpt><trkpt lat="39.3636512" lon="8.4383266"><ele>268.0</ele><time>2026-05-01T10:23:20.232Z</time></trkpt><trkpt lat="39.3635987" lon="8.4384505"><ele>268.0</ele><time>2026-05-01T10:23:21.231Z</time></trkpt><trkpt lat="39.363523" lon="8.4385677"><ele>268.0</ele><time>2026-05-01T10:23:22.232Z</time></trkpt><trkpt lat="39.3634204" lon="8.4386631"><ele>268.0</ele><time>2026-05-01T10:23:23.232Z</time></trkpt><trkpt lat="39.3632925" lon="8.4387198"><ele>268.0</ele><time>2026-05-01T10:23:24.232Z</time></trkpt><trkpt lat="39.3631494" lon="8.4387331"><ele>270.5</ele><time>2026-05-01T10:23:25.232Z</time></trkpt><trkpt lat="39.3630014" lon="8.4387149"><ele>273.0</ele><time>2026-05-01T10:23:26.231Z</time></trkpt><trkpt lat="39.3628619" lon="8.4387077"><ele>275.5</ele><time>2026-05-01T10:23:27.232Z</time></trkpt><trkpt lat="39.3627306" lon="8.4387358"><ele>278.0</ele><time>2026-05-01T10:23:28.231Z</time></trkpt><trkpt lat="39.3626004" lon="8.4388033"><ele>278.0</ele><time>2026-05-01T10:23:29.232Z</time></trkpt><trkpt lat="39.3624835" lon="8.4389286"><ele>278.0</ele><time>2026-05-01T10:23:30.231Z</time></trkpt><trkpt lat="39.3623614" lon="8.439102"><ele>278.0</ele><time>2026-05-01T10:23:31.232Z</time></trkpt><trkpt lat="39.3622274" lon="8.4393104"><ele>281.5</ele><time>2026-05-01T10:23:32.231Z</time></trkpt><trkpt lat="39.3620668" lon="8.4395298"><ele>285.0</ele><time>2026-05-01T10:23:33.231Z</time></trkpt><trkpt lat="39.3618966" lon="8.4397156"><ele>285.0</ele><time>2026-05-01T10:23:34.231Z</time></trkpt><trkpt lat="39.3616997" lon="8.4398923"><ele>285.0</ele><time>2026-05-01T10:23:35.231Z</time></trkpt><trkpt lat="39.3614858" lon="8.4400501"><ele>293.5</ele><time>2026-05-01T10:23:36.232Z</time></trkpt><trkpt lat="39.3612561" lon="8.4401811"><ele>302.0</ele><time>2026-05-01T10:23:37.232Z</time></trkpt><trkpt lat="39.3610102" lon="8.4403053"><ele>302.0</ele><time>2026-05-01T10:23:38.231Z</time></trkpt><trkpt lat="39.3607769" lon="8.4404061"><ele>302.0</ele><time>2026-05-01T10:23:39.231Z</time></trkpt><trkpt lat="39.3605483" lon="8.4404867"><ele>296.0</ele><time>2026-05-01T10:23:40.231Z</time></trkpt><trkpt lat="39.360318" lon="8.4405469"><ele>290.0</ele><time>2026-05-01T10:23:41.232Z</time></trkpt><trkpt lat="39.3600833" lon="8.4405879"><ele>290.0</ele><time>2026-05-01T10:23:42.231Z</time></trkpt><trkpt lat="39.3598467" lon="8.4406055"><ele>290.0</ele><time>2026-05-01T10:23:43.232Z</time></trkpt><trkpt lat="39.3596085" lon="8.440611"><ele>292.0</ele><time>2026-05-01T10:23:44.232Z</time></trkpt><trkpt lat="39.3593711" lon="8.4406106"><ele>294.0</ele><time>2026-05-01T10:23:45.232Z</time></trkpt><trkpt lat="39.3591482" lon="8.4406119"><ele>294.0</ele><time>2026-05-01T10:23:46.232Z</time></trkpt><trkpt lat="39.3589618" lon="8.4406154"><ele>294.0</ele><time>2026-05-01T10:23:47.232Z</time></trkpt><trkpt lat="39.3588024" lon="8.4406076"><ele>294.0</ele><time>2026-05-01T10:23:48.232Z</time></trkpt><trkpt lat="39.3586623" lon="8.4405579"><ele>294.6666666666667</ele><time>2026-05-01T10:23:49.232Z</time></trkpt><trkpt lat="39.3585287" lon="8.4404733"><ele>295.33333333333337</ele><time>2026-05-01T10:23:50.232Z</time></trkpt><trkpt lat="39.3583969" lon="8.4403775"><ele>296.0</ele><time>2026-05-01T10:23:51.232Z</time></trkpt><trkpt lat="39.3582443" lon="8.4403029"><ele>302.0</ele><time>2026-05-01T10:23:52.232Z</time></trkpt><trkpt lat="39.358075" lon="8.4402611"><ele>308.0</ele><time>2026-05-01T10:23:53.231Z</time></trkpt><trkpt lat="39.3578868" lon="8.4402226"><ele>314.0</ele><time>2026-05-01T10:23:54.232Z</time></trkpt><trkpt lat="39.3576911" lon="8.4401867"><ele>314.0</ele><time>2026-05-01T10:23:55.231Z</time></trkpt><trkpt lat="39.3575073" lon="8.4401639"><ele>314.0</ele><time>2026-05-01T10:23:56.232Z</time></trkpt><trkpt lat="39.3573212" lon="8.4401699"><ele>314.0</ele><time>2026-05-01T10:23:57.231Z</time></trkpt><trkpt lat="39.3571357" lon="8.4402015"><ele>312.6666666666667</ele><time>2026-05-01T10:23:58.231Z</time></trkpt><trkpt lat="39.3569487" lon="8.4402513"><ele>311.3333333333333</ele><time>2026-05-01T10:23:59.231Z</time></trkpt><trkpt lat="39.3567626" lon="8.4403166"><ele>310.0</ele><time>2026-05-01T10:24:00.231Z</time></trkpt><trkpt lat="39.3565854" lon="8.4404038"><ele>306.3333333333333</ele><time>2026-05-01T10:24:01.232Z</time></trkpt><trkpt lat="39.3564135" lon="8.4405056"><ele>302.6666666666667</ele><time>2026-05-01T10:24:02.232Z</time></trkpt><trkpt lat="39.3562486" lon="8.4406139"><ele>299.0</ele><time>2026-05-01T10:24:03.231Z</time></trkpt><trkpt lat="39.3560924" lon="8.4407149"><ele>299.0</ele><time>2026-05-01T10:24:04.231Z</time></trkpt><trkpt lat="39.3559341" lon="8.4407951"><ele>299.0</ele><time>2026-05-01T10:24:05.231Z</time></trkpt><trkpt lat="39.355768" lon="8.4408311"><ele>299.0</ele><time>2026-05-01T10:24:06.232Z</time></trkpt><trkpt lat="39.3555887" lon="8.4408264"><ele>301.0</ele><time>2026-05-01T10:24:07.232Z</time></trkpt><trkpt lat="39.3554012" lon="8.4407776"><ele>303.0</ele><time>2026-05-01T10:24:08.231Z</time></trkpt><trkpt lat="39.3552073" lon="8.4406995"><ele>305.0</ele><time>2026-05-01T10:24:09.232Z</time></trkpt><trkpt lat="39.355007" lon="8.4405934"><ele>306.0</ele><time>2026-05-01T10:24:10.231Z</time></trkpt><trkpt lat="39.354805" lon="8.4404659"><ele>307.0</ele><time>2026-05-01T10:24:11.232Z</time></trkpt><trkpt lat="39.3545964" lon="8.4403199"><ele>307.0</ele><time>2026-05-01T10:24:12.232Z</time></trkpt><trkpt lat="39.3543829" lon="8.4401625"><ele>307.0</ele><time>2026-05-01T10:24:13.232Z</time></trkpt><trkpt lat="39.3541666" lon="8.4399989"><ele>307.0</ele><time>2026-05-01T10:24:14.231Z</time></trkpt><trkpt lat="39.3539481" lon="8.4398356"><ele>307.0</ele><time>2026-05-01T10:24:15.232Z</time></trkpt><trkpt lat="39.3537345" lon="8.4396743"><ele>312.5</ele><time>2026-05-01T10:24:16.232Z</time></trkpt><trkpt lat="39.3535202" lon="8.4395158"><ele>318.0</ele><time>2026-05-01T10:24:17.232Z</time></trkpt><trkpt lat="39.3533072" lon="8.4393542"><ele>318.0</ele><time>2026-05-01T10:24:18.232Z</time></trkpt><trkpt lat="39.3530923" lon="8.4391906"><ele>318.0</ele><time>2026-05-01T10:24:19.232Z</time></trkpt><trkpt lat="39.352881" lon="8.439032"><ele>320.0</ele><time>2026-05-01T10:24:20.231Z</time></trkpt><trkpt lat="39.3526796" lon="8.4388911"><ele>322.0</ele><time>2026-05-01T10:24:21.232Z</time></trkpt><trkpt lat="39.3524714" lon="8.4387625"><ele>326.0</ele><time>2026-05-01T10:24:22.231Z</time></trkpt><trkpt lat="39.3522604" lon="8.4386603"><ele>330.0</ele><time>2026-05-01T10:24:23.232Z</time></trkpt><trkpt lat="39.3520569" lon="8.4385892"><ele>334.0</ele><time>2026-05-01T10:24:24.231Z</time></trkpt><trkpt lat="39.3518502" lon="8.4385252"><ele>333.66666666666663</ele><time>2026-05-01T10:24:25.231Z</time></trkpt><trkpt lat="39.3516487" lon="8.438448"><ele>333.3333333333333</ele><time>2026-05-01T10:24:26.232Z</time></trkpt><trkpt lat="39.3514447" lon="8.4383462"><ele>333.0</ele><time>2026-05-01T10:24:27.231Z</time></trkpt><trkpt lat="39.3512362" lon="8.4382362"><ele>333.0</ele><time>2026-05-01T10:24:28.231Z</time></trkpt><trkpt lat="39.3510212" lon="8.4381205"><ele>333.0</ele><time>2026-05-01T10:24:29.232Z</time></trkpt><trkpt lat="39.3507973" lon="8.4379984"><ele>344.0</ele><time>2026-05-01T10:24:30.232Z</time></trkpt><trkpt lat="39.3505672" lon="8.4378764"><ele>355.0</ele><time>2026-05-01T10:24:31.232Z</time></trkpt><trkpt lat="39.3503551" lon="8.4377633"><ele>355.0</ele><time>2026-05-01T10:24:32.232Z</time></trkpt><trkpt lat="39.3501528" lon="8.4376558"><ele>355.0</ele><time>2026-05-01T10:24:33.232Z</time></trkpt><trkpt lat="39.3499694" lon="8.4375598"><ele>355.0</ele><time>2026-05-01T10:24:34.232Z</time></trkpt><trkpt lat="39.3497932" lon="8.437493"><ele>355.66666666666663</ele><time>2026-05-01T10:24:35.232Z</time></trkpt><trkpt lat="39.3496119" lon="8.4374705"><ele>356.3333333333333</ele><time>2026-05-01T10:24:36.231Z</time></trkpt><trkpt lat="39.3494337" lon="8.4374968"><ele>357.0</ele><time>2026-05-01T10:24:37.232Z</time></trkpt><trkpt lat="39.349248" lon="8.4375587"><ele>357.0</ele><time>2026-05-01T10:24:38.232Z</time></trkpt><trkpt lat="39.3490543" lon="8.4376403"><ele>357.0</ele><time>2026-05-01T10:24:39.232Z</time></trkpt><trkpt lat="39.3488497" lon="8.4377275"><ele>357.0</ele><time>2026-05-01T10:24:40.232Z</time></trkpt><trkpt lat="39.3486413" lon="8.4378166"><ele>358.3333333333333</ele><time>2026-05-01T10:24:41.232Z</time></trkpt><trkpt lat="39.3484278" lon="8.4379085"><ele>359.66666666666663</ele><time>2026-05-01T10:24:42.231Z</time></trkpt><trkpt lat="39.3482344" lon="8.437993"><ele>361.0</ele><time>2026-05-01T10:24:43.232Z</time></trkpt><trkpt lat="39.3480575" lon="8.4380716"><ele>368.0</ele><time>2026-05-01T10:24:44.231Z</time></trkpt><trkpt lat="39.3478848" lon="8.4381442"><ele>375.0</ele><time>2026-05-01T10:24:45.231Z</time></trkpt><trkpt lat="39.3477128" lon="8.4382124"><ele>382.0</ele><time>2026-05-01T10:24:46.231Z</time></trkpt><trkpt lat="39.3475358" lon="8.4382832"><ele>382.0</ele><time>2026-05-01T10:24:47.231Z</time></trkpt><trkpt lat="39.3473627" lon="8.4383567"><ele>382.0</ele><time>2026-05-01T10:24:48.231Z</time></trkpt><trkpt lat="39.3472007" lon="8.4384489"><ele>382.0</ele><time>2026-05-01T10:24:49.231Z</time></trkpt><trkpt lat="39.3470502" lon="8.4385577"><ele>389.3333333333333</ele><time>2026-05-01T10:24:50.231Z</time></trkpt><trkpt lat="39.3469009" lon="8.4386503"><ele>396.66666666666663</ele><time>2026-05-01T10:24:51.231Z</time></trkpt><trkpt lat="39.3467503" lon="8.4387178"><ele>404.0</ele><time>2026-05-01T10:24:52.231Z</time></trkpt><trkpt lat="39.3465959" lon="8.4387596"><ele>404.0</ele><time>2026-05-01T10:24:53.232Z</time></trkpt><trkpt lat="39.3464396" lon="8.4387878"><ele>404.0</ele><time>2026-05-01T10:24:54.231Z</time></trkpt><trkpt lat="39.3462796" lon="8.4388113"><ele>404.0</ele><time>2026-05-01T10:24:55.232Z</time></trkpt><trkpt lat="39.3461177" lon="8.4388341"><ele>406.66666666666663</ele><time>2026-05-01T10:24:56.231Z</time></trkpt><trkpt lat="39.345955" lon="8.4388586"><ele>409.33333333333337</ele><time>2026-05-01T10:24:57.231Z</time></trkpt><trkpt lat="39.3457895" lon="8.4388823"><ele>412.0</ele><time>2026-05-01T10:24:58.231Z</time></trkpt><trkpt lat="39.3456204" lon="8.4389031"><ele>415.33333333333337</ele><time>2026-05-01T10:24:59.232Z</time></trkpt><trkpt lat="39.3454489" lon="8.4389278"><ele>418.66666666666663</ele><time>2026-05-01T10:25:00.232Z</time></trkpt><trkpt lat="39.3452814" lon="8.4389536"><ele>422.0</ele><time>2026-05-01T10:25:01.232Z</time></trkpt><trkpt lat="39.3451215" lon="8.4389758"><ele>422.0</ele><time>2026-05-01T10:25:02.232Z</time></trkpt><trkpt lat="39.3449753" lon="8.4389898"><ele>422.0</ele><time>2026-05-01T10:25:03.232Z</time></trkpt><trkpt lat="39.3448318" lon="8.4389946"><ele>422.0</ele><time>2026-05-01T10:25:04.232Z</time></trkpt><trkpt lat="39.3446937" lon="8.4389928"><ele>422.0</ele><time>2026-05-01T10:25:05.232Z</time></trkpt><trkpt lat="39.3445584" lon="8.4389935"><ele>424.25</ele><time>2026-05-01T10:25:06.231Z</time></trkpt><trkpt lat="39.3444242" lon="8.4390071"><ele>426.5</ele><time>2026-05-01T10:25:07.232Z</time></trkpt><trkpt lat="39.3442898" lon="8.4390265"><ele>428.75</ele><time>2026-05-01T10:25:08.232Z</time></trkpt><trkpt lat="39.3441537" lon="8.4390508"><ele>431.0</ele><time>2026-05-01T10:25:09.231Z</time></trkpt><trkpt lat="39.3440141" lon="8.4390733"><ele>429.25</ele><time>2026-05-01T10:25:10.232Z</time></trkpt><trkpt lat="39.3438774" lon="8.4390884"><ele>427.5</ele><time>2026-05-01T10:25:11.232Z</time></trkpt><trkpt lat="39.3437448" lon="8.4390964"><ele>425.75</ele><time>2026-05-01T10:25:12.231Z</time></trkpt><trkpt lat="39.3436127" lon="8.4390975"><ele>424.0</ele><time>2026-05-01T10:25:13.231Z</time></trkpt><trkpt lat="39.3434828" lon="8.4390978"><ele>424.0</ele><time>2026-05-01T10:25:14.232Z</time></trkpt><trkpt lat="39.3433549" lon="8.4391049"><ele>424.0</ele><time>2026-05-01T10:25:15.231Z</time></trkpt><trkpt lat="39.343224" lon="8.4391256"><ele>424.0</ele><time>2026-05-01T10:25:16.231Z</time></trkpt><trkpt lat="39.3430869" lon="8.4391639"><ele>424.0</ele><time>2026-05-01T10:25:17.231Z</time></trkpt><trkpt lat="39.3429473" lon="8.4392139"><ele>420.0</ele><time>2026-05-01T10:25:18.231Z</time></trkpt><trkpt lat="39.3428025" lon="8.4392775"><ele>416.0</ele><time>2026-05-01T10:25:19.232Z</time></trkpt><trkpt lat="39.3426511" lon="8.4393444"><ele>412.0</ele><time>2026-05-01T10:25:20.231Z</time></trkpt><trkpt lat="39.3424965" lon="8.4394101"><ele>412.0</ele><time>2026-05-01T10:25:21.232Z</time></trkpt><trkpt lat="39.3423379" lon="8.4394722"><ele>412.0</ele><time>2026-05-01T10:25:22.232Z</time></trkpt><trkpt lat="39.3421753" lon="8.4395275"><ele>412.0</ele><time>2026-05-01T10:25:23.231Z</time></trkpt><trkpt lat="39.3420115" lon="8.4395636"><ele>409.6666666666667</ele><time>2026-05-01T10:25:24.231Z</time></trkpt><trkpt lat="39.3418452" lon="8.4395868"><ele>407.33333333333337</ele><time>2026-05-01T10:25:25.232Z</time></trkpt><trkpt lat="39.3416747" lon="8.4396039"><ele>405.0</ele><time>2026-05-01T10:25:26.232Z</time></trkpt><trkpt lat="39.3415036" lon="8.4396238"><ele>395.0</ele><time>2026-05-01T10:25:27.232Z</time></trkpt><trkpt lat="39.3413286" lon="8.4396472"><ele>385.0</ele><time>2026-05-01T10:25:28.231Z</time></trkpt><trkpt lat="39.3411546" lon="8.4396765"><ele>375.0</ele><time>2026-05-01T10:25:29.232Z</time></trkpt><trkpt lat="39.3409798" lon="8.4397149"><ele>375.0</ele><time>2026-05-01T10:25:30.232Z</time></trkpt><trkpt lat="39.3407947" lon="8.4397645"><ele>375.0</ele><time>2026-05-01T10:25:31.232Z</time></trkpt><trkpt lat="39.3405964" lon="8.4398187"><ele>375.0</ele><time>2026-05-01T10:25:32.231Z</time></trkpt><trkpt lat="39.3403935" lon="8.4398633"><ele>371.6666666666667</ele><time>2026-05-01T10:25:33.232Z</time></trkpt><trkpt lat="39.3401921" lon="8.439897"><ele>368.33333333333337</ele><time>2026-05-01T10:25:34.231Z</time></trkpt><trkpt lat="39.3399906" lon="8.4399246"><ele>365.0</ele><time>2026-05-01T10:25:35.231Z</time></trkpt><trkpt lat="39.3397881" lon="8.4399482"><ele>362.0</ele><time>2026-05-01T10:25:36.231Z</time></trkpt><trkpt lat="39.3395875" lon="8.4399672"><ele>359.0</ele><time>2026-05-01T10:25:37.232Z</time></trkpt><trkpt lat="39.3393851" lon="8.4399862"><ele>356.0</ele><time>2026-05-01T10:25:38.231Z</time></trkpt><trkpt lat="39.3391834" lon="8.4400083"><ele>356.0</ele><time>2026-05-01T10:25:39.232Z</time></trkpt><trkpt lat="39.3389834" lon="8.4400333"><ele>356.0</ele><time>2026-05-01T10:25:40.231Z</time></trkpt><trkpt lat="39.3387837" lon="8.4400558"><ele>356.0</ele><time>2026-05-01T10:25:41.231Z</time></trkpt><trkpt lat="39.3385834" lon="8.4400774"><ele>352.6666666666667</ele><time>2026-05-01T10:25:42.231Z</time></trkpt><trkpt lat="39.3383855" lon="8.4401002"><ele>349.3333333333333</ele><time>2026-05-01T10:25:43.231Z</time></trkpt><trkpt lat="39.3381894" lon="8.440118"><ele>346.0</ele><time>2026-05-01T10:25:44.232Z</time></trkpt><trkpt lat="39.3380027" lon="8.4401322"><ele>342.3333333333333</ele><time>2026-05-01T10:25:45.231Z</time></trkpt><trkpt lat="39.3378208" lon="8.4401394"><ele>338.6666666666667</ele><time>2026-05-01T10:25:46.231Z</time></trkpt><trkpt lat="39.3376457" lon="8.4401232"><ele>335.0</ele><time>2026-05-01T10:25:47.231Z</time></trkpt><trkpt lat="39.3374746" lon="8.4400845"><ele>335.0</ele><time>2026-05-01T10:25:48.231Z</time></trkpt><trkpt lat="39.3373058" lon="8.4400288"><ele>335.0</ele><time>2026-05-01T10:25:49.232Z</time></trkpt><trkpt lat="39.3371483" lon="8.4399672"><ele>335.0</ele><time>2026-05-01T10:25:50.231Z</time></trkpt><trkpt lat="39.3370097" lon="8.4399113"><ele>331.6</ele><time>2026-05-01T10:25:51.231Z</time></trkpt><trkpt lat="39.3368867" lon="8.4398712"><ele>328.2</ele><time>2026-05-01T10:25:52.231Z</time></trkpt><trkpt lat="39.3367796" lon="8.4398521"><ele>324.8</ele><time>2026-05-01T10:25:53.231Z</time></trkpt><trkpt lat="39.3366756" lon="8.4398754"><ele>321.4</ele><time>2026-05-01T10:25:54.232Z</time></trkpt><trkpt lat="39.3365802" lon="8.4399379"><ele>318.0</ele><time>2026-05-01T10:25:55.232Z</time></trkpt><trkpt lat="39.3365022" lon="8.4400378"><ele>318.0</ele><time>2026-05-01T10:25:56.231Z</time></trkpt><trkpt lat="39.336438" lon="8.4401597"><ele>318.0</ele><time>2026-05-01T10:25:57.231Z</time></trkpt><trkpt lat="39.336381" lon="8.4402922"><ele>318.0</ele><time>2026-05-01T10:25:58.231Z</time></trkpt><trkpt lat="39.3363198" lon="8.4404173"><ele>318.0</ele><time>2026-05-01T10:25:59.232Z</time></trkpt><trkpt lat="39.3362391" lon="8.4405222"><ele>313.75</ele><time>2026-05-01T10:26:00.232Z</time></trkpt><trkpt lat="39.3361446" lon="8.4406096"><ele>309.5</ele><time>2026-05-01T10:26:01.232Z</time></trkpt><trkpt lat="39.336047" lon="8.4406854"><ele>305.25</ele><time>2026-05-01T10:26:02.231Z</time></trkpt><trkpt lat="39.3359474" lon="8.4407547"><ele>301.0</ele><time>2026-05-01T10:26:03.231Z</time></trkpt><trkpt lat="39.3358475" lon="8.4408208"><ele>301.0</ele><time>2026-05-01T10:26:04.231Z</time></trkpt><trkpt lat="39.3357509" lon="8.4408865"><ele>301.0</ele><time>2026-05-01T10:26:05.232Z</time></trkpt><trkpt lat="39.3356586" lon="8.4409553"><ele>301.0</ele><time>2026-05-01T10:26:06.231Z</time></trkpt><trkpt lat="39.335576" lon="8.4410242"><ele>301.0</ele><time>2026-05-01T10:26:07.231Z</time></trkpt><trkpt lat="39.3355022" lon="8.4410842"><ele>301.0</ele><time>2026-05-01T10:26:08.231Z</time></trkpt><trkpt lat="39.33544" lon="8.4411132"><ele>296.6</ele><time>2026-05-01T10:26:09.231Z</time></trkpt><trkpt lat="39.3353361" lon="8.4410609"><ele>292.20000000000005</ele><time>2026-05-01T10:26:11.232Z</time></trkpt><trkpt lat="39.3353409" lon="8.4409222"><ele>287.79999999999995</ele><time>2026-05-01T10:26:13.231Z</time></trkpt><trkpt lat="39.3353915" lon="8.4408737"><ele>283.4</ele><time>2026-05-01T10:26:14.232Z</time></trkpt><trkpt lat="39.3354661" lon="8.4408417"><ele>279.0</ele><time>2026-05-01T10:26:15.231Z</time></trkpt><trkpt lat="39.3355534" lon="8.4408013"><ele>281.8333333333333</ele><time>2026-05-01T10:26:16.232Z</time></trkpt><trkpt lat="39.3356317" lon="8.4407384"><ele>284.6666666666667</ele><time>2026-05-01T10:26:17.232Z</time></trkpt><trkpt lat="39.3356936" lon="8.4406659"><ele>287.5</ele><time>2026-05-01T10:26:18.232Z</time></trkpt><trkpt lat="39.3357372" lon="8.4405712"><ele>290.33333333333337</ele><time>2026-05-01T10:26:19.232Z</time></trkpt><trkpt lat="39.3357553" lon="8.4404631"><ele>293.1666666666667</ele><time>2026-05-01T10:26:20.231Z</time></trkpt><trkpt lat="39.3357457" lon="8.4403493"><ele>296.0</ele><time>2026-05-01T10:26:21.231Z</time></trkpt><trkpt lat="39.3357071" lon="8.4402489"><ele>296.0</ele><time>2026-05-01T10:26:22.231Z</time></trkpt><trkpt lat="39.3356389" lon="8.4401729"><ele>296.0</ele><time>2026-05-01T10:26:23.232Z</time></trkpt><trkpt lat="39.3355439" lon="8.4401164"><ele>296.0</ele><time>2026-05-01T10:26:24.231Z</time></trkpt><trkpt lat="39.3354406" lon="8.4400707"><ele>296.0</ele><time>2026-05-01T10:26:25.231Z</time></trkpt><trkpt lat="39.3353406" lon="8.4400401"><ele>296.0</ele><time>2026-05-01T10:26:26.231Z</time></trkpt><trkpt lat="39.3352413" lon="8.4400086"><ele>293.0</ele><time>2026-05-01T10:26:27.231Z</time></trkpt><trkpt lat="39.3351488" lon="8.4399676"><ele>290.0</ele><time>2026-05-01T10:26:28.232Z</time></trkpt><trkpt lat="39.3350636" lon="8.4399298"><ele>287.0</ele><time>2026-05-01T10:26:29.231Z</time></trkpt><trkpt lat="39.3349773" lon="8.4399296"><ele>284.0</ele><time>2026-05-01T10:26:30.231Z</time></trkpt><trkpt lat="39.3348979" lon="8.439979"><ele>281.0</ele><time>2026-05-01T10:26:31.232Z</time></trkpt><trkpt lat="39.334848" lon="8.4400712"><ele>278.0</ele><time>2026-05-01T10:26:32.232Z</time></trkpt><trkpt lat="39.3348331" lon="8.4401795"><ele>278.0</ele><time>2026-05-01T10:26:33.232Z</time></trkpt><trkpt lat="39.3348368" lon="8.4402951"><ele>278.0</ele><time>2026-05-01T10:26:34.232Z</time></trkpt><trkpt lat="39.3348203" lon="8.4404142"><ele>278.0</ele><time>2026-05-01T10:26:35.232Z</time></trkpt><trkpt lat="39.3347686" lon="8.4405224"><ele>278.0</ele><time>2026-05-01T10:26:36.232Z</time></trkpt><trkpt lat="39.3346869" lon="8.4406046"><ele>278.0</ele><time>2026-05-01T10:26:37.232Z</time></trkpt><trkpt lat="39.3345718" lon="8.440669"><ele>269.6666666666667</ele><time>2026-05-01T10:26:38.232Z</time></trkpt><trkpt lat="39.334433" lon="8.4407181"><ele>261.3333333333333</ele><time>2026-05-01T10:26:39.232Z</time></trkpt><trkpt lat="39.334275" lon="8.440776"><ele>253.0</ele><time>2026-05-01T10:26:40.231Z</time></trkpt><trkpt lat="39.3341183" lon="8.4408379"><ele>253.0</ele><time>2026-05-01T10:26:41.232Z</time></trkpt><trkpt lat="39.3339637" lon="8.4408976"><ele>253.0</ele><time>2026-05-01T10:26:42.231Z</time></trkpt><trkpt lat="39.3338082" lon="8.4409561"><ele>253.0</ele><time>2026-05-01T10:26:43.231Z</time></trkpt><trkpt lat="39.3336564" lon="8.4410179"><ele>246.25</ele><time>2026-05-01T10:26:44.232Z</time></trkpt><trkpt lat="39.3335156" lon="8.4410738"><ele>239.5</ele><time>2026-05-01T10:26:45.231Z</time></trkpt><trkpt lat="39.3333956" lon="8.4411181"><ele>232.75</ele><time>2026-05-01T10:26:46.231Z</time></trkpt><trkpt lat="39.3332999" lon="8.4411573"><ele>226.0</ele><time>2026-05-01T10:26:47.232Z</time></trkpt><trkpt lat="39.3332234" lon="8.4412172"><ele>228.0</ele><time>2026-05-01T10:26:48.231Z</time></trkpt><trkpt lat="39.3331787" lon="8.441314"><ele>230.00000000000003</ele><time>2026-05-01T10:26:49.231Z</time></trkpt><trkpt lat="39.3331731" lon="8.4414335"><ele>232.00000000000003</ele><time>2026-05-01T10:26:50.232Z</time></trkpt><trkpt lat="39.3332031" lon="8.4415651"><ele>234.0</ele><time>2026-05-01T10:26:51.231Z</time></trkpt><trkpt lat="39.3332525" lon="8.4416922"><ele>236.0</ele><time>2026-05-01T10:26:52.232Z</time></trkpt><trkpt lat="39.3332998" lon="8.4418161"><ele>236.0</ele><time>2026-05-01T10:26:53.232Z</time></trkpt><trkpt lat="39.3333289" lon="8.4419395"><ele>236.00000000000003</ele><time>2026-05-01T10:26:54.232Z</time></trkpt><trkpt lat="39.3333161" lon="8.44206"><ele>236.00000000000003</ele><time>2026-05-01T10:26:55.231Z</time></trkpt><trkpt lat="39.3332641" lon="8.4421607"><ele>236.0</ele><time>2026-05-01T10:26:56.231Z</time></trkpt><trkpt lat="39.3331864" lon="8.4422237"><ele>236.0</ele><time>2026-05-01T10:26:57.231Z</time></trkpt><trkpt lat="39.3330948" lon="8.4422418"><ele>232.0</ele><time>2026-05-01T10:26:58.232Z</time></trkpt><trkpt lat="39.333007" lon="8.442217"><ele>228.00000000000003</ele><time>2026-05-01T10:26:59.231Z</time></trkpt><trkpt lat="39.3329245" lon="8.4421925"><ele>224.00000000000003</ele><time>2026-05-01T10:27:00.231Z</time></trkpt><trkpt lat="39.3328406" lon="8.4422004"><ele>220.0</ele><time>2026-05-01T10:27:01.232Z</time></trkpt><trkpt lat="39.3327611" lon="8.4422586"><ele>216.0</ele><time>2026-05-01T10:27:02.231Z</time></trkpt><trkpt lat="39.3326954" lon="8.4423572"><ele>216.0</ele><time>2026-05-01T10:27:03.232Z</time></trkpt><trkpt lat="39.332639" lon="8.4424862"><ele>216.0</ele><time>2026-05-01T10:27:04.232Z</time></trkpt><trkpt lat="39.3325776" lon="8.4426278"><ele>216.0</ele><time>2026-05-01T10:27:05.232Z</time></trkpt><trkpt lat="39.3325158" lon="8.4427676"><ele>216.0</ele><time>2026-05-01T10:27:06.232Z</time></trkpt><trkpt lat="39.3324565" lon="8.4429095"><ele>220.8</ele><time>2026-05-01T10:27:07.231Z</time></trkpt><trkpt lat="39.332403" lon="8.4430499"><ele>225.60000000000002</ele><time>2026-05-01T10:27:08.232Z</time></trkpt><trkpt lat="39.3323566" lon="8.4431773"><ele>230.4</ele><time>2026-05-01T10:27:09.232Z</time></trkpt><trkpt lat="39.3323137" lon="8.4432828"><ele>235.2</ele><time>2026-05-01T10:27:10.232Z</time></trkpt><trkpt lat="39.3322598" lon="8.4433605"><ele>240.0</ele><time>2026-05-01T10:27:11.231Z</time></trkpt><trkpt lat="39.3321876" lon="8.4433937"><ele>240.66666666666666</ele><time>2026-05-01T10:27:12.232Z</time></trkpt><trkpt lat="39.3321122" lon="8.443378"><ele>241.33333333333331</ele><time>2026-05-01T10:27:13.231Z</time></trkpt><trkpt lat="39.3320526" lon="8.4433163"><ele>242.0</ele><time>2026-05-01T10:27:14.231Z</time></trkpt><trkpt lat="39.3320244" lon="8.4432228"><ele>242.66666666666666</ele><time>2026-05-01T10:27:15.231Z</time></trkpt><trkpt lat="39.3320318" lon="8.4431111"><ele>243.33333333333331</ele><time>2026-05-01T10:27:16.231Z</time></trkpt><trkpt lat="39.3320607" lon="8.4429905"><ele>244.0</ele><time>2026-05-01T10:27:17.231Z</time></trkpt><trkpt lat="39.3320962" lon="8.4428545"><ele>244.0</ele><time>2026-05-01T10:27:18.231Z</time></trkpt><trkpt lat="39.3321289" lon="8.4427011"><ele>244.0</ele><time>2026-05-01T10:27:19.232Z</time></trkpt><trkpt lat="39.3321659" lon="8.4425342"><ele>244.0</ele><time>2026-05-01T10:27:20.232Z</time></trkpt><trkpt lat="39.3322077" lon="8.4423539"><ele>244.0</ele><time>2026-05-01T10:27:21.231Z</time></trkpt><trkpt lat="39.3322384" lon="8.4421605"><ele>241.25</ele><time>2026-05-01T10:27:22.232Z</time></trkpt><trkpt lat="39.3322509" lon="8.4419706"><ele>238.5</ele><time>2026-05-01T10:27:23.231Z</time></trkpt><trkpt lat="39.3322375" lon="8.4417788"><ele>235.75</ele><time>2026-05-01T10:27:24.232Z</time></trkpt><trkpt lat="39.3322013" lon="8.4415929"><ele>233.0</ele><time>2026-05-01T10:27:25.232Z</time></trkpt><trkpt lat="39.3321508" lon="8.4414189"><ele>228.0</ele><time>2026-05-01T10:27:26.231Z</time></trkpt><trkpt lat="39.3320877" lon="8.4412664"><ele>223.0</ele><time>2026-05-01T10:27:27.232Z</time></trkpt><trkpt lat="39.332025" lon="8.4411253"><ele>218.0</ele><time>2026-05-01T10:27:28.231Z</time></trkpt><trkpt lat="39.3319851" lon="8.4409704"><ele>213.0</ele><time>2026-05-01T10:27:29.231Z</time></trkpt><trkpt lat="39.3319808" lon="8.4408062"><ele>213.0</ele><time>2026-05-01T10:27:30.231Z</time></trkpt><trkpt lat="39.3320172" lon="8.4406477"><ele>213.0</ele><time>2026-05-01T10:27:31.232Z</time></trkpt><trkpt lat="39.3320805" lon="8.4405036"><ele>213.0</ele><time>2026-05-01T10:27:32.231Z</time></trkpt><trkpt lat="39.3321515" lon="8.4403727"><ele>213.0</ele><time>2026-05-01T10:27:33.231Z</time></trkpt><trkpt lat="39.3321853" lon="8.4402245"><ele>208.5</ele><time>2026-05-01T10:27:34.232Z</time></trkpt><trkpt lat="39.3321793" lon="8.4400733"><ele>204.0</ele><time>2026-05-01T10:27:35.231Z</time></trkpt><trkpt lat="39.3321405" lon="8.4399341"><ele>199.5</ele><time>2026-05-01T10:27:36.232Z</time></trkpt><trkpt lat="39.3320719" lon="8.4398015"><ele>195.0</ele><time>2026-05-01T10:27:37.231Z</time></trkpt><trkpt lat="39.331985" lon="8.4396725"><ele>193.75</ele><time>2026-05-01T10:27:38.231Z</time></trkpt><trkpt lat="39.3318953" lon="8.4395315"><ele>192.5</ele><time>2026-05-01T10:27:39.231Z</time></trkpt><trkpt lat="39.3318107" lon="8.439373"><ele>191.25</ele><time>2026-05-01T10:27:40.232Z</time></trkpt><trkpt lat="39.331731" lon="8.4392016"><ele>190.0</ele><time>2026-05-01T10:27:41.232Z</time></trkpt><trkpt lat="39.3316598" lon="8.4390235"><ele>190.0</ele><time>2026-05-01T10:27:42.232Z</time></trkpt><trkpt lat="39.3315969" lon="8.438836"><ele>190.0</ele><time>2026-05-01T10:27:43.232Z</time></trkpt><trkpt lat="39.3315474" lon="8.438639"><ele>190.0</ele><time>2026-05-01T10:27:44.232Z</time></trkpt><trkpt lat="39.3315051" lon="8.4384397"><ele>191.5</ele><time>2026-05-01T10:27:45.232Z</time></trkpt><trkpt lat="39.3314698" lon="8.4382486"><ele>193.0</ele><time>2026-05-01T10:27:46.232Z</time></trkpt><trkpt lat="39.3314404" lon="8.4380625"><ele>194.5</ele><time>2026-05-01T10:27:47.232Z</time></trkpt><trkpt lat="39.331417" lon="8.4378711"><ele>196.0</ele><time>2026-05-01T10:27:48.231Z</time></trkpt><trkpt lat="39.331405" lon="8.4376756"><ele>196.33333333333331</ele><time>2026-05-01T10:27:49.232Z</time></trkpt><trkpt lat="39.3314075" lon="8.4374756"><ele>196.66666666666669</ele><time>2026-05-01T10:27:50.231Z</time></trkpt><trkpt lat="39.3314221" lon="8.4372756"><ele>197.0</ele><time>2026-05-01T10:27:51.232Z</time></trkpt><trkpt lat="39.3314501" lon="8.4370691"><ele>188.66666666666669</ele><time>2026-05-01T10:27:52.232Z</time></trkpt><trkpt lat="39.3314886" lon="8.4368663"><ele>180.33333333333334</ele><time>2026-05-01T10:27:53.232Z</time></trkpt><trkpt lat="39.3315371" lon="8.4366639"><ele>172.0</ele><time>2026-05-01T10:27:54.231Z</time></trkpt><trkpt lat="39.3315891" lon="8.4364632"><ele>166.0</ele><time>2026-05-01T10:27:55.231Z</time></trkpt><trkpt lat="39.3316414" lon="8.4362633"><ele>160.0</ele><time>2026-05-01T10:27:56.231Z</time></trkpt><trkpt lat="39.331695" lon="8.4360636"><ele>154.0</ele><time>2026-05-01T10:27:57.231Z</time></trkpt><trkpt lat="39.3317463" lon="8.4358658"><ele>154.0</ele><time>2026-05-01T10:27:58.232Z</time></trkpt><trkpt lat="39.3317935" lon="8.4356837"><ele>154.0</ele><time>2026-05-01T10:27:59.231Z</time></trkpt><trkpt lat="39.331837" lon="8.4355199"><ele>154.0</ele><time>2026-05-01T10:28:00.231Z</time></trkpt><trkpt lat="39.3318717" lon="8.4353805"><ele>154.0</ele><time>2026-05-01T10:28:01.231Z</time></trkpt><trkpt lat="39.3318851" lon="8.4352713"><ele>150.4</ele><time>2026-05-01T10:28:02.231Z</time></trkpt><trkpt lat="39.3318551" lon="8.4351394"><ele>146.8</ele><time>2026-05-01T10:28:04.231Z</time></trkpt><trkpt lat="39.3317828" lon="8.4350634"><ele>143.2</ele><time>2026-05-01T10:28:06.232Z</time></trkpt><trkpt lat="39.3316613" lon="8.4350233"><ele>139.6</ele><time>2026-05-01T10:28:08.232Z</time></trkpt><trkpt lat="39.3315804" lon="8.4349919"><ele>136.0</ele><time>2026-05-01T10:28:09.231Z</time></trkpt><trkpt lat="39.3314998" lon="8.4349403"><ele>136.0</ele><time>2026-05-01T10:28:10.231Z</time></trkpt><trkpt lat="39.3314231" lon="8.4348685"><ele>136.0</ele><time>2026-05-01T10:28:11.232Z</time></trkpt><trkpt lat="39.3313391" lon="8.4347931"><ele>136.0</ele><time>2026-05-01T10:28:12.232Z</time></trkpt><trkpt lat="39.3312432" lon="8.4347203"><ele>136.0</ele><time>2026-05-01T10:28:13.231Z</time></trkpt><trkpt lat="39.3311402" lon="8.4346478"><ele>136.0</ele><time>2026-05-01T10:28:14.231Z</time></trkpt><trkpt lat="39.3310386" lon="8.4345811"><ele>134.4</ele><time>2026-05-01T10:28:15.232Z</time></trkpt><trkpt lat="39.3309492" lon="8.4345187"><ele>132.8</ele><time>2026-05-01T10:28:16.231Z</time></trkpt><trkpt lat="39.3308686" lon="8.4344562"><ele>131.20000000000002</ele><time>2026-05-01T10:28:17.232Z</time></trkpt><trkpt lat="39.3308002" lon="8.4343849"><ele>129.6</ele><time>2026-05-01T10:28:18.231Z</time></trkpt><trkpt lat="39.3307408" lon="8.4343079"><ele>128.0</ele><time>2026-05-01T10:28:19.231Z</time></trkpt><trkpt lat="39.3306884" lon="8.4342252"><ele>127.99999999999999</ele><time>2026-05-01T10:28:20.231Z</time></trkpt><trkpt lat="39.3306529" lon="8.4341332"><ele>128.0</ele><time>2026-05-01T10:28:21.231Z</time></trkpt><trkpt lat="39.3306265" lon="8.4340326"><ele>128.0</ele><time>2026-05-01T10:28:22.232Z</time></trkpt><trkpt lat="39.3305978" lon="8.4339315"><ele>128.0</ele><time>2026-05-01T10:28:23.232Z</time></trkpt><trkpt lat="39.3305544" lon="8.4338393"><ele>127.99999999999999</ele><time>2026-05-01T10:28:24.231Z</time></trkpt><trkpt lat="39.3304886" lon="8.4337619"><ele>128.0</ele><time>2026-05-01T10:28:25.232Z</time></trkpt><trkpt lat="39.3304081" lon="8.4337013"><ele>130.0</ele><time>2026-05-01T10:28:26.232Z</time></trkpt><trkpt lat="39.3303206" lon="8.4336427"><ele>132.0</ele><time>2026-05-01T10:28:27.231Z</time></trkpt><trkpt lat="39.330228" lon="8.4335891"><ele>134.0</ele><time>2026-05-01T10:28:28.232Z</time></trkpt><trkpt lat="39.330133" lon="8.4335348"><ele>136.0</ele><time>2026-05-01T10:28:29.231Z</time></trkpt><trkpt lat="39.3300401" lon="8.4334808"><ele>138.0</ele><time>2026-05-01T10:28:30.232Z</time></trkpt><trkpt lat="39.3299582" lon="8.4334344"><ele>138.0</ele><time>2026-05-01T10:28:31.232Z</time></trkpt><trkpt lat="39.3298788" lon="8.4333766"><ele>138.0</ele><time>2026-05-01T10:28:32.232Z</time></trkpt><trkpt lat="39.3298111" lon="8.4333032"><ele>138.0</ele><time>2026-05-01T10:28:33.231Z</time></trkpt><trkpt lat="39.3297607" lon="8.4332102"><ele>138.0</ele><time>2026-05-01T10:28:34.232Z</time></trkpt><trkpt lat="39.3297391" lon="8.4331056"><ele>138.0</ele><time>2026-05-01T10:28:35.232Z</time></trkpt><trkpt lat="39.3297499" lon="8.4330036"><ele>138.0</ele><time>2026-05-01T10:28:36.231Z</time></trkpt><trkpt lat="39.3297636" lon="8.43291"><ele>138.16666666666666</ele><time>2026-05-01T10:28:37.231Z</time></trkpt><trkpt lat="39.3297513" lon="8.4328248"><ele>138.33333333333334</ele><time>2026-05-01T10:28:38.231Z</time></trkpt><trkpt lat="39.3297066" lon="8.4327475"><ele>138.5</ele><time>2026-05-01T10:28:39.231Z</time></trkpt><trkpt lat="39.3296344" lon="8.4326877"><ele>138.66666666666669</ele><time>2026-05-01T10:28:40.231Z</time></trkpt><trkpt lat="39.3295364" lon="8.432638"><ele>138.83333333333334</ele><time>2026-05-01T10:28:41.231Z</time></trkpt><trkpt lat="39.329425" lon="8.4325998"><ele>139.0</ele><time>2026-05-01T10:28:42.232Z</time></trkpt><trkpt lat="39.3293135" lon="8.4326028"><ele>139.0</ele><time>2026-05-01T10:28:43.231Z</time></trkpt><trkpt lat="39.3292067" lon="8.4326455"><ele>139.0</ele><time>2026-05-01T10:28:44.232Z</time></trkpt><trkpt lat="39.3291037" lon="8.4327239"><ele>139.0</ele><time>2026-05-01T10:28:45.232Z</time></trkpt><trkpt lat="39.3290066" lon="8.4328251"><ele>139.0</ele><time>2026-05-01T10:28:46.232Z</time></trkpt><trkpt lat="39.3289178" lon="8.43295"><ele>142.75</ele><time>2026-05-01T10:28:47.231Z</time></trkpt><trkpt lat="39.3288337" lon="8.4330744"><ele>146.5</ele><time>2026-05-01T10:28:48.231Z</time></trkpt><trkpt lat="39.3287506" lon="8.4331785"><ele>150.25</ele><time>2026-05-01T10:28:49.232Z</time></trkpt><trkpt lat="39.3286503" lon="8.4332593"><ele>154.0</ele><time>2026-05-01T10:28:50.232Z</time></trkpt><trkpt lat="39.328533" lon="8.433307"><ele>154.0</ele><time>2026-05-01T10:28:51.231Z</time></trkpt><trkpt lat="39.3284019" lon="8.4333267"><ele>154.0</ele><time>2026-05-01T10:28:52.232Z</time></trkpt><trkpt lat="39.3282619" lon="8.43333"><ele>154.0</ele><time>2026-05-01T10:28:53.231Z</time></trkpt><trkpt lat="39.328114" lon="8.4333311"><ele>154.0</ele><time>2026-05-01T10:28:54.232Z</time></trkpt><trkpt lat="39.3279568" lon="8.4333308"><ele>153.66666666666669</ele><time>2026-05-01T10:28:55.231Z</time></trkpt><trkpt lat="39.3277914" lon="8.4333345"><ele>153.33333333333334</ele><time>2026-05-01T10:28:56.232Z</time></trkpt><trkpt lat="39.3276272" lon="8.4333343"><ele>153.0</ele><time>2026-05-01T10:28:57.231Z</time></trkpt><trkpt lat="39.3274749" lon="8.4333199"><ele>153.0</ele><time>2026-05-01T10:28:58.231Z</time></trkpt><trkpt lat="39.327323" lon="8.4332884"><ele>153.0</ele><time>2026-05-01T10:28:59.232Z</time></trkpt><trkpt lat="39.3271777" lon="8.4332549"><ele>153.0</ele><time>2026-05-01T10:29:00.231Z</time></trkpt><trkpt lat="39.3270415" lon="8.4332355"><ele>153.0</ele><time>2026-05-01T10:29:01.231Z</time></trkpt><trkpt lat="39.3269176" lon="8.433262"><ele>154.25</ele><time>2026-05-01T10:29:02.231Z</time></trkpt><trkpt lat="39.3268053" lon="8.4333133"><ele>155.5</ele><time>2026-05-01T10:29:03.231Z</time></trkpt><trkpt lat="39.3266876" lon="8.4333494"><ele>156.75</ele><time>2026-05-01T10:29:04.232Z</time></trkpt><trkpt lat="39.3265617" lon="8.4333488"><ele>158.0</ele><time>2026-05-01T10:29:05.232Z</time></trkpt><trkpt lat="39.3264261" lon="8.4333236"><ele>158.33333333333331</ele><time>2026-05-01T10:29:06.232Z</time></trkpt><trkpt lat="39.3262785" lon="8.4333052"><ele>158.66666666666666</ele><time>2026-05-01T10:29:07.232Z</time></trkpt><trkpt lat="39.3261231" lon="8.433312"><ele>159.0</ele><time>2026-05-01T10:29:08.231Z</time></trkpt><trkpt lat="39.3259586" lon="8.4333254"><ele>159.0</ele><time>2026-05-01T10:29:09.231Z</time></trkpt><trkpt lat="39.3258143" lon="8.4333173"><ele>159.0</ele><time>2026-05-01T10:29:10.231Z</time></trkpt><trkpt lat="39.3256795" lon="8.4333042"><ele>159.0</ele><time>2026-05-01T10:29:11.232Z</time></trkpt><trkpt lat="39.3255655" lon="8.433318"><ele>159.0</ele><time>2026-05-01T10:29:12.231Z</time></trkpt><trkpt lat="39.3254643" lon="8.433381"><ele>157.75</ele><time>2026-05-01T10:29:13.232Z</time></trkpt><trkpt lat="39.325375" lon="8.4334703"><ele>156.5</ele><time>2026-05-01T10:29:14.232Z</time></trkpt><trkpt lat="39.3252937" lon="8.4335704"><ele>155.25</ele><time>2026-05-01T10:29:15.231Z</time></trkpt><trkpt lat="39.3251903" lon="8.4336404"><ele>154.0</ele><time>2026-05-01T10:29:16.232Z</time></trkpt><trkpt lat="39.3250765" lon="8.4336673"><ele>154.0</ele><time>2026-05-01T10:29:17.231Z</time></trkpt><trkpt lat="39.3249604" lon="8.4336638"><ele>154.0</ele><time>2026-05-01T10:29:18.231Z</time></trkpt><trkpt lat="39.3248537" lon="8.4336756"><ele>154.0</ele><time>2026-05-01T10:29:19.231Z</time></trkpt><trkpt lat="39.3247696" lon="8.4337365"><ele>154.0</ele><time>2026-05-01T10:29:20.231Z</time></trkpt><trkpt lat="39.3247108" lon="8.4338365"><ele>154.0</ele><time>2026-05-01T10:29:21.231Z</time></trkpt><trkpt lat="39.3246706" lon="8.4339535"><ele>155.5</ele><time>2026-05-01T10:29:22.231Z</time></trkpt><trkpt lat="39.3246431" lon="8.4340912"><ele>157.0</ele><time>2026-05-01T10:29:23.232Z</time></trkpt><trkpt lat="39.3246072" lon="8.4342398"><ele>158.5</ele><time>2026-05-01T10:29:24.231Z</time></trkpt><trkpt lat="39.3245509" lon="8.4343874"><ele>160.0</ele><time>2026-05-01T10:29:25.232Z</time></trkpt><trkpt lat="39.3244689" lon="8.4345198"><ele>160.0</ele><time>2026-05-01T10:29:26.231Z</time></trkpt><trkpt lat="39.3243703" lon="8.4346351"><ele>160.0</ele><time>2026-05-01T10:29:27.231Z</time></trkpt><trkpt lat="39.324265" lon="8.4347258"><ele>160.0</ele><time>2026-05-01T10:29:28.231Z</time></trkpt><trkpt lat="39.3241721" lon="8.4348176"><ele>160.0</ele><time>2026-05-01T10:29:29.232Z</time></trkpt><trkpt lat="39.3241093" lon="8.4349417"><ele>163.0</ele><time>2026-05-01T10:29:30.231Z</time></trkpt><trkpt lat="39.324059" lon="8.435089"><ele>166.0</ele><time>2026-05-01T10:29:31.232Z</time></trkpt><trkpt lat="39.3240148" lon="8.4352532"><ele>169.0</ele><time>2026-05-01T10:29:32.232Z</time></trkpt><trkpt lat="39.3239734" lon="8.4354397"><ele>172.0</ele><time>2026-05-01T10:29:33.232Z</time></trkpt><trkpt lat="39.3239404" lon="8.435621"><ele>175.5</ele><time>2026-05-01T10:29:34.231Z</time></trkpt><trkpt lat="39.3239287" lon="8.4357909"><ele>179.0</ele><time>2026-05-01T10:29:35.232Z</time></trkpt><trkpt lat="39.3239346" lon="8.4359677"><ele>182.5</ele><time>2026-05-01T10:29:36.232Z</time></trkpt><trkpt lat="39.3239367" lon="8.4361437"><ele>186.0</ele><time>2026-05-01T10:29:37.232Z</time></trkpt><trkpt lat="39.3239153" lon="8.4362991"><ele>185.8</ele><time>2026-05-01T10:29:38.231Z</time></trkpt><trkpt lat="39.3238675" lon="8.4364274"><ele>185.60000000000002</ele><time>2026-05-01T10:29:39.231Z</time></trkpt><trkpt lat="39.3237891" lon="8.436513"><ele>185.4</ele><time>2026-05-01T10:29:40.232Z</time></trkpt><trkpt lat="39.3236891" lon="8.4365505"><ele>185.2</ele><time>2026-05-01T10:29:41.232Z</time></trkpt><trkpt lat="39.3235738" lon="8.4365521"><ele>185.0</ele><time>2026-05-01T10:29:42.231Z</time></trkpt><trkpt lat="39.3234712" lon="8.4365135"><ele>185.0</ele><time>2026-05-01T10:29:43.232Z</time></trkpt><trkpt lat="39.3233977" lon="8.4364339"><ele>185.0</ele><time>2026-05-01T10:29:44.232Z</time></trkpt><trkpt lat="39.3233404" lon="8.4363151"><ele>185.0</ele><time>2026-05-01T10:29:45.232Z</time></trkpt><trkpt lat="39.3232782" lon="8.4361754"><ele>185.0</ele><time>2026-05-01T10:29:46.232Z</time></trkpt><trkpt lat="39.3231877" lon="8.4360501"><ele>181.25</ele><time>2026-05-01T10:29:47.231Z</time></trkpt><trkpt lat="39.323086" lon="8.4359495"><ele>177.5</ele><time>2026-05-01T10:29:48.231Z</time></trkpt><trkpt lat="39.3229761" lon="8.4358556"><ele>173.75</ele><time>2026-05-01T10:29:49.232Z</time></trkpt><trkpt lat="39.3228662" lon="8.4357968"><ele>170.0</ele><time>2026-05-01T10:29:50.231Z</time></trkpt><trkpt lat="39.3227509" lon="8.435786"><ele>170.0</ele><time>2026-05-01T10:29:51.232Z</time></trkpt><trkpt lat="39.3226373" lon="8.4358142"><ele>170.0</ele><time>2026-05-01T10:29:52.231Z</time></trkpt><trkpt lat="39.3225212" lon="8.4358717"><ele>170.0</ele><time>2026-05-01T10:29:53.231Z</time></trkpt><trkpt lat="39.3224037" lon="8.4359409"><ele>170.0</ele><time>2026-05-01T10:29:54.232Z</time></trkpt><trkpt lat="39.3222868" lon="8.435981"><ele>169.5</ele><time>2026-05-01T10:29:55.231Z</time></trkpt><trkpt lat="39.3221583" lon="8.4359917"><ele>169.0</ele><time>2026-05-01T10:29:56.231Z</time></trkpt><trkpt lat="39.3220169" lon="8.4359797"><ele>168.5</ele><time>2026-05-01T10:29:57.231Z</time></trkpt><trkpt lat="39.3218595" lon="8.435956"><ele>168.0</ele><time>2026-05-01T10:29:58.231Z</time></trkpt><trkpt lat="39.3216855" lon="8.435929"><ele>168.0</ele><time>2026-05-01T10:29:59.232Z</time></trkpt><trkpt lat="39.3215266" lon="8.435907"><ele>168.0</ele><time>2026-05-01T10:30:00.231Z</time></trkpt><trkpt lat="39.321384" lon="8.4358984"><ele>168.0</ele><time>2026-05-01T10:30:01.231Z</time></trkpt><trkpt lat="39.3212535" lon="8.4359162"><ele>168.0</ele><time>2026-05-01T10:30:02.231Z</time></trkpt><trkpt lat="39.3211345" lon="8.4359652"><ele>167.8</ele><time>2026-05-01T10:30:03.231Z</time></trkpt><trkpt lat="39.3210233" lon="8.4360239"><ele>167.60000000000002</ele><time>2026-05-01T10:30:04.232Z</time></trkpt><trkpt lat="39.3209169" lon="8.4360653"><ele>167.39999999999998</ele><time>2026-05-01T10:30:05.231Z</time></trkpt><trkpt lat="39.3208121" lon="8.4360652"><ele>167.2</ele><time>2026-05-01T10:30:06.232Z</time></trkpt><trkpt lat="39.3207273" lon="8.4360173"><ele>167.0</ele><time>2026-05-01T10:30:07.231Z</time></trkpt><trkpt lat="39.32067" lon="8.4359365"><ele>167.0</ele><time>2026-05-01T10:30:08.232Z</time></trkpt><trkpt lat="39.3206079" lon="8.4358476"><ele>167.0</ele><time>2026-05-01T10:30:09.231Z</time></trkpt><trkpt lat="39.3205158" lon="8.4357782"><ele>167.0</ele><time>2026-05-01T10:30:10.231Z</time></trkpt><trkpt lat="39.3204033" lon="8.4357139"><ele>167.0</ele><time>2026-05-01T10:30:11.231Z</time></trkpt><trkpt lat="39.3202812" lon="8.4356502"><ele>166.2</ele><time>2026-05-01T10:30:12.231Z</time></trkpt><trkpt lat="39.3201775" lon="8.4355995"><ele>165.39999999999998</ele><time>2026-05-01T10:30:13.231Z</time></trkpt><trkpt lat="39.3200799" lon="8.4355778"><ele>164.60000000000002</ele><time>2026-05-01T10:30:14.231Z</time></trkpt><trkpt lat="39.3199934" lon="8.435601"><ele>163.8</ele><time>2026-05-01T10:30:15.232Z</time></trkpt><trkpt lat="39.319928" lon="8.435672"><ele>163.0</ele><time>2026-05-01T10:30:16.232Z</time></trkpt><trkpt lat="39.3198812" lon="8.4357721"><ele>163.0</ele><time>2026-05-01T10:30:17.232Z</time></trkpt><trkpt lat="39.3198453" lon="8.4358989"><ele>163.0</ele><time>2026-05-01T10:30:18.231Z</time></trkpt><trkpt lat="39.3198008" lon="8.4360221"><ele>163.0</ele><time>2026-05-01T10:30:19.232Z</time></trkpt><trkpt lat="39.319738" lon="8.4361141"><ele>163.0</ele><time>2026-05-01T10:30:20.232Z</time></trkpt><trkpt lat="39.3196622" lon="8.4361826"><ele>163.0</ele><time>2026-05-01T10:30:21.231Z</time></trkpt><trkpt lat="39.3195688" lon="8.436224"><ele>160.8</ele><time>2026-05-01T10:30:22.231Z</time></trkpt><trkpt lat="39.3194683" lon="8.4362308"><ele>158.60000000000002</ele><time>2026-05-01T10:30:23.232Z</time></trkpt><trkpt lat="39.3193661" lon="8.4362119"><ele>156.39999999999998</ele><time>2026-05-01T10:30:24.232Z</time></trkpt><trkpt lat="39.319258" lon="8.4361946"><ele>154.2</ele><time>2026-05-01T10:30:25.231Z</time></trkpt><trkpt lat="39.3191426" lon="8.4361824"><ele>152.0</ele><time>2026-05-01T10:30:26.231Z</time></trkpt><trkpt lat="39.3190211" lon="8.436167"><ele>152.0</ele><time>2026-05-01T10:30:27.231Z</time></trkpt><trkpt lat="39.3188898" lon="8.4361475"><ele>152.0</ele><time>2026-05-01T10:30:28.232Z</time></trkpt><trkpt lat="39.3187611" lon="8.4361288"><ele>152.0</ele><time>2026-05-01T10:30:29.232Z</time></trkpt><trkpt lat="39.3186392" lon="8.4361081"><ele>152.0</ele><time>2026-05-01T10:30:30.232Z</time></trkpt><trkpt lat="39.3185233" lon="8.4360904"><ele>152.0</ele><time>2026-05-01T10:30:31.231Z</time></trkpt><trkpt lat="39.3184126" lon="8.4360867"><ele>152.0</ele><time>2026-05-01T10:30:32.232Z</time></trkpt><trkpt lat="39.3183077" lon="8.4361129"><ele>152.0</ele><time>2026-05-01T10:30:33.231Z</time></trkpt><trkpt lat="39.3182048" lon="8.4361703"><ele>152.0</ele><time>2026-05-01T10:30:34.231Z</time></trkpt><trkpt lat="39.3180962" lon="8.4362322"><ele>152.0</ele><time>2026-05-01T10:30:35.231Z</time></trkpt><trkpt lat="39.3179777" lon="8.4362745"><ele>151.5</ele><time>2026-05-01T10:30:36.232Z</time></trkpt><trkpt lat="39.3178526" lon="8.4362739"><ele>151.0</ele><time>2026-05-01T10:30:37.232Z</time></trkpt><trkpt lat="39.3177254" lon="8.4362498"><ele>150.5</ele><time>2026-05-01T10:30:38.232Z</time></trkpt><trkpt lat="39.3176089" lon="8.4362236"><ele>150.0</ele><time>2026-05-01T10:30:39.232Z</time></trkpt><trkpt lat="39.3174989" lon="8.4362165"><ele>150.0</ele><time>2026-05-01T10:30:40.231Z</time></trkpt><trkpt lat="39.3173955" lon="8.4362513"><ele>150.0</ele><time>2026-05-01T10:30:41.231Z</time></trkpt><trkpt lat="39.3173069" lon="8.4363238"><ele>150.0</ele><time>2026-05-01T10:30:42.231Z</time></trkpt><trkpt lat="39.3172319" lon="8.4364316"><ele>150.0</ele><time>2026-05-01T10:30:43.232Z</time></trkpt><trkpt lat="39.3171668" lon="8.4365585"><ele>150.0</ele><time>2026-05-01T10:30:44.231Z</time></trkpt><trkpt lat="39.3171129" lon="8.4367016"><ele>149.25</ele><time>2026-05-01T10:30:45.232Z</time></trkpt><trkpt lat="39.3170685" lon="8.4368658"><ele>148.5</ele><time>2026-05-01T10:30:46.232Z</time></trkpt><trkpt lat="39.3170287" lon="8.4370355"><ele>147.75</ele><time>2026-05-01T10:30:47.232Z</time></trkpt><trkpt lat="39.3169982" lon="8.4371934"><ele>147.0</ele><time>2026-05-01T10:30:48.231Z</time></trkpt><trkpt lat="39.3169738" lon="8.4373431"><ele>149.0</ele><time>2026-05-01T10:30:49.231Z</time></trkpt><trkpt lat="39.3169564" lon="8.4374806"><ele>151.0</ele><time>2026-05-01T10:30:50.232Z</time></trkpt><trkpt lat="39.3169339" lon="8.4376024"><ele>153.0</ele><time>2026-05-01T10:30:51.232Z</time></trkpt><trkpt lat="39.3168871" lon="8.4376985"><ele>155.0</ele><time>2026-05-01T10:30:52.232Z</time></trkpt><trkpt lat="39.3168264" lon="8.4377509"><ele>157.0</ele><time>2026-05-01T10:30:53.231Z</time></trkpt><trkpt lat="39.3167554" lon="8.4377734"><ele>159.0</ele><time>2026-05-01T10:30:54.232Z</time></trkpt><trkpt lat="39.3166732" lon="8.4377625"><ele>159.0</ele><time>2026-05-01T10:30:55.232Z</time></trkpt><trkpt lat="39.3165857" lon="8.4377223"><ele>159.0</ele><time>2026-05-01T10:30:56.231Z</time></trkpt><trkpt lat="39.3164897" lon="8.4376727"><ele>159.0</ele><time>2026-05-01T10:30:57.232Z</time></trkpt><trkpt lat="39.316385" lon="8.4376183"><ele>159.0</ele><time>2026-05-01T10:30:58.231Z</time></trkpt><trkpt lat="39.3162846" lon="8.4375626"><ele>159.0</ele><time>2026-05-01T10:30:59.231Z</time></trkpt><trkpt lat="39.3161938" lon="8.4375003"><ele>158.6</ele><time>2026-05-01T10:31:00.232Z</time></trkpt><trkpt lat="39.3161156" lon="8.437433"><ele>158.2</ele><time>2026-05-01T10:31:01.232Z</time></trkpt><trkpt lat="39.3160441" lon="8.4373624"><ele>157.79999999999998</ele><time>2026-05-01T10:31:02.232Z</time></trkpt><trkpt lat="39.3159756" lon="8.4372854"><ele>157.4</ele><time>2026-05-01T10:31:03.232Z</time></trkpt><trkpt lat="39.3159077" lon="8.4372048"><ele>157.0</ele><time>2026-05-01T10:31:04.232Z</time></trkpt><trkpt lat="39.3158638" lon="8.4371139"><ele>157.0</ele><time>2026-05-01T10:31:05.232Z</time></trkpt><trkpt lat="39.315854" lon="8.4370192"><ele>157.0</ele><time>2026-05-01T10:31:06.232Z</time></trkpt><trkpt lat="39.3158749" lon="8.4369268"><ele>157.0</ele><time>2026-05-01T10:31:07.232Z</time></trkpt><trkpt lat="39.3159112" lon="8.4368332"><ele>157.0</ele><time>2026-05-01T10:31:08.231Z</time></trkpt><trkpt lat="39.3159446" lon="8.4367152"><ele>157.0</ele><time>2026-05-01T10:31:09.232Z</time></trkpt><trkpt lat="39.3159642" lon="8.4365864"><ele>157.0</ele><time>2026-05-01T10:31:10.232Z</time></trkpt><trkpt lat="39.3159675" lon="8.4364582"><ele>157.0</ele><time>2026-05-01T10:31:11.232Z</time></trkpt><trkpt lat="39.3159507" lon="8.4363381"><ele>157.0</ele><time>2026-05-01T10:31:12.231Z</time></trkpt><trkpt lat="39.3159008" lon="8.4362341"><ele>157.0</ele><time>2026-05-01T10:31:13.231Z</time></trkpt><trkpt lat="39.3158243" lon="8.4361509"><ele>157.0</ele><time>2026-05-01T10:31:14.232Z</time></trkpt><trkpt lat="39.3157269" lon="8.4361042"><ele>157.0</ele><time>2026-05-01T10:31:15.231Z</time></trkpt><trkpt lat="39.315618" lon="8.4360973"><ele>156.0</ele><time>2026-05-01T10:31:16.232Z</time></trkpt><trkpt lat="39.3155082" lon="8.4361137"><ele>155.0</ele><time>2026-05-01T10:31:17.231Z</time></trkpt><trkpt lat="39.3154114" lon="8.4361333"><ele>154.0</ele><time>2026-05-01T10:31:18.231Z</time></trkpt><trkpt lat="39.3153192" lon="8.4361536"><ele>153.0</ele><time>2026-05-01T10:31:19.232Z</time></trkpt><trkpt lat="39.3152383" lon="8.4361698"><ele>152.0</ele><time>2026-05-01T10:31:20.232Z</time></trkpt><trkpt lat="39.3151651" lon="8.4361843"><ele>152.0</ele><time>2026-05-01T10:31:21.232Z</time></trkpt><trkpt lat="39.3150962" lon="8.4361999"><ele>152.0</ele><time>2026-05-01T10:31:22.231Z</time></trkpt><trkpt lat="39.3150311" lon="8.4362109"><ele>152.0</ele><time>2026-05-01T10:31:23.231Z</time></trkpt><trkpt lat="39.3149214" lon="8.4362383"><ele>152.0</ele><time>2026-05-01T10:31:25.232Z</time></trkpt><trkpt lat="39.3148379" lon="8.4362751"><ele>152.0</ele><time>2026-05-01T10:31:27.232Z</time></trkpt><trkpt lat="39.3147338" lon="8.4363557"><ele>152.5</ele><time>2026-05-01T10:31:29.232Z</time></trkpt><trkpt lat="39.3146816" lon="8.4364215"><ele>153.0</ele><time>2026-05-01T10:31:30.231Z</time></trkpt><trkpt lat="39.3146374" lon="8.4365022"><ele>153.5</ele><time>2026-05-01T10:31:31.231Z</time></trkpt><trkpt lat="39.3145994" lon="8.4365845"><ele>154.0</ele><time>2026-05-01T10:31:32.232Z</time></trkpt><trkpt lat="39.3145492" lon="8.436652"><ele>154.5</ele><time>2026-05-01T10:31:33.232Z</time></trkpt><trkpt lat="39.3144846" lon="8.436705"><ele>155.0</ele><time>2026-05-01T10:31:34.231Z</time></trkpt><trkpt lat="39.3144046" lon="8.4367341"><ele>155.0</ele><time>2026-05-01T10:31:35.231Z</time></trkpt><trkpt lat="39.3143214" lon="8.4367332"><ele>155.0</ele><time>2026-05-01T10:31:36.231Z</time></trkpt><trkpt lat="39.3142415" lon="8.4367199"><ele>155.0</ele><time>2026-05-01T10:31:37.231Z</time></trkpt><trkpt lat="39.3141663" lon="8.4366988"><ele>155.0</ele><time>2026-05-01T10:31:38.232Z</time></trkpt><trkpt lat="39.3140948" lon="8.4366716"><ele>155.0</ele><time>2026-05-01T10:31:39.231Z</time></trkpt><trkpt lat="39.3140293" lon="8.436637"><ele>155.0</ele><time>2026-05-01T10:31:40.232Z</time></trkpt><trkpt lat="39.3139692" lon="8.4365941"><ele>155.0</ele><time>2026-05-01T10:31:41.232Z</time></trkpt><trkpt lat="39.3139078" lon="8.4365462"><ele>155.0</ele><time>2026-05-01T10:31:42.231Z</time></trkpt><trkpt lat="39.3138403" lon="8.4364981"><ele>155.0</ele><time>2026-05-01T10:31:43.232Z</time></trkpt><trkpt lat="39.3137582" lon="8.4364627"><ele>155.0</ele><time>2026-05-01T10:31:44.232Z</time></trkpt><trkpt lat="39.3136675" lon="8.4364385"><ele>155.0</ele><time>2026-05-01T10:31:45.232Z</time></trkpt><trkpt lat="39.3135693" lon="8.4364253"><ele>155.0</ele><time>2026-05-01T10:31:46.232Z</time></trkpt><trkpt lat="39.3134776" lon="8.4364243"><ele>154.0</ele><time>2026-05-01T10:31:47.231Z</time></trkpt><trkpt lat="39.3133898" lon="8.4364411"><ele>153.0</ele><time>2026-05-01T10:31:48.231Z</time></trkpt><trkpt lat="39.3133014" lon="8.4364809"><ele>152.0</ele><time>2026-05-01T10:31:49.231Z</time></trkpt><trkpt lat="39.3132185" lon="8.4365467"><ele>151.0</ele><time>2026-05-01T10:31:50.231Z</time></trkpt><trkpt lat="39.3131342" lon="8.436621"><ele>150.0</ele><time>2026-05-01T10:31:51.232Z</time></trkpt><trkpt lat="39.3130401" lon="8.4366822"><ele>149.0</ele><time>2026-05-01T10:31:52.231Z</time></trkpt><trkpt lat="39.3129496" lon="8.4367299"><ele>148.0</ele><time>2026-05-01T10:31:53.232Z</time></trkpt><trkpt lat="39.3128648" lon="8.4367683"><ele>147.0</ele><time>2026-05-01T10:31:54.231Z</time></trkpt><trkpt lat="39.3127828" lon="8.436779"><ele>146.0</ele><time>2026-05-01T10:31:55.232Z</time></trkpt><trkpt lat="39.3127046" lon="8.436759"><ele>145.0</ele><time>2026-05-01T10:31:56.232Z</time></trkpt><trkpt lat="39.3126176" lon="8.4367253"><ele>144.0</ele><time>2026-05-01T10:31:57.232Z</time></trkpt><trkpt lat="39.312521" lon="8.4367007"><ele>144.0</ele><time>2026-05-01T10:31:58.232Z</time></trkpt><trkpt lat="39.3124133" lon="8.4367003"><ele>144.0</ele><time>2026-05-01T10:31:59.232Z</time></trkpt><trkpt lat="39.31231" lon="8.4367265"><ele>144.0</ele><time>2026-05-01T10:32:00.231Z</time></trkpt><trkpt lat="39.3122144" lon="8.4367778"><ele>144.0</ele><time>2026-05-01T10:32:01.231Z</time></trkpt><trkpt lat="39.312133" lon="8.4368618"><ele>144.0</ele><time>2026-05-01T10:32:02.231Z</time></trkpt><trkpt lat="39.3120733" lon="8.4369718"><ele>143.5</ele><time>2026-05-01T10:32:03.232Z</time></trkpt><trkpt lat="39.3120207" lon="8.4370992"><ele>143.0</ele><time>2026-05-01T10:32:04.231Z</time></trkpt><trkpt lat="39.3119587" lon="8.437219"><ele>142.5</ele><time>2026-05-01T10:32:05.231Z</time></trkpt><trkpt lat="39.3118688" lon="8.4373103"><ele>142.0</ele><time>2026-05-01T10:32:06.232Z</time></trkpt><trkpt lat="39.3117655" lon="8.4373694"><ele>143.25</ele><time>2026-05-01T10:32:07.231Z</time></trkpt><trkpt lat="39.3116523" lon="8.4373883"><ele>144.5</ele><time>2026-05-01T10:32:08.232Z</time></trkpt><trkpt lat="39.3115323" lon="8.4373754"><ele>145.75</ele><time>2026-05-01T10:32:09.231Z</time></trkpt><trkpt lat="39.3114253" lon="8.4373328"><ele>147.0</ele><time>2026-05-01T10:32:10.231Z</time></trkpt><trkpt lat="39.3113317" lon="8.4372606"><ele>147.6</ele><time>2026-05-01T10:32:11.232Z</time></trkpt><trkpt lat="39.3112507" lon="8.4371763"><ele>148.2</ele><time>2026-05-01T10:32:12.231Z</time></trkpt><trkpt lat="39.3111775" lon="8.4371026"><ele>148.8</ele><time>2026-05-01T10:32:13.231Z</time></trkpt><trkpt lat="39.3111034" lon="8.4370453"><ele>149.4</ele><time>2026-05-01T10:32:14.232Z</time></trkpt><trkpt lat="39.3110224" lon="8.4370165"><ele>150.0</ele><time>2026-05-01T10:32:15.232Z</time></trkpt><trkpt lat="39.3109341" lon="8.4370177"><ele>147.2</ele><time>2026-05-01T10:32:16.232Z</time></trkpt><trkpt lat="39.3108393" lon="8.437046"><ele>144.4</ele><time>2026-05-01T10:32:17.231Z</time></trkpt><trkpt lat="39.3107356" lon="8.4370878"><ele>141.6</ele><time>2026-05-01T10:32:18.231Z</time></trkpt><trkpt lat="39.310621" lon="8.4371226"><ele>138.8</ele><time>2026-05-01T10:32:19.231Z</time></trkpt><trkpt lat="39.3104999" lon="8.4371328"><ele>136.0</ele><time>2026-05-01T10:32:20.232Z</time></trkpt><trkpt lat="39.310375" lon="8.4371313"><ele>139.0</ele><time>2026-05-01T10:32:21.231Z</time></trkpt><trkpt lat="39.3102539" lon="8.4371373"><ele>142.0</ele><time>2026-05-01T10:32:22.232Z</time></trkpt><trkpt lat="39.3101425" lon="8.4371747"><ele>145.0</ele><time>2026-05-01T10:32:23.232Z</time></trkpt><trkpt lat="39.3100361" lon="8.4372216"><ele>148.0</ele><time>2026-05-01T10:32:24.232Z</time></trkpt><trkpt lat="39.3099247" lon="8.4372486"><ele>148.0</ele><time>2026-05-01T10:32:25.231Z</time></trkpt><trkpt lat="39.3098104" lon="8.4372466"><ele>148.0</ele><time>2026-05-01T10:32:26.232Z</time></trkpt><trkpt lat="39.3096996" lon="8.4372281"><ele>148.0</ele><time>2026-05-01T10:32:27.231Z</time></trkpt><trkpt lat="39.309593" lon="8.4372055"><ele>148.0</ele><time>2026-05-01T10:32:28.231Z</time></trkpt><trkpt lat="39.3094889" lon="8.4371821"><ele>148.0</ele><time>2026-05-01T10:32:29.232Z</time></trkpt><trkpt lat="39.3093825" lon="8.437158"><ele>147.0</ele><time>2026-05-01T10:32:30.232Z</time></trkpt><trkpt lat="39.3092808" lon="8.4371365"><ele>146.0</ele><time>2026-05-01T10:32:31.232Z</time></trkpt><trkpt lat="39.309187" lon="8.4371188"><ele>145.0</ele><time>2026-05-01T10:32:32.231Z</time></trkpt><trkpt lat="39.3091045" lon="8.4370996"><ele>144.0</ele><time>2026-05-01T10:32:33.231Z</time></trkpt><trkpt lat="39.3090281" lon="8.4370801"><ele>143.0</ele><time>2026-05-01T10:32:34.232Z</time></trkpt><trkpt lat="39.3089573" lon="8.4370731"><ele>142.0</ele><time>2026-05-01T10:32:35.232Z</time></trkpt><trkpt lat="39.3088877" lon="8.4370793"><ele>138.33333333333334</ele><time>2026-05-01T10:32:36.232Z</time></trkpt><trkpt lat="39.3088174" lon="8.4370985"><ele>134.66666666666669</ele><time>2026-05-01T10:32:37.231Z</time></trkpt><trkpt lat="39.3087514" lon="8.437143"><ele>131.0</ele><time>2026-05-01T10:32:38.232Z</time></trkpt><trkpt lat="39.3086943" lon="8.437212"><ele>127.33333333333334</ele><time>2026-05-01T10:32:39.231Z</time></trkpt><trkpt lat="39.3086467" lon="8.4373005"><ele>123.66666666666667</ele><time>2026-05-01T10:32:40.231Z</time></trkpt><trkpt lat="39.3085982" lon="8.4374"><ele>120.0</ele><time>2026-05-01T10:32:41.231Z</time></trkpt><trkpt lat="39.3085521" lon="8.437499"><ele>120.0</ele><time>2026-05-01T10:32:42.231Z</time></trkpt><trkpt lat="39.308507" lon="8.4375967"><ele>120.0</ele><time>2026-05-01T10:32:43.232Z</time></trkpt><trkpt lat="39.3084626" lon="8.4377005"><ele>120.0</ele><time>2026-05-01T10:32:44.232Z</time></trkpt><trkpt lat="39.3084204" lon="8.4378112"><ele>120.0</ele><time>2026-05-01T10:32:45.232Z</time></trkpt><trkpt lat="39.308379" lon="8.4379247"><ele>120.0</ele><time>2026-05-01T10:32:46.232Z</time></trkpt><trkpt lat="39.3083411" lon="8.4380427"><ele>121.4</ele><time>2026-05-01T10:32:47.231Z</time></trkpt><trkpt lat="39.3083234" lon="8.4381652"><ele>122.8</ele><time>2026-05-01T10:32:48.232Z</time></trkpt><trkpt lat="39.3083274" lon="8.4382977"><ele>124.19999999999999</ele><time>2026-05-01T10:32:49.231Z</time></trkpt><trkpt lat="39.3083489" lon="8.4384252"><ele>125.6</ele><time>2026-05-01T10:32:50.231Z</time></trkpt><trkpt lat="39.3083834" lon="8.4385427"><ele>127.0</ele><time>2026-05-01T10:32:51.232Z</time></trkpt><trkpt lat="39.3084253" lon="8.4386564"><ele>127.00000000000001</ele><time>2026-05-01T10:32:52.231Z</time></trkpt><trkpt lat="39.3084683" lon="8.4387647"><ele>127.0</ele><time>2026-05-01T10:32:53.232Z</time></trkpt><trkpt lat="39.3085031" lon="8.4388689"><ele>127.0</ele><time>2026-05-01T10:32:54.232Z</time></trkpt><trkpt lat="39.3085381" lon="8.4389688"><ele>127.0</ele><time>2026-05-01T10:32:55.231Z</time></trkpt><trkpt lat="39.3085683" lon="8.4390706"><ele>127.00000000000001</ele><time>2026-05-01T10:32:56.232Z</time></trkpt><trkpt lat="39.3085931" lon="8.4391738"><ele>127.0</ele><time>2026-05-01T10:32:57.231Z</time></trkpt><trkpt lat="39.3086049" lon="8.4392755"><ele>126.83333333333334</ele><time>2026-05-01T10:32:58.232Z</time></trkpt><trkpt lat="39.3086023" lon="8.4393767"><ele>126.66666666666667</ele><time>2026-05-01T10:32:59.231Z</time></trkpt><trkpt lat="39.3085816" lon="8.4394838"><ele>126.5</ele><time>2026-05-01T10:33:00.231Z</time></trkpt><trkpt lat="39.3085367" lon="8.4395788"><ele>126.33333333333334</ele><time>2026-05-01T10:33:01.232Z</time></trkpt><trkpt lat="39.3084682" lon="8.4396587"><ele>126.16666666666667</ele><time>2026-05-01T10:33:02.231Z</time></trkpt><trkpt lat="39.308379" lon="8.4397063"><ele>126.0</ele><time>2026-05-01T10:33:03.232Z</time></trkpt><trkpt lat="39.3082734" lon="8.4397221"><ele>128.0</ele><time>2026-05-01T10:33:04.232Z</time></trkpt><trkpt lat="39.3081586" lon="8.4397144"><ele>130.0</ele><time>2026-05-01T10:33:05.232Z</time></trkpt><trkpt lat="39.308034" lon="8.4396961"><ele>132.0</ele><time>2026-05-01T10:33:06.231Z</time></trkpt><trkpt lat="39.3079051" lon="8.4396785"><ele>134.0</ele><time>2026-05-01T10:33:07.231Z</time></trkpt><trkpt lat="39.3077751" lon="8.4396562"><ele>129.75</ele><time>2026-05-01T10:33:08.232Z</time></trkpt><trkpt lat="39.3076404" lon="8.4396256"><ele>125.5</ele><time>2026-05-01T10:33:09.232Z</time></trkpt><trkpt lat="39.307512" lon="8.4395786"><ele>121.25</ele><time>2026-05-01T10:33:10.231Z</time></trkpt><trkpt lat="39.3073869" lon="8.439521"><ele>117.0</ele><time>2026-05-01T10:33:11.231Z</time></trkpt><trkpt lat="39.3072695" lon="8.4394522"><ele>116.8</ele><time>2026-05-01T10:33:12.232Z</time></trkpt><trkpt lat="39.3071633" lon="8.4393862"><ele>116.6</ele><time>2026-05-01T10:33:13.232Z</time></trkpt><trkpt lat="39.3070645" lon="8.4393218"><ele>116.39999999999999</ele><time>2026-05-01T10:33:14.231Z</time></trkpt><trkpt lat="39.3069727" lon="8.4392905"><ele>116.19999999999999</ele><time>2026-05-01T10:33:15.231Z</time></trkpt><trkpt lat="39.3068863" lon="8.4393063"><ele>116.0</ele><time>2026-05-01T10:33:16.231Z</time></trkpt><trkpt lat="39.3068131" lon="8.4393679"><ele>116.0</ele><time>2026-05-01T10:33:17.232Z</time></trkpt><trkpt lat="39.306767" lon="8.4394669"><ele>116.0</ele><time>2026-05-01T10:33:18.231Z</time></trkpt><trkpt lat="39.3067346" lon="8.4395983"><ele>116.0</ele><time>2026-05-01T10:33:19.232Z</time></trkpt><trkpt lat="39.3067123" lon="8.439761"><ele>116.0</ele><time>2026-05-01T10:33:20.231Z</time></trkpt><trkpt lat="39.3066954" lon="8.439932"><ele>117.6</ele><time>2026-05-01T10:33:21.232Z</time></trkpt><trkpt lat="39.306683" lon="8.4400902"><ele>119.19999999999999</ele><time>2026-05-01T10:33:22.232Z</time></trkpt><trkpt lat="39.3066724" lon="8.4402402"><ele>120.80000000000001</ele><time>2026-05-01T10:33:23.232Z</time></trkpt><trkpt lat="39.3066648" lon="8.440342"><ele>122.4</ele><time>2026-05-01T10:33:24.232Z</time></trkpt><trkpt lat="39.3066502" lon="8.4404772"><ele>124.0</ele><time>2026-05-01T10:33:26.231Z</time></trkpt><trkpt lat="39.3066161" lon="8.4405711"><ele>124.83333333333334</ele><time>2026-05-01T10:33:28.231Z</time></trkpt><trkpt lat="39.3065213" lon="8.4406366"><ele>125.66666666666667</ele><time>2026-05-01T10:33:30.231Z</time></trkpt><trkpt lat="39.306456" lon="8.4406354"><ele>126.5</ele><time>2026-05-01T10:33:31.232Z</time></trkpt><trkpt lat="39.3063908" lon="8.4405992"><ele>127.33333333333334</ele><time>2026-05-01T10:33:32.231Z</time></trkpt><trkpt lat="39.3063422" lon="8.4405273"><ele>128.16666666666666</ele><time>2026-05-01T10:33:33.232Z</time></trkpt><trkpt lat="39.3063026" lon="8.4404368"><ele>129.0</ele><time>2026-05-01T10:33:34.232Z</time></trkpt><trkpt lat="39.3062626" lon="8.4403392"><ele>131.33333333333334</ele><time>2026-05-01T10:33:35.232Z</time></trkpt><trkpt lat="39.3062235" lon="8.4402417"><ele>133.66666666666666</ele><time>2026-05-01T10:33:36.232Z</time></trkpt><trkpt lat="39.306189" lon="8.4401422"><ele>136.0</ele><time>2026-05-01T10:33:37.232Z</time></trkpt><trkpt lat="39.3061697" lon="8.4400367"><ele>138.33333333333331</ele><time>2026-05-01T10:33:38.231Z</time></trkpt><trkpt lat="39.3061708" lon="8.4399226"><ele>140.66666666666666</ele><time>2026-05-01T10:33:39.231Z</time></trkpt><trkpt lat="39.3061902" lon="8.4398143"><ele>143.0</ele><time>2026-05-01T10:33:40.232Z</time></trkpt><trkpt lat="39.3062139" lon="8.4397072"><ele>141.20000000000002</ele><time>2026-05-01T10:33:41.231Z</time></trkpt><trkpt lat="39.3062279" lon="8.439594"><ele>139.4</ele><time>2026-05-01T10:33:42.231Z</time></trkpt><trkpt lat="39.3062261" lon="8.4394785"><ele>137.60000000000002</ele><time>2026-05-01T10:33:43.232Z</time></trkpt><trkpt lat="39.3062151" lon="8.4393605"><ele>135.8</ele><time>2026-05-01T10:33:44.232Z</time></trkpt><trkpt lat="39.3062005" lon="8.4392405"><ele>134.0</ele><time>2026-05-01T10:33:45.232Z</time></trkpt><trkpt lat="39.3061741" lon="8.4391335"><ele>134.0</ele><time>2026-05-01T10:33:46.232Z</time></trkpt><trkpt lat="39.3061263" lon="8.439039"><ele>134.0</ele><time>2026-05-01T10:33:47.231Z</time></trkpt><trkpt lat="39.3060661" lon="8.4389544"><ele>134.0</ele><time>2026-05-01T10:33:48.231Z</time></trkpt><trkpt lat="39.3060045" lon="8.4388686"><ele>134.0</ele><time>2026-05-01T10:33:49.231Z</time></trkpt><trkpt lat="39.3059585" lon="8.4387666"><ele>134.0</ele><time>2026-05-01T10:33:50.232Z</time></trkpt><trkpt lat="39.3059345" lon="8.4386494"><ele>133.66666666666666</ele><time>2026-05-01T10:33:51.231Z</time></trkpt><trkpt lat="39.3059254" lon="8.4385298"><ele>133.33333333333331</ele><time>2026-05-01T10:33:52.232Z</time></trkpt><trkpt lat="39.3059235" lon="8.4384234"><ele>133.0</ele><time>2026-05-01T10:33:53.231Z</time></trkpt><trkpt lat="39.3059345" lon="8.4383198"><ele>132.66666666666666</ele><time>2026-05-01T10:33:54.231Z</time></trkpt><trkpt lat="39.3059516" lon="8.438221"><ele>132.33333333333334</ele><time>2026-05-01T10:33:55.231Z</time></trkpt><trkpt lat="39.305976" lon="8.4381211"><ele>132.0</ele><time>2026-05-01T10:33:56.232Z</time></trkpt><trkpt lat="39.3060089" lon="8.4380267"><ele>134.6</ele><time>2026-05-01T10:33:57.232Z</time></trkpt><trkpt lat="39.3060528" lon="8.4379358"><ele>137.2</ele><time>2026-05-01T10:33:58.231Z</time></trkpt><trkpt lat="39.3061049" lon="8.4378484"><ele>139.8</ele><time>2026-05-01T10:33:59.231Z</time></trkpt><trkpt lat="39.3061702" lon="8.4377673"><ele>142.4</ele><time>2026-05-01T10:34:00.231Z</time></trkpt><trkpt lat="39.3062506" lon="8.4377005"><ele>145.0</ele><time>2026-05-01T10:34:01.232Z</time></trkpt><trkpt lat="39.3063399" lon="8.4376402"><ele>137.6</ele><time>2026-05-01T10:34:02.231Z</time></trkpt><trkpt lat="39.3064346" lon="8.4375885"><ele>130.2</ele><time>2026-05-01T10:34:03.231Z</time></trkpt><trkpt lat="39.3065322" lon="8.4375483"><ele>122.80000000000001</ele><time>2026-05-01T10:34:04.232Z</time></trkpt><trkpt lat="39.3066264" lon="8.4375211"><ele>115.4</ele><time>2026-05-01T10:34:05.231Z</time></trkpt><trkpt lat="39.3067154" lon="8.4374987"><ele>108.0</ele><time>2026-05-01T10:34:06.231Z</time></trkpt><trkpt lat="39.3067977" lon="8.4374676"><ele>108.0</ele><time>2026-05-01T10:34:07.231Z</time></trkpt><trkpt lat="39.3068694" lon="8.4374205"><ele>108.00000000000001</ele><time>2026-05-01T10:34:08.232Z</time></trkpt><trkpt lat="39.3069187" lon="8.4373576"><ele>108.00000000000001</ele><time>2026-05-01T10:34:09.231Z</time></trkpt><trkpt lat="39.3069454" lon="8.4372116"><ele>108.0</ele><time>2026-05-01T10:34:11.231Z</time></trkpt><trkpt lat="39.3069218" lon="8.4370483"><ele>108.0</ele><time>2026-05-01T10:34:13.231Z</time></trkpt><trkpt lat="39.3069029" lon="8.43697"><ele>109.14285714285714</ele><time>2026-05-01T10:34:14.231Z</time></trkpt><trkpt lat="39.3068781" lon="8.4368936"><ele>110.28571428571428</ele><time>2026-05-01T10:34:15.231Z</time></trkpt><trkpt lat="39.3068463" lon="8.4368232"><ele>111.42857142857144</ele><time>2026-05-01T10:34:16.232Z</time></trkpt><trkpt lat="39.3068074" lon="8.4367467"><ele>112.57142857142858</ele><time>2026-05-01T10:34:17.231Z</time></trkpt><trkpt lat="39.3067684" lon="8.4366694"><ele>113.71428571428572</ele><time>2026-05-01T10:34:18.231Z</time></trkpt><trkpt lat="39.3067395" lon="8.4365929"><ele>114.85714285714288</ele><time>2026-05-01T10:34:19.231Z</time></trkpt><trkpt lat="39.3067297" lon="8.43651"><ele>116.00000000000001</ele><time>2026-05-01T10:34:20.231Z</time></trkpt><trkpt lat="39.3067411" lon="8.4364183"><ele>115.99999999999999</ele><time>2026-05-01T10:34:21.232Z</time></trkpt><trkpt lat="39.3067677" lon="8.4363385"><ele>116.0</ele><time>2026-05-01T10:34:22.232Z</time></trkpt><trkpt lat="39.306796" lon="8.4362605"><ele>116.0</ele><time>2026-05-01T10:34:23.231Z</time></trkpt><trkpt lat="39.3068151" lon="8.4361823"><ele>116.0</ele><time>2026-05-01T10:34:24.232Z</time></trkpt><trkpt lat="39.3068226" lon="8.4360398"><ele>115.99999999999999</ele><time>2026-05-01T10:34:26.232Z</time></trkpt><trkpt lat="39.3067486" lon="8.4359434"><ele>116.0</ele><time>2026-05-01T10:34:28.232Z</time></trkpt><trkpt lat="39.3066432" lon="8.4358671"><ele>116.14285714285717</ele><time>2026-05-01T10:34:30.231Z</time></trkpt><trkpt lat="39.3065865" lon="8.4358192"><ele>116.28571428571429</ele><time>2026-05-01T10:34:31.231Z</time></trkpt><trkpt lat="39.3065304" lon="8.435763"><ele>116.42857142857144</ele><time>2026-05-01T10:34:32.232Z</time></trkpt><trkpt lat="39.3064746" lon="8.4357091"><ele>116.57142857142858</ele><time>2026-05-01T10:34:33.232Z</time></trkpt><trkpt lat="39.3064213" lon="8.4356577"><ele>116.71428571428572</ele><time>2026-05-01T10:34:34.231Z</time></trkpt><trkpt lat="39.3063677" lon="8.4356037"><ele>116.85714285714286</ele><time>2026-05-01T10:34:35.232Z</time></trkpt><trkpt lat="39.3063125" lon="8.435553"><ele>117.0</ele><time>2026-05-01T10:34:36.231Z</time></trkpt><trkpt lat="39.3062535" lon="8.4354987"><ele>110.83333333333333</ele><time>2026-05-01T10:34:37.231Z</time></trkpt><trkpt lat="39.3061856" lon="8.4354541"><ele>104.66666666666667</ele><time>2026-05-01T10:34:38.232Z</time></trkpt><trkpt lat="39.3061075" lon="8.4354256"><ele>98.5</ele><time>2026-05-01T10:34:39.231Z</time></trkpt><trkpt lat="39.3060273" lon="8.4354103"><ele>92.33333333333334</ele><time>2026-05-01T10:34:40.231Z</time></trkpt><trkpt lat="39.3059488" lon="8.4354144"><ele>86.16666666666667</ele><time>2026-05-01T10:34:41.232Z</time></trkpt><trkpt lat="39.3058713" lon="8.4354289"><ele>80.0</ele><time>2026-05-01T10:34:42.232Z</time></trkpt><trkpt lat="39.3057938" lon="8.4354534"><ele>82.66666666666667</ele><time>2026-05-01T10:34:43.232Z</time></trkpt><trkpt lat="39.3057177" lon="8.4354821"><ele>85.33333333333334</ele><time>2026-05-01T10:34:44.231Z</time></trkpt><trkpt lat="39.3056416" lon="8.4355234"><ele>88.0</ele><time>2026-05-01T10:34:45.232Z</time></trkpt><trkpt lat="39.3055598" lon="8.4355678"><ele>90.66666666666667</ele><time>2026-05-01T10:34:46.231Z</time></trkpt><trkpt lat="39.3054732" lon="8.4356133"><ele>93.33333333333333</ele><time>2026-05-01T10:34:47.231Z</time></trkpt><trkpt lat="39.3053833" lon="8.4356607"><ele>96.0</ele><time>2026-05-01T10:34:48.232Z</time></trkpt><trkpt lat="39.3052929" lon="8.4357176"><ele>96.0</ele><time>2026-05-01T10:34:49.231Z</time></trkpt><trkpt lat="39.3052036" lon="8.4357863"><ele>96.0</ele><time>2026-05-01T10:34:50.232Z</time></trkpt><trkpt lat="39.3051242" lon="8.435872"><ele>96.0</ele><time>2026-05-01T10:34:51.231Z</time></trkpt><trkpt lat="39.3050418" lon="8.4359578"><ele>96.0</ele><time>2026-05-01T10:34:52.232Z</time></trkpt><trkpt lat="39.304947" lon="8.4360205"><ele>96.0</ele><time>2026-05-01T10:34:53.232Z</time></trkpt><trkpt lat="39.3048388" lon="8.4360602"><ele>90.5</ele><time>2026-05-01T10:34:54.232Z</time></trkpt><trkpt lat="39.3047245" lon="8.4361022"><ele>85.0</ele><time>2026-05-01T10:34:55.231Z</time></trkpt><trkpt lat="39.3046063" lon="8.4361433"><ele>79.5</ele><time>2026-05-01T10:34:56.231Z</time></trkpt><trkpt lat="39.304483" lon="8.4361851"><ele>74.0</ele><time>2026-05-01T10:34:57.232Z</time></trkpt><trkpt lat="39.3043554" lon="8.4362272"><ele>74.0</ele><time>2026-05-01T10:34:58.231Z</time></trkpt><trkpt lat="39.3042232" lon="8.4362723"><ele>74.0</ele><time>2026-05-01T10:34:59.231Z</time></trkpt><trkpt lat="39.3040881" lon="8.4363182"><ele>74.0</ele><time>2026-05-01T10:35:00.232Z</time></trkpt><trkpt lat="39.303952" lon="8.436363"><ele>74.0</ele><time>2026-05-01T10:35:01.231Z</time></trkpt><trkpt lat="39.3038125" lon="8.4364104"><ele>80.5</ele><time>2026-05-01T10:35:02.232Z</time></trkpt><trkpt lat="39.3036722" lon="8.4364613"><ele>87.0</ele><time>2026-05-01T10:35:03.231Z</time></trkpt><trkpt lat="39.3035382" lon="8.436518"><ele>93.5</ele><time>2026-05-01T10:35:04.232Z</time></trkpt><trkpt lat="39.3034121" lon="8.4365674"><ele>100.0</ele><time>2026-05-01T10:35:05.231Z</time></trkpt><trkpt lat="39.3032843" lon="8.4365904"><ele>100.0</ele><time>2026-05-01T10:35:06.231Z</time></trkpt><trkpt lat="39.3031623" lon="8.436599"><ele>100.0</ele><time>2026-05-01T10:35:07.232Z</time></trkpt><trkpt lat="39.3030533" lon="8.4365944"><ele>100.0</ele><time>2026-05-01T10:35:08.232Z</time></trkpt><trkpt lat="39.3029514" lon="8.4365985"><ele>100.0</ele><time>2026-05-01T10:35:09.231Z</time></trkpt><trkpt lat="39.3028582" lon="8.4366477"><ele>100.0</ele><time>2026-05-01T10:35:10.232Z</time></trkpt><trkpt lat="39.3027785" lon="8.436725"><ele>97.0</ele><time>2026-05-01T10:35:11.231Z</time></trkpt><trkpt lat="39.3027064" lon="8.4368103"><ele>94.0</ele><time>2026-05-01T10:35:12.231Z</time></trkpt><trkpt lat="39.3026321" lon="8.4368905"><ele>91.0</ele><time>2026-05-01T10:35:13.231Z</time></trkpt><trkpt lat="39.3025637" lon="8.4369729"><ele>88.0</ele><time>2026-05-01T10:35:14.231Z</time></trkpt><trkpt lat="39.3024866" lon="8.4370189"><ele>85.0</ele><time>2026-05-01T10:35:15.231Z</time></trkpt><trkpt lat="39.3024029" lon="8.4370197"><ele>85.0</ele><time>2026-05-01T10:35:16.231Z</time></trkpt><trkpt lat="39.3023279" lon="8.4369795"><ele>85.0</ele><time>2026-05-01T10:35:17.231Z</time></trkpt><trkpt lat="39.3022604" lon="8.4369197"><ele>85.0</ele><time>2026-05-01T10:35:18.232Z</time></trkpt><trkpt lat="39.302193" lon="8.4368488"><ele>85.0</ele><time>2026-05-01T10:35:19.232Z</time></trkpt><trkpt lat="39.3021281" lon="8.4367633"><ele>85.0</ele><time>2026-05-01T10:35:20.231Z</time></trkpt><trkpt lat="39.3020645" lon="8.4366826"><ele>85.0</ele><time>2026-05-01T10:35:21.231Z</time></trkpt><trkpt lat="39.3020022" lon="8.4365995"><ele>82.33333333333333</ele><time>2026-05-01T10:35:22.231Z</time></trkpt><trkpt lat="39.3019405" lon="8.4365201"><ele>79.66666666666666</ele><time>2026-05-01T10:35:23.232Z</time></trkpt><trkpt lat="39.3018764" lon="8.4364419"><ele>77.0</ele><time>2026-05-01T10:35:24.231Z</time></trkpt><trkpt lat="39.3018122" lon="8.4363667"><ele>74.33333333333333</ele><time>2026-05-01T10:35:25.231Z</time></trkpt><trkpt lat="39.30175" lon="8.4362938"><ele>71.66666666666667</ele><time>2026-05-01T10:35:26.231Z</time></trkpt><trkpt lat="39.3016816" lon="8.4362141"><ele>69.0</ele><time>2026-05-01T10:35:27.232Z</time></trkpt><trkpt lat="39.3016136" lon="8.4361386"><ele>69.0</ele><time>2026-05-01T10:35:28.231Z</time></trkpt><trkpt lat="39.3015431" lon="8.4360694"><ele>69.0</ele><time>2026-05-01T10:35:29.232Z</time></trkpt><trkpt lat="39.3014665" lon="8.4360195"><ele>69.0</ele><time>2026-05-01T10:35:30.232Z</time></trkpt><trkpt lat="39.3013886" lon="8.4359852"><ele>69.0</ele><time>2026-05-01T10:35:31.232Z</time></trkpt><trkpt lat="39.3013097" lon="8.4359628"><ele>69.0</ele><time>2026-05-01T10:35:32.232Z</time></trkpt><trkpt lat="39.3012312" lon="8.4359375"><ele>69.0</ele><time>2026-05-01T10:35:33.231Z</time></trkpt><trkpt lat="39.3011538" lon="8.4359177"><ele>70.60000000000001</ele><time>2026-05-01T10:35:34.231Z</time></trkpt><trkpt lat="39.3010662" lon="8.4358902"><ele>72.2</ele><time>2026-05-01T10:35:35.232Z</time></trkpt><trkpt lat="39.3009739" lon="8.4358578"><ele>73.80000000000001</ele><time>2026-05-01T10:35:36.231Z</time></trkpt><trkpt lat="39.300874" lon="8.4358269"><ele>75.4</ele><time>2026-05-01T10:35:37.231Z</time></trkpt><trkpt lat="39.300769" lon="8.4357946"><ele>77.0</ele><time>2026-05-01T10:35:38.232Z</time></trkpt><trkpt lat="39.3006576" lon="8.4357789"><ele>75.33333333333334</ele><time>2026-05-01T10:35:39.232Z</time></trkpt><trkpt lat="39.3005455" lon="8.4357795"><ele>73.66666666666667</ele><time>2026-05-01T10:35:40.232Z</time></trkpt><trkpt lat="39.3004426" lon="8.4357945"><ele>72.0</ele><time>2026-05-01T10:35:41.232Z</time></trkpt><trkpt lat="39.3003575" lon="8.4358155"><ele>70.33333333333333</ele><time>2026-05-01T10:35:42.232Z</time></trkpt><trkpt lat="39.3002859" lon="8.4358473"><ele>68.66666666666666</ele><time>2026-05-01T10:35:43.231Z</time></trkpt><trkpt lat="39.3002238" lon="8.4358874"><ele>67.0</ele><time>2026-05-01T10:35:44.232Z</time></trkpt><trkpt lat="39.3001824" lon="8.4359513"><ele>67.0</ele><time>2026-05-01T10:35:45.231Z</time></trkpt><trkpt lat="39.3001606" lon="8.4361083"><ele>67.0</ele><time>2026-05-01T10:35:47.232Z</time></trkpt><trkpt lat="39.3001239" lon="8.4362573"><ele>67.0</ele><time>2026-05-01T10:35:49.232Z</time></trkpt><trkpt lat="39.3000179" lon="8.4363331"><ele>67.0</ele><time>2026-05-01T10:35:51.232Z</time></trkpt><trkpt lat="39.2998954" lon="8.4363039"><ele>67.0</ele><time>2026-05-01T10:35:53.231Z</time></trkpt><trkpt lat="39.2998341" lon="8.4362695"><ele>67.0</ele><time>2026-05-01T10:35:54.232Z</time></trkpt><trkpt lat="39.2997746" lon="8.4362348"><ele>67.0</ele><time>2026-05-01T10:35:55.232Z</time></trkpt><trkpt lat="39.2996579" lon="8.4361746"><ele>67.0</ele><time>2026-05-01T10:35:57.231Z</time></trkpt><trkpt lat="39.2995388" lon="8.4361128"><ele>67.0</ele><time>2026-05-01T10:35:59.231Z</time></trkpt><trkpt lat="39.2994746" lon="8.4360714"><ele>68.0</ele><time>2026-05-01T10:36:00.232Z</time></trkpt><trkpt lat="39.2994124" lon="8.4360122"><ele>69.0</ele><time>2026-05-01T10:36:01.231Z</time></trkpt><trkpt lat="39.2993541" lon="8.4359335"><ele>70.0</ele><time>2026-05-01T10:36:02.231Z</time></trkpt><trkpt lat="39.299304" lon="8.4358441"><ele>71.0</ele><time>2026-05-01T10:36:03.231Z</time></trkpt><trkpt lat="39.2992592" lon="8.4357508"><ele>72.0</ele><time>2026-05-01T10:36:04.231Z</time></trkpt><trkpt lat="39.2992089" lon="8.435668"><ele>73.0</ele><time>2026-05-01T10:36:05.232Z</time></trkpt><trkpt lat="39.2991449" lon="8.4356131"><ele>73.0</ele><time>2026-05-01T10:36:06.231Z</time></trkpt><trkpt lat="39.2990696" lon="8.435582"><ele>73.0</ele><time>2026-05-01T10:36:07.231Z</time></trkpt><trkpt lat="39.2989887" lon="8.435567"><ele>73.0</ele><time>2026-05-01T10:36:08.232Z</time></trkpt><trkpt lat="39.2989109" lon="8.4355589"><ele>73.0</ele><time>2026-05-01T10:36:09.232Z</time></trkpt><trkpt lat="39.2988325" lon="8.4355481"><ele>73.0</ele><time>2026-05-01T10:36:10.231Z</time></trkpt><trkpt lat="39.2987528" lon="8.435535"><ele>73.0</ele><time>2026-05-01T10:36:11.232Z</time></trkpt><trkpt lat="39.2986711" lon="8.435528"><ele>74.0</ele><time>2026-05-01T10:36:12.232Z</time></trkpt><trkpt lat="39.2985883" lon="8.4355293"><ele>75.0</ele><time>2026-05-01T10:36:13.231Z</time></trkpt><trkpt lat="39.2985032" lon="8.4355346"><ele>76.0</ele><time>2026-05-01T10:36:14.232Z</time></trkpt><trkpt lat="39.2984155" lon="8.4355476"><ele>77.0</ele><time>2026-05-01T10:36:15.231Z</time></trkpt><trkpt lat="39.2983196" lon="8.4355623"><ele>78.0</ele><time>2026-05-01T10:36:16.231Z</time></trkpt><trkpt lat="39.2982181" lon="8.4355818"><ele>78.0</ele><time>2026-05-01T10:36:17.231Z</time></trkpt><trkpt lat="39.2981067" lon="8.435601"><ele>78.0</ele><time>2026-05-01T10:36:18.232Z</time></trkpt><trkpt lat="39.2979848" lon="8.4356249"><ele>78.0</ele><time>2026-05-01T10:36:19.232Z</time></trkpt><trkpt lat="39.2978516" lon="8.4356508"><ele>78.0</ele><time>2026-05-01T10:36:20.231Z</time></trkpt><trkpt lat="39.2977199" lon="8.4356758"><ele>75.0</ele><time>2026-05-01T10:36:21.232Z</time></trkpt><trkpt lat="39.2975951" lon="8.4356969"><ele>72.0</ele><time>2026-05-01T10:36:22.232Z</time></trkpt><trkpt lat="39.2974717" lon="8.4357192"><ele>69.0</ele><time>2026-05-01T10:36:23.231Z</time></trkpt><trkpt lat="39.2973513" lon="8.4357403"><ele>66.0</ele><time>2026-05-01T10:36:24.232Z</time></trkpt><trkpt lat="39.2972352" lon="8.4357612"><ele>64.0</ele><time>2026-05-01T10:36:25.231Z</time></trkpt><trkpt lat="39.2971216" lon="8.4357796"><ele>62.0</ele><time>2026-05-01T10:36:26.232Z</time></trkpt><trkpt lat="39.2970099" lon="8.4357971"><ele>60.0</ele><time>2026-05-01T10:36:27.231Z</time></trkpt><trkpt lat="39.2968971" lon="8.4358176"><ele>58.0</ele><time>2026-05-01T10:36:28.232Z</time></trkpt><trkpt lat="39.296783" lon="8.4358394"><ele>58.0</ele><time>2026-05-01T10:36:29.232Z</time></trkpt><trkpt lat="39.2966656" lon="8.4358645"><ele>58.0</ele><time>2026-05-01T10:36:30.232Z</time></trkpt><trkpt lat="39.2965483" lon="8.435894"><ele>58.0</ele><time>2026-05-01T10:36:31.232Z</time></trkpt><trkpt lat="39.2964286" lon="8.4359339"><ele>58.0</ele><time>2026-05-01T10:36:32.232Z</time></trkpt><trkpt lat="39.2963081" lon="8.4359793"><ele>52.75</ele><time>2026-05-01T10:36:33.231Z</time></trkpt><trkpt lat="39.2961872" lon="8.4360281"><ele>47.5</ele><time>2026-05-01T10:36:34.232Z</time></trkpt><trkpt lat="39.2960628" lon="8.4360826"><ele>42.25</ele><time>2026-05-01T10:36:35.232Z</time></trkpt><trkpt lat="39.2959361" lon="8.4361413"><ele>37.0</ele><time>2026-05-01T10:36:36.231Z</time></trkpt><trkpt lat="39.2958059" lon="8.4361961"><ele>37.0</ele><time>2026-05-01T10:36:37.232Z</time></trkpt><trkpt lat="39.2956822" lon="8.4362521"><ele>37.0</ele><time>2026-05-01T10:36:38.231Z</time></trkpt><trkpt lat="39.2955652" lon="8.4363098"><ele>37.0</ele><time>2026-05-01T10:36:39.232Z</time></trkpt><trkpt lat="39.2954498" lon="8.4363645"><ele>37.0</ele><time>2026-05-01T10:36:40.232Z</time></trkpt><trkpt lat="39.2953288" lon="8.4364242"><ele>39.5</ele><time>2026-05-01T10:36:41.231Z</time></trkpt><trkpt lat="39.2952082" lon="8.4364917"><ele>42.0</ele><time>2026-05-01T10:36:42.231Z</time></trkpt><trkpt lat="39.2950952" lon="8.4365613"><ele>44.5</ele><time>2026-05-01T10:36:43.232Z</time></trkpt><trkpt lat="39.2949868" lon="8.4366341"><ele>47.0</ele><time>2026-05-01T10:36:44.231Z</time></trkpt><trkpt lat="39.2948801" lon="8.4366995"><ele>47.0</ele><time>2026-05-01T10:36:45.232Z</time></trkpt><trkpt lat="39.2947707" lon="8.4367556"><ele>47.0</ele><time>2026-05-01T10:36:46.232Z</time></trkpt><trkpt lat="39.2946611" lon="8.4367997"><ele>47.0</ele><time>2026-05-01T10:36:47.231Z</time></trkpt><trkpt lat="39.2945538" lon="8.4368496"><ele>47.0</ele><time>2026-05-01T10:36:48.232Z</time></trkpt><trkpt lat="39.2944566" lon="8.4369145"><ele>47.400000000000006</ele><time>2026-05-01T10:36:49.231Z</time></trkpt><trkpt lat="39.2943688" lon="8.4369933"><ele>47.800000000000004</ele><time>2026-05-01T10:36:50.231Z</time></trkpt><trkpt lat="39.2942847" lon="8.4370747"><ele>48.2</ele><time>2026-05-01T10:36:51.232Z</time></trkpt><trkpt lat="39.2942049" lon="8.4371573"><ele>48.6</ele><time>2026-05-01T10:36:52.231Z</time></trkpt><trkpt lat="39.29413" lon="8.4372436"><ele>49.0</ele><time>2026-05-01T10:36:53.232Z</time></trkpt><trkpt lat="39.2940526" lon="8.4373252"><ele>49.0</ele><time>2026-05-01T10:36:54.231Z</time></trkpt><trkpt lat="39.2939698" lon="8.4373961"><ele>49.0</ele><time>2026-05-01T10:36:55.231Z</time></trkpt><trkpt lat="39.2938761" lon="8.4374412"><ele>49.0</ele><time>2026-05-01T10:36:56.231Z</time></trkpt><trkpt lat="39.2937727" lon="8.4374583"><ele>49.0</ele><time>2026-05-01T10:36:57.231Z</time></trkpt><trkpt lat="39.2936657" lon="8.4374485"><ele>49.0</ele><time>2026-05-01T10:36:58.232Z</time></trkpt><trkpt lat="39.2935628" lon="8.4374233"><ele>46.800000000000004</ele><time>2026-05-01T10:36:59.232Z</time></trkpt><trkpt lat="39.2934589" lon="8.4374001"><ele>44.6</ele><time>2026-05-01T10:37:00.231Z</time></trkpt><trkpt lat="39.2933533" lon="8.4373838"><ele>42.4</ele><time>2026-05-01T10:37:01.231Z</time></trkpt><trkpt lat="39.2932477" lon="8.4373779"><ele>40.2</ele><time>2026-05-01T10:37:02.231Z</time></trkpt><trkpt lat="39.2931397" lon="8.4373785"><ele>38.0</ele><time>2026-05-01T10:37:03.231Z</time></trkpt><trkpt lat="39.2930345" lon="8.4373796"><ele>35.8</ele><time>2026-05-01T10:37:04.231Z</time></trkpt><trkpt lat="39.2929293" lon="8.4373866"><ele>33.599999999999994</ele><time>2026-05-01T10:37:05.232Z</time></trkpt><trkpt lat="39.292828" lon="8.437399"><ele>31.400000000000002</ele><time>2026-05-01T10:37:06.232Z</time></trkpt><trkpt lat="39.2927294" lon="8.4374316"><ele>29.200000000000003</ele><time>2026-05-01T10:37:07.232Z</time></trkpt><trkpt lat="39.2926352" lon="8.4374843"><ele>27.0</ele><time>2026-05-01T10:37:08.231Z</time></trkpt><trkpt lat="39.2925494" lon="8.4375528"><ele>27.0</ele><time>2026-05-01T10:37:09.232Z</time></trkpt><trkpt lat="39.2924725" lon="8.4376364"><ele>27.000000000000004</ele><time>2026-05-01T10:37:10.231Z</time></trkpt><trkpt lat="39.2923985" lon="8.4377297"><ele>27.000000000000004</ele><time>2026-05-01T10:37:11.232Z</time></trkpt><trkpt lat="39.2923153" lon="8.4378249"><ele>27.0</ele><time>2026-05-01T10:37:12.231Z</time></trkpt><trkpt lat="39.2922251" lon="8.4379183"><ele>27.0</ele><time>2026-05-01T10:37:13.232Z</time></trkpt><trkpt lat="39.2921296" lon="8.4380116"><ele>27.0</ele><time>2026-05-01T10:37:14.231Z</time></trkpt><trkpt lat="39.2920255" lon="8.4381005"><ele>27.0</ele><time>2026-05-01T10:37:15.231Z</time></trkpt><trkpt lat="39.291919" lon="8.4381774"><ele>27.0</ele><time>2026-05-01T10:37:16.232Z</time></trkpt><trkpt lat="39.2918138" lon="8.4382475"><ele>27.0</ele><time>2026-05-01T10:37:17.232Z</time></trkpt><trkpt lat="39.2917128" lon="8.4383218"><ele>27.0</ele><time>2026-05-01T10:37:18.232Z</time></trkpt><trkpt lat="39.2916136" lon="8.438394"><ele>27.0</ele><time>2026-05-01T10:37:19.231Z</time></trkpt><trkpt lat="39.2915113" lon="8.4384613"><ele>27.0</ele><time>2026-05-01T10:37:20.231Z</time></trkpt><trkpt lat="39.2914037" lon="8.4385171"><ele>27.0</ele><time>2026-05-01T10:37:21.232Z</time></trkpt><trkpt lat="39.2912888" lon="8.4385509"><ele>24.75</ele><time>2026-05-01T10:37:22.231Z</time></trkpt><trkpt lat="39.2911703" lon="8.4385687"><ele>22.5</ele><time>2026-05-01T10:37:23.231Z</time></trkpt><trkpt lat="39.2910513" lon="8.4385764"><ele>20.25</ele><time>2026-05-01T10:37:24.232Z</time></trkpt><trkpt lat="39.290932" lon="8.438575"><ele>18.0</ele><time>2026-05-01T10:37:25.231Z</time></trkpt><trkpt lat="39.2908142" lon="8.438569"><ele>18.0</ele><time>2026-05-01T10:37:26.232Z</time></trkpt><trkpt lat="39.2906961" lon="8.4385624"><ele>18.0</ele><time>2026-05-01T10:37:27.231Z</time></trkpt><trkpt lat="39.29058" lon="8.4385589"><ele>18.0</ele><time>2026-05-01T10:37:28.232Z</time></trkpt><trkpt lat="39.2904653" lon="8.4385637"><ele>18.0</ele><time>2026-05-01T10:37:29.232Z</time></trkpt><trkpt lat="39.290352" lon="8.4385797"><ele>16.25</ele><time>2026-05-01T10:37:30.232Z</time></trkpt><trkpt lat="39.2902365" lon="8.438607"><ele>14.5</ele><time>2026-05-01T10:37:31.232Z</time></trkpt><trkpt lat="39.2901175" lon="8.4386412"><ele>12.75</ele><time>2026-05-01T10:37:32.232Z</time></trkpt><trkpt lat="39.2899919" lon="8.4386725"><ele>11.0</ele><time>2026-05-01T10:37:33.232Z</time></trkpt><trkpt lat="39.2898646" lon="8.4387133"><ele>11.25</ele><time>2026-05-01T10:37:34.231Z</time></trkpt><trkpt lat="39.2897401" lon="8.4387532"><ele>11.5</ele><time>2026-05-01T10:37:35.232Z</time></trkpt><trkpt lat="39.2896154" lon="8.4387946"><ele>11.75</ele><time>2026-05-01T10:37:36.232Z</time></trkpt><trkpt lat="39.289489" lon="8.4388354"><ele>12.0</ele><time>2026-05-01T10:37:37.232Z</time></trkpt><trkpt lat="39.2893617" lon="8.438881"><ele>12.0</ele><time>2026-05-01T10:37:38.232Z</time></trkpt><trkpt lat="39.2892361" lon="8.4389359"><ele>12.0</ele><time>2026-05-01T10:37:39.232Z</time></trkpt><trkpt lat="39.2891096" lon="8.439004"><ele>12.0</ele><time>2026-05-01T10:37:40.232Z</time></trkpt><trkpt lat="39.2889896" lon="8.4390934"><ele>12.0</ele><time>2026-05-01T10:37:41.232Z</time></trkpt><trkpt lat="39.2888737" lon="8.4391917"><ele>12.25</ele><time>2026-05-01T10:37:42.232Z</time></trkpt><trkpt lat="39.2887592" lon="8.4392975"><ele>12.5</ele><time>2026-05-01T10:37:43.232Z</time></trkpt><trkpt lat="39.2886464" lon="8.4394089"><ele>12.75</ele><time>2026-05-01T10:37:44.232Z</time></trkpt><trkpt lat="39.2885334" lon="8.4395224"><ele>13.0</ele><time>2026-05-01T10:37:45.232Z</time></trkpt><trkpt lat="39.2884191" lon="8.4396378"><ele>13.0</ele><time>2026-05-01T10:37:46.231Z</time></trkpt><trkpt lat="39.2883049" lon="8.439756"><ele>13.0</ele><time>2026-05-01T10:37:47.232Z</time></trkpt><trkpt lat="39.2881874" lon="8.4398746"><ele>13.0</ele><time>2026-05-01T10:37:48.231Z</time></trkpt><trkpt lat="39.2880672" lon="8.4399973"><ele>13.0</ele><time>2026-05-01T10:37:49.232Z</time></trkpt><trkpt lat="39.2879467" lon="8.4401206"><ele>13.333333333333332</ele><time>2026-05-01T10:37:50.232Z</time></trkpt><trkpt lat="39.2878243" lon="8.4402472"><ele>13.666666666666668</ele><time>2026-05-01T10:37:51.231Z</time></trkpt><trkpt lat="39.2877006" lon="8.4403763"><ele>14.0</ele><time>2026-05-01T10:37:52.231Z</time></trkpt><trkpt lat="39.2875738" lon="8.4405099"><ele>14.0</ele><time>2026-05-01T10:37:53.232Z</time></trkpt><trkpt lat="39.2874437" lon="8.4406452"><ele>14.0</ele><time>2026-05-01T10:37:54.231Z</time></trkpt><trkpt lat="39.287313" lon="8.4407859"><ele>14.0</ele><time>2026-05-01T10:37:55.231Z</time></trkpt><trkpt lat="39.287177" lon="8.4409282"><ele>14.0</ele><time>2026-05-01T10:37:56.232Z</time></trkpt><trkpt lat="39.2870376" lon="8.4410698"><ele>14.0</ele><time>2026-05-01T10:37:57.231Z</time></trkpt><trkpt lat="39.2868958" lon="8.4412138"><ele>14.0</ele><time>2026-05-01T10:37:58.232Z</time></trkpt><trkpt lat="39.2867551" lon="8.4413639"><ele>14.0</ele><time>2026-05-01T10:37:59.231Z</time></trkpt><trkpt lat="39.2866125" lon="8.4415142"><ele>14.0</ele><time>2026-05-01T10:38:00.231Z</time></trkpt><trkpt lat="39.2864695" lon="8.4416642"><ele>14.0</ele><time>2026-05-01T10:38:01.232Z</time></trkpt><trkpt lat="39.2863341" lon="8.4418084"><ele>14.333333333333334</ele><time>2026-05-01T10:38:02.231Z</time></trkpt><trkpt lat="39.286199" lon="8.441948"><ele>14.666666666666668</ele><time>2026-05-01T10:38:03.232Z</time></trkpt><trkpt lat="39.286062" lon="8.4420894"><ele>15.0</ele><time>2026-05-01T10:38:04.231Z</time></trkpt><trkpt lat="39.2859315" lon="8.4422363"><ele>15.0</ele><time>2026-05-01T10:38:05.232Z</time></trkpt><trkpt lat="39.2858078" lon="8.4423933"><ele>15.0</ele><time>2026-05-01T10:38:06.232Z</time></trkpt><trkpt lat="39.2856931" lon="8.4425581"><ele>15.0</ele><time>2026-05-01T10:38:07.231Z</time></trkpt><trkpt lat="39.2855869" lon="8.4427341"><ele>14.666666666666668</ele><time>2026-05-01T10:38:08.231Z</time></trkpt><trkpt lat="39.2854821" lon="8.4429128"><ele>14.333333333333334</ele><time>2026-05-01T10:38:09.232Z</time></trkpt><trkpt lat="39.2853791" lon="8.4430912"><ele>14.0</ele><time>2026-05-01T10:38:10.232Z</time></trkpt><trkpt lat="39.2852769" lon="8.4432696"><ele>14.0</ele><time>2026-05-01T10:38:11.232Z</time></trkpt><trkpt lat="39.2851752" lon="8.4434461"><ele>14.0</ele><time>2026-05-01T10:38:12.231Z</time></trkpt><trkpt lat="39.285077" lon="8.4436163"><ele>14.0</ele><time>2026-05-01T10:38:13.231Z</time></trkpt><trkpt lat="39.2849832" lon="8.4437815"><ele>15.0</ele><time>2026-05-01T10:38:14.232Z</time></trkpt><trkpt lat="39.284897" lon="8.4439429"><ele>16.0</ele><time>2026-05-01T10:38:15.231Z</time></trkpt><trkpt lat="39.2848205" lon="8.4441"><ele>17.0</ele><time>2026-05-01T10:38:16.232Z</time></trkpt><trkpt lat="39.2847522" lon="8.4442573"><ele>18.0</ele><time>2026-05-01T10:38:17.232Z</time></trkpt><trkpt lat="39.2846854" lon="8.4444144"><ele>16.25</ele><time>2026-05-01T10:38:18.231Z</time></trkpt><trkpt lat="39.2846164" lon="8.444574"><ele>14.5</ele><time>2026-05-01T10:38:19.232Z</time></trkpt><trkpt lat="39.2845462" lon="8.4447396"><ele>12.75</ele><time>2026-05-01T10:38:20.232Z</time></trkpt><trkpt lat="39.2844735" lon="8.444911"><ele>11.0</ele><time>2026-05-01T10:38:21.232Z</time></trkpt><trkpt lat="39.2844002" lon="8.4450893"><ele>11.0</ele><time>2026-05-01T10:38:22.231Z</time></trkpt><trkpt lat="39.2843245" lon="8.4452725"><ele>11.0</ele><time>2026-05-01T10:38:23.232Z</time></trkpt><trkpt lat="39.2842462" lon="8.4454631"><ele>11.0</ele><time>2026-05-01T10:38:24.232Z</time></trkpt><trkpt lat="39.284165" lon="8.4456581"><ele>11.333333333333332</ele><time>2026-05-01T10:38:25.232Z</time></trkpt><trkpt lat="39.2840828" lon="8.4458595"><ele>11.666666666666666</ele><time>2026-05-01T10:38:26.232Z</time></trkpt><trkpt lat="39.2839987" lon="8.446066"><ele>12.0</ele><time>2026-05-01T10:38:27.231Z</time></trkpt><trkpt lat="39.2839139" lon="8.4462735"><ele>11.333333333333334</ele><time>2026-05-01T10:38:28.231Z</time></trkpt><trkpt lat="39.2838318" lon="8.4464724"><ele>10.666666666666668</ele><time>2026-05-01T10:38:29.231Z</time></trkpt><trkpt lat="39.2837518" lon="8.4466657"><ele>10.0</ele><time>2026-05-01T10:38:30.231Z</time></trkpt><trkpt lat="39.2836725" lon="8.4468555"><ele>10.0</ele><time>2026-05-01T10:38:31.232Z</time></trkpt><trkpt lat="39.283595" lon="8.4470468"><ele>10.0</ele><time>2026-05-01T10:38:32.231Z</time></trkpt><trkpt lat="39.2835149" lon="8.4472366"><ele>10.0</ele><time>2026-05-01T10:38:33.231Z</time></trkpt><trkpt lat="39.2834357" lon="8.4474275"><ele>10.0</ele><time>2026-05-01T10:38:34.231Z</time></trkpt><trkpt lat="39.2833564" lon="8.4476204"><ele>10.0</ele><time>2026-05-01T10:38:35.231Z</time></trkpt><trkpt lat="39.2832775" lon="8.4478168"><ele>10.0</ele><time>2026-05-01T10:38:36.231Z</time></trkpt><trkpt lat="39.2831974" lon="8.4480141"><ele>10.0</ele><time>2026-05-01T10:38:37.231Z</time></trkpt><trkpt lat="39.2831177" lon="8.4482166"><ele>10.0</ele><time>2026-05-01T10:38:38.232Z</time></trkpt><trkpt lat="39.2830421" lon="8.4484361"><ele>10.0</ele><time>2026-05-01T10:38:39.232Z</time></trkpt><trkpt lat="39.2829645" lon="8.4486711"><ele>10.0</ele><time>2026-05-01T10:38:40.231Z</time></trkpt><trkpt lat="39.2828815" lon="8.4489208"><ele>10.0</ele><time>2026-05-01T10:38:41.232Z</time></trkpt><trkpt lat="39.2827952" lon="8.4491684"><ele>10.0</ele><time>2026-05-01T10:38:42.232Z</time></trkpt><trkpt lat="39.2827084" lon="8.4494131"><ele>11.0</ele><time>2026-05-01T10:38:43.231Z</time></trkpt><trkpt lat="39.2826225" lon="8.4496602"><ele>12.0</ele><time>2026-05-01T10:38:44.231Z</time></trkpt><trkpt lat="39.2825386" lon="8.4499096"><ele>13.0</ele><time>2026-05-01T10:38:45.231Z</time></trkpt><trkpt lat="39.2824552" lon="8.4501595"><ele>13.0</ele><time>2026-05-01T10:38:46.232Z</time></trkpt><trkpt lat="39.2823748" lon="8.4504027"><ele>13.0</ele><time>2026-05-01T10:38:47.232Z</time></trkpt><trkpt lat="39.2822988" lon="8.4506302"><ele>13.0</ele><time>2026-05-01T10:38:48.231Z</time></trkpt><trkpt lat="39.2822304" lon="8.4508476"><ele>13.0</ele><time>2026-05-01T10:38:49.231Z</time></trkpt><trkpt lat="39.28217" lon="8.4510654"><ele>13.0</ele><time>2026-05-01T10:38:50.231Z</time></trkpt><trkpt lat="39.2821159" lon="8.4512817"><ele>13.0</ele><time>2026-05-01T10:38:51.232Z</time></trkpt><trkpt lat="39.2820664" lon="8.451501"><ele>13.0</ele><time>2026-05-01T10:38:52.232Z</time></trkpt><trkpt lat="39.2820181" lon="8.451727"><ele>13.0</ele><time>2026-05-01T10:38:53.232Z</time></trkpt><trkpt lat="39.2819679" lon="8.4519593"><ele>13.0</ele><time>2026-05-01T10:38:54.232Z</time></trkpt><trkpt lat="39.2819166" lon="8.4521955"><ele>13.666666666666666</ele><time>2026-05-01T10:38:55.231Z</time></trkpt><trkpt lat="39.2818652" lon="8.452437"><ele>14.333333333333332</ele><time>2026-05-01T10:38:56.231Z</time></trkpt><trkpt lat="39.281814" lon="8.4526835"><ele>15.0</ele><time>2026-05-01T10:38:57.231Z</time></trkpt><trkpt lat="39.2817625" lon="8.4529326"><ele>15.333333333333332</ele><time>2026-05-01T10:38:58.232Z</time></trkpt><trkpt lat="39.2817096" lon="8.4531826"><ele>15.666666666666666</ele><time>2026-05-01T10:38:59.231Z</time></trkpt><trkpt lat="39.2816564" lon="8.4534294"><ele>16.0</ele><time>2026-05-01T10:39:00.232Z</time></trkpt><trkpt lat="39.2816066" lon="8.4536632"><ele>17.0</ele><time>2026-05-01T10:39:01.232Z</time></trkpt><trkpt lat="39.2815657" lon="8.4538961"><ele>18.0</ele><time>2026-05-01T10:39:02.232Z</time></trkpt><trkpt lat="39.2815452" lon="8.4541283"><ele>19.0</ele><time>2026-05-01T10:39:03.232Z</time></trkpt><trkpt lat="39.2815485" lon="8.4543587"><ele>19.0</ele><time>2026-05-01T10:39:04.232Z</time></trkpt><trkpt lat="39.281569" lon="8.4545871"><ele>19.0</ele><time>2026-05-01T10:39:05.231Z</time></trkpt><trkpt lat="39.2816089" lon="8.4548088"><ele>19.0</ele><time>2026-05-01T10:39:06.232Z</time></trkpt><trkpt lat="39.281666" lon="8.4550237"><ele>18.666666666666664</ele><time>2026-05-01T10:39:07.232Z</time></trkpt><trkpt lat="39.2817302" lon="8.4552368"><ele>18.333333333333332</ele><time>2026-05-01T10:39:08.232Z</time></trkpt><trkpt lat="39.2817953" lon="8.4554518"><ele>18.0</ele><time>2026-05-01T10:39:09.231Z</time></trkpt><trkpt lat="39.2818586" lon="8.455668"><ele>17.333333333333332</ele><time>2026-05-01T10:39:10.232Z</time></trkpt><trkpt lat="39.2819211" lon="8.4558873"><ele>16.666666666666664</ele><time>2026-05-01T10:39:11.232Z</time></trkpt><trkpt lat="39.28198" lon="8.4561073"><ele>16.0</ele><time>2026-05-01T10:39:12.232Z</time></trkpt><trkpt lat="39.2820269" lon="8.4563281"><ele>16.0</ele><time>2026-05-01T10:39:13.232Z</time></trkpt><trkpt lat="39.2820561" lon="8.4565529"><ele>16.0</ele><time>2026-05-01T10:39:14.231Z</time></trkpt><trkpt lat="39.2820706" lon="8.4567834"><ele>16.0</ele><time>2026-05-01T10:39:15.232Z</time></trkpt><trkpt lat="39.2820729" lon="8.4570227"><ele>15.333333333333332</ele><time>2026-05-01T10:39:16.231Z</time></trkpt><trkpt lat="39.282069" lon="8.4572658"><ele>14.666666666666668</ele><time>2026-05-01T10:39:17.231Z</time></trkpt><trkpt lat="39.2820639" lon="8.457513"><ele>14.0</ele><time>2026-05-01T10:39:18.231Z</time></trkpt><trkpt lat="39.2820567" lon="8.4577644"><ele>13.333333333333334</ele><time>2026-05-01T10:39:19.232Z</time></trkpt><trkpt lat="39.2820447" lon="8.4580078"><ele>12.666666666666668</ele><time>2026-05-01T10:39:20.232Z</time></trkpt><trkpt lat="39.2820229" lon="8.4582474"><ele>12.0</ele><time>2026-05-01T10:39:21.231Z</time></trkpt><trkpt lat="39.2819894" lon="8.458485"><ele>12.0</ele><time>2026-05-01T10:39:22.231Z</time></trkpt><trkpt lat="39.2819421" lon="8.4587156"><ele>12.0</ele><time>2026-05-01T10:39:23.232Z</time></trkpt><trkpt lat="39.2818799" lon="8.4589277"><ele>12.0</ele><time>2026-05-01T10:39:24.231Z</time></trkpt><trkpt lat="39.2817998" lon="8.4591276"><ele>12.0</ele><time>2026-05-01T10:39:25.231Z</time></trkpt><trkpt lat="39.2817012" lon="8.4593128"><ele>12.0</ele><time>2026-05-01T10:39:26.231Z</time></trkpt><trkpt lat="39.2815868" lon="8.459484"><ele>12.0</ele><time>2026-05-01T10:39:27.231Z</time></trkpt><trkpt lat="39.2814562" lon="8.4596387"><ele>13.0</ele><time>2026-05-01T10:39:28.232Z</time></trkpt><trkpt lat="39.2813143" lon="8.459777"><ele>14.0</ele><time>2026-05-01T10:39:29.231Z</time></trkpt><trkpt lat="39.2811615" lon="8.4598995"><ele>15.0</ele><time>2026-05-01T10:39:30.232Z</time></trkpt><trkpt lat="39.2810075" lon="8.4600261"><ele>15.0</ele><time>2026-05-01T10:39:31.232Z</time></trkpt><trkpt lat="39.2808593" lon="8.4601648"><ele>15.0</ele><time>2026-05-01T10:39:32.231Z</time></trkpt><trkpt lat="39.280718" lon="8.4603217"><ele>15.0</ele><time>2026-05-01T10:39:33.232Z</time></trkpt><trkpt lat="39.2805853" lon="8.4604935"><ele>14.333333333333332</ele><time>2026-05-01T10:39:34.232Z</time></trkpt><trkpt lat="39.2804595" lon="8.4606795"><ele>13.666666666666666</ele><time>2026-05-01T10:39:35.231Z</time></trkpt><trkpt lat="39.280335" lon="8.460872"><ele>13.0</ele><time>2026-05-01T10:39:36.231Z</time></trkpt><trkpt lat="39.280212" lon="8.4610726"><ele>13.0</ele><time>2026-05-01T10:39:37.232Z</time></trkpt><trkpt lat="39.2800893" lon="8.4612713"><ele>13.0</ele><time>2026-05-01T10:39:38.231Z</time></trkpt><trkpt lat="39.2799683" lon="8.4614653"><ele>13.0</ele><time>2026-05-01T10:39:39.232Z</time></trkpt><trkpt lat="39.2798475" lon="8.4616555"><ele>13.0</ele><time>2026-05-01T10:39:40.231Z</time></trkpt><trkpt lat="39.2797274" lon="8.4618522"><ele>13.0</ele><time>2026-05-01T10:39:41.231Z</time></trkpt><trkpt lat="39.2796121" lon="8.4620554"><ele>13.0</ele><time>2026-05-01T10:39:42.232Z</time></trkpt><trkpt lat="39.2795084" lon="8.4622693"><ele>13.666666666666666</ele><time>2026-05-01T10:39:43.232Z</time></trkpt><trkpt lat="39.2794167" lon="8.4624927"><ele>14.333333333333332</ele><time>2026-05-01T10:39:44.232Z</time></trkpt><trkpt lat="39.2793405" lon="8.4627249"><ele>15.0</ele><time>2026-05-01T10:39:45.231Z</time></trkpt><trkpt lat="39.2792815" lon="8.4629584"><ele>15.666666666666668</ele><time>2026-05-01T10:39:46.232Z</time></trkpt><trkpt lat="39.279241" lon="8.4631923"><ele>16.333333333333336</ele><time>2026-05-01T10:39:47.231Z</time></trkpt><trkpt lat="39.2792138" lon="8.46343"><ele>17.0</ele><time>2026-05-01T10:39:48.232Z</time></trkpt><trkpt lat="39.2791973" lon="8.4636673"><ele>16.333333333333336</ele><time>2026-05-01T10:39:49.231Z</time></trkpt><trkpt lat="39.2791899" lon="8.4639016"><ele>15.666666666666668</ele><time>2026-05-01T10:39:50.231Z</time></trkpt><trkpt lat="39.2791842" lon="8.4641233"><ele>15.0</ele><time>2026-05-01T10:39:51.232Z</time></trkpt><trkpt lat="39.2791723" lon="8.4643377"><ele>15.0</ele><time>2026-05-01T10:39:52.231Z</time></trkpt><trkpt lat="39.2791465" lon="8.464542"><ele>15.0</ele><time>2026-05-01T10:39:53.232Z</time></trkpt><trkpt lat="39.2791084" lon="8.464736"><ele>15.0</ele><time>2026-05-01T10:39:54.231Z</time></trkpt><trkpt lat="39.2790584" lon="8.4649149"><ele>15.25</ele><time>2026-05-01T10:39:55.232Z</time></trkpt><trkpt lat="39.2790023" lon="8.4650831"><ele>15.5</ele><time>2026-05-01T10:39:56.231Z</time></trkpt><trkpt lat="39.2789396" lon="8.4652487"><ele>15.75</ele><time>2026-05-01T10:39:57.232Z</time></trkpt><trkpt lat="39.2788704" lon="8.465407"><ele>16.0</ele><time>2026-05-01T10:39:58.232Z</time></trkpt><trkpt lat="39.2787931" lon="8.4655603"><ele>16.0</ele><time>2026-05-01T10:39:59.231Z</time></trkpt><trkpt lat="39.2787097" lon="8.4657046"><ele>16.0</ele><time>2026-05-01T10:40:00.231Z</time></trkpt><trkpt lat="39.278618" lon="8.4658323"><ele>16.0</ele><time>2026-05-01T10:40:01.231Z</time></trkpt><trkpt lat="39.278519" lon="8.4659551"><ele>16.0</ele><time>2026-05-01T10:40:02.232Z</time></trkpt><trkpt lat="39.278412" lon="8.4660744"><ele>16.0</ele><time>2026-05-01T10:40:03.232Z</time></trkpt><trkpt lat="39.278302" lon="8.4661878"><ele>16.0</ele><time>2026-05-01T10:40:04.232Z</time></trkpt><trkpt lat="39.2781896" lon="8.466296"><ele>16.0</ele><time>2026-05-01T10:40:05.231Z</time></trkpt><trkpt lat="39.2780721" lon="8.4664033"><ele>16.0</ele><time>2026-05-01T10:40:06.232Z</time></trkpt><trkpt lat="39.2779536" lon="8.4665157"><ele>16.75</ele><time>2026-05-01T10:40:07.231Z</time></trkpt><trkpt lat="39.2778341" lon="8.4666296"><ele>17.5</ele><time>2026-05-01T10:40:08.232Z</time></trkpt><trkpt lat="39.2777137" lon="8.4667447"><ele>18.25</ele><time>2026-05-01T10:40:09.232Z</time></trkpt><trkpt lat="39.2776016" lon="8.4668549"><ele>19.0</ele><time>2026-05-01T10:40:10.231Z</time></trkpt><trkpt lat="39.2775075" lon="8.46697"><ele>19.0</ele><time>2026-05-01T10:40:11.232Z</time></trkpt><trkpt lat="39.2774354" lon="8.4671002"><ele>19.0</ele><time>2026-05-01T10:40:12.232Z</time></trkpt><trkpt lat="39.2773889" lon="8.4672465"><ele>19.0</ele><time>2026-05-01T10:40:13.231Z</time></trkpt><trkpt lat="39.2773722" lon="8.4674001"><ele>19.0</ele><time>2026-05-01T10:40:14.232Z</time></trkpt><trkpt lat="39.2773805" lon="8.467557"><ele>19.0</ele><time>2026-05-01T10:40:15.231Z</time></trkpt><trkpt lat="39.2774078" lon="8.4677201"><ele>19.0</ele><time>2026-05-01T10:40:16.231Z</time></trkpt><trkpt lat="39.2774441" lon="8.4678858"><ele>19.0</ele><time>2026-05-01T10:40:17.231Z</time></trkpt><trkpt lat="39.2774839" lon="8.4680421"><ele>19.0</ele><time>2026-05-01T10:40:18.232Z</time></trkpt><trkpt lat="39.2775108" lon="8.4681873"><ele>19.4</ele><time>2026-05-01T10:40:19.232Z</time></trkpt><trkpt lat="39.2775164" lon="8.4683252"><ele>19.799999999999997</ele><time>2026-05-01T10:40:20.231Z</time></trkpt><trkpt lat="39.2774982" lon="8.4684536"><ele>20.200000000000003</ele><time>2026-05-01T10:40:21.232Z</time></trkpt><trkpt lat="39.2774575" lon="8.4685777"><ele>20.6</ele><time>2026-05-01T10:40:22.231Z</time></trkpt><trkpt lat="39.2773929" lon="8.4686909"><ele>21.0</ele><time>2026-05-01T10:40:23.231Z</time></trkpt><trkpt lat="39.2773097" lon="8.4687811"><ele>20.666666666666668</ele><time>2026-05-01T10:40:24.232Z</time></trkpt><trkpt lat="39.2772182" lon="8.4688248"><ele>20.333333333333332</ele><time>2026-05-01T10:40:25.231Z</time></trkpt><trkpt lat="39.2771264" lon="8.4688255"><ele>20.0</ele><time>2026-05-01T10:40:26.231Z</time></trkpt><trkpt lat="39.2770464" lon="8.4687832"><ele>19.666666666666664</ele><time>2026-05-01T10:40:27.231Z</time></trkpt><trkpt lat="39.2769893" lon="8.4687073"><ele>19.333333333333332</ele><time>2026-05-01T10:40:28.231Z</time></trkpt><trkpt lat="39.2769505" lon="8.4686156"><ele>19.0</ele><time>2026-05-01T10:40:29.231Z</time></trkpt><trkpt lat="39.2769537" lon="8.4684577"><ele>19.0</ele><time>2026-05-01T10:40:31.231Z</time></trkpt><trkpt lat="39.2769948" lon="8.4683877"><ele>19.0</ele><time>2026-05-01T10:40:32.232Z</time></trkpt><trkpt lat="39.2770567" lon="8.4683393"><ele>19.0</ele><time>2026-05-01T10:40:33.231Z</time></trkpt><trkpt lat="39.2771356" lon="8.4683129"><ele>19.0</ele><time>2026-05-01T10:40:34.231Z</time></trkpt><trkpt lat="39.2772315" lon="8.4682951"><ele>19.0</ele><time>2026-05-01T10:40:35.231Z</time></trkpt><trkpt lat="39.277347" lon="8.4682742"><ele>19.0</ele><time>2026-05-01T10:40:36.231Z</time></trkpt><trkpt lat="39.2774774" lon="8.4682528"><ele>19.5</ele><time>2026-05-01T10:40:37.231Z</time></trkpt><trkpt lat="39.2776208" lon="8.4682384"><ele>20.0</ele><time>2026-05-01T10:40:38.231Z</time></trkpt><trkpt lat="39.2777702" lon="8.4682159"><ele>20.5</ele><time>2026-05-01T10:40:39.231Z</time></trkpt><trkpt lat="39.2779087" lon="8.4681966"><ele>21.0</ele><time>2026-05-01T10:40:40.232Z</time></trkpt><trkpt lat="39.2780339" lon="8.4681815"><ele>24.0</ele><time>2026-05-01T10:40:41.232Z</time></trkpt><trkpt lat="39.2781526" lon="8.4681655"><ele>27.0</ele><time>2026-05-01T10:40:42.231Z</time></trkpt><trkpt lat="39.2782727" lon="8.4681455"><ele>30.0</ele><time>2026-05-01T10:40:43.232Z</time></trkpt><trkpt lat="39.2783917" lon="8.4681226"><ele>33.0</ele><time>2026-05-01T10:40:44.231Z</time></trkpt><trkpt lat="39.278513" lon="8.4680952"><ele>33.0</ele><time>2026-05-01T10:40:45.231Z</time></trkpt><trkpt lat="39.278639" lon="8.4680678"><ele>33.0</ele><time>2026-05-01T10:40:46.232Z</time></trkpt><trkpt lat="39.2787685" lon="8.4680393"><ele>33.0</ele><time>2026-05-01T10:40:47.231Z</time></trkpt><trkpt lat="39.2789028" lon="8.4680078"><ele>33.0</ele><time>2026-05-01T10:40:48.231Z</time></trkpt><trkpt lat="39.2790425" lon="8.467969"><ele>32.0</ele><time>2026-05-01T10:40:49.231Z</time></trkpt><trkpt lat="39.2791881" lon="8.4679263"><ele>31.0</ele><time>2026-05-01T10:40:50.231Z</time></trkpt><trkpt lat="39.2793367" lon="8.4678797"><ele>30.0</ele><time>2026-05-01T10:40:51.232Z</time></trkpt><trkpt lat="39.2794867" lon="8.4678315"><ele>30.0</ele><time>2026-05-01T10:40:52.231Z</time></trkpt><trkpt lat="39.2796373" lon="8.4677875"><ele>30.0</ele><time>2026-05-01T10:40:53.231Z</time></trkpt><trkpt lat="39.2797903" lon="8.4677483"><ele>30.0</ele><time>2026-05-01T10:40:54.232Z</time></trkpt><trkpt lat="39.2799433" lon="8.4677041"><ele>30.0</ele><time>2026-05-01T10:40:55.232Z</time></trkpt><trkpt lat="39.2800937" lon="8.467658"><ele>30.0</ele><time>2026-05-01T10:40:56.231Z</time></trkpt><trkpt lat="39.2802366" lon="8.4676135"><ele>30.0</ele><time>2026-05-01T10:40:57.231Z</time></trkpt><trkpt lat="39.2803791" lon="8.4675721"><ele>30.0</ele><time>2026-05-01T10:40:58.231Z</time></trkpt><trkpt lat="39.2805242" lon="8.4675314"><ele>31.666666666666664</ele><time>2026-05-01T10:40:59.231Z</time></trkpt><trkpt lat="39.2806739" lon="8.467492"><ele>33.33333333333333</ele><time>2026-05-01T10:41:00.231Z</time></trkpt><trkpt lat="39.2808261" lon="8.4674619"><ele>35.0</ele><time>2026-05-01T10:41:01.232Z</time></trkpt><trkpt lat="39.2809845" lon="8.4674433"><ele>35.0</ele><time>2026-05-01T10:41:02.232Z</time></trkpt><trkpt lat="39.2811453" lon="8.4674346"><ele>35.0</ele><time>2026-05-01T10:41:03.232Z</time></trkpt><trkpt lat="39.2813121" lon="8.467444"><ele>35.0</ele><time>2026-05-01T10:41:04.231Z</time></trkpt><trkpt lat="39.281481" lon="8.4674685"><ele>36.33333333333333</ele><time>2026-05-01T10:41:05.232Z</time></trkpt><trkpt lat="39.281649" lon="8.4675107"><ele>37.666666666666664</ele><time>2026-05-01T10:41:06.231Z</time></trkpt><trkpt lat="39.2818191" lon="8.4675721"><ele>39.0</ele><time>2026-05-01T10:41:07.232Z</time></trkpt><trkpt lat="39.281988" lon="8.467644"><ele>39.0</ele><time>2026-05-01T10:41:08.231Z</time></trkpt><trkpt lat="39.2821573" lon="8.4677226"><ele>39.0</ele><time>2026-05-01T10:41:09.231Z</time></trkpt><trkpt lat="39.2823268" lon="8.4678076"><ele>39.0</ele><time>2026-05-01T10:41:10.232Z</time></trkpt><trkpt lat="39.282497" lon="8.4678977"><ele>37.333333333333336</ele><time>2026-05-01T10:41:11.232Z</time></trkpt><trkpt lat="39.2826724" lon="8.4679865"><ele>35.66666666666667</ele><time>2026-05-01T10:41:12.231Z</time></trkpt><trkpt lat="39.2828497" lon="8.468077"><ele>34.0</ele><time>2026-05-01T10:41:13.231Z</time></trkpt><trkpt lat="39.283031" lon="8.4681635"><ele>35.66666666666667</ele><time>2026-05-01T10:41:14.232Z</time></trkpt><trkpt lat="39.2832134" lon="8.468254"><ele>37.333333333333336</ele><time>2026-05-01T10:41:15.231Z</time></trkpt><trkpt lat="39.2833948" lon="8.4683455"><ele>39.0</ele><time>2026-05-01T10:41:16.231Z</time></trkpt><trkpt lat="39.2835749" lon="8.4684398"><ele>39.0</ele><time>2026-05-01T10:41:17.231Z</time></trkpt><trkpt lat="39.2837549" lon="8.4685325"><ele>39.0</ele><time>2026-05-01T10:41:18.231Z</time></trkpt><trkpt lat="39.2839264" lon="8.4686179"><ele>39.0</ele><time>2026-05-01T10:41:19.232Z</time></trkpt><trkpt lat="39.284096" lon="8.468704"><ele>38.333333333333336</ele><time>2026-05-01T10:41:20.232Z</time></trkpt><trkpt lat="39.2842638" lon="8.4687905"><ele>37.66666666666667</ele><time>2026-05-01T10:41:21.232Z</time></trkpt><trkpt lat="39.2844293" lon="8.4688768"><ele>37.0</ele><time>2026-05-01T10:41:22.231Z</time></trkpt><trkpt lat="39.2845904" lon="8.4689692"><ele>37.0</ele><time>2026-05-01T10:41:23.231Z</time></trkpt><trkpt lat="39.2847452" lon="8.4690712"><ele>37.0</ele><time>2026-05-01T10:41:24.231Z</time></trkpt><trkpt lat="39.2848909" lon="8.4691897"><ele>37.0</ele><time>2026-05-01T10:41:25.232Z</time></trkpt><trkpt lat="39.2850311" lon="8.4693183"><ele>37.333333333333336</ele><time>2026-05-01T10:41:26.231Z</time></trkpt><trkpt lat="39.2851662" lon="8.4694617"><ele>37.666666666666664</ele><time>2026-05-01T10:41:27.231Z</time></trkpt><trkpt lat="39.2852834" lon="8.4696044"><ele>38.0</ele><time>2026-05-01T10:41:28.231Z</time></trkpt><trkpt lat="39.2853909" lon="8.4697599"><ele>40.0</ele><time>2026-05-01T10:41:29.232Z</time></trkpt><trkpt lat="39.2854908" lon="8.4699262"><ele>42.0</ele><time>2026-05-01T10:41:30.231Z</time></trkpt><trkpt lat="39.285583" lon="8.4701016"><ele>44.0</ele><time>2026-05-01T10:41:31.231Z</time></trkpt><trkpt lat="39.2856685" lon="8.4702832"><ele>44.0</ele><time>2026-05-01T10:41:32.232Z</time></trkpt><trkpt lat="39.2857501" lon="8.470466"><ele>44.0</ele><time>2026-05-01T10:41:33.231Z</time></trkpt><trkpt lat="39.2858309" lon="8.4706576"><ele>44.0</ele><time>2026-05-01T10:41:34.232Z</time></trkpt><trkpt lat="39.2859133" lon="8.4708559"><ele>44.0</ele><time>2026-05-01T10:41:35.231Z</time></trkpt><trkpt lat="39.2859974" lon="8.4710592"><ele>44.0</ele><time>2026-05-01T10:41:36.232Z</time></trkpt><trkpt lat="39.2860846" lon="8.4712639"><ele>44.0</ele><time>2026-05-01T10:41:37.231Z</time></trkpt><trkpt lat="39.2861703" lon="8.4714614"><ele>44.666666666666664</ele><time>2026-05-01T10:41:38.232Z</time></trkpt><trkpt lat="39.2862563" lon="8.4716643"><ele>45.333333333333336</ele><time>2026-05-01T10:41:39.231Z</time></trkpt><trkpt lat="39.286342" lon="8.4718681"><ele>46.0</ele><time>2026-05-01T10:41:40.232Z</time></trkpt><trkpt lat="39.2864287" lon="8.4720738"><ele>45.0</ele><time>2026-05-01T10:41:41.232Z</time></trkpt><trkpt lat="39.2865146" lon="8.472281"><ele>44.0</ele><time>2026-05-01T10:41:42.232Z</time></trkpt><trkpt lat="39.2865949" lon="8.4724757"><ele>43.0</ele><time>2026-05-01T10:41:43.232Z</time></trkpt><trkpt lat="39.2866759" lon="8.4726721"><ele>43.0</ele><time>2026-05-01T10:41:44.232Z</time></trkpt><trkpt lat="39.2867573" lon="8.4728686"><ele>43.0</ele><time>2026-05-01T10:41:45.231Z</time></trkpt><trkpt lat="39.2868375" lon="8.4730654"><ele>43.0</ele><time>2026-05-01T10:41:46.232Z</time></trkpt><trkpt lat="39.2869182" lon="8.4732634"><ele>45.66666666666667</ele><time>2026-05-01T10:41:47.232Z</time></trkpt><trkpt lat="39.2870006" lon="8.4734659"><ele>48.333333333333336</ele><time>2026-05-01T10:41:48.231Z</time></trkpt><trkpt lat="39.2870837" lon="8.47367"><ele>51.0</ele><time>2026-05-01T10:41:49.232Z</time></trkpt><trkpt lat="39.2871672" lon="8.4738774"><ele>53.0</ele><time>2026-05-01T10:41:50.231Z</time></trkpt><trkpt lat="39.2872534" lon="8.4740843"><ele>55.0</ele><time>2026-05-01T10:41:51.232Z</time></trkpt><trkpt lat="39.2873402" lon="8.4742882"><ele>57.0</ele><time>2026-05-01T10:41:52.231Z</time></trkpt><trkpt lat="39.2874248" lon="8.4744941"><ele>56.33333333333333</ele><time>2026-05-01T10:41:53.231Z</time></trkpt><trkpt lat="39.287509" lon="8.4747025"><ele>55.666666666666664</ele><time>2026-05-01T10:41:54.232Z</time></trkpt><trkpt lat="39.287597" lon="8.4749126"><ele>55.0</ele><time>2026-05-01T10:41:55.231Z</time></trkpt><trkpt lat="39.2876883" lon="8.4751248"><ele>55.0</ele><time>2026-05-01T10:41:56.232Z</time></trkpt><trkpt lat="39.287783" lon="8.4753323"><ele>55.0</ele><time>2026-05-01T10:41:57.231Z</time></trkpt><trkpt lat="39.2878803" lon="8.4755264"><ele>55.0</ele><time>2026-05-01T10:41:58.232Z</time></trkpt><trkpt lat="39.2879845" lon="8.4756992"><ele>56.33333333333333</ele><time>2026-05-01T10:41:59.232Z</time></trkpt><trkpt lat="39.2881043" lon="8.4758651"><ele>57.66666666666667</ele><time>2026-05-01T10:42:00.231Z</time></trkpt><trkpt lat="39.2882367" lon="8.4760232"><ele>59.0</ele><time>2026-05-01T10:42:01.232Z</time></trkpt><trkpt lat="39.2883826" lon="8.4761672"><ele>59.0</ele><time>2026-05-01T10:42:02.231Z</time></trkpt><trkpt lat="39.2885408" lon="8.4762962"><ele>59.0</ele><time>2026-05-01T10:42:03.231Z</time></trkpt><trkpt lat="39.2887102" lon="8.4764041"><ele>59.0</ele><time>2026-05-01T10:42:04.232Z</time></trkpt><trkpt lat="39.2888881" lon="8.4764942"><ele>57.66666666666667</ele><time>2026-05-01T10:42:05.232Z</time></trkpt><trkpt lat="39.2890714" lon="8.4765743"><ele>56.33333333333333</ele><time>2026-05-01T10:42:06.231Z</time></trkpt><trkpt lat="39.2892541" lon="8.4766464"><ele>55.0</ele><time>2026-05-01T10:42:07.232Z</time></trkpt><trkpt lat="39.2894349" lon="8.4767201"><ele>55.0</ele><time>2026-05-01T10:42:08.232Z</time></trkpt><trkpt lat="39.289615" lon="8.4767977"><ele>55.0</ele><time>2026-05-01T10:42:09.232Z</time></trkpt><trkpt lat="39.2897925" lon="8.4768911"><ele>55.0</ele><time>2026-05-01T10:42:10.232Z</time></trkpt><trkpt lat="39.2899563" lon="8.4770046"><ele>56.0</ele><time>2026-05-01T10:42:11.232Z</time></trkpt><trkpt lat="39.2901109" lon="8.4771377"><ele>57.0</ele><time>2026-05-01T10:42:12.231Z</time></trkpt><trkpt lat="39.2902483" lon="8.4772821"><ele>58.0</ele><time>2026-05-01T10:42:13.232Z</time></trkpt><trkpt lat="39.2903693" lon="8.4774363"><ele>58.0</ele><time>2026-05-01T10:42:14.232Z</time></trkpt><trkpt lat="39.290476" lon="8.4776053"><ele>58.0</ele><time>2026-05-01T10:42:15.231Z</time></trkpt><trkpt lat="39.2905713" lon="8.4777905"><ele>58.0</ele><time>2026-05-01T10:42:16.232Z</time></trkpt><trkpt lat="39.2906574" lon="8.4779877"><ele>59.0</ele><time>2026-05-01T10:42:17.232Z</time></trkpt><trkpt lat="39.2907286" lon="8.4781912"><ele>60.0</ele><time>2026-05-01T10:42:18.232Z</time></trkpt><trkpt lat="39.2907838" lon="8.4783955"><ele>61.0</ele><time>2026-05-01T10:42:19.232Z</time></trkpt><trkpt lat="39.2908207" lon="8.4786044"><ele>62.0</ele><time>2026-05-01T10:42:20.232Z</time></trkpt><trkpt lat="39.2908487" lon="8.4788218"><ele>63.0</ele><time>2026-05-01T10:42:21.232Z</time></trkpt><trkpt lat="39.2908631" lon="8.4790411"><ele>64.0</ele><time>2026-05-01T10:42:22.232Z</time></trkpt><trkpt lat="39.2908692" lon="8.4792619"><ele>64.0</ele><time>2026-05-01T10:42:23.231Z</time></trkpt><trkpt lat="39.2908716" lon="8.4794867"><ele>64.0</ele><time>2026-05-01T10:42:24.231Z</time></trkpt><trkpt lat="39.2908728" lon="8.4797253"><ele>64.0</ele><time>2026-05-01T10:42:25.232Z</time></trkpt><trkpt lat="39.2908715" lon="8.479964"><ele>64.33333333333333</ele><time>2026-05-01T10:42:26.232Z</time></trkpt><trkpt lat="39.2908667" lon="8.4802024"><ele>64.66666666666667</ele><time>2026-05-01T10:42:27.232Z</time></trkpt><trkpt lat="39.2908589" lon="8.4804389"><ele>65.0</ele><time>2026-05-01T10:42:28.232Z</time></trkpt><trkpt lat="39.290865" lon="8.4806653"><ele>65.33333333333334</ele><time>2026-05-01T10:42:29.232Z</time></trkpt><trkpt lat="39.2908633" lon="8.4808918"><ele>65.66666666666667</ele><time>2026-05-01T10:42:30.231Z</time></trkpt><trkpt lat="39.2908645" lon="8.4811291"><ele>66.0</ele><time>2026-05-01T10:42:31.232Z</time></trkpt><trkpt lat="39.2908637" lon="8.4813654"><ele>66.66666666666667</ele><time>2026-05-01T10:42:32.232Z</time></trkpt><trkpt lat="39.2908647" lon="8.4815939"><ele>67.33333333333334</ele><time>2026-05-01T10:42:33.232Z</time></trkpt><trkpt lat="39.2908636" lon="8.4818312"><ele>68.0</ele><time>2026-05-01T10:42:34.232Z</time></trkpt><trkpt lat="39.2908655" lon="8.482084"><ele>69.0</ele><time>2026-05-01T10:42:35.231Z</time></trkpt><trkpt lat="39.2908671" lon="8.4823581"><ele>70.0</ele><time>2026-05-01T10:42:36.231Z</time></trkpt><trkpt lat="39.2908666" lon="8.4826523"><ele>71.0</ele><time>2026-05-01T10:42:37.232Z</time></trkpt><trkpt lat="39.2908723" lon="8.4829392"><ele>71.33333333333334</ele><time>2026-05-01T10:42:38.232Z</time></trkpt><trkpt lat="39.2908885" lon="8.4832053"><ele>71.66666666666667</ele><time>2026-05-01T10:42:39.232Z</time></trkpt><trkpt lat="39.2909146" lon="8.483446"><ele>72.0</ele><time>2026-05-01T10:42:40.231Z</time></trkpt><trkpt lat="39.2909503" lon="8.4836729"><ele>72.0</ele><time>2026-05-01T10:42:41.231Z</time></trkpt><trkpt lat="39.2909885" lon="8.4839002"><ele>72.0</ele><time>2026-05-01T10:42:42.231Z</time></trkpt><trkpt lat="39.2910299" lon="8.4841294"><ele>72.0</ele><time>2026-05-01T10:42:43.232Z</time></trkpt><trkpt lat="39.2910723" lon="8.4843622"><ele>72.0</ele><time>2026-05-01T10:42:44.231Z</time></trkpt><trkpt lat="39.2911137" lon="8.484589"><ele>72.0</ele><time>2026-05-01T10:42:45.231Z</time></trkpt><trkpt lat="39.2911531" lon="8.4848166"><ele>72.0</ele><time>2026-05-01T10:42:46.232Z</time></trkpt><trkpt lat="39.2911949" lon="8.4850435"><ele>75.0</ele><time>2026-05-01T10:42:47.231Z</time></trkpt><trkpt lat="39.2912358" lon="8.4852719"><ele>78.0</ele><time>2026-05-01T10:42:48.231Z</time></trkpt><trkpt lat="39.2912758" lon="8.4854902"><ele>81.0</ele><time>2026-05-01T10:42:49.232Z</time></trkpt><trkpt lat="39.2913172" lon="8.4857116"><ele>82.33333333333333</ele><time>2026-05-01T10:42:50.232Z</time></trkpt><trkpt lat="39.2913575" lon="8.4859257"><ele>83.66666666666666</ele><time>2026-05-01T10:42:51.231Z</time></trkpt><trkpt lat="39.2913986" lon="8.4861453"><ele>85.0</ele><time>2026-05-01T10:42:52.231Z</time></trkpt><trkpt lat="39.2914401" lon="8.4863738"><ele>85.0</ele><time>2026-05-01T10:42:53.232Z</time></trkpt><trkpt lat="39.291483" lon="8.4865974"><ele>85.0</ele><time>2026-05-01T10:42:54.231Z</time></trkpt><trkpt lat="39.2915271" lon="8.4868051"><ele>85.0</ele><time>2026-05-01T10:42:55.232Z</time></trkpt><trkpt lat="39.2915747" lon="8.4869954"><ele>84.5</ele><time>2026-05-01T10:42:56.231Z</time></trkpt><trkpt lat="39.2916226" lon="8.487171"><ele>84.0</ele><time>2026-05-01T10:42:57.231Z</time></trkpt><trkpt lat="39.2916726" lon="8.4873408"><ele>83.5</ele><time>2026-05-01T10:42:58.231Z</time></trkpt><trkpt lat="39.2917265" lon="8.4875151"><ele>83.0</ele><time>2026-05-01T10:42:59.231Z</time></trkpt><trkpt lat="39.2917837" lon="8.4876953"><ele>83.0</ele><time>2026-05-01T10:43:00.232Z</time></trkpt><trkpt lat="39.2918408" lon="8.4878761"><ele>83.0</ele><time>2026-05-01T10:43:01.232Z</time></trkpt><trkpt lat="39.2918961" lon="8.488048"><ele>83.0</ele><time>2026-05-01T10:43:02.231Z</time></trkpt><trkpt lat="39.2919475" lon="8.4882124"><ele>83.0</ele><time>2026-05-01T10:43:03.231Z</time></trkpt><trkpt lat="39.2919948" lon="8.4883702"><ele>83.80000000000001</ele><time>2026-05-01T10:43:04.231Z</time></trkpt><trkpt lat="39.292041" lon="8.4885184"><ele>84.6</ele><time>2026-05-01T10:43:05.231Z</time></trkpt><trkpt lat="39.292085" lon="8.4886566"><ele>85.4</ele><time>2026-05-01T10:43:06.231Z</time></trkpt><trkpt lat="39.2921215" lon="8.4887729"><ele>86.19999999999999</ele><time>2026-05-01T10:43:07.231Z</time></trkpt><trkpt lat="39.2921567" lon="8.4888816"><ele>87.0</ele><time>2026-05-01T10:43:08.231Z</time></trkpt><trkpt lat="39.2921902" lon="8.4889865"><ele>87.39999999999999</ele><time>2026-05-01T10:43:09.232Z</time></trkpt><trkpt lat="39.2922235" lon="8.4890954"><ele>87.8</ele><time>2026-05-01T10:43:10.232Z</time></trkpt><trkpt lat="39.2922575" lon="8.4892091"><ele>88.2</ele><time>2026-05-01T10:43:11.231Z</time></trkpt><trkpt lat="39.2922934" lon="8.4893244"><ele>88.6</ele><time>2026-05-01T10:43:12.231Z</time></trkpt><trkpt lat="39.2923318" lon="8.4894466"><ele>89.0</ele><time>2026-05-01T10:43:13.231Z</time></trkpt><trkpt lat="39.2923709" lon="8.4895749"><ele>86.75</ele><time>2026-05-01T10:43:14.231Z</time></trkpt><trkpt lat="39.2924114" lon="8.4897134"><ele>84.5</ele><time>2026-05-01T10:43:15.231Z</time></trkpt><trkpt lat="39.2924501" lon="8.4898581"><ele>82.25</ele><time>2026-05-01T10:43:16.231Z</time></trkpt><trkpt lat="39.2924886" lon="8.4900061"><ele>80.0</ele><time>2026-05-01T10:43:17.232Z</time></trkpt><trkpt lat="39.2925246" lon="8.4901588"><ele>80.0</ele><time>2026-05-01T10:43:18.231Z</time></trkpt><trkpt lat="39.2925593" lon="8.4903138"><ele>80.0</ele><time>2026-05-01T10:43:19.231Z</time></trkpt><trkpt lat="39.2925919" lon="8.4904689"><ele>80.0</ele><time>2026-05-01T10:43:20.231Z</time></trkpt><trkpt lat="39.2926283" lon="8.4906194"><ele>80.0</ele><time>2026-05-01T10:43:21.231Z</time></trkpt><trkpt lat="39.2926633" lon="8.4907722"><ele>79.75</ele><time>2026-05-01T10:43:22.231Z</time></trkpt><trkpt lat="39.2926941" lon="8.4909174"><ele>79.5</ele><time>2026-05-01T10:43:23.232Z</time></trkpt><trkpt lat="39.2927283" lon="8.4910642"><ele>79.25</ele><time>2026-05-01T10:43:24.231Z</time></trkpt><trkpt lat="39.29276" lon="8.4912108"><ele>79.0</ele><time>2026-05-01T10:43:25.232Z</time></trkpt><trkpt lat="39.2927895" lon="8.4913625"><ele>80.5</ele><time>2026-05-01T10:43:26.232Z</time></trkpt><trkpt lat="39.2928206" lon="8.491516"><ele>82.0</ele><time>2026-05-01T10:43:27.231Z</time></trkpt><trkpt lat="39.2928538" lon="8.4916729"><ele>83.5</ele><time>2026-05-01T10:43:28.231Z</time></trkpt><trkpt lat="39.2928892" lon="8.4918357"><ele>85.0</ele><time>2026-05-01T10:43:29.231Z</time></trkpt><trkpt lat="39.2929243" lon="8.4920025"><ele>86.75</ele><time>2026-05-01T10:43:30.231Z</time></trkpt><trkpt lat="39.2929592" lon="8.4921785"><ele>88.5</ele><time>2026-05-01T10:43:31.232Z</time></trkpt><trkpt lat="39.2929945" lon="8.4923506"><ele>90.25</ele><time>2026-05-01T10:43:32.232Z</time></trkpt><trkpt lat="39.2930274" lon="8.4925069"><ele>92.0</ele><time>2026-05-01T10:43:33.232Z</time></trkpt><trkpt lat="39.2930588" lon="8.4926551"><ele>90.39999999999999</ele><time>2026-05-01T10:43:34.232Z</time></trkpt><trkpt lat="39.2930908" lon="8.4927974"><ele>88.8</ele><time>2026-05-01T10:43:35.232Z</time></trkpt><trkpt lat="39.293121" lon="8.4929236"><ele>87.2</ele><time>2026-05-01T10:43:36.231Z</time></trkpt><trkpt lat="39.2931518" lon="8.493037"><ele>85.6</ele><time>2026-05-01T10:43:37.232Z</time></trkpt><trkpt lat="39.2931839" lon="8.4931371"><ele>84.0</ele><time>2026-05-01T10:43:38.231Z</time></trkpt><trkpt lat="39.293217" lon="8.493228"><ele>84.0</ele><time>2026-05-01T10:43:39.231Z</time></trkpt><trkpt lat="39.2932537" lon="8.4933199"><ele>84.0</ele><time>2026-05-01T10:43:40.232Z</time></trkpt><trkpt lat="39.2932974" lon="8.4934089"><ele>84.0</ele><time>2026-05-01T10:43:41.232Z</time></trkpt><trkpt lat="39.2933507" lon="8.4935108"><ele>84.0</ele><time>2026-05-01T10:43:42.232Z</time></trkpt><trkpt lat="39.2934032" lon="8.4936042"><ele>84.0</ele><time>2026-05-01T10:43:43.231Z</time></trkpt><trkpt lat="39.2934597" lon="8.4937001"><ele>84.0</ele><time>2026-05-01T10:43:44.232Z</time></trkpt><trkpt lat="39.2935232" lon="8.4937978"><ele>84.0</ele><time>2026-05-01T10:43:45.232Z</time></trkpt><trkpt lat="39.2935938" lon="8.4939015"><ele>84.0</ele><time>2026-05-01T10:43:46.232Z</time></trkpt><trkpt lat="39.2936736" lon="8.4940127"><ele>84.0</ele><time>2026-05-01T10:43:47.231Z</time></trkpt><trkpt lat="39.2937654" lon="8.4941305"><ele>84.0</ele><time>2026-05-01T10:43:48.232Z</time></trkpt><trkpt lat="39.2938696" lon="8.4942561"><ele>84.33333333333333</ele><time>2026-05-01T10:43:49.231Z</time></trkpt><trkpt lat="39.2939762" lon="8.4943885"><ele>84.66666666666666</ele><time>2026-05-01T10:43:50.232Z</time></trkpt><trkpt lat="39.2940858" lon="8.4945223"><ele>85.0</ele><time>2026-05-01T10:43:51.232Z</time></trkpt><trkpt lat="39.2942012" lon="8.4946577"><ele>85.0</ele><time>2026-05-01T10:43:52.232Z</time></trkpt><trkpt lat="39.2943139" lon="8.4947974"><ele>85.0</ele><time>2026-05-01T10:43:53.231Z</time></trkpt><trkpt lat="39.2944272" lon="8.4949368"><ele>85.0</ele><time>2026-05-01T10:43:54.231Z</time></trkpt><trkpt lat="39.2945398" lon="8.4950764"><ele>85.0</ele><time>2026-05-01T10:43:55.232Z</time></trkpt><trkpt lat="39.2946514" lon="8.4952162"><ele>85.0</ele><time>2026-05-01T10:43:56.232Z</time></trkpt><trkpt lat="39.2947652" lon="8.4953565"><ele>85.0</ele><time>2026-05-01T10:43:57.231Z</time></trkpt><trkpt lat="39.2948792" lon="8.495498"><ele>86.33333333333333</ele><time>2026-05-01T10:43:58.232Z</time></trkpt><trkpt lat="39.2949972" lon="8.4956405"><ele>87.66666666666667</ele><time>2026-05-01T10:43:59.232Z</time></trkpt><trkpt lat="39.2951188" lon="8.4957896"><ele>89.0</ele><time>2026-05-01T10:44:00.231Z</time></trkpt><trkpt lat="39.2952428" lon="8.4959392"><ele>89.0</ele><time>2026-05-01T10:44:01.232Z</time></trkpt><trkpt lat="39.2953577" lon="8.4960832"><ele>89.0</ele><time>2026-05-01T10:44:02.232Z</time></trkpt><trkpt lat="39.2954656" lon="8.4962172"><ele>89.0</ele><time>2026-05-01T10:44:03.231Z</time></trkpt><trkpt lat="39.2955669" lon="8.4963441"><ele>89.75</ele><time>2026-05-01T10:44:04.231Z</time></trkpt><trkpt lat="39.2956646" lon="8.4964669"><ele>90.5</ele><time>2026-05-01T10:44:05.232Z</time></trkpt><trkpt lat="39.2957642" lon="8.4965866"><ele>91.25</ele><time>2026-05-01T10:44:06.231Z</time></trkpt><trkpt lat="39.2958652" lon="8.496714"><ele>92.0</ele><time>2026-05-01T10:44:07.232Z</time></trkpt><trkpt lat="39.2959683" lon="8.4968388"><ele>92.0</ele><time>2026-05-01T10:44:08.231Z</time></trkpt><trkpt lat="39.2960765" lon="8.4969726"><ele>92.0</ele><time>2026-05-01T10:44:09.232Z</time></trkpt><trkpt lat="39.2961876" lon="8.4971083"><ele>92.0</ele><time>2026-05-01T10:44:10.231Z</time></trkpt><trkpt lat="39.2963003" lon="8.497251"><ele>93.33333333333334</ele><time>2026-05-01T10:44:11.231Z</time></trkpt><trkpt lat="39.2964181" lon="8.4973969"><ele>94.66666666666667</ele><time>2026-05-01T10:44:12.232Z</time></trkpt><trkpt lat="39.296536" lon="8.497547"><ele>96.0</ele><time>2026-05-01T10:44:13.232Z</time></trkpt><trkpt lat="39.2966469" lon="8.4977018"><ele>97.0</ele><time>2026-05-01T10:44:14.232Z</time></trkpt><trkpt lat="39.2967517" lon="8.497873"><ele>98.0</ele><time>2026-05-01T10:44:15.231Z</time></trkpt><trkpt lat="39.2968486" lon="8.4980568"><ele>99.0</ele><time>2026-05-01T10:44:16.232Z</time></trkpt><trkpt lat="39.2969348" lon="8.498252"><ele>100.0</ele><time>2026-05-01T10:44:17.231Z</time></trkpt><trkpt lat="39.2970102" lon="8.498456"><ele>101.0</ele><time>2026-05-01T10:44:18.232Z</time></trkpt><trkpt lat="39.2970764" lon="8.4986663"><ele>102.0</ele><time>2026-05-01T10:44:19.232Z</time></trkpt><trkpt lat="39.2971304" lon="8.4988771"><ele>103.33333333333334</ele><time>2026-05-01T10:44:20.232Z</time></trkpt><trkpt lat="39.2971718" lon="8.4990824"><ele>104.66666666666667</ele><time>2026-05-01T10:44:21.232Z</time></trkpt><trkpt lat="39.2971992" lon="8.499285"><ele>106.0</ele><time>2026-05-01T10:44:22.232Z</time></trkpt><trkpt lat="39.2972172" lon="8.4994919"><ele>108.0</ele><time>2026-05-01T10:44:23.232Z</time></trkpt><trkpt lat="39.2972311" lon="8.4997028"><ele>110.0</ele><time>2026-05-01T10:44:24.232Z</time></trkpt><trkpt lat="39.2972459" lon="8.4999151"><ele>112.0</ele><time>2026-05-01T10:44:25.232Z</time></trkpt><trkpt lat="39.2972635" lon="8.5001363"><ele>112.0</ele><time>2026-05-01T10:44:26.231Z</time></trkpt><trkpt lat="39.2972819" lon="8.5003608"><ele>112.0</ele><time>2026-05-01T10:44:27.232Z</time></trkpt><trkpt lat="39.2973034" lon="8.5005925"><ele>112.0</ele><time>2026-05-01T10:44:28.232Z</time></trkpt><trkpt lat="39.2973173" lon="8.5008319"><ele>113.33333333333334</ele><time>2026-05-01T10:44:29.232Z</time></trkpt><trkpt lat="39.2973332" lon="8.5010647"><ele>114.66666666666666</ele><time>2026-05-01T10:44:30.232Z</time></trkpt><trkpt lat="39.2973523" lon="8.5013051"><ele>116.0</ele><time>2026-05-01T10:44:31.231Z</time></trkpt><trkpt lat="39.2973729" lon="8.5015548"><ele>117.33333333333333</ele><time>2026-05-01T10:44:32.231Z</time></trkpt><trkpt lat="39.2973906" lon="8.5018105"><ele>118.66666666666666</ele><time>2026-05-01T10:44:33.232Z</time></trkpt><trkpt lat="39.2974064" lon="8.5020722"><ele>120.0</ele><time>2026-05-01T10:44:34.232Z</time></trkpt><trkpt lat="39.2974223" lon="8.5023355"><ele>121.66666666666666</ele><time>2026-05-01T10:44:35.232Z</time></trkpt><trkpt lat="39.2974366" lon="8.5025971"><ele>123.33333333333333</ele><time>2026-05-01T10:44:36.232Z</time></trkpt><trkpt lat="39.2974523" lon="8.5028586"><ele>125.0</ele><time>2026-05-01T10:44:37.231Z</time></trkpt><trkpt lat="39.297468" lon="8.5031162"><ele>125.0</ele><time>2026-05-01T10:44:38.231Z</time></trkpt><trkpt lat="39.2974836" lon="8.503372"><ele>125.0</ele><time>2026-05-01T10:44:39.231Z</time></trkpt><trkpt lat="39.2974982" lon="8.5036282"><ele>125.0</ele><time>2026-05-01T10:44:40.232Z</time></trkpt><trkpt lat="39.2975131" lon="8.5038867"><ele>125.33333333333333</ele><time>2026-05-01T10:44:41.232Z</time></trkpt><trkpt lat="39.2975285" lon="8.5041446"><ele>125.66666666666666</ele><time>2026-05-01T10:44:42.232Z</time></trkpt><trkpt lat="39.2975448" lon="8.5043982"><ele>126.0</ele><time>2026-05-01T10:44:43.231Z</time></trkpt><trkpt lat="39.2975619" lon="8.5046491"><ele>126.0</ele><time>2026-05-01T10:44:44.231Z</time></trkpt><trkpt lat="39.2975822" lon="8.5048979"><ele>126.0</ele><time>2026-05-01T10:44:45.231Z</time></trkpt><trkpt lat="39.2976122" lon="8.5051437"><ele>126.0</ele><time>2026-05-01T10:44:46.231Z</time></trkpt><trkpt lat="39.2976559" lon="8.5053857"><ele>125.0</ele><time>2026-05-01T10:44:47.232Z</time></trkpt><trkpt lat="39.2977181" lon="8.5056088"><ele>124.0</ele><time>2026-05-01T10:44:48.231Z</time></trkpt><trkpt lat="39.2977986" lon="8.5058165"><ele>123.0</ele><time>2026-05-01T10:44:49.232Z</time></trkpt><trkpt lat="39.297893" lon="8.506016"><ele>123.0</ele><time>2026-05-01T10:44:50.232Z</time></trkpt><trkpt lat="39.297991" lon="8.5062139"><ele>123.0</ele><time>2026-05-01T10:44:51.231Z</time></trkpt><trkpt lat="39.2980873" lon="8.5064129"><ele>123.0</ele><time>2026-05-01T10:44:52.231Z</time></trkpt><trkpt lat="39.2981798" lon="8.5066117"><ele>126.66666666666666</ele><time>2026-05-01T10:44:53.231Z</time></trkpt><trkpt lat="39.2982692" lon="8.5068087"><ele>130.33333333333331</ele><time>2026-05-01T10:44:54.231Z</time></trkpt><trkpt lat="39.2983536" lon="8.5070082"><ele>134.0</ele><time>2026-05-01T10:44:55.232Z</time></trkpt><trkpt lat="39.2984262" lon="8.5072143"><ele>134.0</ele><time>2026-05-01T10:44:56.231Z</time></trkpt><trkpt lat="39.2984818" lon="8.5074265"><ele>134.0</ele><time>2026-05-01T10:44:57.231Z</time></trkpt><trkpt lat="39.2985187" lon="8.5076483"><ele>134.0</ele><time>2026-05-01T10:44:58.232Z</time></trkpt><trkpt lat="39.2985422" lon="8.507881"><ele>135.0</ele><time>2026-05-01T10:44:59.232Z</time></trkpt><trkpt lat="39.298558" lon="8.5081249"><ele>136.0</ele><time>2026-05-01T10:45:00.232Z</time></trkpt><trkpt lat="39.2985685" lon="8.5083729"><ele>137.0</ele><time>2026-05-01T10:45:01.232Z</time></trkpt><trkpt lat="39.2985763" lon="8.5086232"><ele>136.33333333333331</ele><time>2026-05-01T10:45:02.231Z</time></trkpt><trkpt lat="39.2985814" lon="8.508874"><ele>135.66666666666666</ele><time>2026-05-01T10:45:03.231Z</time></trkpt><trkpt lat="39.2985821" lon="8.5091248"><ele>135.0</ele><time>2026-05-01T10:45:04.231Z</time></trkpt><trkpt lat="39.2985778" lon="8.5093772"><ele>136.0</ele><time>2026-05-01T10:45:05.232Z</time></trkpt><trkpt lat="39.2985688" lon="8.5096303"><ele>137.0</ele><time>2026-05-01T10:45:06.231Z</time></trkpt><trkpt lat="39.2985527" lon="8.5098822"><ele>138.0</ele><time>2026-05-01T10:45:07.231Z</time></trkpt><trkpt lat="39.2985286" lon="8.5101298"><ele>138.0</ele><time>2026-05-01T10:45:08.231Z</time></trkpt><trkpt lat="39.2984979" lon="8.5103743"><ele>138.0</ele><time>2026-05-01T10:45:09.231Z</time></trkpt><trkpt lat="39.2984623" lon="8.5106154"><ele>138.0</ele><time>2026-05-01T10:45:10.232Z</time></trkpt><trkpt lat="39.298425" lon="8.510854"><ele>140.33333333333334</ele><time>2026-05-01T10:45:11.232Z</time></trkpt><trkpt lat="39.2983834" lon="8.5110889"><ele>142.66666666666669</ele><time>2026-05-01T10:45:12.232Z</time></trkpt><trkpt lat="39.2983342" lon="8.5113052"><ele>145.0</ele><time>2026-05-01T10:45:13.232Z</time></trkpt><trkpt lat="39.298278" lon="8.5115198"><ele>145.33333333333334</ele><time>2026-05-01T10:45:14.231Z</time></trkpt><trkpt lat="39.2982172" lon="8.5117337"><ele>145.66666666666666</ele><time>2026-05-01T10:45:15.232Z</time></trkpt><trkpt lat="39.2981511" lon="8.5119509"><ele>146.0</ele><time>2026-05-01T10:45:16.232Z</time></trkpt><trkpt lat="39.2980786" lon="8.5121688"><ele>146.33333333333331</ele><time>2026-05-01T10:45:17.231Z</time></trkpt><trkpt lat="39.2980001" lon="8.512387"><ele>146.66666666666666</ele><time>2026-05-01T10:45:18.232Z</time></trkpt><trkpt lat="39.2979143" lon="8.5126046"><ele>147.0</ele><time>2026-05-01T10:45:19.232Z</time></trkpt><trkpt lat="39.2978216" lon="8.512823"><ele>148.0</ele><time>2026-05-01T10:45:20.232Z</time></trkpt><trkpt lat="39.2977212" lon="8.5130402"><ele>149.0</ele><time>2026-05-01T10:45:21.231Z</time></trkpt><trkpt lat="39.2976152" lon="8.5132581"><ele>150.0</ele><time>2026-05-01T10:45:22.232Z</time></trkpt><trkpt lat="39.2975073" lon="8.5134784"><ele>150.0</ele><time>2026-05-01T10:45:23.231Z</time></trkpt><trkpt lat="39.2974067" lon="8.5137021"><ele>150.0</ele><time>2026-05-01T10:45:24.232Z</time></trkpt><trkpt lat="39.2973185" lon="8.5139329"><ele>150.0</ele><time>2026-05-01T10:45:25.231Z</time></trkpt><trkpt lat="39.2972402" lon="8.5141713"><ele>150.33333333333334</ele><time>2026-05-01T10:45:26.231Z</time></trkpt><trkpt lat="39.2971722" lon="8.5144157"><ele>150.66666666666669</ele><time>2026-05-01T10:45:27.232Z</time></trkpt><trkpt lat="39.297114" lon="8.5146687"><ele>151.0</ele><time>2026-05-01T10:45:28.232Z</time></trkpt><trkpt lat="39.2970663" lon="8.5149293"><ele>151.33333333333334</ele><time>2026-05-01T10:45:29.231Z</time></trkpt><trkpt lat="39.2970241" lon="8.5151942"><ele>151.66666666666666</ele><time>2026-05-01T10:45:30.232Z</time></trkpt><trkpt lat="39.2969868" lon="8.5154576"><ele>152.0</ele><time>2026-05-01T10:45:31.232Z</time></trkpt><trkpt lat="39.2969512" lon="8.51571"><ele>152.0</ele><time>2026-05-01T10:45:32.231Z</time></trkpt><trkpt lat="39.2969153" lon="8.5159618"><ele>152.0</ele><time>2026-05-01T10:45:33.232Z</time></trkpt><trkpt lat="39.2968777" lon="8.5162138"><ele>152.0</ele><time>2026-05-01T10:45:34.232Z</time></trkpt><trkpt lat="39.2968404" lon="8.5164691"><ele>151.33333333333331</ele><time>2026-05-01T10:45:35.232Z</time></trkpt><trkpt lat="39.2968048" lon="8.5167273"><ele>150.66666666666666</ele><time>2026-05-01T10:45:36.231Z</time></trkpt><trkpt lat="39.2967695" lon="8.5169749"><ele>150.0</ele><time>2026-05-01T10:45:37.231Z</time></trkpt><trkpt lat="39.2967383" lon="8.5172166"><ele>147.0</ele><time>2026-05-01T10:45:38.232Z</time></trkpt><trkpt lat="39.2967069" lon="8.5174608"><ele>144.0</ele><time>2026-05-01T10:45:39.232Z</time></trkpt><trkpt lat="39.2966735" lon="8.5177046"><ele>141.0</ele><time>2026-05-01T10:45:40.232Z</time></trkpt><trkpt lat="39.296641" lon="8.5179454"><ele>140.33333333333334</ele><time>2026-05-01T10:45:41.231Z</time></trkpt><trkpt lat="39.2966072" lon="8.518188"><ele>139.66666666666669</ele><time>2026-05-01T10:45:42.231Z</time></trkpt><trkpt lat="39.296573" lon="8.5184338"><ele>139.0</ele><time>2026-05-01T10:45:43.232Z</time></trkpt><trkpt lat="39.2965395" lon="8.5186865"><ele>140.0</ele><time>2026-05-01T10:45:44.232Z</time></trkpt><trkpt lat="39.2965044" lon="8.5189419"><ele>141.0</ele><time>2026-05-01T10:45:45.231Z</time></trkpt><trkpt lat="39.2964708" lon="8.5191961"><ele>142.0</ele><time>2026-05-01T10:45:46.231Z</time></trkpt><trkpt lat="39.2964351" lon="8.5194554"><ele>143.0</ele><time>2026-05-01T10:45:47.231Z</time></trkpt><trkpt lat="39.2963972" lon="8.519717"><ele>144.0</ele><time>2026-05-01T10:45:48.231Z</time></trkpt><trkpt lat="39.2963618" lon="8.5199759"><ele>145.0</ele><time>2026-05-01T10:45:49.232Z</time></trkpt><trkpt lat="39.2963263" lon="8.5202296"><ele>143.66666666666669</ele><time>2026-05-01T10:45:50.231Z</time></trkpt><trkpt lat="39.2962909" lon="8.5204864"><ele>142.33333333333334</ele><time>2026-05-01T10:45:51.232Z</time></trkpt><trkpt lat="39.296256" lon="8.5207446"><ele>141.0</ele><time>2026-05-01T10:45:52.232Z</time></trkpt><trkpt lat="39.2962196" lon="8.5209963"><ele>138.66666666666666</ele><time>2026-05-01T10:45:53.232Z</time></trkpt><trkpt lat="39.2961843" lon="8.5212437"><ele>136.33333333333331</ele><time>2026-05-01T10:45:54.232Z</time></trkpt><trkpt lat="39.2961503" lon="8.521491"><ele>134.0</ele><time>2026-05-01T10:45:55.232Z</time></trkpt><trkpt lat="39.2961136" lon="8.5217463"><ele>134.0</ele><time>2026-05-01T10:45:56.232Z</time></trkpt><trkpt lat="39.2960708" lon="8.5220056"><ele>134.0</ele><time>2026-05-01T10:45:57.232Z</time></trkpt><trkpt lat="39.2960206" lon="8.5222726"><ele>134.0</ele><time>2026-05-01T10:45:58.232Z</time></trkpt><trkpt lat="39.2959655" lon="8.5225441"><ele>134.0</ele><time>2026-05-01T10:45:59.232Z</time></trkpt><trkpt lat="39.2959061" lon="8.5228132"><ele>134.0</ele><time>2026-05-01T10:46:00.231Z</time></trkpt><trkpt lat="39.2958434" lon="8.5230831"><ele>134.0</ele><time>2026-05-01T10:46:01.232Z</time></trkpt><trkpt lat="39.2957747" lon="8.5233536"><ele>134.66666666666666</ele><time>2026-05-01T10:46:02.231Z</time></trkpt><trkpt lat="39.2957038" lon="8.5236259"><ele>135.33333333333334</ele><time>2026-05-01T10:46:03.231Z</time></trkpt><trkpt lat="39.2956313" lon="8.5238957"><ele>136.0</ele><time>2026-05-01T10:46:04.232Z</time></trkpt><trkpt lat="39.2955603" lon="8.5241549"><ele>138.66666666666669</ele><time>2026-05-01T10:46:05.232Z</time></trkpt><trkpt lat="39.2954921" lon="8.5244074"><ele>141.33333333333334</ele><time>2026-05-01T10:46:06.231Z</time></trkpt><trkpt lat="39.2954267" lon="8.5246597"><ele>144.0</ele><time>2026-05-01T10:46:07.232Z</time></trkpt><trkpt lat="39.2953619" lon="8.5249088"><ele>144.66666666666666</ele><time>2026-05-01T10:46:08.232Z</time></trkpt><trkpt lat="39.2952961" lon="8.5251514"><ele>145.33333333333331</ele><time>2026-05-01T10:46:09.231Z</time></trkpt><trkpt lat="39.2952307" lon="8.5253904"><ele>146.0</ele><time>2026-05-01T10:46:10.232Z</time></trkpt><trkpt lat="39.2951642" lon="8.5256284"><ele>146.0</ele><time>2026-05-01T10:46:11.231Z</time></trkpt><trkpt lat="39.2950994" lon="8.5258638"><ele>146.0</ele><time>2026-05-01T10:46:12.231Z</time></trkpt><trkpt lat="39.2950364" lon="8.5260968"><ele>146.0</ele><time>2026-05-01T10:46:13.231Z</time></trkpt><trkpt lat="39.2949735" lon="8.5263276"><ele>146.66666666666666</ele><time>2026-05-01T10:46:14.232Z</time></trkpt><trkpt lat="39.2949106" lon="8.5265564"><ele>147.33333333333334</ele><time>2026-05-01T10:46:15.231Z</time></trkpt><trkpt lat="39.2948478" lon="8.5267812"><ele>148.0</ele><time>2026-05-01T10:46:16.231Z</time></trkpt><trkpt lat="39.2947836" lon="8.5270023"><ele>148.66666666666669</ele><time>2026-05-01T10:46:17.231Z</time></trkpt><trkpt lat="39.2947256" lon="8.527208"><ele>149.33333333333334</ele><time>2026-05-01T10:46:18.232Z</time></trkpt><trkpt lat="39.29467" lon="8.5274051"><ele>150.0</ele><time>2026-05-01T10:46:19.231Z</time></trkpt><trkpt lat="39.2946176" lon="8.5276054"><ele>150.0</ele><time>2026-05-01T10:46:20.231Z</time></trkpt><trkpt lat="39.2945642" lon="8.5278032"><ele>150.0</ele><time>2026-05-01T10:46:21.231Z</time></trkpt><trkpt lat="39.2945116" lon="8.5280043"><ele>150.0</ele><time>2026-05-01T10:46:22.232Z</time></trkpt><trkpt lat="39.2944596" lon="8.5282197"><ele>152.0</ele><time>2026-05-01T10:46:23.232Z</time></trkpt><trkpt lat="39.2944031" lon="8.5284343"><ele>154.0</ele><time>2026-05-01T10:46:24.231Z</time></trkpt><trkpt lat="39.2943456" lon="8.5286515"><ele>156.0</ele><time>2026-05-01T10:46:25.231Z</time></trkpt><trkpt lat="39.294285" lon="8.5288665"><ele>158.66666666666666</ele><time>2026-05-01T10:46:26.232Z</time></trkpt><trkpt lat="39.2942266" lon="8.5290854"><ele>161.33333333333331</ele><time>2026-05-01T10:46:27.231Z</time></trkpt><trkpt lat="39.2941643" lon="8.5293072"><ele>164.0</ele><time>2026-05-01T10:46:28.232Z</time></trkpt><trkpt lat="39.2941002" lon="8.5295373"><ele>165.66666666666666</ele><time>2026-05-01T10:46:29.231Z</time></trkpt><trkpt lat="39.2940409" lon="8.5297459"><ele>167.33333333333334</ele><time>2026-05-01T10:46:30.232Z</time></trkpt><trkpt lat="39.2939851" lon="8.5299454"><ele>169.0</ele><time>2026-05-01T10:46:31.232Z</time></trkpt><trkpt lat="39.2939288" lon="8.5301524"><ele>171.66666666666669</ele><time>2026-05-01T10:46:32.232Z</time></trkpt><trkpt lat="39.2938727" lon="8.5303545"><ele>174.33333333333334</ele><time>2026-05-01T10:46:33.232Z</time></trkpt><trkpt lat="39.2938141" lon="8.5305578"><ele>177.0</ele><time>2026-05-01T10:46:34.232Z</time></trkpt><trkpt lat="39.2937561" lon="8.5307617"><ele>177.0</ele><time>2026-05-01T10:46:35.231Z</time></trkpt><trkpt lat="39.2936992" lon="8.5309682"><ele>177.0</ele><time>2026-05-01T10:46:36.232Z</time></trkpt><trkpt lat="39.2936402" lon="8.5311775"><ele>177.0</ele><time>2026-05-01T10:46:37.232Z</time></trkpt><trkpt lat="39.2935794" lon="8.531397"><ele>179.0</ele><time>2026-05-01T10:46:38.231Z</time></trkpt><trkpt lat="39.2935211" lon="8.5316158"><ele>181.0</ele><time>2026-05-01T10:46:39.231Z</time></trkpt><trkpt lat="39.2934682" lon="8.5318256"><ele>183.0</ele><time>2026-05-01T10:46:40.232Z</time></trkpt><trkpt lat="39.2934173" lon="8.5320374"><ele>185.33333333333334</ele><time>2026-05-01T10:46:41.231Z</time></trkpt><trkpt lat="39.2933716" lon="8.5322393"><ele>187.66666666666669</ele><time>2026-05-01T10:46:42.231Z</time></trkpt><trkpt lat="39.2933327" lon="8.5324276"><ele>190.0</ele><time>2026-05-01T10:46:43.231Z</time></trkpt><trkpt lat="39.2932955" lon="8.5326035"><ele>190.0</ele><time>2026-05-01T10:46:44.232Z</time></trkpt><trkpt lat="39.2932622" lon="8.5327831"><ele>190.0</ele><time>2026-05-01T10:46:45.232Z</time></trkpt><trkpt lat="39.2932306" lon="8.532963"><ele>190.0</ele><time>2026-05-01T10:46:46.231Z</time></trkpt><trkpt lat="39.2932007" lon="8.533151"><ele>190.0</ele><time>2026-05-01T10:46:47.232Z</time></trkpt><trkpt lat="39.2931741" lon="8.5333414"><ele>191.0</ele><time>2026-05-01T10:46:48.231Z</time></trkpt><trkpt lat="39.2931504" lon="8.533536"><ele>192.0</ele><time>2026-05-01T10:46:49.231Z</time></trkpt><trkpt lat="39.293131" lon="8.5337292"><ele>193.0</ele><time>2026-05-01T10:46:50.231Z</time></trkpt><trkpt lat="39.2931121" lon="8.5339264"><ele>194.33333333333331</ele><time>2026-05-01T10:46:51.232Z</time></trkpt><trkpt lat="39.293096" lon="8.5341231"><ele>195.66666666666669</ele><time>2026-05-01T10:46:52.232Z</time></trkpt><trkpt lat="39.2930823" lon="8.5343247"><ele>197.0</ele><time>2026-05-01T10:46:53.232Z</time></trkpt><trkpt lat="39.2930728" lon="8.5345271"><ele>200.0</ele><time>2026-05-01T10:46:54.232Z</time></trkpt><trkpt lat="39.2930649" lon="8.5347312"><ele>203.0</ele><time>2026-05-01T10:46:55.231Z</time></trkpt><trkpt lat="39.2930607" lon="8.5349436"><ele>206.0</ele><time>2026-05-01T10:46:56.232Z</time></trkpt><trkpt lat="39.2930591" lon="8.5351608"><ele>206.0</ele><time>2026-05-01T10:46:57.231Z</time></trkpt><trkpt lat="39.2930628" lon="8.5353858"><ele>206.0</ele><time>2026-05-01T10:46:58.232Z</time></trkpt><trkpt lat="39.2930709" lon="8.5356141"><ele>206.0</ele><time>2026-05-01T10:46:59.231Z</time></trkpt><trkpt lat="39.2930828" lon="8.5358457"><ele>204.33333333333334</ele><time>2026-05-01T10:47:00.232Z</time></trkpt><trkpt lat="39.293099" lon="8.5360761"><ele>202.66666666666669</ele><time>2026-05-01T10:47:01.231Z</time></trkpt><trkpt lat="39.2931187" lon="8.5362927"><ele>201.0</ele><time>2026-05-01T10:47:02.232Z</time></trkpt><trkpt lat="39.2931403" lon="8.5365007"><ele>201.0</ele><time>2026-05-01T10:47:03.231Z</time></trkpt><trkpt lat="39.2931647" lon="8.536703"><ele>201.0</ele><time>2026-05-01T10:47:04.232Z</time></trkpt><trkpt lat="39.2931907" lon="8.5369027"><ele>201.0</ele><time>2026-05-01T10:47:05.232Z</time></trkpt><trkpt lat="39.2932199" lon="8.5371045"><ele>201.0</ele><time>2026-05-01T10:47:06.231Z</time></trkpt><trkpt lat="39.2932531" lon="8.5373092"><ele>201.0</ele><time>2026-05-01T10:47:07.232Z</time></trkpt><trkpt lat="39.2932914" lon="8.5375182"><ele>201.0</ele><time>2026-05-01T10:47:08.231Z</time></trkpt><trkpt lat="39.2933331" lon="8.5377256"><ele>203.33333333333331</ele><time>2026-05-01T10:47:09.231Z</time></trkpt><trkpt lat="39.2933803" lon="8.5379334"><ele>205.66666666666666</ele><time>2026-05-01T10:47:10.232Z</time></trkpt><trkpt lat="39.2934343" lon="8.5381407"><ele>208.0</ele><time>2026-05-01T10:47:11.231Z</time></trkpt><trkpt lat="39.2934928" lon="8.5383466"><ele>208.0</ele><time>2026-05-01T10:47:12.231Z</time></trkpt><trkpt lat="39.29355" lon="8.5385545"><ele>208.0</ele><time>2026-05-01T10:47:13.231Z</time></trkpt><trkpt lat="39.2936104" lon="8.538766"><ele>208.0</ele><time>2026-05-01T10:47:14.231Z</time></trkpt><trkpt lat="39.2936725" lon="8.5389783"><ele>210.0</ele><time>2026-05-01T10:47:15.232Z</time></trkpt><trkpt lat="39.2937353" lon="8.5391851"><ele>212.0</ele><time>2026-05-01T10:47:16.232Z</time></trkpt><trkpt lat="39.2937989" lon="8.5393928"><ele>214.0</ele><time>2026-05-01T10:47:17.232Z</time></trkpt><trkpt lat="39.2938626" lon="8.5396008"><ele>212.66666666666666</ele><time>2026-05-01T10:47:18.232Z</time></trkpt><trkpt lat="39.2939272" lon="8.5398046"><ele>211.33333333333331</ele><time>2026-05-01T10:47:19.231Z</time></trkpt><trkpt lat="39.2939862" lon="8.5399961"><ele>210.0</ele><time>2026-05-01T10:47:20.232Z</time></trkpt><trkpt lat="39.2940435" lon="8.5401823"><ele>210.0</ele><time>2026-05-01T10:47:21.232Z</time></trkpt><trkpt lat="39.2941015" lon="8.5403741"><ele>210.0</ele><time>2026-05-01T10:47:22.231Z</time></trkpt><trkpt lat="39.2941595" lon="8.5405669"><ele>210.0</ele><time>2026-05-01T10:47:23.231Z</time></trkpt><trkpt lat="39.2942191" lon="8.5407634"><ele>211.0</ele><time>2026-05-01T10:47:24.231Z</time></trkpt><trkpt lat="39.294279" lon="8.5409643"><ele>212.0</ele><time>2026-05-01T10:47:25.232Z</time></trkpt><trkpt lat="39.2943403" lon="8.5411687"><ele>213.0</ele><time>2026-05-01T10:47:26.232Z</time></trkpt><trkpt lat="39.2944027" lon="8.5413762"><ele>215.33333333333331</ele><time>2026-05-01T10:47:27.232Z</time></trkpt><trkpt lat="39.2944666" lon="8.5415868"><ele>217.66666666666666</ele><time>2026-05-01T10:47:28.231Z</time></trkpt><trkpt lat="39.294531" lon="8.5417996"><ele>220.0</ele><time>2026-05-01T10:47:29.232Z</time></trkpt><trkpt lat="39.2946021" lon="8.5420161"><ele>220.66666666666666</ele><time>2026-05-01T10:47:30.232Z</time></trkpt><trkpt lat="39.29467" lon="8.5422396"><ele>221.33333333333331</ele><time>2026-05-01T10:47:31.232Z</time></trkpt><trkpt lat="39.2947412" lon="8.5424704"><ele>222.0</ele><time>2026-05-01T10:47:32.231Z</time></trkpt><trkpt lat="39.2948154" lon="8.5427096"><ele>220.0</ele><time>2026-05-01T10:47:33.231Z</time></trkpt><trkpt lat="39.2948884" lon="8.5429519"><ele>218.0</ele><time>2026-05-01T10:47:34.231Z</time></trkpt><trkpt lat="39.2949635" lon="8.5432025"><ele>216.0</ele><time>2026-05-01T10:47:35.232Z</time></trkpt><trkpt lat="39.2950385" lon="8.5434544"><ele>216.0</ele><time>2026-05-01T10:47:36.232Z</time></trkpt><trkpt lat="39.2951101" lon="8.5436939"><ele>216.0</ele><time>2026-05-01T10:47:37.232Z</time></trkpt><trkpt lat="39.2951828" lon="8.5439291"><ele>216.0</ele><time>2026-05-01T10:47:38.232Z</time></trkpt><trkpt lat="39.2952546" lon="8.5441658"><ele>218.0</ele><time>2026-05-01T10:47:39.231Z</time></trkpt><trkpt lat="39.2953241" lon="8.5443998"><ele>220.0</ele><time>2026-05-01T10:47:40.231Z</time></trkpt><trkpt lat="39.2953914" lon="8.5446208"><ele>222.0</ele><time>2026-05-01T10:47:41.232Z</time></trkpt><trkpt lat="39.2954551" lon="8.5448358"><ele>223.0</ele><time>2026-05-01T10:47:42.232Z</time></trkpt><trkpt lat="39.295514" lon="8.545052"><ele>224.0</ele><time>2026-05-01T10:47:43.231Z</time></trkpt><trkpt lat="39.2955712" lon="8.545259"><ele>225.0</ele><time>2026-05-01T10:47:44.232Z</time></trkpt><trkpt lat="39.2956376" lon="8.5454671"><ele>232.33333333333331</ele><time>2026-05-01T10:47:45.232Z</time></trkpt><trkpt lat="39.2956985" lon="8.5456746"><ele>239.66666666666666</ele><time>2026-05-01T10:47:46.232Z</time></trkpt><trkpt lat="39.2957583" lon="8.5458822"><ele>247.0</ele><time>2026-05-01T10:47:47.231Z</time></trkpt><trkpt lat="39.2958179" lon="8.5460897"><ele>251.33333333333331</ele><time>2026-05-01T10:47:48.232Z</time></trkpt><trkpt lat="39.2958862" lon="8.5463199"><ele>255.66666666666669</ele><time>2026-05-01T10:47:49.231Z</time></trkpt><trkpt lat="39.295947" lon="8.546532"><ele>260.0</ele><time>2026-05-01T10:47:50.231Z</time></trkpt><trkpt lat="39.2960095" lon="8.5467445"><ele>260.0</ele><time>2026-05-01T10:47:51.232Z</time></trkpt><trkpt lat="39.2960713" lon="8.5469554"><ele>260.0</ele><time>2026-05-01T10:47:52.232Z</time></trkpt><trkpt lat="39.296132" lon="8.5471669"><ele>260.0</ele><time>2026-05-01T10:47:53.231Z</time></trkpt><trkpt lat="39.2961959" lon="8.5473825"><ele>261.0</ele><time>2026-05-01T10:47:54.232Z</time></trkpt><trkpt lat="39.2962561" lon="8.5476303"><ele>262.0</ele><time>2026-05-01T10:47:55.232Z</time></trkpt><trkpt lat="39.2963184" lon="8.547846"><ele>263.0</ele><time>2026-05-01T10:47:56.232Z</time></trkpt><trkpt lat="39.296381" lon="8.5480611"><ele>207.0</ele><time>2026-05-01T10:47:57.232Z</time></trkpt><trkpt lat="39.2968789" lon="8.5494656"><ele>202.66666666666669</ele><time>2026-05-01T10:48:05.232Z</time></trkpt><trkpt lat="39.2969267" lon="8.549644"><ele>198.33333333333334</ele><time>2026-05-01T10:48:06.231Z</time></trkpt><trkpt lat="39.2969902" lon="8.5498823"><ele>194.0</ele><time>2026-05-01T10:48:07.232Z</time></trkpt><trkpt lat="39.2970556" lon="8.5501123"><ele>194.0</ele><time>2026-05-01T10:48:08.232Z</time></trkpt><trkpt lat="39.2971273" lon="8.5503404"><ele>194.0</ele><time>2026-05-01T10:48:09.231Z</time></trkpt><trkpt lat="39.2971936" lon="8.5505649"><ele>194.0</ele><time>2026-05-01T10:48:10.232Z</time></trkpt><trkpt lat="39.2972593" lon="8.5507718"><ele>191.0</ele><time>2026-05-01T10:48:11.231Z</time></trkpt><trkpt lat="39.2973246" lon="8.5509859"><ele>188.0</ele><time>2026-05-01T10:48:12.231Z</time></trkpt><trkpt lat="39.2973886" lon="8.5512007"><ele>185.0</ele><time>2026-05-01T10:48:13.232Z</time></trkpt><trkpt lat="39.2974536" lon="8.5514204"><ele>184.0</ele><time>2026-05-01T10:48:14.232Z</time></trkpt><trkpt lat="39.2975189" lon="8.5516324"><ele>183.0</ele><time>2026-05-01T10:48:15.231Z</time></trkpt><trkpt lat="39.2975815" lon="8.5518393"><ele>182.0</ele><time>2026-05-01T10:48:16.231Z</time></trkpt><trkpt lat="39.297642" lon="8.5520425"><ele>181.0</ele><time>2026-05-01T10:48:17.232Z</time></trkpt><trkpt lat="39.297703" lon="8.5522438"><ele>180.0</ele><time>2026-05-01T10:48:18.231Z</time></trkpt><trkpt lat="39.2977618" lon="8.5524372"><ele>179.0</ele><time>2026-05-01T10:48:19.232Z</time></trkpt><trkpt lat="39.2978212" lon="8.5526311"><ele>179.0</ele><time>2026-05-01T10:48:20.231Z</time></trkpt><trkpt lat="39.2978804" lon="8.5528212"><ele>179.0</ele><time>2026-05-01T10:48:21.231Z</time></trkpt><trkpt lat="39.29794" lon="8.5530232"><ele>179.0</ele><time>2026-05-01T10:48:22.232Z</time></trkpt><trkpt lat="39.2980015" lon="8.5532294"><ele>177.0</ele><time>2026-05-01T10:48:23.232Z</time></trkpt><trkpt lat="39.2980653" lon="8.5534418"><ele>175.0</ele><time>2026-05-01T10:48:24.232Z</time></trkpt><trkpt lat="39.2981321" lon="8.5536566"><ele>173.0</ele><time>2026-05-01T10:48:25.231Z</time></trkpt><trkpt lat="39.2981977" lon="8.553872"><ele>172.0</ele><time>2026-05-01T10:48:26.231Z</time></trkpt><trkpt lat="39.2982634" lon="8.5540835"><ele>171.0</ele><time>2026-05-01T10:48:27.231Z</time></trkpt><trkpt lat="39.2983284" lon="8.5542997"><ele>170.0</ele><time>2026-05-01T10:48:28.232Z</time></trkpt><trkpt lat="39.2983915" lon="8.5545219"><ele>168.66666666666666</ele><time>2026-05-01T10:48:29.231Z</time></trkpt><trkpt lat="39.298453" lon="8.5547503"><ele>167.33333333333334</ele><time>2026-05-01T10:48:30.231Z</time></trkpt><trkpt lat="39.2985099" lon="8.5549835"><ele>166.0</ele><time>2026-05-01T10:48:31.231Z</time></trkpt><trkpt lat="39.2985629" lon="8.5552238"><ele>164.33333333333334</ele><time>2026-05-01T10:48:32.232Z</time></trkpt><trkpt lat="39.2986143" lon="8.5554677"><ele>162.66666666666666</ele><time>2026-05-01T10:48:33.232Z</time></trkpt><trkpt lat="39.2986612" lon="8.5557179"><ele>161.0</ele><time>2026-05-01T10:48:34.232Z</time></trkpt><trkpt lat="39.2987035" lon="8.5559726"><ele>159.66666666666666</ele><time>2026-05-01T10:48:35.232Z</time></trkpt><trkpt lat="39.2987405" lon="8.5562321"><ele>158.33333333333334</ele><time>2026-05-01T10:48:36.232Z</time></trkpt><trkpt lat="39.2987726" lon="8.5564951"><ele>157.0</ele><time>2026-05-01T10:48:37.231Z</time></trkpt><trkpt lat="39.2987985" lon="8.5567622"><ele>157.0</ele><time>2026-05-01T10:48:38.232Z</time></trkpt><trkpt lat="39.2988225" lon="8.5570323"><ele>157.0</ele><time>2026-05-01T10:48:39.232Z</time></trkpt><trkpt lat="39.2988405" lon="8.5573068"><ele>157.0</ele><time>2026-05-01T10:48:40.232Z</time></trkpt><trkpt lat="39.298855" lon="8.5575946"><ele>154.66666666666669</ele><time>2026-05-01T10:48:41.232Z</time></trkpt><trkpt lat="39.2988642" lon="8.5578769"><ele>152.33333333333334</ele><time>2026-05-01T10:48:42.231Z</time></trkpt><trkpt lat="39.2988716" lon="8.5581648"><ele>150.0</ele><time>2026-05-01T10:48:43.232Z</time></trkpt><trkpt lat="39.2988799" lon="8.558456"><ele>150.0</ele><time>2026-05-01T10:48:44.232Z</time></trkpt><trkpt lat="39.2988883" lon="8.5587493"><ele>150.0</ele><time>2026-05-01T10:48:45.232Z</time></trkpt><trkpt lat="39.2988951" lon="8.5590412"><ele>150.0</ele><time>2026-05-01T10:48:46.232Z</time></trkpt><trkpt lat="39.298902" lon="8.5593186"><ele>150.0</ele><time>2026-05-01T10:48:47.231Z</time></trkpt><trkpt lat="39.2989105" lon="8.5595887"><ele>150.0</ele><time>2026-05-01T10:48:48.231Z</time></trkpt><trkpt lat="39.2989178" lon="8.5598604"><ele>150.33333333333334</ele><time>2026-05-01T10:48:49.232Z</time></trkpt><trkpt lat="39.2989267" lon="8.5601321"><ele>150.66666666666669</ele><time>2026-05-01T10:48:50.232Z</time></trkpt><trkpt lat="39.2989351" lon="8.5604066"><ele>151.0</ele><time>2026-05-01T10:48:51.232Z</time></trkpt><trkpt lat="39.2989434" lon="8.560683"><ele>151.0</ele><time>2026-05-01T10:48:52.232Z</time></trkpt><trkpt lat="39.2989514" lon="8.5609626"><ele>151.0</ele><time>2026-05-01T10:48:53.232Z</time></trkpt><trkpt lat="39.2989593" lon="8.5612433"><ele>151.0</ele><time>2026-05-01T10:48:54.232Z</time></trkpt><trkpt lat="39.2989674" lon="8.5615255"><ele>151.0</ele><time>2026-05-01T10:48:55.231Z</time></trkpt><trkpt lat="39.2989764" lon="8.5618092"><ele>151.0</ele><time>2026-05-01T10:48:56.231Z</time></trkpt><trkpt lat="39.2989858" lon="8.5620937"><ele>151.0</ele><time>2026-05-01T10:48:57.232Z</time></trkpt><trkpt lat="39.2989947" lon="8.5623775"><ele>150.66666666666669</ele><time>2026-05-01T10:48:58.231Z</time></trkpt><trkpt lat="39.299003" lon="8.5626621"><ele>150.33333333333334</ele><time>2026-05-01T10:48:59.232Z</time></trkpt><trkpt lat="39.2990109" lon="8.5629456"><ele>150.0</ele><time>2026-05-01T10:49:00.232Z</time></trkpt><trkpt lat="39.2990181" lon="8.5632168"><ele>150.0</ele><time>2026-05-01T10:49:01.232Z</time></trkpt><trkpt lat="39.2990263" lon="8.5634894"><ele>150.0</ele><time>2026-05-01T10:49:02.231Z</time></trkpt><trkpt lat="39.2990343" lon="8.5637513"><ele>150.0</ele><time>2026-05-01T10:49:03.232Z</time></trkpt><trkpt lat="39.2990437" lon="8.5639987"><ele>148.66666666666666</ele><time>2026-05-01T10:49:04.232Z</time></trkpt><trkpt lat="39.2990526" lon="8.5642335"><ele>147.33333333333331</ele><time>2026-05-01T10:49:05.232Z</time></trkpt><trkpt lat="39.2990578" lon="8.5644518"><ele>146.0</ele><time>2026-05-01T10:49:06.232Z</time></trkpt><trkpt lat="39.2990638" lon="8.5646546"><ele>145.33333333333331</ele><time>2026-05-01T10:49:07.232Z</time></trkpt><trkpt lat="39.2990701" lon="8.5648552"><ele>144.66666666666666</ele><time>2026-05-01T10:49:08.232Z</time></trkpt><trkpt lat="39.299078" lon="8.565059"><ele>144.0</ele><time>2026-05-01T10:49:09.231Z</time></trkpt><trkpt lat="39.2990866" lon="8.5652682"><ele>144.0</ele><time>2026-05-01T10:49:10.231Z</time></trkpt><trkpt lat="39.2990925" lon="8.565486"><ele>144.0</ele><time>2026-05-01T10:49:11.232Z</time></trkpt><trkpt lat="39.2991006" lon="8.5657099"><ele>144.0</ele><time>2026-05-01T10:49:12.231Z</time></trkpt><trkpt lat="39.2991074" lon="8.5659359"><ele>144.0</ele><time>2026-05-01T10:49:13.231Z</time></trkpt><trkpt lat="39.2991144" lon="8.5661656"><ele>144.0</ele><time>2026-05-01T10:49:14.231Z</time></trkpt><trkpt lat="39.29912" lon="8.5664008"><ele>144.0</ele><time>2026-05-01T10:49:15.231Z</time></trkpt><trkpt lat="39.2991263" lon="8.5666372"><ele>143.66666666666666</ele><time>2026-05-01T10:49:16.231Z</time></trkpt><trkpt lat="39.2991306" lon="8.566873"><ele>143.33333333333331</ele><time>2026-05-01T10:49:17.231Z</time></trkpt><trkpt lat="39.2991372" lon="8.5671113"><ele>143.0</ele><time>2026-05-01T10:49:18.231Z</time></trkpt><trkpt lat="39.299144" lon="8.5673487"><ele>142.66666666666666</ele><time>2026-05-01T10:49:19.232Z</time></trkpt><trkpt lat="39.2991514" lon="8.5675904"><ele>142.33333333333334</ele><time>2026-05-01T10:49:20.231Z</time></trkpt><trkpt lat="39.2991608" lon="8.5678362"><ele>142.0</ele><time>2026-05-01T10:49:21.232Z</time></trkpt><trkpt lat="39.2991689" lon="8.5680852"><ele>142.0</ele><time>2026-05-01T10:49:22.232Z</time></trkpt><trkpt lat="39.2991773" lon="8.5683375"><ele>142.0</ele><time>2026-05-01T10:49:23.231Z</time></trkpt><trkpt lat="39.2991849" lon="8.5685941"><ele>142.0</ele><time>2026-05-01T10:49:24.232Z</time></trkpt><trkpt lat="39.2991934" lon="8.5688504"><ele>142.0</ele><time>2026-05-01T10:49:25.232Z</time></trkpt><trkpt lat="39.2991998" lon="8.5691067"><ele>142.0</ele><time>2026-05-01T10:49:26.232Z</time></trkpt><trkpt lat="39.2992071" lon="8.5693564"><ele>142.0</ele><time>2026-05-01T10:49:27.232Z</time></trkpt><trkpt lat="39.2992134" lon="8.5695978"><ele>141.66666666666669</ele><time>2026-05-01T10:49:28.231Z</time></trkpt><trkpt lat="39.2992179" lon="8.5698418"><ele>141.33333333333334</ele><time>2026-05-01T10:49:29.232Z</time></trkpt><trkpt lat="39.299225" lon="8.5700884"><ele>141.0</ele><time>2026-05-01T10:49:30.232Z</time></trkpt><trkpt lat="39.2992338" lon="8.570337"><ele>141.66666666666666</ele><time>2026-05-01T10:49:31.231Z</time></trkpt><trkpt lat="39.2992416" lon="8.5705866"><ele>142.33333333333331</ele><time>2026-05-01T10:49:32.232Z</time></trkpt><trkpt lat="39.2992554" lon="8.5708381"><ele>143.0</ele><time>2026-05-01T10:49:33.231Z</time></trkpt><trkpt lat="39.2992725" lon="8.5710948"><ele>142.66666666666666</ele><time>2026-05-01T10:49:34.232Z</time></trkpt><trkpt lat="39.2992939" lon="8.5713545"><ele>142.33333333333334</ele><time>2026-05-01T10:49:35.232Z</time></trkpt><trkpt lat="39.2993215" lon="8.5716163"><ele>142.0</ele><time>2026-05-01T10:49:36.232Z</time></trkpt><trkpt lat="39.2993591" lon="8.571879"><ele>140.66666666666669</ele><time>2026-05-01T10:49:37.231Z</time></trkpt><trkpt lat="39.2994068" lon="8.5721423"><ele>139.33333333333334</ele><time>2026-05-01T10:49:38.231Z</time></trkpt><trkpt lat="39.2994651" lon="8.5724076"><ele>138.0</ele><time>2026-05-01T10:49:39.231Z</time></trkpt><trkpt lat="39.2995308" lon="8.572671"><ele>138.0</ele><time>2026-05-01T10:49:40.232Z</time></trkpt><trkpt lat="39.2996011" lon="8.572919"><ele>138.0</ele><time>2026-05-01T10:49:41.231Z</time></trkpt><trkpt lat="39.2996803" lon="8.5731617"><ele>138.0</ele><time>2026-05-01T10:49:42.231Z</time></trkpt><trkpt lat="39.2997655" lon="8.5734033"><ele>138.0</ele><time>2026-05-01T10:49:43.232Z</time></trkpt><trkpt lat="39.2998584" lon="8.5736358"><ele>138.0</ele><time>2026-05-01T10:49:44.232Z</time></trkpt><trkpt lat="39.2999556" lon="8.5738624"><ele>138.0</ele><time>2026-05-01T10:49:45.231Z</time></trkpt><trkpt lat="39.3000554" lon="8.5740849"><ele>137.33333333333334</ele><time>2026-05-01T10:49:46.232Z</time></trkpt><trkpt lat="39.3001629" lon="8.5742988"><ele>136.66666666666669</ele><time>2026-05-01T10:49:47.232Z</time></trkpt><trkpt lat="39.3002736" lon="8.574509"><ele>136.0</ele><time>2026-05-01T10:49:48.232Z</time></trkpt><trkpt lat="39.3003857" lon="8.5747176"><ele>136.0</ele><time>2026-05-01T10:49:49.231Z</time></trkpt><trkpt lat="39.3004983" lon="8.5749236"><ele>136.0</ele><time>2026-05-01T10:49:50.232Z</time></trkpt><trkpt lat="39.3006078" lon="8.5751192"><ele>136.0</ele><time>2026-05-01T10:49:51.231Z</time></trkpt><trkpt lat="39.3007116" lon="8.575305"><ele>136.66666666666669</ele><time>2026-05-01T10:49:52.231Z</time></trkpt><trkpt lat="39.3008111" lon="8.5754848"><ele>137.33333333333334</ele><time>2026-05-01T10:49:53.231Z</time></trkpt><trkpt lat="39.3009114" lon="8.5756641"><ele>138.0</ele><time>2026-05-01T10:49:54.231Z</time></trkpt><trkpt lat="39.3010107" lon="8.5758455"><ele>138.0</ele><time>2026-05-01T10:49:55.232Z</time></trkpt><trkpt lat="39.301111" lon="8.5760267"><ele>138.0</ele><time>2026-05-01T10:49:56.231Z</time></trkpt><trkpt lat="39.3012126" lon="8.5762097"><ele>138.0</ele><time>2026-05-01T10:49:57.231Z</time></trkpt><trkpt lat="39.3013166" lon="8.5763959"><ele>138.33333333333334</ele><time>2026-05-01T10:49:58.232Z</time></trkpt><trkpt lat="39.3014208" lon="8.576588"><ele>138.66666666666669</ele><time>2026-05-01T10:49:59.231Z</time></trkpt><trkpt lat="39.3015249" lon="8.5767867"><ele>139.0</ele><time>2026-05-01T10:50:00.232Z</time></trkpt><trkpt lat="39.3016288" lon="8.5769968"><ele>138.33333333333334</ele><time>2026-05-01T10:50:01.231Z</time></trkpt><trkpt lat="39.3017288" lon="8.577215"><ele>137.66666666666666</ele><time>2026-05-01T10:50:02.231Z</time></trkpt><trkpt lat="39.3018204" lon="8.5774387"><ele>137.0</ele><time>2026-05-01T10:50:03.231Z</time></trkpt><trkpt lat="39.3019053" lon="8.5776708"><ele>136.33333333333331</ele><time>2026-05-01T10:50:04.232Z</time></trkpt><trkpt lat="39.3019818" lon="8.5779085"><ele>135.66666666666666</ele><time>2026-05-01T10:50:05.231Z</time></trkpt><trkpt lat="39.3020544" lon="8.5781517"><ele>135.0</ele><time>2026-05-01T10:50:06.231Z</time></trkpt><trkpt lat="39.302122" lon="8.5783978"><ele>135.0</ele><time>2026-05-01T10:50:07.232Z</time></trkpt><trkpt lat="39.3021884" lon="8.5786504"><ele>135.0</ele><time>2026-05-01T10:50:08.232Z</time></trkpt><trkpt lat="39.3022573" lon="8.5789091"><ele>135.0</ele><time>2026-05-01T10:50:09.232Z</time></trkpt><trkpt lat="39.3023241" lon="8.5791679"><ele>136.33333333333334</ele><time>2026-05-01T10:50:10.232Z</time></trkpt><trkpt lat="39.30239" lon="8.5794276"><ele>137.66666666666669</ele><time>2026-05-01T10:50:11.231Z</time></trkpt><trkpt lat="39.3024562" lon="8.5796893"><ele>139.0</ele><time>2026-05-01T10:50:12.232Z</time></trkpt><trkpt lat="39.3025244" lon="8.5799511"><ele>139.0</ele><time>2026-05-01T10:50:13.231Z</time></trkpt><trkpt lat="39.3025924" lon="8.580213"><ele>139.0</ele><time>2026-05-01T10:50:14.231Z</time></trkpt><trkpt lat="39.3026606" lon="8.5804756"><ele>139.0</ele><time>2026-05-01T10:50:15.231Z</time></trkpt><trkpt lat="39.3027285" lon="8.5807392"><ele>139.33333333333334</ele><time>2026-05-01T10:50:16.231Z</time></trkpt><trkpt lat="39.3027983" lon="8.5810038"><ele>139.66666666666666</ele><time>2026-05-01T10:50:17.231Z</time></trkpt><trkpt lat="39.3028678" lon="8.5812667"><ele>140.0</ele><time>2026-05-01T10:50:18.232Z</time></trkpt><trkpt lat="39.3029347" lon="8.5815202"><ele>140.0</ele><time>2026-05-01T10:50:19.232Z</time></trkpt><trkpt lat="39.3030017" lon="8.5817743"><ele>140.0</ele><time>2026-05-01T10:50:20.232Z</time></trkpt><trkpt lat="39.3030693" lon="8.5820264"><ele>140.0</ele><time>2026-05-01T10:50:21.232Z</time></trkpt><trkpt lat="39.3031378" lon="8.5822783"><ele>140.33333333333331</ele><time>2026-05-01T10:50:22.231Z</time></trkpt><trkpt lat="39.3032071" lon="8.5825315"><ele>140.66666666666666</ele><time>2026-05-01T10:50:23.232Z</time></trkpt><trkpt lat="39.3032757" lon="8.5827863"><ele>141.0</ele><time>2026-05-01T10:50:24.232Z</time></trkpt><trkpt lat="39.3033439" lon="8.5830442"><ele>140.0</ele><time>2026-05-01T10:50:25.232Z</time></trkpt><trkpt lat="39.3034099" lon="8.583304"><ele>139.0</ele><time>2026-05-01T10:50:26.232Z</time></trkpt><trkpt lat="39.3034758" lon="8.583565"><ele>138.0</ele><time>2026-05-01T10:50:27.231Z</time></trkpt><trkpt lat="39.3035435" lon="8.5838244"><ele>138.0</ele><time>2026-05-01T10:50:28.231Z</time></trkpt><trkpt lat="39.3036108" lon="8.5840733"><ele>138.0</ele><time>2026-05-01T10:50:29.231Z</time></trkpt><trkpt lat="39.3036785" lon="8.5843207"><ele>138.0</ele><time>2026-05-01T10:50:30.231Z</time></trkpt><trkpt lat="39.3037451" lon="8.5845691"><ele>138.33333333333334</ele><time>2026-05-01T10:50:31.232Z</time></trkpt><trkpt lat="39.303811" lon="8.5848178"><ele>138.66666666666669</ele><time>2026-05-01T10:50:32.231Z</time></trkpt><trkpt lat="39.3038772" lon="8.5850678"><ele>139.0</ele><time>2026-05-01T10:50:33.232Z</time></trkpt><trkpt lat="39.3039435" lon="8.5853183"><ele>140.33333333333334</ele><time>2026-05-01T10:50:34.232Z</time></trkpt><trkpt lat="39.3040104" lon="8.5855707"><ele>141.66666666666666</ele><time>2026-05-01T10:50:35.231Z</time></trkpt><trkpt lat="39.3040777" lon="8.5858246"><ele>143.0</ele><time>2026-05-01T10:50:36.231Z</time></trkpt><trkpt lat="39.3041466" lon="8.586078"><ele>142.66666666666666</ele><time>2026-05-01T10:50:37.231Z</time></trkpt><trkpt lat="39.3042154" lon="8.5863325"><ele>142.33333333333334</ele><time>2026-05-01T10:50:38.232Z</time></trkpt><trkpt lat="39.3042839" lon="8.5865878"><ele>142.0</ele><time>2026-05-01T10:50:39.232Z</time></trkpt><trkpt lat="39.3043524" lon="8.5868451"><ele>142.33333333333334</ele><time>2026-05-01T10:50:40.231Z</time></trkpt><trkpt lat="39.3044254" lon="8.5871101"><ele>142.66666666666666</ele><time>2026-05-01T10:50:41.232Z</time></trkpt><trkpt lat="39.3045012" lon="8.5873839"><ele>143.0</ele><time>2026-05-01T10:50:42.231Z</time></trkpt><trkpt lat="39.3045706" lon="8.5876463"><ele>143.33333333333331</ele><time>2026-05-01T10:50:43.232Z</time></trkpt><trkpt lat="39.304636" lon="8.5878988"><ele>143.66666666666666</ele><time>2026-05-01T10:50:44.232Z</time></trkpt><trkpt lat="39.3046983" lon="8.5881407"><ele>144.0</ele><time>2026-05-01T10:50:45.231Z</time></trkpt><trkpt lat="39.3047604" lon="8.5883742"><ele>144.0</ele><time>2026-05-01T10:50:46.231Z</time></trkpt><trkpt lat="39.3048219" lon="8.5886059"><ele>144.0</ele><time>2026-05-01T10:50:47.232Z</time></trkpt><trkpt lat="39.3048815" lon="8.5888344"><ele>144.0</ele><time>2026-05-01T10:50:48.232Z</time></trkpt><trkpt lat="39.3049408" lon="8.5890623"><ele>144.0</ele><time>2026-05-01T10:50:49.231Z</time></trkpt><trkpt lat="39.3050009" lon="8.5892926"><ele>144.0</ele><time>2026-05-01T10:50:50.232Z</time></trkpt><trkpt lat="39.3050625" lon="8.5895247"><ele>144.0</ele><time>2026-05-01T10:50:51.232Z</time></trkpt><trkpt lat="39.3051219" lon="8.5897565"><ele>144.0</ele><time>2026-05-01T10:50:52.231Z</time></trkpt><trkpt lat="39.3051826" lon="8.5899889"><ele>144.0</ele><time>2026-05-01T10:50:53.232Z</time></trkpt><trkpt lat="39.3052435" lon="8.590222"><ele>144.0</ele><time>2026-05-01T10:50:54.231Z</time></trkpt><trkpt lat="39.3053024" lon="8.5904474"><ele>145.0</ele><time>2026-05-01T10:50:55.232Z</time></trkpt><trkpt lat="39.3053599" lon="8.5906656"><ele>146.0</ele><time>2026-05-01T10:50:56.232Z</time></trkpt><trkpt lat="39.3054199" lon="8.5908853"><ele>147.0</ele><time>2026-05-01T10:50:57.231Z</time></trkpt><trkpt lat="39.3054779" lon="8.5911046"><ele>146.33333333333334</ele><time>2026-05-01T10:50:58.232Z</time></trkpt><trkpt lat="39.3055377" lon="8.5913202"><ele>145.66666666666669</ele><time>2026-05-01T10:50:59.232Z</time></trkpt><trkpt lat="39.3055988" lon="8.5915462"><ele>145.0</ele><time>2026-05-01T10:51:00.232Z</time></trkpt><trkpt lat="39.3056639" lon="8.5917821"><ele>144.66666666666669</ele><time>2026-05-01T10:51:01.232Z</time></trkpt><trkpt lat="39.3057301" lon="8.5920239"><ele>144.33333333333334</ele><time>2026-05-01T10:51:02.231Z</time></trkpt><trkpt lat="39.3057961" lon="8.5922716"><ele>144.0</ele><time>2026-05-01T10:51:03.232Z</time></trkpt><trkpt lat="39.3058621" lon="8.5925238"><ele>144.0</ele><time>2026-05-01T10:51:04.232Z</time></trkpt><trkpt lat="39.3059298" lon="8.5927805"><ele>144.0</ele><time>2026-05-01T10:51:05.231Z</time></trkpt><trkpt lat="39.3060002" lon="8.5930428"><ele>144.0</ele><time>2026-05-01T10:51:06.231Z</time></trkpt><trkpt lat="39.3060713" lon="8.5933103"><ele>143.5</ele><time>2026-05-01T10:51:07.231Z</time></trkpt><trkpt lat="39.3061452" lon="8.5935834"><ele>143.0</ele><time>2026-05-01T10:51:08.231Z</time></trkpt><trkpt lat="39.3062229" lon="8.5938583"><ele>143.0</ele><time>2026-05-01T10:51:09.232Z</time></trkpt><trkpt lat="39.3063033" lon="8.5941356"><ele>143.0</ele><time>2026-05-01T10:51:10.231Z</time></trkpt><trkpt lat="39.3063849" lon="8.5944113"><ele>142.66666666666666</ele><time>2026-05-01T10:51:11.231Z</time></trkpt><trkpt lat="39.3064657" lon="8.5946823"><ele>142.33333333333334</ele><time>2026-05-01T10:51:12.232Z</time></trkpt><trkpt lat="39.3065425" lon="8.5949387"><ele>142.0</ele><time>2026-05-01T10:51:13.232Z</time></trkpt><trkpt lat="39.3066155" lon="8.5951805"><ele>142.0</ele><time>2026-05-01T10:51:14.232Z</time></trkpt><trkpt lat="39.3066862" lon="8.5954094"><ele>142.0</ele><time>2026-05-01T10:51:15.231Z</time></trkpt><trkpt lat="39.3067551" lon="8.595634"><ele>142.0</ele><time>2026-05-01T10:51:16.231Z</time></trkpt><trkpt lat="39.3068268" lon="8.5958588"><ele>142.0</ele><time>2026-05-01T10:51:17.231Z</time></trkpt><trkpt lat="39.3068976" lon="8.5960841"><ele>142.0</ele><time>2026-05-01T10:51:18.232Z</time></trkpt><trkpt lat="39.3069664" lon="8.5963144"><ele>142.0</ele><time>2026-05-01T10:51:19.231Z</time></trkpt><trkpt lat="39.3070388" lon="8.596547"><ele>141.66666666666669</ele><time>2026-05-01T10:51:20.232Z</time></trkpt><trkpt lat="39.3071124" lon="8.5967899"><ele>141.33333333333334</ele><time>2026-05-01T10:51:21.232Z</time></trkpt><trkpt lat="39.3071849" lon="8.5970385"><ele>141.0</ele><time>2026-05-01T10:51:22.232Z</time></trkpt><trkpt lat="39.3072577" lon="8.5973022"><ele>141.0</ele><time>2026-05-01T10:51:23.232Z</time></trkpt><trkpt lat="39.3073284" lon="8.5975605"><ele>141.0</ele><time>2026-05-01T10:51:24.231Z</time></trkpt><trkpt lat="39.3073964" lon="8.5978151"><ele>141.0</ele><time>2026-05-01T10:51:25.231Z</time></trkpt><trkpt lat="39.3074623" lon="8.5980734"><ele>141.0</ele><time>2026-05-01T10:51:26.231Z</time></trkpt><trkpt lat="39.3075283" lon="8.5983307"><ele>141.0</ele><time>2026-05-01T10:51:27.231Z</time></trkpt><trkpt lat="39.3075931" lon="8.5985831"><ele>141.0</ele><time>2026-05-01T10:51:28.231Z</time></trkpt><trkpt lat="39.3076587" lon="8.5988331"><ele>140.66666666666666</ele><time>2026-05-01T10:51:29.232Z</time></trkpt><trkpt lat="39.3077243" lon="8.5990755"><ele>140.33333333333331</ele><time>2026-05-01T10:51:30.231Z</time></trkpt><trkpt lat="39.3077877" lon="8.5993093"><ele>140.0</ele><time>2026-05-01T10:51:31.231Z</time></trkpt><trkpt lat="39.3078508" lon="8.5995435"><ele>139.66666666666666</ele><time>2026-05-01T10:51:32.231Z</time></trkpt><trkpt lat="39.3079143" lon="8.5997792"><ele>139.33333333333334</ele><time>2026-05-01T10:51:33.232Z</time></trkpt><trkpt lat="39.307975" lon="8.6000146"><ele>139.0</ele><time>2026-05-01T10:51:34.231Z</time></trkpt><trkpt lat="39.3080371" lon="8.600254"><ele>139.66666666666669</ele><time>2026-05-01T10:51:35.231Z</time></trkpt><trkpt lat="39.3081005" lon="8.6004967"><ele>140.33333333333334</ele><time>2026-05-01T10:51:36.232Z</time></trkpt><trkpt lat="39.3081646" lon="8.6007378"><ele>141.0</ele><time>2026-05-01T10:51:37.231Z</time></trkpt><trkpt lat="39.3082296" lon="8.6009815"><ele>140.66666666666666</ele><time>2026-05-01T10:51:38.232Z</time></trkpt><trkpt lat="39.3082949" lon="8.6012255"><ele>140.33333333333331</ele><time>2026-05-01T10:51:39.232Z</time></trkpt><trkpt lat="39.3083593" lon="8.601471"><ele>140.0</ele><time>2026-05-01T10:51:40.232Z</time></trkpt><trkpt lat="39.3084255" lon="8.6017209"><ele>140.0</ele><time>2026-05-01T10:51:41.232Z</time></trkpt><trkpt lat="39.3084918" lon="8.6019735"><ele>140.0</ele><time>2026-05-01T10:51:42.232Z</time></trkpt><trkpt lat="39.3085598" lon="8.6022305"><ele>140.0</ele><time>2026-05-01T10:51:43.231Z</time></trkpt><trkpt lat="39.3086311" lon="8.6024931"><ele>139.33333333333331</ele><time>2026-05-01T10:51:44.232Z</time></trkpt><trkpt lat="39.3087025" lon="8.6027565"><ele>138.66666666666666</ele><time>2026-05-01T10:51:45.232Z</time></trkpt><trkpt lat="39.3087746" lon="8.6030261"><ele>138.0</ele><time>2026-05-01T10:51:46.232Z</time></trkpt><trkpt lat="39.3088476" lon="8.6032992"><ele>139.0</ele><time>2026-05-01T10:51:47.232Z</time></trkpt><trkpt lat="39.3089191" lon="8.6035768"><ele>140.0</ele><time>2026-05-01T10:51:48.232Z</time></trkpt><trkpt lat="39.3089918" lon="8.6038534"><ele>140.0</ele><time>2026-05-01T10:51:49.232Z</time></trkpt><trkpt lat="39.3090618" lon="8.6041258"><ele>140.0</ele><time>2026-05-01T10:51:50.232Z</time></trkpt><trkpt lat="39.309132" lon="8.6043983"><ele>140.0</ele><time>2026-05-01T10:51:51.231Z</time></trkpt><trkpt lat="39.3092012" lon="8.6046664"><ele>139.66666666666666</ele><time>2026-05-01T10:51:52.231Z</time></trkpt><trkpt lat="39.3092724" lon="8.6049288"><ele>139.33333333333334</ele><time>2026-05-01T10:51:53.231Z</time></trkpt><trkpt lat="39.3093437" lon="8.6051896"><ele>139.0</ele><time>2026-05-01T10:51:54.232Z</time></trkpt><trkpt lat="39.3094133" lon="8.6054508"><ele>139.0</ele><time>2026-05-01T10:51:55.231Z</time></trkpt><trkpt lat="39.309483" lon="8.6057091"><ele>139.0</ele><time>2026-05-01T10:51:56.231Z</time></trkpt><trkpt lat="39.3095532" lon="8.6059705"><ele>139.0</ele><time>2026-05-01T10:51:57.231Z</time></trkpt><trkpt lat="39.3096231" lon="8.606227"><ele>139.0</ele><time>2026-05-01T10:51:58.231Z</time></trkpt><trkpt lat="39.3096931" lon="8.6064844"><ele>139.0</ele><time>2026-05-01T10:51:59.232Z</time></trkpt><trkpt lat="39.3097611" lon="8.6067473"><ele>139.0</ele><time>2026-05-01T10:52:00.231Z</time></trkpt><trkpt lat="39.309828" lon="8.607008"><ele>138.0</ele><time>2026-05-01T10:52:01.232Z</time></trkpt><trkpt lat="39.3098942" lon="8.6072709"><ele>137.0</ele><time>2026-05-01T10:52:02.231Z</time></trkpt><trkpt lat="39.309962" lon="8.6075338"><ele>136.0</ele><time>2026-05-01T10:52:03.231Z</time></trkpt><trkpt lat="39.3100314" lon="8.6077973"><ele>136.0</ele><time>2026-05-01T10:52:04.231Z</time></trkpt><trkpt lat="39.3101028" lon="8.6080637"><ele>136.0</ele><time>2026-05-01T10:52:05.231Z</time></trkpt><trkpt lat="39.3101747" lon="8.6083291"><ele>136.0</ele><time>2026-05-01T10:52:06.232Z</time></trkpt><trkpt lat="39.3102449" lon="8.6085947"><ele>136.0</ele><time>2026-05-01T10:52:07.231Z</time></trkpt><trkpt lat="39.3103155" lon="8.6088611"><ele>136.0</ele><time>2026-05-01T10:52:08.231Z</time></trkpt><trkpt lat="39.3103859" lon="8.6091273"><ele>136.0</ele><time>2026-05-01T10:52:09.231Z</time></trkpt><trkpt lat="39.3104565" lon="8.6093934"><ele>136.0</ele><time>2026-05-01T10:52:10.232Z</time></trkpt><trkpt lat="39.3105277" lon="8.6096624"><ele>136.0</ele><time>2026-05-01T10:52:11.231Z</time></trkpt><trkpt lat="39.3105994" lon="8.6099321"><ele>136.0</ele><time>2026-05-01T10:52:12.232Z</time></trkpt><trkpt lat="39.3106726" lon="8.6102008"><ele>136.33333333333334</ele><time>2026-05-01T10:52:13.231Z</time></trkpt><trkpt lat="39.3107432" lon="8.6104679"><ele>136.66666666666666</ele><time>2026-05-01T10:52:14.231Z</time></trkpt><trkpt lat="39.3108134" lon="8.6107355"><ele>137.0</ele><time>2026-05-01T10:52:15.232Z</time></trkpt><trkpt lat="39.3108838" lon="8.6110023"><ele>137.33333333333331</ele><time>2026-05-01T10:52:16.231Z</time></trkpt><trkpt lat="39.3109532" lon="8.6112651"><ele>137.66666666666666</ele><time>2026-05-01T10:52:17.232Z</time></trkpt><trkpt lat="39.3110216" lon="8.6115265"><ele>138.0</ele><time>2026-05-01T10:52:18.232Z</time></trkpt><trkpt lat="39.3110902" lon="8.6117867"><ele>139.0</ele><time>2026-05-01T10:52:19.232Z</time></trkpt><trkpt lat="39.3111595" lon="8.612049"><ele>140.0</ele><time>2026-05-01T10:52:20.232Z</time></trkpt><trkpt lat="39.3112296" lon="8.6123116"><ele>141.0</ele><time>2026-05-01T10:52:21.231Z</time></trkpt><trkpt lat="39.3112983" lon="8.6125752"><ele>141.0</ele><time>2026-05-01T10:52:22.231Z</time></trkpt><trkpt lat="39.3113654" lon="8.6128394"><ele>141.0</ele><time>2026-05-01T10:52:23.232Z</time></trkpt><trkpt lat="39.3114332" lon="8.6131045"><ele>141.0</ele><time>2026-05-01T10:52:24.231Z</time></trkpt><trkpt lat="39.3115027" lon="8.6133708"><ele>139.66666666666666</ele><time>2026-05-01T10:52:25.231Z</time></trkpt><trkpt lat="39.3115727" lon="8.6136404"><ele>138.33333333333331</ele><time>2026-05-01T10:52:26.232Z</time></trkpt><trkpt lat="39.3116449" lon="8.6139108"><ele>137.0</ele><time>2026-05-01T10:52:27.232Z</time></trkpt><trkpt lat="39.3117204" lon="8.6141828"><ele>136.0</ele><time>2026-05-01T10:52:28.232Z</time></trkpt><trkpt lat="39.3117961" lon="8.6144576"><ele>135.0</ele><time>2026-05-01T10:52:29.232Z</time></trkpt><trkpt lat="39.3118712" lon="8.6147345"><ele>134.0</ele><time>2026-05-01T10:52:30.232Z</time></trkpt><trkpt lat="39.311945" lon="8.615011"><ele>133.0</ele><time>2026-05-01T10:52:31.231Z</time></trkpt><trkpt lat="39.3120186" lon="8.6152887"><ele>132.0</ele><time>2026-05-01T10:52:32.231Z</time></trkpt><trkpt lat="39.3120926" lon="8.6155661"><ele>131.0</ele><time>2026-05-01T10:52:33.232Z</time></trkpt><trkpt lat="39.312163" lon="8.6158379"><ele>130.0</ele><time>2026-05-01T10:52:34.231Z</time></trkpt><trkpt lat="39.3122297" lon="8.6160998"><ele>130.33333333333334</ele><time>2026-05-01T10:52:35.232Z</time></trkpt><trkpt lat="39.3122965" lon="8.616359"><ele>130.66666666666666</ele><time>2026-05-01T10:52:36.231Z</time></trkpt><trkpt lat="39.3123642" lon="8.6166191"><ele>131.0</ele><time>2026-05-01T10:52:37.232Z</time></trkpt><trkpt lat="39.3124351" lon="8.6168796"><ele>131.66666666666666</ele><time>2026-05-01T10:52:38.231Z</time></trkpt><trkpt lat="39.3125094" lon="8.6171454"><ele>132.33333333333334</ele><time>2026-05-01T10:52:39.231Z</time></trkpt><trkpt lat="39.3125806" lon="8.617414"><ele>133.0</ele><time>2026-05-01T10:52:40.232Z</time></trkpt><trkpt lat="39.3126517" lon="8.6176844"><ele>133.0</ele><time>2026-05-01T10:52:41.231Z</time></trkpt><trkpt lat="39.3127222" lon="8.6179588"><ele>133.0</ele><time>2026-05-01T10:52:42.231Z</time></trkpt><trkpt lat="39.3127933" lon="8.6182341"><ele>133.0</ele><time>2026-05-01T10:52:43.231Z</time></trkpt><trkpt lat="39.3128674" lon="8.6185068"><ele>133.33333333333334</ele><time>2026-05-01T10:52:44.232Z</time></trkpt><trkpt lat="39.3129407" lon="8.6187793"><ele>133.66666666666666</ele><time>2026-05-01T10:52:45.231Z</time></trkpt><trkpt lat="39.3130134" lon="8.619053"><ele>134.0</ele><time>2026-05-01T10:52:46.232Z</time></trkpt><trkpt lat="39.313085" lon="8.6193252"><ele>134.66666666666666</ele><time>2026-05-01T10:52:47.232Z</time></trkpt><trkpt lat="39.3131563" lon="8.619595"><ele>135.33333333333334</ele><time>2026-05-01T10:52:48.231Z</time></trkpt><trkpt lat="39.3132318" lon="8.6198654"><ele>136.0</ele><time>2026-05-01T10:52:49.232Z</time></trkpt><trkpt lat="39.313301" lon="8.6201344"><ele>135.0</ele><time>2026-05-01T10:52:50.231Z</time></trkpt><trkpt lat="39.3133713" lon="8.6204046"><ele>134.0</ele><time>2026-05-01T10:52:51.231Z</time></trkpt><trkpt lat="39.3134411" lon="8.6206778"><ele>133.0</ele><time>2026-05-01T10:52:52.231Z</time></trkpt><trkpt lat="39.3135128" lon="8.6209585"><ele>134.5</ele><time>2026-05-01T10:52:53.232Z</time></trkpt><trkpt lat="39.3135882" lon="8.6212515"><ele>136.0</ele><time>2026-05-01T10:52:54.231Z</time></trkpt><trkpt lat="39.3136638" lon="8.6215529"><ele>136.0</ele><time>2026-05-01T10:52:55.232Z</time></trkpt><trkpt lat="39.3137343" lon="8.6218601"><ele>136.0</ele><time>2026-05-01T10:52:56.232Z</time></trkpt><trkpt lat="39.3138021" lon="8.6221689"><ele>136.5</ele><time>2026-05-01T10:52:57.231Z</time></trkpt><trkpt lat="39.3138649" lon="8.6224726"><ele>137.0</ele><time>2026-05-01T10:52:58.232Z</time></trkpt><trkpt lat="39.3139267" lon="8.6227788"><ele>136.5</ele><time>2026-05-01T10:52:59.231Z</time></trkpt><trkpt lat="39.3139859" lon="8.6230873"><ele>136.0</ele><time>2026-05-01T10:53:00.232Z</time></trkpt><trkpt lat="39.3140405" lon="8.6233978"><ele>135.0</ele><time>2026-05-01T10:53:01.231Z</time></trkpt><trkpt lat="39.3140918" lon="8.6237078"><ele>134.0</ele><time>2026-05-01T10:53:02.231Z</time></trkpt><trkpt lat="39.3141383" lon="8.624012"><ele>134.0</ele><time>2026-05-01T10:53:03.232Z</time></trkpt><trkpt lat="39.3141776" lon="8.6243042"><ele>134.0</ele><time>2026-05-01T10:53:04.232Z</time></trkpt><trkpt lat="39.3142151" lon="8.624596"><ele>133.0</ele><time>2026-05-01T10:53:05.232Z</time></trkpt><trkpt lat="39.3142503" lon="8.6248854"><ele>132.0</ele><time>2026-05-01T10:53:06.232Z</time></trkpt><trkpt lat="39.3142825" lon="8.6251778"><ele>131.5</ele><time>2026-05-01T10:53:07.231Z</time></trkpt><trkpt lat="39.3143128" lon="8.6254744"><ele>131.0</ele><time>2026-05-01T10:53:08.232Z</time></trkpt><trkpt lat="39.314342" lon="8.6257775"><ele>131.0</ele><time>2026-05-01T10:53:09.231Z</time></trkpt><trkpt lat="39.3143678" lon="8.6260884"><ele>131.0</ele><time>2026-05-01T10:53:10.232Z</time></trkpt><trkpt lat="39.3143883" lon="8.6263982"><ele>130.5</ele><time>2026-05-01T10:53:11.232Z</time></trkpt><trkpt lat="39.3144053" lon="8.6267122"><ele>130.0</ele><time>2026-05-01T10:53:12.232Z</time></trkpt><trkpt lat="39.3144202" lon="8.6270299"><ele>130.0</ele><time>2026-05-01T10:53:13.232Z</time></trkpt><trkpt lat="39.314431" lon="8.6273495"><ele>130.0</ele><time>2026-05-01T10:53:14.231Z</time></trkpt><trkpt lat="39.3144379" lon="8.6276696"><ele>129.5</ele><time>2026-05-01T10:53:15.232Z</time></trkpt><trkpt lat="39.314442" lon="8.6279882"><ele>129.0</ele><time>2026-05-01T10:53:16.231Z</time></trkpt><trkpt lat="39.3144421" lon="8.6283092"><ele>129.0</ele><time>2026-05-01T10:53:17.232Z</time></trkpt><trkpt lat="39.3144406" lon="8.6286254"><ele>129.0</ele><time>2026-05-01T10:53:18.231Z</time></trkpt><trkpt lat="39.3144355" lon="8.6289397"><ele>128.5</ele><time>2026-05-01T10:53:19.232Z</time></trkpt><trkpt lat="39.3144274" lon="8.6292518"><ele>128.0</ele><time>2026-05-01T10:53:20.232Z</time></trkpt><trkpt lat="39.3144161" lon="8.6295609"><ele>128.0</ele><time>2026-05-01T10:53:21.232Z</time></trkpt><trkpt lat="39.3144035" lon="8.6298689"><ele>128.0</ele><time>2026-05-01T10:53:22.231Z</time></trkpt><trkpt lat="39.314387" lon="8.6301729"><ele>130.0</ele><time>2026-05-01T10:53:23.232Z</time></trkpt><trkpt lat="39.3143676" lon="8.6304753"><ele>132.0</ele><time>2026-05-01T10:53:24.232Z</time></trkpt><trkpt lat="39.3143438" lon="8.6307791"><ele>132.0</ele><time>2026-05-01T10:53:25.231Z</time></trkpt><trkpt lat="39.3143203" lon="8.6310782"><ele>132.0</ele><time>2026-05-01T10:53:26.232Z</time></trkpt><trkpt lat="39.3142909" lon="8.6313801"><ele>131.0</ele><time>2026-05-01T10:53:27.231Z</time></trkpt><trkpt lat="39.3142617" lon="8.6316807"><ele>130.0</ele><time>2026-05-01T10:53:28.231Z</time></trkpt><trkpt lat="39.314228" lon="8.6319804"><ele>129.5</ele><time>2026-05-01T10:53:29.231Z</time></trkpt><trkpt lat="39.3141895" lon="8.6322791"><ele>129.0</ele><time>2026-05-01T10:53:30.231Z</time></trkpt><trkpt lat="39.3141455" lon="8.6325809"><ele>127.5</ele><time>2026-05-01T10:53:31.232Z</time></trkpt><trkpt lat="39.3141009" lon="8.6328799"><ele>126.0</ele><time>2026-05-01T10:53:32.232Z</time></trkpt><trkpt lat="39.3140534" lon="8.633184"><ele>126.0</ele><time>2026-05-01T10:53:33.231Z</time></trkpt><trkpt lat="39.314008" lon="8.6334865"><ele>126.0</ele><time>2026-05-01T10:53:34.232Z</time></trkpt><trkpt lat="39.3139628" lon="8.6337904"><ele>126.5</ele><time>2026-05-01T10:53:35.231Z</time></trkpt><trkpt lat="39.3139175" lon="8.6340875"><ele>127.0</ele><time>2026-05-01T10:53:36.231Z</time></trkpt><trkpt lat="39.3138747" lon="8.6343744"><ele>126.0</ele><time>2026-05-01T10:53:37.232Z</time></trkpt><trkpt lat="39.3138326" lon="8.6346563"><ele>125.0</ele><time>2026-05-01T10:53:38.232Z</time></trkpt><trkpt lat="39.3137922" lon="8.6349384"><ele>124.0</ele><time>2026-05-01T10:53:39.231Z</time></trkpt><trkpt lat="39.3137518" lon="8.6352239"><ele>123.5</ele><time>2026-05-01T10:53:40.231Z</time></trkpt><trkpt lat="39.3137098" lon="8.6355165"><ele>123.0</ele><time>2026-05-01T10:53:41.231Z</time></trkpt><trkpt lat="39.313664" lon="8.6358157"><ele>123.0</ele><time>2026-05-01T10:53:42.232Z</time></trkpt><trkpt lat="39.3136197" lon="8.6361151"><ele>123.0</ele><time>2026-05-01T10:53:43.231Z</time></trkpt><trkpt lat="39.3135754" lon="8.6364128"><ele>123.5</ele><time>2026-05-01T10:53:44.231Z</time></trkpt><trkpt lat="39.3135307" lon="8.6367081"><ele>124.0</ele><time>2026-05-01T10:53:45.231Z</time></trkpt><trkpt lat="39.3134857" lon="8.637004"><ele>124.5</ele><time>2026-05-01T10:53:46.231Z</time></trkpt><trkpt lat="39.3134399" lon="8.6372969"><ele>125.0</ele><time>2026-05-01T10:53:47.232Z</time></trkpt><trkpt lat="39.3133961" lon="8.6375891"><ele>125.0</ele><time>2026-05-01T10:53:48.231Z</time></trkpt><trkpt lat="39.3133549" lon="8.6378829"><ele>125.0</ele><time>2026-05-01T10:53:49.231Z</time></trkpt><trkpt lat="39.3133143" lon="8.6381768"><ele>125.0</ele><time>2026-05-01T10:53:50.231Z</time></trkpt><trkpt lat="39.3132746" lon="8.6384728"><ele>125.0</ele><time>2026-05-01T10:53:51.231Z</time></trkpt><trkpt lat="39.3132301" lon="8.6387676"><ele>125.5</ele><time>2026-05-01T10:53:52.232Z</time></trkpt><trkpt lat="39.3131839" lon="8.6390642"><ele>126.0</ele><time>2026-05-01T10:53:53.231Z</time></trkpt><trkpt lat="39.3131394" lon="8.6393592"><ele>125.0</ele><time>2026-05-01T10:53:54.231Z</time></trkpt><trkpt lat="39.3130929" lon="8.6396552"><ele>124.0</ele><time>2026-05-01T10:53:55.231Z</time></trkpt><trkpt lat="39.3130464" lon="8.639948"><ele>124.0</ele><time>2026-05-01T10:53:56.232Z</time></trkpt><trkpt lat="39.3130016" lon="8.6402421"><ele>124.0</ele><time>2026-05-01T10:53:57.231Z</time></trkpt><trkpt lat="39.3129585" lon="8.6405362"><ele>123.5</ele><time>2026-05-01T10:53:58.231Z</time></trkpt><trkpt lat="39.3129151" lon="8.6408315"><ele>123.0</ele><time>2026-05-01T10:53:59.232Z</time></trkpt><trkpt lat="39.3128704" lon="8.6411274"><ele>124.0</ele><time>2026-05-01T10:54:00.232Z</time></trkpt><trkpt lat="39.3128231" lon="8.6414231"><ele>125.0</ele><time>2026-05-01T10:54:01.232Z</time></trkpt><trkpt lat="39.3127751" lon="8.6417184"><ele>125.0</ele><time>2026-05-01T10:54:02.231Z</time></trkpt><trkpt lat="39.3127294" lon="8.6420142"><ele>125.0</ele><time>2026-05-01T10:54:03.231Z</time></trkpt><trkpt lat="39.3126857" lon="8.6423097"><ele>125.0</ele><time>2026-05-01T10:54:04.231Z</time></trkpt><trkpt lat="39.3126417" lon="8.6426038"><ele>125.0</ele><time>2026-05-01T10:54:05.231Z</time></trkpt><trkpt lat="39.312599" lon="8.6428968"><ele>125.5</ele><time>2026-05-01T10:54:06.231Z</time></trkpt><trkpt lat="39.3125553" lon="8.6431924"><ele>126.0</ele><time>2026-05-01T10:54:07.231Z</time></trkpt><trkpt lat="39.3125125" lon="8.6434873"><ele>127.0</ele><time>2026-05-01T10:54:08.232Z</time></trkpt><trkpt lat="39.3124704" lon="8.6437835"><ele>128.0</ele><time>2026-05-01T10:54:09.232Z</time></trkpt><trkpt lat="39.3124261" lon="8.6440788"><ele>128.0</ele><time>2026-05-01T10:54:10.232Z</time></trkpt><trkpt lat="39.3123812" lon="8.6443747"><ele>128.0</ele><time>2026-05-01T10:54:11.231Z</time></trkpt><trkpt lat="39.3123343" lon="8.6446679"><ele>127.0</ele><time>2026-05-01T10:54:12.232Z</time></trkpt><trkpt lat="39.3122911" lon="8.6449612"><ele>126.0</ele><time>2026-05-01T10:54:13.232Z</time></trkpt><trkpt lat="39.3122476" lon="8.6452544"><ele>124.5</ele><time>2026-05-01T10:54:14.232Z</time></trkpt><trkpt lat="39.3122049" lon="8.6455487"><ele>123.0</ele><time>2026-05-01T10:54:15.231Z</time></trkpt><trkpt lat="39.3121617" lon="8.6458457"><ele>124.5</ele><time>2026-05-01T10:54:16.231Z</time></trkpt><trkpt lat="39.312118" lon="8.6461513"><ele>126.0</ele><time>2026-05-01T10:54:17.231Z</time></trkpt><trkpt lat="39.3120718" lon="8.6464651"><ele>126.0</ele><time>2026-05-01T10:54:18.231Z</time></trkpt><trkpt lat="39.312025" lon="8.6467842"><ele>126.0</ele><time>2026-05-01T10:54:19.232Z</time></trkpt><trkpt lat="39.311977" lon="8.6471073"><ele>126.0</ele><time>2026-05-01T10:54:20.231Z</time></trkpt><trkpt lat="39.3119265" lon="8.6474312"><ele>126.0</ele><time>2026-05-01T10:54:21.232Z</time></trkpt><trkpt lat="39.3118759" lon="8.6477524"><ele>125.5</ele><time>2026-05-01T10:54:22.231Z</time></trkpt><trkpt lat="39.3118281" lon="8.6480703"><ele>125.0</ele><time>2026-05-01T10:54:23.232Z</time></trkpt><trkpt lat="39.3117798" lon="8.6483876"><ele>124.5</ele><time>2026-05-01T10:54:24.231Z</time></trkpt><trkpt lat="39.3117316" lon="8.6487043"><ele>124.0</ele><time>2026-05-01T10:54:25.231Z</time></trkpt><trkpt lat="39.3116832" lon="8.6490219"><ele>124.0</ele><time>2026-05-01T10:54:26.232Z</time></trkpt><trkpt lat="39.3116338" lon="8.649339"><ele>124.0</ele><time>2026-05-01T10:54:27.232Z</time></trkpt><trkpt lat="39.3115848" lon="8.649657"><ele>125.0</ele><time>2026-05-01T10:54:28.232Z</time></trkpt><trkpt lat="39.3115368" lon="8.6499748"><ele>126.0</ele><time>2026-05-01T10:54:29.232Z</time></trkpt><trkpt lat="39.3114892" lon="8.6502919"><ele>126.5</ele><time>2026-05-01T10:54:30.232Z</time></trkpt><trkpt lat="39.3114431" lon="8.650611"><ele>127.0</ele><time>2026-05-01T10:54:31.232Z</time></trkpt><trkpt lat="39.3113962" lon="8.6509297"><ele>126.0</ele><time>2026-05-01T10:54:32.232Z</time></trkpt><trkpt lat="39.3113489" lon="8.6512491"><ele>125.0</ele><time>2026-05-01T10:54:33.231Z</time></trkpt><trkpt lat="39.3113015" lon="8.6515694"><ele>125.0</ele><time>2026-05-01T10:54:34.231Z</time></trkpt><trkpt lat="39.3112548" lon="8.651891"><ele>125.0</ele><time>2026-05-01T10:54:35.232Z</time></trkpt><trkpt lat="39.3112078" lon="8.652215"><ele>125.0</ele><time>2026-05-01T10:54:36.232Z</time></trkpt><trkpt lat="39.3111584" lon="8.6525404"><ele>125.0</ele><time>2026-05-01T10:54:37.232Z</time></trkpt><trkpt lat="39.3111081" lon="8.6528675"><ele>125.0</ele><time>2026-05-01T10:54:38.231Z</time></trkpt><trkpt lat="39.311058" lon="8.6531943"><ele>125.0</ele><time>2026-05-01T10:54:39.232Z</time></trkpt><trkpt lat="39.3110104" lon="8.6535205"><ele>125.0</ele><time>2026-05-01T10:54:40.231Z</time></trkpt><trkpt lat="39.3109631" lon="8.6538456"><ele>125.0</ele><time>2026-05-01T10:54:41.232Z</time></trkpt><trkpt lat="39.3109161" lon="8.6541695"><ele>126.0</ele><time>2026-05-01T10:54:42.232Z</time></trkpt><trkpt lat="39.3108695" lon="8.6544942"><ele>127.0</ele><time>2026-05-01T10:54:43.232Z</time></trkpt><trkpt lat="39.3108232" lon="8.654819"><ele>127.0</ele><time>2026-05-01T10:54:44.231Z</time></trkpt><trkpt lat="39.3107776" lon="8.6551452"><ele>127.0</ele><time>2026-05-01T10:54:45.232Z</time></trkpt><trkpt lat="39.3107306" lon="8.6554709"><ele>127.0</ele><time>2026-05-01T10:54:46.232Z</time></trkpt><trkpt lat="39.3106827" lon="8.6557972"><ele>127.0</ele><time>2026-05-01T10:54:47.231Z</time></trkpt><trkpt lat="39.3106332" lon="8.656123"><ele>127.0</ele><time>2026-05-01T10:54:48.231Z</time></trkpt><trkpt lat="39.3105839" lon="8.6564483"><ele>127.0</ele><time>2026-05-01T10:54:49.232Z</time></trkpt><trkpt lat="39.3105334" lon="8.6567713"><ele>126.5</ele><time>2026-05-01T10:54:50.232Z</time></trkpt><trkpt lat="39.3104831" lon="8.6570955"><ele>126.0</ele><time>2026-05-01T10:54:51.232Z</time></trkpt><trkpt lat="39.3104335" lon="8.6574206"><ele>126.0</ele><time>2026-05-01T10:54:52.232Z</time></trkpt><trkpt lat="39.3103863" lon="8.6577459"><ele>126.0</ele><time>2026-05-01T10:54:53.232Z</time></trkpt><trkpt lat="39.3103392" lon="8.6580717"><ele>126.0</ele><time>2026-05-01T10:54:54.231Z</time></trkpt><trkpt lat="39.3102921" lon="8.6583992"><ele>126.0</ele><time>2026-05-01T10:54:55.231Z</time></trkpt><trkpt lat="39.3102454" lon="8.6587243"><ele>125.0</ele><time>2026-05-01T10:54:56.231Z</time></trkpt><trkpt lat="39.3101975" lon="8.6590501"><ele>124.0</ele><time>2026-05-01T10:54:57.231Z</time></trkpt><trkpt lat="39.3101489" lon="8.6593752"><ele>124.5</ele><time>2026-05-01T10:54:58.232Z</time></trkpt><trkpt lat="39.3100998" lon="8.6596999"><ele>125.0</ele><time>2026-05-01T10:54:59.231Z</time></trkpt><trkpt lat="39.3100517" lon="8.6600248"><ele>125.5</ele><time>2026-05-01T10:55:00.231Z</time></trkpt><trkpt lat="39.3100012" lon="8.6603478"><ele>126.0</ele><time>2026-05-01T10:55:01.232Z</time></trkpt><trkpt lat="39.309951" lon="8.6606679"><ele>126.0</ele><time>2026-05-01T10:55:02.231Z</time></trkpt><trkpt lat="39.309901" lon="8.6609944"><ele>126.0</ele><time>2026-05-01T10:55:03.231Z</time></trkpt><trkpt lat="39.3098485" lon="8.6613169"><ele>125.5</ele><time>2026-05-01T10:55:04.232Z</time></trkpt><trkpt lat="39.3097969" lon="8.6616447"><ele>125.0</ele><time>2026-05-01T10:55:05.232Z</time></trkpt><trkpt lat="39.3097448" lon="8.661968"><ele>123.5</ele><time>2026-05-01T10:55:06.231Z</time></trkpt><trkpt lat="39.3096935" lon="8.6622912"><ele>122.0</ele><time>2026-05-01T10:55:07.231Z</time></trkpt><trkpt lat="39.3096438" lon="8.6626095"><ele>120.0</ele><time>2026-05-01T10:55:08.232Z</time></trkpt><trkpt lat="39.3095978" lon="8.662926"><ele>118.0</ele><time>2026-05-01T10:55:09.232Z</time></trkpt><trkpt lat="39.3095515" lon="8.6632405"><ele>118.0</ele><time>2026-05-01T10:55:10.232Z</time></trkpt><trkpt lat="39.3095063" lon="8.6635546"><ele>118.0</ele><time>2026-05-01T10:55:11.231Z</time></trkpt><trkpt lat="39.309457" lon="8.6638701"><ele>115.5</ele><time>2026-05-01T10:55:12.232Z</time></trkpt><trkpt lat="39.3094079" lon="8.664184"><ele>113.0</ele><time>2026-05-01T10:55:13.231Z</time></trkpt><trkpt lat="39.3093586" lon="8.6644996"><ele>112.5</ele><time>2026-05-01T10:55:14.232Z</time></trkpt><trkpt lat="39.30931" lon="8.6648168"><ele>112.0</ele><time>2026-05-01T10:55:15.231Z</time></trkpt><trkpt lat="39.3092626" lon="8.6651317"><ele>112.5</ele><time>2026-05-01T10:55:16.232Z</time></trkpt><trkpt lat="39.3092157" lon="8.665445"><ele>113.0</ele><time>2026-05-01T10:55:17.232Z</time></trkpt><trkpt lat="39.3091697" lon="8.6657569"><ele>113.0</ele><time>2026-05-01T10:55:18.232Z</time></trkpt><trkpt lat="39.3091249" lon="8.6660686"><ele>113.0</ele><time>2026-05-01T10:55:19.232Z</time></trkpt><trkpt lat="39.3090771" lon="8.6663832"><ele>115.5</ele><time>2026-05-01T10:55:20.231Z</time></trkpt><trkpt lat="39.3090305" lon="8.6666953"><ele>118.0</ele><time>2026-05-01T10:55:21.232Z</time></trkpt><trkpt lat="39.3089837" lon="8.6670106"><ele>117.0</ele><time>2026-05-01T10:55:22.231Z</time></trkpt><trkpt lat="39.3089386" lon="8.6673235"><ele>116.0</ele><time>2026-05-01T10:55:23.231Z</time></trkpt><trkpt lat="39.3088934" lon="8.6676371"><ele>118.0</ele><time>2026-05-01T10:55:24.232Z</time></trkpt><trkpt lat="39.3088484" lon="8.6679468"><ele>120.0</ele><time>2026-05-01T10:55:25.231Z</time></trkpt><trkpt lat="39.3088044" lon="8.6682588"><ele>120.0</ele><time>2026-05-01T10:55:26.231Z</time></trkpt><trkpt lat="39.3087605" lon="8.6685777"><ele>120.0</ele><time>2026-05-01T10:55:27.231Z</time></trkpt><trkpt lat="39.3087161" lon="8.6689007"><ele>120.5</ele><time>2026-05-01T10:55:28.231Z</time></trkpt><trkpt lat="39.3086753" lon="8.6692298"><ele>121.0</ele><time>2026-05-01T10:55:29.231Z</time></trkpt><trkpt lat="39.3086355" lon="8.6695602"><ele>121.0</ele><time>2026-05-01T10:55:30.231Z</time></trkpt><trkpt lat="39.308592" lon="8.6698906"><ele>121.0</ele><time>2026-05-01T10:55:31.231Z</time></trkpt><trkpt lat="39.3085498" lon="8.6702185"><ele>119.5</ele><time>2026-05-01T10:55:32.232Z</time></trkpt><trkpt lat="39.3085085" lon="8.6705461"><ele>118.0</ele><time>2026-05-01T10:55:33.231Z</time></trkpt><trkpt lat="39.3084721" lon="8.6708719"><ele>116.0</ele><time>2026-05-01T10:55:34.231Z</time></trkpt><trkpt lat="39.3084361" lon="8.6712001"><ele>114.0</ele><time>2026-05-01T10:55:35.232Z</time></trkpt><trkpt lat="39.3084022" lon="8.6715258"><ele>114.0</ele><time>2026-05-01T10:55:36.231Z</time></trkpt><trkpt lat="39.308372" lon="8.6718529"><ele>114.0</ele><time>2026-05-01T10:55:37.232Z</time></trkpt><trkpt lat="39.308347" lon="8.6721825"><ele>113.0</ele><time>2026-05-01T10:55:38.231Z</time></trkpt><trkpt lat="39.30832" lon="8.6725099"><ele>112.0</ele><time>2026-05-01T10:55:39.231Z</time></trkpt><trkpt lat="39.3082938" lon="8.672841"><ele>111.5</ele><time>2026-05-01T10:55:40.232Z</time></trkpt><trkpt lat="39.3082682" lon="8.6731713"><ele>111.0</ele><time>2026-05-01T10:55:41.232Z</time></trkpt><trkpt lat="39.3082447" lon="8.6734998"><ele>112.0</ele><time>2026-05-01T10:55:42.231Z</time></trkpt><trkpt lat="39.3082254" lon="8.6738309"><ele>113.0</ele><time>2026-05-01T10:55:43.232Z</time></trkpt><trkpt lat="39.30821" lon="8.6741592"><ele>112.5</ele><time>2026-05-01T10:55:44.231Z</time></trkpt><trkpt lat="39.3081922" lon="8.6744895"><ele>112.0</ele><time>2026-05-01T10:55:45.232Z</time></trkpt><trkpt lat="39.3081742" lon="8.6748196"><ele>112.0</ele><time>2026-05-01T10:55:46.231Z</time></trkpt><trkpt lat="39.3081546" lon="8.6751492"><ele>112.0</ele><time>2026-05-01T10:55:47.231Z</time></trkpt><trkpt lat="39.3081376" lon="8.675479"><ele>112.0</ele><time>2026-05-01T10:55:48.232Z</time></trkpt><trkpt lat="39.3081188" lon="8.6758079"><ele>112.0</ele><time>2026-05-01T10:55:49.232Z</time></trkpt><trkpt lat="39.3081005" lon="8.676133"><ele>111.0</ele><time>2026-05-01T10:55:50.232Z</time></trkpt><trkpt lat="39.3080812" lon="8.6764531"><ele>110.0</ele><time>2026-05-01T10:55:51.232Z</time></trkpt><trkpt lat="39.3080643" lon="8.6767707"><ele>109.0</ele><time>2026-05-01T10:55:52.231Z</time></trkpt><trkpt lat="39.3080471" lon="8.6770865"><ele>108.0</ele><time>2026-05-01T10:55:53.232Z</time></trkpt><trkpt lat="39.3080375" lon="8.6774076"><ele>108.0</ele><time>2026-05-01T10:55:54.231Z</time></trkpt><trkpt lat="39.3080205" lon="8.6777215"><ele>108.0</ele><time>2026-05-01T10:55:55.231Z</time></trkpt><trkpt lat="39.3080016" lon="8.6780366"><ele>108.0</ele><time>2026-05-01T10:55:56.232Z</time></trkpt><trkpt lat="39.3079828" lon="8.6783486"><ele>108.0</ele><time>2026-05-01T10:55:57.232Z</time></trkpt><trkpt lat="39.3079659" lon="8.678657"><ele>106.5</ele><time>2026-05-01T10:55:58.232Z</time></trkpt><trkpt lat="39.3079483" lon="8.6789605"><ele>105.0</ele><time>2026-05-01T10:55:59.231Z</time></trkpt><trkpt lat="39.3079308" lon="8.6792631"><ele>104.0</ele><time>2026-05-01T10:56:00.232Z</time></trkpt><trkpt lat="39.3079143" lon="8.6795628"><ele>103.0</ele><time>2026-05-01T10:56:01.231Z</time></trkpt><trkpt lat="39.3078978" lon="8.6798592"><ele>103.0</ele><time>2026-05-01T10:56:02.232Z</time></trkpt><trkpt lat="39.3078831" lon="8.680151"><ele>103.0</ele><time>2026-05-01T10:56:03.231Z</time></trkpt><trkpt lat="39.3078652" lon="8.6804362"><ele>103.0</ele><time>2026-05-01T10:56:04.231Z</time></trkpt><trkpt lat="39.3078482" lon="8.6807184"><ele>103.33333333333334</ele><time>2026-05-01T10:56:05.231Z</time></trkpt><trkpt lat="39.3078322" lon="8.6809982"><ele>103.66666666666666</ele><time>2026-05-01T10:56:06.232Z</time></trkpt><trkpt lat="39.3078155" lon="8.6812794"><ele>104.0</ele><time>2026-05-01T10:56:07.231Z</time></trkpt><trkpt lat="39.3077993" lon="8.6815626"><ele>105.66666666666666</ele><time>2026-05-01T10:56:08.232Z</time></trkpt><trkpt lat="39.3077841" lon="8.6818455"><ele>107.33333333333334</ele><time>2026-05-01T10:56:09.231Z</time></trkpt><trkpt lat="39.3077686" lon="8.682132"><ele>109.0</ele><time>2026-05-01T10:56:10.232Z</time></trkpt><trkpt lat="39.3077534" lon="8.682417"><ele>110.33333333333334</ele><time>2026-05-01T10:56:11.232Z</time></trkpt><trkpt lat="39.307737" lon="8.6826993"><ele>111.66666666666666</ele><time>2026-05-01T10:56:12.232Z</time></trkpt><trkpt lat="39.3077214" lon="8.6829818"><ele>113.0</ele><time>2026-05-01T10:56:13.232Z</time></trkpt><trkpt lat="39.3077064" lon="8.6832622"><ele>113.0</ele><time>2026-05-01T10:56:14.232Z</time></trkpt><trkpt lat="39.3076915" lon="8.683543"><ele>113.0</ele><time>2026-05-01T10:56:15.231Z</time></trkpt><trkpt lat="39.3076762" lon="8.6838256"><ele>113.0</ele><time>2026-05-01T10:56:16.231Z</time></trkpt><trkpt lat="39.3076602" lon="8.6841114"><ele>112.0</ele><time>2026-05-01T10:56:17.231Z</time></trkpt><trkpt lat="39.3076442" lon="8.6843968"><ele>111.0</ele><time>2026-05-01T10:56:18.231Z</time></trkpt><trkpt lat="39.3076266" lon="8.6846822"><ele>110.0</ele><time>2026-05-01T10:56:19.232Z</time></trkpt><trkpt lat="39.3076085" lon="8.6849665"><ele>109.33333333333333</ele><time>2026-05-01T10:56:20.231Z</time></trkpt><trkpt lat="39.3075982" lon="8.6852538"><ele>108.66666666666666</ele><time>2026-05-01T10:56:21.232Z</time></trkpt><trkpt lat="39.3075837" lon="8.6855382"><ele>108.0</ele><time>2026-05-01T10:56:22.231Z</time></trkpt><trkpt lat="39.3075689" lon="8.6858223"><ele>107.66666666666666</ele><time>2026-05-01T10:56:23.232Z</time></trkpt><trkpt lat="39.3075587" lon="8.6861116"><ele>107.33333333333333</ele><time>2026-05-01T10:56:24.232Z</time></trkpt><trkpt lat="39.3075421" lon="8.686396"><ele>107.0</ele><time>2026-05-01T10:56:25.232Z</time></trkpt><trkpt lat="39.3075245" lon="8.6866793"><ele>106.66666666666666</ele><time>2026-05-01T10:56:26.232Z</time></trkpt><trkpt lat="39.307507" lon="8.686964"><ele>106.33333333333334</ele><time>2026-05-01T10:56:27.232Z</time></trkpt><trkpt lat="39.3074898" lon="8.6872507"><ele>106.0</ele><time>2026-05-01T10:56:28.231Z</time></trkpt><trkpt lat="39.3074721" lon="8.6875437"><ele>106.0</ele><time>2026-05-01T10:56:29.232Z</time></trkpt><trkpt lat="39.3074552" lon="8.6878411"><ele>106.0</ele><time>2026-05-01T10:56:30.231Z</time></trkpt><trkpt lat="39.3074386" lon="8.6881383"><ele>106.0</ele><time>2026-05-01T10:56:31.231Z</time></trkpt><trkpt lat="39.307423" lon="8.6884345"><ele>106.0</ele><time>2026-05-01T10:56:32.232Z</time></trkpt><trkpt lat="39.3074066" lon="8.6887296"><ele>105.5</ele><time>2026-05-01T10:56:33.231Z</time></trkpt><trkpt lat="39.3073912" lon="8.6890253"><ele>105.0</ele><time>2026-05-01T10:56:34.232Z</time></trkpt><trkpt lat="39.3073749" lon="8.6893209"><ele>105.0</ele><time>2026-05-01T10:56:35.232Z</time></trkpt><trkpt lat="39.307358" lon="8.6896171"><ele>105.0</ele><time>2026-05-01T10:56:36.231Z</time></trkpt><trkpt lat="39.3073404" lon="8.6899119"><ele>105.0</ele><time>2026-05-01T10:56:37.232Z</time></trkpt><trkpt lat="39.3073241" lon="8.6902086"><ele>105.0</ele><time>2026-05-01T10:56:38.231Z</time></trkpt><trkpt lat="39.3073063" lon="8.6905049"><ele>105.5</ele><time>2026-05-01T10:56:39.232Z</time></trkpt><trkpt lat="39.3072879" lon="8.6907998"><ele>106.0</ele><time>2026-05-01T10:56:40.231Z</time></trkpt><trkpt lat="39.3072696" lon="8.6910962"><ele>107.0</ele><time>2026-05-01T10:56:41.232Z</time></trkpt><trkpt lat="39.3072525" lon="8.6913926"><ele>108.0</ele><time>2026-05-01T10:56:42.231Z</time></trkpt><trkpt lat="39.3072345" lon="8.6916878"><ele>108.5</ele><time>2026-05-01T10:56:43.232Z</time></trkpt><trkpt lat="39.3072183" lon="8.6919851"><ele>109.0</ele><time>2026-05-01T10:56:44.232Z</time></trkpt><trkpt lat="39.3072007" lon="8.6922857"><ele>109.0</ele><time>2026-05-01T10:56:45.232Z</time></trkpt><trkpt lat="39.3071859" lon="8.6925924"><ele>109.0</ele><time>2026-05-01T10:56:46.232Z</time></trkpt><trkpt lat="39.3071738" lon="8.6929033"><ele>109.0</ele><time>2026-05-01T10:56:47.232Z</time></trkpt><trkpt lat="39.3071606" lon="8.6932187"><ele>109.0</ele><time>2026-05-01T10:56:48.232Z</time></trkpt><trkpt lat="39.3071474" lon="8.6935393"><ele>108.0</ele><time>2026-05-01T10:56:49.231Z</time></trkpt><trkpt lat="39.3071326" lon="8.6938596"><ele>107.0</ele><time>2026-05-01T10:56:50.231Z</time></trkpt><trkpt lat="39.3071168" lon="8.694184"><ele>106.0</ele><time>2026-05-01T10:56:51.231Z</time></trkpt><trkpt lat="39.3070992" lon="8.6945087"><ele>105.0</ele><time>2026-05-01T10:56:52.232Z</time></trkpt><trkpt lat="39.3070813" lon="8.6948342"><ele>105.0</ele><time>2026-05-01T10:56:53.231Z</time></trkpt><trkpt lat="39.3070624" lon="8.6951589"><ele>105.0</ele><time>2026-05-01T10:56:54.231Z</time></trkpt><trkpt lat="39.3070444" lon="8.6954838"><ele>105.0</ele><time>2026-05-01T10:56:55.231Z</time></trkpt><trkpt lat="39.3070273" lon="8.695813"><ele>105.0</ele><time>2026-05-01T10:56:56.231Z</time></trkpt><trkpt lat="39.3070105" lon="8.6961436"><ele>104.5</ele><time>2026-05-01T10:56:57.232Z</time></trkpt><trkpt lat="39.3069934" lon="8.6964748"><ele>104.0</ele><time>2026-05-01T10:56:58.232Z</time></trkpt><trkpt lat="39.3069759" lon="8.6968074"><ele>103.5</ele><time>2026-05-01T10:56:59.232Z</time></trkpt><trkpt lat="39.3069585" lon="8.6971378"><ele>103.0</ele><time>2026-05-01T10:57:00.232Z</time></trkpt><trkpt lat="39.306946" lon="8.6974723"><ele>102.5</ele><time>2026-05-01T10:57:01.231Z</time></trkpt><trkpt lat="39.306928" lon="8.6978023"><ele>102.0</ele><time>2026-05-01T10:57:02.232Z</time></trkpt><trkpt lat="39.3069104" lon="8.698132"><ele>102.0</ele><time>2026-05-01T10:57:03.232Z</time></trkpt><trkpt lat="39.3068926" lon="8.6984622"><ele>102.0</ele><time>2026-05-01T10:57:04.231Z</time></trkpt><trkpt lat="39.3068743" lon="8.6987915"><ele>102.0</ele><time>2026-05-01T10:57:05.232Z</time></trkpt><trkpt lat="39.3068554" lon="8.6991221"><ele>102.0</ele><time>2026-05-01T10:57:06.231Z</time></trkpt><trkpt lat="39.3068358" lon="8.6994523"><ele>102.0</ele><time>2026-05-01T10:57:07.232Z</time></trkpt><trkpt lat="39.3068166" lon="8.6997829"><ele>102.0</ele><time>2026-05-01T10:57:08.231Z</time></trkpt><trkpt lat="39.306798" lon="8.7001116"><ele>103.0</ele><time>2026-05-01T10:57:09.232Z</time></trkpt><trkpt lat="39.3067797" lon="8.7004408"><ele>104.0</ele><time>2026-05-01T10:57:10.231Z</time></trkpt><trkpt lat="39.3067611" lon="8.7007709"><ele>106.5</ele><time>2026-05-01T10:57:11.231Z</time></trkpt><trkpt lat="39.3067426" lon="8.7011015"><ele>109.0</ele><time>2026-05-01T10:57:12.232Z</time></trkpt><trkpt lat="39.3067231" lon="8.7014302"><ele>109.0</ele><time>2026-05-01T10:57:13.231Z</time></trkpt><trkpt lat="39.3067048" lon="8.7017599"><ele>109.0</ele><time>2026-05-01T10:57:14.232Z</time></trkpt><trkpt lat="39.3066868" lon="8.7020899"><ele>110.0</ele><time>2026-05-01T10:57:15.231Z</time></trkpt><trkpt lat="39.3066673" lon="8.702421"><ele>111.0</ele><time>2026-05-01T10:57:16.232Z</time></trkpt><trkpt lat="39.3066464" lon="8.7027491"><ele>111.0</ele><time>2026-05-01T10:57:17.231Z</time></trkpt><trkpt lat="39.3066268" lon="8.7030775"><ele>111.0</ele><time>2026-05-01T10:57:18.231Z</time></trkpt><trkpt lat="39.306607" lon="8.7034063"><ele>111.0</ele><time>2026-05-01T10:57:19.231Z</time></trkpt><trkpt lat="39.3065851" lon="8.703737"><ele>111.0</ele><time>2026-05-01T10:57:20.231Z</time></trkpt><trkpt lat="39.3065638" lon="8.7040679"><ele>111.0</ele><time>2026-05-01T10:57:21.232Z</time></trkpt><trkpt lat="39.306541" lon="8.7043958"><ele>111.0</ele><time>2026-05-01T10:57:22.231Z</time></trkpt><trkpt lat="39.3065195" lon="8.7047206"><ele>111.5</ele><time>2026-05-01T10:57:23.232Z</time></trkpt><trkpt lat="39.3064981" lon="8.7050418"><ele>112.0</ele><time>2026-05-01T10:57:24.231Z</time></trkpt><trkpt lat="39.3064785" lon="8.7053638"><ele>112.0</ele><time>2026-05-01T10:57:25.231Z</time></trkpt><trkpt lat="39.3064616" lon="8.7056855"><ele>112.0</ele><time>2026-05-01T10:57:26.232Z</time></trkpt><trkpt lat="39.3064449" lon="8.7060066"><ele>112.5</ele><time>2026-05-01T10:57:27.231Z</time></trkpt><trkpt lat="39.3064291" lon="8.7063302"><ele>113.0</ele><time>2026-05-01T10:57:28.231Z</time></trkpt><trkpt lat="39.3064156" lon="8.7066567"><ele>112.0</ele><time>2026-05-01T10:57:29.231Z</time></trkpt><trkpt lat="39.3063983" lon="8.7069811"><ele>111.0</ele><time>2026-05-01T10:57:30.231Z</time></trkpt><trkpt lat="39.3063802" lon="8.7073056"><ele>111.0</ele><time>2026-05-01T10:57:31.231Z</time></trkpt><trkpt lat="39.3063613" lon="8.7076297"><ele>111.0</ele><time>2026-05-01T10:57:32.232Z</time></trkpt><trkpt lat="39.3063428" lon="8.7079521"><ele>110.5</ele><time>2026-05-01T10:57:33.232Z</time></trkpt><trkpt lat="39.3063247" lon="8.7082727"><ele>110.0</ele><time>2026-05-01T10:57:34.231Z</time></trkpt><trkpt lat="39.3063063" lon="8.7085928"><ele>110.0</ele><time>2026-05-01T10:57:35.232Z</time></trkpt><trkpt lat="39.3062908" lon="8.7089138"><ele>110.0</ele><time>2026-05-01T10:57:36.231Z</time></trkpt><trkpt lat="39.3062731" lon="8.7092338"><ele>108.0</ele><time>2026-05-01T10:57:37.232Z</time></trkpt><trkpt lat="39.3062548" lon="8.7095539"><ele>106.0</ele><time>2026-05-01T10:57:38.232Z</time></trkpt><trkpt lat="39.3062361" lon="8.709875"><ele>106.0</ele><time>2026-05-01T10:57:39.231Z</time></trkpt><trkpt lat="39.3062194" lon="8.7101968"><ele>106.0</ele><time>2026-05-01T10:57:40.231Z</time></trkpt><trkpt lat="39.306203" lon="8.7105181"><ele>101.5</ele><time>2026-05-01T10:57:41.231Z</time></trkpt><trkpt lat="39.3061863" lon="8.7108388"><ele>97.0</ele><time>2026-05-01T10:57:42.231Z</time></trkpt><trkpt lat="39.3061672" lon="8.7111598"><ele>96.5</ele><time>2026-05-01T10:57:43.231Z</time></trkpt><trkpt lat="39.3061474" lon="8.7114799"><ele>96.0</ele><time>2026-05-01T10:57:44.231Z</time></trkpt><trkpt lat="39.3061268" lon="8.7118003"><ele>96.0</ele><time>2026-05-01T10:57:45.232Z</time></trkpt><trkpt lat="39.3061074" lon="8.712121"><ele>96.0</ele><time>2026-05-01T10:57:46.231Z</time></trkpt><trkpt lat="39.3060893" lon="8.7124421"><ele>96.5</ele><time>2026-05-01T10:57:47.231Z</time></trkpt><trkpt lat="39.3060703" lon="8.7127639"><ele>97.0</ele><time>2026-05-01T10:57:48.231Z</time></trkpt><trkpt lat="39.3060529" lon="8.7130853"><ele>97.0</ele><time>2026-05-01T10:57:49.232Z</time></trkpt><trkpt lat="39.3060359" lon="8.7134054"><ele>97.0</ele><time>2026-05-01T10:57:50.231Z</time></trkpt><trkpt lat="39.3060197" lon="8.7137252"><ele>97.0</ele><time>2026-05-01T10:57:51.232Z</time></trkpt><trkpt lat="39.3060023" lon="8.7140448"><ele>97.0</ele><time>2026-05-01T10:57:52.232Z</time></trkpt><trkpt lat="39.3059859" lon="8.7143658"><ele>95.5</ele><time>2026-05-01T10:57:53.232Z</time></trkpt><trkpt lat="39.3059691" lon="8.7146876"><ele>94.0</ele><time>2026-05-01T10:57:54.232Z</time></trkpt><trkpt lat="39.305952" lon="8.7150096"><ele>93.5</ele><time>2026-05-01T10:57:55.231Z</time></trkpt><trkpt lat="39.305933" lon="8.7153314"><ele>93.0</ele><time>2026-05-01T10:57:56.231Z</time></trkpt><trkpt lat="39.3059124" lon="8.7156528"><ele>93.0</ele><time>2026-05-01T10:57:57.232Z</time></trkpt><trkpt lat="39.3058923" lon="8.7159739"><ele>93.0</ele><time>2026-05-01T10:57:58.231Z</time></trkpt><trkpt lat="39.3058737" lon="8.7162935"><ele>93.0</ele><time>2026-05-01T10:57:59.231Z</time></trkpt><trkpt lat="39.3058556" lon="8.7166121"><ele>93.0</ele><time>2026-05-01T10:58:00.231Z</time></trkpt><trkpt lat="39.3058381" lon="8.7169324"><ele>93.0</ele><time>2026-05-01T10:58:01.232Z</time></trkpt><trkpt lat="39.3058211" lon="8.7172531"><ele>93.0</ele><time>2026-05-01T10:58:02.231Z</time></trkpt><trkpt lat="39.3058049" lon="8.717575"><ele>94.5</ele><time>2026-05-01T10:58:03.232Z</time></trkpt><trkpt lat="39.3057877" lon="8.7178966"><ele>96.0</ele><time>2026-05-01T10:58:04.231Z</time></trkpt><trkpt lat="39.3057703" lon="8.718218"><ele>96.0</ele><time>2026-05-01T10:58:05.232Z</time></trkpt><trkpt lat="39.3057521" lon="8.7185387"><ele>96.0</ele><time>2026-05-01T10:58:06.231Z</time></trkpt><trkpt lat="39.3057323" lon="8.7188585"><ele>97.0</ele><time>2026-05-01T10:58:07.231Z</time></trkpt><trkpt lat="39.3057139" lon="8.7191795"><ele>98.0</ele><time>2026-05-01T10:58:08.231Z</time></trkpt><trkpt lat="39.3056964" lon="8.7195"><ele>98.0</ele><time>2026-05-01T10:58:09.232Z</time></trkpt><trkpt lat="39.3056793" lon="8.719821"><ele>98.0</ele><time>2026-05-01T10:58:10.231Z</time></trkpt><trkpt lat="39.305662" lon="8.7201418"><ele>98.5</ele><time>2026-05-01T10:58:11.232Z</time></trkpt><trkpt lat="39.3056442" lon="8.7204627"><ele>99.0</ele><time>2026-05-01T10:58:12.232Z</time></trkpt><trkpt lat="39.3056257" lon="8.7207839"><ele>99.5</ele><time>2026-05-01T10:58:13.231Z</time></trkpt><trkpt lat="39.3056074" lon="8.721105"><ele>100.0</ele><time>2026-05-01T10:58:14.231Z</time></trkpt><trkpt lat="39.3055896" lon="8.7214266"><ele>99.5</ele><time>2026-05-01T10:58:15.231Z</time></trkpt><trkpt lat="39.3055713" lon="8.7217483"><ele>99.0</ele><time>2026-05-01T10:58:16.231Z</time></trkpt><trkpt lat="39.3055525" lon="8.7220695"><ele>99.0</ele><time>2026-05-01T10:58:17.232Z</time></trkpt><trkpt lat="39.3055341" lon="8.7223909"><ele>99.0</ele><time>2026-05-01T10:58:18.231Z</time></trkpt><trkpt lat="39.3055164" lon="8.7227108"><ele>99.0</ele><time>2026-05-01T10:58:19.232Z</time></trkpt><trkpt lat="39.3054992" lon="8.7230311"><ele>99.0</ele><time>2026-05-01T10:58:20.231Z</time></trkpt><trkpt lat="39.3054835" lon="8.7233514"><ele>98.5</ele><time>2026-05-01T10:58:21.231Z</time></trkpt><trkpt lat="39.3054668" lon="8.7236723"><ele>98.0</ele><time>2026-05-01T10:58:22.231Z</time></trkpt><trkpt lat="39.3054496" lon="8.7239938"><ele>98.0</ele><time>2026-05-01T10:58:23.232Z</time></trkpt><trkpt lat="39.3054329" lon="8.7243149"><ele>98.0</ele><time>2026-05-01T10:58:24.232Z</time></trkpt><trkpt lat="39.3054133" lon="8.7246341"><ele>97.5</ele><time>2026-05-01T10:58:25.231Z</time></trkpt><trkpt lat="39.3053951" lon="8.7249523"><ele>97.0</ele><time>2026-05-01T10:58:26.231Z</time></trkpt><trkpt lat="39.3053778" lon="8.7252675"><ele>96.0</ele><time>2026-05-01T10:58:27.232Z</time></trkpt><trkpt lat="39.3053621" lon="8.7255816"><ele>95.0</ele><time>2026-05-01T10:58:28.231Z</time></trkpt><trkpt lat="39.3053436" lon="8.7258931"><ele>95.0</ele><time>2026-05-01T10:58:29.232Z</time></trkpt><trkpt lat="39.3053266" lon="8.7262023"><ele>95.0</ele><time>2026-05-01T10:58:30.231Z</time></trkpt><trkpt lat="39.3053092" lon="8.7265116"><ele>95.0</ele><time>2026-05-01T10:58:31.232Z</time></trkpt><trkpt lat="39.3052912" lon="8.7268184"><ele>95.0</ele><time>2026-05-01T10:58:32.232Z</time></trkpt><trkpt lat="39.3052747" lon="8.7271243"><ele>95.0</ele><time>2026-05-01T10:58:33.232Z</time></trkpt><trkpt lat="39.3052576" lon="8.727427"><ele>95.0</ele><time>2026-05-01T10:58:34.231Z</time></trkpt><trkpt lat="39.3052404" lon="8.727727"><ele>95.0</ele><time>2026-05-01T10:58:35.232Z</time></trkpt><trkpt lat="39.3052241" lon="8.7280245"><ele>95.0</ele><time>2026-05-01T10:58:36.231Z</time></trkpt><trkpt lat="39.3052102" lon="8.7283226"><ele>94.5</ele><time>2026-05-01T10:58:37.232Z</time></trkpt><trkpt lat="39.3051983" lon="8.7286215"><ele>94.0</ele><time>2026-05-01T10:58:38.232Z</time></trkpt><trkpt lat="39.3051867" lon="8.728922"><ele>94.0</ele><time>2026-05-01T10:58:39.232Z</time></trkpt><trkpt lat="39.3051728" lon="8.7292234"><ele>94.0</ele><time>2026-05-01T10:58:40.231Z</time></trkpt><trkpt lat="39.3051575" lon="8.7295245"><ele>94.0</ele><time>2026-05-01T10:58:41.231Z</time></trkpt><trkpt lat="39.3051417" lon="8.7298265"><ele>94.0</ele><time>2026-05-01T10:58:42.231Z</time></trkpt><trkpt lat="39.3051259" lon="8.7301269"><ele>93.0</ele><time>2026-05-01T10:58:43.232Z</time></trkpt><trkpt lat="39.3051093" lon="8.7304261"><ele>92.0</ele><time>2026-05-01T10:58:44.231Z</time></trkpt><trkpt lat="39.3050928" lon="8.7307261"><ele>92.0</ele><time>2026-05-01T10:58:45.231Z</time></trkpt><trkpt lat="39.3050764" lon="8.7310292"><ele>92.0</ele><time>2026-05-01T10:58:46.231Z</time></trkpt><trkpt lat="39.3050618" lon="8.7313365"><ele>90.5</ele><time>2026-05-01T10:58:47.231Z</time></trkpt><trkpt lat="39.3050473" lon="8.731648"><ele>89.0</ele><time>2026-05-01T10:58:48.232Z</time></trkpt><trkpt lat="39.3050301" lon="8.7319604"><ele>88.0</ele><time>2026-05-01T10:58:49.231Z</time></trkpt><trkpt lat="39.3050115" lon="8.7322728"><ele>87.0</ele><time>2026-05-01T10:58:50.231Z</time></trkpt><trkpt lat="39.3049938" lon="8.7325826"><ele>86.0</ele><time>2026-05-01T10:58:51.232Z</time></trkpt><trkpt lat="39.3049763" lon="8.7328907"><ele>85.0</ele><time>2026-05-01T10:58:52.231Z</time></trkpt><trkpt lat="39.3049597" lon="8.7331975"><ele>85.0</ele><time>2026-05-01T10:58:53.231Z</time></trkpt><trkpt lat="39.3049437" lon="8.7335056"><ele>85.0</ele><time>2026-05-01T10:58:54.232Z</time></trkpt><trkpt lat="39.3049265" lon="8.733813"><ele>84.5</ele><time>2026-05-01T10:58:55.232Z</time></trkpt><trkpt lat="39.3049094" lon="8.7341202"><ele>84.0</ele><time>2026-05-01T10:58:56.231Z</time></trkpt><trkpt lat="39.3048919" lon="8.7344286"><ele>85.0</ele><time>2026-05-01T10:58:57.231Z</time></trkpt><trkpt lat="39.3048742" lon="8.7347368"><ele>86.0</ele><time>2026-05-01T10:58:58.231Z</time></trkpt><trkpt lat="39.3048582" lon="8.7350454"><ele>87.0</ele><time>2026-05-01T10:58:59.231Z</time></trkpt><trkpt lat="39.3048409" lon="8.7353537"><ele>88.0</ele><time>2026-05-01T10:59:00.232Z</time></trkpt><trkpt lat="39.3048213" lon="8.7356632"><ele>88.0</ele><time>2026-05-01T10:59:01.232Z</time></trkpt><trkpt lat="39.3048011" lon="8.7359736"><ele>88.0</ele><time>2026-05-01T10:59:02.232Z</time></trkpt><trkpt lat="39.3047804" lon="8.7362821"><ele>87.5</ele><time>2026-05-01T10:59:03.231Z</time></trkpt><trkpt lat="39.3047573" lon="8.7365886"><ele>87.0</ele><time>2026-05-01T10:59:04.231Z</time></trkpt><trkpt lat="39.3047353" lon="8.7368958"><ele>86.5</ele><time>2026-05-01T10:59:05.232Z</time></trkpt><trkpt lat="39.3047166" lon="8.7372056"><ele>86.0</ele><time>2026-05-01T10:59:06.232Z</time></trkpt><trkpt lat="39.3046973" lon="8.7375126"><ele>85.0</ele><time>2026-05-01T10:59:07.231Z</time></trkpt><trkpt lat="39.3046795" lon="8.7378228"><ele>84.0</ele><time>2026-05-01T10:59:08.232Z</time></trkpt><trkpt lat="39.3046626" lon="8.7381313"><ele>84.0</ele><time>2026-05-01T10:59:09.231Z</time></trkpt><trkpt lat="39.3046471" lon="8.7384406"><ele>84.0</ele><time>2026-05-01T10:59:10.231Z</time></trkpt><trkpt lat="39.3046286" lon="8.7387479"><ele>83.0</ele><time>2026-05-01T10:59:11.232Z</time></trkpt><trkpt lat="39.3046116" lon="8.7390594"><ele>82.0</ele><time>2026-05-01T10:59:12.232Z</time></trkpt><trkpt lat="39.3045943" lon="8.7393716"><ele>81.0</ele><time>2026-05-01T10:59:13.231Z</time></trkpt><trkpt lat="39.304576" lon="8.7396804"><ele>80.0</ele><time>2026-05-01T10:59:14.231Z</time></trkpt><trkpt lat="39.3045591" lon="8.7399868"><ele>80.5</ele><time>2026-05-01T10:59:15.231Z</time></trkpt><trkpt lat="39.304542" lon="8.740295"><ele>81.0</ele><time>2026-05-01T10:59:16.231Z</time></trkpt><trkpt lat="39.3045244" lon="8.7406027"><ele>81.0</ele><time>2026-05-01T10:59:17.231Z</time></trkpt><trkpt lat="39.3045078" lon="8.7409113"><ele>81.0</ele><time>2026-05-01T10:59:18.232Z</time></trkpt><trkpt lat="39.3044909" lon="8.7412199"><ele>81.0</ele><time>2026-05-01T10:59:19.231Z</time></trkpt><trkpt lat="39.304474" lon="8.7415282"><ele>81.0</ele><time>2026-05-01T10:59:20.232Z</time></trkpt><trkpt lat="39.3044567" lon="8.7418378"><ele>80.5</ele><time>2026-05-01T10:59:21.232Z</time></trkpt><trkpt lat="39.3044388" lon="8.7421464"><ele>80.0</ele><time>2026-05-01T10:59:22.231Z</time></trkpt><trkpt lat="39.3044205" lon="8.7424546"><ele>78.5</ele><time>2026-05-01T10:59:23.232Z</time></trkpt><trkpt lat="39.3044038" lon="8.7427648"><ele>77.0</ele><time>2026-05-01T10:59:24.231Z</time></trkpt><trkpt lat="39.3043857" lon="8.7430741"><ele>77.0</ele><time>2026-05-01T10:59:25.231Z</time></trkpt><trkpt lat="39.3043693" lon="8.7433842"><ele>77.0</ele><time>2026-05-01T10:59:26.231Z</time></trkpt><trkpt lat="39.3043536" lon="8.7436924"><ele>75.5</ele><time>2026-05-01T10:59:27.231Z</time></trkpt><trkpt lat="39.3043391" lon="8.7440012"><ele>74.0</ele><time>2026-05-01T10:59:28.231Z</time></trkpt><trkpt lat="39.3043207" lon="8.7443099"><ele>74.0</ele><time>2026-05-01T10:59:29.231Z</time></trkpt><trkpt lat="39.3043011" lon="8.7446183"><ele>74.0</ele><time>2026-05-01T10:59:30.232Z</time></trkpt><trkpt lat="39.3042801" lon="8.7449261"><ele>73.5</ele><time>2026-05-01T10:59:31.231Z</time></trkpt><trkpt lat="39.304259" lon="8.7452353"><ele>73.0</ele><time>2026-05-01T10:59:32.231Z</time></trkpt><trkpt lat="39.304239" lon="8.7455442"><ele>73.0</ele><time>2026-05-01T10:59:33.232Z</time></trkpt><trkpt lat="39.3042206" lon="8.7458518"><ele>73.0</ele><time>2026-05-01T10:59:34.232Z</time></trkpt><trkpt lat="39.3042034" lon="8.746161"><ele>72.5</ele><time>2026-05-01T10:59:35.231Z</time></trkpt><trkpt lat="39.3041844" lon="8.746469"><ele>72.0</ele><time>2026-05-01T10:59:36.231Z</time></trkpt><trkpt lat="39.3041647" lon="8.7467771"><ele>72.5</ele><time>2026-05-01T10:59:37.232Z</time></trkpt><trkpt lat="39.3041472" lon="8.7470852"><ele>73.0</ele><time>2026-05-01T10:59:38.231Z</time></trkpt><trkpt lat="39.3041393" lon="8.7474013"><ele>73.0</ele><time>2026-05-01T10:59:39.231Z</time></trkpt><trkpt lat="39.3041224" lon="8.7477089"><ele>73.0</ele><time>2026-05-01T10:59:40.232Z</time></trkpt><trkpt lat="39.3041038" lon="8.7480172"><ele>72.5</ele><time>2026-05-01T10:59:41.232Z</time></trkpt><trkpt lat="39.3040862" lon="8.7483261"><ele>72.0</ele><time>2026-05-01T10:59:42.232Z</time></trkpt><trkpt lat="39.3040687" lon="8.7486342"><ele>72.0</ele><time>2026-05-01T10:59:43.232Z</time></trkpt><trkpt lat="39.3040559" lon="8.7489473"><ele>72.0</ele><time>2026-05-01T10:59:44.231Z</time></trkpt><trkpt lat="39.3040387" lon="8.7492564"><ele>73.0</ele><time>2026-05-01T10:59:45.231Z</time></trkpt><trkpt lat="39.3040194" lon="8.749565"><ele>74.0</ele><time>2026-05-01T10:59:46.232Z</time></trkpt><trkpt lat="39.304" lon="8.7498735"><ele>74.0</ele><time>2026-05-01T10:59:47.232Z</time></trkpt><trkpt lat="39.3039811" lon="8.7501813"><ele>74.0</ele><time>2026-05-01T10:59:48.232Z</time></trkpt><trkpt lat="39.3039627" lon="8.7504893"><ele>75.0</ele><time>2026-05-01T10:59:49.231Z</time></trkpt><trkpt lat="39.3039442" lon="8.7507963"><ele>76.0</ele><time>2026-05-01T10:59:50.231Z</time></trkpt><trkpt lat="39.3039258" lon="8.7511039"><ele>78.0</ele><time>2026-05-01T10:59:51.232Z</time></trkpt><trkpt lat="39.3039064" lon="8.7514119"><ele>80.0</ele><time>2026-05-01T10:59:52.232Z</time></trkpt><trkpt lat="39.3038871" lon="8.7517197"><ele>79.0</ele><time>2026-05-01T10:59:53.232Z</time></trkpt><trkpt lat="39.3038678" lon="8.7520283"><ele>78.0</ele><time>2026-05-01T10:59:54.232Z</time></trkpt><trkpt lat="39.3038489" lon="8.7523381"><ele>78.0</ele><time>2026-05-01T10:59:55.231Z</time></trkpt><trkpt lat="39.3038306" lon="8.7526495"><ele>78.0</ele><time>2026-05-01T10:59:56.232Z</time></trkpt><trkpt lat="39.3038115" lon="8.7529633"><ele>76.0</ele><time>2026-05-01T10:59:57.232Z</time></trkpt><trkpt lat="39.303793" lon="8.7532782"><ele>74.0</ele><time>2026-05-01T10:59:58.231Z</time></trkpt><trkpt lat="39.3037748" lon="8.7535939"><ele>73.0</ele><time>2026-05-01T10:59:59.232Z</time></trkpt><trkpt lat="39.3037592" lon="8.7539083"><ele>72.0</ele><time>2026-05-01T11:00:00.231Z</time></trkpt><trkpt lat="39.3037419" lon="8.754222"><ele>71.5</ele><time>2026-05-01T11:00:01.232Z</time></trkpt><trkpt lat="39.3037244" lon="8.7545359"><ele>71.0</ele><time>2026-05-01T11:00:02.231Z</time></trkpt><trkpt lat="39.3037056" lon="8.7548501"><ele>71.0</ele><time>2026-05-01T11:00:03.232Z</time></trkpt><trkpt lat="39.303686" lon="8.7551666"><ele>71.0</ele><time>2026-05-01T11:00:04.231Z</time></trkpt><trkpt lat="39.303667" lon="8.7554811"><ele>71.0</ele><time>2026-05-01T11:00:05.232Z</time></trkpt><trkpt lat="39.3036478" lon="8.7557954"><ele>71.0</ele><time>2026-05-01T11:00:06.231Z</time></trkpt><trkpt lat="39.303628" lon="8.756111"><ele>72.0</ele><time>2026-05-01T11:00:07.231Z</time></trkpt><trkpt lat="39.3036082" lon="8.7564249"><ele>73.0</ele><time>2026-05-01T11:00:08.231Z</time></trkpt><trkpt lat="39.3035936" lon="8.7567412"><ele>73.0</ele><time>2026-05-01T11:00:09.231Z</time></trkpt><trkpt lat="39.3035741" lon="8.7570553"><ele>73.0</ele><time>2026-05-01T11:00:10.231Z</time></trkpt><trkpt lat="39.303555" lon="8.75737"><ele>73.0</ele><time>2026-05-01T11:00:11.232Z</time></trkpt><trkpt lat="39.3035357" lon="8.7576853"><ele>73.0</ele><time>2026-05-01T11:00:12.232Z</time></trkpt><trkpt lat="39.3035166" lon="8.7580007"><ele>73.0</ele><time>2026-05-01T11:00:13.232Z</time></trkpt><trkpt lat="39.3034995" lon="8.7583164"><ele>73.0</ele><time>2026-05-01T11:00:14.232Z</time></trkpt><trkpt lat="39.3034832" lon="8.7586311"><ele>72.5</ele><time>2026-05-01T11:00:15.232Z</time></trkpt><trkpt lat="39.303466" lon="8.7589466"><ele>72.0</ele><time>2026-05-01T11:00:16.232Z</time></trkpt><trkpt lat="39.303448" lon="8.7592584"><ele>71.0</ele><time>2026-05-01T11:00:17.231Z</time></trkpt><trkpt lat="39.3034308" lon="8.7595719"><ele>70.0</ele><time>2026-05-01T11:00:18.232Z</time></trkpt><trkpt lat="39.3034125" lon="8.7598861"><ele>70.0</ele><time>2026-05-01T11:00:19.232Z</time></trkpt><trkpt lat="39.3033939" lon="8.7602018"><ele>70.0</ele><time>2026-05-01T11:00:20.231Z</time></trkpt><trkpt lat="39.3033757" lon="8.7605153"><ele>70.0</ele><time>2026-05-01T11:00:21.232Z</time></trkpt><trkpt lat="39.303359" lon="8.7608318"><ele>70.0</ele><time>2026-05-01T11:00:22.231Z</time></trkpt><trkpt lat="39.3033415" lon="8.7611481"><ele>70.0</ele><time>2026-05-01T11:00:23.232Z</time></trkpt><trkpt lat="39.3033227" lon="8.7614654"><ele>70.0</ele><time>2026-05-01T11:00:24.231Z</time></trkpt><trkpt lat="39.3033033" lon="8.7617787"><ele>69.5</ele><time>2026-05-01T11:00:25.232Z</time></trkpt><trkpt lat="39.3032833" lon="8.7620922"><ele>69.0</ele><time>2026-05-01T11:00:26.232Z</time></trkpt><trkpt lat="39.3032641" lon="8.7624065"><ele>68.0</ele><time>2026-05-01T11:00:27.231Z</time></trkpt><trkpt lat="39.3032462" lon="8.7627211"><ele>67.0</ele><time>2026-05-01T11:00:28.232Z</time></trkpt><trkpt lat="39.3032296" lon="8.7630353"><ele>67.0</ele><time>2026-05-01T11:00:29.231Z</time></trkpt><trkpt lat="39.3032114" lon="8.7633489"><ele>67.0</ele><time>2026-05-01T11:00:30.232Z</time></trkpt><trkpt lat="39.3032052" lon="8.7636656"><ele>67.0</ele><time>2026-05-01T11:00:31.232Z</time></trkpt><trkpt lat="39.3031874" lon="8.7639809"><ele>67.0</ele><time>2026-05-01T11:00:32.231Z</time></trkpt><trkpt lat="39.3031694" lon="8.7642956"><ele>66.5</ele><time>2026-05-01T11:00:33.231Z</time></trkpt><trkpt lat="39.3031486" lon="8.7646102"><ele>66.0</ele><time>2026-05-01T11:00:34.232Z</time></trkpt><trkpt lat="39.3031284" lon="8.7649251"><ele>66.0</ele><time>2026-05-01T11:00:35.232Z</time></trkpt><trkpt lat="39.3031099" lon="8.7652387"><ele>66.0</ele><time>2026-05-01T11:00:36.232Z</time></trkpt><trkpt lat="39.3030942" lon="8.7655522"><ele>65.5</ele><time>2026-05-01T11:00:37.231Z</time></trkpt><trkpt lat="39.3030772" lon="8.765865"><ele>65.0</ele><time>2026-05-01T11:00:38.232Z</time></trkpt><trkpt lat="39.3030632" lon="8.7661809"><ele>64.5</ele><time>2026-05-01T11:00:39.231Z</time></trkpt><trkpt lat="39.303048" lon="8.7664961"><ele>64.0</ele><time>2026-05-01T11:00:40.231Z</time></trkpt><trkpt lat="39.3030317" lon="8.7668125"><ele>64.0</ele><time>2026-05-01T11:00:41.231Z</time></trkpt><trkpt lat="39.3030201" lon="8.7671264"><ele>64.0</ele><time>2026-05-01T11:00:42.232Z</time></trkpt><trkpt lat="39.303011" lon="8.7674425"><ele>63.5</ele><time>2026-05-01T11:00:43.232Z</time></trkpt><trkpt lat="39.3030053" lon="8.7677578"><ele>63.0</ele><time>2026-05-01T11:00:44.231Z</time></trkpt><trkpt lat="39.3030004" lon="8.7680734"><ele>63.0</ele><time>2026-05-01T11:00:45.231Z</time></trkpt><trkpt lat="39.3029961" lon="8.7683862"><ele>63.0</ele><time>2026-05-01T11:00:46.231Z</time></trkpt><trkpt lat="39.3029942" lon="8.7687019"><ele>63.5</ele><time>2026-05-01T11:00:47.232Z</time></trkpt><trkpt lat="39.302993" lon="8.7690182"><ele>64.0</ele><time>2026-05-01T11:00:48.231Z</time></trkpt><trkpt lat="39.3029927" lon="8.7693324"><ele>63.5</ele><time>2026-05-01T11:00:49.231Z</time></trkpt><trkpt lat="39.3029972" lon="8.7696468"><ele>63.0</ele><time>2026-05-01T11:00:50.232Z</time></trkpt><trkpt lat="39.3030032" lon="8.769964"><ele>63.5</ele><time>2026-05-01T11:00:51.231Z</time></trkpt><trkpt lat="39.3030108" lon="8.7702803"><ele>64.0</ele><time>2026-05-01T11:00:52.231Z</time></trkpt><trkpt lat="39.3030206" lon="8.7705958"><ele>64.0</ele><time>2026-05-01T11:00:53.231Z</time></trkpt><trkpt lat="39.3030287" lon="8.7709103"><ele>64.0</ele><time>2026-05-01T11:00:54.231Z</time></trkpt><trkpt lat="39.3030398" lon="8.7712256"><ele>64.0</ele><time>2026-05-01T11:00:55.231Z</time></trkpt><trkpt lat="39.3030529" lon="8.7715416"><ele>64.0</ele><time>2026-05-01T11:00:56.231Z</time></trkpt><trkpt lat="39.3030695" lon="8.7718571"><ele>63.5</ele><time>2026-05-01T11:00:57.231Z</time></trkpt><trkpt lat="39.3030861" lon="8.772172"><ele>63.0</ele><time>2026-05-01T11:00:58.231Z</time></trkpt><trkpt lat="39.3031046" lon="8.7724841"><ele>63.0</ele><time>2026-05-01T11:00:59.231Z</time></trkpt><trkpt lat="39.3031235" lon="8.7727838"><ele>63.0</ele><time>2026-05-01T11:01:00.231Z</time></trkpt><trkpt lat="39.3031422" lon="8.7730709"><ele>63.0</ele><time>2026-05-01T11:01:01.231Z</time></trkpt><trkpt lat="39.3031622" lon="8.7733494"><ele>63.0</ele><time>2026-05-01T11:01:02.232Z</time></trkpt><trkpt lat="39.3031828" lon="8.7736131"><ele>63.0</ele><time>2026-05-01T11:01:03.232Z</time></trkpt><trkpt lat="39.3032047" lon="8.7738687"><ele>62.33333333333333</ele><time>2026-05-01T11:01:04.232Z</time></trkpt><trkpt lat="39.3032273" lon="8.774124"><ele>61.666666666666664</ele><time>2026-05-01T11:01:05.231Z</time></trkpt><trkpt lat="39.3032511" lon="8.7743761"><ele>61.0</ele><time>2026-05-01T11:01:06.231Z</time></trkpt><trkpt lat="39.3032741" lon="8.7746307"><ele>61.0</ele><time>2026-05-01T11:01:07.232Z</time></trkpt><trkpt lat="39.3032966" lon="8.7748854"><ele>61.0</ele><time>2026-05-01T11:01:08.231Z</time></trkpt><trkpt lat="39.3033217" lon="8.7751445"><ele>61.0</ele><time>2026-05-01T11:01:09.232Z</time></trkpt><trkpt lat="39.3033506" lon="8.7754048"><ele>61.33333333333333</ele><time>2026-05-01T11:01:10.232Z</time></trkpt><trkpt lat="39.3033818" lon="8.775668"><ele>61.66666666666667</ele><time>2026-05-01T11:01:11.232Z</time></trkpt><trkpt lat="39.3034148" lon="8.7759321"><ele>62.0</ele><time>2026-05-01T11:01:12.232Z</time></trkpt><trkpt lat="39.3034538" lon="8.7762038"><ele>61.333333333333336</ele><time>2026-05-01T11:01:13.232Z</time></trkpt><trkpt lat="39.3034875" lon="8.7764773"><ele>60.66666666666667</ele><time>2026-05-01T11:01:14.232Z</time></trkpt><trkpt lat="39.3035234" lon="8.7767517"><ele>60.0</ele><time>2026-05-01T11:01:15.231Z</time></trkpt><trkpt lat="39.303559" lon="8.7770283"><ele>60.0</ele><time>2026-05-01T11:01:16.232Z</time></trkpt><trkpt lat="39.3036" lon="8.7773077"><ele>60.0</ele><time>2026-05-01T11:01:17.231Z</time></trkpt><trkpt lat="39.3036403" lon="8.7775873"><ele>60.0</ele><time>2026-05-01T11:01:18.231Z</time></trkpt><trkpt lat="39.3036852" lon="8.7778667"><ele>60.0</ele><time>2026-05-01T11:01:19.232Z</time></trkpt><trkpt lat="39.3037289" lon="8.7781455"><ele>60.0</ele><time>2026-05-01T11:01:20.231Z</time></trkpt><trkpt lat="39.3037723" lon="8.7784126"><ele>60.0</ele><time>2026-05-01T11:01:21.232Z</time></trkpt><trkpt lat="39.3038105" lon="8.778666"><ele>60.0</ele><time>2026-05-01T11:01:22.231Z</time></trkpt><trkpt lat="39.3038438" lon="8.7789001"><ele>60.0</ele><time>2026-05-01T11:01:23.232Z</time></trkpt><trkpt lat="39.3038764" lon="8.7791229"><ele>60.0</ele><time>2026-05-01T11:01:24.232Z</time></trkpt><trkpt lat="39.3039123" lon="8.7793365"><ele>60.33333333333333</ele><time>2026-05-01T11:01:25.232Z</time></trkpt><trkpt lat="39.3039444" lon="8.7795409"><ele>60.666666666666664</ele><time>2026-05-01T11:01:26.231Z</time></trkpt><trkpt lat="39.3039626" lon="8.7797394"><ele>61.0</ele><time>2026-05-01T11:01:27.231Z</time></trkpt><trkpt lat="39.3039585" lon="8.7799401"><ele>61.0</ele><time>2026-05-01T11:01:28.232Z</time></trkpt><trkpt lat="39.3039303" lon="8.7801345"><ele>61.0</ele><time>2026-05-01T11:01:29.232Z</time></trkpt><trkpt lat="39.303894" lon="8.7803245"><ele>61.0</ele><time>2026-05-01T11:01:30.232Z</time></trkpt><trkpt lat="39.3038383" lon="8.7805054"><ele>61.0</ele><time>2026-05-01T11:01:31.232Z</time></trkpt><trkpt lat="39.3037668" lon="8.7806755"><ele>61.0</ele><time>2026-05-01T11:01:32.231Z</time></trkpt><trkpt lat="39.3036837" lon="8.7808372"><ele>61.0</ele><time>2026-05-01T11:01:33.231Z</time></trkpt><trkpt lat="39.3035892" lon="8.7809859"><ele>61.0</ele><time>2026-05-01T11:01:34.232Z</time></trkpt><trkpt lat="39.3034899" lon="8.7811075"><ele>61.0</ele><time>2026-05-01T11:01:35.232Z</time></trkpt><trkpt lat="39.3033978" lon="8.7812077"><ele>60.99999999999999</ele><time>2026-05-01T11:01:36.231Z</time></trkpt><trkpt lat="39.3033099" lon="8.7812862"><ele>60.99999999999999</ele><time>2026-05-01T11:01:37.231Z</time></trkpt><trkpt lat="39.3032161" lon="8.7813517"><ele>61.0</ele><time>2026-05-01T11:01:38.232Z</time></trkpt><trkpt lat="39.3031125" lon="8.7814088"><ele>61.0</ele><time>2026-05-01T11:01:39.231Z</time></trkpt><trkpt lat="39.3030129" lon="8.7814556"><ele>60.8</ele><time>2026-05-01T11:01:40.231Z</time></trkpt><trkpt lat="39.302916" lon="8.7814904"><ele>60.599999999999994</ele><time>2026-05-01T11:01:41.231Z</time></trkpt><trkpt lat="39.3028172" lon="8.7815114"><ele>60.4</ele><time>2026-05-01T11:01:42.232Z</time></trkpt><trkpt lat="39.3027178" lon="8.7815227"><ele>60.2</ele><time>2026-05-01T11:01:43.232Z</time></trkpt><trkpt lat="39.3026246" lon="8.7815294"><ele>60.0</ele><time>2026-05-01T11:01:44.232Z</time></trkpt><trkpt lat="39.3025345" lon="8.7815375"><ele>60.0</ele><time>2026-05-01T11:01:45.231Z</time></trkpt><trkpt lat="39.3024558" lon="8.7815571"><ele>60.0</ele><time>2026-05-01T11:01:46.232Z</time></trkpt><trkpt lat="39.3023915" lon="8.7815904"><ele>60.0</ele><time>2026-05-01T11:01:47.232Z</time></trkpt><trkpt lat="39.3023179" lon="8.7816925"><ele>60.0</ele><time>2026-05-01T11:01:49.232Z</time></trkpt><trkpt lat="39.3022955" lon="8.7817703"><ele>60.0</ele><time>2026-05-01T11:01:50.231Z</time></trkpt><trkpt lat="39.3022819" lon="8.781863"><ele>60.0</ele><time>2026-05-01T11:01:51.232Z</time></trkpt><trkpt lat="39.3022729" lon="8.7819792"><ele>59.75</ele><time>2026-05-01T11:01:52.231Z</time></trkpt><trkpt lat="39.3022647" lon="8.7821125"><ele>59.5</ele><time>2026-05-01T11:01:53.231Z</time></trkpt><trkpt lat="39.3022561" lon="8.7822635"><ele>59.25</ele><time>2026-05-01T11:01:54.232Z</time></trkpt><trkpt lat="39.302247" lon="8.7824279"><ele>59.0</ele><time>2026-05-01T11:01:55.232Z</time></trkpt><trkpt lat="39.3022368" lon="8.7825995"><ele>59.333333333333336</ele><time>2026-05-01T11:01:56.232Z</time></trkpt><trkpt lat="39.3022266" lon="8.7827877"><ele>59.66666666666667</ele><time>2026-05-01T11:01:57.232Z</time></trkpt><trkpt lat="39.3022158" lon="8.782981"><ele>60.0</ele><time>2026-05-01T11:01:58.232Z</time></trkpt><trkpt lat="39.3022054" lon="8.7831823"><ele>60.0</ele><time>2026-05-01T11:01:59.231Z</time></trkpt><trkpt lat="39.302195" lon="8.7833881"><ele>60.0</ele><time>2026-05-01T11:02:00.232Z</time></trkpt><trkpt lat="39.3021832" lon="8.7836017"><ele>60.0</ele><time>2026-05-01T11:02:01.232Z</time></trkpt><trkpt lat="39.30217" lon="8.7838225"><ele>59.66666666666667</ele><time>2026-05-01T11:02:02.232Z</time></trkpt><trkpt lat="39.302156" lon="8.7840485"><ele>59.333333333333336</ele><time>2026-05-01T11:02:03.232Z</time></trkpt><trkpt lat="39.3021428" lon="8.7842745"><ele>59.0</ele><time>2026-05-01T11:02:04.231Z</time></trkpt><trkpt lat="39.3021295" lon="8.7845017"><ele>59.0</ele><time>2026-05-01T11:02:05.232Z</time></trkpt><trkpt lat="39.3021155" lon="8.7847302"><ele>59.0</ele><time>2026-05-01T11:02:06.231Z</time></trkpt><trkpt lat="39.3021021" lon="8.7849603"><ele>59.0</ele><time>2026-05-01T11:02:07.232Z</time></trkpt><trkpt lat="39.3020889" lon="8.7851891"><ele>59.0</ele><time>2026-05-01T11:02:08.231Z</time></trkpt><trkpt lat="39.3020745" lon="8.7854177"><ele>59.0</ele><time>2026-05-01T11:02:09.231Z</time></trkpt><trkpt lat="39.3020606" lon="8.7856495"><ele>59.0</ele><time>2026-05-01T11:02:10.232Z</time></trkpt><trkpt lat="39.3020466" lon="8.7858819"><ele>58.66666666666667</ele><time>2026-05-01T11:02:11.231Z</time></trkpt><trkpt lat="39.3020329" lon="8.7861166"><ele>58.33333333333333</ele><time>2026-05-01T11:02:12.232Z</time></trkpt><trkpt lat="39.3020205" lon="8.7863541"><ele>58.0</ele><time>2026-05-01T11:02:13.231Z</time></trkpt><trkpt lat="39.3020075" lon="8.7865908"><ele>58.0</ele><time>2026-05-01T11:02:14.231Z</time></trkpt><trkpt lat="39.3019945" lon="8.7868297"><ele>58.0</ele><time>2026-05-01T11:02:15.231Z</time></trkpt><trkpt lat="39.3019825" lon="8.7870724"><ele>58.0</ele><time>2026-05-01T11:02:16.231Z</time></trkpt><trkpt lat="39.30197" lon="8.7873164"><ele>57.666666666666664</ele><time>2026-05-01T11:02:17.232Z</time></trkpt><trkpt lat="39.3019566" lon="8.7875609"><ele>57.33333333333333</ele><time>2026-05-01T11:02:18.232Z</time></trkpt><trkpt lat="39.3019414" lon="8.7878051"><ele>57.0</ele><time>2026-05-01T11:02:19.231Z</time></trkpt><trkpt lat="39.3019258" lon="8.7880505"><ele>56.66666666666667</ele><time>2026-05-01T11:02:20.231Z</time></trkpt><trkpt lat="39.3019139" lon="8.7883007"><ele>56.333333333333336</ele><time>2026-05-01T11:02:21.231Z</time></trkpt><trkpt lat="39.3018983" lon="8.7885487"><ele>56.0</ele><time>2026-05-01T11:02:22.232Z</time></trkpt><trkpt lat="39.3018834" lon="8.7887982"><ele>56.0</ele><time>2026-05-01T11:02:23.231Z</time></trkpt><trkpt lat="39.3018698" lon="8.7890492"><ele>56.0</ele><time>2026-05-01T11:02:24.232Z</time></trkpt><trkpt lat="39.3018572" lon="8.7893011"><ele>56.0</ele><time>2026-05-01T11:02:25.231Z</time></trkpt><trkpt lat="39.3018446" lon="8.7895544"><ele>56.0</ele><time>2026-05-01T11:02:26.231Z</time></trkpt><trkpt lat="39.3018319" lon="8.7898031"><ele>56.0</ele><time>2026-05-01T11:02:27.232Z</time></trkpt><trkpt lat="39.3018186" lon="8.790054"><ele>56.0</ele><time>2026-05-01T11:02:28.231Z</time></trkpt><trkpt lat="39.3018061" lon="8.7903066"><ele>56.333333333333336</ele><time>2026-05-01T11:02:29.232Z</time></trkpt><trkpt lat="39.301799" lon="8.7905629"><ele>56.66666666666667</ele><time>2026-05-01T11:02:30.232Z</time></trkpt><trkpt lat="39.3017959" lon="8.79082"><ele>57.0</ele><time>2026-05-01T11:02:31.232Z</time></trkpt><trkpt lat="39.3017982" lon="8.7910775"><ele>57.0</ele><time>2026-05-01T11:02:32.232Z</time></trkpt><trkpt lat="39.3018065" lon="8.7913358"><ele>57.0</ele><time>2026-05-01T11:02:33.231Z</time></trkpt><trkpt lat="39.3018223" lon="8.7915948"><ele>57.0</ele><time>2026-05-01T11:02:34.232Z</time></trkpt><trkpt lat="39.3018453" lon="8.791854"><ele>56.33333333333333</ele><time>2026-05-01T11:02:35.232Z</time></trkpt><trkpt lat="39.301876" lon="8.792113"><ele>55.666666666666664</ele><time>2026-05-01T11:02:36.231Z</time></trkpt><trkpt lat="39.301914" lon="8.7923714"><ele>55.0</ele><time>2026-05-01T11:02:37.231Z</time></trkpt><trkpt lat="39.3019561" lon="8.7926214"><ele>55.666666666666664</ele><time>2026-05-01T11:02:38.232Z</time></trkpt><trkpt lat="39.3019982" lon="8.7928656"><ele>56.33333333333333</ele><time>2026-05-01T11:02:39.232Z</time></trkpt><trkpt lat="39.3020403" lon="8.7931095"><ele>57.0</ele><time>2026-05-01T11:02:40.231Z</time></trkpt><trkpt lat="39.302081" lon="8.7933493"><ele>57.33333333333333</ele><time>2026-05-01T11:02:41.232Z</time></trkpt><trkpt lat="39.3021199" lon="8.7935748"><ele>57.666666666666664</ele><time>2026-05-01T11:02:42.231Z</time></trkpt><trkpt lat="39.3021591" lon="8.7938006"><ele>58.0</ele><time>2026-05-01T11:02:43.231Z</time></trkpt><trkpt lat="39.302199" lon="8.794027"><ele>58.0</ele><time>2026-05-01T11:02:44.231Z</time></trkpt><trkpt lat="39.3022377" lon="8.7942545"><ele>58.0</ele><time>2026-05-01T11:02:45.231Z</time></trkpt><trkpt lat="39.3022798" lon="8.794484"><ele>58.0</ele><time>2026-05-01T11:02:46.232Z</time></trkpt><trkpt lat="39.3023197" lon="8.794714"><ele>59.33333333333333</ele><time>2026-05-01T11:02:47.231Z</time></trkpt><trkpt lat="39.3023615" lon="8.7949432"><ele>60.66666666666667</ele><time>2026-05-01T11:02:48.232Z</time></trkpt><trkpt lat="39.3024001" lon="8.7951733"><ele>62.0</ele><time>2026-05-01T11:02:49.231Z</time></trkpt><trkpt lat="39.3024347" lon="8.7954024"><ele>62.0</ele><time>2026-05-01T11:02:50.232Z</time></trkpt><trkpt lat="39.3024609" lon="8.7956322"><ele>62.0</ele><time>2026-05-01T11:02:51.231Z</time></trkpt><trkpt lat="39.3024771" lon="8.7958618"><ele>62.0</ele><time>2026-05-01T11:02:52.231Z</time></trkpt><trkpt lat="39.3024799" lon="8.7960815"><ele>62.25</ele><time>2026-05-01T11:02:53.231Z</time></trkpt><trkpt lat="39.3024711" lon="8.7962875"><ele>62.5</ele><time>2026-05-01T11:02:54.232Z</time></trkpt><trkpt lat="39.302453" lon="8.796471"><ele>62.75</ele><time>2026-05-01T11:02:55.232Z</time></trkpt><trkpt lat="39.3024273" lon="8.7966303"><ele>63.0</ele><time>2026-05-01T11:02:56.232Z</time></trkpt><trkpt lat="39.3023953" lon="8.7967696"><ele>63.0</ele><time>2026-05-01T11:02:57.232Z</time></trkpt><trkpt lat="39.3023594" lon="8.7969027"><ele>63.0</ele><time>2026-05-01T11:02:58.231Z</time></trkpt><trkpt lat="39.3023176" lon="8.7970367"><ele>63.0</ele><time>2026-05-01T11:02:59.232Z</time></trkpt><trkpt lat="39.3022689" lon="8.7971775"><ele>63.0</ele><time>2026-05-01T11:03:00.232Z</time></trkpt><trkpt lat="39.3022139" lon="8.7973189"><ele>62.75</ele><time>2026-05-01T11:03:01.231Z</time></trkpt><trkpt lat="39.3021505" lon="8.7974613"><ele>62.5</ele><time>2026-05-01T11:03:02.231Z</time></trkpt><trkpt lat="39.3020844" lon="8.7976049"><ele>62.25</ele><time>2026-05-01T11:03:03.231Z</time></trkpt><trkpt lat="39.3020215" lon="8.7977414"><ele>62.0</ele><time>2026-05-01T11:03:04.231Z</time></trkpt><trkpt lat="39.3019582" lon="8.7978743"><ele>62.0</ele><time>2026-05-01T11:03:05.231Z</time></trkpt><trkpt lat="39.301892" lon="8.7980123"><ele>62.0</ele><time>2026-05-01T11:03:06.232Z</time></trkpt><trkpt lat="39.3018241" lon="8.7981534"><ele>62.0</ele><time>2026-05-01T11:03:07.231Z</time></trkpt><trkpt lat="39.3017544" lon="8.7982977"><ele>62.0</ele><time>2026-05-01T11:03:08.232Z</time></trkpt><trkpt lat="39.3016828" lon="8.7984491"><ele>61.5</ele><time>2026-05-01T11:03:09.231Z</time></trkpt><trkpt lat="39.3016075" lon="8.7986031"><ele>61.0</ele><time>2026-05-01T11:03:10.231Z</time></trkpt><trkpt lat="39.3015333" lon="8.7987604"><ele>60.5</ele><time>2026-05-01T11:03:11.232Z</time></trkpt><trkpt lat="39.3014569" lon="8.7989242"><ele>60.0</ele><time>2026-05-01T11:03:12.231Z</time></trkpt><trkpt lat="39.3013792" lon="8.7990921"><ele>60.0</ele><time>2026-05-01T11:03:13.232Z</time></trkpt><trkpt lat="39.301301" lon="8.7992603"><ele>60.0</ele><time>2026-05-01T11:03:14.231Z</time></trkpt><trkpt lat="39.3012188" lon="8.79943"><ele>60.0</ele><time>2026-05-01T11:03:15.232Z</time></trkpt><trkpt lat="39.3011333" lon="8.7996073"><ele>59.0</ele><time>2026-05-01T11:03:16.231Z</time></trkpt><trkpt lat="39.3010485" lon="8.7997871"><ele>58.0</ele><time>2026-05-01T11:03:17.232Z</time></trkpt><trkpt lat="39.3009647" lon="8.7999674"><ele>57.0</ele><time>2026-05-01T11:03:18.232Z</time></trkpt><trkpt lat="39.3008789" lon="8.8001421"><ele>56.66666666666667</ele><time>2026-05-01T11:03:19.232Z</time></trkpt><trkpt lat="39.3007941" lon="8.8003192"><ele>56.333333333333336</ele><time>2026-05-01T11:03:20.232Z</time></trkpt><trkpt lat="39.3007078" lon="8.8004964"><ele>56.0</ele><time>2026-05-01T11:03:21.232Z</time></trkpt><trkpt lat="39.3006206" lon="8.8006796"><ele>55.66666666666667</ele><time>2026-05-01T11:03:22.232Z</time></trkpt><trkpt lat="39.3005339" lon="8.8008654"><ele>55.33333333333333</ele><time>2026-05-01T11:03:23.231Z</time></trkpt><trkpt lat="39.300448" lon="8.8010513"><ele>55.0</ele><time>2026-05-01T11:03:24.231Z</time></trkpt><trkpt lat="39.3003605" lon="8.8012393"><ele>55.0</ele><time>2026-05-01T11:03:25.231Z</time></trkpt><trkpt lat="39.3002725" lon="8.8014284"><ele>55.0</ele><time>2026-05-01T11:03:26.232Z</time></trkpt><trkpt lat="39.3001832" lon="8.8016187"><ele>55.0</ele><time>2026-05-01T11:03:27.232Z</time></trkpt><trkpt lat="39.3000918" lon="8.8018084"><ele>55.666666666666664</ele><time>2026-05-01T11:03:28.232Z</time></trkpt><trkpt lat="39.3000006" lon="8.8020003"><ele>56.33333333333333</ele><time>2026-05-01T11:03:29.231Z</time></trkpt><trkpt lat="39.2999088" lon="8.8021933"><ele>57.0</ele><time>2026-05-01T11:03:30.232Z</time></trkpt><trkpt lat="39.299823" lon="8.8023886"><ele>57.0</ele><time>2026-05-01T11:03:31.231Z</time></trkpt><trkpt lat="39.2997557" lon="8.8025835"><ele>57.0</ele><time>2026-05-01T11:03:32.232Z</time></trkpt><trkpt lat="39.2997084" lon="8.8027664"><ele>57.0</ele><time>2026-05-01T11:03:33.231Z</time></trkpt><trkpt lat="39.2996742" lon="8.8029315"><ele>57.0</ele><time>2026-05-01T11:03:34.232Z</time></trkpt><trkpt lat="39.2996431" lon="8.803088"><ele>56.5</ele><time>2026-05-01T11:03:35.232Z</time></trkpt><trkpt lat="39.2996144" lon="8.8032417"><ele>56.0</ele><time>2026-05-01T11:03:36.232Z</time></trkpt><trkpt lat="39.2995863" lon="8.8033983"><ele>55.5</ele><time>2026-05-01T11:03:37.232Z</time></trkpt><trkpt lat="39.2995589" lon="8.8035573"><ele>55.0</ele><time>2026-05-01T11:03:38.232Z</time></trkpt><trkpt lat="39.2995302" lon="8.8037174"><ele>54.75</ele><time>2026-05-01T11:03:39.232Z</time></trkpt><trkpt lat="39.2994997" lon="8.8038842"><ele>54.5</ele><time>2026-05-01T11:03:40.232Z</time></trkpt><trkpt lat="39.2994671" lon="8.8040555"><ele>54.25</ele><time>2026-05-01T11:03:41.231Z</time></trkpt><trkpt lat="39.2994308" lon="8.8042311"><ele>54.0</ele><time>2026-05-01T11:03:42.231Z</time></trkpt><trkpt lat="39.2993941" lon="8.8044094"><ele>54.0</ele><time>2026-05-01T11:03:43.231Z</time></trkpt><trkpt lat="39.2993577" lon="8.8045946"><ele>54.0</ele><time>2026-05-01T11:03:44.232Z</time></trkpt><trkpt lat="39.2993216" lon="8.8047848"><ele>54.0</ele><time>2026-05-01T11:03:45.232Z</time></trkpt><trkpt lat="39.2992842" lon="8.8049744"><ele>54.0</ele><time>2026-05-01T11:03:46.232Z</time></trkpt><trkpt lat="39.2992475" lon="8.8051603"><ele>54.0</ele><time>2026-05-01T11:03:47.231Z</time></trkpt><trkpt lat="39.2992143" lon="8.8053468"><ele>54.0</ele><time>2026-05-01T11:03:48.231Z</time></trkpt><trkpt lat="39.2991869" lon="8.8055361"><ele>54.0</ele><time>2026-05-01T11:03:49.232Z</time></trkpt><trkpt lat="39.299162" lon="8.8057262"><ele>54.0</ele><time>2026-05-01T11:03:50.231Z</time></trkpt><trkpt lat="39.2991454" lon="8.8059155"><ele>54.0</ele><time>2026-05-01T11:03:51.231Z</time></trkpt><trkpt lat="39.2991351" lon="8.8060924"><ele>54.0</ele><time>2026-05-01T11:03:52.231Z</time></trkpt><trkpt lat="39.2991285" lon="8.8062584"><ele>54.0</ele><time>2026-05-01T11:03:53.231Z</time></trkpt><trkpt lat="39.2991205" lon="8.8064072"><ele>54.0</ele><time>2026-05-01T11:03:54.232Z</time></trkpt><trkpt lat="39.2991114" lon="8.8065594"><ele>54.0</ele><time>2026-05-01T11:03:55.231Z</time></trkpt><trkpt lat="39.2991021" lon="8.8067043"><ele>54.0</ele><time>2026-05-01T11:03:56.231Z</time></trkpt><trkpt lat="39.2990924" lon="8.8068483"><ele>54.0</ele><time>2026-05-01T11:03:57.232Z</time></trkpt><trkpt lat="39.2990841" lon="8.8069982"><ele>54.25</ele><time>2026-05-01T11:03:58.231Z</time></trkpt><trkpt lat="39.299077" lon="8.8071498"><ele>54.5</ele><time>2026-05-01T11:03:59.231Z</time></trkpt><trkpt lat="39.2990666" lon="8.8073033"><ele>54.75</ele><time>2026-05-01T11:04:00.232Z</time></trkpt><trkpt lat="39.2990577" lon="8.8074629"><ele>55.0</ele><time>2026-05-01T11:04:01.232Z</time></trkpt><trkpt lat="39.2990484" lon="8.8076302"><ele>54.75</ele><time>2026-05-01T11:04:02.231Z</time></trkpt><trkpt lat="39.2990389" lon="8.8077984"><ele>54.5</ele><time>2026-05-01T11:04:03.231Z</time></trkpt><trkpt lat="39.2990324" lon="8.8079624"><ele>54.25</ele><time>2026-05-01T11:04:04.231Z</time></trkpt><trkpt lat="39.2990298" lon="8.8081291"><ele>54.0</ele><time>2026-05-01T11:04:05.231Z</time></trkpt><trkpt lat="39.2990217" lon="8.8082896"><ele>54.0</ele><time>2026-05-01T11:04:06.232Z</time></trkpt><trkpt lat="39.2990131" lon="8.8084544"><ele>54.0</ele><time>2026-05-01T11:04:07.232Z</time></trkpt><trkpt lat="39.299" lon="8.8086192"><ele>54.0</ele><time>2026-05-01T11:04:08.232Z</time></trkpt><trkpt lat="39.2989728" lon="8.8089504"><ele>54.25</ele><time>2026-05-01T11:04:10.182Z</time></trkpt><trkpt lat="39.2989441" lon="8.809115"><ele>54.5</ele><time>2026-05-01T11:04:11.223Z</time></trkpt><trkpt lat="39.2989141" lon="8.8092677"><ele>54.75</ele><time>2026-05-01T11:04:12.223Z</time></trkpt><trkpt lat="39.2988852" lon="8.8094238"><ele>55.0</ele><time>2026-05-01T11:04:13.223Z</time></trkpt><trkpt lat="39.2988527" lon="8.8095797"><ele>54.25</ele><time>2026-05-01T11:04:14.224Z</time></trkpt><trkpt lat="39.2988198" lon="8.8097314"><ele>53.5</ele><time>2026-05-01T11:04:15.224Z</time></trkpt><trkpt lat="39.2987964" lon="8.8098708"><ele>52.75</ele><time>2026-05-01T11:04:16.224Z</time></trkpt><trkpt lat="39.2987666" lon="8.8100068"><ele>52.0</ele><time>2026-05-01T11:04:17.224Z</time></trkpt><trkpt lat="39.298744" lon="8.8101479"><ele>52.5</ele><time>2026-05-01T11:04:18.223Z</time></trkpt><trkpt lat="39.2987172" lon="8.8102969"><ele>53.0</ele><time>2026-05-01T11:04:19.224Z</time></trkpt><trkpt lat="39.2986866" lon="8.8104514"><ele>53.5</ele><time>2026-05-01T11:04:20.223Z</time></trkpt><trkpt lat="39.2986542" lon="8.8106087"><ele>54.0</ele><time>2026-05-01T11:04:21.223Z</time></trkpt><trkpt lat="39.298624" lon="8.810769"><ele>54.0</ele><time>2026-05-01T11:04:22.224Z</time></trkpt><trkpt lat="39.2985911" lon="8.8109314"><ele>54.0</ele><time>2026-05-01T11:04:23.223Z</time></trkpt><trkpt lat="39.2985589" lon="8.8110884"><ele>54.0</ele><time>2026-05-01T11:04:24.224Z</time></trkpt><trkpt lat="39.2985307" lon="8.8112346"><ele>54.0</ele><time>2026-05-01T11:04:25.223Z</time></trkpt><trkpt lat="39.2985062" lon="8.8113744"><ele>54.0</ele><time>2026-05-01T11:04:26.223Z</time></trkpt><trkpt lat="39.2984829" lon="8.8115173"><ele>54.0</ele><time>2026-05-01T11:04:27.224Z</time></trkpt><trkpt lat="39.29847" lon="8.8116629"><ele>54.0</ele><time>2026-05-01T11:04:28.224Z</time></trkpt><trkpt lat="39.2984716" lon="8.8118087"><ele>54.0</ele><time>2026-05-01T11:04:29.224Z</time></trkpt><trkpt lat="39.2984886" lon="8.8119553"><ele>54.2</ele><time>2026-05-01T11:04:30.224Z</time></trkpt><trkpt lat="39.2985187" lon="8.8120969"><ele>54.400000000000006</ele><time>2026-05-01T11:04:31.224Z</time></trkpt><trkpt lat="39.2985555" lon="8.8122198"><ele>54.6</ele><time>2026-05-01T11:04:32.224Z</time></trkpt><trkpt lat="39.2985848" lon="8.8123103"><ele>54.8</ele><time>2026-05-01T11:04:33.223Z</time></trkpt><trkpt lat="39.2986256" lon="8.8124117"><ele>55.0</ele><time>2026-05-01T11:04:35.223Z</time></trkpt><trkpt lat="39.2986698" lon="8.8125179"><ele>55.0</ele><time>2026-05-01T11:04:37.224Z</time></trkpt><trkpt lat="39.2987035" lon="8.8125982"><ele>55.0</ele><time>2026-05-01T11:04:38.224Z</time></trkpt><trkpt lat="39.2987442" lon="8.812692"><ele>55.0</ele><time>2026-05-01T11:04:39.224Z</time></trkpt><trkpt lat="39.2987928" lon="8.8128041"><ele>55.0</ele><time>2026-05-01T11:04:40.223Z</time></trkpt><trkpt lat="39.298845" lon="8.8129268"><ele>55.0</ele><time>2026-05-01T11:04:41.224Z</time></trkpt><trkpt lat="39.2989042" lon="8.8130636"><ele>55.25</ele><time>2026-05-01T11:04:42.223Z</time></trkpt><trkpt lat="39.298969" lon="8.8132035"><ele>55.5</ele><time>2026-05-01T11:04:43.223Z</time></trkpt><trkpt lat="39.299037" lon="8.8133538"><ele>55.75</ele><time>2026-05-01T11:04:44.223Z</time></trkpt><trkpt lat="39.2991052" lon="8.8135072"><ele>56.0</ele><time>2026-05-01T11:04:45.223Z</time></trkpt><trkpt lat="39.2991733" lon="8.8136602"><ele>55.5</ele><time>2026-05-01T11:04:46.223Z</time></trkpt><trkpt lat="39.2992398" lon="8.8138"><ele>55.0</ele><time>2026-05-01T11:04:47.223Z</time></trkpt><trkpt lat="39.2993074" lon="8.8139455"><ele>54.5</ele><time>2026-05-01T11:04:48.223Z</time></trkpt><trkpt lat="39.2993629" lon="8.8140774"><ele>54.0</ele><time>2026-05-01T11:04:49.224Z</time></trkpt><trkpt lat="39.2994158" lon="8.8142031"><ele>54.0</ele><time>2026-05-01T11:04:50.223Z</time></trkpt><trkpt lat="39.2994603" lon="8.8143181"><ele>54.00000000000001</ele><time>2026-05-01T11:04:51.223Z</time></trkpt><trkpt lat="39.2995012" lon="8.8144205"><ele>54.00000000000001</ele><time>2026-05-01T11:04:52.224Z</time></trkpt><trkpt lat="39.29954" lon="8.8145245"><ele>54.0</ele><time>2026-05-01T11:04:53.224Z</time></trkpt><trkpt lat="39.2995772" lon="8.8146321"><ele>54.0</ele><time>2026-05-01T11:04:54.224Z</time></trkpt><trkpt lat="39.2996151" lon="8.8147451"><ele>53.6</ele><time>2026-05-01T11:04:55.223Z</time></trkpt><trkpt lat="39.2996483" lon="8.814862"><ele>53.2</ele><time>2026-05-01T11:04:56.223Z</time></trkpt><trkpt lat="39.2996715" lon="8.8149859"><ele>52.800000000000004</ele><time>2026-05-01T11:04:57.223Z</time></trkpt><trkpt lat="39.2996857" lon="8.8151178"><ele>52.400000000000006</ele><time>2026-05-01T11:04:58.223Z</time></trkpt><trkpt lat="39.2996893" lon="8.8152589"><ele>52.0</ele><time>2026-05-01T11:04:59.224Z</time></trkpt><trkpt lat="39.2996838" lon="8.8154085"><ele>51.75</ele><time>2026-05-01T11:05:00.223Z</time></trkpt><trkpt lat="39.2996736" lon="8.8155647"><ele>51.5</ele><time>2026-05-01T11:05:01.223Z</time></trkpt><trkpt lat="39.2996627" lon="8.8157262"><ele>51.25</ele><time>2026-05-01T11:05:02.223Z</time></trkpt><trkpt lat="39.2996505" lon="8.8158899"><ele>51.0</ele><time>2026-05-01T11:05:03.224Z</time></trkpt><trkpt lat="39.2996391" lon="8.8160458"><ele>50.8</ele><time>2026-05-01T11:05:04.223Z</time></trkpt><trkpt lat="39.2996252" lon="8.8161939"><ele>50.599999999999994</ele><time>2026-05-01T11:05:05.224Z</time></trkpt><trkpt lat="39.2996084" lon="8.8163369"><ele>50.4</ele><time>2026-05-01T11:05:06.224Z</time></trkpt><trkpt lat="39.2995766" lon="8.8164688"><ele>50.2</ele><time>2026-05-01T11:05:07.223Z</time></trkpt><trkpt lat="39.2995214" lon="8.8165867"><ele>50.0</ele><time>2026-05-01T11:05:08.224Z</time></trkpt><trkpt lat="39.2994429" lon="8.8166701"><ele>50.0</ele><time>2026-05-01T11:05:09.224Z</time></trkpt><trkpt lat="39.2993458" lon="8.8167168"><ele>50.0</ele><time>2026-05-01T11:05:10.223Z</time></trkpt><trkpt lat="39.2992359" lon="8.8167255"><ele>50.0</ele><time>2026-05-01T11:05:11.224Z</time></trkpt><trkpt lat="39.299116" lon="8.816705"><ele>50.0</ele><time>2026-05-01T11:05:12.224Z</time></trkpt><trkpt lat="39.2989914" lon="8.816664"><ele>50.333333333333336</ele><time>2026-05-01T11:05:13.223Z</time></trkpt><trkpt lat="39.2988562" lon="8.8166035"><ele>50.66666666666667</ele><time>2026-05-01T11:05:14.223Z</time></trkpt><trkpt lat="39.2987112" lon="8.8165212"><ele>51.0</ele><time>2026-05-01T11:05:15.224Z</time></trkpt><trkpt lat="39.2985585" lon="8.8164186"><ele>51.0</ele><time>2026-05-01T11:05:16.224Z</time></trkpt><trkpt lat="39.2983945" lon="8.8163038"><ele>51.0</ele><time>2026-05-01T11:05:17.224Z</time></trkpt><trkpt lat="39.2982199" lon="8.8161883"><ele>51.0</ele><time>2026-05-01T11:05:18.223Z</time></trkpt><trkpt lat="39.2980436" lon="8.8160664"><ele>51.33333333333333</ele><time>2026-05-01T11:05:19.223Z</time></trkpt><trkpt lat="39.2978678" lon="8.8159487"><ele>51.666666666666664</ele><time>2026-05-01T11:05:20.224Z</time></trkpt><trkpt lat="39.2976924" lon="8.8158301"><ele>52.0</ele><time>2026-05-01T11:05:21.223Z</time></trkpt><trkpt lat="39.2975164" lon="8.8157119"><ele>52.0</ele><time>2026-05-01T11:05:22.223Z</time></trkpt><trkpt lat="39.2973494" lon="8.8156014"><ele>52.0</ele><time>2026-05-01T11:05:23.224Z</time></trkpt><trkpt lat="39.2971861" lon="8.8154883"><ele>52.0</ele><time>2026-05-01T11:05:24.223Z</time></trkpt><trkpt lat="39.2970293" lon="8.8153825"><ele>52.666666666666664</ele><time>2026-05-01T11:05:25.223Z</time></trkpt><trkpt lat="39.296873" lon="8.8152764"><ele>53.33333333333333</ele><time>2026-05-01T11:05:26.223Z</time></trkpt><trkpt lat="39.296719" lon="8.815173"><ele>54.0</ele><time>2026-05-01T11:05:27.223Z</time></trkpt><trkpt lat="39.296561" lon="8.8150638"><ele>53.66666666666667</ele><time>2026-05-01T11:05:28.223Z</time></trkpt><trkpt lat="39.296407" lon="8.8149587"><ele>53.333333333333336</ele><time>2026-05-01T11:05:29.224Z</time></trkpt><trkpt lat="39.2962587" lon="8.8148596"><ele>53.0</ele><time>2026-05-01T11:05:30.223Z</time></trkpt><trkpt lat="39.2961094" lon="8.8147559"><ele>53.0</ele><time>2026-05-01T11:05:31.224Z</time></trkpt><trkpt lat="39.295958" lon="8.8146466"><ele>53.0</ele><time>2026-05-01T11:05:32.224Z</time></trkpt><trkpt lat="39.295801" lon="8.8145346"><ele>53.0</ele><time>2026-05-01T11:05:33.223Z</time></trkpt><trkpt lat="39.2956368" lon="8.8144281"><ele>52.66666666666667</ele><time>2026-05-01T11:05:34.224Z</time></trkpt><trkpt lat="39.2954699" lon="8.8143279"><ele>52.33333333333333</ele><time>2026-05-01T11:05:35.223Z</time></trkpt><trkpt lat="39.2952966" lon="8.8142321"><ele>52.0</ele><time>2026-05-01T11:05:36.224Z</time></trkpt><trkpt lat="39.295125" lon="8.8141412"><ele>52.0</ele><time>2026-05-01T11:05:37.223Z</time></trkpt><trkpt lat="39.2949531" lon="8.8140578"><ele>52.0</ele><time>2026-05-01T11:05:38.223Z</time></trkpt><trkpt lat="39.2947826" lon="8.8139758"><ele>52.0</ele><time>2026-05-01T11:05:39.224Z</time></trkpt><trkpt lat="39.2946127" lon="8.8138948"><ele>51.0</ele><time>2026-05-01T11:05:40.223Z</time></trkpt><trkpt lat="39.2944438" lon="8.8138109"><ele>50.0</ele><time>2026-05-01T11:05:41.224Z</time></trkpt><trkpt lat="39.2942757" lon="8.8137263"><ele>49.0</ele><time>2026-05-01T11:05:42.224Z</time></trkpt><trkpt lat="39.294107" lon="8.8136421"><ele>49.0</ele><time>2026-05-01T11:05:43.224Z</time></trkpt><trkpt lat="39.2939406" lon="8.8135611"><ele>49.0</ele><time>2026-05-01T11:05:44.223Z</time></trkpt><trkpt lat="39.2937729" lon="8.8134771"><ele>49.0</ele><time>2026-05-01T11:05:45.224Z</time></trkpt><trkpt lat="39.2936024" lon="8.8133906"><ele>49.666666666666664</ele><time>2026-05-01T11:05:46.223Z</time></trkpt><trkpt lat="39.2934288" lon="8.8133067"><ele>50.33333333333333</ele><time>2026-05-01T11:05:47.224Z</time></trkpt><trkpt lat="39.2932501" lon="8.8132243"><ele>51.0</ele><time>2026-05-01T11:05:48.223Z</time></trkpt><trkpt lat="39.2930636" lon="8.8131463"><ele>51.0</ele><time>2026-05-01T11:05:49.224Z</time></trkpt><trkpt lat="39.2928683" lon="8.8130728"><ele>51.0</ele><time>2026-05-01T11:05:50.223Z</time></trkpt><trkpt lat="39.2926654" lon="8.8130113"><ele>51.0</ele><time>2026-05-01T11:05:51.224Z</time></trkpt><trkpt lat="39.292455" lon="8.8129662"><ele>50.66666666666667</ele><time>2026-05-01T11:05:52.223Z</time></trkpt><trkpt lat="39.2922387" lon="8.812935"><ele>50.333333333333336</ele><time>2026-05-01T11:05:53.224Z</time></trkpt><trkpt lat="39.2920146" lon="8.8129209"><ele>50.0</ele><time>2026-05-01T11:05:54.224Z</time></trkpt><trkpt lat="39.2917865" lon="8.8129201"><ele>50.0</ele><time>2026-05-01T11:05:55.223Z</time></trkpt><trkpt lat="39.2915579" lon="8.8129336"><ele>50.0</ele><time>2026-05-01T11:05:56.224Z</time></trkpt><trkpt lat="39.2913247" lon="8.8129555"><ele>50.5</ele><time>2026-05-01T11:05:57.223Z</time></trkpt><trkpt lat="39.2910894" lon="8.8129792"><ele>51.0</ele><time>2026-05-01T11:05:58.224Z</time></trkpt><trkpt lat="39.2908533" lon="8.8130012"><ele>51.0</ele><time>2026-05-01T11:05:59.223Z</time></trkpt><trkpt lat="39.2906158" lon="8.8130232"><ele>51.0</ele><time>2026-05-01T11:06:00.224Z</time></trkpt><trkpt lat="39.2903779" lon="8.8130457"><ele>52.0</ele><time>2026-05-01T11:06:01.223Z</time></trkpt><trkpt lat="39.2901392" lon="8.8130679"><ele>53.0</ele><time>2026-05-01T11:06:02.223Z</time></trkpt><trkpt lat="39.2898997" lon="8.813088"><ele>53.0</ele><time>2026-05-01T11:06:03.224Z</time></trkpt><trkpt lat="39.2896631" lon="8.8131083"><ele>53.0</ele><time>2026-05-01T11:06:04.224Z</time></trkpt><trkpt lat="39.2894263" lon="8.8131304"><ele>53.0</ele><time>2026-05-01T11:06:05.224Z</time></trkpt><trkpt lat="39.2891908" lon="8.8131542"><ele>53.0</ele><time>2026-05-01T11:06:06.223Z</time></trkpt><trkpt lat="39.2889548" lon="8.8131775"><ele>53.5</ele><time>2026-05-01T11:06:07.223Z</time></trkpt><trkpt lat="39.2887206" lon="8.8132013"><ele>54.0</ele><time>2026-05-01T11:06:08.223Z</time></trkpt><trkpt lat="39.2884865" lon="8.8132257"><ele>54.0</ele><time>2026-05-01T11:06:09.223Z</time></trkpt><trkpt lat="39.2882523" lon="8.8132497"><ele>54.0</ele><time>2026-05-01T11:06:10.224Z</time></trkpt><trkpt lat="39.2880181" lon="8.8132739"><ele>54.5</ele><time>2026-05-01T11:06:11.223Z</time></trkpt><trkpt lat="39.2877844" lon="8.8132983"><ele>55.0</ele><time>2026-05-01T11:06:12.223Z</time></trkpt><trkpt lat="39.2875517" lon="8.8133207"><ele>55.0</ele><time>2026-05-01T11:06:13.224Z</time></trkpt><trkpt lat="39.2873197" lon="8.8133411"><ele>55.0</ele><time>2026-05-01T11:06:14.224Z</time></trkpt><trkpt lat="39.2870884" lon="8.8133618"><ele>55.5</ele><time>2026-05-01T11:06:15.224Z</time></trkpt><trkpt lat="39.2868567" lon="8.8133846"><ele>56.0</ele><time>2026-05-01T11:06:16.223Z</time></trkpt><trkpt lat="39.2866242" lon="8.8134101"><ele>55.0</ele><time>2026-05-01T11:06:17.223Z</time></trkpt><trkpt lat="39.28639" lon="8.8134314"><ele>54.0</ele><time>2026-05-01T11:06:18.224Z</time></trkpt><trkpt lat="39.286155" lon="8.8134534"><ele>54.0</ele><time>2026-05-01T11:06:19.224Z</time></trkpt><trkpt lat="39.2859212" lon="8.813477"><ele>54.0</ele><time>2026-05-01T11:06:20.223Z</time></trkpt><trkpt lat="39.285686" lon="8.8135005"><ele>54.0</ele><time>2026-05-01T11:06:21.224Z</time></trkpt><trkpt lat="39.2854512" lon="8.8135236"><ele>54.0</ele><time>2026-05-01T11:06:22.224Z</time></trkpt><trkpt lat="39.2852248" lon="8.8135468"><ele>54.0</ele><time>2026-05-01T11:06:23.224Z</time></trkpt><trkpt lat="39.2850117" lon="8.8135722"><ele>54.0</ele><time>2026-05-01T11:06:24.223Z</time></trkpt><trkpt lat="39.2847988" lon="8.813592"><ele>54.0</ele><time>2026-05-01T11:06:25.223Z</time></trkpt><trkpt lat="39.2845846" lon="8.8136089"><ele>54.66666666666667</ele><time>2026-05-01T11:06:26.224Z</time></trkpt><trkpt lat="39.2843664" lon="8.8136283"><ele>55.333333333333336</ele><time>2026-05-01T11:06:27.224Z</time></trkpt><trkpt lat="39.2841485" lon="8.8136474"><ele>56.0</ele><time>2026-05-01T11:06:28.224Z</time></trkpt><trkpt lat="39.2839301" lon="8.8136659"><ele>56.66666666666667</ele><time>2026-05-01T11:06:29.224Z</time></trkpt><trkpt lat="39.2837129" lon="8.8136861"><ele>57.33333333333333</ele><time>2026-05-01T11:06:30.223Z</time></trkpt><trkpt lat="39.2834944" lon="8.8137048"><ele>58.0</ele><time>2026-05-01T11:06:31.223Z</time></trkpt><trkpt lat="39.2832758" lon="8.8137271"><ele>59.33333333333333</ele><time>2026-05-01T11:06:32.223Z</time></trkpt><trkpt lat="39.2830563" lon="8.8137501"><ele>60.66666666666667</ele><time>2026-05-01T11:06:33.223Z</time></trkpt><trkpt lat="39.2828356" lon="8.8137713"><ele>62.0</ele><time>2026-05-01T11:06:34.223Z</time></trkpt><trkpt lat="39.2826144" lon="8.8137921"><ele>62.0</ele><time>2026-05-01T11:06:35.223Z</time></trkpt><trkpt lat="39.2823948" lon="8.8138123"><ele>62.0</ele><time>2026-05-01T11:06:36.223Z</time></trkpt><trkpt lat="39.2821752" lon="8.8138335"><ele>62.0</ele><time>2026-05-01T11:06:37.224Z</time></trkpt><trkpt lat="39.2819555" lon="8.8138537"><ele>62.0</ele><time>2026-05-01T11:06:38.223Z</time></trkpt><trkpt lat="39.2817332" lon="8.8138689"><ele>62.0</ele><time>2026-05-01T11:06:39.223Z</time></trkpt><trkpt lat="39.2815138" lon="8.8138911"><ele>62.0</ele><time>2026-05-01T11:06:40.224Z</time></trkpt><trkpt lat="39.2812957" lon="8.8139126"><ele>63.0</ele><time>2026-05-01T11:06:41.223Z</time></trkpt><trkpt lat="39.2810749" lon="8.8139334"><ele>64.0</ele><time>2026-05-01T11:06:42.224Z</time></trkpt><trkpt lat="39.28085" lon="8.8139517"><ele>65.0</ele><time>2026-05-01T11:06:43.224Z</time></trkpt><trkpt lat="39.2806222" lon="8.8139731"><ele>65.0</ele><time>2026-05-01T11:06:44.224Z</time></trkpt><trkpt lat="39.2803913" lon="8.8139961"><ele>65.0</ele><time>2026-05-01T11:06:45.224Z</time></trkpt><trkpt lat="39.2801632" lon="8.8140192"><ele>65.0</ele><time>2026-05-01T11:06:46.224Z</time></trkpt><trkpt lat="39.2799333" lon="8.8140422"><ele>65.0</ele><time>2026-05-01T11:06:47.224Z</time></trkpt><trkpt lat="39.2797037" lon="8.8140593"><ele>67.0</ele><time>2026-05-01T11:06:48.224Z</time></trkpt><trkpt lat="39.2794748" lon="8.8140806"><ele>69.0</ele><time>2026-05-01T11:06:49.224Z</time></trkpt><trkpt lat="39.2792452" lon="8.8141034"><ele>69.0</ele><time>2026-05-01T11:06:50.224Z</time></trkpt><trkpt lat="39.2790147" lon="8.8141247"><ele>69.0</ele><time>2026-05-01T11:06:51.223Z</time></trkpt><trkpt lat="39.2787815" lon="8.814148"><ele>70.0</ele><time>2026-05-01T11:06:52.224Z</time></trkpt><trkpt lat="39.2785475" lon="8.8141721"><ele>71.0</ele><time>2026-05-01T11:06:53.223Z</time></trkpt><trkpt lat="39.2783136" lon="8.814195"><ele>70.0</ele><time>2026-05-01T11:06:54.223Z</time></trkpt><trkpt lat="39.2780793" lon="8.8142161"><ele>69.0</ele><time>2026-05-01T11:06:55.223Z</time></trkpt><trkpt lat="39.2778436" lon="8.8142383"><ele>69.0</ele><time>2026-05-01T11:06:56.223Z</time></trkpt><trkpt lat="39.2776068" lon="8.8142601"><ele>69.0</ele><time>2026-05-01T11:06:57.223Z</time></trkpt><trkpt lat="39.2773706" lon="8.8142831"><ele>69.0</ele><time>2026-05-01T11:06:58.223Z</time></trkpt><trkpt lat="39.2771307" lon="8.8143057"><ele>69.0</ele><time>2026-05-01T11:06:59.224Z</time></trkpt><trkpt lat="39.2768899" lon="8.8143307"><ele>69.0</ele><time>2026-05-01T11:07:00.224Z</time></trkpt><trkpt lat="39.2766471" lon="8.8143552"><ele>69.0</ele><time>2026-05-01T11:07:01.223Z</time></trkpt><trkpt lat="39.2764047" lon="8.8143811"><ele>69.0</ele><time>2026-05-01T11:07:02.224Z</time></trkpt><trkpt lat="39.276161" lon="8.8144049"><ele>69.0</ele><time>2026-05-01T11:07:03.223Z</time></trkpt><trkpt lat="39.2759169" lon="8.8144302"><ele>69.0</ele><time>2026-05-01T11:07:04.223Z</time></trkpt><trkpt lat="39.275671" lon="8.8144535"><ele>69.0</ele><time>2026-05-01T11:07:05.224Z</time></trkpt><trkpt lat="39.2754255" lon="8.814474"><ele>70.0</ele><time>2026-05-01T11:07:06.223Z</time></trkpt><trkpt lat="39.2751806" lon="8.8144967"><ele>71.0</ele><time>2026-05-01T11:07:07.224Z</time></trkpt><trkpt lat="39.2749353" lon="8.8145202"><ele>72.5</ele><time>2026-05-01T11:07:08.223Z</time></trkpt><trkpt lat="39.2746885" lon="8.8145438"><ele>74.0</ele><time>2026-05-01T11:07:09.224Z</time></trkpt><trkpt lat="39.274443" lon="8.8145675"><ele>74.0</ele><time>2026-05-01T11:07:10.223Z</time></trkpt><trkpt lat="39.2741963" lon="8.8145898"><ele>74.0</ele><time>2026-05-01T11:07:11.223Z</time></trkpt><trkpt lat="39.273951" lon="8.8146157"><ele>76.5</ele><time>2026-05-01T11:07:12.223Z</time></trkpt><trkpt lat="39.2737175" lon="8.8146353"><ele>79.0</ele><time>2026-05-01T11:07:13.223Z</time></trkpt><trkpt lat="39.2734945" lon="8.8146587"><ele>79.0</ele><time>2026-05-01T11:07:14.223Z</time></trkpt><trkpt lat="39.2732727" lon="8.8146804"><ele>79.0</ele><time>2026-05-01T11:07:15.223Z</time></trkpt><trkpt lat="39.2730601" lon="8.8147011"><ele>79.0</ele><time>2026-05-01T11:07:16.223Z</time></trkpt><trkpt lat="39.2728581" lon="8.8147226"><ele>79.33333333333333</ele><time>2026-05-01T11:07:17.224Z</time></trkpt><trkpt lat="39.2726669" lon="8.8147417"><ele>79.66666666666667</ele><time>2026-05-01T11:07:18.223Z</time></trkpt><trkpt lat="39.2724899" lon="8.8147561"><ele>80.0</ele><time>2026-05-01T11:07:19.223Z</time></trkpt><trkpt lat="39.2723205" lon="8.8147694"><ele>80.5</ele><time>2026-05-01T11:07:20.224Z</time></trkpt><trkpt lat="39.2721647" lon="8.8147816"><ele>81.0</ele><time>2026-05-01T11:07:21.224Z</time></trkpt><trkpt lat="39.2720174" lon="8.8147895"><ele>81.5</ele><time>2026-05-01T11:07:22.223Z</time></trkpt><trkpt lat="39.2718793" lon="8.8147815"><ele>82.0</ele><time>2026-05-01T11:07:23.224Z</time></trkpt><trkpt lat="39.2717483" lon="8.8147621"><ele>82.0</ele><time>2026-05-01T11:07:24.224Z</time></trkpt><trkpt lat="39.2716286" lon="8.8147407"><ele>82.0</ele><time>2026-05-01T11:07:25.224Z</time></trkpt><trkpt lat="39.2715425" lon="8.8147227"><ele>82.0</ele><time>2026-05-01T11:07:26.223Z</time></trkpt><trkpt lat="39.2714801" lon="8.8147087"><ele>82.0</ele><time>2026-05-01T11:07:27.224Z</time></trkpt><trkpt lat="39.2713479" lon="8.8146816"><ele>82.0</ele><time>2026-05-01T11:07:29.223Z</time></trkpt><trkpt lat="39.2712646" lon="8.8146835"><ele>82.19999999999999</ele><time>2026-05-01T11:07:30.224Z</time></trkpt><trkpt lat="39.2711701" lon="8.8146984"><ele>82.4</ele><time>2026-05-01T11:07:31.223Z</time></trkpt><trkpt lat="39.2710683" lon="8.8147265"><ele>82.6</ele><time>2026-05-01T11:07:32.224Z</time></trkpt><trkpt lat="39.2709603" lon="8.8147672"><ele>82.80000000000001</ele><time>2026-05-01T11:07:33.223Z</time></trkpt><trkpt lat="39.2708495" lon="8.8148189"><ele>83.0</ele><time>2026-05-01T11:07:34.224Z</time></trkpt><trkpt lat="39.2707346" lon="8.8148694"><ele>83.0</ele><time>2026-05-01T11:07:35.223Z</time></trkpt><trkpt lat="39.2706182" lon="8.8149088"><ele>83.0</ele><time>2026-05-01T11:07:36.224Z</time></trkpt><trkpt lat="39.2705056" lon="8.8149294"><ele>83.0</ele><time>2026-05-01T11:07:37.224Z</time></trkpt><trkpt lat="39.2703968" lon="8.8149335"><ele>83.0</ele><time>2026-05-01T11:07:38.224Z</time></trkpt><trkpt lat="39.2702966" lon="8.8149146"><ele>83.0</ele><time>2026-05-01T11:07:39.224Z</time></trkpt><trkpt lat="39.2702103" lon="8.8148664"><ele>82.4</ele><time>2026-05-01T11:07:40.223Z</time></trkpt><trkpt lat="39.2701525" lon="8.8147811"><ele>81.80000000000001</ele><time>2026-05-01T11:07:41.224Z</time></trkpt><trkpt lat="39.2701153" lon="8.8146676"><ele>81.2</ele><time>2026-05-01T11:07:42.223Z</time></trkpt><trkpt lat="39.2700849" lon="8.8145384"><ele>80.6</ele><time>2026-05-01T11:07:43.223Z</time></trkpt><trkpt lat="39.2700424" lon="8.8144045"><ele>80.0</ele><time>2026-05-01T11:07:44.224Z</time></trkpt><trkpt lat="39.2699866" lon="8.8142936"><ele>80.0</ele><time>2026-05-01T11:07:45.224Z</time></trkpt><trkpt lat="39.2699123" lon="8.8142152"><ele>80.0</ele><time>2026-05-01T11:07:46.224Z</time></trkpt><trkpt lat="39.2698238" lon="8.8141867"><ele>80.0</ele><time>2026-05-01T11:07:47.224Z</time></trkpt><trkpt lat="39.2697298" lon="8.8142074"><ele>80.0</ele><time>2026-05-01T11:07:48.224Z</time></trkpt><trkpt lat="39.2696374" lon="8.8142667"><ele>80.0</ele><time>2026-05-01T11:07:49.223Z</time></trkpt><trkpt lat="39.2695477" lon="8.8143528"><ele>79.0</ele><time>2026-05-01T11:07:50.224Z</time></trkpt><trkpt lat="39.2694573" lon="8.8144492"><ele>78.0</ele><time>2026-05-01T11:07:51.224Z</time></trkpt><trkpt lat="39.2693821" lon="8.8145629"><ele>77.0</ele><time>2026-05-01T11:07:52.223Z</time></trkpt><trkpt lat="39.2693307" lon="8.8147041"><ele>76.0</ele><time>2026-05-01T11:07:53.223Z</time></trkpt><trkpt lat="39.269295" lon="8.8148562"><ele>76.0</ele><time>2026-05-01T11:07:54.224Z</time></trkpt><trkpt lat="39.2692465" lon="8.8150065"><ele>76.0</ele><time>2026-05-01T11:07:55.223Z</time></trkpt><trkpt lat="39.269177" lon="8.8151532"><ele>76.0</ele><time>2026-05-01T11:07:56.223Z</time></trkpt><trkpt lat="39.2690916" lon="8.815292"><ele>76.0</ele><time>2026-05-01T11:07:57.224Z</time></trkpt><trkpt lat="39.2689993" lon="8.8153957"><ele>75.6</ele><time>2026-05-01T11:07:58.224Z</time></trkpt><trkpt lat="39.2688941" lon="8.8154535"><ele>75.19999999999999</ele><time>2026-05-01T11:07:59.224Z</time></trkpt><trkpt lat="39.2687883" lon="8.8154564"><ele>74.80000000000001</ele><time>2026-05-01T11:08:00.224Z</time></trkpt><trkpt lat="39.2686888" lon="8.8154029"><ele>74.4</ele><time>2026-05-01T11:08:01.223Z</time></trkpt><trkpt lat="39.2685946" lon="8.8153084"><ele>74.0</ele><time>2026-05-01T11:08:02.224Z</time></trkpt><trkpt lat="39.2685072" lon="8.815182"><ele>74.5</ele><time>2026-05-01T11:08:03.223Z</time></trkpt><trkpt lat="39.2684205" lon="8.8150568"><ele>75.0</ele><time>2026-05-01T11:08:04.223Z</time></trkpt><trkpt lat="39.2683221" lon="8.8149746"><ele>75.5</ele><time>2026-05-01T11:08:05.223Z</time></trkpt><trkpt lat="39.2682072" lon="8.8149464"><ele>76.0</ele><time>2026-05-01T11:08:06.224Z</time></trkpt><trkpt lat="39.268087" lon="8.8149782"><ele>76.75</ele><time>2026-05-01T11:08:07.223Z</time></trkpt><trkpt lat="39.2679778" lon="8.8150683"><ele>77.5</ele><time>2026-05-01T11:08:08.223Z</time></trkpt><trkpt lat="39.2678949" lon="8.8151915"><ele>78.25</ele><time>2026-05-01T11:08:09.224Z</time></trkpt><trkpt lat="39.2678607" lon="8.8153301"><ele>79.0</ele><time>2026-05-01T11:08:10.223Z</time></trkpt><trkpt lat="39.2678455" lon="8.8154683"><ele>79.4</ele><time>2026-05-01T11:08:11.223Z</time></trkpt><trkpt lat="39.2677945" lon="8.815587"><ele>79.80000000000001</ele><time>2026-05-01T11:08:12.224Z</time></trkpt><trkpt lat="39.2677178" lon="8.8156757"><ele>80.19999999999999</ele><time>2026-05-01T11:08:13.224Z</time></trkpt><trkpt lat="39.2676204" lon="8.815718"><ele>80.6</ele><time>2026-05-01T11:08:14.223Z</time></trkpt><trkpt lat="39.2675158" lon="8.8157069"><ele>81.0</ele><time>2026-05-01T11:08:15.224Z</time></trkpt><trkpt lat="39.267413" lon="8.8156528"><ele>81.0</ele><time>2026-05-01T11:08:16.224Z</time></trkpt><trkpt lat="39.2673048" lon="8.8155752"><ele>81.0</ele><time>2026-05-01T11:08:17.223Z</time></trkpt><trkpt lat="39.2671762" lon="8.8154949"><ele>81.0</ele><time>2026-05-01T11:08:18.224Z</time></trkpt><trkpt lat="39.2670365" lon="8.8154295"><ele>81.0</ele><time>2026-05-01T11:08:19.224Z</time></trkpt><trkpt lat="39.2668857" lon="8.8153821"><ele>81.33333333333333</ele><time>2026-05-01T11:08:20.224Z</time></trkpt><trkpt lat="39.2667297" lon="8.8153572"><ele>81.66666666666666</ele><time>2026-05-01T11:08:21.223Z</time></trkpt><trkpt lat="39.2665644" lon="8.8153575"><ele>82.0</ele><time>2026-05-01T11:08:22.223Z</time></trkpt><trkpt lat="39.2663898" lon="8.8153682"><ele>82.0</ele><time>2026-05-01T11:08:23.224Z</time></trkpt><trkpt lat="39.2662101" lon="8.8153786"><ele>82.0</ele><time>2026-05-01T11:08:24.224Z</time></trkpt><trkpt lat="39.2660263" lon="8.815386"><ele>82.0</ele><time>2026-05-01T11:08:25.224Z</time></trkpt><trkpt lat="39.2658404" lon="8.815397"><ele>82.0</ele><time>2026-05-01T11:08:26.224Z</time></trkpt><trkpt lat="39.2656554" lon="8.8154104"><ele>82.0</ele><time>2026-05-01T11:08:27.223Z</time></trkpt><trkpt lat="39.2654699" lon="8.8154205"><ele>82.0</ele><time>2026-05-01T11:08:28.223Z</time></trkpt><trkpt lat="39.2652841" lon="8.8154305"><ele>82.0</ele><time>2026-05-01T11:08:29.224Z</time></trkpt><trkpt lat="39.2651015" lon="8.815441"><ele>82.0</ele><time>2026-05-01T11:08:30.223Z</time></trkpt><trkpt lat="39.2649223" lon="8.8154519"><ele>82.0</ele><time>2026-05-01T11:08:31.224Z</time></trkpt><trkpt lat="39.2647402" lon="8.8154619"><ele>82.66666666666666</ele><time>2026-05-01T11:08:32.224Z</time></trkpt><trkpt lat="39.2645603" lon="8.8154719"><ele>83.33333333333333</ele><time>2026-05-01T11:08:33.224Z</time></trkpt><trkpt lat="39.264382" lon="8.8154847"><ele>84.0</ele><time>2026-05-01T11:08:34.223Z</time></trkpt><trkpt lat="39.2642033" lon="8.8154949"><ele>84.0</ele><time>2026-05-01T11:08:35.224Z</time></trkpt><trkpt lat="39.264025" lon="8.8155054"><ele>84.0</ele><time>2026-05-01T11:08:36.223Z</time></trkpt><trkpt lat="39.2638458" lon="8.8155167"><ele>84.0</ele><time>2026-05-01T11:08:37.224Z</time></trkpt><trkpt lat="39.263667" lon="8.8155298"><ele>84.66666666666667</ele><time>2026-05-01T11:08:38.224Z</time></trkpt><trkpt lat="39.2634878" lon="8.8155392"><ele>85.33333333333334</ele><time>2026-05-01T11:08:39.224Z</time></trkpt><trkpt lat="39.2633089" lon="8.8155489"><ele>86.0</ele><time>2026-05-01T11:08:40.224Z</time></trkpt><trkpt lat="39.2631266" lon="8.8155598"><ele>86.0</ele><time>2026-05-01T11:08:41.224Z</time></trkpt><trkpt lat="39.2629427" lon="8.8155704"><ele>86.0</ele><time>2026-05-01T11:08:42.223Z</time></trkpt><trkpt lat="39.2627585" lon="8.8155838"><ele>86.0</ele><time>2026-05-01T11:08:43.223Z</time></trkpt><trkpt lat="39.2625683" lon="8.8155938"><ele>86.0</ele><time>2026-05-01T11:08:44.224Z</time></trkpt><trkpt lat="39.2623754" lon="8.8156039"><ele>86.0</ele><time>2026-05-01T11:08:45.223Z</time></trkpt><trkpt lat="39.262179" lon="8.81561"><ele>86.0</ele><time>2026-05-01T11:08:46.223Z</time></trkpt><trkpt lat="39.2619796" lon="8.8156164"><ele>86.66666666666667</ele><time>2026-05-01T11:08:47.223Z</time></trkpt><trkpt lat="39.2617781" lon="8.8156257"><ele>87.33333333333333</ele><time>2026-05-01T11:08:48.224Z</time></trkpt><trkpt lat="39.2615785" lon="8.8156394"><ele>88.0</ele><time>2026-05-01T11:08:49.223Z</time></trkpt><trkpt lat="39.2613808" lon="8.815656"><ele>88.0</ele><time>2026-05-01T11:08:50.223Z</time></trkpt><trkpt lat="39.2611843" lon="8.8156808"><ele>88.0</ele><time>2026-05-01T11:08:51.223Z</time></trkpt><trkpt lat="39.2609891" lon="8.8157171"><ele>88.0</ele><time>2026-05-01T11:08:52.223Z</time></trkpt><trkpt lat="39.2607934" lon="8.8157637"><ele>87.66666666666666</ele><time>2026-05-01T11:08:53.223Z</time></trkpt><trkpt lat="39.2606026" lon="8.815814"><ele>87.33333333333333</ele><time>2026-05-01T11:08:54.224Z</time></trkpt><trkpt lat="39.2604185" lon="8.8158659"><ele>87.0</ele><time>2026-05-01T11:08:55.224Z</time></trkpt><trkpt lat="39.2602313" lon="8.8159206"><ele>87.0</ele><time>2026-05-01T11:08:56.223Z</time></trkpt><trkpt lat="39.2600457" lon="8.8159763"><ele>87.0</ele><time>2026-05-01T11:08:57.224Z</time></trkpt><trkpt lat="39.2598566" lon="8.8160335"><ele>87.0</ele><time>2026-05-01T11:08:58.223Z</time></trkpt><trkpt lat="39.2596671" lon="8.8160898"><ele>86.66666666666667</ele><time>2026-05-01T11:08:59.223Z</time></trkpt><trkpt lat="39.2594755" lon="8.8161444"><ele>86.33333333333334</ele><time>2026-05-01T11:09:00.224Z</time></trkpt><trkpt lat="39.2592826" lon="8.8161983"><ele>86.0</ele><time>2026-05-01T11:09:01.224Z</time></trkpt><trkpt lat="39.2590894" lon="8.8162523"><ele>85.0</ele><time>2026-05-01T11:09:02.224Z</time></trkpt><trkpt lat="39.2588948" lon="8.8163095"><ele>84.0</ele><time>2026-05-01T11:09:03.224Z</time></trkpt><trkpt lat="39.2586997" lon="8.8163677"><ele>83.0</ele><time>2026-05-01T11:09:04.224Z</time></trkpt><trkpt lat="39.2585055" lon="8.8164255"><ele>83.0</ele><time>2026-05-01T11:09:05.224Z</time></trkpt><trkpt lat="39.2583117" lon="8.816483"><ele>83.0</ele><time>2026-05-01T11:09:06.224Z</time></trkpt><trkpt lat="39.2581163" lon="8.816538"><ele>83.0</ele><time>2026-05-01T11:09:07.223Z</time></trkpt><trkpt lat="39.2579221" lon="8.8165924"><ele>84.0</ele><time>2026-05-01T11:09:08.224Z</time></trkpt><trkpt lat="39.2577274" lon="8.8166488"><ele>85.0</ele><time>2026-05-01T11:09:09.223Z</time></trkpt><trkpt lat="39.2575351" lon="8.8167072"><ele>86.0</ele><time>2026-05-01T11:09:10.223Z</time></trkpt><trkpt lat="39.257343" lon="8.8167657"><ele>87.66666666666667</ele><time>2026-05-01T11:09:11.223Z</time></trkpt><trkpt lat="39.2571512" lon="8.8168202"><ele>89.33333333333333</ele><time>2026-05-01T11:09:12.223Z</time></trkpt><trkpt lat="39.2569588" lon="8.816874"><ele>91.0</ele><time>2026-05-01T11:09:13.224Z</time></trkpt><trkpt lat="39.256767" lon="8.8169295"><ele>91.0</ele><time>2026-05-01T11:09:14.224Z</time></trkpt><trkpt lat="39.2565754" lon="8.816986"><ele>91.0</ele><time>2026-05-01T11:09:15.224Z</time></trkpt><trkpt lat="39.2563825" lon="8.8170398"><ele>91.0</ele><time>2026-05-01T11:09:16.223Z</time></trkpt><trkpt lat="39.2561877" lon="8.8170935"><ele>91.0</ele><time>2026-05-01T11:09:17.223Z</time></trkpt><trkpt lat="39.2559927" lon="8.8171479"><ele>91.0</ele><time>2026-05-01T11:09:18.223Z</time></trkpt><trkpt lat="39.255797" lon="8.8172066"><ele>91.0</ele><time>2026-05-01T11:09:19.224Z</time></trkpt><trkpt lat="39.2555999" lon="8.8172661"><ele>91.33333333333333</ele><time>2026-05-01T11:09:20.223Z</time></trkpt><trkpt lat="39.2554027" lon="8.8173238"><ele>91.66666666666667</ele><time>2026-05-01T11:09:21.224Z</time></trkpt><trkpt lat="39.255204" lon="8.8173804"><ele>92.0</ele><time>2026-05-01T11:09:22.223Z</time></trkpt><trkpt lat="39.2550043" lon="8.8174395"><ele>92.0</ele><time>2026-05-01T11:09:23.224Z</time></trkpt><trkpt lat="39.2548061" lon="8.8174977"><ele>92.0</ele><time>2026-05-01T11:09:24.224Z</time></trkpt><trkpt lat="39.2546195" lon="8.8175528"><ele>92.0</ele><time>2026-05-01T11:09:25.223Z</time></trkpt><trkpt lat="39.254437" lon="8.8176047"><ele>92.0</ele><time>2026-05-01T11:09:26.223Z</time></trkpt><trkpt lat="39.2542533" lon="8.8176552"><ele>92.0</ele><time>2026-05-01T11:09:27.223Z</time></trkpt><trkpt lat="39.2540777" lon="8.817703"><ele>92.0</ele><time>2026-05-01T11:09:28.223Z</time></trkpt><trkpt lat="39.2539107" lon="8.8177417"><ele>91.66666666666667</ele><time>2026-05-01T11:09:29.224Z</time></trkpt><trkpt lat="39.2537531" lon="8.8177535"><ele>91.33333333333333</ele><time>2026-05-01T11:09:30.224Z</time></trkpt><trkpt lat="39.2535969" lon="8.8177277"><ele>91.0</ele><time>2026-05-01T11:09:31.223Z</time></trkpt><trkpt lat="39.2534348" lon="8.8176782"><ele>91.66666666666666</ele><time>2026-05-01T11:09:32.224Z</time></trkpt><trkpt lat="39.2532591" lon="8.8176224"><ele>92.33333333333333</ele><time>2026-05-01T11:09:33.224Z</time></trkpt><trkpt lat="39.2530701" lon="8.8175795"><ele>93.0</ele><time>2026-05-01T11:09:34.224Z</time></trkpt><trkpt lat="39.2528726" lon="8.8175346"><ele>93.66666666666667</ele><time>2026-05-01T11:09:35.223Z</time></trkpt><trkpt lat="39.2526704" lon="8.8174896"><ele>94.33333333333334</ele><time>2026-05-01T11:09:36.223Z</time></trkpt><trkpt lat="39.2524618" lon="8.817445"><ele>95.0</ele><time>2026-05-01T11:09:37.223Z</time></trkpt><trkpt lat="39.2522582" lon="8.8174031"><ele>95.0</ele><time>2026-05-01T11:09:38.224Z</time></trkpt><trkpt lat="39.2520684" lon="8.8173638"><ele>95.0</ele><time>2026-05-01T11:09:39.224Z</time></trkpt><trkpt lat="39.2518966" lon="8.8173258"><ele>95.0</ele><time>2026-05-01T11:09:40.223Z</time></trkpt><trkpt lat="39.2517379" lon="8.8172933"><ele>95.0</ele><time>2026-05-01T11:09:41.223Z</time></trkpt><trkpt lat="39.2515911" lon="8.817281"><ele>95.0</ele><time>2026-05-01T11:09:42.223Z</time></trkpt><trkpt lat="39.2514575" lon="8.8173172"><ele>95.0</ele><time>2026-05-01T11:09:43.224Z</time></trkpt><trkpt lat="39.2513418" lon="8.817401"><ele>95.0</ele><time>2026-05-01T11:09:44.223Z</time></trkpt><trkpt lat="39.2512549" lon="8.8175301"><ele>95.75</ele><time>2026-05-01T11:09:45.224Z</time></trkpt><trkpt lat="39.2511974" lon="8.8176923"><ele>96.5</ele><time>2026-05-01T11:09:46.223Z</time></trkpt><trkpt lat="39.251148" lon="8.817847"><ele>97.25</ele><time>2026-05-01T11:09:47.223Z</time></trkpt><trkpt lat="39.2510827" lon="8.8179689"><ele>98.0</ele><time>2026-05-01T11:09:48.224Z</time></trkpt><trkpt lat="39.2509954" lon="8.8180525"><ele>98.0</ele><time>2026-05-01T11:09:49.224Z</time></trkpt><trkpt lat="39.2508842" lon="8.8180742"><ele>98.0</ele><time>2026-05-01T11:09:50.224Z</time></trkpt><trkpt lat="39.2507578" lon="8.8180434"><ele>98.0</ele><time>2026-05-01T11:09:51.224Z</time></trkpt><trkpt lat="39.2506432" lon="8.8179632"><ele>98.0</ele><time>2026-05-01T11:09:52.224Z</time></trkpt><trkpt lat="39.250563" lon="8.8178428"><ele>99.5</ele><time>2026-05-01T11:09:53.224Z</time></trkpt><trkpt lat="39.2505135" lon="8.817687"><ele>101.0</ele><time>2026-05-01T11:09:54.224Z</time></trkpt><trkpt lat="39.2504715" lon="8.8175067"><ele>102.5</ele><time>2026-05-01T11:09:55.224Z</time></trkpt><trkpt lat="39.2504193" lon="8.8173523"><ele>104.0</ele><time>2026-05-01T11:09:56.223Z</time></trkpt><trkpt lat="39.250346" lon="8.8172382"><ele>105.0</ele><time>2026-05-01T11:09:57.224Z</time></trkpt><trkpt lat="39.2502546" lon="8.8171762"><ele>106.0</ele><time>2026-05-01T11:09:58.224Z</time></trkpt><trkpt lat="39.2501518" lon="8.8171685"><ele>107.0</ele><time>2026-05-01T11:09:59.224Z</time></trkpt><trkpt lat="39.250038" lon="8.8172153"><ele>108.0</ele><time>2026-05-01T11:10:00.224Z</time></trkpt><trkpt lat="39.2499343" lon="8.8173166"><ele>108.0</ele><time>2026-05-01T11:10:01.223Z</time></trkpt><trkpt lat="39.2498376" lon="8.817458"><ele>108.0</ele><time>2026-05-01T11:10:02.224Z</time></trkpt><trkpt lat="39.2497392" lon="8.8175786"><ele>108.0</ele><time>2026-05-01T11:10:03.224Z</time></trkpt><trkpt lat="39.2496131" lon="8.8176636"><ele>108.0</ele><time>2026-05-01T11:10:04.223Z</time></trkpt><trkpt lat="39.2494613" lon="8.8177042"><ele>107.66666666666666</ele><time>2026-05-01T11:10:05.224Z</time></trkpt><trkpt lat="39.2492928" lon="8.8177043"><ele>107.33333333333333</ele><time>2026-05-01T11:10:06.223Z</time></trkpt><trkpt lat="39.2491107" lon="8.8176768"><ele>107.0</ele><time>2026-05-01T11:10:07.223Z</time></trkpt><trkpt lat="39.2489084" lon="8.817633"><ele>111.33333333333333</ele><time>2026-05-01T11:10:08.223Z</time></trkpt><trkpt lat="39.2486954" lon="8.8175885"><ele>115.66666666666666</ele><time>2026-05-01T11:10:09.224Z</time></trkpt><trkpt lat="39.2484801" lon="8.8175437"><ele>120.0</ele><time>2026-05-01T11:10:10.223Z</time></trkpt><trkpt lat="39.2482692" lon="8.817498"><ele>120.33333333333334</ele><time>2026-05-01T11:10:11.224Z</time></trkpt><trkpt lat="39.2480665" lon="8.8174517"><ele>120.66666666666667</ele><time>2026-05-01T11:10:12.224Z</time></trkpt><trkpt lat="39.2478813" lon="8.8174128"><ele>121.0</ele><time>2026-05-01T11:10:13.223Z</time></trkpt><trkpt lat="39.2476962" lon="8.8173732"><ele>121.0</ele><time>2026-05-01T11:10:14.223Z</time></trkpt><trkpt lat="39.2475182" lon="8.817327"><ele>121.0</ele><time>2026-05-01T11:10:15.224Z</time></trkpt><trkpt lat="39.2473474" lon="8.817257"><ele>121.0</ele><time>2026-05-01T11:10:16.223Z</time></trkpt><trkpt lat="39.2471849" lon="8.8171592"><ele>122.25</ele><time>2026-05-01T11:10:17.224Z</time></trkpt><trkpt lat="39.2470367" lon="8.817068"><ele>123.5</ele><time>2026-05-01T11:10:18.223Z</time></trkpt><trkpt lat="39.24691" lon="8.8170118"><ele>124.75</ele><time>2026-05-01T11:10:19.223Z</time></trkpt><trkpt lat="39.2467712" lon="8.8170092"><ele>126.0</ele><time>2026-05-01T11:10:20.224Z</time></trkpt><trkpt lat="39.2466332" lon="8.8170641"><ele>126.0</ele><time>2026-05-01T11:10:21.223Z</time></trkpt><trkpt lat="39.2464832" lon="8.8171426"><ele>126.0</ele><time>2026-05-01T11:10:22.223Z</time></trkpt><trkpt lat="39.2463251" lon="8.8171995"><ele>126.0</ele><time>2026-05-01T11:10:23.223Z</time></trkpt><trkpt lat="39.2461719" lon="8.8172042"><ele>125.0</ele><time>2026-05-01T11:10:24.224Z</time></trkpt><trkpt lat="39.2460182" lon="8.8171572"><ele>124.0</ele><time>2026-05-01T11:10:25.224Z</time></trkpt><trkpt lat="39.2458695" lon="8.8170579"><ele>123.0</ele><time>2026-05-01T11:10:26.224Z</time></trkpt><trkpt lat="39.2457166" lon="8.8169319"><ele>123.33333333333334</ele><time>2026-05-01T11:10:27.223Z</time></trkpt><trkpt lat="39.2455702" lon="8.8168264"><ele>123.66666666666667</ele><time>2026-05-01T11:10:28.224Z</time></trkpt><trkpt lat="39.245443" lon="8.8167215"><ele>124.0</ele><time>2026-05-01T11:10:29.224Z</time></trkpt><trkpt lat="39.2453518" lon="8.8165899"><ele>125.75</ele><time>2026-05-01T11:10:30.224Z</time></trkpt><trkpt lat="39.2453" lon="8.8164214"><ele>127.5</ele><time>2026-05-01T11:10:31.224Z</time></trkpt><trkpt lat="39.2452667" lon="8.8162277"><ele>129.25</ele><time>2026-05-01T11:10:32.224Z</time></trkpt><trkpt lat="39.2452212" lon="8.8160542"><ele>131.0</ele><time>2026-05-01T11:10:33.223Z</time></trkpt><trkpt lat="39.2451479" lon="8.8159327"><ele>131.0</ele><time>2026-05-01T11:10:34.223Z</time></trkpt><trkpt lat="39.2450472" lon="8.8158741"><ele>131.0</ele><time>2026-05-01T11:10:35.224Z</time></trkpt><trkpt lat="39.2449285" lon="8.8158701"><ele>131.0</ele><time>2026-05-01T11:10:36.223Z</time></trkpt><trkpt lat="39.2448039" lon="8.8158871"><ele>131.0</ele><time>2026-05-01T11:10:37.223Z</time></trkpt><trkpt lat="39.244682" lon="8.8158594"><ele>131.0</ele><time>2026-05-01T11:10:38.223Z</time></trkpt><trkpt lat="39.2445778" lon="8.8157605"><ele>131.0</ele><time>2026-05-01T11:10:39.223Z</time></trkpt><trkpt lat="39.2444746" lon="8.8156174"><ele>131.0</ele><time>2026-05-01T11:10:40.224Z</time></trkpt><trkpt lat="39.2443584" lon="8.8154466"><ele>131.0</ele><time>2026-05-01T11:10:41.223Z</time></trkpt><trkpt lat="39.2442324" lon="8.815266"><ele>131.0</ele><time>2026-05-01T11:10:42.223Z</time></trkpt><trkpt lat="39.2441245" lon="8.8151015"><ele>131.0</ele><time>2026-05-01T11:10:43.224Z</time></trkpt><trkpt lat="39.244038" lon="8.8149171"><ele>133.75</ele><time>2026-05-01T11:10:44.223Z</time></trkpt><trkpt lat="39.2439804" lon="8.8147237"><ele>136.5</ele><time>2026-05-01T11:10:45.223Z</time></trkpt><trkpt lat="39.2439506" lon="8.8145567"><ele>139.25</ele><time>2026-05-01T11:10:46.224Z</time></trkpt><trkpt lat="39.2439127" lon="8.8144235"><ele>142.0</ele><time>2026-05-01T11:10:47.224Z</time></trkpt><trkpt lat="39.2438418" lon="8.8143404"><ele>142.6</ele><time>2026-05-01T11:10:48.223Z</time></trkpt><trkpt lat="39.2437524" lon="8.8143209"><ele>143.2</ele><time>2026-05-01T11:10:49.223Z</time></trkpt><trkpt lat="39.2436595" lon="8.8143706"><ele>143.8</ele><time>2026-05-01T11:10:50.223Z</time></trkpt><trkpt lat="39.2435905" lon="8.8144796"><ele>144.4</ele><time>2026-05-01T11:10:51.223Z</time></trkpt><trkpt lat="39.2435385" lon="8.8146251"><ele>145.0</ele><time>2026-05-01T11:10:52.224Z</time></trkpt><trkpt lat="39.2434886" lon="8.8147901"><ele>145.0</ele><time>2026-05-01T11:10:53.224Z</time></trkpt><trkpt lat="39.2434156" lon="8.814919"><ele>145.0</ele><time>2026-05-01T11:10:54.224Z</time></trkpt><trkpt lat="39.2433127" lon="8.8150161"><ele>145.0</ele><time>2026-05-01T11:10:55.224Z</time></trkpt><trkpt lat="39.2431852" lon="8.8150765"><ele>145.0</ele><time>2026-05-01T11:10:56.224Z</time></trkpt><trkpt lat="39.2430629" lon="8.8151164"><ele>146.4</ele><time>2026-05-01T11:10:57.224Z</time></trkpt><trkpt lat="39.2429727" lon="8.8151919"><ele>147.8</ele><time>2026-05-01T11:10:58.224Z</time></trkpt><trkpt lat="39.242931" lon="8.8153045"><ele>149.2</ele><time>2026-05-01T11:10:59.223Z</time></trkpt><trkpt lat="39.2429398" lon="8.8154327"><ele>150.6</ele><time>2026-05-01T11:11:00.223Z</time></trkpt><trkpt lat="39.2429974" lon="8.8155492"><ele>152.0</ele><time>2026-05-01T11:11:01.224Z</time></trkpt><trkpt lat="39.2430687" lon="8.8156578"><ele>152.0</ele><time>2026-05-01T11:11:02.224Z</time></trkpt><trkpt lat="39.2431278" lon="8.8157846"><ele>152.0</ele><time>2026-05-01T11:11:03.223Z</time></trkpt><trkpt lat="39.243142" lon="8.8159232"><ele>152.0</ele><time>2026-05-01T11:11:04.223Z</time></trkpt><trkpt lat="39.243111" lon="8.816057"><ele>152.0</ele><time>2026-05-01T11:11:05.223Z</time></trkpt><trkpt lat="39.2430412" lon="8.8161712"><ele>152.0</ele><time>2026-05-01T11:11:06.224Z</time></trkpt><trkpt lat="39.2429377" lon="8.8162621"><ele>152.75</ele><time>2026-05-01T11:11:07.224Z</time></trkpt><trkpt lat="39.2428126" lon="8.8163241"><ele>153.5</ele><time>2026-05-01T11:11:08.223Z</time></trkpt><trkpt lat="39.2426749" lon="8.8163737"><ele>154.25</ele><time>2026-05-01T11:11:09.223Z</time></trkpt><trkpt lat="39.2425342" lon="8.8164458"><ele>155.0</ele><time>2026-05-01T11:11:10.223Z</time></trkpt><trkpt lat="39.2423929" lon="8.8165554"><ele>155.0</ele><time>2026-05-01T11:11:11.223Z</time></trkpt><trkpt lat="39.242251" lon="8.8166589"><ele>155.0</ele><time>2026-05-01T11:11:12.224Z</time></trkpt><trkpt lat="39.2421141" lon="8.8167357"><ele>155.0</ele><time>2026-05-01T11:11:13.224Z</time></trkpt><trkpt lat="39.2419672" lon="8.8167823"><ele>155.0</ele><time>2026-05-01T11:11:14.223Z</time></trkpt><trkpt lat="39.2418094" lon="8.8167915"><ele>155.0</ele><time>2026-05-01T11:11:15.224Z</time></trkpt><trkpt lat="39.2416474" lon="8.8167578"><ele>155.0</ele><time>2026-05-01T11:11:16.223Z</time></trkpt><trkpt lat="39.2414933" lon="8.8166875"><ele>154.75</ele><time>2026-05-01T11:11:17.223Z</time></trkpt><trkpt lat="39.2413609" lon="8.816612"><ele>154.5</ele><time>2026-05-01T11:11:18.223Z</time></trkpt><trkpt lat="39.2412358" lon="8.8165704"><ele>154.25</ele><time>2026-05-01T11:11:19.224Z</time></trkpt><trkpt lat="39.2411135" lon="8.816599"><ele>154.0</ele><time>2026-05-01T11:11:20.224Z</time></trkpt><trkpt lat="39.2410003" lon="8.816687"><ele>151.75</ele><time>2026-05-01T11:11:21.223Z</time></trkpt><trkpt lat="39.2409241" lon="8.8168309"><ele>149.5</ele><time>2026-05-01T11:11:22.224Z</time></trkpt><trkpt lat="39.2409028" lon="8.8169942"><ele>147.25</ele><time>2026-05-01T11:11:23.223Z</time></trkpt><trkpt lat="39.2409156" lon="8.8171471"><ele>145.0</ele><time>2026-05-01T11:11:24.223Z</time></trkpt><trkpt lat="39.2409046" lon="8.817293"><ele>145.0</ele><time>2026-05-01T11:11:25.224Z</time></trkpt><trkpt lat="39.2408478" lon="8.8174125"><ele>145.0</ele><time>2026-05-01T11:11:26.224Z</time></trkpt><trkpt lat="39.240758" lon="8.8174721"><ele>145.0</ele><time>2026-05-01T11:11:27.223Z</time></trkpt><trkpt lat="39.2406541" lon="8.8174733"><ele>145.0</ele><time>2026-05-01T11:11:28.223Z</time></trkpt><trkpt lat="39.2405402" lon="8.8174179"><ele>145.0</ele><time>2026-05-01T11:11:29.223Z</time></trkpt><trkpt lat="39.2404233" lon="8.8173369"><ele>146.5</ele><time>2026-05-01T11:11:30.223Z</time></trkpt><trkpt lat="39.240306" lon="8.8172804"><ele>148.0</ele><time>2026-05-01T11:11:31.224Z</time></trkpt><trkpt lat="39.2401879" lon="8.8172813"><ele>149.5</ele><time>2026-05-01T11:11:32.223Z</time></trkpt><trkpt lat="39.2400808" lon="8.8173514"><ele>151.0</ele><time>2026-05-01T11:11:33.224Z</time></trkpt><trkpt lat="39.2400094" lon="8.8174818"><ele>151.0</ele><time>2026-05-01T11:11:34.224Z</time></trkpt><trkpt lat="39.2399699" lon="8.8176477"><ele>151.0</ele><time>2026-05-01T11:11:35.224Z</time></trkpt><trkpt lat="39.2399356" lon="8.8178448"><ele>151.0</ele><time>2026-05-01T11:11:36.224Z</time></trkpt><trkpt lat="39.2398913" lon="8.8180135"><ele>151.0</ele><time>2026-05-01T11:11:37.224Z</time></trkpt><trkpt lat="39.239822" lon="8.8181383"><ele>148.0</ele><time>2026-05-01T11:11:38.223Z</time></trkpt><trkpt lat="39.2397217" lon="8.8182099"><ele>145.0</ele><time>2026-05-01T11:11:39.224Z</time></trkpt><trkpt lat="39.2396111" lon="8.8182214"><ele>142.0</ele><time>2026-05-01T11:11:40.224Z</time></trkpt><trkpt lat="39.2394996" lon="8.818172"><ele>139.0</ele><time>2026-05-01T11:11:41.223Z</time></trkpt><trkpt lat="39.2393796" lon="8.8180742"><ele>139.0</ele><time>2026-05-01T11:11:42.223Z</time></trkpt><trkpt lat="39.2392393" lon="8.8179561"><ele>139.0</ele><time>2026-05-01T11:11:43.224Z</time></trkpt><trkpt lat="39.2390837" lon="8.8178282"><ele>139.0</ele><time>2026-05-01T11:11:44.224Z</time></trkpt><trkpt lat="39.2389439" lon="8.8177045"><ele>137.33333333333334</ele><time>2026-05-01T11:11:45.223Z</time></trkpt><trkpt lat="39.2388144" lon="8.8175676"><ele>135.66666666666666</ele><time>2026-05-01T11:11:46.224Z</time></trkpt><trkpt lat="39.2387094" lon="8.817417"><ele>134.0</ele><time>2026-05-01T11:11:47.224Z</time></trkpt><trkpt lat="39.2386425" lon="8.8172482"><ele>134.0</ele><time>2026-05-01T11:11:48.223Z</time></trkpt><trkpt lat="39.2386169" lon="8.8170664"><ele>134.0</ele><time>2026-05-01T11:11:49.224Z</time></trkpt><trkpt lat="39.2386186" lon="8.8169014"><ele>134.0</ele><time>2026-05-01T11:11:50.223Z</time></trkpt><trkpt lat="39.2386216" lon="8.8167615"><ele>134.0</ele><time>2026-05-01T11:11:51.223Z</time></trkpt><trkpt lat="39.238591" lon="8.8166422"><ele>136.0</ele><time>2026-05-01T11:11:52.223Z</time></trkpt><trkpt lat="39.2384921" lon="8.8165855"><ele>138.0</ele><time>2026-05-01T11:11:53.223Z</time></trkpt><trkpt lat="39.2383867" lon="8.8165789"><ele>140.0</ele><time>2026-05-01T11:11:54.223Z</time></trkpt><trkpt lat="39.2382697" lon="8.816631"><ele>142.0</ele><time>2026-05-01T11:11:55.224Z</time></trkpt><trkpt lat="39.238141" lon="8.816703"><ele>139.5</ele><time>2026-05-01T11:11:56.223Z</time></trkpt><trkpt lat="39.2380113" lon="8.8167514"><ele>137.0</ele><time>2026-05-01T11:11:57.223Z</time></trkpt><trkpt lat="39.2378812" lon="8.8167469"><ele>134.5</ele><time>2026-05-01T11:11:58.223Z</time></trkpt><trkpt lat="39.2377586" lon="8.8166887"><ele>132.0</ele><time>2026-05-01T11:11:59.224Z</time></trkpt><trkpt lat="39.2376667" lon="8.8165892"><ele>132.0</ele><time>2026-05-01T11:12:00.224Z</time></trkpt><trkpt lat="39.2376075" lon="8.8164413"><ele>132.0</ele><time>2026-05-01T11:12:01.224Z</time></trkpt><trkpt lat="39.2376003" lon="8.8162818"><ele>132.0</ele><time>2026-05-01T11:12:02.223Z</time></trkpt><trkpt lat="39.2376208" lon="8.8161191"><ele>132.0</ele><time>2026-05-01T11:12:03.224Z</time></trkpt><trkpt lat="39.2376174" lon="8.8159738"><ele>132.6</ele><time>2026-05-01T11:12:04.224Z</time></trkpt><trkpt lat="39.2375747" lon="8.8158555"><ele>133.2</ele><time>2026-05-01T11:12:05.223Z</time></trkpt><trkpt lat="39.2374935" lon="8.8157899"><ele>133.8</ele><time>2026-05-01T11:12:06.224Z</time></trkpt><trkpt lat="39.2373855" lon="8.8157926"><ele>134.4</ele><time>2026-05-01T11:12:07.224Z</time></trkpt><trkpt lat="39.2372774" lon="8.8158519"><ele>135.0</ele><time>2026-05-01T11:12:08.223Z</time></trkpt><trkpt lat="39.2371662" lon="8.8159344"><ele>133.5</ele><time>2026-05-01T11:12:09.224Z</time></trkpt><trkpt lat="39.2370307" lon="8.815988"><ele>132.0</ele><time>2026-05-01T11:12:10.223Z</time></trkpt><trkpt lat="39.2368852" lon="8.8159843"><ele>130.5</ele><time>2026-05-01T11:12:11.223Z</time></trkpt><trkpt lat="39.23676" lon="8.8159253"><ele>129.0</ele><time>2026-05-01T11:12:12.223Z</time></trkpt><trkpt lat="39.2366611" lon="8.8158108"><ele>129.0</ele><time>2026-05-01T11:12:13.223Z</time></trkpt><trkpt lat="39.236591" lon="8.8156658"><ele>129.0</ele><time>2026-05-01T11:12:14.224Z</time></trkpt><trkpt lat="39.2365393" lon="8.8155162"><ele>129.0</ele><time>2026-05-01T11:12:15.223Z</time></trkpt><trkpt lat="39.2364635" lon="8.8153951"><ele>129.0</ele><time>2026-05-01T11:12:16.224Z</time></trkpt><trkpt lat="39.2363534" lon="8.8153099"><ele>128.0</ele><time>2026-05-01T11:12:17.223Z</time></trkpt><trkpt lat="39.2362242" lon="8.8152633"><ele>127.0</ele><time>2026-05-01T11:12:18.223Z</time></trkpt><trkpt lat="39.2360986" lon="8.8152049"><ele>126.0</ele><time>2026-05-01T11:12:19.224Z</time></trkpt><trkpt lat="39.2360006" lon="8.8151129"><ele>125.0</ele><time>2026-05-01T11:12:20.223Z</time></trkpt><trkpt lat="39.2359193" lon="8.8149752"><ele>125.0</ele><time>2026-05-01T11:12:21.223Z</time></trkpt><trkpt lat="39.2358412" lon="8.8148183"><ele>125.0</ele><time>2026-05-01T11:12:22.223Z</time></trkpt><trkpt lat="39.2357626" lon="8.8146628"><ele>125.0</ele><time>2026-05-01T11:12:23.224Z</time></trkpt><trkpt lat="39.2356717" lon="8.8145216"><ele>125.0</ele><time>2026-05-01T11:12:24.224Z</time></trkpt><trkpt lat="39.2355654" lon="8.8143979"><ele>125.0</ele><time>2026-05-01T11:12:25.223Z</time></trkpt><trkpt lat="39.2354373" lon="8.8143064"><ele>125.0</ele><time>2026-05-01T11:12:26.224Z</time></trkpt><trkpt lat="39.2352914" lon="8.8142447"><ele>125.0</ele><time>2026-05-01T11:12:27.224Z</time></trkpt><trkpt lat="39.235132" lon="8.8141975"><ele>125.0</ele><time>2026-05-01T11:12:28.223Z</time></trkpt><trkpt lat="39.2349653" lon="8.8141582"><ele>125.0</ele><time>2026-05-01T11:12:29.223Z</time></trkpt><trkpt lat="39.2347983" lon="8.8141278"><ele>125.0</ele><time>2026-05-01T11:12:30.224Z</time></trkpt><trkpt lat="39.2346303" lon="8.8140972"><ele>124.0</ele><time>2026-05-01T11:12:31.223Z</time></trkpt><trkpt lat="39.2344631" lon="8.8140639"><ele>123.0</ele><time>2026-05-01T11:12:32.224Z</time></trkpt><trkpt lat="39.2342931" lon="8.8140281"><ele>122.0</ele><time>2026-05-01T11:12:33.224Z</time></trkpt><trkpt lat="39.2341199" lon="8.813994"><ele>123.0</ele><time>2026-05-01T11:12:34.224Z</time></trkpt><trkpt lat="39.2339451" lon="8.8139569"><ele>124.0</ele><time>2026-05-01T11:12:35.223Z</time></trkpt><trkpt lat="39.2337687" lon="8.8139177"><ele>125.0</ele><time>2026-05-01T11:12:36.223Z</time></trkpt><trkpt lat="39.233591" lon="8.8138816"><ele>125.0</ele><time>2026-05-01T11:12:37.223Z</time></trkpt><trkpt lat="39.2334127" lon="8.8138542"><ele>125.0</ele><time>2026-05-01T11:12:38.223Z</time></trkpt><trkpt lat="39.2332323" lon="8.8138402"><ele>125.0</ele><time>2026-05-01T11:12:39.223Z</time></trkpt><trkpt lat="39.2330535" lon="8.8138358"><ele>124.33333333333333</ele><time>2026-05-01T11:12:40.223Z</time></trkpt><trkpt lat="39.2328859" lon="8.8138348"><ele>123.66666666666666</ele><time>2026-05-01T11:12:41.224Z</time></trkpt><trkpt lat="39.2327235" lon="8.8138204"><ele>123.0</ele><time>2026-05-01T11:12:42.223Z</time></trkpt><trkpt lat="39.2325644" lon="8.8137805"><ele>123.0</ele><time>2026-05-01T11:12:43.223Z</time></trkpt><trkpt lat="39.2324098" lon="8.81372"><ele>123.0</ele><time>2026-05-01T11:12:44.223Z</time></trkpt><trkpt lat="39.2322567" lon="8.813642"><ele>123.0</ele><time>2026-05-01T11:12:45.223Z</time></trkpt><trkpt lat="39.2321028" lon="8.8135557"><ele>125.0</ele><time>2026-05-01T11:12:46.224Z</time></trkpt><trkpt lat="39.2319431" lon="8.8134656"><ele>127.0</ele><time>2026-05-01T11:12:47.224Z</time></trkpt><trkpt lat="39.2317846" lon="8.813374"><ele>129.0</ele><time>2026-05-01T11:12:48.224Z</time></trkpt><trkpt lat="39.2316278" lon="8.8132824"><ele>129.0</ele><time>2026-05-01T11:12:49.223Z</time></trkpt><trkpt lat="39.2314795" lon="8.8131891"><ele>129.0</ele><time>2026-05-01T11:12:50.223Z</time></trkpt><trkpt lat="39.2313452" lon="8.8130935"><ele>129.0</ele><time>2026-05-01T11:12:51.223Z</time></trkpt><trkpt lat="39.2312239" lon="8.8129735"><ele>128.66666666666666</ele><time>2026-05-01T11:12:52.224Z</time></trkpt><trkpt lat="39.2311164" lon="8.8128313"><ele>128.33333333333331</ele><time>2026-05-01T11:12:53.223Z</time></trkpt><trkpt lat="39.2310186" lon="8.8126667"><ele>128.0</ele><time>2026-05-01T11:12:54.224Z</time></trkpt><trkpt lat="39.230931" lon="8.8124893"><ele>129.33333333333331</ele><time>2026-05-01T11:12:55.224Z</time></trkpt><trkpt lat="39.2308451" lon="8.8123088"><ele>130.66666666666666</ele><time>2026-05-01T11:12:56.224Z</time></trkpt><trkpt lat="39.2307436" lon="8.8121347"><ele>132.0</ele><time>2026-05-01T11:12:57.223Z</time></trkpt><trkpt lat="39.2306239" lon="8.8119757"><ele>132.0</ele><time>2026-05-01T11:12:58.223Z</time></trkpt><trkpt lat="39.230487" lon="8.8118327"><ele>132.0</ele><time>2026-05-01T11:12:59.223Z</time></trkpt><trkpt lat="39.2303394" lon="8.8116996"><ele>132.0</ele><time>2026-05-01T11:13:00.223Z</time></trkpt><trkpt lat="39.2301852" lon="8.811574"><ele>132.33333333333334</ele><time>2026-05-01T11:13:01.224Z</time></trkpt><trkpt lat="39.2300313" lon="8.8114715"><ele>132.66666666666669</ele><time>2026-05-01T11:13:02.223Z</time></trkpt><trkpt lat="39.2298688" lon="8.8113903"><ele>133.0</ele><time>2026-05-01T11:13:03.224Z</time></trkpt><trkpt lat="39.2297009" lon="8.8113348"><ele>133.0</ele><time>2026-05-01T11:13:04.224Z</time></trkpt><trkpt lat="39.2295309" lon="8.8112951"><ele>133.0</ele><time>2026-05-01T11:13:05.223Z</time></trkpt><trkpt lat="39.2293707" lon="8.811259"><ele>133.0</ele><time>2026-05-01T11:13:06.223Z</time></trkpt><trkpt lat="39.2292007" lon="8.8112222"><ele>133.0</ele><time>2026-05-01T11:13:07.223Z</time></trkpt><trkpt lat="39.2290409" lon="8.8111878"><ele>133.0</ele><time>2026-05-01T11:13:08.223Z</time></trkpt><trkpt lat="39.2288926" lon="8.8111468"><ele>133.0</ele><time>2026-05-01T11:13:09.223Z</time></trkpt><trkpt lat="39.2287605" lon="8.8110849"><ele>133.66666666666669</ele><time>2026-05-01T11:13:10.224Z</time></trkpt><trkpt lat="39.2286382" lon="8.8109815"><ele>134.33333333333334</ele><time>2026-05-01T11:13:11.223Z</time></trkpt><trkpt lat="39.2285205" lon="8.810844"><ele>135.0</ele><time>2026-05-01T11:13:12.223Z</time></trkpt><trkpt lat="39.2283995" lon="8.8106926"><ele>135.0</ele><time>2026-05-01T11:13:13.224Z</time></trkpt><trkpt lat="39.2282587" lon="8.8105594"><ele>135.0</ele><time>2026-05-01T11:13:14.224Z</time></trkpt><trkpt lat="39.2281072" lon="8.8104397"><ele>135.0</ele><time>2026-05-01T11:13:15.223Z</time></trkpt><trkpt lat="39.227944" lon="8.8103198"><ele>135.66666666666666</ele><time>2026-05-01T11:13:16.224Z</time></trkpt><trkpt lat="39.2277915" lon="8.8102087"><ele>136.33333333333331</ele><time>2026-05-01T11:13:17.224Z</time></trkpt><trkpt lat="39.2276474" lon="8.8101024"><ele>137.0</ele><time>2026-05-01T11:13:18.224Z</time></trkpt><trkpt lat="39.2275212" lon="8.8099888"><ele>137.0</ele><time>2026-05-01T11:13:19.224Z</time></trkpt><trkpt lat="39.2274164" lon="8.8098398"><ele>137.0</ele><time>2026-05-01T11:13:20.223Z</time></trkpt><trkpt lat="39.2273416" lon="8.8096628"><ele>137.0</ele><time>2026-05-01T11:13:21.223Z</time></trkpt><trkpt lat="39.2272891" lon="8.8094651"><ele>136.75</ele><time>2026-05-01T11:13:22.224Z</time></trkpt><trkpt lat="39.2272497" lon="8.8092836"><ele>136.5</ele><time>2026-05-01T11:13:23.223Z</time></trkpt><trkpt lat="39.2272334" lon="8.8091214"><ele>136.25</ele><time>2026-05-01T11:13:24.223Z</time></trkpt><trkpt lat="39.2272611" lon="8.8089808"><ele>136.0</ele><time>2026-05-01T11:13:25.224Z</time></trkpt><trkpt lat="39.2273304" lon="8.8088687"><ele>136.25</ele><time>2026-05-01T11:13:26.223Z</time></trkpt><trkpt lat="39.2274295" lon="8.8087957"><ele>136.5</ele><time>2026-05-01T11:13:27.224Z</time></trkpt><trkpt lat="39.2275402" lon="8.808731"><ele>136.75</ele><time>2026-05-01T11:13:28.224Z</time></trkpt><trkpt lat="39.2276171" lon="8.8086285"><ele>137.0</ele><time>2026-05-01T11:13:29.224Z</time></trkpt><trkpt lat="39.2276546" lon="8.8084883"><ele>137.0</ele><time>2026-05-01T11:13:30.224Z</time></trkpt><trkpt lat="39.2276465" lon="8.8083375"><ele>137.0</ele><time>2026-05-01T11:13:31.224Z</time></trkpt><trkpt lat="39.227607" lon="8.8081873"><ele>137.0</ele><time>2026-05-01T11:13:32.223Z</time></trkpt><trkpt lat="39.2275865" lon="8.8080115"><ele>137.0</ele><time>2026-05-01T11:13:33.223Z</time></trkpt><trkpt lat="39.2276027" lon="8.8078111"><ele>137.66666666666666</ele><time>2026-05-01T11:13:34.223Z</time></trkpt><trkpt lat="39.2276409" lon="8.8075854"><ele>138.33333333333334</ele><time>2026-05-01T11:13:35.224Z</time></trkpt><trkpt lat="39.2276786" lon="8.8073365"><ele>139.0</ele><time>2026-05-01T11:13:36.223Z</time></trkpt><trkpt lat="39.2276855" lon="8.8071026"><ele>139.0</ele><time>2026-05-01T11:13:37.224Z</time></trkpt><trkpt lat="39.2276704" lon="8.8068584"><ele>139.0</ele><time>2026-05-01T11:13:38.224Z</time></trkpt><trkpt lat="39.2276435" lon="8.8066171"><ele>139.0</ele><time>2026-05-01T11:13:39.224Z</time></trkpt><trkpt lat="39.2276217" lon="8.8063753"><ele>139.33333333333334</ele><time>2026-05-01T11:13:40.223Z</time></trkpt><trkpt lat="39.2276101" lon="8.8061422"><ele>139.66666666666666</ele><time>2026-05-01T11:13:41.223Z</time></trkpt><trkpt lat="39.2276132" lon="8.8059235"><ele>140.0</ele><time>2026-05-01T11:13:42.224Z</time></trkpt><trkpt lat="39.2276347" lon="8.8057289"><ele>140.5</ele><time>2026-05-01T11:13:43.223Z</time></trkpt><trkpt lat="39.2276421" lon="8.8055529"><ele>141.0</ele><time>2026-05-01T11:13:44.224Z</time></trkpt><trkpt lat="39.2275854" lon="8.8053828"><ele>141.5</ele><time>2026-05-01T11:13:45.223Z</time></trkpt><trkpt lat="39.2274951" lon="8.805212"><ele>142.0</ele><time>2026-05-01T11:13:46.223Z</time></trkpt><trkpt lat="39.2273802" lon="8.8050242"><ele>141.0</ele><time>2026-05-01T11:13:47.224Z</time></trkpt><trkpt lat="39.2272692" lon="8.8048501"><ele>140.0</ele><time>2026-05-01T11:13:48.223Z</time></trkpt><trkpt lat="39.2271484" lon="8.8046803"><ele>139.0</ele><time>2026-05-01T11:13:49.224Z</time></trkpt><trkpt lat="39.2270126" lon="8.8045217"><ele>139.0</ele><time>2026-05-01T11:13:50.224Z</time></trkpt><trkpt lat="39.2268597" lon="8.8043857"><ele>139.0</ele><time>2026-05-01T11:13:51.224Z</time></trkpt><trkpt lat="39.2266923" lon="8.8042737"><ele>139.0</ele><time>2026-05-01T11:13:52.223Z</time></trkpt><trkpt lat="39.2265134" lon="8.8041866"><ele>139.66666666666669</ele><time>2026-05-01T11:13:53.223Z</time></trkpt><trkpt lat="39.2263406" lon="8.8041073"><ele>140.33333333333334</ele><time>2026-05-01T11:13:54.223Z</time></trkpt><trkpt lat="39.2261766" lon="8.8040127"><ele>141.0</ele><time>2026-05-01T11:13:55.224Z</time></trkpt><trkpt lat="39.2260215" lon="8.8038869"><ele>141.0</ele><time>2026-05-01T11:13:56.224Z</time></trkpt><trkpt lat="39.2258773" lon="8.8037393"><ele>141.0</ele><time>2026-05-01T11:13:57.223Z</time></trkpt><trkpt lat="39.2257419" lon="8.803569"><ele>141.0</ele><time>2026-05-01T11:13:58.224Z</time></trkpt><trkpt lat="39.2256226" lon="8.8033762"><ele>147.33333333333334</ele><time>2026-05-01T11:13:59.224Z</time></trkpt><trkpt lat="39.225511" lon="8.8031751"><ele>153.66666666666669</ele><time>2026-05-01T11:14:00.224Z</time></trkpt><trkpt lat="39.2253986" lon="8.8029646"><ele>160.0</ele><time>2026-05-01T11:14:01.223Z</time></trkpt><trkpt lat="39.2252885" lon="8.8027541"><ele>163.0</ele><time>2026-05-01T11:14:02.223Z</time></trkpt><trkpt lat="39.2251779" lon="8.8025434"><ele>166.0</ele><time>2026-05-01T11:14:03.224Z</time></trkpt><trkpt lat="39.2246966" lon="8.8012893"><ele>163.0</ele><time>2026-05-01T11:14:08.223Z</time></trkpt><trkpt lat="39.2245645" lon="8.8010583"><ele>160.0</ele><time>2026-05-01T11:14:09.223Z</time></trkpt><trkpt lat="39.2244204" lon="8.8008418"><ele>157.0</ele><time>2026-05-01T11:14:10.224Z</time></trkpt><trkpt lat="39.2242707" lon="8.8006457"><ele>157.0</ele><time>2026-05-01T11:14:11.224Z</time></trkpt><trkpt lat="39.2241131" lon="8.8004583"><ele>157.0</ele><time>2026-05-01T11:14:12.224Z</time></trkpt><trkpt lat="39.2239398" lon="8.8002968"><ele>157.0</ele><time>2026-05-01T11:14:13.224Z</time></trkpt><trkpt lat="39.2237599" lon="8.8001667"><ele>158.66666666666669</ele><time>2026-05-01T11:14:14.224Z</time></trkpt><trkpt lat="39.2235733" lon="8.8000556"><ele>160.33333333333334</ele><time>2026-05-01T11:14:15.223Z</time></trkpt><trkpt lat="39.2233808" lon="8.7999669"><ele>162.0</ele><time>2026-05-01T11:14:16.223Z</time></trkpt><trkpt lat="39.2231959" lon="8.7998902"><ele>159.66666666666666</ele><time>2026-05-01T11:14:17.223Z</time></trkpt><trkpt lat="39.2230248" lon="8.7998177"><ele>157.33333333333331</ele><time>2026-05-01T11:14:18.224Z</time></trkpt><trkpt lat="39.22288" lon="8.7997431"><ele>155.0</ele><time>2026-05-01T11:14:19.223Z</time></trkpt><trkpt lat="39.2227793" lon="8.7996462"><ele>155.0</ele><time>2026-05-01T11:14:20.223Z</time></trkpt><trkpt lat="39.2227152" lon="8.7995163"><ele>155.0</ele><time>2026-05-01T11:14:21.224Z</time></trkpt><trkpt lat="39.2226744" lon="8.799349"><ele>155.0</ele><time>2026-05-01T11:14:22.224Z</time></trkpt><trkpt lat="39.2226103" lon="8.7991542"><ele>155.0</ele><time>2026-05-01T11:14:23.223Z</time></trkpt><trkpt lat="39.2225081" lon="8.798964"><ele>155.33333333333331</ele><time>2026-05-01T11:14:24.224Z</time></trkpt><trkpt lat="39.2223895" lon="8.7987546"><ele>155.66666666666666</ele><time>2026-05-01T11:14:25.223Z</time></trkpt><trkpt lat="39.2222942" lon="8.7985509"><ele>156.0</ele><time>2026-05-01T11:14:26.223Z</time></trkpt><trkpt lat="39.2222191" lon="8.7983369"><ele>156.0</ele><time>2026-05-01T11:14:27.223Z</time></trkpt><trkpt lat="39.2221785" lon="8.7980978"><ele>156.0</ele><time>2026-05-01T11:14:28.224Z</time></trkpt><trkpt lat="39.2221511" lon="8.7978204"><ele>156.0</ele><time>2026-05-01T11:14:29.223Z</time></trkpt><trkpt lat="39.2221218" lon="8.7975476"><ele>157.0</ele><time>2026-05-01T11:14:30.224Z</time></trkpt><trkpt lat="39.2220756" lon="8.7972996"><ele>158.0</ele><time>2026-05-01T11:14:31.223Z</time></trkpt><trkpt lat="39.2219895" lon="8.797057"><ele>159.0</ele><time>2026-05-01T11:14:32.223Z</time></trkpt><trkpt lat="39.2218685" lon="8.7968197"><ele>161.5</ele><time>2026-05-01T11:14:33.224Z</time></trkpt><trkpt lat="39.221716" lon="8.7965925"><ele>164.0</ele><time>2026-05-01T11:14:34.224Z</time></trkpt><trkpt lat="39.2215399" lon="8.7963711"><ele>163.0</ele><time>2026-05-01T11:14:35.223Z</time></trkpt><trkpt lat="39.2213749" lon="8.7961764"><ele>162.0</ele><time>2026-05-01T11:14:36.224Z</time></trkpt><trkpt lat="39.2212251" lon="8.7960021"><ele>161.0</ele><time>2026-05-01T11:14:37.224Z</time></trkpt><trkpt lat="39.221087" lon="8.7958463"><ele>161.0</ele><time>2026-05-01T11:14:38.223Z</time></trkpt><trkpt lat="39.2209694" lon="8.7956991"><ele>161.0</ele><time>2026-05-01T11:14:39.223Z</time></trkpt><trkpt lat="39.2208928" lon="8.7955372"><ele>161.0</ele><time>2026-05-01T11:14:40.224Z</time></trkpt><trkpt lat="39.2208486" lon="8.7953498"><ele>161.0</ele><time>2026-05-01T11:14:41.223Z</time></trkpt><trkpt lat="39.2208187" lon="8.7951783"><ele>161.0</ele><time>2026-05-01T11:14:42.224Z</time></trkpt><trkpt lat="39.2207603" lon="8.7950342"><ele>161.0</ele><time>2026-05-01T11:14:43.223Z</time></trkpt><trkpt lat="39.2206687" lon="8.7949338"><ele>161.0</ele><time>2026-05-01T11:14:44.223Z</time></trkpt><trkpt lat="39.2205631" lon="8.7949056"><ele>161.0</ele><time>2026-05-01T11:14:45.223Z</time></trkpt><trkpt lat="39.2204519" lon="8.7949478"><ele>161.0</ele><time>2026-05-01T11:14:46.224Z</time></trkpt><trkpt lat="39.2203554" lon="8.7950598"><ele>161.0</ele><time>2026-05-01T11:14:47.224Z</time></trkpt><trkpt lat="39.2202511" lon="8.7952163"><ele>161.0</ele><time>2026-05-01T11:14:48.223Z</time></trkpt><trkpt lat="39.2201578" lon="8.7953434"><ele>161.0</ele><time>2026-05-01T11:14:49.223Z</time></trkpt><trkpt lat="39.2200581" lon="8.7954117"><ele>161.0</ele><time>2026-05-01T11:14:50.223Z</time></trkpt><trkpt lat="39.2199452" lon="8.7954249"><ele>161.0</ele><time>2026-05-01T11:14:51.224Z</time></trkpt><trkpt lat="39.2198327" lon="8.7953788"><ele>161.0</ele><time>2026-05-01T11:14:52.224Z</time></trkpt><trkpt lat="39.2197196" lon="8.7952796"><ele>163.0</ele><time>2026-05-01T11:14:53.223Z</time></trkpt><trkpt lat="39.2195952" lon="8.7951358"><ele>165.0</ele><time>2026-05-01T11:14:54.223Z</time></trkpt><trkpt lat="39.2194517" lon="8.7949484"><ele>167.0</ele><time>2026-05-01T11:14:55.224Z</time></trkpt><trkpt lat="39.2192867" lon="8.7947289"><ele>167.0</ele><time>2026-05-01T11:14:56.223Z</time></trkpt><trkpt lat="39.2191258" lon="8.7945111"><ele>167.0</ele><time>2026-05-01T11:14:57.223Z</time></trkpt><trkpt lat="39.2189827" lon="8.7943112"><ele>167.0</ele><time>2026-05-01T11:14:58.223Z</time></trkpt><trkpt lat="39.2188457" lon="8.7941321"><ele>167.0</ele><time>2026-05-01T11:14:59.224Z</time></trkpt><trkpt lat="39.2187025" lon="8.7939716"><ele>167.0</ele><time>2026-05-01T11:15:00.224Z</time></trkpt><trkpt lat="39.2185664" lon="8.7938282"><ele>167.0</ele><time>2026-05-01T11:15:01.224Z</time></trkpt><trkpt lat="39.218453" lon="8.7936849"><ele>167.0</ele><time>2026-05-01T11:15:02.224Z</time></trkpt><trkpt lat="39.2183696" lon="8.7935151"><ele>167.0</ele><time>2026-05-01T11:15:03.224Z</time></trkpt><trkpt lat="39.2183266" lon="8.7933506"><ele>167.0</ele><time>2026-05-01T11:15:04.223Z</time></trkpt><trkpt lat="39.2182456" lon="8.7932197"><ele>167.0</ele><time>2026-05-01T11:15:05.224Z</time></trkpt><trkpt lat="39.2181275" lon="8.7931116"><ele>170.0</ele><time>2026-05-01T11:15:06.224Z</time></trkpt><trkpt lat="39.2179938" lon="8.7930564"><ele>173.0</ele><time>2026-05-01T11:15:07.223Z</time></trkpt><trkpt lat="39.2178415" lon="8.7930693"><ele>176.0</ele><time>2026-05-01T11:15:08.224Z</time></trkpt><trkpt lat="39.2176552" lon="8.7931234"><ele>176.0</ele><time>2026-05-01T11:15:09.224Z</time></trkpt><trkpt lat="39.2174398" lon="8.7931867"><ele>176.0</ele><time>2026-05-01T11:15:10.223Z</time></trkpt><trkpt lat="39.2172604" lon="8.7932392"><ele>176.0</ele><time>2026-05-01T11:15:11.223Z</time></trkpt><trkpt lat="39.2170914" lon="8.7932794"><ele>176.0</ele><time>2026-05-01T11:15:12.223Z</time></trkpt><trkpt lat="39.2169214" lon="8.7932707"><ele>176.0</ele><time>2026-05-01T11:15:13.224Z</time></trkpt><trkpt lat="39.2167479" lon="8.7932265"><ele>176.0</ele><time>2026-05-01T11:15:14.224Z</time></trkpt><trkpt lat="39.2165745" lon="8.7931657"><ele>176.33333333333331</ele><time>2026-05-01T11:15:15.223Z</time></trkpt><trkpt lat="39.2164217" lon="8.7930924"><ele>176.66666666666666</ele><time>2026-05-01T11:15:16.224Z</time></trkpt><trkpt lat="39.2162801" lon="8.7929908"><ele>177.0</ele><time>2026-05-01T11:15:17.223Z</time></trkpt><trkpt lat="39.2161546" lon="8.7928504"><ele>177.0</ele><time>2026-05-01T11:15:18.224Z</time></trkpt><trkpt lat="39.2160479" lon="8.7926835"><ele>177.0</ele><time>2026-05-01T11:15:19.223Z</time></trkpt><trkpt lat="39.2159448" lon="8.7925019"><ele>177.0</ele><time>2026-05-01T11:15:20.223Z</time></trkpt><trkpt lat="39.2158181" lon="8.7923369"><ele>178.0</ele><time>2026-05-01T11:15:21.224Z</time></trkpt><trkpt lat="39.2156724" lon="8.7921891"><ele>179.0</ele><time>2026-05-01T11:15:22.224Z</time></trkpt><trkpt lat="39.2155306" lon="8.7920456"><ele>180.0</ele><time>2026-05-01T11:15:23.224Z</time></trkpt><trkpt lat="39.215397" lon="8.7919143"><ele>180.0</ele><time>2026-05-01T11:15:24.223Z</time></trkpt><trkpt lat="39.2152672" lon="8.7917939"><ele>180.0</ele><time>2026-05-01T11:15:25.223Z</time></trkpt><trkpt lat="39.2151341" lon="8.7917014"><ele>180.0</ele><time>2026-05-01T11:15:26.223Z</time></trkpt><trkpt lat="39.214987" lon="8.791641"><ele>180.0</ele><time>2026-05-01T11:15:27.224Z</time></trkpt><trkpt lat="39.2148341" lon="8.7916118"><ele>180.0</ele><time>2026-05-01T11:15:28.224Z</time></trkpt><trkpt lat="39.2146776" lon="8.7915844"><ele>180.0</ele><time>2026-05-01T11:15:29.224Z</time></trkpt><trkpt lat="39.2145204" lon="8.7915481"><ele>181.0</ele><time>2026-05-01T11:15:30.224Z</time></trkpt><trkpt lat="39.2143811" lon="8.791488"><ele>182.0</ele><time>2026-05-01T11:15:31.224Z</time></trkpt><trkpt lat="39.2142541" lon="8.7913872"><ele>183.0</ele><time>2026-05-01T11:15:32.223Z</time></trkpt><trkpt lat="39.2141332" lon="8.7912609"><ele>183.0</ele><time>2026-05-01T11:15:33.223Z</time></trkpt><trkpt lat="39.2140224" lon="8.7911212"><ele>183.0</ele><time>2026-05-01T11:15:34.223Z</time></trkpt><trkpt lat="39.2139306" lon="8.7909832"><ele>183.0</ele><time>2026-05-01T11:15:35.224Z</time></trkpt><trkpt lat="39.2138433" lon="8.790857"><ele>183.0</ele><time>2026-05-01T11:15:36.224Z</time></trkpt><trkpt lat="39.2137287" lon="8.7907721"><ele>184.75</ele><time>2026-05-01T11:15:37.223Z</time></trkpt><trkpt lat="39.2135945" lon="8.7907153"><ele>186.5</ele><time>2026-05-01T11:15:38.224Z</time></trkpt><trkpt lat="39.2134567" lon="8.7906864"><ele>188.25</ele><time>2026-05-01T11:15:39.224Z</time></trkpt><trkpt lat="39.2133209" lon="8.7906725"><ele>190.0</ele><time>2026-05-01T11:15:40.223Z</time></trkpt><trkpt lat="39.2131887" lon="8.7906467"><ele>189.75</ele><time>2026-05-01T11:15:41.224Z</time></trkpt><trkpt lat="39.2130733" lon="8.7905732"><ele>189.5</ele><time>2026-05-01T11:15:42.223Z</time></trkpt><trkpt lat="39.2129841" lon="8.790458"><ele>189.25</ele><time>2026-05-01T11:15:43.224Z</time></trkpt><trkpt lat="39.2129212" lon="8.790302"><ele>189.0</ele><time>2026-05-01T11:15:44.223Z</time></trkpt><trkpt lat="39.2128625" lon="8.7901105"><ele>189.0</ele><time>2026-05-01T11:15:45.223Z</time></trkpt><trkpt lat="39.2128091" lon="8.7899183"><ele>189.0</ele><time>2026-05-01T11:15:46.223Z</time></trkpt><trkpt lat="39.2127743" lon="8.7897248"><ele>189.0</ele><time>2026-05-01T11:15:47.224Z</time></trkpt><trkpt lat="39.2127668" lon="8.7895236"><ele>190.66666666666669</ele><time>2026-05-01T11:15:48.224Z</time></trkpt><trkpt lat="39.2128007" lon="8.7893251"><ele>192.33333333333334</ele><time>2026-05-01T11:15:49.224Z</time></trkpt><trkpt lat="39.2128669" lon="8.7891278"><ele>194.0</ele><time>2026-05-01T11:15:50.223Z</time></trkpt><trkpt lat="39.2129447" lon="8.7889219"><ele>194.0</ele><time>2026-05-01T11:15:51.224Z</time></trkpt><trkpt lat="39.2130305" lon="8.7886986"><ele>194.0</ele><time>2026-05-01T11:15:52.224Z</time></trkpt><trkpt lat="39.2131206" lon="8.7884684"><ele>194.0</ele><time>2026-05-01T11:15:53.224Z</time></trkpt><trkpt lat="39.2132051" lon="8.7882542"><ele>195.0</ele><time>2026-05-01T11:15:54.224Z</time></trkpt><trkpt lat="39.2132948" lon="8.7880487"><ele>196.0</ele><time>2026-05-01T11:15:55.223Z</time></trkpt><trkpt lat="39.2133915" lon="8.7878595"><ele>197.0</ele><time>2026-05-01T11:15:56.223Z</time></trkpt><trkpt lat="39.2134897" lon="8.7876949"><ele>198.39999999999998</ele><time>2026-05-01T11:15:57.224Z</time></trkpt><trkpt lat="39.213581" lon="8.7875507"><ele>199.79999999999998</ele><time>2026-05-01T11:15:58.223Z</time></trkpt><trkpt lat="39.2136403" lon="8.7874246"><ele>201.2</ele><time>2026-05-01T11:15:59.224Z</time></trkpt><trkpt lat="39.2136491" lon="8.7873119"><ele>202.6</ele><time>2026-05-01T11:16:00.224Z</time></trkpt><trkpt lat="39.2136108" lon="8.7872289"><ele>204.0</ele><time>2026-05-01T11:16:01.224Z</time></trkpt><trkpt lat="39.2135381" lon="8.7871959"><ele>204.0</ele><time>2026-05-01T11:16:02.224Z</time></trkpt><trkpt lat="39.2134525" lon="8.7872238"><ele>204.0</ele><time>2026-05-01T11:16:03.223Z</time></trkpt><trkpt lat="39.2133426" lon="8.7872814"><ele>204.0</ele><time>2026-05-01T11:16:04.224Z</time></trkpt><trkpt lat="39.2132014" lon="8.7873253"><ele>204.0</ele><time>2026-05-01T11:16:05.224Z</time></trkpt><trkpt lat="39.2130321" lon="8.787344"><ele>206.33333333333331</ele><time>2026-05-01T11:16:06.224Z</time></trkpt><trkpt lat="39.2128446" lon="8.7873571"><ele>208.66666666666666</ele><time>2026-05-01T11:16:07.224Z</time></trkpt><trkpt lat="39.2126844" lon="8.7873958"><ele>211.0</ele><time>2026-05-01T11:16:08.223Z</time></trkpt><trkpt lat="39.2125444" lon="8.7874654"><ele>211.0</ele><time>2026-05-01T11:16:09.223Z</time></trkpt><trkpt lat="39.2124276" lon="8.787544"><ele>211.0</ele><time>2026-05-01T11:16:10.223Z</time></trkpt><trkpt lat="39.2123284" lon="8.7876102"><ele>211.0</ele><time>2026-05-01T11:16:11.223Z</time></trkpt><trkpt lat="39.2122498" lon="8.7876038"><ele>211.0</ele><time>2026-05-01T11:16:12.224Z</time></trkpt><trkpt lat="39.2121932" lon="8.7874851"><ele>211.0</ele><time>2026-05-01T11:16:14.224Z</time></trkpt><trkpt lat="39.2122258" lon="8.7874099"><ele>211.0</ele><time>2026-05-01T11:16:15.224Z</time></trkpt><trkpt lat="39.2122989" lon="8.7873261"><ele>211.0</ele><time>2026-05-01T11:16:16.223Z</time></trkpt><trkpt lat="39.2124109" lon="8.7872357"><ele>211.0</ele><time>2026-05-01T11:16:17.224Z</time></trkpt><trkpt lat="39.2125568" lon="8.7871368"><ele>211.0</ele><time>2026-05-01T11:16:18.224Z</time></trkpt><trkpt lat="39.2127286" lon="8.7870434"><ele>211.0</ele><time>2026-05-01T11:16:19.224Z</time></trkpt><trkpt lat="39.2129179" lon="8.7869691"><ele>211.0</ele><time>2026-05-01T11:16:20.223Z</time></trkpt><trkpt lat="39.2130829" lon="8.7869136"><ele>211.0</ele><time>2026-05-01T11:16:21.224Z</time></trkpt><trkpt lat="39.2132276" lon="8.786849"><ele>212.75</ele><time>2026-05-01T11:16:22.223Z</time></trkpt><trkpt lat="39.2133334" lon="8.7867615"><ele>214.5</ele><time>2026-05-01T11:16:23.223Z</time></trkpt><trkpt lat="39.213398" lon="8.7866445"><ele>216.25</ele><time>2026-05-01T11:16:24.223Z</time></trkpt><trkpt lat="39.2134128" lon="8.7865013"><ele>218.0</ele><time>2026-05-01T11:16:25.224Z</time></trkpt><trkpt lat="39.213375" lon="8.786355"><ele>218.0</ele><time>2026-05-01T11:16:26.223Z</time></trkpt><trkpt lat="39.2132886" lon="8.7862309"><ele>218.0</ele><time>2026-05-01T11:16:27.223Z</time></trkpt><trkpt lat="39.2131833" lon="8.7861204"><ele>218.0</ele><time>2026-05-01T11:16:28.224Z</time></trkpt><trkpt lat="39.2131176" lon="8.7859894"><ele>218.0</ele><time>2026-05-01T11:16:29.223Z</time></trkpt><trkpt lat="39.2130951" lon="8.7858406"><ele>221.25</ele><time>2026-05-01T11:16:30.223Z</time></trkpt><trkpt lat="39.2131037" lon="8.7856829"><ele>224.5</ele><time>2026-05-01T11:16:31.224Z</time></trkpt><trkpt lat="39.2130954" lon="8.7855293"><ele>227.75</ele><time>2026-05-01T11:16:32.224Z</time></trkpt><trkpt lat="39.2130387" lon="8.7854067"><ele>231.0</ele><time>2026-05-01T11:16:33.224Z</time></trkpt><trkpt lat="39.212947" lon="8.7853126"><ele>231.0</ele><time>2026-05-01T11:16:34.224Z</time></trkpt><trkpt lat="39.2128264" lon="8.7852587"><ele>231.0</ele><time>2026-05-01T11:16:35.224Z</time></trkpt><trkpt lat="39.2126789" lon="8.7852648"><ele>231.0</ele><time>2026-05-01T11:16:36.223Z</time></trkpt><trkpt lat="39.2125169" lon="8.7852986"><ele>231.0</ele><time>2026-05-01T11:16:37.223Z</time></trkpt><trkpt lat="39.2123704" lon="8.7852942"><ele>230.33333333333331</ele><time>2026-05-01T11:16:38.224Z</time></trkpt><trkpt lat="39.2122298" lon="8.7852295"><ele>229.66666666666666</ele><time>2026-05-01T11:16:39.224Z</time></trkpt><trkpt lat="39.2120949" lon="8.7851101"><ele>229.0</ele><time>2026-05-01T11:16:40.223Z</time></trkpt><trkpt lat="39.2119745" lon="8.7849439"><ele>231.33333333333331</ele><time>2026-05-01T11:16:41.223Z</time></trkpt><trkpt lat="39.2118787" lon="8.7847529"><ele>233.66666666666669</ele><time>2026-05-01T11:16:42.224Z</time></trkpt><trkpt lat="39.2118124" lon="8.7845759"><ele>236.0</ele><time>2026-05-01T11:16:43.224Z</time></trkpt><trkpt lat="39.2117868" lon="8.7843898"><ele>238.33333333333334</ele><time>2026-05-01T11:16:44.223Z</time></trkpt><trkpt lat="39.211799" lon="8.7841951"><ele>240.66666666666669</ele><time>2026-05-01T11:16:45.224Z</time></trkpt><trkpt lat="39.2117938" lon="8.7839967"><ele>243.0</ele><time>2026-05-01T11:16:46.223Z</time></trkpt><trkpt lat="39.2117398" lon="8.7838066"><ele>243.0</ele><time>2026-05-01T11:16:47.223Z</time></trkpt><trkpt lat="39.2116477" lon="8.7836135"><ele>243.0</ele><time>2026-05-01T11:16:48.223Z</time></trkpt><trkpt lat="39.2115282" lon="8.783409"><ele>243.0</ele><time>2026-05-01T11:16:49.223Z</time></trkpt><trkpt lat="39.2113942" lon="8.7831967"><ele>245.33333333333331</ele><time>2026-05-01T11:16:50.224Z</time></trkpt><trkpt lat="39.2112677" lon="8.7830124"><ele>247.66666666666666</ele><time>2026-05-01T11:16:51.224Z</time></trkpt><trkpt lat="39.2111333" lon="8.7828797"><ele>250.0</ele><time>2026-05-01T11:16:52.223Z</time></trkpt><trkpt lat="39.2109733" lon="8.782779"><ele>250.0</ele><time>2026-05-01T11:16:53.223Z</time></trkpt><trkpt lat="39.2108038" lon="8.7827018"><ele>250.0</ele><time>2026-05-01T11:16:54.224Z</time></trkpt><trkpt lat="39.2106355" lon="8.7826205"><ele>250.0</ele><time>2026-05-01T11:16:55.223Z</time></trkpt><trkpt lat="39.210473" lon="8.7825285"><ele>252.0</ele><time>2026-05-01T11:16:56.223Z</time></trkpt><trkpt lat="39.2103199" lon="8.7824472"><ele>254.0</ele><time>2026-05-01T11:16:57.223Z</time></trkpt><trkpt lat="39.2101658" lon="8.7824071"><ele>256.0</ele><time>2026-05-01T11:16:58.223Z</time></trkpt><trkpt lat="39.2100165" lon="8.7824188"><ele>256.0</ele><time>2026-05-01T11:16:59.223Z</time></trkpt><trkpt lat="39.2098709" lon="8.7824613"><ele>256.0</ele><time>2026-05-01T11:17:00.224Z</time></trkpt><trkpt lat="39.2097233" lon="8.7824942"><ele>256.0</ele><time>2026-05-01T11:17:01.223Z</time></trkpt><trkpt lat="39.209571" lon="8.78249"><ele>256.66666666666663</ele><time>2026-05-01T11:17:02.224Z</time></trkpt><trkpt lat="39.2094249" lon="8.7824485"><ele>257.3333333333333</ele><time>2026-05-01T11:17:03.224Z</time></trkpt><trkpt lat="39.2092764" lon="8.782365"><ele>258.0</ele><time>2026-05-01T11:17:04.224Z</time></trkpt><trkpt lat="39.2091348" lon="8.7822474"><ele>258.0</ele><time>2026-05-01T11:17:05.223Z</time></trkpt><trkpt lat="39.2089998" lon="8.7821022"><ele>258.0</ele><time>2026-05-01T11:17:06.223Z</time></trkpt><trkpt lat="39.2088659" lon="8.7819406"><ele>258.0</ele><time>2026-05-01T11:17:07.224Z</time></trkpt><trkpt lat="39.2087471" lon="8.781789"><ele>259.5</ele><time>2026-05-01T11:17:08.223Z</time></trkpt><trkpt lat="39.2086587" lon="8.7816346"><ele>261.0</ele><time>2026-05-01T11:17:09.224Z</time></trkpt><trkpt lat="39.2085986" lon="8.7814633"><ele>262.5</ele><time>2026-05-01T11:17:10.224Z</time></trkpt><trkpt lat="39.2085695" lon="8.781284"><ele>264.0</ele><time>2026-05-01T11:17:11.224Z</time></trkpt><trkpt lat="39.2085538" lon="8.7810988"><ele>266.6666666666667</ele><time>2026-05-01T11:17:12.224Z</time></trkpt><trkpt lat="39.2085021" lon="8.7809169"><ele>269.33333333333337</ele><time>2026-05-01T11:17:13.224Z</time></trkpt><trkpt lat="39.2084246" lon="8.7807319"><ele>272.0</ele><time>2026-05-01T11:17:14.224Z</time></trkpt><trkpt lat="39.208329" lon="8.7805551"><ele>272.0</ele><time>2026-05-01T11:17:15.223Z</time></trkpt><trkpt lat="39.2082118" lon="8.7804147"><ele>272.0</ele><time>2026-05-01T11:17:16.223Z</time></trkpt><trkpt lat="39.2080679" lon="8.7803235"><ele>272.0</ele><time>2026-05-01T11:17:17.224Z</time></trkpt><trkpt lat="39.2079068" lon="8.7802303"><ele>273.33333333333337</ele><time>2026-05-01T11:17:18.224Z</time></trkpt><trkpt lat="39.2077483" lon="8.7801136"><ele>274.6666666666667</ele><time>2026-05-01T11:17:19.223Z</time></trkpt><trkpt lat="39.2075931" lon="8.7800018"><ele>276.0</ele><time>2026-05-01T11:17:20.223Z</time></trkpt><trkpt lat="39.2074366" lon="8.7799109"><ele>275.3333333333333</ele><time>2026-05-01T11:17:21.223Z</time></trkpt><trkpt lat="39.20727" lon="8.7798472"><ele>274.66666666666663</ele><time>2026-05-01T11:17:22.223Z</time></trkpt><trkpt lat="39.2071197" lon="8.779801"><ele>274.0</ele><time>2026-05-01T11:17:23.224Z</time></trkpt><trkpt lat="39.2070015" lon="8.7797371"><ele>274.0</ele><time>2026-05-01T11:17:24.224Z</time></trkpt><trkpt lat="39.2069084" lon="8.7796347"><ele>274.0</ele><time>2026-05-01T11:17:25.223Z</time></trkpt><trkpt lat="39.2068447" lon="8.7795029"><ele>274.0</ele><time>2026-05-01T11:17:26.224Z</time></trkpt><trkpt lat="39.2068064" lon="8.7793173"><ele>274.0</ele><time>2026-05-01T11:17:27.224Z</time></trkpt><trkpt lat="39.2067689" lon="8.7790982"><ele>274.3333333333333</ele><time>2026-05-01T11:17:28.223Z</time></trkpt><trkpt lat="39.2067335" lon="8.7788727"><ele>274.6666666666667</ele><time>2026-05-01T11:17:29.224Z</time></trkpt><trkpt lat="39.2067076" lon="8.7786456"><ele>275.0</ele><time>2026-05-01T11:17:30.223Z</time></trkpt><trkpt lat="39.2067036" lon="8.7784405"><ele>275.5</ele><time>2026-05-01T11:17:31.224Z</time></trkpt><trkpt lat="39.2067028" lon="8.7782485"><ele>276.0</ele><time>2026-05-01T11:17:32.223Z</time></trkpt><trkpt lat="39.2066778" lon="8.7780616"><ele>276.5</ele><time>2026-05-01T11:17:33.223Z</time></trkpt><trkpt lat="39.2066175" lon="8.7778827"><ele>277.0</ele><time>2026-05-01T11:17:34.224Z</time></trkpt><trkpt lat="39.2065243" lon="8.7777167"><ele>279.66666666666663</ele><time>2026-05-01T11:17:35.223Z</time></trkpt><trkpt lat="39.2064065" lon="8.7775565"><ele>282.3333333333333</ele><time>2026-05-01T11:17:36.224Z</time></trkpt><trkpt lat="39.2062907" lon="8.7773967"><ele>285.0</ele><time>2026-05-01T11:17:37.223Z</time></trkpt><trkpt lat="39.2062013" lon="8.7772299"><ele>285.0</ele><time>2026-05-01T11:17:38.224Z</time></trkpt><trkpt lat="39.2061278" lon="8.7770497"><ele>285.0</ele><time>2026-05-01T11:17:39.223Z</time></trkpt><trkpt lat="39.2060519" lon="8.7768732"><ele>285.0</ele><time>2026-05-01T11:17:40.223Z</time></trkpt><trkpt lat="39.205954" lon="8.7767146"><ele>286.3333333333333</ele><time>2026-05-01T11:17:41.224Z</time></trkpt><trkpt lat="39.2058278" lon="8.7765824"><ele>287.66666666666663</ele><time>2026-05-01T11:17:42.224Z</time></trkpt><trkpt lat="39.2056842" lon="8.7764659"><ele>289.0</ele><time>2026-05-01T11:17:43.223Z</time></trkpt><trkpt lat="39.2055281" lon="8.7763524"><ele>289.0</ele><time>2026-05-01T11:17:44.223Z</time></trkpt><trkpt lat="39.2053734" lon="8.7762332"><ele>289.0</ele><time>2026-05-01T11:17:45.224Z</time></trkpt><trkpt lat="39.205216" lon="8.7761101"><ele>289.0</ele><time>2026-05-01T11:17:46.223Z</time></trkpt><trkpt lat="39.2050523" lon="8.7759873"><ele>288.0</ele><time>2026-05-01T11:17:47.224Z</time></trkpt><trkpt lat="39.2048848" lon="8.7758658"><ele>287.0</ele><time>2026-05-01T11:17:48.224Z</time></trkpt><trkpt lat="39.2047167" lon="8.7757391"><ele>286.0</ele><time>2026-05-01T11:17:49.223Z</time></trkpt><trkpt lat="39.2045471" lon="8.7756088"><ele>286.0</ele><time>2026-05-01T11:17:50.224Z</time></trkpt><trkpt lat="39.2043749" lon="8.7754755"><ele>286.0</ele><time>2026-05-01T11:17:51.224Z</time></trkpt><trkpt lat="39.2042028" lon="8.7753399"><ele>286.0</ele><time>2026-05-01T11:17:52.224Z</time></trkpt><trkpt lat="39.2040292" lon="8.7751996"><ele>284.66666666666663</ele><time>2026-05-01T11:17:53.224Z</time></trkpt><trkpt lat="39.203855" lon="8.7750572"><ele>283.3333333333333</ele><time>2026-05-01T11:17:54.223Z</time></trkpt><trkpt lat="39.2036793" lon="8.7749144"><ele>282.0</ele><time>2026-05-01T11:17:55.223Z</time></trkpt><trkpt lat="39.2035033" lon="8.7747699"><ele>282.0</ele><time>2026-05-01T11:17:56.224Z</time></trkpt><trkpt lat="39.203326" lon="8.7746229"><ele>282.0</ele><time>2026-05-01T11:17:57.224Z</time></trkpt><trkpt lat="39.2031477" lon="8.7744737"><ele>282.0</ele><time>2026-05-01T11:17:58.224Z</time></trkpt><trkpt lat="39.202969" lon="8.7743219"><ele>282.6666666666667</ele><time>2026-05-01T11:17:59.224Z</time></trkpt><trkpt lat="39.2027879" lon="8.7741695"><ele>283.33333333333337</ele><time>2026-05-01T11:18:00.223Z</time></trkpt><trkpt lat="39.202604" lon="8.7740152"><ele>284.0</ele><time>2026-05-01T11:18:01.223Z</time></trkpt><trkpt lat="39.2024181" lon="8.7738616"><ele>285.6666666666667</ele><time>2026-05-01T11:18:02.223Z</time></trkpt><trkpt lat="39.2022359" lon="8.7737111"><ele>287.3333333333333</ele><time>2026-05-01T11:18:03.224Z</time></trkpt><trkpt lat="39.2020669" lon="8.7735707"><ele>289.0</ele><time>2026-05-01T11:18:04.224Z</time></trkpt><trkpt lat="39.2019072" lon="8.773437"><ele>289.0</ele><time>2026-05-01T11:18:05.223Z</time></trkpt><trkpt lat="39.2017523" lon="8.7733062"><ele>289.0</ele><time>2026-05-01T11:18:06.223Z</time></trkpt><trkpt lat="39.2015992" lon="8.7731809"><ele>289.0</ele><time>2026-05-01T11:18:07.223Z</time></trkpt><trkpt lat="39.2014494" lon="8.7730583"><ele>289.3333333333333</ele><time>2026-05-01T11:18:08.224Z</time></trkpt><trkpt lat="39.2012989" lon="8.7729346"><ele>289.6666666666667</ele><time>2026-05-01T11:18:09.223Z</time></trkpt><trkpt lat="39.2011463" lon="8.7728081"><ele>290.0</ele><time>2026-05-01T11:18:10.224Z</time></trkpt><trkpt lat="39.2009883" lon="8.7726801"><ele>290.0</ele><time>2026-05-01T11:18:11.224Z</time></trkpt><trkpt lat="39.2008261" lon="8.7725475"><ele>290.0</ele><time>2026-05-01T11:18:12.223Z</time></trkpt><trkpt lat="39.2006608" lon="8.7724093"><ele>290.0</ele><time>2026-05-01T11:18:13.224Z</time></trkpt><trkpt lat="39.2004925" lon="8.7722679"><ele>290.0</ele><time>2026-05-01T11:18:14.223Z</time></trkpt><trkpt lat="39.2003225" lon="8.7721274"><ele>290.0</ele><time>2026-05-01T11:18:15.223Z</time></trkpt><trkpt lat="39.2001626" lon="8.7719883"><ele>290.0</ele><time>2026-05-01T11:18:16.224Z</time></trkpt><trkpt lat="39.2000038" lon="8.771839"><ele>289.6666666666667</ele><time>2026-05-01T11:18:17.224Z</time></trkpt><trkpt lat="39.1998505" lon="8.7716795"><ele>289.3333333333333</ele><time>2026-05-01T11:18:18.224Z</time></trkpt><trkpt lat="39.1997008" lon="8.7715091"><ele>289.0</ele><time>2026-05-01T11:18:19.224Z</time></trkpt><trkpt lat="39.1995533" lon="8.7713342"><ele>289.0</ele><time>2026-05-01T11:18:20.223Z</time></trkpt><trkpt lat="39.1994116" lon="8.7711645"><ele>289.0</ele><time>2026-05-01T11:18:21.223Z</time></trkpt><trkpt lat="39.199278" lon="8.7709997"><ele>289.0</ele><time>2026-05-01T11:18:22.223Z</time></trkpt><trkpt lat="39.1991531" lon="8.7708444"><ele>289.66666666666663</ele><time>2026-05-01T11:18:23.223Z</time></trkpt><trkpt lat="39.1990315" lon="8.7707047"><ele>290.3333333333333</ele><time>2026-05-01T11:18:24.223Z</time></trkpt><trkpt lat="39.1989066" lon="8.7705832"><ele>291.0</ele><time>2026-05-01T11:18:25.223Z</time></trkpt><trkpt lat="39.1987662" lon="8.7705009"><ele>288.6666666666667</ele><time>2026-05-01T11:18:26.224Z</time></trkpt><trkpt lat="39.1986108" lon="8.7704541"><ele>286.33333333333337</ele><time>2026-05-01T11:18:27.223Z</time></trkpt><trkpt lat="39.198441" lon="8.770427"><ele>284.0</ele><time>2026-05-01T11:18:28.223Z</time></trkpt><trkpt lat="39.1982636" lon="8.7704024"><ele>282.0</ele><time>2026-05-01T11:18:29.224Z</time></trkpt><trkpt lat="39.1980964" lon="8.770376"><ele>280.0</ele><time>2026-05-01T11:18:30.223Z</time></trkpt><trkpt lat="39.197945" lon="8.7703569"><ele>278.0</ele><time>2026-05-01T11:18:31.223Z</time></trkpt><trkpt lat="39.1978052" lon="8.7703691"><ele>278.0</ele><time>2026-05-01T11:18:32.224Z</time></trkpt><trkpt lat="39.1976837" lon="8.7704455"><ele>278.0</ele><time>2026-05-01T11:18:33.224Z</time></trkpt><trkpt lat="39.1975793" lon="8.7705689"><ele>278.0</ele><time>2026-05-01T11:18:34.223Z</time></trkpt><trkpt lat="39.197495" lon="8.7707041"><ele>278.0</ele><time>2026-05-01T11:18:35.223Z</time></trkpt><trkpt lat="39.1974095" lon="8.7708052"><ele>276.4</ele><time>2026-05-01T11:18:36.224Z</time></trkpt><trkpt lat="39.1973098" lon="8.7708474"><ele>274.8</ele><time>2026-05-01T11:18:37.223Z</time></trkpt><trkpt lat="39.1972143" lon="8.7708282"><ele>273.2</ele><time>2026-05-01T11:18:38.224Z</time></trkpt><trkpt lat="39.1971333" lon="8.7707488"><ele>271.6</ele><time>2026-05-01T11:18:39.223Z</time></trkpt><trkpt lat="39.1970554" lon="8.7706227"><ele>270.0</ele><time>2026-05-01T11:18:40.223Z</time></trkpt><trkpt lat="39.1969612" lon="8.7704749"><ele>270.0</ele><time>2026-05-01T11:18:41.224Z</time></trkpt><trkpt lat="39.1968351" lon="8.7703427"><ele>270.0</ele><time>2026-05-01T11:18:42.223Z</time></trkpt><trkpt lat="39.19667" lon="8.7702258"><ele>270.0</ele><time>2026-05-01T11:18:43.223Z</time></trkpt><trkpt lat="39.1964953" lon="8.7701148"><ele>272.6666666666667</ele><time>2026-05-01T11:18:44.224Z</time></trkpt><trkpt lat="39.1963376" lon="8.7700141"><ele>275.33333333333337</ele><time>2026-05-01T11:18:45.223Z</time></trkpt><trkpt lat="39.1961873" lon="8.7699439"><ele>278.0</ele><time>2026-05-01T11:18:46.223Z</time></trkpt><trkpt lat="39.1960278" lon="8.7699386"><ele>278.0</ele><time>2026-05-01T11:18:47.224Z</time></trkpt><trkpt lat="39.1958583" lon="8.7699829"><ele>278.0</ele><time>2026-05-01T11:18:48.224Z</time></trkpt><trkpt lat="39.1956822" lon="8.7700756"><ele>278.0</ele><time>2026-05-01T11:18:49.223Z</time></trkpt><trkpt lat="39.1955346" lon="8.770167"><ele>278.25</ele><time>2026-05-01T11:18:50.223Z</time></trkpt><trkpt lat="39.195404" lon="8.7702349"><ele>278.5</ele><time>2026-05-01T11:18:51.224Z</time></trkpt><trkpt lat="39.1952704" lon="8.7702349"><ele>278.75</ele><time>2026-05-01T11:18:52.223Z</time></trkpt><trkpt lat="39.1951292" lon="8.7701894"><ele>279.0</ele><time>2026-05-01T11:18:53.224Z</time></trkpt><trkpt lat="39.1949855" lon="8.7701479"><ele>279.0</ele><time>2026-05-01T11:18:54.224Z</time></trkpt><trkpt lat="39.1948563" lon="8.7701669"><ele>279.0</ele><time>2026-05-01T11:18:55.224Z</time></trkpt><trkpt lat="39.1947544" lon="8.7702352"><ele>279.0</ele><time>2026-05-01T11:18:56.224Z</time></trkpt><trkpt lat="39.1946814" lon="8.7703584"><ele>279.0</ele><time>2026-05-01T11:18:57.223Z</time></trkpt><trkpt lat="39.1946382" lon="8.770523"><ele>276.25</ele><time>2026-05-01T11:18:58.224Z</time></trkpt><trkpt lat="39.1946108" lon="8.7707034"><ele>273.5</ele><time>2026-05-01T11:18:59.223Z</time></trkpt><trkpt lat="39.1945568" lon="8.7708329"><ele>270.75</ele><time>2026-05-01T11:19:00.223Z</time></trkpt><trkpt lat="39.194473" lon="8.7709289"><ele>268.0</ele><time>2026-05-01T11:19:01.224Z</time></trkpt><trkpt lat="39.1943488" lon="8.7710136"><ele>264.75</ele><time>2026-05-01T11:19:02.223Z</time></trkpt><trkpt lat="39.1942072" lon="8.7710807"><ele>261.5</ele><time>2026-05-01T11:19:03.223Z</time></trkpt><trkpt lat="39.1940737" lon="8.7711233"><ele>258.25</ele><time>2026-05-01T11:19:04.224Z</time></trkpt><trkpt lat="39.1939403" lon="8.7711461"><ele>255.0</ele><time>2026-05-01T11:19:05.223Z</time></trkpt><trkpt lat="39.1938184" lon="8.7711482"><ele>254.5</ele><time>2026-05-01T11:19:06.224Z</time></trkpt><trkpt lat="39.1937044" lon="8.7711063"><ele>254.0</ele><time>2026-05-01T11:19:07.224Z</time></trkpt><trkpt lat="39.1935786" lon="8.7710267"><ele>253.5</ele><time>2026-05-01T11:19:08.224Z</time></trkpt><trkpt lat="39.193452" lon="8.770934"><ele>253.0</ele><time>2026-05-01T11:19:09.224Z</time></trkpt><trkpt lat="39.1933134" lon="8.7708603"><ele>253.0</ele><time>2026-05-01T11:19:10.224Z</time></trkpt><trkpt lat="39.1931782" lon="8.7708212"><ele>253.0</ele><time>2026-05-01T11:19:11.224Z</time></trkpt><trkpt lat="39.1930494" lon="8.7707806"><ele>253.0</ele><time>2026-05-01T11:19:12.223Z</time></trkpt><trkpt lat="39.1929345" lon="8.7707064"><ele>253.0</ele><time>2026-05-01T11:19:13.223Z</time></trkpt><trkpt lat="39.1928349" lon="8.7705884"><ele>253.0</ele><time>2026-05-01T11:19:14.223Z</time></trkpt><trkpt lat="39.192753" lon="8.7704357"><ele>253.0</ele><time>2026-05-01T11:19:15.224Z</time></trkpt><trkpt lat="39.1926732" lon="8.7702619"><ele>253.0</ele><time>2026-05-01T11:19:16.224Z</time></trkpt><trkpt lat="39.1925769" lon="8.7700827"><ele>256.66666666666663</ele><time>2026-05-01T11:19:17.223Z</time></trkpt><trkpt lat="39.1924673" lon="8.7699167"><ele>260.3333333333333</ele><time>2026-05-01T11:19:18.224Z</time></trkpt><trkpt lat="39.1923396" lon="8.7697862"><ele>264.0</ele><time>2026-05-01T11:19:19.224Z</time></trkpt><trkpt lat="39.192186" lon="8.769694"><ele>264.6666666666667</ele><time>2026-05-01T11:19:20.224Z</time></trkpt><trkpt lat="39.1920176" lon="8.7696466"><ele>265.33333333333337</ele><time>2026-05-01T11:19:21.223Z</time></trkpt><trkpt lat="39.1918445" lon="8.7696499"><ele>266.0</ele><time>2026-05-01T11:19:22.223Z</time></trkpt><trkpt lat="39.1916815" lon="8.7696903"><ele>266.0</ele><time>2026-05-01T11:19:23.224Z</time></trkpt><trkpt lat="39.1915457" lon="8.7697179"><ele>266.0</ele><time>2026-05-01T11:19:24.224Z</time></trkpt><trkpt lat="39.1914283" lon="8.7697217"><ele>266.0</ele><time>2026-05-01T11:19:25.224Z</time></trkpt><trkpt lat="39.1913186" lon="8.769717"><ele>266.0</ele><time>2026-05-01T11:19:26.224Z</time></trkpt><trkpt lat="39.1912125" lon="8.7697056"><ele>264.75</ele><time>2026-05-01T11:19:27.224Z</time></trkpt><trkpt lat="39.1911045" lon="8.769692"><ele>263.5</ele><time>2026-05-01T11:19:28.223Z</time></trkpt><trkpt lat="39.1909898" lon="8.7696796"><ele>262.25</ele><time>2026-05-01T11:19:29.224Z</time></trkpt><trkpt lat="39.1908706" lon="8.7696671"><ele>261.0</ele><time>2026-05-01T11:19:30.224Z</time></trkpt><trkpt lat="39.1907471" lon="8.769653"><ele>258.5</ele><time>2026-05-01T11:19:31.223Z</time></trkpt><trkpt lat="39.1906202" lon="8.7696335"><ele>256.0</ele><time>2026-05-01T11:19:32.224Z</time></trkpt><trkpt lat="39.1904935" lon="8.7695935"><ele>253.5</ele><time>2026-05-01T11:19:33.224Z</time></trkpt><trkpt lat="39.1903709" lon="8.7695232"><ele>251.0</ele><time>2026-05-01T11:19:34.224Z</time></trkpt><trkpt lat="39.1902599" lon="8.7694134"><ele>256.0</ele><time>2026-05-01T11:19:35.224Z</time></trkpt><trkpt lat="39.1901659" lon="8.7692647"><ele>261.0</ele><time>2026-05-01T11:19:36.224Z</time></trkpt><trkpt lat="39.1900894" lon="8.769097"><ele>266.0</ele><time>2026-05-01T11:19:37.224Z</time></trkpt><trkpt lat="39.1900288" lon="8.7689027"><ele>266.0</ele><time>2026-05-01T11:19:38.224Z</time></trkpt><trkpt lat="39.1899775" lon="8.7687181"><ele>266.0</ele><time>2026-05-01T11:19:39.224Z</time></trkpt><trkpt lat="39.1899164" lon="8.7685423"><ele>266.0</ele><time>2026-05-01T11:19:40.224Z</time></trkpt><trkpt lat="39.1898257" lon="8.7683791"><ele>264.0</ele><time>2026-05-01T11:19:41.224Z</time></trkpt><trkpt lat="39.1897082" lon="8.7682368"><ele>262.0</ele><time>2026-05-01T11:19:42.224Z</time></trkpt><trkpt lat="39.1895829" lon="8.7681056"><ele>260.0</ele><time>2026-05-01T11:19:43.224Z</time></trkpt><trkpt lat="39.189477" lon="8.767966"><ele>260.0</ele><time>2026-05-01T11:19:44.223Z</time></trkpt><trkpt lat="39.1893937" lon="8.7678011"><ele>260.0</ele><time>2026-05-01T11:19:45.223Z</time></trkpt><trkpt lat="39.1893435" lon="8.7676175"><ele>260.0</ele><time>2026-05-01T11:19:46.224Z</time></trkpt><trkpt lat="39.1893159" lon="8.7674137"><ele>259.6666666666667</ele><time>2026-05-01T11:19:47.223Z</time></trkpt><trkpt lat="39.1892953" lon="8.7671966"><ele>259.3333333333333</ele><time>2026-05-01T11:19:48.223Z</time></trkpt><trkpt lat="39.1892834" lon="8.7669744"><ele>259.0</ele><time>2026-05-01T11:19:49.223Z</time></trkpt><trkpt lat="39.1892699" lon="8.7667553"><ele>259.0</ele><time>2026-05-01T11:19:50.223Z</time></trkpt><trkpt lat="39.1892474" lon="8.7665453"><ele>259.0</ele><time>2026-05-01T11:19:51.223Z</time></trkpt><trkpt lat="39.1892151" lon="8.7663467"><ele>259.0</ele><time>2026-05-01T11:19:52.224Z</time></trkpt><trkpt lat="39.1891825" lon="8.7661567"><ele>258.0</ele><time>2026-05-01T11:19:53.223Z</time></trkpt><trkpt lat="39.1891548" lon="8.765972"><ele>257.0</ele><time>2026-05-01T11:19:54.223Z</time></trkpt><trkpt lat="39.1891281" lon="8.765799"><ele>256.0</ele><time>2026-05-01T11:19:55.223Z</time></trkpt><trkpt lat="39.1891" lon="8.7656331"><ele>255.0</ele><time>2026-05-01T11:19:56.223Z</time></trkpt><trkpt lat="39.1890731" lon="8.7654719"><ele>255.0</ele><time>2026-05-01T11:19:57.224Z</time></trkpt><trkpt lat="39.1890528" lon="8.765313"><ele>255.0</ele><time>2026-05-01T11:19:58.224Z</time></trkpt><trkpt lat="39.1890319" lon="8.7651572"><ele>255.0</ele><time>2026-05-01T11:19:59.223Z</time></trkpt><trkpt lat="39.1890138" lon="8.7650047"><ele>255.0</ele><time>2026-05-01T11:20:00.224Z</time></trkpt><trkpt lat="39.1890042" lon="8.7648543"><ele>254.0</ele><time>2026-05-01T11:20:01.224Z</time></trkpt><trkpt lat="39.18901" lon="8.7647066"><ele>253.0</ele><time>2026-05-01T11:20:02.224Z</time></trkpt><trkpt lat="39.1890302" lon="8.7645611"><ele>252.0</ele><time>2026-05-01T11:20:03.223Z</time></trkpt><trkpt lat="39.189066" lon="8.7644167"><ele>251.0</ele><time>2026-05-01T11:20:04.223Z</time></trkpt><trkpt lat="39.1891133" lon="8.7642713"><ele>248.75</ele><time>2026-05-01T11:20:05.223Z</time></trkpt><trkpt lat="39.1891677" lon="8.7641239"><ele>246.5</ele><time>2026-05-01T11:20:06.224Z</time></trkpt><trkpt lat="39.189221" lon="8.7639655"><ele>244.25</ele><time>2026-05-01T11:20:07.224Z</time></trkpt><trkpt lat="39.1892635" lon="8.7638045"><ele>242.0</ele><time>2026-05-01T11:20:08.223Z</time></trkpt><trkpt lat="39.1892932" lon="8.7636447"><ele>240.5</ele><time>2026-05-01T11:20:09.224Z</time></trkpt><trkpt lat="39.1893161" lon="8.7634811"><ele>239.0</ele><time>2026-05-01T11:20:10.224Z</time></trkpt><trkpt lat="39.1893336" lon="8.763315"><ele>237.5</ele><time>2026-05-01T11:20:11.224Z</time></trkpt><trkpt lat="39.1893444" lon="8.7631509"><ele>236.0</ele><time>2026-05-01T11:20:12.223Z</time></trkpt><trkpt lat="39.189347" lon="8.7629913"><ele>236.0</ele><time>2026-05-01T11:20:13.224Z</time></trkpt><trkpt lat="39.189336" lon="8.762837"><ele>236.0</ele><time>2026-05-01T11:20:14.224Z</time></trkpt><trkpt lat="39.1893154" lon="8.7626883"><ele>236.0</ele><time>2026-05-01T11:20:15.224Z</time></trkpt><trkpt lat="39.1892856" lon="8.7625405"><ele>236.0</ele><time>2026-05-01T11:20:16.224Z</time></trkpt><trkpt lat="39.1892535" lon="8.7624005"><ele>236.25</ele><time>2026-05-01T11:20:17.224Z</time></trkpt><trkpt lat="39.1892146" lon="8.7622625"><ele>236.5</ele><time>2026-05-01T11:20:18.223Z</time></trkpt><trkpt lat="39.1891742" lon="8.7621327"><ele>236.75</ele><time>2026-05-01T11:20:19.223Z</time></trkpt><trkpt lat="39.189131" lon="8.7619957"><ele>237.0</ele><time>2026-05-01T11:20:20.224Z</time></trkpt><trkpt lat="39.1890845" lon="8.7618571"><ele>237.0</ele><time>2026-05-01T11:20:21.224Z</time></trkpt><trkpt lat="39.1890331" lon="8.7617084"><ele>237.0</ele><time>2026-05-01T11:20:22.224Z</time></trkpt><trkpt lat="39.1889804" lon="8.7615523"><ele>237.0</ele><time>2026-05-01T11:20:23.223Z</time></trkpt><trkpt lat="39.1889259" lon="8.7613904"><ele>237.0</ele><time>2026-05-01T11:20:24.224Z</time></trkpt><trkpt lat="39.1888724" lon="8.7612305"><ele>231.5</ele><time>2026-05-01T11:20:25.224Z</time></trkpt><trkpt lat="39.1888199" lon="8.7610768"><ele>226.0</ele><time>2026-05-01T11:20:26.223Z</time></trkpt><trkpt lat="39.1887679" lon="8.7609298"><ele>220.5</ele><time>2026-05-01T11:20:27.224Z</time></trkpt><trkpt lat="39.188715" lon="8.7607909"><ele>215.0</ele><time>2026-05-01T11:20:28.224Z</time></trkpt><trkpt lat="39.1886516" lon="8.7606697"><ele>215.0</ele><time>2026-05-01T11:20:29.223Z</time></trkpt><trkpt lat="39.1885853" lon="8.7605518"><ele>215.0</ele><time>2026-05-01T11:20:30.224Z</time></trkpt><trkpt lat="39.1885125" lon="8.7604511"><ele>215.0</ele><time>2026-05-01T11:20:31.223Z</time></trkpt><trkpt lat="39.1884368" lon="8.7603609"><ele>215.0</ele><time>2026-05-01T11:20:32.223Z</time></trkpt><trkpt lat="39.188355" lon="8.7602852"><ele>215.0</ele><time>2026-05-01T11:20:33.223Z</time></trkpt><trkpt lat="39.1882719" lon="8.7602198"><ele>215.4</ele><time>2026-05-01T11:20:34.224Z</time></trkpt><trkpt lat="39.1881824" lon="8.7601654"><ele>215.8</ele><time>2026-05-01T11:20:35.223Z</time></trkpt><trkpt lat="39.188094" lon="8.7601155"><ele>216.2</ele><time>2026-05-01T11:20:36.224Z</time></trkpt><trkpt lat="39.1880018" lon="8.760067"><ele>216.6</ele><time>2026-05-01T11:20:37.224Z</time></trkpt><trkpt lat="39.1879074" lon="8.760022"><ele>217.0</ele><time>2026-05-01T11:20:38.224Z</time></trkpt><trkpt lat="39.1878101" lon="8.7599734"><ele>215.39999999999998</ele><time>2026-05-01T11:20:39.224Z</time></trkpt><trkpt lat="39.187713" lon="8.7599267"><ele>213.79999999999998</ele><time>2026-05-01T11:20:40.224Z</time></trkpt><trkpt lat="39.1876117" lon="8.759876"><ele>212.2</ele><time>2026-05-01T11:20:41.224Z</time></trkpt><trkpt lat="39.1875088" lon="8.7598258"><ele>210.6</ele><time>2026-05-01T11:20:42.224Z</time></trkpt><trkpt lat="39.1874033" lon="8.7597746"><ele>209.0</ele><time>2026-05-01T11:20:43.223Z</time></trkpt><trkpt lat="39.1872939" lon="8.7597213"><ele>213.0</ele><time>2026-05-01T11:20:44.223Z</time></trkpt><trkpt lat="39.1871836" lon="8.7596633"><ele>217.0</ele><time>2026-05-01T11:20:45.223Z</time></trkpt><trkpt lat="39.1870741" lon="8.759605"><ele>221.0</ele><time>2026-05-01T11:20:46.223Z</time></trkpt><trkpt lat="39.1869618" lon="8.7595478"><ele>225.0</ele><time>2026-05-01T11:20:47.224Z</time></trkpt><trkpt lat="39.1868441" lon="8.7595108"><ele>225.0</ele><time>2026-05-01T11:20:48.224Z</time></trkpt><trkpt lat="39.1867261" lon="8.7595102"><ele>225.0</ele><time>2026-05-01T11:20:49.224Z</time></trkpt><trkpt lat="39.1866117" lon="8.75955"><ele>225.0</ele><time>2026-05-01T11:20:50.223Z</time></trkpt><trkpt lat="39.1865129" lon="8.7596146"><ele>225.0</ele><time>2026-05-01T11:20:51.223Z</time></trkpt><trkpt lat="39.1864171" lon="8.7596855"><ele>227.4</ele><time>2026-05-01T11:20:52.223Z</time></trkpt><trkpt lat="39.1863211" lon="8.759723"><ele>229.8</ele><time>2026-05-01T11:20:53.224Z</time></trkpt><trkpt lat="39.1862214" lon="8.7597239"><ele>232.2</ele><time>2026-05-01T11:20:54.224Z</time></trkpt><trkpt lat="39.186128" lon="8.759682"><ele>234.6</ele><time>2026-05-01T11:20:55.223Z</time></trkpt><trkpt lat="39.1860503" lon="8.759605"><ele>237.0</ele><time>2026-05-01T11:20:56.224Z</time></trkpt><trkpt lat="39.1859783" lon="8.7595134"><ele>237.0</ele><time>2026-05-01T11:20:57.224Z</time></trkpt><trkpt lat="39.1858972" lon="8.759423"><ele>237.0</ele><time>2026-05-01T11:20:58.224Z</time></trkpt><trkpt lat="39.185802" lon="8.7593505"><ele>237.0</ele><time>2026-05-01T11:20:59.223Z</time></trkpt><trkpt lat="39.1856976" lon="8.7592934"><ele>237.0</ele><time>2026-05-01T11:21:00.224Z</time></trkpt><trkpt lat="39.1855891" lon="8.759269"><ele>237.0</ele><time>2026-05-01T11:21:01.223Z</time></trkpt><trkpt lat="39.1854712" lon="8.7592798"><ele>235.5</ele><time>2026-05-01T11:21:02.223Z</time></trkpt><trkpt lat="39.1853552" lon="8.7593222"><ele>234.0</ele><time>2026-05-01T11:21:03.223Z</time></trkpt><trkpt lat="39.1852394" lon="8.7593842"><ele>232.5</ele><time>2026-05-01T11:21:04.224Z</time></trkpt><trkpt lat="39.1851225" lon="8.7594498"><ele>231.0</ele><time>2026-05-01T11:21:05.224Z</time></trkpt><trkpt lat="39.1850007" lon="8.7595074"><ele>233.75</ele><time>2026-05-01T11:21:06.224Z</time></trkpt><trkpt lat="39.1848763" lon="8.7595681"><ele>236.5</ele><time>2026-05-01T11:21:07.224Z</time></trkpt><trkpt lat="39.1847593" lon="8.7596555"><ele>239.25</ele><time>2026-05-01T11:21:08.223Z</time></trkpt><trkpt lat="39.1846473" lon="8.7597579"><ele>242.0</ele><time>2026-05-01T11:21:09.223Z</time></trkpt><trkpt lat="39.1845372" lon="8.7598745"><ele>242.0</ele><time>2026-05-01T11:21:10.223Z</time></trkpt><trkpt lat="39.1844292" lon="8.759998"><ele>242.0</ele><time>2026-05-01T11:21:11.223Z</time></trkpt><trkpt lat="39.1843289" lon="8.7601303"><ele>242.0</ele><time>2026-05-01T11:21:12.224Z</time></trkpt><trkpt lat="39.184249" lon="8.760267"><ele>242.0</ele><time>2026-05-01T11:21:13.224Z</time></trkpt><trkpt lat="39.1841972" lon="8.7604105"><ele>244.0</ele><time>2026-05-01T11:21:14.223Z</time></trkpt><trkpt lat="39.1841621" lon="8.7605616"><ele>246.0</ele><time>2026-05-01T11:21:15.223Z</time></trkpt><trkpt lat="39.1841232" lon="8.7606959"><ele>248.0</ele><time>2026-05-01T11:21:16.223Z</time></trkpt><trkpt lat="39.1840585" lon="8.7607856"><ele>250.0</ele><time>2026-05-01T11:21:17.224Z</time></trkpt><trkpt lat="39.1839811" lon="8.7608248"><ele>252.0</ele><time>2026-05-01T11:21:18.224Z</time></trkpt><trkpt lat="39.1839001" lon="8.7608154"><ele>252.39999999999998</ele><time>2026-05-01T11:21:19.223Z</time></trkpt><trkpt lat="39.1838137" lon="8.7607658"><ele>252.79999999999998</ele><time>2026-05-01T11:21:20.224Z</time></trkpt><trkpt lat="39.1837145" lon="8.7607103"><ele>253.2</ele><time>2026-05-01T11:21:21.223Z</time></trkpt><trkpt lat="39.1836038" lon="8.7607083"><ele>253.6</ele><time>2026-05-01T11:21:22.223Z</time></trkpt><trkpt lat="39.1834893" lon="8.7607562"><ele>254.0</ele><time>2026-05-01T11:21:23.223Z</time></trkpt><trkpt lat="39.1833687" lon="8.7608083"><ele>254.0</ele><time>2026-05-01T11:21:24.223Z</time></trkpt><trkpt lat="39.1832335" lon="8.7608033"><ele>254.0</ele><time>2026-05-01T11:21:25.223Z</time></trkpt><trkpt lat="39.1830821" lon="8.7607539"><ele>254.0</ele><time>2026-05-01T11:21:26.223Z</time></trkpt><trkpt lat="39.1829299" lon="8.7607011"><ele>254.0</ele><time>2026-05-01T11:21:27.223Z</time></trkpt><trkpt lat="39.1827774" lon="8.7606761"><ele>255.0</ele><time>2026-05-01T11:21:28.224Z</time></trkpt><trkpt lat="39.1826273" lon="8.7606762"><ele>256.0</ele><time>2026-05-01T11:21:29.223Z</time></trkpt><trkpt lat="39.1824895" lon="8.7607002"><ele>257.0</ele><time>2026-05-01T11:21:30.224Z</time></trkpt><trkpt lat="39.1823496" lon="8.7607649"><ele>258.0</ele><time>2026-05-01T11:21:31.224Z</time></trkpt><trkpt lat="39.1822158" lon="8.7608806"><ele>255.33333333333331</ele><time>2026-05-01T11:21:32.224Z</time></trkpt><trkpt lat="39.1820775" lon="8.7610285"><ele>252.66666666666666</ele><time>2026-05-01T11:21:33.224Z</time></trkpt><trkpt lat="39.1819404" lon="8.7612022"><ele>250.0</ele><time>2026-05-01T11:21:34.223Z</time></trkpt><trkpt lat="39.1818267" lon="8.7613554"><ele>249.5</ele><time>2026-05-01T11:21:35.223Z</time></trkpt><trkpt lat="39.181741" lon="8.7614973"><ele>249.0</ele><time>2026-05-01T11:21:36.223Z</time></trkpt><trkpt lat="39.1816894" lon="8.761642"><ele>248.5</ele><time>2026-05-01T11:21:37.224Z</time></trkpt><trkpt lat="39.1816903" lon="8.76178"><ele>248.0</ele><time>2026-05-01T11:21:38.223Z</time></trkpt><trkpt lat="39.1817187" lon="8.7619039"><ele>248.66666666666669</ele><time>2026-05-01T11:21:39.224Z</time></trkpt><trkpt lat="39.1817285" lon="8.7620169"><ele>249.33333333333334</ele><time>2026-05-01T11:21:40.224Z</time></trkpt><trkpt lat="39.1816868" lon="8.7621023"><ele>250.0</ele><time>2026-05-01T11:21:41.224Z</time></trkpt><trkpt lat="39.1816168" lon="8.7621298"><ele>250.66666666666669</ele><time>2026-05-01T11:21:42.223Z</time></trkpt><trkpt lat="39.1815324" lon="8.7621081"><ele>251.33333333333334</ele><time>2026-05-01T11:21:43.223Z</time></trkpt><trkpt lat="39.1814287" lon="8.7620743"><ele>252.0</ele><time>2026-05-01T11:21:44.224Z</time></trkpt><trkpt lat="39.181303" lon="8.7620903"><ele>249.0</ele><time>2026-05-01T11:21:45.224Z</time></trkpt><trkpt lat="39.1811696" lon="8.7621615"><ele>246.0</ele><time>2026-05-01T11:21:46.224Z</time></trkpt><trkpt lat="39.1810475" lon="8.7622834"><ele>243.0</ele><time>2026-05-01T11:21:47.223Z</time></trkpt><trkpt lat="39.1809544" lon="8.7624239"><ele>240.0</ele><time>2026-05-01T11:21:48.224Z</time></trkpt><trkpt lat="39.1808549" lon="8.7625373"><ele>240.0</ele><time>2026-05-01T11:21:49.224Z</time></trkpt><trkpt lat="39.1807218" lon="8.7626022"><ele>240.0</ele><time>2026-05-01T11:21:50.223Z</time></trkpt><trkpt lat="39.180566" lon="8.7626487"><ele>240.0</ele><time>2026-05-01T11:21:51.224Z</time></trkpt><trkpt lat="39.1804307" lon="8.7626772"><ele>240.0</ele><time>2026-05-01T11:21:52.224Z</time></trkpt><trkpt lat="39.1803072" lon="8.7626573"><ele>238.5</ele><time>2026-05-01T11:21:53.224Z</time></trkpt><trkpt lat="39.1801917" lon="8.762573"><ele>237.0</ele><time>2026-05-01T11:21:54.223Z</time></trkpt><trkpt lat="39.1800923" lon="8.7624703"><ele>235.5</ele><time>2026-05-01T11:21:55.224Z</time></trkpt><trkpt lat="39.1799931" lon="8.7624161"><ele>234.0</ele><time>2026-05-01T11:21:56.223Z</time></trkpt><trkpt lat="39.179883" lon="8.7624324"><ele>235.79999999999998</ele><time>2026-05-01T11:21:57.223Z</time></trkpt><trkpt lat="39.1797755" lon="8.7624933"><ele>237.59999999999997</ele><time>2026-05-01T11:21:58.223Z</time></trkpt><trkpt lat="39.1796807" lon="8.7625384"><ele>239.4</ele><time>2026-05-01T11:21:59.224Z</time></trkpt><trkpt lat="39.1795947" lon="8.7625167"><ele>241.2</ele><time>2026-05-01T11:22:00.223Z</time></trkpt><trkpt lat="39.1795274" lon="8.7624429"><ele>243.0</ele><time>2026-05-01T11:22:01.224Z</time></trkpt><trkpt lat="39.1794682" lon="8.7623224"><ele>243.0</ele><time>2026-05-01T11:22:02.223Z</time></trkpt><trkpt lat="39.1794217" lon="8.7621806"><ele>243.0</ele><time>2026-05-01T11:22:03.224Z</time></trkpt><trkpt lat="39.1794074" lon="8.7620157"><ele>243.0</ele><time>2026-05-01T11:22:04.223Z</time></trkpt><trkpt lat="39.1794355" lon="8.7618609"><ele>243.0</ele><time>2026-05-01T11:22:05.224Z</time></trkpt><trkpt lat="39.1795089" lon="8.7617383"><ele>245.25</ele><time>2026-05-01T11:22:06.224Z</time></trkpt><trkpt lat="39.1796188" lon="8.7616479"><ele>247.5</ele><time>2026-05-01T11:22:07.224Z</time></trkpt><trkpt lat="39.179727" lon="8.7615629"><ele>249.75</ele><time>2026-05-01T11:22:08.224Z</time></trkpt><trkpt lat="39.1797985" lon="8.7614389"><ele>252.0</ele><time>2026-05-01T11:22:09.223Z</time></trkpt><trkpt lat="39.1798294" lon="8.7612854"><ele>252.0</ele><time>2026-05-01T11:22:10.223Z</time></trkpt><trkpt lat="39.1798118" lon="8.7611088"><ele>252.0</ele><time>2026-05-01T11:22:11.224Z</time></trkpt><trkpt lat="39.1797738" lon="8.760904"><ele>252.0</ele><time>2026-05-01T11:22:12.223Z</time></trkpt><trkpt lat="39.1797296" lon="8.760661"><ele>252.33333333333331</ele><time>2026-05-01T11:22:13.223Z</time></trkpt><trkpt lat="39.1797027" lon="8.7604314"><ele>252.66666666666666</ele><time>2026-05-01T11:22:14.224Z</time></trkpt><trkpt lat="39.1797056" lon="8.7601947"><ele>253.0</ele><time>2026-05-01T11:22:15.223Z</time></trkpt><trkpt lat="39.1797484" lon="8.75995"><ele>253.0</ele><time>2026-05-01T11:22:16.223Z</time></trkpt><trkpt lat="39.1798194" lon="8.759726"><ele>253.0</ele><time>2026-05-01T11:22:17.224Z</time></trkpt><trkpt lat="39.1798988" lon="8.7595535"><ele>253.0</ele><time>2026-05-01T11:22:18.223Z</time></trkpt><trkpt lat="39.1799682" lon="8.7593882"><ele>243.0</ele><time>2026-05-01T11:22:19.223Z</time></trkpt><trkpt lat="39.1799958" lon="8.7591933"><ele>233.0</ele><time>2026-05-01T11:22:20.224Z</time></trkpt><trkpt lat="39.1799795" lon="8.7589883"><ele>223.0</ele><time>2026-05-01T11:22:21.224Z</time></trkpt><trkpt lat="39.1799579" lon="8.7587761"><ele>223.0</ele><time>2026-05-01T11:22:22.224Z</time></trkpt><trkpt lat="39.1799687" lon="8.7585604"><ele>223.0</ele><time>2026-05-01T11:22:23.224Z</time></trkpt><trkpt lat="39.1799969" lon="8.7583616"><ele>223.0</ele><time>2026-05-01T11:22:24.223Z</time></trkpt><trkpt lat="39.1800461" lon="8.7582089"><ele>222.75</ele><time>2026-05-01T11:22:25.224Z</time></trkpt><trkpt lat="39.1801364" lon="8.7581099"><ele>222.5</ele><time>2026-05-01T11:22:26.224Z</time></trkpt><trkpt lat="39.1802604" lon="8.7580606"><ele>222.25</ele><time>2026-05-01T11:22:27.223Z</time></trkpt><trkpt lat="39.1803909" lon="8.7580405"><ele>222.0</ele><time>2026-05-01T11:22:28.223Z</time></trkpt><trkpt lat="39.1804836" lon="8.7579778"><ele>222.0</ele><time>2026-05-01T11:22:29.224Z</time></trkpt><trkpt lat="39.1805431" lon="8.7578721"><ele>222.0</ele><time>2026-05-01T11:22:30.223Z</time></trkpt><trkpt lat="39.1805413" lon="8.7577388"><ele>222.0</ele><time>2026-05-01T11:22:31.224Z</time></trkpt><trkpt lat="39.1804933" lon="8.7575922"><ele>222.0</ele><time>2026-05-01T11:22:32.224Z</time></trkpt><trkpt lat="39.180439" lon="8.7574119"><ele>223.33333333333331</ele><time>2026-05-01T11:22:33.224Z</time></trkpt><trkpt lat="39.1803969" lon="8.7572045"><ele>224.66666666666666</ele><time>2026-05-01T11:22:34.224Z</time></trkpt><trkpt lat="39.1803191" lon="8.7569887"><ele>226.0</ele><time>2026-05-01T11:22:35.223Z</time></trkpt><trkpt lat="39.1802012" lon="8.7567671"><ele>226.33333333333331</ele><time>2026-05-01T11:22:36.223Z</time></trkpt><trkpt lat="39.1800786" lon="8.7565895"><ele>226.66666666666669</ele><time>2026-05-01T11:22:37.223Z</time></trkpt><trkpt lat="39.1799421" lon="8.7564512"><ele>227.0</ele><time>2026-05-01T11:22:38.223Z</time></trkpt><trkpt lat="39.1798025" lon="8.7563402"><ele>227.0</ele><time>2026-05-01T11:22:39.224Z</time></trkpt><trkpt lat="39.1796782" lon="8.7562104"><ele>227.0</ele><time>2026-05-01T11:22:40.223Z</time></trkpt><trkpt lat="39.1795709" lon="8.7560348"><ele>227.0</ele><time>2026-05-01T11:22:41.223Z</time></trkpt><trkpt lat="39.1794917" lon="8.755824"><ele>221.33333333333334</ele><time>2026-05-01T11:22:42.223Z</time></trkpt><trkpt lat="39.1794523" lon="8.7556053"><ele>215.66666666666669</ele><time>2026-05-01T11:22:43.223Z</time></trkpt><trkpt lat="39.179431" lon="8.7554078"><ele>210.0</ele><time>2026-05-01T11:22:44.224Z</time></trkpt><trkpt lat="39.1793928" lon="8.7552399"><ele>206.5</ele><time>2026-05-01T11:22:45.223Z</time></trkpt><trkpt lat="39.1793178" lon="8.7551117"><ele>203.0</ele><time>2026-05-01T11:22:46.224Z</time></trkpt><trkpt lat="39.1792136" lon="8.7550404"><ele>199.5</ele><time>2026-05-01T11:22:47.223Z</time></trkpt><trkpt lat="39.1790898" lon="8.7550224"><ele>196.0</ele><time>2026-05-01T11:22:48.223Z</time></trkpt><trkpt lat="39.1789509" lon="8.755072"><ele>196.0</ele><time>2026-05-01T11:22:49.223Z</time></trkpt><trkpt lat="39.1788158" lon="8.7551402"><ele>196.0</ele><time>2026-05-01T11:22:50.224Z</time></trkpt><trkpt lat="39.1786808" lon="8.7551391"><ele>196.0</ele><time>2026-05-01T11:22:51.223Z</time></trkpt><trkpt lat="39.1785497" lon="8.7550731"><ele>196.0</ele><time>2026-05-01T11:22:52.224Z</time></trkpt><trkpt lat="39.1784048" lon="8.7549771"><ele>196.0</ele><time>2026-05-01T11:22:53.223Z</time></trkpt><trkpt lat="39.1782486" lon="8.754867"><ele>196.0</ele><time>2026-05-01T11:22:54.224Z</time></trkpt><trkpt lat="39.1781139" lon="8.7547456"><ele>196.0</ele><time>2026-05-01T11:22:55.224Z</time></trkpt><trkpt lat="39.1779955" lon="8.7545849"><ele>196.0</ele><time>2026-05-01T11:22:56.223Z</time></trkpt><trkpt lat="39.1778914" lon="8.754397"><ele>196.0</ele><time>2026-05-01T11:22:57.224Z</time></trkpt><trkpt lat="39.177784" lon="8.754197"><ele>196.0</ele><time>2026-05-01T11:22:58.223Z</time></trkpt><trkpt lat="39.177672" lon="8.7539944"><ele>196.0</ele><time>2026-05-01T11:22:59.224Z</time></trkpt><trkpt lat="39.1775646" lon="8.753811"><ele>196.0</ele><time>2026-05-01T11:23:00.223Z</time></trkpt><trkpt lat="39.1774658" lon="8.7536284"><ele>196.0</ele><time>2026-05-01T11:23:01.223Z</time></trkpt><trkpt lat="39.1773676" lon="8.7534609"><ele>193.33333333333331</ele><time>2026-05-01T11:23:02.224Z</time></trkpt><trkpt lat="39.1772544" lon="8.7533137"><ele>190.66666666666666</ele><time>2026-05-01T11:23:03.223Z</time></trkpt><trkpt lat="39.1771139" lon="8.7531887"><ele>188.0</ele><time>2026-05-01T11:23:04.224Z</time></trkpt><trkpt lat="39.1769473" lon="8.7530735"><ele>188.0</ele><time>2026-05-01T11:23:05.223Z</time></trkpt><trkpt lat="39.1767675" lon="8.7529565"><ele>188.0</ele><time>2026-05-01T11:23:06.223Z</time></trkpt><trkpt lat="39.1765729" lon="8.7528335"><ele>188.0</ele><time>2026-05-01T11:23:07.223Z</time></trkpt><trkpt lat="39.1763531" lon="8.7526928"><ele>186.5</ele><time>2026-05-01T11:23:08.223Z</time></trkpt><trkpt lat="39.1761268" lon="8.7525404"><ele>185.0</ele><time>2026-05-01T11:23:09.224Z</time></trkpt><trkpt lat="39.1759236" lon="8.7524027"><ele>185.0</ele><time>2026-05-01T11:23:10.223Z</time></trkpt><trkpt lat="39.1757271" lon="8.7522714"><ele>185.0</ele><time>2026-05-01T11:23:11.224Z</time></trkpt><trkpt lat="39.1755306" lon="8.7521446"><ele>185.0</ele><time>2026-05-01T11:23:12.224Z</time></trkpt><trkpt lat="39.1753315" lon="8.752018"><ele>185.33333333333331</ele><time>2026-05-01T11:23:13.223Z</time></trkpt><trkpt lat="39.1751303" lon="8.7518922"><ele>185.66666666666666</ele><time>2026-05-01T11:23:14.223Z</time></trkpt><trkpt lat="39.1749301" lon="8.7517633"><ele>186.0</ele><time>2026-05-01T11:23:15.224Z</time></trkpt><trkpt lat="39.1747517" lon="8.7516473"><ele>185.33333333333334</ele><time>2026-05-01T11:23:16.223Z</time></trkpt><trkpt lat="39.174595" lon="8.7515459"><ele>184.66666666666669</ele><time>2026-05-01T11:23:17.224Z</time></trkpt><trkpt lat="39.1744444" lon="8.7514499"><ele>184.0</ele><time>2026-05-01T11:23:18.223Z</time></trkpt><trkpt lat="39.1743044" lon="8.7513599"><ele>184.0</ele><time>2026-05-01T11:23:19.224Z</time></trkpt><trkpt lat="39.1741679" lon="8.7512704"><ele>184.0</ele><time>2026-05-01T11:23:20.224Z</time></trkpt><trkpt lat="39.1740312" lon="8.7511827"><ele>184.0</ele><time>2026-05-01T11:23:21.223Z</time></trkpt><trkpt lat="39.173894" lon="8.7510965"><ele>186.33333333333334</ele><time>2026-05-01T11:23:22.223Z</time></trkpt><trkpt lat="39.1737544" lon="8.7510094"><ele>188.66666666666666</ele><time>2026-05-01T11:23:23.224Z</time></trkpt><trkpt lat="39.1736109" lon="8.7509167"><ele>191.0</ele><time>2026-05-01T11:23:24.224Z</time></trkpt><trkpt lat="39.1734595" lon="8.7508321"><ele>191.0</ele><time>2026-05-01T11:23:25.224Z</time></trkpt><trkpt lat="39.1732982" lon="8.7507864"><ele>191.0</ele><time>2026-05-01T11:23:26.224Z</time></trkpt><trkpt lat="39.1731389" lon="8.7507773"><ele>191.0</ele><time>2026-05-01T11:23:27.224Z</time></trkpt><trkpt lat="39.1729899" lon="8.7507849"><ele>192.66666666666666</ele><time>2026-05-01T11:23:28.224Z</time></trkpt><trkpt lat="39.1728373" lon="8.7507947"><ele>194.33333333333331</ele><time>2026-05-01T11:23:29.224Z</time></trkpt><trkpt lat="39.172688" lon="8.7508021"><ele>196.0</ele><time>2026-05-01T11:23:30.223Z</time></trkpt><trkpt lat="39.1725363" lon="8.7508079"><ele>196.0</ele><time>2026-05-01T11:23:31.224Z</time></trkpt><trkpt lat="39.1723932" lon="8.750813"><ele>196.0</ele><time>2026-05-01T11:23:32.224Z</time></trkpt><trkpt lat="39.1722615" lon="8.7508022"><ele>196.0</ele><time>2026-05-01T11:23:33.224Z</time></trkpt><trkpt lat="39.1721393" lon="8.7507675"><ele>196.0</ele><time>2026-05-01T11:23:34.223Z</time></trkpt><trkpt lat="39.1720258" lon="8.7507095"><ele>196.5</ele><time>2026-05-01T11:23:35.223Z</time></trkpt><trkpt lat="39.1719158" lon="8.7506301"><ele>197.0</ele><time>2026-05-01T11:23:36.223Z</time></trkpt><trkpt lat="39.171808" lon="8.7505365"><ele>197.5</ele><time>2026-05-01T11:23:37.223Z</time></trkpt><trkpt lat="39.1717015" lon="8.7504516"><ele>198.0</ele><time>2026-05-01T11:23:38.223Z</time></trkpt><trkpt lat="39.1715892" lon="8.750397"><ele>198.25</ele><time>2026-05-01T11:23:39.224Z</time></trkpt><trkpt lat="39.171476" lon="8.7503809"><ele>198.5</ele><time>2026-05-01T11:23:40.223Z</time></trkpt><trkpt lat="39.1713666" lon="8.7503689"><ele>198.75</ele><time>2026-05-01T11:23:41.224Z</time></trkpt><trkpt lat="39.1712621" lon="8.750304"><ele>199.0</ele><time>2026-05-01T11:23:42.223Z</time></trkpt><trkpt lat="39.1711631" lon="8.7502002"><ele>199.0</ele><time>2026-05-01T11:23:43.224Z</time></trkpt><trkpt lat="39.1710716" lon="8.7500616"><ele>199.0</ele><time>2026-05-01T11:23:44.224Z</time></trkpt><trkpt lat="39.17099" lon="8.7498974"><ele>199.0</ele><time>2026-05-01T11:23:45.224Z</time></trkpt><trkpt lat="39.170917" lon="8.7497235"><ele>199.0</ele><time>2026-05-01T11:23:46.223Z</time></trkpt><trkpt lat="39.1708451" lon="8.7495699"><ele>199.0</ele><time>2026-05-01T11:23:47.223Z</time></trkpt><trkpt lat="39.1707421" lon="8.7494379"><ele>199.0</ele><time>2026-05-01T11:23:48.224Z</time></trkpt><trkpt lat="39.1706244" lon="8.7493481"><ele>199.0</ele><time>2026-05-01T11:23:49.224Z</time></trkpt><trkpt lat="39.1705112" lon="8.7493038"><ele>199.0</ele><time>2026-05-01T11:23:50.224Z</time></trkpt><trkpt lat="39.1704048" lon="8.7493229"><ele>199.5</ele><time>2026-05-01T11:23:51.223Z</time></trkpt><trkpt lat="39.1703223" lon="8.7493975"><ele>200.0</ele><time>2026-05-01T11:23:52.223Z</time></trkpt><trkpt lat="39.1702609" lon="8.74951"><ele>200.5</ele><time>2026-05-01T11:23:53.224Z</time></trkpt><trkpt lat="39.1702126" lon="8.7496516"><ele>201.0</ele><time>2026-05-01T11:23:54.224Z</time></trkpt><trkpt lat="39.1701565" lon="8.7498014"><ele>201.0</ele><time>2026-05-01T11:23:55.224Z</time></trkpt><trkpt lat="39.1700868" lon="8.7499239"><ele>201.0</ele><time>2026-05-01T11:23:56.223Z</time></trkpt><trkpt lat="39.1699991" lon="8.7499992"><ele>201.0</ele><time>2026-05-01T11:23:57.224Z</time></trkpt><trkpt lat="39.1699087" lon="8.7500207"><ele>201.0</ele><time>2026-05-01T11:23:58.223Z</time></trkpt><trkpt lat="39.1698261" lon="8.749988"><ele>201.0</ele><time>2026-05-01T11:23:59.223Z</time></trkpt><trkpt lat="39.1697501" lon="8.7499108"><ele>204.25</ele><time>2026-05-01T11:24:00.224Z</time></trkpt><trkpt lat="39.1696743" lon="8.7497995"><ele>207.5</ele><time>2026-05-01T11:24:01.224Z</time></trkpt><trkpt lat="39.1695746" lon="8.7496807"><ele>210.75</ele><time>2026-05-01T11:24:02.224Z</time></trkpt><trkpt lat="39.1694405" lon="8.7495559"><ele>214.0</ele><time>2026-05-01T11:24:03.223Z</time></trkpt><trkpt lat="39.169318" lon="8.7494435"><ele>211.0</ele><time>2026-05-01T11:24:04.223Z</time></trkpt><trkpt lat="39.1692271" lon="8.7493181"><ele>208.0</ele><time>2026-05-01T11:24:05.224Z</time></trkpt><trkpt lat="39.1691603" lon="8.7491692"><ele>205.0</ele><time>2026-05-01T11:24:06.224Z</time></trkpt><trkpt lat="39.1691034" lon="8.7490123"><ele>202.0</ele><time>2026-05-01T11:24:07.223Z</time></trkpt><trkpt lat="39.1690296" lon="8.7488768"><ele>203.25</ele><time>2026-05-01T11:24:08.223Z</time></trkpt><trkpt lat="39.1689324" lon="8.7487466"><ele>204.5</ele><time>2026-05-01T11:24:09.224Z</time></trkpt><trkpt lat="39.1688232" lon="8.7486247"><ele>205.75</ele><time>2026-05-01T11:24:10.224Z</time></trkpt><trkpt lat="39.1687037" lon="8.7485107"><ele>207.0</ele><time>2026-05-01T11:24:11.224Z</time></trkpt><trkpt lat="39.1685748" lon="8.7484056"><ele>207.0</ele><time>2026-05-01T11:24:12.224Z</time></trkpt><trkpt lat="39.1684387" lon="8.7482702"><ele>207.0</ele><time>2026-05-01T11:24:13.223Z</time></trkpt><trkpt lat="39.1683241" lon="8.7480915"><ele>207.0</ele><time>2026-05-01T11:24:14.223Z</time></trkpt><trkpt lat="39.1682352" lon="8.7478899"><ele>207.33333333333331</ele><time>2026-05-01T11:24:15.223Z</time></trkpt><trkpt lat="39.1681448" lon="8.7477039"><ele>207.66666666666666</ele><time>2026-05-01T11:24:16.223Z</time></trkpt><trkpt lat="39.1680233" lon="8.7475222"><ele>208.0</ele><time>2026-05-01T11:24:17.224Z</time></trkpt><trkpt lat="39.1678843" lon="8.747341"><ele>208.0</ele><time>2026-05-01T11:24:18.223Z</time></trkpt><trkpt lat="39.1677671" lon="8.7471715"><ele>208.0</ele><time>2026-05-01T11:24:19.224Z</time></trkpt><trkpt lat="39.1676735" lon="8.7469647"><ele>208.0</ele><time>2026-05-01T11:24:20.224Z</time></trkpt><trkpt lat="39.1676081" lon="8.7467306"><ele>206.33333333333331</ele><time>2026-05-01T11:24:21.223Z</time></trkpt><trkpt lat="39.1675519" lon="8.7465301"><ele>204.66666666666669</ele><time>2026-05-01T11:24:22.224Z</time></trkpt><trkpt lat="39.1674765" lon="8.7463536"><ele>203.0</ele><time>2026-05-01T11:24:23.223Z</time></trkpt><trkpt lat="39.1673675" lon="8.7462004"><ele>202.0</ele><time>2026-05-01T11:24:24.224Z</time></trkpt><trkpt lat="39.1672323" lon="8.7460781"><ele>201.0</ele><time>2026-05-01T11:24:25.223Z</time></trkpt><trkpt lat="39.167063" lon="8.7459752"><ele>200.0</ele><time>2026-05-01T11:24:26.224Z</time></trkpt><trkpt lat="39.1668667" lon="8.7458691"><ele>199.0</ele><time>2026-05-01T11:24:27.224Z</time></trkpt><trkpt lat="39.1666577" lon="8.7457598"><ele>198.0</ele><time>2026-05-01T11:24:28.224Z</time></trkpt><trkpt lat="39.1664602" lon="8.7456753"><ele>197.0</ele><time>2026-05-01T11:24:29.224Z</time></trkpt><trkpt lat="39.1662504" lon="8.7456196"><ele>197.0</ele><time>2026-05-01T11:24:30.224Z</time></trkpt><trkpt lat="39.1660498" lon="8.7455878"><ele>197.0</ele><time>2026-05-01T11:24:31.223Z</time></trkpt><trkpt lat="39.1658654" lon="8.7455574"><ele>197.0</ele><time>2026-05-01T11:24:32.223Z</time></trkpt><trkpt lat="39.1657007" lon="8.7454893"><ele>199.0</ele><time>2026-05-01T11:24:33.224Z</time></trkpt><trkpt lat="39.1655446" lon="8.7453753"><ele>201.0</ele><time>2026-05-01T11:24:34.224Z</time></trkpt><trkpt lat="39.1653975" lon="8.7452116"><ele>203.0</ele><time>2026-05-01T11:24:35.224Z</time></trkpt><trkpt lat="39.1652474" lon="8.7450041"><ele>203.0</ele><time>2026-05-01T11:24:36.224Z</time></trkpt><trkpt lat="39.1651022" lon="8.7447994"><ele>203.0</ele><time>2026-05-01T11:24:37.223Z</time></trkpt><trkpt lat="39.1649575" lon="8.7446293"><ele>203.0</ele><time>2026-05-01T11:24:38.223Z</time></trkpt><trkpt lat="39.1647974" lon="8.7444937"><ele>203.66666666666669</ele><time>2026-05-01T11:24:39.223Z</time></trkpt><trkpt lat="39.1646142" lon="8.7443818"><ele>204.33333333333331</ele><time>2026-05-01T11:24:40.224Z</time></trkpt><trkpt lat="39.1644097" lon="8.7442787"><ele>205.0</ele><time>2026-05-01T11:24:41.224Z</time></trkpt><trkpt lat="39.1641901" lon="8.7441747"><ele>203.5</ele><time>2026-05-01T11:24:42.223Z</time></trkpt><trkpt lat="39.1639614" lon="8.744068"><ele>202.0</ele><time>2026-05-01T11:24:43.224Z</time></trkpt><trkpt lat="39.1637241" lon="8.743956"><ele>202.0</ele><time>2026-05-01T11:24:44.224Z</time></trkpt><trkpt lat="39.1634825" lon="8.7438392"><ele>202.0</ele><time>2026-05-01T11:24:45.224Z</time></trkpt><trkpt lat="39.1632347" lon="8.7437231"><ele>201.5</ele><time>2026-05-01T11:24:46.224Z</time></trkpt><trkpt lat="39.1629988" lon="8.7436155"><ele>201.0</ele><time>2026-05-01T11:24:47.224Z</time></trkpt><trkpt lat="39.1627777" lon="8.7435151"><ele>200.33333333333331</ele><time>2026-05-01T11:24:48.223Z</time></trkpt><trkpt lat="39.1625765" lon="8.7434226"><ele>199.66666666666666</ele><time>2026-05-01T11:24:49.224Z</time></trkpt><trkpt lat="39.1623958" lon="8.7433379"><ele>199.0</ele><time>2026-05-01T11:24:50.224Z</time></trkpt><trkpt lat="39.1622303" lon="8.7432646"><ele>199.0</ele><time>2026-05-01T11:24:51.223Z</time></trkpt><trkpt lat="39.1620683" lon="8.7432059"><ele>199.0</ele><time>2026-05-01T11:24:52.223Z</time></trkpt><trkpt lat="39.1618997" lon="8.7431675"><ele>199.0</ele><time>2026-05-01T11:24:53.223Z</time></trkpt><trkpt lat="39.1617308" lon="8.7431492"><ele>199.0</ele><time>2026-05-01T11:24:54.224Z</time></trkpt><trkpt lat="39.1615685" lon="8.7431407"><ele>199.0</ele><time>2026-05-01T11:24:55.223Z</time></trkpt><trkpt lat="39.1614114" lon="8.7431409"><ele>199.0</ele><time>2026-05-01T11:24:56.224Z</time></trkpt><trkpt lat="39.1612635" lon="8.7431392"><ele>197.75</ele><time>2026-05-01T11:24:57.223Z</time></trkpt><trkpt lat="39.1611167" lon="8.7431243"><ele>196.5</ele><time>2026-05-01T11:24:58.223Z</time></trkpt><trkpt lat="39.1609786" lon="8.7430908"><ele>195.25</ele><time>2026-05-01T11:24:59.224Z</time></trkpt><trkpt lat="39.1608505" lon="8.7430461"><ele>194.0</ele><time>2026-05-01T11:25:00.224Z</time></trkpt><trkpt lat="39.1607248" lon="8.7429919"><ele>193.75</ele><time>2026-05-01T11:25:01.224Z</time></trkpt><trkpt lat="39.1605958" lon="8.7429328"><ele>193.5</ele><time>2026-05-01T11:25:02.224Z</time></trkpt><trkpt lat="39.1604646" lon="8.7428714"><ele>193.25</ele><time>2026-05-01T11:25:03.223Z</time></trkpt><trkpt lat="39.1603323" lon="8.7428067"><ele>193.0</ele><time>2026-05-01T11:25:04.223Z</time></trkpt><trkpt lat="39.1602051" lon="8.7427296"><ele>192.25</ele><time>2026-05-01T11:25:05.223Z</time></trkpt><trkpt lat="39.1600904" lon="8.7426377"><ele>191.5</ele><time>2026-05-01T11:25:06.223Z</time></trkpt><trkpt lat="39.1599852" lon="8.7425376"><ele>190.75</ele><time>2026-05-01T11:25:07.224Z</time></trkpt><trkpt lat="39.1598902" lon="8.7424361"><ele>190.0</ele><time>2026-05-01T11:25:08.224Z</time></trkpt><trkpt lat="39.1597972" lon="8.7423379"><ele>189.8</ele><time>2026-05-01T11:25:09.224Z</time></trkpt><trkpt lat="39.1597058" lon="8.7422476"><ele>189.6</ele><time>2026-05-01T11:25:10.223Z</time></trkpt><trkpt lat="39.1596172" lon="8.7421594"><ele>189.39999999999998</ele><time>2026-05-01T11:25:11.224Z</time></trkpt><trkpt lat="39.159534" lon="8.7420761"><ele>189.2</ele><time>2026-05-01T11:25:12.223Z</time></trkpt><trkpt lat="39.1594564" lon="8.7419949"><ele>189.0</ele><time>2026-05-01T11:25:13.224Z</time></trkpt><trkpt lat="39.159381" lon="8.741915"><ele>188.66666666666666</ele><time>2026-05-01T11:25:14.224Z</time></trkpt><trkpt lat="39.159306" lon="8.7418365"><ele>188.33333333333334</ele><time>2026-05-01T11:25:15.223Z</time></trkpt><trkpt lat="39.1592386" lon="8.7417655"><ele>188.0</ele><time>2026-05-01T11:25:16.224Z</time></trkpt><trkpt lat="39.1591753" lon="8.7416947"><ele>187.66666666666669</ele><time>2026-05-01T11:25:17.223Z</time></trkpt><trkpt lat="39.1591152" lon="8.7416324"><ele>187.33333333333334</ele><time>2026-05-01T11:25:18.223Z</time></trkpt><trkpt lat="39.1590635" lon="8.7415786"><ele>187.0</ele><time>2026-05-01T11:25:19.223Z</time></trkpt><trkpt lat="39.1589866" lon="8.7415149"><ele>187.0</ele><time>2026-05-01T11:25:21.224Z</time></trkpt><trkpt lat="39.1589249" lon="8.7415421"><ele>187.0</ele><time>2026-05-01T11:25:24.223Z</time></trkpt><trkpt lat="39.1588802" lon="8.741609"><ele>187.0</ele><time>2026-05-01T11:25:30.224Z</time></trkpt><trkpt lat="39.1588325" lon="8.7416656"><ele>187.0</ele><time>2026-05-01T11:25:31.223Z</time></trkpt><trkpt lat="39.1587707" lon="8.741713"><ele>187.0</ele><time>2026-05-01T11:25:32.224Z</time></trkpt><trkpt lat="39.1586973" lon="8.7417528"><ele>187.0</ele><time>2026-05-01T11:25:33.224Z</time></trkpt><trkpt lat="39.1586201" lon="8.741788"><ele>187.0</ele><time>2026-05-01T11:25:34.223Z</time></trkpt><trkpt lat="39.158547" lon="8.7418157"><ele>187.0</ele><time>2026-05-01T11:25:35.224Z</time></trkpt><trkpt lat="39.1584813" lon="8.7418379"><ele>187.0</ele><time>2026-05-01T11:25:36.223Z</time></trkpt><trkpt lat="39.15837" lon="8.7418728"><ele>187.0</ele><time>2026-05-01T11:25:38.224Z</time></trkpt><trkpt lat="39.1583083" lon="8.7418965"><ele>187.0</ele><time>2026-05-01T11:25:39.224Z</time></trkpt><trkpt lat="39.1582384" lon="8.7419207"><ele>187.0</ele><time>2026-05-01T11:25:40.224Z</time></trkpt><trkpt lat="39.1581618" lon="8.741948"><ele>187.0</ele><time>2026-05-01T11:25:41.224Z</time></trkpt><trkpt lat="39.1580832" lon="8.7419812"><ele>188.0</ele><time>2026-05-01T11:25:42.223Z</time></trkpt><trkpt lat="39.1580052" lon="8.7420141"><ele>189.0</ele><time>2026-05-01T11:25:43.223Z</time></trkpt><trkpt lat="39.1579267" lon="8.7420458"><ele>190.0</ele><time>2026-05-01T11:25:44.223Z</time></trkpt><trkpt lat="39.1578451" lon="8.7420548"><ele>191.0</ele><time>2026-05-01T11:25:45.223Z</time></trkpt><trkpt lat="39.1577629" lon="8.7420353"><ele>191.99999999999997</ele><time>2026-05-01T11:25:46.224Z</time></trkpt><trkpt lat="39.1576814" lon="8.7419929"><ele>193.0</ele><time>2026-05-01T11:25:47.223Z</time></trkpt><trkpt lat="39.1575994" lon="8.7419415"><ele>192.8</ele><time>2026-05-01T11:25:48.223Z</time></trkpt><trkpt lat="39.1575172" lon="8.7418757"><ele>192.60000000000002</ele><time>2026-05-01T11:25:49.224Z</time></trkpt><trkpt lat="39.1574373" lon="8.7417939"><ele>192.39999999999998</ele><time>2026-05-01T11:25:50.223Z</time></trkpt><trkpt lat="39.1573612" lon="8.7416973"><ele>192.2</ele><time>2026-05-01T11:25:51.223Z</time></trkpt><trkpt lat="39.1572848" lon="8.7415934"><ele>192.0</ele><time>2026-05-01T11:25:52.223Z</time></trkpt><trkpt lat="39.1572115" lon="8.7414911"><ele>192.0</ele><time>2026-05-01T11:25:53.223Z</time></trkpt><trkpt lat="39.1571441" lon="8.7413943"><ele>192.0</ele><time>2026-05-01T11:25:54.224Z</time></trkpt><trkpt lat="39.1570871" lon="8.7413081"><ele>192.0</ele><time>2026-05-01T11:25:55.224Z</time></trkpt><trkpt lat="39.1570396" lon="8.741238"><ele>192.0</ele><time>2026-05-01T11:25:56.224Z</time></trkpt><trkpt lat="39.1569586" lon="8.7411245"><ele>192.0</ele><time>2026-05-01T11:25:58.223Z</time></trkpt><trkpt lat="39.1568692" lon="8.741003"><ele>191.33333333333334</ele><time>2026-05-01T11:26:00.223Z</time></trkpt><trkpt lat="39.1568177" lon="8.7409286"><ele>190.66666666666666</ele><time>2026-05-01T11:26:01.223Z</time></trkpt><trkpt lat="39.156771" lon="8.7408679"><ele>190.0</ele><time>2026-05-01T11:26:02.224Z</time></trkpt><trkpt lat="39.156709" lon="8.7407862"><ele>189.33333333333331</ele><time>2026-05-01T11:26:04.223Z</time></trkpt><trkpt lat="39.156685" lon="8.740667"><ele>188.66666666666666</ele><time>2026-05-01T11:26:07.224Z</time></trkpt><trkpt lat="39.1567351" lon="8.7405968"><ele>188.0</ele><time>2026-05-01T11:26:09.223Z</time></trkpt><trkpt lat="39.1568287" lon="8.740487"><ele>188.0</ele><time>2026-05-01T11:26:11.224Z</time></trkpt><trkpt lat="39.1568906" lon="8.7404105"><ele>188.0</ele><time>2026-05-01T11:26:12.224Z</time></trkpt><trkpt lat="39.1569605" lon="8.7403276"><ele>188.0</ele><time>2026-05-01T11:26:13.223Z</time></trkpt><trkpt lat="39.1570321" lon="8.7402483"><ele>188.0</ele><time>2026-05-01T11:26:14.224Z</time></trkpt><trkpt lat="39.1570993" lon="8.7401712"><ele>188.0</ele><time>2026-05-01T11:26:15.223Z</time></trkpt><trkpt lat="39.1571654" lon="8.7401043"><ele>188.0</ele><time>2026-05-01T11:26:16.224Z</time></trkpt><trkpt lat="39.1572308" lon="8.7400459"><ele>187.60000000000002</ele><time>2026-05-01T11:26:17.223Z</time></trkpt><trkpt lat="39.1573182" lon="8.7399689"><ele>187.20000000000002</ele><time>2026-05-01T11:26:19.224Z</time></trkpt><trkpt lat="39.1573614" lon="8.7399003"><ele>186.8</ele><time>2026-05-01T11:26:25.223Z</time></trkpt><trkpt lat="39.1573521" lon="8.7397977"><ele>186.4</ele><time>2026-05-01T11:26:29.223Z</time></trkpt><trkpt lat="39.1572515" lon="8.7396927"><ele>186.0</ele><time>2026-05-01T11:26:31.224Z</time></trkpt><trkpt lat="39.1571796" lon="8.7396232"><ele>186.0</ele><time>2026-05-01T11:26:32.224Z</time></trkpt><trkpt lat="39.1571023" lon="8.7395465"><ele>186.0</ele><time>2026-05-01T11:26:33.224Z</time></trkpt><trkpt lat="39.1570184" lon="8.7394628"><ele>186.0</ele><time>2026-05-01T11:26:34.224Z</time></trkpt><trkpt lat="39.1569262" lon="8.7393634"><ele>186.0</ele><time>2026-05-01T11:26:35.224Z</time></trkpt><trkpt lat="39.1568377" lon="8.7392687"><ele>186.0</ele><time>2026-05-01T11:26:36.223Z</time></trkpt><trkpt lat="39.1567473" lon="8.7391766"><ele>186.0</ele><time>2026-05-01T11:26:37.224Z</time></trkpt><trkpt lat="39.1566572" lon="8.7390847"><ele>186.0</ele><time>2026-05-01T11:26:38.224Z</time></trkpt><trkpt lat="39.1565743" lon="8.739"><ele>186.0</ele><time>2026-05-01T11:26:39.223Z</time></trkpt><trkpt lat="39.1565046" lon="8.7389256"><ele>186.0</ele><time>2026-05-01T11:26:40.224Z</time></trkpt><trkpt lat="39.1564401" lon="8.7388588"><ele>186.0</ele><time>2026-05-01T11:26:41.223Z</time></trkpt><trkpt lat="39.1563775" lon="8.738799"><ele>186.0</ele><time>2026-05-01T11:26:42.224Z</time></trkpt><trkpt lat="39.1563208" lon="8.7387391"><ele>186.0</ele><time>2026-05-01T11:26:43.224Z</time></trkpt><trkpt lat="39.1562697" lon="8.7386817"><ele>186.0</ele><time>2026-05-01T11:26:44.223Z</time></trkpt><trkpt lat="39.1562189" lon="8.7386294"><ele>186.0</ele><time>2026-05-01T11:26:45.224Z</time></trkpt><trkpt lat="39.1561277" lon="8.7385426"><ele>186.0</ele><time>2026-05-01T11:26:47.224Z</time></trkpt><trkpt lat="39.1560611" lon="8.7384792"><ele>186.0</ele><time>2026-05-01T11:26:49.223Z</time></trkpt><trkpt lat="39.1560017" lon="8.7384251"><ele>185.60000000000002</ele><time>2026-05-01T11:26:51.223Z</time></trkpt><trkpt lat="39.1559535" lon="8.7383713"><ele>185.2</ele><time>2026-05-01T11:26:52.224Z</time></trkpt><trkpt lat="39.1558848" lon="8.738293"><ele>184.8</ele><time>2026-05-01T11:26:53.223Z</time></trkpt><trkpt lat="39.1558049" lon="8.7382095"><ele>184.39999999999998</ele><time>2026-05-01T11:26:54.223Z</time></trkpt><trkpt lat="39.1557266" lon="8.7381264"><ele>184.0</ele><time>2026-05-01T11:26:55.223Z</time></trkpt><trkpt lat="39.1556429" lon="8.7380369"><ele>184.0</ele><time>2026-05-01T11:26:56.223Z</time></trkpt><trkpt lat="39.1555513" lon="8.7379412"><ele>184.0</ele><time>2026-05-01T11:26:57.223Z</time></trkpt><trkpt lat="39.1554511" lon="8.737842"><ele>184.0</ele><time>2026-05-01T11:26:58.223Z</time></trkpt><trkpt lat="39.1553424" lon="8.7377383"><ele>184.0</ele><time>2026-05-01T11:26:59.224Z</time></trkpt><trkpt lat="39.155221" lon="8.7376225"><ele>183.66666666666669</ele><time>2026-05-01T11:27:00.223Z</time></trkpt><trkpt lat="39.1551026" lon="8.737495"><ele>183.33333333333334</ele><time>2026-05-01T11:27:01.224Z</time></trkpt><trkpt lat="39.15498" lon="8.7373592"><ele>183.0</ele><time>2026-05-01T11:27:02.223Z</time></trkpt><trkpt lat="39.1548516" lon="8.7372185"><ele>183.0</ele><time>2026-05-01T11:27:03.224Z</time></trkpt><trkpt lat="39.1547167" lon="8.7370748"><ele>183.0</ele><time>2026-05-01T11:27:04.224Z</time></trkpt><trkpt lat="39.1545786" lon="8.7369311"><ele>183.0</ele><time>2026-05-01T11:27:05.223Z</time></trkpt><trkpt lat="39.1544449" lon="8.7367923"><ele>182.0</ele><time>2026-05-01T11:27:06.223Z</time></trkpt><trkpt lat="39.1543189" lon="8.7366598"><ele>181.0</ele><time>2026-05-01T11:27:07.223Z</time></trkpt><trkpt lat="39.1542017" lon="8.7365327"><ele>180.0</ele><time>2026-05-01T11:27:08.224Z</time></trkpt><trkpt lat="39.154094" lon="8.7364208"><ele>181.0</ele><time>2026-05-01T11:27:09.224Z</time></trkpt><trkpt lat="39.1540014" lon="8.7363314"><ele>182.0</ele><time>2026-05-01T11:27:10.224Z</time></trkpt><trkpt lat="39.1539285" lon="8.7362582"><ele>183.0</ele><time>2026-05-01T11:27:11.223Z</time></trkpt><trkpt lat="39.1538797" lon="8.7362063"><ele>184.0</ele><time>2026-05-01T11:27:12.224Z</time></trkpt><trkpt lat="39.153816" lon="8.7361452"><ele>185.0</ele><time>2026-05-01T11:27:14.223Z</time></trkpt><trkpt lat="39.1537413" lon="8.7361366"><ele>186.0</ele><time>2026-05-01T11:27:17.224Z</time></trkpt><trkpt lat="39.1536726" lon="8.7362402"><ele>186.0</ele><time>2026-05-01T11:27:19.223Z</time></trkpt><trkpt lat="39.1536261" lon="8.7363349"><ele>186.0</ele><time>2026-05-01T11:27:20.224Z</time></trkpt><trkpt lat="39.1535593" lon="8.736457"><ele>186.0</ele><time>2026-05-01T11:27:21.223Z</time></trkpt><trkpt lat="39.1534796" lon="8.7366052"><ele>186.0</ele><time>2026-05-01T11:27:22.224Z</time></trkpt><trkpt lat="39.1533848" lon="8.7367755"><ele>186.0</ele><time>2026-05-01T11:27:23.224Z</time></trkpt><trkpt lat="39.1532943" lon="8.73694"><ele>186.0</ele><time>2026-05-01T11:27:24.224Z</time></trkpt><trkpt lat="39.1532095" lon="8.7370883"><ele>186.0</ele><time>2026-05-01T11:27:25.224Z</time></trkpt><trkpt lat="39.153133" lon="8.7372236"><ele>186.0</ele><time>2026-05-01T11:27:26.224Z</time></trkpt><trkpt lat="39.1530561" lon="8.7373621"><ele>186.4</ele><time>2026-05-01T11:27:27.223Z</time></trkpt><trkpt lat="39.1529861" lon="8.7374938"><ele>186.8</ele><time>2026-05-01T11:27:28.223Z</time></trkpt><trkpt lat="39.152925" lon="8.7376138"><ele>187.20000000000002</ele><time>2026-05-01T11:27:29.223Z</time></trkpt><trkpt lat="39.1528686" lon="8.7377255"><ele>187.60000000000002</ele><time>2026-05-01T11:27:30.223Z</time></trkpt><trkpt lat="39.152821" lon="8.7378285"><ele>188.0</ele><time>2026-05-01T11:27:31.224Z</time></trkpt><trkpt lat="39.1527831" lon="8.7379157"><ele>188.0</ele><time>2026-05-01T11:27:32.224Z</time></trkpt><trkpt lat="39.1527104" lon="8.7380056"><ele>188.0</ele><time>2026-05-01T11:27:34.224Z</time></trkpt><trkpt lat="39.1526258" lon="8.737974"><ele>188.0</ele><time>2026-05-01T11:27:37.224Z</time></trkpt><trkpt lat="39.1525841" lon="8.7378525"><ele>188.0</ele><time>2026-05-01T11:27:39.223Z</time></trkpt><trkpt lat="39.1525569" lon="8.7377752"><ele>188.0</ele><time>2026-05-01T11:27:40.224Z</time></trkpt><trkpt lat="39.1525267" lon="8.7376978"><ele>188.0</ele><time>2026-05-01T11:27:41.224Z</time></trkpt><trkpt lat="39.1524965" lon="8.7376216"><ele>188.0</ele><time>2026-05-01T11:27:42.223Z</time></trkpt><trkpt lat="39.1524633" lon="8.7375346"><ele>188.0</ele><time>2026-05-01T11:27:43.224Z</time></trkpt><trkpt lat="39.1524281" lon="8.7374492"><ele>188.0</ele><time>2026-05-01T11:27:44.224Z</time></trkpt><trkpt lat="39.1523899" lon="8.7373625"><ele>188.0</ele><time>2026-05-01T11:27:45.223Z</time></trkpt><trkpt lat="39.152351" lon="8.7372661"><ele>188.0</ele><time>2026-05-01T11:27:46.223Z</time></trkpt><trkpt lat="39.1523063" lon="8.737164"><ele>188.0</ele><time>2026-05-01T11:27:47.223Z</time></trkpt><trkpt lat="39.1522621" lon="8.7370538"><ele>188.0</ele><time>2026-05-01T11:27:48.224Z</time></trkpt><trkpt lat="39.1522118" lon="8.7369413"><ele>188.0</ele><time>2026-05-01T11:27:49.223Z</time></trkpt><trkpt lat="39.1521605" lon="8.7368279"><ele>188.0</ele><time>2026-05-01T11:27:50.224Z</time></trkpt><trkpt lat="39.1521135" lon="8.7367266"><ele>188.0</ele><time>2026-05-01T11:27:51.224Z</time></trkpt><trkpt lat="39.152069" lon="8.7366386"><ele>188.0</ele><time>2026-05-01T11:27:52.224Z</time></trkpt><trkpt lat="39.1520242" lon="8.7365643"><ele>188.0</ele><time>2026-05-01T11:27:53.223Z</time></trkpt><trkpt lat="39.151975" lon="8.7365059"><ele>188.0</ele><time>2026-05-01T11:27:54.224Z</time></trkpt><trkpt lat="39.151921" lon="8.7364552"><ele>188.0</ele><time>2026-05-01T11:27:55.223Z</time></trkpt><trkpt lat="39.1518624" lon="8.7363985"><ele>188.0</ele><time>2026-05-01T11:27:56.224Z</time></trkpt><trkpt lat="39.1518018" lon="8.7363339"><ele>188.0</ele><time>2026-05-01T11:27:57.223Z</time></trkpt><trkpt lat="39.1517373" lon="8.7362672"><ele>188.0</ele><time>2026-05-01T11:27:58.224Z</time></trkpt><trkpt lat="39.1516648" lon="8.7362016"><ele>188.0</ele><time>2026-05-01T11:27:59.224Z</time></trkpt><trkpt lat="39.1515855" lon="8.7361387"><ele>188.0</ele><time>2026-05-01T11:28:00.223Z</time></trkpt><trkpt lat="39.151498" lon="8.7360761"><ele>188.0</ele><time>2026-05-01T11:28:01.223Z</time></trkpt><trkpt lat="39.1514037" lon="8.736016"><ele>188.0</ele><time>2026-05-01T11:28:02.224Z</time></trkpt><trkpt lat="39.1513016" lon="8.735963"><ele>188.0</ele><time>2026-05-01T11:28:03.224Z</time></trkpt><trkpt lat="39.1511925" lon="8.7359169"><ele>188.0</ele><time>2026-05-01T11:28:04.223Z</time></trkpt><trkpt lat="39.1510803" lon="8.7358773"><ele>188.0</ele><time>2026-05-01T11:28:05.224Z</time></trkpt><trkpt lat="39.1509717" lon="8.7358403"><ele>188.0</ele><time>2026-05-01T11:28:06.223Z</time></trkpt><trkpt lat="39.150858" lon="8.7358038"><ele>188.0</ele><time>2026-05-01T11:28:07.224Z</time></trkpt><trkpt lat="39.1507433" lon="8.7357665"><ele>188.0</ele><time>2026-05-01T11:28:08.224Z</time></trkpt><trkpt lat="39.1506267" lon="8.735725"><ele>188.2</ele><time>2026-05-01T11:28:09.224Z</time></trkpt><trkpt lat="39.1505152" lon="8.7356843"><ele>188.4</ele><time>2026-05-01T11:28:10.224Z</time></trkpt><trkpt lat="39.1504073" lon="8.7356455"><ele>188.6</ele><time>2026-05-01T11:28:11.223Z</time></trkpt><trkpt lat="39.1503036" lon="8.7356045"><ele>188.79999999999998</ele><time>2026-05-01T11:28:12.223Z</time></trkpt><trkpt lat="39.1501996" lon="8.7355599"><ele>189.0</ele><time>2026-05-01T11:28:13.223Z</time></trkpt><trkpt lat="39.1500944" lon="8.7355081"><ele>189.0</ele><time>2026-05-01T11:28:14.224Z</time></trkpt><trkpt lat="39.1499931" lon="8.735443"><ele>189.0</ele><time>2026-05-01T11:28:15.224Z</time></trkpt><trkpt lat="39.1498884" lon="8.7353696"><ele>189.0</ele><time>2026-05-01T11:28:16.224Z</time></trkpt><trkpt lat="39.1497876" lon="8.7352921"><ele>189.0</ele><time>2026-05-01T11:28:17.224Z</time></trkpt><trkpt lat="39.149696" lon="8.7352114"><ele>188.6</ele><time>2026-05-01T11:28:18.223Z</time></trkpt><trkpt lat="39.1496161" lon="8.7351209"><ele>188.2</ele><time>2026-05-01T11:28:19.224Z</time></trkpt><trkpt lat="39.1495485" lon="8.7350107"><ele>187.79999999999998</ele><time>2026-05-01T11:28:20.224Z</time></trkpt><trkpt lat="39.1494924" lon="8.7348836"><ele>187.39999999999998</ele><time>2026-05-01T11:28:21.224Z</time></trkpt><trkpt lat="39.1494416" lon="8.7347487"><ele>187.0</ele><time>2026-05-01T11:28:22.224Z</time></trkpt><trkpt lat="39.1493896" lon="8.7346076"><ele>187.0</ele><time>2026-05-01T11:28:23.224Z</time></trkpt><trkpt lat="39.1493388" lon="8.7344615"><ele>187.0</ele><time>2026-05-01T11:28:24.223Z</time></trkpt><trkpt lat="39.1492877" lon="8.7343198"><ele>187.0</ele><time>2026-05-01T11:28:25.223Z</time></trkpt><trkpt lat="39.1492342" lon="8.7341833"><ele>187.0</ele><time>2026-05-01T11:28:26.224Z</time></trkpt><trkpt lat="39.149174" lon="8.7340434"><ele>186.75</ele><time>2026-05-01T11:28:27.223Z</time></trkpt><trkpt lat="39.1491127" lon="8.7339002"><ele>186.5</ele><time>2026-05-01T11:28:28.223Z</time></trkpt><trkpt lat="39.1490499" lon="8.733753"><ele>186.25</ele><time>2026-05-01T11:28:29.223Z</time></trkpt><trkpt lat="39.1489845" lon="8.7336178"><ele>186.0</ele><time>2026-05-01T11:28:30.224Z</time></trkpt><trkpt lat="39.1489064" lon="8.7335006"><ele>184.75</ele><time>2026-05-01T11:28:31.224Z</time></trkpt><trkpt lat="39.1488197" lon="8.7334018"><ele>183.5</ele><time>2026-05-01T11:28:32.224Z</time></trkpt><trkpt lat="39.1487299" lon="8.7333091"><ele>182.25</ele><time>2026-05-01T11:28:33.224Z</time></trkpt><trkpt lat="39.1486403" lon="8.7332139"><ele>181.0</ele><time>2026-05-01T11:28:34.224Z</time></trkpt><trkpt lat="39.1485489" lon="8.7331046"><ele>181.0</ele><time>2026-05-01T11:28:35.224Z</time></trkpt><trkpt lat="39.1484571" lon="8.7329866"><ele>181.0</ele><time>2026-05-01T11:28:36.224Z</time></trkpt><trkpt lat="39.1483699" lon="8.732869"><ele>181.0</ele><time>2026-05-01T11:28:37.224Z</time></trkpt><trkpt lat="39.148284" lon="8.732762"><ele>181.0</ele><time>2026-05-01T11:28:38.224Z</time></trkpt><trkpt lat="39.1481913" lon="8.7326746"><ele>180.25</ele><time>2026-05-01T11:28:39.224Z</time></trkpt><trkpt lat="39.1480919" lon="8.7326056"><ele>179.5</ele><time>2026-05-01T11:28:40.223Z</time></trkpt><trkpt lat="39.1479867" lon="8.7325515"><ele>178.75</ele><time>2026-05-01T11:28:41.223Z</time></trkpt><trkpt lat="39.1478794" lon="8.7325021"><ele>178.0</ele><time>2026-05-01T11:28:42.223Z</time></trkpt><trkpt lat="39.1477716" lon="8.7324459"><ele>178.0</ele><time>2026-05-01T11:28:43.223Z</time></trkpt><trkpt lat="39.1476646" lon="8.7323817"><ele>178.0</ele><time>2026-05-01T11:28:44.223Z</time></trkpt><trkpt lat="39.1475588" lon="8.7323115"><ele>178.0</ele><time>2026-05-01T11:28:45.224Z</time></trkpt><trkpt lat="39.1474507" lon="8.7322502"><ele>178.0</ele><time>2026-05-01T11:28:46.224Z</time></trkpt><trkpt lat="39.1473407" lon="8.7322006"><ele>177.5</ele><time>2026-05-01T11:28:47.224Z</time></trkpt><trkpt lat="39.1472332" lon="8.7321573"><ele>177.0</ele><time>2026-05-01T11:28:48.224Z</time></trkpt><trkpt lat="39.1471287" lon="8.732113"><ele>176.5</ele><time>2026-05-01T11:28:49.224Z</time></trkpt><trkpt lat="39.1470195" lon="8.7320698"><ele>176.0</ele><time>2026-05-01T11:28:50.223Z</time></trkpt><trkpt lat="39.1469092" lon="8.7320291"><ele>176.0</ele><time>2026-05-01T11:28:51.224Z</time></trkpt><trkpt lat="39.1468062" lon="8.7319901"><ele>176.0</ele><time>2026-05-01T11:28:52.224Z</time></trkpt><trkpt lat="39.1467124" lon="8.7319551"><ele>176.0</ele><time>2026-05-01T11:28:53.223Z</time></trkpt><trkpt lat="39.1466318" lon="8.7319226"><ele>176.0</ele><time>2026-05-01T11:28:54.223Z</time></trkpt><trkpt lat="39.1465543" lon="8.7318989"><ele>176.0</ele><time>2026-05-01T11:28:55.223Z</time></trkpt><trkpt lat="39.1464706" lon="8.7318832"><ele>176.20000000000002</ele><time>2026-05-01T11:28:56.223Z</time></trkpt><trkpt lat="39.1463824" lon="8.7318666"><ele>176.4</ele><time>2026-05-01T11:28:57.223Z</time></trkpt><trkpt lat="39.1462909" lon="8.7318506"><ele>176.6</ele><time>2026-05-01T11:28:58.223Z</time></trkpt><trkpt lat="39.1461966" lon="8.7318585"><ele>176.8</ele><time>2026-05-01T11:28:59.223Z</time></trkpt><trkpt lat="39.146101" lon="8.73188"><ele>177.0</ele><time>2026-05-01T11:29:00.224Z</time></trkpt><trkpt lat="39.1460083" lon="8.7319105"><ele>177.0</ele><time>2026-05-01T11:29:01.224Z</time></trkpt><trkpt lat="39.1459133" lon="8.7319416"><ele>177.0</ele><time>2026-05-01T11:29:02.223Z</time></trkpt><trkpt lat="39.1458162" lon="8.7319756"><ele>177.0</ele><time>2026-05-01T11:29:03.223Z</time></trkpt><trkpt lat="39.1457268" lon="8.7320086"><ele>177.0</ele><time>2026-05-01T11:29:04.224Z</time></trkpt><trkpt lat="39.1456435" lon="8.7320452"><ele>177.0</ele><time>2026-05-01T11:29:05.223Z</time></trkpt><trkpt lat="39.1455641" lon="8.7320769"><ele>177.8</ele><time>2026-05-01T11:29:06.224Z</time></trkpt><trkpt lat="39.1454779" lon="8.7321079"><ele>178.6</ele><time>2026-05-01T11:29:07.223Z</time></trkpt><trkpt lat="39.1453857" lon="8.7321284"><ele>179.4</ele><time>2026-05-01T11:29:08.224Z</time></trkpt><trkpt lat="39.1452873" lon="8.732128"><ele>180.20000000000002</ele><time>2026-05-01T11:29:09.223Z</time></trkpt><trkpt lat="39.1451806" lon="8.732115"><ele>181.0</ele><time>2026-05-01T11:29:10.224Z</time></trkpt><trkpt lat="39.1450859" lon="8.7320931"><ele>181.0</ele><time>2026-05-01T11:29:11.224Z</time></trkpt><trkpt lat="39.1450016" lon="8.7320755"><ele>181.0</ele><time>2026-05-01T11:29:12.224Z</time></trkpt><trkpt lat="39.1449281" lon="8.7320563"><ele>181.0</ele><time>2026-05-01T11:29:13.223Z</time></trkpt><trkpt lat="39.1448628" lon="8.7320417"><ele>181.0</ele><time>2026-05-01T11:29:14.224Z</time></trkpt><trkpt lat="39.1447984" lon="8.7320372"><ele>181.0</ele><time>2026-05-01T11:29:15.223Z</time></trkpt><trkpt lat="39.1447345" lon="8.7320549"><ele>181.0</ele><time>2026-05-01T11:29:16.223Z</time></trkpt><trkpt lat="39.1446643" lon="8.7320928"><ele>181.0</ele><time>2026-05-01T11:29:17.224Z</time></trkpt><trkpt lat="39.1445872" lon="8.7321438"><ele>181.8</ele><time>2026-05-01T11:29:18.223Z</time></trkpt><trkpt lat="39.1445009" lon="8.732194"><ele>182.60000000000002</ele><time>2026-05-01T11:29:19.223Z</time></trkpt><trkpt lat="39.1444021" lon="8.7322304"><ele>183.4</ele><time>2026-05-01T11:29:20.223Z</time></trkpt><trkpt lat="39.1442911" lon="8.7322455"><ele>184.2</ele><time>2026-05-01T11:29:21.223Z</time></trkpt><trkpt lat="39.1441581" lon="8.7322499"><ele>185.0</ele><time>2026-05-01T11:29:22.224Z</time></trkpt><trkpt lat="39.144008" lon="8.7322556"><ele>187.33333333333331</ele><time>2026-05-01T11:29:23.223Z</time></trkpt><trkpt lat="39.1438568" lon="8.7322634"><ele>189.66666666666666</ele><time>2026-05-01T11:29:24.224Z</time></trkpt><trkpt lat="39.1437065" lon="8.7322713"><ele>192.0</ele><time>2026-05-01T11:29:25.223Z</time></trkpt><trkpt lat="39.1435567" lon="8.732281"><ele>192.0</ele><time>2026-05-01T11:29:26.223Z</time></trkpt><trkpt lat="39.1434085" lon="8.7322937"><ele>192.0</ele><time>2026-05-01T11:29:27.224Z</time></trkpt><trkpt lat="39.1432588" lon="8.7323112"><ele>192.0</ele><time>2026-05-01T11:29:28.223Z</time></trkpt><trkpt lat="39.1431116" lon="8.7323347"><ele>192.0</ele><time>2026-05-01T11:29:29.224Z</time></trkpt><trkpt lat="39.142966" lon="8.7323659"><ele>193.5</ele><time>2026-05-01T11:29:30.224Z</time></trkpt><trkpt lat="39.1428316" lon="8.7324013"><ele>195.0</ele><time>2026-05-01T11:29:31.224Z</time></trkpt><trkpt lat="39.1427064" lon="8.7324398"><ele>196.5</ele><time>2026-05-01T11:29:32.223Z</time></trkpt><trkpt lat="39.1425839" lon="8.7324855"><ele>198.0</ele><time>2026-05-01T11:29:33.223Z</time></trkpt><trkpt lat="39.1424588" lon="8.7325222"><ele>198.0</ele><time>2026-05-01T11:29:34.224Z</time></trkpt><trkpt lat="39.1423287" lon="8.7325409"><ele>198.0</ele><time>2026-05-01T11:29:35.223Z</time></trkpt><trkpt lat="39.1421954" lon="8.7325527"><ele>198.0</ele><time>2026-05-01T11:29:36.224Z</time></trkpt><trkpt lat="39.1420634" lon="8.7325732"><ele>198.0</ele><time>2026-05-01T11:29:37.224Z</time></trkpt><trkpt lat="39.141944" lon="8.7326176"><ele>198.0</ele><time>2026-05-01T11:29:38.223Z</time></trkpt><trkpt lat="39.1418329" lon="8.7326901"><ele>198.0</ele><time>2026-05-01T11:29:39.223Z</time></trkpt><trkpt lat="39.1417294" lon="8.7327883"><ele>198.0</ele><time>2026-05-01T11:29:40.223Z</time></trkpt><trkpt lat="39.141632" lon="8.7328993"><ele>198.0</ele><time>2026-05-01T11:29:41.224Z</time></trkpt><trkpt lat="39.1415409" lon="8.7330137"><ele>200.0</ele><time>2026-05-01T11:29:42.223Z</time></trkpt><trkpt lat="39.1414494" lon="8.7331091"><ele>202.0</ele><time>2026-05-01T11:29:43.223Z</time></trkpt><trkpt lat="39.1413563" lon="8.7331808"><ele>204.0</ele><time>2026-05-01T11:29:44.223Z</time></trkpt><trkpt lat="39.1412597" lon="8.733238"><ele>206.0</ele><time>2026-05-01T11:29:45.223Z</time></trkpt><trkpt lat="39.1411593" lon="8.7332765"><ele>208.0</ele><time>2026-05-01T11:29:46.223Z</time></trkpt><trkpt lat="39.1410545" lon="8.7332984"><ele>208.0</ele><time>2026-05-01T11:29:47.223Z</time></trkpt><trkpt lat="39.1409435" lon="8.7332974"><ele>208.0</ele><time>2026-05-01T11:29:48.223Z</time></trkpt><trkpt lat="39.1408268" lon="8.7332826"><ele>208.0</ele><time>2026-05-01T11:29:49.224Z</time></trkpt><trkpt lat="39.1407014" lon="8.7332514"><ele>208.0</ele><time>2026-05-01T11:29:50.223Z</time></trkpt><trkpt lat="39.1405708" lon="8.7332111"><ele>208.5</ele><time>2026-05-01T11:29:51.224Z</time></trkpt><trkpt lat="39.1404373" lon="8.7331662"><ele>209.0</ele><time>2026-05-01T11:29:52.224Z</time></trkpt><trkpt lat="39.1403087" lon="8.7331205"><ele>209.5</ele><time>2026-05-01T11:29:53.223Z</time></trkpt><trkpt lat="39.1401846" lon="8.7330745"><ele>210.0</ele><time>2026-05-01T11:29:54.223Z</time></trkpt><trkpt lat="39.1400634" lon="8.7330309"><ele>210.0</ele><time>2026-05-01T11:29:55.224Z</time></trkpt><trkpt lat="39.1399443" lon="8.7329902"><ele>210.0</ele><time>2026-05-01T11:29:56.223Z</time></trkpt><trkpt lat="39.1398183" lon="8.7329515"><ele>210.0</ele><time>2026-05-01T11:29:57.223Z</time></trkpt><trkpt lat="39.1396846" lon="8.7329269"><ele>210.0</ele><time>2026-05-01T11:29:58.223Z</time></trkpt><trkpt lat="39.1395449" lon="8.732912"><ele>208.66666666666669</ele><time>2026-05-01T11:29:59.224Z</time></trkpt><trkpt lat="39.1393959" lon="8.7329051"><ele>207.33333333333334</ele><time>2026-05-01T11:30:00.224Z</time></trkpt><trkpt lat="39.1392408" lon="8.7328986"><ele>206.0</ele><time>2026-05-01T11:30:01.223Z</time></trkpt><trkpt lat="39.1390806" lon="8.732892"><ele>205.5</ele><time>2026-05-01T11:30:02.223Z</time></trkpt><trkpt lat="39.1389256" lon="8.7328889"><ele>205.0</ele><time>2026-05-01T11:30:03.224Z</time></trkpt><trkpt lat="39.1387785" lon="8.7328876"><ele>204.5</ele><time>2026-05-01T11:30:04.224Z</time></trkpt><trkpt lat="39.1386402" lon="8.7328691"><ele>204.0</ele><time>2026-05-01T11:30:05.224Z</time></trkpt><trkpt lat="39.1385044" lon="8.7328243"><ele>204.0</ele><time>2026-05-01T11:30:06.224Z</time></trkpt><trkpt lat="39.1383727" lon="8.7327577"><ele>204.0</ele><time>2026-05-01T11:30:07.223Z</time></trkpt><trkpt lat="39.1382482" lon="8.7326734"><ele>204.0</ele><time>2026-05-01T11:30:08.224Z</time></trkpt><trkpt lat="39.1381277" lon="8.7325793"><ele>204.0</ele><time>2026-05-01T11:30:09.223Z</time></trkpt><trkpt lat="39.1380051" lon="8.7324826"><ele>201.25</ele><time>2026-05-01T11:30:10.223Z</time></trkpt><trkpt lat="39.1378844" lon="8.7323864"><ele>198.5</ele><time>2026-05-01T11:30:11.223Z</time></trkpt><trkpt lat="39.1377759" lon="8.7322997"><ele>195.75</ele><time>2026-05-01T11:30:12.224Z</time></trkpt><trkpt lat="39.1376694" lon="8.7322293"><ele>193.0</ele><time>2026-05-01T11:30:13.223Z</time></trkpt><trkpt lat="39.1375599" lon="8.7321831"><ele>193.0</ele><time>2026-05-01T11:30:14.224Z</time></trkpt><trkpt lat="39.1374502" lon="8.7321588"><ele>193.0</ele><time>2026-05-01T11:30:15.224Z</time></trkpt><trkpt lat="39.1373357" lon="8.7321558"><ele>193.0</ele><time>2026-05-01T11:30:16.223Z</time></trkpt><trkpt lat="39.137224" lon="8.7321738"><ele>193.0</ele><time>2026-05-01T11:30:17.223Z</time></trkpt><trkpt lat="39.1371113" lon="8.7322121"><ele>193.25</ele><time>2026-05-01T11:30:18.224Z</time></trkpt><trkpt lat="39.1369962" lon="8.7322665"><ele>193.5</ele><time>2026-05-01T11:30:19.224Z</time></trkpt><trkpt lat="39.1368796" lon="8.7323257"><ele>193.75</ele><time>2026-05-01T11:30:20.224Z</time></trkpt><trkpt lat="39.136758" lon="8.7323858"><ele>194.0</ele><time>2026-05-01T11:30:21.223Z</time></trkpt><trkpt lat="39.1366343" lon="8.7324453"><ele>193.25</ele><time>2026-05-01T11:30:22.223Z</time></trkpt><trkpt lat="39.1365091" lon="8.7325029"><ele>192.5</ele><time>2026-05-01T11:30:23.224Z</time></trkpt><trkpt lat="39.1363858" lon="8.7325624"><ele>191.75</ele><time>2026-05-01T11:30:24.224Z</time></trkpt><trkpt lat="39.1362758" lon="8.7326205"><ele>191.0</ele><time>2026-05-01T11:30:25.224Z</time></trkpt><trkpt lat="39.1361719" lon="8.7326684"><ele>191.0</ele><time>2026-05-01T11:30:26.224Z</time></trkpt><trkpt lat="39.1360708" lon="8.7326893"><ele>191.0</ele><time>2026-05-01T11:30:27.223Z</time></trkpt><trkpt lat="39.1359651" lon="8.7326896"><ele>191.0</ele><time>2026-05-01T11:30:28.223Z</time></trkpt><trkpt lat="39.1358556" lon="8.7326691"><ele>191.0</ele><time>2026-05-01T11:30:29.224Z</time></trkpt><trkpt lat="39.1357443" lon="8.7326334"><ele>191.0</ele><time>2026-05-01T11:30:30.223Z</time></trkpt><trkpt lat="39.1356356" lon="8.7325847"><ele>190.75</ele><time>2026-05-01T11:30:31.224Z</time></trkpt><trkpt lat="39.1355327" lon="8.7325136"><ele>190.5</ele><time>2026-05-01T11:30:32.224Z</time></trkpt><trkpt lat="39.1354467" lon="8.7324182"><ele>190.25</ele><time>2026-05-01T11:30:33.224Z</time></trkpt><trkpt lat="39.1353719" lon="8.7323055"><ele>190.0</ele><time>2026-05-01T11:30:34.224Z</time></trkpt><trkpt lat="39.1352957" lon="8.732187"><ele>190.0</ele><time>2026-05-01T11:30:35.223Z</time></trkpt><trkpt lat="39.1352164" lon="8.7320671"><ele>190.0</ele><time>2026-05-01T11:30:36.224Z</time></trkpt><trkpt lat="39.1351367" lon="8.731943"><ele>190.0</ele><time>2026-05-01T11:30:37.223Z</time></trkpt><trkpt lat="39.135056" lon="8.7318165"><ele>190.0</ele><time>2026-05-01T11:30:38.224Z</time></trkpt><trkpt lat="39.1349804" lon="8.7316973"><ele>188.8</ele><time>2026-05-01T11:30:39.224Z</time></trkpt><trkpt lat="39.1349075" lon="8.7315783"><ele>187.6</ele><time>2026-05-01T11:30:40.224Z</time></trkpt><trkpt lat="39.1348372" lon="8.7314646"><ele>186.39999999999998</ele><time>2026-05-01T11:30:41.224Z</time></trkpt><trkpt lat="39.1347623" lon="8.7313635"><ele>185.2</ele><time>2026-05-01T11:30:42.223Z</time></trkpt><trkpt lat="39.1346825" lon="8.7312929"><ele>184.0</ele><time>2026-05-01T11:30:43.224Z</time></trkpt><trkpt lat="39.1345985" lon="8.7312527"><ele>184.0</ele><time>2026-05-01T11:30:44.223Z</time></trkpt><trkpt lat="39.1345138" lon="8.7312412"><ele>184.0</ele><time>2026-05-01T11:30:45.224Z</time></trkpt><trkpt lat="39.1344216" lon="8.7312476"><ele>184.0</ele><time>2026-05-01T11:30:46.224Z</time></trkpt><trkpt lat="39.1343218" lon="8.7312709"><ele>184.0</ele><time>2026-05-01T11:30:47.224Z</time></trkpt><trkpt lat="39.134212" lon="8.7312947"><ele>184.0</ele><time>2026-05-01T11:30:48.224Z</time></trkpt><trkpt lat="39.1340957" lon="8.7313299"><ele>184.25</ele><time>2026-05-01T11:30:49.223Z</time></trkpt><trkpt lat="39.1339775" lon="8.7313784"><ele>184.5</ele><time>2026-05-01T11:30:50.223Z</time></trkpt><trkpt lat="39.1338582" lon="8.7314363"><ele>184.75</ele><time>2026-05-01T11:30:51.224Z</time></trkpt><trkpt lat="39.1337439" lon="8.7314949"><ele>185.0</ele><time>2026-05-01T11:30:52.224Z</time></trkpt><trkpt lat="39.1336378" lon="8.7315466"><ele>185.0</ele><time>2026-05-01T11:30:53.223Z</time></trkpt><trkpt lat="39.1335335" lon="8.7315865"><ele>185.0</ele><time>2026-05-01T11:30:54.224Z</time></trkpt><trkpt lat="39.1334283" lon="8.7316192"><ele>185.0</ele><time>2026-05-01T11:30:55.224Z</time></trkpt><trkpt lat="39.1333171" lon="8.7316376"><ele>185.0</ele><time>2026-05-01T11:30:56.223Z</time></trkpt><trkpt lat="39.1332015" lon="8.731641"><ele>185.0</ele><time>2026-05-01T11:30:57.224Z</time></trkpt><trkpt lat="39.1330789" lon="8.7316359"><ele>185.75</ele><time>2026-05-01T11:30:58.223Z</time></trkpt><trkpt lat="39.1329485" lon="8.7316268"><ele>186.5</ele><time>2026-05-01T11:30:59.224Z</time></trkpt><trkpt lat="39.1328098" lon="8.7316209"><ele>187.25</ele><time>2026-05-01T11:31:00.224Z</time></trkpt><trkpt lat="39.1326641" lon="8.7316189"><ele>188.0</ele><time>2026-05-01T11:31:01.224Z</time></trkpt><trkpt lat="39.1325132" lon="8.7316232"><ele>191.33333333333331</ele><time>2026-05-01T11:31:02.224Z</time></trkpt><trkpt lat="39.1323543" lon="8.7316315"><ele>194.66666666666666</ele><time>2026-05-01T11:31:03.223Z</time></trkpt><trkpt lat="39.1321927" lon="8.7316424"><ele>198.0</ele><time>2026-05-01T11:31:04.224Z</time></trkpt><trkpt lat="39.1320318" lon="8.7316543"><ele>198.0</ele><time>2026-05-01T11:31:05.224Z</time></trkpt><trkpt lat="39.1318728" lon="8.7316697"><ele>198.0</ele><time>2026-05-01T11:31:06.224Z</time></trkpt><trkpt lat="39.1317136" lon="8.7316885"><ele>198.0</ele><time>2026-05-01T11:31:07.223Z</time></trkpt><trkpt lat="39.1315566" lon="8.731709"><ele>201.33333333333331</ele><time>2026-05-01T11:31:08.224Z</time></trkpt><trkpt lat="39.1314007" lon="8.7317303"><ele>204.66666666666666</ele><time>2026-05-01T11:31:09.224Z</time></trkpt><trkpt lat="39.1312477" lon="8.7317502"><ele>208.0</ele><time>2026-05-01T11:31:10.223Z</time></trkpt><trkpt lat="39.1310995" lon="8.731782"><ele>208.0</ele><time>2026-05-01T11:31:11.223Z</time></trkpt><trkpt lat="39.1309564" lon="8.73183"><ele>208.0</ele><time>2026-05-01T11:31:12.223Z</time></trkpt><trkpt lat="39.1308165" lon="8.7318878"><ele>208.0</ele><time>2026-05-01T11:31:13.224Z</time></trkpt><trkpt lat="39.13068" lon="8.7319523"><ele>208.0</ele><time>2026-05-01T11:31:14.224Z</time></trkpt><trkpt lat="39.1305423" lon="8.7320069"><ele>209.25</ele><time>2026-05-01T11:31:15.224Z</time></trkpt><trkpt lat="39.1304012" lon="8.7320492"><ele>210.5</ele><time>2026-05-01T11:31:16.223Z</time></trkpt><trkpt lat="39.1302587" lon="8.7320828"><ele>211.75</ele><time>2026-05-01T11:31:17.224Z</time></trkpt><trkpt lat="39.1301206" lon="8.7321091"><ele>213.0</ele><time>2026-05-01T11:31:18.224Z</time></trkpt><trkpt lat="39.1299914" lon="8.7321248"><ele>214.5</ele><time>2026-05-01T11:31:19.223Z</time></trkpt><trkpt lat="39.1298664" lon="8.732123"><ele>216.0</ele><time>2026-05-01T11:31:20.223Z</time></trkpt><trkpt lat="39.1297374" lon="8.7321034"><ele>217.5</ele><time>2026-05-01T11:31:21.224Z</time></trkpt><trkpt lat="39.1296085" lon="8.7320636"><ele>219.0</ele><time>2026-05-01T11:31:22.224Z</time></trkpt><trkpt lat="39.1294799" lon="8.7320221"><ele>219.0</ele><time>2026-05-01T11:31:23.223Z</time></trkpt><trkpt lat="39.1293621" lon="8.7319997"><ele>219.0</ele><time>2026-05-01T11:31:24.223Z</time></trkpt><trkpt lat="39.1292427" lon="8.731999"><ele>219.0</ele><time>2026-05-01T11:31:25.224Z</time></trkpt><trkpt lat="39.1291256" lon="8.7320261"><ele>219.0</ele><time>2026-05-01T11:31:26.224Z</time></trkpt><trkpt lat="39.1290061" lon="8.7320709"><ele>219.0</ele><time>2026-05-01T11:31:27.223Z</time></trkpt><trkpt lat="39.1288983" lon="8.732121"><ele>218.99999999999997</ele><time>2026-05-01T11:31:28.224Z</time></trkpt><trkpt lat="39.1288019" lon="8.7321743"><ele>218.99999999999997</ele><time>2026-05-01T11:31:29.224Z</time></trkpt><trkpt lat="39.1287258" lon="8.7322245"><ele>219.0</ele><time>2026-05-01T11:31:30.224Z</time></trkpt><trkpt lat="39.1286629" lon="8.732257"><ele>219.0</ele><time>2026-05-01T11:31:31.224Z</time></trkpt><trkpt lat="39.1285545" lon="8.73226"><ele>219.0</ele><time>2026-05-01T11:31:33.223Z</time></trkpt><trkpt lat="39.1284957" lon="8.7322287"><ele>218.99999999999997</ele><time>2026-05-01T11:31:34.223Z</time></trkpt><trkpt lat="39.1284262" lon="8.7321718"><ele>218.99999999999997</ele><time>2026-05-01T11:31:35.224Z</time></trkpt><trkpt lat="39.1283474" lon="8.7320935"><ele>219.0</ele><time>2026-05-01T11:31:36.224Z</time></trkpt><trkpt lat="39.1282602" lon="8.7319985"><ele>219.0</ele><time>2026-05-01T11:31:37.223Z</time></trkpt><trkpt lat="39.1281615" lon="8.7318969"><ele>217.5</ele><time>2026-05-01T11:31:38.223Z</time></trkpt><trkpt lat="39.1280572" lon="8.7317867"><ele>216.0</ele><time>2026-05-01T11:31:39.223Z</time></trkpt><trkpt lat="39.1279475" lon="8.7316662"><ele>214.5</ele><time>2026-05-01T11:31:40.224Z</time></trkpt><trkpt lat="39.1278329" lon="8.7315362"><ele>213.0</ele><time>2026-05-01T11:31:41.224Z</time></trkpt><trkpt lat="39.1277231" lon="8.7314071"><ele>213.0</ele><time>2026-05-01T11:31:42.223Z</time></trkpt><trkpt lat="39.1276306" lon="8.7312718"><ele>213.0</ele><time>2026-05-01T11:31:43.223Z</time></trkpt><trkpt lat="39.1275458" lon="8.731114"><ele>213.0</ele><time>2026-05-01T11:31:44.224Z</time></trkpt><trkpt lat="39.1274722" lon="8.7309581"><ele>213.0</ele><time>2026-05-01T11:31:45.224Z</time></trkpt><trkpt lat="39.1273996" lon="8.73079"><ele>211.33333333333331</ele><time>2026-05-01T11:31:46.224Z</time></trkpt><trkpt lat="39.1273326" lon="8.7306122"><ele>209.66666666666666</ele><time>2026-05-01T11:31:47.223Z</time></trkpt><trkpt lat="39.1272694" lon="8.730427"><ele>208.0</ele><time>2026-05-01T11:31:48.223Z</time></trkpt><trkpt lat="39.1272026" lon="8.730237"><ele>208.33333333333331</ele><time>2026-05-01T11:31:49.223Z</time></trkpt><trkpt lat="39.127125" lon="8.7300496"><ele>208.66666666666669</ele><time>2026-05-01T11:31:50.223Z</time></trkpt><trkpt lat="39.1270356" lon="8.7298798"><ele>209.0</ele><time>2026-05-01T11:31:51.224Z</time></trkpt><trkpt lat="39.126942" lon="8.7297256"><ele>209.0</ele><time>2026-05-01T11:31:52.224Z</time></trkpt><trkpt lat="39.1268482" lon="8.7295809"><ele>209.0</ele><time>2026-05-01T11:31:53.223Z</time></trkpt><trkpt lat="39.1267663" lon="8.7294318"><ele>209.0</ele><time>2026-05-01T11:31:54.223Z</time></trkpt><trkpt lat="39.1266949" lon="8.7292855"><ele>209.0</ele><time>2026-05-01T11:31:55.223Z</time></trkpt><trkpt lat="39.1266396" lon="8.7291496"><ele>209.0</ele><time>2026-05-01T11:31:56.224Z</time></trkpt><trkpt lat="39.1265929" lon="8.7290211"><ele>209.0</ele><time>2026-05-01T11:31:57.223Z</time></trkpt><trkpt lat="39.1265469" lon="8.7289077"><ele>209.0</ele><time>2026-05-01T11:31:58.223Z</time></trkpt><trkpt lat="39.1264928" lon="8.7288112"><ele>209.0</ele><time>2026-05-01T11:31:59.224Z</time></trkpt><trkpt lat="39.1264334" lon="8.7287416"><ele>209.0</ele><time>2026-05-01T11:32:00.223Z</time></trkpt><trkpt lat="39.1263573" lon="8.7287063"><ele>207.6</ele><time>2026-05-01T11:32:01.224Z</time></trkpt><trkpt lat="39.1262784" lon="8.7287073"><ele>206.2</ele><time>2026-05-01T11:32:02.223Z</time></trkpt><trkpt lat="39.1261905" lon="8.7287439"><ele>204.79999999999998</ele><time>2026-05-01T11:32:03.224Z</time></trkpt><trkpt lat="39.1260906" lon="8.7288087"><ele>203.39999999999998</ele><time>2026-05-01T11:32:04.224Z</time></trkpt><trkpt lat="39.1259809" lon="8.7288929"><ele>202.0</ele><time>2026-05-01T11:32:05.223Z</time></trkpt><trkpt lat="39.1258579" lon="8.7289908"><ele>200.0</ele><time>2026-05-01T11:32:06.224Z</time></trkpt><trkpt lat="39.1257252" lon="8.7290986"><ele>198.0</ele><time>2026-05-01T11:32:07.224Z</time></trkpt><trkpt lat="39.125588" lon="8.7292104"><ele>196.0</ele><time>2026-05-01T11:32:08.224Z</time></trkpt><trkpt lat="39.1254504" lon="8.7293214"><ele>196.66666666666666</ele><time>2026-05-01T11:32:09.224Z</time></trkpt><trkpt lat="39.125311" lon="8.7294349"><ele>197.33333333333331</ele><time>2026-05-01T11:32:10.224Z</time></trkpt><trkpt lat="39.1251783" lon="8.7295424"><ele>198.0</ele><time>2026-05-01T11:32:11.223Z</time></trkpt><trkpt lat="39.1250499" lon="8.7296478"><ele>198.0</ele><time>2026-05-01T11:32:12.224Z</time></trkpt><trkpt lat="39.1249258" lon="8.7297434"><ele>198.0</ele><time>2026-05-01T11:32:13.224Z</time></trkpt><trkpt lat="39.1248015" lon="8.7298311"><ele>198.0</ele><time>2026-05-01T11:32:14.223Z</time></trkpt><trkpt lat="39.1246755" lon="8.7299113"><ele>198.0</ele><time>2026-05-01T11:32:15.224Z</time></trkpt><trkpt lat="39.1245479" lon="8.729988"><ele>198.0</ele><time>2026-05-01T11:32:16.223Z</time></trkpt><trkpt lat="39.1244185" lon="8.7300606"><ele>198.0</ele><time>2026-05-01T11:32:17.224Z</time></trkpt><trkpt lat="39.1242904" lon="8.7301282"><ele>198.0</ele><time>2026-05-01T11:32:18.224Z</time></trkpt><trkpt lat="39.1241739" lon="8.7301894"><ele>198.0</ele><time>2026-05-01T11:32:19.224Z</time></trkpt><trkpt lat="39.1240658" lon="8.7302381"><ele>197.5</ele><time>2026-05-01T11:32:20.224Z</time></trkpt><trkpt lat="39.1239544" lon="8.7302684"><ele>197.0</ele><time>2026-05-01T11:32:21.224Z</time></trkpt><trkpt lat="39.1238411" lon="8.7302869"><ele>196.5</ele><time>2026-05-01T11:32:22.224Z</time></trkpt><trkpt lat="39.1237231" lon="8.7302925"><ele>196.0</ele><time>2026-05-01T11:32:23.224Z</time></trkpt><trkpt lat="39.1236023" lon="8.7302796"><ele>196.0</ele><time>2026-05-01T11:32:24.223Z</time></trkpt><trkpt lat="39.1234772" lon="8.7302546"><ele>196.0</ele><time>2026-05-01T11:32:25.223Z</time></trkpt><trkpt lat="39.1233479" lon="8.7302158"><ele>196.0</ele><time>2026-05-01T11:32:26.223Z</time></trkpt><trkpt lat="39.1232198" lon="8.7301679"><ele>196.0</ele><time>2026-05-01T11:32:27.223Z</time></trkpt><trkpt lat="39.1230871" lon="8.7301186"><ele>194.5</ele><time>2026-05-01T11:32:28.224Z</time></trkpt><trkpt lat="39.122947" lon="8.7300746"><ele>193.0</ele><time>2026-05-01T11:32:29.224Z</time></trkpt><trkpt lat="39.1228123" lon="8.730044"><ele>191.5</ele><time>2026-05-01T11:32:30.224Z</time></trkpt><trkpt lat="39.1226813" lon="8.7300326"><ele>190.0</ele><time>2026-05-01T11:32:31.223Z</time></trkpt><trkpt lat="39.1225446" lon="8.7300438"><ele>190.0</ele><time>2026-05-01T11:32:32.224Z</time></trkpt><trkpt lat="39.1224016" lon="8.730073"><ele>190.0</ele><time>2026-05-01T11:32:33.223Z</time></trkpt><trkpt lat="39.1222565" lon="8.7300929"><ele>190.0</ele><time>2026-05-01T11:32:34.223Z</time></trkpt><trkpt lat="39.1221185" lon="8.7300901"><ele>190.0</ele><time>2026-05-01T11:32:35.224Z</time></trkpt><trkpt lat="39.1219897" lon="8.7300705"><ele>190.0</ele><time>2026-05-01T11:32:36.223Z</time></trkpt><trkpt lat="39.1218749" lon="8.7300309"><ele>190.0</ele><time>2026-05-01T11:32:37.223Z</time></trkpt><trkpt lat="39.1217629" lon="8.729965"><ele>190.0</ele><time>2026-05-01T11:32:38.224Z</time></trkpt><trkpt lat="39.1216549" lon="8.7298819"><ele>190.0</ele><time>2026-05-01T11:32:39.224Z</time></trkpt><trkpt lat="39.1215432" lon="8.7297945"><ele>190.0</ele><time>2026-05-01T11:32:40.224Z</time></trkpt><trkpt lat="39.1214249" lon="8.7297026"><ele>190.0</ele><time>2026-05-01T11:32:41.223Z</time></trkpt><trkpt lat="39.1212972" lon="8.7296117"><ele>190.0</ele><time>2026-05-01T11:32:42.223Z</time></trkpt><trkpt lat="39.1211695" lon="8.7295266"><ele>190.0</ele><time>2026-05-01T11:32:43.224Z</time></trkpt><trkpt lat="39.1210493" lon="8.7294567"><ele>190.0</ele><time>2026-05-01T11:32:44.223Z</time></trkpt><trkpt lat="39.1209319" lon="8.7294028"><ele>190.0</ele><time>2026-05-01T11:32:45.223Z</time></trkpt><trkpt lat="39.1208055" lon="8.7293579"><ele>190.0</ele><time>2026-05-01T11:32:46.224Z</time></trkpt><trkpt lat="39.1206676" lon="8.7293172"><ele>190.0</ele><time>2026-05-01T11:32:47.223Z</time></trkpt><trkpt lat="39.1205222" lon="8.7292745"><ele>188.75</ele><time>2026-05-01T11:32:48.223Z</time></trkpt><trkpt lat="39.1203759" lon="8.7292239"><ele>187.5</ele><time>2026-05-01T11:32:49.224Z</time></trkpt><trkpt lat="39.1202308" lon="8.7291799"><ele>186.25</ele><time>2026-05-01T11:32:50.223Z</time></trkpt><trkpt lat="39.1201004" lon="8.7291474"><ele>185.0</ele><time>2026-05-01T11:32:51.224Z</time></trkpt><trkpt lat="39.1199919" lon="8.7291054"><ele>186.5</ele><time>2026-05-01T11:32:52.224Z</time></trkpt><trkpt lat="39.1198937" lon="8.7290393"><ele>188.0</ele><time>2026-05-01T11:32:53.224Z</time></trkpt><trkpt lat="39.1198061" lon="8.7289497"><ele>189.5</ele><time>2026-05-01T11:32:54.224Z</time></trkpt><trkpt lat="39.1197192" lon="8.7288536"><ele>191.0</ele><time>2026-05-01T11:32:55.224Z</time></trkpt><trkpt lat="39.1196256" lon="8.7287574"><ele>191.0</ele><time>2026-05-01T11:32:56.224Z</time></trkpt><trkpt lat="39.1195299" lon="8.728649"><ele>191.0</ele><time>2026-05-01T11:32:57.223Z</time></trkpt><trkpt lat="39.1194317" lon="8.728522"><ele>191.0</ele><time>2026-05-01T11:32:58.223Z</time></trkpt><trkpt lat="39.1193291" lon="8.7283799"><ele>191.0</ele><time>2026-05-01T11:32:59.224Z</time></trkpt><trkpt lat="39.11922" lon="8.7282294"><ele>190.33333333333331</ele><time>2026-05-01T11:33:00.224Z</time></trkpt><trkpt lat="39.1191095" lon="8.7280785"><ele>189.66666666666666</ele><time>2026-05-01T11:33:01.223Z</time></trkpt><trkpt lat="39.1190042" lon="8.72794"><ele>189.0</ele><time>2026-05-01T11:33:02.223Z</time></trkpt><trkpt lat="39.1188997" lon="8.7278056"><ele>187.5</ele><time>2026-05-01T11:33:03.224Z</time></trkpt><trkpt lat="39.1187933" lon="8.7276855"><ele>186.0</ele><time>2026-05-01T11:33:04.224Z</time></trkpt><trkpt lat="39.1186795" lon="8.7275828"><ele>184.5</ele><time>2026-05-01T11:33:05.223Z</time></trkpt><trkpt lat="39.1185535" lon="8.7274911"><ele>183.0</ele><time>2026-05-01T11:33:06.223Z</time></trkpt><trkpt lat="39.1184199" lon="8.7274008"><ele>183.0</ele><time>2026-05-01T11:33:07.224Z</time></trkpt><trkpt lat="39.1182789" lon="8.7273095"><ele>183.0</ele><time>2026-05-01T11:33:08.223Z</time></trkpt><trkpt lat="39.1181356" lon="8.7272197"><ele>183.0</ele><time>2026-05-01T11:33:09.223Z</time></trkpt><trkpt lat="39.117998" lon="8.7271345"><ele>183.0</ele><time>2026-05-01T11:33:10.224Z</time></trkpt><trkpt lat="39.117865" lon="8.727051"><ele>183.0</ele><time>2026-05-01T11:33:11.223Z</time></trkpt><trkpt lat="39.117735" lon="8.7269691"><ele>183.0</ele><time>2026-05-01T11:33:12.224Z</time></trkpt><trkpt lat="39.1176098" lon="8.7268893"><ele>183.0</ele><time>2026-05-01T11:33:13.223Z</time></trkpt><trkpt lat="39.1174892" lon="8.7268056"><ele>181.25</ele><time>2026-05-01T11:33:14.224Z</time></trkpt><trkpt lat="39.1173728" lon="8.7267263"><ele>179.5</ele><time>2026-05-01T11:33:15.223Z</time></trkpt><trkpt lat="39.1172637" lon="8.7266353"><ele>177.75</ele><time>2026-05-01T11:33:16.224Z</time></trkpt><trkpt lat="39.1171629" lon="8.7265263"><ele>176.0</ele><time>2026-05-01T11:33:17.224Z</time></trkpt><trkpt lat="39.1170683" lon="8.7264067"><ele>176.0</ele><time>2026-05-01T11:33:18.223Z</time></trkpt><trkpt lat="39.1169851" lon="8.726276"><ele>176.0</ele><time>2026-05-01T11:33:19.223Z</time></trkpt><trkpt lat="39.1169066" lon="8.7261363"><ele>176.0</ele><time>2026-05-01T11:33:20.224Z</time></trkpt><trkpt lat="39.1168261" lon="8.7259945"><ele>176.0</ele><time>2026-05-01T11:33:21.224Z</time></trkpt><trkpt lat="39.1167425" lon="8.7258553"><ele>174.25</ele><time>2026-05-01T11:33:22.224Z</time></trkpt><trkpt lat="39.1166566" lon="8.7257236"><ele>172.5</ele><time>2026-05-01T11:33:23.224Z</time></trkpt><trkpt lat="39.1165655" lon="8.7255944"><ele>170.75</ele><time>2026-05-01T11:33:24.223Z</time></trkpt><trkpt lat="39.1164731" lon="8.7254677"><ele>169.0</ele><time>2026-05-01T11:33:25.223Z</time></trkpt><trkpt lat="39.116377" lon="8.7253488"><ele>168.25</ele><time>2026-05-01T11:33:26.223Z</time></trkpt><trkpt lat="39.1162776" lon="8.725233"><ele>167.5</ele><time>2026-05-01T11:33:27.224Z</time></trkpt><trkpt lat="39.1161733" lon="8.7251206"><ele>166.75</ele><time>2026-05-01T11:33:28.224Z</time></trkpt><trkpt lat="39.1160654" lon="8.7250136"><ele>166.0</ele><time>2026-05-01T11:33:29.224Z</time></trkpt><trkpt lat="39.1159491" lon="8.7249107"><ele>165.0</ele><time>2026-05-01T11:33:30.224Z</time></trkpt><trkpt lat="39.1158297" lon="8.724815"><ele>164.0</ele><time>2026-05-01T11:33:31.224Z</time></trkpt><trkpt lat="39.1157091" lon="8.7247322"><ele>163.0</ele><time>2026-05-01T11:33:32.224Z</time></trkpt><trkpt lat="39.1155853" lon="8.7246533"><ele>162.0</ele><time>2026-05-01T11:33:33.223Z</time></trkpt><trkpt lat="39.115462" lon="8.7245773"><ele>161.25</ele><time>2026-05-01T11:33:34.223Z</time></trkpt><trkpt lat="39.1153387" lon="8.7245059"><ele>160.5</ele><time>2026-05-01T11:33:35.224Z</time></trkpt><trkpt lat="39.115217" lon="8.7244365"><ele>159.75</ele><time>2026-05-01T11:33:36.224Z</time></trkpt><trkpt lat="39.115097" lon="8.7243639"><ele>159.0</ele><time>2026-05-01T11:33:37.223Z</time></trkpt><trkpt lat="39.1149799" lon="8.7242899"><ele>158.25</ele><time>2026-05-01T11:33:38.224Z</time></trkpt><trkpt lat="39.1148638" lon="8.7242186"><ele>157.5</ele><time>2026-05-01T11:33:39.223Z</time></trkpt><trkpt lat="39.1147475" lon="8.7241492"><ele>156.75</ele><time>2026-05-01T11:33:40.224Z</time></trkpt><trkpt lat="39.1146311" lon="8.7240805"><ele>156.0</ele><time>2026-05-01T11:33:41.223Z</time></trkpt><trkpt lat="39.1145152" lon="8.7240129"><ele>156.0</ele><time>2026-05-01T11:33:42.223Z</time></trkpt><trkpt lat="39.1143948" lon="8.7239622"><ele>156.0</ele><time>2026-05-01T11:33:43.223Z</time></trkpt><trkpt lat="39.1142708" lon="8.7239351"><ele>156.0</ele><time>2026-05-01T11:33:44.224Z</time></trkpt><trkpt lat="39.1141446" lon="8.7239337"><ele>156.0</ele><time>2026-05-01T11:33:45.224Z</time></trkpt><trkpt lat="39.1140177" lon="8.7239588"><ele>155.25</ele><time>2026-05-01T11:33:46.224Z</time></trkpt><trkpt lat="39.1138925" lon="8.724005"><ele>154.5</ele><time>2026-05-01T11:33:47.223Z</time></trkpt><trkpt lat="39.1137671" lon="8.7240588"><ele>153.75</ele><time>2026-05-01T11:33:48.223Z</time></trkpt><trkpt lat="39.1136435" lon="8.7241096"><ele>153.0</ele><time>2026-05-01T11:33:49.224Z</time></trkpt><trkpt lat="39.1135178" lon="8.7241577"><ele>153.0</ele><time>2026-05-01T11:33:50.224Z</time></trkpt><trkpt lat="39.1133933" lon="8.7241878"><ele>153.0</ele><time>2026-05-01T11:33:51.224Z</time></trkpt><trkpt lat="39.113266" lon="8.7241898"><ele>153.0</ele><time>2026-05-01T11:33:52.223Z</time></trkpt><trkpt lat="39.1131388" lon="8.7241742"><ele>153.0</ele><time>2026-05-01T11:33:53.223Z</time></trkpt><trkpt lat="39.1130132" lon="8.72416"><ele>152.5</ele><time>2026-05-01T11:33:54.223Z</time></trkpt><trkpt lat="39.1128856" lon="8.7241465"><ele>152.0</ele><time>2026-05-01T11:33:55.223Z</time></trkpt><trkpt lat="39.1127591" lon="8.7241324"><ele>151.5</ele><time>2026-05-01T11:33:56.223Z</time></trkpt><trkpt lat="39.1126331" lon="8.7241151"><ele>151.0</ele><time>2026-05-01T11:33:57.223Z</time></trkpt><trkpt lat="39.1125048" lon="8.724089"><ele>150.75</ele><time>2026-05-01T11:33:58.223Z</time></trkpt><trkpt lat="39.1123763" lon="8.724056"><ele>150.5</ele><time>2026-05-01T11:33:59.223Z</time></trkpt><trkpt lat="39.1122536" lon="8.7240203"><ele>150.25</ele><time>2026-05-01T11:34:00.223Z</time></trkpt><trkpt lat="39.1121457" lon="8.7239795"><ele>150.0</ele><time>2026-05-01T11:34:01.223Z</time></trkpt><trkpt lat="39.112065" lon="8.7239407"><ele>150.0</ele><time>2026-05-01T11:34:02.223Z</time></trkpt><trkpt lat="39.1120032" lon="8.7238998"><ele>150.0</ele><time>2026-05-01T11:34:03.224Z</time></trkpt><trkpt lat="39.1119452" lon="8.7238524"><ele>150.0</ele><time>2026-05-01T11:34:04.223Z</time></trkpt><trkpt lat="39.111878" lon="8.7237901"><ele>150.0</ele><time>2026-05-01T11:34:05.224Z</time></trkpt><trkpt lat="39.1118002" lon="8.7237188"><ele>150.0</ele><time>2026-05-01T11:34:06.223Z</time></trkpt><trkpt lat="39.1117143" lon="8.723642"><ele>150.0</ele><time>2026-05-01T11:34:07.224Z</time></trkpt><trkpt lat="39.1116202" lon="8.7235633"><ele>149.25</ele><time>2026-05-01T11:34:08.223Z</time></trkpt><trkpt lat="39.1115214" lon="8.7234789"><ele>148.5</ele><time>2026-05-01T11:34:09.224Z</time></trkpt><trkpt lat="39.1114187" lon="8.723392"><ele>147.75</ele><time>2026-05-01T11:34:10.223Z</time></trkpt><trkpt lat="39.1113142" lon="8.7233055"><ele>147.0</ele><time>2026-05-01T11:34:11.224Z</time></trkpt><trkpt lat="39.1112064" lon="8.7232167"><ele>147.0</ele><time>2026-05-01T11:34:12.224Z</time></trkpt><trkpt lat="39.1110935" lon="8.7231346"><ele>147.0</ele><time>2026-05-01T11:34:13.223Z</time></trkpt><trkpt lat="39.110976" lon="8.7230647"><ele>147.0</ele><time>2026-05-01T11:34:14.224Z</time></trkpt><trkpt lat="39.1108553" lon="8.7230018"><ele>147.0</ele><time>2026-05-01T11:34:15.224Z</time></trkpt><trkpt lat="39.1107292" lon="8.72295"><ele>146.25</ele><time>2026-05-01T11:34:16.223Z</time></trkpt><trkpt lat="39.1106027" lon="8.7229041"><ele>145.5</ele><time>2026-05-01T11:34:17.223Z</time></trkpt><trkpt lat="39.1104767" lon="8.7228563"><ele>144.75</ele><time>2026-05-01T11:34:18.223Z</time></trkpt><trkpt lat="39.1103504" lon="8.7228066"><ele>144.0</ele><time>2026-05-01T11:34:19.223Z</time></trkpt><trkpt lat="39.1102228" lon="8.7227564"><ele>143.25</ele><time>2026-05-01T11:34:20.224Z</time></trkpt><trkpt lat="39.1100902" lon="8.7227069"><ele>142.5</ele><time>2026-05-01T11:34:21.223Z</time></trkpt><trkpt lat="39.109952" lon="8.7226686"><ele>141.75</ele><time>2026-05-01T11:34:22.223Z</time></trkpt><trkpt lat="39.1098178" lon="8.7226468"><ele>141.0</ele><time>2026-05-01T11:34:23.223Z</time></trkpt><trkpt lat="39.1096918" lon="8.7226386"><ele>141.0</ele><time>2026-05-01T11:34:24.223Z</time></trkpt><trkpt lat="39.1095704" lon="8.7226395"><ele>141.0</ele><time>2026-05-01T11:34:25.223Z</time></trkpt><trkpt lat="39.1094484" lon="8.7226348"><ele>141.0</ele><time>2026-05-01T11:34:26.224Z</time></trkpt><trkpt lat="39.1093264" lon="8.7226118"><ele>141.0</ele><time>2026-05-01T11:34:27.224Z</time></trkpt><trkpt lat="39.1092081" lon="8.7225714"><ele>141.0</ele><time>2026-05-01T11:34:28.224Z</time></trkpt><trkpt lat="39.1090985" lon="8.722502"><ele>141.0</ele><time>2026-05-01T11:34:29.224Z</time></trkpt><trkpt lat="39.1089959" lon="8.7224113"><ele>141.0</ele><time>2026-05-01T11:34:30.223Z</time></trkpt><trkpt lat="39.1088959" lon="8.7223031"><ele>141.0</ele><time>2026-05-01T11:34:31.223Z</time></trkpt><trkpt lat="39.1087992" lon="8.7221849"><ele>141.5</ele><time>2026-05-01T11:34:32.223Z</time></trkpt><trkpt lat="39.1086981" lon="8.7220665"><ele>142.0</ele><time>2026-05-01T11:34:33.224Z</time></trkpt><trkpt lat="39.1085938" lon="8.7219481"><ele>142.5</ele><time>2026-05-01T11:34:34.223Z</time></trkpt><trkpt lat="39.108491" lon="8.7218283"><ele>143.0</ele><time>2026-05-01T11:34:35.223Z</time></trkpt><trkpt lat="39.1083902" lon="8.7217144"><ele>142.5</ele><time>2026-05-01T11:34:36.223Z</time></trkpt><trkpt lat="39.1082935" lon="8.7216144"><ele>142.0</ele><time>2026-05-01T11:34:37.224Z</time></trkpt><trkpt lat="39.1081826" lon="8.7215249"><ele>141.5</ele><time>2026-05-01T11:34:38.224Z</time></trkpt><trkpt lat="39.1080655" lon="8.7214527"><ele>141.0</ele><time>2026-05-01T11:34:39.223Z</time></trkpt><trkpt lat="39.1079443" lon="8.7213911"><ele>141.0</ele><time>2026-05-01T11:34:40.224Z</time></trkpt><trkpt lat="39.1078192" lon="8.7213317"><ele>141.0</ele><time>2026-05-01T11:34:41.223Z</time></trkpt><trkpt lat="39.1076918" lon="8.7212716"><ele>141.0</ele><time>2026-05-01T11:34:42.224Z</time></trkpt><trkpt lat="39.1075611" lon="8.7212106"><ele>141.0</ele><time>2026-05-01T11:34:43.223Z</time></trkpt><trkpt lat="39.107427" lon="8.7211465"><ele>141.25</ele><time>2026-05-01T11:34:44.224Z</time></trkpt><trkpt lat="39.1072919" lon="8.7210772"><ele>141.5</ele><time>2026-05-01T11:34:45.223Z</time></trkpt><trkpt lat="39.1071569" lon="8.7210057"><ele>141.75</ele><time>2026-05-01T11:34:46.223Z</time></trkpt><trkpt lat="39.1070269" lon="8.7209211"><ele>142.0</ele><time>2026-05-01T11:34:47.224Z</time></trkpt><trkpt lat="39.1069049" lon="8.7208198"><ele>142.0</ele><time>2026-05-01T11:34:48.223Z</time></trkpt><trkpt lat="39.1067851" lon="8.7207084"><ele>142.0</ele><time>2026-05-01T11:34:49.223Z</time></trkpt><trkpt lat="39.106666" lon="8.7205973"><ele>142.0</ele><time>2026-05-01T11:34:50.223Z</time></trkpt><trkpt lat="39.1065442" lon="8.7204858"><ele>142.0</ele><time>2026-05-01T11:34:51.223Z</time></trkpt><trkpt lat="39.1064274" lon="8.7203798"><ele>140.75</ele><time>2026-05-01T11:34:52.223Z</time></trkpt><trkpt lat="39.1063139" lon="8.720281"><ele>139.5</ele><time>2026-05-01T11:34:53.223Z</time></trkpt><trkpt lat="39.106198" lon="8.7201914"><ele>138.25</ele><time>2026-05-01T11:34:54.223Z</time></trkpt><trkpt lat="39.1060785" lon="8.7201108"><ele>137.0</ele><time>2026-05-01T11:34:55.223Z</time></trkpt><trkpt lat="39.105954" lon="8.720045"><ele>137.0</ele><time>2026-05-01T11:34:56.223Z</time></trkpt><trkpt lat="39.1058231" lon="8.7199947"><ele>137.0</ele><time>2026-05-01T11:34:57.223Z</time></trkpt><trkpt lat="39.1056892" lon="8.7199498"><ele>137.0</ele><time>2026-05-01T11:34:58.223Z</time></trkpt><trkpt lat="39.105552" lon="8.719914"><ele>137.0</ele><time>2026-05-01T11:34:59.224Z</time></trkpt><trkpt lat="39.1054144" lon="8.7198812"><ele>137.25</ele><time>2026-05-01T11:35:00.224Z</time></trkpt><trkpt lat="39.1052735" lon="8.7198509"><ele>137.5</ele><time>2026-05-01T11:35:01.223Z</time></trkpt><trkpt lat="39.1051316" lon="8.7198212"><ele>137.75</ele><time>2026-05-01T11:35:02.223Z</time></trkpt><trkpt lat="39.1049858" lon="8.7197877"><ele>138.0</ele><time>2026-05-01T11:35:03.223Z</time></trkpt><trkpt lat="39.1048399" lon="8.7197465"><ele>139.0</ele><time>2026-05-01T11:35:04.223Z</time></trkpt><trkpt lat="39.1046971" lon="8.7196921"><ele>140.0</ele><time>2026-05-01T11:35:05.224Z</time></trkpt><trkpt lat="39.1045666" lon="8.7196209"><ele>141.0</ele><time>2026-05-01T11:35:06.223Z</time></trkpt><trkpt lat="39.1044473" lon="8.7195361"><ele>142.0</ele><time>2026-05-01T11:35:07.224Z</time></trkpt><trkpt lat="39.1043277" lon="8.7194437"><ele>139.75</ele><time>2026-05-01T11:35:08.223Z</time></trkpt><trkpt lat="39.1042034" lon="8.7193574"><ele>137.5</ele><time>2026-05-01T11:35:09.223Z</time></trkpt><trkpt lat="39.1040719" lon="8.7192932"><ele>135.25</ele><time>2026-05-01T11:35:10.223Z</time></trkpt><trkpt lat="39.1039339" lon="8.7192557"><ele>133.0</ele><time>2026-05-01T11:35:11.224Z</time></trkpt><trkpt lat="39.1037915" lon="8.719242"><ele>133.0</ele><time>2026-05-01T11:35:12.223Z</time></trkpt><trkpt lat="39.1036484" lon="8.7192503"><ele>133.0</ele><time>2026-05-01T11:35:13.224Z</time></trkpt><trkpt lat="39.1035028" lon="8.7192648"><ele>133.0</ele><time>2026-05-01T11:35:14.224Z</time></trkpt><trkpt lat="39.1033548" lon="8.7192836"><ele>133.0</ele><time>2026-05-01T11:35:15.224Z</time></trkpt><trkpt lat="39.103208" lon="8.7193167"><ele>133.66666666666669</ele><time>2026-05-01T11:35:16.224Z</time></trkpt><trkpt lat="39.1030624" lon="8.7193696"><ele>134.33333333333334</ele><time>2026-05-01T11:35:17.224Z</time></trkpt><trkpt lat="39.1029171" lon="8.7194246"><ele>135.0</ele><time>2026-05-01T11:35:18.224Z</time></trkpt><trkpt lat="39.1027718" lon="8.7194795"><ele>135.0</ele><time>2026-05-01T11:35:19.223Z</time></trkpt><trkpt lat="39.1026273" lon="8.7195374"><ele>135.0</ele><time>2026-05-01T11:35:20.224Z</time></trkpt><trkpt lat="39.1024881" lon="8.7195939"><ele>135.0</ele><time>2026-05-01T11:35:21.223Z</time></trkpt><trkpt lat="39.1023552" lon="8.7196379"><ele>135.0</ele><time>2026-05-01T11:35:22.223Z</time></trkpt><trkpt lat="39.1022242" lon="8.719663"><ele>134.25</ele><time>2026-05-01T11:35:23.223Z</time></trkpt><trkpt lat="39.102091" lon="8.7196693"><ele>133.5</ele><time>2026-05-01T11:35:24.224Z</time></trkpt><trkpt lat="39.1019581" lon="8.7196553"><ele>132.75</ele><time>2026-05-01T11:35:25.223Z</time></trkpt><trkpt lat="39.101825" lon="8.7196195"><ele>132.0</ele><time>2026-05-01T11:35:26.224Z</time></trkpt><trkpt lat="39.1016918" lon="8.7195682"><ele>131.25</ele><time>2026-05-01T11:35:27.223Z</time></trkpt><trkpt lat="39.1015548" lon="8.7195109"><ele>130.5</ele><time>2026-05-01T11:35:28.223Z</time></trkpt><trkpt lat="39.1014159" lon="8.7194497"><ele>129.75</ele><time>2026-05-01T11:35:29.223Z</time></trkpt><trkpt lat="39.1012725" lon="8.7193888"><ele>129.0</ele><time>2026-05-01T11:35:30.224Z</time></trkpt><trkpt lat="39.1011271" lon="8.7193248"><ele>131.0</ele><time>2026-05-01T11:35:31.224Z</time></trkpt><trkpt lat="39.1009774" lon="8.7192627"><ele>133.0</ele><time>2026-05-01T11:35:32.223Z</time></trkpt><trkpt lat="39.1008218" lon="8.7192164"><ele>135.0</ele><time>2026-05-01T11:35:33.223Z</time></trkpt><trkpt lat="39.1006631" lon="8.7191944"><ele>135.0</ele><time>2026-05-01T11:35:34.224Z</time></trkpt><trkpt lat="39.100506" lon="8.7191902"><ele>135.0</ele><time>2026-05-01T11:35:35.223Z</time></trkpt><trkpt lat="39.1003561" lon="8.7191867"><ele>135.0</ele><time>2026-05-01T11:35:36.223Z</time></trkpt><trkpt lat="39.1002167" lon="8.7191707"><ele>135.0</ele><time>2026-05-01T11:35:37.224Z</time></trkpt><trkpt lat="39.1000862" lon="8.7191341"><ele>135.0</ele><time>2026-05-01T11:35:38.224Z</time></trkpt><trkpt lat="39.0999644" lon="8.7190635"><ele>135.0</ele><time>2026-05-01T11:35:39.223Z</time></trkpt><trkpt lat="39.0998478" lon="8.7189722"><ele>135.0</ele><time>2026-05-01T11:35:40.224Z</time></trkpt><trkpt lat="39.0997318" lon="8.7188697"><ele>135.0</ele><time>2026-05-01T11:35:41.224Z</time></trkpt><trkpt lat="39.0996144" lon="8.7187624"><ele>133.75</ele><time>2026-05-01T11:35:42.224Z</time></trkpt><trkpt lat="39.0994962" lon="8.7186517"><ele>132.5</ele><time>2026-05-01T11:35:43.224Z</time></trkpt><trkpt lat="39.0993752" lon="8.7185358"><ele>131.25</ele><time>2026-05-01T11:35:44.223Z</time></trkpt><trkpt lat="39.0992532" lon="8.7184182"><ele>130.0</ele><time>2026-05-01T11:35:45.224Z</time></trkpt><trkpt lat="39.0991295" lon="8.7182991"><ele>126.66666666666667</ele><time>2026-05-01T11:35:46.224Z</time></trkpt><trkpt lat="39.0990063" lon="8.7181793"><ele>123.33333333333334</ele><time>2026-05-01T11:35:47.224Z</time></trkpt><trkpt lat="39.0988843" lon="8.7180623"><ele>120.0</ele><time>2026-05-01T11:35:48.224Z</time></trkpt><trkpt lat="39.0987623" lon="8.7179514"><ele>120.0</ele><time>2026-05-01T11:35:49.223Z</time></trkpt><trkpt lat="39.0986366" lon="8.7178484"><ele>120.0</ele><time>2026-05-01T11:35:50.223Z</time></trkpt><trkpt lat="39.0985018" lon="8.717756"><ele>120.0</ele><time>2026-05-01T11:35:51.224Z</time></trkpt><trkpt lat="39.0983592" lon="8.7176749"><ele>118.33333333333334</ele><time>2026-05-01T11:35:52.224Z</time></trkpt><trkpt lat="39.0982085" lon="8.7176"><ele>116.66666666666667</ele><time>2026-05-01T11:35:53.223Z</time></trkpt><trkpt lat="39.0980515" lon="8.7175284"><ele>115.0</ele><time>2026-05-01T11:35:54.224Z</time></trkpt><trkpt lat="39.0978929" lon="8.7174574"><ele>115.0</ele><time>2026-05-01T11:35:55.223Z</time></trkpt><trkpt lat="39.0977312" lon="8.7173865"><ele>115.0</ele><time>2026-05-01T11:35:56.224Z</time></trkpt><trkpt lat="39.0975718" lon="8.7173133"><ele>115.0</ele><time>2026-05-01T11:35:57.224Z</time></trkpt><trkpt lat="39.0974204" lon="8.7172393"><ele>116.66666666666667</ele><time>2026-05-01T11:35:58.223Z</time></trkpt><trkpt lat="39.097278" lon="8.7171708"><ele>118.33333333333334</ele><time>2026-05-01T11:35:59.224Z</time></trkpt><trkpt lat="39.0971329" lon="8.7171126"><ele>120.0</ele><time>2026-05-01T11:36:00.223Z</time></trkpt><trkpt lat="39.0969879" lon="8.7170699"><ele>120.0</ele><time>2026-05-01T11:36:01.223Z</time></trkpt><trkpt lat="39.0968409" lon="8.7170422"><ele>120.0</ele><time>2026-05-01T11:36:02.223Z</time></trkpt><trkpt lat="39.0966922" lon="8.7170378"><ele>120.0</ele><time>2026-05-01T11:36:03.224Z</time></trkpt><trkpt lat="39.0965446" lon="8.7170491"><ele>120.0</ele><time>2026-05-01T11:36:04.223Z</time></trkpt><trkpt lat="39.0963987" lon="8.7170648"><ele>121.0</ele><time>2026-05-01T11:36:05.224Z</time></trkpt><trkpt lat="39.0962547" lon="8.717081"><ele>122.0</ele><time>2026-05-01T11:36:06.224Z</time></trkpt><trkpt lat="39.0961175" lon="8.7170829"><ele>123.0</ele><time>2026-05-01T11:36:07.223Z</time></trkpt><trkpt lat="39.0959929" lon="8.7170635"><ele>124.0</ele><time>2026-05-01T11:36:08.223Z</time></trkpt><trkpt lat="39.0958813" lon="8.7170317"><ele>124.0</ele><time>2026-05-01T11:36:09.224Z</time></trkpt><trkpt lat="39.0957876" lon="8.7169929"><ele>124.0</ele><time>2026-05-01T11:36:10.223Z</time></trkpt><trkpt lat="39.095706" lon="8.7169459"><ele>124.0</ele><time>2026-05-01T11:36:11.223Z</time></trkpt><trkpt lat="39.0956283" lon="8.7168829"><ele>124.0</ele><time>2026-05-01T11:36:12.224Z</time></trkpt><trkpt lat="39.0955561" lon="8.7168061"><ele>124.0</ele><time>2026-05-01T11:36:13.224Z</time></trkpt><trkpt lat="39.0954814" lon="8.7167236"><ele>125.0</ele><time>2026-05-01T11:36:14.224Z</time></trkpt><trkpt lat="39.0954034" lon="8.7166361"><ele>126.0</ele><time>2026-05-01T11:36:15.223Z</time></trkpt><trkpt lat="39.0953174" lon="8.7165527"><ele>127.0</ele><time>2026-05-01T11:36:16.224Z</time></trkpt><trkpt lat="39.0952331" lon="8.7164778"><ele>128.0</ele><time>2026-05-01T11:36:17.224Z</time></trkpt><trkpt lat="39.0951452" lon="8.7164018"><ele>129.0</ele><time>2026-05-01T11:36:18.223Z</time></trkpt><trkpt lat="39.09506" lon="8.7163265"><ele>129.0</ele><time>2026-05-01T11:36:19.224Z</time></trkpt><trkpt lat="39.0949824" lon="8.7162686"><ele>129.0</ele><time>2026-05-01T11:36:20.223Z</time></trkpt><trkpt lat="39.0949097" lon="8.716222"><ele>129.0</ele><time>2026-05-01T11:36:21.224Z</time></trkpt><trkpt lat="39.0948435" lon="8.7161885"><ele>129.0</ele><time>2026-05-01T11:36:22.224Z</time></trkpt><trkpt lat="39.0947282" lon="8.7161543"><ele>129.0</ele><time>2026-05-01T11:36:24.224Z</time></trkpt><trkpt lat="39.094657" lon="8.7161553"><ele>129.0</ele><time>2026-05-01T11:36:25.223Z</time></trkpt><trkpt lat="39.0945876" lon="8.7161659"><ele>129.0</ele><time>2026-05-01T11:36:26.224Z</time></trkpt><trkpt lat="39.0944717" lon="8.7161802"><ele>129.0</ele><time>2026-05-01T11:36:28.223Z</time></trkpt><trkpt lat="39.0943539" lon="8.7161384"><ele>129.0</ele><time>2026-05-01T11:36:30.224Z</time></trkpt><trkpt lat="39.0942922" lon="8.7160925"><ele>129.0</ele><time>2026-05-01T11:36:31.224Z</time></trkpt><trkpt lat="39.0942307" lon="8.7160462"><ele>129.0</ele><time>2026-05-01T11:36:32.223Z</time></trkpt><trkpt lat="39.0941682" lon="8.7159979"><ele>129.0</ele><time>2026-05-01T11:36:33.224Z</time></trkpt><trkpt lat="39.0941089" lon="8.7159532"><ele>129.0</ele><time>2026-05-01T11:36:34.224Z</time></trkpt><trkpt lat="39.0940513" lon="8.7159063"><ele>129.0</ele><time>2026-05-01T11:36:35.223Z</time></trkpt><trkpt lat="39.0939923" lon="8.7158662"><ele>129.0</ele><time>2026-05-01T11:36:36.223Z</time></trkpt><trkpt lat="39.0939303" lon="8.7158388"><ele>129.0</ele><time>2026-05-01T11:36:37.223Z</time></trkpt><trkpt lat="39.0938094" lon="8.7158202"><ele>129.0</ele><time>2026-05-01T11:36:39.224Z</time></trkpt><trkpt lat="39.0936936" lon="8.7158456"><ele>128.66666666666666</ele><time>2026-05-01T11:36:41.223Z</time></trkpt><trkpt lat="39.0935919" lon="8.71589"><ele>128.33333333333334</ele><time>2026-05-01T11:36:43.223Z</time></trkpt><trkpt lat="39.0935401" lon="8.7159636"><ele>128.0</ele><time>2026-05-01T11:36:46.223Z</time></trkpt><trkpt lat="39.0935649" lon="8.7160508"><ele>127.66666666666667</ele><time>2026-05-01T11:36:48.223Z</time></trkpt><trkpt lat="39.0936004" lon="8.7161934"><ele>127.33333333333334</ele><time>2026-05-01T11:36:50.223Z</time></trkpt><trkpt lat="39.0936135" lon="8.7162729"><ele>127.0</ele><time>2026-05-01T11:36:51.224Z</time></trkpt><trkpt lat="39.0936398" lon="8.7164006"><ele>127.0</ele><time>2026-05-01T11:36:53.224Z</time></trkpt><trkpt lat="39.0936248" lon="8.7164885"><ele>127.0</ele><time>2026-05-01T11:36:55.224Z</time></trkpt><trkpt lat="39.0935693" lon="8.7165357"><ele>127.0</ele><time>2026-05-01T11:36:57.223Z</time></trkpt><trkpt lat="39.0935064" lon="8.7165423"><ele>127.0</ele><time>2026-05-01T11:36:59.223Z</time></trkpt><trkpt lat="39.0934377" lon="8.7165456"><ele>127.0</ele><time>2026-05-01T11:37:02.223Z</time></trkpt><trkpt lat="39.0933633" lon="8.7165727"><ele>127.0</ele><time>2026-05-01T11:37:06.224Z</time></trkpt><trkpt lat="39.0932772" lon="8.7165981"><ele>127.0</ele><time>2026-05-01T11:37:10.223Z</time></trkpt><trkpt lat="39.0932031" lon="8.716632"><ele>127.00000000000001</ele><time>2026-05-01T11:37:12.223Z</time></trkpt><trkpt lat="39.0931147" lon="8.7166731"><ele>127.0</ele><time>2026-05-01T11:37:14.224Z</time></trkpt><trkpt lat="39.0930361" lon="8.7167003"><ele>127.0</ele><time>2026-05-01T11:37:16.224Z</time></trkpt><trkpt lat="39.0929712" lon="8.7167252"><ele>127.0</ele><time>2026-05-01T11:37:18.224Z</time></trkpt><trkpt lat="39.0928881" lon="8.7167364"><ele>127.00000000000001</ele><time>2026-05-01T11:37:21.223Z</time></trkpt><trkpt lat="39.0928327" lon="8.7166614"><ele>127.0</ele><time>2026-05-01T11:37:24.224Z</time></trkpt><trkpt lat="39.0928344" lon="8.7165719"><ele>127.0</ele><time>2026-05-01T11:37:26.224Z</time></trkpt><trkpt lat="39.0928628" lon="8.7164267"><ele>126.99999999999999</ele><time>2026-05-01T11:37:28.224Z</time></trkpt><trkpt lat="39.0928832" lon="8.7162819"><ele>126.99999999999999</ele><time>2026-05-01T11:37:30.224Z</time></trkpt><trkpt lat="39.0928991" lon="8.7161442"><ele>127.0</ele><time>2026-05-01T11:37:32.223Z</time></trkpt><trkpt lat="39.0929199" lon="8.7160284"><ele>127.0</ele><time>2026-05-01T11:37:34.224Z</time></trkpt><trkpt lat="39.0929302" lon="8.7159426"><ele>126.16666666666667</ele><time>2026-05-01T11:37:36.223Z</time></trkpt><trkpt lat="39.0929119" lon="8.715847"><ele>125.33333333333334</ele><time>2026-05-01T11:37:39.224Z</time></trkpt><trkpt lat="39.0928551" lon="8.7158014"><ele>124.5</ele><time>2026-05-01T11:37:41.224Z</time></trkpt><trkpt lat="39.0927427" lon="8.7157793"><ele>123.66666666666666</ele><time>2026-05-01T11:37:43.224Z</time></trkpt><trkpt lat="39.092676" lon="8.7157603"><ele>122.83333333333333</ele><time>2026-05-01T11:37:44.224Z</time></trkpt><trkpt lat="39.092611" lon="8.7157376"><ele>122.0</ele><time>2026-05-01T11:37:45.223Z</time></trkpt><trkpt lat="39.0925461" lon="8.7157178"><ele>121.99999999999999</ele><time>2026-05-01T11:37:46.223Z</time></trkpt><trkpt lat="39.0924822" lon="8.715703"><ele>122.0</ele><time>2026-05-01T11:37:47.223Z</time></trkpt><trkpt lat="39.0924183" lon="8.7157058"><ele>122.0</ele><time>2026-05-01T11:37:48.224Z</time></trkpt><trkpt lat="39.0923504" lon="8.7157187"><ele>122.0</ele><time>2026-05-01T11:37:49.224Z</time></trkpt><trkpt lat="39.0922835" lon="8.7157308"><ele>121.99999999999999</ele><time>2026-05-01T11:37:50.224Z</time></trkpt><trkpt lat="39.0921754" lon="8.7157515"><ele>122.0</ele><time>2026-05-01T11:37:52.224Z</time></trkpt><trkpt lat="39.0920963" lon="8.7157645"><ele>121.0</ele><time>2026-05-01T11:37:54.223Z</time></trkpt><trkpt lat="39.0920306" lon="8.7157742"><ele>119.99999999999999</ele><time>2026-05-01T11:37:56.224Z</time></trkpt><trkpt lat="39.0919358" lon="8.7157716"><ele>118.99999999999999</ele><time>2026-05-01T11:37:59.223Z</time></trkpt><trkpt lat="39.0918335" lon="8.7157509"><ele>118.0</ele><time>2026-05-01T11:38:01.223Z</time></trkpt><trkpt lat="39.0917021" lon="8.7157164"><ele>117.0</ele><time>2026-05-01T11:38:03.224Z</time></trkpt><trkpt lat="39.0916171" lon="8.7156928"><ele>115.8</ele><time>2026-05-01T11:38:04.223Z</time></trkpt><trkpt lat="39.0915241" lon="8.7156649"><ele>114.6</ele><time>2026-05-01T11:38:05.224Z</time></trkpt><trkpt lat="39.0914311" lon="8.7156355"><ele>113.39999999999999</ele><time>2026-05-01T11:38:06.223Z</time></trkpt><trkpt lat="39.0913335" lon="8.7156034"><ele>112.19999999999999</ele><time>2026-05-01T11:38:07.223Z</time></trkpt><trkpt lat="39.0912297" lon="8.7155683"><ele>111.0</ele><time>2026-05-01T11:38:08.224Z</time></trkpt><trkpt lat="39.0911281" lon="8.7155337"><ele>111.0</ele><time>2026-05-01T11:38:09.224Z</time></trkpt><trkpt lat="39.0910162" lon="8.7154967"><ele>111.0</ele><time>2026-05-01T11:38:10.224Z</time></trkpt><trkpt lat="39.0909043" lon="8.7154584"><ele>111.0</ele><time>2026-05-01T11:38:11.224Z</time></trkpt><trkpt lat="39.0907974" lon="8.7154211"><ele>111.0</ele><time>2026-05-01T11:38:12.224Z</time></trkpt><trkpt lat="39.09069" lon="8.7153825"><ele>109.8</ele><time>2026-05-01T11:38:13.223Z</time></trkpt><trkpt lat="39.0905838" lon="8.7153481"><ele>108.6</ele><time>2026-05-01T11:38:14.223Z</time></trkpt><trkpt lat="39.090484" lon="8.7153135"><ele>107.4</ele><time>2026-05-01T11:38:15.224Z</time></trkpt><trkpt lat="39.0903798" lon="8.7152786"><ele>106.2</ele><time>2026-05-01T11:38:16.223Z</time></trkpt><trkpt lat="39.090272" lon="8.7152445"><ele>105.0</ele><time>2026-05-01T11:38:17.223Z</time></trkpt><trkpt lat="39.0901638" lon="8.7152119"><ele>104.8</ele><time>2026-05-01T11:38:18.223Z</time></trkpt><trkpt lat="39.0900548" lon="8.7151754"><ele>104.6</ele><time>2026-05-01T11:38:19.223Z</time></trkpt><trkpt lat="39.0899463" lon="8.7151401"><ele>104.4</ele><time>2026-05-01T11:38:20.224Z</time></trkpt><trkpt lat="39.0898397" lon="8.7151004"><ele>104.2</ele><time>2026-05-01T11:38:21.223Z</time></trkpt><trkpt lat="39.0897334" lon="8.7150582"><ele>104.0</ele><time>2026-05-01T11:38:22.224Z</time></trkpt><trkpt lat="39.089624" lon="8.7150155"><ele>103.5</ele><time>2026-05-01T11:38:23.224Z</time></trkpt><trkpt lat="39.0895197" lon="8.7149786"><ele>103.0</ele><time>2026-05-01T11:38:24.223Z</time></trkpt><trkpt lat="39.0894088" lon="8.7149367"><ele>102.5</ele><time>2026-05-01T11:38:25.223Z</time></trkpt><trkpt lat="39.0892991" lon="8.7148984"><ele>102.0</ele><time>2026-05-01T11:38:26.223Z</time></trkpt><trkpt lat="39.0891849" lon="8.7148578"><ele>102.25</ele><time>2026-05-01T11:38:27.224Z</time></trkpt><trkpt lat="39.0890707" lon="8.7148139"><ele>102.5</ele><time>2026-05-01T11:38:28.223Z</time></trkpt><trkpt lat="39.0889553" lon="8.7147697"><ele>102.75</ele><time>2026-05-01T11:38:29.223Z</time></trkpt><trkpt lat="39.0888416" lon="8.7147266"><ele>103.0</ele><time>2026-05-01T11:38:30.224Z</time></trkpt><trkpt lat="39.0887344" lon="8.7146843"><ele>103.0</ele><time>2026-05-01T11:38:31.223Z</time></trkpt><trkpt lat="39.0886312" lon="8.7146391"><ele>103.0</ele><time>2026-05-01T11:38:32.223Z</time></trkpt><trkpt lat="39.0885307" lon="8.7145887"><ele>103.0</ele><time>2026-05-01T11:38:33.223Z</time></trkpt><trkpt lat="39.0884347" lon="8.7145328"><ele>103.0</ele><time>2026-05-01T11:38:34.223Z</time></trkpt><trkpt lat="39.0883377" lon="8.7144685"><ele>103.0</ele><time>2026-05-01T11:38:35.223Z</time></trkpt><trkpt lat="39.0882389" lon="8.7144009"><ele>103.0</ele><time>2026-05-01T11:38:36.223Z</time></trkpt><trkpt lat="39.0881405" lon="8.7143264"><ele>103.0</ele><time>2026-05-01T11:38:37.223Z</time></trkpt><trkpt lat="39.0880412" lon="8.714251"><ele>103.0</ele><time>2026-05-01T11:38:38.224Z</time></trkpt><trkpt lat="39.0879346" lon="8.7141819"><ele>103.0</ele><time>2026-05-01T11:38:39.223Z</time></trkpt><trkpt lat="39.0878194" lon="8.7141224"><ele>103.0</ele><time>2026-05-01T11:38:40.223Z</time></trkpt><trkpt lat="39.0876983" lon="8.7140671"><ele>103.0</ele><time>2026-05-01T11:38:41.224Z</time></trkpt><trkpt lat="39.0875735" lon="8.7140167"><ele>103.0</ele><time>2026-05-01T11:38:42.224Z</time></trkpt><trkpt lat="39.0874474" lon="8.7139663"><ele>103.0</ele><time>2026-05-01T11:38:43.224Z</time></trkpt><trkpt lat="39.0873242" lon="8.7139186"><ele>103.25</ele><time>2026-05-01T11:38:44.224Z</time></trkpt><trkpt lat="39.0872061" lon="8.713872"><ele>103.5</ele><time>2026-05-01T11:38:45.224Z</time></trkpt><trkpt lat="39.0870944" lon="8.713828"><ele>103.75</ele><time>2026-05-01T11:38:46.223Z</time></trkpt><trkpt lat="39.0869816" lon="8.7137849"><ele>104.0</ele><time>2026-05-01T11:38:47.224Z</time></trkpt><trkpt lat="39.0868675" lon="8.7137412"><ele>104.0</ele><time>2026-05-01T11:38:48.223Z</time></trkpt><trkpt lat="39.0867605" lon="8.7136907"><ele>104.0</ele><time>2026-05-01T11:38:49.224Z</time></trkpt><trkpt lat="39.0866459" lon="8.7136502"><ele>104.0</ele><time>2026-05-01T11:38:50.224Z</time></trkpt><trkpt lat="39.0865333" lon="8.7136083"><ele>104.0</ele><time>2026-05-01T11:38:51.223Z</time></trkpt><trkpt lat="39.0864202" lon="8.7135602"><ele>104.75</ele><time>2026-05-01T11:38:52.223Z</time></trkpt><trkpt lat="39.086309" lon="8.7135132"><ele>105.5</ele><time>2026-05-01T11:38:53.224Z</time></trkpt><trkpt lat="39.086198" lon="8.7134651"><ele>106.25</ele><time>2026-05-01T11:38:54.223Z</time></trkpt><trkpt lat="39.0860851" lon="8.7134164"><ele>107.0</ele><time>2026-05-01T11:38:55.223Z</time></trkpt><trkpt lat="39.0859729" lon="8.7133669"><ele>107.0</ele><time>2026-05-01T11:38:56.223Z</time></trkpt><trkpt lat="39.0858673" lon="8.7133208"><ele>106.99999999999999</ele><time>2026-05-01T11:38:57.223Z</time></trkpt><trkpt lat="39.0857723" lon="8.7132756"><ele>106.99999999999999</ele><time>2026-05-01T11:38:58.223Z</time></trkpt><trkpt lat="39.0856795" lon="8.7132327"><ele>107.0</ele><time>2026-05-01T11:38:59.223Z</time></trkpt><trkpt lat="39.0855977" lon="8.7131898"><ele>107.0</ele><time>2026-05-01T11:39:00.224Z</time></trkpt><trkpt lat="39.0855257" lon="8.7131454"><ele>107.16666666666666</ele><time>2026-05-01T11:39:01.224Z</time></trkpt><trkpt lat="39.0854657" lon="8.7131033"><ele>107.33333333333333</ele><time>2026-05-01T11:39:02.224Z</time></trkpt><trkpt lat="39.0853809" lon="8.7130562"><ele>107.5</ele><time>2026-05-01T11:39:04.224Z</time></trkpt><trkpt lat="39.085313" lon="8.71306"><ele>107.66666666666666</ele><time>2026-05-01T11:39:06.224Z</time></trkpt><trkpt lat="39.0852351" lon="8.7131238"><ele>107.83333333333333</ele><time>2026-05-01T11:39:08.223Z</time></trkpt><trkpt lat="39.0851456" lon="8.7132204"><ele>108.0</ele><time>2026-05-01T11:39:10.224Z</time></trkpt><trkpt lat="39.085091" lon="8.7132723"><ele>108.0</ele><time>2026-05-01T11:39:11.223Z</time></trkpt><trkpt lat="39.0850344" lon="8.7133286"><ele>108.0</ele><time>2026-05-01T11:39:12.224Z</time></trkpt><trkpt lat="39.0849714" lon="8.7133865"><ele>108.0</ele><time>2026-05-01T11:39:13.224Z</time></trkpt><trkpt lat="39.0849081" lon="8.7134482"><ele>108.0</ele><time>2026-05-01T11:39:14.224Z</time></trkpt><trkpt lat="39.0848548" lon="8.7135144"><ele>108.0</ele><time>2026-05-01T11:39:15.224Z</time></trkpt><trkpt lat="39.0848083" lon="8.7135873"><ele>108.0</ele><time>2026-05-01T11:39:16.223Z</time></trkpt><trkpt lat="39.0847688" lon="8.7136646"><ele>108.0</ele><time>2026-05-01T11:39:17.223Z</time></trkpt><trkpt lat="39.084726" lon="8.7137449"><ele>108.0</ele><time>2026-05-01T11:39:18.224Z</time></trkpt><trkpt lat="39.0846791" lon="8.7138241"><ele>108.0</ele><time>2026-05-01T11:39:19.224Z</time></trkpt><trkpt lat="39.0846288" lon="8.7139018"><ele>108.0</ele><time>2026-05-01T11:39:20.223Z</time></trkpt><trkpt lat="39.0845735" lon="8.7139849"><ele>108.0</ele><time>2026-05-01T11:39:21.223Z</time></trkpt><trkpt lat="39.0845128" lon="8.7140795"><ele>108.0</ele><time>2026-05-01T11:39:22.224Z</time></trkpt><trkpt lat="39.0844569" lon="8.714179"><ele>108.0</ele><time>2026-05-01T11:39:23.224Z</time></trkpt><trkpt lat="39.0844086" lon="8.7142709"><ele>108.0</ele><time>2026-05-01T11:39:24.224Z</time></trkpt><trkpt lat="39.0843545" lon="8.714367"><ele>108.00000000000001</ele><time>2026-05-01T11:39:25.223Z</time></trkpt><trkpt lat="39.0842971" lon="8.714458"><ele>108.00000000000001</ele><time>2026-05-01T11:39:26.224Z</time></trkpt><trkpt lat="39.0842302" lon="8.7145364"><ele>108.0</ele><time>2026-05-01T11:39:27.224Z</time></trkpt><trkpt lat="39.0841544" lon="8.7146027"><ele>108.0</ele><time>2026-05-01T11:39:28.224Z</time></trkpt><trkpt lat="39.0840679" lon="8.7146531"><ele>108.2</ele><time>2026-05-01T11:39:29.223Z</time></trkpt><trkpt lat="39.0839734" lon="8.7146873"><ele>108.4</ele><time>2026-05-01T11:39:30.224Z</time></trkpt><trkpt lat="39.0838758" lon="8.7147034"><ele>108.60000000000001</ele><time>2026-05-01T11:39:31.223Z</time></trkpt><trkpt lat="39.083773" lon="8.7147104"><ele>108.80000000000001</ele><time>2026-05-01T11:39:32.224Z</time></trkpt><trkpt lat="39.083669" lon="8.7147116"><ele>109.0</ele><time>2026-05-01T11:39:33.223Z</time></trkpt><trkpt lat="39.0835613" lon="8.7147126"><ele>109.0</ele><time>2026-05-01T11:39:34.224Z</time></trkpt><trkpt lat="39.0834496" lon="8.7147152"><ele>109.0</ele><time>2026-05-01T11:39:35.224Z</time></trkpt><trkpt lat="39.0833325" lon="8.7147193"><ele>109.0</ele><time>2026-05-01T11:39:36.224Z</time></trkpt><trkpt lat="39.0832112" lon="8.7147248"><ele>109.0</ele><time>2026-05-01T11:39:37.223Z</time></trkpt><trkpt lat="39.0830859" lon="8.7147326"><ele>109.0</ele><time>2026-05-01T11:39:38.224Z</time></trkpt><trkpt lat="39.0829574" lon="8.714747"><ele>109.0</ele><time>2026-05-01T11:39:39.223Z</time></trkpt><trkpt lat="39.0828265" lon="8.7147681"><ele>109.0</ele><time>2026-05-01T11:39:40.224Z</time></trkpt><trkpt lat="39.0826956" lon="8.714812"><ele>109.0</ele><time>2026-05-01T11:39:41.223Z</time></trkpt><trkpt lat="39.0825673" lon="8.7148722"><ele>109.0</ele><time>2026-05-01T11:39:42.223Z</time></trkpt><trkpt lat="39.0824384" lon="8.7149405"><ele>109.0</ele><time>2026-05-01T11:39:43.223Z</time></trkpt><trkpt lat="39.0823068" lon="8.7150107"><ele>109.0</ele><time>2026-05-01T11:39:44.223Z</time></trkpt><trkpt lat="39.0821725" lon="8.7150768"><ele>109.0</ele><time>2026-05-01T11:39:45.223Z</time></trkpt><trkpt lat="39.0820354" lon="8.7151378"><ele>108.75</ele><time>2026-05-01T11:39:46.223Z</time></trkpt><trkpt lat="39.081894" lon="8.7151877"><ele>108.5</ele><time>2026-05-01T11:39:47.223Z</time></trkpt><trkpt lat="39.0817482" lon="8.7152207"><ele>108.25</ele><time>2026-05-01T11:39:48.223Z</time></trkpt><trkpt lat="39.0815992" lon="8.7152326"><ele>108.0</ele><time>2026-05-01T11:39:49.223Z</time></trkpt><trkpt lat="39.0814471" lon="8.7152231"><ele>108.0</ele><time>2026-05-01T11:39:50.224Z</time></trkpt><trkpt lat="39.0812914" lon="8.7151972"><ele>108.0</ele><time>2026-05-01T11:39:51.224Z</time></trkpt><trkpt lat="39.0811312" lon="8.7151611"><ele>108.0</ele><time>2026-05-01T11:39:52.224Z</time></trkpt><trkpt lat="39.0809666" lon="8.7151213"><ele>108.0</ele><time>2026-05-01T11:39:53.224Z</time></trkpt><trkpt lat="39.0808089" lon="8.7150827"><ele>108.0</ele><time>2026-05-01T11:39:54.224Z</time></trkpt><trkpt lat="39.0806358" lon="8.7150417"><ele>108.0</ele><time>2026-05-01T11:39:55.224Z</time></trkpt><trkpt lat="39.0804575" lon="8.7149983"><ele>109.0</ele><time>2026-05-01T11:39:56.224Z</time></trkpt><trkpt lat="39.0802718" lon="8.7149519"><ele>110.0</ele><time>2026-05-01T11:39:57.223Z</time></trkpt><trkpt lat="39.0800843" lon="8.7149007"><ele>111.0</ele><time>2026-05-01T11:39:58.224Z</time></trkpt><trkpt lat="39.0798949" lon="8.7148398"><ele>112.0</ele><time>2026-05-01T11:39:59.223Z</time></trkpt><trkpt lat="39.0797051" lon="8.7147693"><ele>113.0</ele><time>2026-05-01T11:40:00.223Z</time></trkpt><trkpt lat="39.0795141" lon="8.7146906"><ele>114.0</ele><time>2026-05-01T11:40:01.223Z</time></trkpt><trkpt lat="39.0793221" lon="8.7146038"><ele>114.0</ele><time>2026-05-01T11:40:02.223Z</time></trkpt><trkpt lat="39.0791323" lon="8.7145076"><ele>114.0</ele><time>2026-05-01T11:40:03.224Z</time></trkpt><trkpt lat="39.0789464" lon="8.7144063"><ele>114.0</ele><time>2026-05-01T11:40:04.223Z</time></trkpt><trkpt lat="39.0787599" lon="8.7143071"><ele>116.33333333333334</ele><time>2026-05-01T11:40:05.223Z</time></trkpt><trkpt lat="39.0785723" lon="8.7142132"><ele>118.66666666666667</ele><time>2026-05-01T11:40:06.223Z</time></trkpt><trkpt lat="39.0783825" lon="8.7141255"><ele>121.0</ele><time>2026-05-01T11:40:07.224Z</time></trkpt><trkpt lat="39.0781899" lon="8.7140448"><ele>121.33333333333334</ele><time>2026-05-01T11:40:08.224Z</time></trkpt><trkpt lat="39.0779943" lon="8.7139676"><ele>121.66666666666666</ele><time>2026-05-01T11:40:09.223Z</time></trkpt><trkpt lat="39.0777983" lon="8.7138938"><ele>122.0</ele><time>2026-05-01T11:40:10.223Z</time></trkpt><trkpt lat="39.0776043" lon="8.7138215"><ele>123.0</ele><time>2026-05-01T11:40:11.223Z</time></trkpt><trkpt lat="39.0774096" lon="8.7137515"><ele>124.0</ele><time>2026-05-01T11:40:12.223Z</time></trkpt><trkpt lat="39.0772172" lon="8.7136777"><ele>125.0</ele><time>2026-05-01T11:40:13.224Z</time></trkpt><trkpt lat="39.0770246" lon="8.7136008"><ele>126.0</ele><time>2026-05-01T11:40:14.223Z</time></trkpt><trkpt lat="39.076832" lon="8.7135231"><ele>127.0</ele><time>2026-05-01T11:40:15.223Z</time></trkpt><trkpt lat="39.0766428" lon="8.713435"><ele>128.0</ele><time>2026-05-01T11:40:16.224Z</time></trkpt><trkpt lat="39.0764596" lon="8.7133341"><ele>128.66666666666666</ele><time>2026-05-01T11:40:17.224Z</time></trkpt><trkpt lat="39.0762811" lon="8.7132241"><ele>129.33333333333334</ele><time>2026-05-01T11:40:18.223Z</time></trkpt><trkpt lat="39.0761081" lon="8.7131166"><ele>130.0</ele><time>2026-05-01T11:40:19.224Z</time></trkpt><trkpt lat="39.0759456" lon="8.7130223"><ele>130.0</ele><time>2026-05-01T11:40:20.224Z</time></trkpt><trkpt lat="39.0757879" lon="8.7129446"><ele>130.0</ele><time>2026-05-01T11:40:21.224Z</time></trkpt><trkpt lat="39.0756338" lon="8.7128902"><ele>130.0</ele><time>2026-05-01T11:40:22.223Z</time></trkpt><trkpt lat="39.0754767" lon="8.7128655"><ele>129.66666666666669</ele><time>2026-05-01T11:40:23.224Z</time></trkpt><trkpt lat="39.0753154" lon="8.7128655"><ele>129.33333333333334</ele><time>2026-05-01T11:40:24.223Z</time></trkpt><trkpt lat="39.0751514" lon="8.7128823"><ele>129.0</ele><time>2026-05-01T11:40:25.223Z</time></trkpt><trkpt lat="39.0749835" lon="8.712913"><ele>128.33333333333334</ele><time>2026-05-01T11:40:26.223Z</time></trkpt><trkpt lat="39.0748119" lon="8.712947"><ele>127.66666666666667</ele><time>2026-05-01T11:40:27.223Z</time></trkpt><trkpt lat="39.0746388" lon="8.7129664"><ele>127.0</ele><time>2026-05-01T11:40:28.223Z</time></trkpt><trkpt lat="39.0744665" lon="8.7129616"><ele>127.0</ele><time>2026-05-01T11:40:29.223Z</time></trkpt><trkpt lat="39.0742975" lon="8.7129302"><ele>127.0</ele><time>2026-05-01T11:40:30.223Z</time></trkpt><trkpt lat="39.0741322" lon="8.7128764"><ele>127.0</ele><time>2026-05-01T11:40:31.223Z</time></trkpt><trkpt lat="39.0739681" lon="8.7128078"><ele>128.66666666666669</ele><time>2026-05-01T11:40:32.224Z</time></trkpt><trkpt lat="39.0738024" lon="8.7127278"><ele>130.33333333333334</ele><time>2026-05-01T11:40:33.224Z</time></trkpt><trkpt lat="39.0736344" lon="8.7126396"><ele>132.0</ele><time>2026-05-01T11:40:34.223Z</time></trkpt><trkpt lat="39.0734713" lon="8.7125451"><ele>132.0</ele><time>2026-05-01T11:40:35.224Z</time></trkpt><trkpt lat="39.0733244" lon="8.7124399"><ele>132.0</ele><time>2026-05-01T11:40:36.224Z</time></trkpt><trkpt lat="39.0731896" lon="8.7123119"><ele>132.0</ele><time>2026-05-01T11:40:37.224Z</time></trkpt><trkpt lat="39.0730665" lon="8.7121628"><ele>131.66666666666666</ele><time>2026-05-01T11:40:38.224Z</time></trkpt><trkpt lat="39.0729583" lon="8.7119951"><ele>131.33333333333331</ele><time>2026-05-01T11:40:39.223Z</time></trkpt><trkpt lat="39.0728636" lon="8.7118132"><ele>131.0</ele><time>2026-05-01T11:40:40.224Z</time></trkpt><trkpt lat="39.0727766" lon="8.7116225"><ele>131.0</ele><time>2026-05-01T11:40:41.224Z</time></trkpt><trkpt lat="39.0726925" lon="8.7114408"><ele>131.0</ele><time>2026-05-01T11:40:42.224Z</time></trkpt><trkpt lat="39.0726035" lon="8.7112734"><ele>131.0</ele><time>2026-05-01T11:40:43.224Z</time></trkpt><trkpt lat="39.0725009" lon="8.7111249"><ele>132.0</ele><time>2026-05-01T11:40:44.224Z</time></trkpt><trkpt lat="39.0723841" lon="8.7109931"><ele>133.0</ele><time>2026-05-01T11:40:45.224Z</time></trkpt><trkpt lat="39.0722512" lon="8.7108781"><ele>134.0</ele><time>2026-05-01T11:40:46.224Z</time></trkpt><trkpt lat="39.0721058" lon="8.7107813"><ele>134.0</ele><time>2026-05-01T11:40:47.224Z</time></trkpt><trkpt lat="39.0719526" lon="8.7106965"><ele>134.0</ele><time>2026-05-01T11:40:48.224Z</time></trkpt><trkpt lat="39.0717962" lon="8.7106197"><ele>134.0</ele><time>2026-05-01T11:40:49.223Z</time></trkpt><trkpt lat="39.0716489" lon="8.7105455"><ele>134.0</ele><time>2026-05-01T11:40:50.223Z</time></trkpt><trkpt lat="39.0715104" lon="8.7104726"><ele>134.0</ele><time>2026-05-01T11:40:51.224Z</time></trkpt><trkpt lat="39.0713756" lon="8.7104023"><ele>134.0</ele><time>2026-05-01T11:40:52.224Z</time></trkpt><trkpt lat="39.0712432" lon="8.71033"><ele>134.0</ele><time>2026-05-01T11:40:53.224Z</time></trkpt><trkpt lat="39.0711118" lon="8.7102509"><ele>134.25</ele><time>2026-05-01T11:40:54.223Z</time></trkpt><trkpt lat="39.0709861" lon="8.7101555"><ele>134.5</ele><time>2026-05-01T11:40:55.223Z</time></trkpt><trkpt lat="39.0708691" lon="8.7100472"><ele>134.75</ele><time>2026-05-01T11:40:56.223Z</time></trkpt><trkpt lat="39.0707643" lon="8.7099152"><ele>135.0</ele><time>2026-05-01T11:40:57.224Z</time></trkpt><trkpt lat="39.0706686" lon="8.709762"><ele>135.0</ele><time>2026-05-01T11:40:58.224Z</time></trkpt><trkpt lat="39.0705766" lon="8.7095963"><ele>135.0</ele><time>2026-05-01T11:40:59.224Z</time></trkpt><trkpt lat="39.070483" lon="8.70942"><ele>135.0</ele><time>2026-05-01T11:41:00.224Z</time></trkpt><trkpt lat="39.0703853" lon="8.7092379"><ele>135.66666666666666</ele><time>2026-05-01T11:41:01.223Z</time></trkpt><trkpt lat="39.0702903" lon="8.7090523"><ele>136.33333333333331</ele><time>2026-05-01T11:41:02.223Z</time></trkpt><trkpt lat="39.070204" lon="8.7088595"><ele>137.0</ele><time>2026-05-01T11:41:03.224Z</time></trkpt><trkpt lat="39.0701314" lon="8.7086592"><ele>137.66666666666666</ele><time>2026-05-01T11:41:04.223Z</time></trkpt><trkpt lat="39.0700718" lon="8.7084507"><ele>138.33333333333334</ele><time>2026-05-01T11:41:05.223Z</time></trkpt><trkpt lat="39.0700167" lon="8.7082381"><ele>139.0</ele><time>2026-05-01T11:41:06.224Z</time></trkpt><trkpt lat="39.0699649" lon="8.7080231"><ele>140.33333333333334</ele><time>2026-05-01T11:41:07.224Z</time></trkpt><trkpt lat="39.0699121" lon="8.707805"><ele>141.66666666666666</ele><time>2026-05-01T11:41:08.223Z</time></trkpt><trkpt lat="39.0698577" lon="8.707584"><ele>143.0</ele><time>2026-05-01T11:41:09.224Z</time></trkpt><trkpt lat="39.0698014" lon="8.7073605"><ele>143.0</ele><time>2026-05-01T11:41:10.224Z</time></trkpt><trkpt lat="39.0697418" lon="8.707132"><ele>143.0</ele><time>2026-05-01T11:41:11.224Z</time></trkpt><trkpt lat="39.0696782" lon="8.7069004"><ele>143.0</ele><time>2026-05-01T11:41:12.224Z</time></trkpt><trkpt lat="39.0696132" lon="8.706664"><ele>142.33333333333331</ele><time>2026-05-01T11:41:13.224Z</time></trkpt><trkpt lat="39.0695506" lon="8.7064196"><ele>141.66666666666666</ele><time>2026-05-01T11:41:14.224Z</time></trkpt><trkpt lat="39.0694875" lon="8.7061688"><ele>141.0</ele><time>2026-05-01T11:41:15.223Z</time></trkpt><trkpt lat="39.0694259" lon="8.7059141"><ele>140.33333333333334</ele><time>2026-05-01T11:41:16.223Z</time></trkpt><trkpt lat="39.0693634" lon="8.7056557"><ele>139.66666666666669</ele><time>2026-05-01T11:41:17.223Z</time></trkpt><trkpt lat="39.0693017" lon="8.7053954"><ele>139.0</ele><time>2026-05-01T11:41:18.223Z</time></trkpt><trkpt lat="39.0692428" lon="8.7051346"><ele>137.33333333333334</ele><time>2026-05-01T11:41:19.223Z</time></trkpt><trkpt lat="39.0691858" lon="8.7048692"><ele>135.66666666666666</ele><time>2026-05-01T11:41:20.224Z</time></trkpt><trkpt lat="39.0691281" lon="8.704601"><ele>134.0</ele><time>2026-05-01T11:41:21.224Z</time></trkpt><trkpt lat="39.0690689" lon="8.7043316"><ele>137.0</ele><time>2026-05-01T11:41:22.223Z</time></trkpt><trkpt lat="39.0690103" lon="8.7040609"><ele>140.0</ele><time>2026-05-01T11:41:23.223Z</time></trkpt><trkpt lat="39.068951" lon="8.7037885"><ele>143.0</ele><time>2026-05-01T11:41:24.223Z</time></trkpt><trkpt lat="39.0688924" lon="8.7035191"><ele>143.0</ele><time>2026-05-01T11:41:25.223Z</time></trkpt><trkpt lat="39.068832" lon="8.7032483"><ele>143.0</ele><time>2026-05-01T11:41:26.224Z</time></trkpt><trkpt lat="39.0687714" lon="8.7029764"><ele>143.0</ele><time>2026-05-01T11:41:27.224Z</time></trkpt><trkpt lat="39.0687101" lon="8.7027025"><ele>141.0</ele><time>2026-05-01T11:41:28.223Z</time></trkpt><trkpt lat="39.0686501" lon="8.7024288"><ele>139.0</ele><time>2026-05-01T11:41:29.224Z</time></trkpt><trkpt lat="39.0685927" lon="8.7021693"><ele>137.0</ele><time>2026-05-01T11:41:30.224Z</time></trkpt><trkpt lat="39.0685361" lon="8.7019082"><ele>135.33333333333331</ele><time>2026-05-01T11:41:31.223Z</time></trkpt><trkpt lat="39.0684796" lon="8.7016456"><ele>133.66666666666666</ele><time>2026-05-01T11:41:32.224Z</time></trkpt><trkpt lat="39.0684236" lon="8.7013795"><ele>132.0</ele><time>2026-05-01T11:41:33.223Z</time></trkpt><trkpt lat="39.0683688" lon="8.7011142"><ele>131.66666666666666</ele><time>2026-05-01T11:41:34.223Z</time></trkpt><trkpt lat="39.0683186" lon="8.7008462"><ele>131.33333333333331</ele><time>2026-05-01T11:41:35.224Z</time></trkpt><trkpt lat="39.0682738" lon="8.7005712"><ele>131.0</ele><time>2026-05-01T11:41:36.224Z</time></trkpt><trkpt lat="39.0682304" lon="8.7002921"><ele>130.33333333333331</ele><time>2026-05-01T11:41:37.223Z</time></trkpt><trkpt lat="39.0681904" lon="8.7000189"><ele>129.66666666666666</ele><time>2026-05-01T11:41:38.223Z</time></trkpt><trkpt lat="39.0681529" lon="8.6997538"><ele>129.0</ele><time>2026-05-01T11:41:39.224Z</time></trkpt><trkpt lat="39.0681201" lon="8.6994857"><ele>128.0</ele><time>2026-05-01T11:41:40.223Z</time></trkpt><trkpt lat="39.068096" lon="8.699217"><ele>127.0</ele><time>2026-05-01T11:41:41.223Z</time></trkpt><trkpt lat="39.0680829" lon="8.6989535"><ele>126.0</ele><time>2026-05-01T11:41:42.223Z</time></trkpt><trkpt lat="39.0680764" lon="8.6986907"><ele>125.33333333333334</ele><time>2026-05-01T11:41:43.224Z</time></trkpt><trkpt lat="39.0680712" lon="8.6984299"><ele>124.66666666666667</ele><time>2026-05-01T11:41:44.223Z</time></trkpt><trkpt lat="39.0680685" lon="8.6981778"><ele>124.0</ele><time>2026-05-01T11:41:45.224Z</time></trkpt><trkpt lat="39.0680653" lon="8.6979372"><ele>124.33333333333334</ele><time>2026-05-01T11:41:46.224Z</time></trkpt><trkpt lat="39.0680607" lon="8.6977156"><ele>124.66666666666666</ele><time>2026-05-01T11:41:47.223Z</time></trkpt><trkpt lat="39.068053" lon="8.6975196"><ele>125.0</ele><time>2026-05-01T11:41:48.223Z</time></trkpt><trkpt lat="39.0680321" lon="8.6973431"><ele>125.0</ele><time>2026-05-01T11:41:49.224Z</time></trkpt><trkpt lat="39.0679916" lon="8.6971848"><ele>125.0</ele><time>2026-05-01T11:41:50.224Z</time></trkpt><trkpt lat="39.0679362" lon="8.6970434"><ele>125.0</ele><time>2026-05-01T11:41:51.223Z</time></trkpt><trkpt lat="39.0678672" lon="8.6969063"><ele>125.0</ele><time>2026-05-01T11:41:52.224Z</time></trkpt><trkpt lat="39.0677843" lon="8.6967816"><ele>125.5</ele><time>2026-05-01T11:41:53.224Z</time></trkpt><trkpt lat="39.0676816" lon="8.6966737"><ele>126.0</ele><time>2026-05-01T11:41:54.224Z</time></trkpt><trkpt lat="39.0675618" lon="8.6965871"><ele>126.5</ele><time>2026-05-01T11:41:55.224Z</time></trkpt><trkpt lat="39.0674298" lon="8.6965226"><ele>127.0</ele><time>2026-05-01T11:41:56.223Z</time></trkpt><trkpt lat="39.0672929" lon="8.6964699"><ele>127.0</ele><time>2026-05-01T11:41:57.223Z</time></trkpt><trkpt lat="39.0671494" lon="8.6964195"><ele>127.0</ele><time>2026-05-01T11:41:58.224Z</time></trkpt><trkpt lat="39.0670053" lon="8.6963688"><ele>127.0</ele><time>2026-05-01T11:41:59.224Z</time></trkpt><trkpt lat="39.06686" lon="8.696317"><ele>127.0</ele><time>2026-05-01T11:42:00.223Z</time></trkpt><trkpt lat="39.0667074" lon="8.6962634"><ele>129.0</ele><time>2026-05-01T11:42:01.224Z</time></trkpt><trkpt lat="39.0665496" lon="8.6962076"><ele>131.0</ele><time>2026-05-01T11:42:02.223Z</time></trkpt><trkpt lat="39.0663835" lon="8.6961519"><ele>133.0</ele><time>2026-05-01T11:42:03.223Z</time></trkpt><trkpt lat="39.0662134" lon="8.6960932"><ele>132.0</ele><time>2026-05-01T11:42:04.223Z</time></trkpt><trkpt lat="39.0660458" lon="8.6960337"><ele>131.0</ele><time>2026-05-01T11:42:05.223Z</time></trkpt><trkpt lat="39.0658802" lon="8.695975"><ele>130.0</ele><time>2026-05-01T11:42:06.224Z</time></trkpt><trkpt lat="39.0657248" lon="8.69593"><ele>130.0</ele><time>2026-05-01T11:42:07.223Z</time></trkpt><trkpt lat="39.0655679" lon="8.6958999"><ele>130.0</ele><time>2026-05-01T11:42:08.223Z</time></trkpt><trkpt lat="39.0654104" lon="8.6958961"><ele>130.0</ele><time>2026-05-01T11:42:09.224Z</time></trkpt><trkpt lat="39.0652496" lon="8.6959233"><ele>130.0</ele><time>2026-05-01T11:42:10.223Z</time></trkpt><trkpt lat="39.0650896" lon="8.695975"><ele>130.0</ele><time>2026-05-01T11:42:11.224Z</time></trkpt><trkpt lat="39.0649246" lon="8.6960452"><ele>130.0</ele><time>2026-05-01T11:42:12.223Z</time></trkpt><trkpt lat="39.0647504" lon="8.696119"><ele>130.0</ele><time>2026-05-01T11:42:13.224Z</time></trkpt><trkpt lat="39.0645695" lon="8.696196"><ele>130.0</ele><time>2026-05-01T11:42:14.224Z</time></trkpt><trkpt lat="39.0643813" lon="8.6962758"><ele>130.0</ele><time>2026-05-01T11:42:15.224Z</time></trkpt><trkpt lat="39.0641856" lon="8.6963543"><ele>129.0</ele><time>2026-05-01T11:42:16.223Z</time></trkpt><trkpt lat="39.0639831" lon="8.6964275"><ele>128.0</ele><time>2026-05-01T11:42:17.223Z</time></trkpt><trkpt lat="39.0637734" lon="8.6964919"><ele>127.0</ele><time>2026-05-01T11:42:18.223Z</time></trkpt><trkpt lat="39.0635584" lon="8.696546"><ele>127.0</ele><time>2026-05-01T11:42:19.224Z</time></trkpt><trkpt lat="39.0633378" lon="8.6965962"><ele>127.0</ele><time>2026-05-01T11:42:20.223Z</time></trkpt><trkpt lat="39.0631127" lon="8.6966438"><ele>125.0</ele><time>2026-05-01T11:42:21.224Z</time></trkpt><trkpt lat="39.0628869" lon="8.6966928"><ele>123.0</ele><time>2026-05-01T11:42:22.223Z</time></trkpt><trkpt lat="39.0626603" lon="8.6967402"><ele>124.0</ele><time>2026-05-01T11:42:23.223Z</time></trkpt><trkpt lat="39.0624348" lon="8.6967882"><ele>125.0</ele><time>2026-05-01T11:42:24.223Z</time></trkpt><trkpt lat="39.0622076" lon="8.6968363"><ele>125.0</ele><time>2026-05-01T11:42:25.224Z</time></trkpt><trkpt lat="39.0619814" lon="8.6968836"><ele>125.0</ele><time>2026-05-01T11:42:26.224Z</time></trkpt><trkpt lat="39.0617542" lon="8.6969299"><ele>126.33333333333333</ele><time>2026-05-01T11:42:27.224Z</time></trkpt><trkpt lat="39.0615389" lon="8.6969767"><ele>127.66666666666666</ele><time>2026-05-01T11:42:28.224Z</time></trkpt><trkpt lat="39.0613415" lon="8.6970229"><ele>129.0</ele><time>2026-05-01T11:42:29.224Z</time></trkpt><trkpt lat="39.0611562" lon="8.6970797"><ele>129.0</ele><time>2026-05-01T11:42:30.223Z</time></trkpt><trkpt lat="39.0609767" lon="8.6971582"><ele>129.0</ele><time>2026-05-01T11:42:31.223Z</time></trkpt><trkpt lat="39.0608043" lon="8.6972632"><ele>129.0</ele><time>2026-05-01T11:42:32.223Z</time></trkpt><trkpt lat="39.0606368" lon="8.6973952"><ele>129.33333333333334</ele><time>2026-05-01T11:42:33.224Z</time></trkpt><trkpt lat="39.06047" lon="8.6975443"><ele>129.66666666666669</ele><time>2026-05-01T11:42:34.224Z</time></trkpt><trkpt lat="39.0603022" lon="8.6976976"><ele>130.0</ele><time>2026-05-01T11:42:35.223Z</time></trkpt><trkpt lat="39.0601381" lon="8.6978447"><ele>130.0</ele><time>2026-05-01T11:42:36.223Z</time></trkpt><trkpt lat="39.0599752" lon="8.6979751"><ele>130.0</ele><time>2026-05-01T11:42:37.223Z</time></trkpt><trkpt lat="39.0598063" lon="8.6980729"><ele>130.0</ele><time>2026-05-01T11:42:38.223Z</time></trkpt><trkpt lat="39.0596279" lon="8.6981412"><ele>129.0</ele><time>2026-05-01T11:42:39.223Z</time></trkpt><trkpt lat="39.0594405" lon="8.698191"><ele>128.0</ele><time>2026-05-01T11:42:40.224Z</time></trkpt><trkpt lat="39.0592425" lon="8.6982299"><ele>127.0</ele><time>2026-05-01T11:42:41.223Z</time></trkpt><trkpt lat="39.0590418" lon="8.6982684"><ele>126.33333333333334</ele><time>2026-05-01T11:42:42.223Z</time></trkpt><trkpt lat="39.0588383" lon="8.6983043"><ele>125.66666666666666</ele><time>2026-05-01T11:42:43.224Z</time></trkpt><trkpt lat="39.0586347" lon="8.6983363"><ele>125.0</ele><time>2026-05-01T11:42:44.223Z</time></trkpt><trkpt lat="39.0584302" lon="8.6983671"><ele>125.0</ele><time>2026-05-01T11:42:45.223Z</time></trkpt><trkpt lat="39.0582206" lon="8.6983972"><ele>125.0</ele><time>2026-05-01T11:42:46.224Z</time></trkpt><trkpt lat="39.058004" lon="8.6984309"><ele>125.0</ele><time>2026-05-01T11:42:47.224Z</time></trkpt><trkpt lat="39.0577862" lon="8.6984654"><ele>125.0</ele><time>2026-05-01T11:42:48.224Z</time></trkpt><trkpt lat="39.0575662" lon="8.6984998"><ele>125.0</ele><time>2026-05-01T11:42:49.223Z</time></trkpt><trkpt lat="39.0573477" lon="8.6985349"><ele>125.0</ele><time>2026-05-01T11:42:50.223Z</time></trkpt><trkpt lat="39.0571309" lon="8.6985696"><ele>128.0</ele><time>2026-05-01T11:42:51.224Z</time></trkpt><trkpt lat="39.056916" lon="8.6986034"><ele>131.0</ele><time>2026-05-01T11:42:52.223Z</time></trkpt><trkpt lat="39.0567018" lon="8.6986359"><ele>134.0</ele><time>2026-05-01T11:42:53.224Z</time></trkpt><trkpt lat="39.0564864" lon="8.6986684"><ele>135.33333333333331</ele><time>2026-05-01T11:42:54.224Z</time></trkpt><trkpt lat="39.0562725" lon="8.6987005"><ele>136.66666666666666</ele><time>2026-05-01T11:42:55.223Z</time></trkpt><trkpt lat="39.0560722" lon="8.69873"><ele>138.0</ele><time>2026-05-01T11:42:56.224Z</time></trkpt><trkpt lat="39.0558808" lon="8.6987599"><ele>138.66666666666666</ele><time>2026-05-01T11:42:57.223Z</time></trkpt><trkpt lat="39.0556916" lon="8.6988012"><ele>139.33333333333331</ele><time>2026-05-01T11:42:58.224Z</time></trkpt><trkpt lat="39.0555078" lon="8.6988629"><ele>140.0</ele><time>2026-05-01T11:42:59.223Z</time></trkpt><trkpt lat="39.0553302" lon="8.6989484"><ele>140.0</ele><time>2026-05-01T11:43:00.223Z</time></trkpt><trkpt lat="39.055158" lon="8.6990573"><ele>140.0</ele><time>2026-05-01T11:43:01.224Z</time></trkpt><trkpt lat="39.0549916" lon="8.6991865"><ele>140.0</ele><time>2026-05-01T11:43:02.224Z</time></trkpt><trkpt lat="39.0548285" lon="8.6993273"><ele>136.66666666666666</ele><time>2026-05-01T11:43:03.224Z</time></trkpt><trkpt lat="39.0546662" lon="8.699477"><ele>133.33333333333334</ele><time>2026-05-01T11:43:04.223Z</time></trkpt><trkpt lat="39.0544992" lon="8.6996315"><ele>130.0</ele><time>2026-05-01T11:43:05.223Z</time></trkpt><trkpt lat="39.0543279" lon="8.6997869"><ele>130.0</ele><time>2026-05-01T11:43:06.223Z</time></trkpt><trkpt lat="39.0541612" lon="8.6999366"><ele>130.0</ele><time>2026-05-01T11:43:07.223Z</time></trkpt><trkpt lat="39.0539911" lon="8.7000916"><ele>130.0</ele><time>2026-05-01T11:43:08.224Z</time></trkpt><trkpt lat="39.0538159" lon="8.700253"><ele>127.33333333333334</ele><time>2026-05-01T11:43:09.223Z</time></trkpt><trkpt lat="39.0536382" lon="8.7004185"><ele>124.66666666666666</ele><time>2026-05-01T11:43:10.224Z</time></trkpt><trkpt lat="39.0534663" lon="8.7005798"><ele>122.0</ele><time>2026-05-01T11:43:11.224Z</time></trkpt><trkpt lat="39.0532969" lon="8.7007365"><ele>121.0</ele><time>2026-05-01T11:43:12.224Z</time></trkpt><trkpt lat="39.0531303" lon="8.7008865"><ele>120.0</ele><time>2026-05-01T11:43:13.223Z</time></trkpt><trkpt lat="39.0529676" lon="8.7010361"><ele>119.0</ele><time>2026-05-01T11:43:14.223Z</time></trkpt><trkpt lat="39.0528089" lon="8.7011792"><ele>119.0</ele><time>2026-05-01T11:43:15.223Z</time></trkpt><trkpt lat="39.0526533" lon="8.7013026"><ele>119.0</ele><time>2026-05-01T11:43:16.224Z</time></trkpt><trkpt lat="39.0524958" lon="8.7014004"><ele>119.0</ele><time>2026-05-01T11:43:17.224Z</time></trkpt><trkpt lat="39.0523344" lon="8.7014665"><ele>117.66666666666666</ele><time>2026-05-01T11:43:18.223Z</time></trkpt><trkpt lat="39.0521689" lon="8.7015004"><ele>116.33333333333334</ele><time>2026-05-01T11:43:19.224Z</time></trkpt><trkpt lat="39.0519975" lon="8.7015143"><ele>115.0</ele><time>2026-05-01T11:43:20.223Z</time></trkpt><trkpt lat="39.0518216" lon="8.7015161"><ele>115.0</ele><time>2026-05-01T11:43:21.224Z</time></trkpt><trkpt lat="39.0516421" lon="8.7015131"><ele>115.0</ele><time>2026-05-01T11:43:22.223Z</time></trkpt><trkpt lat="39.0514687" lon="8.7015111"><ele>115.0</ele><time>2026-05-01T11:43:23.223Z</time></trkpt><trkpt lat="39.0512939" lon="8.701512"><ele>114.33333333333334</ele><time>2026-05-01T11:43:24.224Z</time></trkpt><trkpt lat="39.0511181" lon="8.7015135"><ele>113.66666666666666</ele><time>2026-05-01T11:43:25.224Z</time></trkpt><trkpt lat="39.0509463" lon="8.701515"><ele>113.0</ele><time>2026-05-01T11:43:26.224Z</time></trkpt><trkpt lat="39.0507788" lon="8.7015162"><ele>110.33333333333333</ele><time>2026-05-01T11:43:27.223Z</time></trkpt><trkpt lat="39.0506128" lon="8.7015245"><ele>107.66666666666666</ele><time>2026-05-01T11:43:28.223Z</time></trkpt><trkpt lat="39.0504451" lon="8.7015421"><ele>105.0</ele><time>2026-05-01T11:43:29.223Z</time></trkpt><trkpt lat="39.0502741" lon="8.7015669"><ele>105.0</ele><time>2026-05-01T11:43:30.223Z</time></trkpt><trkpt lat="39.0501015" lon="8.7016005"><ele>105.0</ele><time>2026-05-01T11:43:31.224Z</time></trkpt><trkpt lat="39.0499343" lon="8.7016426"><ele>105.0</ele><time>2026-05-01T11:43:32.224Z</time></trkpt><trkpt lat="39.04977" lon="8.7016902"><ele>103.66666666666666</ele><time>2026-05-01T11:43:33.223Z</time></trkpt><trkpt lat="39.0496064" lon="8.7017366"><ele>102.33333333333333</ele><time>2026-05-01T11:43:34.224Z</time></trkpt><trkpt lat="39.0494391" lon="8.7017879"><ele>101.0</ele><time>2026-05-01T11:43:35.224Z</time></trkpt><trkpt lat="39.0492734" lon="8.7018574"><ele>100.0</ele><time>2026-05-01T11:43:36.224Z</time></trkpt><trkpt lat="39.0491139" lon="8.7019511"><ele>99.0</ele><time>2026-05-01T11:43:37.224Z</time></trkpt><trkpt lat="39.04896" lon="8.7020588"><ele>98.0</ele><time>2026-05-01T11:43:38.224Z</time></trkpt><trkpt lat="39.048807" lon="8.7021748"><ele>98.0</ele><time>2026-05-01T11:43:39.224Z</time></trkpt><trkpt lat="39.0486524" lon="8.7022939"><ele>98.0</ele><time>2026-05-01T11:43:40.224Z</time></trkpt><trkpt lat="39.0484951" lon="8.7024148"><ele>98.0</ele><time>2026-05-01T11:43:41.224Z</time></trkpt><trkpt lat="39.0483343" lon="8.7025402"><ele>98.0</ele><time>2026-05-01T11:43:42.223Z</time></trkpt><trkpt lat="39.0481706" lon="8.7026693"><ele>98.0</ele><time>2026-05-01T11:43:43.223Z</time></trkpt><trkpt lat="39.0480043" lon="8.7027992"><ele>98.0</ele><time>2026-05-01T11:43:44.223Z</time></trkpt><trkpt lat="39.0478355" lon="8.7029295"><ele>98.66666666666666</ele><time>2026-05-01T11:43:45.223Z</time></trkpt><trkpt lat="39.0476649" lon="8.7030603"><ele>99.33333333333334</ele><time>2026-05-01T11:43:46.223Z</time></trkpt><trkpt lat="39.0474927" lon="8.7031932"><ele>100.0</ele><time>2026-05-01T11:43:47.223Z</time></trkpt><trkpt lat="39.0473215" lon="8.7033272"><ele>100.0</ele><time>2026-05-01T11:43:48.224Z</time></trkpt><trkpt lat="39.0471569" lon="8.7034563"><ele>100.0</ele><time>2026-05-01T11:43:49.224Z</time></trkpt><trkpt lat="39.046993" lon="8.7035837"><ele>100.0</ele><time>2026-05-01T11:43:50.224Z</time></trkpt><trkpt lat="39.0468273" lon="8.7037125"><ele>100.0</ele><time>2026-05-01T11:43:51.224Z</time></trkpt><trkpt lat="39.0466622" lon="8.7038411"><ele>100.0</ele><time>2026-05-01T11:43:52.224Z</time></trkpt><trkpt lat="39.0464944" lon="8.7039713"><ele>100.0</ele><time>2026-05-01T11:43:53.223Z</time></trkpt><trkpt lat="39.046327" lon="8.704103"><ele>100.0</ele><time>2026-05-01T11:43:54.223Z</time></trkpt><trkpt lat="39.0461674" lon="8.7042292"><ele>100.0</ele><time>2026-05-01T11:43:55.223Z</time></trkpt><trkpt lat="39.0460157" lon="8.704348"><ele>100.0</ele><time>2026-05-01T11:43:56.223Z</time></trkpt><trkpt lat="39.0458705" lon="8.704457"><ele>101.75</ele><time>2026-05-01T11:43:57.224Z</time></trkpt><trkpt lat="39.0457299" lon="8.7045497"><ele>103.5</ele><time>2026-05-01T11:43:58.224Z</time></trkpt><trkpt lat="39.0455916" lon="8.7046218"><ele>105.25</ele><time>2026-05-01T11:43:59.223Z</time></trkpt><trkpt lat="39.0454599" lon="8.7046748"><ele>107.0</ele><time>2026-05-01T11:44:00.223Z</time></trkpt><trkpt lat="39.0453349" lon="8.7047138"><ele>107.0</ele><time>2026-05-01T11:44:01.224Z</time></trkpt><trkpt lat="39.0452147" lon="8.7047396"><ele>107.0</ele><time>2026-05-01T11:44:02.223Z</time></trkpt><trkpt lat="39.0450954" lon="8.7047563"><ele>107.0</ele><time>2026-05-01T11:44:03.223Z</time></trkpt><trkpt lat="39.0449755" lon="8.7047698"><ele>107.0</ele><time>2026-05-01T11:44:04.224Z</time></trkpt><trkpt lat="39.044856" lon="8.7047811"><ele>107.5</ele><time>2026-05-01T11:44:05.223Z</time></trkpt><trkpt lat="39.044742" lon="8.7047942"><ele>108.0</ele><time>2026-05-01T11:44:06.224Z</time></trkpt><trkpt lat="39.0446265" lon="8.7048063"><ele>108.5</ele><time>2026-05-01T11:44:07.224Z</time></trkpt><trkpt lat="39.0445076" lon="8.7048173"><ele>109.0</ele><time>2026-05-01T11:44:08.223Z</time></trkpt><trkpt lat="39.0443845" lon="8.7048314"><ele>109.0</ele><time>2026-05-01T11:44:09.224Z</time></trkpt><trkpt lat="39.0442548" lon="8.7048468"><ele>109.0</ele><time>2026-05-01T11:44:10.224Z</time></trkpt><trkpt lat="39.0441181" lon="8.7048629"><ele>109.0</ele><time>2026-05-01T11:44:11.223Z</time></trkpt><trkpt lat="39.0439706" lon="8.7048851"><ele>109.0</ele><time>2026-05-01T11:44:12.224Z</time></trkpt><trkpt lat="39.0438156" lon="8.7049151"><ele>107.33333333333334</ele><time>2026-05-01T11:44:13.224Z</time></trkpt><trkpt lat="39.043654" lon="8.7049657"><ele>105.66666666666666</ele><time>2026-05-01T11:44:14.224Z</time></trkpt><trkpt lat="39.0434849" lon="8.7050351"><ele>104.0</ele><time>2026-05-01T11:44:15.224Z</time></trkpt><trkpt lat="39.0433077" lon="8.7051175"><ele>103.66666666666666</ele><time>2026-05-01T11:44:16.224Z</time></trkpt><trkpt lat="39.0431228" lon="8.7052083"><ele>103.33333333333334</ele><time>2026-05-01T11:44:17.223Z</time></trkpt><trkpt lat="39.0429302" lon="8.705303"><ele>103.0</ele><time>2026-05-01T11:44:18.224Z</time></trkpt><trkpt lat="39.042732" lon="8.705399"><ele>103.0</ele><time>2026-05-01T11:44:19.223Z</time></trkpt><trkpt lat="39.0425357" lon="8.7054945"><ele>103.0</ele><time>2026-05-01T11:44:20.223Z</time></trkpt><trkpt lat="39.0423397" lon="8.7055918"><ele>103.0</ele><time>2026-05-01T11:44:21.224Z</time></trkpt><trkpt lat="39.0421442" lon="8.705693"><ele>103.0</ele><time>2026-05-01T11:44:22.224Z</time></trkpt><trkpt lat="39.0419511" lon="8.705804"><ele>103.0</ele><time>2026-05-01T11:44:23.223Z</time></trkpt><trkpt lat="39.0417599" lon="8.7059222"><ele>103.0</ele><time>2026-05-01T11:44:24.223Z</time></trkpt><trkpt lat="39.0415682" lon="8.7060451"><ele>103.0</ele><time>2026-05-01T11:44:25.223Z</time></trkpt><trkpt lat="39.041375" lon="8.7061722"><ele>103.0</ele><time>2026-05-01T11:44:26.224Z</time></trkpt><trkpt lat="39.0411834" lon="8.7063009"><ele>103.0</ele><time>2026-05-01T11:44:27.224Z</time></trkpt><trkpt lat="39.0409982" lon="8.7064397"><ele>103.0</ele><time>2026-05-01T11:44:28.224Z</time></trkpt><trkpt lat="39.0408191" lon="8.7065927"><ele>103.0</ele><time>2026-05-01T11:44:29.223Z</time></trkpt><trkpt lat="39.0406495" lon="8.7067602"><ele>103.0</ele><time>2026-05-01T11:44:30.224Z</time></trkpt><trkpt lat="39.0404862" lon="8.7069372"><ele>103.33333333333334</ele><time>2026-05-01T11:44:31.224Z</time></trkpt><trkpt lat="39.0403288" lon="8.7071169"><ele>103.66666666666666</ele><time>2026-05-01T11:44:32.224Z</time></trkpt><trkpt lat="39.0401775" lon="8.7072892"><ele>104.0</ele><time>2026-05-01T11:44:33.224Z</time></trkpt><trkpt lat="39.0400229" lon="8.7074454"><ele>105.0</ele><time>2026-05-01T11:44:34.224Z</time></trkpt><trkpt lat="39.0398659" lon="8.7075749"><ele>106.0</ele><time>2026-05-01T11:44:35.223Z</time></trkpt><trkpt lat="39.0397008" lon="8.7076813"><ele>107.0</ele><time>2026-05-01T11:44:36.224Z</time></trkpt><trkpt lat="39.0395298" lon="8.7077656"><ele>106.33333333333333</ele><time>2026-05-01T11:44:37.223Z</time></trkpt><trkpt lat="39.0393526" lon="8.7078324"><ele>105.66666666666666</ele><time>2026-05-01T11:44:38.223Z</time></trkpt><trkpt lat="39.0391709" lon="8.7078871"><ele>105.0</ele><time>2026-05-01T11:44:39.223Z</time></trkpt><trkpt lat="39.038987" lon="8.707942"><ele>105.0</ele><time>2026-05-01T11:44:40.223Z</time></trkpt><trkpt lat="39.0388009" lon="8.707998"><ele>105.0</ele><time>2026-05-01T11:44:41.223Z</time></trkpt><trkpt lat="39.0386126" lon="8.7080548"><ele>105.0</ele><time>2026-05-01T11:44:42.224Z</time></trkpt><trkpt lat="39.0384232" lon="8.7081113"><ele>105.66666666666666</ele><time>2026-05-01T11:44:43.223Z</time></trkpt><trkpt lat="39.0382329" lon="8.7081689"><ele>106.33333333333333</ele><time>2026-05-01T11:44:44.224Z</time></trkpt><trkpt lat="39.0380436" lon="8.7082249"><ele>107.0</ele><time>2026-05-01T11:44:45.223Z</time></trkpt><trkpt lat="39.0378642" lon="8.7082717"><ele>107.0</ele><time>2026-05-01T11:44:46.223Z</time></trkpt><trkpt lat="39.0376803" lon="8.7083079"><ele>107.0</ele><time>2026-05-01T11:44:47.224Z</time></trkpt><trkpt lat="39.0374948" lon="8.7083313"><ele>107.0</ele><time>2026-05-01T11:44:48.224Z</time></trkpt><trkpt lat="39.0373036" lon="8.7083474"><ele>108.66666666666666</ele><time>2026-05-01T11:44:49.224Z</time></trkpt><trkpt lat="39.0371076" lon="8.708362"><ele>110.33333333333334</ele><time>2026-05-01T11:44:50.223Z</time></trkpt><trkpt lat="39.0369076" lon="8.7083729"><ele>112.0</ele><time>2026-05-01T11:44:51.224Z</time></trkpt><trkpt lat="39.0367031" lon="8.7083802"><ele>113.0</ele><time>2026-05-01T11:44:52.223Z</time></trkpt><trkpt lat="39.0364974" lon="8.7083841"><ele>114.0</ele><time>2026-05-01T11:44:53.223Z</time></trkpt><trkpt lat="39.0362886" lon="8.708388"><ele>115.0</ele><time>2026-05-01T11:44:54.223Z</time></trkpt><trkpt lat="39.0360728" lon="8.7083945"><ele>115.0</ele><time>2026-05-01T11:44:55.224Z</time></trkpt><trkpt lat="39.0358543" lon="8.7083994"><ele>115.0</ele><time>2026-05-01T11:44:56.224Z</time></trkpt><trkpt lat="39.0356475" lon="8.7084025"><ele>115.0</ele><time>2026-05-01T11:44:57.224Z</time></trkpt><trkpt lat="39.0354519" lon="8.7084041"><ele>115.0</ele><time>2026-05-01T11:44:58.224Z</time></trkpt><trkpt lat="39.0352556" lon="8.7083983"><ele>115.0</ele><time>2026-05-01T11:44:59.223Z</time></trkpt><trkpt lat="39.0350631" lon="8.7083771"><ele>115.0</ele><time>2026-05-01T11:45:00.224Z</time></trkpt><trkpt lat="39.0348787" lon="8.7083394"><ele>116.66666666666667</ele><time>2026-05-01T11:45:01.223Z</time></trkpt><trkpt lat="39.0346996" lon="8.708292"><ele>118.33333333333334</ele><time>2026-05-01T11:45:02.223Z</time></trkpt><trkpt lat="39.0345236" lon="8.7082425"><ele>120.0</ele><time>2026-05-01T11:45:03.224Z</time></trkpt><trkpt lat="39.0343516" lon="8.7081936"><ele>120.0</ele><time>2026-05-01T11:45:04.223Z</time></trkpt><trkpt lat="39.0341815" lon="8.7081424"><ele>120.0</ele><time>2026-05-01T11:45:05.224Z</time></trkpt><trkpt lat="39.034012" lon="8.7081029"><ele>120.0</ele><time>2026-05-01T11:45:06.223Z</time></trkpt><trkpt lat="39.0338387" lon="8.708086"><ele>121.66666666666666</ele><time>2026-05-01T11:45:07.223Z</time></trkpt><trkpt lat="39.0336624" lon="8.7080935"><ele>123.33333333333333</ele><time>2026-05-01T11:45:08.224Z</time></trkpt><trkpt lat="39.0334861" lon="8.7081302"><ele>125.0</ele><time>2026-05-01T11:45:09.223Z</time></trkpt><trkpt lat="39.0333095" lon="8.7081903"><ele>124.33333333333333</ele><time>2026-05-01T11:45:10.224Z</time></trkpt><trkpt lat="39.033133" lon="8.7082742"><ele>123.66666666666666</ele><time>2026-05-01T11:45:11.224Z</time></trkpt><trkpt lat="39.0329569" lon="8.7083765"><ele>123.0</ele><time>2026-05-01T11:45:12.224Z</time></trkpt><trkpt lat="39.0327798" lon="8.708489"><ele>123.0</ele><time>2026-05-01T11:45:13.224Z</time></trkpt><trkpt lat="39.032613" lon="8.708602"><ele>123.0</ele><time>2026-05-01T11:45:14.223Z</time></trkpt><trkpt lat="39.0324617" lon="8.708726"><ele>123.0</ele><time>2026-05-01T11:45:15.223Z</time></trkpt><trkpt lat="39.0323304" lon="8.708872"><ele>123.0</ele><time>2026-05-01T11:45:16.224Z</time></trkpt><trkpt lat="39.0322195" lon="8.7090453"><ele>123.0</ele><time>2026-05-01T11:45:17.224Z</time></trkpt><trkpt lat="39.0321244" lon="8.7092437"><ele>123.0</ele><time>2026-05-01T11:45:18.223Z</time></trkpt><trkpt lat="39.0320422" lon="8.7094606"><ele>123.33333333333334</ele><time>2026-05-01T11:45:19.223Z</time></trkpt><trkpt lat="39.0319742" lon="8.7096912"><ele>123.66666666666667</ele><time>2026-05-01T11:45:20.224Z</time></trkpt><trkpt lat="39.0319186" lon="8.7099265"><ele>124.0</ele><time>2026-05-01T11:45:21.224Z</time></trkpt><trkpt lat="39.0318689" lon="8.7101502"><ele>125.33333333333334</ele><time>2026-05-01T11:45:22.224Z</time></trkpt><trkpt lat="39.0318136" lon="8.7103571"><ele>126.66666666666666</ele><time>2026-05-01T11:45:23.224Z</time></trkpt><trkpt lat="39.0317347" lon="8.7105386"><ele>128.0</ele><time>2026-05-01T11:45:24.223Z</time></trkpt><trkpt lat="39.0316377" lon="8.710698"><ele>128.0</ele><time>2026-05-01T11:45:25.223Z</time></trkpt><trkpt lat="39.0315225" lon="8.7108151"><ele>128.0</ele><time>2026-05-01T11:45:26.224Z</time></trkpt><trkpt lat="39.0313844" lon="8.7108919"><ele>128.0</ele><time>2026-05-01T11:45:27.223Z</time></trkpt><trkpt lat="39.0312219" lon="8.7109388"><ele>128.0</ele><time>2026-05-01T11:45:28.223Z</time></trkpt><trkpt lat="39.0310392" lon="8.7109761"><ele>128.0</ele><time>2026-05-01T11:45:29.224Z</time></trkpt><trkpt lat="39.0308676" lon="8.7110188"><ele>128.0</ele><time>2026-05-01T11:45:30.223Z</time></trkpt><trkpt lat="39.0307054" lon="8.7110499"><ele>128.5</ele><time>2026-05-01T11:45:31.223Z</time></trkpt><trkpt lat="39.0305522" lon="8.7110418"><ele>129.0</ele><time>2026-05-01T11:45:32.224Z</time></trkpt><trkpt lat="39.0304114" lon="8.711"><ele>129.5</ele><time>2026-05-01T11:45:33.223Z</time></trkpt><trkpt lat="39.030287" lon="8.7109155"><ele>130.0</ele><time>2026-05-01T11:45:34.223Z</time></trkpt><trkpt lat="39.0301732" lon="8.7107902"><ele>130.0</ele><time>2026-05-01T11:45:35.223Z</time></trkpt><trkpt lat="39.0300693" lon="8.7106304"><ele>130.0</ele><time>2026-05-01T11:45:36.224Z</time></trkpt><trkpt lat="39.0299604" lon="8.7104465"><ele>130.0</ele><time>2026-05-01T11:45:37.224Z</time></trkpt><trkpt lat="39.0298375" lon="8.7102466"><ele>132.0</ele><time>2026-05-01T11:45:38.223Z</time></trkpt><trkpt lat="39.0297265" lon="8.71006"><ele>134.0</ele><time>2026-05-01T11:45:39.223Z</time></trkpt><trkpt lat="39.0296188" lon="8.7098912"><ele>136.0</ele><time>2026-05-01T11:45:40.224Z</time></trkpt><trkpt lat="39.029498" lon="8.7097689"><ele>136.0</ele><time>2026-05-01T11:45:41.223Z</time></trkpt><trkpt lat="39.0293612" lon="8.7096809"><ele>136.0</ele><time>2026-05-01T11:45:42.224Z</time></trkpt><trkpt lat="39.0292157" lon="8.7096208"><ele>136.0</ele><time>2026-05-01T11:45:43.223Z</time></trkpt><trkpt lat="39.0290729" lon="8.7095503"><ele>138.0</ele><time>2026-05-01T11:45:44.223Z</time></trkpt><trkpt lat="39.028946" lon="8.7094433"><ele>140.0</ele><time>2026-05-01T11:45:45.224Z</time></trkpt><trkpt lat="39.0288433" lon="8.7093016"><ele>142.0</ele><time>2026-05-01T11:45:46.223Z</time></trkpt><trkpt lat="39.0287651" lon="8.7091334"><ele>142.0</ele><time>2026-05-01T11:45:47.223Z</time></trkpt><trkpt lat="39.0286908" lon="8.7089476"><ele>142.0</ele><time>2026-05-01T11:45:48.224Z</time></trkpt><trkpt lat="39.0286099" lon="8.7087485"><ele>142.0</ele><time>2026-05-01T11:45:49.224Z</time></trkpt><trkpt lat="39.0285346" lon="8.7085407"><ele>141.0</ele><time>2026-05-01T11:45:50.224Z</time></trkpt><trkpt lat="39.028463" lon="8.7083575"><ele>140.0</ele><time>2026-05-01T11:45:51.223Z</time></trkpt><trkpt lat="39.0283707" lon="8.7082079"><ele>139.0</ele><time>2026-05-01T11:45:52.224Z</time></trkpt><trkpt lat="39.0282581" lon="8.7081032"><ele>138.0</ele><time>2026-05-01T11:45:53.224Z</time></trkpt><trkpt lat="39.0281255" lon="8.7080459"><ele>138.0</ele><time>2026-05-01T11:45:54.224Z</time></trkpt><trkpt lat="39.0279787" lon="8.7080372"><ele>138.0</ele><time>2026-05-01T11:45:55.224Z</time></trkpt><trkpt lat="39.0278179" lon="8.7080644"><ele>138.0</ele><time>2026-05-01T11:45:56.224Z</time></trkpt><trkpt lat="39.0276428" lon="8.7080983"><ele>138.33333333333334</ele><time>2026-05-01T11:45:57.224Z</time></trkpt><trkpt lat="39.027463" lon="8.7081154"><ele>138.66666666666669</ele><time>2026-05-01T11:45:58.224Z</time></trkpt><trkpt lat="39.0272845" lon="8.7080939"><ele>139.0</ele><time>2026-05-01T11:45:59.224Z</time></trkpt><trkpt lat="39.0271079" lon="8.7080342"><ele>139.0</ele><time>2026-05-01T11:46:00.224Z</time></trkpt><trkpt lat="39.0269279" lon="8.7079556"><ele>139.0</ele><time>2026-05-01T11:46:01.224Z</time></trkpt><trkpt lat="39.0267434" lon="8.7078682"><ele>139.0</ele><time>2026-05-01T11:46:02.223Z</time></trkpt><trkpt lat="39.0265536" lon="8.7077747"><ele>140.0</ele><time>2026-05-01T11:46:03.223Z</time></trkpt><trkpt lat="39.0263644" lon="8.7076688"><ele>141.0</ele><time>2026-05-01T11:46:04.224Z</time></trkpt><trkpt lat="39.0261782" lon="8.7075499"><ele>142.0</ele><time>2026-05-01T11:46:05.224Z</time></trkpt><trkpt lat="39.0260043" lon="8.7074278"><ele>142.0</ele><time>2026-05-01T11:46:06.223Z</time></trkpt><trkpt lat="39.025835" lon="8.7073096"><ele>142.0</ele><time>2026-05-01T11:46:07.223Z</time></trkpt><trkpt lat="39.0256604" lon="8.7072127"><ele>142.0</ele><time>2026-05-01T11:46:08.223Z</time></trkpt><trkpt lat="39.0254792" lon="8.7071331"><ele>144.0</ele><time>2026-05-01T11:46:09.223Z</time></trkpt><trkpt lat="39.0252931" lon="8.707083"><ele>146.0</ele><time>2026-05-01T11:46:10.224Z</time></trkpt><trkpt lat="39.0250972" lon="8.7070618"><ele>148.0</ele><time>2026-05-01T11:46:11.224Z</time></trkpt><trkpt lat="39.0249045" lon="8.707055"><ele>148.0</ele><time>2026-05-01T11:46:12.224Z</time></trkpt><trkpt lat="39.0247271" lon="8.7070533"><ele>148.0</ele><time>2026-05-01T11:46:13.224Z</time></trkpt><trkpt lat="39.0245667" lon="8.7070702"><ele>148.0</ele><time>2026-05-01T11:46:14.223Z</time></trkpt><trkpt lat="39.0244186" lon="8.7071361"><ele>148.0</ele><time>2026-05-01T11:46:15.224Z</time></trkpt><trkpt lat="39.0242804" lon="8.7072426"><ele>148.0</ele><time>2026-05-01T11:46:16.224Z</time></trkpt><trkpt lat="39.0241421" lon="8.7073757"><ele>148.0</ele><time>2026-05-01T11:46:17.223Z</time></trkpt><trkpt lat="39.0239957" lon="8.7075229"><ele>148.0</ele><time>2026-05-01T11:46:18.224Z</time></trkpt><trkpt lat="39.0238417" lon="8.7076718"><ele>148.0</ele><time>2026-05-01T11:46:19.224Z</time></trkpt><trkpt lat="39.0236768" lon="8.707822"><ele>148.0</ele><time>2026-05-01T11:46:20.224Z</time></trkpt><trkpt lat="39.0235073" lon="8.7079681"><ele>148.0</ele><time>2026-05-01T11:46:21.224Z</time></trkpt><trkpt lat="39.0233348" lon="8.7081142"><ele>148.0</ele><time>2026-05-01T11:46:22.224Z</time></trkpt><trkpt lat="39.0231668" lon="8.7082605"><ele>148.0</ele><time>2026-05-01T11:46:23.224Z</time></trkpt><trkpt lat="39.0230155" lon="8.7083997"><ele>148.0</ele><time>2026-05-01T11:46:24.224Z</time></trkpt><trkpt lat="39.0228758" lon="8.7085381"><ele>148.0</ele><time>2026-05-01T11:46:25.223Z</time></trkpt><trkpt lat="39.0227462" lon="8.7086924"><ele>148.0</ele><time>2026-05-01T11:46:26.224Z</time></trkpt><trkpt lat="39.0226259" lon="8.7088672"><ele>148.0</ele><time>2026-05-01T11:46:27.223Z</time></trkpt><trkpt lat="39.0225103" lon="8.7090624"><ele>148.0</ele><time>2026-05-01T11:46:28.224Z</time></trkpt><trkpt lat="39.0224034" lon="8.7092682"><ele>148.0</ele><time>2026-05-01T11:46:29.223Z</time></trkpt><trkpt lat="39.0223054" lon="8.7094624"><ele>150.66666666666669</ele><time>2026-05-01T11:46:30.223Z</time></trkpt><trkpt lat="39.0222141" lon="8.7096484"><ele>153.33333333333334</ele><time>2026-05-01T11:46:31.224Z</time></trkpt><trkpt lat="39.0221384" lon="8.7098231"><ele>156.0</ele><time>2026-05-01T11:46:32.223Z</time></trkpt><trkpt lat="39.0220946" lon="8.7099928"><ele>156.0</ele><time>2026-05-01T11:46:33.224Z</time></trkpt><trkpt lat="39.0220845" lon="8.7101614"><ele>156.0</ele><time>2026-05-01T11:46:34.223Z</time></trkpt><trkpt lat="39.0220916" lon="8.7103395"><ele>156.0</ele><time>2026-05-01T11:46:35.224Z</time></trkpt><trkpt lat="39.0220884" lon="8.7105275"><ele>156.0</ele><time>2026-05-01T11:46:36.224Z</time></trkpt><trkpt lat="39.0220582" lon="8.7107311"><ele>156.0</ele><time>2026-05-01T11:46:37.223Z</time></trkpt><trkpt lat="39.0220101" lon="8.7109492"><ele>156.0</ele><time>2026-05-01T11:46:38.223Z</time></trkpt><trkpt lat="39.0219476" lon="8.7111793"><ele>156.0</ele><time>2026-05-01T11:46:39.224Z</time></trkpt><trkpt lat="39.0218808" lon="8.7114149"><ele>156.0</ele><time>2026-05-01T11:46:40.224Z</time></trkpt><trkpt lat="39.0218156" lon="8.7116384"><ele>156.0</ele><time>2026-05-01T11:46:41.224Z</time></trkpt><trkpt lat="39.0217426" lon="8.7118516"><ele>156.0</ele><time>2026-05-01T11:46:42.223Z</time></trkpt><trkpt lat="39.0216547" lon="8.7120579"><ele>155.33333333333334</ele><time>2026-05-01T11:46:43.224Z</time></trkpt><trkpt lat="39.0215533" lon="8.7122428"><ele>154.66666666666669</ele><time>2026-05-01T11:46:44.224Z</time></trkpt><trkpt lat="39.0214357" lon="8.7124033"><ele>154.0</ele><time>2026-05-01T11:46:45.224Z</time></trkpt><trkpt lat="39.0213124" lon="8.712531"><ele>154.0</ele><time>2026-05-01T11:46:46.224Z</time></trkpt><trkpt lat="39.0211841" lon="8.7126293"><ele>154.0</ele><time>2026-05-01T11:46:47.223Z</time></trkpt><trkpt lat="39.0210436" lon="8.7126973"><ele>154.0</ele><time>2026-05-01T11:46:48.223Z</time></trkpt><trkpt lat="39.0208933" lon="8.7127382"><ele>154.66666666666669</ele><time>2026-05-01T11:46:49.224Z</time></trkpt><trkpt lat="39.0207361" lon="8.7127479"><ele>155.33333333333334</ele><time>2026-05-01T11:46:50.224Z</time></trkpt><trkpt lat="39.0205698" lon="8.7127364"><ele>156.0</ele><time>2026-05-01T11:46:51.223Z</time></trkpt><trkpt lat="39.0203954" lon="8.712703"><ele>156.0</ele><time>2026-05-01T11:46:52.224Z</time></trkpt><trkpt lat="39.0202098" lon="8.7126538"><ele>156.0</ele><time>2026-05-01T11:46:53.224Z</time></trkpt><trkpt lat="39.0200159" lon="8.7125961"><ele>156.0</ele><time>2026-05-01T11:46:54.223Z</time></trkpt><trkpt lat="39.0198218" lon="8.712537"><ele>157.0</ele><time>2026-05-01T11:46:55.224Z</time></trkpt><trkpt lat="39.0196179" lon="8.7124754"><ele>158.0</ele><time>2026-05-01T11:46:56.224Z</time></trkpt><trkpt lat="39.0194095" lon="8.7124134"><ele>159.0</ele><time>2026-05-01T11:46:57.224Z</time></trkpt><trkpt lat="39.0192013" lon="8.7123535"><ele>161.66666666666666</ele><time>2026-05-01T11:46:58.223Z</time></trkpt><trkpt lat="39.0189899" lon="8.712292"><ele>164.33333333333331</ele><time>2026-05-01T11:46:59.224Z</time></trkpt><trkpt lat="39.01877" lon="8.7122282"><ele>167.0</ele><time>2026-05-01T11:47:00.224Z</time></trkpt><trkpt lat="39.0185517" lon="8.7121599"><ele>167.0</ele><time>2026-05-01T11:47:01.223Z</time></trkpt><trkpt lat="39.018355" lon="8.7120987"><ele>167.0</ele><time>2026-05-01T11:47:02.223Z</time></trkpt><trkpt lat="39.0181642" lon="8.7120549"><ele>167.0</ele><time>2026-05-01T11:47:03.224Z</time></trkpt><trkpt lat="39.0179768" lon="8.7120453"><ele>169.66666666666666</ele><time>2026-05-01T11:47:04.224Z</time></trkpt><trkpt lat="39.0177908" lon="8.7120783"><ele>172.33333333333334</ele><time>2026-05-01T11:47:05.224Z</time></trkpt><trkpt lat="39.017606" lon="8.7121502"><ele>175.0</ele><time>2026-05-01T11:47:06.223Z</time></trkpt><trkpt lat="39.0174256" lon="8.7122542"><ele>175.33333333333334</ele><time>2026-05-01T11:47:07.223Z</time></trkpt><trkpt lat="39.0172553" lon="8.7123879"><ele>175.66666666666666</ele><time>2026-05-01T11:47:08.224Z</time></trkpt><trkpt lat="39.017096" lon="8.7125597"><ele>176.0</ele><time>2026-05-01T11:47:09.223Z</time></trkpt><trkpt lat="39.0169396" lon="8.7127501"><ele>178.66666666666666</ele><time>2026-05-01T11:47:10.223Z</time></trkpt><trkpt lat="39.0167775" lon="8.7129458"><ele>181.33333333333334</ele><time>2026-05-01T11:47:11.224Z</time></trkpt><trkpt lat="39.0166035" lon="8.7131291"><ele>184.0</ele><time>2026-05-01T11:47:12.224Z</time></trkpt><trkpt lat="39.01642" lon="8.713307"><ele>184.0</ele><time>2026-05-01T11:47:13.223Z</time></trkpt><trkpt lat="39.0162247" lon="8.7134746"><ele>184.0</ele><time>2026-05-01T11:47:14.224Z</time></trkpt><trkpt lat="39.016017" lon="8.71363"><ele>185.0</ele><time>2026-05-01T11:47:15.223Z</time></trkpt><trkpt lat="39.0158008" lon="8.7137803"><ele>186.0</ele><time>2026-05-01T11:47:16.224Z</time></trkpt><trkpt lat="39.0155807" lon="8.7139345"><ele>186.0</ele><time>2026-05-01T11:47:17.224Z</time></trkpt><trkpt lat="39.0153596" lon="8.7140911"><ele>186.0</ele><time>2026-05-01T11:47:18.223Z</time></trkpt><trkpt lat="39.0151457" lon="8.7142447"><ele>186.5</ele><time>2026-05-01T11:47:19.223Z</time></trkpt><trkpt lat="39.0149327" lon="8.7143969"><ele>187.0</ele><time>2026-05-01T11:47:20.223Z</time></trkpt><trkpt lat="39.0147204" lon="8.7145487"><ele>188.5</ele><time>2026-05-01T11:47:21.224Z</time></trkpt><trkpt lat="39.0145075" lon="8.7146979"><ele>190.0</ele><time>2026-05-01T11:47:22.224Z</time></trkpt><trkpt lat="39.0142917" lon="8.7148411"><ele>193.0</ele><time>2026-05-01T11:47:23.223Z</time></trkpt><trkpt lat="39.0140716" lon="8.7149737"><ele>196.0</ele><time>2026-05-01T11:47:24.224Z</time></trkpt><trkpt lat="39.0138466" lon="8.7150994"><ele>196.0</ele><time>2026-05-01T11:47:25.224Z</time></trkpt><trkpt lat="39.0136189" lon="8.7152207"><ele>196.0</ele><time>2026-05-01T11:47:26.223Z</time></trkpt><trkpt lat="39.0133931" lon="8.7153385"><ele>196.33333333333331</ele><time>2026-05-01T11:47:27.223Z</time></trkpt><trkpt lat="39.0131839" lon="8.7154515"><ele>196.66666666666669</ele><time>2026-05-01T11:47:28.223Z</time></trkpt><trkpt lat="39.0129858" lon="8.7155658"><ele>197.0</ele><time>2026-05-01T11:47:29.223Z</time></trkpt><trkpt lat="39.0127932" lon="8.7156938"><ele>197.0</ele><time>2026-05-01T11:47:30.224Z</time></trkpt><trkpt lat="39.0126061" lon="8.7158384"><ele>197.0</ele><time>2026-05-01T11:47:31.224Z</time></trkpt><trkpt lat="39.012421" lon="8.7159964"><ele>197.0</ele><time>2026-05-01T11:47:32.224Z</time></trkpt><trkpt lat="39.0122368" lon="8.7161629"><ele>198.0</ele><time>2026-05-01T11:47:33.224Z</time></trkpt><trkpt lat="39.0120485" lon="8.7163324"><ele>199.0</ele><time>2026-05-01T11:47:34.223Z</time></trkpt><trkpt lat="39.0118559" lon="8.7165032"><ele>199.0</ele><time>2026-05-01T11:47:35.224Z</time></trkpt><trkpt lat="39.0116579" lon="8.7166671"><ele>199.0</ele><time>2026-05-01T11:47:36.224Z</time></trkpt><trkpt lat="39.0114549" lon="8.7168229"><ele>200.0</ele><time>2026-05-01T11:47:37.224Z</time></trkpt><trkpt lat="39.0112477" lon="8.7169779"><ele>201.0</ele><time>2026-05-01T11:47:38.224Z</time></trkpt><trkpt lat="39.0110345" lon="8.7171239"><ele>201.5</ele><time>2026-05-01T11:47:39.223Z</time></trkpt><trkpt lat="39.0108171" lon="8.7172715"><ele>202.0</ele><time>2026-05-01T11:47:40.224Z</time></trkpt><trkpt lat="39.0105985" lon="8.7174226"><ele>202.0</ele><time>2026-05-01T11:47:41.224Z</time></trkpt><trkpt lat="39.010379" lon="8.7175694"><ele>202.0</ele><time>2026-05-01T11:47:42.224Z</time></trkpt><trkpt lat="39.010156" lon="8.7177078"><ele>203.0</ele><time>2026-05-01T11:47:43.223Z</time></trkpt><trkpt lat="39.0099259" lon="8.7178384"><ele>204.0</ele><time>2026-05-01T11:47:44.223Z</time></trkpt><trkpt lat="39.0096898" lon="8.717957"><ele>204.0</ele><time>2026-05-01T11:47:45.224Z</time></trkpt><trkpt lat="39.0094487" lon="8.7180672"><ele>204.0</ele><time>2026-05-01T11:47:46.223Z</time></trkpt><trkpt lat="39.0092066" lon="8.7181753"><ele>208.0</ele><time>2026-05-01T11:47:47.224Z</time></trkpt><trkpt lat="39.0089773" lon="8.7182759"><ele>212.0</ele><time>2026-05-01T11:47:48.223Z</time></trkpt><trkpt lat="39.0087625" lon="8.7183736"><ele>212.0</ele><time>2026-05-01T11:47:49.224Z</time></trkpt><trkpt lat="39.0085636" lon="8.7184663"><ele>212.0</ele><time>2026-05-01T11:47:50.224Z</time></trkpt><trkpt lat="39.0083803" lon="8.7185636"><ele>212.0</ele><time>2026-05-01T11:47:51.224Z</time></trkpt><trkpt lat="39.0082097" lon="8.7186841"><ele>212.0</ele><time>2026-05-01T11:47:52.224Z</time></trkpt><trkpt lat="39.0080475" lon="8.7188326"><ele>212.0</ele><time>2026-05-01T11:47:53.223Z</time></trkpt><trkpt lat="39.0078852" lon="8.7190012"><ele>212.0</ele><time>2026-05-01T11:47:54.223Z</time></trkpt><trkpt lat="39.0077178" lon="8.7191772"><ele>212.0</ele><time>2026-05-01T11:47:55.224Z</time></trkpt><trkpt lat="39.0075422" lon="8.7193565"><ele>212.0</ele><time>2026-05-01T11:47:56.224Z</time></trkpt><trkpt lat="39.0073655" lon="8.7195404"><ele>213.5</ele><time>2026-05-01T11:47:57.223Z</time></trkpt><trkpt lat="39.007186" lon="8.7197276"><ele>215.0</ele><time>2026-05-01T11:47:58.223Z</time></trkpt><trkpt lat="39.0070038" lon="8.7199167"><ele>215.0</ele><time>2026-05-01T11:47:59.223Z</time></trkpt><trkpt lat="39.0068196" lon="8.7201074"><ele>215.0</ele><time>2026-05-01T11:48:00.223Z</time></trkpt><trkpt lat="39.0066311" lon="8.7203018"><ele>215.0</ele><time>2026-05-01T11:48:01.223Z</time></trkpt><trkpt lat="39.0064414" lon="8.7204972"><ele>215.0</ele><time>2026-05-01T11:48:02.223Z</time></trkpt><trkpt lat="39.0062503" lon="8.7206963"><ele>215.0</ele><time>2026-05-01T11:48:03.223Z</time></trkpt><trkpt lat="39.0060602" lon="8.7208969"><ele>215.0</ele><time>2026-05-01T11:48:04.223Z</time></trkpt><trkpt lat="39.0058733" lon="8.7210929"><ele>218.5</ele><time>2026-05-01T11:48:05.223Z</time></trkpt><trkpt lat="39.0056851" lon="8.7212781"><ele>222.0</ele><time>2026-05-01T11:48:06.223Z</time></trkpt><trkpt lat="39.0054934" lon="8.7214411"><ele>222.0</ele><time>2026-05-01T11:48:07.223Z</time></trkpt><trkpt lat="39.0052996" lon="8.7215946"><ele>222.0</ele><time>2026-05-01T11:48:08.223Z</time></trkpt><trkpt lat="39.0051001" lon="8.7217389"><ele>222.5</ele><time>2026-05-01T11:48:09.224Z</time></trkpt><trkpt lat="39.0048974" lon="8.7218809"><ele>223.0</ele><time>2026-05-01T11:48:10.223Z</time></trkpt><trkpt lat="39.004692" lon="8.7220229"><ele>226.5</ele><time>2026-05-01T11:48:11.224Z</time></trkpt><trkpt lat="39.0044834" lon="8.7221659"><ele>230.0</ele><time>2026-05-01T11:48:12.224Z</time></trkpt><trkpt lat="39.0042868" lon="8.7223007"><ele>231.0</ele><time>2026-05-01T11:48:13.224Z</time></trkpt><trkpt lat="39.0041039" lon="8.7224371"><ele>232.0</ele><time>2026-05-01T11:48:14.223Z</time></trkpt><trkpt lat="39.0039363" lon="8.722589"><ele>233.0</ele><time>2026-05-01T11:48:15.223Z</time></trkpt><trkpt lat="39.0037933" lon="8.7227525"><ele>233.0</ele><time>2026-05-01T11:48:16.223Z</time></trkpt><trkpt lat="39.0036773" lon="8.7229405"><ele>233.0</ele><time>2026-05-01T11:48:17.223Z</time></trkpt><trkpt lat="39.0035804" lon="8.7231508"><ele>233.0</ele><time>2026-05-01T11:48:18.223Z</time></trkpt><trkpt lat="39.0034926" lon="8.7233745"><ele>234.33333333333334</ele><time>2026-05-01T11:48:19.223Z</time></trkpt><trkpt lat="39.0034016" lon="8.7235973"><ele>235.66666666666669</ele><time>2026-05-01T11:48:20.223Z</time></trkpt><trkpt lat="39.003298" lon="8.723812"><ele>237.0</ele><time>2026-05-01T11:48:21.223Z</time></trkpt><trkpt lat="39.0031771" lon="8.7240076"><ele>239.0</ele><time>2026-05-01T11:48:22.224Z</time></trkpt><trkpt lat="39.0030367" lon="8.7241856"><ele>241.0</ele><time>2026-05-01T11:48:23.223Z</time></trkpt><trkpt lat="39.0028897" lon="8.7243507"><ele>243.0</ele><time>2026-05-01T11:48:24.224Z</time></trkpt><trkpt lat="39.0027345" lon="8.724508"><ele>243.0</ele><time>2026-05-01T11:48:25.224Z</time></trkpt><trkpt lat="39.0025745" lon="8.7246553"><ele>243.0</ele><time>2026-05-01T11:48:26.224Z</time></trkpt><trkpt lat="39.0024087" lon="8.7247823"><ele>243.0</ele><time>2026-05-01T11:48:27.224Z</time></trkpt><trkpt lat="39.0022327" lon="8.7248916"><ele>244.33333333333331</ele><time>2026-05-01T11:48:28.223Z</time></trkpt><trkpt lat="39.0020453" lon="8.7249861"><ele>245.66666666666666</ele><time>2026-05-01T11:48:29.223Z</time></trkpt><trkpt lat="39.0018491" lon="8.7250737"><ele>247.0</ele><time>2026-05-01T11:48:30.224Z</time></trkpt><trkpt lat="39.0016445" lon="8.7251616"><ele>250.5</ele><time>2026-05-01T11:48:31.223Z</time></trkpt><trkpt lat="39.0014316" lon="8.7252499"><ele>254.0</ele><time>2026-05-01T11:48:32.223Z</time></trkpt><trkpt lat="39.0012127" lon="8.7253448"><ele>254.0</ele><time>2026-05-01T11:48:33.223Z</time></trkpt><trkpt lat="39.0009904" lon="8.7254447"><ele>254.0</ele><time>2026-05-01T11:48:34.223Z</time></trkpt><trkpt lat="39.0007681" lon="8.7255511"><ele>259.0</ele><time>2026-05-01T11:48:35.224Z</time></trkpt><trkpt lat="39.0005464" lon="8.7256579"><ele>264.0</ele><time>2026-05-01T11:48:36.223Z</time></trkpt><trkpt lat="39.0003242" lon="8.7257639"><ele>264.0</ele><time>2026-05-01T11:48:37.223Z</time></trkpt><trkpt lat="39.0001003" lon="8.725869"><ele>264.0</ele><time>2026-05-01T11:48:38.224Z</time></trkpt><trkpt lat="38.999877" lon="8.7259732"><ele>268.5</ele><time>2026-05-01T11:48:39.223Z</time></trkpt><trkpt lat="38.9996533" lon="8.7260767"><ele>273.0</ele><time>2026-05-01T11:48:40.224Z</time></trkpt><trkpt lat="38.9994449" lon="8.7261732"><ele>273.0</ele><time>2026-05-01T11:48:41.223Z</time></trkpt><trkpt lat="38.9992561" lon="8.7262673"><ele>273.0</ele><time>2026-05-01T11:48:42.223Z</time></trkpt><trkpt lat="38.9990809" lon="8.7263769"><ele>273.0</ele><time>2026-05-01T11:48:43.224Z</time></trkpt><trkpt lat="38.9989189" lon="8.7265085"><ele>273.0</ele><time>2026-05-01T11:48:44.224Z</time></trkpt><trkpt lat="38.9987806" lon="8.7266681"><ele>273.0</ele><time>2026-05-01T11:48:45.223Z</time></trkpt><trkpt lat="38.9986641" lon="8.7268523"><ele>273.0</ele><time>2026-05-01T11:48:46.223Z</time></trkpt><trkpt lat="38.9985646" lon="8.7270511"><ele>277.0</ele><time>2026-05-01T11:48:47.223Z</time></trkpt><trkpt lat="38.9984867" lon="8.7272707"><ele>281.0</ele><time>2026-05-01T11:48:48.223Z</time></trkpt><trkpt lat="38.9984304" lon="8.727509"><ele>285.0</ele><time>2026-05-01T11:48:49.224Z</time></trkpt><trkpt lat="38.9983886" lon="8.727759"><ele>286.3333333333333</ele><time>2026-05-01T11:48:50.224Z</time></trkpt><trkpt lat="38.9983602" lon="8.7279998"><ele>287.66666666666663</ele><time>2026-05-01T11:48:51.224Z</time></trkpt><trkpt lat="38.9983482" lon="8.7282364"><ele>289.0</ele><time>2026-05-01T11:48:52.224Z</time></trkpt><trkpt lat="38.9983594" lon="8.7284706"><ele>287.66666666666663</ele><time>2026-05-01T11:48:53.224Z</time></trkpt><trkpt lat="38.9984048" lon="8.728694"><ele>286.3333333333333</ele><time>2026-05-01T11:48:54.223Z</time></trkpt><trkpt lat="38.998479" lon="8.7289038"><ele>285.0</ele><time>2026-05-01T11:48:55.224Z</time></trkpt><trkpt lat="38.9985752" lon="8.7290909"><ele>285.0</ele><time>2026-05-01T11:48:56.223Z</time></trkpt><trkpt lat="38.9986929" lon="8.72926"><ele>285.0</ele><time>2026-05-01T11:48:57.223Z</time></trkpt><trkpt lat="38.9988301" lon="8.7293985"><ele>285.0</ele><time>2026-05-01T11:48:58.223Z</time></trkpt><trkpt lat="38.9989786" lon="8.7295261"><ele>286.3333333333333</ele><time>2026-05-01T11:48:59.224Z</time></trkpt><trkpt lat="38.9991226" lon="8.7296595"><ele>287.66666666666663</ele><time>2026-05-01T11:49:00.223Z</time></trkpt><trkpt lat="38.9992501" lon="8.729812"><ele>289.0</ele><time>2026-05-01T11:49:01.224Z</time></trkpt><trkpt lat="38.9993423" lon="8.7299855"><ele>289.0</ele><time>2026-05-01T11:49:02.223Z</time></trkpt><trkpt lat="38.9994141" lon="8.7301834"><ele>289.0</ele><time>2026-05-01T11:49:03.224Z</time></trkpt><trkpt lat="38.999464" lon="8.7304069"><ele>289.0</ele><time>2026-05-01T11:49:04.223Z</time></trkpt><trkpt lat="38.9994934" lon="8.7306314"><ele>287.3333333333333</ele><time>2026-05-01T11:49:05.224Z</time></trkpt><trkpt lat="38.9994985" lon="8.7308425"><ele>285.6666666666667</ele><time>2026-05-01T11:49:06.224Z</time></trkpt><trkpt lat="38.9994712" lon="8.731046"><ele>284.0</ele><time>2026-05-01T11:49:07.223Z</time></trkpt><trkpt lat="38.9994147" lon="8.7312481"><ele>282.33333333333337</ele><time>2026-05-01T11:49:08.224Z</time></trkpt><trkpt lat="38.9993293" lon="8.731427"><ele>280.6666666666667</ele><time>2026-05-01T11:49:09.224Z</time></trkpt><trkpt lat="38.9992256" lon="8.7315688"><ele>279.0</ele><time>2026-05-01T11:49:10.223Z</time></trkpt><trkpt lat="38.9991001" lon="8.7316885"><ele>277.3333333333333</ele><time>2026-05-01T11:49:11.223Z</time></trkpt><trkpt lat="38.9989565" lon="8.7318081"><ele>275.66666666666663</ele><time>2026-05-01T11:49:12.224Z</time></trkpt><trkpt lat="38.998805" lon="8.7319259"><ele>274.0</ele><time>2026-05-01T11:49:13.224Z</time></trkpt><trkpt lat="38.9986447" lon="8.7320306"><ele>277.66666666666663</ele><time>2026-05-01T11:49:14.224Z</time></trkpt><trkpt lat="38.9984823" lon="8.7320951"><ele>281.3333333333333</ele><time>2026-05-01T11:49:15.223Z</time></trkpt><trkpt lat="38.9983106" lon="8.7321203"><ele>285.0</ele><time>2026-05-01T11:49:16.223Z</time></trkpt><trkpt lat="38.9981469" lon="8.7321385"><ele>285.0</ele><time>2026-05-01T11:49:17.224Z</time></trkpt><trkpt lat="38.9979964" lon="8.7321949"><ele>285.0</ele><time>2026-05-01T11:49:18.223Z</time></trkpt><trkpt lat="38.9978618" lon="8.7322972"><ele>285.0</ele><time>2026-05-01T11:49:19.224Z</time></trkpt><trkpt lat="38.9977467" lon="8.7324354"><ele>285.0</ele><time>2026-05-01T11:49:20.223Z</time></trkpt><trkpt lat="38.9976471" lon="8.7325881"><ele>285.0</ele><time>2026-05-01T11:49:21.224Z</time></trkpt><trkpt lat="38.9975335" lon="8.7327146"><ele>285.0</ele><time>2026-05-01T11:49:22.223Z</time></trkpt><trkpt lat="38.9973866" lon="8.732812"><ele>288.3333333333333</ele><time>2026-05-01T11:49:23.223Z</time></trkpt><trkpt lat="38.997213" lon="8.7328806"><ele>291.66666666666663</ele><time>2026-05-01T11:49:24.223Z</time></trkpt><trkpt lat="38.9970114" lon="8.7329308"><ele>295.0</ele><time>2026-05-01T11:49:25.224Z</time></trkpt><trkpt lat="38.9968187" lon="8.7329604"><ele>292.3333333333333</ele><time>2026-05-01T11:49:26.223Z</time></trkpt><trkpt lat="38.9966394" lon="8.7329545"><ele>289.6666666666667</ele><time>2026-05-01T11:49:27.223Z</time></trkpt><trkpt lat="38.9964728" lon="8.7329107"><ele>287.0</ele><time>2026-05-01T11:49:28.223Z</time></trkpt><trkpt lat="38.9963145" lon="8.7328193"><ele>278.6666666666667</ele><time>2026-05-01T11:49:29.224Z</time></trkpt><trkpt lat="38.9961658" lon="8.7326855"><ele>270.3333333333333</ele><time>2026-05-01T11:49:30.224Z</time></trkpt><trkpt lat="38.9960335" lon="8.7325328"><ele>262.0</ele><time>2026-05-01T11:49:31.223Z</time></trkpt><trkpt lat="38.9959059" lon="8.7324041"><ele>264.0</ele><time>2026-05-01T11:49:32.224Z</time></trkpt><trkpt lat="38.9957692" lon="8.7323254"><ele>266.0</ele><time>2026-05-01T11:49:33.223Z</time></trkpt><trkpt lat="38.9956159" lon="8.7322858"><ele>268.0</ele><time>2026-05-01T11:49:34.224Z</time></trkpt><trkpt lat="38.995449" lon="8.7322914"><ele>268.0</ele><time>2026-05-01T11:49:35.224Z</time></trkpt><trkpt lat="38.9952751" lon="8.7323412"><ele>268.0</ele><time>2026-05-01T11:49:36.224Z</time></trkpt><trkpt lat="38.9950904" lon="8.7324315"><ele>268.0</ele><time>2026-05-01T11:49:37.223Z</time></trkpt><trkpt lat="38.9948904" lon="8.7325428"><ele>267.3333333333333</ele><time>2026-05-01T11:49:38.224Z</time></trkpt><trkpt lat="38.9946768" lon="8.7326556"><ele>266.6666666666667</ele><time>2026-05-01T11:49:39.223Z</time></trkpt><trkpt lat="38.994482" lon="8.7327599"><ele>266.0</ele><time>2026-05-01T11:49:40.224Z</time></trkpt><trkpt lat="38.9943" lon="8.732863"><ele>268.0</ele><time>2026-05-01T11:49:41.223Z</time></trkpt><trkpt lat="38.9941419" lon="8.7329775"><ele>270.0</ele><time>2026-05-01T11:49:42.223Z</time></trkpt><trkpt lat="38.9940033" lon="8.7331221"><ele>272.0</ele><time>2026-05-01T11:49:43.224Z</time></trkpt><trkpt lat="38.9938839" lon="8.7332992"><ele>272.0</ele><time>2026-05-01T11:49:44.224Z</time></trkpt><trkpt lat="38.9937894" lon="8.7334992"><ele>272.0</ele><time>2026-05-01T11:49:45.224Z</time></trkpt><trkpt lat="38.9937129" lon="8.7336937"><ele>272.0</ele><time>2026-05-01T11:49:46.224Z</time></trkpt><trkpt lat="38.9936433" lon="8.7338835"><ele>275.6666666666667</ele><time>2026-05-01T11:49:47.223Z</time></trkpt><trkpt lat="38.9935648" lon="8.7340546"><ele>279.3333333333333</ele><time>2026-05-01T11:49:48.223Z</time></trkpt><trkpt lat="38.9934588" lon="8.7341927"><ele>283.0</ele><time>2026-05-01T11:49:49.224Z</time></trkpt><trkpt lat="38.9933274" lon="8.7343082"><ele>282.0</ele><time>2026-05-01T11:49:50.224Z</time></trkpt><trkpt lat="38.9931738" lon="8.7344105"><ele>281.0</ele><time>2026-05-01T11:49:51.223Z</time></trkpt><trkpt lat="38.9930011" lon="8.7345173"><ele>280.0</ele><time>2026-05-01T11:49:52.223Z</time></trkpt><trkpt lat="38.9928179" lon="8.73463"><ele>280.0</ele><time>2026-05-01T11:49:53.224Z</time></trkpt><trkpt lat="38.9926286" lon="8.7347455"><ele>280.0</ele><time>2026-05-01T11:49:54.223Z</time></trkpt><trkpt lat="38.992456" lon="8.7348578"><ele>280.0</ele><time>2026-05-01T11:49:55.224Z</time></trkpt><trkpt lat="38.9922928" lon="8.7349684"><ele>276.3333333333333</ele><time>2026-05-01T11:49:56.223Z</time></trkpt><trkpt lat="38.9921447" lon="8.7350911"><ele>272.6666666666667</ele><time>2026-05-01T11:49:57.223Z</time></trkpt><trkpt lat="38.9920154" lon="8.7352283"><ele>269.0</ele><time>2026-05-01T11:49:58.223Z</time></trkpt><trkpt lat="38.9919187" lon="8.7353866"><ele>269.0</ele><time>2026-05-01T11:49:59.224Z</time></trkpt><trkpt lat="38.9918577" lon="8.7355749"><ele>269.0</ele><time>2026-05-01T11:50:00.223Z</time></trkpt><trkpt lat="38.991827" lon="8.7357799"><ele>269.0</ele><time>2026-05-01T11:50:01.223Z</time></trkpt><trkpt lat="38.991807" lon="8.7359803"><ele>270.6666666666667</ele><time>2026-05-01T11:50:02.223Z</time></trkpt><trkpt lat="38.9917558" lon="8.7361671"><ele>272.3333333333333</ele><time>2026-05-01T11:50:03.224Z</time></trkpt><trkpt lat="38.9916647" lon="8.7363381"><ele>274.0</ele><time>2026-05-01T11:50:04.223Z</time></trkpt><trkpt lat="38.9915453" lon="8.736501"><ele>268.66666666666663</ele><time>2026-05-01T11:50:05.223Z</time></trkpt><trkpt lat="38.9914075" lon="8.7366723"><ele>263.3333333333333</ele><time>2026-05-01T11:50:06.224Z</time></trkpt><trkpt lat="38.9912562" lon="8.736859"><ele>258.0</ele><time>2026-05-01T11:50:07.224Z</time></trkpt><trkpt lat="38.9910943" lon="8.7370548"><ele>258.0</ele><time>2026-05-01T11:50:08.224Z</time></trkpt><trkpt lat="38.9909309" lon="8.7372555"><ele>258.0</ele><time>2026-05-01T11:50:09.223Z</time></trkpt><trkpt lat="38.9907692" lon="8.7374516"><ele>258.0</ele><time>2026-05-01T11:50:10.224Z</time></trkpt><trkpt lat="38.9906125" lon="8.7376404"><ele>254.66666666666669</ele><time>2026-05-01T11:50:11.223Z</time></trkpt><trkpt lat="38.9904567" lon="8.7378197"><ele>251.33333333333334</ele><time>2026-05-01T11:50:12.224Z</time></trkpt><trkpt lat="38.9903048" lon="8.7379911"><ele>248.0</ele><time>2026-05-01T11:50:13.223Z</time></trkpt><trkpt lat="38.9901538" lon="8.7381513"><ele>243.0</ele><time>2026-05-01T11:50:14.224Z</time></trkpt><trkpt lat="38.990004" lon="8.7382978"><ele>238.0</ele><time>2026-05-01T11:50:15.224Z</time></trkpt><trkpt lat="38.989856" lon="8.7384249"><ele>233.0</ele><time>2026-05-01T11:50:16.224Z</time></trkpt><trkpt lat="38.9897016" lon="8.738538"><ele>234.66666666666669</ele><time>2026-05-01T11:50:17.223Z</time></trkpt><trkpt lat="38.9895368" lon="8.7386369"><ele>236.33333333333331</ele><time>2026-05-01T11:50:18.224Z</time></trkpt><trkpt lat="38.9893638" lon="8.7387242"><ele>238.0</ele><time>2026-05-01T11:50:19.224Z</time></trkpt><trkpt lat="38.98918" lon="8.7387954"><ele>234.33333333333331</ele><time>2026-05-01T11:50:20.223Z</time></trkpt><trkpt lat="38.988982" lon="8.7388501"><ele>230.66666666666669</ele><time>2026-05-01T11:50:21.223Z</time></trkpt><trkpt lat="38.9887745" lon="8.7388922"><ele>227.0</ele><time>2026-05-01T11:50:22.224Z</time></trkpt><trkpt lat="38.9885584" lon="8.7389249"><ele>223.0</ele><time>2026-05-01T11:50:23.224Z</time></trkpt><trkpt lat="38.9883349" lon="8.7389542"><ele>219.0</ele><time>2026-05-01T11:50:24.223Z</time></trkpt><trkpt lat="38.9881084" lon="8.738983"><ele>219.0</ele><time>2026-05-01T11:50:25.224Z</time></trkpt><trkpt lat="38.9878789" lon="8.7390132"><ele>219.0</ele><time>2026-05-01T11:50:26.223Z</time></trkpt><trkpt lat="38.9876482" lon="8.739045"><ele>215.5</ele><time>2026-05-01T11:50:27.224Z</time></trkpt><trkpt lat="38.9874153" lon="8.7390781"><ele>212.0</ele><time>2026-05-01T11:50:28.223Z</time></trkpt><trkpt lat="38.9871813" lon="8.7391103"><ele>212.0</ele><time>2026-05-01T11:50:29.224Z</time></trkpt><trkpt lat="38.9869456" lon="8.7391416"><ele>212.0</ele><time>2026-05-01T11:50:30.224Z</time></trkpt><trkpt lat="38.9867079" lon="8.7391708"><ele>209.0</ele><time>2026-05-01T11:50:31.224Z</time></trkpt><trkpt lat="38.9864692" lon="8.7391987"><ele>206.0</ele><time>2026-05-01T11:50:32.224Z</time></trkpt><trkpt lat="38.9862291" lon="8.7392289"><ele>206.0</ele><time>2026-05-01T11:50:33.224Z</time></trkpt><trkpt lat="38.9859859" lon="8.7392619"><ele>206.0</ele><time>2026-05-01T11:50:34.224Z</time></trkpt><trkpt lat="38.9857404" lon="8.7392953"><ele>204.0</ele><time>2026-05-01T11:50:35.223Z</time></trkpt><trkpt lat="38.9854922" lon="8.7393269"><ele>202.0</ele><time>2026-05-01T11:50:36.223Z</time></trkpt><trkpt lat="38.9852406" lon="8.7393594"><ele>198.5</ele><time>2026-05-01T11:50:37.224Z</time></trkpt><trkpt lat="38.9849866" lon="8.7393926"><ele>195.0</ele><time>2026-05-01T11:50:38.223Z</time></trkpt><trkpt lat="38.9847303" lon="8.7394268"><ele>195.0</ele><time>2026-05-01T11:50:39.224Z</time></trkpt><trkpt lat="38.9844724" lon="8.7394606"><ele>195.0</ele><time>2026-05-01T11:50:40.224Z</time></trkpt><trkpt lat="38.984215" lon="8.7394942"><ele>193.5</ele><time>2026-05-01T11:50:41.223Z</time></trkpt><trkpt lat="38.9839573" lon="8.739526"><ele>192.0</ele><time>2026-05-01T11:50:42.224Z</time></trkpt><trkpt lat="38.9837" lon="8.7395583"><ele>192.0</ele><time>2026-05-01T11:50:43.223Z</time></trkpt><trkpt lat="38.9834424" lon="8.739591"><ele>192.0</ele><time>2026-05-01T11:50:44.223Z</time></trkpt><trkpt lat="38.9831933" lon="8.7396231"><ele>189.0</ele><time>2026-05-01T11:50:45.224Z</time></trkpt><trkpt lat="38.982951" lon="8.7396555"><ele>186.0</ele><time>2026-05-01T11:50:46.223Z</time></trkpt><trkpt lat="38.9827152" lon="8.7396868"><ele>185.0</ele><time>2026-05-01T11:50:47.223Z</time></trkpt><trkpt lat="38.9824865" lon="8.7397159"><ele>184.0</ele><time>2026-05-01T11:50:48.224Z</time></trkpt><trkpt lat="38.9822667" lon="8.7397434"><ele>184.0</ele><time>2026-05-01T11:50:49.224Z</time></trkpt><trkpt lat="38.9820504" lon="8.7397686"><ele>184.0</ele><time>2026-05-01T11:50:50.224Z</time></trkpt><trkpt lat="38.9818329" lon="8.7397956"><ele>184.0</ele><time>2026-05-01T11:50:51.223Z</time></trkpt><trkpt lat="38.9816309" lon="8.739824"><ele>183.66666666666669</ele><time>2026-05-01T11:50:52.223Z</time></trkpt><trkpt lat="38.981428" lon="8.7398571"><ele>183.33333333333334</ele><time>2026-05-01T11:50:53.223Z</time></trkpt><trkpt lat="38.9812238" lon="8.7399048"><ele>183.0</ele><time>2026-05-01T11:50:54.224Z</time></trkpt><trkpt lat="38.9810155" lon="8.7399705"><ele>182.66666666666666</ele><time>2026-05-01T11:50:55.224Z</time></trkpt><trkpt lat="38.9808083" lon="8.7400525"><ele>182.33333333333331</ele><time>2026-05-01T11:50:56.224Z</time></trkpt><trkpt lat="38.9806034" lon="8.7401524"><ele>182.0</ele><time>2026-05-01T11:50:57.224Z</time></trkpt><trkpt lat="38.980407" lon="8.7402713"><ele>182.33333333333331</ele><time>2026-05-01T11:50:58.224Z</time></trkpt><trkpt lat="38.9802162" lon="8.7404076"><ele>182.66666666666666</ele><time>2026-05-01T11:50:59.223Z</time></trkpt><trkpt lat="38.9800282" lon="8.7405559"><ele>183.0</ele><time>2026-05-01T11:51:00.223Z</time></trkpt><trkpt lat="38.9798389" lon="8.7407046"><ele>183.0</ele><time>2026-05-01T11:51:01.224Z</time></trkpt><trkpt lat="38.9796441" lon="8.740842"><ele>183.0</ele><time>2026-05-01T11:51:02.223Z</time></trkpt><trkpt lat="38.9794399" lon="8.7409558"><ele>183.0</ele><time>2026-05-01T11:51:03.224Z</time></trkpt><trkpt lat="38.9792311" lon="8.7410423"><ele>183.66666666666666</ele><time>2026-05-01T11:51:04.224Z</time></trkpt><trkpt lat="38.9790163" lon="8.7411022"><ele>184.33333333333331</ele><time>2026-05-01T11:51:05.223Z</time></trkpt><trkpt lat="38.9787946" lon="8.7411362"><ele>185.0</ele><time>2026-05-01T11:51:06.224Z</time></trkpt><trkpt lat="38.9785681" lon="8.741144"><ele>183.33333333333331</ele><time>2026-05-01T11:51:07.224Z</time></trkpt><trkpt lat="38.9783438" lon="8.7411267"><ele>181.66666666666666</ele><time>2026-05-01T11:51:08.224Z</time></trkpt><trkpt lat="38.978123" lon="8.741097"><ele>180.0</ele><time>2026-05-01T11:51:09.223Z</time></trkpt><trkpt lat="38.9778959" lon="8.7410661"><ele>176.0</ele><time>2026-05-01T11:51:10.224Z</time></trkpt><trkpt lat="38.9776654" lon="8.7410356"><ele>172.0</ele><time>2026-05-01T11:51:11.223Z</time></trkpt><trkpt lat="38.9774413" lon="8.7410087"><ele>170.66666666666669</ele><time>2026-05-01T11:51:12.224Z</time></trkpt><trkpt lat="38.9772292" lon="8.7409884"><ele>169.33333333333334</ele><time>2026-05-01T11:51:13.223Z</time></trkpt><trkpt lat="38.9770271" lon="8.7409869"><ele>168.0</ele><time>2026-05-01T11:51:14.224Z</time></trkpt><trkpt lat="38.9768365" lon="8.7410159"><ele>167.0</ele><time>2026-05-01T11:51:15.224Z</time></trkpt><trkpt lat="38.9766563" lon="8.7410692"><ele>166.0</ele><time>2026-05-01T11:51:16.224Z</time></trkpt><trkpt lat="38.9764879" lon="8.7411387"><ele>165.0</ele><time>2026-05-01T11:51:17.223Z</time></trkpt><trkpt lat="38.9763389" lon="8.7412356"><ele>165.0</ele><time>2026-05-01T11:51:18.224Z</time></trkpt><trkpt lat="38.9762086" lon="8.7413644"><ele>165.0</ele><time>2026-05-01T11:51:19.224Z</time></trkpt><trkpt lat="38.976094" lon="8.7415248"><ele>165.0</ele><time>2026-05-01T11:51:20.224Z</time></trkpt><trkpt lat="38.9760061" lon="8.7416982"><ele>165.0</ele><time>2026-05-01T11:51:21.223Z</time></trkpt><trkpt lat="38.9759464" lon="8.7418801"><ele>165.0</ele><time>2026-05-01T11:51:22.224Z</time></trkpt><trkpt lat="38.9759177" lon="8.7420709"><ele>165.0</ele><time>2026-05-01T11:51:23.224Z</time></trkpt><trkpt lat="38.9759192" lon="8.742281"><ele>165.0</ele><time>2026-05-01T11:51:24.223Z</time></trkpt><trkpt lat="38.9759546" lon="8.7424941"><ele>165.0</ele><time>2026-05-01T11:51:25.224Z</time></trkpt><trkpt lat="38.9760062" lon="8.742699"><ele>165.0</ele><time>2026-05-01T11:51:26.223Z</time></trkpt><trkpt lat="38.9760398" lon="8.742897"><ele>165.0</ele><time>2026-05-01T11:51:27.224Z</time></trkpt><trkpt lat="38.9760414" lon="8.7431019"><ele>165.0</ele><time>2026-05-01T11:51:28.224Z</time></trkpt><trkpt lat="38.9760124" lon="8.7433088"><ele>165.0</ele><time>2026-05-01T11:51:29.223Z</time></trkpt><trkpt lat="38.9759475" lon="8.7435082"><ele>160.66666666666666</ele><time>2026-05-01T11:51:30.223Z</time></trkpt><trkpt lat="38.9758506" lon="8.743695"><ele>156.33333333333331</ele><time>2026-05-01T11:51:31.224Z</time></trkpt><trkpt lat="38.975726" lon="8.7438656"><ele>152.0</ele><time>2026-05-01T11:51:32.224Z</time></trkpt><trkpt lat="38.9756051" lon="8.7440221"><ele>152.0</ele><time>2026-05-01T11:51:33.223Z</time></trkpt><trkpt lat="38.9754967" lon="8.744185"><ele>152.0</ele><time>2026-05-01T11:51:34.224Z</time></trkpt><trkpt lat="38.9754123" lon="8.7443569"><ele>152.0</ele><time>2026-05-01T11:51:35.224Z</time></trkpt><trkpt lat="38.9753491" lon="8.7445549"><ele>152.33333333333331</ele><time>2026-05-01T11:51:36.224Z</time></trkpt><trkpt lat="38.9752957" lon="8.7447658"><ele>152.66666666666666</ele><time>2026-05-01T11:51:37.224Z</time></trkpt><trkpt lat="38.9752565" lon="8.7449927"><ele>153.0</ele><time>2026-05-01T11:51:38.223Z</time></trkpt><trkpt lat="38.9752221" lon="8.7452283"><ele>153.0</ele><time>2026-05-01T11:51:39.224Z</time></trkpt><trkpt lat="38.9751995" lon="8.7454659"><ele>153.0</ele><time>2026-05-01T11:51:40.223Z</time></trkpt><trkpt lat="38.9751921" lon="8.7456975"><ele>153.0</ele><time>2026-05-01T11:51:41.223Z</time></trkpt><trkpt lat="38.9752014" lon="8.7459304"><ele>151.0</ele><time>2026-05-01T11:51:42.224Z</time></trkpt><trkpt lat="38.9752263" lon="8.7461589"><ele>149.0</ele><time>2026-05-01T11:51:43.224Z</time></trkpt><trkpt lat="38.9752702" lon="8.7463742"><ele>147.0</ele><time>2026-05-01T11:51:44.223Z</time></trkpt><trkpt lat="38.9753083" lon="8.746573"><ele>147.0</ele><time>2026-05-01T11:51:45.223Z</time></trkpt><trkpt lat="38.9753199" lon="8.7467562"><ele>147.0</ele><time>2026-05-01T11:51:46.224Z</time></trkpt><trkpt lat="38.9752959" lon="8.7469328"><ele>147.0</ele><time>2026-05-01T11:51:47.223Z</time></trkpt><trkpt lat="38.9752396" lon="8.747098"><ele>147.0</ele><time>2026-05-01T11:51:48.223Z</time></trkpt><trkpt lat="38.9751509" lon="8.7472338"><ele>145.25</ele><time>2026-05-01T11:51:49.223Z</time></trkpt><trkpt lat="38.9750328" lon="8.7473432"><ele>143.5</ele><time>2026-05-01T11:51:50.223Z</time></trkpt><trkpt lat="38.9749046" lon="8.7474068"><ele>141.75</ele><time>2026-05-01T11:51:51.223Z</time></trkpt><trkpt lat="38.9747594" lon="8.7474188"><ele>140.0</ele><time>2026-05-01T11:51:52.224Z</time></trkpt><trkpt lat="38.9746113" lon="8.7473726"><ele>136.0</ele><time>2026-05-01T11:51:53.223Z</time></trkpt><trkpt lat="38.9744752" lon="8.7472755"><ele>132.0</ele><time>2026-05-01T11:51:54.223Z</time></trkpt><trkpt lat="38.9743588" lon="8.7471341"><ele>128.0</ele><time>2026-05-01T11:51:55.223Z</time></trkpt><trkpt lat="38.9742445" lon="8.7469816"><ele>123.0</ele><time>2026-05-01T11:51:56.224Z</time></trkpt><trkpt lat="38.9741232" lon="8.7468464"><ele>118.0</ele><time>2026-05-01T11:51:57.223Z</time></trkpt><trkpt lat="38.9739872" lon="8.7467336"><ele>113.0</ele><time>2026-05-01T11:51:58.224Z</time></trkpt><trkpt lat="38.9738329" lon="8.7466425"><ele>113.0</ele><time>2026-05-01T11:51:59.223Z</time></trkpt><trkpt lat="38.973656" lon="8.7465872"><ele>113.0</ele><time>2026-05-01T11:52:00.223Z</time></trkpt><trkpt lat="38.9734584" lon="8.7465517"><ele>113.0</ele><time>2026-05-01T11:52:01.223Z</time></trkpt><trkpt lat="38.9732424" lon="8.746531"><ele>113.0</ele><time>2026-05-01T11:52:02.223Z</time></trkpt><trkpt lat="38.973009" lon="8.7465236"><ele>113.0</ele><time>2026-05-01T11:52:03.224Z</time></trkpt><trkpt lat="38.9727761" lon="8.7465282"><ele>113.0</ele><time>2026-05-01T11:52:04.224Z</time></trkpt><trkpt lat="38.9725419" lon="8.7465473"><ele>113.0</ele><time>2026-05-01T11:52:05.224Z</time></trkpt><trkpt lat="38.9723049" lon="8.7465779"><ele>110.0</ele><time>2026-05-01T11:52:06.223Z</time></trkpt><trkpt lat="38.972071" lon="8.7466138"><ele>107.0</ele><time>2026-05-01T11:52:07.223Z</time></trkpt><trkpt lat="38.9718405" lon="8.7466457"><ele>101.5</ele><time>2026-05-01T11:52:08.224Z</time></trkpt><trkpt lat="38.9716061" lon="8.746676"><ele>96.0</ele><time>2026-05-01T11:52:09.224Z</time></trkpt><trkpt lat="38.9713694" lon="8.746699"><ele>96.0</ele><time>2026-05-01T11:52:10.224Z</time></trkpt><trkpt lat="38.9711289" lon="8.7467081"><ele>96.0</ele><time>2026-05-01T11:52:11.224Z</time></trkpt><trkpt lat="38.9708862" lon="8.7467108"><ele>94.5</ele><time>2026-05-01T11:52:12.224Z</time></trkpt><trkpt lat="38.9706516" lon="8.7467118"><ele>93.0</ele><time>2026-05-01T11:52:13.224Z</time></trkpt><trkpt lat="38.9704239" lon="8.7467129"><ele>93.0</ele><time>2026-05-01T11:52:14.223Z</time></trkpt><trkpt lat="38.9702015" lon="8.7467245"><ele>93.0</ele><time>2026-05-01T11:52:15.224Z</time></trkpt><trkpt lat="38.9699787" lon="8.7467536"><ele>93.0</ele><time>2026-05-01T11:52:16.223Z</time></trkpt><trkpt lat="38.9697685" lon="8.7468047"><ele>91.33333333333333</ele><time>2026-05-01T11:52:17.224Z</time></trkpt><trkpt lat="38.9695664" lon="8.7468698"><ele>89.66666666666666</ele><time>2026-05-01T11:52:18.223Z</time></trkpt><trkpt lat="38.969372" lon="8.7469535"><ele>88.0</ele><time>2026-05-01T11:52:19.223Z</time></trkpt><trkpt lat="38.9691831" lon="8.7470605"><ele>88.0</ele><time>2026-05-01T11:52:20.223Z</time></trkpt><trkpt lat="38.9690021" lon="8.7471887"><ele>88.0</ele><time>2026-05-01T11:52:21.223Z</time></trkpt><trkpt lat="38.9688303" lon="8.7473374"><ele>88.0</ele><time>2026-05-01T11:52:22.223Z</time></trkpt><trkpt lat="38.968669" lon="8.7475051"><ele>88.0</ele><time>2026-05-01T11:52:23.224Z</time></trkpt><trkpt lat="38.9685174" lon="8.7476896"><ele>88.0</ele><time>2026-05-01T11:52:24.224Z</time></trkpt><trkpt lat="38.9683764" lon="8.7478907"><ele>88.0</ele><time>2026-05-01T11:52:25.223Z</time></trkpt><trkpt lat="38.9682494" lon="8.7481101"><ele>85.0</ele><time>2026-05-01T11:52:26.224Z</time></trkpt><trkpt lat="38.9681418" lon="8.7483488"><ele>82.0</ele><time>2026-05-01T11:52:27.223Z</time></trkpt><trkpt lat="38.9680439" lon="8.7486074"><ele>79.0</ele><time>2026-05-01T11:52:28.224Z</time></trkpt><trkpt lat="38.9679562" lon="8.7488756"><ele>78.0</ele><time>2026-05-01T11:52:29.223Z</time></trkpt><trkpt lat="38.9678786" lon="8.7491524"><ele>77.0</ele><time>2026-05-01T11:52:30.223Z</time></trkpt><trkpt lat="38.9678168" lon="8.7494325"><ele>75.0</ele><time>2026-05-01T11:52:31.224Z</time></trkpt><trkpt lat="38.9677736" lon="8.7497065"><ele>73.0</ele><time>2026-05-01T11:52:32.224Z</time></trkpt><trkpt lat="38.9677534" lon="8.7499759"><ele>71.0</ele><time>2026-05-01T11:52:33.224Z</time></trkpt><trkpt lat="38.9677461" lon="8.7502416"><ele>70.33333333333334</ele><time>2026-05-01T11:52:34.223Z</time></trkpt><trkpt lat="38.9677434" lon="8.7504989"><ele>69.66666666666667</ele><time>2026-05-01T11:52:35.224Z</time></trkpt><trkpt lat="38.9677318" lon="8.7507256"><ele>69.0</ele><time>2026-05-01T11:52:36.224Z</time></trkpt><trkpt lat="38.9677027" lon="8.7509429"><ele>69.33333333333333</ele><time>2026-05-01T11:52:37.223Z</time></trkpt><trkpt lat="38.9676508" lon="8.7511571"><ele>69.66666666666666</ele><time>2026-05-01T11:52:38.224Z</time></trkpt><trkpt lat="38.9675755" lon="8.7513677"><ele>70.0</ele><time>2026-05-01T11:52:39.224Z</time></trkpt><trkpt lat="38.9674779" lon="8.7515744"><ele>68.66666666666666</ele><time>2026-05-01T11:52:40.223Z</time></trkpt><trkpt lat="38.9673587" lon="8.7517574"><ele>67.33333333333333</ele><time>2026-05-01T11:52:41.223Z</time></trkpt><trkpt lat="38.967227" lon="8.7519124"><ele>66.0</ele><time>2026-05-01T11:52:42.224Z</time></trkpt><trkpt lat="38.9670834" lon="8.7520347"><ele>66.0</ele><time>2026-05-01T11:52:43.224Z</time></trkpt><trkpt lat="38.9669289" lon="8.752142"><ele>66.0</ele><time>2026-05-01T11:52:44.224Z</time></trkpt><trkpt lat="38.9667611" lon="8.7522215"><ele>66.0</ele><time>2026-05-01T11:52:45.223Z</time></trkpt><trkpt lat="38.9665687" lon="8.7522803"><ele>65.33333333333333</ele><time>2026-05-01T11:52:46.223Z</time></trkpt><trkpt lat="38.9663679" lon="8.752326"><ele>64.66666666666666</ele><time>2026-05-01T11:52:47.223Z</time></trkpt><trkpt lat="38.9661821" lon="8.7523663"><ele>64.0</ele><time>2026-05-01T11:52:48.224Z</time></trkpt><trkpt lat="38.9659852" lon="8.7524028"><ele>64.33333333333333</ele><time>2026-05-01T11:52:49.224Z</time></trkpt><trkpt lat="38.9657834" lon="8.7524403"><ele>64.66666666666667</ele><time>2026-05-01T11:52:50.224Z</time></trkpt><trkpt lat="38.9655879" lon="8.7524893"><ele>65.0</ele><time>2026-05-01T11:52:51.224Z</time></trkpt><trkpt lat="38.9654088" lon="8.7525575"><ele>65.0</ele><time>2026-05-01T11:52:52.223Z</time></trkpt><trkpt lat="38.9652382" lon="8.7526526"><ele>65.0</ele><time>2026-05-01T11:52:53.223Z</time></trkpt><trkpt lat="38.9650724" lon="8.752772"><ele>65.0</ele><time>2026-05-01T11:52:54.223Z</time></trkpt><trkpt lat="38.9649161" lon="8.7529149"><ele>65.33333333333334</ele><time>2026-05-01T11:52:55.224Z</time></trkpt><trkpt lat="38.9647664" lon="8.7530855"><ele>65.66666666666667</ele><time>2026-05-01T11:52:56.224Z</time></trkpt><trkpt lat="38.964619" lon="8.7532803"><ele>66.0</ele><time>2026-05-01T11:52:57.224Z</time></trkpt><trkpt lat="38.9644697" lon="8.7534885"><ele>64.33333333333333</ele><time>2026-05-01T11:52:58.223Z</time></trkpt><trkpt lat="38.9643316" lon="8.7536855"><ele>62.666666666666664</ele><time>2026-05-01T11:52:59.224Z</time></trkpt><trkpt lat="38.9642028" lon="8.7538888"><ele>61.0</ele><time>2026-05-01T11:53:00.223Z</time></trkpt><trkpt lat="38.9640863" lon="8.7540993"><ele>61.0</ele><time>2026-05-01T11:53:01.224Z</time></trkpt><trkpt lat="38.9639771" lon="8.7543141"><ele>61.0</ele><time>2026-05-01T11:53:02.224Z</time></trkpt><trkpt lat="38.9638821" lon="8.754515"><ele>61.0</ele><time>2026-05-01T11:53:03.224Z</time></trkpt><trkpt lat="38.9638038" lon="8.7547002"><ele>61.33333333333333</ele><time>2026-05-01T11:53:04.224Z</time></trkpt><trkpt lat="38.9637461" lon="8.7548836"><ele>61.66666666666667</ele><time>2026-05-01T11:53:05.224Z</time></trkpt><trkpt lat="38.9637114" lon="8.7550803"><ele>62.0</ele><time>2026-05-01T11:53:06.223Z</time></trkpt><trkpt lat="38.9636971" lon="8.7552879"><ele>62.0</ele><time>2026-05-01T11:53:07.223Z</time></trkpt><trkpt lat="38.9637062" lon="8.7555032"><ele>62.0</ele><time>2026-05-01T11:53:08.224Z</time></trkpt><trkpt lat="38.9637451" lon="8.7557113"><ele>62.0</ele><time>2026-05-01T11:53:09.224Z</time></trkpt><trkpt lat="38.9638137" lon="8.7559248"><ele>57.333333333333336</ele><time>2026-05-01T11:53:10.223Z</time></trkpt><trkpt lat="38.9638988" lon="8.7561473"><ele>52.66666666666667</ele><time>2026-05-01T11:53:11.224Z</time></trkpt><trkpt lat="38.9639934" lon="8.7563823"><ele>48.0</ele><time>2026-05-01T11:53:12.223Z</time></trkpt><trkpt lat="38.9640927" lon="8.756628"><ele>49.66666666666667</ele><time>2026-05-01T11:53:13.223Z</time></trkpt><trkpt lat="38.9641878" lon="8.7568809"><ele>51.333333333333336</ele><time>2026-05-01T11:53:14.224Z</time></trkpt><trkpt lat="38.9642759" lon="8.757123"><ele>53.0</ele><time>2026-05-01T11:53:15.224Z</time></trkpt><trkpt lat="38.9643489" lon="8.7573536"><ele>53.0</ele><time>2026-05-01T11:53:16.224Z</time></trkpt><trkpt lat="38.9644048" lon="8.7575848"><ele>53.0</ele><time>2026-05-01T11:53:17.224Z</time></trkpt><trkpt lat="38.9644447" lon="8.7578149"><ele>53.0</ele><time>2026-05-01T11:53:18.223Z</time></trkpt><trkpt lat="38.964471" lon="8.7580439"><ele>51.0</ele><time>2026-05-01T11:53:19.224Z</time></trkpt><trkpt lat="38.9644939" lon="8.7582748"><ele>49.0</ele><time>2026-05-01T11:53:20.224Z</time></trkpt><trkpt lat="38.964518" lon="8.7585104"><ele>47.0</ele><time>2026-05-01T11:53:21.224Z</time></trkpt><trkpt lat="38.9645444" lon="8.7587437"><ele>45.666666666666664</ele><time>2026-05-01T11:53:22.223Z</time></trkpt><trkpt lat="38.9645729" lon="8.7589784"><ele>44.333333333333336</ele><time>2026-05-01T11:53:23.223Z</time></trkpt><trkpt lat="38.9646043" lon="8.7592116"><ele>43.0</ele><time>2026-05-01T11:53:24.224Z</time></trkpt><trkpt lat="38.9646374" lon="8.7594477"><ele>42.66666666666667</ele><time>2026-05-01T11:53:25.223Z</time></trkpt><trkpt lat="38.9646749" lon="8.759691"><ele>42.333333333333336</ele><time>2026-05-01T11:53:26.223Z</time></trkpt><trkpt lat="38.9647102" lon="8.759932"><ele>42.0</ele><time>2026-05-01T11:53:27.223Z</time></trkpt><trkpt lat="38.9647524" lon="8.7601745"><ele>40.333333333333336</ele><time>2026-05-01T11:53:28.224Z</time></trkpt><trkpt lat="38.9648097" lon="8.7604145"><ele>38.66666666666667</ele><time>2026-05-01T11:53:29.224Z</time></trkpt><trkpt lat="38.9648778" lon="8.7606504"><ele>37.0</ele><time>2026-05-01T11:53:30.224Z</time></trkpt><trkpt lat="38.9649582" lon="8.7608814"><ele>41.0</ele><time>2026-05-01T11:53:31.224Z</time></trkpt><trkpt lat="38.9650483" lon="8.761108"><ele>45.0</ele><time>2026-05-01T11:53:32.223Z</time></trkpt><trkpt lat="38.9651498" lon="8.7613268"><ele>49.0</ele><time>2026-05-01T11:53:33.223Z</time></trkpt><trkpt lat="38.9652624" lon="8.7615354"><ele>49.0</ele><time>2026-05-01T11:53:34.223Z</time></trkpt><trkpt lat="38.9653818" lon="8.761731"><ele>49.0</ele><time>2026-05-01T11:53:35.224Z</time></trkpt><trkpt lat="38.9654978" lon="8.761913"><ele>49.0</ele><time>2026-05-01T11:53:36.223Z</time></trkpt><trkpt lat="38.9656045" lon="8.7620824"><ele>47.0</ele><time>2026-05-01T11:53:37.223Z</time></trkpt><trkpt lat="38.9656969" lon="8.7622412"><ele>45.0</ele><time>2026-05-01T11:53:38.224Z</time></trkpt><trkpt lat="38.9657648" lon="8.7623915"><ele>43.0</ele><time>2026-05-01T11:53:39.223Z</time></trkpt><trkpt lat="38.9658027" lon="8.7625389"><ele>41.0</ele><time>2026-05-01T11:53:40.223Z</time></trkpt><trkpt lat="38.9658074" lon="8.7626906"><ele>40.5</ele><time>2026-05-01T11:53:41.223Z</time></trkpt><trkpt lat="38.9657845" lon="8.7628467"><ele>40.0</ele><time>2026-05-01T11:53:42.224Z</time></trkpt><trkpt lat="38.9657352" lon="8.7629979"><ele>39.5</ele><time>2026-05-01T11:53:43.224Z</time></trkpt><trkpt lat="38.9656596" lon="8.7631435"><ele>39.0</ele><time>2026-05-01T11:53:44.224Z</time></trkpt><trkpt lat="38.9655655" lon="8.763295"><ele>39.0</ele><time>2026-05-01T11:53:45.223Z</time></trkpt><trkpt lat="38.9654577" lon="8.7634599"><ele>39.0</ele><time>2026-05-01T11:53:46.223Z</time></trkpt><trkpt lat="38.9653548" lon="8.7636113"><ele>39.0</ele><time>2026-05-01T11:53:47.223Z</time></trkpt><trkpt lat="38.965258" lon="8.7637562"><ele>38.5</ele><time>2026-05-01T11:53:48.224Z</time></trkpt><trkpt lat="38.9651699" lon="8.7638975"><ele>38.0</ele><time>2026-05-01T11:53:49.223Z</time></trkpt><trkpt lat="38.9650918" lon="8.7640295"><ele>37.5</ele><time>2026-05-01T11:53:50.224Z</time></trkpt><trkpt lat="38.9650202" lon="8.7641438"><ele>37.0</ele><time>2026-05-01T11:53:51.223Z</time></trkpt><trkpt lat="38.964954" lon="8.7642436"><ele>36.833333333333336</ele><time>2026-05-01T11:53:52.223Z</time></trkpt><trkpt lat="38.964899" lon="8.7643306"><ele>36.66666666666667</ele><time>2026-05-01T11:53:53.224Z</time></trkpt><trkpt lat="38.9648541" lon="8.7644002"><ele>36.5</ele><time>2026-05-01T11:53:54.223Z</time></trkpt><trkpt lat="38.9647972" lon="8.7644856"><ele>36.333333333333336</ele><time>2026-05-01T11:53:56.224Z</time></trkpt><trkpt lat="38.9647976" lon="8.7646181"><ele>36.166666666666664</ele><time>2026-05-01T11:54:02.224Z</time></trkpt><trkpt lat="38.9648436" lon="8.7646933"><ele>36.0</ele><time>2026-05-01T11:54:03.224Z</time></trkpt><trkpt lat="38.9649066" lon="8.7647787"><ele>36.0</ele><time>2026-05-01T11:54:04.223Z</time></trkpt><trkpt lat="38.964978" lon="8.7648726"><ele>36.0</ele><time>2026-05-01T11:54:05.223Z</time></trkpt><trkpt lat="38.9650598" lon="8.7649856"><ele>36.0</ele><time>2026-05-01T11:54:06.224Z</time></trkpt><trkpt lat="38.9651479" lon="8.7651047"><ele>36.0</ele><time>2026-05-01T11:54:07.224Z</time></trkpt><trkpt lat="38.9652386" lon="8.7652282"><ele>36.75</ele><time>2026-05-01T11:54:08.223Z</time></trkpt><trkpt lat="38.9653245" lon="8.7653453"><ele>37.5</ele><time>2026-05-01T11:54:09.223Z</time></trkpt><trkpt lat="38.9654143" lon="8.7654634"><ele>38.25</ele><time>2026-05-01T11:54:10.224Z</time></trkpt><trkpt lat="38.9654964" lon="8.7655753"><ele>39.0</ele><time>2026-05-01T11:54:11.224Z</time></trkpt><trkpt lat="38.9655734" lon="8.7656795"><ele>39.0</ele><time>2026-05-01T11:54:12.224Z</time></trkpt><trkpt lat="38.9656485" lon="8.7657814"><ele>39.0</ele><time>2026-05-01T11:54:13.224Z</time></trkpt><trkpt lat="38.9657273" lon="8.7658816"><ele>39.0</ele><time>2026-05-01T11:54:14.224Z</time></trkpt><trkpt lat="38.9658071" lon="8.7659829"><ele>39.0</ele><time>2026-05-01T11:54:15.223Z</time></trkpt><trkpt lat="38.9658856" lon="8.7660863"><ele>39.0</ele><time>2026-05-01T11:54:16.223Z</time></trkpt><trkpt lat="38.9659679" lon="8.7661899"><ele>39.5</ele><time>2026-05-01T11:54:17.223Z</time></trkpt><trkpt lat="38.9660497" lon="8.7662964"><ele>40.0</ele><time>2026-05-01T11:54:18.224Z</time></trkpt><trkpt lat="38.9661287" lon="8.7664029"><ele>40.5</ele><time>2026-05-01T11:54:19.223Z</time></trkpt><trkpt lat="38.9662094" lon="8.7665136"><ele>41.0</ele><time>2026-05-01T11:54:20.224Z</time></trkpt><trkpt lat="38.9662905" lon="8.7666267"><ele>41.0</ele><time>2026-05-01T11:54:21.223Z</time></trkpt><trkpt lat="38.9663741" lon="8.7667429"><ele>41.0</ele><time>2026-05-01T11:54:22.223Z</time></trkpt><trkpt lat="38.9664594" lon="8.7668604"><ele>41.0</ele><time>2026-05-01T11:54:23.224Z</time></trkpt><trkpt lat="38.9665473" lon="8.7669777"><ele>41.0</ele><time>2026-05-01T11:54:24.224Z</time></trkpt><trkpt lat="38.9666373" lon="8.7670977"><ele>41.0</ele><time>2026-05-01T11:54:25.223Z</time></trkpt><trkpt lat="38.9667286" lon="8.7672214"><ele>41.0</ele><time>2026-05-01T11:54:26.224Z</time></trkpt><trkpt lat="38.9668214" lon="8.767347"><ele>41.0</ele><time>2026-05-01T11:54:27.223Z</time></trkpt><trkpt lat="38.9669167" lon="8.767475"><ele>41.0</ele><time>2026-05-01T11:54:28.224Z</time></trkpt><trkpt lat="38.9670114" lon="8.7676016"><ele>42.0</ele><time>2026-05-01T11:54:29.223Z</time></trkpt><trkpt lat="38.9670972" lon="8.767715"><ele>43.0</ele><time>2026-05-01T11:54:30.224Z</time></trkpt><trkpt lat="38.9671805" lon="8.7678205"><ele>44.0</ele><time>2026-05-01T11:54:31.223Z</time></trkpt><trkpt lat="38.967257" lon="8.767921"><ele>45.0</ele><time>2026-05-01T11:54:32.223Z</time></trkpt><trkpt lat="38.9673298" lon="8.768016"><ele>45.0</ele><time>2026-05-01T11:54:33.223Z</time></trkpt><trkpt lat="38.9674021" lon="8.7681137"><ele>45.0</ele><time>2026-05-01T11:54:34.224Z</time></trkpt><trkpt lat="38.9674784" lon="8.7682144"><ele>45.0</ele><time>2026-05-01T11:54:35.224Z</time></trkpt><trkpt lat="38.967557" lon="8.7683152"><ele>45.0</ele><time>2026-05-01T11:54:36.223Z</time></trkpt><trkpt lat="38.9676356" lon="8.7684186"><ele>45.0</ele><time>2026-05-01T11:54:37.224Z</time></trkpt><trkpt lat="38.9677154" lon="8.7685245"><ele>45.0</ele><time>2026-05-01T11:54:38.224Z</time></trkpt><trkpt lat="38.9677991" lon="8.768635"><ele>45.0</ele><time>2026-05-01T11:54:39.223Z</time></trkpt><trkpt lat="38.9678837" lon="8.7687483"><ele>45.0</ele><time>2026-05-01T11:54:40.224Z</time></trkpt><trkpt lat="38.9679726" lon="8.7688632"><ele>45.0</ele><time>2026-05-01T11:54:41.224Z</time></trkpt><trkpt lat="38.9680578" lon="8.7689681"><ele>45.0</ele><time>2026-05-01T11:54:42.223Z</time></trkpt><trkpt lat="38.9681336" lon="8.769062"><ele>45.0</ele><time>2026-05-01T11:54:43.223Z</time></trkpt><trkpt lat="38.9681937" lon="8.7691368"><ele>45.0</ele><time>2026-05-01T11:54:44.224Z</time></trkpt><trkpt lat="38.9682455" lon="8.7692016"><ele>45.0</ele><time>2026-05-01T11:54:45.223Z</time></trkpt><trkpt lat="38.9683229" lon="8.7693011"><ele>45.0</ele><time>2026-05-01T11:54:47.223Z</time></trkpt><trkpt lat="38.9684132" lon="8.7694105"><ele>45.333333333333336</ele><time>2026-05-01T11:54:49.223Z</time></trkpt><trkpt lat="38.9684638" lon="8.7694738"><ele>45.666666666666664</ele><time>2026-05-01T11:54:50.224Z</time></trkpt><trkpt lat="38.968514" lon="8.7695427"><ele>46.0</ele><time>2026-05-01T11:54:51.224Z</time></trkpt><trkpt lat="38.9685623" lon="8.7696116"><ele>46.33333333333333</ele><time>2026-05-01T11:54:52.224Z</time></trkpt><trkpt lat="38.968604" lon="8.7696779"><ele>46.666666666666664</ele><time>2026-05-01T11:54:53.224Z</time></trkpt><trkpt lat="38.9686614" lon="8.769812"><ele>47.0</ele><time>2026-05-01T11:54:55.224Z</time></trkpt><trkpt lat="38.9686963" lon="8.7699512"><ele>47.0</ele><time>2026-05-01T11:54:57.223Z</time></trkpt><trkpt lat="38.968705" lon="8.7700559"><ele>47.0</ele><time>2026-05-01T11:54:59.223Z</time></trkpt><trkpt lat="38.9686261" lon="8.770092"><ele>47.0</ele><time>2026-05-01T11:55:35.223Z</time></trkpt><trkpt lat="38.9685899" lon="8.7701647"><ele>47.0</ele><time>2026-05-01T11:55:37.223Z</time></trkpt><trkpt lat="38.968587" lon="8.7702653"><ele>47.0</ele><time>2026-05-01T11:55:40.224Z</time></trkpt><trkpt lat="38.9686423" lon="8.7702229"><ele>47.0</ele><time>2026-05-01T11:55:45.224Z</time></trkpt><trkpt lat="38.9686293" lon="8.7700853"><ele>47.0</ele><time>2026-05-01T12:16:31.222Z</time></trkpt><trkpt lat="38.9686132" lon="8.7699831"><ele>47.0</ele><time>2026-05-01T12:16:33.69Z</time></trkpt><trkpt lat="38.9686894" lon="8.7699744"><ele>47.0</ele><time>2026-05-01T12:16:43.222Z</time></trkpt><trkpt lat="38.9687532" lon="8.7700578"><ele>47.0</ele><time>2026-05-01T12:16:46.221Z</time></trkpt><trkpt lat="38.968782" lon="8.7701783"><ele>47.0</ele><time>2026-05-01T12:16:48.221Z</time></trkpt><trkpt lat="38.9688234" lon="8.7702663"><ele>47.0</ele><time>2026-05-01T12:16:49.222Z</time></trkpt><trkpt lat="38.9688656" lon="8.7703699"><ele>47.5</ele><time>2026-05-01T12:16:50.222Z</time></trkpt><trkpt lat="38.9689005" lon="8.7704633"><ele>48.0</ele><time>2026-05-01T12:16:51.222Z</time></trkpt><trkpt lat="38.9689319" lon="8.7705548"><ele>48.5</ele><time>2026-05-01T12:16:52.222Z</time></trkpt><trkpt lat="38.968954" lon="8.7706356"><ele>49.0</ele><time>2026-05-01T12:16:53.222Z</time></trkpt><trkpt lat="38.9689744" lon="8.7707463"><ele>49.50000000000001</ele><time>2026-05-01T12:16:55.221Z</time></trkpt><trkpt lat="38.9689475" lon="8.7708533"><ele>50.0</ele><time>2026-05-01T12:16:57.222Z</time></trkpt><trkpt lat="38.9689088" lon="8.7710077"><ele>50.50000000000001</ele><time>2026-05-01T12:16:59.222Z</time></trkpt><trkpt lat="38.9688873" lon="8.7710983"><ele>51.0</ele><time>2026-05-01T12:17:00.221Z</time></trkpt><trkpt lat="38.9688649" lon="8.7711947"><ele>51.5</ele><time>2026-05-01T12:17:01.222Z</time></trkpt><trkpt lat="38.9688412" lon="8.7712931"><ele>52.0</ele><time>2026-05-01T12:17:02.222Z</time></trkpt><trkpt lat="38.9688262" lon="8.7713942"><ele>52.50000000000001</ele><time>2026-05-01T12:17:03.222Z</time></trkpt><trkpt lat="38.9688144" lon="8.7714947"><ele>53.0</ele><time>2026-05-01T12:17:04.222Z</time></trkpt><trkpt lat="38.9688018" lon="8.7715861"><ele>53.0</ele><time>2026-05-01T12:17:05.222Z</time></trkpt><trkpt lat="38.968789" lon="8.7716705"><ele>53.0</ele><time>2026-05-01T12:17:06.222Z</time></trkpt><trkpt lat="38.9687755" lon="8.7717538"><ele>53.0</ele><time>2026-05-01T12:17:07.221Z</time></trkpt><trkpt lat="38.9687573" lon="8.7718371"><ele>53.0</ele><time>2026-05-01T12:17:08.222Z</time></trkpt><trkpt lat="38.9687416" lon="8.7719258"><ele>53.0</ele><time>2026-05-01T12:17:09.221Z</time></trkpt><trkpt lat="38.9687262" lon="8.772015"><ele>53.0</ele><time>2026-05-01T12:17:10.222Z</time></trkpt><trkpt lat="38.968713" lon="8.7721025"><ele>53.0</ele><time>2026-05-01T12:17:11.221Z</time></trkpt><trkpt lat="38.9686972" lon="8.7721891"><ele>53.50000000000001</ele><time>2026-05-01T12:17:12.222Z</time></trkpt><trkpt lat="38.9686829" lon="8.7722775"><ele>54.0</ele><time>2026-05-01T12:17:13.222Z</time></trkpt><trkpt lat="38.9686677" lon="8.7723704"><ele>54.5</ele><time>2026-05-01T12:17:14.221Z</time></trkpt><trkpt lat="38.968657" lon="8.7725122"><ele>55.0</ele><time>2026-05-01T12:17:16.222Z</time></trkpt><trkpt lat="38.9686503" lon="8.7726075"><ele>55.50000000000001</ele><time>2026-05-01T12:17:18.221Z</time></trkpt><trkpt lat="38.9686312" lon="8.7726849"><ele>56.0</ele><time>2026-05-01T12:17:20.221Z</time></trkpt><trkpt lat="38.9686081" lon="8.7727731"><ele>56.333333333333336</ele><time>2026-05-01T12:17:22.222Z</time></trkpt><trkpt lat="38.9685879" lon="8.7728689"><ele>56.66666666666667</ele><time>2026-05-01T12:17:24.222Z</time></trkpt><trkpt lat="38.9685715" lon="8.7729605"><ele>57.0</ele><time>2026-05-01T12:17:26.221Z</time></trkpt><trkpt lat="38.9685436" lon="8.7730345"><ele>57.33333333333333</ele><time>2026-05-01T12:17:28.222Z</time></trkpt><trkpt lat="38.9684816" lon="8.7730628"><ele>57.666666666666664</ele><time>2026-05-01T12:17:30.221Z</time></trkpt><trkpt lat="38.9684092" lon="8.7730333"><ele>58.0</ele><time>2026-05-01T12:17:32.222Z</time></trkpt><trkpt lat="38.968321" lon="8.7729578"><ele>56.2</ele><time>2026-05-01T12:17:34.222Z</time></trkpt><trkpt lat="38.9682244" lon="8.7728846"><ele>54.4</ele><time>2026-05-01T12:17:36.222Z</time></trkpt><trkpt lat="38.9681488" lon="8.7728431"><ele>52.6</ele><time>2026-05-01T12:17:38.221Z</time></trkpt><trkpt lat="38.9680862" lon="8.7728518"><ele>50.800000000000004</ele><time>2026-05-01T12:17:40.222Z</time></trkpt><trkpt lat="38.9680157" lon="8.7729285"><ele>49.0</ele><time>2026-05-01T12:17:42.221Z</time></trkpt><trkpt lat="38.9679553" lon="8.7730809"><ele>48.99999999999999</ele><time>2026-05-01T12:17:44.221Z</time></trkpt><trkpt lat="38.967924" lon="8.7731717"><ele>49.0</ele><time>2026-05-01T12:17:45.222Z</time></trkpt><trkpt lat="38.9678768" lon="8.7732631"><ele>49.0</ele><time>2026-05-01T12:17:46.222Z</time></trkpt><trkpt lat="38.967821" lon="8.7733436"><ele>49.0</ele><time>2026-05-01T12:17:47.221Z</time></trkpt><trkpt lat="38.9677718" lon="8.773422"><ele>48.99999999999999</ele><time>2026-05-01T12:17:48.221Z</time></trkpt><trkpt lat="38.9677193" lon="8.7735068"><ele>49.0</ele><time>2026-05-01T12:17:49.222Z</time></trkpt><trkpt lat="38.9676627" lon="8.7735964"><ele>48.800000000000004</ele><time>2026-05-01T12:17:50.222Z</time></trkpt><trkpt lat="38.9676063" lon="8.7736888"><ele>48.6</ele><time>2026-05-01T12:17:51.222Z</time></trkpt><trkpt lat="38.9675453" lon="8.7737848"><ele>48.4</ele><time>2026-05-01T12:17:52.222Z</time></trkpt><trkpt lat="38.9674775" lon="8.7738779"><ele>48.2</ele><time>2026-05-01T12:17:53.222Z</time></trkpt><trkpt lat="38.9674021" lon="8.7739649"><ele>48.0</ele><time>2026-05-01T12:17:54.222Z</time></trkpt><trkpt lat="38.9673208" lon="8.7740478"><ele>48.0</ele><time>2026-05-01T12:17:55.221Z</time></trkpt><trkpt lat="38.9672308" lon="8.7741196"><ele>48.0</ele><time>2026-05-01T12:17:56.222Z</time></trkpt><trkpt lat="38.967138" lon="8.7741859"><ele>48.0</ele><time>2026-05-01T12:17:57.222Z</time></trkpt><trkpt lat="38.9670395" lon="8.774249"><ele>48.0</ele><time>2026-05-01T12:17:58.221Z</time></trkpt><trkpt lat="38.9669404" lon="8.7743168"><ele>48.0</ele><time>2026-05-01T12:17:59.222Z</time></trkpt><trkpt lat="38.9668364" lon="8.7743848"><ele>49.5</ele><time>2026-05-01T12:18:00.222Z</time></trkpt><trkpt lat="38.9667319" lon="8.7744517"><ele>51.0</ele><time>2026-05-01T12:18:01.221Z</time></trkpt><trkpt lat="38.9666266" lon="8.7745165"><ele>52.5</ele><time>2026-05-01T12:18:02.221Z</time></trkpt><trkpt lat="38.9665205" lon="8.774585"><ele>54.0</ele><time>2026-05-01T12:18:03.221Z</time></trkpt><trkpt lat="38.9664135" lon="8.7746539"><ele>54.0</ele><time>2026-05-01T12:18:04.222Z</time></trkpt><trkpt lat="38.9663049" lon="8.7747228"><ele>54.0</ele><time>2026-05-01T12:18:05.221Z</time></trkpt><trkpt lat="38.9661936" lon="8.7747916"><ele>54.0</ele><time>2026-05-01T12:18:06.222Z</time></trkpt><trkpt lat="38.9660825" lon="8.7748659"><ele>54.0</ele><time>2026-05-01T12:18:07.222Z</time></trkpt><trkpt lat="38.9659682" lon="8.7749437"><ele>54.75</ele><time>2026-05-01T12:18:08.221Z</time></trkpt><trkpt lat="38.9658486" lon="8.7750215"><ele>55.5</ele><time>2026-05-01T12:18:09.222Z</time></trkpt><trkpt lat="38.9657245" lon="8.7751038"><ele>56.25</ele><time>2026-05-01T12:18:10.222Z</time></trkpt><trkpt lat="38.9655971" lon="8.7751866"><ele>57.0</ele><time>2026-05-01T12:18:11.221Z</time></trkpt><trkpt lat="38.9654677" lon="8.7752687"><ele>57.0</ele><time>2026-05-01T12:18:12.221Z</time></trkpt><trkpt lat="38.9653369" lon="8.7753518"><ele>57.0</ele><time>2026-05-01T12:18:13.222Z</time></trkpt><trkpt lat="38.9652035" lon="8.7754344"><ele>57.0</ele><time>2026-05-01T12:18:14.221Z</time></trkpt><trkpt lat="38.9650725" lon="8.7755242"><ele>57.0</ele><time>2026-05-01T12:18:15.221Z</time></trkpt><trkpt lat="38.9649413" lon="8.775615"><ele>56.0</ele><time>2026-05-01T12:18:16.221Z</time></trkpt><trkpt lat="38.9648092" lon="8.7757054"><ele>55.0</ele><time>2026-05-01T12:18:17.221Z</time></trkpt><trkpt lat="38.9646771" lon="8.7757945"><ele>54.0</ele><time>2026-05-01T12:18:18.222Z</time></trkpt><trkpt lat="38.9645442" lon="8.7758849"><ele>53.0</ele><time>2026-05-01T12:18:19.222Z</time></trkpt><trkpt lat="38.9644114" lon="8.7759731"><ele>54.75</ele><time>2026-05-01T12:18:20.221Z</time></trkpt><trkpt lat="38.9642786" lon="8.7760601"><ele>56.5</ele><time>2026-05-01T12:18:21.221Z</time></trkpt><trkpt lat="38.9641479" lon="8.7761451"><ele>58.25</ele><time>2026-05-01T12:18:22.221Z</time></trkpt><trkpt lat="38.9640287" lon="8.776223"><ele>60.0</ele><time>2026-05-01T12:18:23.222Z</time></trkpt><trkpt lat="38.9639185" lon="8.7762975"><ele>60.5</ele><time>2026-05-01T12:18:24.221Z</time></trkpt><trkpt lat="38.9638085" lon="8.7763787"><ele>61.0</ele><time>2026-05-01T12:18:25.221Z</time></trkpt><trkpt lat="38.9636972" lon="8.7764593"><ele>61.5</ele><time>2026-05-01T12:18:26.221Z</time></trkpt><trkpt lat="38.9635946" lon="8.7765314"><ele>62.0</ele><time>2026-05-01T12:18:27.221Z</time></trkpt><trkpt lat="38.9634939" lon="8.7766"><ele>62.0</ele><time>2026-05-01T12:18:28.222Z</time></trkpt><trkpt lat="38.9633904" lon="8.7766736"><ele>62.0</ele><time>2026-05-01T12:18:29.222Z</time></trkpt><trkpt lat="38.9632965" lon="8.7767496"><ele>62.0</ele><time>2026-05-01T12:18:30.222Z</time></trkpt><trkpt lat="38.9632264" lon="8.7768394"><ele>62.0</ele><time>2026-05-01T12:18:31.222Z</time></trkpt><trkpt lat="38.9631891" lon="8.776945"><ele>62.0</ele><time>2026-05-01T12:18:32.221Z</time></trkpt><trkpt lat="38.9631865" lon="8.7770505"><ele>61.400000000000006</ele><time>2026-05-01T12:18:33.222Z</time></trkpt><trkpt lat="38.9632114" lon="8.7771598"><ele>60.800000000000004</ele><time>2026-05-01T12:18:34.221Z</time></trkpt><trkpt lat="38.9632499" lon="8.7772709"><ele>60.2</ele><time>2026-05-01T12:18:35.221Z</time></trkpt><trkpt lat="38.9632929" lon="8.7773934"><ele>59.6</ele><time>2026-05-01T12:18:36.222Z</time></trkpt><trkpt lat="38.9633337" lon="8.7775381"><ele>59.0</ele><time>2026-05-01T12:18:37.222Z</time></trkpt><trkpt lat="38.963365" lon="8.7776933"><ele>58.5</ele><time>2026-05-01T12:18:38.222Z</time></trkpt><trkpt lat="38.9633828" lon="8.7778514"><ele>58.0</ele><time>2026-05-01T12:18:39.222Z</time></trkpt><trkpt lat="38.963382" lon="8.7780151"><ele>57.5</ele><time>2026-05-01T12:18:40.221Z</time></trkpt><trkpt lat="38.9633629" lon="8.7781778"><ele>57.0</ele><time>2026-05-01T12:18:41.222Z</time></trkpt><trkpt lat="38.9633302" lon="8.7783291"><ele>57.0</ele><time>2026-05-01T12:18:42.221Z</time></trkpt><trkpt lat="38.9632934" lon="8.7784724"><ele>57.0</ele><time>2026-05-01T12:18:43.222Z</time></trkpt><trkpt lat="38.9632406" lon="8.7785985"><ele>57.0</ele><time>2026-05-01T12:18:44.222Z</time></trkpt><trkpt lat="38.9631714" lon="8.7786969"><ele>57.0</ele><time>2026-05-01T12:18:45.222Z</time></trkpt><trkpt lat="38.9630876" lon="8.7787732"><ele>57.0</ele><time>2026-05-01T12:18:46.221Z</time></trkpt><trkpt lat="38.9629925" lon="8.7788442"><ele>57.5</ele><time>2026-05-01T12:18:47.222Z</time></trkpt><trkpt lat="38.9628951" lon="8.7789256"><ele>58.0</ele><time>2026-05-01T12:18:48.222Z</time></trkpt><trkpt lat="38.9628083" lon="8.779028"><ele>58.5</ele><time>2026-05-01T12:18:49.222Z</time></trkpt><trkpt lat="38.9627432" lon="8.7791562"><ele>59.0</ele><time>2026-05-01T12:18:50.221Z</time></trkpt><trkpt lat="38.9627083" lon="8.7793046"><ele>58.75</ele><time>2026-05-01T12:18:51.222Z</time></trkpt><trkpt lat="38.9626975" lon="8.7794647"><ele>58.5</ele><time>2026-05-01T12:18:52.221Z</time></trkpt><trkpt lat="38.9627065" lon="8.7796435"><ele>58.25</ele><time>2026-05-01T12:18:53.222Z</time></trkpt><trkpt lat="38.9627252" lon="8.77984"><ele>58.0</ele><time>2026-05-01T12:18:54.221Z</time></trkpt><trkpt lat="38.9627457" lon="8.7800515"><ele>57.33333333333333</ele><time>2026-05-01T12:18:55.222Z</time></trkpt><trkpt lat="38.9627606" lon="8.7802657"><ele>56.66666666666667</ele><time>2026-05-01T12:18:56.221Z</time></trkpt><trkpt lat="38.9627678" lon="8.7804665"><ele>56.0</ele><time>2026-05-01T12:18:57.221Z</time></trkpt><trkpt lat="38.9627607" lon="8.7806678"><ele>56.0</ele><time>2026-05-01T12:18:58.222Z</time></trkpt><trkpt lat="38.9627335" lon="8.7808627"><ele>56.0</ele><time>2026-05-01T12:18:59.222Z</time></trkpt><trkpt lat="38.9626824" lon="8.7810494"><ele>56.0</ele><time>2026-05-01T12:19:00.221Z</time></trkpt><trkpt lat="38.9626132" lon="8.7812368"><ele>57.333333333333336</ele><time>2026-05-01T12:19:01.222Z</time></trkpt><trkpt lat="38.9625287" lon="8.7814318"><ele>58.66666666666667</ele><time>2026-05-01T12:19:02.222Z</time></trkpt><trkpt lat="38.9624377" lon="8.7816354"><ele>60.0</ele><time>2026-05-01T12:19:03.222Z</time></trkpt><trkpt lat="38.962344" lon="8.781842"><ele>59.0</ele><time>2026-05-01T12:19:04.222Z</time></trkpt><trkpt lat="38.962252" lon="8.7820504"><ele>58.0</ele><time>2026-05-01T12:19:05.221Z</time></trkpt><trkpt lat="38.9621599" lon="8.7822626"><ele>57.0</ele><time>2026-05-01T12:19:06.222Z</time></trkpt><trkpt lat="38.9620663" lon="8.7824772"><ele>57.0</ele><time>2026-05-01T12:19:07.221Z</time></trkpt><trkpt lat="38.9619719" lon="8.7826882"><ele>57.0</ele><time>2026-05-01T12:19:08.221Z</time></trkpt><trkpt lat="38.9618849" lon="8.7828893"><ele>57.0</ele><time>2026-05-01T12:19:09.222Z</time></trkpt><trkpt lat="38.9617977" lon="8.7830927"><ele>57.0</ele><time>2026-05-01T12:19:10.221Z</time></trkpt><trkpt lat="38.961707" lon="8.7832922"><ele>57.0</ele><time>2026-05-01T12:19:11.222Z</time></trkpt><trkpt lat="38.9616112" lon="8.7834738"><ele>57.0</ele><time>2026-05-01T12:19:12.221Z</time></trkpt><trkpt lat="38.961512" lon="8.7836324"><ele>57.75</ele><time>2026-05-01T12:19:13.221Z</time></trkpt><trkpt lat="38.9614171" lon="8.7837847"><ele>58.5</ele><time>2026-05-01T12:19:14.222Z</time></trkpt><trkpt lat="38.9613347" lon="8.7839376"><ele>59.25</ele><time>2026-05-01T12:19:15.222Z</time></trkpt><trkpt lat="38.9612746" lon="8.7841062"><ele>60.0</ele><time>2026-05-01T12:19:16.221Z</time></trkpt><trkpt lat="38.9612307" lon="8.7842883"><ele>60.5</ele><time>2026-05-01T12:19:17.221Z</time></trkpt><trkpt lat="38.9611962" lon="8.7844805"><ele>61.0</ele><time>2026-05-01T12:19:18.221Z</time></trkpt><trkpt lat="38.9611682" lon="8.7846696"><ele>61.5</ele><time>2026-05-01T12:19:19.222Z</time></trkpt><trkpt lat="38.961125" lon="8.7848362"><ele>62.0</ele><time>2026-05-01T12:19:20.221Z</time></trkpt><trkpt lat="38.9610595" lon="8.7849903"><ele>62.0</ele><time>2026-05-01T12:19:21.222Z</time></trkpt><trkpt lat="38.9609737" lon="8.7851309"><ele>62.0</ele><time>2026-05-01T12:19:22.222Z</time></trkpt><trkpt lat="38.9608649" lon="8.7852647"><ele>62.0</ele><time>2026-05-01T12:19:23.222Z</time></trkpt><trkpt lat="38.9607412" lon="8.7854016"><ele>62.0</ele><time>2026-05-01T12:19:24.222Z</time></trkpt><trkpt lat="38.960603" lon="8.7855472"><ele>62.0</ele><time>2026-05-01T12:19:25.222Z</time></trkpt><trkpt lat="38.9604721" lon="8.7856739"><ele>62.0</ele><time>2026-05-01T12:19:26.222Z</time></trkpt><trkpt lat="38.960335" lon="8.7857926"><ele>62.0</ele><time>2026-05-01T12:19:27.221Z</time></trkpt><trkpt lat="38.9601982" lon="8.7859003"><ele>62.0</ele><time>2026-05-01T12:19:28.221Z</time></trkpt><trkpt lat="38.9600624" lon="8.7860061"><ele>62.0</ele><time>2026-05-01T12:19:29.222Z</time></trkpt><trkpt lat="38.9599315" lon="8.7861238"><ele>63.333333333333336</ele><time>2026-05-01T12:19:30.222Z</time></trkpt><trkpt lat="38.9598011" lon="8.7862778"><ele>64.66666666666667</ele><time>2026-05-01T12:19:31.222Z</time></trkpt><trkpt lat="38.9596701" lon="8.7864648"><ele>66.0</ele><time>2026-05-01T12:19:32.221Z</time></trkpt><trkpt lat="38.959522" lon="8.786681"><ele>66.66666666666667</ele><time>2026-05-01T12:19:33.22Z</time></trkpt><trkpt lat="38.9593756" lon="8.786875"><ele>67.33333333333334</ele><time>2026-05-01T12:19:34.222Z</time></trkpt><trkpt lat="38.9592464" lon="8.7870363"><ele>68.0</ele><time>2026-05-01T12:19:35.222Z</time></trkpt><trkpt lat="38.9591457" lon="8.7871957"><ele>69.0</ele><time>2026-05-01T12:19:36.222Z</time></trkpt><trkpt lat="38.9590801" lon="8.787373"><ele>70.0</ele><time>2026-05-01T12:19:37.222Z</time></trkpt><trkpt lat="38.9590196" lon="8.7875757"><ele>71.0</ele><time>2026-05-01T12:19:38.222Z</time></trkpt><trkpt lat="38.95896" lon="8.7878009"><ele>71.33333333333334</ele><time>2026-05-01T12:19:39.221Z</time></trkpt><trkpt lat="38.9588973" lon="8.7879866"><ele>71.66666666666667</ele><time>2026-05-01T12:19:40.222Z</time></trkpt><trkpt lat="38.958818" lon="8.7881478"><ele>72.0</ele><time>2026-05-01T12:19:41.221Z</time></trkpt><trkpt lat="38.9587217" lon="8.7882905"><ele>72.0</ele><time>2026-05-01T12:19:42.221Z</time></trkpt><trkpt lat="38.9586138" lon="8.7884007"><ele>72.0</ele><time>2026-05-01T12:19:43.222Z</time></trkpt><trkpt lat="38.9584914" lon="8.7884755"><ele>72.0</ele><time>2026-05-01T12:19:44.221Z</time></trkpt><trkpt lat="38.9583644" lon="8.7885379"><ele>72.0</ele><time>2026-05-01T12:19:45.222Z</time></trkpt><trkpt lat="38.9582626" lon="8.7886365"><ele>73.75</ele><time>2026-05-01T12:19:46.222Z</time></trkpt><trkpt lat="38.9581752" lon="8.7887677"><ele>75.5</ele><time>2026-05-01T12:19:47.222Z</time></trkpt><trkpt lat="38.9581164" lon="8.7889222"><ele>77.25</ele><time>2026-05-01T12:19:48.222Z</time></trkpt><trkpt lat="38.9580789" lon="8.78909"><ele>79.0</ele><time>2026-05-01T12:19:49.222Z</time></trkpt><trkpt lat="38.9580348" lon="8.789257"><ele>77.25</ele><time>2026-05-01T12:19:50.222Z</time></trkpt><trkpt lat="38.9579592" lon="8.7893938"><ele>75.5</ele><time>2026-05-01T12:19:51.222Z</time></trkpt><trkpt lat="38.9578629" lon="8.7895058"><ele>73.75</ele><time>2026-05-01T12:19:52.221Z</time></trkpt><trkpt lat="38.9577464" lon="8.7896003"><ele>72.0</ele><time>2026-05-01T12:19:53.221Z</time></trkpt><trkpt lat="38.9576229" lon="8.7896935"><ele>72.75</ele><time>2026-05-01T12:19:54.221Z</time></trkpt><trkpt lat="38.9575116" lon="8.7897852"><ele>73.5</ele><time>2026-05-01T12:19:55.221Z</time></trkpt><trkpt lat="38.9574143" lon="8.789906"><ele>74.25</ele><time>2026-05-01T12:19:56.221Z</time></trkpt><trkpt lat="38.9573341" lon="8.7900477"><ele>75.0</ele><time>2026-05-01T12:19:57.221Z</time></trkpt><trkpt lat="38.9572531" lon="8.7902004"><ele>75.0</ele><time>2026-05-01T12:19:58.222Z</time></trkpt><trkpt lat="38.9571687" lon="8.790353"><ele>75.0</ele><time>2026-05-01T12:19:59.222Z</time></trkpt><trkpt lat="38.9570738" lon="8.7904928"><ele>75.0</ele><time>2026-05-01T12:20:00.221Z</time></trkpt><trkpt lat="38.9569625" lon="8.7906114"><ele>75.0</ele><time>2026-05-01T12:20:01.221Z</time></trkpt><trkpt lat="38.9568431" lon="8.7907236"><ele>75.0</ele><time>2026-05-01T12:20:02.222Z</time></trkpt><trkpt lat="38.9567239" lon="8.7908138"><ele>75.0</ele><time>2026-05-01T12:20:03.221Z</time></trkpt><trkpt lat="38.9565944" lon="8.7908809"><ele>75.0</ele><time>2026-05-01T12:20:04.222Z</time></trkpt><trkpt lat="38.9564476" lon="8.7909431"><ele>75.0</ele><time>2026-05-01T12:20:05.221Z</time></trkpt><trkpt lat="38.9562983" lon="8.7910022"><ele>77.0</ele><time>2026-05-01T12:20:06.222Z</time></trkpt><trkpt lat="38.9561689" lon="8.7910508"><ele>79.0</ele><time>2026-05-01T12:20:07.222Z</time></trkpt><trkpt lat="38.9560675" lon="8.7911044"><ele>81.0</ele><time>2026-05-01T12:20:08.221Z</time></trkpt><trkpt lat="38.9560008" lon="8.7911828"><ele>83.0</ele><time>2026-05-01T12:20:09.222Z</time></trkpt><trkpt lat="38.9559825" lon="8.7912944"><ele>85.0</ele><time>2026-05-01T12:20:10.222Z</time></trkpt><trkpt lat="38.9559995" lon="8.7914067"><ele>85.0</ele><time>2026-05-01T12:20:11.222Z</time></trkpt><trkpt lat="38.9560521" lon="8.7915085"><ele>85.0</ele><time>2026-05-01T12:20:12.222Z</time></trkpt><trkpt lat="38.9561087" lon="8.7916205"><ele>85.0</ele><time>2026-05-01T12:20:13.221Z</time></trkpt><trkpt lat="38.95613" lon="8.7917506"><ele>85.0</ele><time>2026-05-01T12:20:14.222Z</time></trkpt><trkpt lat="38.9561185" lon="8.7918709"><ele>85.0</ele><time>2026-05-01T12:20:15.222Z</time></trkpt><trkpt lat="38.9560692" lon="8.7919745"><ele>86.6</ele><time>2026-05-01T12:20:16.222Z</time></trkpt><trkpt lat="38.9560042" lon="8.7920627"><ele>88.2</ele><time>2026-05-01T12:20:17.221Z</time></trkpt><trkpt lat="38.9559705" lon="8.7921635"><ele>89.80000000000001</ele><time>2026-05-01T12:20:18.222Z</time></trkpt><trkpt lat="38.9559778" lon="8.7922801"><ele>91.4</ele><time>2026-05-01T12:20:19.222Z</time></trkpt><trkpt lat="38.9560339" lon="8.7923777"><ele>93.0</ele><time>2026-05-01T12:20:20.222Z</time></trkpt><trkpt lat="38.9561257" lon="8.7924412"><ele>93.0</ele><time>2026-05-01T12:20:21.222Z</time></trkpt><trkpt lat="38.9562436" lon="8.7924869"><ele>93.0</ele><time>2026-05-01T12:20:22.221Z</time></trkpt><trkpt lat="38.9563534" lon="8.7925429"><ele>93.0</ele><time>2026-05-01T12:20:23.221Z</time></trkpt><trkpt lat="38.9564466" lon="8.7926319"><ele>93.0</ele><time>2026-05-01T12:20:24.222Z</time></trkpt><trkpt lat="38.956522" lon="8.7927585"><ele>96.5</ele><time>2026-05-01T12:20:25.221Z</time></trkpt><trkpt lat="38.9565997" lon="8.7929123"><ele>100.0</ele><time>2026-05-01T12:20:26.221Z</time></trkpt><trkpt lat="38.9566557" lon="8.7930469"><ele>103.5</ele><time>2026-05-01T12:20:27.221Z</time></trkpt><trkpt lat="38.9566907" lon="8.7931823"><ele>107.0</ele><time>2026-05-01T12:20:28.221Z</time></trkpt><trkpt lat="38.9566861" lon="8.7933257"><ele>107.0</ele><time>2026-05-01T12:20:29.222Z</time></trkpt><trkpt lat="38.956664" lon="8.7934789"><ele>107.0</ele><time>2026-05-01T12:20:30.222Z</time></trkpt><trkpt lat="38.9566215" lon="8.7936348"><ele>107.0</ele><time>2026-05-01T12:20:31.221Z</time></trkpt><trkpt lat="38.9565635" lon="8.7937621"><ele>107.0</ele><time>2026-05-01T12:20:32.222Z</time></trkpt><trkpt lat="38.9564955" lon="8.7938779"><ele>106.75</ele><time>2026-05-01T12:20:33.221Z</time></trkpt><trkpt lat="38.9563857" lon="8.7939318"><ele>106.5</ele><time>2026-05-01T12:20:34.222Z</time></trkpt><trkpt lat="38.956267" lon="8.7939837"><ele>106.25</ele><time>2026-05-01T12:20:35.221Z</time></trkpt><trkpt lat="38.9561338" lon="8.7940277"><ele>106.0</ele><time>2026-05-01T12:20:36.221Z</time></trkpt><trkpt lat="38.9560223" lon="8.7940902"><ele>106.0</ele><time>2026-05-01T12:20:37.221Z</time></trkpt><trkpt lat="38.9559332" lon="8.7941631"><ele>106.0</ele><time>2026-05-01T12:20:38.222Z</time></trkpt><trkpt lat="38.9558838" lon="8.7942706"><ele>106.0</ele><time>2026-05-01T12:20:39.222Z</time></trkpt><trkpt lat="38.9558637" lon="8.7943932"><ele>106.0</ele><time>2026-05-01T12:20:40.221Z</time></trkpt><trkpt lat="38.955884" lon="8.794499"><ele>106.0</ele><time>2026-05-01T12:20:41.221Z</time></trkpt><trkpt lat="38.9559375" lon="8.7945644"><ele>108.0</ele><time>2026-05-01T12:20:42.221Z</time></trkpt><trkpt lat="38.9560181" lon="8.7945985"><ele>110.0</ele><time>2026-05-01T12:20:43.221Z</time></trkpt><trkpt lat="38.9561133" lon="8.7946192"><ele>112.0</ele><time>2026-05-01T12:20:44.222Z</time></trkpt><trkpt lat="38.9562192" lon="8.7946679"><ele>114.0</ele><time>2026-05-01T12:20:45.221Z</time></trkpt><trkpt lat="38.9563273" lon="8.7947421"><ele>116.0</ele><time>2026-05-01T12:20:46.222Z</time></trkpt><trkpt lat="38.9564372" lon="8.7948492"><ele>116.0</ele><time>2026-05-01T12:20:47.222Z</time></trkpt><trkpt lat="38.9565308" lon="8.7949424"><ele>116.0</ele><time>2026-05-01T12:20:48.222Z</time></trkpt><trkpt lat="38.9565805" lon="8.7950462"><ele>116.0</ele><time>2026-05-01T12:20:49.222Z</time></trkpt><trkpt lat="38.9565949" lon="8.7951588"><ele>116.0</ele><time>2026-05-01T12:20:50.222Z</time></trkpt><trkpt lat="38.9565609" lon="8.795268"><ele>116.0</ele><time>2026-05-01T12:20:51.221Z</time></trkpt><trkpt lat="38.9564982" lon="8.7953583"><ele>114.8</ele><time>2026-05-01T12:20:52.221Z</time></trkpt><trkpt lat="38.9564098" lon="8.7954141"><ele>113.6</ele><time>2026-05-01T12:20:53.221Z</time></trkpt><trkpt lat="38.9562998" lon="8.7954336"><ele>112.4</ele><time>2026-05-01T12:20:54.222Z</time></trkpt><trkpt lat="38.9561892" lon="8.7954577"><ele>111.2</ele><time>2026-05-01T12:20:55.221Z</time></trkpt><trkpt lat="38.9560825" lon="8.7955339"><ele>110.0</ele><time>2026-05-01T12:20:56.221Z</time></trkpt><trkpt lat="38.9559839" lon="8.7956478"><ele>110.0</ele><time>2026-05-01T12:20:57.222Z</time></trkpt><trkpt lat="38.9558832" lon="8.79576"><ele>110.0</ele><time>2026-05-01T12:20:58.222Z</time></trkpt><trkpt lat="38.9557742" lon="8.795845"><ele>110.0</ele><time>2026-05-01T12:20:59.221Z</time></trkpt><trkpt lat="38.9556459" lon="8.7958958"><ele>110.0</ele><time>2026-05-01T12:21:00.221Z</time></trkpt><trkpt lat="38.9555205" lon="8.7959462"><ele>110.6</ele><time>2026-05-01T12:21:01.222Z</time></trkpt><trkpt lat="38.9554188" lon="8.7960039"><ele>111.2</ele><time>2026-05-01T12:21:02.22Z</time></trkpt><trkpt lat="38.9553537" lon="8.7961064"><ele>111.80000000000001</ele><time>2026-05-01T12:21:03.222Z</time></trkpt><trkpt lat="38.9553331" lon="8.7962299"><ele>112.4</ele><time>2026-05-01T12:21:04.222Z</time></trkpt><trkpt lat="38.9553455" lon="8.7963678"><ele>113.0</ele><time>2026-05-01T12:21:05.222Z</time></trkpt><trkpt lat="38.955412" lon="8.7965206"><ele>113.0</ele><time>2026-05-01T12:21:06.222Z</time></trkpt><trkpt lat="38.9554697" lon="8.7966688"><ele>113.00000000000001</ele><time>2026-05-01T12:21:07.222Z</time></trkpt><trkpt lat="38.9555149" lon="8.7968099"><ele>113.00000000000001</ele><time>2026-05-01T12:21:08.221Z</time></trkpt><trkpt lat="38.9555154" lon="8.7969379"><ele>113.0</ele><time>2026-05-01T12:21:09.222Z</time></trkpt><trkpt lat="38.9554788" lon="8.7970321"><ele>113.0</ele><time>2026-05-01T12:21:10.221Z</time></trkpt><trkpt lat="38.95541" lon="8.7970924"><ele>112.0</ele><time>2026-05-01T12:21:11.222Z</time></trkpt><trkpt lat="38.9553042" lon="8.7971363"><ele>111.0</ele><time>2026-05-01T12:21:12.222Z</time></trkpt><trkpt lat="38.9551607" lon="8.7971716"><ele>110.0</ele><time>2026-05-01T12:21:13.221Z</time></trkpt><trkpt lat="38.9550003" lon="8.7972109"><ele>109.0</ele><time>2026-05-01T12:21:14.221Z</time></trkpt><trkpt lat="38.9548769" lon="8.7972502"><ele>109.25</ele><time>2026-05-01T12:21:15.222Z</time></trkpt><trkpt lat="38.9547939" lon="8.7973399"><ele>109.5</ele><time>2026-05-01T12:21:16.222Z</time></trkpt><trkpt lat="38.9547417" lon="8.7974668"><ele>109.75</ele><time>2026-05-01T12:21:17.222Z</time></trkpt><trkpt lat="38.9547042" lon="8.7976306"><ele>110.0</ele><time>2026-05-01T12:21:18.221Z</time></trkpt><trkpt lat="38.9546628" lon="8.7977775"><ele>110.0</ele><time>2026-05-01T12:21:19.221Z</time></trkpt><trkpt lat="38.9545988" lon="8.7978952"><ele>110.0</ele><time>2026-05-01T12:21:20.222Z</time></trkpt><trkpt lat="38.9545044" lon="8.7979806"><ele>110.0</ele><time>2026-05-01T12:21:21.221Z</time></trkpt><trkpt lat="38.9543777" lon="8.7980311"><ele>110.0</ele><time>2026-05-01T12:21:22.221Z</time></trkpt><trkpt lat="38.9542173" lon="8.7980593"><ele>114.33333333333333</ele><time>2026-05-01T12:21:23.222Z</time></trkpt><trkpt lat="38.9540447" lon="8.7980821"><ele>118.66666666666666</ele><time>2026-05-01T12:21:24.222Z</time></trkpt><trkpt lat="38.9538891" lon="8.7980996"><ele>123.0</ele><time>2026-05-01T12:21:25.221Z</time></trkpt><trkpt lat="38.9537526" lon="8.7981375"><ele>123.0</ele><time>2026-05-01T12:21:26.222Z</time></trkpt><trkpt lat="38.9536205" lon="8.7981708"><ele>123.0</ele><time>2026-05-01T12:21:27.222Z</time></trkpt><trkpt lat="38.9535096" lon="8.798163"><ele>123.0</ele><time>2026-05-01T12:21:28.221Z</time></trkpt><trkpt lat="38.9533919" lon="8.7981322"><ele>123.0</ele><time>2026-05-01T12:21:29.221Z</time></trkpt><trkpt lat="38.953288" lon="8.7980369"><ele>124.60000000000001</ele><time>2026-05-01T12:21:30.222Z</time></trkpt><trkpt lat="38.9531844" lon="8.7979409"><ele>126.20000000000002</ele><time>2026-05-01T12:21:31.222Z</time></trkpt><trkpt lat="38.9530909" lon="8.7978807"><ele>127.8</ele><time>2026-05-01T12:21:32.221Z</time></trkpt><trkpt lat="38.9529981" lon="8.7978778"><ele>129.4</ele><time>2026-05-01T12:21:33.222Z</time></trkpt><trkpt lat="38.9529161" lon="8.7979099"><ele>131.0</ele><time>2026-05-01T12:21:34.222Z</time></trkpt><trkpt lat="38.9528939" lon="8.7980469"><ele>131.0</ele><time>2026-05-01T12:21:35.222Z</time></trkpt><trkpt lat="38.9528785" lon="8.7981838"><ele>131.0</ele><time>2026-05-01T12:21:36.222Z</time></trkpt><trkpt lat="38.9529124" lon="8.7983812"><ele>131.0</ele><time>2026-05-01T12:21:37.222Z</time></trkpt><trkpt lat="38.9529559" lon="8.7985912"><ele>131.0</ele><time>2026-05-01T12:21:38.221Z</time></trkpt><trkpt lat="38.9530147" lon="8.7987687"><ele>131.66666666666666</ele><time>2026-05-01T12:21:39.221Z</time></trkpt><trkpt lat="38.9531074" lon="8.7989232"><ele>132.33333333333334</ele><time>2026-05-01T12:21:40.222Z</time></trkpt><trkpt lat="38.9532182" lon="8.7990655"><ele>133.0</ele><time>2026-05-01T12:21:41.221Z</time></trkpt><trkpt lat="38.9533339" lon="8.7992035"><ele>134.0</ele><time>2026-05-01T12:21:42.221Z</time></trkpt><trkpt lat="38.9534246" lon="8.7993235"><ele>135.0</ele><time>2026-05-01T12:21:43.221Z</time></trkpt><trkpt lat="38.9534675" lon="8.7994348"><ele>136.0</ele><time>2026-05-01T12:21:44.222Z</time></trkpt><trkpt lat="38.9534662" lon="8.7995327"><ele>137.0</ele><time>2026-05-01T12:21:45.221Z</time></trkpt><trkpt lat="38.9534245" lon="8.7996189"><ele>138.0</ele><time>2026-05-01T12:21:46.222Z</time></trkpt><trkpt lat="38.9533493" lon="8.799682"><ele>138.0</ele><time>2026-05-01T12:21:47.221Z</time></trkpt><trkpt lat="38.9532551" lon="8.7997371"><ele>138.0</ele><time>2026-05-01T12:21:48.222Z</time></trkpt><trkpt lat="38.953183" lon="8.7998138"><ele>138.0</ele><time>2026-05-01T12:21:49.221Z</time></trkpt><trkpt lat="38.9531431" lon="8.7999172"><ele>138.0</ele><time>2026-05-01T12:21:50.222Z</time></trkpt><trkpt lat="38.953142" lon="8.8000459"><ele>138.0</ele><time>2026-05-01T12:21:51.222Z</time></trkpt><trkpt lat="38.9531665" lon="8.8001721"><ele>136.33333333333334</ele><time>2026-05-01T12:21:52.222Z</time></trkpt><trkpt lat="38.9531664" lon="8.8002884"><ele>134.66666666666666</ele><time>2026-05-01T12:21:53.222Z</time></trkpt><trkpt lat="38.9531312" lon="8.8003816"><ele>133.0</ele><time>2026-05-01T12:21:54.221Z</time></trkpt><trkpt lat="38.9530729" lon="8.8004283"><ele>131.33333333333331</ele><time>2026-05-01T12:21:55.221Z</time></trkpt><trkpt lat="38.9529868" lon="8.8004357"><ele>129.66666666666666</ele><time>2026-05-01T12:21:56.222Z</time></trkpt><trkpt lat="38.9528732" lon="8.8004038"><ele>128.0</ele><time>2026-05-01T12:21:57.221Z</time></trkpt><trkpt lat="38.9527575" lon="8.8003357"><ele>128.0</ele><time>2026-05-01T12:21:58.222Z</time></trkpt><trkpt lat="38.9526503" lon="8.8002272"><ele>128.0</ele><time>2026-05-01T12:21:59.222Z</time></trkpt><trkpt lat="38.9525499" lon="8.8001031"><ele>128.0</ele><time>2026-05-01T12:22:00.222Z</time></trkpt><trkpt lat="38.952433" lon="8.7999892"><ele>128.0</ele><time>2026-05-01T12:22:01.221Z</time></trkpt><trkpt lat="38.9522919" lon="8.7999035"><ele>136.33333333333331</ele><time>2026-05-01T12:22:02.221Z</time></trkpt><trkpt lat="38.9521219" lon="8.7998431"><ele>144.66666666666666</ele><time>2026-05-01T12:22:03.222Z</time></trkpt><trkpt lat="38.9519576" lon="8.7998104"><ele>153.0</ele><time>2026-05-01T12:22:04.222Z</time></trkpt><trkpt lat="38.9518002" lon="8.7998192"><ele>152.0</ele><time>2026-05-01T12:22:05.221Z</time></trkpt><trkpt lat="38.9516459" lon="8.7998555"><ele>151.0</ele><time>2026-05-01T12:22:06.222Z</time></trkpt><trkpt lat="38.9514985" lon="8.7998588"><ele>150.0</ele><time>2026-05-01T12:22:07.222Z</time></trkpt><trkpt lat="38.9513511" lon="8.799827"><ele>150.0</ele><time>2026-05-01T12:22:08.221Z</time></trkpt><trkpt lat="38.9511924" lon="8.7997382"><ele>150.0</ele><time>2026-05-01T12:22:09.222Z</time></trkpt><trkpt lat="38.95104" lon="8.7996776"><ele>150.0</ele><time>2026-05-01T12:22:10.222Z</time></trkpt><trkpt lat="38.9508963" lon="8.7996479"><ele>150.75</ele><time>2026-05-01T12:22:11.222Z</time></trkpt><trkpt lat="38.9507554" lon="8.7996496"><ele>151.5</ele><time>2026-05-01T12:22:12.222Z</time></trkpt><trkpt lat="38.9506272" lon="8.7997014"><ele>152.25</ele><time>2026-05-01T12:22:13.221Z</time></trkpt><trkpt lat="38.9504908" lon="8.7997854"><ele>153.0</ele><time>2026-05-01T12:22:14.222Z</time></trkpt><trkpt lat="38.950344" lon="8.799836"><ele>153.0</ele><time>2026-05-01T12:22:15.222Z</time></trkpt><trkpt lat="38.9502073" lon="8.7998855"><ele>153.0</ele><time>2026-05-01T12:22:16.221Z</time></trkpt><trkpt lat="38.9500951" lon="8.7999644"><ele>153.0</ele><time>2026-05-01T12:22:17.222Z</time></trkpt><trkpt lat="38.9500169" lon="8.8000778"><ele>153.0</ele><time>2026-05-01T12:22:18.221Z</time></trkpt><trkpt lat="38.9499705" lon="8.8001896"><ele>153.20000000000002</ele><time>2026-05-01T12:22:19.221Z</time></trkpt><trkpt lat="38.9499689" lon="8.8003163"><ele>153.4</ele><time>2026-05-01T12:22:20.221Z</time></trkpt><trkpt lat="38.9500279" lon="8.8003964"><ele>153.60000000000002</ele><time>2026-05-01T12:22:21.222Z</time></trkpt><trkpt lat="38.9501223" lon="8.8004559"><ele>153.8</ele><time>2026-05-01T12:22:22.221Z</time></trkpt><trkpt lat="38.9502526" lon="8.8004834"><ele>154.0</ele><time>2026-05-01T12:22:23.222Z</time></trkpt><trkpt lat="38.9503789" lon="8.8005041"><ele>154.0</ele><time>2026-05-01T12:22:24.221Z</time></trkpt><trkpt lat="38.9504862" lon="8.8005264"><ele>154.0</ele><time>2026-05-01T12:22:25.222Z</time></trkpt><trkpt lat="38.9505611" lon="8.8005878"><ele>154.0</ele><time>2026-05-01T12:22:26.222Z</time></trkpt><trkpt lat="38.9506067" lon="8.8006795"><ele>154.0</ele><time>2026-05-01T12:22:27.222Z</time></trkpt><trkpt lat="38.9506155" lon="8.8007962"><ele>154.0</ele><time>2026-05-01T12:22:28.222Z</time></trkpt><trkpt lat="38.950615" lon="8.8009317"><ele>156.25</ele><time>2026-05-01T12:22:29.221Z</time></trkpt><trkpt lat="38.9506477" lon="8.8010646"><ele>158.5</ele><time>2026-05-01T12:22:30.222Z</time></trkpt><trkpt lat="38.9507202" lon="8.8011817"><ele>160.75</ele><time>2026-05-01T12:22:31.222Z</time></trkpt><trkpt lat="38.9508359" lon="8.801285"><ele>163.0</ele><time>2026-05-01T12:22:32.221Z</time></trkpt><trkpt lat="38.9509861" lon="8.8013483"><ele>163.0</ele><time>2026-05-01T12:22:33.221Z</time></trkpt><trkpt lat="38.9511593" lon="8.8013936"><ele>163.0</ele><time>2026-05-01T12:22:34.221Z</time></trkpt><trkpt lat="38.9513396" lon="8.8014611"><ele>163.0</ele><time>2026-05-01T12:22:35.221Z</time></trkpt><trkpt lat="38.9514965" lon="8.8015204"><ele>163.0</ele><time>2026-05-01T12:22:36.221Z</time></trkpt><trkpt lat="38.9516244" lon="8.8015811"><ele>163.0</ele><time>2026-05-01T12:22:37.221Z</time></trkpt><trkpt lat="38.9517239" lon="8.801663"><ele>163.0</ele><time>2026-05-01T12:22:38.222Z</time></trkpt><trkpt lat="38.9518011" lon="8.8017613"><ele>163.0</ele><time>2026-05-01T12:22:39.221Z</time></trkpt><trkpt lat="38.9517855" lon="8.8018734"><ele>161.4</ele><time>2026-05-01T12:22:40.222Z</time></trkpt><trkpt lat="38.9517506" lon="8.8019884"><ele>159.8</ele><time>2026-05-01T12:22:41.222Z</time></trkpt><trkpt lat="38.9516965" lon="8.8021217"><ele>158.2</ele><time>2026-05-01T12:22:42.221Z</time></trkpt><trkpt lat="38.951658" lon="8.8022623"><ele>156.6</ele><time>2026-05-01T12:22:43.222Z</time></trkpt><trkpt lat="38.9516672" lon="8.8023978"><ele>155.0</ele><time>2026-05-01T12:22:44.221Z</time></trkpt><trkpt lat="38.9517243" lon="8.8025239"><ele>155.0</ele><time>2026-05-01T12:22:45.222Z</time></trkpt><trkpt lat="38.9518161" lon="8.802657"><ele>155.0</ele><time>2026-05-01T12:22:46.221Z</time></trkpt><trkpt lat="38.9519297" lon="8.8027799"><ele>155.0</ele><time>2026-05-01T12:22:47.222Z</time></trkpt><trkpt lat="38.9520691" lon="8.8028854"><ele>155.0</ele><time>2026-05-01T12:22:48.222Z</time></trkpt><trkpt lat="38.9522209" lon="8.8029623"><ele>159.0</ele><time>2026-05-01T12:22:49.221Z</time></trkpt><trkpt lat="38.9523559" lon="8.8030303"><ele>163.0</ele><time>2026-05-01T12:22:50.221Z</time></trkpt><trkpt lat="38.9524595" lon="8.8030937"><ele>167.0</ele><time>2026-05-01T12:22:51.221Z</time></trkpt><trkpt lat="38.9525448" lon="8.8031692"><ele>171.0</ele><time>2026-05-01T12:22:52.221Z</time></trkpt><trkpt lat="38.9525416" lon="8.8032862"><ele>172.4</ele><time>2026-05-01T12:22:53.221Z</time></trkpt><trkpt lat="38.9525224" lon="8.8033943"><ele>173.8</ele><time>2026-05-01T12:22:54.222Z</time></trkpt><trkpt lat="38.9524672" lon="8.8034862"><ele>175.20000000000002</ele><time>2026-05-01T12:22:55.222Z</time></trkpt><trkpt lat="38.9523789" lon="8.8035436"><ele>176.60000000000002</ele><time>2026-05-01T12:22:56.221Z</time></trkpt><trkpt lat="38.9522575" lon="8.8035967"><ele>178.0</ele><time>2026-05-01T12:22:57.221Z</time></trkpt><trkpt lat="38.9521049" lon="8.8036633"><ele>178.66666666666669</ele><time>2026-05-01T12:22:58.221Z</time></trkpt><trkpt lat="38.9519364" lon="8.8037481"><ele>179.33333333333334</ele><time>2026-05-01T12:22:59.222Z</time></trkpt><trkpt lat="38.9517464" lon="8.8038603"><ele>180.0</ele><time>2026-05-01T12:23:00.221Z</time></trkpt><trkpt lat="38.9515595" lon="8.8039695"><ele>180.0</ele><time>2026-05-01T12:23:01.222Z</time></trkpt><trkpt lat="38.9513852" lon="8.8040771"><ele>180.0</ele><time>2026-05-01T12:23:02.222Z</time></trkpt><trkpt lat="38.9512263" lon="8.8041979"><ele>180.0</ele><time>2026-05-01T12:23:03.222Z</time></trkpt><trkpt lat="38.9510924" lon="8.8043466"><ele>176.25</ele><time>2026-05-01T12:23:04.222Z</time></trkpt><trkpt lat="38.9509886" lon="8.8044886"><ele>172.5</ele><time>2026-05-01T12:23:05.22Z</time></trkpt><trkpt lat="38.9508961" lon="8.8046405"><ele>168.75</ele><time>2026-05-01T12:23:06.222Z</time></trkpt><trkpt lat="38.9508824" lon="8.8048104"><ele>165.0</ele><time>2026-05-01T12:23:07.222Z</time></trkpt><trkpt lat="38.9508839" lon="8.8049636"><ele>166.4</ele><time>2026-05-01T12:23:08.222Z</time></trkpt><trkpt lat="38.9508614" lon="8.8050919"><ele>167.8</ele><time>2026-05-01T12:23:09.221Z</time></trkpt><trkpt lat="38.9508149" lon="8.8051925"><ele>169.2</ele><time>2026-05-01T12:23:10.222Z</time></trkpt><trkpt lat="38.950723" lon="8.8052509"><ele>170.6</ele><time>2026-05-01T12:23:11.222Z</time></trkpt><trkpt lat="38.9506246" lon="8.8052658"><ele>172.0</ele><time>2026-05-01T12:23:12.221Z</time></trkpt><trkpt lat="38.9504939" lon="8.805263"><ele>172.0</ele><time>2026-05-01T12:23:13.222Z</time></trkpt><trkpt lat="38.9503892" lon="8.8053004"><ele>172.0</ele><time>2026-05-01T12:23:14.222Z</time></trkpt><trkpt lat="38.9503037" lon="8.8053859"><ele>172.0</ele><time>2026-05-01T12:23:15.222Z</time></trkpt><trkpt lat="38.9502345" lon="8.8054777"><ele>172.0</ele><time>2026-05-01T12:23:16.221Z</time></trkpt><trkpt lat="38.9501597" lon="8.8055718"><ele>172.0</ele><time>2026-05-01T12:23:17.222Z</time></trkpt><trkpt lat="38.9500664" lon="8.805627"><ele>176.25</ele><time>2026-05-01T12:23:18.221Z</time></trkpt><trkpt lat="38.9499582" lon="8.8056499"><ele>180.5</ele><time>2026-05-01T12:23:19.222Z</time></trkpt><trkpt lat="38.9498397" lon="8.8056728"><ele>184.75</ele><time>2026-05-01T12:23:20.221Z</time></trkpt><trkpt lat="38.9496809" lon="8.8057273"><ele>189.0</ele><time>2026-05-01T12:23:21.221Z</time></trkpt><trkpt lat="38.9495229" lon="8.8057733"><ele>189.0</ele><time>2026-05-01T12:23:22.222Z</time></trkpt><trkpt lat="38.9494075" lon="8.8058343"><ele>189.0</ele><time>2026-05-01T12:23:23.222Z</time></trkpt><trkpt lat="38.9493003" lon="8.8059219"><ele>189.0</ele><time>2026-05-01T12:23:24.221Z</time></trkpt><trkpt lat="38.949215" lon="8.8060599"><ele>189.0</ele><time>2026-05-01T12:23:25.222Z</time></trkpt><trkpt lat="38.9491447" lon="8.8062046"><ele>188.39999999999998</ele><time>2026-05-01T12:23:26.221Z</time></trkpt><trkpt lat="38.9490822" lon="8.8063441"><ele>187.8</ele><time>2026-05-01T12:23:27.221Z</time></trkpt><trkpt lat="38.9490568" lon="8.8064836"><ele>187.2</ele><time>2026-05-01T12:23:28.221Z</time></trkpt><trkpt lat="38.9490917" lon="8.8066076"><ele>186.60000000000002</ele><time>2026-05-01T12:23:29.221Z</time></trkpt><trkpt lat="38.9491705" lon="8.8067018"><ele>186.0</ele><time>2026-05-01T12:23:30.221Z</time></trkpt><trkpt lat="38.9492768" lon="8.8067813"><ele>195.33333333333331</ele><time>2026-05-01T12:23:31.222Z</time></trkpt><trkpt lat="38.9494424" lon="8.8068409"><ele>204.66666666666666</ele><time>2026-05-01T12:23:32.221Z</time></trkpt><trkpt lat="38.9496004" lon="8.806924"><ele>214.0</ele><time>2026-05-01T12:23:33.221Z</time></trkpt><trkpt lat="38.9497585" lon="8.8070324"><ele>214.0</ele><time>2026-05-01T12:23:34.221Z</time></trkpt><trkpt lat="38.9499167" lon="8.8071348"><ele>214.0</ele><time>2026-05-01T12:23:35.222Z</time></trkpt><trkpt lat="38.9500778" lon="8.8072228"><ele>214.0</ele><time>2026-05-01T12:23:36.221Z</time></trkpt><trkpt lat="38.9502338" lon="8.8072952"><ele>208.25</ele><time>2026-05-01T12:23:37.222Z</time></trkpt><trkpt lat="38.9503659" lon="8.8073646"><ele>202.5</ele><time>2026-05-01T12:23:38.222Z</time></trkpt><trkpt lat="38.9504779" lon="8.8074429"><ele>196.75</ele><time>2026-05-01T12:23:39.221Z</time></trkpt><trkpt lat="38.9505777" lon="8.8075271"><ele>191.0</ele><time>2026-05-01T12:23:40.222Z</time></trkpt><trkpt lat="38.9505789" lon="8.80763"><ele>194.20000000000002</ele><time>2026-05-01T12:23:41.221Z</time></trkpt><trkpt lat="38.9505761" lon="8.807734"><ele>197.4</ele><time>2026-05-01T12:23:42.221Z</time></trkpt><trkpt lat="38.9505482" lon="8.8078441"><ele>200.6</ele><time>2026-05-01T12:23:43.221Z</time></trkpt><trkpt lat="38.9504669" lon="8.8079643"><ele>203.8</ele><time>2026-05-01T12:23:44.222Z</time></trkpt><trkpt lat="38.9504006" lon="8.808102"><ele>207.0</ele><time>2026-05-01T12:23:45.222Z</time></trkpt><trkpt lat="38.9503237" lon="8.8082635"><ele>207.0</ele><time>2026-05-01T12:23:46.221Z</time></trkpt><trkpt lat="38.9502525" lon="8.8084598"><ele>207.0</ele><time>2026-05-01T12:23:47.222Z</time></trkpt><trkpt lat="38.9501877" lon="8.8086472"><ele>207.0</ele><time>2026-05-01T12:23:48.221Z</time></trkpt><trkpt lat="38.9501247" lon="8.8088006"><ele>211.8</ele><time>2026-05-01T12:23:49.221Z</time></trkpt><trkpt lat="38.95009" lon="8.8089393"><ele>216.6</ele><time>2026-05-01T12:23:50.222Z</time></trkpt><trkpt lat="38.9500702" lon="8.8090641"><ele>221.40000000000003</ele><time>2026-05-01T12:23:51.222Z</time></trkpt><trkpt lat="38.9501524" lon="8.8091531"><ele>226.20000000000002</ele><time>2026-05-01T12:23:52.221Z</time></trkpt><trkpt lat="38.9502391" lon="8.8092045"><ele>231.0</ele><time>2026-05-01T12:23:53.222Z</time></trkpt><trkpt lat="38.9503484" lon="8.8091915"><ele>231.0</ele><time>2026-05-01T12:23:54.222Z</time></trkpt><trkpt lat="38.9504676" lon="8.8091286"><ele>231.0</ele><time>2026-05-01T12:23:55.222Z</time></trkpt><trkpt lat="38.9506123" lon="8.8090174"><ele>231.0</ele><time>2026-05-01T12:23:56.222Z</time></trkpt><trkpt lat="38.9507448" lon="8.8089079"><ele>231.0</ele><time>2026-05-01T12:23:57.221Z</time></trkpt><trkpt lat="38.9508706" lon="8.8088296"><ele>231.0</ele><time>2026-05-01T12:23:58.221Z</time></trkpt><trkpt lat="38.9509862" lon="8.8088058"><ele>231.0</ele><time>2026-05-01T12:23:59.221Z</time></trkpt><trkpt lat="38.9510978" lon="8.8088429"><ele>231.0</ele><time>2026-05-01T12:24:00.221Z</time></trkpt><trkpt lat="38.9512145" lon="8.8089117"><ele>233.75</ele><time>2026-05-01T12:24:01.222Z</time></trkpt><trkpt lat="38.9513321" lon="8.808947"><ele>236.5</ele><time>2026-05-01T12:24:02.221Z</time></trkpt><trkpt lat="38.9514537" lon="8.8089176"><ele>239.25</ele><time>2026-05-01T12:24:03.221Z</time></trkpt><trkpt lat="38.9515555" lon="8.8088365"><ele>242.0</ele><time>2026-05-01T12:24:04.222Z</time></trkpt><trkpt lat="38.951644" lon="8.8086956"><ele>241.0</ele><time>2026-05-01T12:24:05.222Z</time></trkpt><trkpt lat="38.9517323" lon="8.8085175"><ele>240.0</ele><time>2026-05-01T12:24:06.222Z</time></trkpt><trkpt lat="38.9518333" lon="8.8083439"><ele>239.0</ele><time>2026-05-01T12:24:07.222Z</time></trkpt><trkpt lat="38.9519651" lon="8.8081712"><ele>239.0</ele><time>2026-05-01T12:24:08.221Z</time></trkpt><trkpt lat="38.9521085" lon="8.8080149"><ele>239.0</ele><time>2026-05-01T12:24:09.221Z</time></trkpt><trkpt lat="38.9522422" lon="8.8078927"><ele>239.0</ele><time>2026-05-01T12:24:10.222Z</time></trkpt><trkpt lat="38.95236" lon="8.8077984"><ele>239.0</ele><time>2026-05-01T12:24:11.222Z</time></trkpt><trkpt lat="38.9524737" lon="8.8077561"><ele>238.99999999999997</ele><time>2026-05-01T12:24:12.221Z</time></trkpt><trkpt lat="38.9525729" lon="8.8077737"><ele>238.99999999999997</ele><time>2026-05-01T12:24:13.222Z</time></trkpt><trkpt lat="38.9526522" lon="8.807842"><ele>239.0</ele><time>2026-05-01T12:24:14.222Z</time></trkpt><trkpt lat="38.9527022" lon="8.8079562"><ele>239.0</ele><time>2026-05-01T12:24:15.221Z</time></trkpt><trkpt lat="38.9527263" lon="8.8081107"><ele>238.66666666666669</ele><time>2026-05-01T12:24:16.222Z</time></trkpt><trkpt lat="38.9527423" lon="8.808298"><ele>238.33333333333331</ele><time>2026-05-01T12:24:17.221Z</time></trkpt><trkpt lat="38.9527831" lon="8.8085165"><ele>238.0</ele><time>2026-05-01T12:24:18.222Z</time></trkpt><trkpt lat="38.9528381" lon="8.8087399"><ele>238.0</ele><time>2026-05-01T12:24:19.222Z</time></trkpt><trkpt lat="38.9529144" lon="8.8089534"><ele>238.0</ele><time>2026-05-01T12:24:20.221Z</time></trkpt><trkpt lat="38.9530087" lon="8.8091362"><ele>238.0</ele><time>2026-05-01T12:24:21.222Z</time></trkpt><trkpt lat="38.9531149" lon="8.8093018"><ele>245.0</ele><time>2026-05-01T12:24:22.221Z</time></trkpt><trkpt lat="38.9532895" lon="8.8094296"><ele>252.0</ele><time>2026-05-01T12:24:23.221Z</time></trkpt><trkpt lat="38.9534485" lon="8.8095266"><ele>259.0</ele><time>2026-05-01T12:24:24.221Z</time></trkpt><trkpt lat="38.9536162" lon="8.8095791"><ele>259.0</ele><time>2026-05-01T12:24:25.221Z</time></trkpt><trkpt lat="38.9537862" lon="8.8095893"><ele>259.0</ele><time>2026-05-01T12:24:26.222Z</time></trkpt><trkpt lat="38.953939" lon="8.8095821"><ele>259.0</ele><time>2026-05-01T12:24:27.221Z</time></trkpt><trkpt lat="38.9540699" lon="8.8095162"><ele>259.0</ele><time>2026-05-01T12:24:28.221Z</time></trkpt><trkpt lat="38.9542062" lon="8.8094198"><ele>259.0</ele><time>2026-05-01T12:24:29.222Z</time></trkpt><trkpt lat="38.9543417" lon="8.8093346"><ele>259.0</ele><time>2026-05-01T12:24:30.221Z</time></trkpt><trkpt lat="38.954497" lon="8.8092811"><ele>259.0</ele><time>2026-05-01T12:24:31.221Z</time></trkpt><trkpt lat="38.9546384" lon="8.8092405"><ele>259.0</ele><time>2026-05-01T12:24:32.222Z</time></trkpt><trkpt lat="38.954763" lon="8.8092201"><ele>259.0</ele><time>2026-05-01T12:24:33.222Z</time></trkpt><trkpt lat="38.954861" lon="8.809222"><ele>259.0</ele><time>2026-05-01T12:24:34.222Z</time></trkpt><trkpt lat="38.9549244" lon="8.8092594"><ele>259.0</ele><time>2026-05-01T12:24:35.221Z</time></trkpt><trkpt lat="38.9549378" lon="8.8093991"><ele>259.0</ele><time>2026-05-01T12:24:37.222Z</time></trkpt><trkpt lat="38.9548866" lon="8.8094504"><ele>259.0</ele><time>2026-05-01T12:24:38.221Z</time></trkpt><trkpt lat="38.9548193" lon="8.8094645"><ele>259.0</ele><time>2026-05-01T12:24:39.222Z</time></trkpt><trkpt lat="38.954715" lon="8.8094666"><ele>259.0</ele><time>2026-05-01T12:24:40.222Z</time></trkpt><trkpt lat="38.9545942" lon="8.8094755"><ele>259.0</ele><time>2026-05-01T12:24:41.221Z</time></trkpt><trkpt lat="38.9544701" lon="8.8095234"><ele>259.0</ele><time>2026-05-01T12:24:42.222Z</time></trkpt><trkpt lat="38.9543648" lon="8.8096025"><ele>259.0</ele><time>2026-05-01T12:24:43.222Z</time></trkpt><trkpt lat="38.9542716" lon="8.8097231"><ele>259.0</ele><time>2026-05-01T12:24:44.221Z</time></trkpt><trkpt lat="38.9541718" lon="8.8098561"><ele>259.0</ele><time>2026-05-01T12:24:45.222Z</time></trkpt><trkpt lat="38.9540423" lon="8.8099619"><ele>259.0</ele><time>2026-05-01T12:24:46.222Z</time></trkpt><trkpt lat="38.9538855" lon="8.8100717"><ele>259.0</ele><time>2026-05-01T12:24:47.222Z</time></trkpt><trkpt lat="38.9537369" lon="8.8102067"><ele>259.0</ele><time>2026-05-01T12:24:48.222Z</time></trkpt><trkpt lat="38.9535673" lon="8.8103233"><ele>261.0</ele><time>2026-05-01T12:24:49.222Z</time></trkpt><trkpt lat="38.9533764" lon="8.8104269"><ele>263.0</ele><time>2026-05-01T12:24:50.222Z</time></trkpt><trkpt lat="38.9531796" lon="8.8105318"><ele>265.0</ele><time>2026-05-01T12:24:51.222Z</time></trkpt><trkpt lat="38.9530053" lon="8.8106266"><ele>266.0</ele><time>2026-05-01T12:24:52.222Z</time></trkpt><trkpt lat="38.9528412" lon="8.8107013"><ele>267.0</ele><time>2026-05-01T12:24:53.222Z</time></trkpt><trkpt lat="38.9526698" lon="8.8107341"><ele>268.0</ele><time>2026-05-01T12:24:54.221Z</time></trkpt><trkpt lat="38.9524848" lon="8.8107554"><ele>268.3333333333333</ele><time>2026-05-01T12:24:55.221Z</time></trkpt><trkpt lat="38.9522828" lon="8.8107777"><ele>268.6666666666667</ele><time>2026-05-01T12:24:56.221Z</time></trkpt><trkpt lat="38.9520906" lon="8.8108092"><ele>269.0</ele><time>2026-05-01T12:24:57.221Z</time></trkpt><trkpt lat="38.9519121" lon="8.8108513"><ele>269.0</ele><time>2026-05-01T12:24:58.221Z</time></trkpt><trkpt lat="38.9517444" lon="8.8108618"><ele>269.0</ele><time>2026-05-01T12:24:59.221Z</time></trkpt><trkpt lat="38.9515763" lon="8.8108394"><ele>269.0</ele><time>2026-05-01T12:25:00.222Z</time></trkpt><trkpt lat="38.951405" lon="8.8108027"><ele>271.33333333333337</ele><time>2026-05-01T12:25:01.221Z</time></trkpt><trkpt lat="38.9512084" lon="8.8107418"><ele>273.6666666666667</ele><time>2026-05-01T12:25:02.221Z</time></trkpt><trkpt lat="38.9510356" lon="8.8107056"><ele>276.0</ele><time>2026-05-01T12:25:03.222Z</time></trkpt><trkpt lat="38.9508771" lon="8.8106677"><ele>276.5</ele><time>2026-05-01T12:25:04.222Z</time></trkpt><trkpt lat="38.9507296" lon="8.8106565"><ele>277.0</ele><time>2026-05-01T12:25:05.222Z</time></trkpt><trkpt lat="38.950609" lon="8.8107289"><ele>277.5</ele><time>2026-05-01T12:25:06.222Z</time></trkpt><trkpt lat="38.9504918" lon="8.8108255"><ele>278.0</ele><time>2026-05-01T12:25:07.222Z</time></trkpt><trkpt lat="38.9503754" lon="8.8109477"><ele>278.5</ele><time>2026-05-01T12:25:08.222Z</time></trkpt><trkpt lat="38.9502655" lon="8.8110487"><ele>279.0</ele><time>2026-05-01T12:25:09.222Z</time></trkpt><trkpt lat="38.9501354" lon="8.8111143"><ele>279.5</ele><time>2026-05-01T12:25:10.222Z</time></trkpt><trkpt lat="38.9499793" lon="8.811149"><ele>280.0</ele><time>2026-05-01T12:25:11.221Z</time></trkpt><trkpt lat="38.9498031" lon="8.8111624"><ele>278.3333333333333</ele><time>2026-05-01T12:25:12.222Z</time></trkpt><trkpt lat="38.9496103" lon="8.811164"><ele>276.6666666666667</ele><time>2026-05-01T12:25:13.222Z</time></trkpt><trkpt lat="38.9494167" lon="8.8111659"><ele>275.0</ele><time>2026-05-01T12:25:14.222Z</time></trkpt><trkpt lat="38.9492261" lon="8.8111653"><ele>277.6666666666667</ele><time>2026-05-01T12:25:15.221Z</time></trkpt><trkpt lat="38.9490497" lon="8.8111483"><ele>280.3333333333333</ele><time>2026-05-01T12:25:16.221Z</time></trkpt><trkpt lat="38.9488794" lon="8.8111006"><ele>283.0</ele><time>2026-05-01T12:25:17.221Z</time></trkpt><trkpt lat="38.9487036" lon="8.8110253"><ele>282.0</ele><time>2026-05-01T12:25:18.221Z</time></trkpt><trkpt lat="38.9485144" lon="8.8109203"><ele>281.0</ele><time>2026-05-01T12:25:19.222Z</time></trkpt><trkpt lat="38.9483409" lon="8.8108269"><ele>280.0</ele><time>2026-05-01T12:25:20.222Z</time></trkpt><trkpt lat="38.9481953" lon="8.8107186"><ele>282.0</ele><time>2026-05-01T12:25:21.221Z</time></trkpt><trkpt lat="38.9480796" lon="8.8105782"><ele>284.0</ele><time>2026-05-01T12:25:22.222Z</time></trkpt><trkpt lat="38.9479924" lon="8.8104364"><ele>286.0</ele><time>2026-05-01T12:25:23.221Z</time></trkpt><trkpt lat="38.9478897" lon="8.8103105"><ele>288.0</ele><time>2026-05-01T12:25:24.221Z</time></trkpt><trkpt lat="38.9477671" lon="8.8102126"><ele>288.0</ele><time>2026-05-01T12:25:25.221Z</time></trkpt><trkpt lat="38.9476151" lon="8.8101768"><ele>288.0</ele><time>2026-05-01T12:25:26.221Z</time></trkpt><trkpt lat="38.9474324" lon="8.8101554"><ele>288.0</ele><time>2026-05-01T12:25:27.222Z</time></trkpt><trkpt lat="38.9472257" lon="8.8101362"><ele>287.6666666666667</ele><time>2026-05-01T12:25:28.221Z</time></trkpt><trkpt lat="38.947021" lon="8.8101098"><ele>287.33333333333337</ele><time>2026-05-01T12:25:29.222Z</time></trkpt><trkpt lat="38.9468292" lon="8.8100563"><ele>287.0</ele><time>2026-05-01T12:25:30.222Z</time></trkpt><trkpt lat="38.9466514" lon="8.809982"><ele>287.0</ele><time>2026-05-01T12:25:31.221Z</time></trkpt><trkpt lat="38.946472" lon="8.8099128"><ele>287.0</ele><time>2026-05-01T12:25:32.221Z</time></trkpt><trkpt lat="38.9462926" lon="8.8098658"><ele>287.0</ele><time>2026-05-01T12:25:33.222Z</time></trkpt><trkpt lat="38.9461131" lon="8.8098676"><ele>287.0</ele><time>2026-05-01T12:25:34.221Z</time></trkpt><trkpt lat="38.9459242" lon="8.809891"><ele>287.0</ele><time>2026-05-01T12:25:35.222Z</time></trkpt><trkpt lat="38.945752" lon="8.8099236"><ele>287.0</ele><time>2026-05-01T12:25:36.221Z</time></trkpt><trkpt lat="38.9455975" lon="8.8099508"><ele>289.5</ele><time>2026-05-01T12:25:37.221Z</time></trkpt><trkpt lat="38.9454604" lon="8.8099634"><ele>292.0</ele><time>2026-05-01T12:25:38.222Z</time></trkpt><trkpt lat="38.9453472" lon="8.8099668"><ele>294.5</ele><time>2026-05-01T12:25:39.222Z</time></trkpt><trkpt lat="38.9452409" lon="8.8099595"><ele>297.0</ele><time>2026-05-01T12:25:40.22Z</time></trkpt><trkpt lat="38.9451468" lon="8.8099198"><ele>297.0</ele><time>2026-05-01T12:25:41.221Z</time></trkpt><trkpt lat="38.9450491" lon="8.8098597"><ele>297.0</ele><time>2026-05-01T12:25:42.221Z</time></trkpt><trkpt lat="38.9449531" lon="8.8097713"><ele>297.0</ele><time>2026-05-01T12:25:43.222Z</time></trkpt><trkpt lat="38.9448687" lon="8.8096858"><ele>297.0</ele><time>2026-05-01T12:25:44.222Z</time></trkpt><trkpt lat="38.9447791" lon="8.8096154"><ele>297.0</ele><time>2026-05-01T12:25:45.222Z</time></trkpt><trkpt lat="38.9446815" lon="8.8095642"><ele>297.4</ele><time>2026-05-01T12:25:46.222Z</time></trkpt><trkpt lat="38.9445759" lon="8.8095921"><ele>297.79999999999995</ele><time>2026-05-01T12:25:47.221Z</time></trkpt><trkpt lat="38.9444781" lon="8.8096534"><ele>298.2</ele><time>2026-05-01T12:25:48.222Z</time></trkpt><trkpt lat="38.9443845" lon="8.8097254"><ele>298.59999999999997</ele><time>2026-05-01T12:25:49.222Z</time></trkpt><trkpt lat="38.9442812" lon="8.8097979"><ele>299.0</ele><time>2026-05-01T12:25:50.221Z</time></trkpt><trkpt lat="38.944168" lon="8.8098526"><ele>297.25</ele><time>2026-05-01T12:25:51.222Z</time></trkpt><trkpt lat="38.9440434" lon="8.8098773"><ele>295.5</ele><time>2026-05-01T12:25:52.221Z</time></trkpt><trkpt lat="38.9439326" lon="8.8098735"><ele>293.75</ele><time>2026-05-01T12:25:53.222Z</time></trkpt><trkpt lat="38.9438214" lon="8.8098633"><ele>292.0</ele><time>2026-05-01T12:25:54.221Z</time></trkpt><trkpt lat="38.9437073" lon="8.809882"><ele>292.0</ele><time>2026-05-01T12:25:55.221Z</time></trkpt><trkpt lat="38.9436012" lon="8.8099051"><ele>292.0</ele><time>2026-05-01T12:25:56.221Z</time></trkpt><trkpt lat="38.9434918" lon="8.8099104"><ele>292.0</ele><time>2026-05-01T12:25:57.221Z</time></trkpt><trkpt lat="38.9433833" lon="8.8098785"><ele>292.0</ele><time>2026-05-01T12:25:58.222Z</time></trkpt><trkpt lat="38.9432884" lon="8.8098323"><ele>292.0</ele><time>2026-05-01T12:25:59.221Z</time></trkpt><trkpt lat="38.9431927" lon="8.8097993"><ele>290.2</ele><time>2026-05-01T12:26:00.222Z</time></trkpt><trkpt lat="38.9430894" lon="8.8098007"><ele>288.4</ele><time>2026-05-01T12:26:01.221Z</time></trkpt><trkpt lat="38.9429919" lon="8.8098328"><ele>286.6</ele><time>2026-05-01T12:26:02.221Z</time></trkpt><trkpt lat="38.9429017" lon="8.8098709"><ele>284.8</ele><time>2026-05-01T12:26:03.222Z</time></trkpt><trkpt lat="38.9428138" lon="8.8098799"><ele>283.0</ele><time>2026-05-01T12:26:04.222Z</time></trkpt><trkpt lat="38.9427352" lon="8.80986"><ele>283.0</ele><time>2026-05-01T12:26:05.222Z</time></trkpt><trkpt lat="38.9426761" lon="8.8098129"><ele>283.0</ele><time>2026-05-01T12:26:06.221Z</time></trkpt><trkpt lat="38.9426363" lon="8.8097403"><ele>283.0</ele><time>2026-05-01T12:26:07.221Z</time></trkpt><trkpt lat="38.9426008" lon="8.8096547"><ele>283.0</ele><time>2026-05-01T12:26:08.222Z</time></trkpt><trkpt lat="38.942568" lon="8.8095609"><ele>283.0</ele><time>2026-05-01T12:26:09.221Z</time></trkpt><trkpt lat="38.9425223" lon="8.8094597"><ele>283.0</ele><time>2026-05-01T12:26:10.222Z</time></trkpt><trkpt lat="38.9424654" lon="8.809372"><ele>283.3333333333333</ele><time>2026-05-01T12:26:11.221Z</time></trkpt><trkpt lat="38.9423983" lon="8.8093027"><ele>283.66666666666663</ele><time>2026-05-01T12:26:12.221Z</time></trkpt><trkpt lat="38.9423197" lon="8.8092666"><ele>284.0</ele><time>2026-05-01T12:26:13.221Z</time></trkpt><trkpt lat="38.9422316" lon="8.809246"><ele>284.3333333333333</ele><time>2026-05-01T12:26:14.221Z</time></trkpt><trkpt lat="38.9421527" lon="8.8092504"><ele>284.6666666666667</ele><time>2026-05-01T12:26:15.222Z</time></trkpt><trkpt lat="38.942077" lon="8.8092521"><ele>285.0</ele><time>2026-05-01T12:26:16.222Z</time></trkpt><trkpt lat="38.9419956" lon="8.8092665"><ele>282.6</ele><time>2026-05-01T12:26:17.221Z</time></trkpt><trkpt lat="38.9419004" lon="8.8093467"><ele>280.2</ele><time>2026-05-01T12:26:19.222Z</time></trkpt><trkpt lat="38.9418613" lon="8.8094217"><ele>277.8</ele><time>2026-05-01T12:26:20.221Z</time></trkpt><trkpt lat="38.9418212" lon="8.809505"><ele>275.4</ele><time>2026-05-01T12:26:21.222Z</time></trkpt><trkpt lat="38.9417263" lon="8.8096288"><ele>273.0</ele><time>2026-05-01T12:26:22.222Z</time></trkpt><trkpt lat="38.9416468" lon="8.8097265"><ele>272.0</ele><time>2026-05-01T12:26:23.221Z</time></trkpt><trkpt lat="38.9415553" lon="8.8098172"><ele>271.0</ele><time>2026-05-01T12:26:24.222Z</time></trkpt><trkpt lat="38.941482" lon="8.8099114"><ele>270.0</ele><time>2026-05-01T12:26:25.221Z</time></trkpt><trkpt lat="38.9414386" lon="8.8100305"><ele>269.0</ele><time>2026-05-01T12:26:26.222Z</time></trkpt><trkpt lat="38.9414063" lon="8.8101567"><ele>268.0</ele><time>2026-05-01T12:26:27.222Z</time></trkpt><trkpt lat="38.9414053" lon="8.8102916"><ele>265.4</ele><time>2026-05-01T12:26:28.221Z</time></trkpt><trkpt lat="38.941389" lon="8.8104326"><ele>262.8</ele><time>2026-05-01T12:26:29.221Z</time></trkpt><trkpt lat="38.9413628" lon="8.8105586"><ele>260.2</ele><time>2026-05-01T12:26:30.221Z</time></trkpt><trkpt lat="38.9413252" lon="8.8106871"><ele>257.6</ele><time>2026-05-01T12:26:31.222Z</time></trkpt><trkpt lat="38.9412834" lon="8.8108114"><ele>255.0</ele><time>2026-05-01T12:26:32.221Z</time></trkpt><trkpt lat="38.9412314" lon="8.8109378"><ele>254.25</ele><time>2026-05-01T12:26:33.221Z</time></trkpt><trkpt lat="38.9411544" lon="8.8110597"><ele>253.5</ele><time>2026-05-01T12:26:34.222Z</time></trkpt><trkpt lat="38.9410658" lon="8.8111554"><ele>252.75</ele><time>2026-05-01T12:26:35.221Z</time></trkpt><trkpt lat="38.9409631" lon="8.8112326"><ele>252.0</ele><time>2026-05-01T12:26:36.221Z</time></trkpt><trkpt lat="38.9408469" lon="8.8112928"><ele>252.0</ele><time>2026-05-01T12:26:37.221Z</time></trkpt><trkpt lat="38.9407206" lon="8.8113183"><ele>252.0</ele><time>2026-05-01T12:26:38.221Z</time></trkpt><trkpt lat="38.9405975" lon="8.8113404"><ele>252.0</ele><time>2026-05-01T12:26:39.221Z</time></trkpt><trkpt lat="38.9404859" lon="8.8114137"><ele>252.0</ele><time>2026-05-01T12:26:40.222Z</time></trkpt><trkpt lat="38.9403882" lon="8.8115222"><ele>252.0</ele><time>2026-05-01T12:26:41.221Z</time></trkpt><trkpt lat="38.9402935" lon="8.8116553"><ele>252.0</ele><time>2026-05-01T12:26:42.221Z</time></trkpt><trkpt lat="38.9402007" lon="8.8117992"><ele>252.0</ele><time>2026-05-01T12:26:43.221Z</time></trkpt><trkpt lat="38.9401333" lon="8.8119507"><ele>252.0</ele><time>2026-05-01T12:26:44.222Z</time></trkpt><trkpt lat="38.9400745" lon="8.8121052"><ele>250.5</ele><time>2026-05-01T12:26:45.222Z</time></trkpt><trkpt lat="38.9400244" lon="8.812252"><ele>249.0</ele><time>2026-05-01T12:26:46.221Z</time></trkpt><trkpt lat="38.9399515" lon="8.8123843"><ele>247.5</ele><time>2026-05-01T12:26:47.221Z</time></trkpt><trkpt lat="38.9398698" lon="8.8125065"><ele>246.0</ele><time>2026-05-01T12:26:48.22Z</time></trkpt><trkpt lat="38.9397573" lon="8.8125699"><ele>246.0</ele><time>2026-05-01T12:26:49.221Z</time></trkpt><trkpt lat="38.939657" lon="8.8126044"><ele>246.00000000000003</ele><time>2026-05-01T12:26:50.221Z</time></trkpt><trkpt lat="38.9395485" lon="8.8126327"><ele>246.00000000000003</ele><time>2026-05-01T12:26:51.221Z</time></trkpt><trkpt lat="38.9394638" lon="8.812703"><ele>246.0</ele><time>2026-05-01T12:26:52.222Z</time></trkpt><trkpt lat="38.9394142" lon="8.8128081"><ele>246.0</ele><time>2026-05-01T12:26:53.221Z</time></trkpt><trkpt lat="38.9393937" lon="8.8129345"><ele>244.0</ele><time>2026-05-01T12:26:54.22Z</time></trkpt><trkpt lat="38.9393961" lon="8.813078"><ele>242.0</ele><time>2026-05-01T12:26:55.221Z</time></trkpt><trkpt lat="38.9393721" lon="8.8132168"><ele>240.0</ele><time>2026-05-01T12:26:56.222Z</time></trkpt><trkpt lat="38.9393251" lon="8.8133559"><ele>238.0</ele><time>2026-05-01T12:26:57.222Z</time></trkpt><trkpt lat="38.9392675" lon="8.8135053"><ele>237.0</ele><time>2026-05-01T12:26:58.222Z</time></trkpt><trkpt lat="38.9392038" lon="8.8136552"><ele>236.0</ele><time>2026-05-01T12:26:59.222Z</time></trkpt><trkpt lat="38.9391394" lon="8.8138022"><ele>235.0</ele><time>2026-05-01T12:27:00.222Z</time></trkpt><trkpt lat="38.9390717" lon="8.8139375"><ele>234.0</ele><time>2026-05-01T12:27:01.222Z</time></trkpt><trkpt lat="38.938982" lon="8.8140618"><ele>234.0</ele><time>2026-05-01T12:27:02.222Z</time></trkpt><trkpt lat="38.9388933" lon="8.814172"><ele>234.0</ele><time>2026-05-01T12:27:03.221Z</time></trkpt><trkpt lat="38.9388292" lon="8.8142994"><ele>234.0</ele><time>2026-05-01T12:27:04.221Z</time></trkpt><trkpt lat="38.9387804" lon="8.8144335"><ele>234.0</ele><time>2026-05-01T12:27:05.222Z</time></trkpt><trkpt lat="38.9387319" lon="8.814554"><ele>231.79999999999998</ele><time>2026-05-01T12:27:06.222Z</time></trkpt><trkpt lat="38.9386507" lon="8.8146273"><ele>229.59999999999997</ele><time>2026-05-01T12:27:07.221Z</time></trkpt><trkpt lat="38.938569" lon="8.8146396"><ele>227.4</ele><time>2026-05-01T12:27:08.221Z</time></trkpt><trkpt lat="38.9384895" lon="8.8146041"><ele>225.2</ele><time>2026-05-01T12:27:09.222Z</time></trkpt><trkpt lat="38.938408" lon="8.8145436"><ele>223.0</ele><time>2026-05-01T12:27:10.221Z</time></trkpt><trkpt lat="38.938328" lon="8.8144632"><ele>223.0</ele><time>2026-05-01T12:27:11.221Z</time></trkpt><trkpt lat="38.9382348" lon="8.8144562"><ele>223.0</ele><time>2026-05-01T12:27:12.222Z</time></trkpt><trkpt lat="38.9381418" lon="8.8144801"><ele>223.0</ele><time>2026-05-01T12:27:13.222Z</time></trkpt><trkpt lat="38.9380548" lon="8.8145389"><ele>223.0</ele><time>2026-05-01T12:27:14.221Z</time></trkpt><trkpt lat="38.9379564" lon="8.8145938"><ele>223.0</ele><time>2026-05-01T12:27:15.222Z</time></trkpt><trkpt lat="38.9378485" lon="8.8146255"><ele>223.0</ele><time>2026-05-01T12:27:16.222Z</time></trkpt><trkpt lat="38.9377452" lon="8.8146447"><ele>223.0</ele><time>2026-05-01T12:27:17.221Z</time></trkpt><trkpt lat="38.9376412" lon="8.8146864"><ele>223.0</ele><time>2026-05-01T12:27:18.222Z</time></trkpt><trkpt lat="38.9375455" lon="8.8147622"><ele>223.0</ele><time>2026-05-01T12:27:19.222Z</time></trkpt><trkpt lat="38.9374717" lon="8.8148662"><ele>223.0</ele><time>2026-05-01T12:27:20.222Z</time></trkpt><trkpt lat="38.9374316" lon="8.8149835"><ele>224.0</ele><time>2026-05-01T12:27:21.222Z</time></trkpt><trkpt lat="38.9374346" lon="8.8151004"><ele>225.0</ele><time>2026-05-01T12:27:22.221Z</time></trkpt><trkpt lat="38.9374728" lon="8.8152017"><ele>226.0</ele><time>2026-05-01T12:27:23.222Z</time></trkpt><trkpt lat="38.9375422" lon="8.8152691"><ele>227.0</ele><time>2026-05-01T12:27:24.221Z</time></trkpt><trkpt lat="38.937631" lon="8.8153183"><ele>228.0</ele><time>2026-05-01T12:27:25.221Z</time></trkpt><trkpt lat="38.9377331" lon="8.8153579"><ele>224.75</ele><time>2026-05-01T12:27:26.221Z</time></trkpt><trkpt lat="38.9378439" lon="8.815425"><ele>221.5</ele><time>2026-05-01T12:27:27.222Z</time></trkpt><trkpt lat="38.9379484" lon="8.8155176"><ele>218.25</ele><time>2026-05-01T12:27:28.221Z</time></trkpt><trkpt lat="38.9380429" lon="8.8156346"><ele>215.0</ele><time>2026-05-01T12:27:29.222Z</time></trkpt><trkpt lat="38.9381223" lon="8.8157749"><ele>215.0</ele><time>2026-05-01T12:27:30.222Z</time></trkpt><trkpt lat="38.9381803" lon="8.8159401"><ele>215.0</ele><time>2026-05-01T12:27:31.221Z</time></trkpt><trkpt lat="38.9382234" lon="8.8161173"><ele>215.0</ele><time>2026-05-01T12:27:32.222Z</time></trkpt><trkpt lat="38.9382482" lon="8.8163"><ele>215.0</ele><time>2026-05-01T12:27:33.222Z</time></trkpt><trkpt lat="38.9382547" lon="8.8164862"><ele>214.25</ele><time>2026-05-01T12:27:34.221Z</time></trkpt><trkpt lat="38.9382503" lon="8.8166636"><ele>213.5</ele><time>2026-05-01T12:27:35.222Z</time></trkpt><trkpt lat="38.9382383" lon="8.8168333"><ele>212.75</ele><time>2026-05-01T12:27:36.221Z</time></trkpt><trkpt lat="38.9382254" lon="8.8169968"><ele>212.0</ele><time>2026-05-01T12:27:37.221Z</time></trkpt><trkpt lat="38.9382061" lon="8.8171521"><ele>211.0</ele><time>2026-05-01T12:27:38.221Z</time></trkpt><trkpt lat="38.9381702" lon="8.8172971"><ele>210.0</ele><time>2026-05-01T12:27:39.222Z</time></trkpt><trkpt lat="38.9381221" lon="8.8174478"><ele>209.0</ele><time>2026-05-01T12:27:40.222Z</time></trkpt><trkpt lat="38.9380668" lon="8.8175813"><ele>208.0</ele><time>2026-05-01T12:27:41.222Z</time></trkpt><trkpt lat="38.9380149" lon="8.8177124"><ele>206.2</ele><time>2026-05-01T12:27:42.221Z</time></trkpt><trkpt lat="38.9379738" lon="8.817838"><ele>204.4</ele><time>2026-05-01T12:27:43.221Z</time></trkpt><trkpt lat="38.9379494" lon="8.8179618"><ele>202.6</ele><time>2026-05-01T12:27:44.222Z</time></trkpt><trkpt lat="38.9379328" lon="8.8180826"><ele>200.79999999999998</ele><time>2026-05-01T12:27:45.221Z</time></trkpt><trkpt lat="38.9379295" lon="8.8182017"><ele>199.0</ele><time>2026-05-01T12:27:46.222Z</time></trkpt><trkpt lat="38.9379544" lon="8.8183159"><ele>199.0</ele><time>2026-05-01T12:27:47.222Z</time></trkpt><trkpt lat="38.9379967" lon="8.8184159"><ele>199.0</ele><time>2026-05-01T12:27:48.222Z</time></trkpt><trkpt lat="38.9380442" lon="8.8185209"><ele>199.0</ele><time>2026-05-01T12:27:49.221Z</time></trkpt><trkpt lat="38.9380969" lon="8.8186336"><ele>199.0</ele><time>2026-05-01T12:27:50.221Z</time></trkpt><trkpt lat="38.9381499" lon="8.8187569"><ele>199.0</ele><time>2026-05-01T12:27:51.221Z</time></trkpt><trkpt lat="38.9381944" lon="8.8188871"><ele>199.0</ele><time>2026-05-01T12:27:52.222Z</time></trkpt><trkpt lat="38.9382286" lon="8.8190226"><ele>199.0</ele><time>2026-05-01T12:27:53.221Z</time></trkpt><trkpt lat="38.9382624" lon="8.819162"><ele>199.0</ele><time>2026-05-01T12:27:54.221Z</time></trkpt><trkpt lat="38.9382739" lon="8.8193152"><ele>199.0</ele><time>2026-05-01T12:27:55.221Z</time></trkpt><trkpt lat="38.9382681" lon="8.8195109"><ele>198.66666666666666</ele><time>2026-05-01T12:27:56.221Z</time></trkpt><trkpt lat="38.9382633" lon="8.8197278"><ele>198.33333333333331</ele><time>2026-05-01T12:27:57.221Z</time></trkpt><trkpt lat="38.9382348" lon="8.8199606"><ele>198.0</ele><time>2026-05-01T12:27:58.222Z</time></trkpt><trkpt lat="38.9382194" lon="8.8201712"><ele>198.75</ele><time>2026-05-01T12:27:59.222Z</time></trkpt><trkpt lat="38.9382166" lon="8.8203551"><ele>199.5</ele><time>2026-05-01T12:28:00.22Z</time></trkpt><trkpt lat="38.9382275" lon="8.8205258"><ele>200.25</ele><time>2026-05-01T12:28:01.222Z</time></trkpt><trkpt lat="38.9383397" lon="8.8206457"><ele>201.0</ele><time>2026-05-01T12:28:02.222Z</time></trkpt><trkpt lat="38.9384458" lon="8.8207423"><ele>197.33333333333334</ele><time>2026-05-01T12:28:03.221Z</time></trkpt><trkpt lat="38.9385953" lon="8.8208277"><ele>193.66666666666669</ele><time>2026-05-01T12:28:04.221Z</time></trkpt><trkpt lat="38.9387362" lon="8.8209046"><ele>190.0</ele><time>2026-05-01T12:28:05.221Z</time></trkpt><trkpt lat="38.9388706" lon="8.8209979"><ele>190.0</ele><time>2026-05-01T12:28:06.222Z</time></trkpt><trkpt lat="38.93897" lon="8.8211153"><ele>190.0</ele><time>2026-05-01T12:28:07.222Z</time></trkpt><trkpt lat="38.9390667" lon="8.8212372"><ele>190.0</ele><time>2026-05-01T12:28:08.221Z</time></trkpt><trkpt lat="38.9391539" lon="8.8213761"><ele>190.0</ele><time>2026-05-01T12:28:09.222Z</time></trkpt><trkpt lat="38.9392186" lon="8.8215267"><ele>191.5</ele><time>2026-05-01T12:28:10.22Z</time></trkpt><trkpt lat="38.9392838" lon="8.821691"><ele>193.0</ele><time>2026-05-01T12:28:11.221Z</time></trkpt><trkpt lat="38.9393411" lon="8.8218758"><ele>194.5</ele><time>2026-05-01T12:28:12.222Z</time></trkpt><trkpt lat="38.9393962" lon="8.8220467"><ele>196.0</ele><time>2026-05-01T12:28:13.222Z</time></trkpt><trkpt lat="38.9394654" lon="8.822216"><ele>191.66666666666666</ele><time>2026-05-01T12:28:14.222Z</time></trkpt><trkpt lat="38.9395423" lon="8.8223731"><ele>187.33333333333331</ele><time>2026-05-01T12:28:15.222Z</time></trkpt><trkpt lat="38.9396277" lon="8.822543"><ele>183.0</ele><time>2026-05-01T12:28:16.222Z</time></trkpt><trkpt lat="38.9397177" lon="8.8227155"><ele>181.33333333333334</ele><time>2026-05-01T12:28:17.222Z</time></trkpt><trkpt lat="38.9398009" lon="8.8228955"><ele>179.66666666666669</ele><time>2026-05-01T12:28:18.222Z</time></trkpt><trkpt lat="38.9398797" lon="8.8230863"><ele>178.0</ele><time>2026-05-01T12:28:19.221Z</time></trkpt><trkpt lat="38.939953" lon="8.8232801"><ele>178.0</ele><time>2026-05-01T12:28:20.222Z</time></trkpt><trkpt lat="38.9400213" lon="8.8234736"><ele>178.0</ele><time>2026-05-01T12:28:21.222Z</time></trkpt><trkpt lat="38.9400752" lon="8.8236693"><ele>178.0</ele><time>2026-05-01T12:28:22.22Z</time></trkpt><trkpt lat="38.94014" lon="8.823868"><ele>180.33333333333334</ele><time>2026-05-01T12:28:23.222Z</time></trkpt><trkpt lat="38.9401938" lon="8.8240786"><ele>182.66666666666666</ele><time>2026-05-01T12:28:24.221Z</time></trkpt><trkpt lat="38.9402472" lon="8.824289"><ele>185.0</ele><time>2026-05-01T12:28:25.221Z</time></trkpt><trkpt lat="38.940305" lon="8.8245067"><ele>185.0</ele><time>2026-05-01T12:28:26.221Z</time></trkpt><trkpt lat="38.9403542" lon="8.8247164"><ele>185.0</ele><time>2026-05-01T12:28:27.222Z</time></trkpt><trkpt lat="38.9404072" lon="8.824924"><ele>185.0</ele><time>2026-05-01T12:28:28.222Z</time></trkpt><trkpt lat="38.9404573" lon="8.8251285"><ele>185.0</ele><time>2026-05-01T12:28:29.221Z</time></trkpt><trkpt lat="38.9405119" lon="8.8253341"><ele>185.0</ele><time>2026-05-01T12:28:30.221Z</time></trkpt><trkpt lat="38.9405509" lon="8.8255271"><ele>185.0</ele><time>2026-05-01T12:28:31.222Z</time></trkpt><trkpt lat="38.9405684" lon="8.8257085"><ele>185.0</ele><time>2026-05-01T12:28:32.222Z</time></trkpt><trkpt lat="38.940547" lon="8.8258799"><ele>185.0</ele><time>2026-05-01T12:28:33.222Z</time></trkpt><trkpt lat="38.9405083" lon="8.826031"><ele>185.0</ele><time>2026-05-01T12:28:34.222Z</time></trkpt><trkpt lat="38.9404386" lon="8.8261576"><ele>185.0</ele><time>2026-05-01T12:28:35.222Z</time></trkpt><trkpt lat="38.9403378" lon="8.8262666"><ele>185.75</ele><time>2026-05-01T12:28:36.221Z</time></trkpt><trkpt lat="38.9402252" lon="8.8263759"><ele>186.5</ele><time>2026-05-01T12:28:37.221Z</time></trkpt><trkpt lat="38.9401174" lon="8.8264737"><ele>187.25</ele><time>2026-05-01T12:28:38.222Z</time></trkpt><trkpt lat="38.9400243" lon="8.8265739"><ele>188.0</ele><time>2026-05-01T12:28:39.222Z</time></trkpt><trkpt lat="38.9399431" lon="8.8266907"><ele>183.25</ele><time>2026-05-01T12:28:40.221Z</time></trkpt><trkpt lat="38.9398995" lon="8.8268495"><ele>178.5</ele><time>2026-05-01T12:28:41.221Z</time></trkpt><trkpt lat="38.9398563" lon="8.8270072"><ele>173.75</ele><time>2026-05-01T12:28:42.221Z</time></trkpt><trkpt lat="38.9398095" lon="8.8271771"><ele>169.0</ele><time>2026-05-01T12:28:43.221Z</time></trkpt><trkpt lat="38.9397895" lon="8.8273498"><ele>169.0</ele><time>2026-05-01T12:28:44.22Z</time></trkpt><trkpt lat="38.9397924" lon="8.8275071"><ele>169.0</ele><time>2026-05-01T12:28:45.222Z</time></trkpt><trkpt lat="38.9397664" lon="8.8276471"><ele>169.0</ele><time>2026-05-01T12:28:46.222Z</time></trkpt><trkpt lat="38.9397242" lon="8.8277603"><ele>169.0</ele><time>2026-05-01T12:28:47.222Z</time></trkpt><trkpt lat="38.9396068" lon="8.827826"><ele>168.0</ele><time>2026-05-01T12:28:48.221Z</time></trkpt><trkpt lat="38.9394982" lon="8.8278962"><ele>167.0</ele><time>2026-05-01T12:28:49.222Z</time></trkpt><trkpt lat="38.9393963" lon="8.8279686"><ele>166.0</ele><time>2026-05-01T12:28:50.221Z</time></trkpt><trkpt lat="38.9393222" lon="8.8280553"><ele>165.0</ele><time>2026-05-01T12:28:51.222Z</time></trkpt><trkpt lat="38.9392942" lon="8.8281678"><ele>164.0</ele><time>2026-05-01T12:28:52.221Z</time></trkpt><trkpt lat="38.939311" lon="8.8282964"><ele>164.0</ele><time>2026-05-01T12:28:53.222Z</time></trkpt><trkpt lat="38.9393629" lon="8.8284339"><ele>164.0</ele><time>2026-05-01T12:28:54.222Z</time></trkpt><trkpt lat="38.9394366" lon="8.8285571"><ele>164.0</ele><time>2026-05-01T12:28:55.221Z</time></trkpt><trkpt lat="38.9395222" lon="8.82867"><ele>164.0</ele><time>2026-05-01T12:28:56.221Z</time></trkpt><trkpt lat="38.9395913" lon="8.8287851"><ele>162.39999999999998</ele><time>2026-05-01T12:28:57.221Z</time></trkpt><trkpt lat="38.9396374" lon="8.8289211"><ele>160.79999999999998</ele><time>2026-05-01T12:28:58.221Z</time></trkpt><trkpt lat="38.9396665" lon="8.8290538"><ele>159.2</ele><time>2026-05-01T12:28:59.222Z</time></trkpt><trkpt lat="38.9396577" lon="8.8291995"><ele>157.6</ele><time>2026-05-01T12:29:00.222Z</time></trkpt><trkpt lat="38.939664" lon="8.8293406"><ele>156.0</ele><time>2026-05-01T12:29:01.222Z</time></trkpt><trkpt lat="38.9396812" lon="8.8294779"><ele>156.0</ele><time>2026-05-01T12:29:02.221Z</time></trkpt><trkpt lat="38.9397545" lon="8.8295701"><ele>156.0</ele><time>2026-05-01T12:29:03.221Z</time></trkpt><trkpt lat="38.9398529" lon="8.8296533"><ele>156.0</ele><time>2026-05-01T12:29:04.221Z</time></trkpt><trkpt lat="38.9399691" lon="8.8297368"><ele>156.0</ele><time>2026-05-01T12:29:05.221Z</time></trkpt><trkpt lat="38.9400793" lon="8.8298181"><ele>156.0</ele><time>2026-05-01T12:29:06.222Z</time></trkpt><trkpt lat="38.940174" lon="8.8299116"><ele>156.0</ele><time>2026-05-01T12:29:07.221Z</time></trkpt><trkpt lat="38.9402365" lon="8.8300154"><ele>156.0</ele><time>2026-05-01T12:29:08.221Z</time></trkpt><trkpt lat="38.9402449" lon="8.8301356"><ele>156.0</ele><time>2026-05-01T12:29:09.222Z</time></trkpt><trkpt lat="38.9402272" lon="8.8302535"><ele>156.0</ele><time>2026-05-01T12:29:10.222Z</time></trkpt><trkpt lat="38.9402009" lon="8.8303798"><ele>155.75</ele><time>2026-05-01T12:29:11.221Z</time></trkpt><trkpt lat="38.9401653" lon="8.8305171"><ele>155.5</ele><time>2026-05-01T12:29:12.221Z</time></trkpt><trkpt lat="38.9401243" lon="8.8306619"><ele>155.25</ele><time>2026-05-01T12:29:13.222Z</time></trkpt><trkpt lat="38.9400875" lon="8.8308141"><ele>155.0</ele><time>2026-05-01T12:29:14.222Z</time></trkpt><trkpt lat="38.9400541" lon="8.8309704"><ele>150.75</ele><time>2026-05-01T12:29:15.222Z</time></trkpt><trkpt lat="38.9400182" lon="8.8311266"><ele>146.5</ele><time>2026-05-01T12:29:16.222Z</time></trkpt><trkpt lat="38.9400064" lon="8.8312778"><ele>142.25</ele><time>2026-05-01T12:29:17.222Z</time></trkpt><trkpt lat="38.9400137" lon="8.8314357"><ele>138.0</ele><time>2026-05-01T12:29:18.221Z</time></trkpt><trkpt lat="38.9400317" lon="8.8315999"><ele>139.5</ele><time>2026-05-01T12:29:19.221Z</time></trkpt><trkpt lat="38.9400627" lon="8.8317716"><ele>141.0</ele><time>2026-05-01T12:29:20.222Z</time></trkpt><trkpt lat="38.9400841" lon="8.8319358"><ele>142.5</ele><time>2026-05-01T12:29:21.222Z</time></trkpt><trkpt lat="38.9400851" lon="8.8320926"><ele>144.0</ele><time>2026-05-01T12:29:22.221Z</time></trkpt><trkpt lat="38.9400617" lon="8.8322424"><ele>144.75</ele><time>2026-05-01T12:29:23.221Z</time></trkpt><trkpt lat="38.9400187" lon="8.8323878"><ele>145.5</ele><time>2026-05-01T12:29:24.221Z</time></trkpt><trkpt lat="38.9399514" lon="8.8325162"><ele>146.25</ele><time>2026-05-01T12:29:25.222Z</time></trkpt><trkpt lat="38.9398703" lon="8.832637"><ele>147.0</ele><time>2026-05-01T12:29:26.221Z</time></trkpt><trkpt lat="38.9397828" lon="8.8327418"><ele>147.0</ele><time>2026-05-01T12:29:27.221Z</time></trkpt><trkpt lat="38.9397005" lon="8.8328566"><ele>147.0</ele><time>2026-05-01T12:29:28.222Z</time></trkpt><trkpt lat="38.9395996" lon="8.8329635"><ele>147.0</ele><time>2026-05-01T12:29:29.221Z</time></trkpt><trkpt lat="38.9395093" lon="8.8330787"><ele>147.0</ele><time>2026-05-01T12:29:30.221Z</time></trkpt><trkpt lat="38.9394229" lon="8.8332118"><ele>147.0</ele><time>2026-05-01T12:29:31.221Z</time></trkpt><trkpt lat="38.9393545" lon="8.8333504"><ele>147.0</ele><time>2026-05-01T12:29:32.221Z</time></trkpt><trkpt lat="38.9392857" lon="8.8334926"><ele>147.0</ele><time>2026-05-01T12:29:33.222Z</time></trkpt><trkpt lat="38.9392168" lon="8.833635"><ele>147.0</ele><time>2026-05-01T12:29:34.221Z</time></trkpt><trkpt lat="38.9391349" lon="8.8337526"><ele>146.0</ele><time>2026-05-01T12:29:35.221Z</time></trkpt><trkpt lat="38.9390477" lon="8.8338542"><ele>145.0</ele><time>2026-05-01T12:29:36.221Z</time></trkpt><trkpt lat="38.9389462" lon="8.8339112"><ele>144.0</ele><time>2026-05-01T12:29:37.221Z</time></trkpt><trkpt lat="38.9388422" lon="8.8339461"><ele>143.0</ele><time>2026-05-01T12:29:38.221Z</time></trkpt><trkpt lat="38.9387358" lon="8.8339831"><ele>142.0</ele><time>2026-05-01T12:29:39.221Z</time></trkpt><trkpt lat="38.9386269" lon="8.834044"><ele>142.0</ele><time>2026-05-01T12:29:40.222Z</time></trkpt><trkpt lat="38.9385291" lon="8.8341261"><ele>142.0</ele><time>2026-05-01T12:29:41.221Z</time></trkpt><trkpt lat="38.9384339" lon="8.834225"><ele>142.0</ele><time>2026-05-01T12:29:42.222Z</time></trkpt><trkpt lat="38.9383462" lon="8.8343248"><ele>142.0</ele><time>2026-05-01T12:29:43.222Z</time></trkpt><trkpt lat="38.9382661" lon="8.834421"><ele>140.4</ele><time>2026-05-01T12:29:44.222Z</time></trkpt><trkpt lat="38.9382107" lon="8.8345285"><ele>138.79999999999998</ele><time>2026-05-01T12:29:45.221Z</time></trkpt><trkpt lat="38.9381903" lon="8.8346502"><ele>137.2</ele><time>2026-05-01T12:29:46.222Z</time></trkpt><trkpt lat="38.938203" lon="8.8347826"><ele>135.6</ele><time>2026-05-01T12:29:47.222Z</time></trkpt><trkpt lat="38.9382372" lon="8.8349294"><ele>134.0</ele><time>2026-05-01T12:29:48.222Z</time></trkpt><trkpt lat="38.938289" lon="8.8351005"><ele>132.66666666666666</ele><time>2026-05-01T12:29:49.221Z</time></trkpt><trkpt lat="38.9383338" lon="8.8352889"><ele>131.33333333333334</ele><time>2026-05-01T12:29:50.221Z</time></trkpt><trkpt lat="38.9383829" lon="8.8354804"><ele>130.0</ele><time>2026-05-01T12:29:51.222Z</time></trkpt><trkpt lat="38.9384402" lon="8.835692"><ele>130.0</ele><time>2026-05-01T12:29:52.221Z</time></trkpt><trkpt lat="38.9384968" lon="8.8359292"><ele>130.0</ele><time>2026-05-01T12:29:53.221Z</time></trkpt><trkpt lat="38.9385516" lon="8.836159"><ele>130.0</ele><time>2026-05-01T12:29:54.222Z</time></trkpt><trkpt lat="38.9386109" lon="8.8363693"><ele>130.0</ele><time>2026-05-01T12:29:55.221Z</time></trkpt><trkpt lat="38.9386904" lon="8.8365692"><ele>130.0</ele><time>2026-05-01T12:29:56.221Z</time></trkpt><trkpt lat="38.9388009" lon="8.8367402"><ele>130.0</ele><time>2026-05-01T12:29:57.222Z</time></trkpt><trkpt lat="38.9389373" lon="8.8369127"><ele>127.0</ele><time>2026-05-01T12:29:58.22Z</time></trkpt><trkpt lat="38.9390999" lon="8.8371095"><ele>124.0</ele><time>2026-05-01T12:29:59.221Z</time></trkpt><trkpt lat="38.9392562" lon="8.8373076"><ele>121.0</ele><time>2026-05-01T12:30:00.222Z</time></trkpt><trkpt lat="38.9394101" lon="8.8374913"><ele>118.66666666666667</ele><time>2026-05-01T12:30:01.221Z</time></trkpt><trkpt lat="38.9395692" lon="8.8376459"><ele>116.33333333333334</ele><time>2026-05-01T12:30:02.222Z</time></trkpt><trkpt lat="38.9397255" lon="8.8377623"><ele>114.0</ele><time>2026-05-01T12:30:03.222Z</time></trkpt><trkpt lat="38.9398879" lon="8.837873"><ele>114.0</ele><time>2026-05-01T12:30:04.222Z</time></trkpt><trkpt lat="38.9400215" lon="8.8380048"><ele>114.0</ele><time>2026-05-01T12:30:05.221Z</time></trkpt><trkpt lat="38.9401342" lon="8.8381668"><ele>114.0</ele><time>2026-05-01T12:30:06.22Z</time></trkpt><trkpt lat="38.9402441" lon="8.8383674"><ele>115.66666666666666</ele><time>2026-05-01T12:30:07.222Z</time></trkpt><trkpt lat="38.9403391" lon="8.838563"><ele>117.33333333333333</ele><time>2026-05-01T12:30:08.222Z</time></trkpt><trkpt lat="38.940428" lon="8.838747"><ele>119.0</ele><time>2026-05-01T12:30:09.221Z</time></trkpt><trkpt lat="38.9405056" lon="8.8389196"><ele>119.0</ele><time>2026-05-01T12:30:10.222Z</time></trkpt><trkpt lat="38.9405704" lon="8.8390942"><ele>119.0</ele><time>2026-05-01T12:30:11.219Z</time></trkpt><trkpt lat="38.9405929" lon="8.8392826"><ele>119.0</ele><time>2026-05-01T12:30:12.221Z</time></trkpt><trkpt lat="38.9406013" lon="8.8394888"><ele>117.33333333333333</ele><time>2026-05-01T12:30:13.221Z</time></trkpt><trkpt lat="38.9406097" lon="8.8397023"><ele>115.66666666666666</ele><time>2026-05-01T12:30:14.221Z</time></trkpt><trkpt lat="38.9406241" lon="8.839904"><ele>114.0</ele><time>2026-05-01T12:30:15.221Z</time></trkpt><trkpt lat="38.9406354" lon="8.8400849"><ele>112.75</ele><time>2026-05-01T12:30:16.221Z</time></trkpt><trkpt lat="38.9406624" lon="8.8402331"><ele>111.5</ele><time>2026-05-01T12:30:17.221Z</time></trkpt><trkpt lat="38.9407335" lon="8.8403572"><ele>110.25</ele><time>2026-05-01T12:30:18.222Z</time></trkpt><trkpt lat="38.9408289" lon="8.8404744"><ele>109.0</ele><time>2026-05-01T12:30:19.221Z</time></trkpt><trkpt lat="38.9409686" lon="8.8405691"><ele>109.0</ele><time>2026-05-01T12:30:20.221Z</time></trkpt><trkpt lat="38.9411099" lon="8.8406669"><ele>109.0</ele><time>2026-05-01T12:30:21.222Z</time></trkpt><trkpt lat="38.9412412" lon="8.8407675"><ele>109.0</ele><time>2026-05-01T12:30:22.222Z</time></trkpt><trkpt lat="38.9413564" lon="8.8408794"><ele>108.33333333333334</ele><time>2026-05-01T12:30:23.222Z</time></trkpt><trkpt lat="38.9414553" lon="8.8410201"><ele>107.66666666666666</ele><time>2026-05-01T12:30:24.221Z</time></trkpt><trkpt lat="38.9415212" lon="8.8411862"><ele>107.0</ele><time>2026-05-01T12:30:25.221Z</time></trkpt><trkpt lat="38.9415772" lon="8.8413778"><ele>107.0</ele><time>2026-05-01T12:30:26.221Z</time></trkpt><trkpt lat="38.9416299" lon="8.8415767"><ele>107.0</ele><time>2026-05-01T12:30:27.221Z</time></trkpt><trkpt lat="38.9416815" lon="8.8417806"><ele>107.0</ele><time>2026-05-01T12:30:28.222Z</time></trkpt><trkpt lat="38.9417373" lon="8.8419955"><ele>106.33333333333333</ele><time>2026-05-01T12:30:29.221Z</time></trkpt><trkpt lat="38.9417884" lon="8.8422025"><ele>105.66666666666666</ele><time>2026-05-01T12:30:30.221Z</time></trkpt><trkpt lat="38.9418348" lon="8.8423841"><ele>105.0</ele><time>2026-05-01T12:30:31.222Z</time></trkpt><trkpt lat="38.9418614" lon="8.8425657"><ele>105.25</ele><time>2026-05-01T12:30:32.222Z</time></trkpt><trkpt lat="38.9418466" lon="8.8427464"><ele>105.5</ele><time>2026-05-01T12:30:33.222Z</time></trkpt><trkpt lat="38.941821" lon="8.8429299"><ele>105.75</ele><time>2026-05-01T12:30:34.222Z</time></trkpt><trkpt lat="38.9417695" lon="8.843104"><ele>106.0</ele><time>2026-05-01T12:30:35.222Z</time></trkpt><trkpt lat="38.9417017" lon="8.8432707"><ele>105.33333333333334</ele><time>2026-05-01T12:30:36.221Z</time></trkpt><trkpt lat="38.9416307" lon="8.8434398"><ele>104.66666666666666</ele><time>2026-05-01T12:30:37.222Z</time></trkpt><trkpt lat="38.9415498" lon="8.843605"><ele>104.0</ele><time>2026-05-01T12:30:38.221Z</time></trkpt><trkpt lat="38.9414653" lon="8.8437713"><ele>102.75</ele><time>2026-05-01T12:30:39.222Z</time></trkpt><trkpt lat="38.9413814" lon="8.8439309"><ele>101.5</ele><time>2026-05-01T12:30:40.221Z</time></trkpt><trkpt lat="38.9412905" lon="8.8440894"><ele>100.25</ele><time>2026-05-01T12:30:41.221Z</time></trkpt><trkpt lat="38.9412135" lon="8.8442388"><ele>99.0</ele><time>2026-05-01T12:30:42.221Z</time></trkpt><trkpt lat="38.9411525" lon="8.8443891"><ele>98.0</ele><time>2026-05-01T12:30:43.221Z</time></trkpt><trkpt lat="38.9411151" lon="8.8445425"><ele>97.0</ele><time>2026-05-01T12:30:44.221Z</time></trkpt><trkpt lat="38.9411102" lon="8.8447052"><ele>96.0</ele><time>2026-05-01T12:30:45.219Z</time></trkpt><trkpt lat="38.941128" lon="8.8448763"><ele>95.0</ele><time>2026-05-01T12:30:46.221Z</time></trkpt><trkpt lat="38.9411755" lon="8.8450644"><ele>95.33333333333334</ele><time>2026-05-01T12:30:47.222Z</time></trkpt><trkpt lat="38.941239" lon="8.8452367"><ele>95.66666666666667</ele><time>2026-05-01T12:30:48.222Z</time></trkpt><trkpt lat="38.9413182" lon="8.8454089"><ele>96.0</ele><time>2026-05-01T12:30:49.221Z</time></trkpt><trkpt lat="38.9413961" lon="8.8455841"><ele>96.0</ele><time>2026-05-01T12:30:50.222Z</time></trkpt><trkpt lat="38.9414739" lon="8.8457674"><ele>96.0</ele><time>2026-05-01T12:30:51.221Z</time></trkpt><trkpt lat="38.9415482" lon="8.8459623"><ele>96.0</ele><time>2026-05-01T12:30:52.222Z</time></trkpt><trkpt lat="38.9416219" lon="8.8461673"><ele>97.0</ele><time>2026-05-01T12:30:53.222Z</time></trkpt><trkpt lat="38.9416817" lon="8.8463633"><ele>98.0</ele><time>2026-05-01T12:30:54.222Z</time></trkpt><trkpt lat="38.9417346" lon="8.8465656"><ele>99.0</ele><time>2026-05-01T12:30:55.22Z</time></trkpt><trkpt lat="38.9417713" lon="8.8467671"><ele>102.66666666666666</ele><time>2026-05-01T12:30:56.221Z</time></trkpt><trkpt lat="38.9417989" lon="8.8469794"><ele>106.33333333333333</ele><time>2026-05-01T12:30:57.222Z</time></trkpt><trkpt lat="38.9418135" lon="8.8471866"><ele>110.0</ele><time>2026-05-01T12:30:58.222Z</time></trkpt><trkpt lat="38.9418212" lon="8.8474013"><ele>110.0</ele><time>2026-05-01T12:30:59.22Z</time></trkpt><trkpt lat="38.9418268" lon="8.8476222"><ele>110.0</ele><time>2026-05-01T12:31:00.222Z</time></trkpt><trkpt lat="38.9418339" lon="8.8478489"><ele>110.0</ele><time>2026-05-01T12:31:01.221Z</time></trkpt><trkpt lat="38.9418399" lon="8.8480776"><ele>106.0</ele><time>2026-05-01T12:31:02.221Z</time></trkpt><trkpt lat="38.9418434" lon="8.8483177"><ele>102.0</ele><time>2026-05-01T12:31:03.22Z</time></trkpt><trkpt lat="38.9418468" lon="8.8485612"><ele>98.0</ele><time>2026-05-01T12:31:04.222Z</time></trkpt><trkpt lat="38.9418494" lon="8.8488041"><ele>95.66666666666666</ele><time>2026-05-01T12:31:05.221Z</time></trkpt><trkpt lat="38.9418572" lon="8.8490519"><ele>93.33333333333333</ele><time>2026-05-01T12:31:06.221Z</time></trkpt><trkpt lat="38.9418622" lon="8.8493013"><ele>91.0</ele><time>2026-05-01T12:31:07.222Z</time></trkpt><trkpt lat="38.9418707" lon="8.8495526"><ele>91.0</ele><time>2026-05-01T12:31:08.222Z</time></trkpt><trkpt lat="38.9418723" lon="8.8498092"><ele>91.0</ele><time>2026-05-01T12:31:09.221Z</time></trkpt><trkpt lat="38.9418682" lon="8.8500651"><ele>91.0</ele><time>2026-05-01T12:31:10.221Z</time></trkpt><trkpt lat="38.9418729" lon="8.850319"><ele>91.0</ele><time>2026-05-01T12:31:11.222Z</time></trkpt><trkpt lat="38.9418803" lon="8.8505745"><ele>91.0</ele><time>2026-05-01T12:31:12.221Z</time></trkpt><trkpt lat="38.9418897" lon="8.8508182"><ele>91.0</ele><time>2026-05-01T12:31:13.222Z</time></trkpt><trkpt lat="38.9418944" lon="8.8510553"><ele>90.66666666666666</ele><time>2026-05-01T12:31:14.221Z</time></trkpt><trkpt lat="38.9419144" lon="8.85128"><ele>90.33333333333333</ele><time>2026-05-01T12:31:15.222Z</time></trkpt><trkpt lat="38.9419591" lon="8.8514942"><ele>90.0</ele><time>2026-05-01T12:31:16.222Z</time></trkpt><trkpt lat="38.9420148" lon="8.8516977"><ele>90.0</ele><time>2026-05-01T12:31:17.222Z</time></trkpt><trkpt lat="38.9420799" lon="8.8518987"><ele>90.0</ele><time>2026-05-01T12:31:18.222Z</time></trkpt><trkpt lat="38.9421443" lon="8.8520968"><ele>90.0</ele><time>2026-05-01T12:31:19.222Z</time></trkpt><trkpt lat="38.942203" lon="8.8522865"><ele>90.0</ele><time>2026-05-01T12:31:20.221Z</time></trkpt><trkpt lat="38.9422467" lon="8.8524835"><ele>90.0</ele><time>2026-05-01T12:31:21.221Z</time></trkpt><trkpt lat="38.9422395" lon="8.8526737"><ele>90.0</ele><time>2026-05-01T12:31:22.222Z</time></trkpt><trkpt lat="38.9422089" lon="8.8528611"><ele>91.66666666666667</ele><time>2026-05-01T12:31:23.221Z</time></trkpt><trkpt lat="38.9421765" lon="8.8530507"><ele>93.33333333333334</ele><time>2026-05-01T12:31:24.221Z</time></trkpt><trkpt lat="38.9421079" lon="8.8532573"><ele>95.0</ele><time>2026-05-01T12:31:25.222Z</time></trkpt><trkpt lat="38.9420564" lon="8.8534468"><ele>95.0</ele><time>2026-05-01T12:31:26.222Z</time></trkpt><trkpt lat="38.9420346" lon="8.8536125"><ele>95.0</ele><time>2026-05-01T12:31:27.221Z</time></trkpt><trkpt lat="38.9420406" lon="8.8537689"><ele>95.0</ele><time>2026-05-01T12:31:28.221Z</time></trkpt><trkpt lat="38.9420814" lon="8.8539201"><ele>95.0</ele><time>2026-05-01T12:31:29.221Z</time></trkpt><trkpt lat="38.9421437" lon="8.8540663"><ele>95.0</ele><time>2026-05-01T12:31:30.222Z</time></trkpt><trkpt lat="38.9422106" lon="8.8542186"><ele>95.0</ele><time>2026-05-01T12:31:31.221Z</time></trkpt><trkpt lat="38.9422757" lon="8.8543862"><ele>95.0</ele><time>2026-05-01T12:31:32.221Z</time></trkpt><trkpt lat="38.9423406" lon="8.8545488"><ele>95.0</ele><time>2026-05-01T12:31:33.222Z</time></trkpt><trkpt lat="38.9424067" lon="8.8547092"><ele>94.6</ele><time>2026-05-01T12:31:34.221Z</time></trkpt><trkpt lat="38.94247" lon="8.8548353"><ele>94.2</ele><time>2026-05-01T12:31:35.221Z</time></trkpt><trkpt lat="38.9425563" lon="8.8549238"><ele>93.80000000000001</ele><time>2026-05-01T12:31:36.22Z</time></trkpt><trkpt lat="38.9426548" lon="8.8549651"><ele>93.4</ele><time>2026-05-01T12:31:37.222Z</time></trkpt><trkpt lat="38.9427535" lon="8.8549994"><ele>93.0</ele><time>2026-05-01T12:31:38.221Z</time></trkpt><trkpt lat="38.9428387" lon="8.8550642"><ele>91.60000000000001</ele><time>2026-05-01T12:31:39.221Z</time></trkpt><trkpt lat="38.9428972" lon="8.8551573"><ele>90.2</ele><time>2026-05-01T12:31:40.221Z</time></trkpt><trkpt lat="38.942917" lon="8.8552927"><ele>88.8</ele><time>2026-05-01T12:31:41.221Z</time></trkpt><trkpt lat="38.9429179" lon="8.8554455"><ele>87.4</ele><time>2026-05-01T12:31:42.221Z</time></trkpt><trkpt lat="38.9429039" lon="8.8556117"><ele>86.0</ele><time>2026-05-01T12:31:43.221Z</time></trkpt><trkpt lat="38.9428543" lon="8.8557944"><ele>84.75</ele><time>2026-05-01T12:31:44.222Z</time></trkpt><trkpt lat="38.9428132" lon="8.8559724"><ele>83.5</ele><time>2026-05-01T12:31:45.222Z</time></trkpt><trkpt lat="38.9427748" lon="8.8561402"><ele>82.25</ele><time>2026-05-01T12:31:46.222Z</time></trkpt><trkpt lat="38.9427401" lon="8.8563002"><ele>81.0</ele><time>2026-05-01T12:31:47.221Z</time></trkpt><trkpt lat="38.9427158" lon="8.8564363"><ele>81.0</ele><time>2026-05-01T12:31:48.222Z</time></trkpt><trkpt lat="38.94273" lon="8.8565662"><ele>81.0</ele><time>2026-05-01T12:31:49.222Z</time></trkpt><trkpt lat="38.9427801" lon="8.8566783"><ele>81.0</ele><time>2026-05-01T12:31:50.22Z</time></trkpt><trkpt lat="38.9428544" lon="8.856768"><ele>81.0</ele><time>2026-05-01T12:31:51.221Z</time></trkpt><trkpt lat="38.9429404" lon="8.8568567"><ele>81.0</ele><time>2026-05-01T12:31:52.219Z</time></trkpt><trkpt lat="38.9430088" lon="8.8569595"><ele>81.4</ele><time>2026-05-01T12:31:53.22Z</time></trkpt><trkpt lat="38.9430433" lon="8.8570861"><ele>81.8</ele><time>2026-05-01T12:31:54.221Z</time></trkpt><trkpt lat="38.9430622" lon="8.8572187"><ele>82.2</ele><time>2026-05-01T12:31:55.221Z</time></trkpt><trkpt lat="38.9430407" lon="8.8573645"><ele>82.60000000000001</ele><time>2026-05-01T12:31:56.221Z</time></trkpt><trkpt lat="38.9429974" lon="8.8574992"><ele>83.0</ele><time>2026-05-01T12:31:57.221Z</time></trkpt><trkpt lat="38.9429197" lon="8.8576235"><ele>83.75</ele><time>2026-05-01T12:31:58.221Z</time></trkpt><trkpt lat="38.9428119" lon="8.8577632"><ele>84.5</ele><time>2026-05-01T12:31:59.222Z</time></trkpt><trkpt lat="38.9427071" lon="8.8578941"><ele>85.25</ele><time>2026-05-01T12:32:00.222Z</time></trkpt><trkpt lat="38.9426097" lon="8.8580155"><ele>86.0</ele><time>2026-05-01T12:32:01.222Z</time></trkpt><trkpt lat="38.9425149" lon="8.8581324"><ele>84.39999999999999</ele><time>2026-05-01T12:32:02.222Z</time></trkpt><trkpt lat="38.9424572" lon="8.8582456"><ele>82.8</ele><time>2026-05-01T12:32:03.221Z</time></trkpt><trkpt lat="38.9424" lon="8.8583725"><ele>81.19999999999999</ele><time>2026-05-01T12:32:04.222Z</time></trkpt><trkpt lat="38.9423597" lon="8.8585078"><ele>79.6</ele><time>2026-05-01T12:32:05.221Z</time></trkpt><trkpt lat="38.9423539" lon="8.8586491"><ele>78.0</ele><time>2026-05-01T12:32:06.222Z</time></trkpt><trkpt lat="38.9423643" lon="8.8587833"><ele>77.8</ele><time>2026-05-01T12:32:07.222Z</time></trkpt><trkpt lat="38.9424037" lon="8.8589128"><ele>77.6</ele><time>2026-05-01T12:32:08.222Z</time></trkpt><trkpt lat="38.9424614" lon="8.8590288"><ele>77.4</ele><time>2026-05-01T12:32:09.222Z</time></trkpt><trkpt lat="38.9425332" lon="8.8591253"><ele>77.2</ele><time>2026-05-01T12:32:10.222Z</time></trkpt><trkpt lat="38.9426171" lon="8.8592195"><ele>77.0</ele><time>2026-05-01T12:32:11.222Z</time></trkpt><trkpt lat="38.9427026" lon="8.8593231"><ele>76.25</ele><time>2026-05-01T12:32:12.222Z</time></trkpt><trkpt lat="38.9427929" lon="8.8594355"><ele>75.5</ele><time>2026-05-01T12:32:13.221Z</time></trkpt><trkpt lat="38.9428824" lon="8.8595418"><ele>74.75</ele><time>2026-05-01T12:32:14.22Z</time></trkpt><trkpt lat="38.9429734" lon="8.8596405"><ele>74.0</ele><time>2026-05-01T12:32:15.222Z</time></trkpt><trkpt lat="38.943059" lon="8.8597472"><ele>74.0</ele><time>2026-05-01T12:32:16.221Z</time></trkpt><trkpt lat="38.9431127" lon="8.8598631"><ele>74.0</ele><time>2026-05-01T12:32:17.221Z</time></trkpt><trkpt lat="38.9431278" lon="8.8599908"><ele>74.0</ele><time>2026-05-01T12:32:18.222Z</time></trkpt><trkpt lat="38.9431308" lon="8.8601232"><ele>74.0</ele><time>2026-05-01T12:32:19.222Z</time></trkpt><trkpt lat="38.9431133" lon="8.8602643"><ele>74.0</ele><time>2026-05-01T12:32:20.221Z</time></trkpt><trkpt lat="38.9430976" lon="8.8604116"><ele>73.25</ele><time>2026-05-01T12:32:21.222Z</time></trkpt><trkpt lat="38.943086" lon="8.8605588"><ele>72.5</ele><time>2026-05-01T12:32:22.222Z</time></trkpt><trkpt lat="38.9430705" lon="8.8607084"><ele>71.75</ele><time>2026-05-01T12:32:23.221Z</time></trkpt><trkpt lat="38.9430565" lon="8.8608556"><ele>71.0</ele><time>2026-05-01T12:32:24.221Z</time></trkpt><trkpt lat="38.9430432" lon="8.8609985"><ele>70.6</ele><time>2026-05-01T12:32:25.222Z</time></trkpt><trkpt lat="38.9430351" lon="8.8611337"><ele>70.19999999999999</ele><time>2026-05-01T12:32:26.221Z</time></trkpt><trkpt lat="38.9430164" lon="8.8612692"><ele>69.80000000000001</ele><time>2026-05-01T12:32:27.222Z</time></trkpt><trkpt lat="38.942997" lon="8.8613987"><ele>69.4</ele><time>2026-05-01T12:32:28.222Z</time></trkpt><trkpt lat="38.94298" lon="8.8615222"><ele>69.0</ele><time>2026-05-01T12:32:29.222Z</time></trkpt><trkpt lat="38.9429729" lon="8.8616326"><ele>69.0</ele><time>2026-05-01T12:32:30.221Z</time></trkpt><trkpt lat="38.9429584" lon="8.861734"><ele>69.0</ele><time>2026-05-01T12:32:31.222Z</time></trkpt><trkpt lat="38.9429482" lon="8.8618458"><ele>69.0</ele><time>2026-05-01T12:32:32.222Z</time></trkpt><trkpt lat="38.9429351" lon="8.8619676"><ele>69.0</ele><time>2026-05-01T12:32:33.222Z</time></trkpt><trkpt lat="38.9429206" lon="8.8620815"><ele>69.0</ele><time>2026-05-01T12:32:34.221Z</time></trkpt><trkpt lat="38.9429074" lon="8.8621941"><ele>69.0</ele><time>2026-05-01T12:32:35.222Z</time></trkpt><trkpt lat="38.94289" lon="8.8622984"><ele>69.0</ele><time>2026-05-01T12:32:36.221Z</time></trkpt><trkpt lat="38.942868" lon="8.8624"><ele>69.0</ele><time>2026-05-01T12:32:37.221Z</time></trkpt><trkpt lat="38.942849" lon="8.8625043"><ele>69.0</ele><time>2026-05-01T12:32:38.221Z</time></trkpt><trkpt lat="38.9428354" lon="8.8626184"><ele>69.0</ele><time>2026-05-01T12:32:39.221Z</time></trkpt><trkpt lat="38.9428195" lon="8.8627406"><ele>69.0</ele><time>2026-05-01T12:32:40.221Z</time></trkpt><trkpt lat="38.9427969" lon="8.862867"><ele>69.0</ele><time>2026-05-01T12:32:41.221Z</time></trkpt><trkpt lat="38.9427665" lon="8.8629904"><ele>69.0</ele><time>2026-05-01T12:32:42.222Z</time></trkpt><trkpt lat="38.9427415" lon="8.8631089"><ele>69.0</ele><time>2026-05-01T12:32:43.222Z</time></trkpt><trkpt lat="38.9427142" lon="8.8632285"><ele>69.0</ele><time>2026-05-01T12:32:44.22Z</time></trkpt><trkpt lat="38.9426848" lon="8.8633458"><ele>69.0</ele><time>2026-05-01T12:32:45.219Z</time></trkpt><trkpt lat="38.9426638" lon="8.8634595"><ele>68.8</ele><time>2026-05-01T12:32:46.221Z</time></trkpt><trkpt lat="38.9426394" lon="8.8635789"><ele>68.60000000000001</ele><time>2026-05-01T12:32:47.222Z</time></trkpt><trkpt lat="38.9426112" lon="8.8636906"><ele>68.4</ele><time>2026-05-01T12:32:48.222Z</time></trkpt><trkpt lat="38.9425827" lon="8.863801"><ele>68.2</ele><time>2026-05-01T12:32:49.221Z</time></trkpt><trkpt lat="38.9425667" lon="8.8639133"><ele>68.0</ele><time>2026-05-01T12:32:50.222Z</time></trkpt><trkpt lat="38.9425452" lon="8.8640212"><ele>67.0</ele><time>2026-05-01T12:32:51.221Z</time></trkpt><trkpt lat="38.9425146" lon="8.8641333"><ele>66.0</ele><time>2026-05-01T12:32:52.222Z</time></trkpt><trkpt lat="38.9424865" lon="8.8642451"><ele>65.0</ele><time>2026-05-01T12:32:53.222Z</time></trkpt><trkpt lat="38.9424699" lon="8.8643512"><ele>64.0</ele><time>2026-05-01T12:32:54.221Z</time></trkpt><trkpt lat="38.942429" lon="8.8644535"><ele>63.00000000000001</ele><time>2026-05-01T12:32:55.222Z</time></trkpt><trkpt lat="38.9423878" lon="8.8645371"><ele>62.0</ele><time>2026-05-01T12:32:56.22Z</time></trkpt><trkpt lat="38.9423332" lon="8.8646131"><ele>61.0</ele><time>2026-05-01T12:32:57.22Z</time></trkpt><trkpt lat="38.942256" lon="8.8646753"><ele>60.0</ele><time>2026-05-01T12:32:58.222Z</time></trkpt><trkpt lat="38.9421689" lon="8.8647166"><ele>59.0</ele><time>2026-05-01T12:32:59.221Z</time></trkpt><trkpt lat="38.9420832" lon="8.8647657"><ele>58.0</ele><time>2026-05-01T12:33:00.221Z</time></trkpt><trkpt lat="38.9419972" lon="8.8648092"><ele>57.0</ele><time>2026-05-01T12:33:01.221Z</time></trkpt><trkpt lat="38.9419234" lon="8.8648501"><ele>57.0</ele><time>2026-05-01T12:33:02.222Z</time></trkpt><trkpt lat="38.9418432" lon="8.8648934"><ele>57.0</ele><time>2026-05-01T12:33:03.221Z</time></trkpt><trkpt lat="38.9417612" lon="8.8649369"><ele>57.0</ele><time>2026-05-01T12:33:04.221Z</time></trkpt><trkpt lat="38.9416734" lon="8.8649832"><ele>57.0</ele><time>2026-05-01T12:33:05.221Z</time></trkpt><trkpt lat="38.9415795" lon="8.8650266"><ele>57.0</ele><time>2026-05-01T12:33:06.22Z</time></trkpt><trkpt lat="38.9414874" lon="8.8650803"><ele>56.0</ele><time>2026-05-01T12:33:07.221Z</time></trkpt><trkpt lat="38.9413986" lon="8.8651351"><ele>55.0</ele><time>2026-05-01T12:33:08.221Z</time></trkpt><trkpt lat="38.9413002" lon="8.8652012"><ele>54.0</ele><time>2026-05-01T12:33:09.222Z</time></trkpt><trkpt lat="38.9411908" lon="8.8652679"><ele>53.0</ele><time>2026-05-01T12:33:10.22Z</time></trkpt><trkpt lat="38.9410829" lon="8.8653431"><ele>53.0</ele><time>2026-05-01T12:33:11.222Z</time></trkpt><trkpt lat="38.9409858" lon="8.8654307"><ele>53.0</ele><time>2026-05-01T12:33:12.221Z</time></trkpt><trkpt lat="38.9408764" lon="8.8655279"><ele>53.0</ele><time>2026-05-01T12:33:13.221Z</time></trkpt><trkpt lat="38.9407617" lon="8.8656258"><ele>53.0</ele><time>2026-05-01T12:33:14.221Z</time></trkpt><trkpt lat="38.940655" lon="8.8657088"><ele>53.25</ele><time>2026-05-01T12:33:15.221Z</time></trkpt><trkpt lat="38.9405514" lon="8.8657847"><ele>53.5</ele><time>2026-05-01T12:33:16.222Z</time></trkpt><trkpt lat="38.9404528" lon="8.8658579"><ele>53.75</ele><time>2026-05-01T12:33:17.221Z</time></trkpt><trkpt lat="38.9403581" lon="8.8659274"><ele>54.0</ele><time>2026-05-01T12:33:18.221Z</time></trkpt><trkpt lat="38.940267" lon="8.866015"><ele>54.0</ele><time>2026-05-01T12:33:19.221Z</time></trkpt><trkpt lat="38.9401931" lon="8.8661156"><ele>54.00000000000001</ele><time>2026-05-01T12:33:20.22Z</time></trkpt><trkpt lat="38.9401352" lon="8.8662369"><ele>54.00000000000001</ele><time>2026-05-01T12:33:21.221Z</time></trkpt><trkpt lat="38.9401039" lon="8.8663714"><ele>54.0</ele><time>2026-05-01T12:33:22.22Z</time></trkpt><trkpt lat="38.9400819" lon="8.866525"><ele>54.0</ele><time>2026-05-01T12:33:23.222Z</time></trkpt><trkpt lat="38.9400645" lon="8.8666772"><ele>54.5</ele><time>2026-05-01T12:33:24.221Z</time></trkpt><trkpt lat="38.9400516" lon="8.8668388"><ele>55.0</ele><time>2026-05-01T12:33:25.221Z</time></trkpt><trkpt lat="38.9400345" lon="8.8669971"><ele>55.5</ele><time>2026-05-01T12:33:26.22Z</time></trkpt><trkpt lat="38.9400114" lon="8.8671513"><ele>56.0</ele><time>2026-05-01T12:33:27.22Z</time></trkpt><trkpt lat="38.9399858" lon="8.8673163"><ele>56.0</ele><time>2026-05-01T12:33:28.222Z</time></trkpt><trkpt lat="38.939933" lon="8.8674762"><ele>56.0</ele><time>2026-05-01T12:33:29.221Z</time></trkpt><trkpt lat="38.9398694" lon="8.8676451"><ele>56.0</ele><time>2026-05-01T12:33:30.222Z</time></trkpt><trkpt lat="38.939803" lon="8.8678117"><ele>56.0</ele><time>2026-05-01T12:33:31.222Z</time></trkpt><trkpt lat="38.9397267" lon="8.867976"><ele>55.333333333333336</ele><time>2026-05-01T12:33:32.221Z</time></trkpt><trkpt lat="38.9396408" lon="8.8681401"><ele>54.66666666666667</ele><time>2026-05-01T12:33:33.22Z</time></trkpt><trkpt lat="38.9395474" lon="8.868294"><ele>54.0</ele><time>2026-05-01T12:33:34.222Z</time></trkpt><trkpt lat="38.9394445" lon="8.8684503"><ele>54.0</ele><time>2026-05-01T12:33:35.22Z</time></trkpt><trkpt lat="38.9393422" lon="8.8686224"><ele>54.0</ele><time>2026-05-01T12:33:36.221Z</time></trkpt><trkpt lat="38.9392337" lon="8.868786"><ele>54.0</ele><time>2026-05-01T12:33:37.22Z</time></trkpt><trkpt lat="38.9391275" lon="8.868948"><ele>53.0</ele><time>2026-05-01T12:33:38.221Z</time></trkpt><trkpt lat="38.9390236" lon="8.8691181"><ele>52.0</ele><time>2026-05-01T12:33:39.222Z</time></trkpt><trkpt lat="38.9389209" lon="8.8692757"><ele>51.0</ele><time>2026-05-01T12:33:40.222Z</time></trkpt><trkpt lat="38.9388168" lon="8.869434"><ele>50.66666666666667</ele><time>2026-05-01T12:33:41.221Z</time></trkpt><trkpt lat="38.9387133" lon="8.8695875"><ele>50.333333333333336</ele><time>2026-05-01T12:33:42.219Z</time></trkpt><trkpt lat="38.9386027" lon="8.8697332"><ele>50.0</ele><time>2026-05-01T12:33:43.222Z</time></trkpt><trkpt lat="38.9384869" lon="8.8698666"><ele>50.5</ele><time>2026-05-01T12:33:44.222Z</time></trkpt><trkpt lat="38.9383647" lon="8.8699799"><ele>51.0</ele><time>2026-05-01T12:33:45.222Z</time></trkpt><trkpt lat="38.9382398" lon="8.8700723"><ele>51.5</ele><time>2026-05-01T12:33:46.22Z</time></trkpt><trkpt lat="38.9381114" lon="8.8701557"><ele>52.0</ele><time>2026-05-01T12:33:47.221Z</time></trkpt><trkpt lat="38.9379784" lon="8.8702248"><ele>52.25</ele><time>2026-05-01T12:33:48.222Z</time></trkpt><trkpt lat="38.9378444" lon="8.8702558"><ele>52.5</ele><time>2026-05-01T12:33:49.222Z</time></trkpt><trkpt lat="38.937701" lon="8.8702887"><ele>52.75</ele><time>2026-05-01T12:33:50.221Z</time></trkpt><trkpt lat="38.9375526" lon="8.8703133"><ele>53.0</ele><time>2026-05-01T12:33:51.221Z</time></trkpt><trkpt lat="38.9374077" lon="8.8703342"><ele>52.333333333333336</ele><time>2026-05-01T12:33:52.22Z</time></trkpt><trkpt lat="38.9372561" lon="8.8703615"><ele>51.66666666666667</ele><time>2026-05-01T12:33:53.221Z</time></trkpt><trkpt lat="38.9371014" lon="8.8703895"><ele>51.0</ele><time>2026-05-01T12:33:54.221Z</time></trkpt><trkpt lat="38.936944" lon="8.8704211"><ele>51.0</ele><time>2026-05-01T12:33:55.221Z</time></trkpt><trkpt lat="38.9367852" lon="8.8704625"><ele>51.0</ele><time>2026-05-01T12:33:56.222Z</time></trkpt><trkpt lat="38.9366332" lon="8.8705129"><ele>51.0</ele><time>2026-05-01T12:33:57.221Z</time></trkpt><trkpt lat="38.9364899" lon="8.870586"><ele>51.0</ele><time>2026-05-01T12:33:58.222Z</time></trkpt><trkpt lat="38.9363423" lon="8.8706677"><ele>51.0</ele><time>2026-05-01T12:33:59.221Z</time></trkpt><trkpt lat="38.9362042" lon="8.8707615"><ele>51.0</ele><time>2026-05-01T12:34:00.221Z</time></trkpt><trkpt lat="38.9360647" lon="8.8708668"><ele>51.0</ele><time>2026-05-01T12:34:01.221Z</time></trkpt><trkpt lat="38.9359235" lon="8.8709758"><ele>51.0</ele><time>2026-05-01T12:34:02.222Z</time></trkpt><trkpt lat="38.9357872" lon="8.8710855"><ele>51.0</ele><time>2026-05-01T12:34:03.222Z</time></trkpt><trkpt lat="38.9356569" lon="8.8712079"><ele>51.0</ele><time>2026-05-01T12:34:04.221Z</time></trkpt><trkpt lat="38.9355354" lon="8.8713372"><ele>51.0</ele><time>2026-05-01T12:34:05.221Z</time></trkpt><trkpt lat="38.9354186" lon="8.8714768"><ele>51.0</ele><time>2026-05-01T12:34:06.222Z</time></trkpt><trkpt lat="38.935303" lon="8.8716231"><ele>51.0</ele><time>2026-05-01T12:34:07.22Z</time></trkpt><trkpt lat="38.9352019" lon="8.8717651"><ele>51.0</ele><time>2026-05-01T12:34:08.22Z</time></trkpt><trkpt lat="38.9351" lon="8.8718987"><ele>51.0</ele><time>2026-05-01T12:34:09.218Z</time></trkpt><trkpt lat="38.934988" lon="8.8720018"><ele>51.0</ele><time>2026-05-01T12:34:10.222Z</time></trkpt><trkpt lat="38.9348648" lon="8.8720774"><ele>49.75</ele><time>2026-05-01T12:34:11.221Z</time></trkpt><trkpt lat="38.9347382" lon="8.8721102"><ele>48.5</ele><time>2026-05-01T12:34:12.222Z</time></trkpt><trkpt lat="38.9346177" lon="8.8720878"><ele>47.25</ele><time>2026-05-01T12:34:13.221Z</time></trkpt><trkpt lat="38.9345242" lon="8.872003"><ele>46.0</ele><time>2026-05-01T12:34:14.222Z</time></trkpt><trkpt lat="38.9344397" lon="8.8718883"><ele>50.66666666666667</ele><time>2026-05-01T12:34:15.221Z</time></trkpt><trkpt lat="38.9343777" lon="8.8717358"><ele>55.333333333333336</ele><time>2026-05-01T12:34:16.222Z</time></trkpt><trkpt lat="38.9343317" lon="8.8715575"><ele>60.0</ele><time>2026-05-01T12:34:17.221Z</time></trkpt><trkpt lat="38.9342581" lon="8.8713362"><ele>60.33333333333333</ele><time>2026-05-01T12:34:18.222Z</time></trkpt><trkpt lat="38.9341877" lon="8.8711298"><ele>60.666666666666664</ele><time>2026-05-01T12:34:19.222Z</time></trkpt><trkpt lat="38.9341089" lon="8.8709636"><ele>61.0</ele><time>2026-05-01T12:34:20.221Z</time></trkpt><trkpt lat="38.9340042" lon="8.8708417"><ele>61.0</ele><time>2026-05-01T12:34:21.221Z</time></trkpt><trkpt lat="38.9338874" lon="8.8707679"><ele>61.0</ele><time>2026-05-01T12:34:22.221Z</time></trkpt><trkpt lat="38.9337529" lon="8.87075"><ele>61.0</ele><time>2026-05-01T12:34:23.222Z</time></trkpt><trkpt lat="38.9336289" lon="8.8707793"><ele>61.0</ele><time>2026-05-01T12:34:24.221Z</time></trkpt><trkpt lat="38.9335223" lon="8.8708451"><ele>58.5</ele><time>2026-05-01T12:34:25.222Z</time></trkpt><trkpt lat="38.9334222" lon="8.870952"><ele>56.0</ele><time>2026-05-01T12:34:26.221Z</time></trkpt><trkpt lat="38.9333062" lon="8.8710481"><ele>53.5</ele><time>2026-05-01T12:34:27.222Z</time></trkpt><trkpt lat="38.9331641" lon="8.8711"><ele>51.0</ele><time>2026-05-01T12:34:28.222Z</time></trkpt><trkpt lat="38.9330132" lon="8.8711087"><ele>51.0</ele><time>2026-05-01T12:34:29.222Z</time></trkpt><trkpt lat="38.9328647" lon="8.8711036"><ele>51.0</ele><time>2026-05-01T12:34:30.222Z</time></trkpt><trkpt lat="38.9327257" lon="8.8711101"><ele>51.0</ele><time>2026-05-01T12:34:31.222Z</time></trkpt><trkpt lat="38.9325871" lon="8.8711613"><ele>51.0</ele><time>2026-05-01T12:34:32.222Z</time></trkpt><trkpt lat="38.9324498" lon="8.8712621"><ele>49.0</ele><time>2026-05-01T12:34:33.221Z</time></trkpt><trkpt lat="38.9323062" lon="8.8713973"><ele>47.0</ele><time>2026-05-01T12:34:34.221Z</time></trkpt><trkpt lat="38.9321728" lon="8.8715579"><ele>45.0</ele><time>2026-05-01T12:34:35.222Z</time></trkpt><trkpt lat="38.9320688" lon="8.8717242"><ele>50.66666666666667</ele><time>2026-05-01T12:34:36.221Z</time></trkpt><trkpt lat="38.9319709" lon="8.8718882"><ele>56.333333333333336</ele><time>2026-05-01T12:34:37.221Z</time></trkpt><trkpt lat="38.9318778" lon="8.872039"><ele>62.0</ele><time>2026-05-01T12:34:38.221Z</time></trkpt><trkpt lat="38.9317711" lon="8.8721632"><ele>58.333333333333336</ele><time>2026-05-01T12:34:39.221Z</time></trkpt><trkpt lat="38.9316335" lon="8.8722421"><ele>54.66666666666667</ele><time>2026-05-01T12:34:40.221Z</time></trkpt><trkpt lat="38.9314727" lon="8.8722948"><ele>51.0</ele><time>2026-05-01T12:34:41.221Z</time></trkpt><trkpt lat="38.9313003" lon="8.8723371"><ele>51.0</ele><time>2026-05-01T12:34:42.222Z</time></trkpt><trkpt lat="38.9311268" lon="8.8723582"><ele>51.0</ele><time>2026-05-01T12:34:43.221Z</time></trkpt><trkpt lat="38.9309536" lon="8.8723617"><ele>51.0</ele><time>2026-05-01T12:34:44.222Z</time></trkpt><trkpt lat="38.930777" lon="8.8722949"><ele>49.666666666666664</ele><time>2026-05-01T12:34:45.221Z</time></trkpt><trkpt lat="38.9306072" lon="8.8722259"><ele>48.33333333333333</ele><time>2026-05-01T12:34:46.221Z</time></trkpt><trkpt lat="38.9304436" lon="8.8721769"><ele>47.0</ele><time>2026-05-01T12:34:47.22Z</time></trkpt><trkpt lat="38.9302966" lon="8.8721627"><ele>47.0</ele><time>2026-05-01T12:34:48.221Z</time></trkpt><trkpt lat="38.9301449" lon="8.8721899"><ele>47.0</ele><time>2026-05-01T12:34:49.222Z</time></trkpt><trkpt lat="38.9300033" lon="8.872276"><ele>47.0</ele><time>2026-05-01T12:34:50.221Z</time></trkpt><trkpt lat="38.9298689" lon="8.8724059"><ele>46.0</ele><time>2026-05-01T12:34:51.22Z</time></trkpt><trkpt lat="38.9297357" lon="8.8725581"><ele>45.0</ele><time>2026-05-01T12:34:52.221Z</time></trkpt><trkpt lat="38.9296022" lon="8.8727473"><ele>44.0</ele><time>2026-05-01T12:34:53.221Z</time></trkpt><trkpt lat="38.9294698" lon="8.8729463"><ele>43.33333333333333</ele><time>2026-05-01T12:34:54.22Z</time></trkpt><trkpt lat="38.9293388" lon="8.8731663"><ele>42.666666666666664</ele><time>2026-05-01T12:34:55.221Z</time></trkpt><trkpt lat="38.9292146" lon="8.8734107"><ele>42.0</ele><time>2026-05-01T12:34:56.222Z</time></trkpt><trkpt lat="38.9291" lon="8.8736463"><ele>45.0</ele><time>2026-05-01T12:34:57.222Z</time></trkpt><trkpt lat="38.9290024" lon="8.8738637"><ele>48.0</ele><time>2026-05-01T12:34:58.221Z</time></trkpt><trkpt lat="38.9289221" lon="8.8740639"><ele>51.0</ele><time>2026-05-01T12:34:59.221Z</time></trkpt><trkpt lat="38.9288749" lon="8.8742544"><ele>50.33333333333333</ele><time>2026-05-01T12:35:00.222Z</time></trkpt><trkpt lat="38.9288579" lon="8.8744649"><ele>49.666666666666664</ele><time>2026-05-01T12:35:01.222Z</time></trkpt><trkpt lat="38.9288737" lon="8.8746853"><ele>49.0</ele><time>2026-05-01T12:35:02.221Z</time></trkpt><trkpt lat="38.9288881" lon="8.8749213"><ele>47.33333333333333</ele><time>2026-05-01T12:35:03.222Z</time></trkpt><trkpt lat="38.9289102" lon="8.8751759"><ele>45.666666666666664</ele><time>2026-05-01T12:35:04.222Z</time></trkpt><trkpt lat="38.9289342" lon="8.8754411"><ele>44.0</ele><time>2026-05-01T12:35:05.222Z</time></trkpt><trkpt lat="38.9289483" lon="8.8757093"><ele>43.0</ele><time>2026-05-01T12:35:06.221Z</time></trkpt><trkpt lat="38.9289398" lon="8.8759824"><ele>42.0</ele><time>2026-05-01T12:35:07.221Z</time></trkpt><trkpt lat="38.9289225" lon="8.8762551"><ele>41.0</ele><time>2026-05-01T12:35:08.222Z</time></trkpt><trkpt lat="38.9288867" lon="8.8765332"><ele>39.5</ele><time>2026-05-01T12:35:09.221Z</time></trkpt><trkpt lat="38.9288405" lon="8.8768135"><ele>38.0</ele><time>2026-05-01T12:35:10.221Z</time></trkpt><trkpt lat="38.9287924" lon="8.8770995"><ele>38.0</ele><time>2026-05-01T12:35:11.222Z</time></trkpt><trkpt lat="38.9287417" lon="8.877385"><ele>38.0</ele><time>2026-05-01T12:35:12.222Z</time></trkpt><trkpt lat="38.9286913" lon="8.8776703"><ele>41.0</ele><time>2026-05-01T12:35:13.222Z</time></trkpt><trkpt lat="38.928637" lon="8.8779612"><ele>44.0</ele><time>2026-05-01T12:35:14.222Z</time></trkpt><trkpt lat="38.9285911" lon="8.8782533"><ele>54.5</ele><time>2026-05-01T12:35:15.221Z</time></trkpt><trkpt lat="38.9285471" lon="8.8785517"><ele>65.0</ele><time>2026-05-01T12:35:16.222Z</time></trkpt><trkpt lat="38.9284952" lon="8.8788421"><ele>65.0</ele><time>2026-05-01T12:35:17.222Z</time></trkpt><trkpt lat="38.9284427" lon="8.8791205"><ele>65.0</ele><time>2026-05-01T12:35:18.221Z</time></trkpt><trkpt lat="38.9283835" lon="8.8793839"><ele>65.0</ele><time>2026-05-01T12:35:19.222Z</time></trkpt><trkpt lat="38.9283133" lon="8.8796423"><ele>61.66666666666667</ele><time>2026-05-01T12:35:20.221Z</time></trkpt><trkpt lat="38.9282159" lon="8.8798768"><ele>58.33333333333333</ele><time>2026-05-01T12:35:21.221Z</time></trkpt><trkpt lat="38.9281134" lon="8.8801167"><ele>55.0</ele><time>2026-05-01T12:35:22.222Z</time></trkpt><trkpt lat="38.9280085" lon="8.8803595"><ele>55.0</ele><time>2026-05-01T12:35:23.221Z</time></trkpt><trkpt lat="38.9278932" lon="8.8806007"><ele>55.0</ele><time>2026-05-01T12:35:24.222Z</time></trkpt><trkpt lat="38.9277884" lon="8.8808447"><ele>55.0</ele><time>2026-05-01T12:35:25.221Z</time></trkpt><trkpt lat="38.9276836" lon="8.8810674"><ele>57.33333333333333</ele><time>2026-05-01T12:35:26.222Z</time></trkpt><trkpt lat="38.9275744" lon="8.8812806"><ele>59.66666666666667</ele><time>2026-05-01T12:35:27.222Z</time></trkpt><trkpt lat="38.9274566" lon="8.8814763"><ele>62.0</ele><time>2026-05-01T12:35:28.222Z</time></trkpt><trkpt lat="38.9273255" lon="8.8816703"><ele>56.66666666666667</ele><time>2026-05-01T12:35:29.221Z</time></trkpt><trkpt lat="38.9271859" lon="8.8818658"><ele>51.333333333333336</ele><time>2026-05-01T12:35:30.221Z</time></trkpt><trkpt lat="38.9270418" lon="8.8820493"><ele>46.0</ele><time>2026-05-01T12:35:31.222Z</time></trkpt><trkpt lat="38.9269104" lon="8.8822259"><ele>46.0</ele><time>2026-05-01T12:35:32.221Z</time></trkpt><trkpt lat="38.9267686" lon="8.8823901"><ele>46.0</ele><time>2026-05-01T12:35:33.221Z</time></trkpt><trkpt lat="38.9266278" lon="8.8825287"><ele>46.0</ele><time>2026-05-01T12:35:34.221Z</time></trkpt><trkpt lat="38.9264771" lon="8.8826437"><ele>47.66666666666667</ele><time>2026-05-01T12:35:35.221Z</time></trkpt><trkpt lat="38.9262804" lon="8.8827323"><ele>49.333333333333336</ele><time>2026-05-01T12:35:36.221Z</time></trkpt><trkpt lat="38.9261" lon="8.8828316"><ele>51.0</ele><time>2026-05-01T12:35:37.22Z</time></trkpt><trkpt lat="38.9259375" lon="8.8829382"><ele>48.0</ele><time>2026-05-01T12:35:38.221Z</time></trkpt><trkpt lat="38.9257804" lon="8.8830344"><ele>45.0</ele><time>2026-05-01T12:35:39.221Z</time></trkpt><trkpt lat="38.9256191" lon="8.8831062"><ele>42.0</ele><time>2026-05-01T12:35:40.222Z</time></trkpt><trkpt lat="38.9254479" lon="8.8831194"><ele>42.0</ele><time>2026-05-01T12:35:41.222Z</time></trkpt><trkpt lat="38.9252724" lon="8.883128"><ele>42.0</ele><time>2026-05-01T12:35:42.221Z</time></trkpt><trkpt lat="38.9250834" lon="8.8831203"><ele>42.0</ele><time>2026-05-01T12:35:43.221Z</time></trkpt><trkpt lat="38.9248865" lon="8.8831038"><ele>41.0</ele><time>2026-05-01T12:35:44.222Z</time></trkpt><trkpt lat="38.9246953" lon="8.8830947"><ele>40.0</ele><time>2026-05-01T12:35:45.221Z</time></trkpt><trkpt lat="38.9245214" lon="8.8830853"><ele>39.0</ele><time>2026-05-01T12:35:46.221Z</time></trkpt><trkpt lat="38.9243464" lon="8.8830932"><ele>38.0</ele><time>2026-05-01T12:35:47.221Z</time></trkpt><trkpt lat="38.9241722" lon="8.8831194"><ele>37.0</ele><time>2026-05-01T12:35:48.221Z</time></trkpt><trkpt lat="38.923998" lon="8.8831683"><ele>36.0</ele><time>2026-05-01T12:35:49.221Z</time></trkpt><trkpt lat="38.9238275" lon="8.8832466"><ele>36.0</ele><time>2026-05-01T12:35:50.221Z</time></trkpt><trkpt lat="38.9236694" lon="8.8833373"><ele>36.0</ele><time>2026-05-01T12:35:51.22Z</time></trkpt><trkpt lat="38.92353" lon="8.8834492"><ele>36.0</ele><time>2026-05-01T12:35:52.22Z</time></trkpt><trkpt lat="38.9234211" lon="8.8835907"><ele>33.666666666666664</ele><time>2026-05-01T12:35:53.221Z</time></trkpt><trkpt lat="38.9233287" lon="8.8837636"><ele>31.333333333333332</ele><time>2026-05-01T12:35:54.221Z</time></trkpt><trkpt lat="38.9232418" lon="8.8839767"><ele>29.0</ele><time>2026-05-01T12:35:55.22Z</time></trkpt><trkpt lat="38.9231509" lon="8.8841961"><ele>29.666666666666664</ele><time>2026-05-01T12:35:56.221Z</time></trkpt><trkpt lat="38.9230606" lon="8.8844357"><ele>30.333333333333336</ele><time>2026-05-01T12:35:57.221Z</time></trkpt><trkpt lat="38.9229723" lon="8.8846759"><ele>31.0</ele><time>2026-05-01T12:35:58.221Z</time></trkpt><trkpt lat="38.9228853" lon="8.8849297"><ele>36.0</ele><time>2026-05-01T12:35:59.222Z</time></trkpt><trkpt lat="38.9227903" lon="8.8851722"><ele>41.0</ele><time>2026-05-01T12:36:00.222Z</time></trkpt><trkpt lat="38.9227002" lon="8.8854116"><ele>46.0</ele><time>2026-05-01T12:36:01.221Z</time></trkpt><trkpt lat="38.9226061" lon="8.8856532"><ele>44.66666666666667</ele><time>2026-05-01T12:36:02.222Z</time></trkpt><trkpt lat="38.9225125" lon="8.8858984"><ele>43.333333333333336</ele><time>2026-05-01T12:36:03.221Z</time></trkpt><trkpt lat="38.9224257" lon="8.8861305"><ele>42.0</ele><time>2026-05-01T12:36:04.22Z</time></trkpt><trkpt lat="38.9223425" lon="8.8863375"><ele>42.0</ele><time>2026-05-01T12:36:05.221Z</time></trkpt><trkpt lat="38.9222526" lon="8.8865066"><ele>42.0</ele><time>2026-05-01T12:36:06.222Z</time></trkpt><trkpt lat="38.922145" lon="8.8866551"><ele>42.0</ele><time>2026-05-01T12:36:07.222Z</time></trkpt><trkpt lat="38.9220304" lon="8.8867813"><ele>46.75</ele><time>2026-05-01T12:36:08.22Z</time></trkpt><trkpt lat="38.9219325" lon="8.8869023"><ele>51.5</ele><time>2026-05-01T12:36:09.222Z</time></trkpt><trkpt lat="38.9218639" lon="8.8870474"><ele>56.25</ele><time>2026-05-01T12:36:10.222Z</time></trkpt><trkpt lat="38.9218237" lon="8.8872167"><ele>61.0</ele><time>2026-05-01T12:36:11.222Z</time></trkpt><trkpt lat="38.921821" lon="8.8874044"><ele>61.666666666666664</ele><time>2026-05-01T12:36:12.222Z</time></trkpt><trkpt lat="38.9218276" lon="8.8876137"><ele>62.33333333333333</ele><time>2026-05-01T12:36:13.222Z</time></trkpt><trkpt lat="38.9218445" lon="8.8878388"><ele>63.0</ele><time>2026-05-01T12:36:14.221Z</time></trkpt><trkpt lat="38.9218364" lon="8.8880497"><ele>63.0</ele><time>2026-05-01T12:36:15.221Z</time></trkpt><trkpt lat="38.9218264" lon="8.8882589"><ele>63.0</ele><time>2026-05-01T12:36:16.22Z</time></trkpt><trkpt lat="38.9218258" lon="8.8884587"><ele>63.0</ele><time>2026-05-01T12:36:17.221Z</time></trkpt><trkpt lat="38.9218437" lon="8.8886455"><ele>62.0</ele><time>2026-05-01T12:36:18.221Z</time></trkpt><trkpt lat="38.9218751" lon="8.8888345"><ele>61.0</ele><time>2026-05-01T12:36:19.221Z</time></trkpt><trkpt lat="38.9219058" lon="8.8890275"><ele>60.0</ele><time>2026-05-01T12:36:20.222Z</time></trkpt><trkpt lat="38.9219195" lon="8.889208"><ele>59.0</ele><time>2026-05-01T12:36:21.222Z</time></trkpt><trkpt lat="38.9219096" lon="8.8893825"><ele>61.5</ele><time>2026-05-01T12:36:22.222Z</time></trkpt><trkpt lat="38.9218689" lon="8.8895445"><ele>64.0</ele><time>2026-05-01T12:36:23.222Z</time></trkpt><trkpt lat="38.921813" lon="8.8897013"><ele>66.5</ele><time>2026-05-01T12:36:24.221Z</time></trkpt><trkpt lat="38.9217301" lon="8.8898416"><ele>69.0</ele><time>2026-05-01T12:36:25.222Z</time></trkpt><trkpt lat="38.9216287" lon="8.8899556"><ele>63.5</ele><time>2026-05-01T12:36:26.222Z</time></trkpt><trkpt lat="38.9215099" lon="8.8900416"><ele>58.0</ele><time>2026-05-01T12:36:27.222Z</time></trkpt><trkpt lat="38.9213821" lon="8.8901087"><ele>52.5</ele><time>2026-05-01T12:36:28.221Z</time></trkpt><trkpt lat="38.9212497" lon="8.8901757"><ele>47.0</ele><time>2026-05-01T12:36:29.221Z</time></trkpt><trkpt lat="38.9211299" lon="8.8902448"><ele>47.0</ele><time>2026-05-01T12:36:30.222Z</time></trkpt><trkpt lat="38.9210307" lon="8.890335"><ele>47.0</ele><time>2026-05-01T12:36:31.221Z</time></trkpt><trkpt lat="38.920967" lon="8.8904408"><ele>47.0</ele><time>2026-05-01T12:36:32.221Z</time></trkpt><trkpt lat="38.920922" lon="8.8905622"><ele>47.0</ele><time>2026-05-01T12:36:33.221Z</time></trkpt><trkpt lat="38.9209398" lon="8.8907142"><ele>47.0</ele><time>2026-05-01T12:36:34.221Z</time></trkpt><trkpt lat="38.9209754" lon="8.8908698"><ele>47.0</ele><time>2026-05-01T12:36:35.221Z</time></trkpt><trkpt lat="38.9210256" lon="8.8910232"><ele>47.0</ele><time>2026-05-01T12:36:36.222Z</time></trkpt><trkpt lat="38.9210981" lon="8.8911711"><ele>47.0</ele><time>2026-05-01T12:36:37.22Z</time></trkpt><trkpt lat="38.9211895" lon="8.8913147"><ele>43.5</ele><time>2026-05-01T12:36:38.221Z</time></trkpt><trkpt lat="38.9212817" lon="8.8914535"><ele>40.0</ele><time>2026-05-01T12:36:39.222Z</time></trkpt><trkpt lat="38.9213671" lon="8.8915801"><ele>36.5</ele><time>2026-05-01T12:36:40.221Z</time></trkpt><trkpt lat="38.9214446" lon="8.8916896"><ele>33.0</ele><time>2026-05-01T12:36:41.221Z</time></trkpt><trkpt lat="38.9215091" lon="8.8917761"><ele>31.5</ele><time>2026-05-01T12:36:42.221Z</time></trkpt><trkpt lat="38.9215515" lon="8.8918377"><ele>30.0</ele><time>2026-05-01T12:36:43.222Z</time></trkpt><trkpt lat="38.9216011" lon="8.8919001"><ele>28.5</ele><time>2026-05-01T12:36:45.222Z</time></trkpt><trkpt lat="38.9216707" lon="8.8919725"><ele>27.0</ele><time>2026-05-01T12:37:37.221Z</time></trkpt><trkpt lat="38.9217335" lon="8.8920426"><ele>25.5</ele><time>2026-05-01T12:37:38.221Z</time></trkpt><trkpt lat="38.9217982" lon="8.8921078"><ele>24.0</ele><time>2026-05-01T12:37:39.222Z</time></trkpt><trkpt lat="38.9218759" lon="8.8921825"><ele>24.0</ele><time>2026-05-01T12:37:40.221Z</time></trkpt><trkpt lat="38.9219593" lon="8.8922621"><ele>24.0</ele><time>2026-05-01T12:37:41.221Z</time></trkpt><trkpt lat="38.922048" lon="8.8923503"><ele>24.0</ele><time>2026-05-01T12:37:42.222Z</time></trkpt><trkpt lat="38.9221435" lon="8.8924486"><ele>24.0</ele><time>2026-05-01T12:37:43.221Z</time></trkpt><trkpt lat="38.922254" lon="8.8925549"><ele>23.666666666666668</ele><time>2026-05-01T12:37:44.222Z</time></trkpt><trkpt lat="38.9223704" lon="8.8926721"><ele>23.333333333333336</ele><time>2026-05-01T12:37:45.222Z</time></trkpt><trkpt lat="38.922502" lon="8.892788"><ele>23.0</ele><time>2026-05-01T12:37:46.222Z</time></trkpt><trkpt lat="38.922633" lon="8.8929156"><ele>23.0</ele><time>2026-05-01T12:37:47.221Z</time></trkpt><trkpt lat="38.9227671" lon="8.893042"><ele>23.0</ele><time>2026-05-01T12:37:48.222Z</time></trkpt><trkpt lat="38.9229187" lon="8.8931657"><ele>23.0</ele><time>2026-05-01T12:37:49.221Z</time></trkpt><trkpt lat="38.9230689" lon="8.8932879"><ele>23.0</ele><time>2026-05-01T12:37:50.222Z</time></trkpt><trkpt lat="38.9232261" lon="8.8934094"><ele>23.0</ele><time>2026-05-01T12:37:51.222Z</time></trkpt><trkpt lat="38.9233783" lon="8.8935106"><ele>23.0</ele><time>2026-05-01T12:37:52.197Z</time></trkpt><trkpt lat="38.9235428" lon="8.8936134"><ele>23.666666666666668</ele><time>2026-05-01T12:37:53.191Z</time></trkpt><trkpt lat="38.9237065" lon="8.8937129"><ele>24.333333333333336</ele><time>2026-05-01T12:37:54.193Z</time></trkpt><trkpt lat="38.9238931" lon="8.8938257"><ele>25.0</ele><time>2026-05-01T12:37:55.221Z</time></trkpt><trkpt lat="38.9240701" lon="8.89393"><ele>25.666666666666668</ele><time>2026-05-01T12:37:56.222Z</time></trkpt><trkpt lat="38.9242399" lon="8.8940336"><ele>26.333333333333336</ele><time>2026-05-01T12:37:57.222Z</time></trkpt><trkpt lat="38.9243988" lon="8.8941252"><ele>27.0</ele><time>2026-05-01T12:37:58.221Z</time></trkpt><trkpt lat="38.9245571" lon="8.8942269"><ele>32.333333333333336</ele><time>2026-05-01T12:37:59.222Z</time></trkpt><trkpt lat="38.9247094" lon="8.8943235"><ele>37.66666666666667</ele><time>2026-05-01T12:38:00.222Z</time></trkpt><trkpt lat="38.9248689" lon="8.8944431"><ele>43.0</ele><time>2026-05-01T12:38:01.221Z</time></trkpt><trkpt lat="38.9250203" lon="8.8945742"><ele>39.0</ele><time>2026-05-01T12:38:02.221Z</time></trkpt><trkpt lat="38.9251663" lon="8.8947131"><ele>35.0</ele><time>2026-05-01T12:38:03.197Z</time></trkpt><trkpt lat="38.9253132" lon="8.8948617"><ele>31.0</ele><time>2026-05-01T12:38:04.192Z</time></trkpt><trkpt lat="38.9254449" lon="8.8950186"><ele>36.333333333333336</ele><time>2026-05-01T12:38:05.196Z</time></trkpt><trkpt lat="38.9255659" lon="8.8951941"><ele>41.666666666666664</ele><time>2026-05-01T12:38:06.196Z</time></trkpt><trkpt lat="38.9256645" lon="8.8953783"><ele>47.0</ele><time>2026-05-01T12:38:07.194Z</time></trkpt><trkpt lat="38.9257522" lon="8.8955893"><ele>47.0</ele><time>2026-05-01T12:38:08.191Z</time></trkpt><trkpt lat="38.92583" lon="8.895823"><ele>47.0</ele><time>2026-05-01T12:38:09.19Z</time></trkpt><trkpt lat="38.925895" lon="8.8960575"><ele>47.0</ele><time>2026-05-01T12:38:10.19Z</time></trkpt><trkpt lat="38.9259542" lon="8.8963072"><ele>45.0</ele><time>2026-05-01T12:38:11.191Z</time></trkpt><trkpt lat="38.9259953" lon="8.8965674"><ele>43.0</ele><time>2026-05-01T12:38:12.19Z</time></trkpt><trkpt lat="38.9260236" lon="8.8968244"><ele>41.0</ele><time>2026-05-01T12:38:13.191Z</time></trkpt><trkpt lat="38.92603" lon="8.8970686"><ele>40.666666666666664</ele><time>2026-05-01T12:38:14.19Z</time></trkpt><trkpt lat="38.9260226" lon="8.8973192"><ele>40.333333333333336</ele><time>2026-05-01T12:38:15.191Z</time></trkpt><trkpt lat="38.9260009" lon="8.8975577"><ele>40.0</ele><time>2026-05-01T12:38:16.19Z</time></trkpt><trkpt lat="38.9259767" lon="8.8977968"><ele>42.333333333333336</ele><time>2026-05-01T12:38:17.191Z</time></trkpt><trkpt lat="38.9259276" lon="8.8980058"><ele>44.666666666666664</ele><time>2026-05-01T12:38:18.191Z</time></trkpt><trkpt lat="38.9258334" lon="8.8982127"><ele>47.0</ele><time>2026-05-01T12:38:19.191Z</time></trkpt><trkpt lat="38.9257401" lon="8.8984253"><ele>49.0</ele><time>2026-05-01T12:38:20.191Z</time></trkpt><trkpt lat="38.9256417" lon="8.8986311"><ele>51.0</ele><time>2026-05-01T12:38:21.191Z</time></trkpt><trkpt lat="38.9255308" lon="8.898833"><ele>53.0</ele><time>2026-05-01T12:38:22.19Z</time></trkpt><trkpt lat="38.9254054" lon="8.8990483"><ele>56.66666666666667</ele><time>2026-05-01T12:38:23.191Z</time></trkpt><trkpt lat="38.92527" lon="8.8992685"><ele>60.33333333333333</ele><time>2026-05-01T12:38:24.191Z</time></trkpt><trkpt lat="38.9251746" lon="8.8994752"><ele>64.0</ele><time>2026-05-01T12:38:25.221Z</time></trkpt><trkpt lat="38.9250524" lon="8.8996867"><ele>65.0</ele><time>2026-05-01T12:38:26.221Z</time></trkpt><trkpt lat="38.9249324" lon="8.899901"><ele>66.0</ele><time>2026-05-01T12:38:27.22Z</time></trkpt><trkpt lat="38.9248133" lon="8.9001126"><ele>67.0</ele><time>2026-05-01T12:38:28.221Z</time></trkpt><trkpt lat="38.9246973" lon="8.9003343"><ele>68.66666666666666</ele><time>2026-05-01T12:38:29.222Z</time></trkpt><trkpt lat="38.9245877" lon="8.9005626"><ele>70.33333333333333</ele><time>2026-05-01T12:38:30.221Z</time></trkpt><trkpt lat="38.9244929" lon="8.9008014"><ele>72.0</ele><time>2026-05-01T12:38:31.221Z</time></trkpt><trkpt lat="38.9244018" lon="8.9010453"><ele>73.33333333333333</ele><time>2026-05-01T12:38:32.221Z</time></trkpt><trkpt lat="38.9243173" lon="8.9012973"><ele>74.66666666666666</ele><time>2026-05-01T12:38:33.221Z</time></trkpt><trkpt lat="38.9242433" lon="8.9015602"><ele>76.0</ele><time>2026-05-01T12:38:34.222Z</time></trkpt><trkpt lat="38.9241745" lon="8.9018203"><ele>71.5</ele><time>2026-05-01T12:38:35.222Z</time></trkpt><trkpt lat="38.9241124" lon="8.9021007"><ele>67.0</ele><time>2026-05-01T12:38:36.222Z</time></trkpt><trkpt lat="38.9240556" lon="8.9023853"><ele>65.0</ele><time>2026-05-01T12:38:37.217Z</time></trkpt><trkpt lat="38.9239917" lon="8.9026719"><ele>63.0</ele><time>2026-05-01T12:38:38.221Z</time></trkpt><trkpt lat="38.923944" lon="8.9029671"><ele>63.0</ele><time>2026-05-01T12:38:39.222Z</time></trkpt><trkpt lat="38.9238951" lon="8.9032542"><ele>63.0</ele><time>2026-05-01T12:38:40.222Z</time></trkpt><trkpt lat="38.923849" lon="8.9035427"><ele>61.33333333333333</ele><time>2026-05-01T12:38:41.222Z</time></trkpt><trkpt lat="38.9237996" lon="8.9038242"><ele>59.666666666666664</ele><time>2026-05-01T12:38:42.221Z</time></trkpt><trkpt lat="38.9237575" lon="8.9041004"><ele>58.0</ele><time>2026-05-01T12:38:43.221Z</time></trkpt><trkpt lat="38.9237094" lon="8.9043621"><ele>56.666666666666664</ele><time>2026-05-01T12:38:44.221Z</time></trkpt><trkpt lat="38.9236696" lon="8.9046227"><ele>55.33333333333333</ele><time>2026-05-01T12:38:45.221Z</time></trkpt><trkpt lat="38.9236307" lon="8.9048891"><ele>54.0</ele><time>2026-05-01T12:38:46.221Z</time></trkpt><trkpt lat="38.9236109" lon="8.9051568"><ele>51.666666666666664</ele><time>2026-05-01T12:38:47.222Z</time></trkpt><trkpt lat="38.923609" lon="8.9054189"><ele>49.33333333333333</ele><time>2026-05-01T12:38:48.221Z</time></trkpt><trkpt lat="38.9236163" lon="8.9056895"><ele>47.0</ele><time>2026-05-01T12:38:49.221Z</time></trkpt><trkpt lat="38.9236277" lon="8.9059519"><ele>44.666666666666664</ele><time>2026-05-01T12:38:50.221Z</time></trkpt><trkpt lat="38.9236587" lon="8.9062337"><ele>42.333333333333336</ele><time>2026-05-01T12:38:51.22Z</time></trkpt><trkpt lat="38.9236986" lon="8.9065023"><ele>40.0</ele><time>2026-05-01T12:38:52.221Z</time></trkpt><trkpt lat="38.9237596" lon="8.9067694"><ele>39.333333333333336</ele><time>2026-05-01T12:38:53.22Z</time></trkpt><trkpt lat="38.9238323" lon="8.9070327"><ele>38.666666666666664</ele><time>2026-05-01T12:38:54.221Z</time></trkpt><trkpt lat="38.923923" lon="8.9072971"><ele>38.0</ele><time>2026-05-01T12:38:55.221Z</time></trkpt><trkpt lat="38.9240238" lon="8.9075545"><ele>38.666666666666664</ele><time>2026-05-01T12:38:56.222Z</time></trkpt><trkpt lat="38.9241349" lon="8.9077945"><ele>39.333333333333336</ele><time>2026-05-01T12:38:57.221Z</time></trkpt><trkpt lat="38.9242613" lon="8.9080235"><ele>40.0</ele><time>2026-05-01T12:38:58.222Z</time></trkpt><trkpt lat="38.924394" lon="8.9082468"><ele>37.0</ele><time>2026-05-01T12:38:59.222Z</time></trkpt><trkpt lat="38.9245255" lon="8.9084728"><ele>34.0</ele><time>2026-05-01T12:39:00.219Z</time></trkpt><trkpt lat="38.9246667" lon="8.9086906"><ele>31.0</ele><time>2026-05-01T12:39:01.221Z</time></trkpt><trkpt lat="38.9248029" lon="8.9089202"><ele>31.0</ele><time>2026-05-01T12:39:02.221Z</time></trkpt><trkpt lat="38.9249407" lon="8.9091539"><ele>31.0</ele><time>2026-05-01T12:39:03.22Z</time></trkpt><trkpt lat="38.9250775" lon="8.9093815"><ele>30.333333333333336</ele><time>2026-05-01T12:39:04.222Z</time></trkpt><trkpt lat="38.9252125" lon="8.9096051"><ele>29.666666666666664</ele><time>2026-05-01T12:39:05.222Z</time></trkpt><trkpt lat="38.9253481" lon="8.9098324"><ele>29.0</ele><time>2026-05-01T12:39:06.221Z</time></trkpt><trkpt lat="38.925484" lon="8.910064"><ele>28.0</ele><time>2026-05-01T12:39:07.221Z</time></trkpt><trkpt lat="38.9256184" lon="8.9102869"><ele>27.0</ele><time>2026-05-01T12:39:08.222Z</time></trkpt><trkpt lat="38.9257595" lon="8.9105132"><ele>26.0</ele><time>2026-05-01T12:39:09.218Z</time></trkpt><trkpt lat="38.9259019" lon="8.9107468"><ele>23.0</ele><time>2026-05-01T12:39:10.222Z</time></trkpt><trkpt lat="38.9260469" lon="8.9109726"><ele>20.0</ele><time>2026-05-01T12:39:11.222Z</time></trkpt><trkpt lat="38.9261859" lon="8.911209"><ele>20.0</ele><time>2026-05-01T12:39:12.22Z</time></trkpt><trkpt lat="38.9263223" lon="8.9114431"><ele>20.0</ele><time>2026-05-01T12:39:13.222Z</time></trkpt><trkpt lat="38.9264576" lon="8.9116755"><ele>20.666666666666668</ele><time>2026-05-01T12:39:14.219Z</time></trkpt><trkpt lat="38.9265893" lon="8.911903"><ele>21.333333333333332</ele><time>2026-05-01T12:39:15.222Z</time></trkpt><trkpt lat="38.926718" lon="8.9121232"><ele>22.0</ele><time>2026-05-01T12:39:16.222Z</time></trkpt><trkpt lat="38.9268472" lon="8.912346"><ele>22.0</ele><time>2026-05-01T12:39:17.22Z</time></trkpt><trkpt lat="38.9269758" lon="8.9125656"><ele>22.0</ele><time>2026-05-01T12:39:18.222Z</time></trkpt><trkpt lat="38.9271022" lon="8.9127875"><ele>22.0</ele><time>2026-05-01T12:39:19.22Z</time></trkpt><trkpt lat="38.927228" lon="8.9130138"><ele>21.333333333333332</ele><time>2026-05-01T12:39:20.222Z</time></trkpt><trkpt lat="38.9273434" lon="8.9132485"><ele>20.666666666666668</ele><time>2026-05-01T12:39:21.221Z</time></trkpt><trkpt lat="38.9274525" lon="8.9134853"><ele>20.0</ele><time>2026-05-01T12:39:22.222Z</time></trkpt><trkpt lat="38.9275603" lon="8.913728"><ele>21.0</ele><time>2026-05-01T12:39:23.222Z</time></trkpt><trkpt lat="38.9276656" lon="8.9139734"><ele>22.0</ele><time>2026-05-01T12:39:24.221Z</time></trkpt><trkpt lat="38.9277724" lon="8.914222"><ele>23.0</ele><time>2026-05-01T12:39:25.221Z</time></trkpt><trkpt lat="38.9278782" lon="8.9144708"><ele>23.0</ele><time>2026-05-01T12:39:26.222Z</time></trkpt><trkpt lat="38.9279835" lon="8.914718"><ele>23.0</ele><time>2026-05-01T12:39:27.222Z</time></trkpt><trkpt lat="38.9280891" lon="8.9149631"><ele>23.0</ele><time>2026-05-01T12:39:28.221Z</time></trkpt><trkpt lat="38.9281948" lon="8.915206"><ele>22.666666666666668</ele><time>2026-05-01T12:39:29.222Z</time></trkpt><trkpt lat="38.9283005" lon="8.9154504"><ele>22.333333333333332</ele><time>2026-05-01T12:39:30.221Z</time></trkpt><trkpt lat="38.9284033" lon="8.9156955"><ele>22.0</ele><time>2026-05-01T12:39:31.222Z</time></trkpt><trkpt lat="38.9285087" lon="8.9159434"><ele>22.666666666666664</ele><time>2026-05-01T12:39:32.22Z</time></trkpt><trkpt lat="38.9286152" lon="8.916196"><ele>23.333333333333332</ele><time>2026-05-01T12:39:33.221Z</time></trkpt><trkpt lat="38.9287227" lon="8.9164503"><ele>24.0</ele><time>2026-05-01T12:39:34.222Z</time></trkpt><trkpt lat="38.928829" lon="8.9167035"><ele>23.666666666666668</ele><time>2026-05-01T12:39:35.221Z</time></trkpt><trkpt lat="38.9289324" lon="8.9169529"><ele>23.333333333333336</ele><time>2026-05-01T12:39:36.221Z</time></trkpt><trkpt lat="38.9290348" lon="8.9172017"><ele>23.0</ele><time>2026-05-01T12:39:37.221Z</time></trkpt><trkpt lat="38.929138" lon="8.9174489"><ele>21.666666666666668</ele><time>2026-05-01T12:39:38.222Z</time></trkpt><trkpt lat="38.9292395" lon="8.9176965"><ele>20.333333333333332</ele><time>2026-05-01T12:39:39.222Z</time></trkpt><trkpt lat="38.929342" lon="8.9179464"><ele>19.0</ele><time>2026-05-01T12:39:40.221Z</time></trkpt><trkpt lat="38.929445" lon="8.9181935"><ele>18.333333333333332</ele><time>2026-05-01T12:39:41.221Z</time></trkpt><trkpt lat="38.9295454" lon="8.9184365"><ele>17.666666666666668</ele><time>2026-05-01T12:39:42.219Z</time></trkpt><trkpt lat="38.9296436" lon="8.9186643"><ele>17.0</ele><time>2026-05-01T12:39:43.219Z</time></trkpt><trkpt lat="38.9297514" lon="8.9188852"><ele>17.0</ele><time>2026-05-01T12:39:44.22Z</time></trkpt><trkpt lat="38.9298674" lon="8.9190912"><ele>17.0</ele><time>2026-05-01T12:39:45.221Z</time></trkpt><trkpt lat="38.9299961" lon="8.9192826"><ele>17.0</ele><time>2026-05-01T12:39:46.222Z</time></trkpt><trkpt lat="38.9301374" lon="8.9194636"><ele>18.0</ele><time>2026-05-01T12:39:47.217Z</time></trkpt><trkpt lat="38.9302822" lon="8.9196366"><ele>19.0</ele><time>2026-05-01T12:39:48.221Z</time></trkpt><trkpt lat="38.9304308" lon="8.9198024"><ele>20.0</ele><time>2026-05-01T12:39:49.221Z</time></trkpt><trkpt lat="38.9305818" lon="8.919966"><ele>21.0</ele><time>2026-05-01T12:39:50.221Z</time></trkpt><trkpt lat="38.9307299" lon="8.9201298"><ele>22.0</ele><time>2026-05-01T12:39:51.22Z</time></trkpt><trkpt lat="38.9308777" lon="8.9202941"><ele>23.0</ele><time>2026-05-01T12:39:52.221Z</time></trkpt><trkpt lat="38.9310226" lon="8.9204576"><ele>23.666666666666668</ele><time>2026-05-01T12:39:53.221Z</time></trkpt><trkpt lat="38.9311654" lon="8.9206203"><ele>24.333333333333336</ele><time>2026-05-01T12:39:54.221Z</time></trkpt><trkpt lat="38.9313064" lon="8.9207829"><ele>25.0</ele><time>2026-05-01T12:39:55.221Z</time></trkpt><trkpt lat="38.9314447" lon="8.9209495"><ele>25.333333333333336</ele><time>2026-05-01T12:39:56.222Z</time></trkpt><trkpt lat="38.9315737" lon="8.9211248"><ele>25.666666666666664</ele><time>2026-05-01T12:39:57.221Z</time></trkpt><trkpt lat="38.9316944" lon="8.9213081"><ele>26.0</ele><time>2026-05-01T12:39:58.222Z</time></trkpt><trkpt lat="38.9318071" lon="8.9214982"><ele>26.0</ele><time>2026-05-01T12:39:59.221Z</time></trkpt><trkpt lat="38.9319137" lon="8.9216934"><ele>26.0</ele><time>2026-05-01T12:40:00.221Z</time></trkpt><trkpt lat="38.9320143" lon="8.9218924"><ele>26.0</ele><time>2026-05-01T12:40:01.222Z</time></trkpt><trkpt lat="38.932112" lon="8.9220954"><ele>26.0</ele><time>2026-05-01T12:40:02.221Z</time></trkpt><trkpt lat="38.9322077" lon="8.922301"><ele>26.0</ele><time>2026-05-01T12:40:03.222Z</time></trkpt><trkpt lat="38.9323055" lon="8.9225067"><ele>26.0</ele><time>2026-05-01T12:40:04.222Z</time></trkpt><trkpt lat="38.9324045" lon="8.9227149"><ele>26.0</ele><time>2026-05-01T12:40:05.221Z</time></trkpt><trkpt lat="38.9325039" lon="8.9229276"><ele>26.0</ele><time>2026-05-01T12:40:06.22Z</time></trkpt><trkpt lat="38.9326026" lon="8.9231393"><ele>26.0</ele><time>2026-05-01T12:40:07.221Z</time></trkpt><trkpt lat="38.9327039" lon="8.9233527"><ele>27.333333333333332</ele><time>2026-05-01T12:40:08.222Z</time></trkpt><trkpt lat="38.9328011" lon="8.9235668"><ele>28.666666666666664</ele><time>2026-05-01T12:40:09.22Z</time></trkpt><trkpt lat="38.9328977" lon="8.9237773"><ele>30.0</ele><time>2026-05-01T12:40:10.222Z</time></trkpt><trkpt lat="38.9329945" lon="8.9239873"><ele>30.0</ele><time>2026-05-01T12:40:11.221Z</time></trkpt><trkpt lat="38.9330921" lon="8.9241985"><ele>30.0</ele><time>2026-05-01T12:40:12.221Z</time></trkpt><trkpt lat="38.933192" lon="8.9244102"><ele>30.0</ele><time>2026-05-01T12:40:13.221Z</time></trkpt><trkpt lat="38.9332922" lon="8.9246197"><ele>30.0</ele><time>2026-05-01T12:40:14.222Z</time></trkpt><trkpt lat="38.9333883" lon="8.9248084"><ele>30.0</ele><time>2026-05-01T12:40:15.222Z</time></trkpt><trkpt lat="38.9334837" lon="8.9249785"><ele>30.0</ele><time>2026-05-01T12:40:16.222Z</time></trkpt><trkpt lat="38.9335793" lon="8.92514"><ele>29.333333333333336</ele><time>2026-05-01T12:40:17.222Z</time></trkpt><trkpt lat="38.9336853" lon="8.9252978"><ele>28.666666666666668</ele><time>2026-05-01T12:40:18.221Z</time></trkpt><trkpt lat="38.9337895" lon="8.9254546"><ele>28.0</ele><time>2026-05-01T12:40:19.221Z</time></trkpt><trkpt lat="38.9338997" lon="8.9256057"><ele>28.0</ele><time>2026-05-01T12:40:20.22Z</time></trkpt><trkpt lat="38.9340132" lon="8.9257575"><ele>28.0</ele><time>2026-05-01T12:40:21.221Z</time></trkpt><trkpt lat="38.9341264" lon="8.9259092"><ele>28.0</ele><time>2026-05-01T12:40:22.22Z</time></trkpt><trkpt lat="38.9342412" lon="8.9260672"><ele>27.0</ele><time>2026-05-01T12:40:23.221Z</time></trkpt><trkpt lat="38.9343629" lon="8.9262272"><ele>26.0</ele><time>2026-05-01T12:40:24.221Z</time></trkpt><trkpt lat="38.9344888" lon="8.9263902"><ele>25.0</ele><time>2026-05-01T12:40:25.222Z</time></trkpt><trkpt lat="38.9346151" lon="8.9265538"><ele>25.0</ele><time>2026-05-01T12:40:26.22Z</time></trkpt><trkpt lat="38.9347449" lon="8.9267239"><ele>25.0</ele><time>2026-05-01T12:40:27.221Z</time></trkpt><trkpt lat="38.934876" lon="8.9268958"><ele>25.0</ele><time>2026-05-01T12:40:28.221Z</time></trkpt><trkpt lat="38.9350083" lon="8.9270712"><ele>25.0</ele><time>2026-05-01T12:40:29.221Z</time></trkpt><trkpt lat="38.9351427" lon="8.9272509"><ele>25.0</ele><time>2026-05-01T12:40:30.221Z</time></trkpt><trkpt lat="38.9352752" lon="8.9274288"><ele>25.0</ele><time>2026-05-01T12:40:31.222Z</time></trkpt><trkpt lat="38.9354092" lon="8.9276103"><ele>25.0</ele><time>2026-05-01T12:40:32.22Z</time></trkpt><trkpt lat="38.9355415" lon="8.9277883"><ele>25.0</ele><time>2026-05-01T12:40:33.221Z</time></trkpt><trkpt lat="38.9356661" lon="8.9279591"><ele>25.0</ele><time>2026-05-01T12:40:34.219Z</time></trkpt><trkpt lat="38.935793" lon="8.928135"><ele>24.0</ele><time>2026-05-01T12:40:35.221Z</time></trkpt><trkpt lat="38.9359229" lon="8.9283104"><ele>23.0</ele><time>2026-05-01T12:40:36.221Z</time></trkpt><trkpt lat="38.9360509" lon="8.928486"><ele>22.0</ele><time>2026-05-01T12:40:37.222Z</time></trkpt><trkpt lat="38.93618" lon="8.9286604"><ele>22.0</ele><time>2026-05-01T12:40:38.222Z</time></trkpt><trkpt lat="38.9363085" lon="8.9288332"><ele>22.0</ele><time>2026-05-01T12:40:39.222Z</time></trkpt><trkpt lat="38.9364364" lon="8.9290094"><ele>22.0</ele><time>2026-05-01T12:40:40.221Z</time></trkpt><trkpt lat="38.9365634" lon="8.9291795"><ele>21.666666666666664</ele><time>2026-05-01T12:40:41.22Z</time></trkpt><trkpt lat="38.9366873" lon="8.9293502"><ele>21.333333333333332</ele><time>2026-05-01T12:40:42.221Z</time></trkpt><trkpt lat="38.9368158" lon="8.9295182"><ele>21.0</ele><time>2026-05-01T12:40:43.221Z</time></trkpt><trkpt lat="38.9369423" lon="8.929685"><ele>21.0</ele><time>2026-05-01T12:40:44.222Z</time></trkpt><trkpt lat="38.9370693" lon="8.9298488"><ele>21.0</ele><time>2026-05-01T12:40:45.22Z</time></trkpt><trkpt lat="38.9371921" lon="8.9300147"><ele>21.0</ele><time>2026-05-01T12:40:46.221Z</time></trkpt><trkpt lat="38.9373155" lon="8.930182"><ele>20.666666666666668</ele><time>2026-05-01T12:40:47.221Z</time></trkpt><trkpt lat="38.9374376" lon="8.9303505"><ele>20.333333333333336</ele><time>2026-05-01T12:40:48.222Z</time></trkpt><trkpt lat="38.9375626" lon="8.9305145"><ele>20.0</ele><time>2026-05-01T12:40:49.222Z</time></trkpt><trkpt lat="38.9376857" lon="8.930676"><ele>22.0</ele><time>2026-05-01T12:40:50.222Z</time></trkpt><trkpt lat="38.9378102" lon="8.9308362"><ele>24.0</ele><time>2026-05-01T12:40:51.22Z</time></trkpt><trkpt lat="38.9379329" lon="8.9309991"><ele>26.0</ele><time>2026-05-01T12:40:52.221Z</time></trkpt><trkpt lat="38.9380547" lon="8.931164"><ele>26.666666666666664</ele><time>2026-05-01T12:40:53.222Z</time></trkpt><trkpt lat="38.9381798" lon="8.9313295"><ele>27.333333333333336</ele><time>2026-05-01T12:40:54.221Z</time></trkpt><trkpt lat="38.9383049" lon="8.9314927"><ele>28.0</ele><time>2026-05-01T12:40:55.221Z</time></trkpt><trkpt lat="38.9384341" lon="8.931653"><ele>28.0</ele><time>2026-05-01T12:40:56.221Z</time></trkpt><trkpt lat="38.938566" lon="8.9318086"><ele>28.0</ele><time>2026-05-01T12:40:57.222Z</time></trkpt><trkpt lat="38.9387037" lon="8.9319591"><ele>28.0</ele><time>2026-05-01T12:40:58.221Z</time></trkpt><trkpt lat="38.9388458" lon="8.9321017"><ele>28.0</ele><time>2026-05-01T12:40:59.221Z</time></trkpt><trkpt lat="38.9389937" lon="8.9322385"><ele>28.0</ele><time>2026-05-01T12:41:00.221Z</time></trkpt><trkpt lat="38.9391429" lon="8.9323714"><ele>28.0</ele><time>2026-05-01T12:41:01.222Z</time></trkpt><trkpt lat="38.9392944" lon="8.9325047"><ele>26.333333333333336</ele><time>2026-05-01T12:41:02.222Z</time></trkpt><trkpt lat="38.939452" lon="8.9326367"><ele>24.666666666666668</ele><time>2026-05-01T12:41:03.221Z</time></trkpt><trkpt lat="38.9396086" lon="8.9327765"><ele>23.0</ele><time>2026-05-01T12:41:04.22Z</time></trkpt><trkpt lat="38.9397689" lon="8.9329162"><ele>23.0</ele><time>2026-05-01T12:41:05.221Z</time></trkpt><trkpt lat="38.9399318" lon="8.933058"><ele>23.0</ele><time>2026-05-01T12:41:06.221Z</time></trkpt><trkpt lat="38.9400938" lon="8.9331969"><ele>23.0</ele><time>2026-05-01T12:41:07.222Z</time></trkpt><trkpt lat="38.9402516" lon="8.9333361"><ele>23.666666666666668</ele><time>2026-05-01T12:41:08.22Z</time></trkpt><trkpt lat="38.9404003" lon="8.9334817"><ele>24.333333333333336</ele><time>2026-05-01T12:41:09.22Z</time></trkpt><trkpt lat="38.9405402" lon="8.9336333"><ele>25.0</ele><time>2026-05-01T12:41:10.222Z</time></trkpt><trkpt lat="38.9406758" lon="8.9337925"><ele>25.0</ele><time>2026-05-01T12:41:11.221Z</time></trkpt><trkpt lat="38.9408083" lon="8.9339573"><ele>25.0</ele><time>2026-05-01T12:41:12.221Z</time></trkpt><trkpt lat="38.9409402" lon="8.9341237"><ele>25.0</ele><time>2026-05-01T12:41:13.221Z</time></trkpt><trkpt lat="38.9410734" lon="8.93429"><ele>26.666666666666668</ele><time>2026-05-01T12:41:14.22Z</time></trkpt><trkpt lat="38.9412082" lon="8.9344563"><ele>28.333333333333336</ele><time>2026-05-01T12:41:15.222Z</time></trkpt><trkpt lat="38.9413446" lon="8.9346199"><ele>30.0</ele><time>2026-05-01T12:41:16.221Z</time></trkpt><trkpt lat="38.9414838" lon="8.9347803"><ele>30.0</ele><time>2026-05-01T12:41:17.222Z</time></trkpt><trkpt lat="38.9416246" lon="8.9349361"><ele>30.0</ele><time>2026-05-01T12:41:18.222Z</time></trkpt><trkpt lat="38.9417635" lon="8.93509"><ele>30.0</ele><time>2026-05-01T12:41:19.222Z</time></trkpt><trkpt lat="38.9418957" lon="8.9352396"><ele>29.666666666666664</ele><time>2026-05-01T12:41:20.22Z</time></trkpt><trkpt lat="38.9420236" lon="8.9353954"><ele>29.333333333333332</ele><time>2026-05-01T12:41:21.222Z</time></trkpt><trkpt lat="38.9421507" lon="8.9355552"><ele>29.0</ele><time>2026-05-01T12:41:22.222Z</time></trkpt><trkpt lat="38.9422768" lon="8.9357175"><ele>29.0</ele><time>2026-05-01T12:41:23.221Z</time></trkpt><trkpt lat="38.9424043" lon="8.9358795"><ele>29.0</ele><time>2026-05-01T12:41:24.221Z</time></trkpt><trkpt lat="38.9425344" lon="8.9360409"><ele>29.0</ele><time>2026-05-01T12:41:25.221Z</time></trkpt><trkpt lat="38.942665" lon="8.9362041"><ele>29.666666666666664</ele><time>2026-05-01T12:41:26.221Z</time></trkpt><trkpt lat="38.942796" lon="8.9363685"><ele>30.333333333333336</ele><time>2026-05-01T12:41:27.222Z</time></trkpt><trkpt lat="38.9429276" lon="8.9365339"><ele>31.0</ele><time>2026-05-01T12:41:28.221Z</time></trkpt><trkpt lat="38.9430632" lon="8.9366995"><ele>31.666666666666668</ele><time>2026-05-01T12:41:29.221Z</time></trkpt><trkpt lat="38.9431968" lon="8.9368669"><ele>32.333333333333336</ele><time>2026-05-01T12:41:30.221Z</time></trkpt><trkpt lat="38.9433304" lon="8.9370377"><ele>33.0</ele><time>2026-05-01T12:41:31.222Z</time></trkpt><trkpt lat="38.9434625" lon="8.9372069"><ele>33.0</ele><time>2026-05-01T12:41:32.221Z</time></trkpt><trkpt lat="38.9435944" lon="8.9373759"><ele>33.0</ele><time>2026-05-01T12:41:33.218Z</time></trkpt><trkpt lat="38.9437271" lon="8.9375407"><ele>33.0</ele><time>2026-05-01T12:41:34.222Z</time></trkpt><trkpt lat="38.9438572" lon="8.9377035"><ele>33.0</ele><time>2026-05-01T12:41:35.221Z</time></trkpt><trkpt lat="38.9439888" lon="8.9378646"><ele>33.0</ele><time>2026-05-01T12:41:36.221Z</time></trkpt><trkpt lat="38.944118" lon="8.9380263"><ele>33.0</ele><time>2026-05-01T12:41:37.222Z</time></trkpt><trkpt lat="38.9442461" lon="8.9381847"><ele>32.666666666666664</ele><time>2026-05-01T12:41:38.222Z</time></trkpt><trkpt lat="38.9443752" lon="8.9383455"><ele>32.33333333333333</ele><time>2026-05-01T12:41:39.222Z</time></trkpt><trkpt lat="38.9445032" lon="8.9385093"><ele>32.0</ele><time>2026-05-01T12:41:40.221Z</time></trkpt><trkpt lat="38.9446333" lon="8.9386756"><ele>32.0</ele><time>2026-05-01T12:41:41.222Z</time></trkpt><trkpt lat="38.9447636" lon="8.9388415"><ele>32.0</ele><time>2026-05-01T12:41:42.221Z</time></trkpt><trkpt lat="38.9448963" lon="8.9390077"><ele>32.0</ele><time>2026-05-01T12:41:43.222Z</time></trkpt><trkpt lat="38.9450281" lon="8.9391769"><ele>31.333333333333332</ele><time>2026-05-01T12:41:44.221Z</time></trkpt><trkpt lat="38.9451627" lon="8.9393456"><ele>30.666666666666664</ele><time>2026-05-01T12:41:45.221Z</time></trkpt><trkpt lat="38.9452982" lon="8.9395154"><ele>30.0</ele><time>2026-05-01T12:41:46.22Z</time></trkpt><trkpt lat="38.9454317" lon="8.9396843"><ele>30.0</ele><time>2026-05-01T12:41:47.222Z</time></trkpt><trkpt lat="38.9455658" lon="8.9398529"><ele>30.0</ele><time>2026-05-01T12:41:48.221Z</time></trkpt><trkpt lat="38.9457008" lon="8.9400189"><ele>30.0</ele><time>2026-05-01T12:41:49.221Z</time></trkpt><trkpt lat="38.9458344" lon="8.940184"><ele>31.0</ele><time>2026-05-01T12:41:50.22Z</time></trkpt><trkpt lat="38.9459682" lon="8.9403461"><ele>32.0</ele><time>2026-05-01T12:41:51.22Z</time></trkpt><trkpt lat="38.9461034" lon="8.9405032"><ele>33.0</ele><time>2026-05-01T12:41:52.22Z</time></trkpt><trkpt lat="38.9462397" lon="8.9406596"><ele>33.0</ele><time>2026-05-01T12:41:53.22Z</time></trkpt><trkpt lat="38.946378" lon="8.9408117"><ele>33.0</ele><time>2026-05-01T12:41:54.222Z</time></trkpt><trkpt lat="38.946517" lon="8.9409624"><ele>33.0</ele><time>2026-05-01T12:41:55.222Z</time></trkpt><trkpt lat="38.9466556" lon="8.9411144"><ele>32.666666666666664</ele><time>2026-05-01T12:41:56.221Z</time></trkpt><trkpt lat="38.9467953" lon="8.9412672"><ele>32.33333333333333</ele><time>2026-05-01T12:41:57.222Z</time></trkpt><trkpt lat="38.946935" lon="8.941422"><ele>32.0</ele><time>2026-05-01T12:41:58.222Z</time></trkpt><trkpt lat="38.9470763" lon="8.9415768"><ele>32.0</ele><time>2026-05-01T12:41:59.221Z</time></trkpt><trkpt lat="38.9472205" lon="8.941732"><ele>32.0</ele><time>2026-05-01T12:42:00.221Z</time></trkpt><trkpt lat="38.9473649" lon="8.9418873"><ele>32.0</ele><time>2026-05-01T12:42:01.221Z</time></trkpt><trkpt lat="38.9475112" lon="8.9420425"><ele>31.333333333333332</ele><time>2026-05-01T12:42:02.222Z</time></trkpt><trkpt lat="38.9476571" lon="8.942199"><ele>30.666666666666664</ele><time>2026-05-01T12:42:03.219Z</time></trkpt><trkpt lat="38.9478035" lon="8.9423574"><ele>30.0</ele><time>2026-05-01T12:42:04.222Z</time></trkpt><trkpt lat="38.9479489" lon="8.9425178"><ele>30.0</ele><time>2026-05-01T12:42:05.222Z</time></trkpt><trkpt lat="38.9480941" lon="8.9426793"><ele>30.0</ele><time>2026-05-01T12:42:06.219Z</time></trkpt><trkpt lat="38.9482392" lon="8.9428404"><ele>30.0</ele><time>2026-05-01T12:42:07.221Z</time></trkpt><trkpt lat="38.9483811" lon="8.9429992"><ele>30.333333333333336</ele><time>2026-05-01T12:42:08.221Z</time></trkpt><trkpt lat="38.9485214" lon="8.9431551"><ele>30.666666666666668</ele><time>2026-05-01T12:42:09.221Z</time></trkpt><trkpt lat="38.9486594" lon="8.9433072"><ele>31.0</ele><time>2026-05-01T12:42:10.222Z</time></trkpt><trkpt lat="38.9487876" lon="8.9434465"><ele>30.25</ele><time>2026-05-01T12:42:11.222Z</time></trkpt><trkpt lat="38.9489057" lon="8.9435686"><ele>29.5</ele><time>2026-05-01T12:42:12.22Z</time></trkpt><trkpt lat="38.9490042" lon="8.9436781"><ele>28.75</ele><time>2026-05-01T12:42:13.222Z</time></trkpt><trkpt lat="38.9490831" lon="8.9437675"><ele>28.0</ele><time>2026-05-01T12:42:14.222Z</time></trkpt><trkpt lat="38.9491446" lon="8.9438404"><ele>28.0</ele><time>2026-05-01T12:42:15.222Z</time></trkpt><trkpt lat="38.9491558" lon="8.9439516"><ele>27.999999999999996</ele><time>2026-05-01T12:42:17.219Z</time></trkpt><trkpt lat="38.9490963" lon="8.9440264"><ele>27.999999999999996</ele><time>2026-05-01T12:42:19.222Z</time></trkpt><trkpt lat="38.9489637" lon="8.9441017"><ele>28.0</ele><time>2026-05-01T12:42:21.221Z</time></trkpt><trkpt lat="38.9488837" lon="8.9441559"><ele>28.0</ele><time>2026-05-01T12:42:22.219Z</time></trkpt><trkpt lat="38.9487943" lon="8.9442151"><ele>27.5</ele><time>2026-05-01T12:42:23.221Z</time></trkpt><trkpt lat="38.9486999" lon="8.9442773"><ele>27.0</ele><time>2026-05-01T12:42:24.222Z</time></trkpt><trkpt lat="38.9486" lon="8.9443466"><ele>26.5</ele><time>2026-05-01T12:42:25.222Z</time></trkpt><trkpt lat="38.9484926" lon="8.9444195"><ele>26.0</ele><time>2026-05-01T12:42:26.219Z</time></trkpt><trkpt lat="38.948379" lon="8.9444944"><ele>25.5</ele><time>2026-05-01T12:42:27.221Z</time></trkpt><trkpt lat="38.9482629" lon="8.9445687"><ele>25.0</ele><time>2026-05-01T12:42:28.221Z</time></trkpt><trkpt lat="38.9481524" lon="8.9446404"><ele>24.5</ele><time>2026-05-01T12:42:29.221Z</time></trkpt><trkpt lat="38.9480457" lon="8.9447113"><ele>24.0</ele><time>2026-05-01T12:42:30.22Z</time></trkpt><trkpt lat="38.9479422" lon="8.9447798"><ele>24.0</ele><time>2026-05-01T12:42:31.222Z</time></trkpt><trkpt lat="38.9478343" lon="8.9448521"><ele>24.0</ele><time>2026-05-01T12:42:32.22Z</time></trkpt><trkpt lat="38.9477238" lon="8.9449205"><ele>24.0</ele><time>2026-05-01T12:42:33.219Z</time></trkpt><trkpt lat="38.9476113" lon="8.9449963"><ele>24.0</ele><time>2026-05-01T12:42:34.222Z</time></trkpt><trkpt lat="38.9475021" lon="8.9450716"><ele>23.25</ele><time>2026-05-01T12:42:35.221Z</time></trkpt><trkpt lat="38.9473922" lon="8.9451485"><ele>22.5</ele><time>2026-05-01T12:42:36.221Z</time></trkpt><trkpt lat="38.9472809" lon="8.9452285"><ele>21.75</ele><time>2026-05-01T12:42:37.221Z</time></trkpt><trkpt lat="38.9471705" lon="8.9452999"><ele>21.0</ele><time>2026-05-01T12:42:38.219Z</time></trkpt><trkpt lat="38.9470618" lon="8.9453731"><ele>21.0</ele><time>2026-05-01T12:42:39.219Z</time></trkpt><trkpt lat="38.9469595" lon="8.9454413"><ele>21.0</ele><time>2026-05-01T12:42:40.218Z</time></trkpt><trkpt lat="38.946865" lon="8.9455063"><ele>21.0</ele><time>2026-05-01T12:42:41.221Z</time></trkpt><trkpt lat="38.9467778" lon="8.9455662"><ele>21.0</ele><time>2026-05-01T12:42:42.222Z</time></trkpt><trkpt lat="38.9466972" lon="8.9456203"><ele>21.0</ele><time>2026-05-01T12:42:43.22Z</time></trkpt><trkpt lat="38.946627" lon="8.945671"><ele>21.0</ele><time>2026-05-01T12:42:44.22Z</time></trkpt><trkpt lat="38.9465616" lon="8.9457161"><ele>21.0</ele><time>2026-05-01T12:42:45.222Z</time></trkpt><trkpt lat="38.9465024" lon="8.9457576"><ele>21.0</ele><time>2026-05-01T12:42:46.22Z</time></trkpt><trkpt lat="38.9464036" lon="8.9458192"><ele>21.0</ele><time>2026-05-01T12:42:48.221Z</time></trkpt><trkpt lat="38.9463266" lon="8.945865"><ele>21.0</ele><time>2026-05-01T12:42:50.222Z</time></trkpt><trkpt lat="38.9462508" lon="8.9459124"><ele>21.0</ele><time>2026-05-01T12:42:52.221Z</time></trkpt><trkpt lat="38.9461715" lon="8.9459675"><ele>21.0</ele><time>2026-05-01T12:42:54.22Z</time></trkpt><trkpt lat="38.946095" lon="8.946021"><ele>21.0</ele><time>2026-05-01T12:42:56.221Z</time></trkpt><trkpt lat="38.9460143" lon="8.9460746"><ele>21.0</ele><time>2026-05-01T12:42:58.22Z</time></trkpt><trkpt lat="38.9459349" lon="8.9461257"><ele>21.0</ele><time>2026-05-01T12:43:00.222Z</time></trkpt><trkpt lat="38.945855" lon="8.9461808"><ele>21.0</ele><time>2026-05-01T12:43:02.22Z</time></trkpt><trkpt lat="38.9457613" lon="8.9462416"><ele>21.0</ele><time>2026-05-01T12:43:04.22Z</time></trkpt><trkpt lat="38.9456604" lon="8.9463085"><ele>21.0</ele><time>2026-05-01T12:43:06.222Z</time></trkpt><trkpt lat="38.945603" lon="8.9463497"><ele>21.0</ele><time>2026-05-01T12:43:07.222Z</time></trkpt><trkpt lat="38.9455378" lon="8.9463933"><ele>21.0</ele><time>2026-05-01T12:43:08.222Z</time></trkpt><trkpt lat="38.9454716" lon="8.9464343"><ele>21.0</ele><time>2026-05-01T12:43:09.221Z</time></trkpt><trkpt lat="38.9454037" lon="8.9464763"><ele>21.0</ele><time>2026-05-01T12:43:10.221Z</time></trkpt><trkpt lat="38.9453344" lon="8.9465228"><ele>21.0</ele><time>2026-05-01T12:43:11.221Z</time></trkpt><trkpt lat="38.9452632" lon="8.9465674"><ele>21.0</ele><time>2026-05-01T12:43:12.222Z</time></trkpt><trkpt lat="38.9451989" lon="8.9466077"><ele>21.0</ele><time>2026-05-01T12:43:13.222Z</time></trkpt><trkpt lat="38.9451378" lon="8.9466512"><ele>21.0</ele><time>2026-05-01T12:43:14.222Z</time></trkpt><trkpt lat="38.9450829" lon="8.9466935"><ele>21.0</ele><time>2026-05-01T12:43:15.221Z</time></trkpt><trkpt lat="38.9450254" lon="8.9467338"><ele>21.0</ele><time>2026-05-01T12:43:16.22Z</time></trkpt><trkpt lat="38.9449649" lon="8.9467766"><ele>21.0</ele><time>2026-05-01T12:43:17.22Z</time></trkpt><trkpt lat="38.9449039" lon="8.9468116"><ele>20.2</ele><time>2026-05-01T12:43:18.221Z</time></trkpt><trkpt lat="38.9448457" lon="8.9468486"><ele>19.400000000000002</ele><time>2026-05-01T12:43:19.221Z</time></trkpt><trkpt lat="38.9447515" lon="8.9469527"><ele>18.6</ele><time>2026-05-01T12:43:21.218Z</time></trkpt><trkpt lat="38.9447351" lon="8.9471018"><ele>17.8</ele><time>2026-05-01T12:43:23.222Z</time></trkpt><trkpt lat="38.9447882" lon="8.9472407"><ele>17.0</ele><time>2026-05-01T12:43:25.221Z</time></trkpt><trkpt lat="38.9448262" lon="8.9473151"><ele>17.0</ele><time>2026-05-01T12:43:26.221Z</time></trkpt><trkpt lat="38.944866" lon="8.9473975"><ele>17.0</ele><time>2026-05-01T12:43:27.221Z</time></trkpt><trkpt lat="38.944911" lon="8.9474779"><ele>17.0</ele><time>2026-05-01T12:43:28.221Z</time></trkpt><trkpt lat="38.9449621" lon="8.9475623"><ele>17.0</ele><time>2026-05-01T12:43:29.221Z</time></trkpt><trkpt lat="38.9450094" lon="8.9476472"><ele>17.0</ele><time>2026-05-01T12:43:30.221Z</time></trkpt><trkpt lat="38.9450567" lon="8.947737"><ele>17.0</ele><time>2026-05-01T12:43:31.222Z</time></trkpt><trkpt lat="38.9451049" lon="8.947831"><ele>16.666666666666668</ele><time>2026-05-01T12:43:32.222Z</time></trkpt><trkpt lat="38.9451581" lon="8.9479259"><ele>16.333333333333336</ele><time>2026-05-01T12:43:33.222Z</time></trkpt><trkpt lat="38.9452084" lon="8.9480181"><ele>16.0</ele><time>2026-05-01T12:43:34.221Z</time></trkpt><trkpt lat="38.9452552" lon="8.9481052"><ele>15.666666666666668</ele><time>2026-05-01T12:43:35.221Z</time></trkpt><trkpt lat="38.9452963" lon="8.9481918"><ele>15.333333333333334</ele><time>2026-05-01T12:43:36.222Z</time></trkpt><trkpt lat="38.9453389" lon="8.948274"><ele>15.0</ele><time>2026-05-01T12:43:37.221Z</time></trkpt><trkpt lat="38.9453858" lon="8.9483572"><ele>15.2</ele><time>2026-05-01T12:43:38.222Z</time></trkpt><trkpt lat="38.9454341" lon="8.9484473"><ele>15.4</ele><time>2026-05-01T12:43:39.222Z</time></trkpt><trkpt lat="38.9454881" lon="8.948546"><ele>15.600000000000001</ele><time>2026-05-01T12:43:40.221Z</time></trkpt><trkpt lat="38.9455441" lon="8.9486485"><ele>15.8</ele><time>2026-05-01T12:43:41.222Z</time></trkpt><trkpt lat="38.9456028" lon="8.948753"><ele>16.0</ele><time>2026-05-01T12:43:42.221Z</time></trkpt><trkpt lat="38.9456586" lon="8.9488562"><ele>15.999999999999998</ele><time>2026-05-01T12:43:43.221Z</time></trkpt><trkpt lat="38.9457132" lon="8.9489572"><ele>16.0</ele><time>2026-05-01T12:43:44.222Z</time></trkpt><trkpt lat="38.9457585" lon="8.9490499"><ele>16.0</ele><time>2026-05-01T12:43:45.217Z</time></trkpt><trkpt lat="38.9457932" lon="8.9491237"><ele>16.0</ele><time>2026-05-01T12:43:46.222Z</time></trkpt><trkpt lat="38.9458327" lon="8.9491991"><ele>15.999999999999998</ele><time>2026-05-01T12:43:48.22Z</time></trkpt><trkpt lat="38.9459019" lon="8.9493065"><ele>16.0</ele><time>2026-05-01T12:43:54.221Z</time></trkpt><trkpt lat="38.9459473" lon="8.9493752"><ele>15.8</ele><time>2026-05-01T12:43:55.221Z</time></trkpt><trkpt lat="38.9460008" lon="8.9494601"><ele>15.600000000000001</ele><time>2026-05-01T12:43:56.221Z</time></trkpt><trkpt lat="38.9460628" lon="8.9495655"><ele>15.4</ele><time>2026-05-01T12:43:57.222Z</time></trkpt><trkpt lat="38.9461234" lon="8.9496674"><ele>15.2</ele><time>2026-05-01T12:43:58.221Z</time></trkpt><trkpt lat="38.9461852" lon="8.9497697"><ele>15.0</ele><time>2026-05-01T12:43:59.221Z</time></trkpt><trkpt lat="38.9462484" lon="8.9498762"><ele>15.0</ele><time>2026-05-01T12:44:00.222Z</time></trkpt><trkpt lat="38.9463086" lon="8.94998"><ele>15.0</ele><time>2026-05-01T12:44:01.222Z</time></trkpt><trkpt lat="38.9463697" lon="8.9500841"><ele>15.0</ele><time>2026-05-01T12:44:02.222Z</time></trkpt><trkpt lat="38.9464315" lon="8.950187"><ele>15.0</ele><time>2026-05-01T12:44:03.222Z</time></trkpt><trkpt lat="38.946495" lon="8.950294"><ele>15.0</ele><time>2026-05-01T12:44:04.219Z</time></trkpt><trkpt lat="38.9465529" lon="8.9503988"><ele>15.333333333333334</ele><time>2026-05-01T12:44:05.221Z</time></trkpt><trkpt lat="38.9465891" lon="8.9504836"><ele>15.666666666666668</ele><time>2026-05-01T12:44:06.221Z</time></trkpt><trkpt lat="38.9466048" lon="8.9505649"><ele>16.0</ele><time>2026-05-01T12:44:07.222Z</time></trkpt><trkpt lat="38.9465597" lon="8.9506742"><ele>16.333333333333336</ele><time>2026-05-01T12:44:09.219Z</time></trkpt><trkpt lat="38.9465088" lon="8.9507262"><ele>16.666666666666668</ele><time>2026-05-01T12:44:10.221Z</time></trkpt><trkpt lat="38.9464381" lon="8.9507965"><ele>17.0</ele><time>2026-05-01T12:44:11.221Z</time></trkpt><trkpt lat="38.9463537" lon="8.9508737"><ele>17.4</ele><time>2026-05-01T12:44:12.222Z</time></trkpt><trkpt lat="38.9462765" lon="8.9509522"><ele>17.799999999999997</ele><time>2026-05-01T12:44:13.222Z</time></trkpt><trkpt lat="38.9462025" lon="8.9510242"><ele>18.2</ele><time>2026-05-01T12:44:14.222Z</time></trkpt><trkpt lat="38.9461297" lon="8.9510976"><ele>18.599999999999998</ele><time>2026-05-01T12:44:15.222Z</time></trkpt><trkpt lat="38.9460591" lon="8.9511685"><ele>19.0</ele><time>2026-05-01T12:44:16.222Z</time></trkpt><trkpt lat="38.9459915" lon="8.9512402"><ele>19.0</ele><time>2026-05-01T12:44:17.222Z</time></trkpt><trkpt lat="38.9459219" lon="8.9513085"><ele>19.0</ele><time>2026-05-01T12:44:18.218Z</time></trkpt><trkpt lat="38.9458572" lon="8.9513681"><ele>19.0</ele><time>2026-05-01T12:44:19.221Z</time></trkpt><trkpt lat="38.9457953" lon="8.9514206"><ele>19.0</ele><time>2026-05-01T12:44:20.222Z</time></trkpt><trkpt lat="38.9457409" lon="8.9514667"><ele>19.0</ele><time>2026-05-01T12:44:21.221Z</time></trkpt><trkpt lat="38.9456598" lon="8.9515615"><ele>19.0</ele><time>2026-05-01T12:44:23.221Z</time></trkpt><trkpt lat="38.9456481" lon="8.9516706"><ele>17.333333333333332</ele><time>2026-05-01T12:44:25.221Z</time></trkpt><trkpt lat="38.9456915" lon="8.9518165"><ele>15.666666666666666</ele><time>2026-05-01T12:44:27.22Z</time></trkpt><trkpt lat="38.9457261" lon="8.9519081"><ele>14.0</ele><time>2026-05-01T12:44:28.221Z</time></trkpt><trkpt lat="38.945762" lon="8.9520023"><ele>12.333333333333332</ele><time>2026-05-01T12:44:29.219Z</time></trkpt><trkpt lat="38.9457929" lon="8.9520912"><ele>10.666666666666666</ele><time>2026-05-01T12:44:30.221Z</time></trkpt><trkpt lat="38.9458251" lon="8.9521824"><ele>9.0</ele><time>2026-05-01T12:44:31.221Z</time></trkpt><trkpt lat="38.9458544" lon="8.9522679"><ele>10.0</ele><time>2026-05-01T12:44:32.221Z</time></trkpt><trkpt lat="38.9458834" lon="8.952343"><ele>11.0</ele><time>2026-05-01T12:44:33.221Z</time></trkpt><trkpt lat="38.9459243" lon="8.9524508"><ele>12.0</ele><time>2026-05-01T12:44:35.221Z</time></trkpt><trkpt lat="38.9459523" lon="8.9525274"><ele>13.0</ele><time>2026-05-01T12:44:37.219Z</time></trkpt><trkpt lat="38.9460044" lon="8.9526658"><ele>14.0</ele><time>2026-05-01T12:44:39.222Z</time></trkpt><trkpt lat="38.9460371" lon="8.9527545"><ele>15.0</ele><time>2026-05-01T12:44:40.222Z</time></trkpt><trkpt lat="38.9460728" lon="8.9528443"><ele>14.8</ele><time>2026-05-01T12:44:41.221Z</time></trkpt><trkpt lat="38.9461052" lon="8.9529313"><ele>14.6</ele><time>2026-05-01T12:44:42.222Z</time></trkpt><trkpt lat="38.9461389" lon="8.9530251"><ele>14.399999999999999</ele><time>2026-05-01T12:44:43.221Z</time></trkpt><trkpt lat="38.946177" lon="8.9531329"><ele>14.2</ele><time>2026-05-01T12:44:44.222Z</time></trkpt><trkpt lat="38.94622" lon="8.9532511"><ele>14.0</ele><time>2026-05-01T12:44:45.221Z</time></trkpt><trkpt lat="38.9462659" lon="8.9533795"><ele>14.0</ele><time>2026-05-01T12:44:46.222Z</time></trkpt><trkpt lat="38.9463125" lon="8.95351"><ele>14.0</ele><time>2026-05-01T12:44:47.221Z</time></trkpt><trkpt lat="38.9463615" lon="8.9536374"><ele>14.0</ele><time>2026-05-01T12:44:48.222Z</time></trkpt><trkpt lat="38.9464172" lon="8.953765"><ele>14.0</ele><time>2026-05-01T12:44:49.222Z</time></trkpt><trkpt lat="38.9464766" lon="8.9538916"><ele>14.0</ele><time>2026-05-01T12:44:50.22Z</time></trkpt><trkpt lat="38.9465355" lon="8.9540166"><ele>14.0</ele><time>2026-05-01T12:44:51.221Z</time></trkpt><trkpt lat="38.9466006" lon="8.9541426"><ele>14.0</ele><time>2026-05-01T12:44:52.222Z</time></trkpt><trkpt lat="38.9466735" lon="8.9542727"><ele>14.0</ele><time>2026-05-01T12:44:53.22Z</time></trkpt><trkpt lat="38.9467491" lon="8.9544058"><ele>15.0</ele><time>2026-05-01T12:44:54.22Z</time></trkpt><trkpt lat="38.9468205" lon="8.9545329"><ele>16.0</ele><time>2026-05-01T12:44:55.219Z</time></trkpt><trkpt lat="38.9468909" lon="8.9546623"><ele>17.0</ele><time>2026-05-01T12:44:56.22Z</time></trkpt><trkpt lat="38.9469612" lon="8.9547936"><ele>18.0</ele><time>2026-05-01T12:44:57.22Z</time></trkpt><trkpt lat="38.9470307" lon="8.9549268"><ele>16.25</ele><time>2026-05-01T12:44:58.221Z</time></trkpt><trkpt lat="38.9471018" lon="8.9550628"><ele>14.5</ele><time>2026-05-01T12:44:59.221Z</time></trkpt><trkpt lat="38.9471729" lon="8.955194"><ele>12.75</ele><time>2026-05-01T12:45:00.222Z</time></trkpt><trkpt lat="38.9472384" lon="8.9553166"><ele>11.0</ele><time>2026-05-01T12:45:01.22Z</time></trkpt><trkpt lat="38.9472987" lon="8.9554339"><ele>11.0</ele><time>2026-05-01T12:45:02.221Z</time></trkpt><trkpt lat="38.9473584" lon="8.9555415"><ele>11.0</ele><time>2026-05-01T12:45:03.222Z</time></trkpt><trkpt lat="38.9474233" lon="8.9556399"><ele>11.0</ele><time>2026-05-01T12:45:04.221Z</time></trkpt><trkpt lat="38.9475002" lon="8.9557309"><ele>11.0</ele><time>2026-05-01T12:45:05.222Z</time></trkpt><trkpt lat="38.9475861" lon="8.955814"><ele>11.0</ele><time>2026-05-01T12:45:06.221Z</time></trkpt><trkpt lat="38.9476805" lon="8.9558954"><ele>10.25</ele><time>2026-05-01T12:45:07.222Z</time></trkpt><trkpt lat="38.9477854" lon="8.9559759"><ele>9.5</ele><time>2026-05-01T12:45:08.222Z</time></trkpt><trkpt lat="38.9478943" lon="8.9560589"><ele>8.75</ele><time>2026-05-01T12:45:09.221Z</time></trkpt><trkpt lat="38.9480072" lon="8.9561393"><ele>8.0</ele><time>2026-05-01T12:45:10.221Z</time></trkpt><trkpt lat="38.9481143" lon="8.9562205"><ele>8.0</ele><time>2026-05-01T12:45:11.221Z</time></trkpt><trkpt lat="38.9482197" lon="8.9563017"><ele>8.0</ele><time>2026-05-01T12:45:12.221Z</time></trkpt><trkpt lat="38.9483335" lon="8.9563734"><ele>8.0</ele><time>2026-05-01T12:45:13.221Z</time></trkpt><trkpt lat="38.9484589" lon="8.9564232"><ele>8.0</ele><time>2026-05-01T12:45:14.218Z</time></trkpt><trkpt lat="38.9485869" lon="8.9564632"><ele>9.0</ele><time>2026-05-01T12:45:15.221Z</time></trkpt><trkpt lat="38.948718" lon="8.9564983"><ele>10.0</ele><time>2026-05-01T12:45:16.221Z</time></trkpt><trkpt lat="38.9488507" lon="8.9565331"><ele>11.0</ele><time>2026-05-01T12:45:17.222Z</time></trkpt><trkpt lat="38.9489782" lon="8.9565661"><ele>12.0</ele><time>2026-05-01T12:45:18.222Z</time></trkpt><trkpt lat="38.9490946" lon="8.9565971"><ele>12.0</ele><time>2026-05-01T12:45:19.222Z</time></trkpt><trkpt lat="38.9492056" lon="8.9566257"><ele>12.0</ele><time>2026-05-01T12:45:20.221Z</time></trkpt><trkpt lat="38.9493091" lon="8.9566578"><ele>12.0</ele><time>2026-05-01T12:45:21.218Z</time></trkpt><trkpt lat="38.9494059" lon="8.9567018"><ele>12.0</ele><time>2026-05-01T12:45:22.221Z</time></trkpt><trkpt lat="38.9494967" lon="8.9567676"><ele>12.0</ele><time>2026-05-01T12:45:23.222Z</time></trkpt><trkpt lat="38.9495817" lon="8.9568554"><ele>11.25</ele><time>2026-05-01T12:45:24.22Z</time></trkpt><trkpt lat="38.94966" lon="8.9569626"><ele>10.5</ele><time>2026-05-01T12:45:25.222Z</time></trkpt><trkpt lat="38.9497374" lon="8.9570763"><ele>9.75</ele><time>2026-05-01T12:45:26.222Z</time></trkpt><trkpt lat="38.9498179" lon="8.9571882"><ele>9.0</ele><time>2026-05-01T12:45:27.219Z</time></trkpt><trkpt lat="38.9499006" lon="8.9573012"><ele>9.0</ele><time>2026-05-01T12:45:28.221Z</time></trkpt><trkpt lat="38.9499849" lon="8.9574174"><ele>9.0</ele><time>2026-05-01T12:45:29.218Z</time></trkpt><trkpt lat="38.9500675" lon="8.9575325"><ele>9.0</ele><time>2026-05-01T12:45:30.222Z</time></trkpt><trkpt lat="38.9501523" lon="8.9576463"><ele>9.0</ele><time>2026-05-01T12:45:31.222Z</time></trkpt><trkpt lat="38.9502368" lon="8.9577595"><ele>9.0</ele><time>2026-05-01T12:45:32.221Z</time></trkpt><trkpt lat="38.9503195" lon="8.9578731"><ele>9.0</ele><time>2026-05-01T12:45:33.221Z</time></trkpt><trkpt lat="38.9504019" lon="8.9579875"><ele>9.0</ele><time>2026-05-01T12:45:34.221Z</time></trkpt><trkpt lat="38.9504837" lon="8.958104"><ele>9.0</ele><time>2026-05-01T12:45:35.219Z</time></trkpt><trkpt lat="38.950567" lon="8.9582216"><ele>9.0</ele><time>2026-05-01T12:45:36.22Z</time></trkpt><trkpt lat="38.9506513" lon="8.9583395"><ele>9.0</ele><time>2026-05-01T12:45:37.221Z</time></trkpt><trkpt lat="38.9507327" lon="8.9584577"><ele>9.0</ele><time>2026-05-01T12:45:38.221Z</time></trkpt><trkpt lat="38.9508144" lon="8.9585757"><ele>9.0</ele><time>2026-05-01T12:45:39.222Z</time></trkpt><trkpt lat="38.9508977" lon="8.9586936"><ele>10.25</ele><time>2026-05-01T12:45:40.219Z</time></trkpt><trkpt lat="38.9509808" lon="8.9588102"><ele>11.5</ele><time>2026-05-01T12:45:41.221Z</time></trkpt><trkpt lat="38.9510645" lon="8.958926"><ele>12.75</ele><time>2026-05-01T12:45:42.221Z</time></trkpt><trkpt lat="38.9511453" lon="8.959042"><ele>14.0</ele><time>2026-05-01T12:45:43.222Z</time></trkpt><trkpt lat="38.9512263" lon="8.9591556"><ele>13.799999999999999</ele><time>2026-05-01T12:45:44.22Z</time></trkpt><trkpt lat="38.9513063" lon="8.9592641"><ele>13.599999999999998</ele><time>2026-05-01T12:45:45.222Z</time></trkpt><trkpt lat="38.951385" lon="8.9593667"><ele>13.4</ele><time>2026-05-01T12:45:46.221Z</time></trkpt><trkpt lat="38.9514639" lon="8.9594676"><ele>13.2</ele><time>2026-05-01T12:45:47.221Z</time></trkpt><trkpt lat="38.951539" lon="8.959567"><ele>13.0</ele><time>2026-05-01T12:45:48.222Z</time></trkpt><trkpt lat="38.951612" lon="8.9596691"><ele>13.0</ele><time>2026-05-01T12:45:49.221Z</time></trkpt><trkpt lat="38.9516811" lon="8.9597732"><ele>13.0</ele><time>2026-05-01T12:45:50.221Z</time></trkpt><trkpt lat="38.9517449" lon="8.9598714"><ele>13.0</ele><time>2026-05-01T12:45:51.221Z</time></trkpt><trkpt lat="38.9518088" lon="8.9599644"><ele>13.0</ele><time>2026-05-01T12:45:52.222Z</time></trkpt><trkpt lat="38.9518669" lon="8.9600725"><ele>13.0</ele><time>2026-05-01T12:45:53.222Z</time></trkpt><trkpt lat="38.9519254" lon="8.9601877"><ele>13.75</ele><time>2026-05-01T12:45:54.222Z</time></trkpt><trkpt lat="38.9519877" lon="8.9603082"><ele>14.5</ele><time>2026-05-01T12:45:55.221Z</time></trkpt><trkpt lat="38.9520511" lon="8.9604323"><ele>15.25</ele><time>2026-05-01T12:45:56.219Z</time></trkpt><trkpt lat="38.9521153" lon="8.9605609"><ele>16.0</ele><time>2026-05-01T12:45:57.221Z</time></trkpt><trkpt lat="38.9521793" lon="8.9606894"><ele>16.0</ele><time>2026-05-01T12:45:58.222Z</time></trkpt><trkpt lat="38.9522423" lon="8.9608137"><ele>16.0</ele><time>2026-05-01T12:45:59.221Z</time></trkpt><trkpt lat="38.9523003" lon="8.9609291"><ele>16.0</ele><time>2026-05-01T12:46:00.222Z</time></trkpt><trkpt lat="38.9523523" lon="8.9610405"><ele>16.0</ele><time>2026-05-01T12:46:01.22Z</time></trkpt><trkpt lat="38.9524045" lon="8.9611541"><ele>16.0</ele><time>2026-05-01T12:46:02.222Z</time></trkpt><trkpt lat="38.9524589" lon="8.961274"><ele>16.0</ele><time>2026-05-01T12:46:03.222Z</time></trkpt><trkpt lat="38.9525134" lon="8.961396"><ele>16.0</ele><time>2026-05-01T12:46:04.218Z</time></trkpt><trkpt lat="38.9525673" lon="8.961524"><ele>16.0</ele><time>2026-05-01T12:46:05.22Z</time></trkpt><trkpt lat="38.9526199" lon="8.9616596"><ele>16.0</ele><time>2026-05-01T12:46:06.221Z</time></trkpt><trkpt lat="38.9526703" lon="8.9618037"><ele>16.0</ele><time>2026-05-01T12:46:07.221Z</time></trkpt><trkpt lat="38.952715" lon="8.9619455"><ele>16.0</ele><time>2026-05-01T12:46:08.222Z</time></trkpt><trkpt lat="38.9527553" lon="8.9620888"><ele>16.0</ele><time>2026-05-01T12:46:09.222Z</time></trkpt><trkpt lat="38.9527928" lon="8.9622421"><ele>16.0</ele><time>2026-05-01T12:46:10.222Z</time></trkpt><trkpt lat="38.9528211" lon="8.9623921"><ele>14.600000000000001</ele><time>2026-05-01T12:46:11.222Z</time></trkpt><trkpt lat="38.9528465" lon="8.9625354"><ele>13.200000000000001</ele><time>2026-05-01T12:46:12.22Z</time></trkpt><trkpt lat="38.9528662" lon="8.9626623"><ele>11.8</ele><time>2026-05-01T12:46:13.218Z</time></trkpt><trkpt lat="38.9528833" lon="8.9627721"><ele>10.4</ele><time>2026-05-01T12:46:14.221Z</time></trkpt><trkpt lat="38.9529037" lon="8.9628712"><ele>9.0</ele><time>2026-05-01T12:46:15.22Z</time></trkpt><trkpt lat="38.9529331" lon="8.9629606"><ele>9.0</ele><time>2026-05-01T12:46:16.221Z</time></trkpt><trkpt lat="38.9529788" lon="8.9630319"><ele>9.0</ele><time>2026-05-01T12:46:17.221Z</time></trkpt><trkpt lat="38.953035" lon="8.9630844"><ele>9.0</ele><time>2026-05-01T12:46:18.221Z</time></trkpt><trkpt lat="38.9530979" lon="8.9631094"><ele>9.0</ele><time>2026-05-01T12:46:19.219Z</time></trkpt><trkpt lat="38.9531605" lon="8.9631205"><ele>9.0</ele><time>2026-05-01T12:46:20.217Z</time></trkpt><trkpt lat="38.9532789" lon="8.9631383"><ele>9.0</ele><time>2026-05-01T12:46:22.222Z</time></trkpt><trkpt lat="38.9533911" lon="8.9631534"><ele>9.0</ele><time>2026-05-01T12:46:24.22Z</time></trkpt><trkpt lat="38.953505" lon="8.9631755"><ele>9.0</ele><time>2026-05-01T12:46:26.221Z</time></trkpt><trkpt lat="38.953622" lon="8.9631919"><ele>9.0</ele><time>2026-05-01T12:46:28.219Z</time></trkpt><trkpt lat="38.9536868" lon="8.963203"><ele>9.0</ele><time>2026-05-01T12:46:29.221Z</time></trkpt><trkpt lat="38.9537516" lon="8.9632142"><ele>9.0</ele><time>2026-05-01T12:46:30.222Z</time></trkpt><trkpt lat="38.9538674" lon="8.9632371"><ele>9.0</ele><time>2026-05-01T12:46:32.221Z</time></trkpt><trkpt lat="38.9539568" lon="8.9632557"><ele>9.0</ele><time>2026-05-01T12:46:34.217Z</time></trkpt><trkpt lat="38.95402" lon="8.9632666"><ele>9.0</ele><time>2026-05-01T12:46:36.221Z</time></trkpt><trkpt lat="38.9540861" lon="8.9632024"><ele>9.0</ele><time>2026-05-01T12:46:44.221Z</time></trkpt><trkpt lat="38.9541134" lon="8.96311"><ele>9.0</ele><time>2026-05-01T12:46:46.219Z</time></trkpt><trkpt lat="38.954102" lon="8.9630028"><ele>9.0</ele><time>2026-05-01T12:46:49.222Z</time></trkpt><trkpt lat="38.9540265" lon="8.9630045"><ele>9.000000000000002</ele><time>2026-05-01T12:46:53.221Z</time></trkpt><trkpt lat="38.9540212" lon="8.9631131"><ele>9.0</ele><time>2026-05-01T12:46:56.22Z</time></trkpt><trkpt lat="38.9540318" lon="8.9631944"><ele>9.0</ele><time>2026-05-01T12:47:22.219Z</time></trkpt><trkpt lat="38.9540932" lon="8.9631385"><ele>9.0</ele><time>2026-05-01T12:47:27.221Z</time></trkpt><trkpt lat="38.9541154" lon="8.9630403"><ele>9.0</ele><time>2026-05-01T12:47:30.22Z</time></trkpt><trkpt lat="38.9541775" lon="8.9629915"><ele>9.000000000000002</ele><time>2026-05-01T12:47:33.221Z</time></trkpt><trkpt lat="38.9542421" lon="8.9629992"><ele>9.0</ele><time>2026-05-01T12:47:50.221Z</time></trkpt><trkpt lat="38.9542948" lon="8.9630485"><ele>9.000000000000002</ele><time>2026-05-01T12:48:00.221Z</time></trkpt><trkpt lat="38.9543563" lon="8.963002"><ele>9.0</ele><time>2026-05-01T12:48:11.219Z</time></trkpt><trkpt lat="38.9542818" lon="8.9630441"><ele>9.0</ele><time>2026-05-01T12:48:51.22Z</time></trkpt><trkpt lat="38.9542201" lon="8.9630112"><ele>9.0</ele><time>2026-05-01T12:49:01.217Z</time></trkpt><trkpt lat="38.9541443" lon="8.9630356"><ele>9.0</ele><time>2026-05-01T12:49:04.221Z</time></trkpt><trkpt lat="38.9541094" lon="8.9631039"><ele>9.000000000000002</ele><time>2026-05-01T12:49:06.22Z</time></trkpt><trkpt lat="38.9540924" lon="8.963183"><ele>9.0</ele><time>2026-05-01T12:49:09.219Z</time></trkpt><trkpt lat="38.9541079" lon="8.9632771"><ele>9.0</ele><time>2026-05-01T12:49:17.221Z</time></trkpt><trkpt lat="38.9541795" lon="8.9633062"><ele>9.0</ele><time>2026-05-01T12:49:25.218Z</time></trkpt><trkpt lat="38.9543002" lon="8.9633326"><ele>9.0</ele><time>2026-05-01T12:49:27.219Z</time></trkpt><trkpt lat="38.9543986" lon="8.9633585"><ele>9.0</ele><time>2026-05-01T12:49:28.221Z</time></trkpt><trkpt lat="38.9544826" lon="8.9633808"><ele>9.0</ele><time>2026-05-01T12:49:29.221Z</time></trkpt><trkpt lat="38.954553" lon="8.9634012"><ele>9.0</ele><time>2026-05-01T12:49:30.22Z</time></trkpt><trkpt lat="38.9546148" lon="8.9634167"><ele>9.0</ele><time>2026-05-01T12:49:31.221Z</time></trkpt><trkpt lat="38.95472" lon="8.9634529"><ele>9.0</ele><time>2026-05-01T12:49:33.219Z</time></trkpt><trkpt lat="38.9548079" lon="8.9634827"><ele>9.0</ele><time>2026-05-01T12:49:35.221Z</time></trkpt><trkpt lat="38.954872" lon="8.9635261"><ele>9.0</ele><time>2026-05-01T12:49:38.221Z</time></trkpt><trkpt lat="38.9549372" lon="8.9636081"><ele>9.0</ele><time>2026-05-01T12:49:46.221Z</time></trkpt><trkpt lat="38.9549956" lon="8.9636702"><ele>10.0</ele><time>2026-05-01T12:50:02.219Z</time></trkpt><trkpt lat="38.9550421" lon="8.9637694"><ele>11.0</ele><time>2026-05-01T12:50:04.222Z</time></trkpt><trkpt lat="38.9550962" lon="8.9639074"><ele>12.0</ele><time>2026-05-01T12:50:06.22Z</time></trkpt><trkpt lat="38.9551283" lon="8.9639826"><ele>13.0</ele><time>2026-05-01T12:50:07.22Z</time></trkpt><trkpt lat="38.9551602" lon="8.9640539"><ele>14.0</ele><time>2026-05-01T12:50:08.219Z</time></trkpt><trkpt lat="38.9551926" lon="8.9641237"><ele>15.0</ele><time>2026-05-01T12:50:09.222Z</time></trkpt><trkpt lat="38.9552274" lon="8.9641988"><ele>15.333333333333334</ele><time>2026-05-01T12:50:10.221Z</time></trkpt><trkpt lat="38.9552631" lon="8.9642789"><ele>15.666666666666668</ele><time>2026-05-01T12:50:11.22Z</time></trkpt><trkpt lat="38.9553024" lon="8.9643665"><ele>16.0</ele><time>2026-05-01T12:50:12.22Z</time></trkpt><trkpt lat="38.9553403" lon="8.9644585"><ele>16.333333333333336</ele><time>2026-05-01T12:50:13.22Z</time></trkpt><trkpt lat="38.9553808" lon="8.9645563"><ele>16.666666666666668</ele><time>2026-05-01T12:50:14.222Z</time></trkpt><trkpt lat="38.9554212" lon="8.9646579"><ele>17.0</ele><time>2026-05-01T12:50:15.219Z</time></trkpt><trkpt lat="38.955458" lon="8.9647633"><ele>17.0</ele><time>2026-05-01T12:50:16.219Z</time></trkpt><trkpt lat="38.9554925" lon="8.9648677"><ele>17.0</ele><time>2026-05-01T12:50:17.222Z</time></trkpt><trkpt lat="38.9555267" lon="8.9649783"><ele>17.0</ele><time>2026-05-01T12:50:18.221Z</time></trkpt><trkpt lat="38.9555621" lon="8.9650952"><ele>17.0</ele><time>2026-05-01T12:50:19.222Z</time></trkpt><trkpt lat="38.9556003" lon="8.9652148"><ele>17.0</ele><time>2026-05-01T12:50:20.22Z</time></trkpt><trkpt lat="38.9556368" lon="8.965336"><ele>16.4</ele><time>2026-05-01T12:50:21.222Z</time></trkpt><trkpt lat="38.9556811" lon="8.9654521"><ele>15.799999999999999</ele><time>2026-05-01T12:50:22.222Z</time></trkpt><trkpt lat="38.9557372" lon="8.9655606"><ele>15.2</ele><time>2026-05-01T12:50:23.22Z</time></trkpt><trkpt lat="38.9558085" lon="8.9656576"><ele>14.6</ele><time>2026-05-01T12:50:24.221Z</time></trkpt><trkpt lat="38.9558833" lon="8.9657534"><ele>14.0</ele><time>2026-05-01T12:50:25.218Z</time></trkpt><trkpt lat="38.955961" lon="8.9658483"><ele>13.75</ele><time>2026-05-01T12:50:26.221Z</time></trkpt><trkpt lat="38.9560404" lon="8.9659447"><ele>13.5</ele><time>2026-05-01T12:50:27.22Z</time></trkpt><trkpt lat="38.9561235" lon="8.9660447"><ele>13.25</ele><time>2026-05-01T12:50:28.221Z</time></trkpt><trkpt lat="38.9562104" lon="8.9661483"><ele>13.0</ele><time>2026-05-01T12:50:29.221Z</time></trkpt><trkpt lat="38.9562904" lon="8.9662496"><ele>13.0</ele><time>2026-05-01T12:50:30.219Z</time></trkpt><trkpt lat="38.9563675" lon="8.966346"><ele>13.0</ele><time>2026-05-01T12:50:31.221Z</time></trkpt><trkpt lat="38.9564421" lon="8.966438"><ele>13.0</ele><time>2026-05-01T12:50:32.219Z</time></trkpt><trkpt lat="38.9565113" lon="8.9665292"><ele>13.0</ele><time>2026-05-01T12:50:33.222Z</time></trkpt><trkpt lat="38.9565639" lon="8.9666311"><ele>13.0</ele><time>2026-05-01T12:50:34.22Z</time></trkpt><trkpt lat="38.9565965" lon="8.9667427"><ele>13.0</ele><time>2026-05-01T12:50:35.22Z</time></trkpt><trkpt lat="38.9566116" lon="8.9668565"><ele>13.0</ele><time>2026-05-01T12:50:36.222Z</time></trkpt><trkpt lat="38.9566235" lon="8.9669867"><ele>13.0</ele><time>2026-05-01T12:50:37.22Z</time></trkpt><trkpt lat="38.9566375" lon="8.9671292"><ele>13.0</ele><time>2026-05-01T12:50:38.221Z</time></trkpt><trkpt lat="38.9566489" lon="8.9672848"><ele>13.0</ele><time>2026-05-01T12:50:39.218Z</time></trkpt><trkpt lat="38.9566634" lon="8.9674532"><ele>13.0</ele><time>2026-05-01T12:50:40.218Z</time></trkpt><trkpt lat="38.9566792" lon="8.9676325"><ele>13.0</ele><time>2026-05-01T12:50:41.221Z</time></trkpt><trkpt lat="38.9566959" lon="8.9678207"><ele>13.0</ele><time>2026-05-01T12:50:42.222Z</time></trkpt><trkpt lat="38.9567145" lon="8.9680155"><ele>13.0</ele><time>2026-05-01T12:50:43.222Z</time></trkpt><trkpt lat="38.956735" lon="8.9682165"><ele>13.5</ele><time>2026-05-01T12:50:44.222Z</time></trkpt><trkpt lat="38.9567543" lon="8.968416"><ele>14.0</ele><time>2026-05-01T12:50:45.222Z</time></trkpt><trkpt lat="38.9567696" lon="8.9686004"><ele>14.5</ele><time>2026-05-01T12:50:46.221Z</time></trkpt><trkpt lat="38.9567837" lon="8.9687732"><ele>15.0</ele><time>2026-05-01T12:50:47.222Z</time></trkpt><trkpt lat="38.9567981" lon="8.9689286"><ele>15.0</ele><time>2026-05-01T12:50:48.222Z</time></trkpt><trkpt lat="38.9568154" lon="8.9690709"><ele>15.0</ele><time>2026-05-01T12:50:49.221Z</time></trkpt><trkpt lat="38.9568496" lon="8.9691888"><ele>15.0</ele><time>2026-05-01T12:50:50.221Z</time></trkpt><trkpt lat="38.9569043" lon="8.9692793"><ele>15.0</ele><time>2026-05-01T12:50:51.221Z</time></trkpt><trkpt lat="38.956974" lon="8.9693494"><ele>15.0</ele><time>2026-05-01T12:50:52.221Z</time></trkpt><trkpt lat="38.9570498" lon="8.9694138"><ele>13.2</ele><time>2026-05-01T12:50:53.221Z</time></trkpt><trkpt lat="38.9571323" lon="8.969471"><ele>11.4</ele><time>2026-05-01T12:50:54.222Z</time></trkpt><trkpt lat="38.9572169" lon="8.9695275"><ele>9.6</ele><time>2026-05-01T12:50:55.222Z</time></trkpt><trkpt lat="38.9572992" lon="8.9695847"><ele>7.8</ele><time>2026-05-01T12:50:56.222Z</time></trkpt><trkpt lat="38.9573838" lon="8.9696393"><ele>6.0</ele><time>2026-05-01T12:50:57.221Z</time></trkpt><trkpt lat="38.9574733" lon="8.9696928"><ele>6.25</ele><time>2026-05-01T12:50:58.22Z</time></trkpt><trkpt lat="38.9575716" lon="8.9697483"><ele>6.5</ele><time>2026-05-01T12:50:59.221Z</time></trkpt><trkpt lat="38.9576748" lon="8.9698075"><ele>6.75</ele><time>2026-05-01T12:51:00.221Z</time></trkpt><trkpt lat="38.9577815" lon="8.9698698"><ele>7.0</ele><time>2026-05-01T12:51:01.221Z</time></trkpt><trkpt lat="38.9578892" lon="8.9699369"><ele>7.0</ele><time>2026-05-01T12:51:02.217Z</time></trkpt><trkpt lat="38.9580031" lon="8.9700077"><ele>7.0</ele><time>2026-05-01T12:51:03.221Z</time></trkpt><trkpt lat="38.958118" lon="8.9700809"><ele>7.0</ele><time>2026-05-01T12:51:04.22Z</time></trkpt><trkpt lat="38.9582358" lon="8.9701548"><ele>7.0</ele><time>2026-05-01T12:51:05.219Z</time></trkpt><trkpt lat="38.9583538" lon="8.9702291"><ele>7.75</ele><time>2026-05-01T12:51:06.221Z</time></trkpt><trkpt lat="38.9584721" lon="8.9703084"><ele>8.5</ele><time>2026-05-01T12:51:07.218Z</time></trkpt><trkpt lat="38.9585891" lon="8.9703895"><ele>9.25</ele><time>2026-05-01T12:51:08.217Z</time></trkpt><trkpt lat="38.9587072" lon="8.9704706"><ele>10.0</ele><time>2026-05-01T12:51:09.219Z</time></trkpt><trkpt lat="38.9588255" lon="8.9705485"><ele>10.0</ele><time>2026-05-01T12:51:10.218Z</time></trkpt><trkpt lat="38.958944" lon="8.9706271"><ele>10.0</ele><time>2026-05-01T12:51:11.219Z</time></trkpt><trkpt lat="38.959053" lon="8.9707197"><ele>10.0</ele><time>2026-05-01T12:51:12.22Z</time></trkpt><trkpt lat="38.9591577" lon="8.9708258"><ele>10.0</ele><time>2026-05-01T12:51:13.221Z</time></trkpt><trkpt lat="38.9592571" lon="8.9709427"><ele>11.25</ele><time>2026-05-01T12:51:14.221Z</time></trkpt><trkpt lat="38.9593486" lon="8.9710532"><ele>12.5</ele><time>2026-05-01T12:51:15.222Z</time></trkpt><trkpt lat="38.959435" lon="8.971156"><ele>13.75</ele><time>2026-05-01T12:51:16.219Z</time></trkpt><trkpt lat="38.9595179" lon="8.9712505"><ele>15.0</ele><time>2026-05-01T12:51:17.221Z</time></trkpt><trkpt lat="38.9595903" lon="8.971339"><ele>15.0</ele><time>2026-05-01T12:51:18.222Z</time></trkpt><trkpt lat="38.9596493" lon="8.9714344"><ele>15.0</ele><time>2026-05-01T12:51:19.221Z</time></trkpt><trkpt lat="38.9596859" lon="8.9715389"><ele>15.0</ele><time>2026-05-01T12:51:20.221Z</time></trkpt><trkpt lat="38.9597016" lon="8.971654"><ele>15.0</ele><time>2026-05-01T12:51:21.221Z</time></trkpt><trkpt lat="38.9597091" lon="8.9717773"><ele>15.0</ele><time>2026-05-01T12:51:22.221Z</time></trkpt><trkpt lat="38.9597114" lon="8.9719081"><ele>14.25</ele><time>2026-05-01T12:51:23.222Z</time></trkpt><trkpt lat="38.959714" lon="8.972046"><ele>13.5</ele><time>2026-05-01T12:51:24.222Z</time></trkpt><trkpt lat="38.9597269" lon="8.9721896"><ele>12.75</ele><time>2026-05-01T12:51:25.222Z</time></trkpt><trkpt lat="38.9597528" lon="8.9723356"><ele>12.0</ele><time>2026-05-01T12:51:26.22Z</time></trkpt><trkpt lat="38.9597975" lon="8.9724829"><ele>12.25</ele><time>2026-05-01T12:51:27.218Z</time></trkpt><trkpt lat="38.9598537" lon="8.9726265"><ele>12.5</ele><time>2026-05-01T12:51:28.221Z</time></trkpt><trkpt lat="38.959921" lon="8.9727712"><ele>12.75</ele><time>2026-05-01T12:51:29.222Z</time></trkpt><trkpt lat="38.9599936" lon="8.9729161"><ele>13.0</ele><time>2026-05-01T12:51:30.219Z</time></trkpt><trkpt lat="38.9600709" lon="8.9730632"><ele>13.0</ele><time>2026-05-01T12:51:31.22Z</time></trkpt><trkpt lat="38.9601513" lon="8.973215"><ele>13.0</ele><time>2026-05-01T12:51:32.222Z</time></trkpt><trkpt lat="38.960234" lon="8.9733705"><ele>13.0</ele><time>2026-05-01T12:51:33.221Z</time></trkpt><trkpt lat="38.9603114" lon="8.9735232"><ele>13.0</ele><time>2026-05-01T12:51:34.222Z</time></trkpt><trkpt lat="38.9603844" lon="8.9736677"><ele>11.75</ele><time>2026-05-01T12:51:35.221Z</time></trkpt><trkpt lat="38.9604562" lon="8.9738049"><ele>10.5</ele><time>2026-05-01T12:51:36.221Z</time></trkpt><trkpt lat="38.9605367" lon="8.9739358"><ele>9.25</ele><time>2026-05-01T12:51:37.221Z</time></trkpt><trkpt lat="38.9606292" lon="8.9740558"><ele>8.0</ele><time>2026-05-01T12:51:38.219Z</time></trkpt><trkpt lat="38.9607305" lon="8.9741669"><ele>7.5</ele><time>2026-05-01T12:51:39.219Z</time></trkpt><trkpt lat="38.9608404" lon="8.9742713"><ele>7.0</ele><time>2026-05-01T12:51:40.219Z</time></trkpt><trkpt lat="38.9609479" lon="8.9743704"><ele>6.5</ele><time>2026-05-01T12:51:41.221Z</time></trkpt><trkpt lat="38.9610437" lon="8.9744531"><ele>6.0</ele><time>2026-05-01T12:51:42.222Z</time></trkpt><trkpt lat="38.9611302" lon="8.9745177"><ele>6.0</ele><time>2026-05-01T12:51:43.222Z</time></trkpt><trkpt lat="38.9612174" lon="8.974565"><ele>6.0</ele><time>2026-05-01T12:51:44.219Z</time></trkpt><trkpt lat="38.9613095" lon="8.9746051"><ele>6.0</ele><time>2026-05-01T12:51:45.222Z</time></trkpt><trkpt lat="38.9614021" lon="8.9746547"><ele>6.0</ele><time>2026-05-01T12:51:46.219Z</time></trkpt><trkpt lat="38.9614832" lon="8.9746954"><ele>6.0</ele><time>2026-05-01T12:51:47.222Z</time></trkpt><trkpt lat="38.9615541" lon="8.9747297"><ele>6.0</ele><time>2026-05-01T12:51:48.221Z</time></trkpt><trkpt lat="38.961629" lon="8.9747557"><ele>6.0</ele><time>2026-05-01T12:51:49.221Z</time></trkpt><trkpt lat="38.9617102" lon="8.9747852"><ele>6.0</ele><time>2026-05-01T12:51:50.218Z</time></trkpt><trkpt lat="38.9617957" lon="8.9748328"><ele>6.0</ele><time>2026-05-01T12:51:51.22Z</time></trkpt><trkpt lat="38.9618858" lon="8.9748969"><ele>6.0</ele><time>2026-05-01T12:51:52.222Z</time></trkpt><trkpt lat="38.9619787" lon="8.9749721"><ele>6.0</ele><time>2026-05-01T12:51:53.221Z</time></trkpt><trkpt lat="38.9620734" lon="8.9750479"><ele>6.0</ele><time>2026-05-01T12:51:54.221Z</time></trkpt><trkpt lat="38.9621676" lon="8.9751264"><ele>6.0</ele><time>2026-05-01T12:51:55.22Z</time></trkpt><trkpt lat="38.9622604" lon="8.975207"><ele>6.0</ele><time>2026-05-01T12:51:56.222Z</time></trkpt><trkpt lat="38.9623578" lon="8.9752827"><ele>6.0</ele><time>2026-05-01T12:51:57.219Z</time></trkpt><trkpt lat="38.9624584" lon="8.9753582"><ele>6.0</ele><time>2026-05-01T12:51:58.22Z</time></trkpt><trkpt lat="38.962559" lon="8.975436"><ele>6.0</ele><time>2026-05-01T12:51:59.222Z</time></trkpt><trkpt lat="38.9626618" lon="8.9755158"><ele>6.0</ele><time>2026-05-01T12:52:00.221Z</time></trkpt><trkpt lat="38.9627656" lon="8.9755958"><ele>5.25</ele><time>2026-05-01T12:52:01.221Z</time></trkpt><trkpt lat="38.9628717" lon="8.9756751"><ele>4.5</ele><time>2026-05-01T12:52:02.221Z</time></trkpt><trkpt lat="38.9629798" lon="8.9757554"><ele>3.75</ele><time>2026-05-01T12:52:03.222Z</time></trkpt><trkpt lat="38.9630897" lon="8.9758364"><ele>3.0</ele><time>2026-05-01T12:52:04.222Z</time></trkpt><trkpt lat="38.963203" lon="8.9759149"><ele>2.75</ele><time>2026-05-01T12:52:05.222Z</time></trkpt><trkpt lat="38.9633162" lon="8.9759944"><ele>2.5</ele><time>2026-05-01T12:52:06.221Z</time></trkpt><trkpt lat="38.9634293" lon="8.9760738"><ele>2.25</ele><time>2026-05-01T12:52:07.221Z</time></trkpt><trkpt lat="38.9635398" lon="8.9761527"><ele>2.0</ele><time>2026-05-01T12:52:08.218Z</time></trkpt><trkpt lat="38.9636485" lon="8.9762363"><ele>1.8</ele><time>2026-05-01T12:52:09.219Z</time></trkpt><trkpt lat="38.9637444" lon="8.9763161"><ele>1.6</ele><time>2026-05-01T12:52:10.221Z</time></trkpt><trkpt lat="38.9638143" lon="8.9763825"><ele>1.4000000000000001</ele><time>2026-05-01T12:52:11.222Z</time></trkpt><trkpt lat="38.9638919" lon="8.9764603"><ele>1.2000000000000002</ele><time>2026-05-01T12:52:13.221Z</time></trkpt><trkpt lat="38.9639655" lon="8.9765365"><ele>1.0</ele><time>2026-05-01T12:52:26.222Z</time></trkpt><trkpt lat="38.9640179" lon="8.9765828"><ele>0.9999999999999999</ele><time>2026-05-01T12:52:30.222Z</time></trkpt><trkpt lat="38.9640647" lon="8.976645"><ele>1.0</ele><time>2026-05-01T12:52:38.222Z</time></trkpt><trkpt lat="38.9641617" lon="8.9767516"><ele>1.0</ele><time>2026-05-01T12:52:40.219Z</time></trkpt><trkpt lat="38.9642193" lon="8.9768129"><ele>1.0</ele><time>2026-05-01T12:52:41.221Z</time></trkpt><trkpt lat="38.9642824" lon="8.9768821"><ele>0.9999999999999999</ele><time>2026-05-01T12:52:42.22Z</time></trkpt><trkpt lat="38.964351" lon="8.9769546"><ele>1.0</ele><time>2026-05-01T12:52:43.222Z</time></trkpt><trkpt lat="38.9644217" lon="8.9770304"><ele>1.6</ele><time>2026-05-01T12:52:44.22Z</time></trkpt><trkpt lat="38.9644923" lon="8.9771115"><ele>2.2</ele><time>2026-05-01T12:52:45.222Z</time></trkpt><trkpt lat="38.964566" lon="8.9771947"><ele>2.8000000000000003</ele><time>2026-05-01T12:52:46.22Z</time></trkpt><trkpt lat="38.9646404" lon="8.97728"><ele>3.4000000000000004</ele><time>2026-05-01T12:52:47.219Z</time></trkpt><trkpt lat="38.9647152" lon="8.9773667"><ele>4.0</ele><time>2026-05-01T12:52:48.222Z</time></trkpt><trkpt lat="38.964794" lon="8.9774535"><ele>4.0</ele><time>2026-05-01T12:52:49.221Z</time></trkpt><trkpt lat="38.9648739" lon="8.9775433"><ele>4.0</ele><time>2026-05-01T12:52:50.222Z</time></trkpt><trkpt lat="38.9649542" lon="8.9776351"><ele>4.0</ele><time>2026-05-01T12:52:51.221Z</time></trkpt><trkpt lat="38.9650361" lon="8.9777286"><ele>4.0</ele><time>2026-05-01T12:52:52.222Z</time></trkpt><trkpt lat="38.9651228" lon="8.9778254"><ele>4.0</ele><time>2026-05-01T12:52:53.218Z</time></trkpt><trkpt lat="38.965209" lon="8.9779239"><ele>4.0</ele><time>2026-05-01T12:52:54.219Z</time></trkpt><trkpt lat="38.9652907" lon="8.978018"><ele>4.0</ele><time>2026-05-01T12:52:55.222Z</time></trkpt><trkpt lat="38.9653707" lon="8.9781106"><ele>4.0</ele><time>2026-05-01T12:52:56.22Z</time></trkpt><trkpt lat="38.9654463" lon="8.9781989"><ele>4.0</ele><time>2026-05-01T12:52:57.219Z</time></trkpt><trkpt lat="38.9655198" lon="8.9782859"><ele>4.0</ele><time>2026-05-01T12:52:58.22Z</time></trkpt><trkpt lat="38.9655958" lon="8.9783727"><ele>3.6666666666666665</ele><time>2026-05-01T12:52:59.218Z</time></trkpt><trkpt lat="38.965671" lon="8.9784529"><ele>3.333333333333333</ele><time>2026-05-01T12:53:00.219Z</time></trkpt><trkpt lat="38.9657339" lon="8.9785213"><ele>3.0</ele><time>2026-05-01T12:53:01.22Z</time></trkpt><trkpt lat="38.9657889" lon="8.9785769"><ele>2.6666666666666665</ele><time>2026-05-01T12:53:02.221Z</time></trkpt><trkpt lat="38.9658786" lon="8.9786587"><ele>2.333333333333333</ele><time>2026-05-01T12:53:04.218Z</time></trkpt><trkpt lat="38.9659501" lon="8.9787038"><ele>2.0</ele><time>2026-05-01T12:53:06.219Z</time></trkpt><trkpt lat="38.9660132" lon="8.9787156"><ele>2.833333333333333</ele><time>2026-05-01T12:53:10.22Z</time></trkpt><trkpt lat="38.9660565" lon="8.9787791"><ele>3.666666666666667</ele><time>2026-05-01T12:53:47.222Z</time></trkpt><trkpt lat="38.9661728" lon="8.9787862"><ele>4.5</ele><time>2026-05-01T12:53:53.221Z</time></trkpt><trkpt lat="38.9662667" lon="8.9788227"><ele>5.333333333333334</ele><time>2026-05-01T12:53:55.216Z</time></trkpt><trkpt lat="38.9663407" lon="8.9788486"><ele>6.166666666666667</ele><time>2026-05-01T12:53:57.222Z</time></trkpt><trkpt lat="38.9664135" lon="8.9788582"><ele>7.0</ele><time>2026-05-01T12:53:59.221Z</time></trkpt><trkpt lat="38.9664837" lon="8.9788584"><ele>7.000000000000001</ele><time>2026-05-01T12:54:01.221Z</time></trkpt><trkpt lat="38.9665564" lon="8.9788517"><ele>7.0</ele><time>2026-05-01T12:54:03.219Z</time></trkpt><trkpt lat="38.966633" lon="8.9788367"><ele>7.0</ele><time>2026-05-01T12:54:05.221Z</time></trkpt><trkpt lat="38.9667029" lon="8.9788289"><ele>7.0</ele><time>2026-05-01T12:54:07.221Z</time></trkpt><trkpt lat="38.9667725" lon="8.9788113"><ele>7.000000000000001</ele><time>2026-05-01T12:54:10.222Z</time></trkpt><trkpt lat="38.9668614" lon="8.978802"><ele>7.0</ele><time>2026-05-01T12:54:12.221Z</time></trkpt><trkpt lat="38.9669666" lon="8.9787568"><ele>6.714285714285714</ele><time>2026-05-01T12:54:14.22Z</time></trkpt><trkpt lat="38.9670208" lon="8.9787118"><ele>6.428571428571429</ele><time>2026-05-01T12:54:15.22Z</time></trkpt><trkpt lat="38.9670727" lon="8.9786604"><ele>6.142857142857142</ele><time>2026-05-01T12:54:16.222Z</time></trkpt><trkpt lat="38.9671271" lon="8.9786061"><ele>5.857142857142858</ele><time>2026-05-01T12:54:17.221Z</time></trkpt><trkpt lat="38.9671879" lon="8.9785498"><ele>5.571428571428571</ele><time>2026-05-01T12:54:18.222Z</time></trkpt><trkpt lat="38.9672544" lon="8.9784853"><ele>5.285714285714286</ele><time>2026-05-01T12:54:19.22Z</time></trkpt><trkpt lat="38.9673185" lon="8.9784186"><ele>5.0</ele><time>2026-05-01T12:54:20.22Z</time></trkpt><trkpt lat="38.9673815" lon="8.9783558"><ele>5.166666666666667</ele><time>2026-05-01T12:54:21.222Z</time></trkpt><trkpt lat="38.9674354" lon="8.9783016"><ele>5.333333333333334</ele><time>2026-05-01T12:54:22.22Z</time></trkpt><trkpt lat="38.9675149" lon="8.9782251"><ele>5.5</ele><time>2026-05-01T12:54:24.221Z</time></trkpt><trkpt lat="38.9675699" lon="8.9781663"><ele>5.666666666666667</ele><time>2026-05-01T12:54:26.222Z</time></trkpt><trkpt lat="38.9676416" lon="8.9781004"><ele>5.833333333333333</ele><time>2026-05-01T12:54:28.222Z</time></trkpt><trkpt lat="38.9677131" lon="8.9780346"><ele>6.0</ele><time>2026-05-01T12:54:31.22Z</time></trkpt><trkpt lat="38.9677238" lon="8.9779488"><ele>5.999999999999999</ele><time>2026-05-01T12:54:47.222Z</time></trkpt><trkpt lat="38.9676585" lon="8.9779632"><ele>6.0</ele><time>2026-05-01T12:54:50.22Z</time></trkpt><trkpt lat="38.9675746" lon="8.9779674"><ele>6.0</ele><time>2026-05-01T12:54:53.221Z</time></trkpt><trkpt lat="38.9675054" lon="8.9779542"><ele>6.0</ele><time>2026-05-01T12:54:56.222Z</time></trkpt><trkpt lat="38.967445" lon="8.977991"><ele>6.0</ele><time>2026-05-01T13:00:54.216Z</time></trkpt><trkpt lat="38.9674961" lon="8.9780516"><ele>5.999999999999999</ele><time>2026-05-01T13:08:38.201Z</time></trkpt><trkpt lat="38.9675593" lon="8.9780329"><ele>6.0</ele><time>2026-05-01T13:08:41.201Z</time></trkpt><trkpt lat="38.9676126" lon="8.9779786"><ele>6.0</ele><time>2026-05-01T13:08:44.2Z</time></trkpt><trkpt lat="38.9676873" lon="8.9779686"><ele>6.0</ele><time>2026-05-01T13:08:51.2Z</time></trkpt><trkpt lat="38.9677568" lon="8.9779927"><ele>6.0</ele><time>2026-05-01T13:08:54.201Z</time></trkpt><trkpt lat="38.9678173" lon="8.9779408"><ele>6.0</ele><time>2026-05-01T13:08:56.201Z</time></trkpt><trkpt lat="38.9678912" lon="8.9778502"><ele>6.0</ele><time>2026-05-01T13:08:58.2Z</time></trkpt><trkpt lat="38.9679507" lon="8.9777975"><ele>6.0</ele><time>2026-05-01T13:08:59.201Z</time></trkpt><trkpt lat="38.9680063" lon="8.9777463"><ele>6.0</ele><time>2026-05-01T13:09:00.2Z</time></trkpt><trkpt lat="38.9680619" lon="8.9776947"><ele>6.0</ele><time>2026-05-01T13:09:01.2Z</time></trkpt><trkpt lat="38.9681197" lon="8.9776279"><ele>6.0</ele><time>2026-05-01T13:09:02.201Z</time></trkpt><trkpt lat="38.9681787" lon="8.977568"><ele>6.0</ele><time>2026-05-01T13:09:03.2Z</time></trkpt><trkpt lat="38.9682324" lon="8.9775115"><ele>6.0</ele><time>2026-05-01T13:09:04.201Z</time></trkpt><trkpt lat="38.9683248" lon="8.9774189"><ele>6.0</ele><time>2026-05-01T13:09:06.2Z</time></trkpt><trkpt lat="38.9684109" lon="8.9773214"><ele>5.8</ele><time>2026-05-01T13:09:08.2Z</time></trkpt><trkpt lat="38.9685032" lon="8.9772315"><ele>5.6</ele><time>2026-05-01T13:09:10.201Z</time></trkpt><trkpt lat="38.9685998" lon="8.9771436"><ele>5.4</ele><time>2026-05-01T13:09:12.2Z</time></trkpt><trkpt lat="38.9686533" lon="8.9770909"><ele>5.2</ele><time>2026-05-01T13:09:13.2Z</time></trkpt><trkpt lat="38.9687117" lon="8.9770319"><ele>5.0</ele><time>2026-05-01T13:09:14.201Z</time></trkpt><trkpt lat="38.9687912" lon="8.9769636"><ele>5.0</ele><time>2026-05-01T13:09:15.2Z</time></trkpt><trkpt lat="38.9688626" lon="8.9768885"><ele>5.0</ele><time>2026-05-01T13:09:16.201Z</time></trkpt><trkpt lat="38.9689448" lon="8.9768095"><ele>5.0</ele><time>2026-05-01T13:09:17.201Z</time></trkpt><trkpt lat="38.9690342" lon="8.9767182"><ele>5.0</ele><time>2026-05-01T13:09:18.2Z</time></trkpt><trkpt lat="38.9691244" lon="8.9766264"><ele>5.0</ele><time>2026-05-01T13:09:19.2Z</time></trkpt><trkpt lat="38.9692245" lon="8.9765337"><ele>5.8</ele><time>2026-05-01T13:09:20.201Z</time></trkpt><trkpt lat="38.9693195" lon="8.9764394"><ele>6.6</ele><time>2026-05-01T13:09:21.201Z</time></trkpt><trkpt lat="38.9693975" lon="8.9763584"><ele>7.4</ele><time>2026-05-01T13:09:22.2Z</time></trkpt><trkpt lat="38.969481" lon="8.976275"><ele>8.2</ele><time>2026-05-01T13:09:23.2Z</time></trkpt><trkpt lat="38.9695608" lon="8.9761967"><ele>9.0</ele><time>2026-05-01T13:09:24.201Z</time></trkpt><trkpt lat="38.9696503" lon="8.9761139"><ele>9.0</ele><time>2026-05-01T13:09:25.2Z</time></trkpt><trkpt lat="38.9697431" lon="8.9760217"><ele>9.0</ele><time>2026-05-01T13:09:26.201Z</time></trkpt><trkpt lat="38.9698425" lon="8.9759287"><ele>9.0</ele><time>2026-05-01T13:09:27.2Z</time></trkpt><trkpt lat="38.9699582" lon="8.9758272"><ele>9.0</ele><time>2026-05-01T13:09:28.2Z</time></trkpt><trkpt lat="38.9700668" lon="8.9757284"><ele>9.0</ele><time>2026-05-01T13:09:29.2Z</time></trkpt><trkpt lat="38.9701606" lon="8.9756347"><ele>9.0</ele><time>2026-05-01T13:09:30.201Z</time></trkpt><trkpt lat="38.970263" lon="8.9755306"><ele>9.0</ele><time>2026-05-01T13:09:31.2Z</time></trkpt><trkpt lat="38.9703662" lon="8.9754296"><ele>9.0</ele><time>2026-05-01T13:09:32.201Z</time></trkpt><trkpt lat="38.9704635" lon="8.9753334"><ele>9.0</ele><time>2026-05-01T13:09:33.201Z</time></trkpt><trkpt lat="38.9705604" lon="8.9752398"><ele>9.0</ele><time>2026-05-01T13:09:34.2Z</time></trkpt><trkpt lat="38.9706505" lon="8.9751528"><ele>9.0</ele><time>2026-05-01T13:09:35.201Z</time></trkpt><trkpt lat="38.9707422" lon="8.9750602"><ele>9.0</ele><time>2026-05-01T13:09:36.201Z</time></trkpt><trkpt lat="38.9708414" lon="8.9749663"><ele>9.0</ele><time>2026-05-01T13:09:37.201Z</time></trkpt><trkpt lat="38.9709307" lon="8.9748716"><ele>9.0</ele><time>2026-05-01T13:09:38.201Z</time></trkpt><trkpt lat="38.9710196" lon="8.9747819"><ele>9.0</ele><time>2026-05-01T13:09:39.201Z</time></trkpt><trkpt lat="38.9711104" lon="8.974693"><ele>9.0</ele><time>2026-05-01T13:09:40.2Z</time></trkpt><trkpt lat="38.9711951" lon="8.9746079"><ele>9.0</ele><time>2026-05-01T13:09:41.2Z</time></trkpt><trkpt lat="38.971282" lon="8.9745297"><ele>9.0</ele><time>2026-05-01T13:09:42.201Z</time></trkpt><trkpt lat="38.9713575" lon="8.9744531"><ele>9.0</ele><time>2026-05-01T13:09:43.2Z</time></trkpt><trkpt lat="38.9714411" lon="8.9743765"><ele>9.0</ele><time>2026-05-01T13:09:44.2Z</time></trkpt><trkpt lat="38.9715297" lon="8.9742939"><ele>9.0</ele><time>2026-05-01T13:09:45.2Z</time></trkpt><trkpt lat="38.9716115" lon="8.9742121"><ele>9.0</ele><time>2026-05-01T13:09:46.201Z</time></trkpt><trkpt lat="38.9716898" lon="8.9741316"><ele>9.0</ele><time>2026-05-01T13:09:47.201Z</time></trkpt><trkpt lat="38.9717742" lon="8.9740565"><ele>9.0</ele><time>2026-05-01T13:09:48.2Z</time></trkpt><trkpt lat="38.9718562" lon="8.9739991"><ele>9.0</ele><time>2026-05-01T13:09:49.201Z</time></trkpt><trkpt lat="38.9719341" lon="8.9739511"><ele>9.0</ele><time>2026-05-01T13:09:50.201Z</time></trkpt><trkpt lat="38.9720157" lon="8.973906"><ele>9.0</ele><time>2026-05-01T13:09:51.2Z</time></trkpt><trkpt lat="38.9720947" lon="8.9738525"><ele>9.0</ele><time>2026-05-01T13:09:52.201Z</time></trkpt><trkpt lat="38.9721689" lon="8.973794"><ele>9.0</ele><time>2026-05-01T13:09:53.201Z</time></trkpt><trkpt lat="38.9722383" lon="8.9737348"><ele>9.0</ele><time>2026-05-01T13:09:54.201Z</time></trkpt><trkpt lat="38.9722971" lon="8.9736786"><ele>9.0</ele><time>2026-05-01T13:09:55.2Z</time></trkpt><trkpt lat="38.9724194" lon="8.9736113"><ele>9.0</ele><time>2026-05-01T13:09:57.2Z</time></trkpt><trkpt lat="38.9724954" lon="8.9735954"><ele>9.0</ele><time>2026-05-01T13:09:58.201Z</time></trkpt><trkpt lat="38.9725779" lon="8.9736033"><ele>9.0</ele><time>2026-05-01T13:09:59.2Z</time></trkpt><trkpt lat="38.9726619" lon="8.9736398"><ele>9.0</ele><time>2026-05-01T13:10:00.201Z</time></trkpt><trkpt lat="38.9727464" lon="8.9736941"><ele>9.0</ele><time>2026-05-01T13:10:01.2Z</time></trkpt><trkpt lat="38.9728391" lon="8.9737626"><ele>10.0</ele><time>2026-05-01T13:10:02.2Z</time></trkpt><trkpt lat="38.9729315" lon="8.9738327"><ele>11.0</ele><time>2026-05-01T13:10:03.2Z</time></trkpt><trkpt lat="38.9730298" lon="8.9739121"><ele>12.0</ele><time>2026-05-01T13:10:04.201Z</time></trkpt><trkpt lat="38.9731329" lon="8.9739867"><ele>13.0</ele><time>2026-05-01T13:10:05.2Z</time></trkpt><trkpt lat="38.9732458" lon="8.9740673"><ele>12.75</ele><time>2026-05-01T13:10:06.201Z</time></trkpt><trkpt lat="38.9733569" lon="8.974147"><ele>12.5</ele><time>2026-05-01T13:10:07.2Z</time></trkpt><trkpt lat="38.973475" lon="8.9742295"><ele>12.25</ele><time>2026-05-01T13:10:08.201Z</time></trkpt><trkpt lat="38.973598" lon="8.9743146"><ele>12.0</ele><time>2026-05-01T13:10:09.2Z</time></trkpt><trkpt lat="38.9737235" lon="8.974406"><ele>11.75</ele><time>2026-05-01T13:10:10.201Z</time></trkpt><trkpt lat="38.9738523" lon="8.9745007"><ele>11.5</ele><time>2026-05-01T13:10:11.2Z</time></trkpt><trkpt lat="38.9739821" lon="8.9745911"><ele>11.25</ele><time>2026-05-01T13:10:12.201Z</time></trkpt><trkpt lat="38.9741144" lon="8.974685"><ele>11.0</ele><time>2026-05-01T13:10:13.2Z</time></trkpt><trkpt lat="38.9742483" lon="8.9747803"><ele>12.0</ele><time>2026-05-01T13:10:14.2Z</time></trkpt><trkpt lat="38.9743814" lon="8.974878"><ele>13.0</ele><time>2026-05-01T13:10:15.201Z</time></trkpt><trkpt lat="38.9745126" lon="8.9749757"><ele>14.0</ele><time>2026-05-01T13:10:16.201Z</time></trkpt><trkpt lat="38.9746424" lon="8.9750795"><ele>14.0</ele><time>2026-05-01T13:10:17.201Z</time></trkpt><trkpt lat="38.9747749" lon="8.9751718"><ele>14.0</ele><time>2026-05-01T13:10:18.2Z</time></trkpt><trkpt lat="38.9749081" lon="8.9752688"><ele>14.0</ele><time>2026-05-01T13:10:19.2Z</time></trkpt><trkpt lat="38.9750461" lon="8.9753707"><ele>15.333333333333334</ele><time>2026-05-01T13:10:20.201Z</time></trkpt><trkpt lat="38.9751817" lon="8.9754734"><ele>16.666666666666668</ele><time>2026-05-01T13:10:21.201Z</time></trkpt><trkpt lat="38.9753215" lon="8.975572"><ele>18.0</ele><time>2026-05-01T13:10:22.201Z</time></trkpt><trkpt lat="38.9754642" lon="8.9756763"><ele>18.0</ele><time>2026-05-01T13:10:23.201Z</time></trkpt><trkpt lat="38.9756039" lon="8.97578"><ele>18.0</ele><time>2026-05-01T13:10:24.201Z</time></trkpt><trkpt lat="38.9757439" lon="8.9758839"><ele>18.0</ele><time>2026-05-01T13:10:25.2Z</time></trkpt><trkpt lat="38.9758863" lon="8.975997"><ele>17.666666666666668</ele><time>2026-05-01T13:10:26.2Z</time></trkpt><trkpt lat="38.9760244" lon="8.9761058"><ele>17.333333333333336</ele><time>2026-05-01T13:10:27.2Z</time></trkpt><trkpt lat="38.9761646" lon="8.9762238"><ele>17.0</ele><time>2026-05-01T13:10:28.201Z</time></trkpt><trkpt lat="38.9763013" lon="8.9763477"><ele>17.0</ele><time>2026-05-01T13:10:29.201Z</time></trkpt><trkpt lat="38.9764384" lon="8.9764744"><ele>17.0</ele><time>2026-05-01T13:10:30.2Z</time></trkpt><trkpt lat="38.9765668" lon="8.9765998"><ele>17.0</ele><time>2026-05-01T13:10:31.2Z</time></trkpt><trkpt lat="38.9767014" lon="8.9767365"><ele>16.666666666666668</ele><time>2026-05-01T13:10:32.201Z</time></trkpt><trkpt lat="38.9768381" lon="8.976877"><ele>16.333333333333332</ele><time>2026-05-01T13:10:33.201Z</time></trkpt><trkpt lat="38.9769814" lon="8.9770237"><ele>16.0</ele><time>2026-05-01T13:10:34.201Z</time></trkpt><trkpt lat="38.9771287" lon="8.9771722"><ele>16.0</ele><time>2026-05-01T13:10:35.201Z</time></trkpt><trkpt lat="38.9772867" lon="8.9773256"><ele>16.0</ele><time>2026-05-01T13:10:36.2Z</time></trkpt><trkpt lat="38.9774427" lon="8.9774861"><ele>16.0</ele><time>2026-05-01T13:10:37.201Z</time></trkpt><trkpt lat="38.9776014" lon="8.9776589"><ele>15.333333333333332</ele><time>2026-05-01T13:10:38.201Z</time></trkpt><trkpt lat="38.9777694" lon="8.9778265"><ele>14.666666666666668</ele><time>2026-05-01T13:10:39.201Z</time></trkpt><trkpt lat="38.9779287" lon="8.9779897"><ele>14.0</ele><time>2026-05-01T13:10:40.201Z</time></trkpt><trkpt lat="38.9780907" lon="8.9781506"><ele>14.0</ele><time>2026-05-01T13:10:41.201Z</time></trkpt><trkpt lat="38.9782493" lon="8.9783139"><ele>14.0</ele><time>2026-05-01T13:10:42.201Z</time></trkpt><trkpt lat="38.9784115" lon="8.9784783"><ele>14.0</ele><time>2026-05-01T13:10:43.201Z</time></trkpt><trkpt lat="38.9785721" lon="8.9786408"><ele>14.333333333333334</ele><time>2026-05-01T13:10:44.2Z</time></trkpt><trkpt lat="38.9787345" lon="8.9788052"><ele>14.666666666666668</ele><time>2026-05-01T13:10:45.2Z</time></trkpt><trkpt lat="38.978894" lon="8.9789674"><ele>15.0</ele><time>2026-05-01T13:10:46.2Z</time></trkpt><trkpt lat="38.9790564" lon="8.9791305"><ele>13.0</ele><time>2026-05-01T13:10:47.201Z</time></trkpt><trkpt lat="38.9792242" lon="8.9792985"><ele>11.0</ele><time>2026-05-01T13:10:48.2Z</time></trkpt><trkpt lat="38.979387" lon="8.9794631"><ele>9.0</ele><time>2026-05-01T13:10:49.2Z</time></trkpt><trkpt lat="38.979555" lon="8.9796323"><ele>9.0</ele><time>2026-05-01T13:10:50.2Z</time></trkpt><trkpt lat="38.9797206" lon="8.9797997"><ele>9.0</ele><time>2026-05-01T13:10:51.201Z</time></trkpt><trkpt lat="38.9798861" lon="8.9799691"><ele>9.0</ele><time>2026-05-01T13:10:52.201Z</time></trkpt><trkpt lat="38.9800506" lon="8.9801373"><ele>9.0</ele><time>2026-05-01T13:10:53.201Z</time></trkpt><trkpt lat="38.9802184" lon="8.9803081"><ele>9.0</ele><time>2026-05-01T13:10:54.201Z</time></trkpt><trkpt lat="38.9803935" lon="8.9804829"><ele>9.0</ele><time>2026-05-01T13:10:55.201Z</time></trkpt><trkpt lat="38.9805684" lon="8.9806594"><ele>9.0</ele><time>2026-05-01T13:10:56.201Z</time></trkpt><trkpt lat="38.9807447" lon="8.9808387"><ele>9.0</ele><time>2026-05-01T13:10:57.201Z</time></trkpt><trkpt lat="38.9809228" lon="8.9810209"><ele>8.5</ele><time>2026-05-01T13:10:58.2Z</time></trkpt><trkpt lat="38.9811028" lon="8.9812048"><ele>8.0</ele><time>2026-05-01T13:10:59.201Z</time></trkpt><trkpt lat="38.9812864" lon="8.9813906"><ele>8.0</ele><time>2026-05-01T13:11:00.2Z</time></trkpt><trkpt lat="38.9814681" lon="8.981576"><ele>8.0</ele><time>2026-05-01T13:11:01.201Z</time></trkpt><trkpt lat="38.9816535" lon="8.9817627"><ele>7.5</ele><time>2026-05-01T13:11:02.2Z</time></trkpt><trkpt lat="38.9818348" lon="8.9819468"><ele>7.0</ele><time>2026-05-01T13:11:03.2Z</time></trkpt><trkpt lat="38.9820231" lon="8.9821328"><ele>7.0</ele><time>2026-05-01T13:11:04.2Z</time></trkpt><trkpt lat="38.9822085" lon="8.982321"><ele>7.0</ele><time>2026-05-01T13:11:05.2Z</time></trkpt><trkpt lat="38.9823901" lon="8.9825032"><ele>6.5</ele><time>2026-05-01T13:11:06.2Z</time></trkpt><trkpt lat="38.9825764" lon="8.9826897"><ele>6.0</ele><time>2026-05-01T13:11:07.201Z</time></trkpt><trkpt lat="38.9827599" lon="8.9828776"><ele>6.0</ele><time>2026-05-01T13:11:08.201Z</time></trkpt><trkpt lat="38.982944" lon="8.9830613"><ele>6.0</ele><time>2026-05-01T13:11:09.2Z</time></trkpt><trkpt lat="38.9831288" lon="8.983246"><ele>5.0</ele><time>2026-05-01T13:11:10.201Z</time></trkpt><trkpt lat="38.9833085" lon="8.9834265"><ele>4.0</ele><time>2026-05-01T13:11:11.201Z</time></trkpt><trkpt lat="38.9834854" lon="8.9836071"><ele>4.0</ele><time>2026-05-01T13:11:12.201Z</time></trkpt><trkpt lat="38.983661" lon="8.9837868"><ele>4.0</ele><time>2026-05-01T13:11:13.201Z</time></trkpt><trkpt lat="38.9838323" lon="8.983967"><ele>4.0</ele><time>2026-05-01T13:11:14.2Z</time></trkpt><trkpt lat="38.9840037" lon="8.9841416"><ele>3.6666666666666665</ele><time>2026-05-01T13:11:15.2Z</time></trkpt><trkpt lat="38.9841791" lon="8.9843179"><ele>3.333333333333333</ele><time>2026-05-01T13:11:16.2Z</time></trkpt><trkpt lat="38.984351" lon="8.9844906"><ele>3.0</ele><time>2026-05-01T13:11:17.2Z</time></trkpt><trkpt lat="38.9845248" lon="8.9846676"><ele>3.666666666666667</ele><time>2026-05-01T13:11:18.201Z</time></trkpt><trkpt lat="38.9847032" lon="8.9848459"><ele>4.333333333333334</ele><time>2026-05-01T13:11:19.201Z</time></trkpt><trkpt lat="38.9848789" lon="8.9850233"><ele>5.0</ele><time>2026-05-01T13:11:20.2Z</time></trkpt><trkpt lat="38.985049" lon="8.9852005"><ele>6.0</ele><time>2026-05-01T13:11:21.201Z</time></trkpt><trkpt lat="38.9852214" lon="8.9853748"><ele>7.0</ele><time>2026-05-01T13:11:22.201Z</time></trkpt><trkpt lat="38.9853946" lon="8.9855506"><ele>8.0</ele><time>2026-05-01T13:11:23.201Z</time></trkpt><trkpt lat="38.9855683" lon="8.9857262"><ele>7.5</ele><time>2026-05-01T13:11:24.201Z</time></trkpt><trkpt lat="38.9857498" lon="8.9859023"><ele>7.0</ele><time>2026-05-01T13:11:25.201Z</time></trkpt><trkpt lat="38.9859266" lon="8.9860806"><ele>7.0</ele><time>2026-05-01T13:11:26.201Z</time></trkpt><trkpt lat="38.9860993" lon="8.9862583"><ele>7.0</ele><time>2026-05-01T13:11:27.201Z</time></trkpt><trkpt lat="38.9862763" lon="8.9864373"><ele>7.0</ele><time>2026-05-01T13:11:28.2Z</time></trkpt><trkpt lat="38.9864521" lon="8.9866158"><ele>6.5</ele><time>2026-05-01T13:11:29.201Z</time></trkpt><trkpt lat="38.9866276" lon="8.9867957"><ele>6.0</ele><time>2026-05-01T13:11:30.2Z</time></trkpt><trkpt lat="38.9868065" lon="8.9869731"><ele>6.0</ele><time>2026-05-01T13:11:31.2Z</time></trkpt><trkpt lat="38.9869852" lon="8.9871545"><ele>6.0</ele><time>2026-05-01T13:11:32.2Z</time></trkpt><trkpt lat="38.9871656" lon="8.9873389"><ele>6.0</ele><time>2026-05-01T13:11:33.201Z</time></trkpt><trkpt lat="38.9873471" lon="8.9875242"><ele>6.0</ele><time>2026-05-01T13:11:34.201Z</time></trkpt><trkpt lat="38.987533" lon="8.9877116"><ele>6.0</ele><time>2026-05-01T13:11:35.2Z</time></trkpt><trkpt lat="38.9877165" lon="8.9878971"><ele>6.0</ele><time>2026-05-01T13:11:36.201Z</time></trkpt><trkpt lat="38.987898" lon="8.9880826"><ele>6.0</ele><time>2026-05-01T13:11:37.2Z</time></trkpt><trkpt lat="38.9880772" lon="8.988266"><ele>6.0</ele><time>2026-05-01T13:11:38.201Z</time></trkpt><trkpt lat="38.988256" lon="8.988445"><ele>6.666666666666666</ele><time>2026-05-01T13:11:39.2Z</time></trkpt><trkpt lat="38.9884289" lon="8.9886181"><ele>7.333333333333333</ele><time>2026-05-01T13:11:40.201Z</time></trkpt><trkpt lat="38.9886045" lon="8.9887933"><ele>8.0</ele><time>2026-05-01T13:11:41.2Z</time></trkpt><trkpt lat="38.9887787" lon="8.9889622"><ele>8.0</ele><time>2026-05-01T13:11:42.201Z</time></trkpt><trkpt lat="38.9889559" lon="8.9891361"><ele>8.0</ele><time>2026-05-01T13:11:43.201Z</time></trkpt><trkpt lat="38.9891202" lon="8.9893028"><ele>8.0</ele><time>2026-05-01T13:11:44.201Z</time></trkpt><trkpt lat="38.9892814" lon="8.9894691"><ele>7.666666666666666</ele><time>2026-05-01T13:11:45.2Z</time></trkpt><trkpt lat="38.9894451" lon="8.9896351"><ele>7.333333333333334</ele><time>2026-05-01T13:11:46.2Z</time></trkpt><trkpt lat="38.9896064" lon="8.9897993"><ele>7.0</ele><time>2026-05-01T13:11:47.2Z</time></trkpt><trkpt lat="38.9897663" lon="8.9899649"><ele>6.666666666666667</ele><time>2026-05-01T13:11:48.2Z</time></trkpt><trkpt lat="38.9899322" lon="8.9901306"><ele>6.333333333333334</ele><time>2026-05-01T13:11:49.2Z</time></trkpt><trkpt lat="38.9900916" lon="8.9902924"><ele>6.0</ele><time>2026-05-01T13:11:50.2Z</time></trkpt><trkpt lat="38.9902546" lon="8.9904564"><ele>6.333333333333334</ele><time>2026-05-01T13:11:51.201Z</time></trkpt><trkpt lat="38.9904185" lon="8.9906202"><ele>6.666666666666667</ele><time>2026-05-01T13:11:52.201Z</time></trkpt><trkpt lat="38.9905929" lon="8.9907799"><ele>7.0</ele><time>2026-05-01T13:11:53.201Z</time></trkpt><trkpt lat="38.9907769" lon="8.990937"><ele>6.333333333333334</ele><time>2026-05-01T13:11:54.201Z</time></trkpt><trkpt lat="38.9909563" lon="8.9910845"><ele>5.666666666666667</ele><time>2026-05-01T13:11:55.201Z</time></trkpt><trkpt lat="38.9911424" lon="8.991227"><ele>5.0</ele><time>2026-05-01T13:11:56.2Z</time></trkpt><trkpt lat="38.9913341" lon="8.9913632"><ele>5.0</ele><time>2026-05-01T13:11:57.2Z</time></trkpt><trkpt lat="38.9915283" lon="8.9914936"><ele>5.0</ele><time>2026-05-01T13:11:58.2Z</time></trkpt><trkpt lat="38.9917244" lon="8.991625"><ele>5.0</ele><time>2026-05-01T13:11:59.201Z</time></trkpt><trkpt lat="38.9919232" lon="8.9917569"><ele>5.5</ele><time>2026-05-01T13:12:00.201Z</time></trkpt><trkpt lat="38.9921278" lon="8.9918956"><ele>6.0</ele><time>2026-05-01T13:12:01.201Z</time></trkpt><trkpt lat="38.9923347" lon="8.992036"><ele>6.333333333333334</ele><time>2026-05-01T13:12:02.2Z</time></trkpt><trkpt lat="38.9925341" lon="8.99217"><ele>6.666666666666667</ele><time>2026-05-01T13:12:03.2Z</time></trkpt><trkpt lat="38.9927338" lon="8.9922991"><ele>7.0</ele><time>2026-05-01T13:12:04.2Z</time></trkpt><trkpt lat="38.9929264" lon="8.9924298"><ele>7.333333333333334</ele><time>2026-05-01T13:12:05.2Z</time></trkpt><trkpt lat="38.9931147" lon="8.9925576"><ele>7.666666666666666</ele><time>2026-05-01T13:12:06.201Z</time></trkpt><trkpt lat="38.9933062" lon="8.9926885"><ele>8.0</ele><time>2026-05-01T13:12:07.201Z</time></trkpt><trkpt lat="38.9934948" lon="8.9928186"><ele>8.333333333333332</ele><time>2026-05-01T13:12:08.201Z</time></trkpt><trkpt lat="38.9936838" lon="8.9929454"><ele>8.666666666666666</ele><time>2026-05-01T13:12:09.2Z</time></trkpt><trkpt lat="38.9938772" lon="8.9930769"><ele>9.0</ele><time>2026-05-01T13:12:10.201Z</time></trkpt><trkpt lat="38.9940641" lon="8.9932056"><ele>9.0</ele><time>2026-05-01T13:12:11.2Z</time></trkpt><trkpt lat="38.9942507" lon="8.9933337"><ele>9.0</ele><time>2026-05-01T13:12:12.201Z</time></trkpt><trkpt lat="38.994435" lon="8.9934573"><ele>9.0</ele><time>2026-05-01T13:12:13.2Z</time></trkpt><trkpt lat="38.9946035" lon="8.9935736"><ele>9.0</ele><time>2026-05-01T13:12:14.201Z</time></trkpt><trkpt lat="38.9947715" lon="8.9936872"><ele>9.0</ele><time>2026-05-01T13:12:15.2Z</time></trkpt><trkpt lat="38.9949223" lon="8.9937881"><ele>9.0</ele><time>2026-05-01T13:12:16.201Z</time></trkpt><trkpt lat="38.9950758" lon="8.9938905"><ele>9.0</ele><time>2026-05-01T13:12:17.201Z</time></trkpt><trkpt lat="38.9952134" lon="8.9939881"><ele>9.0</ele><time>2026-05-01T13:12:18.201Z</time></trkpt><trkpt lat="38.9953575" lon="8.9940839"><ele>9.0</ele><time>2026-05-01T13:12:19.2Z</time></trkpt><trkpt lat="38.995493" lon="8.9941767"><ele>8.5</ele><time>2026-05-01T13:12:20.201Z</time></trkpt><trkpt lat="38.995626" lon="8.9942695"><ele>8.0</ele><time>2026-05-01T13:12:21.201Z</time></trkpt><trkpt lat="38.9957435" lon="8.994351"><ele>7.5</ele><time>2026-05-01T13:12:22.201Z</time></trkpt><trkpt lat="38.9958432" lon="8.9944193"><ele>7.0</ele><time>2026-05-01T13:12:23.2Z</time></trkpt><trkpt lat="38.9959446" lon="8.9944884"><ele>7.0</ele><time>2026-05-01T13:12:24.201Z</time></trkpt><trkpt lat="38.9960321" lon="8.9945686"><ele>6.999999999999999</ele><time>2026-05-01T13:12:25.2Z</time></trkpt><trkpt lat="38.9961001" lon="8.9946555"><ele>6.999999999999999</ele><time>2026-05-01T13:12:26.2Z</time></trkpt><trkpt lat="38.996159" lon="8.9947427"><ele>7.0</ele><time>2026-05-01T13:12:27.2Z</time></trkpt><trkpt lat="38.9962228" lon="8.9948052"><ele>7.0</ele><time>2026-05-01T13:12:28.2Z</time></trkpt><trkpt lat="38.9962945" lon="8.9948419"><ele>7.0</ele><time>2026-05-01T13:12:29.2Z</time></trkpt><trkpt lat="38.9963829" lon="8.9948465"><ele>6.999999999999999</ele><time>2026-05-01T13:12:30.2Z</time></trkpt><trkpt lat="38.9964761" lon="8.9948742"><ele>6.999999999999999</ele><time>2026-05-01T13:12:31.201Z</time></trkpt><trkpt lat="38.9965846" lon="8.9949261"><ele>7.0</ele><time>2026-05-01T13:12:32.201Z</time></trkpt><trkpt lat="38.9966962" lon="8.9949979"><ele>7.0</ele><time>2026-05-01T13:12:33.2Z</time></trkpt><trkpt lat="38.9968203" lon="8.9950886"><ele>7.333333333333334</ele><time>2026-05-01T13:12:34.201Z</time></trkpt><trkpt lat="38.9969552" lon="8.9951911"><ele>7.666666666666666</ele><time>2026-05-01T13:12:35.201Z</time></trkpt><trkpt lat="38.9970988" lon="8.9952917"><ele>8.0</ele><time>2026-05-01T13:12:36.201Z</time></trkpt><trkpt lat="38.9972482" lon="8.9953865"><ele>8.0</ele><time>2026-05-01T13:12:37.2Z</time></trkpt><trkpt lat="38.9974051" lon="8.9954905"><ele>8.0</ele><time>2026-05-01T13:12:38.201Z</time></trkpt><trkpt lat="38.9975661" lon="8.9955965"><ele>8.0</ele><time>2026-05-01T13:12:39.201Z</time></trkpt><trkpt lat="38.9977318" lon="8.9957051"><ele>8.0</ele><time>2026-05-01T13:12:40.2Z</time></trkpt><trkpt lat="38.9978974" lon="8.9958143"><ele>8.0</ele><time>2026-05-01T13:12:41.201Z</time></trkpt><trkpt lat="38.9980684" lon="8.9959319"><ele>8.0</ele><time>2026-05-01T13:12:42.2Z</time></trkpt><trkpt lat="38.9982405" lon="8.9960467"><ele>9.0</ele><time>2026-05-01T13:12:43.201Z</time></trkpt><trkpt lat="38.9984094" lon="8.9961636"><ele>10.0</ele><time>2026-05-01T13:12:44.201Z</time></trkpt><trkpt lat="38.9985782" lon="8.9962726"><ele>11.0</ele><time>2026-05-01T13:12:45.201Z</time></trkpt><trkpt lat="38.9987424" lon="8.9963817"><ele>11.0</ele><time>2026-05-01T13:12:46.201Z</time></trkpt><trkpt lat="38.9989071" lon="8.9964972"><ele>11.0</ele><time>2026-05-01T13:12:47.2Z</time></trkpt><trkpt lat="38.9990669" lon="8.9966098"><ele>11.0</ele><time>2026-05-01T13:12:48.2Z</time></trkpt><trkpt lat="38.9992408" lon="8.9967231"><ele>10.0</ele><time>2026-05-01T13:12:49.2Z</time></trkpt><trkpt lat="38.9994118" lon="8.9968359"><ele>9.0</ele><time>2026-05-01T13:12:50.201Z</time></trkpt><trkpt lat="38.9995847" lon="8.9969547"><ele>8.0</ele><time>2026-05-01T13:12:51.201Z</time></trkpt><trkpt lat="38.9997679" lon="8.997077"><ele>8.0</ele><time>2026-05-01T13:12:52.2Z</time></trkpt><trkpt lat="38.9999468" lon="8.9971989"><ele>8.0</ele><time>2026-05-01T13:12:53.201Z</time></trkpt><trkpt lat="39.0001206" lon="8.9973186"><ele>8.0</ele><time>2026-05-01T13:12:54.2Z</time></trkpt><trkpt lat="39.0002947" lon="8.997436"><ele>8.333333333333332</ele><time>2026-05-01T13:12:55.201Z</time></trkpt><trkpt lat="39.0004748" lon="8.997547"><ele>8.666666666666666</ele><time>2026-05-01T13:12:56.2Z</time></trkpt><trkpt lat="39.0006551" lon="8.9976503"><ele>9.0</ele><time>2026-05-01T13:12:57.201Z</time></trkpt><trkpt lat="39.0008302" lon="8.9977391"><ele>9.666666666666666</ele><time>2026-05-01T13:12:58.2Z</time></trkpt><trkpt lat="39.0009982" lon="8.9978209"><ele>10.333333333333332</ele><time>2026-05-01T13:12:59.2Z</time></trkpt><trkpt lat="39.0011673" lon="8.9978949"><ele>11.0</ele><time>2026-05-01T13:13:00.201Z</time></trkpt><trkpt lat="39.001339" lon="8.997961"><ele>11.0</ele><time>2026-05-01T13:13:01.2Z</time></trkpt><trkpt lat="39.0015146" lon="8.9980228"><ele>11.0</ele><time>2026-05-01T13:13:02.201Z</time></trkpt><trkpt lat="39.0016918" lon="8.998074"><ele>11.0</ele><time>2026-05-01T13:13:03.201Z</time></trkpt><trkpt lat="39.0018647" lon="8.9981139"><ele>11.0</ele><time>2026-05-01T13:13:04.201Z</time></trkpt><trkpt lat="39.0020291" lon="8.9981488"><ele>11.0</ele><time>2026-05-01T13:13:05.201Z</time></trkpt><trkpt lat="39.002164" lon="8.9981677"><ele>11.0</ele><time>2026-05-01T13:13:06.201Z</time></trkpt><trkpt lat="39.0022959" lon="8.9981803"><ele>11.0</ele><time>2026-05-01T13:13:07.2Z</time></trkpt><trkpt lat="39.0024261" lon="8.9981901"><ele>10.75</ele><time>2026-05-01T13:13:08.2Z</time></trkpt><trkpt lat="39.0025579" lon="8.998195"><ele>10.5</ele><time>2026-05-01T13:13:09.201Z</time></trkpt><trkpt lat="39.0026827" lon="8.9981979"><ele>10.25</ele><time>2026-05-01T13:13:10.2Z</time></trkpt><trkpt lat="39.0027943" lon="8.9982072"><ele>10.0</ele><time>2026-05-01T13:13:11.201Z</time></trkpt><trkpt lat="39.0028944" lon="8.9982277"><ele>10.0</ele><time>2026-05-01T13:13:12.201Z</time></trkpt><trkpt lat="39.0029845" lon="8.9982797"><ele>10.0</ele><time>2026-05-01T13:13:13.2Z</time></trkpt><trkpt lat="39.0030536" lon="8.9983484"><ele>10.0</ele><time>2026-05-01T13:13:14.201Z</time></trkpt><trkpt lat="39.0031017" lon="8.9984317"><ele>10.0</ele><time>2026-05-01T13:13:15.201Z</time></trkpt><trkpt lat="39.0031188" lon="8.9985357"><ele>10.0</ele><time>2026-05-01T13:13:16.201Z</time></trkpt><trkpt lat="39.0031323" lon="8.9986555"><ele>10.0</ele><time>2026-05-01T13:13:17.2Z</time></trkpt><trkpt lat="39.0031484" lon="8.9987863"><ele>10.5</ele><time>2026-05-01T13:13:18.2Z</time></trkpt><trkpt lat="39.0031695" lon="8.9989122"><ele>11.0</ele><time>2026-05-01T13:13:19.2Z</time></trkpt><trkpt lat="39.0032017" lon="8.9990338"><ele>11.5</ele><time>2026-05-01T13:13:20.2Z</time></trkpt><trkpt lat="39.0032375" lon="8.9991446"><ele>12.0</ele><time>2026-05-01T13:13:21.2Z</time></trkpt><trkpt lat="39.0032721" lon="8.9992448"><ele>12.499999999999998</ele><time>2026-05-01T13:13:22.201Z</time></trkpt><trkpt lat="39.0033009" lon="8.999326"><ele>13.0</ele><time>2026-05-01T13:13:23.201Z</time></trkpt><trkpt lat="39.0033397" lon="8.9994671"><ele>13.0</ele><time>2026-05-01T13:13:25.2Z</time></trkpt><trkpt lat="39.003408" lon="8.9995873"><ele>13.0</ele><time>2026-05-01T13:13:27.201Z</time></trkpt><trkpt lat="39.0035123" lon="8.9996625"><ele>13.0</ele><time>2026-05-01T13:13:29.201Z</time></trkpt><trkpt lat="39.0035734" lon="8.9997129"><ele>13.0</ele><time>2026-05-01T13:13:30.2Z</time></trkpt><trkpt lat="39.0036254" lon="8.9997587"><ele>13.0</ele><time>2026-05-01T13:13:31.2Z</time></trkpt><trkpt lat="39.0037272" lon="8.999835"><ele>13.0</ele><time>2026-05-01T13:13:33.201Z</time></trkpt><trkpt lat="39.0038322" lon="8.9999083"><ele>13.0</ele><time>2026-05-01T13:13:35.201Z</time></trkpt><trkpt lat="39.0039015" lon="8.9999602"><ele>13.0</ele><time>2026-05-01T13:13:37.201Z</time></trkpt><trkpt lat="39.00397" lon="9.0000079"><ele>13.0</ele><time>2026-05-01T13:13:40.2Z</time></trkpt><trkpt lat="39.0040454" lon="9.0000727"><ele>13.0</ele><time>2026-05-01T13:13:43.201Z</time></trkpt><trkpt lat="39.0041227" lon="9.000123"><ele>13.0</ele><time>2026-05-01T13:13:45.2Z</time></trkpt><trkpt lat="39.0042087" lon="9.0001673"><ele>13.0</ele><time>2026-05-01T13:13:47.201Z</time></trkpt><trkpt lat="39.00427" lon="9.0002071"><ele>13.0</ele><time>2026-05-01T13:13:48.2Z</time></trkpt><trkpt lat="39.0043664" lon="9.0002744"><ele>13.0</ele><time>2026-05-01T13:13:50.201Z</time></trkpt><trkpt lat="39.0044552" lon="9.0003362"><ele>13.0</ele><time>2026-05-01T13:13:52.201Z</time></trkpt><trkpt lat="39.0045256" lon="9.0003923"><ele>12.999999999999998</ele><time>2026-05-01T13:13:54.2Z</time></trkpt><trkpt lat="39.004599" lon="9.0004402"><ele>13.0</ele><time>2026-05-01T13:13:57.201Z</time></trkpt><trkpt lat="39.0046684" lon="9.0004767"><ele>13.0</ele><time>2026-05-01T13:14:00.2Z</time></trkpt><trkpt lat="39.0047326" lon="9.0005116"><ele>13.0</ele><time>2026-05-01T13:14:02.201Z</time></trkpt><trkpt lat="39.0048069" lon="9.0005525"><ele>12.999999999999998</ele><time>2026-05-01T13:14:04.2Z</time></trkpt><trkpt lat="39.0048794" lon="9.0005995"><ele>13.0</ele><time>2026-05-01T13:14:06.201Z</time></trkpt><trkpt lat="39.0049379" lon="9.0006415"><ele>12.999999999999998</ele><time>2026-05-01T13:14:08.201Z</time></trkpt><trkpt lat="39.0050134" lon="9.0006517"><ele>13.0</ele><time>2026-05-01T13:14:11.2Z</time></trkpt><trkpt lat="39.0050564" lon="9.0005768"><ele>13.0</ele><time>2026-05-01T13:14:15.201Z</time></trkpt><trkpt lat="39.0049476" lon="9.0006097"><ele>13.0</ele><time>2026-05-01T14:24:20.2Z</time></trkpt><trkpt lat="39.004902" lon="9.0006678"><ele>12.999999999999998</ele><time>2026-05-01T14:32:06.2Z</time></trkpt><trkpt lat="39.004978" lon="9.0006517"><ele>13.0</ele><time>2026-05-01T14:34:54.201Z</time></trkpt><trkpt lat="39.0050565" lon="9.0006088"><ele>12.999999999999998</ele><time>2026-05-01T14:38:11.197Z</time></trkpt><trkpt lat="39.0049846" lon="9.0006536"><ele>13.0</ele><time>2026-05-01T14:42:11.197Z</time></trkpt><trkpt lat="39.0049163" lon="9.0006146"><ele>13.0</ele><time>2026-05-01T14:42:14.196Z</time></trkpt><trkpt lat="39.0048497" lon="9.0005618"><ele>13.0</ele><time>2026-05-01T14:42:18.196Z</time></trkpt><trkpt lat="39.0047744" lon="9.0005108"><ele>12.999999999999998</ele><time>2026-05-01T14:42:20.197Z</time></trkpt><trkpt lat="39.0046753" lon="9.0004504"><ele>13.0</ele><time>2026-05-01T14:42:22.196Z</time></trkpt><trkpt lat="39.0045577" lon="9.0003769"><ele>13.0</ele><time>2026-05-01T14:42:24.197Z</time></trkpt><trkpt lat="39.0044474" lon="9.000297"><ele>13.0</ele><time>2026-05-01T14:42:26.197Z</time></trkpt><trkpt lat="39.0043838" lon="9.0002583"><ele>13.0</ele><time>2026-05-01T14:42:27.197Z</time></trkpt><trkpt lat="39.0043221" lon="9.0002189"><ele>13.0</ele><time>2026-05-01T14:42:28.197Z</time></trkpt><trkpt lat="39.0042181" lon="9.0001459"><ele>13.0</ele><time>2026-05-01T14:42:30.197Z</time></trkpt><trkpt lat="39.0041486" lon="9.0001019"><ele>12.999999999999998</ele><time>2026-05-01T14:42:32.196Z</time></trkpt><trkpt lat="39.004084" lon="9.0000638"><ele>13.0</ele><time>2026-05-01T14:42:34.196Z</time></trkpt><trkpt lat="39.0039863" lon="8.9999996"><ele>13.0</ele><time>2026-05-01T14:42:36.197Z</time></trkpt><trkpt lat="39.003929" lon="8.999958"><ele>13.0</ele><time>2026-05-01T14:42:37.196Z</time></trkpt><trkpt lat="39.0038684" lon="8.9999142"><ele>12.999999999999998</ele><time>2026-05-01T14:42:38.196Z</time></trkpt><trkpt lat="39.0038048" lon="8.9998673"><ele>13.0</ele><time>2026-05-01T14:42:39.197Z</time></trkpt><trkpt lat="39.0037369" lon="8.9998185"><ele>12.999999999999998</ele><time>2026-05-01T14:42:40.197Z</time></trkpt><trkpt lat="39.0036663" lon="8.9997713"><ele>13.0</ele><time>2026-05-01T14:42:41.197Z</time></trkpt><trkpt lat="39.0036008" lon="8.999721"><ele>13.0</ele><time>2026-05-01T14:42:42.197Z</time></trkpt><trkpt lat="39.0035384" lon="8.9996572"><ele>13.0</ele><time>2026-05-01T14:42:43.196Z</time></trkpt><trkpt lat="39.0034909" lon="8.9995839"><ele>12.999999999999998</ele><time>2026-05-01T14:42:44.197Z</time></trkpt><trkpt lat="39.0034374" lon="8.9995086"><ele>13.0</ele><time>2026-05-01T14:42:45.196Z</time></trkpt><trkpt lat="39.0033766" lon="8.9994359"><ele>12.999999999999998</ele><time>2026-05-01T14:42:46.197Z</time></trkpt><trkpt lat="39.0033228" lon="8.9993481"><ele>13.0</ele><time>2026-05-01T14:42:47.197Z</time></trkpt><trkpt lat="39.0032778" lon="8.9992528"><ele>13.0</ele><time>2026-05-01T14:42:48.196Z</time></trkpt><trkpt lat="39.0032394" lon="8.999152"><ele>13.0</ele><time>2026-05-01T14:42:49.197Z</time></trkpt><trkpt lat="39.0032064" lon="8.9990507"><ele>12.999999999999998</ele><time>2026-05-01T14:42:50.196Z</time></trkpt><trkpt lat="39.0031786" lon="8.9989469"><ele>13.0</ele><time>2026-05-01T14:42:51.196Z</time></trkpt><trkpt lat="39.0031593" lon="8.9988423"><ele>13.0</ele><time>2026-05-01T14:42:52.197Z</time></trkpt><trkpt lat="39.0031491" lon="8.9987422"><ele>13.0</ele><time>2026-05-01T14:42:53.196Z</time></trkpt><trkpt lat="39.0031425" lon="8.9986552"><ele>13.0</ele><time>2026-05-01T14:42:54.197Z</time></trkpt><trkpt lat="39.00314" lon="8.9985035"><ele>13.0</ele><time>2026-05-01T14:42:56.196Z</time></trkpt><trkpt lat="39.0031821" lon="8.9983649"><ele>13.0</ele><time>2026-05-01T14:42:58.196Z</time></trkpt><trkpt lat="39.0032642" lon="8.9982543"><ele>12.666666666666666</ele><time>2026-05-01T14:43:00.197Z</time></trkpt><trkpt lat="39.0033681" lon="8.9981824"><ele>12.333333333333332</ele><time>2026-05-01T14:43:02.197Z</time></trkpt><trkpt lat="39.0034854" lon="8.9981378"><ele>12.0</ele><time>2026-05-01T14:43:04.196Z</time></trkpt><trkpt lat="39.0035486" lon="8.998122"><ele>11.666666666666666</ele><time>2026-05-01T14:43:05.197Z</time></trkpt><trkpt lat="39.003612" lon="8.9981087"><ele>11.333333333333332</ele><time>2026-05-01T14:43:06.197Z</time></trkpt><trkpt lat="39.0036756" lon="8.9980948"><ele>11.0</ele><time>2026-05-01T14:43:07.197Z</time></trkpt><trkpt lat="39.0037394" lon="8.9980805"><ele>11.0</ele><time>2026-05-01T14:43:08.197Z</time></trkpt><trkpt lat="39.0038041" lon="8.9980643"><ele>11.0</ele><time>2026-05-01T14:43:09.196Z</time></trkpt><trkpt lat="39.003866" lon="8.9980488"><ele>11.0</ele><time>2026-05-01T14:43:10.197Z</time></trkpt><trkpt lat="39.0039299" lon="8.9980298"><ele>11.0</ele><time>2026-05-01T14:43:11.197Z</time></trkpt><trkpt lat="39.0039931" lon="8.9980085"><ele>11.0</ele><time>2026-05-01T14:43:12.196Z</time></trkpt><trkpt lat="39.0040579" lon="8.9979867"><ele>11.0</ele><time>2026-05-01T14:43:13.197Z</time></trkpt><trkpt lat="39.0041252" lon="8.9979736"><ele>11.0</ele><time>2026-05-01T14:43:14.196Z</time></trkpt><trkpt lat="39.0041935" lon="8.9979558"><ele>11.166666666666666</ele><time>2026-05-01T14:43:15.196Z</time></trkpt><trkpt lat="39.0042627" lon="8.9979321"><ele>11.333333333333332</ele><time>2026-05-01T14:43:16.196Z</time></trkpt><trkpt lat="39.0043357" lon="8.9979061"><ele>11.5</ele><time>2026-05-01T14:43:17.196Z</time></trkpt><trkpt lat="39.0044116" lon="8.9978757"><ele>11.666666666666666</ele><time>2026-05-01T14:43:18.197Z</time></trkpt><trkpt lat="39.0044917" lon="8.9978424"><ele>11.833333333333334</ele><time>2026-05-01T14:43:19.197Z</time></trkpt><trkpt lat="39.0045755" lon="8.9978049"><ele>12.0</ele><time>2026-05-01T14:43:20.196Z</time></trkpt><trkpt lat="39.0046628" lon="8.9977635"><ele>12.0</ele><time>2026-05-01T14:43:21.196Z</time></trkpt><trkpt lat="39.0047507" lon="8.9977195"><ele>12.0</ele><time>2026-05-01T14:43:22.197Z</time></trkpt><trkpt lat="39.0048434" lon="8.9976727"><ele>12.0</ele><time>2026-05-01T14:43:23.197Z</time></trkpt><trkpt lat="39.0049389" lon="8.997625"><ele>12.0</ele><time>2026-05-01T14:43:24.196Z</time></trkpt><trkpt lat="39.0050362" lon="8.9975757"><ele>12.0</ele><time>2026-05-01T14:43:25.197Z</time></trkpt><trkpt lat="39.0051374" lon="8.9975253"><ele>12.25</ele><time>2026-05-01T14:43:26.196Z</time></trkpt><trkpt lat="39.0052405" lon="8.9974749"><ele>12.5</ele><time>2026-05-01T14:43:27.196Z</time></trkpt><trkpt lat="39.0053464" lon="8.997422"><ele>12.75</ele><time>2026-05-01T14:43:28.196Z</time></trkpt><trkpt lat="39.0054535" lon="8.9973695"><ele>13.0</ele><time>2026-05-01T14:43:29.197Z</time></trkpt><trkpt lat="39.0055647" lon="8.9973188"><ele>13.0</ele><time>2026-05-01T14:43:30.196Z</time></trkpt><trkpt lat="39.0056821" lon="8.9972623"><ele>13.0</ele><time>2026-05-01T14:43:31.197Z</time></trkpt><trkpt lat="39.0058057" lon="8.9972031"><ele>13.0</ele><time>2026-05-01T14:43:32.196Z</time></trkpt><trkpt lat="39.0059226" lon="8.9971488"><ele>13.0</ele><time>2026-05-01T14:43:33.197Z</time></trkpt><trkpt lat="39.0060455" lon="8.9970953"><ele>13.0</ele><time>2026-05-01T14:43:34.197Z</time></trkpt><trkpt lat="39.0061793" lon="8.9970395"><ele>13.0</ele><time>2026-05-01T14:43:35.196Z</time></trkpt><trkpt lat="39.0063173" lon="8.9969769"><ele>13.0</ele><time>2026-05-01T14:43:36.196Z</time></trkpt><trkpt lat="39.006463" lon="8.9969081"><ele>13.0</ele><time>2026-05-01T14:43:37.197Z</time></trkpt><trkpt lat="39.0066179" lon="8.99683"><ele>13.333333333333332</ele><time>2026-05-01T14:43:38.197Z</time></trkpt><trkpt lat="39.0067849" lon="8.9967474"><ele>13.666666666666668</ele><time>2026-05-01T14:43:39.197Z</time></trkpt><trkpt lat="39.0069562" lon="8.9966615"><ele>14.0</ele><time>2026-05-01T14:43:40.197Z</time></trkpt><trkpt lat="39.0071338" lon="8.9965722"><ele>14.0</ele><time>2026-05-01T14:43:41.197Z</time></trkpt><trkpt lat="39.0073169" lon="8.9964802"><ele>14.0</ele><time>2026-05-01T14:43:42.197Z</time></trkpt><trkpt lat="39.0075027" lon="8.9963859"><ele>14.0</ele><time>2026-05-01T14:43:43.197Z</time></trkpt><trkpt lat="39.0076907" lon="8.9962871"><ele>14.333333333333334</ele><time>2026-05-01T14:43:44.196Z</time></trkpt><trkpt lat="39.0078815" lon="8.9961867"><ele>14.666666666666668</ele><time>2026-05-01T14:43:45.197Z</time></trkpt><trkpt lat="39.0080739" lon="8.9960832"><ele>15.0</ele><time>2026-05-01T14:43:46.197Z</time></trkpt><trkpt lat="39.0082684" lon="8.9959814"><ele>15.333333333333332</ele><time>2026-05-01T14:43:47.197Z</time></trkpt><trkpt lat="39.0084643" lon="8.9958801"><ele>15.666666666666666</ele><time>2026-05-01T14:43:48.196Z</time></trkpt><trkpt lat="39.0086613" lon="8.9957824"><ele>16.0</ele><time>2026-05-01T14:43:49.197Z</time></trkpt><trkpt lat="39.0088593" lon="8.9956866"><ele>16.0</ele><time>2026-05-01T14:43:50.197Z</time></trkpt><trkpt lat="39.0090575" lon="8.9955892"><ele>16.0</ele><time>2026-05-01T14:43:51.197Z</time></trkpt><trkpt lat="39.0092571" lon="8.9954885"><ele>16.0</ele><time>2026-05-01T14:43:52.196Z</time></trkpt><trkpt lat="39.009466" lon="8.9953912"><ele>15.666666666666666</ele><time>2026-05-01T14:43:53.196Z</time></trkpt><trkpt lat="39.0096618" lon="8.9952979"><ele>15.333333333333332</ele><time>2026-05-01T14:43:54.197Z</time></trkpt><trkpt lat="39.0098448" lon="8.9952099"><ele>15.0</ele><time>2026-05-01T14:43:55.196Z</time></trkpt><trkpt lat="39.0100243" lon="8.9951237"><ele>15.0</ele><time>2026-05-01T14:43:56.196Z</time></trkpt><trkpt lat="39.0102031" lon="8.9950424"><ele>15.0</ele><time>2026-05-01T14:43:57.197Z</time></trkpt><trkpt lat="39.0103818" lon="8.9949673"><ele>15.0</ele><time>2026-05-01T14:43:58.197Z</time></trkpt><trkpt lat="39.0105586" lon="8.9948953"><ele>15.666666666666668</ele><time>2026-05-01T14:43:59.196Z</time></trkpt><trkpt lat="39.0107354" lon="8.9948293"><ele>16.333333333333336</ele><time>2026-05-01T14:44:00.196Z</time></trkpt><trkpt lat="39.0109195" lon="8.9947699"><ele>17.0</ele><time>2026-05-01T14:44:01.197Z</time></trkpt><trkpt lat="39.0111039" lon="8.9947168"><ele>17.333333333333336</ele><time>2026-05-01T14:44:02.196Z</time></trkpt><trkpt lat="39.011275" lon="8.9946767"><ele>17.666666666666668</ele><time>2026-05-01T14:44:03.196Z</time></trkpt><trkpt lat="39.0114291" lon="8.9946472"><ele>18.0</ele><time>2026-05-01T14:44:04.197Z</time></trkpt><trkpt lat="39.0115611" lon="8.994626"><ele>17.6</ele><time>2026-05-01T14:44:05.197Z</time></trkpt><trkpt lat="39.0116683" lon="8.994611"><ele>17.200000000000003</ele><time>2026-05-01T14:44:06.196Z</time></trkpt><trkpt lat="39.0117524" lon="8.9946"><ele>16.8</ele><time>2026-05-01T14:44:07.196Z</time></trkpt><trkpt lat="39.0118171" lon="8.9945928"><ele>16.400000000000002</ele><time>2026-05-01T14:44:08.196Z</time></trkpt><trkpt lat="39.0119112" lon="8.9945957"><ele>16.0</ele><time>2026-05-01T14:44:10.196Z</time></trkpt><trkpt lat="39.012012" lon="8.9946281"><ele>15.999999999999998</ele><time>2026-05-01T14:44:12.197Z</time></trkpt><trkpt lat="39.0120723" lon="8.9946566"><ele>16.0</ele><time>2026-05-01T14:44:13.196Z</time></trkpt><trkpt lat="39.0121436" lon="8.994671"><ele>16.0</ele><time>2026-05-01T14:44:14.197Z</time></trkpt><trkpt lat="39.0122201" lon="8.9946588"><ele>16.0</ele><time>2026-05-01T14:44:15.196Z</time></trkpt><trkpt lat="39.0122988" lon="8.9946259"><ele>15.999999999999998</ele><time>2026-05-01T14:44:16.197Z</time></trkpt><trkpt lat="39.0123882" lon="8.9945864"><ele>16.0</ele><time>2026-05-01T14:44:17.197Z</time></trkpt><trkpt lat="39.0124931" lon="8.9945607"><ele>16.5</ele><time>2026-05-01T14:44:18.196Z</time></trkpt><trkpt lat="39.0126076" lon="8.9945532"><ele>17.0</ele><time>2026-05-01T14:44:19.197Z</time></trkpt><trkpt lat="39.0127317" lon="8.9945523"><ele>17.5</ele><time>2026-05-01T14:44:20.197Z</time></trkpt><trkpt lat="39.0128632" lon="8.9945632"><ele>18.0</ele><time>2026-05-01T14:44:21.196Z</time></trkpt><trkpt lat="39.0130045" lon="8.9945774"><ele>18.0</ele><time>2026-05-01T14:44:22.196Z</time></trkpt><trkpt lat="39.0131539" lon="8.9945987"><ele>18.0</ele><time>2026-05-01T14:44:23.197Z</time></trkpt><trkpt lat="39.0133089" lon="8.9946275"><ele>18.0</ele><time>2026-05-01T14:44:24.196Z</time></trkpt><trkpt lat="39.013468" lon="8.9946592"><ele>17.666666666666668</ele><time>2026-05-01T14:44:25.197Z</time></trkpt><trkpt lat="39.0136296" lon="8.9946957"><ele>17.333333333333336</ele><time>2026-05-01T14:44:26.196Z</time></trkpt><trkpt lat="39.013795" lon="8.9947381"><ele>17.0</ele><time>2026-05-01T14:44:27.196Z</time></trkpt><trkpt lat="39.0139627" lon="8.9947859"><ele>17.0</ele><time>2026-05-01T14:44:28.197Z</time></trkpt><trkpt lat="39.0141351" lon="8.9948419"><ele>17.0</ele><time>2026-05-01T14:44:29.197Z</time></trkpt><trkpt lat="39.0143095" lon="8.9949061"><ele>17.0</ele><time>2026-05-01T14:44:30.196Z</time></trkpt><trkpt lat="39.0144868" lon="8.994977"><ele>18.333333333333336</ele><time>2026-05-01T14:44:31.197Z</time></trkpt><trkpt lat="39.0146669" lon="8.995058"><ele>19.666666666666668</ele><time>2026-05-01T14:44:32.197Z</time></trkpt><trkpt lat="39.0148457" lon="8.9951465"><ele>21.0</ele><time>2026-05-01T14:44:33.196Z</time></trkpt><trkpt lat="39.0150134" lon="8.9952371"><ele>21.666666666666668</ele><time>2026-05-01T14:44:34.197Z</time></trkpt><trkpt lat="39.0151708" lon="8.9953257"><ele>22.333333333333336</ele><time>2026-05-01T14:44:35.196Z</time></trkpt><trkpt lat="39.0153207" lon="8.9954191"><ele>23.0</ele><time>2026-05-01T14:44:36.197Z</time></trkpt><trkpt lat="39.0154652" lon="8.9955182"><ele>23.0</ele><time>2026-05-01T14:44:37.196Z</time></trkpt><trkpt lat="39.0156048" lon="8.9956142"><ele>23.0</ele><time>2026-05-01T14:44:38.197Z</time></trkpt><trkpt lat="39.0157349" lon="8.9957171"><ele>23.0</ele><time>2026-05-01T14:44:39.197Z</time></trkpt><trkpt lat="39.0158575" lon="8.9958143"><ele>22.5</ele><time>2026-05-01T14:44:40.196Z</time></trkpt><trkpt lat="39.0159797" lon="8.9959137"><ele>22.0</ele><time>2026-05-01T14:44:41.197Z</time></trkpt><trkpt lat="39.0160933" lon="8.9960127"><ele>21.5</ele><time>2026-05-01T14:44:42.197Z</time></trkpt><trkpt lat="39.0161974" lon="8.9961095"><ele>21.0</ele><time>2026-05-01T14:44:43.197Z</time></trkpt><trkpt lat="39.0162903" lon="8.9961965"><ele>21.0</ele><time>2026-05-01T14:44:44.197Z</time></trkpt><trkpt lat="39.0163737" lon="8.99628"><ele>21.0</ele><time>2026-05-01T14:44:45.197Z</time></trkpt><trkpt lat="39.0164513" lon="8.9963623"><ele>21.0</ele><time>2026-05-01T14:44:46.197Z</time></trkpt><trkpt lat="39.0165197" lon="8.9964593"><ele>21.0</ele><time>2026-05-01T14:44:47.197Z</time></trkpt><trkpt lat="39.0165686" lon="8.9965597"><ele>21.0</ele><time>2026-05-01T14:44:48.197Z</time></trkpt><trkpt lat="39.0166093" lon="8.9966508"><ele>20.833333333333332</ele><time>2026-05-01T14:44:49.197Z</time></trkpt><trkpt lat="39.0166621" lon="8.9967214"><ele>20.666666666666668</ele><time>2026-05-01T14:44:50.196Z</time></trkpt><trkpt lat="39.016726" lon="8.9967574"><ele>20.5</ele><time>2026-05-01T14:44:51.197Z</time></trkpt><trkpt lat="39.0168359" lon="8.9967159"><ele>20.333333333333336</ele><time>2026-05-01T14:44:53.197Z</time></trkpt><trkpt lat="39.0168755" lon="8.9966504"><ele>20.166666666666668</ele><time>2026-05-01T14:44:54.197Z</time></trkpt><trkpt lat="39.0169102" lon="8.9965636"><ele>20.0</ele><time>2026-05-01T14:44:55.197Z</time></trkpt><trkpt lat="39.0169552" lon="8.9964708"><ele>20.0</ele><time>2026-05-01T14:44:56.196Z</time></trkpt><trkpt lat="39.0170223" lon="8.996389"><ele>20.0</ele><time>2026-05-01T14:44:57.197Z</time></trkpt><trkpt lat="39.017106" lon="8.9963077"><ele>20.0</ele><time>2026-05-01T14:44:58.196Z</time></trkpt><trkpt lat="39.0172034" lon="8.9962184"><ele>20.0</ele><time>2026-05-01T14:44:59.196Z</time></trkpt><trkpt lat="39.0173093" lon="8.9961237"><ele>20.0</ele><time>2026-05-01T14:45:00.197Z</time></trkpt><trkpt lat="39.0174216" lon="8.9960229"><ele>20.25</ele><time>2026-05-01T14:45:01.197Z</time></trkpt><trkpt lat="39.0175396" lon="8.9959153"><ele>20.5</ele><time>2026-05-01T14:45:02.197Z</time></trkpt><trkpt lat="39.0176598" lon="8.9958018"><ele>20.75</ele><time>2026-05-01T14:45:03.196Z</time></trkpt><trkpt lat="39.0177811" lon="8.9956838"><ele>21.0</ele><time>2026-05-01T14:45:04.196Z</time></trkpt><trkpt lat="39.0178983" lon="8.9955539"><ele>21.333333333333332</ele><time>2026-05-01T14:45:05.196Z</time></trkpt><trkpt lat="39.0180062" lon="8.9954122"><ele>21.666666666666664</ele><time>2026-05-01T14:45:06.197Z</time></trkpt><trkpt lat="39.0181084" lon="8.9952608"><ele>22.0</ele><time>2026-05-01T14:45:07.197Z</time></trkpt><trkpt lat="39.0182084" lon="8.9951093"><ele>22.0</ele><time>2026-05-01T14:45:08.197Z</time></trkpt><trkpt lat="39.0183102" lon="8.9949699"><ele>22.0</ele><time>2026-05-01T14:45:09.196Z</time></trkpt><trkpt lat="39.0184147" lon="8.994843"><ele>22.0</ele><time>2026-05-01T14:45:10.197Z</time></trkpt><trkpt lat="39.0185242" lon="8.994728"><ele>22.0</ele><time>2026-05-01T14:45:11.196Z</time></trkpt><trkpt lat="39.0186442" lon="8.9946227"><ele>22.25</ele><time>2026-05-01T14:45:12.196Z</time></trkpt><trkpt lat="39.0187644" lon="8.994528"><ele>22.5</ele><time>2026-05-01T14:45:13.197Z</time></trkpt><trkpt lat="39.0188882" lon="8.9944364"><ele>22.75</ele><time>2026-05-01T14:45:14.197Z</time></trkpt><trkpt lat="39.0190128" lon="8.9943468"><ele>23.0</ele><time>2026-05-01T14:45:15.197Z</time></trkpt><trkpt lat="39.0191368" lon="8.9942537"><ele>23.0</ele><time>2026-05-01T14:45:16.197Z</time></trkpt><trkpt lat="39.0192605" lon="8.9941571"><ele>23.0</ele><time>2026-05-01T14:45:17.197Z</time></trkpt><trkpt lat="39.0193822" lon="8.9940569"><ele>23.0</ele><time>2026-05-01T14:45:18.196Z</time></trkpt><trkpt lat="39.0195015" lon="8.9939468"><ele>23.0</ele><time>2026-05-01T14:45:19.197Z</time></trkpt><trkpt lat="39.0196085" lon="8.9938173"><ele>23.0</ele><time>2026-05-01T14:45:20.197Z</time></trkpt><trkpt lat="39.0197037" lon="8.9936688"><ele>23.0</ele><time>2026-05-01T14:45:21.196Z</time></trkpt><trkpt lat="39.0197867" lon="8.993506"><ele>23.0</ele><time>2026-05-01T14:45:22.196Z</time></trkpt><trkpt lat="39.0198597" lon="8.9933331"><ele>23.333333333333336</ele><time>2026-05-01T14:45:23.197Z</time></trkpt><trkpt lat="39.0199278" lon="8.993151"><ele>23.666666666666668</ele><time>2026-05-01T14:45:24.196Z</time></trkpt><trkpt lat="39.0199936" lon="8.9929645"><ele>24.0</ele><time>2026-05-01T14:45:25.197Z</time></trkpt><trkpt lat="39.0200586" lon="8.9927765"><ele>24.333333333333336</ele><time>2026-05-01T14:45:26.197Z</time></trkpt><trkpt lat="39.0201241" lon="8.9925857"><ele>24.666666666666668</ele><time>2026-05-01T14:45:27.197Z</time></trkpt><trkpt lat="39.0201903" lon="8.9923932"><ele>25.0</ele><time>2026-05-01T14:45:28.197Z</time></trkpt><trkpt lat="39.0202594" lon="8.992198"><ele>25.0</ele><time>2026-05-01T14:45:29.196Z</time></trkpt><trkpt lat="39.0203284" lon="8.992003"><ele>25.0</ele><time>2026-05-01T14:45:30.197Z</time></trkpt><trkpt lat="39.0203978" lon="8.9918066"><ele>25.0</ele><time>2026-05-01T14:45:31.197Z</time></trkpt><trkpt lat="39.0204656" lon="8.9916099"><ele>25.0</ele><time>2026-05-01T14:45:32.197Z</time></trkpt><trkpt lat="39.0205319" lon="8.9914109"><ele>25.0</ele><time>2026-05-01T14:45:33.197Z</time></trkpt><trkpt lat="39.0205938" lon="8.9912086"><ele>25.0</ele><time>2026-05-01T14:45:34.197Z</time></trkpt><trkpt lat="39.0206523" lon="8.9910021"><ele>25.333333333333336</ele><time>2026-05-01T14:45:35.197Z</time></trkpt><trkpt lat="39.0207084" lon="8.9907929"><ele>25.666666666666664</ele><time>2026-05-01T14:45:36.197Z</time></trkpt><trkpt lat="39.0207604" lon="8.9905848"><ele>26.0</ele><time>2026-05-01T14:45:37.197Z</time></trkpt><trkpt lat="39.0208131" lon="8.9903729"><ele>25.666666666666664</ele><time>2026-05-01T14:45:38.197Z</time></trkpt><trkpt lat="39.0208623" lon="8.9901604"><ele>25.333333333333336</ele><time>2026-05-01T14:45:39.196Z</time></trkpt><trkpt lat="39.0209085" lon="8.9899473"><ele>25.0</ele><time>2026-05-01T14:45:40.197Z</time></trkpt><trkpt lat="39.0209549" lon="8.9897355"><ele>25.666666666666668</ele><time>2026-05-01T14:45:41.196Z</time></trkpt><trkpt lat="39.0210082" lon="8.9895214"><ele>26.333333333333336</ele><time>2026-05-01T14:45:42.197Z</time></trkpt><trkpt lat="39.0210684" lon="8.9893117"><ele>27.0</ele><time>2026-05-01T14:45:43.196Z</time></trkpt><trkpt lat="39.0211358" lon="8.9891176"><ele>27.0</ele><time>2026-05-01T14:45:44.197Z</time></trkpt><trkpt lat="39.0212079" lon="8.9889413"><ele>27.0</ele><time>2026-05-01T14:45:45.197Z</time></trkpt><trkpt lat="39.0212795" lon="8.9887838"><ele>27.0</ele><time>2026-05-01T14:45:46.196Z</time></trkpt><trkpt lat="39.0213483" lon="8.9886441"><ele>27.0</ele><time>2026-05-01T14:45:47.197Z</time></trkpt><trkpt lat="39.0214143" lon="8.9885223"><ele>27.0</ele><time>2026-05-01T14:45:48.197Z</time></trkpt><trkpt lat="39.0214854" lon="8.9884259"><ele>27.000000000000004</ele><time>2026-05-01T14:45:49.196Z</time></trkpt><trkpt lat="39.0215702" lon="8.9883654"><ele>27.000000000000004</ele><time>2026-05-01T14:45:50.196Z</time></trkpt><trkpt lat="39.0216654" lon="8.9883362"><ele>27.0</ele><time>2026-05-01T14:45:51.197Z</time></trkpt><trkpt lat="39.0217574" lon="8.9882984"><ele>27.0</ele><time>2026-05-01T14:45:52.196Z</time></trkpt><trkpt lat="39.0218367" lon="8.9882087"><ele>28.25</ele><time>2026-05-01T14:45:53.196Z</time></trkpt><trkpt lat="39.0218983" lon="8.9880996"><ele>29.5</ele><time>2026-05-01T14:45:54.196Z</time></trkpt><trkpt lat="39.021966" lon="8.9879813"><ele>30.75</ele><time>2026-05-01T14:45:55.196Z</time></trkpt><trkpt lat="39.0220565" lon="8.987881"><ele>32.0</ele><time>2026-05-01T14:45:56.196Z</time></trkpt><trkpt lat="39.0221636" lon="8.9878043"><ele>32.0</ele><time>2026-05-01T14:45:57.196Z</time></trkpt><trkpt lat="39.0222814" lon="8.9877471"><ele>32.0</ele><time>2026-05-01T14:45:58.197Z</time></trkpt><trkpt lat="39.0224028" lon="8.9876934"><ele>32.0</ele><time>2026-05-01T14:45:59.197Z</time></trkpt><trkpt lat="39.0225263" lon="8.9876389"><ele>32.0</ele><time>2026-05-01T14:46:00.196Z</time></trkpt><trkpt lat="39.0226525" lon="8.9875824"><ele>32.0</ele><time>2026-05-01T14:46:01.196Z</time></trkpt><trkpt lat="39.0227816" lon="8.9875254"><ele>32.0</ele><time>2026-05-01T14:46:02.197Z</time></trkpt><trkpt lat="39.0229146" lon="8.9874683"><ele>32.0</ele><time>2026-05-01T14:46:03.196Z</time></trkpt><trkpt lat="39.0230495" lon="8.9874126"><ele>32.0</ele><time>2026-05-01T14:46:04.197Z</time></trkpt><trkpt lat="39.0231879" lon="8.9873593"><ele>32.0</ele><time>2026-05-01T14:46:05.196Z</time></trkpt><trkpt lat="39.0233304" lon="8.9873056"><ele>32.0</ele><time>2026-05-01T14:46:06.196Z</time></trkpt><trkpt lat="39.0234744" lon="8.9872532"><ele>32.0</ele><time>2026-05-01T14:46:07.197Z</time></trkpt><trkpt lat="39.0236216" lon="8.9872005"><ele>32.0</ele><time>2026-05-01T14:46:08.196Z</time></trkpt><trkpt lat="39.023773" lon="8.9871465"><ele>32.0</ele><time>2026-05-01T14:46:09.196Z</time></trkpt><trkpt lat="39.0239256" lon="8.9870888"><ele>32.0</ele><time>2026-05-01T14:46:10.196Z</time></trkpt><trkpt lat="39.024079" lon="8.9870322"><ele>32.0</ele><time>2026-05-01T14:46:11.197Z</time></trkpt><trkpt lat="39.0242337" lon="8.9869736"><ele>32.0</ele><time>2026-05-01T14:46:12.197Z</time></trkpt><trkpt lat="39.0243912" lon="8.9869155"><ele>32.0</ele><time>2026-05-01T14:46:13.197Z</time></trkpt><trkpt lat="39.0245498" lon="8.9868581"><ele>32.0</ele><time>2026-05-01T14:46:14.196Z</time></trkpt><trkpt lat="39.0247109" lon="8.9868003"><ele>32.0</ele><time>2026-05-01T14:46:15.197Z</time></trkpt><trkpt lat="39.024875" lon="8.9867443"><ele>32.0</ele><time>2026-05-01T14:46:16.197Z</time></trkpt><trkpt lat="39.0250414" lon="8.9866898"><ele>32.666666666666664</ele><time>2026-05-01T14:46:17.197Z</time></trkpt><trkpt lat="39.025209" lon="8.9866361"><ele>33.333333333333336</ele><time>2026-05-01T14:46:18.197Z</time></trkpt><trkpt lat="39.0253807" lon="8.9865812"><ele>34.0</ele><time>2026-05-01T14:46:19.197Z</time></trkpt><trkpt lat="39.0255541" lon="8.986529"><ele>34.0</ele><time>2026-05-01T14:46:20.197Z</time></trkpt><trkpt lat="39.0257296" lon="8.9864764"><ele>34.0</ele><time>2026-05-01T14:46:21.196Z</time></trkpt><trkpt lat="39.0259059" lon="8.9864264"><ele>34.0</ele><time>2026-05-01T14:46:22.197Z</time></trkpt><trkpt lat="39.0260842" lon="8.9863808"><ele>34.333333333333336</ele><time>2026-05-01T14:46:23.196Z</time></trkpt><trkpt lat="39.0262654" lon="8.9863385"><ele>34.666666666666664</ele><time>2026-05-01T14:46:24.197Z</time></trkpt><trkpt lat="39.0264484" lon="8.9863007"><ele>35.0</ele><time>2026-05-01T14:46:25.197Z</time></trkpt><trkpt lat="39.0266336" lon="8.9862677"><ele>34.33333333333333</ele><time>2026-05-01T14:46:26.197Z</time></trkpt><trkpt lat="39.0268212" lon="8.9862392"><ele>33.666666666666664</ele><time>2026-05-01T14:46:27.196Z</time></trkpt><trkpt lat="39.0270107" lon="8.9862127"><ele>33.0</ele><time>2026-05-01T14:46:28.196Z</time></trkpt><trkpt lat="39.027202" lon="8.9861866"><ele>33.0</ele><time>2026-05-01T14:46:29.196Z</time></trkpt><trkpt lat="39.0273963" lon="8.9861604"><ele>33.0</ele><time>2026-05-01T14:46:30.197Z</time></trkpt><trkpt lat="39.0275939" lon="8.9861336"><ele>33.0</ele><time>2026-05-01T14:46:31.196Z</time></trkpt><trkpt lat="39.0277946" lon="8.986107"><ele>33.0</ele><time>2026-05-01T14:46:32.197Z</time></trkpt><trkpt lat="39.0279979" lon="8.9860789"><ele>33.0</ele><time>2026-05-01T14:46:33.197Z</time></trkpt><trkpt lat="39.0282018" lon="8.9860528"><ele>33.0</ele><time>2026-05-01T14:46:34.196Z</time></trkpt><trkpt lat="39.028407" lon="8.9860254"><ele>33.333333333333336</ele><time>2026-05-01T14:46:35.196Z</time></trkpt><trkpt lat="39.0286138" lon="8.9859984"><ele>33.66666666666667</ele><time>2026-05-01T14:46:36.197Z</time></trkpt><trkpt lat="39.0288221" lon="8.9859705"><ele>34.0</ele><time>2026-05-01T14:46:37.196Z</time></trkpt><trkpt lat="39.029032" lon="8.9859424"><ele>34.0</ele><time>2026-05-01T14:46:38.196Z</time></trkpt><trkpt lat="39.0292439" lon="8.9859125"><ele>34.0</ele><time>2026-05-01T14:46:39.196Z</time></trkpt><trkpt lat="39.0294572" lon="8.9858822"><ele>34.0</ele><time>2026-05-01T14:46:40.197Z</time></trkpt><trkpt lat="39.0296726" lon="8.9858508"><ele>34.333333333333336</ele><time>2026-05-01T14:46:41.197Z</time></trkpt><trkpt lat="39.0298893" lon="8.9858181"><ele>34.666666666666664</ele><time>2026-05-01T14:46:42.197Z</time></trkpt><trkpt lat="39.0301081" lon="8.9857852"><ele>35.0</ele><time>2026-05-01T14:46:43.197Z</time></trkpt><trkpt lat="39.0303283" lon="8.9857527"><ele>35.0</ele><time>2026-05-01T14:46:44.196Z</time></trkpt><trkpt lat="39.0305508" lon="8.9857216"><ele>35.0</ele><time>2026-05-01T14:46:45.197Z</time></trkpt><trkpt lat="39.030774" lon="8.9856923"><ele>35.0</ele><time>2026-05-01T14:46:46.197Z</time></trkpt><trkpt lat="39.0309994" lon="8.9856642"><ele>34.5</ele><time>2026-05-01T14:46:47.197Z</time></trkpt><trkpt lat="39.0312268" lon="8.9856355"><ele>34.0</ele><time>2026-05-01T14:46:48.197Z</time></trkpt><trkpt lat="39.0314566" lon="8.985608"><ele>33.5</ele><time>2026-05-01T14:46:49.197Z</time></trkpt><trkpt lat="39.0316878" lon="8.9855819"><ele>33.0</ele><time>2026-05-01T14:46:50.197Z</time></trkpt><trkpt lat="39.0319212" lon="8.9855587"><ele>33.0</ele><time>2026-05-01T14:46:51.196Z</time></trkpt><trkpt lat="39.032157" lon="8.9855372"><ele>33.0</ele><time>2026-05-01T14:46:52.196Z</time></trkpt><trkpt lat="39.0323946" lon="8.9855161"><ele>33.0</ele><time>2026-05-01T14:46:53.197Z</time></trkpt><trkpt lat="39.0326351" lon="8.9854941"><ele>33.0</ele><time>2026-05-01T14:46:54.197Z</time></trkpt><trkpt lat="39.0328769" lon="8.9854731"><ele>33.0</ele><time>2026-05-01T14:46:55.197Z</time></trkpt><trkpt lat="39.033118" lon="8.9854518"><ele>33.0</ele><time>2026-05-01T14:46:56.197Z</time></trkpt><trkpt lat="39.0333565" lon="8.9854274"><ele>33.0</ele><time>2026-05-01T14:46:57.196Z</time></trkpt><trkpt lat="39.0335888" lon="8.9854059"><ele>33.0</ele><time>2026-05-01T14:46:58.197Z</time></trkpt><trkpt lat="39.0338154" lon="8.9853862"><ele>33.0</ele><time>2026-05-01T14:46:59.197Z</time></trkpt><trkpt lat="39.0340423" lon="8.9853663"><ele>33.0</ele><time>2026-05-01T14:47:00.196Z</time></trkpt><trkpt lat="39.0342675" lon="8.9853451"><ele>32.5</ele><time>2026-05-01T14:47:01.197Z</time></trkpt><trkpt lat="39.0344926" lon="8.9853263"><ele>32.0</ele><time>2026-05-01T14:47:02.197Z</time></trkpt><trkpt lat="39.0347184" lon="8.9853074"><ele>32.0</ele><time>2026-05-01T14:47:03.196Z</time></trkpt><trkpt lat="39.034944" lon="8.9852887"><ele>32.0</ele><time>2026-05-01T14:47:04.196Z</time></trkpt><trkpt lat="39.0351685" lon="8.9852703"><ele>32.0</ele><time>2026-05-01T14:47:05.196Z</time></trkpt><trkpt lat="39.0353943" lon="8.9852542"><ele>32.0</ele><time>2026-05-01T14:47:06.196Z</time></trkpt><trkpt lat="39.0356201" lon="8.9852372"><ele>31.0</ele><time>2026-05-01T14:47:07.196Z</time></trkpt><trkpt lat="39.0358451" lon="8.9852206"><ele>30.0</ele><time>2026-05-01T14:47:08.197Z</time></trkpt><trkpt lat="39.0360691" lon="8.9852025"><ele>30.0</ele><time>2026-05-01T14:47:09.196Z</time></trkpt><trkpt lat="39.0362956" lon="8.9851853"><ele>30.0</ele><time>2026-05-01T14:47:10.196Z</time></trkpt><trkpt lat="39.036522" lon="8.9851699"><ele>31.0</ele><time>2026-05-01T14:47:11.196Z</time></trkpt><trkpt lat="39.036749" lon="8.9851546"><ele>32.0</ele><time>2026-05-01T14:47:12.196Z</time></trkpt><trkpt lat="39.0369756" lon="8.9851415"><ele>32.0</ele><time>2026-05-01T14:47:13.196Z</time></trkpt><trkpt lat="39.0372008" lon="8.9851303"><ele>32.0</ele><time>2026-05-01T14:47:14.196Z</time></trkpt><trkpt lat="39.0374255" lon="8.9851186"><ele>32.33333333333333</ele><time>2026-05-01T14:47:15.197Z</time></trkpt><trkpt lat="39.0376489" lon="8.9851061"><ele>32.666666666666664</ele><time>2026-05-01T14:47:16.196Z</time></trkpt><trkpt lat="39.0378682" lon="8.9850968"><ele>33.0</ele><time>2026-05-01T14:47:17.197Z</time></trkpt><trkpt lat="39.0380866" lon="8.9850858"><ele>33.0</ele><time>2026-05-01T14:47:18.196Z</time></trkpt><trkpt lat="39.0382947" lon="8.9850779"><ele>33.0</ele><time>2026-05-01T14:47:19.196Z</time></trkpt><trkpt lat="39.0384974" lon="8.9850762"><ele>33.0</ele><time>2026-05-01T14:47:20.197Z</time></trkpt><trkpt lat="39.038692" lon="8.9850804"><ele>33.333333333333336</ele><time>2026-05-01T14:47:21.197Z</time></trkpt><trkpt lat="39.0388836" lon="8.9850879"><ele>33.66666666666667</ele><time>2026-05-01T14:47:22.197Z</time></trkpt><trkpt lat="39.0390696" lon="8.9850996"><ele>34.0</ele><time>2026-05-01T14:47:23.196Z</time></trkpt><trkpt lat="39.0392515" lon="8.9851143"><ele>33.0</ele><time>2026-05-01T14:47:24.196Z</time></trkpt><trkpt lat="39.0394312" lon="8.9851289"><ele>32.0</ele><time>2026-05-01T14:47:25.197Z</time></trkpt><trkpt lat="39.0396066" lon="8.985146"><ele>31.0</ele><time>2026-05-01T14:47:26.197Z</time></trkpt><trkpt lat="39.0397806" lon="8.9851656"><ele>31.0</ele><time>2026-05-01T14:47:27.197Z</time></trkpt><trkpt lat="39.0399525" lon="8.985191"><ele>31.0</ele><time>2026-05-01T14:47:28.197Z</time></trkpt><trkpt lat="39.0401246" lon="8.9852207"><ele>31.0</ele><time>2026-05-01T14:47:29.197Z</time></trkpt><trkpt lat="39.0402971" lon="8.9852557"><ele>32.0</ele><time>2026-05-01T14:47:30.196Z</time></trkpt><trkpt lat="39.0404689" lon="8.9852922"><ele>33.0</ele><time>2026-05-01T14:47:31.197Z</time></trkpt><trkpt lat="39.0406393" lon="8.9853313"><ele>34.0</ele><time>2026-05-01T14:47:32.197Z</time></trkpt><trkpt lat="39.0408091" lon="8.985372"><ele>34.0</ele><time>2026-05-01T14:47:33.197Z</time></trkpt><trkpt lat="39.0409793" lon="8.9854167"><ele>34.0</ele><time>2026-05-01T14:47:34.197Z</time></trkpt><trkpt lat="39.0411473" lon="8.9854639"><ele>34.0</ele><time>2026-05-01T14:47:35.197Z</time></trkpt><trkpt lat="39.0413152" lon="8.9855071"><ele>34.0</ele><time>2026-05-01T14:47:36.196Z</time></trkpt><trkpt lat="39.0414794" lon="8.9855511"><ele>34.0</ele><time>2026-05-01T14:47:37.197Z</time></trkpt><trkpt lat="39.0416452" lon="8.9855957"><ele>34.0</ele><time>2026-05-01T14:47:38.197Z</time></trkpt><trkpt lat="39.0418114" lon="8.9856398"><ele>34.0</ele><time>2026-05-01T14:47:39.196Z</time></trkpt><trkpt lat="39.0419775" lon="8.9856856"><ele>34.0</ele><time>2026-05-01T14:47:40.197Z</time></trkpt><trkpt lat="39.0421437" lon="8.9857326"><ele>34.0</ele><time>2026-05-01T14:47:41.196Z</time></trkpt><trkpt lat="39.0423093" lon="8.985776"><ele>34.333333333333336</ele><time>2026-05-01T14:47:42.196Z</time></trkpt><trkpt lat="39.0424758" lon="8.9858171"><ele>34.666666666666664</ele><time>2026-05-01T14:47:43.196Z</time></trkpt><trkpt lat="39.0426429" lon="8.9858593"><ele>35.0</ele><time>2026-05-01T14:47:44.196Z</time></trkpt><trkpt lat="39.0428092" lon="8.9859016"><ele>35.0</ele><time>2026-05-01T14:47:45.196Z</time></trkpt><trkpt lat="39.0429762" lon="8.9859399"><ele>35.0</ele><time>2026-05-01T14:47:46.196Z</time></trkpt><trkpt lat="39.043144" lon="8.9859744"><ele>35.0</ele><time>2026-05-01T14:47:47.196Z</time></trkpt><trkpt lat="39.0433121" lon="8.9860061"><ele>35.33333333333333</ele><time>2026-05-01T14:47:48.197Z</time></trkpt><trkpt lat="39.0434816" lon="8.986036"><ele>35.666666666666664</ele><time>2026-05-01T14:47:49.197Z</time></trkpt><trkpt lat="39.0436514" lon="8.9860632"><ele>36.0</ele><time>2026-05-01T14:47:50.197Z</time></trkpt><trkpt lat="39.0438217" lon="8.986085"><ele>36.0</ele><time>2026-05-01T14:47:51.197Z</time></trkpt><trkpt lat="39.0439919" lon="8.986101"><ele>36.0</ele><time>2026-05-01T14:47:52.197Z</time></trkpt><trkpt lat="39.0441606" lon="8.9861157"><ele>36.0</ele><time>2026-05-01T14:47:53.196Z</time></trkpt><trkpt lat="39.0443293" lon="8.9861304"><ele>38.666666666666664</ele><time>2026-05-01T14:47:54.197Z</time></trkpt><trkpt lat="39.0445017" lon="8.9861381"><ele>41.33333333333333</ele><time>2026-05-01T14:47:55.197Z</time></trkpt><trkpt lat="39.0446724" lon="8.9861456"><ele>44.0</ele><time>2026-05-01T14:47:56.197Z</time></trkpt><trkpt lat="39.0448424" lon="8.9861474"><ele>45.0</ele><time>2026-05-01T14:47:57.196Z</time></trkpt><trkpt lat="39.0450131" lon="8.9861474"><ele>46.0</ele><time>2026-05-01T14:47:58.195Z</time></trkpt><trkpt lat="39.0451829" lon="8.9861419"><ele>47.0</ele><time>2026-05-01T14:47:59.197Z</time></trkpt><trkpt lat="39.0453531" lon="8.9861356"><ele>47.0</ele><time>2026-05-01T14:48:00.197Z</time></trkpt><trkpt lat="39.0455216" lon="8.9861288"><ele>47.0</ele><time>2026-05-01T14:48:01.196Z</time></trkpt><trkpt lat="39.0456897" lon="8.986117"><ele>47.0</ele><time>2026-05-01T14:48:02.196Z</time></trkpt><trkpt lat="39.0458586" lon="8.9861054"><ele>47.0</ele><time>2026-05-01T14:48:03.196Z</time></trkpt><trkpt lat="39.0460279" lon="8.9860919"><ele>47.0</ele><time>2026-05-01T14:48:04.196Z</time></trkpt><trkpt lat="39.0461963" lon="8.9860778"><ele>47.0</ele><time>2026-05-01T14:48:05.197Z</time></trkpt><trkpt lat="39.0463646" lon="8.9860597"><ele>47.0</ele><time>2026-05-01T14:48:06.197Z</time></trkpt><trkpt lat="39.0465338" lon="8.986039"><ele>47.0</ele><time>2026-05-01T14:48:07.197Z</time></trkpt><trkpt lat="39.0467043" lon="8.9860209"><ele>47.0</ele><time>2026-05-01T14:48:08.197Z</time></trkpt><trkpt lat="39.0468745" lon="8.986001"><ele>46.666666666666664</ele><time>2026-05-01T14:48:09.196Z</time></trkpt><trkpt lat="39.0470464" lon="8.9859834"><ele>46.333333333333336</ele><time>2026-05-01T14:48:10.197Z</time></trkpt><trkpt lat="39.0472213" lon="8.9859614"><ele>46.0</ele><time>2026-05-01T14:48:11.197Z</time></trkpt><trkpt lat="39.047394" lon="8.9859406"><ele>46.333333333333336</ele><time>2026-05-01T14:48:12.196Z</time></trkpt><trkpt lat="39.0475684" lon="8.9859245"><ele>46.666666666666664</ele><time>2026-05-01T14:48:13.196Z</time></trkpt><trkpt lat="39.0477423" lon="8.9859082"><ele>47.0</ele><time>2026-05-01T14:48:14.196Z</time></trkpt><trkpt lat="39.0479186" lon="8.9858912"><ele>47.0</ele><time>2026-05-01T14:48:15.197Z</time></trkpt><trkpt lat="39.0480968" lon="8.9858747"><ele>47.0</ele><time>2026-05-01T14:48:16.197Z</time></trkpt><trkpt lat="39.0482765" lon="8.9858623"><ele>47.0</ele><time>2026-05-01T14:48:17.197Z</time></trkpt><trkpt lat="39.0484582" lon="8.9858544"><ele>47.0</ele><time>2026-05-01T14:48:18.196Z</time></trkpt><trkpt lat="39.0486419" lon="8.9858473"><ele>47.0</ele><time>2026-05-01T14:48:19.196Z</time></trkpt><trkpt lat="39.0488275" lon="8.9858409"><ele>47.0</ele><time>2026-05-01T14:48:20.196Z</time></trkpt><trkpt lat="39.0490134" lon="8.9858399"><ele>47.0</ele><time>2026-05-01T14:48:21.196Z</time></trkpt><trkpt lat="39.0492005" lon="8.9858405"><ele>47.0</ele><time>2026-05-01T14:48:22.196Z</time></trkpt><trkpt lat="39.049391" lon="8.9858409"><ele>47.0</ele><time>2026-05-01T14:48:23.196Z</time></trkpt><trkpt lat="39.0495839" lon="8.9858472"><ele>47.33333333333333</ele><time>2026-05-01T14:48:24.197Z</time></trkpt><trkpt lat="39.0497861" lon="8.9858598"><ele>47.666666666666664</ele><time>2026-05-01T14:48:25.197Z</time></trkpt><trkpt lat="39.0499963" lon="8.9858758"><ele>48.0</ele><time>2026-05-01T14:48:26.196Z</time></trkpt><trkpt lat="39.0502162" lon="8.9858905"><ele>48.0</ele><time>2026-05-01T14:48:27.196Z</time></trkpt><trkpt lat="39.050439" lon="8.9859141"><ele>48.0</ele><time>2026-05-01T14:48:28.196Z</time></trkpt><trkpt lat="39.050903" lon="8.9859729"><ele>47.5</ele><time>2026-05-01T14:48:30.197Z</time></trkpt><trkpt lat="39.0511391" lon="8.9860111"><ele>47.0</ele><time>2026-05-01T14:48:31.197Z</time></trkpt><trkpt lat="39.0513727" lon="8.9860562"><ele>47.0</ele><time>2026-05-01T14:48:32.197Z</time></trkpt><trkpt lat="39.0516099" lon="8.9861042"><ele>47.0</ele><time>2026-05-01T14:48:33.196Z</time></trkpt><trkpt lat="39.0518486" lon="8.9861551"><ele>47.0</ele><time>2026-05-01T14:48:34.196Z</time></trkpt><trkpt lat="39.0520907" lon="8.98621"><ele>47.0</ele><time>2026-05-01T14:48:35.196Z</time></trkpt><trkpt lat="39.0523358" lon="8.9862748"><ele>48.0</ele><time>2026-05-01T14:48:36.196Z</time></trkpt><trkpt lat="39.052584" lon="8.9863452"><ele>49.0</ele><time>2026-05-01T14:48:37.197Z</time></trkpt><trkpt lat="39.0528382" lon="8.9864207"><ele>49.0</ele><time>2026-05-01T14:48:38.196Z</time></trkpt><trkpt lat="39.0530959" lon="8.9865023"><ele>49.0</ele><time>2026-05-01T14:48:39.197Z</time></trkpt><trkpt lat="39.0533577" lon="8.9865827"><ele>49.0</ele><time>2026-05-01T14:48:40.196Z</time></trkpt><trkpt lat="39.0536256" lon="8.9866686"><ele>49.0</ele><time>2026-05-01T14:48:41.196Z</time></trkpt><trkpt lat="39.0538923" lon="8.9867587"><ele>50.5</ele><time>2026-05-01T14:48:42.197Z</time></trkpt><trkpt lat="39.0541587" lon="8.9868494"><ele>52.0</ele><time>2026-05-01T14:48:43.197Z</time></trkpt><trkpt lat="39.0544257" lon="8.9869424"><ele>52.0</ele><time>2026-05-01T14:48:44.196Z</time></trkpt><trkpt lat="39.0546911" lon="8.9870376"><ele>52.0</ele><time>2026-05-01T14:48:45.196Z</time></trkpt><trkpt lat="39.054955" lon="8.9871297"><ele>53.0</ele><time>2026-05-01T14:48:46.197Z</time></trkpt><trkpt lat="39.0552202" lon="8.9872208"><ele>54.0</ele><time>2026-05-01T14:48:47.197Z</time></trkpt><trkpt lat="39.0554849" lon="8.9873108"><ele>54.0</ele><time>2026-05-01T14:48:48.197Z</time></trkpt><trkpt lat="39.0557505" lon="8.9874012"><ele>54.0</ele><time>2026-05-01T14:48:49.196Z</time></trkpt><trkpt lat="39.0560159" lon="8.9874912"><ele>53.5</ele><time>2026-05-01T14:48:50.196Z</time></trkpt><trkpt lat="39.0562807" lon="8.9875817"><ele>53.0</ele><time>2026-05-01T14:48:51.196Z</time></trkpt><trkpt lat="39.0565455" lon="8.9876764"><ele>54.0</ele><time>2026-05-01T14:48:52.196Z</time></trkpt><trkpt lat="39.0568111" lon="8.9877671"><ele>55.0</ele><time>2026-05-01T14:48:53.197Z</time></trkpt><trkpt lat="39.0570771" lon="8.9878594"><ele>55.0</ele><time>2026-05-01T14:48:54.196Z</time></trkpt><trkpt lat="39.0573414" lon="8.9879499"><ele>55.0</ele><time>2026-05-01T14:48:55.197Z</time></trkpt><trkpt lat="39.0576053" lon="8.9880372"><ele>56.5</ele><time>2026-05-01T14:48:56.197Z</time></trkpt><trkpt lat="39.0578708" lon="8.9881232"><ele>58.0</ele><time>2026-05-01T14:48:57.196Z</time></trkpt><trkpt lat="39.0581352" lon="8.988206"><ele>58.0</ele><time>2026-05-01T14:48:58.196Z</time></trkpt><trkpt lat="39.0584015" lon="8.988292"><ele>58.0</ele><time>2026-05-01T14:48:59.197Z</time></trkpt><trkpt lat="39.0586677" lon="8.9883792"><ele>58.0</ele><time>2026-05-01T14:49:00.196Z</time></trkpt><trkpt lat="39.0589329" lon="8.9884701"><ele>58.0</ele><time>2026-05-01T14:49:01.196Z</time></trkpt><trkpt lat="39.0591986" lon="8.9885631"><ele>57.5</ele><time>2026-05-01T14:49:02.196Z</time></trkpt><trkpt lat="39.0594633" lon="8.9886571"><ele>57.0</ele><time>2026-05-01T14:49:03.196Z</time></trkpt><trkpt lat="39.0597267" lon="8.9887499"><ele>58.0</ele><time>2026-05-01T14:49:04.196Z</time></trkpt><trkpt lat="39.059991" lon="8.9888446"><ele>59.0</ele><time>2026-05-01T14:49:05.197Z</time></trkpt><trkpt lat="39.0602551" lon="8.988941"><ele>59.0</ele><time>2026-05-01T14:49:06.197Z</time></trkpt><trkpt lat="39.0605186" lon="8.9890339"><ele>59.0</ele><time>2026-05-01T14:49:07.197Z</time></trkpt><trkpt lat="39.0607753" lon="8.9891252"><ele>61.0</ele><time>2026-05-01T14:49:08.196Z</time></trkpt><trkpt lat="39.0610324" lon="8.9892183"><ele>63.0</ele><time>2026-05-01T14:49:09.197Z</time></trkpt><trkpt lat="39.0612939" lon="8.989312"><ele>63.0</ele><time>2026-05-01T14:49:10.197Z</time></trkpt><trkpt lat="39.0615587" lon="8.9894069"><ele>63.0</ele><time>2026-05-01T14:49:11.196Z</time></trkpt><trkpt lat="39.0618254" lon="8.9894994"><ele>63.5</ele><time>2026-05-01T14:49:12.197Z</time></trkpt><trkpt lat="39.0620938" lon="8.9895909"><ele>64.0</ele><time>2026-05-01T14:49:13.196Z</time></trkpt><trkpt lat="39.0623611" lon="8.9896829"><ele>64.5</ele><time>2026-05-01T14:49:14.196Z</time></trkpt><trkpt lat="39.0626261" lon="8.9897766"><ele>65.0</ele><time>2026-05-01T14:49:15.196Z</time></trkpt><trkpt lat="39.0628906" lon="8.9898684"><ele>65.0</ele><time>2026-05-01T14:49:16.197Z</time></trkpt><trkpt lat="39.0631564" lon="8.9899568"><ele>65.0</ele><time>2026-05-01T14:49:17.197Z</time></trkpt><trkpt lat="39.063423" lon="8.9900445"><ele>66.5</ele><time>2026-05-01T14:49:18.197Z</time></trkpt><trkpt lat="39.0636903" lon="8.990132"><ele>68.0</ele><time>2026-05-01T14:49:19.197Z</time></trkpt><trkpt lat="39.0639573" lon="8.990222"><ele>68.5</ele><time>2026-05-01T14:49:20.197Z</time></trkpt><trkpt lat="39.0642247" lon="8.9903128"><ele>69.0</ele><time>2026-05-01T14:49:21.196Z</time></trkpt><trkpt lat="39.0644905" lon="8.9904029"><ele>69.0</ele><time>2026-05-01T14:49:22.196Z</time></trkpt><trkpt lat="39.0647553" lon="8.9904939"><ele>69.0</ele><time>2026-05-01T14:49:23.196Z</time></trkpt><trkpt lat="39.0650207" lon="8.9905839"><ele>70.0</ele><time>2026-05-01T14:49:24.196Z</time></trkpt><trkpt lat="39.0652881" lon="8.9906771"><ele>71.0</ele><time>2026-05-01T14:49:25.196Z</time></trkpt><trkpt lat="39.0655555" lon="8.9907682"><ele>74.0</ele><time>2026-05-01T14:49:26.197Z</time></trkpt><trkpt lat="39.0658219" lon="8.9908571"><ele>77.0</ele><time>2026-05-01T14:49:27.197Z</time></trkpt><trkpt lat="39.0660883" lon="8.9909442"><ele>77.0</ele><time>2026-05-01T14:49:28.196Z</time></trkpt><trkpt lat="39.0663554" lon="8.9910299"><ele>77.0</ele><time>2026-05-01T14:49:29.196Z</time></trkpt><trkpt lat="39.066623" lon="8.9911148"><ele>74.5</ele><time>2026-05-01T14:49:30.196Z</time></trkpt><trkpt lat="39.0668909" lon="8.9912"><ele>72.0</ele><time>2026-05-01T14:49:31.197Z</time></trkpt><trkpt lat="39.0671585" lon="8.9912869"><ele>72.0</ele><time>2026-05-01T14:49:32.197Z</time></trkpt><trkpt lat="39.0674258" lon="8.9913774"><ele>72.0</ele><time>2026-05-01T14:49:33.196Z</time></trkpt><trkpt lat="39.0676918" lon="8.9914672"><ele>71.0</ele><time>2026-05-01T14:49:34.197Z</time></trkpt><trkpt lat="39.0679578" lon="8.9915587"><ele>70.0</ele><time>2026-05-01T14:49:35.197Z</time></trkpt><trkpt lat="39.0682237" lon="8.9916485"><ele>70.0</ele><time>2026-05-01T14:49:36.196Z</time></trkpt><trkpt lat="39.0684909" lon="8.9917395"><ele>70.0</ele><time>2026-05-01T14:49:37.196Z</time></trkpt><trkpt lat="39.0687578" lon="8.9918298"><ele>70.0</ele><time>2026-05-01T14:49:38.196Z</time></trkpt><trkpt lat="39.0690256" lon="8.9919207"><ele>70.0</ele><time>2026-05-01T14:49:39.197Z</time></trkpt><trkpt lat="39.069292" lon="8.9920124"><ele>71.5</ele><time>2026-05-01T14:49:40.196Z</time></trkpt><trkpt lat="39.0695588" lon="8.9921048"><ele>73.0</ele><time>2026-05-01T14:49:41.196Z</time></trkpt><trkpt lat="39.0698247" lon="8.9921972"><ele>74.0</ele><time>2026-05-01T14:49:42.197Z</time></trkpt><trkpt lat="39.0700906" lon="8.9922887"><ele>75.0</ele><time>2026-05-01T14:49:43.196Z</time></trkpt><trkpt lat="39.0703568" lon="8.9923803"><ele>75.0</ele><time>2026-05-01T14:49:44.197Z</time></trkpt><trkpt lat="39.0706234" lon="8.9924717"><ele>75.0</ele><time>2026-05-01T14:49:45.196Z</time></trkpt><trkpt lat="39.070889" lon="8.9925656"><ele>74.5</ele><time>2026-05-01T14:49:46.196Z</time></trkpt><trkpt lat="39.0711554" lon="8.9926592"><ele>74.0</ele><time>2026-05-01T14:49:47.196Z</time></trkpt><trkpt lat="39.0714213" lon="8.9927543"><ele>76.0</ele><time>2026-05-01T14:49:48.196Z</time></trkpt><trkpt lat="39.0716864" lon="8.9928515"><ele>78.0</ele><time>2026-05-01T14:49:49.197Z</time></trkpt><trkpt lat="39.0719517" lon="8.992948"><ele>78.0</ele><time>2026-05-01T14:49:50.197Z</time></trkpt><trkpt lat="39.0722179" lon="8.9930436"><ele>78.0</ele><time>2026-05-01T14:49:51.197Z</time></trkpt><trkpt lat="39.0724842" lon="8.9931378"><ele>77.5</ele><time>2026-05-01T14:49:52.197Z</time></trkpt><trkpt lat="39.0727514" lon="8.9932304"><ele>77.0</ele><time>2026-05-01T14:49:53.196Z</time></trkpt><trkpt lat="39.0730175" lon="8.993322"><ele>76.5</ele><time>2026-05-01T14:49:54.196Z</time></trkpt><trkpt lat="39.0732827" lon="8.9934137"><ele>76.0</ele><time>2026-05-01T14:49:55.196Z</time></trkpt><trkpt lat="39.0735488" lon="8.9935054"><ele>76.0</ele><time>2026-05-01T14:49:56.196Z</time></trkpt><trkpt lat="39.0738152" lon="8.993596"><ele>76.0</ele><time>2026-05-01T14:49:57.196Z</time></trkpt><trkpt lat="39.0740817" lon="8.9936863"><ele>76.5</ele><time>2026-05-01T14:49:58.196Z</time></trkpt><trkpt lat="39.0743482" lon="8.9937754"><ele>77.0</ele><time>2026-05-01T14:49:59.196Z</time></trkpt><trkpt lat="39.0746149" lon="8.9938633"><ele>77.0</ele><time>2026-05-01T14:50:00.197Z</time></trkpt><trkpt lat="39.0748828" lon="8.9939537"><ele>77.0</ele><time>2026-05-01T14:50:01.197Z</time></trkpt><trkpt lat="39.0751483" lon="8.9940454"><ele>77.0</ele><time>2026-05-01T14:50:02.196Z</time></trkpt><trkpt lat="39.0754132" lon="8.9941365"><ele>77.0</ele><time>2026-05-01T14:50:03.197Z</time></trkpt><trkpt lat="39.0756784" lon="8.9942296"><ele>77.0</ele><time>2026-05-01T14:50:04.197Z</time></trkpt><trkpt lat="39.0759448" lon="8.9943207"><ele>77.0</ele><time>2026-05-01T14:50:05.197Z</time></trkpt><trkpt lat="39.0762111" lon="8.9944116"><ele>77.0</ele><time>2026-05-01T14:50:06.196Z</time></trkpt><trkpt lat="39.0764777" lon="8.9945029"><ele>77.0</ele><time>2026-05-01T14:50:07.196Z</time></trkpt><trkpt lat="39.0767448" lon="8.9945934"><ele>76.5</ele><time>2026-05-01T14:50:08.196Z</time></trkpt><trkpt lat="39.0770112" lon="8.9946867"><ele>76.0</ele><time>2026-05-01T14:50:09.197Z</time></trkpt><trkpt lat="39.077277" lon="8.9947803"><ele>76.0</ele><time>2026-05-01T14:50:10.197Z</time></trkpt><trkpt lat="39.0775431" lon="8.9948742"><ele>76.0</ele><time>2026-05-01T14:50:11.196Z</time></trkpt><trkpt lat="39.0778087" lon="8.9949663"><ele>75.0</ele><time>2026-05-01T14:50:12.196Z</time></trkpt><trkpt lat="39.078074" lon="8.9950588"><ele>74.0</ele><time>2026-05-01T14:50:13.196Z</time></trkpt><trkpt lat="39.0783393" lon="8.9951501"><ele>73.5</ele><time>2026-05-01T14:50:14.196Z</time></trkpt><trkpt lat="39.0786056" lon="8.9952403"><ele>73.0</ele><time>2026-05-01T14:50:15.196Z</time></trkpt><trkpt lat="39.0788725" lon="8.9953301"><ele>72.0</ele><time>2026-05-01T14:50:16.196Z</time></trkpt><trkpt lat="39.0791383" lon="8.9954197"><ele>71.0</ele><time>2026-05-01T14:50:17.197Z</time></trkpt><trkpt lat="39.0794041" lon="8.9955113"><ele>71.0</ele><time>2026-05-01T14:50:18.196Z</time></trkpt><trkpt lat="39.0796708" lon="8.9956035"><ele>71.0</ele><time>2026-05-01T14:50:19.196Z</time></trkpt><trkpt lat="39.0799368" lon="8.9956965"><ele>71.5</ele><time>2026-05-01T14:50:20.197Z</time></trkpt><trkpt lat="39.0802033" lon="8.9957909"><ele>72.0</ele><time>2026-05-01T14:50:21.197Z</time></trkpt><trkpt lat="39.080469" lon="8.9958836"><ele>72.0</ele><time>2026-05-01T14:50:22.196Z</time></trkpt><trkpt lat="39.080735" lon="8.9959776"><ele>72.0</ele><time>2026-05-01T14:50:23.197Z</time></trkpt><trkpt lat="39.0809999" lon="8.996069"><ele>75.0</ele><time>2026-05-01T14:50:24.197Z</time></trkpt><trkpt lat="39.081266" lon="8.9961553"><ele>78.0</ele><time>2026-05-01T14:50:25.196Z</time></trkpt><trkpt lat="39.0815336" lon="8.9962356"><ele>82.0</ele><time>2026-05-01T14:50:26.197Z</time></trkpt><trkpt lat="39.0818024" lon="8.9963142"><ele>86.0</ele><time>2026-05-01T14:50:27.197Z</time></trkpt><trkpt lat="39.0820708" lon="8.9963943"><ele>86.0</ele><time>2026-05-01T14:50:28.196Z</time></trkpt><trkpt lat="39.0823383" lon="8.9964785"><ele>86.0</ele><time>2026-05-01T14:50:29.197Z</time></trkpt><trkpt lat="39.0826047" lon="8.9965683"><ele>86.0</ele><time>2026-05-01T14:50:30.197Z</time></trkpt><trkpt lat="39.0828702" lon="8.9966627"><ele>86.0</ele><time>2026-05-01T14:50:31.197Z</time></trkpt><trkpt lat="39.0831345" lon="8.9967588"><ele>84.5</ele><time>2026-05-01T14:50:32.197Z</time></trkpt><trkpt lat="39.0833996" lon="8.9968563"><ele>83.0</ele><time>2026-05-01T14:50:33.196Z</time></trkpt><trkpt lat="39.0836634" lon="8.9969539"><ele>83.0</ele><time>2026-05-01T14:50:34.196Z</time></trkpt><trkpt lat="39.0839307" lon="8.9970518"><ele>83.0</ele><time>2026-05-01T14:50:35.197Z</time></trkpt><trkpt lat="39.0841964" lon="8.9971493"><ele>84.0</ele><time>2026-05-01T14:50:36.197Z</time></trkpt><trkpt lat="39.0844615" lon="8.9972455"><ele>85.0</ele><time>2026-05-01T14:50:37.196Z</time></trkpt><trkpt lat="39.0847282" lon="8.9973394"><ele>85.0</ele><time>2026-05-01T14:50:38.197Z</time></trkpt><trkpt lat="39.0849957" lon="8.997432"><ele>85.0</ele><time>2026-05-01T14:50:39.197Z</time></trkpt><trkpt lat="39.0852621" lon="8.9975239"><ele>85.0</ele><time>2026-05-01T14:50:40.197Z</time></trkpt><trkpt lat="39.0855281" lon="8.9976127"><ele>85.0</ele><time>2026-05-01T14:50:41.197Z</time></trkpt><trkpt lat="39.0857935" lon="8.9977023"><ele>83.5</ele><time>2026-05-01T14:50:42.196Z</time></trkpt><trkpt lat="39.0860562" lon="8.9977916"><ele>82.0</ele><time>2026-05-01T14:50:43.197Z</time></trkpt><trkpt lat="39.0863152" lon="8.9978796"><ele>82.0</ele><time>2026-05-01T14:50:44.197Z</time></trkpt><trkpt lat="39.0865735" lon="8.997967"><ele>82.0</ele><time>2026-05-01T14:50:45.197Z</time></trkpt><trkpt lat="39.0868326" lon="8.9980561"><ele>82.0</ele><time>2026-05-01T14:50:46.197Z</time></trkpt><trkpt lat="39.0870928" lon="8.9981464"><ele>82.0</ele><time>2026-05-01T14:50:47.196Z</time></trkpt><trkpt lat="39.0873528" lon="8.9982365"><ele>79.0</ele><time>2026-05-01T14:50:48.197Z</time></trkpt><trkpt lat="39.0876138" lon="8.9983267"><ele>76.0</ele><time>2026-05-01T14:50:49.197Z</time></trkpt><trkpt lat="39.0878745" lon="8.998416"><ele>74.0</ele><time>2026-05-01T14:50:50.197Z</time></trkpt><trkpt lat="39.088137" lon="8.9985007"><ele>72.0</ele><time>2026-05-01T14:50:51.197Z</time></trkpt><trkpt lat="39.0883991" lon="8.9985781"><ele>71.0</ele><time>2026-05-01T14:50:52.196Z</time></trkpt><trkpt lat="39.0886628" lon="8.9986493"><ele>70.0</ele><time>2026-05-01T14:50:53.197Z</time></trkpt><trkpt lat="39.0889277" lon="8.9987133"><ele>65.5</ele><time>2026-05-01T14:50:54.196Z</time></trkpt><trkpt lat="39.0891934" lon="8.9987676"><ele>61.0</ele><time>2026-05-01T14:50:55.197Z</time></trkpt><trkpt lat="39.0894592" lon="8.9988125"><ele>61.0</ele><time>2026-05-01T14:50:56.197Z</time></trkpt><trkpt lat="39.0897264" lon="8.9988454"><ele>61.0</ele><time>2026-05-01T14:50:57.196Z</time></trkpt><trkpt lat="39.0899946" lon="8.99887"><ele>56.5</ele><time>2026-05-01T14:50:58.197Z</time></trkpt><trkpt lat="39.0902626" lon="8.9988838"><ele>52.0</ele><time>2026-05-01T14:50:59.197Z</time></trkpt><trkpt lat="39.0905298" lon="8.9988892"><ele>53.5</ele><time>2026-05-01T14:51:00.196Z</time></trkpt><trkpt lat="39.0907976" lon="8.998884"><ele>55.0</ele><time>2026-05-01T14:51:01.196Z</time></trkpt><trkpt lat="39.0910653" lon="8.9988672"><ele>55.0</ele><time>2026-05-01T14:51:02.196Z</time></trkpt><trkpt lat="39.0913326" lon="8.9988426"><ele>55.0</ele><time>2026-05-01T14:51:03.197Z</time></trkpt><trkpt lat="39.0915989" lon="8.9988103"><ele>58.5</ele><time>2026-05-01T14:51:04.196Z</time></trkpt><trkpt lat="39.0918643" lon="8.9987667"><ele>62.0</ele><time>2026-05-01T14:51:05.196Z</time></trkpt><trkpt lat="39.0921287" lon="8.9987109"><ele>62.0</ele><time>2026-05-01T14:51:06.196Z</time></trkpt><trkpt lat="39.0923911" lon="8.998643"><ele>62.0</ele><time>2026-05-01T14:51:07.197Z</time></trkpt><trkpt lat="39.0926516" lon="8.9985661"><ele>67.0</ele><time>2026-05-01T14:51:08.197Z</time></trkpt><trkpt lat="39.0929085" lon="8.9984841"><ele>72.0</ele><time>2026-05-01T14:51:09.196Z</time></trkpt><trkpt lat="39.0931639" lon="8.9984074"><ele>79.0</ele><time>2026-05-01T14:51:10.197Z</time></trkpt><trkpt lat="39.0934212" lon="8.9983276"><ele>86.0</ele><time>2026-05-01T14:51:11.196Z</time></trkpt><trkpt lat="39.0936774" lon="8.9982484"><ele>90.0</ele><time>2026-05-01T14:51:12.197Z</time></trkpt><trkpt lat="39.0968058" lon="8.9972834"><ele>90.0</ele><time>2026-05-01T14:51:26.196Z</time></trkpt><trkpt lat="39.0970162" lon="8.9972351"><ele>90.0</ele><time>2026-05-01T14:51:27.197Z</time></trkpt><trkpt lat="39.0972217" lon="8.9971725"><ele>90.0</ele><time>2026-05-01T14:51:28.197Z</time></trkpt><trkpt lat="39.0974256" lon="8.9971094"><ele>90.33333333333333</ele><time>2026-05-01T14:51:29.197Z</time></trkpt><trkpt lat="39.0976282" lon="8.9970484"><ele>90.66666666666666</ele><time>2026-05-01T14:51:30.197Z</time></trkpt><trkpt lat="39.0978471" lon="8.9969872"><ele>91.0</ele><time>2026-05-01T14:51:31.196Z</time></trkpt><trkpt lat="39.0980453" lon="8.9969164"><ele>91.0</ele><time>2026-05-01T14:51:32.196Z</time></trkpt><trkpt lat="39.0982436" lon="8.9968474"><ele>91.0</ele><time>2026-05-01T14:51:33.197Z</time></trkpt><trkpt lat="39.0984424" lon="8.9967739"><ele>91.0</ele><time>2026-05-01T14:51:34.197Z</time></trkpt><trkpt lat="39.0986419" lon="8.9967034"><ele>87.33333333333333</ele><time>2026-05-01T14:51:35.197Z</time></trkpt><trkpt lat="39.0988421" lon="8.9966365"><ele>83.66666666666667</ele><time>2026-05-01T14:51:36.197Z</time></trkpt><trkpt lat="39.0990455" lon="8.996574"><ele>80.0</ele><time>2026-05-01T14:51:37.197Z</time></trkpt><trkpt lat="39.0992513" lon="8.9965091"><ele>79.0</ele><time>2026-05-01T14:51:38.196Z</time></trkpt><trkpt lat="39.0994598" lon="8.9964469"><ele>78.0</ele><time>2026-05-01T14:51:39.197Z</time></trkpt><trkpt lat="39.0996686" lon="8.9963868"><ele>77.0</ele><time>2026-05-01T14:51:40.196Z</time></trkpt><trkpt lat="39.0998791" lon="8.9963284"><ele>74.33333333333334</ele><time>2026-05-01T14:51:41.197Z</time></trkpt><trkpt lat="39.1000912" lon="8.9962712"><ele>71.66666666666667</ele><time>2026-05-01T14:51:42.197Z</time></trkpt><trkpt lat="39.1003062" lon="8.9962189"><ele>69.0</ele><time>2026-05-01T14:51:43.196Z</time></trkpt><trkpt lat="39.1005236" lon="8.9961712"><ele>69.0</ele><time>2026-05-01T14:51:44.196Z</time></trkpt><trkpt lat="39.100744" lon="8.9961274"><ele>69.0</ele><time>2026-05-01T14:51:45.196Z</time></trkpt><trkpt lat="39.1009669" lon="8.9960892"><ele>69.0</ele><time>2026-05-01T14:51:46.197Z</time></trkpt><trkpt lat="39.10119" lon="8.9960608"><ele>68.0</ele><time>2026-05-01T14:51:47.197Z</time></trkpt><trkpt lat="39.1014163" lon="8.9960399"><ele>67.0</ele><time>2026-05-01T14:51:48.197Z</time></trkpt><trkpt lat="39.1016437" lon="8.9960294"><ele>66.0</ele><time>2026-05-01T14:51:49.197Z</time></trkpt><trkpt lat="39.1018727" lon="8.9960286"><ele>65.0</ele><time>2026-05-01T14:51:50.197Z</time></trkpt><trkpt lat="39.1021028" lon="8.9960308"><ele>65.0</ele><time>2026-05-01T14:51:51.196Z</time></trkpt><trkpt lat="39.1023327" lon="8.9960412"><ele>65.0</ele><time>2026-05-01T14:51:52.197Z</time></trkpt><trkpt lat="39.1025621" lon="8.9960597"><ele>62.5</ele><time>2026-05-01T14:51:53.196Z</time></trkpt><trkpt lat="39.1027904" lon="8.9960833"><ele>60.0</ele><time>2026-05-01T14:51:54.197Z</time></trkpt><trkpt lat="39.1030156" lon="8.9961127"><ele>60.0</ele><time>2026-05-01T14:51:55.196Z</time></trkpt><trkpt lat="39.1032368" lon="8.9961467"><ele>60.0</ele><time>2026-05-01T14:51:56.196Z</time></trkpt><trkpt lat="39.1034565" lon="8.9961843"><ele>60.0</ele><time>2026-05-01T14:51:57.196Z</time></trkpt><trkpt lat="39.1036795" lon="8.9962265"><ele>61.66666666666667</ele><time>2026-05-01T14:51:58.197Z</time></trkpt><trkpt lat="39.1039021" lon="8.9962678"><ele>63.333333333333336</ele><time>2026-05-01T14:51:59.197Z</time></trkpt><trkpt lat="39.1041159" lon="8.996306"><ele>65.0</ele><time>2026-05-01T14:52:00.196Z</time></trkpt><trkpt lat="39.1043341" lon="8.9963421"><ele>68.0</ele><time>2026-05-01T14:52:01.197Z</time></trkpt><trkpt lat="39.1045514" lon="8.9963796"><ele>71.0</ele><time>2026-05-01T14:52:02.196Z</time></trkpt><trkpt lat="39.1047701" lon="8.9964164"><ele>74.0</ele><time>2026-05-01T14:52:03.196Z</time></trkpt><trkpt lat="39.1049893" lon="8.996454"><ele>74.0</ele><time>2026-05-01T14:52:04.197Z</time></trkpt><trkpt lat="39.1052035" lon="8.9964924"><ele>74.0</ele><time>2026-05-01T14:52:05.197Z</time></trkpt><trkpt lat="39.1054164" lon="8.99653"><ele>74.0</ele><time>2026-05-01T14:52:06.196Z</time></trkpt><trkpt lat="39.1056295" lon="8.9965691"><ele>72.33333333333334</ele><time>2026-05-01T14:52:07.196Z</time></trkpt><trkpt lat="39.1058445" lon="8.9966073"><ele>70.66666666666667</ele><time>2026-05-01T14:52:08.197Z</time></trkpt><trkpt lat="39.1060599" lon="8.9966467"><ele>69.0</ele><time>2026-05-01T14:52:09.197Z</time></trkpt><trkpt lat="39.1062758" lon="8.996685"><ele>68.33333333333333</ele><time>2026-05-01T14:52:10.196Z</time></trkpt><trkpt lat="39.106491" lon="8.9967249"><ele>67.66666666666666</ele><time>2026-05-01T14:52:11.196Z</time></trkpt><trkpt lat="39.1067108" lon="8.9967679"><ele>67.0</ele><time>2026-05-01T14:52:12.197Z</time></trkpt><trkpt lat="39.1069322" lon="8.9968103"><ele>63.5</ele><time>2026-05-01T14:52:13.197Z</time></trkpt><trkpt lat="39.1071561" lon="8.9968551"><ele>60.0</ele><time>2026-05-01T14:52:14.196Z</time></trkpt><trkpt lat="39.1073812" lon="8.9969006"><ele>62.5</ele><time>2026-05-01T14:52:15.197Z</time></trkpt><trkpt lat="39.1076084" lon="8.996957"><ele>65.0</ele><time>2026-05-01T14:52:16.197Z</time></trkpt><trkpt lat="39.1078352" lon="8.9970252"><ele>65.0</ele><time>2026-05-01T14:52:17.196Z</time></trkpt><trkpt lat="39.1080555" lon="8.9971038"><ele>65.0</ele><time>2026-05-01T14:52:18.196Z</time></trkpt><trkpt lat="39.1082686" lon="8.9971887"><ele>65.33333333333334</ele><time>2026-05-01T14:52:19.197Z</time></trkpt><trkpt lat="39.1084788" lon="8.9972773"><ele>65.66666666666667</ele><time>2026-05-01T14:52:20.196Z</time></trkpt><trkpt lat="39.1086836" lon="8.9973739"><ele>66.0</ele><time>2026-05-01T14:52:21.196Z</time></trkpt><trkpt lat="39.1088871" lon="8.9974733"><ele>63.33333333333333</ele><time>2026-05-01T14:52:22.197Z</time></trkpt><trkpt lat="39.1090896" lon="8.9975765"><ele>60.666666666666664</ele><time>2026-05-01T14:52:23.196Z</time></trkpt><trkpt lat="39.1092912" lon="8.9976826"><ele>58.0</ele><time>2026-05-01T14:52:24.197Z</time></trkpt><trkpt lat="39.109493" lon="8.9977874"><ele>58.0</ele><time>2026-05-01T14:52:25.196Z</time></trkpt><trkpt lat="39.1096957" lon="8.9978931"><ele>58.0</ele><time>2026-05-01T14:52:26.197Z</time></trkpt><trkpt lat="39.1098997" lon="8.9979926"><ele>58.0</ele><time>2026-05-01T14:52:27.196Z</time></trkpt><trkpt lat="39.1101059" lon="8.9980916"><ele>55.33333333333333</ele><time>2026-05-01T14:52:28.197Z</time></trkpt><trkpt lat="39.1103144" lon="8.9981857"><ele>52.66666666666667</ele><time>2026-05-01T14:52:29.196Z</time></trkpt><trkpt lat="39.1105183" lon="8.9982653"><ele>50.0</ele><time>2026-05-01T14:52:30.196Z</time></trkpt><trkpt lat="39.1107244" lon="8.9983348"><ele>47.333333333333336</ele><time>2026-05-01T14:52:31.197Z</time></trkpt><trkpt lat="39.1109328" lon="8.9983945"><ele>44.66666666666667</ele><time>2026-05-01T14:52:32.196Z</time></trkpt><trkpt lat="39.1111432" lon="8.998445"><ele>42.0</ele><time>2026-05-01T14:52:33.196Z</time></trkpt><trkpt lat="39.1113564" lon="8.9984925"><ele>42.0</ele><time>2026-05-01T14:52:34.196Z</time></trkpt><trkpt lat="39.11157" lon="8.998536"><ele>42.0</ele><time>2026-05-01T14:52:35.197Z</time></trkpt><trkpt lat="39.1117882" lon="8.9985664"><ele>42.0</ele><time>2026-05-01T14:52:36.197Z</time></trkpt><trkpt lat="39.112007" lon="8.9985854"><ele>41.0</ele><time>2026-05-01T14:52:37.197Z</time></trkpt><trkpt lat="39.1122265" lon="8.9985925"><ele>40.0</ele><time>2026-05-01T14:52:38.197Z</time></trkpt><trkpt lat="39.1124469" lon="8.9985915"><ele>39.0</ele><time>2026-05-01T14:52:39.196Z</time></trkpt><trkpt lat="39.1126678" lon="8.9985835"><ele>38.333333333333336</ele><time>2026-05-01T14:52:40.197Z</time></trkpt><trkpt lat="39.1128875" lon="8.998566"><ele>37.66666666666667</ele><time>2026-05-01T14:52:41.197Z</time></trkpt><trkpt lat="39.113105" lon="8.9985377"><ele>37.0</ele><time>2026-05-01T14:52:42.196Z</time></trkpt><trkpt lat="39.1133226" lon="8.9985011"><ele>38.333333333333336</ele><time>2026-05-01T14:52:43.196Z</time></trkpt><trkpt lat="39.1135395" lon="8.998456"><ele>39.666666666666664</ele><time>2026-05-01T14:52:44.197Z</time></trkpt><trkpt lat="39.1137545" lon="8.9984046"><ele>41.0</ele><time>2026-05-01T14:52:45.197Z</time></trkpt><trkpt lat="39.1139684" lon="8.9983462"><ele>43.0</ele><time>2026-05-01T14:52:46.197Z</time></trkpt><trkpt lat="39.1141813" lon="8.9982821"><ele>45.0</ele><time>2026-05-01T14:52:47.196Z</time></trkpt><trkpt lat="39.1143938" lon="8.9982124"><ele>47.0</ele><time>2026-05-01T14:52:48.196Z</time></trkpt><trkpt lat="39.1146056" lon="8.9981397"><ele>47.0</ele><time>2026-05-01T14:52:49.196Z</time></trkpt><trkpt lat="39.1148175" lon="8.9980672"><ele>47.0</ele><time>2026-05-01T14:52:50.197Z</time></trkpt><trkpt lat="39.115029" lon="8.9979955"><ele>47.0</ele><time>2026-05-01T14:52:51.196Z</time></trkpt><trkpt lat="39.1152434" lon="8.9979248"><ele>47.33333333333333</ele><time>2026-05-01T14:52:52.197Z</time></trkpt><trkpt lat="39.1154578" lon="8.9978528"><ele>47.666666666666664</ele><time>2026-05-01T14:52:53.196Z</time></trkpt><trkpt lat="39.1156746" lon="8.9977791"><ele>48.0</ele><time>2026-05-01T14:52:54.196Z</time></trkpt><trkpt lat="39.1158942" lon="8.9977048"><ele>49.5</ele><time>2026-05-01T14:52:55.197Z</time></trkpt><trkpt lat="39.1161148" lon="8.9976285"><ele>51.0</ele><time>2026-05-01T14:52:56.196Z</time></trkpt><trkpt lat="39.1163361" lon="8.9975495"><ele>51.0</ele><time>2026-05-01T14:52:57.196Z</time></trkpt><trkpt lat="39.1165591" lon="8.9974719"><ele>51.0</ele><time>2026-05-01T14:52:58.196Z</time></trkpt><trkpt lat="39.1167834" lon="8.9973902"><ele>49.5</ele><time>2026-05-01T14:52:59.197Z</time></trkpt><trkpt lat="39.1170081" lon="8.9973079"><ele>48.0</ele><time>2026-05-01T14:53:00.197Z</time></trkpt><trkpt lat="39.1172334" lon="8.9972262"><ele>47.5</ele><time>2026-05-01T14:53:01.197Z</time></trkpt><trkpt lat="39.1174608" lon="8.9971462"><ele>47.0</ele><time>2026-05-01T14:53:02.196Z</time></trkpt><trkpt lat="39.1176874" lon="8.9970679"><ele>47.0</ele><time>2026-05-01T14:53:03.196Z</time></trkpt><trkpt lat="39.1179139" lon="8.9969886"><ele>47.0</ele><time>2026-05-01T14:53:04.196Z</time></trkpt><trkpt lat="39.1181381" lon="8.9969102"><ele>48.0</ele><time>2026-05-01T14:53:05.197Z</time></trkpt><trkpt lat="39.1183631" lon="8.996831"><ele>49.0</ele><time>2026-05-01T14:53:06.197Z</time></trkpt><trkpt lat="39.1185903" lon="8.996755"><ele>49.0</ele><time>2026-05-01T14:53:07.197Z</time></trkpt><trkpt lat="39.1188172" lon="8.9966797"><ele>49.0</ele><time>2026-05-01T14:53:08.197Z</time></trkpt><trkpt lat="39.1190459" lon="8.9966045"><ele>48.5</ele><time>2026-05-01T14:53:09.196Z</time></trkpt><trkpt lat="39.1192763" lon="8.9965317"><ele>48.0</ele><time>2026-05-01T14:53:10.196Z</time></trkpt><trkpt lat="39.1195069" lon="8.9964609"><ele>48.0</ele><time>2026-05-01T14:53:11.197Z</time></trkpt><trkpt lat="39.1197394" lon="8.9963978"><ele>48.0</ele><time>2026-05-01T14:53:12.197Z</time></trkpt><trkpt lat="39.1199713" lon="8.9963429"><ele>46.0</ele><time>2026-05-01T14:53:13.196Z</time></trkpt><trkpt lat="39.1202051" lon="8.9962924"><ele>44.0</ele><time>2026-05-01T14:53:14.196Z</time></trkpt><trkpt lat="39.1204387" lon="8.9962526"><ele>44.0</ele><time>2026-05-01T14:53:15.196Z</time></trkpt><trkpt lat="39.120673" lon="8.9962215"><ele>44.0</ele><time>2026-05-01T14:53:16.196Z</time></trkpt><trkpt lat="39.1209079" lon="8.9961978"><ele>44.0</ele><time>2026-05-01T14:53:17.197Z</time></trkpt><trkpt lat="39.1211429" lon="8.9961833"><ele>44.0</ele><time>2026-05-01T14:53:18.197Z</time></trkpt><trkpt lat="39.1213798" lon="8.9961726"><ele>47.0</ele><time>2026-05-01T14:53:19.197Z</time></trkpt><trkpt lat="39.121617" lon="8.9961691"><ele>50.0</ele><time>2026-05-01T14:53:20.197Z</time></trkpt><trkpt lat="39.1218537" lon="8.9961717"><ele>50.0</ele><time>2026-05-01T14:53:21.197Z</time></trkpt><trkpt lat="39.1220891" lon="8.9961768"><ele>50.0</ele><time>2026-05-01T14:53:22.197Z</time></trkpt><trkpt lat="39.1223256" lon="8.9961863"><ele>49.0</ele><time>2026-05-01T14:53:23.196Z</time></trkpt><trkpt lat="39.1225608" lon="8.9962031"><ele>48.0</ele><time>2026-05-01T14:53:24.196Z</time></trkpt><trkpt lat="39.1227959" lon="8.9962267"><ele>48.0</ele><time>2026-05-01T14:53:25.197Z</time></trkpt><trkpt lat="39.1230298" lon="8.996259"><ele>48.0</ele><time>2026-05-01T14:53:26.196Z</time></trkpt><trkpt lat="39.123263" lon="8.9962976"><ele>45.0</ele><time>2026-05-01T14:53:27.196Z</time></trkpt><trkpt lat="39.1234971" lon="8.9963398"><ele>42.0</ele><time>2026-05-01T14:53:28.197Z</time></trkpt><trkpt lat="39.1237315" lon="8.9963856"><ele>42.0</ele><time>2026-05-01T14:53:29.196Z</time></trkpt><trkpt lat="39.1239651" lon="8.9964339"><ele>42.0</ele><time>2026-05-01T14:53:30.197Z</time></trkpt><trkpt lat="39.1241981" lon="8.9964811"><ele>41.5</ele><time>2026-05-01T14:53:31.197Z</time></trkpt><trkpt lat="39.1244309" lon="8.9965294"><ele>41.0</ele><time>2026-05-01T14:53:32.197Z</time></trkpt><trkpt lat="39.1246635" lon="8.9965802"><ele>41.0</ele><time>2026-05-01T14:53:33.197Z</time></trkpt><trkpt lat="39.1248917" lon="8.9966298"><ele>41.0</ele><time>2026-05-01T14:53:34.197Z</time></trkpt><trkpt lat="39.1251253" lon="8.996676"><ele>39.0</ele><time>2026-05-01T14:53:35.196Z</time></trkpt><trkpt lat="39.1253588" lon="8.9967212"><ele>37.0</ele><time>2026-05-01T14:53:36.197Z</time></trkpt><trkpt lat="39.1255932" lon="8.9967665"><ele>35.5</ele><time>2026-05-01T14:53:37.196Z</time></trkpt><trkpt lat="39.1258283" lon="8.9968074"><ele>34.0</ele><time>2026-05-01T14:53:38.196Z</time></trkpt><trkpt lat="39.1260638" lon="8.9968411"><ele>34.0</ele><time>2026-05-01T14:53:39.197Z</time></trkpt><trkpt lat="39.1262987" lon="8.9968707"><ele>34.0</ele><time>2026-05-01T14:53:40.197Z</time></trkpt><trkpt lat="39.1265333" lon="8.9968944"><ele>33.0</ele><time>2026-05-01T14:53:41.197Z</time></trkpt><trkpt lat="39.1267688" lon="8.9969126"><ele>32.0</ele><time>2026-05-01T14:53:42.197Z</time></trkpt><trkpt lat="39.1270053" lon="8.9969246"><ele>32.0</ele><time>2026-05-01T14:53:43.196Z</time></trkpt><trkpt lat="39.127241" lon="8.99693"><ele>32.0</ele><time>2026-05-01T14:53:44.197Z</time></trkpt><trkpt lat="39.1274768" lon="8.9969283"><ele>31.5</ele><time>2026-05-01T14:53:45.196Z</time></trkpt><trkpt lat="39.127712" lon="8.9969175"><ele>31.0</ele><time>2026-05-01T14:53:46.196Z</time></trkpt><trkpt lat="39.1279475" lon="8.9969022"><ele>31.0</ele><time>2026-05-01T14:53:47.196Z</time></trkpt><trkpt lat="39.1281821" lon="8.9968806"><ele>31.0</ele><time>2026-05-01T14:53:48.197Z</time></trkpt><trkpt lat="39.1284177" lon="8.9968538"><ele>30.5</ele><time>2026-05-01T14:53:49.196Z</time></trkpt><trkpt lat="39.1286512" lon="8.9968209"><ele>30.0</ele><time>2026-05-01T14:53:50.197Z</time></trkpt><trkpt lat="39.1288818" lon="8.9967791"><ele>30.5</ele><time>2026-05-01T14:53:51.197Z</time></trkpt><trkpt lat="39.1291132" lon="8.9967257"><ele>31.0</ele><time>2026-05-01T14:53:52.196Z</time></trkpt><trkpt lat="39.1293445" lon="8.996668"><ele>32.0</ele><time>2026-05-01T14:53:53.197Z</time></trkpt><trkpt lat="39.129576" lon="8.9966042"><ele>33.0</ele><time>2026-05-01T14:53:54.197Z</time></trkpt><trkpt lat="39.1298062" lon="8.9965366"><ele>32.0</ele><time>2026-05-01T14:53:55.197Z</time></trkpt><trkpt lat="39.1300348" lon="8.9964661"><ele>31.0</ele><time>2026-05-01T14:53:56.197Z</time></trkpt><trkpt lat="39.1302637" lon="8.996389"><ele>31.0</ele><time>2026-05-01T14:53:57.196Z</time></trkpt><trkpt lat="39.1304918" lon="8.9963043"><ele>31.0</ele><time>2026-05-01T14:53:58.197Z</time></trkpt><trkpt lat="39.1307176" lon="8.9962137"><ele>29.5</ele><time>2026-05-01T14:53:59.197Z</time></trkpt><trkpt lat="39.130942" lon="8.9961179"><ele>28.0</ele><time>2026-05-01T14:54:00.196Z</time></trkpt><trkpt lat="39.1311631" lon="8.9960191"><ele>28.0</ele><time>2026-05-01T14:54:01.196Z</time></trkpt><trkpt lat="39.1313823" lon="8.9959052"><ele>28.0</ele><time>2026-05-01T14:54:02.196Z</time></trkpt><trkpt lat="39.1315973" lon="8.995783"><ele>27.0</ele><time>2026-05-01T14:54:03.197Z</time></trkpt><trkpt lat="39.1318084" lon="8.9956563"><ele>26.0</ele><time>2026-05-01T14:54:04.197Z</time></trkpt><trkpt lat="39.1320211" lon="8.9955248"><ele>26.0</ele><time>2026-05-01T14:54:05.196Z</time></trkpt><trkpt lat="39.1322318" lon="8.9953908"><ele>26.0</ele><time>2026-05-01T14:54:06.196Z</time></trkpt><trkpt lat="39.1324421" lon="8.9952542"><ele>27.0</ele><time>2026-05-01T14:54:07.196Z</time></trkpt><trkpt lat="39.1326488" lon="8.9951098"><ele>28.0</ele><time>2026-05-01T14:54:08.196Z</time></trkpt><trkpt lat="39.1328512" lon="8.9949573"><ele>29.0</ele><time>2026-05-01T14:54:09.197Z</time></trkpt><trkpt lat="39.1330524" lon="8.994799"><ele>30.0</ele><time>2026-05-01T14:54:10.197Z</time></trkpt><trkpt lat="39.1332529" lon="8.994638"><ele>26.5</ele><time>2026-05-01T14:54:11.196Z</time></trkpt><trkpt lat="39.1334511" lon="8.9944742"><ele>23.0</ele><time>2026-05-01T14:54:12.197Z</time></trkpt><trkpt lat="39.1336485" lon="8.9943081"><ele>24.5</ele><time>2026-05-01T14:54:13.197Z</time></trkpt><trkpt lat="39.1338454" lon="8.9941396"><ele>26.0</ele><time>2026-05-01T14:54:14.196Z</time></trkpt><trkpt lat="39.1340418" lon="8.9939682"><ele>24.0</ele><time>2026-05-01T14:54:15.196Z</time></trkpt><trkpt lat="39.1342379" lon="8.9937973"><ele>22.0</ele><time>2026-05-01T14:54:16.197Z</time></trkpt><trkpt lat="39.1344341" lon="8.9936254"><ele>22.0</ele><time>2026-05-01T14:54:17.196Z</time></trkpt><trkpt lat="39.1346298" lon="8.9934615"><ele>22.0</ele><time>2026-05-01T14:54:18.197Z</time></trkpt><trkpt lat="39.1348276" lon="8.9932901"><ele>26.5</ele><time>2026-05-01T14:54:19.196Z</time></trkpt><trkpt lat="39.1350273" lon="8.9931216"><ele>31.0</ele><time>2026-05-01T14:54:20.196Z</time></trkpt><trkpt lat="39.1352242" lon="8.9929594"><ele>31.0</ele><time>2026-05-01T14:54:21.196Z</time></trkpt><trkpt lat="39.1354234" lon="8.9927986"><ele>31.0</ele><time>2026-05-01T14:54:22.197Z</time></trkpt><trkpt lat="39.1356228" lon="8.9926411"><ele>34.0</ele><time>2026-05-01T14:54:23.197Z</time></trkpt><trkpt lat="39.1358229" lon="8.9924848"><ele>37.0</ele><time>2026-05-01T14:54:24.197Z</time></trkpt><trkpt lat="39.136026" lon="8.9923282"><ele>37.0</ele><time>2026-05-01T14:54:25.196Z</time></trkpt><trkpt lat="39.1362297" lon="8.9921754"><ele>37.0</ele><time>2026-05-01T14:54:26.196Z</time></trkpt><trkpt lat="39.1364366" lon="8.992028"><ele>36.0</ele><time>2026-05-01T14:54:27.197Z</time></trkpt><trkpt lat="39.136645" lon="8.9918882"><ele>35.0</ele><time>2026-05-01T14:54:28.196Z</time></trkpt><trkpt lat="39.136856" lon="8.9917522"><ele>36.0</ele><time>2026-05-01T14:54:29.197Z</time></trkpt><trkpt lat="39.1370696" lon="8.9916247"><ele>37.0</ele><time>2026-05-01T14:54:30.197Z</time></trkpt><trkpt lat="39.1372862" lon="8.9915022"><ele>37.0</ele><time>2026-05-01T14:54:31.197Z</time></trkpt><trkpt lat="39.1375064" lon="8.991388"><ele>37.0</ele><time>2026-05-01T14:54:32.197Z</time></trkpt><trkpt lat="39.1377286" lon="8.9912799"><ele>37.0</ele><time>2026-05-01T14:54:33.197Z</time></trkpt><trkpt lat="39.1379504" lon="8.991181"><ele>37.0</ele><time>2026-05-01T14:54:34.196Z</time></trkpt><trkpt lat="39.1381733" lon="8.9910879"><ele>35.5</ele><time>2026-05-01T14:54:35.196Z</time></trkpt><trkpt lat="39.1383989" lon="8.9909991"><ele>34.0</ele><time>2026-05-01T14:54:36.197Z</time></trkpt><trkpt lat="39.1386264" lon="8.9909101"><ele>35.0</ele><time>2026-05-01T14:54:37.197Z</time></trkpt><trkpt lat="39.1388528" lon="8.990828"><ele>36.0</ele><time>2026-05-01T14:54:38.197Z</time></trkpt><trkpt lat="39.1390801" lon="8.9907547"><ele>33.0</ele><time>2026-05-01T14:54:39.196Z</time></trkpt><trkpt lat="39.1393102" lon="8.99069"><ele>30.0</ele><time>2026-05-01T14:54:40.197Z</time></trkpt><trkpt lat="39.139541" lon="8.9906316"><ele>30.0</ele><time>2026-05-01T14:54:41.196Z</time></trkpt><trkpt lat="39.1397724" lon="8.9905809"><ele>30.0</ele><time>2026-05-01T14:54:42.197Z</time></trkpt><trkpt lat="39.1400046" lon="8.9905329"><ele>30.5</ele><time>2026-05-01T14:54:43.197Z</time></trkpt><trkpt lat="39.1402386" lon="8.990494"><ele>31.0</ele><time>2026-05-01T14:54:44.196Z</time></trkpt><trkpt lat="39.1404717" lon="8.9904633"><ele>31.0</ele><time>2026-05-01T14:54:45.197Z</time></trkpt><trkpt lat="39.1407081" lon="8.9904386"><ele>31.0</ele><time>2026-05-01T14:54:46.196Z</time></trkpt><trkpt lat="39.1409439" lon="8.9904233"><ele>32.0</ele><time>2026-05-01T14:54:47.197Z</time></trkpt><trkpt lat="39.1411806" lon="8.9904156"><ele>33.0</ele><time>2026-05-01T14:54:48.196Z</time></trkpt><trkpt lat="39.1414176" lon="8.9904154"><ele>32.0</ele><time>2026-05-01T14:54:49.197Z</time></trkpt><trkpt lat="39.1416555" lon="8.9904208"><ele>31.0</ele><time>2026-05-01T14:54:50.196Z</time></trkpt><trkpt lat="39.1418911" lon="8.990428"><ele>31.0</ele><time>2026-05-01T14:54:51.197Z</time></trkpt><trkpt lat="39.1421249" lon="8.9904377"><ele>31.0</ele><time>2026-05-01T14:54:52.197Z</time></trkpt><trkpt lat="39.1423605" lon="8.990453"><ele>32.0</ele><time>2026-05-01T14:54:53.197Z</time></trkpt><trkpt lat="39.1425951" lon="8.9904781"><ele>33.0</ele><time>2026-05-01T14:54:54.196Z</time></trkpt><trkpt lat="39.1428307" lon="8.990513"><ele>33.0</ele><time>2026-05-01T14:54:55.197Z</time></trkpt><trkpt lat="39.1430651" lon="8.9905562"><ele>33.0</ele><time>2026-05-01T14:54:56.197Z</time></trkpt><trkpt lat="39.1432985" lon="8.9906066"><ele>32.5</ele><time>2026-05-01T14:54:57.196Z</time></trkpt><trkpt lat="39.1435319" lon="8.9906633"><ele>32.0</ele><time>2026-05-01T14:54:58.196Z</time></trkpt><trkpt lat="39.1437629" lon="8.9907255"><ele>32.0</ele><time>2026-05-01T14:54:59.197Z</time></trkpt><trkpt lat="39.143994" lon="8.9907911"><ele>32.0</ele><time>2026-05-01T14:55:00.197Z</time></trkpt><trkpt lat="39.1442236" lon="8.9908623"><ele>28.0</ele><time>2026-05-01T14:55:01.197Z</time></trkpt><trkpt lat="39.1444501" lon="8.9909404"><ele>24.0</ele><time>2026-05-01T14:55:02.196Z</time></trkpt><trkpt lat="39.1446777" lon="8.9910211"><ele>24.0</ele><time>2026-05-01T14:55:03.197Z</time></trkpt><trkpt lat="39.1449038" lon="8.9911118"><ele>24.0</ele><time>2026-05-01T14:55:04.196Z</time></trkpt><trkpt lat="39.1451278" lon="8.9912082"><ele>24.0</ele><time>2026-05-01T14:55:05.197Z</time></trkpt><trkpt lat="39.1453498" lon="8.9913151"><ele>24.0</ele><time>2026-05-01T14:55:06.197Z</time></trkpt><trkpt lat="39.1455675" lon="8.9914281"><ele>23.5</ele><time>2026-05-01T14:55:07.196Z</time></trkpt><trkpt lat="39.1457844" lon="8.9915474"><ele>23.0</ele><time>2026-05-01T14:55:08.197Z</time></trkpt><trkpt lat="39.1459985" lon="8.9916722"><ele>22.5</ele><time>2026-05-01T14:55:09.196Z</time></trkpt><trkpt lat="39.1462124" lon="8.9918032"><ele>22.0</ele><time>2026-05-01T14:55:10.197Z</time></trkpt><trkpt lat="39.1464259" lon="8.9919383"><ele>24.0</ele><time>2026-05-01T14:55:11.196Z</time></trkpt><trkpt lat="39.146841" lon="8.9922291"><ele>24.0</ele><time>2026-05-01T14:55:13.197Z</time></trkpt><trkpt lat="39.1470449" lon="8.9923833"><ele>24.0</ele><time>2026-05-01T14:55:14.196Z</time></trkpt><trkpt lat="39.1472464" lon="8.9925441"><ele>25.5</ele><time>2026-05-01T14:55:15.197Z</time></trkpt><trkpt lat="39.1474443" lon="8.9927107"><ele>27.0</ele><time>2026-05-01T14:55:16.196Z</time></trkpt><trkpt lat="39.1476389" lon="8.9928795"><ele>27.0</ele><time>2026-05-01T14:55:17.197Z</time></trkpt><trkpt lat="39.1478298" lon="8.9930569"><ele>27.0</ele><time>2026-05-01T14:55:18.196Z</time></trkpt><trkpt lat="39.1480186" lon="8.9932382"><ele>26.0</ele><time>2026-05-01T14:55:19.196Z</time></trkpt><trkpt lat="39.1482039" lon="8.993424"><ele>25.0</ele><time>2026-05-01T14:55:20.197Z</time></trkpt><trkpt lat="39.1483877" lon="8.9936132"><ele>25.0</ele><time>2026-05-01T14:55:21.196Z</time></trkpt><trkpt lat="39.1485706" lon="8.9938051"><ele>25.0</ele><time>2026-05-01T14:55:22.196Z</time></trkpt><trkpt lat="39.1487524" lon="8.9940002"><ele>25.0</ele><time>2026-05-01T14:55:23.196Z</time></trkpt><trkpt lat="39.1489334" lon="8.9941938"><ele>25.0</ele><time>2026-05-01T14:55:24.197Z</time></trkpt><trkpt lat="39.1491113" lon="8.9943933"><ele>25.0</ele><time>2026-05-01T14:55:25.197Z</time></trkpt><trkpt lat="39.1492897" lon="8.9945931"><ele>25.0</ele><time>2026-05-01T14:55:26.197Z</time></trkpt><trkpt lat="39.1494668" lon="8.9947922"><ele>25.0</ele><time>2026-05-01T14:55:27.197Z</time></trkpt><trkpt lat="39.1496447" lon="8.9949966"><ele>25.0</ele><time>2026-05-01T14:55:28.197Z</time></trkpt><trkpt lat="39.1498177" lon="8.9951994"><ele>24.0</ele><time>2026-05-01T14:55:29.197Z</time></trkpt><trkpt lat="39.149994" lon="8.9954007"><ele>23.0</ele><time>2026-05-01T14:55:30.196Z</time></trkpt><trkpt lat="39.150172" lon="8.9955994"><ele>23.0</ele><time>2026-05-01T14:55:31.197Z</time></trkpt><trkpt lat="39.15035" lon="8.9957936"><ele>23.0</ele><time>2026-05-01T14:55:32.196Z</time></trkpt><trkpt lat="39.1505301" lon="8.995989"><ele>22.5</ele><time>2026-05-01T14:55:33.197Z</time></trkpt><trkpt lat="39.1507106" lon="8.9961817"><ele>22.0</ele><time>2026-05-01T14:55:34.196Z</time></trkpt><trkpt lat="39.1508907" lon="8.9963746"><ele>22.0</ele><time>2026-05-01T14:55:35.197Z</time></trkpt><trkpt lat="39.1510705" lon="8.9965653"><ele>22.0</ele><time>2026-05-01T14:55:36.196Z</time></trkpt><trkpt lat="39.1512547" lon="8.9967562"><ele>21.5</ele><time>2026-05-01T14:55:37.197Z</time></trkpt><trkpt lat="39.1514405" lon="8.996942"><ele>21.0</ele><time>2026-05-01T14:55:38.196Z</time></trkpt><trkpt lat="39.1516298" lon="8.9971238"><ele>21.0</ele><time>2026-05-01T14:55:39.197Z</time></trkpt><trkpt lat="39.1518187" lon="8.9973058"><ele>21.0</ele><time>2026-05-01T14:55:40.196Z</time></trkpt><trkpt lat="39.1520104" lon="8.9974808"><ele>20.5</ele><time>2026-05-01T14:55:41.197Z</time></trkpt><trkpt lat="39.1522065" lon="8.9976499"><ele>20.0</ele><time>2026-05-01T14:55:42.196Z</time></trkpt><trkpt lat="39.1524048" lon="8.9978128"><ele>20.0</ele><time>2026-05-01T14:55:43.196Z</time></trkpt><trkpt lat="39.1526057" lon="8.9979692"><ele>20.0</ele><time>2026-05-01T14:55:44.196Z</time></trkpt><trkpt lat="39.1528112" lon="8.9981187"><ele>20.0</ele><time>2026-05-01T14:55:45.197Z</time></trkpt><trkpt lat="39.1530184" lon="8.9982702"><ele>20.0</ele><time>2026-05-01T14:55:46.197Z</time></trkpt><trkpt lat="39.1532276" lon="8.9984169"><ele>18.5</ele><time>2026-05-01T14:55:47.197Z</time></trkpt><trkpt lat="39.153439" lon="8.9985565"><ele>17.0</ele><time>2026-05-01T14:55:48.197Z</time></trkpt><trkpt lat="39.1536505" lon="8.9986942"><ele>17.0</ele><time>2026-05-01T14:55:49.197Z</time></trkpt><trkpt lat="39.1538611" lon="8.9988306"><ele>17.0</ele><time>2026-05-01T14:55:50.197Z</time></trkpt><trkpt lat="39.1540735" lon="8.9989633"><ele>17.0</ele><time>2026-05-01T14:55:51.196Z</time></trkpt><trkpt lat="39.1542858" lon="8.9990949"><ele>17.0</ele><time>2026-05-01T14:55:52.197Z</time></trkpt><trkpt lat="39.1544993" lon="8.9992255"><ele>16.5</ele><time>2026-05-01T14:55:53.197Z</time></trkpt><trkpt lat="39.1547139" lon="8.9993558"><ele>16.0</ele><time>2026-05-01T14:55:54.196Z</time></trkpt><trkpt lat="39.1549279" lon="8.9994853"><ele>15.5</ele><time>2026-05-01T14:55:55.196Z</time></trkpt><trkpt lat="39.1551413" lon="8.9996167"><ele>15.0</ele><time>2026-05-01T14:55:56.196Z</time></trkpt><trkpt lat="39.1553531" lon="8.9997493"><ele>15.0</ele><time>2026-05-01T14:55:57.196Z</time></trkpt><trkpt lat="39.1555643" lon="8.9998809"><ele>15.0</ele><time>2026-05-01T14:55:58.197Z</time></trkpt><trkpt lat="39.1557757" lon="9.0000113"><ele>13.5</ele><time>2026-05-01T14:55:59.196Z</time></trkpt><trkpt lat="39.155988" lon="9.0001437"><ele>12.0</ele><time>2026-05-01T14:56:00.197Z</time></trkpt><trkpt lat="39.1561942" lon="9.0002702"><ele>12.0</ele><time>2026-05-01T14:56:01.197Z</time></trkpt><trkpt lat="39.1563906" lon="9.0003911"><ele>12.0</ele><time>2026-05-01T14:56:02.197Z</time></trkpt><trkpt lat="39.1565799" lon="9.0005079"><ele>12.0</ele><time>2026-05-01T14:56:03.196Z</time></trkpt><trkpt lat="39.1567659" lon="9.0006202"><ele>12.0</ele><time>2026-05-01T14:56:04.196Z</time></trkpt><trkpt lat="39.1569486" lon="9.0007339"><ele>12.0</ele><time>2026-05-01T14:56:05.196Z</time></trkpt><trkpt lat="39.1571286" lon="9.0008515"><ele>12.0</ele><time>2026-05-01T14:56:06.197Z</time></trkpt><trkpt lat="39.1573064" lon="9.0009689"><ele>11.666666666666666</ele><time>2026-05-01T14:56:07.196Z</time></trkpt><trkpt lat="39.1574825" lon="9.0010845"><ele>11.333333333333332</ele><time>2026-05-01T14:56:08.197Z</time></trkpt><trkpt lat="39.1576547" lon="9.0011991"><ele>11.0</ele><time>2026-05-01T14:56:09.197Z</time></trkpt><trkpt lat="39.157827" lon="9.0013152"><ele>11.0</ele><time>2026-05-01T14:56:10.197Z</time></trkpt><trkpt lat="39.1579972" lon="9.0014321"><ele>11.0</ele><time>2026-05-01T14:56:11.196Z</time></trkpt><trkpt lat="39.1581644" lon="9.0015496"><ele>11.0</ele><time>2026-05-01T14:56:12.196Z</time></trkpt><trkpt lat="39.1583284" lon="9.0016704"><ele>10.333333333333332</ele><time>2026-05-01T14:56:13.196Z</time></trkpt><trkpt lat="39.1584898" lon="9.0017911"><ele>9.666666666666666</ele><time>2026-05-01T14:56:14.197Z</time></trkpt><trkpt lat="39.158649" lon="9.0019112"><ele>9.0</ele><time>2026-05-01T14:56:15.197Z</time></trkpt><trkpt lat="39.1587994" lon="9.0020258"><ele>9.0</ele><time>2026-05-01T14:56:16.196Z</time></trkpt><trkpt lat="39.1589407" lon="9.0021339"><ele>9.0</ele><time>2026-05-01T14:56:17.196Z</time></trkpt><trkpt lat="39.1590738" lon="9.0022383"><ele>9.0</ele><time>2026-05-01T14:56:18.197Z</time></trkpt><trkpt lat="39.1591975" lon="9.0023346"><ele>9.0</ele><time>2026-05-01T14:56:19.196Z</time></trkpt><trkpt lat="39.1593161" lon="9.0024252"><ele>9.0</ele><time>2026-05-01T14:56:20.196Z</time></trkpt><trkpt lat="39.1594325" lon="9.0025149"><ele>9.0</ele><time>2026-05-01T14:56:21.197Z</time></trkpt><trkpt lat="39.1595514" lon="9.0026037"><ele>9.0</ele><time>2026-05-01T14:56:22.196Z</time></trkpt><trkpt lat="39.1596618" lon="9.0026978"><ele>8.75</ele><time>2026-05-01T14:56:23.196Z</time></trkpt><trkpt lat="39.1597574" lon="9.0028055"><ele>8.5</ele><time>2026-05-01T14:56:24.196Z</time></trkpt><trkpt lat="39.1598349" lon="9.0029271"><ele>8.25</ele><time>2026-05-01T14:56:25.196Z</time></trkpt><trkpt lat="39.1598938" lon="9.0030581"><ele>8.0</ele><time>2026-05-01T14:56:26.196Z</time></trkpt><trkpt lat="39.159931" lon="9.0031928"><ele>7.5</ele><time>2026-05-01T14:56:27.197Z</time></trkpt><trkpt lat="39.1599466" lon="9.0033348"><ele>7.0</ele><time>2026-05-01T14:56:28.197Z</time></trkpt><trkpt lat="39.159937" lon="9.0034771"><ele>6.5</ele><time>2026-05-01T14:56:29.197Z</time></trkpt><trkpt lat="39.1599044" lon="9.0036172"><ele>6.0</ele><time>2026-05-01T14:56:30.196Z</time></trkpt><trkpt lat="39.1598496" lon="9.0037582"><ele>6.0</ele><time>2026-05-01T14:56:31.196Z</time></trkpt><trkpt lat="39.1597794" lon="9.0039038"><ele>6.0</ele><time>2026-05-01T14:56:32.196Z</time></trkpt><trkpt lat="39.1596987" lon="9.00406"><ele>6.0</ele><time>2026-05-01T14:56:33.197Z</time></trkpt><trkpt lat="39.1596135" lon="9.004221"><ele>6.0</ele><time>2026-05-01T14:56:34.196Z</time></trkpt><trkpt lat="39.1595343" lon="9.0043687"><ele>6.4</ele><time>2026-05-01T14:56:35.196Z</time></trkpt><trkpt lat="39.1594523" lon="9.0044987"><ele>6.8</ele><time>2026-05-01T14:56:36.197Z</time></trkpt><trkpt lat="39.1593638" lon="9.0045924"><ele>7.200000000000001</ele><time>2026-05-01T14:56:37.197Z</time></trkpt><trkpt lat="39.1592735" lon="9.004649"><ele>7.6000000000000005</ele><time>2026-05-01T14:56:38.196Z</time></trkpt><trkpt lat="39.1591934" lon="9.0046723"><ele>8.0</ele><time>2026-05-01T14:56:39.196Z</time></trkpt><trkpt lat="39.1591276" lon="9.0046784"><ele>7.999999999999999</ele><time>2026-05-01T14:56:40.196Z</time></trkpt><trkpt lat="39.1590384" lon="9.0046626"><ele>8.0</ele><time>2026-05-01T14:56:42.196Z</time></trkpt><trkpt lat="39.1589762" lon="9.0046279"><ele>8.0</ele><time>2026-05-01T14:56:44.196Z</time></trkpt><trkpt lat="39.1589257" lon="9.0045647"><ele>8.0</ele><time>2026-05-01T14:56:48.196Z</time></trkpt><trkpt lat="39.1588888" lon="9.0044662"><ele>7.999999999999999</ele><time>2026-05-01T14:56:51.196Z</time></trkpt><trkpt lat="39.1588629" lon="9.0043073"><ele>8.0</ele><time>2026-05-01T14:56:53.196Z</time></trkpt><trkpt lat="39.1588297" lon="9.0042197"><ele>7.833333333333333</ele><time>2026-05-01T14:56:54.197Z</time></trkpt><trkpt lat="39.1587776" lon="9.0041454"><ele>7.666666666666666</ele><time>2026-05-01T14:56:55.196Z</time></trkpt><trkpt lat="39.1587109" lon="9.0040992"><ele>7.5</ele><time>2026-05-01T14:56:56.197Z</time></trkpt><trkpt lat="39.1586356" lon="9.0040838"><ele>7.333333333333334</ele><time>2026-05-01T14:56:57.197Z</time></trkpt><trkpt lat="39.1585615" lon="9.0041016"><ele>7.166666666666667</ele><time>2026-05-01T14:56:58.196Z</time></trkpt><trkpt lat="39.1584961" lon="9.0041534"><ele>7.0</ele><time>2026-05-01T14:56:59.196Z</time></trkpt><trkpt lat="39.1584493" lon="9.0042296"><ele>7.500000000000001</ele><time>2026-05-01T14:57:00.196Z</time></trkpt><trkpt lat="39.1584218" lon="9.0043211"><ele>8.0</ele><time>2026-05-01T14:57:01.197Z</time></trkpt><trkpt lat="39.1584056" lon="9.0044218"><ele>8.5</ele><time>2026-05-01T14:57:02.196Z</time></trkpt><trkpt lat="39.1583986" lon="9.0045316"><ele>9.0</ele><time>2026-05-01T14:57:03.196Z</time></trkpt><trkpt lat="39.1583794" lon="9.0046429"><ele>9.5</ele><time>2026-05-01T14:57:04.197Z</time></trkpt><trkpt lat="39.1583419" lon="9.0047523"><ele>10.0</ele><time>2026-05-01T14:57:05.196Z</time></trkpt><trkpt lat="39.1582881" lon="9.0048647"><ele>10.0</ele><time>2026-05-01T14:57:06.196Z</time></trkpt><trkpt lat="39.1582166" lon="9.0049848"><ele>10.0</ele><time>2026-05-01T14:57:07.196Z</time></trkpt><trkpt lat="39.158137" lon="9.0051099"><ele>10.0</ele><time>2026-05-01T14:57:08.196Z</time></trkpt><trkpt lat="39.1580519" lon="9.0052414"><ele>10.0</ele><time>2026-05-01T14:57:09.197Z</time></trkpt><trkpt lat="39.1579653" lon="9.0053763"><ele>9.75</ele><time>2026-05-01T14:57:10.197Z</time></trkpt><trkpt lat="39.1578739" lon="9.0055164"><ele>9.5</ele><time>2026-05-01T14:57:11.196Z</time></trkpt><trkpt lat="39.157782" lon="9.0056574"><ele>9.25</ele><time>2026-05-01T14:57:12.196Z</time></trkpt><trkpt lat="39.1576859" lon="9.0058049"><ele>9.0</ele><time>2026-05-01T14:57:13.197Z</time></trkpt><trkpt lat="39.1575897" lon="9.0059532"><ele>9.666666666666666</ele><time>2026-05-01T14:57:14.197Z</time></trkpt><trkpt lat="39.1574909" lon="9.0061043"><ele>10.333333333333332</ele><time>2026-05-01T14:57:15.196Z</time></trkpt><trkpt lat="39.1573898" lon="9.0062539"><ele>11.0</ele><time>2026-05-01T14:57:16.196Z</time></trkpt><trkpt lat="39.157287" lon="9.0064061"><ele>11.333333333333332</ele><time>2026-05-01T14:57:17.196Z</time></trkpt><trkpt lat="39.1571875" lon="9.0065576"><ele>11.666666666666666</ele><time>2026-05-01T14:57:18.196Z</time></trkpt><trkpt lat="39.1570855" lon="9.0067112"><ele>12.0</ele><time>2026-05-01T14:57:19.197Z</time></trkpt><trkpt lat="39.1569884" lon="9.006857"><ele>11.0</ele><time>2026-05-01T14:57:20.196Z</time></trkpt><trkpt lat="39.1568911" lon="9.0070021"><ele>10.0</ele><time>2026-05-01T14:57:21.196Z</time></trkpt><trkpt lat="39.1567919" lon="9.0071497"><ele>9.0</ele><time>2026-05-01T14:57:22.197Z</time></trkpt><trkpt lat="39.156691" lon="9.007304"><ele>9.0</ele><time>2026-05-01T14:57:23.197Z</time></trkpt><trkpt lat="39.1565952" lon="9.0074679"><ele>9.0</ele><time>2026-05-01T14:57:24.196Z</time></trkpt><trkpt lat="39.1564991" lon="9.0076465"><ele>9.0</ele><time>2026-05-01T14:57:25.197Z</time></trkpt><trkpt lat="39.1563995" lon="9.0078572"><ele>8.666666666666666</ele><time>2026-05-01T14:57:26.197Z</time></trkpt><trkpt lat="39.1563065" lon="9.0080691"><ele>8.333333333333332</ele><time>2026-05-01T14:57:27.196Z</time></trkpt><trkpt lat="39.1562243" lon="9.0082687"><ele>8.0</ele><time>2026-05-01T14:57:28.196Z</time></trkpt><trkpt lat="39.1561456" lon="9.0084636"><ele>8.0</ele><time>2026-05-01T14:57:29.196Z</time></trkpt><trkpt lat="39.1560644" lon="9.0086578"><ele>8.0</ele><time>2026-05-01T14:57:30.196Z</time></trkpt><trkpt lat="39.1559821" lon="9.0088547"><ele>8.0</ele><time>2026-05-01T14:57:31.196Z</time></trkpt><trkpt lat="39.1558966" lon="9.0090601"><ele>8.0</ele><time>2026-05-01T14:57:32.196Z</time></trkpt><trkpt lat="39.1558071" lon="9.0092771"><ele>8.0</ele><time>2026-05-01T14:57:33.197Z</time></trkpt><trkpt lat="39.1557226" lon="9.009487"><ele>8.0</ele><time>2026-05-01T14:57:34.197Z</time></trkpt><trkpt lat="39.1556421" lon="9.0096846"><ele>8.666666666666666</ele><time>2026-05-01T14:57:35.197Z</time></trkpt><trkpt lat="39.1555633" lon="9.0098752"><ele>9.333333333333334</ele><time>2026-05-01T14:57:36.196Z</time></trkpt><trkpt lat="39.1554846" lon="9.0100644"><ele>10.0</ele><time>2026-05-01T14:57:37.196Z</time></trkpt><trkpt lat="39.155408" lon="9.0102551"><ele>10.0</ele><time>2026-05-01T14:57:38.196Z</time></trkpt><trkpt lat="39.1553305" lon="9.0104445"><ele>10.0</ele><time>2026-05-01T14:57:39.196Z</time></trkpt><trkpt lat="39.1552515" lon="9.0106325"><ele>10.0</ele><time>2026-05-01T14:57:40.196Z</time></trkpt><trkpt lat="39.1551706" lon="9.0108205"><ele>9.333333333333334</ele><time>2026-05-01T14:57:41.196Z</time></trkpt><trkpt lat="39.1550898" lon="9.0110084"><ele>8.666666666666666</ele><time>2026-05-01T14:57:42.196Z</time></trkpt><trkpt lat="39.1550096" lon="9.0111969"><ele>8.0</ele><time>2026-05-01T14:57:43.197Z</time></trkpt><trkpt lat="39.154928" lon="9.0113848"><ele>8.0</ele><time>2026-05-01T14:57:44.197Z</time></trkpt><trkpt lat="39.1548477" lon="9.0115729"><ele>8.0</ele><time>2026-05-01T14:57:45.197Z</time></trkpt><trkpt lat="39.1547684" lon="9.0117625"><ele>8.0</ele><time>2026-05-01T14:57:46.196Z</time></trkpt><trkpt lat="39.1546899" lon="9.0119531"><ele>8.0</ele><time>2026-05-01T14:57:47.196Z</time></trkpt><trkpt lat="39.1546132" lon="9.0121458"><ele>8.0</ele><time>2026-05-01T14:57:48.197Z</time></trkpt><trkpt lat="39.1545351" lon="9.0123426"><ele>8.0</ele><time>2026-05-01T14:57:49.196Z</time></trkpt><trkpt lat="39.1544562" lon="9.0125399"><ele>7.0</ele><time>2026-05-01T14:57:50.197Z</time></trkpt><trkpt lat="39.1543762" lon="9.0127387"><ele>6.0</ele><time>2026-05-01T14:57:51.196Z</time></trkpt><trkpt lat="39.1542962" lon="9.0129405"><ele>5.0</ele><time>2026-05-01T14:57:52.197Z</time></trkpt><trkpt lat="39.1542168" lon="9.013142"><ele>5.333333333333334</ele><time>2026-05-01T14:57:53.196Z</time></trkpt><trkpt lat="39.1541383" lon="9.0133454"><ele>5.666666666666667</ele><time>2026-05-01T14:57:54.196Z</time></trkpt><trkpt lat="39.1540585" lon="9.0135516"><ele>6.0</ele><time>2026-05-01T14:57:55.197Z</time></trkpt><trkpt lat="39.1539788" lon="9.0137592"><ele>6.0</ele><time>2026-05-01T14:57:56.196Z</time></trkpt><trkpt lat="39.1538976" lon="9.0139648"><ele>6.0</ele><time>2026-05-01T14:57:57.197Z</time></trkpt><trkpt lat="39.1538152" lon="9.0141656"><ele>6.0</ele><time>2026-05-01T14:57:58.197Z</time></trkpt><trkpt lat="39.1537376" lon="9.0143591"><ele>6.0</ele><time>2026-05-01T14:57:59.197Z</time></trkpt><trkpt lat="39.15366" lon="9.0145443"><ele>6.0</ele><time>2026-05-01T14:58:00.196Z</time></trkpt><trkpt lat="39.1535858" lon="9.0147233"><ele>6.0</ele><time>2026-05-01T14:58:01.197Z</time></trkpt><trkpt lat="39.1535151" lon="9.0148895"><ele>5.5</ele><time>2026-05-01T14:58:02.196Z</time></trkpt><trkpt lat="39.1534502" lon="9.0150475"><ele>5.0</ele><time>2026-05-01T14:58:03.196Z</time></trkpt><trkpt lat="39.1533876" lon="9.0151976"><ele>4.5</ele><time>2026-05-01T14:58:04.197Z</time></trkpt><trkpt lat="39.1533258" lon="9.0153442"><ele>4.0</ele><time>2026-05-01T14:58:05.196Z</time></trkpt><trkpt lat="39.1532655" lon="9.0154869"><ele>4.0</ele><time>2026-05-01T14:58:06.196Z</time></trkpt><trkpt lat="39.1532074" lon="9.0156275"><ele>4.0</ele><time>2026-05-01T14:58:07.197Z</time></trkpt><trkpt lat="39.153152" lon="9.0157632"><ele>4.0</ele><time>2026-05-01T14:58:08.197Z</time></trkpt><trkpt lat="39.1531013" lon="9.0158906"><ele>4.0</ele><time>2026-05-01T14:58:09.197Z</time></trkpt><trkpt lat="39.1530557" lon="9.0160106"><ele>3.8000000000000003</ele><time>2026-05-01T14:58:10.197Z</time></trkpt><trkpt lat="39.153013" lon="9.0161275"><ele>3.6000000000000005</ele><time>2026-05-01T14:58:11.196Z</time></trkpt><trkpt lat="39.1529677" lon="9.0162404"><ele>3.4</ele><time>2026-05-01T14:58:12.196Z</time></trkpt><trkpt lat="39.1529217" lon="9.0163506"><ele>3.2</ele><time>2026-05-01T14:58:13.196Z</time></trkpt><trkpt lat="39.1528796" lon="9.0164622"><ele>3.0</ele><time>2026-05-01T14:58:14.196Z</time></trkpt><trkpt lat="39.1528381" lon="9.0165691"><ele>3.0</ele><time>2026-05-01T14:58:15.197Z</time></trkpt><trkpt lat="39.1527986" lon="9.016675"><ele>3.0</ele><time>2026-05-01T14:58:16.197Z</time></trkpt><trkpt lat="39.1527623" lon="9.0167771"><ele>3.0</ele><time>2026-05-01T14:58:17.197Z</time></trkpt><trkpt lat="39.1527244" lon="9.0168791"><ele>3.0</ele><time>2026-05-01T14:58:18.196Z</time></trkpt><trkpt lat="39.1526834" lon="9.0169828"><ele>3.0</ele><time>2026-05-01T14:58:19.197Z</time></trkpt><trkpt lat="39.1526414" lon="9.0170863"><ele>3.0</ele><time>2026-05-01T14:58:20.196Z</time></trkpt><trkpt lat="39.1526002" lon="9.0171835"><ele>2.9999999999999996</ele><time>2026-05-01T14:58:21.197Z</time></trkpt><trkpt lat="39.1525665" lon="9.0172589"><ele>3.0</ele><time>2026-05-01T14:58:22.196Z</time></trkpt><trkpt lat="39.1525326" lon="9.01733"><ele>3.0</ele><time>2026-05-01T14:58:24.197Z</time></trkpt><trkpt lat="39.1524952" lon="9.0174209"><ele>3.0</ele><time>2026-05-01T14:59:04.196Z</time></trkpt><trkpt lat="39.1524582" lon="9.0175019"><ele>3.0</ele><time>2026-05-01T14:59:07.197Z</time></trkpt><trkpt lat="39.1524243" lon="9.0175922"><ele>2.9999999999999996</ele><time>2026-05-01T14:59:13.197Z</time></trkpt><trkpt lat="39.1523874" lon="9.0176734"><ele>3.0</ele><time>2026-05-01T14:59:16.196Z</time></trkpt><trkpt lat="39.1523478" lon="9.0177671"><ele>3.1428571428571423</ele><time>2026-05-01T14:59:20.197Z</time></trkpt><trkpt lat="39.1523143" lon="9.0178602"><ele>3.2857142857142856</ele><time>2026-05-01T14:59:23.196Z</time></trkpt><trkpt lat="39.1522815" lon="9.0179325"><ele>3.4285714285714284</ele><time>2026-05-01T14:59:28.197Z</time></trkpt><trkpt lat="39.1522479" lon="9.0180177"><ele>3.571428571428571</ele><time>2026-05-01T14:59:53.197Z</time></trkpt><trkpt lat="39.1522162" lon="9.0180964"><ele>3.714285714285714</ele><time>2026-05-01T14:59:58.196Z</time></trkpt><trkpt lat="39.1521759" lon="9.018168"><ele>3.8571428571428568</ele><time>2026-05-01T15:00:09.197Z</time></trkpt><trkpt lat="39.152125" lon="9.0182293"><ele>4.0</ele><time>2026-05-01T15:00:14.196Z</time></trkpt><trkpt lat="39.1520751" lon="9.0182868"><ele>4.166666666666666</ele><time>2026-05-01T15:00:23.196Z</time></trkpt><trkpt lat="39.1520111" lon="9.0183441"><ele>4.333333333333333</ele><time>2026-05-01T15:00:36.196Z</time></trkpt><trkpt lat="39.1519565" lon="9.0184173"><ele>4.5</ele><time>2026-05-01T15:00:40.196Z</time></trkpt><trkpt lat="39.1519671" lon="9.0185152"><ele>4.666666666666667</ele><time>2026-05-01T15:00:43.197Z</time></trkpt><trkpt lat="39.1520165" lon="9.0185995"><ele>4.833333333333334</ele><time>2026-05-01T15:00:46.196Z</time></trkpt><trkpt lat="39.1520631" lon="9.0187049"><ele>5.0</ele><time>2026-05-01T15:00:48.197Z</time></trkpt><trkpt lat="39.1521122" lon="9.0188591"><ele>5.0</ele><time>2026-05-01T15:00:50.196Z</time></trkpt><trkpt lat="39.1521432" lon="9.01894"><ele>5.0</ele><time>2026-05-01T15:00:51.197Z</time></trkpt><trkpt lat="39.1521726" lon="9.0190159"><ele>5.0</ele><time>2026-05-01T15:00:52.197Z</time></trkpt><trkpt lat="39.1522297" lon="9.0191624"><ele>5.0</ele><time>2026-05-01T15:00:54.197Z</time></trkpt><trkpt lat="39.152264" lon="9.0192449"><ele>5.0</ele><time>2026-05-01T15:00:55.196Z</time></trkpt><trkpt lat="39.1523011" lon="9.0193328"><ele>5.0</ele><time>2026-05-01T15:00:56.197Z</time></trkpt><trkpt lat="39.1523379" lon="9.0194217"><ele>5.0</ele><time>2026-05-01T15:00:57.196Z</time></trkpt><trkpt lat="39.15238" lon="9.0195143"><ele>5.0</ele><time>2026-05-01T15:00:58.196Z</time></trkpt><trkpt lat="39.1524207" lon="9.0196075"><ele>5.0</ele><time>2026-05-01T15:00:59.197Z</time></trkpt><trkpt lat="39.1524631" lon="9.0197055"><ele>5.0</ele><time>2026-05-01T15:01:00.196Z</time></trkpt><trkpt lat="39.1525095" lon="9.0198109"><ele>5.0</ele><time>2026-05-01T15:01:01.196Z</time></trkpt><trkpt lat="39.152563" lon="9.0199206"><ele>5.0</ele><time>2026-05-01T15:01:02.196Z</time></trkpt><trkpt lat="39.1526255" lon="9.0200338"><ele>4.5</ele><time>2026-05-01T15:01:03.196Z</time></trkpt><trkpt lat="39.1526976" lon="9.0201523"><ele>4.0</ele><time>2026-05-01T15:01:04.197Z</time></trkpt><trkpt lat="39.1527786" lon="9.0202753"><ele>3.5</ele><time>2026-05-01T15:01:05.196Z</time></trkpt><trkpt lat="39.1528673" lon="9.0204076"><ele>3.0</ele><time>2026-05-01T15:01:06.196Z</time></trkpt><trkpt lat="39.1529607" lon="9.0205447"><ele>3.0</ele><time>2026-05-01T15:01:07.197Z</time></trkpt><trkpt lat="39.1530618" lon="9.0206831"><ele>3.0</ele><time>2026-05-01T15:01:08.197Z</time></trkpt><trkpt lat="39.1531687" lon="9.0208168"><ele>3.0</ele><time>2026-05-01T15:01:09.197Z</time></trkpt><trkpt lat="39.1532728" lon="9.0209407"><ele>3.0</ele><time>2026-05-01T15:01:10.197Z</time></trkpt><trkpt lat="39.1533824" lon="9.0210561"><ele>2.75</ele><time>2026-05-01T15:01:11.197Z</time></trkpt><trkpt lat="39.1534965" lon="9.0211659"><ele>2.5</ele><time>2026-05-01T15:01:12.196Z</time></trkpt><trkpt lat="39.1536147" lon="9.0212718"><ele>2.25</ele><time>2026-05-01T15:01:13.196Z</time></trkpt><trkpt lat="39.1537356" lon="9.0213754"><ele>2.0</ele><time>2026-05-01T15:01:14.196Z</time></trkpt><trkpt lat="39.1538525" lon="9.0214773"><ele>2.0</ele><time>2026-05-01T15:01:15.196Z</time></trkpt><trkpt lat="39.1539591" lon="9.0215742"><ele>2.0</ele><time>2026-05-01T15:01:16.197Z</time></trkpt><trkpt lat="39.1540611" lon="9.021667"><ele>2.0</ele><time>2026-05-01T15:01:17.196Z</time></trkpt><trkpt lat="39.1541629" lon="9.0217599"><ele>2.0</ele><time>2026-05-01T15:01:18.196Z</time></trkpt><trkpt lat="39.1542656" lon="9.0218546"><ele>2.0</ele><time>2026-05-01T15:01:19.196Z</time></trkpt><trkpt lat="39.1543667" lon="9.0219505"><ele>2.0</ele><time>2026-05-01T15:01:20.197Z</time></trkpt><trkpt lat="39.1544589" lon="9.0220388"><ele>2.0</ele><time>2026-05-01T15:01:21.196Z</time></trkpt><trkpt lat="39.154545" lon="9.0221259"><ele>2.0</ele><time>2026-05-01T15:01:22.197Z</time></trkpt><trkpt lat="39.1546227" lon="9.0222066"><ele>2.0</ele><time>2026-05-01T15:01:23.197Z</time></trkpt><trkpt lat="39.1546854" lon="9.0222782"><ele>1.9999999999999998</ele><time>2026-05-01T15:01:24.197Z</time></trkpt><trkpt lat="39.1547406" lon="9.0223463"><ele>2.0</ele><time>2026-05-01T15:01:25.196Z</time></trkpt><trkpt lat="39.1547859" lon="9.0224142"><ele>2.0</ele><time>2026-05-01T15:01:26.196Z</time></trkpt><trkpt lat="39.15482" lon="9.0224854"><ele>1.9999999999999998</ele><time>2026-05-01T15:01:27.197Z</time></trkpt><trkpt lat="39.1548509" lon="9.022561"><ele>2.0</ele><time>2026-05-01T15:01:28.197Z</time></trkpt><trkpt lat="39.1548974" lon="9.0226274"><ele>2.0</ele><time>2026-05-01T15:01:29.197Z</time></trkpt><trkpt lat="39.1549611" lon="9.0226691"><ele>1.2000000000000002</ele><time>2026-05-01T15:01:30.196Z</time></trkpt><trkpt lat="39.1550382" lon="9.0226939"><ele>0.40000000000000013</ele><time>2026-05-01T15:01:31.197Z</time></trkpt><trkpt lat="39.1551266" lon="9.0227128"><ele>-0.40000000000000013</ele><time>2026-05-01T15:01:32.196Z</time></trkpt><trkpt lat="39.1552265" lon="9.0227435"><ele>-1.2000000000000002</ele><time>2026-05-01T15:01:33.197Z</time></trkpt><trkpt lat="39.1553354" lon="9.0227918"><ele>-2.0</ele><time>2026-05-01T15:01:34.196Z</time></trkpt><trkpt lat="39.1554498" lon="9.0228581"><ele>-2.0</ele><time>2026-05-01T15:01:35.196Z</time></trkpt><trkpt lat="39.1555693" lon="9.0229401"><ele>-2.0</ele><time>2026-05-01T15:01:36.197Z</time></trkpt><trkpt lat="39.1556901" lon="9.0230317"><ele>-2.0</ele><time>2026-05-01T15:01:37.196Z</time></trkpt><trkpt lat="39.1558103" lon="9.0231296"><ele>-2.0</ele><time>2026-05-01T15:01:38.197Z</time></trkpt><trkpt lat="39.1559238" lon="9.0232259"><ele>-1.25</ele><time>2026-05-01T15:01:39.197Z</time></trkpt><trkpt lat="39.1560326" lon="9.0233204"><ele>-0.5</ele><time>2026-05-01T15:01:40.197Z</time></trkpt><trkpt lat="39.156148" lon="9.0234169"><ele>0.25</ele><time>2026-05-01T15:01:41.197Z</time></trkpt><trkpt lat="39.156265" lon="9.0235134"><ele>1.0</ele><time>2026-05-01T15:01:42.196Z</time></trkpt><trkpt lat="39.1563745" lon="9.0236068"><ele>1.0</ele><time>2026-05-01T15:01:43.197Z</time></trkpt><trkpt lat="39.1564762" lon="9.0236946"><ele>1.0</ele><time>2026-05-01T15:01:44.197Z</time></trkpt><trkpt lat="39.1565723" lon="9.0237765"><ele>1.0</ele><time>2026-05-01T15:01:45.197Z</time></trkpt><trkpt lat="39.1566648" lon="9.0238557"><ele>1.0</ele><time>2026-05-01T15:01:46.196Z</time></trkpt><trkpt lat="39.1567558" lon="9.023936"><ele>1.0</ele><time>2026-05-01T15:01:47.196Z</time></trkpt><trkpt lat="39.1568464" lon="9.024016"><ele>1.0</ele><time>2026-05-01T15:01:48.196Z</time></trkpt><trkpt lat="39.1569404" lon="9.0240994"><ele>1.0</ele><time>2026-05-01T15:01:49.197Z</time></trkpt><trkpt lat="39.1570378" lon="9.0241844"><ele>1.0</ele><time>2026-05-01T15:01:50.197Z</time></trkpt><trkpt lat="39.157139" lon="9.0242688"><ele>0.75</ele><time>2026-05-01T15:01:51.197Z</time></trkpt><trkpt lat="39.157246" lon="9.024357"><ele>0.5</ele><time>2026-05-01T15:01:52.197Z</time></trkpt><trkpt lat="39.1573588" lon="9.0244531"><ele>0.25</ele><time>2026-05-01T15:01:53.196Z</time></trkpt><trkpt lat="39.1574726" lon="9.0245543"><ele>0.0</ele><time>2026-05-01T15:01:54.197Z</time></trkpt><trkpt lat="39.1575854" lon="9.0246595"><ele>0.0</ele><time>2026-05-01T15:01:55.197Z</time></trkpt><trkpt lat="39.1576906" lon="9.0247596"><ele>0.0</ele><time>2026-05-01T15:01:56.197Z</time></trkpt><trkpt lat="39.1577933" lon="9.0248624"><ele>0.0</ele><time>2026-05-01T15:01:57.196Z</time></trkpt><trkpt lat="39.1578958" lon="9.0249701"><ele>0.0</ele><time>2026-05-01T15:01:58.197Z</time></trkpt><trkpt lat="39.1579957" lon="9.0250824"><ele>0.0</ele><time>2026-05-01T15:01:59.197Z</time></trkpt><trkpt lat="39.1580855" lon="9.0251895"><ele>0.0</ele><time>2026-05-01T15:02:00.197Z</time></trkpt><trkpt lat="39.1581759" lon="9.0252968"><ele>0.0</ele><time>2026-05-01T15:02:01.197Z</time></trkpt><trkpt lat="39.1582646" lon="9.0254031"><ele>0.0</ele><time>2026-05-01T15:02:02.196Z</time></trkpt><trkpt lat="39.1583467" lon="9.0255052"><ele>0.2</ele><time>2026-05-01T15:02:03.196Z</time></trkpt><trkpt lat="39.1584275" lon="9.025602"><ele>0.4</ele><time>2026-05-01T15:02:04.196Z</time></trkpt><trkpt lat="39.1585071" lon="9.0256976"><ele>0.6000000000000001</ele><time>2026-05-01T15:02:05.197Z</time></trkpt><trkpt lat="39.1585867" lon="9.0257915"><ele>0.8</ele><time>2026-05-01T15:02:06.196Z</time></trkpt><trkpt lat="39.1586673" lon="9.0258883"><ele>1.0</ele><time>2026-05-01T15:02:07.197Z</time></trkpt><trkpt lat="39.158751" lon="9.0259875"><ele>1.0</ele><time>2026-05-01T15:02:08.196Z</time></trkpt><trkpt lat="39.1588367" lon="9.0260951"><ele>1.0</ele><time>2026-05-01T15:02:09.196Z</time></trkpt><trkpt lat="39.158928" lon="9.0262034"><ele>1.0</ele><time>2026-05-01T15:02:10.197Z</time></trkpt><trkpt lat="39.1590264" lon="9.026312"><ele>1.0</ele><time>2026-05-01T15:02:11.197Z</time></trkpt><trkpt lat="39.1591291" lon="9.02642"><ele>1.0</ele><time>2026-05-01T15:02:12.197Z</time></trkpt><trkpt lat="39.1592379" lon="9.0265269"><ele>1.0</ele><time>2026-05-01T15:02:13.196Z</time></trkpt><trkpt lat="39.1593488" lon="9.026629"><ele>1.0</ele><time>2026-05-01T15:02:14.197Z</time></trkpt><trkpt lat="39.159466" lon="9.0267258"><ele>1.0</ele><time>2026-05-01T15:02:15.197Z</time></trkpt><trkpt lat="39.1595869" lon="9.0268201"><ele>1.0</ele><time>2026-05-01T15:02:16.197Z</time></trkpt><trkpt lat="39.1597101" lon="9.0269111"><ele>1.0</ele><time>2026-05-01T15:02:17.197Z</time></trkpt><trkpt lat="39.1598332" lon="9.0269971"><ele>1.0</ele><time>2026-05-01T15:02:18.197Z</time></trkpt><trkpt lat="39.1599524" lon="9.0270767"><ele>1.0</ele><time>2026-05-01T15:02:19.196Z</time></trkpt><trkpt lat="39.160067" lon="9.0271527"><ele>1.0</ele><time>2026-05-01T15:02:20.196Z</time></trkpt><trkpt lat="39.1601827" lon="9.0272271"><ele>1.0</ele><time>2026-05-01T15:02:21.197Z</time></trkpt><trkpt lat="39.1602965" lon="9.0273064"><ele>1.0</ele><time>2026-05-01T15:02:22.197Z</time></trkpt><trkpt lat="39.1604089" lon="9.0273823"><ele>1.0</ele><time>2026-05-01T15:02:23.196Z</time></trkpt><trkpt lat="39.1605196" lon="9.0274555"><ele>1.0</ele><time>2026-05-01T15:02:24.196Z</time></trkpt><trkpt lat="39.1606311" lon="9.0275332"><ele>1.0</ele><time>2026-05-01T15:02:25.197Z</time></trkpt><trkpt lat="39.1607452" lon="9.0276121"><ele>1.0</ele><time>2026-05-01T15:02:26.196Z</time></trkpt><trkpt lat="39.160865" lon="9.0276946"><ele>1.0</ele><time>2026-05-01T15:02:27.197Z</time></trkpt><trkpt lat="39.1609892" lon="9.0277784"><ele>1.5</ele><time>2026-05-01T15:02:28.196Z</time></trkpt><trkpt lat="39.161114" lon="9.0278642"><ele>2.0</ele><time>2026-05-01T15:02:29.196Z</time></trkpt><trkpt lat="39.1612398" lon="9.0279464"><ele>2.5</ele><time>2026-05-01T15:02:30.196Z</time></trkpt><trkpt lat="39.1613633" lon="9.028028"><ele>3.0</ele><time>2026-05-01T15:02:31.196Z</time></trkpt><trkpt lat="39.1614872" lon="9.0281104"><ele>2.75</ele><time>2026-05-01T15:02:32.197Z</time></trkpt><trkpt lat="39.1616109" lon="9.0281924"><ele>2.5</ele><time>2026-05-01T15:02:33.197Z</time></trkpt><trkpt lat="39.1617338" lon="9.0282755"><ele>2.25</ele><time>2026-05-01T15:02:34.197Z</time></trkpt><trkpt lat="39.1618556" lon="9.0283614"><ele>2.0</ele><time>2026-05-01T15:02:35.197Z</time></trkpt><trkpt lat="39.161979" lon="9.0284453"><ele>2.0</ele><time>2026-05-01T15:02:36.196Z</time></trkpt><trkpt lat="39.1621006" lon="9.0285295"><ele>2.0</ele><time>2026-05-01T15:02:37.197Z</time></trkpt><trkpt lat="39.1622217" lon="9.0286121"><ele>2.0</ele><time>2026-05-01T15:02:38.196Z</time></trkpt><trkpt lat="39.1623445" lon="9.0286932"><ele>2.0</ele><time>2026-05-01T15:02:39.197Z</time></trkpt><trkpt lat="39.1624699" lon="9.0287762"><ele>1.75</ele><time>2026-05-01T15:02:40.197Z</time></trkpt><trkpt lat="39.162596" lon="9.0288611"><ele>1.5</ele><time>2026-05-01T15:02:41.197Z</time></trkpt><trkpt lat="39.1627236" lon="9.0289496"><ele>1.25</ele><time>2026-05-01T15:02:42.196Z</time></trkpt><trkpt lat="39.1628553" lon="9.0290398"><ele>1.0</ele><time>2026-05-01T15:02:43.196Z</time></trkpt><trkpt lat="39.1629903" lon="9.029132"><ele>1.0</ele><time>2026-05-01T15:02:44.197Z</time></trkpt><trkpt lat="39.1631288" lon="9.0292253"><ele>1.0</ele><time>2026-05-01T15:02:45.196Z</time></trkpt><trkpt lat="39.1632682" lon="9.0293217"><ele>1.0</ele><time>2026-05-01T15:02:46.197Z</time></trkpt><trkpt lat="39.1634042" lon="9.0294149"><ele>1.3333333333333333</ele><time>2026-05-01T15:02:47.196Z</time></trkpt><trkpt lat="39.163536" lon="9.0295049"><ele>1.6666666666666665</ele><time>2026-05-01T15:02:48.197Z</time></trkpt><trkpt lat="39.1636693" lon="9.0296027"><ele>2.0</ele><time>2026-05-01T15:02:49.196Z</time></trkpt><trkpt lat="39.1637947" lon="9.0297086"><ele>2.0</ele><time>2026-05-01T15:02:50.196Z</time></trkpt><trkpt lat="39.1639158" lon="9.0298239"><ele>2.0</ele><time>2026-05-01T15:02:51.196Z</time></trkpt><trkpt lat="39.1640335" lon="9.029946"><ele>2.0</ele><time>2026-05-01T15:02:52.196Z</time></trkpt><trkpt lat="39.1641483" lon="9.0300721"><ele>1.75</ele><time>2026-05-01T15:02:53.196Z</time></trkpt><trkpt lat="39.1642602" lon="9.0302076"><ele>1.5</ele><time>2026-05-01T15:02:54.197Z</time></trkpt><trkpt lat="39.1643734" lon="9.0303366"><ele>1.25</ele><time>2026-05-01T15:02:55.196Z</time></trkpt><trkpt lat="39.1644792" lon="9.030458"><ele>1.0</ele><time>2026-05-01T15:02:56.197Z</time></trkpt><trkpt lat="39.1645851" lon="9.0305814"><ele>1.0</ele><time>2026-05-01T15:02:57.196Z</time></trkpt><trkpt lat="39.164694" lon="9.0307089"><ele>1.0</ele><time>2026-05-01T15:02:58.197Z</time></trkpt><trkpt lat="39.1648058" lon="9.0308387"><ele>1.0</ele><time>2026-05-01T15:02:59.197Z</time></trkpt><trkpt lat="39.1649227" lon="9.030968"><ele>1.0</ele><time>2026-05-01T15:03:00.197Z</time></trkpt><trkpt lat="39.1650432" lon="9.0311001"><ele>1.0</ele><time>2026-05-01T15:03:01.197Z</time></trkpt><trkpt lat="39.1651682" lon="9.0312314"><ele>1.0</ele><time>2026-05-01T15:03:02.196Z</time></trkpt><trkpt lat="39.1652989" lon="9.0313651"><ele>1.0</ele><time>2026-05-01T15:03:03.196Z</time></trkpt><trkpt lat="39.1654355" lon="9.0314988"><ele>1.0</ele><time>2026-05-01T15:03:04.197Z</time></trkpt><trkpt lat="39.1655762" lon="9.0316321"><ele>1.0</ele><time>2026-05-01T15:03:05.196Z</time></trkpt><trkpt lat="39.1657207" lon="9.0317606"><ele>1.0</ele><time>2026-05-01T15:03:06.197Z</time></trkpt><trkpt lat="39.165862" lon="9.0318813"><ele>1.0</ele><time>2026-05-01T15:03:07.196Z</time></trkpt><trkpt lat="39.1659966" lon="9.0319956"><ele>1.0</ele><time>2026-05-01T15:03:08.196Z</time></trkpt><trkpt lat="39.1661332" lon="9.0321079"><ele>1.0</ele><time>2026-05-01T15:03:09.196Z</time></trkpt><trkpt lat="39.1662729" lon="9.0322237"><ele>1.0</ele><time>2026-05-01T15:03:10.196Z</time></trkpt><trkpt lat="39.166413" lon="9.032338"><ele>1.0</ele><time>2026-05-01T15:03:11.197Z</time></trkpt><trkpt lat="39.1665532" lon="9.0324507"><ele>1.0</ele><time>2026-05-01T15:03:12.196Z</time></trkpt><trkpt lat="39.166693" lon="9.0325657"><ele>1.0</ele><time>2026-05-01T15:03:13.196Z</time></trkpt><trkpt lat="39.1668312" lon="9.0326805"><ele>1.0</ele><time>2026-05-01T15:03:14.196Z</time></trkpt><trkpt lat="39.1669686" lon="9.0327917"><ele>1.0</ele><time>2026-05-01T15:03:15.196Z</time></trkpt><trkpt lat="39.1671054" lon="9.0329023"><ele>1.0</ele><time>2026-05-01T15:03:16.196Z</time></trkpt><trkpt lat="39.1672376" lon="9.0330039"><ele>1.0</ele><time>2026-05-01T15:03:17.196Z</time></trkpt><trkpt lat="39.1673646" lon="9.0330983"><ele>0.5</ele><time>2026-05-01T15:03:18.196Z</time></trkpt><trkpt lat="39.1674852" lon="9.0331904"><ele>0.0</ele><time>2026-05-01T15:03:19.196Z</time></trkpt><trkpt lat="39.1675983" lon="9.0332779"><ele>-0.5</ele><time>2026-05-01T15:03:20.197Z</time></trkpt><trkpt lat="39.1677046" lon="9.0333617"><ele>-1.0</ele><time>2026-05-01T15:03:21.196Z</time></trkpt><trkpt lat="39.1678068" lon="9.0334436"><ele>-1.0</ele><time>2026-05-01T15:03:22.196Z</time></trkpt><trkpt lat="39.1679133" lon="9.0335332"><ele>-1.0</ele><time>2026-05-01T15:03:23.196Z</time></trkpt><trkpt lat="39.1680271" lon="9.0336283"><ele>-1.0</ele><time>2026-05-01T15:03:24.196Z</time></trkpt><trkpt lat="39.1681478" lon="9.0337301"><ele>-1.0</ele><time>2026-05-01T15:03:25.197Z</time></trkpt><trkpt lat="39.1682754" lon="9.033837"><ele>-1.0</ele><time>2026-05-01T15:03:26.196Z</time></trkpt><trkpt lat="39.1684028" lon="9.0339516"><ele>-1.0</ele><time>2026-05-01T15:03:27.196Z</time></trkpt><trkpt lat="39.1685327" lon="9.0340731"><ele>-1.0</ele><time>2026-05-01T15:03:28.197Z</time></trkpt><trkpt lat="39.1686638" lon="9.034198"><ele>-0.6666666666666666</ele><time>2026-05-01T15:03:29.197Z</time></trkpt><trkpt lat="39.1688026" lon="9.0343255"><ele>-0.3333333333333333</ele><time>2026-05-01T15:03:30.197Z</time></trkpt><trkpt lat="39.1689465" lon="9.0344512"><ele>0.0</ele><time>2026-05-01T15:03:31.197Z</time></trkpt><trkpt lat="39.1690929" lon="9.0345732"><ele>-1.0</ele><time>2026-05-01T15:03:32.197Z</time></trkpt><trkpt lat="39.1692377" lon="9.0346926"><ele>-2.0</ele><time>2026-05-01T15:03:33.197Z</time></trkpt><trkpt lat="39.1693829" lon="9.0348133"><ele>-3.0</ele><time>2026-05-01T15:03:34.196Z</time></trkpt><trkpt lat="39.1695308" lon="9.0349353"><ele>-3.0</ele><time>2026-05-01T15:03:35.197Z</time></trkpt><trkpt lat="39.1696851" lon="9.0350672"><ele>-3.0</ele><time>2026-05-01T15:03:36.197Z</time></trkpt><trkpt lat="39.1698388" lon="9.0351953"><ele>-3.0</ele><time>2026-05-01T15:03:37.197Z</time></trkpt><trkpt lat="39.1699923" lon="9.0353223"><ele>-3.0</ele><time>2026-05-01T15:03:38.197Z</time></trkpt><trkpt lat="39.1701461" lon="9.0354494"><ele>-3.0</ele><time>2026-05-01T15:03:39.196Z</time></trkpt><trkpt lat="39.1703016" lon="9.0355782"><ele>-3.0</ele><time>2026-05-01T15:03:40.197Z</time></trkpt><trkpt lat="39.1704599" lon="9.035709"><ele>-2.3333333333333335</ele><time>2026-05-01T15:03:41.197Z</time></trkpt><trkpt lat="39.170625" lon="9.0358484"><ele>-1.6666666666666665</ele><time>2026-05-01T15:03:42.196Z</time></trkpt><trkpt lat="39.1707917" lon="9.0359893"><ele>-1.0</ele><time>2026-05-01T15:03:43.197Z</time></trkpt><trkpt lat="39.1709597" lon="9.0361287"><ele>-1.0</ele><time>2026-05-01T15:03:44.197Z</time></trkpt><trkpt lat="39.1711265" lon="9.0362678"><ele>-1.0</ele><time>2026-05-01T15:03:45.196Z</time></trkpt><trkpt lat="39.1712926" lon="9.0364083"><ele>-1.0</ele><time>2026-05-01T15:03:46.197Z</time></trkpt><trkpt lat="39.1714591" lon="9.036548"><ele>-1.0</ele><time>2026-05-01T15:03:47.196Z</time></trkpt><trkpt lat="39.1716267" lon="9.0366853"><ele>-1.0</ele><time>2026-05-01T15:03:48.197Z</time></trkpt><trkpt lat="39.171793" lon="9.0368256"><ele>-1.0</ele><time>2026-05-01T15:03:49.196Z</time></trkpt><trkpt lat="39.1719571" lon="9.0369639"><ele>-1.0</ele><time>2026-05-01T15:03:50.197Z</time></trkpt><trkpt lat="39.172116" lon="9.0371018"><ele>-1.0</ele><time>2026-05-01T15:03:51.197Z</time></trkpt><trkpt lat="39.1722723" lon="9.0372455"><ele>-1.0</ele><time>2026-05-01T15:03:52.197Z</time></trkpt><trkpt lat="39.1724235" lon="9.0373957"><ele>-0.6666666666666666</ele><time>2026-05-01T15:03:53.197Z</time></trkpt><trkpt lat="39.1725731" lon="9.0375525"><ele>-0.3333333333333333</ele><time>2026-05-01T15:03:54.197Z</time></trkpt><trkpt lat="39.172723" lon="9.0377116"><ele>0.0</ele><time>2026-05-01T15:03:55.196Z</time></trkpt><trkpt lat="39.1728732" lon="9.0378731"><ele>0.0</ele><time>2026-05-01T15:03:56.197Z</time></trkpt><trkpt lat="39.1730227" lon="9.0380366"><ele>0.0</ele><time>2026-05-01T15:03:57.197Z</time></trkpt><trkpt lat="39.1731701" lon="9.0382007"><ele>0.0</ele><time>2026-05-01T15:03:58.196Z</time></trkpt><trkpt lat="39.1733177" lon="9.0383652"><ele>0.3333333333333333</ele><time>2026-05-01T15:03:59.197Z</time></trkpt><trkpt lat="39.1734674" lon="9.0385301"><ele>0.6666666666666666</ele><time>2026-05-01T15:04:00.196Z</time></trkpt><trkpt lat="39.173615" lon="9.0386929"><ele>1.0</ele><time>2026-05-01T15:04:01.197Z</time></trkpt><trkpt lat="39.1737603" lon="9.0388549"><ele>1.0</ele><time>2026-05-01T15:04:02.196Z</time></trkpt><trkpt lat="39.1739011" lon="9.0390119"><ele>1.0</ele><time>2026-05-01T15:04:03.197Z</time></trkpt><trkpt lat="39.1740424" lon="9.0391683"><ele>1.0</ele><time>2026-05-01T15:04:04.196Z</time></trkpt><trkpt lat="39.174186" lon="9.0393238"><ele>1.0</ele><time>2026-05-01T15:04:05.196Z</time></trkpt><trkpt lat="39.1743284" lon="9.0394789"><ele>1.0</ele><time>2026-05-01T15:04:06.197Z</time></trkpt><trkpt lat="39.1744698" lon="9.0396349"><ele>1.0</ele><time>2026-05-01T15:04:07.197Z</time></trkpt><trkpt lat="39.174611" lon="9.0397925"><ele>1.0</ele><time>2026-05-01T15:04:08.197Z</time></trkpt><trkpt lat="39.1747538" lon="9.0399503"><ele>1.0</ele><time>2026-05-01T15:04:09.196Z</time></trkpt><trkpt lat="39.1748973" lon="9.0401092"><ele>1.0</ele><time>2026-05-01T15:04:10.197Z</time></trkpt><trkpt lat="39.1750408" lon="9.0402706"><ele>1.0</ele><time>2026-05-01T15:04:11.196Z</time></trkpt><trkpt lat="39.1751858" lon="9.0404318"><ele>1.0</ele><time>2026-05-01T15:04:12.196Z</time></trkpt><trkpt lat="39.1753328" lon="9.0405942"><ele>1.0</ele><time>2026-05-01T15:04:13.197Z</time></trkpt><trkpt lat="39.1754798" lon="9.040757"><ele>1.0</ele><time>2026-05-01T15:04:14.196Z</time></trkpt><trkpt lat="39.1756271" lon="9.040921"><ele>1.0</ele><time>2026-05-01T15:04:15.197Z</time></trkpt><trkpt lat="39.1757731" lon="9.0410829"><ele>1.0</ele><time>2026-05-01T15:04:16.197Z</time></trkpt><trkpt lat="39.1759181" lon="9.0412425"><ele>1.0</ele><time>2026-05-01T15:04:17.196Z</time></trkpt><trkpt lat="39.1760618" lon="9.0414008"><ele>1.0</ele><time>2026-05-01T15:04:18.196Z</time></trkpt><trkpt lat="39.1762039" lon="9.0415581"><ele>1.0</ele><time>2026-05-01T15:04:19.196Z</time></trkpt><trkpt lat="39.1763461" lon="9.0417168"><ele>1.0</ele><time>2026-05-01T15:04:20.196Z</time></trkpt><trkpt lat="39.1764872" lon="9.0418764"><ele>1.0</ele><time>2026-05-01T15:04:21.196Z</time></trkpt><trkpt lat="39.1766295" lon="9.0420359"><ele>1.0</ele><time>2026-05-01T15:04:22.197Z</time></trkpt><trkpt lat="39.1767739" lon="9.0421948"><ele>1.6666666666666665</ele><time>2026-05-01T15:04:23.196Z</time></trkpt><trkpt lat="39.1769194" lon="9.0423539"><ele>2.3333333333333335</ele><time>2026-05-01T15:04:24.196Z</time></trkpt><trkpt lat="39.1770654" lon="9.042514"><ele>3.0</ele><time>2026-05-01T15:04:25.197Z</time></trkpt><trkpt lat="39.1772109" lon="9.0426765"><ele>2.6666666666666665</ele><time>2026-05-01T15:04:26.196Z</time></trkpt><trkpt lat="39.1773564" lon="9.0428398"><ele>2.333333333333333</ele><time>2026-05-01T15:04:27.196Z</time></trkpt><trkpt lat="39.1775036" lon="9.0430034"><ele>2.0</ele><time>2026-05-01T15:04:28.196Z</time></trkpt><trkpt lat="39.1776507" lon="9.0431674"><ele>1.6666666666666665</ele><time>2026-05-01T15:04:29.197Z</time></trkpt><trkpt lat="39.1777966" lon="9.0433304"><ele>1.3333333333333333</ele><time>2026-05-01T15:04:30.197Z</time></trkpt><trkpt lat="39.1779418" lon="9.0434919"><ele>1.0</ele><time>2026-05-01T15:04:31.196Z</time></trkpt><trkpt lat="39.1780856" lon="9.0436522"><ele>1.6666666666666665</ele><time>2026-05-01T15:04:32.197Z</time></trkpt><trkpt lat="39.1782286" lon="9.0438107"><ele>2.3333333333333335</ele><time>2026-05-01T15:04:33.196Z</time></trkpt><trkpt lat="39.1783703" lon="9.0439695"><ele>3.0</ele><time>2026-05-01T15:04:34.197Z</time></trkpt><trkpt lat="39.1785091" lon="9.0441273"><ele>3.0</ele><time>2026-05-01T15:04:35.197Z</time></trkpt><trkpt lat="39.1786488" lon="9.0442853"><ele>3.0</ele><time>2026-05-01T15:04:36.197Z</time></trkpt><trkpt lat="39.1787866" lon="9.0444441"><ele>3.0</ele><time>2026-05-01T15:04:37.197Z</time></trkpt><trkpt lat="39.1789267" lon="9.0446034"><ele>3.666666666666667</ele><time>2026-05-01T15:04:38.196Z</time></trkpt><trkpt lat="39.1790668" lon="9.0447601"><ele>4.333333333333334</ele><time>2026-05-01T15:04:39.196Z</time></trkpt><trkpt lat="39.1792045" lon="9.0449172"><ele>5.0</ele><time>2026-05-01T15:04:40.196Z</time></trkpt><trkpt lat="39.1793424" lon="9.0450714"><ele>5.0</ele><time>2026-05-01T15:04:41.196Z</time></trkpt><trkpt lat="39.1794776" lon="9.0452241"><ele>5.0</ele><time>2026-05-01T15:04:42.196Z</time></trkpt><trkpt lat="39.1796079" lon="9.0453709"><ele>5.0</ele><time>2026-05-01T15:04:43.197Z</time></trkpt><trkpt lat="39.1797379" lon="9.0455169"><ele>5.0</ele><time>2026-05-01T15:04:44.197Z</time></trkpt><trkpt lat="39.1798695" lon="9.0456627"><ele>5.0</ele><time>2026-05-01T15:04:45.196Z</time></trkpt><trkpt lat="39.1800028" lon="9.0458074"><ele>5.0</ele><time>2026-05-01T15:04:46.197Z</time></trkpt><trkpt lat="39.1801353" lon="9.0459539"><ele>4.666666666666667</ele><time>2026-05-01T15:04:47.197Z</time></trkpt><trkpt lat="39.1802688" lon="9.0460998"><ele>4.333333333333333</ele><time>2026-05-01T15:04:48.197Z</time></trkpt><trkpt lat="39.1804011" lon="9.0462466"><ele>4.0</ele><time>2026-05-01T15:04:49.197Z</time></trkpt><trkpt lat="39.180534" lon="9.0463961"><ele>4.0</ele><time>2026-05-01T15:04:50.196Z</time></trkpt><trkpt lat="39.1806677" lon="9.0465445"><ele>4.0</ele><time>2026-05-01T15:04:51.197Z</time></trkpt><trkpt lat="39.1808008" lon="9.0466967"><ele>4.0</ele><time>2026-05-01T15:04:52.196Z</time></trkpt><trkpt lat="39.1809376" lon="9.0468537"><ele>4.0</ele><time>2026-05-01T15:04:53.196Z</time></trkpt><trkpt lat="39.1810767" lon="9.0470117"><ele>4.0</ele><time>2026-05-01T15:04:54.196Z</time></trkpt><trkpt lat="39.1812157" lon="9.047166"><ele>4.0</ele><time>2026-05-01T15:04:55.197Z</time></trkpt><trkpt lat="39.1813559" lon="9.0473226"><ele>3.0</ele><time>2026-05-01T15:04:56.196Z</time></trkpt><trkpt lat="39.1814954" lon="9.0474776"><ele>2.0</ele><time>2026-05-01T15:04:57.196Z</time></trkpt><trkpt lat="39.1816346" lon="9.0476305"><ele>1.0</ele><time>2026-05-01T15:04:58.197Z</time></trkpt><trkpt lat="39.181774" lon="9.0477827"><ele>1.0</ele><time>2026-05-01T15:04:59.197Z</time></trkpt><trkpt lat="39.1819123" lon="9.0479338"><ele>1.0</ele><time>2026-05-01T15:05:00.196Z</time></trkpt><trkpt lat="39.1820503" lon="9.0480876"><ele>1.0</ele><time>2026-05-01T15:05:01.197Z</time></trkpt><trkpt lat="39.1821878" lon="9.0482424"><ele>0.6666666666666666</ele><time>2026-05-01T15:05:02.197Z</time></trkpt><trkpt lat="39.1823205" lon="9.0483912"><ele>0.3333333333333333</ele><time>2026-05-01T15:05:03.196Z</time></trkpt><trkpt lat="39.182449" lon="9.0485365"><ele>0.0</ele><time>2026-05-01T15:05:04.196Z</time></trkpt><trkpt lat="39.1825752" lon="9.0486785"><ele>0.0</ele><time>2026-05-01T15:05:05.197Z</time></trkpt><trkpt lat="39.1827033" lon="9.0488203"><ele>0.0</ele><time>2026-05-01T15:05:06.197Z</time></trkpt><trkpt lat="39.1828332" lon="9.0489645"><ele>0.0</ele><time>2026-05-01T15:05:07.196Z</time></trkpt><trkpt lat="39.1829644" lon="9.0491101"><ele>0.0</ele><time>2026-05-01T15:05:08.196Z</time></trkpt><trkpt lat="39.1830978" lon="9.0492549"><ele>0.0</ele><time>2026-05-01T15:05:09.196Z</time></trkpt><trkpt lat="39.1832299" lon="9.049402"><ele>0.0</ele><time>2026-05-01T15:05:10.197Z</time></trkpt><trkpt lat="39.1833644" lon="9.049551"><ele>0.3333333333333333</ele><time>2026-05-01T15:05:11.196Z</time></trkpt><trkpt lat="39.1834995" lon="9.0497011"><ele>0.6666666666666666</ele><time>2026-05-01T15:05:12.197Z</time></trkpt><trkpt lat="39.1836371" lon="9.0498547"><ele>1.0</ele><time>2026-05-01T15:05:13.197Z</time></trkpt><trkpt lat="39.1837763" lon="9.0500092"><ele>1.0</ele><time>2026-05-01T15:05:14.197Z</time></trkpt><trkpt lat="39.1839163" lon="9.050162"><ele>1.0</ele><time>2026-05-01T15:05:15.197Z</time></trkpt><trkpt lat="39.1840583" lon="9.0503167"><ele>1.0</ele><time>2026-05-01T15:05:16.196Z</time></trkpt><trkpt lat="39.1842013" lon="9.0504727"><ele>1.0</ele><time>2026-05-01T15:05:17.196Z</time></trkpt><trkpt lat="39.1843453" lon="9.0506327"><ele>1.0</ele><time>2026-05-01T15:05:18.197Z</time></trkpt><trkpt lat="39.184492" lon="9.0507917"><ele>1.0</ele><time>2026-05-01T15:05:19.196Z</time></trkpt><trkpt lat="39.1846425" lon="9.0509498"><ele>1.0</ele><time>2026-05-01T15:05:20.197Z</time></trkpt><trkpt lat="39.1847948" lon="9.0511052"><ele>1.0</ele><time>2026-05-01T15:05:21.196Z</time></trkpt><trkpt lat="39.1849487" lon="9.0512595"><ele>1.0</ele><time>2026-05-01T15:05:22.197Z</time></trkpt><trkpt lat="39.1850995" lon="9.0514116"><ele>0.6666666666666666</ele><time>2026-05-01T15:05:23.196Z</time></trkpt><trkpt lat="39.1852494" lon="9.0515613"><ele>0.3333333333333333</ele><time>2026-05-01T15:05:24.196Z</time></trkpt><trkpt lat="39.1853975" lon="9.0517082"><ele>0.0</ele><time>2026-05-01T15:05:25.196Z</time></trkpt><trkpt lat="39.1855457" lon="9.0518529"><ele>0.3333333333333333</ele><time>2026-05-01T15:05:26.196Z</time></trkpt><trkpt lat="39.1856919" lon="9.0519942"><ele>0.6666666666666666</ele><time>2026-05-01T15:05:27.196Z</time></trkpt><trkpt lat="39.1858377" lon="9.0521382"><ele>1.0</ele><time>2026-05-01T15:05:28.196Z</time></trkpt><trkpt lat="39.1859836" lon="9.0522813"><ele>1.0</ele><time>2026-05-01T15:05:29.197Z</time></trkpt><trkpt lat="39.1861302" lon="9.052428"><ele>1.0</ele><time>2026-05-01T15:05:30.196Z</time></trkpt><trkpt lat="39.1862768" lon="9.0525742"><ele>1.0</ele><time>2026-05-01T15:05:31.197Z</time></trkpt><trkpt lat="39.1864217" lon="9.0527203"><ele>1.0</ele><time>2026-05-01T15:05:32.197Z</time></trkpt><trkpt lat="39.1865672" lon="9.0528635"><ele>1.0</ele><time>2026-05-01T15:05:33.196Z</time></trkpt><trkpt lat="39.1867112" lon="9.0530024"><ele>1.0</ele><time>2026-05-01T15:05:34.196Z</time></trkpt><trkpt lat="39.1868536" lon="9.0531421"><ele>1.0</ele><time>2026-05-01T15:05:35.196Z</time></trkpt><trkpt lat="39.1869935" lon="9.0532801"><ele>1.0</ele><time>2026-05-01T15:05:36.196Z</time></trkpt><trkpt lat="39.1871281" lon="9.0534134"><ele>1.0</ele><time>2026-05-01T15:05:37.197Z</time></trkpt><trkpt lat="39.1872638" lon="9.0535505"><ele>0.6666666666666666</ele><time>2026-05-01T15:05:38.197Z</time></trkpt><trkpt lat="39.1873976" lon="9.0536852"><ele>0.3333333333333333</ele><time>2026-05-01T15:05:39.196Z</time></trkpt><trkpt lat="39.1875305" lon="9.053818"><ele>0.0</ele><time>2026-05-01T15:05:40.197Z</time></trkpt><trkpt lat="39.1876649" lon="9.0539515"><ele>0.0</ele><time>2026-05-01T15:05:41.196Z</time></trkpt><trkpt lat="39.1877996" lon="9.0540839"><ele>0.0</ele><time>2026-05-01T15:05:42.196Z</time></trkpt><trkpt lat="39.1879352" lon="9.0542179"><ele>0.0</ele><time>2026-05-01T15:05:43.196Z</time></trkpt><trkpt lat="39.1880703" lon="9.0543537"><ele>0.0</ele><time>2026-05-01T15:05:44.196Z</time></trkpt><trkpt lat="39.188205" lon="9.0544885"><ele>0.0</ele><time>2026-05-01T15:05:45.196Z</time></trkpt><trkpt lat="39.1883428" lon="9.0546237"><ele>0.0</ele><time>2026-05-01T15:05:46.197Z</time></trkpt><trkpt lat="39.1884806" lon="9.0547594"><ele>0.0</ele><time>2026-05-01T15:05:47.196Z</time></trkpt><trkpt lat="39.188621" lon="9.0548959"><ele>0.0</ele><time>2026-05-01T15:05:48.196Z</time></trkpt><trkpt lat="39.1887602" lon="9.0550366"><ele>0.0</ele><time>2026-05-01T15:05:49.196Z</time></trkpt><trkpt lat="39.1889025" lon="9.0551803"><ele>0.0</ele><time>2026-05-01T15:05:50.197Z</time></trkpt><trkpt lat="39.1890458" lon="9.0553217"><ele>0.0</ele><time>2026-05-01T15:05:51.196Z</time></trkpt><trkpt lat="39.18919" lon="9.0554642"><ele>0.0</ele><time>2026-05-01T15:05:52.196Z</time></trkpt><trkpt lat="39.1893345" lon="9.0556077"><ele>0.0</ele><time>2026-05-01T15:05:53.197Z</time></trkpt><trkpt lat="39.1894791" lon="9.0557502"><ele>0.0</ele><time>2026-05-01T15:05:54.197Z</time></trkpt><trkpt lat="39.1896239" lon="9.0558943"><ele>0.0</ele><time>2026-05-01T15:05:55.197Z</time></trkpt><trkpt lat="39.1897686" lon="9.0560395"><ele>0.0</ele><time>2026-05-01T15:05:56.197Z</time></trkpt><trkpt lat="39.1899152" lon="9.0561842"><ele>0.0</ele><time>2026-05-01T15:05:57.197Z</time></trkpt><trkpt lat="39.1900619" lon="9.0563304"><ele>0.0</ele><time>2026-05-01T15:05:58.196Z</time></trkpt><trkpt lat="39.1902089" lon="9.0564759"><ele>0.3333333333333333</ele><time>2026-05-01T15:05:59.196Z</time></trkpt><trkpt lat="39.1903566" lon="9.0566216"><ele>0.6666666666666666</ele><time>2026-05-01T15:06:00.196Z</time></trkpt><trkpt lat="39.1905043" lon="9.0567685"><ele>1.0</ele><time>2026-05-01T15:06:01.197Z</time></trkpt><trkpt lat="39.1906548" lon="9.0569163"><ele>1.0</ele><time>2026-05-01T15:06:02.197Z</time></trkpt><trkpt lat="39.1908053" lon="9.0570634"><ele>1.0</ele><time>2026-05-01T15:06:03.196Z</time></trkpt><trkpt lat="39.1909559" lon="9.0572117"><ele>1.0</ele><time>2026-05-01T15:06:04.197Z</time></trkpt><trkpt lat="39.1911082" lon="9.0573607"><ele>1.0</ele><time>2026-05-01T15:06:05.196Z</time></trkpt><trkpt lat="39.1912613" lon="9.0575118"><ele>1.0</ele><time>2026-05-01T15:06:06.197Z</time></trkpt><trkpt lat="39.1914161" lon="9.0576645"><ele>1.0</ele><time>2026-05-01T15:06:07.196Z</time></trkpt><trkpt lat="39.1915716" lon="9.057818"><ele>0.6666666666666666</ele><time>2026-05-01T15:06:08.197Z</time></trkpt><trkpt lat="39.1917304" lon="9.0579678"><ele>0.3333333333333333</ele><time>2026-05-01T15:06:09.197Z</time></trkpt><trkpt lat="39.1918938" lon="9.0581147"><ele>0.0</ele><time>2026-05-01T15:06:10.197Z</time></trkpt><trkpt lat="39.1920591" lon="9.0582548"><ele>0.0</ele><time>2026-05-01T15:06:11.197Z</time></trkpt><trkpt lat="39.1922223" lon="9.0583896"><ele>0.0</ele><time>2026-05-01T15:06:12.196Z</time></trkpt><trkpt lat="39.1923862" lon="9.0585147"><ele>0.0</ele><time>2026-05-01T15:06:13.196Z</time></trkpt><trkpt lat="39.1925503" lon="9.0586345"><ele>0.0</ele><time>2026-05-01T15:06:14.196Z</time></trkpt><trkpt lat="39.1927082" lon="9.058747"><ele>0.0</ele><time>2026-05-01T15:06:15.197Z</time></trkpt><trkpt lat="39.1928687" lon="9.058859"><ele>0.0</ele><time>2026-05-01T15:06:16.197Z</time></trkpt><trkpt lat="39.193028" lon="9.0589665"><ele>-0.3333333333333333</ele><time>2026-05-01T15:06:17.196Z</time></trkpt><trkpt lat="39.1931882" lon="9.0590701"><ele>-0.6666666666666666</ele><time>2026-05-01T15:06:18.197Z</time></trkpt><trkpt lat="39.1933504" lon="9.0591672"><ele>-1.0</ele><time>2026-05-01T15:06:19.196Z</time></trkpt><trkpt lat="39.1935128" lon="9.0592601"><ele>-1.0</ele><time>2026-05-01T15:06:20.197Z</time></trkpt><trkpt lat="39.1936755" lon="9.0593512"><ele>-1.0</ele><time>2026-05-01T15:06:21.197Z</time></trkpt><trkpt lat="39.1938406" lon="9.0594401"><ele>-1.0</ele><time>2026-05-01T15:06:22.197Z</time></trkpt><trkpt lat="39.1940105" lon="9.0595233"><ele>-0.3333333333333333</ele><time>2026-05-01T15:06:23.197Z</time></trkpt><trkpt lat="39.1941836" lon="9.0596026"><ele>0.3333333333333333</ele><time>2026-05-01T15:06:24.196Z</time></trkpt><trkpt lat="39.1943624" lon="9.0596803"><ele>1.0</ele><time>2026-05-01T15:06:25.197Z</time></trkpt><trkpt lat="39.1945444" lon="9.0597541"><ele>1.0</ele><time>2026-05-01T15:06:26.197Z</time></trkpt><trkpt lat="39.1947327" lon="9.0598249"><ele>1.0</ele><time>2026-05-01T15:06:27.196Z</time></trkpt><trkpt lat="39.1949244" lon="9.0598909"><ele>1.0</ele><time>2026-05-01T15:06:28.197Z</time></trkpt><trkpt lat="39.1951174" lon="9.0599507"><ele>1.0</ele><time>2026-05-01T15:06:29.196Z</time></trkpt><trkpt lat="39.1953124" lon="9.0600037"><ele>1.0</ele><time>2026-05-01T15:06:30.196Z</time></trkpt><trkpt lat="39.1955096" lon="9.0600503"><ele>1.0</ele><time>2026-05-01T15:06:31.197Z</time></trkpt><trkpt lat="39.195708" lon="9.0600904"><ele>1.0</ele><time>2026-05-01T15:06:32.196Z</time></trkpt><trkpt lat="39.1959054" lon="9.0601268"><ele>1.0</ele><time>2026-05-01T15:06:33.196Z</time></trkpt><trkpt lat="39.1961032" lon="9.0601585"><ele>1.0</ele><time>2026-05-01T15:06:34.196Z</time></trkpt><trkpt lat="39.1963031" lon="9.0601855"><ele>0.6666666666666666</ele><time>2026-05-01T15:06:35.197Z</time></trkpt><trkpt lat="39.1965058" lon="9.060207"><ele>0.3333333333333333</ele><time>2026-05-01T15:06:36.197Z</time></trkpt><trkpt lat="39.196715" lon="9.0602231"><ele>0.0</ele><time>2026-05-01T15:06:37.196Z</time></trkpt><trkpt lat="39.1969305" lon="9.0602325"><ele>0.0</ele><time>2026-05-01T15:06:38.197Z</time></trkpt><trkpt lat="39.1971494" lon="9.0602355"><ele>0.0</ele><time>2026-05-01T15:06:39.197Z</time></trkpt><trkpt lat="39.1973707" lon="9.0602317"><ele>0.0</ele><time>2026-05-01T15:06:40.196Z</time></trkpt><trkpt lat="39.1975939" lon="9.0602215"><ele>0.0</ele><time>2026-05-01T15:06:41.197Z</time></trkpt><trkpt lat="39.1978191" lon="9.060204"><ele>0.0</ele><time>2026-05-01T15:06:42.196Z</time></trkpt><trkpt lat="39.1980463" lon="9.0601804"><ele>0.0</ele><time>2026-05-01T15:06:43.197Z</time></trkpt><trkpt lat="39.1982753" lon="9.0601485"><ele>0.0</ele><time>2026-05-01T15:06:44.196Z</time></trkpt><trkpt lat="39.198506" lon="9.0601061"><ele>0.0</ele><time>2026-05-01T15:06:45.197Z</time></trkpt><trkpt lat="39.1987397" lon="9.0600567"><ele>0.0</ele><time>2026-05-01T15:06:46.197Z</time></trkpt><trkpt lat="39.1989754" lon="9.0600031"><ele>-1.0</ele><time>2026-05-01T15:06:47.197Z</time></trkpt><trkpt lat="39.199211" lon="9.059943"><ele>-2.0</ele><time>2026-05-01T15:06:48.196Z</time></trkpt><trkpt lat="39.199447" lon="9.0598792"><ele>-2.0</ele><time>2026-05-01T15:06:49.197Z</time></trkpt><trkpt lat="39.1996835" lon="9.0598139"><ele>-2.0</ele><time>2026-05-01T15:06:50.197Z</time></trkpt><trkpt lat="39.1999202" lon="9.0597459"><ele>-1.5</ele><time>2026-05-01T15:06:51.197Z</time></trkpt><trkpt lat="39.2001573" lon="9.0596751"><ele>-1.0</ele><time>2026-05-01T15:06:52.196Z</time></trkpt><trkpt lat="39.2003933" lon="9.0596037"><ele>-1.0</ele><time>2026-05-01T15:06:53.196Z</time></trkpt><trkpt lat="39.2006292" lon="9.0595334"><ele>-1.0</ele><time>2026-05-01T15:06:54.197Z</time></trkpt><trkpt lat="39.2008653" lon="9.0594651"><ele>-1.0</ele><time>2026-05-01T15:06:55.197Z</time></trkpt><trkpt lat="39.2011021" lon="9.0593976"><ele>-1.0</ele><time>2026-05-01T15:06:56.196Z</time></trkpt><trkpt lat="39.2013387" lon="9.0593299"><ele>-1.0</ele><time>2026-05-01T15:06:57.196Z</time></trkpt><trkpt lat="39.2015761" lon="9.0592606"><ele>-1.0</ele><time>2026-05-01T15:06:58.196Z</time></trkpt><trkpt lat="39.2018141" lon="9.0591915"><ele>-1.0</ele><time>2026-05-01T15:06:59.196Z</time></trkpt><trkpt lat="39.2020534" lon="9.0591223"><ele>-1.0</ele><time>2026-05-01T15:07:00.197Z</time></trkpt><trkpt lat="39.202294" lon="9.0590539"><ele>-1.5</ele><time>2026-05-01T15:07:01.197Z</time></trkpt><trkpt lat="39.2025378" lon="9.0589883"><ele>-2.0</ele><time>2026-05-01T15:07:02.196Z</time></trkpt><trkpt lat="39.2027843" lon="9.0589205"><ele>-2.0</ele><time>2026-05-01T15:07:03.197Z</time></trkpt><trkpt lat="39.2030338" lon="9.0588517"><ele>-2.0</ele><time>2026-05-01T15:07:04.196Z</time></trkpt><trkpt lat="39.2032833" lon="9.0587787"><ele>-1.5</ele><time>2026-05-01T15:07:05.196Z</time></trkpt><trkpt lat="39.2035353" lon="9.0587022"><ele>-1.0</ele><time>2026-05-01T15:07:06.196Z</time></trkpt><trkpt lat="39.2037849" lon="9.0586282"><ele>-0.5</ele><time>2026-05-01T15:07:07.197Z</time></trkpt><trkpt lat="39.2040364" lon="9.0585535"><ele>0.0</ele><time>2026-05-01T15:07:08.196Z</time></trkpt><trkpt lat="39.2042868" lon="9.0584806"><ele>0.0</ele><time>2026-05-01T15:07:09.196Z</time></trkpt><trkpt lat="39.204539" lon="9.058407"><ele>0.0</ele><time>2026-05-01T15:07:10.196Z</time></trkpt><trkpt lat="39.2047897" lon="9.0583335"><ele>-1.0</ele><time>2026-05-01T15:07:11.196Z</time></trkpt><trkpt lat="39.2050416" lon="9.0582617"><ele>-2.0</ele><time>2026-05-01T15:07:12.197Z</time></trkpt><trkpt lat="39.2052938" lon="9.0581874"><ele>-2.0</ele><time>2026-05-01T15:07:13.197Z</time></trkpt><trkpt lat="39.2055455" lon="9.0581125"><ele>-2.0</ele><time>2026-05-01T15:07:14.196Z</time></trkpt><trkpt lat="39.2057981" lon="9.0580378"><ele>-1.5</ele><time>2026-05-01T15:07:15.196Z</time></trkpt><trkpt lat="39.206051" lon="9.0579643"><ele>-1.0</ele><time>2026-05-01T15:07:16.197Z</time></trkpt><trkpt lat="39.2063039" lon="9.0578932"><ele>-1.0</ele><time>2026-05-01T15:07:17.196Z</time></trkpt><trkpt lat="39.2065549" lon="9.0578184"><ele>-1.0</ele><time>2026-05-01T15:07:18.196Z</time></trkpt><trkpt lat="39.2068066" lon="9.0577418"><ele>-1.0</ele><time>2026-05-01T15:07:19.197Z</time></trkpt><trkpt lat="39.20706" lon="9.0576682"><ele>-1.0</ele><time>2026-05-01T15:07:20.196Z</time></trkpt><trkpt lat="39.2073121" lon="9.0575952"><ele>-1.0</ele><time>2026-05-01T15:07:21.197Z</time></trkpt><trkpt lat="39.2075646" lon="9.0575227"><ele>-1.0</ele><time>2026-05-01T15:07:22.196Z</time></trkpt><trkpt lat="39.2078161" lon="9.0574484"><ele>-1.0</ele><time>2026-05-01T15:07:23.197Z</time></trkpt><trkpt lat="39.2080664" lon="9.0573726"><ele>-1.0</ele><time>2026-05-01T15:07:24.196Z</time></trkpt><trkpt lat="39.2083153" lon="9.057299"><ele>-1.0</ele><time>2026-05-01T15:07:25.197Z</time></trkpt><trkpt lat="39.208564" lon="9.0572274"><ele>-1.0</ele><time>2026-05-01T15:07:26.197Z</time></trkpt><trkpt lat="39.2088144" lon="9.057156"><ele>-0.5</ele><time>2026-05-01T15:07:27.197Z</time></trkpt><trkpt lat="39.2090635" lon="9.0570829"><ele>0.0</ele><time>2026-05-01T15:07:28.196Z</time></trkpt><trkpt lat="39.2093127" lon="9.0570086"><ele>0.0</ele><time>2026-05-01T15:07:29.197Z</time></trkpt><trkpt lat="39.209562" lon="9.0569319"><ele>0.0</ele><time>2026-05-01T15:07:30.197Z</time></trkpt><trkpt lat="39.2098139" lon="9.0568583"><ele>-0.5</ele><time>2026-05-01T15:07:31.197Z</time></trkpt><trkpt lat="39.2100651" lon="9.056785"><ele>-1.0</ele><time>2026-05-01T15:07:32.197Z</time></trkpt><trkpt lat="39.2103147" lon="9.0567122"><ele>-1.0</ele><time>2026-05-01T15:07:33.197Z</time></trkpt><trkpt lat="39.2105638" lon="9.0566395"><ele>-1.0</ele><time>2026-05-01T15:07:34.197Z</time></trkpt><trkpt lat="39.2108114" lon="9.0565678"><ele>-1.0</ele><time>2026-05-01T15:07:35.196Z</time></trkpt><trkpt lat="39.2110579" lon="9.0564921"><ele>-1.0</ele><time>2026-05-01T15:07:36.196Z</time></trkpt><trkpt lat="39.2113056" lon="9.0564187"><ele>-1.0</ele><time>2026-05-01T15:07:37.197Z</time></trkpt><trkpt lat="39.2115512" lon="9.056345"><ele>-1.0</ele><time>2026-05-01T15:07:38.197Z</time></trkpt><trkpt lat="39.2117952" lon="9.0562717"><ele>-1.0</ele><time>2026-05-01T15:07:39.197Z</time></trkpt><trkpt lat="39.2120379" lon="9.0562002"><ele>-1.0</ele><time>2026-05-01T15:07:40.197Z</time></trkpt><trkpt lat="39.212281" lon="9.056128"><ele>-1.0</ele><time>2026-05-01T15:07:41.196Z</time></trkpt><trkpt lat="39.212525" lon="9.0560558"><ele>-1.0</ele><time>2026-05-01T15:07:42.196Z</time></trkpt><trkpt lat="39.2127713" lon="9.0559842"><ele>-1.0</ele><time>2026-05-01T15:07:43.196Z</time></trkpt><trkpt lat="39.2130151" lon="9.0559109"><ele>-1.0</ele><time>2026-05-01T15:07:44.196Z</time></trkpt><trkpt lat="39.2132595" lon="9.0558396"><ele>-1.0</ele><time>2026-05-01T15:07:45.196Z</time></trkpt><trkpt lat="39.2135047" lon="9.0557698"><ele>-1.0</ele><time>2026-05-01T15:07:46.197Z</time></trkpt><trkpt lat="39.2137496" lon="9.0557018"><ele>-1.0</ele><time>2026-05-01T15:07:47.197Z</time></trkpt><trkpt lat="39.2139952" lon="9.0556302"><ele>-1.0</ele><time>2026-05-01T15:07:48.196Z</time></trkpt><trkpt lat="39.2142398" lon="9.0555554"><ele>-1.0</ele><time>2026-05-01T15:07:49.197Z</time></trkpt><trkpt lat="39.2144845" lon="9.055479"><ele>-1.0</ele><time>2026-05-01T15:07:50.196Z</time></trkpt><trkpt lat="39.2147305" lon="9.0554028"><ele>-1.0</ele><time>2026-05-01T15:07:51.197Z</time></trkpt><trkpt lat="39.2149763" lon="9.0553295"><ele>-1.0</ele><time>2026-05-01T15:07:52.196Z</time></trkpt><trkpt lat="39.2152232" lon="9.0552585"><ele>-1.0</ele><time>2026-05-01T15:07:53.197Z</time></trkpt><trkpt lat="39.2154705" lon="9.0551884"><ele>-1.0</ele><time>2026-05-01T15:07:54.197Z</time></trkpt><trkpt lat="39.2157202" lon="9.0551165"><ele>-0.5</ele><time>2026-05-01T15:07:55.196Z</time></trkpt><trkpt lat="39.21597" lon="9.0550421"><ele>0.0</ele><time>2026-05-01T15:07:56.196Z</time></trkpt><trkpt lat="39.216219" lon="9.0549656"><ele>-1.0</ele><time>2026-05-01T15:07:57.197Z</time></trkpt><trkpt lat="39.2164638" lon="9.0548856"><ele>-2.0</ele><time>2026-05-01T15:07:58.196Z</time></trkpt><trkpt lat="39.2167055" lon="9.0547936"><ele>0.0</ele><time>2026-05-01T15:07:59.197Z</time></trkpt><trkpt lat="39.2169449" lon="9.0546962"><ele>2.0</ele><time>2026-05-01T15:08:00.196Z</time></trkpt><trkpt lat="39.2171853" lon="9.0545976"><ele>1.0</ele><time>2026-05-01T15:08:01.196Z</time></trkpt><trkpt lat="39.2174271" lon="9.0545035"><ele>0.0</ele><time>2026-05-01T15:08:02.196Z</time></trkpt><trkpt lat="39.2176714" lon="9.0544175"><ele>0.0</ele><time>2026-05-01T15:08:03.197Z</time></trkpt><trkpt lat="39.2179187" lon="9.0543463"><ele>0.0</ele><time>2026-05-01T15:08:04.197Z</time></trkpt><trkpt lat="39.2181683" lon="9.0542932"><ele>-0.5</ele><time>2026-05-01T15:08:05.197Z</time></trkpt><trkpt lat="39.2184208" lon="9.0542571"><ele>-1.0</ele><time>2026-05-01T15:08:06.196Z</time></trkpt><trkpt lat="39.2186748" lon="9.0542408"><ele>-1.0</ele><time>2026-05-01T15:08:07.197Z</time></trkpt><trkpt lat="39.2189286" lon="9.0542415"><ele>-1.0</ele><time>2026-05-01T15:08:08.196Z</time></trkpt><trkpt lat="39.2191831" lon="9.0542604"><ele>-0.5</ele><time>2026-05-01T15:08:09.197Z</time></trkpt><trkpt lat="39.2194255" lon="9.0542845"><ele>0.0</ele><time>2026-05-01T15:08:10.197Z</time></trkpt><trkpt lat="39.2196834" lon="9.0543644"><ele>-0.5</ele><time>2026-05-01T15:08:11.197Z</time></trkpt><trkpt lat="39.2199281" lon="9.0544335"><ele>-1.0</ele><time>2026-05-01T15:08:12.196Z</time></trkpt><trkpt lat="39.220171" lon="9.0545238"><ele>-1.0</ele><time>2026-05-01T15:08:13.196Z</time></trkpt><trkpt lat="39.22041" lon="9.054633"><ele>-1.0</ele><time>2026-05-01T15:08:14.197Z</time></trkpt><trkpt lat="39.2206416" lon="9.0547594"><ele>-1.0</ele><time>2026-05-01T15:08:15.197Z</time></trkpt><trkpt lat="39.2208674" lon="9.0549017"><ele>-1.0</ele><time>2026-05-01T15:08:16.197Z</time></trkpt><trkpt lat="39.2210871" lon="9.0550617"><ele>-1.0</ele><time>2026-05-01T15:08:17.196Z</time></trkpt><trkpt lat="39.2213009" lon="9.0552345"><ele>-1.0</ele><time>2026-05-01T15:08:18.196Z</time></trkpt><trkpt lat="39.2215077" lon="9.0554232"><ele>-1.0</ele><time>2026-05-01T15:08:19.197Z</time></trkpt><trkpt lat="39.2217051" lon="9.0556252"><ele>-1.0</ele><time>2026-05-01T15:08:20.197Z</time></trkpt><trkpt lat="39.2218912" lon="9.0558444"><ele>-0.5</ele><time>2026-05-01T15:08:21.197Z</time></trkpt><trkpt lat="39.2220665" lon="9.0560782"><ele>0.0</ele><time>2026-05-01T15:08:22.196Z</time></trkpt><trkpt lat="39.2222324" lon="9.0563221"><ele>-0.5</ele><time>2026-05-01T15:08:23.197Z</time></trkpt><trkpt lat="39.222389" lon="9.0565766"><ele>-1.0</ele><time>2026-05-01T15:08:24.197Z</time></trkpt><trkpt lat="39.2225366" lon="9.0568399"><ele>0.0</ele><time>2026-05-01T15:08:25.197Z</time></trkpt><trkpt lat="39.2226728" lon="9.0571126"><ele>1.0</ele><time>2026-05-01T15:08:26.197Z</time></trkpt><trkpt lat="39.2227975" lon="9.0573886"><ele>0.5</ele><time>2026-05-01T15:08:27.196Z</time></trkpt><trkpt lat="39.2229103" lon="9.0576638"><ele>0.0</ele><time>2026-05-01T15:08:28.197Z</time></trkpt><trkpt lat="39.2230115" lon="9.0579382"><ele>0.0</ele><time>2026-05-01T15:08:29.197Z</time></trkpt><trkpt lat="39.2231062" lon="9.0582085"><ele>0.0</ele><time>2026-05-01T15:08:30.197Z</time></trkpt><trkpt lat="39.2231955" lon="9.0584761"><ele>-0.3333333333333333</ele><time>2026-05-01T15:08:31.197Z</time></trkpt><trkpt lat="39.2232788" lon="9.0587434"><ele>-0.6666666666666666</ele><time>2026-05-01T15:08:32.196Z</time></trkpt><trkpt lat="39.2233556" lon="9.0590109"><ele>-1.0</ele><time>2026-05-01T15:08:33.196Z</time></trkpt><trkpt lat="39.2234267" lon="9.0592797"><ele>-1.0</ele><time>2026-05-01T15:08:34.196Z</time></trkpt><trkpt lat="39.2234954" lon="9.0595486"><ele>-1.0</ele><time>2026-05-01T15:08:35.196Z</time></trkpt><trkpt lat="39.2235608" lon="9.0598161"><ele>-1.0</ele><time>2026-05-01T15:08:36.196Z</time></trkpt><trkpt lat="39.2236232" lon="9.0600821"><ele>-1.0</ele><time>2026-05-01T15:08:37.197Z</time></trkpt><trkpt lat="39.2236819" lon="9.0603482"><ele>-1.0</ele><time>2026-05-01T15:08:38.196Z</time></trkpt><trkpt lat="39.2237384" lon="9.0606176"><ele>-1.0</ele><time>2026-05-01T15:08:39.196Z</time></trkpt><trkpt lat="39.2237961" lon="9.0608873"><ele>0.0</ele><time>2026-05-01T15:08:40.197Z</time></trkpt><trkpt lat="39.2238517" lon="9.0611556"><ele>1.0</ele><time>2026-05-01T15:08:41.196Z</time></trkpt><trkpt lat="39.223907" lon="9.0614253"><ele>2.0</ele><time>2026-05-01T15:08:42.196Z</time></trkpt><trkpt lat="39.2239637" lon="9.0616956"><ele>1.3333333333333333</ele><time>2026-05-01T15:08:43.197Z</time></trkpt><trkpt lat="39.2240209" lon="9.0619679"><ele>0.6666666666666666</ele><time>2026-05-01T15:08:44.197Z</time></trkpt><trkpt lat="39.224078" lon="9.0622409"><ele>0.0</ele><time>2026-05-01T15:08:45.196Z</time></trkpt><trkpt lat="39.2241339" lon="9.0625144"><ele>0.0</ele><time>2026-05-01T15:08:46.197Z</time></trkpt><trkpt lat="39.2241896" lon="9.0627872"><ele>0.0</ele><time>2026-05-01T15:08:47.197Z</time></trkpt><trkpt lat="39.2242448" lon="9.0630579"><ele>0.0</ele><time>2026-05-01T15:08:48.197Z</time></trkpt><trkpt lat="39.2243004" lon="9.0633295"><ele>0.3333333333333333</ele><time>2026-05-01T15:08:49.196Z</time></trkpt><trkpt lat="39.2243576" lon="9.0636017"><ele>0.6666666666666666</ele><time>2026-05-01T15:08:50.197Z</time></trkpt><trkpt lat="39.2244141" lon="9.063874"><ele>1.0</ele><time>2026-05-01T15:08:51.196Z</time></trkpt><trkpt lat="39.2244704" lon="9.0641462"><ele>1.3333333333333333</ele><time>2026-05-01T15:08:52.196Z</time></trkpt><trkpt lat="39.2245279" lon="9.0644174"><ele>1.6666666666666665</ele><time>2026-05-01T15:08:53.196Z</time></trkpt><trkpt lat="39.2245854" lon="9.0646891"><ele>2.0</ele><time>2026-05-01T15:08:54.196Z</time></trkpt><trkpt lat="39.2246426" lon="9.0649599"><ele>3.0</ele><time>2026-05-01T15:08:55.197Z</time></trkpt><trkpt lat="39.2247012" lon="9.0652311"><ele>4.0</ele><time>2026-05-01T15:08:56.197Z</time></trkpt><trkpt lat="39.2247603" lon="9.065502"><ele>5.0</ele><time>2026-05-01T15:08:57.197Z</time></trkpt><trkpt lat="39.2248194" lon="9.0657735"><ele>3.3333333333333335</ele><time>2026-05-01T15:08:58.197Z</time></trkpt><trkpt lat="39.2248786" lon="9.0660441"><ele>1.6666666666666667</ele><time>2026-05-01T15:08:59.197Z</time></trkpt><trkpt lat="39.2249397" lon="9.0663142"><ele>0.0</ele><time>2026-05-01T15:09:00.196Z</time></trkpt><trkpt lat="39.2250049" lon="9.0665841"><ele>0.3333333333333333</ele><time>2026-05-01T15:09:01.196Z</time></trkpt><trkpt lat="39.2250744" lon="9.0668517"><ele>0.6666666666666666</ele><time>2026-05-01T15:09:02.197Z</time></trkpt><trkpt lat="39.2251527" lon="9.0671148"><ele>1.0</ele><time>2026-05-01T15:09:03.197Z</time></trkpt><trkpt lat="39.2252401" lon="9.0673708"><ele>0.6666666666666666</ele><time>2026-05-01T15:09:04.196Z</time></trkpt><trkpt lat="39.2253392" lon="9.0676197"><ele>0.3333333333333333</ele><time>2026-05-01T15:09:05.196Z</time></trkpt><trkpt lat="39.2254465" lon="9.067863"><ele>0.0</ele><time>2026-05-01T15:09:06.196Z</time></trkpt><trkpt lat="39.225558" lon="9.0681051"><ele>0.3333333333333333</ele><time>2026-05-01T15:09:07.196Z</time></trkpt><trkpt lat="39.2256719" lon="9.0683449"><ele>0.6666666666666666</ele><time>2026-05-01T15:09:08.196Z</time></trkpt><trkpt lat="39.2257854" lon="9.0685886"><ele>1.0</ele><time>2026-05-01T15:09:09.196Z</time></trkpt><trkpt lat="39.2258938" lon="9.0688322"><ele>1.0</ele><time>2026-05-01T15:09:10.197Z</time></trkpt><trkpt lat="39.2259962" lon="9.0690807"><ele>1.0</ele><time>2026-05-01T15:09:11.196Z</time></trkpt><trkpt lat="39.2260895" lon="9.0693357"><ele>1.0</ele><time>2026-05-01T15:09:12.197Z</time></trkpt><trkpt lat="39.2261714" lon="9.0695966"><ele>1.0</ele><time>2026-05-01T15:09:13.196Z</time></trkpt><trkpt lat="39.2262416" lon="9.0698621"><ele>1.0</ele><time>2026-05-01T15:09:14.197Z</time></trkpt><trkpt lat="39.226295" lon="9.0701344"><ele>1.0</ele><time>2026-05-01T15:09:15.197Z</time></trkpt><trkpt lat="39.2263369" lon="9.0704102"><ele>1.0</ele><time>2026-05-01T15:09:16.197Z</time></trkpt><trkpt lat="39.2263677" lon="9.0706876"><ele>1.0</ele><time>2026-05-01T15:09:17.196Z</time></trkpt><trkpt lat="39.2263876" lon="9.0709663"><ele>1.0</ele><time>2026-05-01T15:09:18.196Z</time></trkpt><trkpt lat="39.2263919" lon="9.0712466"><ele>0.6666666666666666</ele><time>2026-05-01T15:09:19.197Z</time></trkpt><trkpt lat="39.2263857" lon="9.0715275"><ele>0.3333333333333333</ele><time>2026-05-01T15:09:20.197Z</time></trkpt><trkpt lat="39.2263658" lon="9.0718079"><ele>0.0</ele><time>2026-05-01T15:09:21.196Z</time></trkpt><trkpt lat="39.2263354" lon="9.0720858"><ele>0.0</ele><time>2026-05-01T15:09:22.197Z</time></trkpt><trkpt lat="39.2262942" lon="9.0723645"><ele>0.0</ele><time>2026-05-01T15:09:23.197Z</time></trkpt><trkpt lat="39.2262478" lon="9.0726398"><ele>0.0</ele><time>2026-05-01T15:09:24.197Z</time></trkpt><trkpt lat="39.2261965" lon="9.0729146"><ele>0.0</ele><time>2026-05-01T15:09:25.197Z</time></trkpt><trkpt lat="39.226141" lon="9.0731903"><ele>0.0</ele><time>2026-05-01T15:09:26.197Z</time></trkpt><trkpt lat="39.2260836" lon="9.073462"><ele>0.0</ele><time>2026-05-01T15:09:27.196Z</time></trkpt><trkpt lat="39.2260244" lon="9.0737355"><ele>0.0</ele><time>2026-05-01T15:09:28.197Z</time></trkpt><trkpt lat="39.2259656" lon="9.0740097"><ele>0.0</ele><time>2026-05-01T15:09:29.197Z</time></trkpt><trkpt lat="39.2259062" lon="9.0742819"><ele>0.0</ele><time>2026-05-01T15:09:30.197Z</time></trkpt><trkpt lat="39.2258488" lon="9.0745506"><ele>0.0</ele><time>2026-05-01T15:09:31.196Z</time></trkpt><trkpt lat="39.225789" lon="9.0748211"><ele>0.0</ele><time>2026-05-01T15:09:32.197Z</time></trkpt><trkpt lat="39.2257306" lon="9.0750908"><ele>0.0</ele><time>2026-05-01T15:09:33.197Z</time></trkpt><trkpt lat="39.2256707" lon="9.0753624"><ele>0.0</ele><time>2026-05-01T15:09:34.197Z</time></trkpt><trkpt lat="39.2256105" lon="9.0756348"><ele>0.0</ele><time>2026-05-01T15:09:35.197Z</time></trkpt><trkpt lat="39.2255506" lon="9.0759061"><ele>0.0</ele><time>2026-05-01T15:09:36.197Z</time></trkpt><trkpt lat="39.2254926" lon="9.076175"><ele>0.0</ele><time>2026-05-01T15:09:37.196Z</time></trkpt><trkpt lat="39.2254338" lon="9.0764459"><ele>0.0</ele><time>2026-05-01T15:09:38.196Z</time></trkpt><trkpt lat="39.2253768" lon="9.076718"><ele>0.0</ele><time>2026-05-01T15:09:39.196Z</time></trkpt><trkpt lat="39.2253178" lon="9.076996"><ele>0.0</ele><time>2026-05-01T15:09:40.196Z</time></trkpt><trkpt lat="39.2252569" lon="9.0772781"><ele>0.0</ele><time>2026-05-01T15:09:41.196Z</time></trkpt><trkpt lat="39.2251853" lon="9.077558"><ele>0.5</ele><time>2026-05-01T15:09:42.196Z</time></trkpt><trkpt lat="39.2250966" lon="9.0778349"><ele>1.0</ele><time>2026-05-01T15:09:43.196Z</time></trkpt><trkpt lat="39.2249947" lon="9.0781034"><ele>1.0</ele><time>2026-05-01T15:09:44.196Z</time></trkpt><trkpt lat="39.2248777" lon="9.0783613"><ele>1.0</ele><time>2026-05-01T15:09:45.196Z</time></trkpt><trkpt lat="39.2247465" lon="9.0786082"><ele>1.0</ele><time>2026-05-01T15:09:46.197Z</time></trkpt><trkpt lat="39.2246039" lon="9.0788392"><ele>1.0</ele><time>2026-05-01T15:09:47.197Z</time></trkpt><trkpt lat="39.2244489" lon="9.079058"><ele>1.0</ele><time>2026-05-01T15:09:48.196Z</time></trkpt><trkpt lat="39.2242838" lon="9.0792655"><ele>1.0</ele><time>2026-05-01T15:09:49.196Z</time></trkpt><trkpt lat="39.2241164" lon="9.0794764"><ele>0.5</ele><time>2026-05-01T15:09:50.197Z</time></trkpt><trkpt lat="39.2239473" lon="9.0796846"><ele>0.0</ele><time>2026-05-01T15:09:51.197Z</time></trkpt><trkpt lat="39.2237798" lon="9.0798965"><ele>-1.0</ele><time>2026-05-01T15:09:52.197Z</time></trkpt><trkpt lat="39.2236129" lon="9.0801095"><ele>-2.0</ele><time>2026-05-01T15:09:53.197Z</time></trkpt><trkpt lat="39.2234485" lon="9.0803206"><ele>-2.0</ele><time>2026-05-01T15:09:54.197Z</time></trkpt><trkpt lat="39.2232848" lon="9.0805306"><ele>-2.0</ele><time>2026-05-01T15:09:55.196Z</time></trkpt><trkpt lat="39.2231216" lon="9.0807409"><ele>-1.0</ele><time>2026-05-01T15:09:56.197Z</time></trkpt><trkpt lat="39.2229541" lon="9.0809487"><ele>0.0</ele><time>2026-05-01T15:09:57.197Z</time></trkpt><trkpt lat="39.2227845" lon="9.0811521"><ele>0.0</ele><time>2026-05-01T15:09:58.197Z</time></trkpt><trkpt lat="39.2226144" lon="9.0813581"><ele>0.0</ele><time>2026-05-01T15:09:59.196Z</time></trkpt><trkpt lat="39.2224462" lon="9.081564"><ele>1.0</ele><time>2026-05-01T15:10:00.197Z</time></trkpt><trkpt lat="39.222279" lon="9.0817691"><ele>2.0</ele><time>2026-05-01T15:10:01.196Z</time></trkpt><trkpt lat="39.2221089" lon="9.0819758"><ele>2.0</ele><time>2026-05-01T15:10:02.197Z</time></trkpt><trkpt lat="39.2219404" lon="9.082183"><ele>2.0</ele><time>2026-05-01T15:10:03.197Z</time></trkpt><trkpt lat="39.2217721" lon="9.0823892"><ele>1.0</ele><time>2026-05-01T15:10:04.196Z</time></trkpt><trkpt lat="39.2216052" lon="9.0825967"><ele>0.0</ele><time>2026-05-01T15:10:05.197Z</time></trkpt><trkpt lat="39.2214379" lon="9.0828026"><ele>0.0</ele><time>2026-05-01T15:10:06.197Z</time></trkpt><trkpt lat="39.2212698" lon="9.0830098"><ele>0.0</ele><time>2026-05-01T15:10:07.196Z</time></trkpt><trkpt lat="39.2211018" lon="9.0832175"><ele>1.5</ele><time>2026-05-01T15:10:08.197Z</time></trkpt><trkpt lat="39.220936" lon="9.0834307"><ele>3.0</ele><time>2026-05-01T15:10:09.197Z</time></trkpt><trkpt lat="39.2207704" lon="9.0836402"><ele>2.5</ele><time>2026-05-01T15:10:10.197Z</time></trkpt><trkpt lat="39.2206042" lon="9.0838442"><ele>2.0</ele><time>2026-05-01T15:10:11.197Z</time></trkpt><trkpt lat="39.220437" lon="9.0840466"><ele>2.5</ele><time>2026-05-01T15:10:12.197Z</time></trkpt><trkpt lat="39.2202687" lon="9.0842464"><ele>3.0</ele><time>2026-05-01T15:10:13.197Z</time></trkpt><trkpt lat="39.2200973" lon="9.0844435"><ele>3.0</ele><time>2026-05-01T15:10:14.196Z</time></trkpt><trkpt lat="39.2199243" lon="9.084636"><ele>3.0</ele><time>2026-05-01T15:10:15.196Z</time></trkpt><trkpt lat="39.2197458" lon="9.0848277"><ele>2.5</ele><time>2026-05-01T15:10:16.197Z</time></trkpt><trkpt lat="39.2195654" lon="9.0850168"><ele>2.0</ele><time>2026-05-01T15:10:17.196Z</time></trkpt><trkpt lat="39.2193829" lon="9.0852001"><ele>2.0</ele><time>2026-05-01T15:10:18.196Z</time></trkpt><trkpt lat="39.2191993" lon="9.0853798"><ele>2.0</ele><time>2026-05-01T15:10:19.197Z</time></trkpt><trkpt lat="39.2190141" lon="9.0855573"><ele>2.0</ele><time>2026-05-01T15:10:20.197Z</time></trkpt><trkpt lat="39.2188344" lon="9.0857478"><ele>2.0</ele><time>2026-05-01T15:10:21.196Z</time></trkpt><trkpt lat="39.2186502" lon="9.0859258"><ele>2.0</ele><time>2026-05-01T15:10:22.196Z</time></trkpt><trkpt lat="39.2184657" lon="9.0861038"><ele>2.0</ele><time>2026-05-01T15:10:23.197Z</time></trkpt><trkpt lat="39.2182784" lon="9.0862807"><ele>1.0</ele><time>2026-05-01T15:10:24.196Z</time></trkpt><trkpt lat="39.2180886" lon="9.0864497"><ele>0.0</ele><time>2026-05-01T15:10:25.197Z</time></trkpt><trkpt lat="39.2179019" lon="9.086615"><ele>-0.5</ele><time>2026-05-01T15:10:26.196Z</time></trkpt><trkpt lat="39.2177109" lon="9.0867764"><ele>-1.0</ele><time>2026-05-01T15:10:27.197Z</time></trkpt><trkpt lat="39.2175183" lon="9.0869359"><ele>-1.0</ele><time>2026-05-01T15:10:28.197Z</time></trkpt><trkpt lat="39.217325" lon="9.0870943"><ele>-1.0</ele><time>2026-05-01T15:10:29.197Z</time></trkpt><trkpt lat="39.2171377" lon="9.0872492"><ele>-0.6666666666666666</ele><time>2026-05-01T15:10:30.196Z</time></trkpt><trkpt lat="39.2169539" lon="9.0874027"><ele>-0.3333333333333333</ele><time>2026-05-01T15:10:31.197Z</time></trkpt><trkpt lat="39.2167714" lon="9.0875563"><ele>0.0</ele><time>2026-05-01T15:10:32.196Z</time></trkpt><trkpt lat="39.2165867" lon="9.0877141"><ele>1.0</ele><time>2026-05-01T15:10:33.197Z</time></trkpt><trkpt lat="39.2164017" lon="9.0878718"><ele>2.0</ele><time>2026-05-01T15:10:34.196Z</time></trkpt><trkpt lat="39.2162182" lon="9.0880273"><ele>3.0</ele><time>2026-05-01T15:10:35.197Z</time></trkpt><trkpt lat="39.2160358" lon="9.0881819"><ele>2.6666666666666665</ele><time>2026-05-01T15:10:36.196Z</time></trkpt><trkpt lat="39.2158545" lon="9.0883384"><ele>2.333333333333333</ele><time>2026-05-01T15:10:37.197Z</time></trkpt><trkpt lat="39.2156734" lon="9.088496"><ele>2.0</ele><time>2026-05-01T15:10:38.196Z</time></trkpt><trkpt lat="39.215494" lon="9.088651"><ele>2.0</ele><time>2026-05-01T15:10:39.196Z</time></trkpt><trkpt lat="39.2153275" lon="9.0887978"><ele>2.0</ele><time>2026-05-01T15:10:40.196Z</time></trkpt><trkpt lat="39.2151774" lon="9.0889476"><ele>2.0</ele><time>2026-05-01T15:10:41.197Z</time></trkpt><trkpt lat="39.215046" lon="9.0891102"><ele>2.333333333333333</ele><time>2026-05-01T15:10:42.196Z</time></trkpt><trkpt lat="39.2149433" lon="9.0892849"><ele>2.6666666666666665</ele><time>2026-05-01T15:10:43.196Z</time></trkpt><trkpt lat="39.2148619" lon="9.0894679"><ele>3.0</ele><time>2026-05-01T15:10:44.196Z</time></trkpt><trkpt lat="39.214811" lon="9.0896599"><ele>2.6666666666666665</ele><time>2026-05-01T15:10:45.196Z</time></trkpt><trkpt lat="39.2147837" lon="9.0898564"><ele>2.333333333333333</ele><time>2026-05-01T15:10:46.197Z</time></trkpt><trkpt lat="39.2147817" lon="9.0900531"><ele>2.0</ele><time>2026-05-01T15:10:47.197Z</time></trkpt><trkpt lat="39.2148026" lon="9.0902476"><ele>2.333333333333333</ele><time>2026-05-01T15:10:48.197Z</time></trkpt><trkpt lat="39.2148415" lon="9.0904415"><ele>2.6666666666666665</ele><time>2026-05-01T15:10:49.197Z</time></trkpt><trkpt lat="39.2149039" lon="9.0906288"><ele>3.0</ele><time>2026-05-01T15:10:50.197Z</time></trkpt><trkpt lat="39.2149805" lon="9.0908162"><ele>2.0</ele><time>2026-05-01T15:10:51.197Z</time></trkpt><trkpt lat="39.2150643" lon="9.0910072"><ele>1.0</ele><time>2026-05-01T15:10:52.196Z</time></trkpt><trkpt lat="39.2151498" lon="9.091205"><ele>0.0</ele><time>2026-05-01T15:10:53.196Z</time></trkpt><trkpt lat="39.2152361" lon="9.0914076"><ele>0.0</ele><time>2026-05-01T15:10:54.196Z</time></trkpt><trkpt lat="39.2153232" lon="9.0916113"><ele>0.0</ele><time>2026-05-01T15:10:55.196Z</time></trkpt><trkpt lat="39.2154098" lon="9.0918178"><ele>0.0</ele><time>2026-05-01T15:10:56.196Z</time></trkpt><trkpt lat="39.2154986" lon="9.0920255"><ele>0.0</ele><time>2026-05-01T15:10:57.196Z</time></trkpt><trkpt lat="39.2155881" lon="9.0922319"><ele>0.0</ele><time>2026-05-01T15:10:58.197Z</time></trkpt><trkpt lat="39.2156764" lon="9.092439"><ele>0.0</ele><time>2026-05-01T15:10:59.197Z</time></trkpt><trkpt lat="39.2157663" lon="9.0926471"><ele>0.0</ele><time>2026-05-01T15:11:00.196Z</time></trkpt><trkpt lat="39.2158541" lon="9.0928516"><ele>0.0</ele><time>2026-05-01T15:11:01.197Z</time></trkpt><trkpt lat="39.215941" lon="9.093055"><ele>0.0</ele><time>2026-05-01T15:11:02.196Z</time></trkpt><trkpt lat="39.216026" lon="9.0932569"><ele>0.0</ele><time>2026-05-01T15:11:03.196Z</time></trkpt><trkpt lat="39.2161107" lon="9.0934576"><ele>0.0</ele><time>2026-05-01T15:11:04.196Z</time></trkpt><trkpt lat="39.2161959" lon="9.093656"><ele>0.0</ele><time>2026-05-01T15:11:05.197Z</time></trkpt><trkpt lat="39.21628" lon="9.0938515"><ele>0.0</ele><time>2026-05-01T15:11:06.196Z</time></trkpt><trkpt lat="39.2163584" lon="9.0940361"><ele>0.0</ele><time>2026-05-01T15:11:07.197Z</time></trkpt><trkpt lat="39.2164338" lon="9.0942112"><ele>0.0</ele><time>2026-05-01T15:11:08.197Z</time></trkpt><trkpt lat="39.2165043" lon="9.0943749"><ele>0.0</ele><time>2026-05-01T15:11:09.196Z</time></trkpt><trkpt lat="39.2165713" lon="9.0945332"><ele>0.0</ele><time>2026-05-01T15:11:10.196Z</time></trkpt><trkpt lat="39.2166379" lon="9.0946916"><ele>0.0</ele><time>2026-05-01T15:11:11.197Z</time></trkpt><trkpt lat="39.2167052" lon="9.0948516"><ele>0.0</ele><time>2026-05-01T15:11:12.196Z</time></trkpt><trkpt lat="39.2167727" lon="9.0950105"><ele>0.0</ele><time>2026-05-01T15:11:13.196Z</time></trkpt><trkpt lat="39.2168431" lon="9.0951793"><ele>0.0</ele><time>2026-05-01T15:11:14.197Z</time></trkpt><trkpt lat="39.2169156" lon="9.0953552"><ele>0.0</ele><time>2026-05-01T15:11:15.197Z</time></trkpt><trkpt lat="39.2169882" lon="9.0955438"><ele>0.0</ele><time>2026-05-01T15:11:16.197Z</time></trkpt><trkpt lat="39.2170586" lon="9.0957404"><ele>0.0</ele><time>2026-05-01T15:11:17.197Z</time></trkpt><trkpt lat="39.2171257" lon="9.0959439"><ele>0.0</ele><time>2026-05-01T15:11:18.196Z</time></trkpt><trkpt lat="39.2171825" lon="9.0961565"><ele>0.0</ele><time>2026-05-01T15:11:19.196Z</time></trkpt><trkpt lat="39.2172293" lon="9.0963764"><ele>0.0</ele><time>2026-05-01T15:11:20.197Z</time></trkpt><trkpt lat="39.2172622" lon="9.0966021"><ele>0.0</ele><time>2026-05-01T15:11:21.197Z</time></trkpt><trkpt lat="39.2172812" lon="9.0968325"><ele>0.0</ele><time>2026-05-01T15:11:22.197Z</time></trkpt><trkpt lat="39.2172839" lon="9.0970639"><ele>0.0</ele><time>2026-05-01T15:11:23.196Z</time></trkpt><trkpt lat="39.2172725" lon="9.0972978"><ele>0.0</ele><time>2026-05-01T15:11:24.197Z</time></trkpt><trkpt lat="39.2172487" lon="9.0975312"><ele>0.0</ele><time>2026-05-01T15:11:25.197Z</time></trkpt><trkpt lat="39.217211" lon="9.0977639"><ele>0.0</ele><time>2026-05-01T15:11:26.197Z</time></trkpt><trkpt lat="39.2171575" lon="9.0979939"><ele>0.0</ele><time>2026-05-01T15:11:27.196Z</time></trkpt><trkpt lat="39.2170901" lon="9.0982181"><ele>-0.3333333333333333</ele><time>2026-05-01T15:11:28.196Z</time></trkpt><trkpt lat="39.2170075" lon="9.0984352"><ele>-0.6666666666666666</ele><time>2026-05-01T15:11:29.196Z</time></trkpt><trkpt lat="39.2169108" lon="9.0986447"><ele>-1.0</ele><time>2026-05-01T15:11:30.197Z</time></trkpt><trkpt lat="39.2167997" lon="9.0988426"><ele>-1.0</ele><time>2026-05-01T15:11:31.196Z</time></trkpt><trkpt lat="39.216676" lon="9.0990299"><ele>-1.0</ele><time>2026-05-01T15:11:32.197Z</time></trkpt><trkpt lat="39.2165385" lon="9.0992052"><ele>-1.0</ele><time>2026-05-01T15:11:33.196Z</time></trkpt><trkpt lat="39.2163992" lon="9.0993566"><ele>0.0</ele><time>2026-05-01T15:11:34.196Z</time></trkpt><trkpt lat="39.2162539" lon="9.0994957"><ele>1.0</ele><time>2026-05-01T15:11:35.196Z</time></trkpt><trkpt lat="39.2161121" lon="9.0996238"><ele>2.0</ele><time>2026-05-01T15:11:36.196Z</time></trkpt><trkpt lat="39.2159675" lon="9.0997543"><ele>2.0</ele><time>2026-05-01T15:11:37.196Z</time></trkpt><trkpt lat="39.2158225" lon="9.0998866"><ele>2.0</ele><time>2026-05-01T15:11:38.196Z</time></trkpt><trkpt lat="39.2156764" lon="9.1000194"><ele>2.0</ele><time>2026-05-01T15:11:39.196Z</time></trkpt><trkpt lat="39.2155328" lon="9.100162"><ele>1.6666666666666665</ele><time>2026-05-01T15:11:40.196Z</time></trkpt><trkpt lat="39.2154011" lon="9.1003181"><ele>1.3333333333333333</ele><time>2026-05-01T15:11:41.196Z</time></trkpt><trkpt lat="39.2152871" lon="9.1004948"><ele>1.0</ele><time>2026-05-01T15:11:42.196Z</time></trkpt><trkpt lat="39.2151821" lon="9.10069"><ele>0.6666666666666666</ele><time>2026-05-01T15:11:43.196Z</time></trkpt><trkpt lat="39.2150885" lon="9.1008949"><ele>0.3333333333333333</ele><time>2026-05-01T15:11:44.196Z</time></trkpt><trkpt lat="39.2150154" lon="9.1011024"><ele>0.0</ele><time>2026-05-01T15:11:45.196Z</time></trkpt><trkpt lat="39.2149517" lon="9.1013059"><ele>0.0</ele><time>2026-05-01T15:11:46.197Z</time></trkpt><trkpt lat="39.2148942" lon="9.1015069"><ele>0.0</ele><time>2026-05-01T15:11:47.197Z</time></trkpt><trkpt lat="39.2148398" lon="9.1017018"><ele>0.0</ele><time>2026-05-01T15:11:48.197Z</time></trkpt><trkpt lat="39.2147894" lon="9.1018878"><ele>0.0</ele><time>2026-05-01T15:11:49.197Z</time></trkpt><trkpt lat="39.2147405" lon="9.1020697"><ele>0.0</ele><time>2026-05-01T15:11:50.196Z</time></trkpt><trkpt lat="39.2146954" lon="9.1022477"><ele>0.0</ele><time>2026-05-01T15:11:51.197Z</time></trkpt><trkpt lat="39.2146518" lon="9.1024233"><ele>0.0</ele><time>2026-05-01T15:11:52.197Z</time></trkpt><trkpt lat="39.2146118" lon="9.102596"><ele>0.0</ele><time>2026-05-01T15:11:53.196Z</time></trkpt><trkpt lat="39.214577" lon="9.1027671"><ele>0.0</ele><time>2026-05-01T15:11:54.196Z</time></trkpt><trkpt lat="39.2145421" lon="9.1029355"><ele>0.0</ele><time>2026-05-01T15:11:55.196Z</time></trkpt><trkpt lat="39.2145054" lon="9.1031063"><ele>0.0</ele><time>2026-05-01T15:11:56.197Z</time></trkpt><trkpt lat="39.2144649" lon="9.1032773"><ele>0.5</ele><time>2026-05-01T15:11:57.196Z</time></trkpt><trkpt lat="39.2144212" lon="9.1034491"><ele>1.0</ele><time>2026-05-01T15:11:58.196Z</time></trkpt><trkpt lat="39.2143763" lon="9.1036202"><ele>1.5</ele><time>2026-05-01T15:11:59.196Z</time></trkpt><trkpt lat="39.2143309" lon="9.1037823"><ele>2.0</ele><time>2026-05-01T15:12:00.197Z</time></trkpt><trkpt lat="39.2142891" lon="9.1039318"><ele>1.9999999999999998</ele><time>2026-05-01T15:12:01.196Z</time></trkpt><trkpt lat="39.2142528" lon="9.1040641"><ele>2.0</ele><time>2026-05-01T15:12:02.196Z</time></trkpt><trkpt lat="39.2142186" lon="9.1041863"><ele>2.0</ele><time>2026-05-01T15:12:03.197Z</time></trkpt><trkpt lat="39.2141883" lon="9.1042915"><ele>2.0</ele><time>2026-05-01T15:12:04.196Z</time></trkpt><trkpt lat="39.2141619" lon="9.1043838"><ele>1.9999999999999998</ele><time>2026-05-01T15:12:05.196Z</time></trkpt><trkpt lat="39.2141371" lon="9.1044637"><ele>2.0</ele><time>2026-05-01T15:12:06.197Z</time></trkpt><trkpt lat="39.2141007" lon="9.1046018"><ele>1.9999999999999998</ele><time>2026-05-01T15:12:08.197Z</time></trkpt><trkpt lat="39.2140702" lon="9.1047032"><ele>2.0</ele><time>2026-05-01T15:12:10.196Z</time></trkpt><trkpt lat="39.2140486" lon="9.1047816"><ele>2.0</ele><time>2026-05-01T15:12:12.197Z</time></trkpt><trkpt lat="39.2140338" lon="9.1048741"><ele>2.0</ele><time>2026-05-01T15:12:23.197Z</time></trkpt><trkpt lat="39.2140078" lon="9.1049664"><ele>1.9999999999999998</ele><time>2026-05-01T15:12:25.197Z</time></trkpt><trkpt lat="39.2139726" lon="9.1050966"><ele>2.0</ele><time>2026-05-01T15:12:27.197Z</time></trkpt><trkpt lat="39.2139308" lon="9.1052573"><ele>1.9999999999999998</ele><time>2026-05-01T15:12:29.196Z</time></trkpt><trkpt lat="39.2139054" lon="9.1053504"><ele>2.0</ele><time>2026-05-01T15:12:30.196Z</time></trkpt><trkpt lat="39.2138801" lon="9.1054401"><ele>2.0</ele><time>2026-05-01T15:12:31.197Z</time></trkpt><trkpt lat="39.213853" lon="9.1055337"><ele>2.0</ele><time>2026-05-01T15:12:32.197Z</time></trkpt><trkpt lat="39.2138245" lon="9.1056317"><ele>1.9999999999999998</ele><time>2026-05-01T15:12:33.196Z</time></trkpt><trkpt lat="39.2137943" lon="9.1057345"><ele>2.0</ele><time>2026-05-01T15:12:34.196Z</time></trkpt><trkpt lat="39.2137622" lon="9.1058427"><ele>2.0</ele><time>2026-05-01T15:12:35.197Z</time></trkpt><trkpt lat="39.2137308" lon="9.1059501"><ele>2.0</ele><time>2026-05-01T15:12:36.197Z</time></trkpt><trkpt lat="39.2137032" lon="9.1060586"><ele>2.0</ele><time>2026-05-01T15:12:37.197Z</time></trkpt><trkpt lat="39.2136832" lon="9.1061722"><ele>2.0</ele><time>2026-05-01T15:12:38.197Z</time></trkpt><trkpt lat="39.2136709" lon="9.1062878"><ele>2.0</ele><time>2026-05-01T15:12:39.196Z</time></trkpt><trkpt lat="39.2136625" lon="9.1064056"><ele>2.0</ele><time>2026-05-01T15:12:40.196Z</time></trkpt><trkpt lat="39.2136657" lon="9.1065226"><ele>2.0</ele><time>2026-05-01T15:12:41.197Z</time></trkpt><trkpt lat="39.213675" lon="9.1066408"><ele>2.0</ele><time>2026-05-01T15:12:42.197Z</time></trkpt><trkpt lat="39.2136885" lon="9.1067507"><ele>2.0</ele><time>2026-05-01T15:12:43.197Z</time></trkpt><trkpt lat="39.2137002" lon="9.1068521"><ele>2.0</ele><time>2026-05-01T15:12:44.196Z</time></trkpt><trkpt lat="39.2137154" lon="9.1069847"><ele>1.8333333333333333</ele><time>2026-05-01T15:12:46.197Z</time></trkpt><trkpt lat="39.2137247" lon="9.1070729"><ele>1.6666666666666665</ele><time>2026-05-01T15:12:48.197Z</time></trkpt><trkpt lat="39.2137335" lon="9.1071782"><ele>1.5</ele><time>2026-05-01T15:12:50.197Z</time></trkpt><trkpt lat="39.2137553" lon="9.1073272"><ele>1.3333333333333333</ele><time>2026-05-01T15:12:52.196Z</time></trkpt><trkpt lat="39.2137768" lon="9.1074121"><ele>1.1666666666666665</ele><time>2026-05-01T15:12:53.197Z</time></trkpt><trkpt lat="39.2138022" lon="9.1075022"><ele>1.0</ele><time>2026-05-01T15:12:54.197Z</time></trkpt><trkpt lat="39.2138291" lon="9.1075885"><ele>1.4</ele><time>2026-05-01T15:12:55.196Z</time></trkpt><trkpt lat="39.2138603" lon="9.1076736"><ele>1.8</ele><time>2026-05-01T15:12:56.196Z</time></trkpt><trkpt lat="39.2138987" lon="9.1077727"><ele>2.1999999999999997</ele><time>2026-05-01T15:12:57.196Z</time></trkpt><trkpt lat="39.213946" lon="9.1078899"><ele>2.6</ele><time>2026-05-01T15:12:58.196Z</time></trkpt><trkpt lat="39.2139954" lon="9.1080204"><ele>3.0</ele><time>2026-05-01T15:12:59.197Z</time></trkpt><trkpt lat="39.214048" lon="9.1081611"><ele>2.5</ele><time>2026-05-01T15:13:00.196Z</time></trkpt><trkpt lat="39.2140976" lon="9.1083033"><ele>2.0</ele><time>2026-05-01T15:13:01.197Z</time></trkpt><trkpt lat="39.2141498" lon="9.1084523"><ele>1.5</ele><time>2026-05-01T15:13:02.197Z</time></trkpt><trkpt lat="39.2142036" lon="9.1086058"><ele>1.0</ele><time>2026-05-01T15:13:03.196Z</time></trkpt><trkpt lat="39.2142547" lon="9.108758"><ele>1.0</ele><time>2026-05-01T15:13:04.196Z</time></trkpt><trkpt lat="39.2143011" lon="9.1089003"><ele>1.0</ele><time>2026-05-01T15:13:05.197Z</time></trkpt><trkpt lat="39.214342" lon="9.1090333"><ele>1.0</ele><time>2026-05-01T15:13:06.197Z</time></trkpt><trkpt lat="39.2143793" lon="9.1091554"><ele>1.0</ele><time>2026-05-01T15:13:07.197Z</time></trkpt><trkpt lat="39.2144149" lon="9.1092664"><ele>1.0</ele><time>2026-05-01T15:13:08.196Z</time></trkpt><trkpt lat="39.2144451" lon="9.1093676"><ele>0.8571428571428571</ele><time>2026-05-01T15:13:09.196Z</time></trkpt><trkpt lat="39.2144704" lon="9.109464"><ele>0.7142857142857142</ele><time>2026-05-01T15:13:10.196Z</time></trkpt><trkpt lat="39.2144916" lon="9.1095517"><ele>0.5714285714285714</ele><time>2026-05-01T15:13:11.197Z</time></trkpt><trkpt lat="39.2145063" lon="9.1096371"><ele>0.42857142857142855</ele><time>2026-05-01T15:13:12.196Z</time></trkpt><trkpt lat="39.2145171" lon="9.1097205"><ele>0.2857142857142857</ele><time>2026-05-01T15:13:13.197Z</time></trkpt><trkpt lat="39.2145226" lon="9.1098062"><ele>0.14285714285714285</ele><time>2026-05-01T15:13:14.197Z</time></trkpt><trkpt lat="39.2145241" lon="9.1098905"><ele>0.0</ele><time>2026-05-01T15:13:15.196Z</time></trkpt><trkpt lat="39.2145227" lon="9.1100353"><ele>0.6666666666666666</ele><time>2026-05-01T15:13:17.196Z</time></trkpt><trkpt lat="39.2145249" lon="9.1101427"><ele>1.3333333333333333</ele><time>2026-05-01T15:13:19.197Z</time></trkpt><trkpt lat="39.2145324" lon="9.1102322"><ele>2.0</ele><time>2026-05-01T15:13:21.196Z</time></trkpt><trkpt lat="39.214527" lon="9.1103218"><ele>2.6666666666666665</ele><time>2026-05-01T15:14:03.197Z</time></trkpt><trkpt lat="39.2145127" lon="9.1104136"><ele>3.333333333333333</ele><time>2026-05-01T15:14:05.197Z</time></trkpt><trkpt lat="39.2144742" lon="9.1105634"><ele>4.0</ele><time>2026-05-01T15:14:07.197Z</time></trkpt><trkpt lat="39.2144425" lon="9.1106423"><ele>3.9999999999999996</ele><time>2026-05-01T15:14:08.197Z</time></trkpt><trkpt lat="39.2144002" lon="9.110727"><ele>4.0</ele><time>2026-05-01T15:14:09.197Z</time></trkpt><trkpt lat="39.2143535" lon="9.110814"><ele>4.0</ele><time>2026-05-01T15:14:10.197Z</time></trkpt><trkpt lat="39.2143007" lon="9.1108991"><ele>4.0</ele><time>2026-05-01T15:14:11.197Z</time></trkpt><trkpt lat="39.2142482" lon="9.1109951"><ele>3.9999999999999996</ele><time>2026-05-01T15:14:12.196Z</time></trkpt><trkpt lat="39.2141944" lon="9.111094"><ele>4.0</ele><time>2026-05-01T15:14:13.197Z</time></trkpt><trkpt lat="39.2141384" lon="9.1111941"><ele>4.0</ele><time>2026-05-01T15:14:14.197Z</time></trkpt><trkpt lat="39.2140823" lon="9.1112963"><ele>4.0</ele><time>2026-05-01T15:14:15.197Z</time></trkpt><trkpt lat="39.2140253" lon="9.1113987"><ele>4.0</ele><time>2026-05-01T15:14:16.196Z</time></trkpt><trkpt lat="39.2139669" lon="9.1115017"><ele>4.0</ele><time>2026-05-01T15:14:17.196Z</time></trkpt><trkpt lat="39.2139077" lon="9.1116106"><ele>4.0</ele><time>2026-05-01T15:14:18.197Z</time></trkpt><trkpt lat="39.2138475" lon="9.1117186"><ele>3.6</ele><time>2026-05-01T15:14:19.197Z</time></trkpt><trkpt lat="39.2137916" lon="9.1118167"><ele>3.2</ele><time>2026-05-01T15:14:20.197Z</time></trkpt><trkpt lat="39.2137371" lon="9.1119161"><ele>2.8000000000000003</ele><time>2026-05-01T15:14:21.196Z</time></trkpt><trkpt lat="39.213681" lon="9.1120172"><ele>2.4000000000000004</ele><time>2026-05-01T15:14:22.196Z</time></trkpt><trkpt lat="39.2136276" lon="9.1121134"><ele>2.0</ele><time>2026-05-01T15:14:23.196Z</time></trkpt><trkpt lat="39.2135734" lon="9.1122121"><ele>1.9999999999999998</ele><time>2026-05-01T15:14:24.196Z</time></trkpt><trkpt lat="39.2135182" lon="9.1123086"><ele>2.0</ele><time>2026-05-01T15:14:25.196Z</time></trkpt><trkpt lat="39.213467" lon="9.1123987"><ele>2.0</ele><time>2026-05-01T15:14:26.197Z</time></trkpt><trkpt lat="39.2134136" lon="9.1124919"><ele>2.0</ele><time>2026-05-01T15:14:27.197Z</time></trkpt><trkpt lat="39.2133624" lon="9.1125844"><ele>1.9999999999999998</ele><time>2026-05-01T15:14:28.196Z</time></trkpt><trkpt lat="39.2133079" lon="9.1126792"><ele>2.0</ele><time>2026-05-01T15:14:29.197Z</time></trkpt><trkpt lat="39.2132534" lon="9.1127794"><ele>2.0</ele><time>2026-05-01T15:14:30.197Z</time></trkpt><trkpt lat="39.2131973" lon="9.1128838"><ele>2.0</ele><time>2026-05-01T15:14:31.197Z</time></trkpt><trkpt lat="39.2131377" lon="9.1129896"><ele>2.0</ele><time>2026-05-01T15:14:32.197Z</time></trkpt><trkpt lat="39.2130791" lon="9.1130946"><ele>2.0</ele><time>2026-05-01T15:14:33.196Z</time></trkpt><trkpt lat="39.2130211" lon="9.1131948"><ele>2.0</ele><time>2026-05-01T15:14:34.197Z</time></trkpt><trkpt lat="39.2129614" lon="9.1132965"><ele>2.1666666666666665</ele><time>2026-05-01T15:14:35.197Z</time></trkpt><trkpt lat="39.2129054" lon="9.1133977"><ele>2.333333333333333</ele><time>2026-05-01T15:14:36.197Z</time></trkpt><trkpt lat="39.2128541" lon="9.1134887"><ele>2.5</ele><time>2026-05-01T15:14:37.197Z</time></trkpt><trkpt lat="39.2128064" lon="9.1135767"><ele>2.6666666666666665</ele><time>2026-05-01T15:14:38.196Z</time></trkpt><trkpt lat="39.2127585" lon="9.1136692"><ele>2.8333333333333335</ele><time>2026-05-01T15:14:39.196Z</time></trkpt><trkpt lat="39.2127073" lon="9.1137605"><ele>3.0</ele><time>2026-05-01T15:14:40.197Z</time></trkpt><trkpt lat="39.2126577" lon="9.1138506"><ele>3.0</ele><time>2026-05-01T15:14:41.197Z</time></trkpt><trkpt lat="39.2126043" lon="9.1139441"><ele>3.0</ele><time>2026-05-01T15:14:42.196Z</time></trkpt><trkpt lat="39.2125543" lon="9.1140346"><ele>3.0</ele><time>2026-05-01T15:14:43.196Z</time></trkpt><trkpt lat="39.2125109" lon="9.1141193"><ele>3.0</ele><time>2026-05-01T15:14:44.196Z</time></trkpt><trkpt lat="39.2124762" lon="9.1141914"><ele>3.0</ele><time>2026-05-01T15:14:45.196Z</time></trkpt><trkpt lat="39.212418" lon="9.1143159"><ele>3.0</ele><time>2026-05-01T15:14:47.196Z</time></trkpt><trkpt lat="39.2123616" lon="9.1144304"><ele>2.4</ele><time>2026-05-01T15:14:49.196Z</time></trkpt><trkpt lat="39.2123126" lon="9.1145405"><ele>1.7999999999999998</ele><time>2026-05-01T15:14:51.197Z</time></trkpt><trkpt lat="39.2122675" lon="9.1146658"><ele>1.2</ele><time>2026-05-01T15:14:53.196Z</time></trkpt><trkpt lat="39.212231" lon="9.1147801"><ele>0.6</ele><time>2026-05-01T15:14:55.196Z</time></trkpt><trkpt lat="39.2121968" lon="9.1148923"><ele>0.0</ele><time>2026-05-01T15:14:57.197Z</time></trkpt><trkpt lat="39.2121693" lon="9.1149952"><ele>-0.2</ele><time>2026-05-01T15:14:59.196Z</time></trkpt><trkpt lat="39.2121352" lon="9.1151007"><ele>-0.4</ele><time>2026-05-01T15:15:01.196Z</time></trkpt><trkpt lat="39.2120981" lon="9.1152181"><ele>-0.6000000000000001</ele><time>2026-05-01T15:15:03.197Z</time></trkpt><trkpt lat="39.2120626" lon="9.1153418"><ele>-0.8</ele><time>2026-05-01T15:15:05.197Z</time></trkpt><trkpt lat="39.2120266" lon="9.1154654"><ele>-1.0</ele><time>2026-05-01T15:15:07.196Z</time></trkpt><trkpt lat="39.2119972" lon="9.1155657"><ele>-0.9999999999999999</ele><time>2026-05-01T15:15:09.197Z</time></trkpt><trkpt lat="39.211967" lon="9.1156769"><ele>-1.0</ele><time>2026-05-01T15:15:11.197Z</time></trkpt><trkpt lat="39.2119361" lon="9.1157699"><ele>-1.0</ele><time>2026-05-01T15:15:13.197Z</time></trkpt><trkpt lat="39.2118984" lon="9.1158404"><ele>-1.0</ele><time>2026-05-01T15:15:16.197Z</time></trkpt><trkpt lat="39.2118345" lon="9.1159029"><ele>-0.9999999999999999</ele><time>2026-05-01T15:15:20.196Z</time></trkpt><trkpt lat="39.2117358" lon="9.1159336"><ele>-1.0</ele><time>2026-05-01T15:15:22.196Z</time></trkpt><trkpt lat="39.2116719" lon="9.1159353"><ele>-0.2857142857142857</ele><time>2026-05-01T15:15:23.197Z</time></trkpt><trkpt lat="39.211601" lon="9.1159171"><ele>0.4285714285714286</ele><time>2026-05-01T15:15:24.196Z</time></trkpt><trkpt lat="39.2115277" lon="9.1158864"><ele>1.1428571428571428</ele><time>2026-05-01T15:15:25.196Z</time></trkpt><trkpt lat="39.2114542" lon="9.1158393"><ele>1.857142857142857</ele><time>2026-05-01T15:15:26.196Z</time></trkpt><trkpt lat="39.211385" lon="9.1157972"><ele>2.571428571428571</ele><time>2026-05-01T15:15:27.197Z</time></trkpt><trkpt lat="39.2113166" lon="9.1157679"><ele>3.2857142857142856</ele><time>2026-05-01T15:15:28.196Z</time></trkpt><trkpt lat="39.2112492" lon="9.1157511"><ele>4.0</ele><time>2026-05-01T15:15:29.197Z</time></trkpt><trkpt lat="39.2111862" lon="9.1157463"><ele>3.9999999999999996</ele><time>2026-05-01T15:15:30.197Z</time></trkpt><trkpt lat="39.2110726" lon="9.1157593"><ele>4.0</ele><time>2026-05-01T15:15:32.196Z</time></trkpt><trkpt lat="39.2109873" lon="9.1157683"><ele>4.0</ele><time>2026-05-01T15:15:34.197Z</time></trkpt><trkpt lat="39.2109218" lon="9.1157773"><ele>4.0</ele><time>2026-05-01T15:15:36.197Z</time></trkpt><trkpt lat="39.2108318" lon="9.1157751"><ele>3.9999999999999996</ele><time>2026-05-01T15:15:39.196Z</time></trkpt><trkpt lat="39.210744" lon="9.1157567"><ele>4.0</ele><time>2026-05-01T15:15:52.196Z</time></trkpt><trkpt lat="39.2106336" lon="9.1157503"><ele>4.0</ele><time>2026-05-01T15:15:54.197Z</time></trkpt><trkpt lat="39.210533" lon="9.115811"><ele>4.0</ele><time>2026-05-01T15:15:56.196Z</time></trkpt><trkpt lat="39.2104639" lon="9.1159488"><ele>4.0</ele><time>2026-05-01T15:15:58.197Z</time></trkpt><trkpt lat="39.2104349" lon="9.1160366"><ele>4.0</ele><time>2026-05-01T15:15:59.197Z</time></trkpt><trkpt lat="39.2103986" lon="9.116128"><ele>4.0</ele><time>2026-05-01T15:16:00.197Z</time></trkpt><trkpt lat="39.2103586" lon="9.1162284"><ele>4.0</ele><time>2026-05-01T15:16:01.177Z</time></trkpt><trkpt lat="39.2103187" lon="9.1163283"><ele>4.0</ele><time>2026-05-01T15:16:02.178Z</time></trkpt><trkpt lat="39.2102809" lon="9.1164264"><ele>4.0</ele><time>2026-05-01T15:16:03.177Z</time></trkpt><trkpt lat="39.2102378" lon="9.1165361"><ele>4.0</ele><time>2026-05-01T15:16:04.178Z</time></trkpt><trkpt lat="39.210196" lon="9.1166441"><ele>4.0</ele><time>2026-05-01T15:16:05.174Z</time></trkpt><trkpt lat="39.210152" lon="9.1167502"><ele>4.4</ele><time>2026-05-01T15:16:06.197Z</time></trkpt><trkpt lat="39.2101046" lon="9.1168673"><ele>4.800000000000001</ele><time>2026-05-01T15:16:07.197Z</time></trkpt><trkpt lat="39.2100587" lon="9.1169878"><ele>5.199999999999999</ele><time>2026-05-01T15:16:08.196Z</time></trkpt><trkpt lat="39.2100107" lon="9.1171079"><ele>5.6</ele><time>2026-05-01T15:16:09.197Z</time></trkpt><trkpt lat="39.2099604" lon="9.1172326"><ele>6.0</ele><time>2026-05-01T15:16:10.196Z</time></trkpt><trkpt lat="39.2099113" lon="9.117362"><ele>5.3999999999999995</ele><time>2026-05-01T15:16:11.197Z</time></trkpt><trkpt lat="39.2098567" lon="9.1174947"><ele>4.8</ele><time>2026-05-01T15:16:12.196Z</time></trkpt><trkpt lat="39.2098061" lon="9.1176211"><ele>4.199999999999999</ele><time>2026-05-01T15:16:13.197Z</time></trkpt><trkpt lat="39.2097558" lon="9.1177513"><ele>3.5999999999999996</ele><time>2026-05-01T15:16:14.197Z</time></trkpt><trkpt lat="39.2097102" lon="9.1178686"><ele>3.0</ele><time>2026-05-01T15:16:15.196Z</time></trkpt><trkpt lat="39.2096647" lon="9.1179854"><ele>2.8</ele><time>2026-05-01T15:16:16.196Z</time></trkpt><trkpt lat="39.209619" lon="9.1181077"><ele>2.5999999999999996</ele><time>2026-05-01T15:16:17.197Z</time></trkpt><trkpt lat="39.2095713" lon="9.1182295"><ele>2.4000000000000004</ele><time>2026-05-01T15:16:18.197Z</time></trkpt><trkpt lat="39.2095272" lon="9.1183503"><ele>2.2</ele><time>2026-05-01T15:16:19.196Z</time></trkpt><trkpt lat="39.2094825" lon="9.1184759"><ele>2.0</ele><time>2026-05-01T15:16:20.197Z</time></trkpt><trkpt lat="39.2094345" lon="9.1186018"><ele>2.25</ele><time>2026-05-01T15:16:21.197Z</time></trkpt><trkpt lat="39.2093822" lon="9.1187302"><ele>2.5</ele><time>2026-05-01T15:16:22.196Z</time></trkpt><trkpt lat="39.2093279" lon="9.1188606"><ele>2.75</ele><time>2026-05-01T15:16:23.197Z</time></trkpt><trkpt lat="39.2092765" lon="9.1189935"><ele>3.0</ele><time>2026-05-01T15:16:24.196Z</time></trkpt><trkpt lat="39.2092195" lon="9.119131"><ele>3.0</ele><time>2026-05-01T15:16:25.176Z</time></trkpt><trkpt lat="39.2091698" lon="9.1192565"><ele>3.0</ele><time>2026-05-01T15:16:26.176Z</time></trkpt><trkpt lat="39.2091204" lon="9.1193812"><ele>3.0</ele><time>2026-05-01T15:16:27.175Z</time></trkpt><trkpt lat="39.209068" lon="9.1195092"><ele>3.0</ele><time>2026-05-01T15:16:28.176Z</time></trkpt><trkpt lat="39.2090156" lon="9.1196332"><ele>3.0</ele><time>2026-05-01T15:16:29.175Z</time></trkpt><trkpt lat="39.2089663" lon="9.1197573"><ele>2.8333333333333335</ele><time>2026-05-01T15:16:30.175Z</time></trkpt><trkpt lat="39.2089205" lon="9.1198765"><ele>2.6666666666666665</ele><time>2026-05-01T15:16:31.174Z</time></trkpt><trkpt lat="39.2088803" lon="9.1199778"><ele>2.5</ele><time>2026-05-01T15:16:32.175Z</time></trkpt><trkpt lat="39.2088483" lon="9.1200554"><ele>2.333333333333333</ele><time>2026-05-01T15:16:33.175Z</time></trkpt><trkpt lat="39.2088125" lon="9.1201469"><ele>2.1666666666666665</ele><time>2026-05-01T15:16:35.175Z</time></trkpt><trkpt lat="39.2087807" lon="9.1202295"><ele>2.0</ele><time>2026-05-01T15:16:56.174Z</time></trkpt><trkpt lat="39.2087116" lon="9.1204013"><ele>2.4000000000000004</ele><time>2026-05-01T15:16:58.175Z</time></trkpt><trkpt lat="39.2086659" lon="9.1205197"><ele>2.8000000000000003</ele><time>2026-05-01T15:16:59.175Z</time></trkpt><trkpt lat="39.2086196" lon="9.1206393"><ele>3.2</ele><time>2026-05-01T15:17:00.175Z</time></trkpt><trkpt lat="39.2085748" lon="9.120753"><ele>3.6</ele><time>2026-05-01T15:17:01.175Z</time></trkpt><trkpt lat="39.2085301" lon="9.1208574"><ele>4.0</ele><time>2026-05-01T15:17:02.174Z</time></trkpt><trkpt lat="39.2084857" lon="9.120953"><ele>4.333333333333333</ele><time>2026-05-01T15:17:03.174Z</time></trkpt><trkpt lat="39.2084399" lon="9.1210389"><ele>4.666666666666666</ele><time>2026-05-01T15:17:04.174Z</time></trkpt><trkpt lat="39.2083864" lon="9.1211374"><ele>5.0</ele><time>2026-05-01T15:17:05.197Z</time></trkpt><trkpt lat="39.2083341" lon="9.1212225"><ele>5.333333333333333</ele><time>2026-05-01T15:17:06.196Z</time></trkpt><trkpt lat="39.2082835" lon="9.1213043"><ele>5.666666666666667</ele><time>2026-05-01T15:17:07.196Z</time></trkpt><trkpt lat="39.2082318" lon="9.1213856"><ele>6.0</ele><time>2026-05-01T15:17:08.196Z</time></trkpt><trkpt lat="39.2081805" lon="9.1214669"><ele>5.166666666666667</ele><time>2026-05-01T15:17:09.197Z</time></trkpt><trkpt lat="39.2081263" lon="9.1215495"><ele>4.333333333333333</ele><time>2026-05-01T15:17:10.197Z</time></trkpt><trkpt lat="39.208072" lon="9.1216315"><ele>3.5</ele><time>2026-05-01T15:17:11.196Z</time></trkpt><trkpt lat="39.2080213" lon="9.1217149"><ele>2.6666666666666665</ele><time>2026-05-01T15:17:12.196Z</time></trkpt><trkpt lat="39.20797" lon="9.1218039"><ele>1.8333333333333333</ele><time>2026-05-01T15:17:13.177Z</time></trkpt><trkpt lat="39.2079181" lon="9.1218871"><ele>1.0</ele><time>2026-05-01T15:17:14.176Z</time></trkpt><trkpt lat="39.2078663" lon="9.1219688"><ele>0.9999999999999999</ele><time>2026-05-01T15:17:15.176Z</time></trkpt><trkpt lat="39.2078106" lon="9.1220556"><ele>1.0</ele><time>2026-05-01T15:17:16.175Z</time></trkpt><trkpt lat="39.2077577" lon="9.1221395"><ele>1.0</ele><time>2026-05-01T15:17:17.177Z</time></trkpt><trkpt lat="39.2077054" lon="9.1222233"><ele>1.0</ele><time>2026-05-01T15:17:18.177Z</time></trkpt><trkpt lat="39.2076513" lon="9.1223101"><ele>0.9999999999999999</ele><time>2026-05-01T15:17:19.177Z</time></trkpt><trkpt lat="39.2075966" lon="9.1223966"><ele>1.0</ele><time>2026-05-01T15:17:20.176Z</time></trkpt><trkpt lat="39.2075414" lon="9.1224833"><ele>1.1666666666666665</ele><time>2026-05-01T15:17:21.177Z</time></trkpt><trkpt lat="39.2074916" lon="9.1225598"><ele>1.3333333333333333</ele><time>2026-05-01T15:17:22.177Z</time></trkpt><trkpt lat="39.2074428" lon="9.1226363"><ele>1.5</ele><time>2026-05-01T15:17:23.176Z</time></trkpt><trkpt lat="39.2073961" lon="9.1227112"><ele>1.6666666666666665</ele><time>2026-05-01T15:17:24.176Z</time></trkpt><trkpt lat="39.2073533" lon="9.1227769"><ele>1.8333333333333333</ele><time>2026-05-01T15:17:25.177Z</time></trkpt><trkpt lat="39.20728" lon="9.1228908"><ele>2.0</ele><time>2026-05-01T15:17:27.176Z</time></trkpt><trkpt lat="39.2072212" lon="9.1229814"><ele>2.0</ele><time>2026-05-01T15:17:29.176Z</time></trkpt><trkpt lat="39.2071679" lon="9.1230684"><ele>2.0</ele><time>2026-05-01T15:17:32.176Z</time></trkpt><trkpt lat="39.2071111" lon="9.123157"><ele>2.0</ele><time>2026-05-01T15:17:35.177Z</time></trkpt><trkpt lat="39.207048" lon="9.1232603"><ele>2.0</ele><time>2026-05-01T15:17:37.176Z</time></trkpt><trkpt lat="39.2069617" lon="9.1233928"><ele>2.0</ele><time>2026-05-01T15:17:39.176Z</time></trkpt><trkpt lat="39.2069086" lon="9.1234747"><ele>1.9999999999999998</ele><time>2026-05-01T15:17:40.176Z</time></trkpt><trkpt lat="39.2068595" lon="9.1235496"><ele>2.0</ele><time>2026-05-01T15:17:41.177Z</time></trkpt><trkpt lat="39.2068134" lon="9.1236197"><ele>2.0</ele><time>2026-05-01T15:17:42.176Z</time></trkpt><trkpt lat="39.2067678" lon="9.1236912"><ele>2.0</ele><time>2026-05-01T15:17:43.176Z</time></trkpt><trkpt lat="39.2067233" lon="9.1237618"><ele>1.9999999999999998</ele><time>2026-05-01T15:17:44.177Z</time></trkpt><trkpt lat="39.2066782" lon="9.123833"><ele>2.0</ele><time>2026-05-01T15:17:45.176Z</time></trkpt><trkpt lat="39.2065986" lon="9.1239571"><ele>2.0</ele><time>2026-05-01T15:17:47.176Z</time></trkpt><trkpt lat="39.2065563" lon="9.1240217"><ele>1.9999999999999998</ele><time>2026-05-01T15:17:48.177Z</time></trkpt><trkpt lat="39.2065125" lon="9.1240891"><ele>2.0</ele><time>2026-05-01T15:17:49.177Z</time></trkpt><trkpt lat="39.206467" lon="9.1241608"><ele>2.0</ele><time>2026-05-01T15:17:50.177Z</time></trkpt><trkpt lat="39.2064202" lon="9.1242352"><ele>1.9999999999999998</ele><time>2026-05-01T15:17:51.177Z</time></trkpt><trkpt lat="39.2063704" lon="9.1243142"><ele>2.0</ele><time>2026-05-01T15:17:52.176Z</time></trkpt><trkpt lat="39.2063181" lon="9.1243959"><ele>2.0</ele><time>2026-05-01T15:17:53.176Z</time></trkpt><trkpt lat="39.2062688" lon="9.1244736"><ele>1.8</ele><time>2026-05-01T15:17:54.177Z</time></trkpt><trkpt lat="39.2062165" lon="9.124556"><ele>1.6</ele><time>2026-05-01T15:17:55.177Z</time></trkpt><trkpt lat="39.2061585" lon="9.1246466"><ele>1.4000000000000001</ele><time>2026-05-01T15:17:56.177Z</time></trkpt><trkpt lat="39.2060961" lon="9.1247438"><ele>1.2000000000000002</ele><time>2026-05-01T15:17:57.176Z</time></trkpt><trkpt lat="39.2060296" lon="9.1248472"><ele>1.0</ele><time>2026-05-01T15:17:58.177Z</time></trkpt><trkpt lat="39.205956" lon="9.1249631"><ele>1.0</ele><time>2026-05-01T15:17:59.176Z</time></trkpt><trkpt lat="39.205879" lon="9.1250851"><ele>1.0</ele><time>2026-05-01T15:18:00.177Z</time></trkpt><trkpt lat="39.2058006" lon="9.1252093"><ele>1.0</ele><time>2026-05-01T15:18:01.177Z</time></trkpt><trkpt lat="39.2057287" lon="9.1253242"><ele>1.0</ele><time>2026-05-01T15:18:02.177Z</time></trkpt><trkpt lat="39.2056537" lon="9.1254453"><ele>1.0</ele><time>2026-05-01T15:18:03.176Z</time></trkpt><trkpt lat="39.2055705" lon="9.1255671"><ele>1.0</ele><time>2026-05-01T15:18:04.196Z</time></trkpt><trkpt lat="39.2054911" lon="9.1256935"><ele>1.0</ele><time>2026-05-01T15:18:05.196Z</time></trkpt><trkpt lat="39.2054116" lon="9.1258222"><ele>1.0</ele><time>2026-05-01T15:18:06.197Z</time></trkpt><trkpt lat="39.2053276" lon="9.1259543"><ele>1.75</ele><time>2026-05-01T15:18:07.196Z</time></trkpt><trkpt lat="39.2052403" lon="9.126087"><ele>2.5</ele><time>2026-05-01T15:18:08.196Z</time></trkpt><trkpt lat="39.2051541" lon="9.1262231"><ele>3.25</ele><time>2026-05-01T15:18:09.196Z</time></trkpt><trkpt lat="39.2050659" lon="9.1263602"><ele>4.0</ele><time>2026-05-01T15:18:10.196Z</time></trkpt><trkpt lat="39.204981" lon="9.1264973"><ele>4.25</ele><time>2026-05-01T15:18:11.196Z</time></trkpt><trkpt lat="39.2048983" lon="9.1266304"><ele>4.5</ele><time>2026-05-01T15:18:12.196Z</time></trkpt><trkpt lat="39.2048144" lon="9.1267645"><ele>4.75</ele><time>2026-05-01T15:18:13.196Z</time></trkpt><trkpt lat="39.2047306" lon="9.1269001"><ele>5.0</ele><time>2026-05-01T15:18:14.197Z</time></trkpt><trkpt lat="39.204647" lon="9.1270396"><ele>4.75</ele><time>2026-05-01T15:18:15.196Z</time></trkpt><trkpt lat="39.2045616" lon="9.1271844"><ele>4.5</ele><time>2026-05-01T15:18:16.197Z</time></trkpt><trkpt lat="39.2044723" lon="9.127333"><ele>4.25</ele><time>2026-05-01T15:18:17.197Z</time></trkpt><trkpt lat="39.2043762" lon="9.1274842"><ele>4.0</ele><time>2026-05-01T15:18:18.197Z</time></trkpt><trkpt lat="39.2042782" lon="9.1276439"><ele>4.0</ele><time>2026-05-01T15:18:19.197Z</time></trkpt><trkpt lat="39.2041746" lon="9.1278079"><ele>4.0</ele><time>2026-05-01T15:18:20.197Z</time></trkpt><trkpt lat="39.2040652" lon="9.1279787"><ele>4.0</ele><time>2026-05-01T15:18:21.197Z</time></trkpt><trkpt lat="39.2039512" lon="9.1281542"><ele>2.333333333333333</ele><time>2026-05-01T15:18:22.196Z</time></trkpt><trkpt lat="39.2038323" lon="9.1283371"><ele>0.6666666666666666</ele><time>2026-05-01T15:18:23.196Z</time></trkpt><trkpt lat="39.2037063" lon="9.1285229"><ele>-1.0</ele><time>2026-05-01T15:18:24.196Z</time></trkpt><trkpt lat="39.2035811" lon="9.1287125"><ele>-1.0</ele><time>2026-05-01T15:18:25.196Z</time></trkpt><trkpt lat="39.2034613" lon="9.1289067"><ele>-1.0</ele><time>2026-05-01T15:18:26.197Z</time></trkpt><trkpt lat="39.2033499" lon="9.129106"><ele>-1.0</ele><time>2026-05-01T15:18:27.196Z</time></trkpt><trkpt lat="39.203239" lon="9.1293058"><ele>-0.3333333333333333</ele><time>2026-05-01T15:18:28.197Z</time></trkpt><trkpt lat="39.2031284" lon="9.129505"><ele>0.3333333333333333</ele><time>2026-05-01T15:18:29.197Z</time></trkpt><trkpt lat="39.2030182" lon="9.129703"><ele>1.0</ele><time>2026-05-01T15:18:30.197Z</time></trkpt><trkpt lat="39.2029126" lon="9.1298913"><ele>0.6666666666666666</ele><time>2026-05-01T15:18:31.197Z</time></trkpt><trkpt lat="39.2028089" lon="9.1300776"><ele>0.3333333333333333</ele><time>2026-05-01T15:18:32.196Z</time></trkpt><trkpt lat="39.2027072" lon="9.1302623"><ele>0.0</ele><time>2026-05-01T15:18:33.196Z</time></trkpt><trkpt lat="39.2026051" lon="9.1304445"><ele>0.0</ele><time>2026-05-01T15:18:34.196Z</time></trkpt><trkpt lat="39.2025045" lon="9.1306217"><ele>0.0</ele><time>2026-05-01T15:18:35.197Z</time></trkpt><trkpt lat="39.2024038" lon="9.130789"><ele>0.0</ele><time>2026-05-01T15:18:36.196Z</time></trkpt><trkpt lat="39.202298" lon="9.1309406"><ele>0.0</ele><time>2026-05-01T15:18:37.196Z</time></trkpt><trkpt lat="39.2021902" lon="9.1310806"><ele>0.0</ele><time>2026-05-01T15:18:38.197Z</time></trkpt><trkpt lat="39.2020758" lon="9.1312088"><ele>0.0</ele><time>2026-05-01T15:18:39.196Z</time></trkpt><trkpt lat="39.2019567" lon="9.1313277"><ele>0.0</ele><time>2026-05-01T15:18:40.197Z</time></trkpt><trkpt lat="39.2018328" lon="9.1314388"><ele>0.0</ele><time>2026-05-01T15:18:41.197Z</time></trkpt><trkpt lat="39.2017037" lon="9.131539"><ele>0.0</ele><time>2026-05-01T15:18:42.196Z</time></trkpt><trkpt lat="39.2015694" lon="9.1316325"><ele>0.3333333333333333</ele><time>2026-05-01T15:18:43.197Z</time></trkpt><trkpt lat="39.2014282" lon="9.1317169"><ele>0.6666666666666666</ele><time>2026-05-01T15:18:44.196Z</time></trkpt><trkpt lat="39.20128" lon="9.1317931"><ele>1.0</ele><time>2026-05-01T15:18:45.197Z</time></trkpt><trkpt lat="39.2011265" lon="9.1318603"><ele>1.0</ele><time>2026-05-01T15:18:46.197Z</time></trkpt><trkpt lat="39.2009682" lon="9.1319138"><ele>1.0</ele><time>2026-05-01T15:18:47.197Z</time></trkpt><trkpt lat="39.2008033" lon="9.1319548"><ele>1.0</ele><time>2026-05-01T15:18:48.196Z</time></trkpt><trkpt lat="39.2006314" lon="9.1319881"><ele>0.0</ele><time>2026-05-01T15:18:49.197Z</time></trkpt><trkpt lat="39.2004609" lon="9.1320167"><ele>-1.0</ele><time>2026-05-01T15:18:50.196Z</time></trkpt><trkpt lat="39.2002928" lon="9.1320457"><ele>-2.0</ele><time>2026-05-01T15:18:51.196Z</time></trkpt><trkpt lat="39.2001221" lon="9.1320743"><ele>-2.0</ele><time>2026-05-01T15:18:52.197Z</time></trkpt><trkpt lat="39.199949" lon="9.132104"><ele>-2.0</ele><time>2026-05-01T15:18:53.196Z</time></trkpt><trkpt lat="39.1997723" lon="9.1321343"><ele>-2.0</ele><time>2026-05-01T15:18:54.197Z</time></trkpt><trkpt lat="39.1995947" lon="9.1321649"><ele>-1.3333333333333333</ele><time>2026-05-01T15:18:55.197Z</time></trkpt><trkpt lat="39.1994163" lon="9.1321957"><ele>-0.6666666666666666</ele><time>2026-05-01T15:18:56.196Z</time></trkpt><trkpt lat="39.1992357" lon="9.1322273"><ele>0.0</ele><time>2026-05-01T15:18:57.196Z</time></trkpt><trkpt lat="39.1990539" lon="9.1322594"><ele>0.0</ele><time>2026-05-01T15:18:58.197Z</time></trkpt><trkpt lat="39.1988711" lon="9.1322944"><ele>0.0</ele><time>2026-05-01T15:18:59.196Z</time></trkpt><trkpt lat="39.1986897" lon="9.13234"><ele>0.0</ele><time>2026-05-01T15:19:00.197Z</time></trkpt><trkpt lat="39.1985103" lon="9.1324003"><ele>-0.6666666666666666</ele><time>2026-05-01T15:19:01.197Z</time></trkpt><trkpt lat="39.1983321" lon="9.1324732"><ele>-1.3333333333333333</ele><time>2026-05-01T15:19:02.196Z</time></trkpt><trkpt lat="39.1981605" lon="9.1325669"><ele>-2.0</ele><time>2026-05-01T15:19:03.196Z</time></trkpt><trkpt lat="39.1980037" lon="9.1326786"><ele>-2.0</ele><time>2026-05-01T15:19:04.197Z</time></trkpt><trkpt lat="39.1978678" lon="9.1328143"><ele>-2.0</ele><time>2026-05-01T15:19:05.197Z</time></trkpt><trkpt lat="39.197749" lon="9.1329741"><ele>-2.0</ele><time>2026-05-01T15:19:06.197Z</time></trkpt><trkpt lat="39.1976453" lon="9.1331489"><ele>-1.6666666666666665</ele><time>2026-05-01T15:19:07.197Z</time></trkpt><trkpt lat="39.1975569" lon="9.1333384"><ele>-1.3333333333333333</ele><time>2026-05-01T15:19:08.197Z</time></trkpt><trkpt lat="39.1974863" lon="9.1335426"><ele>-1.0</ele><time>2026-05-01T15:19:09.196Z</time></trkpt><trkpt lat="39.1974377" lon="9.1337562"><ele>-1.0</ele><time>2026-05-01T15:19:10.196Z</time></trkpt><trkpt lat="39.1974076" lon="9.1339761"><ele>-1.0</ele><time>2026-05-01T15:19:11.196Z</time></trkpt><trkpt lat="39.1973945" lon="9.1341994"><ele>-1.0</ele><time>2026-05-01T15:19:12.197Z</time></trkpt><trkpt lat="39.1973976" lon="9.1344245"><ele>-0.6666666666666666</ele><time>2026-05-01T15:19:13.196Z</time></trkpt><trkpt lat="39.197412" lon="9.1346529"><ele>-0.3333333333333333</ele><time>2026-05-01T15:19:14.197Z</time></trkpt><trkpt lat="39.1974329" lon="9.1348836"><ele>0.0</ele><time>2026-05-01T15:19:15.196Z</time></trkpt><trkpt lat="39.1974555" lon="9.135104"><ele>0.5</ele><time>2026-05-01T15:19:16.197Z</time></trkpt><trkpt lat="39.1974593" lon="9.1352787"><ele>1.0</ele><time>2026-05-01T15:19:17.197Z</time></trkpt><trkpt lat="39.1974519" lon="9.1354377"><ele>1.5</ele><time>2026-05-01T15:19:18.197Z</time></trkpt><trkpt lat="39.1974462" lon="9.135579"><ele>2.0</ele><time>2026-05-01T15:19:19.197Z</time></trkpt><trkpt lat="39.1974483" lon="9.1357365"><ele>2.25</ele><time>2026-05-01T15:19:20.197Z</time></trkpt><trkpt lat="39.1974539" lon="9.1358992"><ele>2.5</ele><time>2026-05-01T15:19:21.197Z</time></trkpt><trkpt lat="39.1974622" lon="9.1360684"><ele>2.75</ele><time>2026-05-01T15:19:22.197Z</time></trkpt><trkpt lat="39.1974714" lon="9.1362477"><ele>3.0</ele><time>2026-05-01T15:19:23.196Z</time></trkpt><trkpt lat="39.1974825" lon="9.1364388"><ele>2.75</ele><time>2026-05-01T15:19:24.196Z</time></trkpt><trkpt lat="39.1974948" lon="9.1366186"><ele>2.5</ele><time>2026-05-01T15:19:25.197Z</time></trkpt><trkpt lat="39.1975065" lon="9.1367883"><ele>2.25</ele><time>2026-05-01T15:19:26.196Z</time></trkpt><trkpt lat="39.1975185" lon="9.1369557"><ele>2.0</ele><time>2026-05-01T15:19:27.197Z</time></trkpt><trkpt lat="39.1975294" lon="9.1371029"><ele>1.9999999999999998</ele><time>2026-05-01T15:19:28.196Z</time></trkpt><trkpt lat="39.1975383" lon="9.137233"><ele>2.0</ele><time>2026-05-01T15:19:29.197Z</time></trkpt><trkpt lat="39.1975434" lon="9.1373542"><ele>2.0</ele><time>2026-05-01T15:19:30.196Z</time></trkpt><trkpt lat="39.1975416" lon="9.1374657"><ele>2.0</ele><time>2026-05-01T15:19:31.197Z</time></trkpt><trkpt lat="39.1975229" lon="9.1375709"><ele>1.9999999999999998</ele><time>2026-05-01T15:19:32.197Z</time></trkpt><trkpt lat="39.1974916" lon="9.1376654"><ele>2.0</ele><time>2026-05-01T15:19:33.197Z</time></trkpt><trkpt lat="39.1974518" lon="9.1377476"><ele>2.6</ele><time>2026-05-01T15:19:34.197Z</time></trkpt><trkpt lat="39.1974674" lon="9.1378858"><ele>3.2</ele><time>2026-05-01T15:19:36.197Z</time></trkpt><trkpt lat="39.1975674" lon="9.1379673"><ele>3.8</ele><time>2026-05-01T15:19:38.196Z</time></trkpt><trkpt lat="39.1976373" lon="9.1380111"><ele>4.4</ele><time>2026-05-01T15:19:39.197Z</time></trkpt><trkpt lat="39.1977219" lon="9.1380574"><ele>5.0</ele><time>2026-05-01T15:19:40.196Z</time></trkpt><trkpt lat="39.1978093" lon="9.1380946"><ele>5.0</ele><time>2026-05-01T15:19:41.196Z</time></trkpt><trkpt lat="39.1979028" lon="9.1381331"><ele>5.0</ele><time>2026-05-01T15:19:42.197Z</time></trkpt><trkpt lat="39.197994" lon="9.1381738"><ele>5.0</ele><time>2026-05-01T15:19:43.197Z</time></trkpt><trkpt lat="39.1980666" lon="9.1381943"><ele>5.0</ele><time>2026-05-01T15:19:44.196Z</time></trkpt><trkpt lat="39.198127" lon="9.1382413"><ele>5.0</ele><time>2026-05-01T15:19:45.196Z</time></trkpt><trkpt lat="39.1981809" lon="9.138308"><ele>5.0</ele><time>2026-05-01T15:19:46.197Z</time></trkpt><trkpt lat="39.1982283" lon="9.1383883"><ele>4.666666666666667</ele><time>2026-05-01T15:19:47.196Z</time></trkpt><trkpt lat="39.1982708" lon="9.1384709"><ele>4.333333333333334</ele><time>2026-05-01T15:19:48.197Z</time></trkpt><trkpt lat="39.1983114" lon="9.1385382"><ele>4.0</ele><time>2026-05-01T15:19:49.196Z</time></trkpt><trkpt lat="39.1983951" lon="9.1386032"><ele>3.666666666666667</ele><time>2026-05-01T15:19:51.197Z</time></trkpt><trkpt lat="39.198517" lon="9.1386423"><ele>3.3333333333333335</ele><time>2026-05-01T15:19:53.197Z</time></trkpt><trkpt lat="39.198592" lon="9.1386435"><ele>3.0</ele><time>2026-05-01T15:19:54.197Z</time></trkpt><trkpt lat="39.1986725" lon="9.1386348"><ele>3.0</ele><time>2026-05-01T15:19:55.197Z</time></trkpt><trkpt lat="39.1987615" lon="9.1386195"><ele>3.0</ele><time>2026-05-01T15:19:56.197Z</time></trkpt><trkpt lat="39.1988594" lon="9.1385981"><ele>3.0</ele><time>2026-05-01T15:19:57.197Z</time></trkpt><trkpt lat="39.1989615" lon="9.1385758"><ele>3.0</ele><time>2026-05-01T15:19:58.197Z</time></trkpt><trkpt lat="39.1990667" lon="9.1385517"><ele>3.0</ele><time>2026-05-01T15:19:59.196Z</time></trkpt><trkpt lat="39.1991761" lon="9.1385259"><ele>2.8</ele><time>2026-05-01T15:20:00.197Z</time></trkpt><trkpt lat="39.1992776" lon="9.1384989"><ele>2.5999999999999996</ele><time>2026-05-01T15:20:01.197Z</time></trkpt><trkpt lat="39.1993758" lon="9.1384784"><ele>2.4000000000000004</ele><time>2026-05-01T15:20:02.197Z</time></trkpt><trkpt lat="39.1994737" lon="9.1384546"><ele>2.2</ele><time>2026-05-01T15:20:03.197Z</time></trkpt><trkpt lat="39.1995747" lon="9.1384298"><ele>2.0</ele><time>2026-05-01T15:20:04.196Z</time></trkpt><trkpt lat="39.1996794" lon="9.1384041"><ele>2.0</ele><time>2026-05-01T15:20:05.196Z</time></trkpt><trkpt lat="39.1997841" lon="9.1383759"><ele>2.0</ele><time>2026-05-01T15:20:06.196Z</time></trkpt><trkpt lat="39.1998919" lon="9.13835"><ele>2.0</ele><time>2026-05-01T15:20:07.197Z</time></trkpt><trkpt lat="39.200003" lon="9.138336"><ele>2.0</ele><time>2026-05-01T15:20:08.196Z</time></trkpt><trkpt lat="39.2001177" lon="9.1383148"><ele>2.0</ele><time>2026-05-01T15:20:09.197Z</time></trkpt><trkpt lat="39.2002369" lon="9.1382983"><ele>2.25</ele><time>2026-05-01T15:20:10.196Z</time></trkpt><trkpt lat="39.2003568" lon="9.1382798"><ele>2.5</ele><time>2026-05-01T15:20:11.196Z</time></trkpt><trkpt lat="39.2004794" lon="9.1382637"><ele>2.75</ele><time>2026-05-01T15:20:12.197Z</time></trkpt><trkpt lat="39.2006031" lon="9.1382493"><ele>3.0</ele><time>2026-05-01T15:20:13.196Z</time></trkpt><trkpt lat="39.2007273" lon="9.1382371"><ele>2.6</ele><time>2026-05-01T15:20:14.196Z</time></trkpt><trkpt lat="39.2008476" lon="9.1382277"><ele>2.1999999999999997</ele><time>2026-05-01T15:20:15.196Z</time></trkpt><trkpt lat="39.200956" lon="9.1382191"><ele>1.8</ele><time>2026-05-01T15:20:16.196Z</time></trkpt><trkpt lat="39.2010481" lon="9.1382112"><ele>1.4</ele><time>2026-05-01T15:20:17.196Z</time></trkpt><trkpt lat="39.2011212" lon="9.1382101"><ele>1.0</ele><time>2026-05-01T15:20:18.196Z</time></trkpt><trkpt lat="39.2011913" lon="9.1382152"><ele>0.6000000000000001</ele><time>2026-05-01T15:20:20.196Z</time></trkpt><trkpt lat="39.2012677" lon="9.1382651"><ele>0.20000000000000007</ele><time>2026-05-01T15:20:27.196Z</time></trkpt><trkpt lat="39.2013147" lon="9.138379"><ele>-0.20000000000000007</ele><time>2026-05-01T15:20:29.196Z</time></trkpt><trkpt lat="39.201328" lon="9.1385457"><ele>-0.6000000000000001</ele><time>2026-05-01T15:20:31.197Z</time></trkpt><trkpt lat="39.2013327" lon="9.138649"><ele>-1.0</ele><time>2026-05-01T15:20:32.197Z</time></trkpt><trkpt lat="39.2013379" lon="9.1387666"><ele>-1.0</ele><time>2026-05-01T15:20:33.196Z</time></trkpt><trkpt lat="39.2013411" lon="9.1388973"><ele>-1.0</ele><time>2026-05-01T15:20:34.196Z</time></trkpt><trkpt lat="39.2013423" lon="9.1390266"><ele>-1.0</ele><time>2026-05-01T15:20:35.196Z</time></trkpt><trkpt lat="39.2013449" lon="9.1391326"><ele>-1.0</ele><time>2026-05-01T15:20:36.197Z</time></trkpt><trkpt lat="39.2013628" lon="9.1392649"><ele>-1.0</ele><time>2026-05-01T15:20:38.196Z</time></trkpt><trkpt lat="39.2014192" lon="9.1393825"><ele>-0.4</ele><time>2026-05-01T15:20:40.196Z</time></trkpt><trkpt lat="39.2014991" lon="9.1394806"><ele>0.19999999999999996</ele><time>2026-05-01T15:20:42.197Z</time></trkpt><trkpt lat="39.2015705" lon="9.1395363"><ele>0.8000000000000002</ele><time>2026-05-01T15:20:44.197Z</time></trkpt><trkpt lat="39.2016397" lon="9.1395703"><ele>1.4000000000000001</ele><time>2026-05-01T15:20:46.197Z</time></trkpt><trkpt lat="39.2017112" lon="9.1395805"><ele>2.0</ele><time>2026-05-01T15:20:48.196Z</time></trkpt><trkpt lat="39.2018242" lon="9.1395611"><ele>2.0</ele><time>2026-05-01T15:20:50.197Z</time></trkpt><trkpt lat="39.2018889" lon="9.1395425"><ele>1.9999999999999998</ele><time>2026-05-01T15:20:51.197Z</time></trkpt><trkpt lat="39.2019563" lon="9.1395316"><ele>2.0</ele><time>2026-05-01T15:20:52.196Z</time></trkpt><trkpt lat="39.202022" lon="9.139542"><ele>2.0</ele><time>2026-05-01T15:20:53.197Z</time></trkpt><trkpt lat="39.2020845" lon="9.1395583"><ele>1.9999999999999998</ele><time>2026-05-01T15:20:54.196Z</time></trkpt><trkpt lat="39.2021474" lon="9.1395854"><ele>2.0</ele><time>2026-05-01T15:20:55.196Z</time></trkpt><trkpt lat="39.2022119" lon="9.1396239"><ele>2.0</ele><time>2026-05-01T15:20:56.196Z</time></trkpt><trkpt lat="39.2022728" lon="9.1396766"><ele>1.9999999999999998</ele><time>2026-05-01T15:20:57.197Z</time></trkpt><trkpt lat="39.2023264" lon="9.1397432"><ele>2.0</ele><time>2026-05-01T15:20:58.197Z</time></trkpt><trkpt lat="39.202378" lon="9.1398179"><ele>2.0</ele><time>2026-05-01T15:20:59.196Z</time></trkpt><trkpt lat="39.2024285" lon="9.1398961"><ele>2.0</ele><time>2026-05-01T15:21:00.197Z</time></trkpt><trkpt lat="39.2024777" lon="9.139977"><ele>1.9999999999999998</ele><time>2026-05-01T15:21:01.197Z</time></trkpt><trkpt lat="39.2025324" lon="9.1400619"><ele>2.0</ele><time>2026-05-01T15:21:02.196Z</time></trkpt><trkpt lat="39.2025868" lon="9.1401523"><ele>2.2</ele><time>2026-05-01T15:21:03.196Z</time></trkpt><trkpt lat="39.2026449" lon="9.1402433"><ele>2.4000000000000004</ele><time>2026-05-01T15:21:04.196Z</time></trkpt><trkpt lat="39.202702" lon="9.1403369"><ele>2.5999999999999996</ele><time>2026-05-01T15:21:05.196Z</time></trkpt><trkpt lat="39.2027648" lon="9.1404336"><ele>2.8</ele><time>2026-05-01T15:21:06.197Z</time></trkpt><trkpt lat="39.2028237" lon="9.1405276"><ele>3.0</ele><time>2026-05-01T15:21:07.196Z</time></trkpt><trkpt lat="39.2028878" lon="9.1406199"><ele>3.0</ele><time>2026-05-01T15:21:08.196Z</time></trkpt><trkpt lat="39.2029421" lon="9.1407022"><ele>3.0</ele><time>2026-05-01T15:21:09.196Z</time></trkpt><trkpt lat="39.2030133" lon="9.1408243"><ele>3.0</ele><time>2026-05-01T15:21:11.196Z</time></trkpt><trkpt lat="39.2030654" lon="9.1409174"><ele>3.0</ele><time>2026-05-01T15:21:14.196Z</time></trkpt><trkpt lat="39.2031452" lon="9.1410457"><ele>3.0</ele><time>2026-05-01T15:21:16.196Z</time></trkpt><trkpt lat="39.2031966" lon="9.1411322"><ele>2.4</ele><time>2026-05-01T15:21:17.196Z</time></trkpt><trkpt lat="39.2032538" lon="9.141225"><ele>1.7999999999999998</ele><time>2026-05-01T15:21:18.196Z</time></trkpt><trkpt lat="39.2033226" lon="9.1413263"><ele>1.2</ele><time>2026-05-01T15:21:19.197Z</time></trkpt><trkpt lat="39.2033973" lon="9.1414368"><ele>0.6</ele><time>2026-05-01T15:21:20.196Z</time></trkpt><trkpt lat="39.2034755" lon="9.1415505"><ele>0.0</ele><time>2026-05-01T15:21:21.197Z</time></trkpt><trkpt lat="39.2035565" lon="9.1416713"><ele>0.0</ele><time>2026-05-01T15:21:22.197Z</time></trkpt><trkpt lat="39.2036389" lon="9.1417944"><ele>0.0</ele><time>2026-05-01T15:21:23.197Z</time></trkpt><trkpt lat="39.203721" lon="9.1419158"><ele>0.0</ele><time>2026-05-01T15:21:24.197Z</time></trkpt><trkpt lat="39.2038039" lon="9.1420367"><ele>0.0</ele><time>2026-05-01T15:21:25.197Z</time></trkpt><trkpt lat="39.2038875" lon="9.142157"><ele>0.0</ele><time>2026-05-01T15:21:26.197Z</time></trkpt><trkpt lat="39.2039668" lon="9.142274"><ele>0.0</ele><time>2026-05-01T15:21:27.196Z</time></trkpt><trkpt lat="39.2040401" lon="9.1423824"><ele>0.0</ele><time>2026-05-01T15:21:28.196Z</time></trkpt><trkpt lat="39.2041072" lon="9.1424801"><ele>0.0</ele><time>2026-05-01T15:21:29.197Z</time></trkpt><trkpt lat="39.2041722" lon="9.1425733"><ele>0.0</ele><time>2026-05-01T15:21:30.196Z</time></trkpt><trkpt lat="39.2042328" lon="9.1426613"><ele>0.3333333333333333</ele><time>2026-05-01T15:21:31.197Z</time></trkpt><trkpt lat="39.2042852" lon="9.1427379"><ele>0.6666666666666666</ele><time>2026-05-01T15:21:32.197Z</time></trkpt><trkpt lat="39.2043358" lon="9.1428083"><ele>1.0</ele><time>2026-05-01T15:21:33.196Z</time></trkpt><trkpt lat="39.2044108" lon="9.1429192"><ele>1.3333333333333333</ele><time>2026-05-01T15:21:35.197Z</time></trkpt><trkpt lat="39.2044639" lon="9.1429998"><ele>1.6666666666666665</ele><time>2026-05-01T15:21:37.196Z</time></trkpt><trkpt lat="39.204517" lon="9.1430812"><ele>2.0</ele><time>2026-05-01T15:21:40.197Z</time></trkpt><trkpt lat="39.2045668" lon="9.1431562"><ele>2.0</ele><time>2026-05-01T15:22:00.197Z</time></trkpt><trkpt lat="39.2046379" lon="9.1432042"><ele>2.0</ele><time>2026-05-01T15:22:03.197Z</time></trkpt><trkpt lat="39.2047363" lon="9.1431938"><ele>2.0</ele><time>2026-05-01T15:22:05.196Z</time></trkpt><trkpt lat="39.2048397" lon="9.1431593"><ele>2.0</ele><time>2026-05-01T15:22:07.196Z</time></trkpt><trkpt lat="39.2049519" lon="9.143119"><ele>2.0</ele><time>2026-05-01T15:22:09.196Z</time></trkpt><trkpt lat="39.2050162" lon="9.1431207"><ele>2.1666666666666665</ele><time>2026-05-01T15:22:10.196Z</time></trkpt><trkpt lat="39.2050816" lon="9.1431341"><ele>2.333333333333333</ele><time>2026-05-01T15:22:11.197Z</time></trkpt><trkpt lat="39.2051526" lon="9.1431679"><ele>2.5</ele><time>2026-05-01T15:22:12.196Z</time></trkpt><trkpt lat="39.2052327" lon="9.1432187"><ele>2.6666666666666665</ele><time>2026-05-01T15:22:13.196Z</time></trkpt><trkpt lat="39.2053231" lon="9.1432742"><ele>2.8333333333333335</ele><time>2026-05-01T15:22:14.197Z</time></trkpt><trkpt lat="39.2054198" lon="9.1433281"><ele>3.0</ele><time>2026-05-01T15:22:15.197Z</time></trkpt><trkpt lat="39.2055213" lon="9.1433786"><ele>3.2</ele><time>2026-05-01T15:22:16.197Z</time></trkpt><trkpt lat="39.2056189" lon="9.1434226"><ele>3.4</ele><time>2026-05-01T15:22:17.196Z</time></trkpt><trkpt lat="39.2057257" lon="9.1434558"><ele>3.6000000000000005</ele><time>2026-05-01T15:22:18.196Z</time></trkpt><trkpt lat="39.2058352" lon="9.1434766"><ele>3.8000000000000003</ele><time>2026-05-01T15:22:19.196Z</time></trkpt><trkpt lat="39.205946" lon="9.1434872"><ele>4.0</ele><time>2026-05-01T15:22:20.196Z</time></trkpt><trkpt lat="39.2060465" lon="9.143492"><ele>4.25</ele><time>2026-05-01T15:22:21.196Z</time></trkpt><trkpt lat="39.2061595" lon="9.1434876"><ele>4.5</ele><time>2026-05-01T15:22:22.196Z</time></trkpt><trkpt lat="39.2062804" lon="9.1434783"><ele>4.75</ele><time>2026-05-01T15:22:23.197Z</time></trkpt><trkpt lat="39.2064064" lon="9.1434694"><ele>5.0</ele><time>2026-05-01T15:22:24.196Z</time></trkpt><trkpt lat="39.2065404" lon="9.143458"><ele>5.0</ele><time>2026-05-01T15:22:25.196Z</time></trkpt><trkpt lat="39.2066774" lon="9.1434463"><ele>5.0</ele><time>2026-05-01T15:22:26.196Z</time></trkpt><trkpt lat="39.2068128" lon="9.143437"><ele>5.0</ele><time>2026-05-01T15:22:27.196Z</time></trkpt><trkpt lat="39.2069524" lon="9.1434265"><ele>5.0</ele><time>2026-05-01T15:22:28.196Z</time></trkpt><trkpt lat="39.207093" lon="9.1434173"><ele>5.0</ele><time>2026-05-01T15:22:29.197Z</time></trkpt><trkpt lat="39.2072365" lon="9.1434055"><ele>5.0</ele><time>2026-05-01T15:22:30.197Z</time></trkpt><trkpt lat="39.2073755" lon="9.1433939"><ele>5.0</ele><time>2026-05-01T15:22:31.196Z</time></trkpt><trkpt lat="39.2075159" lon="9.1433839"><ele>5.0</ele><time>2026-05-01T15:22:32.197Z</time></trkpt><trkpt lat="39.2076577" lon="9.1433742"><ele>5.25</ele><time>2026-05-01T15:22:33.197Z</time></trkpt><trkpt lat="39.2077994" lon="9.1433622"><ele>5.5</ele><time>2026-05-01T15:22:34.197Z</time></trkpt><trkpt lat="39.2079421" lon="9.1433486"><ele>5.75</ele><time>2026-05-01T15:22:35.196Z</time></trkpt><trkpt lat="39.2080862" lon="9.1433324"><ele>6.0</ele><time>2026-05-01T15:22:36.197Z</time></trkpt><trkpt lat="39.2082323" lon="9.1433113"><ele>6.0</ele><time>2026-05-01T15:22:37.196Z</time></trkpt><trkpt lat="39.2083751" lon="9.1432855"><ele>6.0</ele><time>2026-05-01T15:22:38.196Z</time></trkpt><trkpt lat="39.2085153" lon="9.1432521"><ele>6.0</ele><time>2026-05-01T15:22:39.196Z</time></trkpt><trkpt lat="39.2086594" lon="9.1432107"><ele>6.0</ele><time>2026-05-01T15:22:40.196Z</time></trkpt><trkpt lat="39.2088062" lon="9.1431656"><ele>7.333333333333334</ele><time>2026-05-01T15:22:41.197Z</time></trkpt><trkpt lat="39.2089562" lon="9.1431183"><ele>8.666666666666668</ele><time>2026-05-01T15:22:42.196Z</time></trkpt><trkpt lat="39.2091087" lon="9.1430708"><ele>10.0</ele><time>2026-05-01T15:22:43.197Z</time></trkpt><trkpt lat="39.2092627" lon="9.1430234"><ele>10.0</ele><time>2026-05-01T15:22:44.197Z</time></trkpt><trkpt lat="39.2094184" lon="9.1429735"><ele>10.0</ele><time>2026-05-01T15:22:45.197Z</time></trkpt><trkpt lat="39.2095763" lon="9.1429221"><ele>10.0</ele><time>2026-05-01T15:22:46.197Z</time></trkpt><trkpt lat="39.209737" lon="9.1428695"><ele>9.333333333333334</ele><time>2026-05-01T15:22:47.197Z</time></trkpt><trkpt lat="39.2098975" lon="9.1428179"><ele>8.666666666666666</ele><time>2026-05-01T15:22:48.197Z</time></trkpt><trkpt lat="39.2100564" lon="9.1427658"><ele>8.0</ele><time>2026-05-01T15:22:49.197Z</time></trkpt><trkpt lat="39.2102153" lon="9.1427133"><ele>8.0</ele><time>2026-05-01T15:22:50.197Z</time></trkpt><trkpt lat="39.2103742" lon="9.1426608"><ele>8.0</ele><time>2026-05-01T15:22:51.196Z</time></trkpt><trkpt lat="39.2105335" lon="9.1426097"><ele>8.0</ele><time>2026-05-01T15:22:52.197Z</time></trkpt><trkpt lat="39.2106888" lon="9.1425639"><ele>7.25</ele><time>2026-05-01T15:22:53.196Z</time></trkpt><trkpt lat="39.2108364" lon="9.1425287"><ele>6.5</ele><time>2026-05-01T15:22:54.197Z</time></trkpt><trkpt lat="39.2109788" lon="9.1425056"><ele>5.75</ele><time>2026-05-01T15:22:55.197Z</time></trkpt><trkpt lat="39.21112" lon="9.1424941"><ele>5.0</ele><time>2026-05-01T15:22:56.197Z</time></trkpt><trkpt lat="39.211265" lon="9.1424956"><ele>5.0</ele><time>2026-05-01T15:22:57.197Z</time></trkpt><trkpt lat="39.2114127" lon="9.142509"><ele>5.0</ele><time>2026-05-01T15:22:58.196Z</time></trkpt><trkpt lat="39.2115636" lon="9.1425338"><ele>5.0</ele><time>2026-05-01T15:22:59.196Z</time></trkpt><trkpt lat="39.2117157" lon="9.1425696"><ele>4.0</ele><time>2026-05-01T15:23:00.197Z</time></trkpt><trkpt lat="39.2118699" lon="9.1426119"><ele>3.0</ele><time>2026-05-01T15:23:01.196Z</time></trkpt><trkpt lat="39.2120261" lon="9.1426579"><ele>2.0</ele><time>2026-05-01T15:23:02.196Z</time></trkpt><trkpt lat="39.2121842" lon="9.1427036"><ele>2.6666666666666665</ele><time>2026-05-01T15:23:03.196Z</time></trkpt><trkpt lat="39.2123429" lon="9.1427519"><ele>3.333333333333333</ele><time>2026-05-01T15:23:04.197Z</time></trkpt><trkpt lat="39.2125024" lon="9.1428009"><ele>4.0</ele><time>2026-05-01T15:23:05.197Z</time></trkpt><trkpt lat="39.2126635" lon="9.1428499"><ele>4.0</ele><time>2026-05-01T15:23:06.197Z</time></trkpt><trkpt lat="39.2128275" lon="9.1428981"><ele>4.0</ele><time>2026-05-01T15:23:07.196Z</time></trkpt><trkpt lat="39.2129875" lon="9.1429466"><ele>4.0</ele><time>2026-05-01T15:23:08.196Z</time></trkpt><trkpt lat="39.2131479" lon="9.1429941"><ele>4.666666666666666</ele><time>2026-05-01T15:23:09.197Z</time></trkpt><trkpt lat="39.2133076" lon="9.1430346"><ele>5.333333333333333</ele><time>2026-05-01T15:23:10.197Z</time></trkpt><trkpt lat="39.2134671" lon="9.1430658"><ele>6.0</ele><time>2026-05-01T15:23:11.196Z</time></trkpt><trkpt lat="39.2136276" lon="9.1430874"><ele>6.0</ele><time>2026-05-01T15:23:12.196Z</time></trkpt><trkpt lat="39.2137868" lon="9.143099"><ele>6.0</ele><time>2026-05-01T15:23:13.197Z</time></trkpt><trkpt lat="39.2139442" lon="9.1431008"><ele>6.0</ele><time>2026-05-01T15:23:14.196Z</time></trkpt><trkpt lat="39.2141033" lon="9.1430958"><ele>5.666666666666667</ele><time>2026-05-01T15:23:15.197Z</time></trkpt><trkpt lat="39.2142643" lon="9.1430846"><ele>5.333333333333334</ele><time>2026-05-01T15:23:16.196Z</time></trkpt><trkpt lat="39.2144231" lon="9.1430685"><ele>5.0</ele><time>2026-05-01T15:23:17.197Z</time></trkpt><trkpt lat="39.214578" lon="9.1430465"><ele>5.0</ele><time>2026-05-01T15:23:18.196Z</time></trkpt><trkpt lat="39.2147322" lon="9.1430134"><ele>5.0</ele><time>2026-05-01T15:23:19.197Z</time></trkpt><trkpt lat="39.2148856" lon="9.1429696"><ele>5.0</ele><time>2026-05-01T15:23:20.197Z</time></trkpt><trkpt lat="39.2150395" lon="9.1429155"><ele>5.0</ele><time>2026-05-01T15:23:21.197Z</time></trkpt><trkpt lat="39.2151932" lon="9.1428529"><ele>5.0</ele><time>2026-05-01T15:23:22.196Z</time></trkpt><trkpt lat="39.2153469" lon="9.1427845"><ele>5.0</ele><time>2026-05-01T15:23:23.197Z</time></trkpt><trkpt lat="39.2155023" lon="9.1427117"><ele>4.666666666666667</ele><time>2026-05-01T15:23:24.196Z</time></trkpt><trkpt lat="39.2156588" lon="9.14264"><ele>4.333333333333333</ele><time>2026-05-01T15:23:25.196Z</time></trkpt><trkpt lat="39.215811" lon="9.1425724"><ele>4.0</ele><time>2026-05-01T15:23:26.196Z</time></trkpt><trkpt lat="39.21597" lon="9.1425016"><ele>4.0</ele><time>2026-05-01T15:23:27.197Z</time></trkpt><trkpt lat="39.216132" lon="9.1424289"><ele>4.0</ele><time>2026-05-01T15:23:28.196Z</time></trkpt><trkpt lat="39.2162926" lon="9.1423582"><ele>4.0</ele><time>2026-05-01T15:23:29.197Z</time></trkpt><trkpt lat="39.2164527" lon="9.142287"><ele>4.0</ele><time>2026-05-01T15:23:30.196Z</time></trkpt><trkpt lat="39.2166137" lon="9.1422135"><ele>4.0</ele><time>2026-05-01T15:23:31.196Z</time></trkpt><trkpt lat="39.2167703" lon="9.1421377"><ele>4.0</ele><time>2026-05-01T15:23:32.197Z</time></trkpt><trkpt lat="39.2169266" lon="9.1420605"><ele>4.0</ele><time>2026-05-01T15:23:33.196Z</time></trkpt><trkpt lat="39.2170796" lon="9.1419764"><ele>4.0</ele><time>2026-05-01T15:23:34.197Z</time></trkpt><trkpt lat="39.21723" lon="9.1418846"><ele>4.0</ele><time>2026-05-01T15:23:35.197Z</time></trkpt><trkpt lat="39.2173769" lon="9.1417851"><ele>4.666666666666666</ele><time>2026-05-01T15:23:36.197Z</time></trkpt><trkpt lat="39.2175206" lon="9.1416792"><ele>5.333333333333333</ele><time>2026-05-01T15:23:37.197Z</time></trkpt><trkpt lat="39.2176616" lon="9.1415724"><ele>6.0</ele><time>2026-05-01T15:23:38.196Z</time></trkpt><trkpt lat="39.2178062" lon="9.1414614"><ele>6.0</ele><time>2026-05-01T15:23:39.197Z</time></trkpt><trkpt lat="39.2179522" lon="9.1413502"><ele>6.0</ele><time>2026-05-01T15:23:40.196Z</time></trkpt><trkpt lat="39.2180986" lon="9.1412384"><ele>6.0</ele><time>2026-05-01T15:23:41.197Z</time></trkpt><trkpt lat="39.2182444" lon="9.141125"><ele>5.0</ele><time>2026-05-01T15:23:42.196Z</time></trkpt><trkpt lat="39.2183888" lon="9.1410128"><ele>4.0</ele><time>2026-05-01T15:23:43.197Z</time></trkpt><trkpt lat="39.2185332" lon="9.1409036"><ele>3.0</ele><time>2026-05-01T15:23:44.196Z</time></trkpt><trkpt lat="39.2186779" lon="9.1407996"><ele>3.333333333333333</ele><time>2026-05-01T15:23:45.196Z</time></trkpt><trkpt lat="39.2188248" lon="9.1407027"><ele>3.6666666666666665</ele><time>2026-05-01T15:23:46.197Z</time></trkpt><trkpt lat="39.2189739" lon="9.1406113"><ele>4.0</ele><time>2026-05-01T15:23:47.196Z</time></trkpt><trkpt lat="39.219124" lon="9.1405233"><ele>4.0</ele><time>2026-05-01T15:23:48.197Z</time></trkpt><trkpt lat="39.2192768" lon="9.1404364"><ele>4.0</ele><time>2026-05-01T15:23:49.197Z</time></trkpt><trkpt lat="39.219432" lon="9.1403515"><ele>4.0</ele><time>2026-05-01T15:23:50.196Z</time></trkpt><trkpt lat="39.2195895" lon="9.1402665"><ele>4.0</ele><time>2026-05-01T15:23:51.196Z</time></trkpt><trkpt lat="39.2197486" lon="9.1401836"><ele>4.0</ele><time>2026-05-01T15:23:52.197Z</time></trkpt><trkpt lat="39.2199095" lon="9.140104"><ele>4.0</ele><time>2026-05-01T15:23:53.197Z</time></trkpt><trkpt lat="39.2200682" lon="9.1400277"><ele>4.333333333333333</ele><time>2026-05-01T15:23:54.196Z</time></trkpt><trkpt lat="39.2202266" lon="9.1399542"><ele>4.666666666666667</ele><time>2026-05-01T15:23:55.197Z</time></trkpt><trkpt lat="39.2203856" lon="9.1398861"><ele>5.0</ele><time>2026-05-01T15:23:56.197Z</time></trkpt><trkpt lat="39.2205421" lon="9.1398251"><ele>5.0</ele><time>2026-05-01T15:23:57.197Z</time></trkpt><trkpt lat="39.2206895" lon="9.1397714"><ele>5.0</ele><time>2026-05-01T15:23:58.196Z</time></trkpt><trkpt lat="39.2208307" lon="9.139725"><ele>5.0</ele><time>2026-05-01T15:23:59.197Z</time></trkpt><trkpt lat="39.2209696" lon="9.1396787"><ele>5.0</ele><time>2026-05-01T15:24:00.196Z</time></trkpt><trkpt lat="39.2211122" lon="9.1396314"><ele>5.0</ele><time>2026-05-01T15:24:01.196Z</time></trkpt><trkpt lat="39.2212526" lon="9.1395825"><ele>5.0</ele><time>2026-05-01T15:24:02.196Z</time></trkpt><trkpt lat="39.2213917" lon="9.1395343"><ele>5.0</ele><time>2026-05-01T15:24:03.197Z</time></trkpt><trkpt lat="39.2215262" lon="9.1394884"><ele>5.0</ele><time>2026-05-01T15:24:04.197Z</time></trkpt><trkpt lat="39.2216616" lon="9.1394438"><ele>5.0</ele><time>2026-05-01T15:24:05.196Z</time></trkpt><trkpt lat="39.2217965" lon="9.1394046"><ele>5.0</ele><time>2026-05-01T15:24:06.197Z</time></trkpt><trkpt lat="39.2219313" lon="9.1393719"><ele>5.0</ele><time>2026-05-01T15:24:07.197Z</time></trkpt><trkpt lat="39.2220623" lon="9.139341"><ele>5.0</ele><time>2026-05-01T15:24:08.196Z</time></trkpt><trkpt lat="39.2221946" lon="9.1393132"><ele>4.75</ele><time>2026-05-01T15:24:09.196Z</time></trkpt><trkpt lat="39.222325" lon="9.1392922"><ele>4.5</ele><time>2026-05-01T15:24:10.196Z</time></trkpt><trkpt lat="39.2224584" lon="9.139282"><ele>4.25</ele><time>2026-05-01T15:24:11.197Z</time></trkpt><trkpt lat="39.2225916" lon="9.1392812"><ele>4.0</ele><time>2026-05-01T15:24:12.197Z</time></trkpt><trkpt lat="39.2227268" lon="9.1392886"><ele>4.0</ele><time>2026-05-01T15:24:13.197Z</time></trkpt><trkpt lat="39.2228648" lon="9.1392978"><ele>4.0</ele><time>2026-05-01T15:24:14.196Z</time></trkpt><trkpt lat="39.2230058" lon="9.1392965"><ele>4.0</ele><time>2026-05-01T15:24:15.196Z</time></trkpt><trkpt lat="39.2231484" lon="9.139284"><ele>4.0</ele><time>2026-05-01T15:24:16.196Z</time></trkpt><trkpt lat="39.2232897" lon="9.1392638"><ele>4.0</ele><time>2026-05-01T15:24:17.197Z</time></trkpt><trkpt lat="39.2234294" lon="9.1392414"><ele>4.0</ele><time>2026-05-01T15:24:18.196Z</time></trkpt><trkpt lat="39.2235724" lon="9.1392202"><ele>4.0</ele><time>2026-05-01T15:24:19.197Z</time></trkpt><trkpt lat="39.2237163" lon="9.1391996"><ele>4.0</ele><time>2026-05-01T15:24:20.197Z</time></trkpt><trkpt lat="39.2238596" lon="9.1391779"><ele>3.75</ele><time>2026-05-01T15:24:21.197Z</time></trkpt><trkpt lat="39.2240018" lon="9.13915"><ele>3.5</ele><time>2026-05-01T15:24:22.196Z</time></trkpt><trkpt lat="39.2241449" lon="9.1391186"><ele>3.25</ele><time>2026-05-01T15:24:23.197Z</time></trkpt><trkpt lat="39.2242872" lon="9.1390868"><ele>3.0</ele><time>2026-05-01T15:24:24.197Z</time></trkpt><trkpt lat="39.2244315" lon="9.1390541"><ele>3.25</ele><time>2026-05-01T15:24:25.196Z</time></trkpt><trkpt lat="39.2245766" lon="9.1390234"><ele>3.5</ele><time>2026-05-01T15:24:26.196Z</time></trkpt><trkpt lat="39.2247221" lon="9.1389938"><ele>3.75</ele><time>2026-05-01T15:24:27.197Z</time></trkpt><trkpt lat="39.2248701" lon="9.1389678"><ele>4.0</ele><time>2026-05-01T15:24:28.196Z</time></trkpt><trkpt lat="39.2250173" lon="9.1389457"><ele>4.0</ele><time>2026-05-01T15:24:29.196Z</time></trkpt><trkpt lat="39.2251639" lon="9.1389241"><ele>4.0</ele><time>2026-05-01T15:24:30.197Z</time></trkpt><trkpt lat="39.2253119" lon="9.1389017"><ele>4.0</ele><time>2026-05-01T15:24:31.196Z</time></trkpt><trkpt lat="39.2254623" lon="9.1388805"><ele>4.0</ele><time>2026-05-01T15:24:32.196Z</time></trkpt><trkpt lat="39.2256157" lon="9.1388582"><ele>3.6666666666666665</ele><time>2026-05-01T15:24:33.196Z</time></trkpt><trkpt lat="39.2257699" lon="9.1388373"><ele>3.333333333333333</ele><time>2026-05-01T15:24:34.196Z</time></trkpt><trkpt lat="39.2259259" lon="9.1388166"><ele>3.0</ele><time>2026-05-01T15:24:35.197Z</time></trkpt><trkpt lat="39.226084" lon="9.1387965"><ele>3.0</ele><time>2026-05-01T15:24:36.196Z</time></trkpt><trkpt lat="39.2262406" lon="9.1387783"><ele>3.0</ele><time>2026-05-01T15:24:37.196Z</time></trkpt><trkpt lat="39.2264007" lon="9.1387683"><ele>3.0</ele><time>2026-05-01T15:24:38.196Z</time></trkpt><trkpt lat="39.226558" lon="9.1387562"><ele>3.0</ele><time>2026-05-01T15:24:39.197Z</time></trkpt><trkpt lat="39.2267175" lon="9.1387446"><ele>3.0</ele><time>2026-05-01T15:24:40.196Z</time></trkpt><trkpt lat="39.2268784" lon="9.1387313"><ele>3.0</ele><time>2026-05-01T15:24:41.197Z</time></trkpt><trkpt lat="39.2270408" lon="9.1387165"><ele>3.0</ele><time>2026-05-01T15:24:42.196Z</time></trkpt><trkpt lat="39.227201" lon="9.1387049"><ele>3.0</ele><time>2026-05-01T15:24:43.196Z</time></trkpt><trkpt lat="39.2273607" lon="9.1386959"><ele>3.0</ele><time>2026-05-01T15:24:44.196Z</time></trkpt><trkpt lat="39.2275206" lon="9.1386843"><ele>2.0</ele><time>2026-05-01T15:24:45.197Z</time></trkpt><trkpt lat="39.2276802" lon="9.1386742"><ele>1.0</ele><time>2026-05-01T15:24:46.197Z</time></trkpt><trkpt lat="39.2278378" lon="9.138667"><ele>0.0</ele><time>2026-05-01T15:24:47.196Z</time></trkpt><trkpt lat="39.2279963" lon="9.1386579"><ele>-0.3333333333333333</ele><time>2026-05-01T15:24:48.197Z</time></trkpt><trkpt lat="39.2281543" lon="9.1386488"><ele>-0.6666666666666666</ele><time>2026-05-01T15:24:49.196Z</time></trkpt><trkpt lat="39.2283128" lon="9.1386389"><ele>-1.0</ele><time>2026-05-01T15:24:50.197Z</time></trkpt><trkpt lat="39.2284705" lon="9.138629"><ele>-1.0</ele><time>2026-05-01T15:24:51.196Z</time></trkpt><trkpt lat="39.2286291" lon="9.1386221"><ele>-1.0</ele><time>2026-05-01T15:24:52.197Z</time></trkpt><trkpt lat="39.2287881" lon="9.1386128"><ele>-1.0</ele><time>2026-05-01T15:24:53.196Z</time></trkpt><trkpt lat="39.2289466" lon="9.138606"><ele>-0.25</ele><time>2026-05-01T15:24:54.197Z</time></trkpt><trkpt lat="39.2291018" lon="9.1385956"><ele>0.5</ele><time>2026-05-01T15:24:55.197Z</time></trkpt><trkpt lat="39.2292513" lon="9.1385861"><ele>1.25</ele><time>2026-05-01T15:24:56.196Z</time></trkpt><trkpt lat="39.229394" lon="9.1385779"><ele>2.0</ele><time>2026-05-01T15:24:57.196Z</time></trkpt><trkpt lat="39.2295296" lon="9.1385743"><ele>2.0</ele><time>2026-05-01T15:24:58.196Z</time></trkpt><trkpt lat="39.2296598" lon="9.1385764"><ele>2.0</ele><time>2026-05-01T15:24:59.196Z</time></trkpt><trkpt lat="39.2297873" lon="9.1385828"><ele>2.0</ele><time>2026-05-01T15:25:00.196Z</time></trkpt><trkpt lat="39.2299125" lon="9.1385953"><ele>2.0</ele><time>2026-05-01T15:25:01.197Z</time></trkpt><trkpt lat="39.2300338" lon="9.1386118"><ele>2.0</ele><time>2026-05-01T15:25:02.197Z</time></trkpt><trkpt lat="39.2301535" lon="9.138628"><ele>2.0</ele><time>2026-05-01T15:25:03.196Z</time></trkpt><trkpt lat="39.2302718" lon="9.1386471"><ele>2.0</ele><time>2026-05-01T15:25:04.197Z</time></trkpt><trkpt lat="39.2303903" lon="9.1386746"><ele>2.0</ele><time>2026-05-01T15:25:05.197Z</time></trkpt><trkpt lat="39.2305063" lon="9.1386973"><ele>2.0</ele><time>2026-05-01T15:25:06.197Z</time></trkpt><trkpt lat="39.2306188" lon="9.1387238"><ele>2.0</ele><time>2026-05-01T15:25:07.196Z</time></trkpt><trkpt lat="39.2307288" lon="9.1387499"><ele>2.0</ele><time>2026-05-01T15:25:08.197Z</time></trkpt><trkpt lat="39.2308415" lon="9.1387781"><ele>2.0</ele><time>2026-05-01T15:25:09.196Z</time></trkpt><trkpt lat="39.2309552" lon="9.138807"><ele>2.0</ele><time>2026-05-01T15:25:10.196Z</time></trkpt><trkpt lat="39.2310716" lon="9.1388429"><ele>2.0</ele><time>2026-05-01T15:25:11.196Z</time></trkpt><trkpt lat="39.2311899" lon="9.138882"><ele>2.0</ele><time>2026-05-01T15:25:12.197Z</time></trkpt><trkpt lat="39.231313" lon="9.1389257"><ele>2.0</ele><time>2026-05-01T15:25:13.197Z</time></trkpt><trkpt lat="39.2314366" lon="9.1389714"><ele>2.25</ele><time>2026-05-01T15:25:14.196Z</time></trkpt><trkpt lat="39.2315628" lon="9.1390201"><ele>2.5</ele><time>2026-05-01T15:25:15.197Z</time></trkpt><trkpt lat="39.2316905" lon="9.1390698"><ele>2.75</ele><time>2026-05-01T15:25:16.197Z</time></trkpt><trkpt lat="39.2318199" lon="9.1391246"><ele>3.0</ele><time>2026-05-01T15:25:17.196Z</time></trkpt><trkpt lat="39.2319473" lon="9.1391885"><ele>2.75</ele><time>2026-05-01T15:25:18.197Z</time></trkpt><trkpt lat="39.232076" lon="9.139251"><ele>2.5</ele><time>2026-05-01T15:25:19.196Z</time></trkpt><trkpt lat="39.2322037" lon="9.1393185"><ele>2.25</ele><time>2026-05-01T15:25:20.196Z</time></trkpt><trkpt lat="39.2323337" lon="9.1393907"><ele>2.0</ele><time>2026-05-01T15:25:21.196Z</time></trkpt><trkpt lat="39.2324617" lon="9.1394657"><ele>2.0</ele><time>2026-05-01T15:25:22.196Z</time></trkpt><trkpt lat="39.2325869" lon="9.1395412"><ele>2.0</ele><time>2026-05-01T15:25:23.196Z</time></trkpt><trkpt lat="39.2327064" lon="9.1396244"><ele>2.0</ele><time>2026-05-01T15:25:24.197Z</time></trkpt><trkpt lat="39.2328223" lon="9.1397107"><ele>2.0</ele><time>2026-05-01T15:25:25.197Z</time></trkpt><trkpt lat="39.2329361" lon="9.1398012"><ele>2.5</ele><time>2026-05-01T15:25:26.197Z</time></trkpt><trkpt lat="39.2330488" lon="9.1398958"><ele>3.0</ele><time>2026-05-01T15:25:27.197Z</time></trkpt><trkpt lat="39.2331621" lon="9.1399932"><ele>3.5</ele><time>2026-05-01T15:25:28.197Z</time></trkpt><trkpt lat="39.233277" lon="9.1400929"><ele>4.0</ele><time>2026-05-01T15:25:29.197Z</time></trkpt><trkpt lat="39.2333893" lon="9.1401941"><ele>4.0</ele><time>2026-05-01T15:25:30.197Z</time></trkpt><trkpt lat="39.2335001" lon="9.140299"><ele>4.0</ele><time>2026-05-01T15:25:31.196Z</time></trkpt><trkpt lat="39.2336118" lon="9.1404009"><ele>4.0</ele><time>2026-05-01T15:25:32.197Z</time></trkpt><trkpt lat="39.2337213" lon="9.1405059"><ele>4.0</ele><time>2026-05-01T15:25:33.197Z</time></trkpt><trkpt lat="39.2338319" lon="9.1406141"><ele>3.25</ele><time>2026-05-01T15:25:34.197Z</time></trkpt><trkpt lat="39.2339433" lon="9.1407272"><ele>2.5</ele><time>2026-05-01T15:25:35.197Z</time></trkpt><trkpt lat="39.234053" lon="9.1408412"><ele>1.75</ele><time>2026-05-01T15:25:36.197Z</time></trkpt><trkpt lat="39.2341647" lon="9.1409587"><ele>1.0</ele><time>2026-05-01T15:25:37.197Z</time></trkpt><trkpt lat="39.2342759" lon="9.1410797"><ele>1.0</ele><time>2026-05-01T15:25:38.197Z</time></trkpt><trkpt lat="39.2343865" lon="9.1412041"><ele>1.0</ele><time>2026-05-01T15:25:39.196Z</time></trkpt><trkpt lat="39.2344956" lon="9.1413293"><ele>1.0</ele><time>2026-05-01T15:25:40.197Z</time></trkpt><trkpt lat="39.2346013" lon="9.141455"><ele>1.0</ele><time>2026-05-01T15:25:41.197Z</time></trkpt><trkpt lat="39.2347053" lon="9.1415809"><ele>1.5</ele><time>2026-05-01T15:25:42.196Z</time></trkpt><trkpt lat="39.2348073" lon="9.1417075"><ele>2.0</ele><time>2026-05-01T15:25:43.197Z</time></trkpt><trkpt lat="39.2349056" lon="9.1418357"><ele>2.5</ele><time>2026-05-01T15:25:44.196Z</time></trkpt><trkpt lat="39.2350049" lon="9.1419659"><ele>3.0</ele><time>2026-05-01T15:25:45.196Z</time></trkpt><trkpt lat="39.2351065" lon="9.1420968"><ele>3.0</ele><time>2026-05-01T15:25:46.196Z</time></trkpt><trkpt lat="39.2352096" lon="9.1422284"><ele>3.0</ele><time>2026-05-01T15:25:47.197Z</time></trkpt><trkpt lat="39.2353147" lon="9.1423662"><ele>3.0</ele><time>2026-05-01T15:25:48.197Z</time></trkpt><trkpt lat="39.235413" lon="9.1424934"><ele>3.0</ele><time>2026-05-01T15:25:49.196Z</time></trkpt><trkpt lat="39.2355093" lon="9.1426152"><ele>3.5</ele><time>2026-05-01T15:25:50.196Z</time></trkpt><trkpt lat="39.2356074" lon="9.1427347"><ele>4.0</ele><time>2026-05-01T15:25:51.196Z</time></trkpt><trkpt lat="39.2357029" lon="9.1428555"><ele>4.5</ele><time>2026-05-01T15:25:52.196Z</time></trkpt><trkpt lat="39.235798" lon="9.1429782"><ele>5.0</ele><time>2026-05-01T15:25:53.196Z</time></trkpt><trkpt lat="39.2358945" lon="9.1431103"><ele>4.25</ele><time>2026-05-01T15:25:54.197Z</time></trkpt><trkpt lat="39.2359897" lon="9.1432415"><ele>3.5</ele><time>2026-05-01T15:25:55.197Z</time></trkpt><trkpt lat="39.2360856" lon="9.1433758"><ele>2.75</ele><time>2026-05-01T15:25:56.196Z</time></trkpt><trkpt lat="39.2361808" lon="9.1435155"><ele>2.0</ele><time>2026-05-01T15:25:57.196Z</time></trkpt><trkpt lat="39.2362746" lon="9.1436554"><ele>2.0</ele><time>2026-05-01T15:25:58.197Z</time></trkpt><trkpt lat="39.2363691" lon="9.1437955"><ele>2.0</ele><time>2026-05-01T15:25:59.196Z</time></trkpt><trkpt lat="39.2364644" lon="9.1439361"><ele>2.0</ele><time>2026-05-01T15:26:00.196Z</time></trkpt><trkpt lat="39.2365573" lon="9.1440776"><ele>2.0</ele><time>2026-05-01T15:26:01.196Z</time></trkpt><trkpt lat="39.2366502" lon="9.144221"><ele>2.0</ele><time>2026-05-01T15:26:02.197Z</time></trkpt><trkpt lat="39.2367431" lon="9.1443639"><ele>2.0</ele><time>2026-05-01T15:26:03.196Z</time></trkpt><trkpt lat="39.2368352" lon="9.1445059"><ele>2.0</ele><time>2026-05-01T15:26:04.197Z</time></trkpt><trkpt lat="39.2369263" lon="9.1446479"><ele>2.0</ele><time>2026-05-01T15:26:05.196Z</time></trkpt><trkpt lat="39.2370174" lon="9.1447893"><ele>1.25</ele><time>2026-05-01T15:26:06.196Z</time></trkpt><trkpt lat="39.2371087" lon="9.144932"><ele>0.5</ele><time>2026-05-01T15:26:07.197Z</time></trkpt><trkpt lat="39.2372007" lon="9.1450775"><ele>-0.25</ele><time>2026-05-01T15:26:08.196Z</time></trkpt><trkpt lat="39.2372923" lon="9.1452212"><ele>-1.0</ele><time>2026-05-01T15:26:09.197Z</time></trkpt><trkpt lat="39.2373832" lon="9.1453626"><ele>-0.5</ele><time>2026-05-01T15:26:10.196Z</time></trkpt><trkpt lat="39.2374757" lon="9.1455049"><ele>0.0</ele><time>2026-05-01T15:26:11.197Z</time></trkpt><trkpt lat="39.2375693" lon="9.1456494"><ele>0.5</ele><time>2026-05-01T15:26:12.197Z</time></trkpt><trkpt lat="39.237663" lon="9.145795"><ele>1.0</ele><time>2026-05-01T15:26:13.196Z</time></trkpt><trkpt lat="39.2377547" lon="9.145939"><ele>1.0</ele><time>2026-05-01T15:26:14.197Z</time></trkpt><trkpt lat="39.2378482" lon="9.1460835"><ele>1.0</ele><time>2026-05-01T15:26:15.196Z</time></trkpt><trkpt lat="39.2379431" lon="9.1462291"><ele>1.0</ele><time>2026-05-01T15:26:16.197Z</time></trkpt><trkpt lat="39.2380378" lon="9.1463758"><ele>1.0</ele><time>2026-05-01T15:26:17.196Z</time></trkpt><trkpt lat="39.2381333" lon="9.1465239"><ele>2.6666666666666665</ele><time>2026-05-01T15:26:18.196Z</time></trkpt><trkpt lat="39.2382286" lon="9.1466739"><ele>4.333333333333333</ele><time>2026-05-01T15:26:19.196Z</time></trkpt><trkpt lat="39.2383238" lon="9.1468257"><ele>6.0</ele><time>2026-05-01T15:26:20.197Z</time></trkpt><trkpt lat="39.2384211" lon="9.146976"><ele>6.0</ele><time>2026-05-01T15:26:21.197Z</time></trkpt><trkpt lat="39.2385199" lon="9.1471267"><ele>6.0</ele><time>2026-05-01T15:26:22.197Z</time></trkpt><trkpt lat="39.2386161" lon="9.1472769"><ele>6.0</ele><time>2026-05-01T15:26:23.197Z</time></trkpt><trkpt lat="39.2387085" lon="9.1474189"><ele>6.0</ele><time>2026-05-01T15:26:24.196Z</time></trkpt><trkpt lat="39.2388004" lon="9.1475622"><ele>5.5</ele><time>2026-05-01T15:26:25.196Z</time></trkpt><trkpt lat="39.2388848" lon="9.1476961"><ele>5.0</ele><time>2026-05-01T15:26:26.196Z</time></trkpt><trkpt lat="39.2389665" lon="9.1478247"><ele>4.5</ele><time>2026-05-01T15:26:27.197Z</time></trkpt><trkpt lat="39.239045" lon="9.1479416"><ele>4.0</ele><time>2026-05-01T15:26:28.196Z</time></trkpt><trkpt lat="39.2391262" lon="9.148045"><ele>4.0</ele><time>2026-05-01T15:26:29.197Z</time></trkpt><trkpt lat="39.2392186" lon="9.1481334"><ele>4.0</ele><time>2026-05-01T15:26:30.196Z</time></trkpt><trkpt lat="39.2393167" lon="9.1481881"><ele>4.0</ele><time>2026-05-01T15:26:31.196Z</time></trkpt><trkpt lat="39.2394165" lon="9.1482085"><ele>4.0</ele><time>2026-05-01T15:26:32.196Z</time></trkpt><trkpt lat="39.2395142" lon="9.1482018"><ele>4.0</ele><time>2026-05-01T15:26:33.196Z</time></trkpt><trkpt lat="39.2395985" lon="9.1481664"><ele>4.0</ele><time>2026-05-01T15:26:34.196Z</time></trkpt><trkpt lat="39.239676" lon="9.14813"><ele>4.0</ele><time>2026-05-01T15:26:35.197Z</time></trkpt><trkpt lat="39.239761" lon="9.1481115"><ele>4.0</ele><time>2026-05-01T15:26:36.196Z</time></trkpt><trkpt lat="39.2398519" lon="9.1481168"><ele>4.0</ele><time>2026-05-01T15:26:37.197Z</time></trkpt><trkpt lat="39.2399473" lon="9.1481455"><ele>4.0</ele><time>2026-05-01T15:26:38.196Z</time></trkpt><trkpt lat="39.2400372" lon="9.1481984"><ele>3.6666666666666665</ele><time>2026-05-01T15:26:39.197Z</time></trkpt><trkpt lat="39.2401095" lon="9.1482634"><ele>3.333333333333333</ele><time>2026-05-01T15:26:40.196Z</time></trkpt><trkpt lat="39.2401746" lon="9.1483348"><ele>3.0</ele><time>2026-05-01T15:26:41.196Z</time></trkpt><trkpt lat="39.2402392" lon="9.1484077"><ele>2.6666666666666665</ele><time>2026-05-01T15:26:42.197Z</time></trkpt><trkpt lat="39.2403032" lon="9.1484789"><ele>2.333333333333333</ele><time>2026-05-01T15:26:43.196Z</time></trkpt><trkpt lat="39.2403683" lon="9.1485515"><ele>2.0</ele><time>2026-05-01T15:26:44.197Z</time></trkpt><trkpt lat="39.2404337" lon="9.1486213"><ele>2.0</ele><time>2026-05-01T15:26:45.196Z</time></trkpt><trkpt lat="39.2405007" lon="9.1486927"><ele>2.0</ele><time>2026-05-01T15:26:46.196Z</time></trkpt><trkpt lat="39.2405707" lon="9.1487623"><ele>2.0</ele><time>2026-05-01T15:26:47.196Z</time></trkpt><trkpt lat="39.2406376" lon="9.1488377"><ele>2.0</ele><time>2026-05-01T15:26:48.196Z</time></trkpt><trkpt lat="39.2407037" lon="9.1489233"><ele>2.0</ele><time>2026-05-01T15:26:49.196Z</time></trkpt><trkpt lat="39.240766" lon="9.1490218"><ele>2.6</ele><time>2026-05-01T15:26:50.196Z</time></trkpt><trkpt lat="39.240824" lon="9.1491262"><ele>3.2</ele><time>2026-05-01T15:26:51.196Z</time></trkpt><trkpt lat="39.2408826" lon="9.1492319"><ele>3.8</ele><time>2026-05-01T15:26:52.196Z</time></trkpt><trkpt lat="39.2409437" lon="9.1493428"><ele>4.4</ele><time>2026-05-01T15:26:53.196Z</time></trkpt><trkpt lat="39.2410099" lon="9.1494607"><ele>5.0</ele><time>2026-05-01T15:26:54.197Z</time></trkpt><trkpt lat="39.2410774" lon="9.149586"><ele>5.0</ele><time>2026-05-01T15:26:55.196Z</time></trkpt><trkpt lat="39.2411476" lon="9.1497192"><ele>5.0</ele><time>2026-05-01T15:26:56.197Z</time></trkpt><trkpt lat="39.2412205" lon="9.1498539"><ele>5.0</ele><time>2026-05-01T15:26:57.196Z</time></trkpt><trkpt lat="39.2412964" lon="9.1499932"><ele>5.0</ele><time>2026-05-01T15:26:58.197Z</time></trkpt><trkpt lat="39.2413687" lon="9.150131"><ele>5.25</ele><time>2026-05-01T15:26:59.196Z</time></trkpt><trkpt lat="39.241436" lon="9.1502671"><ele>5.5</ele><time>2026-05-01T15:27:00.196Z</time></trkpt><trkpt lat="39.2415059" lon="9.1504044"><ele>5.75</ele><time>2026-05-01T15:27:01.196Z</time></trkpt><trkpt lat="39.2415749" lon="9.1505425"><ele>6.0</ele><time>2026-05-01T15:27:02.196Z</time></trkpt><trkpt lat="39.2416467" lon="9.1506856"><ele>5.5</ele><time>2026-05-01T15:27:03.197Z</time></trkpt><trkpt lat="39.2417212" lon="9.1508294"><ele>5.0</ele><time>2026-05-01T15:27:04.196Z</time></trkpt><trkpt lat="39.2418054" lon="9.1509841"><ele>4.5</ele><time>2026-05-01T15:27:05.197Z</time></trkpt><trkpt lat="39.2418795" lon="9.1511216"><ele>4.0</ele><time>2026-05-01T15:27:06.196Z</time></trkpt><trkpt lat="39.2419534" lon="9.1512616"><ele>4.0</ele><time>2026-05-01T15:27:07.196Z</time></trkpt><trkpt lat="39.2420295" lon="9.1514001"><ele>4.0</ele><time>2026-05-01T15:27:08.197Z</time></trkpt><trkpt lat="39.2421062" lon="9.1515367"><ele>4.0</ele><time>2026-05-01T15:27:09.196Z</time></trkpt><trkpt lat="39.2421847" lon="9.1516703"><ele>4.0</ele><time>2026-05-01T15:27:10.197Z</time></trkpt><trkpt lat="39.2422634" lon="9.1518013"><ele>4.25</ele><time>2026-05-01T15:27:11.196Z</time></trkpt><trkpt lat="39.2423397" lon="9.1519241"><ele>4.5</ele><time>2026-05-01T15:27:12.197Z</time></trkpt><trkpt lat="39.2424214" lon="9.1520503"><ele>4.75</ele><time>2026-05-01T15:27:13.196Z</time></trkpt><trkpt lat="39.2424983" lon="9.1521844"><ele>5.0</ele><time>2026-05-01T15:27:14.197Z</time></trkpt><trkpt lat="39.2425758" lon="9.1523218"><ele>4.25</ele><time>2026-05-01T15:27:15.196Z</time></trkpt><trkpt lat="39.2426527" lon="9.1524596"><ele>3.5</ele><time>2026-05-01T15:27:16.196Z</time></trkpt><trkpt lat="39.2427237" lon="9.152592"><ele>2.75</ele><time>2026-05-01T15:27:17.196Z</time></trkpt><trkpt lat="39.2427896" lon="9.1527117"><ele>2.0</ele><time>2026-05-01T15:27:18.196Z</time></trkpt><trkpt lat="39.2428501" lon="9.1528224"><ele>2.0</ele><time>2026-05-01T15:27:19.197Z</time></trkpt><trkpt lat="39.2429087" lon="9.1529323"><ele>2.0</ele><time>2026-05-01T15:27:20.196Z</time></trkpt><trkpt lat="39.2429682" lon="9.1530465"><ele>2.0</ele><time>2026-05-01T15:27:21.197Z</time></trkpt><trkpt lat="39.2430233" lon="9.1531702"><ele>2.0</ele><time>2026-05-01T15:27:22.197Z</time></trkpt><trkpt lat="39.2430758" lon="9.1532943"><ele>2.0</ele><time>2026-05-01T15:27:23.197Z</time></trkpt><trkpt lat="39.2431227" lon="9.1534136"><ele>1.9999999999999998</ele><time>2026-05-01T15:27:24.196Z</time></trkpt><trkpt lat="39.2431619" lon="9.1535173"><ele>2.0</ele><time>2026-05-01T15:27:25.196Z</time></trkpt><trkpt lat="39.2431935" lon="9.1536104"><ele>2.0</ele><time>2026-05-01T15:27:26.197Z</time></trkpt><trkpt lat="39.2432175" lon="9.1536942"><ele>2.0</ele><time>2026-05-01T15:27:27.196Z</time></trkpt><trkpt lat="39.2432477" lon="9.1537871"><ele>1.9999999999999998</ele><time>2026-05-01T15:27:28.197Z</time></trkpt><trkpt lat="39.2432852" lon="9.1538972"><ele>2.0</ele><time>2026-05-01T15:27:29.197Z</time></trkpt><trkpt lat="39.2433205" lon="9.1540143"><ele>2.2</ele><time>2026-05-01T15:27:30.197Z</time></trkpt><trkpt lat="39.243361" lon="9.1541373"><ele>2.4000000000000004</ele><time>2026-05-01T15:27:31.197Z</time></trkpt><trkpt lat="39.2433967" lon="9.1542455"><ele>2.5999999999999996</ele><time>2026-05-01T15:27:32.196Z</time></trkpt><trkpt lat="39.2434319" lon="9.154359"><ele>2.8</ele><time>2026-05-01T15:27:33.196Z</time></trkpt><trkpt lat="39.2434701" lon="9.1544747"><ele>3.0</ele><time>2026-05-01T15:27:34.196Z</time></trkpt><trkpt lat="39.2435092" lon="9.1545864"><ele>3.0</ele><time>2026-05-01T15:27:35.197Z</time></trkpt><trkpt lat="39.2435472" lon="9.1546861"><ele>3.0</ele><time>2026-05-01T15:27:36.197Z</time></trkpt><trkpt lat="39.2435954" lon="9.1547759"><ele>3.0</ele><time>2026-05-01T15:27:37.196Z</time></trkpt><trkpt lat="39.2436577" lon="9.1548595"><ele>3.0</ele><time>2026-05-01T15:27:38.196Z</time></trkpt><trkpt lat="39.2437338" lon="9.1549311"><ele>3.0</ele><time>2026-05-01T15:27:39.196Z</time></trkpt><trkpt lat="39.2438169" lon="9.1549978"><ele>3.0</ele><time>2026-05-01T15:27:40.197Z</time></trkpt><trkpt lat="39.2439008" lon="9.1550626"><ele>3.0</ele><time>2026-05-01T15:27:41.197Z</time></trkpt><trkpt lat="39.2439802" lon="9.1551363"><ele>3.0</ele><time>2026-05-01T15:27:42.196Z</time></trkpt><trkpt lat="39.2440487" lon="9.1552225"><ele>3.0</ele><time>2026-05-01T15:27:43.197Z</time></trkpt><trkpt lat="39.2440989" lon="9.1553256"><ele>3.0</ele><time>2026-05-01T15:27:44.196Z</time></trkpt><trkpt lat="39.2441405" lon="9.1554366"><ele>3.0</ele><time>2026-05-01T15:27:45.197Z</time></trkpt><trkpt lat="39.2441754" lon="9.1555591"><ele>3.0</ele><time>2026-05-01T15:27:46.197Z</time></trkpt><trkpt lat="39.2442076" lon="9.1556999"><ele>3.0</ele><time>2026-05-01T15:27:47.196Z</time></trkpt><trkpt lat="39.2442428" lon="9.1558444"><ele>3.0</ele><time>2026-05-01T15:27:48.196Z</time></trkpt><trkpt lat="39.2442783" lon="9.1559903"><ele>3.4</ele><time>2026-05-01T15:27:49.196Z</time></trkpt><trkpt lat="39.2443105" lon="9.1561242"><ele>3.8</ele><time>2026-05-01T15:27:50.197Z</time></trkpt><trkpt lat="39.2443421" lon="9.1562573"><ele>4.2</ele><time>2026-05-01T15:27:51.196Z</time></trkpt><trkpt lat="39.2443712" lon="9.1563967"><ele>4.6</ele><time>2026-05-01T15:27:52.196Z</time></trkpt><trkpt lat="39.2443972" lon="9.1565445"><ele>5.0</ele><time>2026-05-01T15:27:53.197Z</time></trkpt><trkpt lat="39.2444209" lon="9.1567007"><ele>5.0</ele><time>2026-05-01T15:27:54.196Z</time></trkpt><trkpt lat="39.2444414" lon="9.1568632"><ele>5.0</ele><time>2026-05-01T15:27:55.197Z</time></trkpt><trkpt lat="39.244467" lon="9.1570283"><ele>5.0</ele><time>2026-05-01T15:27:56.196Z</time></trkpt><trkpt lat="39.2444961" lon="9.1571947"><ele>5.0</ele><time>2026-05-01T15:27:57.196Z</time></trkpt><trkpt lat="39.244529" lon="9.1573631"><ele>5.75</ele><time>2026-05-01T15:27:58.197Z</time></trkpt><trkpt lat="39.2445674" lon="9.1575351"><ele>6.5</ele><time>2026-05-01T15:27:59.197Z</time></trkpt><trkpt lat="39.244614" lon="9.1577112"><ele>7.25</ele><time>2026-05-01T15:28:00.196Z</time></trkpt><trkpt lat="39.2446755" lon="9.1578857"><ele>8.0</ele><time>2026-05-01T15:28:01.196Z</time></trkpt><trkpt lat="39.2447483" lon="9.1580514"><ele>7.25</ele><time>2026-05-01T15:28:02.197Z</time></trkpt><trkpt lat="39.2448278" lon="9.1582018"><ele>6.5</ele><time>2026-05-01T15:28:03.196Z</time></trkpt><trkpt lat="39.244915" lon="9.1583482"><ele>5.75</ele><time>2026-05-01T15:28:04.196Z</time></trkpt><trkpt lat="39.2450088" lon="9.1584921"><ele>5.0</ele><time>2026-05-01T15:28:05.196Z</time></trkpt><trkpt lat="39.2450998" lon="9.1586404"><ele>5.0</ele><time>2026-05-01T15:28:06.197Z</time></trkpt><trkpt lat="39.2451834" lon="9.1587924"><ele>5.0</ele><time>2026-05-01T15:28:07.197Z</time></trkpt><trkpt lat="39.2452593" lon="9.1589563"><ele>5.0</ele><time>2026-05-01T15:28:08.196Z</time></trkpt><trkpt lat="39.2453321" lon="9.1591396"><ele>5.0</ele><time>2026-05-01T15:28:09.196Z</time></trkpt><trkpt lat="39.2453886" lon="9.1593195"><ele>5.0</ele><time>2026-05-01T15:28:10.197Z</time></trkpt><trkpt lat="39.2454306" lon="9.1595034"><ele>5.0</ele><time>2026-05-01T15:28:11.196Z</time></trkpt><trkpt lat="39.2454652" lon="9.1596942"><ele>5.666666666666667</ele><time>2026-05-01T15:28:12.197Z</time></trkpt><trkpt lat="39.2454989" lon="9.1598909"><ele>6.333333333333334</ele><time>2026-05-01T15:28:13.197Z</time></trkpt><trkpt lat="39.2455351" lon="9.1600872"><ele>7.0</ele><time>2026-05-01T15:28:14.196Z</time></trkpt><trkpt lat="39.245568" lon="9.1602769"><ele>7.0</ele><time>2026-05-01T15:28:15.197Z</time></trkpt><trkpt lat="39.2455992" lon="9.1604543"><ele>7.0</ele><time>2026-05-01T15:28:16.196Z</time></trkpt><trkpt lat="39.2456302" lon="9.1606286"><ele>7.0</ele><time>2026-05-01T15:28:17.197Z</time></trkpt><trkpt lat="39.2456568" lon="9.1608043"><ele>7.0</ele><time>2026-05-01T15:28:18.197Z</time></trkpt><trkpt lat="39.2456804" lon="9.1609786"><ele>6.75</ele><time>2026-05-01T15:28:19.197Z</time></trkpt><trkpt lat="39.245696" lon="9.1611546"><ele>6.5</ele><time>2026-05-01T15:28:20.197Z</time></trkpt><trkpt lat="39.2457065" lon="9.161332"><ele>6.25</ele><time>2026-05-01T15:28:21.197Z</time></trkpt><trkpt lat="39.245716" lon="9.1615126"><ele>6.0</ele><time>2026-05-01T15:28:22.196Z</time></trkpt><trkpt lat="39.2457268" lon="9.1616937"><ele>5.75</ele><time>2026-05-01T15:28:23.197Z</time></trkpt><trkpt lat="39.245745" lon="9.1618731"><ele>5.5</ele><time>2026-05-01T15:28:24.197Z</time></trkpt><trkpt lat="39.2457742" lon="9.1620489"><ele>5.25</ele><time>2026-05-01T15:28:25.197Z</time></trkpt><trkpt lat="39.2458121" lon="9.1622137"><ele>5.0</ele><time>2026-05-01T15:28:26.196Z</time></trkpt><trkpt lat="39.2458609" lon="9.1623731"><ele>5.0</ele><time>2026-05-01T15:28:27.196Z</time></trkpt><trkpt lat="39.2459172" lon="9.1625224"><ele>5.0</ele><time>2026-05-01T15:28:28.196Z</time></trkpt><trkpt lat="39.2459732" lon="9.1626584"><ele>5.0</ele><time>2026-05-01T15:28:29.197Z</time></trkpt><trkpt lat="39.2460241" lon="9.1627783"><ele>5.0</ele><time>2026-05-01T15:28:30.196Z</time></trkpt><trkpt lat="39.2460786" lon="9.1628971"><ele>5.0</ele><time>2026-05-01T15:28:31.196Z</time></trkpt><trkpt lat="39.2461341" lon="9.1630206"><ele>5.0</ele><time>2026-05-01T15:28:32.197Z</time></trkpt><trkpt lat="39.2461884" lon="9.1631507"><ele>5.0</ele><time>2026-05-01T15:28:33.196Z</time></trkpt><trkpt lat="39.2462513" lon="9.1632964"><ele>5.0</ele><time>2026-05-01T15:28:34.196Z</time></trkpt><trkpt lat="39.2463094" lon="9.1634437"><ele>5.0</ele><time>2026-05-01T15:28:35.197Z</time></trkpt><trkpt lat="39.2463669" lon="9.1635924"><ele>5.0</ele><time>2026-05-01T15:28:36.197Z</time></trkpt><trkpt lat="39.2464283" lon="9.163746"><ele>5.0</ele><time>2026-05-01T15:28:37.197Z</time></trkpt><trkpt lat="39.246492" lon="9.1639028"><ele>5.0</ele><time>2026-05-01T15:28:38.196Z</time></trkpt><trkpt lat="39.2465495" lon="9.1640457"><ele>4.6</ele><time>2026-05-01T15:28:39.196Z</time></trkpt><trkpt lat="39.2466011" lon="9.1641801"><ele>4.2</ele><time>2026-05-01T15:28:40.196Z</time></trkpt><trkpt lat="39.2466391" lon="9.1643082"><ele>3.8</ele><time>2026-05-01T15:28:41.197Z</time></trkpt><trkpt lat="39.2466567" lon="9.1644309"><ele>3.4</ele><time>2026-05-01T15:28:42.196Z</time></trkpt><trkpt lat="39.246659" lon="9.1645412"><ele>3.0</ele><time>2026-05-01T15:28:43.197Z</time></trkpt><trkpt lat="39.2466538" lon="9.164635"><ele>3.0</ele><time>2026-05-01T15:28:44.197Z</time></trkpt><trkpt lat="39.2466347" lon="9.1647919"><ele>3.0</ele><time>2026-05-01T15:28:46.197Z</time></trkpt><trkpt lat="39.2466285" lon="9.1648762"><ele>3.0</ele><time>2026-05-01T15:28:47.196Z</time></trkpt><trkpt lat="39.2466303" lon="9.1649721"><ele>3.0</ele><time>2026-05-01T15:28:48.197Z</time></trkpt><trkpt lat="39.2466475" lon="9.1650727"><ele>3.0</ele><time>2026-05-01T15:28:49.197Z</time></trkpt><trkpt lat="39.2466887" lon="9.1651757"><ele>3.0</ele><time>2026-05-01T15:28:50.196Z</time></trkpt><trkpt lat="39.2467547" lon="9.1652714"><ele>3.2</ele><time>2026-05-01T15:28:51.196Z</time></trkpt><trkpt lat="39.2468361" lon="9.1653521"><ele>3.4</ele><time>2026-05-01T15:28:52.196Z</time></trkpt><trkpt lat="39.2469289" lon="9.1654304"><ele>3.6000000000000005</ele><time>2026-05-01T15:28:53.196Z</time></trkpt><trkpt lat="39.2470161" lon="9.1655237"><ele>3.8000000000000003</ele><time>2026-05-01T15:28:54.197Z</time></trkpt><trkpt lat="39.2470837" lon="9.165627"><ele>4.0</ele><time>2026-05-01T15:28:55.197Z</time></trkpt><trkpt lat="39.247146" lon="9.1657419"><ele>4.0</ele><time>2026-05-01T15:28:56.197Z</time></trkpt><trkpt lat="39.2472048" lon="9.1658657"><ele>4.0</ele><time>2026-05-01T15:28:57.197Z</time></trkpt><trkpt lat="39.247265" lon="9.165999"><ele>4.0</ele><time>2026-05-01T15:28:58.197Z</time></trkpt><trkpt lat="39.2473232" lon="9.1661393"><ele>4.0</ele><time>2026-05-01T15:28:59.196Z</time></trkpt><trkpt lat="39.2473805" lon="9.1662853"><ele>4.0</ele><time>2026-05-01T15:29:00.196Z</time></trkpt><trkpt lat="39.2474414" lon="9.1664395"><ele>4.0</ele><time>2026-05-01T15:29:01.197Z</time></trkpt><trkpt lat="39.247503" lon="9.1665975"><ele>4.0</ele><time>2026-05-01T15:29:02.197Z</time></trkpt><trkpt lat="39.2475668" lon="9.166761"><ele>4.0</ele><time>2026-05-01T15:29:03.197Z</time></trkpt><trkpt lat="39.2476302" lon="9.166929"><ele>3.75</ele><time>2026-05-01T15:29:04.196Z</time></trkpt><trkpt lat="39.2476961" lon="9.1670969"><ele>3.5</ele><time>2026-05-01T15:29:05.197Z</time></trkpt><trkpt lat="39.2477644" lon="9.1672681"><ele>3.25</ele><time>2026-05-01T15:29:06.197Z</time></trkpt><trkpt lat="39.2478299" lon="9.1674353"><ele>3.0</ele><time>2026-05-01T15:29:07.196Z</time></trkpt><trkpt lat="39.2478886" lon="9.1675891"><ele>3.75</ele><time>2026-05-01T15:29:08.196Z</time></trkpt><trkpt lat="39.2479433" lon="9.16773"><ele>4.5</ele><time>2026-05-01T15:29:09.196Z</time></trkpt><trkpt lat="39.2479939" lon="9.1678602"><ele>5.25</ele><time>2026-05-01T15:29:10.197Z</time></trkpt><trkpt lat="39.2480409" lon="9.1679852"><ele>6.0</ele><time>2026-05-01T15:29:11.197Z</time></trkpt><trkpt lat="39.2480881" lon="9.1681141"><ele>6.5</ele><time>2026-05-01T15:29:12.197Z</time></trkpt><trkpt lat="39.2481382" lon="9.1682493"><ele>7.0</ele><time>2026-05-01T15:29:13.196Z</time></trkpt><trkpt lat="39.2481881" lon="9.168387"><ele>7.5</ele><time>2026-05-01T15:29:14.196Z</time></trkpt><trkpt lat="39.2482361" lon="9.1685285"><ele>8.0</ele><time>2026-05-01T15:29:15.197Z</time></trkpt><trkpt lat="39.2482846" lon="9.1686719"><ele>8.0</ele><time>2026-05-01T15:29:16.196Z</time></trkpt><trkpt lat="39.2483319" lon="9.1688143"><ele>8.0</ele><time>2026-05-01T15:29:17.197Z</time></trkpt><trkpt lat="39.2483782" lon="9.168961"><ele>8.0</ele><time>2026-05-01T15:29:18.196Z</time></trkpt><trkpt lat="39.2484248" lon="9.1691063"><ele>8.0</ele><time>2026-05-01T15:29:19.196Z</time></trkpt><trkpt lat="39.2484704" lon="9.1692527"><ele>7.5</ele><time>2026-05-01T15:29:20.196Z</time></trkpt><trkpt lat="39.2485169" lon="9.1694076"><ele>7.0</ele><time>2026-05-01T15:29:21.197Z</time></trkpt><trkpt lat="39.2485629" lon="9.1695581"><ele>6.5</ele><time>2026-05-01T15:29:22.196Z</time></trkpt><trkpt lat="39.248608" lon="9.1697073"><ele>6.0</ele><time>2026-05-01T15:29:23.197Z</time></trkpt><trkpt lat="39.2486556" lon="9.1698562"><ele>6.5</ele><time>2026-05-01T15:29:24.197Z</time></trkpt><trkpt lat="39.2487061" lon="9.170007"><ele>7.0</ele><time>2026-05-01T15:29:25.197Z</time></trkpt><trkpt lat="39.248762" lon="9.17016"><ele>7.5</ele><time>2026-05-01T15:29:26.197Z</time></trkpt><trkpt lat="39.2488241" lon="9.1703109"><ele>8.0</ele><time>2026-05-01T15:29:27.196Z</time></trkpt><trkpt lat="39.2488917" lon="9.170461"><ele>8.0</ele><time>2026-05-01T15:29:28.197Z</time></trkpt><trkpt lat="39.248958" lon="9.1706029"><ele>8.0</ele><time>2026-05-01T15:29:29.196Z</time></trkpt><trkpt lat="39.2490229" lon="9.1707305"><ele>8.0</ele><time>2026-05-01T15:29:30.196Z</time></trkpt><trkpt lat="39.2490883" lon="9.1708505"><ele>8.0</ele><time>2026-05-01T15:29:31.196Z</time></trkpt><trkpt lat="39.2491499" lon="9.1709605"><ele>8.166666666666666</ele><time>2026-05-01T15:29:32.197Z</time></trkpt><trkpt lat="39.2492078" lon="9.1710638"><ele>8.333333333333332</ele><time>2026-05-01T15:29:33.196Z</time></trkpt><trkpt lat="39.2492625" lon="9.1711608"><ele>8.5</ele><time>2026-05-01T15:29:34.196Z</time></trkpt><trkpt lat="39.2493141" lon="9.1712537"><ele>8.666666666666666</ele><time>2026-05-01T15:29:35.196Z</time></trkpt><trkpt lat="39.2493663" lon="9.1713412"><ele>8.833333333333334</ele><time>2026-05-01T15:29:36.197Z</time></trkpt><trkpt lat="39.2494188" lon="9.1714255"><ele>9.0</ele><time>2026-05-01T15:29:37.197Z</time></trkpt><trkpt lat="39.2494679" lon="9.1714991"><ele>9.0</ele><time>2026-05-01T15:29:38.197Z</time></trkpt><trkpt lat="39.2495231" lon="9.1715757"><ele>9.0</ele><time>2026-05-01T15:29:39.196Z</time></trkpt><trkpt lat="39.2495828" lon="9.1716593"><ele>9.0</ele><time>2026-05-01T15:29:40.196Z</time></trkpt><trkpt lat="39.2496393" lon="9.1717417"><ele>9.0</ele><time>2026-05-01T15:29:41.197Z</time></trkpt><trkpt lat="39.249695" lon="9.1718203"><ele>9.0</ele><time>2026-05-01T15:29:42.197Z</time></trkpt><trkpt lat="39.2497473" lon="9.1718926"><ele>9.0</ele><time>2026-05-01T15:29:43.197Z</time></trkpt><trkpt lat="39.2497949" lon="9.1719597"><ele>9.166666666666666</ele><time>2026-05-01T15:29:44.196Z</time></trkpt><trkpt lat="39.2498685" lon="9.1720648"><ele>9.333333333333334</ele><time>2026-05-01T15:29:46.197Z</time></trkpt><trkpt lat="39.2499267" lon="9.1721495"><ele>9.5</ele><time>2026-05-01T15:29:48.196Z</time></trkpt><trkpt lat="39.2499813" lon="9.1722424"><ele>9.666666666666668</ele><time>2026-05-01T15:29:50.196Z</time></trkpt><trkpt lat="39.2500264" lon="9.1723245"><ele>9.833333333333334</ele><time>2026-05-01T15:29:52.197Z</time></trkpt><trkpt lat="39.2500668" lon="9.1723903"><ele>10.0</ele><time>2026-05-01T15:29:53.197Z</time></trkpt><trkpt lat="39.2501225" lon="9.1724665"><ele>10.0</ele><time>2026-05-01T15:29:54.197Z</time></trkpt><trkpt lat="39.2501828" lon="9.1725531"><ele>10.0</ele><time>2026-05-01T15:29:55.196Z</time></trkpt><trkpt lat="39.2502368" lon="9.1726361"><ele>10.0</ele><time>2026-05-01T15:29:56.196Z</time></trkpt><trkpt lat="39.2502818" lon="9.1727123"><ele>10.0</ele><time>2026-05-01T15:29:57.196Z</time></trkpt><trkpt lat="39.2503304" lon="9.172791"><ele>10.0</ele><time>2026-05-01T15:29:58.196Z</time></trkpt><trkpt lat="39.2503806" lon="9.1728734"><ele>10.0</ele><time>2026-05-01T15:29:59.196Z</time></trkpt><trkpt lat="39.2504407" lon="9.1729606"><ele>10.0</ele><time>2026-05-01T15:30:00.196Z</time></trkpt><trkpt lat="39.250495" lon="9.1730558"><ele>10.0</ele><time>2026-05-01T15:30:01.197Z</time></trkpt><trkpt lat="39.2505526" lon="9.1731494"><ele>10.0</ele><time>2026-05-01T15:30:02.196Z</time></trkpt><trkpt lat="39.2506108" lon="9.1732472"><ele>10.0</ele><time>2026-05-01T15:30:03.196Z</time></trkpt><trkpt lat="39.250667" lon="9.1733424"><ele>10.0</ele><time>2026-05-01T15:30:04.196Z</time></trkpt><trkpt lat="39.2507241" lon="9.1734394"><ele>10.6</ele><time>2026-05-01T15:30:05.196Z</time></trkpt><trkpt lat="39.2507812" lon="9.1735371"><ele>11.2</ele><time>2026-05-01T15:30:06.196Z</time></trkpt><trkpt lat="39.2508366" lon="9.1736362"><ele>11.8</ele><time>2026-05-01T15:30:07.196Z</time></trkpt><trkpt lat="39.2508921" lon="9.1737344"><ele>12.4</ele><time>2026-05-01T15:30:08.197Z</time></trkpt><trkpt lat="39.2509476" lon="9.1738291"><ele>13.0</ele><time>2026-05-01T15:30:09.197Z</time></trkpt><trkpt lat="39.2509975" lon="9.1739175"><ele>12.999999999999998</ele><time>2026-05-01T15:30:10.197Z</time></trkpt><trkpt lat="39.2510475" lon="9.1740113"><ele>13.0</ele><time>2026-05-01T15:30:11.196Z</time></trkpt><trkpt lat="39.2510947" lon="9.1741004"><ele>13.0</ele><time>2026-05-01T15:30:12.197Z</time></trkpt><trkpt lat="39.2511379" lon="9.1741962"><ele>13.0</ele><time>2026-05-01T15:30:13.197Z</time></trkpt><trkpt lat="39.2511782" lon="9.1742996"><ele>12.999999999999998</ele><time>2026-05-01T15:30:14.196Z</time></trkpt><trkpt lat="39.2512172" lon="9.1744002"><ele>13.0</ele><time>2026-05-01T15:30:15.196Z</time></trkpt><trkpt lat="39.2512559" lon="9.1745043"><ele>13.0</ele><time>2026-05-01T15:30:16.196Z</time></trkpt><trkpt lat="39.2512958" lon="9.1746071"><ele>13.0</ele><time>2026-05-01T15:30:17.197Z</time></trkpt><trkpt lat="39.2513378" lon="9.1747138"><ele>13.0</ele><time>2026-05-01T15:30:18.197Z</time></trkpt><trkpt lat="39.2513768" lon="9.1748229"><ele>13.0</ele><time>2026-05-01T15:30:19.197Z</time></trkpt><trkpt lat="39.2514114" lon="9.1749354"><ele>13.0</ele><time>2026-05-01T15:30:20.196Z</time></trkpt><trkpt lat="39.2514452" lon="9.1750465"><ele>13.0</ele><time>2026-05-01T15:30:21.197Z</time></trkpt><trkpt lat="39.2514821" lon="9.1751574"><ele>13.0</ele><time>2026-05-01T15:30:22.196Z</time></trkpt><trkpt lat="39.2515201" lon="9.1752636"><ele>13.0</ele><time>2026-05-01T15:30:23.196Z</time></trkpt><trkpt lat="39.2515683" lon="9.1753672"><ele>13.0</ele><time>2026-05-01T15:30:24.197Z</time></trkpt><trkpt lat="39.2516214" lon="9.1754648"><ele>13.0</ele><time>2026-05-01T15:30:25.197Z</time></trkpt><trkpt lat="39.2516767" lon="9.1755614"><ele>13.0</ele><time>2026-05-01T15:30:26.197Z</time></trkpt><trkpt lat="39.2517279" lon="9.1756587"><ele>13.0</ele><time>2026-05-01T15:30:27.197Z</time></trkpt><trkpt lat="39.2517786" lon="9.1757583"><ele>13.0</ele><time>2026-05-01T15:30:28.196Z</time></trkpt><trkpt lat="39.2518322" lon="9.1758624"><ele>13.0</ele><time>2026-05-01T15:30:29.197Z</time></trkpt><trkpt lat="39.2518821" lon="9.175966"><ele>13.0</ele><time>2026-05-01T15:30:30.197Z</time></trkpt><trkpt lat="39.2519351" lon="9.1760717"><ele>12.999999999999998</ele><time>2026-05-01T15:30:31.196Z</time></trkpt><trkpt lat="39.2519917" lon="9.1761756"><ele>13.0</ele><time>2026-05-01T15:30:32.196Z</time></trkpt><trkpt lat="39.2520463" lon="9.1762785"><ele>13.0</ele><time>2026-05-01T15:30:33.197Z</time></trkpt><trkpt lat="39.2521026" lon="9.1763811"><ele>13.0</ele><time>2026-05-01T15:30:34.197Z</time></trkpt><trkpt lat="39.2521509" lon="9.176472"><ele>12.999999999999998</ele><time>2026-05-01T15:30:35.197Z</time></trkpt><trkpt lat="39.2521905" lon="9.1765459"><ele>13.0</ele><time>2026-05-01T15:30:36.196Z</time></trkpt><trkpt lat="39.2522347" lon="9.1766289"><ele>12.999999999999998</ele><time>2026-05-01T15:30:38.197Z</time></trkpt><trkpt lat="39.252284" lon="9.1767008"><ele>13.0</ele><time>2026-05-01T15:30:42.196Z</time></trkpt><trkpt lat="39.2523353" lon="9.1767793"><ele>13.0</ele><time>2026-05-01T15:30:44.197Z</time></trkpt><trkpt lat="39.2523756" lon="9.1768487"><ele>13.0</ele><time>2026-05-01T15:30:45.196Z</time></trkpt><trkpt lat="39.2524267" lon="9.1769381"><ele>12.999999999999998</ele><time>2026-05-01T15:30:46.197Z</time></trkpt><trkpt lat="39.252485" lon="9.177029"><ele>13.0</ele><time>2026-05-01T15:30:47.196Z</time></trkpt><trkpt lat="39.2525435" lon="9.1771273"><ele>13.4</ele><time>2026-05-01T15:30:48.197Z</time></trkpt><trkpt lat="39.2526053" lon="9.1772264"><ele>13.8</ele><time>2026-05-01T15:30:49.197Z</time></trkpt><trkpt lat="39.2526656" lon="9.1773282"><ele>14.2</ele><time>2026-05-01T15:30:50.197Z</time></trkpt><trkpt lat="39.2527287" lon="9.1774314"><ele>14.6</ele><time>2026-05-01T15:30:51.197Z</time></trkpt><trkpt lat="39.2527903" lon="9.1775384"><ele>15.0</ele><time>2026-05-01T15:30:52.197Z</time></trkpt><trkpt lat="39.2528534" lon="9.177642"><ele>15.0</ele><time>2026-05-01T15:30:53.197Z</time></trkpt><trkpt lat="39.2529164" lon="9.1777547"><ele>15.0</ele><time>2026-05-01T15:30:54.197Z</time></trkpt><trkpt lat="39.252979" lon="9.1778685"><ele>15.0</ele><time>2026-05-01T15:30:55.197Z</time></trkpt><trkpt lat="39.253043" lon="9.1779833"><ele>15.0</ele><time>2026-05-01T15:30:56.196Z</time></trkpt><trkpt lat="39.2531053" lon="9.1781042"><ele>15.0</ele><time>2026-05-01T15:30:57.197Z</time></trkpt><trkpt lat="39.2531611" lon="9.1782102"><ele>15.0</ele><time>2026-05-01T15:30:58.197Z</time></trkpt><trkpt lat="39.2532116" lon="9.17831"><ele>15.0</ele><time>2026-05-01T15:30:59.197Z</time></trkpt><trkpt lat="39.2532574" lon="9.1784093"><ele>15.0</ele><time>2026-05-01T15:31:00.196Z</time></trkpt><trkpt lat="39.2532878" lon="9.178482"><ele>15.0</ele><time>2026-05-01T15:31:01.196Z</time></trkpt><trkpt lat="39.2533504" lon="9.1786059"><ele>15.0</ele><time>2026-05-01T15:31:03.196Z</time></trkpt><trkpt lat="39.2534061" lon="9.1787233"><ele>15.0</ele><time>2026-05-01T15:31:05.196Z</time></trkpt><trkpt lat="39.2534418" lon="9.1787937"><ele>15.0</ele><time>2026-05-01T15:31:06.196Z</time></trkpt><trkpt lat="39.2534821" lon="9.1788744"><ele>15.0</ele><time>2026-05-01T15:31:07.197Z</time></trkpt><trkpt lat="39.2535271" lon="9.1789632"><ele>15.0</ele><time>2026-05-01T15:31:08.197Z</time></trkpt><trkpt lat="39.2535741" lon="9.1790554"><ele>15.0</ele><time>2026-05-01T15:31:09.197Z</time></trkpt><trkpt lat="39.2536175" lon="9.179141"><ele>15.0</ele><time>2026-05-01T15:31:10.197Z</time></trkpt><trkpt lat="39.2536548" lon="9.1792115"><ele>15.0</ele><time>2026-05-01T15:31:11.197Z</time></trkpt><trkpt lat="39.2537233" lon="9.179324"><ele>15.0</ele><time>2026-05-01T15:31:13.196Z</time></trkpt><trkpt lat="39.2537637" lon="9.1793864"><ele>15.0</ele><time>2026-05-01T15:31:14.197Z</time></trkpt><trkpt lat="39.2538091" lon="9.1794555"><ele>15.0</ele><time>2026-05-01T15:31:15.197Z</time></trkpt><trkpt lat="39.2538569" lon="9.179533"><ele>15.0</ele><time>2026-05-01T15:31:16.197Z</time></trkpt><trkpt lat="39.2539101" lon="9.1796127"><ele>15.0</ele><time>2026-05-01T15:31:17.197Z</time></trkpt><trkpt lat="39.2539697" lon="9.179699"><ele>15.2</ele><time>2026-05-01T15:31:18.197Z</time></trkpt><trkpt lat="39.2540304" lon="9.1797895"><ele>15.4</ele><time>2026-05-01T15:31:19.196Z</time></trkpt><trkpt lat="39.2540914" lon="9.1798756"><ele>15.600000000000001</ele><time>2026-05-01T15:31:20.197Z</time></trkpt><trkpt lat="39.2541513" lon="9.1799564"><ele>15.8</ele><time>2026-05-01T15:31:21.196Z</time></trkpt><trkpt lat="39.2542153" lon="9.1800455"><ele>16.0</ele><time>2026-05-01T15:31:22.196Z</time></trkpt><trkpt lat="39.254281" lon="9.1801334"><ele>16.0</ele><time>2026-05-01T15:31:23.196Z</time></trkpt><trkpt lat="39.2543456" lon="9.1802302"><ele>16.0</ele><time>2026-05-01T15:31:24.196Z</time></trkpt><trkpt lat="39.2544136" lon="9.1803176"><ele>16.0</ele><time>2026-05-01T15:31:25.197Z</time></trkpt><trkpt lat="39.2544833" lon="9.1804075"><ele>16.0</ele><time>2026-05-01T15:31:26.197Z</time></trkpt><trkpt lat="39.2545523" lon="9.1805012"><ele>16.0</ele><time>2026-05-01T15:31:27.197Z</time></trkpt><trkpt lat="39.2546224" lon="9.1805951"><ele>16.2</ele><time>2026-05-01T15:31:28.197Z</time></trkpt><trkpt lat="39.2546942" lon="9.1806875"><ele>16.400000000000002</ele><time>2026-05-01T15:31:29.197Z</time></trkpt><trkpt lat="39.2547666" lon="9.1807819"><ele>16.6</ele><time>2026-05-01T15:31:30.196Z</time></trkpt><trkpt lat="39.2548419" lon="9.1808807"><ele>16.8</ele><time>2026-05-01T15:31:31.196Z</time></trkpt><trkpt lat="39.254915" lon="9.1809783"><ele>17.0</ele><time>2026-05-01T15:31:32.197Z</time></trkpt><trkpt lat="39.2549894" lon="9.1810754"><ele>17.4</ele><time>2026-05-01T15:31:33.196Z</time></trkpt><trkpt lat="39.2550617" lon="9.181172"><ele>17.799999999999997</ele><time>2026-05-01T15:31:34.196Z</time></trkpt><trkpt lat="39.2551295" lon="9.1812684"><ele>18.2</ele><time>2026-05-01T15:31:35.197Z</time></trkpt><trkpt lat="39.2552046" lon="9.1813713"><ele>18.599999999999998</ele><time>2026-05-01T15:31:36.197Z</time></trkpt><trkpt lat="39.2552838" lon="9.1814738"><ele>19.0</ele><time>2026-05-01T15:31:37.197Z</time></trkpt><trkpt lat="39.2553592" lon="9.1815688"><ele>19.166666666666664</ele><time>2026-05-01T15:31:38.196Z</time></trkpt><trkpt lat="39.2554249" lon="9.1816565"><ele>19.333333333333332</ele><time>2026-05-01T15:31:39.196Z</time></trkpt><trkpt lat="39.2554888" lon="9.1817424"><ele>19.5</ele><time>2026-05-01T15:31:40.196Z</time></trkpt><trkpt lat="39.2555464" lon="9.1818208"><ele>19.666666666666668</ele><time>2026-05-01T15:31:41.197Z</time></trkpt><trkpt lat="39.2555937" lon="9.1818966"><ele>19.833333333333336</ele><time>2026-05-01T15:31:42.196Z</time></trkpt><trkpt lat="39.2556347" lon="9.1819655"><ele>20.0</ele><time>2026-05-01T15:31:43.197Z</time></trkpt><trkpt lat="39.255708" lon="9.182086"><ele>20.0</ele><time>2026-05-01T15:31:45.196Z</time></trkpt><trkpt lat="39.2557715" lon="9.1821951"><ele>20.0</ele><time>2026-05-01T15:31:47.197Z</time></trkpt><trkpt lat="39.2558235" lon="9.1822881"><ele>20.0</ele><time>2026-05-01T15:31:49.196Z</time></trkpt><trkpt lat="39.2558752" lon="9.1823608"><ele>20.0</ele><time>2026-05-01T15:31:56.196Z</time></trkpt><trkpt lat="39.2559194" lon="9.1824339"><ele>20.0</ele><time>2026-05-01T15:31:58.197Z</time></trkpt><trkpt lat="39.2559862" lon="9.182539"><ele>20.0</ele><time>2026-05-01T15:32:00.197Z</time></trkpt><trkpt lat="39.2560268" lon="9.1826012"><ele>20.2</ele><time>2026-05-01T15:32:01.197Z</time></trkpt><trkpt lat="39.2561062" lon="9.1827256"><ele>20.4</ele><time>2026-05-01T15:32:03.197Z</time></trkpt><trkpt lat="39.2561474" lon="9.182799"><ele>20.6</ele><time>2026-05-01T15:32:04.197Z</time></trkpt><trkpt lat="39.2562063" lon="9.1828984"><ele>20.8</ele><time>2026-05-01T15:32:06.196Z</time></trkpt><trkpt lat="39.2562624" lon="9.1830031"><ele>21.0</ele><time>2026-05-01T15:32:09.196Z</time></trkpt><trkpt lat="39.2563268" lon="9.1831212"><ele>21.0</ele><time>2026-05-01T15:32:11.197Z</time></trkpt><trkpt lat="39.2563659" lon="9.1831941"><ele>21.0</ele><time>2026-05-01T15:32:12.197Z</time></trkpt><trkpt lat="39.2564142" lon="9.183283"><ele>21.0</ele><time>2026-05-01T15:32:13.196Z</time></trkpt><trkpt lat="39.2564656" lon="9.1833795"><ele>21.0</ele><time>2026-05-01T15:32:14.196Z</time></trkpt><trkpt lat="39.256518" lon="9.1834784"><ele>21.0</ele><time>2026-05-01T15:32:15.197Z</time></trkpt><trkpt lat="39.2565731" lon="9.1835754"><ele>21.0</ele><time>2026-05-01T15:32:16.196Z</time></trkpt><trkpt lat="39.2566242" lon="9.1836693"><ele>21.0</ele><time>2026-05-01T15:32:17.196Z</time></trkpt><trkpt lat="39.256672" lon="9.1837559"><ele>21.0</ele><time>2026-05-01T15:32:18.196Z</time></trkpt><trkpt lat="39.2567194" lon="9.1838436"><ele>21.0</ele><time>2026-05-01T15:32:19.197Z</time></trkpt><trkpt lat="39.256766" lon="9.1839312"><ele>21.0</ele><time>2026-05-01T15:32:20.197Z</time></trkpt><trkpt lat="39.256819" lon="9.1840221"><ele>21.0</ele><time>2026-05-01T15:32:21.196Z</time></trkpt><trkpt lat="39.2568772" lon="9.1841158"><ele>21.0</ele><time>2026-05-01T15:32:22.197Z</time></trkpt><trkpt lat="39.2569365" lon="9.1842194"><ele>21.0</ele><time>2026-05-01T15:32:23.196Z</time></trkpt><trkpt lat="39.2569972" lon="9.1843281"><ele>21.0</ele><time>2026-05-01T15:32:24.197Z</time></trkpt><trkpt lat="39.2570577" lon="9.1844389"><ele>21.0</ele><time>2026-05-01T15:32:25.197Z</time></trkpt><trkpt lat="39.2571203" lon="9.1845551"><ele>21.0</ele><time>2026-05-01T15:32:26.196Z</time></trkpt><trkpt lat="39.2571871" lon="9.1846763"><ele>21.0</ele><time>2026-05-01T15:32:27.197Z</time></trkpt><trkpt lat="39.257254" lon="9.1847925"><ele>21.4</ele><time>2026-05-01T15:32:28.197Z</time></trkpt><trkpt lat="39.2573166" lon="9.1849049"><ele>21.8</ele><time>2026-05-01T15:32:29.196Z</time></trkpt><trkpt lat="39.2573805" lon="9.1850176"><ele>22.2</ele><time>2026-05-01T15:32:30.197Z</time></trkpt><trkpt lat="39.257436" lon="9.1851168"><ele>22.599999999999998</ele><time>2026-05-01T15:32:31.197Z</time></trkpt><trkpt lat="39.2574842" lon="9.185203"><ele>23.0</ele><time>2026-05-01T15:32:32.197Z</time></trkpt><trkpt lat="39.2575246" lon="9.1852772"><ele>23.0</ele><time>2026-05-01T15:32:33.197Z</time></trkpt><trkpt lat="39.2575957" lon="9.1854009"><ele>23.0</ele><time>2026-05-01T15:32:35.197Z</time></trkpt><trkpt lat="39.2576349" lon="9.1854653"><ele>23.0</ele><time>2026-05-01T15:32:36.196Z</time></trkpt><trkpt lat="39.2576762" lon="9.1855389"><ele>23.0</ele><time>2026-05-01T15:32:37.197Z</time></trkpt><trkpt lat="39.2577192" lon="9.185621"><ele>23.0</ele><time>2026-05-01T15:32:38.196Z</time></trkpt><trkpt lat="39.2577675" lon="9.1857077"><ele>23.0</ele><time>2026-05-01T15:32:39.196Z</time></trkpt><trkpt lat="39.2578202" lon="9.1858021"><ele>22.599999999999998</ele><time>2026-05-01T15:32:40.196Z</time></trkpt><trkpt lat="39.2578769" lon="9.1859034"><ele>22.2</ele><time>2026-05-01T15:32:41.197Z</time></trkpt><trkpt lat="39.2579362" lon="9.186008"><ele>21.8</ele><time>2026-05-01T15:32:42.197Z</time></trkpt><trkpt lat="39.2579954" lon="9.1861128"><ele>21.4</ele><time>2026-05-01T15:32:43.197Z</time></trkpt><trkpt lat="39.2580475" lon="9.1862201"><ele>21.0</ele><time>2026-05-01T15:32:44.196Z</time></trkpt><trkpt lat="39.2580988" lon="9.1863297"><ele>21.0</ele><time>2026-05-01T15:32:45.197Z</time></trkpt><trkpt lat="39.2581541" lon="9.1864372"><ele>21.0</ele><time>2026-05-01T15:32:46.196Z</time></trkpt><trkpt lat="39.2582049" lon="9.1865538"><ele>21.0</ele><time>2026-05-01T15:32:47.197Z</time></trkpt><trkpt lat="39.2582418" lon="9.1866676"><ele>21.0</ele><time>2026-05-01T15:32:48.196Z</time></trkpt><trkpt lat="39.2582653" lon="9.1867716"><ele>21.0</ele><time>2026-05-01T15:32:49.196Z</time></trkpt><trkpt lat="39.258282" lon="9.1868637"><ele>20.833333333333332</ele><time>2026-05-01T15:32:50.197Z</time></trkpt><trkpt lat="39.2583098" lon="9.1869979"><ele>20.666666666666668</ele><time>2026-05-01T15:32:52.196Z</time></trkpt><trkpt lat="39.2583324" lon="9.1870974"><ele>20.5</ele><time>2026-05-01T15:32:55.196Z</time></trkpt><trkpt lat="39.2583602" lon="9.1871928"><ele>20.333333333333336</ele><time>2026-05-01T15:33:29.197Z</time></trkpt><trkpt lat="39.2584168" lon="9.187324"><ele>20.166666666666668</ele><time>2026-05-01T15:33:31.196Z</time></trkpt><trkpt lat="39.2584531" lon="9.1873907"><ele>20.0</ele><time>2026-05-01T15:33:32.196Z</time></trkpt><trkpt lat="39.2584936" lon="9.1874666"><ele>20.333333333333336</ele><time>2026-05-01T15:33:33.196Z</time></trkpt><trkpt lat="39.2585272" lon="9.1875438"><ele>20.666666666666668</ele><time>2026-05-01T15:33:34.196Z</time></trkpt><trkpt lat="39.258532" lon="9.1877022"><ele>21.0</ele><time>2026-05-01T15:33:36.196Z</time></trkpt><trkpt lat="39.2585001" lon="9.1877812"><ele>21.333333333333332</ele><time>2026-05-01T15:33:37.196Z</time></trkpt><trkpt lat="39.2584476" lon="9.1878574"><ele>21.666666666666664</ele><time>2026-05-01T15:33:38.197Z</time></trkpt><trkpt lat="39.2583837" lon="9.1879398"><ele>22.0</ele><time>2026-05-01T15:33:39.196Z</time></trkpt><trkpt lat="39.2583107" lon="9.1880315"><ele>22.0</ele><time>2026-05-01T15:33:40.196Z</time></trkpt><trkpt lat="39.2582312" lon="9.1881283"><ele>22.0</ele><time>2026-05-01T15:33:41.196Z</time></trkpt><trkpt lat="39.2581459" lon="9.1882251"><ele>22.0</ele><time>2026-05-01T15:33:42.196Z</time></trkpt><trkpt lat="39.2580533" lon="9.1883278"><ele>22.0</ele><time>2026-05-01T15:33:43.197Z</time></trkpt><trkpt lat="39.2579565" lon="9.1884367"><ele>22.0</ele><time>2026-05-01T15:33:44.197Z</time></trkpt><trkpt lat="39.2578571" lon="9.1885541"><ele>22.0</ele><time>2026-05-01T15:33:45.196Z</time></trkpt><trkpt lat="39.257753" lon="9.1886747"><ele>22.0</ele><time>2026-05-01T15:33:46.197Z</time></trkpt><trkpt lat="39.2576453" lon="9.1888014"><ele>22.0</ele><time>2026-05-01T15:33:47.196Z</time></trkpt><trkpt lat="39.2575364" lon="9.1889345"><ele>22.25</ele><time>2026-05-01T15:33:48.196Z</time></trkpt><trkpt lat="39.257432" lon="9.1890623"><ele>22.5</ele><time>2026-05-01T15:33:49.196Z</time></trkpt><trkpt lat="39.2573319" lon="9.1891835"><ele>22.75</ele><time>2026-05-01T15:33:50.197Z</time></trkpt><trkpt lat="39.2572279" lon="9.1893009"><ele>23.0</ele><time>2026-05-01T15:33:51.196Z</time></trkpt><trkpt lat="39.2571199" lon="9.1894001"><ele>21.75</ele><time>2026-05-01T15:33:52.196Z</time></trkpt><trkpt lat="39.2570089" lon="9.189481"><ele>20.5</ele><time>2026-05-01T15:33:53.197Z</time></trkpt><trkpt lat="39.2568912" lon="9.1895389"><ele>19.25</ele><time>2026-05-01T15:33:54.197Z</time></trkpt><trkpt lat="39.2567645" lon="9.1895756"><ele>18.0</ele><time>2026-05-01T15:33:55.196Z</time></trkpt><trkpt lat="39.2566334" lon="9.1895915"><ele>18.0</ele><time>2026-05-01T15:33:56.196Z</time></trkpt><trkpt lat="39.256496" lon="9.1895902"><ele>18.0</ele><time>2026-05-01T15:33:57.196Z</time></trkpt><trkpt lat="39.2563516" lon="9.1895786"><ele>18.0</ele><time>2026-05-01T15:33:58.197Z</time></trkpt><trkpt lat="39.2561911" lon="9.1895617"><ele>18.0</ele><time>2026-05-01T15:33:59.197Z</time></trkpt><trkpt lat="39.2560305" lon="9.1895435"><ele>17.75</ele><time>2026-05-01T15:34:00.197Z</time></trkpt><trkpt lat="39.2558784" lon="9.1895357"><ele>17.5</ele><time>2026-05-01T15:34:01.196Z</time></trkpt><trkpt lat="39.2557343" lon="9.1895519"><ele>17.25</ele><time>2026-05-01T15:34:02.196Z</time></trkpt><trkpt lat="39.2555952" lon="9.1895892"><ele>17.0</ele><time>2026-05-01T15:34:03.196Z</time></trkpt><trkpt lat="39.2554603" lon="9.1896506"><ele>17.0</ele><time>2026-05-01T15:34:04.197Z</time></trkpt><trkpt lat="39.2553336" lon="9.1897341"><ele>17.0</ele><time>2026-05-01T15:34:05.197Z</time></trkpt><trkpt lat="39.255213" lon="9.1898368"><ele>17.0</ele><time>2026-05-01T15:34:06.196Z</time></trkpt><trkpt lat="39.2551105" lon="9.1899495"><ele>17.0</ele><time>2026-05-01T15:34:07.196Z</time></trkpt><trkpt lat="39.2550343" lon="9.1900812"><ele>17.0</ele><time>2026-05-01T15:34:08.197Z</time></trkpt><trkpt lat="39.2549803" lon="9.1902248"><ele>17.0</ele><time>2026-05-01T15:34:09.197Z</time></trkpt><trkpt lat="39.2549593" lon="9.1903755"><ele>17.0</ele><time>2026-05-01T15:34:10.197Z</time></trkpt><trkpt lat="39.2549637" lon="9.1905344"><ele>17.0</ele><time>2026-05-01T15:34:11.197Z</time></trkpt><trkpt lat="39.2549938" lon="9.1906823"><ele>17.0</ele><time>2026-05-01T15:34:12.197Z</time></trkpt><trkpt lat="39.2550476" lon="9.1908262"><ele>17.0</ele><time>2026-05-01T15:34:13.197Z</time></trkpt><trkpt lat="39.2551169" lon="9.1909668"><ele>17.0</ele><time>2026-05-01T15:34:14.196Z</time></trkpt><trkpt lat="39.2552" lon="9.1910958"><ele>17.0</ele><time>2026-05-01T15:34:15.196Z</time></trkpt><trkpt lat="39.2552893" lon="9.1912269"><ele>17.0</ele><time>2026-05-01T15:34:16.196Z</time></trkpt><trkpt lat="39.2553827" lon="9.191359"><ele>17.0</ele><time>2026-05-01T15:34:17.196Z</time></trkpt><trkpt lat="39.2554781" lon="9.1914949"><ele>17.0</ele><time>2026-05-01T15:34:18.196Z</time></trkpt><trkpt lat="39.2555788" lon="9.191636"><ele>17.0</ele><time>2026-05-01T15:34:19.196Z</time></trkpt><trkpt lat="39.2556848" lon="9.1917824"><ele>18.333333333333336</ele><time>2026-05-01T15:34:20.196Z</time></trkpt><trkpt lat="39.2557938" lon="9.1919322"><ele>19.666666666666668</ele><time>2026-05-01T15:34:21.197Z</time></trkpt><trkpt lat="39.2559047" lon="9.192085"><ele>21.0</ele><time>2026-05-01T15:34:22.196Z</time></trkpt><trkpt lat="39.2560153" lon="9.192236"><ele>21.666666666666668</ele><time>2026-05-01T15:34:23.197Z</time></trkpt><trkpt lat="39.2561282" lon="9.192389"><ele>22.333333333333336</ele><time>2026-05-01T15:34:24.196Z</time></trkpt><trkpt lat="39.2562403" lon="9.1925417"><ele>23.0</ele><time>2026-05-01T15:34:25.196Z</time></trkpt><trkpt lat="39.2563552" lon="9.1926941"><ele>23.0</ele><time>2026-05-01T15:34:26.196Z</time></trkpt><trkpt lat="39.2564742" lon="9.1928443"><ele>23.0</ele><time>2026-05-01T15:34:27.196Z</time></trkpt><trkpt lat="39.2565968" lon="9.1929872"><ele>23.0</ele><time>2026-05-01T15:34:28.197Z</time></trkpt><trkpt lat="39.2567252" lon="9.1931222"><ele>23.666666666666668</ele><time>2026-05-01T15:34:29.196Z</time></trkpt><trkpt lat="39.2568576" lon="9.1932653"><ele>24.333333333333336</ele><time>2026-05-01T15:34:30.196Z</time></trkpt><trkpt lat="39.2569926" lon="9.1933929"><ele>25.0</ele><time>2026-05-01T15:34:31.197Z</time></trkpt><trkpt lat="39.2571318" lon="9.1935153"><ele>25.0</ele><time>2026-05-01T15:34:32.197Z</time></trkpt><trkpt lat="39.2572732" lon="9.1936339"><ele>25.0</ele><time>2026-05-01T15:34:33.196Z</time></trkpt><trkpt lat="39.2574186" lon="9.1937473"><ele>25.0</ele><time>2026-05-01T15:34:34.197Z</time></trkpt><trkpt lat="39.2575676" lon="9.1938522"><ele>24.666666666666668</ele><time>2026-05-01T15:34:35.197Z</time></trkpt><trkpt lat="39.2577218" lon="9.193947"><ele>24.333333333333336</ele><time>2026-05-01T15:34:36.196Z</time></trkpt><trkpt lat="39.2578788" lon="9.1940376"><ele>24.0</ele><time>2026-05-01T15:34:37.197Z</time></trkpt><trkpt lat="39.2580407" lon="9.1941218"><ele>25.333333333333336</ele><time>2026-05-01T15:34:38.197Z</time></trkpt><trkpt lat="39.2582061" lon="9.1942013"><ele>26.666666666666668</ele><time>2026-05-01T15:34:39.197Z</time></trkpt><trkpt lat="39.2583765" lon="9.1942791"><ele>28.0</ele><time>2026-05-01T15:34:40.197Z</time></trkpt><trkpt lat="39.2585494" lon="9.1943561"><ele>28.0</ele><time>2026-05-01T15:34:41.196Z</time></trkpt><trkpt lat="39.2587255" lon="9.1944301"><ele>28.0</ele><time>2026-05-01T15:34:42.196Z</time></trkpt><trkpt lat="39.2589087" lon="9.1945084"><ele>28.0</ele><time>2026-05-01T15:34:43.196Z</time></trkpt><trkpt lat="39.259091" lon="9.1945849"><ele>29.0</ele><time>2026-05-01T15:34:44.197Z</time></trkpt><trkpt lat="39.2592721" lon="9.1946608"><ele>30.0</ele><time>2026-05-01T15:34:45.196Z</time></trkpt><trkpt lat="39.2594577" lon="9.1947397"><ele>31.0</ele><time>2026-05-01T15:34:46.197Z</time></trkpt><trkpt lat="39.2596439" lon="9.1948169"><ele>31.0</ele><time>2026-05-01T15:34:47.197Z</time></trkpt><trkpt lat="39.2598308" lon="9.1948974"><ele>31.0</ele><time>2026-05-01T15:34:48.196Z</time></trkpt><trkpt lat="39.2600173" lon="9.1949763"><ele>31.0</ele><time>2026-05-01T15:34:49.196Z</time></trkpt><trkpt lat="39.2602018" lon="9.1950512"><ele>31.0</ele><time>2026-05-01T15:34:50.196Z</time></trkpt><trkpt lat="39.2603875" lon="9.1951291"><ele>31.0</ele><time>2026-05-01T15:34:51.197Z</time></trkpt><trkpt lat="39.2605728" lon="9.1952055"><ele>31.0</ele><time>2026-05-01T15:34:52.196Z</time></trkpt><trkpt lat="39.2607561" lon="9.1952821"><ele>31.333333333333336</ele><time>2026-05-01T15:34:53.197Z</time></trkpt><trkpt lat="39.2609378" lon="9.1953608"><ele>31.666666666666664</ele><time>2026-05-01T15:34:54.197Z</time></trkpt><trkpt lat="39.26112" lon="9.195439"><ele>32.0</ele><time>2026-05-01T15:34:55.197Z</time></trkpt><trkpt lat="39.2613044" lon="9.1955143"><ele>32.33333333333333</ele><time>2026-05-01T15:34:56.196Z</time></trkpt><trkpt lat="39.2614944" lon="9.1955934"><ele>32.666666666666664</ele><time>2026-05-01T15:34:57.196Z</time></trkpt><trkpt lat="39.2616973" lon="9.1956716"><ele>33.0</ele><time>2026-05-01T15:34:58.196Z</time></trkpt><trkpt lat="39.2619161" lon="9.1957561"><ele>34.5</ele><time>2026-05-01T15:34:59.197Z</time></trkpt><trkpt lat="39.2621421" lon="9.1958443"><ele>36.0</ele><time>2026-05-01T15:35:00.197Z</time></trkpt><trkpt lat="39.2623743" lon="9.1959441"><ele>36.5</ele><time>2026-05-01T15:35:01.196Z</time></trkpt><trkpt lat="39.2626118" lon="9.1960486"><ele>37.0</ele><time>2026-05-01T15:35:02.197Z</time></trkpt><trkpt lat="39.2628521" lon="9.196153"><ele>37.0</ele><time>2026-05-01T15:35:03.197Z</time></trkpt><trkpt lat="39.2630942" lon="9.1962582"><ele>37.0</ele><time>2026-05-01T15:35:04.197Z</time></trkpt><trkpt lat="39.2633369" lon="9.1963628"><ele>37.5</ele><time>2026-05-01T15:35:05.196Z</time></trkpt><trkpt lat="39.2635788" lon="9.1964686"><ele>38.0</ele><time>2026-05-01T15:35:06.196Z</time></trkpt><trkpt lat="39.2638191" lon="9.1965712"><ele>41.0</ele><time>2026-05-01T15:35:07.196Z</time></trkpt><trkpt lat="39.2640584" lon="9.196672"><ele>44.0</ele><time>2026-05-01T15:35:08.196Z</time></trkpt><trkpt lat="39.2642921" lon="9.1967704"><ele>44.0</ele><time>2026-05-01T15:35:09.196Z</time></trkpt><trkpt lat="39.2645201" lon="9.1968664"><ele>44.0</ele><time>2026-05-01T15:35:10.197Z</time></trkpt><trkpt lat="39.2647424" lon="9.1969615"><ele>43.5</ele><time>2026-05-01T15:35:11.197Z</time></trkpt><trkpt lat="39.2649597" lon="9.1970558"><ele>43.0</ele><time>2026-05-01T15:35:12.197Z</time></trkpt><trkpt lat="39.2651728" lon="9.1971478"><ele>43.0</ele><time>2026-05-01T15:35:13.197Z</time></trkpt><trkpt lat="39.2653802" lon="9.1972439"><ele>43.0</ele><time>2026-05-01T15:35:14.196Z</time></trkpt><trkpt lat="39.2655858" lon="9.1973491"><ele>43.0</ele><time>2026-05-01T15:35:15.196Z</time></trkpt><trkpt lat="39.265782" lon="9.1974582"><ele>44.66666666666667</ele><time>2026-05-01T15:35:16.196Z</time></trkpt><trkpt lat="39.2659736" lon="9.1975775"><ele>46.333333333333336</ele><time>2026-05-01T15:35:17.196Z</time></trkpt><trkpt lat="39.2661578" lon="9.1977038"><ele>48.0</ele><time>2026-05-01T15:35:18.197Z</time></trkpt><trkpt lat="39.2663385" lon="9.1978384"><ele>49.0</ele><time>2026-05-01T15:35:19.197Z</time></trkpt><trkpt lat="39.266515" lon="9.1979844"><ele>50.0</ele><time>2026-05-01T15:35:20.196Z</time></trkpt><trkpt lat="39.2666876" lon="9.19814"><ele>51.0</ele><time>2026-05-01T15:35:21.197Z</time></trkpt><trkpt lat="39.2668567" lon="9.1983"><ele>51.0</ele><time>2026-05-01T15:35:22.197Z</time></trkpt><trkpt lat="39.267023" lon="9.1984674"><ele>51.0</ele><time>2026-05-01T15:35:23.196Z</time></trkpt><trkpt lat="39.2671842" lon="9.1986417"><ele>51.0</ele><time>2026-05-01T15:35:24.197Z</time></trkpt><trkpt lat="39.2673352" lon="9.1988138"><ele>50.0</ele><time>2026-05-01T15:35:25.196Z</time></trkpt><trkpt lat="39.2674849" lon="9.1989958"><ele>49.0</ele><time>2026-05-01T15:35:26.197Z</time></trkpt><trkpt lat="39.2676302" lon="9.199186"><ele>48.0</ele><time>2026-05-01T15:35:27.197Z</time></trkpt><trkpt lat="39.2677717" lon="9.1993829"><ele>47.333333333333336</ele><time>2026-05-01T15:35:28.196Z</time></trkpt><trkpt lat="39.2679078" lon="9.1995872"><ele>46.66666666666667</ele><time>2026-05-01T15:35:29.197Z</time></trkpt><trkpt lat="39.2680383" lon="9.199797"><ele>46.0</ele><time>2026-05-01T15:35:30.196Z</time></trkpt><trkpt lat="39.2681641" lon="9.2000158"><ele>44.66666666666667</ele><time>2026-05-01T15:35:31.196Z</time></trkpt><trkpt lat="39.2682824" lon="9.2002409"><ele>43.333333333333336</ele><time>2026-05-01T15:35:32.197Z</time></trkpt><trkpt lat="39.2683962" lon="9.2004726"><ele>42.0</ele><time>2026-05-01T15:35:33.197Z</time></trkpt><trkpt lat="39.2685059" lon="9.2007099"><ele>42.0</ele><time>2026-05-01T15:35:34.196Z</time></trkpt><trkpt lat="39.26861" lon="9.2009517"><ele>42.0</ele><time>2026-05-01T15:35:35.196Z</time></trkpt><trkpt lat="39.2687091" lon="9.2011977"><ele>42.0</ele><time>2026-05-01T15:35:36.196Z</time></trkpt><trkpt lat="39.2688003" lon="9.2014497"><ele>42.0</ele><time>2026-05-01T15:35:37.197Z</time></trkpt><trkpt lat="39.2688832" lon="9.2017059"><ele>42.0</ele><time>2026-05-01T15:35:38.196Z</time></trkpt><trkpt lat="39.2689591" lon="9.2019677"><ele>42.0</ele><time>2026-05-01T15:35:39.196Z</time></trkpt><trkpt lat="39.269031" lon="9.2022386"><ele>43.0</ele><time>2026-05-01T15:35:40.197Z</time></trkpt><trkpt lat="39.2690903" lon="9.202498"><ele>44.0</ele><time>2026-05-01T15:35:41.196Z</time></trkpt><trkpt lat="39.2691403" lon="9.2027505"><ele>45.0</ele><time>2026-05-01T15:35:42.197Z</time></trkpt><trkpt lat="39.2691858" lon="9.2030056"><ele>44.666666666666664</ele><time>2026-05-01T15:35:43.196Z</time></trkpt><trkpt lat="39.2692223" lon="9.2032557"><ele>44.33333333333333</ele><time>2026-05-01T15:35:44.196Z</time></trkpt><trkpt lat="39.2692524" lon="9.2035002"><ele>44.0</ele><time>2026-05-01T15:35:45.197Z</time></trkpt><trkpt lat="39.2692767" lon="9.2037302"><ele>44.0</ele><time>2026-05-01T15:35:46.197Z</time></trkpt><trkpt lat="39.2692973" lon="9.2039522"><ele>44.0</ele><time>2026-05-01T15:35:47.197Z</time></trkpt><trkpt lat="39.2693132" lon="9.2041724"><ele>44.0</ele><time>2026-05-01T15:35:48.197Z</time></trkpt><trkpt lat="39.2693236" lon="9.2043775"><ele>44.25</ele><time>2026-05-01T15:35:49.197Z</time></trkpt><trkpt lat="39.2693302" lon="9.2045746"><ele>44.5</ele><time>2026-05-01T15:35:50.197Z</time></trkpt><trkpt lat="39.2693333" lon="9.2047403"><ele>44.75</ele><time>2026-05-01T15:35:51.197Z</time></trkpt><trkpt lat="39.2693339" lon="9.2048815"><ele>45.0</ele><time>2026-05-01T15:35:52.197Z</time></trkpt><trkpt lat="39.2693325" lon="9.2049943"><ele>45.666666666666664</ele><time>2026-05-01T15:35:53.197Z</time></trkpt><trkpt lat="39.2693295" lon="9.205084"><ele>46.33333333333333</ele><time>2026-05-01T15:35:54.197Z</time></trkpt><trkpt lat="39.2693243" lon="9.205215"><ele>47.0</ele><time>2026-05-01T15:35:56.196Z</time></trkpt><trkpt lat="39.2693194" lon="9.2053199"><ele>47.666666666666664</ele><time>2026-05-01T15:35:58.196Z</time></trkpt><trkpt lat="39.2693103" lon="9.2054649"><ele>48.33333333333333</ele><time>2026-05-01T15:36:00.196Z</time></trkpt><trkpt lat="39.2693037" lon="9.2055578"><ele>49.0</ele><time>2026-05-01T15:36:01.197Z</time></trkpt><trkpt lat="39.2692946" lon="9.2056756"><ele>49.5</ele><time>2026-05-01T15:36:02.197Z</time></trkpt><trkpt lat="39.2692834" lon="9.2058173"><ele>50.0</ele><time>2026-05-01T15:36:03.196Z</time></trkpt><trkpt lat="39.2692717" lon="9.2059645"><ele>50.5</ele><time>2026-05-01T15:36:04.197Z</time></trkpt><trkpt lat="39.2692585" lon="9.2061241"><ele>51.0</ele><time>2026-05-01T15:36:05.197Z</time></trkpt><trkpt lat="39.2692454" lon="9.2062941"><ele>51.0</ele><time>2026-05-01T15:36:06.197Z</time></trkpt><trkpt lat="39.2692318" lon="9.2064704"><ele>51.0</ele><time>2026-05-01T15:36:07.196Z</time></trkpt><trkpt lat="39.2692173" lon="9.2066541"><ele>51.0</ele><time>2026-05-01T15:36:08.197Z</time></trkpt><trkpt lat="39.2691992" lon="9.2068421"><ele>51.0</ele><time>2026-05-01T15:36:09.196Z</time></trkpt><trkpt lat="39.2691815" lon="9.2070373"><ele>52.0</ele><time>2026-05-01T15:36:10.197Z</time></trkpt><trkpt lat="39.2691677" lon="9.2072616"><ele>53.0</ele><time>2026-05-01T15:36:11.197Z</time></trkpt><trkpt lat="39.2691517" lon="9.2075106"><ele>54.0</ele><time>2026-05-01T15:36:12.197Z</time></trkpt><trkpt lat="39.2691334" lon="9.207788"><ele>54.0</ele><time>2026-05-01T15:36:13.196Z</time></trkpt><trkpt lat="39.2691074" lon="9.2080857"><ele>54.0</ele><time>2026-05-01T15:36:14.196Z</time></trkpt><trkpt lat="39.2690784" lon="9.2084032"><ele>54.0</ele><time>2026-05-01T15:36:15.196Z</time></trkpt><trkpt lat="39.2690467" lon="9.2087418"><ele>54.0</ele><time>2026-05-01T15:36:16.197Z</time></trkpt><trkpt lat="39.2690123" lon="9.2090865"><ele>54.0</ele><time>2026-05-01T15:36:17.196Z</time></trkpt><trkpt lat="39.2689771" lon="9.2094201"><ele>54.0</ele><time>2026-05-01T15:36:18.197Z</time></trkpt><trkpt lat="39.2689438" lon="9.2097405"><ele>51.5</ele><time>2026-05-01T15:36:19.197Z</time></trkpt><trkpt lat="39.2689148" lon="9.2100588"><ele>49.0</ele><time>2026-05-01T15:36:20.197Z</time></trkpt><trkpt lat="39.268887" lon="9.2103667"><ele>48.5</ele><time>2026-05-01T15:36:21.197Z</time></trkpt><trkpt lat="39.2688613" lon="9.2106689"><ele>48.0</ele><time>2026-05-01T15:36:22.196Z</time></trkpt><trkpt lat="39.2688372" lon="9.2109655"><ele>48.0</ele><time>2026-05-01T15:36:23.197Z</time></trkpt><trkpt lat="39.2688123" lon="9.2112629"><ele>48.0</ele><time>2026-05-01T15:36:24.197Z</time></trkpt><trkpt lat="39.2687868" lon="9.2115531"><ele>48.0</ele><time>2026-05-01T15:36:25.197Z</time></trkpt><trkpt lat="39.2687584" lon="9.2118415"><ele>48.0</ele><time>2026-05-01T15:36:26.197Z</time></trkpt><trkpt lat="39.2687271" lon="9.212127"><ele>48.0</ele><time>2026-05-01T15:36:27.197Z</time></trkpt><trkpt lat="39.2686885" lon="9.212411"><ele>48.33333333333333</ele><time>2026-05-01T15:36:28.197Z</time></trkpt><trkpt lat="39.2686428" lon="9.2126936"><ele>48.666666666666664</ele><time>2026-05-01T15:36:29.196Z</time></trkpt><trkpt lat="39.2685894" lon="9.2129713"><ele>49.0</ele><time>2026-05-01T15:36:30.197Z</time></trkpt><trkpt lat="39.2685306" lon="9.2132503"><ele>50.0</ele><time>2026-05-01T15:36:31.196Z</time></trkpt><trkpt lat="39.2684631" lon="9.2135287"><ele>51.0</ele><time>2026-05-01T15:36:32.196Z</time></trkpt><trkpt lat="39.2683851" lon="9.2138076"><ele>51.5</ele><time>2026-05-01T15:36:33.196Z</time></trkpt><trkpt lat="39.2683" lon="9.2140782"><ele>52.0</ele><time>2026-05-01T15:36:34.196Z</time></trkpt><trkpt lat="39.2682048" lon="9.2143459"><ele>50.0</ele><time>2026-05-01T15:36:35.196Z</time></trkpt><trkpt lat="39.2681089" lon="9.214593"><ele>48.0</ele><time>2026-05-01T15:36:36.196Z</time></trkpt><trkpt lat="39.2680069" lon="9.2148301"><ele>46.0</ele><time>2026-05-01T15:36:37.197Z</time></trkpt><trkpt lat="39.2679008" lon="9.2150646"><ele>46.0</ele><time>2026-05-01T15:36:38.197Z</time></trkpt><trkpt lat="39.2677895" lon="9.215295"><ele>46.0</ele><time>2026-05-01T15:36:39.196Z</time></trkpt><trkpt lat="39.267676" lon="9.21552"><ele>46.0</ele><time>2026-05-01T15:36:40.197Z</time></trkpt><trkpt lat="39.267557" lon="9.2157364"><ele>46.0</ele><time>2026-05-01T15:36:41.197Z</time></trkpt><trkpt lat="39.2674307" lon="9.2159464"><ele>46.0</ele><time>2026-05-01T15:36:42.197Z</time></trkpt><trkpt lat="39.2672987" lon="9.2161509"><ele>46.0</ele><time>2026-05-01T15:36:43.197Z</time></trkpt><trkpt lat="39.2671605" lon="9.2163487"><ele>45.66666666666667</ele><time>2026-05-01T15:36:44.197Z</time></trkpt><trkpt lat="39.2670156" lon="9.2165439"><ele>45.333333333333336</ele><time>2026-05-01T15:36:45.197Z</time></trkpt><trkpt lat="39.266864" lon="9.2167341"><ele>45.0</ele><time>2026-05-01T15:36:46.197Z</time></trkpt><trkpt lat="39.2667038" lon="9.2169244"><ele>45.0</ele><time>2026-05-01T15:36:47.197Z</time></trkpt><trkpt lat="39.2665421" lon="9.2171053"><ele>45.0</ele><time>2026-05-01T15:36:48.197Z</time></trkpt><trkpt lat="39.2663707" lon="9.217282"><ele>45.0</ele><time>2026-05-01T15:36:49.196Z</time></trkpt><trkpt lat="39.2661976" lon="9.2174521"><ele>44.333333333333336</ele><time>2026-05-01T15:36:50.196Z</time></trkpt><trkpt lat="39.2660248" lon="9.2176188"><ele>43.66666666666667</ele><time>2026-05-01T15:36:51.196Z</time></trkpt><trkpt lat="39.2658541" lon="9.2177874"><ele>43.0</ele><time>2026-05-01T15:36:52.197Z</time></trkpt><trkpt lat="39.2656834" lon="9.217957"><ele>43.0</ele><time>2026-05-01T15:36:53.197Z</time></trkpt><trkpt lat="39.2655126" lon="9.218125"><ele>43.0</ele><time>2026-05-01T15:36:54.197Z</time></trkpt><trkpt lat="39.2653412" lon="9.2182976"><ele>43.0</ele><time>2026-05-01T15:36:55.197Z</time></trkpt><trkpt lat="39.2651697" lon="9.2184722"><ele>43.333333333333336</ele><time>2026-05-01T15:36:56.197Z</time></trkpt><trkpt lat="39.2649965" lon="9.2186484"><ele>43.666666666666664</ele><time>2026-05-01T15:36:57.196Z</time></trkpt><trkpt lat="39.2648208" lon="9.218825"><ele>44.0</ele><time>2026-05-01T15:36:58.197Z</time></trkpt><trkpt lat="39.264647" lon="9.219004"><ele>45.666666666666664</ele><time>2026-05-01T15:36:59.197Z</time></trkpt><trkpt lat="39.264472" lon="9.2191813"><ele>47.33333333333333</ele><time>2026-05-01T15:37:00.197Z</time></trkpt><trkpt lat="39.2642961" lon="9.2193571"><ele>49.0</ele><time>2026-05-01T15:37:01.197Z</time></trkpt><trkpt lat="39.2641207" lon="9.2195296"><ele>49.666666666666664</ele><time>2026-05-01T15:37:02.196Z</time></trkpt><trkpt lat="39.2639455" lon="9.2197003"><ele>50.33333333333333</ele><time>2026-05-01T15:37:03.196Z</time></trkpt><trkpt lat="39.2637731" lon="9.2198747"><ele>51.0</ele><time>2026-05-01T15:37:04.197Z</time></trkpt><trkpt lat="39.2636021" lon="9.2200497"><ele>51.0</ele><time>2026-05-01T15:37:05.197Z</time></trkpt><trkpt lat="39.2634289" lon="9.2202266"><ele>51.0</ele><time>2026-05-01T15:37:06.197Z</time></trkpt><trkpt lat="39.2632537" lon="9.2203993"><ele>51.0</ele><time>2026-05-01T15:37:07.196Z</time></trkpt><trkpt lat="39.2630788" lon="9.2205774"><ele>50.5</ele><time>2026-05-01T15:37:08.196Z</time></trkpt><trkpt lat="39.2629054" lon="9.2207621"><ele>50.0</ele><time>2026-05-01T15:37:09.197Z</time></trkpt><trkpt lat="39.2627376" lon="9.2209574"><ele>50.0</ele><time>2026-05-01T15:37:10.197Z</time></trkpt><trkpt lat="39.2625759" lon="9.2211594"><ele>50.0</ele><time>2026-05-01T15:37:11.197Z</time></trkpt><trkpt lat="39.2624212" lon="9.221376"><ele>47.0</ele><time>2026-05-01T15:37:12.196Z</time></trkpt><trkpt lat="39.2622711" lon="9.2216041"><ele>44.0</ele><time>2026-05-01T15:37:13.196Z</time></trkpt><trkpt lat="39.2621273" lon="9.2218378"><ele>44.0</ele><time>2026-05-01T15:37:14.196Z</time></trkpt><trkpt lat="39.2619896" lon="9.2220746"><ele>44.0</ele><time>2026-05-01T15:37:15.197Z</time></trkpt><trkpt lat="39.2618592" lon="9.2223178"><ele>45.5</ele><time>2026-05-01T15:37:16.197Z</time></trkpt><trkpt lat="39.2617349" lon="9.2225684"><ele>47.0</ele><time>2026-05-01T15:37:17.196Z</time></trkpt><trkpt lat="39.2616175" lon="9.2228213"><ele>47.0</ele><time>2026-05-01T15:37:18.196Z</time></trkpt><trkpt lat="39.2615096" lon="9.2230768"><ele>47.0</ele><time>2026-05-01T15:37:19.197Z</time></trkpt><trkpt lat="39.2614123" lon="9.2233372"><ele>47.0</ele><time>2026-05-01T15:37:20.197Z</time></trkpt><trkpt lat="39.2613211" lon="9.2236033"><ele>46.666666666666664</ele><time>2026-05-01T15:37:21.196Z</time></trkpt><trkpt lat="39.261238" lon="9.2238685"><ele>46.333333333333336</ele><time>2026-05-01T15:37:22.197Z</time></trkpt><trkpt lat="39.2611618" lon="9.2241367"><ele>46.0</ele><time>2026-05-01T15:37:23.197Z</time></trkpt><trkpt lat="39.2610927" lon="9.2244077"><ele>46.0</ele><time>2026-05-01T15:37:24.197Z</time></trkpt><trkpt lat="39.2610292" lon="9.224682"><ele>46.0</ele><time>2026-05-01T15:37:25.197Z</time></trkpt><trkpt lat="39.2609721" lon="9.2249575"><ele>46.0</ele><time>2026-05-01T15:37:26.197Z</time></trkpt><trkpt lat="39.2609254" lon="9.2252335"><ele>46.0</ele><time>2026-05-01T15:37:27.196Z</time></trkpt><trkpt lat="39.2608886" lon="9.225512"><ele>46.0</ele><time>2026-05-01T15:37:28.197Z</time></trkpt><trkpt lat="39.2608609" lon="9.2257924"><ele>46.0</ele><time>2026-05-01T15:37:29.197Z</time></trkpt><trkpt lat="39.2608386" lon="9.2260734"><ele>46.0</ele><time>2026-05-01T15:37:30.197Z</time></trkpt><trkpt lat="39.260824" lon="9.2263552"><ele>46.0</ele><time>2026-05-01T15:37:31.197Z</time></trkpt><trkpt lat="39.2608156" lon="9.2266375"><ele>46.0</ele><time>2026-05-01T15:37:32.196Z</time></trkpt><trkpt lat="39.2608143" lon="9.2269175"><ele>46.333333333333336</ele><time>2026-05-01T15:37:33.197Z</time></trkpt><trkpt lat="39.2608214" lon="9.2271992"><ele>46.666666666666664</ele><time>2026-05-01T15:37:34.197Z</time></trkpt><trkpt lat="39.2608358" lon="9.2274766"><ele>47.0</ele><time>2026-05-01T15:37:35.197Z</time></trkpt><trkpt lat="39.2608551" lon="9.2277519"><ele>47.33333333333333</ele><time>2026-05-01T15:37:36.197Z</time></trkpt><trkpt lat="39.2608764" lon="9.2280258"><ele>47.666666666666664</ele><time>2026-05-01T15:37:37.196Z</time></trkpt><trkpt lat="39.2608974" lon="9.2282974"><ele>48.0</ele><time>2026-05-01T15:37:38.196Z</time></trkpt><trkpt lat="39.2609149" lon="9.2285667"><ele>49.66666666666667</ele><time>2026-05-01T15:37:39.196Z</time></trkpt><trkpt lat="39.2609324" lon="9.228833"><ele>51.333333333333336</ele><time>2026-05-01T15:37:40.196Z</time></trkpt><trkpt lat="39.2609503" lon="9.2291013"><ele>53.0</ele><time>2026-05-01T15:37:41.197Z</time></trkpt><trkpt lat="39.2609678" lon="9.2293698"><ele>53.333333333333336</ele><time>2026-05-01T15:37:42.197Z</time></trkpt><trkpt lat="39.2609872" lon="9.2296394"><ele>53.66666666666667</ele><time>2026-05-01T15:37:43.196Z</time></trkpt><trkpt lat="39.2610083" lon="9.2299126"><ele>54.0</ele><time>2026-05-01T15:37:44.197Z</time></trkpt><trkpt lat="39.2610306" lon="9.2301866"><ele>52.66666666666667</ele><time>2026-05-01T15:37:45.196Z</time></trkpt><trkpt lat="39.2610564" lon="9.2304599"><ele>51.333333333333336</ele><time>2026-05-01T15:37:46.196Z</time></trkpt><trkpt lat="39.2610843" lon="9.2307222"><ele>50.0</ele><time>2026-05-01T15:37:47.196Z</time></trkpt><trkpt lat="39.2611153" lon="9.2309788"><ele>49.333333333333336</ele><time>2026-05-01T15:37:48.196Z</time></trkpt><trkpt lat="39.2611473" lon="9.2312352"><ele>48.66666666666667</ele><time>2026-05-01T15:37:49.196Z</time></trkpt><trkpt lat="39.2611794" lon="9.2314858"><ele>48.0</ele><time>2026-05-01T15:37:50.196Z</time></trkpt><trkpt lat="39.2612076" lon="9.231708"><ele>47.5</ele><time>2026-05-01T15:37:51.197Z</time></trkpt><trkpt lat="39.2612308" lon="9.2319073"><ele>47.0</ele><time>2026-05-01T15:37:52.197Z</time></trkpt><trkpt lat="39.2612538" lon="9.2320919"><ele>46.5</ele><time>2026-05-01T15:37:53.196Z</time></trkpt><trkpt lat="39.261277" lon="9.2322683"><ele>46.0</ele><time>2026-05-01T15:37:54.197Z</time></trkpt><trkpt lat="39.2612996" lon="9.2324362"><ele>45.75</ele><time>2026-05-01T15:37:55.196Z</time></trkpt><trkpt lat="39.2613227" lon="9.2326062"><ele>45.5</ele><time>2026-05-01T15:37:56.196Z</time></trkpt><trkpt lat="39.261345" lon="9.2327808"><ele>45.25</ele><time>2026-05-01T15:37:57.197Z</time></trkpt><trkpt lat="39.2613702" lon="9.2329566"><ele>45.0</ele><time>2026-05-01T15:37:58.197Z</time></trkpt><trkpt lat="39.2613953" lon="9.2331369"><ele>44.75</ele><time>2026-05-01T15:37:59.196Z</time></trkpt><trkpt lat="39.2614177" lon="9.2333185"><ele>44.5</ele><time>2026-05-01T15:38:00.196Z</time></trkpt><trkpt lat="39.2614404" lon="9.233496"><ele>44.25</ele><time>2026-05-01T15:38:01.197Z</time></trkpt><trkpt lat="39.2614633" lon="9.2336693"><ele>44.0</ele><time>2026-05-01T15:38:02.197Z</time></trkpt><trkpt lat="39.2614859" lon="9.2338397"><ele>44.0</ele><time>2026-05-01T15:38:03.197Z</time></trkpt><trkpt lat="39.2615084" lon="9.234008"><ele>44.0</ele><time>2026-05-01T15:38:04.197Z</time></trkpt><trkpt lat="39.2615295" lon="9.2341668"><ele>44.0</ele><time>2026-05-01T15:38:05.196Z</time></trkpt><trkpt lat="39.2615519" lon="9.2343193"><ele>44.0</ele><time>2026-05-01T15:38:06.197Z</time></trkpt><trkpt lat="39.2615721" lon="9.2344701"><ele>44.0</ele><time>2026-05-01T15:38:07.196Z</time></trkpt><trkpt lat="39.2615915" lon="9.2346241"><ele>44.0</ele><time>2026-05-01T15:38:08.197Z</time></trkpt><trkpt lat="39.261613" lon="9.2347812"><ele>44.0</ele><time>2026-05-01T15:38:09.197Z</time></trkpt><trkpt lat="39.2616334" lon="9.2349384"><ele>44.0</ele><time>2026-05-01T15:38:10.197Z</time></trkpt><trkpt lat="39.2616521" lon="9.2350873"><ele>44.0</ele><time>2026-05-01T15:38:11.197Z</time></trkpt><trkpt lat="39.2616707" lon="9.2352151"><ele>44.0</ele><time>2026-05-01T15:38:12.197Z</time></trkpt><trkpt lat="39.2616856" lon="9.2353184"><ele>44.0</ele><time>2026-05-01T15:38:13.196Z</time></trkpt><trkpt lat="39.2616992" lon="9.235453"><ele>44.0</ele><time>2026-05-01T15:38:15.197Z</time></trkpt><trkpt lat="39.2617482" lon="9.2355441"><ele>44.0</ele><time>2026-05-01T15:38:18.196Z</time></trkpt><trkpt lat="39.261807" lon="9.2356084"><ele>44.0</ele><time>2026-05-01T15:38:20.197Z</time></trkpt><trkpt lat="39.2618369" lon="9.2356975"><ele>44.0</ele><time>2026-05-01T15:38:22.197Z</time></trkpt><trkpt lat="39.2618375" lon="9.2357798"><ele>44.0</ele><time>2026-05-01T15:38:24.196Z</time></trkpt><trkpt lat="39.2618665" lon="9.2358644"><ele>44.0</ele><time>2026-05-01T15:38:26.197Z</time></trkpt><trkpt lat="39.2619564" lon="9.2358475"><ele>44.0</ele><time>2026-05-01T15:38:29.197Z</time></trkpt><trkpt lat="39.2619945" lon="9.2357592"><ele>44.0</ele><time>2026-05-01T15:38:31.196Z</time></trkpt><trkpt lat="39.2619855" lon="9.2356534"><ele>44.0</ele><time>2026-05-01T15:38:33.197Z</time></trkpt><trkpt lat="39.2619299" lon="9.2355903"><ele>44.0</ele><time>2026-05-01T15:38:35.197Z</time></trkpt><trkpt lat="39.2618476" lon="9.2356053"><ele>44.0</ele><time>2026-05-01T15:38:38.196Z</time></trkpt><trkpt lat="39.2618182" lon="9.2357014"><ele>44.0</ele><time>2026-05-01T15:38:43.196Z</time></trkpt><trkpt lat="39.2618281" lon="9.2357942"><ele>44.0</ele><time>2026-05-01T15:38:45.197Z</time></trkpt><trkpt lat="39.2618602" lon="9.2358827"><ele>44.0</ele><time>2026-05-01T15:38:48.197Z</time></trkpt><trkpt lat="39.2618834" lon="9.2358062"><ele>44.0</ele><time>2026-05-01T15:41:09.197Z</time></trkpt><trkpt lat="39.2618676" lon="9.2357265"><ele>44.0</ele><time>2026-05-01T15:49:24.197Z</time></trkpt><trkpt lat="39.261867" lon="9.23564"><ele>44.0</ele><time>2026-05-01T15:50:02.197Z</time></trkpt><trkpt lat="39.2618431" lon="9.235511"><ele>44.0</ele><time>2026-05-01T15:50:05.196Z</time></trkpt><trkpt lat="39.2617695" lon="9.2355219"><ele>44.0</ele><time>2026-05-01T15:54:36.197Z</time></trkpt><trkpt lat="39.2617485" lon="9.2356006"><ele>44.0</ele><time>2026-05-01T15:54:38.197Z</time></trkpt><trkpt lat="39.2617445" lon="9.2357878"><ele>44.0</ele><time>2026-05-01T15:54:40.196Z</time></trkpt><trkpt lat="39.2617486" lon="9.2359017"><ele>44.0</ele><time>2026-05-01T15:54:41.196Z</time></trkpt><trkpt lat="39.2617584" lon="9.2360143"><ele>44.0</ele><time>2026-05-01T15:54:42.197Z</time></trkpt><trkpt lat="39.2617715" lon="9.236134"><ele>44.0</ele><time>2026-05-01T15:54:43.196Z</time></trkpt><trkpt lat="39.2617878" lon="9.236258"><ele>44.0</ele><time>2026-05-01T15:54:44.197Z</time></trkpt><trkpt lat="39.2618028" lon="9.2363841"><ele>44.0</ele><time>2026-05-01T15:54:45.197Z</time></trkpt><trkpt lat="39.2618193" lon="9.2365136"><ele>44.0</ele><time>2026-05-01T15:54:46.197Z</time></trkpt><trkpt lat="39.2618382" lon="9.236645"><ele>44.0</ele><time>2026-05-01T15:54:47.196Z</time></trkpt><trkpt lat="39.2618564" lon="9.2367721"><ele>44.0</ele><time>2026-05-01T15:54:48.197Z</time></trkpt><trkpt lat="39.2618723" lon="9.236894"><ele>44.0</ele><time>2026-05-01T15:54:49.196Z</time></trkpt><trkpt lat="39.2618881" lon="9.2370171"><ele>44.0</ele><time>2026-05-01T15:54:50.197Z</time></trkpt><trkpt lat="39.2619027" lon="9.2371384"><ele>44.0</ele><time>2026-05-01T15:54:51.197Z</time></trkpt><trkpt lat="39.2619176" lon="9.2372605"><ele>44.0</ele><time>2026-05-01T15:54:52.197Z</time></trkpt><trkpt lat="39.2619348" lon="9.2373864"><ele>44.0</ele><time>2026-05-01T15:54:53.197Z</time></trkpt><trkpt lat="39.2619545" lon="9.2375167"><ele>44.0</ele><time>2026-05-01T15:54:54.197Z</time></trkpt><trkpt lat="39.2619718" lon="9.2376461"><ele>44.0</ele><time>2026-05-01T15:54:55.197Z</time></trkpt><trkpt lat="39.2619887" lon="9.2377748"><ele>44.0</ele><time>2026-05-01T15:54:56.197Z</time></trkpt><trkpt lat="39.2620032" lon="9.2379006"><ele>44.0</ele><time>2026-05-01T15:54:57.196Z</time></trkpt><trkpt lat="39.2620136" lon="9.2380051"><ele>44.0</ele><time>2026-05-01T15:54:58.197Z</time></trkpt><trkpt lat="39.2620212" lon="9.238094"><ele>44.0</ele><time>2026-05-01T15:54:59.197Z</time></trkpt><trkpt lat="39.2620311" lon="9.2382413"><ele>43.666666666666664</ele><time>2026-05-01T15:55:01.197Z</time></trkpt><trkpt lat="39.2620296" lon="9.2383605"><ele>43.33333333333333</ele><time>2026-05-01T15:55:03.196Z</time></trkpt><trkpt lat="39.2620228" lon="9.2384477"><ele>43.0</ele><time>2026-05-01T15:55:05.197Z</time></trkpt><trkpt lat="39.2620043" lon="9.2385619"><ele>42.666666666666664</ele><time>2026-05-01T15:55:07.196Z</time></trkpt><trkpt lat="39.2619927" lon="9.2387236"><ele>42.333333333333336</ele><time>2026-05-01T15:55:09.197Z</time></trkpt><trkpt lat="39.2620168" lon="9.2388117"><ele>42.0</ele><time>2026-05-01T15:55:10.197Z</time></trkpt><trkpt lat="39.2620548" lon="9.2388989"><ele>41.666666666666664</ele><time>2026-05-01T15:55:11.196Z</time></trkpt><trkpt lat="39.2620967" lon="9.2389886"><ele>41.333333333333336</ele><time>2026-05-01T15:55:12.196Z</time></trkpt><trkpt lat="39.2621312" lon="9.2390864"><ele>41.0</ele><time>2026-05-01T15:55:13.196Z</time></trkpt><trkpt lat="39.2621543" lon="9.2391879"><ele>40.66666666666667</ele><time>2026-05-01T15:55:14.196Z</time></trkpt><trkpt lat="39.2621712" lon="9.2392907"><ele>40.333333333333336</ele><time>2026-05-01T15:55:15.196Z</time></trkpt><trkpt lat="39.2621871" lon="9.239393"><ele>40.0</ele><time>2026-05-01T15:55:16.196Z</time></trkpt><trkpt lat="39.2622019" lon="9.2394957"><ele>40.0</ele><time>2026-05-01T15:55:17.197Z</time></trkpt><trkpt lat="39.2622162" lon="9.2395996"><ele>40.0</ele><time>2026-05-01T15:55:18.197Z</time></trkpt><trkpt lat="39.2622302" lon="9.239705"><ele>40.0</ele><time>2026-05-01T15:55:19.196Z</time></trkpt><trkpt lat="39.2622431" lon="9.2398118"><ele>40.0</ele><time>2026-05-01T15:55:20.197Z</time></trkpt><trkpt lat="39.2622566" lon="9.2399204"><ele>40.0</ele><time>2026-05-01T15:55:21.197Z</time></trkpt><trkpt lat="39.2622696" lon="9.240031"><ele>40.0</ele><time>2026-05-01T15:55:22.197Z</time></trkpt><trkpt lat="39.2622831" lon="9.2401422"><ele>40.5</ele><time>2026-05-01T15:55:23.197Z</time></trkpt><trkpt lat="39.2622962" lon="9.2402537"><ele>41.0</ele><time>2026-05-01T15:55:24.197Z</time></trkpt><trkpt lat="39.2623115" lon="9.2403658"><ele>41.5</ele><time>2026-05-01T15:55:25.197Z</time></trkpt><trkpt lat="39.2623278" lon="9.24048"><ele>42.0</ele><time>2026-05-01T15:55:26.197Z</time></trkpt><trkpt lat="39.262342" lon="9.2405941"><ele>42.5</ele><time>2026-05-01T15:55:27.196Z</time></trkpt><trkpt lat="39.2623572" lon="9.2407104"><ele>43.0</ele><time>2026-05-01T15:55:28.196Z</time></trkpt><trkpt lat="39.2623745" lon="9.2408274"><ele>43.0</ele><time>2026-05-01T15:55:29.197Z</time></trkpt><trkpt lat="39.262388" lon="9.2409444"><ele>43.0</ele><time>2026-05-01T15:55:30.197Z</time></trkpt><trkpt lat="39.2624012" lon="9.2410633"><ele>43.0</ele><time>2026-05-01T15:55:31.197Z</time></trkpt><trkpt lat="39.2624157" lon="9.2411791"><ele>43.0</ele><time>2026-05-01T15:55:32.196Z</time></trkpt><trkpt lat="39.2624323" lon="9.2412967"><ele>43.0</ele><time>2026-05-01T15:55:33.197Z</time></trkpt><trkpt lat="39.2624458" lon="9.2414176"><ele>43.0</ele><time>2026-05-01T15:55:34.197Z</time></trkpt><trkpt lat="39.2624609" lon="9.2415431"><ele>43.0</ele><time>2026-05-01T15:55:35.197Z</time></trkpt><trkpt lat="39.2624751" lon="9.2416671"><ele>43.0</ele><time>2026-05-01T15:55:36.196Z</time></trkpt><trkpt lat="39.262493" lon="9.2417956"><ele>43.0</ele><time>2026-05-01T15:55:37.196Z</time></trkpt><trkpt lat="39.2625093" lon="9.2419269"><ele>43.0</ele><time>2026-05-01T15:55:38.197Z</time></trkpt><trkpt lat="39.2625268" lon="9.242063"><ele>43.0</ele><time>2026-05-01T15:55:39.196Z</time></trkpt><trkpt lat="39.2625465" lon="9.2422071"><ele>43.0</ele><time>2026-05-01T15:55:40.197Z</time></trkpt><trkpt lat="39.2625632" lon="9.2423564"><ele>43.0</ele><time>2026-05-01T15:55:41.196Z</time></trkpt><trkpt lat="39.2625821" lon="9.2425093"><ele>43.0</ele><time>2026-05-01T15:55:42.197Z</time></trkpt><trkpt lat="39.2626028" lon="9.2426619"><ele>43.0</ele><time>2026-05-01T15:55:43.197Z</time></trkpt><trkpt lat="39.2626219" lon="9.2428171"><ele>43.0</ele><time>2026-05-01T15:55:44.197Z</time></trkpt><trkpt lat="39.262644" lon="9.2429757"><ele>43.0</ele><time>2026-05-01T15:55:45.197Z</time></trkpt><trkpt lat="39.2626643" lon="9.2431372"><ele>43.0</ele><time>2026-05-01T15:55:46.196Z</time></trkpt><trkpt lat="39.2626868" lon="9.2433034"><ele>43.25</ele><time>2026-05-01T15:55:47.196Z</time></trkpt><trkpt lat="39.2627124" lon="9.243472"><ele>43.5</ele><time>2026-05-01T15:55:48.196Z</time></trkpt><trkpt lat="39.2627335" lon="9.2436443"><ele>43.75</ele><time>2026-05-01T15:55:49.197Z</time></trkpt><trkpt lat="39.2627543" lon="9.2438157"><ele>44.0</ele><time>2026-05-01T15:55:50.197Z</time></trkpt><trkpt lat="39.2627767" lon="9.2439878"><ele>44.0</ele><time>2026-05-01T15:55:51.197Z</time></trkpt><trkpt lat="39.2627995" lon="9.2441631"><ele>44.0</ele><time>2026-05-01T15:55:52.197Z</time></trkpt><trkpt lat="39.2628245" lon="9.2443411"><ele>44.0</ele><time>2026-05-01T15:55:53.197Z</time></trkpt><trkpt lat="39.262848" lon="9.244519"><ele>44.0</ele><time>2026-05-01T15:55:54.196Z</time></trkpt><trkpt lat="39.2628704" lon="9.2446907"><ele>44.25</ele><time>2026-05-01T15:55:55.196Z</time></trkpt><trkpt lat="39.2628929" lon="9.24485"><ele>44.5</ele><time>2026-05-01T15:55:56.197Z</time></trkpt><trkpt lat="39.2629173" lon="9.2450084"><ele>44.75</ele><time>2026-05-01T15:55:57.197Z</time></trkpt><trkpt lat="39.262939" lon="9.2451657"><ele>45.0</ele><time>2026-05-01T15:55:58.196Z</time></trkpt><trkpt lat="39.2629604" lon="9.2453234"><ele>45.0</ele><time>2026-05-01T15:55:59.197Z</time></trkpt><trkpt lat="39.2629799" lon="9.2454825"><ele>45.0</ele><time>2026-05-01T15:56:00.196Z</time></trkpt><trkpt lat="39.2630013" lon="9.2456397"><ele>45.0</ele><time>2026-05-01T15:56:01.197Z</time></trkpt><trkpt lat="39.2630211" lon="9.2457932"><ele>45.0</ele><time>2026-05-01T15:56:02.196Z</time></trkpt><trkpt lat="39.2630428" lon="9.2459449"><ele>45.75</ele><time>2026-05-01T15:56:03.197Z</time></trkpt><trkpt lat="39.2630661" lon="9.2460958"><ele>46.5</ele><time>2026-05-01T15:56:04.197Z</time></trkpt><trkpt lat="39.2630839" lon="9.2462438"><ele>47.25</ele><time>2026-05-01T15:56:05.196Z</time></trkpt><trkpt lat="39.2631004" lon="9.2463924"><ele>48.0</ele><time>2026-05-01T15:56:06.196Z</time></trkpt><trkpt lat="39.26312" lon="9.246539"><ele>48.5</ele><time>2026-05-01T15:56:07.197Z</time></trkpt><trkpt lat="39.2631389" lon="9.2466881"><ele>49.0</ele><time>2026-05-01T15:56:08.196Z</time></trkpt><trkpt lat="39.2631595" lon="9.2468389"><ele>49.5</ele><time>2026-05-01T15:56:09.197Z</time></trkpt><trkpt lat="39.2631805" lon="9.2469929"><ele>50.0</ele><time>2026-05-01T15:56:10.196Z</time></trkpt><trkpt lat="39.263197" lon="9.2471461"><ele>49.75</ele><time>2026-05-01T15:56:11.196Z</time></trkpt><trkpt lat="39.263209" lon="9.2473003"><ele>49.5</ele><time>2026-05-01T15:56:12.197Z</time></trkpt><trkpt lat="39.2632155" lon="9.2474535"><ele>49.25</ele><time>2026-05-01T15:56:13.197Z</time></trkpt><trkpt lat="39.2632168" lon="9.2476093"><ele>49.0</ele><time>2026-05-01T15:56:14.197Z</time></trkpt><trkpt lat="39.2632067" lon="9.2477636"><ele>49.0</ele><time>2026-05-01T15:56:15.197Z</time></trkpt><trkpt lat="39.263186" lon="9.2479183"><ele>49.0</ele><time>2026-05-01T15:56:16.197Z</time></trkpt><trkpt lat="39.2631614" lon="9.2480726"><ele>49.0</ele><time>2026-05-01T15:56:17.197Z</time></trkpt><trkpt lat="39.2631322" lon="9.2482272"><ele>49.0</ele><time>2026-05-01T15:56:18.197Z</time></trkpt><trkpt lat="39.2630989" lon="9.2483828"><ele>49.5</ele><time>2026-05-01T15:56:19.196Z</time></trkpt><trkpt lat="39.2630609" lon="9.2485381"><ele>50.0</ele><time>2026-05-01T15:56:20.196Z</time></trkpt><trkpt lat="39.2630221" lon="9.2487"><ele>50.5</ele><time>2026-05-01T15:56:21.197Z</time></trkpt><trkpt lat="39.2629829" lon="9.2488663"><ele>51.0</ele><time>2026-05-01T15:56:22.196Z</time></trkpt><trkpt lat="39.2629447" lon="9.2490375"><ele>51.25</ele><time>2026-05-01T15:56:23.196Z</time></trkpt><trkpt lat="39.2629075" lon="9.2492131"><ele>51.5</ele><time>2026-05-01T15:56:24.197Z</time></trkpt><trkpt lat="39.2628695" lon="9.2493955"><ele>51.75</ele><time>2026-05-01T15:56:25.196Z</time></trkpt><trkpt lat="39.2628258" lon="9.24959"><ele>52.0</ele><time>2026-05-01T15:56:26.197Z</time></trkpt><trkpt lat="39.262776" lon="9.2497986"><ele>54.0</ele><time>2026-05-01T15:56:27.196Z</time></trkpt><trkpt lat="39.2627217" lon="9.2500294"><ele>56.0</ele><time>2026-05-01T15:56:28.197Z</time></trkpt><trkpt lat="39.2626656" lon="9.2502735"><ele>58.0</ele><time>2026-05-01T15:56:29.197Z</time></trkpt><trkpt lat="39.2626124" lon="9.250505"><ele>58.0</ele><time>2026-05-01T15:56:30.196Z</time></trkpt><trkpt lat="39.2625625" lon="9.2507197"><ele>58.0</ele><time>2026-05-01T15:56:31.197Z</time></trkpt><trkpt lat="39.2625135" lon="9.2509275"><ele>58.0</ele><time>2026-05-01T15:56:32.196Z</time></trkpt><trkpt lat="39.2624635" lon="9.2511242"><ele>58.0</ele><time>2026-05-01T15:56:33.196Z</time></trkpt><trkpt lat="39.262404" lon="9.2513035"><ele>58.0</ele><time>2026-05-01T15:56:34.196Z</time></trkpt><trkpt lat="39.262332" lon="9.2514742"><ele>58.0</ele><time>2026-05-01T15:56:35.197Z</time></trkpt><trkpt lat="39.2622516" lon="9.251638"><ele>59.75</ele><time>2026-05-01T15:56:36.196Z</time></trkpt><trkpt lat="39.2621577" lon="9.251787"><ele>61.5</ele><time>2026-05-01T15:56:37.196Z</time></trkpt><trkpt lat="39.2620552" lon="9.2519258"><ele>63.25</ele><time>2026-05-01T15:56:38.196Z</time></trkpt><trkpt lat="39.2619484" lon="9.2520576"><ele>65.0</ele><time>2026-05-01T15:56:39.197Z</time></trkpt><trkpt lat="39.2618387" lon="9.2521877"><ele>64.33333333333334</ele><time>2026-05-01T15:56:40.197Z</time></trkpt><trkpt lat="39.2617285" lon="9.2523193"><ele>63.66666666666667</ele><time>2026-05-01T15:56:41.196Z</time></trkpt><trkpt lat="39.2616153" lon="9.2524539"><ele>63.0</ele><time>2026-05-01T15:56:42.197Z</time></trkpt><trkpt lat="39.2615002" lon="9.2525894"><ele>62.66666666666667</ele><time>2026-05-01T15:56:43.197Z</time></trkpt><trkpt lat="39.2613835" lon="9.2527234"><ele>62.333333333333336</ele><time>2026-05-01T15:56:44.196Z</time></trkpt><trkpt lat="39.2612685" lon="9.2528592"><ele>62.0</ele><time>2026-05-01T15:56:45.196Z</time></trkpt><trkpt lat="39.261151" lon="9.2529953"><ele>64.0</ele><time>2026-05-01T15:56:46.196Z</time></trkpt><trkpt lat="39.2610322" lon="9.2531327"><ele>66.0</ele><time>2026-05-01T15:56:47.197Z</time></trkpt><trkpt lat="39.2609152" lon="9.2532721"><ele>68.0</ele><time>2026-05-01T15:56:48.197Z</time></trkpt><trkpt lat="39.2607965" lon="9.2534086"><ele>68.0</ele><time>2026-05-01T15:56:49.197Z</time></trkpt><trkpt lat="39.2606794" lon="9.2535444"><ele>68.0</ele><time>2026-05-01T15:56:50.197Z</time></trkpt><trkpt lat="39.2605696" lon="9.2536726"><ele>68.0</ele><time>2026-05-01T15:56:51.197Z</time></trkpt><trkpt lat="39.2604678" lon="9.2537907"><ele>68.0</ele><time>2026-05-01T15:56:52.197Z</time></trkpt><trkpt lat="39.2603758" lon="9.2539016"><ele>68.25</ele><time>2026-05-01T15:56:53.197Z</time></trkpt><trkpt lat="39.2602837" lon="9.2540088"><ele>68.5</ele><time>2026-05-01T15:56:54.197Z</time></trkpt><trkpt lat="39.2601947" lon="9.2541181"><ele>68.75</ele><time>2026-05-01T15:56:55.196Z</time></trkpt><trkpt lat="39.2601044" lon="9.2542331"><ele>69.0</ele><time>2026-05-01T15:56:56.196Z</time></trkpt><trkpt lat="39.2600201" lon="9.2543541"><ele>69.0</ele><time>2026-05-01T15:56:57.197Z</time></trkpt><trkpt lat="39.2599362" lon="9.2544813"><ele>69.0</ele><time>2026-05-01T15:56:58.196Z</time></trkpt><trkpt lat="39.2598539" lon="9.2546163"><ele>69.0</ele><time>2026-05-01T15:56:59.197Z</time></trkpt><trkpt lat="39.2597775" lon="9.2547599"><ele>69.0</ele><time>2026-05-01T15:57:00.196Z</time></trkpt><trkpt lat="39.2597076" lon="9.2549086"><ele>69.25</ele><time>2026-05-01T15:57:01.196Z</time></trkpt><trkpt lat="39.259646" lon="9.2550618"><ele>69.5</ele><time>2026-05-01T15:57:02.196Z</time></trkpt><trkpt lat="39.2596005" lon="9.2552174"><ele>69.75</ele><time>2026-05-01T15:57:03.197Z</time></trkpt><trkpt lat="39.2595579" lon="9.2553735"><ele>70.0</ele><time>2026-05-01T15:57:04.197Z</time></trkpt><trkpt lat="39.2595178" lon="9.2555314"><ele>70.25</ele><time>2026-05-01T15:57:05.197Z</time></trkpt><trkpt lat="39.2594794" lon="9.2556934"><ele>70.5</ele><time>2026-05-01T15:57:06.196Z</time></trkpt><trkpt lat="39.2594391" lon="9.2558591"><ele>70.75</ele><time>2026-05-01T15:57:07.196Z</time></trkpt><trkpt lat="39.2593999" lon="9.2560279"><ele>71.0</ele><time>2026-05-01T15:57:08.196Z</time></trkpt><trkpt lat="39.2593608" lon="9.2561952"><ele>71.0</ele><time>2026-05-01T15:57:09.196Z</time></trkpt><trkpt lat="39.2593208" lon="9.256353"><ele>71.0</ele><time>2026-05-01T15:57:10.197Z</time></trkpt><trkpt lat="39.2592831" lon="9.2565139"><ele>71.0</ele><time>2026-05-01T15:57:11.196Z</time></trkpt><trkpt lat="39.2592491" lon="9.2566758"><ele>71.0</ele><time>2026-05-01T15:57:12.197Z</time></trkpt><trkpt lat="39.259213" lon="9.2568401"><ele>71.25</ele><time>2026-05-01T15:57:13.197Z</time></trkpt><trkpt lat="39.2591732" lon="9.2570035"><ele>71.5</ele><time>2026-05-01T15:57:14.196Z</time></trkpt><trkpt lat="39.2591342" lon="9.2571684"><ele>71.75</ele><time>2026-05-01T15:57:15.196Z</time></trkpt><trkpt lat="39.2590982" lon="9.2573203"><ele>72.0</ele><time>2026-05-01T15:57:16.196Z</time></trkpt><trkpt lat="39.2590629" lon="9.2574727"><ele>72.75</ele><time>2026-05-01T15:57:17.196Z</time></trkpt><trkpt lat="39.2590303" lon="9.2576302"><ele>73.5</ele><time>2026-05-01T15:57:18.197Z</time></trkpt><trkpt lat="39.2589982" lon="9.2577837"><ele>74.25</ele><time>2026-05-01T15:57:19.197Z</time></trkpt><trkpt lat="39.2589708" lon="9.2579424"><ele>75.0</ele><time>2026-05-01T15:57:20.197Z</time></trkpt><trkpt lat="39.2589514" lon="9.2581039"><ele>73.75</ele><time>2026-05-01T15:57:21.196Z</time></trkpt><trkpt lat="39.2589364" lon="9.2582689"><ele>72.5</ele><time>2026-05-01T15:57:22.196Z</time></trkpt><trkpt lat="39.2589247" lon="9.2584323"><ele>71.25</ele><time>2026-05-01T15:57:23.196Z</time></trkpt><trkpt lat="39.2589208" lon="9.2585951"><ele>70.0</ele><time>2026-05-01T15:57:24.197Z</time></trkpt><trkpt lat="39.2589244" lon="9.2587612"><ele>70.0</ele><time>2026-05-01T15:57:25.197Z</time></trkpt><trkpt lat="39.2589297" lon="9.2589236"><ele>70.0</ele><time>2026-05-01T15:57:26.196Z</time></trkpt><trkpt lat="39.258938" lon="9.2590958"><ele>70.0</ele><time>2026-05-01T15:57:27.197Z</time></trkpt><trkpt lat="39.2589474" lon="9.2592635"><ele>70.0</ele><time>2026-05-01T15:57:28.196Z</time></trkpt><trkpt lat="39.258958" lon="9.2594402"><ele>70.0</ele><time>2026-05-01T15:57:29.197Z</time></trkpt><trkpt lat="39.2589618" lon="9.2596217"><ele>70.0</ele><time>2026-05-01T15:57:30.197Z</time></trkpt><trkpt lat="39.2589722" lon="9.2597902"><ele>70.0</ele><time>2026-05-01T15:57:31.196Z</time></trkpt><trkpt lat="39.2589815" lon="9.2599604"><ele>70.0</ele><time>2026-05-01T15:57:32.197Z</time></trkpt><trkpt lat="39.2589927" lon="9.260131"><ele>70.0</ele><time>2026-05-01T15:57:33.197Z</time></trkpt><trkpt lat="39.2590039" lon="9.2603017"><ele>70.0</ele><time>2026-05-01T15:57:34.196Z</time></trkpt><trkpt lat="39.2590125" lon="9.2604732"><ele>70.0</ele><time>2026-05-01T15:57:35.197Z</time></trkpt><trkpt lat="39.259024" lon="9.260641"><ele>70.0</ele><time>2026-05-01T15:57:36.196Z</time></trkpt><trkpt lat="39.2590323" lon="9.2608156"><ele>69.75</ele><time>2026-05-01T15:57:37.196Z</time></trkpt><trkpt lat="39.2590393" lon="9.2609899"><ele>69.5</ele><time>2026-05-01T15:57:38.197Z</time></trkpt><trkpt lat="39.2590472" lon="9.2611641"><ele>69.25</ele><time>2026-05-01T15:57:39.196Z</time></trkpt><trkpt lat="39.2590561" lon="9.2613411"><ele>69.0</ele><time>2026-05-01T15:57:40.196Z</time></trkpt><trkpt lat="39.2590638" lon="9.2615173"><ele>68.25</ele><time>2026-05-01T15:57:41.197Z</time></trkpt><trkpt lat="39.2590713" lon="9.2616944"><ele>67.5</ele><time>2026-05-01T15:57:42.196Z</time></trkpt><trkpt lat="39.2590793" lon="9.2618724"><ele>66.75</ele><time>2026-05-01T15:57:43.196Z</time></trkpt><trkpt lat="39.2590875" lon="9.2620528"><ele>66.0</ele><time>2026-05-01T15:57:44.197Z</time></trkpt><trkpt lat="39.2590946" lon="9.2622254"><ele>65.5</ele><time>2026-05-01T15:57:45.197Z</time></trkpt><trkpt lat="39.2590989" lon="9.2623976"><ele>65.0</ele><time>2026-05-01T15:57:46.196Z</time></trkpt><trkpt lat="39.2591083" lon="9.2625705"><ele>64.5</ele><time>2026-05-01T15:57:47.197Z</time></trkpt><trkpt lat="39.2591175" lon="9.262742"><ele>64.0</ele><time>2026-05-01T15:57:48.197Z</time></trkpt><trkpt lat="39.2591297" lon="9.2629138"><ele>64.0</ele><time>2026-05-01T15:57:49.197Z</time></trkpt><trkpt lat="39.2591426" lon="9.2630905"><ele>64.0</ele><time>2026-05-01T15:57:50.196Z</time></trkpt><trkpt lat="39.2591549" lon="9.2632726"><ele>64.0</ele><time>2026-05-01T15:57:51.196Z</time></trkpt><trkpt lat="39.2591698" lon="9.2634615"><ele>64.0</ele><time>2026-05-01T15:57:52.196Z</time></trkpt><trkpt lat="39.2591891" lon="9.263651"><ele>64.33333333333333</ele><time>2026-05-01T15:57:53.196Z</time></trkpt><trkpt lat="39.2592037" lon="9.2638438"><ele>64.66666666666667</ele><time>2026-05-01T15:57:54.196Z</time></trkpt><trkpt lat="39.2592209" lon="9.2640366"><ele>65.0</ele><time>2026-05-01T15:57:55.197Z</time></trkpt><trkpt lat="39.2592325" lon="9.2642348"><ele>64.33333333333334</ele><time>2026-05-01T15:57:56.196Z</time></trkpt><trkpt lat="39.2592431" lon="9.2644358"><ele>63.66666666666667</ele><time>2026-05-01T15:57:57.197Z</time></trkpt><trkpt lat="39.2592512" lon="9.2646391"><ele>63.0</ele><time>2026-05-01T15:57:58.196Z</time></trkpt><trkpt lat="39.2592606" lon="9.2648423"><ele>61.66666666666667</ele><time>2026-05-01T15:57:59.196Z</time></trkpt><trkpt lat="39.2592699" lon="9.2650467"><ele>60.333333333333336</ele><time>2026-05-01T15:58:00.197Z</time></trkpt><trkpt lat="39.2592796" lon="9.2652551"><ele>59.0</ele><time>2026-05-01T15:58:01.197Z</time></trkpt><trkpt lat="39.2592904" lon="9.2654643"><ele>58.333333333333336</ele><time>2026-05-01T15:58:02.197Z</time></trkpt><trkpt lat="39.2592998" lon="9.2656756"><ele>57.66666666666667</ele><time>2026-05-01T15:58:03.197Z</time></trkpt><trkpt lat="39.2593102" lon="9.2658877"><ele>57.0</ele><time>2026-05-01T15:58:04.197Z</time></trkpt><trkpt lat="39.2593199" lon="9.2661018"><ele>57.0</ele><time>2026-05-01T15:58:05.197Z</time></trkpt><trkpt lat="39.2593313" lon="9.2663175"><ele>57.0</ele><time>2026-05-01T15:58:06.197Z</time></trkpt><trkpt lat="39.2593421" lon="9.2665332"><ele>57.0</ele><time>2026-05-01T15:58:07.196Z</time></trkpt><trkpt lat="39.2593533" lon="9.2667494"><ele>56.0</ele><time>2026-05-01T15:58:08.196Z</time></trkpt><trkpt lat="39.2593641" lon="9.2669659"><ele>55.0</ele><time>2026-05-01T15:58:09.197Z</time></trkpt><trkpt lat="39.2593763" lon="9.2671822"><ele>54.0</ele><time>2026-05-01T15:58:10.197Z</time></trkpt><trkpt lat="39.2593869" lon="9.2673973"><ele>53.33333333333333</ele><time>2026-05-01T15:58:11.197Z</time></trkpt><trkpt lat="39.2593982" lon="9.2676089"><ele>52.666666666666664</ele><time>2026-05-01T15:58:12.197Z</time></trkpt><trkpt lat="39.2594075" lon="9.2678208"><ele>52.0</ele><time>2026-05-01T15:58:13.197Z</time></trkpt><trkpt lat="39.2594181" lon="9.2680305"><ele>52.0</ele><time>2026-05-01T15:58:14.196Z</time></trkpt><trkpt lat="39.2594303" lon="9.2682439"><ele>52.0</ele><time>2026-05-01T15:58:15.197Z</time></trkpt><trkpt lat="39.2594414" lon="9.2684655"><ele>52.0</ele><time>2026-05-01T15:58:16.196Z</time></trkpt><trkpt lat="39.2594548" lon="9.2686914"><ele>52.0</ele><time>2026-05-01T15:58:17.197Z</time></trkpt><trkpt lat="39.2594679" lon="9.2689222"><ele>52.0</ele><time>2026-05-01T15:58:18.196Z</time></trkpt><trkpt lat="39.25948" lon="9.2691576"><ele>52.0</ele><time>2026-05-01T15:58:19.196Z</time></trkpt><trkpt lat="39.2594936" lon="9.2693946"><ele>52.33333333333333</ele><time>2026-05-01T15:58:20.196Z</time></trkpt><trkpt lat="39.2595064" lon="9.2696342"><ele>52.66666666666667</ele><time>2026-05-01T15:58:21.197Z</time></trkpt><trkpt lat="39.2595193" lon="9.2698771"><ele>53.0</ele><time>2026-05-01T15:58:22.196Z</time></trkpt><trkpt lat="39.259531" lon="9.2701205"><ele>53.0</ele><time>2026-05-01T15:58:23.197Z</time></trkpt><trkpt lat="39.2595432" lon="9.2703644"><ele>53.0</ele><time>2026-05-01T15:58:24.196Z</time></trkpt><trkpt lat="39.2595553" lon="9.2706079"><ele>53.0</ele><time>2026-05-01T15:58:25.196Z</time></trkpt><trkpt lat="39.2595653" lon="9.2708465"><ele>52.66666666666667</ele><time>2026-05-01T15:58:26.197Z</time></trkpt><trkpt lat="39.2595753" lon="9.2710864"><ele>52.33333333333333</ele><time>2026-05-01T15:58:27.196Z</time></trkpt><trkpt lat="39.2595844" lon="9.2713216"><ele>52.0</ele><time>2026-05-01T15:58:28.197Z</time></trkpt><trkpt lat="39.259597" lon="9.2715557"><ele>52.666666666666664</ele><time>2026-05-01T15:58:29.196Z</time></trkpt><trkpt lat="39.2596103" lon="9.2717865"><ele>53.33333333333333</ele><time>2026-05-01T15:58:30.196Z</time></trkpt><trkpt lat="39.2596233" lon="9.2720165"><ele>54.0</ele><time>2026-05-01T15:58:31.196Z</time></trkpt><trkpt lat="39.2596362" lon="9.2722445"><ele>54.0</ele><time>2026-05-01T15:58:32.197Z</time></trkpt><trkpt lat="39.2596494" lon="9.272475"><ele>54.0</ele><time>2026-05-01T15:58:33.196Z</time></trkpt><trkpt lat="39.2596612" lon="9.2727028"><ele>54.0</ele><time>2026-05-01T15:58:34.196Z</time></trkpt><trkpt lat="39.2596718" lon="9.2729314"><ele>54.0</ele><time>2026-05-01T15:58:35.196Z</time></trkpt><trkpt lat="39.2596806" lon="9.2731597"><ele>54.0</ele><time>2026-05-01T15:58:36.196Z</time></trkpt><trkpt lat="39.2596919" lon="9.2733849"><ele>54.0</ele><time>2026-05-01T15:58:37.196Z</time></trkpt><trkpt lat="39.2597051" lon="9.2736123"><ele>54.0</ele><time>2026-05-01T15:58:38.196Z</time></trkpt><trkpt lat="39.2597162" lon="9.2738365"><ele>54.0</ele><time>2026-05-01T15:58:39.197Z</time></trkpt><trkpt lat="39.2597257" lon="9.2740588"><ele>54.0</ele><time>2026-05-01T15:58:40.197Z</time></trkpt><trkpt lat="39.2597368" lon="9.2742794"><ele>53.66666666666667</ele><time>2026-05-01T15:58:41.197Z</time></trkpt><trkpt lat="39.259747" lon="9.2744993"><ele>53.333333333333336</ele><time>2026-05-01T15:58:42.196Z</time></trkpt><trkpt lat="39.259759" lon="9.274718"><ele>53.0</ele><time>2026-05-01T15:58:43.197Z</time></trkpt><trkpt lat="39.2597694" lon="9.2749365"><ele>52.66666666666667</ele><time>2026-05-01T15:58:44.196Z</time></trkpt><trkpt lat="39.259779" lon="9.2751531"><ele>52.33333333333333</ele><time>2026-05-01T15:58:45.196Z</time></trkpt><trkpt lat="39.2597888" lon="9.2753704"><ele>52.0</ele><time>2026-05-01T15:58:46.197Z</time></trkpt><trkpt lat="39.2597994" lon="9.2755888"><ele>52.666666666666664</ele><time>2026-05-01T15:58:47.196Z</time></trkpt><trkpt lat="39.2598106" lon="9.2758078"><ele>53.33333333333333</ele><time>2026-05-01T15:58:48.197Z</time></trkpt><trkpt lat="39.2598232" lon="9.276027"><ele>54.0</ele><time>2026-05-01T15:58:49.196Z</time></trkpt><trkpt lat="39.2598363" lon="9.2762445"><ele>53.66666666666667</ele><time>2026-05-01T15:58:50.196Z</time></trkpt><trkpt lat="39.2598499" lon="9.2764638"><ele>53.333333333333336</ele><time>2026-05-01T15:58:51.197Z</time></trkpt><trkpt lat="39.2598608" lon="9.2766843"><ele>53.0</ele><time>2026-05-01T15:58:52.196Z</time></trkpt><trkpt lat="39.2598711" lon="9.276903"><ele>53.0</ele><time>2026-05-01T15:58:53.197Z</time></trkpt><trkpt lat="39.2598821" lon="9.277122"><ele>53.0</ele><time>2026-05-01T15:58:54.197Z</time></trkpt><trkpt lat="39.2598923" lon="9.2773405"><ele>53.0</ele><time>2026-05-01T15:58:55.196Z</time></trkpt><trkpt lat="39.2599035" lon="9.2775612"><ele>52.333333333333336</ele><time>2026-05-01T15:58:56.196Z</time></trkpt><trkpt lat="39.2599153" lon="9.2777828"><ele>51.66666666666667</ele><time>2026-05-01T15:58:57.197Z</time></trkpt><trkpt lat="39.2599277" lon="9.2780054"><ele>51.0</ele><time>2026-05-01T15:58:58.197Z</time></trkpt><trkpt lat="39.2599403" lon="9.2782325"><ele>50.33333333333333</ele><time>2026-05-01T15:58:59.197Z</time></trkpt><trkpt lat="39.2599523" lon="9.2784808"><ele>49.666666666666664</ele><time>2026-05-01T15:59:00.197Z</time></trkpt><trkpt lat="39.2599652" lon="9.2787419"><ele>49.0</ele><time>2026-05-01T15:59:01.196Z</time></trkpt><trkpt lat="39.2599779" lon="9.2790178"><ele>49.0</ele><time>2026-05-01T15:59:02.197Z</time></trkpt><trkpt lat="39.2599912" lon="9.2793085"><ele>49.0</ele><time>2026-05-01T15:59:03.196Z</time></trkpt><trkpt lat="39.2600061" lon="9.2795883"><ele>49.0</ele><time>2026-05-01T15:59:04.196Z</time></trkpt><trkpt lat="39.2600241" lon="9.2798536"><ele>49.666666666666664</ele><time>2026-05-01T15:59:05.197Z</time></trkpt><trkpt lat="39.2600349" lon="9.2801089"><ele>50.33333333333333</ele><time>2026-05-01T15:59:06.196Z</time></trkpt><trkpt lat="39.2600289" lon="9.2803485"><ele>51.0</ele><time>2026-05-01T15:59:07.197Z</time></trkpt><trkpt lat="39.2599956" lon="9.2805692"><ele>51.66666666666667</ele><time>2026-05-01T15:59:08.197Z</time></trkpt><trkpt lat="39.2599321" lon="9.2807774"><ele>52.333333333333336</ele><time>2026-05-01T15:59:09.197Z</time></trkpt><trkpt lat="39.2598411" lon="9.2809763"><ele>53.0</ele><time>2026-05-01T15:59:10.196Z</time></trkpt><trkpt lat="39.2597292" lon="9.2811721"><ele>53.0</ele><time>2026-05-01T15:59:11.196Z</time></trkpt><trkpt lat="39.2596183" lon="9.2813512"><ele>53.0</ele><time>2026-05-01T15:59:12.196Z</time></trkpt><trkpt lat="39.2595258" lon="9.2815187"><ele>53.0</ele><time>2026-05-01T15:59:13.196Z</time></trkpt><trkpt lat="39.2594648" lon="9.2816886"><ele>54.333333333333336</ele><time>2026-05-01T15:59:14.197Z</time></trkpt><trkpt lat="39.2594268" lon="9.281876"><ele>55.66666666666667</ele><time>2026-05-01T15:59:15.197Z</time></trkpt><trkpt lat="39.2594128" lon="9.282074"><ele>57.0</ele><time>2026-05-01T15:59:16.196Z</time></trkpt><trkpt lat="39.2594219" lon="9.2822865"><ele>58.33333333333333</ele><time>2026-05-01T15:59:17.197Z</time></trkpt><trkpt lat="39.2594508" lon="9.2825047"><ele>59.666666666666664</ele><time>2026-05-01T15:59:18.196Z</time></trkpt><trkpt lat="39.2595001" lon="9.2827385"><ele>61.0</ele><time>2026-05-01T15:59:19.197Z</time></trkpt><trkpt lat="39.2595578" lon="9.2829883"><ele>61.0</ele><time>2026-05-01T15:59:20.196Z</time></trkpt><trkpt lat="39.2596213" lon="9.28325"><ele>61.0</ele><time>2026-05-01T15:59:21.196Z</time></trkpt><trkpt lat="39.2596864" lon="9.2835171"><ele>61.0</ele><time>2026-05-01T15:59:22.197Z</time></trkpt><trkpt lat="39.2597556" lon="9.2837949"><ele>64.5</ele><time>2026-05-01T15:59:23.196Z</time></trkpt><trkpt lat="39.2598257" lon="9.2840799"><ele>68.0</ele><time>2026-05-01T15:59:24.196Z</time></trkpt><trkpt lat="39.2598968" lon="9.2843716"><ele>68.0</ele><time>2026-05-01T15:59:25.197Z</time></trkpt><trkpt lat="39.2599693" lon="9.284672"><ele>68.0</ele><time>2026-05-01T15:59:26.196Z</time></trkpt><trkpt lat="39.2600458" lon="9.2849747"><ele>68.0</ele><time>2026-05-01T15:59:27.196Z</time></trkpt><trkpt lat="39.26012" lon="9.2852768"><ele>68.0</ele><time>2026-05-01T15:59:28.196Z</time></trkpt><trkpt lat="39.2601967" lon="9.2855828"><ele>68.5</ele><time>2026-05-01T15:59:29.197Z</time></trkpt><trkpt lat="39.2602685" lon="9.2858782"><ele>69.0</ele><time>2026-05-01T15:59:30.197Z</time></trkpt><trkpt lat="39.2603328" lon="9.2861412"><ele>69.0</ele><time>2026-05-01T15:59:31.197Z</time></trkpt><trkpt lat="39.2603946" lon="9.2863779"><ele>69.0</ele><time>2026-05-01T15:59:32.196Z</time></trkpt><trkpt lat="39.2604453" lon="9.2866038"><ele>69.0</ele><time>2026-05-01T15:59:33.197Z</time></trkpt><trkpt lat="39.2604783" lon="9.2868322"><ele>69.0</ele><time>2026-05-01T15:59:34.197Z</time></trkpt><trkpt lat="39.2604875" lon="9.2870678"><ele>69.0</ele><time>2026-05-01T15:59:35.196Z</time></trkpt><trkpt lat="39.2604758" lon="9.2873098"><ele>69.0</ele><time>2026-05-01T15:59:36.195Z</time></trkpt><trkpt lat="39.2604468" lon="9.2875588"><ele>68.66666666666667</ele><time>2026-05-01T15:59:37.197Z</time></trkpt><trkpt lat="39.2604076" lon="9.2878157"><ele>68.33333333333334</ele><time>2026-05-01T15:59:38.197Z</time></trkpt><trkpt lat="39.260365" lon="9.2880811"><ele>68.0</ele><time>2026-05-01T15:59:39.197Z</time></trkpt><trkpt lat="39.2603213" lon="9.28836"><ele>68.0</ele><time>2026-05-01T15:59:40.196Z</time></trkpt><trkpt lat="39.2602774" lon="9.2886511"><ele>68.0</ele><time>2026-05-01T15:59:41.196Z</time></trkpt><trkpt lat="39.2602339" lon="9.2889303"><ele>68.33333333333334</ele><time>2026-05-01T15:59:42.196Z</time></trkpt><trkpt lat="39.2601933" lon="9.2892087"><ele>68.66666666666667</ele><time>2026-05-01T15:59:43.197Z</time></trkpt><trkpt lat="39.2601477" lon="9.2894837"><ele>69.0</ele><time>2026-05-01T15:59:44.197Z</time></trkpt><trkpt lat="39.2601065" lon="9.2897415"><ele>69.66666666666667</ele><time>2026-05-01T15:59:45.197Z</time></trkpt><trkpt lat="39.2600701" lon="9.2899995"><ele>70.33333333333334</ele><time>2026-05-01T15:59:46.197Z</time></trkpt><trkpt lat="39.2600404" lon="9.2902583"><ele>71.0</ele><time>2026-05-01T15:59:47.196Z</time></trkpt><trkpt lat="39.2600257" lon="9.2905151"><ele>70.66666666666667</ele><time>2026-05-01T15:59:48.196Z</time></trkpt><trkpt lat="39.2600316" lon="9.2907685"><ele>70.33333333333333</ele><time>2026-05-01T15:59:49.197Z</time></trkpt><trkpt lat="39.260053" lon="9.2910255"><ele>70.0</ele><time>2026-05-01T15:59:50.196Z</time></trkpt><trkpt lat="39.2600894" lon="9.2912892"><ele>69.0</ele><time>2026-05-01T15:59:51.196Z</time></trkpt><trkpt lat="39.2601315" lon="9.2915585"><ele>68.0</ele><time>2026-05-01T15:59:52.196Z</time></trkpt><trkpt lat="39.2601766" lon="9.2918393"><ele>67.0</ele><time>2026-05-01T15:59:53.197Z</time></trkpt><trkpt lat="39.2602261" lon="9.2921316"><ele>65.5</ele><time>2026-05-01T15:59:54.197Z</time></trkpt><trkpt lat="39.2602776" lon="9.2924332"><ele>64.0</ele><time>2026-05-01T15:59:55.197Z</time></trkpt><trkpt lat="39.2603297" lon="9.2927389"><ele>64.0</ele><time>2026-05-01T15:59:56.197Z</time></trkpt><trkpt lat="39.26038" lon="9.2930439"><ele>64.0</ele><time>2026-05-01T15:59:57.197Z</time></trkpt><trkpt lat="39.2604293" lon="9.2933497"><ele>64.0</ele><time>2026-05-01T15:59:58.196Z</time></trkpt><trkpt lat="39.2604761" lon="9.2936576"><ele>64.0</ele><time>2026-05-01T15:59:59.196Z</time></trkpt><trkpt lat="39.2605264" lon="9.2939718"><ele>64.0</ele><time>2026-05-01T16:00:00.197Z</time></trkpt><trkpt lat="39.260577" lon="9.29429"><ele>64.0</ele><time>2026-05-01T16:00:01.197Z</time></trkpt><trkpt lat="39.2606302" lon="9.2946152"><ele>65.5</ele><time>2026-05-01T16:00:02.196Z</time></trkpt><trkpt lat="39.2606855" lon="9.2949463"><ele>67.0</ele><time>2026-05-01T16:00:03.196Z</time></trkpt><trkpt lat="39.2607391" lon="9.2952791"><ele>67.0</ele><time>2026-05-01T16:00:04.196Z</time></trkpt><trkpt lat="39.260795" lon="9.2956108"><ele>67.0</ele><time>2026-05-01T16:00:05.197Z</time></trkpt><trkpt lat="39.2608477" lon="9.295938"><ele>67.0</ele><time>2026-05-01T16:00:06.196Z</time></trkpt><trkpt lat="39.2608967" lon="9.2962683"><ele>67.0</ele><time>2026-05-01T16:00:07.197Z</time></trkpt><trkpt lat="39.2609461" lon="9.2965979"><ele>66.5</ele><time>2026-05-01T16:00:08.196Z</time></trkpt><trkpt lat="39.2609958" lon="9.2969272"><ele>66.0</ele><time>2026-05-01T16:00:09.197Z</time></trkpt><trkpt lat="39.2610452" lon="9.2972565"><ele>66.0</ele><time>2026-05-01T16:00:10.196Z</time></trkpt><trkpt lat="39.2610946" lon="9.2975815"><ele>66.0</ele><time>2026-05-01T16:00:11.197Z</time></trkpt><trkpt lat="39.2611438" lon="9.2978853"><ele>65.0</ele><time>2026-05-01T16:00:12.197Z</time></trkpt><trkpt lat="39.2611918" lon="9.2981672"><ele>64.0</ele><time>2026-05-01T16:00:13.196Z</time></trkpt><trkpt lat="39.2612434" lon="9.298422"><ele>63.0</ele><time>2026-05-01T16:00:14.197Z</time></trkpt><trkpt lat="39.2612952" lon="9.2986567"><ele>63.0</ele><time>2026-05-01T16:00:15.197Z</time></trkpt><trkpt lat="39.2613615" lon="9.2988806"><ele>63.0</ele><time>2026-05-01T16:00:16.196Z</time></trkpt><trkpt lat="39.2614459" lon="9.2990908"><ele>63.0</ele><time>2026-05-01T16:00:17.197Z</time></trkpt><trkpt lat="39.2615462" lon="9.2993071"><ele>62.66666666666667</ele><time>2026-05-01T16:00:18.196Z</time></trkpt><trkpt lat="39.2616596" lon="9.2995162"><ele>62.333333333333336</ele><time>2026-05-01T16:00:19.197Z</time></trkpt><trkpt lat="39.2617759" lon="9.2997302"><ele>62.0</ele><time>2026-05-01T16:00:20.197Z</time></trkpt><trkpt lat="39.2618944" lon="9.2999446"><ele>61.333333333333336</ele><time>2026-05-01T16:00:21.196Z</time></trkpt><trkpt lat="39.2620153" lon="9.3001616"><ele>60.66666666666667</ele><time>2026-05-01T16:00:22.197Z</time></trkpt><trkpt lat="39.2621366" lon="9.3003842"><ele>60.0</ele><time>2026-05-01T16:00:23.197Z</time></trkpt><trkpt lat="39.2622541" lon="9.3005859"><ele>61.33333333333333</ele><time>2026-05-01T16:00:24.197Z</time></trkpt><trkpt lat="39.262364" lon="9.3007825"><ele>62.666666666666664</ele><time>2026-05-01T16:00:25.196Z</time></trkpt><trkpt lat="39.2624735" lon="9.3009754"><ele>64.0</ele><time>2026-05-01T16:00:26.197Z</time></trkpt><trkpt lat="39.262578" lon="9.3011664"><ele>64.0</ele><time>2026-05-01T16:00:27.195Z</time></trkpt><trkpt lat="39.2626817" lon="9.3013529"><ele>64.0</ele><time>2026-05-01T16:00:28.197Z</time></trkpt><trkpt lat="39.2627846" lon="9.3015364"><ele>64.0</ele><time>2026-05-01T16:00:29.197Z</time></trkpt><trkpt lat="39.2628895" lon="9.3017196"><ele>62.33333333333333</ele><time>2026-05-01T16:00:30.197Z</time></trkpt><trkpt lat="39.2629952" lon="9.3019052"><ele>60.66666666666667</ele><time>2026-05-01T16:00:31.197Z</time></trkpt><trkpt lat="39.2631007" lon="9.3020979"><ele>59.0</ele><time>2026-05-01T16:00:32.196Z</time></trkpt><trkpt lat="39.2632083" lon="9.3022905"><ele>58.333333333333336</ele><time>2026-05-01T16:00:33.197Z</time></trkpt><trkpt lat="39.2633172" lon="9.3024859"><ele>57.66666666666667</ele><time>2026-05-01T16:00:34.197Z</time></trkpt><trkpt lat="39.2634262" lon="9.3026739"><ele>57.0</ele><time>2026-05-01T16:00:35.196Z</time></trkpt><trkpt lat="39.2635254" lon="9.302859"><ele>57.0</ele><time>2026-05-01T16:00:36.197Z</time></trkpt><trkpt lat="39.2636075" lon="9.3030412"><ele>57.0</ele><time>2026-05-01T16:00:37.196Z</time></trkpt><trkpt lat="39.2636695" lon="9.3032312"><ele>57.0</ele><time>2026-05-01T16:00:38.197Z</time></trkpt><trkpt lat="39.2637089" lon="9.3036198"><ele>57.0</ele><time>2026-05-01T16:00:40.196Z</time></trkpt><trkpt lat="39.2637031" lon="9.3038277"><ele>57.0</ele><time>2026-05-01T16:00:41.196Z</time></trkpt><trkpt lat="39.2636963" lon="9.3040286"><ele>57.0</ele><time>2026-05-01T16:00:42.196Z</time></trkpt><trkpt lat="39.2636887" lon="9.304209"><ele>57.0</ele><time>2026-05-01T16:00:43.197Z</time></trkpt><trkpt lat="39.2636872" lon="9.3043789"><ele>57.0</ele><time>2026-05-01T16:00:44.197Z</time></trkpt><trkpt lat="39.2636982" lon="9.3045377"><ele>57.0</ele><time>2026-05-01T16:00:45.197Z</time></trkpt><trkpt lat="39.2637304" lon="9.3046902"><ele>57.0</ele><time>2026-05-01T16:00:46.196Z</time></trkpt><trkpt lat="39.2637896" lon="9.304833"><ele>56.75</ele><time>2026-05-01T16:00:47.197Z</time></trkpt><trkpt lat="39.2638712" lon="9.3049614"><ele>56.5</ele><time>2026-05-01T16:00:48.196Z</time></trkpt><trkpt lat="39.2639719" lon="9.3050683"><ele>56.25</ele><time>2026-05-01T16:00:49.197Z</time></trkpt><trkpt lat="39.2640823" lon="9.3051699"><ele>56.0</ele><time>2026-05-01T16:00:50.197Z</time></trkpt><trkpt lat="39.2641963" lon="9.3052702"><ele>56.66666666666667</ele><time>2026-05-01T16:00:51.197Z</time></trkpt><trkpt lat="39.2643189" lon="9.3053801"><ele>57.33333333333333</ele><time>2026-05-01T16:00:52.197Z</time></trkpt><trkpt lat="39.2644482" lon="9.3054999"><ele>58.0</ele><time>2026-05-01T16:00:53.197Z</time></trkpt><trkpt lat="39.2645854" lon="9.3056267"><ele>58.33333333333333</ele><time>2026-05-01T16:00:54.197Z</time></trkpt><trkpt lat="39.2647281" lon="9.3057577"><ele>58.66666666666667</ele><time>2026-05-01T16:00:55.196Z</time></trkpt><trkpt lat="39.2648822" lon="9.3058917"><ele>59.0</ele><time>2026-05-01T16:00:56.196Z</time></trkpt><trkpt lat="39.2650394" lon="9.3060315"><ele>59.0</ele><time>2026-05-01T16:00:57.197Z</time></trkpt><trkpt lat="39.2651991" lon="9.3061787"><ele>59.0</ele><time>2026-05-01T16:00:58.196Z</time></trkpt><trkpt lat="39.2653636" lon="9.3063285"><ele>59.0</ele><time>2026-05-01T16:00:59.197Z</time></trkpt><trkpt lat="39.2655306" lon="9.3064762"><ele>59.66666666666667</ele><time>2026-05-01T16:01:00.197Z</time></trkpt><trkpt lat="39.2656973" lon="9.3066257"><ele>60.33333333333333</ele><time>2026-05-01T16:01:01.196Z</time></trkpt><trkpt lat="39.2658663" lon="9.3067762"><ele>61.0</ele><time>2026-05-01T16:01:02.196Z</time></trkpt><trkpt lat="39.2660386" lon="9.3069316"><ele>61.0</ele><time>2026-05-01T16:01:03.196Z</time></trkpt><trkpt lat="39.2662102" lon="9.3070896"><ele>61.0</ele><time>2026-05-01T16:01:04.196Z</time></trkpt><trkpt lat="39.2663811" lon="9.3072409"><ele>61.0</ele><time>2026-05-01T16:01:05.196Z</time></trkpt><trkpt lat="39.2665515" lon="9.3073888"><ele>63.0</ele><time>2026-05-01T16:01:06.197Z</time></trkpt><trkpt lat="39.2667222" lon="9.3075276"><ele>65.0</ele><time>2026-05-01T16:01:07.197Z</time></trkpt><trkpt lat="39.2668942" lon="9.3076554"><ele>67.0</ele><time>2026-05-01T16:01:08.197Z</time></trkpt><trkpt lat="39.2670713" lon="9.3077754"><ele>67.0</ele><time>2026-05-01T16:01:09.196Z</time></trkpt><trkpt lat="39.2672521" lon="9.3078815"><ele>67.0</ele><time>2026-05-01T16:01:10.196Z</time></trkpt><trkpt lat="39.2674364" lon="9.3079868"><ele>67.0</ele><time>2026-05-01T16:01:11.196Z</time></trkpt><trkpt lat="39.2676209" lon="9.3080914"><ele>66.66666666666666</ele><time>2026-05-01T16:01:12.197Z</time></trkpt><trkpt lat="39.2678028" lon="9.3081932"><ele>66.33333333333333</ele><time>2026-05-01T16:01:13.196Z</time></trkpt><trkpt lat="39.267985" lon="9.3082973"><ele>66.0</ele><time>2026-05-01T16:01:14.197Z</time></trkpt><trkpt lat="39.2681689" lon="9.3084035"><ele>66.0</ele><time>2026-05-01T16:01:15.197Z</time></trkpt><trkpt lat="39.2683554" lon="9.3085087"><ele>66.0</ele><time>2026-05-01T16:01:16.197Z</time></trkpt><trkpt lat="39.2685442" lon="9.3086069"><ele>66.0</ele><time>2026-05-01T16:01:17.197Z</time></trkpt><trkpt lat="39.2687223" lon="9.3086934"><ele>66.0</ele><time>2026-05-01T16:01:18.196Z</time></trkpt><trkpt lat="39.2688913" lon="9.3087713"><ele>66.0</ele><time>2026-05-01T16:01:19.197Z</time></trkpt><trkpt lat="39.2690517" lon="9.3088419"><ele>66.0</ele><time>2026-05-01T16:01:20.196Z</time></trkpt><trkpt lat="39.2692085" lon="9.3089121"><ele>68.66666666666667</ele><time>2026-05-01T16:01:21.197Z</time></trkpt><trkpt lat="39.2693644" lon="9.3089792"><ele>71.33333333333334</ele><time>2026-05-01T16:01:22.195Z</time></trkpt><trkpt lat="39.2695205" lon="9.3090464"><ele>74.0</ele><time>2026-05-01T16:01:23.196Z</time></trkpt><trkpt lat="39.2696777" lon="9.3091134"><ele>73.0</ele><time>2026-05-01T16:01:24.195Z</time></trkpt><trkpt lat="39.269835" lon="9.3091773"><ele>72.0</ele><time>2026-05-01T16:01:25.197Z</time></trkpt><trkpt lat="39.2699929" lon="9.3092443"><ele>71.0</ele><time>2026-05-01T16:01:26.197Z</time></trkpt><trkpt lat="39.270153" lon="9.3093118"><ele>71.0</ele><time>2026-05-01T16:01:27.196Z</time></trkpt><trkpt lat="39.270316" lon="9.3093775"><ele>71.0</ele><time>2026-05-01T16:01:28.196Z</time></trkpt><trkpt lat="39.2704804" lon="9.3094464"><ele>71.0</ele><time>2026-05-01T16:01:29.196Z</time></trkpt><trkpt lat="39.2706497" lon="9.309514"><ele>70.66666666666667</ele><time>2026-05-01T16:01:30.196Z</time></trkpt><trkpt lat="39.2708081" lon="9.3095836"><ele>70.33333333333333</ele><time>2026-05-01T16:01:31.196Z</time></trkpt><trkpt lat="39.2709627" lon="9.3096714"><ele>70.0</ele><time>2026-05-01T16:01:32.196Z</time></trkpt><trkpt lat="39.2711131" lon="9.3097745"><ele>71.66666666666666</ele><time>2026-05-01T16:01:33.196Z</time></trkpt><trkpt lat="39.2712588" lon="9.3098958"><ele>73.33333333333333</ele><time>2026-05-01T16:01:34.196Z</time></trkpt><trkpt lat="39.2714053" lon="9.3100409"><ele>75.0</ele><time>2026-05-01T16:01:35.196Z</time></trkpt><trkpt lat="39.2715527" lon="9.3102016"><ele>75.0</ele><time>2026-05-01T16:01:36.196Z</time></trkpt><trkpt lat="39.2717056" lon="9.3103761"><ele>75.0</ele><time>2026-05-01T16:01:37.196Z</time></trkpt><trkpt lat="39.2718604" lon="9.3105532"><ele>75.0</ele><time>2026-05-01T16:01:38.197Z</time></trkpt><trkpt lat="39.2720114" lon="9.3107234"><ele>76.0</ele><time>2026-05-01T16:01:39.197Z</time></trkpt><trkpt lat="39.272159" lon="9.3108912"><ele>77.0</ele><time>2026-05-01T16:01:40.197Z</time></trkpt><trkpt lat="39.2723035" lon="9.3110605"><ele>78.0</ele><time>2026-05-01T16:01:41.197Z</time></trkpt><trkpt lat="39.2724488" lon="9.311231"><ele>79.0</ele><time>2026-05-01T16:01:42.196Z</time></trkpt><trkpt lat="39.2725952" lon="9.3114043"><ele>80.0</ele><time>2026-05-01T16:01:43.197Z</time></trkpt><trkpt lat="39.2727432" lon="9.311577"><ele>81.0</ele><time>2026-05-01T16:01:44.197Z</time></trkpt><trkpt lat="39.2728887" lon="9.3117445"><ele>81.0</ele><time>2026-05-01T16:01:45.197Z</time></trkpt><trkpt lat="39.2730324" lon="9.3119185"><ele>81.0</ele><time>2026-05-01T16:01:46.197Z</time></trkpt><trkpt lat="39.273174" lon="9.3121011"><ele>81.0</ele><time>2026-05-01T16:01:47.197Z</time></trkpt><trkpt lat="39.2733142" lon="9.3122906"><ele>81.33333333333333</ele><time>2026-05-01T16:01:48.196Z</time></trkpt><trkpt lat="39.2734546" lon="9.3124863"><ele>81.66666666666666</ele><time>2026-05-01T16:01:49.196Z</time></trkpt><trkpt lat="39.273591" lon="9.3126851"><ele>82.0</ele><time>2026-05-01T16:01:50.196Z</time></trkpt><trkpt lat="39.2737171" lon="9.3128906"><ele>80.66666666666666</ele><time>2026-05-01T16:01:51.197Z</time></trkpt><trkpt lat="39.2738268" lon="9.3131051"><ele>79.33333333333333</ele><time>2026-05-01T16:01:52.197Z</time></trkpt><trkpt lat="39.2739283" lon="9.3133343"><ele>78.0</ele><time>2026-05-01T16:01:53.197Z</time></trkpt><trkpt lat="39.2740282" lon="9.3135815"><ele>78.0</ele><time>2026-05-01T16:01:54.196Z</time></trkpt><trkpt lat="39.2741283" lon="9.3138405"><ele>78.0</ele><time>2026-05-01T16:01:55.196Z</time></trkpt><trkpt lat="39.2742307" lon="9.3141067"><ele>82.5</ele><time>2026-05-01T16:01:56.196Z</time></trkpt><trkpt lat="39.274334" lon="9.3143767"><ele>87.0</ele><time>2026-05-01T16:01:57.196Z</time></trkpt><trkpt lat="39.2744387" lon="9.3146529"><ele>86.5</ele><time>2026-05-01T16:01:58.197Z</time></trkpt><trkpt lat="39.2745475" lon="9.3149339"><ele>86.0</ele><time>2026-05-01T16:01:59.197Z</time></trkpt><trkpt lat="39.274659" lon="9.3152179"><ele>86.0</ele><time>2026-05-01T16:02:00.197Z</time></trkpt><trkpt lat="39.2747686" lon="9.3155039"><ele>86.0</ele><time>2026-05-01T16:02:01.197Z</time></trkpt><trkpt lat="39.2748781" lon="9.3157887"><ele>84.0</ele><time>2026-05-01T16:02:02.197Z</time></trkpt><trkpt lat="39.2749895" lon="9.3160771"><ele>82.0</ele><time>2026-05-01T16:02:03.196Z</time></trkpt><trkpt lat="39.2751031" lon="9.3163666"><ele>83.0</ele><time>2026-05-01T16:02:04.196Z</time></trkpt><trkpt lat="39.2752238" lon="9.3166554"><ele>84.0</ele><time>2026-05-01T16:02:05.196Z</time></trkpt><trkpt lat="39.2753488" lon="9.3169435"><ele>84.0</ele><time>2026-05-01T16:02:06.196Z</time></trkpt><trkpt lat="39.2754777" lon="9.3172281"><ele>84.0</ele><time>2026-05-01T16:02:07.197Z</time></trkpt><trkpt lat="39.2756042" lon="9.3174922"><ele>83.66666666666667</ele><time>2026-05-01T16:02:08.197Z</time></trkpt><trkpt lat="39.2757192" lon="9.3177323"><ele>83.33333333333334</ele><time>2026-05-01T16:02:09.197Z</time></trkpt><trkpt lat="39.2758245" lon="9.3179478"><ele>83.0</ele><time>2026-05-01T16:02:10.197Z</time></trkpt><trkpt lat="39.2759225" lon="9.3181486"><ele>84.33333333333334</ele><time>2026-05-01T16:02:11.197Z</time></trkpt><trkpt lat="39.2760082" lon="9.3183221"><ele>85.66666666666667</ele><time>2026-05-01T16:02:12.196Z</time></trkpt><trkpt lat="39.2760866" lon="9.3184832"><ele>87.0</ele><time>2026-05-01T16:02:13.197Z</time></trkpt><trkpt lat="39.2761622" lon="9.3186415"><ele>87.0</ele><time>2026-05-01T16:02:14.197Z</time></trkpt><trkpt lat="39.2762421" lon="9.3188047"><ele>87.0</ele><time>2026-05-01T16:02:15.197Z</time></trkpt><trkpt lat="39.2763383" lon="9.3189845"><ele>87.0</ele><time>2026-05-01T16:02:16.196Z</time></trkpt><trkpt lat="39.2764462" lon="9.3191961"><ele>87.5</ele><time>2026-05-01T16:02:17.196Z</time></trkpt><trkpt lat="39.276567" lon="9.319444"><ele>88.0</ele><time>2026-05-01T16:02:18.197Z</time></trkpt><trkpt lat="39.2766871" lon="9.3196958"><ele>89.0</ele><time>2026-05-01T16:02:19.196Z</time></trkpt><trkpt lat="39.2767903" lon="9.3199142"><ele>90.0</ele><time>2026-05-01T16:02:20.196Z</time></trkpt><trkpt lat="39.2768712" lon="9.3200783"><ele>91.0</ele><time>2026-05-01T16:02:21.196Z</time></trkpt><trkpt lat="39.276934" lon="9.320221"><ele>91.0</ele><time>2026-05-01T16:02:22.196Z</time></trkpt><trkpt lat="39.2769889" lon="9.3203426"><ele>91.0</ele><time>2026-05-01T16:02:23.197Z</time></trkpt><trkpt lat="39.2770388" lon="9.3204481"><ele>91.0</ele><time>2026-05-01T16:02:24.196Z</time></trkpt><trkpt lat="39.277085" lon="9.3205426"><ele>91.0</ele><time>2026-05-01T16:02:25.196Z</time></trkpt><trkpt lat="39.2771263" lon="9.3206293"><ele>91.0</ele><time>2026-05-01T16:02:26.197Z</time></trkpt><trkpt lat="39.2771633" lon="9.3207066"><ele>91.0</ele><time>2026-05-01T16:02:27.196Z</time></trkpt><trkpt lat="39.2771977" lon="9.3207772"><ele>90.83333333333333</ele><time>2026-05-01T16:02:28.196Z</time></trkpt><trkpt lat="39.2772569" lon="9.3208993"><ele>90.66666666666666</ele><time>2026-05-01T16:02:30.197Z</time></trkpt><trkpt lat="39.2773005" lon="9.3209779"><ele>90.5</ele><time>2026-05-01T16:02:32.197Z</time></trkpt><trkpt lat="39.2773739" lon="9.321028"><ele>90.33333333333333</ele><time>2026-05-01T16:02:35.197Z</time></trkpt><trkpt lat="39.2774499" lon="9.3210447"><ele>90.16666666666667</ele><time>2026-05-01T16:02:38.196Z</time></trkpt><trkpt lat="39.2775244" lon="9.3210594"><ele>90.0</ele><time>2026-05-01T16:02:41.197Z</time></trkpt><trkpt lat="39.2775751" lon="9.3211194"><ele>90.0</ele><time>2026-05-01T16:02:43.197Z</time></trkpt><trkpt lat="39.2776163" lon="9.3211946"><ele>90.0</ele><time>2026-05-01T16:02:45.197Z</time></trkpt><trkpt lat="39.277655" lon="9.3212862"><ele>90.0</ele><time>2026-05-01T16:02:48.196Z</time></trkpt><trkpt lat="39.2776783" lon="9.3213758"><ele>90.0</ele><time>2026-05-01T16:11:52.193Z</time></trkpt><trkpt lat="39.2777222" lon="9.3214595"><ele>90.0</ele><time>2026-05-01T16:11:56.193Z</time></trkpt><trkpt lat="39.2776818" lon="9.3215259"><ele>90.0</ele><time>2026-05-01T16:12:06.193Z</time></trkpt><trkpt lat="39.2776266" lon="9.3214807"><ele>90.0</ele><time>2026-05-01T16:12:09.192Z</time></trkpt><trkpt lat="39.2775861" lon="9.3213875"><ele>90.0</ele><time>2026-05-01T16:12:11.192Z</time></trkpt><trkpt lat="39.2775503" lon="9.321302"><ele>90.0</ele><time>2026-05-01T16:12:13.193Z</time></trkpt><trkpt lat="39.2775087" lon="9.3212012"><ele>90.0</ele><time>2026-05-01T16:12:15.193Z</time></trkpt><trkpt lat="39.277472" lon="9.3211212"><ele>90.0</ele><time>2026-05-01T16:12:17.192Z</time></trkpt><trkpt lat="39.2774087" lon="9.3210969"><ele>90.0</ele><time>2026-05-01T16:12:24.192Z</time></trkpt><trkpt lat="39.2773906" lon="9.3211898"><ele>90.0</ele><time>2026-05-01T16:12:29.192Z</time></trkpt><trkpt lat="39.2774593" lon="9.3213269"><ele>90.6</ele><time>2026-05-01T16:12:31.193Z</time></trkpt><trkpt lat="39.2775028" lon="9.3214138"><ele>91.2</ele><time>2026-05-01T16:12:32.193Z</time></trkpt><trkpt lat="39.2775521" lon="9.3215125"><ele>91.80000000000001</ele><time>2026-05-01T16:12:33.192Z</time></trkpt><trkpt lat="39.2776098" lon="9.3216308"><ele>92.4</ele><time>2026-05-01T16:12:34.193Z</time></trkpt><trkpt lat="39.2776748" lon="9.3217624"><ele>93.0</ele><time>2026-05-01T16:12:35.192Z</time></trkpt><trkpt lat="39.2777471" lon="9.3219071"><ele>93.0</ele><time>2026-05-01T16:12:36.193Z</time></trkpt><trkpt lat="39.2778276" lon="9.322067"><ele>93.0</ele><time>2026-05-01T16:12:37.193Z</time></trkpt><trkpt lat="39.2779171" lon="9.3222429"><ele>93.0</ele><time>2026-05-01T16:12:38.192Z</time></trkpt><trkpt lat="39.2780113" lon="9.3224311"><ele>93.0</ele><time>2026-05-01T16:12:39.193Z</time></trkpt><trkpt lat="39.2781064" lon="9.322623"><ele>93.0</ele><time>2026-05-01T16:12:40.193Z</time></trkpt><trkpt lat="39.2782022" lon="9.3228185"><ele>93.0</ele><time>2026-05-01T16:12:41.193Z</time></trkpt><trkpt lat="39.2782984" lon="9.3230147"><ele>92.66666666666667</ele><time>2026-05-01T16:12:42.193Z</time></trkpt><trkpt lat="39.2783898" lon="9.3232041"><ele>92.33333333333334</ele><time>2026-05-01T16:12:43.193Z</time></trkpt><trkpt lat="39.2784837" lon="9.3233993"><ele>92.0</ele><time>2026-05-01T16:12:44.192Z</time></trkpt><trkpt lat="39.278578" lon="9.3235981"><ele>92.0</ele><time>2026-05-01T16:12:45.192Z</time></trkpt><trkpt lat="39.278668" lon="9.3237866"><ele>92.0</ele><time>2026-05-01T16:12:46.193Z</time></trkpt><trkpt lat="39.2787511" lon="9.3239599"><ele>92.0</ele><time>2026-05-01T16:12:47.193Z</time></trkpt><trkpt lat="39.2788289" lon="9.3241208"><ele>92.75</ele><time>2026-05-01T16:12:48.192Z</time></trkpt><trkpt lat="39.2789052" lon="9.3242807"><ele>93.5</ele><time>2026-05-01T16:12:49.193Z</time></trkpt><trkpt lat="39.2789823" lon="9.3244399"><ele>94.25</ele><time>2026-05-01T16:12:50.192Z</time></trkpt><trkpt lat="39.2790604" lon="9.3245998"><ele>95.0</ele><time>2026-05-01T16:12:51.192Z</time></trkpt><trkpt lat="39.2791401" lon="9.3247624"><ele>96.33333333333334</ele><time>2026-05-01T16:12:52.193Z</time></trkpt><trkpt lat="39.2792237" lon="9.3249296"><ele>97.66666666666667</ele><time>2026-05-01T16:12:53.192Z</time></trkpt><trkpt lat="39.2793083" lon="9.325101"><ele>99.0</ele><time>2026-05-01T16:12:54.192Z</time></trkpt><trkpt lat="39.2793939" lon="9.3252767"><ele>99.0</ele><time>2026-05-01T16:12:55.193Z</time></trkpt><trkpt lat="39.2794803" lon="9.3254576"><ele>99.0</ele><time>2026-05-01T16:12:56.192Z</time></trkpt><trkpt lat="39.2795669" lon="9.3256359"><ele>99.0</ele><time>2026-05-01T16:12:57.192Z</time></trkpt><trkpt lat="39.2796504" lon="9.325807"><ele>99.66666666666666</ele><time>2026-05-01T16:12:58.192Z</time></trkpt><trkpt lat="39.2797352" lon="9.3259845"><ele>100.33333333333333</ele><time>2026-05-01T16:12:59.192Z</time></trkpt><trkpt lat="39.2798225" lon="9.3261636"><ele>101.0</ele><time>2026-05-01T16:13:00.192Z</time></trkpt><trkpt lat="39.2799156" lon="9.3263493"><ele>101.33333333333333</ele><time>2026-05-01T16:13:01.193Z</time></trkpt><trkpt lat="39.280011" lon="9.3265483"><ele>101.66666666666666</ele><time>2026-05-01T16:13:02.193Z</time></trkpt><trkpt lat="39.2801067" lon="9.3267497"><ele>102.0</ele><time>2026-05-01T16:13:03.193Z</time></trkpt><trkpt lat="39.280203" lon="9.3269526"><ele>102.0</ele><time>2026-05-01T16:13:04.192Z</time></trkpt><trkpt lat="39.2803031" lon="9.3271554"><ele>102.0</ele><time>2026-05-01T16:13:05.192Z</time></trkpt><trkpt lat="39.2804043" lon="9.3273606"><ele>102.0</ele><time>2026-05-01T16:13:06.193Z</time></trkpt><trkpt lat="39.2805051" lon="9.3275701"><ele>102.66666666666666</ele><time>2026-05-01T16:13:07.193Z</time></trkpt><trkpt lat="39.2806071" lon="9.3277835"><ele>103.33333333333333</ele><time>2026-05-01T16:13:08.192Z</time></trkpt><trkpt lat="39.280709" lon="9.3279988"><ele>104.0</ele><time>2026-05-01T16:13:09.193Z</time></trkpt><trkpt lat="39.2808154" lon="9.3282163"><ele>106.33333333333333</ele><time>2026-05-01T16:13:10.193Z</time></trkpt><trkpt lat="39.2809267" lon="9.3284371"><ele>108.66666666666666</ele><time>2026-05-01T16:13:11.192Z</time></trkpt><trkpt lat="39.2810329" lon="9.3286595"><ele>111.0</ele><time>2026-05-01T16:13:12.193Z</time></trkpt><trkpt lat="39.2811394" lon="9.3288824"><ele>110.33333333333334</ele><time>2026-05-01T16:13:13.193Z</time></trkpt><trkpt lat="39.2812472" lon="9.3291089"><ele>109.66666666666667</ele><time>2026-05-01T16:13:14.193Z</time></trkpt><trkpt lat="39.2813593" lon="9.3293389"><ele>109.0</ele><time>2026-05-01T16:13:15.193Z</time></trkpt><trkpt lat="39.2814698" lon="9.3295671"><ele>110.66666666666667</ele><time>2026-05-01T16:13:16.192Z</time></trkpt><trkpt lat="39.2815794" lon="9.3297869"><ele>112.33333333333334</ele><time>2026-05-01T16:13:17.193Z</time></trkpt><trkpt lat="39.2816832" lon="9.3300056"><ele>114.0</ele><time>2026-05-01T16:13:18.192Z</time></trkpt><trkpt lat="39.281786" lon="9.3302197"><ele>114.0</ele><time>2026-05-01T16:13:19.193Z</time></trkpt><trkpt lat="39.2818898" lon="9.3304354"><ele>114.0</ele><time>2026-05-01T16:13:20.193Z</time></trkpt><trkpt lat="39.281995" lon="9.3306557"><ele>114.0</ele><time>2026-05-01T16:13:21.193Z</time></trkpt><trkpt lat="39.2821" lon="9.3308769"><ele>114.0</ele><time>2026-05-01T16:13:22.193Z</time></trkpt><trkpt lat="39.2822095" lon="9.3310984"><ele>114.0</ele><time>2026-05-01T16:13:23.192Z</time></trkpt><trkpt lat="39.2823129" lon="9.3313123"><ele>114.0</ele><time>2026-05-01T16:13:24.192Z</time></trkpt><trkpt lat="39.2824171" lon="9.3315263"><ele>114.0</ele><time>2026-05-01T16:13:25.192Z</time></trkpt><trkpt lat="39.2825218" lon="9.3317385"><ele>114.0</ele><time>2026-05-01T16:13:26.192Z</time></trkpt><trkpt lat="39.2826274" lon="9.3319544"><ele>114.0</ele><time>2026-05-01T16:13:27.192Z</time></trkpt><trkpt lat="39.2827327" lon="9.3321715"><ele>115.33333333333334</ele><time>2026-05-01T16:13:28.192Z</time></trkpt><trkpt lat="39.2828421" lon="9.3323835"><ele>116.66666666666667</ele><time>2026-05-01T16:13:29.193Z</time></trkpt><trkpt lat="39.2829427" lon="9.3325949"><ele>118.0</ele><time>2026-05-01T16:13:30.193Z</time></trkpt><trkpt lat="39.2830331" lon="9.3328107"><ele>118.0</ele><time>2026-05-01T16:13:31.193Z</time></trkpt><trkpt lat="39.2831113" lon="9.3330334"><ele>118.0</ele><time>2026-05-01T16:13:32.192Z</time></trkpt><trkpt lat="39.2831817" lon="9.3332685"><ele>118.0</ele><time>2026-05-01T16:13:33.193Z</time></trkpt><trkpt lat="39.2832525" lon="9.3335117"><ele>118.0</ele><time>2026-05-01T16:13:34.193Z</time></trkpt><trkpt lat="39.2833157" lon="9.3337629"><ele>118.0</ele><time>2026-05-01T16:13:35.193Z</time></trkpt><trkpt lat="39.2833733" lon="9.3340182"><ele>118.0</ele><time>2026-05-01T16:13:36.192Z</time></trkpt><trkpt lat="39.2834282" lon="9.334264"><ele>119.33333333333334</ele><time>2026-05-01T16:13:37.192Z</time></trkpt><trkpt lat="39.2834852" lon="9.334503"><ele>120.66666666666666</ele><time>2026-05-01T16:13:38.192Z</time></trkpt><trkpt lat="39.2835394" lon="9.3347423"><ele>122.0</ele><time>2026-05-01T16:13:39.192Z</time></trkpt><trkpt lat="39.283591" lon="9.3349692"><ele>126.33333333333333</ele><time>2026-05-01T16:13:40.193Z</time></trkpt><trkpt lat="39.283641" lon="9.3351899"><ele>130.66666666666666</ele><time>2026-05-01T16:13:41.192Z</time></trkpt><trkpt lat="39.2836961" lon="9.3354108"><ele>135.0</ele><time>2026-05-01T16:13:42.192Z</time></trkpt><trkpt lat="39.2837659" lon="9.3356234"><ele>130.66666666666666</ele><time>2026-05-01T16:13:43.193Z</time></trkpt><trkpt lat="39.2838476" lon="9.3358247"><ele>126.33333333333333</ele><time>2026-05-01T16:13:44.193Z</time></trkpt><trkpt lat="39.2839438" lon="9.3360162"><ele>122.0</ele><time>2026-05-01T16:13:45.193Z</time></trkpt><trkpt lat="39.2840543" lon="9.3362045"><ele>124.0</ele><time>2026-05-01T16:13:46.192Z</time></trkpt><trkpt lat="39.2841832" lon="9.3363943"><ele>126.0</ele><time>2026-05-01T16:13:47.192Z</time></trkpt><trkpt lat="39.2843254" lon="9.3365984"><ele>128.0</ele><time>2026-05-01T16:13:48.192Z</time></trkpt><trkpt lat="39.2844801" lon="9.3368271"><ele>128.0</ele><time>2026-05-01T16:13:49.193Z</time></trkpt><trkpt lat="39.2846331" lon="9.3370692"><ele>128.0</ele><time>2026-05-01T16:13:50.192Z</time></trkpt><trkpt lat="39.2847917" lon="9.337327"><ele>126.5</ele><time>2026-05-01T16:13:51.193Z</time></trkpt><trkpt lat="39.2849503" lon="9.3375978"><ele>125.0</ele><time>2026-05-01T16:13:52.193Z</time></trkpt><trkpt lat="39.2851141" lon="9.3378701"><ele>130.5</ele><time>2026-05-01T16:13:53.192Z</time></trkpt><trkpt lat="39.2852823" lon="9.3381323"><ele>136.0</ele><time>2026-05-01T16:13:54.193Z</time></trkpt><trkpt lat="39.285444" lon="9.3383831"><ele>129.5</ele><time>2026-05-01T16:13:55.193Z</time></trkpt><trkpt lat="39.2855962" lon="9.338615"><ele>123.0</ele><time>2026-05-01T16:13:56.192Z</time></trkpt><trkpt lat="39.2857377" lon="9.3388384"><ele>126.0</ele><time>2026-05-01T16:13:57.192Z</time></trkpt><trkpt lat="39.285873" lon="9.3390543"><ele>129.0</ele><time>2026-05-01T16:13:58.193Z</time></trkpt><trkpt lat="39.2860035" lon="9.3392703"><ele>132.0</ele><time>2026-05-01T16:13:59.192Z</time></trkpt><trkpt lat="39.2861287" lon="9.3394875"><ele>132.0</ele><time>2026-05-01T16:14:00.193Z</time></trkpt><trkpt lat="39.2862495" lon="9.3397122"><ele>132.0</ele><time>2026-05-01T16:14:01.193Z</time></trkpt><trkpt lat="39.2863586" lon="9.3399459"><ele>132.0</ele><time>2026-05-01T16:14:02.192Z</time></trkpt><trkpt lat="39.2864586" lon="9.3401893"><ele>132.0</ele><time>2026-05-01T16:14:03.193Z</time></trkpt><trkpt lat="39.2865545" lon="9.3404343"><ele>132.0</ele><time>2026-05-01T16:14:04.193Z</time></trkpt><trkpt lat="39.2866523" lon="9.3406794"><ele>132.0</ele><time>2026-05-01T16:14:05.193Z</time></trkpt><trkpt lat="39.2867545" lon="9.3409333"><ele>132.0</ele><time>2026-05-01T16:14:06.192Z</time></trkpt><trkpt lat="39.2868586" lon="9.3411995"><ele>132.0</ele><time>2026-05-01T16:14:07.192Z</time></trkpt><trkpt lat="39.2869664" lon="9.341468"><ele>132.5</ele><time>2026-05-01T16:14:08.193Z</time></trkpt><trkpt lat="39.2870763" lon="9.3417388"><ele>133.0</ele><time>2026-05-01T16:14:09.192Z</time></trkpt><trkpt lat="39.2871804" lon="9.3420096"><ele>134.0</ele><time>2026-05-01T16:14:10.192Z</time></trkpt><trkpt lat="39.2872854" lon="9.3422757"><ele>135.0</ele><time>2026-05-01T16:14:11.192Z</time></trkpt><trkpt lat="39.2873864" lon="9.3425332"><ele>135.0</ele><time>2026-05-01T16:14:12.193Z</time></trkpt><trkpt lat="39.2874809" lon="9.3427748"><ele>135.0</ele><time>2026-05-01T16:14:13.193Z</time></trkpt><trkpt lat="39.2875867" lon="9.3430077"><ele>135.0</ele><time>2026-05-01T16:14:14.193Z</time></trkpt><trkpt lat="39.2876992" lon="9.3432293"><ele>137.33333333333334</ele><time>2026-05-01T16:14:15.192Z</time></trkpt><trkpt lat="39.287816" lon="9.34345"><ele>139.66666666666669</ele><time>2026-05-01T16:14:16.193Z</time></trkpt><trkpt lat="39.2879373" lon="9.3436693"><ele>142.0</ele><time>2026-05-01T16:14:17.193Z</time></trkpt><trkpt lat="39.2880621" lon="9.343889"><ele>142.33333333333334</ele><time>2026-05-01T16:14:18.193Z</time></trkpt><trkpt lat="39.2881876" lon="9.34411"><ele>142.66666666666666</ele><time>2026-05-01T16:14:19.192Z</time></trkpt><trkpt lat="39.2883131" lon="9.3443343"><ele>143.0</ele><time>2026-05-01T16:14:20.192Z</time></trkpt><trkpt lat="39.2884342" lon="9.3445754"><ele>145.0</ele><time>2026-05-01T16:14:21.192Z</time></trkpt><trkpt lat="39.2885639" lon="9.3448243"><ele>147.0</ele><time>2026-05-01T16:14:22.192Z</time></trkpt><trkpt lat="39.2887056" lon="9.3450684"><ele>147.0</ele><time>2026-05-01T16:14:23.192Z</time></trkpt><trkpt lat="39.288859" lon="9.3453077"><ele>147.0</ele><time>2026-05-01T16:14:24.192Z</time></trkpt><trkpt lat="39.2890185" lon="9.3455484"><ele>148.0</ele><time>2026-05-01T16:14:25.192Z</time></trkpt><trkpt lat="39.2891749" lon="9.3457949"><ele>149.0</ele><time>2026-05-01T16:14:26.193Z</time></trkpt><trkpt lat="39.2893212" lon="9.3460479"><ele>149.0</ele><time>2026-05-01T16:14:27.192Z</time></trkpt><trkpt lat="39.2894555" lon="9.3463053"><ele>149.0</ele><time>2026-05-01T16:14:28.192Z</time></trkpt><trkpt lat="39.2895731" lon="9.3465765"><ele>149.0</ele><time>2026-05-01T16:14:29.193Z</time></trkpt><trkpt lat="39.2896796" lon="9.3468518"><ele>149.0</ele><time>2026-05-01T16:14:30.192Z</time></trkpt><trkpt lat="39.2897784" lon="9.3471341"><ele>151.5</ele><time>2026-05-01T16:14:31.192Z</time></trkpt><trkpt lat="39.2898744" lon="9.3474139"><ele>154.0</ele><time>2026-05-01T16:14:32.193Z</time></trkpt><trkpt lat="39.2899581" lon="9.3476954"><ele>154.0</ele><time>2026-05-01T16:14:33.192Z</time></trkpt><trkpt lat="39.2900252" lon="9.34798"><ele>154.0</ele><time>2026-05-01T16:14:34.192Z</time></trkpt><trkpt lat="39.2900819" lon="9.3482642"><ele>155.0</ele><time>2026-05-01T16:14:35.192Z</time></trkpt><trkpt lat="39.2901304" lon="9.3485278"><ele>156.0</ele><time>2026-05-01T16:14:36.193Z</time></trkpt><trkpt lat="39.2901671" lon="9.3487748"><ele>157.0</ele><time>2026-05-01T16:14:37.193Z</time></trkpt><trkpt lat="39.2902009" lon="9.348998"><ele>159.33333333333334</ele><time>2026-05-01T16:14:38.192Z</time></trkpt><trkpt lat="39.2902576" lon="9.3491925"><ele>161.66666666666666</ele><time>2026-05-01T16:14:39.192Z</time></trkpt><trkpt lat="39.2903489" lon="9.3493543"><ele>164.0</ele><time>2026-05-01T16:14:40.192Z</time></trkpt><trkpt lat="39.2904671" lon="9.3494909"><ele>161.66666666666666</ele><time>2026-05-01T16:14:41.192Z</time></trkpt><trkpt lat="39.2906064" lon="9.3496126"><ele>159.33333333333334</ele><time>2026-05-01T16:14:42.192Z</time></trkpt><trkpt lat="39.2907578" lon="9.3497306"><ele>157.0</ele><time>2026-05-01T16:14:43.192Z</time></trkpt><trkpt lat="39.2909096" lon="9.3498531"><ele>157.0</ele><time>2026-05-01T16:14:44.192Z</time></trkpt><trkpt lat="39.2910465" lon="9.3499705"><ele>157.0</ele><time>2026-05-01T16:14:45.192Z</time></trkpt><trkpt lat="39.2911635" lon="9.3501003"><ele>157.0</ele><time>2026-05-01T16:14:46.193Z</time></trkpt><trkpt lat="39.2912418" lon="9.3502463"><ele>157.0</ele><time>2026-05-01T16:14:47.192Z</time></trkpt><trkpt lat="39.2912844" lon="9.3504122"><ele>157.0</ele><time>2026-05-01T16:14:48.192Z</time></trkpt><trkpt lat="39.2913156" lon="9.3505932"><ele>157.0</ele><time>2026-05-01T16:14:49.192Z</time></trkpt><trkpt lat="39.2913802" lon="9.3507707"><ele>157.0</ele><time>2026-05-01T16:14:50.193Z</time></trkpt><trkpt lat="39.2914763" lon="9.3509503"><ele>159.0</ele><time>2026-05-01T16:14:51.192Z</time></trkpt><trkpt lat="39.2915901" lon="9.3511338"><ele>161.0</ele><time>2026-05-01T16:14:52.193Z</time></trkpt><trkpt lat="39.2917109" lon="9.3513278"><ele>163.0</ele><time>2026-05-01T16:14:53.193Z</time></trkpt><trkpt lat="39.2918349" lon="9.3515286"><ele>163.0</ele><time>2026-05-01T16:14:54.192Z</time></trkpt><trkpt lat="39.2919569" lon="9.3517418"><ele>163.0</ele><time>2026-05-01T16:14:55.193Z</time></trkpt><trkpt lat="39.2920687" lon="9.3519726"><ele>163.0</ele><time>2026-05-01T16:14:56.193Z</time></trkpt><trkpt lat="39.2921773" lon="9.3522118"><ele>164.66666666666669</ele><time>2026-05-01T16:14:57.192Z</time></trkpt><trkpt lat="39.2922816" lon="9.3524599"><ele>166.33333333333334</ele><time>2026-05-01T16:14:58.193Z</time></trkpt><trkpt lat="39.2923855" lon="9.352711"><ele>168.0</ele><time>2026-05-01T16:14:59.193Z</time></trkpt><trkpt lat="39.292492" lon="9.3529662"><ele>166.0</ele><time>2026-05-01T16:15:00.193Z</time></trkpt><trkpt lat="39.2926043" lon="9.3532193"><ele>164.0</ele><time>2026-05-01T16:15:01.192Z</time></trkpt><trkpt lat="39.2927162" lon="9.3534723"><ele>164.0</ele><time>2026-05-01T16:15:02.193Z</time></trkpt><trkpt lat="39.2928409" lon="9.3537147"><ele>164.0</ele><time>2026-05-01T16:15:03.193Z</time></trkpt><trkpt lat="39.2929698" lon="9.353957"><ele>168.0</ele><time>2026-05-01T16:15:04.192Z</time></trkpt><trkpt lat="39.2931025" lon="9.3541969"><ele>172.0</ele><time>2026-05-01T16:15:05.192Z</time></trkpt><trkpt lat="39.2932367" lon="9.3544331"><ele>172.0</ele><time>2026-05-01T16:15:06.192Z</time></trkpt><trkpt lat="39.2933655" lon="9.3546743"><ele>172.0</ele><time>2026-05-01T16:15:07.192Z</time></trkpt><trkpt lat="39.2934996" lon="9.3549098"><ele>172.66666666666669</ele><time>2026-05-01T16:15:08.192Z</time></trkpt><trkpt lat="39.2936323" lon="9.355145"><ele>173.33333333333334</ele><time>2026-05-01T16:15:09.193Z</time></trkpt><trkpt lat="39.2937597" lon="9.355377"><ele>174.0</ele><time>2026-05-01T16:15:10.193Z</time></trkpt><trkpt lat="39.2938863" lon="9.3555963"><ele>176.33333333333334</ele><time>2026-05-01T16:15:11.192Z</time></trkpt><trkpt lat="39.2940277" lon="9.3557932"><ele>178.66666666666669</ele><time>2026-05-01T16:15:12.193Z</time></trkpt><trkpt lat="39.2941815" lon="9.3559764"><ele>181.0</ele><time>2026-05-01T16:15:13.193Z</time></trkpt><trkpt lat="39.2943437" lon="9.3561416"><ele>181.0</ele><time>2026-05-01T16:15:14.192Z</time></trkpt><trkpt lat="39.2945089" lon="9.356304"><ele>181.0</ele><time>2026-05-01T16:15:15.193Z</time></trkpt><trkpt lat="39.2946618" lon="9.3564546"><ele>181.0</ele><time>2026-05-01T16:15:16.192Z</time></trkpt><trkpt lat="39.2948061" lon="9.3566034"><ele>180.66666666666669</ele><time>2026-05-01T16:15:17.193Z</time></trkpt><trkpt lat="39.2949422" lon="9.3567728"><ele>180.33333333333334</ele><time>2026-05-01T16:15:18.193Z</time></trkpt><trkpt lat="39.2950707" lon="9.3569612"><ele>180.0</ele><time>2026-05-01T16:15:19.192Z</time></trkpt><trkpt lat="39.2951935" lon="9.3571649"><ele>179.66666666666666</ele><time>2026-05-01T16:15:20.192Z</time></trkpt><trkpt lat="39.2953064" lon="9.3573744"><ele>179.33333333333331</ele><time>2026-05-01T16:15:21.192Z</time></trkpt><trkpt lat="39.2954041" lon="9.3575958"><ele>179.0</ele><time>2026-05-01T16:15:22.192Z</time></trkpt><trkpt lat="39.2954867" lon="9.3578305"><ele>180.33333333333331</ele><time>2026-05-01T16:15:23.193Z</time></trkpt><trkpt lat="39.2955584" lon="9.3580755"><ele>181.66666666666666</ele><time>2026-05-01T16:15:24.193Z</time></trkpt><trkpt lat="39.2956265" lon="9.358328"><ele>183.0</ele><time>2026-05-01T16:15:25.193Z</time></trkpt><trkpt lat="39.2956922" lon="9.3585662"><ele>184.0</ele><time>2026-05-01T16:15:26.192Z</time></trkpt><trkpt lat="39.2957695" lon="9.3587821"><ele>185.0</ele><time>2026-05-01T16:15:27.193Z</time></trkpt><trkpt lat="39.2958764" lon="9.3589739"><ele>186.0</ele><time>2026-05-01T16:15:28.193Z</time></trkpt><trkpt lat="39.2959958" lon="9.3591622"><ele>186.0</ele><time>2026-05-01T16:15:29.193Z</time></trkpt><trkpt lat="39.2961185" lon="9.359356"><ele>186.0</ele><time>2026-05-01T16:15:30.192Z</time></trkpt><trkpt lat="39.2962429" lon="9.3595534"><ele>186.0</ele><time>2026-05-01T16:15:31.192Z</time></trkpt><trkpt lat="39.2963691" lon="9.3597472"><ele>189.33333333333331</ele><time>2026-05-01T16:15:32.192Z</time></trkpt><trkpt lat="39.296502" lon="9.3599382"><ele>192.66666666666666</ele><time>2026-05-01T16:15:33.193Z</time></trkpt><trkpt lat="39.2966424" lon="9.360122"><ele>196.0</ele><time>2026-05-01T16:15:34.192Z</time></trkpt><trkpt lat="39.2967897" lon="9.3602986"><ele>196.0</ele><time>2026-05-01T16:15:35.192Z</time></trkpt><trkpt lat="39.2969431" lon="9.360469"><ele>196.0</ele><time>2026-05-01T16:15:36.193Z</time></trkpt><trkpt lat="39.2971003" lon="9.3606405"><ele>196.0</ele><time>2026-05-01T16:15:37.193Z</time></trkpt><trkpt lat="39.2972598" lon="9.3608118"><ele>197.33333333333331</ele><time>2026-05-01T16:15:38.193Z</time></trkpt><trkpt lat="39.2974085" lon="9.3609712"><ele>198.66666666666669</ele><time>2026-05-01T16:15:39.192Z</time></trkpt><trkpt lat="39.2975453" lon="9.3611095"><ele>200.0</ele><time>2026-05-01T16:15:40.193Z</time></trkpt><trkpt lat="39.2976794" lon="9.3612122"><ele>200.0</ele><time>2026-05-01T16:15:41.193Z</time></trkpt><trkpt lat="39.297808" lon="9.3612729"><ele>200.0</ele><time>2026-05-01T16:15:42.193Z</time></trkpt><trkpt lat="39.2979333" lon="9.3613262"><ele>200.0</ele><time>2026-05-01T16:15:43.192Z</time></trkpt><trkpt lat="39.2980379" lon="9.3614234"><ele>200.0</ele><time>2026-05-01T16:15:44.193Z</time></trkpt><trkpt lat="39.2981142" lon="9.3615522"><ele>201.33333333333334</ele><time>2026-05-01T16:15:45.193Z</time></trkpt><trkpt lat="39.2981679" lon="9.3617135"><ele>202.66666666666669</ele><time>2026-05-01T16:15:46.192Z</time></trkpt><trkpt lat="39.2982073" lon="9.3619065"><ele>204.0</ele><time>2026-05-01T16:15:47.193Z</time></trkpt><trkpt lat="39.2982455" lon="9.3621099"><ele>204.5</ele><time>2026-05-01T16:15:48.192Z</time></trkpt><trkpt lat="39.298296" lon="9.3622793"><ele>205.0</ele><time>2026-05-01T16:15:49.193Z</time></trkpt><trkpt lat="39.2983804" lon="9.3624304"><ele>205.5</ele><time>2026-05-01T16:15:50.193Z</time></trkpt><trkpt lat="39.2984847" lon="9.3625657"><ele>206.0</ele><time>2026-05-01T16:15:51.192Z</time></trkpt><trkpt lat="39.2985878" lon="9.3627169"><ele>206.0</ele><time>2026-05-01T16:15:52.193Z</time></trkpt><trkpt lat="39.2986789" lon="9.3629088"><ele>206.0</ele><time>2026-05-01T16:15:53.193Z</time></trkpt><trkpt lat="39.2987733" lon="9.3631291"><ele>206.0</ele><time>2026-05-01T16:15:54.193Z</time></trkpt><trkpt lat="39.2988602" lon="9.3633455"><ele>205.75</ele><time>2026-05-01T16:15:55.193Z</time></trkpt><trkpt lat="39.2989224" lon="9.3635298"><ele>205.5</ele><time>2026-05-01T16:15:56.193Z</time></trkpt><trkpt lat="39.2989501" lon="9.3636922"><ele>205.25</ele><time>2026-05-01T16:15:57.193Z</time></trkpt><trkpt lat="39.2989398" lon="9.3638425"><ele>205.0</ele><time>2026-05-01T16:15:58.192Z</time></trkpt><trkpt lat="39.2989082" lon="9.3639992"><ele>205.0</ele><time>2026-05-01T16:15:59.192Z</time></trkpt><trkpt lat="39.2988949" lon="9.3641533"><ele>205.0</ele><time>2026-05-01T16:16:00.192Z</time></trkpt><trkpt lat="39.2989249" lon="9.3642808"><ele>205.0</ele><time>2026-05-01T16:16:01.193Z</time></trkpt><trkpt lat="39.2989848" lon="9.3643853"><ele>205.0</ele><time>2026-05-01T16:16:02.192Z</time></trkpt><trkpt lat="39.299069" lon="9.3644543"><ele>205.0</ele><time>2026-05-01T16:16:03.192Z</time></trkpt><trkpt lat="39.2991712" lon="9.3644901"><ele>207.75</ele><time>2026-05-01T16:16:04.193Z</time></trkpt><trkpt lat="39.2992808" lon="9.3644937"><ele>210.5</ele><time>2026-05-01T16:16:05.192Z</time></trkpt><trkpt lat="39.2993875" lon="9.3644569"><ele>213.25</ele><time>2026-05-01T16:16:06.192Z</time></trkpt><trkpt lat="39.2995036" lon="9.364398"><ele>216.0</ele><time>2026-05-01T16:16:07.193Z</time></trkpt><trkpt lat="39.2996221" lon="9.3643454"><ele>216.0</ele><time>2026-05-01T16:16:08.192Z</time></trkpt><trkpt lat="39.2997422" lon="9.3643147"><ele>216.0</ele><time>2026-05-01T16:16:09.192Z</time></trkpt><trkpt lat="39.2998746" lon="9.3643139"><ele>216.0</ele><time>2026-05-01T16:16:10.192Z</time></trkpt><trkpt lat="39.3000031" lon="9.3643273"><ele>216.0</ele><time>2026-05-01T16:16:11.192Z</time></trkpt><trkpt lat="39.3001125" lon="9.36436"><ele>218.0</ele><time>2026-05-01T16:16:12.192Z</time></trkpt><trkpt lat="39.3002037" lon="9.3644198"><ele>220.00000000000003</ele><time>2026-05-01T16:16:13.193Z</time></trkpt><trkpt lat="39.300266" lon="9.3645049"><ele>222.00000000000003</ele><time>2026-05-01T16:16:14.193Z</time></trkpt><trkpt lat="39.3002977" lon="9.3646131"><ele>224.0</ele><time>2026-05-01T16:16:15.193Z</time></trkpt><trkpt lat="39.3003001" lon="9.3647398"><ele>226.0</ele><time>2026-05-01T16:16:16.193Z</time></trkpt><trkpt lat="39.3002778" lon="9.3648886"><ele>226.0</ele><time>2026-05-01T16:16:17.192Z</time></trkpt><trkpt lat="39.3002498" lon="9.365066"><ele>226.0</ele><time>2026-05-01T16:16:18.192Z</time></trkpt><trkpt lat="39.3002177" lon="9.3652719"><ele>226.0</ele><time>2026-05-01T16:16:19.192Z</time></trkpt><trkpt lat="39.3001788" lon="9.365502"><ele>227.0</ele><time>2026-05-01T16:16:20.193Z</time></trkpt><trkpt lat="39.3001368" lon="9.3657463"><ele>228.0</ele><time>2026-05-01T16:16:21.192Z</time></trkpt><trkpt lat="39.3000967" lon="9.3659944"><ele>229.0</ele><time>2026-05-01T16:16:22.192Z</time></trkpt><trkpt lat="39.3000553" lon="9.3662526"><ele>231.33333333333331</ele><time>2026-05-01T16:16:23.192Z</time></trkpt><trkpt lat="39.3000125" lon="9.3665094"><ele>233.66666666666669</ele><time>2026-05-01T16:16:24.192Z</time></trkpt><trkpt lat="39.2999752" lon="9.3667429"><ele>236.0</ele><time>2026-05-01T16:16:25.193Z</time></trkpt><trkpt lat="39.2999496" lon="9.3669647"><ele>236.0</ele><time>2026-05-01T16:16:26.192Z</time></trkpt><trkpt lat="39.2999446" lon="9.3671815"><ele>236.0</ele><time>2026-05-01T16:16:27.193Z</time></trkpt><trkpt lat="39.2999681" lon="9.3673845"><ele>236.0</ele><time>2026-05-01T16:16:28.192Z</time></trkpt><trkpt lat="39.3000242" lon="9.3675782"><ele>233.66666666666669</ele><time>2026-05-01T16:16:29.192Z</time></trkpt><trkpt lat="39.3001038" lon="9.367763"><ele>231.33333333333331</ele><time>2026-05-01T16:16:30.192Z</time></trkpt><trkpt lat="39.3001847" lon="9.3679166"><ele>229.0</ele><time>2026-05-01T16:16:31.193Z</time></trkpt><trkpt lat="39.3002822" lon="9.3680502"><ele>229.0</ele><time>2026-05-01T16:16:32.193Z</time></trkpt><trkpt lat="39.3003987" lon="9.3681382"><ele>229.0</ele><time>2026-05-01T16:16:33.192Z</time></trkpt><trkpt lat="39.3005346" lon="9.3681857"><ele>229.0</ele><time>2026-05-01T16:16:34.192Z</time></trkpt><trkpt lat="39.3006952" lon="9.3682156"><ele>229.0</ele><time>2026-05-01T16:16:35.193Z</time></trkpt><trkpt lat="39.3008603" lon="9.3682446"><ele>234.5</ele><time>2026-05-01T16:16:36.192Z</time></trkpt><trkpt lat="39.3010062" lon="9.3682536"><ele>240.0</ele><time>2026-05-01T16:16:37.193Z</time></trkpt><trkpt lat="39.3011342" lon="9.3682526"><ele>245.5</ele><time>2026-05-01T16:16:38.193Z</time></trkpt><trkpt lat="39.3012444" lon="9.3682703"><ele>251.0</ele><time>2026-05-01T16:16:39.192Z</time></trkpt><trkpt lat="39.3013251" lon="9.3683464"><ele>251.0</ele><time>2026-05-01T16:16:40.192Z</time></trkpt><trkpt lat="39.3013717" lon="9.3684547"><ele>251.0</ele><time>2026-05-01T16:16:41.192Z</time></trkpt><trkpt lat="39.3013789" lon="9.3685847"><ele>251.0</ele><time>2026-05-01T16:16:42.192Z</time></trkpt><trkpt lat="39.3013526" lon="9.3687378"><ele>251.0</ele><time>2026-05-01T16:16:43.192Z</time></trkpt><trkpt lat="39.3013034" lon="9.3689166"><ele>248.66666666666669</ele><time>2026-05-01T16:16:44.193Z</time></trkpt><trkpt lat="39.3012445" lon="9.3691199"><ele>246.33333333333331</ele><time>2026-05-01T16:16:45.193Z</time></trkpt><trkpt lat="39.301174" lon="9.3693461"><ele>244.0</ele><time>2026-05-01T16:16:46.192Z</time></trkpt><trkpt lat="39.3010949" lon="9.3695975"><ele>247.66666666666666</ele><time>2026-05-01T16:16:47.193Z</time></trkpt><trkpt lat="39.3010185" lon="9.3698327"><ele>251.33333333333331</ele><time>2026-05-01T16:16:48.192Z</time></trkpt><trkpt lat="39.3009457" lon="9.3700456"><ele>255.0</ele><time>2026-05-01T16:16:49.193Z</time></trkpt><trkpt lat="39.3008832" lon="9.3702464"><ele>255.0</ele><time>2026-05-01T16:16:50.193Z</time></trkpt><trkpt lat="39.3008495" lon="9.3704205"><ele>255.0</ele><time>2026-05-01T16:16:51.192Z</time></trkpt><trkpt lat="39.300854" lon="9.3705654"><ele>255.0</ele><time>2026-05-01T16:16:52.192Z</time></trkpt><trkpt lat="39.3008948" lon="9.3706863"><ele>255.0</ele><time>2026-05-01T16:16:53.193Z</time></trkpt><trkpt lat="39.3009655" lon="9.3707848"><ele>256.25</ele><time>2026-05-01T16:16:54.193Z</time></trkpt><trkpt lat="39.3010478" lon="9.3708778"><ele>257.5</ele><time>2026-05-01T16:16:55.192Z</time></trkpt><trkpt lat="39.3011026" lon="9.3710102"><ele>258.75</ele><time>2026-05-01T16:16:56.193Z</time></trkpt><trkpt lat="39.3011327" lon="9.3711693"><ele>260.0</ele><time>2026-05-01T16:16:57.192Z</time></trkpt><trkpt lat="39.3011507" lon="9.3713605"><ele>260.33333333333337</ele><time>2026-05-01T16:16:58.192Z</time></trkpt><trkpt lat="39.3011696" lon="9.3715844"><ele>260.6666666666667</ele><time>2026-05-01T16:16:59.192Z</time></trkpt><trkpt lat="39.3011764" lon="9.3717695"><ele>261.0</ele><time>2026-05-01T16:17:00.193Z</time></trkpt><trkpt lat="39.3011549" lon="9.3719511"><ele>261.0</ele><time>2026-05-01T16:17:01.193Z</time></trkpt><trkpt lat="39.3011064" lon="9.3721229"><ele>261.0</ele><time>2026-05-01T16:17:02.192Z</time></trkpt><trkpt lat="39.3010443" lon="9.372298"><ele>261.0</ele><time>2026-05-01T16:17:03.192Z</time></trkpt><trkpt lat="39.3009856" lon="9.3724971"><ele>263.6666666666667</ele><time>2026-05-01T16:17:04.193Z</time></trkpt><trkpt lat="39.3009268" lon="9.3727077"><ele>266.33333333333337</ele><time>2026-05-01T16:17:05.192Z</time></trkpt><trkpt lat="39.3008694" lon="9.372913"><ele>269.0</ele><time>2026-05-01T16:17:06.193Z</time></trkpt><trkpt lat="39.3008244" lon="9.3730968"><ele>270.5</ele><time>2026-05-01T16:17:07.193Z</time></trkpt><trkpt lat="39.300794" lon="9.3732785"><ele>272.0</ele><time>2026-05-01T16:17:08.193Z</time></trkpt><trkpt lat="39.3007884" lon="9.3734649"><ele>273.5</ele><time>2026-05-01T16:17:09.193Z</time></trkpt><trkpt lat="39.3007968" lon="9.3736504"><ele>275.0</ele><time>2026-05-01T16:17:10.192Z</time></trkpt><trkpt lat="39.3008156" lon="9.3738322"><ele>275.5</ele><time>2026-05-01T16:17:11.193Z</time></trkpt><trkpt lat="39.3008427" lon="9.374009"><ele>276.0</ele><time>2026-05-01T16:17:12.193Z</time></trkpt><trkpt lat="39.3008884" lon="9.3741794"><ele>276.5</ele><time>2026-05-01T16:17:13.192Z</time></trkpt><trkpt lat="39.3009456" lon="9.3743505"><ele>277.0</ele><time>2026-05-01T16:17:14.192Z</time></trkpt><trkpt lat="39.3010047" lon="9.3745169"><ele>275.0</ele><time>2026-05-01T16:17:15.192Z</time></trkpt><trkpt lat="39.3010686" lon="9.3746898"><ele>273.0</ele><time>2026-05-01T16:17:16.192Z</time></trkpt><trkpt lat="39.3011297" lon="9.3748557"><ele>271.0</ele><time>2026-05-01T16:17:17.193Z</time></trkpt><trkpt lat="39.3011898" lon="9.3750075"><ele>269.0</ele><time>2026-05-01T16:17:18.192Z</time></trkpt><trkpt lat="39.3012623" lon="9.3751396"><ele>269.0</ele><time>2026-05-01T16:17:19.192Z</time></trkpt><trkpt lat="39.3013543" lon="9.3752426"><ele>269.0</ele><time>2026-05-01T16:17:20.193Z</time></trkpt><trkpt lat="39.3014593" lon="9.3753017"><ele>269.0</ele><time>2026-05-01T16:17:21.192Z</time></trkpt><trkpt lat="39.3015768" lon="9.3753295"><ele>269.0</ele><time>2026-05-01T16:17:22.193Z</time></trkpt><trkpt lat="39.3017203" lon="9.375336"><ele>282.33333333333337</ele><time>2026-05-01T16:17:23.192Z</time></trkpt><trkpt lat="39.3018767" lon="9.3753357"><ele>295.6666666666667</ele><time>2026-05-01T16:17:24.193Z</time></trkpt><trkpt lat="39.3020461" lon="9.3753393"><ele>309.0</ele><time>2026-05-01T16:17:25.192Z</time></trkpt><trkpt lat="39.3022112" lon="9.3753472"><ele>307.75</ele><time>2026-05-01T16:17:26.192Z</time></trkpt><trkpt lat="39.3023555" lon="9.3753741"><ele>306.5</ele><time>2026-05-01T16:17:27.193Z</time></trkpt><trkpt lat="39.3024977" lon="9.3754324"><ele>305.25</ele><time>2026-05-01T16:17:28.193Z</time></trkpt><trkpt lat="39.3026179" lon="9.3755057"><ele>304.0</ele><time>2026-05-01T16:17:29.193Z</time></trkpt><trkpt lat="39.3027027" lon="9.3755996"><ele>304.0</ele><time>2026-05-01T16:17:30.192Z</time></trkpt><trkpt lat="39.3027433" lon="9.3757169"><ele>304.0</ele><time>2026-05-01T16:17:31.192Z</time></trkpt><trkpt lat="39.302741" lon="9.3758443"><ele>304.0</ele><time>2026-05-01T16:17:32.192Z</time></trkpt><trkpt lat="39.3026958" lon="9.3759598"><ele>304.0</ele><time>2026-05-01T16:17:33.193Z</time></trkpt><trkpt lat="39.302622" lon="9.3760629"><ele>304.0</ele><time>2026-05-01T16:17:34.192Z</time></trkpt><trkpt lat="39.3025713" lon="9.3761688"><ele>304.0</ele><time>2026-05-01T16:17:35.193Z</time></trkpt><trkpt lat="39.3025705" lon="9.37627"><ele>304.0</ele><time>2026-05-01T16:17:36.193Z</time></trkpt><trkpt lat="39.3026055" lon="9.3763569"><ele>304.0</ele><time>2026-05-01T16:17:37.192Z</time></trkpt><trkpt lat="39.3026766" lon="9.3764603"><ele>304.0</ele><time>2026-05-01T16:17:38.193Z</time></trkpt><trkpt lat="39.3027752" lon="9.3765801"><ele>304.0</ele><time>2026-05-01T16:17:39.193Z</time></trkpt><trkpt lat="39.3028731" lon="9.3767103"><ele>304.2</ele><time>2026-05-01T16:17:40.193Z</time></trkpt><trkpt lat="39.3029456" lon="9.3768373"><ele>304.4</ele><time>2026-05-01T16:17:41.193Z</time></trkpt><trkpt lat="39.3029779" lon="9.3769775"><ele>304.6</ele><time>2026-05-01T16:17:42.192Z</time></trkpt><trkpt lat="39.3029648" lon="9.3771095"><ele>304.8</ele><time>2026-05-01T16:17:43.192Z</time></trkpt><trkpt lat="39.3029151" lon="9.3772192"><ele>305.0</ele><time>2026-05-01T16:17:44.192Z</time></trkpt><trkpt lat="39.3028337" lon="9.3772943"><ele>307.0</ele><time>2026-05-01T16:17:45.192Z</time></trkpt><trkpt lat="39.30273" lon="9.3773678"><ele>309.0</ele><time>2026-05-01T16:17:46.192Z</time></trkpt><trkpt lat="39.3026228" lon="9.377466"><ele>311.0</ele><time>2026-05-01T16:17:47.192Z</time></trkpt><trkpt lat="39.3025309" lon="9.377578"><ele>313.0</ele><time>2026-05-01T16:17:48.193Z</time></trkpt><trkpt lat="39.302477" lon="9.3777002"><ele>313.0</ele><time>2026-05-01T16:17:49.192Z</time></trkpt><trkpt lat="39.3024692" lon="9.3778297"><ele>313.0</ele><time>2026-05-01T16:17:50.192Z</time></trkpt><trkpt lat="39.3024977" lon="9.3779616"><ele>313.0</ele><time>2026-05-01T16:17:51.193Z</time></trkpt><trkpt lat="39.3025398" lon="9.3781046"><ele>313.0</ele><time>2026-05-01T16:17:52.192Z</time></trkpt><trkpt lat="39.3025568" lon="9.3782659"><ele>314.0</ele><time>2026-05-01T16:17:53.193Z</time></trkpt><trkpt lat="39.3025474" lon="9.3784365"><ele>315.0</ele><time>2026-05-01T16:17:54.193Z</time></trkpt><trkpt lat="39.3025169" lon="9.3786173"><ele>316.0</ele><time>2026-05-01T16:17:55.192Z</time></trkpt><trkpt lat="39.3025086" lon="9.3787667"><ele>317.0</ele><time>2026-05-01T16:17:56.192Z</time></trkpt><trkpt lat="39.3025377" lon="9.3788922"><ele>317.0</ele><time>2026-05-01T16:17:57.193Z</time></trkpt><trkpt lat="39.3025978" lon="9.3789852"><ele>317.0</ele><time>2026-05-01T16:17:58.192Z</time></trkpt><trkpt lat="39.3026849" lon="9.3790493"><ele>317.0</ele><time>2026-05-01T16:17:59.192Z</time></trkpt><trkpt lat="39.3027894" lon="9.3791034"><ele>317.0</ele><time>2026-05-01T16:18:00.193Z</time></trkpt><trkpt lat="39.3028885" lon="9.3791937"><ele>317.0</ele><time>2026-05-01T16:18:01.192Z</time></trkpt><trkpt lat="39.3029606" lon="9.379321"><ele>317.0</ele><time>2026-05-01T16:18:02.193Z</time></trkpt><trkpt lat="39.3030099" lon="9.3794708"><ele>317.0</ele><time>2026-05-01T16:18:03.192Z</time></trkpt><trkpt lat="39.3030466" lon="9.37961"><ele>317.0</ele><time>2026-05-01T16:18:04.192Z</time></trkpt><trkpt lat="39.3030529" lon="9.3797348"><ele>317.0</ele><time>2026-05-01T16:18:05.193Z</time></trkpt><trkpt lat="39.3030186" lon="9.3798542"><ele>317.0</ele><time>2026-05-01T16:18:06.192Z</time></trkpt><trkpt lat="39.3029467" lon="9.3799414"><ele>318.4</ele><time>2026-05-01T16:18:07.192Z</time></trkpt><trkpt lat="39.3028529" lon="9.3799971"><ele>319.79999999999995</ele><time>2026-05-01T16:18:08.193Z</time></trkpt><trkpt lat="39.3027591" lon="9.3800634"><ele>321.2</ele><time>2026-05-01T16:18:09.192Z</time></trkpt><trkpt lat="39.3026884" lon="9.3801575"><ele>322.59999999999997</ele><time>2026-05-01T16:18:10.192Z</time></trkpt><trkpt lat="39.3026497" lon="9.3802749"><ele>324.0</ele><time>2026-05-01T16:18:11.192Z</time></trkpt><trkpt lat="39.3026488" lon="9.3804027"><ele>324.25</ele><time>2026-05-01T16:18:12.192Z</time></trkpt><trkpt lat="39.3026844" lon="9.380525"><ele>324.5</ele><time>2026-05-01T16:18:13.193Z</time></trkpt><trkpt lat="39.3027512" lon="9.3806448"><ele>324.75</ele><time>2026-05-01T16:18:14.192Z</time></trkpt><trkpt lat="39.3028429" lon="9.3807768"><ele>325.0</ele><time>2026-05-01T16:18:15.193Z</time></trkpt><trkpt lat="39.3029513" lon="9.3809255"><ele>325.0</ele><time>2026-05-01T16:18:16.192Z</time></trkpt><trkpt lat="39.3030696" lon="9.3810854"><ele>325.0</ele><time>2026-05-01T16:18:17.193Z</time></trkpt><trkpt lat="39.3031911" lon="9.38122"><ele>325.0</ele><time>2026-05-01T16:18:18.193Z</time></trkpt><trkpt lat="39.3033223" lon="9.3813271"><ele>329.75</ele><time>2026-05-01T16:18:19.192Z</time></trkpt><trkpt lat="39.3034521" lon="9.3814118"><ele>334.5</ele><time>2026-05-01T16:18:20.193Z</time></trkpt><trkpt lat="39.303562" lon="9.3815059"><ele>339.25</ele><time>2026-05-01T16:18:21.192Z</time></trkpt><trkpt lat="39.3036305" lon="9.3816236"><ele>344.0</ele><time>2026-05-01T16:18:22.193Z</time></trkpt><trkpt lat="39.3036629" lon="9.3817681"><ele>344.0</ele><time>2026-05-01T16:18:23.193Z</time></trkpt><trkpt lat="39.303674" lon="9.3819409"><ele>344.0</ele><time>2026-05-01T16:18:24.193Z</time></trkpt><trkpt lat="39.3036832" lon="9.3821219"><ele>344.0</ele><time>2026-05-01T16:18:25.192Z</time></trkpt><trkpt lat="39.3037186" lon="9.3822656"><ele>344.0</ele><time>2026-05-01T16:18:26.193Z</time></trkpt><trkpt lat="39.3037879" lon="9.3823758"><ele>342.4</ele><time>2026-05-01T16:18:27.192Z</time></trkpt><trkpt lat="39.3038773" lon="9.3824558"><ele>340.79999999999995</ele><time>2026-05-01T16:18:28.193Z</time></trkpt><trkpt lat="39.3039605" lon="9.3825523"><ele>339.20000000000005</ele><time>2026-05-01T16:18:29.193Z</time></trkpt><trkpt lat="39.3040055" lon="9.3826739"><ele>337.6</ele><time>2026-05-01T16:18:30.193Z</time></trkpt><trkpt lat="39.3040115" lon="9.3828043"><ele>336.0</ele><time>2026-05-01T16:18:31.192Z</time></trkpt><trkpt lat="39.3039774" lon="9.3829344"><ele>336.75</ele><time>2026-05-01T16:18:32.192Z</time></trkpt><trkpt lat="39.3039105" lon="9.3830722"><ele>337.5</ele><time>2026-05-01T16:18:33.193Z</time></trkpt><trkpt lat="39.3038223" lon="9.3832193"><ele>338.25</ele><time>2026-05-01T16:18:34.193Z</time></trkpt><trkpt lat="39.3037567" lon="9.3833465"><ele>339.0</ele><time>2026-05-01T16:18:35.192Z</time></trkpt><trkpt lat="39.3037287" lon="9.3834653"><ele>339.0</ele><time>2026-05-01T16:18:36.193Z</time></trkpt><trkpt lat="39.303744" lon="9.3835693"><ele>339.0</ele><time>2026-05-01T16:18:37.192Z</time></trkpt><trkpt lat="39.3037939" lon="9.3836648"><ele>339.0</ele><time>2026-05-01T16:18:38.193Z</time></trkpt><trkpt lat="39.3038754" lon="9.3837521"><ele>339.0</ele><time>2026-05-01T16:18:39.192Z</time></trkpt><trkpt lat="39.3039805" lon="9.3838384"><ele>339.0</ele><time>2026-05-01T16:18:40.193Z</time></trkpt><trkpt lat="39.3040998" lon="9.3839424"><ele>344.4</ele><time>2026-05-01T16:18:41.192Z</time></trkpt><trkpt lat="39.3042027" lon="9.3840471"><ele>349.79999999999995</ele><time>2026-05-01T16:18:42.193Z</time></trkpt><trkpt lat="39.3042714" lon="9.3841604"><ele>355.20000000000005</ele><time>2026-05-01T16:18:43.193Z</time></trkpt><trkpt lat="39.3043072" lon="9.3842857"><ele>360.6</ele><time>2026-05-01T16:18:44.192Z</time></trkpt><trkpt lat="39.3043045" lon="9.3843947"><ele>366.0</ele><time>2026-05-01T16:18:45.192Z</time></trkpt><trkpt lat="39.3042684" lon="9.3844885"><ele>366.0</ele><time>2026-05-01T16:18:46.192Z</time></trkpt><trkpt lat="39.3042108" lon="9.3845645"><ele>366.0</ele><time>2026-05-01T16:18:47.192Z</time></trkpt><trkpt lat="39.3041402" lon="9.3846481"><ele>366.0</ele><time>2026-05-01T16:18:48.192Z</time></trkpt><trkpt lat="39.3040744" lon="9.3847515"><ele>366.0</ele><time>2026-05-01T16:18:49.193Z</time></trkpt><trkpt lat="39.304051" lon="9.3848611"><ele>366.0</ele><time>2026-05-01T16:18:50.193Z</time></trkpt><trkpt lat="39.3040664" lon="9.3849774"><ele>365.5</ele><time>2026-05-01T16:18:51.193Z</time></trkpt><trkpt lat="39.304126" lon="9.3850792"><ele>365.0</ele><time>2026-05-01T16:18:52.192Z</time></trkpt><trkpt lat="39.3042128" lon="9.3851632"><ele>364.5</ele><time>2026-05-01T16:18:53.193Z</time></trkpt><trkpt lat="39.3043254" lon="9.3852184"><ele>364.0</ele><time>2026-05-01T16:18:54.192Z</time></trkpt><trkpt lat="39.3044584" lon="9.3852368"><ele>364.0</ele><time>2026-05-01T16:18:55.192Z</time></trkpt><trkpt lat="39.304617" lon="9.3852466"><ele>364.0</ele><time>2026-05-01T16:18:56.192Z</time></trkpt><trkpt lat="39.3047642" lon="9.3852605"><ele>364.0</ele><time>2026-05-01T16:18:57.192Z</time></trkpt><trkpt lat="39.3048882" lon="9.3852866"><ele>364.0</ele><time>2026-05-01T16:18:58.192Z</time></trkpt><trkpt lat="39.3049901" lon="9.3853463"><ele>367.4</ele><time>2026-05-01T16:18:59.192Z</time></trkpt><trkpt lat="39.3050656" lon="9.3854452"><ele>370.79999999999995</ele><time>2026-05-01T16:19:00.193Z</time></trkpt><trkpt lat="39.3051054" lon="9.3855715"><ele>374.20000000000005</ele><time>2026-05-01T16:19:01.193Z</time></trkpt><trkpt lat="39.3051108" lon="9.3857115"><ele>377.6</ele><time>2026-05-01T16:19:02.193Z</time></trkpt><trkpt lat="39.3050805" lon="9.3858416"><ele>381.0</ele><time>2026-05-01T16:19:03.193Z</time></trkpt><trkpt lat="39.3050176" lon="9.3859317"><ele>381.0</ele><time>2026-05-01T16:19:04.193Z</time></trkpt><trkpt lat="39.3049622" lon="9.3860374"><ele>381.0</ele><time>2026-05-01T16:19:05.192Z</time></trkpt><trkpt lat="39.3049406" lon="9.3861547"><ele>381.0</ele><time>2026-05-01T16:19:06.193Z</time></trkpt><trkpt lat="39.3049579" lon="9.3862679"><ele>381.0</ele><time>2026-05-01T16:19:07.193Z</time></trkpt><trkpt lat="39.3050146" lon="9.3863713"><ele>381.0</ele><time>2026-05-01T16:19:08.193Z</time></trkpt><trkpt lat="39.3050965" lon="9.3864624"><ele>381.6</ele><time>2026-05-01T16:19:09.193Z</time></trkpt><trkpt lat="39.3051955" lon="9.3865474"><ele>382.20000000000005</ele><time>2026-05-01T16:19:10.192Z</time></trkpt><trkpt lat="39.3052712" lon="9.3866429"><ele>382.79999999999995</ele><time>2026-05-01T16:19:11.193Z</time></trkpt><trkpt lat="39.3052961" lon="9.3867664"><ele>383.4</ele><time>2026-05-01T16:19:12.192Z</time></trkpt><trkpt lat="39.305279" lon="9.3868904"><ele>384.0</ele><time>2026-05-01T16:19:13.193Z</time></trkpt><trkpt lat="39.3052163" lon="9.3870013"><ele>384.0</ele><time>2026-05-01T16:19:14.193Z</time></trkpt><trkpt lat="39.3051244" lon="9.3871089"><ele>384.0</ele><time>2026-05-01T16:19:15.192Z</time></trkpt><trkpt lat="39.3050414" lon="9.387225"><ele>384.0</ele><time>2026-05-01T16:19:16.193Z</time></trkpt><trkpt lat="39.3050023" lon="9.387358"><ele>384.0</ele><time>2026-05-01T16:19:17.192Z</time></trkpt><trkpt lat="39.3050036" lon="9.3874985"><ele>385.75</ele><time>2026-05-01T16:19:18.193Z</time></trkpt><trkpt lat="39.3050452" lon="9.3876269"><ele>387.5</ele><time>2026-05-01T16:19:19.193Z</time></trkpt><trkpt lat="39.3051191" lon="9.3877454"><ele>389.25</ele><time>2026-05-01T16:19:20.193Z</time></trkpt><trkpt lat="39.3051898" lon="9.3878721"><ele>391.0</ele><time>2026-05-01T16:19:21.192Z</time></trkpt><trkpt lat="39.3052113" lon="9.3880118"><ele>392.75</ele><time>2026-05-01T16:19:22.192Z</time></trkpt><trkpt lat="39.3051919" lon="9.3881642"><ele>394.5</ele><time>2026-05-01T16:19:23.192Z</time></trkpt><trkpt lat="39.3051414" lon="9.3883124"><ele>396.25</ele><time>2026-05-01T16:19:24.193Z</time></trkpt><trkpt lat="39.3051001" lon="9.3884722"><ele>398.0</ele><time>2026-05-01T16:19:25.192Z</time></trkpt><trkpt lat="39.3050978" lon="9.3886435"><ele>398.0</ele><time>2026-05-01T16:19:26.193Z</time></trkpt><trkpt lat="39.305118" lon="9.3888141"><ele>398.0</ele><time>2026-05-01T16:19:27.192Z</time></trkpt><trkpt lat="39.3051495" lon="9.388974"><ele>398.0</ele><time>2026-05-01T16:19:28.193Z</time></trkpt><trkpt lat="39.3051358" lon="9.389114"><ele>398.0</ele><time>2026-05-01T16:19:29.192Z</time></trkpt><trkpt lat="39.3050847" lon="9.389229"><ele>399.5</ele><time>2026-05-01T16:19:30.193Z</time></trkpt><trkpt lat="39.3050017" lon="9.3892907"><ele>401.0</ele><time>2026-05-01T16:19:31.192Z</time></trkpt><trkpt lat="39.3049022" lon="9.3892882"><ele>402.5</ele><time>2026-05-01T16:19:32.192Z</time></trkpt><trkpt lat="39.3047886" lon="9.3892431"><ele>404.0</ele><time>2026-05-01T16:19:33.192Z</time></trkpt><trkpt lat="39.3046586" lon="9.3891636"><ele>404.0</ele><time>2026-05-01T16:19:34.192Z</time></trkpt><trkpt lat="39.3045224" lon="9.3890806"><ele>404.0</ele><time>2026-05-01T16:19:35.192Z</time></trkpt><trkpt lat="39.3044027" lon="9.3890466"><ele>404.0</ele><time>2026-05-01T16:19:36.193Z</time></trkpt><trkpt lat="39.3043002" lon="9.3890675"><ele>404.0</ele><time>2026-05-01T16:19:37.192Z</time></trkpt><trkpt lat="39.3042256" lon="9.3891436"><ele>404.0</ele><time>2026-05-01T16:19:38.193Z</time></trkpt><trkpt lat="39.3041951" lon="9.3892498"><ele>404.0</ele><time>2026-05-01T16:19:39.193Z</time></trkpt><trkpt lat="39.3042097" lon="9.3893748"><ele>404.0</ele><time>2026-05-01T16:19:40.192Z</time></trkpt><trkpt lat="39.3042596" lon="9.3895262"><ele>404.0</ele><time>2026-05-01T16:19:41.193Z</time></trkpt><trkpt lat="39.3043275" lon="9.3897103"><ele>404.3333333333333</ele><time>2026-05-01T16:19:42.192Z</time></trkpt><trkpt lat="39.304397" lon="9.3899155"><ele>404.66666666666663</ele><time>2026-05-01T16:19:43.193Z</time></trkpt><trkpt lat="39.3044687" lon="9.390084"><ele>405.0</ele><time>2026-05-01T16:19:44.192Z</time></trkpt><trkpt lat="39.3045644" lon="9.3902111"><ele>405.0</ele><time>2026-05-01T16:19:45.192Z</time></trkpt><trkpt lat="39.3046832" lon="9.39032"><ele>405.0</ele><time>2026-05-01T16:19:46.193Z</time></trkpt><trkpt lat="39.3048174" lon="9.3904102"><ele>405.0</ele><time>2026-05-01T16:19:47.192Z</time></trkpt><trkpt lat="39.3049698" lon="9.3904813"><ele>410.33333333333337</ele><time>2026-05-01T16:19:48.193Z</time></trkpt><trkpt lat="39.3051322" lon="9.3905356"><ele>415.6666666666667</ele><time>2026-05-01T16:19:49.193Z</time></trkpt><trkpt lat="39.3052752" lon="9.3905963"><ele>421.0</ele><time>2026-05-01T16:19:50.192Z</time></trkpt><trkpt lat="39.3053854" lon="9.3906912"><ele>421.0</ele><time>2026-05-01T16:19:51.192Z</time></trkpt><trkpt lat="39.3054774" lon="9.3908177"><ele>421.0</ele><time>2026-05-01T16:19:52.193Z</time></trkpt><trkpt lat="39.3055576" lon="9.3909577"><ele>421.0</ele><time>2026-05-01T16:19:53.192Z</time></trkpt><trkpt lat="39.3056192" lon="9.3911119"><ele>421.0</ele><time>2026-05-01T16:19:54.193Z</time></trkpt><trkpt lat="39.3056568" lon="9.3912895"><ele>424.6666666666667</ele><time>2026-05-01T16:19:55.193Z</time></trkpt><trkpt lat="39.3056794" lon="9.3914896"><ele>428.33333333333337</ele><time>2026-05-01T16:19:56.193Z</time></trkpt><trkpt lat="39.3057006" lon="9.3917098"><ele>432.0</ele><time>2026-05-01T16:19:57.192Z</time></trkpt><trkpt lat="39.305743" lon="9.3919432"><ele>432.33333333333337</ele><time>2026-05-01T16:19:58.193Z</time></trkpt><trkpt lat="39.3058074" lon="9.3921796"><ele>432.6666666666667</ele><time>2026-05-01T16:19:59.192Z</time></trkpt><trkpt lat="39.3058889" lon="9.392422"><ele>433.0</ele><time>2026-05-01T16:20:00.193Z</time></trkpt><trkpt lat="39.305973" lon="9.3926594"><ele>433.0</ele><time>2026-05-01T16:20:01.193Z</time></trkpt><trkpt lat="39.3060429" lon="9.3928876"><ele>433.0</ele><time>2026-05-01T16:20:02.193Z</time></trkpt><trkpt lat="39.3061042" lon="9.393108"><ele>433.0</ele><time>2026-05-01T16:20:03.192Z</time></trkpt><trkpt lat="39.3061414" lon="9.393321"><ele>433.33333333333337</ele><time>2026-05-01T16:20:04.192Z</time></trkpt><trkpt lat="39.306151" lon="9.3935366"><ele>433.66666666666663</ele><time>2026-05-01T16:20:05.192Z</time></trkpt><trkpt lat="39.3061686" lon="9.3937584"><ele>434.0</ele><time>2026-05-01T16:20:06.192Z</time></trkpt><trkpt lat="39.3062099" lon="9.3939868"><ele>435.0</ele><time>2026-05-01T16:20:07.192Z</time></trkpt><trkpt lat="39.3062469" lon="9.3942178"><ele>436.0</ele><time>2026-05-01T16:20:08.193Z</time></trkpt><trkpt lat="39.3062676" lon="9.3944237"><ele>437.0</ele><time>2026-05-01T16:20:09.193Z</time></trkpt><trkpt lat="39.3062611" lon="9.394616"><ele>436.0</ele><time>2026-05-01T16:20:10.193Z</time></trkpt><trkpt lat="39.306224" lon="9.3947848"><ele>435.0</ele><time>2026-05-01T16:20:11.192Z</time></trkpt><trkpt lat="39.3061644" lon="9.3949375"><ele>434.0</ele><time>2026-05-01T16:20:12.192Z</time></trkpt><trkpt lat="39.3061329" lon="9.3950925"><ele>433.0</ele><time>2026-05-01T16:20:13.193Z</time></trkpt><trkpt lat="39.3061482" lon="9.3952351"><ele>433.0</ele><time>2026-05-01T16:20:14.192Z</time></trkpt><trkpt lat="39.306208" lon="9.3953513"><ele>433.0</ele><time>2026-05-01T16:20:15.192Z</time></trkpt><trkpt lat="39.3063032" lon="9.3954386"><ele>433.0</ele><time>2026-05-01T16:20:16.192Z</time></trkpt><trkpt lat="39.3064333" lon="9.3954937"><ele>433.0</ele><time>2026-05-01T16:20:17.192Z</time></trkpt><trkpt lat="39.3066051" lon="9.395543"><ele>427.0</ele><time>2026-05-01T16:20:18.193Z</time></trkpt><trkpt lat="39.3068259" lon="9.3956002"><ele>421.0</ele><time>2026-05-01T16:20:19.192Z</time></trkpt><trkpt lat="39.3070388" lon="9.3956637"><ele>415.0</ele><time>2026-05-01T16:20:20.192Z</time></trkpt><trkpt lat="39.3072383" lon="9.3957183"><ele>411.33333333333337</ele><time>2026-05-01T16:20:21.192Z</time></trkpt><trkpt lat="39.3074356" lon="9.3957755"><ele>407.66666666666663</ele><time>2026-05-01T16:20:22.193Z</time></trkpt><trkpt lat="39.3076245" lon="9.3958437"><ele>404.0</ele><time>2026-05-01T16:20:23.193Z</time></trkpt><trkpt lat="39.3077969" lon="9.395927"><ele>404.0</ele><time>2026-05-01T16:20:24.193Z</time></trkpt><trkpt lat="39.3079371" lon="9.39602"><ele>404.0</ele><time>2026-05-01T16:20:25.193Z</time></trkpt><trkpt lat="39.3080498" lon="9.3961287"><ele>404.0</ele><time>2026-05-01T16:20:26.193Z</time></trkpt><trkpt lat="39.3081213" lon="9.3962648"><ele>404.0</ele><time>2026-05-01T16:20:27.193Z</time></trkpt><trkpt lat="39.3081811" lon="9.3964559"><ele>399.66666666666663</ele><time>2026-05-01T16:20:28.193Z</time></trkpt><trkpt lat="39.3082445" lon="9.3966947"><ele>395.33333333333337</ele><time>2026-05-01T16:20:29.192Z</time></trkpt><trkpt lat="39.3083063" lon="9.3969127"><ele>391.0</ele><time>2026-05-01T16:20:30.193Z</time></trkpt><trkpt lat="39.3083513" lon="9.3971175"><ele>391.6666666666667</ele><time>2026-05-01T16:20:31.193Z</time></trkpt><trkpt lat="39.3083692" lon="9.397326"><ele>392.33333333333337</ele><time>2026-05-01T16:20:32.192Z</time></trkpt><trkpt lat="39.3083684" lon="9.3975559"><ele>393.0</ele><time>2026-05-01T16:20:33.193Z</time></trkpt><trkpt lat="39.3083516" lon="9.3978052"><ele>391.66666666666663</ele><time>2026-05-01T16:20:34.193Z</time></trkpt><trkpt lat="39.3083401" lon="9.3980283"><ele>390.3333333333333</ele><time>2026-05-01T16:20:35.192Z</time></trkpt><trkpt lat="39.3083313" lon="9.3982306"><ele>389.0</ele><time>2026-05-01T16:20:36.193Z</time></trkpt><trkpt lat="39.3083237" lon="9.3984178"><ele>389.0</ele><time>2026-05-01T16:20:37.193Z</time></trkpt><trkpt lat="39.3083261" lon="9.3985898"><ele>389.0</ele><time>2026-05-01T16:20:38.192Z</time></trkpt><trkpt lat="39.308352" lon="9.3987499"><ele>389.0</ele><time>2026-05-01T16:20:39.192Z</time></trkpt><trkpt lat="39.3084046" lon="9.3988838"><ele>389.0</ele><time>2026-05-01T16:20:40.193Z</time></trkpt><trkpt lat="39.3084815" lon="9.3990044"><ele>387.75</ele><time>2026-05-01T16:20:41.193Z</time></trkpt><trkpt lat="39.3085817" lon="9.3991204"><ele>386.5</ele><time>2026-05-01T16:20:42.192Z</time></trkpt><trkpt lat="39.3086611" lon="9.3992701"><ele>385.25</ele><time>2026-05-01T16:20:43.193Z</time></trkpt><trkpt lat="39.3087511" lon="9.3994234"><ele>384.0</ele><time>2026-05-01T16:20:44.193Z</time></trkpt><trkpt lat="39.3088486" lon="9.3995369"><ele>382.75</ele><time>2026-05-01T16:20:45.192Z</time></trkpt><trkpt lat="39.3089637" lon="9.3995976"><ele>381.5</ele><time>2026-05-01T16:20:46.193Z</time></trkpt><trkpt lat="39.3090811" lon="9.3995921"><ele>380.25</ele><time>2026-05-01T16:20:47.193Z</time></trkpt><trkpt lat="39.3092005" lon="9.3995248"><ele>379.0</ele><time>2026-05-01T16:20:48.192Z</time></trkpt><trkpt lat="39.3093384" lon="9.3994102"><ele>379.0</ele><time>2026-05-01T16:20:49.193Z</time></trkpt><trkpt lat="39.3094679" lon="9.3992909"><ele>379.0</ele><time>2026-05-01T16:20:50.193Z</time></trkpt><trkpt lat="39.3095851" lon="9.3991854"><ele>379.0</ele><time>2026-05-01T16:20:51.193Z</time></trkpt><trkpt lat="39.3096975" lon="9.3990966"><ele>379.0</ele><time>2026-05-01T16:20:52.193Z</time></trkpt><trkpt lat="39.3098195" lon="9.3990346"><ele>380.66666666666663</ele><time>2026-05-01T16:20:53.192Z</time></trkpt><trkpt lat="39.3099606" lon="9.3990104"><ele>382.3333333333333</ele><time>2026-05-01T16:20:54.192Z</time></trkpt><trkpt lat="39.3101275" lon="9.3990142"><ele>384.0</ele><time>2026-05-01T16:20:55.193Z</time></trkpt><trkpt lat="39.3103203" lon="9.3990312"><ele>384.0</ele><time>2026-05-01T16:20:56.192Z</time></trkpt><trkpt lat="39.3104961" lon="9.3990473"><ele>384.0</ele><time>2026-05-01T16:20:57.193Z</time></trkpt><trkpt lat="39.3106548" lon="9.3990629"><ele>384.0</ele><time>2026-05-01T16:20:58.192Z</time></trkpt><trkpt lat="39.3107908" lon="9.3991022"><ele>383.25</ele><time>2026-05-01T16:20:59.193Z</time></trkpt><trkpt lat="39.3109087" lon="9.3991851"><ele>382.5</ele><time>2026-05-01T16:21:00.192Z</time></trkpt><trkpt lat="39.3110205" lon="9.3993167"><ele>381.75</ele><time>2026-05-01T16:21:01.193Z</time></trkpt><trkpt lat="39.3111137" lon="9.3994785"><ele>381.0</ele><time>2026-05-01T16:21:02.192Z</time></trkpt><trkpt lat="39.3111676" lon="9.3996372"><ele>384.33333333333337</ele><time>2026-05-01T16:21:03.193Z</time></trkpt><trkpt lat="39.3111777" lon="9.399798"><ele>387.6666666666667</ele><time>2026-05-01T16:21:04.192Z</time></trkpt><trkpt lat="39.3111618" lon="9.3999974"><ele>391.0</ele><time>2026-05-01T16:21:05.192Z</time></trkpt><trkpt lat="39.3111397" lon="9.4002269"><ele>391.0</ele><time>2026-05-01T16:21:06.193Z</time></trkpt><trkpt lat="39.3111265" lon="9.4004344"><ele>391.0</ele><time>2026-05-01T16:21:07.193Z</time></trkpt><trkpt lat="39.3111392" lon="9.4006017"><ele>391.0</ele><time>2026-05-01T16:21:08.192Z</time></trkpt><trkpt lat="39.3111947" lon="9.4007402"><ele>391.0</ele><time>2026-05-01T16:21:09.192Z</time></trkpt><trkpt lat="39.311292" lon="9.4008403"><ele>386.6666666666667</ele><time>2026-05-01T16:21:10.193Z</time></trkpt><trkpt lat="39.3114253" lon="9.4009214"><ele>382.33333333333337</ele><time>2026-05-01T16:21:11.193Z</time></trkpt><trkpt lat="39.3115835" lon="9.4010107"><ele>378.0</ele><time>2026-05-01T16:21:12.192Z</time></trkpt><trkpt lat="39.3117129" lon="9.4011066"><ele>378.0</ele><time>2026-05-01T16:21:13.193Z</time></trkpt><trkpt lat="39.311829" lon="9.4012215"><ele>378.0</ele><time>2026-05-01T16:21:14.192Z</time></trkpt><trkpt lat="39.3119269" lon="9.4013745"><ele>378.0</ele><time>2026-05-01T16:21:15.193Z</time></trkpt><trkpt lat="39.312006" lon="9.4015684"><ele>381.0</ele><time>2026-05-01T16:21:16.192Z</time></trkpt><trkpt lat="39.3120849" lon="9.4017904"><ele>384.0</ele><time>2026-05-01T16:21:17.193Z</time></trkpt><trkpt lat="39.3121731" lon="9.4020177"><ele>387.0</ele><time>2026-05-01T16:21:18.192Z</time></trkpt><trkpt lat="39.3122618" lon="9.4022012"><ele>387.0</ele><time>2026-05-01T16:21:19.193Z</time></trkpt><trkpt lat="39.3123641" lon="9.4023431"><ele>387.0</ele><time>2026-05-01T16:21:20.193Z</time></trkpt><trkpt lat="39.312487" lon="9.4024488"><ele>387.0</ele><time>2026-05-01T16:21:21.192Z</time></trkpt><trkpt lat="39.3126136" lon="9.4024913"><ele>387.0</ele><time>2026-05-01T16:21:22.193Z</time></trkpt><trkpt lat="39.312745" lon="9.4024709"><ele>387.0</ele><time>2026-05-01T16:21:23.193Z</time></trkpt><trkpt lat="39.3128954" lon="9.4024044"><ele>387.0</ele><time>2026-05-01T16:21:24.193Z</time></trkpt><trkpt lat="39.3130712" lon="9.4022899"><ele>387.0</ele><time>2026-05-01T16:21:25.192Z</time></trkpt><trkpt lat="39.3132524" lon="9.4021545"><ele>384.0</ele><time>2026-05-01T16:21:26.192Z</time></trkpt><trkpt lat="39.313427" lon="9.4020001"><ele>381.0</ele><time>2026-05-01T16:21:27.193Z</time></trkpt><trkpt lat="39.3135686" lon="9.4018736"><ele>378.0</ele><time>2026-05-01T16:21:28.192Z</time></trkpt><trkpt lat="39.3136994" lon="9.4017784"><ele>378.0</ele><time>2026-05-01T16:21:29.193Z</time></trkpt><trkpt lat="39.31384" lon="9.4017353"><ele>378.0</ele><time>2026-05-01T16:21:30.193Z</time></trkpt><trkpt lat="39.3140169" lon="9.401702"><ele>378.0</ele><time>2026-05-01T16:21:31.193Z</time></trkpt><trkpt lat="39.3142154" lon="9.4016756"><ele>380.66666666666663</ele><time>2026-05-01T16:21:32.193Z</time></trkpt><trkpt lat="39.3144104" lon="9.4016432"><ele>383.3333333333333</ele><time>2026-05-01T16:21:33.192Z</time></trkpt><trkpt lat="39.3145967" lon="9.4015912"><ele>386.0</ele><time>2026-05-01T16:21:34.193Z</time></trkpt><trkpt lat="39.3147842" lon="9.4015024"><ele>382.3333333333333</ele><time>2026-05-01T16:21:35.193Z</time></trkpt><trkpt lat="39.3149601" lon="9.4014017"><ele>378.66666666666663</ele><time>2026-05-01T16:21:36.192Z</time></trkpt><trkpt lat="39.3151071" lon="9.4013193"><ele>375.0</ele><time>2026-05-01T16:21:37.192Z</time></trkpt><trkpt lat="39.3152452" lon="9.4012651"><ele>375.0</ele><time>2026-05-01T16:21:38.192Z</time></trkpt><trkpt lat="39.3153851" lon="9.4012546"><ele>375.0</ele><time>2026-05-01T16:21:39.192Z</time></trkpt><trkpt lat="39.3155416" lon="9.4012805"><ele>375.0</ele><time>2026-05-01T16:21:40.192Z</time></trkpt><trkpt lat="39.3157197" lon="9.4013256"><ele>386.0</ele><time>2026-05-01T16:21:41.193Z</time></trkpt><trkpt lat="39.3159195" lon="9.4013709"><ele>397.0</ele><time>2026-05-01T16:21:42.192Z</time></trkpt><trkpt lat="39.316098" lon="9.4014099"><ele>408.0</ele><time>2026-05-01T16:21:43.193Z</time></trkpt><trkpt lat="39.3162759" lon="9.4014519"><ele>407.0</ele><time>2026-05-01T16:21:44.192Z</time></trkpt><trkpt lat="39.3164343" lon="9.4014935"><ele>406.0</ele><time>2026-05-01T16:21:45.192Z</time></trkpt><trkpt lat="39.3165803" lon="9.4015186"><ele>405.0</ele><time>2026-05-01T16:21:46.193Z</time></trkpt><trkpt lat="39.3167255" lon="9.4015017"><ele>405.0</ele><time>2026-05-01T16:21:47.193Z</time></trkpt><trkpt lat="39.316875" lon="9.4014621"><ele>405.0</ele><time>2026-05-01T16:21:48.193Z</time></trkpt><trkpt lat="39.3170359" lon="9.4014456"><ele>405.0</ele><time>2026-05-01T16:21:49.193Z</time></trkpt><trkpt lat="39.3172167" lon="9.4014467"><ele>405.0</ele><time>2026-05-01T16:21:50.192Z</time></trkpt><trkpt lat="39.3174084" lon="9.4014441"><ele>405.0</ele><time>2026-05-01T16:21:51.193Z</time></trkpt><trkpt lat="39.3175916" lon="9.4014327"><ele>405.0</ele><time>2026-05-01T16:21:52.192Z</time></trkpt><trkpt lat="39.3177662" lon="9.4014355"><ele>405.0</ele><time>2026-05-01T16:21:53.192Z</time></trkpt><trkpt lat="39.3179348" lon="9.4014696"><ele>405.0</ele><time>2026-05-01T16:21:54.193Z</time></trkpt><trkpt lat="39.3180988" lon="9.4015306"><ele>405.0</ele><time>2026-05-01T16:21:55.192Z</time></trkpt><trkpt lat="39.3182445" lon="9.4015945"><ele>403.5</ele><time>2026-05-01T16:21:56.193Z</time></trkpt><trkpt lat="39.3183825" lon="9.4016221"><ele>402.0</ele><time>2026-05-01T16:21:57.193Z</time></trkpt><trkpt lat="39.3185163" lon="9.4015934"><ele>400.5</ele><time>2026-05-01T16:21:58.192Z</time></trkpt><trkpt lat="39.3186481" lon="9.4015038"><ele>399.0</ele><time>2026-05-01T16:21:59.193Z</time></trkpt><trkpt lat="39.3187777" lon="9.4013819"><ele>392.0</ele><time>2026-05-01T16:22:00.192Z</time></trkpt><trkpt lat="39.3188942" lon="9.4012662"><ele>385.0</ele><time>2026-05-01T16:22:01.192Z</time></trkpt><trkpt lat="39.3190241" lon="9.4011711"><ele>378.0</ele><time>2026-05-01T16:22:02.192Z</time></trkpt><trkpt lat="39.3191737" lon="9.4011176"><ele>378.0</ele><time>2026-05-01T16:22:03.192Z</time></trkpt><trkpt lat="39.3193367" lon="9.4010977"><ele>378.0</ele><time>2026-05-01T16:22:04.192Z</time></trkpt><trkpt lat="39.3194968" lon="9.4011098"><ele>378.0</ele><time>2026-05-01T16:22:05.192Z</time></trkpt><trkpt lat="39.3196484" lon="9.4011519"><ele>375.0</ele><time>2026-05-01T16:22:06.192Z</time></trkpt><trkpt lat="39.3197999" lon="9.4012275"><ele>372.0</ele><time>2026-05-01T16:22:07.193Z</time></trkpt><trkpt lat="39.3199562" lon="9.4013364"><ele>369.0</ele><time>2026-05-01T16:22:08.192Z</time></trkpt><trkpt lat="39.3201047" lon="9.4014486"><ele>373.75</ele><time>2026-05-01T16:22:09.192Z</time></trkpt><trkpt lat="39.3202395" lon="9.4015656"><ele>378.5</ele><time>2026-05-01T16:22:10.192Z</time></trkpt><trkpt lat="39.320363" lon="9.4016787"><ele>383.25</ele><time>2026-05-01T16:22:11.192Z</time></trkpt><trkpt lat="39.3204813" lon="9.4017441"><ele>388.0</ele><time>2026-05-01T16:22:12.192Z</time></trkpt><trkpt lat="39.3206115" lon="9.4017521"><ele>388.0</ele><time>2026-05-01T16:22:13.192Z</time></trkpt><trkpt lat="39.3207486" lon="9.4017116"><ele>388.0</ele><time>2026-05-01T16:22:14.192Z</time></trkpt><trkpt lat="39.3208961" lon="9.401659"><ele>388.0</ele><time>2026-05-01T16:22:15.192Z</time></trkpt><trkpt lat="39.3210564" lon="9.4016339"><ele>388.0</ele><time>2026-05-01T16:22:16.192Z</time></trkpt><trkpt lat="39.3212134" lon="9.401636"><ele>388.0</ele><time>2026-05-01T16:22:17.192Z</time></trkpt><trkpt lat="39.3213499" lon="9.401631"><ele>388.0</ele><time>2026-05-01T16:22:18.192Z</time></trkpt><trkpt lat="39.3214865" lon="9.4015657"><ele>388.0</ele><time>2026-05-01T16:22:19.192Z</time></trkpt><trkpt lat="39.321626" lon="9.4014576"><ele>376.0</ele><time>2026-05-01T16:22:20.193Z</time></trkpt><trkpt lat="39.3217784" lon="9.4013211"><ele>364.0</ele><time>2026-05-01T16:22:21.192Z</time></trkpt><trkpt lat="39.3219442" lon="9.4011805"><ele>352.0</ele><time>2026-05-01T16:22:22.192Z</time></trkpt><trkpt lat="39.3221054" lon="9.4010513"><ele>363.0</ele><time>2026-05-01T16:22:23.193Z</time></trkpt><trkpt lat="39.3222509" lon="9.4009248"><ele>374.0</ele><time>2026-05-01T16:22:24.193Z</time></trkpt><trkpt lat="39.3223725" lon="9.4007881"><ele>385.0</ele><time>2026-05-01T16:22:25.193Z</time></trkpt><trkpt lat="39.3224724" lon="9.4006065"><ele>376.6666666666667</ele><time>2026-05-01T16:22:26.192Z</time></trkpt><trkpt lat="39.3225466" lon="9.400397"><ele>368.33333333333337</ele><time>2026-05-01T16:22:27.193Z</time></trkpt><trkpt lat="39.3226253" lon="9.4001897"><ele>360.0</ele><time>2026-05-01T16:22:28.192Z</time></trkpt><trkpt lat="39.3227216" lon="9.399997"><ele>360.0</ele><time>2026-05-01T16:22:29.193Z</time></trkpt><trkpt lat="39.3228305" lon="9.3998117"><ele>360.0</ele><time>2026-05-01T16:22:30.192Z</time></trkpt><trkpt lat="39.322923" lon="9.3996477"><ele>360.0</ele><time>2026-05-01T16:22:31.192Z</time></trkpt><trkpt lat="39.3229792" lon="9.3994803"><ele>359.0</ele><time>2026-05-01T16:22:32.193Z</time></trkpt><trkpt lat="39.322992" lon="9.3992918"><ele>358.0</ele><time>2026-05-01T16:22:33.193Z</time></trkpt><trkpt lat="39.3229544" lon="9.3991033"><ele>357.0</ele><time>2026-05-01T16:22:34.193Z</time></trkpt><trkpt lat="39.3228675" lon="9.3989167"><ele>361.0</ele><time>2026-05-01T16:22:35.192Z</time></trkpt><trkpt lat="39.3227483" lon="9.3987151"><ele>365.0</ele><time>2026-05-01T16:22:36.192Z</time></trkpt><trkpt lat="39.3226246" lon="9.3984748"><ele>369.0</ele><time>2026-05-01T16:22:37.192Z</time></trkpt><trkpt lat="39.3225089" lon="9.398231"><ele>369.0</ele><time>2026-05-01T16:22:38.192Z</time></trkpt><trkpt lat="39.3224157" lon="9.3980303"><ele>369.0</ele><time>2026-05-01T16:22:39.192Z</time></trkpt><trkpt lat="39.3223226" lon="9.3978595"><ele>369.0</ele><time>2026-05-01T16:22:40.192Z</time></trkpt><trkpt lat="39.3222134" lon="9.3977369"><ele>365.6</ele><time>2026-05-01T16:22:41.193Z</time></trkpt><trkpt lat="39.3221185" lon="9.3976409"><ele>362.2</ele><time>2026-05-01T16:22:42.193Z</time></trkpt><trkpt lat="39.322054" lon="9.3975293"><ele>358.8</ele><time>2026-05-01T16:22:43.192Z</time></trkpt><trkpt lat="39.3220284" lon="9.3974102"><ele>355.40000000000003</ele><time>2026-05-01T16:22:44.193Z</time></trkpt><trkpt lat="39.3220477" lon="9.397291"><ele>352.0</ele><time>2026-05-01T16:22:45.192Z</time></trkpt><trkpt lat="39.3221109" lon="9.3971454"><ele>350.0</ele><time>2026-05-01T16:22:46.193Z</time></trkpt><trkpt lat="39.3222145" lon="9.3969643"><ele>348.0</ele><time>2026-05-01T16:22:47.193Z</time></trkpt><trkpt lat="39.3223434" lon="9.3967514"><ele>346.0</ele><time>2026-05-01T16:22:48.193Z</time></trkpt><trkpt lat="39.3224638" lon="9.396552"><ele>347.0</ele><time>2026-05-01T16:22:49.192Z</time></trkpt><trkpt lat="39.3225733" lon="9.3963674"><ele>348.0</ele><time>2026-05-01T16:22:50.193Z</time></trkpt><trkpt lat="39.3226713" lon="9.3962053"><ele>349.0</ele><time>2026-05-01T16:22:51.192Z</time></trkpt><trkpt lat="39.3227762" lon="9.3960693"><ele>349.0</ele><time>2026-05-01T16:22:52.192Z</time></trkpt><trkpt lat="39.3229074" lon="9.3959557"><ele>349.0</ele><time>2026-05-01T16:22:53.193Z</time></trkpt><trkpt lat="39.3230615" lon="9.3958574"><ele>349.0</ele><time>2026-05-01T16:22:54.192Z</time></trkpt><trkpt lat="39.3232159" lon="9.3957853"><ele>354.66666666666663</ele><time>2026-05-01T16:22:55.193Z</time></trkpt><trkpt lat="39.3233657" lon="9.3957486"><ele>360.3333333333333</ele><time>2026-05-01T16:22:56.192Z</time></trkpt><trkpt lat="39.3235231" lon="9.3957475"><ele>366.0</ele><time>2026-05-01T16:22:57.192Z</time></trkpt><trkpt lat="39.3236621" lon="9.3958001"><ele>366.0</ele><time>2026-05-01T16:22:58.193Z</time></trkpt><trkpt lat="39.3237879" lon="9.395899"><ele>366.0</ele><time>2026-05-01T16:22:59.193Z</time></trkpt><trkpt lat="39.3238927" lon="9.3960533"><ele>366.0</ele><time>2026-05-01T16:23:00.193Z</time></trkpt><trkpt lat="39.3239903" lon="9.3962209"><ele>366.3333333333333</ele><time>2026-05-01T16:23:01.192Z</time></trkpt><trkpt lat="39.3240939" lon="9.3963668"><ele>366.66666666666663</ele><time>2026-05-01T16:23:02.193Z</time></trkpt><trkpt lat="39.3242341" lon="9.3964893"><ele>367.0</ele><time>2026-05-01T16:23:03.192Z</time></trkpt><trkpt lat="39.3243827" lon="9.3965924"><ele>367.0</ele><time>2026-05-01T16:23:04.192Z</time></trkpt><trkpt lat="39.3245113" lon="9.3966839"><ele>367.0</ele><time>2026-05-01T16:23:05.193Z</time></trkpt><trkpt lat="39.3246206" lon="9.3967747"><ele>367.0</ele><time>2026-05-01T16:23:06.193Z</time></trkpt><trkpt lat="39.3246948" lon="9.3969006"><ele>367.0</ele><time>2026-05-01T16:23:07.193Z</time></trkpt><trkpt lat="39.324744" lon="9.3970753"><ele>361.66666666666663</ele><time>2026-05-01T16:23:08.193Z</time></trkpt><trkpt lat="39.3247834" lon="9.3973039"><ele>356.3333333333333</ele><time>2026-05-01T16:23:09.192Z</time></trkpt><trkpt lat="39.3248221" lon="9.3975683"><ele>351.0</ele><time>2026-05-01T16:23:10.193Z</time></trkpt><trkpt lat="39.3248523" lon="9.397811"><ele>352.6666666666667</ele><time>2026-05-01T16:23:11.193Z</time></trkpt><trkpt lat="39.3248682" lon="9.3980657"><ele>354.33333333333337</ele><time>2026-05-01T16:23:12.192Z</time></trkpt><trkpt lat="39.3248584" lon="9.3983125"><ele>356.0</ele><time>2026-05-01T16:23:13.193Z</time></trkpt><trkpt lat="39.3248517" lon="9.3985556"><ele>356.0</ele><time>2026-05-01T16:23:14.192Z</time></trkpt><trkpt lat="39.3248727" lon="9.3987779"><ele>356.0</ele><time>2026-05-01T16:23:15.192Z</time></trkpt><trkpt lat="39.3249253" lon="9.3989867"><ele>356.0</ele><time>2026-05-01T16:23:16.193Z</time></trkpt><trkpt lat="39.3249966" lon="9.3991978"><ele>356.33333333333337</ele><time>2026-05-01T16:23:17.193Z</time></trkpt><trkpt lat="39.3250549" lon="9.3994203"><ele>356.6666666666667</ele><time>2026-05-01T16:23:18.192Z</time></trkpt><trkpt lat="39.3250907" lon="9.3996366"><ele>357.0</ele><time>2026-05-01T16:23:19.193Z</time></trkpt><trkpt lat="39.3251488" lon="9.3998508"><ele>360.6666666666667</ele><time>2026-05-01T16:23:20.193Z</time></trkpt><trkpt lat="39.325241" lon="9.4000571"><ele>364.33333333333337</ele><time>2026-05-01T16:23:21.193Z</time></trkpt><trkpt lat="39.3253615" lon="9.4002476"><ele>368.0</ele><time>2026-05-01T16:23:22.193Z</time></trkpt><trkpt lat="39.3255097" lon="9.400429"><ele>361.6666666666667</ele><time>2026-05-01T16:23:23.192Z</time></trkpt><trkpt lat="39.3256647" lon="9.4006006"><ele>355.3333333333333</ele><time>2026-05-01T16:23:24.192Z</time></trkpt><trkpt lat="39.3257985" lon="9.4007443"><ele>349.0</ele><time>2026-05-01T16:23:25.193Z</time></trkpt><trkpt lat="39.3259161" lon="9.4008751"><ele>349.0</ele><time>2026-05-01T16:23:26.193Z</time></trkpt><trkpt lat="39.3260028" lon="9.4009884"><ele>349.0</ele><time>2026-05-01T16:23:27.192Z</time></trkpt><trkpt lat="39.3260482" lon="9.4011029"><ele>349.0</ele><time>2026-05-01T16:23:28.192Z</time></trkpt><trkpt lat="39.3260491" lon="9.4012185"><ele>349.0</ele><time>2026-05-01T16:23:29.192Z</time></trkpt><trkpt lat="39.325999" lon="9.4013101"><ele>349.0</ele><time>2026-05-01T16:23:30.192Z</time></trkpt><trkpt lat="39.3259076" lon="9.4013973"><ele>346.3333333333333</ele><time>2026-05-01T16:23:31.193Z</time></trkpt><trkpt lat="39.3257755" lon="9.4014903"><ele>343.6666666666667</ele><time>2026-05-01T16:23:32.192Z</time></trkpt><trkpt lat="39.3256295" lon="9.4016113"><ele>341.0</ele><time>2026-05-01T16:23:33.193Z</time></trkpt><trkpt lat="39.3255101" lon="9.4017708"><ele>341.6666666666667</ele><time>2026-05-01T16:23:34.193Z</time></trkpt><trkpt lat="39.325389" lon="9.4019622"><ele>342.3333333333333</ele><time>2026-05-01T16:23:35.192Z</time></trkpt><trkpt lat="39.3252821" lon="9.4021398"><ele>343.0</ele><time>2026-05-01T16:23:36.193Z</time></trkpt><trkpt lat="39.32519" lon="9.402288"><ele>343.0</ele><time>2026-05-01T16:23:37.193Z</time></trkpt><trkpt lat="39.3250797" lon="9.4024021"><ele>343.0</ele><time>2026-05-01T16:23:38.193Z</time></trkpt><trkpt lat="39.3249388" lon="9.4024778"><ele>343.0</ele><time>2026-05-01T16:23:39.193Z</time></trkpt><trkpt lat="39.3247819" lon="9.4025167"><ele>349.5</ele><time>2026-05-01T16:23:40.192Z</time></trkpt><trkpt lat="39.3246453" lon="9.4025457"><ele>356.0</ele><time>2026-05-01T16:23:41.192Z</time></trkpt><trkpt lat="39.3245249" lon="9.4026011"><ele>362.5</ele><time>2026-05-01T16:23:42.193Z</time></trkpt><trkpt lat="39.3244235" lon="9.4027147"><ele>369.0</ele><time>2026-05-01T16:23:43.192Z</time></trkpt><trkpt lat="39.3243565" lon="9.4028734"><ele>361.5</ele><time>2026-05-01T16:23:44.192Z</time></trkpt><trkpt lat="39.3243166" lon="9.4030385"><ele>354.0</ele><time>2026-05-01T16:23:45.193Z</time></trkpt><trkpt lat="39.3242423" lon="9.4031816"><ele>346.5</ele><time>2026-05-01T16:23:46.192Z</time></trkpt><trkpt lat="39.3241212" lon="9.4033192"><ele>339.0</ele><time>2026-05-01T16:23:47.193Z</time></trkpt><trkpt lat="39.3239834" lon="9.4034439"><ele>345.0</ele><time>2026-05-01T16:23:48.192Z</time></trkpt><trkpt lat="39.3238669" lon="9.4035466"><ele>351.0</ele><time>2026-05-01T16:23:49.193Z</time></trkpt><trkpt lat="39.3237756" lon="9.4036512"><ele>357.0</ele><time>2026-05-01T16:23:50.192Z</time></trkpt><trkpt lat="39.3237207" lon="9.4037815"><ele>363.0</ele><time>2026-05-01T16:23:51.192Z</time></trkpt><trkpt lat="39.3237082" lon="9.4039387"><ele>363.0</ele><time>2026-05-01T16:23:52.193Z</time></trkpt><trkpt lat="39.3237437" lon="9.4041016"><ele>363.0</ele><time>2026-05-01T16:23:53.192Z</time></trkpt><trkpt lat="39.3238322" lon="9.4042611"><ele>363.0</ele><time>2026-05-01T16:23:54.193Z</time></trkpt><trkpt lat="39.3239585" lon="9.4044397"><ele>355.0</ele><time>2026-05-01T16:23:55.193Z</time></trkpt><trkpt lat="39.3240797" lon="9.4046027"><ele>347.0</ele><time>2026-05-01T16:23:56.193Z</time></trkpt><trkpt lat="39.3241951" lon="9.4047584"><ele>339.0</ele><time>2026-05-01T16:23:57.193Z</time></trkpt><trkpt lat="39.3242824" lon="9.404903"><ele>339.0</ele><time>2026-05-01T16:23:58.193Z</time></trkpt><trkpt lat="39.3243389" lon="9.4050611"><ele>339.0</ele><time>2026-05-01T16:23:59.193Z</time></trkpt><trkpt lat="39.3243595" lon="9.4052176"><ele>339.0</ele><time>2026-05-01T16:24:00.193Z</time></trkpt><trkpt lat="39.324391" lon="9.4053707"><ele>339.0</ele><time>2026-05-01T16:24:01.193Z</time></trkpt><trkpt lat="39.3244798" lon="9.4055076"><ele>343.0</ele><time>2026-05-01T16:24:02.192Z</time></trkpt><trkpt lat="39.3245956" lon="9.405627"><ele>347.0</ele><time>2026-05-01T16:24:03.192Z</time></trkpt><trkpt lat="39.3247082" lon="9.405735"><ele>351.0</ele><time>2026-05-01T16:24:04.193Z</time></trkpt><trkpt lat="39.324808" lon="9.4058601"><ele>355.0</ele><time>2026-05-01T16:24:05.192Z</time></trkpt><trkpt lat="39.3248788" lon="9.4059998"><ele>344.25</ele><time>2026-05-01T16:24:06.193Z</time></trkpt><trkpt lat="39.3249163" lon="9.4061393"><ele>333.5</ele><time>2026-05-01T16:24:07.192Z</time></trkpt><trkpt lat="39.3249026" lon="9.4062769"><ele>322.75</ele><time>2026-05-01T16:24:08.192Z</time></trkpt><trkpt lat="39.3248481" lon="9.4064304"><ele>312.0</ele><time>2026-05-01T16:24:09.192Z</time></trkpt><trkpt lat="39.324756" lon="9.4066049"><ele>325.6666666666667</ele><time>2026-05-01T16:24:10.192Z</time></trkpt><trkpt lat="39.3246511" lon="9.4068024"><ele>339.33333333333337</ele><time>2026-05-01T16:24:11.192Z</time></trkpt><trkpt lat="39.3245798" lon="9.4069814"><ele>353.0</ele><time>2026-05-01T16:24:12.193Z</time></trkpt><trkpt lat="39.3245182" lon="9.4071456"><ele>347.25</ele><time>2026-05-01T16:24:13.193Z</time></trkpt><trkpt lat="39.3244395" lon="9.4072855"><ele>341.5</ele><time>2026-05-01T16:24:14.193Z</time></trkpt><trkpt lat="39.3243326" lon="9.4074108"><ele>335.75</ele><time>2026-05-01T16:24:15.193Z</time></trkpt><trkpt lat="39.3242059" lon="9.4075064"><ele>330.0</ele><time>2026-05-01T16:24:16.192Z</time></trkpt><trkpt lat="39.3240829" lon="9.4075901"><ele>330.0</ele><time>2026-05-01T16:24:17.192Z</time></trkpt><trkpt lat="39.3240019" lon="9.407698"><ele>330.0</ele><time>2026-05-01T16:24:18.193Z</time></trkpt><trkpt lat="39.3239649" lon="9.4078368"><ele>330.0</ele><time>2026-05-01T16:24:19.193Z</time></trkpt><trkpt lat="39.3239758" lon="9.4079694"><ele>330.0</ele><time>2026-05-01T16:24:20.193Z</time></trkpt><trkpt lat="39.3240382" lon="9.4080795"><ele>330.0</ele><time>2026-05-01T16:24:21.193Z</time></trkpt><trkpt lat="39.3241207" lon="9.4081512"><ele>326.8</ele><time>2026-05-01T16:24:22.193Z</time></trkpt><trkpt lat="39.3241892" lon="9.4082325"><ele>323.6</ele><time>2026-05-01T16:24:23.192Z</time></trkpt><trkpt lat="39.3242202" lon="9.4083493"><ele>320.4</ele><time>2026-05-01T16:24:24.193Z</time></trkpt><trkpt lat="39.3242069" lon="9.4084824"><ele>317.2</ele><time>2026-05-01T16:24:25.193Z</time></trkpt><trkpt lat="39.3241512" lon="9.4086292"><ele>314.0</ele><time>2026-05-01T16:24:26.193Z</time></trkpt><trkpt lat="39.3240636" lon="9.4088163"><ele>310.33333333333337</ele><time>2026-05-01T16:24:27.192Z</time></trkpt><trkpt lat="39.3239742" lon="9.4089998"><ele>306.6666666666667</ele><time>2026-05-01T16:24:28.192Z</time></trkpt><trkpt lat="39.3238967" lon="9.4091622"><ele>303.0</ele><time>2026-05-01T16:24:29.192Z</time></trkpt><trkpt lat="39.3238287" lon="9.4093122"><ele>315.75</ele><time>2026-05-01T16:24:30.193Z</time></trkpt><trkpt lat="39.3237898" lon="9.4094644"><ele>328.5</ele><time>2026-05-01T16:24:31.192Z</time></trkpt><trkpt lat="39.3237961" lon="9.4096408"><ele>341.25</ele><time>2026-05-01T16:24:32.193Z</time></trkpt><trkpt lat="39.3238287" lon="9.4098455"><ele>354.0</ele><time>2026-05-01T16:24:33.193Z</time></trkpt><trkpt lat="39.3238671" lon="9.4100528"><ele>345.25</ele><time>2026-05-01T16:24:34.192Z</time></trkpt><trkpt lat="39.3239002" lon="9.4102418"><ele>336.5</ele><time>2026-05-01T16:24:35.192Z</time></trkpt><trkpt lat="39.3239455" lon="9.4104129"><ele>327.75</ele><time>2026-05-01T16:24:36.192Z</time></trkpt><trkpt lat="39.324026" lon="9.4105492"><ele>319.0</ele><time>2026-05-01T16:24:37.192Z</time></trkpt><trkpt lat="39.3241357" lon="9.4106526"><ele>319.0</ele><time>2026-05-01T16:24:38.193Z</time></trkpt><trkpt lat="39.3242809" lon="9.4107275"><ele>319.0</ele><time>2026-05-01T16:24:39.193Z</time></trkpt><trkpt lat="39.3244289" lon="9.4107863"><ele>319.0</ele><time>2026-05-01T16:24:40.192Z</time></trkpt><trkpt lat="39.324569" lon="9.4108403"><ele>319.0</ele><time>2026-05-01T16:24:41.193Z</time></trkpt><trkpt lat="39.3246794" lon="9.4109115"><ele>319.0</ele><time>2026-05-01T16:24:42.192Z</time></trkpt><trkpt lat="39.3247534" lon="9.4110264"><ele>319.0</ele><time>2026-05-01T16:24:43.192Z</time></trkpt><trkpt lat="39.3248178" lon="9.4111768"><ele>319.0</ele><time>2026-05-01T16:24:44.193Z</time></trkpt><trkpt lat="39.3248911" lon="9.4113454"><ele>315.0</ele><time>2026-05-01T16:24:45.192Z</time></trkpt><trkpt lat="39.3249939" lon="9.4115066"><ele>311.0</ele><time>2026-05-01T16:24:46.192Z</time></trkpt><trkpt lat="39.3250947" lon="9.4116522"><ele>307.0</ele><time>2026-05-01T16:24:47.193Z</time></trkpt><trkpt lat="39.3251753" lon="9.4117719"><ele>303.0</ele><time>2026-05-01T16:24:48.192Z</time></trkpt><trkpt lat="39.3252461" lon="9.4118893"><ele>303.0</ele><time>2026-05-01T16:24:49.192Z</time></trkpt><trkpt lat="39.3252844" lon="9.4120086"><ele>303.0</ele><time>2026-05-01T16:24:50.193Z</time></trkpt><trkpt lat="39.3252788" lon="9.4121191"><ele>303.0</ele><time>2026-05-01T16:24:51.192Z</time></trkpt><trkpt lat="39.3252353" lon="9.4122032"><ele>303.0</ele><time>2026-05-01T16:24:52.192Z</time></trkpt><trkpt lat="39.3251558" lon="9.4122626"><ele>303.0</ele><time>2026-05-01T16:24:53.192Z</time></trkpt><trkpt lat="39.3250347" lon="9.412318"><ele>301.25</ele><time>2026-05-01T16:24:54.192Z</time></trkpt><trkpt lat="39.324904" lon="9.4123815"><ele>299.5</ele><time>2026-05-01T16:24:55.192Z</time></trkpt><trkpt lat="39.3248036" lon="9.4124473"><ele>297.75</ele><time>2026-05-01T16:24:56.192Z</time></trkpt><trkpt lat="39.3247264" lon="9.4125438"><ele>296.0</ele><time>2026-05-01T16:24:57.192Z</time></trkpt><trkpt lat="39.3246943" lon="9.4126702"><ele>296.0</ele><time>2026-05-01T16:24:58.193Z</time></trkpt><trkpt lat="39.3247039" lon="9.4128096"><ele>296.0</ele><time>2026-05-01T16:24:59.192Z</time></trkpt><trkpt lat="39.3247554" lon="9.4129395"><ele>296.0</ele><time>2026-05-01T16:25:00.193Z</time></trkpt><trkpt lat="39.3248372" lon="9.4130708"><ele>296.0</ele><time>2026-05-01T16:25:01.192Z</time></trkpt><trkpt lat="39.3249201" lon="9.4132274"><ele>296.0</ele><time>2026-05-01T16:25:02.192Z</time></trkpt><trkpt lat="39.3249729" lon="9.4134259"><ele>296.0</ele><time>2026-05-01T16:25:03.193Z</time></trkpt><trkpt lat="39.3250014" lon="9.4136345"><ele>296.0</ele><time>2026-05-01T16:25:04.193Z</time></trkpt><trkpt lat="39.3250071" lon="9.4138278"><ele>296.0</ele><time>2026-05-01T16:25:05.192Z</time></trkpt><trkpt lat="39.325017" lon="9.414009"><ele>296.0</ele><time>2026-05-01T16:25:06.193Z</time></trkpt><trkpt lat="39.3250678" lon="9.4141874"><ele>296.0</ele><time>2026-05-01T16:25:07.193Z</time></trkpt><trkpt lat="39.325152" lon="9.4143463"><ele>296.0</ele><time>2026-05-01T16:25:08.193Z</time></trkpt><trkpt lat="39.3252533" lon="9.4144771"><ele>296.0</ele><time>2026-05-01T16:25:09.192Z</time></trkpt><trkpt lat="39.3253453" lon="9.4146033"><ele>296.0</ele><time>2026-05-01T16:25:10.192Z</time></trkpt><trkpt lat="39.3253963" lon="9.4147474"><ele>296.0</ele><time>2026-05-01T16:25:11.192Z</time></trkpt><trkpt lat="39.325405" lon="9.4149002"><ele>296.0</ele><time>2026-05-01T16:25:12.193Z</time></trkpt><trkpt lat="39.3253708" lon="9.4150505"><ele>297.75</ele><time>2026-05-01T16:25:13.192Z</time></trkpt><trkpt lat="39.3253312" lon="9.415182"><ele>299.5</ele><time>2026-05-01T16:25:14.192Z</time></trkpt><trkpt lat="39.325322" lon="9.415326"><ele>301.25</ele><time>2026-05-01T16:25:15.193Z</time></trkpt><trkpt lat="39.3253578" lon="9.4154824"><ele>303.0</ele><time>2026-05-01T16:25:16.193Z</time></trkpt><trkpt lat="39.3254219" lon="9.415666"><ele>304.6666666666667</ele><time>2026-05-01T16:25:17.193Z</time></trkpt><trkpt lat="39.3254875" lon="9.4158579"><ele>306.33333333333337</ele><time>2026-05-01T16:25:18.193Z</time></trkpt><trkpt lat="39.3255496" lon="9.4160342"><ele>308.0</ele><time>2026-05-01T16:25:19.193Z</time></trkpt><trkpt lat="39.325625" lon="9.4161939"><ele>300.0</ele><time>2026-05-01T16:25:20.192Z</time></trkpt><trkpt lat="39.3257415" lon="9.4163437"><ele>292.0</ele><time>2026-05-01T16:25:21.193Z</time></trkpt><trkpt lat="39.3258641" lon="9.4165026"><ele>284.0</ele><time>2026-05-01T16:25:22.192Z</time></trkpt><trkpt lat="39.3259918" lon="9.4166815"><ele>284.0</ele><time>2026-05-01T16:25:23.192Z</time></trkpt><trkpt lat="39.3261173" lon="9.4168568"><ele>284.0</ele><time>2026-05-01T16:25:24.193Z</time></trkpt><trkpt lat="39.3262352" lon="9.4170096"><ele>284.0</ele><time>2026-05-01T16:25:25.192Z</time></trkpt><trkpt lat="39.3263498" lon="9.4171397"><ele>282.25</ele><time>2026-05-01T16:25:26.192Z</time></trkpt><trkpt lat="39.3264748" lon="9.4172292"><ele>280.5</ele><time>2026-05-01T16:25:27.193Z</time></trkpt><trkpt lat="39.326618" lon="9.417263"><ele>278.75</ele><time>2026-05-01T16:25:28.192Z</time></trkpt><trkpt lat="39.3267731" lon="9.4172646"><ele>277.0</ele><time>2026-05-01T16:25:29.193Z</time></trkpt><trkpt lat="39.3269374" lon="9.4172615"><ele>277.0</ele><time>2026-05-01T16:25:30.193Z</time></trkpt><trkpt lat="39.3270811" lon="9.4172622"><ele>277.0</ele><time>2026-05-01T16:25:31.193Z</time></trkpt><trkpt lat="39.3272076" lon="9.4172695"><ele>277.0</ele><time>2026-05-01T16:25:32.193Z</time></trkpt><trkpt lat="39.3273116" lon="9.417309"><ele>277.0</ele><time>2026-05-01T16:25:33.193Z</time></trkpt><trkpt lat="39.3273892" lon="9.4173873"><ele>272.5</ele><time>2026-05-01T16:25:34.193Z</time></trkpt><trkpt lat="39.3274331" lon="9.417496"><ele>268.0</ele><time>2026-05-01T16:25:35.192Z</time></trkpt><trkpt lat="39.3274479" lon="9.4176419"><ele>263.5</ele><time>2026-05-01T16:25:36.192Z</time></trkpt><trkpt lat="39.3274342" lon="9.4178132"><ele>259.0</ele><time>2026-05-01T16:25:37.193Z</time></trkpt><trkpt lat="39.3273896" lon="9.417995"><ele>258.66666666666663</ele><time>2026-05-01T16:25:38.192Z</time></trkpt><trkpt lat="39.3273078" lon="9.4181762"><ele>258.3333333333333</ele><time>2026-05-01T16:25:39.192Z</time></trkpt><trkpt lat="39.3271915" lon="9.4183588"><ele>258.0</ele><time>2026-05-01T16:25:40.192Z</time></trkpt><trkpt lat="39.3270555" lon="9.418555"><ele>260.0</ele><time>2026-05-01T16:25:41.192Z</time></trkpt><trkpt lat="39.3269257" lon="9.4187385"><ele>262.0</ele><time>2026-05-01T16:25:42.193Z</time></trkpt><trkpt lat="39.3267929" lon="9.4189188"><ele>264.0</ele><time>2026-05-01T16:25:43.192Z</time></trkpt><trkpt lat="39.3266683" lon="9.4190964"><ele>264.0</ele><time>2026-05-01T16:25:44.193Z</time></trkpt><trkpt lat="39.3265583" lon="9.4192732"><ele>264.0</ele><time>2026-05-01T16:25:45.192Z</time></trkpt><trkpt lat="39.3264707" lon="9.4194513"><ele>264.0</ele><time>2026-05-01T16:25:46.192Z</time></trkpt><trkpt lat="39.3264154" lon="9.4196527"><ele>267.6666666666667</ele><time>2026-05-01T16:25:47.192Z</time></trkpt><trkpt lat="39.3263935" lon="9.4198731"><ele>271.33333333333337</ele><time>2026-05-01T16:25:48.192Z</time></trkpt><trkpt lat="39.3264111" lon="9.4200971"><ele>275.0</ele><time>2026-05-01T16:25:49.193Z</time></trkpt><trkpt lat="39.3264587" lon="9.4203215"><ele>270.6666666666667</ele><time>2026-05-01T16:25:50.193Z</time></trkpt><trkpt lat="39.32652" lon="9.4205374"><ele>266.3333333333333</ele><time>2026-05-01T16:25:51.193Z</time></trkpt><trkpt lat="39.3265804" lon="9.4207345"><ele>262.0</ele><time>2026-05-01T16:25:52.193Z</time></trkpt><trkpt lat="39.3266491" lon="9.420908"><ele>262.0</ele><time>2026-05-01T16:25:53.193Z</time></trkpt><trkpt lat="39.3267571" lon="9.4210395"><ele>262.0</ele><time>2026-05-01T16:25:54.193Z</time></trkpt><trkpt lat="39.3268801" lon="9.4211715"><ele>262.0</ele><time>2026-05-01T16:25:55.192Z</time></trkpt><trkpt lat="39.3270052" lon="9.4213106"><ele>263.5</ele><time>2026-05-01T16:25:56.193Z</time></trkpt><trkpt lat="39.3271169" lon="9.4214368"><ele>265.0</ele><time>2026-05-01T16:25:57.192Z</time></trkpt><trkpt lat="39.3272163" lon="9.421553"><ele>266.5</ele><time>2026-05-01T16:25:58.193Z</time></trkpt><trkpt lat="39.327285" lon="9.4216776"><ele>268.0</ele><time>2026-05-01T16:25:59.193Z</time></trkpt><trkpt lat="39.3273033" lon="9.4218062"><ele>268.0</ele><time>2026-05-01T16:26:00.193Z</time></trkpt><trkpt lat="39.3272789" lon="9.4219251"><ele>268.0</ele><time>2026-05-01T16:26:01.192Z</time></trkpt><trkpt lat="39.3272125" lon="9.4220427"><ele>268.0</ele><time>2026-05-01T16:26:02.193Z</time></trkpt><trkpt lat="39.3271033" lon="9.422164"><ele>268.0</ele><time>2026-05-01T16:26:03.193Z</time></trkpt><trkpt lat="39.3269557" lon="9.4222905"><ele>263.0</ele><time>2026-05-01T16:26:04.192Z</time></trkpt><trkpt lat="39.3267715" lon="9.4224307"><ele>258.0</ele><time>2026-05-01T16:26:05.192Z</time></trkpt><trkpt lat="39.3266037" lon="9.4225611"><ele>253.0</ele><time>2026-05-01T16:26:06.192Z</time></trkpt><trkpt lat="39.3264478" lon="9.4226914"><ele>255.66666666666666</ele><time>2026-05-01T16:26:07.193Z</time></trkpt><trkpt lat="39.3263008" lon="9.4228163"><ele>258.3333333333333</ele><time>2026-05-01T16:26:08.192Z</time></trkpt><trkpt lat="39.3261606" lon="9.4229289"><ele>261.0</ele><time>2026-05-01T16:26:09.192Z</time></trkpt><trkpt lat="39.3260285" lon="9.4230317"><ele>261.0</ele><time>2026-05-01T16:26:10.193Z</time></trkpt><trkpt lat="39.3259174" lon="9.4231472"><ele>261.0</ele><time>2026-05-01T16:26:11.193Z</time></trkpt><trkpt lat="39.3258302" lon="9.4232858"><ele>261.0</ele><time>2026-05-01T16:26:12.192Z</time></trkpt><trkpt lat="39.3257798" lon="9.423438"><ele>261.0</ele><time>2026-05-01T16:26:13.192Z</time></trkpt><trkpt lat="39.325769" lon="9.4235896"><ele>261.0</ele><time>2026-05-01T16:26:14.193Z</time></trkpt><trkpt lat="39.325799" lon="9.4237277"><ele>261.0</ele><time>2026-05-01T16:26:15.192Z</time></trkpt><trkpt lat="39.3258678" lon="9.4238632"><ele>261.0</ele><time>2026-05-01T16:26:16.192Z</time></trkpt><trkpt lat="39.3259501" lon="9.4240022"><ele>261.0</ele><time>2026-05-01T16:26:17.193Z</time></trkpt><trkpt lat="39.3260313" lon="9.4241678"><ele>256.6666666666667</ele><time>2026-05-01T16:26:18.193Z</time></trkpt><trkpt lat="39.3260908" lon="9.4243601"><ele>252.33333333333334</ele><time>2026-05-01T16:26:19.193Z</time></trkpt><trkpt lat="39.3261309" lon="9.4245753"><ele>248.0</ele><time>2026-05-01T16:26:20.193Z</time></trkpt><trkpt lat="39.3261479" lon="9.4248189"><ele>246.0</ele><time>2026-05-01T16:26:21.192Z</time></trkpt><trkpt lat="39.3261491" lon="9.4250839"><ele>244.0</ele><time>2026-05-01T16:26:22.193Z</time></trkpt><trkpt lat="39.3261441" lon="9.4253435"><ele>242.0</ele><time>2026-05-01T16:26:23.192Z</time></trkpt><trkpt lat="39.3261381" lon="9.4255776"><ele>241.0</ele><time>2026-05-01T16:26:24.192Z</time></trkpt><trkpt lat="39.3261354" lon="9.4257778"><ele>240.0</ele><time>2026-05-01T16:26:25.193Z</time></trkpt><trkpt lat="39.3261458" lon="9.4259628"><ele>239.0</ele><time>2026-05-01T16:26:26.193Z</time></trkpt><trkpt lat="39.3261883" lon="9.4261236"><ele>238.0</ele><time>2026-05-01T16:26:27.192Z</time></trkpt><trkpt lat="39.326263" lon="9.4262425"><ele>238.0</ele><time>2026-05-01T16:26:28.193Z</time></trkpt><trkpt lat="39.3263569" lon="9.4263064"><ele>238.0</ele><time>2026-05-01T16:26:29.192Z</time></trkpt><trkpt lat="39.3264655" lon="9.4263035"><ele>238.0</ele><time>2026-05-01T16:26:30.192Z</time></trkpt><trkpt lat="39.3265835" lon="9.4262459"><ele>238.0</ele><time>2026-05-01T16:26:31.193Z</time></trkpt><trkpt lat="39.3267123" lon="9.4261626"><ele>241.5</ele><time>2026-05-01T16:26:32.193Z</time></trkpt><trkpt lat="39.326855" lon="9.4261069"><ele>245.0</ele><time>2026-05-01T16:26:33.193Z</time></trkpt><trkpt lat="39.3269956" lon="9.426106"><ele>248.5</ele><time>2026-05-01T16:26:34.193Z</time></trkpt><trkpt lat="39.3271397" lon="9.4261541"><ele>252.0</ele><time>2026-05-01T16:26:35.193Z</time></trkpt><trkpt lat="39.3272932" lon="9.4262314"><ele>254.66666666666669</ele><time>2026-05-01T16:26:36.192Z</time></trkpt><trkpt lat="39.3274603" lon="9.426303"><ele>257.33333333333337</ele><time>2026-05-01T16:26:37.193Z</time></trkpt><trkpt lat="39.3276426" lon="9.4263532"><ele>260.0</ele><time>2026-05-01T16:26:38.193Z</time></trkpt><trkpt lat="39.327809" lon="9.4264004"><ele>255.25</ele><time>2026-05-01T16:26:39.192Z</time></trkpt><trkpt lat="39.3279471" lon="9.4264581"><ele>250.5</ele><time>2026-05-01T16:26:40.192Z</time></trkpt><trkpt lat="39.3280655" lon="9.4265557"><ele>245.75</ele><time>2026-05-01T16:26:41.193Z</time></trkpt><trkpt lat="39.3281572" lon="9.4267016"><ele>241.0</ele><time>2026-05-01T16:26:42.193Z</time></trkpt><trkpt lat="39.3282225" lon="9.4268816"><ele>241.0</ele><time>2026-05-01T16:26:43.193Z</time></trkpt><trkpt lat="39.3282828" lon="9.4270682"><ele>241.0</ele><time>2026-05-01T16:26:44.192Z</time></trkpt><trkpt lat="39.3283458" lon="9.4272308"><ele>241.0</ele><time>2026-05-01T16:26:45.193Z</time></trkpt><trkpt lat="39.3284448" lon="9.4273557"><ele>241.0</ele><time>2026-05-01T16:26:46.192Z</time></trkpt><trkpt lat="39.3285757" lon="9.4274635"><ele>239.0</ele><time>2026-05-01T16:26:47.193Z</time></trkpt><trkpt lat="39.3287349" lon="9.4275789"><ele>237.0</ele><time>2026-05-01T16:26:48.193Z</time></trkpt><trkpt lat="39.3289101" lon="9.4276871"><ele>235.0</ele><time>2026-05-01T16:26:49.193Z</time></trkpt><trkpt lat="39.3290923" lon="9.4277836"><ele>235.0</ele><time>2026-05-01T16:26:50.193Z</time></trkpt><trkpt lat="39.3292684" lon="9.4279064"><ele>235.0</ele><time>2026-05-01T16:26:51.193Z</time></trkpt><trkpt lat="39.3294525" lon="9.428052"><ele>235.0</ele><time>2026-05-01T16:26:52.193Z</time></trkpt><trkpt lat="39.3296474" lon="9.4282045"><ele>230.33333333333331</ele><time>2026-05-01T16:26:53.192Z</time></trkpt><trkpt lat="39.329826" lon="9.4283524"><ele>225.66666666666669</ele><time>2026-05-01T16:26:54.193Z</time></trkpt><trkpt lat="39.3299833" lon="9.428491"><ele>221.0</ele><time>2026-05-01T16:26:55.192Z</time></trkpt><trkpt lat="39.3301292" lon="9.4286184"><ele>221.0</ele><time>2026-05-01T16:26:56.192Z</time></trkpt><trkpt lat="39.3302695" lon="9.4287359"><ele>221.0</ele><time>2026-05-01T16:26:57.192Z</time></trkpt><trkpt lat="39.3304203" lon="9.4288356"><ele>221.0</ele><time>2026-05-01T16:26:58.193Z</time></trkpt><trkpt lat="39.3305855" lon="9.4289056"><ele>219.0</ele><time>2026-05-01T16:26:59.193Z</time></trkpt><trkpt lat="39.3307622" lon="9.4289468"><ele>217.0</ele><time>2026-05-01T16:27:00.192Z</time></trkpt><trkpt lat="39.3309588" lon="9.4289765"><ele>215.0</ele><time>2026-05-01T16:27:01.192Z</time></trkpt><trkpt lat="39.331184" lon="9.4290043"><ele>215.5</ele><time>2026-05-01T16:27:02.192Z</time></trkpt><trkpt lat="39.3314271" lon="9.429038"><ele>216.0</ele><time>2026-05-01T16:27:03.193Z</time></trkpt><trkpt lat="39.3316648" lon="9.4290696"><ele>216.0</ele><time>2026-05-01T16:27:04.192Z</time></trkpt><trkpt lat="39.3318889" lon="9.4290994"><ele>216.0</ele><time>2026-05-01T16:27:05.193Z</time></trkpt><trkpt lat="39.3320925" lon="9.4291289"><ele>216.0</ele><time>2026-05-01T16:27:06.193Z</time></trkpt><trkpt lat="39.3322786" lon="9.4291563"><ele>215.66666666666669</ele><time>2026-05-01T16:27:07.192Z</time></trkpt><trkpt lat="39.332452" lon="9.4291844"><ele>215.33333333333334</ele><time>2026-05-01T16:27:08.192Z</time></trkpt><trkpt lat="39.3326013" lon="9.4292187"><ele>215.0</ele><time>2026-05-01T16:27:09.192Z</time></trkpt><trkpt lat="39.3327289" lon="9.4292765"><ele>215.0</ele><time>2026-05-01T16:27:10.193Z</time></trkpt><trkpt lat="39.3328146" lon="9.4293927"><ele>215.0</ele><time>2026-05-01T16:27:11.192Z</time></trkpt><trkpt lat="39.3328788" lon="9.4295505"><ele>215.0</ele><time>2026-05-01T16:27:12.192Z</time></trkpt><trkpt lat="39.3329077" lon="9.4297425"><ele>215.0</ele><time>2026-05-01T16:27:13.193Z</time></trkpt><trkpt lat="39.3329012" lon="9.4299613"><ele>214.66666666666669</ele><time>2026-05-01T16:27:14.193Z</time></trkpt><trkpt lat="39.332859" lon="9.4301932"><ele>214.33333333333331</ele><time>2026-05-01T16:27:15.193Z</time></trkpt><trkpt lat="39.3327958" lon="9.4304268"><ele>214.0</ele><time>2026-05-01T16:27:16.193Z</time></trkpt><trkpt lat="39.3327314" lon="9.4306338"><ele>214.0</ele><time>2026-05-01T16:27:17.193Z</time></trkpt><trkpt lat="39.3326827" lon="9.4308572"><ele>214.0</ele><time>2026-05-01T16:27:18.193Z</time></trkpt><trkpt lat="39.3326491" lon="9.4310917"><ele>214.0</ele><time>2026-05-01T16:27:19.192Z</time></trkpt><trkpt lat="39.3326261" lon="9.4313152"><ele>214.75</ele><time>2026-05-01T16:27:20.192Z</time></trkpt><trkpt lat="39.3326282" lon="9.4315209"><ele>215.5</ele><time>2026-05-01T16:27:21.192Z</time></trkpt><trkpt lat="39.3326297" lon="9.4317159"><ele>216.25</ele><time>2026-05-01T16:27:22.192Z</time></trkpt><trkpt lat="39.3326033" lon="9.4318896"><ele>217.0</ele><time>2026-05-01T16:27:23.193Z</time></trkpt><trkpt lat="39.3325627" lon="9.4320712"><ele>217.0</ele><time>2026-05-01T16:27:24.192Z</time></trkpt><trkpt lat="39.3325376" lon="9.4322489"><ele>217.0</ele><time>2026-05-01T16:27:25.192Z</time></trkpt><trkpt lat="39.3325398" lon="9.4324078"><ele>217.0</ele><time>2026-05-01T16:27:26.193Z</time></trkpt><trkpt lat="39.332581" lon="9.4325483"><ele>217.0</ele><time>2026-05-01T16:27:27.192Z</time></trkpt><trkpt lat="39.3326578" lon="9.4326818"><ele>217.0</ele><time>2026-05-01T16:27:28.193Z</time></trkpt><trkpt lat="39.3327691" lon="9.4328265"><ele>217.0</ele><time>2026-05-01T16:27:29.192Z</time></trkpt><trkpt lat="39.3328898" lon="9.433001"><ele>217.0</ele><time>2026-05-01T16:27:30.193Z</time></trkpt><trkpt lat="39.3330137" lon="9.4331785"><ele>223.0</ele><time>2026-05-01T16:27:31.192Z</time></trkpt><trkpt lat="39.3331253" lon="9.4333547"><ele>229.0</ele><time>2026-05-01T16:27:32.192Z</time></trkpt><trkpt lat="39.3332056" lon="9.433548"><ele>235.0</ele><time>2026-05-01T16:27:33.192Z</time></trkpt><trkpt lat="39.3332711" lon="9.433746"><ele>227.33333333333331</ele><time>2026-05-01T16:27:34.193Z</time></trkpt><trkpt lat="39.3333678" lon="9.4339263"><ele>219.66666666666669</ele><time>2026-05-01T16:27:35.193Z</time></trkpt><trkpt lat="39.3334927" lon="9.4340839"><ele>212.0</ele><time>2026-05-01T16:27:36.193Z</time></trkpt><trkpt lat="39.3336214" lon="9.434248"><ele>212.0</ele><time>2026-05-01T16:27:37.192Z</time></trkpt><trkpt lat="39.3337362" lon="9.4344233"><ele>212.0</ele><time>2026-05-01T16:27:38.193Z</time></trkpt><trkpt lat="39.3338306" lon="9.4345721"><ele>212.0</ele><time>2026-05-01T16:27:39.192Z</time></trkpt><trkpt lat="39.3339063" lon="9.4347131"><ele>209.75</ele><time>2026-05-01T16:27:40.192Z</time></trkpt><trkpt lat="39.3339464" lon="9.4348704"><ele>207.5</ele><time>2026-05-01T16:27:41.193Z</time></trkpt><trkpt lat="39.3339591" lon="9.4350485"><ele>205.25</ele><time>2026-05-01T16:27:42.193Z</time></trkpt><trkpt lat="39.3339213" lon="9.4352336"><ele>203.0</ele><time>2026-05-01T16:27:43.193Z</time></trkpt><trkpt lat="39.333857" lon="9.4354243"><ele>203.0</ele><time>2026-05-01T16:27:44.193Z</time></trkpt><trkpt lat="39.3337921" lon="9.4356243"><ele>203.0</ele><time>2026-05-01T16:27:45.192Z</time></trkpt><trkpt lat="39.3337464" lon="9.4358247"><ele>203.0</ele><time>2026-05-01T16:27:46.192Z</time></trkpt><trkpt lat="39.3337271" lon="9.4360276"><ele>203.0</ele><time>2026-05-01T16:27:47.193Z</time></trkpt><trkpt lat="39.3337448" lon="9.4362318"><ele>203.0</ele><time>2026-05-01T16:27:48.193Z</time></trkpt><trkpt lat="39.3337984" lon="9.4364361"><ele>203.0</ele><time>2026-05-01T16:27:49.193Z</time></trkpt><trkpt lat="39.3338896" lon="9.4366401"><ele>201.33333333333334</ele><time>2026-05-01T16:27:50.193Z</time></trkpt><trkpt lat="39.3340181" lon="9.4368534"><ele>199.66666666666669</ele><time>2026-05-01T16:27:51.192Z</time></trkpt><trkpt lat="39.3341605" lon="9.4370816"><ele>198.0</ele><time>2026-05-01T16:27:52.193Z</time></trkpt><trkpt lat="39.3342877" lon="9.4372925"><ele>198.0</ele><time>2026-05-01T16:27:53.193Z</time></trkpt><trkpt lat="39.3344004" lon="9.4374923"><ele>198.0</ele><time>2026-05-01T16:27:54.192Z</time></trkpt><trkpt lat="39.3344879" lon="9.4376828"><ele>198.0</ele><time>2026-05-01T16:27:55.193Z</time></trkpt><trkpt lat="39.3345269" lon="9.4378881"><ele>194.0</ele><time>2026-05-01T16:27:56.192Z</time></trkpt><trkpt lat="39.3345424" lon="9.4381163"><ele>190.0</ele><time>2026-05-01T16:27:57.193Z</time></trkpt><trkpt lat="39.3345555" lon="9.4383579"><ele>186.0</ele><time>2026-05-01T16:27:58.193Z</time></trkpt><trkpt lat="39.3345744" lon="9.4385463"><ele>186.0</ele><time>2026-05-01T16:27:59.193Z</time></trkpt><trkpt lat="39.3345992" lon="9.4386957"><ele>186.0</ele><time>2026-05-01T16:28:00.193Z</time></trkpt><trkpt lat="39.3346501" lon="9.4388096"><ele>186.0</ele><time>2026-05-01T16:28:01.193Z</time></trkpt><trkpt lat="39.3347442" lon="9.4388801"><ele>186.0</ele><time>2026-05-01T16:28:02.192Z</time></trkpt><trkpt lat="39.3348666" lon="9.4389041"><ele>182.0</ele><time>2026-05-01T16:28:03.193Z</time></trkpt><trkpt lat="39.3350204" lon="9.4388952"><ele>178.0</ele><time>2026-05-01T16:28:04.192Z</time></trkpt><trkpt lat="39.3352086" lon="9.4388836"><ele>174.0</ele><time>2026-05-01T16:28:05.193Z</time></trkpt><trkpt lat="39.3353784" lon="9.4389023"><ele>174.0</ele><time>2026-05-01T16:28:06.193Z</time></trkpt><trkpt lat="39.3355385" lon="9.4389445"><ele>174.0</ele><time>2026-05-01T16:28:07.193Z</time></trkpt><trkpt lat="39.3356913" lon="9.4389658"><ele>174.0</ele><time>2026-05-01T16:28:08.193Z</time></trkpt><trkpt lat="39.3358674" lon="9.4389445"><ele>174.5</ele><time>2026-05-01T16:28:09.193Z</time></trkpt><trkpt lat="39.3360796" lon="9.4389113"><ele>175.0</ele><time>2026-05-01T16:28:10.193Z</time></trkpt><trkpt lat="39.3363281" lon="9.4388852"><ele>174.5</ele><time>2026-05-01T16:28:11.192Z</time></trkpt><trkpt lat="39.3365807" lon="9.4388697"><ele>174.0</ele><time>2026-05-01T16:28:12.193Z</time></trkpt><trkpt lat="39.3368136" lon="9.4388743"><ele>174.0</ele><time>2026-05-01T16:28:13.193Z</time></trkpt><trkpt lat="39.3370459" lon="9.4389068"><ele>174.0</ele><time>2026-05-01T16:28:14.192Z</time></trkpt><trkpt lat="39.3372769" lon="9.4389599"><ele>176.0</ele><time>2026-05-01T16:28:15.193Z</time></trkpt><trkpt lat="39.3375005" lon="9.4390076"><ele>178.0</ele><time>2026-05-01T16:28:16.193Z</time></trkpt><trkpt lat="39.3377046" lon="9.439047"><ele>180.0</ele><time>2026-05-01T16:28:17.192Z</time></trkpt><trkpt lat="39.3378941" lon="9.4390841"><ele>182.33333333333334</ele><time>2026-05-01T16:28:18.192Z</time></trkpt><trkpt lat="39.3380648" lon="9.4391476"><ele>184.66666666666669</ele><time>2026-05-01T16:28:19.192Z</time></trkpt><trkpt lat="39.3382231" lon="9.4392497"><ele>187.0</ele><time>2026-05-01T16:28:20.192Z</time></trkpt><trkpt lat="39.3383699" lon="9.4393871"><ele>187.0</ele><time>2026-05-01T16:28:21.193Z</time></trkpt><trkpt lat="39.3385256" lon="9.4395257"><ele>187.0</ele><time>2026-05-01T16:28:22.192Z</time></trkpt><trkpt lat="39.3386857" lon="9.4396363"><ele>187.0</ele><time>2026-05-01T16:28:23.193Z</time></trkpt><trkpt lat="39.338858" lon="9.439727"><ele>179.66666666666669</ele><time>2026-05-01T16:28:24.192Z</time></trkpt><trkpt lat="39.3390467" lon="9.4397803"><ele>172.33333333333334</ele><time>2026-05-01T16:28:25.193Z</time></trkpt><trkpt lat="39.3392502" lon="9.4398027"><ele>165.0</ele><time>2026-05-01T16:28:26.192Z</time></trkpt><trkpt lat="39.3394483" lon="9.4398037"><ele>165.0</ele><time>2026-05-01T16:28:27.193Z</time></trkpt><trkpt lat="39.3396232" lon="9.4397708"><ele>165.0</ele><time>2026-05-01T16:28:28.193Z</time></trkpt><trkpt lat="39.3397994" lon="9.4397018"><ele>165.0</ele><time>2026-05-01T16:28:29.192Z</time></trkpt><trkpt lat="39.3399745" lon="9.4396218"><ele>166.75</ele><time>2026-05-01T16:28:30.193Z</time></trkpt><trkpt lat="39.3401299" lon="9.4395499"><ele>168.5</ele><time>2026-05-01T16:28:31.193Z</time></trkpt><trkpt lat="39.3402604" lon="9.4394911"><ele>170.25</ele><time>2026-05-01T16:28:32.193Z</time></trkpt><trkpt lat="39.3403725" lon="9.4394691"><ele>172.0</ele><time>2026-05-01T16:28:33.192Z</time></trkpt><trkpt lat="39.3404678" lon="9.4394948"><ele>171.0</ele><time>2026-05-01T16:28:34.192Z</time></trkpt><trkpt lat="39.3405588" lon="9.4395751"><ele>170.0</ele><time>2026-05-01T16:28:35.192Z</time></trkpt><trkpt lat="39.3406495" lon="9.4397061"><ele>169.0</ele><time>2026-05-01T16:28:36.193Z</time></trkpt><trkpt lat="39.3407502" lon="9.4398759"><ele>168.0</ele><time>2026-05-01T16:28:37.192Z</time></trkpt><trkpt lat="39.3408786" lon="9.4400711"><ele>168.0</ele><time>2026-05-01T16:28:38.192Z</time></trkpt><trkpt lat="39.3410142" lon="9.4402245"><ele>168.0</ele><time>2026-05-01T16:28:39.193Z</time></trkpt><trkpt lat="39.3411742" lon="9.4403491"><ele>168.0</ele><time>2026-05-01T16:28:40.193Z</time></trkpt><trkpt lat="39.341364" lon="9.4404343"><ele>164.5</ele><time>2026-05-01T16:28:41.192Z</time></trkpt><trkpt lat="39.3415829" lon="9.4405032"><ele>161.0</ele><time>2026-05-01T16:28:42.192Z</time></trkpt><trkpt lat="39.3418343" lon="9.4405698"><ele>161.0</ele><time>2026-05-01T16:28:43.193Z</time></trkpt><trkpt lat="39.3420743" lon="9.4406322"><ele>161.0</ele><time>2026-05-01T16:28:44.193Z</time></trkpt><trkpt lat="39.3422976" lon="9.4406896"><ele>160.0</ele><time>2026-05-01T16:28:45.192Z</time></trkpt><trkpt lat="39.3425016" lon="9.4407419"><ele>159.0</ele><time>2026-05-01T16:28:46.192Z</time></trkpt><trkpt lat="39.3426847" lon="9.4407973"><ele>158.0</ele><time>2026-05-01T16:28:47.193Z</time></trkpt><trkpt lat="39.3428484" lon="9.440863"><ele>158.0</ele><time>2026-05-01T16:28:48.193Z</time></trkpt><trkpt lat="39.3429795" lon="9.4409589"><ele>158.0</ele><time>2026-05-01T16:28:49.193Z</time></trkpt><trkpt lat="39.3430798" lon="9.4410951"><ele>158.0</ele><time>2026-05-01T16:28:50.192Z</time></trkpt><trkpt lat="39.3431514" lon="9.4412698"><ele>158.0</ele><time>2026-05-01T16:28:51.193Z</time></trkpt><trkpt lat="39.3432101" lon="9.44147"><ele>159.5</ele><time>2026-05-01T16:28:52.193Z</time></trkpt><trkpt lat="39.3432691" lon="9.4416397"><ele>161.0</ele><time>2026-05-01T16:28:53.192Z</time></trkpt><trkpt lat="39.3433467" lon="9.4417842"><ele>162.5</ele><time>2026-05-01T16:28:54.192Z</time></trkpt><trkpt lat="39.34346" lon="9.4419075"><ele>164.0</ele><time>2026-05-01T16:28:55.193Z</time></trkpt><trkpt lat="39.3435949" lon="9.442014"><ele>164.0</ele><time>2026-05-01T16:28:56.192Z</time></trkpt><trkpt lat="39.3437502" lon="9.4421241"><ele>164.0</ele><time>2026-05-01T16:28:57.192Z</time></trkpt><trkpt lat="39.3438865" lon="9.4422813"><ele>164.0</ele><time>2026-05-01T16:28:58.192Z</time></trkpt><trkpt lat="39.3440195" lon="9.4424819"><ele>163.0</ele><time>2026-05-01T16:28:59.193Z</time></trkpt><trkpt lat="39.3441602" lon="9.4427043"><ele>162.0</ele><time>2026-05-01T16:29:00.193Z</time></trkpt><trkpt lat="39.3442997" lon="9.4429047"><ele>161.0</ele><time>2026-05-01T16:29:01.193Z</time></trkpt><trkpt lat="39.344443" lon="9.4430948"><ele>160.0</ele><time>2026-05-01T16:29:02.193Z</time></trkpt><trkpt lat="39.3445714" lon="9.4432564"><ele>159.0</ele><time>2026-05-01T16:29:03.192Z</time></trkpt><trkpt lat="39.3447043" lon="9.4433782"><ele>158.0</ele><time>2026-05-01T16:29:04.193Z</time></trkpt><trkpt lat="39.3448414" lon="9.443456"><ele>158.0</ele><time>2026-05-01T16:29:05.192Z</time></trkpt><trkpt lat="39.3449696" lon="9.4435129"><ele>158.0</ele><time>2026-05-01T16:29:06.193Z</time></trkpt><trkpt lat="39.3450708" lon="9.4435952"><ele>158.0</ele><time>2026-05-01T16:29:07.192Z</time></trkpt><trkpt lat="39.3451411" lon="9.4437166"><ele>158.0</ele><time>2026-05-01T16:29:08.192Z</time></trkpt><trkpt lat="39.345171" lon="9.4438646"><ele>156.5</ele><time>2026-05-01T16:29:09.192Z</time></trkpt><trkpt lat="39.3451799" lon="9.4440414"><ele>155.0</ele><time>2026-05-01T16:29:10.193Z</time></trkpt><trkpt lat="39.3451979" lon="9.4442412"><ele>153.5</ele><time>2026-05-01T16:29:11.192Z</time></trkpt><trkpt lat="39.3452308" lon="9.4444088"><ele>152.0</ele><time>2026-05-01T16:29:12.192Z</time></trkpt><trkpt lat="39.3452364" lon="9.4445694"><ele>153.0</ele><time>2026-05-01T16:29:13.193Z</time></trkpt><trkpt lat="39.3452085" lon="9.4447355"><ele>154.0</ele><time>2026-05-01T16:29:14.192Z</time></trkpt><trkpt lat="39.3451583" lon="9.4449007"><ele>155.0</ele><time>2026-05-01T16:29:15.193Z</time></trkpt><trkpt lat="39.3451319" lon="9.4450805"><ele>156.0</ele><time>2026-05-01T16:29:16.193Z</time></trkpt><trkpt lat="39.3450972" lon="9.4452658"><ele>156.0</ele><time>2026-05-01T16:29:17.193Z</time></trkpt><trkpt lat="39.3450196" lon="9.4454393"><ele>156.0</ele><time>2026-05-01T16:29:18.193Z</time></trkpt><trkpt lat="39.3449357" lon="9.4455692"><ele>156.0</ele><time>2026-05-01T16:29:19.192Z</time></trkpt><trkpt lat="39.3448803" lon="9.445696"><ele>156.0</ele><time>2026-05-01T16:29:20.192Z</time></trkpt><trkpt lat="39.3448668" lon="9.4458532"><ele>157.66666666666666</ele><time>2026-05-01T16:29:21.193Z</time></trkpt><trkpt lat="39.3448838" lon="9.4460358"><ele>159.33333333333331</ele><time>2026-05-01T16:29:22.192Z</time></trkpt><trkpt lat="39.3449204" lon="9.4462552"><ele>161.0</ele><time>2026-05-01T16:29:23.193Z</time></trkpt><trkpt lat="39.344965" lon="9.4465125"><ele>161.0</ele><time>2026-05-01T16:29:24.193Z</time></trkpt><trkpt lat="39.3450092" lon="9.4467729"><ele>161.0</ele><time>2026-05-01T16:29:25.192Z</time></trkpt><trkpt lat="39.3450428" lon="9.4470135"><ele>161.0</ele><time>2026-05-01T16:29:26.193Z</time></trkpt><trkpt lat="39.3450466" lon="9.4472598"><ele>160.66666666666666</ele><time>2026-05-01T16:29:27.193Z</time></trkpt><trkpt lat="39.3450302" lon="9.4475125"><ele>160.33333333333334</ele><time>2026-05-01T16:29:28.192Z</time></trkpt><trkpt lat="39.3449838" lon="9.4477628"><ele>160.0</ele><time>2026-05-01T16:29:29.193Z</time></trkpt><trkpt lat="39.3449158" lon="9.4480182"><ele>163.66666666666669</ele><time>2026-05-01T16:29:30.192Z</time></trkpt><trkpt lat="39.3448508" lon="9.4482419"><ele>167.33333333333334</ele><time>2026-05-01T16:29:31.192Z</time></trkpt><trkpt lat="39.3447909" lon="9.4484382"><ele>171.0</ele><time>2026-05-01T16:29:32.193Z</time></trkpt><trkpt lat="39.3447091" lon="9.4486042"><ele>165.33333333333334</ele><time>2026-05-01T16:29:33.192Z</time></trkpt><trkpt lat="39.3445936" lon="9.4487334"><ele>159.66666666666669</ele><time>2026-05-01T16:29:34.192Z</time></trkpt><trkpt lat="39.3444554" lon="9.4488562"><ele>154.0</ele><time>2026-05-01T16:29:35.192Z</time></trkpt><trkpt lat="39.3443104" lon="9.4490081"><ele>154.0</ele><time>2026-05-01T16:29:36.193Z</time></trkpt><trkpt lat="39.344148" lon="9.4491828"><ele>154.0</ele><time>2026-05-01T16:29:37.193Z</time></trkpt><trkpt lat="39.3439803" lon="9.4493396"><ele>154.0</ele><time>2026-05-01T16:29:38.192Z</time></trkpt><trkpt lat="39.3438334" lon="9.4494702"><ele>152.5</ele><time>2026-05-01T16:29:39.193Z</time></trkpt><trkpt lat="39.3437069" lon="9.4495805"><ele>151.0</ele><time>2026-05-01T16:29:40.192Z</time></trkpt><trkpt lat="39.3436068" lon="9.4496871"><ele>149.5</ele><time>2026-05-01T16:29:41.192Z</time></trkpt><trkpt lat="39.3435432" lon="9.4498157"><ele>148.0</ele><time>2026-05-01T16:29:42.192Z</time></trkpt><trkpt lat="39.3435226" lon="9.4499721"><ele>148.0</ele><time>2026-05-01T16:29:43.193Z</time></trkpt><trkpt lat="39.3435436" lon="9.4501516"><ele>148.0</ele><time>2026-05-01T16:29:44.193Z</time></trkpt><trkpt lat="39.3435821" lon="9.4503735"><ele>148.0</ele><time>2026-05-01T16:29:45.192Z</time></trkpt><trkpt lat="39.3436148" lon="9.4506337"><ele>147.0</ele><time>2026-05-01T16:29:46.193Z</time></trkpt><trkpt lat="39.3436495" lon="9.4509179"><ele>146.0</ele><time>2026-05-01T16:29:47.193Z</time></trkpt><trkpt lat="39.3436907" lon="9.4511846"><ele>145.0</ele><time>2026-05-01T16:29:48.193Z</time></trkpt><trkpt lat="39.3437451" lon="9.4514444"><ele>143.33333333333334</ele><time>2026-05-01T16:29:49.193Z</time></trkpt><trkpt lat="39.3438078" lon="9.4516797"><ele>141.66666666666666</ele><time>2026-05-01T16:29:50.193Z</time></trkpt><trkpt lat="39.343886" lon="9.4519092"><ele>140.0</ele><time>2026-05-01T16:29:51.193Z</time></trkpt><trkpt lat="39.3439808" lon="9.4521196"><ele>140.75</ele><time>2026-05-01T16:29:52.192Z</time></trkpt><trkpt lat="39.3440679" lon="9.4522997"><ele>141.5</ele><time>2026-05-01T16:29:53.192Z</time></trkpt><trkpt lat="39.344145" lon="9.4524558"><ele>142.25</ele><time>2026-05-01T16:29:54.193Z</time></trkpt><trkpt lat="39.3442288" lon="9.4525746"><ele>143.0</ele><time>2026-05-01T16:29:55.192Z</time></trkpt><trkpt lat="39.3443424" lon="9.4526561"><ele>143.0</ele><time>2026-05-01T16:29:56.193Z</time></trkpt><trkpt lat="39.3444816" lon="9.4526916"><ele>143.0</ele><time>2026-05-01T16:29:57.192Z</time></trkpt><trkpt lat="39.344651" lon="9.4527028"><ele>143.0</ele><time>2026-05-01T16:29:58.193Z</time></trkpt><trkpt lat="39.344844" lon="9.4526968"><ele>144.66666666666666</ele><time>2026-05-01T16:29:59.192Z</time></trkpt><trkpt lat="39.3450215" lon="9.4526569"><ele>146.33333333333334</ele><time>2026-05-01T16:30:00.193Z</time></trkpt><trkpt lat="39.345195" lon="9.4525686"><ele>148.0</ele><time>2026-05-01T16:30:01.193Z</time></trkpt><trkpt lat="39.345372" lon="9.4524615"><ele>144.0</ele><time>2026-05-01T16:30:02.192Z</time></trkpt><trkpt lat="39.3455657" lon="9.4523817"><ele>140.0</ele><time>2026-05-01T16:30:03.193Z</time></trkpt><trkpt lat="39.3457698" lon="9.4523086"><ele>136.0</ele><time>2026-05-01T16:30:04.192Z</time></trkpt><trkpt lat="39.3459674" lon="9.4522115"><ele>136.0</ele><time>2026-05-01T16:30:05.193Z</time></trkpt><trkpt lat="39.3461564" lon="9.4521314"><ele>136.0</ele><time>2026-05-01T16:30:06.193Z</time></trkpt><trkpt lat="39.3463596" lon="9.4520946"><ele>136.0</ele><time>2026-05-01T16:30:07.192Z</time></trkpt><trkpt lat="39.3465818" lon="9.452077"><ele>150.0</ele><time>2026-05-01T16:30:08.193Z</time></trkpt><trkpt lat="39.3468194" lon="9.4520564"><ele>164.0</ele><time>2026-05-01T16:30:09.192Z</time></trkpt><trkpt lat="39.3470425" lon="9.4520381"><ele>163.66666666666666</ele><time>2026-05-01T16:30:10.192Z</time></trkpt><trkpt lat="39.3472373" lon="9.452025"><ele>163.33333333333334</ele><time>2026-05-01T16:30:11.193Z</time></trkpt><trkpt lat="39.3474062" lon="9.4520176"><ele>163.0</ele><time>2026-05-01T16:30:12.192Z</time></trkpt><trkpt lat="39.347549" lon="9.4520413"><ele>163.0</ele><time>2026-05-01T16:30:13.193Z</time></trkpt><trkpt lat="39.3476756" lon="9.4521174"><ele>163.0</ele><time>2026-05-01T16:30:14.193Z</time></trkpt><trkpt lat="39.3478065" lon="9.452235"><ele>163.0</ele><time>2026-05-01T16:30:15.192Z</time></trkpt><trkpt lat="39.3479596" lon="9.452364"><ele>157.25</ele><time>2026-05-01T16:30:16.192Z</time></trkpt><trkpt lat="39.348102" lon="9.4524716"><ele>151.5</ele><time>2026-05-01T16:30:17.193Z</time></trkpt><trkpt lat="39.3482243" lon="9.4525703"><ele>145.75</ele><time>2026-05-01T16:30:18.192Z</time></trkpt><trkpt lat="39.3483185" lon="9.4526674"><ele>140.0</ele><time>2026-05-01T16:30:19.193Z</time></trkpt><trkpt lat="39.3483624" lon="9.4527773"><ele>140.0</ele><time>2026-05-01T16:30:20.192Z</time></trkpt><trkpt lat="39.3483608" lon="9.4528957"><ele>140.0</ele><time>2026-05-01T16:30:21.193Z</time></trkpt><trkpt lat="39.3483186" lon="9.4530294"><ele>140.0</ele><time>2026-05-01T16:30:22.192Z</time></trkpt><trkpt lat="39.3482319" lon="9.4531813"><ele>140.0</ele><time>2026-05-01T16:30:23.193Z</time></trkpt><trkpt lat="39.3481204" lon="9.4533612"><ele>138.75</ele><time>2026-05-01T16:30:24.193Z</time></trkpt><trkpt lat="39.34803" lon="9.4535099"><ele>137.5</ele><time>2026-05-01T16:30:25.193Z</time></trkpt><trkpt lat="39.3479624" lon="9.4536599"><ele>136.25</ele><time>2026-05-01T16:30:26.192Z</time></trkpt><trkpt lat="39.3479345" lon="9.4538382"><ele>135.0</ele><time>2026-05-01T16:30:27.192Z</time></trkpt><trkpt lat="39.347949" lon="9.4540386"><ele>135.0</ele><time>2026-05-01T16:30:28.193Z</time></trkpt><trkpt lat="39.3479967" lon="9.4542493"><ele>135.0</ele><time>2026-05-01T16:30:29.193Z</time></trkpt><trkpt lat="39.3480541" lon="9.4544516"><ele>135.0</ele><time>2026-05-01T16:30:30.192Z</time></trkpt><trkpt lat="39.3480987" lon="9.4546074"><ele>134.25</ele><time>2026-05-01T16:30:31.192Z</time></trkpt><trkpt lat="39.3481782" lon="9.454735"><ele>133.5</ele><time>2026-05-01T16:30:32.193Z</time></trkpt><trkpt lat="39.3482934" lon="9.4548307"><ele>132.75</ele><time>2026-05-01T16:30:33.193Z</time></trkpt><trkpt lat="39.3484442" lon="9.4549189"><ele>132.0</ele><time>2026-05-01T16:30:34.193Z</time></trkpt><trkpt lat="39.3485919" lon="9.4550213"><ele>132.0</ele><time>2026-05-01T16:30:35.192Z</time></trkpt><trkpt lat="39.3487299" lon="9.4551652"><ele>132.0</ele><time>2026-05-01T16:30:36.193Z</time></trkpt><trkpt lat="39.3488554" lon="9.4553607"><ele>132.0</ele><time>2026-05-01T16:30:37.192Z</time></trkpt><trkpt lat="39.3489926" lon="9.4556042"><ele>138.0</ele><time>2026-05-01T16:30:38.192Z</time></trkpt><trkpt lat="39.3491415" lon="9.4558594"><ele>144.0</ele><time>2026-05-01T16:30:39.192Z</time></trkpt><trkpt lat="39.3492747" lon="9.4560776"><ele>144.0</ele><time>2026-05-01T16:30:40.192Z</time></trkpt><trkpt lat="39.3494015" lon="9.4562784"><ele>144.0</ele><time>2026-05-01T16:30:41.192Z</time></trkpt><trkpt lat="39.34953" lon="9.4564474"><ele>144.0</ele><time>2026-05-01T16:30:42.193Z</time></trkpt><trkpt lat="39.3496546" lon="9.4565874"><ele>144.0</ele><time>2026-05-01T16:30:43.192Z</time></trkpt><trkpt lat="39.3497558" lon="9.4567363"><ele>144.0</ele><time>2026-05-01T16:30:44.193Z</time></trkpt><trkpt lat="39.3498361" lon="9.4569139"><ele>144.0</ele><time>2026-05-01T16:30:45.192Z</time></trkpt><trkpt lat="39.3498945" lon="9.4570688"><ele>144.0</ele><time>2026-05-01T16:30:46.192Z</time></trkpt><trkpt lat="39.3499249" lon="9.4572236"><ele>144.0</ele><time>2026-05-01T16:30:47.192Z</time></trkpt><trkpt lat="39.3499312" lon="9.4574032"><ele>144.0</ele><time>2026-05-01T16:30:48.192Z</time></trkpt><trkpt lat="39.3499035" lon="9.457611"><ele>144.0</ele><time>2026-05-01T16:30:49.193Z</time></trkpt><trkpt lat="39.3498521" lon="9.4578567"><ele>148.0</ele><time>2026-05-01T16:30:50.193Z</time></trkpt><trkpt lat="39.3497869" lon="9.4581187"><ele>152.0</ele><time>2026-05-01T16:30:51.192Z</time></trkpt><trkpt lat="39.3497219" lon="9.4583472"><ele>156.0</ele><time>2026-05-01T16:30:52.192Z</time></trkpt><trkpt lat="39.3496428" lon="9.4585616"><ele>147.0</ele><time>2026-05-01T16:30:53.193Z</time></trkpt><trkpt lat="39.3495461" lon="9.4587645"><ele>138.0</ele><time>2026-05-01T16:30:54.193Z</time></trkpt><trkpt lat="39.3494576" lon="9.4589692"><ele>129.0</ele><time>2026-05-01T16:30:55.192Z</time></trkpt><trkpt lat="39.349399" lon="9.4591775"><ele>129.0</ele><time>2026-05-01T16:30:56.192Z</time></trkpt><trkpt lat="39.349365" lon="9.4593981"><ele>129.0</ele><time>2026-05-01T16:30:57.193Z</time></trkpt><trkpt lat="39.3493658" lon="9.4596301"><ele>129.0</ele><time>2026-05-01T16:30:58.193Z</time></trkpt><trkpt lat="39.3493689" lon="9.4598642"><ele>129.0</ele><time>2026-05-01T16:30:59.193Z</time></trkpt><trkpt lat="39.3493526" lon="9.4600879"><ele>129.0</ele><time>2026-05-01T16:31:00.193Z</time></trkpt><trkpt lat="39.3493564" lon="9.4602959"><ele>129.0</ele><time>2026-05-01T16:31:01.192Z</time></trkpt><trkpt lat="39.3493994" lon="9.4605123"><ele>127.25</ele><time>2026-05-01T16:31:02.193Z</time></trkpt><trkpt lat="39.3494472" lon="9.4607002"><ele>125.5</ele><time>2026-05-01T16:31:03.192Z</time></trkpt><trkpt lat="39.3495014" lon="9.4608443"><ele>123.75</ele><time>2026-05-01T16:31:04.193Z</time></trkpt><trkpt lat="39.3496007" lon="9.4609578"><ele>122.0</ele><time>2026-05-01T16:31:05.192Z</time></trkpt><trkpt lat="39.3497335" lon="9.4610537"><ele>124.33333333333333</ele><time>2026-05-01T16:31:06.193Z</time></trkpt><trkpt lat="39.3498961" lon="9.4611682"><ele>126.66666666666666</ele><time>2026-05-01T16:31:07.192Z</time></trkpt><trkpt lat="39.3500701" lon="9.4612968"><ele>129.0</ele><time>2026-05-01T16:31:08.193Z</time></trkpt><trkpt lat="39.3502086" lon="9.4614137"><ele>129.0</ele><time>2026-05-01T16:31:09.192Z</time></trkpt><trkpt lat="39.3503173" lon="9.4615581"><ele>129.0</ele><time>2026-05-01T16:31:10.192Z</time></trkpt><trkpt lat="39.3503964" lon="9.4617496"><ele>129.0</ele><time>2026-05-01T16:31:11.192Z</time></trkpt><trkpt lat="39.3504609" lon="9.4619851"><ele>123.66666666666666</ele><time>2026-05-01T16:31:12.193Z</time></trkpt><trkpt lat="39.3505209" lon="9.4622295"><ele>118.33333333333333</ele><time>2026-05-01T16:31:13.192Z</time></trkpt><trkpt lat="39.3505804" lon="9.4624396"><ele>113.0</ele><time>2026-05-01T16:31:14.192Z</time></trkpt><trkpt lat="39.3506616" lon="9.4626214"><ele>122.25</ele><time>2026-05-01T16:31:15.193Z</time></trkpt><trkpt lat="39.3507427" lon="9.4627812"><ele>131.5</ele><time>2026-05-01T16:31:16.193Z</time></trkpt><trkpt lat="39.3507908" lon="9.4629351"><ele>140.75</ele><time>2026-05-01T16:31:17.192Z</time></trkpt><trkpt lat="39.350789" lon="9.4630905"><ele>150.0</ele><time>2026-05-01T16:31:18.193Z</time></trkpt><trkpt lat="39.3507488" lon="9.4632677"><ele>150.0</ele><time>2026-05-01T16:31:19.192Z</time></trkpt><trkpt lat="39.3506833" lon="9.4634916"><ele>150.0</ele><time>2026-05-01T16:31:20.193Z</time></trkpt><trkpt lat="39.3506183" lon="9.4637707"><ele>150.0</ele><time>2026-05-01T16:31:21.193Z</time></trkpt><trkpt lat="39.3505645" lon="9.4640401"><ele>142.66666666666666</ele><time>2026-05-01T16:31:22.192Z</time></trkpt><trkpt lat="39.3505149" lon="9.4642849"><ele>135.33333333333331</ele><time>2026-05-01T16:31:23.192Z</time></trkpt><trkpt lat="39.3504668" lon="9.4645049"><ele>128.0</ele><time>2026-05-01T16:31:24.193Z</time></trkpt><trkpt lat="39.3504072" lon="9.4646937"><ele>128.0</ele><time>2026-05-01T16:31:25.192Z</time></trkpt><trkpt lat="39.3503109" lon="9.464844"><ele>128.0</ele><time>2026-05-01T16:31:26.192Z</time></trkpt><trkpt lat="39.3501738" lon="9.464961"><ele>128.0</ele><time>2026-05-01T16:31:27.193Z</time></trkpt><trkpt lat="39.3500014" lon="9.4650707"><ele>128.0</ele><time>2026-05-01T16:31:28.193Z</time></trkpt><trkpt lat="39.3498018" lon="9.4651921"><ele>128.0</ele><time>2026-05-01T16:31:29.193Z</time></trkpt><trkpt lat="39.3495956" lon="9.4653184"><ele>128.0</ele><time>2026-05-01T16:31:30.193Z</time></trkpt><trkpt lat="39.3494094" lon="9.4654303"><ele>130.33333333333331</ele><time>2026-05-01T16:31:31.193Z</time></trkpt><trkpt lat="39.3492388" lon="9.4655476"><ele>132.66666666666666</ele><time>2026-05-01T16:31:32.193Z</time></trkpt><trkpt lat="39.3490899" lon="9.4656869"><ele>135.0</ele><time>2026-05-01T16:31:33.192Z</time></trkpt><trkpt lat="39.3489565" lon="9.4658431"><ele>128.33333333333334</ele><time>2026-05-01T16:31:34.192Z</time></trkpt><trkpt lat="39.3488166" lon="9.4659811"><ele>121.66666666666667</ele><time>2026-05-01T16:31:35.193Z</time></trkpt><trkpt lat="39.3486518" lon="9.4661003"><ele>115.0</ele><time>2026-05-01T16:31:36.192Z</time></trkpt><trkpt lat="39.3484722" lon="9.4662188"><ele>125.66666666666667</ele><time>2026-05-01T16:31:37.192Z</time></trkpt><trkpt lat="39.3483223" lon="9.4663201"><ele>136.33333333333334</ele><time>2026-05-01T16:31:38.192Z</time></trkpt><trkpt lat="39.3481855" lon="9.4664089"><ele>147.0</ele><time>2026-05-01T16:31:39.192Z</time></trkpt><trkpt lat="39.3480522" lon="9.4664431"><ele>148.5</ele><time>2026-05-01T16:31:40.193Z</time></trkpt><trkpt lat="39.3479125" lon="9.4664237"><ele>150.0</ele><time>2026-05-01T16:31:41.193Z</time></trkpt><trkpt lat="39.3477803" lon="9.4663564"><ele>151.5</ele><time>2026-05-01T16:31:42.193Z</time></trkpt><trkpt lat="39.3476748" lon="9.4662544"><ele>153.0</ele><time>2026-05-01T16:31:43.192Z</time></trkpt><trkpt lat="39.3475917" lon="9.4661076"><ele>150.25</ele><time>2026-05-01T16:31:44.193Z</time></trkpt><trkpt lat="39.347523" lon="9.4659506"><ele>147.5</ele><time>2026-05-01T16:31:45.193Z</time></trkpt><trkpt lat="39.3474359" lon="9.4658421"><ele>144.75</ele><time>2026-05-01T16:31:46.192Z</time></trkpt><trkpt lat="39.3473193" lon="9.4657692"><ele>142.0</ele><time>2026-05-01T16:31:47.193Z</time></trkpt><trkpt lat="39.3471838" lon="9.4657237"><ele>142.0</ele><time>2026-05-01T16:31:48.192Z</time></trkpt><trkpt lat="39.3470063" lon="9.4656945"><ele>142.0</ele><time>2026-05-01T16:31:49.193Z</time></trkpt><trkpt lat="39.3468174" lon="9.4656259"><ele>142.0</ele><time>2026-05-01T16:31:50.193Z</time></trkpt><trkpt lat="39.3466426" lon="9.465539"><ele>142.0</ele><time>2026-05-01T16:31:51.192Z</time></trkpt><trkpt lat="39.3464936" lon="9.4654497"><ele>142.0</ele><time>2026-05-01T16:31:52.192Z</time></trkpt><trkpt lat="39.3463685" lon="9.4653457"><ele>142.0</ele><time>2026-05-01T16:31:53.192Z</time></trkpt><trkpt lat="39.3462681" lon="9.4652104"><ele>140.0</ele><time>2026-05-01T16:31:54.193Z</time></trkpt><trkpt lat="39.346205" lon="9.4650641"><ele>138.0</ele><time>2026-05-01T16:31:55.192Z</time></trkpt><trkpt lat="39.3461713" lon="9.4649152"><ele>136.0</ele><time>2026-05-01T16:31:56.193Z</time></trkpt><trkpt lat="39.3461424" lon="9.4647789"><ele>134.0</ele><time>2026-05-01T16:31:57.193Z</time></trkpt><trkpt lat="39.3461002" lon="9.4646621"><ele>134.0</ele><time>2026-05-01T16:31:58.192Z</time></trkpt><trkpt lat="39.3460303" lon="9.4645716"><ele>134.0</ele><time>2026-05-01T16:31:59.192Z</time></trkpt><trkpt lat="39.345936" lon="9.4645283"><ele>134.0</ele><time>2026-05-01T16:32:00.193Z</time></trkpt><trkpt lat="39.3458339" lon="9.4645381"><ele>134.0</ele><time>2026-05-01T16:32:01.192Z</time></trkpt><trkpt lat="39.3457418" lon="9.4646039"><ele>134.0</ele><time>2026-05-01T16:32:02.192Z</time></trkpt><trkpt lat="39.3456578" lon="9.4647088"><ele>134.0</ele><time>2026-05-01T16:32:03.192Z</time></trkpt><trkpt lat="39.345566" lon="9.464834"><ele>134.0</ele><time>2026-05-01T16:32:04.192Z</time></trkpt><trkpt lat="39.3454655" lon="9.4649781"><ele>134.0</ele><time>2026-05-01T16:32:05.192Z</time></trkpt><trkpt lat="39.3453837" lon="9.4651025"><ele>134.0</ele><time>2026-05-01T16:32:06.192Z</time></trkpt><trkpt lat="39.3453367" lon="9.4652395"><ele>136.0</ele><time>2026-05-01T16:32:07.192Z</time></trkpt><trkpt lat="39.3453382" lon="9.465375"><ele>138.0</ele><time>2026-05-01T16:32:08.193Z</time></trkpt><trkpt lat="39.3453813" lon="9.4655071"><ele>140.0</ele><time>2026-05-01T16:32:09.192Z</time></trkpt><trkpt lat="39.3454531" lon="9.4656391"><ele>142.0</ele><time>2026-05-01T16:32:10.193Z</time></trkpt><trkpt lat="39.3455496" lon="9.4657892"><ele>142.0</ele><time>2026-05-01T16:32:11.192Z</time></trkpt><trkpt lat="39.3456433" lon="9.4659627"><ele>142.0</ele><time>2026-05-01T16:32:12.192Z</time></trkpt><trkpt lat="39.345704" lon="9.4661458"><ele>142.0</ele><time>2026-05-01T16:32:13.192Z</time></trkpt><trkpt lat="39.3457353" lon="9.4663468"><ele>140.25</ele><time>2026-05-01T16:32:14.193Z</time></trkpt><trkpt lat="39.3457422" lon="9.4665502"><ele>138.5</ele><time>2026-05-01T16:32:15.193Z</time></trkpt><trkpt lat="39.3457497" lon="9.4667397"><ele>136.75</ele><time>2026-05-01T16:32:16.193Z</time></trkpt><trkpt lat="39.3457768" lon="9.4669179"><ele>135.0</ele><time>2026-05-01T16:32:17.193Z</time></trkpt><trkpt lat="39.3458317" lon="9.4670837"><ele>132.25</ele><time>2026-05-01T16:32:18.192Z</time></trkpt><trkpt lat="39.3459046" lon="9.4672401"><ele>129.5</ele><time>2026-05-01T16:32:19.192Z</time></trkpt><trkpt lat="39.3459657" lon="9.4673731"><ele>126.75</ele><time>2026-05-01T16:32:20.192Z</time></trkpt><trkpt lat="39.3459944" lon="9.4675075"><ele>124.0</ele><time>2026-05-01T16:32:21.192Z</time></trkpt><trkpt lat="39.3459872" lon="9.4676418"><ele>124.0</ele><time>2026-05-01T16:32:22.192Z</time></trkpt><trkpt lat="39.3459402" lon="9.4677546"><ele>124.0</ele><time>2026-05-01T16:32:23.193Z</time></trkpt><trkpt lat="39.3458669" lon="9.4678466"><ele>124.0</ele><time>2026-05-01T16:32:24.193Z</time></trkpt><trkpt lat="39.3457933" lon="9.4679192"><ele>124.0</ele><time>2026-05-01T16:32:25.192Z</time></trkpt><trkpt lat="39.3457145" lon="9.4679999"><ele>124.0</ele><time>2026-05-01T16:32:26.193Z</time></trkpt><trkpt lat="39.3456353" lon="9.4680804"><ele>126.4</ele><time>2026-05-01T16:32:27.193Z</time></trkpt><trkpt lat="39.3455589" lon="9.4681536"><ele>128.8</ele><time>2026-05-01T16:32:28.192Z</time></trkpt><trkpt lat="39.345485" lon="9.4682234"><ele>131.2</ele><time>2026-05-01T16:32:29.193Z</time></trkpt><trkpt lat="39.3454104" lon="9.4682995"><ele>133.6</ele><time>2026-05-01T16:32:30.192Z</time></trkpt><trkpt lat="39.3453322" lon="9.4683913"><ele>136.0</ele><time>2026-05-01T16:32:31.192Z</time></trkpt><trkpt lat="39.3452575" lon="9.4685116"><ele>129.4</ele><time>2026-05-01T16:32:32.193Z</time></trkpt><trkpt lat="39.3451948" lon="9.4686513"><ele>122.8</ele><time>2026-05-01T16:32:33.193Z</time></trkpt><trkpt lat="39.3451532" lon="9.4687906"><ele>116.2</ele><time>2026-05-01T16:32:34.192Z</time></trkpt><trkpt lat="39.3451434" lon="9.4689281"><ele>109.60000000000001</ele><time>2026-05-01T16:32:35.192Z</time></trkpt><trkpt lat="39.3451587" lon="9.4690584"><ele>103.0</ele><time>2026-05-01T16:32:36.193Z</time></trkpt><trkpt lat="39.3452186" lon="9.4691626"><ele>103.0</ele><time>2026-05-01T16:32:37.193Z</time></trkpt><trkpt lat="39.3453079" lon="9.469244"><ele>103.0</ele><time>2026-05-01T16:32:38.193Z</time></trkpt><trkpt lat="39.3454341" lon="9.4693259"><ele>103.0</ele><time>2026-05-01T16:32:39.192Z</time></trkpt><trkpt lat="39.3455837" lon="9.4694185"><ele>103.0</ele><time>2026-05-01T16:32:40.193Z</time></trkpt><trkpt lat="39.3457236" lon="9.4695086"><ele>105.33333333333334</ele><time>2026-05-01T16:32:41.192Z</time></trkpt><trkpt lat="39.3458473" lon="9.469611"><ele>107.66666666666666</ele><time>2026-05-01T16:32:42.193Z</time></trkpt><trkpt lat="39.3459564" lon="9.4697501"><ele>110.0</ele><time>2026-05-01T16:32:43.192Z</time></trkpt><trkpt lat="39.3460554" lon="9.4699215"><ele>110.0</ele><time>2026-05-01T16:32:44.193Z</time></trkpt><trkpt lat="39.3461481" lon="9.4701224"><ele>110.0</ele><time>2026-05-01T16:32:45.193Z</time></trkpt><trkpt lat="39.3462337" lon="9.4703394"><ele>110.0</ele><time>2026-05-01T16:32:46.192Z</time></trkpt><trkpt lat="39.3463113" lon="9.4705435"><ele>116.0</ele><time>2026-05-01T16:32:47.193Z</time></trkpt><trkpt lat="39.3463874" lon="9.4707386"><ele>122.0</ele><time>2026-05-01T16:32:48.193Z</time></trkpt><trkpt lat="39.3464434" lon="9.4709286"><ele>128.0</ele><time>2026-05-01T16:32:49.192Z</time></trkpt><trkpt lat="39.3464693" lon="9.4711436"><ele>124.33333333333333</ele><time>2026-05-01T16:32:50.192Z</time></trkpt><trkpt lat="39.3464764" lon="9.4713861"><ele>120.66666666666666</ele><time>2026-05-01T16:32:51.193Z</time></trkpt><trkpt lat="39.3464746" lon="9.4716147"><ele>117.0</ele><time>2026-05-01T16:32:52.192Z</time></trkpt><trkpt lat="39.3464684" lon="9.4718307"><ele>117.0</ele><time>2026-05-01T16:32:53.193Z</time></trkpt><trkpt lat="39.3464336" lon="9.4720418"><ele>117.0</ele><time>2026-05-01T16:32:54.192Z</time></trkpt><trkpt lat="39.3463803" lon="9.4722647"><ele>117.0</ele><time>2026-05-01T16:32:55.193Z</time></trkpt><trkpt lat="39.3463312" lon="9.4724537"><ele>109.0</ele><time>2026-05-01T16:32:56.193Z</time></trkpt><trkpt lat="39.3462898" lon="9.4726178"><ele>101.0</ele><time>2026-05-01T16:32:57.192Z</time></trkpt><trkpt lat="39.3462699" lon="9.4727656"><ele>93.0</ele><time>2026-05-01T16:32:58.192Z</time></trkpt><trkpt lat="39.3462945" lon="9.4729025"><ele>85.0</ele><time>2026-05-01T16:32:59.193Z</time></trkpt><trkpt lat="39.3463612" lon="9.4730262"><ele>87.33333333333333</ele><time>2026-05-01T16:33:00.192Z</time></trkpt><trkpt lat="39.3464711" lon="9.4731528"><ele>89.66666666666667</ele><time>2026-05-01T16:33:01.193Z</time></trkpt><trkpt lat="39.346613" lon="9.473304"><ele>92.0</ele><time>2026-05-01T16:33:02.193Z</time></trkpt><trkpt lat="39.3467342" lon="9.4734406"><ele>92.0</ele><time>2026-05-01T16:33:03.193Z</time></trkpt><trkpt lat="39.3468489" lon="9.4735585"><ele>92.0</ele><time>2026-05-01T16:33:04.192Z</time></trkpt><trkpt lat="39.3469776" lon="9.4736448"><ele>92.0</ele><time>2026-05-01T16:33:05.193Z</time></trkpt><trkpt lat="39.3471203" lon="9.4736852"><ele>92.0</ele><time>2026-05-01T16:33:06.192Z</time></trkpt><trkpt lat="39.3472819" lon="9.4736789"><ele>96.66666666666667</ele><time>2026-05-01T16:33:07.192Z</time></trkpt><trkpt lat="39.3474736" lon="9.4736536"><ele>101.33333333333334</ele><time>2026-05-01T16:33:08.192Z</time></trkpt><trkpt lat="39.3476909" lon="9.4736269"><ele>106.0</ele><time>2026-05-01T16:33:09.192Z</time></trkpt><trkpt lat="39.3478893" lon="9.4736037"><ele>104.66666666666667</ele><time>2026-05-01T16:33:10.193Z</time></trkpt><trkpt lat="39.3480693" lon="9.4735837"><ele>103.33333333333334</ele><time>2026-05-01T16:33:11.193Z</time></trkpt><trkpt lat="39.3482368" lon="9.4735809"><ele>102.0</ele><time>2026-05-01T16:33:12.192Z</time></trkpt><trkpt lat="39.3483887" lon="9.4736296"><ele>102.0</ele><time>2026-05-01T16:33:13.192Z</time></trkpt><trkpt lat="39.3485308" lon="9.4737299"><ele>102.0</ele><time>2026-05-01T16:33:14.192Z</time></trkpt><trkpt lat="39.3486685" lon="9.4738634"><ele>102.0</ele><time>2026-05-01T16:33:15.193Z</time></trkpt><trkpt lat="39.348826" lon="9.4739933"><ele>96.0</ele><time>2026-05-01T16:33:16.192Z</time></trkpt><trkpt lat="39.3490166" lon="9.474117"><ele>90.0</ele><time>2026-05-01T16:33:17.193Z</time></trkpt><trkpt lat="39.3492282" lon="9.4742517"><ele>84.0</ele><time>2026-05-01T16:33:18.192Z</time></trkpt><trkpt lat="39.3494048" lon="9.4743682"><ele>84.0</ele><time>2026-05-01T16:33:19.192Z</time></trkpt><trkpt lat="39.3495663" lon="9.474469"><ele>84.0</ele><time>2026-05-01T16:33:20.193Z</time></trkpt><trkpt lat="39.349703" lon="9.474571"><ele>84.0</ele><time>2026-05-01T16:33:21.192Z</time></trkpt><trkpt lat="39.3498136" lon="9.4747088"><ele>80.0</ele><time>2026-05-01T16:33:22.192Z</time></trkpt><trkpt lat="39.3499027" lon="9.474888"><ele>76.0</ele><time>2026-05-01T16:33:23.193Z</time></trkpt><trkpt lat="39.3500003" lon="9.475096"><ele>72.0</ele><time>2026-05-01T16:33:24.193Z</time></trkpt><trkpt lat="39.3501206" lon="9.4753207"><ele>67.33333333333333</ele><time>2026-05-01T16:33:25.193Z</time></trkpt><trkpt lat="39.3502373" lon="9.475528"><ele>62.666666666666664</ele><time>2026-05-01T16:33:26.192Z</time></trkpt><trkpt lat="39.3503659" lon="9.4757271"><ele>58.0</ele><time>2026-05-01T16:33:27.193Z</time></trkpt><trkpt lat="39.3505373" lon="9.4758908"><ele>60.0</ele><time>2026-05-01T16:33:28.193Z</time></trkpt><trkpt lat="39.3507387" lon="9.4760486"><ele>62.0</ele><time>2026-05-01T16:33:29.192Z</time></trkpt><trkpt lat="39.3509687" lon="9.4762117"><ele>60.5</ele><time>2026-05-01T16:33:30.192Z</time></trkpt><trkpt lat="39.3511942" lon="9.4763693"><ele>59.0</ele><time>2026-05-01T16:33:31.192Z</time></trkpt><trkpt lat="39.3514077" lon="9.4765165"><ele>58.5</ele><time>2026-05-01T16:33:32.193Z</time></trkpt><trkpt lat="39.3516137" lon="9.476656"><ele>58.0</ele><time>2026-05-01T16:33:33.192Z</time></trkpt><trkpt lat="39.3518034" lon="9.4767944"><ele>58.0</ele><time>2026-05-01T16:33:34.193Z</time></trkpt><trkpt lat="39.351965" lon="9.4769467"><ele>58.0</ele><time>2026-05-01T16:33:35.192Z</time></trkpt><trkpt lat="39.3520957" lon="9.4771273"><ele>58.0</ele><time>2026-05-01T16:33:36.193Z</time></trkpt><trkpt lat="39.3521849" lon="9.4773319"><ele>55.666666666666664</ele><time>2026-05-01T16:33:37.192Z</time></trkpt><trkpt lat="39.3522278" lon="9.4775281"><ele>53.33333333333333</ele><time>2026-05-01T16:33:38.193Z</time></trkpt><trkpt lat="39.3522277" lon="9.4777408"><ele>51.0</ele><time>2026-05-01T16:33:39.192Z</time></trkpt><trkpt lat="39.3521817" lon="9.4779555"><ele>58.33333333333333</ele><time>2026-05-01T16:33:40.193Z</time></trkpt><trkpt lat="39.3520993" lon="9.4781723"><ele>65.66666666666666</ele><time>2026-05-01T16:33:41.193Z</time></trkpt><trkpt lat="39.3519881" lon="9.4784095"><ele>73.0</ele><time>2026-05-01T16:33:42.192Z</time></trkpt><trkpt lat="39.3518797" lon="9.4786313"><ele>68.66666666666666</ele><time>2026-05-01T16:33:43.193Z</time></trkpt><trkpt lat="39.3517692" lon="9.478857"><ele>64.33333333333333</ele><time>2026-05-01T16:33:44.193Z</time></trkpt><trkpt lat="39.3516579" lon="9.4790853"><ele>60.0</ele><time>2026-05-01T16:33:45.193Z</time></trkpt><trkpt lat="39.3515474" lon="9.479312"><ele>60.0</ele><time>2026-05-01T16:33:46.193Z</time></trkpt><trkpt lat="39.3514374" lon="9.4795361"><ele>60.0</ele><time>2026-05-01T16:33:47.193Z</time></trkpt><trkpt lat="39.3513279" lon="9.47976"><ele>60.0</ele><time>2026-05-01T16:33:48.192Z</time></trkpt><trkpt lat="39.3512201" lon="9.479985"><ele>59.33333333333333</ele><time>2026-05-01T16:33:49.192Z</time></trkpt><trkpt lat="39.3511211" lon="9.4801965"><ele>58.666666666666664</ele><time>2026-05-01T16:33:50.192Z</time></trkpt><trkpt lat="39.3510287" lon="9.4804076"><ele>58.0</ele><time>2026-05-01T16:33:51.193Z</time></trkpt><trkpt lat="39.3509431" lon="9.4806257"><ele>58.0</ele><time>2026-05-01T16:33:52.193Z</time></trkpt><trkpt lat="39.3508667" lon="9.4808444"><ele>58.0</ele><time>2026-05-01T16:33:53.192Z</time></trkpt><trkpt lat="39.3507971" lon="9.4810677"><ele>58.0</ele><time>2026-05-01T16:33:54.193Z</time></trkpt><trkpt lat="39.3507306" lon="9.4812955"><ele>60.0</ele><time>2026-05-01T16:33:55.193Z</time></trkpt><trkpt lat="39.3506658" lon="9.4815265"><ele>62.0</ele><time>2026-05-01T16:33:56.193Z</time></trkpt><trkpt lat="39.3505982" lon="9.4817583"><ele>64.0</ele><time>2026-05-01T16:33:57.193Z</time></trkpt><trkpt lat="39.3505305" lon="9.4819917"><ele>62.33333333333333</ele><time>2026-05-01T16:33:58.192Z</time></trkpt><trkpt lat="39.350463" lon="9.4822259"><ele>60.66666666666667</ele><time>2026-05-01T16:33:59.193Z</time></trkpt><trkpt lat="39.350394" lon="9.4824615"><ele>59.0</ele><time>2026-05-01T16:34:00.192Z</time></trkpt><trkpt lat="39.3503251" lon="9.4826976"><ele>57.333333333333336</ele><time>2026-05-01T16:34:01.192Z</time></trkpt><trkpt lat="39.3502573" lon="9.4829351"><ele>55.66666666666667</ele><time>2026-05-01T16:34:02.193Z</time></trkpt><trkpt lat="39.3501894" lon="9.4831721"><ele>54.0</ele><time>2026-05-01T16:34:03.193Z</time></trkpt><trkpt lat="39.3501215" lon="9.4834108"><ele>54.0</ele><time>2026-05-01T16:34:04.193Z</time></trkpt><trkpt lat="39.3500535" lon="9.4836504"><ele>54.0</ele><time>2026-05-01T16:34:05.192Z</time></trkpt><trkpt lat="39.3499846" lon="9.4838907"><ele>54.0</ele><time>2026-05-01T16:34:06.193Z</time></trkpt><trkpt lat="39.3499143" lon="9.4841303"><ele>52.66666666666667</ele><time>2026-05-01T16:34:07.193Z</time></trkpt><trkpt lat="39.349846" lon="9.4843673"><ele>51.333333333333336</ele><time>2026-05-01T16:34:08.192Z</time></trkpt><trkpt lat="39.3497837" lon="9.4845917"><ele>50.0</ele><time>2026-05-01T16:34:09.193Z</time></trkpt><trkpt lat="39.3497298" lon="9.4848103"><ele>57.0</ele><time>2026-05-01T16:34:10.193Z</time></trkpt><trkpt lat="39.3496846" lon="9.4850319"><ele>64.0</ele><time>2026-05-01T16:34:11.193Z</time></trkpt><trkpt lat="39.3496512" lon="9.4852526"><ele>71.0</ele><time>2026-05-01T16:34:12.193Z</time></trkpt><trkpt lat="39.349642" lon="9.4854692"><ele>71.0</ele><time>2026-05-01T16:34:13.192Z</time></trkpt><trkpt lat="39.3496591" lon="9.4856772"><ele>71.0</ele><time>2026-05-01T16:34:14.193Z</time></trkpt><trkpt lat="39.3497062" lon="9.4858764"><ele>71.0</ele><time>2026-05-01T16:34:15.193Z</time></trkpt><trkpt lat="39.3497889" lon="9.486056"><ele>63.0</ele><time>2026-05-01T16:34:16.192Z</time></trkpt><trkpt lat="39.3498983" lon="9.4862254"><ele>55.0</ele><time>2026-05-01T16:34:17.192Z</time></trkpt><trkpt lat="39.3500205" lon="9.4863967"><ele>47.0</ele><time>2026-05-01T16:34:18.192Z</time></trkpt><trkpt lat="39.3501445" lon="9.486579"><ele>47.0</ele><time>2026-05-01T16:34:19.192Z</time></trkpt><trkpt lat="39.3502733" lon="9.4867708"><ele>47.0</ele><time>2026-05-01T16:34:20.193Z</time></trkpt><trkpt lat="39.350406" lon="9.4869674"><ele>47.0</ele><time>2026-05-01T16:34:21.193Z</time></trkpt><trkpt lat="39.350545" lon="9.4871669"><ele>46.0</ele><time>2026-05-01T16:34:22.193Z</time></trkpt><trkpt lat="39.3506798" lon="9.4873691"><ele>45.0</ele><time>2026-05-01T16:34:23.193Z</time></trkpt><trkpt lat="39.350817" lon="9.4875742"><ele>44.0</ele><time>2026-05-01T16:34:24.192Z</time></trkpt><trkpt lat="39.3509579" lon="9.4877799"><ele>42.0</ele><time>2026-05-01T16:34:25.192Z</time></trkpt><trkpt lat="39.3511001" lon="9.48799"><ele>40.0</ele><time>2026-05-01T16:34:26.193Z</time></trkpt><trkpt lat="39.3512428" lon="9.4882019"><ele>38.0</ele><time>2026-05-01T16:34:27.192Z</time></trkpt><trkpt lat="39.3513905" lon="9.488415"><ele>38.0</ele><time>2026-05-01T16:34:28.192Z</time></trkpt><trkpt lat="39.3515382" lon="9.4886271"><ele>38.0</ele><time>2026-05-01T16:34:29.192Z</time></trkpt><trkpt lat="39.3516847" lon="9.4888393"><ele>38.0</ele><time>2026-05-01T16:34:30.193Z</time></trkpt><trkpt lat="39.3518307" lon="9.4890518"><ele>39.0</ele><time>2026-05-01T16:34:31.193Z</time></trkpt><trkpt lat="39.3519784" lon="9.4892661"><ele>40.0</ele><time>2026-05-01T16:34:32.192Z</time></trkpt><trkpt lat="39.3521279" lon="9.4894833"><ele>41.0</ele><time>2026-05-01T16:34:33.193Z</time></trkpt><trkpt lat="39.3522759" lon="9.4896991"><ele>41.0</ele><time>2026-05-01T16:34:34.193Z</time></trkpt><trkpt lat="39.3524256" lon="9.4899155"><ele>41.0</ele><time>2026-05-01T16:34:35.192Z</time></trkpt><trkpt lat="39.3525739" lon="9.4901284"><ele>41.0</ele><time>2026-05-01T16:34:36.192Z</time></trkpt><trkpt lat="39.3527153" lon="9.490332"><ele>39.0</ele><time>2026-05-01T16:34:37.192Z</time></trkpt><trkpt lat="39.3528474" lon="9.4905259"><ele>37.0</ele><time>2026-05-01T16:34:38.192Z</time></trkpt><trkpt lat="39.3529717" lon="9.4907126"><ele>35.0</ele><time>2026-05-01T16:34:39.193Z</time></trkpt><trkpt lat="39.3530807" lon="9.4908916"><ele>35.0</ele><time>2026-05-01T16:34:40.192Z</time></trkpt><trkpt lat="39.3531735" lon="9.4910657"><ele>35.0</ele><time>2026-05-01T16:34:41.192Z</time></trkpt><trkpt lat="39.3532461" lon="9.4912258"><ele>35.0</ele><time>2026-05-01T16:34:42.192Z</time></trkpt><trkpt lat="39.3533104" lon="9.4913681"><ele>35.0</ele><time>2026-05-01T16:34:43.193Z</time></trkpt><trkpt lat="39.353378" lon="9.4914868"><ele>34.4</ele><time>2026-05-01T16:34:44.192Z</time></trkpt><trkpt lat="39.3534719" lon="9.4915547"><ele>33.8</ele><time>2026-05-01T16:34:45.192Z</time></trkpt><trkpt lat="39.3535732" lon="9.4915724"><ele>33.2</ele><time>2026-05-01T16:34:46.193Z</time></trkpt><trkpt lat="39.3536713" lon="9.491539"><ele>32.6</ele><time>2026-05-01T16:34:47.193Z</time></trkpt><trkpt lat="39.3537736" lon="9.4914675"><ele>32.0</ele><time>2026-05-01T16:34:48.192Z</time></trkpt><trkpt lat="39.3538919" lon="9.4913781"><ele>32.0</ele><time>2026-05-01T16:34:49.192Z</time></trkpt><trkpt lat="39.3540195" lon="9.4912828"><ele>32.0</ele><time>2026-05-01T16:34:50.193Z</time></trkpt><trkpt lat="39.3541287" lon="9.4911947"><ele>32.0</ele><time>2026-05-01T16:34:51.193Z</time></trkpt><trkpt lat="39.3542279" lon="9.4911341"><ele>32.0</ele><time>2026-05-01T16:34:52.192Z</time></trkpt><trkpt lat="39.3543227" lon="9.4911174"><ele>32.0</ele><time>2026-05-01T16:34:53.193Z</time></trkpt><trkpt lat="39.3543993" lon="9.4911514"><ele>32.0</ele><time>2026-05-01T16:34:54.193Z</time></trkpt><trkpt lat="39.3544665" lon="9.4912263"><ele>32.0</ele><time>2026-05-01T16:34:55.192Z</time></trkpt><trkpt lat="39.354531" lon="9.4913474"><ele>32.0</ele><time>2026-05-01T16:34:56.193Z</time></trkpt><trkpt lat="39.3546079" lon="9.4915001"><ele>32.0</ele><time>2026-05-01T16:34:57.192Z</time></trkpt><trkpt lat="39.3546978" lon="9.4916724"><ele>33.0</ele><time>2026-05-01T16:34:58.192Z</time></trkpt><trkpt lat="39.3548017" lon="9.4918687"><ele>34.0</ele><time>2026-05-01T16:34:59.192Z</time></trkpt><trkpt lat="39.3549061" lon="9.4920624"><ele>35.0</ele><time>2026-05-01T16:35:00.192Z</time></trkpt><trkpt lat="39.3550095" lon="9.4922501"><ele>35.0</ele><time>2026-05-01T16:35:01.193Z</time></trkpt><trkpt lat="39.3551128" lon="9.492445"><ele>35.0</ele><time>2026-05-01T16:35:02.192Z</time></trkpt><trkpt lat="39.3552235" lon="9.4926488"><ele>35.0</ele><time>2026-05-01T16:35:03.193Z</time></trkpt><trkpt lat="39.3553449" lon="9.4928723"><ele>33.33333333333333</ele><time>2026-05-01T16:35:04.192Z</time></trkpt><trkpt lat="39.3554729" lon="9.4931044"><ele>31.666666666666664</ele><time>2026-05-01T16:35:05.192Z</time></trkpt><trkpt lat="39.3556" lon="9.4933384"><ele>30.0</ele><time>2026-05-01T16:35:06.193Z</time></trkpt><trkpt lat="39.355719" lon="9.4935604"><ele>32.0</ele><time>2026-05-01T16:35:07.193Z</time></trkpt><trkpt lat="39.355837" lon="9.4937737"><ele>34.0</ele><time>2026-05-01T16:35:08.193Z</time></trkpt><trkpt lat="39.3559617" lon="9.4939806"><ele>36.0</ele><time>2026-05-01T16:35:09.192Z</time></trkpt><trkpt lat="39.3561012" lon="9.4941733"><ele>36.0</ele><time>2026-05-01T16:35:10.192Z</time></trkpt><trkpt lat="39.3562626" lon="9.4943475"><ele>36.0</ele><time>2026-05-01T16:35:11.193Z</time></trkpt><trkpt lat="39.3564466" lon="9.4945063"><ele>36.0</ele><time>2026-05-01T16:35:12.192Z</time></trkpt><trkpt lat="39.3566395" lon="9.4946603"><ele>37.0</ele><time>2026-05-01T16:35:13.193Z</time></trkpt><trkpt lat="39.3568282" lon="9.49481"><ele>38.0</ele><time>2026-05-01T16:35:14.193Z</time></trkpt><trkpt lat="39.3570082" lon="9.4949488"><ele>39.0</ele><time>2026-05-01T16:35:15.192Z</time></trkpt><trkpt lat="39.3572" lon="9.4950709"><ele>40.666666666666664</ele><time>2026-05-01T16:35:16.192Z</time></trkpt><trkpt lat="39.3574015" lon="9.4951644"><ele>42.33333333333333</ele><time>2026-05-01T16:35:17.193Z</time></trkpt><trkpt lat="39.3576039" lon="9.4952414"><ele>44.0</ele><time>2026-05-01T16:35:18.193Z</time></trkpt><trkpt lat="39.357801" lon="9.4952993"><ele>44.0</ele><time>2026-05-01T16:35:19.192Z</time></trkpt><trkpt lat="39.3579956" lon="9.4953324"><ele>44.0</ele><time>2026-05-01T16:35:20.193Z</time></trkpt><trkpt lat="39.3581822" lon="9.4953323"><ele>44.0</ele><time>2026-05-01T16:35:21.193Z</time></trkpt><trkpt lat="39.3583723" lon="9.4953032"><ele>44.0</ele><time>2026-05-01T16:35:22.193Z</time></trkpt><trkpt lat="39.3585611" lon="9.4952562"><ele>44.0</ele><time>2026-05-01T16:35:23.192Z</time></trkpt><trkpt lat="39.3587531" lon="9.4952052"><ele>44.0</ele><time>2026-05-01T16:35:24.193Z</time></trkpt><trkpt lat="39.3589507" lon="9.4951523"><ele>44.0</ele><time>2026-05-01T16:35:25.192Z</time></trkpt><trkpt lat="39.3591462" lon="9.4950987"><ele>44.0</ele><time>2026-05-01T16:35:26.193Z</time></trkpt><trkpt lat="39.3593295" lon="9.4950469"><ele>44.0</ele><time>2026-05-01T16:35:27.192Z</time></trkpt><trkpt lat="39.3594991" lon="9.4949962"><ele>44.0</ele><time>2026-05-01T16:35:28.193Z</time></trkpt><trkpt lat="39.3596484" lon="9.4949522"><ele>44.0</ele><time>2026-05-01T16:35:29.193Z</time></trkpt><trkpt lat="39.3597813" lon="9.4949165"><ele>44.0</ele><time>2026-05-01T16:35:30.192Z</time></trkpt><trkpt lat="39.3599023" lon="9.4949094"><ele>44.0</ele><time>2026-05-01T16:35:31.193Z</time></trkpt><trkpt lat="39.3600078" lon="9.4949449"><ele>43.5</ele><time>2026-05-01T16:35:32.192Z</time></trkpt><trkpt lat="39.3600869" lon="9.4950211"><ele>43.0</ele><time>2026-05-01T16:35:33.193Z</time></trkpt><trkpt lat="39.3601481" lon="9.4951278"><ele>42.5</ele><time>2026-05-01T16:35:34.193Z</time></trkpt><trkpt lat="39.3602076" lon="9.4952643"><ele>42.0</ele><time>2026-05-01T16:35:35.192Z</time></trkpt><trkpt lat="39.3602774" lon="9.4954276"><ele>42.0</ele><time>2026-05-01T16:35:36.193Z</time></trkpt><trkpt lat="39.3603555" lon="9.4956035"><ele>42.0</ele><time>2026-05-01T16:35:37.192Z</time></trkpt><trkpt lat="39.3604289" lon="9.495761"><ele>42.0</ele><time>2026-05-01T16:35:38.192Z</time></trkpt><trkpt lat="39.3604984" lon="9.4959315"><ele>42.0</ele><time>2026-05-01T16:35:39.193Z</time></trkpt><trkpt lat="39.3605524" lon="9.4961122"><ele>43.666666666666664</ele><time>2026-05-01T16:35:40.193Z</time></trkpt><trkpt lat="39.3605844" lon="9.4963014"><ele>45.33333333333333</ele><time>2026-05-01T16:35:41.192Z</time></trkpt><trkpt lat="39.360594" lon="9.4964933"><ele>47.0</ele><time>2026-05-01T16:35:42.193Z</time></trkpt><trkpt lat="39.3605802" lon="9.4966946"><ele>47.0</ele><time>2026-05-01T16:35:43.192Z</time></trkpt><trkpt lat="39.3605515" lon="9.4969123"><ele>47.0</ele><time>2026-05-01T16:35:44.193Z</time></trkpt><trkpt lat="39.3605184" lon="9.4971463"><ele>47.0</ele><time>2026-05-01T16:35:45.192Z</time></trkpt><trkpt lat="39.3604841" lon="9.4973783"><ele>44.33333333333333</ele><time>2026-05-01T16:35:46.193Z</time></trkpt><trkpt lat="39.3604483" lon="9.4976153"><ele>41.666666666666664</ele><time>2026-05-01T16:35:47.192Z</time></trkpt><trkpt lat="39.3604121" lon="9.4978583"><ele>39.0</ele><time>2026-05-01T16:35:48.192Z</time></trkpt><trkpt lat="39.3603811" lon="9.4980913"><ele>39.0</ele><time>2026-05-01T16:35:49.192Z</time></trkpt><trkpt lat="39.3603632" lon="9.4983223"><ele>39.0</ele><time>2026-05-01T16:35:50.192Z</time></trkpt><trkpt lat="39.3603682" lon="9.4985525"><ele>39.0</ele><time>2026-05-01T16:35:51.193Z</time></trkpt><trkpt lat="39.3603953" lon="9.4987803"><ele>38.666666666666664</ele><time>2026-05-01T16:35:52.193Z</time></trkpt><trkpt lat="39.3604443" lon="9.4990059"><ele>38.33333333333333</ele><time>2026-05-01T16:35:53.193Z</time></trkpt><trkpt lat="39.3605128" lon="9.4992303"><ele>38.0</ele><time>2026-05-01T16:35:54.192Z</time></trkpt><trkpt lat="39.3606048" lon="9.4994553"><ele>39.666666666666664</ele><time>2026-05-01T16:35:55.193Z</time></trkpt><trkpt lat="39.3607209" lon="9.499686"><ele>41.333333333333336</ele><time>2026-05-01T16:35:56.192Z</time></trkpt><trkpt lat="39.360851" lon="9.4999335"><ele>43.0</ele><time>2026-05-01T16:35:57.192Z</time></trkpt><trkpt lat="39.3609895" lon="9.5001989"><ele>40.0</ele><time>2026-05-01T16:35:58.193Z</time></trkpt><trkpt lat="39.3611312" lon="9.5004797"><ele>37.0</ele><time>2026-05-01T16:35:59.192Z</time></trkpt><trkpt lat="39.3612741" lon="9.5007758"><ele>36.5</ele><time>2026-05-01T16:36:00.192Z</time></trkpt><trkpt lat="39.3614212" lon="9.5010909"><ele>36.0</ele><time>2026-05-01T16:36:01.192Z</time></trkpt><trkpt lat="39.3615687" lon="9.5013989"><ele>36.0</ele><time>2026-05-01T16:36:02.192Z</time></trkpt><trkpt lat="39.361711" lon="9.5016874"><ele>36.0</ele><time>2026-05-01T16:36:03.192Z</time></trkpt><trkpt lat="39.361862" lon="9.5019676"><ele>36.0</ele><time>2026-05-01T16:36:04.193Z</time></trkpt><trkpt lat="39.3620245" lon="9.5022279"><ele>36.0</ele><time>2026-05-01T16:36:05.193Z</time></trkpt><trkpt lat="39.3622021" lon="9.5024677"><ele>38.0</ele><time>2026-05-01T16:36:06.193Z</time></trkpt><trkpt lat="39.3623926" lon="9.5026872"><ele>40.0</ele><time>2026-05-01T16:36:07.193Z</time></trkpt><trkpt lat="39.3625967" lon="9.5028893"><ele>41.0</ele><time>2026-05-01T16:36:08.192Z</time></trkpt><trkpt lat="39.3628129" lon="9.503083"><ele>42.0</ele><time>2026-05-01T16:36:09.193Z</time></trkpt><trkpt lat="39.363034" lon="9.5032784"><ele>42.0</ele><time>2026-05-01T16:36:10.192Z</time></trkpt><trkpt lat="39.3632472" lon="9.5034708"><ele>42.0</ele><time>2026-05-01T16:36:11.192Z</time></trkpt><trkpt lat="39.3634501" lon="9.5036463"><ele>42.0</ele><time>2026-05-01T16:36:12.193Z</time></trkpt><trkpt lat="39.3636565" lon="9.5037984"><ele>42.0</ele><time>2026-05-01T16:36:13.192Z</time></trkpt><trkpt lat="39.3638664" lon="9.5039181"><ele>42.0</ele><time>2026-05-01T16:36:14.193Z</time></trkpt><trkpt lat="39.364081" lon="9.5040085"><ele>42.0</ele><time>2026-05-01T16:36:15.193Z</time></trkpt><trkpt lat="39.3643019" lon="9.5040808"><ele>42.0</ele><time>2026-05-01T16:36:16.193Z</time></trkpt><trkpt lat="39.3645244" lon="9.5041476"><ele>42.0</ele><time>2026-05-01T16:36:17.192Z</time></trkpt><trkpt lat="39.364747" lon="9.5042169"><ele>43.5</ele><time>2026-05-01T16:36:18.193Z</time></trkpt><trkpt lat="39.3649696" lon="9.5042778"><ele>45.0</ele><time>2026-05-01T16:36:19.192Z</time></trkpt><trkpt lat="39.3651991" lon="9.5043221"><ele>45.0</ele><time>2026-05-01T16:36:20.193Z</time></trkpt><trkpt lat="39.3654359" lon="9.5043539"><ele>45.0</ele><time>2026-05-01T16:36:21.193Z</time></trkpt><trkpt lat="39.3656551" lon="9.504374"><ele>46.0</ele><time>2026-05-01T16:36:22.192Z</time></trkpt><trkpt lat="39.3658571" lon="9.5043889"><ele>47.0</ele><time>2026-05-01T16:36:23.193Z</time></trkpt><trkpt lat="39.3660342" lon="9.5044048"><ele>48.0</ele><time>2026-05-01T16:36:24.193Z</time></trkpt><trkpt lat="39.3661791" lon="9.5044304"><ele>48.0</ele><time>2026-05-01T16:36:25.193Z</time></trkpt><trkpt lat="39.3662984" lon="9.504485"><ele>48.0</ele><time>2026-05-01T16:36:26.192Z</time></trkpt><trkpt lat="39.3664008" lon="9.5045796"><ele>48.0</ele><time>2026-05-01T16:36:27.193Z</time></trkpt><trkpt lat="39.366494" lon="9.5047127"><ele>48.0</ele><time>2026-05-01T16:36:28.193Z</time></trkpt><trkpt lat="39.3665871" lon="9.5048725"><ele>46.333333333333336</ele><time>2026-05-01T16:36:29.193Z</time></trkpt><trkpt lat="39.3666721" lon="9.5050452"><ele>44.66666666666667</ele><time>2026-05-01T16:36:30.193Z</time></trkpt><trkpt lat="39.3667285" lon="9.5052235"><ele>43.0</ele><time>2026-05-01T16:36:31.192Z</time></trkpt><trkpt lat="39.3667619" lon="9.5054259"><ele>43.0</ele><time>2026-05-01T16:36:32.193Z</time></trkpt><trkpt lat="39.366781" lon="9.505648"><ele>43.0</ele><time>2026-05-01T16:36:33.192Z</time></trkpt><trkpt lat="39.3667966" lon="9.5059013"><ele>43.0</ele><time>2026-05-01T16:36:34.193Z</time></trkpt><trkpt lat="39.3668149" lon="9.5061765"><ele>43.0</ele><time>2026-05-01T16:36:35.192Z</time></trkpt><trkpt lat="39.366832" lon="9.5064569"><ele>43.0</ele><time>2026-05-01T16:36:36.193Z</time></trkpt><trkpt lat="39.3668478" lon="9.5067387"><ele>43.0</ele><time>2026-05-01T16:36:37.192Z</time></trkpt><trkpt lat="39.3668628" lon="9.5070244"><ele>43.0</ele><time>2026-05-01T16:36:38.192Z</time></trkpt><trkpt lat="39.3668778" lon="9.5073144"><ele>43.0</ele><time>2026-05-01T16:36:39.193Z</time></trkpt><trkpt lat="39.3668946" lon="9.5076081"><ele>43.0</ele><time>2026-05-01T16:36:40.193Z</time></trkpt><trkpt lat="39.3669114" lon="9.5079074"><ele>43.0</ele><time>2026-05-01T16:36:41.193Z</time></trkpt><trkpt lat="39.3669287" lon="9.5082123"><ele>42.5</ele><time>2026-05-01T16:36:42.192Z</time></trkpt><trkpt lat="39.3669464" lon="9.5085231"><ele>42.0</ele><time>2026-05-01T16:36:43.193Z</time></trkpt><trkpt lat="39.3669642" lon="9.5088403"><ele>42.0</ele><time>2026-05-01T16:36:44.193Z</time></trkpt><trkpt lat="39.3669826" lon="9.5091606"><ele>42.0</ele><time>2026-05-01T16:36:45.192Z</time></trkpt><trkpt lat="39.367002" lon="9.5094861"><ele>42.0</ele><time>2026-05-01T16:36:46.193Z</time></trkpt><trkpt lat="39.3670208" lon="9.5098176"><ele>42.0</ele><time>2026-05-01T16:36:47.193Z</time></trkpt><trkpt lat="39.3670383" lon="9.5101528"><ele>41.5</ele><time>2026-05-01T16:36:48.192Z</time></trkpt><trkpt lat="39.367055" lon="9.5104873"><ele>41.0</ele><time>2026-05-01T16:36:49.192Z</time></trkpt><trkpt lat="39.3670722" lon="9.5108184"><ele>41.0</ele><time>2026-05-01T16:36:50.192Z</time></trkpt><trkpt lat="39.3670902" lon="9.5111469"><ele>41.0</ele><time>2026-05-01T16:36:51.192Z</time></trkpt><trkpt lat="39.367108" lon="9.5114747"><ele>40.5</ele><time>2026-05-01T16:36:52.193Z</time></trkpt><trkpt lat="39.3671264" lon="9.5118005"><ele>40.0</ele><time>2026-05-01T16:36:53.192Z</time></trkpt><trkpt lat="39.3671446" lon="9.5121254"><ele>39.0</ele><time>2026-05-01T16:36:54.192Z</time></trkpt><trkpt lat="39.3671645" lon="9.5124486"><ele>38.0</ele><time>2026-05-01T16:36:55.192Z</time></trkpt><trkpt lat="39.3671836" lon="9.512772"><ele>38.0</ele><time>2026-05-01T16:36:56.193Z</time></trkpt><trkpt lat="39.3672024" lon="9.5130958"><ele>38.0</ele><time>2026-05-01T16:36:57.192Z</time></trkpt><trkpt lat="39.3672207" lon="9.5134193"><ele>36.0</ele><time>2026-05-01T16:36:58.193Z</time></trkpt><trkpt lat="39.3672384" lon="9.5137445"><ele>34.0</ele><time>2026-05-01T16:36:59.193Z</time></trkpt><trkpt lat="39.3672563" lon="9.5140711"><ele>34.0</ele><time>2026-05-01T16:37:00.193Z</time></trkpt><trkpt lat="39.3672753" lon="9.5143997"><ele>34.0</ele><time>2026-05-01T16:37:01.193Z</time></trkpt><trkpt lat="39.3672937" lon="9.5147283"><ele>33.5</ele><time>2026-05-01T16:37:02.192Z</time></trkpt><trkpt lat="39.367312" lon="9.515055"><ele>33.0</ele><time>2026-05-01T16:37:03.192Z</time></trkpt><trkpt lat="39.3673295" lon="9.5153795"><ele>34.0</ele><time>2026-05-01T16:37:04.192Z</time></trkpt><trkpt lat="39.3673472" lon="9.5156974"><ele>35.0</ele><time>2026-05-01T16:37:05.193Z</time></trkpt><trkpt lat="39.3673646" lon="9.5160078"><ele>35.5</ele><time>2026-05-01T16:37:06.193Z</time></trkpt><trkpt lat="39.3673833" lon="9.5163144"><ele>36.0</ele><time>2026-05-01T16:37:07.192Z</time></trkpt><trkpt lat="39.3674013" lon="9.5166221"><ele>36.0</ele><time>2026-05-01T16:37:08.192Z</time></trkpt><trkpt lat="39.3674182" lon="9.5169308"><ele>36.0</ele><time>2026-05-01T16:37:09.193Z</time></trkpt><trkpt lat="39.3674356" lon="9.5172407"><ele>36.0</ele><time>2026-05-01T16:37:10.193Z</time></trkpt><trkpt lat="39.3674521" lon="9.5175524"><ele>36.0</ele><time>2026-05-01T16:37:11.193Z</time></trkpt><trkpt lat="39.3674691" lon="9.5178673"><ele>35.5</ele><time>2026-05-01T16:37:12.193Z</time></trkpt><trkpt lat="39.3674869" lon="9.5181875"><ele>35.0</ele><time>2026-05-01T16:37:13.193Z</time></trkpt><trkpt lat="39.3675063" lon="9.5185135"><ele>35.0</ele><time>2026-05-01T16:37:14.193Z</time></trkpt><trkpt lat="39.3675245" lon="9.5188391"><ele>35.0</ele><time>2026-05-01T16:37:15.192Z</time></trkpt><trkpt lat="39.3675429" lon="9.5191648"><ele>35.0</ele><time>2026-05-01T16:37:16.193Z</time></trkpt><trkpt lat="39.3675617" lon="9.5194953"><ele>35.0</ele><time>2026-05-01T16:37:17.193Z</time></trkpt><trkpt lat="39.3675802" lon="9.519828"><ele>34.0</ele><time>2026-05-01T16:37:18.193Z</time></trkpt><trkpt lat="39.3675981" lon="9.5201616"><ele>33.0</ele><time>2026-05-01T16:37:19.193Z</time></trkpt><trkpt lat="39.3676157" lon="9.5204939"><ele>33.0</ele><time>2026-05-01T16:37:20.192Z</time></trkpt><trkpt lat="39.3676332" lon="9.5208273"><ele>33.0</ele><time>2026-05-01T16:37:21.192Z</time></trkpt><trkpt lat="39.3676518" lon="9.5211617"><ele>33.5</ele><time>2026-05-01T16:37:22.193Z</time></trkpt><trkpt lat="39.3676693" lon="9.5214963"><ele>34.0</ele><time>2026-05-01T16:37:23.192Z</time></trkpt><trkpt lat="39.3676867" lon="9.5218309"><ele>33.0</ele><time>2026-05-01T16:37:24.193Z</time></trkpt><trkpt lat="39.3677037" lon="9.5221687"><ele>32.0</ele><time>2026-05-01T16:37:25.193Z</time></trkpt><trkpt lat="39.3677228" lon="9.5225108"><ele>32.0</ele><time>2026-05-01T16:37:26.192Z</time></trkpt><trkpt lat="39.3677432" lon="9.5228561"><ele>32.0</ele><time>2026-05-01T16:37:27.193Z</time></trkpt><trkpt lat="39.3677622" lon="9.5232029"><ele>31.0</ele><time>2026-05-01T16:37:28.192Z</time></trkpt><trkpt lat="39.367783" lon="9.5235533"><ele>30.0</ele><time>2026-05-01T16:37:29.193Z</time></trkpt><trkpt lat="39.3678038" lon="9.5239022"><ele>30.0</ele><time>2026-05-01T16:37:30.193Z</time></trkpt><trkpt lat="39.3678241" lon="9.5242491"><ele>30.0</ele><time>2026-05-01T16:37:31.193Z</time></trkpt><trkpt lat="39.3678431" lon="9.5245939"><ele>30.0</ele><time>2026-05-01T16:37:32.192Z</time></trkpt><trkpt lat="39.3678612" lon="9.5249381"><ele>30.0</ele><time>2026-05-01T16:37:33.192Z</time></trkpt><trkpt lat="39.3678788" lon="9.5252809"><ele>30.5</ele><time>2026-05-01T16:37:34.192Z</time></trkpt><trkpt lat="39.3678983" lon="9.5256245"><ele>31.0</ele><time>2026-05-01T16:37:35.192Z</time></trkpt><trkpt lat="39.3679188" lon="9.5259696"><ele>30.5</ele><time>2026-05-01T16:37:36.192Z</time></trkpt><trkpt lat="39.367939" lon="9.5263137"><ele>30.0</ele><time>2026-05-01T16:37:37.192Z</time></trkpt><trkpt lat="39.3679598" lon="9.5266605"><ele>30.0</ele><time>2026-05-01T16:37:38.193Z</time></trkpt><trkpt lat="39.3679786" lon="9.5270083"><ele>30.0</ele><time>2026-05-01T16:37:39.193Z</time></trkpt><trkpt lat="39.3679957" lon="9.5273576"><ele>29.5</ele><time>2026-05-01T16:37:40.193Z</time></trkpt><trkpt lat="39.3680132" lon="9.5277086"><ele>29.0</ele><time>2026-05-01T16:37:41.192Z</time></trkpt><trkpt lat="39.3680313" lon="9.5280619"><ele>30.0</ele><time>2026-05-01T16:37:42.193Z</time></trkpt><trkpt lat="39.368051" lon="9.5284124"><ele>31.0</ele><time>2026-05-01T16:37:43.192Z</time></trkpt><trkpt lat="39.3680717" lon="9.528759"><ele>31.0</ele><time>2026-05-01T16:37:44.193Z</time></trkpt><trkpt lat="39.3680916" lon="9.5290978"><ele>31.0</ele><time>2026-05-01T16:37:45.193Z</time></trkpt><trkpt lat="39.3681095" lon="9.5294212"><ele>30.5</ele><time>2026-05-01T16:37:46.193Z</time></trkpt><trkpt lat="39.3681276" lon="9.5297446"><ele>30.0</ele><time>2026-05-01T16:37:47.192Z</time></trkpt><trkpt lat="39.3681466" lon="9.5300649"><ele>30.0</ele><time>2026-05-01T16:37:48.192Z</time></trkpt><trkpt lat="39.3681653" lon="9.5303845"><ele>30.0</ele><time>2026-05-01T16:37:49.193Z</time></trkpt><trkpt lat="39.3681831" lon="9.5307037"><ele>29.0</ele><time>2026-05-01T16:37:50.193Z</time></trkpt><trkpt lat="39.3681991" lon="9.5310231"><ele>28.0</ele><time>2026-05-01T16:37:51.193Z</time></trkpt><trkpt lat="39.3682142" lon="9.5313414"><ele>26.5</ele><time>2026-05-01T16:37:52.193Z</time></trkpt><trkpt lat="39.3682318" lon="9.5316614"><ele>25.0</ele><time>2026-05-01T16:37:53.192Z</time></trkpt><trkpt lat="39.3682507" lon="9.5319777"><ele>24.0</ele><time>2026-05-01T16:37:54.193Z</time></trkpt><trkpt lat="39.3682681" lon="9.5322785"><ele>23.0</ele><time>2026-05-01T16:37:55.192Z</time></trkpt><trkpt lat="39.3682853" lon="9.5325791"><ele>23.0</ele><time>2026-05-01T16:37:56.192Z</time></trkpt><trkpt lat="39.3683006" lon="9.5328794"><ele>23.0</ele><time>2026-05-01T16:37:57.193Z</time></trkpt><trkpt lat="39.3683153" lon="9.5331783"><ele>24.5</ele><time>2026-05-01T16:37:58.192Z</time></trkpt><trkpt lat="39.3683307" lon="9.533483"><ele>26.0</ele><time>2026-05-01T16:37:59.193Z</time></trkpt><trkpt lat="39.3683461" lon="9.5337908"><ele>27.0</ele><time>2026-05-01T16:38:00.193Z</time></trkpt><trkpt lat="39.3683587" lon="9.534094"><ele>28.0</ele><time>2026-05-01T16:38:01.193Z</time></trkpt><trkpt lat="39.3683667" lon="9.5343962"><ele>29.0</ele><time>2026-05-01T16:38:02.193Z</time></trkpt><trkpt lat="39.3683701" lon="9.5347014"><ele>30.0</ele><time>2026-05-01T16:38:03.193Z</time></trkpt><trkpt lat="39.3683715" lon="9.5350109"><ele>30.0</ele><time>2026-05-01T16:38:04.193Z</time></trkpt><trkpt lat="39.3683727" lon="9.5353201"><ele>30.0</ele><time>2026-05-01T16:38:05.192Z</time></trkpt><trkpt lat="39.3683745" lon="9.535633"><ele>30.0</ele><time>2026-05-01T16:38:06.193Z</time></trkpt><trkpt lat="39.3683765" lon="9.535937"><ele>30.0</ele><time>2026-05-01T16:38:07.193Z</time></trkpt><trkpt lat="39.3683768" lon="9.5362424"><ele>30.0</ele><time>2026-05-01T16:38:08.193Z</time></trkpt><trkpt lat="39.3683776" lon="9.5365375"><ele>30.0</ele><time>2026-05-01T16:38:09.193Z</time></trkpt><trkpt lat="39.3683812" lon="9.5368097"><ele>30.0</ele><time>2026-05-01T16:38:10.192Z</time></trkpt><trkpt lat="39.3683841" lon="9.5370608"><ele>30.0</ele><time>2026-05-01T16:38:11.192Z</time></trkpt><trkpt lat="39.3683878" lon="9.5372909"><ele>30.0</ele><time>2026-05-01T16:38:12.193Z</time></trkpt><trkpt lat="39.3683929" lon="9.5374945"><ele>30.0</ele><time>2026-05-01T16:38:13.193Z</time></trkpt><trkpt lat="39.3683979" lon="9.5376755"><ele>30.0</ele><time>2026-05-01T16:38:14.192Z</time></trkpt><trkpt lat="39.3684039" lon="9.5378329"><ele>30.0</ele><time>2026-05-01T16:38:15.193Z</time></trkpt><trkpt lat="39.3684081" lon="9.5379765"><ele>30.0</ele><time>2026-05-01T16:38:16.192Z</time></trkpt><trkpt lat="39.368413" lon="9.5381265"><ele>30.0</ele><time>2026-05-01T16:38:17.192Z</time></trkpt><trkpt lat="39.3684086" lon="9.5382764"><ele>30.0</ele><time>2026-05-01T16:38:18.192Z</time></trkpt><trkpt lat="39.368407" lon="9.5384324"><ele>30.0</ele><time>2026-05-01T16:38:19.192Z</time></trkpt><trkpt lat="39.3684052" lon="9.5385916"><ele>30.0</ele><time>2026-05-01T16:38:20.192Z</time></trkpt><trkpt lat="39.3684045" lon="9.538755"><ele>30.0</ele><time>2026-05-01T16:38:21.193Z</time></trkpt><trkpt lat="39.3684044" lon="9.538916"><ele>30.0</ele><time>2026-05-01T16:38:22.193Z</time></trkpt><trkpt lat="39.3684053" lon="9.5390644"><ele>30.0</ele><time>2026-05-01T16:38:23.193Z</time></trkpt><trkpt lat="39.3684038" lon="9.5391992"><ele>30.0</ele><time>2026-05-01T16:38:24.192Z</time></trkpt><trkpt lat="39.368404" lon="9.539319"><ele>30.0</ele><time>2026-05-01T16:38:25.193Z</time></trkpt><trkpt lat="39.3684099" lon="9.5394178"><ele>30.0</ele><time>2026-05-01T16:38:26.192Z</time></trkpt><trkpt lat="39.3684264" lon="9.5394976"><ele>29.2</ele><time>2026-05-01T16:38:27.193Z</time></trkpt><trkpt lat="39.3684738" lon="9.5396055"><ele>28.4</ele><time>2026-05-01T16:38:29.193Z</time></trkpt><trkpt lat="39.3685248" lon="9.5396675"><ele>27.6</ele><time>2026-05-01T16:40:11.192Z</time></trkpt><trkpt lat="39.3686199" lon="9.5397158"><ele>26.8</ele><time>2026-05-01T16:40:13.192Z</time></trkpt><trkpt lat="39.3687367" lon="9.5397271"><ele>26.0</ele><time>2026-05-01T16:40:15.192Z</time></trkpt><trkpt lat="39.3688348" lon="9.5396964"><ele>25.666666666666664</ele><time>2026-05-01T16:40:17.193Z</time></trkpt><trkpt lat="39.3689251" lon="9.5396767"><ele>25.333333333333332</ele><time>2026-05-01T16:40:19.193Z</time></trkpt><trkpt lat="39.3690178" lon="9.5396347"><ele>25.0</ele><time>2026-05-01T16:40:21.192Z</time></trkpt><trkpt lat="39.3690743" lon="9.5395978"><ele>24.666666666666664</ele><time>2026-05-01T16:40:22.193Z</time></trkpt><trkpt lat="39.3691407" lon="9.5395475"><ele>24.333333333333332</ele><time>2026-05-01T16:40:23.193Z</time></trkpt><trkpt lat="39.3692101" lon="9.5394879"><ele>24.0</ele><time>2026-05-01T16:40:24.193Z</time></trkpt><trkpt lat="39.369274" lon="9.5394076"><ele>25.2</ele><time>2026-05-01T16:40:25.193Z</time></trkpt><trkpt lat="39.3693241" lon="9.5393055"><ele>26.4</ele><time>2026-05-01T16:40:26.193Z</time></trkpt><trkpt lat="39.3693648" lon="9.5391892"><ele>27.6</ele><time>2026-05-01T16:40:27.192Z</time></trkpt><trkpt lat="39.3693888" lon="9.539054"><ele>28.8</ele><time>2026-05-01T16:40:28.193Z</time></trkpt><trkpt lat="39.3693974" lon="9.5389081"><ele>30.0</ele><time>2026-05-01T16:40:29.192Z</time></trkpt><trkpt lat="39.3694019" lon="9.5387623"><ele>30.2</ele><time>2026-05-01T16:40:30.192Z</time></trkpt><trkpt lat="39.369407" lon="9.5386248"><ele>30.4</ele><time>2026-05-01T16:40:31.192Z</time></trkpt><trkpt lat="39.3694239" lon="9.5384924"><ele>30.6</ele><time>2026-05-01T16:40:32.192Z</time></trkpt><trkpt lat="39.369458" lon="9.5383594"><ele>30.8</ele><time>2026-05-01T16:40:33.193Z</time></trkpt><trkpt lat="39.3695133" lon="9.5382324"><ele>31.0</ele><time>2026-05-01T16:40:34.192Z</time></trkpt><trkpt lat="39.3695894" lon="9.5381145"><ele>31.0</ele><time>2026-05-01T16:40:35.193Z</time></trkpt><trkpt lat="39.3696843" lon="9.5380116"><ele>31.0</ele><time>2026-05-01T16:40:36.192Z</time></trkpt><trkpt lat="39.3697959" lon="9.5379351"><ele>31.0</ele><time>2026-05-01T16:40:37.192Z</time></trkpt><trkpt lat="39.3699241" lon="9.5378806"><ele>31.0</ele><time>2026-05-01T16:40:38.193Z</time></trkpt><trkpt lat="39.3700713" lon="9.5378379"><ele>32.333333333333336</ele><time>2026-05-01T16:40:39.193Z</time></trkpt><trkpt lat="39.3702389" lon="9.5377968"><ele>33.666666666666664</ele><time>2026-05-01T16:40:40.192Z</time></trkpt><trkpt lat="39.3704224" lon="9.5377528"><ele>35.0</ele><time>2026-05-01T16:40:41.193Z</time></trkpt><trkpt lat="39.3706172" lon="9.5377054"><ele>35.33333333333333</ele><time>2026-05-01T16:40:42.193Z</time></trkpt><trkpt lat="39.3708222" lon="9.537657"><ele>35.666666666666664</ele><time>2026-05-01T16:40:43.192Z</time></trkpt><trkpt lat="39.3710354" lon="9.537609"><ele>36.0</ele><time>2026-05-01T16:40:44.193Z</time></trkpt><trkpt lat="39.3712529" lon="9.5375624"><ele>37.0</ele><time>2026-05-01T16:40:45.193Z</time></trkpt><trkpt lat="39.3714776" lon="9.5375157"><ele>38.0</ele><time>2026-05-01T16:40:46.193Z</time></trkpt><trkpt lat="39.3717069" lon="9.5374704"><ele>38.0</ele><time>2026-05-01T16:40:47.193Z</time></trkpt><trkpt lat="39.3719361" lon="9.537426"><ele>38.0</ele><time>2026-05-01T16:40:48.193Z</time></trkpt><trkpt lat="39.3721694" lon="9.5373838"><ele>39.5</ele><time>2026-05-01T16:40:49.192Z</time></trkpt><trkpt lat="39.3724095" lon="9.5373412"><ele>41.0</ele><time>2026-05-01T16:40:50.192Z</time></trkpt><trkpt lat="39.3726425" lon="9.5372961"><ele>41.0</ele><time>2026-05-01T16:40:51.193Z</time></trkpt><trkpt lat="39.3728806" lon="9.5372482"><ele>41.0</ele><time>2026-05-01T16:40:52.192Z</time></trkpt><trkpt lat="39.3731131" lon="9.5372033"><ele>41.0</ele><time>2026-05-01T16:40:53.193Z</time></trkpt><trkpt lat="39.3733434" lon="9.5371601"><ele>41.0</ele><time>2026-05-01T16:40:54.193Z</time></trkpt><trkpt lat="39.3735638" lon="9.5371183"><ele>41.0</ele><time>2026-05-01T16:40:55.193Z</time></trkpt><trkpt lat="39.3737711" lon="9.5370793"><ele>41.0</ele><time>2026-05-01T16:40:56.192Z</time></trkpt><trkpt lat="39.3739696" lon="9.5370435"><ele>41.0</ele><time>2026-05-01T16:40:57.192Z</time></trkpt><trkpt lat="39.3741664" lon="9.5370068"><ele>41.666666666666664</ele><time>2026-05-01T16:40:58.192Z</time></trkpt><trkpt lat="39.3743617" lon="9.5369701"><ele>42.333333333333336</ele><time>2026-05-01T16:40:59.192Z</time></trkpt><trkpt lat="39.3745559" lon="9.5369344"><ele>43.0</ele><time>2026-05-01T16:41:00.193Z</time></trkpt><trkpt lat="39.3747529" lon="9.5368968"><ele>43.66666666666667</ele><time>2026-05-01T16:41:01.193Z</time></trkpt><trkpt lat="39.3749576" lon="9.5368577"><ele>44.333333333333336</ele><time>2026-05-01T16:41:02.193Z</time></trkpt><trkpt lat="39.3751721" lon="9.5368189"><ele>45.0</ele><time>2026-05-01T16:41:03.193Z</time></trkpt><trkpt lat="39.3753936" lon="9.5367794"><ele>46.5</ele><time>2026-05-01T16:41:04.192Z</time></trkpt><trkpt lat="39.37562" lon="9.5367365"><ele>48.0</ele><time>2026-05-01T16:41:05.193Z</time></trkpt><trkpt lat="39.3758549" lon="9.5366911"><ele>48.0</ele><time>2026-05-01T16:41:06.192Z</time></trkpt><trkpt lat="39.3760941" lon="9.5366457"><ele>48.0</ele><time>2026-05-01T16:41:07.193Z</time></trkpt><trkpt lat="39.3763355" lon="9.5365985"><ele>49.0</ele><time>2026-05-01T16:41:08.192Z</time></trkpt><trkpt lat="39.3765798" lon="9.5365534"><ele>50.0</ele><time>2026-05-01T16:41:09.192Z</time></trkpt><trkpt lat="39.3768246" lon="9.5365122"><ele>50.0</ele><time>2026-05-01T16:41:10.193Z</time></trkpt><trkpt lat="39.3770725" lon="9.5364686"><ele>50.0</ele><time>2026-05-01T16:41:11.192Z</time></trkpt><trkpt lat="39.3773211" lon="9.5364239"><ele>50.0</ele><time>2026-05-01T16:41:12.193Z</time></trkpt><trkpt lat="39.3775723" lon="9.536378"><ele>50.0</ele><time>2026-05-01T16:41:13.192Z</time></trkpt><trkpt lat="39.3778273" lon="9.5363327"><ele>52.0</ele><time>2026-05-01T16:41:14.192Z</time></trkpt><trkpt lat="39.3780879" lon="9.5362889"><ele>54.0</ele><time>2026-05-01T16:41:15.192Z</time></trkpt><trkpt lat="39.3783538" lon="9.5362454"><ele>54.0</ele><time>2026-05-01T16:41:16.193Z</time></trkpt><trkpt lat="39.3786213" lon="9.5362045"><ele>54.0</ele><time>2026-05-01T16:41:17.192Z</time></trkpt><trkpt lat="39.3788939" lon="9.5361658"><ele>55.5</ele><time>2026-05-01T16:41:18.192Z</time></trkpt><trkpt lat="39.3791699" lon="9.5361292"><ele>57.0</ele><time>2026-05-01T16:41:19.192Z</time></trkpt><trkpt lat="39.3794488" lon="9.5360993"><ele>58.5</ele><time>2026-05-01T16:41:20.193Z</time></trkpt><trkpt lat="39.3797292" lon="9.5360751"><ele>60.0</ele><time>2026-05-01T16:41:21.193Z</time></trkpt><trkpt lat="39.3800067" lon="9.5360576"><ele>60.0</ele><time>2026-05-01T16:41:22.192Z</time></trkpt><trkpt lat="39.3802822" lon="9.536047"><ele>60.0</ele><time>2026-05-01T16:41:23.192Z</time></trkpt><trkpt lat="39.3805565" lon="9.5360446"><ele>63.5</ele><time>2026-05-01T16:41:24.193Z</time></trkpt><trkpt lat="39.3808268" lon="9.5360499"><ele>67.0</ele><time>2026-05-01T16:41:25.193Z</time></trkpt><trkpt lat="39.3810938" lon="9.5360642"><ele>69.5</ele><time>2026-05-01T16:41:26.193Z</time></trkpt><trkpt lat="39.3813584" lon="9.5360839"><ele>72.0</ele><time>2026-05-01T16:41:27.192Z</time></trkpt><trkpt lat="39.381622" lon="9.5361131"><ele>72.0</ele><time>2026-05-01T16:41:28.192Z</time></trkpt><trkpt lat="39.3818822" lon="9.5361537"><ele>72.0</ele><time>2026-05-01T16:41:29.192Z</time></trkpt><trkpt lat="39.3821421" lon="9.5362039"><ele>72.5</ele><time>2026-05-01T16:41:30.192Z</time></trkpt><trkpt lat="39.3824018" lon="9.5362588"><ele>73.0</ele><time>2026-05-01T16:41:31.192Z</time></trkpt><trkpt lat="39.3826596" lon="9.536323"><ele>73.0</ele><time>2026-05-01T16:41:32.192Z</time></trkpt><trkpt lat="39.382918" lon="9.5363938"><ele>73.0</ele><time>2026-05-01T16:41:33.193Z</time></trkpt><trkpt lat="39.3831753" lon="9.5364744"><ele>74.5</ele><time>2026-05-01T16:41:34.193Z</time></trkpt><trkpt lat="39.3834331" lon="9.5365646"><ele>76.0</ele><time>2026-05-01T16:41:35.192Z</time></trkpt><trkpt lat="39.3836923" lon="9.536664"><ele>79.0</ele><time>2026-05-01T16:41:36.192Z</time></trkpt><trkpt lat="39.3839496" lon="9.5367731"><ele>82.0</ele><time>2026-05-01T16:41:37.193Z</time></trkpt><trkpt lat="39.3842052" lon="9.5368906"><ele>82.0</ele><time>2026-05-01T16:41:38.193Z</time></trkpt><trkpt lat="39.3844601" lon="9.537017"><ele>82.0</ele><time>2026-05-01T16:41:39.193Z</time></trkpt><trkpt lat="39.384712" lon="9.5371496"><ele>82.5</ele><time>2026-05-01T16:41:40.193Z</time></trkpt><trkpt lat="39.3849632" lon="9.5372924"><ele>83.0</ele><time>2026-05-01T16:41:41.193Z</time></trkpt><trkpt lat="39.3852098" lon="9.5374475"><ele>83.0</ele><time>2026-05-01T16:41:42.192Z</time></trkpt><trkpt lat="39.3854544" lon="9.5376095"><ele>83.0</ele><time>2026-05-01T16:41:43.193Z</time></trkpt><trkpt lat="39.3856989" lon="9.53778"><ele>79.5</ele><time>2026-05-01T16:41:44.192Z</time></trkpt><trkpt lat="39.3859407" lon="9.5379586"><ele>76.0</ele><time>2026-05-01T16:41:45.193Z</time></trkpt><trkpt lat="39.3861801" lon="9.5381427"><ele>79.0</ele><time>2026-05-01T16:41:46.192Z</time></trkpt><trkpt lat="39.3864185" lon="9.5383328"><ele>82.0</ele><time>2026-05-01T16:41:47.192Z</time></trkpt><trkpt lat="39.3866555" lon="9.5385317"><ele>80.5</ele><time>2026-05-01T16:41:48.193Z</time></trkpt><trkpt lat="39.3868903" lon="9.5387339"><ele>79.0</ele><time>2026-05-01T16:41:49.192Z</time></trkpt><trkpt lat="39.3871236" lon="9.5389436"><ele>84.0</ele><time>2026-05-01T16:41:50.193Z</time></trkpt><trkpt lat="39.3873556" lon="9.5391551"><ele>89.0</ele><time>2026-05-01T16:41:51.193Z</time></trkpt><trkpt lat="39.3875888" lon="9.5393705"><ele>89.5</ele><time>2026-05-01T16:41:52.193Z</time></trkpt><trkpt lat="39.3878235" lon="9.5395878"><ele>90.0</ele><time>2026-05-01T16:41:53.193Z</time></trkpt><trkpt lat="39.3880573" lon="9.5398063"><ele>90.0</ele><time>2026-05-01T16:41:54.192Z</time></trkpt><trkpt lat="39.3882876" lon="9.5400259"><ele>90.0</ele><time>2026-05-01T16:41:55.193Z</time></trkpt><trkpt lat="39.3885172" lon="9.5402466"><ele>91.5</ele><time>2026-05-01T16:41:56.193Z</time></trkpt><trkpt lat="39.3887485" lon="9.5404697"><ele>93.0</ele><time>2026-05-01T16:41:57.192Z</time></trkpt><trkpt lat="39.3889833" lon="9.5406906"><ele>95.0</ele><time>2026-05-01T16:41:58.192Z</time></trkpt><trkpt lat="39.389218" lon="9.5409111"><ele>97.0</ele><time>2026-05-01T16:41:59.192Z</time></trkpt><trkpt lat="39.389452" lon="9.541132"><ele>105.0</ele><time>2026-05-01T16:42:00.192Z</time></trkpt><trkpt lat="39.3896828" lon="9.5413533"><ele>113.0</ele><time>2026-05-01T16:42:01.193Z</time></trkpt><trkpt lat="39.3899123" lon="9.541574"><ele>113.0</ele><time>2026-05-01T16:42:02.193Z</time></trkpt><trkpt lat="39.3901389" lon="9.5417908"><ele>113.0</ele><time>2026-05-01T16:42:03.193Z</time></trkpt><trkpt lat="39.3903516" lon="9.5419952"><ele>112.5</ele><time>2026-05-01T16:42:04.193Z</time></trkpt><trkpt lat="39.3905514" lon="9.5421868"><ele>112.0</ele><time>2026-05-01T16:42:05.193Z</time></trkpt><trkpt lat="39.3907412" lon="9.5423676"><ele>112.0</ele><time>2026-05-01T16:42:06.193Z</time></trkpt><trkpt lat="39.3909276" lon="9.5425474"><ele>112.0</ele><time>2026-05-01T16:42:07.193Z</time></trkpt><trkpt lat="39.391114" lon="9.5427259"><ele>118.0</ele><time>2026-05-01T16:42:08.192Z</time></trkpt><trkpt lat="39.3912999" lon="9.5429039"><ele>124.0</ele><time>2026-05-01T16:42:09.193Z</time></trkpt><trkpt lat="39.4050156" lon="9.5560701"><ele>105.0</ele><time>2026-05-01T16:43:14.192Z</time></trkpt><trkpt lat="39.4052405" lon="9.5562685"><ele>86.0</ele><time>2026-05-01T16:43:15.193Z</time></trkpt><trkpt lat="39.4054605" lon="9.5564819"><ele>80.5</ele><time>2026-05-01T16:43:16.192Z</time></trkpt><trkpt lat="39.4056842" lon="9.5566801"><ele>75.0</ele><time>2026-05-01T16:43:17.193Z</time></trkpt><trkpt lat="39.4058894" lon="9.556871"><ele>73.0</ele><time>2026-05-01T16:43:18.192Z</time></trkpt><trkpt lat="39.4060967" lon="9.5570609"><ele>71.0</ele><time>2026-05-01T16:43:19.193Z</time></trkpt><trkpt lat="39.4063135" lon="9.5572501"><ele>70.5</ele><time>2026-05-01T16:43:20.192Z</time></trkpt><trkpt lat="39.4065377" lon="9.557443"><ele>70.0</ele><time>2026-05-01T16:43:21.193Z</time></trkpt><trkpt lat="39.4067644" lon="9.5576306"><ele>70.0</ele><time>2026-05-01T16:43:22.193Z</time></trkpt><trkpt lat="39.4069898" lon="9.5578038"><ele>70.0</ele><time>2026-05-01T16:43:23.192Z</time></trkpt><trkpt lat="39.4072146" lon="9.5579675"><ele>65.5</ele><time>2026-05-01T16:43:24.192Z</time></trkpt><trkpt lat="39.4074441" lon="9.5581192"><ele>61.0</ele><time>2026-05-01T16:43:25.192Z</time></trkpt><trkpt lat="39.407674" lon="9.5582611"><ele>61.0</ele><time>2026-05-01T16:43:26.193Z</time></trkpt><trkpt lat="39.4079064" lon="9.5583952"><ele>61.0</ele><time>2026-05-01T16:43:27.193Z</time></trkpt><trkpt lat="39.4081437" lon="9.5585217"><ele>58.0</ele><time>2026-05-01T16:43:28.192Z</time></trkpt><trkpt lat="39.408389" lon="9.5586342"><ele>55.0</ele><time>2026-05-01T16:43:29.192Z</time></trkpt><trkpt lat="39.4086328" lon="9.5587341"><ele>58.0</ele><time>2026-05-01T16:43:30.192Z</time></trkpt><trkpt lat="39.4088771" lon="9.5588217"><ele>61.0</ele><time>2026-05-01T16:43:31.192Z</time></trkpt><trkpt lat="39.4091227" lon="9.5588977"><ele>61.0</ele><time>2026-05-01T16:43:32.192Z</time></trkpt><trkpt lat="39.4093677" lon="9.5589656"><ele>61.0</ele><time>2026-05-01T16:43:33.192Z</time></trkpt><trkpt lat="39.4096181" lon="9.5590173"><ele>61.5</ele><time>2026-05-01T16:43:34.193Z</time></trkpt><trkpt lat="39.4098706" lon="9.5590566"><ele>62.0</ele><time>2026-05-01T16:43:35.192Z</time></trkpt><trkpt lat="39.4101298" lon="9.5590814"><ele>62.0</ele><time>2026-05-01T16:43:36.192Z</time></trkpt><trkpt lat="39.4103895" lon="9.5590953"><ele>62.0</ele><time>2026-05-01T16:43:37.192Z</time></trkpt><trkpt lat="39.4106485" lon="9.5590981"><ele>60.0</ele><time>2026-05-01T16:43:38.193Z</time></trkpt><trkpt lat="39.4109122" lon="9.5590918"><ele>58.0</ele><time>2026-05-01T16:43:39.193Z</time></trkpt><trkpt lat="39.4111743" lon="9.5590736"><ele>55.5</ele><time>2026-05-01T16:43:40.193Z</time></trkpt><trkpt lat="39.4114368" lon="9.5590378"><ele>53.0</ele><time>2026-05-01T16:43:41.193Z</time></trkpt><trkpt lat="39.4117022" lon="9.558988"><ele>53.0</ele><time>2026-05-01T16:43:42.193Z</time></trkpt><trkpt lat="39.4119662" lon="9.5589287"><ele>53.0</ele><time>2026-05-01T16:43:43.192Z</time></trkpt><trkpt lat="39.4122333" lon="9.5588587"><ele>54.0</ele><time>2026-05-01T16:43:44.192Z</time></trkpt><trkpt lat="39.4125004" lon="9.5587737"><ele>55.0</ele><time>2026-05-01T16:43:45.193Z</time></trkpt><trkpt lat="39.4127665" lon="9.5586785"><ele>53.0</ele><time>2026-05-01T16:43:46.192Z</time></trkpt><trkpt lat="39.4130323" lon="9.5585754"><ele>51.0</ele><time>2026-05-01T16:43:47.192Z</time></trkpt><trkpt lat="39.4132985" lon="9.5584675"><ele>51.0</ele><time>2026-05-01T16:43:48.192Z</time></trkpt><trkpt lat="39.4135644" lon="9.558354"><ele>51.0</ele><time>2026-05-01T16:43:49.193Z</time></trkpt><trkpt lat="39.4138311" lon="9.5582339"><ele>51.0</ele><time>2026-05-01T16:43:50.193Z</time></trkpt><trkpt lat="39.4140995" lon="9.5581117"><ele>51.0</ele><time>2026-05-01T16:43:51.193Z</time></trkpt><trkpt lat="39.4143691" lon="9.5579932"><ele>51.0</ele><time>2026-05-01T16:43:52.193Z</time></trkpt><trkpt lat="39.4146381" lon="9.5578714"><ele>51.0</ele><time>2026-05-01T16:43:53.192Z</time></trkpt><trkpt lat="39.4149089" lon="9.5577456"><ele>52.0</ele><time>2026-05-01T16:43:54.192Z</time></trkpt><trkpt lat="39.4151768" lon="9.5576213"><ele>53.0</ele><time>2026-05-01T16:43:55.193Z</time></trkpt><trkpt lat="39.415444" lon="9.5574996"><ele>50.0</ele><time>2026-05-01T16:43:56.193Z</time></trkpt><trkpt lat="39.4157104" lon="9.5573868"><ele>47.0</ele><time>2026-05-01T16:43:57.193Z</time></trkpt><trkpt lat="39.4159775" lon="9.557282"><ele>47.0</ele><time>2026-05-01T16:43:58.192Z</time></trkpt><trkpt lat="39.4162455" lon="9.5571905"><ele>47.0</ele><time>2026-05-01T16:43:59.192Z</time></trkpt><trkpt lat="39.4165145" lon="9.5571102"><ele>44.5</ele><time>2026-05-01T16:44:00.192Z</time></trkpt><trkpt lat="39.4167784" lon="9.5570443"><ele>42.0</ele><time>2026-05-01T16:44:01.193Z</time></trkpt><trkpt lat="39.4170332" lon="9.5569951"><ele>42.0</ele><time>2026-05-01T16:44:02.193Z</time></trkpt><trkpt lat="39.4172812" lon="9.5569625"><ele>42.0</ele><time>2026-05-01T16:44:03.193Z</time></trkpt><trkpt lat="39.41753" lon="9.5569433"><ele>42.0</ele><time>2026-05-01T16:44:04.193Z</time></trkpt><trkpt lat="39.4177798" lon="9.5569366"><ele>42.0</ele><time>2026-05-01T16:44:05.193Z</time></trkpt><trkpt lat="39.4180271" lon="9.5569428"><ele>40.5</ele><time>2026-05-01T16:44:06.192Z</time></trkpt><trkpt lat="39.4182694" lon="9.5569608"><ele>39.0</ele><time>2026-05-01T16:44:07.193Z</time></trkpt><trkpt lat="39.4185059" lon="9.5569899"><ele>39.0</ele><time>2026-05-01T16:44:08.192Z</time></trkpt><trkpt lat="39.4187384" lon="9.5570282"><ele>39.0</ele><time>2026-05-01T16:44:09.192Z</time></trkpt><trkpt lat="39.4189672" lon="9.5570756"><ele>35.5</ele><time>2026-05-01T16:44:10.192Z</time></trkpt><trkpt lat="39.4191925" lon="9.5571342"><ele>32.0</ele><time>2026-05-01T16:44:11.192Z</time></trkpt><trkpt lat="39.4194142" lon="9.557202"><ele>32.0</ele><time>2026-05-01T16:44:12.193Z</time></trkpt><trkpt lat="39.4196338" lon="9.5572753"><ele>32.0</ele><time>2026-05-01T16:44:13.193Z</time></trkpt><trkpt lat="39.4198507" lon="9.5573554"><ele>31.666666666666664</ele><time>2026-05-01T16:44:14.192Z</time></trkpt><trkpt lat="39.4200653" lon="9.5574402"><ele>31.333333333333336</ele><time>2026-05-01T16:44:15.193Z</time></trkpt><trkpt lat="39.4202796" lon="9.5575273"><ele>31.0</ele><time>2026-05-01T16:44:16.192Z</time></trkpt><trkpt lat="39.4204939" lon="9.557617"><ele>32.5</ele><time>2026-05-01T16:44:17.193Z</time></trkpt><trkpt lat="39.4207085" lon="9.5577072"><ele>34.0</ele><time>2026-05-01T16:44:18.193Z</time></trkpt><trkpt lat="39.4209247" lon="9.5577996"><ele>30.0</ele><time>2026-05-01T16:44:19.192Z</time></trkpt><trkpt lat="39.4211421" lon="9.5578938"><ele>26.0</ele><time>2026-05-01T16:44:20.192Z</time></trkpt><trkpt lat="39.4213605" lon="9.5579886"><ele>26.0</ele><time>2026-05-01T16:44:21.193Z</time></trkpt><trkpt lat="39.4215776" lon="9.5580816"><ele>26.0</ele><time>2026-05-01T16:44:22.193Z</time></trkpt><trkpt lat="39.4217938" lon="9.5581742"><ele>26.0</ele><time>2026-05-01T16:44:23.192Z</time></trkpt><trkpt lat="39.4220113" lon="9.5582674"><ele>26.0</ele><time>2026-05-01T16:44:24.193Z</time></trkpt><trkpt lat="39.4222307" lon="9.5583623"><ele>27.5</ele><time>2026-05-01T16:44:25.192Z</time></trkpt><trkpt lat="39.4224504" lon="9.5584555"><ele>29.0</ele><time>2026-05-01T16:44:26.192Z</time></trkpt><trkpt lat="39.4226753" lon="9.5585461"><ele>29.0</ele><time>2026-05-01T16:44:27.193Z</time></trkpt><trkpt lat="39.4229024" lon="9.5586376"><ele>29.0</ele><time>2026-05-01T16:44:28.193Z</time></trkpt><trkpt lat="39.4231295" lon="9.5587323"><ele>26.5</ele><time>2026-05-01T16:44:29.193Z</time></trkpt><trkpt lat="39.4233558" lon="9.5588257"><ele>24.0</ele><time>2026-05-01T16:44:30.192Z</time></trkpt><trkpt lat="39.4235849" lon="9.5589156"><ele>25.5</ele><time>2026-05-01T16:44:31.192Z</time></trkpt><trkpt lat="39.423818" lon="9.5589995"><ele>27.0</ele><time>2026-05-01T16:44:32.192Z</time></trkpt><trkpt lat="39.4240513" lon="9.5590775"><ele>27.0</ele><time>2026-05-01T16:44:33.193Z</time></trkpt><trkpt lat="39.4242878" lon="9.5591489"><ele>27.0</ele><time>2026-05-01T16:44:34.193Z</time></trkpt><trkpt lat="39.4245262" lon="9.5592153"><ele>28.0</ele><time>2026-05-01T16:44:35.192Z</time></trkpt><trkpt lat="39.4247673" lon="9.5592781"><ele>29.0</ele><time>2026-05-01T16:44:36.192Z</time></trkpt><trkpt lat="39.4250093" lon="9.5593384"><ele>29.0</ele><time>2026-05-01T16:44:37.192Z</time></trkpt><trkpt lat="39.4252532" lon="9.5593927"><ele>29.0</ele><time>2026-05-01T16:44:38.192Z</time></trkpt><trkpt lat="39.4255004" lon="9.5594377"><ele>25.0</ele><time>2026-05-01T16:44:39.193Z</time></trkpt><trkpt lat="39.4257512" lon="9.5594712"><ele>21.0</ele><time>2026-05-01T16:44:40.193Z</time></trkpt><trkpt lat="39.4260043" lon="9.5594952"><ele>21.0</ele><time>2026-05-01T16:44:41.192Z</time></trkpt><trkpt lat="39.4262609" lon="9.5595116"><ele>21.0</ele><time>2026-05-01T16:44:42.192Z</time></trkpt><trkpt lat="39.4265188" lon="9.5595202"><ele>15.0</ele><time>2026-05-01T16:44:43.193Z</time></trkpt><trkpt lat="39.4267791" lon="9.5595238"><ele>9.0</ele><time>2026-05-01T16:44:44.192Z</time></trkpt><trkpt lat="39.4270423" lon="9.5595191"><ele>8.5</ele><time>2026-05-01T16:44:45.193Z</time></trkpt><trkpt lat="39.4273077" lon="9.5595064"><ele>8.0</ele><time>2026-05-01T16:44:46.192Z</time></trkpt><trkpt lat="39.4275719" lon="9.5594867"><ele>8.0</ele><time>2026-05-01T16:44:47.193Z</time></trkpt><trkpt lat="39.4278368" lon="9.5594594"><ele>8.0</ele><time>2026-05-01T16:44:48.193Z</time></trkpt><trkpt lat="39.4281064" lon="9.5594285"><ele>8.0</ele><time>2026-05-01T16:44:49.192Z</time></trkpt><trkpt lat="39.4283811" lon="9.5594022"><ele>8.0</ele><time>2026-05-01T16:44:50.193Z</time></trkpt><trkpt lat="39.4286578" lon="9.5593803"><ele>7.5</ele><time>2026-05-01T16:44:51.192Z</time></trkpt><trkpt lat="39.4289364" lon="9.5593555"><ele>7.0</ele><time>2026-05-01T16:44:52.193Z</time></trkpt><trkpt lat="39.4292154" lon="9.5593286"><ele>7.0</ele><time>2026-05-01T16:44:53.193Z</time></trkpt><trkpt lat="39.4294937" lon="9.5593"><ele>7.0</ele><time>2026-05-01T16:44:54.193Z</time></trkpt><trkpt lat="39.4297714" lon="9.5592709"><ele>7.5</ele><time>2026-05-01T16:44:55.193Z</time></trkpt><trkpt lat="39.4300497" lon="9.5592417"><ele>8.0</ele><time>2026-05-01T16:44:56.193Z</time></trkpt><trkpt lat="39.4303263" lon="9.5592119"><ele>8.0</ele><time>2026-05-01T16:44:57.193Z</time></trkpt><trkpt lat="39.4306007" lon="9.5591813"><ele>8.0</ele><time>2026-05-01T16:44:58.192Z</time></trkpt><trkpt lat="39.4308737" lon="9.5591507"><ele>8.0</ele><time>2026-05-01T16:44:59.193Z</time></trkpt><trkpt lat="39.4311462" lon="9.5591214"><ele>8.0</ele><time>2026-05-01T16:45:00.193Z</time></trkpt><trkpt lat="39.4314178" lon="9.5590925"><ele>7.5</ele><time>2026-05-01T16:45:01.191Z</time></trkpt><trkpt lat="39.4316887" lon="9.5590628"><ele>7.0</ele><time>2026-05-01T16:45:02.193Z</time></trkpt><trkpt lat="39.4319592" lon="9.5590338"><ele>7.0</ele><time>2026-05-01T16:45:03.192Z</time></trkpt><trkpt lat="39.4322304" lon="9.559005"><ele>7.0</ele><time>2026-05-01T16:45:04.193Z</time></trkpt><trkpt lat="39.4325026" lon="9.5589772"><ele>7.0</ele><time>2026-05-01T16:45:05.193Z</time></trkpt><trkpt lat="39.4327746" lon="9.5589488"><ele>7.0</ele><time>2026-05-01T16:45:06.192Z</time></trkpt><trkpt lat="39.4330459" lon="9.5589201"><ele>7.0</ele><time>2026-05-01T16:45:07.192Z</time></trkpt><trkpt lat="39.4333178" lon="9.55889"><ele>7.0</ele><time>2026-05-01T16:45:08.193Z</time></trkpt><trkpt lat="39.4335888" lon="9.5588607"><ele>7.5</ele><time>2026-05-01T16:45:09.192Z</time></trkpt><trkpt lat="39.4338592" lon="9.5588317"><ele>8.0</ele><time>2026-05-01T16:45:10.193Z</time></trkpt><trkpt lat="39.4341322" lon="9.5588035"><ele>8.0</ele><time>2026-05-01T16:45:11.193Z</time></trkpt><trkpt lat="39.4344044" lon="9.5587746"><ele>8.0</ele><time>2026-05-01T16:45:12.192Z</time></trkpt><trkpt lat="39.4346772" lon="9.5587444"><ele>8.0</ele><time>2026-05-01T16:45:13.193Z</time></trkpt><trkpt lat="39.4349469" lon="9.5587158"><ele>8.0</ele><time>2026-05-01T16:45:14.192Z</time></trkpt><trkpt lat="39.4352151" lon="9.5586898"><ele>8.0</ele><time>2026-05-01T16:45:15.193Z</time></trkpt><trkpt lat="39.435484" lon="9.5586637"><ele>8.0</ele><time>2026-05-01T16:45:16.193Z</time></trkpt><trkpt lat="39.4357536" lon="9.5586331"><ele>8.0</ele><time>2026-05-01T16:45:17.193Z</time></trkpt><trkpt lat="39.4360248" lon="9.5586012"><ele>8.0</ele><time>2026-05-01T16:45:18.192Z</time></trkpt><trkpt lat="39.436296" lon="9.5585689"><ele>8.0</ele><time>2026-05-01T16:45:19.193Z</time></trkpt><trkpt lat="39.4365674" lon="9.5585369"><ele>8.0</ele><time>2026-05-01T16:45:20.193Z</time></trkpt><trkpt lat="39.43684" lon="9.5585058"><ele>8.0</ele><time>2026-05-01T16:45:21.193Z</time></trkpt><trkpt lat="39.4371132" lon="9.5584756"><ele>8.0</ele><time>2026-05-01T16:45:22.193Z</time></trkpt><trkpt lat="39.437388" lon="9.5584489"><ele>8.5</ele><time>2026-05-01T16:45:23.192Z</time></trkpt><trkpt lat="39.4376642" lon="9.5584239"><ele>9.0</ele><time>2026-05-01T16:45:24.193Z</time></trkpt><trkpt lat="39.437942" lon="9.5584018"><ele>9.0</ele><time>2026-05-01T16:45:25.193Z</time></trkpt><trkpt lat="39.4382198" lon="9.5583852"><ele>9.0</ele><time>2026-05-01T16:45:26.192Z</time></trkpt><trkpt lat="39.4384967" lon="9.5583726"><ele>9.0</ele><time>2026-05-01T16:45:27.193Z</time></trkpt><trkpt lat="39.4387712" lon="9.5583677"><ele>9.0</ele><time>2026-05-01T16:45:28.193Z</time></trkpt><trkpt lat="39.4390435" lon="9.558373"><ele>8.5</ele><time>2026-05-01T16:45:29.192Z</time></trkpt><trkpt lat="39.4393148" lon="9.5583877"><ele>8.0</ele><time>2026-05-01T16:45:30.193Z</time></trkpt><trkpt lat="39.4395812" lon="9.5584124"><ele>7.0</ele><time>2026-05-01T16:45:31.192Z</time></trkpt><trkpt lat="39.4398431" lon="9.5584492"><ele>6.0</ele><time>2026-05-01T16:45:32.192Z</time></trkpt><trkpt lat="39.4401014" lon="9.558498"><ele>6.0</ele><time>2026-05-01T16:45:33.193Z</time></trkpt><trkpt lat="39.4403555" lon="9.5585603"><ele>6.0</ele><time>2026-05-01T16:45:34.193Z</time></trkpt><trkpt lat="39.4406067" lon="9.5586336"><ele>7.5</ele><time>2026-05-01T16:45:35.193Z</time></trkpt><trkpt lat="39.4408557" lon="9.5587165"><ele>9.0</ele><time>2026-05-01T16:45:36.193Z</time></trkpt><trkpt lat="39.4411022" lon="9.5588104"><ele>10.0</ele><time>2026-05-01T16:45:37.192Z</time></trkpt><trkpt lat="39.4413462" lon="9.5589152"><ele>11.0</ele><time>2026-05-01T16:45:38.193Z</time></trkpt><trkpt lat="39.4415871" lon="9.5590311"><ele>11.0</ele><time>2026-05-01T16:45:39.192Z</time></trkpt><trkpt lat="39.4418227" lon="9.5591573"><ele>11.0</ele><time>2026-05-01T16:45:40.193Z</time></trkpt><trkpt lat="39.4420529" lon="9.559296"><ele>12.0</ele><time>2026-05-01T16:45:41.192Z</time></trkpt><trkpt lat="39.4422801" lon="9.5594466"><ele>13.0</ele><time>2026-05-01T16:45:42.192Z</time></trkpt><trkpt lat="39.4425041" lon="9.5596077"><ele>13.0</ele><time>2026-05-01T16:45:43.192Z</time></trkpt><trkpt lat="39.4427255" lon="9.5597781"><ele>13.0</ele><time>2026-05-01T16:45:44.193Z</time></trkpt><trkpt lat="39.4429428" lon="9.5599578"><ele>19.5</ele><time>2026-05-01T16:45:45.192Z</time></trkpt><trkpt lat="39.4431549" lon="9.5601459"><ele>26.0</ele><time>2026-05-01T16:45:46.193Z</time></trkpt><trkpt lat="39.4433611" lon="9.5603436"><ele>21.5</ele><time>2026-05-01T16:45:47.192Z</time></trkpt><trkpt lat="39.4435629" lon="9.560547"><ele>17.0</ele><time>2026-05-01T16:45:48.192Z</time></trkpt><trkpt lat="39.4437606" lon="9.5607563"><ele>22.0</ele><time>2026-05-01T16:45:49.192Z</time></trkpt><trkpt lat="39.4439558" lon="9.5609698"><ele>27.0</ele><time>2026-05-01T16:45:50.192Z</time></trkpt><trkpt lat="39.4441484" lon="9.5611868"><ele>23.0</ele><time>2026-05-01T16:45:51.193Z</time></trkpt><trkpt lat="39.4443429" lon="9.5614052"><ele>19.0</ele><time>2026-05-01T16:45:52.192Z</time></trkpt><trkpt lat="39.4445402" lon="9.5616286"><ele>19.0</ele><time>2026-05-01T16:45:53.193Z</time></trkpt><trkpt lat="39.444741" lon="9.5618594"><ele>19.0</ele><time>2026-05-01T16:45:54.193Z</time></trkpt><trkpt lat="39.4449464" lon="9.562098"><ele>19.0</ele><time>2026-05-01T16:45:55.192Z</time></trkpt><trkpt lat="39.4451547" lon="9.5623402"><ele>19.0</ele><time>2026-05-01T16:45:56.192Z</time></trkpt><trkpt lat="39.4453659" lon="9.5625844"><ele>20.5</ele><time>2026-05-01T16:45:57.193Z</time></trkpt><trkpt lat="39.4455809" lon="9.5628313"><ele>22.0</ele><time>2026-05-01T16:45:58.193Z</time></trkpt><trkpt lat="39.445797" lon="9.5630805"><ele>22.0</ele><time>2026-05-01T16:45:59.193Z</time></trkpt><trkpt lat="39.4460127" lon="9.5633287"><ele>22.0</ele><time>2026-05-01T16:46:00.193Z</time></trkpt><trkpt lat="39.4462298" lon="9.5635772"><ele>27.0</ele><time>2026-05-01T16:46:01.193Z</time></trkpt><trkpt lat="39.4464485" lon="9.5638249"><ele>32.0</ele><time>2026-05-01T16:46:02.193Z</time></trkpt><trkpt lat="39.4466673" lon="9.5640667"><ele>32.0</ele><time>2026-05-01T16:46:03.192Z</time></trkpt><trkpt lat="39.4468888" lon="9.5643047"><ele>32.0</ele><time>2026-05-01T16:46:04.193Z</time></trkpt><trkpt lat="39.4471129" lon="9.564536"><ele>32.5</ele><time>2026-05-01T16:46:05.192Z</time></trkpt><trkpt lat="39.4473397" lon="9.5647593"><ele>33.0</ele><time>2026-05-01T16:46:06.192Z</time></trkpt><trkpt lat="39.447569" lon="9.5649755"><ele>33.0</ele><time>2026-05-01T16:46:07.192Z</time></trkpt><trkpt lat="39.4478024" lon="9.5651833"><ele>33.0</ele><time>2026-05-01T16:46:08.193Z</time></trkpt><trkpt lat="39.4480392" lon="9.5653811"><ele>34.5</ele><time>2026-05-01T16:46:09.192Z</time></trkpt><trkpt lat="39.4482786" lon="9.5655705"><ele>36.0</ele><time>2026-05-01T16:46:10.192Z</time></trkpt><trkpt lat="39.4485185" lon="9.5657524"><ele>36.0</ele><time>2026-05-01T16:46:11.192Z</time></trkpt><trkpt lat="39.4487602" lon="9.5659297"><ele>36.0</ele><time>2026-05-01T16:46:12.193Z</time></trkpt><trkpt lat="39.4490027" lon="9.5661044"><ele>36.5</ele><time>2026-05-01T16:46:13.192Z</time></trkpt><trkpt lat="39.4492459" lon="9.5662775"><ele>37.0</ele><time>2026-05-01T16:46:14.193Z</time></trkpt><trkpt lat="39.4494895" lon="9.5664499"><ele>39.5</ele><time>2026-05-01T16:46:15.193Z</time></trkpt><trkpt lat="39.4497331" lon="9.5666208"><ele>42.0</ele><time>2026-05-01T16:46:16.192Z</time></trkpt><trkpt lat="39.4499779" lon="9.5667941"><ele>42.0</ele><time>2026-05-01T16:46:17.193Z</time></trkpt><trkpt lat="39.4502224" lon="9.5669682"><ele>42.0</ele><time>2026-05-01T16:46:18.193Z</time></trkpt><trkpt lat="39.4504653" lon="9.5671395"><ele>41.5</ele><time>2026-05-01T16:46:19.193Z</time></trkpt><trkpt lat="39.4507065" lon="9.5673095"><ele>41.0</ele><time>2026-05-01T16:46:20.192Z</time></trkpt><trkpt lat="39.4509464" lon="9.5674789"><ele>41.0</ele><time>2026-05-01T16:46:21.192Z</time></trkpt><trkpt lat="39.4511847" lon="9.5676492"><ele>41.0</ele><time>2026-05-01T16:46:22.193Z</time></trkpt><trkpt lat="39.4514212" lon="9.5678211"><ele>42.0</ele><time>2026-05-01T16:46:23.192Z</time></trkpt><trkpt lat="39.4516547" lon="9.5679945"><ele>43.0</ele><time>2026-05-01T16:46:24.193Z</time></trkpt><trkpt lat="39.4518873" lon="9.5681689"><ele>43.0</ele><time>2026-05-01T16:46:25.193Z</time></trkpt><trkpt lat="39.45212" lon="9.5683471"><ele>43.0</ele><time>2026-05-01T16:46:26.193Z</time></trkpt><trkpt lat="39.4523497" lon="9.5685295"><ele>44.0</ele><time>2026-05-01T16:46:27.192Z</time></trkpt><trkpt lat="39.452577" lon="9.5687172"><ele>45.0</ele><time>2026-05-01T16:46:28.193Z</time></trkpt><trkpt lat="39.4528008" lon="9.5689108"><ele>50.5</ele><time>2026-05-01T16:46:29.193Z</time></trkpt><trkpt lat="39.4530198" lon="9.5691099"><ele>56.0</ele><time>2026-05-01T16:46:30.192Z</time></trkpt><trkpt lat="39.4532344" lon="9.5693123"><ele>56.0</ele><time>2026-05-01T16:46:31.192Z</time></trkpt><trkpt lat="39.4534439" lon="9.5695201"><ele>56.0</ele><time>2026-05-01T16:46:32.192Z</time></trkpt><trkpt lat="39.4536499" lon="9.5697329"><ele>60.0</ele><time>2026-05-01T16:46:33.192Z</time></trkpt><trkpt lat="39.4538515" lon="9.5699493"><ele>64.0</ele><time>2026-05-01T16:46:34.193Z</time></trkpt><trkpt lat="39.4540468" lon="9.5701718"><ele>61.0</ele><time>2026-05-01T16:46:35.192Z</time></trkpt><trkpt lat="39.454238" lon="9.570399"><ele>58.0</ele><time>2026-05-01T16:46:36.192Z</time></trkpt><trkpt lat="39.4544245" lon="9.5706293"><ele>58.0</ele><time>2026-05-01T16:46:37.192Z</time></trkpt><trkpt lat="39.4546073" lon="9.5708643"><ele>58.0</ele><time>2026-05-01T16:46:38.193Z</time></trkpt><trkpt lat="39.4547833" lon="9.5711016"><ele>62.5</ele><time>2026-05-01T16:46:39.193Z</time></trkpt><trkpt lat="39.4549529" lon="9.5713415"><ele>67.0</ele><time>2026-05-01T16:46:40.192Z</time></trkpt><trkpt lat="39.4551168" lon="9.5715856"><ele>67.0</ele><time>2026-05-01T16:46:41.193Z</time></trkpt><trkpt lat="39.4552766" lon="9.5718366"><ele>67.0</ele><time>2026-05-01T16:46:42.192Z</time></trkpt><trkpt lat="39.4554312" lon="9.572092"><ele>70.5</ele><time>2026-05-01T16:46:43.193Z</time></trkpt><trkpt lat="39.4555814" lon="9.5723519"><ele>74.0</ele><time>2026-05-01T16:46:44.193Z</time></trkpt><trkpt lat="39.4557251" lon="9.5726185"><ele>71.0</ele><time>2026-05-01T16:46:45.193Z</time></trkpt><trkpt lat="39.4558636" lon="9.5728827"><ele>68.0</ele><time>2026-05-01T16:46:46.193Z</time></trkpt><trkpt lat="39.4559962" lon="9.5731503"><ele>68.0</ele><time>2026-05-01T16:46:47.192Z</time></trkpt><trkpt lat="39.4561243" lon="9.5734229"><ele>68.0</ele><time>2026-05-01T16:46:48.193Z</time></trkpt><trkpt lat="39.4562478" lon="9.5736992"><ele>70.5</ele><time>2026-05-01T16:46:49.193Z</time></trkpt><trkpt lat="39.456366" lon="9.5739792"><ele>73.0</ele><time>2026-05-01T16:46:50.192Z</time></trkpt><trkpt lat="39.4564802" lon="9.5742617"><ele>71.0</ele><time>2026-05-01T16:46:51.192Z</time></trkpt><trkpt lat="39.4565909" lon="9.5745503"><ele>69.0</ele><time>2026-05-01T16:46:52.192Z</time></trkpt><trkpt lat="39.4566959" lon="9.5748441"><ele>69.0</ele><time>2026-05-01T16:46:53.193Z</time></trkpt><trkpt lat="39.4567956" lon="9.5751406"><ele>69.0</ele><time>2026-05-01T16:46:54.193Z</time></trkpt><trkpt lat="39.4568913" lon="9.5754385"><ele>74.0</ele><time>2026-05-01T16:46:55.193Z</time></trkpt><trkpt lat="39.4569803" lon="9.5757358"><ele>79.0</ele><time>2026-05-01T16:46:56.192Z</time></trkpt><trkpt lat="39.4570651" lon="9.5760333"><ele>86.0</ele><time>2026-05-01T16:46:57.193Z</time></trkpt><trkpt lat="39.4571484" lon="9.5763307"><ele>93.0</ele><time>2026-05-01T16:46:58.193Z</time></trkpt><trkpt lat="39.4572281" lon="9.576627"><ele>93.0</ele><time>2026-05-01T16:46:59.193Z</time></trkpt><trkpt lat="39.4573082" lon="9.576924"><ele>93.0</ele><time>2026-05-01T16:47:00.193Z</time></trkpt><trkpt lat="39.4573878" lon="9.5772208"><ele>86.0</ele><time>2026-05-01T16:47:01.193Z</time></trkpt><trkpt lat="39.4582971" lon="9.5828815"><ele>86.0</ele><time>2026-05-01T16:47:20.193Z</time></trkpt><trkpt lat="39.4584236" lon="9.5832674"><ele>86.0</ele><time>2026-05-01T16:47:21.192Z</time></trkpt><trkpt lat="39.4585163" lon="9.5836431"><ele>81.0</ele><time>2026-05-01T16:47:22.192Z</time></trkpt><trkpt lat="39.4585912" lon="9.5839649"><ele>76.0</ele><time>2026-05-01T16:47:23.193Z</time></trkpt><trkpt lat="39.4586637" lon="9.5842812"><ele>74.0</ele><time>2026-05-01T16:47:24.193Z</time></trkpt><trkpt lat="39.4587389" lon="9.5845933"><ele>72.0</ele><time>2026-05-01T16:47:25.192Z</time></trkpt><trkpt lat="39.4588154" lon="9.5849047"><ele>75.0</ele><time>2026-05-01T16:47:26.193Z</time></trkpt><trkpt lat="39.4588948" lon="9.5852134"><ele>78.0</ele><time>2026-05-01T16:47:27.192Z</time></trkpt><trkpt lat="39.4589831" lon="9.5855195"><ele>78.0</ele><time>2026-05-01T16:47:28.193Z</time></trkpt><trkpt lat="39.4590764" lon="9.5858182"><ele>78.0</ele><time>2026-05-01T16:47:29.192Z</time></trkpt><trkpt lat="39.4591796" lon="9.5861131"><ele>75.5</ele><time>2026-05-01T16:47:30.193Z</time></trkpt><trkpt lat="39.4592919" lon="9.5863995"><ele>73.0</ele><time>2026-05-01T16:47:31.192Z</time></trkpt><trkpt lat="39.4594144" lon="9.5866773"><ele>73.0</ele><time>2026-05-01T16:47:32.193Z</time></trkpt><trkpt lat="39.459545" lon="9.586948"><ele>73.0</ele><time>2026-05-01T16:47:33.193Z</time></trkpt><trkpt lat="39.4596873" lon="9.58721"><ele>80.5</ele><time>2026-05-01T16:47:34.193Z</time></trkpt><trkpt lat="39.4598355" lon="9.5874604"><ele>88.0</ele><time>2026-05-01T16:47:35.192Z</time></trkpt><trkpt lat="39.4599916" lon="9.5877002"><ele>83.5</ele><time>2026-05-01T16:47:36.193Z</time></trkpt><trkpt lat="39.4601563" lon="9.587932"><ele>79.0</ele><time>2026-05-01T16:47:37.192Z</time></trkpt><trkpt lat="39.4603309" lon="9.5881587"><ele>78.0</ele><time>2026-05-01T16:47:38.193Z</time></trkpt><trkpt lat="39.4605147" lon="9.5883715"><ele>77.0</ele><time>2026-05-01T16:47:39.192Z</time></trkpt><trkpt lat="39.4607036" lon="9.5885713"><ele>70.0</ele><time>2026-05-01T16:47:40.192Z</time></trkpt><trkpt lat="39.4608969" lon="9.5887593"><ele>63.0</ele><time>2026-05-01T16:47:41.193Z</time></trkpt><trkpt lat="39.461097" lon="9.5889404"><ele>64.0</ele><time>2026-05-01T16:47:42.192Z</time></trkpt><trkpt lat="39.4613035" lon="9.5891134"><ele>65.0</ele><time>2026-05-01T16:47:43.193Z</time></trkpt><trkpt lat="39.4615156" lon="9.5892755"><ele>65.0</ele><time>2026-05-01T16:47:44.193Z</time></trkpt><trkpt lat="39.461729" lon="9.5894291"><ele>65.0</ele><time>2026-05-01T16:47:45.193Z</time></trkpt><trkpt lat="39.461944" lon="9.5895764"><ele>67.5</ele><time>2026-05-01T16:47:46.193Z</time></trkpt><trkpt lat="39.4621638" lon="9.5897197"><ele>70.0</ele><time>2026-05-01T16:47:47.192Z</time></trkpt><trkpt lat="39.4623833" lon="9.5898587"><ele>70.0</ele><time>2026-05-01T16:47:48.192Z</time></trkpt><trkpt lat="39.4626026" lon="9.5899948"><ele>70.0</ele><time>2026-05-01T16:47:49.193Z</time></trkpt><trkpt lat="39.4628227" lon="9.5901354"><ele>71.5</ele><time>2026-05-01T16:47:50.193Z</time></trkpt><trkpt lat="39.4630408" lon="9.5902741"><ele>73.0</ele><time>2026-05-01T16:47:51.193Z</time></trkpt><trkpt lat="39.4632573" lon="9.5904123"><ele>73.0</ele><time>2026-05-01T16:47:52.192Z</time></trkpt><trkpt lat="39.4634726" lon="9.5905525"><ele>73.0</ele><time>2026-05-01T16:47:53.193Z</time></trkpt><trkpt lat="39.4636843" lon="9.5906985"><ele>76.5</ele><time>2026-05-01T16:47:54.192Z</time></trkpt><trkpt lat="39.463894" lon="9.5908502"><ele>80.0</ele><time>2026-05-01T16:47:55.193Z</time></trkpt><trkpt lat="39.4640999" lon="9.5910082"><ele>80.0</ele><time>2026-05-01T16:47:56.192Z</time></trkpt><trkpt lat="39.4643054" lon="9.5911734"><ele>80.0</ele><time>2026-05-01T16:47:57.192Z</time></trkpt><trkpt lat="39.4645085" lon="9.5913437"><ele>87.5</ele><time>2026-05-01T16:47:58.193Z</time></trkpt><trkpt lat="39.46471" lon="9.5915184"><ele>95.0</ele><time>2026-05-01T16:47:59.192Z</time></trkpt><trkpt lat="39.4649086" lon="9.5917001"><ele>95.0</ele><time>2026-05-01T16:48:00.193Z</time></trkpt><trkpt lat="39.465105" lon="9.5918909"><ele>95.0</ele><time>2026-05-01T16:48:01.193Z</time></trkpt><trkpt lat="39.4652989" lon="9.5920896"><ele>97.5</ele><time>2026-05-01T16:48:02.192Z</time></trkpt><trkpt lat="39.4654913" lon="9.5922914"><ele>100.0</ele><time>2026-05-01T16:48:03.193Z</time></trkpt><trkpt lat="39.4656803" lon="9.5924985"><ele>100.0</ele><time>2026-05-01T16:48:04.193Z</time></trkpt><trkpt lat="39.4658651" lon="9.5927085"><ele>100.0</ele><time>2026-05-01T16:48:05.192Z</time></trkpt><trkpt lat="39.4660479" lon="9.5929211"><ele>95.5</ele><time>2026-05-01T16:48:06.192Z</time></trkpt><trkpt lat="39.4662311" lon="9.5931346"><ele>91.0</ele><time>2026-05-01T16:48:07.192Z</time></trkpt><trkpt lat="39.4664132" lon="9.5933475"><ele>97.5</ele><time>2026-05-01T16:48:08.192Z</time></trkpt><trkpt lat="39.4665959" lon="9.5935608"><ele>104.0</ele><time>2026-05-01T16:48:09.193Z</time></trkpt><trkpt lat="39.466778" lon="9.5937717"><ele>104.0</ele><time>2026-05-01T16:48:10.193Z</time></trkpt><trkpt lat="39.4669604" lon="9.5939834"><ele>104.0</ele><time>2026-05-01T16:48:11.192Z</time></trkpt><trkpt lat="39.4671444" lon="9.5941984"><ele>101.0</ele><time>2026-05-01T16:48:12.192Z</time></trkpt><trkpt lat="39.4673296" lon="9.5944134"><ele>98.0</ele><time>2026-05-01T16:48:13.192Z</time></trkpt><trkpt lat="39.4675175" lon="9.5946296"><ele>98.0</ele><time>2026-05-01T16:48:14.193Z</time></trkpt><trkpt lat="39.4677068" lon="9.5948476"><ele>98.0</ele><time>2026-05-01T16:48:15.192Z</time></trkpt><trkpt lat="39.467896" lon="9.5950666"><ele>93.0</ele><time>2026-05-01T16:48:16.193Z</time></trkpt><trkpt lat="39.4680852" lon="9.5952885"><ele>88.0</ele><time>2026-05-01T16:48:17.193Z</time></trkpt><trkpt lat="39.4682723" lon="9.59551"><ele>88.0</ele><time>2026-05-01T16:48:18.192Z</time></trkpt><trkpt lat="39.4684659" lon="9.5957362"><ele>88.0</ele><time>2026-05-01T16:48:19.192Z</time></trkpt><trkpt lat="39.4686576" lon="9.5959576"><ele>88.5</ele><time>2026-05-01T16:48:20.193Z</time></trkpt><trkpt lat="39.4688461" lon="9.5961727"><ele>89.0</ele><time>2026-05-01T16:48:21.192Z</time></trkpt><trkpt lat="39.4690366" lon="9.5963864"><ele>89.0</ele><time>2026-05-01T16:48:22.192Z</time></trkpt><trkpt lat="39.4692312" lon="9.596603"><ele>89.0</ele><time>2026-05-01T16:48:23.193Z</time></trkpt><trkpt lat="39.4694329" lon="9.5968169"><ele>87.5</ele><time>2026-05-01T16:48:24.193Z</time></trkpt><trkpt lat="39.4696406" lon="9.5970306"><ele>86.0</ele><time>2026-05-01T16:48:25.192Z</time></trkpt><trkpt lat="39.4698555" lon="9.5972402"><ele>86.0</ele><time>2026-05-01T16:48:26.192Z</time></trkpt><trkpt lat="39.4700738" lon="9.5974405"><ele>86.0</ele><time>2026-05-01T16:48:27.193Z</time></trkpt><trkpt lat="39.4702963" lon="9.5976285"><ele>89.0</ele><time>2026-05-01T16:48:28.193Z</time></trkpt><trkpt lat="39.4705242" lon="9.5978064"><ele>92.0</ele><time>2026-05-01T16:48:29.192Z</time></trkpt><trkpt lat="39.470755" lon="9.5979763"><ele>82.0</ele><time>2026-05-01T16:48:30.193Z</time></trkpt><trkpt lat="39.4709889" lon="9.5981382"><ele>72.0</ele><time>2026-05-01T16:48:31.192Z</time></trkpt><trkpt lat="39.4712274" lon="9.5982861"><ele>67.0</ele><time>2026-05-01T16:48:32.193Z</time></trkpt><trkpt lat="39.4714684" lon="9.5984279"><ele>62.0</ele><time>2026-05-01T16:48:33.193Z</time></trkpt><trkpt lat="39.4717114" lon="9.5985572"><ele>60.5</ele><time>2026-05-01T16:48:34.193Z</time></trkpt><trkpt lat="39.4719585" lon="9.5986757"><ele>59.0</ele><time>2026-05-01T16:48:35.192Z</time></trkpt><trkpt lat="39.4722063" lon="9.5987854"><ele>59.0</ele><time>2026-05-01T16:48:36.193Z</time></trkpt><trkpt lat="39.4724572" lon="9.5988836"><ele>59.0</ele><time>2026-05-01T16:48:37.192Z</time></trkpt><trkpt lat="39.4727108" lon="9.5989709"><ele>67.5</ele><time>2026-05-01T16:48:38.192Z</time></trkpt><trkpt lat="39.4729666" lon="9.5990483"><ele>76.0</ele><time>2026-05-01T16:48:39.192Z</time></trkpt><trkpt lat="39.473226" lon="9.5991133"><ele>76.0</ele><time>2026-05-01T16:48:40.192Z</time></trkpt><trkpt lat="39.4734889" lon="9.599169"><ele>76.0</ele><time>2026-05-01T16:48:41.192Z</time></trkpt><trkpt lat="39.4737554" lon="9.5992154"><ele>79.0</ele><time>2026-05-01T16:48:42.192Z</time></trkpt><trkpt lat="39.4740254" lon="9.5992542"><ele>82.0</ele><time>2026-05-01T16:48:43.193Z</time></trkpt><trkpt lat="39.4742947" lon="9.5992863"><ele>82.0</ele><time>2026-05-01T16:48:44.192Z</time></trkpt><trkpt lat="39.4745659" lon="9.5993113"><ele>82.0</ele><time>2026-05-01T16:48:45.192Z</time></trkpt><trkpt lat="39.4748379" lon="9.5993316"><ele>78.0</ele><time>2026-05-01T16:48:46.193Z</time></trkpt><trkpt lat="39.4751109" lon="9.5993463"><ele>74.0</ele><time>2026-05-01T16:48:47.192Z</time></trkpt><trkpt lat="39.4753795" lon="9.5993578"><ele>74.0</ele><time>2026-05-01T16:48:48.192Z</time></trkpt><trkpt lat="39.4756404" lon="9.5993702"><ele>74.0</ele><time>2026-05-01T16:48:49.193Z</time></trkpt><trkpt lat="39.4759025" lon="9.5993881"><ele>74.0</ele><time>2026-05-01T16:48:50.192Z</time></trkpt><trkpt lat="39.4761633" lon="9.5994104"><ele>74.0</ele><time>2026-05-01T16:48:51.193Z</time></trkpt><trkpt lat="39.4764207" lon="9.5994409"><ele>78.5</ele><time>2026-05-01T16:48:52.193Z</time></trkpt><trkpt lat="39.4766693" lon="9.5994804"><ele>83.0</ele><time>2026-05-01T16:48:53.193Z</time></trkpt><trkpt lat="39.4769183" lon="9.5995181"><ele>78.5</ele><time>2026-05-01T16:48:54.193Z</time></trkpt><trkpt lat="39.4771687" lon="9.5995546"><ele>74.0</ele><time>2026-05-01T16:48:55.193Z</time></trkpt><trkpt lat="39.4806248" lon="9.6021977"><ele>74.0</ele><time>2026-05-01T16:49:10.193Z</time></trkpt><trkpt lat="39.4808487" lon="9.6023912"><ele>74.0</ele><time>2026-05-01T16:49:11.192Z</time></trkpt><trkpt lat="39.4810792" lon="9.6025926"><ele>75.5</ele><time>2026-05-01T16:49:12.192Z</time></trkpt><trkpt lat="39.4813078" lon="9.6027958"><ele>77.0</ele><time>2026-05-01T16:49:13.192Z</time></trkpt><trkpt lat="39.4815437" lon="9.6029996"><ele>71.0</ele><time>2026-05-01T16:49:14.193Z</time></trkpt><trkpt lat="39.4817735" lon="9.6032035"><ele>65.0</ele><time>2026-05-01T16:49:15.192Z</time></trkpt><trkpt lat="39.4820005" lon="9.6034007"><ele>63.5</ele><time>2026-05-01T16:49:16.193Z</time></trkpt><trkpt lat="39.4822145" lon="9.603591"><ele>62.0</ele><time>2026-05-01T16:49:17.192Z</time></trkpt><trkpt lat="39.4824254" lon="9.6037769"><ele>62.0</ele><time>2026-05-01T16:49:18.193Z</time></trkpt><trkpt lat="39.4826332" lon="9.6039612"><ele>62.0</ele><time>2026-05-01T16:49:19.193Z</time></trkpt><trkpt lat="39.4828392" lon="9.6041457"><ele>65.0</ele><time>2026-05-01T16:49:20.192Z</time></trkpt><trkpt lat="39.4830463" lon="9.6043287"><ele>68.0</ele><time>2026-05-01T16:49:21.193Z</time></trkpt><trkpt lat="39.483256" lon="9.604512"><ele>60.0</ele><time>2026-05-01T16:49:22.192Z</time></trkpt><trkpt lat="39.4834632" lon="9.6046962"><ele>52.0</ele><time>2026-05-01T16:49:23.192Z</time></trkpt><trkpt lat="39.4836692" lon="9.6048811"><ele>53.5</ele><time>2026-05-01T16:49:24.192Z</time></trkpt><trkpt lat="39.4838775" lon="9.6050659"><ele>55.0</ele><time>2026-05-01T16:49:25.193Z</time></trkpt><trkpt lat="39.4840849" lon="9.6052499"><ele>53.5</ele><time>2026-05-01T16:49:26.192Z</time></trkpt><trkpt lat="39.4842927" lon="9.6054335"><ele>52.0</ele><time>2026-05-01T16:49:27.193Z</time></trkpt><trkpt lat="39.4845016" lon="9.6056152"><ele>55.0</ele><time>2026-05-01T16:49:28.193Z</time></trkpt><trkpt lat="39.4847143" lon="9.6057972"><ele>58.0</ele><time>2026-05-01T16:49:29.193Z</time></trkpt><trkpt lat="39.4849279" lon="9.6059718"><ele>58.0</ele><time>2026-05-01T16:49:30.193Z</time></trkpt><trkpt lat="39.4851453" lon="9.606143"><ele>58.0</ele><time>2026-05-01T16:49:31.193Z</time></trkpt><trkpt lat="39.4853661" lon="9.606309"><ele>61.5</ele><time>2026-05-01T16:49:32.192Z</time></trkpt><trkpt lat="39.4855878" lon="9.6064669"><ele>65.0</ele><time>2026-05-01T16:49:33.193Z</time></trkpt><trkpt lat="39.4858136" lon="9.6066148"><ele>65.0</ele><time>2026-05-01T16:49:34.192Z</time></trkpt><trkpt lat="39.4860471" lon="9.6067518"><ele>65.0</ele><time>2026-05-01T16:49:35.193Z</time></trkpt><trkpt lat="39.4862865" lon="9.6068726"><ele>64.0</ele><time>2026-05-01T16:49:36.193Z</time></trkpt><trkpt lat="39.4865317" lon="9.6069747"><ele>63.0</ele><time>2026-05-01T16:49:37.193Z</time></trkpt><trkpt lat="39.4867748" lon="9.6070808"><ele>63.0</ele><time>2026-05-01T16:49:38.193Z</time></trkpt><trkpt lat="39.4870186" lon="9.6071839"><ele>63.0</ele><time>2026-05-01T16:49:39.193Z</time></trkpt><trkpt lat="39.4880209" lon="9.607242"><ele>58.5</ele><time>2026-05-01T16:49:43.193Z</time></trkpt><trkpt lat="39.4882727" lon="9.607216"><ele>54.0</ele><time>2026-05-01T16:49:44.193Z</time></trkpt><trkpt lat="39.488527" lon="9.6071731"><ele>48.5</ele><time>2026-05-01T16:49:45.193Z</time></trkpt><trkpt lat="39.4887835" lon="9.6071081"><ele>43.0</ele><time>2026-05-01T16:49:46.192Z</time></trkpt><trkpt lat="39.4890288" lon="9.6070295"><ele>51.0</ele><time>2026-05-01T16:49:47.192Z</time></trkpt><trkpt lat="39.4892754" lon="9.6069325"><ele>59.0</ele><time>2026-05-01T16:49:48.192Z</time></trkpt><trkpt lat="39.4895159" lon="9.6068179"><ele>55.5</ele><time>2026-05-01T16:49:49.193Z</time></trkpt><trkpt lat="39.4897494" lon="9.6066884"><ele>52.0</ele><time>2026-05-01T16:49:50.192Z</time></trkpt><trkpt lat="39.4899746" lon="9.6065446"><ele>52.0</ele><time>2026-05-01T16:49:51.192Z</time></trkpt><trkpt lat="39.4901937" lon="9.6063806"><ele>52.0</ele><time>2026-05-01T16:49:52.193Z</time></trkpt><trkpt lat="39.4904135" lon="9.6062123"><ele>65.0</ele><time>2026-05-01T16:49:53.192Z</time></trkpt><trkpt lat="39.4906319" lon="9.6060425"><ele>78.0</ele><time>2026-05-01T16:49:54.193Z</time></trkpt><trkpt lat="39.4908502" lon="9.6058744"><ele>73.0</ele><time>2026-05-01T16:49:55.192Z</time></trkpt><trkpt lat="39.4917815" lon="9.6042841"><ele>73.0</ele><time>2026-05-01T16:50:01.193Z</time></trkpt><trkpt lat="39.4920289" lon="9.6042115"><ele>73.0</ele><time>2026-05-01T16:50:02.193Z</time></trkpt><trkpt lat="39.492226" lon="9.6039854"><ele>63.5</ele><time>2026-05-01T16:50:03.192Z</time></trkpt><trkpt lat="39.4924067" lon="9.6037484"><ele>54.0</ele><time>2026-05-01T16:50:04.192Z</time></trkpt><trkpt lat="39.4925883" lon="9.6035055"><ele>54.0</ele><time>2026-05-01T16:50:05.193Z</time></trkpt><trkpt lat="39.4927703" lon="9.6032656"><ele>54.0</ele><time>2026-05-01T16:50:06.193Z</time></trkpt><trkpt lat="39.4929519" lon="9.6030223"><ele>54.5</ele><time>2026-05-01T16:50:07.192Z</time></trkpt><trkpt lat="39.4931346" lon="9.6027765"><ele>55.0</ele><time>2026-05-01T16:50:08.192Z</time></trkpt><trkpt lat="39.4933179" lon="9.6025316"><ele>55.0</ele><time>2026-05-01T16:50:09.192Z</time></trkpt><trkpt lat="39.4934961" lon="9.6022907"><ele>55.0</ele><time>2026-05-01T16:50:10.192Z</time></trkpt><trkpt lat="39.4936754" lon="9.6020503"><ele>60.0</ele><time>2026-05-01T16:50:11.192Z</time></trkpt><trkpt lat="39.4938585" lon="9.601807"><ele>65.0</ele><time>2026-05-01T16:50:12.193Z</time></trkpt><trkpt lat="39.4940383" lon="9.6015625"><ele>65.0</ele><time>2026-05-01T16:50:13.192Z</time></trkpt><trkpt lat="39.4942168" lon="9.6013172"><ele>65.0</ele><time>2026-05-01T16:50:14.193Z</time></trkpt><trkpt lat="39.4943956" lon="9.6010714"><ele>61.5</ele><time>2026-05-01T16:50:15.193Z</time></trkpt><trkpt lat="39.4945753" lon="9.6008256"><ele>58.0</ele><time>2026-05-01T16:50:16.192Z</time></trkpt><trkpt lat="39.4947557" lon="9.6005802"><ele>69.5</ele><time>2026-05-01T16:50:17.192Z</time></trkpt><trkpt lat="39.4949365" lon="9.60033"><ele>81.0</ele><time>2026-05-01T16:50:18.193Z</time></trkpt><trkpt lat="39.4951199" lon="9.6000816"><ele>81.0</ele><time>2026-05-01T16:50:19.192Z</time></trkpt><trkpt lat="39.495302" lon="9.5998327"><ele>81.0</ele><time>2026-05-01T16:50:20.192Z</time></trkpt><trkpt lat="39.4954843" lon="9.5995836"><ele>101.0</ele><time>2026-05-01T16:50:21.192Z</time></trkpt><trkpt lat="39.4962212" lon="9.5985781"><ele>89.0</ele><time>2026-05-01T16:50:25.193Z</time></trkpt><trkpt lat="39.4963882" lon="9.5983532"><ele>77.0</ele><time>2026-05-01T16:50:26.192Z</time></trkpt><trkpt lat="39.4965651" lon="9.5981049"><ele>77.0</ele><time>2026-05-01T16:50:27.193Z</time></trkpt><trkpt lat="39.4967407" lon="9.5979054"><ele>77.0</ele><time>2026-05-01T16:50:28.193Z</time></trkpt><trkpt lat="39.4969356" lon="9.5976436"><ele>66.0</ele><time>2026-05-01T16:50:29.193Z</time></trkpt><trkpt lat="39.4971054" lon="9.5974111"><ele>55.0</ele><time>2026-05-01T16:50:30.191Z</time></trkpt><trkpt lat="39.4972889" lon="9.5971805"><ele>59.0</ele><time>2026-05-01T16:50:31.193Z</time></trkpt><trkpt lat="39.4974815" lon="9.5969508"><ele>63.0</ele><time>2026-05-01T16:50:32.193Z</time></trkpt><trkpt lat="39.4976771" lon="9.5967291"><ele>63.0</ele><time>2026-05-01T16:50:33.192Z</time></trkpt><trkpt lat="39.497877" lon="9.5965147"><ele>63.0</ele><time>2026-05-01T16:50:34.193Z</time></trkpt><trkpt lat="39.4980823" lon="9.5963068"><ele>53.0</ele><time>2026-05-01T16:50:35.192Z</time></trkpt><trkpt lat="39.4982907" lon="9.5961051"><ele>43.0</ele><time>2026-05-01T16:50:36.193Z</time></trkpt><trkpt lat="39.4985047" lon="9.5959126"><ele>43.0</ele><time>2026-05-01T16:50:37.193Z</time></trkpt><trkpt lat="39.4987252" lon="9.5957333"><ele>43.0</ele><time>2026-05-01T16:50:38.192Z</time></trkpt><trkpt lat="39.4989534" lon="9.5955715"><ele>35.0</ele><time>2026-05-01T16:50:39.192Z</time></trkpt><trkpt lat="39.499185" lon="9.5954264"><ele>27.0</ele><time>2026-05-01T16:50:40.192Z</time></trkpt><trkpt lat="39.4994216" lon="9.5952986"><ele>28.0</ele><time>2026-05-01T16:50:41.192Z</time></trkpt><trkpt lat="39.4996628" lon="9.5951897"><ele>29.0</ele><time>2026-05-01T16:50:42.192Z</time></trkpt><trkpt lat="39.4999088" lon="9.5950963"><ele>29.0</ele><time>2026-05-01T16:50:43.193Z</time></trkpt><trkpt lat="39.5001578" lon="9.5950189"><ele>29.0</ele><time>2026-05-01T16:50:44.192Z</time></trkpt><trkpt lat="39.5004115" lon="9.594962"><ele>33.5</ele><time>2026-05-01T16:50:45.193Z</time></trkpt><trkpt lat="39.50067" lon="9.5949199"><ele>38.0</ele><time>2026-05-01T16:50:46.193Z</time></trkpt><trkpt lat="39.5009323" lon="9.5948935"><ele>38.0</ele><time>2026-05-01T16:50:47.193Z</time></trkpt><trkpt lat="39.5011975" lon="9.5948837"><ele>38.0</ele><time>2026-05-01T16:50:48.193Z</time></trkpt><trkpt lat="39.5014628" lon="9.5948907"><ele>37.0</ele><time>2026-05-01T16:50:49.193Z</time></trkpt><trkpt lat="39.5017269" lon="9.5949143"><ele>36.0</ele><time>2026-05-01T16:50:50.192Z</time></trkpt><trkpt lat="39.5019896" lon="9.5949521"><ele>36.0</ele><time>2026-05-01T16:50:51.192Z</time></trkpt><trkpt lat="39.5022517" lon="9.5950001"><ele>36.0</ele><time>2026-05-01T16:50:52.193Z</time></trkpt><trkpt lat="39.5025104" lon="9.5950568"><ele>36.0</ele><time>2026-05-01T16:50:53.193Z</time></trkpt><trkpt lat="39.5027691" lon="9.5951221"><ele>36.0</ele><time>2026-05-01T16:50:54.193Z</time></trkpt><trkpt lat="39.5030289" lon="9.5951939"><ele>38.0</ele><time>2026-05-01T16:50:55.193Z</time></trkpt><trkpt lat="39.50329" lon="9.5952706"><ele>40.0</ele><time>2026-05-01T16:50:56.192Z</time></trkpt><trkpt lat="39.5035522" lon="9.5953486"><ele>46.0</ele><time>2026-05-01T16:50:57.192Z</time></trkpt><trkpt lat="39.503815" lon="9.5954272"><ele>52.0</ele><time>2026-05-01T16:50:58.193Z</time></trkpt><trkpt lat="39.5040783" lon="9.5955054"><ele>52.0</ele><time>2026-05-01T16:50:59.192Z</time></trkpt><trkpt lat="39.5043429" lon="9.5955817"><ele>52.0</ele><time>2026-05-01T16:51:00.193Z</time></trkpt><trkpt lat="39.5046084" lon="9.5956534"><ele>58.5</ele><time>2026-05-01T16:51:01.193Z</time></trkpt><trkpt lat="39.5048729" lon="9.5957216"><ele>65.0</ele><time>2026-05-01T16:51:02.192Z</time></trkpt><trkpt lat="39.5051368" lon="9.5957898"><ele>65.0</ele><time>2026-05-01T16:51:03.193Z</time></trkpt><trkpt lat="39.5054008" lon="9.5958587"><ele>65.0</ele><time>2026-05-01T16:51:04.192Z</time></trkpt><trkpt lat="39.5070471" lon="9.5958642"><ele>48.0</ele><time>2026-05-01T16:51:10.193Z</time></trkpt><trkpt lat="39.5073166" lon="9.5958078"><ele>31.0</ele><time>2026-05-01T16:51:11.192Z</time></trkpt><trkpt lat="39.5075843" lon="9.5957383"><ele>31.0</ele><time>2026-05-01T16:51:12.192Z</time></trkpt><trkpt lat="39.5078561" lon="9.5956547"><ele>31.0</ele><time>2026-05-01T16:51:13.192Z</time></trkpt><trkpt lat="39.5081254" lon="9.5955554"><ele>30.0</ele><time>2026-05-01T16:51:14.192Z</time></trkpt><trkpt lat="39.5083925" lon="9.5954408"><ele>29.0</ele><time>2026-05-01T16:51:15.193Z</time></trkpt><trkpt lat="39.5086575" lon="9.5953122"><ele>26.5</ele><time>2026-05-01T16:51:16.192Z</time></trkpt><trkpt lat="39.508917" lon="9.5951689"><ele>24.0</ele><time>2026-05-01T16:51:17.192Z</time></trkpt><trkpt lat="39.5091731" lon="9.5950137"><ele>24.0</ele><time>2026-05-01T16:51:18.193Z</time></trkpt><trkpt lat="39.5094264" lon="9.5948488"><ele>24.0</ele><time>2026-05-01T16:51:19.193Z</time></trkpt><trkpt lat="39.509673" lon="9.5946716"><ele>33.0</ele><time>2026-05-01T16:51:20.192Z</time></trkpt><trkpt lat="39.5099179" lon="9.5944854"><ele>42.0</ele><time>2026-05-01T16:51:21.192Z</time></trkpt><trkpt lat="39.510161" lon="9.5942901"><ele>42.0</ele><time>2026-05-01T16:51:22.193Z</time></trkpt><trkpt lat="39.5104012" lon="9.5940882"><ele>42.0</ele><time>2026-05-01T16:51:23.193Z</time></trkpt><trkpt lat="39.5106387" lon="9.5938828"><ele>47.5</ele><time>2026-05-01T16:51:24.193Z</time></trkpt><trkpt lat="39.5108734" lon="9.5936707"><ele>53.0</ele><time>2026-05-01T16:51:25.193Z</time></trkpt><trkpt lat="39.5111062" lon="9.5934552"><ele>44.5</ele><time>2026-05-01T16:51:26.192Z</time></trkpt><trkpt lat="39.511336" lon="9.5932333"><ele>36.0</ele><time>2026-05-01T16:51:27.193Z</time></trkpt><trkpt lat="39.5115596" lon="9.593009"><ele>36.0</ele><time>2026-05-01T16:51:28.193Z</time></trkpt><trkpt lat="39.5117807" lon="9.5927844"><ele>36.0</ele><time>2026-05-01T16:51:29.192Z</time></trkpt><trkpt lat="39.5119989" lon="9.5925625"><ele>36.5</ele><time>2026-05-01T16:51:30.193Z</time></trkpt><trkpt lat="39.5122167" lon="9.592342"><ele>37.0</ele><time>2026-05-01T16:51:31.193Z</time></trkpt><trkpt lat="39.512434" lon="9.5921215"><ele>42.0</ele><time>2026-05-01T16:51:32.193Z</time></trkpt><trkpt lat="39.5126503" lon="9.5919007"><ele>47.0</ele><time>2026-05-01T16:51:33.192Z</time></trkpt><trkpt lat="39.5128649" lon="9.5916835"><ele>46.5</ele><time>2026-05-01T16:51:34.192Z</time></trkpt><trkpt lat="39.5130791" lon="9.5914719"><ele>46.0</ele><time>2026-05-01T16:51:35.192Z</time></trkpt><trkpt lat="39.5132935" lon="9.5912636"><ele>49.0</ele><time>2026-05-01T16:51:36.193Z</time></trkpt><trkpt lat="39.5135093" lon="9.5910563"><ele>52.0</ele><time>2026-05-01T16:51:37.193Z</time></trkpt><trkpt lat="39.5137256" lon="9.5908495"><ele>47.0</ele><time>2026-05-01T16:51:38.193Z</time></trkpt><trkpt lat="39.5139406" lon="9.5906477"><ele>42.0</ele><time>2026-05-01T16:51:39.192Z</time></trkpt><trkpt lat="39.5141553" lon="9.5904512"><ele>45.5</ele><time>2026-05-01T16:51:40.193Z</time></trkpt><trkpt lat="39.5143725" lon="9.5902576"><ele>49.0</ele><time>2026-05-01T16:51:41.192Z</time></trkpt><trkpt lat="39.5145993" lon="9.5900698"><ele>50.0</ele><time>2026-05-01T16:51:42.193Z</time></trkpt><trkpt lat="39.5148303" lon="9.5898891"><ele>51.0</ele><time>2026-05-01T16:51:43.192Z</time></trkpt><trkpt lat="39.5150648" lon="9.5897104"><ele>51.0</ele><time>2026-05-01T16:51:44.192Z</time></trkpt><trkpt lat="39.5152937" lon="9.5895324"><ele>51.0</ele><time>2026-05-01T16:51:45.193Z</time></trkpt><trkpt lat="39.5155248" lon="9.5893542"><ele>38.0</ele><time>2026-05-01T16:51:46.192Z</time></trkpt><trkpt lat="39.517547" lon="9.5883389"><ele>38.0</ele><time>2026-05-01T16:51:54.193Z</time></trkpt><trkpt lat="39.5178075" lon="9.5882447"><ele>38.0</ele><time>2026-05-01T16:51:55.193Z</time></trkpt><trkpt lat="39.5180762" lon="9.5881566"><ele>30.0</ele><time>2026-05-01T16:51:56.193Z</time></trkpt><trkpt lat="39.5183439" lon="9.5880714"><ele>22.0</ele><time>2026-05-01T16:51:57.192Z</time></trkpt><trkpt lat="39.518617" lon="9.5879897"><ele>19.5</ele><time>2026-05-01T16:51:58.192Z</time></trkpt><trkpt lat="39.5188909" lon="9.5879151"><ele>17.0</ele><time>2026-05-01T16:51:59.192Z</time></trkpt><trkpt lat="39.5191669" lon="9.5878484"><ele>18.0</ele><time>2026-05-01T16:52:00.193Z</time></trkpt><trkpt lat="39.5194425" lon="9.5877836"><ele>19.0</ele><time>2026-05-01T16:52:01.192Z</time></trkpt><trkpt lat="39.51972" lon="9.5877204"><ele>23.0</ele><time>2026-05-01T16:52:02.192Z</time></trkpt><trkpt lat="39.519998" lon="9.5876562"><ele>27.0</ele><time>2026-05-01T16:52:03.193Z</time></trkpt><trkpt lat="39.5202763" lon="9.5875934"><ele>34.0</ele><time>2026-05-01T16:52:04.192Z</time></trkpt><trkpt lat="39.5205555" lon="9.5875282"><ele>41.0</ele><time>2026-05-01T16:52:05.193Z</time></trkpt><trkpt lat="39.5208333" lon="9.5874649"><ele>41.0</ele><time>2026-05-01T16:52:06.192Z</time></trkpt><trkpt lat="39.5211122" lon="9.5874062"><ele>41.0</ele><time>2026-05-01T16:52:07.193Z</time></trkpt><trkpt lat="39.521391" lon="9.5873465"><ele>25.0</ele><time>2026-05-01T16:52:08.192Z</time></trkpt><trkpt lat="39.5234917" lon="9.5870742"><ele>19.0</ele><time>2026-05-01T16:52:16.192Z</time></trkpt><trkpt lat="39.5237476" lon="9.587079"><ele>13.0</ele><time>2026-05-01T16:52:17.192Z</time></trkpt><trkpt lat="39.5240011" lon="9.5870834"><ele>13.0</ele><time>2026-05-01T16:52:18.193Z</time></trkpt><trkpt lat="39.5242528" lon="9.5870963"><ele>13.0</ele><time>2026-05-01T16:52:19.193Z</time></trkpt><trkpt lat="39.5245043" lon="9.5871201"><ele>13.0</ele><time>2026-05-01T16:52:20.193Z</time></trkpt><trkpt lat="39.524756" lon="9.5871554"><ele>13.0</ele><time>2026-05-01T16:52:21.193Z</time></trkpt><trkpt lat="39.5250105" lon="9.5871985"><ele>13.0</ele><time>2026-05-01T16:52:22.193Z</time></trkpt><trkpt lat="39.5252681" lon="9.5872549"><ele>13.0</ele><time>2026-05-01T16:52:23.193Z</time></trkpt><trkpt lat="39.5255266" lon="9.5873169"><ele>12.0</ele><time>2026-05-01T16:52:24.192Z</time></trkpt><trkpt lat="39.5257847" lon="9.5873894"><ele>11.0</ele><time>2026-05-01T16:52:25.192Z</time></trkpt><trkpt lat="39.5260461" lon="9.5874657"><ele>10.0</ele><time>2026-05-01T16:52:26.193Z</time></trkpt><trkpt lat="39.5263032" lon="9.5875468"><ele>9.0</ele><time>2026-05-01T16:52:27.192Z</time></trkpt><trkpt lat="39.5265612" lon="9.5876356"><ele>9.0</ele><time>2026-05-01T16:52:28.192Z</time></trkpt><trkpt lat="39.5268121" lon="9.5877309"><ele>9.0</ele><time>2026-05-01T16:52:29.193Z</time></trkpt><trkpt lat="39.5270638" lon="9.5878328"><ele>11.5</ele><time>2026-05-01T16:52:30.193Z</time></trkpt><trkpt lat="39.5273131" lon="9.5879401"><ele>14.0</ele><time>2026-05-01T16:52:31.192Z</time></trkpt><trkpt lat="39.5275619" lon="9.5880491"><ele>19.0</ele><time>2026-05-01T16:52:32.193Z</time></trkpt><trkpt lat="39.5280555" lon="9.5882682"><ele>19.0</ele><time>2026-05-01T16:52:34.192Z</time></trkpt><trkpt lat="39.5282998" lon="9.5883775"><ele>19.0</ele><time>2026-05-01T16:52:35.192Z</time></trkpt><trkpt lat="39.5285427" lon="9.588487"><ele>25.0</ele><time>2026-05-01T16:52:36.192Z</time></trkpt><trkpt lat="39.5287862" lon="9.5885964"><ele>31.0</ele><time>2026-05-01T16:52:37.192Z</time></trkpt><trkpt lat="39.5290292" lon="9.5887071"><ele>27.0</ele><time>2026-05-01T16:52:38.192Z</time></trkpt><trkpt lat="39.5292722" lon="9.5888176"><ele>23.0</ele><time>2026-05-01T16:52:39.193Z</time></trkpt><trkpt lat="39.5312012" lon="9.589761"><ele>25.0</ele><time>2026-05-01T16:52:47.192Z</time></trkpt><trkpt lat="39.5314416" lon="9.5898615"><ele>27.0</ele><time>2026-05-01T16:52:48.193Z</time></trkpt><trkpt lat="39.5316849" lon="9.5899769"><ele>27.0</ele><time>2026-05-01T16:52:49.192Z</time></trkpt><trkpt lat="39.5319337" lon="9.5900924"><ele>27.0</ele><time>2026-05-01T16:52:50.192Z</time></trkpt><trkpt lat="39.5321792" lon="9.5902038"><ele>24.0</ele><time>2026-05-01T16:52:51.193Z</time></trkpt><trkpt lat="39.5324241" lon="9.5903161"><ele>21.0</ele><time>2026-05-01T16:52:52.193Z</time></trkpt><trkpt lat="39.5326668" lon="9.5904263"><ele>20.5</ele><time>2026-05-01T16:52:53.192Z</time></trkpt><trkpt lat="39.5329109" lon="9.5905343"><ele>20.0</ele><time>2026-05-01T16:52:54.193Z</time></trkpt><trkpt lat="39.5331569" lon="9.590637"><ele>20.0</ele><time>2026-05-01T16:52:55.192Z</time></trkpt><trkpt lat="39.5334048" lon="9.5907352"><ele>20.0</ele><time>2026-05-01T16:52:56.193Z</time></trkpt><trkpt lat="39.5336552" lon="9.5908293"><ele>25.5</ele><time>2026-05-01T16:52:57.193Z</time></trkpt><trkpt lat="39.5339071" lon="9.5909179"><ele>31.0</ele><time>2026-05-01T16:52:58.192Z</time></trkpt><trkpt lat="39.5341575" lon="9.5910022"><ele>31.0</ele><time>2026-05-01T16:52:59.192Z</time></trkpt><trkpt lat="39.5344092" lon="9.5910833"><ele>31.0</ele><time>2026-05-01T16:53:00.192Z</time></trkpt><trkpt lat="39.5346609" lon="9.5911612"><ele>26.0</ele><time>2026-05-01T16:53:01.193Z</time></trkpt><trkpt lat="39.5349102" lon="9.5912316"><ele>21.0</ele><time>2026-05-01T16:53:02.193Z</time></trkpt><trkpt lat="39.5351591" lon="9.5912951"><ele>18.0</ele><time>2026-05-01T16:53:03.192Z</time></trkpt><trkpt lat="39.5354094" lon="9.5913555"><ele>15.0</ele><time>2026-05-01T16:53:04.192Z</time></trkpt><trkpt lat="39.5356617" lon="9.5914121"><ele>15.0</ele><time>2026-05-01T16:53:05.193Z</time></trkpt><trkpt lat="39.535916" lon="9.5914662"><ele>15.0</ele><time>2026-05-01T16:53:06.193Z</time></trkpt><trkpt lat="39.5361753" lon="9.5915141"><ele>18.0</ele><time>2026-05-01T16:53:07.193Z</time></trkpt><trkpt lat="39.5364363" lon="9.5915564"><ele>21.0</ele><time>2026-05-01T16:53:08.193Z</time></trkpt><trkpt lat="39.5366987" lon="9.5915941"><ele>21.0</ele><time>2026-05-01T16:53:09.192Z</time></trkpt><trkpt lat="39.536963" lon="9.5916305"><ele>21.0</ele><time>2026-05-01T16:53:10.193Z</time></trkpt><trkpt lat="39.5372285" lon="9.5916673"><ele>25.5</ele><time>2026-05-01T16:53:11.192Z</time></trkpt><trkpt lat="39.5374946" lon="9.5917028"><ele>30.0</ele><time>2026-05-01T16:53:12.192Z</time></trkpt><trkpt lat="39.5377629" lon="9.5917362"><ele>29.5</ele><time>2026-05-01T16:53:13.192Z</time></trkpt><trkpt lat="39.5380267" lon="9.5917678"><ele>29.0</ele><time>2026-05-01T16:53:14.192Z</time></trkpt><trkpt lat="39.5382929" lon="9.5918003"><ele>29.0</ele><time>2026-05-01T16:53:15.193Z</time></trkpt><trkpt lat="39.5385581" lon="9.5918317"><ele>29.0</ele><time>2026-05-01T16:53:16.193Z</time></trkpt><trkpt lat="39.5388251" lon="9.5918633"><ele>29.5</ele><time>2026-05-01T16:53:17.193Z</time></trkpt><trkpt lat="39.5390912" lon="9.591894"><ele>30.0</ele><time>2026-05-01T16:53:18.192Z</time></trkpt><trkpt lat="39.5393566" lon="9.5919262"><ele>38.0</ele><time>2026-05-01T16:53:19.193Z</time></trkpt><trkpt lat="39.5396217" lon="9.591959"><ele>46.0</ele><time>2026-05-01T16:53:20.192Z</time></trkpt><trkpt lat="39.5398879" lon="9.5919904"><ele>37.5</ele><time>2026-05-01T16:53:21.192Z</time></trkpt><trkpt lat="39.5401529" lon="9.5920179"><ele>29.0</ele><time>2026-05-01T16:53:22.192Z</time></trkpt><trkpt lat="39.5404169" lon="9.5920428"><ele>29.0</ele><time>2026-05-01T16:53:23.193Z</time></trkpt><trkpt lat="39.5406806" lon="9.5920681"><ele>29.0</ele><time>2026-05-01T16:53:24.192Z</time></trkpt><trkpt lat="39.5409469" lon="9.5920926"><ele>27.0</ele><time>2026-05-01T16:53:25.193Z</time></trkpt><trkpt lat="39.541216" lon="9.5921147"><ele>25.0</ele><time>2026-05-01T16:53:26.193Z</time></trkpt><trkpt lat="39.5414868" lon="9.5921334"><ele>25.0</ele><time>2026-05-01T16:53:27.193Z</time></trkpt><trkpt lat="39.5417622" lon="9.5921486"><ele>25.0</ele><time>2026-05-01T16:53:28.193Z</time></trkpt><trkpt lat="39.5420391" lon="9.5921605"><ele>21.0</ele><time>2026-05-01T16:53:29.192Z</time></trkpt><trkpt lat="39.5423196" lon="9.5921663"><ele>17.0</ele><time>2026-05-01T16:53:30.192Z</time></trkpt><trkpt lat="39.5426017" lon="9.5921665"><ele>19.5</ele><time>2026-05-01T16:53:31.192Z</time></trkpt><trkpt lat="39.5428862" lon="9.5921617"><ele>22.0</ele><time>2026-05-01T16:53:32.192Z</time></trkpt><trkpt lat="39.5431727" lon="9.5921484"><ele>22.0</ele><time>2026-05-01T16:53:33.192Z</time></trkpt><trkpt lat="39.5434602" lon="9.5921306"><ele>22.0</ele><time>2026-05-01T16:53:34.192Z</time></trkpt><trkpt lat="39.543749" lon="9.5921075"><ele>21.5</ele><time>2026-05-01T16:53:35.192Z</time></trkpt><trkpt lat="39.5440395" lon="9.5920787"><ele>21.0</ele><time>2026-05-01T16:53:36.193Z</time></trkpt><trkpt lat="39.5443316" lon="9.5920427"><ele>28.5</ele><time>2026-05-01T16:53:37.192Z</time></trkpt><trkpt lat="39.5446245" lon="9.5920001"><ele>36.0</ele><time>2026-05-01T16:53:38.192Z</time></trkpt><trkpt lat="39.5449184" lon="9.5919515"><ele>36.0</ele><time>2026-05-01T16:53:39.193Z</time></trkpt><trkpt lat="39.5452157" lon="9.5918972"><ele>36.0</ele><time>2026-05-01T16:53:40.192Z</time></trkpt><trkpt lat="39.5455108" lon="9.5918372"><ele>33.5</ele><time>2026-05-01T16:53:41.192Z</time></trkpt><trkpt lat="39.5458044" lon="9.591768"><ele>31.0</ele><time>2026-05-01T16:53:42.193Z</time></trkpt><trkpt lat="39.5460947" lon="9.5916922"><ele>27.5</ele><time>2026-05-01T16:53:43.193Z</time></trkpt><trkpt lat="39.5463849" lon="9.591611"><ele>24.0</ele><time>2026-05-01T16:53:44.192Z</time></trkpt><trkpt lat="39.5466752" lon="9.5915238"><ele>24.0</ele><time>2026-05-01T16:53:45.192Z</time></trkpt><trkpt lat="39.5469599" lon="9.5914327"><ele>24.0</ele><time>2026-05-01T16:53:46.193Z</time></trkpt><trkpt lat="39.5472429" lon="9.5913372"><ele>23.5</ele><time>2026-05-01T16:53:47.192Z</time></trkpt><trkpt lat="39.5475203" lon="9.5912378"><ele>23.0</ele><time>2026-05-01T16:53:48.192Z</time></trkpt><trkpt lat="39.5477947" lon="9.5911328"><ele>27.5</ele><time>2026-05-01T16:53:49.192Z</time></trkpt><trkpt lat="39.5480668" lon="9.5910242"><ele>32.0</ele><time>2026-05-01T16:53:50.193Z</time></trkpt><trkpt lat="39.5483358" lon="9.5909129"><ele>32.0</ele><time>2026-05-01T16:53:51.192Z</time></trkpt><trkpt lat="39.548603" lon="9.5908007"><ele>32.0</ele><time>2026-05-01T16:53:52.192Z</time></trkpt><trkpt lat="39.5488695" lon="9.5906878"><ele>31.0</ele><time>2026-05-01T16:53:53.192Z</time></trkpt><trkpt lat="39.5491347" lon="9.5905732"><ele>30.0</ele><time>2026-05-01T16:53:54.192Z</time></trkpt><trkpt lat="39.5493995" lon="9.5904563"><ele>30.5</ele><time>2026-05-01T16:53:55.192Z</time></trkpt><trkpt lat="39.5496644" lon="9.5903404"><ele>31.0</ele><time>2026-05-01T16:53:56.193Z</time></trkpt><trkpt lat="39.5499298" lon="9.5902236"><ele>31.0</ele><time>2026-05-01T16:53:57.193Z</time></trkpt><trkpt lat="39.5501955" lon="9.5901062"><ele>31.0</ele><time>2026-05-01T16:53:58.193Z</time></trkpt><trkpt lat="39.5504621" lon="9.5899886"><ele>27.5</ele><time>2026-05-01T16:53:59.193Z</time></trkpt><trkpt lat="39.5507276" lon="9.589871"><ele>24.0</ele><time>2026-05-01T16:54:00.193Z</time></trkpt><trkpt lat="39.5509939" lon="9.5897537"><ele>24.5</ele><time>2026-05-01T16:54:01.192Z</time></trkpt><trkpt lat="39.5512607" lon="9.5896369"><ele>25.0</ele><time>2026-05-01T16:54:02.193Z</time></trkpt><trkpt lat="39.551528" lon="9.5895203"><ele>26.5</ele><time>2026-05-01T16:54:03.192Z</time></trkpt><trkpt lat="39.5517963" lon="9.5894023"><ele>28.0</ele><time>2026-05-01T16:54:04.193Z</time></trkpt><trkpt lat="39.552063" lon="9.5892849"><ele>29.0</ele><time>2026-05-01T16:54:05.193Z</time></trkpt><trkpt lat="39.5523279" lon="9.5891672"><ele>30.0</ele><time>2026-05-01T16:54:06.193Z</time></trkpt><trkpt lat="39.5525914" lon="9.5890489"><ele>30.0</ele><time>2026-05-01T16:54:07.193Z</time></trkpt><trkpt lat="39.5528525" lon="9.5889325"><ele>30.0</ele><time>2026-05-01T16:54:08.192Z</time></trkpt><trkpt lat="39.5531153" lon="9.5888178"><ele>34.5</ele><time>2026-05-01T16:54:09.192Z</time></trkpt><trkpt lat="39.5533785" lon="9.588704"><ele>39.0</ele><time>2026-05-01T16:54:10.193Z</time></trkpt><trkpt lat="39.5536432" lon="9.5885897"><ele>42.5</ele><time>2026-05-01T16:54:11.193Z</time></trkpt><trkpt lat="39.5539063" lon="9.5884734"><ele>46.0</ele><time>2026-05-01T16:54:12.192Z</time></trkpt><trkpt lat="39.5541677" lon="9.588356"><ele>46.0</ele><time>2026-05-01T16:54:13.192Z</time></trkpt><trkpt lat="39.5544308" lon="9.5882379"><ele>46.0</ele><time>2026-05-01T16:54:14.193Z</time></trkpt><trkpt lat="39.5546928" lon="9.5881204"><ele>40.0</ele><time>2026-05-01T16:54:15.193Z</time></trkpt><trkpt lat="39.5549553" lon="9.5880057"><ele>34.0</ele><time>2026-05-01T16:54:16.192Z</time></trkpt><trkpt lat="39.5552202" lon="9.58789"><ele>31.0</ele><time>2026-05-01T16:54:17.192Z</time></trkpt><trkpt lat="39.5554873" lon="9.5877724"><ele>28.0</ele><time>2026-05-01T16:54:18.192Z</time></trkpt><trkpt lat="39.5557579" lon="9.5876552"><ele>28.0</ele><time>2026-05-01T16:54:19.193Z</time></trkpt><trkpt lat="39.5560283" lon="9.5875358"><ele>28.0</ele><time>2026-05-01T16:54:20.192Z</time></trkpt><trkpt lat="39.556287" lon="9.5874205"><ele>26.0</ele><time>2026-05-01T16:54:21.193Z</time></trkpt><trkpt lat="39.5565371" lon="9.5873072"><ele>24.0</ele><time>2026-05-01T16:54:22.193Z</time></trkpt><trkpt lat="39.556787" lon="9.5871968"><ele>24.0</ele><time>2026-05-01T16:54:23.193Z</time></trkpt><trkpt lat="39.5570314" lon="9.5870853"><ele>24.0</ele><time>2026-05-01T16:54:24.192Z</time></trkpt><trkpt lat="39.5572766" lon="9.5869766"><ele>24.5</ele><time>2026-05-01T16:54:25.193Z</time></trkpt><trkpt lat="39.5575248" lon="9.5868671"><ele>25.0</ele><time>2026-05-01T16:54:26.192Z</time></trkpt><trkpt lat="39.5580216" lon="9.5866469"><ele>25.0</ele><time>2026-05-01T16:54:28.192Z</time></trkpt><trkpt lat="39.5582649" lon="9.5865362"><ele>25.0</ele><time>2026-05-01T16:54:29.192Z</time></trkpt><trkpt lat="39.5585075" lon="9.5864292"><ele>29.0</ele><time>2026-05-01T16:54:30.193Z</time></trkpt><trkpt lat="39.5587456" lon="9.5863298"><ele>33.0</ele><time>2026-05-01T16:54:31.193Z</time></trkpt><trkpt lat="39.558973" lon="9.5862415"><ele>32.0</ele><time>2026-05-01T16:54:32.192Z</time></trkpt><trkpt lat="39.5591977" lon="9.5861597"><ele>31.0</ele><time>2026-05-01T16:54:33.193Z</time></trkpt><trkpt lat="39.5594113" lon="9.5860917"><ele>32.333333333333336</ele><time>2026-05-01T16:54:34.192Z</time></trkpt><trkpt lat="39.5596195" lon="9.5860306"><ele>33.666666666666664</ele><time>2026-05-01T16:54:35.193Z</time></trkpt><trkpt lat="39.5598136" lon="9.5859847"><ele>35.0</ele><time>2026-05-01T16:54:36.193Z</time></trkpt><trkpt lat="39.5600033" lon="9.5859514"><ele>35.0</ele><time>2026-05-01T16:54:37.192Z</time></trkpt><trkpt lat="39.5601937" lon="9.5859291"><ele>35.0</ele><time>2026-05-01T16:54:38.192Z</time></trkpt><trkpt lat="39.5603795" lon="9.5859199"><ele>35.0</ele><time>2026-05-01T16:54:39.193Z</time></trkpt><trkpt lat="39.560565" lon="9.5859236"><ele>35.33333333333333</ele><time>2026-05-01T16:54:40.193Z</time></trkpt><trkpt lat="39.5607536" lon="9.5859327"><ele>35.666666666666664</ele><time>2026-05-01T16:54:41.192Z</time></trkpt><trkpt lat="39.5609316" lon="9.5859408"><ele>36.0</ele><time>2026-05-01T16:54:42.193Z</time></trkpt><trkpt lat="39.5610997" lon="9.585948"><ele>33.75</ele><time>2026-05-01T16:54:43.192Z</time></trkpt><trkpt lat="39.5612478" lon="9.585954"><ele>31.5</ele><time>2026-05-01T16:54:44.192Z</time></trkpt><trkpt lat="39.5613844" lon="9.5859611"><ele>29.25</ele><time>2026-05-01T16:54:45.192Z</time></trkpt><trkpt lat="39.5615079" lon="9.5859695"><ele>27.0</ele><time>2026-05-01T16:54:46.193Z</time></trkpt><trkpt lat="39.5616108" lon="9.5859985"><ele>27.0</ele><time>2026-05-01T16:54:47.191Z</time></trkpt><trkpt lat="39.5616964" lon="9.5860521"><ele>27.000000000000004</ele><time>2026-05-01T16:54:48.192Z</time></trkpt><trkpt lat="39.561762" lon="9.5861175"><ele>27.000000000000004</ele><time>2026-05-01T16:54:49.192Z</time></trkpt><trkpt lat="39.5618172" lon="9.5862007"><ele>27.0</ele><time>2026-05-01T16:54:50.192Z</time></trkpt><trkpt lat="39.5618648" lon="9.5863141"><ele>27.0</ele><time>2026-05-01T16:54:51.192Z</time></trkpt><trkpt lat="39.5618944" lon="9.5864388"><ele>25.8</ele><time>2026-05-01T16:54:52.193Z</time></trkpt><trkpt lat="39.5619124" lon="9.5865568"><ele>24.6</ele><time>2026-05-01T16:54:53.192Z</time></trkpt><trkpt lat="39.5619302" lon="9.5866934"><ele>23.400000000000002</ele><time>2026-05-01T16:54:54.193Z</time></trkpt><trkpt lat="39.5619398" lon="9.5868256"><ele>22.200000000000003</ele><time>2026-05-01T16:54:55.193Z</time></trkpt><trkpt lat="39.5619315" lon="9.5869463"><ele>21.0</ele><time>2026-05-01T16:54:56.192Z</time></trkpt><trkpt lat="39.5619162" lon="9.5870527"><ele>20.6</ele><time>2026-05-01T16:54:57.192Z</time></trkpt><trkpt lat="39.5619037" lon="9.587144"><ele>20.200000000000003</ele><time>2026-05-01T16:54:58.192Z</time></trkpt><trkpt lat="39.56191" lon="9.5872889"><ele>19.799999999999997</ele><time>2026-05-01T16:55:00.192Z</time></trkpt><trkpt lat="39.5619471" lon="9.58738"><ele>19.4</ele><time>2026-05-01T16:55:06.192Z</time></trkpt><trkpt lat="39.5620292" lon="9.5874345"><ele>19.0</ele><time>2026-05-01T16:55:09.193Z</time></trkpt><trkpt lat="39.5621358" lon="9.5874047"><ele>19.0</ele><time>2026-05-01T16:55:11.193Z</time></trkpt><trkpt lat="39.5622487" lon="9.5873666"><ele>19.0</ele><time>2026-05-01T16:55:12.193Z</time></trkpt><trkpt lat="39.5623893" lon="9.587326"><ele>19.0</ele><time>2026-05-01T16:55:13.193Z</time></trkpt><trkpt lat="39.5625346" lon="9.587296"><ele>19.0</ele><time>2026-05-01T16:55:14.192Z</time></trkpt><trkpt lat="39.5626743" lon="9.5872729"><ele>19.0</ele><time>2026-05-01T16:55:15.193Z</time></trkpt><trkpt lat="39.5628168" lon="9.5872469"><ele>19.0</ele><time>2026-05-01T16:55:16.193Z</time></trkpt><trkpt lat="39.5629584" lon="9.5872177"><ele>19.0</ele><time>2026-05-01T16:55:17.192Z</time></trkpt><trkpt lat="39.5630944" lon="9.5871913"><ele>19.0</ele><time>2026-05-01T16:55:18.192Z</time></trkpt><trkpt lat="39.5632325" lon="9.5871637"><ele>18.75</ele><time>2026-05-01T16:55:19.193Z</time></trkpt><trkpt lat="39.5633615" lon="9.5871528"><ele>18.5</ele><time>2026-05-01T16:55:20.192Z</time></trkpt><trkpt lat="39.5634842" lon="9.5871666"><ele>18.25</ele><time>2026-05-01T16:55:21.193Z</time></trkpt><trkpt lat="39.5636076" lon="9.5872079"><ele>18.0</ele><time>2026-05-01T16:55:22.192Z</time></trkpt><trkpt lat="39.5637254" lon="9.5872717"><ele>18.5</ele><time>2026-05-01T16:55:23.193Z</time></trkpt><trkpt lat="39.5638382" lon="9.587352"><ele>19.0</ele><time>2026-05-01T16:55:24.193Z</time></trkpt><trkpt lat="39.563955" lon="9.5874387"><ele>19.5</ele><time>2026-05-01T16:55:25.193Z</time></trkpt><trkpt lat="39.5640734" lon="9.5875294"><ele>20.0</ele><time>2026-05-01T16:55:26.193Z</time></trkpt><trkpt lat="39.5641951" lon="9.5876229"><ele>20.0</ele><time>2026-05-01T16:55:27.192Z</time></trkpt><trkpt lat="39.5643212" lon="9.5877179"><ele>20.0</ele><time>2026-05-01T16:55:28.193Z</time></trkpt><trkpt lat="39.5644504" lon="9.5878148"><ele>20.0</ele><time>2026-05-01T16:55:29.193Z</time></trkpt><trkpt lat="39.564583" lon="9.5879155"><ele>20.0</ele><time>2026-05-01T16:55:30.193Z</time></trkpt><trkpt lat="39.5647196" lon="9.5880213"><ele>20.0</ele><time>2026-05-01T16:55:31.193Z</time></trkpt><trkpt lat="39.5648601" lon="9.5881291"><ele>20.0</ele><time>2026-05-01T16:55:32.192Z</time></trkpt><trkpt lat="39.5650035" lon="9.5882402"><ele>20.0</ele><time>2026-05-01T16:55:33.193Z</time></trkpt><trkpt lat="39.5651438" lon="9.5883493"><ele>20.0</ele><time>2026-05-01T16:55:34.192Z</time></trkpt><trkpt lat="39.565286" lon="9.5884569"><ele>20.0</ele><time>2026-05-01T16:55:35.192Z</time></trkpt><trkpt lat="39.5654314" lon="9.5885679"><ele>20.0</ele><time>2026-05-01T16:55:36.193Z</time></trkpt><trkpt lat="39.5655827" lon="9.5886819"><ele>20.666666666666668</ele><time>2026-05-01T16:55:37.192Z</time></trkpt><trkpt lat="39.5657409" lon="9.5887983"><ele>21.333333333333332</ele><time>2026-05-01T16:55:38.193Z</time></trkpt><trkpt lat="39.5658993" lon="9.5889195"><ele>22.0</ele><time>2026-05-01T16:55:39.193Z</time></trkpt><trkpt lat="39.566061" lon="9.5890427"><ele>22.333333333333332</ele><time>2026-05-01T16:55:40.193Z</time></trkpt><trkpt lat="39.5662288" lon="9.5891677"><ele>22.666666666666668</ele><time>2026-05-01T16:55:41.192Z</time></trkpt><trkpt lat="39.5663972" lon="9.5892901"><ele>23.0</ele><time>2026-05-01T16:55:42.192Z</time></trkpt><trkpt lat="39.5665702" lon="9.5893975"><ele>23.0</ele><time>2026-05-01T16:55:43.193Z</time></trkpt><trkpt lat="39.5667518" lon="9.5894726"><ele>23.0</ele><time>2026-05-01T16:55:44.193Z</time></trkpt><trkpt lat="39.5669416" lon="9.5895212"><ele>23.0</ele><time>2026-05-01T16:55:45.192Z</time></trkpt><trkpt lat="39.5671352" lon="9.5895569"><ele>23.333333333333336</ele><time>2026-05-01T16:55:46.192Z</time></trkpt><trkpt lat="39.5673374" lon="9.5895888"><ele>23.666666666666668</ele><time>2026-05-01T16:55:47.193Z</time></trkpt><trkpt lat="39.5675463" lon="9.5896227"><ele>24.0</ele><time>2026-05-01T16:55:48.193Z</time></trkpt><trkpt lat="39.5677579" lon="9.5896571"><ele>23.666666666666668</ele><time>2026-05-01T16:55:49.192Z</time></trkpt><trkpt lat="39.5679723" lon="9.5896896"><ele>23.333333333333336</ele><time>2026-05-01T16:55:50.192Z</time></trkpt><trkpt lat="39.5681916" lon="9.5897245"><ele>23.0</ele><time>2026-05-01T16:55:51.193Z</time></trkpt><trkpt lat="39.5684128" lon="9.5897602"><ele>23.0</ele><time>2026-05-01T16:55:52.193Z</time></trkpt><trkpt lat="39.5686374" lon="9.5897947"><ele>23.0</ele><time>2026-05-01T16:55:53.192Z</time></trkpt><trkpt lat="39.5688652" lon="9.5898296"><ele>21.5</ele><time>2026-05-01T16:55:54.193Z</time></trkpt><trkpt lat="39.5690938" lon="9.5898656"><ele>20.0</ele><time>2026-05-01T16:55:55.193Z</time></trkpt><trkpt lat="39.5693177" lon="9.589901"><ele>21.0</ele><time>2026-05-01T16:55:56.193Z</time></trkpt><trkpt lat="39.5695409" lon="9.5899356"><ele>22.0</ele><time>2026-05-01T16:55:57.192Z</time></trkpt><trkpt lat="39.569764" lon="9.5899688"><ele>23.0</ele><time>2026-05-01T16:55:58.193Z</time></trkpt><trkpt lat="39.5699871" lon="9.5900001"><ele>23.0</ele><time>2026-05-01T16:55:59.192Z</time></trkpt><trkpt lat="39.5702083" lon="9.5900332"><ele>23.0</ele><time>2026-05-01T16:56:00.192Z</time></trkpt><trkpt lat="39.570428" lon="9.590067"><ele>23.0</ele><time>2026-05-01T16:56:01.192Z</time></trkpt><trkpt lat="39.5706448" lon="9.5901016"><ele>23.333333333333336</ele><time>2026-05-01T16:56:02.193Z</time></trkpt><trkpt lat="39.5708587" lon="9.5901373"><ele>23.666666666666668</ele><time>2026-05-01T16:56:03.193Z</time></trkpt><trkpt lat="39.5710629" lon="9.5901598"><ele>24.0</ele><time>2026-05-01T16:56:04.192Z</time></trkpt><trkpt lat="39.5712579" lon="9.5901559"><ele>24.0</ele><time>2026-05-01T16:56:05.193Z</time></trkpt><trkpt lat="39.5714502" lon="9.5901257"><ele>24.0</ele><time>2026-05-01T16:56:06.193Z</time></trkpt><trkpt lat="39.5716336" lon="9.5900614"><ele>24.0</ele><time>2026-05-01T16:56:07.192Z</time></trkpt><trkpt lat="39.5718158" lon="9.5899909"><ele>24.0</ele><time>2026-05-01T16:56:08.193Z</time></trkpt><trkpt lat="39.5719985" lon="9.5899393"><ele>24.0</ele><time>2026-05-01T16:56:09.192Z</time></trkpt><trkpt lat="39.5721757" lon="9.5899317"><ele>24.0</ele><time>2026-05-01T16:56:10.193Z</time></trkpt><trkpt lat="39.5723449" lon="9.5899526"><ele>24.666666666666664</ele><time>2026-05-01T16:56:11.192Z</time></trkpt><trkpt lat="39.5725052" lon="9.5899707"><ele>25.333333333333332</ele><time>2026-05-01T16:56:12.193Z</time></trkpt><trkpt lat="39.5726593" lon="9.5899552"><ele>26.0</ele><time>2026-05-01T16:56:13.193Z</time></trkpt><trkpt lat="39.5727961" lon="9.5898969"><ele>25.666666666666664</ele><time>2026-05-01T16:56:14.193Z</time></trkpt><trkpt lat="39.5729174" lon="9.5898112"><ele>25.333333333333336</ele><time>2026-05-01T16:56:15.192Z</time></trkpt><trkpt lat="39.5730387" lon="9.5896814"><ele>25.0</ele><time>2026-05-01T16:56:16.193Z</time></trkpt><trkpt lat="39.5731708" lon="9.5895227"><ele>26.0</ele><time>2026-05-01T16:56:17.193Z</time></trkpt><trkpt lat="39.5733211" lon="9.589366"><ele>27.0</ele><time>2026-05-01T16:56:18.193Z</time></trkpt><trkpt lat="39.5734732" lon="9.5892261"><ele>28.0</ele><time>2026-05-01T16:56:19.193Z</time></trkpt><trkpt lat="39.5736206" lon="9.5890904"><ele>28.0</ele><time>2026-05-01T16:56:20.192Z</time></trkpt><trkpt lat="39.5737719" lon="9.5889357"><ele>28.0</ele><time>2026-05-01T16:56:21.192Z</time></trkpt><trkpt lat="39.5739124" lon="9.5887859"><ele>28.0</ele><time>2026-05-01T16:56:22.192Z</time></trkpt><trkpt lat="39.5740445" lon="9.5886444"><ele>28.5</ele><time>2026-05-01T16:56:23.192Z</time></trkpt><trkpt lat="39.5741714" lon="9.5885149"><ele>29.0</ele><time>2026-05-01T16:56:24.192Z</time></trkpt><trkpt lat="39.5742944" lon="9.5884131"><ele>29.5</ele><time>2026-05-01T16:56:25.192Z</time></trkpt><trkpt lat="39.5744216" lon="9.5883539"><ele>30.0</ele><time>2026-05-01T16:56:26.193Z</time></trkpt><trkpt lat="39.5745608" lon="9.5883348"><ele>28.75</ele><time>2026-05-01T16:56:27.193Z</time></trkpt><trkpt lat="39.5747045" lon="9.5883552"><ele>27.5</ele><time>2026-05-01T16:56:28.193Z</time></trkpt><trkpt lat="39.5748425" lon="9.5884222"><ele>26.25</ele><time>2026-05-01T16:56:29.192Z</time></trkpt><trkpt lat="39.5749742" lon="9.5885289"><ele>25.0</ele><time>2026-05-01T16:56:30.192Z</time></trkpt><trkpt lat="39.5751043" lon="9.588667"><ele>25.0</ele><time>2026-05-01T16:56:31.192Z</time></trkpt><trkpt lat="39.575243" lon="9.5888264"><ele>25.0</ele><time>2026-05-01T16:56:32.193Z</time></trkpt><trkpt lat="39.5753989" lon="9.5890011"><ele>25.0</ele><time>2026-05-01T16:56:33.192Z</time></trkpt><trkpt lat="39.5755623" lon="9.5891846"><ele>24.666666666666668</ele><time>2026-05-01T16:56:34.193Z</time></trkpt><trkpt lat="39.5757297" lon="9.5893753"><ele>24.333333333333336</ele><time>2026-05-01T16:56:35.192Z</time></trkpt><trkpt lat="39.575884" lon="9.5895518"><ele>24.0</ele><time>2026-05-01T16:56:36.193Z</time></trkpt><trkpt lat="39.5760404" lon="9.5897291"><ele>24.333333333333336</ele><time>2026-05-01T16:56:37.193Z</time></trkpt><trkpt lat="39.5761893" lon="9.5898867"><ele>24.666666666666668</ele><time>2026-05-01T16:56:38.192Z</time></trkpt><trkpt lat="39.5763456" lon="9.5900197"><ele>25.0</ele><time>2026-05-01T16:56:39.192Z</time></trkpt><trkpt lat="39.5765158" lon="9.5901312"><ele>25.0</ele><time>2026-05-01T16:56:40.192Z</time></trkpt><trkpt lat="39.5766988" lon="9.5902124"><ele>25.0</ele><time>2026-05-01T16:56:41.192Z</time></trkpt><trkpt lat="39.5768945" lon="9.5902643"><ele>25.0</ele><time>2026-05-01T16:56:42.193Z</time></trkpt><trkpt lat="39.5771023" lon="9.5902999"><ele>25.0</ele><time>2026-05-01T16:56:43.193Z</time></trkpt><trkpt lat="39.5773009" lon="9.5903249"><ele>25.0</ele><time>2026-05-01T16:56:44.193Z</time></trkpt><trkpt lat="39.5775026" lon="9.5903524"><ele>25.0</ele><time>2026-05-01T16:56:45.192Z</time></trkpt><trkpt lat="39.577703" lon="9.5903808"><ele>24.666666666666668</ele><time>2026-05-01T16:56:46.193Z</time></trkpt><trkpt lat="39.577901" lon="9.5904065"><ele>24.333333333333336</ele><time>2026-05-01T16:56:47.193Z</time></trkpt><trkpt lat="39.5780978" lon="9.5904306"><ele>24.0</ele><time>2026-05-01T16:56:48.192Z</time></trkpt><trkpt lat="39.5782955" lon="9.5904565"><ele>24.0</ele><time>2026-05-01T16:56:49.193Z</time></trkpt><trkpt lat="39.5784949" lon="9.5904837"><ele>24.0</ele><time>2026-05-01T16:56:50.193Z</time></trkpt><trkpt lat="39.5786919" lon="9.5905105"><ele>24.0</ele><time>2026-05-01T16:56:51.193Z</time></trkpt><trkpt lat="39.5788865" lon="9.5905367"><ele>24.0</ele><time>2026-05-01T16:56:52.192Z</time></trkpt><trkpt lat="39.5790875" lon="9.5905628"><ele>24.0</ele><time>2026-05-01T16:56:53.193Z</time></trkpt><trkpt lat="39.5792943" lon="9.5905895"><ele>24.0</ele><time>2026-05-01T16:56:54.192Z</time></trkpt><trkpt lat="39.5795111" lon="9.5906158"><ele>25.0</ele><time>2026-05-01T16:56:55.193Z</time></trkpt><trkpt lat="39.5797289" lon="9.5906405"><ele>26.0</ele><time>2026-05-01T16:56:56.192Z</time></trkpt><trkpt lat="39.579952" lon="9.5906644"><ele>27.0</ele><time>2026-05-01T16:56:57.192Z</time></trkpt><trkpt lat="39.5801771" lon="9.5906908"><ele>27.0</ele><time>2026-05-01T16:56:58.192Z</time></trkpt><trkpt lat="39.5804065" lon="9.5907199"><ele>27.0</ele><time>2026-05-01T16:56:59.193Z</time></trkpt><trkpt lat="39.5806384" lon="9.5907494"><ele>27.0</ele><time>2026-05-01T16:57:00.193Z</time></trkpt><trkpt lat="39.5808708" lon="9.590779"><ele>27.0</ele><time>2026-05-01T16:57:01.193Z</time></trkpt><trkpt lat="39.5811018" lon="9.5908111"><ele>27.0</ele><time>2026-05-01T16:57:02.192Z</time></trkpt><trkpt lat="39.5813325" lon="9.5908407"><ele>27.0</ele><time>2026-05-01T16:57:03.193Z</time></trkpt><trkpt lat="39.5815707" lon="9.5908636"><ele>27.0</ele><time>2026-05-01T16:57:04.193Z</time></trkpt><trkpt lat="39.5818165" lon="9.590872"><ele>27.0</ele><time>2026-05-01T16:57:05.193Z</time></trkpt><trkpt lat="39.5820654" lon="9.5908623"><ele>26.5</ele><time>2026-05-01T16:57:06.192Z</time></trkpt><trkpt lat="39.5823176" lon="9.5908387"><ele>26.0</ele><time>2026-05-01T16:57:07.192Z</time></trkpt><trkpt lat="39.5825708" lon="9.590811"><ele>26.0</ele><time>2026-05-01T16:57:08.193Z</time></trkpt><trkpt lat="39.582824" lon="9.5907836"><ele>26.0</ele><time>2026-05-01T16:57:09.193Z</time></trkpt><trkpt lat="39.5830771" lon="9.590758"><ele>26.5</ele><time>2026-05-01T16:57:10.193Z</time></trkpt><trkpt lat="39.5833152" lon="9.590737"><ele>27.0</ele><time>2026-05-01T16:57:11.192Z</time></trkpt><trkpt lat="39.5835453" lon="9.5907126"><ele>27.0</ele><time>2026-05-01T16:57:12.193Z</time></trkpt><trkpt lat="39.5837719" lon="9.5906656"><ele>27.0</ele><time>2026-05-01T16:57:13.192Z</time></trkpt><trkpt lat="39.5839921" lon="9.590598"><ele>27.0</ele><time>2026-05-01T16:57:14.192Z</time></trkpt><trkpt lat="39.5842039" lon="9.5905087"><ele>27.0</ele><time>2026-05-01T16:57:15.192Z</time></trkpt><trkpt lat="39.5844064" lon="9.5903963"><ele>27.0</ele><time>2026-05-01T16:57:16.193Z</time></trkpt><trkpt lat="39.5845987" lon="9.5902614"><ele>29.5</ele><time>2026-05-01T16:57:17.192Z</time></trkpt><trkpt lat="39.5847844" lon="9.5901025"><ele>32.0</ele><time>2026-05-01T16:57:18.192Z</time></trkpt><trkpt lat="39.5849668" lon="9.5899247"><ele>32.0</ele><time>2026-05-01T16:57:19.192Z</time></trkpt><trkpt lat="39.5851425" lon="9.5897302"><ele>32.0</ele><time>2026-05-01T16:57:20.192Z</time></trkpt><trkpt lat="39.5853178" lon="9.5895257"><ele>31.5</ele><time>2026-05-01T16:57:21.193Z</time></trkpt><trkpt lat="39.5854977" lon="9.5893161"><ele>31.0</ele><time>2026-05-01T16:57:22.192Z</time></trkpt><trkpt lat="39.5856765" lon="9.5891038"><ele>31.0</ele><time>2026-05-01T16:57:23.192Z</time></trkpt><trkpt lat="39.5858526" lon="9.5888877"><ele>31.0</ele><time>2026-05-01T16:57:24.193Z</time></trkpt><trkpt lat="39.5860311" lon="9.5886666"><ele>30.5</ele><time>2026-05-01T16:57:25.192Z</time></trkpt><trkpt lat="39.5862123" lon="9.5884431"><ele>30.0</ele><time>2026-05-01T16:57:26.192Z</time></trkpt><trkpt lat="39.5863855" lon="9.5882292"><ele>30.0</ele><time>2026-05-01T16:57:27.193Z</time></trkpt><trkpt lat="39.5865593" lon="9.5880202"><ele>30.0</ele><time>2026-05-01T16:57:28.192Z</time></trkpt><trkpt lat="39.586742" lon="9.587834"><ele>33.0</ele><time>2026-05-01T16:57:29.193Z</time></trkpt><trkpt lat="39.586938" lon="9.5876679"><ele>36.0</ele><time>2026-05-01T16:57:30.193Z</time></trkpt><trkpt lat="39.587152" lon="9.5875291"><ele>36.0</ele><time>2026-05-01T16:57:31.192Z</time></trkpt><trkpt lat="39.5873766" lon="9.5874145"><ele>36.0</ele><time>2026-05-01T16:57:32.192Z</time></trkpt><trkpt lat="39.5876081" lon="9.5873303"><ele>33.0</ele><time>2026-05-01T16:57:33.192Z</time></trkpt><trkpt lat="39.5878496" lon="9.5872843"><ele>30.0</ele><time>2026-05-01T16:57:34.193Z</time></trkpt><trkpt lat="39.5880991" lon="9.5872684"><ele>30.0</ele><time>2026-05-01T16:57:35.192Z</time></trkpt><trkpt lat="39.5883462" lon="9.5872706"><ele>30.0</ele><time>2026-05-01T16:57:36.192Z</time></trkpt><trkpt lat="39.5885849" lon="9.5872908"><ele>30.0</ele><time>2026-05-01T16:57:37.193Z</time></trkpt><trkpt lat="39.5888195" lon="9.5873305"><ele>30.0</ele><time>2026-05-01T16:57:38.192Z</time></trkpt><trkpt lat="39.5890479" lon="9.587398"><ele>30.0</ele><time>2026-05-01T16:57:39.192Z</time></trkpt><trkpt lat="39.5892698" lon="9.5874978"><ele>30.0</ele><time>2026-05-01T16:57:40.192Z</time></trkpt><trkpt lat="39.5894869" lon="9.5876147"><ele>29.5</ele><time>2026-05-01T16:57:41.192Z</time></trkpt><trkpt lat="39.5897079" lon="9.5877363"><ele>29.0</ele><time>2026-05-01T16:57:42.193Z</time></trkpt><trkpt lat="39.5899288" lon="9.5878656"><ele>29.0</ele><time>2026-05-01T16:57:43.193Z</time></trkpt><trkpt lat="39.5901506" lon="9.587999"><ele>29.0</ele><time>2026-05-01T16:57:44.192Z</time></trkpt><trkpt lat="39.5903734" lon="9.5881313"><ele>31.0</ele><time>2026-05-01T16:57:45.193Z</time></trkpt><trkpt lat="39.5905966" lon="9.5882615"><ele>33.0</ele><time>2026-05-01T16:57:46.193Z</time></trkpt><trkpt lat="39.5908194" lon="9.5883919"><ele>33.0</ele><time>2026-05-01T16:57:47.193Z</time></trkpt><trkpt lat="39.5910439" lon="9.5885217"><ele>33.0</ele><time>2026-05-01T16:57:48.193Z</time></trkpt><trkpt lat="39.5912686" lon="9.5886506"><ele>32.5</ele><time>2026-05-01T16:57:49.192Z</time></trkpt><trkpt lat="39.5914927" lon="9.5887831"><ele>32.0</ele><time>2026-05-01T16:57:50.193Z</time></trkpt><trkpt lat="39.5917164" lon="9.5889151"><ele>32.0</ele><time>2026-05-01T16:57:51.193Z</time></trkpt><trkpt lat="39.591938" lon="9.5890437"><ele>32.0</ele><time>2026-05-01T16:57:52.192Z</time></trkpt><trkpt lat="39.592153" lon="9.5891698"><ele>34.0</ele><time>2026-05-01T16:57:53.193Z</time></trkpt><trkpt lat="39.5923708" lon="9.5892957"><ele>36.0</ele><time>2026-05-01T16:57:54.193Z</time></trkpt><trkpt lat="39.5925887" lon="9.5894222"><ele>35.5</ele><time>2026-05-01T16:57:55.192Z</time></trkpt><trkpt lat="39.5928046" lon="9.5895488"><ele>35.0</ele><time>2026-05-01T16:57:56.192Z</time></trkpt><trkpt lat="39.5930222" lon="9.5896764"><ele>35.0</ele><time>2026-05-01T16:57:57.192Z</time></trkpt><trkpt lat="39.593244" lon="9.5898043"><ele>35.0</ele><time>2026-05-01T16:57:58.192Z</time></trkpt><trkpt lat="39.5934583" lon="9.5899274"><ele>35.0</ele><time>2026-05-01T16:57:59.193Z</time></trkpt><trkpt lat="39.5936674" lon="9.5900495"><ele>35.0</ele><time>2026-05-01T16:58:00.192Z</time></trkpt><trkpt lat="39.5938816" lon="9.5901744"><ele>35.5</ele><time>2026-05-01T16:58:01.192Z</time></trkpt><trkpt lat="39.5940946" lon="9.5902992"><ele>36.0</ele><time>2026-05-01T16:58:02.193Z</time></trkpt><trkpt lat="39.5943089" lon="9.5904223"><ele>37.0</ele><time>2026-05-01T16:58:03.193Z</time></trkpt><trkpt lat="39.5945227" lon="9.5905465"><ele>38.0</ele><time>2026-05-01T16:58:04.193Z</time></trkpt><trkpt lat="39.5947398" lon="9.5906707"><ele>38.0</ele><time>2026-05-01T16:58:05.192Z</time></trkpt><trkpt lat="39.594956" lon="9.5907945"><ele>38.0</ele><time>2026-05-01T16:58:06.192Z</time></trkpt><trkpt lat="39.595162" lon="9.5909132"><ele>38.0</ele><time>2026-05-01T16:58:07.193Z</time></trkpt><trkpt lat="39.5953555" lon="9.5910265"><ele>38.0</ele><time>2026-05-01T16:58:08.192Z</time></trkpt><trkpt lat="39.5955433" lon="9.5911364"><ele>38.0</ele><time>2026-05-01T16:58:09.192Z</time></trkpt><trkpt lat="39.5957206" lon="9.5912381"><ele>38.0</ele><time>2026-05-01T16:58:10.192Z</time></trkpt><trkpt lat="39.5958831" lon="9.5913252"><ele>38.0</ele><time>2026-05-01T16:58:11.192Z</time></trkpt><trkpt lat="39.5960174" lon="9.5913643"><ele>38.0</ele><time>2026-05-01T16:58:12.192Z</time></trkpt><trkpt lat="39.5961484" lon="9.591353"><ele>38.0</ele><time>2026-05-01T16:58:13.192Z</time></trkpt><trkpt lat="39.5962854" lon="9.5912859"><ele>37.666666666666664</ele><time>2026-05-01T16:58:14.193Z</time></trkpt><trkpt lat="39.5964427" lon="9.5911962"><ele>37.333333333333336</ele><time>2026-05-01T16:58:15.193Z</time></trkpt><trkpt lat="39.5966038" lon="9.5910978"><ele>37.0</ele><time>2026-05-01T16:58:16.192Z</time></trkpt><trkpt lat="39.5967437" lon="9.5910112"><ele>37.0</ele><time>2026-05-01T16:58:17.193Z</time></trkpt><trkpt lat="39.5968552" lon="9.5909083"><ele>37.0</ele><time>2026-05-01T16:58:18.193Z</time></trkpt><trkpt lat="39.5969248" lon="9.5907749"><ele>37.0</ele><time>2026-05-01T16:58:19.193Z</time></trkpt><trkpt lat="39.5969774" lon="9.5906116"><ele>37.0</ele><time>2026-05-01T16:58:20.193Z</time></trkpt><trkpt lat="39.5970266" lon="9.5904269"><ele>36.66666666666667</ele><time>2026-05-01T16:58:21.193Z</time></trkpt><trkpt lat="39.5970801" lon="9.5902268"><ele>36.333333333333336</ele><time>2026-05-01T16:58:22.192Z</time></trkpt><trkpt lat="39.5971309" lon="9.59004"><ele>36.0</ele><time>2026-05-01T16:58:23.192Z</time></trkpt><trkpt lat="39.5971939" lon="9.5898719"><ele>36.0</ele><time>2026-05-01T16:58:24.193Z</time></trkpt><trkpt lat="39.5972818" lon="9.5897073"><ele>36.0</ele><time>2026-05-01T16:58:25.193Z</time></trkpt><trkpt lat="39.5973897" lon="9.5895395"><ele>36.0</ele><time>2026-05-01T16:58:26.193Z</time></trkpt><trkpt lat="39.5975076" lon="9.5893779"><ele>36.0</ele><time>2026-05-01T16:58:27.192Z</time></trkpt><trkpt lat="39.5976279" lon="9.5892313"><ele>36.0</ele><time>2026-05-01T16:58:28.192Z</time></trkpt><trkpt lat="39.597755" lon="9.5891059"><ele>36.0</ele><time>2026-05-01T16:58:29.193Z</time></trkpt><trkpt lat="39.5978947" lon="9.5890132"><ele>36.0</ele><time>2026-05-01T16:58:30.193Z</time></trkpt><trkpt lat="39.5980529" lon="9.588958"><ele>36.0</ele><time>2026-05-01T16:58:31.192Z</time></trkpt><trkpt lat="39.5982242" lon="9.5889307"><ele>36.0</ele><time>2026-05-01T16:58:32.193Z</time></trkpt><trkpt lat="39.5984085" lon="9.5889122"><ele>36.0</ele><time>2026-05-01T16:58:33.192Z</time></trkpt><trkpt lat="39.598602" lon="9.5888956"><ele>36.0</ele><time>2026-05-01T16:58:34.192Z</time></trkpt><trkpt lat="39.5987987" lon="9.5888805"><ele>36.0</ele><time>2026-05-01T16:58:35.193Z</time></trkpt><trkpt lat="39.5989955" lon="9.5888647"><ele>36.0</ele><time>2026-05-01T16:58:36.192Z</time></trkpt><trkpt lat="39.5991817" lon="9.5888485"><ele>36.0</ele><time>2026-05-01T16:58:37.192Z</time></trkpt><trkpt lat="39.5993707" lon="9.5888311"><ele>36.0</ele><time>2026-05-01T16:58:38.193Z</time></trkpt><trkpt lat="39.5995615" lon="9.5888132"><ele>36.333333333333336</ele><time>2026-05-01T16:58:39.193Z</time></trkpt><trkpt lat="39.599756" lon="9.5887942"><ele>36.66666666666667</ele><time>2026-05-01T16:58:40.192Z</time></trkpt><trkpt lat="39.5999553" lon="9.5887759"><ele>37.0</ele><time>2026-05-01T16:58:41.192Z</time></trkpt><trkpt lat="39.6001577" lon="9.5887583"><ele>37.0</ele><time>2026-05-01T16:58:42.193Z</time></trkpt><trkpt lat="39.600365" lon="9.5887395"><ele>37.0</ele><time>2026-05-01T16:58:43.192Z</time></trkpt><trkpt lat="39.6005763" lon="9.5887203"><ele>37.0</ele><time>2026-05-01T16:58:44.193Z</time></trkpt><trkpt lat="39.6007883" lon="9.5887001"><ele>37.0</ele><time>2026-05-01T16:58:45.192Z</time></trkpt><trkpt lat="39.6010033" lon="9.5886795"><ele>37.0</ele><time>2026-05-01T16:58:46.192Z</time></trkpt><trkpt lat="39.6012192" lon="9.5886587"><ele>37.0</ele><time>2026-05-01T16:58:47.192Z</time></trkpt><trkpt lat="39.6014383" lon="9.5886384"><ele>37.333333333333336</ele><time>2026-05-01T16:58:48.193Z</time></trkpt><trkpt lat="39.6016575" lon="9.5886178"><ele>37.666666666666664</ele><time>2026-05-01T16:58:49.192Z</time></trkpt><trkpt lat="39.6018786" lon="9.5885969"><ele>38.0</ele><time>2026-05-01T16:58:50.193Z</time></trkpt><trkpt lat="39.6021008" lon="9.5885784"><ele>38.0</ele><time>2026-05-01T16:58:51.192Z</time></trkpt><trkpt lat="39.6023243" lon="9.5885594"><ele>38.0</ele><time>2026-05-01T16:58:52.192Z</time></trkpt><trkpt lat="39.6025476" lon="9.5885375"><ele>38.0</ele><time>2026-05-01T16:58:53.192Z</time></trkpt><trkpt lat="39.6027691" lon="9.5885146"><ele>38.666666666666664</ele><time>2026-05-01T16:58:54.193Z</time></trkpt><trkpt lat="39.6029868" lon="9.5884952"><ele>39.333333333333336</ele><time>2026-05-01T16:58:55.193Z</time></trkpt><trkpt lat="39.6031891" lon="9.5884915"><ele>40.0</ele><time>2026-05-01T16:58:56.193Z</time></trkpt><trkpt lat="39.6033787" lon="9.5885212"><ele>40.0</ele><time>2026-05-01T16:58:57.193Z</time></trkpt><trkpt lat="39.6035639" lon="9.5885838"><ele>40.0</ele><time>2026-05-01T16:58:58.193Z</time></trkpt><trkpt lat="39.6037463" lon="9.588674"><ele>40.0</ele><time>2026-05-01T16:58:59.192Z</time></trkpt><trkpt lat="39.6039313" lon="9.58878"><ele>39.0</ele><time>2026-05-01T16:59:00.193Z</time></trkpt><trkpt lat="39.6041208" lon="9.588892"><ele>38.0</ele><time>2026-05-01T16:59:01.193Z</time></trkpt><trkpt lat="39.6043151" lon="9.5890072"><ele>37.0</ele><time>2026-05-01T16:59:02.192Z</time></trkpt><trkpt lat="39.60451" lon="9.5891214"><ele>40.0</ele><time>2026-05-01T16:59:03.193Z</time></trkpt><trkpt lat="39.604705" lon="9.589237"><ele>43.0</ele><time>2026-05-01T16:59:04.193Z</time></trkpt><trkpt lat="39.6049008" lon="9.5893546"><ele>46.0</ele><time>2026-05-01T16:59:05.193Z</time></trkpt><trkpt lat="39.6050974" lon="9.5894715"><ele>45.0</ele><time>2026-05-01T16:59:06.193Z</time></trkpt><trkpt lat="39.6052857" lon="9.589585"><ele>44.0</ele><time>2026-05-01T16:59:07.193Z</time></trkpt><trkpt lat="39.6054764" lon="9.589699"><ele>43.0</ele><time>2026-05-01T16:59:08.192Z</time></trkpt><trkpt lat="39.6056686" lon="9.5898121"><ele>43.0</ele><time>2026-05-01T16:59:09.193Z</time></trkpt><trkpt lat="39.6058529" lon="9.5899236"><ele>43.0</ele><time>2026-05-01T16:59:10.192Z</time></trkpt><trkpt lat="39.6060397" lon="9.5900356"><ele>43.0</ele><time>2026-05-01T16:59:11.192Z</time></trkpt><trkpt lat="39.6062293" lon="9.5901417"><ele>41.333333333333336</ele><time>2026-05-01T16:59:12.192Z</time></trkpt><trkpt lat="39.606422" lon="9.5902347"><ele>39.666666666666664</ele><time>2026-05-01T16:59:13.192Z</time></trkpt><trkpt lat="39.6066168" lon="9.590312"><ele>38.0</ele><time>2026-05-01T16:59:14.192Z</time></trkpt><trkpt lat="39.6068051" lon="9.5903709"><ele>38.0</ele><time>2026-05-01T16:59:15.192Z</time></trkpt><trkpt lat="39.606987" lon="9.5904049"><ele>38.0</ele><time>2026-05-01T16:59:16.192Z</time></trkpt><trkpt lat="39.6071617" lon="9.59041"><ele>38.0</ele><time>2026-05-01T16:59:17.192Z</time></trkpt><trkpt lat="39.6073373" lon="9.5903907"><ele>38.0</ele><time>2026-05-01T16:59:18.193Z</time></trkpt><trkpt lat="39.6075266" lon="9.590349"><ele>38.0</ele><time>2026-05-01T16:59:19.193Z</time></trkpt><trkpt lat="39.6077257" lon="9.5902977"><ele>38.0</ele><time>2026-05-01T16:59:20.192Z</time></trkpt><trkpt lat="39.6079282" lon="9.590244"><ele>39.33333333333333</ele><time>2026-05-01T16:59:21.193Z</time></trkpt><trkpt lat="39.6081394" lon="9.5901888"><ele>40.666666666666664</ele><time>2026-05-01T16:59:22.192Z</time></trkpt><trkpt lat="39.6083373" lon="9.5901362"><ele>42.0</ele><time>2026-05-01T16:59:23.193Z</time></trkpt><trkpt lat="39.6085238" lon="9.590086"><ele>41.666666666666664</ele><time>2026-05-01T16:59:24.192Z</time></trkpt><trkpt lat="39.6087065" lon="9.5900352"><ele>41.33333333333333</ele><time>2026-05-01T16:59:25.193Z</time></trkpt><trkpt lat="39.6088905" lon="9.5899862"><ele>41.0</ele><time>2026-05-01T16:59:26.193Z</time></trkpt><trkpt lat="39.6090766" lon="9.5899472"><ele>41.0</ele><time>2026-05-01T16:59:27.193Z</time></trkpt><trkpt lat="39.6092682" lon="9.5899275"><ele>41.0</ele><time>2026-05-01T16:59:28.193Z</time></trkpt><trkpt lat="39.6094684" lon="9.5899247"><ele>41.0</ele><time>2026-05-01T16:59:29.193Z</time></trkpt><trkpt lat="39.6096756" lon="9.5899259"><ele>42.0</ele><time>2026-05-01T16:59:30.193Z</time></trkpt><trkpt lat="39.609885" lon="9.5899276"><ele>43.0</ele><time>2026-05-01T16:59:31.192Z</time></trkpt><trkpt lat="39.6100954" lon="9.5899221"><ele>44.0</ele><time>2026-05-01T16:59:32.192Z</time></trkpt><trkpt lat="39.6103077" lon="9.5899037"><ele>44.0</ele><time>2026-05-01T16:59:33.193Z</time></trkpt><trkpt lat="39.6105199" lon="9.5898661"><ele>44.0</ele><time>2026-05-01T16:59:34.193Z</time></trkpt><trkpt lat="39.6107348" lon="9.5898102"><ele>44.0</ele><time>2026-05-01T16:59:35.192Z</time></trkpt><trkpt lat="39.6109393" lon="9.5897437"><ele>44.0</ele><time>2026-05-01T16:59:36.193Z</time></trkpt><trkpt lat="39.6111452" lon="9.5896775"><ele>44.0</ele><time>2026-05-01T16:59:37.192Z</time></trkpt><trkpt lat="39.6113515" lon="9.5896335"><ele>44.0</ele><time>2026-05-01T16:59:38.193Z</time></trkpt><trkpt lat="39.6115603" lon="9.5896144"><ele>44.0</ele><time>2026-05-01T16:59:39.192Z</time></trkpt><trkpt lat="39.61177" lon="9.5896278"><ele>44.0</ele><time>2026-05-01T16:59:40.192Z</time></trkpt><trkpt lat="39.6119863" lon="9.5896705"><ele>44.0</ele><time>2026-05-01T16:59:41.193Z</time></trkpt><trkpt lat="39.6122125" lon="9.589731"><ele>44.0</ele><time>2026-05-01T16:59:42.192Z</time></trkpt><trkpt lat="39.6124412" lon="9.5897971"><ele>44.0</ele><time>2026-05-01T16:59:43.192Z</time></trkpt><trkpt lat="39.6126765" lon="9.5898681"><ele>46.0</ele><time>2026-05-01T16:59:44.193Z</time></trkpt><trkpt lat="39.6129051" lon="9.589935"><ele>48.0</ele><time>2026-05-01T16:59:45.193Z</time></trkpt><trkpt lat="39.6131303" lon="9.5899999"><ele>48.0</ele><time>2026-05-01T16:59:46.192Z</time></trkpt><trkpt lat="39.6133551" lon="9.5900633"><ele>48.0</ele><time>2026-05-01T16:59:47.192Z</time></trkpt><trkpt lat="39.6135819" lon="9.5901264"><ele>51.0</ele><time>2026-05-01T16:59:48.193Z</time></trkpt><trkpt lat="39.6138047" lon="9.5901891"><ele>54.0</ele><time>2026-05-01T16:59:49.192Z</time></trkpt><trkpt lat="39.6140248" lon="9.5902538"><ele>54.0</ele><time>2026-05-01T16:59:50.192Z</time></trkpt><trkpt lat="39.614243" lon="9.5903237"><ele>54.0</ele><time>2026-05-01T16:59:51.192Z</time></trkpt><trkpt lat="39.6144568" lon="9.5903993"><ele>54.0</ele><time>2026-05-01T16:59:52.193Z</time></trkpt><trkpt lat="39.6146588" lon="9.5904748"><ele>50.666666666666664</ele><time>2026-05-01T16:59:53.193Z</time></trkpt><trkpt lat="39.6148482" lon="9.5905472"><ele>47.33333333333333</ele><time>2026-05-01T16:59:54.192Z</time></trkpt><trkpt lat="39.6150299" lon="9.5906182"><ele>44.0</ele><time>2026-05-01T16:59:55.193Z</time></trkpt><trkpt lat="39.6152123" lon="9.5906848"><ele>44.33333333333333</ele><time>2026-05-01T16:59:56.192Z</time></trkpt><trkpt lat="39.6153953" lon="9.5907242"><ele>44.666666666666664</ele><time>2026-05-01T16:59:57.192Z</time></trkpt><trkpt lat="39.6155765" lon="9.590732"><ele>45.0</ele><time>2026-05-01T16:59:58.193Z</time></trkpt><trkpt lat="39.6157573" lon="9.5907085"><ele>45.0</ele><time>2026-05-01T16:59:59.193Z</time></trkpt><trkpt lat="39.6159365" lon="9.5906657"><ele>45.0</ele><time>2026-05-01T17:00:00.192Z</time></trkpt><trkpt lat="39.6161181" lon="9.5906076"><ele>45.0</ele><time>2026-05-01T17:00:01.192Z</time></trkpt><trkpt lat="39.6163066" lon="9.590535"><ele>44.666666666666664</ele><time>2026-05-01T17:00:02.192Z</time></trkpt><trkpt lat="39.6165041" lon="9.5904577"><ele>44.33333333333333</ele><time>2026-05-01T17:00:03.192Z</time></trkpt><trkpt lat="39.6167001" lon="9.5903787"><ele>44.0</ele><time>2026-05-01T17:00:04.192Z</time></trkpt><trkpt lat="39.6169003" lon="9.5903137"><ele>48.666666666666664</ele><time>2026-05-01T17:00:05.192Z</time></trkpt><trkpt lat="39.6171079" lon="9.5902721"><ele>53.33333333333333</ele><time>2026-05-01T17:00:06.193Z</time></trkpt><trkpt lat="39.6173146" lon="9.5902347"><ele>58.0</ele><time>2026-05-01T17:00:07.193Z</time></trkpt><trkpt lat="39.6175255" lon="9.5901967"><ele>58.0</ele><time>2026-05-01T17:00:08.193Z</time></trkpt><trkpt lat="39.6177233" lon="9.5901602"><ele>58.0</ele><time>2026-05-01T17:00:09.192Z</time></trkpt><trkpt lat="39.6179104" lon="9.5901266"><ele>58.0</ele><time>2026-05-01T17:00:10.191Z</time></trkpt><trkpt lat="39.6180919" lon="9.5901008"><ele>56.33333333333333</ele><time>2026-05-01T17:00:11.192Z</time></trkpt><trkpt lat="39.6182683" lon="9.5900964"><ele>54.66666666666667</ele><time>2026-05-01T17:00:12.192Z</time></trkpt><trkpt lat="39.6184377" lon="9.5901273"><ele>53.0</ele><time>2026-05-01T17:00:13.193Z</time></trkpt><trkpt lat="39.6186092" lon="9.5901774"><ele>54.66666666666667</ele><time>2026-05-01T17:00:14.192Z</time></trkpt><trkpt lat="39.6187777" lon="9.590223"><ele>56.33333333333333</ele><time>2026-05-01T17:00:15.192Z</time></trkpt><trkpt lat="39.6189463" lon="9.5902532"><ele>58.0</ele><time>2026-05-01T17:00:16.192Z</time></trkpt><trkpt lat="39.6191187" lon="9.5902601"><ele>58.0</ele><time>2026-05-01T17:00:17.192Z</time></trkpt><trkpt lat="39.6192957" lon="9.5902412"><ele>58.0</ele><time>2026-05-01T17:00:18.192Z</time></trkpt><trkpt lat="39.6194755" lon="9.590199"><ele>58.0</ele><time>2026-05-01T17:00:19.192Z</time></trkpt><trkpt lat="39.619666" lon="9.5901426"><ele>57.0</ele><time>2026-05-01T17:00:20.193Z</time></trkpt><trkpt lat="39.6198617" lon="9.5900866"><ele>56.0</ele><time>2026-05-01T17:00:21.192Z</time></trkpt><trkpt lat="39.6200463" lon="9.590036"><ele>55.0</ele><time>2026-05-01T17:00:22.193Z</time></trkpt><trkpt lat="39.6202311" lon="9.5899988"><ele>53.33333333333333</ele><time>2026-05-01T17:00:23.192Z</time></trkpt><trkpt lat="39.6204202" lon="9.5899875"><ele>51.66666666666667</ele><time>2026-05-01T17:00:24.193Z</time></trkpt><trkpt lat="39.6206145" lon="9.5900033"><ele>50.0</ele><time>2026-05-01T17:00:25.192Z</time></trkpt><trkpt lat="39.6208068" lon="9.5900446"><ele>50.0</ele><time>2026-05-01T17:00:26.193Z</time></trkpt><trkpt lat="39.6209921" lon="9.5901107"><ele>50.0</ele><time>2026-05-01T17:00:27.192Z</time></trkpt><trkpt lat="39.6211713" lon="9.5902073"><ele>50.0</ele><time>2026-05-01T17:00:28.193Z</time></trkpt><trkpt lat="39.6213415" lon="9.590315"><ele>49.66666666666667</ele><time>2026-05-01T17:00:29.193Z</time></trkpt><trkpt lat="39.6214975" lon="9.5904173"><ele>49.33333333333333</ele><time>2026-05-01T17:00:30.192Z</time></trkpt><trkpt lat="39.6216537" lon="9.5905134"><ele>49.0</ele><time>2026-05-01T17:00:31.193Z</time></trkpt><trkpt lat="39.6218061" lon="9.5905912"><ele>49.0</ele><time>2026-05-01T17:00:32.193Z</time></trkpt><trkpt lat="39.6219598" lon="9.590638"><ele>49.0</ele><time>2026-05-01T17:00:33.193Z</time></trkpt><trkpt lat="39.6221207" lon="9.5906433"><ele>49.0</ele><time>2026-05-01T17:00:34.193Z</time></trkpt><trkpt lat="39.6222861" lon="9.5906112"><ele>49.33333333333333</ele><time>2026-05-01T17:00:35.193Z</time></trkpt><trkpt lat="39.6224537" lon="9.5905545"><ele>49.66666666666667</ele><time>2026-05-01T17:00:36.193Z</time></trkpt><trkpt lat="39.6226267" lon="9.5904863"><ele>50.0</ele><time>2026-05-01T17:00:37.193Z</time></trkpt><trkpt lat="39.6228068" lon="9.5904161"><ele>49.66666666666667</ele><time>2026-05-01T17:00:38.193Z</time></trkpt><trkpt lat="39.6229904" lon="9.5903447"><ele>49.33333333333333</ele><time>2026-05-01T17:00:39.193Z</time></trkpt><trkpt lat="39.623174" lon="9.5902586"><ele>49.0</ele><time>2026-05-01T17:00:40.193Z</time></trkpt><trkpt lat="39.6233531" lon="9.5901446"><ele>49.33333333333333</ele><time>2026-05-01T17:00:41.192Z</time></trkpt><trkpt lat="39.6235314" lon="9.5900017"><ele>49.66666666666667</ele><time>2026-05-01T17:00:42.193Z</time></trkpt><trkpt lat="39.6237095" lon="9.5898467"><ele>50.0</ele><time>2026-05-01T17:00:43.192Z</time></trkpt><trkpt lat="39.6238794" lon="9.5897092"><ele>50.0</ele><time>2026-05-01T17:00:44.192Z</time></trkpt><trkpt lat="39.6240546" lon="9.5895752"><ele>50.0</ele><time>2026-05-01T17:00:45.193Z</time></trkpt><trkpt lat="39.6242321" lon="9.5894436"><ele>50.0</ele><time>2026-05-01T17:00:46.192Z</time></trkpt><trkpt lat="39.6244185" lon="9.589322"><ele>49.5</ele><time>2026-05-01T17:00:47.192Z</time></trkpt><trkpt lat="39.624629" lon="9.5892049"><ele>49.0</ele><time>2026-05-01T17:00:48.193Z</time></trkpt><trkpt lat="39.6248603" lon="9.5890988"><ele>49.0</ele><time>2026-05-01T17:00:49.193Z</time></trkpt><trkpt lat="39.6251081" lon="9.5889941"><ele>49.0</ele><time>2026-05-01T17:00:50.193Z</time></trkpt><trkpt lat="39.6253607" lon="9.5888913"><ele>49.5</ele><time>2026-05-01T17:00:51.193Z</time></trkpt><trkpt lat="39.6256181" lon="9.5887864"><ele>50.0</ele><time>2026-05-01T17:00:52.192Z</time></trkpt><trkpt lat="39.6258752" lon="9.5886756"><ele>50.5</ele><time>2026-05-01T17:00:53.193Z</time></trkpt><trkpt lat="39.6261362" lon="9.5885647"><ele>51.0</ele><time>2026-05-01T17:00:54.192Z</time></trkpt><trkpt lat="39.6263941" lon="9.5884538"><ele>51.0</ele><time>2026-05-01T17:00:55.193Z</time></trkpt><trkpt lat="39.6266471" lon="9.5883435"><ele>51.0</ele><time>2026-05-01T17:00:56.193Z</time></trkpt><trkpt lat="39.6268983" lon="9.5882359"><ele>51.5</ele><time>2026-05-01T17:00:57.193Z</time></trkpt><trkpt lat="39.6271524" lon="9.5881283"><ele>52.0</ele><time>2026-05-01T17:00:58.193Z</time></trkpt><trkpt lat="39.6274055" lon="9.5880195"><ele>52.0</ele><time>2026-05-01T17:00:59.193Z</time></trkpt><trkpt lat="39.6276582" lon="9.5879109"><ele>52.0</ele><time>2026-05-01T17:01:00.192Z</time></trkpt><trkpt lat="39.6279107" lon="9.5878007"><ele>53.0</ele><time>2026-05-01T17:01:01.193Z</time></trkpt><trkpt lat="39.6281547" lon="9.5876937"><ele>54.0</ele><time>2026-05-01T17:01:02.192Z</time></trkpt><trkpt lat="39.6283828" lon="9.5875918"><ele>54.0</ele><time>2026-05-01T17:01:03.193Z</time></trkpt><trkpt lat="39.6286022" lon="9.5874938"><ele>54.0</ele><time>2026-05-01T17:01:04.192Z</time></trkpt><trkpt lat="39.628812" lon="9.5874025"><ele>54.0</ele><time>2026-05-01T17:01:05.192Z</time></trkpt><trkpt lat="39.6290054" lon="9.5873184"><ele>54.0</ele><time>2026-05-01T17:01:06.193Z</time></trkpt><trkpt lat="39.6291743" lon="9.5872448"><ele>54.0</ele><time>2026-05-01T17:01:07.193Z</time></trkpt><trkpt lat="39.6293297" lon="9.5871718"><ele>54.0</ele><time>2026-05-01T17:01:08.193Z</time></trkpt><trkpt lat="39.6294638" lon="9.5870897"><ele>54.0</ele><time>2026-05-01T17:01:09.192Z</time></trkpt><trkpt lat="39.6295809" lon="9.5870032"><ele>54.0</ele><time>2026-05-01T17:01:10.192Z</time></trkpt><trkpt lat="39.6296836" lon="9.5869284"><ele>54.0</ele><time>2026-05-01T17:01:11.192Z</time></trkpt><trkpt lat="39.6297933" lon="9.5868915"><ele>55.0</ele><time>2026-05-01T17:01:12.192Z</time></trkpt><trkpt lat="39.6299019" lon="9.5868629"><ele>56.00000000000001</ele><time>2026-05-01T17:01:13.193Z</time></trkpt><trkpt lat="39.6299845" lon="9.5868032"><ele>57.00000000000001</ele><time>2026-05-01T17:01:14.193Z</time></trkpt><trkpt lat="39.6300376" lon="9.5867127"><ele>58.0</ele><time>2026-05-01T17:01:15.192Z</time></trkpt><trkpt lat="39.6300645" lon="9.5865989"><ele>59.0</ele><time>2026-05-01T17:01:16.192Z</time></trkpt><trkpt lat="39.6300749" lon="9.5864666"><ele>59.0</ele><time>2026-05-01T17:01:17.193Z</time></trkpt><trkpt lat="39.6301144" lon="9.586329"><ele>59.0</ele><time>2026-05-01T17:01:18.193Z</time></trkpt><trkpt lat="39.6301885" lon="9.5861929"><ele>59.0</ele><time>2026-05-01T17:01:19.193Z</time></trkpt><trkpt lat="39.6302856" lon="9.5860485"><ele>59.0</ele><time>2026-05-01T17:01:20.191Z</time></trkpt><trkpt lat="39.6303948" lon="9.5859089"><ele>61.333333333333336</ele><time>2026-05-01T17:01:21.193Z</time></trkpt><trkpt lat="39.6305138" lon="9.5857779"><ele>63.66666666666667</ele><time>2026-05-01T17:01:22.193Z</time></trkpt><trkpt lat="39.6306425" lon="9.5856646"><ele>66.0</ele><time>2026-05-01T17:01:23.192Z</time></trkpt><trkpt lat="39.630779" lon="9.5855671"><ele>66.0</ele><time>2026-05-01T17:01:24.193Z</time></trkpt><trkpt lat="39.6309281" lon="9.5854917"><ele>66.0</ele><time>2026-05-01T17:01:25.193Z</time></trkpt><trkpt lat="39.6310806" lon="9.5854229"><ele>66.0</ele><time>2026-05-01T17:01:26.193Z</time></trkpt><trkpt lat="39.6312359" lon="9.5853609"><ele>66.0</ele><time>2026-05-01T17:01:27.192Z</time></trkpt><trkpt lat="39.6313962" lon="9.5853033"><ele>66.0</ele><time>2026-05-01T17:01:28.192Z</time></trkpt><trkpt lat="39.6315656" lon="9.5852468"><ele>66.0</ele><time>2026-05-01T17:01:29.192Z</time></trkpt><trkpt lat="39.6317435" lon="9.5851901"><ele>66.0</ele><time>2026-05-01T17:01:30.192Z</time></trkpt><trkpt lat="39.6319299" lon="9.5851284"><ele>66.0</ele><time>2026-05-01T17:01:31.193Z</time></trkpt><trkpt lat="39.6321222" lon="9.5850612"><ele>66.0</ele><time>2026-05-01T17:01:32.193Z</time></trkpt><trkpt lat="39.632315" lon="9.5849901"><ele>64.66666666666667</ele><time>2026-05-01T17:01:33.192Z</time></trkpt><trkpt lat="39.632507" lon="9.5849141"><ele>63.333333333333336</ele><time>2026-05-01T17:01:34.193Z</time></trkpt><trkpt lat="39.6326996" lon="9.5848346"><ele>62.0</ele><time>2026-05-01T17:01:35.192Z</time></trkpt><trkpt lat="39.6328937" lon="9.5847505"><ele>61.66666666666667</ele><time>2026-05-01T17:01:36.191Z</time></trkpt><trkpt lat="39.6330896" lon="9.5846632"><ele>61.33333333333333</ele><time>2026-05-01T17:01:37.193Z</time></trkpt><trkpt lat="39.6332872" lon="9.5845724"><ele>61.0</ele><time>2026-05-01T17:01:38.193Z</time></trkpt><trkpt lat="39.6334875" lon="9.5844784"><ele>63.666666666666664</ele><time>2026-05-01T17:01:39.192Z</time></trkpt><trkpt lat="39.6336894" lon="9.5843829"><ele>66.33333333333333</ele><time>2026-05-01T17:01:40.192Z</time></trkpt><trkpt lat="39.6338944" lon="9.5842873"><ele>69.0</ele><time>2026-05-01T17:01:41.192Z</time></trkpt><trkpt lat="39.634099" lon="9.5841922"><ele>69.0</ele><time>2026-05-01T17:01:42.192Z</time></trkpt><trkpt lat="39.6342988" lon="9.5840979"><ele>69.0</ele><time>2026-05-01T17:01:43.192Z</time></trkpt><trkpt lat="39.6344985" lon="9.5840011"><ele>69.0</ele><time>2026-05-01T17:01:44.193Z</time></trkpt><trkpt lat="39.6346976" lon="9.5839034"><ele>68.33333333333333</ele><time>2026-05-01T17:01:45.192Z</time></trkpt><trkpt lat="39.6348967" lon="9.5838055"><ele>67.66666666666666</ele><time>2026-05-01T17:01:46.193Z</time></trkpt><trkpt lat="39.6350962" lon="9.5837105"><ele>67.0</ele><time>2026-05-01T17:01:47.192Z</time></trkpt><trkpt lat="39.6352971" lon="9.5836108"><ele>69.66666666666666</ele><time>2026-05-01T17:01:48.192Z</time></trkpt><trkpt lat="39.6354913" lon="9.5835078"><ele>72.33333333333333</ele><time>2026-05-01T17:01:49.193Z</time></trkpt><trkpt lat="39.6356842" lon="9.5833983"><ele>75.0</ele><time>2026-05-01T17:01:50.193Z</time></trkpt><trkpt lat="39.6358749" lon="9.5832813"><ele>75.0</ele><time>2026-05-01T17:01:51.193Z</time></trkpt><trkpt lat="39.6360615" lon="9.5831581"><ele>75.0</ele><time>2026-05-01T17:01:52.192Z</time></trkpt><trkpt lat="39.6362463" lon="9.5830259"><ele>75.0</ele><time>2026-05-01T17:01:53.193Z</time></trkpt><trkpt lat="39.6364287" lon="9.5828837"><ele>75.33333333333333</ele><time>2026-05-01T17:01:54.192Z</time></trkpt><trkpt lat="39.636609" lon="9.5827317"><ele>75.66666666666666</ele><time>2026-05-01T17:01:55.193Z</time></trkpt><trkpt lat="39.6367895" lon="9.5825699"><ele>76.0</ele><time>2026-05-01T17:01:56.192Z</time></trkpt><trkpt lat="39.6369682" lon="9.5824002"><ele>73.33333333333333</ele><time>2026-05-01T17:01:57.192Z</time></trkpt><trkpt lat="39.6371414" lon="9.5822248"><ele>70.66666666666667</ele><time>2026-05-01T17:01:58.193Z</time></trkpt><trkpt lat="39.6373109" lon="9.582039"><ele>68.0</ele><time>2026-05-01T17:01:59.192Z</time></trkpt><trkpt lat="39.637482" lon="9.5818425"><ele>68.0</ele><time>2026-05-01T17:02:00.192Z</time></trkpt><trkpt lat="39.637651" lon="9.5816426"><ele>68.0</ele><time>2026-05-01T17:02:01.193Z</time></trkpt><trkpt lat="39.6378222" lon="9.5814366"><ele>66.0</ele><time>2026-05-01T17:02:02.193Z</time></trkpt><trkpt lat="39.6379963" lon="9.5812298"><ele>64.0</ele><time>2026-05-01T17:02:03.192Z</time></trkpt><trkpt lat="39.6381742" lon="9.581028"><ele>72.5</ele><time>2026-05-01T17:02:04.192Z</time></trkpt><trkpt lat="39.638357" lon="9.580833"><ele>81.0</ele><time>2026-05-01T17:02:05.192Z</time></trkpt><trkpt lat="39.6385448" lon="9.5806445"><ele>78.5</ele><time>2026-05-01T17:02:06.193Z</time></trkpt><trkpt lat="39.6387384" lon="9.5804695"><ele>76.0</ele><time>2026-05-01T17:02:07.193Z</time></trkpt><trkpt lat="39.6389405" lon="9.5803113"><ele>76.0</ele><time>2026-05-01T17:02:08.192Z</time></trkpt><trkpt lat="39.63915" lon="9.5801678"><ele>76.0</ele><time>2026-05-01T17:02:09.192Z</time></trkpt><trkpt lat="39.6393677" lon="9.5800415"><ele>74.5</ele><time>2026-05-01T17:02:10.193Z</time></trkpt><trkpt lat="39.6395927" lon="9.5799306"><ele>73.0</ele><time>2026-05-01T17:02:11.192Z</time></trkpt><trkpt lat="39.6398251" lon="9.5798359"><ele>73.0</ele><time>2026-05-01T17:02:12.192Z</time></trkpt><trkpt lat="39.6400624" lon="9.5797599"><ele>73.0</ele><time>2026-05-01T17:02:13.192Z</time></trkpt><trkpt lat="39.6403049" lon="9.5797026"><ele>76.5</ele><time>2026-05-01T17:02:14.192Z</time></trkpt><trkpt lat="39.6405535" lon="9.5796639"><ele>80.0</ele><time>2026-05-01T17:02:15.193Z</time></trkpt><trkpt lat="39.6408086" lon="9.5796455"><ele>80.0</ele><time>2026-05-01T17:02:16.192Z</time></trkpt><trkpt lat="39.6410682" lon="9.579647"><ele>80.0</ele><time>2026-05-01T17:02:17.193Z</time></trkpt><trkpt lat="39.6413287" lon="9.5796702"><ele>79.5</ele><time>2026-05-01T17:02:18.192Z</time></trkpt><trkpt lat="39.6415876" lon="9.5797147"><ele>79.0</ele><time>2026-05-01T17:02:19.193Z</time></trkpt><trkpt lat="39.6418421" lon="9.5797786"><ele>81.5</ele><time>2026-05-01T17:02:20.192Z</time></trkpt><trkpt lat="39.6420902" lon="9.5798619"><ele>84.0</ele><time>2026-05-01T17:02:21.192Z</time></trkpt><trkpt lat="39.6423345" lon="9.5799563"><ele>84.0</ele><time>2026-05-01T17:02:22.192Z</time></trkpt><trkpt lat="39.6425781" lon="9.5800564"><ele>84.0</ele><time>2026-05-01T17:02:23.193Z</time></trkpt><trkpt lat="39.6428219" lon="9.5801543"><ele>89.5</ele><time>2026-05-01T17:02:24.193Z</time></trkpt><trkpt lat="39.6430699" lon="9.5802452"><ele>95.0</ele><time>2026-05-01T17:02:25.193Z</time></trkpt><trkpt lat="39.6433228" lon="9.5803276"><ele>90.0</ele><time>2026-05-01T17:02:26.193Z</time></trkpt><trkpt lat="39.6435816" lon="9.5803966"><ele>85.0</ele><time>2026-05-01T17:02:27.192Z</time></trkpt><trkpt lat="39.643839" lon="9.5804497"><ele>84.5</ele><time>2026-05-01T17:02:28.192Z</time></trkpt><trkpt lat="39.6440986" lon="9.5804889"><ele>84.0</ele><time>2026-05-01T17:02:29.192Z</time></trkpt><trkpt lat="39.6443598" lon="9.5805127"><ele>81.0</ele><time>2026-05-01T17:02:30.192Z</time></trkpt><trkpt lat="39.6446229" lon="9.58052"><ele>78.0</ele><time>2026-05-01T17:02:31.193Z</time></trkpt><trkpt lat="39.6448853" lon="9.5805112"><ele>78.0</ele><time>2026-05-01T17:02:32.192Z</time></trkpt><trkpt lat="39.6451414" lon="9.5804853"><ele>78.0</ele><time>2026-05-01T17:02:33.192Z</time></trkpt><trkpt lat="39.6453939" lon="9.5804414"><ele>75.5</ele><time>2026-05-01T17:02:34.193Z</time></trkpt><trkpt lat="39.6456338" lon="9.5803826"><ele>73.0</ele><time>2026-05-01T17:02:35.192Z</time></trkpt><trkpt lat="39.6458757" lon="9.5803099"><ele>80.0</ele><time>2026-05-01T17:02:36.192Z</time></trkpt><trkpt lat="39.6461182" lon="9.5802254"><ele>87.0</ele><time>2026-05-01T17:02:37.192Z</time></trkpt><trkpt lat="39.646359" lon="9.580129"><ele>87.0</ele><time>2026-05-01T17:02:38.193Z</time></trkpt><trkpt lat="39.6465959" lon="9.5800214"><ele>87.0</ele><time>2026-05-01T17:02:39.192Z</time></trkpt><trkpt lat="39.6468311" lon="9.5799083"><ele>87.5</ele><time>2026-05-01T17:02:40.193Z</time></trkpt><trkpt lat="39.6470667" lon="9.579795"><ele>88.0</ele><time>2026-05-01T17:02:41.193Z</time></trkpt><trkpt lat="39.6473009" lon="9.5796824"><ele>88.0</ele><time>2026-05-01T17:02:42.192Z</time></trkpt><trkpt lat="39.6475351" lon="9.5795695"><ele>88.0</ele><time>2026-05-01T17:02:43.192Z</time></trkpt><trkpt lat="39.6488212" lon="9.578904"><ele>84.0</ele><time>2026-05-01T17:02:49.192Z</time></trkpt><trkpt lat="39.6490375" lon="9.5788184"><ele>80.0</ele><time>2026-05-01T17:02:50.192Z</time></trkpt><trkpt lat="39.6492637" lon="9.5787258"><ele>77.0</ele><time>2026-05-01T17:02:51.193Z</time></trkpt><trkpt lat="39.649489" lon="9.5786404"><ele>74.0</ele><time>2026-05-01T17:02:52.192Z</time></trkpt><trkpt lat="39.6497182" lon="9.5785628"><ele>74.0</ele><time>2026-05-01T17:02:53.192Z</time></trkpt><trkpt lat="39.649951" lon="9.5784881"><ele>74.0</ele><time>2026-05-01T17:02:54.192Z</time></trkpt><trkpt lat="39.6501836" lon="9.5784224"><ele>71.5</ele><time>2026-05-01T17:02:55.192Z</time></trkpt><trkpt lat="39.650418" lon="9.5783661"><ele>69.0</ele><time>2026-05-01T17:02:56.192Z</time></trkpt><trkpt lat="39.6506548" lon="9.578318"><ele>69.0</ele><time>2026-05-01T17:02:57.192Z</time></trkpt><trkpt lat="39.6508937" lon="9.578277"><ele>69.0</ele><time>2026-05-01T17:02:58.193Z</time></trkpt><trkpt lat="39.6511263" lon="9.5782464"><ele>73.0</ele><time>2026-05-01T17:02:59.193Z</time></trkpt><trkpt lat="39.6513581" lon="9.5782238"><ele>77.0</ele><time>2026-05-01T17:03:00.193Z</time></trkpt><trkpt lat="39.651592" lon="9.5782106"><ele>77.0</ele><time>2026-05-01T17:03:01.193Z</time></trkpt><trkpt lat="39.6518239" lon="9.5782048"><ele>77.0</ele><time>2026-05-01T17:03:02.193Z</time></trkpt><trkpt lat="39.6520552" lon="9.578205"><ele>80.0</ele><time>2026-05-01T17:03:03.192Z</time></trkpt><trkpt lat="39.6522887" lon="9.5782131"><ele>83.0</ele><time>2026-05-01T17:03:04.192Z</time></trkpt><trkpt lat="39.6525236" lon="9.5782277"><ele>83.0</ele><time>2026-05-01T17:03:05.193Z</time></trkpt><trkpt lat="39.6527617" lon="9.5782474"><ele>83.0</ele><time>2026-05-01T17:03:06.192Z</time></trkpt><trkpt lat="39.6530014" lon="9.5782711"><ele>85.0</ele><time>2026-05-01T17:03:07.193Z</time></trkpt><trkpt lat="39.6532424" lon="9.578297"><ele>87.0</ele><time>2026-05-01T17:03:08.193Z</time></trkpt><trkpt lat="39.6534813" lon="9.5783255"><ele>88.0</ele><time>2026-05-01T17:03:09.192Z</time></trkpt><trkpt lat="39.6537178" lon="9.5783578"><ele>89.0</ele><time>2026-05-01T17:03:10.192Z</time></trkpt><trkpt lat="39.6539501" lon="9.5783874"><ele>89.0</ele><time>2026-05-01T17:03:11.193Z</time></trkpt><trkpt lat="39.6541751" lon="9.5784132"><ele>89.0</ele><time>2026-05-01T17:03:12.192Z</time></trkpt><trkpt lat="39.6544012" lon="9.5784362"><ele>86.5</ele><time>2026-05-01T17:03:13.193Z</time></trkpt><trkpt lat="39.6546259" lon="9.5784538"><ele>84.0</ele><time>2026-05-01T17:03:14.192Z</time></trkpt><trkpt lat="39.6548511" lon="9.5784657"><ele>84.0</ele><time>2026-05-01T17:03:15.193Z</time></trkpt><trkpt lat="39.6550773" lon="9.5784703"><ele>84.0</ele><time>2026-05-01T17:03:16.193Z</time></trkpt><trkpt lat="39.6553004" lon="9.5784659"><ele>84.0</ele><time>2026-05-01T17:03:17.193Z</time></trkpt><trkpt lat="39.655516" lon="9.5784516"><ele>83.33333333333333</ele><time>2026-05-01T17:03:18.192Z</time></trkpt><trkpt lat="39.6557353" lon="9.5784291"><ele>82.66666666666666</ele><time>2026-05-01T17:03:19.192Z</time></trkpt><trkpt lat="39.6559542" lon="9.5783999"><ele>82.0</ele><time>2026-05-01T17:03:20.193Z</time></trkpt><trkpt lat="39.6561813" lon="9.5783606"><ele>82.0</ele><time>2026-05-01T17:03:21.193Z</time></trkpt><trkpt lat="39.6564175" lon="9.5783049"><ele>82.0</ele><time>2026-05-01T17:03:22.193Z</time></trkpt><trkpt lat="39.6566626" lon="9.5782413"><ele>82.0</ele><time>2026-05-01T17:03:23.193Z</time></trkpt><trkpt lat="39.6569185" lon="9.5781718"><ele>82.0</ele><time>2026-05-01T17:03:24.193Z</time></trkpt><trkpt lat="39.6571727" lon="9.5781005"><ele>84.5</ele><time>2026-05-01T17:03:25.193Z</time></trkpt><trkpt lat="39.6574264" lon="9.5780241"><ele>87.0</ele><time>2026-05-01T17:03:26.193Z</time></trkpt><trkpt lat="39.6576744" lon="9.5779397"><ele>93.5</ele><time>2026-05-01T17:03:27.192Z</time></trkpt><trkpt lat="39.6579116" lon="9.5778517"><ele>100.0</ele><time>2026-05-01T17:03:28.193Z</time></trkpt><trkpt lat="39.6581377" lon="9.5777642"><ele>100.0</ele><time>2026-05-01T17:03:29.192Z</time></trkpt><trkpt lat="39.6583605" lon="9.5776785"><ele>100.0</ele><time>2026-05-01T17:03:30.193Z</time></trkpt><trkpt lat="39.6585808" lon="9.5775925"><ele>92.5</ele><time>2026-05-01T17:03:31.192Z</time></trkpt><trkpt lat="39.6588012" lon="9.5775057"><ele>85.0</ele><time>2026-05-01T17:03:32.193Z</time></trkpt><trkpt lat="39.659025" lon="9.5774174"><ele>85.0</ele><time>2026-05-01T17:03:33.193Z</time></trkpt><trkpt lat="39.6592595" lon="9.5773291"><ele>85.0</ele><time>2026-05-01T17:03:34.193Z</time></trkpt><trkpt lat="39.6595034" lon="9.5772501"><ele>87.5</ele><time>2026-05-01T17:03:35.192Z</time></trkpt><trkpt lat="39.6597529" lon="9.5771887"><ele>90.0</ele><time>2026-05-01T17:03:36.192Z</time></trkpt><trkpt lat="39.6600049" lon="9.5771483"><ele>90.0</ele><time>2026-05-01T17:03:37.192Z</time></trkpt><trkpt lat="39.6602595" lon="9.5771313"><ele>90.0</ele><time>2026-05-01T17:03:38.193Z</time></trkpt><trkpt lat="39.6605185" lon="9.5771345"><ele>89.0</ele><time>2026-05-01T17:03:39.192Z</time></trkpt><trkpt lat="39.6607798" lon="9.5771579"><ele>88.0</ele><time>2026-05-01T17:03:40.192Z</time></trkpt><trkpt lat="39.6610434" lon="9.5771993"><ele>87.5</ele><time>2026-05-01T17:03:41.193Z</time></trkpt><trkpt lat="39.6613047" lon="9.5772537"><ele>87.0</ele><time>2026-05-01T17:03:42.193Z</time></trkpt><trkpt lat="39.6615626" lon="9.5773145"><ele>87.0</ele><time>2026-05-01T17:03:43.192Z</time></trkpt><trkpt lat="39.6618225" lon="9.5773692"><ele>87.0</ele><time>2026-05-01T17:03:44.193Z</time></trkpt><trkpt lat="39.6620844" lon="9.577414"><ele>87.0</ele><time>2026-05-01T17:03:45.192Z</time></trkpt><trkpt lat="39.6623453" lon="9.5774458"><ele>87.0</ele><time>2026-05-01T17:03:46.192Z</time></trkpt><trkpt lat="39.6626056" lon="9.5774682"><ele>87.5</ele><time>2026-05-01T17:03:47.192Z</time></trkpt><trkpt lat="39.6628659" lon="9.5774805"><ele>88.0</ele><time>2026-05-01T17:03:48.192Z</time></trkpt><trkpt lat="39.6631273" lon="9.5774811"><ele>88.0</ele><time>2026-05-01T17:03:49.193Z</time></trkpt><trkpt lat="39.6633894" lon="9.5774696"><ele>88.0</ele><time>2026-05-01T17:03:50.193Z</time></trkpt><trkpt lat="39.6636514" lon="9.5774472"><ele>90.0</ele><time>2026-05-01T17:03:51.192Z</time></trkpt><trkpt lat="39.6639125" lon="9.5774145"><ele>92.0</ele><time>2026-05-01T17:03:52.192Z</time></trkpt><trkpt lat="39.6641729" lon="9.5773708"><ele>92.0</ele><time>2026-05-01T17:03:53.192Z</time></trkpt><trkpt lat="39.6644328" lon="9.5773168"><ele>92.0</ele><time>2026-05-01T17:03:54.193Z</time></trkpt><trkpt lat="39.6646935" lon="9.577254"><ele>92.5</ele><time>2026-05-01T17:03:55.193Z</time></trkpt><trkpt lat="39.6649546" lon="9.5771817"><ele>93.0</ele><time>2026-05-01T17:03:56.192Z</time></trkpt><trkpt lat="39.6652162" lon="9.5771025"><ele>96.0</ele><time>2026-05-01T17:03:57.192Z</time></trkpt><trkpt lat="39.665479" lon="9.5770188"><ele>99.0</ele><time>2026-05-01T17:03:58.192Z</time></trkpt><trkpt lat="39.6657433" lon="9.5769327"><ele>99.0</ele><time>2026-05-01T17:03:59.192Z</time></trkpt><trkpt lat="39.6660073" lon="9.576845"><ele>99.0</ele><time>2026-05-01T17:04:00.192Z</time></trkpt><trkpt lat="39.6662712" lon="9.5767566"><ele>100.5</ele><time>2026-05-01T17:04:01.193Z</time></trkpt><trkpt lat="39.6665358" lon="9.5766669"><ele>102.0</ele><time>2026-05-01T17:04:02.192Z</time></trkpt><trkpt lat="39.6667984" lon="9.5765764"><ele>99.5</ele><time>2026-05-01T17:04:03.193Z</time></trkpt><trkpt lat="39.6670603" lon="9.5764857"><ele>97.0</ele><time>2026-05-01T17:04:04.193Z</time></trkpt><trkpt lat="39.6673214" lon="9.5763941"><ele>97.0</ele><time>2026-05-01T17:04:05.192Z</time></trkpt><trkpt lat="39.6675818" lon="9.5763029"><ele>97.0</ele><time>2026-05-01T17:04:06.193Z</time></trkpt><trkpt lat="39.6678422" lon="9.5762121"><ele>101.0</ele><time>2026-05-01T17:04:07.193Z</time></trkpt><trkpt lat="39.6681046" lon="9.5761219"><ele>105.0</ele><time>2026-05-01T17:04:08.193Z</time></trkpt><trkpt lat="39.6685853" lon="9.5759549"><ele>108.0</ele><time>2026-05-01T17:04:10.037Z</time></trkpt><trkpt lat="39.6688891" lon="9.5758544"><ele>111.0</ele><time>2026-05-01T17:04:11.188Z</time></trkpt><trkpt lat="39.6691479" lon="9.5757631"><ele>111.0</ele><time>2026-05-01T17:04:12.187Z</time></trkpt><trkpt lat="39.6694054" lon="9.5756742"><ele>111.0</ele><time>2026-05-01T17:04:13.187Z</time></trkpt><trkpt lat="39.6696659" lon="9.575594"><ele>111.0</ele><time>2026-05-01T17:04:14.188Z</time></trkpt><trkpt lat="39.6699257" lon="9.5755252"><ele>111.0</ele><time>2026-05-01T17:04:15.187Z</time></trkpt><trkpt lat="39.6701903" lon="9.5754645"><ele>109.5</ele><time>2026-05-01T17:04:16.187Z</time></trkpt><trkpt lat="39.6704478" lon="9.5754255"><ele>108.0</ele><time>2026-05-01T17:04:17.188Z</time></trkpt><trkpt lat="39.670707" lon="9.5753983"><ele>108.0</ele><time>2026-05-01T17:04:18.187Z</time></trkpt><trkpt lat="39.6709691" lon="9.5753845"><ele>108.0</ele><time>2026-05-01T17:04:19.187Z</time></trkpt><trkpt lat="39.6712336" lon="9.575388"><ele>108.0</ele><time>2026-05-01T17:04:20.187Z</time></trkpt><trkpt lat="39.6714977" lon="9.5754053"><ele>108.0</ele><time>2026-05-01T17:04:21.187Z</time></trkpt><trkpt lat="39.6717601" lon="9.5754413"><ele>108.0</ele><time>2026-05-01T17:04:22.188Z</time></trkpt><trkpt lat="39.6720213" lon="9.5754938"><ele>108.0</ele><time>2026-05-01T17:04:23.188Z</time></trkpt><trkpt lat="39.6722802" lon="9.5755623"><ele>108.0</ele><time>2026-05-01T17:04:24.187Z</time></trkpt><trkpt lat="39.6725377" lon="9.5756463"><ele>108.0</ele><time>2026-05-01T17:04:25.187Z</time></trkpt><trkpt lat="39.6727914" lon="9.5757469"><ele>108.5</ele><time>2026-05-01T17:04:26.187Z</time></trkpt><trkpt lat="39.6730419" lon="9.5758644"><ele>109.0</ele><time>2026-05-01T17:04:27.187Z</time></trkpt><trkpt lat="39.6732866" lon="9.5759986"><ele>109.0</ele><time>2026-05-01T17:04:28.188Z</time></trkpt><trkpt lat="39.6735284" lon="9.5761468"><ele>109.0</ele><time>2026-05-01T17:04:29.187Z</time></trkpt><trkpt lat="39.6737679" lon="9.5763059"><ele>104.0</ele><time>2026-05-01T17:04:30.188Z</time></trkpt><trkpt lat="39.674005" lon="9.5764777"><ele>99.0</ele><time>2026-05-01T17:04:31.187Z</time></trkpt><trkpt lat="39.6742396" lon="9.5766585"><ele>100.0</ele><time>2026-05-01T17:04:32.188Z</time></trkpt><trkpt lat="39.6744711" lon="9.5768514"><ele>101.0</ele><time>2026-05-01T17:04:33.187Z</time></trkpt><trkpt lat="39.6747002" lon="9.5770552"><ele>99.0</ele><time>2026-05-01T17:04:34.188Z</time></trkpt><trkpt lat="39.6749288" lon="9.5772694"><ele>97.0</ele><time>2026-05-01T17:04:35.187Z</time></trkpt><trkpt lat="39.6751534" lon="9.5774933"><ele>97.5</ele><time>2026-05-01T17:04:36.187Z</time></trkpt><trkpt lat="39.6753677" lon="9.5777179"><ele>98.0</ele><time>2026-05-01T17:04:37.187Z</time></trkpt><trkpt lat="39.6755775" lon="9.5779449"><ele>98.0</ele><time>2026-05-01T17:04:38.188Z</time></trkpt><trkpt lat="39.6757869" lon="9.5781744"><ele>98.0</ele><time>2026-05-01T17:04:39.188Z</time></trkpt><trkpt lat="39.6759988" lon="9.5784082"><ele>97.5</ele><time>2026-05-01T17:04:40.187Z</time></trkpt><trkpt lat="39.676219" lon="9.5786434"><ele>97.0</ele><time>2026-05-01T17:04:41.187Z</time></trkpt><trkpt lat="39.6764364" lon="9.5788859"><ele>97.0</ele><time>2026-05-01T17:04:42.188Z</time></trkpt><trkpt lat="39.6766557" lon="9.5791299"><ele>97.0</ele><time>2026-05-01T17:04:43.188Z</time></trkpt><trkpt lat="39.6768744" lon="9.5793733"><ele>95.0</ele><time>2026-05-01T17:04:44.188Z</time></trkpt><trkpt lat="39.6770936" lon="9.5796145"><ele>93.0</ele><time>2026-05-01T17:04:45.188Z</time></trkpt><trkpt lat="39.6773134" lon="9.5798539"><ele>93.0</ele><time>2026-05-01T17:04:46.188Z</time></trkpt><trkpt lat="39.6775333" lon="9.5800934"><ele>93.0</ele><time>2026-05-01T17:04:47.187Z</time></trkpt><trkpt lat="39.6777529" lon="9.5803307"><ele>93.0</ele><time>2026-05-01T17:04:48.187Z</time></trkpt><trkpt lat="39.6779734" lon="9.5805692"><ele>93.0</ele><time>2026-05-01T17:04:49.188Z</time></trkpt><trkpt lat="39.6781912" lon="9.5808104"><ele>93.0</ele><time>2026-05-01T17:04:50.187Z</time></trkpt><trkpt lat="39.6784089" lon="9.5810513"><ele>93.0</ele><time>2026-05-01T17:04:51.188Z</time></trkpt><trkpt lat="39.6786298" lon="9.5812885"><ele>93.0</ele><time>2026-05-01T17:04:52.188Z</time></trkpt><trkpt lat="39.6788502" lon="9.5815248"><ele>93.0</ele><time>2026-05-01T17:04:53.187Z</time></trkpt><trkpt lat="39.679072" lon="9.581762"><ele>93.0</ele><time>2026-05-01T17:04:54.187Z</time></trkpt><trkpt lat="39.6792924" lon="9.5820041"><ele>93.0</ele><time>2026-05-01T17:04:55.187Z</time></trkpt><trkpt lat="39.6795105" lon="9.5822455"><ele>92.5</ele><time>2026-05-01T17:04:56.188Z</time></trkpt><trkpt lat="39.6797267" lon="9.5824862"><ele>92.0</ele><time>2026-05-01T17:04:57.188Z</time></trkpt><trkpt lat="39.6799443" lon="9.582725"><ele>91.5</ele><time>2026-05-01T17:04:58.188Z</time></trkpt><trkpt lat="39.6801589" lon="9.582958"><ele>91.0</ele><time>2026-05-01T17:04:59.188Z</time></trkpt><trkpt lat="39.6803584" lon="9.5831791"><ele>92.0</ele><time>2026-05-01T17:05:00.188Z</time></trkpt><trkpt lat="39.6805537" lon="9.5833979"><ele>93.0</ele><time>2026-05-01T17:05:01.188Z</time></trkpt><trkpt lat="39.6807465" lon="9.5836127"><ele>93.0</ele><time>2026-05-01T17:05:02.187Z</time></trkpt><trkpt lat="39.6809402" lon="9.5838273"><ele>93.0</ele><time>2026-05-01T17:05:03.188Z</time></trkpt><trkpt lat="39.6811381" lon="9.5840438"><ele>93.0</ele><time>2026-05-01T17:05:04.187Z</time></trkpt><trkpt lat="39.6813376" lon="9.5842609"><ele>93.0</ele><time>2026-05-01T17:05:05.188Z</time></trkpt><trkpt lat="39.6815386" lon="9.5844808"><ele>94.0</ele><time>2026-05-01T17:05:06.187Z</time></trkpt><trkpt lat="39.6817408" lon="9.5847018"><ele>95.0</ele><time>2026-05-01T17:05:07.188Z</time></trkpt><trkpt lat="39.6819393" lon="9.58492"><ele>95.0</ele><time>2026-05-01T17:05:08.187Z</time></trkpt><trkpt lat="39.6821333" lon="9.5851347"><ele>95.0</ele><time>2026-05-01T17:05:09.188Z</time></trkpt><trkpt lat="39.6823297" lon="9.5853482"><ele>96.5</ele><time>2026-05-01T17:05:10.187Z</time></trkpt><trkpt lat="39.6825253" lon="9.5855523"><ele>98.0</ele><time>2026-05-01T17:05:11.188Z</time></trkpt><trkpt lat="39.6827243" lon="9.5857491"><ele>100.0</ele><time>2026-05-01T17:05:12.187Z</time></trkpt><trkpt lat="39.6829258" lon="9.5859417"><ele>102.0</ele><time>2026-05-01T17:05:13.187Z</time></trkpt><trkpt lat="39.6831308" lon="9.5861255"><ele>101.0</ele><time>2026-05-01T17:05:14.187Z</time></trkpt><trkpt lat="39.6833407" lon="9.5863006"><ele>100.0</ele><time>2026-05-01T17:05:15.187Z</time></trkpt><trkpt lat="39.6835533" lon="9.5864675"><ele>102.5</ele><time>2026-05-01T17:05:16.188Z</time></trkpt><trkpt lat="39.6837689" lon="9.5866255"><ele>105.0</ele><time>2026-05-01T17:05:17.187Z</time></trkpt><trkpt lat="39.6839878" lon="9.5867788"><ele>105.0</ele><time>2026-05-01T17:05:18.187Z</time></trkpt><trkpt lat="39.6842144" lon="9.5869257"><ele>105.0</ele><time>2026-05-01T17:05:19.188Z</time></trkpt><trkpt lat="39.6844451" lon="9.5870625"><ele>106.5</ele><time>2026-05-01T17:05:20.188Z</time></trkpt><trkpt lat="39.6846751" lon="9.5871913"><ele>108.0</ele><time>2026-05-01T17:05:21.187Z</time></trkpt><trkpt lat="39.6849071" lon="9.5873124"><ele>108.0</ele><time>2026-05-01T17:05:22.187Z</time></trkpt><trkpt lat="39.6851428" lon="9.5874271"><ele>108.0</ele><time>2026-05-01T17:05:23.188Z</time></trkpt><trkpt lat="39.6853811" lon="9.5875332"><ele>108.5</ele><time>2026-05-01T17:05:24.187Z</time></trkpt><trkpt lat="39.6856229" lon="9.5876305"><ele>109.0</ele><time>2026-05-01T17:05:25.187Z</time></trkpt><trkpt lat="39.6858668" lon="9.5877216"><ele>109.0</ele><time>2026-05-01T17:05:26.188Z</time></trkpt><trkpt lat="39.6861149" lon="9.5878036"><ele>109.0</ele><time>2026-05-01T17:05:27.188Z</time></trkpt><trkpt lat="39.6863662" lon="9.5878751"><ele>113.0</ele><time>2026-05-01T17:05:28.188Z</time></trkpt><trkpt lat="39.6866184" lon="9.5879392"><ele>117.0</ele><time>2026-05-01T17:05:29.188Z</time></trkpt><trkpt lat="39.6868696" lon="9.5879931"><ele>115.5</ele><time>2026-05-01T17:05:30.188Z</time></trkpt><trkpt lat="39.6871232" lon="9.5880355"><ele>114.0</ele><time>2026-05-01T17:05:31.188Z</time></trkpt><trkpt lat="39.687377" lon="9.588066"><ele>114.0</ele><time>2026-05-01T17:05:32.187Z</time></trkpt><trkpt lat="39.6876337" lon="9.5880896"><ele>114.0</ele><time>2026-05-01T17:05:33.187Z</time></trkpt><trkpt lat="39.6878905" lon="9.5881065"><ele>112.5</ele><time>2026-05-01T17:05:34.188Z</time></trkpt><trkpt lat="39.6881503" lon="9.5881135"><ele>111.0</ele><time>2026-05-01T17:05:35.188Z</time></trkpt><trkpt lat="39.6884149" lon="9.5881111"><ele>106.0</ele><time>2026-05-01T17:05:36.187Z</time></trkpt><trkpt lat="39.6886789" lon="9.5880947"><ele>101.0</ele><time>2026-05-01T17:05:37.187Z</time></trkpt><trkpt lat="39.6889449" lon="9.5880667"><ele>101.0</ele><time>2026-05-01T17:05:38.188Z</time></trkpt><trkpt lat="39.6892091" lon="9.588032"><ele>101.0</ele><time>2026-05-01T17:05:39.187Z</time></trkpt><trkpt lat="39.6894628" lon="9.5879946"><ele>100.5</ele><time>2026-05-01T17:05:40.188Z</time></trkpt><trkpt lat="39.6897155" lon="9.5879589"><ele>100.0</ele><time>2026-05-01T17:05:41.188Z</time></trkpt><trkpt lat="39.6899669" lon="9.5879219"><ele>100.0</ele><time>2026-05-01T17:05:42.187Z</time></trkpt><trkpt lat="39.6902153" lon="9.5878862"><ele>100.0</ele><time>2026-05-01T17:05:43.187Z</time></trkpt><trkpt lat="39.6904639" lon="9.5878497"><ele>101.5</ele><time>2026-05-01T17:05:44.188Z</time></trkpt><trkpt lat="39.6907167" lon="9.5878124"><ele>103.0</ele><time>2026-05-01T17:05:45.187Z</time></trkpt><trkpt lat="39.6909727" lon="9.5877737"><ele>106.5</ele><time>2026-05-01T17:05:46.188Z</time></trkpt><trkpt lat="39.6912319" lon="9.5877382"><ele>110.0</ele><time>2026-05-01T17:05:47.187Z</time></trkpt><trkpt lat="39.6914937" lon="9.5877032"><ele>110.0</ele><time>2026-05-01T17:05:48.188Z</time></trkpt><trkpt lat="39.691757" lon="9.5876675"><ele>110.0</ele><time>2026-05-01T17:05:49.188Z</time></trkpt><trkpt lat="39.6920227" lon="9.5876295"><ele>111.5</ele><time>2026-05-01T17:05:50.187Z</time></trkpt><trkpt lat="39.6922856" lon="9.5875894"><ele>113.0</ele><time>2026-05-01T17:05:51.187Z</time></trkpt><trkpt lat="39.6925528" lon="9.587552"><ele>112.5</ele><time>2026-05-01T17:05:52.188Z</time></trkpt><trkpt lat="39.6928216" lon="9.5875124"><ele>112.0</ele><time>2026-05-01T17:05:53.187Z</time></trkpt><trkpt lat="39.6930932" lon="9.5874715"><ele>112.0</ele><time>2026-05-01T17:05:54.188Z</time></trkpt><trkpt lat="39.6933667" lon="9.5874304"><ele>112.0</ele><time>2026-05-01T17:05:55.188Z</time></trkpt><trkpt lat="39.693639" lon="9.587389"><ele>112.5</ele><time>2026-05-01T17:05:56.188Z</time></trkpt><trkpt lat="39.6939125" lon="9.5873513"><ele>113.0</ele><time>2026-05-01T17:05:57.188Z</time></trkpt><trkpt lat="39.6941863" lon="9.5873136"><ele>115.5</ele><time>2026-05-01T17:05:58.187Z</time></trkpt><trkpt lat="39.6944592" lon="9.5872747"><ele>118.0</ele><time>2026-05-01T17:05:59.187Z</time></trkpt><trkpt lat="39.6947316" lon="9.5872354"><ele>118.0</ele><time>2026-05-01T17:06:00.188Z</time></trkpt><trkpt lat="39.6950039" lon="9.5871941"><ele>118.0</ele><time>2026-05-01T17:06:01.188Z</time></trkpt><trkpt lat="39.6952754" lon="9.5871552"><ele>122.5</ele><time>2026-05-01T17:06:02.188Z</time></trkpt><trkpt lat="39.695548" lon="9.5871183"><ele>127.0</ele><time>2026-05-01T17:06:03.188Z</time></trkpt><trkpt lat="39.6958207" lon="9.58708"><ele>122.5</ele><time>2026-05-01T17:06:04.187Z</time></trkpt><trkpt lat="39.6960921" lon="9.587044"><ele>118.0</ele><time>2026-05-01T17:06:05.188Z</time></trkpt><trkpt lat="39.6963626" lon="9.5870105"><ele>118.0</ele><time>2026-05-01T17:06:06.188Z</time></trkpt><trkpt lat="39.6966341" lon="9.5869834"><ele>118.0</ele><time>2026-05-01T17:06:07.188Z</time></trkpt><trkpt lat="39.6969062" lon="9.5869635"><ele>118.5</ele><time>2026-05-01T17:06:08.187Z</time></trkpt><trkpt lat="39.6971799" lon="9.5869514"><ele>119.0</ele><time>2026-05-01T17:06:09.188Z</time></trkpt><trkpt lat="39.6974559" lon="9.5869442"><ele>119.0</ele><time>2026-05-01T17:06:10.187Z</time></trkpt><trkpt lat="39.6977354" lon="9.5869404"><ele>119.0</ele><time>2026-05-01T17:06:11.188Z</time></trkpt><trkpt lat="39.6980182" lon="9.5869361"><ele>119.0</ele><time>2026-05-01T17:06:12.187Z</time></trkpt><trkpt lat="39.6983031" lon="9.5869306"><ele>119.0</ele><time>2026-05-01T17:06:13.187Z</time></trkpt><trkpt lat="39.6985906" lon="9.5869262"><ele>119.0</ele><time>2026-05-01T17:06:14.187Z</time></trkpt><trkpt lat="39.6988773" lon="9.5869207"><ele>119.0</ele><time>2026-05-01T17:06:15.188Z</time></trkpt><trkpt lat="39.6991637" lon="9.5869164"><ele>119.5</ele><time>2026-05-01T17:06:16.188Z</time></trkpt><trkpt lat="39.6994528" lon="9.5869139"><ele>120.0</ele><time>2026-05-01T17:06:17.187Z</time></trkpt><trkpt lat="39.6997456" lon="9.586911"><ele>120.0</ele><time>2026-05-01T17:06:18.187Z</time></trkpt><trkpt lat="39.7000365" lon="9.5869078"><ele>120.0</ele><time>2026-05-01T17:06:19.187Z</time></trkpt><trkpt lat="39.7003329" lon="9.5869043"><ele>118.5</ele><time>2026-05-01T17:06:20.188Z</time></trkpt><trkpt lat="39.7006277" lon="9.5868988"><ele>117.0</ele><time>2026-05-01T17:06:21.187Z</time></trkpt><trkpt lat="39.7009182" lon="9.5868944"><ele>114.0</ele><time>2026-05-01T17:06:22.188Z</time></trkpt><trkpt lat="39.7011955" lon="9.5868919"><ele>111.0</ele><time>2026-05-01T17:06:23.187Z</time></trkpt><trkpt lat="39.7014663" lon="9.5868902"><ele>111.0</ele><time>2026-05-01T17:06:24.188Z</time></trkpt><trkpt lat="39.7017387" lon="9.5868868"><ele>111.0</ele><time>2026-05-01T17:06:25.187Z</time></trkpt><trkpt lat="39.7020125" lon="9.5868811"><ele>113.0</ele><time>2026-05-01T17:06:26.188Z</time></trkpt><trkpt lat="39.7022887" lon="9.5868768"><ele>115.0</ele><time>2026-05-01T17:06:27.188Z</time></trkpt><trkpt lat="39.7025639" lon="9.5868747"><ele>116.0</ele><time>2026-05-01T17:06:28.187Z</time></trkpt><trkpt lat="39.7028418" lon="9.5868729"><ele>117.0</ele><time>2026-05-01T17:06:29.187Z</time></trkpt><trkpt lat="39.7031201" lon="9.5868711"><ele>117.0</ele><time>2026-05-01T17:06:30.188Z</time></trkpt><trkpt lat="39.7033979" lon="9.5868675"><ele>117.0</ele><time>2026-05-01T17:06:31.188Z</time></trkpt><trkpt lat="39.7036802" lon="9.5868653"><ele>117.5</ele><time>2026-05-01T17:06:32.188Z</time></trkpt><trkpt lat="39.7039669" lon="9.5868626"><ele>118.0</ele><time>2026-05-01T17:06:33.188Z</time></trkpt><trkpt lat="39.7042512" lon="9.5868589"><ele>119.0</ele><time>2026-05-01T17:06:34.187Z</time></trkpt><trkpt lat="39.7045247" lon="9.5868545"><ele>120.0</ele><time>2026-05-01T17:06:35.188Z</time></trkpt><trkpt lat="39.7048014" lon="9.5868507"><ele>120.0</ele><time>2026-05-01T17:06:36.187Z</time></trkpt><trkpt lat="39.70508" lon="9.5868454"><ele>120.0</ele><time>2026-05-01T17:06:37.187Z</time></trkpt><trkpt lat="39.7053581" lon="9.5868412"><ele>121.5</ele><time>2026-05-01T17:06:38.188Z</time></trkpt><trkpt lat="39.7056357" lon="9.586838"><ele>123.0</ele><time>2026-05-01T17:06:39.187Z</time></trkpt><trkpt lat="39.7059161" lon="9.5868347"><ele>121.0</ele><time>2026-05-01T17:06:40.188Z</time></trkpt><trkpt lat="39.7061964" lon="9.5868318"><ele>119.0</ele><time>2026-05-01T17:06:41.188Z</time></trkpt><trkpt lat="39.7064744" lon="9.5868283"><ele>119.0</ele><time>2026-05-01T17:06:42.187Z</time></trkpt><trkpt lat="39.7067511" lon="9.5868233"><ele>119.0</ele><time>2026-05-01T17:06:43.188Z</time></trkpt><trkpt lat="39.7070279" lon="9.586819"><ele>118.5</ele><time>2026-05-01T17:06:44.188Z</time></trkpt><trkpt lat="39.7073046" lon="9.5868172"><ele>118.0</ele><time>2026-05-01T17:06:45.188Z</time></trkpt><trkpt lat="39.7075811" lon="9.5868163"><ele>117.5</ele><time>2026-05-01T17:06:46.188Z</time></trkpt><trkpt lat="39.7078568" lon="9.586815"><ele>117.0</ele><time>2026-05-01T17:06:47.187Z</time></trkpt><trkpt lat="39.7081279" lon="9.5868121"><ele>117.0</ele><time>2026-05-01T17:06:48.187Z</time></trkpt><trkpt lat="39.7083973" lon="9.5868087"><ele>117.0</ele><time>2026-05-01T17:06:49.188Z</time></trkpt><trkpt lat="39.7086649" lon="9.5868033"><ele>117.5</ele><time>2026-05-01T17:06:50.188Z</time></trkpt><trkpt lat="39.7089322" lon="9.5868014"><ele>118.0</ele><time>2026-05-01T17:06:51.188Z</time></trkpt><trkpt lat="39.7092031" lon="9.5868004"><ele>120.0</ele><time>2026-05-01T17:06:52.187Z</time></trkpt><trkpt lat="39.7094764" lon="9.5867977"><ele>122.0</ele><time>2026-05-01T17:06:53.188Z</time></trkpt><trkpt lat="39.7097502" lon="9.5867954"><ele>122.0</ele><time>2026-05-01T17:06:54.188Z</time></trkpt><trkpt lat="39.7100271" lon="9.5867925"><ele>122.0</ele><time>2026-05-01T17:06:55.188Z</time></trkpt><trkpt lat="39.7103034" lon="9.5867885"><ele>123.0</ele><time>2026-05-01T17:06:56.187Z</time></trkpt><trkpt lat="39.7105808" lon="9.5867858"><ele>124.0</ele><time>2026-05-01T17:06:57.188Z</time></trkpt><trkpt lat="39.7108587" lon="9.5867832"><ele>125.0</ele><time>2026-05-01T17:06:58.187Z</time></trkpt><trkpt lat="39.7111367" lon="9.5867805"><ele>126.0</ele><time>2026-05-01T17:06:59.187Z</time></trkpt><trkpt lat="39.7114126" lon="9.5867785"><ele>126.0</ele><time>2026-05-01T17:07:00.187Z</time></trkpt><trkpt lat="39.7116875" lon="9.5867773"><ele>126.0</ele><time>2026-05-01T17:07:01.187Z</time></trkpt><trkpt lat="39.711963" lon="9.5867734"><ele>125.5</ele><time>2026-05-01T17:07:02.187Z</time></trkpt><trkpt lat="39.7122376" lon="9.5867663"><ele>125.0</ele><time>2026-05-01T17:07:03.188Z</time></trkpt><trkpt lat="39.7125107" lon="9.5867561"><ele>125.0</ele><time>2026-05-01T17:07:04.187Z</time></trkpt><trkpt lat="39.7127833" lon="9.5867393"><ele>125.0</ele><time>2026-05-01T17:07:05.188Z</time></trkpt><trkpt lat="39.7130569" lon="9.5867088"><ele>125.0</ele><time>2026-05-01T17:07:06.187Z</time></trkpt><trkpt lat="39.7133282" lon="9.586663"><ele>125.0</ele><time>2026-05-01T17:07:07.188Z</time></trkpt><trkpt lat="39.7135963" lon="9.5866026"><ele>125.5</ele><time>2026-05-01T17:07:08.188Z</time></trkpt><trkpt lat="39.713863" lon="9.5865269"><ele>126.0</ele><time>2026-05-01T17:07:09.188Z</time></trkpt><trkpt lat="39.7141221" lon="9.5864383"><ele>126.0</ele><time>2026-05-01T17:07:10.187Z</time></trkpt><trkpt lat="39.714365" lon="9.5863432"><ele>126.0</ele><time>2026-05-01T17:07:11.188Z</time></trkpt><trkpt lat="39.7145937" lon="9.5862422"><ele>125.0</ele><time>2026-05-01T17:07:12.188Z</time></trkpt><trkpt lat="39.7148089" lon="9.5861365"><ele>124.0</ele><time>2026-05-01T17:07:13.187Z</time></trkpt><trkpt lat="39.7150121" lon="9.5860241"><ele>124.0</ele><time>2026-05-01T17:07:14.188Z</time></trkpt><trkpt lat="39.7152083" lon="9.5859033"><ele>124.0</ele><time>2026-05-01T17:07:15.188Z</time></trkpt><trkpt lat="39.7154025" lon="9.5857766"><ele>124.0</ele><time>2026-05-01T17:07:16.187Z</time></trkpt><trkpt lat="39.7155964" lon="9.5856368"><ele>124.5</ele><time>2026-05-01T17:07:17.188Z</time></trkpt><trkpt lat="39.7157925" lon="9.5854849"><ele>125.0</ele><time>2026-05-01T17:07:18.187Z</time></trkpt><trkpt lat="39.71599" lon="9.5853223"><ele>124.0</ele><time>2026-05-01T17:07:19.188Z</time></trkpt><trkpt lat="39.7161879" lon="9.5851493"><ele>123.0</ele><time>2026-05-01T17:07:20.188Z</time></trkpt><trkpt lat="39.7163857" lon="9.584965"><ele>123.0</ele><time>2026-05-01T17:07:21.187Z</time></trkpt><trkpt lat="39.7165836" lon="9.5847748"><ele>123.0</ele><time>2026-05-01T17:07:22.188Z</time></trkpt><trkpt lat="39.7167827" lon="9.584582"><ele>123.5</ele><time>2026-05-01T17:07:23.187Z</time></trkpt><trkpt lat="39.7169827" lon="9.5843859"><ele>124.0</ele><time>2026-05-01T17:07:24.187Z</time></trkpt><trkpt lat="39.7171846" lon="9.5841891"><ele>124.0</ele><time>2026-05-01T17:07:25.187Z</time></trkpt><trkpt lat="39.7173887" lon="9.5839913"><ele>124.0</ele><time>2026-05-01T17:07:26.187Z</time></trkpt><trkpt lat="39.7175938" lon="9.5837916"><ele>124.0</ele><time>2026-05-01T17:07:27.187Z</time></trkpt><trkpt lat="39.7177989" lon="9.5835899"><ele>124.0</ele><time>2026-05-01T17:07:28.188Z</time></trkpt><trkpt lat="39.7179981" lon="9.5833945"><ele>124.0</ele><time>2026-05-01T17:07:29.188Z</time></trkpt><trkpt lat="39.7181944" lon="9.5832017"><ele>124.0</ele><time>2026-05-01T17:07:30.187Z</time></trkpt><trkpt lat="39.7183916" lon="9.583011"><ele>125.0</ele><time>2026-05-01T17:07:31.188Z</time></trkpt><trkpt lat="39.7185926" lon="9.5828282"><ele>126.0</ele><time>2026-05-01T17:07:32.187Z</time></trkpt><trkpt lat="39.7188001" lon="9.582653"><ele>126.0</ele><time>2026-05-01T17:07:33.188Z</time></trkpt><trkpt lat="39.7190129" lon="9.5824859"><ele>126.0</ele><time>2026-05-01T17:07:34.187Z</time></trkpt><trkpt lat="39.7192341" lon="9.5823353"><ele>124.5</ele><time>2026-05-01T17:07:35.187Z</time></trkpt><trkpt lat="39.7194607" lon="9.5821976"><ele>123.0</ele><time>2026-05-01T17:07:36.187Z</time></trkpt><trkpt lat="39.7196934" lon="9.5820765"><ele>124.5</ele><time>2026-05-01T17:07:37.187Z</time></trkpt><trkpt lat="39.7199343" lon="9.5819707"><ele>126.0</ele><time>2026-05-01T17:07:38.187Z</time></trkpt><trkpt lat="39.7201815" lon="9.5818828"><ele>126.0</ele><time>2026-05-01T17:07:39.188Z</time></trkpt><trkpt lat="39.7204335" lon="9.5818097"><ele>126.0</ele><time>2026-05-01T17:07:40.188Z</time></trkpt><trkpt lat="39.7206891" lon="9.5817538"><ele>126.0</ele><time>2026-05-01T17:07:41.187Z</time></trkpt><trkpt lat="39.7209381" lon="9.5817179"><ele>126.0</ele><time>2026-05-01T17:07:42.187Z</time></trkpt><trkpt lat="39.7211854" lon="9.5816962"><ele>127.0</ele><time>2026-05-01T17:07:43.187Z</time></trkpt><trkpt lat="39.7214331" lon="9.5816781"><ele>128.0</ele><time>2026-05-01T17:07:44.187Z</time></trkpt><trkpt lat="39.7216812" lon="9.5816605"><ele>128.0</ele><time>2026-05-01T17:07:45.188Z</time></trkpt><trkpt lat="39.7219299" lon="9.5816413"><ele>128.0</ele><time>2026-05-01T17:07:46.187Z</time></trkpt><trkpt lat="39.7221807" lon="9.5816166"><ele>128.0</ele><time>2026-05-01T17:07:47.188Z</time></trkpt><trkpt lat="39.7224324" lon="9.5815802"><ele>128.0</ele><time>2026-05-01T17:07:48.188Z</time></trkpt><trkpt lat="39.7226843" lon="9.581533"><ele>128.0</ele><time>2026-05-01T17:07:49.188Z</time></trkpt><trkpt lat="39.7229365" lon="9.5814731"><ele>128.0</ele><time>2026-05-01T17:07:50.188Z</time></trkpt><trkpt lat="39.7231864" lon="9.5814004"><ele>128.0</ele><time>2026-05-01T17:07:51.187Z</time></trkpt><trkpt lat="39.7234345" lon="9.5813098"><ele>128.0</ele><time>2026-05-01T17:07:52.187Z</time></trkpt><trkpt lat="39.7236802" lon="9.5812106"><ele>129.0</ele><time>2026-05-01T17:07:53.188Z</time></trkpt><trkpt lat="39.7239228" lon="9.5811041"><ele>130.0</ele><time>2026-05-01T17:07:54.187Z</time></trkpt><trkpt lat="39.724163" lon="9.5809949"><ele>131.0</ele><time>2026-05-01T17:07:55.187Z</time></trkpt><trkpt lat="39.7244015" lon="9.5808839"><ele>132.0</ele><time>2026-05-01T17:07:56.187Z</time></trkpt><trkpt lat="39.7246394" lon="9.580769"><ele>132.0</ele><time>2026-05-01T17:07:57.188Z</time></trkpt><trkpt lat="39.7248797" lon="9.580653"><ele>132.0</ele><time>2026-05-01T17:07:58.187Z</time></trkpt><trkpt lat="39.7251205" lon="9.5805373"><ele>133.0</ele><time>2026-05-01T17:07:59.188Z</time></trkpt><trkpt lat="39.7253603" lon="9.5804275"><ele>134.0</ele><time>2026-05-01T17:08:00.188Z</time></trkpt><trkpt lat="39.7256005" lon="9.5803215"><ele>134.5</ele><time>2026-05-01T17:08:01.188Z</time></trkpt><trkpt lat="39.7258423" lon="9.5802169"><ele>135.0</ele><time>2026-05-01T17:08:02.187Z</time></trkpt><trkpt lat="39.7260863" lon="9.5801172"><ele>135.0</ele><time>2026-05-01T17:08:03.187Z</time></trkpt><trkpt lat="39.7263353" lon="9.5800173"><ele>135.0</ele><time>2026-05-01T17:08:04.188Z</time></trkpt><trkpt lat="39.7265842" lon="9.5799201"><ele>135.0</ele><time>2026-05-01T17:08:05.187Z</time></trkpt><trkpt lat="39.7268366" lon="9.5798288"><ele>135.0</ele><time>2026-05-01T17:08:06.187Z</time></trkpt><trkpt lat="39.7270905" lon="9.5797393"><ele>135.0</ele><time>2026-05-01T17:08:07.188Z</time></trkpt><trkpt lat="39.7273437" lon="9.579653"><ele>135.0</ele><time>2026-05-01T17:08:08.188Z</time></trkpt><trkpt lat="39.7275997" lon="9.5795699"><ele>137.5</ele><time>2026-05-01T17:08:09.188Z</time></trkpt><trkpt lat="39.7278576" lon="9.5794908"><ele>140.0</ele><time>2026-05-01T17:08:10.188Z</time></trkpt><trkpt lat="39.7281176" lon="9.579412"><ele>140.0</ele><time>2026-05-01T17:08:11.188Z</time></trkpt><trkpt lat="39.7283782" lon="9.5793349"><ele>140.0</ele><time>2026-05-01T17:08:12.188Z</time></trkpt><trkpt lat="39.7286387" lon="9.5792594"><ele>138.5</ele><time>2026-05-01T17:08:13.187Z</time></trkpt><trkpt lat="39.728898" lon="9.5791826"><ele>137.0</ele><time>2026-05-01T17:08:14.188Z</time></trkpt><trkpt lat="39.729157" lon="9.5791081"><ele>135.5</ele><time>2026-05-01T17:08:15.187Z</time></trkpt><trkpt lat="39.7294182" lon="9.5790329"><ele>134.0</ele><time>2026-05-01T17:08:16.188Z</time></trkpt><trkpt lat="39.729678" lon="9.5789588"><ele>134.0</ele><time>2026-05-01T17:08:17.188Z</time></trkpt><trkpt lat="39.7299392" lon="9.5788833"><ele>134.0</ele><time>2026-05-01T17:08:18.187Z</time></trkpt><trkpt lat="39.7302025" lon="9.5788088"><ele>134.0</ele><time>2026-05-01T17:08:19.187Z</time></trkpt><trkpt lat="39.7304652" lon="9.5787347"><ele>134.0</ele><time>2026-05-01T17:08:20.187Z</time></trkpt><trkpt lat="39.7307266" lon="9.5786622"><ele>135.0</ele><time>2026-05-01T17:08:21.187Z</time></trkpt><trkpt lat="39.7309902" lon="9.5785909"><ele>136.0</ele><time>2026-05-01T17:08:22.187Z</time></trkpt><trkpt lat="39.7312556" lon="9.5785167"><ele>137.5</ele><time>2026-05-01T17:08:23.187Z</time></trkpt><trkpt lat="39.7315229" lon="9.5784428"><ele>139.0</ele><time>2026-05-01T17:08:24.187Z</time></trkpt><trkpt lat="39.7317906" lon="9.5783697"><ele>139.5</ele><time>2026-05-01T17:08:25.187Z</time></trkpt><trkpt lat="39.7320588" lon="9.5782998"><ele>140.0</ele><time>2026-05-01T17:08:26.187Z</time></trkpt><trkpt lat="39.7323285" lon="9.5782332"><ele>140.0</ele><time>2026-05-01T17:08:27.187Z</time></trkpt><trkpt lat="39.7325988" lon="9.5781714"><ele>140.0</ele><time>2026-05-01T17:08:28.187Z</time></trkpt><trkpt lat="39.7328687" lon="9.5781158"><ele>139.5</ele><time>2026-05-01T17:08:29.188Z</time></trkpt><trkpt lat="39.733138" lon="9.5780645"><ele>139.0</ele><time>2026-05-01T17:08:30.188Z</time></trkpt><trkpt lat="39.7334082" lon="9.5780184"><ele>139.0</ele><time>2026-05-01T17:08:31.188Z</time></trkpt><trkpt lat="39.7336765" lon="9.5779762"><ele>139.0</ele><time>2026-05-01T17:08:32.188Z</time></trkpt><trkpt lat="39.7339442" lon="9.5779406"><ele>139.0</ele><time>2026-05-01T17:08:33.187Z</time></trkpt><trkpt lat="39.734211" lon="9.5779111"><ele>139.0</ele><time>2026-05-01T17:08:34.187Z</time></trkpt><trkpt lat="39.7344785" lon="9.5778838"><ele>140.0</ele><time>2026-05-01T17:08:35.188Z</time></trkpt><trkpt lat="39.734743" lon="9.5778613"><ele>141.0</ele><time>2026-05-01T17:08:36.188Z</time></trkpt><trkpt lat="39.7350048" lon="9.5778437"><ele>141.5</ele><time>2026-05-01T17:08:37.187Z</time></trkpt><trkpt lat="39.7352677" lon="9.5778356"><ele>142.0</ele><time>2026-05-01T17:08:38.187Z</time></trkpt><trkpt lat="39.7355281" lon="9.5778336"><ele>142.0</ele><time>2026-05-01T17:08:39.187Z</time></trkpt><trkpt lat="39.7357889" lon="9.5778371"><ele>142.0</ele><time>2026-05-01T17:08:40.187Z</time></trkpt><trkpt lat="39.7360502" lon="9.5778445"><ele>141.0</ele><time>2026-05-01T17:08:41.187Z</time></trkpt><trkpt lat="39.7363081" lon="9.5778554"><ele>140.0</ele><time>2026-05-01T17:08:42.188Z</time></trkpt><trkpt lat="39.7365657" lon="9.5778673"><ele>140.0</ele><time>2026-05-01T17:08:43.187Z</time></trkpt><trkpt lat="39.7368206" lon="9.5778791"><ele>140.0</ele><time>2026-05-01T17:08:44.187Z</time></trkpt><trkpt lat="39.7370722" lon="9.5778922"><ele>141.5</ele><time>2026-05-01T17:08:45.188Z</time></trkpt><trkpt lat="39.7373216" lon="9.5779085"><ele>143.0</ele><time>2026-05-01T17:08:46.187Z</time></trkpt><trkpt lat="39.7375708" lon="9.5779245"><ele>144.0</ele><time>2026-05-01T17:08:47.187Z</time></trkpt><trkpt lat="39.73782" lon="9.5779424"><ele>145.0</ele><time>2026-05-01T17:08:48.187Z</time></trkpt><trkpt lat="39.7380695" lon="9.577962"><ele>145.0</ele><time>2026-05-01T17:08:49.188Z</time></trkpt><trkpt lat="39.7383174" lon="9.577982"><ele>145.0</ele><time>2026-05-01T17:08:50.188Z</time></trkpt><trkpt lat="39.7385631" lon="9.5780063"><ele>144.5</ele><time>2026-05-01T17:08:51.188Z</time></trkpt><trkpt lat="39.7388071" lon="9.5780376"><ele>144.0</ele><time>2026-05-01T17:08:52.188Z</time></trkpt><trkpt lat="39.7390517" lon="9.5780761"><ele>144.0</ele><time>2026-05-01T17:08:53.188Z</time></trkpt><trkpt lat="39.7392947" lon="9.5781238"><ele>144.0</ele><time>2026-05-01T17:08:54.188Z</time></trkpt><trkpt lat="39.7395385" lon="9.5781801"><ele>145.0</ele><time>2026-05-01T17:08:55.188Z</time></trkpt><trkpt lat="39.7397819" lon="9.5782418"><ele>146.0</ele><time>2026-05-01T17:08:56.187Z</time></trkpt><trkpt lat="39.7400247" lon="9.5783077"><ele>146.5</ele><time>2026-05-01T17:08:57.188Z</time></trkpt><trkpt lat="39.7402682" lon="9.578377"><ele>147.0</ele><time>2026-05-01T17:08:58.187Z</time></trkpt><trkpt lat="39.7405111" lon="9.5784459"><ele>147.0</ele><time>2026-05-01T17:08:59.187Z</time></trkpt><trkpt lat="39.7407557" lon="9.5785144"><ele>147.0</ele><time>2026-05-01T17:09:00.188Z</time></trkpt><trkpt lat="39.7410002" lon="9.5785853"><ele>148.0</ele><time>2026-05-01T17:09:01.188Z</time></trkpt><trkpt lat="39.741246" lon="9.5786591"><ele>149.0</ele><time>2026-05-01T17:09:02.188Z</time></trkpt><trkpt lat="39.7414937" lon="9.5787297"><ele>149.0</ele><time>2026-05-01T17:09:03.187Z</time></trkpt><trkpt lat="39.7417417" lon="9.5788045"><ele>149.0</ele><time>2026-05-01T17:09:04.187Z</time></trkpt><trkpt lat="39.7419911" lon="9.5788797"><ele>150.0</ele><time>2026-05-01T17:09:05.187Z</time></trkpt><trkpt lat="39.7422409" lon="9.5789559"><ele>151.0</ele><time>2026-05-01T17:09:06.187Z</time></trkpt><trkpt lat="39.7424919" lon="9.5790341"><ele>152.0</ele><time>2026-05-01T17:09:07.188Z</time></trkpt><trkpt lat="39.7427439" lon="9.5791123"><ele>153.0</ele><time>2026-05-01T17:09:08.187Z</time></trkpt><trkpt lat="39.7429972" lon="9.5791918"><ele>153.0</ele><time>2026-05-01T17:09:09.187Z</time></trkpt><trkpt lat="39.7432521" lon="9.5792675"><ele>153.0</ele><time>2026-05-01T17:09:10.188Z</time></trkpt><trkpt lat="39.7435051" lon="9.5793413"><ele>154.0</ele><time>2026-05-01T17:09:11.187Z</time></trkpt><trkpt lat="39.7437579" lon="9.579408"><ele>155.0</ele><time>2026-05-01T17:09:12.187Z</time></trkpt><trkpt lat="39.7440093" lon="9.5794668"><ele>155.0</ele><time>2026-05-01T17:09:13.187Z</time></trkpt><trkpt lat="39.744261" lon="9.5795136"><ele>155.0</ele><time>2026-05-01T17:09:14.188Z</time></trkpt><trkpt lat="39.7445136" lon="9.5795442"><ele>158.0</ele><time>2026-05-01T17:09:15.188Z</time></trkpt><trkpt lat="39.7447661" lon="9.5795598"><ele>161.0</ele><time>2026-05-01T17:09:16.188Z</time></trkpt><trkpt lat="39.7450189" lon="9.5795567"><ele>161.5</ele><time>2026-05-01T17:09:17.187Z</time></trkpt><trkpt lat="39.7452723" lon="9.5795397"><ele>162.0</ele><time>2026-05-01T17:09:18.188Z</time></trkpt><trkpt lat="39.7455257" lon="9.5795035"><ele>160.5</ele><time>2026-05-01T17:09:19.187Z</time></trkpt><trkpt lat="39.7457788" lon="9.5794464"><ele>159.0</ele><time>2026-05-01T17:09:20.188Z</time></trkpt><trkpt lat="39.7460287" lon="9.5793693"><ele>161.0</ele><time>2026-05-01T17:09:21.188Z</time></trkpt><trkpt lat="39.7462765" lon="9.5792749"><ele>163.0</ele><time>2026-05-01T17:09:22.187Z</time></trkpt><trkpt lat="39.7465248" lon="9.5791637"><ele>163.0</ele><time>2026-05-01T17:09:23.188Z</time></trkpt><trkpt lat="39.7467691" lon="9.579044"><ele>163.0</ele><time>2026-05-01T17:09:24.188Z</time></trkpt><trkpt lat="39.7470121" lon="9.5789161"><ele>164.0</ele><time>2026-05-01T17:09:25.188Z</time></trkpt><trkpt lat="39.7472536" lon="9.578786"><ele>165.0</ele><time>2026-05-01T17:09:26.188Z</time></trkpt><trkpt lat="39.7474986" lon="9.5786597"><ele>164.5</ele><time>2026-05-01T17:09:27.187Z</time></trkpt><trkpt lat="39.7477438" lon="9.5785333"><ele>164.0</ele><time>2026-05-01T17:09:28.187Z</time></trkpt><trkpt lat="39.7479914" lon="9.5784092"><ele>164.0</ele><time>2026-05-01T17:09:29.188Z</time></trkpt><trkpt lat="39.7482364" lon="9.5782933"><ele>164.0</ele><time>2026-05-01T17:09:30.188Z</time></trkpt><trkpt lat="39.7484797" lon="9.5781885"><ele>166.0</ele><time>2026-05-01T17:09:31.187Z</time></trkpt><trkpt lat="39.7487186" lon="9.5780932"><ele>168.0</ele><time>2026-05-01T17:09:32.188Z</time></trkpt><trkpt lat="39.748955" lon="9.5780107"><ele>168.0</ele><time>2026-05-01T17:09:33.187Z</time></trkpt><trkpt lat="39.7491856" lon="9.5779473"><ele>168.0</ele><time>2026-05-01T17:09:34.188Z</time></trkpt><trkpt lat="39.7494232" lon="9.5778979"><ele>166.5</ele><time>2026-05-01T17:09:35.188Z</time></trkpt><trkpt lat="39.7496613" lon="9.5778659"><ele>165.0</ele><time>2026-05-01T17:09:36.188Z</time></trkpt><trkpt lat="39.7499011" lon="9.5778512"><ele>165.0</ele><time>2026-05-01T17:09:37.188Z</time></trkpt><trkpt lat="39.7501269" lon="9.5778498"><ele>165.0</ele><time>2026-05-01T17:09:38.187Z</time></trkpt><trkpt lat="39.7503442" lon="9.5778618"><ele>165.0</ele><time>2026-05-01T17:09:39.188Z</time></trkpt><trkpt lat="39.7505579" lon="9.5778896"><ele>165.66666666666666</ele><time>2026-05-01T17:09:40.187Z</time></trkpt><trkpt lat="39.7507687" lon="9.5779319"><ele>166.33333333333331</ele><time>2026-05-01T17:09:41.187Z</time></trkpt><trkpt lat="39.7509789" lon="9.5779895"><ele>167.0</ele><time>2026-05-01T17:09:42.187Z</time></trkpt><trkpt lat="39.7511861" lon="9.5780546"><ele>167.0</ele><time>2026-05-01T17:09:43.188Z</time></trkpt><trkpt lat="39.7513925" lon="9.5781327"><ele>167.0</ele><time>2026-05-01T17:09:44.188Z</time></trkpt><trkpt lat="39.7515956" lon="9.578227"><ele>167.0</ele><time>2026-05-01T17:09:45.187Z</time></trkpt><trkpt lat="39.7517974" lon="9.5783354"><ele>168.66666666666666</ele><time>2026-05-01T17:09:46.187Z</time></trkpt><trkpt lat="39.7520009" lon="9.5784549"><ele>170.33333333333334</ele><time>2026-05-01T17:09:47.187Z</time></trkpt><trkpt lat="39.7522025" lon="9.5785837"><ele>172.0</ele><time>2026-05-01T17:09:48.187Z</time></trkpt><trkpt lat="39.7524056" lon="9.5787259"><ele>173.5</ele><time>2026-05-01T17:09:49.187Z</time></trkpt><trkpt lat="39.7526066" lon="9.5788762"><ele>175.0</ele><time>2026-05-01T17:09:50.187Z</time></trkpt><trkpt lat="39.7528035" lon="9.5790317"><ele>179.0</ele><time>2026-05-01T17:09:51.187Z</time></trkpt><trkpt lat="39.7530003" lon="9.5791905"><ele>183.0</ele><time>2026-05-01T17:09:52.187Z</time></trkpt><trkpt lat="39.753195" lon="9.5793481"><ele>183.0</ele><time>2026-05-01T17:09:53.188Z</time></trkpt><trkpt lat="39.7533898" lon="9.5795052"><ele>183.0</ele><time>2026-05-01T17:09:54.188Z</time></trkpt><trkpt lat="39.7600117" lon="9.5914649"><ele>178.33333333333334</ele><time>2026-05-01T17:10:45.188Z</time></trkpt><trkpt lat="39.7600204" lon="9.5917282"><ele>173.66666666666669</ele><time>2026-05-01T17:10:46.188Z</time></trkpt><trkpt lat="39.7600355" lon="9.5919939"><ele>169.0</ele><time>2026-05-01T17:10:47.188Z</time></trkpt><trkpt lat="39.7600476" lon="9.5922571"><ele>141.0</ele><time>2026-05-01T17:10:48.188Z</time></trkpt><trkpt lat="39.7602755" lon="9.5944161"><ele>141.33333333333334</ele><time>2026-05-01T17:10:56.188Z</time></trkpt><trkpt lat="39.760335" lon="9.5946903"><ele>141.66666666666669</ele><time>2026-05-01T17:10:57.187Z</time></trkpt><trkpt lat="39.7604025" lon="9.5949625"><ele>142.0</ele><time>2026-05-01T17:10:58.188Z</time></trkpt><trkpt lat="39.7604795" lon="9.595235"><ele>142.33333333333334</ele><time>2026-05-01T17:10:59.187Z</time></trkpt><trkpt lat="39.7605742" lon="9.5954976"><ele>142.66666666666666</ele><time>2026-05-01T17:11:00.187Z</time></trkpt><trkpt lat="39.7606599" lon="9.5957591"><ele>143.0</ele><time>2026-05-01T17:11:01.187Z</time></trkpt><trkpt lat="39.7607485" lon="9.5960213"><ele>144.5</ele><time>2026-05-01T17:11:02.187Z</time></trkpt><trkpt lat="39.7608427" lon="9.596289"><ele>146.0</ele><time>2026-05-01T17:11:03.188Z</time></trkpt><trkpt lat="39.7609386" lon="9.5965595"><ele>139.0</ele><time>2026-05-01T17:11:04.187Z</time></trkpt><trkpt lat="39.7610374" lon="9.5968388"><ele>132.0</ele><time>2026-05-01T17:11:05.187Z</time></trkpt><trkpt lat="39.7611402" lon="9.5971248"><ele>132.0</ele><time>2026-05-01T17:11:06.187Z</time></trkpt><trkpt lat="39.7612502" lon="9.5974195"><ele>132.0</ele><time>2026-05-01T17:11:07.187Z</time></trkpt><trkpt lat="39.7613644" lon="9.5977231"><ele>127.0</ele><time>2026-05-01T17:11:08.187Z</time></trkpt><trkpt lat="39.7614799" lon="9.5980398"><ele>122.0</ele><time>2026-05-01T17:11:09.187Z</time></trkpt><trkpt lat="39.7615922" lon="9.5983679"><ele>121.0</ele><time>2026-05-01T17:11:10.187Z</time></trkpt><trkpt lat="39.7617045" lon="9.5987023"><ele>120.0</ele><time>2026-05-01T17:11:11.187Z</time></trkpt><trkpt lat="39.7618192" lon="9.5990395"><ele>116.0</ele><time>2026-05-01T17:11:12.187Z</time></trkpt><trkpt lat="39.7619363" lon="9.5993713"><ele>112.0</ele><time>2026-05-01T17:11:13.188Z</time></trkpt><trkpt lat="39.7620517" lon="9.5997028"><ele>112.0</ele><time>2026-05-01T17:11:14.187Z</time></trkpt><trkpt lat="39.7621665" lon="9.6000285"><ele>112.0</ele><time>2026-05-01T17:11:15.188Z</time></trkpt><trkpt lat="39.7622782" lon="9.6003382"><ele>117.0</ele><time>2026-05-01T17:11:16.188Z</time></trkpt><trkpt lat="39.7623854" lon="9.6006384"><ele>122.0</ele><time>2026-05-01T17:11:17.188Z</time></trkpt><trkpt lat="39.7624905" lon="9.6009351"><ele>123.0</ele><time>2026-05-01T17:11:18.188Z</time></trkpt><trkpt lat="39.7625944" lon="9.601224"><ele>124.0</ele><time>2026-05-01T17:11:19.188Z</time></trkpt><trkpt lat="39.7626994" lon="9.6015134"><ele>117.5</ele><time>2026-05-01T17:11:20.188Z</time></trkpt><trkpt lat="39.7627983" lon="9.6018122"><ele>111.0</ele><time>2026-05-01T17:11:21.188Z</time></trkpt><trkpt lat="39.7628692" lon="9.6021424"><ele>111.0</ele><time>2026-05-01T17:11:22.188Z</time></trkpt><trkpt lat="39.7629338" lon="9.6024159"><ele>111.0</ele><time>2026-05-01T17:11:23.187Z</time></trkpt><trkpt lat="39.7630002" lon="9.6027229"><ele>106.5</ele><time>2026-05-01T17:11:24.188Z</time></trkpt><trkpt lat="39.7630646" lon="9.6030372"><ele>102.0</ele><time>2026-05-01T17:11:25.188Z</time></trkpt><trkpt lat="39.7631094" lon="9.6033577"><ele>100.0</ele><time>2026-05-01T17:11:26.187Z</time></trkpt><trkpt lat="39.7631488" lon="9.6036827"><ele>98.0</ele><time>2026-05-01T17:11:27.188Z</time></trkpt><trkpt lat="39.7631693" lon="9.6040108"><ele>98.0</ele><time>2026-05-01T17:11:28.187Z</time></trkpt><trkpt lat="39.7631875" lon="9.6043408"><ele>98.0</ele><time>2026-05-01T17:11:29.188Z</time></trkpt><trkpt lat="39.7632006" lon="9.604674"><ele>98.0</ele><time>2026-05-01T17:11:30.187Z</time></trkpt><trkpt lat="39.7632107" lon="9.6049965"><ele>98.0</ele><time>2026-05-01T17:11:31.187Z</time></trkpt><trkpt lat="39.7632214" lon="9.6053079"><ele>97.0</ele><time>2026-05-01T17:11:32.188Z</time></trkpt><trkpt lat="39.7632337" lon="9.6056194"><ele>96.0</ele><time>2026-05-01T17:11:33.187Z</time></trkpt><trkpt lat="39.7632422" lon="9.6059244"><ele>95.5</ele><time>2026-05-01T17:11:34.188Z</time></trkpt><trkpt lat="39.7632507" lon="9.6062186"><ele>95.0</ele><time>2026-05-01T17:11:35.188Z</time></trkpt><trkpt lat="39.763259" lon="9.6065192"><ele>95.0</ele><time>2026-05-01T17:11:36.187Z</time></trkpt><trkpt lat="39.7632698" lon="9.6068205"><ele>95.0</ele><time>2026-05-01T17:11:37.187Z</time></trkpt><trkpt lat="39.7632821" lon="9.6071228"><ele>94.5</ele><time>2026-05-01T17:11:38.188Z</time></trkpt><trkpt lat="39.763297" lon="9.6074273"><ele>94.0</ele><time>2026-05-01T17:11:39.187Z</time></trkpt><trkpt lat="39.7633143" lon="9.6077263"><ele>94.66666666666666</ele><time>2026-05-01T17:11:40.188Z</time></trkpt><trkpt lat="39.7633355" lon="9.6080134"><ele>95.33333333333333</ele><time>2026-05-01T17:11:41.188Z</time></trkpt><trkpt lat="39.7633624" lon="9.6082929"><ele>96.0</ele><time>2026-05-01T17:11:42.188Z</time></trkpt><trkpt lat="39.7633936" lon="9.6085626"><ele>93.66666666666667</ele><time>2026-05-01T17:11:43.187Z</time></trkpt><trkpt lat="39.763431" lon="9.6088287"><ele>91.33333333333334</ele><time>2026-05-01T17:11:44.187Z</time></trkpt><trkpt lat="39.7634735" lon="9.609092"><ele>89.0</ele><time>2026-05-01T17:11:45.187Z</time></trkpt><trkpt lat="39.7635222" lon="9.6093493"><ele>86.0</ele><time>2026-05-01T17:11:46.187Z</time></trkpt><trkpt lat="39.7635767" lon="9.6095989"><ele>83.0</ele><time>2026-05-01T17:11:47.187Z</time></trkpt><trkpt lat="39.7636383" lon="9.6098438"><ele>80.0</ele><time>2026-05-01T17:11:48.188Z</time></trkpt><trkpt lat="39.7637068" lon="9.6100845"><ele>80.0</ele><time>2026-05-01T17:11:49.188Z</time></trkpt><trkpt lat="39.7637849" lon="9.6103134"><ele>80.0</ele><time>2026-05-01T17:11:50.188Z</time></trkpt><trkpt lat="39.763871" lon="9.6105435"><ele>80.0</ele><time>2026-05-01T17:11:51.188Z</time></trkpt><trkpt lat="39.7639648" lon="9.6107664"><ele>78.66666666666667</ele><time>2026-05-01T17:11:52.188Z</time></trkpt><trkpt lat="39.7640668" lon="9.6109832"><ele>77.33333333333333</ele><time>2026-05-01T17:11:53.187Z</time></trkpt><trkpt lat="39.7641717" lon="9.6111915"><ele>76.0</ele><time>2026-05-01T17:11:54.187Z</time></trkpt><trkpt lat="39.7642824" lon="9.6113893"><ele>75.66666666666666</ele><time>2026-05-01T17:11:55.188Z</time></trkpt><trkpt lat="39.7643981" lon="9.6115826"><ele>75.33333333333333</ele><time>2026-05-01T17:11:56.188Z</time></trkpt><trkpt lat="39.7645202" lon="9.611771"><ele>75.0</ele><time>2026-05-01T17:11:57.187Z</time></trkpt><trkpt lat="39.764648" lon="9.6119497"><ele>76.0</ele><time>2026-05-01T17:11:58.188Z</time></trkpt><trkpt lat="39.7647835" lon="9.6121231"><ele>77.0</ele><time>2026-05-01T17:11:59.187Z</time></trkpt><trkpt lat="39.7649249" lon="9.6122847"><ele>78.0</ele><time>2026-05-01T17:12:00.188Z</time></trkpt><trkpt lat="39.7650664" lon="9.6124358"><ele>77.0</ele><time>2026-05-01T17:12:01.187Z</time></trkpt><trkpt lat="39.7652044" lon="9.6125793"><ele>76.0</ele><time>2026-05-01T17:12:02.188Z</time></trkpt><trkpt lat="39.7653447" lon="9.6127143"><ele>75.0</ele><time>2026-05-01T17:12:03.187Z</time></trkpt><trkpt lat="39.7654908" lon="9.6128396"><ele>75.0</ele><time>2026-05-01T17:12:04.188Z</time></trkpt><trkpt lat="39.7656417" lon="9.6129552"><ele>75.0</ele><time>2026-05-01T17:12:05.188Z</time></trkpt><trkpt lat="39.7657991" lon="9.6130623"><ele>75.0</ele><time>2026-05-01T17:12:06.188Z</time></trkpt><trkpt lat="39.765961" lon="9.6131651"><ele>72.66666666666667</ele><time>2026-05-01T17:12:07.187Z</time></trkpt><trkpt lat="39.7661285" lon="9.6132632"><ele>70.33333333333334</ele><time>2026-05-01T17:12:08.187Z</time></trkpt><trkpt lat="39.7663022" lon="9.6133576"><ele>68.0</ele><time>2026-05-01T17:12:09.187Z</time></trkpt><trkpt lat="39.766482" lon="9.6134451"><ele>68.0</ele><time>2026-05-01T17:12:10.187Z</time></trkpt><trkpt lat="39.7666654" lon="9.6135207"><ele>68.0</ele><time>2026-05-01T17:12:11.188Z</time></trkpt><trkpt lat="39.766857" lon="9.6135839"><ele>68.0</ele><time>2026-05-01T17:12:12.187Z</time></trkpt><trkpt lat="39.7670686" lon="9.613635"><ele>67.5</ele><time>2026-05-01T17:12:13.188Z</time></trkpt><trkpt lat="39.7672933" lon="9.6136768"><ele>67.0</ele><time>2026-05-01T17:12:14.188Z</time></trkpt><trkpt lat="39.7675157" lon="9.6137106"><ele>66.0</ele><time>2026-05-01T17:12:15.187Z</time></trkpt><trkpt lat="39.7677367" lon="9.6137348"><ele>65.0</ele><time>2026-05-01T17:12:16.187Z</time></trkpt><trkpt lat="39.7679636" lon="9.6137488"><ele>64.0</ele><time>2026-05-01T17:12:17.188Z</time></trkpt><trkpt lat="39.7681929" lon="9.6137516"><ele>64.0</ele><time>2026-05-01T17:12:18.188Z</time></trkpt><trkpt lat="39.7684271" lon="9.613743"><ele>64.0</ele><time>2026-05-01T17:12:19.187Z</time></trkpt><trkpt lat="39.7686664" lon="9.6137273"><ele>61.5</ele><time>2026-05-01T17:12:20.187Z</time></trkpt><trkpt lat="39.7689094" lon="9.6137065"><ele>59.0</ele><time>2026-05-01T17:12:21.188Z</time></trkpt><trkpt lat="39.7691597" lon="9.613678"><ele>59.0</ele><time>2026-05-01T17:12:22.188Z</time></trkpt><trkpt lat="39.7694185" lon="9.6136399"><ele>59.0</ele><time>2026-05-01T17:12:23.188Z</time></trkpt><trkpt lat="39.7696819" lon="9.6135968"><ele>59.0</ele><time>2026-05-01T17:12:24.188Z</time></trkpt><trkpt lat="39.7699545" lon="9.6135521"><ele>59.0</ele><time>2026-05-01T17:12:25.188Z</time></trkpt><trkpt lat="39.7702235" lon="9.6135154"><ele>58.5</ele><time>2026-05-01T17:12:26.187Z</time></trkpt><trkpt lat="39.7704825" lon="9.6134897"><ele>58.0</ele><time>2026-05-01T17:12:27.187Z</time></trkpt><trkpt lat="39.7707387" lon="9.6134732"><ele>58.0</ele><time>2026-05-01T17:12:28.187Z</time></trkpt><trkpt lat="39.7709922" lon="9.6134728"><ele>58.0</ele><time>2026-05-01T17:12:29.188Z</time></trkpt><trkpt lat="39.7712466" lon="9.6134864"><ele>57.0</ele><time>2026-05-01T17:12:30.187Z</time></trkpt><trkpt lat="39.7715016" lon="9.6135159"><ele>56.0</ele><time>2026-05-01T17:12:31.188Z</time></trkpt><trkpt lat="39.7717588" lon="9.6135624"><ele>57.5</ele><time>2026-05-01T17:12:32.187Z</time></trkpt><trkpt lat="39.7720196" lon="9.6136211"><ele>59.0</ele><time>2026-05-01T17:12:33.188Z</time></trkpt><trkpt lat="39.7722833" lon="9.6136909"><ele>59.0</ele><time>2026-05-01T17:12:34.188Z</time></trkpt><trkpt lat="39.7725499" lon="9.6137673"><ele>59.0</ele><time>2026-05-01T17:12:35.187Z</time></trkpt><trkpt lat="39.7728202" lon="9.6138472"><ele>55.0</ele><time>2026-05-01T17:12:36.187Z</time></trkpt><trkpt lat="39.7730908" lon="9.6139279"><ele>51.0</ele><time>2026-05-01T17:12:37.188Z</time></trkpt><trkpt lat="39.7733638" lon="9.6140102"><ele>49.5</ele><time>2026-05-01T17:12:38.188Z</time></trkpt><trkpt lat="39.7736375" lon="9.6140931"><ele>48.0</ele><time>2026-05-01T17:12:39.187Z</time></trkpt><trkpt lat="39.7739118" lon="9.6141778"><ele>48.0</ele><time>2026-05-01T17:12:40.188Z</time></trkpt><trkpt lat="39.7741844" lon="9.6142616"><ele>48.0</ele><time>2026-05-01T17:12:41.187Z</time></trkpt><trkpt lat="39.774458" lon="9.6143446"><ele>48.0</ele><time>2026-05-01T17:12:42.188Z</time></trkpt><trkpt lat="39.7747319" lon="9.6144257"><ele>48.0</ele><time>2026-05-01T17:12:43.188Z</time></trkpt><trkpt lat="39.7750065" lon="9.6145055"><ele>46.5</ele><time>2026-05-01T17:12:44.188Z</time></trkpt><trkpt lat="39.7752839" lon="9.6145835"><ele>45.0</ele><time>2026-05-01T17:12:45.187Z</time></trkpt><trkpt lat="39.7755622" lon="9.6146562"><ele>45.0</ele><time>2026-05-01T17:12:46.188Z</time></trkpt><trkpt lat="39.7758433" lon="9.6147202"><ele>45.0</ele><time>2026-05-01T17:12:47.187Z</time></trkpt><trkpt lat="39.7761272" lon="9.6147711"><ele>42.0</ele><time>2026-05-01T17:12:48.188Z</time></trkpt><trkpt lat="39.7764124" lon="9.6148074"><ele>39.0</ele><time>2026-05-01T17:12:49.187Z</time></trkpt><trkpt lat="39.7766982" lon="9.6148283"><ele>38.5</ele><time>2026-05-01T17:12:50.187Z</time></trkpt><trkpt lat="39.7769836" lon="9.6148386"><ele>38.0</ele><time>2026-05-01T17:12:51.187Z</time></trkpt><trkpt lat="39.7772679" lon="9.614842"><ele>38.0</ele><time>2026-05-01T17:12:52.188Z</time></trkpt><trkpt lat="39.7775504" lon="9.6148421"><ele>38.0</ele><time>2026-05-01T17:12:53.188Z</time></trkpt><trkpt lat="39.7778313" lon="9.6148412"><ele>41.5</ele><time>2026-05-01T17:12:54.187Z</time></trkpt><trkpt lat="39.7781102" lon="9.6148403"><ele>45.0</ele><time>2026-05-01T17:12:55.188Z</time></trkpt><trkpt lat="39.7783865" lon="9.6148386"><ele>47.5</ele><time>2026-05-01T17:12:56.187Z</time></trkpt><trkpt lat="39.7786653" lon="9.6148362"><ele>50.0</ele><time>2026-05-01T17:12:57.188Z</time></trkpt><trkpt lat="39.7789427" lon="9.6148338"><ele>50.0</ele><time>2026-05-01T17:12:58.188Z</time></trkpt><trkpt lat="39.7792207" lon="9.6148293"><ele>50.0</ele><time>2026-05-01T17:12:59.187Z</time></trkpt><trkpt lat="39.7795004" lon="9.6148211"><ele>50.0</ele><time>2026-05-01T17:13:00.187Z</time></trkpt><trkpt lat="39.7797786" lon="9.6148056"><ele>50.0</ele><time>2026-05-01T17:13:01.187Z</time></trkpt><trkpt lat="39.7800558" lon="9.614782"><ele>48.0</ele><time>2026-05-01T17:13:02.187Z</time></trkpt><trkpt lat="39.7803292" lon="9.6147457"><ele>46.0</ele><time>2026-05-01T17:13:03.187Z</time></trkpt><trkpt lat="39.7805998" lon="9.6146948"><ele>46.0</ele><time>2026-05-01T17:13:04.188Z</time></trkpt><trkpt lat="39.7808646" lon="9.6146287"><ele>46.0</ele><time>2026-05-01T17:13:05.188Z</time></trkpt><trkpt lat="39.7811247" lon="9.6145432"><ele>49.0</ele><time>2026-05-01T17:13:06.188Z</time></trkpt><trkpt lat="39.7813793" lon="9.614443"><ele>52.0</ele><time>2026-05-01T17:13:07.188Z</time></trkpt><trkpt lat="39.7816304" lon="9.6143277"><ele>55.0</ele><time>2026-05-01T17:13:08.187Z</time></trkpt><trkpt lat="39.7818779" lon="9.6141992"><ele>58.0</ele><time>2026-05-01T17:13:09.188Z</time></trkpt><trkpt lat="39.7821162" lon="9.6140495"><ele>58.0</ele><time>2026-05-01T17:13:10.188Z</time></trkpt><trkpt lat="39.78235" lon="9.6138861"><ele>58.0</ele><time>2026-05-01T17:13:11.188Z</time></trkpt><trkpt lat="39.7825788" lon="9.6137084"><ele>65.5</ele><time>2026-05-01T17:13:12.187Z</time></trkpt><trkpt lat="39.7828021" lon="9.6135149"><ele>73.0</ele><time>2026-05-01T17:13:13.187Z</time></trkpt><trkpt lat="39.7830189" lon="9.6133085"><ele>73.0</ele><time>2026-05-01T17:13:14.188Z</time></trkpt><trkpt lat="39.7832304" lon="9.6130867"><ele>73.0</ele><time>2026-05-01T17:13:15.187Z</time></trkpt><trkpt lat="39.7834359" lon="9.612853"><ele>78.0</ele><time>2026-05-01T17:13:16.187Z</time></trkpt><trkpt lat="39.7836385" lon="9.6126036"><ele>83.0</ele><time>2026-05-01T17:13:17.188Z</time></trkpt><trkpt lat="39.7838354" lon="9.6123458"><ele>83.0</ele><time>2026-05-01T17:13:18.187Z</time></trkpt><trkpt lat="39.7840312" lon="9.6120837"><ele>83.0</ele><time>2026-05-01T17:13:19.188Z</time></trkpt><trkpt lat="39.784227" lon="9.6118217"><ele>86.5</ele><time>2026-05-01T17:13:20.187Z</time></trkpt><trkpt lat="39.784423" lon="9.6115591"><ele>90.0</ele><time>2026-05-01T17:13:21.187Z</time></trkpt><trkpt lat="39.7846205" lon="9.6112994"><ele>83.5</ele><time>2026-05-01T17:13:22.187Z</time></trkpt><trkpt lat="39.7848206" lon="9.611047"><ele>77.0</ele><time>2026-05-01T17:13:23.187Z</time></trkpt><trkpt lat="39.7850264" lon="9.6108035"><ele>78.5</ele><time>2026-05-01T17:13:24.187Z</time></trkpt><trkpt lat="39.7852383" lon="9.610571"><ele>80.0</ele><time>2026-05-01T17:13:25.188Z</time></trkpt><trkpt lat="39.7854579" lon="9.6103483"><ele>71.5</ele><time>2026-05-01T17:13:26.188Z</time></trkpt><trkpt lat="39.7856867" lon="9.6101377"><ele>63.0</ele><time>2026-05-01T17:13:27.188Z</time></trkpt><trkpt lat="39.7859224" lon="9.6099407"><ele>64.5</ele><time>2026-05-01T17:13:28.187Z</time></trkpt><trkpt lat="39.7861668" lon="9.6097569"><ele>66.0</ele><time>2026-05-01T17:13:29.187Z</time></trkpt><trkpt lat="39.7864189" lon="9.6095892"><ele>61.5</ele><time>2026-05-01T17:13:30.188Z</time></trkpt><trkpt lat="39.78668" lon="9.6094379"><ele>57.0</ele><time>2026-05-01T17:13:31.187Z</time></trkpt><trkpt lat="39.7869487" lon="9.6093025"><ele>57.0</ele><time>2026-05-01T17:13:32.188Z</time></trkpt><trkpt lat="39.787224" lon="9.6091844"><ele>57.0</ele><time>2026-05-01T17:13:33.188Z</time></trkpt><trkpt lat="39.787503" lon="9.6090893"><ele>55.0</ele><time>2026-05-01T17:13:34.187Z</time></trkpt><trkpt lat="39.7877838" lon="9.6090181"><ele>53.0</ele><time>2026-05-01T17:13:35.188Z</time></trkpt><trkpt lat="39.788071" lon="9.6089687"><ele>53.0</ele><time>2026-05-01T17:13:36.188Z</time></trkpt><trkpt lat="39.7883589" lon="9.6089355"><ele>53.0</ele><time>2026-05-01T17:13:37.187Z</time></trkpt><trkpt lat="39.7886472" lon="9.6089176"><ele>51.0</ele><time>2026-05-01T17:13:38.187Z</time></trkpt><trkpt lat="39.788922" lon="9.6089134"><ele>49.0</ele><time>2026-05-01T17:13:39.187Z</time></trkpt><trkpt lat="39.7891897" lon="9.6089185"><ele>46.0</ele><time>2026-05-01T17:13:40.187Z</time></trkpt><trkpt lat="39.7894483" lon="9.6089265"><ele>43.0</ele><time>2026-05-01T17:13:41.188Z</time></trkpt><trkpt lat="39.7897047" lon="9.6089362"><ele>43.0</ele><time>2026-05-01T17:13:42.188Z</time></trkpt><trkpt lat="39.7899522" lon="9.6089455"><ele>43.0</ele><time>2026-05-01T17:13:43.187Z</time></trkpt><trkpt lat="39.7901981" lon="9.6089541"><ele>43.5</ele><time>2026-05-01T17:13:44.187Z</time></trkpt><trkpt lat="39.7904352" lon="9.6089639"><ele>44.0</ele><time>2026-05-01T17:13:45.188Z</time></trkpt><trkpt lat="39.7906737" lon="9.6089745"><ele>44.0</ele><time>2026-05-01T17:13:46.188Z</time></trkpt><trkpt lat="39.7909134" lon="9.6089849"><ele>44.0</ele><time>2026-05-01T17:13:47.188Z</time></trkpt><trkpt lat="39.7911574" lon="9.6089942"><ele>44.0</ele><time>2026-05-01T17:13:48.187Z</time></trkpt><trkpt lat="39.7914032" lon="9.6090072"><ele>44.0</ele><time>2026-05-01T17:13:49.188Z</time></trkpt><trkpt lat="39.7916484" lon="9.6090272"><ele>41.0</ele><time>2026-05-01T17:13:50.188Z</time></trkpt><trkpt lat="39.7918922" lon="9.6090574"><ele>38.0</ele><time>2026-05-01T17:13:51.188Z</time></trkpt><trkpt lat="39.7921366" lon="9.6091"><ele>38.0</ele><time>2026-05-01T17:13:52.188Z</time></trkpt><trkpt lat="39.7923767" lon="9.6091537"><ele>38.0</ele><time>2026-05-01T17:13:53.188Z</time></trkpt><trkpt lat="39.7926156" lon="9.6092233"><ele>36.5</ele><time>2026-05-01T17:13:54.187Z</time></trkpt><trkpt lat="39.7928517" lon="9.6093045"><ele>35.0</ele><time>2026-05-01T17:13:55.187Z</time></trkpt><trkpt lat="39.7930852" lon="9.6094007"><ele>35.0</ele><time>2026-05-01T17:13:56.188Z</time></trkpt><trkpt lat="39.7933158" lon="9.6095098"><ele>35.0</ele><time>2026-05-01T17:13:57.187Z</time></trkpt><trkpt lat="39.7935431" lon="9.6096329"><ele>33.5</ele><time>2026-05-01T17:13:58.188Z</time></trkpt><trkpt lat="39.7937676" lon="9.6097705"><ele>32.0</ele><time>2026-05-01T17:13:59.188Z</time></trkpt><trkpt lat="39.7939901" lon="9.6099215"><ele>32.0</ele><time>2026-05-01T17:14:00.187Z</time></trkpt><trkpt lat="39.7942084" lon="9.6100875"><ele>32.0</ele><time>2026-05-01T17:14:01.188Z</time></trkpt><trkpt lat="39.7944216" lon="9.610269"><ele>31.0</ele><time>2026-05-01T17:14:02.188Z</time></trkpt><trkpt lat="39.7946315" lon="9.6104614"><ele>30.0</ele><time>2026-05-01T17:14:03.188Z</time></trkpt><trkpt lat="39.7948389" lon="9.6106604"><ele>30.0</ele><time>2026-05-01T17:14:04.187Z</time></trkpt><trkpt lat="39.7950446" lon="9.6108653"><ele>30.0</ele><time>2026-05-01T17:14:05.187Z</time></trkpt><trkpt lat="39.795249" lon="9.611073"><ele>31.0</ele><time>2026-05-01T17:14:06.188Z</time></trkpt><trkpt lat="39.7954498" lon="9.6112775"><ele>32.0</ele><time>2026-05-01T17:14:07.188Z</time></trkpt><trkpt lat="39.7956498" lon="9.6114811"><ele>32.0</ele><time>2026-05-01T17:14:08.188Z</time></trkpt><trkpt lat="39.7958416" lon="9.6116748"><ele>32.0</ele><time>2026-05-01T17:14:09.187Z</time></trkpt><trkpt lat="39.7960344" lon="9.6118682"><ele>36.5</ele><time>2026-05-01T17:14:10.187Z</time></trkpt><trkpt lat="39.7962281" lon="9.6120651"><ele>41.0</ele><time>2026-05-01T17:14:11.187Z</time></trkpt><trkpt lat="39.7964221" lon="9.6122647"><ele>41.0</ele><time>2026-05-01T17:14:12.187Z</time></trkpt><trkpt lat="39.7966181" lon="9.6124638"><ele>41.0</ele><time>2026-05-01T17:14:13.188Z</time></trkpt><trkpt lat="39.7968152" lon="9.6126616"><ele>44.5</ele><time>2026-05-01T17:14:14.187Z</time></trkpt><trkpt lat="39.797013" lon="9.61286"><ele>48.0</ele><time>2026-05-01T17:14:15.188Z</time></trkpt><trkpt lat="39.7972127" lon="9.6130577"><ele>48.0</ele><time>2026-05-01T17:14:16.188Z</time></trkpt><trkpt lat="39.7974178" lon="9.6132496"><ele>48.0</ele><time>2026-05-01T17:14:17.188Z</time></trkpt><trkpt lat="39.7976276" lon="9.6134319"><ele>50.5</ele><time>2026-05-01T17:14:18.187Z</time></trkpt><trkpt lat="39.7978435" lon="9.6136049"><ele>53.0</ele><time>2026-05-01T17:14:19.188Z</time></trkpt><trkpt lat="39.7980648" lon="9.6137693"><ele>53.0</ele><time>2026-05-01T17:14:20.187Z</time></trkpt><trkpt lat="39.7982914" lon="9.6139275"><ele>53.0</ele><time>2026-05-01T17:14:21.188Z</time></trkpt><trkpt lat="39.7985218" lon="9.6140813"><ele>54.5</ele><time>2026-05-01T17:14:22.187Z</time></trkpt><trkpt lat="39.7987568" lon="9.6142328"><ele>56.0</ele><time>2026-05-01T17:14:23.188Z</time></trkpt><trkpt lat="39.7989941" lon="9.6143877"><ele>55.0</ele><time>2026-05-01T17:14:24.187Z</time></trkpt><trkpt lat="39.7992365" lon="9.6145439"><ele>54.0</ele><time>2026-05-01T17:14:25.187Z</time></trkpt><trkpt lat="39.7994802" lon="9.6146976"><ele>56.5</ele><time>2026-05-01T17:14:26.188Z</time></trkpt><trkpt lat="39.7997242" lon="9.6148512"><ele>59.0</ele><time>2026-05-01T17:14:27.187Z</time></trkpt><trkpt lat="39.799965" lon="9.615006"><ele>62.5</ele><time>2026-05-01T17:14:28.187Z</time></trkpt><trkpt lat="39.8002085" lon="9.6151621"><ele>66.0</ele><time>2026-05-01T17:14:29.187Z</time></trkpt><trkpt lat="39.8004486" lon="9.6153154"><ele>71.5</ele><time>2026-05-01T17:14:30.188Z</time></trkpt><trkpt lat="39.8006771" lon="9.61546"><ele>77.0</ele><time>2026-05-01T17:14:31.187Z</time></trkpt><trkpt lat="39.8008998" lon="9.6156043"><ele>83.0</ele><time>2026-05-01T17:14:32.187Z</time></trkpt><trkpt lat="39.8011225" lon="9.6157468"><ele>89.0</ele><time>2026-05-01T17:14:33.188Z</time></trkpt><trkpt lat="39.8013464" lon="9.6158898"><ele>67.0</ele><time>2026-05-01T17:14:34.188Z</time></trkpt><trkpt lat="39.8119858" lon="9.6294019"><ele>66.0</ele><time>2026-05-01T17:15:32.188Z</time></trkpt><trkpt lat="39.8121498" lon="9.6296344"><ele>65.0</ele><time>2026-05-01T17:15:33.187Z</time></trkpt><trkpt lat="39.812324" lon="9.6298647"><ele>65.0</ele><time>2026-05-01T17:15:34.188Z</time></trkpt><trkpt lat="39.8125047" lon="9.6300942"><ele>65.0</ele><time>2026-05-01T17:15:35.188Z</time></trkpt><trkpt lat="39.8126928" lon="9.6303193"><ele>65.0</ele><time>2026-05-01T17:15:36.187Z</time></trkpt><trkpt lat="39.8128888" lon="9.6305374"><ele>65.0</ele><time>2026-05-01T17:15:37.187Z</time></trkpt><trkpt lat="39.8130869" lon="9.6307496"><ele>65.0</ele><time>2026-05-01T17:15:38.187Z</time></trkpt><trkpt lat="39.8132942" lon="9.6309551"><ele>65.0</ele><time>2026-05-01T17:15:39.188Z</time></trkpt><trkpt lat="39.8135074" lon="9.6311474"><ele>64.5</ele><time>2026-05-01T17:15:40.188Z</time></trkpt><trkpt lat="39.813726" lon="9.6313242"><ele>64.0</ele><time>2026-05-01T17:15:41.187Z</time></trkpt><trkpt lat="39.8139494" lon="9.6314909"><ele>64.0</ele><time>2026-05-01T17:15:42.187Z</time></trkpt><trkpt lat="39.8141762" lon="9.6316515"><ele>64.0</ele><time>2026-05-01T17:15:43.188Z</time></trkpt><trkpt lat="39.8144101" lon="9.6318049"><ele>62.0</ele><time>2026-05-01T17:15:44.188Z</time></trkpt><trkpt lat="39.8146497" lon="9.6319558"><ele>60.0</ele><time>2026-05-01T17:15:45.187Z</time></trkpt><trkpt lat="39.8148895" lon="9.6321058"><ele>56.5</ele><time>2026-05-01T17:15:46.187Z</time></trkpt><trkpt lat="39.8151297" lon="9.6322545"><ele>53.0</ele><time>2026-05-01T17:15:47.188Z</time></trkpt><trkpt lat="39.8153708" lon="9.6324034"><ele>51.0</ele><time>2026-05-01T17:15:48.187Z</time></trkpt><trkpt lat="39.8156109" lon="9.6325528"><ele>49.0</ele><time>2026-05-01T17:15:49.188Z</time></trkpt><trkpt lat="39.8158482" lon="9.6327056"><ele>47.5</ele><time>2026-05-01T17:15:50.187Z</time></trkpt><trkpt lat="39.8160823" lon="9.6328644"><ele>46.0</ele><time>2026-05-01T17:15:51.188Z</time></trkpt><trkpt lat="39.8163148" lon="9.6330319"><ele>46.0</ele><time>2026-05-01T17:15:52.188Z</time></trkpt><trkpt lat="39.8165413" lon="9.6332093"><ele>46.0</ele><time>2026-05-01T17:15:53.188Z</time></trkpt><trkpt lat="39.8167594" lon="9.6334066"><ele>47.0</ele><time>2026-05-01T17:15:54.188Z</time></trkpt><trkpt lat="39.8169739" lon="9.6336105"><ele>48.0</ele><time>2026-05-01T17:15:55.188Z</time></trkpt><trkpt lat="39.8171868" lon="9.6338251"><ele>48.0</ele><time>2026-05-01T17:15:56.188Z</time></trkpt><trkpt lat="39.8173944" lon="9.6340442"><ele>48.0</ele><time>2026-05-01T17:15:57.187Z</time></trkpt><trkpt lat="39.8176003" lon="9.6342599"><ele>46.5</ele><time>2026-05-01T17:15:58.188Z</time></trkpt><trkpt lat="39.8178084" lon="9.6344735"><ele>45.0</ele><time>2026-05-01T17:15:59.188Z</time></trkpt><trkpt lat="39.8180181" lon="9.6346866"><ele>45.0</ele><time>2026-05-01T17:16:00.187Z</time></trkpt><trkpt lat="39.8182307" lon="9.6349024"><ele>45.0</ele><time>2026-05-01T17:16:01.187Z</time></trkpt><trkpt lat="39.8184413" lon="9.6351171"><ele>46.0</ele><time>2026-05-01T17:16:02.187Z</time></trkpt><trkpt lat="39.818648" lon="9.6353284"><ele>47.0</ele><time>2026-05-01T17:16:03.187Z</time></trkpt><trkpt lat="39.8188525" lon="9.6355392"><ele>47.0</ele><time>2026-05-01T17:16:04.188Z</time></trkpt><trkpt lat="39.8190539" lon="9.6357453"><ele>47.0</ele><time>2026-05-01T17:16:05.187Z</time></trkpt><trkpt lat="39.8192579" lon="9.6359565"><ele>47.5</ele><time>2026-05-01T17:16:06.187Z</time></trkpt><trkpt lat="39.8194673" lon="9.6361669"><ele>48.0</ele><time>2026-05-01T17:16:07.187Z</time></trkpt><trkpt lat="39.8196773" lon="9.6363824"><ele>48.0</ele><time>2026-05-01T17:16:08.188Z</time></trkpt><trkpt lat="39.8198884" lon="9.6366004"><ele>48.0</ele><time>2026-05-01T17:16:09.187Z</time></trkpt><trkpt lat="39.8200965" lon="9.636817"><ele>50.5</ele><time>2026-05-01T17:16:10.188Z</time></trkpt><trkpt lat="39.8202914" lon="9.6370221"><ele>53.0</ele><time>2026-05-01T17:16:11.187Z</time></trkpt><trkpt lat="39.820475" lon="9.6372101"><ele>53.0</ele><time>2026-05-01T17:16:12.188Z</time></trkpt><trkpt lat="39.8206466" lon="9.6373841"><ele>53.0</ele><time>2026-05-01T17:16:13.188Z</time></trkpt><trkpt lat="39.8208031" lon="9.6375512"><ele>53.0</ele><time>2026-05-01T17:16:14.187Z</time></trkpt><trkpt lat="39.8209453" lon="9.6377174"><ele>52.0</ele><time>2026-05-01T17:16:15.187Z</time></trkpt><trkpt lat="39.8210768" lon="9.6378867"><ele>51.0</ele><time>2026-05-01T17:16:16.188Z</time></trkpt><trkpt lat="39.8212123" lon="9.6380573"><ele>50.0</ele><time>2026-05-01T17:16:17.188Z</time></trkpt><trkpt lat="39.8213583" lon="9.6382358"><ele>50.0</ele><time>2026-05-01T17:16:18.187Z</time></trkpt><trkpt lat="39.8215169" lon="9.6384217"><ele>50.0</ele><time>2026-05-01T17:16:19.188Z</time></trkpt><trkpt lat="39.8216744" lon="9.6386017"><ele>50.0</ele><time>2026-05-01T17:16:20.188Z</time></trkpt><trkpt lat="39.8218301" lon="9.6387731"><ele>47.66666666666667</ele><time>2026-05-01T17:16:21.188Z</time></trkpt><trkpt lat="39.8219779" lon="9.6389411"><ele>45.333333333333336</ele><time>2026-05-01T17:16:22.187Z</time></trkpt><trkpt lat="39.822117" lon="9.6390969"><ele>43.0</ele><time>2026-05-01T17:16:23.188Z</time></trkpt><trkpt lat="39.8222437" lon="9.6392417"><ele>43.0</ele><time>2026-05-01T17:16:24.187Z</time></trkpt><trkpt lat="39.8223532" lon="9.6393827"><ele>43.0</ele><time>2026-05-01T17:16:25.187Z</time></trkpt><trkpt lat="39.8224388" lon="9.6395307"><ele>43.0</ele><time>2026-05-01T17:16:26.187Z</time></trkpt><trkpt lat="39.8224934" lon="9.6396812"><ele>43.0</ele><time>2026-05-01T17:16:27.187Z</time></trkpt><trkpt lat="39.8225155" lon="9.6398375"><ele>42.75</ele><time>2026-05-01T17:16:28.188Z</time></trkpt><trkpt lat="39.8225103" lon="9.6399923"><ele>42.5</ele><time>2026-05-01T17:16:29.188Z</time></trkpt><trkpt lat="39.8224846" lon="9.6401437"><ele>42.25</ele><time>2026-05-01T17:16:30.188Z</time></trkpt><trkpt lat="39.8224354" lon="9.6402826"><ele>42.0</ele><time>2026-05-01T17:16:31.187Z</time></trkpt><trkpt lat="39.8223729" lon="9.6404113"><ele>41.75</ele><time>2026-05-01T17:16:32.187Z</time></trkpt><trkpt lat="39.8223118" lon="9.6405529"><ele>41.5</ele><time>2026-05-01T17:16:33.187Z</time></trkpt><trkpt lat="39.8222475" lon="9.640699"><ele>41.25</ele><time>2026-05-01T17:16:34.187Z</time></trkpt><trkpt lat="39.822178" lon="9.6408602"><ele>41.0</ele><time>2026-05-01T17:16:35.188Z</time></trkpt><trkpt lat="39.8220973" lon="9.6410445"><ele>40.0</ele><time>2026-05-01T17:16:36.188Z</time></trkpt><trkpt lat="39.8220232" lon="9.6412094"><ele>39.0</ele><time>2026-05-01T17:16:37.188Z</time></trkpt><trkpt lat="39.8219679" lon="9.6413489"><ele>38.0</ele><time>2026-05-01T17:16:38.188Z</time></trkpt><trkpt lat="39.8219333" lon="9.6414569"><ele>37.0</ele><time>2026-05-01T17:16:39.188Z</time></trkpt><trkpt lat="39.8219168" lon="9.6415392"><ele>36.0</ele><time>2026-05-01T17:16:40.187Z</time></trkpt><trkpt lat="39.8219142" lon="9.6416304"><ele>36.0</ele><time>2026-05-01T17:16:42.188Z</time></trkpt><trkpt lat="39.8219552" lon="9.6417299"><ele>36.0</ele><time>2026-05-01T17:16:47.188Z</time></trkpt><trkpt lat="39.8220129" lon="9.6417733"><ele>36.0</ele><time>2026-05-01T17:16:48.187Z</time></trkpt><trkpt lat="39.8220972" lon="9.6418155"><ele>36.0</ele><time>2026-05-01T17:16:49.188Z</time></trkpt><trkpt lat="39.8221994" lon="9.641864"><ele>36.0</ele><time>2026-05-01T17:16:50.188Z</time></trkpt><trkpt lat="39.8223233" lon="9.641917"><ele>34.666666666666664</ele><time>2026-05-01T17:16:51.187Z</time></trkpt><trkpt lat="39.8224664" lon="9.6419755"><ele>33.33333333333333</ele><time>2026-05-01T17:16:52.188Z</time></trkpt><trkpt lat="39.8226306" lon="9.6420381"><ele>32.0</ele><time>2026-05-01T17:16:53.188Z</time></trkpt><trkpt lat="39.8227972" lon="9.6421043"><ele>32.0</ele><time>2026-05-01T17:16:54.187Z</time></trkpt><trkpt lat="39.8229536" lon="9.6421652"><ele>32.0</ele><time>2026-05-01T17:16:55.187Z</time></trkpt><trkpt lat="39.8231046" lon="9.642224"><ele>32.0</ele><time>2026-05-01T17:16:56.187Z</time></trkpt><trkpt lat="39.8232571" lon="9.6422857"><ele>32.0</ele><time>2026-05-01T17:16:57.187Z</time></trkpt><trkpt lat="39.8234076" lon="9.6423448"><ele>32.0</ele><time>2026-05-01T17:16:58.187Z</time></trkpt><trkpt lat="39.8235582" lon="9.6424012"><ele>32.0</ele><time>2026-05-01T17:16:59.188Z</time></trkpt><trkpt lat="39.8237058" lon="9.642456"><ele>32.0</ele><time>2026-05-01T17:17:00.188Z</time></trkpt><trkpt lat="39.823847" lon="9.6424964"><ele>32.0</ele><time>2026-05-01T17:17:01.188Z</time></trkpt><trkpt lat="39.8239822" lon="9.6425202"><ele>32.0</ele><time>2026-05-01T17:17:02.187Z</time></trkpt><trkpt lat="39.8241129" lon="9.6425302"><ele>32.0</ele><time>2026-05-01T17:17:03.188Z</time></trkpt><trkpt lat="39.8242382" lon="9.6425253"><ele>32.25</ele><time>2026-05-01T17:17:04.187Z</time></trkpt><trkpt lat="39.8243636" lon="9.6425192"><ele>32.5</ele><time>2026-05-01T17:17:05.187Z</time></trkpt><trkpt lat="39.8244884" lon="9.6425331"><ele>32.75</ele><time>2026-05-01T17:17:06.187Z</time></trkpt><trkpt lat="39.8246158" lon="9.6425617"><ele>33.0</ele><time>2026-05-01T17:17:07.187Z</time></trkpt><trkpt lat="39.8247476" lon="9.6426108"><ele>33.0</ele><time>2026-05-01T17:17:08.187Z</time></trkpt><trkpt lat="39.8248826" lon="9.6426786"><ele>33.0</ele><time>2026-05-01T17:17:09.188Z</time></trkpt><trkpt lat="39.8250166" lon="9.642748"><ele>33.0</ele><time>2026-05-01T17:17:10.187Z</time></trkpt><trkpt lat="39.8251316" lon="9.6428101"><ele>33.0</ele><time>2026-05-01T17:17:11.188Z</time></trkpt><trkpt lat="39.8252245" lon="9.6428567"><ele>32.333333333333336</ele><time>2026-05-01T17:17:12.188Z</time></trkpt><trkpt lat="39.8252905" lon="9.6428921"><ele>31.666666666666664</ele><time>2026-05-01T17:17:13.187Z</time></trkpt><trkpt lat="39.8253349" lon="9.6429667"><ele>31.0</ele><time>2026-05-01T17:17:15.187Z</time></trkpt><trkpt lat="39.8253195" lon="9.6430513"><ele>30.333333333333332</ele><time>2026-05-01T17:17:17.187Z</time></trkpt><trkpt lat="39.8252849" lon="9.6431686"><ele>29.666666666666664</ele><time>2026-05-01T17:17:19.188Z</time></trkpt><trkpt lat="39.8252679" lon="9.6432529"><ele>29.0</ele><time>2026-05-01T17:17:20.187Z</time></trkpt><trkpt lat="39.8252515" lon="9.6433494"><ele>28.999999999999996</ele><time>2026-05-01T17:17:21.187Z</time></trkpt><trkpt lat="39.8252406" lon="9.6434555"><ele>29.0</ele><time>2026-05-01T17:17:22.187Z</time></trkpt><trkpt lat="39.8252377" lon="9.6435707"><ele>29.0</ele><time>2026-05-01T17:17:23.187Z</time></trkpt><trkpt lat="39.8252361" lon="9.6436911"><ele>29.0</ele><time>2026-05-01T17:17:24.187Z</time></trkpt><trkpt lat="39.8252404" lon="9.6438059"><ele>28.999999999999996</ele><time>2026-05-01T17:17:25.188Z</time></trkpt><trkpt lat="39.8252485" lon="9.6439221"><ele>29.0</ele><time>2026-05-01T17:17:26.187Z</time></trkpt><trkpt lat="39.8252692" lon="9.6440505"><ele>28.4</ele><time>2026-05-01T17:17:27.187Z</time></trkpt><trkpt lat="39.8252994" lon="9.6441892"><ele>27.799999999999997</ele><time>2026-05-01T17:17:28.187Z</time></trkpt><trkpt lat="39.8253304" lon="9.64433"><ele>27.200000000000003</ele><time>2026-05-01T17:17:29.188Z</time></trkpt><trkpt lat="39.8253565" lon="9.6444667"><ele>26.6</ele><time>2026-05-01T17:17:30.187Z</time></trkpt><trkpt lat="39.8253764" lon="9.6446123"><ele>26.0</ele><time>2026-05-01T17:17:31.188Z</time></trkpt><trkpt lat="39.8253895" lon="9.6447625"><ele>26.0</ele><time>2026-05-01T17:17:32.187Z</time></trkpt><trkpt lat="39.8253939" lon="9.6449149"><ele>26.0</ele><time>2026-05-01T17:17:33.188Z</time></trkpt><trkpt lat="39.8253835" lon="9.64506"><ele>26.0</ele><time>2026-05-01T17:17:34.187Z</time></trkpt><trkpt lat="39.8253591" lon="9.6451968"><ele>26.0</ele><time>2026-05-01T17:17:35.188Z</time></trkpt><trkpt lat="39.8253228" lon="9.6453283"><ele>26.0</ele><time>2026-05-01T17:17:36.187Z</time></trkpt><trkpt lat="39.8252832" lon="9.6454552"><ele>25.6</ele><time>2026-05-01T17:17:37.188Z</time></trkpt><trkpt lat="39.8252437" lon="9.6455782"><ele>25.200000000000003</ele><time>2026-05-01T17:17:38.188Z</time></trkpt><trkpt lat="39.8251975" lon="9.6456984"><ele>24.799999999999997</ele><time>2026-05-01T17:17:39.188Z</time></trkpt><trkpt lat="39.8251372" lon="9.6458114"><ele>24.4</ele><time>2026-05-01T17:17:40.188Z</time></trkpt><trkpt lat="39.8250629" lon="9.6459205"><ele>24.0</ele><time>2026-05-01T17:17:41.187Z</time></trkpt><trkpt lat="39.8249803" lon="9.6460313"><ele>23.75</ele><time>2026-05-01T17:17:42.187Z</time></trkpt><trkpt lat="39.8248914" lon="9.646146"><ele>23.5</ele><time>2026-05-01T17:17:43.187Z</time></trkpt><trkpt lat="39.8247949" lon="9.646265"><ele>23.25</ele><time>2026-05-01T17:17:44.187Z</time></trkpt><trkpt lat="39.8246981" lon="9.6463833"><ele>23.0</ele><time>2026-05-01T17:17:45.187Z</time></trkpt><trkpt lat="39.8246052" lon="9.6464954"><ele>23.0</ele><time>2026-05-01T17:17:46.188Z</time></trkpt><trkpt lat="39.8245082" lon="9.6466178"><ele>23.0</ele><time>2026-05-01T17:17:47.187Z</time></trkpt><trkpt lat="39.8244097" lon="9.646744"><ele>23.0</ele><time>2026-05-01T17:17:48.187Z</time></trkpt><trkpt lat="39.8243132" lon="9.646871"><ele>23.0</ele><time>2026-05-01T17:17:49.187Z</time></trkpt><trkpt lat="39.8242172" lon="9.6469985"><ele>22.5</ele><time>2026-05-01T17:17:50.188Z</time></trkpt><trkpt lat="39.8241234" lon="9.6471224"><ele>22.0</ele><time>2026-05-01T17:17:51.188Z</time></trkpt><trkpt lat="39.8240316" lon="9.6472422"><ele>21.5</ele><time>2026-05-01T17:17:52.187Z</time></trkpt><trkpt lat="39.8239374" lon="9.6473581"><ele>21.0</ele><time>2026-05-01T17:17:53.188Z</time></trkpt><trkpt lat="39.8238412" lon="9.6474726"><ele>21.0</ele><time>2026-05-01T17:17:54.187Z</time></trkpt><trkpt lat="39.8237547" lon="9.6475821"><ele>21.0</ele><time>2026-05-01T17:17:55.188Z</time></trkpt><trkpt lat="39.8236848" lon="9.6476833"><ele>21.0</ele><time>2026-05-01T17:17:56.188Z</time></trkpt><trkpt lat="39.8236259" lon="9.6477845"><ele>21.0</ele><time>2026-05-01T17:17:57.187Z</time></trkpt><trkpt lat="39.8235707" lon="9.6478874"><ele>21.0</ele><time>2026-05-01T17:17:58.188Z</time></trkpt><trkpt lat="39.8235141" lon="9.6480028"><ele>21.0</ele><time>2026-05-01T17:17:59.188Z</time></trkpt><trkpt lat="39.8234671" lon="9.6481114"><ele>21.0</ele><time>2026-05-01T17:18:00.188Z</time></trkpt><trkpt lat="39.8234245" lon="9.6482304"><ele>21.0</ele><time>2026-05-01T17:18:01.188Z</time></trkpt><trkpt lat="39.8233939" lon="9.6483556"><ele>21.0</ele><time>2026-05-01T17:18:02.188Z</time></trkpt><trkpt lat="39.823368" lon="9.6484866"><ele>21.0</ele><time>2026-05-01T17:18:03.187Z</time></trkpt><trkpt lat="39.8233461" lon="9.6486251"><ele>20.75</ele><time>2026-05-01T17:18:04.188Z</time></trkpt><trkpt lat="39.8233291" lon="9.6487717"><ele>20.5</ele><time>2026-05-01T17:18:05.188Z</time></trkpt><trkpt lat="39.8233137" lon="9.6489244"><ele>20.25</ele><time>2026-05-01T17:18:06.187Z</time></trkpt><trkpt lat="39.823299" lon="9.6490789"><ele>20.0</ele><time>2026-05-01T17:18:07.188Z</time></trkpt><trkpt lat="39.8232854" lon="9.6492336"><ele>20.0</ele><time>2026-05-01T17:18:08.188Z</time></trkpt><trkpt lat="39.8232653" lon="9.6493869"><ele>20.0</ele><time>2026-05-01T17:18:09.187Z</time></trkpt><trkpt lat="39.8232444" lon="9.6495365"><ele>20.0</ele><time>2026-05-01T17:18:10.188Z</time></trkpt><trkpt lat="39.8232273" lon="9.6496783"><ele>20.0</ele><time>2026-05-01T17:18:11.188Z</time></trkpt><trkpt lat="39.8232107" lon="9.6498166"><ele>19.8</ele><time>2026-05-01T17:18:12.187Z</time></trkpt><trkpt lat="39.8231942" lon="9.6499499"><ele>19.6</ele><time>2026-05-01T17:18:13.187Z</time></trkpt><trkpt lat="39.8231805" lon="9.6500794"><ele>19.4</ele><time>2026-05-01T17:18:14.188Z</time></trkpt><trkpt lat="39.8231684" lon="9.6502115"><ele>19.2</ele><time>2026-05-01T17:18:15.188Z</time></trkpt><trkpt lat="39.8231549" lon="9.6503356"><ele>19.0</ele><time>2026-05-01T17:18:16.188Z</time></trkpt><trkpt lat="39.823141" lon="9.650455"><ele>18.666666666666664</ele><time>2026-05-01T17:18:17.187Z</time></trkpt><trkpt lat="39.8231276" lon="9.6505673"><ele>18.333333333333332</ele><time>2026-05-01T17:18:18.188Z</time></trkpt><trkpt lat="39.8231137" lon="9.6506766"><ele>18.0</ele><time>2026-05-01T17:18:19.187Z</time></trkpt><trkpt lat="39.8231026" lon="9.6507812"><ele>17.666666666666668</ele><time>2026-05-01T17:18:20.188Z</time></trkpt><trkpt lat="39.8230921" lon="9.6508832"><ele>17.333333333333336</ele><time>2026-05-01T17:18:21.187Z</time></trkpt><trkpt lat="39.8230822" lon="9.6509886"><ele>17.0</ele><time>2026-05-01T17:18:22.187Z</time></trkpt><trkpt lat="39.8230724" lon="9.6510967"><ele>17.0</ele><time>2026-05-01T17:18:23.187Z</time></trkpt><trkpt lat="39.823064" lon="9.6511997"><ele>17.0</ele><time>2026-05-01T17:18:24.187Z</time></trkpt><trkpt lat="39.8230576" lon="9.6512991"><ele>17.0</ele><time>2026-05-01T17:18:25.188Z</time></trkpt><trkpt lat="39.8230525" lon="9.6513903"><ele>17.0</ele><time>2026-05-01T17:18:26.188Z</time></trkpt><trkpt lat="39.8230503" lon="9.6514892"><ele>17.0</ele><time>2026-05-01T17:18:27.188Z</time></trkpt><trkpt lat="39.8230465" lon="9.6515912"><ele>17.0</ele><time>2026-05-01T17:18:28.188Z</time></trkpt><trkpt lat="39.8230414" lon="9.6516859"><ele>17.0</ele><time>2026-05-01T17:18:29.188Z</time></trkpt><trkpt lat="39.8230372" lon="9.6517891"><ele>17.0</ele><time>2026-05-01T17:18:30.187Z</time></trkpt><trkpt lat="39.8230379" lon="9.651904"><ele>17.0</ele><time>2026-05-01T17:18:31.188Z</time></trkpt><trkpt lat="39.823046" lon="9.6520326"><ele>17.0</ele><time>2026-05-01T17:18:32.187Z</time></trkpt><trkpt lat="39.8230597" lon="9.6521715"><ele>17.0</ele><time>2026-05-01T17:18:33.188Z</time></trkpt><trkpt lat="39.8230758" lon="9.6523208"><ele>17.0</ele><time>2026-05-01T17:18:34.188Z</time></trkpt><trkpt lat="39.8230899" lon="9.6524776"><ele>17.0</ele><time>2026-05-01T17:18:35.187Z</time></trkpt><trkpt lat="39.8230959" lon="9.6526284"><ele>17.0</ele><time>2026-05-01T17:18:36.188Z</time></trkpt><trkpt lat="39.8230979" lon="9.6527739"><ele>17.0</ele><time>2026-05-01T17:18:37.187Z</time></trkpt><trkpt lat="39.8230913" lon="9.6529167"><ele>17.0</ele><time>2026-05-01T17:18:38.187Z</time></trkpt><trkpt lat="39.8230739" lon="9.6530619"><ele>17.0</ele><time>2026-05-01T17:18:39.187Z</time></trkpt><trkpt lat="39.8230486" lon="9.6532084"><ele>17.0</ele><time>2026-05-01T17:18:40.188Z</time></trkpt><trkpt lat="39.8230185" lon="9.6533601"><ele>17.0</ele><time>2026-05-01T17:18:41.188Z</time></trkpt><trkpt lat="39.8229835" lon="9.6535198"><ele>16.25</ele><time>2026-05-01T17:18:42.187Z</time></trkpt><trkpt lat="39.8229496" lon="9.6536759"><ele>15.5</ele><time>2026-05-01T17:18:43.188Z</time></trkpt><trkpt lat="39.8229163" lon="9.6538227"><ele>14.75</ele><time>2026-05-01T17:18:44.188Z</time></trkpt><trkpt lat="39.8228821" lon="9.6539784"><ele>14.0</ele><time>2026-05-01T17:18:45.188Z</time></trkpt><trkpt lat="39.8228463" lon="9.6541419"><ele>14.0</ele><time>2026-05-01T17:18:46.188Z</time></trkpt><trkpt lat="39.8228098" lon="9.6543077"><ele>14.0</ele><time>2026-05-01T17:18:47.188Z</time></trkpt><trkpt lat="39.8227753" lon="9.6544684"><ele>14.0</ele><time>2026-05-01T17:18:48.188Z</time></trkpt><trkpt lat="39.8227422" lon="9.6546189"><ele>14.0</ele><time>2026-05-01T17:18:49.188Z</time></trkpt><trkpt lat="39.8227089" lon="9.6547714"><ele>14.0</ele><time>2026-05-01T17:18:50.188Z</time></trkpt><trkpt lat="39.8226755" lon="9.6549137"><ele>13.999999999999998</ele><time>2026-05-01T17:18:51.187Z</time></trkpt><trkpt lat="39.8226433" lon="9.6550453"><ele>13.999999999999998</ele><time>2026-05-01T17:18:52.187Z</time></trkpt><trkpt lat="39.8226186" lon="9.6551558"><ele>14.0</ele><time>2026-05-01T17:18:53.187Z</time></trkpt><trkpt lat="39.8225978" lon="9.655244"><ele>14.0</ele><time>2026-05-01T17:18:54.188Z</time></trkpt><trkpt lat="39.8225828" lon="9.6553669"><ele>14.0</ele><time>2026-05-01T17:18:56.187Z</time></trkpt><trkpt lat="39.822613" lon="9.6554526"><ele>13.999999999999998</ele><time>2026-05-01T17:18:59.188Z</time></trkpt><trkpt lat="39.8226891" lon="9.655476"><ele>13.999999999999998</ele><time>2026-05-01T17:19:01.188Z</time></trkpt><trkpt lat="39.8227984" lon="9.6554598"><ele>14.0</ele><time>2026-05-01T17:19:03.187Z</time></trkpt><trkpt lat="39.8229209" lon="9.655447"><ele>14.0</ele><time>2026-05-01T17:19:05.188Z</time></trkpt><trkpt lat="39.8230477" lon="9.6554324"><ele>13.833333333333334</ele><time>2026-05-01T17:19:07.188Z</time></trkpt><trkpt lat="39.8231179" lon="9.6554226"><ele>13.666666666666668</ele><time>2026-05-01T17:19:08.187Z</time></trkpt><trkpt lat="39.8231937" lon="9.6554139"><ele>13.5</ele><time>2026-05-01T17:19:09.188Z</time></trkpt><trkpt lat="39.823273" lon="9.655406"><ele>13.333333333333332</ele><time>2026-05-01T17:19:10.187Z</time></trkpt><trkpt lat="39.8233577" lon="9.6553979"><ele>13.166666666666666</ele><time>2026-05-01T17:19:11.187Z</time></trkpt><trkpt lat="39.8234441" lon="9.65539"><ele>13.0</ele><time>2026-05-01T17:19:12.187Z</time></trkpt><trkpt lat="39.8235343" lon="9.6553771"><ele>13.4</ele><time>2026-05-01T17:19:13.188Z</time></trkpt><trkpt lat="39.8236258" lon="9.6553658"><ele>13.8</ele><time>2026-05-01T17:19:14.188Z</time></trkpt><trkpt lat="39.8237201" lon="9.6553569"><ele>14.2</ele><time>2026-05-01T17:19:15.187Z</time></trkpt><trkpt lat="39.8238155" lon="9.6553506"><ele>14.6</ele><time>2026-05-01T17:19:16.188Z</time></trkpt><trkpt lat="39.8239141" lon="9.6553443"><ele>15.0</ele><time>2026-05-01T17:19:17.188Z</time></trkpt><trkpt lat="39.8240136" lon="9.6553352"><ele>15.0</ele><time>2026-05-01T17:19:18.188Z</time></trkpt><trkpt lat="39.8241174" lon="9.6553239"><ele>15.0</ele><time>2026-05-01T17:19:19.187Z</time></trkpt><trkpt lat="39.8242232" lon="9.6553138"><ele>15.0</ele><time>2026-05-01T17:19:20.187Z</time></trkpt><trkpt lat="39.8243346" lon="9.6553027"><ele>15.0</ele><time>2026-05-01T17:19:21.187Z</time></trkpt><trkpt lat="39.8244516" lon="9.6552918"><ele>15.0</ele><time>2026-05-01T17:19:22.188Z</time></trkpt><trkpt lat="39.8245707" lon="9.6552818"><ele>14.75</ele><time>2026-05-01T17:19:23.187Z</time></trkpt><trkpt lat="39.8246929" lon="9.655268"><ele>14.5</ele><time>2026-05-01T17:19:24.188Z</time></trkpt><trkpt lat="39.8248226" lon="9.6552542"><ele>14.25</ele><time>2026-05-01T17:19:25.187Z</time></trkpt><trkpt lat="39.8249492" lon="9.6552419"><ele>14.0</ele><time>2026-05-01T17:19:26.187Z</time></trkpt><trkpt lat="39.8250781" lon="9.6552314"><ele>14.5</ele><time>2026-05-01T17:19:27.188Z</time></trkpt><trkpt lat="39.8252094" lon="9.6552207"><ele>15.0</ele><time>2026-05-01T17:19:28.187Z</time></trkpt><trkpt lat="39.8253442" lon="9.6552053"><ele>15.5</ele><time>2026-05-01T17:19:29.187Z</time></trkpt><trkpt lat="39.8254831" lon="9.6551912"><ele>16.0</ele><time>2026-05-01T17:19:30.187Z</time></trkpt><trkpt lat="39.8256257" lon="9.6551753"><ele>16.0</ele><time>2026-05-01T17:19:31.188Z</time></trkpt><trkpt lat="39.8257717" lon="9.655162"><ele>16.0</ele><time>2026-05-01T17:19:32.188Z</time></trkpt><trkpt lat="39.8259205" lon="9.6551468"><ele>16.0</ele><time>2026-05-01T17:19:33.187Z</time></trkpt><trkpt lat="39.826068" lon="9.6551313"><ele>16.0</ele><time>2026-05-01T17:19:34.187Z</time></trkpt><trkpt lat="39.8262102" lon="9.6551156"><ele>16.5</ele><time>2026-05-01T17:19:35.188Z</time></trkpt><trkpt lat="39.8263521" lon="9.6550996"><ele>17.0</ele><time>2026-05-01T17:19:36.188Z</time></trkpt><trkpt lat="39.8264935" lon="9.6550855"><ele>17.5</ele><time>2026-05-01T17:19:37.187Z</time></trkpt><trkpt lat="39.8266381" lon="9.6550745"><ele>18.0</ele><time>2026-05-01T17:19:38.188Z</time></trkpt><trkpt lat="39.8267858" lon="9.655061"><ele>18.0</ele><time>2026-05-01T17:19:39.187Z</time></trkpt><trkpt lat="39.8269396" lon="9.6550454"><ele>18.0</ele><time>2026-05-01T17:19:40.188Z</time></trkpt><trkpt lat="39.8270965" lon="9.6550285"><ele>18.0</ele><time>2026-05-01T17:19:41.187Z</time></trkpt><trkpt lat="39.827257" lon="9.655013"><ele>18.0</ele><time>2026-05-01T17:19:42.188Z</time></trkpt><trkpt lat="39.8274179" lon="9.6549967"><ele>18.0</ele><time>2026-05-01T17:19:43.187Z</time></trkpt><trkpt lat="39.8275774" lon="9.6549803"><ele>18.0</ele><time>2026-05-01T17:19:44.188Z</time></trkpt><trkpt lat="39.8277335" lon="9.6549651"><ele>18.5</ele><time>2026-05-01T17:19:45.187Z</time></trkpt><trkpt lat="39.8278785" lon="9.6549535"><ele>19.0</ele><time>2026-05-01T17:19:46.187Z</time></trkpt><trkpt lat="39.8280171" lon="9.6549421"><ele>19.5</ele><time>2026-05-01T17:19:47.188Z</time></trkpt><trkpt lat="39.8281487" lon="9.6549288"><ele>20.0</ele><time>2026-05-01T17:19:48.187Z</time></trkpt><trkpt lat="39.828273" lon="9.6549154"><ele>20.0</ele><time>2026-05-01T17:19:49.187Z</time></trkpt><trkpt lat="39.8283904" lon="9.6549039"><ele>20.0</ele><time>2026-05-01T17:19:50.187Z</time></trkpt><trkpt lat="39.8285061" lon="9.6548934"><ele>20.0</ele><time>2026-05-01T17:19:51.187Z</time></trkpt><trkpt lat="39.8286135" lon="9.6548824"><ele>20.0</ele><time>2026-05-01T17:19:52.187Z</time></trkpt><trkpt lat="39.8287157" lon="9.6548724"><ele>20.0</ele><time>2026-05-01T17:19:53.188Z</time></trkpt><trkpt lat="39.8288185" lon="9.6548634"><ele>20.75</ele><time>2026-05-01T17:19:54.188Z</time></trkpt><trkpt lat="39.8289265" lon="9.6548532"><ele>21.5</ele><time>2026-05-01T17:19:55.188Z</time></trkpt><trkpt lat="39.829037" lon="9.6548445"><ele>22.25</ele><time>2026-05-01T17:19:56.188Z</time></trkpt><trkpt lat="39.829153" lon="9.654836"><ele>23.0</ele><time>2026-05-01T17:19:57.188Z</time></trkpt><trkpt lat="39.8292723" lon="9.6548254"><ele>23.2</ele><time>2026-05-01T17:19:58.187Z</time></trkpt><trkpt lat="39.8293827" lon="9.6548137"><ele>23.4</ele><time>2026-05-01T17:19:59.187Z</time></trkpt><trkpt lat="39.8294859" lon="9.6548008"><ele>23.599999999999998</ele><time>2026-05-01T17:20:00.188Z</time></trkpt><trkpt lat="39.829578" lon="9.6547882"><ele>23.799999999999997</ele><time>2026-05-01T17:20:01.187Z</time></trkpt><trkpt lat="39.8296557" lon="9.6547751"><ele>24.0</ele><time>2026-05-01T17:20:02.187Z</time></trkpt><trkpt lat="39.8297596" lon="9.654808"><ele>24.0</ele><time>2026-05-01T17:20:04.187Z</time></trkpt><trkpt lat="39.8297656" lon="9.6549016"><ele>24.0</ele><time>2026-05-01T17:20:06.187Z</time></trkpt><trkpt lat="39.8296874" lon="9.6550096"><ele>24.0</ele><time>2026-05-01T17:20:08.188Z</time></trkpt><trkpt lat="39.8296228" lon="9.6550711"><ele>24.0</ele><time>2026-05-01T17:20:09.188Z</time></trkpt><trkpt lat="39.8295481" lon="9.6551494"><ele>24.0</ele><time>2026-05-01T17:20:10.188Z</time></trkpt><trkpt lat="39.8294634" lon="9.6552462"><ele>23.6</ele><time>2026-05-01T17:20:11.187Z</time></trkpt><trkpt lat="39.8293831" lon="9.6553426"><ele>23.2</ele><time>2026-05-01T17:20:12.187Z</time></trkpt><trkpt lat="39.829308" lon="9.6554287"><ele>22.8</ele><time>2026-05-01T17:20:13.188Z</time></trkpt><trkpt lat="39.8292298" lon="9.6555083"><ele>22.400000000000002</ele><time>2026-05-01T17:20:14.188Z</time></trkpt><trkpt lat="39.8291488" lon="9.6555858"><ele>22.0</ele><time>2026-05-01T17:20:15.187Z</time></trkpt><trkpt lat="39.8290695" lon="9.6556725"><ele>22.0</ele><time>2026-05-01T17:20:16.188Z</time></trkpt><trkpt lat="39.8289949" lon="9.6557698"><ele>22.0</ele><time>2026-05-01T17:20:17.187Z</time></trkpt><trkpt lat="39.8289254" lon="9.6558781"><ele>22.0</ele><time>2026-05-01T17:20:18.187Z</time></trkpt><trkpt lat="39.8288588" lon="9.6559977"><ele>22.0</ele><time>2026-05-01T17:20:19.187Z</time></trkpt><trkpt lat="39.828795" lon="9.6561279"><ele>22.0</ele><time>2026-05-01T17:20:20.188Z</time></trkpt><trkpt lat="39.828738" lon="9.656259"><ele>22.0</ele><time>2026-05-01T17:20:21.187Z</time></trkpt><trkpt lat="39.8286889" lon="9.6563884"><ele>22.0</ele><time>2026-05-01T17:20:22.188Z</time></trkpt><trkpt lat="39.8286431" lon="9.6565105"><ele>22.0</ele><time>2026-05-01T17:20:23.188Z</time></trkpt><trkpt lat="39.8286105" lon="9.6566157"><ele>22.0</ele><time>2026-05-01T17:20:24.188Z</time></trkpt><trkpt lat="39.8285941" lon="9.65671"><ele>22.0</ele><time>2026-05-01T17:20:25.188Z</time></trkpt><trkpt lat="39.8285972" lon="9.6567997"><ele>22.0</ele><time>2026-05-01T17:20:26.187Z</time></trkpt><trkpt lat="39.8286272" lon="9.6568819"><ele>22.0</ele><time>2026-05-01T17:20:27.188Z</time></trkpt><trkpt lat="39.8286807" lon="9.6569552"><ele>22.0</ele><time>2026-05-01T17:20:28.188Z</time></trkpt><trkpt lat="39.8287521" lon="9.6570264"><ele>22.0</ele><time>2026-05-01T17:20:29.188Z</time></trkpt><trkpt lat="39.8288387" lon="9.6571049"><ele>22.0</ele><time>2026-05-01T17:20:30.187Z</time></trkpt><trkpt lat="39.8289557" lon="9.6572065"><ele>22.0</ele><time>2026-05-01T17:20:31.187Z</time></trkpt><trkpt lat="39.8290756" lon="9.6573066"><ele>22.0</ele><time>2026-05-01T17:20:32.187Z</time></trkpt><trkpt lat="39.8291807" lon="9.6573924"><ele>22.0</ele><time>2026-05-01T17:20:33.188Z</time></trkpt><trkpt lat="39.829278" lon="9.6574717"><ele>22.0</ele><time>2026-05-01T17:20:34.188Z</time></trkpt><trkpt lat="39.8293624" lon="9.6575375"><ele>22.0</ele><time>2026-05-01T17:20:35.188Z</time></trkpt><trkpt lat="39.8294299" lon="9.6576088"><ele>22.0</ele><time>2026-05-01T17:20:36.188Z</time></trkpt><trkpt lat="39.8294805" lon="9.6576918"><ele>22.5</ele><time>2026-05-01T17:20:37.188Z</time></trkpt><trkpt lat="39.8295165" lon="9.6577767"><ele>23.0</ele><time>2026-05-01T17:20:38.188Z</time></trkpt><trkpt lat="39.8295309" lon="9.6578633"><ele>23.5</ele><time>2026-05-01T17:20:39.187Z</time></trkpt><trkpt lat="39.8295269" lon="9.6579529"><ele>24.0</ele><time>2026-05-01T17:20:40.188Z</time></trkpt><trkpt lat="39.8295071" lon="9.6580504"><ele>24.500000000000004</ele><time>2026-05-01T17:20:41.187Z</time></trkpt><trkpt lat="39.8294748" lon="9.6581543"><ele>25.0</ele><time>2026-05-01T17:20:42.188Z</time></trkpt><trkpt lat="39.8294348" lon="9.6582678"><ele>25.0</ele><time>2026-05-01T17:20:43.187Z</time></trkpt><trkpt lat="39.8293885" lon="9.6583985"><ele>25.0</ele><time>2026-05-01T17:20:44.188Z</time></trkpt><trkpt lat="39.8293393" lon="9.6585359"><ele>25.0</ele><time>2026-05-01T17:20:45.188Z</time></trkpt><trkpt lat="39.8292914" lon="9.658665"><ele>25.0</ele><time>2026-05-01T17:20:46.188Z</time></trkpt><trkpt lat="39.8292493" lon="9.6587795"><ele>25.0</ele><time>2026-05-01T17:20:47.188Z</time></trkpt><trkpt lat="39.82922" lon="9.6588823"><ele>25.000000000000004</ele><time>2026-05-01T17:20:48.188Z</time></trkpt><trkpt lat="39.8292103" lon="9.6589754"><ele>25.0</ele><time>2026-05-01T17:20:49.187Z</time></trkpt><trkpt lat="39.8292277" lon="9.6590605"><ele>25.0</ele><time>2026-05-01T17:20:50.187Z</time></trkpt><trkpt lat="39.8292656" lon="9.6591331"><ele>25.0</ele><time>2026-05-01T17:20:51.187Z</time></trkpt><trkpt lat="39.8293198" lon="9.6591996"><ele>25.000000000000004</ele><time>2026-05-01T17:20:52.188Z</time></trkpt><trkpt lat="39.8293855" lon="9.6592694"><ele>25.0</ele><time>2026-05-01T17:20:53.188Z</time></trkpt><trkpt lat="39.8294594" lon="9.659347"><ele>25.4</ele><time>2026-05-01T17:20:54.187Z</time></trkpt><trkpt lat="39.829541" lon="9.6594312"><ele>25.8</ele><time>2026-05-01T17:20:55.188Z</time></trkpt><trkpt lat="39.8296276" lon="9.6595206"><ele>26.200000000000003</ele><time>2026-05-01T17:20:56.188Z</time></trkpt><trkpt lat="39.8297134" lon="9.6596086"><ele>26.6</ele><time>2026-05-01T17:20:57.187Z</time></trkpt><trkpt lat="39.829791" lon="9.6596859"><ele>27.0</ele><time>2026-05-01T17:20:58.188Z</time></trkpt><trkpt lat="39.8298613" lon="9.6597501"><ele>27.8</ele><time>2026-05-01T17:20:59.188Z</time></trkpt><trkpt lat="39.8299194" lon="9.6598132"><ele>28.6</ele><time>2026-05-01T17:21:00.187Z</time></trkpt><trkpt lat="39.8299706" lon="9.6598753"><ele>29.400000000000002</ele><time>2026-05-01T17:21:01.188Z</time></trkpt><trkpt lat="39.8300103" lon="9.6599452"><ele>30.200000000000003</ele><time>2026-05-01T17:21:02.188Z</time></trkpt><trkpt lat="39.8300319" lon="9.6600934"><ele>31.0</ele><time>2026-05-01T17:21:04.187Z</time></trkpt><trkpt lat="39.8299748" lon="9.66024"><ele>33.5</ele><time>2026-05-01T17:21:06.188Z</time></trkpt><trkpt lat="39.8299126" lon="9.6603327"><ele>36.0</ele><time>2026-05-01T17:21:07.188Z</time></trkpt><trkpt lat="39.8298252" lon="9.6604512"><ele>38.5</ele><time>2026-05-01T17:21:08.188Z</time></trkpt><trkpt lat="39.829715" lon="9.6606031"><ele>41.0</ele><time>2026-05-01T17:21:09.188Z</time></trkpt><trkpt lat="39.8296017" lon="9.6607631"><ele>41.0</ele><time>2026-05-01T17:21:10.188Z</time></trkpt><trkpt lat="39.8295079" lon="9.6609018"><ele>41.0</ele><time>2026-05-01T17:21:11.188Z</time></trkpt><trkpt lat="39.829421" lon="9.6610508"><ele>41.0</ele><time>2026-05-01T17:21:12.187Z</time></trkpt><trkpt lat="39.8293516" lon="9.6612087"><ele>41.0</ele><time>2026-05-01T17:21:13.187Z</time></trkpt><trkpt lat="39.8292953" lon="9.6613767"><ele>41.75</ele><time>2026-05-01T17:21:14.188Z</time></trkpt><trkpt lat="39.82925" lon="9.6615471"><ele>42.5</ele><time>2026-05-01T17:21:15.188Z</time></trkpt><trkpt lat="39.8292097" lon="9.6617173"><ele>43.25</ele><time>2026-05-01T17:21:16.187Z</time></trkpt><trkpt lat="39.8291723" lon="9.6618734"><ele>44.0</ele><time>2026-05-01T17:21:17.188Z</time></trkpt><trkpt lat="39.8291471" lon="9.6620146"><ele>44.800000000000004</ele><time>2026-05-01T17:21:18.188Z</time></trkpt><trkpt lat="39.8291386" lon="9.6621473"><ele>45.6</ele><time>2026-05-01T17:21:19.187Z</time></trkpt><trkpt lat="39.8291426" lon="9.6622804"><ele>46.4</ele><time>2026-05-01T17:21:20.187Z</time></trkpt><trkpt lat="39.8291477" lon="9.6624158"><ele>47.2</ele><time>2026-05-01T17:21:21.188Z</time></trkpt><trkpt lat="39.8291488" lon="9.662561"><ele>48.0</ele><time>2026-05-01T17:21:22.188Z</time></trkpt><trkpt lat="39.8291468" lon="9.662712"><ele>48.25</ele><time>2026-05-01T17:21:23.187Z</time></trkpt><trkpt lat="39.8291309" lon="9.6628643"><ele>48.5</ele><time>2026-05-01T17:21:24.188Z</time></trkpt><trkpt lat="39.8291033" lon="9.6630182"><ele>48.75</ele><time>2026-05-01T17:21:25.188Z</time></trkpt><trkpt lat="39.8290706" lon="9.6631747"><ele>49.0</ele><time>2026-05-01T17:21:26.187Z</time></trkpt><trkpt lat="39.8290317" lon="9.663336"><ele>49.0</ele><time>2026-05-01T17:21:27.187Z</time></trkpt><trkpt lat="39.8289943" lon="9.6634985"><ele>49.0</ele><time>2026-05-01T17:21:28.187Z</time></trkpt><trkpt lat="39.8289586" lon="9.6636505"><ele>49.0</ele><time>2026-05-01T17:21:29.188Z</time></trkpt><trkpt lat="39.8289216" lon="9.6638083"><ele>49.0</ele><time>2026-05-01T17:21:30.188Z</time></trkpt><trkpt lat="39.8288889" lon="9.663952"><ele>48.83333333333333</ele><time>2026-05-01T17:21:31.187Z</time></trkpt><trkpt lat="39.828865" lon="9.6640606"><ele>48.666666666666664</ele><time>2026-05-01T17:21:32.187Z</time></trkpt><trkpt lat="39.828849" lon="9.6641538"><ele>48.5</ele><time>2026-05-01T17:21:33.187Z</time></trkpt><trkpt lat="39.8288541" lon="9.664241"><ele>48.33333333333333</ele><time>2026-05-01T17:21:34.187Z</time></trkpt><trkpt lat="39.8288687" lon="9.664343"><ele>48.166666666666664</ele><time>2026-05-01T17:21:35.188Z</time></trkpt><trkpt lat="39.8288865" lon="9.6644578"><ele>48.0</ele><time>2026-05-01T17:21:36.187Z</time></trkpt><trkpt lat="39.8289095" lon="9.6645792"><ele>46.0</ele><time>2026-05-01T17:21:37.188Z</time></trkpt><trkpt lat="39.8289386" lon="9.6647172"><ele>44.0</ele><time>2026-05-01T17:21:38.188Z</time></trkpt><trkpt lat="39.8289744" lon="9.6648662"><ele>42.0</ele><time>2026-05-01T17:21:39.188Z</time></trkpt><trkpt lat="39.8290104" lon="9.6650144"><ele>40.0</ele><time>2026-05-01T17:21:40.188Z</time></trkpt><trkpt lat="39.8290445" lon="9.6651607"><ele>38.25</ele><time>2026-05-01T17:21:41.187Z</time></trkpt><trkpt lat="39.8290771" lon="9.6653092"><ele>36.5</ele><time>2026-05-01T17:21:42.187Z</time></trkpt><trkpt lat="39.8291088" lon="9.6654526"><ele>34.75</ele><time>2026-05-01T17:21:43.187Z</time></trkpt><trkpt lat="39.8291361" lon="9.6655969"><ele>33.0</ele><time>2026-05-01T17:21:44.188Z</time></trkpt><trkpt lat="39.8291556" lon="9.6657547"><ele>33.0</ele><time>2026-05-01T17:21:45.187Z</time></trkpt><trkpt lat="39.829167" lon="9.6659181"><ele>33.0</ele><time>2026-05-01T17:21:46.188Z</time></trkpt><trkpt lat="39.8291775" lon="9.6660751"><ele>33.0</ele><time>2026-05-01T17:21:47.188Z</time></trkpt><trkpt lat="39.8291929" lon="9.6662201"><ele>33.0</ele><time>2026-05-01T17:21:48.188Z</time></trkpt><trkpt lat="39.8292153" lon="9.666356"><ele>32.199999999999996</ele><time>2026-05-01T17:21:49.188Z</time></trkpt><trkpt lat="39.8292399" lon="9.6664818"><ele>31.4</ele><time>2026-05-01T17:21:50.188Z</time></trkpt><trkpt lat="39.8292621" lon="9.6665925"><ele>30.599999999999998</ele><time>2026-05-01T17:21:51.188Z</time></trkpt><trkpt lat="39.8292761" lon="9.6666885"><ele>29.799999999999997</ele><time>2026-05-01T17:21:52.188Z</time></trkpt><trkpt lat="39.8292762" lon="9.6667811"><ele>29.0</ele><time>2026-05-01T17:21:53.187Z</time></trkpt><trkpt lat="39.8292472" lon="9.666941"><ele>29.166666666666664</ele><time>2026-05-01T17:21:55.187Z</time></trkpt><trkpt lat="39.8292268" lon="9.6670321"><ele>29.333333333333332</ele><time>2026-05-01T17:21:56.187Z</time></trkpt><trkpt lat="39.8292045" lon="9.6671304"><ele>29.5</ele><time>2026-05-01T17:21:57.188Z</time></trkpt><trkpt lat="39.8291798" lon="9.6672377"><ele>29.666666666666664</ele><time>2026-05-01T17:21:58.187Z</time></trkpt><trkpt lat="39.829157" lon="9.6673441"><ele>29.833333333333332</ele><time>2026-05-01T17:21:59.188Z</time></trkpt><trkpt lat="39.8291372" lon="9.6674422"><ele>30.0</ele><time>2026-05-01T17:22:00.187Z</time></trkpt><trkpt lat="39.8291213" lon="9.6675411"><ele>30.0</ele><time>2026-05-01T17:22:01.188Z</time></trkpt><trkpt lat="39.8291075" lon="9.6676463"><ele>30.0</ele><time>2026-05-01T17:22:02.188Z</time></trkpt><trkpt lat="39.8290955" lon="9.6677637"><ele>30.0</ele><time>2026-05-01T17:22:03.188Z</time></trkpt><trkpt lat="39.8290857" lon="9.6678941"><ele>30.0</ele><time>2026-05-01T17:22:04.187Z</time></trkpt><trkpt lat="39.829077" lon="9.6680404"><ele>30.0</ele><time>2026-05-01T17:22:05.187Z</time></trkpt><trkpt lat="39.8290713" lon="9.668195"><ele>30.5</ele><time>2026-05-01T17:22:06.188Z</time></trkpt><trkpt lat="39.8290623" lon="9.6683522"><ele>31.0</ele><time>2026-05-01T17:22:07.188Z</time></trkpt><trkpt lat="39.82905" lon="9.6685054"><ele>31.5</ele><time>2026-05-01T17:22:08.187Z</time></trkpt><trkpt lat="39.8290421" lon="9.6686488"><ele>32.0</ele><time>2026-05-01T17:22:09.188Z</time></trkpt><trkpt lat="39.8290396" lon="9.668799"><ele>32.0</ele><time>2026-05-01T17:22:10.187Z</time></trkpt><trkpt lat="39.829039" lon="9.6689515"><ele>32.0</ele><time>2026-05-01T17:22:11.187Z</time></trkpt><trkpt lat="39.8290447" lon="9.6691024"><ele>32.0</ele><time>2026-05-01T17:22:12.188Z</time></trkpt><trkpt lat="39.8290563" lon="9.6692526"><ele>32.0</ele><time>2026-05-01T17:22:13.188Z</time></trkpt><trkpt lat="39.8290676" lon="9.669403"><ele>32.6</ele><time>2026-05-01T17:22:14.188Z</time></trkpt><trkpt lat="39.8290764" lon="9.6695524"><ele>33.2</ele><time>2026-05-01T17:22:15.187Z</time></trkpt><trkpt lat="39.8290789" lon="9.6696984"><ele>33.8</ele><time>2026-05-01T17:22:16.188Z</time></trkpt><trkpt lat="39.8290732" lon="9.6698424"><ele>34.4</ele><time>2026-05-01T17:22:17.188Z</time></trkpt><trkpt lat="39.829057" lon="9.6699837"><ele>35.0</ele><time>2026-05-01T17:22:18.187Z</time></trkpt><trkpt lat="39.829028" lon="9.6701231"><ele>35.0</ele><time>2026-05-01T17:22:19.187Z</time></trkpt><trkpt lat="39.8289878" lon="9.6702614"><ele>35.0</ele><time>2026-05-01T17:22:20.187Z</time></trkpt><trkpt lat="39.8289391" lon="9.6704005"><ele>35.0</ele><time>2026-05-01T17:22:21.187Z</time></trkpt><trkpt lat="39.8288875" lon="9.6705404"><ele>35.0</ele><time>2026-05-01T17:22:22.188Z</time></trkpt><trkpt lat="39.8288406" lon="9.6706792"><ele>36.0</ele><time>2026-05-01T17:22:23.188Z</time></trkpt><trkpt lat="39.8287956" lon="9.6708109"><ele>37.0</ele><time>2026-05-01T17:22:24.188Z</time></trkpt><trkpt lat="39.8287632" lon="9.6709248"><ele>38.0</ele><time>2026-05-01T17:22:25.187Z</time></trkpt><trkpt lat="39.828749" lon="9.6710273"><ele>39.0</ele><time>2026-05-01T17:22:26.187Z</time></trkpt><trkpt lat="39.8287478" lon="9.671128"><ele>40.0</ele><time>2026-05-01T17:22:27.188Z</time></trkpt><trkpt lat="39.8287634" lon="9.6712322"><ele>41.0</ele><time>2026-05-01T17:22:28.187Z</time></trkpt><trkpt lat="39.8287983" lon="9.6713353"><ele>42.199999999999996</ele><time>2026-05-01T17:22:29.187Z</time></trkpt><trkpt lat="39.8288481" lon="9.671443"><ele>43.4</ele><time>2026-05-01T17:22:30.188Z</time></trkpt><trkpt lat="39.8289104" lon="9.6715533"><ele>44.6</ele><time>2026-05-01T17:22:31.188Z</time></trkpt><trkpt lat="39.8289817" lon="9.6716698"><ele>45.8</ele><time>2026-05-01T17:22:32.187Z</time></trkpt><trkpt lat="39.8290543" lon="9.6717898"><ele>47.0</ele><time>2026-05-01T17:22:33.187Z</time></trkpt><trkpt lat="39.8291266" lon="9.6719146"><ele>47.0</ele><time>2026-05-01T17:22:34.187Z</time></trkpt><trkpt lat="39.8292017" lon="9.6720438"><ele>47.0</ele><time>2026-05-01T17:22:35.188Z</time></trkpt><trkpt lat="39.8292791" lon="9.6721751"><ele>47.0</ele><time>2026-05-01T17:22:36.188Z</time></trkpt><trkpt lat="39.8293614" lon="9.6723101"><ele>47.0</ele><time>2026-05-01T17:22:37.187Z</time></trkpt><trkpt lat="39.8294436" lon="9.6724493"><ele>47.0</ele><time>2026-05-01T17:22:38.187Z</time></trkpt><trkpt lat="39.8295292" lon="9.6725901"><ele>47.0</ele><time>2026-05-01T17:22:39.188Z</time></trkpt><trkpt lat="39.8296107" lon="9.6727261"><ele>47.0</ele><time>2026-05-01T17:22:40.188Z</time></trkpt><trkpt lat="39.8296924" lon="9.6728634"><ele>47.0</ele><time>2026-05-01T17:22:41.187Z</time></trkpt><trkpt lat="39.8297725" lon="9.6729938"><ele>45.75</ele><time>2026-05-01T17:22:42.187Z</time></trkpt><trkpt lat="39.829853" lon="9.6731142"><ele>44.5</ele><time>2026-05-01T17:22:43.188Z</time></trkpt><trkpt lat="39.8299349" lon="9.6732304"><ele>43.25</ele><time>2026-05-01T17:22:44.187Z</time></trkpt><trkpt lat="39.8300121" lon="9.6733426"><ele>42.0</ele><time>2026-05-01T17:22:45.187Z</time></trkpt><trkpt lat="39.8300868" lon="9.6734502"><ele>41.6</ele><time>2026-05-01T17:22:46.188Z</time></trkpt><trkpt lat="39.8301642" lon="9.6735529"><ele>41.2</ele><time>2026-05-01T17:22:47.188Z</time></trkpt><trkpt lat="39.8302464" lon="9.6736511"><ele>40.8</ele><time>2026-05-01T17:22:48.188Z</time></trkpt><trkpt lat="39.8303331" lon="9.6737453"><ele>40.4</ele><time>2026-05-01T17:22:49.187Z</time></trkpt><trkpt lat="39.8304207" lon="9.673838"><ele>40.0</ele><time>2026-05-01T17:22:50.187Z</time></trkpt><trkpt lat="39.8305081" lon="9.673932"><ele>38.8</ele><time>2026-05-01T17:22:51.187Z</time></trkpt><trkpt lat="39.8305997" lon="9.6740207"><ele>37.6</ele><time>2026-05-01T17:22:52.187Z</time></trkpt><trkpt lat="39.8306929" lon="9.6741073"><ele>36.4</ele><time>2026-05-01T17:22:53.188Z</time></trkpt><trkpt lat="39.8307827" lon="9.6741915"><ele>35.2</ele><time>2026-05-01T17:22:54.187Z</time></trkpt><trkpt lat="39.8308696" lon="9.6742766"><ele>34.0</ele><time>2026-05-01T17:22:55.188Z</time></trkpt><trkpt lat="39.8309548" lon="9.6743622"><ele>32.6</ele><time>2026-05-01T17:22:56.187Z</time></trkpt><trkpt lat="39.8310439" lon="9.674447"><ele>31.2</ele><time>2026-05-01T17:22:57.187Z</time></trkpt><trkpt lat="39.8311323" lon="9.6745318"><ele>29.800000000000004</ele><time>2026-05-01T17:22:58.188Z</time></trkpt><trkpt lat="39.8312261" lon="9.6746112"><ele>28.400000000000002</ele><time>2026-05-01T17:22:59.187Z</time></trkpt><trkpt lat="39.8313251" lon="9.6746848"><ele>27.0</ele><time>2026-05-01T17:23:00.187Z</time></trkpt><trkpt lat="39.8314301" lon="9.6747549"><ele>27.0</ele><time>2026-05-01T17:23:01.188Z</time></trkpt><trkpt lat="39.8315401" lon="9.6748284"><ele>27.0</ele><time>2026-05-01T17:23:02.187Z</time></trkpt><trkpt lat="39.8316482" lon="9.6749053"><ele>27.0</ele><time>2026-05-01T17:23:03.188Z</time></trkpt><trkpt lat="39.8317638" lon="9.6749924"><ele>27.0</ele><time>2026-05-01T17:23:04.188Z</time></trkpt><trkpt lat="39.8318734" lon="9.6750803"><ele>26.8</ele><time>2026-05-01T17:23:05.187Z</time></trkpt><trkpt lat="39.8319784" lon="9.6751644"><ele>26.6</ele><time>2026-05-01T17:23:06.187Z</time></trkpt><trkpt lat="39.8320774" lon="9.675243"><ele>26.400000000000002</ele><time>2026-05-01T17:23:07.187Z</time></trkpt><trkpt lat="39.8321647" lon="9.6753134"><ele>26.200000000000003</ele><time>2026-05-01T17:23:08.188Z</time></trkpt><trkpt lat="39.83224" lon="9.6753848"><ele>26.0</ele><time>2026-05-01T17:23:09.187Z</time></trkpt><trkpt lat="39.832303" lon="9.6754588"><ele>24.999999999999996</ele><time>2026-05-01T17:23:10.188Z</time></trkpt><trkpt lat="39.8323538" lon="9.6755312"><ele>24.0</ele><time>2026-05-01T17:23:11.187Z</time></trkpt><trkpt lat="39.8323956" lon="9.6756084"><ele>23.0</ele><time>2026-05-01T17:23:12.187Z</time></trkpt><trkpt lat="39.8324285" lon="9.6756887"><ele>22.0</ele><time>2026-05-01T17:23:13.188Z</time></trkpt><trkpt lat="39.832459" lon="9.6757743"><ele>21.0</ele><time>2026-05-01T17:23:14.187Z</time></trkpt><trkpt lat="39.8324893" lon="9.6758678"><ele>20.0</ele><time>2026-05-01T17:23:15.188Z</time></trkpt><trkpt lat="39.8325182" lon="9.6759802"><ele>20.0</ele><time>2026-05-01T17:23:16.188Z</time></trkpt><trkpt lat="39.8325403" lon="9.6760987"><ele>20.0</ele><time>2026-05-01T17:23:17.188Z</time></trkpt><trkpt lat="39.8325557" lon="9.6762235"><ele>20.0</ele><time>2026-05-01T17:23:18.188Z</time></trkpt><trkpt lat="39.8325657" lon="9.6763475"><ele>20.0</ele><time>2026-05-01T17:23:19.187Z</time></trkpt><trkpt lat="39.8325731" lon="9.6764678"><ele>20.0</ele><time>2026-05-01T17:23:20.188Z</time></trkpt><trkpt lat="39.8325787" lon="9.6765861"><ele>19.0</ele><time>2026-05-01T17:23:21.187Z</time></trkpt><trkpt lat="39.8325862" lon="9.676701"><ele>18.0</ele><time>2026-05-01T17:23:22.187Z</time></trkpt><trkpt lat="39.8325928" lon="9.6768179"><ele>17.0</ele><time>2026-05-01T17:23:23.187Z</time></trkpt><trkpt lat="39.8325957" lon="9.676938"><ele>16.0</ele><time>2026-05-01T17:23:24.187Z</time></trkpt><trkpt lat="39.8325944" lon="9.6770574"><ele>15.0</ele><time>2026-05-01T17:23:25.187Z</time></trkpt><trkpt lat="39.8325935" lon="9.6771757"><ele>14.333333333333334</ele><time>2026-05-01T17:23:26.187Z</time></trkpt><trkpt lat="39.8325926" lon="9.6772913"><ele>13.666666666666666</ele><time>2026-05-01T17:23:27.187Z</time></trkpt><trkpt lat="39.8325927" lon="9.6773968"><ele>13.0</ele><time>2026-05-01T17:23:28.187Z</time></trkpt><trkpt lat="39.8325963" lon="9.6774955"><ele>12.333333333333332</ele><time>2026-05-01T17:23:29.187Z</time></trkpt><trkpt lat="39.8326085" lon="9.677582"><ele>11.666666666666666</ele><time>2026-05-01T17:23:30.188Z</time></trkpt><trkpt lat="39.8326225" lon="9.6777094"><ele>11.0</ele><time>2026-05-01T17:23:32.187Z</time></trkpt><trkpt lat="39.832652" lon="9.6778206"><ele>10.600000000000001</ele><time>2026-05-01T17:23:35.188Z</time></trkpt><trkpt lat="39.8327275" lon="9.6779051"><ele>10.200000000000001</ele><time>2026-05-01T17:23:37.188Z</time></trkpt><trkpt lat="39.832788" lon="9.6779621"><ele>9.8</ele><time>2026-05-01T17:23:38.188Z</time></trkpt><trkpt lat="39.8328576" lon="9.678035"><ele>9.4</ele><time>2026-05-01T17:23:39.187Z</time></trkpt><trkpt lat="39.8329359" lon="9.6781248"><ele>9.0</ele><time>2026-05-01T17:23:40.187Z</time></trkpt><trkpt lat="39.8330223" lon="9.6782247"><ele>9.0</ele><time>2026-05-01T17:23:41.187Z</time></trkpt><trkpt lat="39.8331093" lon="9.6783241"><ele>9.0</ele><time>2026-05-01T17:23:42.188Z</time></trkpt><trkpt lat="39.8331913" lon="9.6784212"><ele>9.0</ele><time>2026-05-01T17:23:43.187Z</time></trkpt><trkpt lat="39.8332728" lon="9.6785188"><ele>9.0</ele><time>2026-05-01T17:23:44.187Z</time></trkpt><trkpt lat="39.8333509" lon="9.6786161"><ele>9.0</ele><time>2026-05-01T17:23:45.187Z</time></trkpt><trkpt lat="39.8334257" lon="9.6787033"><ele>9.0</ele><time>2026-05-01T17:23:46.188Z</time></trkpt><trkpt lat="39.8335044" lon="9.6787756"><ele>9.0</ele><time>2026-05-01T17:23:47.187Z</time></trkpt><trkpt lat="39.8335817" lon="9.67883"><ele>9.0</ele><time>2026-05-01T17:23:48.187Z</time></trkpt><trkpt lat="39.833658" lon="9.6788693"><ele>9.0</ele><time>2026-05-01T17:23:49.187Z</time></trkpt><trkpt lat="39.8337332" lon="9.6788867"><ele>9.0</ele><time>2026-05-01T17:23:50.187Z</time></trkpt><trkpt lat="39.8338051" lon="9.678886"><ele>9.0</ele><time>2026-05-01T17:23:51.188Z</time></trkpt><trkpt lat="39.8338732" lon="9.6788713"><ele>9.0</ele><time>2026-05-01T17:23:52.187Z</time></trkpt><trkpt lat="39.8339882" lon="9.6788642"><ele>9.0</ele><time>2026-05-01T17:23:54.187Z</time></trkpt><trkpt lat="39.8340543" lon="9.6789221"><ele>9.0</ele><time>2026-05-01T17:23:56.187Z</time></trkpt><trkpt lat="39.8340764" lon="9.6790273"><ele>9.0</ele><time>2026-05-01T17:24:03.188Z</time></trkpt><trkpt lat="39.8340281" lon="9.6791251"><ele>9.0</ele><time>2026-05-01T17:24:05.188Z</time></trkpt><trkpt lat="39.8339781" lon="9.6791768"><ele>9.0</ele><time>2026-05-01T17:24:06.188Z</time></trkpt><trkpt lat="39.8339188" lon="9.6792305"><ele>9.0</ele><time>2026-05-01T17:24:07.187Z</time></trkpt><trkpt lat="39.8338614" lon="9.6792785"><ele>9.0</ele><time>2026-05-01T17:24:08.188Z</time></trkpt><trkpt lat="39.8338081" lon="9.6793222"><ele>9.0</ele><time>2026-05-01T17:24:09.188Z</time></trkpt><trkpt lat="39.8337166" lon="9.6794117"><ele>9.0</ele><time>2026-05-01T17:24:11.187Z</time></trkpt><trkpt lat="39.8336463" lon="9.6795052"><ele>9.0</ele><time>2026-05-01T17:24:13.188Z</time></trkpt><trkpt lat="39.8335769" lon="9.6795875"><ele>9.0</ele><time>2026-05-01T17:24:15.188Z</time></trkpt><trkpt lat="39.833485" lon="9.6796785"><ele>9.166666666666666</ele><time>2026-05-01T17:24:17.188Z</time></trkpt><trkpt lat="39.8333899" lon="9.6797338"><ele>9.333333333333334</ele><time>2026-05-01T17:24:19.188Z</time></trkpt><trkpt lat="39.8333059" lon="9.6797918"><ele>9.5</ele><time>2026-05-01T17:24:21.188Z</time></trkpt><trkpt lat="39.8331966" lon="9.6798531"><ele>9.666666666666668</ele><time>2026-05-01T17:24:23.188Z</time></trkpt><trkpt lat="39.8331354" lon="9.6798824"><ele>9.833333333333334</ele><time>2026-05-01T17:24:24.188Z</time></trkpt><trkpt lat="39.8330743" lon="9.6799121"><ele>10.0</ele><time>2026-05-01T17:24:25.187Z</time></trkpt><trkpt lat="39.8329655" lon="9.6799651"><ele>10.0</ele><time>2026-05-01T17:24:27.188Z</time></trkpt><trkpt lat="39.8328828" lon="9.6799964"><ele>10.0</ele><time>2026-05-01T17:24:29.188Z</time></trkpt><trkpt lat="39.8327975" lon="9.6800457"><ele>10.0</ele><time>2026-05-01T17:24:31.188Z</time></trkpt><trkpt lat="39.8326797" lon="9.6800951"><ele>10.0</ele><time>2026-05-01T17:24:33.187Z</time></trkpt><trkpt lat="39.8326157" lon="9.6801166"><ele>10.0</ele><time>2026-05-01T17:24:34.187Z</time></trkpt><trkpt lat="39.8325101" lon="9.6801485"><ele>9.833333333333334</ele><time>2026-05-01T17:24:36.187Z</time></trkpt><trkpt lat="39.8324444" lon="9.6801692"><ele>9.666666666666668</ele><time>2026-05-01T17:24:38.187Z</time></trkpt><trkpt lat="39.8323775" lon="9.6801887"><ele>9.5</ele><time>2026-05-01T17:24:40.187Z</time></trkpt><trkpt lat="39.8322651" lon="9.6802101"><ele>9.333333333333334</ele><time>2026-05-01T17:24:42.188Z</time></trkpt><trkpt lat="39.8321959" lon="9.6802297"><ele>9.166666666666666</ele><time>2026-05-01T17:24:43.187Z</time></trkpt><trkpt lat="39.8321181" lon="9.6802536"><ele>9.0</ele><time>2026-05-01T17:24:44.188Z</time></trkpt><trkpt lat="39.8320319" lon="9.6802802"><ele>8.4</ele><time>2026-05-01T17:24:45.188Z</time></trkpt><trkpt lat="39.831941" lon="9.6803087"><ele>7.800000000000001</ele><time>2026-05-01T17:24:46.188Z</time></trkpt><trkpt lat="39.831847" lon="9.6803415"><ele>7.199999999999999</ele><time>2026-05-01T17:24:47.188Z</time></trkpt><trkpt lat="39.8317565" lon="9.6803816"><ele>6.6</ele><time>2026-05-01T17:24:48.187Z</time></trkpt><trkpt lat="39.8316671" lon="9.6804302"><ele>6.0</ele><time>2026-05-01T17:24:49.188Z</time></trkpt><trkpt lat="39.8315784" lon="9.6804931"><ele>6.0</ele><time>2026-05-01T17:24:50.187Z</time></trkpt><trkpt lat="39.8314978" lon="9.6805537"><ele>6.0</ele><time>2026-05-01T17:24:51.187Z</time></trkpt><trkpt lat="39.8314202" lon="9.6806111"><ele>6.0</ele><time>2026-05-01T17:24:52.188Z</time></trkpt><trkpt lat="39.8313461" lon="9.6806649"><ele>6.0</ele><time>2026-05-01T17:24:53.188Z</time></trkpt><trkpt lat="39.8312759" lon="9.6807178"><ele>6.0</ele><time>2026-05-01T17:24:54.187Z</time></trkpt><trkpt lat="39.8312108" lon="9.6807677"><ele>6.0</ele><time>2026-05-01T17:24:55.187Z</time></trkpt><trkpt lat="39.8311468" lon="9.6808164"><ele>6.0</ele><time>2026-05-01T17:24:56.187Z</time></trkpt><trkpt lat="39.8310855" lon="9.6808621"><ele>6.0</ele><time>2026-05-01T17:24:57.188Z</time></trkpt><trkpt lat="39.8310287" lon="9.6809081"><ele>6.0</ele><time>2026-05-01T17:24:58.187Z</time></trkpt><trkpt lat="39.8309677" lon="9.6809559"><ele>6.0</ele><time>2026-05-01T17:24:59.188Z</time></trkpt><trkpt lat="39.830915" lon="9.6810062"><ele>6.0</ele><time>2026-05-01T17:25:00.188Z</time></trkpt><trkpt lat="39.8308236" lon="9.6811047"><ele>6.0</ele><time>2026-05-01T17:25:02.188Z</time></trkpt><trkpt lat="39.8307381" lon="9.6811713"><ele>6.142857142857142</ele><time>2026-05-01T17:25:04.187Z</time></trkpt><trkpt lat="39.8306695" lon="9.6811578"><ele>6.285714285714286</ele><time>2026-05-01T17:25:06.188Z</time></trkpt><trkpt lat="39.8306136" lon="9.6810722"><ele>6.428571428571429</ele><time>2026-05-01T17:25:14.187Z</time></trkpt><trkpt lat="39.8305875" lon="9.6809919"><ele>6.571428571428571</ele><time>2026-05-01T17:25:16.188Z</time></trkpt><trkpt lat="39.8305817" lon="9.6809016"><ele>6.714285714285714</ele><time>2026-05-01T17:25:18.188Z</time></trkpt><trkpt lat="39.8305809" lon="9.6808036"><ele>6.857142857142857</ele><time>2026-05-01T17:25:21.187Z</time></trkpt><trkpt lat="39.8305373" lon="9.6807277"><ele>7.0</ele><time>2026-05-01T17:25:32.188Z</time></trkpt><trkpt lat="39.8304931" lon="9.6806672"><ele>7.000000000000001</ele><time>2026-05-01T17:25:34.188Z</time></trkpt><trkpt lat="39.8304223" lon="9.680625"><ele>7.0</ele><time>2026-05-01T17:25:37.187Z</time></trkpt><trkpt lat="39.8303516" lon="9.6806421"><ele>7.0</ele><time>2026-05-01T17:25:40.187Z</time></trkpt><trkpt lat="39.8303016" lon="9.6807235"><ele>7.0</ele><time>2026-05-01T17:25:43.187Z</time></trkpt><trkpt lat="39.8302462" lon="9.6808121"><ele>7.000000000000001</ele><time>2026-05-01T17:25:46.188Z</time></trkpt><trkpt lat="39.8301648" lon="9.6807988"><ele>7.0</ele><time>2026-05-01T17:25:49.188Z</time></trkpt><trkpt lat="39.830099" lon="9.680717"><ele>7.166666666666667</ele><time>2026-05-01T17:25:51.187Z</time></trkpt><trkpt lat="39.8300112" lon="9.6806245"><ele>7.333333333333334</ele><time>2026-05-01T17:25:53.187Z</time></trkpt><trkpt lat="39.829951" lon="9.6805534"><ele>7.5</ele><time>2026-05-01T17:25:55.188Z</time></trkpt><trkpt lat="39.8299028" lon="9.6804662"><ele>7.666666666666666</ele><time>2026-05-01T17:25:58.187Z</time></trkpt><trkpt lat="39.8299263" lon="9.6803699"><ele>7.833333333333333</ele><time>2026-05-01T17:26:03.187Z</time></trkpt><trkpt lat="39.8299939" lon="9.6803166"><ele>8.0</ele><time>2026-05-01T17:26:05.187Z</time></trkpt><trkpt lat="39.8300631" lon="9.6802737"><ele>7.999999999999999</ele><time>2026-05-01T17:26:07.187Z</time></trkpt><trkpt lat="39.8301115" lon="9.6801517"><ele>8.0</ele><time>2026-05-01T17:32:09.181Z</time></trkpt><trkpt lat="39.8301056" lon="9.6802578"><ele>8.0</ele><time>2026-05-01T17:33:48.181Z</time></trkpt><trkpt lat="39.8300512" lon="9.6803181"><ele>8.0</ele><time>2026-05-01T17:33:54.182Z</time></trkpt><trkpt lat="39.8299887" lon="9.6802995"><ele>7.999999999999999</ele><time>2026-05-01T17:34:39.182Z</time></trkpt><trkpt lat="39.8300569" lon="9.68029"><ele>8.0</ele><time>2026-05-01T17:35:20.181Z</time></trkpt><trkpt lat="39.8301309" lon="9.6802928"><ele>7.857142857142857</ele><time>2026-05-01T17:35:55.14Z</time></trkpt><trkpt lat="39.8301964" lon="9.6802931"><ele>7.7142857142857135</ele><time>2026-05-01T17:35:59.182Z</time></trkpt><trkpt lat="39.8302599" lon="9.6803206"><ele>7.571428571428571</ele><time>2026-05-01T17:36:04.121Z</time></trkpt><trkpt lat="39.8302963" lon="9.6803937"><ele>7.428571428571429</ele><time>2026-05-01T17:36:09.157Z</time></trkpt><trkpt lat="39.8303331" lon="9.6804697"><ele>7.285714285714286</ele><time>2026-05-01T17:36:14.182Z</time></trkpt><trkpt lat="39.8303844" lon="9.6805326"><ele>7.142857142857142</ele><time>2026-05-01T17:36:19.182Z</time></trkpt><trkpt lat="39.8304431" lon="9.6805636"><ele>7.0</ele><time>2026-05-01T17:36:25.181Z</time></trkpt><trkpt lat="39.8305089" lon="9.680602"><ele>7.0</ele><time>2026-05-01T17:36:30.182Z</time></trkpt><trkpt lat="39.8305538" lon="9.6806691"><ele>7.0</ele><time>2026-05-01T17:36:35.182Z</time></trkpt><trkpt lat="39.8306169" lon="9.6806857"><ele>7.0</ele><time>2026-05-01T17:36:44.181Z</time></trkpt><trkpt lat="39.8306655" lon="9.680631"><ele>7.0</ele><time>2026-05-01T17:36:50.182Z</time></trkpt><trkpt lat="39.8307032" lon="9.6805553"><ele>7.0</ele><time>2026-05-01T17:36:56.081Z</time></trkpt><trkpt lat="39.8307284" lon="9.6804704"><ele>7.0</ele><time>2026-05-01T17:37:26.181Z</time></trkpt><trkpt lat="39.8307782" lon="9.6804135"><ele>7.0</ele><time>2026-05-01T17:37:32.183Z</time></trkpt><trkpt lat="39.8308466" lon="9.6804153"><ele>7.0</ele><time>2026-05-01T17:37:40.181Z</time></trkpt><trkpt lat="39.8307799" lon="9.6803981"><ele>7.0</ele><time>2026-05-01T17:39:15.182Z</time></trkpt><trkpt lat="39.8307175" lon="9.6803676"><ele>7.0</ele><time>2026-05-01T17:39:25.181Z</time></trkpt><trkpt lat="39.8306519" lon="9.6803615"><ele>7.0</ele><time>2026-05-01T17:39:32.182Z</time></trkpt><trkpt lat="39.8305813" lon="9.6803194"><ele>7.0</ele><time>2026-05-01T17:41:01.181Z</time></trkpt><trkpt lat="39.8305092" lon="9.6802912"><ele>7.0</ele><time>2026-05-01T17:41:33.143Z</time></trkpt><trkpt lat="39.8304787" lon="9.6802009"><ele>7.0</ele><time>2026-05-01T17:41:38.182Z</time></trkpt><trkpt lat="39.8305428" lon="9.6801724"><ele>7.0</ele><time>2026-05-01T17:41:54.181Z</time></trkpt><trkpt lat="39.830539" lon="9.6802543"><ele>7.0</ele><time>2026-05-01T17:42:01.182Z</time></trkpt><trkpt lat="39.8305398" lon="9.6803411"><ele>7.0</ele><time>2026-05-01T17:42:08.116Z</time></trkpt><trkpt lat="39.8304886" lon="9.6802846"><ele>7.0</ele><time>2026-05-01T17:42:35.182Z</time></trkpt><trkpt lat="39.830446" lon="9.6802225"><ele>7.0</ele><time>2026-05-01T17:42:51.103Z</time></trkpt><trkpt lat="39.8304382" lon="9.6803313"><ele>7.0</ele><time>2026-05-01T17:45:50.181Z</time></trkpt><trkpt lat="39.8304794" lon="9.6802678"><ele>7.0</ele><time>2026-05-01T18:12:37.182Z</time></trkpt><trkpt lat="39.8305421" lon="9.6802839"><ele>7.0</ele><time>2026-05-01T18:12:42.182Z</time></trkpt><trkpt lat="39.8305963" lon="9.6802228"><ele>7.0</ele><time>2026-05-01T18:12:49.181Z</time></trkpt><trkpt lat="39.830528" lon="9.6802424"><ele>7.0</ele><time>2026-05-01T18:12:55.182Z</time></trkpt><trkpt lat="39.8305735" lon="9.6803076"><ele>7.0</ele><time>2026-05-01T18:12:59.181Z</time></trkpt><trkpt lat="39.8305984" lon="9.6803829"><ele>7.0</ele><time>2026-05-01T18:13:04.181Z</time></trkpt><trkpt lat="39.8306197" lon="9.6804668"><ele>7.0</ele><time>2026-05-01T18:13:10.181Z</time></trkpt><trkpt lat="39.8306585" lon="9.6805446"><ele>7.0</ele><time>2026-05-01T18:13:17.181Z</time></trkpt><trkpt lat="39.8307082" lon="9.6806081"><ele>7.0</ele><time>2026-05-01T18:13:24.181Z</time></trkpt><trkpt lat="39.8307661" lon="9.6806461"><ele>7.0</ele><time>2026-05-01T18:13:32.182Z</time></trkpt><trkpt lat="39.830753" lon="9.6805553"><ele>7.0</ele><time>2026-05-01T18:13:57.181Z</time></trkpt></trkseg><trkseg><trkpt lat="39.8320639" lon="9.6800464"><ele>9.0</ele><time>2026-05-01T19:58:34.181Z</time></trkpt><trkpt lat="39.8320472" lon="9.6801262"><ele>9.0</ele><time>2026-05-01T19:59:03.182Z</time></trkpt></trkseg><trkseg><trkpt lat="39.8306997" lon="9.6812785"><ele>2.0</ele><time>2026-05-02T07:01:22.193Z</time></trkpt><trkpt lat="39.8307571" lon="9.6812135"><ele>1.9999999999999998</ele><time>2026-05-02T07:01:25.193Z</time></trkpt><trkpt lat="39.8308159" lon="9.681174"><ele>2.0</ele><time>2026-05-02T07:01:28.192Z</time></trkpt><trkpt lat="39.8308644" lon="9.6811181"><ele>2.0</ele><time>2026-05-02T07:01:32.193Z</time></trkpt><trkpt lat="39.8309072" lon="9.6810574"><ele>1.9999999999999998</ele><time>2026-05-02T07:01:36.193Z</time></trkpt><trkpt lat="39.8309564" lon="9.6809971"><ele>2.0</ele><time>2026-05-02T07:01:39.192Z</time></trkpt><trkpt lat="39.8310256" lon="9.6809257"><ele>2.0</ele><time>2026-05-02T07:01:43.192Z</time></trkpt><trkpt lat="39.8310807" lon="9.6808771"><ele>2.6666666666666665</ele><time>2026-05-02T07:01:45.192Z</time></trkpt><trkpt lat="39.8311439" lon="9.6808263"><ele>3.333333333333333</ele><time>2026-05-02T07:01:47.193Z</time></trkpt><trkpt lat="39.8312158" lon="9.680763"><ele>4.0</ele><time>2026-05-02T07:01:49.192Z</time></trkpt><trkpt lat="39.8312912" lon="9.6806993"><ele>4.666666666666667</ele><time>2026-05-02T07:01:51.193Z</time></trkpt><trkpt lat="39.8313719" lon="9.6806406"><ele>5.333333333333333</ele><time>2026-05-02T07:01:53.193Z</time></trkpt><trkpt lat="39.8314664" lon="9.680583"><ele>6.0</ele><time>2026-05-02T07:01:55.193Z</time></trkpt><trkpt lat="39.8315726" lon="9.6805086"><ele>6.0</ele><time>2026-05-02T07:01:57.193Z</time></trkpt><trkpt lat="39.831685" lon="9.6804368"><ele>6.0</ele><time>2026-05-02T07:01:59.192Z</time></trkpt><trkpt lat="39.8317476" lon="9.6804041"><ele>6.0</ele><time>2026-05-02T07:02:00.193Z</time></trkpt><trkpt lat="39.8318145" lon="9.6803735"><ele>6.0</ele><time>2026-05-02T07:02:01.193Z</time></trkpt><trkpt lat="39.8318824" lon="9.680347"><ele>6.0</ele><time>2026-05-02T07:02:02.193Z</time></trkpt><trkpt lat="39.8319452" lon="9.6803225"><ele>6.0</ele><time>2026-05-02T07:02:03.193Z</time></trkpt><trkpt lat="39.8320534" lon="9.6802872"><ele>6.6</ele><time>2026-05-02T07:02:05.192Z</time></trkpt><trkpt lat="39.8321502" lon="9.68026"><ele>7.199999999999999</ele><time>2026-05-02T07:02:07.192Z</time></trkpt><trkpt lat="39.8322323" lon="9.6802317"><ele>7.800000000000001</ele><time>2026-05-02T07:02:09.192Z</time></trkpt><trkpt lat="39.8323215" lon="9.680206"><ele>8.4</ele><time>2026-05-02T07:02:11.192Z</time></trkpt><trkpt lat="39.8324191" lon="9.6801874"><ele>9.0</ele><time>2026-05-02T07:02:13.193Z</time></trkpt><trkpt lat="39.8325155" lon="9.6801583"><ele>9.0</ele><time>2026-05-02T07:02:15.193Z</time></trkpt><trkpt lat="39.8326171" lon="9.6801271"><ele>9.0</ele><time>2026-05-02T07:02:17.192Z</time></trkpt><trkpt lat="39.8327214" lon="9.6800958"><ele>9.0</ele><time>2026-05-02T07:02:19.193Z</time></trkpt><trkpt lat="39.832829" lon="9.6800613"><ele>9.0</ele><time>2026-05-02T07:02:21.193Z</time></trkpt><trkpt lat="39.8329346" lon="9.6800322"><ele>9.0</ele><time>2026-05-02T07:02:23.193Z</time></trkpt><trkpt lat="39.8330445" lon="9.6799597"><ele>9.166666666666666</ele><time>2026-05-02T07:02:25.193Z</time></trkpt><trkpt lat="39.8331673" lon="9.6799038"><ele>9.333333333333334</ele><time>2026-05-02T07:02:27.193Z</time></trkpt><trkpt lat="39.8332356" lon="9.6798708"><ele>9.5</ele><time>2026-05-02T07:02:28.192Z</time></trkpt><trkpt lat="39.8333059" lon="9.6798372"><ele>9.666666666666668</ele><time>2026-05-02T07:02:29.193Z</time></trkpt><trkpt lat="39.8333792" lon="9.6797962"><ele>9.833333333333334</ele><time>2026-05-02T07:02:30.192Z</time></trkpt><trkpt lat="39.833448" lon="9.6797403"><ele>10.0</ele><time>2026-05-02T07:02:31.192Z</time></trkpt><trkpt lat="39.8335204" lon="9.6796803"><ele>10.0</ele><time>2026-05-02T07:02:32.192Z</time></trkpt><trkpt lat="39.8335898" lon="9.6796197"><ele>10.0</ele><time>2026-05-02T07:02:33.192Z</time></trkpt><trkpt lat="39.8336543" lon="9.6795546"><ele>10.0</ele><time>2026-05-02T07:02:34.192Z</time></trkpt><trkpt lat="39.8337116" lon="9.67949"><ele>10.0</ele><time>2026-05-02T07:02:35.193Z</time></trkpt><trkpt lat="39.8337664" lon="9.6794276"><ele>10.0</ele><time>2026-05-02T07:02:36.193Z</time></trkpt><trkpt lat="39.8338225" lon="9.6793561"><ele>10.0</ele><time>2026-05-02T07:02:37.192Z</time></trkpt><trkpt lat="39.8338824" lon="9.6792835"><ele>9.833333333333334</ele><time>2026-05-02T07:02:38.193Z</time></trkpt><trkpt lat="39.8339428" lon="9.6792096"><ele>9.666666666666668</ele><time>2026-05-02T07:02:39.193Z</time></trkpt><trkpt lat="39.8340087" lon="9.6791372"><ele>9.5</ele><time>2026-05-02T07:02:40.192Z</time></trkpt><trkpt lat="39.8340766" lon="9.679063"><ele>9.333333333333334</ele><time>2026-05-02T07:02:41.192Z</time></trkpt><trkpt lat="39.8341433" lon="9.6789893"><ele>9.166666666666666</ele><time>2026-05-02T07:02:42.192Z</time></trkpt><trkpt lat="39.8342143" lon="9.67891"><ele>9.0</ele><time>2026-05-02T07:02:43.193Z</time></trkpt><trkpt lat="39.8342861" lon="9.6788335"><ele>9.0</ele><time>2026-05-02T07:02:44.192Z</time></trkpt><trkpt lat="39.8343543" lon="9.6787625"><ele>9.0</ele><time>2026-05-02T07:02:45.193Z</time></trkpt><trkpt lat="39.8344169" lon="9.6786939"><ele>9.0</ele><time>2026-05-02T07:02:46.192Z</time></trkpt><trkpt lat="39.8344753" lon="9.6786243"><ele>9.0</ele><time>2026-05-02T07:02:47.192Z</time></trkpt><trkpt lat="39.8345328" lon="9.6785572"><ele>9.0</ele><time>2026-05-02T07:02:48.193Z</time></trkpt><trkpt lat="39.8345948" lon="9.6784871"><ele>9.0</ele><time>2026-05-02T07:02:49.193Z</time></trkpt><trkpt lat="39.8346622" lon="9.6784125"><ele>9.0</ele><time>2026-05-02T07:02:50.193Z</time></trkpt><trkpt lat="39.8347315" lon="9.6783348"><ele>9.0</ele><time>2026-05-02T07:02:51.193Z</time></trkpt><trkpt lat="39.8348027" lon="9.6782571"><ele>9.0</ele><time>2026-05-02T07:02:52.192Z</time></trkpt><trkpt lat="39.8348817" lon="9.6781754"><ele>9.0</ele><time>2026-05-02T07:02:53.193Z</time></trkpt><trkpt lat="39.8349606" lon="9.678093"><ele>9.0</ele><time>2026-05-02T07:02:54.192Z</time></trkpt><trkpt lat="39.8350378" lon="9.6780116"><ele>9.0</ele><time>2026-05-02T07:02:55.192Z</time></trkpt><trkpt lat="39.835108" lon="9.6779301"><ele>9.0</ele><time>2026-05-02T07:02:56.193Z</time></trkpt><trkpt lat="39.8351747" lon="9.6778544"><ele>9.0</ele><time>2026-05-02T07:02:57.192Z</time></trkpt><trkpt lat="39.8352427" lon="9.6777791"><ele>9.0</ele><time>2026-05-02T07:02:58.193Z</time></trkpt><trkpt lat="39.8353096" lon="9.6776998"><ele>9.0</ele><time>2026-05-02T07:02:59.192Z</time></trkpt><trkpt lat="39.8353783" lon="9.6776199"><ele>8.8</ele><time>2026-05-02T07:03:00.192Z</time></trkpt><trkpt lat="39.8354483" lon="9.6775394"><ele>8.600000000000001</ele><time>2026-05-02T07:03:01.192Z</time></trkpt><trkpt lat="39.8355201" lon="9.6774544"><ele>8.4</ele><time>2026-05-02T07:03:02.192Z</time></trkpt><trkpt lat="39.8355944" lon="9.6773668"><ele>8.200000000000001</ele><time>2026-05-02T07:03:03.193Z</time></trkpt><trkpt lat="39.8356713" lon="9.6772846"><ele>8.0</ele><time>2026-05-02T07:03:04.193Z</time></trkpt><trkpt lat="39.8357501" lon="9.677194"><ele>8.0</ele><time>2026-05-02T07:03:05.193Z</time></trkpt><trkpt lat="39.8358321" lon="9.6771049"><ele>8.0</ele><time>2026-05-02T07:03:06.192Z</time></trkpt><trkpt lat="39.8359171" lon="9.6770109"><ele>8.0</ele><time>2026-05-02T07:03:07.192Z</time></trkpt><trkpt lat="39.8360056" lon="9.6769155"><ele>8.0</ele><time>2026-05-02T07:03:08.192Z</time></trkpt><trkpt lat="39.8360934" lon="9.6768196"><ele>8.0</ele><time>2026-05-02T07:03:09.193Z</time></trkpt><trkpt lat="39.8361819" lon="9.6767221"><ele>7.6000000000000005</ele><time>2026-05-02T07:03:10.192Z</time></trkpt><trkpt lat="39.8362678" lon="9.6766224"><ele>7.200000000000001</ele><time>2026-05-02T07:03:11.193Z</time></trkpt><trkpt lat="39.8363514" lon="9.6765253"><ele>6.8</ele><time>2026-05-02T07:03:12.193Z</time></trkpt><trkpt lat="39.8364359" lon="9.6764353"><ele>6.4</ele><time>2026-05-02T07:03:13.193Z</time></trkpt><trkpt lat="39.8365147" lon="9.6763469"><ele>6.0</ele><time>2026-05-02T07:03:14.193Z</time></trkpt><trkpt lat="39.8365914" lon="9.6762687"><ele>6.0</ele><time>2026-05-02T07:03:15.192Z</time></trkpt><trkpt lat="39.8366659" lon="9.676198"><ele>6.0</ele><time>2026-05-02T07:03:16.193Z</time></trkpt><trkpt lat="39.8367266" lon="9.6761312"><ele>6.0</ele><time>2026-05-02T07:03:17.193Z</time></trkpt><trkpt lat="39.836778" lon="9.6760704"><ele>6.0</ele><time>2026-05-02T07:03:18.193Z</time></trkpt><trkpt lat="39.8368467" lon="9.6759953"><ele>6.0</ele><time>2026-05-02T07:03:20.192Z</time></trkpt><trkpt lat="39.8369167" lon="9.6759187"><ele>6.0</ele><time>2026-05-02T07:03:28.193Z</time></trkpt><trkpt lat="39.8369654" lon="9.6758579"><ele>5.8</ele><time>2026-05-02T07:03:29.192Z</time></trkpt><trkpt lat="39.8370293" lon="9.6757816"><ele>5.6</ele><time>2026-05-02T07:03:30.192Z</time></trkpt><trkpt lat="39.8371082" lon="9.6756931"><ele>5.4</ele><time>2026-05-02T07:03:31.193Z</time></trkpt><trkpt lat="39.8371932" lon="9.6755945"><ele>5.2</ele><time>2026-05-02T07:03:32.193Z</time></trkpt><trkpt lat="39.8372836" lon="9.6754921"><ele>5.0</ele><time>2026-05-02T07:03:33.193Z</time></trkpt><trkpt lat="39.8373765" lon="9.6753846"><ele>5.0</ele><time>2026-05-02T07:03:34.193Z</time></trkpt><trkpt lat="39.8374714" lon="9.6752786"><ele>5.0</ele><time>2026-05-02T07:03:35.193Z</time></trkpt><trkpt lat="39.83757" lon="9.6751677"><ele>5.0</ele><time>2026-05-02T07:03:36.192Z</time></trkpt><trkpt lat="39.8376686" lon="9.6750565"><ele>5.0</ele><time>2026-05-02T07:03:37.193Z</time></trkpt><trkpt lat="39.8377715" lon="9.674941"><ele>6.0</ele><time>2026-05-02T07:03:38.192Z</time></trkpt><trkpt lat="39.8378707" lon="9.6748267"><ele>7.0</ele><time>2026-05-02T07:03:39.192Z</time></trkpt><trkpt lat="39.8379739" lon="9.6747101"><ele>8.0</ele><time>2026-05-02T07:03:40.193Z</time></trkpt><trkpt lat="39.8380771" lon="9.6745892"><ele>9.0</ele><time>2026-05-02T07:03:41.193Z</time></trkpt><trkpt lat="39.8381817" lon="9.67447"><ele>9.0</ele><time>2026-05-02T07:03:42.193Z</time></trkpt><trkpt lat="39.8382873" lon="9.6743526"><ele>9.0</ele><time>2026-05-02T07:03:43.193Z</time></trkpt><trkpt lat="39.8383925" lon="9.6742351"><ele>9.0</ele><time>2026-05-02T07:03:44.193Z</time></trkpt><trkpt lat="39.8384955" lon="9.6741206"><ele>9.0</ele><time>2026-05-02T07:03:45.193Z</time></trkpt><trkpt lat="39.8385946" lon="9.6740022"><ele>9.0</ele><time>2026-05-02T07:03:46.192Z</time></trkpt><trkpt lat="39.8386872" lon="9.6739013"><ele>9.0</ele><time>2026-05-02T07:03:47.192Z</time></trkpt><trkpt lat="39.8387753" lon="9.6738025"><ele>9.0</ele><time>2026-05-02T07:03:48.192Z</time></trkpt><trkpt lat="39.8388599" lon="9.6737109"><ele>9.0</ele><time>2026-05-02T07:03:49.193Z</time></trkpt><trkpt lat="39.8389409" lon="9.6736225"><ele>10.5</ele><time>2026-05-02T07:03:50.192Z</time></trkpt><trkpt lat="39.839023" lon="9.6735315"><ele>12.0</ele><time>2026-05-02T07:03:51.193Z</time></trkpt><trkpt lat="39.8391099" lon="9.6734364"><ele>13.5</ele><time>2026-05-02T07:03:52.193Z</time></trkpt><trkpt lat="39.8391998" lon="9.6733317"><ele>15.0</ele><time>2026-05-02T07:03:53.193Z</time></trkpt><trkpt lat="39.8392862" lon="9.6732338"><ele>15.4</ele><time>2026-05-02T07:03:54.193Z</time></trkpt><trkpt lat="39.8393699" lon="9.6731387"><ele>15.8</ele><time>2026-05-02T07:03:55.193Z</time></trkpt><trkpt lat="39.8394564" lon="9.6730488"><ele>16.2</ele><time>2026-05-02T07:03:56.193Z</time></trkpt><trkpt lat="39.8395409" lon="9.6729553"><ele>16.6</ele><time>2026-05-02T07:03:57.193Z</time></trkpt><trkpt lat="39.8396279" lon="9.6728573"><ele>17.0</ele><time>2026-05-02T07:03:58.192Z</time></trkpt><trkpt lat="39.8397159" lon="9.6727574"><ele>17.0</ele><time>2026-05-02T07:03:59.193Z</time></trkpt><trkpt lat="39.8398093" lon="9.6726548"><ele>17.0</ele><time>2026-05-02T07:04:00.192Z</time></trkpt><trkpt lat="39.8399081" lon="9.6725476"><ele>17.0</ele><time>2026-05-02T07:04:01.193Z</time></trkpt><trkpt lat="39.8400008" lon="9.6724406"><ele>17.0</ele><time>2026-05-02T07:04:02.192Z</time></trkpt><trkpt lat="39.8400938" lon="9.6723358"><ele>17.5</ele><time>2026-05-02T07:04:03.193Z</time></trkpt><trkpt lat="39.8401836" lon="9.6722319"><ele>18.0</ele><time>2026-05-02T07:04:04.193Z</time></trkpt><trkpt lat="39.8402748" lon="9.6721294"><ele>18.5</ele><time>2026-05-02T07:04:05.192Z</time></trkpt><trkpt lat="39.8403644" lon="9.6720301"><ele>19.0</ele><time>2026-05-02T07:04:06.192Z</time></trkpt><trkpt lat="39.8404522" lon="9.6719312"><ele>19.0</ele><time>2026-05-02T07:04:07.193Z</time></trkpt><trkpt lat="39.840542" lon="9.6718358"><ele>19.0</ele><time>2026-05-02T07:04:08.193Z</time></trkpt><trkpt lat="39.8406306" lon="9.6717382"><ele>19.0</ele><time>2026-05-02T07:04:09.193Z</time></trkpt><trkpt lat="39.8407191" lon="9.6716362"><ele>19.0</ele><time>2026-05-02T07:04:10.193Z</time></trkpt><trkpt lat="39.8408126" lon="9.6715358"><ele>19.0</ele><time>2026-05-02T07:04:11.192Z</time></trkpt><trkpt lat="39.8408999" lon="9.6714338"><ele>19.0</ele><time>2026-05-02T07:04:12.192Z</time></trkpt><trkpt lat="39.8409906" lon="9.6713315"><ele>19.0</ele><time>2026-05-02T07:04:13.192Z</time></trkpt><trkpt lat="39.8410795" lon="9.6712322"><ele>19.0</ele><time>2026-05-02T07:04:14.192Z</time></trkpt><trkpt lat="39.841171" lon="9.6711327"><ele>19.25</ele><time>2026-05-02T07:04:15.193Z</time></trkpt><trkpt lat="39.8412596" lon="9.6710293"><ele>19.5</ele><time>2026-05-02T07:04:16.193Z</time></trkpt><trkpt lat="39.8413507" lon="9.6709249"><ele>19.75</ele><time>2026-05-02T07:04:17.192Z</time></trkpt><trkpt lat="39.8414408" lon="9.6708178"><ele>20.0</ele><time>2026-05-02T07:04:18.192Z</time></trkpt><trkpt lat="39.8415323" lon="9.6707145"><ele>20.0</ele><time>2026-05-02T07:04:19.193Z</time></trkpt><trkpt lat="39.841619" lon="9.6706112"><ele>20.0</ele><time>2026-05-02T07:04:20.192Z</time></trkpt><trkpt lat="39.8417109" lon="9.6705075"><ele>20.0</ele><time>2026-05-02T07:04:21.192Z</time></trkpt><trkpt lat="39.8417999" lon="9.6704011"><ele>20.0</ele><time>2026-05-02T07:04:22.193Z</time></trkpt><trkpt lat="39.8418897" lon="9.6703008"><ele>19.5</ele><time>2026-05-02T07:04:23.193Z</time></trkpt><trkpt lat="39.8419813" lon="9.6701975"><ele>19.0</ele><time>2026-05-02T07:04:24.193Z</time></trkpt><trkpt lat="39.8420687" lon="9.670096"><ele>18.5</ele><time>2026-05-02T07:04:25.192Z</time></trkpt><trkpt lat="39.8421558" lon="9.669994"><ele>18.0</ele><time>2026-05-02T07:04:26.192Z</time></trkpt><trkpt lat="39.842249" lon="9.6698932"><ele>18.0</ele><time>2026-05-02T07:04:27.192Z</time></trkpt><trkpt lat="39.8423361" lon="9.6697928"><ele>18.0</ele><time>2026-05-02T07:04:28.193Z</time></trkpt><trkpt lat="39.8424259" lon="9.6696923"><ele>18.0</ele><time>2026-05-02T07:04:29.192Z</time></trkpt><trkpt lat="39.842519" lon="9.6695936"><ele>18.0</ele><time>2026-05-02T07:04:30.193Z</time></trkpt><trkpt lat="39.8426096" lon="9.669496"><ele>18.5</ele><time>2026-05-02T07:04:31.193Z</time></trkpt><trkpt lat="39.8427034" lon="9.669398"><ele>19.0</ele><time>2026-05-02T07:04:32.192Z</time></trkpt><trkpt lat="39.8428142" lon="9.6692994"><ele>19.5</ele><time>2026-05-02T07:04:33.192Z</time></trkpt><trkpt lat="39.8429235" lon="9.6691928"><ele>20.0</ele><time>2026-05-02T07:04:34.193Z</time></trkpt><trkpt lat="39.8430337" lon="9.6690819"><ele>20.0</ele><time>2026-05-02T07:04:35.192Z</time></trkpt><trkpt lat="39.8431502" lon="9.6689628"><ele>20.0</ele><time>2026-05-02T07:04:36.193Z</time></trkpt><trkpt lat="39.8432622" lon="9.6688289"><ele>20.0</ele><time>2026-05-02T07:04:37.192Z</time></trkpt><trkpt lat="39.8433693" lon="9.6686793"><ele>17.333333333333336</ele><time>2026-05-02T07:04:38.192Z</time></trkpt><trkpt lat="39.8434762" lon="9.6685202"><ele>14.666666666666668</ele><time>2026-05-02T07:04:39.192Z</time></trkpt><trkpt lat="39.8435802" lon="9.6683478"><ele>12.0</ele><time>2026-05-02T07:04:40.193Z</time></trkpt><trkpt lat="39.8436881" lon="9.6681652"><ele>12.0</ele><time>2026-05-02T07:04:41.192Z</time></trkpt><trkpt lat="39.8437962" lon="9.667968"><ele>12.0</ele><time>2026-05-02T07:04:42.192Z</time></trkpt><trkpt lat="39.8439141" lon="9.6677724"><ele>12.0</ele><time>2026-05-02T07:04:43.192Z</time></trkpt><trkpt lat="39.8440298" lon="9.6675728"><ele>12.0</ele><time>2026-05-02T07:04:44.192Z</time></trkpt><trkpt lat="39.8441494" lon="9.6673715"><ele>12.0</ele><time>2026-05-02T07:04:45.192Z</time></trkpt><trkpt lat="39.8442677" lon="9.6671694"><ele>12.0</ele><time>2026-05-02T07:04:46.193Z</time></trkpt><trkpt lat="39.8443872" lon="9.6669614"><ele>12.0</ele><time>2026-05-02T07:04:47.192Z</time></trkpt><trkpt lat="39.8445059" lon="9.6667603"><ele>12.0</ele><time>2026-05-02T07:04:48.192Z</time></trkpt><trkpt lat="39.844619" lon="9.6665691"><ele>12.0</ele><time>2026-05-02T07:04:49.192Z</time></trkpt><trkpt lat="39.8447147" lon="9.6663897"><ele>12.0</ele><time>2026-05-02T07:04:50.192Z</time></trkpt><trkpt lat="39.8447897" lon="9.6662081"><ele>12.0</ele><time>2026-05-02T07:04:51.192Z</time></trkpt><trkpt lat="39.8448366" lon="9.6660259"><ele>12.0</ele><time>2026-05-02T07:04:52.192Z</time></trkpt><trkpt lat="39.8448569" lon="9.6658374"><ele>14.0</ele><time>2026-05-02T07:04:53.193Z</time></trkpt><trkpt lat="39.8448599" lon="9.66564"><ele>16.0</ele><time>2026-05-02T07:04:54.192Z</time></trkpt><trkpt lat="39.8448466" lon="9.6654411"><ele>18.0</ele><time>2026-05-02T07:04:55.192Z</time></trkpt><trkpt lat="39.8448325" lon="9.6652522"><ele>18.0</ele><time>2026-05-02T07:04:56.193Z</time></trkpt><trkpt lat="39.8448315" lon="9.6650762"><ele>18.0</ele><time>2026-05-02T07:04:57.193Z</time></trkpt><trkpt lat="39.8448617" lon="9.6649141"><ele>18.0</ele><time>2026-05-02T07:04:58.192Z</time></trkpt><trkpt lat="39.8449263" lon="9.6647764"><ele>18.0</ele><time>2026-05-02T07:04:59.193Z</time></trkpt><trkpt lat="39.845018" lon="9.6646556"><ele>18.0</ele><time>2026-05-02T07:05:00.192Z</time></trkpt><trkpt lat="39.8451283" lon="9.6645324"><ele>18.0</ele><time>2026-05-02T07:05:01.192Z</time></trkpt><trkpt lat="39.8452505" lon="9.6644006"><ele>18.0</ele><time>2026-05-02T07:05:02.192Z</time></trkpt><trkpt lat="39.8453661" lon="9.6642703"><ele>18.0</ele><time>2026-05-02T07:05:03.193Z</time></trkpt><trkpt lat="39.8454897" lon="9.6641614"><ele>18.0</ele><time>2026-05-02T07:05:04.192Z</time></trkpt><trkpt lat="39.8456198" lon="9.6640701"><ele>18.0</ele><time>2026-05-02T07:05:05.192Z</time></trkpt><trkpt lat="39.8457552" lon="9.6639891"><ele>18.0</ele><time>2026-05-02T07:05:06.192Z</time></trkpt><trkpt lat="39.8458908" lon="9.6639108"><ele>16.5</ele><time>2026-05-02T07:05:07.193Z</time></trkpt><trkpt lat="39.8460185" lon="9.6638383"><ele>15.0</ele><time>2026-05-02T07:05:08.192Z</time></trkpt><trkpt lat="39.8461371" lon="9.6637581"><ele>13.5</ele><time>2026-05-02T07:05:09.192Z</time></trkpt><trkpt lat="39.8462074" lon="9.6636301"><ele>12.0</ele><time>2026-05-02T07:05:10.192Z</time></trkpt><trkpt lat="39.8462563" lon="9.663489"><ele>12.0</ele><time>2026-05-02T07:05:11.193Z</time></trkpt><trkpt lat="39.8462697" lon="9.663338"><ele>12.0</ele><time>2026-05-02T07:05:12.192Z</time></trkpt><trkpt lat="39.8462427" lon="9.6631916"><ele>12.0</ele><time>2026-05-02T07:05:13.192Z</time></trkpt><trkpt lat="39.8461854" lon="9.6630545"><ele>12.0</ele><time>2026-05-02T07:05:14.193Z</time></trkpt><trkpt lat="39.8461046" lon="9.6629211"><ele>12.0</ele><time>2026-05-02T07:05:15.193Z</time></trkpt><trkpt lat="39.8460086" lon="9.6627861"><ele>12.0</ele><time>2026-05-02T07:05:16.193Z</time></trkpt><trkpt lat="39.8459015" lon="9.6626391"><ele>12.0</ele><time>2026-05-02T07:05:17.192Z</time></trkpt><trkpt lat="39.8457901" lon="9.6624832"><ele>15.333333333333332</ele><time>2026-05-02T07:05:18.192Z</time></trkpt><trkpt lat="39.8456742" lon="9.6623126"><ele>18.666666666666664</ele><time>2026-05-02T07:05:19.192Z</time></trkpt><trkpt lat="39.8455551" lon="9.6621409"><ele>22.0</ele><time>2026-05-02T07:05:20.192Z</time></trkpt><trkpt lat="39.8454398" lon="9.6619651"><ele>19.0</ele><time>2026-05-02T07:05:21.193Z</time></trkpt><trkpt lat="39.8453303" lon="9.6617801"><ele>16.0</ele><time>2026-05-02T07:05:22.193Z</time></trkpt><trkpt lat="39.8452285" lon="9.6615869"><ele>13.0</ele><time>2026-05-02T07:05:23.192Z</time></trkpt><trkpt lat="39.8451345" lon="9.6613828"><ele>15.333333333333332</ele><time>2026-05-02T07:05:24.192Z</time></trkpt><trkpt lat="39.8450427" lon="9.6611724"><ele>17.666666666666668</ele><time>2026-05-02T07:05:25.193Z</time></trkpt><trkpt lat="39.8449598" lon="9.6609537"><ele>20.0</ele><time>2026-05-02T07:05:26.193Z</time></trkpt><trkpt lat="39.8448729" lon="9.6607318"><ele>20.0</ele><time>2026-05-02T07:05:27.192Z</time></trkpt><trkpt lat="39.844782" lon="9.6605023"><ele>20.0</ele><time>2026-05-02T07:05:28.193Z</time></trkpt><trkpt lat="39.8446858" lon="9.6602689"><ele>20.0</ele><time>2026-05-02T07:05:29.192Z</time></trkpt><trkpt lat="39.8445908" lon="9.6600378"><ele>19.666666666666668</ele><time>2026-05-02T07:05:30.192Z</time></trkpt><trkpt lat="39.8444952" lon="9.6598066"><ele>19.333333333333332</ele><time>2026-05-02T07:05:31.193Z</time></trkpt><trkpt lat="39.8444076" lon="9.659586"><ele>19.0</ele><time>2026-05-02T07:05:32.192Z</time></trkpt><trkpt lat="39.8443242" lon="9.6593649"><ele>22.0</ele><time>2026-05-02T07:05:33.193Z</time></trkpt><trkpt lat="39.8442465" lon="9.6591423"><ele>25.0</ele><time>2026-05-02T07:05:34.192Z</time></trkpt><trkpt lat="39.8441716" lon="9.6589199"><ele>28.0</ele><time>2026-05-02T07:05:35.192Z</time></trkpt><trkpt lat="39.8441118" lon="9.6587013"><ele>28.666666666666668</ele><time>2026-05-02T07:05:36.193Z</time></trkpt><trkpt lat="39.8440738" lon="9.6584811"><ele>29.333333333333336</ele><time>2026-05-02T07:05:37.193Z</time></trkpt><trkpt lat="39.844052" lon="9.6582629"><ele>30.0</ele><time>2026-05-02T07:05:38.193Z</time></trkpt><trkpt lat="39.8440442" lon="9.6580559"><ele>30.0</ele><time>2026-05-02T07:05:39.193Z</time></trkpt><trkpt lat="39.8440665" lon="9.6578616"><ele>30.0</ele><time>2026-05-02T07:05:40.193Z</time></trkpt><trkpt lat="39.8441086" lon="9.6576832"><ele>30.0</ele><time>2026-05-02T07:05:41.192Z</time></trkpt><trkpt lat="39.8441537" lon="9.6574995"><ele>30.0</ele><time>2026-05-02T07:05:42.193Z</time></trkpt><trkpt lat="39.8441775" lon="9.6573099"><ele>30.25</ele><time>2026-05-02T07:05:43.192Z</time></trkpt><trkpt lat="39.8441894" lon="9.6571174"><ele>30.5</ele><time>2026-05-02T07:05:44.193Z</time></trkpt><trkpt lat="39.8441355" lon="9.6569313"><ele>30.75</ele><time>2026-05-02T07:05:45.192Z</time></trkpt><trkpt lat="39.8441032" lon="9.6567704"><ele>31.0</ele><time>2026-05-02T07:05:46.193Z</time></trkpt><trkpt lat="39.8440899" lon="9.6566339"><ele>31.200000000000003</ele><time>2026-05-02T07:05:47.192Z</time></trkpt><trkpt lat="39.8441102" lon="9.656526"><ele>31.400000000000002</ele><time>2026-05-02T07:05:48.192Z</time></trkpt><trkpt lat="39.8441578" lon="9.6564336"><ele>31.6</ele><time>2026-05-02T07:05:49.193Z</time></trkpt><trkpt lat="39.8442371" lon="9.656355"><ele>31.8</ele><time>2026-05-02T07:05:50.192Z</time></trkpt><trkpt lat="39.8443463" lon="9.6562677"><ele>32.0</ele><time>2026-05-02T07:05:51.192Z</time></trkpt><trkpt lat="39.8444817" lon="9.6561638"><ele>30.333333333333332</ele><time>2026-05-02T07:05:52.193Z</time></trkpt><trkpt lat="39.8446233" lon="9.6560454"><ele>28.666666666666664</ele><time>2026-05-02T07:05:53.193Z</time></trkpt><trkpt lat="39.8447795" lon="9.6559158"><ele>27.0</ele><time>2026-05-02T07:05:54.193Z</time></trkpt><trkpt lat="39.844947" lon="9.6557745"><ele>27.0</ele><time>2026-05-02T07:05:55.193Z</time></trkpt><trkpt lat="39.845115" lon="9.6556359"><ele>27.0</ele><time>2026-05-02T07:05:56.193Z</time></trkpt><trkpt lat="39.8452758" lon="9.6555028"><ele>27.0</ele><time>2026-05-02T07:05:57.192Z</time></trkpt><trkpt lat="39.8454076" lon="9.6553794"><ele>25.666666666666668</ele><time>2026-05-02T07:05:58.193Z</time></trkpt><trkpt lat="39.8455285" lon="9.6552309"><ele>24.333333333333336</ele><time>2026-05-02T07:05:59.192Z</time></trkpt><trkpt lat="39.8456462" lon="9.655073"><ele>23.0</ele><time>2026-05-02T07:06:00.193Z</time></trkpt><trkpt lat="39.845696" lon="9.6548706"><ele>23.0</ele><time>2026-05-02T07:06:01.193Z</time></trkpt><trkpt lat="39.8457267" lon="9.6546621"><ele>23.0</ele><time>2026-05-02T07:06:02.193Z</time></trkpt><trkpt lat="39.8457279" lon="9.6544424"><ele>23.0</ele><time>2026-05-02T07:06:03.192Z</time></trkpt><trkpt lat="39.8456958" lon="9.6542129"><ele>23.333333333333336</ele><time>2026-05-02T07:06:04.193Z</time></trkpt><trkpt lat="39.8456508" lon="9.6539703"><ele>23.666666666666668</ele><time>2026-05-02T07:06:05.193Z</time></trkpt><trkpt lat="39.8456012" lon="9.65372"><ele>24.0</ele><time>2026-05-02T07:06:06.192Z</time></trkpt><trkpt lat="39.8455566" lon="9.6534828"><ele>24.0</ele><time>2026-05-02T07:06:07.193Z</time></trkpt><trkpt lat="39.8455138" lon="9.6532645"><ele>24.0</ele><time>2026-05-02T07:06:08.193Z</time></trkpt><trkpt lat="39.8454723" lon="9.6530641"><ele>24.0</ele><time>2026-05-02T07:06:09.192Z</time></trkpt><trkpt lat="39.8454158" lon="9.6528667"><ele>23.333333333333332</ele><time>2026-05-02T07:06:10.193Z</time></trkpt><trkpt lat="39.845339" lon="9.652684"><ele>22.666666666666664</ele><time>2026-05-02T07:06:11.193Z</time></trkpt><trkpt lat="39.8452404" lon="9.6525208"><ele>22.0</ele><time>2026-05-02T07:06:12.193Z</time></trkpt><trkpt lat="39.8451191" lon="9.652371"><ele>26.333333333333332</ele><time>2026-05-02T07:06:13.193Z</time></trkpt><trkpt lat="39.844986" lon="9.6522368"><ele>30.666666666666664</ele><time>2026-05-02T07:06:14.192Z</time></trkpt><trkpt lat="39.8448425" lon="9.6521008"><ele>35.0</ele><time>2026-05-02T07:06:15.193Z</time></trkpt><trkpt lat="39.8446946" lon="9.651962"><ele>33.33333333333333</ele><time>2026-05-02T07:06:16.192Z</time></trkpt><trkpt lat="39.8445493" lon="9.6518185"><ele>31.666666666666664</ele><time>2026-05-02T07:06:17.192Z</time></trkpt><trkpt lat="39.8444081" lon="9.6516852"><ele>30.0</ele><time>2026-05-02T07:06:18.192Z</time></trkpt><trkpt lat="39.8442731" lon="9.6515593"><ele>30.0</ele><time>2026-05-02T07:06:19.192Z</time></trkpt><trkpt lat="39.8441483" lon="9.6514463"><ele>30.0</ele><time>2026-05-02T07:06:20.193Z</time></trkpt><trkpt lat="39.8440363" lon="9.6513389"><ele>30.0</ele><time>2026-05-02T07:06:21.192Z</time></trkpt><trkpt lat="39.8439411" lon="9.6512172"><ele>30.0</ele><time>2026-05-02T07:06:22.192Z</time></trkpt><trkpt lat="39.8438724" lon="9.6510818"><ele>29.0</ele><time>2026-05-02T07:06:23.192Z</time></trkpt><trkpt lat="39.8438262" lon="9.6509281"><ele>28.0</ele><time>2026-05-02T07:06:24.193Z</time></trkpt><trkpt lat="39.8438135" lon="9.6507662"><ele>27.0</ele><time>2026-05-02T07:06:25.192Z</time></trkpt><trkpt lat="39.8438326" lon="9.6506014"><ele>26.0</ele><time>2026-05-02T07:06:26.193Z</time></trkpt><trkpt lat="39.8438836" lon="9.6504415"><ele>27.75</ele><time>2026-05-02T07:06:27.193Z</time></trkpt><trkpt lat="39.8439589" lon="9.6502875"><ele>29.5</ele><time>2026-05-02T07:06:28.192Z</time></trkpt><trkpt lat="39.8440469" lon="9.6501312"><ele>31.25</ele><time>2026-05-02T07:06:29.192Z</time></trkpt><trkpt lat="39.8441349" lon="9.6499754"><ele>33.0</ele><time>2026-05-02T07:06:30.192Z</time></trkpt><trkpt lat="39.8441948" lon="9.6498282"><ele>33.0</ele><time>2026-05-02T07:06:31.192Z</time></trkpt><trkpt lat="39.8442321" lon="9.6496718"><ele>33.0</ele><time>2026-05-02T07:06:32.192Z</time></trkpt><trkpt lat="39.8442429" lon="9.6495138"><ele>33.0</ele><time>2026-05-02T07:06:33.193Z</time></trkpt><trkpt lat="39.8442317" lon="9.6493617"><ele>33.0</ele><time>2026-05-02T07:06:34.192Z</time></trkpt><trkpt lat="39.8442051" lon="9.6491977"><ele>33.4</ele><time>2026-05-02T07:06:35.192Z</time></trkpt><trkpt lat="39.8441696" lon="9.6490462"><ele>33.8</ele><time>2026-05-02T07:06:36.193Z</time></trkpt><trkpt lat="39.8441335" lon="9.6489082"><ele>34.2</ele><time>2026-05-02T07:06:37.193Z</time></trkpt><trkpt lat="39.8441013" lon="9.6487959"><ele>34.6</ele><time>2026-05-02T07:06:38.192Z</time></trkpt><trkpt lat="39.844066" lon="9.6486777"><ele>35.0</ele><time>2026-05-02T07:06:39.192Z</time></trkpt><trkpt lat="39.8440239" lon="9.6485586"><ele>34.0</ele><time>2026-05-02T07:06:40.192Z</time></trkpt><trkpt lat="39.8439828" lon="9.648428"><ele>33.0</ele><time>2026-05-02T07:06:41.192Z</time></trkpt><trkpt lat="39.8439409" lon="9.6482936"><ele>32.0</ele><time>2026-05-02T07:06:42.192Z</time></trkpt><trkpt lat="39.843906" lon="9.6481776"><ele>31.0</ele><time>2026-05-02T07:06:43.192Z</time></trkpt><trkpt lat="39.8438765" lon="9.6480719"><ele>30.0</ele><time>2026-05-02T07:06:44.193Z</time></trkpt><trkpt lat="39.843853" lon="9.6479869"><ele>30.0</ele><time>2026-05-02T07:06:45.192Z</time></trkpt><trkpt lat="39.8438294" lon="9.6478966"><ele>30.0</ele><time>2026-05-02T07:06:46.193Z</time></trkpt><trkpt lat="39.843788" lon="9.6477574"><ele>30.0</ele><time>2026-05-02T07:06:48.193Z</time></trkpt><trkpt lat="39.8437521" lon="9.6476554"><ele>30.0</ele><time>2026-05-02T07:06:50.193Z</time></trkpt><trkpt lat="39.8437199" lon="9.6475691"><ele>30.0</ele><time>2026-05-02T07:06:52.192Z</time></trkpt><trkpt lat="39.8437402" lon="9.6474744"><ele>30.0</ele><time>2026-05-02T07:06:54.192Z</time></trkpt><trkpt lat="39.843822" lon="9.647407"><ele>30.0</ele><time>2026-05-02T07:06:56.193Z</time></trkpt><trkpt lat="39.8439308" lon="9.6473591"><ele>30.0</ele><time>2026-05-02T07:06:58.192Z</time></trkpt><trkpt lat="39.844026" lon="9.6472727"><ele>30.0</ele><time>2026-05-02T07:07:00.193Z</time></trkpt><trkpt lat="39.8440426" lon="9.6471516"><ele>30.0</ele><time>2026-05-02T07:07:02.192Z</time></trkpt><trkpt lat="39.843987" lon="9.6470301"><ele>30.0</ele><time>2026-05-02T07:07:04.193Z</time></trkpt><trkpt lat="39.8439616" lon="9.6469085"><ele>30.0</ele><time>2026-05-02T07:07:06.192Z</time></trkpt><trkpt lat="39.8440045" lon="9.6468196"><ele>30.0</ele><time>2026-05-02T07:07:08.192Z</time></trkpt><trkpt lat="39.844074" lon="9.6467627"><ele>30.0</ele><time>2026-05-02T07:07:10.192Z</time></trkpt><trkpt lat="39.8441397" lon="9.6467189"><ele>30.0</ele><time>2026-05-02T07:07:13.192Z</time></trkpt><trkpt lat="39.8441915" lon="9.6466644"><ele>30.0</ele><time>2026-05-02T07:07:16.193Z</time></trkpt><trkpt lat="39.8442095" lon="9.6465769"><ele>30.0</ele><time>2026-05-02T07:07:18.193Z</time></trkpt><trkpt lat="39.8441623" lon="9.6464445"><ele>30.0</ele><time>2026-05-02T07:07:20.193Z</time></trkpt><trkpt lat="39.84412" lon="9.6463525"><ele>30.0</ele><time>2026-05-02T07:07:21.192Z</time></trkpt><trkpt lat="39.8440703" lon="9.646247"><ele>30.0</ele><time>2026-05-02T07:07:22.193Z</time></trkpt><trkpt lat="39.8440132" lon="9.6461232"><ele>30.0</ele><time>2026-05-02T07:07:23.193Z</time></trkpt><trkpt lat="39.8439601" lon="9.6459955"><ele>30.0</ele><time>2026-05-02T07:07:24.193Z</time></trkpt><trkpt lat="39.8439081" lon="9.6458554"><ele>30.4</ele><time>2026-05-02T07:07:25.192Z</time></trkpt><trkpt lat="39.8438603" lon="9.6457268"><ele>30.8</ele><time>2026-05-02T07:07:26.193Z</time></trkpt><trkpt lat="39.8438159" lon="9.6456088"><ele>31.200000000000003</ele><time>2026-05-02T07:07:27.193Z</time></trkpt><trkpt lat="39.8437765" lon="9.6455025"><ele>31.6</ele><time>2026-05-02T07:07:28.192Z</time></trkpt><trkpt lat="39.843735" lon="9.6453964"><ele>32.0</ele><time>2026-05-02T07:07:29.193Z</time></trkpt><trkpt lat="39.8436948" lon="9.6452933"><ele>32.666666666666664</ele><time>2026-05-02T07:07:30.192Z</time></trkpt><trkpt lat="39.8436556" lon="9.6451935"><ele>33.33333333333333</ele><time>2026-05-02T07:07:31.192Z</time></trkpt><trkpt lat="39.8436205" lon="9.645095"><ele>34.0</ele><time>2026-05-02T07:07:32.192Z</time></trkpt><trkpt lat="39.8435845" lon="9.6449911"><ele>34.666666666666664</ele><time>2026-05-02T07:07:33.192Z</time></trkpt><trkpt lat="39.8435486" lon="9.6448881"><ele>35.333333333333336</ele><time>2026-05-02T07:07:34.193Z</time></trkpt><trkpt lat="39.843514" lon="9.6448024"><ele>36.0</ele><time>2026-05-02T07:07:35.192Z</time></trkpt><trkpt lat="39.8434621" lon="9.6446718"><ele>36.4</ele><time>2026-05-02T07:07:37.192Z</time></trkpt><trkpt lat="39.843419" lon="9.6445579"><ele>36.8</ele><time>2026-05-02T07:07:39.192Z</time></trkpt><trkpt lat="39.843432" lon="9.6444449"><ele>37.199999999999996</ele><time>2026-05-02T07:07:41.193Z</time></trkpt><trkpt lat="39.8434929" lon="9.6443534"><ele>37.6</ele><time>2026-05-02T07:07:43.193Z</time></trkpt><trkpt lat="39.8435998" lon="9.6442857"><ele>38.0</ele><time>2026-05-02T07:07:45.193Z</time></trkpt><trkpt lat="39.8436926" lon="9.6442172"><ele>38.5</ele><time>2026-05-02T07:07:47.193Z</time></trkpt><trkpt lat="39.8437693" lon="9.6441177"><ele>39.0</ele><time>2026-05-02T07:07:49.193Z</time></trkpt><trkpt lat="39.8438443" lon="9.6440717"><ele>39.5</ele><time>2026-05-02T07:07:51.193Z</time></trkpt><trkpt lat="39.8439322" lon="9.6440986"><ele>40.0</ele><time>2026-05-02T07:07:53.192Z</time></trkpt><trkpt lat="39.8439786" lon="9.6441716"><ele>40.5</ele><time>2026-05-02T07:07:54.192Z</time></trkpt><trkpt lat="39.8440269" lon="9.6442333"><ele>41.0</ele><time>2026-05-02T07:07:55.193Z</time></trkpt><trkpt lat="39.8441045" lon="9.6443059"><ele>41.0</ele><time>2026-05-02T07:07:56.193Z</time></trkpt><trkpt lat="39.8441742" lon="9.6443591"><ele>41.0</ele><time>2026-05-02T07:07:57.192Z</time></trkpt><trkpt lat="39.8442465" lon="9.6444091"><ele>41.0</ele><time>2026-05-02T07:07:58.192Z</time></trkpt><trkpt lat="39.8443192" lon="9.6444425"><ele>41.0</ele><time>2026-05-02T07:07:59.192Z</time></trkpt><trkpt lat="39.8443958" lon="9.6444672"><ele>41.0</ele><time>2026-05-02T07:08:00.193Z</time></trkpt><trkpt lat="39.8444774" lon="9.6444769"><ele>41.0</ele><time>2026-05-02T07:08:01.192Z</time></trkpt><trkpt lat="39.8445583" lon="9.6444683"><ele>41.0</ele><time>2026-05-02T07:08:02.192Z</time></trkpt><trkpt lat="39.8446414" lon="9.6444503"><ele>41.0</ele><time>2026-05-02T07:08:03.193Z</time></trkpt><trkpt lat="39.8447274" lon="9.6444239"><ele>41.0</ele><time>2026-05-02T07:08:04.193Z</time></trkpt><trkpt lat="39.8448118" lon="9.6443954"><ele>41.0</ele><time>2026-05-02T07:08:05.193Z</time></trkpt><trkpt lat="39.8448914" lon="9.6443603"><ele>41.0</ele><time>2026-05-02T07:08:06.192Z</time></trkpt><trkpt lat="39.8449792" lon="9.6443239"><ele>41.0</ele><time>2026-05-02T07:08:07.192Z</time></trkpt><trkpt lat="39.8450542" lon="9.6442878"><ele>39.599999999999994</ele><time>2026-05-02T07:08:08.192Z</time></trkpt><trkpt lat="39.8451326" lon="9.6442573"><ele>38.199999999999996</ele><time>2026-05-02T07:08:09.193Z</time></trkpt><trkpt lat="39.8452172" lon="9.6442069"><ele>36.8</ele><time>2026-05-02T07:08:10.193Z</time></trkpt><trkpt lat="39.8453177" lon="9.6441602"><ele>35.4</ele><time>2026-05-02T07:08:11.193Z</time></trkpt><trkpt lat="39.8454169" lon="9.6441024"><ele>34.0</ele><time>2026-05-02T07:08:12.193Z</time></trkpt><trkpt lat="39.8455258" lon="9.6440456"><ele>34.0</ele><time>2026-05-02T07:08:13.192Z</time></trkpt><trkpt lat="39.845622" lon="9.6439917"><ele>34.0</ele><time>2026-05-02T07:08:14.193Z</time></trkpt><trkpt lat="39.8457084" lon="9.6439406"><ele>34.0</ele><time>2026-05-02T07:08:15.192Z</time></trkpt><trkpt lat="39.845788" lon="9.6438936"><ele>34.0</ele><time>2026-05-02T07:08:16.192Z</time></trkpt><trkpt lat="39.8458679" lon="9.6438568"><ele>34.0</ele><time>2026-05-02T07:08:17.193Z</time></trkpt><trkpt lat="39.8459469" lon="9.643828"><ele>32.833333333333336</ele><time>2026-05-02T07:08:18.192Z</time></trkpt><trkpt lat="39.8460248" lon="9.6437979"><ele>31.666666666666668</ele><time>2026-05-02T07:08:19.192Z</time></trkpt><trkpt lat="39.8461081" lon="9.6437699"><ele>30.5</ele><time>2026-05-02T07:08:20.192Z</time></trkpt><trkpt lat="39.8461957" lon="9.6437472"><ele>29.333333333333336</ele><time>2026-05-02T07:08:21.193Z</time></trkpt><trkpt lat="39.8462881" lon="9.6437212"><ele>28.166666666666668</ele><time>2026-05-02T07:08:22.192Z</time></trkpt><trkpt lat="39.8463855" lon="9.6437062"><ele>27.0</ele><time>2026-05-02T07:08:23.192Z</time></trkpt><trkpt lat="39.8464812" lon="9.6437034"><ele>27.0</ele><time>2026-05-02T07:08:24.193Z</time></trkpt><trkpt lat="39.8465701" lon="9.6436997"><ele>27.0</ele><time>2026-05-02T07:08:25.193Z</time></trkpt><trkpt lat="39.8466526" lon="9.6436992"><ele>27.0</ele><time>2026-05-02T07:08:26.192Z</time></trkpt><trkpt lat="39.8467385" lon="9.6436995"><ele>27.0</ele><time>2026-05-02T07:08:27.192Z</time></trkpt><trkpt lat="39.8468224" lon="9.6437016"><ele>27.0</ele><time>2026-05-02T07:08:28.192Z</time></trkpt><trkpt lat="39.8469094" lon="9.6437089"><ele>27.0</ele><time>2026-05-02T07:08:29.193Z</time></trkpt><trkpt lat="39.8470058" lon="9.6437215"><ele>26.75</ele><time>2026-05-02T07:08:30.192Z</time></trkpt><trkpt lat="39.8471148" lon="9.6437474"><ele>26.5</ele><time>2026-05-02T07:08:31.192Z</time></trkpt><trkpt lat="39.847238" lon="9.6437824"><ele>26.25</ele><time>2026-05-02T07:08:32.192Z</time></trkpt><trkpt lat="39.8473596" lon="9.643826"><ele>26.0</ele><time>2026-05-02T07:08:33.192Z</time></trkpt><trkpt lat="39.8474722" lon="9.6438776"><ele>26.0</ele><time>2026-05-02T07:08:34.193Z</time></trkpt><trkpt lat="39.8475864" lon="9.6439329"><ele>26.0</ele><time>2026-05-02T07:08:35.192Z</time></trkpt><trkpt lat="39.8476991" lon="9.6439976"><ele>26.0</ele><time>2026-05-02T07:08:36.192Z</time></trkpt><trkpt lat="39.8478005" lon="9.6440515"><ele>26.0</ele><time>2026-05-02T07:08:37.192Z</time></trkpt><trkpt lat="39.8479017" lon="9.6441096"><ele>26.4</ele><time>2026-05-02T07:08:38.192Z</time></trkpt><trkpt lat="39.8480041" lon="9.6441724"><ele>26.8</ele><time>2026-05-02T07:08:39.193Z</time></trkpt><trkpt lat="39.8480981" lon="9.6442324"><ele>27.199999999999996</ele><time>2026-05-02T07:08:40.193Z</time></trkpt><trkpt lat="39.848193" lon="9.6442961"><ele>27.599999999999998</ele><time>2026-05-02T07:08:41.192Z</time></trkpt><trkpt lat="39.8482932" lon="9.6443558"><ele>28.0</ele><time>2026-05-02T07:08:42.192Z</time></trkpt><trkpt lat="39.8483926" lon="9.6444181"><ele>28.0</ele><time>2026-05-02T07:08:43.192Z</time></trkpt><trkpt lat="39.8485001" lon="9.6444603"><ele>28.0</ele><time>2026-05-02T07:08:44.193Z</time></trkpt><trkpt lat="39.8486168" lon="9.6444912"><ele>28.0</ele><time>2026-05-02T07:08:45.193Z</time></trkpt><trkpt lat="39.8487355" lon="9.6444916"><ele>28.0</ele><time>2026-05-02T07:08:46.192Z</time></trkpt><trkpt lat="39.8488522" lon="9.64448"><ele>28.5</ele><time>2026-05-02T07:08:47.192Z</time></trkpt><trkpt lat="39.848972" lon="9.6444312"><ele>29.0</ele><time>2026-05-02T07:08:48.192Z</time></trkpt><trkpt lat="39.8490898" lon="9.6443587"><ele>29.5</ele><time>2026-05-02T07:08:49.193Z</time></trkpt><trkpt lat="39.8492075" lon="9.6442709"><ele>30.0</ele><time>2026-05-02T07:08:50.193Z</time></trkpt><trkpt lat="39.849323" lon="9.644173"><ele>30.25</ele><time>2026-05-02T07:08:51.192Z</time></trkpt><trkpt lat="39.8494408" lon="9.6440665"><ele>30.5</ele><time>2026-05-02T07:08:52.192Z</time></trkpt><trkpt lat="39.8495517" lon="9.6439607"><ele>30.75</ele><time>2026-05-02T07:08:53.192Z</time></trkpt><trkpt lat="39.8496544" lon="9.6438601"><ele>31.0</ele><time>2026-05-02T07:08:54.192Z</time></trkpt><trkpt lat="39.8497644" lon="9.643765"><ele>31.0</ele><time>2026-05-02T07:08:55.192Z</time></trkpt><trkpt lat="39.8498715" lon="9.6436811"><ele>31.0</ele><time>2026-05-02T07:08:56.192Z</time></trkpt><trkpt lat="39.849979" lon="9.6436129"><ele>31.0</ele><time>2026-05-02T07:08:57.193Z</time></trkpt><trkpt lat="39.8500888" lon="9.6435567"><ele>31.0</ele><time>2026-05-02T07:08:58.192Z</time></trkpt><trkpt lat="39.8502042" lon="9.6435113"><ele>32.0</ele><time>2026-05-02T07:08:59.192Z</time></trkpt><trkpt lat="39.8503239" lon="9.6434731"><ele>33.0</ele><time>2026-05-02T07:09:00.193Z</time></trkpt><trkpt lat="39.8504498" lon="9.6434458"><ele>34.0</ele><time>2026-05-02T07:09:01.193Z</time></trkpt><trkpt lat="39.8505755" lon="9.6434244"><ele>35.0</ele><time>2026-05-02T07:09:02.192Z</time></trkpt><trkpt lat="39.8506932" lon="9.6434083"><ele>35.0</ele><time>2026-05-02T07:09:03.192Z</time></trkpt><trkpt lat="39.8508128" lon="9.6433918"><ele>35.0</ele><time>2026-05-02T07:09:04.192Z</time></trkpt><trkpt lat="39.8509315" lon="9.6433732"><ele>35.0</ele><time>2026-05-02T07:09:05.192Z</time></trkpt><trkpt lat="39.8510524" lon="9.6433508"><ele>35.0</ele><time>2026-05-02T07:09:06.193Z</time></trkpt><trkpt lat="39.8511694" lon="9.6433331"><ele>35.75</ele><time>2026-05-02T07:09:07.192Z</time></trkpt><trkpt lat="39.8512883" lon="9.6433154"><ele>36.5</ele><time>2026-05-02T07:09:08.192Z</time></trkpt><trkpt lat="39.8514051" lon="9.6433015"><ele>37.25</ele><time>2026-05-02T07:09:09.193Z</time></trkpt><trkpt lat="39.8515122" lon="9.6432841"><ele>38.0</ele><time>2026-05-02T07:09:10.193Z</time></trkpt><trkpt lat="39.8516211" lon="9.6432662"><ele>38.0</ele><time>2026-05-02T07:09:11.192Z</time></trkpt><trkpt lat="39.8517314" lon="9.6432464"><ele>38.0</ele><time>2026-05-02T07:09:12.193Z</time></trkpt><trkpt lat="39.851848" lon="9.6432267"><ele>38.0</ele><time>2026-05-02T07:09:13.192Z</time></trkpt><trkpt lat="39.851969" lon="9.6432037"><ele>38.0</ele><time>2026-05-02T07:09:14.193Z</time></trkpt><trkpt lat="39.8520962" lon="9.6431846"><ele>39.25</ele><time>2026-05-02T07:09:15.193Z</time></trkpt><trkpt lat="39.8522222" lon="9.6431645"><ele>40.5</ele><time>2026-05-02T07:09:16.192Z</time></trkpt><trkpt lat="39.8523399" lon="9.6431436"><ele>41.75</ele><time>2026-05-02T07:09:17.193Z</time></trkpt><trkpt lat="39.8524475" lon="9.6431254"><ele>43.0</ele><time>2026-05-02T07:09:18.193Z</time></trkpt><trkpt lat="39.8525507" lon="9.6431117"><ele>43.4</ele><time>2026-05-02T07:09:19.192Z</time></trkpt><trkpt lat="39.8526528" lon="9.6431143"><ele>43.8</ele><time>2026-05-02T07:09:20.193Z</time></trkpt><trkpt lat="39.852757" lon="9.6431339"><ele>44.2</ele><time>2026-05-02T07:09:21.192Z</time></trkpt><trkpt lat="39.8528618" lon="9.643176"><ele>44.6</ele><time>2026-05-02T07:09:22.193Z</time></trkpt><trkpt lat="39.8529648" lon="9.643243"><ele>45.0</ele><time>2026-05-02T07:09:23.193Z</time></trkpt><trkpt lat="39.853054" lon="9.6433364"><ele>45.0</ele><time>2026-05-02T07:09:24.193Z</time></trkpt><trkpt lat="39.853139" lon="9.6434333"><ele>45.0</ele><time>2026-05-02T07:09:25.192Z</time></trkpt><trkpt lat="39.8532146" lon="9.643543"><ele>45.0</ele><time>2026-05-02T07:09:26.192Z</time></trkpt><trkpt lat="39.8532905" lon="9.6436564"><ele>45.0</ele><time>2026-05-02T07:09:27.192Z</time></trkpt><trkpt lat="39.8533651" lon="9.6437748"><ele>46.25</ele><time>2026-05-02T07:09:28.193Z</time></trkpt><trkpt lat="39.8534391" lon="9.6438896"><ele>47.5</ele><time>2026-05-02T07:09:29.193Z</time></trkpt><trkpt lat="39.8535233" lon="9.6439945"><ele>48.75</ele><time>2026-05-02T07:09:30.192Z</time></trkpt><trkpt lat="39.8536204" lon="9.6440677"><ele>50.0</ele><time>2026-05-02T07:09:31.192Z</time></trkpt><trkpt lat="39.8537295" lon="9.6441001"><ele>51.25</ele><time>2026-05-02T07:09:32.193Z</time></trkpt><trkpt lat="39.8538407" lon="9.6440889"><ele>52.5</ele><time>2026-05-02T07:09:33.192Z</time></trkpt><trkpt lat="39.8539505" lon="9.6440544"><ele>53.75</ele><time>2026-05-02T07:09:34.193Z</time></trkpt><trkpt lat="39.8540379" lon="9.6439615"><ele>55.0</ele><time>2026-05-02T07:09:35.192Z</time></trkpt><trkpt lat="39.8541271" lon="9.6438628"><ele>55.0</ele><time>2026-05-02T07:09:36.193Z</time></trkpt><trkpt lat="39.8542139" lon="9.6437605"><ele>55.0</ele><time>2026-05-02T07:09:37.193Z</time></trkpt><trkpt lat="39.8543051" lon="9.6436647"><ele>55.0</ele><time>2026-05-02T07:09:38.192Z</time></trkpt><trkpt lat="39.8544028" lon="9.6435681"><ele>55.0</ele><time>2026-05-02T07:09:39.193Z</time></trkpt><trkpt lat="39.8545014" lon="9.6434787"><ele>55.2</ele><time>2026-05-02T07:09:40.192Z</time></trkpt><trkpt lat="39.8545958" lon="9.6433852"><ele>55.4</ele><time>2026-05-02T07:09:41.193Z</time></trkpt><trkpt lat="39.8546879" lon="9.6433086"><ele>55.599999999999994</ele><time>2026-05-02T07:09:42.193Z</time></trkpt><trkpt lat="39.8547829" lon="9.6432634"><ele>55.8</ele><time>2026-05-02T07:09:43.192Z</time></trkpt><trkpt lat="39.8548727" lon="9.6432528"><ele>56.0</ele><time>2026-05-02T07:09:44.193Z</time></trkpt><trkpt lat="39.8549548" lon="9.6432784"><ele>56.00000000000001</ele><time>2026-05-02T07:09:45.193Z</time></trkpt><trkpt lat="39.855023" lon="9.6433296"><ele>56.0</ele><time>2026-05-02T07:09:46.193Z</time></trkpt><trkpt lat="39.855081" lon="9.6434011"><ele>56.0</ele><time>2026-05-02T07:09:47.193Z</time></trkpt><trkpt lat="39.8551304" lon="9.6434829"><ele>56.0</ele><time>2026-05-02T07:09:48.192Z</time></trkpt><trkpt lat="39.8551793" lon="9.6435736"><ele>56.00000000000001</ele><time>2026-05-02T07:09:49.192Z</time></trkpt><trkpt lat="39.8552339" lon="9.6436609"><ele>56.0</ele><time>2026-05-02T07:09:50.193Z</time></trkpt><trkpt lat="39.8553135" lon="9.6437275"><ele>58.4</ele><time>2026-05-02T07:09:51.193Z</time></trkpt><trkpt lat="39.8554001" lon="9.6437763"><ele>60.8</ele><time>2026-05-02T07:09:52.193Z</time></trkpt><trkpt lat="39.8554944" lon="9.6438062"><ele>63.199999999999996</ele><time>2026-05-02T07:09:53.193Z</time></trkpt><trkpt lat="39.8555953" lon="9.6438321"><ele>65.6</ele><time>2026-05-02T07:09:54.193Z</time></trkpt><trkpt lat="39.8556951" lon="9.6438589"><ele>68.0</ele><time>2026-05-02T07:09:55.193Z</time></trkpt><trkpt lat="39.8557871" lon="9.643881"><ele>68.0</ele><time>2026-05-02T07:09:56.192Z</time></trkpt><trkpt lat="39.8558752" lon="9.6439038"><ele>68.0</ele><time>2026-05-02T07:09:57.193Z</time></trkpt><trkpt lat="39.8559634" lon="9.64392"><ele>68.0</ele><time>2026-05-02T07:09:58.193Z</time></trkpt><trkpt lat="39.8560529" lon="9.6439311"><ele>68.0</ele><time>2026-05-02T07:09:59.192Z</time></trkpt><trkpt lat="39.8561479" lon="9.6439214"><ele>68.0</ele><time>2026-05-02T07:10:00.193Z</time></trkpt><trkpt lat="39.8562412" lon="9.643891"><ele>69.0</ele><time>2026-05-02T07:10:01.193Z</time></trkpt><trkpt lat="39.8563324" lon="9.6438385"><ele>70.0</ele><time>2026-05-02T07:10:02.192Z</time></trkpt><trkpt lat="39.8564246" lon="9.6437788"><ele>71.0</ele><time>2026-05-02T07:10:03.193Z</time></trkpt><trkpt lat="39.8565215" lon="9.6437243"><ele>72.0</ele><time>2026-05-02T07:10:04.193Z</time></trkpt><trkpt lat="39.856626" lon="9.6436938"><ele>73.0</ele><time>2026-05-02T07:10:05.192Z</time></trkpt><trkpt lat="39.8567296" lon="9.6436797"><ele>72.2</ele><time>2026-05-02T07:10:06.192Z</time></trkpt><trkpt lat="39.8568303" lon="9.6436976"><ele>71.4</ele><time>2026-05-02T07:10:07.192Z</time></trkpt><trkpt lat="39.8569262" lon="9.6437381"><ele>70.60000000000001</ele><time>2026-05-02T07:10:08.193Z</time></trkpt><trkpt lat="39.8570209" lon="9.6438009"><ele>69.8</ele><time>2026-05-02T07:10:09.192Z</time></trkpt><trkpt lat="39.8571132" lon="9.6438761"><ele>69.0</ele><time>2026-05-02T07:10:10.193Z</time></trkpt><trkpt lat="39.8572095" lon="9.6439653"><ele>69.0</ele><time>2026-05-02T07:10:11.192Z</time></trkpt><trkpt lat="39.857314" lon="9.6440673"><ele>69.0</ele><time>2026-05-02T07:10:12.193Z</time></trkpt><trkpt lat="39.8574121" lon="9.6441624"><ele>69.0</ele><time>2026-05-02T07:10:13.193Z</time></trkpt><trkpt lat="39.8575079" lon="9.6442538"><ele>69.0</ele><time>2026-05-02T07:10:14.192Z</time></trkpt><trkpt lat="39.8575942" lon="9.6443434"><ele>68.8</ele><time>2026-05-02T07:10:15.192Z</time></trkpt><trkpt lat="39.8576759" lon="9.6444235"><ele>68.60000000000001</ele><time>2026-05-02T07:10:16.192Z</time></trkpt><trkpt lat="39.8577535" lon="9.6445044"><ele>68.4</ele><time>2026-05-02T07:10:17.193Z</time></trkpt><trkpt lat="39.8578301" lon="9.6445842"><ele>68.2</ele><time>2026-05-02T07:10:18.193Z</time></trkpt><trkpt lat="39.8579072" lon="9.6446647"><ele>68.0</ele><time>2026-05-02T07:10:19.192Z</time></trkpt><trkpt lat="39.8579795" lon="9.6447574"><ele>68.0</ele><time>2026-05-02T07:10:20.192Z</time></trkpt><trkpt lat="39.8580427" lon="9.6448687"><ele>68.0</ele><time>2026-05-02T07:10:21.193Z</time></trkpt><trkpt lat="39.8581031" lon="9.6449862"><ele>68.0</ele><time>2026-05-02T07:10:22.193Z</time></trkpt><trkpt lat="39.8581594" lon="9.6451153"><ele>68.0</ele><time>2026-05-02T07:10:23.193Z</time></trkpt><trkpt lat="39.8582181" lon="9.6452439"><ele>68.0</ele><time>2026-05-02T07:10:24.192Z</time></trkpt><trkpt lat="39.8582796" lon="9.645375"><ele>67.25</ele><time>2026-05-02T07:10:25.193Z</time></trkpt><trkpt lat="39.8583451" lon="9.645509"><ele>66.5</ele><time>2026-05-02T07:10:26.192Z</time></trkpt><trkpt lat="39.8584124" lon="9.6456508"><ele>65.75</ele><time>2026-05-02T07:10:27.192Z</time></trkpt><trkpt lat="39.8584831" lon="9.6457977"><ele>65.0</ele><time>2026-05-02T07:10:28.193Z</time></trkpt><trkpt lat="39.8585537" lon="9.6459511"><ele>65.0</ele><time>2026-05-02T07:10:29.193Z</time></trkpt><trkpt lat="39.8586225" lon="9.6460993"><ele>65.0</ele><time>2026-05-02T07:10:30.192Z</time></trkpt><trkpt lat="39.8586855" lon="9.6462498"><ele>65.0</ele><time>2026-05-02T07:10:31.192Z</time></trkpt><trkpt lat="39.858745" lon="9.6463794"><ele>65.0</ele><time>2026-05-02T07:10:32.193Z</time></trkpt><trkpt lat="39.858798" lon="9.6464984"><ele>66.4</ele><time>2026-05-02T07:10:33.193Z</time></trkpt><trkpt lat="39.858848" lon="9.6466106"><ele>67.8</ele><time>2026-05-02T07:10:34.192Z</time></trkpt><trkpt lat="39.858896" lon="9.646721"><ele>69.2</ele><time>2026-05-02T07:10:35.193Z</time></trkpt><trkpt lat="39.8589454" lon="9.6468364"><ele>70.6</ele><time>2026-05-02T07:10:36.192Z</time></trkpt><trkpt lat="39.8590006" lon="9.6469518"><ele>72.0</ele><time>2026-05-02T07:10:37.192Z</time></trkpt><trkpt lat="39.8590557" lon="9.647069"><ele>73.0</ele><time>2026-05-02T07:10:38.193Z</time></trkpt><trkpt lat="39.8591241" lon="9.6471877"><ele>74.0</ele><time>2026-05-02T07:10:39.192Z</time></trkpt><trkpt lat="39.8591776" lon="9.6473116"><ele>75.0</ele><time>2026-05-02T07:10:40.193Z</time></trkpt><trkpt lat="39.8592351" lon="9.6474427"><ele>76.0</ele><time>2026-05-02T07:10:41.193Z</time></trkpt><trkpt lat="39.8592972" lon="9.6475751"><ele>76.0</ele><time>2026-05-02T07:10:42.192Z</time></trkpt><trkpt lat="39.8593729" lon="9.6477019"><ele>76.0</ele><time>2026-05-02T07:10:43.193Z</time></trkpt><trkpt lat="39.8594672" lon="9.6478125"><ele>76.0</ele><time>2026-05-02T07:10:44.192Z</time></trkpt><trkpt lat="39.8595786" lon="9.6478982"><ele>76.0</ele><time>2026-05-02T07:10:45.193Z</time></trkpt><trkpt lat="39.8597071" lon="9.6479519"><ele>76.0</ele><time>2026-05-02T07:10:46.192Z</time></trkpt><trkpt lat="39.859833" lon="9.6479517"><ele>76.0</ele><time>2026-05-02T07:10:47.192Z</time></trkpt><trkpt lat="39.8599546" lon="9.6478928"><ele>76.0</ele><time>2026-05-02T07:10:48.192Z</time></trkpt><trkpt lat="39.8600616" lon="9.6477825"><ele>76.0</ele><time>2026-05-02T07:10:49.192Z</time></trkpt><trkpt lat="39.8601632" lon="9.647624"><ele>80.0</ele><time>2026-05-02T07:10:50.193Z</time></trkpt><trkpt lat="39.860263" lon="9.6474613"><ele>84.0</ele><time>2026-05-02T07:10:51.193Z</time></trkpt><trkpt lat="39.8603621" lon="9.6473177"><ele>88.0</ele><time>2026-05-02T07:10:52.192Z</time></trkpt><trkpt lat="39.8604749" lon="9.647219"><ele>92.0</ele><time>2026-05-02T07:10:53.192Z</time></trkpt><trkpt lat="39.860597" lon="9.6471501"><ele>92.0</ele><time>2026-05-02T07:10:54.192Z</time></trkpt><trkpt lat="39.8607294" lon="9.6471096"><ele>92.0</ele><time>2026-05-02T07:10:55.192Z</time></trkpt><trkpt lat="39.8608693" lon="9.6470929"><ele>92.0</ele><time>2026-05-02T07:10:56.192Z</time></trkpt><trkpt lat="39.8610131" lon="9.6470921"><ele>92.0</ele><time>2026-05-02T07:10:57.192Z</time></trkpt><trkpt lat="39.8611598" lon="9.6470912"><ele>92.0</ele><time>2026-05-02T07:10:58.192Z</time></trkpt><trkpt lat="39.8613107" lon="9.6470813"><ele>92.0</ele><time>2026-05-02T07:10:59.193Z</time></trkpt><trkpt lat="39.8614652" lon="9.6470663"><ele>92.0</ele><time>2026-05-02T07:11:00.193Z</time></trkpt><trkpt lat="39.8616207" lon="9.647043"><ele>92.0</ele><time>2026-05-02T07:11:01.193Z</time></trkpt><trkpt lat="39.8617758" lon="9.6470157"><ele>92.0</ele><time>2026-05-02T07:11:02.192Z</time></trkpt><trkpt lat="39.861919" lon="9.6469866"><ele>92.0</ele><time>2026-05-02T07:11:03.192Z</time></trkpt><trkpt lat="39.8620607" lon="9.6469587"><ele>92.0</ele><time>2026-05-02T07:11:04.192Z</time></trkpt><trkpt lat="39.8621999" lon="9.6469307"><ele>92.0</ele><time>2026-05-02T07:11:05.192Z</time></trkpt><trkpt lat="39.8623387" lon="9.6468967"><ele>92.0</ele><time>2026-05-02T07:11:06.192Z</time></trkpt><trkpt lat="39.8624699" lon="9.6468579"><ele>92.0</ele><time>2026-05-02T07:11:07.193Z</time></trkpt><trkpt lat="39.8625899" lon="9.6468159"><ele>92.0</ele><time>2026-05-02T07:11:08.193Z</time></trkpt><trkpt lat="39.862696" lon="9.6467715"><ele>91.39999999999999</ele><time>2026-05-02T07:11:09.192Z</time></trkpt><trkpt lat="39.8627926" lon="9.6467296"><ele>90.8</ele><time>2026-05-02T07:11:10.192Z</time></trkpt><trkpt lat="39.8628849" lon="9.6466879"><ele>90.2</ele><time>2026-05-02T07:11:11.192Z</time></trkpt><trkpt lat="39.8629762" lon="9.6466497"><ele>89.6</ele><time>2026-05-02T07:11:12.192Z</time></trkpt><trkpt lat="39.8630696" lon="9.6466179"><ele>89.0</ele><time>2026-05-02T07:11:13.192Z</time></trkpt><trkpt lat="39.863167" lon="9.6465916"><ele>89.0</ele><time>2026-05-02T07:11:14.193Z</time></trkpt><trkpt lat="39.863271" lon="9.6465688"><ele>89.0</ele><time>2026-05-02T07:11:15.192Z</time></trkpt><trkpt lat="39.8633835" lon="9.6465452"><ele>89.0</ele><time>2026-05-02T07:11:16.193Z</time></trkpt><trkpt lat="39.8635048" lon="9.6465253"><ele>89.0</ele><time>2026-05-02T07:11:17.193Z</time></trkpt><trkpt lat="39.8636319" lon="9.6465085"><ele>88.0</ele><time>2026-05-02T07:11:18.192Z</time></trkpt><trkpt lat="39.8637621" lon="9.6464987"><ele>87.0</ele><time>2026-05-02T07:11:19.192Z</time></trkpt><trkpt lat="39.8638898" lon="9.6465011"><ele>86.0</ele><time>2026-05-02T07:11:20.193Z</time></trkpt><trkpt lat="39.8640198" lon="9.6465176"><ele>85.0</ele><time>2026-05-02T07:11:21.192Z</time></trkpt><trkpt lat="39.8641489" lon="9.6465434"><ele>85.0</ele><time>2026-05-02T07:11:22.193Z</time></trkpt><trkpt lat="39.8642688" lon="9.6465764"><ele>85.0</ele><time>2026-05-02T07:11:23.193Z</time></trkpt><trkpt lat="39.864391" lon="9.6466116"><ele>85.0</ele><time>2026-05-02T07:11:24.192Z</time></trkpt><trkpt lat="39.8645162" lon="9.6466508"><ele>85.0</ele><time>2026-05-02T07:11:25.193Z</time></trkpt><trkpt lat="39.8646458" lon="9.6466935"><ele>83.0</ele><time>2026-05-02T07:11:26.193Z</time></trkpt><trkpt lat="39.8647785" lon="9.6467432"><ele>81.0</ele><time>2026-05-02T07:11:27.193Z</time></trkpt><trkpt lat="39.8649111" lon="9.6467984"><ele>79.0</ele><time>2026-05-02T07:11:28.193Z</time></trkpt><trkpt lat="39.8650449" lon="9.6468631"><ele>77.0</ele><time>2026-05-02T07:11:29.193Z</time></trkpt><trkpt lat="39.8651691" lon="9.6469309"><ele>76.0</ele><time>2026-05-02T07:11:30.193Z</time></trkpt><trkpt lat="39.8652854" lon="9.6470037"><ele>75.0</ele><time>2026-05-02T07:11:31.193Z</time></trkpt><trkpt lat="39.8654023" lon="9.6470811"><ele>74.0</ele><time>2026-05-02T07:11:32.193Z</time></trkpt><trkpt lat="39.8655215" lon="9.6471618"><ele>73.0</ele><time>2026-05-02T07:11:33.192Z</time></trkpt><trkpt lat="39.8656413" lon="9.6472512"><ele>73.0</ele><time>2026-05-02T07:11:34.193Z</time></trkpt><trkpt lat="39.8657611" lon="9.6473536"><ele>73.0</ele><time>2026-05-02T07:11:35.192Z</time></trkpt><trkpt lat="39.8658825" lon="9.6474696"><ele>73.0</ele><time>2026-05-02T07:11:36.193Z</time></trkpt><trkpt lat="39.8660041" lon="9.6475981"><ele>70.66666666666666</ele><time>2026-05-02T07:11:37.192Z</time></trkpt><trkpt lat="39.8661259" lon="9.6477318"><ele>68.33333333333333</ele><time>2026-05-02T07:11:38.193Z</time></trkpt><trkpt lat="39.8662535" lon="9.6478726"><ele>66.0</ele><time>2026-05-02T07:11:39.193Z</time></trkpt><trkpt lat="39.8663864" lon="9.6480123"><ele>66.0</ele><time>2026-05-02T07:11:40.192Z</time></trkpt><trkpt lat="39.8665269" lon="9.6481436"><ele>66.0</ele><time>2026-05-02T07:11:41.193Z</time></trkpt><trkpt lat="39.8666772" lon="9.6482596"><ele>66.0</ele><time>2026-05-02T07:11:42.193Z</time></trkpt><trkpt lat="39.8668358" lon="9.648356"><ele>66.33333333333333</ele><time>2026-05-02T07:11:43.193Z</time></trkpt><trkpt lat="39.8669917" lon="9.6484427"><ele>66.66666666666666</ele><time>2026-05-02T07:11:44.193Z</time></trkpt><trkpt lat="39.8671374" lon="9.6485164"><ele>67.0</ele><time>2026-05-02T07:11:45.193Z</time></trkpt><trkpt lat="39.8672648" lon="9.6485933"><ele>66.5</ele><time>2026-05-02T07:11:46.192Z</time></trkpt><trkpt lat="39.8673745" lon="9.6486778"><ele>66.0</ele><time>2026-05-02T07:11:47.193Z</time></trkpt><trkpt lat="39.8674669" lon="9.6487803"><ele>65.5</ele><time>2026-05-02T07:11:48.193Z</time></trkpt><trkpt lat="39.8675428" lon="9.648903"><ele>65.0</ele><time>2026-05-02T07:11:49.192Z</time></trkpt><trkpt lat="39.8676046" lon="9.6490481"><ele>65.5</ele><time>2026-05-02T07:11:50.193Z</time></trkpt><trkpt lat="39.8676589" lon="9.6492083"><ele>66.0</ele><time>2026-05-02T07:11:51.192Z</time></trkpt><trkpt lat="39.8677124" lon="9.6493766"><ele>66.5</ele><time>2026-05-02T07:11:52.193Z</time></trkpt><trkpt lat="39.8677754" lon="9.6495314"><ele>67.0</ele><time>2026-05-02T07:11:53.193Z</time></trkpt><trkpt lat="39.8678672" lon="9.6496627"><ele>64.75</ele><time>2026-05-02T07:11:54.192Z</time></trkpt><trkpt lat="39.8679832" lon="9.6497545"><ele>62.5</ele><time>2026-05-02T07:11:55.193Z</time></trkpt><trkpt lat="39.8681148" lon="9.6497951"><ele>60.25</ele><time>2026-05-02T07:11:56.192Z</time></trkpt><trkpt lat="39.8682537" lon="9.6497919"><ele>58.0</ele><time>2026-05-02T07:11:57.193Z</time></trkpt><trkpt lat="39.8683982" lon="9.6497532"><ele>56.666666666666664</ele><time>2026-05-02T07:11:58.193Z</time></trkpt><trkpt lat="39.8685474" lon="9.649688"><ele>55.33333333333333</ele><time>2026-05-02T07:11:59.193Z</time></trkpt><trkpt lat="39.8686955" lon="9.6496086"><ele>54.0</ele><time>2026-05-02T07:12:00.193Z</time></trkpt><trkpt lat="39.8688517" lon="9.6495372"><ele>54.0</ele><time>2026-05-02T07:12:01.193Z</time></trkpt><trkpt lat="39.8690174" lon="9.6495008"><ele>54.0</ele><time>2026-05-02T07:12:02.192Z</time></trkpt><trkpt lat="39.8691905" lon="9.6494897"><ele>54.0</ele><time>2026-05-02T07:12:03.192Z</time></trkpt><trkpt lat="39.8693692" lon="9.6494948"><ele>54.33333333333333</ele><time>2026-05-02T07:12:04.192Z</time></trkpt><trkpt lat="39.8695521" lon="9.6495278"><ele>54.666666666666664</ele><time>2026-05-02T07:12:05.192Z</time></trkpt><trkpt lat="39.8697353" lon="9.6495842"><ele>55.0</ele><time>2026-05-02T07:12:06.192Z</time></trkpt><trkpt lat="39.8699154" lon="9.649667"><ele>55.0</ele><time>2026-05-02T07:12:07.193Z</time></trkpt><trkpt lat="39.8700969" lon="9.6497551"><ele>55.0</ele><time>2026-05-02T07:12:08.193Z</time></trkpt><trkpt lat="39.8702716" lon="9.6498245"><ele>55.0</ele><time>2026-05-02T07:12:09.192Z</time></trkpt><trkpt lat="39.8704407" lon="9.6498832"><ele>54.666666666666664</ele><time>2026-05-02T07:12:10.193Z</time></trkpt><trkpt lat="39.8706049" lon="9.6499169"><ele>54.33333333333333</ele><time>2026-05-02T07:12:11.193Z</time></trkpt><trkpt lat="39.8707661" lon="9.6499157"><ele>54.0</ele><time>2026-05-02T07:12:12.192Z</time></trkpt><trkpt lat="39.8709241" lon="9.6498825"><ele>53.33333333333333</ele><time>2026-05-02T07:12:13.192Z</time></trkpt><trkpt lat="39.8710803" lon="9.6498235"><ele>52.666666666666664</ele><time>2026-05-02T07:12:14.193Z</time></trkpt><trkpt lat="39.8712363" lon="9.6497421"><ele>52.0</ele><time>2026-05-02T07:12:15.193Z</time></trkpt><trkpt lat="39.8713951" lon="9.64965"><ele>52.0</ele><time>2026-05-02T07:12:16.192Z</time></trkpt><trkpt lat="39.871556" lon="9.6495574"><ele>52.0</ele><time>2026-05-02T07:12:17.193Z</time></trkpt><trkpt lat="39.87172" lon="9.6494652"><ele>52.0</ele><time>2026-05-02T07:12:18.193Z</time></trkpt><trkpt lat="39.8718864" lon="9.6493714"><ele>51.33333333333333</ele><time>2026-05-02T07:12:19.192Z</time></trkpt><trkpt lat="39.8720545" lon="9.6492753"><ele>50.66666666666667</ele><time>2026-05-02T07:12:20.192Z</time></trkpt><trkpt lat="39.8722245" lon="9.6491756"><ele>50.0</ele><time>2026-05-02T07:12:21.192Z</time></trkpt><trkpt lat="39.8723887" lon="9.6490686"><ele>50.0</ele><time>2026-05-02T07:12:22.193Z</time></trkpt><trkpt lat="39.8725413" lon="9.6489488"><ele>50.0</ele><time>2026-05-02T07:12:23.193Z</time></trkpt><trkpt lat="39.8726759" lon="9.6488195"><ele>50.0</ele><time>2026-05-02T07:12:24.193Z</time></trkpt><trkpt lat="39.872806" lon="9.6486882"><ele>48.0</ele><time>2026-05-02T07:12:25.193Z</time></trkpt><trkpt lat="39.8729445" lon="9.648585"><ele>46.0</ele><time>2026-05-02T07:12:26.193Z</time></trkpt><trkpt lat="39.8730944" lon="9.6485153"><ele>44.0</ele><time>2026-05-02T07:12:27.193Z</time></trkpt><trkpt lat="39.8732536" lon="9.6484819"><ele>44.0</ele><time>2026-05-02T07:12:28.193Z</time></trkpt><trkpt lat="39.8734219" lon="9.648477"><ele>44.0</ele><time>2026-05-02T07:12:29.192Z</time></trkpt><trkpt lat="39.8735959" lon="9.648482"><ele>44.0</ele><time>2026-05-02T07:12:30.192Z</time></trkpt><trkpt lat="39.8737765" lon="9.6484889"><ele>43.666666666666664</ele><time>2026-05-02T07:12:31.192Z</time></trkpt><trkpt lat="39.8739582" lon="9.6484962"><ele>43.333333333333336</ele><time>2026-05-02T07:12:32.193Z</time></trkpt><trkpt lat="39.8741421" lon="9.6485035"><ele>43.0</ele><time>2026-05-02T07:12:33.193Z</time></trkpt><trkpt lat="39.8743237" lon="9.6485127"><ele>43.0</ele><time>2026-05-02T07:12:34.192Z</time></trkpt><trkpt lat="39.8745006" lon="9.6485188"><ele>43.0</ele><time>2026-05-02T07:12:35.192Z</time></trkpt><trkpt lat="39.8746656" lon="9.6485392"><ele>43.0</ele><time>2026-05-02T07:12:36.193Z</time></trkpt><trkpt lat="39.8748087" lon="9.6485925"><ele>42.5</ele><time>2026-05-02T07:12:37.192Z</time></trkpt><trkpt lat="39.8749375" lon="9.6486772"><ele>42.0</ele><time>2026-05-02T07:12:38.193Z</time></trkpt><trkpt lat="39.8750512" lon="9.6487903"><ele>41.5</ele><time>2026-05-02T07:12:39.193Z</time></trkpt><trkpt lat="39.8751621" lon="9.6489104"><ele>41.0</ele><time>2026-05-02T07:12:40.193Z</time></trkpt><trkpt lat="39.8752908" lon="9.6490036"><ele>41.0</ele><time>2026-05-02T07:12:41.192Z</time></trkpt><trkpt lat="39.8754347" lon="9.6490825"><ele>41.0</ele><time>2026-05-02T07:12:42.193Z</time></trkpt><trkpt lat="39.8755881" lon="9.6491563"><ele>41.0</ele><time>2026-05-02T07:12:43.192Z</time></trkpt><trkpt lat="39.8757506" lon="9.6492286"><ele>41.0</ele><time>2026-05-02T07:12:44.192Z</time></trkpt><trkpt lat="39.8759202" lon="9.6493013"><ele>41.0</ele><time>2026-05-02T07:12:45.193Z</time></trkpt><trkpt lat="39.8760953" lon="9.649378"><ele>41.0</ele><time>2026-05-02T07:12:46.192Z</time></trkpt><trkpt lat="39.8762752" lon="9.6494572"><ele>40.666666666666664</ele><time>2026-05-02T07:12:47.192Z</time></trkpt><trkpt lat="39.876458" lon="9.6495359"><ele>40.333333333333336</ele><time>2026-05-02T07:12:48.193Z</time></trkpt><trkpt lat="39.8766415" lon="9.649615"><ele>40.0</ele><time>2026-05-02T07:12:49.192Z</time></trkpt><trkpt lat="39.8768265" lon="9.6496931"><ele>40.0</ele><time>2026-05-02T07:12:50.193Z</time></trkpt><trkpt lat="39.8770147" lon="9.6497751"><ele>40.0</ele><time>2026-05-02T07:12:51.193Z</time></trkpt><trkpt lat="39.8772061" lon="9.649857"><ele>40.0</ele><time>2026-05-02T07:12:52.193Z</time></trkpt><trkpt lat="39.8773989" lon="9.6499396"><ele>40.0</ele><time>2026-05-02T07:12:53.192Z</time></trkpt><trkpt lat="39.8775901" lon="9.6500215"><ele>40.0</ele><time>2026-05-02T07:12:54.193Z</time></trkpt><trkpt lat="39.8777729" lon="9.6500997"><ele>40.0</ele><time>2026-05-02T07:12:55.192Z</time></trkpt><trkpt lat="39.8779554" lon="9.6501766"><ele>40.0</ele><time>2026-05-02T07:12:56.193Z</time></trkpt><trkpt lat="39.8781363" lon="9.6502534"><ele>40.0</ele><time>2026-05-02T07:12:57.193Z</time></trkpt><trkpt lat="39.8783182" lon="9.650328"><ele>40.0</ele><time>2026-05-02T07:12:58.192Z</time></trkpt><trkpt lat="39.8785009" lon="9.6503964"><ele>38.66666666666667</ele><time>2026-05-02T07:12:59.192Z</time></trkpt><trkpt lat="39.8786865" lon="9.6504564"><ele>37.333333333333336</ele><time>2026-05-02T07:13:00.192Z</time></trkpt><trkpt lat="39.8788761" lon="9.6505091"><ele>36.0</ele><time>2026-05-02T07:13:01.192Z</time></trkpt><trkpt lat="39.8790695" lon="9.6505536"><ele>36.0</ele><time>2026-05-02T07:13:02.192Z</time></trkpt><trkpt lat="39.879267" lon="9.6505932"><ele>36.0</ele><time>2026-05-02T07:13:03.193Z</time></trkpt><trkpt lat="39.8794674" lon="9.6506287"><ele>36.0</ele><time>2026-05-02T07:13:04.193Z</time></trkpt><trkpt lat="39.8796717" lon="9.6506617"><ele>36.0</ele><time>2026-05-02T07:13:05.192Z</time></trkpt><trkpt lat="39.8798788" lon="9.6506948"><ele>36.0</ele><time>2026-05-02T07:13:06.192Z</time></trkpt><trkpt lat="39.8800915" lon="9.6507285"><ele>36.0</ele><time>2026-05-02T07:13:07.193Z</time></trkpt><trkpt lat="39.8803141" lon="9.6507621"><ele>35.0</ele><time>2026-05-02T07:13:08.192Z</time></trkpt><trkpt lat="39.8805339" lon="9.6507967"><ele>34.0</ele><time>2026-05-02T07:13:09.192Z</time></trkpt><trkpt lat="39.880754" lon="9.650831"><ele>33.0</ele><time>2026-05-02T07:13:10.193Z</time></trkpt><trkpt lat="39.8809778" lon="9.6508643"><ele>33.0</ele><time>2026-05-02T07:13:11.192Z</time></trkpt><trkpt lat="39.8812058" lon="9.6508973"><ele>33.0</ele><time>2026-05-02T07:13:12.193Z</time></trkpt><trkpt lat="39.8814377" lon="9.6509317"><ele>33.0</ele><time>2026-05-02T07:13:13.192Z</time></trkpt><trkpt lat="39.881668" lon="9.6509673"><ele>33.0</ele><time>2026-05-02T07:13:14.193Z</time></trkpt><trkpt lat="39.8818992" lon="9.6510013"><ele>32.333333333333336</ele><time>2026-05-02T07:13:15.193Z</time></trkpt><trkpt lat="39.88212" lon="9.6510362"><ele>31.666666666666668</ele><time>2026-05-02T07:13:16.192Z</time></trkpt><trkpt lat="39.8823299" lon="9.6510671"><ele>31.0</ele><time>2026-05-02T07:13:17.193Z</time></trkpt><trkpt lat="39.8825313" lon="9.6510982"><ele>30.0</ele><time>2026-05-02T07:13:18.193Z</time></trkpt><trkpt lat="39.8827332" lon="9.6511272"><ele>29.0</ele><time>2026-05-02T07:13:19.193Z</time></trkpt><trkpt lat="39.8829338" lon="9.6511541"><ele>28.0</ele><time>2026-05-02T07:13:20.193Z</time></trkpt><trkpt lat="39.8831351" lon="9.6511884"><ele>28.0</ele><time>2026-05-02T07:13:21.193Z</time></trkpt><trkpt lat="39.8833413" lon="9.651223"><ele>28.0</ele><time>2026-05-02T07:13:22.193Z</time></trkpt><trkpt lat="39.8835538" lon="9.6512579"><ele>28.0</ele><time>2026-05-02T07:13:23.193Z</time></trkpt><trkpt lat="39.8837729" lon="9.6512912"><ele>27.666666666666668</ele><time>2026-05-02T07:13:24.192Z</time></trkpt><trkpt lat="39.8839956" lon="9.6513246"><ele>27.333333333333336</ele><time>2026-05-02T07:13:25.193Z</time></trkpt><trkpt lat="39.8842176" lon="9.6513575"><ele>27.0</ele><time>2026-05-02T07:13:26.193Z</time></trkpt><trkpt lat="39.8844269" lon="9.6513898"><ele>26.666666666666664</ele><time>2026-05-02T07:13:27.193Z</time></trkpt><trkpt lat="39.8846331" lon="9.6514207"><ele>26.333333333333332</ele><time>2026-05-02T07:13:28.192Z</time></trkpt><trkpt lat="39.8848362" lon="9.6514528"><ele>26.0</ele><time>2026-05-02T07:13:29.193Z</time></trkpt><trkpt lat="39.8850346" lon="9.6514848"><ele>28.0</ele><time>2026-05-02T07:13:30.192Z</time></trkpt><trkpt lat="39.8852271" lon="9.6515174"><ele>30.0</ele><time>2026-05-02T07:13:31.192Z</time></trkpt><trkpt lat="39.8854194" lon="9.6515521"><ele>32.0</ele><time>2026-05-02T07:13:32.192Z</time></trkpt><trkpt lat="39.8856112" lon="9.6515821"><ele>32.0</ele><time>2026-05-02T07:13:33.193Z</time></trkpt><trkpt lat="39.8858076" lon="9.6516046"><ele>32.0</ele><time>2026-05-02T07:13:34.193Z</time></trkpt><trkpt lat="39.8860076" lon="9.6516111"><ele>32.0</ele><time>2026-05-02T07:13:35.192Z</time></trkpt><trkpt lat="39.8862122" lon="9.6515993"><ele>32.33333333333333</ele><time>2026-05-02T07:13:36.192Z</time></trkpt><trkpt lat="39.8864246" lon="9.6515745"><ele>32.666666666666664</ele><time>2026-05-02T07:13:37.192Z</time></trkpt><trkpt lat="39.8866407" lon="9.6515458"><ele>33.0</ele><time>2026-05-02T07:13:38.192Z</time></trkpt><trkpt lat="39.8868597" lon="9.6515149"><ele>32.0</ele><time>2026-05-02T07:13:39.192Z</time></trkpt><trkpt lat="39.8870816" lon="9.6514807"><ele>31.0</ele><time>2026-05-02T07:13:40.193Z</time></trkpt><trkpt lat="39.8873071" lon="9.6514471"><ele>31.0</ele><time>2026-05-02T07:13:41.192Z</time></trkpt><trkpt lat="39.8875363" lon="9.651412"><ele>31.0</ele><time>2026-05-02T07:13:42.193Z</time></trkpt><trkpt lat="39.8877712" lon="9.6513766"><ele>32.0</ele><time>2026-05-02T07:13:43.193Z</time></trkpt><trkpt lat="39.8880069" lon="9.6513402"><ele>33.0</ele><time>2026-05-02T07:13:44.193Z</time></trkpt><trkpt lat="39.888228" lon="9.6513054"><ele>33.666666666666664</ele><time>2026-05-02T07:13:45.193Z</time></trkpt><trkpt lat="39.8884425" lon="9.6512708"><ele>34.33333333333333</ele><time>2026-05-02T07:13:46.192Z</time></trkpt><trkpt lat="39.8886553" lon="9.6512372"><ele>35.0</ele><time>2026-05-02T07:13:47.192Z</time></trkpt><trkpt lat="39.8888656" lon="9.6512051"><ele>35.0</ele><time>2026-05-02T07:13:48.192Z</time></trkpt><trkpt lat="39.889075" lon="9.6511725"><ele>35.0</ele><time>2026-05-02T07:13:49.192Z</time></trkpt><trkpt lat="39.889281" lon="9.6511396"><ele>35.0</ele><time>2026-05-02T07:13:50.193Z</time></trkpt><trkpt lat="39.8894839" lon="9.6511103"><ele>35.666666666666664</ele><time>2026-05-02T07:13:51.193Z</time></trkpt><trkpt lat="39.8896847" lon="9.651081"><ele>36.333333333333336</ele><time>2026-05-02T07:13:52.193Z</time></trkpt><trkpt lat="39.8898839" lon="9.6510522"><ele>37.0</ele><time>2026-05-02T07:13:53.193Z</time></trkpt><trkpt lat="39.8900815" lon="9.651022"><ele>38.0</ele><time>2026-05-02T07:13:54.192Z</time></trkpt><trkpt lat="39.8902764" lon="9.650992"><ele>39.0</ele><time>2026-05-02T07:13:55.193Z</time></trkpt><trkpt lat="39.8904697" lon="9.6509635"><ele>40.0</ele><time>2026-05-02T07:13:56.192Z</time></trkpt><trkpt lat="39.8906612" lon="9.6509351"><ele>40.0</ele><time>2026-05-02T07:13:57.193Z</time></trkpt><trkpt lat="39.8908523" lon="9.6509069"><ele>40.0</ele><time>2026-05-02T07:13:58.192Z</time></trkpt><trkpt lat="39.8910426" lon="9.6508776"><ele>40.0</ele><time>2026-05-02T07:13:59.193Z</time></trkpt><trkpt lat="39.8912319" lon="9.6508429"><ele>40.333333333333336</ele><time>2026-05-02T07:14:00.192Z</time></trkpt><trkpt lat="39.8914216" lon="9.6508014"><ele>40.666666666666664</ele><time>2026-05-02T07:14:01.192Z</time></trkpt><trkpt lat="39.8916118" lon="9.6507512"><ele>41.0</ele><time>2026-05-02T07:14:02.193Z</time></trkpt><trkpt lat="39.8918041" lon="9.6506873"><ele>41.33333333333333</ele><time>2026-05-02T07:14:03.193Z</time></trkpt><trkpt lat="39.8919978" lon="9.6506149"><ele>41.666666666666664</ele><time>2026-05-02T07:14:04.192Z</time></trkpt><trkpt lat="39.8921945" lon="9.6505353"><ele>42.0</ele><time>2026-05-02T07:14:05.192Z</time></trkpt><trkpt lat="39.8923965" lon="9.6504519"><ele>42.333333333333336</ele><time>2026-05-02T07:14:06.192Z</time></trkpt><trkpt lat="39.892606" lon="9.650364"><ele>42.66666666666667</ele><time>2026-05-02T07:14:07.192Z</time></trkpt><trkpt lat="39.8928172" lon="9.650278"><ele>43.0</ele><time>2026-05-02T07:14:08.193Z</time></trkpt><trkpt lat="39.8930314" lon="9.6501902"><ele>43.333333333333336</ele><time>2026-05-02T07:14:09.193Z</time></trkpt><trkpt lat="39.8932456" lon="9.6501007"><ele>43.666666666666664</ele><time>2026-05-02T07:14:10.192Z</time></trkpt><trkpt lat="39.8934582" lon="9.6500127"><ele>44.0</ele><time>2026-05-02T07:14:11.193Z</time></trkpt><trkpt lat="39.8936693" lon="9.6499249"><ele>44.33333333333333</ele><time>2026-05-02T07:14:12.193Z</time></trkpt><trkpt lat="39.893882" lon="9.649838"><ele>44.666666666666664</ele><time>2026-05-02T07:14:13.193Z</time></trkpt><trkpt lat="39.8940968" lon="9.6497499"><ele>45.0</ele><time>2026-05-02T07:14:14.193Z</time></trkpt><trkpt lat="39.8943122" lon="9.649661"><ele>46.5</ele><time>2026-05-02T07:14:15.193Z</time></trkpt><trkpt lat="39.8945296" lon="9.6495713"><ele>48.0</ele><time>2026-05-02T07:14:16.193Z</time></trkpt><trkpt lat="39.8947429" lon="9.6494823"><ele>48.33333333333333</ele><time>2026-05-02T07:14:17.192Z</time></trkpt><trkpt lat="39.8949463" lon="9.649399"><ele>48.666666666666664</ele><time>2026-05-02T07:14:18.193Z</time></trkpt><trkpt lat="39.8951389" lon="9.6493209"><ele>49.0</ele><time>2026-05-02T07:14:19.193Z</time></trkpt><trkpt lat="39.8953233" lon="9.6492449"><ele>49.33333333333333</ele><time>2026-05-02T07:14:20.192Z</time></trkpt><trkpt lat="39.8955066" lon="9.6491707"><ele>49.66666666666667</ele><time>2026-05-02T07:14:21.192Z</time></trkpt><trkpt lat="39.8956893" lon="9.6491041"><ele>50.0</ele><time>2026-05-02T07:14:22.192Z</time></trkpt><trkpt lat="39.8958741" lon="9.649051"><ele>49.0</ele><time>2026-05-02T07:14:23.192Z</time></trkpt><trkpt lat="39.8960621" lon="9.6490115"><ele>48.0</ele><time>2026-05-02T07:14:24.193Z</time></trkpt><trkpt lat="39.8962523" lon="9.6489891"><ele>47.0</ele><time>2026-05-02T07:14:25.192Z</time></trkpt><trkpt lat="39.8964438" lon="9.6489794"><ele>47.0</ele><time>2026-05-02T07:14:26.192Z</time></trkpt><trkpt lat="39.8966369" lon="9.6489807"><ele>47.0</ele><time>2026-05-02T07:14:27.193Z</time></trkpt><trkpt lat="39.8968307" lon="9.6489885"><ele>47.0</ele><time>2026-05-02T07:14:28.192Z</time></trkpt><trkpt lat="39.8970266" lon="9.649001"><ele>46.33333333333333</ele><time>2026-05-02T07:14:29.192Z</time></trkpt><trkpt lat="39.8972261" lon="9.6490147"><ele>45.666666666666664</ele><time>2026-05-02T07:14:30.193Z</time></trkpt><trkpt lat="39.8974306" lon="9.6490294"><ele>45.0</ele><time>2026-05-02T07:14:31.192Z</time></trkpt><trkpt lat="39.8976385" lon="9.6490437"><ele>44.333333333333336</ele><time>2026-05-02T07:14:32.193Z</time></trkpt><trkpt lat="39.8978486" lon="9.6490583"><ele>43.66666666666667</ele><time>2026-05-02T07:14:33.193Z</time></trkpt><trkpt lat="39.8980623" lon="9.6490737"><ele>43.0</ele><time>2026-05-02T07:14:34.193Z</time></trkpt><trkpt lat="39.8982706" lon="9.6490879"><ele>42.66666666666667</ele><time>2026-05-02T07:14:35.193Z</time></trkpt><trkpt lat="39.8984721" lon="9.6491025"><ele>42.333333333333336</ele><time>2026-05-02T07:14:36.192Z</time></trkpt><trkpt lat="39.8986802" lon="9.6491163"><ele>42.0</ele><time>2026-05-02T07:14:37.192Z</time></trkpt><trkpt lat="39.8988909" lon="9.6491293"><ele>42.0</ele><time>2026-05-02T07:14:38.192Z</time></trkpt><trkpt lat="39.8991058" lon="9.6491428"><ele>42.0</ele><time>2026-05-02T07:14:39.193Z</time></trkpt><trkpt lat="39.8993244" lon="9.6491566"><ele>42.0</ele><time>2026-05-02T07:14:40.192Z</time></trkpt><trkpt lat="39.8995466" lon="9.6491713"><ele>41.0</ele><time>2026-05-02T07:14:41.193Z</time></trkpt><trkpt lat="39.8997718" lon="9.6491862"><ele>40.0</ele><time>2026-05-02T07:14:42.193Z</time></trkpt><trkpt lat="39.8999936" lon="9.6492012"><ele>39.0</ele><time>2026-05-02T07:14:43.192Z</time></trkpt><trkpt lat="39.9002093" lon="9.6492156"><ele>39.0</ele><time>2026-05-02T07:14:44.193Z</time></trkpt><trkpt lat="39.9004259" lon="9.6492312"><ele>39.0</ele><time>2026-05-02T07:14:45.192Z</time></trkpt><trkpt lat="39.9006412" lon="9.6492457"><ele>39.0</ele><time>2026-05-02T07:14:46.193Z</time></trkpt><trkpt lat="39.9008569" lon="9.6492607"><ele>38.666666666666664</ele><time>2026-05-02T07:14:47.192Z</time></trkpt><trkpt lat="39.901075" lon="9.6492755"><ele>38.33333333333333</ele><time>2026-05-02T07:14:48.192Z</time></trkpt><trkpt lat="39.9012953" lon="9.6492901"><ele>38.0</ele><time>2026-05-02T07:14:49.192Z</time></trkpt><trkpt lat="39.9015184" lon="9.6493046"><ele>38.0</ele><time>2026-05-02T07:14:50.192Z</time></trkpt><trkpt lat="39.9017445" lon="9.6493201"><ele>38.0</ele><time>2026-05-02T07:14:51.193Z</time></trkpt><trkpt lat="39.9019744" lon="9.6493354"><ele>36.5</ele><time>2026-05-02T07:14:52.192Z</time></trkpt><trkpt lat="39.9022066" lon="9.6493505"><ele>35.0</ele><time>2026-05-02T07:14:53.193Z</time></trkpt><trkpt lat="39.9024393" lon="9.6493663"><ele>34.0</ele><time>2026-05-02T07:14:54.192Z</time></trkpt><trkpt lat="39.9026735" lon="9.6493828"><ele>33.0</ele><time>2026-05-02T07:14:55.192Z</time></trkpt><trkpt lat="39.9029085" lon="9.6493993"><ele>33.0</ele><time>2026-05-02T07:14:56.193Z</time></trkpt><trkpt lat="39.9031441" lon="9.6494155"><ele>33.0</ele><time>2026-05-02T07:14:57.193Z</time></trkpt><trkpt lat="39.9033807" lon="9.6494314"><ele>32.5</ele><time>2026-05-02T07:14:58.192Z</time></trkpt><trkpt lat="39.9036177" lon="9.6494461"><ele>32.0</ele><time>2026-05-02T07:14:59.193Z</time></trkpt><trkpt lat="39.9038567" lon="9.6494615"><ele>32.0</ele><time>2026-05-02T07:15:00.193Z</time></trkpt><trkpt lat="39.9040956" lon="9.6494764"><ele>32.0</ele><time>2026-05-02T07:15:01.192Z</time></trkpt><trkpt lat="39.9043319" lon="9.6494916"><ele>31.5</ele><time>2026-05-02T07:15:02.192Z</time></trkpt><trkpt lat="39.9045665" lon="9.649506"><ele>31.0</ele><time>2026-05-02T07:15:03.192Z</time></trkpt><trkpt lat="39.904793" lon="9.6495218"><ele>31.0</ele><time>2026-05-02T07:15:04.192Z</time></trkpt><trkpt lat="39.9050111" lon="9.6495352"><ele>31.0</ele><time>2026-05-02T07:15:05.193Z</time></trkpt><trkpt lat="39.9052263" lon="9.6495483"><ele>31.0</ele><time>2026-05-02T07:15:06.192Z</time></trkpt><trkpt lat="39.9054437" lon="9.649561"><ele>30.666666666666668</ele><time>2026-05-02T07:15:07.193Z</time></trkpt><trkpt lat="39.905663" lon="9.6495753"><ele>30.333333333333336</ele><time>2026-05-02T07:15:08.192Z</time></trkpt><trkpt lat="39.9058834" lon="9.6495887"><ele>30.0</ele><time>2026-05-02T07:15:09.193Z</time></trkpt><trkpt lat="39.9061066" lon="9.6496037"><ele>29.333333333333336</ele><time>2026-05-02T07:15:10.193Z</time></trkpt><trkpt lat="39.9063293" lon="9.6496204"><ele>28.666666666666668</ele><time>2026-05-02T07:15:11.192Z</time></trkpt><trkpt lat="39.9065517" lon="9.6496361"><ele>28.0</ele><time>2026-05-02T07:15:12.192Z</time></trkpt><trkpt lat="39.9067739" lon="9.6496509"><ele>28.0</ele><time>2026-05-02T07:15:13.192Z</time></trkpt><trkpt lat="39.9069956" lon="9.6496669"><ele>28.0</ele><time>2026-05-02T07:15:14.192Z</time></trkpt><trkpt lat="39.9072139" lon="9.6496851"><ele>28.0</ele><time>2026-05-02T07:15:15.193Z</time></trkpt><trkpt lat="39.9074227" lon="9.6497017"><ele>26.666666666666668</ele><time>2026-05-02T07:15:16.192Z</time></trkpt><trkpt lat="39.9076272" lon="9.6497147"><ele>25.333333333333336</ele><time>2026-05-02T07:15:17.192Z</time></trkpt><trkpt lat="39.9078336" lon="9.6497277"><ele>24.0</ele><time>2026-05-02T07:15:18.192Z</time></trkpt><trkpt lat="39.9080393" lon="9.6497421"><ele>24.0</ele><time>2026-05-02T07:15:19.192Z</time></trkpt><trkpt lat="39.9082471" lon="9.6497542"><ele>24.0</ele><time>2026-05-02T07:15:20.193Z</time></trkpt><trkpt lat="39.9084607" lon="9.6497676"><ele>24.0</ele><time>2026-05-02T07:15:21.193Z</time></trkpt><trkpt lat="39.9086813" lon="9.6497845"><ele>23.5</ele><time>2026-05-02T07:15:22.192Z</time></trkpt><trkpt lat="39.9089058" lon="9.6497985"><ele>23.0</ele><time>2026-05-02T07:15:23.192Z</time></trkpt><trkpt lat="39.9091352" lon="9.6498141"><ele>22.5</ele><time>2026-05-02T07:15:24.193Z</time></trkpt><trkpt lat="39.9093667" lon="9.6498303"><ele>22.0</ele><time>2026-05-02T07:15:25.193Z</time></trkpt><trkpt lat="39.9096011" lon="9.6498459"><ele>22.0</ele><time>2026-05-02T07:15:26.193Z</time></trkpt><trkpt lat="39.9098381" lon="9.64986"><ele>22.0</ele><time>2026-05-02T07:15:27.193Z</time></trkpt><trkpt lat="39.9100778" lon="9.6498735"><ele>22.0</ele><time>2026-05-02T07:15:28.193Z</time></trkpt><trkpt lat="39.9103157" lon="9.6498879"><ele>22.0</ele><time>2026-05-02T07:15:29.193Z</time></trkpt><trkpt lat="39.9105491" lon="9.6499029"><ele>22.0</ele><time>2026-05-02T07:15:30.192Z</time></trkpt><trkpt lat="39.9107811" lon="9.6499218"><ele>22.0</ele><time>2026-05-02T07:15:31.193Z</time></trkpt><trkpt lat="39.9110052" lon="9.6499418"><ele>21.666666666666664</ele><time>2026-05-02T07:15:32.192Z</time></trkpt><trkpt lat="39.9112206" lon="9.6499646"><ele>21.333333333333332</ele><time>2026-05-02T07:15:33.192Z</time></trkpt><trkpt lat="39.9114258" lon="9.6499924"><ele>21.0</ele><time>2026-05-02T07:15:34.192Z</time></trkpt><trkpt lat="39.9116209" lon="9.6500222"><ele>21.333333333333332</ele><time>2026-05-02T07:15:35.192Z</time></trkpt><trkpt lat="39.9118096" lon="9.650054"><ele>21.666666666666664</ele><time>2026-05-02T07:15:36.192Z</time></trkpt><trkpt lat="39.9119943" lon="9.6500862"><ele>22.0</ele><time>2026-05-02T07:15:37.192Z</time></trkpt><trkpt lat="39.9121805" lon="9.6501196"><ele>22.0</ele><time>2026-05-02T07:15:38.192Z</time></trkpt><trkpt lat="39.912366" lon="9.6501507"><ele>22.0</ele><time>2026-05-02T07:15:39.192Z</time></trkpt><trkpt lat="39.9125516" lon="9.6501806"><ele>22.0</ele><time>2026-05-02T07:15:40.193Z</time></trkpt><trkpt lat="39.912741" lon="9.6502098"><ele>22.333333333333332</ele><time>2026-05-02T07:15:41.192Z</time></trkpt><trkpt lat="39.9129364" lon="9.650235"><ele>22.666666666666668</ele><time>2026-05-02T07:15:42.192Z</time></trkpt><trkpt lat="39.9131359" lon="9.6502553"><ele>23.0</ele><time>2026-05-02T07:15:43.192Z</time></trkpt><trkpt lat="39.9133404" lon="9.6502699"><ele>23.666666666666668</ele><time>2026-05-02T07:15:44.192Z</time></trkpt><trkpt lat="39.9135472" lon="9.6502868"><ele>24.333333333333336</ele><time>2026-05-02T07:15:45.192Z</time></trkpt><trkpt lat="39.9137563" lon="9.6503004"><ele>25.0</ele><time>2026-05-02T07:15:46.193Z</time></trkpt><trkpt lat="39.9139676" lon="9.6503158"><ele>23.333333333333336</ele><time>2026-05-02T07:15:47.192Z</time></trkpt><trkpt lat="39.9141815" lon="9.6503362"><ele>21.666666666666668</ele><time>2026-05-02T07:15:48.192Z</time></trkpt><trkpt lat="39.9143964" lon="9.650358"><ele>20.0</ele><time>2026-05-02T07:15:49.193Z</time></trkpt><trkpt lat="39.9146133" lon="9.6503902"><ele>19.666666666666668</ele><time>2026-05-02T07:15:50.192Z</time></trkpt><trkpt lat="39.9148296" lon="9.6504367"><ele>19.333333333333332</ele><time>2026-05-02T07:15:51.192Z</time></trkpt><trkpt lat="39.9150447" lon="9.6504951"><ele>19.0</ele><time>2026-05-02T07:15:52.193Z</time></trkpt><trkpt lat="39.9152565" lon="9.6505656"><ele>18.333333333333332</ele><time>2026-05-02T07:15:53.193Z</time></trkpt><trkpt lat="39.9154645" lon="9.6506454"><ele>17.666666666666668</ele><time>2026-05-02T07:15:54.193Z</time></trkpt><trkpt lat="39.9156543" lon="9.6507231"><ele>17.0</ele><time>2026-05-02T07:15:55.192Z</time></trkpt><trkpt lat="39.9158265" lon="9.6507898"><ele>17.5</ele><time>2026-05-02T07:15:56.192Z</time></trkpt><trkpt lat="39.9159795" lon="9.650835"><ele>18.0</ele><time>2026-05-02T07:15:57.192Z</time></trkpt><trkpt lat="39.9161147" lon="9.6508358"><ele>18.5</ele><time>2026-05-02T07:15:58.192Z</time></trkpt><trkpt lat="39.9162405" lon="9.6507955"><ele>19.0</ele><time>2026-05-02T07:15:59.192Z</time></trkpt><trkpt lat="39.9163455" lon="9.6507239"><ele>19.0</ele><time>2026-05-02T07:16:00.193Z</time></trkpt><trkpt lat="39.9164352" lon="9.6506366"><ele>19.0</ele><time>2026-05-02T07:16:01.193Z</time></trkpt><trkpt lat="39.9165334" lon="9.6505659"><ele>19.0</ele><time>2026-05-02T07:16:02.193Z</time></trkpt><trkpt lat="39.9166381" lon="9.6505141"><ele>19.0</ele><time>2026-05-02T07:16:03.192Z</time></trkpt><trkpt lat="39.916727" lon="9.6504255"><ele>19.0</ele><time>2026-05-02T07:16:04.193Z</time></trkpt><trkpt lat="39.9168064" lon="9.6503098"><ele>18.75</ele><time>2026-05-02T07:16:05.193Z</time></trkpt><trkpt lat="39.916908" lon="9.6501949"><ele>18.5</ele><time>2026-05-02T07:16:06.193Z</time></trkpt><trkpt lat="39.9170347" lon="9.6500955"><ele>18.25</ele><time>2026-05-02T07:16:07.193Z</time></trkpt><trkpt lat="39.917183" lon="9.6500116"><ele>18.0</ele><time>2026-05-02T07:16:08.193Z</time></trkpt><trkpt lat="39.9173503" lon="9.6499343"><ele>18.0</ele><time>2026-05-02T07:16:09.192Z</time></trkpt><trkpt lat="39.9175329" lon="9.6498561"><ele>18.0</ele><time>2026-05-02T07:16:10.192Z</time></trkpt><trkpt lat="39.9177268" lon="9.6497795"><ele>18.0</ele><time>2026-05-02T07:16:11.193Z</time></trkpt><trkpt lat="39.9179244" lon="9.6497077"><ele>18.333333333333332</ele><time>2026-05-02T07:16:12.193Z</time></trkpt><trkpt lat="39.9181265" lon="9.6496375"><ele>18.666666666666664</ele><time>2026-05-02T07:16:13.193Z</time></trkpt><trkpt lat="39.9183339" lon="9.6495691"><ele>19.0</ele><time>2026-05-02T07:16:14.192Z</time></trkpt><trkpt lat="39.9185452" lon="9.6494999"><ele>20.0</ele><time>2026-05-02T07:16:15.193Z</time></trkpt><trkpt lat="39.9187582" lon="9.6494296"><ele>21.0</ele><time>2026-05-02T07:16:16.193Z</time></trkpt><trkpt lat="39.9189757" lon="9.6493588"><ele>22.0</ele><time>2026-05-02T07:16:17.192Z</time></trkpt><trkpt lat="39.9191956" lon="9.6492885"><ele>20.0</ele><time>2026-05-02T07:16:18.193Z</time></trkpt><trkpt lat="39.9194154" lon="9.6492188"><ele>18.0</ele><time>2026-05-02T07:16:19.192Z</time></trkpt><trkpt lat="39.9196374" lon="9.6491494"><ele>18.0</ele><time>2026-05-02T07:16:20.193Z</time></trkpt><trkpt lat="39.9198607" lon="9.6490805"><ele>18.0</ele><time>2026-05-02T07:16:21.192Z</time></trkpt><trkpt lat="39.9200843" lon="9.6490087"><ele>18.5</ele><time>2026-05-02T07:16:22.193Z</time></trkpt><trkpt lat="39.9203075" lon="9.6489363"><ele>19.0</ele><time>2026-05-02T07:16:23.193Z</time></trkpt><trkpt lat="39.9205286" lon="9.6488675"><ele>19.0</ele><time>2026-05-02T07:16:24.193Z</time></trkpt><trkpt lat="39.9207386" lon="9.6487991"><ele>19.0</ele><time>2026-05-02T07:16:25.193Z</time></trkpt><trkpt lat="39.9209391" lon="9.6487378"><ele>19.0</ele><time>2026-05-02T07:16:26.192Z</time></trkpt><trkpt lat="39.9211317" lon="9.6486749"><ele>19.0</ele><time>2026-05-02T07:16:27.193Z</time></trkpt><trkpt lat="39.9213145" lon="9.6486162"><ele>19.0</ele><time>2026-05-02T07:16:28.192Z</time></trkpt><trkpt lat="39.9214911" lon="9.6485607"><ele>19.0</ele><time>2026-05-02T07:16:29.192Z</time></trkpt><trkpt lat="39.9216628" lon="9.6485071"><ele>18.666666666666664</ele><time>2026-05-02T07:16:30.193Z</time></trkpt><trkpt lat="39.9218356" lon="9.6484532"><ele>18.333333333333332</ele><time>2026-05-02T07:16:31.193Z</time></trkpt><trkpt lat="39.9220082" lon="9.6484"><ele>18.0</ele><time>2026-05-02T07:16:32.192Z</time></trkpt><trkpt lat="39.9221813" lon="9.6483467"><ele>18.0</ele><time>2026-05-02T07:16:33.192Z</time></trkpt><trkpt lat="39.9223544" lon="9.648292"><ele>18.0</ele><time>2026-05-02T07:16:34.192Z</time></trkpt><trkpt lat="39.9225285" lon="9.6482358"><ele>18.0</ele><time>2026-05-02T07:16:35.193Z</time></trkpt><trkpt lat="39.9227056" lon="9.6481796"><ele>18.333333333333332</ele><time>2026-05-02T07:16:36.192Z</time></trkpt><trkpt lat="39.9228854" lon="9.6481236"><ele>18.666666666666664</ele><time>2026-05-02T07:16:37.192Z</time></trkpt><trkpt lat="39.9230719" lon="9.6480655"><ele>19.0</ele><time>2026-05-02T07:16:38.192Z</time></trkpt><trkpt lat="39.9232655" lon="9.6480042"><ele>19.333333333333332</ele><time>2026-05-02T07:16:39.193Z</time></trkpt><trkpt lat="39.9234618" lon="9.6479424"><ele>19.666666666666668</ele><time>2026-05-02T07:16:40.192Z</time></trkpt><trkpt lat="39.9236597" lon="9.6478793"><ele>20.0</ele><time>2026-05-02T07:16:41.193Z</time></trkpt><trkpt lat="39.9238604" lon="9.6478154"><ele>20.333333333333336</ele><time>2026-05-02T07:16:42.192Z</time></trkpt><trkpt lat="39.9240623" lon="9.6477521"><ele>20.666666666666668</ele><time>2026-05-02T07:16:43.193Z</time></trkpt><trkpt lat="39.9242677" lon="9.6476884"><ele>21.0</ele><time>2026-05-02T07:16:44.193Z</time></trkpt><trkpt lat="39.9244751" lon="9.6476225"><ele>22.0</ele><time>2026-05-02T07:16:45.192Z</time></trkpt><trkpt lat="39.9246849" lon="9.6475551"><ele>23.0</ele><time>2026-05-02T07:16:46.193Z</time></trkpt><trkpt lat="39.9248969" lon="9.6474874"><ele>24.0</ele><time>2026-05-02T07:16:47.193Z</time></trkpt><trkpt lat="39.9250998" lon="9.6474196"><ele>24.0</ele><time>2026-05-02T07:16:48.192Z</time></trkpt><trkpt lat="39.925293" lon="9.6473526"><ele>24.0</ele><time>2026-05-02T07:16:49.193Z</time></trkpt><trkpt lat="39.9254844" lon="9.6472844"><ele>24.0</ele><time>2026-05-02T07:16:50.192Z</time></trkpt><trkpt lat="39.925676" lon="9.6472202"><ele>24.0</ele><time>2026-05-02T07:16:51.192Z</time></trkpt><trkpt lat="39.925868" lon="9.6471553"><ele>24.0</ele><time>2026-05-02T07:16:52.193Z</time></trkpt><trkpt lat="39.9260648" lon="9.6470917"><ele>24.0</ele><time>2026-05-02T07:16:53.192Z</time></trkpt><trkpt lat="39.9262671" lon="9.6470279"><ele>24.0</ele><time>2026-05-02T07:16:54.192Z</time></trkpt><trkpt lat="39.9264737" lon="9.6469644"><ele>24.0</ele><time>2026-05-02T07:16:55.192Z</time></trkpt><trkpt lat="39.9266797" lon="9.6469018"><ele>24.0</ele><time>2026-05-02T07:16:56.192Z</time></trkpt><trkpt lat="39.9268815" lon="9.6468393"><ele>25.333333333333336</ele><time>2026-05-02T07:16:57.193Z</time></trkpt><trkpt lat="39.9270802" lon="9.646778"><ele>26.666666666666668</ele><time>2026-05-02T07:16:58.193Z</time></trkpt><trkpt lat="39.9272769" lon="9.646715"><ele>28.0</ele><time>2026-05-02T07:16:59.192Z</time></trkpt><trkpt lat="39.927473" lon="9.6466515"><ele>28.0</ele><time>2026-05-02T07:17:00.192Z</time></trkpt><trkpt lat="39.9276708" lon="9.6465884"><ele>28.0</ele><time>2026-05-02T07:17:01.193Z</time></trkpt><trkpt lat="39.9278716" lon="9.6465254"><ele>28.0</ele><time>2026-05-02T07:17:02.193Z</time></trkpt><trkpt lat="39.9280786" lon="9.6464618"><ele>28.0</ele><time>2026-05-02T07:17:03.192Z</time></trkpt><trkpt lat="39.9282869" lon="9.6463996"><ele>28.0</ele><time>2026-05-02T07:17:04.193Z</time></trkpt><trkpt lat="39.9284953" lon="9.6463414"><ele>28.0</ele><time>2026-05-02T07:17:05.193Z</time></trkpt><trkpt lat="39.9287055" lon="9.6462928"><ele>28.333333333333336</ele><time>2026-05-02T07:17:06.192Z</time></trkpt><trkpt lat="39.9289178" lon="9.646253"><ele>28.666666666666664</ele><time>2026-05-02T07:17:07.192Z</time></trkpt><trkpt lat="39.9291341" lon="9.6462229"><ele>29.0</ele><time>2026-05-02T07:17:08.193Z</time></trkpt><trkpt lat="39.9293529" lon="9.6462045"><ele>30.0</ele><time>2026-05-02T07:17:09.192Z</time></trkpt><trkpt lat="39.9295711" lon="9.6461965"><ele>31.0</ele><time>2026-05-02T07:17:10.192Z</time></trkpt><trkpt lat="39.9297863" lon="9.6461998"><ele>32.0</ele><time>2026-05-02T07:17:11.192Z</time></trkpt><trkpt lat="39.9299987" lon="9.6462149"><ele>31.333333333333332</ele><time>2026-05-02T07:17:12.192Z</time></trkpt><trkpt lat="39.9302111" lon="9.646237"><ele>30.666666666666664</ele><time>2026-05-02T07:17:13.192Z</time></trkpt><trkpt lat="39.9304231" lon="9.6462667"><ele>30.0</ele><time>2026-05-02T07:17:14.193Z</time></trkpt><trkpt lat="39.930636" lon="9.6462966"><ele>30.0</ele><time>2026-05-02T07:17:15.192Z</time></trkpt><trkpt lat="39.9308486" lon="9.6463248"><ele>30.0</ele><time>2026-05-02T07:17:16.193Z</time></trkpt><trkpt lat="39.9310581" lon="9.6463524"><ele>30.0</ele><time>2026-05-02T07:17:17.192Z</time></trkpt><trkpt lat="39.9312665" lon="9.6463803"><ele>30.0</ele><time>2026-05-02T07:17:18.192Z</time></trkpt><trkpt lat="39.9314735" lon="9.6464085"><ele>30.0</ele><time>2026-05-02T07:17:19.192Z</time></trkpt><trkpt lat="39.9316791" lon="9.6464361"><ele>30.0</ele><time>2026-05-02T07:17:20.192Z</time></trkpt><trkpt lat="39.93188" lon="9.6464636"><ele>29.0</ele><time>2026-05-02T07:17:21.193Z</time></trkpt><trkpt lat="39.9320834" lon="9.6464911"><ele>28.0</ele><time>2026-05-02T07:17:22.192Z</time></trkpt><trkpt lat="39.9322856" lon="9.6465187"><ele>27.0</ele><time>2026-05-02T07:17:23.192Z</time></trkpt><trkpt lat="39.9324825" lon="9.6465474"><ele>27.0</ele><time>2026-05-02T07:17:24.193Z</time></trkpt><trkpt lat="39.932669" lon="9.6465735"><ele>27.0</ele><time>2026-05-02T07:17:25.192Z</time></trkpt><trkpt lat="39.9328551" lon="9.6465998"><ele>27.0</ele><time>2026-05-02T07:17:26.193Z</time></trkpt><trkpt lat="39.9330414" lon="9.6466239"><ele>27.0</ele><time>2026-05-02T07:17:27.193Z</time></trkpt><trkpt lat="39.9332276" lon="9.6466521"><ele>27.0</ele><time>2026-05-02T07:17:28.193Z</time></trkpt><trkpt lat="39.9334206" lon="9.6466779"><ele>27.0</ele><time>2026-05-02T07:17:29.192Z</time></trkpt><trkpt lat="39.933622" lon="9.6467076"><ele>27.333333333333336</ele><time>2026-05-02T07:17:30.192Z</time></trkpt><trkpt lat="39.9338255" lon="9.6467363"><ele>27.666666666666668</ele><time>2026-05-02T07:17:31.192Z</time></trkpt><trkpt lat="39.9340326" lon="9.6467668"><ele>28.0</ele><time>2026-05-02T07:17:32.193Z</time></trkpt><trkpt lat="39.9342434" lon="9.6467951"><ele>28.333333333333336</ele><time>2026-05-02T07:17:33.193Z</time></trkpt><trkpt lat="39.9344545" lon="9.6468251"><ele>28.666666666666664</ele><time>2026-05-02T07:17:34.192Z</time></trkpt><trkpt lat="39.9346687" lon="9.6468553"><ele>29.0</ele><time>2026-05-02T07:17:35.193Z</time></trkpt><trkpt lat="39.9348859" lon="9.6468847"><ele>29.333333333333332</ele><time>2026-05-02T07:17:36.193Z</time></trkpt><trkpt lat="39.935105" lon="9.6469157"><ele>29.666666666666664</ele><time>2026-05-02T07:17:37.193Z</time></trkpt><trkpt lat="39.9353227" lon="9.6469455"><ele>30.0</ele><time>2026-05-02T07:17:38.192Z</time></trkpt><trkpt lat="39.9355359" lon="9.6469751"><ele>28.333333333333336</ele><time>2026-05-02T07:17:39.192Z</time></trkpt><trkpt lat="39.9357414" lon="9.647005"><ele>26.666666666666668</ele><time>2026-05-02T07:17:40.193Z</time></trkpt><trkpt lat="39.935945" lon="9.6470344"><ele>25.0</ele><time>2026-05-02T07:17:41.193Z</time></trkpt><trkpt lat="39.9361491" lon="9.6470643"><ele>25.0</ele><time>2026-05-02T07:17:42.192Z</time></trkpt><trkpt lat="39.9363501" lon="9.6470945"><ele>25.0</ele><time>2026-05-02T07:17:43.193Z</time></trkpt><trkpt lat="39.9365518" lon="9.6471214"><ele>25.0</ele><time>2026-05-02T07:17:44.193Z</time></trkpt><trkpt lat="39.9367512" lon="9.6471506"><ele>25.0</ele><time>2026-05-02T07:17:45.193Z</time></trkpt><trkpt lat="39.9369523" lon="9.6471788"><ele>25.0</ele><time>2026-05-02T07:17:46.193Z</time></trkpt><trkpt lat="39.9371562" lon="9.6472086"><ele>25.0</ele><time>2026-05-02T07:17:47.192Z</time></trkpt><trkpt lat="39.9373648" lon="9.6472382"><ele>25.333333333333336</ele><time>2026-05-02T07:17:48.192Z</time></trkpt><trkpt lat="39.9375767" lon="9.6472705"><ele>25.666666666666664</ele><time>2026-05-02T07:17:49.193Z</time></trkpt><trkpt lat="39.9377932" lon="9.6473019"><ele>26.0</ele><time>2026-05-02T07:17:50.193Z</time></trkpt><trkpt lat="39.9380132" lon="9.6473336"><ele>26.0</ele><time>2026-05-02T07:17:51.192Z</time></trkpt><trkpt lat="39.9382371" lon="9.6473632"><ele>26.0</ele><time>2026-05-02T07:17:52.193Z</time></trkpt><trkpt lat="39.9384608" lon="9.6473911"><ele>26.0</ele><time>2026-05-02T07:17:53.192Z</time></trkpt><trkpt lat="39.9386843" lon="9.6474235"><ele>26.0</ele><time>2026-05-02T07:17:54.193Z</time></trkpt><trkpt lat="39.9389079" lon="9.6474532"><ele>26.0</ele><time>2026-05-02T07:17:55.193Z</time></trkpt><trkpt lat="39.9391307" lon="9.6474855"><ele>26.0</ele><time>2026-05-02T07:17:56.192Z</time></trkpt><trkpt lat="39.9393473" lon="9.6475152"><ele>26.0</ele><time>2026-05-02T07:17:57.193Z</time></trkpt><trkpt lat="39.9395629" lon="9.6475448"><ele>26.0</ele><time>2026-05-02T07:17:58.192Z</time></trkpt><trkpt lat="39.939782" lon="9.6475767"><ele>26.0</ele><time>2026-05-02T07:17:59.192Z</time></trkpt><trkpt lat="39.9400038" lon="9.6476132"><ele>26.0</ele><time>2026-05-02T07:18:00.192Z</time></trkpt><trkpt lat="39.9402277" lon="9.6476481"><ele>26.0</ele><time>2026-05-02T07:18:01.193Z</time></trkpt><trkpt lat="39.9404533" lon="9.6476805"><ele>26.0</ele><time>2026-05-02T07:18:02.192Z</time></trkpt><trkpt lat="39.9406776" lon="9.6477141"><ele>25.666666666666664</ele><time>2026-05-02T07:18:03.192Z</time></trkpt><trkpt lat="39.9409022" lon="9.6477432"><ele>25.333333333333336</ele><time>2026-05-02T07:18:04.193Z</time></trkpt><trkpt lat="39.9411234" lon="9.6477736"><ele>25.0</ele><time>2026-05-02T07:18:05.192Z</time></trkpt><trkpt lat="39.9413448" lon="9.6478042"><ele>24.666666666666668</ele><time>2026-05-02T07:18:06.192Z</time></trkpt><trkpt lat="39.9415677" lon="9.6478337"><ele>24.333333333333336</ele><time>2026-05-02T07:18:07.193Z</time></trkpt><trkpt lat="39.9417913" lon="9.6478613"><ele>24.0</ele><time>2026-05-02T07:18:08.192Z</time></trkpt><trkpt lat="39.9420143" lon="9.6478901"><ele>24.0</ele><time>2026-05-02T07:18:09.193Z</time></trkpt><trkpt lat="39.9422371" lon="9.6479198"><ele>24.0</ele><time>2026-05-02T07:18:10.193Z</time></trkpt><trkpt lat="39.9424581" lon="9.6479524"><ele>24.0</ele><time>2026-05-02T07:18:11.193Z</time></trkpt><trkpt lat="39.9426689" lon="9.6479846"><ele>24.0</ele><time>2026-05-02T07:18:12.193Z</time></trkpt><trkpt lat="39.9428703" lon="9.6480137"><ele>24.0</ele><time>2026-05-02T07:18:13.193Z</time></trkpt><trkpt lat="39.9430506" lon="9.6480388"><ele>24.0</ele><time>2026-05-02T07:18:14.193Z</time></trkpt><trkpt lat="39.9432203" lon="9.6480623"><ele>23.0</ele><time>2026-05-02T07:18:15.192Z</time></trkpt><trkpt lat="39.9433849" lon="9.6480861"><ele>22.0</ele><time>2026-05-02T07:18:16.192Z</time></trkpt><trkpt lat="39.9435449" lon="9.6481082"><ele>21.0</ele><time>2026-05-02T07:18:17.192Z</time></trkpt><trkpt lat="39.9437068" lon="9.6481301"><ele>21.0</ele><time>2026-05-02T07:18:18.193Z</time></trkpt><trkpt lat="39.943873" lon="9.6481556"><ele>21.0</ele><time>2026-05-02T07:18:19.193Z</time></trkpt><trkpt lat="39.9440433" lon="9.6481802"><ele>21.0</ele><time>2026-05-02T07:18:20.193Z</time></trkpt><trkpt lat="39.9442163" lon="9.6482054"><ele>20.666666666666668</ele><time>2026-05-02T07:18:21.192Z</time></trkpt><trkpt lat="39.9443944" lon="9.6482311"><ele>20.333333333333336</ele><time>2026-05-02T07:18:22.193Z</time></trkpt><trkpt lat="39.944575" lon="9.6482548"><ele>20.0</ele><time>2026-05-02T07:18:23.192Z</time></trkpt><trkpt lat="39.9447474" lon="9.6482766"><ele>20.0</ele><time>2026-05-02T07:18:24.192Z</time></trkpt><trkpt lat="39.9449227" lon="9.6482995"><ele>20.0</ele><time>2026-05-02T07:18:25.192Z</time></trkpt><trkpt lat="39.9450991" lon="9.6483244"><ele>20.0</ele><time>2026-05-02T07:18:26.193Z</time></trkpt><trkpt lat="39.9452765" lon="9.6483475"><ele>19.333333333333336</ele><time>2026-05-02T07:18:27.192Z</time></trkpt><trkpt lat="39.9454487" lon="9.6483732"><ele>18.666666666666668</ele><time>2026-05-02T07:18:28.192Z</time></trkpt><trkpt lat="39.9456142" lon="9.6483964"><ele>18.0</ele><time>2026-05-02T07:18:29.192Z</time></trkpt><trkpt lat="39.9457793" lon="9.6484186"><ele>18.666666666666668</ele><time>2026-05-02T07:18:30.193Z</time></trkpt><trkpt lat="39.9459511" lon="9.6484436"><ele>19.333333333333336</ele><time>2026-05-02T07:18:31.193Z</time></trkpt><trkpt lat="39.9461394" lon="9.648469"><ele>20.0</ele><time>2026-05-02T07:18:32.192Z</time></trkpt><trkpt lat="39.9463345" lon="9.6484977"><ele>20.0</ele><time>2026-05-02T07:18:33.192Z</time></trkpt><trkpt lat="39.9465268" lon="9.6485254"><ele>20.0</ele><time>2026-05-02T07:18:34.192Z</time></trkpt><trkpt lat="39.9467231" lon="9.6485532"><ele>20.0</ele><time>2026-05-02T07:18:35.193Z</time></trkpt><trkpt lat="39.9469237" lon="9.6485839"><ele>20.333333333333336</ele><time>2026-05-02T07:18:36.192Z</time></trkpt><trkpt lat="39.947129" lon="9.6486099"><ele>20.666666666666668</ele><time>2026-05-02T07:18:37.192Z</time></trkpt><trkpt lat="39.9473383" lon="9.6486375"><ele>21.0</ele><time>2026-05-02T07:18:38.193Z</time></trkpt><trkpt lat="39.9475461" lon="9.6486655"><ele>21.0</ele><time>2026-05-02T07:18:39.192Z</time></trkpt><trkpt lat="39.9477543" lon="9.648691"><ele>21.0</ele><time>2026-05-02T07:18:40.192Z</time></trkpt><trkpt lat="39.9479534" lon="9.6487174"><ele>21.0</ele><time>2026-05-02T07:18:41.192Z</time></trkpt><trkpt lat="39.9481432" lon="9.6487436"><ele>21.0</ele><time>2026-05-02T07:18:42.193Z</time></trkpt><trkpt lat="39.9483317" lon="9.6487723"><ele>21.0</ele><time>2026-05-02T07:18:43.192Z</time></trkpt><trkpt lat="39.9485147" lon="9.6488039"><ele>21.0</ele><time>2026-05-02T07:18:44.192Z</time></trkpt><trkpt lat="39.9486981" lon="9.6488395"><ele>21.0</ele><time>2026-05-02T07:18:45.193Z</time></trkpt><trkpt lat="39.9488867" lon="9.6488837"><ele>21.0</ele><time>2026-05-02T07:18:46.192Z</time></trkpt><trkpt lat="39.9490814" lon="9.648943"><ele>21.0</ele><time>2026-05-02T07:18:47.192Z</time></trkpt><trkpt lat="39.9492786" lon="9.6490138"><ele>21.0</ele><time>2026-05-02T07:18:48.192Z</time></trkpt><trkpt lat="39.9494737" lon="9.6490971"><ele>21.0</ele><time>2026-05-02T07:18:49.192Z</time></trkpt><trkpt lat="39.9496714" lon="9.64919"><ele>21.0</ele><time>2026-05-02T07:18:50.192Z</time></trkpt><trkpt lat="39.9498723" lon="9.6492941"><ele>20.5</ele><time>2026-05-02T07:18:51.192Z</time></trkpt><trkpt lat="39.9500775" lon="9.6494129"><ele>20.0</ele><time>2026-05-02T07:18:52.193Z</time></trkpt><trkpt lat="39.9502808" lon="9.6495438"><ele>19.5</ele><time>2026-05-02T07:18:53.193Z</time></trkpt><trkpt lat="39.9504837" lon="9.649685"><ele>19.0</ele><time>2026-05-02T07:18:54.192Z</time></trkpt><trkpt lat="39.9506894" lon="9.6498317"><ele>18.5</ele><time>2026-05-02T07:18:55.192Z</time></trkpt><trkpt lat="39.9508986" lon="9.6499817"><ele>18.0</ele><time>2026-05-02T07:18:56.193Z</time></trkpt><trkpt lat="39.9511057" lon="9.6501255"><ele>18.0</ele><time>2026-05-02T07:18:57.192Z</time></trkpt><trkpt lat="39.9512998" lon="9.6502596"><ele>18.0</ele><time>2026-05-02T07:18:58.193Z</time></trkpt><trkpt lat="39.9514772" lon="9.6503808"><ele>18.0</ele><time>2026-05-02T07:18:59.193Z</time></trkpt><trkpt lat="39.9516373" lon="9.6504877"><ele>17.0</ele><time>2026-05-02T07:19:00.193Z</time></trkpt><trkpt lat="39.9517891" lon="9.6505917"><ele>16.0</ele><time>2026-05-02T07:19:01.192Z</time></trkpt><trkpt lat="39.9519403" lon="9.650697"><ele>15.0</ele><time>2026-05-02T07:19:02.192Z</time></trkpt><trkpt lat="39.9520865" lon="9.650798"><ele>15.0</ele><time>2026-05-02T07:19:03.192Z</time></trkpt><trkpt lat="39.9522346" lon="9.6509002"><ele>15.0</ele><time>2026-05-02T07:19:04.193Z</time></trkpt><trkpt lat="39.952385" lon="9.6510015"><ele>15.0</ele><time>2026-05-02T07:19:05.192Z</time></trkpt><trkpt lat="39.9525386" lon="9.6511046"><ele>15.0</ele><time>2026-05-02T07:19:06.192Z</time></trkpt><trkpt lat="39.9526947" lon="9.6512104"><ele>15.0</ele><time>2026-05-02T07:19:07.193Z</time></trkpt><trkpt lat="39.952853" lon="9.6513204"><ele>15.0</ele><time>2026-05-02T07:19:08.192Z</time></trkpt><trkpt lat="39.9530154" lon="9.651435"><ele>15.0</ele><time>2026-05-02T07:19:09.192Z</time></trkpt><trkpt lat="39.9531812" lon="9.6515513"><ele>15.0</ele><time>2026-05-02T07:19:10.193Z</time></trkpt><trkpt lat="39.9533509" lon="9.6516675"><ele>15.0</ele><time>2026-05-02T07:19:11.193Z</time></trkpt><trkpt lat="39.9535244" lon="9.6517877"><ele>13.333333333333334</ele><time>2026-05-02T07:19:12.193Z</time></trkpt><trkpt lat="39.9537006" lon="9.6519105"><ele>11.666666666666668</ele><time>2026-05-02T07:19:13.192Z</time></trkpt><trkpt lat="39.9538808" lon="9.6520359"><ele>10.0</ele><time>2026-05-02T07:19:14.192Z</time></trkpt><trkpt lat="39.9540652" lon="9.652162"><ele>9.666666666666668</ele><time>2026-05-02T07:19:15.193Z</time></trkpt><trkpt lat="39.9542564" lon="9.6522914"><ele>9.333333333333334</ele><time>2026-05-02T07:19:16.193Z</time></trkpt><trkpt lat="39.9544555" lon="9.6524269"><ele>9.0</ele><time>2026-05-02T07:19:17.192Z</time></trkpt><trkpt lat="39.9546627" lon="9.6525646"><ele>9.0</ele><time>2026-05-02T07:19:18.193Z</time></trkpt><trkpt lat="39.9548734" lon="9.6527072"><ele>9.0</ele><time>2026-05-02T07:19:19.193Z</time></trkpt><trkpt lat="39.9550866" lon="9.6528535"><ele>8.0</ele><time>2026-05-02T07:19:20.193Z</time></trkpt><trkpt lat="39.9553033" lon="9.653003"><ele>7.0</ele><time>2026-05-02T07:19:21.192Z</time></trkpt><trkpt lat="39.955518" lon="9.653157"><ele>7.0</ele><time>2026-05-02T07:19:22.193Z</time></trkpt><trkpt lat="39.9557351" lon="9.65331"><ele>7.0</ele><time>2026-05-02T07:19:23.192Z</time></trkpt><trkpt lat="39.9559562" lon="9.6534619"><ele>7.0</ele><time>2026-05-02T07:19:24.193Z</time></trkpt><trkpt lat="39.956178" lon="9.6536132"><ele>7.0</ele><time>2026-05-02T07:19:25.193Z</time></trkpt><trkpt lat="39.9564034" lon="9.6537677"><ele>7.5</ele><time>2026-05-02T07:19:26.193Z</time></trkpt><trkpt lat="39.9566313" lon="9.6539223"><ele>8.0</ele><time>2026-05-02T07:19:27.193Z</time></trkpt><trkpt lat="39.9568586" lon="9.6540775"><ele>8.0</ele><time>2026-05-02T07:19:28.193Z</time></trkpt><trkpt lat="39.9570863" lon="9.654233"><ele>8.0</ele><time>2026-05-02T07:19:29.193Z</time></trkpt><trkpt lat="39.9573159" lon="9.6543931"><ele>8.0</ele><time>2026-05-02T07:19:30.193Z</time></trkpt><trkpt lat="39.9575452" lon="9.6545494"><ele>8.0</ele><time>2026-05-02T07:19:31.193Z</time></trkpt><trkpt lat="39.9577677" lon="9.6547018"><ele>8.0</ele><time>2026-05-02T07:19:32.193Z</time></trkpt><trkpt lat="39.9579796" lon="9.6548454"><ele>8.0</ele><time>2026-05-02T07:19:33.192Z</time></trkpt><trkpt lat="39.9581871" lon="9.6549852"><ele>7.0</ele><time>2026-05-02T07:19:34.192Z</time></trkpt><trkpt lat="39.9583949" lon="9.6551252"><ele>6.0</ele><time>2026-05-02T07:19:35.193Z</time></trkpt><trkpt lat="39.9585994" lon="9.6552649"><ele>6.5</ele><time>2026-05-02T07:19:36.192Z</time></trkpt><trkpt lat="39.958804" lon="9.6554025"><ele>7.0</ele><time>2026-05-02T07:19:37.193Z</time></trkpt><trkpt lat="39.9590074" lon="9.6555417"><ele>8.0</ele><time>2026-05-02T07:19:38.193Z</time></trkpt><trkpt lat="39.9592107" lon="9.6556815"><ele>9.0</ele><time>2026-05-02T07:19:39.192Z</time></trkpt><trkpt lat="39.9594128" lon="9.6558208"><ele>9.0</ele><time>2026-05-02T07:19:40.193Z</time></trkpt><trkpt lat="39.9596157" lon="9.655963"><ele>9.0</ele><time>2026-05-02T07:19:41.192Z</time></trkpt><trkpt lat="39.9598177" lon="9.6561059"><ele>9.0</ele><time>2026-05-02T07:19:42.193Z</time></trkpt><trkpt lat="39.960023" lon="9.6562539"><ele>9.0</ele><time>2026-05-02T07:19:43.192Z</time></trkpt><trkpt lat="39.9602284" lon="9.6563979"><ele>9.0</ele><time>2026-05-02T07:19:44.193Z</time></trkpt><trkpt lat="39.9604307" lon="9.6565385"><ele>9.0</ele><time>2026-05-02T07:19:45.193Z</time></trkpt><trkpt lat="39.9606325" lon="9.6566793"><ele>9.0</ele><time>2026-05-02T07:19:46.193Z</time></trkpt><trkpt lat="39.9608326" lon="9.6568181"><ele>9.0</ele><time>2026-05-02T07:19:47.192Z</time></trkpt><trkpt lat="39.9610329" lon="9.6569536"><ele>8.666666666666666</ele><time>2026-05-02T07:19:48.193Z</time></trkpt><trkpt lat="39.9612331" lon="9.6570807"><ele>8.333333333333332</ele><time>2026-05-02T07:19:49.193Z</time></trkpt><trkpt lat="39.961425" lon="9.6571895"><ele>8.0</ele><time>2026-05-02T07:19:50.192Z</time></trkpt><trkpt lat="39.9616153" lon="9.6572803"><ele>8.666666666666666</ele><time>2026-05-02T07:19:51.192Z</time></trkpt><trkpt lat="39.9618085" lon="9.657357"><ele>9.333333333333334</ele><time>2026-05-02T07:19:52.193Z</time></trkpt><trkpt lat="39.9620045" lon="9.657419"><ele>10.0</ele><time>2026-05-02T07:19:53.192Z</time></trkpt><trkpt lat="39.9622037" lon="9.6574644"><ele>10.0</ele><time>2026-05-02T07:19:54.192Z</time></trkpt><trkpt lat="39.962405" lon="9.6574921"><ele>10.0</ele><time>2026-05-02T07:19:55.192Z</time></trkpt><trkpt lat="39.9626022" lon="9.6574994"><ele>10.0</ele><time>2026-05-02T07:19:56.193Z</time></trkpt><trkpt lat="39.9627894" lon="9.6574958"><ele>9.666666666666668</ele><time>2026-05-02T07:19:57.193Z</time></trkpt><trkpt lat="39.9629693" lon="9.6574884"><ele>9.333333333333334</ele><time>2026-05-02T07:19:58.192Z</time></trkpt><trkpt lat="39.9631409" lon="9.6574792"><ele>9.0</ele><time>2026-05-02T07:19:59.193Z</time></trkpt><trkpt lat="39.9633063" lon="9.6574697"><ele>10.5</ele><time>2026-05-02T07:20:00.193Z</time></trkpt><trkpt lat="39.9634655" lon="9.657458"><ele>12.0</ele><time>2026-05-02T07:20:01.192Z</time></trkpt><trkpt lat="39.9636137" lon="9.6574458"><ele>13.5</ele><time>2026-05-02T07:20:02.192Z</time></trkpt><trkpt lat="39.9637487" lon="9.6574371"><ele>15.0</ele><time>2026-05-02T07:20:03.192Z</time></trkpt><trkpt lat="39.963873" lon="9.6574341"><ele>15.0</ele><time>2026-05-02T07:20:04.192Z</time></trkpt><trkpt lat="39.9639868" lon="9.6574384"><ele>15.0</ele><time>2026-05-02T07:20:05.193Z</time></trkpt><trkpt lat="39.9640969" lon="9.6574548"><ele>15.0</ele><time>2026-05-02T07:20:06.193Z</time></trkpt><trkpt lat="39.9642026" lon="9.6574845"><ele>15.0</ele><time>2026-05-02T07:20:07.192Z</time></trkpt><trkpt lat="39.9643073" lon="9.6575281"><ele>15.0</ele><time>2026-05-02T07:20:08.192Z</time></trkpt><trkpt lat="39.964413" lon="9.65758"><ele>14.5</ele><time>2026-05-02T07:20:09.193Z</time></trkpt><trkpt lat="39.9645211" lon="9.6576413"><ele>14.0</ele><time>2026-05-02T07:20:10.193Z</time></trkpt><trkpt lat="39.9646287" lon="9.6577085"><ele>13.5</ele><time>2026-05-02T07:20:11.192Z</time></trkpt><trkpt lat="39.9647379" lon="9.6577803"><ele>13.0</ele><time>2026-05-02T07:20:12.193Z</time></trkpt><trkpt lat="39.9648446" lon="9.6578495"><ele>12.25</ele><time>2026-05-02T07:20:13.193Z</time></trkpt><trkpt lat="39.964948" lon="9.6579215"><ele>11.5</ele><time>2026-05-02T07:20:14.192Z</time></trkpt><trkpt lat="39.9650503" lon="9.657994"><ele>10.75</ele><time>2026-05-02T07:20:15.193Z</time></trkpt><trkpt lat="39.9651506" lon="9.6580641"><ele>10.0</ele><time>2026-05-02T07:20:16.192Z</time></trkpt><trkpt lat="39.9652489" lon="9.6581356"><ele>9.2</ele><time>2026-05-02T07:20:17.193Z</time></trkpt><trkpt lat="39.9653472" lon="9.6582037"><ele>8.4</ele><time>2026-05-02T07:20:18.192Z</time></trkpt><trkpt lat="39.9654417" lon="9.6582694"><ele>7.6</ele><time>2026-05-02T07:20:19.193Z</time></trkpt><trkpt lat="39.9655385" lon="9.6583353"><ele>6.8</ele><time>2026-05-02T07:20:20.192Z</time></trkpt><trkpt lat="39.9656374" lon="9.6584023"><ele>6.0</ele><time>2026-05-02T07:20:21.192Z</time></trkpt><trkpt lat="39.9657429" lon="9.6584784"><ele>6.0</ele><time>2026-05-02T07:20:22.192Z</time></trkpt><trkpt lat="39.9658458" lon="9.6585494"><ele>6.0</ele><time>2026-05-02T07:20:23.193Z</time></trkpt><trkpt lat="39.9659488" lon="9.6586225"><ele>6.0</ele><time>2026-05-02T07:20:24.192Z</time></trkpt><trkpt lat="39.9660526" lon="9.6586959"><ele>6.0</ele><time>2026-05-02T07:20:25.193Z</time></trkpt><trkpt lat="39.9661561" lon="9.6587645"><ele>5.8</ele><time>2026-05-02T07:20:26.192Z</time></trkpt><trkpt lat="39.9662621" lon="9.6588335"><ele>5.6</ele><time>2026-05-02T07:20:27.193Z</time></trkpt><trkpt lat="39.9663616" lon="9.6589015"><ele>5.4</ele><time>2026-05-02T07:20:28.193Z</time></trkpt><trkpt lat="39.9664583" lon="9.6589702"><ele>5.2</ele><time>2026-05-02T07:20:29.193Z</time></trkpt><trkpt lat="39.9665534" lon="9.6590371"><ele>5.0</ele><time>2026-05-02T07:20:30.193Z</time></trkpt><trkpt lat="39.9666465" lon="9.6591004"><ele>5.4</ele><time>2026-05-02T07:20:31.193Z</time></trkpt><trkpt lat="39.9667348" lon="9.6591636"><ele>5.8</ele><time>2026-05-02T07:20:32.193Z</time></trkpt><trkpt lat="39.9668211" lon="9.6592237"><ele>6.199999999999999</ele><time>2026-05-02T07:20:33.192Z</time></trkpt><trkpt lat="39.9669052" lon="9.6592836"><ele>6.6</ele><time>2026-05-02T07:20:34.192Z</time></trkpt><trkpt lat="39.9669889" lon="9.6593382"><ele>7.0</ele><time>2026-05-02T07:20:35.193Z</time></trkpt><trkpt lat="39.9670739" lon="9.6593943"><ele>7.3999999999999995</ele><time>2026-05-02T07:20:36.193Z</time></trkpt><trkpt lat="39.9671591" lon="9.6594527"><ele>7.799999999999999</ele><time>2026-05-02T07:20:37.192Z</time></trkpt><trkpt lat="39.9672466" lon="9.6595137"><ele>8.2</ele><time>2026-05-02T07:20:38.193Z</time></trkpt><trkpt lat="39.9673333" lon="9.6595748"><ele>8.6</ele><time>2026-05-02T07:20:39.193Z</time></trkpt><trkpt lat="39.9674147" lon="9.6596324"><ele>9.0</ele><time>2026-05-02T07:20:40.192Z</time></trkpt><trkpt lat="39.967492" lon="9.6596885"><ele>8.8</ele><time>2026-05-02T07:20:41.192Z</time></trkpt><trkpt lat="39.9675721" lon="9.6597464"><ele>8.600000000000001</ele><time>2026-05-02T07:20:42.192Z</time></trkpt><trkpt lat="39.9676537" lon="9.6598034"><ele>8.4</ele><time>2026-05-02T07:20:43.192Z</time></trkpt><trkpt lat="39.9677361" lon="9.659862"><ele>8.200000000000001</ele><time>2026-05-02T07:20:44.192Z</time></trkpt><trkpt lat="39.9678196" lon="9.6599187"><ele>8.0</ele><time>2026-05-02T07:20:45.193Z</time></trkpt><trkpt lat="39.9679032" lon="9.6599785"><ele>7.999999999999999</ele><time>2026-05-02T07:20:46.193Z</time></trkpt><trkpt lat="39.9679875" lon="9.6600371"><ele>8.0</ele><time>2026-05-02T07:20:47.192Z</time></trkpt><trkpt lat="39.9680636" lon="9.6600896"><ele>8.0</ele><time>2026-05-02T07:20:48.193Z</time></trkpt><trkpt lat="39.9681206" lon="9.6601294"><ele>8.0</ele><time>2026-05-02T07:20:49.192Z</time></trkpt><trkpt lat="39.968178" lon="9.6601702"><ele>7.999999999999999</ele><time>2026-05-02T07:20:51.192Z</time></trkpt><trkpt lat="39.9682492" lon="9.660225"><ele>8.0</ele><time>2026-05-02T07:20:55.193Z</time></trkpt><trkpt lat="39.9683255" lon="9.6602771"><ele>8.0</ele><time>2026-05-02T07:20:57.192Z</time></trkpt><trkpt lat="39.9684271" lon="9.6603465"><ele>8.0</ele><time>2026-05-02T07:20:59.193Z</time></trkpt><trkpt lat="39.9685365" lon="9.6604236"><ele>8.0</ele><time>2026-05-02T07:21:01.192Z</time></trkpt><trkpt lat="39.968599" lon="9.6604672"><ele>8.0</ele><time>2026-05-02T07:21:02.192Z</time></trkpt><trkpt lat="39.9686648" lon="9.6605141"><ele>8.0</ele><time>2026-05-02T07:21:03.193Z</time></trkpt><trkpt lat="39.9687384" lon="9.6605669"><ele>7.999999999999999</ele><time>2026-05-02T07:21:04.193Z</time></trkpt><trkpt lat="39.9688138" lon="9.660617"><ele>8.0</ele><time>2026-05-02T07:21:05.193Z</time></trkpt><trkpt lat="39.9688849" lon="9.6606656"><ele>8.0</ele><time>2026-05-02T07:21:06.193Z</time></trkpt><trkpt lat="39.9689437" lon="9.6607087"><ele>8.0</ele><time>2026-05-02T07:21:07.193Z</time></trkpt><trkpt lat="39.9690421" lon="9.6607749"><ele>7.999999999999999</ele><time>2026-05-02T07:21:09.192Z</time></trkpt><trkpt lat="39.9691165" lon="9.6608311"><ele>8.0</ele><time>2026-05-02T07:21:11.192Z</time></trkpt><trkpt lat="39.9691806" lon="9.660879"><ele>8.571428571428571</ele><time>2026-05-02T07:21:14.193Z</time></trkpt><trkpt lat="39.9692378" lon="9.6609179"><ele>9.142857142857142</ele><time>2026-05-02T07:21:22.192Z</time></trkpt><trkpt lat="39.969295" lon="9.660965"><ele>9.714285714285714</ele><time>2026-05-02T07:21:24.192Z</time></trkpt><trkpt lat="39.9693567" lon="9.6610083"><ele>10.285714285714285</ele><time>2026-05-02T07:21:26.192Z</time></trkpt><trkpt lat="39.9694167" lon="9.6610471"><ele>10.857142857142858</ele><time>2026-05-02T07:21:29.192Z</time></trkpt><trkpt lat="39.969502" lon="9.6611055"><ele>11.428571428571427</ele><time>2026-05-02T07:21:32.192Z</time></trkpt><trkpt lat="39.9695686" lon="9.6611625"><ele>12.0</ele><time>2026-05-02T07:21:33.192Z</time></trkpt><trkpt lat="39.9696574" lon="9.661241"><ele>12.0</ele><time>2026-05-02T07:21:34.192Z</time></trkpt><trkpt lat="39.9697688" lon="9.6613228"><ele>12.0</ele><time>2026-05-02T07:21:35.192Z</time></trkpt><trkpt lat="39.9698872" lon="9.6614084"><ele>12.0</ele><time>2026-05-02T07:21:36.193Z</time></trkpt><trkpt lat="39.969987" lon="9.6614839"><ele>12.0</ele><time>2026-05-02T07:21:37.192Z</time></trkpt><trkpt lat="39.9700788" lon="9.6615474"><ele>12.833333333333334</ele><time>2026-05-02T07:21:38.193Z</time></trkpt><trkpt lat="39.970151" lon="9.6616212"><ele>13.666666666666668</ele><time>2026-05-02T07:21:39.193Z</time></trkpt><trkpt lat="39.9701939" lon="9.6617138"><ele>14.5</ele><time>2026-05-02T07:21:40.193Z</time></trkpt><trkpt lat="39.9702169" lon="9.6618109"><ele>15.333333333333334</ele><time>2026-05-02T07:21:41.193Z</time></trkpt><trkpt lat="39.9702238" lon="9.6619016"><ele>16.166666666666668</ele><time>2026-05-02T07:21:42.193Z</time></trkpt><trkpt lat="39.9702309" lon="9.662006"><ele>17.0</ele><time>2026-05-02T07:21:44.193Z</time></trkpt><trkpt lat="39.970243" lon="9.6621742"><ele>17.0</ele><time>2026-05-02T07:21:46.192Z</time></trkpt><trkpt lat="39.9702518" lon="9.6623107"><ele>17.0</ele><time>2026-05-02T07:21:48.193Z</time></trkpt><trkpt lat="39.9702771" lon="9.6624393"><ele>17.0</ele><time>2026-05-02T07:21:50.193Z</time></trkpt><trkpt lat="39.9702959" lon="9.6625513"><ele>17.0</ele><time>2026-05-02T07:21:51.193Z</time></trkpt><trkpt lat="39.9703282" lon="9.6626868"><ele>17.0</ele><time>2026-05-02T07:21:52.193Z</time></trkpt><trkpt lat="39.9703773" lon="9.6628251"><ele>17.0</ele><time>2026-05-02T07:21:53.193Z</time></trkpt><trkpt lat="39.970451" lon="9.6629552"><ele>17.0</ele><time>2026-05-02T07:21:54.192Z</time></trkpt><trkpt lat="39.9705392" lon="9.6630738"><ele>17.0</ele><time>2026-05-02T07:21:55.193Z</time></trkpt><trkpt lat="39.9706345" lon="9.6631886"><ele>17.0</ele><time>2026-05-02T07:21:56.193Z</time></trkpt><trkpt lat="39.9707275" lon="9.6633014"><ele>17.0</ele><time>2026-05-02T07:21:57.193Z</time></trkpt><trkpt lat="39.9708123" lon="9.6634042"><ele>17.0</ele><time>2026-05-02T07:21:58.192Z</time></trkpt><trkpt lat="39.9708932" lon="9.6634986"><ele>17.0</ele><time>2026-05-02T07:21:59.193Z</time></trkpt><trkpt lat="39.9709748" lon="9.663595"><ele>17.0</ele><time>2026-05-02T07:22:00.193Z</time></trkpt><trkpt lat="39.9710576" lon="9.6636991"><ele>17.0</ele><time>2026-05-02T07:22:01.193Z</time></trkpt><trkpt lat="39.9711435" lon="9.6638109"><ele>16.0</ele><time>2026-05-02T07:22:02.192Z</time></trkpt><trkpt lat="39.9712403" lon="9.6639209"><ele>15.0</ele><time>2026-05-02T07:22:03.192Z</time></trkpt><trkpt lat="39.9713575" lon="9.6640078"><ele>14.0</ele><time>2026-05-02T07:22:04.192Z</time></trkpt><trkpt lat="39.9714794" lon="9.6640692"><ele>13.0</ele><time>2026-05-02T07:22:05.192Z</time></trkpt><trkpt lat="39.9716" lon="9.6640997"><ele>11.25</ele><time>2026-05-02T07:22:06.192Z</time></trkpt><trkpt lat="39.9717283" lon="9.6640896"><ele>9.5</ele><time>2026-05-02T07:22:07.193Z</time></trkpt><trkpt lat="39.971864" lon="9.6640525"><ele>7.75</ele><time>2026-05-02T07:22:08.193Z</time></trkpt><trkpt lat="39.9720132" lon="9.6640041"><ele>6.0</ele><time>2026-05-02T07:22:09.192Z</time></trkpt><trkpt lat="39.9721748" lon="9.6639452"><ele>6.0</ele><time>2026-05-02T07:22:10.193Z</time></trkpt><trkpt lat="39.9723444" lon="9.6638793"><ele>6.0</ele><time>2026-05-02T07:22:11.193Z</time></trkpt><trkpt lat="39.9725232" lon="9.663813"><ele>6.0</ele><time>2026-05-02T07:22:12.193Z</time></trkpt><trkpt lat="39.9727016" lon="9.6637443"><ele>6.333333333333334</ele><time>2026-05-02T07:22:13.193Z</time></trkpt><trkpt lat="39.9728736" lon="9.6636791"><ele>6.666666666666667</ele><time>2026-05-02T07:22:14.193Z</time></trkpt><trkpt lat="39.9730516" lon="9.6636161"><ele>7.0</ele><time>2026-05-02T07:22:15.193Z</time></trkpt><trkpt lat="39.9732329" lon="9.6635579"><ele>7.333333333333334</ele><time>2026-05-02T07:22:16.193Z</time></trkpt><trkpt lat="39.9734181" lon="9.6635171"><ele>7.666666666666666</ele><time>2026-05-02T07:22:17.192Z</time></trkpt><trkpt lat="39.9736004" lon="9.6634995"><ele>8.0</ele><time>2026-05-02T07:22:18.193Z</time></trkpt><trkpt lat="39.9737868" lon="9.6634997"><ele>8.0</ele><time>2026-05-02T07:22:19.192Z</time></trkpt><trkpt lat="39.9739724" lon="9.6635204"><ele>8.0</ele><time>2026-05-02T07:22:20.192Z</time></trkpt><trkpt lat="39.9741496" lon="9.6635559"><ele>8.0</ele><time>2026-05-02T07:22:21.193Z</time></trkpt><trkpt lat="39.9743035" lon="9.6635993"><ele>7.75</ele><time>2026-05-02T07:22:22.192Z</time></trkpt><trkpt lat="39.9744442" lon="9.6636519"><ele>7.5</ele><time>2026-05-02T07:22:23.192Z</time></trkpt><trkpt lat="39.9745758" lon="9.6637171"><ele>7.25</ele><time>2026-05-02T07:22:24.192Z</time></trkpt><trkpt lat="39.9747057" lon="9.6637972"><ele>7.0</ele><time>2026-05-02T07:22:25.192Z</time></trkpt><trkpt lat="39.9748528" lon="9.6638909"><ele>7.0</ele><time>2026-05-02T07:22:26.193Z</time></trkpt><trkpt lat="39.975018" lon="9.6640114"><ele>7.0</ele><time>2026-05-02T07:22:27.192Z</time></trkpt><trkpt lat="39.9751894" lon="9.6641608"><ele>7.0</ele><time>2026-05-02T07:22:28.193Z</time></trkpt><trkpt lat="39.9753666" lon="9.6643362"><ele>7.666666666666667</ele><time>2026-05-02T07:22:29.192Z</time></trkpt><trkpt lat="39.9755485" lon="9.6645146"><ele>8.333333333333334</ele><time>2026-05-02T07:22:30.193Z</time></trkpt><trkpt lat="39.9757215" lon="9.6646746"><ele>9.0</ele><time>2026-05-02T07:22:31.192Z</time></trkpt><trkpt lat="39.9758819" lon="9.6648065"><ele>12.333333333333332</ele><time>2026-05-02T07:22:32.192Z</time></trkpt><trkpt lat="39.9760446" lon="9.6649199"><ele>15.666666666666666</ele><time>2026-05-02T07:22:33.193Z</time></trkpt><trkpt lat="39.9762162" lon="9.6650048"><ele>19.0</ele><time>2026-05-02T07:22:34.193Z</time></trkpt><trkpt lat="39.9764018" lon="9.665065"><ele>19.0</ele><time>2026-05-02T07:22:35.192Z</time></trkpt><trkpt lat="39.9765917" lon="9.6651211"><ele>19.0</ele><time>2026-05-02T07:22:36.193Z</time></trkpt><trkpt lat="39.9767523" lon="9.6651699"><ele>19.0</ele><time>2026-05-02T07:22:37.192Z</time></trkpt><trkpt lat="39.9768949" lon="9.6652071"><ele>18.25</ele><time>2026-05-02T07:22:38.192Z</time></trkpt><trkpt lat="39.9770164" lon="9.665201"><ele>17.5</ele><time>2026-05-02T07:22:39.193Z</time></trkpt><trkpt lat="39.9771296" lon="9.6651502"><ele>16.75</ele><time>2026-05-02T07:22:40.193Z</time></trkpt><trkpt lat="39.9772331" lon="9.665052"><ele>16.0</ele><time>2026-05-02T07:22:41.192Z</time></trkpt><trkpt lat="39.9773433" lon="9.6649105"><ele>16.0</ele><time>2026-05-02T07:22:42.192Z</time></trkpt><trkpt lat="39.9774509" lon="9.6647375"><ele>16.0</ele><time>2026-05-02T07:22:43.193Z</time></trkpt><trkpt lat="39.9775523" lon="9.6645348"><ele>16.0</ele><time>2026-05-02T07:22:44.193Z</time></trkpt><trkpt lat="39.9776499" lon="9.6643159"><ele>16.666666666666664</ele><time>2026-05-02T07:22:45.192Z</time></trkpt><trkpt lat="39.9777385" lon="9.6641177"><ele>17.333333333333332</ele><time>2026-05-02T07:22:46.192Z</time></trkpt><trkpt lat="39.9778291" lon="9.663946"><ele>18.0</ele><time>2026-05-02T07:22:47.192Z</time></trkpt><trkpt lat="39.9779349" lon="9.6638131"><ele>18.0</ele><time>2026-05-02T07:22:48.192Z</time></trkpt><trkpt lat="39.9780562" lon="9.6637161"><ele>18.0</ele><time>2026-05-02T07:22:49.193Z</time></trkpt><trkpt lat="39.9781885" lon="9.6636675"><ele>18.0</ele><time>2026-05-02T07:22:50.193Z</time></trkpt><trkpt lat="39.9783335" lon="9.6636601"><ele>18.0</ele><time>2026-05-02T07:22:51.193Z</time></trkpt><trkpt lat="39.9784928" lon="9.6636457"><ele>27.666666666666664</ele><time>2026-05-02T07:22:52.192Z</time></trkpt><trkpt lat="39.9786541" lon="9.6635983"><ele>37.33333333333333</ele><time>2026-05-02T07:22:53.192Z</time></trkpt><trkpt lat="39.978822" lon="9.6635448"><ele>47.0</ele><time>2026-05-02T07:22:54.193Z</time></trkpt><trkpt lat="39.9790025" lon="9.6635016"><ele>41.666666666666664</ele><time>2026-05-02T07:22:55.193Z</time></trkpt><trkpt lat="39.9792037" lon="9.6634651"><ele>36.333333333333336</ele><time>2026-05-02T07:22:56.192Z</time></trkpt><trkpt lat="39.9793892" lon="9.6634205"><ele>31.0</ele><time>2026-05-02T07:22:57.193Z</time></trkpt><trkpt lat="39.9795669" lon="9.6633519"><ele>31.0</ele><time>2026-05-02T07:22:58.192Z</time></trkpt><trkpt lat="39.9797383" lon="9.6632534"><ele>31.0</ele><time>2026-05-02T07:22:59.193Z</time></trkpt><trkpt lat="39.9799036" lon="9.6631491"><ele>31.0</ele><time>2026-05-02T07:23:00.193Z</time></trkpt><trkpt lat="39.9800492" lon="9.6630452"><ele>34.333333333333336</ele><time>2026-05-02T07:23:01.193Z</time></trkpt><trkpt lat="39.9801894" lon="9.6629257"><ele>37.666666666666664</ele><time>2026-05-02T07:23:02.192Z</time></trkpt><trkpt lat="39.9803222" lon="9.6627996"><ele>41.0</ele><time>2026-05-02T07:23:03.193Z</time></trkpt><trkpt lat="39.9804466" lon="9.6626787"><ele>42.0</ele><time>2026-05-02T07:23:04.193Z</time></trkpt><trkpt lat="39.9805547" lon="9.6625675"><ele>43.0</ele><time>2026-05-02T07:23:05.193Z</time></trkpt><trkpt lat="39.9806478" lon="9.6624596"><ele>44.0</ele><time>2026-05-02T07:23:06.193Z</time></trkpt><trkpt lat="39.9807287" lon="9.6623586"><ele>45.0</ele><time>2026-05-02T07:23:07.192Z</time></trkpt><trkpt lat="39.9808149" lon="9.6622696"><ele>46.5</ele><time>2026-05-02T07:23:08.192Z</time></trkpt><trkpt lat="39.980918" lon="9.6622119"><ele>48.0</ele><time>2026-05-02T07:23:09.192Z</time></trkpt><trkpt lat="39.981037" lon="9.6621935"><ele>49.5</ele><time>2026-05-02T07:23:10.193Z</time></trkpt><trkpt lat="39.9811701" lon="9.6622151"><ele>51.0</ele><time>2026-05-02T07:23:11.193Z</time></trkpt><trkpt lat="39.981323" lon="9.6622611"><ele>51.0</ele><time>2026-05-02T07:23:12.192Z</time></trkpt><trkpt lat="39.9814808" lon="9.662282"><ele>51.0</ele><time>2026-05-02T07:23:13.192Z</time></trkpt><trkpt lat="39.9816298" lon="9.662246"><ele>51.0</ele><time>2026-05-02T07:23:14.192Z</time></trkpt><trkpt lat="39.9817816" lon="9.6621741"><ele>51.0</ele><time>2026-05-02T07:23:15.192Z</time></trkpt><trkpt lat="39.9819507" lon="9.6620805"><ele>51.0</ele><time>2026-05-02T07:23:16.193Z</time></trkpt><trkpt lat="39.9821383" lon="9.6619873"><ele>51.0</ele><time>2026-05-02T07:23:17.192Z</time></trkpt><trkpt lat="39.9823425" lon="9.6618953"><ele>54.0</ele><time>2026-05-02T07:23:18.192Z</time></trkpt><trkpt lat="39.9825632" lon="9.6618025"><ele>57.0</ele><time>2026-05-02T07:23:19.192Z</time></trkpt><trkpt lat="39.9827956" lon="9.6617021"><ele>57.0</ele><time>2026-05-02T07:23:20.192Z</time></trkpt><trkpt lat="39.9830338" lon="9.6615975"><ele>57.0</ele><time>2026-05-02T07:23:21.192Z</time></trkpt><trkpt lat="39.9832671" lon="9.6614977"><ele>58.66666666666667</ele><time>2026-05-02T07:23:22.192Z</time></trkpt><trkpt lat="39.9834784" lon="9.6614054"><ele>60.333333333333336</ele><time>2026-05-02T07:23:23.192Z</time></trkpt><trkpt lat="39.983665" lon="9.6613264"><ele>62.0</ele><time>2026-05-02T07:23:24.193Z</time></trkpt><trkpt lat="39.9838232" lon="9.6612498"><ele>62.0</ele><time>2026-05-02T07:23:25.192Z</time></trkpt><trkpt lat="39.9839504" lon="9.6611683"><ele>62.0</ele><time>2026-05-02T07:23:26.193Z</time></trkpt><trkpt lat="39.9840534" lon="9.6610677"><ele>62.0</ele><time>2026-05-02T07:23:27.192Z</time></trkpt><trkpt lat="39.9841265" lon="9.6609377"><ele>62.0</ele><time>2026-05-02T07:23:28.192Z</time></trkpt><trkpt lat="39.9841939" lon="9.6607884"><ele>59.0</ele><time>2026-05-02T07:23:29.192Z</time></trkpt><trkpt lat="39.984273" lon="9.6606254"><ele>56.0</ele><time>2026-05-02T07:23:30.192Z</time></trkpt><trkpt lat="39.9843691" lon="9.6604692"><ele>53.0</ele><time>2026-05-02T07:23:31.193Z</time></trkpt><trkpt lat="39.9844763" lon="9.6603191"><ele>55.25</ele><time>2026-05-02T07:23:32.192Z</time></trkpt><trkpt lat="39.984583" lon="9.6601916"><ele>57.5</ele><time>2026-05-02T07:23:33.193Z</time></trkpt><trkpt lat="39.984698" lon="9.6600855"><ele>59.75</ele><time>2026-05-02T07:23:34.193Z</time></trkpt><trkpt lat="39.9848235" lon="9.6599985"><ele>62.0</ele><time>2026-05-02T07:23:35.193Z</time></trkpt><trkpt lat="39.9849553" lon="9.6599193"><ele>60.5</ele><time>2026-05-02T07:23:36.192Z</time></trkpt><trkpt lat="39.9850905" lon="9.6598392"><ele>59.0</ele><time>2026-05-02T07:23:37.193Z</time></trkpt><trkpt lat="39.9852156" lon="9.6597672"><ele>57.5</ele><time>2026-05-02T07:23:38.192Z</time></trkpt><trkpt lat="39.9853311" lon="9.6596966"><ele>56.0</ele><time>2026-05-02T07:23:39.192Z</time></trkpt><trkpt lat="39.9854305" lon="9.6596041"><ele>56.0</ele><time>2026-05-02T07:23:40.193Z</time></trkpt><trkpt lat="39.9855229" lon="9.65947"><ele>56.0</ele><time>2026-05-02T07:23:41.192Z</time></trkpt><trkpt lat="39.9856241" lon="9.6592921"><ele>56.0</ele><time>2026-05-02T07:23:42.192Z</time></trkpt><trkpt lat="39.985765" lon="9.659065"><ele>57.333333333333336</ele><time>2026-05-02T07:23:43.192Z</time></trkpt><trkpt lat="39.9859234" lon="9.6588353"><ele>58.66666666666667</ele><time>2026-05-02T07:23:44.192Z</time></trkpt><trkpt lat="39.9860596" lon="9.6586374"><ele>60.0</ele><time>2026-05-02T07:23:45.193Z</time></trkpt><trkpt lat="39.9861833" lon="9.658446"><ele>62.0</ele><time>2026-05-02T07:23:46.192Z</time></trkpt><trkpt lat="39.9863024" lon="9.6582726"><ele>64.0</ele><time>2026-05-02T07:23:47.192Z</time></trkpt><trkpt lat="39.9864406" lon="9.6581326"><ele>66.0</ele><time>2026-05-02T07:23:48.193Z</time></trkpt><trkpt lat="39.986599" lon="9.6580287"><ele>65.0</ele><time>2026-05-02T07:23:49.192Z</time></trkpt><trkpt lat="39.9867734" lon="9.6579599"><ele>64.0</ele><time>2026-05-02T07:23:50.193Z</time></trkpt><trkpt lat="39.9869585" lon="9.657903"><ele>63.0</ele><time>2026-05-02T07:23:51.192Z</time></trkpt><trkpt lat="39.9871472" lon="9.6578247"><ele>65.0</ele><time>2026-05-02T07:23:52.193Z</time></trkpt><trkpt lat="39.9873395" lon="9.6577194"><ele>67.0</ele><time>2026-05-02T07:23:53.192Z</time></trkpt><trkpt lat="39.9875416" lon="9.6575848"><ele>69.0</ele><time>2026-05-02T07:23:54.192Z</time></trkpt><trkpt lat="39.9877577" lon="9.6574319"><ele>69.0</ele><time>2026-05-02T07:23:55.193Z</time></trkpt><trkpt lat="39.9879587" lon="9.6572935"><ele>69.0</ele><time>2026-05-02T07:23:56.192Z</time></trkpt><trkpt lat="39.9881402" lon="9.6571695"><ele>69.0</ele><time>2026-05-02T07:23:57.193Z</time></trkpt><trkpt lat="39.9883125" lon="9.6570626"><ele>70.33333333333333</ele><time>2026-05-02T07:23:58.192Z</time></trkpt><trkpt lat="39.9884923" lon="9.6569945"><ele>71.66666666666666</ele><time>2026-05-02T07:23:59.193Z</time></trkpt><trkpt lat="39.988677" lon="9.6569722"><ele>73.0</ele><time>2026-05-02T07:24:00.192Z</time></trkpt><trkpt lat="39.9888682" lon="9.6569809"><ele>73.0</ele><time>2026-05-02T07:24:01.193Z</time></trkpt><trkpt lat="39.9890617" lon="9.6569755"><ele>73.0</ele><time>2026-05-02T07:24:02.193Z</time></trkpt><trkpt lat="39.9892289" lon="9.6569517"><ele>73.0</ele><time>2026-05-02T07:24:03.192Z</time></trkpt><trkpt lat="39.9893798" lon="9.656932"><ele>74.25</ele><time>2026-05-02T07:24:04.192Z</time></trkpt><trkpt lat="39.9895203" lon="9.6569192"><ele>75.5</ele><time>2026-05-02T07:24:05.192Z</time></trkpt><trkpt lat="39.9896621" lon="9.6569239"><ele>76.75</ele><time>2026-05-02T07:24:06.192Z</time></trkpt><trkpt lat="39.9897903" lon="9.6569489"><ele>78.0</ele><time>2026-05-02T07:24:07.192Z</time></trkpt><trkpt lat="39.9899305" lon="9.6570026"><ele>81.66666666666667</ele><time>2026-05-02T07:24:08.193Z</time></trkpt><trkpt lat="39.9900916" lon="9.6570764"><ele>85.33333333333334</ele><time>2026-05-02T07:24:09.192Z</time></trkpt><trkpt lat="39.9902543" lon="9.6571384"><ele>89.0</ele><time>2026-05-02T07:24:10.193Z</time></trkpt><trkpt lat="39.9904062" lon="9.6571757"><ele>89.0</ele><time>2026-05-02T07:24:11.192Z</time></trkpt><trkpt lat="39.9905592" lon="9.6571828"><ele>89.0</ele><time>2026-05-02T07:24:12.192Z</time></trkpt><trkpt lat="39.9907252" lon="9.6571557"><ele>89.0</ele><time>2026-05-02T07:24:13.192Z</time></trkpt><trkpt lat="39.9908932" lon="9.6571112"><ele>86.8</ele><time>2026-05-02T07:24:14.193Z</time></trkpt><trkpt lat="39.9910224" lon="9.6570918"><ele>84.60000000000001</ele><time>2026-05-02T07:24:15.193Z</time></trkpt><trkpt lat="39.9911269" lon="9.6571267"><ele>82.4</ele><time>2026-05-02T07:24:16.193Z</time></trkpt><trkpt lat="39.9911969" lon="9.6572064"><ele>80.2</ele><time>2026-05-02T07:24:17.193Z</time></trkpt><trkpt lat="39.9912348" lon="9.6573229"><ele>78.0</ele><time>2026-05-02T07:24:18.193Z</time></trkpt><trkpt lat="39.9912338" lon="9.6574721"><ele>78.0</ele><time>2026-05-02T07:24:19.192Z</time></trkpt><trkpt lat="39.9912129" lon="9.6576633"><ele>78.0</ele><time>2026-05-02T07:24:20.193Z</time></trkpt><trkpt lat="39.9911883" lon="9.657906"><ele>78.0</ele><time>2026-05-02T07:24:21.193Z</time></trkpt><trkpt lat="39.991168" lon="9.65814"><ele>81.75</ele><time>2026-05-02T07:24:22.193Z</time></trkpt><trkpt lat="39.9911626" lon="9.6583387"><ele>85.5</ele><time>2026-05-02T07:24:23.192Z</time></trkpt><trkpt lat="39.9911889" lon="9.6585081"><ele>89.25</ele><time>2026-05-02T07:24:24.193Z</time></trkpt><trkpt lat="39.9912546" lon="9.6586552"><ele>93.0</ele><time>2026-05-02T07:24:25.192Z</time></trkpt><trkpt lat="39.9913625" lon="9.6587699"><ele>93.0</ele><time>2026-05-02T07:24:26.192Z</time></trkpt><trkpt lat="39.9915101" lon="9.6588856"><ele>93.0</ele><time>2026-05-02T07:24:27.192Z</time></trkpt><trkpt lat="39.9916827" lon="9.6590126"><ele>93.0</ele><time>2026-05-02T07:24:28.192Z</time></trkpt><trkpt lat="39.9918795" lon="9.6591536"><ele>97.0</ele><time>2026-05-02T07:24:29.193Z</time></trkpt><trkpt lat="39.9920938" lon="9.6593026"><ele>101.0</ele><time>2026-05-02T07:24:30.193Z</time></trkpt><trkpt lat="39.9922911" lon="9.6594382"><ele>101.33333333333333</ele><time>2026-05-02T07:24:31.192Z</time></trkpt><trkpt lat="39.9924859" lon="9.6595527"><ele>101.66666666666666</ele><time>2026-05-02T07:24:32.192Z</time></trkpt><trkpt lat="39.9926844" lon="9.6596457"><ele>102.0</ele><time>2026-05-02T07:24:33.193Z</time></trkpt><trkpt lat="39.9928799" lon="9.6597472"><ele>102.0</ele><time>2026-05-02T07:24:34.192Z</time></trkpt><trkpt lat="39.9930687" lon="9.6598613"><ele>102.0</ele><time>2026-05-02T07:24:35.193Z</time></trkpt><trkpt lat="39.9932364" lon="9.6599839"><ele>102.0</ele><time>2026-05-02T07:24:36.192Z</time></trkpt><trkpt lat="39.9933948" lon="9.6601405"><ele>104.33333333333334</ele><time>2026-05-02T07:24:37.192Z</time></trkpt><trkpt lat="39.9935529" lon="9.6603325"><ele>106.66666666666667</ele><time>2026-05-02T07:24:38.193Z</time></trkpt><trkpt lat="39.9937124" lon="9.6605392"><ele>109.0</ele><time>2026-05-02T07:24:39.192Z</time></trkpt><trkpt lat="39.9938506" lon="9.660723"><ele>109.0</ele><time>2026-05-02T07:24:40.192Z</time></trkpt><trkpt lat="39.9940019" lon="9.6608715"><ele>109.0</ele><time>2026-05-02T07:24:41.193Z</time></trkpt><trkpt lat="39.9941658" lon="9.6609964"><ele>109.0</ele><time>2026-05-02T07:24:42.192Z</time></trkpt><trkpt lat="39.9943116" lon="9.6610993"><ele>112.5</ele><time>2026-05-02T07:24:43.192Z</time></trkpt><trkpt lat="39.9944264" lon="9.6611866"><ele>116.0</ele><time>2026-05-02T07:24:44.193Z</time></trkpt><trkpt lat="39.9945091" lon="9.6612848"><ele>119.5</ele><time>2026-05-02T07:24:45.192Z</time></trkpt><trkpt lat="39.9945495" lon="9.6614026"><ele>123.0</ele><time>2026-05-02T07:24:46.193Z</time></trkpt><trkpt lat="39.9945636" lon="9.6615455"><ele>123.0</ele><time>2026-05-02T07:24:47.193Z</time></trkpt><trkpt lat="39.9945697" lon="9.6616885"><ele>123.0</ele><time>2026-05-02T07:24:48.193Z</time></trkpt><trkpt lat="39.9946091" lon="9.6618266"><ele>123.0</ele><time>2026-05-02T07:24:49.192Z</time></trkpt><trkpt lat="39.9947069" lon="9.6619526"><ele>123.0</ele><time>2026-05-02T07:24:50.192Z</time></trkpt><trkpt lat="39.9948322" lon="9.6620953"><ele>120.66666666666666</ele><time>2026-05-02T07:24:51.193Z</time></trkpt><trkpt lat="39.9949685" lon="9.6622453"><ele>118.33333333333333</ele><time>2026-05-02T07:24:52.193Z</time></trkpt><trkpt lat="39.9950918" lon="9.6623757"><ele>116.0</ele><time>2026-05-02T07:24:53.193Z</time></trkpt><trkpt lat="39.9952261" lon="9.6624627"><ele>120.66666666666666</ele><time>2026-05-02T07:24:54.193Z</time></trkpt><trkpt lat="39.9953823" lon="9.6625167"><ele>125.33333333333334</ele><time>2026-05-02T07:24:55.193Z</time></trkpt><trkpt lat="39.9955584" lon="9.6625625"><ele>130.0</ele><time>2026-05-02T07:24:56.193Z</time></trkpt><trkpt lat="39.9957459" lon="9.6626116"><ele>131.33333333333334</ele><time>2026-05-02T07:24:57.193Z</time></trkpt><trkpt lat="39.995922" lon="9.6626533"><ele>132.66666666666666</ele><time>2026-05-02T07:24:58.192Z</time></trkpt><trkpt lat="39.9960817" lon="9.6626968"><ele>134.0</ele><time>2026-05-02T07:24:59.192Z</time></trkpt><trkpt lat="39.996225" lon="9.662773"><ele>133.33333333333331</ele><time>2026-05-02T07:25:00.193Z</time></trkpt><trkpt lat="39.9963599" lon="9.6629019"><ele>132.66666666666666</ele><time>2026-05-02T07:25:01.192Z</time></trkpt><trkpt lat="39.9964961" lon="9.6630603"><ele>132.0</ele><time>2026-05-02T07:25:02.193Z</time></trkpt><trkpt lat="39.9966379" lon="9.6632402"><ele>131.75</ele><time>2026-05-02T07:25:03.193Z</time></trkpt><trkpt lat="39.9967523" lon="9.6633946"><ele>131.5</ele><time>2026-05-02T07:25:04.192Z</time></trkpt><trkpt lat="39.9968426" lon="9.6635438"><ele>131.25</ele><time>2026-05-02T07:25:05.192Z</time></trkpt><trkpt lat="39.9969012" lon="9.6637047"><ele>131.0</ele><time>2026-05-02T07:25:06.192Z</time></trkpt><trkpt lat="39.9969239" lon="9.6638837"><ele>132.25</ele><time>2026-05-02T07:25:07.192Z</time></trkpt><trkpt lat="39.996904" lon="9.6640581"><ele>133.5</ele><time>2026-05-02T07:25:08.193Z</time></trkpt><trkpt lat="39.9968382" lon="9.6642057"><ele>134.75</ele><time>2026-05-02T07:25:09.192Z</time></trkpt><trkpt lat="39.9967381" lon="9.6643199"><ele>136.0</ele><time>2026-05-02T07:25:10.193Z</time></trkpt><trkpt lat="39.9966143" lon="9.6643772"><ele>136.0</ele><time>2026-05-02T07:25:11.192Z</time></trkpt><trkpt lat="39.9964831" lon="9.6643995"><ele>136.0</ele><time>2026-05-02T07:25:12.192Z</time></trkpt><trkpt lat="39.996371" lon="9.6644425"><ele>136.0</ele><time>2026-05-02T07:25:13.192Z</time></trkpt><trkpt lat="39.996272" lon="9.664549"><ele>136.0</ele><time>2026-05-02T07:25:14.193Z</time></trkpt><trkpt lat="39.9962005" lon="9.6647053"><ele>141.66666666666669</ele><time>2026-05-02T07:25:15.192Z</time></trkpt><trkpt lat="39.9961321" lon="9.6649097"><ele>147.33333333333334</ele><time>2026-05-02T07:25:16.192Z</time></trkpt><trkpt lat="39.9960539" lon="9.6651279"><ele>153.0</ele><time>2026-05-02T07:25:17.192Z</time></trkpt><trkpt lat="39.9959682" lon="9.6653273"><ele>151.0</ele><time>2026-05-02T07:25:18.193Z</time></trkpt><trkpt lat="39.9958936" lon="9.6655302"><ele>149.0</ele><time>2026-05-02T07:25:19.192Z</time></trkpt><trkpt lat="39.9958506" lon="9.6657589"><ele>147.0</ele><time>2026-05-02T07:25:20.192Z</time></trkpt><trkpt lat="39.9958242" lon="9.6660187"><ele>148.33333333333334</ele><time>2026-05-02T07:25:21.192Z</time></trkpt><trkpt lat="39.9958017" lon="9.6662392"><ele>149.66666666666669</ele><time>2026-05-02T07:25:22.192Z</time></trkpt><trkpt lat="39.9957832" lon="9.6664355"><ele>151.0</ele><time>2026-05-02T07:25:23.192Z</time></trkpt><trkpt lat="39.9957941" lon="9.6666209"><ele>149.33333333333334</ele><time>2026-05-02T07:25:24.193Z</time></trkpt><trkpt lat="39.995854" lon="9.6667992"><ele>147.66666666666666</ele><time>2026-05-02T07:25:25.193Z</time></trkpt><trkpt lat="39.9959469" lon="9.6669757"><ele>146.0</ele><time>2026-05-02T07:25:26.193Z</time></trkpt><trkpt lat="39.9960334" lon="9.66714"><ele>146.0</ele><time>2026-05-02T07:25:27.192Z</time></trkpt><trkpt lat="39.9961214" lon="9.6672663"><ele>146.0</ele><time>2026-05-02T07:25:28.193Z</time></trkpt><trkpt lat="39.9962285" lon="9.6673245"><ele>146.0</ele><time>2026-05-02T07:25:29.193Z</time></trkpt><trkpt lat="39.9963524" lon="9.6673227"><ele>146.0</ele><time>2026-05-02T07:25:30.192Z</time></trkpt><trkpt lat="39.9964828" lon="9.6672591"><ele>146.0</ele><time>2026-05-02T07:25:31.193Z</time></trkpt><trkpt lat="39.9966207" lon="9.6671375"><ele>146.0</ele><time>2026-05-02T07:25:32.193Z</time></trkpt><trkpt lat="39.9967748" lon="9.6669694"><ele>146.0</ele><time>2026-05-02T07:25:33.193Z</time></trkpt><trkpt lat="39.9969163" lon="9.6668088"><ele>151.33333333333331</ele><time>2026-05-02T07:25:34.192Z</time></trkpt><trkpt lat="39.9970554" lon="9.6666775"><ele>156.66666666666666</ele><time>2026-05-02T07:25:35.192Z</time></trkpt><trkpt lat="39.9972101" lon="9.6665958"><ele>162.0</ele><time>2026-05-02T07:25:36.192Z</time></trkpt><trkpt lat="39.9973859" lon="9.6665547"><ele>163.66666666666666</ele><time>2026-05-02T07:25:37.192Z</time></trkpt><trkpt lat="39.9975909" lon="9.6665301"><ele>165.33333333333331</ele><time>2026-05-02T07:25:38.192Z</time></trkpt><trkpt lat="39.997817" lon="9.6665113"><ele>167.0</ele><time>2026-05-02T07:25:39.192Z</time></trkpt><trkpt lat="39.9980573" lon="9.6665184"><ele>167.0</ele><time>2026-05-02T07:25:40.192Z</time></trkpt><trkpt lat="39.998298" lon="9.6665533"><ele>167.0</ele><time>2026-05-02T07:25:41.193Z</time></trkpt><trkpt lat="39.998516" lon="9.6665851"><ele>167.66666666666666</ele><time>2026-05-02T07:25:42.192Z</time></trkpt><trkpt lat="39.9987298" lon="9.6665987"><ele>168.33333333333334</ele><time>2026-05-02T07:25:43.192Z</time></trkpt><trkpt lat="39.9989271" lon="9.6666293"><ele>169.0</ele><time>2026-05-02T07:25:44.193Z</time></trkpt><trkpt lat="39.9991275" lon="9.6666956"><ele>167.66666666666669</ele><time>2026-05-02T07:25:45.192Z</time></trkpt><trkpt lat="39.9993421" lon="9.6667747"><ele>166.33333333333334</ele><time>2026-05-02T07:25:46.192Z</time></trkpt><trkpt lat="39.9995426" lon="9.6668436"><ele>165.0</ele><time>2026-05-02T07:25:47.192Z</time></trkpt><trkpt lat="39.999716" lon="9.6669078"><ele>168.75</ele><time>2026-05-02T07:25:48.193Z</time></trkpt><trkpt lat="39.9998706" lon="9.6669705"><ele>172.5</ele><time>2026-05-02T07:25:49.193Z</time></trkpt><trkpt lat="40.0000028" lon="9.6670522"><ele>176.25</ele><time>2026-05-02T07:25:50.193Z</time></trkpt><trkpt lat="40.0001095" lon="9.6671608"><ele>180.0</ele><time>2026-05-02T07:25:51.193Z</time></trkpt><trkpt lat="40.0001857" lon="9.6672714"><ele>180.0</ele><time>2026-05-02T07:25:52.192Z</time></trkpt><trkpt lat="40.0002377" lon="9.6673885"><ele>180.0</ele><time>2026-05-02T07:25:53.192Z</time></trkpt><trkpt lat="40.0002782" lon="9.6674913"><ele>180.0</ele><time>2026-05-02T07:25:54.192Z</time></trkpt><trkpt lat="40.000346" lon="9.6675774"><ele>180.0</ele><time>2026-05-02T07:25:55.193Z</time></trkpt><trkpt lat="40.0004177" lon="9.6676328"><ele>180.0</ele><time>2026-05-02T07:25:56.193Z</time></trkpt><trkpt lat="40.0004854" lon="9.6676681"><ele>180.0</ele><time>2026-05-02T07:25:57.193Z</time></trkpt><trkpt lat="40.0005532" lon="9.6676972"><ele>180.0</ele><time>2026-05-02T07:25:58.193Z</time></trkpt><trkpt lat="40.0006203" lon="9.6677347"><ele>180.0</ele><time>2026-05-02T07:25:59.193Z</time></trkpt><trkpt lat="40.0006829" lon="9.66779"><ele>180.0</ele><time>2026-05-02T07:26:00.193Z</time></trkpt><trkpt lat="40.0007438" lon="9.6678597"><ele>180.0</ele><time>2026-05-02T07:26:01.193Z</time></trkpt><trkpt lat="40.0008034" lon="9.667945"><ele>180.0</ele><time>2026-05-02T07:26:02.192Z</time></trkpt><trkpt lat="40.0008561" lon="9.6680376"><ele>180.0</ele><time>2026-05-02T07:26:03.193Z</time></trkpt><trkpt lat="40.0009044" lon="9.6681393"><ele>182.4</ele><time>2026-05-02T07:26:04.193Z</time></trkpt><trkpt lat="40.0009487" lon="9.6682524"><ele>184.8</ele><time>2026-05-02T07:26:05.192Z</time></trkpt><trkpt lat="40.0009939" lon="9.6683645"><ele>187.2</ele><time>2026-05-02T07:26:06.193Z</time></trkpt><trkpt lat="40.0010467" lon="9.6684697"><ele>189.6</ele><time>2026-05-02T07:26:07.192Z</time></trkpt><trkpt lat="40.001108" lon="9.6685625"><ele>192.0</ele><time>2026-05-02T07:26:08.192Z</time></trkpt><trkpt lat="40.0011788" lon="9.6686483"><ele>195.5</ele><time>2026-05-02T07:26:09.193Z</time></trkpt><trkpt lat="40.0012766" lon="9.6687353"><ele>199.0</ele><time>2026-05-02T07:26:10.192Z</time></trkpt><trkpt lat="40.0014108" lon="9.668829"><ele>202.5</ele><time>2026-05-02T07:26:11.192Z</time></trkpt><trkpt lat="40.001543" lon="9.6689191"><ele>206.0</ele><time>2026-05-02T07:26:12.192Z</time></trkpt><trkpt lat="40.0016656" lon="9.6689964"><ele>206.0</ele><time>2026-05-02T07:26:13.193Z</time></trkpt><trkpt lat="40.0017876" lon="9.6690619"><ele>206.0</ele><time>2026-05-02T07:26:14.192Z</time></trkpt><trkpt lat="40.0019008" lon="9.6691112"><ele>206.0</ele><time>2026-05-02T07:26:15.193Z</time></trkpt><trkpt lat="40.0020214" lon="9.6691149"><ele>206.0</ele><time>2026-05-02T07:26:16.193Z</time></trkpt><trkpt lat="40.0021505" lon="9.6690639"><ele>206.0</ele><time>2026-05-02T07:26:17.193Z</time></trkpt><trkpt lat="40.0022953" lon="9.6689676"><ele>206.0</ele><time>2026-05-02T07:26:18.193Z</time></trkpt><trkpt lat="40.0024377" lon="9.6688559"><ele>206.0</ele><time>2026-05-02T07:26:19.192Z</time></trkpt><trkpt lat="40.0025637" lon="9.6687852"><ele>207.75</ele><time>2026-05-02T07:26:20.193Z</time></trkpt><trkpt lat="40.0026902" lon="9.6687722"><ele>209.5</ele><time>2026-05-02T07:26:21.192Z</time></trkpt><trkpt lat="40.0028219" lon="9.6688125"><ele>211.25</ele><time>2026-05-02T07:26:22.192Z</time></trkpt><trkpt lat="40.0029767" lon="9.6688872"><ele>213.0</ele><time>2026-05-02T07:26:23.192Z</time></trkpt><trkpt lat="40.0031486" lon="9.6689781"><ele>213.0</ele><time>2026-05-02T07:26:24.192Z</time></trkpt><trkpt lat="40.0032864" lon="9.6690483"><ele>213.0</ele><time>2026-05-02T07:26:25.193Z</time></trkpt><trkpt lat="40.0034214" lon="9.6690821"><ele>213.0</ele><time>2026-05-02T07:26:26.192Z</time></trkpt><trkpt lat="40.003564" lon="9.6690656"><ele>213.0</ele><time>2026-05-02T07:26:27.192Z</time></trkpt><trkpt lat="40.0037078" lon="9.6689898"><ele>214.33333333333331</ele><time>2026-05-02T07:26:28.193Z</time></trkpt><trkpt lat="40.0038692" lon="9.6688619"><ele>215.66666666666666</ele><time>2026-05-02T07:26:29.192Z</time></trkpt><trkpt lat="40.0040129" lon="9.6687388"><ele>217.0</ele><time>2026-05-02T07:26:30.193Z</time></trkpt><trkpt lat="40.0041372" lon="9.668644"><ele>211.0</ele><time>2026-05-02T07:26:31.193Z</time></trkpt><trkpt lat="40.0042545" lon="9.6685928"><ele>205.0</ele><time>2026-05-02T07:26:32.192Z</time></trkpt><trkpt lat="40.0044037" lon="9.6685955"><ele>199.0</ele><time>2026-05-02T07:26:33.193Z</time></trkpt><trkpt lat="40.0045845" lon="9.6686072"><ele>210.66666666666666</ele><time>2026-05-02T07:26:34.192Z</time></trkpt><trkpt lat="40.0047708" lon="9.6686202"><ele>222.33333333333331</ele><time>2026-05-02T07:26:35.192Z</time></trkpt><trkpt lat="40.0049292" lon="9.668631"><ele>234.0</ele><time>2026-05-02T07:26:36.193Z</time></trkpt><trkpt lat="40.0050739" lon="9.6686469"><ele>231.2</ele><time>2026-05-02T07:26:37.192Z</time></trkpt><trkpt lat="40.0052053" lon="9.6686556"><ele>228.39999999999998</ele><time>2026-05-02T07:26:38.192Z</time></trkpt><trkpt lat="40.0053149" lon="9.6686469"><ele>225.6</ele><time>2026-05-02T07:26:39.193Z</time></trkpt><trkpt lat="40.0053978" lon="9.668589"><ele>222.8</ele><time>2026-05-02T07:26:40.193Z</time></trkpt><trkpt lat="40.0054498" lon="9.6684853"><ele>220.0</ele><time>2026-05-02T07:26:41.193Z</time></trkpt><trkpt lat="40.0054596" lon="9.6683513"><ele>220.0</ele><time>2026-05-02T07:26:42.192Z</time></trkpt><trkpt lat="40.0054382" lon="9.6681778"><ele>220.0</ele><time>2026-05-02T07:26:43.192Z</time></trkpt><trkpt lat="40.0053944" lon="9.6679808"><ele>220.0</ele><time>2026-05-02T07:26:44.192Z</time></trkpt><trkpt lat="40.0053199" lon="9.6677863"><ele>219.75</ele><time>2026-05-02T07:26:45.192Z</time></trkpt><trkpt lat="40.0052171" lon="9.6676158"><ele>219.5</ele><time>2026-05-02T07:26:46.192Z</time></trkpt><trkpt lat="40.0051162" lon="9.6674791"><ele>219.25</ele><time>2026-05-02T07:26:47.192Z</time></trkpt><trkpt lat="40.0050515" lon="9.6673396"><ele>219.0</ele><time>2026-05-02T07:26:48.193Z</time></trkpt><trkpt lat="40.0050339" lon="9.6671954"><ele>219.0</ele><time>2026-05-02T07:26:49.193Z</time></trkpt><trkpt lat="40.0050661" lon="9.6670844"><ele>218.99999999999997</ele><time>2026-05-02T07:26:50.193Z</time></trkpt><trkpt lat="40.0051398" lon="9.6670144"><ele>218.99999999999997</ele><time>2026-05-02T07:26:51.193Z</time></trkpt><trkpt lat="40.0052472" lon="9.666988"><ele>219.0</ele><time>2026-05-02T07:26:52.192Z</time></trkpt><trkpt lat="40.0053782" lon="9.6669989"><ele>219.0</ele><time>2026-05-02T07:26:53.193Z</time></trkpt><trkpt lat="40.0055028" lon="9.6670554"><ele>219.0</ele><time>2026-05-02T07:26:54.192Z</time></trkpt><trkpt lat="40.0055943" lon="9.6671529"><ele>219.0</ele><time>2026-05-02T07:26:55.193Z</time></trkpt><trkpt lat="40.0056518" lon="9.667287"><ele>219.0</ele><time>2026-05-02T07:26:56.193Z</time></trkpt><trkpt lat="40.0056827" lon="9.667471"><ele>219.0</ele><time>2026-05-02T07:26:57.192Z</time></trkpt><trkpt lat="40.005701" lon="9.6676973"><ele>219.33333333333331</ele><time>2026-05-02T07:26:58.192Z</time></trkpt><trkpt lat="40.0057359" lon="9.6679099"><ele>219.66666666666666</ele><time>2026-05-02T07:26:59.192Z</time></trkpt><trkpt lat="40.0058054" lon="9.6681013"><ele>220.0</ele><time>2026-05-02T07:27:00.192Z</time></trkpt><trkpt lat="40.005898" lon="9.6682776"><ele>225.33333333333331</ele><time>2026-05-02T07:27:01.192Z</time></trkpt><trkpt lat="40.0060292" lon="9.6684379"><ele>230.66666666666669</ele><time>2026-05-02T07:27:02.193Z</time></trkpt><trkpt lat="40.0061913" lon="9.6686097"><ele>236.0</ele><time>2026-05-02T07:27:03.192Z</time></trkpt><trkpt lat="40.0063489" lon="9.6687979"><ele>240.33333333333334</ele><time>2026-05-02T07:27:04.192Z</time></trkpt><trkpt lat="40.006494" lon="9.6689916"><ele>244.66666666666669</ele><time>2026-05-02T07:27:05.192Z</time></trkpt><trkpt lat="40.0066415" lon="9.6691885"><ele>249.0</ele><time>2026-05-02T07:27:06.192Z</time></trkpt><trkpt lat="40.0068091" lon="9.6694024"><ele>263.5</ele><time>2026-05-02T07:27:07.193Z</time></trkpt><trkpt lat="40.0069801" lon="9.6696296"><ele>278.0</ele><time>2026-05-02T07:27:08.193Z</time></trkpt><trkpt lat="40.007144" lon="9.6698294"><ele>278.0</ele><time>2026-05-02T07:27:09.193Z</time></trkpt><trkpt lat="40.0073086" lon="9.6700083"><ele>278.0</ele><time>2026-05-02T07:27:10.192Z</time></trkpt><trkpt lat="40.0074586" lon="9.6702152"><ele>278.0</ele><time>2026-05-02T07:27:11.192Z</time></trkpt><trkpt lat="40.0076061" lon="9.6704474"><ele>280.0</ele><time>2026-05-02T07:27:12.192Z</time></trkpt><trkpt lat="40.0077251" lon="9.6706322"><ele>282.0</ele><time>2026-05-02T07:27:13.192Z</time></trkpt><trkpt lat="40.007828" lon="9.6707723"><ele>284.0</ele><time>2026-05-02T07:27:14.192Z</time></trkpt><trkpt lat="40.007946" lon="9.6708468"><ele>284.0</ele><time>2026-05-02T07:27:15.193Z</time></trkpt><trkpt lat="40.0080829" lon="9.6708664"><ele>284.0</ele><time>2026-05-02T07:27:16.193Z</time></trkpt><trkpt lat="40.0082331" lon="9.6708777"><ele>284.0</ele><time>2026-05-02T07:27:17.193Z</time></trkpt><trkpt lat="40.0084055" lon="9.6708987"><ele>279.0</ele><time>2026-05-02T07:27:18.192Z</time></trkpt><trkpt lat="40.0085953" lon="9.6708781"><ele>274.0</ele><time>2026-05-02T07:27:19.193Z</time></trkpt><trkpt lat="40.0087992" lon="9.6708167"><ele>269.0</ele><time>2026-05-02T07:27:20.193Z</time></trkpt><trkpt lat="40.0089936" lon="9.6707401"><ele>272.0</ele><time>2026-05-02T07:27:21.192Z</time></trkpt><trkpt lat="40.0091592" lon="9.6706767"><ele>275.0</ele><time>2026-05-02T07:27:22.193Z</time></trkpt><trkpt lat="40.0092983" lon="9.6706194"><ele>278.0</ele><time>2026-05-02T07:27:23.193Z</time></trkpt><trkpt lat="40.0094057" lon="9.6705291"><ele>281.0</ele><time>2026-05-02T07:27:24.192Z</time></trkpt><trkpt lat="40.0094869" lon="9.6703868"><ele>273.33333333333337</ele><time>2026-05-02T07:27:25.192Z</time></trkpt><trkpt lat="40.0095412" lon="9.6702012"><ele>265.6666666666667</ele><time>2026-05-02T07:27:26.192Z</time></trkpt><trkpt lat="40.0095988" lon="9.6699651"><ele>258.0</ele><time>2026-05-02T07:27:27.192Z</time></trkpt><trkpt lat="40.0096558" lon="9.6697393"><ele>258.0</ele><time>2026-05-02T07:27:28.192Z</time></trkpt><trkpt lat="40.0097089" lon="9.6695582"><ele>258.0</ele><time>2026-05-02T07:27:29.192Z</time></trkpt><trkpt lat="40.0097837" lon="9.6693903"><ele>258.0</ele><time>2026-05-02T07:27:30.192Z</time></trkpt><trkpt lat="40.0098738" lon="9.6692443"><ele>258.0</ele><time>2026-05-02T07:27:31.193Z</time></trkpt><trkpt lat="40.0099509" lon="9.6690969"><ele>252.75</ele><time>2026-05-02T07:27:32.193Z</time></trkpt><trkpt lat="40.0099873" lon="9.6689347"><ele>247.5</ele><time>2026-05-02T07:27:33.193Z</time></trkpt><trkpt lat="40.0099914" lon="9.6687563"><ele>242.25</ele><time>2026-05-02T07:27:34.193Z</time></trkpt><trkpt lat="40.0099718" lon="9.6685838"><ele>237.0</ele><time>2026-05-02T07:27:35.192Z</time></trkpt><trkpt lat="40.0099835" lon="9.6684435"><ele>244.39999999999998</ele><time>2026-05-02T07:27:36.192Z</time></trkpt><trkpt lat="40.010022" lon="9.6683318"><ele>251.79999999999998</ele><time>2026-05-02T07:27:37.193Z</time></trkpt><trkpt lat="40.0100819" lon="9.6682636"><ele>259.2</ele><time>2026-05-02T07:27:38.193Z</time></trkpt><trkpt lat="40.0101598" lon="9.6682444"><ele>266.59999999999997</ele><time>2026-05-02T07:27:39.193Z</time></trkpt><trkpt lat="40.010258" lon="9.6682721"><ele>274.0</ele><time>2026-05-02T07:27:40.193Z</time></trkpt><trkpt lat="40.0103699" lon="9.6683258"><ele>274.0</ele><time>2026-05-02T07:27:41.193Z</time></trkpt><trkpt lat="40.0104725" lon="9.6683965"><ele>274.0</ele><time>2026-05-02T07:27:42.193Z</time></trkpt><trkpt lat="40.0105592" lon="9.6684999"><ele>274.0</ele><time>2026-05-02T07:27:43.192Z</time></trkpt><trkpt lat="40.0106288" lon="9.6686342"><ele>274.0</ele><time>2026-05-02T07:27:44.193Z</time></trkpt><trkpt lat="40.0106996" lon="9.6688"><ele>277.66666666666663</ele><time>2026-05-02T07:27:45.193Z</time></trkpt><trkpt lat="40.0107709" lon="9.6689831"><ele>281.3333333333333</ele><time>2026-05-02T07:27:46.192Z</time></trkpt><trkpt lat="40.0108375" lon="9.6691731"><ele>285.0</ele><time>2026-05-02T07:27:47.192Z</time></trkpt><trkpt lat="40.0109118" lon="9.6693567"><ele>291.5</ele><time>2026-05-02T07:27:48.193Z</time></trkpt><trkpt lat="40.0110065" lon="9.669502"><ele>298.0</ele><time>2026-05-02T07:27:49.192Z</time></trkpt><trkpt lat="40.0111168" lon="9.6696153"><ele>304.5</ele><time>2026-05-02T07:27:50.192Z</time></trkpt><trkpt lat="40.0112177" lon="9.6697348"><ele>311.0</ele><time>2026-05-02T07:27:51.192Z</time></trkpt><trkpt lat="40.0112813" lon="9.6698686"><ele>311.0</ele><time>2026-05-02T07:27:52.193Z</time></trkpt><trkpt lat="40.0113003" lon="9.6700132"><ele>311.0</ele><time>2026-05-02T07:27:53.193Z</time></trkpt><trkpt lat="40.011287" lon="9.6701858"><ele>311.0</ele><time>2026-05-02T07:27:54.193Z</time></trkpt><trkpt lat="40.0112426" lon="9.6703784"><ele>311.0</ele><time>2026-05-02T07:27:55.192Z</time></trkpt><trkpt lat="40.0111748" lon="9.6705926"><ele>313.6666666666667</ele><time>2026-05-02T07:27:56.193Z</time></trkpt><trkpt lat="40.0110892" lon="9.6708268"><ele>316.3333333333333</ele><time>2026-05-02T07:27:57.192Z</time></trkpt><trkpt lat="40.0110064" lon="9.6710729"><ele>319.0</ele><time>2026-05-02T07:27:58.193Z</time></trkpt><trkpt lat="40.0109494" lon="9.6712992"><ele>319.0</ele><time>2026-05-02T07:27:59.193Z</time></trkpt><trkpt lat="40.0109167" lon="9.6715176"><ele>319.0</ele><time>2026-05-02T07:28:00.193Z</time></trkpt><trkpt lat="40.0109193" lon="9.6717375"><ele>319.0</ele><time>2026-05-02T07:28:01.192Z</time></trkpt><trkpt lat="40.0109712" lon="9.6719587"><ele>324.0</ele><time>2026-05-02T07:28:02.193Z</time></trkpt><trkpt lat="40.0110519" lon="9.6721729"><ele>329.0</ele><time>2026-05-02T07:28:03.192Z</time></trkpt><trkpt lat="40.0111437" lon="9.6723663"><ele>334.0</ele><time>2026-05-02T07:28:04.193Z</time></trkpt><trkpt lat="40.0112724" lon="9.6725085"><ele>334.0</ele><time>2026-05-02T07:28:05.192Z</time></trkpt><trkpt lat="40.0114301" lon="9.6726321"><ele>334.0</ele><time>2026-05-02T07:28:06.193Z</time></trkpt><trkpt lat="40.0115935" lon="9.672778"><ele>334.0</ele><time>2026-05-02T07:28:07.193Z</time></trkpt><trkpt lat="40.0117405" lon="9.6729122"><ele>335.25</ele><time>2026-05-02T07:28:08.193Z</time></trkpt><trkpt lat="40.0118609" lon="9.673015"><ele>336.5</ele><time>2026-05-02T07:28:09.192Z</time></trkpt><trkpt lat="40.0119683" lon="9.6730695"><ele>337.75</ele><time>2026-05-02T07:28:10.192Z</time></trkpt><trkpt lat="40.0120703" lon="9.6730609"><ele>339.0</ele><time>2026-05-02T07:28:11.192Z</time></trkpt><trkpt lat="40.0121536" lon="9.6729902"><ele>339.0</ele><time>2026-05-02T07:28:12.193Z</time></trkpt><trkpt lat="40.012236" lon="9.6728856"><ele>339.0</ele><time>2026-05-02T07:28:13.192Z</time></trkpt><trkpt lat="40.0123422" lon="9.6728006"><ele>339.0</ele><time>2026-05-02T07:28:14.192Z</time></trkpt><trkpt lat="40.0124648" lon="9.672756"><ele>339.0</ele><time>2026-05-02T07:28:15.193Z</time></trkpt><trkpt lat="40.0125972" lon="9.6727694"><ele>340.0</ele><time>2026-05-02T07:28:16.193Z</time></trkpt><trkpt lat="40.0127151" lon="9.6728346"><ele>341.0</ele><time>2026-05-02T07:28:17.192Z</time></trkpt><trkpt lat="40.0128281" lon="9.672954"><ele>342.0</ele><time>2026-05-02T07:28:18.193Z</time></trkpt><trkpt lat="40.0129606" lon="9.6731183"><ele>342.0</ele><time>2026-05-02T07:28:19.192Z</time></trkpt><trkpt lat="40.0130844" lon="9.6732706"><ele>342.0</ele><time>2026-05-02T07:28:20.193Z</time></trkpt><trkpt lat="40.0131815" lon="9.6734139"><ele>342.0</ele><time>2026-05-02T07:28:21.192Z</time></trkpt><trkpt lat="40.0132445" lon="9.6735837"><ele>342.25</ele><time>2026-05-02T07:28:22.192Z</time></trkpt><trkpt lat="40.0132896" lon="9.6737679"><ele>342.5</ele><time>2026-05-02T07:28:23.193Z</time></trkpt><trkpt lat="40.0133609" lon="9.6739282"><ele>342.75</ele><time>2026-05-02T07:28:24.193Z</time></trkpt><trkpt lat="40.0134649" lon="9.6740729"><ele>343.0</ele><time>2026-05-02T07:28:25.192Z</time></trkpt><trkpt lat="40.0135515" lon="9.6741946"><ele>343.0</ele><time>2026-05-02T07:28:26.192Z</time></trkpt><trkpt lat="40.0136008" lon="9.6743327"><ele>343.0</ele><time>2026-05-02T07:28:27.193Z</time></trkpt><trkpt lat="40.0136215" lon="9.6744723"><ele>343.0</ele><time>2026-05-02T07:28:28.193Z</time></trkpt><trkpt lat="40.0135966" lon="9.6746257"><ele>343.0</ele><time>2026-05-02T07:28:29.192Z</time></trkpt><trkpt lat="40.0135457" lon="9.6747951"><ele>345.75</ele><time>2026-05-02T07:28:30.192Z</time></trkpt><trkpt lat="40.0135145" lon="9.6749524"><ele>348.5</ele><time>2026-05-02T07:28:31.192Z</time></trkpt><trkpt lat="40.0135377" lon="9.6750953"><ele>351.25</ele><time>2026-05-02T07:28:32.193Z</time></trkpt><trkpt lat="40.0136021" lon="9.6752227"><ele>354.0</ele><time>2026-05-02T07:28:33.192Z</time></trkpt><trkpt lat="40.0136902" lon="9.6753301"><ele>356.5</ele><time>2026-05-02T07:28:34.193Z</time></trkpt><trkpt lat="40.0137629" lon="9.6754623"><ele>359.0</ele><time>2026-05-02T07:28:35.192Z</time></trkpt><trkpt lat="40.0138021" lon="9.6756272"><ele>361.5</ele><time>2026-05-02T07:28:36.193Z</time></trkpt><trkpt lat="40.0138066" lon="9.6758124"><ele>364.0</ele><time>2026-05-02T07:28:37.193Z</time></trkpt><trkpt lat="40.0137796" lon="9.6760105"><ele>365.0</ele><time>2026-05-02T07:28:38.192Z</time></trkpt><trkpt lat="40.0137216" lon="9.6762079"><ele>366.0</ele><time>2026-05-02T07:28:39.192Z</time></trkpt><trkpt lat="40.0136331" lon="9.6763877"><ele>367.0</ele><time>2026-05-02T07:28:40.192Z</time></trkpt><trkpt lat="40.0135179" lon="9.6765655"><ele>367.0</ele><time>2026-05-02T07:28:41.193Z</time></trkpt><trkpt lat="40.0134162" lon="9.6767171"><ele>367.0</ele><time>2026-05-02T07:28:42.193Z</time></trkpt><trkpt lat="40.0133569" lon="9.676858"><ele>367.0</ele><time>2026-05-02T07:28:43.193Z</time></trkpt><trkpt lat="40.0133451" lon="9.6770065"><ele>367.0</ele><time>2026-05-02T07:28:44.193Z</time></trkpt><trkpt lat="40.0133817" lon="9.6771467"><ele>369.0</ele><time>2026-05-02T07:28:45.192Z</time></trkpt><trkpt lat="40.0134622" lon="9.6772764"><ele>371.0</ele><time>2026-05-02T07:28:46.192Z</time></trkpt><trkpt lat="40.0135832" lon="9.6774131"><ele>373.0</ele><time>2026-05-02T07:28:47.192Z</time></trkpt><trkpt lat="40.0137172" lon="9.6775577"><ele>373.0</ele><time>2026-05-02T07:28:48.193Z</time></trkpt><trkpt lat="40.0138172" lon="9.6777198"><ele>373.0</ele><time>2026-05-02T07:28:49.192Z</time></trkpt><trkpt lat="40.0138945" lon="9.6779131"><ele>373.0</ele><time>2026-05-02T07:28:50.193Z</time></trkpt><trkpt lat="40.0139296" lon="9.6781045"><ele>379.25</ele><time>2026-05-02T07:28:51.193Z</time></trkpt><trkpt lat="40.0139408" lon="9.6782898"><ele>385.5</ele><time>2026-05-02T07:28:52.192Z</time></trkpt><trkpt lat="40.0139756" lon="9.678444"><ele>391.75</ele><time>2026-05-02T07:28:53.192Z</time></trkpt><trkpt lat="40.014039" lon="9.6785633"><ele>398.0</ele><time>2026-05-02T07:28:54.192Z</time></trkpt><trkpt lat="40.0141333" lon="9.6786261"><ele>399.25</ele><time>2026-05-02T07:28:55.193Z</time></trkpt><trkpt lat="40.0142453" lon="9.6786307"><ele>400.5</ele><time>2026-05-02T07:28:56.192Z</time></trkpt><trkpt lat="40.0143706" lon="9.6785833"><ele>401.75</ele><time>2026-05-02T07:28:57.192Z</time></trkpt><trkpt lat="40.0145122" lon="9.6785084"><ele>403.0</ele><time>2026-05-02T07:28:58.192Z</time></trkpt><trkpt lat="40.0146402" lon="9.6784694"><ele>403.0</ele><time>2026-05-02T07:28:59.192Z</time></trkpt><trkpt lat="40.0147747" lon="9.6784692"><ele>403.0</ele><time>2026-05-02T07:29:00.192Z</time></trkpt><trkpt lat="40.0149126" lon="9.6785079"><ele>403.0</ele><time>2026-05-02T07:29:01.193Z</time></trkpt><trkpt lat="40.0150506" lon="9.6785809"><ele>403.0</ele><time>2026-05-02T07:29:02.192Z</time></trkpt><trkpt lat="40.0151895" lon="9.6786426"><ele>403.0</ele><time>2026-05-02T07:29:03.192Z</time></trkpt><trkpt lat="40.015328" lon="9.6786552"><ele>403.0</ele><time>2026-05-02T07:29:04.192Z</time></trkpt><trkpt lat="40.0154643" lon="9.6786358"><ele>403.0</ele><time>2026-05-02T07:29:05.192Z</time></trkpt><trkpt lat="40.015579" lon="9.6786044"><ele>403.0</ele><time>2026-05-02T07:29:06.192Z</time></trkpt><trkpt lat="40.0156904" lon="9.6785959"><ele>403.0</ele><time>2026-05-02T07:29:07.192Z</time></trkpt><trkpt lat="40.0157858" lon="9.6786184"><ele>403.0</ele><time>2026-05-02T07:29:08.192Z</time></trkpt><trkpt lat="40.0158638" lon="9.678648"><ele>403.0</ele><time>2026-05-02T07:29:09.193Z</time></trkpt><trkpt lat="40.0159572" lon="9.6786687"><ele>403.0</ele><time>2026-05-02T07:29:10.192Z</time></trkpt><trkpt lat="40.0160724" lon="9.678678"><ele>403.0</ele><time>2026-05-02T07:29:11.192Z</time></trkpt><trkpt lat="40.0161997" lon="9.6786786"><ele>407.25</ele><time>2026-05-02T07:29:12.193Z</time></trkpt><trkpt lat="40.0163331" lon="9.678678"><ele>411.5</ele><time>2026-05-02T07:29:13.192Z</time></trkpt><trkpt lat="40.0164605" lon="9.6786704"><ele>415.75</ele><time>2026-05-02T07:29:14.193Z</time></trkpt><trkpt lat="40.0165773" lon="9.6786423"><ele>420.0</ele><time>2026-05-02T07:29:15.193Z</time></trkpt><trkpt lat="40.0166888" lon="9.6785685"><ele>410.25</ele><time>2026-05-02T07:29:16.192Z</time></trkpt><trkpt lat="40.0167986" lon="9.6784549"><ele>400.5</ele><time>2026-05-02T07:29:17.193Z</time></trkpt><trkpt lat="40.0169074" lon="9.6783251"><ele>390.75</ele><time>2026-05-02T07:29:18.193Z</time></trkpt><trkpt lat="40.017008" lon="9.6782171"><ele>381.0</ele><time>2026-05-02T07:29:19.192Z</time></trkpt><trkpt lat="40.017102" lon="9.678124"><ele>381.0</ele><time>2026-05-02T07:29:20.192Z</time></trkpt><trkpt lat="40.0171962" lon="9.6780575"><ele>381.0</ele><time>2026-05-02T07:29:21.193Z</time></trkpt><trkpt lat="40.0172942" lon="9.6780341"><ele>381.0</ele><time>2026-05-02T07:29:22.192Z</time></trkpt><trkpt lat="40.0173957" lon="9.6780546"><ele>381.0</ele><time>2026-05-02T07:29:23.193Z</time></trkpt><trkpt lat="40.0174931" lon="9.678118"><ele>381.0</ele><time>2026-05-02T07:29:24.192Z</time></trkpt><trkpt lat="40.0175836" lon="9.6782001"><ele>385.75</ele><time>2026-05-02T07:29:25.193Z</time></trkpt><trkpt lat="40.0176815" lon="9.6782623"><ele>390.5</ele><time>2026-05-02T07:29:26.192Z</time></trkpt><trkpt lat="40.0177948" lon="9.6782838"><ele>395.25</ele><time>2026-05-02T07:29:27.193Z</time></trkpt><trkpt lat="40.0179287" lon="9.6782713"><ele>400.0</ele><time>2026-05-02T07:29:28.192Z</time></trkpt><trkpt lat="40.0180881" lon="9.6782487"><ele>400.0</ele><time>2026-05-02T07:29:29.192Z</time></trkpt><trkpt lat="40.0182698" lon="9.6782246"><ele>400.0</ele><time>2026-05-02T07:29:30.192Z</time></trkpt><trkpt lat="40.0184593" lon="9.6782227"><ele>400.0</ele><time>2026-05-02T07:29:31.192Z</time></trkpt><trkpt lat="40.0186517" lon="9.6782422"><ele>401.0</ele><time>2026-05-02T07:29:32.192Z</time></trkpt><trkpt lat="40.0188443" lon="9.6782765"><ele>402.0</ele><time>2026-05-02T07:29:33.193Z</time></trkpt><trkpt lat="40.0190384" lon="9.6783202"><ele>403.0</ele><time>2026-05-02T07:29:34.192Z</time></trkpt><trkpt lat="40.0192016" lon="9.6783653"><ele>404.0</ele><time>2026-05-02T07:29:35.193Z</time></trkpt><trkpt lat="40.0193417" lon="9.6784145"><ele>405.0</ele><time>2026-05-02T07:29:36.192Z</time></trkpt><trkpt lat="40.0194649" lon="9.6784511"><ele>406.0</ele><time>2026-05-02T07:29:37.192Z</time></trkpt><trkpt lat="40.0195724" lon="9.6784406"><ele>407.0</ele><time>2026-05-02T07:29:38.193Z</time></trkpt><trkpt lat="40.019683" lon="9.6783757"><ele>407.0</ele><time>2026-05-02T07:29:39.193Z</time></trkpt><trkpt lat="40.0197711" lon="9.6782536"><ele>407.0</ele><time>2026-05-02T07:29:40.192Z</time></trkpt><trkpt lat="40.019852" lon="9.6780981"><ele>407.0</ele><time>2026-05-02T07:29:41.193Z</time></trkpt><trkpt lat="40.0199484" lon="9.6779368"><ele>407.0</ele><time>2026-05-02T07:29:42.192Z</time></trkpt><trkpt lat="40.0200665" lon="9.6778122"><ele>404.5</ele><time>2026-05-02T07:29:43.193Z</time></trkpt><trkpt lat="40.0201789" lon="9.6777121"><ele>402.0</ele><time>2026-05-02T07:29:44.193Z</time></trkpt><trkpt lat="40.0202654" lon="9.6775731"><ele>399.5</ele><time>2026-05-02T07:29:45.193Z</time></trkpt><trkpt lat="40.0203213" lon="9.6773898"><ele>397.0</ele><time>2026-05-02T07:29:46.193Z</time></trkpt><trkpt lat="40.0203485" lon="9.6771742"><ele>397.0</ele><time>2026-05-02T07:29:47.192Z</time></trkpt><trkpt lat="40.0203536" lon="9.6769688"><ele>397.0</ele><time>2026-05-02T07:29:48.193Z</time></trkpt><trkpt lat="40.0203922" lon="9.676785"><ele>397.0</ele><time>2026-05-02T07:29:49.192Z</time></trkpt><trkpt lat="40.0204608" lon="9.6766158"><ele>392.0</ele><time>2026-05-02T07:29:50.192Z</time></trkpt><trkpt lat="40.0205199" lon="9.6764206"><ele>387.0</ele><time>2026-05-02T07:29:51.192Z</time></trkpt><trkpt lat="40.0205668" lon="9.6761894"><ele>382.0</ele><time>2026-05-02T07:29:52.192Z</time></trkpt><trkpt lat="40.0206168" lon="9.6759256"><ele>380.66666666666663</ele><time>2026-05-02T07:29:53.192Z</time></trkpt><trkpt lat="40.0206652" lon="9.6756873"><ele>379.3333333333333</ele><time>2026-05-02T07:29:54.193Z</time></trkpt><trkpt lat="40.0207083" lon="9.6754681"><ele>378.0</ele><time>2026-05-02T07:29:55.193Z</time></trkpt><trkpt lat="40.020761" lon="9.6752528"><ele>391.0</ele><time>2026-05-02T07:29:56.192Z</time></trkpt><trkpt lat="40.0208313" lon="9.6750471"><ele>404.0</ele><time>2026-05-02T07:29:57.193Z</time></trkpt><trkpt lat="40.0209221" lon="9.6748398"><ele>417.0</ele><time>2026-05-02T07:29:58.192Z</time></trkpt><trkpt lat="40.0210357" lon="9.6746271"><ele>412.0</ele><time>2026-05-02T07:29:59.193Z</time></trkpt><trkpt lat="40.0211623" lon="9.674417"><ele>407.0</ele><time>2026-05-02T07:30:00.192Z</time></trkpt><trkpt lat="40.0212983" lon="9.6742101"><ele>402.0</ele><time>2026-05-02T07:30:01.193Z</time></trkpt><trkpt lat="40.0214539" lon="9.674006"><ele>402.0</ele><time>2026-05-02T07:30:02.192Z</time></trkpt><trkpt lat="40.0216163" lon="9.6738023"><ele>402.0</ele><time>2026-05-02T07:30:03.193Z</time></trkpt><trkpt lat="40.0217681" lon="9.6736115"><ele>402.0</ele><time>2026-05-02T07:30:04.193Z</time></trkpt><trkpt lat="40.0219017" lon="9.6734218"><ele>403.66666666666663</ele><time>2026-05-02T07:30:05.192Z</time></trkpt><trkpt lat="40.0220163" lon="9.67322"><ele>405.3333333333333</ele><time>2026-05-02T07:30:06.192Z</time></trkpt><trkpt lat="40.0221328" lon="9.6730347"><ele>407.0</ele><time>2026-05-02T07:30:07.192Z</time></trkpt><trkpt lat="40.0222667" lon="9.672872"><ele>413.3333333333333</ele><time>2026-05-02T07:30:08.192Z</time></trkpt><trkpt lat="40.0224134" lon="9.6727184"><ele>419.66666666666663</ele><time>2026-05-02T07:30:09.193Z</time></trkpt><trkpt lat="40.0225681" lon="9.6725573"><ele>426.0</ele><time>2026-05-02T07:30:10.192Z</time></trkpt><trkpt lat="40.0227194" lon="9.6723927"><ele>426.0</ele><time>2026-05-02T07:30:11.193Z</time></trkpt><trkpt lat="40.0228496" lon="9.6722098"><ele>426.0</ele><time>2026-05-02T07:30:12.193Z</time></trkpt><trkpt lat="40.0229566" lon="9.6720054"><ele>426.0</ele><time>2026-05-02T07:30:13.193Z</time></trkpt><trkpt lat="40.0230541" lon="9.6718149"><ele>430.66666666666663</ele><time>2026-05-02T07:30:14.193Z</time></trkpt><trkpt lat="40.0231609" lon="9.671643"><ele>435.3333333333333</ele><time>2026-05-02T07:30:15.193Z</time></trkpt><trkpt lat="40.0232898" lon="9.6714765"><ele>440.0</ele><time>2026-05-02T07:30:16.193Z</time></trkpt><trkpt lat="40.0234281" lon="9.6713147"><ele>440.0</ele><time>2026-05-02T07:30:17.192Z</time></trkpt><trkpt lat="40.0235514" lon="9.6711746"><ele>440.0</ele><time>2026-05-02T07:30:18.193Z</time></trkpt><trkpt lat="40.0236764" lon="9.6710565"><ele>440.0</ele><time>2026-05-02T07:30:19.192Z</time></trkpt><trkpt lat="40.0238187" lon="9.6709608"><ele>438.66666666666663</ele><time>2026-05-02T07:30:20.192Z</time></trkpt><trkpt lat="40.0239711" lon="9.6708955"><ele>437.33333333333337</ele><time>2026-05-02T07:30:21.192Z</time></trkpt><trkpt lat="40.0241293" lon="9.6708613"><ele>436.0</ele><time>2026-05-02T07:30:22.192Z</time></trkpt><trkpt lat="40.0242926" lon="9.6708545"><ele>436.0</ele><time>2026-05-02T07:30:23.192Z</time></trkpt><trkpt lat="40.0244457" lon="9.6708462"><ele>436.0</ele><time>2026-05-02T07:30:24.193Z</time></trkpt><trkpt lat="40.0245883" lon="9.6707902"><ele>436.0</ele><time>2026-05-02T07:30:25.192Z</time></trkpt><trkpt lat="40.0247204" lon="9.670698"><ele>436.0</ele><time>2026-05-02T07:30:26.193Z</time></trkpt><trkpt lat="40.0248345" lon="9.6705601"><ele>436.0</ele><time>2026-05-02T07:30:27.193Z</time></trkpt><trkpt lat="40.0249286" lon="9.6703793"><ele>436.0</ele><time>2026-05-02T07:30:28.193Z</time></trkpt><trkpt lat="40.0250211" lon="9.6701775"><ele>437.0</ele><time>2026-05-02T07:30:29.193Z</time></trkpt><trkpt lat="40.0251124" lon="9.67"><ele>438.0</ele><time>2026-05-02T07:30:30.193Z</time></trkpt><trkpt lat="40.0252244" lon="9.669849"><ele>439.0</ele><time>2026-05-02T07:30:31.192Z</time></trkpt><trkpt lat="40.0253617" lon="9.669718"><ele>439.0</ele><time>2026-05-02T07:30:32.192Z</time></trkpt><trkpt lat="40.0255018" lon="9.6696131"><ele>439.0</ele><time>2026-05-02T07:30:33.192Z</time></trkpt><trkpt lat="40.0256402" lon="9.6695518"><ele>439.0</ele><time>2026-05-02T07:30:34.193Z</time></trkpt><trkpt lat="40.0257686" lon="9.6695045"><ele>439.0</ele><time>2026-05-02T07:30:35.193Z</time></trkpt><trkpt lat="40.0258791" lon="9.6694378"><ele>441.0</ele><time>2026-05-02T07:30:36.193Z</time></trkpt><trkpt lat="40.0259775" lon="9.669354"><ele>443.0</ele><time>2026-05-02T07:30:37.192Z</time></trkpt><trkpt lat="40.0260578" lon="9.6692493"><ele>445.0</ele><time>2026-05-02T07:30:38.193Z</time></trkpt><trkpt lat="40.0261245" lon="9.6691341"><ele>447.0</ele><time>2026-05-02T07:30:39.193Z</time></trkpt><trkpt lat="40.0261862" lon="9.6690167"><ele>447.0</ele><time>2026-05-02T07:30:40.192Z</time></trkpt><trkpt lat="40.0262405" lon="9.6689069"><ele>447.00000000000006</ele><time>2026-05-02T07:30:41.193Z</time></trkpt><trkpt lat="40.026294" lon="9.6687967"><ele>447.00000000000006</ele><time>2026-05-02T07:30:42.193Z</time></trkpt><trkpt lat="40.0263491" lon="9.6686887"><ele>447.0</ele><time>2026-05-02T07:30:43.193Z</time></trkpt><trkpt lat="40.0264075" lon="9.6685796"><ele>447.0</ele><time>2026-05-02T07:30:44.193Z</time></trkpt><trkpt lat="40.0264704" lon="9.6684687"><ele>449.75</ele><time>2026-05-02T07:30:45.193Z</time></trkpt><trkpt lat="40.0265408" lon="9.6683576"><ele>452.5</ele><time>2026-05-02T07:30:46.193Z</time></trkpt><trkpt lat="40.0266213" lon="9.6682492"><ele>455.25</ele><time>2026-05-02T07:30:47.193Z</time></trkpt><trkpt lat="40.0267064" lon="9.668135"><ele>458.0</ele><time>2026-05-02T07:30:48.192Z</time></trkpt><trkpt lat="40.0267924" lon="9.6680126"><ele>458.0</ele><time>2026-05-02T07:30:49.192Z</time></trkpt><trkpt lat="40.0268739" lon="9.6678896"><ele>457.99999999999994</ele><time>2026-05-02T07:30:50.193Z</time></trkpt><trkpt lat="40.0269493" lon="9.6677772"><ele>457.99999999999994</ele><time>2026-05-02T07:30:51.193Z</time></trkpt><trkpt lat="40.0270215" lon="9.6676752"><ele>458.0</ele><time>2026-05-02T07:30:52.193Z</time></trkpt><trkpt lat="40.0270949" lon="9.6675844"><ele>458.0</ele><time>2026-05-02T07:30:53.193Z</time></trkpt><trkpt lat="40.027168" lon="9.6674983"><ele>460.3333333333333</ele><time>2026-05-02T07:30:54.192Z</time></trkpt><trkpt lat="40.0272422" lon="9.6674158"><ele>462.66666666666663</ele><time>2026-05-02T07:30:55.192Z</time></trkpt><trkpt lat="40.0273147" lon="9.6673318"><ele>465.0</ele><time>2026-05-02T07:30:56.192Z</time></trkpt><trkpt lat="40.0273754" lon="9.667252"><ele>467.33333333333337</ele><time>2026-05-02T07:30:57.193Z</time></trkpt><trkpt lat="40.0274317" lon="9.6671735"><ele>469.6666666666667</ele><time>2026-05-02T07:30:58.192Z</time></trkpt><trkpt lat="40.0274915" lon="9.6670942"><ele>472.0</ele><time>2026-05-02T07:30:59.192Z</time></trkpt><trkpt lat="40.0275615" lon="9.6670206"><ele>472.00000000000006</ele><time>2026-05-02T07:31:00.192Z</time></trkpt><trkpt lat="40.0276474" lon="9.6669617"><ele>472.0</ele><time>2026-05-02T07:31:01.192Z</time></trkpt><trkpt lat="40.0277392" lon="9.6669252"><ele>472.0</ele><time>2026-05-02T07:31:02.192Z</time></trkpt><trkpt lat="40.0278242" lon="9.6669024"><ele>472.0</ele><time>2026-05-02T07:31:03.193Z</time></trkpt><trkpt lat="40.0279141" lon="9.6668754"><ele>472.00000000000006</ele><time>2026-05-02T07:31:05.192Z</time></trkpt><trkpt lat="40.0279802" lon="9.6668302"><ele>472.0</ele><time>2026-05-02T07:31:21.192Z</time></trkpt><trkpt lat="40.0280939" lon="9.6667942"><ele>471.20000000000005</ele><time>2026-05-02T07:31:23.193Z</time></trkpt><trkpt lat="40.0282236" lon="9.6667632"><ele>470.40000000000003</ele><time>2026-05-02T07:31:25.192Z</time></trkpt><trkpt lat="40.0283077" lon="9.6667433"><ele>469.59999999999997</ele><time>2026-05-02T07:31:26.193Z</time></trkpt><trkpt lat="40.0283859" lon="9.6667222"><ele>468.79999999999995</ele><time>2026-05-02T07:31:27.193Z</time></trkpt><trkpt lat="40.028464" lon="9.6666896"><ele>468.0</ele><time>2026-05-02T07:31:28.192Z</time></trkpt><trkpt lat="40.028544" lon="9.6666483"><ele>468.0</ele><time>2026-05-02T07:31:29.193Z</time></trkpt><trkpt lat="40.0286153" lon="9.666598"><ele>468.0</ele><time>2026-05-02T07:31:30.193Z</time></trkpt><trkpt lat="40.0286708" lon="9.6665365"><ele>468.0</ele><time>2026-05-02T07:31:31.192Z</time></trkpt><trkpt lat="40.0287534" lon="9.6664505"><ele>468.0</ele><time>2026-05-02T07:31:33.193Z</time></trkpt><trkpt lat="40.0288012" lon="9.6663753"><ele>468.0</ele><time>2026-05-02T07:31:36.192Z</time></trkpt><trkpt lat="40.0288666" lon="9.6662656"><ele>468.0</ele><time>2026-05-02T07:32:05.192Z</time></trkpt><trkpt lat="40.0289591" lon="9.6661657"><ele>468.0</ele><time>2026-05-02T07:32:07.193Z</time></trkpt><trkpt lat="40.0290189" lon="9.6661269"><ele>468.0</ele><time>2026-05-02T07:32:08.192Z</time></trkpt><trkpt lat="40.0290813" lon="9.6660848"><ele>468.0</ele><time>2026-05-02T07:32:09.192Z</time></trkpt><trkpt lat="40.0291484" lon="9.6660389"><ele>468.0</ele><time>2026-05-02T07:32:10.192Z</time></trkpt><trkpt lat="40.0292058" lon="9.6659997"><ele>468.0</ele><time>2026-05-02T07:32:11.193Z</time></trkpt><trkpt lat="40.0293063" lon="9.6659231"><ele>468.0</ele><time>2026-05-02T07:32:13.192Z</time></trkpt><trkpt lat="40.0294047" lon="9.6658364"><ele>468.8333333333333</ele><time>2026-05-02T07:32:15.193Z</time></trkpt><trkpt lat="40.029445" lon="9.6657683"><ele>469.66666666666663</ele><time>2026-05-02T07:32:16.192Z</time></trkpt><trkpt lat="40.0294886" lon="9.6657048"><ele>470.5</ele><time>2026-05-02T07:32:17.193Z</time></trkpt><trkpt lat="40.0295313" lon="9.6656351"><ele>471.3333333333333</ele><time>2026-05-02T07:32:18.193Z</time></trkpt><trkpt lat="40.0295703" lon="9.665561"><ele>472.16666666666663</ele><time>2026-05-02T07:32:19.193Z</time></trkpt><trkpt lat="40.0296338" lon="9.6654443"><ele>473.0</ele><time>2026-05-02T07:32:21.192Z</time></trkpt><trkpt lat="40.0296914" lon="9.6653379"><ele>474.79999999999995</ele><time>2026-05-02T07:32:23.193Z</time></trkpt><trkpt lat="40.0297325" lon="9.66525"><ele>476.59999999999997</ele><time>2026-05-02T07:32:25.192Z</time></trkpt><trkpt lat="40.0297825" lon="9.6651516"><ele>478.40000000000003</ele><time>2026-05-02T07:32:27.193Z</time></trkpt><trkpt lat="40.0298494" lon="9.6650401"><ele>480.20000000000005</ele><time>2026-05-02T07:32:29.192Z</time></trkpt><trkpt lat="40.0299108" lon="9.6649405"><ele>482.0</ele><time>2026-05-02T07:32:31.192Z</time></trkpt><trkpt lat="40.0299757" lon="9.6648574"><ele>481.99999999999994</ele><time>2026-05-02T07:32:33.193Z</time></trkpt><trkpt lat="40.0300339" lon="9.6647967"><ele>482.0</ele><time>2026-05-02T07:32:35.192Z</time></trkpt><trkpt lat="40.0301008" lon="9.6647379"><ele>482.0</ele><time>2026-05-02T07:32:38.192Z</time></trkpt><trkpt lat="40.0301602" lon="9.6646849"><ele>482.0</ele><time>2026-05-02T07:32:40.192Z</time></trkpt><trkpt lat="40.03023" lon="9.6646238"><ele>481.99999999999994</ele><time>2026-05-02T07:32:42.192Z</time></trkpt><trkpt lat="40.0303144" lon="9.6645572"><ele>482.0</ele><time>2026-05-02T07:32:44.192Z</time></trkpt><trkpt lat="40.0304213" lon="9.6644848"><ele>481.75</ele><time>2026-05-02T07:32:46.192Z</time></trkpt><trkpt lat="40.0305278" lon="9.6644213"><ele>481.5</ele><time>2026-05-02T07:32:48.192Z</time></trkpt><trkpt lat="40.0306339" lon="9.6643553"><ele>481.25</ele><time>2026-05-02T07:32:50.193Z</time></trkpt><trkpt lat="40.0307333" lon="9.6643147"><ele>481.0</ele><time>2026-05-02T07:32:52.193Z</time></trkpt><trkpt lat="40.0308418" lon="9.6642623"><ele>481.00000000000006</ele><time>2026-05-02T07:32:54.193Z</time></trkpt><trkpt lat="40.0309309" lon="9.664219"><ele>481.0</ele><time>2026-05-02T07:32:56.193Z</time></trkpt><trkpt lat="40.0310094" lon="9.6641824"><ele>481.0</ele><time>2026-05-02T07:32:58.192Z</time></trkpt><trkpt lat="40.0311004" lon="9.6641071"><ele>481.0</ele><time>2026-05-02T07:33:00.193Z</time></trkpt><trkpt lat="40.0311485" lon="9.664053"><ele>481.00000000000006</ele><time>2026-05-02T07:33:01.193Z</time></trkpt><trkpt lat="40.0311948" lon="9.6639928"><ele>481.0</ele><time>2026-05-02T07:33:02.193Z</time></trkpt><trkpt lat="40.0312303" lon="9.6639237"><ele>481.00000000000006</ele><time>2026-05-02T07:33:03.193Z</time></trkpt><trkpt lat="40.0312951" lon="9.6638114"><ele>481.0</ele><time>2026-05-02T07:33:05.192Z</time></trkpt><trkpt lat="40.0313482" lon="9.6637196"><ele>481.0</ele><time>2026-05-02T07:33:07.192Z</time></trkpt><trkpt lat="40.031409" lon="9.6636274"><ele>481.0</ele><time>2026-05-02T07:33:09.192Z</time></trkpt><trkpt lat="40.0314579" lon="9.6635649"><ele>481.00000000000006</ele><time>2026-05-02T07:33:11.192Z</time></trkpt><trkpt lat="40.0315195" lon="9.6634797"><ele>481.0</ele><time>2026-05-02T07:33:14.192Z</time></trkpt><trkpt lat="40.0315907" lon="9.6633872"><ele>481.20000000000005</ele><time>2026-05-02T07:33:17.193Z</time></trkpt><trkpt lat="40.0316724" lon="9.663306"><ele>481.40000000000003</ele><time>2026-05-02T07:33:19.192Z</time></trkpt><trkpt lat="40.0317516" lon="9.6632383"><ele>481.6</ele><time>2026-05-02T07:33:21.192Z</time></trkpt><trkpt lat="40.0318476" lon="9.6631684"><ele>481.8</ele><time>2026-05-02T07:33:23.192Z</time></trkpt><trkpt lat="40.0319349" lon="9.6631035"><ele>482.0</ele><time>2026-05-02T07:33:25.193Z</time></trkpt><trkpt lat="40.0320025" lon="9.6630442"><ele>482.0</ele><time>2026-05-02T07:33:27.192Z</time></trkpt><trkpt lat="40.032068" lon="9.6629757"><ele>482.00000000000006</ele><time>2026-05-02T07:33:29.192Z</time></trkpt><trkpt lat="40.0321245" lon="9.6629137"><ele>482.00000000000006</ele><time>2026-05-02T07:33:31.193Z</time></trkpt><trkpt lat="40.0321956" lon="9.6628266"><ele>482.0</ele><time>2026-05-02T07:33:33.192Z</time></trkpt><trkpt lat="40.0322644" lon="9.6627394"><ele>482.0</ele><time>2026-05-02T07:33:35.192Z</time></trkpt><trkpt lat="40.0323511" lon="9.662637"><ele>482.49999999999994</ele><time>2026-05-02T07:33:37.192Z</time></trkpt><trkpt lat="40.0323964" lon="9.6625755"><ele>483.0</ele><time>2026-05-02T07:33:38.192Z</time></trkpt><trkpt lat="40.0324453" lon="9.6625113"><ele>483.5</ele><time>2026-05-02T07:33:39.193Z</time></trkpt><trkpt lat="40.0324942" lon="9.6624512"><ele>484.0</ele><time>2026-05-02T07:33:40.192Z</time></trkpt><trkpt lat="40.0325654" lon="9.6623676"><ele>484.49999999999994</ele><time>2026-05-02T07:33:42.192Z</time></trkpt><trkpt lat="40.0326254" lon="9.6622654"><ele>485.0</ele><time>2026-05-02T07:33:45.193Z</time></trkpt><trkpt lat="40.0326777" lon="9.6621794"><ele>484.99999999999994</ele><time>2026-05-02T07:33:47.192Z</time></trkpt><trkpt lat="40.0327282" lon="9.662111"><ele>485.0</ele><time>2026-05-02T07:33:49.193Z</time></trkpt><trkpt lat="40.032778" lon="9.6620453"><ele>485.0</ele><time>2026-05-02T07:33:52.193Z</time></trkpt><trkpt lat="40.032833" lon="9.6619247"><ele>485.0</ele><time>2026-05-02T07:36:45.192Z</time></trkpt><trkpt lat="40.0328724" lon="9.6618528"><ele>484.99999999999994</ele><time>2026-05-02T07:36:46.193Z</time></trkpt><trkpt lat="40.0329248" lon="9.6617741"><ele>485.0</ele><time>2026-05-02T07:36:47.193Z</time></trkpt><trkpt lat="40.0329885" lon="9.6617006"><ele>485.49999999999994</ele><time>2026-05-02T07:36:48.193Z</time></trkpt><trkpt lat="40.0330568" lon="9.6616308"><ele>486.0</ele><time>2026-05-02T07:36:49.192Z</time></trkpt><trkpt lat="40.0331293" lon="9.6615633"><ele>486.5</ele><time>2026-05-02T07:36:50.193Z</time></trkpt><trkpt lat="40.0331952" lon="9.6614992"><ele>487.0</ele><time>2026-05-02T07:36:51.193Z</time></trkpt><trkpt lat="40.0332704" lon="9.6614458"><ele>487.49999999999994</ele><time>2026-05-02T07:36:52.193Z</time></trkpt><trkpt lat="40.0333428" lon="9.6613883"><ele>488.0</ele><time>2026-05-02T07:36:53.193Z</time></trkpt><trkpt lat="40.033417" lon="9.6613375"><ele>487.99999999999994</ele><time>2026-05-02T07:36:54.192Z</time></trkpt><trkpt lat="40.0334895" lon="9.6612841"><ele>488.0</ele><time>2026-05-02T07:36:55.192Z</time></trkpt><trkpt lat="40.0335593" lon="9.6612313"><ele>488.0</ele><time>2026-05-02T07:36:56.192Z</time></trkpt><trkpt lat="40.0336288" lon="9.6611771"><ele>488.0</ele><time>2026-05-02T07:36:57.193Z</time></trkpt><trkpt lat="40.033699" lon="9.6611223"><ele>487.99999999999994</ele><time>2026-05-02T07:36:58.192Z</time></trkpt><trkpt lat="40.0337719" lon="9.6610682"><ele>488.0</ele><time>2026-05-02T07:36:59.192Z</time></trkpt><trkpt lat="40.0338477" lon="9.6610174"><ele>486.99999999999994</ele><time>2026-05-02T07:37:00.192Z</time></trkpt><trkpt lat="40.0339262" lon="9.660974"><ele>486.0</ele><time>2026-05-02T07:37:01.192Z</time></trkpt><trkpt lat="40.034006" lon="9.6609372"><ele>485.0</ele><time>2026-05-02T07:37:02.192Z</time></trkpt><trkpt lat="40.0340878" lon="9.6609111"><ele>484.0</ele><time>2026-05-02T07:37:03.192Z</time></trkpt><trkpt lat="40.0341753" lon="9.6608953"><ele>482.99999999999994</ele><time>2026-05-02T07:37:04.192Z</time></trkpt><trkpt lat="40.0342653" lon="9.6608796"><ele>482.0</ele><time>2026-05-02T07:37:05.192Z</time></trkpt><trkpt lat="40.0343629" lon="9.6608545"><ele>482.0</ele><time>2026-05-02T07:37:06.193Z</time></trkpt><trkpt lat="40.0344642" lon="9.6608114"><ele>482.00000000000006</ele><time>2026-05-02T07:37:07.193Z</time></trkpt><trkpt lat="40.0345615" lon="9.6607439"><ele>482.00000000000006</ele><time>2026-05-02T07:37:08.193Z</time></trkpt><trkpt lat="40.034647" lon="9.660669"><ele>482.0</ele><time>2026-05-02T07:37:09.193Z</time></trkpt><trkpt lat="40.0347235" lon="9.6605857"><ele>482.0</ele><time>2026-05-02T07:37:10.193Z</time></trkpt><trkpt lat="40.0347994" lon="9.6604926"><ele>482.0</ele><time>2026-05-02T07:37:11.192Z</time></trkpt><trkpt lat="40.0348775" lon="9.6603998"><ele>482.00000000000006</ele><time>2026-05-02T07:37:12.193Z</time></trkpt><trkpt lat="40.0349567" lon="9.6603057"><ele>482.00000000000006</ele><time>2026-05-02T07:37:13.192Z</time></trkpt><trkpt lat="40.0350361" lon="9.660211"><ele>482.0</ele><time>2026-05-02T07:37:14.193Z</time></trkpt><trkpt lat="40.0351163" lon="9.6601176"><ele>482.0</ele><time>2026-05-02T07:37:15.192Z</time></trkpt><trkpt lat="40.0351966" lon="9.6600247"><ele>481.8</ele><time>2026-05-02T07:37:16.192Z</time></trkpt><trkpt lat="40.0352782" lon="9.6599288"><ele>481.6</ele><time>2026-05-02T07:37:17.193Z</time></trkpt><trkpt lat="40.0353549" lon="9.6598253"><ele>481.40000000000003</ele><time>2026-05-02T07:37:18.192Z</time></trkpt><trkpt lat="40.0354262" lon="9.6597122"><ele>481.20000000000005</ele><time>2026-05-02T07:37:19.193Z</time></trkpt><trkpt lat="40.035488" lon="9.6595905"><ele>481.0</ele><time>2026-05-02T07:37:20.192Z</time></trkpt><trkpt lat="40.0355443" lon="9.6594609"><ele>476.5</ele><time>2026-05-02T07:37:21.193Z</time></trkpt><trkpt lat="40.0355972" lon="9.659326"><ele>472.0</ele><time>2026-05-02T07:37:22.192Z</time></trkpt><trkpt lat="40.0356465" lon="9.6591843"><ele>467.5</ele><time>2026-05-02T07:37:23.193Z</time></trkpt><trkpt lat="40.0356967" lon="9.6590391"><ele>463.0</ele><time>2026-05-02T07:37:24.192Z</time></trkpt><trkpt lat="40.0357466" lon="9.6588942"><ele>463.0</ele><time>2026-05-02T07:37:25.192Z</time></trkpt><trkpt lat="40.0357925" lon="9.6587581"><ele>462.99999999999994</ele><time>2026-05-02T07:37:26.192Z</time></trkpt><trkpt lat="40.0358389" lon="9.6586357"><ele>462.99999999999994</ele><time>2026-05-02T07:37:27.192Z</time></trkpt><trkpt lat="40.0358947" lon="9.6585309"><ele>463.0</ele><time>2026-05-02T07:37:28.192Z</time></trkpt><trkpt lat="40.0359669" lon="9.6584519"><ele>463.0</ele><time>2026-05-02T07:37:29.192Z</time></trkpt><trkpt lat="40.0360543" lon="9.6583858"><ele>467.2</ele><time>2026-05-02T07:37:30.192Z</time></trkpt><trkpt lat="40.0361487" lon="9.6583248"><ele>471.4</ele><time>2026-05-02T07:37:31.192Z</time></trkpt><trkpt lat="40.0362433" lon="9.6582611"><ele>475.59999999999997</ele><time>2026-05-02T07:37:32.192Z</time></trkpt><trkpt lat="40.036339" lon="9.6581996"><ele>479.79999999999995</ele><time>2026-05-02T07:37:33.192Z</time></trkpt><trkpt lat="40.0364429" lon="9.6581545"><ele>484.0</ele><time>2026-05-02T07:37:34.192Z</time></trkpt><trkpt lat="40.0365531" lon="9.6581321"><ele>487.0</ele><time>2026-05-02T07:37:35.193Z</time></trkpt><trkpt lat="40.0366668" lon="9.658135"><ele>490.0</ele><time>2026-05-02T07:37:36.193Z</time></trkpt><trkpt lat="40.0367799" lon="9.6581544"><ele>493.0</ele><time>2026-05-02T07:37:37.193Z</time></trkpt><trkpt lat="40.0368948" lon="9.6581892"><ele>496.0</ele><time>2026-05-02T07:37:38.193Z</time></trkpt><trkpt lat="40.0370136" lon="9.6582177"><ele>496.0</ele><time>2026-05-02T07:37:39.193Z</time></trkpt><trkpt lat="40.0371386" lon="9.6582354"><ele>496.0</ele><time>2026-05-02T07:37:40.193Z</time></trkpt><trkpt lat="40.0372595" lon="9.6581963"><ele>496.0</ele><time>2026-05-02T07:37:41.193Z</time></trkpt><trkpt lat="40.0373838" lon="9.6581723"><ele>496.0</ele><time>2026-05-02T07:37:42.193Z</time></trkpt><trkpt lat="40.0375114" lon="9.6581614"><ele>496.5</ele><time>2026-05-02T07:37:43.192Z</time></trkpt><trkpt lat="40.0376407" lon="9.658166"><ele>497.0</ele><time>2026-05-02T07:37:44.193Z</time></trkpt><trkpt lat="40.0377683" lon="9.6581717"><ele>497.5</ele><time>2026-05-02T07:37:45.193Z</time></trkpt><trkpt lat="40.037895" lon="9.6581639"><ele>498.0</ele><time>2026-05-02T07:37:46.193Z</time></trkpt><trkpt lat="40.038021" lon="9.6581476"><ele>498.0</ele><time>2026-05-02T07:37:47.192Z</time></trkpt><trkpt lat="40.0381416" lon="9.6581307"><ele>498.0</ele><time>2026-05-02T07:37:48.193Z</time></trkpt><trkpt lat="40.0382653" lon="9.6581102"><ele>498.0</ele><time>2026-05-02T07:37:49.193Z</time></trkpt><trkpt lat="40.0383923" lon="9.6580952"><ele>498.0</ele><time>2026-05-02T07:37:50.192Z</time></trkpt><trkpt lat="40.0385304" lon="9.658084"><ele>502.66666666666663</ele><time>2026-05-02T07:37:51.192Z</time></trkpt><trkpt lat="40.038676" lon="9.6580672"><ele>507.3333333333333</ele><time>2026-05-02T07:37:52.192Z</time></trkpt><trkpt lat="40.0388307" lon="9.6580329"><ele>512.0</ele><time>2026-05-02T07:37:53.192Z</time></trkpt><trkpt lat="40.0389978" lon="9.6579771"><ele>515.3333333333333</ele><time>2026-05-02T07:37:54.192Z</time></trkpt><trkpt lat="40.0391747" lon="9.6579047"><ele>518.6666666666666</ele><time>2026-05-02T07:37:55.193Z</time></trkpt><trkpt lat="40.039362" lon="9.6578282"><ele>522.0</ele><time>2026-05-02T07:37:56.193Z</time></trkpt><trkpt lat="40.0395471" lon="9.6577533"><ele>514.0</ele><time>2026-05-02T07:37:57.193Z</time></trkpt><trkpt lat="40.0397206" lon="9.6576848"><ele>506.0</ele><time>2026-05-02T07:37:58.193Z</time></trkpt><trkpt lat="40.0398846" lon="9.6576212"><ele>498.0</ele><time>2026-05-02T07:37:59.193Z</time></trkpt><trkpt lat="40.0400401" lon="9.6575568"><ele>498.0</ele><time>2026-05-02T07:38:00.192Z</time></trkpt><trkpt lat="40.0401879" lon="9.6574703"><ele>498.0</ele><time>2026-05-02T07:38:01.193Z</time></trkpt><trkpt lat="40.0403292" lon="9.6573712"><ele>498.0</ele><time>2026-05-02T07:38:02.193Z</time></trkpt><trkpt lat="40.0404685" lon="9.6572619"><ele>498.0</ele><time>2026-05-02T07:38:03.192Z</time></trkpt><trkpt lat="40.0406093" lon="9.657153"><ele>498.0</ele><time>2026-05-02T07:38:04.192Z</time></trkpt><trkpt lat="40.0407537" lon="9.6570461"><ele>498.0</ele><time>2026-05-02T07:38:05.192Z</time></trkpt><trkpt lat="40.0409011" lon="9.6569341"><ele>495.0</ele><time>2026-05-02T07:38:06.192Z</time></trkpt><trkpt lat="40.0410516" lon="9.6568188"><ele>492.0</ele><time>2026-05-02T07:38:07.193Z</time></trkpt><trkpt lat="40.0411996" lon="9.6567096"><ele>489.0</ele><time>2026-05-02T07:38:08.193Z</time></trkpt><trkpt lat="40.0413348" lon="9.6566103"><ele>489.0</ele><time>2026-05-02T07:38:09.192Z</time></trkpt><trkpt lat="40.0414581" lon="9.6565257"><ele>489.0</ele><time>2026-05-02T07:38:10.192Z</time></trkpt><trkpt lat="40.0415765" lon="9.6564522"><ele>489.0</ele><time>2026-05-02T07:38:11.193Z</time></trkpt><trkpt lat="40.0416956" lon="9.6563902"><ele>489.0</ele><time>2026-05-02T07:38:12.193Z</time></trkpt><trkpt lat="40.0418182" lon="9.6563402"><ele>492.5</ele><time>2026-05-02T07:38:13.193Z</time></trkpt><trkpt lat="40.0419439" lon="9.6562953"><ele>496.0</ele><time>2026-05-02T07:38:14.193Z</time></trkpt><trkpt lat="40.0420687" lon="9.6562382"><ele>499.5</ele><time>2026-05-02T07:38:15.193Z</time></trkpt><trkpt lat="40.0421893" lon="9.6561557"><ele>503.0</ele><time>2026-05-02T07:38:16.192Z</time></trkpt><trkpt lat="40.0423064" lon="9.6560448"><ele>502.3333333333333</ele><time>2026-05-02T07:38:17.193Z</time></trkpt><trkpt lat="40.0424147" lon="9.6559094"><ele>501.66666666666663</ele><time>2026-05-02T07:38:18.192Z</time></trkpt><trkpt lat="40.0425088" lon="9.655753"><ele>501.0</ele><time>2026-05-02T07:38:19.192Z</time></trkpt><trkpt lat="40.0426087" lon="9.6555966"><ele>501.0</ele><time>2026-05-02T07:38:20.192Z</time></trkpt><trkpt lat="40.0427271" lon="9.6554613"><ele>501.0</ele><time>2026-05-02T07:38:21.192Z</time></trkpt><trkpt lat="40.0428681" lon="9.655346"><ele>501.0</ele><time>2026-05-02T07:38:22.193Z</time></trkpt><trkpt lat="40.0430049" lon="9.6552403"><ele>500.25</ele><time>2026-05-02T07:38:23.192Z</time></trkpt><trkpt lat="40.0431388" lon="9.6551421"><ele>499.5</ele><time>2026-05-02T07:38:24.192Z</time></trkpt><trkpt lat="40.0432492" lon="9.6550599"><ele>498.75</ele><time>2026-05-02T07:38:25.192Z</time></trkpt><trkpt lat="40.04335" lon="9.654983"><ele>498.0</ele><time>2026-05-02T07:38:26.193Z</time></trkpt><trkpt lat="40.0434498" lon="9.6549093"><ele>498.0</ele><time>2026-05-02T07:38:27.192Z</time></trkpt><trkpt lat="40.0435544" lon="9.6548303"><ele>498.0</ele><time>2026-05-02T07:38:28.193Z</time></trkpt><trkpt lat="40.0436628" lon="9.6547502"><ele>498.0</ele><time>2026-05-02T07:38:29.193Z</time></trkpt><trkpt lat="40.0437758" lon="9.6546657"><ele>498.0</ele><time>2026-05-02T07:38:30.192Z</time></trkpt><trkpt lat="40.0438957" lon="9.6545769"><ele>498.0</ele><time>2026-05-02T07:38:31.192Z</time></trkpt><trkpt lat="40.0440182" lon="9.6544816"><ele>498.0</ele><time>2026-05-02T07:38:32.192Z</time></trkpt><trkpt lat="40.0441417" lon="9.65437"><ele>498.0</ele><time>2026-05-02T07:38:33.192Z</time></trkpt><trkpt lat="40.0442605" lon="9.6542414"><ele>498.0</ele><time>2026-05-02T07:38:34.192Z</time></trkpt><trkpt lat="40.0443732" lon="9.6540923"><ele>499.33333333333337</ele><time>2026-05-02T07:38:35.192Z</time></trkpt><trkpt lat="40.0444781" lon="9.653922"><ele>500.6666666666667</ele><time>2026-05-02T07:38:36.193Z</time></trkpt><trkpt lat="40.0445814" lon="9.6537348"><ele>502.0</ele><time>2026-05-02T07:38:37.193Z</time></trkpt><trkpt lat="40.0446848" lon="9.6535366"><ele>508.33333333333337</ele><time>2026-05-02T07:38:38.192Z</time></trkpt><trkpt lat="40.0447892" lon="9.6533298"><ele>514.6666666666666</ele><time>2026-05-02T07:38:39.192Z</time></trkpt><trkpt lat="40.0448937" lon="9.6531191"><ele>521.0</ele><time>2026-05-02T07:38:40.192Z</time></trkpt><trkpt lat="40.044991" lon="9.6529179"><ele>511.0</ele><time>2026-05-02T07:38:41.192Z</time></trkpt><trkpt lat="40.0450825" lon="9.6527286"><ele>501.0</ele><time>2026-05-02T07:38:42.193Z</time></trkpt><trkpt lat="40.0451657" lon="9.652546"><ele>491.0</ele><time>2026-05-02T07:38:43.193Z</time></trkpt><trkpt lat="40.0452422" lon="9.6523626"><ele>491.0</ele><time>2026-05-02T07:38:44.192Z</time></trkpt><trkpt lat="40.0453157" lon="9.6521813"><ele>491.0</ele><time>2026-05-02T07:38:45.192Z</time></trkpt><trkpt lat="40.0453839" lon="9.6520098"><ele>491.0</ele><time>2026-05-02T07:38:46.192Z</time></trkpt><trkpt lat="40.0454513" lon="9.6518453"><ele>491.0</ele><time>2026-05-02T07:38:47.192Z</time></trkpt><trkpt lat="40.0455234" lon="9.6516862"><ele>485.3333333333333</ele><time>2026-05-02T07:38:48.192Z</time></trkpt><trkpt lat="40.0456054" lon="9.6515275"><ele>479.66666666666663</ele><time>2026-05-02T07:38:49.192Z</time></trkpt><trkpt lat="40.0456961" lon="9.6513673"><ele>474.0</ele><time>2026-05-02T07:38:50.192Z</time></trkpt><trkpt lat="40.0458012" lon="9.6512012"><ele>480.66666666666663</ele><time>2026-05-02T07:38:51.192Z</time></trkpt><trkpt lat="40.0459155" lon="9.6510265"><ele>487.3333333333333</ele><time>2026-05-02T07:38:52.192Z</time></trkpt><trkpt lat="40.0460394" lon="9.6508475"><ele>494.0</ele><time>2026-05-02T07:38:53.193Z</time></trkpt><trkpt lat="40.0461691" lon="9.6506643"><ele>494.0</ele><time>2026-05-02T07:38:54.192Z</time></trkpt><trkpt lat="40.0463035" lon="9.6504747"><ele>494.0</ele><time>2026-05-02T07:38:55.192Z</time></trkpt><trkpt lat="40.0464387" lon="9.650275"><ele>494.0</ele><time>2026-05-02T07:38:56.192Z</time></trkpt><trkpt lat="40.0465769" lon="9.6500703"><ele>501.0</ele><time>2026-05-02T07:38:57.193Z</time></trkpt><trkpt lat="40.0467109" lon="9.6498692"><ele>508.0</ele><time>2026-05-02T07:38:58.193Z</time></trkpt><trkpt lat="40.0468402" lon="9.6496833"><ele>515.0</ele><time>2026-05-02T07:38:59.193Z</time></trkpt><trkpt lat="40.0469715" lon="9.6495098"><ele>505.3333333333333</ele><time>2026-05-02T07:39:00.193Z</time></trkpt><trkpt lat="40.0470999" lon="9.6493599"><ele>495.66666666666663</ele><time>2026-05-02T07:39:01.193Z</time></trkpt><trkpt lat="40.0472294" lon="9.6492351"><ele>486.0</ele><time>2026-05-02T07:39:02.193Z</time></trkpt><trkpt lat="40.0473653" lon="9.6491451"><ele>497.25</ele><time>2026-05-02T07:39:03.192Z</time></trkpt><trkpt lat="40.0474964" lon="9.6490629"><ele>508.5</ele><time>2026-05-02T07:39:04.193Z</time></trkpt><trkpt lat="40.0476094" lon="9.6489647"><ele>519.75</ele><time>2026-05-02T07:39:05.192Z</time></trkpt><trkpt lat="40.0476991" lon="9.6488387"><ele>531.0</ele><time>2026-05-02T07:39:06.192Z</time></trkpt><trkpt lat="40.0477738" lon="9.6486798"><ele>518.3333333333334</ele><time>2026-05-02T07:39:07.192Z</time></trkpt><trkpt lat="40.0478385" lon="9.6485011"><ele>505.6666666666667</ele><time>2026-05-02T07:39:08.192Z</time></trkpt><trkpt lat="40.0478917" lon="9.6483067"><ele>493.0</ele><time>2026-05-02T07:39:09.192Z</time></trkpt><trkpt lat="40.047935" lon="9.6481041"><ele>493.0</ele><time>2026-05-02T07:39:10.193Z</time></trkpt><trkpt lat="40.0479716" lon="9.647914"><ele>493.0</ele><time>2026-05-02T07:39:11.192Z</time></trkpt><trkpt lat="40.0480089" lon="9.647733"><ele>493.0</ele><time>2026-05-02T07:39:12.192Z</time></trkpt><trkpt lat="40.0480555" lon="9.6475509"><ele>493.0</ele><time>2026-05-02T07:39:13.192Z</time></trkpt><trkpt lat="40.0481251" lon="9.6473668"><ele>487.0</ele><time>2026-05-02T07:39:14.193Z</time></trkpt><trkpt lat="40.0482204" lon="9.6471781"><ele>481.0</ele><time>2026-05-02T07:39:15.192Z</time></trkpt><trkpt lat="40.0483322" lon="9.6469774"><ele>475.0</ele><time>2026-05-02T07:39:16.193Z</time></trkpt><trkpt lat="40.0484456" lon="9.6467652"><ele>480.6666666666667</ele><time>2026-05-02T07:39:17.193Z</time></trkpt><trkpt lat="40.0485566" lon="9.6465474"><ele>486.33333333333337</ele><time>2026-05-02T07:39:18.192Z</time></trkpt><trkpt lat="40.0486706" lon="9.6463243"><ele>492.0</ele><time>2026-05-02T07:39:19.192Z</time></trkpt><trkpt lat="40.0487923" lon="9.6460954"><ele>492.0</ele><time>2026-05-02T07:39:20.193Z</time></trkpt><trkpt lat="40.0489187" lon="9.6458619"><ele>492.0</ele><time>2026-05-02T07:39:21.192Z</time></trkpt><trkpt lat="40.0490472" lon="9.6456308"><ele>492.0</ele><time>2026-05-02T07:39:22.193Z</time></trkpt><trkpt lat="40.0491801" lon="9.6453986"><ele>499.66666666666663</ele><time>2026-05-02T07:39:23.192Z</time></trkpt><trkpt lat="40.0493171" lon="9.6451662"><ele>507.3333333333333</ele><time>2026-05-02T07:39:24.192Z</time></trkpt><trkpt lat="40.0494511" lon="9.6449358"><ele>515.0</ele><time>2026-05-02T07:39:25.192Z</time></trkpt><trkpt lat="40.0495748" lon="9.6447174"><ele>515.0</ele><time>2026-05-02T07:39:26.192Z</time></trkpt><trkpt lat="40.0496885" lon="9.6445082"><ele>515.0</ele><time>2026-05-02T07:39:27.192Z</time></trkpt><trkpt lat="40.0498002" lon="9.6443074"><ele>515.0</ele><time>2026-05-02T07:39:28.193Z</time></trkpt><trkpt lat="40.0499168" lon="9.6441175"><ele>517.6666666666666</ele><time>2026-05-02T07:39:29.193Z</time></trkpt><trkpt lat="40.0500378" lon="9.6439382"><ele>520.3333333333334</ele><time>2026-05-02T07:39:30.192Z</time></trkpt><trkpt lat="40.050149" lon="9.6437586"><ele>523.0</ele><time>2026-05-02T07:39:31.192Z</time></trkpt><trkpt lat="40.0502338" lon="9.6435553"><ele>523.0</ele><time>2026-05-02T07:39:32.192Z</time></trkpt><trkpt lat="40.0502978" lon="9.643336"><ele>523.0</ele><time>2026-05-02T07:39:33.193Z</time></trkpt><trkpt lat="40.0503546" lon="9.6431124"><ele>523.0</ele><time>2026-05-02T07:39:34.193Z</time></trkpt><trkpt lat="40.0504133" lon="9.6428856"><ele>517.6666666666667</ele><time>2026-05-02T07:39:35.193Z</time></trkpt><trkpt lat="40.0504786" lon="9.6426643"><ele>512.3333333333334</ele><time>2026-05-02T07:39:36.193Z</time></trkpt><trkpt lat="40.0505463" lon="9.6424435"><ele>507.0</ele><time>2026-05-02T07:39:37.193Z</time></trkpt><trkpt lat="40.050597" lon="9.6422191"><ele>507.0</ele><time>2026-05-02T07:39:38.193Z</time></trkpt><trkpt lat="40.0506241" lon="9.641985"><ele>507.0</ele><time>2026-05-02T07:39:39.192Z</time></trkpt><trkpt lat="40.0506376" lon="9.6417417"><ele>507.0</ele><time>2026-05-02T07:39:40.192Z</time></trkpt><trkpt lat="40.0506487" lon="9.6414898"><ele>504.33333333333337</ele><time>2026-05-02T07:39:41.193Z</time></trkpt><trkpt lat="40.0506645" lon="9.6412313"><ele>501.6666666666667</ele><time>2026-05-02T07:39:42.193Z</time></trkpt><trkpt lat="40.0506829" lon="9.6409668"><ele>499.0</ele><time>2026-05-02T07:39:43.192Z</time></trkpt><trkpt lat="40.0507029" lon="9.6406974"><ele>497.0</ele><time>2026-05-02T07:39:44.193Z</time></trkpt><trkpt lat="40.050716" lon="9.6404325"><ele>495.0</ele><time>2026-05-02T07:39:45.193Z</time></trkpt><trkpt lat="40.0507228" lon="9.6401854"><ele>493.0</ele><time>2026-05-02T07:39:46.192Z</time></trkpt><trkpt lat="40.0507278" lon="9.6399543"><ele>492.6666666666667</ele><time>2026-05-02T07:39:47.193Z</time></trkpt><trkpt lat="40.0507317" lon="9.6397424"><ele>492.33333333333337</ele><time>2026-05-02T07:39:48.193Z</time></trkpt><trkpt lat="40.050746" lon="9.6395421"><ele>492.0</ele><time>2026-05-02T07:39:49.193Z</time></trkpt><trkpt lat="40.0507917" lon="9.6393481"><ele>508.66666666666663</ele><time>2026-05-02T07:39:50.192Z</time></trkpt><trkpt lat="40.0508602" lon="9.6391523"><ele>525.3333333333333</ele><time>2026-05-02T07:39:51.193Z</time></trkpt><trkpt lat="40.0509389" lon="9.6389506"><ele>542.0</ele><time>2026-05-02T07:39:52.193Z</time></trkpt><trkpt lat="40.0510194" lon="9.638746"><ele>533.6666666666666</ele><time>2026-05-02T07:39:53.193Z</time></trkpt><trkpt lat="40.0510937" lon="9.6385426"><ele>525.3333333333334</ele><time>2026-05-02T07:39:54.192Z</time></trkpt><trkpt lat="40.0511624" lon="9.6383528"><ele>517.0</ele><time>2026-05-02T07:39:55.193Z</time></trkpt><trkpt lat="40.0512244" lon="9.6381907"><ele>517.0</ele><time>2026-05-02T07:39:56.192Z</time></trkpt><trkpt lat="40.0512988" lon="9.6380534"><ele>517.0</ele><time>2026-05-02T07:39:57.192Z</time></trkpt><trkpt lat="40.0513935" lon="9.6379424"><ele>517.0</ele><time>2026-05-02T07:39:58.192Z</time></trkpt><trkpt lat="40.0514927" lon="9.6378315"><ele>517.0</ele><time>2026-05-02T07:39:59.193Z</time></trkpt><trkpt lat="40.0515874" lon="9.6376916"><ele>522.75</ele><time>2026-05-02T07:40:00.193Z</time></trkpt><trkpt lat="40.0516642" lon="9.6375294"><ele>528.5</ele><time>2026-05-02T07:40:01.193Z</time></trkpt><trkpt lat="40.0517162" lon="9.6373511"><ele>534.25</ele><time>2026-05-02T07:40:02.192Z</time></trkpt><trkpt lat="40.0517444" lon="9.637164"><ele>540.0</ele><time>2026-05-02T07:40:03.192Z</time></trkpt><trkpt lat="40.0517689" lon="9.6369684"><ele>540.0</ele><time>2026-05-02T07:40:04.192Z</time></trkpt><trkpt lat="40.0518272" lon="9.6367779"><ele>540.0</ele><time>2026-05-02T07:40:05.192Z</time></trkpt><trkpt lat="40.0519023" lon="9.6365966"><ele>540.0</ele><time>2026-05-02T07:40:06.193Z</time></trkpt><trkpt lat="40.0519898" lon="9.6364438"><ele>540.0</ele><time>2026-05-02T07:40:07.193Z</time></trkpt><trkpt lat="40.0520747" lon="9.6363223"><ele>540.0</ele><time>2026-05-02T07:40:08.193Z</time></trkpt><trkpt lat="40.0521288" lon="9.6362013"><ele>540.0</ele><time>2026-05-02T07:40:09.193Z</time></trkpt><trkpt lat="40.052135" lon="9.6360724"><ele>540.0</ele><time>2026-05-02T07:40:10.193Z</time></trkpt><trkpt lat="40.052101" lon="9.6359454"><ele>540.0</ele><time>2026-05-02T07:40:11.192Z</time></trkpt><trkpt lat="40.0520334" lon="9.6358285"><ele>539.6</ele><time>2026-05-02T07:40:12.192Z</time></trkpt><trkpt lat="40.0519596" lon="9.6357078"><ele>539.2</ele><time>2026-05-02T07:40:13.193Z</time></trkpt><trkpt lat="40.0519047" lon="9.63557"><ele>538.8</ele><time>2026-05-02T07:40:14.193Z</time></trkpt><trkpt lat="40.0518821" lon="9.6354361"><ele>538.4</ele><time>2026-05-02T07:40:15.193Z</time></trkpt><trkpt lat="40.0518978" lon="9.6353181"><ele>538.0</ele><time>2026-05-02T07:40:16.192Z</time></trkpt><trkpt lat="40.0519561" lon="9.6352209"><ele>538.0</ele><time>2026-05-02T07:40:17.192Z</time></trkpt><trkpt lat="40.0520431" lon="9.6351518"><ele>538.0</ele><time>2026-05-02T07:40:18.193Z</time></trkpt><trkpt lat="40.0521318" lon="9.6350747"><ele>538.0</ele><time>2026-05-02T07:40:19.192Z</time></trkpt><trkpt lat="40.0521853" lon="9.6349604"><ele>538.0</ele><time>2026-05-02T07:40:20.193Z</time></trkpt><trkpt lat="40.052186" lon="9.6348308"><ele>538.0</ele><time>2026-05-02T07:40:21.193Z</time></trkpt><trkpt lat="40.0521513" lon="9.6346988"><ele>538.0</ele><time>2026-05-02T07:40:22.192Z</time></trkpt><trkpt lat="40.0520796" lon="9.634559"><ele>538.0</ele><time>2026-05-02T07:40:23.192Z</time></trkpt><trkpt lat="40.0520105" lon="9.6344071"><ele>538.0</ele><time>2026-05-02T07:40:24.192Z</time></trkpt><trkpt lat="40.0519651" lon="9.634222"><ele>538.0</ele><time>2026-05-02T07:40:25.193Z</time></trkpt><trkpt lat="40.051936" lon="9.6340278"><ele>542.0</ele><time>2026-05-02T07:40:26.192Z</time></trkpt><trkpt lat="40.0519425" lon="9.63384"><ele>546.0</ele><time>2026-05-02T07:40:27.193Z</time></trkpt><trkpt lat="40.0519799" lon="9.6336297"><ele>550.0</ele><time>2026-05-02T07:40:28.193Z</time></trkpt><trkpt lat="40.0520252" lon="9.6334219"><ele>550.0</ele><time>2026-05-02T07:40:29.192Z</time></trkpt><trkpt lat="40.0520719" lon="9.6332342"><ele>550.0</ele><time>2026-05-02T07:40:30.192Z</time></trkpt><trkpt lat="40.0521447" lon="9.6330606"><ele>550.0</ele><time>2026-05-02T07:40:31.193Z</time></trkpt><trkpt lat="40.0522444" lon="9.6329062"><ele>554.0</ele><time>2026-05-02T07:40:32.193Z</time></trkpt><trkpt lat="40.0523592" lon="9.6327503"><ele>558.0</ele><time>2026-05-02T07:40:33.193Z</time></trkpt><trkpt lat="40.0524839" lon="9.6325856"><ele>562.0</ele><time>2026-05-02T07:40:34.192Z</time></trkpt><trkpt lat="40.0526102" lon="9.6324187"><ele>562.0</ele><time>2026-05-02T07:40:35.192Z</time></trkpt><trkpt lat="40.0527343" lon="9.632263"><ele>562.0</ele><time>2026-05-02T07:40:36.192Z</time></trkpt><trkpt lat="40.0528497" lon="9.6321141"><ele>562.0</ele><time>2026-05-02T07:40:37.192Z</time></trkpt><trkpt lat="40.0529388" lon="9.6319537"><ele>553.0</ele><time>2026-05-02T07:40:38.192Z</time></trkpt><trkpt lat="40.0530034" lon="9.6317723"><ele>544.0</ele><time>2026-05-02T07:40:39.193Z</time></trkpt><trkpt lat="40.0530585" lon="9.6315834"><ele>535.0</ele><time>2026-05-02T07:40:40.192Z</time></trkpt><trkpt lat="40.0531164" lon="9.631399"><ele>535.0</ele><time>2026-05-02T07:40:41.193Z</time></trkpt><trkpt lat="40.0531812" lon="9.6312226"><ele>535.0</ele><time>2026-05-02T07:40:42.192Z</time></trkpt><trkpt lat="40.053259" lon="9.6310655"><ele>535.0</ele><time>2026-05-02T07:40:43.193Z</time></trkpt><trkpt lat="40.0533508" lon="9.6309346"><ele>535.0</ele><time>2026-05-02T07:40:44.193Z</time></trkpt><trkpt lat="40.0534415" lon="9.6307988"><ele>539.75</ele><time>2026-05-02T07:40:45.193Z</time></trkpt><trkpt lat="40.0535026" lon="9.6306312"><ele>544.5</ele><time>2026-05-02T07:40:46.193Z</time></trkpt><trkpt lat="40.053542" lon="9.630444"><ele>549.25</ele><time>2026-05-02T07:40:47.192Z</time></trkpt><trkpt lat="40.0535636" lon="9.6302443"><ele>554.0</ele><time>2026-05-02T07:40:48.192Z</time></trkpt><trkpt lat="40.0535956" lon="9.630038"><ele>554.0</ele><time>2026-05-02T07:40:49.192Z</time></trkpt><trkpt lat="40.0536471" lon="9.6298168"><ele>554.0</ele><time>2026-05-02T07:40:50.192Z</time></trkpt><trkpt lat="40.0536929" lon="9.6295981"><ele>554.0</ele><time>2026-05-02T07:40:51.192Z</time></trkpt><trkpt lat="40.0537228" lon="9.6293941"><ele>553.5</ele><time>2026-05-02T07:40:52.192Z</time></trkpt><trkpt lat="40.0537312" lon="9.6291976"><ele>553.0</ele><time>2026-05-02T07:40:53.192Z</time></trkpt><trkpt lat="40.0537157" lon="9.6290068"><ele>552.5</ele><time>2026-05-02T07:40:54.193Z</time></trkpt><trkpt lat="40.0536794" lon="9.6288386"><ele>552.0</ele><time>2026-05-02T07:40:55.193Z</time></trkpt><trkpt lat="40.0536404" lon="9.6286869"><ele>552.0</ele><time>2026-05-02T07:40:56.192Z</time></trkpt><trkpt lat="40.0536282" lon="9.6285431"><ele>552.0</ele><time>2026-05-02T07:40:57.192Z</time></trkpt><trkpt lat="40.0536602" lon="9.6284058"><ele>552.0</ele><time>2026-05-02T07:40:58.193Z</time></trkpt><trkpt lat="40.0537339" lon="9.6282962"><ele>552.0</ele><time>2026-05-02T07:40:59.193Z</time></trkpt><trkpt lat="40.0538402" lon="9.6282125"><ele>552.0</ele><time>2026-05-02T07:41:00.192Z</time></trkpt><trkpt lat="40.0539653" lon="9.6281348"><ele>552.0</ele><time>2026-05-02T07:41:01.193Z</time></trkpt><trkpt lat="40.0540793" lon="9.628019"><ele>552.0</ele><time>2026-05-02T07:41:02.193Z</time></trkpt><trkpt lat="40.0541765" lon="9.6278736"><ele>552.0</ele><time>2026-05-02T07:41:03.193Z</time></trkpt><trkpt lat="40.0542588" lon="9.6277047"><ele>557.0</ele><time>2026-05-02T07:41:04.192Z</time></trkpt><trkpt lat="40.0543275" lon="9.6275239"><ele>562.0</ele><time>2026-05-02T07:41:05.192Z</time></trkpt><trkpt lat="40.0543809" lon="9.6273534"><ele>567.0</ele><time>2026-05-02T07:41:06.193Z</time></trkpt><trkpt lat="40.0544158" lon="9.627182"><ele>572.0</ele><time>2026-05-02T07:41:07.193Z</time></trkpt><trkpt lat="40.0544157" lon="9.62701"><ele>571.0</ele><time>2026-05-02T07:41:08.193Z</time></trkpt><trkpt lat="40.0543817" lon="9.6268418"><ele>570.0</ele><time>2026-05-02T07:41:09.192Z</time></trkpt><trkpt lat="40.0543465" lon="9.6266616"><ele>569.0</ele><time>2026-05-02T07:41:10.193Z</time></trkpt><trkpt lat="40.0543396" lon="9.6264797"><ele>568.0</ele><time>2026-05-02T07:41:11.192Z</time></trkpt><trkpt lat="40.0543673" lon="9.6263031"><ele>569.6666666666667</ele><time>2026-05-02T07:41:12.193Z</time></trkpt><trkpt lat="40.0544109" lon="9.6261106"><ele>571.3333333333334</ele><time>2026-05-02T07:41:13.192Z</time></trkpt><trkpt lat="40.0544673" lon="9.6259045"><ele>573.0</ele><time>2026-05-02T07:41:14.192Z</time></trkpt><trkpt lat="40.0545234" lon="9.6256942"><ele>573.0</ele><time>2026-05-02T07:41:15.192Z</time></trkpt><trkpt lat="40.054582" lon="9.6254952"><ele>573.0</ele><time>2026-05-02T07:41:16.192Z</time></trkpt><trkpt lat="40.0546685" lon="9.6253219"><ele>573.0</ele><time>2026-05-02T07:41:17.192Z</time></trkpt><trkpt lat="40.0547708" lon="9.6251567"><ele>575.6666666666666</ele><time>2026-05-02T07:41:18.193Z</time></trkpt><trkpt lat="40.0548763" lon="9.6250009"><ele>578.3333333333333</ele><time>2026-05-02T07:41:19.193Z</time></trkpt><trkpt lat="40.0549901" lon="9.6248661"><ele>581.0</ele><time>2026-05-02T07:41:20.193Z</time></trkpt><trkpt lat="40.0551215" lon="9.6247851"><ele>584.25</ele><time>2026-05-02T07:41:21.192Z</time></trkpt><trkpt lat="40.055263" lon="9.6247565"><ele>587.5</ele><time>2026-05-02T07:41:22.192Z</time></trkpt><trkpt lat="40.0554071" lon="9.6247869"><ele>590.75</ele><time>2026-05-02T07:41:23.193Z</time></trkpt><trkpt lat="40.0555384" lon="9.6248654"><ele>594.0</ele><time>2026-05-02T07:41:24.193Z</time></trkpt><trkpt lat="40.0556582" lon="9.6249464"><ele>595.25</ele><time>2026-05-02T07:41:25.193Z</time></trkpt><trkpt lat="40.0557908" lon="9.6249865"><ele>596.5</ele><time>2026-05-02T07:41:26.192Z</time></trkpt><trkpt lat="40.0559343" lon="9.6249912"><ele>597.75</ele><time>2026-05-02T07:41:27.193Z</time></trkpt><trkpt lat="40.0560785" lon="9.624975"><ele>599.0</ele><time>2026-05-02T07:41:28.193Z</time></trkpt><trkpt lat="40.0562197" lon="9.624926"><ele>599.0</ele><time>2026-05-02T07:41:29.193Z</time></trkpt><trkpt lat="40.0563518" lon="9.624843"><ele>599.0</ele><time>2026-05-02T07:41:30.192Z</time></trkpt><trkpt lat="40.0564748" lon="9.6247187"><ele>599.0</ele><time>2026-05-02T07:41:31.192Z</time></trkpt><trkpt lat="40.0565801" lon="9.6245624"><ele>603.3333333333333</ele><time>2026-05-02T07:41:32.192Z</time></trkpt><trkpt lat="40.0566681" lon="9.624379"><ele>607.6666666666666</ele><time>2026-05-02T07:41:33.192Z</time></trkpt><trkpt lat="40.0567318" lon="9.6241921"><ele>612.0</ele><time>2026-05-02T07:41:34.192Z</time></trkpt><trkpt lat="40.0567709" lon="9.623997"><ele>612.0</ele><time>2026-05-02T07:41:35.192Z</time></trkpt><trkpt lat="40.0567848" lon="9.6237932"><ele>612.0</ele><time>2026-05-02T07:41:36.192Z</time></trkpt><trkpt lat="40.0567912" lon="9.6235849"><ele>612.0</ele><time>2026-05-02T07:41:37.193Z</time></trkpt><trkpt lat="40.0568075" lon="9.6233713"><ele>614.6666666666666</ele><time>2026-05-02T07:41:38.193Z</time></trkpt><trkpt lat="40.0568506" lon="9.6231563"><ele>617.3333333333333</ele><time>2026-05-02T07:41:39.193Z</time></trkpt><trkpt lat="40.0568988" lon="9.6229477"><ele>620.0</ele><time>2026-05-02T07:41:40.193Z</time></trkpt><trkpt lat="40.0569355" lon="9.6227516"><ele>621.75</ele><time>2026-05-02T07:41:41.193Z</time></trkpt><trkpt lat="40.0569504" lon="9.622559"><ele>623.5</ele><time>2026-05-02T07:41:42.192Z</time></trkpt><trkpt lat="40.0569273" lon="9.6223726"><ele>625.25</ele><time>2026-05-02T07:41:43.193Z</time></trkpt><trkpt lat="40.0568668" lon="9.6222075"><ele>627.0</ele><time>2026-05-02T07:41:44.193Z</time></trkpt><trkpt lat="40.0567719" lon="9.6220691"><ele>624.0</ele><time>2026-05-02T07:41:45.192Z</time></trkpt><trkpt lat="40.0566597" lon="9.6219471"><ele>621.0</ele><time>2026-05-02T07:41:46.192Z</time></trkpt><trkpt lat="40.0565644" lon="9.6217927"><ele>618.0</ele><time>2026-05-02T07:41:47.192Z</time></trkpt><trkpt lat="40.0564841" lon="9.6215976"><ele>626.3333333333334</ele><time>2026-05-02T07:41:48.193Z</time></trkpt><trkpt lat="40.0564098" lon="9.6213779"><ele>634.6666666666667</ele><time>2026-05-02T07:41:49.193Z</time></trkpt><trkpt lat="40.0563398" lon="9.6211445"><ele>643.0</ele><time>2026-05-02T07:41:50.192Z</time></trkpt><trkpt lat="40.0562835" lon="9.6209062"><ele>643.0</ele><time>2026-05-02T07:41:51.193Z</time></trkpt><trkpt lat="40.0562434" lon="9.6206617"><ele>643.0</ele><time>2026-05-02T07:41:52.193Z</time></trkpt><trkpt lat="40.0562096" lon="9.6204135"><ele>643.0</ele><time>2026-05-02T07:41:53.193Z</time></trkpt><trkpt lat="40.0561698" lon="9.620168"><ele>643.0</ele><time>2026-05-02T07:41:54.193Z</time></trkpt><trkpt lat="40.056124" lon="9.6199405"><ele>643.0</ele><time>2026-05-02T07:41:55.192Z</time></trkpt><trkpt lat="40.0560724" lon="9.61972"><ele>643.0</ele><time>2026-05-02T07:41:56.193Z</time></trkpt><trkpt lat="40.0560047" lon="9.6195128"><ele>641.6666666666667</ele><time>2026-05-02T07:41:57.192Z</time></trkpt><trkpt lat="40.0559201" lon="9.6193219"><ele>640.3333333333334</ele><time>2026-05-02T07:41:58.193Z</time></trkpt><trkpt lat="40.0558357" lon="9.6191422"><ele>639.0</ele><time>2026-05-02T07:41:59.192Z</time></trkpt><trkpt lat="40.0557752" lon="9.6189661"><ele>639.75</ele><time>2026-05-02T07:42:00.192Z</time></trkpt><trkpt lat="40.05575" lon="9.6187858"><ele>640.5</ele><time>2026-05-02T07:42:01.193Z</time></trkpt><trkpt lat="40.0557577" lon="9.6185935"><ele>641.25</ele><time>2026-05-02T07:42:02.192Z</time></trkpt><trkpt lat="40.0557878" lon="9.6183887"><ele>642.0</ele><time>2026-05-02T07:42:03.193Z</time></trkpt><trkpt lat="40.0558328" lon="9.6181736"><ele>642.0</ele><time>2026-05-02T07:42:04.193Z</time></trkpt><trkpt lat="40.0558805" lon="9.6179537"><ele>642.0</ele><time>2026-05-02T07:42:05.192Z</time></trkpt><trkpt lat="40.0559199" lon="9.6177309"><ele>642.0</ele><time>2026-05-02T07:42:06.192Z</time></trkpt><trkpt lat="40.0559411" lon="9.6175101"><ele>644.0</ele><time>2026-05-02T07:42:07.193Z</time></trkpt><trkpt lat="40.055932" lon="9.6172935"><ele>646.0</ele><time>2026-05-02T07:42:08.192Z</time></trkpt><trkpt lat="40.055898" lon="9.6170831"><ele>648.0</ele><time>2026-05-02T07:42:09.193Z</time></trkpt><trkpt lat="40.0558441" lon="9.616876"><ele>657.0</ele><time>2026-05-02T07:42:10.193Z</time></trkpt><trkpt lat="40.0557633" lon="9.616672"><ele>666.0</ele><time>2026-05-02T07:42:11.193Z</time></trkpt><trkpt lat="40.0556861" lon="9.6164641"><ele>675.0</ele><time>2026-05-02T07:42:12.192Z</time></trkpt><trkpt lat="40.0556303" lon="9.6162694"><ele>672.75</ele><time>2026-05-02T07:42:13.192Z</time></trkpt><trkpt lat="40.0555612" lon="9.616103"><ele>670.5</ele><time>2026-05-02T07:42:14.192Z</time></trkpt><trkpt lat="40.0554623" lon="9.6159671"><ele>668.25</ele><time>2026-05-02T07:42:15.192Z</time></trkpt><trkpt lat="40.0553416" lon="9.6158631"><ele>666.0</ele><time>2026-05-02T07:42:16.193Z</time></trkpt><trkpt lat="40.0552259" lon="9.6157835"><ele>666.0</ele><time>2026-05-02T07:42:17.192Z</time></trkpt><trkpt lat="40.0551455" lon="9.6156961"><ele>666.0</ele><time>2026-05-02T07:42:18.193Z</time></trkpt><trkpt lat="40.0551086" lon="9.6155885"><ele>666.0</ele><time>2026-05-02T07:42:19.192Z</time></trkpt><trkpt lat="40.0551162" lon="9.6154819"><ele>666.0</ele><time>2026-05-02T07:42:20.192Z</time></trkpt><trkpt lat="40.0551649" lon="9.6153808"><ele>666.0</ele><time>2026-05-02T07:42:21.192Z</time></trkpt><trkpt lat="40.0552501" lon="9.6152951"><ele>669.3333333333334</ele><time>2026-05-02T07:42:22.193Z</time></trkpt><trkpt lat="40.055364" lon="9.615199"><ele>672.6666666666667</ele><time>2026-05-02T07:42:23.192Z</time></trkpt><trkpt lat="40.0555013" lon="9.6150858"><ele>676.0</ele><time>2026-05-02T07:42:24.193Z</time></trkpt><trkpt lat="40.0556554" lon="9.6149665"><ele>672.0</ele><time>2026-05-02T07:42:25.193Z</time></trkpt><trkpt lat="40.0558199" lon="9.6148549"><ele>668.0</ele><time>2026-05-02T07:42:26.193Z</time></trkpt><trkpt lat="40.0559763" lon="9.6147587"><ele>664.0</ele><time>2026-05-02T07:42:27.192Z</time></trkpt><trkpt lat="40.0561194" lon="9.6146723"><ele>664.0</ele><time>2026-05-02T07:42:28.192Z</time></trkpt><trkpt lat="40.0562436" lon="9.6146035"><ele>664.0</ele><time>2026-05-02T07:42:29.192Z</time></trkpt><trkpt lat="40.0563679" lon="9.6145763"><ele>664.0</ele><time>2026-05-02T07:42:30.193Z</time></trkpt><trkpt lat="40.0564937" lon="9.614606"><ele>664.0</ele><time>2026-05-02T07:42:31.192Z</time></trkpt><trkpt lat="40.0566259" lon="9.6146631"><ele>663.0</ele><time>2026-05-02T07:42:32.192Z</time></trkpt><trkpt lat="40.056767" lon="9.6147357"><ele>662.0</ele><time>2026-05-02T07:42:33.192Z</time></trkpt><trkpt lat="40.0569151" lon="9.6147952"><ele>661.0</ele><time>2026-05-02T07:42:34.193Z</time></trkpt><trkpt lat="40.0570677" lon="9.6148191"><ele>661.0</ele><time>2026-05-02T07:42:35.192Z</time></trkpt><trkpt lat="40.0572229" lon="9.6148021"><ele>661.0</ele><time>2026-05-02T07:42:36.192Z</time></trkpt><trkpt lat="40.0573758" lon="9.6147449"><ele>661.0</ele><time>2026-05-02T07:42:37.193Z</time></trkpt><trkpt lat="40.0575174" lon="9.614689"><ele>663.0</ele><time>2026-05-02T07:42:38.193Z</time></trkpt><trkpt lat="40.0576493" lon="9.6146828"><ele>665.0</ele><time>2026-05-02T07:42:39.192Z</time></trkpt><trkpt lat="40.0577662" lon="9.6147341"><ele>667.0</ele><time>2026-05-02T07:42:40.192Z</time></trkpt><trkpt lat="40.0578665" lon="9.6148248"><ele>669.0</ele><time>2026-05-02T07:42:41.193Z</time></trkpt><trkpt lat="40.0579709" lon="9.6149248"><ele>669.0</ele><time>2026-05-02T07:42:42.193Z</time></trkpt><trkpt lat="40.0580977" lon="9.6150064"><ele>669.0</ele><time>2026-05-02T07:42:43.193Z</time></trkpt><trkpt lat="40.0582357" lon="9.6150673"><ele>669.0</ele><time>2026-05-02T07:42:44.193Z</time></trkpt><trkpt lat="40.0583926" lon="9.6150859"><ele>669.0</ele><time>2026-05-02T07:42:45.192Z</time></trkpt><trkpt lat="40.0585648" lon="9.615077"><ele>674.3333333333334</ele><time>2026-05-02T07:42:46.193Z</time></trkpt><trkpt lat="40.0587532" lon="9.615058"><ele>679.6666666666667</ele><time>2026-05-02T07:42:47.193Z</time></trkpt><trkpt lat="40.0589444" lon="9.6150317"><ele>685.0</ele><time>2026-05-02T07:42:48.192Z</time></trkpt><trkpt lat="40.0591222" lon="9.6149874"><ele>685.6666666666667</ele><time>2026-05-02T07:42:49.193Z</time></trkpt><trkpt lat="40.059287" lon="9.6149136"><ele>686.3333333333334</ele><time>2026-05-02T07:42:50.192Z</time></trkpt><trkpt lat="40.0594489" lon="9.6148069"><ele>687.0</ele><time>2026-05-02T07:42:51.193Z</time></trkpt><trkpt lat="40.0595907" lon="9.6146905"><ele>687.0</ele><time>2026-05-02T07:42:52.193Z</time></trkpt><trkpt lat="40.0597174" lon="9.6145438"><ele>687.0</ele><time>2026-05-02T07:42:53.192Z</time></trkpt><trkpt lat="40.059828" lon="9.6143742"><ele>687.0</ele><time>2026-05-02T07:42:54.193Z</time></trkpt><trkpt lat="40.0599252" lon="9.6142347"><ele>689.0</ele><time>2026-05-02T07:42:55.193Z</time></trkpt><trkpt lat="40.0600317" lon="9.6141494"><ele>691.0</ele><time>2026-05-02T07:42:56.192Z</time></trkpt><trkpt lat="40.0601445" lon="9.6141185"><ele>693.0</ele><time>2026-05-02T07:42:57.193Z</time></trkpt><trkpt lat="40.0602641" lon="9.6141166"><ele>695.0</ele><time>2026-05-02T07:42:58.192Z</time></trkpt><trkpt lat="40.0603862" lon="9.6140955"><ele>695.0</ele><time>2026-05-02T07:42:59.192Z</time></trkpt><trkpt lat="40.0605079" lon="9.6140255"><ele>695.0</ele><time>2026-05-02T07:43:00.193Z</time></trkpt><trkpt lat="40.0606291" lon="9.6139121"><ele>695.0</ele><time>2026-05-02T07:43:01.193Z</time></trkpt><trkpt lat="40.0607562" lon="9.613774"><ele>695.0</ele><time>2026-05-02T07:43:02.193Z</time></trkpt><trkpt lat="40.060887" lon="9.613628"><ele>698.75</ele><time>2026-05-02T07:43:03.192Z</time></trkpt><trkpt lat="40.0610075" lon="9.6134817"><ele>702.5</ele><time>2026-05-02T07:43:04.193Z</time></trkpt><trkpt lat="40.0611134" lon="9.6133543"><ele>706.25</ele><time>2026-05-02T07:43:05.192Z</time></trkpt><trkpt lat="40.0612227" lon="9.6132732"><ele>710.0</ele><time>2026-05-02T07:43:06.192Z</time></trkpt><trkpt lat="40.0613398" lon="9.6132508"><ele>710.0</ele><time>2026-05-02T07:43:07.192Z</time></trkpt><trkpt lat="40.061468" lon="9.6132686"><ele>710.0</ele><time>2026-05-02T07:43:08.193Z</time></trkpt><trkpt lat="40.0616172" lon="9.6133134"><ele>710.0</ele><time>2026-05-02T07:43:09.192Z</time></trkpt><trkpt lat="40.0617889" lon="9.6133501"><ele>707.3333333333333</ele><time>2026-05-02T07:43:10.193Z</time></trkpt><trkpt lat="40.0619849" lon="9.6133736"><ele>704.6666666666666</ele><time>2026-05-02T07:43:11.193Z</time></trkpt><trkpt lat="40.0621922" lon="9.6133903"><ele>702.0</ele><time>2026-05-02T07:43:12.193Z</time></trkpt><trkpt lat="40.0623818" lon="9.6133902"><ele>704.6666666666666</ele><time>2026-05-02T07:43:13.193Z</time></trkpt><trkpt lat="40.0625673" lon="9.6133616"><ele>707.3333333333333</ele><time>2026-05-02T07:43:14.193Z</time></trkpt><trkpt lat="40.0627504" lon="9.6133089"><ele>710.0</ele><time>2026-05-02T07:43:15.193Z</time></trkpt><trkpt lat="40.0629281" lon="9.6132317"><ele>710.0</ele><time>2026-05-02T07:43:16.192Z</time></trkpt><trkpt lat="40.0630949" lon="9.6131213"><ele>710.0</ele><time>2026-05-02T07:43:17.192Z</time></trkpt><trkpt lat="40.0632564" lon="9.6129823"><ele>710.0</ele><time>2026-05-02T07:43:18.193Z</time></trkpt><trkpt lat="40.0634155" lon="9.612835"><ele>714.6666666666666</ele><time>2026-05-02T07:43:19.192Z</time></trkpt><trkpt lat="40.0635798" lon="9.6127097"><ele>719.3333333333334</ele><time>2026-05-02T07:43:20.193Z</time></trkpt><trkpt lat="40.0637559" lon="9.6126267"><ele>724.0</ele><time>2026-05-02T07:43:21.193Z</time></trkpt><trkpt lat="40.0639487" lon="9.6125793"><ele>723.3333333333334</ele><time>2026-05-02T07:43:22.192Z</time></trkpt><trkpt lat="40.0641526" lon="9.6125436"><ele>722.6666666666666</ele><time>2026-05-02T07:43:23.192Z</time></trkpt><trkpt lat="40.0643474" lon="9.6125071"><ele>722.0</ele><time>2026-05-02T07:43:24.193Z</time></trkpt><trkpt lat="40.0645258" lon="9.6124692"><ele>722.0</ele><time>2026-05-02T07:43:25.193Z</time></trkpt><trkpt lat="40.0646962" lon="9.6124292"><ele>722.0</ele><time>2026-05-02T07:43:26.192Z</time></trkpt><trkpt lat="40.0648705" lon="9.6123999"><ele>722.0</ele><time>2026-05-02T07:43:27.192Z</time></trkpt><trkpt lat="40.0650426" lon="9.6124047"><ele>721.25</ele><time>2026-05-02T07:43:28.193Z</time></trkpt><trkpt lat="40.0652017" lon="9.6124468"><ele>720.5</ele><time>2026-05-02T07:43:29.192Z</time></trkpt><trkpt lat="40.0653452" lon="9.6124999"><ele>719.75</ele><time>2026-05-02T07:43:30.192Z</time></trkpt><trkpt lat="40.0654797" lon="9.612514"><ele>719.0</ele><time>2026-05-02T07:43:31.192Z</time></trkpt><trkpt lat="40.0656142" lon="9.6124654"><ele>719.0</ele><time>2026-05-02T07:43:32.192Z</time></trkpt><trkpt lat="40.0657602" lon="9.6123894"><ele>719.0</ele><time>2026-05-02T07:43:33.192Z</time></trkpt><trkpt lat="40.0659269" lon="9.6123186"><ele>719.0</ele><time>2026-05-02T07:43:34.192Z</time></trkpt><trkpt lat="40.066115" lon="9.6122579"><ele>719.6666666666666</ele><time>2026-05-02T07:43:35.192Z</time></trkpt><trkpt lat="40.0663095" lon="9.6121908"><ele>720.3333333333334</ele><time>2026-05-02T07:43:36.193Z</time></trkpt><trkpt lat="40.0664902" lon="9.6121014"><ele>721.0</ele><time>2026-05-02T07:43:37.193Z</time></trkpt><trkpt lat="40.0666552" lon="9.612004"><ele>715.3333333333334</ele><time>2026-05-02T07:43:38.193Z</time></trkpt><trkpt lat="40.0668151" lon="9.6119277"><ele>709.6666666666666</ele><time>2026-05-02T07:43:39.192Z</time></trkpt><trkpt lat="40.0669747" lon="9.611899"><ele>704.0</ele><time>2026-05-02T07:43:40.192Z</time></trkpt><trkpt lat="40.0671222" lon="9.6118933"><ele>704.0</ele><time>2026-05-02T07:43:41.192Z</time></trkpt><trkpt lat="40.0672557" lon="9.6118521"><ele>704.0</ele><time>2026-05-02T07:43:42.193Z</time></trkpt><trkpt lat="40.067384" lon="9.6117704"><ele>704.0</ele><time>2026-05-02T07:43:43.193Z</time></trkpt><trkpt lat="40.0675217" lon="9.611691"><ele>704.0</ele><time>2026-05-02T07:43:44.193Z</time></trkpt><trkpt lat="40.0676808" lon="9.6116272"><ele>707.6666666666666</ele><time>2026-05-02T07:43:45.193Z</time></trkpt><trkpt lat="40.0678541" lon="9.6115583"><ele>711.3333333333334</ele><time>2026-05-02T07:43:46.193Z</time></trkpt><trkpt lat="40.0680195" lon="9.611492"><ele>715.0</ele><time>2026-05-02T07:43:47.193Z</time></trkpt><trkpt lat="40.0681686" lon="9.6114098"><ele>714.0</ele><time>2026-05-02T07:43:48.192Z</time></trkpt><trkpt lat="40.0683047" lon="9.6112937"><ele>713.0</ele><time>2026-05-02T07:43:49.192Z</time></trkpt><trkpt lat="40.0684137" lon="9.6111373"><ele>712.0</ele><time>2026-05-02T07:43:50.192Z</time></trkpt><trkpt lat="40.0685016" lon="9.6109568"><ele>712.0</ele><time>2026-05-02T07:43:51.192Z</time></trkpt><trkpt lat="40.0685838" lon="9.6107954"><ele>712.0</ele><time>2026-05-02T07:43:52.192Z</time></trkpt><trkpt lat="40.0686875" lon="9.6106824"><ele>712.0</ele><time>2026-05-02T07:43:53.193Z</time></trkpt><trkpt lat="40.0688126" lon="9.6106035"><ele>712.0</ele><time>2026-05-02T07:43:54.192Z</time></trkpt><trkpt lat="40.0689433" lon="9.6105201"><ele>712.0</ele><time>2026-05-02T07:43:55.193Z</time></trkpt><trkpt lat="40.0690574" lon="9.6103885"><ele>712.0</ele><time>2026-05-02T07:43:56.192Z</time></trkpt><trkpt lat="40.069151" lon="9.6102362"><ele>712.0</ele><time>2026-05-02T07:43:57.192Z</time></trkpt><trkpt lat="40.0692447" lon="9.6101039"><ele>712.0</ele><time>2026-05-02T07:43:58.192Z</time></trkpt><trkpt lat="40.0693612" lon="9.6100086"><ele>712.0</ele><time>2026-05-02T07:43:59.192Z</time></trkpt><trkpt lat="40.0695061" lon="9.6099253"><ele>712.0</ele><time>2026-05-02T07:44:00.193Z</time></trkpt><trkpt lat="40.069672" lon="9.6098347"><ele>712.0</ele><time>2026-05-02T07:44:01.193Z</time></trkpt><trkpt lat="40.0698518" lon="9.6097361"><ele>709.6666666666667</ele><time>2026-05-02T07:44:02.192Z</time></trkpt><trkpt lat="40.0700412" lon="9.6096404"><ele>707.3333333333334</ele><time>2026-05-02T07:44:03.193Z</time></trkpt><trkpt lat="40.0702137" lon="9.6095565"><ele>705.0</ele><time>2026-05-02T07:44:04.193Z</time></trkpt><trkpt lat="40.0703713" lon="9.6094835"><ele>705.0</ele><time>2026-05-02T07:44:05.193Z</time></trkpt><trkpt lat="40.0705318" lon="9.6094399"><ele>705.0</ele><time>2026-05-02T07:44:06.193Z</time></trkpt><trkpt lat="40.070698" lon="9.6094466"><ele>705.0</ele><time>2026-05-02T07:44:07.193Z</time></trkpt><trkpt lat="40.0708689" lon="9.609495"><ele>712.0</ele><time>2026-05-02T07:44:08.192Z</time></trkpt><trkpt lat="40.0710437" lon="9.6095737"><ele>719.0</ele><time>2026-05-02T07:44:09.193Z</time></trkpt><trkpt lat="40.0712152" lon="9.6096519"><ele>726.0</ele><time>2026-05-02T07:44:10.192Z</time></trkpt><trkpt lat="40.0713898" lon="9.6096797"><ele>726.0</ele><time>2026-05-02T07:44:11.192Z</time></trkpt><trkpt lat="40.0715708" lon="9.6096771"><ele>726.0</ele><time>2026-05-02T07:44:12.192Z</time></trkpt><trkpt lat="40.0717523" lon="9.6096323"><ele>726.0</ele><time>2026-05-02T07:44:13.193Z</time></trkpt><trkpt lat="40.0719231" lon="9.6095668"><ele>727.3333333333334</ele><time>2026-05-02T07:44:14.193Z</time></trkpt><trkpt lat="40.0720881" lon="9.609511"><ele>728.6666666666667</ele><time>2026-05-02T07:44:15.193Z</time></trkpt><trkpt lat="40.0722639" lon="9.6094996"><ele>730.0</ele><time>2026-05-02T07:44:16.192Z</time></trkpt><trkpt lat="40.0724431" lon="9.609521"><ele>730.3333333333334</ele><time>2026-05-02T07:44:17.193Z</time></trkpt><trkpt lat="40.0726125" lon="9.6095465"><ele>730.6666666666666</ele><time>2026-05-02T07:44:18.192Z</time></trkpt><trkpt lat="40.0727582" lon="9.6095442"><ele>731.0</ele><time>2026-05-02T07:44:19.193Z</time></trkpt><trkpt lat="40.0728903" lon="9.6095004"><ele>725.25</ele><time>2026-05-02T07:44:20.193Z</time></trkpt><trkpt lat="40.0729927" lon="9.6094006"><ele>719.5</ele><time>2026-05-02T07:44:21.192Z</time></trkpt><trkpt lat="40.073078" lon="9.6092671"><ele>713.75</ele><time>2026-05-02T07:44:22.193Z</time></trkpt><trkpt lat="40.0731365" lon="9.6090899"><ele>708.0</ele><time>2026-05-02T07:44:23.192Z</time></trkpt><trkpt lat="40.0731635" lon="9.6089099"><ele>708.0</ele><time>2026-05-02T07:44:24.192Z</time></trkpt><trkpt lat="40.0731781" lon="9.6087326"><ele>708.0</ele><time>2026-05-02T07:44:25.192Z</time></trkpt><trkpt lat="40.073232" lon="9.608566"><ele>708.0</ele><time>2026-05-02T07:44:26.192Z</time></trkpt><trkpt lat="40.0733219" lon="9.6084158"><ele>708.0</ele><time>2026-05-02T07:44:27.192Z</time></trkpt><trkpt lat="40.0734418" lon="9.6082795"><ele>709.0</ele><time>2026-05-02T07:44:28.192Z</time></trkpt><trkpt lat="40.0735803" lon="9.6081534"><ele>710.0</ele><time>2026-05-02T07:44:29.192Z</time></trkpt><trkpt lat="40.0737178" lon="9.6079989"><ele>711.0</ele><time>2026-05-02T07:44:30.193Z</time></trkpt><trkpt lat="40.0738379" lon="9.6078295"><ele>705.3333333333334</ele><time>2026-05-02T07:44:31.193Z</time></trkpt><trkpt lat="40.073938" lon="9.6076552"><ele>699.6666666666667</ele><time>2026-05-02T07:44:32.193Z</time></trkpt><trkpt lat="40.0740066" lon="9.6074572"><ele>694.0</ele><time>2026-05-02T07:44:33.193Z</time></trkpt><trkpt lat="40.0740433" lon="9.6072424"><ele>694.0</ele><time>2026-05-02T07:44:34.192Z</time></trkpt><trkpt lat="40.0740728" lon="9.6070161"><ele>694.0</ele><time>2026-05-02T07:44:35.192Z</time></trkpt><trkpt lat="40.0740987" lon="9.6067747"><ele>694.0</ele><time>2026-05-02T07:44:36.192Z</time></trkpt><trkpt lat="40.0741272" lon="9.6065424"><ele>698.0</ele><time>2026-05-02T07:44:37.193Z</time></trkpt><trkpt lat="40.0741713" lon="9.606325"><ele>702.0</ele><time>2026-05-02T07:44:38.192Z</time></trkpt><trkpt lat="40.0742489" lon="9.6061229"><ele>706.0</ele><time>2026-05-02T07:44:39.193Z</time></trkpt><trkpt lat="40.0743586" lon="9.6059242"><ele>706.0</ele><time>2026-05-02T07:44:40.193Z</time></trkpt><trkpt lat="40.0744871" lon="9.6057177"><ele>706.0</ele><time>2026-05-02T07:44:41.193Z</time></trkpt><trkpt lat="40.0746242" lon="9.6054942"><ele>706.0</ele><time>2026-05-02T07:44:42.193Z</time></trkpt><trkpt lat="40.0747517" lon="9.6052869"><ele>708.3333333333334</ele><time>2026-05-02T07:44:43.192Z</time></trkpt><trkpt lat="40.0748836" lon="9.605104"><ele>710.6666666666666</ele><time>2026-05-02T07:44:44.192Z</time></trkpt><trkpt lat="40.0750392" lon="9.6049605"><ele>713.0</ele><time>2026-05-02T07:44:45.193Z</time></trkpt><trkpt lat="40.0752241" lon="9.6048444"><ele>713.0</ele><time>2026-05-02T07:44:46.192Z</time></trkpt><trkpt lat="40.0754178" lon="9.6047451"><ele>713.0</ele><time>2026-05-02T07:44:47.193Z</time></trkpt><trkpt lat="40.0755941" lon="9.6046508"><ele>713.0</ele><time>2026-05-02T07:44:48.192Z</time></trkpt><trkpt lat="40.0757485" lon="9.6045282"><ele>711.3333333333333</ele><time>2026-05-02T07:44:49.193Z</time></trkpt><trkpt lat="40.0758871" lon="9.6043748"><ele>709.6666666666666</ele><time>2026-05-02T07:44:50.192Z</time></trkpt><trkpt lat="40.0760306" lon="9.6042217"><ele>708.0</ele><time>2026-05-02T07:44:51.193Z</time></trkpt><trkpt lat="40.0761906" lon="9.6040809"><ele>708.0</ele><time>2026-05-02T07:44:52.192Z</time></trkpt><trkpt lat="40.0763656" lon="9.60394"><ele>708.0</ele><time>2026-05-02T07:44:53.193Z</time></trkpt><trkpt lat="40.0765373" lon="9.6038074"><ele>708.0</ele><time>2026-05-02T07:44:54.192Z</time></trkpt><trkpt lat="40.0766975" lon="9.60368"><ele>707.0</ele><time>2026-05-02T07:44:55.192Z</time></trkpt><trkpt lat="40.0768431" lon="9.6035547"><ele>706.0</ele><time>2026-05-02T07:44:56.192Z</time></trkpt><trkpt lat="40.0769609" lon="9.6034176"><ele>705.0</ele><time>2026-05-02T07:44:57.192Z</time></trkpt><trkpt lat="40.0770427" lon="9.6032569"><ele>705.0</ele><time>2026-05-02T07:44:58.192Z</time></trkpt><trkpt lat="40.0770955" lon="9.6030806"><ele>705.0</ele><time>2026-05-02T07:44:59.192Z</time></trkpt><trkpt lat="40.0771412" lon="9.6028908"><ele>705.0</ele><time>2026-05-02T07:45:00.192Z</time></trkpt><trkpt lat="40.0771938" lon="9.6026994"><ele>704.0</ele><time>2026-05-02T07:45:01.192Z</time></trkpt><trkpt lat="40.0772538" lon="9.6025453"><ele>703.0</ele><time>2026-05-02T07:45:02.192Z</time></trkpt><trkpt lat="40.0773357" lon="9.6024422"><ele>702.0</ele><time>2026-05-02T07:45:03.192Z</time></trkpt><trkpt lat="40.0774314" lon="9.6023963"><ele>701.0</ele><time>2026-05-02T07:45:04.193Z</time></trkpt><trkpt lat="40.0775345" lon="9.6024099"><ele>703.75</ele><time>2026-05-02T07:45:05.193Z</time></trkpt><trkpt lat="40.0776346" lon="9.6024802"><ele>706.5</ele><time>2026-05-02T07:45:06.193Z</time></trkpt><trkpt lat="40.0777093" lon="9.6026008"><ele>709.25</ele><time>2026-05-02T07:45:07.192Z</time></trkpt><trkpt lat="40.0777619" lon="9.602759"><ele>712.0</ele><time>2026-05-02T07:45:08.193Z</time></trkpt><trkpt lat="40.0778123" lon="9.6029469"><ele>712.0</ele><time>2026-05-02T07:45:09.193Z</time></trkpt><trkpt lat="40.0778732" lon="9.6031674"><ele>712.0</ele><time>2026-05-02T07:45:10.192Z</time></trkpt><trkpt lat="40.077932" lon="9.6033733"><ele>712.0</ele><time>2026-05-02T07:45:11.193Z</time></trkpt><trkpt lat="40.0779813" lon="9.6035538"><ele>712.0</ele><time>2026-05-02T07:45:12.192Z</time></trkpt><trkpt lat="40.0779947" lon="9.6037176"><ele>712.0</ele><time>2026-05-02T07:45:13.193Z</time></trkpt><trkpt lat="40.0779647" lon="9.6038951"><ele>712.0</ele><time>2026-05-02T07:45:14.192Z</time></trkpt><trkpt lat="40.077908" lon="9.6040897"><ele>712.0</ele><time>2026-05-02T07:45:15.193Z</time></trkpt><trkpt lat="40.0778507" lon="9.604267"><ele>712.0</ele><time>2026-05-02T07:45:16.193Z</time></trkpt><trkpt lat="40.0778134" lon="9.6044235"><ele>712.0</ele><time>2026-05-02T07:45:17.192Z</time></trkpt><trkpt lat="40.0778151" lon="9.6045635"><ele>712.0</ele><time>2026-05-02T07:45:18.193Z</time></trkpt><trkpt lat="40.0778613" lon="9.6046694"><ele>712.0</ele><time>2026-05-02T07:45:19.192Z</time></trkpt><trkpt lat="40.0779363" lon="9.6047227"><ele>712.0</ele><time>2026-05-02T07:45:20.192Z</time></trkpt><trkpt lat="40.0780208" lon="9.6047243"><ele>712.0</ele><time>2026-05-02T07:45:21.192Z</time></trkpt><trkpt lat="40.0780997" lon="9.6046637"><ele>712.0</ele><time>2026-05-02T07:45:22.193Z</time></trkpt><trkpt lat="40.0781624" lon="9.6045437"><ele>712.0</ele><time>2026-05-02T07:45:23.193Z</time></trkpt><trkpt lat="40.0782075" lon="9.6043795"><ele>712.0</ele><time>2026-05-02T07:45:24.193Z</time></trkpt><trkpt lat="40.0782399" lon="9.6041871"><ele>706.0</ele><time>2026-05-02T07:45:25.193Z</time></trkpt><trkpt lat="40.0782752" lon="9.6039888"><ele>700.0</ele><time>2026-05-02T07:45:26.192Z</time></trkpt><trkpt lat="40.0783289" lon="9.6037824"><ele>694.0</ele><time>2026-05-02T07:45:27.192Z</time></trkpt><trkpt lat="40.0783884" lon="9.6035624"><ele>694.0</ele><time>2026-05-02T07:45:28.193Z</time></trkpt><trkpt lat="40.0784499" lon="9.6033454"><ele>694.0</ele><time>2026-05-02T07:45:29.193Z</time></trkpt><trkpt lat="40.0785128" lon="9.6031386"><ele>694.0</ele><time>2026-05-02T07:45:30.193Z</time></trkpt><trkpt lat="40.0785842" lon="9.6029557"><ele>696.0</ele><time>2026-05-02T07:45:31.193Z</time></trkpt><trkpt lat="40.0786711" lon="9.6028006"><ele>698.0</ele><time>2026-05-02T07:45:32.193Z</time></trkpt><trkpt lat="40.0787755" lon="9.6026687"><ele>700.0</ele><time>2026-05-02T07:45:33.192Z</time></trkpt><trkpt lat="40.0789079" lon="9.602562"><ele>702.0</ele><time>2026-05-02T07:45:34.192Z</time></trkpt><trkpt lat="40.0790613" lon="9.6024666"><ele>696.3333333333334</ele><time>2026-05-02T07:45:35.192Z</time></trkpt><trkpt lat="40.0792295" lon="9.6023801"><ele>690.6666666666667</ele><time>2026-05-02T07:45:36.193Z</time></trkpt><trkpt lat="40.0794054" lon="9.6023067"><ele>685.0</ele><time>2026-05-02T07:45:37.193Z</time></trkpt><trkpt lat="40.0795871" lon="9.6022465"><ele>685.0</ele><time>2026-05-02T07:45:38.192Z</time></trkpt><trkpt lat="40.0797658" lon="9.6022046"><ele>685.0</ele><time>2026-05-02T07:45:39.193Z</time></trkpt><trkpt lat="40.0799386" lon="9.6021821"><ele>685.0</ele><time>2026-05-02T07:45:40.192Z</time></trkpt><trkpt lat="40.0801065" lon="9.6021868"><ele>681.6666666666667</ele><time>2026-05-02T07:45:41.193Z</time></trkpt><trkpt lat="40.0802642" lon="9.6022166"><ele>678.3333333333334</ele><time>2026-05-02T07:45:42.192Z</time></trkpt><trkpt lat="40.0804108" lon="9.6022433"><ele>675.0</ele><time>2026-05-02T07:45:43.192Z</time></trkpt><trkpt lat="40.0805531" lon="9.602247"><ele>675.0</ele><time>2026-05-02T07:45:44.192Z</time></trkpt><trkpt lat="40.0806921" lon="9.6022034"><ele>675.0</ele><time>2026-05-02T07:45:45.193Z</time></trkpt><trkpt lat="40.0808245" lon="9.602155"><ele>675.0</ele><time>2026-05-02T07:45:46.192Z</time></trkpt><trkpt lat="40.080959" lon="9.6021105"><ele>675.0</ele><time>2026-05-02T07:45:47.193Z</time></trkpt><trkpt lat="40.0810894" lon="9.6020726"><ele>672.25</ele><time>2026-05-02T07:45:48.192Z</time></trkpt><trkpt lat="40.0812134" lon="9.6020744"><ele>669.5</ele><time>2026-05-02T07:45:49.192Z</time></trkpt><trkpt lat="40.0813311" lon="9.6021252"><ele>666.75</ele><time>2026-05-02T07:45:50.192Z</time></trkpt><trkpt lat="40.0814339" lon="9.6021965"><ele>664.0</ele><time>2026-05-02T07:45:51.193Z</time></trkpt><trkpt lat="40.0815364" lon="9.6022401"><ele>662.0</ele><time>2026-05-02T07:45:52.193Z</time></trkpt><trkpt lat="40.0816428" lon="9.6022237"><ele>660.0</ele><time>2026-05-02T07:45:53.192Z</time></trkpt><trkpt lat="40.0817492" lon="9.6021703"><ele>658.0</ele><time>2026-05-02T07:45:54.192Z</time></trkpt><trkpt lat="40.0818622" lon="9.6020901"><ele>656.0</ele><time>2026-05-02T07:45:55.193Z</time></trkpt><trkpt lat="40.0819863" lon="9.60201"><ele>656.6666666666666</ele><time>2026-05-02T07:45:56.193Z</time></trkpt><trkpt lat="40.0821243" lon="9.6019505"><ele>657.3333333333334</ele><time>2026-05-02T07:45:57.193Z</time></trkpt><trkpt lat="40.0822797" lon="9.6019093"><ele>658.0</ele><time>2026-05-02T07:45:58.192Z</time></trkpt><trkpt lat="40.0824421" lon="9.6018908"><ele>658.0</ele><time>2026-05-02T07:45:59.192Z</time></trkpt><trkpt lat="40.0826059" lon="9.6019075"><ele>658.0</ele><time>2026-05-02T07:46:00.193Z</time></trkpt><trkpt lat="40.0827649" lon="9.6019432"><ele>658.0</ele><time>2026-05-02T07:46:01.193Z</time></trkpt><trkpt lat="40.082914" lon="9.601972"><ele>658.0</ele><time>2026-05-02T07:46:02.193Z</time></trkpt><trkpt lat="40.0830522" lon="9.6019552"><ele>658.0</ele><time>2026-05-02T07:46:03.193Z</time></trkpt><trkpt lat="40.0831814" lon="9.6018913"><ele>658.0</ele><time>2026-05-02T07:46:04.193Z</time></trkpt><trkpt lat="40.0833041" lon="9.6018054"><ele>658.0</ele><time>2026-05-02T07:46:05.193Z</time></trkpt><trkpt lat="40.0834332" lon="9.6017426"><ele>657.25</ele><time>2026-05-02T07:46:06.193Z</time></trkpt><trkpt lat="40.0835539" lon="9.6017191"><ele>656.5</ele><time>2026-05-02T07:46:07.192Z</time></trkpt><trkpt lat="40.0836616" lon="9.601744"><ele>655.75</ele><time>2026-05-02T07:46:08.193Z</time></trkpt><trkpt lat="40.0837589" lon="9.6018176"><ele>655.0</ele><time>2026-05-02T07:46:09.192Z</time></trkpt><trkpt lat="40.0838487" lon="9.6019388"><ele>657.5</ele><time>2026-05-02T07:46:10.192Z</time></trkpt><trkpt lat="40.0839439" lon="9.6020967"><ele>660.0</ele><time>2026-05-02T07:46:11.192Z</time></trkpt><trkpt lat="40.084041" lon="9.6022556"><ele>662.5</ele><time>2026-05-02T07:46:12.193Z</time></trkpt><trkpt lat="40.0841384" lon="9.6023767"><ele>665.0</ele><time>2026-05-02T07:46:13.192Z</time></trkpt><trkpt lat="40.0842592" lon="9.6024567"><ele>668.0</ele><time>2026-05-02T07:46:14.193Z</time></trkpt><trkpt lat="40.0844043" lon="9.6025191"><ele>671.0</ele><time>2026-05-02T07:46:15.192Z</time></trkpt><trkpt lat="40.0845572" lon="9.6026035"><ele>674.0</ele><time>2026-05-02T07:46:16.192Z</time></trkpt><trkpt lat="40.0847227" lon="9.6027004"><ele>674.0</ele><time>2026-05-02T07:46:17.193Z</time></trkpt><trkpt lat="40.0848901" lon="9.6027972"><ele>674.0</ele><time>2026-05-02T07:46:18.192Z</time></trkpt><trkpt lat="40.0850359" lon="9.602883"><ele>674.0</ele><time>2026-05-02T07:46:19.192Z</time></trkpt><trkpt lat="40.0851671" lon="9.602951"><ele>679.25</ele><time>2026-05-02T07:46:20.193Z</time></trkpt><trkpt lat="40.0852954" lon="9.6029788"><ele>684.5</ele><time>2026-05-02T07:46:21.193Z</time></trkpt><trkpt lat="40.0854328" lon="9.6029728"><ele>689.75</ele><time>2026-05-02T07:46:22.193Z</time></trkpt><trkpt lat="40.0855693" lon="9.6029329"><ele>695.0</ele><time>2026-05-02T07:46:23.192Z</time></trkpt><trkpt lat="40.0857049" lon="9.6028672"><ele>686.0</ele><time>2026-05-02T07:46:24.192Z</time></trkpt><trkpt lat="40.0858364" lon="9.6027911"><ele>677.0</ele><time>2026-05-02T07:46:25.192Z</time></trkpt><trkpt lat="40.0859613" lon="9.6027501"><ele>668.0</ele><time>2026-05-02T07:46:26.193Z</time></trkpt><trkpt lat="40.0860834" lon="9.6027471"><ele>659.0</ele><time>2026-05-02T07:46:27.193Z</time></trkpt><trkpt lat="40.0861923" lon="9.6027998"><ele>668.0</ele><time>2026-05-02T07:46:28.193Z</time></trkpt><trkpt lat="40.0862984" lon="9.6028756"><ele>677.0</ele><time>2026-05-02T07:46:29.192Z</time></trkpt><trkpt lat="40.0864008" lon="9.602968"><ele>686.0</ele><time>2026-05-02T07:46:30.193Z</time></trkpt><trkpt lat="40.0865098" lon="9.6030071"><ele>695.0</ele><time>2026-05-02T07:46:31.193Z</time></trkpt><trkpt lat="40.0866177" lon="9.6029872"><ele>697.0</ele><time>2026-05-02T07:46:32.193Z</time></trkpt><trkpt lat="40.0867383" lon="9.6029489"><ele>699.0</ele><time>2026-05-02T07:46:33.192Z</time></trkpt><trkpt lat="40.0868556" lon="9.6028855"><ele>701.0</ele><time>2026-05-02T07:46:34.193Z</time></trkpt><trkpt lat="40.086986" lon="9.6027918"><ele>703.0</ele><time>2026-05-02T07:46:35.193Z</time></trkpt><trkpt lat="40.0871232" lon="9.60269"><ele>700.0</ele><time>2026-05-02T07:46:36.192Z</time></trkpt><trkpt lat="40.0872616" lon="9.60254"><ele>697.0</ele><time>2026-05-02T07:46:37.192Z</time></trkpt><trkpt lat="40.0874572" lon="9.6023968"><ele>694.0</ele><time>2026-05-02T07:46:38.192Z</time></trkpt><trkpt lat="40.0876135" lon="9.6021763"><ele>682.6666666666667</ele><time>2026-05-02T07:46:39.192Z</time></trkpt><trkpt lat="40.0877885" lon="9.6019877"><ele>671.3333333333334</ele><time>2026-05-02T07:46:40.192Z</time></trkpt><trkpt lat="40.0879599" lon="9.6018209"><ele>660.0</ele><time>2026-05-02T07:46:41.193Z</time></trkpt><trkpt lat="40.0881307" lon="9.6016504"><ele>677.5</ele><time>2026-05-02T07:46:42.193Z</time></trkpt><trkpt lat="40.0883113" lon="9.601464"><ele>695.0</ele><time>2026-05-02T07:46:43.192Z</time></trkpt><trkpt lat="40.0884942" lon="9.601249"><ele>685.6666666666666</ele><time>2026-05-02T07:46:44.192Z</time></trkpt><trkpt lat="40.0886652" lon="9.6010793"><ele>676.3333333333334</ele><time>2026-05-02T07:46:45.192Z</time></trkpt><trkpt lat="40.0888374" lon="9.600904"><ele>667.0</ele><time>2026-05-02T07:46:46.193Z</time></trkpt><trkpt lat="40.0890236" lon="9.6007631"><ele>667.0</ele><time>2026-05-02T07:46:47.192Z</time></trkpt><trkpt lat="40.0891645" lon="9.6005452"><ele>667.0</ele><time>2026-05-02T07:46:48.193Z</time></trkpt><trkpt lat="40.0893217" lon="9.6003936"><ele>667.0</ele><time>2026-05-02T07:46:49.192Z</time></trkpt><trkpt lat="40.0894968" lon="9.6001509"><ele>667.0</ele><time>2026-05-02T07:46:50.192Z</time></trkpt><trkpt lat="40.0896585" lon="9.5999645"><ele>667.0</ele><time>2026-05-02T07:46:51.192Z</time></trkpt><trkpt lat="40.089744" lon="9.5997502"><ele>667.0</ele><time>2026-05-02T07:46:52.193Z</time></trkpt><trkpt lat="40.0898726" lon="9.5995988"><ele>669.3333333333334</ele><time>2026-05-02T07:46:53.192Z</time></trkpt><trkpt lat="40.0899996" lon="9.5994418"><ele>671.6666666666666</ele><time>2026-05-02T07:46:54.193Z</time></trkpt><trkpt lat="40.0901526" lon="9.5993289"><ele>674.0</ele><time>2026-05-02T07:46:55.192Z</time></trkpt><trkpt lat="40.0902961" lon="9.5992153"><ele>674.0</ele><time>2026-05-02T07:46:56.192Z</time></trkpt><trkpt lat="40.0904615" lon="9.5991485"><ele>674.0</ele><time>2026-05-02T07:46:57.192Z</time></trkpt><trkpt lat="40.0906494" lon="9.599091"><ele>674.0</ele><time>2026-05-02T07:46:58.193Z</time></trkpt><trkpt lat="40.0908344" lon="9.5989614"><ele>680.6666666666666</ele><time>2026-05-02T07:46:59.192Z</time></trkpt><trkpt lat="40.0910039" lon="9.5989341"><ele>687.3333333333334</ele><time>2026-05-02T07:47:00.193Z</time></trkpt><trkpt lat="40.0911326" lon="9.5988849"><ele>694.0</ele><time>2026-05-02T07:47:01.193Z</time></trkpt><trkpt lat="40.0912904" lon="9.5988066"><ele>694.0</ele><time>2026-05-02T07:47:02.193Z</time></trkpt><trkpt lat="40.0914498" lon="9.5986722"><ele>694.0</ele><time>2026-05-02T07:47:03.192Z</time></trkpt><trkpt lat="40.0916174" lon="9.5985593"><ele>694.0</ele><time>2026-05-02T07:47:04.193Z</time></trkpt><trkpt lat="40.0917768" lon="9.5984343"><ele>686.3333333333334</ele><time>2026-05-02T07:47:05.193Z</time></trkpt><trkpt lat="40.0919577" lon="9.5983602"><ele>678.6666666666666</ele><time>2026-05-02T07:47:06.193Z</time></trkpt><trkpt lat="40.0921241" lon="9.5982313"><ele>671.0</ele><time>2026-05-02T07:47:07.192Z</time></trkpt><trkpt lat="40.092287" lon="9.5981035"><ele>668.0</ele><time>2026-05-02T07:47:08.192Z</time></trkpt><trkpt lat="40.092437" lon="9.5980423"><ele>665.0</ele><time>2026-05-02T07:47:09.192Z</time></trkpt><trkpt lat="40.0925899" lon="9.597902"><ele>662.0</ele><time>2026-05-02T07:47:10.193Z</time></trkpt><trkpt lat="40.0927255" lon="9.5977582"><ele>662.0</ele><time>2026-05-02T07:47:11.193Z</time></trkpt><trkpt lat="40.0928654" lon="9.5976629"><ele>662.0</ele><time>2026-05-02T07:47:12.192Z</time></trkpt><trkpt lat="40.0929887" lon="9.5975548"><ele>662.0</ele><time>2026-05-02T07:47:13.192Z</time></trkpt><trkpt lat="40.093118" lon="9.5974021"><ele>662.0</ele><time>2026-05-02T07:47:14.192Z</time></trkpt><trkpt lat="40.0932492" lon="9.597278"><ele>662.0</ele><time>2026-05-02T07:47:15.193Z</time></trkpt><trkpt lat="40.0933613" lon="9.5971335"><ele>662.0</ele><time>2026-05-02T07:47:16.192Z</time></trkpt><trkpt lat="40.0934657" lon="9.5969652"><ele>661.3333333333333</ele><time>2026-05-02T07:47:17.192Z</time></trkpt><trkpt lat="40.0935985" lon="9.596847"><ele>660.6666666666666</ele><time>2026-05-02T07:47:18.192Z</time></trkpt><trkpt lat="40.0937289" lon="9.596729"><ele>660.0</ele><time>2026-05-02T07:47:19.192Z</time></trkpt><trkpt lat="40.0938798" lon="9.5966426"><ele>660.0</ele><time>2026-05-02T07:47:20.193Z</time></trkpt><trkpt lat="40.0940407" lon="9.5965689"><ele>660.0</ele><time>2026-05-02T07:47:21.192Z</time></trkpt><trkpt lat="40.094205" lon="9.5965127"><ele>660.0</ele><time>2026-05-02T07:47:22.192Z</time></trkpt><trkpt lat="40.094384" lon="9.5964623"><ele>670.6666666666666</ele><time>2026-05-02T07:47:23.193Z</time></trkpt><trkpt lat="40.0945472" lon="9.5963912"><ele>681.3333333333333</ele><time>2026-05-02T07:47:24.193Z</time></trkpt><trkpt lat="40.0947276" lon="9.596346"><ele>692.0</ele><time>2026-05-02T07:47:25.193Z</time></trkpt><trkpt lat="40.094928" lon="9.5963244"><ele>698.0</ele><time>2026-05-02T07:47:26.192Z</time></trkpt><trkpt lat="40.0950968" lon="9.596313"><ele>704.0</ele><time>2026-05-02T07:47:27.193Z</time></trkpt><trkpt lat="40.0952891" lon="9.5962812"><ele>710.0</ele><time>2026-05-02T07:47:28.193Z</time></trkpt><trkpt lat="40.09548" lon="9.5962901"><ele>710.0</ele><time>2026-05-02T07:47:29.193Z</time></trkpt><trkpt lat="40.0956792" lon="9.5963255"><ele>710.0</ele><time>2026-05-02T07:47:30.192Z</time></trkpt><trkpt lat="40.0958573" lon="9.5963587"><ele>710.0</ele><time>2026-05-02T07:47:31.193Z</time></trkpt><trkpt lat="40.0960661" lon="9.5964288"><ele>710.3333333333333</ele><time>2026-05-02T07:47:32.193Z</time></trkpt><trkpt lat="40.096279" lon="9.5964479"><ele>710.6666666666666</ele><time>2026-05-02T07:47:33.193Z</time></trkpt><trkpt lat="40.0964971" lon="9.5964757"><ele>711.0</ele><time>2026-05-02T07:47:34.193Z</time></trkpt><trkpt lat="40.0967182" lon="9.596504"><ele>710.0</ele><time>2026-05-02T07:47:35.192Z</time></trkpt><trkpt lat="40.096951" lon="9.5965157"><ele>709.0</ele><time>2026-05-02T07:47:36.192Z</time></trkpt><trkpt lat="40.097186" lon="9.5965439"><ele>709.0</ele><time>2026-05-02T07:47:37.193Z</time></trkpt><trkpt lat="40.0973718" lon="9.5965404"><ele>709.0</ele><time>2026-05-02T07:47:38.193Z</time></trkpt><trkpt lat="40.0975716" lon="9.596561"><ele>709.0</ele><time>2026-05-02T07:47:39.193Z</time></trkpt><trkpt lat="40.097758" lon="9.5966081"><ele>707.6666666666667</ele><time>2026-05-02T07:47:40.193Z</time></trkpt><trkpt lat="40.0979465" lon="9.5966425"><ele>706.3333333333334</ele><time>2026-05-02T07:47:41.192Z</time></trkpt><trkpt lat="40.0980801" lon="9.5965103"><ele>705.0</ele><time>2026-05-02T07:47:42.193Z</time></trkpt><trkpt lat="40.0982129" lon="9.5963937"><ele>705.3333333333334</ele><time>2026-05-02T07:47:43.193Z</time></trkpt><trkpt lat="40.0983204" lon="9.5962455"><ele>705.6666666666667</ele><time>2026-05-02T07:47:44.192Z</time></trkpt><trkpt lat="40.0984098" lon="9.5960767"><ele>706.0</ele><time>2026-05-02T07:47:45.192Z</time></trkpt><trkpt lat="40.0984926" lon="9.5958952"><ele>700.6666666666667</ele><time>2026-05-02T07:47:46.193Z</time></trkpt><trkpt lat="40.0985803" lon="9.5957069"><ele>695.3333333333334</ele><time>2026-05-02T07:47:47.193Z</time></trkpt><trkpt lat="40.098669" lon="9.5955145"><ele>690.0</ele><time>2026-05-02T07:47:48.192Z</time></trkpt><trkpt lat="40.0987534" lon="9.5953391"><ele>686.0</ele><time>2026-05-02T07:47:49.193Z</time></trkpt><trkpt lat="40.0988669" lon="9.595158"><ele>682.0</ele><time>2026-05-02T07:47:50.192Z</time></trkpt><trkpt lat="40.0989914" lon="9.5949961"><ele>678.0</ele><time>2026-05-02T07:47:51.192Z</time></trkpt><trkpt lat="40.0991455" lon="9.5948683"><ele>675.0</ele><time>2026-05-02T07:47:52.192Z</time></trkpt><trkpt lat="40.0993072" lon="9.5947297"><ele>672.0</ele><time>2026-05-02T07:47:53.192Z</time></trkpt><trkpt lat="40.0994517" lon="9.5946138"><ele>669.0</ele><time>2026-05-02T07:47:54.192Z</time></trkpt><trkpt lat="40.099617" lon="9.5944833"><ele>669.0</ele><time>2026-05-02T07:47:55.192Z</time></trkpt><trkpt lat="40.0998057" lon="9.5943398"><ele>669.0</ele><time>2026-05-02T07:47:56.192Z</time></trkpt><trkpt lat="40.1000191" lon="9.5941833"><ele>681.5</ele><time>2026-05-02T07:47:57.192Z</time></trkpt><trkpt lat="40.1002299" lon="9.5940615"><ele>694.0</ele><time>2026-05-02T07:47:58.192Z</time></trkpt><trkpt lat="40.1004243" lon="9.5938923"><ele>694.0</ele><time>2026-05-02T07:47:59.193Z</time></trkpt><trkpt lat="40.1005903" lon="9.5937644"><ele>694.0</ele><time>2026-05-02T07:48:00.193Z</time></trkpt><trkpt lat="40.1007521" lon="9.5935756"><ele>694.0</ele><time>2026-05-02T07:48:01.193Z</time></trkpt><trkpt lat="40.1008921" lon="9.5933273"><ele>693.5</ele><time>2026-05-02T07:48:02.193Z</time></trkpt><trkpt lat="40.1010318" lon="9.5931135"><ele>693.0</ele><time>2026-05-02T07:48:03.192Z</time></trkpt><trkpt lat="40.1011853" lon="9.592853"><ele>683.0</ele><time>2026-05-02T07:48:04.193Z</time></trkpt><trkpt lat="40.1012862" lon="9.5925872"><ele>673.0</ele><time>2026-05-02T07:48:05.192Z</time></trkpt><trkpt lat="40.1014091" lon="9.5923885"><ele>663.0</ele><time>2026-05-02T07:48:06.192Z</time></trkpt><trkpt lat="40.1015124" lon="9.5921895"><ele>666.0</ele><time>2026-05-02T07:48:07.192Z</time></trkpt><trkpt lat="40.1017196" lon="9.5920786"><ele>669.0</ele><time>2026-05-02T07:48:08.192Z</time></trkpt><trkpt lat="40.1019021" lon="9.5919854"><ele>672.0</ele><time>2026-05-02T07:48:09.192Z</time></trkpt><trkpt lat="40.1020642" lon="9.5918774"><ele>672.0</ele><time>2026-05-02T07:48:10.193Z</time></trkpt><trkpt lat="40.1021972" lon="9.5917857"><ele>672.0</ele><time>2026-05-02T07:48:11.193Z</time></trkpt><trkpt lat="40.1022934" lon="9.5916705"><ele>672.0</ele><time>2026-05-02T07:48:12.193Z</time></trkpt><trkpt lat="40.1023703" lon="9.5915271"><ele>672.0</ele><time>2026-05-02T07:48:13.193Z</time></trkpt><trkpt lat="40.1024344" lon="9.5913656"><ele>676.0</ele><time>2026-05-02T07:48:14.192Z</time></trkpt><trkpt lat="40.102518" lon="9.5912115"><ele>680.0</ele><time>2026-05-02T07:48:15.193Z</time></trkpt><trkpt lat="40.102632" lon="9.5910678"><ele>684.0</ele><time>2026-05-02T07:48:16.193Z</time></trkpt><trkpt lat="40.102752" lon="9.5909023"><ele>684.0</ele><time>2026-05-02T07:48:17.193Z</time></trkpt><trkpt lat="40.1028705" lon="9.5907116"><ele>684.0</ele><time>2026-05-02T07:48:18.192Z</time></trkpt><trkpt lat="40.1029947" lon="9.5905028"><ele>684.0</ele><time>2026-05-02T07:48:19.193Z</time></trkpt><trkpt lat="40.1031217" lon="9.5902817"><ele>689.6666666666666</ele><time>2026-05-02T07:48:20.192Z</time></trkpt><trkpt lat="40.103247" lon="9.5900692"><ele>695.3333333333333</ele><time>2026-05-02T07:48:21.193Z</time></trkpt><trkpt lat="40.1033702" lon="9.5898771"><ele>701.0</ele><time>2026-05-02T07:48:22.192Z</time></trkpt><trkpt lat="40.1034876" lon="9.5896966"><ele>701.0</ele><time>2026-05-02T07:48:23.193Z</time></trkpt><trkpt lat="40.1035868" lon="9.5895359"><ele>701.0</ele><time>2026-05-02T07:48:24.193Z</time></trkpt><trkpt lat="40.1036586" lon="9.5893772"><ele>701.0</ele><time>2026-05-02T07:48:25.192Z</time></trkpt><trkpt lat="40.1036858" lon="9.5891991"><ele>701.0</ele><time>2026-05-02T07:48:26.193Z</time></trkpt><trkpt lat="40.1036862" lon="9.5890172"><ele>696.0</ele><time>2026-05-02T07:48:27.192Z</time></trkpt><trkpt lat="40.1036716" lon="9.5888372"><ele>691.0</ele><time>2026-05-02T07:48:28.193Z</time></trkpt><trkpt lat="40.1036882" lon="9.5886547"><ele>686.0</ele><time>2026-05-02T07:48:29.192Z</time></trkpt><trkpt lat="40.1037327" lon="9.5884711"><ele>681.0</ele><time>2026-05-02T07:48:30.193Z</time></trkpt><trkpt lat="40.1037878" lon="9.5882963"><ele>679.75</ele><time>2026-05-02T07:48:31.193Z</time></trkpt><trkpt lat="40.1038245" lon="9.5881308"><ele>678.5</ele><time>2026-05-02T07:48:32.193Z</time></trkpt><trkpt lat="40.1038216" lon="9.587964"><ele>677.25</ele><time>2026-05-02T07:48:33.193Z</time></trkpt><trkpt lat="40.1037755" lon="9.5878079"><ele>676.0</ele><time>2026-05-02T07:48:34.192Z</time></trkpt><trkpt lat="40.1037162" lon="9.5876636"><ele>676.0</ele><time>2026-05-02T07:48:35.193Z</time></trkpt><trkpt lat="40.1036933" lon="9.5875055"><ele>676.0</ele><time>2026-05-02T07:48:36.193Z</time></trkpt><trkpt lat="40.1037017" lon="9.5873386"><ele>676.0</ele><time>2026-05-02T07:48:37.193Z</time></trkpt><trkpt lat="40.1037488" lon="9.5871713"><ele>676.0</ele><time>2026-05-02T07:48:38.193Z</time></trkpt><trkpt lat="40.1038169" lon="9.5869947"><ele>675.0</ele><time>2026-05-02T07:48:39.193Z</time></trkpt><trkpt lat="40.1038734" lon="9.5868087"><ele>674.0</ele><time>2026-05-02T07:48:40.192Z</time></trkpt><trkpt lat="40.1038855" lon="9.5866142"><ele>673.0</ele><time>2026-05-02T07:48:41.193Z</time></trkpt><trkpt lat="40.1038564" lon="9.5864219"><ele>673.0</ele><time>2026-05-02T07:48:42.192Z</time></trkpt><trkpt lat="40.1037994" lon="9.586245"><ele>673.0</ele><time>2026-05-02T07:48:43.192Z</time></trkpt><trkpt lat="40.103754" lon="9.5860989"><ele>673.0</ele><time>2026-05-02T07:48:44.192Z</time></trkpt><trkpt lat="40.1037517" lon="9.5859691"><ele>673.0</ele><time>2026-05-02T07:48:45.192Z</time></trkpt><trkpt lat="40.1037916" lon="9.5858733"><ele>673.2</ele><time>2026-05-02T07:48:46.193Z</time></trkpt><trkpt lat="40.1038554" lon="9.5857915"><ele>673.4</ele><time>2026-05-02T07:48:47.192Z</time></trkpt><trkpt lat="40.1039049" lon="9.5856781"><ele>673.6</ele><time>2026-05-02T07:48:48.192Z</time></trkpt><trkpt lat="40.1039263" lon="9.5855372"><ele>673.8000000000001</ele><time>2026-05-02T07:48:49.193Z</time></trkpt><trkpt lat="40.1039253" lon="9.5853749"><ele>674.0</ele><time>2026-05-02T07:48:50.192Z</time></trkpt><trkpt lat="40.1038957" lon="9.5851883"><ele>677.75</ele><time>2026-05-02T07:48:51.192Z</time></trkpt><trkpt lat="40.1038538" lon="9.585016"><ele>681.5</ele><time>2026-05-02T07:48:52.193Z</time></trkpt><trkpt lat="40.1037879" lon="9.5848659"><ele>685.25</ele><time>2026-05-02T07:48:53.192Z</time></trkpt><trkpt lat="40.1036933" lon="9.5847241"><ele>689.0</ele><time>2026-05-02T07:48:54.192Z</time></trkpt><trkpt lat="40.1035853" lon="9.5845935"><ele>687.0</ele><time>2026-05-02T07:48:55.192Z</time></trkpt><trkpt lat="40.1034817" lon="9.5844919"><ele>685.0</ele><time>2026-05-02T07:48:56.193Z</time></trkpt><trkpt lat="40.1033782" lon="9.5844347"><ele>683.0</ele><time>2026-05-02T07:48:57.193Z</time></trkpt><trkpt lat="40.1032916" lon="9.5843392"><ele>681.0</ele><time>2026-05-02T07:48:58.192Z</time></trkpt><trkpt lat="40.1032203" lon="9.5842235"><ele>681.0</ele><time>2026-05-02T07:48:59.192Z</time></trkpt><trkpt lat="40.1031759" lon="9.5840915"><ele>681.0</ele><time>2026-05-02T07:49:00.193Z</time></trkpt><trkpt lat="40.103173" lon="9.5839494"><ele>681.0</ele><time>2026-05-02T07:49:01.192Z</time></trkpt><trkpt lat="40.1032054" lon="9.5838163"><ele>681.0</ele><time>2026-05-02T07:49:02.192Z</time></trkpt><trkpt lat="40.1032711" lon="9.5836992"><ele>681.0</ele><time>2026-05-02T07:49:03.193Z</time></trkpt><trkpt lat="40.1033735" lon="9.5836011"><ele>690.3333333333334</ele><time>2026-05-02T07:49:04.192Z</time></trkpt><trkpt lat="40.1035002" lon="9.5834947"><ele>699.6666666666667</ele><time>2026-05-02T07:49:05.192Z</time></trkpt><trkpt lat="40.1036397" lon="9.5833674"><ele>709.0</ele><time>2026-05-02T07:49:06.192Z</time></trkpt><trkpt lat="40.1037935" lon="9.5832149"><ele>709.0</ele><time>2026-05-02T07:49:07.192Z</time></trkpt><trkpt lat="40.1039543" lon="9.5830453"><ele>709.0</ele><time>2026-05-02T07:49:08.193Z</time></trkpt><trkpt lat="40.104102" lon="9.5828906"><ele>709.0</ele><time>2026-05-02T07:49:09.192Z</time></trkpt><trkpt lat="40.1042291" lon="9.5827592"><ele>709.75</ele><time>2026-05-02T07:49:10.193Z</time></trkpt><trkpt lat="40.1043514" lon="9.5826557"><ele>710.5</ele><time>2026-05-02T07:49:11.192Z</time></trkpt><trkpt lat="40.1044686" lon="9.5826046"><ele>711.25</ele><time>2026-05-02T07:49:12.193Z</time></trkpt><trkpt lat="40.1045786" lon="9.5825985"><ele>712.0</ele><time>2026-05-02T07:49:13.192Z</time></trkpt><trkpt lat="40.1046799" lon="9.582569"><ele>712.0</ele><time>2026-05-02T07:49:14.193Z</time></trkpt><trkpt lat="40.1047675" lon="9.5824863"><ele>712.0</ele><time>2026-05-02T07:49:15.192Z</time></trkpt><trkpt lat="40.1048557" lon="9.5823648"><ele>712.0</ele><time>2026-05-02T07:49:16.193Z</time></trkpt><trkpt lat="40.1049604" lon="9.5822272"><ele>712.0</ele><time>2026-05-02T07:49:17.193Z</time></trkpt><trkpt lat="40.1050619" lon="9.5820833"><ele>717.3333333333334</ele><time>2026-05-02T07:49:18.193Z</time></trkpt><trkpt lat="40.1051369" lon="9.581915"><ele>722.6666666666666</ele><time>2026-05-02T07:49:19.192Z</time></trkpt><trkpt lat="40.1051834" lon="9.581725"><ele>728.0</ele><time>2026-05-02T07:49:20.192Z</time></trkpt><trkpt lat="40.1052214" lon="9.5815239"><ele>728.0</ele><time>2026-05-02T07:49:21.192Z</time></trkpt><trkpt lat="40.1052534" lon="9.5813516"><ele>728.0</ele><time>2026-05-02T07:49:22.192Z</time></trkpt><trkpt lat="40.1052621" lon="9.5812066"><ele>728.0</ele><time>2026-05-02T07:49:23.192Z</time></trkpt><trkpt lat="40.1052257" lon="9.5810818"><ele>728.0</ele><time>2026-05-02T07:49:24.193Z</time></trkpt><trkpt lat="40.1051458" lon="9.5809908"><ele>727.0</ele><time>2026-05-02T07:49:25.193Z</time></trkpt><trkpt lat="40.1050319" lon="9.5809366"><ele>726.0</ele><time>2026-05-02T07:49:26.193Z</time></trkpt><trkpt lat="40.1048897" lon="9.5808883"><ele>725.0</ele><time>2026-05-02T07:49:27.192Z</time></trkpt><trkpt lat="40.1047337" lon="9.5808293"><ele>724.0</ele><time>2026-05-02T07:49:28.193Z</time></trkpt><trkpt lat="40.1045844" lon="9.5807494"><ele>724.0</ele><time>2026-05-02T07:49:29.193Z</time></trkpt><trkpt lat="40.1044626" lon="9.5806436"><ele>724.0</ele><time>2026-05-02T07:49:30.193Z</time></trkpt><trkpt lat="40.1043717" lon="9.5805045"><ele>724.0</ele><time>2026-05-02T07:49:31.192Z</time></trkpt><trkpt lat="40.1043099" lon="9.5803477"><ele>724.0</ele><time>2026-05-02T07:49:32.192Z</time></trkpt><trkpt lat="40.1042344" lon="9.5802124"><ele>729.0</ele><time>2026-05-02T07:49:33.192Z</time></trkpt><trkpt lat="40.1041197" lon="9.5801072"><ele>734.0</ele><time>2026-05-02T07:49:34.192Z</time></trkpt><trkpt lat="40.103972" lon="9.5800243"><ele>739.0</ele><time>2026-05-02T07:49:35.192Z</time></trkpt><trkpt lat="40.1038024" lon="9.5799557"><ele>739.0</ele><time>2026-05-02T07:49:36.192Z</time></trkpt><trkpt lat="40.1036127" lon="9.5799195"><ele>739.0</ele><time>2026-05-02T07:49:37.192Z</time></trkpt><trkpt lat="40.1034081" lon="9.5799122"><ele>739.0</ele><time>2026-05-02T07:49:38.192Z</time></trkpt><trkpt lat="40.1031995" lon="9.5799368"><ele>740.6666666666667</ele><time>2026-05-02T07:49:39.192Z</time></trkpt><trkpt lat="40.1030013" lon="9.5799739"><ele>742.3333333333334</ele><time>2026-05-02T07:49:40.193Z</time></trkpt><trkpt lat="40.1028037" lon="9.5799988"><ele>744.0</ele><time>2026-05-02T07:49:41.193Z</time></trkpt><trkpt lat="40.1026171" lon="9.5800283"><ele>744.0</ele><time>2026-05-02T07:49:42.193Z</time></trkpt><trkpt lat="40.1024521" lon="9.5800781"><ele>744.0</ele><time>2026-05-02T07:49:43.193Z</time></trkpt><trkpt lat="40.1023043" lon="9.580128"><ele>744.0</ele><time>2026-05-02T07:49:44.193Z</time></trkpt><trkpt lat="40.1021927" lon="9.5801497"><ele>744.0</ele><time>2026-05-02T07:49:45.193Z</time></trkpt><trkpt lat="40.1020976" lon="9.5801303"><ele>739.25</ele><time>2026-05-02T07:49:46.192Z</time></trkpt><trkpt lat="40.1020244" lon="9.5800606"><ele>734.5</ele><time>2026-05-02T07:49:47.192Z</time></trkpt><trkpt lat="40.1019619" lon="9.5799417"><ele>729.75</ele><time>2026-05-02T07:49:48.193Z</time></trkpt><trkpt lat="40.1019074" lon="9.5797792"><ele>725.0</ele><time>2026-05-02T07:49:49.192Z</time></trkpt><trkpt lat="40.10187" lon="9.5795936"><ele>728.0</ele><time>2026-05-02T07:49:50.193Z</time></trkpt><trkpt lat="40.1018563" lon="9.5793976"><ele>731.0</ele><time>2026-05-02T07:49:51.192Z</time></trkpt><trkpt lat="40.1018753" lon="9.5791903"><ele>734.0</ele><time>2026-05-02T07:49:52.192Z</time></trkpt><trkpt lat="40.1019142" lon="9.5789762"><ele>734.0</ele><time>2026-05-02T07:49:53.193Z</time></trkpt><trkpt lat="40.101951" lon="9.5787809"><ele>734.0</ele><time>2026-05-02T07:49:54.192Z</time></trkpt><trkpt lat="40.1019716" lon="9.5786031"><ele>734.0</ele><time>2026-05-02T07:49:55.193Z</time></trkpt><trkpt lat="40.1019665" lon="9.578427"><ele>734.0</ele><time>2026-05-02T07:49:56.193Z</time></trkpt><trkpt lat="40.1019408" lon="9.5782507"><ele>736.0</ele><time>2026-05-02T07:49:57.193Z</time></trkpt><trkpt lat="40.1018784" lon="9.5780954"><ele>738.0</ele><time>2026-05-02T07:49:58.193Z</time></trkpt><trkpt lat="40.1017866" lon="9.5779744"><ele>740.0</ele><time>2026-05-02T07:49:59.192Z</time></trkpt><trkpt lat="40.1016623" lon="9.5778913"><ele>742.0</ele><time>2026-05-02T07:50:00.193Z</time></trkpt><trkpt lat="40.1015038" lon="9.5778268"><ele>742.0</ele><time>2026-05-02T07:50:01.193Z</time></trkpt><trkpt lat="40.1013535" lon="9.577734"><ele>742.0</ele><time>2026-05-02T07:50:02.192Z</time></trkpt><trkpt lat="40.1012192" lon="9.5776181"><ele>742.0</ele><time>2026-05-02T07:50:03.192Z</time></trkpt><trkpt lat="40.101114" lon="9.5774973"><ele>742.0</ele><time>2026-05-02T07:50:04.192Z</time></trkpt><trkpt lat="40.1010426" lon="9.5773442"><ele>742.0</ele><time>2026-05-02T07:50:05.192Z</time></trkpt><trkpt lat="40.1010046" lon="9.5771715"><ele>742.0</ele><time>2026-05-02T07:50:06.192Z</time></trkpt><trkpt lat="40.1009854" lon="9.5769982"><ele>742.0</ele><time>2026-05-02T07:50:07.193Z</time></trkpt><trkpt lat="40.100984" lon="9.5768418"><ele>745.0</ele><time>2026-05-02T07:50:08.193Z</time></trkpt><trkpt lat="40.101012" lon="9.5766923"><ele>748.0</ele><time>2026-05-02T07:50:09.193Z</time></trkpt><trkpt lat="40.1010578" lon="9.5765537"><ele>751.0</ele><time>2026-05-02T07:50:10.193Z</time></trkpt><trkpt lat="40.1010994" lon="9.5764381"><ele>754.0</ele><time>2026-05-02T07:50:11.193Z</time></trkpt><trkpt lat="40.1011285" lon="9.5763467"><ele>757.0</ele><time>2026-05-02T07:50:12.193Z</time></trkpt><trkpt lat="40.1011446" lon="9.5762556"><ele>759.6</ele><time>2026-05-02T07:50:13.193Z</time></trkpt><trkpt lat="40.1011341" lon="9.5761602"><ele>762.2</ele><time>2026-05-02T07:50:14.193Z</time></trkpt><trkpt lat="40.1010913" lon="9.5760753"><ele>764.8</ele><time>2026-05-02T07:50:15.192Z</time></trkpt><trkpt lat="40.1010116" lon="9.5760333"><ele>767.4</ele><time>2026-05-02T07:50:16.192Z</time></trkpt><trkpt lat="40.1009104" lon="9.5760314"><ele>770.0</ele><time>2026-05-02T07:50:17.192Z</time></trkpt><trkpt lat="40.1007777" lon="9.5760511"><ele>771.0</ele><time>2026-05-02T07:50:18.193Z</time></trkpt><trkpt lat="40.1006206" lon="9.5760748"><ele>772.0</ele><time>2026-05-02T07:50:19.193Z</time></trkpt><trkpt lat="40.1004579" lon="9.5760905"><ele>773.0</ele><time>2026-05-02T07:50:20.192Z</time></trkpt><trkpt lat="40.1002902" lon="9.5761185"><ele>773.0</ele><time>2026-05-02T07:50:21.192Z</time></trkpt><trkpt lat="40.1001386" lon="9.5761605"><ele>773.0</ele><time>2026-05-02T07:50:22.192Z</time></trkpt><trkpt lat="40.0999973" lon="9.5761997"><ele>773.0</ele><time>2026-05-02T07:50:23.193Z</time></trkpt><trkpt lat="40.0998665" lon="9.5762337"><ele>773.0</ele><time>2026-05-02T07:50:24.193Z</time></trkpt><trkpt lat="40.0997449" lon="9.5762624"><ele>771.75</ele><time>2026-05-02T07:50:25.192Z</time></trkpt><trkpt lat="40.0996362" lon="9.5762628"><ele>770.5</ele><time>2026-05-02T07:50:26.193Z</time></trkpt><trkpt lat="40.0995267" lon="9.57623"><ele>769.25</ele><time>2026-05-02T07:50:27.193Z</time></trkpt><trkpt lat="40.0994164" lon="9.5761769"><ele>768.0</ele><time>2026-05-02T07:50:28.193Z</time></trkpt><trkpt lat="40.0993151" lon="9.5760967"><ele>768.0</ele><time>2026-05-02T07:50:29.193Z</time></trkpt><trkpt lat="40.0992273" lon="9.5759936"><ele>768.0</ele><time>2026-05-02T07:50:30.193Z</time></trkpt><trkpt lat="40.0991507" lon="9.5758705"><ele>768.0</ele><time>2026-05-02T07:50:31.192Z</time></trkpt><trkpt lat="40.099078" lon="9.5757289"><ele>768.0</ele><time>2026-05-02T07:50:32.192Z</time></trkpt><trkpt lat="40.0990043" lon="9.5755794"><ele>767.25</ele><time>2026-05-02T07:50:33.192Z</time></trkpt><trkpt lat="40.0989254" lon="9.5754351"><ele>766.5</ele><time>2026-05-02T07:50:34.193Z</time></trkpt><trkpt lat="40.0988436" lon="9.5753041"><ele>765.75</ele><time>2026-05-02T07:50:35.193Z</time></trkpt><trkpt lat="40.0987375" lon="9.5751984"><ele>765.0</ele><time>2026-05-02T07:50:36.192Z</time></trkpt><trkpt lat="40.0986092" lon="9.5751045"><ele>765.0</ele><time>2026-05-02T07:50:37.193Z</time></trkpt><trkpt lat="40.0984649" lon="9.5750152"><ele>765.0</ele><time>2026-05-02T07:50:38.193Z</time></trkpt><trkpt lat="40.0983182" lon="9.5749231"><ele>765.0</ele><time>2026-05-02T07:50:39.193Z</time></trkpt><trkpt lat="40.0981641" lon="9.5748362"><ele>760.0</ele><time>2026-05-02T07:50:40.193Z</time></trkpt><trkpt lat="40.0980023" lon="9.5747657"><ele>755.0</ele><time>2026-05-02T07:50:41.193Z</time></trkpt><trkpt lat="40.0978485" lon="9.5747108"><ele>750.0</ele><time>2026-05-02T07:50:42.192Z</time></trkpt><trkpt lat="40.0977006" lon="9.574653"><ele>750.0</ele><time>2026-05-02T07:50:43.193Z</time></trkpt><trkpt lat="40.0975634" lon="9.5745847"><ele>750.0</ele><time>2026-05-02T07:50:44.193Z</time></trkpt><trkpt lat="40.0974311" lon="9.5745142"><ele>750.0</ele><time>2026-05-02T07:50:45.193Z</time></trkpt><trkpt lat="40.0973175" lon="9.574437"><ele>750.0</ele><time>2026-05-02T07:50:46.193Z</time></trkpt><trkpt lat="40.0972316" lon="9.5743441"><ele>749.0</ele><time>2026-05-02T07:50:47.192Z</time></trkpt><trkpt lat="40.0971878" lon="9.5742257"><ele>748.0</ele><time>2026-05-02T07:50:48.193Z</time></trkpt><trkpt lat="40.0971888" lon="9.5740954"><ele>747.0</ele><time>2026-05-02T07:50:49.192Z</time></trkpt><trkpt lat="40.0972328" lon="9.5739719"><ele>746.0</ele><time>2026-05-02T07:50:50.193Z</time></trkpt><trkpt lat="40.0973155" lon="9.5738506"><ele>745.0</ele><time>2026-05-02T07:50:51.192Z</time></trkpt><trkpt lat="40.0974246" lon="9.5737156"><ele>748.6666666666667</ele><time>2026-05-02T07:50:52.192Z</time></trkpt><trkpt lat="40.0975247" lon="9.57356"><ele>752.3333333333334</ele><time>2026-05-02T07:50:53.192Z</time></trkpt><trkpt lat="40.0976047" lon="9.5733843"><ele>756.0</ele><time>2026-05-02T07:50:54.193Z</time></trkpt><trkpt lat="40.0976598" lon="9.5731762"><ele>756.0</ele><time>2026-05-02T07:50:55.192Z</time></trkpt><trkpt lat="40.0976923" lon="9.5729342"><ele>756.0</ele><time>2026-05-02T07:50:56.193Z</time></trkpt><trkpt lat="40.0977144" lon="9.572703"><ele>756.0</ele><time>2026-05-02T07:50:57.193Z</time></trkpt><trkpt lat="40.097728" lon="9.5725088"><ele>754.5</ele><time>2026-05-02T07:50:58.193Z</time></trkpt><trkpt lat="40.0977203" lon="9.5723396"><ele>753.0</ele><time>2026-05-02T07:50:59.193Z</time></trkpt><trkpt lat="40.0976848" lon="9.5721818"><ele>751.5</ele><time>2026-05-02T07:51:00.192Z</time></trkpt><trkpt lat="40.0976279" lon="9.5720295"><ele>750.0</ele><time>2026-05-02T07:51:01.192Z</time></trkpt><trkpt lat="40.097575" lon="9.5718725"><ele>749.75</ele><time>2026-05-02T07:51:02.192Z</time></trkpt><trkpt lat="40.0975497" lon="9.5716976"><ele>749.5</ele><time>2026-05-02T07:51:03.192Z</time></trkpt><trkpt lat="40.0975535" lon="9.5715101"><ele>749.25</ele><time>2026-05-02T07:51:04.192Z</time></trkpt><trkpt lat="40.0975796" lon="9.5713142"><ele>749.0</ele><time>2026-05-02T07:51:05.192Z</time></trkpt><trkpt lat="40.0976226" lon="9.5711061"><ele>750.3333333333333</ele><time>2026-05-02T07:51:06.193Z</time></trkpt><trkpt lat="40.0976717" lon="9.570886"><ele>751.6666666666666</ele><time>2026-05-02T07:51:07.192Z</time></trkpt><trkpt lat="40.0977249" lon="9.5706558"><ele>753.0</ele><time>2026-05-02T07:51:08.192Z</time></trkpt><trkpt lat="40.0977825" lon="9.5704314"><ele>757.6666666666666</ele><time>2026-05-02T07:51:09.193Z</time></trkpt><trkpt lat="40.097863" lon="9.5702222"><ele>762.3333333333333</ele><time>2026-05-02T07:51:10.192Z</time></trkpt><trkpt lat="40.0979632" lon="9.5700192"><ele>767.0</ele><time>2026-05-02T07:51:11.193Z</time></trkpt><trkpt lat="40.0980729" lon="9.5698189"><ele>767.0</ele><time>2026-05-02T07:51:12.193Z</time></trkpt><trkpt lat="40.0981874" lon="9.5696182"><ele>767.0</ele><time>2026-05-02T07:51:13.193Z</time></trkpt><trkpt lat="40.0982943" lon="9.5694273"><ele>767.0</ele><time>2026-05-02T07:51:14.193Z</time></trkpt><trkpt lat="40.0983991" lon="9.5692527"><ele>763.6666666666666</ele><time>2026-05-02T07:51:15.193Z</time></trkpt><trkpt lat="40.0985112" lon="9.5690999"><ele>760.3333333333334</ele><time>2026-05-02T07:51:16.193Z</time></trkpt><trkpt lat="40.0986298" lon="9.5689724"><ele>757.0</ele><time>2026-05-02T07:51:17.192Z</time></trkpt><trkpt lat="40.0987619" lon="9.5688647"><ele>757.0</ele><time>2026-05-02T07:51:18.192Z</time></trkpt><trkpt lat="40.0989081" lon="9.5687552"><ele>757.0</ele><time>2026-05-02T07:51:19.193Z</time></trkpt><trkpt lat="40.0990502" lon="9.5686469"><ele>757.0</ele><time>2026-05-02T07:51:20.193Z</time></trkpt><trkpt lat="40.0991817" lon="9.5685467"><ele>755.25</ele><time>2026-05-02T07:51:21.193Z</time></trkpt><trkpt lat="40.0993081" lon="9.5684482"><ele>753.5</ele><time>2026-05-02T07:51:22.192Z</time></trkpt><trkpt lat="40.0994352" lon="9.568351"><ele>751.75</ele><time>2026-05-02T07:51:23.192Z</time></trkpt><trkpt lat="40.0995649" lon="9.5682461"><ele>750.0</ele><time>2026-05-02T07:51:24.193Z</time></trkpt><trkpt lat="40.0996801" lon="9.5681272"><ele>750.0</ele><time>2026-05-02T07:51:25.192Z</time></trkpt><trkpt lat="40.0997738" lon="9.5679752"><ele>750.0</ele><time>2026-05-02T07:51:26.192Z</time></trkpt><trkpt lat="40.0998381" lon="9.5677926"><ele>750.0</ele><time>2026-05-02T07:51:27.193Z</time></trkpt><trkpt lat="40.0998607" lon="9.5675936"><ele>751.0</ele><time>2026-05-02T07:51:28.192Z</time></trkpt><trkpt lat="40.0998505" lon="9.567401"><ele>752.0</ele><time>2026-05-02T07:51:29.192Z</time></trkpt><trkpt lat="40.0998206" lon="9.5672042"><ele>753.0</ele><time>2026-05-02T07:51:30.192Z</time></trkpt><trkpt lat="40.0997658" lon="9.5670108"><ele>750.5</ele><time>2026-05-02T07:51:31.192Z</time></trkpt><trkpt lat="40.0996949" lon="9.5668326"><ele>748.0</ele><time>2026-05-02T07:51:32.192Z</time></trkpt><trkpt lat="40.0996051" lon="9.5666776"><ele>745.5</ele><time>2026-05-02T07:51:33.193Z</time></trkpt><trkpt lat="40.0994936" lon="9.5665548"><ele>743.0</ele><time>2026-05-02T07:51:34.192Z</time></trkpt><trkpt lat="40.0993695" lon="9.5664672"><ele>743.0</ele><time>2026-05-02T07:51:35.192Z</time></trkpt><trkpt lat="40.0992459" lon="9.5663898"><ele>743.0</ele><time>2026-05-02T07:51:36.192Z</time></trkpt><trkpt lat="40.0991389" lon="9.5662803"><ele>743.0</ele><time>2026-05-02T07:51:37.192Z</time></trkpt><trkpt lat="40.0990483" lon="9.5661293"><ele>743.0</ele><time>2026-05-02T07:51:38.193Z</time></trkpt><trkpt lat="40.0989719" lon="9.565948"><ele>743.5</ele><time>2026-05-02T07:51:39.192Z</time></trkpt><trkpt lat="40.0989093" lon="9.5657575"><ele>744.0</ele><time>2026-05-02T07:51:40.192Z</time></trkpt><trkpt lat="40.0988538" lon="9.5655791"><ele>744.5</ele><time>2026-05-02T07:51:41.193Z</time></trkpt><trkpt lat="40.0987915" lon="9.5654143"><ele>745.0</ele><time>2026-05-02T07:51:42.192Z</time></trkpt><trkpt lat="40.0987086" lon="9.56526"><ele>741.6666666666667</ele><time>2026-05-02T07:51:43.193Z</time></trkpt><trkpt lat="40.0985974" lon="9.5651242"><ele>738.3333333333334</ele><time>2026-05-02T07:51:44.193Z</time></trkpt><trkpt lat="40.0984664" lon="9.5649953"><ele>735.0</ele><time>2026-05-02T07:51:45.192Z</time></trkpt><trkpt lat="40.0983439" lon="9.5648822"><ele>735.5</ele><time>2026-05-02T07:51:46.192Z</time></trkpt><trkpt lat="40.0982335" lon="9.5647836"><ele>736.0</ele><time>2026-05-02T07:51:47.193Z</time></trkpt><trkpt lat="40.0981372" lon="9.5646981"><ele>736.5</ele><time>2026-05-02T07:51:48.193Z</time></trkpt><trkpt lat="40.0980517" lon="9.5646092"><ele>737.0</ele><time>2026-05-02T07:51:49.192Z</time></trkpt><trkpt lat="40.097994" lon="9.5644993"><ele>737.0</ele><time>2026-05-02T07:51:50.192Z</time></trkpt><trkpt lat="40.0979754" lon="9.5643749"><ele>737.0</ele><time>2026-05-02T07:51:51.192Z</time></trkpt><trkpt lat="40.0979956" lon="9.5642421"><ele>737.0</ele><time>2026-05-02T07:51:52.193Z</time></trkpt><trkpt lat="40.098044" lon="9.5641012"><ele>737.0</ele><time>2026-05-02T07:51:53.192Z</time></trkpt><trkpt lat="40.098109" lon="9.5639376"><ele>737.0</ele><time>2026-05-02T07:51:54.192Z</time></trkpt><trkpt lat="40.0981774" lon="9.5637481"><ele>737.0</ele><time>2026-05-02T07:51:55.193Z</time></trkpt><trkpt lat="40.0982461" lon="9.5635346"><ele>737.0</ele><time>2026-05-02T07:51:56.192Z</time></trkpt><trkpt lat="40.098315" lon="9.5633332"><ele>734.6666666666666</ele><time>2026-05-02T07:51:57.193Z</time></trkpt><trkpt lat="40.098392" lon="9.5631396"><ele>732.3333333333334</ele><time>2026-05-02T07:51:58.193Z</time></trkpt><trkpt lat="40.0984684" lon="9.5629615"><ele>730.0</ele><time>2026-05-02T07:51:59.193Z</time></trkpt><trkpt lat="40.0985343" lon="9.5627995"><ele>730.0</ele><time>2026-05-02T07:52:00.193Z</time></trkpt><trkpt lat="40.0985937" lon="9.5626458"><ele>730.0</ele><time>2026-05-02T07:52:01.192Z</time></trkpt><trkpt lat="40.0986361" lon="9.5624914"><ele>730.0</ele><time>2026-05-02T07:52:02.193Z</time></trkpt><trkpt lat="40.0986385" lon="9.5623145"><ele>730.0</ele><time>2026-05-02T07:52:03.192Z</time></trkpt><trkpt lat="40.098607" lon="9.5621313"><ele>728.6666666666667</ele><time>2026-05-02T07:52:04.192Z</time></trkpt><trkpt lat="40.0985499" lon="9.561927"><ele>727.3333333333334</ele><time>2026-05-02T07:52:05.192Z</time></trkpt><trkpt lat="40.0984947" lon="9.5617178"><ele>726.0</ele><time>2026-05-02T07:52:06.193Z</time></trkpt><trkpt lat="40.0984523" lon="9.561536"><ele>726.0</ele><time>2026-05-02T07:52:07.192Z</time></trkpt><trkpt lat="40.0983973" lon="9.561382"><ele>726.0</ele><time>2026-05-02T07:52:08.192Z</time></trkpt><trkpt lat="40.0983112" lon="9.5612535"><ele>726.0</ele><time>2026-05-02T07:52:09.192Z</time></trkpt><trkpt lat="40.0981921" lon="9.5611666"><ele>726.0</ele><time>2026-05-02T07:52:10.192Z</time></trkpt><trkpt lat="40.0980385" lon="9.5611149"><ele>723.75</ele><time>2026-05-02T07:52:11.192Z</time></trkpt><trkpt lat="40.0978857" lon="9.5610704"><ele>721.5</ele><time>2026-05-02T07:52:12.192Z</time></trkpt><trkpt lat="40.0977454" lon="9.5610307"><ele>719.25</ele><time>2026-05-02T07:52:13.193Z</time></trkpt><trkpt lat="40.097614" lon="9.5609955"><ele>717.0</ele><time>2026-05-02T07:52:14.193Z</time></trkpt><trkpt lat="40.097497" lon="9.5609416"><ele>718.25</ele><time>2026-05-02T07:52:15.193Z</time></trkpt><trkpt lat="40.0974006" lon="9.5608464"><ele>719.5</ele><time>2026-05-02T07:52:16.192Z</time></trkpt><trkpt lat="40.0973333" lon="9.5607154"><ele>720.75</ele><time>2026-05-02T07:52:17.192Z</time></trkpt><trkpt lat="40.097295" lon="9.5605625"><ele>722.0</ele><time>2026-05-02T07:52:18.193Z</time></trkpt><trkpt lat="40.0973006" lon="9.5603987"><ele>721.75</ele><time>2026-05-02T07:52:19.192Z</time></trkpt><trkpt lat="40.0973302" lon="9.5602382"><ele>721.5</ele><time>2026-05-02T07:52:20.192Z</time></trkpt><trkpt lat="40.0973574" lon="9.5600779"><ele>721.25</ele><time>2026-05-02T07:52:21.192Z</time></trkpt><trkpt lat="40.097352" lon="9.5599093"><ele>721.0</ele><time>2026-05-02T07:52:22.193Z</time></trkpt><trkpt lat="40.097317" lon="9.559751"><ele>721.0</ele><time>2026-05-02T07:52:23.192Z</time></trkpt><trkpt lat="40.0972572" lon="9.5595945"><ele>721.0</ele><time>2026-05-02T07:52:24.192Z</time></trkpt><trkpt lat="40.0971844" lon="9.5594358"><ele>721.0</ele><time>2026-05-02T07:52:25.193Z</time></trkpt><trkpt lat="40.0971044" lon="9.5592755"><ele>721.0</ele><time>2026-05-02T07:52:26.193Z</time></trkpt><trkpt lat="40.0970311" lon="9.5591137"><ele>719.5</ele><time>2026-05-02T07:52:27.193Z</time></trkpt><trkpt lat="40.0969767" lon="9.5589491"><ele>718.0</ele><time>2026-05-02T07:52:28.192Z</time></trkpt><trkpt lat="40.0969606" lon="9.5587885"><ele>716.5</ele><time>2026-05-02T07:52:29.193Z</time></trkpt><trkpt lat="40.096981" lon="9.5586191"><ele>715.0</ele><time>2026-05-02T07:52:30.192Z</time></trkpt><trkpt lat="40.097033" lon="9.5584408"><ele>714.3333333333334</ele><time>2026-05-02T07:52:31.193Z</time></trkpt><trkpt lat="40.097101" lon="9.5582487"><ele>713.6666666666666</ele><time>2026-05-02T07:52:32.193Z</time></trkpt><trkpt lat="40.0971765" lon="9.5580345"><ele>713.0</ele><time>2026-05-02T07:52:33.192Z</time></trkpt><trkpt lat="40.0972474" lon="9.5578292"><ele>714.3333333333333</ele><time>2026-05-02T07:52:34.192Z</time></trkpt><trkpt lat="40.097304" lon="9.5576336"><ele>715.6666666666666</ele><time>2026-05-02T07:52:35.192Z</time></trkpt><trkpt lat="40.0973465" lon="9.5574144"><ele>717.0</ele><time>2026-05-02T07:52:36.192Z</time></trkpt><trkpt lat="40.0973619" lon="9.557171"><ele>717.3333333333334</ele><time>2026-05-02T07:52:37.192Z</time></trkpt><trkpt lat="40.0973518" lon="9.5568983"><ele>717.6666666666667</ele><time>2026-05-02T07:52:38.193Z</time></trkpt><trkpt lat="40.0973281" lon="9.5566153"><ele>718.0</ele><time>2026-05-02T07:52:39.192Z</time></trkpt><trkpt lat="40.0973065" lon="9.5563433"><ele>716.3333333333334</ele><time>2026-05-02T07:52:40.192Z</time></trkpt><trkpt lat="40.0972898" lon="9.5560728"><ele>714.6666666666666</ele><time>2026-05-02T07:52:41.193Z</time></trkpt><trkpt lat="40.0972689" lon="9.5558127"><ele>713.0</ele><time>2026-05-02T07:52:42.193Z</time></trkpt><trkpt lat="40.0972461" lon="9.5555678"><ele>711.3333333333333</ele><time>2026-05-02T07:52:43.193Z</time></trkpt><trkpt lat="40.0972059" lon="9.5553387"><ele>709.6666666666666</ele><time>2026-05-02T07:52:44.192Z</time></trkpt><trkpt lat="40.097142" lon="9.5551182"><ele>708.0</ele><time>2026-05-02T07:52:45.193Z</time></trkpt><trkpt lat="40.09705" lon="9.5549111"><ele>708.0</ele><time>2026-05-02T07:52:46.192Z</time></trkpt><trkpt lat="40.0969347" lon="9.554709"><ele>708.0</ele><time>2026-05-02T07:52:47.192Z</time></trkpt><trkpt lat="40.096815" lon="9.5545074"><ele>708.0</ele><time>2026-05-02T07:52:48.193Z</time></trkpt><trkpt lat="40.0967002" lon="9.5543121"><ele>707.6666666666666</ele><time>2026-05-02T07:52:49.192Z</time></trkpt><trkpt lat="40.0965972" lon="9.554133"><ele>707.3333333333333</ele><time>2026-05-02T07:52:50.192Z</time></trkpt><trkpt lat="40.0965032" lon="9.5539681"><ele>707.0</ele><time>2026-05-02T07:52:51.192Z</time></trkpt><trkpt lat="40.0964181" lon="9.5538181"><ele>704.75</ele><time>2026-05-02T07:52:52.192Z</time></trkpt><trkpt lat="40.0963293" lon="9.5536831"><ele>702.5</ele><time>2026-05-02T07:52:53.192Z</time></trkpt><trkpt lat="40.0962245" lon="9.5535674"><ele>700.25</ele><time>2026-05-02T07:52:54.192Z</time></trkpt><trkpt lat="40.0960942" lon="9.5534838"><ele>698.0</ele><time>2026-05-02T07:52:55.192Z</time></trkpt><trkpt lat="40.09594" lon="9.553428"><ele>698.0</ele><time>2026-05-02T07:52:56.193Z</time></trkpt><trkpt lat="40.0957677" lon="9.5533837"><ele>698.0</ele><time>2026-05-02T07:52:57.193Z</time></trkpt><trkpt lat="40.0956165" lon="9.5533377"><ele>698.0</ele><time>2026-05-02T07:52:58.192Z</time></trkpt><trkpt lat="40.0954863" lon="9.5532769"><ele>698.5</ele><time>2026-05-02T07:52:59.193Z</time></trkpt><trkpt lat="40.0953931" lon="9.5531666"><ele>699.0</ele><time>2026-05-02T07:53:00.193Z</time></trkpt><trkpt lat="40.0953361" lon="9.5530296"><ele>699.5</ele><time>2026-05-02T07:53:01.192Z</time></trkpt><trkpt lat="40.0953179" lon="9.552863"><ele>700.0</ele><time>2026-05-02T07:53:02.193Z</time></trkpt><trkpt lat="40.0953249" lon="9.5526572"><ele>697.6666666666667</ele><time>2026-05-02T07:53:03.192Z</time></trkpt><trkpt lat="40.0953397" lon="9.5524084"><ele>695.3333333333334</ele><time>2026-05-02T07:53:04.192Z</time></trkpt><trkpt lat="40.0953545" lon="9.5521459"><ele>693.0</ele><time>2026-05-02T07:53:05.193Z</time></trkpt><trkpt lat="40.0953702" lon="9.5518998"><ele>692.6666666666666</ele><time>2026-05-02T07:53:06.192Z</time></trkpt><trkpt lat="40.095388" lon="9.5516455"><ele>692.3333333333333</ele><time>2026-05-02T07:53:07.193Z</time></trkpt><trkpt lat="40.0954051" lon="9.5514039"><ele>692.0</ele><time>2026-05-02T07:53:08.192Z</time></trkpt><trkpt lat="40.0954205" lon="9.5511931"><ele>692.0</ele><time>2026-05-02T07:53:09.193Z</time></trkpt><trkpt lat="40.0954433" lon="9.5510049"><ele>692.0</ele><time>2026-05-02T07:53:10.192Z</time></trkpt><trkpt lat="40.0954985" lon="9.5508539"><ele>692.0</ele><time>2026-05-02T07:53:11.192Z</time></trkpt><trkpt lat="40.0955864" lon="9.5507526"><ele>692.0</ele><time>2026-05-02T07:53:12.192Z</time></trkpt><trkpt lat="40.0956996" lon="9.550695"><ele>692.0</ele><time>2026-05-02T07:53:13.192Z</time></trkpt><trkpt lat="40.0958402" lon="9.5506716"><ele>692.0</ele><time>2026-05-02T07:53:14.192Z</time></trkpt><trkpt lat="40.0960002" lon="9.5506578"><ele>692.0</ele><time>2026-05-02T07:53:15.192Z</time></trkpt><trkpt lat="40.0961409" lon="9.5506354"><ele>692.0</ele><time>2026-05-02T07:53:16.193Z</time></trkpt><trkpt lat="40.0962623" lon="9.550575"><ele>692.0</ele><time>2026-05-02T07:53:17.192Z</time></trkpt><trkpt lat="40.0963605" lon="9.5504692"><ele>692.0</ele><time>2026-05-02T07:53:18.192Z</time></trkpt><trkpt lat="40.0964299" lon="9.5503191"><ele>692.0</ele><time>2026-05-02T07:53:19.193Z</time></trkpt><trkpt lat="40.0964868" lon="9.5501334"><ele>692.0</ele><time>2026-05-02T07:53:20.193Z</time></trkpt><trkpt lat="40.0965451" lon="9.5499166"><ele>692.6666666666666</ele><time>2026-05-02T07:53:21.192Z</time></trkpt><trkpt lat="40.0966069" lon="9.5496849"><ele>693.3333333333334</ele><time>2026-05-02T07:53:22.192Z</time></trkpt><trkpt lat="40.0966793" lon="9.5494452"><ele>694.0</ele><time>2026-05-02T07:53:23.192Z</time></trkpt><trkpt lat="40.096756" lon="9.5491892"><ele>695.6666666666667</ele><time>2026-05-02T07:53:24.192Z</time></trkpt><trkpt lat="40.0968346" lon="9.5489221"><ele>697.3333333333334</ele><time>2026-05-02T07:53:25.193Z</time></trkpt><trkpt lat="40.096909" lon="9.5486696"><ele>699.0</ele><time>2026-05-02T07:53:26.192Z</time></trkpt><trkpt lat="40.0969695" lon="9.5484251"><ele>701.6666666666666</ele><time>2026-05-02T07:53:27.192Z</time></trkpt><trkpt lat="40.0970144" lon="9.5481725"><ele>704.3333333333333</ele><time>2026-05-02T07:53:28.193Z</time></trkpt><trkpt lat="40.0970429" lon="9.5479103"><ele>707.0</ele><time>2026-05-02T07:53:29.192Z</time></trkpt><trkpt lat="40.0970686" lon="9.5476397"><ele>708.3333333333333</ele><time>2026-05-02T07:53:30.193Z</time></trkpt><trkpt lat="40.0970973" lon="9.5473595"><ele>709.6666666666666</ele><time>2026-05-02T07:53:31.193Z</time></trkpt><trkpt lat="40.0971282" lon="9.5470721"><ele>711.0</ele><time>2026-05-02T07:53:32.192Z</time></trkpt><trkpt lat="40.097155" lon="9.5467855"><ele>711.6666666666666</ele><time>2026-05-02T07:53:33.193Z</time></trkpt><trkpt lat="40.0971817" lon="9.5465075"><ele>712.3333333333333</ele><time>2026-05-02T07:53:34.193Z</time></trkpt><trkpt lat="40.0972069" lon="9.5462432"><ele>713.0</ele><time>2026-05-02T07:53:35.193Z</time></trkpt><trkpt lat="40.0972344" lon="9.5459912"><ele>714.3333333333333</ele><time>2026-05-02T07:53:36.192Z</time></trkpt><trkpt lat="40.0972593" lon="9.5457577"><ele>715.6666666666666</ele><time>2026-05-02T07:53:37.193Z</time></trkpt><trkpt lat="40.0972718" lon="9.5455517"><ele>717.0</ele><time>2026-05-02T07:53:38.192Z</time></trkpt><trkpt lat="40.0972522" lon="9.5453752"><ele>717.0</ele><time>2026-05-02T07:53:39.192Z</time></trkpt><trkpt lat="40.0971885" lon="9.5452187"><ele>717.0</ele><time>2026-05-02T07:53:40.192Z</time></trkpt><trkpt lat="40.0970933" lon="9.5450896"><ele>717.0</ele><time>2026-05-02T07:53:41.192Z</time></trkpt><trkpt lat="40.0969854" lon="9.5449765"><ele>717.0</ele><time>2026-05-02T07:53:42.193Z</time></trkpt><trkpt lat="40.0968968" lon="9.5448599"><ele>717.0</ele><time>2026-05-02T07:53:43.193Z</time></trkpt><trkpt lat="40.0968406" lon="9.5447153"><ele>717.0</ele><time>2026-05-02T07:53:44.193Z</time></trkpt><trkpt lat="40.0968317" lon="9.5445564"><ele>717.0</ele><time>2026-05-02T07:53:45.193Z</time></trkpt><trkpt lat="40.0968612" lon="9.5443885"><ele>717.0</ele><time>2026-05-02T07:53:46.193Z</time></trkpt><trkpt lat="40.0969126" lon="9.5442019"><ele>718.0</ele><time>2026-05-02T07:53:47.192Z</time></trkpt><trkpt lat="40.0969599" lon="9.5440009"><ele>719.0</ele><time>2026-05-02T07:53:48.192Z</time></trkpt><trkpt lat="40.096984" lon="9.5437861"><ele>720.0</ele><time>2026-05-02T07:53:49.192Z</time></trkpt><trkpt lat="40.0969915" lon="9.5435581"><ele>722.3333333333334</ele><time>2026-05-02T07:53:50.193Z</time></trkpt><trkpt lat="40.0969848" lon="9.5433173"><ele>724.6666666666667</ele><time>2026-05-02T07:53:51.193Z</time></trkpt><trkpt lat="40.0969758" lon="9.5430538"><ele>727.0</ele><time>2026-05-02T07:53:52.192Z</time></trkpt><trkpt lat="40.0969654" lon="9.5427838"><ele>727.0</ele><time>2026-05-02T07:53:53.192Z</time></trkpt><trkpt lat="40.0969557" lon="9.5425138"><ele>727.0</ele><time>2026-05-02T07:53:54.193Z</time></trkpt><trkpt lat="40.0969449" lon="9.5422571"><ele>727.0</ele><time>2026-05-02T07:53:55.192Z</time></trkpt><trkpt lat="40.0969357" lon="9.5420083"><ele>726.6666666666667</ele><time>2026-05-02T07:53:56.192Z</time></trkpt><trkpt lat="40.0969416" lon="9.5417686"><ele>726.3333333333334</ele><time>2026-05-02T07:53:57.192Z</time></trkpt><trkpt lat="40.0969741" lon="9.5415419"><ele>726.0</ele><time>2026-05-02T07:53:58.192Z</time></trkpt><trkpt lat="40.0970337" lon="9.5413196"><ele>725.3333333333334</ele><time>2026-05-02T07:53:59.192Z</time></trkpt><trkpt lat="40.0971031" lon="9.5410953"><ele>724.6666666666667</ele><time>2026-05-02T07:54:00.193Z</time></trkpt><trkpt lat="40.0971601" lon="9.5408521"><ele>724.0</ele><time>2026-05-02T07:54:01.193Z</time></trkpt><trkpt lat="40.0971926" lon="9.5405949"><ele>723.6666666666667</ele><time>2026-05-02T07:54:02.192Z</time></trkpt><trkpt lat="40.0972078" lon="9.5403746"><ele>723.3333333333334</ele><time>2026-05-02T07:54:03.193Z</time></trkpt><trkpt lat="40.0972141" lon="9.5401671"><ele>723.0</ele><time>2026-05-02T07:54:04.193Z</time></trkpt><trkpt lat="40.0971907" lon="9.5399757"><ele>723.0</ele><time>2026-05-02T07:54:05.193Z</time></trkpt><trkpt lat="40.0971248" lon="9.5398022"><ele>723.0</ele><time>2026-05-02T07:54:06.193Z</time></trkpt><trkpt lat="40.0970259" lon="9.5396597"><ele>723.0</ele><time>2026-05-02T07:54:07.193Z</time></trkpt><trkpt lat="40.0969018" lon="9.5395653"><ele>723.0</ele><time>2026-05-02T07:54:08.192Z</time></trkpt><trkpt lat="40.0967625" lon="9.5395328"><ele>722.0</ele><time>2026-05-02T07:54:09.193Z</time></trkpt><trkpt lat="40.0966094" lon="9.539547"><ele>721.0</ele><time>2026-05-02T07:54:10.193Z</time></trkpt><trkpt lat="40.0964472" lon="9.5395891"><ele>720.0</ele><time>2026-05-02T07:54:11.192Z</time></trkpt><trkpt lat="40.0962967" lon="9.5396294"><ele>720.0</ele><time>2026-05-02T07:54:12.192Z</time></trkpt><trkpt lat="40.0961613" lon="9.5396461"><ele>720.0</ele><time>2026-05-02T07:54:13.193Z</time></trkpt><trkpt lat="40.0960452" lon="9.5396131"><ele>720.0</ele><time>2026-05-02T07:54:14.193Z</time></trkpt><trkpt lat="40.0959371" lon="9.5395391"><ele>720.0</ele><time>2026-05-02T07:54:15.192Z</time></trkpt><trkpt lat="40.0958452" lon="9.5394345"><ele>719.8</ele><time>2026-05-02T07:54:16.192Z</time></trkpt><trkpt lat="40.0957664" lon="9.5393348"><ele>719.6</ele><time>2026-05-02T07:54:17.192Z</time></trkpt><trkpt lat="40.0957025" lon="9.5392544"><ele>719.4000000000001</ele><time>2026-05-02T07:54:18.192Z</time></trkpt><trkpt lat="40.0956528" lon="9.539193"><ele>719.2</ele><time>2026-05-02T07:54:19.192Z</time></trkpt><trkpt lat="40.0955693" lon="9.539085"><ele>719.0</ele><time>2026-05-02T07:54:21.193Z</time></trkpt><trkpt lat="40.0954829" lon="9.5389757"><ele>719.4000000000001</ele><time>2026-05-02T07:54:23.192Z</time></trkpt><trkpt lat="40.0953944" lon="9.5388651"><ele>719.8</ele><time>2026-05-02T07:54:25.193Z</time></trkpt><trkpt lat="40.0953397" lon="9.538798"><ele>720.2</ele><time>2026-05-02T07:54:26.193Z</time></trkpt><trkpt lat="40.0952773" lon="9.5387221"><ele>720.5999999999999</ele><time>2026-05-02T07:54:27.193Z</time></trkpt><trkpt lat="40.0952084" lon="9.5386375"><ele>721.0</ele><time>2026-05-02T07:54:28.192Z</time></trkpt><trkpt lat="40.0951349" lon="9.538544"><ele>721.25</ele><time>2026-05-02T07:54:29.192Z</time></trkpt><trkpt lat="40.0950543" lon="9.5384422"><ele>721.5</ele><time>2026-05-02T07:54:30.192Z</time></trkpt><trkpt lat="40.0949649" lon="9.5383314"><ele>721.75</ele><time>2026-05-02T07:54:31.193Z</time></trkpt><trkpt lat="40.0948754" lon="9.5382009"><ele>722.0</ele><time>2026-05-02T07:54:32.192Z</time></trkpt><trkpt lat="40.0947907" lon="9.5380493"><ele>721.6666666666666</ele><time>2026-05-02T07:54:33.193Z</time></trkpt><trkpt lat="40.0947131" lon="9.5378753"><ele>721.3333333333334</ele><time>2026-05-02T07:54:34.193Z</time></trkpt><trkpt lat="40.0946491" lon="9.5376744"><ele>721.0</ele><time>2026-05-02T07:54:35.193Z</time></trkpt><trkpt lat="40.0946058" lon="9.5374518"><ele>721.0</ele><time>2026-05-02T07:54:36.193Z</time></trkpt><trkpt lat="40.0945893" lon="9.5372164"><ele>721.0</ele><time>2026-05-02T07:54:37.193Z</time></trkpt><trkpt lat="40.0946039" lon="9.536971"><ele>721.0</ele><time>2026-05-02T07:54:38.193Z</time></trkpt><trkpt lat="40.0946481" lon="9.5367176"><ele>721.0</ele><time>2026-05-02T07:54:39.193Z</time></trkpt><trkpt lat="40.0947125" lon="9.5364494"><ele>721.0</ele><time>2026-05-02T07:54:40.193Z</time></trkpt><trkpt lat="40.0947839" lon="9.53616"><ele>721.0</ele><time>2026-05-02T07:54:41.193Z</time></trkpt><trkpt lat="40.0948559" lon="9.5358586"><ele>721.0</ele><time>2026-05-02T07:54:42.193Z</time></trkpt><trkpt lat="40.0949196" lon="9.5355931"><ele>721.0</ele><time>2026-05-02T07:54:43.192Z</time></trkpt><trkpt lat="40.0949775" lon="9.5353575"><ele>721.0</ele><time>2026-05-02T07:54:44.192Z</time></trkpt><trkpt lat="40.0950313" lon="9.5351437"><ele>721.6666666666667</ele><time>2026-05-02T07:54:45.192Z</time></trkpt><trkpt lat="40.0950814" lon="9.5349423"><ele>722.3333333333334</ele><time>2026-05-02T07:54:46.193Z</time></trkpt><trkpt lat="40.095132" lon="9.5347558"><ele>723.0</ele><time>2026-05-02T07:54:47.193Z</time></trkpt><trkpt lat="40.0951984" lon="9.5345929"><ele>723.75</ele><time>2026-05-02T07:54:48.193Z</time></trkpt><trkpt lat="40.0952925" lon="9.5344559"><ele>724.5</ele><time>2026-05-02T07:54:49.192Z</time></trkpt><trkpt lat="40.0954114" lon="9.5343407"><ele>725.25</ele><time>2026-05-02T07:54:50.192Z</time></trkpt><trkpt lat="40.0955464" lon="9.5342359"><ele>726.0</ele><time>2026-05-02T07:54:51.193Z</time></trkpt><trkpt lat="40.0956754" lon="9.5341388"><ele>726.0</ele><time>2026-05-02T07:54:52.192Z</time></trkpt><trkpt lat="40.0957909" lon="9.5340503"><ele>726.0</ele><time>2026-05-02T07:54:53.193Z</time></trkpt><trkpt lat="40.0958983" lon="9.5339665"><ele>726.0</ele><time>2026-05-02T07:54:54.192Z</time></trkpt><trkpt lat="40.0960033" lon="9.5338735"><ele>726.0</ele><time>2026-05-02T07:54:55.192Z</time></trkpt><trkpt lat="40.0960897" lon="9.5337457"><ele>726.25</ele><time>2026-05-02T07:54:56.193Z</time></trkpt><trkpt lat="40.0961557" lon="9.5335931"><ele>726.5</ele><time>2026-05-02T07:54:57.193Z</time></trkpt><trkpt lat="40.0962012" lon="9.5334214"><ele>726.75</ele><time>2026-05-02T07:54:58.193Z</time></trkpt><trkpt lat="40.0962153" lon="9.533227"><ele>727.0</ele><time>2026-05-02T07:54:59.193Z</time></trkpt><trkpt lat="40.0962163" lon="9.5330118"><ele>726.0</ele><time>2026-05-02T07:55:00.193Z</time></trkpt><trkpt lat="40.0962193" lon="9.5327862"><ele>725.0</ele><time>2026-05-02T07:55:01.193Z</time></trkpt><trkpt lat="40.096225" lon="9.5325474"><ele>724.0</ele><time>2026-05-02T07:55:02.192Z</time></trkpt><trkpt lat="40.0962282" lon="9.5322904"><ele>724.3333333333334</ele><time>2026-05-02T07:55:03.192Z</time></trkpt><trkpt lat="40.0962319" lon="9.5320147"><ele>724.6666666666666</ele><time>2026-05-02T07:55:04.193Z</time></trkpt><trkpt lat="40.0962373" lon="9.5317268"><ele>725.0</ele><time>2026-05-02T07:55:05.192Z</time></trkpt><trkpt lat="40.096241" lon="9.5314416"><ele>725.0</ele><time>2026-05-02T07:55:06.193Z</time></trkpt><trkpt lat="40.0962408" lon="9.5311832"><ele>725.0</ele><time>2026-05-02T07:55:07.192Z</time></trkpt><trkpt lat="40.096248" lon="9.5309592"><ele>725.0</ele><time>2026-05-02T07:55:08.192Z</time></trkpt><trkpt lat="40.0962744" lon="9.5307665"><ele>725.0</ele><time>2026-05-02T07:55:09.193Z</time></trkpt><trkpt lat="40.0963313" lon="9.5305996"><ele>725.0</ele><time>2026-05-02T07:55:10.192Z</time></trkpt><trkpt lat="40.0964202" lon="9.5304493"><ele>725.0</ele><time>2026-05-02T07:55:11.193Z</time></trkpt><trkpt lat="40.096533" lon="9.5303339"><ele>725.0</ele><time>2026-05-02T07:55:12.192Z</time></trkpt><trkpt lat="40.0966639" lon="9.5302622"><ele>727.3333333333333</ele><time>2026-05-02T07:55:13.192Z</time></trkpt><trkpt lat="40.0968158" lon="9.530232"><ele>729.6666666666666</ele><time>2026-05-02T07:55:14.193Z</time></trkpt><trkpt lat="40.0969909" lon="9.5302232"><ele>732.0</ele><time>2026-05-02T07:55:15.193Z</time></trkpt><trkpt lat="40.0971865" lon="9.5302186"><ele>732.0</ele><time>2026-05-02T07:55:16.192Z</time></trkpt><trkpt lat="40.097392" lon="9.5302117"><ele>732.0</ele><time>2026-05-02T07:55:17.193Z</time></trkpt><trkpt lat="40.0975825" lon="9.5302"><ele>732.0</ele><time>2026-05-02T07:55:18.193Z</time></trkpt><trkpt lat="40.097772" lon="9.5301645"><ele>734.3333333333334</ele><time>2026-05-02T07:55:19.193Z</time></trkpt><trkpt lat="40.0979626" lon="9.5301093"><ele>736.6666666666667</ele><time>2026-05-02T07:55:20.193Z</time></trkpt><trkpt lat="40.0981603" lon="9.5300248"><ele>739.0</ele><time>2026-05-02T07:55:21.193Z</time></trkpt><trkpt lat="40.0983625" lon="9.5299191"><ele>739.5</ele><time>2026-05-02T07:55:22.192Z</time></trkpt><trkpt lat="40.0985681" lon="9.5297981"><ele>740.0</ele><time>2026-05-02T07:55:23.193Z</time></trkpt><trkpt lat="40.0987804" lon="9.5296661"><ele>739.0</ele><time>2026-05-02T07:55:24.192Z</time></trkpt><trkpt lat="40.0989999" lon="9.5295308"><ele>738.0</ele><time>2026-05-02T07:55:25.192Z</time></trkpt><trkpt lat="40.099221" lon="9.5293969"><ele>741.0</ele><time>2026-05-02T07:55:26.193Z</time></trkpt><trkpt lat="40.0994359" lon="9.5292688"><ele>744.0</ele><time>2026-05-02T07:55:27.192Z</time></trkpt><trkpt lat="40.0996374" lon="9.5291636"><ele>744.0</ele><time>2026-05-02T07:55:28.192Z</time></trkpt><trkpt lat="40.0998451" lon="9.5290887"><ele>744.0</ele><time>2026-05-02T07:55:29.193Z</time></trkpt><trkpt lat="40.1000645" lon="9.5290363"><ele>744.0</ele><time>2026-05-02T07:55:30.193Z</time></trkpt><trkpt lat="40.1002919" lon="9.5289876"><ele>749.5</ele><time>2026-05-02T07:55:31.192Z</time></trkpt><trkpt lat="40.1005216" lon="9.528928"><ele>755.0</ele><time>2026-05-02T07:55:32.193Z</time></trkpt><trkpt lat="40.1007473" lon="9.5288542"><ele>752.6666666666666</ele><time>2026-05-02T07:55:33.192Z</time></trkpt><trkpt lat="40.1009601" lon="9.5287776"><ele>750.3333333333334</ele><time>2026-05-02T07:55:34.192Z</time></trkpt><trkpt lat="40.1011542" lon="9.5287098"><ele>748.0</ele><time>2026-05-02T07:55:35.193Z</time></trkpt><trkpt lat="40.1013266" lon="9.5286635"><ele>748.0</ele><time>2026-05-02T07:55:36.192Z</time></trkpt><trkpt lat="40.1014737" lon="9.5286469"><ele>748.0</ele><time>2026-05-02T07:55:37.193Z</time></trkpt><trkpt lat="40.1015983" lon="9.5286668"><ele>748.0</ele><time>2026-05-02T07:55:38.192Z</time></trkpt><trkpt lat="40.1017055" lon="9.5287306"><ele>748.0</ele><time>2026-05-02T07:55:39.193Z</time></trkpt><trkpt lat="40.1017888" lon="9.5288402"><ele>753.25</ele><time>2026-05-02T07:55:40.193Z</time></trkpt><trkpt lat="40.1018392" lon="9.5289832"><ele>758.5</ele><time>2026-05-02T07:55:41.193Z</time></trkpt><trkpt lat="40.1018583" lon="9.5291525"><ele>763.75</ele><time>2026-05-02T07:55:42.192Z</time></trkpt><trkpt lat="40.1018589" lon="9.5293534"><ele>769.0</ele><time>2026-05-02T07:55:43.192Z</time></trkpt><trkpt lat="40.1018602" lon="9.529537"><ele>770.5</ele><time>2026-05-02T07:55:44.193Z</time></trkpt><trkpt lat="40.1018903" lon="9.5296954"><ele>772.0</ele><time>2026-05-02T07:55:45.193Z</time></trkpt><trkpt lat="40.1019585" lon="9.5298374"><ele>773.5</ele><time>2026-05-02T07:55:46.193Z</time></trkpt><trkpt lat="40.1020599" lon="9.5299432"><ele>775.0</ele><time>2026-05-02T07:55:47.193Z</time></trkpt><trkpt lat="40.1021921" lon="9.5300107"><ele>775.0</ele><time>2026-05-02T07:55:48.192Z</time></trkpt><trkpt lat="40.1023595" lon="9.5300587"><ele>775.0</ele><time>2026-05-02T07:55:49.192Z</time></trkpt><trkpt lat="40.1025523" lon="9.5301042"><ele>775.0</ele><time>2026-05-02T07:55:50.192Z</time></trkpt><trkpt lat="40.1027662" lon="9.530153"><ele>775.6666666666666</ele><time>2026-05-02T07:55:51.193Z</time></trkpt><trkpt lat="40.1029925" lon="9.5302088"><ele>776.3333333333333</ele><time>2026-05-02T07:55:52.193Z</time></trkpt><trkpt lat="40.1031908" lon="9.5302592"><ele>777.0</ele><time>2026-05-02T07:55:53.193Z</time></trkpt><trkpt lat="40.103363" lon="9.5302995"><ele>778.25</ele><time>2026-05-02T07:55:54.193Z</time></trkpt><trkpt lat="40.10351" lon="9.5303199"><ele>779.5</ele><time>2026-05-02T07:55:55.193Z</time></trkpt><trkpt lat="40.1036364" lon="9.5302931"><ele>780.75</ele><time>2026-05-02T07:55:56.193Z</time></trkpt><trkpt lat="40.1037418" lon="9.5302141"><ele>782.0</ele><time>2026-05-02T07:55:57.192Z</time></trkpt><trkpt lat="40.1038224" lon="9.5300865"><ele>782.0</ele><time>2026-05-02T07:55:58.193Z</time></trkpt><trkpt lat="40.1038757" lon="9.5299298"><ele>782.0</ele><time>2026-05-02T07:55:59.192Z</time></trkpt><trkpt lat="40.1039008" lon="9.529773"><ele>782.0</ele><time>2026-05-02T07:56:00.192Z</time></trkpt><trkpt lat="40.1039342" lon="9.529636"><ele>782.0</ele><time>2026-05-02T07:56:01.192Z</time></trkpt><trkpt lat="40.1039958" lon="9.5295333"><ele>780.8</ele><time>2026-05-02T07:56:02.192Z</time></trkpt><trkpt lat="40.1040785" lon="9.529481"><ele>779.6</ele><time>2026-05-02T07:56:03.193Z</time></trkpt><trkpt lat="40.1041668" lon="9.5294868"><ele>778.4</ele><time>2026-05-02T07:56:04.193Z</time></trkpt><trkpt lat="40.1042408" lon="9.5295521"><ele>777.1999999999999</ele><time>2026-05-02T07:56:05.193Z</time></trkpt><trkpt lat="40.1042935" lon="9.5296481"><ele>776.0</ele><time>2026-05-02T07:56:06.192Z</time></trkpt><trkpt lat="40.1043026" lon="9.529774"><ele>778.25</ele><time>2026-05-02T07:56:07.192Z</time></trkpt><trkpt lat="40.1042824" lon="9.5299149"><ele>780.5</ele><time>2026-05-02T07:56:08.192Z</time></trkpt><trkpt lat="40.1042549" lon="9.5300835"><ele>782.75</ele><time>2026-05-02T07:56:09.193Z</time></trkpt><trkpt lat="40.1042561" lon="9.5302461"><ele>785.0</ele><time>2026-05-02T07:56:10.192Z</time></trkpt><trkpt lat="40.1042891" lon="9.5304022"><ele>785.0</ele><time>2026-05-02T07:56:11.192Z</time></trkpt><trkpt lat="40.1043546" lon="9.5305311"><ele>785.0</ele><time>2026-05-02T07:56:12.192Z</time></trkpt><trkpt lat="40.1044464" lon="9.5306049"><ele>785.0</ele><time>2026-05-02T07:56:13.192Z</time></trkpt><trkpt lat="40.1045552" lon="9.5306183"><ele>785.0</ele><time>2026-05-02T07:56:14.193Z</time></trkpt><trkpt lat="40.1046602" lon="9.5305698"><ele>785.0</ele><time>2026-05-02T07:56:15.192Z</time></trkpt><trkpt lat="40.104735" lon="9.5304619"><ele>786.5</ele><time>2026-05-02T07:56:16.192Z</time></trkpt><trkpt lat="40.1047629" lon="9.5303141"><ele>788.0</ele><time>2026-05-02T07:56:17.193Z</time></trkpt><trkpt lat="40.1047485" lon="9.5301353"><ele>789.5</ele><time>2026-05-02T07:56:18.193Z</time></trkpt><trkpt lat="40.1047048" lon="9.5299147"><ele>791.0</ele><time>2026-05-02T07:56:19.192Z</time></trkpt><trkpt lat="40.1046496" lon="9.5296478"><ele>791.6666666666667</ele><time>2026-05-02T07:56:20.192Z</time></trkpt><trkpt lat="40.1045956" lon="9.5293689"><ele>792.3333333333333</ele><time>2026-05-02T07:56:21.192Z</time></trkpt><trkpt lat="40.1045481" lon="9.5291286"><ele>793.0</ele><time>2026-05-02T07:56:22.193Z</time></trkpt><trkpt lat="40.104503" lon="9.5289135"><ele>793.6666666666666</ele><time>2026-05-02T07:56:23.193Z</time></trkpt><trkpt lat="40.1044667" lon="9.5287209"><ele>794.3333333333333</ele><time>2026-05-02T07:56:24.192Z</time></trkpt><trkpt lat="40.1044482" lon="9.5285246"><ele>795.0</ele><time>2026-05-02T07:56:25.192Z</time></trkpt><trkpt lat="40.1044622" lon="9.528322"><ele>795.0</ele><time>2026-05-02T07:56:26.193Z</time></trkpt><trkpt lat="40.1045048" lon="9.5281083"><ele>795.0</ele><time>2026-05-02T07:56:27.192Z</time></trkpt><trkpt lat="40.1045659" lon="9.5278972"><ele>795.0</ele><time>2026-05-02T07:56:28.192Z</time></trkpt><trkpt lat="40.1046504" lon="9.5276995"><ele>793.3333333333333</ele><time>2026-05-02T07:56:29.192Z</time></trkpt><trkpt lat="40.10477" lon="9.5275195"><ele>791.6666666666666</ele><time>2026-05-02T07:56:30.193Z</time></trkpt><trkpt lat="40.1049197" lon="9.5273519"><ele>790.0</ele><time>2026-05-02T07:56:31.193Z</time></trkpt><trkpt lat="40.1050901" lon="9.5272103"><ele>793.0</ele><time>2026-05-02T07:56:32.192Z</time></trkpt><trkpt lat="40.1052731" lon="9.5271008"><ele>796.0</ele><time>2026-05-02T07:56:33.192Z</time></trkpt><trkpt lat="40.1054693" lon="9.5270266"><ele>799.0</ele><time>2026-05-02T07:56:34.193Z</time></trkpt><trkpt lat="40.1056618" lon="9.5269746"><ele>805.0</ele><time>2026-05-02T07:56:35.192Z</time></trkpt><trkpt lat="40.1058341" lon="9.5269431"><ele>811.0</ele><time>2026-05-02T07:56:36.192Z</time></trkpt><trkpt lat="40.1059894" lon="9.5269085"><ele>817.0</ele><time>2026-05-02T07:56:37.193Z</time></trkpt><trkpt lat="40.1061278" lon="9.5268282"><ele>817.0</ele><time>2026-05-02T07:56:38.193Z</time></trkpt><trkpt lat="40.1062587" lon="9.5267043"><ele>817.0</ele><time>2026-05-02T07:56:39.193Z</time></trkpt><trkpt lat="40.1063688" lon="9.5265467"><ele>817.0</ele><time>2026-05-02T07:56:40.192Z</time></trkpt><trkpt lat="40.1064502" lon="9.5263612"><ele>815.3333333333333</ele><time>2026-05-02T07:56:41.193Z</time></trkpt><trkpt lat="40.1064914" lon="9.5261616"><ele>813.6666666666667</ele><time>2026-05-02T07:56:42.193Z</time></trkpt><trkpt lat="40.106494" lon="9.5259488"><ele>812.0</ele><time>2026-05-02T07:56:43.193Z</time></trkpt><trkpt lat="40.1064674" lon="9.5257348"><ele>812.0</ele><time>2026-05-02T07:56:44.192Z</time></trkpt><trkpt lat="40.1063981" lon="9.5255246"><ele>812.0</ele><time>2026-05-02T07:56:45.192Z</time></trkpt><trkpt lat="40.1063037" lon="9.5253319"><ele>812.0</ele><time>2026-05-02T07:56:46.192Z</time></trkpt><trkpt lat="40.1062054" lon="9.5251649"><ele>819.0</ele><time>2026-05-02T07:56:47.192Z</time></trkpt><trkpt lat="40.106094" lon="9.5250299"><ele>826.0</ele><time>2026-05-02T07:56:48.193Z</time></trkpt><trkpt lat="40.105965" lon="9.5249489"><ele>833.0</ele><time>2026-05-02T07:56:49.193Z</time></trkpt><trkpt lat="40.1058116" lon="9.5249239"><ele>832.3333333333334</ele><time>2026-05-02T07:56:50.193Z</time></trkpt><trkpt lat="40.105642" lon="9.5249149"><ele>831.6666666666667</ele><time>2026-05-02T07:56:51.192Z</time></trkpt><trkpt lat="40.1054636" lon="9.5249004"><ele>831.0</ele><time>2026-05-02T07:56:52.192Z</time></trkpt><trkpt lat="40.1053018" lon="9.524885"><ele>831.0</ele><time>2026-05-02T07:56:53.192Z</time></trkpt><trkpt lat="40.10516" lon="9.5248756"><ele>831.0</ele><time>2026-05-02T07:56:54.193Z</time></trkpt><trkpt lat="40.1050454" lon="9.5248519"><ele>831.0</ele><time>2026-05-02T07:56:55.193Z</time></trkpt><trkpt lat="40.1049482" lon="9.5247969"><ele>831.0</ele><time>2026-05-02T07:56:56.193Z</time></trkpt><trkpt lat="40.1048715" lon="9.5247046"><ele>827.75</ele><time>2026-05-02T07:56:57.192Z</time></trkpt><trkpt lat="40.1048265" lon="9.5245782"><ele>824.5</ele><time>2026-05-02T07:56:58.192Z</time></trkpt><trkpt lat="40.1048164" lon="9.5244324"><ele>821.25</ele><time>2026-05-02T07:56:59.192Z</time></trkpt><trkpt lat="40.1048428" lon="9.5242774"><ele>818.0</ele><time>2026-05-02T07:57:00.193Z</time></trkpt><trkpt lat="40.1048887" lon="9.5241364"><ele>819.2</ele><time>2026-05-02T07:57:01.192Z</time></trkpt><trkpt lat="40.1049369" lon="9.5240227"><ele>820.4</ele><time>2026-05-02T07:57:02.193Z</time></trkpt><trkpt lat="40.1049907" lon="9.5239269"><ele>821.6</ele><time>2026-05-02T07:57:03.192Z</time></trkpt><trkpt lat="40.1050519" lon="9.523847"><ele>822.8000000000001</ele><time>2026-05-02T07:57:04.192Z</time></trkpt><trkpt lat="40.1051258" lon="9.5237755"><ele>824.0</ele><time>2026-05-02T07:57:05.193Z</time></trkpt><trkpt lat="40.1052131" lon="9.5237061"><ele>824.0</ele><time>2026-05-02T07:57:06.192Z</time></trkpt><trkpt lat="40.1053193" lon="9.523624"><ele>824.0</ele><time>2026-05-02T07:57:07.193Z</time></trkpt><trkpt lat="40.1054386" lon="9.5235334"><ele>824.0</ele><time>2026-05-02T07:57:08.192Z</time></trkpt><trkpt lat="40.1055725" lon="9.5234355"><ele>824.0</ele><time>2026-05-02T07:57:09.193Z</time></trkpt><trkpt lat="40.1057152" lon="9.5233252"><ele>832.6666666666667</ele><time>2026-05-02T07:57:10.193Z</time></trkpt><trkpt lat="40.1058566" lon="9.5231934"><ele>841.3333333333333</ele><time>2026-05-02T07:57:11.193Z</time></trkpt><trkpt lat="40.1059833" lon="9.5230471"><ele>850.0</ele><time>2026-05-02T07:57:12.192Z</time></trkpt><trkpt lat="40.1060988" lon="9.5229051"><ele>843.3333333333333</ele><time>2026-05-02T07:57:13.193Z</time></trkpt><trkpt lat="40.1062052" lon="9.5227525"><ele>836.6666666666667</ele><time>2026-05-02T07:57:14.192Z</time></trkpt><trkpt lat="40.1062917" lon="9.5225886"><ele>830.0</ele><time>2026-05-02T07:57:15.193Z</time></trkpt><trkpt lat="40.1063657" lon="9.5224188"><ele>830.0</ele><time>2026-05-02T07:57:16.192Z</time></trkpt><trkpt lat="40.1064281" lon="9.5222469"><ele>830.0</ele><time>2026-05-02T07:57:17.193Z</time></trkpt><trkpt lat="40.1064908" lon="9.5220786"><ele>830.0</ele><time>2026-05-02T07:57:18.193Z</time></trkpt><trkpt lat="40.1065658" lon="9.5219181"><ele>830.0</ele><time>2026-05-02T07:57:19.192Z</time></trkpt><trkpt lat="40.1066627" lon="9.5217621"><ele>838.0</ele><time>2026-05-02T07:57:20.193Z</time></trkpt><trkpt lat="40.10678" lon="9.5216017"><ele>846.0</ele><time>2026-05-02T07:57:21.193Z</time></trkpt><trkpt lat="40.1069154" lon="9.5214319"><ele>854.0</ele><time>2026-05-02T07:57:22.192Z</time></trkpt><trkpt lat="40.1070645" lon="9.5212514"><ele>856.3333333333334</ele><time>2026-05-02T07:57:23.193Z</time></trkpt><trkpt lat="40.1072125" lon="9.5210754"><ele>858.6666666666667</ele><time>2026-05-02T07:57:24.192Z</time></trkpt><trkpt lat="40.1073588" lon="9.5209203"><ele>861.0</ele><time>2026-05-02T07:57:25.193Z</time></trkpt><trkpt lat="40.1075233" lon="9.5208165"><ele>861.0</ele><time>2026-05-02T07:57:26.192Z</time></trkpt><trkpt lat="40.1077118" lon="9.5207475"><ele>861.0</ele><time>2026-05-02T07:57:27.192Z</time></trkpt><trkpt lat="40.1078995" lon="9.5206748"><ele>861.0</ele><time>2026-05-02T07:57:28.192Z</time></trkpt><trkpt lat="40.1080707" lon="9.5205888"><ele>861.0</ele><time>2026-05-02T07:57:29.192Z</time></trkpt><trkpt lat="40.1082314" lon="9.5204693"><ele>861.0</ele><time>2026-05-02T07:57:30.192Z</time></trkpt><trkpt lat="40.1083805" lon="9.5203114"><ele>861.0</ele><time>2026-05-02T07:57:31.192Z</time></trkpt><trkpt lat="40.1085305" lon="9.5201257"><ele>858.6666666666667</ele><time>2026-05-02T07:57:32.192Z</time></trkpt><trkpt lat="40.1086674" lon="9.5199589"><ele>856.3333333333334</ele><time>2026-05-02T07:57:33.192Z</time></trkpt><trkpt lat="40.1087958" lon="9.5198003"><ele>854.0</ele><time>2026-05-02T07:57:34.193Z</time></trkpt><trkpt lat="40.1089228" lon="9.519644"><ele>857.6666666666667</ele><time>2026-05-02T07:57:35.193Z</time></trkpt><trkpt lat="40.1090428" lon="9.5195085"><ele>861.3333333333333</ele><time>2026-05-02T07:57:36.193Z</time></trkpt><trkpt lat="40.10917" lon="9.5193806"><ele>865.0</ele><time>2026-05-02T07:57:37.193Z</time></trkpt><trkpt lat="40.1092911" lon="9.5192665"><ele>865.0</ele><time>2026-05-02T07:57:38.193Z</time></trkpt><trkpt lat="40.1094094" lon="9.5191688"><ele>865.0</ele><time>2026-05-02T07:57:39.192Z</time></trkpt><trkpt lat="40.1095364" lon="9.5190841"><ele>865.0</ele><time>2026-05-02T07:57:40.193Z</time></trkpt><trkpt lat="40.109679" lon="9.5190153"><ele>865.0</ele><time>2026-05-02T07:57:41.193Z</time></trkpt><trkpt lat="40.1098313" lon="9.5189433"><ele>865.6666666666666</ele><time>2026-05-02T07:57:42.192Z</time></trkpt><trkpt lat="40.1099822" lon="9.5188438"><ele>866.3333333333333</ele><time>2026-05-02T07:57:43.192Z</time></trkpt><trkpt lat="40.1101258" lon="9.5187167"><ele>867.0</ele><time>2026-05-02T07:57:44.192Z</time></trkpt><trkpt lat="40.1102766" lon="9.5185672"><ele>867.0</ele><time>2026-05-02T07:57:45.192Z</time></trkpt><trkpt lat="40.110425" lon="9.5184163"><ele>867.0</ele><time>2026-05-02T07:57:46.192Z</time></trkpt><trkpt lat="40.1105467" lon="9.5182717"><ele>867.0</ele><time>2026-05-02T07:57:47.192Z</time></trkpt><trkpt lat="40.1106346" lon="9.5180992"><ele>860.3333333333333</ele><time>2026-05-02T07:57:48.193Z</time></trkpt><trkpt lat="40.1106933" lon="9.5178965"><ele>853.6666666666666</ele><time>2026-05-02T07:57:49.193Z</time></trkpt><trkpt lat="40.1107416" lon="9.5176713"><ele>847.0</ele><time>2026-05-02T07:57:50.192Z</time></trkpt><trkpt lat="40.1107986" lon="9.517445"><ele>856.6666666666666</ele><time>2026-05-02T07:57:51.193Z</time></trkpt><trkpt lat="40.1108811" lon="9.517227"><ele>866.3333333333333</ele><time>2026-05-02T07:57:52.192Z</time></trkpt><trkpt lat="40.1109832" lon="9.5170499"><ele>876.0</ele><time>2026-05-02T07:57:53.192Z</time></trkpt><trkpt lat="40.1110976" lon="9.5169185"><ele>876.0</ele><time>2026-05-02T07:57:54.192Z</time></trkpt><trkpt lat="40.1111994" lon="9.5167896"><ele>876.0</ele><time>2026-05-02T07:57:55.193Z</time></trkpt><trkpt lat="40.1112666" lon="9.5166387"><ele>876.0</ele><time>2026-05-02T07:57:56.193Z</time></trkpt><trkpt lat="40.1113143" lon="9.5164763"><ele>876.0</ele><time>2026-05-02T07:57:57.193Z</time></trkpt><trkpt lat="40.1113593" lon="9.5163165"><ele>874.0</ele><time>2026-05-02T07:57:58.192Z</time></trkpt><trkpt lat="40.1114103" lon="9.5161593"><ele>872.0</ele><time>2026-05-02T07:57:59.193Z</time></trkpt><trkpt lat="40.1114732" lon="9.5160059"><ele>870.0</ele><time>2026-05-02T07:58:00.193Z</time></trkpt><trkpt lat="40.1115472" lon="9.5158579"><ele>868.0</ele><time>2026-05-02T07:58:01.192Z</time></trkpt><trkpt lat="40.1116316" lon="9.5157077"><ele>875.5</ele><time>2026-05-02T07:58:02.192Z</time></trkpt><trkpt lat="40.1117181" lon="9.5155563"><ele>883.0</ele><time>2026-05-02T07:58:03.193Z</time></trkpt><trkpt lat="40.1118068" lon="9.515402"><ele>890.5</ele><time>2026-05-02T07:58:04.193Z</time></trkpt><trkpt lat="40.1118988" lon="9.5152524"><ele>898.0</ele><time>2026-05-02T07:58:05.192Z</time></trkpt><trkpt lat="40.1119924" lon="9.5151091"><ele>898.0</ele><time>2026-05-02T07:58:06.192Z</time></trkpt><trkpt lat="40.1120933" lon="9.5149719"><ele>898.0</ele><time>2026-05-02T07:58:07.192Z</time></trkpt><trkpt lat="40.1121968" lon="9.5148442"><ele>898.0</ele><time>2026-05-02T07:58:08.192Z</time></trkpt><trkpt lat="40.1123071" lon="9.5147252"><ele>898.0</ele><time>2026-05-02T07:58:09.193Z</time></trkpt><trkpt lat="40.1124243" lon="9.5146043"><ele>903.3333333333333</ele><time>2026-05-02T07:58:10.192Z</time></trkpt><trkpt lat="40.112553" lon="9.5144726"><ele>908.6666666666667</ele><time>2026-05-02T07:58:11.192Z</time></trkpt><trkpt lat="40.1126882" lon="9.5143312"><ele>914.0</ele><time>2026-05-02T07:58:12.193Z</time></trkpt><trkpt lat="40.1128271" lon="9.5141866"><ele>914.0</ele><time>2026-05-02T07:58:13.192Z</time></trkpt><trkpt lat="40.1129689" lon="9.514043"><ele>914.0</ele><time>2026-05-02T07:58:14.192Z</time></trkpt><trkpt lat="40.1131115" lon="9.5138972"><ele>914.0</ele><time>2026-05-02T07:58:15.193Z</time></trkpt><trkpt lat="40.1132628" lon="9.5137488"><ele>917.3333333333334</ele><time>2026-05-02T07:58:16.192Z</time></trkpt><trkpt lat="40.1134274" lon="9.5136"><ele>920.6666666666667</ele><time>2026-05-02T07:58:17.193Z</time></trkpt><trkpt lat="40.1136131" lon="9.5134555"><ele>924.0</ele><time>2026-05-02T07:58:18.192Z</time></trkpt><trkpt lat="40.1138166" lon="9.5133134"><ele>924.0</ele><time>2026-05-02T07:58:19.192Z</time></trkpt><trkpt lat="40.1140326" lon="9.5131784"><ele>924.0</ele><time>2026-05-02T07:58:20.193Z</time></trkpt><trkpt lat="40.1142462" lon="9.51305"><ele>919.0</ele><time>2026-05-02T07:58:21.192Z</time></trkpt><trkpt lat="40.1144538" lon="9.5129327"><ele>914.0</ele><time>2026-05-02T07:58:22.193Z</time></trkpt><trkpt lat="40.1146487" lon="9.5128245"><ele>909.0</ele><time>2026-05-02T07:58:23.193Z</time></trkpt><trkpt lat="40.1148414" lon="9.5127163"><ele>914.6666666666667</ele><time>2026-05-02T07:58:24.193Z</time></trkpt><trkpt lat="40.115026" lon="9.5126142"><ele>920.3333333333334</ele><time>2026-05-02T07:58:25.193Z</time></trkpt><trkpt lat="40.1152106" lon="9.5125153"><ele>926.0</ele><time>2026-05-02T07:58:26.193Z</time></trkpt><trkpt lat="40.1153904" lon="9.5124326"><ele>926.0</ele><time>2026-05-02T07:58:27.192Z</time></trkpt><trkpt lat="40.1155723" lon="9.5123614"><ele>926.0</ele><time>2026-05-02T07:58:28.193Z</time></trkpt><trkpt lat="40.1157499" lon="9.5123062"><ele>926.0</ele><time>2026-05-02T07:58:29.192Z</time></trkpt><trkpt lat="40.1159285" lon="9.5122495"><ele>921.6666666666667</ele><time>2026-05-02T07:58:30.193Z</time></trkpt><trkpt lat="40.1161011" lon="9.512179"><ele>917.3333333333333</ele><time>2026-05-02T07:58:31.193Z</time></trkpt><trkpt lat="40.1162593" lon="9.512081"><ele>913.0</ele><time>2026-05-02T07:58:32.192Z</time></trkpt><trkpt lat="40.1164023" lon="9.5119848"><ele>921.0</ele><time>2026-05-02T07:58:33.193Z</time></trkpt><trkpt lat="40.1165548" lon="9.5119267"><ele>929.0</ele><time>2026-05-02T07:58:34.193Z</time></trkpt><trkpt lat="40.1167268" lon="9.5119025"><ele>937.0</ele><time>2026-05-02T07:58:35.193Z</time></trkpt><trkpt lat="40.1169119" lon="9.5118687"><ele>937.0</ele><time>2026-05-02T07:58:36.193Z</time></trkpt><trkpt lat="40.1170958" lon="9.511796"><ele>937.0</ele><time>2026-05-02T07:58:37.192Z</time></trkpt><trkpt lat="40.1172795" lon="9.5116936"><ele>937.0</ele><time>2026-05-02T07:58:38.192Z</time></trkpt><trkpt lat="40.1174618" lon="9.5115683"><ele>930.6666666666666</ele><time>2026-05-02T07:58:39.192Z</time></trkpt><trkpt lat="40.1176485" lon="9.5114306"><ele>924.3333333333333</ele><time>2026-05-02T07:58:40.192Z</time></trkpt><trkpt lat="40.1178214" lon="9.5113023"><ele>918.0</ele><time>2026-05-02T07:58:41.193Z</time></trkpt><trkpt lat="40.1179902" lon="9.5111765"><ele>920.6666666666667</ele><time>2026-05-02T07:58:42.193Z</time></trkpt><trkpt lat="40.1181511" lon="9.5110383"><ele>923.3333333333334</ele><time>2026-05-02T07:58:43.193Z</time></trkpt><trkpt lat="40.1182953" lon="9.5108813"><ele>926.0</ele><time>2026-05-02T07:58:44.192Z</time></trkpt><trkpt lat="40.1184327" lon="9.5107148"><ele>926.0</ele><time>2026-05-02T07:58:45.193Z</time></trkpt><trkpt lat="40.1185691" lon="9.5105436"><ele>926.0</ele><time>2026-05-02T07:58:46.193Z</time></trkpt><trkpt lat="40.1187201" lon="9.5103839"><ele>926.0</ele><time>2026-05-02T07:58:47.192Z</time></trkpt><trkpt lat="40.1188918" lon="9.5102278"><ele>925.6666666666667</ele><time>2026-05-02T07:58:48.193Z</time></trkpt><trkpt lat="40.1190584" lon="9.5100864"><ele>925.3333333333333</ele><time>2026-05-02T07:58:49.193Z</time></trkpt><trkpt lat="40.1192095" lon="9.5099623"><ele>925.0</ele><time>2026-05-02T07:58:50.193Z</time></trkpt><trkpt lat="40.1193456" lon="9.5098492"><ele>925.0</ele><time>2026-05-02T07:58:51.193Z</time></trkpt><trkpt lat="40.119467" lon="9.5097659"><ele>925.0</ele><time>2026-05-02T07:58:52.192Z</time></trkpt><trkpt lat="40.119585" lon="9.5097429"><ele>925.0</ele><time>2026-05-02T07:58:53.192Z</time></trkpt><trkpt lat="40.1197069" lon="9.5097627"><ele>925.0</ele><time>2026-05-02T07:58:54.192Z</time></trkpt><trkpt lat="40.119835" lon="9.5097916"><ele>920.3333333333333</ele><time>2026-05-02T07:58:55.193Z</time></trkpt><trkpt lat="40.119987" lon="9.5097864"><ele>915.6666666666667</ele><time>2026-05-02T07:58:56.193Z</time></trkpt><trkpt lat="40.1201575" lon="9.5097468"><ele>911.0</ele><time>2026-05-02T07:58:57.193Z</time></trkpt><trkpt lat="40.1203515" lon="9.5096929"><ele>911.0</ele><time>2026-05-02T07:58:58.193Z</time></trkpt><trkpt lat="40.1205596" lon="9.5096551"><ele>911.0</ele><time>2026-05-02T07:58:59.193Z</time></trkpt><trkpt lat="40.120779" lon="9.5096355"><ele>911.0</ele><time>2026-05-02T07:59:00.193Z</time></trkpt><trkpt lat="40.120979" lon="9.5096147"><ele>909.6666666666667</ele><time>2026-05-02T07:59:01.192Z</time></trkpt><trkpt lat="40.1211683" lon="9.5095898"><ele>908.3333333333333</ele><time>2026-05-02T07:59:02.192Z</time></trkpt><trkpt lat="40.1213447" lon="9.5095691"><ele>907.0</ele><time>2026-05-02T07:59:03.192Z</time></trkpt><trkpt lat="40.1215189" lon="9.509559"><ele>927.6666666666666</ele><time>2026-05-02T07:59:04.193Z</time></trkpt><trkpt lat="40.1217019" lon="9.5095581"><ele>948.3333333333333</ele><time>2026-05-02T07:59:05.193Z</time></trkpt><trkpt lat="40.1219004" lon="9.5095621"><ele>969.0</ele><time>2026-05-02T07:59:06.193Z</time></trkpt><trkpt lat="40.1220848" lon="9.5095621"><ele>969.0</ele><time>2026-05-02T07:59:07.193Z</time></trkpt><trkpt lat="40.1222761" lon="9.5095464"><ele>969.0</ele><time>2026-05-02T07:59:08.193Z</time></trkpt><trkpt lat="40.1224718" lon="9.5095137"><ele>969.0</ele><time>2026-05-02T07:59:09.193Z</time></trkpt><trkpt lat="40.1226657" lon="9.5094755"><ele>967.3333333333333</ele><time>2026-05-02T07:59:10.192Z</time></trkpt><trkpt lat="40.1228634" lon="9.5094382"><ele>965.6666666666666</ele><time>2026-05-02T07:59:11.193Z</time></trkpt><trkpt lat="40.1230652" lon="9.509415"><ele>964.0</ele><time>2026-05-02T07:59:12.192Z</time></trkpt><trkpt lat="40.1232742" lon="9.5093913"><ele>960.6666666666666</ele><time>2026-05-02T07:59:13.192Z</time></trkpt><trkpt lat="40.1234952" lon="9.5093478"><ele>957.3333333333333</ele><time>2026-05-02T07:59:14.193Z</time></trkpt><trkpt lat="40.1237181" lon="9.5093028"><ele>954.0</ele><time>2026-05-02T07:59:15.193Z</time></trkpt><trkpt lat="40.1239257" lon="9.5092619"><ele>950.6666666666667</ele><time>2026-05-02T07:59:16.192Z</time></trkpt><trkpt lat="40.1241369" lon="9.5092058"><ele>947.3333333333334</ele><time>2026-05-02T07:59:17.193Z</time></trkpt><trkpt lat="40.1243487" lon="9.5091297"><ele>944.0</ele><time>2026-05-02T07:59:18.192Z</time></trkpt><trkpt lat="40.1245549" lon="9.5090325"><ele>944.0</ele><time>2026-05-02T07:59:19.192Z</time></trkpt><trkpt lat="40.1247375" lon="9.5089292"><ele>944.0</ele><time>2026-05-02T07:59:20.193Z</time></trkpt><trkpt lat="40.1249145" lon="9.5088444"><ele>944.0</ele><time>2026-05-02T07:59:21.193Z</time></trkpt><trkpt lat="40.1250824" lon="9.5087864"><ele>938.75</ele><time>2026-05-02T07:59:22.192Z</time></trkpt><trkpt lat="40.1252426" lon="9.5087542"><ele>933.5</ele><time>2026-05-02T07:59:23.192Z</time></trkpt><trkpt lat="40.1253922" lon="9.5087561"><ele>928.25</ele><time>2026-05-02T07:59:24.193Z</time></trkpt><trkpt lat="40.1255262" lon="9.5087499"><ele>923.0</ele><time>2026-05-02T07:59:25.193Z</time></trkpt><trkpt lat="40.1256616" lon="9.5087009"><ele>938.0</ele><time>2026-05-02T07:59:26.192Z</time></trkpt><trkpt lat="40.1258151" lon="9.5086396"><ele>953.0</ele><time>2026-05-02T07:59:27.192Z</time></trkpt><trkpt lat="40.1259832" lon="9.5085786"><ele>968.0</ele><time>2026-05-02T07:59:28.192Z</time></trkpt><trkpt lat="40.1261746" lon="9.5085081"><ele>968.0</ele><time>2026-05-02T07:59:29.193Z</time></trkpt><trkpt lat="40.126388" lon="9.5084366"><ele>968.0</ele><time>2026-05-02T07:59:30.193Z</time></trkpt><trkpt lat="40.1265941" lon="9.5083659"><ele>968.0</ele><time>2026-05-02T07:59:31.193Z</time></trkpt><trkpt lat="40.1267951" lon="9.5082721"><ele>961.0</ele><time>2026-05-02T07:59:32.192Z</time></trkpt><trkpt lat="40.1270053" lon="9.5081707"><ele>954.0</ele><time>2026-05-02T07:59:33.193Z</time></trkpt><trkpt lat="40.1272309" lon="9.5080865"><ele>945.0</ele><time>2026-05-02T07:59:34.193Z</time></trkpt><trkpt lat="40.1274671" lon="9.5080099"><ele>936.0</ele><time>2026-05-02T07:59:35.192Z</time></trkpt><trkpt lat="40.1276881" lon="9.5079376"><ele>948.0</ele><time>2026-05-02T07:59:36.192Z</time></trkpt><trkpt lat="40.1278855" lon="9.5078701"><ele>960.0</ele><time>2026-05-02T07:59:37.193Z</time></trkpt><trkpt lat="40.1280615" lon="9.5078116"><ele>972.0</ele><time>2026-05-02T07:59:38.192Z</time></trkpt><trkpt lat="40.1282292" lon="9.5077701"><ele>972.0</ele><time>2026-05-02T07:59:39.192Z</time></trkpt><trkpt lat="40.1284022" lon="9.5077497"><ele>972.0</ele><time>2026-05-02T07:59:40.193Z</time></trkpt><trkpt lat="40.1285702" lon="9.5077334"><ele>972.0</ele><time>2026-05-02T07:59:41.192Z</time></trkpt><trkpt lat="40.1287253" lon="9.5076848"><ele>972.0</ele><time>2026-05-02T07:59:42.193Z</time></trkpt><trkpt lat="40.12887" lon="9.5075982"><ele>972.0</ele><time>2026-05-02T07:59:43.192Z</time></trkpt><trkpt lat="40.1290244" lon="9.5075272"><ele>972.0</ele><time>2026-05-02T07:59:44.193Z</time></trkpt><trkpt lat="40.1292082" lon="9.5074737"><ele>966.6666666666667</ele><time>2026-05-02T07:59:45.193Z</time></trkpt><trkpt lat="40.1294213" lon="9.5074163"><ele>961.3333333333334</ele><time>2026-05-02T07:59:46.193Z</time></trkpt><trkpt lat="40.1296282" lon="9.5073571"><ele>956.0</ele><time>2026-05-02T07:59:47.192Z</time></trkpt><trkpt lat="40.1298313" lon="9.5072913"><ele>951.3333333333334</ele><time>2026-05-02T07:59:48.192Z</time></trkpt><trkpt lat="40.1300363" lon="9.5072235"><ele>946.6666666666667</ele><time>2026-05-02T07:59:49.192Z</time></trkpt><trkpt lat="40.1302349" lon="9.5071698"><ele>942.0</ele><time>2026-05-02T07:59:50.193Z</time></trkpt><trkpt lat="40.1304304" lon="9.5071337"><ele>942.0</ele><time>2026-05-02T07:59:51.193Z</time></trkpt><trkpt lat="40.1306339" lon="9.5071155"><ele>942.0</ele><time>2026-05-02T07:59:52.192Z</time></trkpt><trkpt lat="40.1308441" lon="9.5070972"><ele>942.0</ele><time>2026-05-02T07:59:53.192Z</time></trkpt><trkpt lat="40.1310511" lon="9.5071009"><ele>937.3333333333333</ele><time>2026-05-02T07:59:54.193Z</time></trkpt><trkpt lat="40.1312575" lon="9.5070854"><ele>932.6666666666666</ele><time>2026-05-02T07:59:55.192Z</time></trkpt><trkpt lat="40.1314582" lon="9.5070545"><ele>928.0</ele><time>2026-05-02T07:59:56.192Z</time></trkpt><trkpt lat="40.1316524" lon="9.5069878"><ele>947.6666666666666</ele><time>2026-05-02T07:59:57.192Z</time></trkpt><trkpt lat="40.1318542" lon="9.5069515"><ele>967.3333333333333</ele><time>2026-05-02T07:59:58.193Z</time></trkpt><trkpt lat="40.1320526" lon="9.5068969"><ele>987.0</ele><time>2026-05-02T07:59:59.193Z</time></trkpt><trkpt lat="40.1322513" lon="9.5068439"><ele>982.6666666666667</ele><time>2026-05-02T08:00:00.193Z</time></trkpt><trkpt lat="40.1324369" lon="9.5067822"><ele>978.3333333333334</ele><time>2026-05-02T08:00:01.192Z</time></trkpt><trkpt lat="40.1326409" lon="9.5067195"><ele>974.0</ele><time>2026-05-02T08:00:02.192Z</time></trkpt><trkpt lat="40.1328391" lon="9.506665"><ele>974.0</ele><time>2026-05-02T08:00:03.193Z</time></trkpt><trkpt lat="40.1330166" lon="9.5066121"><ele>974.0</ele><time>2026-05-02T08:00:04.192Z</time></trkpt><trkpt lat="40.1331914" lon="9.5066983"><ele>974.0</ele><time>2026-05-02T08:00:05.192Z</time></trkpt><trkpt lat="40.1333803" lon="9.5067212"><ele>967.3333333333334</ele><time>2026-05-02T08:00:06.192Z</time></trkpt><trkpt lat="40.1335746" lon="9.506714"><ele>960.6666666666667</ele><time>2026-05-02T08:00:07.193Z</time></trkpt><trkpt lat="40.1337678" lon="9.5067208"><ele>954.0</ele><time>2026-05-02T08:00:08.193Z</time></trkpt><trkpt lat="40.1339692" lon="9.5067477"><ele>956.0</ele><time>2026-05-02T08:00:09.193Z</time></trkpt><trkpt lat="40.1341668" lon="9.5067982"><ele>958.0</ele><time>2026-05-02T08:00:10.193Z</time></trkpt><trkpt lat="40.1343533" lon="9.5068669"><ele>960.0</ele><time>2026-05-02T08:00:11.192Z</time></trkpt><trkpt lat="40.134528" lon="9.5069278"><ele>960.0</ele><time>2026-05-02T08:00:12.193Z</time></trkpt><trkpt lat="40.1347068" lon="9.5069462"><ele>960.0</ele><time>2026-05-02T08:00:13.193Z</time></trkpt><trkpt lat="40.1348897" lon="9.5069743"><ele>960.0</ele><time>2026-05-02T08:00:14.193Z</time></trkpt><trkpt lat="40.1350702" lon="9.5069753"><ele>959.6666666666667</ele><time>2026-05-02T08:00:15.192Z</time></trkpt><trkpt lat="40.1352553" lon="9.5069474"><ele>959.3333333333334</ele><time>2026-05-02T08:00:16.192Z</time></trkpt><trkpt lat="40.1354452" lon="9.5068162"><ele>959.0</ele><time>2026-05-02T08:00:17.192Z</time></trkpt><trkpt lat="40.1356369" lon="9.5067631"><ele>954.0</ele><time>2026-05-02T08:00:18.192Z</time></trkpt><trkpt lat="40.1358445" lon="9.5067169"><ele>949.0</ele><time>2026-05-02T08:00:19.193Z</time></trkpt><trkpt lat="40.1360587" lon="9.506669"><ele>944.0</ele><time>2026-05-02T08:00:20.193Z</time></trkpt><trkpt lat="40.1362867" lon="9.5066202"><ele>944.0</ele><time>2026-05-02T08:00:21.193Z</time></trkpt><trkpt lat="40.1365192" lon="9.5065645"><ele>944.0</ele><time>2026-05-02T08:00:22.193Z</time></trkpt><trkpt lat="40.1367701" lon="9.5064966"><ele>939.5</ele><time>2026-05-02T08:00:23.192Z</time></trkpt><trkpt lat="40.1370299" lon="9.5064104"><ele>935.0</ele><time>2026-05-02T08:00:24.192Z</time></trkpt><trkpt lat="40.1373097" lon="9.5063473"><ele>927.0</ele><time>2026-05-02T08:00:25.193Z</time></trkpt><trkpt lat="40.137565" lon="9.5062856"><ele>919.0</ele><time>2026-05-02T08:00:26.193Z</time></trkpt><trkpt lat="40.1378061" lon="9.5061773"><ele>934.5</ele><time>2026-05-02T08:00:27.193Z</time></trkpt><trkpt lat="40.1380281" lon="9.5059335"><ele>950.0</ele><time>2026-05-02T08:00:28.192Z</time></trkpt><trkpt lat="40.1382685" lon="9.5058696"><ele>950.0</ele><time>2026-05-02T08:00:29.192Z</time></trkpt><trkpt lat="40.1384956" lon="9.5058017"><ele>950.0</ele><time>2026-05-02T08:00:30.192Z</time></trkpt><trkpt lat="40.138732" lon="9.5057544"><ele>950.0</ele><time>2026-05-02T08:00:31.192Z</time></trkpt><trkpt lat="40.1389716" lon="9.505737"><ele>950.0</ele><time>2026-05-02T08:00:32.193Z</time></trkpt><trkpt lat="40.1392122" lon="9.5057416"><ele>947.5</ele><time>2026-05-02T08:00:33.192Z</time></trkpt><trkpt lat="40.139457" lon="9.5057537"><ele>945.0</ele><time>2026-05-02T08:00:34.193Z</time></trkpt><trkpt lat="40.1397125" lon="9.5057656"><ele>948.5</ele><time>2026-05-02T08:00:35.193Z</time></trkpt><trkpt lat="40.1399736" lon="9.50577"><ele>952.0</ele><time>2026-05-02T08:00:36.193Z</time></trkpt><trkpt lat="40.1402343" lon="9.505785"><ele>952.0</ele><time>2026-05-02T08:00:37.193Z</time></trkpt><trkpt lat="40.1404911" lon="9.505815"><ele>952.0</ele><time>2026-05-02T08:00:38.192Z</time></trkpt><trkpt lat="40.1407366" lon="9.5058522"><ele>955.0</ele><time>2026-05-02T08:00:39.193Z</time></trkpt><trkpt lat="40.1409733" lon="9.5058886"><ele>958.0</ele><time>2026-05-02T08:00:40.193Z</time></trkpt><trkpt lat="40.1411967" lon="9.5059149"><ele>958.0</ele><time>2026-05-02T08:00:41.192Z</time></trkpt><trkpt lat="40.1414183" lon="9.5059275"><ele>958.0</ele><time>2026-05-02T08:00:42.193Z</time></trkpt><trkpt lat="40.1416302" lon="9.5059179"><ele>958.0</ele><time>2026-05-02T08:00:43.192Z</time></trkpt><trkpt lat="40.1418368" lon="9.5058656"><ele>960.5</ele><time>2026-05-02T08:00:44.192Z</time></trkpt><trkpt lat="40.1420547" lon="9.5058183"><ele>963.0</ele><time>2026-05-02T08:00:45.192Z</time></trkpt><trkpt lat="40.1422821" lon="9.5057658"><ele>959.3333333333333</ele><time>2026-05-02T08:00:46.193Z</time></trkpt><trkpt lat="40.1424968" lon="9.5057268"><ele>955.6666666666666</ele><time>2026-05-02T08:00:47.193Z</time></trkpt><trkpt lat="40.1427043" lon="9.5057045"><ele>952.0</ele><time>2026-05-02T08:00:48.193Z</time></trkpt><trkpt lat="40.1429111" lon="9.5057059"><ele>952.0</ele><time>2026-05-02T08:00:49.193Z</time></trkpt><trkpt lat="40.1431192" lon="9.5057226"><ele>952.0</ele><time>2026-05-02T08:00:50.193Z</time></trkpt><trkpt lat="40.1433318" lon="9.5057408"><ele>952.0</ele><time>2026-05-02T08:00:51.192Z</time></trkpt><trkpt lat="40.1435348" lon="9.5057391"><ele>956.6666666666666</ele><time>2026-05-02T08:00:52.192Z</time></trkpt><trkpt lat="40.1437392" lon="9.5057347"><ele>961.3333333333333</ele><time>2026-05-02T08:00:53.193Z</time></trkpt><trkpt lat="40.1438815" lon="9.5056678"><ele>966.0</ele><time>2026-05-02T08:00:54.193Z</time></trkpt><trkpt lat="40.1440812" lon="9.5056514"><ele>967.0</ele><time>2026-05-02T08:00:55.192Z</time></trkpt><trkpt lat="40.144269" lon="9.5056765"><ele>968.0</ele><time>2026-05-02T08:00:56.193Z</time></trkpt><trkpt lat="40.1444627" lon="9.5057378"><ele>969.0</ele><time>2026-05-02T08:00:57.192Z</time></trkpt><trkpt lat="40.1446525" lon="9.5058328"><ele>969.0</ele><time>2026-05-02T08:00:58.193Z</time></trkpt><trkpt lat="40.1448418" lon="9.5059486"><ele>969.0</ele><time>2026-05-02T08:00:59.193Z</time></trkpt><trkpt lat="40.1450163" lon="9.5060558"><ele>969.0</ele><time>2026-05-02T08:01:00.193Z</time></trkpt><trkpt lat="40.1451858" lon="9.5061342"><ele>975.6666666666667</ele><time>2026-05-02T08:01:01.192Z</time></trkpt><trkpt lat="40.1453672" lon="9.5061714"><ele>982.3333333333334</ele><time>2026-05-02T08:01:02.193Z</time></trkpt><trkpt lat="40.1455603" lon="9.5061824"><ele>989.0</ele><time>2026-05-02T08:01:03.193Z</time></trkpt><trkpt lat="40.1457634" lon="9.5061851"><ele>993.0</ele><time>2026-05-02T08:01:04.193Z</time></trkpt><trkpt lat="40.145976" lon="9.5061811"><ele>997.0</ele><time>2026-05-02T08:01:05.192Z</time></trkpt><trkpt lat="40.146203" lon="9.5061774"><ele>1001.0</ele><time>2026-05-02T08:01:06.192Z</time></trkpt><trkpt lat="40.1464282" lon="9.5061724"><ele>1004.6666666666667</ele><time>2026-05-02T08:01:07.192Z</time></trkpt><trkpt lat="40.1466432" lon="9.5061715"><ele>1008.3333333333333</ele><time>2026-05-02T08:01:08.193Z</time></trkpt><trkpt lat="40.146854" lon="9.5061934"><ele>1012.0</ele><time>2026-05-02T08:01:09.192Z</time></trkpt><trkpt lat="40.147068" lon="9.5062368"><ele>1002.0</ele><time>2026-05-02T08:01:10.193Z</time></trkpt><trkpt lat="40.1472803" lon="9.5062914"><ele>992.0</ele><time>2026-05-02T08:01:11.193Z</time></trkpt><trkpt lat="40.147497" lon="9.5063697"><ele>982.0</ele><time>2026-05-02T08:01:12.192Z</time></trkpt><trkpt lat="40.1477199" lon="9.5064592"><ele>982.0</ele><time>2026-05-02T08:01:13.192Z</time></trkpt><trkpt lat="40.1479482" lon="9.5065293"><ele>982.0</ele><time>2026-05-02T08:01:14.193Z</time></trkpt><trkpt lat="40.148178" lon="9.5065921"><ele>989.5</ele><time>2026-05-02T08:01:15.193Z</time></trkpt><trkpt lat="40.1484075" lon="9.5066457"><ele>997.0</ele><time>2026-05-02T08:01:16.193Z</time></trkpt><trkpt lat="40.1486385" lon="9.5066991"><ele>997.0</ele><time>2026-05-02T08:01:17.192Z</time></trkpt><trkpt lat="40.1488698" lon="9.5067457"><ele>997.0</ele><time>2026-05-02T08:01:18.192Z</time></trkpt><trkpt lat="40.1491027" lon="9.5067804"><ele>1005.0</ele><time>2026-05-02T08:01:19.193Z</time></trkpt><trkpt lat="40.1493313" lon="9.506813"><ele>1013.0</ele><time>2026-05-02T08:01:20.192Z</time></trkpt><trkpt lat="40.1495541" lon="9.506855"><ele>1013.0</ele><time>2026-05-02T08:01:21.192Z</time></trkpt><trkpt lat="40.1497692" lon="9.5069231"><ele>1013.0</ele><time>2026-05-02T08:01:22.192Z</time></trkpt><trkpt lat="40.1499766" lon="9.5070107"><ele>1013.0</ele><time>2026-05-02T08:01:23.193Z</time></trkpt><trkpt lat="40.1501805" lon="9.5071095"><ele>1010.6666666666667</ele><time>2026-05-02T08:01:24.192Z</time></trkpt><trkpt lat="40.15038" lon="9.507212"><ele>1008.3333333333333</ele><time>2026-05-02T08:01:25.193Z</time></trkpt><trkpt lat="40.1505794" lon="9.5073086"><ele>1006.0</ele><time>2026-05-02T08:01:26.192Z</time></trkpt><trkpt lat="40.1507856" lon="9.5073816"><ele>1006.0</ele><time>2026-05-02T08:01:27.192Z</time></trkpt><trkpt lat="40.1509972" lon="9.5074247"><ele>1006.0</ele><time>2026-05-02T08:01:28.192Z</time></trkpt><trkpt lat="40.1512122" lon="9.507448"><ele>1006.0</ele><time>2026-05-02T08:01:29.192Z</time></trkpt><trkpt lat="40.151428" lon="9.5074544"><ele>1007.6666666666666</ele><time>2026-05-02T08:01:30.192Z</time></trkpt><trkpt lat="40.1516401" lon="9.5074467"><ele>1009.3333333333333</ele><time>2026-05-02T08:01:31.193Z</time></trkpt><trkpt lat="40.1518535" lon="9.5074419"><ele>1011.0</ele><time>2026-05-02T08:01:32.192Z</time></trkpt><trkpt lat="40.1520654" lon="9.507453"><ele>1011.0</ele><time>2026-05-02T08:01:33.193Z</time></trkpt><trkpt lat="40.152278" lon="9.5074823"><ele>1011.0</ele><time>2026-05-02T08:01:34.192Z</time></trkpt><trkpt lat="40.1524935" lon="9.5075303"><ele>1011.0</ele><time>2026-05-02T08:01:35.193Z</time></trkpt><trkpt lat="40.1527079" lon="9.5075965"><ele>1013.3333333333333</ele><time>2026-05-02T08:01:36.192Z</time></trkpt><trkpt lat="40.1529185" lon="9.5076728"><ele>1015.6666666666666</ele><time>2026-05-02T08:01:37.192Z</time></trkpt><trkpt lat="40.1531183" lon="9.5077316"><ele>1018.0</ele><time>2026-05-02T08:01:38.193Z</time></trkpt><trkpt lat="40.1533165" lon="9.5077637"><ele>1020.3333333333333</ele><time>2026-05-02T08:01:39.192Z</time></trkpt><trkpt lat="40.1535179" lon="9.5077623"><ele>1022.6666666666667</ele><time>2026-05-02T08:01:40.193Z</time></trkpt><trkpt lat="40.1537246" lon="9.5077343"><ele>1025.0</ele><time>2026-05-02T08:01:41.192Z</time></trkpt><trkpt lat="40.153934" lon="9.5076812"><ele>1025.3333333333335</ele><time>2026-05-02T08:01:42.192Z</time></trkpt><trkpt lat="40.1541421" lon="9.507609"><ele>1025.6666666666667</ele><time>2026-05-02T08:01:43.193Z</time></trkpt><trkpt lat="40.1543585" lon="9.5075283"><ele>1026.0</ele><time>2026-05-02T08:01:44.193Z</time></trkpt><trkpt lat="40.1545867" lon="9.5074444"><ele>1026.0</ele><time>2026-05-02T08:01:45.192Z</time></trkpt><trkpt lat="40.1548152" lon="9.5073612"><ele>1026.0</ele><time>2026-05-02T08:01:46.193Z</time></trkpt><trkpt lat="40.1550339" lon="9.5072981"><ele>1022.0</ele><time>2026-05-02T08:01:47.193Z</time></trkpt><trkpt lat="40.1552555" lon="9.5072574"><ele>1018.0</ele><time>2026-05-02T08:01:48.193Z</time></trkpt><trkpt lat="40.1554785" lon="9.5072377"><ele>1014.0</ele><time>2026-05-02T08:01:49.192Z</time></trkpt><trkpt lat="40.1557051" lon="9.5072265"><ele>1012.0</ele><time>2026-05-02T08:01:50.192Z</time></trkpt><trkpt lat="40.1559318" lon="9.5071958"><ele>1010.0</ele><time>2026-05-02T08:01:51.193Z</time></trkpt><trkpt lat="40.1561457" lon="9.5071295"><ele>1008.0</ele><time>2026-05-02T08:01:52.192Z</time></trkpt><trkpt lat="40.1563484" lon="9.5070536"><ele>1015.3333333333333</ele><time>2026-05-02T08:01:53.192Z</time></trkpt><trkpt lat="40.1565465" lon="9.5069968"><ele>1022.6666666666666</ele><time>2026-05-02T08:01:54.192Z</time></trkpt><trkpt lat="40.1567422" lon="9.5069794"><ele>1030.0</ele><time>2026-05-02T08:01:55.192Z</time></trkpt><trkpt lat="40.1569303" lon="9.5069935"><ele>1030.0</ele><time>2026-05-02T08:01:56.192Z</time></trkpt><trkpt lat="40.1571186" lon="9.5070368"><ele>1030.0</ele><time>2026-05-02T08:01:57.192Z</time></trkpt><trkpt lat="40.1573113" lon="9.5070971"><ele>1030.0</ele><time>2026-05-02T08:01:58.193Z</time></trkpt><trkpt lat="40.1574817" lon="9.507153"><ele>1023.75</ele><time>2026-05-02T08:01:59.192Z</time></trkpt><trkpt lat="40.1576345" lon="9.5072029"><ele>1017.5</ele><time>2026-05-02T08:02:00.192Z</time></trkpt><trkpt lat="40.1577729" lon="9.5072512"><ele>1011.25</ele><time>2026-05-02T08:02:01.193Z</time></trkpt><trkpt lat="40.1578991" lon="9.5073053"><ele>1005.0</ele><time>2026-05-02T08:02:02.193Z</time></trkpt><trkpt lat="40.1580083" lon="9.5073731"><ele>1005.0</ele><time>2026-05-02T08:02:03.193Z</time></trkpt><trkpt lat="40.1581062" lon="9.5074462"><ele>1005.0</ele><time>2026-05-02T08:02:04.193Z</time></trkpt><trkpt lat="40.1581908" lon="9.507521"><ele>1005.0</ele><time>2026-05-02T08:02:05.192Z</time></trkpt><trkpt lat="40.1582628" lon="9.5075897"><ele>1005.0</ele><time>2026-05-02T08:02:06.193Z</time></trkpt><trkpt lat="40.158321" lon="9.5076498"><ele>1005.0</ele><time>2026-05-02T08:02:07.193Z</time></trkpt><trkpt lat="40.1584068" lon="9.507734"><ele>1005.1428571428573</ele><time>2026-05-02T08:02:09.192Z</time></trkpt><trkpt lat="40.1584696" lon="9.5078007"><ele>1005.2857142857143</ele><time>2026-05-02T08:02:12.193Z</time></trkpt><trkpt lat="40.1585205" lon="9.5078654"><ele>1005.4285714285716</ele><time>2026-05-02T08:02:16.192Z</time></trkpt><trkpt lat="40.1585863" lon="9.5078821"><ele>1005.5714285714287</ele><time>2026-05-02T08:02:19.192Z</time></trkpt><trkpt lat="40.1586568" lon="9.5078437"><ele>1005.7142857142858</ele><time>2026-05-02T08:02:27.193Z</time></trkpt><trkpt lat="40.1585958" lon="9.5078958"><ele>1005.8571428571429</ele><time>2026-05-02T08:03:46.192Z</time></trkpt><trkpt lat="40.1585601" lon="9.5079695"><ele>1006.0</ele><time>2026-05-02T08:03:52.192Z</time></trkpt><trkpt lat="40.1585084" lon="9.508054"><ele>1006.0</ele><time>2026-05-02T08:03:58.135Z</time></trkpt><trkpt lat="40.1584495" lon="9.5081069"><ele>1006.0000000000001</ele><time>2026-05-02T08:04:03.193Z</time></trkpt><trkpt lat="40.1583889" lon="9.5081339"><ele>1006.0</ele><time>2026-05-02T08:04:09.192Z</time></trkpt><trkpt lat="40.1583458" lon="9.508213"><ele>1006.0</ele><time>2026-05-02T08:04:15.193Z</time></trkpt><trkpt lat="40.158286" lon="9.5082665"><ele>1006.0000000000001</ele><time>2026-05-02T08:04:21.193Z</time></trkpt><trkpt lat="40.1582324" lon="9.5083242"><ele>1006.0</ele><time>2026-05-02T08:04:27.192Z</time></trkpt><trkpt lat="40.1582917" lon="9.5082851"><ele>1006.0</ele><time>2026-05-02T08:19:00.192Z</time></trkpt><trkpt lat="40.1583407" lon="9.5082303"><ele>1006.0</ele><time>2026-05-02T08:19:24.192Z</time></trkpt><trkpt lat="40.1582821" lon="9.5082604"><ele>1006.0000000000001</ele><time>2026-05-02T08:20:46.192Z</time></trkpt><trkpt lat="40.1582242" lon="9.5082931"><ele>1006.0</ele><time>2026-05-02T08:21:06.193Z</time></trkpt><trkpt lat="40.1582923" lon="9.5082708"><ele>1006.0</ele><time>2026-05-02T08:22:46.193Z</time></trkpt><trkpt lat="40.1583546" lon="9.508206"><ele>1006.0000000000001</ele><time>2026-05-02T08:22:51.193Z</time></trkpt><trkpt lat="40.1584067" lon="9.5081584"><ele>1006.0</ele><time>2026-05-02T08:22:56.192Z</time></trkpt><trkpt lat="40.158465" lon="9.5080779"><ele>1006.0</ele><time>2026-05-02T08:23:03.193Z</time></trkpt><trkpt lat="40.1584664" lon="9.507995"><ele>1006.0</ele><time>2026-05-02T08:23:13.164Z</time></trkpt><trkpt lat="40.1585278" lon="9.5079487"><ele>1006.0000000000001</ele><time>2026-05-02T08:23:17.192Z</time></trkpt><trkpt lat="40.1585876" lon="9.5079062"><ele>1006.0</ele><time>2026-05-02T08:23:21.198Z</time></trkpt><trkpt lat="40.1586454" lon="9.5078547"><ele>1006.0</ele><time>2026-05-02T08:23:26.192Z</time></trkpt><trkpt lat="40.1586973" lon="9.5078076"><ele>1006.0000000000001</ele><time>2026-05-02T08:23:32.193Z</time></trkpt><trkpt lat="40.1586524" lon="9.5078742"><ele>1006.0</ele><time>2026-05-02T08:36:33.192Z</time></trkpt><trkpt lat="40.15867" lon="9.5080104"><ele>1006.0</ele><time>2026-05-02T08:36:39.192Z</time></trkpt><trkpt lat="40.1587566" lon="9.5081266"><ele>1006.0</ele><time>2026-05-02T08:36:41.193Z</time></trkpt><trkpt lat="40.1588173" lon="9.5081851"><ele>1005.9999999999999</ele><time>2026-05-02T08:36:42.192Z</time></trkpt><trkpt lat="40.1588926" lon="9.5082456"><ele>1005.9999999999999</ele><time>2026-05-02T08:36:43.192Z</time></trkpt><trkpt lat="40.1589726" lon="9.5083162"><ele>1006.0</ele><time>2026-05-02T08:36:44.192Z</time></trkpt><trkpt lat="40.1590647" lon="9.5084027"><ele>1006.0</ele><time>2026-05-02T08:36:45.193Z</time></trkpt><trkpt lat="40.1591709" lon="9.5084929"><ele>1005.3333333333333</ele><time>2026-05-02T08:36:46.193Z</time></trkpt><trkpt lat="40.1593041" lon="9.5085602"><ele>1004.6666666666667</ele><time>2026-05-02T08:36:47.193Z</time></trkpt><trkpt lat="40.1594547" lon="9.5086111"><ele>1004.0</ele><time>2026-05-02T08:36:48.193Z</time></trkpt><trkpt lat="40.1596093" lon="9.5086529"><ele>1004.0</ele><time>2026-05-02T08:36:49.193Z</time></trkpt><trkpt lat="40.1597596" lon="9.5086952"><ele>1004.0</ele><time>2026-05-02T08:36:50.193Z</time></trkpt><trkpt lat="40.1598975" lon="9.5087419"><ele>1004.0</ele><time>2026-05-02T08:36:51.193Z</time></trkpt><trkpt lat="40.1600251" lon="9.5088044"><ele>1004.0</ele><time>2026-05-02T08:36:52.193Z</time></trkpt><trkpt lat="40.160134" lon="9.5088909"><ele>1005.25</ele><time>2026-05-02T08:36:53.193Z</time></trkpt><trkpt lat="40.1602276" lon="9.5089862"><ele>1006.5</ele><time>2026-05-02T08:36:54.192Z</time></trkpt><trkpt lat="40.1603184" lon="9.5090884"><ele>1007.75</ele><time>2026-05-02T08:36:55.193Z</time></trkpt><trkpt lat="40.1604175" lon="9.5091911"><ele>1009.0</ele><time>2026-05-02T08:36:56.193Z</time></trkpt><trkpt lat="40.1605232" lon="9.5092782"><ele>1009.0</ele><time>2026-05-02T08:36:57.192Z</time></trkpt><trkpt lat="40.160633" lon="9.509349"><ele>1009.0</ele><time>2026-05-02T08:36:58.193Z</time></trkpt><trkpt lat="40.1607506" lon="9.5094043"><ele>1009.0</ele><time>2026-05-02T08:36:59.192Z</time></trkpt><trkpt lat="40.1608664" lon="9.5094395"><ele>1009.0</ele><time>2026-05-02T08:37:00.193Z</time></trkpt><trkpt lat="40.1609814" lon="9.5094624"><ele>1009.25</ele><time>2026-05-02T08:37:01.193Z</time></trkpt><trkpt lat="40.1610951" lon="9.5094743"><ele>1009.5</ele><time>2026-05-02T08:37:02.193Z</time></trkpt><trkpt lat="40.1612109" lon="9.509494"><ele>1009.75</ele><time>2026-05-02T08:37:03.193Z</time></trkpt><trkpt lat="40.1613187" lon="9.5095429"><ele>1010.0</ele><time>2026-05-02T08:37:04.193Z</time></trkpt><trkpt lat="40.1614147" lon="9.5096262"><ele>1010.0</ele><time>2026-05-02T08:37:05.192Z</time></trkpt><trkpt lat="40.1614973" lon="9.5097395"><ele>1010.0</ele><time>2026-05-02T08:37:06.192Z</time></trkpt><trkpt lat="40.1615707" lon="9.5098728"><ele>1010.0</ele><time>2026-05-02T08:37:07.192Z</time></trkpt><trkpt lat="40.1616351" lon="9.5100239"><ele>1010.0</ele><time>2026-05-02T08:37:08.193Z</time></trkpt><trkpt lat="40.1616859" lon="9.5101906"><ele>1004.75</ele><time>2026-05-02T08:37:09.193Z</time></trkpt><trkpt lat="40.1617279" lon="9.510367"><ele>999.5</ele><time>2026-05-02T08:37:10.192Z</time></trkpt><trkpt lat="40.1617714" lon="9.5105482"><ele>994.25</ele><time>2026-05-02T08:37:11.192Z</time></trkpt><trkpt lat="40.1618144" lon="9.5107256"><ele>989.0</ele><time>2026-05-02T08:37:12.193Z</time></trkpt><trkpt lat="40.1618587" lon="9.5109005"><ele>989.0</ele><time>2026-05-02T08:37:13.192Z</time></trkpt><trkpt lat="40.1618985" lon="9.5110713"><ele>989.0</ele><time>2026-05-02T08:37:14.193Z</time></trkpt><trkpt lat="40.1619372" lon="9.5112386"><ele>989.0</ele><time>2026-05-02T08:37:15.193Z</time></trkpt><trkpt lat="40.1619732" lon="9.5113984"><ele>989.0</ele><time>2026-05-02T08:37:16.193Z</time></trkpt><trkpt lat="40.162009" lon="9.5115493"><ele>987.0</ele><time>2026-05-02T08:37:17.192Z</time></trkpt><trkpt lat="40.1620414" lon="9.5116928"><ele>985.0000000000001</ele><time>2026-05-02T08:37:18.193Z</time></trkpt><trkpt lat="40.1620747" lon="9.5118302"><ele>983.0000000000001</ele><time>2026-05-02T08:37:19.193Z</time></trkpt><trkpt lat="40.1621016" lon="9.5119674"><ele>981.0</ele><time>2026-05-02T08:37:20.192Z</time></trkpt><trkpt lat="40.1621122" lon="9.512106"><ele>979.0</ele><time>2026-05-02T08:37:21.193Z</time></trkpt><trkpt lat="40.1621003" lon="9.5122459"><ele>978.0</ele><time>2026-05-02T08:37:22.193Z</time></trkpt><trkpt lat="40.1620663" lon="9.5123908"><ele>977.0</ele><time>2026-05-02T08:37:23.192Z</time></trkpt><trkpt lat="40.1620121" lon="9.5125252"><ele>976.0</ele><time>2026-05-02T08:37:24.193Z</time></trkpt><trkpt lat="40.1619402" lon="9.5126417"><ele>975.0</ele><time>2026-05-02T08:37:25.192Z</time></trkpt><trkpt lat="40.1618562" lon="9.5127533"><ele>975.0</ele><time>2026-05-02T08:37:26.192Z</time></trkpt><trkpt lat="40.1617728" lon="9.5128737"><ele>975.0</ele><time>2026-05-02T08:37:27.192Z</time></trkpt><trkpt lat="40.1616889" lon="9.5130018"><ele>975.0</ele><time>2026-05-02T08:37:28.193Z</time></trkpt><trkpt lat="40.1615986" lon="9.5131334"><ele>975.0</ele><time>2026-05-02T08:37:29.192Z</time></trkpt><trkpt lat="40.1615035" lon="9.5132704"><ele>971.0</ele><time>2026-05-02T08:37:30.193Z</time></trkpt><trkpt lat="40.1614035" lon="9.5134136"><ele>967.0</ele><time>2026-05-02T08:37:31.193Z</time></trkpt><trkpt lat="40.161301" lon="9.5135642"><ele>963.0</ele><time>2026-05-02T08:37:32.192Z</time></trkpt><trkpt lat="40.1611938" lon="9.5137205"><ele>967.6666666666667</ele><time>2026-05-02T08:37:33.192Z</time></trkpt><trkpt lat="40.1610895" lon="9.5138712"><ele>972.3333333333334</ele><time>2026-05-02T08:37:34.192Z</time></trkpt><trkpt lat="40.1609805" lon="9.5140238"><ele>977.0</ele><time>2026-05-02T08:37:35.192Z</time></trkpt><trkpt lat="40.1608601" lon="9.5141565"><ele>977.0</ele><time>2026-05-02T08:37:36.193Z</time></trkpt><trkpt lat="40.1607327" lon="9.5142597"><ele>977.0</ele><time>2026-05-02T08:37:37.193Z</time></trkpt><trkpt lat="40.1605987" lon="9.5143487"><ele>977.0</ele><time>2026-05-02T08:37:38.192Z</time></trkpt><trkpt lat="40.1604605" lon="9.5144444"><ele>977.0</ele><time>2026-05-02T08:37:39.193Z</time></trkpt><trkpt lat="40.1603229" lon="9.5145557"><ele>977.0</ele><time>2026-05-02T08:37:40.193Z</time></trkpt><trkpt lat="40.1601873" lon="9.514687"><ele>977.0</ele><time>2026-05-02T08:37:41.193Z</time></trkpt><trkpt lat="40.160054" lon="9.5148371"><ele>977.0</ele><time>2026-05-02T08:37:42.192Z</time></trkpt><trkpt lat="40.1599208" lon="9.5149983"><ele>977.0</ele><time>2026-05-02T08:37:43.192Z</time></trkpt><trkpt lat="40.1597855" lon="9.5151622"><ele>977.0</ele><time>2026-05-02T08:37:44.192Z</time></trkpt><trkpt lat="40.1596508" lon="9.5153124"><ele>977.6666666666667</ele><time>2026-05-02T08:37:45.193Z</time></trkpt><trkpt lat="40.15951" lon="9.5154401"><ele>978.3333333333333</ele><time>2026-05-02T08:37:46.192Z</time></trkpt><trkpt lat="40.1593615" lon="9.5155438"><ele>979.0</ele><time>2026-05-02T08:37:47.193Z</time></trkpt><trkpt lat="40.1592028" lon="9.5156249"><ele>979.0</ele><time>2026-05-02T08:37:48.193Z</time></trkpt><trkpt lat="40.15904" lon="9.5157018"><ele>979.0</ele><time>2026-05-02T08:37:49.192Z</time></trkpt><trkpt lat="40.1588834" lon="9.5157842"><ele>979.0</ele><time>2026-05-02T08:37:50.192Z</time></trkpt><trkpt lat="40.158738" lon="9.5158781"><ele>976.25</ele><time>2026-05-02T08:37:51.193Z</time></trkpt><trkpt lat="40.1586114" lon="9.5159857"><ele>973.5</ele><time>2026-05-02T08:37:52.192Z</time></trkpt><trkpt lat="40.1585061" lon="9.5161112"><ele>970.75</ele><time>2026-05-02T08:37:53.193Z</time></trkpt><trkpt lat="40.1584237" lon="9.5162565"><ele>968.0</ele><time>2026-05-02T08:37:54.192Z</time></trkpt><trkpt lat="40.1583646" lon="9.51641"><ele>968.0</ele><time>2026-05-02T08:37:55.193Z</time></trkpt><trkpt lat="40.158316" lon="9.5165644"><ele>968.0</ele><time>2026-05-02T08:37:56.193Z</time></trkpt><trkpt lat="40.1582754" lon="9.5167256"><ele>968.0</ele><time>2026-05-02T08:37:57.192Z</time></trkpt><trkpt lat="40.1582566" lon="9.5168951"><ele>968.0</ele><time>2026-05-02T08:37:58.192Z</time></trkpt><trkpt lat="40.1582641" lon="9.5170707"><ele>967.75</ele><time>2026-05-02T08:37:59.192Z</time></trkpt><trkpt lat="40.1582869" lon="9.5172545"><ele>967.5</ele><time>2026-05-02T08:38:00.193Z</time></trkpt><trkpt lat="40.1583148" lon="9.5174467"><ele>967.25</ele><time>2026-05-02T08:38:01.193Z</time></trkpt><trkpt lat="40.1583507" lon="9.5176457"><ele>967.0</ele><time>2026-05-02T08:38:02.192Z</time></trkpt><trkpt lat="40.1583927" lon="9.5178539"><ele>963.0</ele><time>2026-05-02T08:38:03.192Z</time></trkpt><trkpt lat="40.1584485" lon="9.5180659"><ele>959.0</ele><time>2026-05-02T08:38:04.193Z</time></trkpt><trkpt lat="40.1585101" lon="9.5182751"><ele>955.0</ele><time>2026-05-02T08:38:05.193Z</time></trkpt><trkpt lat="40.1585709" lon="9.5184659"><ele>955.0</ele><time>2026-05-02T08:38:06.192Z</time></trkpt><trkpt lat="40.1586453" lon="9.5186367"><ele>955.0</ele><time>2026-05-02T08:38:07.192Z</time></trkpt><trkpt lat="40.1587495" lon="9.5187817"><ele>955.0</ele><time>2026-05-02T08:38:08.192Z</time></trkpt><trkpt lat="40.1588718" lon="9.5189105"><ele>958.3333333333333</ele><time>2026-05-02T08:38:09.193Z</time></trkpt><trkpt lat="40.1590067" lon="9.5190346"><ele>961.6666666666667</ele><time>2026-05-02T08:38:10.193Z</time></trkpt><trkpt lat="40.1591457" lon="9.5191582"><ele>965.0</ele><time>2026-05-02T08:38:11.192Z</time></trkpt><trkpt lat="40.1592832" lon="9.5192734"><ele>965.0</ele><time>2026-05-02T08:38:12.193Z</time></trkpt><trkpt lat="40.1594229" lon="9.5193703"><ele>965.0</ele><time>2026-05-02T08:38:13.193Z</time></trkpt><trkpt lat="40.1595714" lon="9.5194373"><ele>965.0</ele><time>2026-05-02T08:38:14.193Z</time></trkpt><trkpt lat="40.1597249" lon="9.5194722"><ele>970.0</ele><time>2026-05-02T08:38:15.192Z</time></trkpt><trkpt lat="40.1598823" lon="9.5194778"><ele>975.0</ele><time>2026-05-02T08:38:16.193Z</time></trkpt><trkpt lat="40.1600401" lon="9.5194705"><ele>980.0</ele><time>2026-05-02T08:38:17.193Z</time></trkpt><trkpt lat="40.1601988" lon="9.5194658"><ele>980.0</ele><time>2026-05-02T08:38:18.192Z</time></trkpt><trkpt lat="40.1603596" lon="9.5194621"><ele>980.0</ele><time>2026-05-02T08:38:19.193Z</time></trkpt><trkpt lat="40.160525" lon="9.5194556"><ele>980.0</ele><time>2026-05-02T08:38:20.193Z</time></trkpt><trkpt lat="40.1606956" lon="9.5194475"><ele>979.3333333333334</ele><time>2026-05-02T08:38:21.192Z</time></trkpt><trkpt lat="40.1608721" lon="9.5194409"><ele>978.6666666666667</ele><time>2026-05-02T08:38:22.193Z</time></trkpt><trkpt lat="40.1610535" lon="9.5194341"><ele>978.0</ele><time>2026-05-02T08:38:23.192Z</time></trkpt><trkpt lat="40.1612382" lon="9.5194283"><ele>978.0</ele><time>2026-05-02T08:38:24.192Z</time></trkpt><trkpt lat="40.1614237" lon="9.5194207"><ele>978.0</ele><time>2026-05-02T08:38:25.193Z</time></trkpt><trkpt lat="40.1616152" lon="9.5194098"><ele>978.0</ele><time>2026-05-02T08:38:26.192Z</time></trkpt><trkpt lat="40.1618028" lon="9.5193996"><ele>976.0</ele><time>2026-05-02T08:38:27.192Z</time></trkpt><trkpt lat="40.1619787" lon="9.5193886"><ele>974.0</ele><time>2026-05-02T08:38:28.192Z</time></trkpt><trkpt lat="40.1621394" lon="9.5194026"><ele>972.0</ele><time>2026-05-02T08:38:29.193Z</time></trkpt><trkpt lat="40.1622821" lon="9.5194682"><ele>968.75</ele><time>2026-05-02T08:38:30.192Z</time></trkpt><trkpt lat="40.1624046" lon="9.5195732"><ele>965.5</ele><time>2026-05-02T08:38:31.193Z</time></trkpt><trkpt lat="40.1624933" lon="9.5197098"><ele>962.25</ele><time>2026-05-02T08:38:32.192Z</time></trkpt><trkpt lat="40.1625337" lon="9.5198684"><ele>959.0</ele><time>2026-05-02T08:38:33.192Z</time></trkpt><trkpt lat="40.1625257" lon="9.5200292"><ele>959.0</ele><time>2026-05-02T08:38:34.193Z</time></trkpt><trkpt lat="40.1624828" lon="9.5201966"><ele>959.0</ele><time>2026-05-02T08:38:35.193Z</time></trkpt><trkpt lat="40.1624274" lon="9.5203798"><ele>959.0</ele><time>2026-05-02T08:38:36.192Z</time></trkpt><trkpt lat="40.1623569" lon="9.5205822"><ele>948.3333333333334</ele><time>2026-05-02T08:38:37.192Z</time></trkpt><trkpt lat="40.1622713" lon="9.5207929"><ele>937.6666666666667</ele><time>2026-05-02T08:38:38.193Z</time></trkpt><trkpt lat="40.1621783" lon="9.5209996"><ele>927.0</ele><time>2026-05-02T08:38:39.192Z</time></trkpt><trkpt lat="40.1620987" lon="9.5212001"><ele>927.3333333333333</ele><time>2026-05-02T08:38:40.193Z</time></trkpt><trkpt lat="40.1620427" lon="9.5214015"><ele>927.6666666666666</ele><time>2026-05-02T08:38:41.192Z</time></trkpt><trkpt lat="40.1620281" lon="9.5216056"><ele>928.0</ele><time>2026-05-02T08:38:42.192Z</time></trkpt><trkpt lat="40.1620522" lon="9.5218042"><ele>928.0</ele><time>2026-05-02T08:38:43.193Z</time></trkpt><trkpt lat="40.1620878" lon="9.5219971"><ele>928.0</ele><time>2026-05-02T08:38:44.193Z</time></trkpt><trkpt lat="40.1620998" lon="9.5221866"><ele>928.0</ele><time>2026-05-02T08:38:45.192Z</time></trkpt><trkpt lat="40.1620726" lon="9.5223679"><ele>928.0</ele><time>2026-05-02T08:38:46.192Z</time></trkpt><trkpt lat="40.1620101" lon="9.5225403"><ele>928.3333333333333</ele><time>2026-05-02T08:38:47.192Z</time></trkpt><trkpt lat="40.1619423" lon="9.5227169"><ele>928.6666666666667</ele><time>2026-05-02T08:38:48.193Z</time></trkpt><trkpt lat="40.1618747" lon="9.5229044"><ele>929.0</ele><time>2026-05-02T08:38:49.193Z</time></trkpt><trkpt lat="40.1618251" lon="9.5230821"><ele>928.25</ele><time>2026-05-02T08:38:50.193Z</time></trkpt><trkpt lat="40.1618145" lon="9.523262"><ele>927.5</ele><time>2026-05-02T08:38:51.192Z</time></trkpt><trkpt lat="40.161846" lon="9.5234467"><ele>926.75</ele><time>2026-05-02T08:38:52.192Z</time></trkpt><trkpt lat="40.1619101" lon="9.5236296"><ele>926.0</ele><time>2026-05-02T08:38:53.193Z</time></trkpt><trkpt lat="40.1619776" lon="9.5238201"><ele>926.0</ele><time>2026-05-02T08:38:54.193Z</time></trkpt><trkpt lat="40.1620201" lon="9.5240083"><ele>926.0</ele><time>2026-05-02T08:38:55.192Z</time></trkpt><trkpt lat="40.1620572" lon="9.5241906"><ele>926.0</ele><time>2026-05-02T08:38:56.193Z</time></trkpt><trkpt lat="40.1621264" lon="9.5243636"><ele>926.0</ele><time>2026-05-02T08:38:57.193Z</time></trkpt><trkpt lat="40.162226" lon="9.5245251"><ele>931.0</ele><time>2026-05-02T08:38:58.193Z</time></trkpt><trkpt lat="40.1623518" lon="9.5246835"><ele>936.0</ele><time>2026-05-02T08:38:59.193Z</time></trkpt><trkpt lat="40.1624828" lon="9.5248127"><ele>941.0</ele><time>2026-05-02T08:39:00.193Z</time></trkpt><trkpt lat="40.1626223" lon="9.5249129"><ele>941.0</ele><time>2026-05-02T08:39:01.192Z</time></trkpt><trkpt lat="40.1627602" lon="9.5249769"><ele>941.0</ele><time>2026-05-02T08:39:02.193Z</time></trkpt><trkpt lat="40.1628831" lon="9.5250355"><ele>941.0</ele><time>2026-05-02T08:39:03.193Z</time></trkpt><trkpt lat="40.1629731" lon="9.5251405"><ele>941.0</ele><time>2026-05-02T08:39:04.192Z</time></trkpt><trkpt lat="40.1630201" lon="9.5252733"><ele>939.5</ele><time>2026-05-02T08:39:05.193Z</time></trkpt><trkpt lat="40.1630202" lon="9.525426"><ele>938.0</ele><time>2026-05-02T08:39:06.193Z</time></trkpt><trkpt lat="40.1629752" lon="9.5255788"><ele>936.5</ele><time>2026-05-02T08:39:07.193Z</time></trkpt><trkpt lat="40.1629016" lon="9.5257495"><ele>935.0</ele><time>2026-05-02T08:39:08.193Z</time></trkpt><trkpt lat="40.1628196" lon="9.5259497"><ele>935.0</ele><time>2026-05-02T08:39:09.192Z</time></trkpt><trkpt lat="40.16274" lon="9.5261449"><ele>935.0</ele><time>2026-05-02T08:39:10.193Z</time></trkpt><trkpt lat="40.1626672" lon="9.5263262"><ele>935.0</ele><time>2026-05-02T08:39:11.193Z</time></trkpt><trkpt lat="40.1626185" lon="9.5265052"><ele>934.75</ele><time>2026-05-02T08:39:12.193Z</time></trkpt><trkpt lat="40.1626112" lon="9.5266881"><ele>934.5</ele><time>2026-05-02T08:39:13.193Z</time></trkpt><trkpt lat="40.1626434" lon="9.5268732"><ele>934.25</ele><time>2026-05-02T08:39:14.193Z</time></trkpt><trkpt lat="40.16272" lon="9.5270414"><ele>934.0</ele><time>2026-05-02T08:39:15.193Z</time></trkpt><trkpt lat="40.1628343" lon="9.5271916"><ele>934.0</ele><time>2026-05-02T08:39:16.193Z</time></trkpt><trkpt lat="40.1629737" lon="9.5273452"><ele>934.0</ele><time>2026-05-02T08:39:17.192Z</time></trkpt><trkpt lat="40.1631243" lon="9.5274956"><ele>934.0</ele><time>2026-05-02T08:39:18.192Z</time></trkpt><trkpt lat="40.1632555" lon="9.5276444"><ele>936.0</ele><time>2026-05-02T08:39:19.192Z</time></trkpt><trkpt lat="40.1633455" lon="9.5278223"><ele>938.0</ele><time>2026-05-02T08:39:20.193Z</time></trkpt><trkpt lat="40.1634034" lon="9.5280213"><ele>940.0</ele><time>2026-05-02T08:39:21.192Z</time></trkpt><trkpt lat="40.1634348" lon="9.5282133"><ele>940.0</ele><time>2026-05-02T08:39:22.192Z</time></trkpt><trkpt lat="40.1634782" lon="9.528397"><ele>940.0</ele><time>2026-05-02T08:39:23.192Z</time></trkpt><trkpt lat="40.1635598" lon="9.5285652"><ele>940.0</ele><time>2026-05-02T08:39:24.193Z</time></trkpt><trkpt lat="40.163678" lon="9.5286962"><ele>937.6666666666666</ele><time>2026-05-02T08:39:25.193Z</time></trkpt><trkpt lat="40.163829" lon="9.5287984"><ele>935.3333333333333</ele><time>2026-05-02T08:39:26.192Z</time></trkpt><trkpt lat="40.1640026" lon="9.5288729"><ele>933.0</ele><time>2026-05-02T08:39:27.192Z</time></trkpt><trkpt lat="40.1641898" lon="9.528909"><ele>933.0</ele><time>2026-05-02T08:39:28.192Z</time></trkpt><trkpt lat="40.1643795" lon="9.5289111"><ele>933.0</ele><time>2026-05-02T08:39:29.192Z</time></trkpt><trkpt lat="40.1645643" lon="9.5288988"><ele>933.0</ele><time>2026-05-02T08:39:30.193Z</time></trkpt><trkpt lat="40.1647425" lon="9.5289003"><ele>931.6666666666667</ele><time>2026-05-02T08:39:31.193Z</time></trkpt><trkpt lat="40.1649148" lon="9.5289103"><ele>930.3333333333334</ele><time>2026-05-02T08:39:32.193Z</time></trkpt><trkpt lat="40.1650852" lon="9.5289208"><ele>929.0</ele><time>2026-05-02T08:39:33.193Z</time></trkpt><trkpt lat="40.1652588" lon="9.5289031"><ele>929.0</ele><time>2026-05-02T08:39:34.192Z</time></trkpt><trkpt lat="40.1654306" lon="9.5288489"><ele>929.0</ele><time>2026-05-02T08:39:35.193Z</time></trkpt><trkpt lat="40.1655956" lon="9.528763"><ele>929.0</ele><time>2026-05-02T08:39:36.192Z</time></trkpt><trkpt lat="40.1657559" lon="9.528657"><ele>932.3333333333334</ele><time>2026-05-02T08:39:37.192Z</time></trkpt><trkpt lat="40.1659118" lon="9.5285532"><ele>935.6666666666667</ele><time>2026-05-02T08:39:38.193Z</time></trkpt><trkpt lat="40.166073" lon="9.5284841"><ele>939.0</ele><time>2026-05-02T08:39:39.193Z</time></trkpt><trkpt lat="40.1662366" lon="9.5284582"><ele>939.0</ele><time>2026-05-02T08:39:40.192Z</time></trkpt><trkpt lat="40.1664009" lon="9.5284563"><ele>939.0</ele><time>2026-05-02T08:39:41.192Z</time></trkpt><trkpt lat="40.16657" lon="9.528459"><ele>939.0</ele><time>2026-05-02T08:39:42.192Z</time></trkpt><trkpt lat="40.166749" lon="9.528451"><ele>937.6666666666667</ele><time>2026-05-02T08:39:43.192Z</time></trkpt><trkpt lat="40.1669328" lon="9.528418"><ele>936.3333333333334</ele><time>2026-05-02T08:39:44.192Z</time></trkpt><trkpt lat="40.16712" lon="9.5283546"><ele>935.0</ele><time>2026-05-02T08:39:45.192Z</time></trkpt><trkpt lat="40.1672992" lon="9.5282769"><ele>932.6666666666667</ele><time>2026-05-02T08:39:46.192Z</time></trkpt><trkpt lat="40.1674776" lon="9.5281989"><ele>930.3333333333333</ele><time>2026-05-02T08:39:47.193Z</time></trkpt><trkpt lat="40.1676506" lon="9.5281238"><ele>928.0</ele><time>2026-05-02T08:39:48.193Z</time></trkpt><trkpt lat="40.1678193" lon="9.5280482"><ele>928.0</ele><time>2026-05-02T08:39:49.193Z</time></trkpt><trkpt lat="40.1679844" lon="9.5279633"><ele>928.0</ele><time>2026-05-02T08:39:50.193Z</time></trkpt><trkpt lat="40.1681431" lon="9.5278585"><ele>928.0</ele><time>2026-05-02T08:39:51.193Z</time></trkpt><trkpt lat="40.1682992" lon="9.5277338"><ele>927.6666666666666</ele><time>2026-05-02T08:39:52.192Z</time></trkpt><trkpt lat="40.1684538" lon="9.5275992"><ele>927.3333333333333</ele><time>2026-05-02T08:39:53.192Z</time></trkpt><trkpt lat="40.1686132" lon="9.5274599"><ele>927.0</ele><time>2026-05-02T08:39:54.193Z</time></trkpt><trkpt lat="40.1687788" lon="9.5273202"><ele>927.0</ele><time>2026-05-02T08:39:55.192Z</time></trkpt><trkpt lat="40.1689492" lon="9.5271781"><ele>927.0</ele><time>2026-05-02T08:39:56.192Z</time></trkpt><trkpt lat="40.1691131" lon="9.5270379"><ele>927.0</ele><time>2026-05-02T08:39:57.193Z</time></trkpt><trkpt lat="40.1692647" lon="9.5269044"><ele>926.0</ele><time>2026-05-02T08:39:58.193Z</time></trkpt><trkpt lat="40.1694015" lon="9.526772"><ele>925.0</ele><time>2026-05-02T08:39:59.192Z</time></trkpt><trkpt lat="40.1695193" lon="9.5266255"><ele>924.0</ele><time>2026-05-02T08:40:00.192Z</time></trkpt><trkpt lat="40.1696105" lon="9.5264611"><ele>924.0</ele><time>2026-05-02T08:40:01.193Z</time></trkpt><trkpt lat="40.1696797" lon="9.5262834"><ele>924.0</ele><time>2026-05-02T08:40:02.193Z</time></trkpt><trkpt lat="40.1697337" lon="9.5261085"><ele>924.0</ele><time>2026-05-02T08:40:03.193Z</time></trkpt><trkpt lat="40.1697927" lon="9.5259528"><ele>924.0</ele><time>2026-05-02T08:40:04.193Z</time></trkpt><trkpt lat="40.169878" lon="9.5258418"><ele>921.8000000000001</ele><time>2026-05-02T08:40:05.193Z</time></trkpt><trkpt lat="40.1699763" lon="9.5257933"><ele>919.6000000000001</ele><time>2026-05-02T08:40:06.192Z</time></trkpt><trkpt lat="40.1700752" lon="9.5258121"><ele>917.4</ele><time>2026-05-02T08:40:07.192Z</time></trkpt><trkpt lat="40.170169" lon="9.5258872"><ele>915.2</ele><time>2026-05-02T08:40:08.192Z</time></trkpt><trkpt lat="40.1702382" lon="9.5260088"><ele>913.0</ele><time>2026-05-02T08:40:09.193Z</time></trkpt><trkpt lat="40.1702951" lon="9.5261708"><ele>909.6666666666666</ele><time>2026-05-02T08:40:10.192Z</time></trkpt><trkpt lat="40.1703658" lon="9.5263631"><ele>906.3333333333333</ele><time>2026-05-02T08:40:11.192Z</time></trkpt><trkpt lat="40.1704532" lon="9.5265411"><ele>903.0</ele><time>2026-05-02T08:40:12.193Z</time></trkpt><trkpt lat="40.1705594" lon="9.5266927"><ele>906.3333333333333</ele><time>2026-05-02T08:40:13.192Z</time></trkpt><trkpt lat="40.1706939" lon="9.526817"><ele>909.6666666666666</ele><time>2026-05-02T08:40:14.192Z</time></trkpt><trkpt lat="40.1708534" lon="9.5269127"><ele>913.0</ele><time>2026-05-02T08:40:15.192Z</time></trkpt><trkpt lat="40.171036" lon="9.5269897"><ele>913.0</ele><time>2026-05-02T08:40:16.193Z</time></trkpt><trkpt lat="40.1712214" lon="9.5270595"><ele>913.0</ele><time>2026-05-02T08:40:17.193Z</time></trkpt><trkpt lat="40.1714025" lon="9.5271175"><ele>913.0</ele><time>2026-05-02T08:40:18.192Z</time></trkpt><trkpt lat="40.1715752" lon="9.5271562"><ele>910.0</ele><time>2026-05-02T08:40:19.193Z</time></trkpt><trkpt lat="40.1717509" lon="9.5271527"><ele>907.0</ele><time>2026-05-02T08:40:20.193Z</time></trkpt><trkpt lat="40.1719283" lon="9.5271304"><ele>904.0</ele><time>2026-05-02T08:40:21.193Z</time></trkpt><trkpt lat="40.1721053" lon="9.5270923"><ele>904.3333333333333</ele><time>2026-05-02T08:40:22.192Z</time></trkpt><trkpt lat="40.1722832" lon="9.527052"><ele>904.6666666666667</ele><time>2026-05-02T08:40:23.192Z</time></trkpt><trkpt lat="40.1724588" lon="9.5270128"><ele>905.0</ele><time>2026-05-02T08:40:24.193Z</time></trkpt><trkpt lat="40.1726278" lon="9.5269787"><ele>905.0</ele><time>2026-05-02T08:40:25.193Z</time></trkpt><trkpt lat="40.1727944" lon="9.5269442"><ele>905.0</ele><time>2026-05-02T08:40:26.192Z</time></trkpt><trkpt lat="40.172959" lon="9.5269074"><ele>905.0</ele><time>2026-05-02T08:40:27.192Z</time></trkpt><trkpt lat="40.173116" lon="9.5268708"><ele>900.3333333333334</ele><time>2026-05-02T08:40:28.192Z</time></trkpt><trkpt lat="40.1732731" lon="9.5268455"><ele>895.6666666666667</ele><time>2026-05-02T08:40:29.193Z</time></trkpt><trkpt lat="40.1734302" lon="9.5268586"><ele>891.0</ele><time>2026-05-02T08:40:30.193Z</time></trkpt><trkpt lat="40.1735904" lon="9.5268868"><ele>891.0</ele><time>2026-05-02T08:40:31.192Z</time></trkpt><trkpt lat="40.1737563" lon="9.5269303"><ele>891.0</ele><time>2026-05-02T08:40:32.192Z</time></trkpt><trkpt lat="40.1739172" lon="9.5269753"><ele>891.0</ele><time>2026-05-02T08:40:33.193Z</time></trkpt><trkpt lat="40.1740809" lon="9.5270193"><ele>899.3333333333333</ele><time>2026-05-02T08:40:34.193Z</time></trkpt><trkpt lat="40.1742487" lon="9.5270624"><ele>907.6666666666666</ele><time>2026-05-02T08:40:35.193Z</time></trkpt><trkpt lat="40.1744205" lon="9.5271038"><ele>916.0</ele><time>2026-05-02T08:40:36.192Z</time></trkpt><trkpt lat="40.1745949" lon="9.5271471"><ele>916.0</ele><time>2026-05-02T08:40:37.192Z</time></trkpt><trkpt lat="40.1747662" lon="9.5271925"><ele>916.0</ele><time>2026-05-02T08:40:38.192Z</time></trkpt><trkpt lat="40.1749355" lon="9.5272338"><ele>916.0</ele><time>2026-05-02T08:40:39.192Z</time></trkpt><trkpt lat="40.1750975" lon="9.5272508"><ele>914.5</ele><time>2026-05-02T08:40:40.192Z</time></trkpt><trkpt lat="40.1752529" lon="9.5272461"><ele>913.0</ele><time>2026-05-02T08:40:41.192Z</time></trkpt><trkpt lat="40.1753966" lon="9.5272623"><ele>911.5</ele><time>2026-05-02T08:40:42.193Z</time></trkpt><trkpt lat="40.1755276" lon="9.5273047"><ele>910.0</ele><time>2026-05-02T08:40:43.193Z</time></trkpt><trkpt lat="40.1756438" lon="9.5273213"><ele>909.25</ele><time>2026-05-02T08:40:44.192Z</time></trkpt><trkpt lat="40.1757557" lon="9.5272912"><ele>908.5</ele><time>2026-05-02T08:40:45.192Z</time></trkpt><trkpt lat="40.1758662" lon="9.5272205"><ele>907.75</ele><time>2026-05-02T08:40:46.193Z</time></trkpt><trkpt lat="40.1759799" lon="9.5271371"><ele>907.0</ele><time>2026-05-02T08:40:47.192Z</time></trkpt><trkpt lat="40.1761056" lon="9.5270747"><ele>907.0</ele><time>2026-05-02T08:40:48.192Z</time></trkpt><trkpt lat="40.176243" lon="9.5270706"><ele>907.0</ele><time>2026-05-02T08:40:49.192Z</time></trkpt><trkpt lat="40.1763983" lon="9.5270994"><ele>907.0</ele><time>2026-05-02T08:40:50.193Z</time></trkpt><trkpt lat="40.1765599" lon="9.5271612"><ele>903.3333333333333</ele><time>2026-05-02T08:40:51.193Z</time></trkpt><trkpt lat="40.1767258" lon="9.527253"><ele>899.6666666666667</ele><time>2026-05-02T08:40:52.192Z</time></trkpt><trkpt lat="40.1768817" lon="9.5273507"><ele>896.0</ele><time>2026-05-02T08:40:53.192Z</time></trkpt><trkpt lat="40.1770319" lon="9.5274536"><ele>896.0</ele><time>2026-05-02T08:40:54.193Z</time></trkpt><trkpt lat="40.1771726" lon="9.5275716"><ele>896.0</ele><time>2026-05-02T08:40:55.192Z</time></trkpt><trkpt lat="40.1772935" lon="9.5277159"><ele>896.0</ele><time>2026-05-02T08:40:56.193Z</time></trkpt><trkpt lat="40.177406" lon="9.527883"><ele>892.3333333333334</ele><time>2026-05-02T08:40:57.192Z</time></trkpt><trkpt lat="40.1775197" lon="9.5280616"><ele>888.6666666666667</ele><time>2026-05-02T08:40:58.193Z</time></trkpt><trkpt lat="40.1776302" lon="9.5282385"><ele>885.0</ele><time>2026-05-02T08:40:59.192Z</time></trkpt><trkpt lat="40.1777398" lon="9.5284115"><ele>885.0</ele><time>2026-05-02T08:41:00.192Z</time></trkpt><trkpt lat="40.1778564" lon="9.5285737"><ele>885.0</ele><time>2026-05-02T08:41:01.193Z</time></trkpt><trkpt lat="40.1779885" lon="9.5287169"><ele>885.0</ele><time>2026-05-02T08:41:02.193Z</time></trkpt><trkpt lat="40.1781232" lon="9.5288432"><ele>883.0</ele><time>2026-05-02T08:41:03.192Z</time></trkpt><trkpt lat="40.1782545" lon="9.5289572"><ele>881.0</ele><time>2026-05-02T08:41:04.193Z</time></trkpt><trkpt lat="40.1783932" lon="9.5290382"><ele>879.0</ele><time>2026-05-02T08:41:05.193Z</time></trkpt><trkpt lat="40.1785403" lon="9.5290836"><ele>879.0</ele><time>2026-05-02T08:41:06.193Z</time></trkpt><trkpt lat="40.1786803" lon="9.5291209"><ele>879.0</ele><time>2026-05-02T08:41:07.193Z</time></trkpt><trkpt lat="40.1788034" lon="9.529188"><ele>879.0</ele><time>2026-05-02T08:41:08.192Z</time></trkpt><trkpt lat="40.1788969" lon="9.5292964"><ele>879.0</ele><time>2026-05-02T08:41:09.192Z</time></trkpt><trkpt lat="40.1789691" lon="9.5294495"><ele>876.25</ele><time>2026-05-02T08:41:10.193Z</time></trkpt><trkpt lat="40.1790409" lon="9.5296195"><ele>873.5</ele><time>2026-05-02T08:41:11.193Z</time></trkpt><trkpt lat="40.1791166" lon="9.529774"><ele>870.75</ele><time>2026-05-02T08:41:12.193Z</time></trkpt><trkpt lat="40.1791907" lon="9.5299162"><ele>868.0</ele><time>2026-05-02T08:41:13.193Z</time></trkpt><trkpt lat="40.1792497" lon="9.5300583"><ele>868.0</ele><time>2026-05-02T08:41:14.193Z</time></trkpt><trkpt lat="40.1792771" lon="9.5302092"><ele>868.0</ele><time>2026-05-02T08:41:15.192Z</time></trkpt><trkpt lat="40.1792696" lon="9.5303553"><ele>868.0</ele><time>2026-05-02T08:41:16.193Z</time></trkpt><trkpt lat="40.1792336" lon="9.5305068"><ele>868.0</ele><time>2026-05-02T08:41:17.192Z</time></trkpt><trkpt lat="40.1791731" lon="9.530674"><ele>867.6666666666666</ele><time>2026-05-02T08:41:18.193Z</time></trkpt><trkpt lat="40.1791104" lon="9.5308621"><ele>867.3333333333333</ele><time>2026-05-02T08:41:19.192Z</time></trkpt><trkpt lat="40.1790685" lon="9.5310697"><ele>867.0</ele><time>2026-05-02T08:41:20.193Z</time></trkpt><trkpt lat="40.1790311" lon="9.5312751"><ele>864.5</ele><time>2026-05-02T08:41:21.193Z</time></trkpt><trkpt lat="40.1790172" lon="9.5314751"><ele>862.0</ele><time>2026-05-02T08:41:22.192Z</time></trkpt><trkpt lat="40.1790339" lon="9.5316685"><ele>859.5</ele><time>2026-05-02T08:41:23.192Z</time></trkpt><trkpt lat="40.1790469" lon="9.5318576"><ele>857.0</ele><time>2026-05-02T08:41:24.192Z</time></trkpt><trkpt lat="40.1790287" lon="9.5320434"><ele>858.75</ele><time>2026-05-02T08:41:25.193Z</time></trkpt><trkpt lat="40.179002" lon="9.5322163"><ele>860.5</ele><time>2026-05-02T08:41:26.192Z</time></trkpt><trkpt lat="40.1790016" lon="9.5323808"><ele>862.25</ele><time>2026-05-02T08:41:27.192Z</time></trkpt><trkpt lat="40.1790477" lon="9.532534"><ele>864.0</ele><time>2026-05-02T08:41:28.193Z</time></trkpt><trkpt lat="40.1791319" lon="9.5326563"><ele>864.0</ele><time>2026-05-02T08:41:29.192Z</time></trkpt><trkpt lat="40.179249" lon="9.5327451"><ele>864.0</ele><time>2026-05-02T08:41:30.193Z</time></trkpt><trkpt lat="40.1793869" lon="9.5328011"><ele>864.0</ele><time>2026-05-02T08:41:31.192Z</time></trkpt><trkpt lat="40.1795385" lon="9.5328347"><ele>864.0</ele><time>2026-05-02T08:41:32.193Z</time></trkpt><trkpt lat="40.1796998" lon="9.5328515"><ele>857.3333333333333</ele><time>2026-05-02T08:41:33.192Z</time></trkpt><trkpt lat="40.179871" lon="9.5328375"><ele>850.6666666666666</ele><time>2026-05-02T08:41:34.192Z</time></trkpt><trkpt lat="40.1800461" lon="9.5328084"><ele>844.0</ele><time>2026-05-02T08:41:35.193Z</time></trkpt><trkpt lat="40.1802191" lon="9.5327941"><ele>844.0</ele><time>2026-05-02T08:41:36.192Z</time></trkpt><trkpt lat="40.1803952" lon="9.5328046"><ele>844.0</ele><time>2026-05-02T08:41:37.192Z</time></trkpt><trkpt lat="40.1805706" lon="9.532849"><ele>844.0</ele><time>2026-05-02T08:41:38.192Z</time></trkpt><trkpt lat="40.1807512" lon="9.5329066"><ele>857.6666666666666</ele><time>2026-05-02T08:41:39.192Z</time></trkpt><trkpt lat="40.1809243" lon="9.5329642"><ele>871.3333333333333</ele><time>2026-05-02T08:41:40.192Z</time></trkpt><trkpt lat="40.1810815" lon="9.5330093"><ele>885.0</ele><time>2026-05-02T08:41:41.193Z</time></trkpt><trkpt lat="40.1812356" lon="9.5330063"><ele>885.0</ele><time>2026-05-02T08:41:42.193Z</time></trkpt><trkpt lat="40.1813848" lon="9.5329572"><ele>885.0</ele><time>2026-05-02T08:41:43.192Z</time></trkpt><trkpt lat="40.1815302" lon="9.5328809"><ele>885.0</ele><time>2026-05-02T08:41:44.193Z</time></trkpt><trkpt lat="40.1816681" lon="9.5328323"><ele>882.75</ele><time>2026-05-02T08:41:45.192Z</time></trkpt><trkpt lat="40.1818002" lon="9.532836"><ele>880.5</ele><time>2026-05-02T08:41:46.192Z</time></trkpt><trkpt lat="40.1819381" lon="9.5328854"><ele>878.25</ele><time>2026-05-02T08:41:47.193Z</time></trkpt><trkpt lat="40.1820855" lon="9.5329559"><ele>876.0</ele><time>2026-05-02T08:41:48.192Z</time></trkpt><trkpt lat="40.1822498" lon="9.5330414"><ele>873.6666666666667</ele><time>2026-05-02T08:41:49.193Z</time></trkpt><trkpt lat="40.1824236" lon="9.533123"><ele>871.3333333333334</ele><time>2026-05-02T08:41:50.192Z</time></trkpt><trkpt lat="40.1826006" lon="9.533187"><ele>869.0</ele><time>2026-05-02T08:41:51.192Z</time></trkpt><trkpt lat="40.1827843" lon="9.5332267"><ele>869.0</ele><time>2026-05-02T08:41:52.192Z</time></trkpt><trkpt lat="40.1829696" lon="9.5332555"><ele>869.0</ele><time>2026-05-02T08:41:53.192Z</time></trkpt><trkpt lat="40.183151" lon="9.5332749"><ele>869.0</ele><time>2026-05-02T08:41:54.193Z</time></trkpt><trkpt lat="40.1833339" lon="9.5332982"><ele>864.0</ele><time>2026-05-02T08:41:55.192Z</time></trkpt><trkpt lat="40.1835176" lon="9.5333342"><ele>859.0</ele><time>2026-05-02T08:41:56.192Z</time></trkpt><trkpt lat="40.1836945" lon="9.5333823"><ele>854.0</ele><time>2026-05-02T08:41:57.192Z</time></trkpt><trkpt lat="40.1838535" lon="9.5334405"><ele>854.0</ele><time>2026-05-02T08:41:58.193Z</time></trkpt><trkpt lat="40.1839963" lon="9.5334999"><ele>854.0</ele><time>2026-05-02T08:41:59.193Z</time></trkpt><trkpt lat="40.1841267" lon="9.5335768"><ele>854.0</ele><time>2026-05-02T08:42:00.193Z</time></trkpt><trkpt lat="40.1842419" lon="9.5336805"><ele>854.0</ele><time>2026-05-02T08:42:01.193Z</time></trkpt><trkpt lat="40.1843359" lon="9.5338033"><ele>857.25</ele><time>2026-05-02T08:42:02.193Z</time></trkpt><trkpt lat="40.1844031" lon="9.5339481"><ele>860.5</ele><time>2026-05-02T08:42:03.192Z</time></trkpt><trkpt lat="40.1844462" lon="9.5341032"><ele>863.75</ele><time>2026-05-02T08:42:04.192Z</time></trkpt><trkpt lat="40.1844941" lon="9.5342512"><ele>867.0</ele><time>2026-05-02T08:42:05.193Z</time></trkpt><trkpt lat="40.1845768" lon="9.5343578"><ele>867.0</ele><time>2026-05-02T08:42:06.193Z</time></trkpt><trkpt lat="40.1846798" lon="9.5344028"><ele>867.0</ele><time>2026-05-02T08:42:07.193Z</time></trkpt><trkpt lat="40.184792" lon="9.534401"><ele>867.0</ele><time>2026-05-02T08:42:08.193Z</time></trkpt><trkpt lat="40.1849123" lon="9.5343694"><ele>867.0</ele><time>2026-05-02T08:42:09.193Z</time></trkpt><trkpt lat="40.1850411" lon="9.5343376"><ele>867.0</ele><time>2026-05-02T08:42:10.192Z</time></trkpt><trkpt lat="40.1851668" lon="9.5343275"><ele>867.0</ele><time>2026-05-02T08:42:11.192Z</time></trkpt><trkpt lat="40.1852754" lon="9.5343465"><ele>867.0</ele><time>2026-05-02T08:42:12.192Z</time></trkpt><trkpt lat="40.1853679" lon="9.5344067"><ele>867.0</ele><time>2026-05-02T08:42:13.192Z</time></trkpt><trkpt lat="40.1854388" lon="9.5345043"><ele>867.0</ele><time>2026-05-02T08:42:14.193Z</time></trkpt><trkpt lat="40.1854902" lon="9.5346361"><ele>867.0</ele><time>2026-05-02T08:42:15.192Z</time></trkpt><trkpt lat="40.1855387" lon="9.5347868"><ele>867.0</ele><time>2026-05-02T08:42:16.192Z</time></trkpt><trkpt lat="40.1855887" lon="9.5349467"><ele>867.0</ele><time>2026-05-02T08:42:17.193Z</time></trkpt><trkpt lat="40.1856172" lon="9.5351172"><ele>867.0</ele><time>2026-05-02T08:42:18.193Z</time></trkpt><trkpt lat="40.1856255" lon="9.535301"><ele>872.5</ele><time>2026-05-02T08:42:19.192Z</time></trkpt><trkpt lat="40.1856247" lon="9.5354757"><ele>878.0</ele><time>2026-05-02T08:42:20.192Z</time></trkpt><trkpt lat="40.185626" lon="9.5356429"><ele>883.5</ele><time>2026-05-02T08:42:21.193Z</time></trkpt><trkpt lat="40.1856465" lon="9.5357943"><ele>889.0</ele><time>2026-05-02T08:42:22.193Z</time></trkpt><trkpt lat="40.1857119" lon="9.5359095"><ele>884.0</ele><time>2026-05-02T08:42:23.192Z</time></trkpt><trkpt lat="40.1857954" lon="9.5359987"><ele>879.0</ele><time>2026-05-02T08:42:24.193Z</time></trkpt><trkpt lat="40.1858863" lon="9.5361002"><ele>874.0</ele><time>2026-05-02T08:42:25.192Z</time></trkpt><trkpt lat="40.1859711" lon="9.5362139"><ele>869.0</ele><time>2026-05-02T08:42:26.193Z</time></trkpt><trkpt lat="40.186054" lon="9.5363067"><ele>869.0</ele><time>2026-05-02T08:42:27.193Z</time></trkpt><trkpt lat="40.1861514" lon="9.53635"><ele>869.0</ele><time>2026-05-02T08:42:28.192Z</time></trkpt><trkpt lat="40.1862598" lon="9.5363325"><ele>869.0</ele><time>2026-05-02T08:42:29.193Z</time></trkpt><trkpt lat="40.1863645" lon="9.5362689"><ele>869.0</ele><time>2026-05-02T08:42:30.193Z</time></trkpt><trkpt lat="40.1864581" lon="9.5361645"><ele>859.0</ele><time>2026-05-02T08:42:31.192Z</time></trkpt><trkpt lat="40.1865489" lon="9.5360568"><ele>849.0</ele><time>2026-05-02T08:42:32.192Z</time></trkpt><trkpt lat="40.1866556" lon="9.5359591"><ele>839.0</ele><time>2026-05-02T08:42:33.193Z</time></trkpt><trkpt lat="40.1867749" lon="9.5358545"><ele>829.0</ele><time>2026-05-02T08:42:34.192Z</time></trkpt><trkpt lat="40.1868874" lon="9.5357604"><ele>829.0</ele><time>2026-05-02T08:42:35.193Z</time></trkpt><trkpt lat="40.1869915" lon="9.5356755"><ele>829.0</ele><time>2026-05-02T08:42:36.193Z</time></trkpt><trkpt lat="40.1870842" lon="9.5356052"><ele>829.0</ele><time>2026-05-02T08:42:37.193Z</time></trkpt><trkpt lat="40.1871722" lon="9.535559"><ele>829.0</ele><time>2026-05-02T08:42:38.192Z</time></trkpt><trkpt lat="40.1872592" lon="9.5355527"><ele>829.0</ele><time>2026-05-02T08:42:39.193Z</time></trkpt><trkpt lat="40.1873388" lon="9.5355883"><ele>829.4000000000001</ele><time>2026-05-02T08:42:40.193Z</time></trkpt><trkpt lat="40.1874071" lon="9.5356518"><ele>829.8</ele><time>2026-05-02T08:42:41.192Z</time></trkpt><trkpt lat="40.1874717" lon="9.5357247"><ele>830.2</ele><time>2026-05-02T08:42:42.193Z</time></trkpt><trkpt lat="40.1875453" lon="9.5357981"><ele>830.5999999999999</ele><time>2026-05-02T08:42:43.193Z</time></trkpt><trkpt lat="40.1876299" lon="9.5358718"><ele>831.0</ele><time>2026-05-02T08:42:44.193Z</time></trkpt><trkpt lat="40.1877182" lon="9.5359422"><ele>831.0</ele><time>2026-05-02T08:42:45.192Z</time></trkpt><trkpt lat="40.1878025" lon="9.5360022"><ele>831.0</ele><time>2026-05-02T08:42:46.192Z</time></trkpt><trkpt lat="40.1878837" lon="9.5360559"><ele>831.0</ele><time>2026-05-02T08:42:47.192Z</time></trkpt><trkpt lat="40.1879676" lon="9.5361001"><ele>831.0</ele><time>2026-05-02T08:42:48.193Z</time></trkpt><trkpt lat="40.1880598" lon="9.5361187"><ele>831.0</ele><time>2026-05-02T08:42:49.193Z</time></trkpt><trkpt lat="40.1881556" lon="9.5361124"><ele>829.5</ele><time>2026-05-02T08:42:50.192Z</time></trkpt><trkpt lat="40.1882508" lon="9.5360671"><ele>828.0</ele><time>2026-05-02T08:42:51.192Z</time></trkpt><trkpt lat="40.1883421" lon="9.5359914"><ele>826.5</ele><time>2026-05-02T08:42:52.192Z</time></trkpt><trkpt lat="40.1884361" lon="9.5358979"><ele>825.0</ele><time>2026-05-02T08:42:53.193Z</time></trkpt><trkpt lat="40.1885406" lon="9.5358146"><ele>825.0</ele><time>2026-05-02T08:42:54.193Z</time></trkpt><trkpt lat="40.1886465" lon="9.5357436"><ele>825.0</ele><time>2026-05-02T08:42:55.193Z</time></trkpt><trkpt lat="40.1887492" lon="9.5356828"><ele>825.0</ele><time>2026-05-02T08:42:56.193Z</time></trkpt><trkpt lat="40.1888483" lon="9.5356346"><ele>825.0</ele><time>2026-05-02T08:42:57.193Z</time></trkpt><trkpt lat="40.1889437" lon="9.5356112"><ele>825.0</ele><time>2026-05-02T08:42:58.193Z</time></trkpt><trkpt lat="40.1890375" lon="9.5356196"><ele>826.0</ele><time>2026-05-02T08:42:59.193Z</time></trkpt><trkpt lat="40.1891443" lon="9.5356543"><ele>827.0</ele><time>2026-05-02T08:43:00.192Z</time></trkpt><trkpt lat="40.1892643" lon="9.5357128"><ele>828.0</ele><time>2026-05-02T08:43:01.192Z</time></trkpt><trkpt lat="40.1893884" lon="9.5357843"><ele>829.0</ele><time>2026-05-02T08:43:02.192Z</time></trkpt><trkpt lat="40.1895094" lon="9.5358436"><ele>829.0</ele><time>2026-05-02T08:43:03.193Z</time></trkpt><trkpt lat="40.1896253" lon="9.5358943"><ele>829.0</ele><time>2026-05-02T08:43:04.192Z</time></trkpt><trkpt lat="40.1897246" lon="9.535963"><ele>829.0</ele><time>2026-05-02T08:43:05.193Z</time></trkpt><trkpt lat="40.1898096" lon="9.536065"><ele>829.0</ele><time>2026-05-02T08:43:06.192Z</time></trkpt><trkpt lat="40.1898847" lon="9.5362135"><ele>832.0</ele><time>2026-05-02T08:43:07.193Z</time></trkpt><trkpt lat="40.1899624" lon="9.5363915"><ele>835.0</ele><time>2026-05-02T08:43:08.192Z</time></trkpt><trkpt lat="40.1900416" lon="9.5365165"><ele>838.0</ele><time>2026-05-02T08:43:09.192Z</time></trkpt><trkpt lat="40.1901393" lon="9.536593"><ele>841.0</ele><time>2026-05-02T08:43:10.192Z</time></trkpt><trkpt lat="40.1902332" lon="9.5365983"><ele>841.0</ele><time>2026-05-02T08:43:11.192Z</time></trkpt><trkpt lat="40.1903377" lon="9.5365573"><ele>841.0</ele><time>2026-05-02T08:43:12.193Z</time></trkpt><trkpt lat="40.1904659" lon="9.536521"><ele>841.0</ele><time>2026-05-02T08:43:13.193Z</time></trkpt><trkpt lat="40.1906123" lon="9.5365174"><ele>841.0</ele><time>2026-05-02T08:43:14.193Z</time></trkpt><trkpt lat="40.1907506" lon="9.5364849"><ele>841.6666666666666</ele><time>2026-05-02T08:43:15.192Z</time></trkpt><trkpt lat="40.190883" lon="9.536391"><ele>842.3333333333333</ele><time>2026-05-02T08:43:16.192Z</time></trkpt><trkpt lat="40.1910297" lon="9.536272"><ele>843.0</ele><time>2026-05-02T08:43:17.193Z</time></trkpt><trkpt lat="40.1912044" lon="9.5361606"><ele>830.5</ele><time>2026-05-02T08:43:18.192Z</time></trkpt><trkpt lat="40.1914107" lon="9.5360463"><ele>818.0</ele><time>2026-05-02T08:43:19.192Z</time></trkpt><trkpt lat="40.1916316" lon="9.535925"><ele>818.0</ele><time>2026-05-02T08:43:20.192Z</time></trkpt><trkpt lat="40.1918307" lon="9.5358197"><ele>818.0</ele><time>2026-05-02T08:43:21.192Z</time></trkpt><trkpt lat="40.1920218" lon="9.5357311"><ele>818.0</ele><time>2026-05-02T08:43:22.193Z</time></trkpt><trkpt lat="40.192195" lon="9.5356786"><ele>819.0</ele><time>2026-05-02T08:43:23.192Z</time></trkpt><trkpt lat="40.1923443" lon="9.5356538"><ele>820.0</ele><time>2026-05-02T08:43:24.192Z</time></trkpt><trkpt lat="40.19247" lon="9.5356512"><ele>821.0</ele><time>2026-05-02T08:43:25.193Z</time></trkpt><trkpt lat="40.1925842" lon="9.5356858"><ele>822.0</ele><time>2026-05-02T08:43:26.193Z</time></trkpt><trkpt lat="40.1926768" lon="9.535772"><ele>822.0</ele><time>2026-05-02T08:43:27.192Z</time></trkpt><trkpt lat="40.192732" lon="9.5358975"><ele>822.0</ele><time>2026-05-02T08:43:28.193Z</time></trkpt><trkpt lat="40.1927512" lon="9.5360404"><ele>822.0</ele><time>2026-05-02T08:43:29.192Z</time></trkpt><trkpt lat="40.1927616" lon="9.5361849"><ele>822.0</ele><time>2026-05-02T08:43:30.192Z</time></trkpt><trkpt lat="40.1928293" lon="9.5363158"><ele>820.0</ele><time>2026-05-02T08:43:31.193Z</time></trkpt><trkpt lat="40.192934" lon="9.5364518"><ele>818.0</ele><time>2026-05-02T08:43:32.192Z</time></trkpt><trkpt lat="40.193071" lon="9.5366054"><ele>816.0</ele><time>2026-05-02T08:43:33.192Z</time></trkpt><trkpt lat="40.1932124" lon="9.5367607"><ele>816.0</ele><time>2026-05-02T08:43:34.193Z</time></trkpt><trkpt lat="40.1933358" lon="9.5368983"><ele>816.0</ele><time>2026-05-02T08:43:35.193Z</time></trkpt><trkpt lat="40.1934508" lon="9.5370298"><ele>816.0</ele><time>2026-05-02T08:43:36.193Z</time></trkpt><trkpt lat="40.1935546" lon="9.5371485"><ele>822.1999999999999</ele><time>2026-05-02T08:43:37.193Z</time></trkpt><trkpt lat="40.1936463" lon="9.5372565"><ele>828.4</ele><time>2026-05-02T08:43:38.193Z</time></trkpt><trkpt lat="40.1937368" lon="9.5373401"><ele>834.6</ele><time>2026-05-02T08:43:39.193Z</time></trkpt><trkpt lat="40.1938345" lon="9.5373867"><ele>840.8</ele><time>2026-05-02T08:43:40.193Z</time></trkpt><trkpt lat="40.1939408" lon="9.5373622"><ele>847.0</ele><time>2026-05-02T08:43:41.193Z</time></trkpt><trkpt lat="40.1940426" lon="9.5372889"><ele>847.0</ele><time>2026-05-02T08:43:42.192Z</time></trkpt><trkpt lat="40.194138" lon="9.5371823"><ele>847.0</ele><time>2026-05-02T08:43:43.193Z</time></trkpt><trkpt lat="40.1942407" lon="9.5370895"><ele>847.0</ele><time>2026-05-02T08:43:44.193Z</time></trkpt><trkpt lat="40.1943456" lon="9.5370575"><ele>847.0</ele><time>2026-05-02T08:43:45.193Z</time></trkpt><trkpt lat="40.194468" lon="9.537065"><ele>847.0</ele><time>2026-05-02T08:43:46.193Z</time></trkpt><trkpt lat="40.194607" lon="9.5370866"><ele>847.0</ele><time>2026-05-02T08:43:47.193Z</time></trkpt><trkpt lat="40.1947257" lon="9.5371293"><ele>847.0</ele><time>2026-05-02T08:43:48.192Z</time></trkpt><trkpt lat="40.1948251" lon="9.5372192"><ele>847.0</ele><time>2026-05-02T08:43:49.192Z</time></trkpt><trkpt lat="40.1949163" lon="9.5373438"><ele>845.5</ele><time>2026-05-02T08:43:50.192Z</time></trkpt><trkpt lat="40.1950071" lon="9.5374612"><ele>844.0</ele><time>2026-05-02T08:43:51.193Z</time></trkpt><trkpt lat="40.1951141" lon="9.5375165"><ele>842.5</ele><time>2026-05-02T08:43:52.193Z</time></trkpt><trkpt lat="40.1952284" lon="9.5375023"><ele>841.0</ele><time>2026-05-02T08:43:53.193Z</time></trkpt><trkpt lat="40.1953502" lon="9.5374315"><ele>841.0</ele><time>2026-05-02T08:43:54.192Z</time></trkpt><trkpt lat="40.1954874" lon="9.5373306"><ele>841.0</ele><time>2026-05-02T08:43:55.192Z</time></trkpt><trkpt lat="40.1956174" lon="9.5371827"><ele>841.0</ele><time>2026-05-02T08:43:56.192Z</time></trkpt><trkpt lat="40.1957312" lon="9.5370032"><ele>835.0</ele><time>2026-05-02T08:43:57.192Z</time></trkpt><trkpt lat="40.1958357" lon="9.5368147"><ele>829.0</ele><time>2026-05-02T08:43:58.193Z</time></trkpt><trkpt lat="40.1959399" lon="9.5366364"><ele>823.0</ele><time>2026-05-02T08:43:59.193Z</time></trkpt><trkpt lat="40.1960628" lon="9.536489"><ele>823.0</ele><time>2026-05-02T08:44:00.193Z</time></trkpt><trkpt lat="40.1962109" lon="9.5363737"><ele>823.0</ele><time>2026-05-02T08:44:01.192Z</time></trkpt><trkpt lat="40.196378" lon="9.5362676"><ele>823.0</ele><time>2026-05-02T08:44:02.193Z</time></trkpt><trkpt lat="40.196545" lon="9.5361698"><ele>820.5</ele><time>2026-05-02T08:44:03.192Z</time></trkpt><trkpt lat="40.1966922" lon="9.5360897"><ele>818.0</ele><time>2026-05-02T08:44:04.192Z</time></trkpt><trkpt lat="40.1968218" lon="9.5360277"><ele>815.5</ele><time>2026-05-02T08:44:05.193Z</time></trkpt><trkpt lat="40.1969404" lon="9.5359801"><ele>813.0</ele><time>2026-05-02T08:44:06.192Z</time></trkpt><trkpt lat="40.197054" lon="9.5359458"><ele>813.0</ele><time>2026-05-02T08:44:07.193Z</time></trkpt><trkpt lat="40.1971568" lon="9.5359548"><ele>813.0</ele><time>2026-05-02T08:44:08.193Z</time></trkpt><trkpt lat="40.1972468" lon="9.5360122"><ele>813.0</ele><time>2026-05-02T08:44:09.193Z</time></trkpt><trkpt lat="40.1973038" lon="9.5361121"><ele>813.0</ele><time>2026-05-02T08:44:10.193Z</time></trkpt><trkpt lat="40.1973318" lon="9.53624"><ele>813.0</ele><time>2026-05-02T08:44:11.193Z</time></trkpt><trkpt lat="40.1973344" lon="9.5364121"><ele>815.6666666666667</ele><time>2026-05-02T08:44:12.193Z</time></trkpt><trkpt lat="40.1973341" lon="9.536622"><ele>818.3333333333334</ele><time>2026-05-02T08:44:13.192Z</time></trkpt><trkpt lat="40.1973466" lon="9.5368525"><ele>821.0</ele><time>2026-05-02T08:44:14.193Z</time></trkpt><trkpt lat="40.1973646" lon="9.5370726"><ele>821.0</ele><time>2026-05-02T08:44:15.193Z</time></trkpt><trkpt lat="40.1973819" lon="9.5372832"><ele>821.0</ele><time>2026-05-02T08:44:16.193Z</time></trkpt><trkpt lat="40.1973899" lon="9.5374893"><ele>821.0</ele><time>2026-05-02T08:44:17.193Z</time></trkpt><trkpt lat="40.1973844" lon="9.5376868"><ele>821.0</ele><time>2026-05-02T08:44:18.193Z</time></trkpt><trkpt lat="40.1973688" lon="9.5378756"><ele>821.0</ele><time>2026-05-02T08:44:19.193Z</time></trkpt><trkpt lat="40.1973546" lon="9.5380475"><ele>821.0</ele><time>2026-05-02T08:44:20.192Z</time></trkpt><trkpt lat="40.1973664" lon="9.5382104"><ele>821.0</ele><time>2026-05-02T08:44:21.192Z</time></trkpt><trkpt lat="40.1974225" lon="9.5383544"><ele>822.75</ele><time>2026-05-02T08:44:22.193Z</time></trkpt><trkpt lat="40.1975193" lon="9.5384612"><ele>824.5</ele><time>2026-05-02T08:44:23.193Z</time></trkpt><trkpt lat="40.1976374" lon="9.538536"><ele>826.25</ele><time>2026-05-02T08:44:24.193Z</time></trkpt><trkpt lat="40.1977656" lon="9.5386133"><ele>828.0</ele><time>2026-05-02T08:44:25.193Z</time></trkpt><trkpt lat="40.1978782" lon="9.5387286"><ele>825.25</ele><time>2026-05-02T08:44:26.192Z</time></trkpt><trkpt lat="40.1979808" lon="9.5388785"><ele>822.5</ele><time>2026-05-02T08:44:27.193Z</time></trkpt><trkpt lat="40.1980759" lon="9.5390262"><ele>819.75</ele><time>2026-05-02T08:44:28.192Z</time></trkpt><trkpt lat="40.1981685" lon="9.5391707"><ele>817.0</ele><time>2026-05-02T08:44:29.192Z</time></trkpt><trkpt lat="40.1982664" lon="9.5392907"><ele>817.0</ele><time>2026-05-02T08:44:30.192Z</time></trkpt><trkpt lat="40.1983813" lon="9.5393508"><ele>817.0</ele><time>2026-05-02T08:44:31.193Z</time></trkpt><trkpt lat="40.1985019" lon="9.539346"><ele>817.0</ele><time>2026-05-02T08:44:32.193Z</time></trkpt><trkpt lat="40.1986199" lon="9.5393"><ele>817.0</ele><time>2026-05-02T08:44:33.192Z</time></trkpt><trkpt lat="40.1987355" lon="9.5392384"><ele>817.0</ele><time>2026-05-02T08:44:34.193Z</time></trkpt><trkpt lat="40.1988554" lon="9.5391999"><ele>817.0</ele><time>2026-05-02T08:44:35.193Z</time></trkpt><trkpt lat="40.1989767" lon="9.5392061"><ele>817.0</ele><time>2026-05-02T08:44:36.193Z</time></trkpt><trkpt lat="40.1990956" lon="9.5392522"><ele>817.0</ele><time>2026-05-02T08:44:37.193Z</time></trkpt><trkpt lat="40.1992077" lon="9.5393343"><ele>819.5</ele><time>2026-05-02T08:44:38.192Z</time></trkpt><trkpt lat="40.1993001" lon="9.5394457"><ele>822.0</ele><time>2026-05-02T08:44:39.192Z</time></trkpt><trkpt lat="40.1993667" lon="9.5395816"><ele>824.5</ele><time>2026-05-02T08:44:40.192Z</time></trkpt><trkpt lat="40.1993934" lon="9.5397326"><ele>827.0</ele><time>2026-05-02T08:44:41.192Z</time></trkpt><trkpt lat="40.199385" lon="9.5398951"><ele>827.0</ele><time>2026-05-02T08:44:42.192Z</time></trkpt><trkpt lat="40.1993679" lon="9.5400538"><ele>827.0</ele><time>2026-05-02T08:44:43.193Z</time></trkpt><trkpt lat="40.1993812" lon="9.5402021"><ele>827.0</ele><time>2026-05-02T08:44:44.193Z</time></trkpt><trkpt lat="40.1994381" lon="9.5403312"><ele>827.0</ele><time>2026-05-02T08:44:45.193Z</time></trkpt><trkpt lat="40.199533" lon="9.5404262"><ele>824.75</ele><time>2026-05-02T08:44:46.192Z</time></trkpt><trkpt lat="40.1996462" lon="9.5404853"><ele>822.5</ele><time>2026-05-02T08:44:47.193Z</time></trkpt><trkpt lat="40.1997515" lon="9.5405578"><ele>820.25</ele><time>2026-05-02T08:44:48.193Z</time></trkpt><trkpt lat="40.1998442" lon="9.5406517"><ele>818.0</ele><time>2026-05-02T08:44:49.193Z</time></trkpt><trkpt lat="40.1999275" lon="9.5407527"><ele>818.0</ele><time>2026-05-02T08:44:50.193Z</time></trkpt><trkpt lat="40.200016" lon="9.5408418"><ele>818.0</ele><time>2026-05-02T08:44:51.192Z</time></trkpt><trkpt lat="40.2001141" lon="9.540904"><ele>818.0</ele><time>2026-05-02T08:44:52.193Z</time></trkpt><trkpt lat="40.2002189" lon="9.5409355"><ele>818.0</ele><time>2026-05-02T08:44:53.192Z</time></trkpt><trkpt lat="40.2003277" lon="9.5409358"><ele>818.0</ele><time>2026-05-02T08:44:54.192Z</time></trkpt><trkpt lat="40.2004359" lon="9.5409079"><ele>818.0</ele><time>2026-05-02T08:44:55.192Z</time></trkpt><trkpt lat="40.2005393" lon="9.5408508"><ele>818.0</ele><time>2026-05-02T08:44:56.193Z</time></trkpt><trkpt lat="40.20064" lon="9.5407909"><ele>818.0</ele><time>2026-05-02T08:44:57.192Z</time></trkpt><trkpt lat="40.2007357" lon="9.5407409"><ele>818.0</ele><time>2026-05-02T08:44:58.193Z</time></trkpt><trkpt lat="40.2008316" lon="9.5407178"><ele>818.0</ele><time>2026-05-02T08:44:59.192Z</time></trkpt><trkpt lat="40.2009271" lon="9.5407319"><ele>816.2</ele><time>2026-05-02T08:45:00.193Z</time></trkpt><trkpt lat="40.2010154" lon="9.5407766"><ele>814.4</ele><time>2026-05-02T08:45:01.193Z</time></trkpt><trkpt lat="40.2010994" lon="9.5408333"><ele>812.6</ele><time>2026-05-02T08:45:02.192Z</time></trkpt><trkpt lat="40.201178" lon="9.5409002"><ele>810.8000000000001</ele><time>2026-05-02T08:45:03.193Z</time></trkpt><trkpt lat="40.2012438" lon="9.541002"><ele>809.0</ele><time>2026-05-02T08:45:04.193Z</time></trkpt><trkpt lat="40.2012918" lon="9.5411267"><ele>810.25</ele><time>2026-05-02T08:45:05.192Z</time></trkpt><trkpt lat="40.2013379" lon="9.5412592"><ele>811.5</ele><time>2026-05-02T08:45:06.192Z</time></trkpt><trkpt lat="40.2014085" lon="9.54138"><ele>812.75</ele><time>2026-05-02T08:45:07.193Z</time></trkpt><trkpt lat="40.2015024" lon="9.5414776"><ele>814.0</ele><time>2026-05-02T08:45:08.192Z</time></trkpt><trkpt lat="40.2016131" lon="9.5415479"><ele>814.0</ele><time>2026-05-02T08:45:09.192Z</time></trkpt><trkpt lat="40.2017288" lon="9.5415887"><ele>814.0</ele><time>2026-05-02T08:45:10.193Z</time></trkpt><trkpt lat="40.2018528" lon="9.5416148"><ele>814.0</ele><time>2026-05-02T08:45:11.192Z</time></trkpt><trkpt lat="40.2019742" lon="9.5416341"><ele>814.0</ele><time>2026-05-02T08:45:12.193Z</time></trkpt><trkpt lat="40.2020906" lon="9.5416536"><ele>814.0</ele><time>2026-05-02T08:45:13.192Z</time></trkpt><trkpt lat="40.2022016" lon="9.5416699"><ele>814.0</ele><time>2026-05-02T08:45:14.192Z</time></trkpt><trkpt lat="40.2023108" lon="9.5416722"><ele>814.0</ele><time>2026-05-02T08:45:15.192Z</time></trkpt><trkpt lat="40.2024195" lon="9.5416684"><ele>814.0</ele><time>2026-05-02T08:45:16.193Z</time></trkpt><trkpt lat="40.2025245" lon="9.5416772"><ele>814.0</ele><time>2026-05-02T08:45:17.192Z</time></trkpt><trkpt lat="40.2026236" lon="9.5417232"><ele>817.25</ele><time>2026-05-02T08:45:18.193Z</time></trkpt><trkpt lat="40.2027143" lon="9.5418123"><ele>820.5</ele><time>2026-05-02T08:45:19.192Z</time></trkpt><trkpt lat="40.2027899" lon="9.5419379"><ele>823.75</ele><time>2026-05-02T08:45:20.192Z</time></trkpt><trkpt lat="40.2028527" lon="9.5420864"><ele>827.0</ele><time>2026-05-02T08:45:21.192Z</time></trkpt><trkpt lat="40.2029134" lon="9.5422366"><ele>827.0</ele><time>2026-05-02T08:45:22.193Z</time></trkpt><trkpt lat="40.2029917" lon="9.542375"><ele>827.0</ele><time>2026-05-02T08:45:23.192Z</time></trkpt><trkpt lat="40.2030878" lon="9.5425047"><ele>827.0</ele><time>2026-05-02T08:45:24.192Z</time></trkpt><trkpt lat="40.203183" lon="9.5426261"><ele>827.0</ele><time>2026-05-02T08:45:25.192Z</time></trkpt><trkpt lat="40.2032761" lon="9.5427435"><ele>824.0</ele><time>2026-05-02T08:45:26.192Z</time></trkpt><trkpt lat="40.2033661" lon="9.542858"><ele>821.0</ele><time>2026-05-02T08:45:27.193Z</time></trkpt><trkpt lat="40.2034561" lon="9.5429659"><ele>818.0</ele><time>2026-05-02T08:45:28.192Z</time></trkpt><trkpt lat="40.2035428" lon="9.5430734"><ele>815.0</ele><time>2026-05-02T08:45:29.192Z</time></trkpt><trkpt lat="40.2036342" lon="9.5431715"><ele>815.0</ele><time>2026-05-02T08:45:30.193Z</time></trkpt><trkpt lat="40.203744" lon="9.5432524"><ele>815.0</ele><time>2026-05-02T08:45:31.193Z</time></trkpt><trkpt lat="40.2038649" lon="9.5433174"><ele>815.0</ele><time>2026-05-02T08:45:32.192Z</time></trkpt><trkpt lat="40.2039886" lon="9.5433826"><ele>815.0</ele><time>2026-05-02T08:45:33.193Z</time></trkpt><trkpt lat="40.204103" lon="9.5434508"><ele>815.25</ele><time>2026-05-02T08:45:34.193Z</time></trkpt><trkpt lat="40.2042093" lon="9.5435401"><ele>815.5</ele><time>2026-05-02T08:45:35.193Z</time></trkpt><trkpt lat="40.2043163" lon="9.543644"><ele>815.75</ele><time>2026-05-02T08:45:36.192Z</time></trkpt><trkpt lat="40.2044315" lon="9.5437362"><ele>816.0</ele><time>2026-05-02T08:45:37.193Z</time></trkpt><trkpt lat="40.2045483" lon="9.5437962"><ele>816.0</ele><time>2026-05-02T08:45:38.193Z</time></trkpt><trkpt lat="40.2046636" lon="9.5438327"><ele>816.0</ele><time>2026-05-02T08:45:39.192Z</time></trkpt><trkpt lat="40.2047726" lon="9.54387"><ele>816.0</ele><time>2026-05-02T08:45:40.192Z</time></trkpt><trkpt lat="40.2048723" lon="9.5439204"><ele>816.0</ele><time>2026-05-02T08:45:41.192Z</time></trkpt><trkpt lat="40.2049592" lon="9.5439956"><ele>816.0</ele><time>2026-05-02T08:45:42.193Z</time></trkpt><trkpt lat="40.2050372" lon="9.5440889"><ele>811.1999999999999</ele><time>2026-05-02T08:45:43.193Z</time></trkpt><trkpt lat="40.205112" lon="9.5441771"><ele>806.4</ele><time>2026-05-02T08:45:44.193Z</time></trkpt><trkpt lat="40.2051938" lon="9.5442647"><ele>801.6</ele><time>2026-05-02T08:45:45.193Z</time></trkpt><trkpt lat="40.2052867" lon="9.5443376"><ele>796.8</ele><time>2026-05-02T08:45:46.193Z</time></trkpt><trkpt lat="40.2053856" lon="9.5443928"><ele>792.0</ele><time>2026-05-02T08:45:47.193Z</time></trkpt><trkpt lat="40.205494" lon="9.5444212"><ele>792.0</ele><time>2026-05-02T08:45:48.192Z</time></trkpt><trkpt lat="40.2056062" lon="9.5444281"><ele>792.0</ele><time>2026-05-02T08:45:49.192Z</time></trkpt><trkpt lat="40.205721" lon="9.544421"><ele>792.0</ele><time>2026-05-02T08:45:50.193Z</time></trkpt><trkpt lat="40.2058392" lon="9.5444106"><ele>792.0</ele><time>2026-05-02T08:45:51.192Z</time></trkpt><trkpt lat="40.2059614" lon="9.5443933"><ele>786.25</ele><time>2026-05-02T08:45:52.192Z</time></trkpt><trkpt lat="40.2060846" lon="9.5443859"><ele>780.5</ele><time>2026-05-02T08:45:53.193Z</time></trkpt><trkpt lat="40.2062046" lon="9.544386"><ele>774.75</ele><time>2026-05-02T08:45:54.193Z</time></trkpt><trkpt lat="40.2063279" lon="9.5444019"><ele>769.0</ele><time>2026-05-02T08:45:55.192Z</time></trkpt><trkpt lat="40.2064568" lon="9.5444323"><ele>766.5</ele><time>2026-05-02T08:45:56.192Z</time></trkpt><trkpt lat="40.2065906" lon="9.5444766"><ele>764.0</ele><time>2026-05-02T08:45:57.192Z</time></trkpt><trkpt lat="40.2067294" lon="9.5445218"><ele>761.5</ele><time>2026-05-02T08:45:58.193Z</time></trkpt><trkpt lat="40.2068732" lon="9.5445698"><ele>759.0</ele><time>2026-05-02T08:45:59.193Z</time></trkpt><trkpt lat="40.2070187" lon="9.5446208"><ele>765.0</ele><time>2026-05-02T08:46:00.192Z</time></trkpt><trkpt lat="40.2071592" lon="9.544661"><ele>771.0</ele><time>2026-05-02T08:46:01.193Z</time></trkpt><trkpt lat="40.2072959" lon="9.5446865"><ele>777.0</ele><time>2026-05-02T08:46:02.193Z</time></trkpt><trkpt lat="40.2074337" lon="9.5447072"><ele>783.0</ele><time>2026-05-02T08:46:03.193Z</time></trkpt><trkpt lat="40.2075712" lon="9.5447386"><ele>783.0</ele><time>2026-05-02T08:46:04.192Z</time></trkpt><trkpt lat="40.2077032" lon="9.5447819"><ele>783.0</ele><time>2026-05-02T08:46:05.192Z</time></trkpt><trkpt lat="40.2078282" lon="9.5448283"><ele>783.0</ele><time>2026-05-02T08:46:06.192Z</time></trkpt><trkpt lat="40.2079465" lon="9.5448748"><ele>783.0</ele><time>2026-05-02T08:46:07.193Z</time></trkpt><trkpt lat="40.2080604" lon="9.5449157"><ele>776.25</ele><time>2026-05-02T08:46:08.193Z</time></trkpt><trkpt lat="40.2081669" lon="9.544958"><ele>769.5</ele><time>2026-05-02T08:46:09.193Z</time></trkpt><trkpt lat="40.2082611" lon="9.5450232"><ele>762.75</ele><time>2026-05-02T08:46:10.193Z</time></trkpt><trkpt lat="40.2083474" lon="9.5451164"><ele>756.0</ele><time>2026-05-02T08:46:11.193Z</time></trkpt><trkpt lat="40.2084257" lon="9.5452412"><ele>762.75</ele><time>2026-05-02T08:46:12.193Z</time></trkpt><trkpt lat="40.2085015" lon="9.5453831"><ele>769.5</ele><time>2026-05-02T08:46:13.193Z</time></trkpt><trkpt lat="40.2085815" lon="9.5455384"><ele>776.25</ele><time>2026-05-02T08:46:14.192Z</time></trkpt><trkpt lat="40.208666" lon="9.5456977"><ele>783.0</ele><time>2026-05-02T08:46:15.193Z</time></trkpt><trkpt lat="40.2087541" lon="9.5458648"><ele>783.0</ele><time>2026-05-02T08:46:16.192Z</time></trkpt><trkpt lat="40.208845" lon="9.5460378"><ele>783.0</ele><time>2026-05-02T08:46:17.193Z</time></trkpt><trkpt lat="40.2089373" lon="9.5462163"><ele>783.0</ele><time>2026-05-02T08:46:18.193Z</time></trkpt><trkpt lat="40.2090252" lon="9.5463888"><ele>773.3333333333334</ele><time>2026-05-02T08:46:19.193Z</time></trkpt><trkpt lat="40.2091123" lon="9.5465572"><ele>763.6666666666667</ele><time>2026-05-02T08:46:20.193Z</time></trkpt><trkpt lat="40.2091997" lon="9.5467183"><ele>754.0</ele><time>2026-05-02T08:46:21.193Z</time></trkpt><trkpt lat="40.2092895" lon="9.5468677"><ele>754.0</ele><time>2026-05-02T08:46:22.192Z</time></trkpt><trkpt lat="40.2093794" lon="9.5470054"><ele>754.0</ele><time>2026-05-02T08:46:23.193Z</time></trkpt><trkpt lat="40.209474" lon="9.5471402"><ele>754.0</ele><time>2026-05-02T08:46:24.193Z</time></trkpt><trkpt lat="40.2095674" lon="9.5472655"><ele>754.0</ele><time>2026-05-02T08:46:25.192Z</time></trkpt><trkpt lat="40.2096673" lon="9.5473774"><ele>750.75</ele><time>2026-05-02T08:46:26.192Z</time></trkpt><trkpt lat="40.2097709" lon="9.547482"><ele>747.5</ele><time>2026-05-02T08:46:27.193Z</time></trkpt><trkpt lat="40.2098644" lon="9.5475979"><ele>744.25</ele><time>2026-05-02T08:46:28.192Z</time></trkpt><trkpt lat="40.2099456" lon="9.54773"><ele>741.0</ele><time>2026-05-02T08:46:29.193Z</time></trkpt><trkpt lat="40.2100198" lon="9.5478645"><ele>747.25</ele><time>2026-05-02T08:46:30.193Z</time></trkpt><trkpt lat="40.210094" lon="9.547993"><ele>753.5</ele><time>2026-05-02T08:46:31.193Z</time></trkpt><trkpt lat="40.2101761" lon="9.5481104"><ele>759.75</ele><time>2026-05-02T08:46:32.192Z</time></trkpt><trkpt lat="40.2102693" lon="9.5482057"><ele>766.0</ele><time>2026-05-02T08:46:33.192Z</time></trkpt><trkpt lat="40.2103758" lon="9.5482884"><ele>766.0</ele><time>2026-05-02T08:46:34.193Z</time></trkpt><trkpt lat="40.2104892" lon="9.5483699"><ele>766.0</ele><time>2026-05-02T08:46:35.193Z</time></trkpt><trkpt lat="40.2106088" lon="9.5484563"><ele>766.0</ele><time>2026-05-02T08:46:36.192Z</time></trkpt><trkpt lat="40.2107323" lon="9.54855"><ele>766.0</ele><time>2026-05-02T08:46:37.192Z</time></trkpt><trkpt lat="40.2108583" lon="9.5486463"><ele>766.0</ele><time>2026-05-02T08:46:38.193Z</time></trkpt><trkpt lat="40.2109832" lon="9.5487465"><ele>766.0</ele><time>2026-05-02T08:46:39.192Z</time></trkpt><trkpt lat="40.2111024" lon="9.5488538"><ele>766.0</ele><time>2026-05-02T08:46:40.192Z</time></trkpt><trkpt lat="40.2112094" lon="9.5489806"><ele>766.0</ele><time>2026-05-02T08:46:41.192Z</time></trkpt><trkpt lat="40.2113083" lon="9.5491125"><ele>766.0</ele><time>2026-05-02T08:46:42.192Z</time></trkpt><trkpt lat="40.2114056" lon="9.5492429"><ele>766.0</ele><time>2026-05-02T08:46:43.193Z</time></trkpt><trkpt lat="40.2114991" lon="9.5493782"><ele>766.0</ele><time>2026-05-02T08:46:44.193Z</time></trkpt><trkpt lat="40.2115858" lon="9.5495176"><ele>766.0</ele><time>2026-05-02T08:46:45.193Z</time></trkpt><trkpt lat="40.2116705" lon="9.5496593"><ele>763.0</ele><time>2026-05-02T08:46:46.192Z</time></trkpt><trkpt lat="40.2117622" lon="9.5497892"><ele>760.0</ele><time>2026-05-02T08:46:47.192Z</time></trkpt><trkpt lat="40.2118629" lon="9.5499067"><ele>757.0</ele><time>2026-05-02T08:46:48.192Z</time></trkpt><trkpt lat="40.2119687" lon="9.5500157"><ele>754.0</ele><time>2026-05-02T08:46:49.192Z</time></trkpt><trkpt lat="40.2120762" lon="9.5501256"><ele>754.0</ele><time>2026-05-02T08:46:50.192Z</time></trkpt><trkpt lat="40.2121767" lon="9.5502433"><ele>754.0</ele><time>2026-05-02T08:46:51.193Z</time></trkpt><trkpt lat="40.2122743" lon="9.5503662"><ele>754.0</ele><time>2026-05-02T08:46:52.192Z</time></trkpt><trkpt lat="40.212372" lon="9.550488"><ele>754.0</ele><time>2026-05-02T08:46:53.193Z</time></trkpt><trkpt lat="40.2124719" lon="9.550605"><ele>749.25</ele><time>2026-05-02T08:46:54.192Z</time></trkpt><trkpt lat="40.2125745" lon="9.5507177"><ele>744.5</ele><time>2026-05-02T08:46:55.192Z</time></trkpt><trkpt lat="40.2126841" lon="9.5508281"><ele>739.75</ele><time>2026-05-02T08:46:56.192Z</time></trkpt><trkpt lat="40.2127988" lon="9.5509335"><ele>735.0</ele><time>2026-05-02T08:46:57.192Z</time></trkpt><trkpt lat="40.2129223" lon="9.551036"><ele>735.0</ele><time>2026-05-02T08:46:58.192Z</time></trkpt><trkpt lat="40.2130611" lon="9.5511372"><ele>735.0</ele><time>2026-05-02T08:46:59.192Z</time></trkpt><trkpt lat="40.2132151" lon="9.5512349"><ele>735.0</ele><time>2026-05-02T08:47:00.193Z</time></trkpt><trkpt lat="40.2133778" lon="9.5513329"><ele>738.3333333333334</ele><time>2026-05-02T08:47:01.193Z</time></trkpt><trkpt lat="40.2135371" lon="9.5514338"><ele>741.6666666666667</ele><time>2026-05-02T08:47:02.193Z</time></trkpt><trkpt lat="40.2136786" lon="9.5515241"><ele>745.0</ele><time>2026-05-02T08:47:03.193Z</time></trkpt><trkpt lat="40.2138149" lon="9.5516073"><ele>745.0</ele><time>2026-05-02T08:47:04.192Z</time></trkpt><trkpt lat="40.2139446" lon="9.5516872"><ele>745.0</ele><time>2026-05-02T08:47:05.193Z</time></trkpt><trkpt lat="40.2140634" lon="9.5517496"><ele>745.0</ele><time>2026-05-02T08:47:06.193Z</time></trkpt><trkpt lat="40.2141831" lon="9.5517958"><ele>745.0</ele><time>2026-05-02T08:47:07.192Z</time></trkpt><trkpt lat="40.2143247" lon="9.55181"><ele>735.0</ele><time>2026-05-02T08:47:08.192Z</time></trkpt><trkpt lat="40.2145052" lon="9.5518035"><ele>725.0</ele><time>2026-05-02T08:47:09.193Z</time></trkpt><trkpt lat="40.2146808" lon="9.5517988"><ele>715.0</ele><time>2026-05-02T08:47:10.192Z</time></trkpt><trkpt lat="40.2148315" lon="9.5518039"><ele>711.75</ele><time>2026-05-02T08:47:11.192Z</time></trkpt><trkpt lat="40.2149698" lon="9.5518037"><ele>708.5</ele><time>2026-05-02T08:47:12.192Z</time></trkpt><trkpt lat="40.2150919" lon="9.5518252"><ele>705.25</ele><time>2026-05-02T08:47:13.192Z</time></trkpt><trkpt lat="40.2152053" lon="9.5518951"><ele>702.0</ele><time>2026-05-02T08:47:14.192Z</time></trkpt><trkpt lat="40.2153126" lon="9.5519719"><ele>702.0</ele><time>2026-05-02T08:47:15.192Z</time></trkpt><trkpt lat="40.2154346" lon="9.5520391"><ele>702.0</ele><time>2026-05-02T08:47:16.192Z</time></trkpt><trkpt lat="40.215576" lon="9.5520923"><ele>702.0</ele><time>2026-05-02T08:47:17.193Z</time></trkpt><trkpt lat="40.2157266" lon="9.5521395"><ele>702.0</ele><time>2026-05-02T08:47:18.192Z</time></trkpt><trkpt lat="40.2158687" lon="9.5521781"><ele>710.6666666666666</ele><time>2026-05-02T08:47:19.192Z</time></trkpt><trkpt lat="40.2160176" lon="9.5522072"><ele>719.3333333333333</ele><time>2026-05-02T08:47:20.193Z</time></trkpt><trkpt lat="40.216202" lon="9.5522189"><ele>728.0</ele><time>2026-05-02T08:47:21.193Z</time></trkpt><trkpt lat="40.2163583" lon="9.5522151"><ele>724.0</ele><time>2026-05-02T08:47:22.192Z</time></trkpt><trkpt lat="40.2165041" lon="9.552205"><ele>720.0</ele><time>2026-05-02T08:47:23.193Z</time></trkpt><trkpt lat="40.2166367" lon="9.5522007"><ele>716.0</ele><time>2026-05-02T08:47:24.192Z</time></trkpt><trkpt lat="40.2167684" lon="9.5522179"><ele>712.0</ele><time>2026-05-02T08:47:25.193Z</time></trkpt><trkpt lat="40.2168935" lon="9.5522492"><ele>712.0</ele><time>2026-05-02T08:47:26.193Z</time></trkpt><trkpt lat="40.2170128" lon="9.552289"><ele>712.0</ele><time>2026-05-02T08:47:27.192Z</time></trkpt><trkpt lat="40.2171291" lon="9.5523466"><ele>712.0</ele><time>2026-05-02T08:47:28.192Z</time></trkpt><trkpt lat="40.2172414" lon="9.5524325"><ele>712.0</ele><time>2026-05-02T08:47:29.192Z</time></trkpt><trkpt lat="40.2173516" lon="9.5525467"><ele>708.0</ele><time>2026-05-02T08:47:30.192Z</time></trkpt><trkpt lat="40.2174648" lon="9.5526697"><ele>704.0</ele><time>2026-05-02T08:47:31.193Z</time></trkpt><trkpt lat="40.2175852" lon="9.5527752"><ele>700.0</ele><time>2026-05-02T08:47:32.192Z</time></trkpt><trkpt lat="40.217712" lon="9.552847"><ele>696.0</ele><time>2026-05-02T08:47:33.192Z</time></trkpt><trkpt lat="40.2178342" lon="9.5529095"><ele>700.5</ele><time>2026-05-02T08:47:34.193Z</time></trkpt><trkpt lat="40.2179577" lon="9.5529495"><ele>705.0</ele><time>2026-05-02T08:47:35.192Z</time></trkpt><trkpt lat="40.2180875" lon="9.5529583"><ele>709.5</ele><time>2026-05-02T08:47:36.192Z</time></trkpt><trkpt lat="40.2182105" lon="9.5529597"><ele>714.0</ele><time>2026-05-02T08:47:37.192Z</time></trkpt><trkpt lat="40.2183297" lon="9.552976"><ele>714.0</ele><time>2026-05-02T08:47:38.193Z</time></trkpt><trkpt lat="40.218452" lon="9.5530348"><ele>714.0</ele><time>2026-05-02T08:47:39.192Z</time></trkpt><trkpt lat="40.218571" lon="9.5531211"><ele>714.0</ele><time>2026-05-02T08:47:40.193Z</time></trkpt><trkpt lat="40.2186839" lon="9.553206"><ele>714.0</ele><time>2026-05-02T08:47:41.192Z</time></trkpt><trkpt lat="40.2187972" lon="9.5532731"><ele>714.0</ele><time>2026-05-02T08:47:42.192Z</time></trkpt><trkpt lat="40.2189136" lon="9.5533068"><ele>714.0</ele><time>2026-05-02T08:47:43.193Z</time></trkpt><trkpt lat="40.2190284" lon="9.5533114"><ele>714.0</ele><time>2026-05-02T08:47:44.192Z</time></trkpt><trkpt lat="40.2191346" lon="9.5533209"><ele>714.0</ele><time>2026-05-02T08:47:45.193Z</time></trkpt><trkpt lat="40.2192342" lon="9.5533738"><ele>714.0</ele><time>2026-05-02T08:47:46.193Z</time></trkpt><trkpt lat="40.2193184" lon="9.5534747"><ele>718.75</ele><time>2026-05-02T08:47:47.193Z</time></trkpt><trkpt lat="40.2193808" lon="9.5535919"><ele>723.5</ele><time>2026-05-02T08:47:48.193Z</time></trkpt><trkpt lat="40.2194453" lon="9.5537074"><ele>728.25</ele><time>2026-05-02T08:47:49.193Z</time></trkpt><trkpt lat="40.2195405" lon="9.553797"><ele>733.0</ele><time>2026-05-02T08:47:50.192Z</time></trkpt><trkpt lat="40.2196585" lon="9.553852"><ele>733.0</ele><time>2026-05-02T08:47:51.192Z</time></trkpt><trkpt lat="40.2198024" lon="9.5538726"><ele>733.0</ele><time>2026-05-02T08:47:52.193Z</time></trkpt><trkpt lat="40.2199778" lon="9.5538821"><ele>733.0</ele><time>2026-05-02T08:47:53.193Z</time></trkpt><trkpt lat="40.220173" lon="9.5539008"><ele>722.0</ele><time>2026-05-02T08:47:54.193Z</time></trkpt><trkpt lat="40.2203443" lon="9.5539366"><ele>711.0</ele><time>2026-05-02T08:47:55.192Z</time></trkpt><trkpt lat="40.2205103" lon="9.5539569"><ele>700.0</ele><time>2026-05-02T08:47:56.192Z</time></trkpt><trkpt lat="40.2206695" lon="9.5539271"><ele>697.6666666666667</ele><time>2026-05-02T08:47:57.192Z</time></trkpt><trkpt lat="40.2208177" lon="9.5538707"><ele>695.3333333333334</ele><time>2026-05-02T08:47:58.192Z</time></trkpt><trkpt lat="40.2209531" lon="9.5538241"><ele>693.0</ele><time>2026-05-02T08:47:59.192Z</time></trkpt><trkpt lat="40.2211232" lon="9.5538363"><ele>693.0</ele><time>2026-05-02T08:48:00.192Z</time></trkpt><trkpt lat="40.2213384" lon="9.5538672"><ele>693.0</ele><time>2026-05-02T08:48:01.193Z</time></trkpt><trkpt lat="40.2215608" lon="9.5538873"><ele>693.0</ele><time>2026-05-02T08:48:02.192Z</time></trkpt><trkpt lat="40.2217566" lon="9.5538987"><ele>690.3333333333334</ele><time>2026-05-02T08:48:03.193Z</time></trkpt><trkpt lat="40.2219461" lon="9.5539098"><ele>687.6666666666667</ele><time>2026-05-02T08:48:04.193Z</time></trkpt><trkpt lat="40.2221252" lon="9.5539059"><ele>685.0</ele><time>2026-05-02T08:48:05.192Z</time></trkpt><trkpt lat="40.2223071" lon="9.5538868"><ele>684.3333333333334</ele><time>2026-05-02T08:48:06.192Z</time></trkpt><trkpt lat="40.2224866" lon="9.5538855"><ele>683.6666666666666</ele><time>2026-05-02T08:48:07.193Z</time></trkpt><trkpt lat="40.2226709" lon="9.5539187"><ele>683.0</ele><time>2026-05-02T08:48:08.193Z</time></trkpt><trkpt lat="40.2228592" lon="9.5539651"><ele>683.0</ele><time>2026-05-02T08:48:09.193Z</time></trkpt><trkpt lat="40.2230568" lon="9.5539844"><ele>683.0</ele><time>2026-05-02T08:48:10.193Z</time></trkpt><trkpt lat="40.2232508" lon="9.5539656"><ele>683.0</ele><time>2026-05-02T08:48:11.192Z</time></trkpt><trkpt lat="40.2234464" lon="9.5539345"><ele>680.6666666666666</ele><time>2026-05-02T08:48:12.192Z</time></trkpt><trkpt lat="40.2236288" lon="9.5539249"><ele>678.3333333333334</ele><time>2026-05-02T08:48:13.192Z</time></trkpt><trkpt lat="40.223808" lon="9.5539437"><ele>676.0</ele><time>2026-05-02T08:48:14.192Z</time></trkpt><trkpt lat="40.2239882" lon="9.5539988"><ele>671.3333333333334</ele><time>2026-05-02T08:48:15.193Z</time></trkpt><trkpt lat="40.2241705" lon="9.5540893"><ele>666.6666666666666</ele><time>2026-05-02T08:48:16.193Z</time></trkpt><trkpt lat="40.2243613" lon="9.5541845"><ele>662.0</ele><time>2026-05-02T08:48:17.193Z</time></trkpt><trkpt lat="40.2245656" lon="9.5542499"><ele>662.0</ele><time>2026-05-02T08:48:18.193Z</time></trkpt><trkpt lat="40.2247669" lon="9.5543236"><ele>662.0</ele><time>2026-05-02T08:48:19.193Z</time></trkpt><trkpt lat="40.2249503" lon="9.5544183"><ele>662.0</ele><time>2026-05-02T08:48:20.192Z</time></trkpt><trkpt lat="40.2251229" lon="9.5545215"><ele>664.3333333333333</ele><time>2026-05-02T08:48:21.193Z</time></trkpt><trkpt lat="40.225272" lon="9.554639"><ele>666.6666666666666</ele><time>2026-05-02T08:48:22.192Z</time></trkpt><trkpt lat="40.2253899" lon="9.5547643"><ele>669.0</ele><time>2026-05-02T08:48:23.193Z</time></trkpt><trkpt lat="40.225509" lon="9.5548747"><ele>663.6666666666666</ele><time>2026-05-02T08:48:24.192Z</time></trkpt><trkpt lat="40.2256559" lon="9.5549314"><ele>658.3333333333333</ele><time>2026-05-02T08:48:25.193Z</time></trkpt><trkpt lat="40.2258312" lon="9.5549735"><ele>653.0</ele><time>2026-05-02T08:48:26.193Z</time></trkpt><trkpt lat="40.2260274" lon="9.5550297"><ele>653.0</ele><time>2026-05-02T08:48:27.193Z</time></trkpt><trkpt lat="40.2262325" lon="9.5550966"><ele>653.0</ele><time>2026-05-02T08:48:28.192Z</time></trkpt><trkpt lat="40.2264297" lon="9.5551677"><ele>653.0</ele><time>2026-05-02T08:48:29.192Z</time></trkpt><trkpt lat="40.2266304" lon="9.5552515"><ele>647.3333333333333</ele><time>2026-05-02T08:48:30.192Z</time></trkpt><trkpt lat="40.2268327" lon="9.5553416"><ele>641.6666666666666</ele><time>2026-05-02T08:48:31.193Z</time></trkpt><trkpt lat="40.2270421" lon="9.5554298"><ele>636.0</ele><time>2026-05-02T08:48:32.192Z</time></trkpt><trkpt lat="40.2272532" lon="9.5555087"><ele>644.3333333333334</ele><time>2026-05-02T08:48:33.193Z</time></trkpt><trkpt lat="40.2274449" lon="9.5555806"><ele>652.6666666666667</ele><time>2026-05-02T08:48:34.193Z</time></trkpt><trkpt lat="40.2276203" lon="9.5556603"><ele>661.0</ele><time>2026-05-02T08:48:35.193Z</time></trkpt><trkpt lat="40.227785" lon="9.5557766"><ele>661.0</ele><time>2026-05-02T08:48:36.192Z</time></trkpt><trkpt lat="40.227954" lon="9.5559266"><ele>661.0</ele><time>2026-05-02T08:48:37.193Z</time></trkpt><trkpt lat="40.2281274" lon="9.5560778"><ele>661.0</ele><time>2026-05-02T08:48:38.192Z</time></trkpt><trkpt lat="40.2283222" lon="9.5561929"><ele>662.6666666666667</ele><time>2026-05-02T08:48:39.193Z</time></trkpt><trkpt lat="40.2285233" lon="9.5562865"><ele>664.3333333333334</ele><time>2026-05-02T08:48:40.193Z</time></trkpt><trkpt lat="40.2286928" lon="9.5563607"><ele>666.0</ele><time>2026-05-02T08:48:41.192Z</time></trkpt><trkpt lat="40.2288398" lon="9.5564159"><ele>666.0</ele><time>2026-05-02T08:48:42.192Z</time></trkpt><trkpt lat="40.2289728" lon="9.556416"><ele>666.0</ele><time>2026-05-02T08:48:43.192Z</time></trkpt><trkpt lat="40.2290919" lon="9.5563521"><ele>666.0</ele><time>2026-05-02T08:48:44.192Z</time></trkpt><trkpt lat="40.2291963" lon="9.5562565"><ele>666.0</ele><time>2026-05-02T08:48:45.193Z</time></trkpt><trkpt lat="40.2293133" lon="9.5562057"><ele>663.0</ele><time>2026-05-02T08:48:46.193Z</time></trkpt><trkpt lat="40.2294308" lon="9.5562128"><ele>660.0</ele><time>2026-05-02T08:48:47.192Z</time></trkpt><trkpt lat="40.2295375" lon="9.5562837"><ele>657.0</ele><time>2026-05-02T08:48:48.192Z</time></trkpt><trkpt lat="40.2296563" lon="9.5564119"><ele>654.0</ele><time>2026-05-02T08:48:49.193Z</time></trkpt><trkpt lat="40.2298027" lon="9.5565625"><ele>648.3333333333334</ele><time>2026-05-02T08:48:50.192Z</time></trkpt><trkpt lat="40.2299561" lon="9.5566668"><ele>642.6666666666667</ele><time>2026-05-02T08:48:51.192Z</time></trkpt><trkpt lat="40.2301351" lon="9.5567649"><ele>637.0</ele><time>2026-05-02T08:48:52.193Z</time></trkpt><trkpt lat="40.2303219" lon="9.5568453"><ele>637.0</ele><time>2026-05-02T08:48:53.192Z</time></trkpt><trkpt lat="40.2305009" lon="9.5568896"><ele>637.0</ele><time>2026-05-02T08:48:54.192Z</time></trkpt><trkpt lat="40.2306691" lon="9.5569157"><ele>637.0</ele><time>2026-05-02T08:48:55.193Z</time></trkpt><trkpt lat="40.2308146" lon="9.5569543"><ele>643.6666666666667</ele><time>2026-05-02T08:48:56.193Z</time></trkpt><trkpt lat="40.2309429" lon="9.5570447"><ele>650.3333333333334</ele><time>2026-05-02T08:48:57.192Z</time></trkpt><trkpt lat="40.2310637" lon="9.5571902"><ele>657.0</ele><time>2026-05-02T08:48:58.193Z</time></trkpt><trkpt lat="40.231166" lon="9.5573443"><ele>657.0</ele><time>2026-05-02T08:48:59.193Z</time></trkpt><trkpt lat="40.2312597" lon="9.5574738"><ele>657.0</ele><time>2026-05-02T08:49:00.192Z</time></trkpt><trkpt lat="40.231369" lon="9.557563"><ele>657.0</ele><time>2026-05-02T08:49:01.192Z</time></trkpt><trkpt lat="40.2314993" lon="9.5575921"><ele>657.0</ele><time>2026-05-02T08:49:02.192Z</time></trkpt><trkpt lat="40.2316394" lon="9.5575715"><ele>648.0</ele><time>2026-05-02T08:49:03.193Z</time></trkpt><trkpt lat="40.2317814" lon="9.5575612"><ele>639.0</ele><time>2026-05-02T08:49:04.193Z</time></trkpt><trkpt lat="40.2319384" lon="9.5576012"><ele>630.0</ele><time>2026-05-02T08:49:05.192Z</time></trkpt><trkpt lat="40.232113" lon="9.5576628"><ele>630.0</ele><time>2026-05-02T08:49:06.193Z</time></trkpt><trkpt lat="40.2322999" lon="9.5577342"><ele>630.0</ele><time>2026-05-02T08:49:07.192Z</time></trkpt><trkpt lat="40.2324777" lon="9.557813"><ele>630.0</ele><time>2026-05-02T08:49:08.192Z</time></trkpt><trkpt lat="40.2326313" lon="9.5579003"><ele>635.25</ele><time>2026-05-02T08:49:09.192Z</time></trkpt><trkpt lat="40.2327601" lon="9.5579889"><ele>640.5</ele><time>2026-05-02T08:49:10.192Z</time></trkpt><trkpt lat="40.2328699" lon="9.5580778"><ele>645.75</ele><time>2026-05-02T08:49:11.193Z</time></trkpt><trkpt lat="40.232959" lon="9.5581916"><ele>651.0</ele><time>2026-05-02T08:49:12.193Z</time></trkpt><trkpt lat="40.2330181" lon="9.5583401"><ele>651.0</ele><time>2026-05-02T08:49:13.193Z</time></trkpt><trkpt lat="40.2330525" lon="9.5585073"><ele>651.0</ele><time>2026-05-02T08:49:14.193Z</time></trkpt><trkpt lat="40.233095" lon="9.5586653"><ele>651.0</ele><time>2026-05-02T08:49:15.193Z</time></trkpt><trkpt lat="40.2331946" lon="9.5587871"><ele>651.0</ele><time>2026-05-02T08:49:16.193Z</time></trkpt><trkpt lat="40.2333308" lon="9.5589007"><ele>648.6666666666666</ele><time>2026-05-02T08:49:17.192Z</time></trkpt><trkpt lat="40.2334792" lon="9.5590393"><ele>646.3333333333333</ele><time>2026-05-02T08:49:18.192Z</time></trkpt><trkpt lat="40.2336126" lon="9.5592079"><ele>644.0</ele><time>2026-05-02T08:49:19.192Z</time></trkpt><trkpt lat="40.2337584" lon="9.5593724"><ele>644.0</ele><time>2026-05-02T08:49:20.192Z</time></trkpt><trkpt lat="40.2339304" lon="9.5595081"><ele>644.0</ele><time>2026-05-02T08:49:21.193Z</time></trkpt><trkpt lat="40.2341171" lon="9.5596502"><ele>644.0</ele><time>2026-05-02T08:49:22.193Z</time></trkpt><trkpt lat="40.2343108" lon="9.5598087"><ele>641.0</ele><time>2026-05-02T08:49:23.193Z</time></trkpt><trkpt lat="40.2345039" lon="9.5599828"><ele>638.0</ele><time>2026-05-02T08:49:24.193Z</time></trkpt><trkpt lat="40.2346838" lon="9.560149"><ele>642.0</ele><time>2026-05-02T08:49:25.193Z</time></trkpt><trkpt lat="40.2348591" lon="9.5603016"><ele>646.0</ele><time>2026-05-02T08:49:26.193Z</time></trkpt><trkpt lat="40.2350439" lon="9.5604175"><ele>650.0</ele><time>2026-05-02T08:49:27.193Z</time></trkpt><trkpt lat="40.2352384" lon="9.5605023"><ele>650.0</ele><time>2026-05-02T08:49:28.193Z</time></trkpt><trkpt lat="40.2354341" lon="9.560564"><ele>650.0</ele><time>2026-05-02T08:49:29.193Z</time></trkpt><trkpt lat="40.2356183" lon="9.5606273"><ele>650.0</ele><time>2026-05-02T08:49:30.193Z</time></trkpt><trkpt lat="40.2357823" lon="9.5607236"><ele>639.0</ele><time>2026-05-02T08:49:31.193Z</time></trkpt><trkpt lat="40.2359352" lon="9.560835"><ele>628.0</ele><time>2026-05-02T08:49:32.192Z</time></trkpt><trkpt lat="40.2360754" lon="9.5609671"><ele>617.0</ele><time>2026-05-02T08:49:33.193Z</time></trkpt><trkpt lat="40.2362059" lon="9.5611306"><ele>615.3333333333333</ele><time>2026-05-02T08:49:34.193Z</time></trkpt><trkpt lat="40.2363287" lon="9.5613138"><ele>613.6666666666666</ele><time>2026-05-02T08:49:35.192Z</time></trkpt><trkpt lat="40.2364663" lon="9.5615"><ele>612.0</ele><time>2026-05-02T08:49:36.193Z</time></trkpt><trkpt lat="40.2366297" lon="9.5616747"><ele>612.0</ele><time>2026-05-02T08:49:37.193Z</time></trkpt><trkpt lat="40.2368118" lon="9.5618417"><ele>612.0</ele><time>2026-05-02T08:49:38.193Z</time></trkpt><trkpt lat="40.2369964" lon="9.5620029"><ele>612.0</ele><time>2026-05-02T08:49:39.192Z</time></trkpt><trkpt lat="40.2371714" lon="9.5621537"><ele>609.0</ele><time>2026-05-02T08:49:40.193Z</time></trkpt><trkpt lat="40.2373401" lon="9.5623022"><ele>606.0</ele><time>2026-05-02T08:49:41.193Z</time></trkpt><trkpt lat="40.2374977" lon="9.5624554"><ele>603.0</ele><time>2026-05-02T08:49:42.193Z</time></trkpt><trkpt lat="40.2376369" lon="9.5626208"><ele>603.0</ele><time>2026-05-02T08:49:43.192Z</time></trkpt><trkpt lat="40.2377665" lon="9.5628051"><ele>603.0</ele><time>2026-05-02T08:49:44.192Z</time></trkpt><trkpt lat="40.2378852" lon="9.5630022"><ele>603.0</ele><time>2026-05-02T08:49:45.193Z</time></trkpt><trkpt lat="40.2379918" lon="9.5632129"><ele>608.3333333333334</ele><time>2026-05-02T08:49:46.192Z</time></trkpt><trkpt lat="40.2380781" lon="9.5634342"><ele>613.6666666666667</ele><time>2026-05-02T08:49:47.193Z</time></trkpt><trkpt lat="40.2381546" lon="9.56366"><ele>619.0</ele><time>2026-05-02T08:49:48.192Z</time></trkpt><trkpt lat="40.2382454" lon="9.5638837"><ele>619.0</ele><time>2026-05-02T08:49:49.192Z</time></trkpt><trkpt lat="40.2383586" lon="9.564098"><ele>619.0</ele><time>2026-05-02T08:49:50.193Z</time></trkpt><trkpt lat="40.2384888" lon="9.564302"><ele>619.0</ele><time>2026-05-02T08:49:51.193Z</time></trkpt><trkpt lat="40.2386413" lon="9.564486"><ele>615.0</ele><time>2026-05-02T08:49:52.193Z</time></trkpt><trkpt lat="40.2388076" lon="9.5646427"><ele>611.0</ele><time>2026-05-02T08:49:53.193Z</time></trkpt><trkpt lat="40.2389818" lon="9.5647602"><ele>607.0</ele><time>2026-05-02T08:49:54.193Z</time></trkpt><trkpt lat="40.2391526" lon="9.5648398"><ele>607.0</ele><time>2026-05-02T08:49:55.192Z</time></trkpt><trkpt lat="40.2393099" lon="9.5649397"><ele>607.0</ele><time>2026-05-02T08:49:56.193Z</time></trkpt><trkpt lat="40.2394469" lon="9.5650922"><ele>607.0</ele><time>2026-05-02T08:49:57.192Z</time></trkpt><trkpt lat="40.2395874" lon="9.5652682"><ele>606.0</ele><time>2026-05-02T08:49:58.193Z</time></trkpt><trkpt lat="40.2397571" lon="9.565428"><ele>605.0</ele><time>2026-05-02T08:49:59.193Z</time></trkpt><trkpt lat="40.2399545" lon="9.5655735"><ele>604.0</ele><time>2026-05-02T08:50:00.192Z</time></trkpt><trkpt lat="40.2401664" lon="9.5657134"><ele>604.0</ele><time>2026-05-02T08:50:01.193Z</time></trkpt><trkpt lat="40.2403842" lon="9.5658341"><ele>604.0</ele><time>2026-05-02T08:50:02.193Z</time></trkpt><trkpt lat="40.240596" lon="9.5659264"><ele>592.6666666666667</ele><time>2026-05-02T08:50:03.192Z</time></trkpt><trkpt lat="40.240794" lon="9.5659985"><ele>581.3333333333334</ele><time>2026-05-02T08:50:04.193Z</time></trkpt><trkpt lat="40.2409789" lon="9.5660711"><ele>570.0</ele><time>2026-05-02T08:50:05.192Z</time></trkpt><trkpt lat="40.2411518" lon="9.5661511"><ele>572.3333333333334</ele><time>2026-05-02T08:50:06.193Z</time></trkpt><trkpt lat="40.2413136" lon="9.566255"><ele>574.6666666666667</ele><time>2026-05-02T08:50:07.192Z</time></trkpt><trkpt lat="40.2414619" lon="9.5663765"><ele>577.0</ele><time>2026-05-02T08:50:08.192Z</time></trkpt><trkpt lat="40.2415891" lon="9.56651"><ele>577.0</ele><time>2026-05-02T08:50:09.192Z</time></trkpt><trkpt lat="40.2416977" lon="9.5666554"><ele>577.0</ele><time>2026-05-02T08:50:10.193Z</time></trkpt><trkpt lat="40.2417845" lon="9.5668196"><ele>577.0</ele><time>2026-05-02T08:50:11.192Z</time></trkpt><trkpt lat="40.2418411" lon="9.5670093"><ele>582.25</ele><time>2026-05-02T08:50:12.192Z</time></trkpt><trkpt lat="40.2418729" lon="9.5672007"><ele>587.5</ele><time>2026-05-02T08:50:13.192Z</time></trkpt><trkpt lat="40.2419222" lon="9.5673698"><ele>592.75</ele><time>2026-05-02T08:50:14.193Z</time></trkpt><trkpt lat="40.2420223" lon="9.5675105"><ele>598.0</ele><time>2026-05-02T08:50:15.193Z</time></trkpt><trkpt lat="40.2421606" lon="9.5676399"><ele>597.3333333333334</ele><time>2026-05-02T08:50:16.192Z</time></trkpt><trkpt lat="40.242334" lon="9.5677778"><ele>596.6666666666666</ele><time>2026-05-02T08:50:17.193Z</time></trkpt><trkpt lat="40.2425139" lon="9.5679142"><ele>596.0</ele><time>2026-05-02T08:50:18.192Z</time></trkpt><trkpt lat="40.2426832" lon="9.5680387"><ele>596.0</ele><time>2026-05-02T08:50:19.192Z</time></trkpt><trkpt lat="40.2428442" lon="9.5681686"><ele>596.0</ele><time>2026-05-02T08:50:20.193Z</time></trkpt><trkpt lat="40.2430028" lon="9.5682943"><ele>596.0</ele><time>2026-05-02T08:50:21.193Z</time></trkpt><trkpt lat="40.2431782" lon="9.568397"><ele>583.0</ele><time>2026-05-02T08:50:22.192Z</time></trkpt><trkpt lat="40.2433504" lon="9.5684694"><ele>570.0</ele><time>2026-05-02T08:50:23.193Z</time></trkpt><trkpt lat="40.2435149" lon="9.5685248"><ele>557.0</ele><time>2026-05-02T08:50:24.192Z</time></trkpt><trkpt lat="40.2436666" lon="9.5685871"><ele>559.3333333333333</ele><time>2026-05-02T08:50:25.193Z</time></trkpt><trkpt lat="40.2438049" lon="9.5686963"><ele>561.6666666666666</ele><time>2026-05-02T08:50:26.192Z</time></trkpt><trkpt lat="40.2439489" lon="9.5688397"><ele>564.0</ele><time>2026-05-02T08:50:27.192Z</time></trkpt><trkpt lat="40.2441052" lon="9.5690024"><ele>564.0</ele><time>2026-05-02T08:50:28.193Z</time></trkpt><trkpt lat="40.2442709" lon="9.5691769"><ele>564.0</ele><time>2026-05-02T08:50:29.193Z</time></trkpt><trkpt lat="40.2444472" lon="9.5693628"><ele>564.0</ele><time>2026-05-02T08:50:30.192Z</time></trkpt><trkpt lat="40.2446295" lon="9.5695572"><ele>563.6666666666666</ele><time>2026-05-02T08:50:31.192Z</time></trkpt><trkpt lat="40.2447955" lon="9.5697366"><ele>563.3333333333333</ele><time>2026-05-02T08:50:32.192Z</time></trkpt><trkpt lat="40.2449387" lon="9.5699113"><ele>563.0</ele><time>2026-05-02T08:50:33.193Z</time></trkpt><trkpt lat="40.245059" lon="9.5700833"><ele>563.0</ele><time>2026-05-02T08:50:34.192Z</time></trkpt><trkpt lat="40.2451854" lon="9.5702455"><ele>563.0</ele><time>2026-05-02T08:50:35.192Z</time></trkpt><trkpt lat="40.2453436" lon="9.5703797"><ele>563.0</ele><time>2026-05-02T08:50:36.193Z</time></trkpt><trkpt lat="40.2455079" lon="9.5705279"><ele>561.0</ele><time>2026-05-02T08:50:37.192Z</time></trkpt><trkpt lat="40.2456823" lon="9.5706969"><ele>559.0</ele><time>2026-05-02T08:50:38.193Z</time></trkpt><trkpt lat="40.2458679" lon="9.5708666"><ele>557.0</ele><time>2026-05-02T08:50:39.193Z</time></trkpt><trkpt lat="40.2460626" lon="9.571023"><ele>557.0</ele><time>2026-05-02T08:50:40.193Z</time></trkpt><trkpt lat="40.2462536" lon="9.5711636"><ele>557.0</ele><time>2026-05-02T08:50:41.192Z</time></trkpt><trkpt lat="40.2464394" lon="9.571299"><ele>557.0</ele><time>2026-05-02T08:50:42.193Z</time></trkpt><trkpt lat="40.2466126" lon="9.5714416"><ele>558.0</ele><time>2026-05-02T08:50:43.192Z</time></trkpt><trkpt lat="40.2467586" lon="9.5715918"><ele>559.0</ele><time>2026-05-02T08:50:44.193Z</time></trkpt><trkpt lat="40.2468887" lon="9.5717399"><ele>560.0</ele><time>2026-05-02T08:50:45.192Z</time></trkpt><trkpt lat="40.2470289" lon="9.5718587"><ele>560.0</ele><time>2026-05-02T08:50:46.193Z</time></trkpt><trkpt lat="40.2471971" lon="9.5719253"><ele>560.0</ele><time>2026-05-02T08:50:47.193Z</time></trkpt><trkpt lat="40.2473771" lon="9.5719542"><ele>560.0</ele><time>2026-05-02T08:50:48.192Z</time></trkpt><trkpt lat="40.247547" lon="9.5720052"><ele>567.3333333333333</ele><time>2026-05-02T08:50:49.192Z</time></trkpt><trkpt lat="40.24772" lon="9.5721008"><ele>574.6666666666666</ele><time>2026-05-02T08:50:50.192Z</time></trkpt><trkpt lat="40.2479018" lon="9.5722492"><ele>582.0</ele><time>2026-05-02T08:50:51.193Z</time></trkpt><trkpt lat="40.2480862" lon="9.5724156"><ele>569.6666666666666</ele><time>2026-05-02T08:50:52.192Z</time></trkpt><trkpt lat="40.2482672" lon="9.5725764"><ele>557.3333333333333</ele><time>2026-05-02T08:50:53.193Z</time></trkpt><trkpt lat="40.2484548" lon="9.5727091"><ele>545.0</ele><time>2026-05-02T08:50:54.192Z</time></trkpt><trkpt lat="40.2486325" lon="9.5728164"><ele>550.3333333333333</ele><time>2026-05-02T08:50:55.193Z</time></trkpt><trkpt lat="40.2487982" lon="9.5728972"><ele>555.6666666666666</ele><time>2026-05-02T08:50:56.192Z</time></trkpt><trkpt lat="40.2489619" lon="9.5729431"><ele>561.0</ele><time>2026-05-02T08:50:57.193Z</time></trkpt><trkpt lat="40.2491204" lon="9.5729589"><ele>561.0</ele><time>2026-05-02T08:50:58.193Z</time></trkpt><trkpt lat="40.2492715" lon="9.5729604"><ele>561.0</ele><time>2026-05-02T08:50:59.193Z</time></trkpt><trkpt lat="40.2494228" lon="9.5729669"><ele>561.0</ele><time>2026-05-02T08:51:00.192Z</time></trkpt><trkpt lat="40.2495874" lon="9.5730121"><ele>561.0</ele><time>2026-05-02T08:51:01.193Z</time></trkpt><trkpt lat="40.2497606" lon="9.5731074"><ele>561.0</ele><time>2026-05-02T08:51:02.193Z</time></trkpt><trkpt lat="40.2499503" lon="9.5732249"><ele>561.0</ele><time>2026-05-02T08:51:03.192Z</time></trkpt><trkpt lat="40.2501348" lon="9.5733391"><ele>552.6666666666666</ele><time>2026-05-02T08:51:04.193Z</time></trkpt><trkpt lat="40.2503153" lon="9.5734295"><ele>544.3333333333333</ele><time>2026-05-02T08:51:05.193Z</time></trkpt><trkpt lat="40.250494" lon="9.5734805"><ele>536.0</ele><time>2026-05-02T08:51:06.192Z</time></trkpt><trkpt lat="40.2506508" lon="9.5735143"><ele>541.6666666666666</ele><time>2026-05-02T08:51:07.193Z</time></trkpt><trkpt lat="40.2507887" lon="9.5736033"><ele>547.3333333333334</ele><time>2026-05-02T08:51:08.193Z</time></trkpt><trkpt lat="40.2509123" lon="9.5737313"><ele>553.0</ele><time>2026-05-02T08:51:09.193Z</time></trkpt><trkpt lat="40.2510503" lon="9.5738349"><ele>553.0</ele><time>2026-05-02T08:51:10.193Z</time></trkpt><trkpt lat="40.2512131" lon="9.573885"><ele>553.0</ele><time>2026-05-02T08:51:11.193Z</time></trkpt><trkpt lat="40.2513872" lon="9.5739359"><ele>553.0</ele><time>2026-05-02T08:51:12.192Z</time></trkpt><trkpt lat="40.2515512" lon="9.5740391"><ele>546.3333333333334</ele><time>2026-05-02T08:51:13.192Z</time></trkpt><trkpt lat="40.2517136" lon="9.5741709"><ele>539.6666666666666</ele><time>2026-05-02T08:51:14.193Z</time></trkpt><trkpt lat="40.2518689" lon="9.5742812"><ele>533.0</ele><time>2026-05-02T08:51:15.192Z</time></trkpt><trkpt lat="40.2520396" lon="9.5743553"><ele>533.0</ele><time>2026-05-02T08:51:16.192Z</time></trkpt><trkpt lat="40.2522212" lon="9.5744269"><ele>533.0</ele><time>2026-05-02T08:51:17.192Z</time></trkpt><trkpt lat="40.2524138" lon="9.5745347"><ele>533.0</ele><time>2026-05-02T08:51:18.192Z</time></trkpt><trkpt lat="40.2526263" lon="9.5746605"><ele>538.5</ele><time>2026-05-02T08:51:19.192Z</time></trkpt><trkpt lat="40.2528531" lon="9.5747819"><ele>544.0</ele><time>2026-05-02T08:51:20.193Z</time></trkpt><trkpt lat="40.2530591" lon="9.5748837"><ele>538.0</ele><time>2026-05-02T08:51:21.192Z</time></trkpt><trkpt lat="40.2532637" lon="9.5749749"><ele>532.0</ele><time>2026-05-02T08:51:22.193Z</time></trkpt><trkpt lat="40.2534594" lon="9.5750357"><ele>526.0</ele><time>2026-05-02T08:51:23.192Z</time></trkpt><trkpt lat="40.2536479" lon="9.5750703"><ele>526.0</ele><time>2026-05-02T08:51:24.192Z</time></trkpt><trkpt lat="40.2538249" lon="9.575093"><ele>526.0</ele><time>2026-05-02T08:51:25.193Z</time></trkpt><trkpt lat="40.2539827" lon="9.575109"><ele>526.0</ele><time>2026-05-02T08:51:26.193Z</time></trkpt><trkpt lat="40.2541228" lon="9.575138"><ele>526.75</ele><time>2026-05-02T08:51:27.193Z</time></trkpt><trkpt lat="40.2542381" lon="9.5752083"><ele>527.5</ele><time>2026-05-02T08:51:28.192Z</time></trkpt><trkpt lat="40.2543308" lon="9.5753335"><ele>528.25</ele><time>2026-05-02T08:51:29.193Z</time></trkpt><trkpt lat="40.2543975" lon="9.5755008"><ele>529.0</ele><time>2026-05-02T08:51:30.193Z</time></trkpt><trkpt lat="40.254457" lon="9.5756939"><ele>529.0</ele><time>2026-05-02T08:51:31.193Z</time></trkpt><trkpt lat="40.254552" lon="9.5758564"><ele>529.0</ele><time>2026-05-02T08:51:32.193Z</time></trkpt><trkpt lat="40.2546911" lon="9.5760213"><ele>529.0</ele><time>2026-05-02T08:51:33.193Z</time></trkpt><trkpt lat="40.2548522" lon="9.576189"><ele>527.0</ele><time>2026-05-02T08:51:34.193Z</time></trkpt><trkpt lat="40.2550112" lon="9.5763729"><ele>525.0</ele><time>2026-05-02T08:51:35.193Z</time></trkpt><trkpt lat="40.2551384" lon="9.5765468"><ele>523.0</ele><time>2026-05-02T08:51:36.192Z</time></trkpt><trkpt lat="40.2552548" lon="9.5767083"><ele>523.0</ele><time>2026-05-02T08:51:37.192Z</time></trkpt><trkpt lat="40.2554032" lon="9.5768421"><ele>523.0</ele><time>2026-05-02T08:51:38.193Z</time></trkpt><trkpt lat="40.2555783" lon="9.576919"><ele>523.0</ele><time>2026-05-02T08:51:39.193Z</time></trkpt><trkpt lat="40.2557718" lon="9.5769716"><ele>526.6666666666667</ele><time>2026-05-02T08:51:40.192Z</time></trkpt><trkpt lat="40.2559697" lon="9.5770552"><ele>530.3333333333334</ele><time>2026-05-02T08:51:41.192Z</time></trkpt><trkpt lat="40.2561556" lon="9.5771461"><ele>534.0</ele><time>2026-05-02T08:51:42.193Z</time></trkpt><trkpt lat="40.2563474" lon="9.5772066"><ele>527.6666666666666</ele><time>2026-05-02T08:51:43.192Z</time></trkpt><trkpt lat="40.2565541" lon="9.5772301"><ele>521.3333333333333</ele><time>2026-05-02T08:51:44.193Z</time></trkpt><trkpt lat="40.2567645" lon="9.5772351"><ele>515.0</ele><time>2026-05-02T08:51:45.193Z</time></trkpt><trkpt lat="40.2569597" lon="9.5772375"><ele>515.0</ele><time>2026-05-02T08:51:46.192Z</time></trkpt><trkpt lat="40.2571497" lon="9.5772647"><ele>515.0</ele><time>2026-05-02T08:51:47.192Z</time></trkpt><trkpt lat="40.2573394" lon="9.5773327"><ele>515.0</ele><time>2026-05-02T08:51:48.192Z</time></trkpt><trkpt lat="40.2575357" lon="9.5774159"><ele>509.66666666666663</ele><time>2026-05-02T08:51:49.192Z</time></trkpt><trkpt lat="40.2577437" lon="9.5774667"><ele>504.33333333333337</ele><time>2026-05-02T08:51:50.193Z</time></trkpt><trkpt lat="40.2579538" lon="9.5775017"><ele>499.0</ele><time>2026-05-02T08:51:51.193Z</time></trkpt><trkpt lat="40.2581474" lon="9.5775297"><ele>492.33333333333337</ele><time>2026-05-02T08:51:52.192Z</time></trkpt><trkpt lat="40.2583323" lon="9.577558"><ele>485.66666666666663</ele><time>2026-05-02T08:51:53.193Z</time></trkpt><trkpt lat="40.258509" lon="9.5776045"><ele>479.0</ele><time>2026-05-02T08:51:54.193Z</time></trkpt><trkpt lat="40.2586733" lon="9.5776757"><ele>479.0</ele><time>2026-05-02T08:51:55.193Z</time></trkpt><trkpt lat="40.2588317" lon="9.577743"><ele>479.0</ele><time>2026-05-02T08:51:56.192Z</time></trkpt><trkpt lat="40.2589899" lon="9.577767"><ele>479.0</ele><time>2026-05-02T08:51:57.192Z</time></trkpt><trkpt lat="40.259148" lon="9.5777505"><ele>476.5</ele><time>2026-05-02T08:51:58.192Z</time></trkpt><trkpt lat="40.2592927" lon="9.5777376"><ele>474.0</ele><time>2026-05-02T08:51:59.192Z</time></trkpt><trkpt lat="40.2594246" lon="9.5777805"><ele>471.5</ele><time>2026-05-02T08:52:00.192Z</time></trkpt><trkpt lat="40.259548" lon="9.5778757"><ele>469.0</ele><time>2026-05-02T08:52:01.193Z</time></trkpt><trkpt lat="40.2596514" lon="9.5780101"><ele>470.0</ele><time>2026-05-02T08:52:02.193Z</time></trkpt><trkpt lat="40.2597211" lon="9.5781858"><ele>471.0</ele><time>2026-05-02T08:52:03.192Z</time></trkpt><trkpt lat="40.2597784" lon="9.578351"><ele>472.0</ele><time>2026-05-02T08:52:04.192Z</time></trkpt><trkpt lat="40.2598655" lon="9.5784815"><ele>473.0</ele><time>2026-05-02T08:52:05.193Z</time></trkpt><trkpt lat="40.2599849" lon="9.5785796"><ele>473.0</ele><time>2026-05-02T08:52:06.192Z</time></trkpt><trkpt lat="40.2601488" lon="9.5786502"><ele>473.0</ele><time>2026-05-02T08:52:07.193Z</time></trkpt><trkpt lat="40.2603473" lon="9.5787214"><ele>473.0</ele><time>2026-05-02T08:52:08.193Z</time></trkpt><trkpt lat="40.2605537" lon="9.5788025"><ele>478.0</ele><time>2026-05-02T08:52:09.193Z</time></trkpt><trkpt lat="40.2607415" lon="9.5788884"><ele>483.0</ele><time>2026-05-02T08:52:10.193Z</time></trkpt><trkpt lat="40.2609246" lon="9.5789869"><ele>488.0</ele><time>2026-05-02T08:52:11.192Z</time></trkpt><trkpt lat="40.2611032" lon="9.5790954"><ele>488.0</ele><time>2026-05-02T08:52:12.192Z</time></trkpt><trkpt lat="40.2612838" lon="9.5791732"><ele>488.0</ele><time>2026-05-02T08:52:13.192Z</time></trkpt><trkpt lat="40.2614569" lon="9.5792039"><ele>488.0</ele><time>2026-05-02T08:52:14.193Z</time></trkpt><trkpt lat="40.2616188" lon="9.5792003"><ele>482.66666666666663</ele><time>2026-05-02T08:52:15.192Z</time></trkpt><trkpt lat="40.2617687" lon="9.5792205"><ele>477.33333333333337</ele><time>2026-05-02T08:52:16.192Z</time></trkpt><trkpt lat="40.261909" lon="9.5792928"><ele>472.0</ele><time>2026-05-02T08:52:17.193Z</time></trkpt><trkpt lat="40.2620624" lon="9.5793966"><ele>472.0</ele><time>2026-05-02T08:52:18.193Z</time></trkpt><trkpt lat="40.2622422" lon="9.5795116"><ele>472.0</ele><time>2026-05-02T08:52:19.192Z</time></trkpt><trkpt lat="40.2624166" lon="9.5796109"><ele>472.0</ele><time>2026-05-02T08:52:20.193Z</time></trkpt><trkpt lat="40.2625796" lon="9.579702"><ele>479.33333333333337</ele><time>2026-05-02T08:52:21.193Z</time></trkpt><trkpt lat="40.2627451" lon="9.5797527"><ele>486.66666666666663</ele><time>2026-05-02T08:52:22.193Z</time></trkpt><trkpt lat="40.2629192" lon="9.5797507"><ele>494.0</ele><time>2026-05-02T08:52:23.192Z</time></trkpt><trkpt lat="40.2630985" lon="9.5797599"><ele>491.66666666666663</ele><time>2026-05-02T08:52:24.193Z</time></trkpt><trkpt lat="40.2632683" lon="9.5797918"><ele>489.33333333333337</ele><time>2026-05-02T08:52:25.192Z</time></trkpt><trkpt lat="40.2634288" lon="9.5798056"><ele>487.0</ele><time>2026-05-02T08:52:26.192Z</time></trkpt><trkpt lat="40.2635779" lon="9.579776"><ele>487.0</ele><time>2026-05-02T08:52:27.192Z</time></trkpt><trkpt lat="40.2637282" lon="9.5797306"><ele>487.0</ele><time>2026-05-02T08:52:28.192Z</time></trkpt><trkpt lat="40.2638842" lon="9.5797445"><ele>487.0</ele><time>2026-05-02T08:52:29.192Z</time></trkpt><trkpt lat="40.2640465" lon="9.57979"><ele>484.33333333333337</ele><time>2026-05-02T08:52:30.192Z</time></trkpt><trkpt lat="40.2642202" lon="9.579852"><ele>481.66666666666663</ele><time>2026-05-02T08:52:31.193Z</time></trkpt><trkpt lat="40.2643952" lon="9.5799171"><ele>479.0</ele><time>2026-05-02T08:52:32.192Z</time></trkpt><trkpt lat="40.2645534" lon="9.5799534"><ele>479.0</ele><time>2026-05-02T08:52:33.192Z</time></trkpt><trkpt lat="40.2647065" lon="9.5799293"><ele>479.0</ele><time>2026-05-02T08:52:34.192Z</time></trkpt><trkpt lat="40.2648573" lon="9.5798605"><ele>479.0</ele><time>2026-05-02T08:52:35.192Z</time></trkpt><trkpt lat="40.2649974" lon="9.5797892"><ele>478.25</ele><time>2026-05-02T08:52:36.193Z</time></trkpt><trkpt lat="40.2651259" lon="9.5797637"><ele>477.5</ele><time>2026-05-02T08:52:37.193Z</time></trkpt><trkpt lat="40.2652445" lon="9.5797992"><ele>476.75</ele><time>2026-05-02T08:52:38.192Z</time></trkpt><trkpt lat="40.2653528" lon="9.5798883"><ele>476.0</ele><time>2026-05-02T08:52:39.193Z</time></trkpt><trkpt lat="40.2654642" lon="9.5800301"><ele>476.0</ele><time>2026-05-02T08:52:40.193Z</time></trkpt><trkpt lat="40.2655854" lon="9.5802072"><ele>476.0</ele><time>2026-05-02T08:52:41.193Z</time></trkpt><trkpt lat="40.2657151" lon="9.5803989"><ele>476.0</ele><time>2026-05-02T08:52:42.193Z</time></trkpt><trkpt lat="40.2658348" lon="9.5805696"><ele>477.0</ele><time>2026-05-02T08:52:43.193Z</time></trkpt><trkpt lat="40.2659728" lon="9.5807131"><ele>478.0</ele><time>2026-05-02T08:52:44.192Z</time></trkpt><trkpt lat="40.2661387" lon="9.5808262"><ele>479.0</ele><time>2026-05-02T08:52:45.193Z</time></trkpt><trkpt lat="40.2663222" lon="9.5809168"><ele>481.0</ele><time>2026-05-02T08:52:46.192Z</time></trkpt><trkpt lat="40.266486" lon="9.5809969"><ele>483.0</ele><time>2026-05-02T08:52:47.192Z</time></trkpt><trkpt lat="40.2666238" lon="9.5811153"><ele>485.0</ele><time>2026-05-02T08:52:48.193Z</time></trkpt><trkpt lat="40.2667539" lon="9.5812825"><ele>485.0</ele><time>2026-05-02T08:52:49.193Z</time></trkpt><trkpt lat="40.266881" lon="9.5814755"><ele>485.0</ele><time>2026-05-02T08:52:50.193Z</time></trkpt><trkpt lat="40.2670351" lon="9.5816496"><ele>485.0</ele><time>2026-05-02T08:52:51.192Z</time></trkpt><trkpt lat="40.2672212" lon="9.581815"><ele>484.0</ele><time>2026-05-02T08:52:52.192Z</time></trkpt><trkpt lat="40.2674154" lon="9.5819845"><ele>483.0</ele><time>2026-05-02T08:52:53.193Z</time></trkpt><trkpt lat="40.2676011" lon="9.5821445"><ele>483.0</ele><time>2026-05-02T08:52:54.193Z</time></trkpt><trkpt lat="40.2677791" lon="9.5822979"><ele>483.0</ele><time>2026-05-02T08:52:55.192Z</time></trkpt><trkpt lat="40.2679481" lon="9.5824423"><ele>483.0</ele><time>2026-05-02T08:52:56.193Z</time></trkpt><trkpt lat="40.2681024" lon="9.5825832"><ele>484.0</ele><time>2026-05-02T08:52:57.192Z</time></trkpt><trkpt lat="40.2682373" lon="9.5827277"><ele>485.0</ele><time>2026-05-02T08:52:58.193Z</time></trkpt><trkpt lat="40.2683485" lon="9.5828662"><ele>486.0</ele><time>2026-05-02T08:52:59.192Z</time></trkpt><trkpt lat="40.2684607" lon="9.5829674"><ele>486.0</ele><time>2026-05-02T08:53:00.193Z</time></trkpt><trkpt lat="40.2685945" lon="9.5830139"><ele>486.0</ele><time>2026-05-02T08:53:01.192Z</time></trkpt><trkpt lat="40.2687352" lon="9.5830203"><ele>486.0</ele><time>2026-05-02T08:53:02.193Z</time></trkpt><trkpt lat="40.2688656" lon="9.583041"><ele>486.0</ele><time>2026-05-02T08:53:03.193Z</time></trkpt><trkpt lat="40.2689773" lon="9.5831164"><ele>480.5</ele><time>2026-05-02T08:53:04.192Z</time></trkpt><trkpt lat="40.2690745" lon="9.5832468"><ele>475.0</ele><time>2026-05-02T08:53:05.193Z</time></trkpt><trkpt lat="40.2691661" lon="9.5833957"><ele>469.5</ele><time>2026-05-02T08:53:06.192Z</time></trkpt><trkpt lat="40.2692756" lon="9.5835054"><ele>464.0</ele><time>2026-05-02T08:53:07.192Z</time></trkpt><trkpt lat="40.2694025" lon="9.5835542"><ele>464.0</ele><time>2026-05-02T08:53:08.193Z</time></trkpt><trkpt lat="40.2695317" lon="9.5836151"><ele>464.0</ele><time>2026-05-02T08:53:09.193Z</time></trkpt><trkpt lat="40.2696634" lon="9.5837371"><ele>464.0</ele><time>2026-05-02T08:53:10.193Z</time></trkpt><trkpt lat="40.2697795" lon="9.5839016"><ele>464.3333333333333</ele><time>2026-05-02T08:53:11.193Z</time></trkpt><trkpt lat="40.269893" lon="9.5840952"><ele>464.66666666666663</ele><time>2026-05-02T08:53:12.193Z</time></trkpt><trkpt lat="40.2700357" lon="9.5842916"><ele>465.0</ele><time>2026-05-02T08:53:13.193Z</time></trkpt><trkpt lat="40.2701839" lon="9.5844707"><ele>474.0</ele><time>2026-05-02T08:53:14.193Z</time></trkpt><trkpt lat="40.2703134" lon="9.5846105"><ele>483.0</ele><time>2026-05-02T08:53:15.193Z</time></trkpt><trkpt lat="40.2704449" lon="9.5847109"><ele>492.0</ele><time>2026-05-02T08:53:16.192Z</time></trkpt><trkpt lat="40.2705646" lon="9.5847963"><ele>478.66666666666663</ele><time>2026-05-02T08:53:17.192Z</time></trkpt><trkpt lat="40.2706662" lon="9.5849242"><ele>465.3333333333333</ele><time>2026-05-02T08:53:18.192Z</time></trkpt><trkpt lat="40.270739" lon="9.5850975"><ele>452.0</ele><time>2026-05-02T08:53:19.193Z</time></trkpt><trkpt lat="40.2708025" lon="9.5852957"><ele>459.3333333333333</ele><time>2026-05-02T08:53:20.193Z</time></trkpt><trkpt lat="40.2708969" lon="9.5854802"><ele>466.66666666666663</ele><time>2026-05-02T08:53:21.193Z</time></trkpt><trkpt lat="40.2710054" lon="9.585657"><ele>474.0</ele><time>2026-05-02T08:53:22.193Z</time></trkpt><trkpt lat="40.2710925" lon="9.585867"><ele>474.0</ele><time>2026-05-02T08:53:23.192Z</time></trkpt><trkpt lat="40.2711529" lon="9.5861031"><ele>474.0</ele><time>2026-05-02T08:53:24.192Z</time></trkpt><trkpt lat="40.2712077" lon="9.5863617"><ele>474.0</ele><time>2026-05-02T08:53:25.192Z</time></trkpt><trkpt lat="40.2712742" lon="9.5866008"><ele>472.66666666666663</ele><time>2026-05-02T08:53:26.193Z</time></trkpt><trkpt lat="40.2713608" lon="9.5868369"><ele>471.3333333333333</ele><time>2026-05-02T08:53:27.193Z</time></trkpt><trkpt lat="40.2714531" lon="9.587038"><ele>470.0</ele><time>2026-05-02T08:53:28.193Z</time></trkpt><trkpt lat="40.271551" lon="9.5872058"><ele>470.0</ele><time>2026-05-02T08:53:29.193Z</time></trkpt><trkpt lat="40.2716748" lon="9.5873232"><ele>470.0</ele><time>2026-05-02T08:53:30.193Z</time></trkpt><trkpt lat="40.271824" lon="9.5874046"><ele>470.0</ele><time>2026-05-02T08:53:31.193Z</time></trkpt><trkpt lat="40.2719899" lon="9.5874844"><ele>470.0</ele><time>2026-05-02T08:53:32.192Z</time></trkpt><trkpt lat="40.2721497" lon="9.5876067"><ele>470.0</ele><time>2026-05-02T08:53:33.193Z</time></trkpt><trkpt lat="40.272273" lon="9.5877339"><ele>470.0</ele><time>2026-05-02T08:53:34.192Z</time></trkpt><trkpt lat="40.2723675" lon="9.5878716"><ele>468.0</ele><time>2026-05-02T08:53:35.193Z</time></trkpt><trkpt lat="40.2724188" lon="9.5880374"><ele>466.0</ele><time>2026-05-02T08:53:36.192Z</time></trkpt><trkpt lat="40.272438" lon="9.588225"><ele>464.0</ele><time>2026-05-02T08:53:37.192Z</time></trkpt><trkpt lat="40.2724806" lon="9.5884081"><ele>462.0</ele><time>2026-05-02T08:53:38.192Z</time></trkpt><trkpt lat="40.2725751" lon="9.5885602"><ele>462.0</ele><time>2026-05-02T08:53:39.192Z</time></trkpt><trkpt lat="40.2727043" lon="9.5886703"><ele>462.0</ele><time>2026-05-02T08:53:40.192Z</time></trkpt><trkpt lat="40.2728446" lon="9.5887829"><ele>462.0</ele><time>2026-05-02T08:53:41.192Z</time></trkpt><trkpt lat="40.2729551" lon="9.5889394"><ele>460.33333333333337</ele><time>2026-05-02T08:53:42.193Z</time></trkpt><trkpt lat="40.2730345" lon="9.5891286"><ele>458.6666666666667</ele><time>2026-05-02T08:53:43.192Z</time></trkpt><trkpt lat="40.2730901" lon="9.5893582"><ele>457.0</ele><time>2026-05-02T08:53:44.193Z</time></trkpt><trkpt lat="40.2731392" lon="9.5896189"><ele>457.0</ele><time>2026-05-02T08:53:45.192Z</time></trkpt><trkpt lat="40.273181" lon="9.5898771"><ele>457.0</ele><time>2026-05-02T08:53:46.192Z</time></trkpt><trkpt lat="40.2732333" lon="9.5901088"><ele>457.0</ele><time>2026-05-02T08:53:47.193Z</time></trkpt><trkpt lat="40.2733272" lon="9.5903267"><ele>462.33333333333337</ele><time>2026-05-02T08:53:48.193Z</time></trkpt><trkpt lat="40.2734486" lon="9.5905366"><ele>467.66666666666663</ele><time>2026-05-02T08:53:49.192Z</time></trkpt><trkpt lat="40.2736008" lon="9.5907589"><ele>473.0</ele><time>2026-05-02T08:53:50.192Z</time></trkpt><trkpt lat="40.273769" lon="9.5910045"><ele>470.5</ele><time>2026-05-02T08:53:51.193Z</time></trkpt><trkpt lat="40.2739279" lon="9.5912265"><ele>468.0</ele><time>2026-05-02T08:53:52.192Z</time></trkpt><trkpt lat="40.2740984" lon="9.5914381"><ele>468.0</ele><time>2026-05-02T08:53:53.193Z</time></trkpt><trkpt lat="40.2742864" lon="9.5916296"><ele>468.0</ele><time>2026-05-02T08:53:54.192Z</time></trkpt><trkpt lat="40.2744811" lon="9.5918072"><ele>468.0</ele><time>2026-05-02T08:53:55.192Z</time></trkpt><trkpt lat="40.2746593" lon="9.5919691"><ele>468.0</ele><time>2026-05-02T08:53:56.192Z</time></trkpt><trkpt lat="40.2748275" lon="9.5921108"><ele>468.0</ele><time>2026-05-02T08:53:57.193Z</time></trkpt><trkpt lat="40.2749847" lon="9.5922156"><ele>470.66666666666663</ele><time>2026-05-02T08:53:58.193Z</time></trkpt><trkpt lat="40.2751308" lon="9.592278"><ele>473.3333333333333</ele><time>2026-05-02T08:53:59.193Z</time></trkpt><trkpt lat="40.275278" lon="9.5923078"><ele>476.0</ele><time>2026-05-02T08:54:00.193Z</time></trkpt><trkpt lat="40.275431" lon="9.5923096"><ele>474.66666666666663</ele><time>2026-05-02T08:54:01.193Z</time></trkpt><trkpt lat="40.2756038" lon="9.5923083"><ele>473.33333333333337</ele><time>2026-05-02T08:54:02.192Z</time></trkpt><trkpt lat="40.2757959" lon="9.5923057"><ele>472.0</ele><time>2026-05-02T08:54:03.193Z</time></trkpt><trkpt lat="40.2759957" lon="9.5922936"><ele>472.0</ele><time>2026-05-02T08:54:04.192Z</time></trkpt><trkpt lat="40.2762015" lon="9.5922649"><ele>472.0</ele><time>2026-05-02T08:54:05.193Z</time></trkpt><trkpt lat="40.2764109" lon="9.5922204"><ele>472.0</ele><time>2026-05-02T08:54:06.193Z</time></trkpt><trkpt lat="40.2766246" lon="9.5921666"><ele>472.0</ele><time>2026-05-02T08:54:07.192Z</time></trkpt><trkpt lat="40.2768425" lon="9.5921096"><ele>472.0</ele><time>2026-05-02T08:54:08.192Z</time></trkpt><trkpt lat="40.277067" lon="9.5920531"><ele>456.5</ele><time>2026-05-02T08:54:09.193Z</time></trkpt><trkpt lat="40.2772942" lon="9.5919978"><ele>441.0</ele><time>2026-05-02T08:54:10.193Z</time></trkpt><trkpt lat="40.2775228" lon="9.5919399"><ele>441.0</ele><time>2026-05-02T08:54:11.193Z</time></trkpt><trkpt lat="40.2777509" lon="9.5918816"><ele>441.0</ele><time>2026-05-02T08:54:12.193Z</time></trkpt><trkpt lat="40.2779794" lon="9.5918197"><ele>443.5</ele><time>2026-05-02T08:54:13.193Z</time></trkpt><trkpt lat="40.2782097" lon="9.5917593"><ele>446.0</ele><time>2026-05-02T08:54:14.192Z</time></trkpt><trkpt lat="40.2784455" lon="9.5916971"><ele>446.0</ele><time>2026-05-02T08:54:15.192Z</time></trkpt><trkpt lat="40.2786806" lon="9.5916372"><ele>446.0</ele><time>2026-05-02T08:54:16.192Z</time></trkpt><trkpt lat="40.2789129" lon="9.5915805"><ele>451.0</ele><time>2026-05-02T08:54:17.192Z</time></trkpt><trkpt lat="40.2791389" lon="9.5915336"><ele>456.0</ele><time>2026-05-02T08:54:18.192Z</time></trkpt><trkpt lat="40.279357" lon="9.5914951"><ele>461.0</ele><time>2026-05-02T08:54:19.192Z</time></trkpt><trkpt lat="40.2795734" lon="9.5914651"><ele>461.3333333333333</ele><time>2026-05-02T08:54:20.192Z</time></trkpt><trkpt lat="40.2797907" lon="9.5914386"><ele>461.66666666666663</ele><time>2026-05-02T08:54:21.193Z</time></trkpt><trkpt lat="40.280001" lon="9.5914151"><ele>462.0</ele><time>2026-05-02T08:54:22.192Z</time></trkpt><trkpt lat="40.2802016" lon="9.5913925"><ele>462.0</ele><time>2026-05-02T08:54:23.192Z</time></trkpt><trkpt lat="40.2803945" lon="9.5913658"><ele>462.0</ele><time>2026-05-02T08:54:24.193Z</time></trkpt><trkpt lat="40.2805864" lon="9.591322"><ele>462.0</ele><time>2026-05-02T08:54:25.193Z</time></trkpt><trkpt lat="40.2807748" lon="9.5912566"><ele>463.66666666666663</ele><time>2026-05-02T08:54:26.192Z</time></trkpt><trkpt lat="40.2809581" lon="9.5911858"><ele>465.3333333333333</ele><time>2026-05-02T08:54:27.192Z</time></trkpt><trkpt lat="40.2811403" lon="9.5911377"><ele>467.0</ele><time>2026-05-02T08:54:28.193Z</time></trkpt><trkpt lat="40.2813227" lon="9.5911013"><ele>456.3333333333333</ele><time>2026-05-02T08:54:29.193Z</time></trkpt><trkpt lat="40.2814984" lon="9.5910842"><ele>445.66666666666663</ele><time>2026-05-02T08:54:30.192Z</time></trkpt><trkpt lat="40.2816696" lon="9.5910738"><ele>435.0</ele><time>2026-05-02T08:54:31.193Z</time></trkpt><trkpt lat="40.281831" lon="9.5910664"><ele>435.0</ele><time>2026-05-02T08:54:32.193Z</time></trkpt><trkpt lat="40.2819792" lon="9.5910621"><ele>435.0</ele><time>2026-05-02T08:54:33.193Z</time></trkpt><trkpt lat="40.282109" lon="9.5910655"><ele>435.0</ele><time>2026-05-02T08:54:34.192Z</time></trkpt><trkpt lat="40.2822272" lon="9.5910795"><ele>435.0</ele><time>2026-05-02T08:54:35.193Z</time></trkpt><trkpt lat="40.28234" lon="9.5911059"><ele>435.5</ele><time>2026-05-02T08:54:36.192Z</time></trkpt><trkpt lat="40.2824471" lon="9.5911464"><ele>436.0</ele><time>2026-05-02T08:54:37.193Z</time></trkpt><trkpt lat="40.2825585" lon="9.5912029"><ele>436.5</ele><time>2026-05-02T08:54:38.192Z</time></trkpt><trkpt lat="40.2826738" lon="9.5912519"><ele>437.0</ele><time>2026-05-02T08:54:39.192Z</time></trkpt><trkpt lat="40.2827997" lon="9.5912639"><ele>437.0</ele><time>2026-05-02T08:54:40.192Z</time></trkpt><trkpt lat="40.2829247" lon="9.5912368"><ele>437.0</ele><time>2026-05-02T08:54:41.192Z</time></trkpt><trkpt lat="40.2830452" lon="9.5911949"><ele>437.0</ele><time>2026-05-02T08:54:42.192Z</time></trkpt><trkpt lat="40.2831688" lon="9.59116"><ele>437.0</ele><time>2026-05-02T08:54:43.193Z</time></trkpt><trkpt lat="40.2833002" lon="9.5911509"><ele>437.0</ele><time>2026-05-02T08:54:44.193Z</time></trkpt><trkpt lat="40.2834293" lon="9.5911665"><ele>437.0</ele><time>2026-05-02T08:54:45.193Z</time></trkpt><trkpt lat="40.2835576" lon="9.5911945"><ele>437.0</ele><time>2026-05-02T08:54:46.193Z</time></trkpt><trkpt lat="40.2836887" lon="9.5912311"><ele>437.0</ele><time>2026-05-02T08:54:47.192Z</time></trkpt><trkpt lat="40.2838112" lon="9.5912679"><ele>439.8</ele><time>2026-05-02T08:54:48.192Z</time></trkpt><trkpt lat="40.2839122" lon="9.5913005"><ele>442.6</ele><time>2026-05-02T08:54:49.193Z</time></trkpt><trkpt lat="40.2840059" lon="9.5913327"><ele>445.40000000000003</ele><time>2026-05-02T08:54:50.192Z</time></trkpt><trkpt lat="40.2840958" lon="9.5913739"><ele>448.20000000000005</ele><time>2026-05-02T08:54:51.192Z</time></trkpt><trkpt lat="40.2841892" lon="9.5914266"><ele>451.0</ele><time>2026-05-02T08:54:52.193Z</time></trkpt><trkpt lat="40.2842847" lon="9.5914835"><ele>451.0</ele><time>2026-05-02T08:54:53.192Z</time></trkpt><trkpt lat="40.2843748" lon="9.591538"><ele>451.0</ele><time>2026-05-02T08:54:54.192Z</time></trkpt><trkpt lat="40.2844657" lon="9.5915937"><ele>451.0</ele><time>2026-05-02T08:54:55.193Z</time></trkpt><trkpt lat="40.2845564" lon="9.5916523"><ele>451.0</ele><time>2026-05-02T08:54:56.193Z</time></trkpt><trkpt lat="40.284651" lon="9.5917091"><ele>451.0</ele><time>2026-05-02T08:54:57.192Z</time></trkpt><trkpt lat="40.2847471" lon="9.5917646"><ele>449.5</ele><time>2026-05-02T08:54:58.192Z</time></trkpt><trkpt lat="40.2848471" lon="9.5918144"><ele>448.0</ele><time>2026-05-02T08:54:59.192Z</time></trkpt><trkpt lat="40.2849539" lon="9.5918574"><ele>446.5</ele><time>2026-05-02T08:55:00.192Z</time></trkpt><trkpt lat="40.2850675" lon="9.5918902"><ele>445.0</ele><time>2026-05-02T08:55:01.193Z</time></trkpt><trkpt lat="40.2851873" lon="9.5919217"><ele>445.0</ele><time>2026-05-02T08:55:02.193Z</time></trkpt><trkpt lat="40.2853174" lon="9.5919481"><ele>445.0</ele><time>2026-05-02T08:55:03.193Z</time></trkpt><trkpt lat="40.2854537" lon="9.591985"><ele>445.0</ele><time>2026-05-02T08:55:04.192Z</time></trkpt><trkpt lat="40.2855866" lon="9.5920311"><ele>445.0</ele><time>2026-05-02T08:55:05.192Z</time></trkpt><trkpt lat="40.2857038" lon="9.5920752"><ele>450.0</ele><time>2026-05-02T08:55:06.192Z</time></trkpt><trkpt lat="40.2858097" lon="9.5921219"><ele>455.0</ele><time>2026-05-02T08:55:07.192Z</time></trkpt><trkpt lat="40.2859243" lon="9.592173"><ele>460.0</ele><time>2026-05-02T08:55:08.192Z</time></trkpt><trkpt lat="40.2860341" lon="9.5922233"><ele>465.0</ele><time>2026-05-02T08:55:09.193Z</time></trkpt><trkpt lat="40.2861426" lon="9.5922768"><ele>465.0</ele><time>2026-05-02T08:55:10.193Z</time></trkpt><trkpt lat="40.2862516" lon="9.5923279"><ele>465.0</ele><time>2026-05-02T08:55:11.193Z</time></trkpt><trkpt lat="40.2863524" lon="9.5923764"><ele>465.0</ele><time>2026-05-02T08:55:12.192Z</time></trkpt><trkpt lat="40.2864464" lon="9.5924221"><ele>465.0</ele><time>2026-05-02T08:55:13.193Z</time></trkpt><trkpt lat="40.2865341" lon="9.5924633"><ele>465.0</ele><time>2026-05-02T08:55:14.193Z</time></trkpt><trkpt lat="40.2866177" lon="9.5925029"><ele>462.0</ele><time>2026-05-02T08:55:15.192Z</time></trkpt><trkpt lat="40.2867051" lon="9.5925431"><ele>459.0</ele><time>2026-05-02T08:55:16.192Z</time></trkpt><trkpt lat="40.2867986" lon="9.5925878"><ele>456.0</ele><time>2026-05-02T08:55:17.192Z</time></trkpt><trkpt lat="40.2868916" lon="9.5926337"><ele>453.0</ele><time>2026-05-02T08:55:18.192Z</time></trkpt><trkpt lat="40.2869925" lon="9.5926803"><ele>450.0</ele><time>2026-05-02T08:55:19.193Z</time></trkpt><trkpt lat="40.2870964" lon="9.5927287"><ele>450.0</ele><time>2026-05-02T08:55:20.192Z</time></trkpt><trkpt lat="40.2872049" lon="9.5927811"><ele>450.0</ele><time>2026-05-02T08:55:21.192Z</time></trkpt><trkpt lat="40.2873162" lon="9.5928357"><ele>450.0</ele><time>2026-05-02T08:55:22.192Z</time></trkpt><trkpt lat="40.2874321" lon="9.5928917"><ele>450.0</ele><time>2026-05-02T08:55:23.193Z</time></trkpt><trkpt lat="40.2875518" lon="9.5929519"><ele>453.25</ele><time>2026-05-02T08:55:24.193Z</time></trkpt><trkpt lat="40.287677" lon="9.5930147"><ele>456.5</ele><time>2026-05-02T08:55:25.192Z</time></trkpt><trkpt lat="40.2877977" lon="9.5930715"><ele>459.75</ele><time>2026-05-02T08:55:26.193Z</time></trkpt><trkpt lat="40.2879109" lon="9.5931225"><ele>463.0</ele><time>2026-05-02T08:55:27.192Z</time></trkpt><trkpt lat="40.2880154" lon="9.5931719"><ele>460.2</ele><time>2026-05-02T08:55:28.192Z</time></trkpt><trkpt lat="40.2881146" lon="9.5932218"><ele>457.4</ele><time>2026-05-02T08:55:29.193Z</time></trkpt><trkpt lat="40.2882097" lon="9.5932718"><ele>454.59999999999997</ele><time>2026-05-02T08:55:30.193Z</time></trkpt><trkpt lat="40.2883018" lon="9.5933146"><ele>451.79999999999995</ele><time>2026-05-02T08:55:31.193Z</time></trkpt><trkpt lat="40.2883915" lon="9.5933495"><ele>449.0</ele><time>2026-05-02T08:55:32.192Z</time></trkpt><trkpt lat="40.2884776" lon="9.5933757"><ele>449.0</ele><time>2026-05-02T08:55:33.192Z</time></trkpt><trkpt lat="40.2885628" lon="9.5933951"><ele>449.0</ele><time>2026-05-02T08:55:34.193Z</time></trkpt><trkpt lat="40.2886496" lon="9.5933929"><ele>449.0</ele><time>2026-05-02T08:55:35.193Z</time></trkpt><trkpt lat="40.2887385" lon="9.5933751"><ele>449.0</ele><time>2026-05-02T08:55:36.193Z</time></trkpt><trkpt lat="40.2888334" lon="9.5933436"><ele>449.0</ele><time>2026-05-02T08:55:37.193Z</time></trkpt><trkpt lat="40.2889322" lon="9.5932957"><ele>448.75</ele><time>2026-05-02T08:55:38.193Z</time></trkpt><trkpt lat="40.2890354" lon="9.593233"><ele>448.5</ele><time>2026-05-02T08:55:39.193Z</time></trkpt><trkpt lat="40.2891471" lon="9.5931672"><ele>448.25</ele><time>2026-05-02T08:55:40.193Z</time></trkpt><trkpt lat="40.2892654" lon="9.5931183"><ele>448.0</ele><time>2026-05-02T08:55:41.193Z</time></trkpt><trkpt lat="40.2893915" lon="9.5930958"><ele>448.0</ele><time>2026-05-02T08:55:42.193Z</time></trkpt><trkpt lat="40.2895214" lon="9.5930958"><ele>448.0</ele><time>2026-05-02T08:55:43.193Z</time></trkpt><trkpt lat="40.2896359" lon="9.5931098"><ele>448.0</ele><time>2026-05-02T08:55:44.192Z</time></trkpt><trkpt lat="40.2897433" lon="9.5931282"><ele>448.0</ele><time>2026-05-02T08:55:45.193Z</time></trkpt><trkpt lat="40.2898497" lon="9.5931455"><ele>447.75</ele><time>2026-05-02T08:55:46.193Z</time></trkpt><trkpt lat="40.2899582" lon="9.5931693"><ele>447.5</ele><time>2026-05-02T08:55:47.192Z</time></trkpt><trkpt lat="40.2900705" lon="9.5932018"><ele>447.25</ele><time>2026-05-02T08:55:48.192Z</time></trkpt><trkpt lat="40.2901849" lon="9.5932521"><ele>447.0</ele><time>2026-05-02T08:55:49.193Z</time></trkpt><trkpt lat="40.2902986" lon="9.5933183"><ele>447.0</ele><time>2026-05-02T08:55:50.193Z</time></trkpt><trkpt lat="40.2904151" lon="9.5933949"><ele>447.0</ele><time>2026-05-02T08:55:51.193Z</time></trkpt><trkpt lat="40.2905398" lon="9.5934694"><ele>447.0</ele><time>2026-05-02T08:55:52.193Z</time></trkpt><trkpt lat="40.2906704" lon="9.5935304"><ele>447.0</ele><time>2026-05-02T08:55:53.193Z</time></trkpt><trkpt lat="40.2907982" lon="9.5935711"><ele>444.5</ele><time>2026-05-02T08:55:54.193Z</time></trkpt><trkpt lat="40.2909221" lon="9.5935908"><ele>442.0</ele><time>2026-05-02T08:55:55.193Z</time></trkpt><trkpt lat="40.2910499" lon="9.5935942"><ele>439.5</ele><time>2026-05-02T08:55:56.193Z</time></trkpt><trkpt lat="40.2911876" lon="9.5935897"><ele>437.0</ele><time>2026-05-02T08:55:57.192Z</time></trkpt><trkpt lat="40.2913268" lon="9.5935776"><ele>437.0</ele><time>2026-05-02T08:55:58.192Z</time></trkpt><trkpt lat="40.2914581" lon="9.5935631"><ele>437.0</ele><time>2026-05-02T08:55:59.193Z</time></trkpt><trkpt lat="40.291585" lon="9.593536"><ele>437.0</ele><time>2026-05-02T08:56:00.193Z</time></trkpt><trkpt lat="40.2917024" lon="9.5934921"><ele>437.0</ele><time>2026-05-02T08:56:01.193Z</time></trkpt><trkpt lat="40.2918107" lon="9.59343"><ele>437.0</ele><time>2026-05-02T08:56:02.192Z</time></trkpt><trkpt lat="40.2919118" lon="9.5933513"><ele>437.00000000000006</ele><time>2026-05-02T08:56:03.193Z</time></trkpt><trkpt lat="40.2920053" lon="9.5932662"><ele>437.00000000000006</ele><time>2026-05-02T08:56:04.192Z</time></trkpt><trkpt lat="40.2920929" lon="9.5931811"><ele>437.0</ele><time>2026-05-02T08:56:05.193Z</time></trkpt><trkpt lat="40.2921718" lon="9.5931012"><ele>437.0</ele><time>2026-05-02T08:56:06.192Z</time></trkpt><trkpt lat="40.2922432" lon="9.5930346"><ele>437.3333333333333</ele><time>2026-05-02T08:56:07.192Z</time></trkpt><trkpt lat="40.2923077" lon="9.5929751"><ele>437.66666666666663</ele><time>2026-05-02T08:56:08.192Z</time></trkpt><trkpt lat="40.2923679" lon="9.592914"><ele>438.0</ele><time>2026-05-02T08:56:09.192Z</time></trkpt><trkpt lat="40.2924283" lon="9.5928534"><ele>438.33333333333337</ele><time>2026-05-02T08:56:10.193Z</time></trkpt><trkpt lat="40.2924949" lon="9.5927892"><ele>438.6666666666667</ele><time>2026-05-02T08:56:11.193Z</time></trkpt><trkpt lat="40.2925635" lon="9.5927204"><ele>439.0</ele><time>2026-05-02T08:56:12.193Z</time></trkpt><trkpt lat="40.2926331" lon="9.5926528"><ele>437.2</ele><time>2026-05-02T08:56:13.193Z</time></trkpt><trkpt lat="40.2927032" lon="9.5925842"><ele>435.4</ele><time>2026-05-02T08:56:14.193Z</time></trkpt><trkpt lat="40.2927737" lon="9.5925133"><ele>433.6</ele><time>2026-05-02T08:56:15.192Z</time></trkpt><trkpt lat="40.2928483" lon="9.5924355"><ele>431.8</ele><time>2026-05-02T08:56:16.193Z</time></trkpt><trkpt lat="40.2929255" lon="9.5923592"><ele>430.0</ele><time>2026-05-02T08:56:17.193Z</time></trkpt><trkpt lat="40.2930076" lon="9.5922746"><ele>430.6</ele><time>2026-05-02T08:56:18.193Z</time></trkpt><trkpt lat="40.2930892" lon="9.5921942"><ele>431.2</ele><time>2026-05-02T08:56:19.192Z</time></trkpt><trkpt lat="40.2931655" lon="9.5921166"><ele>431.79999999999995</ele><time>2026-05-02T08:56:20.193Z</time></trkpt><trkpt lat="40.2932395" lon="9.5920409"><ele>432.4</ele><time>2026-05-02T08:56:21.192Z</time></trkpt><trkpt lat="40.2933123" lon="9.5919674"><ele>433.0</ele><time>2026-05-02T08:56:22.193Z</time></trkpt><trkpt lat="40.2933906" lon="9.5918927"><ele>431.2</ele><time>2026-05-02T08:56:23.193Z</time></trkpt><trkpt lat="40.2934707" lon="9.5918115"><ele>429.4</ele><time>2026-05-02T08:56:24.192Z</time></trkpt><trkpt lat="40.2935539" lon="9.5917252"><ele>427.59999999999997</ele><time>2026-05-02T08:56:25.192Z</time></trkpt><trkpt lat="40.2936435" lon="9.5916385"><ele>425.79999999999995</ele><time>2026-05-02T08:56:26.193Z</time></trkpt><trkpt lat="40.2937332" lon="9.59155"><ele>424.0</ele><time>2026-05-02T08:56:27.192Z</time></trkpt><trkpt lat="40.2938225" lon="9.5914595"><ele>424.0</ele><time>2026-05-02T08:56:28.192Z</time></trkpt><trkpt lat="40.293913" lon="9.59137"><ele>424.0</ele><time>2026-05-02T08:56:29.193Z</time></trkpt><trkpt lat="40.2940029" lon="9.5912806"><ele>424.0</ele><time>2026-05-02T08:56:30.193Z</time></trkpt><trkpt lat="40.294095" lon="9.5911923"><ele>424.0</ele><time>2026-05-02T08:56:31.192Z</time></trkpt><trkpt lat="40.2941818" lon="9.591109"><ele>424.0</ele><time>2026-05-02T08:56:32.192Z</time></trkpt><trkpt lat="40.2942627" lon="9.5910291"><ele>422.79999999999995</ele><time>2026-05-02T08:56:33.193Z</time></trkpt><trkpt lat="40.2943447" lon="9.5909486"><ele>421.59999999999997</ele><time>2026-05-02T08:56:34.193Z</time></trkpt><trkpt lat="40.2944293" lon="9.5908708"><ele>420.4</ele><time>2026-05-02T08:56:35.192Z</time></trkpt><trkpt lat="40.2945158" lon="9.5907956"><ele>419.2</ele><time>2026-05-02T08:56:36.193Z</time></trkpt><trkpt lat="40.2946047" lon="9.5907258"><ele>418.0</ele><time>2026-05-02T08:56:37.193Z</time></trkpt><trkpt lat="40.2947002" lon="9.5906608"><ele>417.2</ele><time>2026-05-02T08:56:38.192Z</time></trkpt><trkpt lat="40.2947994" lon="9.5906059"><ele>416.4</ele><time>2026-05-02T08:56:39.192Z</time></trkpt><trkpt lat="40.2949019" lon="9.590559"><ele>415.59999999999997</ele><time>2026-05-02T08:56:40.193Z</time></trkpt><trkpt lat="40.295008" lon="9.5905164"><ele>414.79999999999995</ele><time>2026-05-02T08:56:41.192Z</time></trkpt><trkpt lat="40.2951179" lon="9.5904794"><ele>414.0</ele><time>2026-05-02T08:56:42.193Z</time></trkpt><trkpt lat="40.2952296" lon="9.5904422"><ele>414.0</ele><time>2026-05-02T08:56:43.193Z</time></trkpt><trkpt lat="40.2953382" lon="9.5903997"><ele>414.0</ele><time>2026-05-02T08:56:44.192Z</time></trkpt><trkpt lat="40.2954432" lon="9.5903646"><ele>414.0</ele><time>2026-05-02T08:56:45.193Z</time></trkpt><trkpt lat="40.2955409" lon="9.5903279"><ele>414.0</ele><time>2026-05-02T08:56:46.192Z</time></trkpt><trkpt lat="40.2956359" lon="9.5902894"><ele>414.0</ele><time>2026-05-02T08:56:47.192Z</time></trkpt><trkpt lat="40.2957232" lon="9.5902477"><ele>412.4</ele><time>2026-05-02T08:56:48.192Z</time></trkpt><trkpt lat="40.295804" lon="9.5902014"><ele>410.79999999999995</ele><time>2026-05-02T08:56:49.192Z</time></trkpt><trkpt lat="40.2958798" lon="9.5901444"><ele>409.20000000000005</ele><time>2026-05-02T08:56:50.193Z</time></trkpt><trkpt lat="40.2959547" lon="9.5900769"><ele>407.6</ele><time>2026-05-02T08:56:51.192Z</time></trkpt><trkpt lat="40.2960301" lon="9.5899959"><ele>406.0</ele><time>2026-05-02T08:56:52.193Z</time></trkpt><trkpt lat="40.2961039" lon="9.5899009"><ele>406.0</ele><time>2026-05-02T08:56:53.193Z</time></trkpt><trkpt lat="40.2961768" lon="9.5897913"><ele>406.0</ele><time>2026-05-02T08:56:54.192Z</time></trkpt><trkpt lat="40.2962435" lon="9.5896757"><ele>406.0</ele><time>2026-05-02T08:56:55.193Z</time></trkpt><trkpt lat="40.2963083" lon="9.5895573"><ele>406.0</ele><time>2026-05-02T08:56:56.192Z</time></trkpt><trkpt lat="40.2963719" lon="9.58944"><ele>406.0</ele><time>2026-05-02T08:56:57.192Z</time></trkpt><trkpt lat="40.2964393" lon="9.5893234"><ele>404.8</ele><time>2026-05-02T08:56:58.193Z</time></trkpt><trkpt lat="40.2965073" lon="9.5892117"><ele>403.6</ele><time>2026-05-02T08:56:59.192Z</time></trkpt><trkpt lat="40.296575" lon="9.5890985"><ele>402.4</ele><time>2026-05-02T08:57:00.193Z</time></trkpt><trkpt lat="40.2966415" lon="9.5889803"><ele>401.2</ele><time>2026-05-02T08:57:01.192Z</time></trkpt><trkpt lat="40.2967069" lon="9.5888696"><ele>400.0</ele><time>2026-05-02T08:57:02.192Z</time></trkpt><trkpt lat="40.2967666" lon="9.5887683"><ele>400.00000000000006</ele><time>2026-05-02T08:57:03.192Z</time></trkpt><trkpt lat="40.2968217" lon="9.5886782"><ele>400.0</ele><time>2026-05-02T08:57:04.193Z</time></trkpt><trkpt lat="40.2968743" lon="9.5885946"><ele>400.0</ele><time>2026-05-02T08:57:05.193Z</time></trkpt><trkpt lat="40.2969286" lon="9.588509"><ele>400.0</ele><time>2026-05-02T08:57:06.192Z</time></trkpt><trkpt lat="40.296983" lon="9.5884237"><ele>400.00000000000006</ele><time>2026-05-02T08:57:07.193Z</time></trkpt><trkpt lat="40.2970363" lon="9.5883326"><ele>400.0</ele><time>2026-05-02T08:57:08.192Z</time></trkpt><trkpt lat="40.2970919" lon="9.5882356"><ele>399.2</ele><time>2026-05-02T08:57:09.193Z</time></trkpt><trkpt lat="40.2971468" lon="9.5881332"><ele>398.4</ele><time>2026-05-02T08:57:10.192Z</time></trkpt><trkpt lat="40.2972051" lon="9.5880324"><ele>397.6</ele><time>2026-05-02T08:57:11.193Z</time></trkpt><trkpt lat="40.2972611" lon="9.5879365"><ele>396.8</ele><time>2026-05-02T08:57:12.192Z</time></trkpt><trkpt lat="40.2973159" lon="9.5878368"><ele>396.0</ele><time>2026-05-02T08:57:13.193Z</time></trkpt><trkpt lat="40.2973712" lon="9.5877317"><ele>394.8</ele><time>2026-05-02T08:57:14.192Z</time></trkpt><trkpt lat="40.2974214" lon="9.5876227"><ele>393.6</ele><time>2026-05-02T08:57:15.192Z</time></trkpt><trkpt lat="40.2974591" lon="9.5875088"><ele>392.4</ele><time>2026-05-02T08:57:16.192Z</time></trkpt><trkpt lat="40.2974877" lon="9.587395"><ele>391.2</ele><time>2026-05-02T08:57:17.193Z</time></trkpt><trkpt lat="40.2975041" lon="9.5872704"><ele>390.0</ele><time>2026-05-02T08:57:18.192Z</time></trkpt><trkpt lat="40.2975107" lon="9.5871381"><ele>389.2</ele><time>2026-05-02T08:57:19.193Z</time></trkpt><trkpt lat="40.2975064" lon="9.5869988"><ele>388.4</ele><time>2026-05-02T08:57:20.192Z</time></trkpt><trkpt lat="40.2974925" lon="9.5868589"><ele>387.6</ele><time>2026-05-02T08:57:21.192Z</time></trkpt><trkpt lat="40.2974685" lon="9.5867217"><ele>386.8</ele><time>2026-05-02T08:57:22.193Z</time></trkpt><trkpt lat="40.2974417" lon="9.5865903"><ele>386.0</ele><time>2026-05-02T08:57:23.193Z</time></trkpt><trkpt lat="40.2974192" lon="9.5864697"><ele>385.99999999999994</ele><time>2026-05-02T08:57:24.192Z</time></trkpt><trkpt lat="40.2973977" lon="9.5863569"><ele>386.0</ele><time>2026-05-02T08:57:25.192Z</time></trkpt><trkpt lat="40.2973762" lon="9.5862475"><ele>386.0</ele><time>2026-05-02T08:57:26.193Z</time></trkpt><trkpt lat="40.2973563" lon="9.5861331"><ele>386.0</ele><time>2026-05-02T08:57:27.192Z</time></trkpt><trkpt lat="40.2973398" lon="9.5860155"><ele>385.99999999999994</ele><time>2026-05-02T08:57:28.192Z</time></trkpt><trkpt lat="40.2973234" lon="9.5859011"><ele>386.0</ele><time>2026-05-02T08:57:29.193Z</time></trkpt><trkpt lat="40.2973059" lon="9.5857891"><ele>385.16666666666663</ele><time>2026-05-02T08:57:30.192Z</time></trkpt><trkpt lat="40.2972857" lon="9.5856767"><ele>384.3333333333333</ele><time>2026-05-02T08:57:31.192Z</time></trkpt><trkpt lat="40.2972677" lon="9.5855633"><ele>383.5</ele><time>2026-05-02T08:57:32.192Z</time></trkpt><trkpt lat="40.2972483" lon="9.585448"><ele>382.66666666666663</ele><time>2026-05-02T08:57:33.192Z</time></trkpt><trkpt lat="40.2972285" lon="9.5853344"><ele>381.8333333333333</ele><time>2026-05-02T08:57:34.193Z</time></trkpt><trkpt lat="40.29721" lon="9.5852216"><ele>381.0</ele><time>2026-05-02T08:57:35.192Z</time></trkpt><trkpt lat="40.2971921" lon="9.5851103"><ele>379.8333333333333</ele><time>2026-05-02T08:57:36.193Z</time></trkpt><trkpt lat="40.2971731" lon="9.5850032"><ele>378.6666666666667</ele><time>2026-05-02T08:57:37.192Z</time></trkpt><trkpt lat="40.2971495" lon="9.5848944"><ele>377.5</ele><time>2026-05-02T08:57:38.193Z</time></trkpt><trkpt lat="40.2971169" lon="9.5847858"><ele>376.33333333333337</ele><time>2026-05-02T08:57:39.192Z</time></trkpt><trkpt lat="40.2970798" lon="9.5846753"><ele>375.1666666666667</ele><time>2026-05-02T08:57:40.192Z</time></trkpt><trkpt lat="40.2970397" lon="9.5845654"><ele>374.0</ele><time>2026-05-02T08:57:41.192Z</time></trkpt><trkpt lat="40.2969972" lon="9.5844597"><ele>373.33333333333337</ele><time>2026-05-02T08:57:42.192Z</time></trkpt><trkpt lat="40.2969549" lon="9.5843584"><ele>372.6666666666667</ele><time>2026-05-02T08:57:43.192Z</time></trkpt><trkpt lat="40.2969121" lon="9.5842521"><ele>372.0</ele><time>2026-05-02T08:57:44.192Z</time></trkpt><trkpt lat="40.2968645" lon="9.5841551"><ele>371.3333333333333</ele><time>2026-05-02T08:57:45.192Z</time></trkpt><trkpt lat="40.2968127" lon="9.5840598"><ele>370.66666666666663</ele><time>2026-05-02T08:57:46.192Z</time></trkpt><trkpt lat="40.2967644" lon="9.5839673"><ele>370.0</ele><time>2026-05-02T08:57:47.193Z</time></trkpt><trkpt lat="40.2967185" lon="9.5838789"><ele>370.0</ele><time>2026-05-02T08:57:48.192Z</time></trkpt><trkpt lat="40.2966688" lon="9.5837967"><ele>370.0</ele><time>2026-05-02T08:57:49.192Z</time></trkpt><trkpt lat="40.2966117" lon="9.583722"><ele>370.0</ele><time>2026-05-02T08:57:50.192Z</time></trkpt><trkpt lat="40.2965583" lon="9.5836499"><ele>370.0</ele><time>2026-05-02T08:57:51.192Z</time></trkpt><trkpt lat="40.296511" lon="9.5835829"><ele>370.0</ele><time>2026-05-02T08:57:52.193Z</time></trkpt><trkpt lat="40.2964295" lon="9.5834687"><ele>370.0</ele><time>2026-05-02T08:57:54.192Z</time></trkpt><trkpt lat="40.2963738" lon="9.5833852"><ele>368.16666666666663</ele><time>2026-05-02T08:57:56.193Z</time></trkpt><trkpt lat="40.2963259" lon="9.5833114"><ele>366.3333333333333</ele><time>2026-05-02T08:57:58.192Z</time></trkpt><trkpt lat="40.2962824" lon="9.5832116"><ele>364.5</ele><time>2026-05-02T08:58:00.192Z</time></trkpt><trkpt lat="40.2962465" lon="9.5830469"><ele>362.6666666666667</ele><time>2026-05-02T08:58:02.192Z</time></trkpt><trkpt lat="40.2962364" lon="9.5829486"><ele>360.83333333333337</ele><time>2026-05-02T08:58:03.192Z</time></trkpt><trkpt lat="40.2962288" lon="9.5828491"><ele>359.0</ele><time>2026-05-02T08:58:04.192Z</time></trkpt><trkpt lat="40.2962225" lon="9.5827418"><ele>357.6</ele><time>2026-05-02T08:58:05.192Z</time></trkpt><trkpt lat="40.2962143" lon="9.5826303"><ele>356.2</ele><time>2026-05-02T08:58:06.193Z</time></trkpt><trkpt lat="40.2962071" lon="9.5825136"><ele>354.8</ele><time>2026-05-02T08:58:07.192Z</time></trkpt><trkpt lat="40.2962005" lon="9.5823924"><ele>353.40000000000003</ele><time>2026-05-02T08:58:08.192Z</time></trkpt><trkpt lat="40.2961943" lon="9.5822689"><ele>352.0</ele><time>2026-05-02T08:58:09.192Z</time></trkpt><trkpt lat="40.2961856" lon="9.5821462"><ele>352.0</ele><time>2026-05-02T08:58:10.192Z</time></trkpt><trkpt lat="40.2961783" lon="9.5820198"><ele>352.0</ele><time>2026-05-02T08:58:11.193Z</time></trkpt><trkpt lat="40.2961704" lon="9.5818883"><ele>352.0</ele><time>2026-05-02T08:58:12.192Z</time></trkpt><trkpt lat="40.2961621" lon="9.5817479"><ele>352.0</ele><time>2026-05-02T08:58:13.193Z</time></trkpt><trkpt lat="40.296159" lon="9.5815984"><ele>352.0</ele><time>2026-05-02T08:58:14.192Z</time></trkpt><trkpt lat="40.2961624" lon="9.5814486"><ele>352.0</ele><time>2026-05-02T08:58:15.192Z</time></trkpt><trkpt lat="40.2961722" lon="9.5812959"><ele>352.0</ele><time>2026-05-02T08:58:16.192Z</time></trkpt><trkpt lat="40.2961889" lon="9.5811431"><ele>352.0</ele><time>2026-05-02T08:58:17.192Z</time></trkpt><trkpt lat="40.2962111" lon="9.580993"><ele>352.0</ele><time>2026-05-02T08:58:18.192Z</time></trkpt><trkpt lat="40.2962439" lon="9.5808485"><ele>351.0</ele><time>2026-05-02T08:58:19.193Z</time></trkpt><trkpt lat="40.2962872" lon="9.5807076"><ele>350.0</ele><time>2026-05-02T08:58:20.192Z</time></trkpt><trkpt lat="40.2963424" lon="9.5805748"><ele>349.0</ele><time>2026-05-02T08:58:21.193Z</time></trkpt><trkpt lat="40.2964032" lon="9.5804447"><ele>348.0</ele><time>2026-05-02T08:58:22.192Z</time></trkpt><trkpt lat="40.2964722" lon="9.5803083"><ele>347.75</ele><time>2026-05-02T08:58:23.192Z</time></trkpt><trkpt lat="40.2965342" lon="9.5801592"><ele>347.5</ele><time>2026-05-02T08:58:24.192Z</time></trkpt><trkpt lat="40.2965816" lon="9.5799955"><ele>347.25</ele><time>2026-05-02T08:58:25.192Z</time></trkpt><trkpt lat="40.2966037" lon="9.5798256"><ele>347.0</ele><time>2026-05-02T08:58:26.192Z</time></trkpt><trkpt lat="40.2966046" lon="9.5796539"><ele>346.5</ele><time>2026-05-02T08:58:27.192Z</time></trkpt><trkpt lat="40.2965912" lon="9.579489"><ele>346.0</ele><time>2026-05-02T08:58:28.192Z</time></trkpt><trkpt lat="40.2965764" lon="9.5793322"><ele>345.5</ele><time>2026-05-02T08:58:29.192Z</time></trkpt><trkpt lat="40.2965637" lon="9.579182"><ele>345.0</ele><time>2026-05-02T08:58:30.192Z</time></trkpt><trkpt lat="40.2965495" lon="9.5790269"><ele>345.0</ele><time>2026-05-02T08:58:31.192Z</time></trkpt><trkpt lat="40.2965327" lon="9.5788712"><ele>345.0</ele><time>2026-05-02T08:58:32.193Z</time></trkpt><trkpt lat="40.2965246" lon="9.5787122"><ele>345.0</ele><time>2026-05-02T08:58:33.193Z</time></trkpt><trkpt lat="40.296527" lon="9.5785528"><ele>345.0</ele><time>2026-05-02T08:58:34.193Z</time></trkpt><trkpt lat="40.2965424" lon="9.5783917"><ele>345.0</ele><time>2026-05-02T08:58:35.193Z</time></trkpt><trkpt lat="40.2965778" lon="9.5782391"><ele>345.0</ele><time>2026-05-02T08:58:36.193Z</time></trkpt><trkpt lat="40.2966325" lon="9.5780917"><ele>345.0</ele><time>2026-05-02T08:58:37.192Z</time></trkpt><trkpt lat="40.2967067" lon="9.5779539"><ele>345.0</ele><time>2026-05-02T08:58:38.193Z</time></trkpt><trkpt lat="40.2967955" lon="9.5778273"><ele>343.25</ele><time>2026-05-02T08:58:39.192Z</time></trkpt><trkpt lat="40.2968972" lon="9.5777152"><ele>341.5</ele><time>2026-05-02T08:58:40.192Z</time></trkpt><trkpt lat="40.297006" lon="9.5776269"><ele>339.75</ele><time>2026-05-02T08:58:41.192Z</time></trkpt><trkpt lat="40.2971147" lon="9.5775566"><ele>338.0</ele><time>2026-05-02T08:58:42.193Z</time></trkpt><trkpt lat="40.2972272" lon="9.5775031"><ele>337.4</ele><time>2026-05-02T08:58:43.192Z</time></trkpt><trkpt lat="40.2973355" lon="9.5774539"><ele>336.79999999999995</ele><time>2026-05-02T08:58:44.193Z</time></trkpt><trkpt lat="40.2974432" lon="9.5774196"><ele>336.2</ele><time>2026-05-02T08:58:45.193Z</time></trkpt><trkpt lat="40.2975492" lon="9.5774299"><ele>335.6</ele><time>2026-05-02T08:58:46.193Z</time></trkpt><trkpt lat="40.2976444" lon="9.5774879"><ele>335.0</ele><time>2026-05-02T08:58:47.192Z</time></trkpt><trkpt lat="40.2977276" lon="9.577569"><ele>335.0</ele><time>2026-05-02T08:58:48.193Z</time></trkpt><trkpt lat="40.2978131" lon="9.5776523"><ele>335.0</ele><time>2026-05-02T08:58:49.193Z</time></trkpt><trkpt lat="40.2979058" lon="9.5777153"><ele>335.0</ele><time>2026-05-02T08:58:50.193Z</time></trkpt><trkpt lat="40.2980049" lon="9.5777541"><ele>335.0</ele><time>2026-05-02T08:58:51.192Z</time></trkpt><trkpt lat="40.2981061" lon="9.5777559"><ele>335.0</ele><time>2026-05-02T08:58:52.192Z</time></trkpt><trkpt lat="40.2982029" lon="9.5777221"><ele>334.4</ele><time>2026-05-02T08:58:53.193Z</time></trkpt><trkpt lat="40.2982884" lon="9.5776554"><ele>333.8</ele><time>2026-05-02T08:58:54.193Z</time></trkpt><trkpt lat="40.2983623" lon="9.5775675"><ele>333.20000000000005</ele><time>2026-05-02T08:58:55.192Z</time></trkpt><trkpt lat="40.2984325" lon="9.5774713"><ele>332.6</ele><time>2026-05-02T08:58:56.193Z</time></trkpt><trkpt lat="40.2985046" lon="9.5773659"><ele>332.0</ele><time>2026-05-02T08:58:57.192Z</time></trkpt><trkpt lat="40.2985785" lon="9.5772521"><ele>332.0</ele><time>2026-05-02T08:58:58.193Z</time></trkpt><trkpt lat="40.2986555" lon="9.5771367"><ele>332.0</ele><time>2026-05-02T08:58:59.192Z</time></trkpt><trkpt lat="40.2987267" lon="9.5770086"><ele>332.0</ele><time>2026-05-02T08:59:00.193Z</time></trkpt><trkpt lat="40.2987936" lon="9.5768756"><ele>332.0</ele><time>2026-05-02T08:59:01.193Z</time></trkpt><trkpt lat="40.2988539" lon="9.5767412"><ele>332.25</ele><time>2026-05-02T08:59:02.193Z</time></trkpt><trkpt lat="40.2989074" lon="9.5766061"><ele>332.5</ele><time>2026-05-02T08:59:03.192Z</time></trkpt><trkpt lat="40.2989583" lon="9.5764749"><ele>332.75</ele><time>2026-05-02T08:59:04.193Z</time></trkpt><trkpt lat="40.2990106" lon="9.5763444"><ele>333.0</ele><time>2026-05-02T08:59:05.192Z</time></trkpt><trkpt lat="40.2990657" lon="9.5762189"><ele>331.0</ele><time>2026-05-02T08:59:06.193Z</time></trkpt><trkpt lat="40.2991229" lon="9.5760964"><ele>329.0</ele><time>2026-05-02T08:59:07.193Z</time></trkpt><trkpt lat="40.2991786" lon="9.5759734"><ele>327.0</ele><time>2026-05-02T08:59:08.193Z</time></trkpt><trkpt lat="40.2992358" lon="9.5758516"><ele>325.0</ele><time>2026-05-02T08:59:09.192Z</time></trkpt><trkpt lat="40.2992892" lon="9.5757307"><ele>323.0</ele><time>2026-05-02T08:59:10.192Z</time></trkpt><trkpt lat="40.299344" lon="9.5756119"><ele>323.0</ele><time>2026-05-02T08:59:11.193Z</time></trkpt><trkpt lat="40.299399" lon="9.5754937"><ele>323.0</ele><time>2026-05-02T08:59:12.192Z</time></trkpt><trkpt lat="40.2994537" lon="9.5753752"><ele>323.0</ele><time>2026-05-02T08:59:13.192Z</time></trkpt><trkpt lat="40.2995095" lon="9.5752548"><ele>323.0</ele><time>2026-05-02T08:59:14.192Z</time></trkpt><trkpt lat="40.2995668" lon="9.5751341"><ele>323.0</ele><time>2026-05-02T08:59:15.193Z</time></trkpt><trkpt lat="40.2996242" lon="9.5750106"><ele>322.5</ele><time>2026-05-02T08:59:16.193Z</time></trkpt><trkpt lat="40.2996785" lon="9.5748804"><ele>322.0</ele><time>2026-05-02T08:59:17.192Z</time></trkpt><trkpt lat="40.2997318" lon="9.5747475"><ele>321.5</ele><time>2026-05-02T08:59:18.193Z</time></trkpt><trkpt lat="40.2997795" lon="9.5746059"><ele>321.0</ele><time>2026-05-02T08:59:19.193Z</time></trkpt><trkpt lat="40.2998184" lon="9.574454"><ele>319.25</ele><time>2026-05-02T08:59:20.193Z</time></trkpt><trkpt lat="40.2998501" lon="9.5742928"><ele>317.5</ele><time>2026-05-02T08:59:21.192Z</time></trkpt><trkpt lat="40.2998772" lon="9.5741262"><ele>315.75</ele><time>2026-05-02T08:59:22.192Z</time></trkpt><trkpt lat="40.2999055" lon="9.5739537"><ele>314.0</ele><time>2026-05-02T08:59:23.193Z</time></trkpt><trkpt lat="40.2999401" lon="9.5737749"><ele>311.75</ele><time>2026-05-02T08:59:24.192Z</time></trkpt><trkpt lat="40.2999863" lon="9.5736068"><ele>309.5</ele><time>2026-05-02T08:59:25.192Z</time></trkpt><trkpt lat="40.3000518" lon="9.5734469"><ele>307.25</ele><time>2026-05-02T08:59:26.192Z</time></trkpt><trkpt lat="40.3001337" lon="9.5732915"><ele>305.0</ele><time>2026-05-02T08:59:27.193Z</time></trkpt><trkpt lat="40.3002239" lon="9.5731411"><ele>305.0</ele><time>2026-05-02T08:59:28.193Z</time></trkpt><trkpt lat="40.3003115" lon="9.5730005"><ele>305.0</ele><time>2026-05-02T08:59:29.192Z</time></trkpt><trkpt lat="40.3003944" lon="9.572861"><ele>305.0</ele><time>2026-05-02T08:59:30.193Z</time></trkpt><trkpt lat="40.3004701" lon="9.5727204"><ele>305.0</ele><time>2026-05-02T08:59:31.193Z</time></trkpt><trkpt lat="40.3005448" lon="9.5725813"><ele>304.75</ele><time>2026-05-02T08:59:32.193Z</time></trkpt><trkpt lat="40.3006164" lon="9.5724353"><ele>304.5</ele><time>2026-05-02T08:59:33.192Z</time></trkpt><trkpt lat="40.3006863" lon="9.5722796"><ele>304.25</ele><time>2026-05-02T08:59:34.193Z</time></trkpt><trkpt lat="40.300748" lon="9.5721286"><ele>304.0</ele><time>2026-05-02T08:59:35.193Z</time></trkpt><trkpt lat="40.3007953" lon="9.5719761"><ele>302.25</ele><time>2026-05-02T08:59:36.192Z</time></trkpt><trkpt lat="40.3008269" lon="9.571821"><ele>300.5</ele><time>2026-05-02T08:59:37.192Z</time></trkpt><trkpt lat="40.3008498" lon="9.5716704"><ele>298.75</ele><time>2026-05-02T08:59:38.192Z</time></trkpt><trkpt lat="40.300871" lon="9.5715269"><ele>297.0</ele><time>2026-05-02T08:59:39.193Z</time></trkpt><trkpt lat="40.3008911" lon="9.571391"><ele>297.0</ele><time>2026-05-02T08:59:40.192Z</time></trkpt><trkpt lat="40.3009114" lon="9.5712631"><ele>297.0</ele><time>2026-05-02T08:59:41.193Z</time></trkpt><trkpt lat="40.3009363" lon="9.5711413"><ele>297.0</ele><time>2026-05-02T08:59:42.192Z</time></trkpt><trkpt lat="40.3009726" lon="9.5710289"><ele>297.0</ele><time>2026-05-02T08:59:43.193Z</time></trkpt><trkpt lat="40.3010299" lon="9.5709337"><ele>297.0</ele><time>2026-05-02T08:59:44.193Z</time></trkpt><trkpt lat="40.3010979" lon="9.5708641"><ele>296.1666666666667</ele><time>2026-05-02T08:59:45.192Z</time></trkpt><trkpt lat="40.3011789" lon="9.5708286"><ele>295.3333333333333</ele><time>2026-05-02T08:59:46.192Z</time></trkpt><trkpt lat="40.3012615" lon="9.5708355"><ele>294.5</ele><time>2026-05-02T08:59:47.192Z</time></trkpt><trkpt lat="40.3013365" lon="9.5708739"><ele>293.66666666666663</ele><time>2026-05-02T08:59:48.193Z</time></trkpt><trkpt lat="40.3014056" lon="9.5709378"><ele>292.8333333333333</ele><time>2026-05-02T08:59:49.193Z</time></trkpt><trkpt lat="40.3014636" lon="9.571016"><ele>292.0</ele><time>2026-05-02T08:59:50.193Z</time></trkpt><trkpt lat="40.3015141" lon="9.5711011"><ele>292.0</ele><time>2026-05-02T08:59:51.192Z</time></trkpt><trkpt lat="40.3015619" lon="9.5711879"><ele>292.0</ele><time>2026-05-02T08:59:52.193Z</time></trkpt><trkpt lat="40.3016192" lon="9.5712725"><ele>292.0</ele><time>2026-05-02T08:59:53.192Z</time></trkpt><trkpt lat="40.3016761" lon="9.5713578"><ele>292.0</ele><time>2026-05-02T08:59:54.192Z</time></trkpt><trkpt lat="40.3017448" lon="9.5714367"><ele>292.0</ele><time>2026-05-02T08:59:55.193Z</time></trkpt><trkpt lat="40.3018251" lon="9.5715077"><ele>292.0</ele><time>2026-05-02T08:59:56.193Z</time></trkpt><trkpt lat="40.301918" lon="9.5715673"><ele>292.8</ele><time>2026-05-02T08:59:57.193Z</time></trkpt><trkpt lat="40.3020122" lon="9.5716106"><ele>293.6</ele><time>2026-05-02T08:59:58.193Z</time></trkpt><trkpt lat="40.3021035" lon="9.5716391"><ele>294.40000000000003</ele><time>2026-05-02T08:59:59.192Z</time></trkpt><trkpt lat="40.3021927" lon="9.5716592"><ele>295.2</ele><time>2026-05-02T09:00:00.193Z</time></trkpt><trkpt lat="40.3022833" lon="9.5716761"><ele>296.0</ele><time>2026-05-02T09:00:01.193Z</time></trkpt><trkpt lat="40.3023787" lon="9.5716922"><ele>294.6666666666667</ele><time>2026-05-02T09:00:02.192Z</time></trkpt><trkpt lat="40.3024728" lon="9.5717097"><ele>293.33333333333337</ele><time>2026-05-02T09:00:03.192Z</time></trkpt><trkpt lat="40.302563" lon="9.5717283"><ele>292.0</ele><time>2026-05-02T09:00:04.193Z</time></trkpt><trkpt lat="40.3026468" lon="9.5717502"><ele>290.6666666666667</ele><time>2026-05-02T09:00:05.193Z</time></trkpt><trkpt lat="40.3027225" lon="9.5717795"><ele>289.3333333333333</ele><time>2026-05-02T09:00:06.192Z</time></trkpt><trkpt lat="40.3027891" lon="9.571821"><ele>288.0</ele><time>2026-05-02T09:00:07.192Z</time></trkpt><trkpt lat="40.3028392" lon="9.5718711"><ele>288.0</ele><time>2026-05-02T09:00:08.193Z</time></trkpt><trkpt lat="40.3028977" lon="9.5719644"><ele>288.0</ele><time>2026-05-02T09:00:10.193Z</time></trkpt><trkpt lat="40.3029393" lon="9.5720741"><ele>288.0</ele><time>2026-05-02T09:00:12.192Z</time></trkpt><trkpt lat="40.3029599" lon="9.5721537"><ele>288.0</ele><time>2026-05-02T09:00:13.192Z</time></trkpt><trkpt lat="40.3029784" lon="9.5722494"><ele>288.0</ele><time>2026-05-02T09:00:14.192Z</time></trkpt><trkpt lat="40.3029962" lon="9.5723594"><ele>288.0</ele><time>2026-05-02T09:00:15.193Z</time></trkpt><trkpt lat="40.3030138" lon="9.5724832"><ele>288.6</ele><time>2026-05-02T09:00:16.192Z</time></trkpt><trkpt lat="40.303032" lon="9.5726144"><ele>289.20000000000005</ele><time>2026-05-02T09:00:17.193Z</time></trkpt><trkpt lat="40.3030521" lon="9.5727526"><ele>289.8</ele><time>2026-05-02T09:00:18.193Z</time></trkpt><trkpt lat="40.303072" lon="9.572899"><ele>290.40000000000003</ele><time>2026-05-02T09:00:19.192Z</time></trkpt><trkpt lat="40.3030905" lon="9.5730452"><ele>291.0</ele><time>2026-05-02T09:00:20.192Z</time></trkpt><trkpt lat="40.3031086" lon="9.5731894"><ele>288.5</ele><time>2026-05-02T09:00:21.193Z</time></trkpt><trkpt lat="40.3031259" lon="9.5733361"><ele>286.0</ele><time>2026-05-02T09:00:22.192Z</time></trkpt><trkpt lat="40.3031442" lon="9.573488"><ele>283.5</ele><time>2026-05-02T09:00:23.193Z</time></trkpt><trkpt lat="40.3031627" lon="9.5736385"><ele>281.0</ele><time>2026-05-02T09:00:24.193Z</time></trkpt><trkpt lat="40.3031807" lon="9.5737832"><ele>281.0</ele><time>2026-05-02T09:00:25.193Z</time></trkpt><trkpt lat="40.3032105" lon="9.5739136"><ele>281.0</ele><time>2026-05-02T09:00:26.192Z</time></trkpt><trkpt lat="40.3032718" lon="9.5740185"><ele>281.0</ele><time>2026-05-02T09:00:27.193Z</time></trkpt><trkpt lat="40.3033517" lon="9.5740963"><ele>281.0</ele><time>2026-05-02T09:00:28.193Z</time></trkpt><trkpt lat="40.3034434" lon="9.5741385"><ele>281.0</ele><time>2026-05-02T09:00:29.193Z</time></trkpt><trkpt lat="40.3035344" lon="9.5741317"><ele>281.0</ele><time>2026-05-02T09:00:30.192Z</time></trkpt><trkpt lat="40.3036113" lon="9.5740777"><ele>281.0</ele><time>2026-05-02T09:00:31.192Z</time></trkpt><trkpt lat="40.3036724" lon="9.5739869"><ele>281.0</ele><time>2026-05-02T09:00:32.193Z</time></trkpt><trkpt lat="40.3037242" lon="9.573862"><ele>281.0</ele><time>2026-05-02T09:00:33.193Z</time></trkpt><trkpt lat="40.3037775" lon="9.5737009"><ele>281.0</ele><time>2026-05-02T09:00:34.193Z</time></trkpt><trkpt lat="40.3038416" lon="9.5735348"><ele>281.0</ele><time>2026-05-02T09:00:35.193Z</time></trkpt><trkpt lat="40.3039069" lon="9.5733707"><ele>281.0</ele><time>2026-05-02T09:00:36.192Z</time></trkpt><trkpt lat="40.303965" lon="9.5732191"><ele>281.0</ele><time>2026-05-02T09:00:37.192Z</time></trkpt><trkpt lat="40.3040217" lon="9.5730826"><ele>281.0</ele><time>2026-05-02T09:00:38.192Z</time></trkpt><trkpt lat="40.304074" lon="9.5729605"><ele>279.8</ele><time>2026-05-02T09:00:39.193Z</time></trkpt><trkpt lat="40.3041246" lon="9.5728478"><ele>278.6</ele><time>2026-05-02T09:00:40.192Z</time></trkpt><trkpt lat="40.3041772" lon="9.5727287"><ele>277.4</ele><time>2026-05-02T09:00:41.193Z</time></trkpt><trkpt lat="40.3042409" lon="9.572612"><ele>276.2</ele><time>2026-05-02T09:00:42.192Z</time></trkpt><trkpt lat="40.3043219" lon="9.5724913"><ele>275.0</ele><time>2026-05-02T09:00:43.192Z</time></trkpt><trkpt lat="40.3044303" lon="9.5723464"><ele>275.0</ele><time>2026-05-02T09:00:44.192Z</time></trkpt><trkpt lat="40.304568" lon="9.5721952"><ele>275.0</ele><time>2026-05-02T09:00:45.192Z</time></trkpt><trkpt lat="40.3047298" lon="9.5720425"><ele>275.0</ele><time>2026-05-02T09:00:46.192Z</time></trkpt><trkpt lat="40.3049169" lon="9.5718866"><ele>274.5</ele><time>2026-05-02T09:00:47.192Z</time></trkpt><trkpt lat="40.3051304" lon="9.5717174"><ele>274.0</ele><time>2026-05-02T09:00:48.193Z</time></trkpt><trkpt lat="40.3053492" lon="9.5715532"><ele>274.0</ele><time>2026-05-02T09:00:49.193Z</time></trkpt><trkpt lat="40.305542" lon="9.5714072"><ele>274.0</ele><time>2026-05-02T09:00:50.193Z</time></trkpt><trkpt lat="40.3057245" lon="9.5712786"><ele>274.0</ele><time>2026-05-02T09:00:51.193Z</time></trkpt><trkpt lat="40.3059058" lon="9.5711944"><ele>273.3333333333333</ele><time>2026-05-02T09:00:52.192Z</time></trkpt><trkpt lat="40.3060876" lon="9.5711469"><ele>272.6666666666667</ele><time>2026-05-02T09:00:53.193Z</time></trkpt><trkpt lat="40.3062657" lon="9.5711375"><ele>272.0</ele><time>2026-05-02T09:00:54.192Z</time></trkpt><trkpt lat="40.3064423" lon="9.5711648"><ele>273.33333333333337</ele><time>2026-05-02T09:00:55.193Z</time></trkpt><trkpt lat="40.3066077" lon="9.5712341"><ele>274.6666666666667</ele><time>2026-05-02T09:00:56.192Z</time></trkpt><trkpt lat="40.3067633" lon="9.5713429"><ele>276.0</ele><time>2026-05-02T09:00:57.192Z</time></trkpt><trkpt lat="40.3069016" lon="9.5714923"><ele>276.0</ele><time>2026-05-02T09:00:58.192Z</time></trkpt><trkpt lat="40.307023" lon="9.5716777"><ele>276.0</ele><time>2026-05-02T09:00:59.193Z</time></trkpt><trkpt lat="40.3071378" lon="9.5718812"><ele>276.0</ele><time>2026-05-02T09:01:00.193Z</time></trkpt><trkpt lat="40.3072536" lon="9.5720938"><ele>274.3333333333333</ele><time>2026-05-02T09:01:01.193Z</time></trkpt><trkpt lat="40.3073728" lon="9.5723147"><ele>272.66666666666663</ele><time>2026-05-02T09:01:02.193Z</time></trkpt><trkpt lat="40.3074969" lon="9.572541"><ele>271.0</ele><time>2026-05-02T09:01:03.193Z</time></trkpt><trkpt lat="40.3076118" lon="9.5727585"><ele>271.66666666666663</ele><time>2026-05-02T09:01:04.193Z</time></trkpt><trkpt lat="40.3077214" lon="9.5729682"><ele>272.3333333333333</ele><time>2026-05-02T09:01:05.193Z</time></trkpt><trkpt lat="40.3078222" lon="9.5731608"><ele>273.0</ele><time>2026-05-02T09:01:06.193Z</time></trkpt><trkpt lat="40.3079227" lon="9.5733404"><ele>273.0</ele><time>2026-05-02T09:01:07.192Z</time></trkpt><trkpt lat="40.3080354" lon="9.5734998"><ele>273.0</ele><time>2026-05-02T09:01:08.193Z</time></trkpt><trkpt lat="40.3081693" lon="9.5736319"><ele>273.0</ele><time>2026-05-02T09:01:09.192Z</time></trkpt><trkpt lat="40.3083199" lon="9.5737185"><ele>272.0</ele><time>2026-05-02T09:01:10.192Z</time></trkpt><trkpt lat="40.3084849" lon="9.5737652"><ele>271.0</ele><time>2026-05-02T09:01:11.193Z</time></trkpt><trkpt lat="40.3086668" lon="9.5737908"><ele>270.0</ele><time>2026-05-02T09:01:12.193Z</time></trkpt><trkpt lat="40.3088627" lon="9.5738141"><ele>269.0</ele><time>2026-05-02T09:01:13.193Z</time></trkpt><trkpt lat="40.3090667" lon="9.5738355"><ele>268.0</ele><time>2026-05-02T09:01:14.192Z</time></trkpt><trkpt lat="40.3092789" lon="9.5738579"><ele>267.0</ele><time>2026-05-02T09:01:15.192Z</time></trkpt><trkpt lat="40.309501" lon="9.5738834"><ele>267.0</ele><time>2026-05-02T09:01:16.193Z</time></trkpt><trkpt lat="40.3097227" lon="9.5739094"><ele>267.0</ele><time>2026-05-02T09:01:17.193Z</time></trkpt><trkpt lat="40.3099358" lon="9.5739323"><ele>267.0</ele><time>2026-05-02T09:01:18.193Z</time></trkpt><trkpt lat="40.310143" lon="9.5739554"><ele>266.3333333333333</ele><time>2026-05-02T09:01:19.192Z</time></trkpt><trkpt lat="40.3103492" lon="9.5739808"><ele>265.66666666666663</ele><time>2026-05-02T09:01:20.192Z</time></trkpt><trkpt lat="40.3105532" lon="9.5740037"><ele>265.0</ele><time>2026-05-02T09:01:21.192Z</time></trkpt><trkpt lat="40.3107525" lon="9.5740062"><ele>264.3333333333333</ele><time>2026-05-02T09:01:22.192Z</time></trkpt><trkpt lat="40.3109483" lon="9.5739824"><ele>263.6666666666667</ele><time>2026-05-02T09:01:23.192Z</time></trkpt><trkpt lat="40.3111322" lon="9.5739369"><ele>263.0</ele><time>2026-05-02T09:01:24.193Z</time></trkpt><trkpt lat="40.3113087" lon="9.5738918"><ele>263.0</ele><time>2026-05-02T09:01:25.193Z</time></trkpt><trkpt lat="40.3114791" lon="9.573885"><ele>263.0</ele><time>2026-05-02T09:01:26.192Z</time></trkpt><trkpt lat="40.3116557" lon="9.5739234"><ele>263.0</ele><time>2026-05-02T09:01:27.192Z</time></trkpt><trkpt lat="40.3118262" lon="9.5740092"><ele>263.0</ele><time>2026-05-02T09:01:28.192Z</time></trkpt><trkpt lat="40.3119849" lon="9.5741391"><ele>263.0</ele><time>2026-05-02T09:01:29.192Z</time></trkpt><trkpt lat="40.3121331" lon="9.5743099"><ele>263.0</ele><time>2026-05-02T09:01:30.192Z</time></trkpt><trkpt lat="40.312257" lon="9.5745098"><ele>262.0</ele><time>2026-05-02T09:01:31.193Z</time></trkpt><trkpt lat="40.3123537" lon="9.5747387"><ele>261.0</ele><time>2026-05-02T09:01:32.193Z</time></trkpt><trkpt lat="40.3124222" lon="9.5749914"><ele>260.0</ele><time>2026-05-02T09:01:33.192Z</time></trkpt><trkpt lat="40.3124713" lon="9.5752403"><ele>260.0</ele><time>2026-05-02T09:01:34.193Z</time></trkpt><trkpt lat="40.3125182" lon="9.575471"><ele>260.0</ele><time>2026-05-02T09:01:35.193Z</time></trkpt><trkpt lat="40.3125724" lon="9.575686"><ele>260.0</ele><time>2026-05-02T09:01:36.193Z</time></trkpt><trkpt lat="40.3126548" lon="9.5758723"><ele>260.0</ele><time>2026-05-02T09:01:37.192Z</time></trkpt><trkpt lat="40.3127699" lon="9.5760287"><ele>260.0</ele><time>2026-05-02T09:01:38.192Z</time></trkpt><trkpt lat="40.3129199" lon="9.5761468"><ele>260.0</ele><time>2026-05-02T09:01:39.193Z</time></trkpt><trkpt lat="40.313093" lon="9.5762422"><ele>258.33333333333337</ele><time>2026-05-02T09:01:40.193Z</time></trkpt><trkpt lat="40.3132733" lon="9.5763305"><ele>256.6666666666667</ele><time>2026-05-02T09:01:41.192Z</time></trkpt><trkpt lat="40.3134677" lon="9.5764254"><ele>255.0</ele><time>2026-05-02T09:01:42.192Z</time></trkpt><trkpt lat="40.3136615" lon="9.5765453"><ele>255.0</ele><time>2026-05-02T09:01:43.192Z</time></trkpt><trkpt lat="40.3138572" lon="9.5766911"><ele>255.0</ele><time>2026-05-02T09:01:44.192Z</time></trkpt><trkpt lat="40.3140652" lon="9.5768488"><ele>253.0</ele><time>2026-05-02T09:01:45.193Z</time></trkpt><trkpt lat="40.3142789" lon="9.5770122"><ele>251.0</ele><time>2026-05-02T09:01:46.192Z</time></trkpt><trkpt lat="40.314485" lon="9.5771879"><ele>251.0</ele><time>2026-05-02T09:01:47.192Z</time></trkpt><trkpt lat="40.3146757" lon="9.5773774"><ele>251.0</ele><time>2026-05-02T09:01:48.192Z</time></trkpt><trkpt lat="40.3148468" lon="9.5775782"><ele>249.66666666666669</ele><time>2026-05-02T09:01:49.192Z</time></trkpt><trkpt lat="40.3149986" lon="9.5777905"><ele>248.33333333333331</ele><time>2026-05-02T09:01:50.192Z</time></trkpt><trkpt lat="40.3151194" lon="9.5780214"><ele>247.0</ele><time>2026-05-02T09:01:51.193Z</time></trkpt><trkpt lat="40.3152066" lon="9.5782745"><ele>247.0</ele><time>2026-05-02T09:01:52.193Z</time></trkpt><trkpt lat="40.3152773" lon="9.5785453"><ele>247.0</ele><time>2026-05-02T09:01:53.192Z</time></trkpt><trkpt lat="40.3153591" lon="9.5788186"><ele>247.0</ele><time>2026-05-02T09:01:54.192Z</time></trkpt><trkpt lat="40.3154596" lon="9.5790997"><ele>246.0</ele><time>2026-05-02T09:01:55.193Z</time></trkpt><trkpt lat="40.31557" lon="9.5793824"><ele>245.0</ele><time>2026-05-02T09:01:56.193Z</time></trkpt><trkpt lat="40.3156927" lon="9.5796686"><ele>242.5</ele><time>2026-05-02T09:01:57.193Z</time></trkpt><trkpt lat="40.3158183" lon="9.5799606"><ele>240.0</ele><time>2026-05-02T09:01:58.192Z</time></trkpt><trkpt lat="40.3159441" lon="9.5802565"><ele>239.5</ele><time>2026-05-02T09:01:59.192Z</time></trkpt><trkpt lat="40.316071" lon="9.5805553"><ele>239.0</ele><time>2026-05-02T09:02:00.193Z</time></trkpt><trkpt lat="40.3161984" lon="9.5808521"><ele>239.0</ele><time>2026-05-02T09:02:01.192Z</time></trkpt><trkpt lat="40.3163188" lon="9.5811349"><ele>239.0</ele><time>2026-05-02T09:02:02.192Z</time></trkpt><trkpt lat="40.3164317" lon="9.5813971"><ele>239.33333333333334</ele><time>2026-05-02T09:02:03.193Z</time></trkpt><trkpt lat="40.3165429" lon="9.5816301"><ele>239.66666666666669</ele><time>2026-05-02T09:02:04.192Z</time></trkpt><trkpt lat="40.3166637" lon="9.5818281"><ele>240.0</ele><time>2026-05-02T09:02:05.193Z</time></trkpt><trkpt lat="40.3168005" lon="9.581983"><ele>239.33333333333331</ele><time>2026-05-02T09:02:06.193Z</time></trkpt><trkpt lat="40.3169421" lon="9.5821056"><ele>238.66666666666666</ele><time>2026-05-02T09:02:07.192Z</time></trkpt><trkpt lat="40.3170786" lon="9.5822342"><ele>238.0</ele><time>2026-05-02T09:02:08.193Z</time></trkpt><trkpt lat="40.3171839" lon="9.582404"><ele>239.66666666666666</ele><time>2026-05-02T09:02:09.193Z</time></trkpt><trkpt lat="40.3172628" lon="9.5826067"><ele>241.33333333333331</ele><time>2026-05-02T09:02:10.192Z</time></trkpt><trkpt lat="40.317323" lon="9.5828435"><ele>243.0</ele><time>2026-05-02T09:02:11.193Z</time></trkpt><trkpt lat="40.3173756" lon="9.5831024"><ele>243.0</ele><time>2026-05-02T09:02:12.193Z</time></trkpt><trkpt lat="40.3174359" lon="9.5833822"><ele>243.0</ele><time>2026-05-02T09:02:13.192Z</time></trkpt><trkpt lat="40.3175025" lon="9.5836768"><ele>244.0</ele><time>2026-05-02T09:02:14.193Z</time></trkpt><trkpt lat="40.3175756" lon="9.5839667"><ele>245.0</ele><time>2026-05-02T09:02:15.192Z</time></trkpt><trkpt lat="40.3176524" lon="9.5842301"><ele>246.0</ele><time>2026-05-02T09:02:16.192Z</time></trkpt><trkpt lat="40.3177384" lon="9.5844672"><ele>246.66666666666669</ele><time>2026-05-02T09:02:17.192Z</time></trkpt><trkpt lat="40.3178281" lon="9.5846866"><ele>247.33333333333334</ele><time>2026-05-02T09:02:18.192Z</time></trkpt><trkpt lat="40.317923" lon="9.5849001"><ele>248.0</ele><time>2026-05-02T09:02:19.192Z</time></trkpt><trkpt lat="40.3180258" lon="9.5850981"><ele>249.0</ele><time>2026-05-02T09:02:20.193Z</time></trkpt><trkpt lat="40.3181436" lon="9.5852672"><ele>250.0</ele><time>2026-05-02T09:02:21.193Z</time></trkpt><trkpt lat="40.3182835" lon="9.5854037"><ele>251.0</ele><time>2026-05-02T09:02:22.192Z</time></trkpt><trkpt lat="40.3184391" lon="9.5855049"><ele>251.0</ele><time>2026-05-02T09:02:23.192Z</time></trkpt><trkpt lat="40.3186137" lon="9.5855647"><ele>251.0</ele><time>2026-05-02T09:02:24.193Z</time></trkpt><trkpt lat="40.3188005" lon="9.5856083"><ele>251.0</ele><time>2026-05-02T09:02:25.192Z</time></trkpt><trkpt lat="40.3189931" lon="9.5856516"><ele>252.33333333333334</ele><time>2026-05-02T09:02:26.192Z</time></trkpt><trkpt lat="40.3191794" lon="9.5857031"><ele>253.66666666666669</ele><time>2026-05-02T09:02:27.193Z</time></trkpt><trkpt lat="40.3193445" lon="9.5857678"><ele>255.0</ele><time>2026-05-02T09:02:28.192Z</time></trkpt><trkpt lat="40.31949" lon="9.5858672"><ele>255.0</ele><time>2026-05-02T09:02:29.193Z</time></trkpt><trkpt lat="40.3196185" lon="9.5860078"><ele>255.0</ele><time>2026-05-02T09:02:30.192Z</time></trkpt><trkpt lat="40.3197239" lon="9.5861859"><ele>255.0</ele><time>2026-05-02T09:02:31.192Z</time></trkpt><trkpt lat="40.3198095" lon="9.5863983"><ele>256.0</ele><time>2026-05-02T09:02:32.192Z</time></trkpt><trkpt lat="40.3198738" lon="9.5866452"><ele>257.0</ele><time>2026-05-02T09:02:33.192Z</time></trkpt><trkpt lat="40.319914" lon="9.5869197"><ele>258.0</ele><time>2026-05-02T09:02:34.193Z</time></trkpt><trkpt lat="40.3199283" lon="9.5872194"><ele>258.0</ele><time>2026-05-02T09:02:35.192Z</time></trkpt><trkpt lat="40.3199236" lon="9.5875231"><ele>258.0</ele><time>2026-05-02T09:02:36.192Z</time></trkpt><trkpt lat="40.3199236" lon="9.5878096"><ele>258.0</ele><time>2026-05-02T09:02:37.193Z</time></trkpt><trkpt lat="40.3199483" lon="9.5880794"><ele>258.0</ele><time>2026-05-02T09:02:38.192Z</time></trkpt><trkpt lat="40.3200008" lon="9.5883439"><ele>258.0</ele><time>2026-05-02T09:02:39.193Z</time></trkpt><trkpt lat="40.320075" lon="9.5886079"><ele>257.6666666666667</ele><time>2026-05-02T09:02:40.192Z</time></trkpt><trkpt lat="40.3201561" lon="9.5888688"><ele>257.33333333333337</ele><time>2026-05-02T09:02:41.193Z</time></trkpt><trkpt lat="40.3202403" lon="9.5891245"><ele>257.0</ele><time>2026-05-02T09:02:42.193Z</time></trkpt><trkpt lat="40.3203344" lon="9.589371"><ele>257.0</ele><time>2026-05-02T09:02:43.193Z</time></trkpt><trkpt lat="40.3204466" lon="9.5895901"><ele>257.0</ele><time>2026-05-02T09:02:44.193Z</time></trkpt><trkpt lat="40.3205804" lon="9.5897856"><ele>257.0</ele><time>2026-05-02T09:02:45.193Z</time></trkpt><trkpt lat="40.3207311" lon="9.5899732"><ele>257.0</ele><time>2026-05-02T09:02:46.193Z</time></trkpt><trkpt lat="40.3208917" lon="9.5901583"><ele>257.0</ele><time>2026-05-02T09:02:47.192Z</time></trkpt><trkpt lat="40.3210561" lon="9.5903459"><ele>257.0</ele><time>2026-05-02T09:02:48.193Z</time></trkpt><trkpt lat="40.3212209" lon="9.5905364"><ele>256.5</ele><time>2026-05-02T09:02:49.193Z</time></trkpt><trkpt lat="40.3213847" lon="9.5907362"><ele>256.0</ele><time>2026-05-02T09:02:50.193Z</time></trkpt><trkpt lat="40.3215415" lon="9.5909515"><ele>255.5</ele><time>2026-05-02T09:02:51.193Z</time></trkpt><trkpt lat="40.321689" lon="9.5911854"><ele>255.0</ele><time>2026-05-02T09:02:52.192Z</time></trkpt><trkpt lat="40.321827" lon="9.5914328"><ele>255.0</ele><time>2026-05-02T09:02:53.192Z</time></trkpt><trkpt lat="40.3219547" lon="9.5916956"><ele>255.0</ele><time>2026-05-02T09:02:54.192Z</time></trkpt><trkpt lat="40.3220739" lon="9.5919696"><ele>254.0</ele><time>2026-05-02T09:02:55.192Z</time></trkpt><trkpt lat="40.3221911" lon="9.5922491"><ele>253.0</ele><time>2026-05-02T09:02:56.192Z</time></trkpt><trkpt lat="40.3223079" lon="9.5925312"><ele>251.5</ele><time>2026-05-02T09:02:57.192Z</time></trkpt><trkpt lat="40.3224255" lon="9.5928124"><ele>250.0</ele><time>2026-05-02T09:02:58.193Z</time></trkpt><trkpt lat="40.322545" lon="9.5930899"><ele>250.0</ele><time>2026-05-02T09:02:59.192Z</time></trkpt><trkpt lat="40.3226701" lon="9.593347"><ele>250.0</ele><time>2026-05-02T09:03:00.193Z</time></trkpt><trkpt lat="40.3228057" lon="9.5935788"><ele>250.0</ele><time>2026-05-02T09:03:01.193Z</time></trkpt><trkpt lat="40.3229506" lon="9.5937847"><ele>250.0</ele><time>2026-05-02T09:03:02.192Z</time></trkpt><trkpt lat="40.3231163" lon="9.5939696"><ele>250.0</ele><time>2026-05-02T09:03:03.193Z</time></trkpt><trkpt lat="40.3232931" lon="9.5941167"><ele>250.0</ele><time>2026-05-02T09:03:04.192Z</time></trkpt><trkpt lat="40.3234821" lon="9.5942304"><ele>250.0</ele><time>2026-05-02T09:03:05.193Z</time></trkpt><trkpt lat="40.3236832" lon="9.5943299"><ele>250.0</ele><time>2026-05-02T09:03:06.192Z</time></trkpt><trkpt lat="40.3238881" lon="9.5944314"><ele>248.33333333333331</ele><time>2026-05-02T09:03:07.193Z</time></trkpt><trkpt lat="40.3240932" lon="9.5945359"><ele>246.66666666666669</ele><time>2026-05-02T09:03:08.192Z</time></trkpt><trkpt lat="40.3243018" lon="9.5946406"><ele>245.0</ele><time>2026-05-02T09:03:09.193Z</time></trkpt><trkpt lat="40.3245125" lon="9.594744"><ele>245.0</ele><time>2026-05-02T09:03:10.192Z</time></trkpt><trkpt lat="40.3247252" lon="9.5948504"><ele>245.0</ele><time>2026-05-02T09:03:11.193Z</time></trkpt><trkpt lat="40.3249398" lon="9.5949569"><ele>245.5</ele><time>2026-05-02T09:03:12.192Z</time></trkpt><trkpt lat="40.3251552" lon="9.5950671"><ele>246.0</ele><time>2026-05-02T09:03:13.193Z</time></trkpt><trkpt lat="40.3253712" lon="9.5951772"><ele>245.5</ele><time>2026-05-02T09:03:14.192Z</time></trkpt><trkpt lat="40.3255881" lon="9.5952863"><ele>245.0</ele><time>2026-05-02T09:03:15.193Z</time></trkpt><trkpt lat="40.3258059" lon="9.5953952"><ele>244.5</ele><time>2026-05-02T09:03:16.192Z</time></trkpt><trkpt lat="40.3260279" lon="9.5955073"><ele>244.0</ele><time>2026-05-02T09:03:17.193Z</time></trkpt><trkpt lat="40.3262506" lon="9.5956216"><ele>242.0</ele><time>2026-05-02T09:03:18.192Z</time></trkpt><trkpt lat="40.3264745" lon="9.5957322"><ele>240.0</ele><time>2026-05-02T09:03:19.192Z</time></trkpt><trkpt lat="40.3266997" lon="9.595843"><ele>240.0</ele><time>2026-05-02T09:03:20.192Z</time></trkpt><trkpt lat="40.3269283" lon="9.5959578"><ele>240.0</ele><time>2026-05-02T09:03:21.192Z</time></trkpt><trkpt lat="40.3271577" lon="9.5960747"><ele>237.5</ele><time>2026-05-02T09:03:22.192Z</time></trkpt><trkpt lat="40.3273889" lon="9.596193"><ele>235.0</ele><time>2026-05-02T09:03:23.193Z</time></trkpt><trkpt lat="40.3276289" lon="9.5963112"><ele>235.0</ele><time>2026-05-02T09:03:24.192Z</time></trkpt><trkpt lat="40.3278603" lon="9.5964264"><ele>235.0</ele><time>2026-05-02T09:03:25.192Z</time></trkpt><trkpt lat="40.3280839" lon="9.5965388"><ele>234.0</ele><time>2026-05-02T09:03:26.193Z</time></trkpt><trkpt lat="40.3283022" lon="9.5966492"><ele>233.0</ele><time>2026-05-02T09:03:27.193Z</time></trkpt><trkpt lat="40.328519" lon="9.596761"><ele>233.0</ele><time>2026-05-02T09:03:28.192Z</time></trkpt><trkpt lat="40.3287368" lon="9.5968732"><ele>233.0</ele><time>2026-05-02T09:03:29.193Z</time></trkpt><trkpt lat="40.3289563" lon="9.5969836"><ele>230.5</ele><time>2026-05-02T09:03:30.192Z</time></trkpt><trkpt lat="40.3291768" lon="9.5970941"><ele>228.0</ele><time>2026-05-02T09:03:31.192Z</time></trkpt><trkpt lat="40.3293956" lon="9.5972035"><ele>228.0</ele><time>2026-05-02T09:03:32.193Z</time></trkpt><trkpt lat="40.3296139" lon="9.5973116"><ele>228.0</ele><time>2026-05-02T09:03:33.193Z</time></trkpt><trkpt lat="40.3298317" lon="9.5974222"><ele>225.5</ele><time>2026-05-02T09:03:34.192Z</time></trkpt><trkpt lat="40.3300514" lon="9.5975322"><ele>223.0</ele><time>2026-05-02T09:03:35.192Z</time></trkpt><trkpt lat="40.3302704" lon="9.5976429"><ele>223.0</ele><time>2026-05-02T09:03:36.193Z</time></trkpt><trkpt lat="40.3304906" lon="9.597754"><ele>223.0</ele><time>2026-05-02T09:03:37.192Z</time></trkpt><trkpt lat="40.330713" lon="9.5978639"><ele>221.5</ele><time>2026-05-02T09:03:38.193Z</time></trkpt><trkpt lat="40.3309395" lon="9.5979676"><ele>220.0</ele><time>2026-05-02T09:03:39.192Z</time></trkpt><trkpt lat="40.3311701" lon="9.5980531"><ele>218.5</ele><time>2026-05-02T09:03:40.193Z</time></trkpt><trkpt lat="40.3314046" lon="9.5981184"><ele>217.0</ele><time>2026-05-02T09:03:41.193Z</time></trkpt><trkpt lat="40.331641" lon="9.598164"><ele>217.0</ele><time>2026-05-02T09:03:42.192Z</time></trkpt><trkpt lat="40.3318792" lon="9.5981972"><ele>217.0</ele><time>2026-05-02T09:03:43.193Z</time></trkpt><trkpt lat="40.3321171" lon="9.598231"><ele>216.33333333333331</ele><time>2026-05-02T09:03:44.192Z</time></trkpt><trkpt lat="40.3323456" lon="9.5982692"><ele>215.66666666666669</ele><time>2026-05-02T09:03:45.192Z</time></trkpt><trkpt lat="40.3325554" lon="9.5983206"><ele>215.0</ele><time>2026-05-02T09:03:46.193Z</time></trkpt><trkpt lat="40.3327481" lon="9.5983969"><ele>215.0</ele><time>2026-05-02T09:03:47.193Z</time></trkpt><trkpt lat="40.332931" lon="9.5985089"><ele>215.0</ele><time>2026-05-02T09:03:48.193Z</time></trkpt><trkpt lat="40.3331134" lon="9.5986494"><ele>215.0</ele><time>2026-05-02T09:03:49.193Z</time></trkpt><trkpt lat="40.3332966" lon="9.5988094"><ele>215.5</ele><time>2026-05-02T09:03:50.193Z</time></trkpt><trkpt lat="40.3334852" lon="9.5989795"><ele>216.0</ele><time>2026-05-02T09:03:51.192Z</time></trkpt><trkpt lat="40.3336827" lon="9.5991529"><ele>216.0</ele><time>2026-05-02T09:03:52.192Z</time></trkpt><trkpt lat="40.3338861" lon="9.5993306"><ele>216.0</ele><time>2026-05-02T09:03:53.193Z</time></trkpt><trkpt lat="40.3340936" lon="9.5995108"><ele>218.5</ele><time>2026-05-02T09:03:54.193Z</time></trkpt><trkpt lat="40.3343052" lon="9.599695"><ele>221.0</ele><time>2026-05-02T09:03:55.193Z</time></trkpt><trkpt lat="40.3345195" lon="9.5998816"><ele>221.0</ele><time>2026-05-02T09:03:56.192Z</time></trkpt><trkpt lat="40.3347141" lon="9.6000534"><ele>221.0</ele><time>2026-05-02T09:03:57.193Z</time></trkpt><trkpt lat="40.3349002" lon="9.6002154"><ele>222.66666666666669</ele><time>2026-05-02T09:03:58.193Z</time></trkpt><trkpt lat="40.3350747" lon="9.6003697"><ele>224.33333333333331</ele><time>2026-05-02T09:03:59.193Z</time></trkpt><trkpt lat="40.3352378" lon="9.6005185"><ele>226.0</ele><time>2026-05-02T09:04:00.193Z</time></trkpt><trkpt lat="40.3353737" lon="9.6006769"><ele>226.0</ele><time>2026-05-02T09:04:01.192Z</time></trkpt><trkpt lat="40.3354853" lon="9.6008508"><ele>226.0</ele><time>2026-05-02T09:04:02.192Z</time></trkpt><trkpt lat="40.3355696" lon="9.6010509"><ele>226.0</ele><time>2026-05-02T09:04:03.193Z</time></trkpt><trkpt lat="40.3356333" lon="9.6012787"><ele>227.0</ele><time>2026-05-02T09:04:04.192Z</time></trkpt><trkpt lat="40.3356857" lon="9.601534"><ele>228.0</ele><time>2026-05-02T09:04:05.193Z</time></trkpt><trkpt lat="40.3357364" lon="9.6018103"><ele>229.0</ele><time>2026-05-02T09:04:06.193Z</time></trkpt><trkpt lat="40.3357916" lon="9.6021057"><ele>229.0</ele><time>2026-05-02T09:04:07.193Z</time></trkpt><trkpt lat="40.3358506" lon="9.6024062"><ele>229.0</ele><time>2026-05-02T09:04:08.192Z</time></trkpt><trkpt lat="40.33591" lon="9.6027053"><ele>229.5</ele><time>2026-05-02T09:04:09.193Z</time></trkpt><trkpt lat="40.3359693" lon="9.6029976"><ele>230.0</ele><time>2026-05-02T09:04:10.192Z</time></trkpt><trkpt lat="40.3360173" lon="9.6032843"><ele>230.0</ele><time>2026-05-02T09:04:11.193Z</time></trkpt><trkpt lat="40.3360485" lon="9.6035761"><ele>230.0</ele><time>2026-05-02T09:04:12.193Z</time></trkpt><trkpt lat="40.3360624" lon="9.6038696"><ele>230.0</ele><time>2026-05-02T09:04:13.192Z</time></trkpt><trkpt lat="40.3360637" lon="9.6041709"><ele>230.5</ele><time>2026-05-02T09:04:14.192Z</time></trkpt><trkpt lat="40.3360584" lon="9.6044829"><ele>231.0</ele><time>2026-05-02T09:04:15.192Z</time></trkpt><trkpt lat="40.3360513" lon="9.6048018"><ele>231.5</ele><time>2026-05-02T09:04:16.192Z</time></trkpt><trkpt lat="40.3360448" lon="9.6051308"><ele>232.0</ele><time>2026-05-02T09:04:17.192Z</time></trkpt><trkpt lat="40.3360359" lon="9.605465"><ele>232.5</ele><time>2026-05-02T09:04:18.192Z</time></trkpt><trkpt lat="40.3360252" lon="9.6057776"><ele>233.0</ele><time>2026-05-02T09:04:19.193Z</time></trkpt><trkpt lat="40.3360172" lon="9.6060674"><ele>233.33333333333334</ele><time>2026-05-02T09:04:20.192Z</time></trkpt><trkpt lat="40.3360174" lon="9.6063326"><ele>233.66666666666669</ele><time>2026-05-02T09:04:21.192Z</time></trkpt><trkpt lat="40.3360416" lon="9.6065761"><ele>234.0</ele><time>2026-05-02T09:04:22.192Z</time></trkpt><trkpt lat="40.3360994" lon="9.6067999"><ele>233.66666666666669</ele><time>2026-05-02T09:04:23.193Z</time></trkpt><trkpt lat="40.3361858" lon="9.6070154"><ele>233.33333333333334</ele><time>2026-05-02T09:04:24.193Z</time></trkpt><trkpt lat="40.3362997" lon="9.6072296"><ele>233.0</ele><time>2026-05-02T09:04:25.192Z</time></trkpt><trkpt lat="40.3364257" lon="9.6074545"><ele>234.0</ele><time>2026-05-02T09:04:26.192Z</time></trkpt><trkpt lat="40.3365581" lon="9.6076921"><ele>235.0</ele><time>2026-05-02T09:04:27.193Z</time></trkpt><trkpt lat="40.336695" lon="9.6079377"><ele>235.0</ele><time>2026-05-02T09:04:28.192Z</time></trkpt><trkpt lat="40.3368318" lon="9.6081831"><ele>235.0</ele><time>2026-05-02T09:04:29.192Z</time></trkpt><trkpt lat="40.336969" lon="9.6084275"><ele>234.0</ele><time>2026-05-02T09:04:30.193Z</time></trkpt><trkpt lat="40.3371073" lon="9.6086698"><ele>233.0</ele><time>2026-05-02T09:04:31.193Z</time></trkpt><trkpt lat="40.3372458" lon="9.6089122"><ele>237.0</ele><time>2026-05-02T09:04:32.193Z</time></trkpt><trkpt lat="40.3373839" lon="9.6091554"><ele>241.0</ele><time>2026-05-02T09:04:33.192Z</time></trkpt><trkpt lat="40.3375225" lon="9.6093997"><ele>237.0</ele><time>2026-05-02T09:04:34.192Z</time></trkpt><trkpt lat="40.3376602" lon="9.6096435"><ele>233.0</ele><time>2026-05-02T09:04:35.193Z</time></trkpt><trkpt lat="40.3377899" lon="9.6098756"><ele>233.0</ele><time>2026-05-02T09:04:36.193Z</time></trkpt><trkpt lat="40.3379181" lon="9.6100899"><ele>233.0</ele><time>2026-05-02T09:04:37.193Z</time></trkpt><trkpt lat="40.3380579" lon="9.6102788"><ele>233.0</ele><time>2026-05-02T09:04:38.193Z</time></trkpt><trkpt lat="40.3382091" lon="9.6104495"><ele>235.33333333333334</ele><time>2026-05-02T09:04:39.192Z</time></trkpt><trkpt lat="40.3383713" lon="9.6106001"><ele>237.66666666666669</ele><time>2026-05-02T09:04:40.192Z</time></trkpt><trkpt lat="40.3385336" lon="9.6107248"><ele>240.0</ele><time>2026-05-02T09:04:41.193Z</time></trkpt><trkpt lat="40.3386825" lon="9.6108322"><ele>240.0</ele><time>2026-05-02T09:04:42.193Z</time></trkpt><trkpt lat="40.3388171" lon="9.6109346"><ele>240.0</ele><time>2026-05-02T09:04:43.192Z</time></trkpt><trkpt lat="40.3389269" lon="9.6110344"><ele>240.0</ele><time>2026-05-02T09:04:44.192Z</time></trkpt><trkpt lat="40.339008" lon="9.6111382"><ele>240.0</ele><time>2026-05-02T09:04:45.192Z</time></trkpt><trkpt lat="40.3390609" lon="9.6112447"><ele>240.4</ele><time>2026-05-02T09:04:46.192Z</time></trkpt><trkpt lat="40.3390883" lon="9.6113507"><ele>240.8</ele><time>2026-05-02T09:04:47.192Z</time></trkpt><trkpt lat="40.3390986" lon="9.6114704"><ele>241.2</ele><time>2026-05-02T09:04:48.193Z</time></trkpt><trkpt lat="40.33909" lon="9.6115961"><ele>241.6</ele><time>2026-05-02T09:04:49.193Z</time></trkpt><trkpt lat="40.3390669" lon="9.6117309"><ele>242.0</ele><time>2026-05-02T09:04:50.193Z</time></trkpt><trkpt lat="40.339034" lon="9.6118784"><ele>243.25</ele><time>2026-05-02T09:04:51.192Z</time></trkpt><trkpt lat="40.3390017" lon="9.6120336"><ele>244.5</ele><time>2026-05-02T09:04:52.193Z</time></trkpt><trkpt lat="40.338971" lon="9.6121964"><ele>245.75</ele><time>2026-05-02T09:04:53.193Z</time></trkpt><trkpt lat="40.3389385" lon="9.6123763"><ele>247.0</ele><time>2026-05-02T09:04:54.193Z</time></trkpt><trkpt lat="40.3388989" lon="9.6125813"><ele>245.66666666666666</ele><time>2026-05-02T09:04:55.192Z</time></trkpt><trkpt lat="40.3388537" lon="9.6128218"><ele>244.33333333333331</ele><time>2026-05-02T09:04:56.193Z</time></trkpt><trkpt lat="40.3388042" lon="9.6130922"><ele>243.0</ele><time>2026-05-02T09:04:57.192Z</time></trkpt><trkpt lat="40.3387471" lon="9.6134036"><ele>242.5</ele><time>2026-05-02T09:04:58.193Z</time></trkpt><trkpt lat="40.3386861" lon="9.6136966"><ele>242.0</ele><time>2026-05-02T09:04:59.193Z</time></trkpt><trkpt lat="40.3386225" lon="9.6139819"><ele>242.0</ele><time>2026-05-02T09:05:00.193Z</time></trkpt><trkpt lat="40.3385607" lon="9.6142704"><ele>242.0</ele><time>2026-05-02T09:05:01.192Z</time></trkpt><trkpt lat="40.3384989" lon="9.6145562"><ele>244.5</ele><time>2026-05-02T09:05:02.192Z</time></trkpt><trkpt lat="40.3384373" lon="9.6148465"><ele>247.0</ele><time>2026-05-02T09:05:03.193Z</time></trkpt><trkpt lat="40.3383763" lon="9.6151356"><ele>249.0</ele><time>2026-05-02T09:05:04.192Z</time></trkpt><trkpt lat="40.3383175" lon="9.6154254"><ele>251.0</ele><time>2026-05-02T09:05:05.193Z</time></trkpt><trkpt lat="40.3382593" lon="9.6157135"><ele>251.0</ele><time>2026-05-02T09:05:06.192Z</time></trkpt><trkpt lat="40.3382015" lon="9.6159996"><ele>251.0</ele><time>2026-05-02T09:05:07.193Z</time></trkpt><trkpt lat="40.3381438" lon="9.6162916"><ele>255.0</ele><time>2026-05-02T09:05:08.192Z</time></trkpt><trkpt lat="40.3380831" lon="9.6165866"><ele>259.0</ele><time>2026-05-02T09:05:09.192Z</time></trkpt><trkpt lat="40.3380204" lon="9.6168895"><ele>253.0</ele><time>2026-05-02T09:05:10.192Z</time></trkpt><trkpt lat="40.3379564" lon="9.6172042"><ele>247.0</ele><time>2026-05-02T09:05:11.192Z</time></trkpt><trkpt lat="40.337892" lon="9.6175219"><ele>248.5</ele><time>2026-05-02T09:05:12.193Z</time></trkpt><trkpt lat="40.3378279" lon="9.6178355"><ele>250.0</ele><time>2026-05-02T09:05:13.192Z</time></trkpt><trkpt lat="40.3377651" lon="9.6181432"><ele>250.0</ele><time>2026-05-02T09:05:14.192Z</time></trkpt><trkpt lat="40.3377067" lon="9.6184274"><ele>250.0</ele><time>2026-05-02T09:05:15.192Z</time></trkpt><trkpt lat="40.3376518" lon="9.6186883"><ele>250.0</ele><time>2026-05-02T09:05:16.193Z</time></trkpt><trkpt lat="40.3376022" lon="9.6189379"><ele>250.66666666666666</ele><time>2026-05-02T09:05:17.193Z</time></trkpt><trkpt lat="40.3375629" lon="9.6191874"><ele>251.33333333333331</ele><time>2026-05-02T09:05:18.193Z</time></trkpt><trkpt lat="40.3375439" lon="9.6194386"><ele>252.0</ele><time>2026-05-02T09:05:19.192Z</time></trkpt><trkpt lat="40.3375473" lon="9.6196881"><ele>252.0</ele><time>2026-05-02T09:05:20.193Z</time></trkpt><trkpt lat="40.337575" lon="9.6199379"><ele>252.0</ele><time>2026-05-02T09:05:21.193Z</time></trkpt><trkpt lat="40.3376176" lon="9.6201968"><ele>252.0</ele><time>2026-05-02T09:05:22.193Z</time></trkpt><trkpt lat="40.3376708" lon="9.6204668"><ele>252.0</ele><time>2026-05-02T09:05:23.192Z</time></trkpt><trkpt lat="40.337726" lon="9.6207497"><ele>252.0</ele><time>2026-05-02T09:05:24.192Z</time></trkpt><trkpt lat="40.3377808" lon="9.6210372"><ele>252.0</ele><time>2026-05-02T09:05:25.193Z</time></trkpt><trkpt lat="40.3378331" lon="9.6213109"><ele>251.0</ele><time>2026-05-02T09:05:26.193Z</time></trkpt><trkpt lat="40.3378818" lon="9.6215585"><ele>250.0</ele><time>2026-05-02T09:05:27.193Z</time></trkpt><trkpt lat="40.3379311" lon="9.6217704"><ele>249.0</ele><time>2026-05-02T09:05:28.193Z</time></trkpt><trkpt lat="40.337996" lon="9.6219553"><ele>249.5</ele><time>2026-05-02T09:05:29.192Z</time></trkpt><trkpt lat="40.3380867" lon="9.6220932"><ele>250.0</ele><time>2026-05-02T09:05:30.192Z</time></trkpt><trkpt lat="40.3382085" lon="9.6221896"><ele>250.5</ele><time>2026-05-02T09:05:31.193Z</time></trkpt><trkpt lat="40.3383494" lon="9.6222484"><ele>251.0</ele><time>2026-05-02T09:05:32.192Z</time></trkpt><trkpt lat="40.3384972" lon="9.6222983"><ele>251.0</ele><time>2026-05-02T09:05:33.192Z</time></trkpt><trkpt lat="40.3386177" lon="9.6223964"><ele>251.0</ele><time>2026-05-02T09:05:34.193Z</time></trkpt><trkpt lat="40.3386981" lon="9.622533"><ele>251.0</ele><time>2026-05-02T09:05:35.192Z</time></trkpt><trkpt lat="40.3387349" lon="9.6227006"><ele>251.0</ele><time>2026-05-02T09:05:36.193Z</time></trkpt><trkpt lat="40.3387331" lon="9.6228905"><ele>249.0</ele><time>2026-05-02T09:05:37.193Z</time></trkpt><trkpt lat="40.3387193" lon="9.6231085"><ele>247.0</ele><time>2026-05-02T09:05:38.193Z</time></trkpt><trkpt lat="40.3387272" lon="9.6233466"><ele>245.0</ele><time>2026-05-02T09:05:39.193Z</time></trkpt><trkpt lat="40.3387644" lon="9.6235844"><ele>244.33333333333334</ele><time>2026-05-02T09:05:40.193Z</time></trkpt><trkpt lat="40.3388336" lon="9.6238241"><ele>243.66666666666669</ele><time>2026-05-02T09:05:41.192Z</time></trkpt><trkpt lat="40.3389295" lon="9.6240697"><ele>243.0</ele><time>2026-05-02T09:05:42.193Z</time></trkpt><trkpt lat="40.3390428" lon="9.6243245"><ele>246.5</ele><time>2026-05-02T09:05:43.193Z</time></trkpt><trkpt lat="40.3391621" lon="9.6245897"><ele>250.0</ele><time>2026-05-02T09:05:44.192Z</time></trkpt><trkpt lat="40.3392867" lon="9.624853"><ele>250.0</ele><time>2026-05-02T09:05:45.193Z</time></trkpt><trkpt lat="40.3394241" lon="9.6251128"><ele>250.0</ele><time>2026-05-02T09:05:46.193Z</time></trkpt><trkpt lat="40.3395724" lon="9.6253681"><ele>251.0</ele><time>2026-05-02T09:05:47.193Z</time></trkpt><trkpt lat="40.3397223" lon="9.6256096"><ele>252.0</ele><time>2026-05-02T09:05:48.192Z</time></trkpt><trkpt lat="40.3398699" lon="9.6258305"><ele>252.0</ele><time>2026-05-02T09:05:49.192Z</time></trkpt><trkpt lat="40.3400291" lon="9.6260201"><ele>252.0</ele><time>2026-05-02T09:05:50.192Z</time></trkpt><trkpt lat="40.3402012" lon="9.6261629"><ele>252.0</ele><time>2026-05-02T09:05:51.193Z</time></trkpt><trkpt lat="40.3403784" lon="9.6262698"><ele>250.66666666666669</ele><time>2026-05-02T09:05:52.193Z</time></trkpt><trkpt lat="40.3405345" lon="9.6263712"><ele>249.33333333333334</ele><time>2026-05-02T09:05:53.192Z</time></trkpt><trkpt lat="40.3406541" lon="9.6265044"><ele>248.0</ele><time>2026-05-02T09:05:54.192Z</time></trkpt><trkpt lat="40.3407348" lon="9.6266649"><ele>248.0</ele><time>2026-05-02T09:05:55.193Z</time></trkpt><trkpt lat="40.3407668" lon="9.6268512"><ele>248.0</ele><time>2026-05-02T09:05:56.193Z</time></trkpt><trkpt lat="40.340761" lon="9.6270565"><ele>248.0</ele><time>2026-05-02T09:05:57.192Z</time></trkpt><trkpt lat="40.3407424" lon="9.6272782"><ele>247.33333333333334</ele><time>2026-05-02T09:05:58.193Z</time></trkpt><trkpt lat="40.3407586" lon="9.6274993"><ele>246.66666666666669</ele><time>2026-05-02T09:05:59.192Z</time></trkpt><trkpt lat="40.3408242" lon="9.6277171"><ele>246.0</ele><time>2026-05-02T09:06:00.192Z</time></trkpt><trkpt lat="40.3409256" lon="9.6279319"><ele>244.33333333333331</ele><time>2026-05-02T09:06:01.193Z</time></trkpt><trkpt lat="40.3410469" lon="9.6281626"><ele>242.66666666666666</ele><time>2026-05-02T09:06:02.192Z</time></trkpt><trkpt lat="40.341162" lon="9.6284042"><ele>241.0</ele><time>2026-05-02T09:06:03.193Z</time></trkpt><trkpt lat="40.34125" lon="9.6286696"><ele>238.5</ele><time>2026-05-02T09:06:04.193Z</time></trkpt><trkpt lat="40.3413143" lon="9.628968"><ele>236.0</ele><time>2026-05-02T09:06:05.193Z</time></trkpt><trkpt lat="40.3413765" lon="9.6292929"><ele>239.5</ele><time>2026-05-02T09:06:06.193Z</time></trkpt><trkpt lat="40.3414397" lon="9.629609"><ele>243.0</ele><time>2026-05-02T09:06:07.193Z</time></trkpt><trkpt lat="40.3414904" lon="9.6298809"><ele>243.0</ele><time>2026-05-02T09:06:08.192Z</time></trkpt><trkpt lat="40.3415389" lon="9.6301191"><ele>243.0</ele><time>2026-05-02T09:06:09.193Z</time></trkpt><trkpt lat="40.3415975" lon="9.6303204"><ele>243.0</ele><time>2026-05-02T09:06:10.192Z</time></trkpt><trkpt lat="40.341692" lon="9.6304852"><ele>241.0</ele><time>2026-05-02T09:06:11.193Z</time></trkpt><trkpt lat="40.3418222" lon="9.6306048"><ele>239.0</ele><time>2026-05-02T09:06:12.193Z</time></trkpt><trkpt lat="40.3419799" lon="9.6306594"><ele>237.0</ele><time>2026-05-02T09:06:13.193Z</time></trkpt><trkpt lat="40.3421637" lon="9.6306652"><ele>237.0</ele><time>2026-05-02T09:06:14.192Z</time></trkpt><trkpt lat="40.3423754" lon="9.6306475"><ele>237.0</ele><time>2026-05-02T09:06:15.193Z</time></trkpt><trkpt lat="40.3425702" lon="9.6306388"><ele>237.0</ele><time>2026-05-02T09:06:16.193Z</time></trkpt><trkpt lat="40.342749" lon="9.6306551"><ele>237.0</ele><time>2026-05-02T09:06:17.192Z</time></trkpt><trkpt lat="40.3429133" lon="9.6307192"><ele>237.0</ele><time>2026-05-02T09:06:18.192Z</time></trkpt><trkpt lat="40.3430437" lon="9.630845"><ele>237.0</ele><time>2026-05-02T09:06:19.193Z</time></trkpt><trkpt lat="40.3431519" lon="9.6310247"><ele>236.0</ele><time>2026-05-02T09:06:20.192Z</time></trkpt><trkpt lat="40.3432465" lon="9.6312522"><ele>235.0</ele><time>2026-05-02T09:06:21.193Z</time></trkpt><trkpt lat="40.3433377" lon="9.6314971"><ele>234.0</ele><time>2026-05-02T09:06:22.193Z</time></trkpt><trkpt lat="40.3434212" lon="9.6317024"><ele>234.0</ele><time>2026-05-02T09:06:23.193Z</time></trkpt><trkpt lat="40.3435231" lon="9.6318783"><ele>234.0</ele><time>2026-05-02T09:06:24.193Z</time></trkpt><trkpt lat="40.3436626" lon="9.6320122"><ele>234.0</ele><time>2026-05-02T09:06:25.193Z</time></trkpt><trkpt lat="40.3438314" lon="9.6321039"><ele>233.66666666666669</ele><time>2026-05-02T09:06:26.192Z</time></trkpt><trkpt lat="40.3440256" lon="9.6321841"><ele>233.33333333333334</ele><time>2026-05-02T09:06:27.192Z</time></trkpt><trkpt lat="40.3442552" lon="9.6322638"><ele>233.0</ele><time>2026-05-02T09:06:28.193Z</time></trkpt><trkpt lat="40.3444858" lon="9.6323487"><ele>233.0</ele><time>2026-05-02T09:06:29.193Z</time></trkpt><trkpt lat="40.3447177" lon="9.6324365"><ele>233.0</ele><time>2026-05-02T09:06:30.193Z</time></trkpt><trkpt lat="40.3449405" lon="9.6325242"><ele>233.0</ele><time>2026-05-02T09:06:31.192Z</time></trkpt><trkpt lat="40.3451526" lon="9.6326063"><ele>233.0</ele><time>2026-05-02T09:06:32.192Z</time></trkpt><trkpt lat="40.3453554" lon="9.6326755"><ele>233.0</ele><time>2026-05-02T09:06:33.192Z</time></trkpt><trkpt lat="40.3455589" lon="9.632727"><ele>232.33333333333334</ele><time>2026-05-02T09:06:34.193Z</time></trkpt><trkpt lat="40.3457702" lon="9.6327546"><ele>231.66666666666669</ele><time>2026-05-02T09:06:35.193Z</time></trkpt><trkpt lat="40.3459886" lon="9.6327658"><ele>231.0</ele><time>2026-05-02T09:06:36.192Z</time></trkpt><trkpt lat="40.346218" lon="9.6327739"><ele>231.0</ele><time>2026-05-02T09:06:37.193Z</time></trkpt><trkpt lat="40.3464572" lon="9.6327814"><ele>231.0</ele><time>2026-05-02T09:06:38.192Z</time></trkpt><trkpt lat="40.3466971" lon="9.6327847"><ele>231.0</ele><time>2026-05-02T09:06:39.192Z</time></trkpt><trkpt lat="40.3469384" lon="9.6327886"><ele>231.0</ele><time>2026-05-02T09:06:40.193Z</time></trkpt><trkpt lat="40.3471704" lon="9.632792"><ele>231.0</ele><time>2026-05-02T09:06:41.193Z</time></trkpt><trkpt lat="40.3473955" lon="9.6327959"><ele>231.0</ele><time>2026-05-02T09:06:42.193Z</time></trkpt><trkpt lat="40.3476249" lon="9.6327993"><ele>231.0</ele><time>2026-05-02T09:06:43.193Z</time></trkpt><trkpt lat="40.3478592" lon="9.6328003"><ele>231.0</ele><time>2026-05-02T09:06:44.192Z</time></trkpt><trkpt lat="40.3481002" lon="9.632801"><ele>229.0</ele><time>2026-05-02T09:06:45.192Z</time></trkpt><trkpt lat="40.3483363" lon="9.6328036"><ele>227.0</ele><time>2026-05-02T09:06:46.192Z</time></trkpt><trkpt lat="40.348564" lon="9.6328132"><ele>226.0</ele><time>2026-05-02T09:06:47.192Z</time></trkpt><trkpt lat="40.3487759" lon="9.6328538"><ele>225.0</ele><time>2026-05-02T09:06:48.193Z</time></trkpt><trkpt lat="40.3489692" lon="9.6329351"><ele>224.0</ele><time>2026-05-02T09:06:49.193Z</time></trkpt><trkpt lat="40.3491509" lon="9.6330606"><ele>223.33333333333334</ele><time>2026-05-02T09:06:50.192Z</time></trkpt><trkpt lat="40.349326" lon="9.6332276"><ele>222.66666666666669</ele><time>2026-05-02T09:06:51.193Z</time></trkpt><trkpt lat="40.3495036" lon="9.6334158"><ele>222.0</ele><time>2026-05-02T09:06:52.192Z</time></trkpt><trkpt lat="40.3496695" lon="9.6335946"><ele>221.66666666666669</ele><time>2026-05-02T09:06:53.192Z</time></trkpt><trkpt lat="40.3498284" lon="9.6337542"><ele>221.33333333333334</ele><time>2026-05-02T09:06:54.192Z</time></trkpt><trkpt lat="40.3499935" lon="9.6338744"><ele>221.0</ele><time>2026-05-02T09:06:55.192Z</time></trkpt><trkpt lat="40.3501652" lon="9.6339519"><ele>221.0</ele><time>2026-05-02T09:06:56.192Z</time></trkpt><trkpt lat="40.3503428" lon="9.6339591"><ele>221.0</ele><time>2026-05-02T09:06:57.192Z</time></trkpt><trkpt lat="40.3505319" lon="9.6339122"><ele>221.0</ele><time>2026-05-02T09:06:58.193Z</time></trkpt><trkpt lat="40.3507353" lon="9.6338334"><ele>220.66666666666669</ele><time>2026-05-02T09:06:59.193Z</time></trkpt><trkpt lat="40.3509384" lon="9.633751"><ele>220.33333333333331</ele><time>2026-05-02T09:07:00.192Z</time></trkpt><trkpt lat="40.3511251" lon="9.6336838"><ele>220.0</ele><time>2026-05-02T09:07:01.193Z</time></trkpt><trkpt lat="40.3513024" lon="9.6336269"><ele>220.33333333333331</ele><time>2026-05-02T09:07:02.192Z</time></trkpt><trkpt lat="40.3514718" lon="9.6336116"><ele>220.66666666666669</ele><time>2026-05-02T09:07:03.193Z</time></trkpt><trkpt lat="40.3516288" lon="9.6336517"><ele>221.0</ele><time>2026-05-02T09:07:04.193Z</time></trkpt><trkpt lat="40.3517799" lon="9.6337435"><ele>220.33333333333334</ele><time>2026-05-02T09:07:05.193Z</time></trkpt><trkpt lat="40.3519297" lon="9.6338657"><ele>219.66666666666669</ele><time>2026-05-02T09:07:06.193Z</time></trkpt><trkpt lat="40.3520917" lon="9.6339754"><ele>219.0</ele><time>2026-05-02T09:07:07.192Z</time></trkpt><trkpt lat="40.3522749" lon="9.6340398"><ele>219.0</ele><time>2026-05-02T09:07:08.192Z</time></trkpt><trkpt lat="40.3524794" lon="9.6340731"><ele>219.0</ele><time>2026-05-02T09:07:09.193Z</time></trkpt><trkpt lat="40.3526898" lon="9.6340931"><ele>219.0</ele><time>2026-05-02T09:07:10.193Z</time></trkpt><trkpt lat="40.3528764" lon="9.6341121"><ele>218.33333333333331</ele><time>2026-05-02T09:07:11.192Z</time></trkpt><trkpt lat="40.3530415" lon="9.6341479"><ele>217.66666666666666</ele><time>2026-05-02T09:07:12.192Z</time></trkpt><trkpt lat="40.3531753" lon="9.6342287"><ele>217.0</ele><time>2026-05-02T09:07:13.193Z</time></trkpt><trkpt lat="40.3532797" lon="9.6343604"><ele>216.0</ele><time>2026-05-02T09:07:14.192Z</time></trkpt><trkpt lat="40.353364" lon="9.634555"><ele>215.0</ele><time>2026-05-02T09:07:15.193Z</time></trkpt><trkpt lat="40.3534441" lon="9.6347936"><ele>214.0</ele><time>2026-05-02T09:07:16.192Z</time></trkpt><trkpt lat="40.3535319" lon="9.6350694"><ele>212.5</ele><time>2026-05-02T09:07:17.192Z</time></trkpt><trkpt lat="40.3536306" lon="9.6353943"><ele>211.0</ele><time>2026-05-02T09:07:18.193Z</time></trkpt><trkpt lat="40.35373" lon="9.6357101"><ele>211.0</ele><time>2026-05-02T09:07:19.192Z</time></trkpt><trkpt lat="40.3538295" lon="9.6360256"><ele>211.0</ele><time>2026-05-02T09:07:20.192Z</time></trkpt><trkpt lat="40.3539283" lon="9.6363416"><ele>209.0</ele><time>2026-05-02T09:07:21.192Z</time></trkpt><trkpt lat="40.3540269" lon="9.6366553"><ele>207.0</ele><time>2026-05-02T09:07:22.193Z</time></trkpt><trkpt lat="40.3541243" lon="9.636969"><ele>208.0</ele><time>2026-05-02T09:07:23.192Z</time></trkpt><trkpt lat="40.3542227" lon="9.6372817"><ele>209.0</ele><time>2026-05-02T09:07:24.192Z</time></trkpt><trkpt lat="40.354313" lon="9.6375743"><ele>208.33333333333334</ele><time>2026-05-02T09:07:25.193Z</time></trkpt><trkpt lat="40.3543926" lon="9.6378449"><ele>207.66666666666669</ele><time>2026-05-02T09:07:26.193Z</time></trkpt><trkpt lat="40.3544559" lon="9.6380946"><ele>207.0</ele><time>2026-05-02T09:07:27.193Z</time></trkpt><trkpt lat="40.354493" lon="9.6383396"><ele>207.0</ele><time>2026-05-02T09:07:28.193Z</time></trkpt><trkpt lat="40.3544892" lon="9.6385715"><ele>207.0</ele><time>2026-05-02T09:07:29.193Z</time></trkpt><trkpt lat="40.3544504" lon="9.6388118"><ele>207.0</ele><time>2026-05-02T09:07:30.192Z</time></trkpt><trkpt lat="40.3543706" lon="9.639047"><ele>207.33333333333331</ele><time>2026-05-02T09:07:31.192Z</time></trkpt><trkpt lat="40.3542642" lon="9.6392507"><ele>207.66666666666666</ele><time>2026-05-02T09:07:32.192Z</time></trkpt><trkpt lat="40.3541273" lon="9.6394193"><ele>208.0</ele><time>2026-05-02T09:07:33.192Z</time></trkpt><trkpt lat="40.3539652" lon="9.6395479"><ele>209.0</ele><time>2026-05-02T09:07:34.192Z</time></trkpt><trkpt lat="40.3537833" lon="9.6396184"><ele>210.0</ele><time>2026-05-02T09:07:35.192Z</time></trkpt><trkpt lat="40.3535867" lon="9.6396358"><ele>211.0</ele><time>2026-05-02T09:07:36.192Z</time></trkpt><trkpt lat="40.3533811" lon="9.6396308"><ele>211.0</ele><time>2026-05-02T09:07:37.192Z</time></trkpt><trkpt lat="40.3531833" lon="9.6396438"><ele>211.0</ele><time>2026-05-02T09:07:38.193Z</time></trkpt><trkpt lat="40.3529987" lon="9.6397124"><ele>211.0</ele><time>2026-05-02T09:07:39.193Z</time></trkpt><trkpt lat="40.3528125" lon="9.6398202"><ele>206.0</ele><time>2026-05-02T09:07:40.193Z</time></trkpt><trkpt lat="40.3526201" lon="9.6399597"><ele>201.0</ele><time>2026-05-02T09:07:41.193Z</time></trkpt><trkpt lat="40.3524192" lon="9.640116"><ele>201.0</ele><time>2026-05-02T09:07:42.193Z</time></trkpt><trkpt lat="40.3522102" lon="9.6402816"><ele>201.0</ele><time>2026-05-02T09:07:43.193Z</time></trkpt><trkpt lat="40.3519954" lon="9.6404466"><ele>202.5</ele><time>2026-05-02T09:07:44.193Z</time></trkpt><trkpt lat="40.35178" lon="9.6406119"><ele>204.0</ele><time>2026-05-02T09:07:45.192Z</time></trkpt><trkpt lat="40.3515772" lon="9.6407726"><ele>204.0</ele><time>2026-05-02T09:07:46.192Z</time></trkpt><trkpt lat="40.3513998" lon="9.6409173"><ele>204.0</ele><time>2026-05-02T09:07:47.192Z</time></trkpt><trkpt lat="40.3512529" lon="9.6410588"><ele>204.0</ele><time>2026-05-02T09:07:48.192Z</time></trkpt><trkpt lat="40.3511419" lon="9.6412132"><ele>202.0</ele><time>2026-05-02T09:07:49.193Z</time></trkpt><trkpt lat="40.3510833" lon="9.6413905"><ele>200.0</ele><time>2026-05-02T09:07:50.193Z</time></trkpt><trkpt lat="40.3510722" lon="9.6416022"><ele>198.0</ele><time>2026-05-02T09:07:51.193Z</time></trkpt><trkpt lat="40.3511064" lon="9.6418458"><ele>196.5</ele><time>2026-05-02T09:07:52.193Z</time></trkpt><trkpt lat="40.3511642" lon="9.6421147"><ele>195.0</ele><time>2026-05-02T09:07:53.192Z</time></trkpt><trkpt lat="40.3512457" lon="9.6424397"><ele>195.0</ele><time>2026-05-02T09:07:54.193Z</time></trkpt><trkpt lat="40.3513222" lon="9.6427701"><ele>195.0</ele><time>2026-05-02T09:07:55.192Z</time></trkpt><trkpt lat="40.3513916" lon="9.643073"><ele>194.66666666666669</ele><time>2026-05-02T09:07:56.193Z</time></trkpt><trkpt lat="40.3514608" lon="9.6433611"><ele>194.33333333333334</ele><time>2026-05-02T09:07:57.192Z</time></trkpt><trkpt lat="40.3515239" lon="9.6436109"><ele>194.0</ele><time>2026-05-02T09:07:58.193Z</time></trkpt><trkpt lat="40.3515718" lon="9.6438265"><ele>194.0</ele><time>2026-05-02T09:07:59.193Z</time></trkpt><trkpt lat="40.3515886" lon="9.6440224"><ele>194.0</ele><time>2026-05-02T09:08:00.192Z</time></trkpt><trkpt lat="40.3515568" lon="9.6441943"><ele>194.0</ele><time>2026-05-02T09:08:01.192Z</time></trkpt><trkpt lat="40.3514734" lon="9.6443456"><ele>194.0</ele><time>2026-05-02T09:08:02.193Z</time></trkpt><trkpt lat="40.3513494" lon="9.6444776"><ele>192.66666666666669</ele><time>2026-05-02T09:08:03.193Z</time></trkpt><trkpt lat="40.3511943" lon="9.644623"><ele>191.33333333333334</ele><time>2026-05-02T09:08:04.192Z</time></trkpt><trkpt lat="40.3510131" lon="9.6447986"><ele>190.0</ele><time>2026-05-02T09:08:05.193Z</time></trkpt><trkpt lat="40.3508131" lon="9.644991"><ele>190.0</ele><time>2026-05-02T09:08:06.192Z</time></trkpt><trkpt lat="40.3506048" lon="9.6451872"><ele>190.0</ele><time>2026-05-02T09:08:07.193Z</time></trkpt><trkpt lat="40.3504065" lon="9.6453765"><ele>189.0</ele><time>2026-05-02T09:08:08.193Z</time></trkpt><trkpt lat="40.3502211" lon="9.6455549"><ele>188.0</ele><time>2026-05-02T09:08:09.192Z</time></trkpt><trkpt lat="40.3500534" lon="9.6457179"><ele>187.0</ele><time>2026-05-02T09:08:10.193Z</time></trkpt><trkpt lat="40.3499026" lon="9.6458859"><ele>187.0</ele><time>2026-05-02T09:08:11.192Z</time></trkpt><trkpt lat="40.3497873" lon="9.6460756"><ele>187.0</ele><time>2026-05-02T09:08:12.193Z</time></trkpt><trkpt lat="40.3497104" lon="9.6462893"><ele>187.0</ele><time>2026-05-02T09:08:13.192Z</time></trkpt><trkpt lat="40.3496853" lon="9.6465245"><ele>187.0</ele><time>2026-05-02T09:08:14.193Z</time></trkpt><trkpt lat="40.3496988" lon="9.6467801"><ele>187.0</ele><time>2026-05-02T09:08:15.192Z</time></trkpt><trkpt lat="40.3497302" lon="9.6470497"><ele>187.0</ele><time>2026-05-02T09:08:16.193Z</time></trkpt><trkpt lat="40.3497329" lon="9.6473094"><ele>182.0</ele><time>2026-05-02T09:08:17.192Z</time></trkpt><trkpt lat="40.3496989" lon="9.6475552"><ele>177.0</ele><time>2026-05-02T09:08:18.192Z</time></trkpt><trkpt lat="40.3496158" lon="9.6477939"><ele>172.0</ele><time>2026-05-02T09:08:19.192Z</time></trkpt><trkpt lat="40.3495045" lon="9.6480301"><ele>172.0</ele><time>2026-05-02T09:08:20.192Z</time></trkpt><trkpt lat="40.3493934" lon="9.6482467"><ele>172.0</ele><time>2026-05-02T09:08:21.193Z</time></trkpt><trkpt lat="40.3492875" lon="9.6484542"><ele>172.0</ele><time>2026-05-02T09:08:22.193Z</time></trkpt><trkpt lat="40.3491876" lon="9.6486534"><ele>172.0</ele><time>2026-05-02T09:08:23.193Z</time></trkpt><trkpt lat="40.3490911" lon="9.6488412"><ele>172.0</ele><time>2026-05-02T09:08:24.193Z</time></trkpt><trkpt lat="40.3490007" lon="9.6490167"><ele>172.0</ele><time>2026-05-02T09:08:25.192Z</time></trkpt><trkpt lat="40.3489157" lon="9.649182"><ele>169.25</ele><time>2026-05-02T09:08:26.193Z</time></trkpt><trkpt lat="40.3488355" lon="9.6493412"><ele>166.5</ele><time>2026-05-02T09:08:27.192Z</time></trkpt><trkpt lat="40.3487557" lon="9.6494957"><ele>163.75</ele><time>2026-05-02T09:08:28.192Z</time></trkpt><trkpt lat="40.348673" lon="9.6496563"><ele>161.0</ele><time>2026-05-02T09:08:29.193Z</time></trkpt><trkpt lat="40.3485914" lon="9.6498184"><ele>161.0</ele><time>2026-05-02T09:08:30.192Z</time></trkpt><trkpt lat="40.3485098" lon="9.6499778"><ele>161.0</ele><time>2026-05-02T09:08:31.192Z</time></trkpt><trkpt lat="40.3484284" lon="9.650137"><ele>161.0</ele><time>2026-05-02T09:08:32.193Z</time></trkpt><trkpt lat="40.3483536" lon="9.650299"><ele>161.0</ele><time>2026-05-02T09:08:33.192Z</time></trkpt><trkpt lat="40.3482953" lon="9.6504689"><ele>161.66666666666666</ele><time>2026-05-02T09:08:34.193Z</time></trkpt><trkpt lat="40.3482518" lon="9.6506577"><ele>162.33333333333334</ele><time>2026-05-02T09:08:35.193Z</time></trkpt><trkpt lat="40.3482336" lon="9.6508632"><ele>163.0</ele><time>2026-05-02T09:08:36.193Z</time></trkpt><trkpt lat="40.3482429" lon="9.6510771"><ele>161.33333333333334</ele><time>2026-05-02T09:08:37.192Z</time></trkpt><trkpt lat="40.3482772" lon="9.6512914"><ele>159.66666666666666</ele><time>2026-05-02T09:08:38.192Z</time></trkpt><trkpt lat="40.3483394" lon="9.6514904"><ele>158.0</ele><time>2026-05-02T09:08:39.192Z</time></trkpt><trkpt lat="40.3484264" lon="9.6516764"><ele>158.0</ele><time>2026-05-02T09:08:40.193Z</time></trkpt><trkpt lat="40.3485284" lon="9.6518531"><ele>158.0</ele><time>2026-05-02T09:08:41.193Z</time></trkpt><trkpt lat="40.3486328" lon="9.6520263"><ele>158.0</ele><time>2026-05-02T09:08:42.193Z</time></trkpt><trkpt lat="40.3487312" lon="9.6522003"><ele>153.66666666666666</ele><time>2026-05-02T09:08:43.193Z</time></trkpt><trkpt lat="40.3487948" lon="9.652387"><ele>149.33333333333334</ele><time>2026-05-02T09:08:44.192Z</time></trkpt><trkpt lat="40.3488292" lon="9.6525781"><ele>145.0</ele><time>2026-05-02T09:08:45.193Z</time></trkpt><trkpt lat="40.3488306" lon="9.6527737"><ele>145.0</ele><time>2026-05-02T09:08:46.193Z</time></trkpt><trkpt lat="40.348797" lon="9.6529726"><ele>145.0</ele><time>2026-05-02T09:08:47.192Z</time></trkpt><trkpt lat="40.3487453" lon="9.6531784"><ele>145.0</ele><time>2026-05-02T09:08:48.192Z</time></trkpt><trkpt lat="40.3486927" lon="9.6533874"><ele>145.0</ele><time>2026-05-02T09:08:49.192Z</time></trkpt><trkpt lat="40.3486521" lon="9.6535909"><ele>145.0</ele><time>2026-05-02T09:08:50.192Z</time></trkpt><trkpt lat="40.3486335" lon="9.6538041"><ele>145.0</ele><time>2026-05-02T09:08:51.193Z</time></trkpt><trkpt lat="40.34864" lon="9.6540096"><ele>145.33333333333334</ele><time>2026-05-02T09:08:52.193Z</time></trkpt><trkpt lat="40.3486767" lon="9.6542185"><ele>145.66666666666666</ele><time>2026-05-02T09:08:53.193Z</time></trkpt><trkpt lat="40.3487429" lon="9.654417"><ele>146.0</ele><time>2026-05-02T09:08:54.192Z</time></trkpt><trkpt lat="40.3488373" lon="9.654598"><ele>146.33333333333331</ele><time>2026-05-02T09:08:55.192Z</time></trkpt><trkpt lat="40.3489479" lon="9.6547588"><ele>146.66666666666666</ele><time>2026-05-02T09:08:56.193Z</time></trkpt><trkpt lat="40.3490831" lon="9.6548953"><ele>147.0</ele><time>2026-05-02T09:08:57.192Z</time></trkpt><trkpt lat="40.3492286" lon="9.6550259"><ele>147.0</ele><time>2026-05-02T09:08:58.192Z</time></trkpt><trkpt lat="40.3493778" lon="9.6551586"><ele>147.0</ele><time>2026-05-02T09:08:59.192Z</time></trkpt><trkpt lat="40.3495293" lon="9.6552989"><ele>147.0</ele><time>2026-05-02T09:09:00.192Z</time></trkpt><trkpt lat="40.3496744" lon="9.6554557"><ele>145.66666666666666</ele><time>2026-05-02T09:09:01.193Z</time></trkpt><trkpt lat="40.3498077" lon="9.6556458"><ele>144.33333333333331</ele><time>2026-05-02T09:09:02.192Z</time></trkpt><trkpt lat="40.3499303" lon="9.6558476"><ele>143.0</ele><time>2026-05-02T09:09:03.192Z</time></trkpt><trkpt lat="40.3500395" lon="9.6560424"><ele>142.33333333333331</ele><time>2026-05-02T09:09:04.192Z</time></trkpt><trkpt lat="40.3501273" lon="9.65624"><ele>141.66666666666666</ele><time>2026-05-02T09:09:05.193Z</time></trkpt><trkpt lat="40.3501945" lon="9.6564378"><ele>141.0</ele><time>2026-05-02T09:09:06.192Z</time></trkpt><trkpt lat="40.3502591" lon="9.6566241"><ele>141.0</ele><time>2026-05-02T09:09:07.192Z</time></trkpt><trkpt lat="40.3503518" lon="9.6567807"><ele>141.0</ele><time>2026-05-02T09:09:08.193Z</time></trkpt><trkpt lat="40.3504702" lon="9.6568842"><ele>141.0</ele><time>2026-05-02T09:09:09.193Z</time></trkpt><trkpt lat="40.3506118" lon="9.6569287"><ele>141.0</ele><time>2026-05-02T09:09:10.193Z</time></trkpt><trkpt lat="40.3507589" lon="9.6569021"><ele>141.33333333333334</ele><time>2026-05-02T09:09:11.192Z</time></trkpt><trkpt lat="40.3509066" lon="9.6568206"><ele>141.66666666666669</ele><time>2026-05-02T09:09:12.192Z</time></trkpt><trkpt lat="40.3510606" lon="9.656719"><ele>142.0</ele><time>2026-05-02T09:09:13.192Z</time></trkpt><trkpt lat="40.3512058" lon="9.6566356"><ele>142.0</ele><time>2026-05-02T09:09:14.193Z</time></trkpt><trkpt lat="40.35135" lon="9.6565954"><ele>142.0</ele><time>2026-05-02T09:09:15.192Z</time></trkpt><trkpt lat="40.3514792" lon="9.6566169"><ele>142.0</ele><time>2026-05-02T09:09:16.192Z</time></trkpt><trkpt lat="40.3515874" lon="9.6566998"><ele>142.0</ele><time>2026-05-02T09:09:17.193Z</time></trkpt><trkpt lat="40.3516714" lon="9.6568381"><ele>139.66666666666669</ele><time>2026-05-02T09:09:18.192Z</time></trkpt><trkpt lat="40.3517452" lon="9.6570151"><ele>137.33333333333334</ele><time>2026-05-02T09:09:19.193Z</time></trkpt><trkpt lat="40.3518281" lon="9.6572221"><ele>135.0</ele><time>2026-05-02T09:09:20.192Z</time></trkpt><trkpt lat="40.3519207" lon="9.6574536"><ele>135.0</ele><time>2026-05-02T09:09:21.193Z</time></trkpt><trkpt lat="40.3520215" lon="9.6577113"><ele>135.0</ele><time>2026-05-02T09:09:22.193Z</time></trkpt><trkpt lat="40.3521192" lon="9.6579552"><ele>135.0</ele><time>2026-05-02T09:09:23.193Z</time></trkpt><trkpt lat="40.3522178" lon="9.658184"><ele>135.0</ele><time>2026-05-02T09:09:24.193Z</time></trkpt><trkpt lat="40.3523293" lon="9.6583878"><ele>135.0</ele><time>2026-05-02T09:09:25.192Z</time></trkpt><trkpt lat="40.352471" lon="9.6585602"><ele>135.0</ele><time>2026-05-02T09:09:26.193Z</time></trkpt><trkpt lat="40.3526372" lon="9.6587115"><ele>134.33333333333334</ele><time>2026-05-02T09:09:27.193Z</time></trkpt><trkpt lat="40.352825" lon="9.6588513"><ele>133.66666666666669</ele><time>2026-05-02T09:09:28.193Z</time></trkpt><trkpt lat="40.3530238" lon="9.6589909"><ele>133.0</ele><time>2026-05-02T09:09:29.193Z</time></trkpt><trkpt lat="40.3532287" lon="9.6591324"><ele>133.0</ele><time>2026-05-02T09:09:30.193Z</time></trkpt><trkpt lat="40.3534349" lon="9.6592783"><ele>133.0</ele><time>2026-05-02T09:09:31.193Z</time></trkpt><trkpt lat="40.3536385" lon="9.6594253"><ele>131.0</ele><time>2026-05-02T09:09:32.193Z</time></trkpt><trkpt lat="40.3538448" lon="9.6595711"><ele>129.0</ele><time>2026-05-02T09:09:33.193Z</time></trkpt><trkpt lat="40.3540551" lon="9.6597176"><ele>129.0</ele><time>2026-05-02T09:09:34.193Z</time></trkpt><trkpt lat="40.3542634" lon="9.6598608"><ele>129.0</ele><time>2026-05-02T09:09:35.193Z</time></trkpt><trkpt lat="40.3544624" lon="9.6599975"><ele>129.0</ele><time>2026-05-02T09:09:36.193Z</time></trkpt><trkpt lat="40.35465" lon="9.6601255"><ele>129.0</ele><time>2026-05-02T09:09:37.193Z</time></trkpt><trkpt lat="40.3548261" lon="9.6602321"><ele>129.0</ele><time>2026-05-02T09:09:38.192Z</time></trkpt><trkpt lat="40.354992" lon="9.6603016"><ele>128.33333333333334</ele><time>2026-05-02T09:09:39.192Z</time></trkpt><trkpt lat="40.3551516" lon="9.6603164"><ele>127.66666666666667</ele><time>2026-05-02T09:09:40.193Z</time></trkpt><trkpt lat="40.3553082" lon="9.6602769"><ele>127.0</ele><time>2026-05-02T09:09:41.193Z</time></trkpt><trkpt lat="40.3554604" lon="9.6601861"><ele>126.66666666666667</ele><time>2026-05-02T09:09:42.192Z</time></trkpt><trkpt lat="40.3556099" lon="9.6600529"><ele>126.33333333333334</ele><time>2026-05-02T09:09:43.192Z</time></trkpt><trkpt lat="40.3557389" lon="9.6599065"><ele>126.0</ele><time>2026-05-02T09:09:44.193Z</time></trkpt><trkpt lat="40.3558371" lon="9.6597376"><ele>126.0</ele><time>2026-05-02T09:09:45.192Z</time></trkpt><trkpt lat="40.3558966" lon="9.6595301"><ele>126.0</ele><time>2026-05-02T09:09:46.193Z</time></trkpt><trkpt lat="40.3559226" lon="9.6592924"><ele>126.0</ele><time>2026-05-02T09:09:47.193Z</time></trkpt><trkpt lat="40.3559217" lon="9.6590325"><ele>126.66666666666666</ele><time>2026-05-02T09:09:48.193Z</time></trkpt><trkpt lat="40.3559191" lon="9.6587866"><ele>127.33333333333333</ele><time>2026-05-02T09:09:49.193Z</time></trkpt><trkpt lat="40.3559232" lon="9.6585762"><ele>128.0</ele><time>2026-05-02T09:09:50.193Z</time></trkpt><trkpt lat="40.3559431" lon="9.6584017"><ele>128.5</ele><time>2026-05-02T09:09:51.193Z</time></trkpt><trkpt lat="40.3559951" lon="9.6582529"><ele>129.0</ele><time>2026-05-02T09:09:52.193Z</time></trkpt><trkpt lat="40.3560819" lon="9.6581415"><ele>129.5</ele><time>2026-05-02T09:09:53.192Z</time></trkpt><trkpt lat="40.3561981" lon="9.6580584"><ele>130.0</ele><time>2026-05-02T09:09:54.193Z</time></trkpt><trkpt lat="40.3563384" lon="9.6579966"><ele>128.75</ele><time>2026-05-02T09:09:55.193Z</time></trkpt><trkpt lat="40.3564715" lon="9.6579188"><ele>127.5</ele><time>2026-05-02T09:09:56.193Z</time></trkpt><trkpt lat="40.3565818" lon="9.6578251"><ele>126.25</ele><time>2026-05-02T09:09:57.192Z</time></trkpt><trkpt lat="40.3566573" lon="9.6576972"><ele>125.0</ele><time>2026-05-02T09:09:58.192Z</time></trkpt><trkpt lat="40.3566899" lon="9.6575363"><ele>125.0</ele><time>2026-05-02T09:09:59.192Z</time></trkpt><trkpt lat="40.356679" lon="9.6573624"><ele>125.0</ele><time>2026-05-02T09:10:00.193Z</time></trkpt><trkpt lat="40.3566299" lon="9.6571886"><ele>125.0</ele><time>2026-05-02T09:10:01.193Z</time></trkpt><trkpt lat="40.3565772" lon="9.657033"><ele>125.0</ele><time>2026-05-02T09:10:02.192Z</time></trkpt><trkpt lat="40.356558" lon="9.6569012"><ele>126.33333333333333</ele><time>2026-05-02T09:10:03.193Z</time></trkpt><trkpt lat="40.3565805" lon="9.6567914"><ele>127.66666666666666</ele><time>2026-05-02T09:10:04.193Z</time></trkpt><trkpt lat="40.356638" lon="9.6567205"><ele>129.0</ele><time>2026-05-02T09:10:05.193Z</time></trkpt><trkpt lat="40.3567222" lon="9.6566822"><ele>130.33333333333334</ele><time>2026-05-02T09:10:06.193Z</time></trkpt><trkpt lat="40.3568149" lon="9.6566553"><ele>131.66666666666669</ele><time>2026-05-02T09:10:07.193Z</time></trkpt><trkpt lat="40.3569136" lon="9.6566479"><ele>133.0</ele><time>2026-05-02T09:10:08.193Z</time></trkpt><trkpt lat="40.3570056" lon="9.6566776"><ele>133.0</ele><time>2026-05-02T09:10:09.193Z</time></trkpt><trkpt lat="40.3570882" lon="9.6567486"><ele>133.0</ele><time>2026-05-02T09:10:10.193Z</time></trkpt><trkpt lat="40.3571692" lon="9.656851"><ele>133.0</ele><time>2026-05-02T09:10:11.193Z</time></trkpt><trkpt lat="40.3572527" lon="9.6569693"><ele>133.0</ele><time>2026-05-02T09:10:12.192Z</time></trkpt><trkpt lat="40.357328" lon="9.6570772"><ele>133.0</ele><time>2026-05-02T09:10:13.193Z</time></trkpt><trkpt lat="40.3573946" lon="9.6571934"><ele>132.20000000000002</ele><time>2026-05-02T09:10:14.193Z</time></trkpt><trkpt lat="40.3574465" lon="9.6573181"><ele>131.4</ele><time>2026-05-02T09:10:15.193Z</time></trkpt><trkpt lat="40.3574879" lon="9.6574448"><ele>130.60000000000002</ele><time>2026-05-02T09:10:16.192Z</time></trkpt><trkpt lat="40.3575288" lon="9.6575762"><ele>129.8</ele><time>2026-05-02T09:10:17.192Z</time></trkpt><trkpt lat="40.3575714" lon="9.6577058"><ele>129.0</ele><time>2026-05-02T09:10:18.192Z</time></trkpt><trkpt lat="40.3576238" lon="9.6578297"><ele>129.0</ele><time>2026-05-02T09:10:19.193Z</time></trkpt><trkpt lat="40.3576857" lon="9.6579386"><ele>129.0</ele><time>2026-05-02T09:10:20.192Z</time></trkpt><trkpt lat="40.3577594" lon="9.6580285"><ele>129.0</ele><time>2026-05-02T09:10:21.193Z</time></trkpt><trkpt lat="40.357843" lon="9.6581039"><ele>129.0</ele><time>2026-05-02T09:10:22.193Z</time></trkpt><trkpt lat="40.3579387" lon="9.6581631"><ele>129.0</ele><time>2026-05-02T09:10:23.193Z</time></trkpt><trkpt lat="40.3580458" lon="9.6582027"><ele>129.0</ele><time>2026-05-02T09:10:24.192Z</time></trkpt><trkpt lat="40.3581586" lon="9.6582184"><ele>129.0</ele><time>2026-05-02T09:10:25.192Z</time></trkpt><trkpt lat="40.3582748" lon="9.6582076"><ele>129.0</ele><time>2026-05-02T09:10:26.193Z</time></trkpt><trkpt lat="40.3583926" lon="9.6581726"><ele>129.0</ele><time>2026-05-02T09:10:27.192Z</time></trkpt><trkpt lat="40.3585122" lon="9.6581172"><ele>129.0</ele><time>2026-05-02T09:10:28.193Z</time></trkpt><trkpt lat="40.3586288" lon="9.6580416"><ele>129.0</ele><time>2026-05-02T09:10:29.193Z</time></trkpt><trkpt lat="40.3587363" lon="9.6579476"><ele>129.0</ele><time>2026-05-02T09:10:30.193Z</time></trkpt><trkpt lat="40.3588321" lon="9.6578352"><ele>129.0</ele><time>2026-05-02T09:10:31.192Z</time></trkpt><trkpt lat="40.3589061" lon="9.657712"><ele>128.75</ele><time>2026-05-02T09:10:32.192Z</time></trkpt><trkpt lat="40.3589654" lon="9.6575786"><ele>128.5</ele><time>2026-05-02T09:10:33.193Z</time></trkpt><trkpt lat="40.3590126" lon="9.6574351"><ele>128.25</ele><time>2026-05-02T09:10:34.192Z</time></trkpt><trkpt lat="40.3590577" lon="9.6572895"><ele>128.0</ele><time>2026-05-02T09:10:35.193Z</time></trkpt><trkpt lat="40.3591004" lon="9.6571425"><ele>128.0</ele><time>2026-05-02T09:10:36.192Z</time></trkpt><trkpt lat="40.3591472" lon="9.6569955"><ele>128.0</ele><time>2026-05-02T09:10:37.193Z</time></trkpt><trkpt lat="40.3591986" lon="9.6568548"><ele>128.0</ele><time>2026-05-02T09:10:38.193Z</time></trkpt><trkpt lat="40.3592705" lon="9.6567357"><ele>128.0</ele><time>2026-05-02T09:10:39.193Z</time></trkpt><trkpt lat="40.3593642" lon="9.6566418"><ele>128.75</ele><time>2026-05-02T09:10:40.193Z</time></trkpt><trkpt lat="40.3594697" lon="9.6565734"><ele>129.5</ele><time>2026-05-02T09:10:41.193Z</time></trkpt><trkpt lat="40.3595799" lon="9.6565467"><ele>130.25</ele><time>2026-05-02T09:10:42.192Z</time></trkpt><trkpt lat="40.3596903" lon="9.6565539"><ele>131.0</ele><time>2026-05-02T09:10:43.192Z</time></trkpt><trkpt lat="40.3597985" lon="9.6566013"><ele>131.0</ele><time>2026-05-02T09:10:44.193Z</time></trkpt><trkpt lat="40.3598937" lon="9.6566852"><ele>131.0</ele><time>2026-05-02T09:10:45.192Z</time></trkpt><trkpt lat="40.3599757" lon="9.6567947"><ele>131.0</ele><time>2026-05-02T09:10:46.193Z</time></trkpt><trkpt lat="40.3600545" lon="9.6569151"><ele>131.0</ele><time>2026-05-02T09:10:47.193Z</time></trkpt><trkpt lat="40.3601342" lon="9.6570364"><ele>129.5</ele><time>2026-05-02T09:10:48.193Z</time></trkpt><trkpt lat="40.3602177" lon="9.6571639"><ele>128.0</ele><time>2026-05-02T09:10:49.192Z</time></trkpt><trkpt lat="40.3603059" lon="9.657295"><ele>126.5</ele><time>2026-05-02T09:10:50.193Z</time></trkpt><trkpt lat="40.3603992" lon="9.6574293"><ele>125.0</ele><time>2026-05-02T09:10:51.192Z</time></trkpt><trkpt lat="40.3604944" lon="9.6575656"><ele>125.5</ele><time>2026-05-02T09:10:52.192Z</time></trkpt><trkpt lat="40.3605861" lon="9.6577039"><ele>126.0</ele><time>2026-05-02T09:10:53.193Z</time></trkpt><trkpt lat="40.3606735" lon="9.6578527"><ele>126.5</ele><time>2026-05-02T09:10:54.193Z</time></trkpt><trkpt lat="40.3607508" lon="9.6580082"><ele>127.0</ele><time>2026-05-02T09:10:55.192Z</time></trkpt><trkpt lat="40.3608241" lon="9.6581703"><ele>127.0</ele><time>2026-05-02T09:10:56.192Z</time></trkpt><trkpt lat="40.3608858" lon="9.6583412"><ele>127.0</ele><time>2026-05-02T09:10:57.192Z</time></trkpt><trkpt lat="40.3609378" lon="9.6585224"><ele>127.0</ele><time>2026-05-02T09:10:58.192Z</time></trkpt><trkpt lat="40.360989" lon="9.6587002"><ele>127.0</ele><time>2026-05-02T09:10:59.193Z</time></trkpt><trkpt lat="40.3610381" lon="9.658869"><ele>126.0</ele><time>2026-05-02T09:11:00.193Z</time></trkpt><trkpt lat="40.3610829" lon="9.6590228"><ele>125.0</ele><time>2026-05-02T09:11:01.192Z</time></trkpt><trkpt lat="40.3611244" lon="9.6591661"><ele>124.0</ele><time>2026-05-02T09:11:02.193Z</time></trkpt><trkpt lat="40.3611617" lon="9.659306"><ele>123.0</ele><time>2026-05-02T09:11:03.193Z</time></trkpt><trkpt lat="40.3611973" lon="9.6594401"><ele>122.0</ele><time>2026-05-02T09:11:04.193Z</time></trkpt><trkpt lat="40.3612324" lon="9.6595683"><ele>121.00000000000001</ele><time>2026-05-02T09:11:05.192Z</time></trkpt><trkpt lat="40.361269" lon="9.6596909"><ele>120.00000000000001</ele><time>2026-05-02T09:11:06.192Z</time></trkpt><trkpt lat="40.3613102" lon="9.6598016"><ele>119.0</ele><time>2026-05-02T09:11:07.192Z</time></trkpt><trkpt lat="40.3613657" lon="9.6598929"><ele>118.0</ele><time>2026-05-02T09:11:08.193Z</time></trkpt><trkpt lat="40.3614369" lon="9.6599689"><ele>119.50000000000001</ele><time>2026-05-02T09:11:09.192Z</time></trkpt><trkpt lat="40.3615189" lon="9.6600289"><ele>121.0</ele><time>2026-05-02T09:11:10.193Z</time></trkpt><trkpt lat="40.3616026" lon="9.660073"><ele>122.5</ele><time>2026-05-02T09:11:11.193Z</time></trkpt><trkpt lat="40.3616865" lon="9.6601121"><ele>124.0</ele><time>2026-05-02T09:11:12.192Z</time></trkpt><trkpt lat="40.3617613" lon="9.6601646"><ele>125.50000000000001</ele><time>2026-05-02T09:11:13.193Z</time></trkpt><trkpt lat="40.3618212" lon="9.6602366"><ele>127.0</ele><time>2026-05-02T09:11:14.193Z</time></trkpt><trkpt lat="40.3618593" lon="9.6603213"><ele>127.00000000000001</ele><time>2026-05-02T09:11:15.192Z</time></trkpt><trkpt lat="40.3618745" lon="9.6604516"><ele>127.0</ele><time>2026-05-02T09:11:17.192Z</time></trkpt><trkpt lat="40.361851" lon="9.6605614"><ele>127.0</ele><time>2026-05-02T09:11:19.193Z</time></trkpt><trkpt lat="40.3617925" lon="9.6606946"><ele>127.0</ele><time>2026-05-02T09:11:21.192Z</time></trkpt><trkpt lat="40.3617585" lon="9.660769"><ele>127.00000000000001</ele><time>2026-05-02T09:11:22.192Z</time></trkpt><trkpt lat="40.3617233" lon="9.6608592"><ele>127.0</ele><time>2026-05-02T09:11:23.193Z</time></trkpt><trkpt lat="40.3616986" lon="9.6609611"><ele>127.00000000000001</ele><time>2026-05-02T09:11:24.192Z</time></trkpt><trkpt lat="40.3616892" lon="9.6610722"><ele>127.0</ele><time>2026-05-02T09:11:25.193Z</time></trkpt><trkpt lat="40.3616937" lon="9.6611846"><ele>127.0</ele><time>2026-05-02T09:11:26.192Z</time></trkpt><trkpt lat="40.3617063" lon="9.6613009"><ele>127.0</ele><time>2026-05-02T09:11:27.192Z</time></trkpt><trkpt lat="40.3617182" lon="9.6614216"><ele>127.00000000000001</ele><time>2026-05-02T09:11:28.193Z</time></trkpt><trkpt lat="40.3617309" lon="9.6615427"><ele>127.0</ele><time>2026-05-02T09:11:29.193Z</time></trkpt><trkpt lat="40.3617426" lon="9.6616622"><ele>126.8</ele><time>2026-05-02T09:11:30.192Z</time></trkpt><trkpt lat="40.3617531" lon="9.6617858"><ele>126.6</ele><time>2026-05-02T09:11:31.192Z</time></trkpt><trkpt lat="40.3617635" lon="9.6619059"><ele>126.39999999999999</ele><time>2026-05-02T09:11:32.193Z</time></trkpt><trkpt lat="40.3617739" lon="9.6620282"><ele>126.19999999999999</ele><time>2026-05-02T09:11:33.192Z</time></trkpt><trkpt lat="40.3617847" lon="9.6621527"><ele>126.0</ele><time>2026-05-02T09:11:34.192Z</time></trkpt><trkpt lat="40.3617969" lon="9.662278"><ele>126.0</ele><time>2026-05-02T09:11:35.193Z</time></trkpt><trkpt lat="40.3618086" lon="9.6624087"><ele>126.0</ele><time>2026-05-02T09:11:36.193Z</time></trkpt><trkpt lat="40.3618224" lon="9.662542"><ele>126.0</ele><time>2026-05-02T09:11:37.193Z</time></trkpt><trkpt lat="40.3618342" lon="9.6626847"><ele>126.0</ele><time>2026-05-02T09:11:38.192Z</time></trkpt><trkpt lat="40.3618502" lon="9.6628365"><ele>126.0</ele><time>2026-05-02T09:11:39.193Z</time></trkpt><trkpt lat="40.3618707" lon="9.6629892"><ele>126.0</ele><time>2026-05-02T09:11:40.192Z</time></trkpt><trkpt lat="40.3618889" lon="9.6631506"><ele>126.0</ele><time>2026-05-02T09:11:41.192Z</time></trkpt><trkpt lat="40.3619044" lon="9.6633097"><ele>126.0</ele><time>2026-05-02T09:11:42.193Z</time></trkpt><trkpt lat="40.3619166" lon="9.6634659"><ele>126.0</ele><time>2026-05-02T09:11:43.193Z</time></trkpt><trkpt lat="40.3619327" lon="9.6636299"><ele>125.0</ele><time>2026-05-02T09:11:44.192Z</time></trkpt><trkpt lat="40.3619516" lon="9.663798"><ele>124.0</ele><time>2026-05-02T09:11:45.192Z</time></trkpt><trkpt lat="40.3619663" lon="9.663967"><ele>123.0</ele><time>2026-05-02T09:11:46.192Z</time></trkpt><trkpt lat="40.3619827" lon="9.6641279"><ele>122.0</ele><time>2026-05-02T09:11:47.193Z</time></trkpt><trkpt lat="40.3619951" lon="9.6642804"><ele>122.0</ele><time>2026-05-02T09:11:48.192Z</time></trkpt><trkpt lat="40.3620097" lon="9.6644255"><ele>121.99999999999999</ele><time>2026-05-02T09:11:49.193Z</time></trkpt><trkpt lat="40.3620243" lon="9.6645625"><ele>121.99999999999999</ele><time>2026-05-02T09:11:50.193Z</time></trkpt><trkpt lat="40.3620402" lon="9.6646947"><ele>122.0</ele><time>2026-05-02T09:11:51.192Z</time></trkpt><trkpt lat="40.3620599" lon="9.6648201"><ele>122.0</ele><time>2026-05-02T09:11:52.193Z</time></trkpt><trkpt lat="40.3620867" lon="9.6649478"><ele>121.39999999999999</ele><time>2026-05-02T09:11:53.193Z</time></trkpt><trkpt lat="40.3621173" lon="9.6650676"><ele>120.79999999999998</ele><time>2026-05-02T09:11:54.192Z</time></trkpt><trkpt lat="40.3621583" lon="9.6651834"><ele>120.2</ele><time>2026-05-02T09:11:55.193Z</time></trkpt><trkpt lat="40.3622064" lon="9.6652941"><ele>119.6</ele><time>2026-05-02T09:11:56.193Z</time></trkpt><trkpt lat="40.3622608" lon="9.6654013"><ele>119.0</ele><time>2026-05-02T09:11:57.192Z</time></trkpt><trkpt lat="40.36232" lon="9.6655071"><ele>118.6</ele><time>2026-05-02T09:11:58.193Z</time></trkpt><trkpt lat="40.3623784" lon="9.6656124"><ele>118.2</ele><time>2026-05-02T09:11:59.192Z</time></trkpt><trkpt lat="40.3624343" lon="9.6657238"><ele>117.79999999999998</ele><time>2026-05-02T09:12:00.193Z</time></trkpt><trkpt lat="40.3624773" lon="9.6658372"><ele>117.39999999999999</ele><time>2026-05-02T09:12:01.192Z</time></trkpt><trkpt lat="40.3624996" lon="9.6659569"><ele>117.0</ele><time>2026-05-02T09:12:02.193Z</time></trkpt><trkpt lat="40.3624979" lon="9.666072"><ele>115.0</ele><time>2026-05-02T09:12:03.193Z</time></trkpt><trkpt lat="40.362475" lon="9.666184"><ele>113.0</ele><time>2026-05-02T09:12:04.193Z</time></trkpt><trkpt lat="40.3624356" lon="9.6662863"><ele>111.0</ele><time>2026-05-02T09:12:05.193Z</time></trkpt><trkpt lat="40.3623846" lon="9.6663815"><ele>109.0</ele><time>2026-05-02T09:12:06.192Z</time></trkpt><trkpt lat="40.3623419" lon="9.666486"><ele>107.0</ele><time>2026-05-02T09:12:07.192Z</time></trkpt><trkpt lat="40.362337" lon="9.6666012"><ele>105.0</ele><time>2026-05-02T09:12:08.192Z</time></trkpt><trkpt lat="40.3623647" lon="9.6667197"><ele>105.0</ele><time>2026-05-02T09:12:09.192Z</time></trkpt><trkpt lat="40.3624117" lon="9.6668478"><ele>105.0</ele><time>2026-05-02T09:12:10.193Z</time></trkpt><trkpt lat="40.3624721" lon="9.6669958"><ele>105.0</ele><time>2026-05-02T09:12:11.193Z</time></trkpt><trkpt lat="40.3625411" lon="9.6671634"><ele>105.0</ele><time>2026-05-02T09:12:12.192Z</time></trkpt><trkpt lat="40.3626082" lon="9.6673316"><ele>104.75</ele><time>2026-05-02T09:12:13.192Z</time></trkpt><trkpt lat="40.3626711" lon="9.667489"><ele>104.5</ele><time>2026-05-02T09:12:14.193Z</time></trkpt><trkpt lat="40.36273" lon="9.667637"><ele>104.25</ele><time>2026-05-02T09:12:15.192Z</time></trkpt><trkpt lat="40.3627849" lon="9.6677729"><ele>104.0</ele><time>2026-05-02T09:12:16.193Z</time></trkpt><trkpt lat="40.3628394" lon="9.6679009"><ele>104.0</ele><time>2026-05-02T09:12:17.192Z</time></trkpt><trkpt lat="40.3628999" lon="9.6680213"><ele>104.0</ele><time>2026-05-02T09:12:18.192Z</time></trkpt><trkpt lat="40.3629719" lon="9.668134"><ele>104.0</ele><time>2026-05-02T09:12:19.192Z</time></trkpt><trkpt lat="40.3630588" lon="9.668237"><ele>104.0</ele><time>2026-05-02T09:12:20.193Z</time></trkpt><trkpt lat="40.3631549" lon="9.6683247"><ele>107.0</ele><time>2026-05-02T09:12:21.192Z</time></trkpt><trkpt lat="40.3632574" lon="9.6683948"><ele>110.0</ele><time>2026-05-02T09:12:22.193Z</time></trkpt><trkpt lat="40.363365" lon="9.6684606"><ele>113.0</ele><time>2026-05-02T09:12:23.193Z</time></trkpt><trkpt lat="40.3634748" lon="9.6685255"><ele>116.0</ele><time>2026-05-02T09:12:24.192Z</time></trkpt><trkpt lat="40.3635921" lon="9.6685868"><ele>115.25</ele><time>2026-05-02T09:12:25.192Z</time></trkpt><trkpt lat="40.3637121" lon="9.6686502"><ele>114.5</ele><time>2026-05-02T09:12:26.193Z</time></trkpt><trkpt lat="40.3638281" lon="9.6687195"><ele>113.75</ele><time>2026-05-02T09:12:27.192Z</time></trkpt><trkpt lat="40.3639351" lon="9.6687951"><ele>113.0</ele><time>2026-05-02T09:12:28.192Z</time></trkpt><trkpt lat="40.364032" lon="9.6688853"><ele>113.0</ele><time>2026-05-02T09:12:29.193Z</time></trkpt><trkpt lat="40.364116" lon="9.6689904"><ele>113.0</ele><time>2026-05-02T09:12:30.192Z</time></trkpt><trkpt lat="40.3641899" lon="9.6691106"><ele>113.0</ele><time>2026-05-02T09:12:31.193Z</time></trkpt><trkpt lat="40.3642589" lon="9.6692455"><ele>113.0</ele><time>2026-05-02T09:12:32.192Z</time></trkpt><trkpt lat="40.3643262" lon="9.6693911"><ele>112.0</ele><time>2026-05-02T09:12:33.192Z</time></trkpt><trkpt lat="40.3643954" lon="9.6695461"><ele>111.0</ele><time>2026-05-02T09:12:34.192Z</time></trkpt><trkpt lat="40.3644608" lon="9.6696919"><ele>110.0</ele><time>2026-05-02T09:12:35.192Z</time></trkpt><trkpt lat="40.3645324" lon="9.6698398"><ele>109.0</ele><time>2026-05-02T09:12:36.193Z</time></trkpt><trkpt lat="40.3646142" lon="9.6699872"><ele>108.5</ele><time>2026-05-02T09:12:37.192Z</time></trkpt><trkpt lat="40.3647024" lon="9.6701235"><ele>108.0</ele><time>2026-05-02T09:12:38.192Z</time></trkpt><trkpt lat="40.3647931" lon="9.6702459"><ele>107.5</ele><time>2026-05-02T09:12:39.192Z</time></trkpt><trkpt lat="40.3648958" lon="9.670354"><ele>107.0</ele><time>2026-05-02T09:12:40.193Z</time></trkpt><trkpt lat="40.365013" lon="9.6704541"><ele>107.0</ele><time>2026-05-02T09:12:41.192Z</time></trkpt><trkpt lat="40.365141" lon="9.6705439"><ele>107.0</ele><time>2026-05-02T09:12:42.192Z</time></trkpt><trkpt lat="40.3652777" lon="9.6706231"><ele>107.0</ele><time>2026-05-02T09:12:43.193Z</time></trkpt><trkpt lat="40.3654187" lon="9.6706976"><ele>107.0</ele><time>2026-05-02T09:12:44.193Z</time></trkpt><trkpt lat="40.365557" lon="9.6707683"><ele>105.75</ele><time>2026-05-02T09:12:45.192Z</time></trkpt><trkpt lat="40.3656917" lon="9.6708404"><ele>104.5</ele><time>2026-05-02T09:12:46.192Z</time></trkpt><trkpt lat="40.3658214" lon="9.6709091"><ele>103.25</ele><time>2026-05-02T09:12:47.193Z</time></trkpt><trkpt lat="40.3659518" lon="9.6709757"><ele>102.0</ele><time>2026-05-02T09:12:48.192Z</time></trkpt><trkpt lat="40.3660889" lon="9.6710458"><ele>100.5</ele><time>2026-05-02T09:12:49.193Z</time></trkpt><trkpt lat="40.3662274" lon="9.6711175"><ele>99.0</ele><time>2026-05-02T09:12:50.193Z</time></trkpt><trkpt lat="40.3663645" lon="9.6711877"><ele>97.5</ele><time>2026-05-02T09:12:51.192Z</time></trkpt><trkpt lat="40.3665026" lon="9.671263"><ele>96.0</ele><time>2026-05-02T09:12:52.193Z</time></trkpt><trkpt lat="40.3666461" lon="9.6713402"><ele>95.66666666666667</ele><time>2026-05-02T09:12:53.192Z</time></trkpt><trkpt lat="40.3667997" lon="9.6714202"><ele>95.33333333333334</ele><time>2026-05-02T09:12:54.192Z</time></trkpt><trkpt lat="40.3669579" lon="9.6714997"><ele>95.0</ele><time>2026-05-02T09:12:55.193Z</time></trkpt><trkpt lat="40.3671186" lon="9.6715852"><ele>95.0</ele><time>2026-05-02T09:12:56.193Z</time></trkpt><trkpt lat="40.3672836" lon="9.6716707"><ele>95.0</ele><time>2026-05-02T09:12:57.192Z</time></trkpt><trkpt lat="40.3674504" lon="9.6717589"><ele>95.0</ele><time>2026-05-02T09:12:58.193Z</time></trkpt><trkpt lat="40.3676201" lon="9.671856"><ele>92.66666666666667</ele><time>2026-05-02T09:12:59.193Z</time></trkpt><trkpt lat="40.3677834" lon="9.6719634"><ele>90.33333333333333</ele><time>2026-05-02T09:13:00.193Z</time></trkpt><trkpt lat="40.3679422" lon="9.6720806"><ele>88.0</ele><time>2026-05-02T09:13:01.193Z</time></trkpt><trkpt lat="40.368101" lon="9.6722056"><ele>88.0</ele><time>2026-05-02T09:13:02.192Z</time></trkpt><trkpt lat="40.3682591" lon="9.6723385"><ele>88.0</ele><time>2026-05-02T09:13:03.192Z</time></trkpt><trkpt lat="40.3684101" lon="9.6724651"><ele>88.0</ele><time>2026-05-02T09:13:04.192Z</time></trkpt><trkpt lat="40.3685633" lon="9.6725958"><ele>88.0</ele><time>2026-05-02T09:13:05.192Z</time></trkpt><trkpt lat="40.3687159" lon="9.6727217"><ele>88.0</ele><time>2026-05-02T09:13:06.193Z</time></trkpt><trkpt lat="40.3688635" lon="9.6728419"><ele>88.0</ele><time>2026-05-02T09:13:07.192Z</time></trkpt><trkpt lat="40.3690068" lon="9.6729698"><ele>86.33333333333333</ele><time>2026-05-02T09:13:08.193Z</time></trkpt><trkpt lat="40.3691385" lon="9.6731064"><ele>84.66666666666667</ele><time>2026-05-02T09:13:09.192Z</time></trkpt><trkpt lat="40.369258" lon="9.6732559"><ele>83.0</ele><time>2026-05-02T09:13:10.193Z</time></trkpt><trkpt lat="40.3693674" lon="9.6734209"><ele>83.0</ele><time>2026-05-02T09:13:11.192Z</time></trkpt><trkpt lat="40.3694611" lon="9.6736036"><ele>83.0</ele><time>2026-05-02T09:13:12.192Z</time></trkpt><trkpt lat="40.3695481" lon="9.673801"><ele>83.0</ele><time>2026-05-02T09:13:13.192Z</time></trkpt><trkpt lat="40.3696364" lon="9.6740103"><ele>82.66666666666667</ele><time>2026-05-02T09:13:14.193Z</time></trkpt><trkpt lat="40.3697304" lon="9.6742323"><ele>82.33333333333333</ele><time>2026-05-02T09:13:15.192Z</time></trkpt><trkpt lat="40.3698287" lon="9.6744632"><ele>82.0</ele><time>2026-05-02T09:13:16.193Z</time></trkpt><trkpt lat="40.369927" lon="9.6746935"><ele>80.66666666666666</ele><time>2026-05-02T09:13:17.193Z</time></trkpt><trkpt lat="40.3700223" lon="9.674921"><ele>79.33333333333333</ele><time>2026-05-02T09:13:18.192Z</time></trkpt><trkpt lat="40.3701189" lon="9.6751514"><ele>78.0</ele><time>2026-05-02T09:13:19.192Z</time></trkpt><trkpt lat="40.3702134" lon="9.6753819"><ele>76.33333333333333</ele><time>2026-05-02T09:13:20.192Z</time></trkpt><trkpt lat="40.3703073" lon="9.6756135"><ele>74.66666666666666</ele><time>2026-05-02T09:13:21.193Z</time></trkpt><trkpt lat="40.3704018" lon="9.6758452"><ele>73.0</ele><time>2026-05-02T09:13:22.192Z</time></trkpt><trkpt lat="40.3704961" lon="9.6760778"><ele>72.33333333333333</ele><time>2026-05-02T09:13:23.193Z</time></trkpt><trkpt lat="40.3705913" lon="9.6763102"><ele>71.66666666666667</ele><time>2026-05-02T09:13:24.192Z</time></trkpt><trkpt lat="40.3706877" lon="9.6765439"><ele>71.0</ele><time>2026-05-02T09:13:25.192Z</time></trkpt><trkpt lat="40.3707839" lon="9.6767792"><ele>69.66666666666667</ele><time>2026-05-02T09:13:26.192Z</time></trkpt><trkpt lat="40.3708758" lon="9.6770088"><ele>68.33333333333333</ele><time>2026-05-02T09:13:27.192Z</time></trkpt><trkpt lat="40.3709652" lon="9.6772316"><ele>67.0</ele><time>2026-05-02T09:13:28.193Z</time></trkpt><trkpt lat="40.3710577" lon="9.6774543"><ele>67.0</ele><time>2026-05-02T09:13:29.193Z</time></trkpt><trkpt lat="40.3711498" lon="9.6776689"><ele>67.0</ele><time>2026-05-02T09:13:30.192Z</time></trkpt><trkpt lat="40.3712395" lon="9.6778758"><ele>67.0</ele><time>2026-05-02T09:13:31.192Z</time></trkpt><trkpt lat="40.3713255" lon="9.6780778"><ele>66.33333333333333</ele><time>2026-05-02T09:13:32.193Z</time></trkpt><trkpt lat="40.3714114" lon="9.6782794"><ele>65.66666666666667</ele><time>2026-05-02T09:13:33.193Z</time></trkpt><trkpt lat="40.3714997" lon="9.6784811"><ele>65.0</ele><time>2026-05-02T09:13:34.193Z</time></trkpt><trkpt lat="40.3715964" lon="9.678671"><ele>63.333333333333336</ele><time>2026-05-02T09:13:35.192Z</time></trkpt><trkpt lat="40.3717087" lon="9.6788465"><ele>61.66666666666667</ele><time>2026-05-02T09:13:36.192Z</time></trkpt><trkpt lat="40.3718414" lon="9.6790048"><ele>60.0</ele><time>2026-05-02T09:13:37.192Z</time></trkpt><trkpt lat="40.3719863" lon="9.6791459"><ele>60.0</ele><time>2026-05-02T09:13:38.193Z</time></trkpt><trkpt lat="40.3721426" lon="9.6792748"><ele>60.0</ele><time>2026-05-02T09:13:39.193Z</time></trkpt><trkpt lat="40.3723031" lon="9.6794013"><ele>60.0</ele><time>2026-05-02T09:13:40.193Z</time></trkpt><trkpt lat="40.3724648" lon="9.6795276"><ele>59.33333333333333</ele><time>2026-05-02T09:13:41.192Z</time></trkpt><trkpt lat="40.3726283" lon="9.6796585"><ele>58.666666666666664</ele><time>2026-05-02T09:13:42.193Z</time></trkpt><trkpt lat="40.3727938" lon="9.6797896"><ele>58.0</ele><time>2026-05-02T09:13:43.192Z</time></trkpt><trkpt lat="40.3729551" lon="9.6799189"><ele>57.0</ele><time>2026-05-02T09:13:44.192Z</time></trkpt><trkpt lat="40.373116" lon="9.6800466"><ele>56.0</ele><time>2026-05-02T09:13:45.193Z</time></trkpt><trkpt lat="40.373274" lon="9.6801717"><ele>55.0</ele><time>2026-05-02T09:13:46.193Z</time></trkpt><trkpt lat="40.373431" lon="9.6802965"><ele>55.33333333333333</ele><time>2026-05-02T09:13:47.192Z</time></trkpt><trkpt lat="40.3735868" lon="9.6804193"><ele>55.66666666666667</ele><time>2026-05-02T09:13:48.193Z</time></trkpt><trkpt lat="40.3737386" lon="9.6805406"><ele>56.0</ele><time>2026-05-02T09:13:49.193Z</time></trkpt><trkpt lat="40.3738861" lon="9.6806569"><ele>56.0</ele><time>2026-05-02T09:13:50.192Z</time></trkpt><trkpt lat="40.3740274" lon="9.6807693"><ele>56.0</ele><time>2026-05-02T09:13:51.193Z</time></trkpt><trkpt lat="40.374156" lon="9.6808711"><ele>56.0</ele><time>2026-05-02T09:13:52.192Z</time></trkpt><trkpt lat="40.3742716" lon="9.6809645"><ele>56.0</ele><time>2026-05-02T09:13:53.193Z</time></trkpt><trkpt lat="40.3743802" lon="9.6810462"><ele>56.0</ele><time>2026-05-02T09:13:54.193Z</time></trkpt><trkpt lat="40.374481" lon="9.6811259"><ele>56.0</ele><time>2026-05-02T09:13:55.192Z</time></trkpt><trkpt lat="40.3745765" lon="9.6811984"><ele>56.0</ele><time>2026-05-02T09:13:56.193Z</time></trkpt><trkpt lat="40.3746662" lon="9.6812679"><ele>55.66666666666667</ele><time>2026-05-02T09:13:57.192Z</time></trkpt><trkpt lat="40.374752" lon="9.6813277"><ele>55.333333333333336</ele><time>2026-05-02T09:13:58.192Z</time></trkpt><trkpt lat="40.3748274" lon="9.6813799"><ele>55.0</ele><time>2026-05-02T09:13:59.192Z</time></trkpt><trkpt lat="40.3748932" lon="9.6814272"><ele>54.66666666666667</ele><time>2026-05-02T09:14:00.192Z</time></trkpt><trkpt lat="40.3749545" lon="9.6814775"><ele>54.333333333333336</ele><time>2026-05-02T09:14:01.193Z</time></trkpt><trkpt lat="40.3750172" lon="9.6815394"><ele>54.0</ele><time>2026-05-02T09:14:02.193Z</time></trkpt><trkpt lat="40.3750857" lon="9.6816083"><ele>54.0</ele><time>2026-05-02T09:14:03.192Z</time></trkpt><trkpt lat="40.3751648" lon="9.6816555"><ele>54.0</ele><time>2026-05-02T09:14:04.192Z</time></trkpt><trkpt lat="40.37525" lon="9.6816598"><ele>54.0</ele><time>2026-05-02T09:14:05.192Z</time></trkpt><trkpt lat="40.3753311" lon="9.6816234"><ele>54.0</ele><time>2026-05-02T09:14:06.192Z</time></trkpt><trkpt lat="40.3754043" lon="9.681563"><ele>54.0</ele><time>2026-05-02T09:14:07.192Z</time></trkpt><trkpt lat="40.3754853" lon="9.6815094"><ele>54.0</ele><time>2026-05-02T09:14:08.193Z</time></trkpt><trkpt lat="40.3755799" lon="9.6814816"><ele>52.5</ele><time>2026-05-02T09:14:09.193Z</time></trkpt><trkpt lat="40.3756905" lon="9.6814776"><ele>51.0</ele><time>2026-05-02T09:14:10.192Z</time></trkpt><trkpt lat="40.3758128" lon="9.6814905"><ele>49.5</ele><time>2026-05-02T09:14:11.193Z</time></trkpt><trkpt lat="40.3759465" lon="9.6815004"><ele>48.0</ele><time>2026-05-02T09:14:12.193Z</time></trkpt><trkpt lat="40.3760921" lon="9.6815079"><ele>48.0</ele><time>2026-05-02T09:14:13.193Z</time></trkpt><trkpt lat="40.3762455" lon="9.6815139"><ele>48.0</ele><time>2026-05-02T09:14:14.192Z</time></trkpt><trkpt lat="40.3764033" lon="9.6815176"><ele>48.0</ele><time>2026-05-02T09:14:15.192Z</time></trkpt><trkpt lat="40.3765662" lon="9.6815186"><ele>47.333333333333336</ele><time>2026-05-02T09:14:16.192Z</time></trkpt><trkpt lat="40.3767324" lon="9.681517"><ele>46.66666666666667</ele><time>2026-05-02T09:14:17.192Z</time></trkpt><trkpt lat="40.3769005" lon="9.681514"><ele>46.0</ele><time>2026-05-02T09:14:18.193Z</time></trkpt><trkpt lat="40.3770727" lon="9.6815063"><ele>44.66666666666667</ele><time>2026-05-02T09:14:19.193Z</time></trkpt><trkpt lat="40.377249" lon="9.6814937"><ele>43.333333333333336</ele><time>2026-05-02T09:14:20.193Z</time></trkpt><trkpt lat="40.3774256" lon="9.681474"><ele>42.0</ele><time>2026-05-02T09:14:21.192Z</time></trkpt><trkpt lat="40.3776022" lon="9.6814521"><ele>42.0</ele><time>2026-05-02T09:14:22.193Z</time></trkpt><trkpt lat="40.3777784" lon="9.6814263"><ele>42.0</ele><time>2026-05-02T09:14:23.193Z</time></trkpt><trkpt lat="40.3779534" lon="9.6813975"><ele>42.0</ele><time>2026-05-02T09:14:24.192Z</time></trkpt><trkpt lat="40.3781273" lon="9.6813646"><ele>41.0</ele><time>2026-05-02T09:14:25.192Z</time></trkpt><trkpt lat="40.3783023" lon="9.6813274"><ele>40.0</ele><time>2026-05-02T09:14:26.193Z</time></trkpt><trkpt lat="40.3784766" lon="9.6812894"><ele>39.0</ele><time>2026-05-02T09:14:27.193Z</time></trkpt><trkpt lat="40.3786514" lon="9.6812503"><ele>39.0</ele><time>2026-05-02T09:14:28.192Z</time></trkpt><trkpt lat="40.3788273" lon="9.6812079"><ele>39.0</ele><time>2026-05-02T09:14:29.192Z</time></trkpt><trkpt lat="40.3790014" lon="9.681166"><ele>39.0</ele><time>2026-05-02T09:14:30.192Z</time></trkpt><trkpt lat="40.3791771" lon="9.6811243"><ele>41.666666666666664</ele><time>2026-05-02T09:14:31.193Z</time></trkpt><trkpt lat="40.3793537" lon="9.6810814"><ele>44.33333333333333</ele><time>2026-05-02T09:14:32.192Z</time></trkpt><trkpt lat="40.379534" lon="9.6810388"><ele>47.0</ele><time>2026-05-02T09:14:33.193Z</time></trkpt><trkpt lat="40.3797186" lon="9.6809961"><ele>47.0</ele><time>2026-05-02T09:14:34.193Z</time></trkpt><trkpt lat="40.3799079" lon="9.6809553"><ele>47.0</ele><time>2026-05-02T09:14:35.193Z</time></trkpt><trkpt lat="40.3801009" lon="9.6809185"><ele>47.0</ele><time>2026-05-02T09:14:36.193Z</time></trkpt><trkpt lat="40.3803008" lon="9.680885"><ele>47.0</ele><time>2026-05-02T09:14:37.193Z</time></trkpt><trkpt lat="40.3805051" lon="9.6808621"><ele>47.0</ele><time>2026-05-02T09:14:38.193Z</time></trkpt><trkpt lat="40.3807127" lon="9.6808529"><ele>47.0</ele><time>2026-05-02T09:14:39.192Z</time></trkpt><trkpt lat="40.380923" lon="9.6808661"><ele>46.0</ele><time>2026-05-02T09:14:40.192Z</time></trkpt><trkpt lat="40.3811328" lon="9.6808949"><ele>45.0</ele><time>2026-05-02T09:14:41.192Z</time></trkpt><trkpt lat="40.3813401" lon="9.6809448"><ele>44.0</ele><time>2026-05-02T09:14:42.193Z</time></trkpt><trkpt lat="40.3815448" lon="9.6810169"><ele>41.33333333333333</ele><time>2026-05-02T09:14:43.193Z</time></trkpt><trkpt lat="40.3817442" lon="9.681114"><ele>38.666666666666664</ele><time>2026-05-02T09:14:44.192Z</time></trkpt><trkpt lat="40.3819379" lon="9.6812306"><ele>36.0</ele><time>2026-05-02T09:14:45.193Z</time></trkpt><trkpt lat="40.3821255" lon="9.681368"><ele>37.333333333333336</ele><time>2026-05-02T09:14:46.192Z</time></trkpt><trkpt lat="40.3823072" lon="9.6815271"><ele>38.66666666666667</ele><time>2026-05-02T09:14:47.193Z</time></trkpt><trkpt lat="40.3824793" lon="9.6817075"><ele>40.0</ele><time>2026-05-02T09:14:48.192Z</time></trkpt><trkpt lat="40.382632" lon="9.6818967"><ele>38.0</ele><time>2026-05-02T09:14:49.193Z</time></trkpt><trkpt lat="40.3827678" lon="9.6820931"><ele>36.0</ele><time>2026-05-02T09:14:50.193Z</time></trkpt><trkpt lat="40.3828895" lon="9.6822859"><ele>34.0</ele><time>2026-05-02T09:14:51.192Z</time></trkpt><trkpt lat="40.3830013" lon="9.6824683"><ele>32.66666666666667</ele><time>2026-05-02T09:14:52.192Z</time></trkpt><trkpt lat="40.38311" lon="9.682642"><ele>31.333333333333336</ele><time>2026-05-02T09:14:53.192Z</time></trkpt><trkpt lat="40.3832159" lon="9.6828042"><ele>30.0</ele><time>2026-05-02T09:14:54.193Z</time></trkpt><trkpt lat="40.3833203" lon="9.6829487"><ele>29.8</ele><time>2026-05-02T09:14:55.192Z</time></trkpt><trkpt lat="40.3834186" lon="9.6830752"><ele>29.6</ele><time>2026-05-02T09:14:56.192Z</time></trkpt><trkpt lat="40.3835048" lon="9.6831848"><ele>29.4</ele><time>2026-05-02T09:14:57.192Z</time></trkpt><trkpt lat="40.3835757" lon="9.6832792"><ele>29.2</ele><time>2026-05-02T09:14:58.193Z</time></trkpt><trkpt lat="40.3836329" lon="9.6833561"><ele>29.0</ele><time>2026-05-02T09:14:59.193Z</time></trkpt><trkpt lat="40.3837065" lon="9.6834407"><ele>29.0</ele><time>2026-05-02T09:15:01.193Z</time></trkpt><trkpt lat="40.3838002" lon="9.683477"><ele>29.0</ele><time>2026-05-02T09:15:19.192Z</time></trkpt><trkpt lat="40.3839178" lon="9.6834337"><ele>29.0</ele><time>2026-05-02T09:15:21.192Z</time></trkpt><trkpt lat="40.3839963" lon="9.6833904"><ele>29.0</ele><time>2026-05-02T09:15:22.192Z</time></trkpt><trkpt lat="40.3840856" lon="9.6833361"><ele>29.0</ele><time>2026-05-02T09:15:23.193Z</time></trkpt><trkpt lat="40.3841872" lon="9.683278"><ele>29.5</ele><time>2026-05-02T09:15:24.193Z</time></trkpt><trkpt lat="40.3842984" lon="9.6832066"><ele>30.0</ele><time>2026-05-02T09:15:25.192Z</time></trkpt><trkpt lat="40.3844047" lon="9.6831094"><ele>30.5</ele><time>2026-05-02T09:15:26.192Z</time></trkpt><trkpt lat="40.384503" lon="9.6829922"><ele>31.0</ele><time>2026-05-02T09:15:27.193Z</time></trkpt><trkpt lat="40.3845967" lon="9.6828604"><ele>29.25</ele><time>2026-05-02T09:15:28.192Z</time></trkpt><trkpt lat="40.3846841" lon="9.6827225"><ele>27.5</ele><time>2026-05-02T09:15:29.192Z</time></trkpt><trkpt lat="40.3847797" lon="9.6825854"><ele>25.75</ele><time>2026-05-02T09:15:30.192Z</time></trkpt><trkpt lat="40.3848882" lon="9.6824641"><ele>24.0</ele><time>2026-05-02T09:15:31.193Z</time></trkpt><trkpt lat="40.3850028" lon="9.6823658"><ele>24.0</ele><time>2026-05-02T09:15:32.193Z</time></trkpt><trkpt lat="40.3851318" lon="9.6822924"><ele>24.0</ele><time>2026-05-02T09:15:33.192Z</time></trkpt><trkpt lat="40.3852722" lon="9.6822409"><ele>24.0</ele><time>2026-05-02T09:15:34.192Z</time></trkpt><trkpt lat="40.3854155" lon="9.6822084"><ele>24.0</ele><time>2026-05-02T09:15:35.193Z</time></trkpt><trkpt lat="40.3855526" lon="9.6821739"><ele>25.5</ele><time>2026-05-02T09:15:36.192Z</time></trkpt><trkpt lat="40.3856791" lon="9.6821021"><ele>27.0</ele><time>2026-05-02T09:15:37.193Z</time></trkpt><trkpt lat="40.3857976" lon="9.6819954"><ele>28.5</ele><time>2026-05-02T09:15:38.192Z</time></trkpt><trkpt lat="40.385896" lon="9.6818577"><ele>30.0</ele><time>2026-05-02T09:15:39.193Z</time></trkpt><trkpt lat="40.3859664" lon="9.6816929"><ele>26.25</ele><time>2026-05-02T09:15:40.193Z</time></trkpt><trkpt lat="40.3860088" lon="9.6815183"><ele>22.5</ele><time>2026-05-02T09:15:41.192Z</time></trkpt><trkpt lat="40.3860442" lon="9.6813488"><ele>18.75</ele><time>2026-05-02T09:15:42.192Z</time></trkpt><trkpt lat="40.3860992" lon="9.6811968"><ele>15.0</ele><time>2026-05-02T09:15:43.193Z</time></trkpt><trkpt lat="40.3861776" lon="9.6810756"><ele>14.25</ele><time>2026-05-02T09:15:44.193Z</time></trkpt><trkpt lat="40.3862827" lon="9.6809873"><ele>13.5</ele><time>2026-05-02T09:15:45.193Z</time></trkpt><trkpt lat="40.3864114" lon="9.6809326"><ele>12.75</ele><time>2026-05-02T09:15:46.193Z</time></trkpt><trkpt lat="40.3865605" lon="9.6808901"><ele>12.0</ele><time>2026-05-02T09:15:47.193Z</time></trkpt><trkpt lat="40.3867266" lon="9.6808495"><ele>11.333333333333334</ele><time>2026-05-02T09:15:48.192Z</time></trkpt><trkpt lat="40.386899" lon="9.6808116"><ele>10.666666666666668</ele><time>2026-05-02T09:15:49.192Z</time></trkpt><trkpt lat="40.3870682" lon="9.6807781"><ele>10.0</ele><time>2026-05-02T09:15:50.192Z</time></trkpt><trkpt lat="40.3872389" lon="9.680743"><ele>9.666666666666668</ele><time>2026-05-02T09:15:51.192Z</time></trkpt><trkpt lat="40.3874123" lon="9.6807033"><ele>9.333333333333334</ele><time>2026-05-02T09:15:52.193Z</time></trkpt><trkpt lat="40.3875864" lon="9.6806447"><ele>9.0</ele><time>2026-05-02T09:15:53.193Z</time></trkpt><trkpt lat="40.3877626" lon="9.6805618"><ele>9.0</ele><time>2026-05-02T09:15:54.193Z</time></trkpt><trkpt lat="40.3879388" lon="9.6804502"><ele>9.0</ele><time>2026-05-02T09:15:55.192Z</time></trkpt><trkpt lat="40.3881121" lon="9.6803089"><ele>9.0</ele><time>2026-05-02T09:15:56.193Z</time></trkpt><trkpt lat="40.388285" lon="9.680145"><ele>9.0</ele><time>2026-05-02T09:15:57.192Z</time></trkpt><trkpt lat="40.3884466" lon="9.6799686"><ele>9.0</ele><time>2026-05-02T09:15:58.193Z</time></trkpt><trkpt lat="40.3885973" lon="9.6797748"><ele>9.0</ele><time>2026-05-02T09:15:59.192Z</time></trkpt><trkpt lat="40.3887417" lon="9.6795751"><ele>8.666666666666666</ele><time>2026-05-02T09:16:00.192Z</time></trkpt><trkpt lat="40.3888838" lon="9.6793732"><ele>8.333333333333332</ele><time>2026-05-02T09:16:01.192Z</time></trkpt><trkpt lat="40.3890266" lon="9.6791678"><ele>8.0</ele><time>2026-05-02T09:16:02.192Z</time></trkpt><trkpt lat="40.3891683" lon="9.678958"><ele>8.0</ele><time>2026-05-02T09:16:03.193Z</time></trkpt><trkpt lat="40.3893104" lon="9.6787437"><ele>8.0</ele><time>2026-05-02T09:16:04.193Z</time></trkpt><trkpt lat="40.3894555" lon="9.6785283"><ele>8.0</ele><time>2026-05-02T09:16:05.192Z</time></trkpt><trkpt lat="40.3896015" lon="9.6783113"><ele>8.0</ele><time>2026-05-02T09:16:06.193Z</time></trkpt><trkpt lat="40.3897473" lon="9.6780913"><ele>8.0</ele><time>2026-05-02T09:16:07.192Z</time></trkpt><trkpt lat="40.3898855" lon="9.6778828"><ele>8.0</ele><time>2026-05-02T09:16:08.193Z</time></trkpt><trkpt lat="40.3900235" lon="9.6776761"><ele>7.333333333333333</ele><time>2026-05-02T09:16:09.192Z</time></trkpt><trkpt lat="40.3901613" lon="9.6774703"><ele>6.666666666666666</ele><time>2026-05-02T09:16:10.192Z</time></trkpt><trkpt lat="40.3902987" lon="9.6772685"><ele>6.0</ele><time>2026-05-02T09:16:11.192Z</time></trkpt><trkpt lat="40.3904348" lon="9.6770663"><ele>6.333333333333334</ele><time>2026-05-02T09:16:12.193Z</time></trkpt><trkpt lat="40.3905721" lon="9.6768629"><ele>6.666666666666667</ele><time>2026-05-02T09:16:13.192Z</time></trkpt><trkpt lat="40.3907105" lon="9.676657"><ele>7.0</ele><time>2026-05-02T09:16:14.192Z</time></trkpt><trkpt lat="40.3908501" lon="9.67645"><ele>7.0</ele><time>2026-05-02T09:16:15.193Z</time></trkpt><trkpt lat="40.3909931" lon="9.6762416"><ele>7.0</ele><time>2026-05-02T09:16:16.193Z</time></trkpt><trkpt lat="40.3911395" lon="9.6760352"><ele>7.0</ele><time>2026-05-02T09:16:17.192Z</time></trkpt><trkpt lat="40.3912832" lon="9.6758213"><ele>7.0</ele><time>2026-05-02T09:16:18.192Z</time></trkpt><trkpt lat="40.3914301" lon="9.6756047"><ele>7.0</ele><time>2026-05-02T09:16:19.193Z</time></trkpt><trkpt lat="40.3915822" lon="9.6753915"><ele>7.0</ele><time>2026-05-02T09:16:20.193Z</time></trkpt><trkpt lat="40.3917405" lon="9.6751823"><ele>7.0</ele><time>2026-05-02T09:16:21.192Z</time></trkpt><trkpt lat="40.3919062" lon="9.674981"><ele>7.0</ele><time>2026-05-02T09:16:22.193Z</time></trkpt><trkpt lat="40.3920781" lon="9.6747917"><ele>7.333333333333334</ele><time>2026-05-02T09:16:23.192Z</time></trkpt><trkpt lat="40.3922483" lon="9.6746261"><ele>7.666666666666666</ele><time>2026-05-02T09:16:24.193Z</time></trkpt><trkpt lat="40.3924158" lon="9.6744764"><ele>8.0</ele><time>2026-05-02T09:16:25.193Z</time></trkpt><trkpt lat="40.3925817" lon="9.6743304"><ele>7.0</ele><time>2026-05-02T09:16:26.193Z</time></trkpt><trkpt lat="40.3927456" lon="9.6741825"><ele>6.0</ele><time>2026-05-02T09:16:27.192Z</time></trkpt><trkpt lat="40.3929034" lon="9.674026"><ele>5.0</ele><time>2026-05-02T09:16:28.192Z</time></trkpt><trkpt lat="40.3930523" lon="9.6738542"><ele>5.0</ele><time>2026-05-02T09:16:29.193Z</time></trkpt><trkpt lat="40.3931859" lon="9.6736636"><ele>5.0</ele><time>2026-05-02T09:16:30.192Z</time></trkpt><trkpt lat="40.3933017" lon="9.673454"><ele>5.0</ele><time>2026-05-02T09:16:31.193Z</time></trkpt><trkpt lat="40.3933987" lon="9.6732294"><ele>8.666666666666666</ele><time>2026-05-02T09:16:32.193Z</time></trkpt><trkpt lat="40.3934787" lon="9.672992"><ele>12.333333333333332</ele><time>2026-05-02T09:16:33.192Z</time></trkpt><trkpt lat="40.3935384" lon="9.6727446"><ele>16.0</ele><time>2026-05-02T09:16:34.192Z</time></trkpt><trkpt lat="40.3935783" lon="9.6724921"><ele>20.666666666666664</ele><time>2026-05-02T09:16:35.193Z</time></trkpt><trkpt lat="40.3935984" lon="9.6722368"><ele>25.333333333333332</ele><time>2026-05-02T09:16:36.193Z</time></trkpt><trkpt lat="40.3936049" lon="9.6719809"><ele>30.0</ele><time>2026-05-02T09:16:37.192Z</time></trkpt><trkpt lat="40.3936043" lon="9.6717234"><ele>30.333333333333336</ele><time>2026-05-02T09:16:38.192Z</time></trkpt><trkpt lat="40.3936015" lon="9.6714619"><ele>30.666666666666668</ele><time>2026-05-02T09:16:39.193Z</time></trkpt><trkpt lat="40.3936044" lon="9.6711957"><ele>31.0</ele><time>2026-05-02T09:16:40.193Z</time></trkpt><trkpt lat="40.3936186" lon="9.6709304"><ele>31.333333333333336</ele><time>2026-05-02T09:16:41.192Z</time></trkpt><trkpt lat="40.3936522" lon="9.6706679"><ele>31.666666666666664</ele><time>2026-05-02T09:16:42.192Z</time></trkpt><trkpt lat="40.3937076" lon="9.6704067"><ele>32.0</ele><time>2026-05-02T09:16:43.192Z</time></trkpt><trkpt lat="40.3937847" lon="9.6701479"><ele>24.333333333333332</ele><time>2026-05-02T09:16:44.192Z</time></trkpt><trkpt lat="40.3938849" lon="9.6699016"><ele>16.666666666666664</ele><time>2026-05-02T09:16:45.193Z</time></trkpt><trkpt lat="40.3940092" lon="9.6696718"><ele>9.0</ele><time>2026-05-02T09:16:46.193Z</time></trkpt><trkpt lat="40.3941587" lon="9.6694628"><ele>8.333333333333334</ele><time>2026-05-02T09:16:47.193Z</time></trkpt><trkpt lat="40.3943269" lon="9.6692744"><ele>7.666666666666667</ele><time>2026-05-02T09:16:48.192Z</time></trkpt><trkpt lat="40.3945106" lon="9.6691001"><ele>7.0</ele><time>2026-05-02T09:16:49.193Z</time></trkpt><trkpt lat="40.3947049" lon="9.6689286"><ele>7.0</ele><time>2026-05-02T09:16:50.192Z</time></trkpt><trkpt lat="40.3949103" lon="9.6687453"><ele>7.0</ele><time>2026-05-02T09:16:51.192Z</time></trkpt><trkpt lat="40.3951088" lon="9.6685611"><ele>14.5</ele><time>2026-05-02T09:16:52.193Z</time></trkpt><trkpt lat="40.3952868" lon="9.6683708"><ele>22.0</ele><time>2026-05-02T09:16:53.192Z</time></trkpt><trkpt lat="40.3954411" lon="9.6681595"><ele>18.666666666666664</ele><time>2026-05-02T09:16:54.192Z</time></trkpt><trkpt lat="40.3955755" lon="9.6679242"><ele>15.333333333333332</ele><time>2026-05-02T09:16:55.193Z</time></trkpt><trkpt lat="40.3956863" lon="9.6676698"><ele>12.0</ele><time>2026-05-02T09:16:56.193Z</time></trkpt><trkpt lat="40.3957794" lon="9.6673983"><ele>12.0</ele><time>2026-05-02T09:16:57.193Z</time></trkpt><trkpt lat="40.3958577" lon="9.6671088"><ele>12.0</ele><time>2026-05-02T09:16:58.192Z</time></trkpt><trkpt lat="40.3959286" lon="9.6668086"><ele>17.0</ele><time>2026-05-02T09:16:59.193Z</time></trkpt><trkpt lat="40.3959993" lon="9.6665043"><ele>22.0</ele><time>2026-05-02T09:17:00.192Z</time></trkpt><trkpt lat="40.3960685" lon="9.6661991"><ele>24.5</ele><time>2026-05-02T09:17:01.192Z</time></trkpt><trkpt lat="40.3961353" lon="9.6658902"><ele>27.0</ele><time>2026-05-02T09:17:02.192Z</time></trkpt><trkpt lat="40.3961962" lon="9.6655776"><ele>30.5</ele><time>2026-05-02T09:17:03.192Z</time></trkpt><trkpt lat="40.3962479" lon="9.6652613"><ele>34.0</ele><time>2026-05-02T09:17:04.193Z</time></trkpt><trkpt lat="40.3962867" lon="9.6649417"><ele>34.0</ele><time>2026-05-02T09:17:05.192Z</time></trkpt><trkpt lat="40.3963166" lon="9.664621"><ele>34.0</ele><time>2026-05-02T09:17:06.193Z</time></trkpt><trkpt lat="40.3963405" lon="9.6642985"><ele>21.0</ele><time>2026-05-02T09:17:07.192Z</time></trkpt><trkpt lat="40.396358" lon="9.6639785"><ele>8.0</ele><time>2026-05-02T09:17:08.192Z</time></trkpt><trkpt lat="40.3963723" lon="9.6636658"><ele>7.666666666666666</ele><time>2026-05-02T09:17:09.192Z</time></trkpt><trkpt lat="40.3963879" lon="9.6633741"><ele>7.333333333333334</ele><time>2026-05-02T09:17:10.192Z</time></trkpt><trkpt lat="40.396403" lon="9.6631051"><ele>7.0</ele><time>2026-05-02T09:17:11.193Z</time></trkpt><trkpt lat="40.3964166" lon="9.662841"><ele>8.0</ele><time>2026-05-02T09:17:12.193Z</time></trkpt><trkpt lat="40.3964304" lon="9.6625792"><ele>9.0</ele><time>2026-05-02T09:17:13.192Z</time></trkpt><trkpt lat="40.3964425" lon="9.6623197"><ele>10.0</ele><time>2026-05-02T09:17:14.192Z</time></trkpt><trkpt lat="40.3964575" lon="9.6620618"><ele>9.666666666666668</ele><time>2026-05-02T09:17:15.193Z</time></trkpt><trkpt lat="40.3964714" lon="9.6618023"><ele>9.333333333333334</ele><time>2026-05-02T09:17:16.193Z</time></trkpt><trkpt lat="40.3964855" lon="9.6615446"><ele>9.0</ele><time>2026-05-02T09:17:17.193Z</time></trkpt><trkpt lat="40.3964988" lon="9.6612824"><ele>9.333333333333334</ele><time>2026-05-02T09:17:18.192Z</time></trkpt><trkpt lat="40.3965092" lon="9.6610182"><ele>9.666666666666668</ele><time>2026-05-02T09:17:19.192Z</time></trkpt><trkpt lat="40.3965201" lon="9.6607475"><ele>10.0</ele><time>2026-05-02T09:17:20.193Z</time></trkpt><trkpt lat="40.3965332" lon="9.6604739"><ele>9.666666666666668</ele><time>2026-05-02T09:17:21.193Z</time></trkpt><trkpt lat="40.3965487" lon="9.6602006"><ele>9.333333333333334</ele><time>2026-05-02T09:17:22.193Z</time></trkpt><trkpt lat="40.3965627" lon="9.6599207"><ele>9.0</ele><time>2026-05-02T09:17:23.193Z</time></trkpt><trkpt lat="40.3965774" lon="9.6596411"><ele>9.333333333333334</ele><time>2026-05-02T09:17:24.192Z</time></trkpt><trkpt lat="40.3965934" lon="9.6593565"><ele>9.666666666666668</ele><time>2026-05-02T09:17:25.192Z</time></trkpt><trkpt lat="40.3966169" lon="9.6590729"><ele>10.0</ele><time>2026-05-02T09:17:26.192Z</time></trkpt><trkpt lat="40.3966518" lon="9.6587911"><ele>12.333333333333334</ele><time>2026-05-02T09:17:27.193Z</time></trkpt><trkpt lat="40.3967007" lon="9.6585095"><ele>14.666666666666668</ele><time>2026-05-02T09:17:28.193Z</time></trkpt><trkpt lat="40.3967635" lon="9.6582246"><ele>17.0</ele><time>2026-05-02T09:17:29.192Z</time></trkpt><trkpt lat="40.396838" lon="9.6579369"><ele>22.5</ele><time>2026-05-02T09:17:30.192Z</time></trkpt><trkpt lat="40.3969214" lon="9.6576451"><ele>28.0</ele><time>2026-05-02T09:17:31.193Z</time></trkpt><trkpt lat="40.3970087" lon="9.6573473"><ele>28.0</ele><time>2026-05-02T09:17:32.193Z</time></trkpt><trkpt lat="40.3970945" lon="9.6570414"><ele>28.0</ele><time>2026-05-02T09:17:33.192Z</time></trkpt><trkpt lat="40.3971818" lon="9.6567376"><ele>18.0</ele><time>2026-05-02T09:17:34.193Z</time></trkpt><trkpt lat="40.3972685" lon="9.6564332"><ele>8.0</ele><time>2026-05-02T09:17:35.192Z</time></trkpt><trkpt lat="40.3973582" lon="9.6561319"><ele>12.0</ele><time>2026-05-02T09:17:36.193Z</time></trkpt><trkpt lat="40.3974495" lon="9.6558314"><ele>16.0</ele><time>2026-05-02T09:17:37.192Z</time></trkpt><trkpt lat="40.3975406" lon="9.6555418"><ele>22.0</ele><time>2026-05-02T09:17:38.193Z</time></trkpt><trkpt lat="40.3976244" lon="9.6552549"><ele>28.0</ele><time>2026-05-02T09:17:39.193Z</time></trkpt><trkpt lat="40.3977089" lon="9.6549706"><ele>28.0</ele><time>2026-05-02T09:17:40.192Z</time></trkpt><trkpt lat="40.3977918" lon="9.6546811"><ele>28.0</ele><time>2026-05-02T09:17:41.192Z</time></trkpt><trkpt lat="40.3978605" lon="9.6543717"><ele>28.5</ele><time>2026-05-02T09:17:42.193Z</time></trkpt><trkpt lat="40.397935" lon="9.6540863"><ele>29.0</ele><time>2026-05-02T09:17:43.192Z</time></trkpt><trkpt lat="40.3980049" lon="9.6538027"><ele>19.0</ele><time>2026-05-02T09:17:44.193Z</time></trkpt><trkpt lat="40.398074" lon="9.6535154"><ele>9.0</ele><time>2026-05-02T09:17:45.192Z</time></trkpt><trkpt lat="40.3981422" lon="9.6532364"><ele>9.0</ele><time>2026-05-02T09:17:46.192Z</time></trkpt><trkpt lat="40.3982084" lon="9.652957"><ele>9.0</ele><time>2026-05-02T09:17:47.193Z</time></trkpt><trkpt lat="40.3982764" lon="9.6526797"><ele>9.0</ele><time>2026-05-02T09:17:48.192Z</time></trkpt><trkpt lat="40.398341" lon="9.6524006"><ele>9.0</ele><time>2026-05-02T09:17:49.192Z</time></trkpt><trkpt lat="40.3983986" lon="9.6521253"><ele>9.0</ele><time>2026-05-02T09:17:50.193Z</time></trkpt><trkpt lat="40.3984457" lon="9.6518536"><ele>9.0</ele><time>2026-05-02T09:17:51.192Z</time></trkpt><trkpt lat="40.3984765" lon="9.6515787"><ele>9.333333333333334</ele><time>2026-05-02T09:17:52.193Z</time></trkpt><trkpt lat="40.3984913" lon="9.6513002"><ele>9.666666666666668</ele><time>2026-05-02T09:17:53.192Z</time></trkpt><trkpt lat="40.3984883" lon="9.6510191"><ele>10.0</ele><time>2026-05-02T09:17:54.193Z</time></trkpt><trkpt lat="40.39847" lon="9.6507375"><ele>11.333333333333334</ele><time>2026-05-02T09:17:55.192Z</time></trkpt><trkpt lat="40.3984329" lon="9.6504565"><ele>12.666666666666668</ele><time>2026-05-02T09:17:56.193Z</time></trkpt><trkpt lat="40.398376" lon="9.6501791"><ele>14.0</ele><time>2026-05-02T09:17:57.192Z</time></trkpt><trkpt lat="40.3983" lon="9.6499052"><ele>14.333333333333334</ele><time>2026-05-02T09:17:58.192Z</time></trkpt><trkpt lat="40.3982076" lon="9.6496376"><ele>14.666666666666668</ele><time>2026-05-02T09:17:59.193Z</time></trkpt><trkpt lat="40.3981046" lon="9.6493757"><ele>15.0</ele><time>2026-05-02T09:18:00.193Z</time></trkpt><trkpt lat="40.3979956" lon="9.6491162"><ele>15.0</ele><time>2026-05-02T09:18:01.193Z</time></trkpt><trkpt lat="40.3978849" lon="9.6488573"><ele>15.0</ele><time>2026-05-02T09:18:02.192Z</time></trkpt><trkpt lat="40.3977746" lon="9.6485962"><ele>15.0</ele><time>2026-05-02T09:18:03.193Z</time></trkpt><trkpt lat="40.397664" lon="9.6483223"><ele>15.0</ele><time>2026-05-02T09:18:04.193Z</time></trkpt><trkpt lat="40.3975513" lon="9.6480491"><ele>13.0</ele><time>2026-05-02T09:18:05.193Z</time></trkpt><trkpt lat="40.3974388" lon="9.6477769"><ele>11.0</ele><time>2026-05-02T09:18:06.193Z</time></trkpt><trkpt lat="40.397329" lon="9.6475041"><ele>11.0</ele><time>2026-05-02T09:18:07.193Z</time></trkpt><trkpt lat="40.3972252" lon="9.647228"><ele>11.0</ele><time>2026-05-02T09:18:08.193Z</time></trkpt><trkpt lat="40.3971323" lon="9.646945"><ele>17.0</ele><time>2026-05-02T09:18:09.192Z</time></trkpt><trkpt lat="40.3970572" lon="9.6466534"><ele>23.0</ele><time>2026-05-02T09:18:10.193Z</time></trkpt><trkpt lat="40.3969999" lon="9.6463552"><ele>22.0</ele><time>2026-05-02T09:18:11.193Z</time></trkpt><trkpt lat="40.3969584" lon="9.6460508"><ele>21.0</ele><time>2026-05-02T09:18:12.192Z</time></trkpt><trkpt lat="40.3969271" lon="9.645741"><ele>21.0</ele><time>2026-05-02T09:18:13.192Z</time></trkpt><trkpt lat="40.3968975" lon="9.6454226"><ele>21.0</ele><time>2026-05-02T09:18:14.193Z</time></trkpt><trkpt lat="40.3968668" lon="9.6450972"><ele>19.0</ele><time>2026-05-02T09:18:15.192Z</time></trkpt><trkpt lat="40.396834" lon="9.644776"><ele>17.0</ele><time>2026-05-02T09:18:16.193Z</time></trkpt><trkpt lat="40.3967971" lon="9.6444546"><ele>15.0</ele><time>2026-05-02T09:18:17.192Z</time></trkpt><trkpt lat="40.396758" lon="9.6441338"><ele>13.0</ele><time>2026-05-02T09:18:18.193Z</time></trkpt><trkpt lat="40.396715" lon="9.6438129"><ele>11.5</ele><time>2026-05-02T09:18:19.193Z</time></trkpt><trkpt lat="40.3966669" lon="9.6434921"><ele>10.0</ele><time>2026-05-02T09:18:20.193Z</time></trkpt><trkpt lat="40.3966153" lon="9.6431744"><ele>10.0</ele><time>2026-05-02T09:18:21.192Z</time></trkpt><trkpt lat="40.3965649" lon="9.642858"><ele>10.0</ele><time>2026-05-02T09:18:22.193Z</time></trkpt><trkpt lat="40.396514" lon="9.6425422"><ele>10.0</ele><time>2026-05-02T09:18:23.193Z</time></trkpt><trkpt lat="40.3964633" lon="9.6422283"><ele>10.0</ele><time>2026-05-02T09:18:24.192Z</time></trkpt><trkpt lat="40.3964121" lon="9.6419161"><ele>9.0</ele><time>2026-05-02T09:18:25.193Z</time></trkpt><trkpt lat="40.3963607" lon="9.6416034"><ele>8.0</ele><time>2026-05-02T09:18:26.193Z</time></trkpt><trkpt lat="40.3963097" lon="9.6412916"><ele>13.0</ele><time>2026-05-02T09:18:27.192Z</time></trkpt><trkpt lat="40.3962586" lon="9.6409793"><ele>18.0</ele><time>2026-05-02T09:18:28.192Z</time></trkpt><trkpt lat="40.396207" lon="9.6406682"><ele>18.0</ele><time>2026-05-02T09:18:29.192Z</time></trkpt><trkpt lat="40.3961569" lon="9.6403588"><ele>18.0</ele><time>2026-05-02T09:18:30.193Z</time></trkpt><trkpt lat="40.3961094" lon="9.6400533"><ele>15.5</ele><time>2026-05-02T09:18:31.193Z</time></trkpt><trkpt lat="40.3960614" lon="9.6397509"><ele>13.0</ele><time>2026-05-02T09:18:32.192Z</time></trkpt><trkpt lat="40.3960135" lon="9.6394502"><ele>12.0</ele><time>2026-05-02T09:18:33.192Z</time></trkpt><trkpt lat="40.3959643" lon="9.6391504"><ele>11.0</ele><time>2026-05-02T09:18:34.193Z</time></trkpt><trkpt lat="40.3959146" lon="9.6388524"><ele>10.0</ele><time>2026-05-02T09:18:35.192Z</time></trkpt><trkpt lat="40.3958672" lon="9.6385581"><ele>9.0</ele><time>2026-05-02T09:18:36.193Z</time></trkpt><trkpt lat="40.3958203" lon="9.6382653"><ele>9.0</ele><time>2026-05-02T09:18:37.193Z</time></trkpt><trkpt lat="40.3957728" lon="9.6379736"><ele>9.0</ele><time>2026-05-02T09:18:38.192Z</time></trkpt><trkpt lat="40.3957256" lon="9.6376832"><ele>8.5</ele><time>2026-05-02T09:18:39.193Z</time></trkpt><trkpt lat="40.3956791" lon="9.6373932"><ele>8.0</ele><time>2026-05-02T09:18:40.192Z</time></trkpt><trkpt lat="40.3956328" lon="9.6371011"><ele>8.0</ele><time>2026-05-02T09:18:41.193Z</time></trkpt><trkpt lat="40.395584" lon="9.6368078"><ele>8.0</ele><time>2026-05-02T09:18:42.192Z</time></trkpt><trkpt lat="40.3955351" lon="9.6365143"><ele>13.5</ele><time>2026-05-02T09:18:43.193Z</time></trkpt><trkpt lat="40.3954855" lon="9.6362201"><ele>19.0</ele><time>2026-05-02T09:18:44.193Z</time></trkpt><trkpt lat="40.395436" lon="9.6359245"><ele>20.0</ele><time>2026-05-02T09:18:45.192Z</time></trkpt><trkpt lat="40.3953882" lon="9.6356393"><ele>21.0</ele><time>2026-05-02T09:18:46.193Z</time></trkpt><trkpt lat="40.3953436" lon="9.6353689"><ele>22.0</ele><time>2026-05-02T09:18:47.193Z</time></trkpt><trkpt lat="40.395299" lon="9.6351123"><ele>20.0</ele><time>2026-05-02T09:18:48.192Z</time></trkpt><trkpt lat="40.3952577" lon="9.6348723"><ele>18.0</ele><time>2026-05-02T09:18:49.193Z</time></trkpt><trkpt lat="40.3952186" lon="9.6346543"><ele>16.0</ele><time>2026-05-02T09:18:50.193Z</time></trkpt><trkpt lat="40.3951872" lon="9.6344667"><ele>14.5</ele><time>2026-05-02T09:18:51.193Z</time></trkpt><trkpt lat="40.3951583" lon="9.6342919"><ele>13.0</ele><time>2026-05-02T09:18:52.192Z</time></trkpt><trkpt lat="40.3951335" lon="9.6341407"><ele>11.5</ele><time>2026-05-02T09:18:53.192Z</time></trkpt><trkpt lat="40.3951116" lon="9.634005"><ele>10.0</ele><time>2026-05-02T09:18:54.192Z</time></trkpt><trkpt lat="40.3950936" lon="9.6338818"><ele>10.0</ele><time>2026-05-02T09:18:55.193Z</time></trkpt><trkpt lat="40.3950756" lon="9.6337723"><ele>10.0</ele><time>2026-05-02T09:18:56.192Z</time></trkpt><trkpt lat="40.3950585" lon="9.6336696"><ele>10.0</ele><time>2026-05-02T09:18:57.193Z</time></trkpt><trkpt lat="40.3950401" lon="9.6335688"><ele>10.0</ele><time>2026-05-02T09:18:58.192Z</time></trkpt><trkpt lat="40.3950232" lon="9.6334658"><ele>10.0</ele><time>2026-05-02T09:18:59.192Z</time></trkpt><trkpt lat="40.3950044" lon="9.6333536"><ele>10.0</ele><time>2026-05-02T09:19:00.193Z</time></trkpt><trkpt lat="40.3949852" lon="9.6332334"><ele>10.0</ele><time>2026-05-02T09:19:01.192Z</time></trkpt><trkpt lat="40.3949663" lon="9.6331116"><ele>10.0</ele><time>2026-05-02T09:19:02.192Z</time></trkpt><trkpt lat="40.3949493" lon="9.6330013"><ele>10.0</ele><time>2026-05-02T09:19:03.192Z</time></trkpt><trkpt lat="40.3949327" lon="9.6329057"><ele>10.0</ele><time>2026-05-02T09:19:04.192Z</time></trkpt><trkpt lat="40.3949148" lon="9.6328086"><ele>10.0</ele><time>2026-05-02T09:19:06.192Z</time></trkpt><trkpt lat="40.3948525" lon="9.6327495"><ele>10.0</ele><time>2026-05-02T09:19:15.193Z</time></trkpt><trkpt lat="40.394784" lon="9.6327153"><ele>10.0</ele><time>2026-05-02T09:19:18.192Z</time></trkpt><trkpt lat="40.3947147" lon="9.6327328"><ele>10.0</ele><time>2026-05-02T09:19:21.193Z</time></trkpt><trkpt lat="40.3947046" lon="9.6328299"><ele>10.0</ele><time>2026-05-02T09:19:25.193Z</time></trkpt><trkpt lat="40.3947243" lon="9.6329109"><ele>10.0</ele><time>2026-05-02T09:20:42.192Z</time></trkpt><trkpt lat="40.3947295" lon="9.6330325"><ele>10.0</ele><time>2026-05-02T09:20:45.193Z</time></trkpt><trkpt lat="40.3947895" lon="9.6330803"><ele>10.0</ele><time>2026-05-02T09:20:48.193Z</time></trkpt><trkpt lat="40.394858" lon="9.6330383"><ele>10.0</ele><time>2026-05-02T09:20:53.192Z</time></trkpt><trkpt lat="40.3948616" lon="9.6329364"><ele>10.0</ele><time>2026-05-02T09:20:58.193Z</time></trkpt><trkpt lat="40.3948348" lon="9.6328541"><ele>10.0</ele><time>2026-05-02T09:21:01.193Z</time></trkpt><trkpt lat="40.39477" lon="9.6328444"><ele>10.0</ele><time>2026-05-02T09:21:04.192Z</time></trkpt><trkpt lat="40.3947447" lon="9.6329224"><ele>10.0</ele><time>2026-05-02T09:23:07.193Z</time></trkpt><trkpt lat="40.3947779" lon="9.6330008"><ele>10.0</ele><time>2026-05-02T09:26:09.193Z</time></trkpt><trkpt lat="40.3947607" lon="9.6330951"><ele>10.0</ele><time>2026-05-02T09:28:08.192Z</time></trkpt><trkpt lat="40.3947801" lon="9.633174"><ele>10.0</ele><time>2026-05-02T09:28:14.192Z</time></trkpt><trkpt lat="40.3948067" lon="9.6330752"><ele>10.0</ele><time>2026-05-02T09:31:15.193Z</time></trkpt><trkpt lat="40.3948216" lon="9.6331613"><ele>10.0</ele><time>2026-05-02T09:41:53.193Z</time></trkpt><trkpt lat="40.3948396" lon="9.6332452"><ele>10.0</ele><time>2026-05-02T09:42:30.193Z</time></trkpt><trkpt lat="40.3949028" lon="9.633287"><ele>10.0</ele><time>2026-05-02T09:42:54.193Z</time></trkpt><trkpt lat="40.3949581" lon="9.6332052"><ele>10.0</ele><time>2026-05-02T09:42:58.193Z</time></trkpt><trkpt lat="40.3949399" lon="9.6330391"><ele>10.0</ele><time>2026-05-02T09:43:00.192Z</time></trkpt><trkpt lat="40.3949256" lon="9.6329167"><ele>9.75</ele><time>2026-05-02T09:43:01.193Z</time></trkpt><trkpt lat="40.3949093" lon="9.6327781"><ele>9.5</ele><time>2026-05-02T09:43:02.192Z</time></trkpt><trkpt lat="40.3948866" lon="9.6326092"><ele>9.25</ele><time>2026-05-02T09:43:03.193Z</time></trkpt><trkpt lat="40.3948635" lon="9.6324607"><ele>9.0</ele><time>2026-05-02T09:43:04.192Z</time></trkpt><trkpt lat="40.394833" lon="9.6323049"><ele>9.0</ele><time>2026-05-02T09:43:05.192Z</time></trkpt><trkpt lat="40.3948056" lon="9.6321467"><ele>9.0</ele><time>2026-05-02T09:43:06.192Z</time></trkpt><trkpt lat="40.3947799" lon="9.6319875"><ele>9.0</ele><time>2026-05-02T09:43:07.192Z</time></trkpt><trkpt lat="40.394755" lon="9.631841"><ele>9.0</ele><time>2026-05-02T09:43:08.193Z</time></trkpt><trkpt lat="40.3947316" lon="9.6317009"><ele>9.0</ele><time>2026-05-02T09:43:09.192Z</time></trkpt><trkpt lat="40.3947049" lon="9.6315478"><ele>9.0</ele><time>2026-05-02T09:43:10.192Z</time></trkpt><trkpt lat="40.3946797" lon="9.6313875"><ele>9.0</ele><time>2026-05-02T09:43:11.192Z</time></trkpt><trkpt lat="40.3946603" lon="9.6312238"><ele>9.0</ele><time>2026-05-02T09:43:12.193Z</time></trkpt><trkpt lat="40.3946371" lon="9.6310558"><ele>10.25</ele><time>2026-05-02T09:43:13.192Z</time></trkpt><trkpt lat="40.3946092" lon="9.6308903"><ele>11.5</ele><time>2026-05-02T09:43:14.193Z</time></trkpt><trkpt lat="40.3945769" lon="9.6307292"><ele>12.75</ele><time>2026-05-02T09:43:15.192Z</time></trkpt><trkpt lat="40.3945422" lon="9.6305714"><ele>14.0</ele><time>2026-05-02T09:43:16.192Z</time></trkpt><trkpt lat="40.3945018" lon="9.6304085"><ele>13.75</ele><time>2026-05-02T09:43:17.193Z</time></trkpt><trkpt lat="40.3944598" lon="9.6302441"><ele>13.5</ele><time>2026-05-02T09:43:18.193Z</time></trkpt><trkpt lat="40.3944158" lon="9.6300787"><ele>13.25</ele><time>2026-05-02T09:43:19.192Z</time></trkpt><trkpt lat="40.3943684" lon="9.6299099"><ele>13.0</ele><time>2026-05-02T09:43:20.192Z</time></trkpt><trkpt lat="40.3943179" lon="9.62974"><ele>13.0</ele><time>2026-05-02T09:43:21.192Z</time></trkpt><trkpt lat="40.3942648" lon="9.6295701"><ele>13.0</ele><time>2026-05-02T09:43:22.192Z</time></trkpt><trkpt lat="40.3942068" lon="9.6294026"><ele>13.0</ele><time>2026-05-02T09:43:23.193Z</time></trkpt><trkpt lat="40.394143" lon="9.6292362"><ele>13.0</ele><time>2026-05-02T09:43:24.193Z</time></trkpt><trkpt lat="40.3940741" lon="9.6290688"><ele>12.0</ele><time>2026-05-02T09:43:25.193Z</time></trkpt><trkpt lat="40.3940045" lon="9.6289019"><ele>11.0</ele><time>2026-05-02T09:43:26.192Z</time></trkpt><trkpt lat="40.3939329" lon="9.6287353"><ele>10.0</ele><time>2026-05-02T09:43:27.193Z</time></trkpt><trkpt lat="40.3938618" lon="9.6285663"><ele>9.0</ele><time>2026-05-02T09:43:28.193Z</time></trkpt><trkpt lat="40.3937882" lon="9.6283978"><ele>8.666666666666666</ele><time>2026-05-02T09:43:29.193Z</time></trkpt><trkpt lat="40.3937142" lon="9.6282269"><ele>8.333333333333332</ele><time>2026-05-02T09:43:30.193Z</time></trkpt><trkpt lat="40.3936382" lon="9.6280574"><ele>8.0</ele><time>2026-05-02T09:43:31.192Z</time></trkpt><trkpt lat="40.3935592" lon="9.6278882"><ele>8.666666666666666</ele><time>2026-05-02T09:43:32.193Z</time></trkpt><trkpt lat="40.3934808" lon="9.627717"><ele>9.333333333333334</ele><time>2026-05-02T09:43:33.192Z</time></trkpt><trkpt lat="40.3934036" lon="9.6275446"><ele>10.0</ele><time>2026-05-02T09:43:34.192Z</time></trkpt><trkpt lat="40.393325" lon="9.6273698"><ele>10.0</ele><time>2026-05-02T09:43:35.192Z</time></trkpt><trkpt lat="40.3932442" lon="9.6271916"><ele>10.0</ele><time>2026-05-02T09:43:36.192Z</time></trkpt><trkpt lat="40.3931635" lon="9.6270091"><ele>10.0</ele><time>2026-05-02T09:43:37.193Z</time></trkpt><trkpt lat="40.3930799" lon="9.6268253"><ele>10.0</ele><time>2026-05-02T09:43:38.192Z</time></trkpt><trkpt lat="40.3929948" lon="9.6266402"><ele>10.0</ele><time>2026-05-02T09:43:39.193Z</time></trkpt><trkpt lat="40.3929076" lon="9.6264512"><ele>10.0</ele><time>2026-05-02T09:43:40.193Z</time></trkpt><trkpt lat="40.3928204" lon="9.6262579"><ele>9.666666666666668</ele><time>2026-05-02T09:43:41.193Z</time></trkpt><trkpt lat="40.3927326" lon="9.6260609"><ele>9.333333333333334</ele><time>2026-05-02T09:43:42.192Z</time></trkpt><trkpt lat="40.3926429" lon="9.6258616"><ele>9.0</ele><time>2026-05-02T09:43:43.193Z</time></trkpt><trkpt lat="40.3925533" lon="9.6256612"><ele>9.0</ele><time>2026-05-02T09:43:44.193Z</time></trkpt><trkpt lat="40.3924641" lon="9.6254578"><ele>9.0</ele><time>2026-05-02T09:43:45.193Z</time></trkpt><trkpt lat="40.3923725" lon="9.6252548"><ele>9.0</ele><time>2026-05-02T09:43:46.192Z</time></trkpt><trkpt lat="40.3922775" lon="9.6250435"><ele>9.0</ele><time>2026-05-02T09:43:47.193Z</time></trkpt><trkpt lat="40.3921771" lon="9.6248212"><ele>9.0</ele><time>2026-05-02T09:43:48.192Z</time></trkpt><trkpt lat="40.3920694" lon="9.6245879"><ele>9.0</ele><time>2026-05-02T09:43:49.192Z</time></trkpt><trkpt lat="40.3919611" lon="9.624348"><ele>9.666666666666666</ele><time>2026-05-02T09:43:50.193Z</time></trkpt><trkpt lat="40.3918505" lon="9.6241034"><ele>10.333333333333332</ele><time>2026-05-02T09:43:51.192Z</time></trkpt><trkpt lat="40.3917386" lon="9.6238567"><ele>11.0</ele><time>2026-05-02T09:43:52.192Z</time></trkpt><trkpt lat="40.3916254" lon="9.6236077"><ele>11.0</ele><time>2026-05-02T09:43:53.192Z</time></trkpt><trkpt lat="40.3915102" lon="9.6233545"><ele>11.0</ele><time>2026-05-02T09:43:54.193Z</time></trkpt><trkpt lat="40.3913928" lon="9.6230967"><ele>11.5</ele><time>2026-05-02T09:43:55.192Z</time></trkpt><trkpt lat="40.3912735" lon="9.6228367"><ele>12.0</ele><time>2026-05-02T09:43:56.193Z</time></trkpt><trkpt lat="40.3911543" lon="9.622575"><ele>12.5</ele><time>2026-05-02T09:43:57.192Z</time></trkpt><trkpt lat="40.3910341" lon="9.6223125"><ele>13.0</ele><time>2026-05-02T09:43:58.193Z</time></trkpt><trkpt lat="40.3909142" lon="9.6220502"><ele>11.5</ele><time>2026-05-02T09:43:59.192Z</time></trkpt><trkpt lat="40.3907939" lon="9.6217886"><ele>10.0</ele><time>2026-05-02T09:44:00.193Z</time></trkpt><trkpt lat="40.3906755" lon="9.6215257"><ele>10.0</ele><time>2026-05-02T09:44:01.193Z</time></trkpt><trkpt lat="40.3905574" lon="9.6212624"><ele>10.0</ele><time>2026-05-02T09:44:02.193Z</time></trkpt><trkpt lat="40.3904394" lon="9.6210003"><ele>10.5</ele><time>2026-05-02T09:44:03.193Z</time></trkpt><trkpt lat="40.3903213" lon="9.6207401"><ele>11.0</ele><time>2026-05-02T09:44:04.193Z</time></trkpt><trkpt lat="40.3902068" lon="9.620485"><ele>11.333333333333332</ele><time>2026-05-02T09:44:05.193Z</time></trkpt><trkpt lat="40.3900952" lon="9.6202351"><ele>11.666666666666666</ele><time>2026-05-02T09:44:06.193Z</time></trkpt><trkpt lat="40.3899834" lon="9.6199881"><ele>12.0</ele><time>2026-05-02T09:44:07.192Z</time></trkpt><trkpt lat="40.3898714" lon="9.6197403"><ele>12.0</ele><time>2026-05-02T09:44:08.193Z</time></trkpt><trkpt lat="40.3897584" lon="9.6194956"><ele>12.0</ele><time>2026-05-02T09:44:09.193Z</time></trkpt><trkpt lat="40.3896485" lon="9.6192579"><ele>12.0</ele><time>2026-05-02T09:44:10.192Z</time></trkpt><trkpt lat="40.3895436" lon="9.6190287"><ele>12.333333333333332</ele><time>2026-05-02T09:44:11.193Z</time></trkpt><trkpt lat="40.3894447" lon="9.6188146"><ele>12.666666666666666</ele><time>2026-05-02T09:44:12.193Z</time></trkpt><trkpt lat="40.3893524" lon="9.6186154"><ele>13.0</ele><time>2026-05-02T09:44:13.193Z</time></trkpt><trkpt lat="40.3892664" lon="9.6184275"><ele>13.0</ele><time>2026-05-02T09:44:14.192Z</time></trkpt><trkpt lat="40.3891856" lon="9.6182497"><ele>13.0</ele><time>2026-05-02T09:44:15.193Z</time></trkpt><trkpt lat="40.3891085" lon="9.6180767"><ele>13.0</ele><time>2026-05-02T09:44:16.193Z</time></trkpt><trkpt lat="40.3890428" lon="9.6179135"><ele>12.75</ele><time>2026-05-02T09:44:17.193Z</time></trkpt><trkpt lat="40.3889828" lon="9.6177564"><ele>12.5</ele><time>2026-05-02T09:44:18.192Z</time></trkpt><trkpt lat="40.3889304" lon="9.6176042"><ele>12.25</ele><time>2026-05-02T09:44:19.193Z</time></trkpt><trkpt lat="40.3888821" lon="9.6174507"><ele>12.0</ele><time>2026-05-02T09:44:20.192Z</time></trkpt><trkpt lat="40.3888334" lon="9.6172996"><ele>13.75</ele><time>2026-05-02T09:44:21.192Z</time></trkpt><trkpt lat="40.388785" lon="9.6171481"><ele>15.5</ele><time>2026-05-02T09:44:22.193Z</time></trkpt><trkpt lat="40.3887357" lon="9.6169937"><ele>17.25</ele><time>2026-05-02T09:44:23.192Z</time></trkpt><trkpt lat="40.3886937" lon="9.6168373"><ele>19.0</ele><time>2026-05-02T09:44:24.193Z</time></trkpt><trkpt lat="40.3886518" lon="9.6166792"><ele>19.0</ele><time>2026-05-02T09:44:25.193Z</time></trkpt><trkpt lat="40.3886043" lon="9.6165226"><ele>19.0</ele><time>2026-05-02T09:44:26.192Z</time></trkpt><trkpt lat="40.3885566" lon="9.616362"><ele>19.0</ele><time>2026-05-02T09:44:27.192Z</time></trkpt><trkpt lat="40.3885088" lon="9.6161972"><ele>19.0</ele><time>2026-05-02T09:44:28.192Z</time></trkpt><trkpt lat="40.3884604" lon="9.6160351"><ele>18.75</ele><time>2026-05-02T09:44:29.192Z</time></trkpt><trkpt lat="40.388418" lon="9.6158851"><ele>18.5</ele><time>2026-05-02T09:44:30.192Z</time></trkpt><trkpt lat="40.3883762" lon="9.6157432"><ele>18.25</ele><time>2026-05-02T09:44:31.193Z</time></trkpt><trkpt lat="40.3883388" lon="9.6156091"><ele>18.0</ele><time>2026-05-02T09:44:32.192Z</time></trkpt><trkpt lat="40.3883006" lon="9.6154706"><ele>18.0</ele><time>2026-05-02T09:44:33.193Z</time></trkpt><trkpt lat="40.388261" lon="9.6153302"><ele>18.0</ele><time>2026-05-02T09:44:34.192Z</time></trkpt><trkpt lat="40.3882196" lon="9.6151896"><ele>18.0</ele><time>2026-05-02T09:44:35.192Z</time></trkpt><trkpt lat="40.3881779" lon="9.6150519"><ele>18.0</ele><time>2026-05-02T09:44:36.192Z</time></trkpt><trkpt lat="40.388137" lon="9.6149138"><ele>18.2</ele><time>2026-05-02T09:44:37.192Z</time></trkpt><trkpt lat="40.3880985" lon="9.6147774"><ele>18.4</ele><time>2026-05-02T09:44:38.193Z</time></trkpt><trkpt lat="40.3880607" lon="9.6146454"><ele>18.599999999999998</ele><time>2026-05-02T09:44:39.192Z</time></trkpt><trkpt lat="40.3880219" lon="9.6145156"><ele>18.8</ele><time>2026-05-02T09:44:40.192Z</time></trkpt><trkpt lat="40.3879852" lon="9.6143933"><ele>19.0</ele><time>2026-05-02T09:44:41.193Z</time></trkpt><trkpt lat="40.3879451" lon="9.6142817"><ele>19.0</ele><time>2026-05-02T09:44:42.193Z</time></trkpt><trkpt lat="40.3879019" lon="9.6141746"><ele>19.0</ele><time>2026-05-02T09:44:43.193Z</time></trkpt><trkpt lat="40.3878591" lon="9.6140656"><ele>19.0</ele><time>2026-05-02T09:44:44.193Z</time></trkpt><trkpt lat="40.3878159" lon="9.613955"><ele>19.0</ele><time>2026-05-02T09:44:45.193Z</time></trkpt><trkpt lat="40.3877684" lon="9.6138405"><ele>19.0</ele><time>2026-05-02T09:44:46.193Z</time></trkpt><trkpt lat="40.3877207" lon="9.6137213"><ele>18.599999999999998</ele><time>2026-05-02T09:44:47.192Z</time></trkpt><trkpt lat="40.3876687" lon="9.6136026"><ele>18.2</ele><time>2026-05-02T09:44:48.193Z</time></trkpt><trkpt lat="40.3876146" lon="9.6134821"><ele>17.799999999999997</ele><time>2026-05-02T09:44:49.192Z</time></trkpt><trkpt lat="40.3875608" lon="9.6133593"><ele>17.4</ele><time>2026-05-02T09:44:50.192Z</time></trkpt><trkpt lat="40.387498" lon="9.6132373"><ele>17.0</ele><time>2026-05-02T09:44:51.193Z</time></trkpt><trkpt lat="40.3874301" lon="9.6131153"><ele>17.0</ele><time>2026-05-02T09:44:52.192Z</time></trkpt><trkpt lat="40.3873595" lon="9.6129937"><ele>17.0</ele><time>2026-05-02T09:44:53.193Z</time></trkpt><trkpt lat="40.3872853" lon="9.6128703"><ele>17.0</ele><time>2026-05-02T09:44:54.192Z</time></trkpt><trkpt lat="40.3872044" lon="9.6127481"><ele>17.0</ele><time>2026-05-02T09:44:55.193Z</time></trkpt><trkpt lat="40.3871193" lon="9.6126301"><ele>16.8</ele><time>2026-05-02T09:44:56.192Z</time></trkpt><trkpt lat="40.3870409" lon="9.6125159"><ele>16.6</ele><time>2026-05-02T09:44:57.193Z</time></trkpt><trkpt lat="40.3869705" lon="9.6124054"><ele>16.400000000000002</ele><time>2026-05-02T09:44:58.192Z</time></trkpt><trkpt lat="40.3868998" lon="9.6123046"><ele>16.2</ele><time>2026-05-02T09:44:59.193Z</time></trkpt><trkpt lat="40.3868281" lon="9.6122143"><ele>16.0</ele><time>2026-05-02T09:45:00.193Z</time></trkpt><trkpt lat="40.3867532" lon="9.6121258"><ele>16.0</ele><time>2026-05-02T09:45:01.193Z</time></trkpt><trkpt lat="40.3866713" lon="9.6120337"><ele>16.0</ele><time>2026-05-02T09:45:02.193Z</time></trkpt><trkpt lat="40.3865866" lon="9.6119442"><ele>16.0</ele><time>2026-05-02T09:45:03.193Z</time></trkpt><trkpt lat="40.3865079" lon="9.611864"><ele>16.0</ele><time>2026-05-02T09:45:04.193Z</time></trkpt><trkpt lat="40.3864461" lon="9.6117972"><ele>16.0</ele><time>2026-05-02T09:45:05.193Z</time></trkpt><trkpt lat="40.3863991" lon="9.6117418"><ele>15.999999999999998</ele><time>2026-05-02T09:45:06.193Z</time></trkpt><trkpt lat="40.3863286" lon="9.611676"><ele>16.0</ele><time>2026-05-02T09:45:08.192Z</time></trkpt><trkpt lat="40.3862389" lon="9.6116073"><ele>16.0</ele><time>2026-05-02T09:45:10.192Z</time></trkpt><trkpt lat="40.386153" lon="9.6114979"><ele>16.0</ele><time>2026-05-02T09:45:12.193Z</time></trkpt><trkpt lat="40.3861031" lon="9.6114447"><ele>15.999999999999998</ele><time>2026-05-02T09:45:13.193Z</time></trkpt><trkpt lat="40.3860465" lon="9.6113853"><ele>16.0</ele><time>2026-05-02T09:45:14.192Z</time></trkpt><trkpt lat="40.3859842" lon="9.6113224"><ele>16.0</ele><time>2026-05-02T09:45:15.193Z</time></trkpt><trkpt lat="40.385917" lon="9.6112552"><ele>16.0</ele><time>2026-05-02T09:45:16.192Z</time></trkpt><trkpt lat="40.3858462" lon="9.6111825"><ele>16.0</ele><time>2026-05-02T09:45:17.192Z</time></trkpt><trkpt lat="40.3857707" lon="9.6111066"><ele>16.0</ele><time>2026-05-02T09:45:18.193Z</time></trkpt><trkpt lat="40.3856926" lon="9.6110274"><ele>16.0</ele><time>2026-05-02T09:45:19.193Z</time></trkpt><trkpt lat="40.3856169" lon="9.6109519"><ele>16.166666666666664</ele><time>2026-05-02T09:45:20.192Z</time></trkpt><trkpt lat="40.3855515" lon="9.6108891"><ele>16.333333333333332</ele><time>2026-05-02T09:45:21.193Z</time></trkpt><trkpt lat="40.3854622" lon="9.6108039"><ele>16.5</ele><time>2026-05-02T09:45:23.192Z</time></trkpt><trkpt lat="40.3854099" lon="9.6107531"><ele>16.666666666666668</ele><time>2026-05-02T09:45:25.192Z</time></trkpt><trkpt lat="40.385351" lon="9.610704"><ele>16.833333333333336</ele><time>2026-05-02T09:45:34.193Z</time></trkpt><trkpt lat="40.3852552" lon="9.6106127"><ele>17.0</ele><time>2026-05-02T09:45:37.193Z</time></trkpt><trkpt lat="40.385195" lon="9.6105543"><ele>17.0</ele><time>2026-05-02T09:45:38.192Z</time></trkpt><trkpt lat="40.3851266" lon="9.6104872"><ele>17.0</ele><time>2026-05-02T09:45:39.192Z</time></trkpt><trkpt lat="40.3850525" lon="9.6104184"><ele>17.0</ele><time>2026-05-02T09:45:40.192Z</time></trkpt><trkpt lat="40.3849789" lon="9.6103461"><ele>17.0</ele><time>2026-05-02T09:45:41.192Z</time></trkpt><trkpt lat="40.3848957" lon="9.610265"><ele>17.0</ele><time>2026-05-02T09:45:42.192Z</time></trkpt><trkpt lat="40.3848065" lon="9.6101781"><ele>16.75</ele><time>2026-05-02T09:45:43.193Z</time></trkpt><trkpt lat="40.3847159" lon="9.6100906"><ele>16.5</ele><time>2026-05-02T09:45:44.193Z</time></trkpt><trkpt lat="40.3846204" lon="9.6100002"><ele>16.25</ele><time>2026-05-02T09:45:45.192Z</time></trkpt><trkpt lat="40.3845245" lon="9.6099059"><ele>16.0</ele><time>2026-05-02T09:45:46.193Z</time></trkpt><trkpt lat="40.3844269" lon="9.6098133"><ele>16.0</ele><time>2026-05-02T09:45:47.192Z</time></trkpt><trkpt lat="40.3843266" lon="9.6097191"><ele>16.0</ele><time>2026-05-02T09:45:48.192Z</time></trkpt><trkpt lat="40.3842269" lon="9.6096228"><ele>16.0</ele><time>2026-05-02T09:45:49.192Z</time></trkpt><trkpt lat="40.3841187" lon="9.6095173"><ele>16.0</ele><time>2026-05-02T09:45:50.192Z</time></trkpt><trkpt lat="40.3840063" lon="9.6094082"><ele>16.25</ele><time>2026-05-02T09:45:51.193Z</time></trkpt><trkpt lat="40.3838926" lon="9.609299"><ele>16.5</ele><time>2026-05-02T09:45:52.192Z</time></trkpt><trkpt lat="40.3837833" lon="9.6091919"><ele>16.75</ele><time>2026-05-02T09:45:53.192Z</time></trkpt><trkpt lat="40.383683" lon="9.6090926"><ele>17.0</ele><time>2026-05-02T09:45:54.192Z</time></trkpt><trkpt lat="40.3835785" lon="9.6089948"><ele>17.0</ele><time>2026-05-02T09:45:55.192Z</time></trkpt><trkpt lat="40.3834863" lon="9.6089026"><ele>17.0</ele><time>2026-05-02T09:45:56.193Z</time></trkpt><trkpt lat="40.3834005" lon="9.6088179"><ele>17.0</ele><time>2026-05-02T09:45:57.192Z</time></trkpt><trkpt lat="40.3833255" lon="9.6087427"><ele>17.0</ele><time>2026-05-02T09:45:58.192Z</time></trkpt><trkpt lat="40.3832614" lon="9.6086756"><ele>17.0</ele><time>2026-05-02T09:45:59.193Z</time></trkpt><trkpt lat="40.3832048" lon="9.6086176"><ele>16.6</ele><time>2026-05-02T09:46:00.192Z</time></trkpt><trkpt lat="40.3831122" lon="9.6085251"><ele>16.2</ele><time>2026-05-02T09:46:02.193Z</time></trkpt><trkpt lat="40.3830251" lon="9.6084426"><ele>15.8</ele><time>2026-05-02T09:46:04.192Z</time></trkpt><trkpt lat="40.3829397" lon="9.6083641"><ele>15.4</ele><time>2026-05-02T09:46:06.192Z</time></trkpt><trkpt lat="40.3828629" lon="9.6082847"><ele>15.0</ele><time>2026-05-02T09:46:08.193Z</time></trkpt><trkpt lat="40.3827893" lon="9.6082135"><ele>16.0</ele><time>2026-05-02T09:46:10.193Z</time></trkpt><trkpt lat="40.3827152" lon="9.6081436"><ele>17.0</ele><time>2026-05-02T09:46:12.193Z</time></trkpt><trkpt lat="40.3826408" lon="9.6080596"><ele>18.0</ele><time>2026-05-02T09:46:14.192Z</time></trkpt><trkpt lat="40.3825414" lon="9.6079559"><ele>19.0</ele><time>2026-05-02T09:46:16.193Z</time></trkpt><trkpt lat="40.3824806" lon="9.6078955"><ele>20.0</ele><time>2026-05-02T09:46:17.193Z</time></trkpt><trkpt lat="40.3824162" lon="9.607833"><ele>20.2</ele><time>2026-05-02T09:46:18.192Z</time></trkpt><trkpt lat="40.3823527" lon="9.6077647"><ele>20.4</ele><time>2026-05-02T09:46:19.193Z</time></trkpt><trkpt lat="40.3822829" lon="9.6076889"><ele>20.6</ele><time>2026-05-02T09:46:20.193Z</time></trkpt><trkpt lat="40.382211" lon="9.6076122"><ele>20.8</ele><time>2026-05-02T09:46:21.192Z</time></trkpt><trkpt lat="40.3821352" lon="9.6075301"><ele>21.0</ele><time>2026-05-02T09:46:22.192Z</time></trkpt><trkpt lat="40.382058" lon="9.6074408"><ele>21.6</ele><time>2026-05-02T09:46:23.192Z</time></trkpt><trkpt lat="40.3819818" lon="9.607349"><ele>22.200000000000003</ele><time>2026-05-02T09:46:24.192Z</time></trkpt><trkpt lat="40.3819091" lon="9.6072631"><ele>22.799999999999997</ele><time>2026-05-02T09:46:25.192Z</time></trkpt><trkpt lat="40.3818371" lon="9.6071806"><ele>23.4</ele><time>2026-05-02T09:46:26.193Z</time></trkpt><trkpt lat="40.3817644" lon="9.6070963"><ele>24.0</ele><time>2026-05-02T09:46:27.192Z</time></trkpt><trkpt lat="40.3816921" lon="9.6070119"><ele>24.0</ele><time>2026-05-02T09:46:28.192Z</time></trkpt><trkpt lat="40.381618" lon="9.6069207"><ele>24.0</ele><time>2026-05-02T09:46:29.193Z</time></trkpt><trkpt lat="40.3815405" lon="9.6068282"><ele>24.0</ele><time>2026-05-02T09:46:30.192Z</time></trkpt><trkpt lat="40.381466" lon="9.6067385"><ele>24.0</ele><time>2026-05-02T09:46:31.193Z</time></trkpt><trkpt lat="40.3813899" lon="9.6066422"><ele>24.0</ele><time>2026-05-02T09:46:32.192Z</time></trkpt><trkpt lat="40.3813108" lon="9.6065424"><ele>24.25</ele><time>2026-05-02T09:46:33.192Z</time></trkpt><trkpt lat="40.3812287" lon="9.6064376"><ele>24.5</ele><time>2026-05-02T09:46:34.192Z</time></trkpt><trkpt lat="40.3811469" lon="9.6063258"><ele>24.75</ele><time>2026-05-02T09:46:35.192Z</time></trkpt><trkpt lat="40.3810616" lon="9.6062055"><ele>25.0</ele><time>2026-05-02T09:46:36.192Z</time></trkpt><trkpt lat="40.3809708" lon="9.6060794"><ele>25.0</ele><time>2026-05-02T09:46:37.192Z</time></trkpt><trkpt lat="40.3808759" lon="9.6059451"><ele>25.0</ele><time>2026-05-02T09:46:38.193Z</time></trkpt><trkpt lat="40.3807779" lon="9.6058057"><ele>25.0</ele><time>2026-05-02T09:46:39.193Z</time></trkpt><trkpt lat="40.3806789" lon="9.6056697"><ele>25.0</ele><time>2026-05-02T09:46:40.193Z</time></trkpt><trkpt lat="40.3805861" lon="9.6055368"><ele>25.5</ele><time>2026-05-02T09:46:41.193Z</time></trkpt><trkpt lat="40.3804943" lon="9.6054068"><ele>26.0</ele><time>2026-05-02T09:46:42.193Z</time></trkpt><trkpt lat="40.3804063" lon="9.6052691"><ele>26.5</ele><time>2026-05-02T09:46:43.193Z</time></trkpt><trkpt lat="40.380324" lon="9.6051196"><ele>27.0</ele><time>2026-05-02T09:46:44.192Z</time></trkpt><trkpt lat="40.3802474" lon="9.6049608"><ele>25.5</ele><time>2026-05-02T09:46:45.193Z</time></trkpt><trkpt lat="40.3801758" lon="9.604792"><ele>24.0</ele><time>2026-05-02T09:46:46.193Z</time></trkpt><trkpt lat="40.3801116" lon="9.6046135"><ele>22.5</ele><time>2026-05-02T09:46:47.193Z</time></trkpt><trkpt lat="40.3800653" lon="9.6044246"><ele>21.0</ele><time>2026-05-02T09:46:48.193Z</time></trkpt><trkpt lat="40.3800358" lon="9.6042272"><ele>20.333333333333332</ele><time>2026-05-02T09:46:49.192Z</time></trkpt><trkpt lat="40.3800196" lon="9.604027"><ele>19.666666666666664</ele><time>2026-05-02T09:46:50.193Z</time></trkpt><trkpt lat="40.3800149" lon="9.6038252"><ele>19.0</ele><time>2026-05-02T09:46:51.193Z</time></trkpt><trkpt lat="40.3800133" lon="9.6036229"><ele>19.0</ele><time>2026-05-02T09:46:52.193Z</time></trkpt><trkpt lat="40.3800131" lon="9.6034183"><ele>19.0</ele><time>2026-05-02T09:46:53.193Z</time></trkpt><trkpt lat="40.3800127" lon="9.6032154"><ele>19.0</ele><time>2026-05-02T09:46:54.192Z</time></trkpt><trkpt lat="40.38001" lon="9.6030165"><ele>18.666666666666664</ele><time>2026-05-02T09:46:55.192Z</time></trkpt><trkpt lat="40.3800061" lon="9.6028172"><ele>18.333333333333332</ele><time>2026-05-02T09:46:56.192Z</time></trkpt><trkpt lat="40.3799947" lon="9.6026162"><ele>18.0</ele><time>2026-05-02T09:46:57.193Z</time></trkpt><trkpt lat="40.3799728" lon="9.6024155"><ele>18.0</ele><time>2026-05-02T09:46:58.192Z</time></trkpt><trkpt lat="40.379936" lon="9.6022198"><ele>18.0</ele><time>2026-05-02T09:46:59.193Z</time></trkpt><trkpt lat="40.3798888" lon="9.6020242"><ele>18.0</ele><time>2026-05-02T09:47:00.192Z</time></trkpt><trkpt lat="40.379828" lon="9.6018363"><ele>18.0</ele><time>2026-05-02T09:47:01.192Z</time></trkpt><trkpt lat="40.3797522" lon="9.6016563"><ele>18.0</ele><time>2026-05-02T09:47:02.193Z</time></trkpt><trkpt lat="40.3796642" lon="9.6014766"><ele>18.0</ele><time>2026-05-02T09:47:03.192Z</time></trkpt><trkpt lat="40.3795678" lon="9.6013"><ele>17.333333333333332</ele><time>2026-05-02T09:47:04.192Z</time></trkpt><trkpt lat="40.3794648" lon="9.6011229"><ele>16.666666666666664</ele><time>2026-05-02T09:47:05.193Z</time></trkpt><trkpt lat="40.3793544" lon="9.6009428"><ele>16.0</ele><time>2026-05-02T09:47:06.193Z</time></trkpt><trkpt lat="40.3792372" lon="9.6007549"><ele>16.0</ele><time>2026-05-02T09:47:07.193Z</time></trkpt><trkpt lat="40.3791152" lon="9.6005658"><ele>16.0</ele><time>2026-05-02T09:47:08.192Z</time></trkpt><trkpt lat="40.3789943" lon="9.6003737"><ele>16.0</ele><time>2026-05-02T09:47:09.192Z</time></trkpt><trkpt lat="40.3788716" lon="9.6001803"><ele>17.333333333333332</ele><time>2026-05-02T09:47:10.192Z</time></trkpt><trkpt lat="40.378754" lon="9.5999853"><ele>18.666666666666668</ele><time>2026-05-02T09:47:11.193Z</time></trkpt><trkpt lat="40.3786362" lon="9.5997915"><ele>20.0</ele><time>2026-05-02T09:47:12.192Z</time></trkpt><trkpt lat="40.3785186" lon="9.5996028"><ele>20.333333333333336</ele><time>2026-05-02T09:47:13.192Z</time></trkpt><trkpt lat="40.3784031" lon="9.5994169"><ele>20.666666666666668</ele><time>2026-05-02T09:47:14.192Z</time></trkpt><trkpt lat="40.3782876" lon="9.5992336"><ele>21.0</ele><time>2026-05-02T09:47:15.193Z</time></trkpt><trkpt lat="40.3781735" lon="9.5990498"><ele>21.0</ele><time>2026-05-02T09:47:16.192Z</time></trkpt><trkpt lat="40.3780588" lon="9.5988636"><ele>21.0</ele><time>2026-05-02T09:47:17.193Z</time></trkpt><trkpt lat="40.3779427" lon="9.5986756"><ele>21.0</ele><time>2026-05-02T09:47:18.193Z</time></trkpt><trkpt lat="40.3778248" lon="9.5984829"><ele>21.666666666666668</ele><time>2026-05-02T09:47:19.193Z</time></trkpt><trkpt lat="40.3777046" lon="9.5982888"><ele>22.333333333333336</ele><time>2026-05-02T09:47:20.193Z</time></trkpt><trkpt lat="40.3775826" lon="9.5980929"><ele>23.0</ele><time>2026-05-02T09:47:21.192Z</time></trkpt><trkpt lat="40.3774594" lon="9.5978958"><ele>23.333333333333336</ele><time>2026-05-02T09:47:22.193Z</time></trkpt><trkpt lat="40.3773378" lon="9.5976987"><ele>23.666666666666668</ele><time>2026-05-02T09:47:23.193Z</time></trkpt><trkpt lat="40.3772173" lon="9.5975044"><ele>24.0</ele><time>2026-05-02T09:47:24.192Z</time></trkpt><trkpt lat="40.3770955" lon="9.5973114"><ele>24.0</ele><time>2026-05-02T09:47:25.192Z</time></trkpt><trkpt lat="40.376975" lon="9.5971187"><ele>24.0</ele><time>2026-05-02T09:47:26.193Z</time></trkpt><trkpt lat="40.3768532" lon="9.5969239"><ele>24.0</ele><time>2026-05-02T09:47:27.193Z</time></trkpt><trkpt lat="40.3767291" lon="9.5967245"><ele>23.666666666666668</ele><time>2026-05-02T09:47:28.192Z</time></trkpt><trkpt lat="40.376603" lon="9.5965224"><ele>23.333333333333336</ele><time>2026-05-02T09:47:29.193Z</time></trkpt><trkpt lat="40.3764746" lon="9.5963171"><ele>23.0</ele><time>2026-05-02T09:47:30.192Z</time></trkpt><trkpt lat="40.3763462" lon="9.5961096"><ele>23.666666666666668</ele><time>2026-05-02T09:47:31.192Z</time></trkpt><trkpt lat="40.3762177" lon="9.5959011"><ele>24.333333333333336</ele><time>2026-05-02T09:47:32.192Z</time></trkpt><trkpt lat="40.3760876" lon="9.5956885"><ele>25.0</ele><time>2026-05-02T09:47:33.193Z</time></trkpt><trkpt lat="40.3759556" lon="9.5954738"><ele>25.0</ele><time>2026-05-02T09:47:34.193Z</time></trkpt><trkpt lat="40.3758225" lon="9.5952594"><ele>25.0</ele><time>2026-05-02T09:47:35.193Z</time></trkpt><trkpt lat="40.3756885" lon="9.5950458"><ele>25.0</ele><time>2026-05-02T09:47:36.193Z</time></trkpt><trkpt lat="40.3755534" lon="9.5948287"><ele>25.333333333333336</ele><time>2026-05-02T09:47:37.193Z</time></trkpt><trkpt lat="40.3754172" lon="9.5946126"><ele>25.666666666666664</ele><time>2026-05-02T09:47:38.192Z</time></trkpt><trkpt lat="40.3752794" lon="9.5943991"><ele>26.0</ele><time>2026-05-02T09:47:39.192Z</time></trkpt><trkpt lat="40.3751382" lon="9.5941897"><ele>25.333333333333332</ele><time>2026-05-02T09:47:40.193Z</time></trkpt><trkpt lat="40.3749963" lon="9.593989"><ele>24.666666666666664</ele><time>2026-05-02T09:47:41.193Z</time></trkpt><trkpt lat="40.3748565" lon="9.5938003"><ele>24.0</ele><time>2026-05-02T09:47:42.193Z</time></trkpt><trkpt lat="40.3747107" lon="9.5936158"><ele>24.333333333333336</ele><time>2026-05-02T09:47:43.192Z</time></trkpt><trkpt lat="40.3745612" lon="9.5934372"><ele>24.666666666666668</ele><time>2026-05-02T09:47:44.193Z</time></trkpt><trkpt lat="40.3744061" lon="9.5932648"><ele>25.0</ele><time>2026-05-02T09:47:45.192Z</time></trkpt><trkpt lat="40.374247" lon="9.5930987"><ele>25.0</ele><time>2026-05-02T09:47:46.193Z</time></trkpt><trkpt lat="40.3740824" lon="9.592941"><ele>25.0</ele><time>2026-05-02T09:47:47.193Z</time></trkpt><trkpt lat="40.3739146" lon="9.5927898"><ele>25.0</ele><time>2026-05-02T09:47:48.192Z</time></trkpt><trkpt lat="40.3737445" lon="9.5926434"><ele>26.0</ele><time>2026-05-02T09:47:49.192Z</time></trkpt><trkpt lat="40.373574" lon="9.5924999"><ele>27.0</ele><time>2026-05-02T09:47:50.192Z</time></trkpt><trkpt lat="40.3734084" lon="9.5923629"><ele>28.0</ele><time>2026-05-02T09:47:51.192Z</time></trkpt><trkpt lat="40.373247" lon="9.5922199"><ele>28.0</ele><time>2026-05-02T09:47:52.193Z</time></trkpt><trkpt lat="40.3730957" lon="9.5920648"><ele>28.0</ele><time>2026-05-02T09:47:53.192Z</time></trkpt><trkpt lat="40.3729547" lon="9.5918964"><ele>28.0</ele><time>2026-05-02T09:47:54.192Z</time></trkpt><trkpt lat="40.3728153" lon="9.5917206"><ele>25.666666666666668</ele><time>2026-05-02T09:47:55.192Z</time></trkpt><trkpt lat="40.3726713" lon="9.5915459"><ele>23.333333333333336</ele><time>2026-05-02T09:47:56.193Z</time></trkpt><trkpt lat="40.3725167" lon="9.5913849"><ele>21.0</ele><time>2026-05-02T09:47:57.192Z</time></trkpt><trkpt lat="40.3723505" lon="9.591242"><ele>18.666666666666668</ele><time>2026-05-02T09:47:58.192Z</time></trkpt><trkpt lat="40.3721785" lon="9.591109"><ele>16.333333333333336</ele><time>2026-05-02T09:47:59.193Z</time></trkpt><trkpt lat="40.3720044" lon="9.5909771"><ele>14.0</ele><time>2026-05-02T09:48:00.192Z</time></trkpt><trkpt lat="40.3718313" lon="9.5908421"><ele>14.0</ele><time>2026-05-02T09:48:01.193Z</time></trkpt><trkpt lat="40.3716641" lon="9.5907083"><ele>14.0</ele><time>2026-05-02T09:48:02.192Z</time></trkpt><trkpt lat="40.3715041" lon="9.5905831"><ele>14.0</ele><time>2026-05-02T09:48:03.192Z</time></trkpt><trkpt lat="40.3713451" lon="9.5904632"><ele>15.333333333333334</ele><time>2026-05-02T09:48:04.192Z</time></trkpt><trkpt lat="40.3711852" lon="9.5903469"><ele>16.666666666666668</ele><time>2026-05-02T09:48:05.193Z</time></trkpt><trkpt lat="40.3710167" lon="9.5902488"><ele>18.0</ele><time>2026-05-02T09:48:06.192Z</time></trkpt><trkpt lat="40.3708367" lon="9.5901864"><ele>18.0</ele><time>2026-05-02T09:48:07.192Z</time></trkpt><trkpt lat="40.3706605" lon="9.5901382"><ele>18.0</ele><time>2026-05-02T09:48:08.192Z</time></trkpt><trkpt lat="40.3704974" lon="9.5900822"><ele>18.0</ele><time>2026-05-02T09:48:09.193Z</time></trkpt><trkpt lat="40.3703496" lon="9.5899986"><ele>18.666666666666668</ele><time>2026-05-02T09:48:10.193Z</time></trkpt><trkpt lat="40.3702125" lon="9.5898809"><ele>19.333333333333336</ele><time>2026-05-02T09:48:11.192Z</time></trkpt><trkpt lat="40.3700774" lon="9.5897461"><ele>20.0</ele><time>2026-05-02T09:48:12.192Z</time></trkpt><trkpt lat="40.3699445" lon="9.5895939"><ele>19.666666666666668</ele><time>2026-05-02T09:48:13.192Z</time></trkpt><trkpt lat="40.3698213" lon="9.5894217"><ele>19.333333333333332</ele><time>2026-05-02T09:48:14.193Z</time></trkpt><trkpt lat="40.3697181" lon="9.5892279"><ele>19.0</ele><time>2026-05-02T09:48:15.192Z</time></trkpt><trkpt lat="40.3696345" lon="9.5890151"><ele>21.0</ele><time>2026-05-02T09:48:16.192Z</time></trkpt><trkpt lat="40.3695719" lon="9.5887907"><ele>23.0</ele><time>2026-05-02T09:48:17.192Z</time></trkpt><trkpt lat="40.369536" lon="9.5885607"><ele>25.0</ele><time>2026-05-02T09:48:18.192Z</time></trkpt><trkpt lat="40.3695289" lon="9.5883249"><ele>25.0</ele><time>2026-05-02T09:48:19.193Z</time></trkpt><trkpt lat="40.3695449" lon="9.5880811"><ele>25.0</ele><time>2026-05-02T09:48:20.193Z</time></trkpt><trkpt lat="40.3695839" lon="9.5878419"><ele>25.0</ele><time>2026-05-02T09:48:21.193Z</time></trkpt><trkpt lat="40.3696398" lon="9.5876046"><ele>28.0</ele><time>2026-05-02T09:48:22.192Z</time></trkpt><trkpt lat="40.3697047" lon="9.5873684"><ele>31.0</ele><time>2026-05-02T09:48:23.193Z</time></trkpt><trkpt lat="40.3697839" lon="9.5871431"><ele>34.0</ele><time>2026-05-02T09:48:24.192Z</time></trkpt><trkpt lat="40.3698782" lon="9.5869267"><ele>34.0</ele><time>2026-05-02T09:48:25.192Z</time></trkpt><trkpt lat="40.3699783" lon="9.58671"><ele>34.0</ele><time>2026-05-02T09:48:26.193Z</time></trkpt><trkpt lat="40.370079" lon="9.5864904"><ele>34.0</ele><time>2026-05-02T09:48:27.193Z</time></trkpt><trkpt lat="40.3701824" lon="9.5862728"><ele>30.666666666666668</ele><time>2026-05-02T09:48:28.192Z</time></trkpt><trkpt lat="40.3702817" lon="9.5860663"><ele>27.333333333333336</ele><time>2026-05-02T09:48:29.192Z</time></trkpt><trkpt lat="40.3703723" lon="9.5858765"><ele>24.0</ele><time>2026-05-02T09:48:30.193Z</time></trkpt><trkpt lat="40.3704491" lon="9.5857126"><ele>24.0</ele><time>2026-05-02T09:48:31.192Z</time></trkpt><trkpt lat="40.3705141" lon="9.5855586"><ele>24.0</ele><time>2026-05-02T09:48:32.193Z</time></trkpt><trkpt lat="40.3705529" lon="9.5853984"><ele>24.0</ele><time>2026-05-02T09:48:33.193Z</time></trkpt><trkpt lat="40.3705596" lon="9.5852289"><ele>24.0</ele><time>2026-05-02T09:48:34.193Z</time></trkpt><trkpt lat="40.3705469" lon="9.5850491"><ele>26.666666666666664</ele><time>2026-05-02T09:48:35.192Z</time></trkpt><trkpt lat="40.3705412" lon="9.5848516"><ele>29.333333333333332</ele><time>2026-05-02T09:48:36.192Z</time></trkpt><trkpt lat="40.3705635" lon="9.5846404"><ele>32.0</ele><time>2026-05-02T09:48:37.192Z</time></trkpt><trkpt lat="40.3706052" lon="9.5844115"><ele>32.0</ele><time>2026-05-02T09:48:38.192Z</time></trkpt><trkpt lat="40.3706566" lon="9.5841556"><ele>32.0</ele><time>2026-05-02T09:48:39.193Z</time></trkpt><trkpt lat="40.3706927" lon="9.5838827"><ele>32.0</ele><time>2026-05-02T09:48:40.192Z</time></trkpt><trkpt lat="40.3707148" lon="9.5835981"><ele>32.666666666666664</ele><time>2026-05-02T09:48:41.192Z</time></trkpt><trkpt lat="40.3707249" lon="9.5833275"><ele>33.333333333333336</ele><time>2026-05-02T09:48:42.193Z</time></trkpt><trkpt lat="40.3707192" lon="9.5830716"><ele>34.0</ele><time>2026-05-02T09:48:43.192Z</time></trkpt><trkpt lat="40.3706841" lon="9.5828332"><ele>35.0</ele><time>2026-05-02T09:48:44.192Z</time></trkpt><trkpt lat="40.3706149" lon="9.5826098"><ele>36.0</ele><time>2026-05-02T09:48:45.193Z</time></trkpt><trkpt lat="40.3705149" lon="9.5824044"><ele>37.0</ele><time>2026-05-02T09:48:46.193Z</time></trkpt><trkpt lat="40.3703923" lon="9.5822168"><ele>32.0</ele><time>2026-05-02T09:48:47.193Z</time></trkpt><trkpt lat="40.3702593" lon="9.5820354"><ele>27.0</ele><time>2026-05-02T09:48:48.191Z</time></trkpt><trkpt lat="40.3701253" lon="9.5818568"><ele>22.0</ele><time>2026-05-02T09:48:49.193Z</time></trkpt><trkpt lat="40.3700037" lon="9.581688"><ele>22.0</ele><time>2026-05-02T09:48:50.193Z</time></trkpt><trkpt lat="40.3699067" lon="9.5815204"><ele>22.0</ele><time>2026-05-02T09:48:51.193Z</time></trkpt><trkpt lat="40.3698408" lon="9.5813348"><ele>22.0</ele><time>2026-05-02T09:48:52.192Z</time></trkpt><trkpt lat="40.3698082" lon="9.5811306"><ele>22.333333333333332</ele><time>2026-05-02T09:48:53.193Z</time></trkpt><trkpt lat="40.3698098" lon="9.5809158"><ele>22.666666666666668</ele><time>2026-05-02T09:48:54.193Z</time></trkpt><trkpt lat="40.36983" lon="9.5806833"><ele>23.0</ele><time>2026-05-02T09:48:55.193Z</time></trkpt><trkpt lat="40.3698553" lon="9.5804401"><ele>23.0</ele><time>2026-05-02T09:48:56.192Z</time></trkpt><trkpt lat="40.3698701" lon="9.5802127"><ele>23.0</ele><time>2026-05-02T09:48:57.193Z</time></trkpt><trkpt lat="40.3698657" lon="9.5799815"><ele>23.0</ele><time>2026-05-02T09:48:58.191Z</time></trkpt><trkpt lat="40.3698307" lon="9.5797548"><ele>23.0</ele><time>2026-05-02T09:48:59.192Z</time></trkpt><trkpt lat="40.3697712" lon="9.5795329"><ele>23.0</ele><time>2026-05-02T09:49:00.193Z</time></trkpt><trkpt lat="40.3696948" lon="9.579314"><ele>23.0</ele><time>2026-05-02T09:49:01.192Z</time></trkpt><trkpt lat="40.3696097" lon="9.5790917"><ele>22.333333333333336</ele><time>2026-05-02T09:49:02.193Z</time></trkpt><trkpt lat="40.3695258" lon="9.5788591"><ele>21.666666666666668</ele><time>2026-05-02T09:49:03.192Z</time></trkpt><trkpt lat="40.3694367" lon="9.5786229"><ele>21.0</ele><time>2026-05-02T09:49:04.192Z</time></trkpt><trkpt lat="40.3693396" lon="9.5783859"><ele>21.0</ele><time>2026-05-02T09:49:05.192Z</time></trkpt><trkpt lat="40.3692272" lon="9.5781539"><ele>21.0</ele><time>2026-05-02T09:49:06.193Z</time></trkpt><trkpt lat="40.3690925" lon="9.577934"><ele>21.0</ele><time>2026-05-02T09:49:07.193Z</time></trkpt><trkpt lat="40.3689394" lon="9.577732"><ele>22.333333333333336</ele><time>2026-05-02T09:49:08.193Z</time></trkpt><trkpt lat="40.3687711" lon="9.5775528"><ele>23.666666666666668</ele><time>2026-05-02T09:49:09.193Z</time></trkpt><trkpt lat="40.3685901" lon="9.5773985"><ele>25.0</ele><time>2026-05-02T09:49:10.192Z</time></trkpt><trkpt lat="40.3684033" lon="9.5772646"><ele>25.0</ele><time>2026-05-02T09:49:11.192Z</time></trkpt><trkpt lat="40.3682127" lon="9.57714"><ele>25.0</ele><time>2026-05-02T09:49:12.192Z</time></trkpt><trkpt lat="40.3680245" lon="9.5770171"><ele>25.0</ele><time>2026-05-02T09:49:13.193Z</time></trkpt><trkpt lat="40.367841" lon="9.576893"><ele>26.666666666666668</ele><time>2026-05-02T09:49:14.192Z</time></trkpt><trkpt lat="40.3676616" lon="9.5767676"><ele>28.333333333333336</ele><time>2026-05-02T09:49:15.192Z</time></trkpt><trkpt lat="40.3674975" lon="9.576636"><ele>30.0</ele><time>2026-05-02T09:49:16.193Z</time></trkpt><trkpt lat="40.367347" lon="9.5764899"><ele>30.0</ele><time>2026-05-02T09:49:17.192Z</time></trkpt><trkpt lat="40.3672215" lon="9.5763239"><ele>30.0</ele><time>2026-05-02T09:49:18.193Z</time></trkpt><trkpt lat="40.3671087" lon="9.576141"><ele>30.0</ele><time>2026-05-02T09:49:19.192Z</time></trkpt><trkpt lat="40.3670196" lon="9.5759366"><ele>30.666666666666664</ele><time>2026-05-02T09:49:20.193Z</time></trkpt><trkpt lat="40.3669528" lon="9.5757164"><ele>31.333333333333332</ele><time>2026-05-02T09:49:21.193Z</time></trkpt><trkpt lat="40.3669039" lon="9.5754726"><ele>32.0</ele><time>2026-05-02T09:49:22.192Z</time></trkpt><trkpt lat="40.3668646" lon="9.5752115"><ele>32.666666666666664</ele><time>2026-05-02T09:49:23.193Z</time></trkpt><trkpt lat="40.3668223" lon="9.574953"><ele>33.333333333333336</ele><time>2026-05-02T09:49:24.192Z</time></trkpt><trkpt lat="40.3667836" lon="9.5747089"><ele>34.0</ele><time>2026-05-02T09:49:25.192Z</time></trkpt><trkpt lat="40.3667391" lon="9.5744655"><ele>35.0</ele><time>2026-05-02T09:49:26.192Z</time></trkpt><trkpt lat="40.3666839" lon="9.5742274"><ele>36.0</ele><time>2026-05-02T09:49:27.192Z</time></trkpt><trkpt lat="40.3666135" lon="9.5739959"><ele>37.0</ele><time>2026-05-02T09:49:28.193Z</time></trkpt><trkpt lat="40.3665248" lon="9.5737813"><ele>38.0</ele><time>2026-05-02T09:49:29.192Z</time></trkpt><trkpt lat="40.3664106" lon="9.5735827"><ele>39.0</ele><time>2026-05-02T09:49:30.193Z</time></trkpt><trkpt lat="40.3662766" lon="9.5734028"><ele>40.0</ele><time>2026-05-02T09:49:31.192Z</time></trkpt><trkpt lat="40.3661251" lon="9.5732401"><ele>40.0</ele><time>2026-05-02T09:49:32.192Z</time></trkpt><trkpt lat="40.3659572" lon="9.5730953"><ele>40.0</ele><time>2026-05-02T09:49:33.192Z</time></trkpt><trkpt lat="40.3657777" lon="9.5729513"><ele>40.0</ele><time>2026-05-02T09:49:34.193Z</time></trkpt><trkpt lat="40.3655939" lon="9.5728072"><ele>41.66666666666667</ele><time>2026-05-02T09:49:35.193Z</time></trkpt><trkpt lat="40.3654098" lon="9.5726623"><ele>43.333333333333336</ele><time>2026-05-02T09:49:36.192Z</time></trkpt><trkpt lat="40.3652326" lon="9.5725002"><ele>45.0</ele><time>2026-05-02T09:49:37.193Z</time></trkpt><trkpt lat="40.3650608" lon="9.5723206"><ele>45.0</ele><time>2026-05-02T09:49:38.193Z</time></trkpt><trkpt lat="40.3649002" lon="9.5721261"><ele>45.0</ele><time>2026-05-02T09:49:39.192Z</time></trkpt><trkpt lat="40.3647489" lon="9.5719282"><ele>45.0</ele><time>2026-05-02T09:49:40.193Z</time></trkpt><trkpt lat="40.3646096" lon="9.571749"><ele>47.66666666666667</ele><time>2026-05-02T09:49:41.192Z</time></trkpt><trkpt lat="40.3644616" lon="9.5716215"><ele>50.333333333333336</ele><time>2026-05-02T09:49:42.193Z</time></trkpt><trkpt lat="40.3642961" lon="9.5715497"><ele>53.0</ele><time>2026-05-02T09:49:43.192Z</time></trkpt><trkpt lat="40.3641119" lon="9.5715145"><ele>53.0</ele><time>2026-05-02T09:49:44.192Z</time></trkpt><trkpt lat="40.3639108" lon="9.5715011"><ele>53.0</ele><time>2026-05-02T09:49:45.193Z</time></trkpt><trkpt lat="40.36369" lon="9.5714968"><ele>53.0</ele><time>2026-05-02T09:49:46.193Z</time></trkpt><trkpt lat="40.3634536" lon="9.5714861"><ele>53.66666666666667</ele><time>2026-05-02T09:49:47.193Z</time></trkpt><trkpt lat="40.3632237" lon="9.5714851"><ele>54.33333333333333</ele><time>2026-05-02T09:49:48.192Z</time></trkpt><trkpt lat="40.3630078" lon="9.5715092"><ele>55.0</ele><time>2026-05-02T09:49:49.192Z</time></trkpt><trkpt lat="40.3627999" lon="9.5715698"><ele>57.666666666666664</ele><time>2026-05-02T09:49:50.192Z</time></trkpt><trkpt lat="40.362601" lon="9.5716398"><ele>60.33333333333333</ele><time>2026-05-02T09:49:51.193Z</time></trkpt><trkpt lat="40.3624021" lon="9.571688"><ele>63.0</ele><time>2026-05-02T09:49:52.192Z</time></trkpt><trkpt lat="40.3622006" lon="9.571703"><ele>66.0</ele><time>2026-05-02T09:49:53.193Z</time></trkpt><trkpt lat="40.3619955" lon="9.571726"><ele>69.0</ele><time>2026-05-02T09:49:54.192Z</time></trkpt><trkpt lat="40.3617782" lon="9.571768"><ele>72.0</ele><time>2026-05-02T09:49:55.192Z</time></trkpt><trkpt lat="40.3615576" lon="9.5718084"><ele>72.33333333333333</ele><time>2026-05-02T09:49:56.192Z</time></trkpt><trkpt lat="40.3613519" lon="9.5718312"><ele>72.66666666666666</ele><time>2026-05-02T09:49:57.192Z</time></trkpt><trkpt lat="40.3611573" lon="9.5718385"><ele>73.0</ele><time>2026-05-02T09:49:58.192Z</time></trkpt><trkpt lat="40.3609783" lon="9.5718199"><ele>73.0</ele><time>2026-05-02T09:49:59.193Z</time></trkpt><trkpt lat="40.3608089" lon="9.5717784"><ele>73.0</ele><time>2026-05-02T09:50:00.192Z</time></trkpt><trkpt lat="40.3606421" lon="9.5717174"><ele>73.0</ele><time>2026-05-02T09:50:01.192Z</time></trkpt><trkpt lat="40.360482" lon="9.5716408"><ele>72.33333333333333</ele><time>2026-05-02T09:50:02.193Z</time></trkpt><trkpt lat="40.3603215" lon="9.5715518"><ele>71.66666666666667</ele><time>2026-05-02T09:50:03.192Z</time></trkpt><trkpt lat="40.3601529" lon="9.5714619"><ele>71.0</ele><time>2026-05-02T09:50:04.193Z</time></trkpt><trkpt lat="40.359977" lon="9.5713693"><ele>71.0</ele><time>2026-05-02T09:50:05.192Z</time></trkpt><trkpt lat="40.3598056" lon="9.5712735"><ele>71.0</ele><time>2026-05-02T09:50:06.193Z</time></trkpt><trkpt lat="40.3596414" lon="9.5711833"><ele>71.0</ele><time>2026-05-02T09:50:07.193Z</time></trkpt><trkpt lat="40.3594906" lon="9.5710866"><ele>75.33333333333334</ele><time>2026-05-02T09:50:08.192Z</time></trkpt><trkpt lat="40.3593468" lon="9.5709787"><ele>79.66666666666667</ele><time>2026-05-02T09:50:09.192Z</time></trkpt><trkpt lat="40.3592079" lon="9.5708632"><ele>84.0</ele><time>2026-05-02T09:50:10.192Z</time></trkpt><trkpt lat="40.3590654" lon="9.5707434"><ele>84.0</ele><time>2026-05-02T09:50:11.192Z</time></trkpt><trkpt lat="40.3589153" lon="9.5706253"><ele>84.0</ele><time>2026-05-02T09:50:12.192Z</time></trkpt><trkpt lat="40.3587711" lon="9.5704986"><ele>84.0</ele><time>2026-05-02T09:50:13.192Z</time></trkpt><trkpt lat="40.3586302" lon="9.5703508"><ele>87.0</ele><time>2026-05-02T09:50:14.193Z</time></trkpt><trkpt lat="40.358498" lon="9.5701835"><ele>90.0</ele><time>2026-05-02T09:50:15.193Z</time></trkpt><trkpt lat="40.3583833" lon="9.5700143"><ele>93.0</ele><time>2026-05-02T09:50:16.193Z</time></trkpt><trkpt lat="40.3582894" lon="9.5698585"><ele>93.0</ele><time>2026-05-02T09:50:17.192Z</time></trkpt><trkpt lat="40.358215" lon="9.5697187"><ele>93.0</ele><time>2026-05-02T09:50:18.193Z</time></trkpt><trkpt lat="40.3581495" lon="9.5696024"><ele>93.0</ele><time>2026-05-02T09:50:19.192Z</time></trkpt><trkpt lat="40.3580778" lon="9.569518"><ele>93.0</ele><time>2026-05-02T09:50:20.192Z</time></trkpt><trkpt lat="40.3579929" lon="9.5694853"><ele>93.0</ele><time>2026-05-02T09:50:21.193Z</time></trkpt><trkpt lat="40.3578993" lon="9.5695184"><ele>93.75</ele><time>2026-05-02T09:50:22.193Z</time></trkpt><trkpt lat="40.357823" lon="9.569608"><ele>94.5</ele><time>2026-05-02T09:50:23.192Z</time></trkpt><trkpt lat="40.3577756" lon="9.5697484"><ele>95.25</ele><time>2026-05-02T09:50:24.193Z</time></trkpt><trkpt lat="40.3577503" lon="9.5699353"><ele>96.0</ele><time>2026-05-02T09:50:25.192Z</time></trkpt><trkpt lat="40.3577535" lon="9.5701364"><ele>96.0</ele><time>2026-05-02T09:50:26.192Z</time></trkpt><trkpt lat="40.3577947" lon="9.5703101"><ele>96.0</ele><time>2026-05-02T09:50:27.192Z</time></trkpt><trkpt lat="40.3578643" lon="9.5704486"><ele>96.0</ele><time>2026-05-02T09:50:28.192Z</time></trkpt><trkpt lat="40.3579301" lon="9.570561"><ele>96.0</ele><time>2026-05-02T09:50:29.192Z</time></trkpt><trkpt lat="40.3579455" lon="9.5706706"><ele>94.83333333333333</ele><time>2026-05-02T09:50:30.192Z</time></trkpt><trkpt lat="40.3579188" lon="9.5707666"><ele>93.66666666666667</ele><time>2026-05-02T09:50:31.193Z</time></trkpt><trkpt lat="40.3578598" lon="9.5708213"><ele>92.5</ele><time>2026-05-02T09:50:32.192Z</time></trkpt><trkpt lat="40.3577835" lon="9.5708087"><ele>91.33333333333334</ele><time>2026-05-02T09:50:33.193Z</time></trkpt><trkpt lat="40.3577313" lon="9.5707327"><ele>90.16666666666667</ele><time>2026-05-02T09:50:34.192Z</time></trkpt><trkpt lat="40.3576933" lon="9.5706159"><ele>89.0</ele><time>2026-05-02T09:50:35.192Z</time></trkpt><trkpt lat="40.3576424" lon="9.5704462"><ele>91.33333333333334</ele><time>2026-05-02T09:50:36.192Z</time></trkpt><trkpt lat="40.3575837" lon="9.5702476"><ele>93.66666666666667</ele><time>2026-05-02T09:50:37.193Z</time></trkpt><trkpt lat="40.3575574" lon="9.5700307"><ele>96.0</ele><time>2026-05-02T09:50:38.192Z</time></trkpt><trkpt lat="40.357552" lon="9.5697786"><ele>99.66666666666666</ele><time>2026-05-02T09:50:39.192Z</time></trkpt><trkpt lat="40.357549" lon="9.5695048"><ele>103.33333333333333</ele><time>2026-05-02T09:50:40.192Z</time></trkpt><trkpt lat="40.3575504" lon="9.5692679"><ele>107.0</ele><time>2026-05-02T09:50:41.192Z</time></trkpt><trkpt lat="40.3575844" lon="9.5690644"><ele>107.0</ele><time>2026-05-02T09:50:42.192Z</time></trkpt><trkpt lat="40.3576453" lon="9.5688821"><ele>107.0</ele><time>2026-05-02T09:50:43.193Z</time></trkpt><trkpt lat="40.3576956" lon="9.5687219"><ele>107.0</ele><time>2026-05-02T09:50:44.192Z</time></trkpt><trkpt lat="40.357716" lon="9.5685797"><ele>107.0</ele><time>2026-05-02T09:50:45.193Z</time></trkpt><trkpt lat="40.3576904" lon="9.5684532"><ele>107.0</ele><time>2026-05-02T09:50:46.193Z</time></trkpt><trkpt lat="40.3576248" lon="9.568379"><ele>106.99999999999999</ele><time>2026-05-02T09:50:47.193Z</time></trkpt><trkpt lat="40.3575462" lon="9.5683867"><ele>106.99999999999999</ele><time>2026-05-02T09:50:48.192Z</time></trkpt><trkpt lat="40.3574723" lon="9.5684676"><ele>107.0</ele><time>2026-05-02T09:50:49.192Z</time></trkpt><trkpt lat="40.3574276" lon="9.5686089"><ele>107.0</ele><time>2026-05-02T09:50:50.193Z</time></trkpt><trkpt lat="40.3574068" lon="9.5687996"><ele>107.0</ele><time>2026-05-02T09:50:51.193Z</time></trkpt><trkpt lat="40.3573926" lon="9.5690261"><ele>107.0</ele><time>2026-05-02T09:50:52.193Z</time></trkpt><trkpt lat="40.3573672" lon="9.5692035"><ele>107.0</ele><time>2026-05-02T09:50:53.193Z</time></trkpt><trkpt lat="40.3573423" lon="9.5693531"><ele>107.0</ele><time>2026-05-02T09:50:54.193Z</time></trkpt><trkpt lat="40.3572874" lon="9.5694413"><ele>106.99999999999999</ele><time>2026-05-02T09:50:55.192Z</time></trkpt><trkpt lat="40.3572158" lon="9.5694815"><ele>107.0</ele><time>2026-05-02T09:50:56.193Z</time></trkpt><trkpt lat="40.3571451" lon="9.5694549"><ele>107.0</ele><time>2026-05-02T09:50:57.192Z</time></trkpt><trkpt lat="40.3571081" lon="9.569377"><ele>107.0</ele><time>2026-05-02T09:50:58.192Z</time></trkpt><trkpt lat="40.3571067" lon="9.5692677"><ele>106.99999999999999</ele><time>2026-05-02T09:50:59.193Z</time></trkpt><trkpt lat="40.3571328" lon="9.5691183"><ele>107.0</ele><time>2026-05-02T09:51:00.193Z</time></trkpt><trkpt lat="40.3571736" lon="9.5689218"><ele>108.66666666666666</ele><time>2026-05-02T09:51:01.192Z</time></trkpt><trkpt lat="40.3572282" lon="9.5686922"><ele>110.33333333333334</ele><time>2026-05-02T09:51:02.192Z</time></trkpt><trkpt lat="40.3572982" lon="9.56844"><ele>112.0</ele><time>2026-05-02T09:51:03.192Z</time></trkpt><trkpt lat="40.3573869" lon="9.5681802"><ele>112.0</ele><time>2026-05-02T09:51:04.192Z</time></trkpt><trkpt lat="40.3574583" lon="9.5679427"><ele>112.0</ele><time>2026-05-02T09:51:05.193Z</time></trkpt><trkpt lat="40.3575088" lon="9.5676973"><ele>112.0</ele><time>2026-05-02T09:51:06.193Z</time></trkpt><trkpt lat="40.3575441" lon="9.5674581"><ele>116.0</ele><time>2026-05-02T09:51:07.192Z</time></trkpt><trkpt lat="40.3575536" lon="9.5672239"><ele>120.0</ele><time>2026-05-02T09:51:08.193Z</time></trkpt><trkpt lat="40.3575393" lon="9.5669914"><ele>124.0</ele><time>2026-05-02T09:51:09.193Z</time></trkpt><trkpt lat="40.3575087" lon="9.5667611"><ele>126.0</ele><time>2026-05-02T09:51:10.192Z</time></trkpt><trkpt lat="40.3574586" lon="9.5665239"><ele>128.0</ele><time>2026-05-02T09:51:11.192Z</time></trkpt><trkpt lat="40.3573996" lon="9.5662743"><ele>130.0</ele><time>2026-05-02T09:51:12.192Z</time></trkpt><trkpt lat="40.3573305" lon="9.5660201"><ele>131.0</ele><time>2026-05-02T09:51:13.192Z</time></trkpt><trkpt lat="40.3572498" lon="9.5657644"><ele>132.0</ele><time>2026-05-02T09:51:14.193Z</time></trkpt><trkpt lat="40.3571601" lon="9.5655001"><ele>133.0</ele><time>2026-05-02T09:51:15.193Z</time></trkpt><trkpt lat="40.3570627" lon="9.565222"><ele>141.5</ele><time>2026-05-02T09:51:16.193Z</time></trkpt><trkpt lat="40.3569674" lon="9.5649402"><ele>150.0</ele><time>2026-05-02T09:51:17.192Z</time></trkpt><trkpt lat="40.3568751" lon="9.5646654"><ele>149.0</ele><time>2026-05-02T09:51:18.192Z</time></trkpt><trkpt lat="40.3567796" lon="9.5643988"><ele>148.0</ele><time>2026-05-02T09:51:19.193Z</time></trkpt><trkpt lat="40.356669" lon="9.5641324"><ele>148.0</ele><time>2026-05-02T09:51:20.193Z</time></trkpt><trkpt lat="40.3565482" lon="9.5638703"><ele>148.0</ele><time>2026-05-02T09:51:21.192Z</time></trkpt><trkpt lat="40.3564285" lon="9.563619"><ele>151.66666666666669</ele><time>2026-05-02T09:51:22.192Z</time></trkpt><trkpt lat="40.3563189" lon="9.5633914"><ele>155.33333333333334</ele><time>2026-05-02T09:51:23.192Z</time></trkpt><trkpt lat="40.3562171" lon="9.5631848"><ele>159.0</ele><time>2026-05-02T09:51:24.192Z</time></trkpt><trkpt lat="40.3561084" lon="9.5630007"><ele>157.0</ele><time>2026-05-02T09:51:25.192Z</time></trkpt><trkpt lat="40.3559659" lon="9.5628494"><ele>155.0</ele><time>2026-05-02T09:51:26.192Z</time></trkpt><trkpt lat="40.3558054" lon="9.5627227"><ele>153.0</ele><time>2026-05-02T09:51:27.192Z</time></trkpt><trkpt lat="40.3556342" lon="9.5626182"><ele>156.33333333333334</ele><time>2026-05-02T09:51:28.193Z</time></trkpt><trkpt lat="40.3554831" lon="9.5625131"><ele>159.66666666666669</ele><time>2026-05-02T09:51:29.193Z</time></trkpt><trkpt lat="40.3553594" lon="9.5623784"><ele>163.0</ele><time>2026-05-02T09:51:30.192Z</time></trkpt><trkpt lat="40.3552714" lon="9.5622112"><ele>161.66666666666669</ele><time>2026-05-02T09:51:31.193Z</time></trkpt><trkpt lat="40.3552199" lon="9.5620128"><ele>160.33333333333334</ele><time>2026-05-02T09:51:32.193Z</time></trkpt><trkpt lat="40.3551832" lon="9.5617826"><ele>159.0</ele><time>2026-05-02T09:51:33.193Z</time></trkpt><trkpt lat="40.3551337" lon="9.5615316"><ele>159.0</ele><time>2026-05-02T09:51:34.193Z</time></trkpt><trkpt lat="40.3550694" lon="9.5612649"><ele>159.0</ele><time>2026-05-02T09:51:35.192Z</time></trkpt><trkpt lat="40.3549972" lon="9.5609786"><ele>159.0</ele><time>2026-05-02T09:51:36.193Z</time></trkpt><trkpt lat="40.3549154" lon="9.5606919"><ele>159.5</ele><time>2026-05-02T09:51:37.192Z</time></trkpt><trkpt lat="40.3548295" lon="9.5604078"><ele>160.0</ele><time>2026-05-02T09:51:38.193Z</time></trkpt><trkpt lat="40.3547336" lon="9.5601194"><ele>160.0</ele><time>2026-05-02T09:51:39.192Z</time></trkpt><trkpt lat="40.3546248" lon="9.5598234"><ele>160.0</ele><time>2026-05-02T09:51:40.189Z</time></trkpt><trkpt lat="40.3545099" lon="9.5595276"><ele>160.0</ele><time>2026-05-02T09:51:41.192Z</time></trkpt><trkpt lat="40.354394" lon="9.559251"><ele>160.0</ele><time>2026-05-02T09:51:42.192Z</time></trkpt><trkpt lat="40.3542826" lon="9.5589877"><ele>160.0</ele><time>2026-05-02T09:51:43.193Z</time></trkpt><trkpt lat="40.3541777" lon="9.5587387"><ele>160.0</ele><time>2026-05-02T09:51:44.192Z</time></trkpt><trkpt lat="40.3540815" lon="9.5585053"><ele>160.0</ele><time>2026-05-02T09:51:45.192Z</time></trkpt><trkpt lat="40.3539949" lon="9.5582884"><ele>160.33333333333334</ele><time>2026-05-02T09:51:46.192Z</time></trkpt><trkpt lat="40.3539412" lon="9.5580811"><ele>160.66666666666666</ele><time>2026-05-02T09:51:47.193Z</time></trkpt><trkpt lat="40.3539241" lon="9.5578769"><ele>161.0</ele><time>2026-05-02T09:51:48.192Z</time></trkpt><trkpt lat="40.35395" lon="9.5576724"><ele>161.0</ele><time>2026-05-02T09:51:49.192Z</time></trkpt><trkpt lat="40.3540015" lon="9.5574748"><ele>161.0</ele><time>2026-05-02T09:51:50.193Z</time></trkpt><trkpt lat="40.3540604" lon="9.5572437"><ele>161.0</ele><time>2026-05-02T09:51:51.192Z</time></trkpt><trkpt lat="40.3541227" lon="9.5569887"><ele>162.0</ele><time>2026-05-02T09:51:52.193Z</time></trkpt><trkpt lat="40.3541848" lon="9.5567418"><ele>163.0</ele><time>2026-05-02T09:51:53.193Z</time></trkpt><trkpt lat="40.3542386" lon="9.5565136"><ele>164.0</ele><time>2026-05-02T09:51:54.192Z</time></trkpt><trkpt lat="40.3542789" lon="9.556297"><ele>164.0</ele><time>2026-05-02T09:51:55.192Z</time></trkpt><trkpt lat="40.3542818" lon="9.5560847"><ele>164.0</ele><time>2026-05-02T09:51:56.192Z</time></trkpt><trkpt lat="40.35425" lon="9.5558616"><ele>164.0</ele><time>2026-05-02T09:51:57.192Z</time></trkpt><trkpt lat="40.3541948" lon="9.5556258"><ele>164.0</ele><time>2026-05-02T09:51:58.193Z</time></trkpt><trkpt lat="40.3541173" lon="9.5553907"><ele>164.0</ele><time>2026-05-02T09:51:59.192Z</time></trkpt><trkpt lat="40.3540065" lon="9.5551694"><ele>164.0</ele><time>2026-05-02T09:52:00.193Z</time></trkpt><trkpt lat="40.3538611" lon="9.5549495"><ele>165.33333333333331</ele><time>2026-05-02T09:52:01.192Z</time></trkpt><trkpt lat="40.3537079" lon="9.5547289"><ele>166.66666666666666</ele><time>2026-05-02T09:52:02.193Z</time></trkpt><trkpt lat="40.3535705" lon="9.55452"><ele>168.0</ele><time>2026-05-02T09:52:03.192Z</time></trkpt><trkpt lat="40.3534531" lon="9.5543174"><ele>168.33333333333334</ele><time>2026-05-02T09:52:04.192Z</time></trkpt><trkpt lat="40.3533732" lon="9.5541071"><ele>168.66666666666669</ele><time>2026-05-02T09:52:05.192Z</time></trkpt><trkpt lat="40.3533318" lon="9.5538831"><ele>169.0</ele><time>2026-05-02T09:52:06.191Z</time></trkpt><trkpt lat="40.3533349" lon="9.5536443"><ele>170.33333333333334</ele><time>2026-05-02T09:52:07.192Z</time></trkpt><trkpt lat="40.3533762" lon="9.5534103"><ele>171.66666666666666</ele><time>2026-05-02T09:52:08.193Z</time></trkpt><trkpt lat="40.3534187" lon="9.5531727"><ele>173.0</ele><time>2026-05-02T09:52:09.193Z</time></trkpt><trkpt lat="40.3534021" lon="9.5529246"><ele>174.0</ele><time>2026-05-02T09:52:10.192Z</time></trkpt><trkpt lat="40.3533597" lon="9.552651"><ele>175.0</ele><time>2026-05-02T09:52:11.192Z</time></trkpt><trkpt lat="40.3533052" lon="9.5523565"><ele>176.0</ele><time>2026-05-02T09:52:12.193Z</time></trkpt><trkpt lat="40.3532401" lon="9.5520425"><ele>177.5</ele><time>2026-05-02T09:52:13.191Z</time></trkpt><trkpt lat="40.3531759" lon="9.551734"><ele>179.0</ele><time>2026-05-02T09:52:14.193Z</time></trkpt><trkpt lat="40.3531189" lon="9.5514484"><ele>179.66666666666666</ele><time>2026-05-02T09:52:15.193Z</time></trkpt><trkpt lat="40.353064" lon="9.5511795"><ele>180.33333333333334</ele><time>2026-05-02T09:52:16.192Z</time></trkpt><trkpt lat="40.3530127" lon="9.5509227"><ele>181.0</ele><time>2026-05-02T09:52:17.193Z</time></trkpt><trkpt lat="40.3529623" lon="9.5506636"><ele>181.33333333333334</ele><time>2026-05-02T09:52:18.191Z</time></trkpt><trkpt lat="40.3529113" lon="9.5504071"><ele>181.66666666666666</ele><time>2026-05-02T09:52:19.192Z</time></trkpt><trkpt lat="40.3528608" lon="9.5501468"><ele>182.0</ele><time>2026-05-02T09:52:20.189Z</time></trkpt><trkpt lat="40.3528091" lon="9.549878"><ele>182.33333333333331</ele><time>2026-05-02T09:52:21.192Z</time></trkpt><trkpt lat="40.3527558" lon="9.5496021"><ele>182.66666666666666</ele><time>2026-05-02T09:52:22.192Z</time></trkpt><trkpt lat="40.3527001" lon="9.5493206"><ele>183.0</ele><time>2026-05-02T09:52:23.192Z</time></trkpt><trkpt lat="40.3526449" lon="9.549033"><ele>183.0</ele><time>2026-05-02T09:52:24.192Z</time></trkpt><trkpt lat="40.3525872" lon="9.5487377"><ele>183.0</ele><time>2026-05-02T09:52:25.193Z</time></trkpt><trkpt lat="40.3525269" lon="9.5484393"><ele>183.0</ele><time>2026-05-02T09:52:26.192Z</time></trkpt><trkpt lat="40.352464" lon="9.5481364"><ele>183.0</ele><time>2026-05-02T09:52:27.192Z</time></trkpt><trkpt lat="40.3524024" lon="9.5478316"><ele>183.5</ele><time>2026-05-02T09:52:28.192Z</time></trkpt><trkpt lat="40.3523406" lon="9.547522"><ele>184.0</ele><time>2026-05-02T09:52:29.192Z</time></trkpt><trkpt lat="40.3522786" lon="9.5472005"><ele>184.5</ele><time>2026-05-02T09:52:30.192Z</time></trkpt><trkpt lat="40.3522158" lon="9.5468734"><ele>185.0</ele><time>2026-05-02T09:52:31.193Z</time></trkpt><trkpt lat="40.352152" lon="9.5465402"><ele>184.5</ele><time>2026-05-02T09:52:32.192Z</time></trkpt><trkpt lat="40.3520878" lon="9.5461999"><ele>184.0</ele><time>2026-05-02T09:52:33.193Z</time></trkpt><trkpt lat="40.3520222" lon="9.5458607"><ele>184.0</ele><time>2026-05-02T09:52:34.192Z</time></trkpt><trkpt lat="40.3519593" lon="9.5455423"><ele>184.0</ele><time>2026-05-02T09:52:35.192Z</time></trkpt><trkpt lat="40.3518977" lon="9.5452399"><ele>185.0</ele><time>2026-05-02T09:52:36.192Z</time></trkpt><trkpt lat="40.351841" lon="9.5449515"><ele>186.0</ele><time>2026-05-02T09:52:37.191Z</time></trkpt><trkpt lat="40.3517804" lon="9.5446587"><ele>186.0</ele><time>2026-05-02T09:52:38.192Z</time></trkpt><trkpt lat="40.3517215" lon="9.5443671"><ele>186.0</ele><time>2026-05-02T09:52:39.192Z</time></trkpt><trkpt lat="40.3516637" lon="9.5440767"><ele>186.0</ele><time>2026-05-02T09:52:40.193Z</time></trkpt><trkpt lat="40.3516052" lon="9.5437868"><ele>186.0</ele><time>2026-05-02T09:52:41.193Z</time></trkpt><trkpt lat="40.351546" lon="9.5434918"><ele>185.0</ele><time>2026-05-02T09:52:42.192Z</time></trkpt><trkpt lat="40.3514868" lon="9.5431948"><ele>184.0</ele><time>2026-05-02T09:52:43.193Z</time></trkpt><trkpt lat="40.3514297" lon="9.5428925"><ele>184.5</ele><time>2026-05-02T09:52:44.192Z</time></trkpt><trkpt lat="40.3513708" lon="9.5425886"><ele>185.0</ele><time>2026-05-02T09:52:45.193Z</time></trkpt><trkpt lat="40.3513118" lon="9.542281"><ele>184.5</ele><time>2026-05-02T09:52:46.192Z</time></trkpt><trkpt lat="40.3512526" lon="9.5419695"><ele>184.0</ele><time>2026-05-02T09:52:47.193Z</time></trkpt><trkpt lat="40.3511916" lon="9.5416537"><ele>184.0</ele><time>2026-05-02T09:52:48.192Z</time></trkpt><trkpt lat="40.351128" lon="9.5413351"><ele>184.0</ele><time>2026-05-02T09:52:49.192Z</time></trkpt><trkpt lat="40.3510628" lon="9.5410113"><ele>184.0</ele><time>2026-05-02T09:52:50.193Z</time></trkpt><trkpt lat="40.3509958" lon="9.5406875"><ele>184.0</ele><time>2026-05-02T09:52:51.193Z</time></trkpt><trkpt lat="40.3509281" lon="9.5403605"><ele>184.0</ele><time>2026-05-02T09:52:52.191Z</time></trkpt><trkpt lat="40.3508639" lon="9.5400332"><ele>184.0</ele><time>2026-05-02T09:52:53.191Z</time></trkpt><trkpt lat="40.3508014" lon="9.5397028"><ele>184.0</ele><time>2026-05-02T09:52:54.193Z</time></trkpt><trkpt lat="40.3507368" lon="9.5393792"><ele>184.0</ele><time>2026-05-02T09:52:55.192Z</time></trkpt><trkpt lat="40.3506732" lon="9.5390676"><ele>184.0</ele><time>2026-05-02T09:52:56.193Z</time></trkpt><trkpt lat="40.3506131" lon="9.5387712"><ele>184.0</ele><time>2026-05-02T09:52:57.192Z</time></trkpt><trkpt lat="40.3505655" lon="9.5384914"><ele>183.33333333333334</ele><time>2026-05-02T09:52:58.192Z</time></trkpt><trkpt lat="40.3505337" lon="9.5382181"><ele>182.66666666666666</ele><time>2026-05-02T09:52:59.193Z</time></trkpt><trkpt lat="40.3505182" lon="9.5379414"><ele>182.0</ele><time>2026-05-02T09:53:00.193Z</time></trkpt><trkpt lat="40.3505214" lon="9.5376594"><ele>181.66666666666666</ele><time>2026-05-02T09:53:01.193Z</time></trkpt><trkpt lat="40.3505395" lon="9.5373765"><ele>181.33333333333334</ele><time>2026-05-02T09:53:02.193Z</time></trkpt><trkpt lat="40.3505731" lon="9.5371078"><ele>181.0</ele><time>2026-05-02T09:53:03.193Z</time></trkpt><trkpt lat="40.3506096" lon="9.5368621"><ele>180.66666666666669</ele><time>2026-05-02T09:53:04.193Z</time></trkpt><trkpt lat="40.3506191" lon="9.536629"><ele>180.33333333333334</ele><time>2026-05-02T09:53:05.193Z</time></trkpt><trkpt lat="40.3505856" lon="9.5363978"><ele>180.0</ele><time>2026-05-02T09:53:06.192Z</time></trkpt><trkpt lat="40.3505177" lon="9.5361716"><ele>180.0</ele><time>2026-05-02T09:53:07.193Z</time></trkpt><trkpt lat="40.3504312" lon="9.535948"><ele>180.0</ele><time>2026-05-02T09:53:08.192Z</time></trkpt><trkpt lat="40.3503451" lon="9.5357136"><ele>180.0</ele><time>2026-05-02T09:53:09.192Z</time></trkpt><trkpt lat="40.3502811" lon="9.5354513"><ele>181.0</ele><time>2026-05-02T09:53:10.192Z</time></trkpt><trkpt lat="40.350238" lon="9.5351704"><ele>182.0</ele><time>2026-05-02T09:53:11.192Z</time></trkpt><trkpt lat="40.3502016" lon="9.5348626"><ele>182.5</ele><time>2026-05-02T09:53:12.193Z</time></trkpt><trkpt lat="40.3501638" lon="9.534544"><ele>183.0</ele><time>2026-05-02T09:53:13.192Z</time></trkpt><trkpt lat="40.350129" lon="9.5342313"><ele>183.0</ele><time>2026-05-02T09:53:14.192Z</time></trkpt><trkpt lat="40.3500951" lon="9.5339237"><ele>183.0</ele><time>2026-05-02T09:53:15.192Z</time></trkpt><trkpt lat="40.3500637" lon="9.5336318"><ele>183.0</ele><time>2026-05-02T09:53:16.193Z</time></trkpt><trkpt lat="40.3500319" lon="9.5333388"><ele>183.0</ele><time>2026-05-02T09:53:17.192Z</time></trkpt><trkpt lat="40.3499995" lon="9.5330372"><ele>183.0</ele><time>2026-05-02T09:53:18.193Z</time></trkpt><trkpt lat="40.3499654" lon="9.5327243"><ele>183.0</ele><time>2026-05-02T09:53:19.192Z</time></trkpt><trkpt lat="40.3499295" lon="9.5324027"><ele>183.0</ele><time>2026-05-02T09:53:20.193Z</time></trkpt><trkpt lat="40.3498942" lon="9.5320704"><ele>183.0</ele><time>2026-05-02T09:53:21.192Z</time></trkpt><trkpt lat="40.3498555" lon="9.5317289"><ele>182.0</ele><time>2026-05-02T09:53:22.192Z</time></trkpt><trkpt lat="40.3498179" lon="9.5313871"><ele>181.0</ele><time>2026-05-02T09:53:23.192Z</time></trkpt><trkpt lat="40.3497799" lon="9.5310457"><ele>180.5</ele><time>2026-05-02T09:53:24.192Z</time></trkpt><trkpt lat="40.3497432" lon="9.5307049"><ele>180.0</ele><time>2026-05-02T09:53:25.193Z</time></trkpt><trkpt lat="40.3497045" lon="9.5303606"><ele>180.0</ele><time>2026-05-02T09:53:26.193Z</time></trkpt><trkpt lat="40.3496693" lon="9.5300252"><ele>180.0</ele><time>2026-05-02T09:53:27.192Z</time></trkpt><trkpt lat="40.3496329" lon="9.5297052"><ele>180.5</ele><time>2026-05-02T09:53:28.193Z</time></trkpt><trkpt lat="40.3495994" lon="9.5293995"><ele>181.0</ele><time>2026-05-02T09:53:29.192Z</time></trkpt><trkpt lat="40.3495666" lon="9.5291194"><ele>181.0</ele><time>2026-05-02T09:53:30.192Z</time></trkpt><trkpt lat="40.3495377" lon="9.5288548"><ele>181.0</ele><time>2026-05-02T09:53:31.193Z</time></trkpt><trkpt lat="40.3495132" lon="9.5286056"><ele>181.0</ele><time>2026-05-02T09:53:32.192Z</time></trkpt><trkpt lat="40.3495025" lon="9.5283653"><ele>180.66666666666669</ele><time>2026-05-02T09:53:33.193Z</time></trkpt><trkpt lat="40.3495133" lon="9.5281219"><ele>180.33333333333334</ele><time>2026-05-02T09:53:34.193Z</time></trkpt><trkpt lat="40.3495528" lon="9.5278749"><ele>180.0</ele><time>2026-05-02T09:53:35.193Z</time></trkpt><trkpt lat="40.3496159" lon="9.5276162"><ele>180.0</ele><time>2026-05-02T09:53:36.191Z</time></trkpt><trkpt lat="40.349693" lon="9.527346"><ele>180.0</ele><time>2026-05-02T09:53:37.193Z</time></trkpt><trkpt lat="40.3497735" lon="9.5270691"><ele>180.0</ele><time>2026-05-02T09:53:38.193Z</time></trkpt><trkpt lat="40.3498568" lon="9.5267848"><ele>176.5</ele><time>2026-05-02T09:53:39.192Z</time></trkpt><trkpt lat="40.3499372" lon="9.5264981"><ele>173.0</ele><time>2026-05-02T09:53:40.192Z</time></trkpt><trkpt lat="40.35002" lon="9.5262025"><ele>173.0</ele><time>2026-05-02T09:53:41.192Z</time></trkpt><trkpt lat="40.350108" lon="9.5258968"><ele>173.0</ele><time>2026-05-02T09:53:42.193Z</time></trkpt><trkpt lat="40.3501948" lon="9.5255982"><ele>175.5</ele><time>2026-05-02T09:53:43.193Z</time></trkpt><trkpt lat="40.3502785" lon="9.5253109"><ele>178.0</ele><time>2026-05-02T09:53:44.192Z</time></trkpt><trkpt lat="40.3503635" lon="9.5250222"><ele>178.0</ele><time>2026-05-02T09:53:45.193Z</time></trkpt><trkpt lat="40.3504447" lon="9.5247351"><ele>178.0</ele><time>2026-05-02T09:53:46.192Z</time></trkpt><trkpt lat="40.3505288" lon="9.5244512"><ele>177.0</ele><time>2026-05-02T09:53:47.192Z</time></trkpt><trkpt lat="40.3506055" lon="9.5241743"><ele>176.0</ele><time>2026-05-02T09:53:48.191Z</time></trkpt><trkpt lat="40.350679" lon="9.5239167"><ele>175.0</ele><time>2026-05-02T09:53:49.193Z</time></trkpt><trkpt lat="40.3507468" lon="9.5236797"><ele>175.0</ele><time>2026-05-02T09:53:50.19Z</time></trkpt><trkpt lat="40.3507921" lon="9.5234689"><ele>175.0</ele><time>2026-05-02T09:53:51.193Z</time></trkpt><trkpt lat="40.3508058" lon="9.5232741"><ele>175.0</ele><time>2026-05-02T09:53:52.193Z</time></trkpt><trkpt lat="40.3507695" lon="9.5231018"><ele>175.0</ele><time>2026-05-02T09:53:53.192Z</time></trkpt><trkpt lat="40.3506897" lon="9.5229494"><ele>175.0</ele><time>2026-05-02T09:53:54.193Z</time></trkpt><trkpt lat="40.3505798" lon="9.5227947"><ele>175.0</ele><time>2026-05-02T09:53:55.191Z</time></trkpt><trkpt lat="40.3504643" lon="9.5226397"><ele>175.75</ele><time>2026-05-02T09:53:56.192Z</time></trkpt><trkpt lat="40.3503935" lon="9.5224728"><ele>176.5</ele><time>2026-05-02T09:53:57.192Z</time></trkpt><trkpt lat="40.3503484" lon="9.5222923"><ele>177.25</ele><time>2026-05-02T09:53:58.193Z</time></trkpt><trkpt lat="40.3503339" lon="9.5220984"><ele>178.0</ele><time>2026-05-02T09:53:59.192Z</time></trkpt><trkpt lat="40.3503541" lon="9.5218933"><ele>178.66666666666669</ele><time>2026-05-02T09:54:00.193Z</time></trkpt><trkpt lat="40.3503931" lon="9.5216586"><ele>179.33333333333334</ele><time>2026-05-02T09:54:01.192Z</time></trkpt><trkpt lat="40.3504355" lon="9.5213915"><ele>180.0</ele><time>2026-05-02T09:54:02.191Z</time></trkpt><trkpt lat="40.3504598" lon="9.5211188"><ele>179.66666666666666</ele><time>2026-05-02T09:54:03.192Z</time></trkpt><trkpt lat="40.350459" lon="9.5208454"><ele>179.33333333333331</ele><time>2026-05-02T09:54:04.193Z</time></trkpt><trkpt lat="40.350436" lon="9.5205649"><ele>179.0</ele><time>2026-05-02T09:54:05.193Z</time></trkpt><trkpt lat="40.3504078" lon="9.5202759"><ele>179.0</ele><time>2026-05-02T09:54:06.193Z</time></trkpt><trkpt lat="40.3503763" lon="9.5199771"><ele>179.0</ele><time>2026-05-02T09:54:07.193Z</time></trkpt><trkpt lat="40.3503454" lon="9.5196685"><ele>179.5</ele><time>2026-05-02T09:54:08.193Z</time></trkpt><trkpt lat="40.3503151" lon="9.5193531"><ele>180.0</ele><time>2026-05-02T09:54:09.193Z</time></trkpt><trkpt lat="40.3502874" lon="9.5190327"><ele>179.5</ele><time>2026-05-02T09:54:10.19Z</time></trkpt><trkpt lat="40.3502518" lon="9.5187126"><ele>179.0</ele><time>2026-05-02T09:54:11.192Z</time></trkpt><trkpt lat="40.3501952" lon="9.5183957"><ele>179.0</ele><time>2026-05-02T09:54:12.192Z</time></trkpt><trkpt lat="40.3501096" lon="9.5181001"><ele>179.0</ele><time>2026-05-02T09:54:13.192Z</time></trkpt><trkpt lat="40.3499973" lon="9.5178229"><ele>179.0</ele><time>2026-05-02T09:54:14.192Z</time></trkpt><trkpt lat="40.3498738" lon="9.5175493"><ele>179.0</ele><time>2026-05-02T09:54:15.193Z</time></trkpt><trkpt lat="40.349757" lon="9.5172721"><ele>181.5</ele><time>2026-05-02T09:54:16.192Z</time></trkpt><trkpt lat="40.349638" lon="9.5169939"><ele>184.0</ele><time>2026-05-02T09:54:17.192Z</time></trkpt><trkpt lat="40.3495175" lon="9.5167171"><ele>184.0</ele><time>2026-05-02T09:54:18.19Z</time></trkpt><trkpt lat="40.3493993" lon="9.5164372"><ele>184.0</ele><time>2026-05-02T09:54:19.192Z</time></trkpt><trkpt lat="40.3492804" lon="9.516158"><ele>181.5</ele><time>2026-05-02T09:54:20.19Z</time></trkpt><trkpt lat="40.3491608" lon="9.5158796"><ele>179.0</ele><time>2026-05-02T09:54:21.19Z</time></trkpt><trkpt lat="40.3490418" lon="9.5156003"><ele>179.0</ele><time>2026-05-02T09:54:22.192Z</time></trkpt><trkpt lat="40.3489227" lon="9.5153222"><ele>179.0</ele><time>2026-05-02T09:54:23.191Z</time></trkpt><trkpt lat="40.3488049" lon="9.515046"><ele>182.0</ele><time>2026-05-02T09:54:24.192Z</time></trkpt><trkpt lat="40.3485752" lon="9.5145367"><ele>182.0</ele><time>2026-05-02T09:54:26.057Z</time></trkpt><trkpt lat="40.3484483" lon="9.5142227"><ele>182.0</ele><time>2026-05-02T09:54:27.181Z</time></trkpt><trkpt lat="40.3483269" lon="9.5139426"><ele>181.5</ele><time>2026-05-02T09:54:28.18Z</time></trkpt><trkpt lat="40.3482077" lon="9.5136714"><ele>181.0</ele><time>2026-05-02T09:54:29.18Z</time></trkpt><trkpt lat="40.3480946" lon="9.5133968"><ele>184.5</ele><time>2026-05-02T09:54:30.181Z</time></trkpt><trkpt lat="40.3479873" lon="9.5131228"><ele>188.0</ele><time>2026-05-02T09:54:31.18Z</time></trkpt><trkpt lat="40.3478937" lon="9.5128374"><ele>188.0</ele><time>2026-05-02T09:54:32.181Z</time></trkpt><trkpt lat="40.3478109" lon="9.5125536"><ele>188.0</ele><time>2026-05-02T09:54:33.181Z</time></trkpt><trkpt lat="40.3477441" lon="9.5122654"><ele>186.5</ele><time>2026-05-02T09:54:34.181Z</time></trkpt><trkpt lat="40.3476862" lon="9.5119695"><ele>185.0</ele><time>2026-05-02T09:54:35.181Z</time></trkpt><trkpt lat="40.3476299" lon="9.5116642"><ele>185.0</ele><time>2026-05-02T09:54:36.18Z</time></trkpt><trkpt lat="40.3475716" lon="9.5113536"><ele>185.0</ele><time>2026-05-02T09:54:37.181Z</time></trkpt><trkpt lat="40.3475135" lon="9.5110454"><ele>183.0</ele><time>2026-05-02T09:54:38.181Z</time></trkpt><trkpt lat="40.3474597" lon="9.5107519"><ele>181.0</ele><time>2026-05-02T09:54:39.181Z</time></trkpt><trkpt lat="40.3474065" lon="9.5104653"><ele>180.66666666666669</ele><time>2026-05-02T09:54:40.181Z</time></trkpt><trkpt lat="40.3473557" lon="9.5101939"><ele>180.33333333333334</ele><time>2026-05-02T09:54:41.18Z</time></trkpt><trkpt lat="40.347289" lon="9.509941"><ele>180.0</ele><time>2026-05-02T09:54:42.18Z</time></trkpt><trkpt lat="40.3472073" lon="9.5097267"><ele>179.5</ele><time>2026-05-02T09:54:43.181Z</time></trkpt><trkpt lat="40.3471155" lon="9.5095486"><ele>179.0</ele><time>2026-05-02T09:54:44.181Z</time></trkpt><trkpt lat="40.3470257" lon="9.5094018"><ele>178.5</ele><time>2026-05-02T09:54:45.181Z</time></trkpt><trkpt lat="40.3469402" lon="9.5092714"><ele>178.0</ele><time>2026-05-02T09:54:46.181Z</time></trkpt><trkpt lat="40.346871" lon="9.5091469"><ele>178.0</ele><time>2026-05-02T09:54:47.181Z</time></trkpt><trkpt lat="40.3468258" lon="9.5090106"><ele>178.0</ele><time>2026-05-02T09:54:48.18Z</time></trkpt><trkpt lat="40.346797" lon="9.5088759"><ele>178.0</ele><time>2026-05-02T09:54:49.18Z</time></trkpt><trkpt lat="40.3467481" lon="9.5087622"><ele>178.0</ele><time>2026-05-02T09:54:50.18Z</time></trkpt><trkpt lat="40.3466708" lon="9.508684"><ele>178.0</ele><time>2026-05-02T09:54:51.18Z</time></trkpt><trkpt lat="40.3465709" lon="9.5086317"><ele>177.5</ele><time>2026-05-02T09:54:52.18Z</time></trkpt><trkpt lat="40.3464634" lon="9.5085621"><ele>177.0</ele><time>2026-05-02T09:54:53.181Z</time></trkpt><trkpt lat="40.3463545" lon="9.5084546"><ele>176.5</ele><time>2026-05-02T09:54:54.18Z</time></trkpt><trkpt lat="40.3462384" lon="9.5083124"><ele>176.0</ele><time>2026-05-02T09:54:55.18Z</time></trkpt><trkpt lat="40.3461174" lon="9.5081433"><ele>176.0</ele><time>2026-05-02T09:54:56.18Z</time></trkpt><trkpt lat="40.3459871" lon="9.5079523"><ele>176.0</ele><time>2026-05-02T09:54:57.18Z</time></trkpt><trkpt lat="40.3458442" lon="9.5077551"><ele>176.0</ele><time>2026-05-02T09:54:58.181Z</time></trkpt><trkpt lat="40.3456837" lon="9.5075695"><ele>177.0</ele><time>2026-05-02T09:54:59.181Z</time></trkpt><trkpt lat="40.3455082" lon="9.5074234"><ele>178.0</ele><time>2026-05-02T09:55:00.18Z</time></trkpt><trkpt lat="40.3453279" lon="9.5073197"><ele>179.0</ele><time>2026-05-02T09:55:01.181Z</time></trkpt><trkpt lat="40.3451592" lon="9.507236"><ele>179.0</ele><time>2026-05-02T09:55:02.181Z</time></trkpt><trkpt lat="40.3450129" lon="9.5071255"><ele>179.0</ele><time>2026-05-02T09:55:03.18Z</time></trkpt><trkpt lat="40.344899" lon="9.506979"><ele>179.0</ele><time>2026-05-02T09:55:04.181Z</time></trkpt><trkpt lat="40.3448154" lon="9.5067925"><ele>179.0</ele><time>2026-05-02T09:55:05.18Z</time></trkpt><trkpt lat="40.3447498" lon="9.5065629"><ele>179.0</ele><time>2026-05-02T09:55:06.181Z</time></trkpt><trkpt lat="40.3446796" lon="9.506303"><ele>179.0</ele><time>2026-05-02T09:55:07.18Z</time></trkpt><trkpt lat="40.3446022" lon="9.5060122"><ele>178.5</ele><time>2026-05-02T09:55:08.181Z</time></trkpt><trkpt lat="40.3445206" lon="9.5057015"><ele>178.0</ele><time>2026-05-02T09:55:09.18Z</time></trkpt><trkpt lat="40.3444347" lon="9.5053725"><ele>176.5</ele><time>2026-05-02T09:55:10.181Z</time></trkpt><trkpt lat="40.3443441" lon="9.5050255"><ele>175.0</ele><time>2026-05-02T09:55:11.18Z</time></trkpt><trkpt lat="40.3442594" lon="9.5047006"><ele>175.0</ele><time>2026-05-02T09:55:12.18Z</time></trkpt><trkpt lat="40.3441774" lon="9.5043845"><ele>175.0</ele><time>2026-05-02T09:55:13.18Z</time></trkpt><trkpt lat="40.3441047" lon="9.5040842"><ele>175.0</ele><time>2026-05-02T09:55:14.181Z</time></trkpt><trkpt lat="40.3440585" lon="9.5037949"><ele>175.0</ele><time>2026-05-02T09:55:15.18Z</time></trkpt><trkpt lat="40.3440286" lon="9.5035179"><ele>175.0</ele><time>2026-05-02T09:55:16.181Z</time></trkpt><trkpt lat="40.3439957" lon="9.5032611"><ele>173.66666666666669</ele><time>2026-05-02T09:55:17.18Z</time></trkpt><trkpt lat="40.3439328" lon="9.5030131"><ele>172.33333333333334</ele><time>2026-05-02T09:55:18.181Z</time></trkpt><trkpt lat="40.3438699" lon="9.5027591"><ele>171.0</ele><time>2026-05-02T09:55:19.181Z</time></trkpt><trkpt lat="40.3438297" lon="9.5024933"><ele>174.0</ele><time>2026-05-02T09:55:20.18Z</time></trkpt><trkpt lat="40.3438104" lon="9.502226"><ele>177.0</ele><time>2026-05-02T09:55:21.181Z</time></trkpt><trkpt lat="40.3437949" lon="9.501972"><ele>180.0</ele><time>2026-05-02T09:55:22.181Z</time></trkpt><trkpt lat="40.3437623" lon="9.5017079"><ele>180.0</ele><time>2026-05-02T09:55:23.18Z</time></trkpt><trkpt lat="40.3437159" lon="9.5014431"><ele>180.0</ele><time>2026-05-02T09:55:24.181Z</time></trkpt><trkpt lat="40.3436654" lon="9.5011923"><ele>180.0</ele><time>2026-05-02T09:55:25.181Z</time></trkpt><trkpt lat="40.3436037" lon="9.5009584"><ele>176.33333333333334</ele><time>2026-05-02T09:55:26.18Z</time></trkpt><trkpt lat="40.3435057" lon="9.5007592"><ele>172.66666666666669</ele><time>2026-05-02T09:55:27.18Z</time></trkpt><trkpt lat="40.3433801" lon="9.5006036"><ele>169.0</ele><time>2026-05-02T09:55:28.18Z</time></trkpt><trkpt lat="40.3432491" lon="9.5004709"><ele>167.66666666666669</ele><time>2026-05-02T09:55:29.18Z</time></trkpt><trkpt lat="40.3431273" lon="9.5003233"><ele>166.33333333333334</ele><time>2026-05-02T09:55:30.18Z</time></trkpt><trkpt lat="40.3430268" lon="9.5001464"><ele>165.0</ele><time>2026-05-02T09:55:31.181Z</time></trkpt><trkpt lat="40.3429691" lon="9.4999373"><ele>169.33333333333334</ele><time>2026-05-02T09:55:32.18Z</time></trkpt><trkpt lat="40.3429555" lon="9.4997067"><ele>173.66666666666669</ele><time>2026-05-02T09:55:33.181Z</time></trkpt><trkpt lat="40.3429674" lon="9.4994597"><ele>178.0</ele><time>2026-05-02T09:55:34.181Z</time></trkpt><trkpt lat="40.3429845" lon="9.4991949"><ele>178.0</ele><time>2026-05-02T09:55:35.181Z</time></trkpt><trkpt lat="40.3430046" lon="9.4989226"><ele>178.0</ele><time>2026-05-02T09:55:36.18Z</time></trkpt><trkpt lat="40.343021" lon="9.4986661"><ele>178.0</ele><time>2026-05-02T09:55:37.18Z</time></trkpt><trkpt lat="40.3430284" lon="9.4984221"><ele>177.0</ele><time>2026-05-02T09:55:38.181Z</time></trkpt><trkpt lat="40.3430053" lon="9.4981839"><ele>176.0</ele><time>2026-05-02T09:55:39.18Z</time></trkpt><trkpt lat="40.3429442" lon="9.4979523"><ele>175.0</ele><time>2026-05-02T09:55:40.181Z</time></trkpt><trkpt lat="40.3428607" lon="9.4977158"><ele>173.33333333333334</ele><time>2026-05-02T09:55:41.18Z</time></trkpt><trkpt lat="40.3427598" lon="9.4974749"><ele>171.66666666666666</ele><time>2026-05-02T09:55:42.181Z</time></trkpt><trkpt lat="40.3426525" lon="9.4972273"><ele>170.0</ele><time>2026-05-02T09:55:43.181Z</time></trkpt><trkpt lat="40.3425467" lon="9.4969803"><ele>171.0</ele><time>2026-05-02T09:55:44.181Z</time></trkpt><trkpt lat="40.3424345" lon="9.4967471"><ele>172.0</ele><time>2026-05-02T09:55:45.181Z</time></trkpt><trkpt lat="40.3423163" lon="9.4965365"><ele>173.0</ele><time>2026-05-02T09:55:46.18Z</time></trkpt><trkpt lat="40.3421988" lon="9.4963507"><ele>168.33333333333331</ele><time>2026-05-02T09:55:47.18Z</time></trkpt><trkpt lat="40.3421123" lon="9.4961733"><ele>163.66666666666666</ele><time>2026-05-02T09:55:48.18Z</time></trkpt><trkpt lat="40.3420647" lon="9.4959863"><ele>159.0</ele><time>2026-05-02T09:55:49.181Z</time></trkpt><trkpt lat="40.3420489" lon="9.4957724"><ele>159.0</ele><time>2026-05-02T09:55:50.181Z</time></trkpt><trkpt lat="40.3420432" lon="9.4955313"><ele>159.0</ele><time>2026-05-02T09:55:51.18Z</time></trkpt><trkpt lat="40.3420255" lon="9.4952795"><ele>159.0</ele><time>2026-05-02T09:55:52.18Z</time></trkpt><trkpt lat="40.3419909" lon="9.4950261"><ele>159.0</ele><time>2026-05-02T09:55:53.18Z</time></trkpt><trkpt lat="40.34193" lon="9.494772"><ele>159.0</ele><time>2026-05-02T09:55:54.18Z</time></trkpt><trkpt lat="40.3418433" lon="9.4945135"><ele>159.0</ele><time>2026-05-02T09:55:55.181Z</time></trkpt><trkpt lat="40.341737" lon="9.4942503"><ele>159.0</ele><time>2026-05-02T09:55:56.18Z</time></trkpt><trkpt lat="40.3416211" lon="9.4939815"><ele>159.0</ele><time>2026-05-02T09:55:57.18Z</time></trkpt><trkpt lat="40.3415034" lon="9.4937093"><ele>159.5</ele><time>2026-05-02T09:55:58.18Z</time></trkpt><trkpt lat="40.3413875" lon="9.493438"><ele>160.0</ele><time>2026-05-02T09:55:59.18Z</time></trkpt><trkpt lat="40.3412682" lon="9.4931791"><ele>159.66666666666669</ele><time>2026-05-02T09:56:00.181Z</time></trkpt><trkpt lat="40.3411394" lon="9.4929417"><ele>159.33333333333334</ele><time>2026-05-02T09:56:01.18Z</time></trkpt><trkpt lat="40.3409891" lon="9.4927389"><ele>159.0</ele><time>2026-05-02T09:56:02.18Z</time></trkpt><trkpt lat="40.3408155" lon="9.4925681"><ele>159.0</ele><time>2026-05-02T09:56:03.18Z</time></trkpt><trkpt lat="40.3406319" lon="9.4924388"><ele>159.0</ele><time>2026-05-02T09:56:04.181Z</time></trkpt><trkpt lat="40.3404559" lon="9.492349"><ele>159.0</ele><time>2026-05-02T09:56:05.18Z</time></trkpt><trkpt lat="40.3402842" lon="9.492291"><ele>159.0</ele><time>2026-05-02T09:56:06.18Z</time></trkpt><trkpt lat="40.3401309" lon="9.4922328"><ele>159.0</ele><time>2026-05-02T09:56:07.18Z</time></trkpt><trkpt lat="40.3399964" lon="9.4921484"><ele>159.0</ele><time>2026-05-02T09:56:08.181Z</time></trkpt><trkpt lat="40.3398767" lon="9.4920285"><ele>159.0</ele><time>2026-05-02T09:56:09.18Z</time></trkpt><trkpt lat="40.339788" lon="9.4918686"><ele>159.0</ele><time>2026-05-02T09:56:10.181Z</time></trkpt><trkpt lat="40.339729" lon="9.4916729"><ele>159.0</ele><time>2026-05-02T09:56:11.18Z</time></trkpt><trkpt lat="40.3396977" lon="9.4914412"><ele>157.66666666666666</ele><time>2026-05-02T09:56:12.181Z</time></trkpt><trkpt lat="40.3396837" lon="9.4911855"><ele>156.33333333333331</ele><time>2026-05-02T09:56:13.181Z</time></trkpt><trkpt lat="40.3396778" lon="9.4909037"><ele>155.0</ele><time>2026-05-02T09:56:14.18Z</time></trkpt><trkpt lat="40.3396685" lon="9.4906089"><ele>155.5</ele><time>2026-05-02T09:56:15.181Z</time></trkpt><trkpt lat="40.3396549" lon="9.4903048"><ele>156.0</ele><time>2026-05-02T09:56:16.18Z</time></trkpt><trkpt lat="40.3396424" lon="9.4899938"><ele>156.0</ele><time>2026-05-02T09:56:17.18Z</time></trkpt><trkpt lat="40.3396324" lon="9.4896804"><ele>156.0</ele><time>2026-05-02T09:56:18.181Z</time></trkpt><trkpt lat="40.339623" lon="9.4893689"><ele>157.0</ele><time>2026-05-02T09:56:19.18Z</time></trkpt><trkpt lat="40.3396133" lon="9.489055"><ele>158.0</ele><time>2026-05-02T09:56:20.181Z</time></trkpt><trkpt lat="40.3395996" lon="9.4887426"><ele>158.0</ele><time>2026-05-02T09:56:21.18Z</time></trkpt><trkpt lat="40.3395881" lon="9.4884314"><ele>158.0</ele><time>2026-05-02T09:56:22.181Z</time></trkpt><trkpt lat="40.3395786" lon="9.4881192"><ele>157.5</ele><time>2026-05-02T09:56:23.18Z</time></trkpt><trkpt lat="40.3395678" lon="9.4878089"><ele>157.0</ele><time>2026-05-02T09:56:24.181Z</time></trkpt><trkpt lat="40.3395578" lon="9.4874961"><ele>157.0</ele><time>2026-05-02T09:56:25.181Z</time></trkpt><trkpt lat="40.3395458" lon="9.4871825"><ele>157.0</ele><time>2026-05-02T09:56:26.18Z</time></trkpt><trkpt lat="40.3395336" lon="9.4868646"><ele>157.0</ele><time>2026-05-02T09:56:27.181Z</time></trkpt><trkpt lat="40.3395216" lon="9.4865437"><ele>157.0</ele><time>2026-05-02T09:56:28.181Z</time></trkpt><trkpt lat="40.3395085" lon="9.4862214"><ele>157.5</ele><time>2026-05-02T09:56:29.181Z</time></trkpt><trkpt lat="40.3394968" lon="9.4858971"><ele>158.0</ele><time>2026-05-02T09:56:30.18Z</time></trkpt><trkpt lat="40.3394878" lon="9.4855709"><ele>159.5</ele><time>2026-05-02T09:56:31.181Z</time></trkpt><trkpt lat="40.3394793" lon="9.4852388"><ele>161.0</ele><time>2026-05-02T09:56:32.18Z</time></trkpt><trkpt lat="40.3394679" lon="9.4849134"><ele>161.0</ele><time>2026-05-02T09:56:33.181Z</time></trkpt><trkpt lat="40.3394531" lon="9.4846023"><ele>161.0</ele><time>2026-05-02T09:56:34.181Z</time></trkpt><trkpt lat="40.3394254" lon="9.4843154"><ele>161.33333333333331</ele><time>2026-05-02T09:56:35.18Z</time></trkpt><trkpt lat="40.3393732" lon="9.4840444"><ele>161.66666666666666</ele><time>2026-05-02T09:56:36.181Z</time></trkpt><trkpt lat="40.3392993" lon="9.4837817"><ele>162.0</ele><time>2026-05-02T09:56:37.181Z</time></trkpt><trkpt lat="40.3392079" lon="9.483517"><ele>162.5</ele><time>2026-05-02T09:56:38.18Z</time></trkpt><trkpt lat="40.3391076" lon="9.4832505"><ele>163.0</ele><time>2026-05-02T09:56:39.18Z</time></trkpt><trkpt lat="40.339005" lon="9.4829752"><ele>163.0</ele><time>2026-05-02T09:56:40.181Z</time></trkpt><trkpt lat="40.3389037" lon="9.4826951"><ele>163.0</ele><time>2026-05-02T09:56:41.18Z</time></trkpt><trkpt lat="40.3387986" lon="9.4824058"><ele>163.0</ele><time>2026-05-02T09:56:42.181Z</time></trkpt><trkpt lat="40.3386886" lon="9.4821109"><ele>163.0</ele><time>2026-05-02T09:56:43.181Z</time></trkpt><trkpt lat="40.3385808" lon="9.4818187"><ele>163.5</ele><time>2026-05-02T09:56:44.18Z</time></trkpt><trkpt lat="40.3384768" lon="9.4815328"><ele>164.0</ele><time>2026-05-02T09:56:45.18Z</time></trkpt><trkpt lat="40.3383788" lon="9.4812585"><ele>164.66666666666666</ele><time>2026-05-02T09:56:46.18Z</time></trkpt><trkpt lat="40.3382871" lon="9.4810077"><ele>165.33333333333334</ele><time>2026-05-02T09:56:47.18Z</time></trkpt><trkpt lat="40.3382054" lon="9.4807899"><ele>166.0</ele><time>2026-05-02T09:56:48.181Z</time></trkpt><trkpt lat="40.3381305" lon="9.4805989"><ele>165.0</ele><time>2026-05-02T09:56:49.181Z</time></trkpt><trkpt lat="40.3380489" lon="9.4804391"><ele>164.0</ele><time>2026-05-02T09:56:50.181Z</time></trkpt><trkpt lat="40.3379401" lon="9.4803319"><ele>163.0</ele><time>2026-05-02T09:56:51.18Z</time></trkpt><trkpt lat="40.3378077" lon="9.4802785"><ele>162.0</ele><time>2026-05-02T09:56:52.181Z</time></trkpt><trkpt lat="40.3376579" lon="9.4802791"><ele>162.0</ele><time>2026-05-02T09:56:53.181Z</time></trkpt><trkpt lat="40.3374998" lon="9.480314"><ele>162.0</ele><time>2026-05-02T09:56:54.181Z</time></trkpt><trkpt lat="40.3373588" lon="9.4803294"><ele>162.0</ele><time>2026-05-02T09:56:55.18Z</time></trkpt><trkpt lat="40.3372245" lon="9.4802872"><ele>162.0</ele><time>2026-05-02T09:56:56.181Z</time></trkpt><trkpt lat="40.3371009" lon="9.4801899"><ele>162.0</ele><time>2026-05-02T09:56:57.18Z</time></trkpt><trkpt lat="40.3369906" lon="9.4800371"><ele>162.0</ele><time>2026-05-02T09:56:58.18Z</time></trkpt><trkpt lat="40.3368666" lon="9.4798389"><ele>162.0</ele><time>2026-05-02T09:56:59.18Z</time></trkpt><trkpt lat="40.3367148" lon="9.479599"><ele>162.0</ele><time>2026-05-02T09:57:00.18Z</time></trkpt><trkpt lat="40.3365438" lon="9.479329"><ele>162.0</ele><time>2026-05-02T09:57:01.18Z</time></trkpt><trkpt lat="40.3363798" lon="9.4790581"><ele>163.5</ele><time>2026-05-02T09:57:02.181Z</time></trkpt><trkpt lat="40.3362164" lon="9.4788291"><ele>165.0</ele><time>2026-05-02T09:57:03.18Z</time></trkpt><trkpt lat="40.336031" lon="9.4786469"><ele>165.0</ele><time>2026-05-02T09:57:04.181Z</time></trkpt><trkpt lat="40.33581" lon="9.4784737"><ele>165.0</ele><time>2026-05-02T09:57:05.181Z</time></trkpt><trkpt lat="40.3355667" lon="9.4782887"><ele>165.0</ele><time>2026-05-02T09:57:06.18Z</time></trkpt><trkpt lat="40.3352929" lon="9.4780994"><ele>165.0</ele><time>2026-05-02T09:57:07.181Z</time></trkpt><trkpt lat="40.334998" lon="9.4779175"><ele>165.0</ele><time>2026-05-02T09:57:08.18Z</time></trkpt><trkpt lat="40.3347223" lon="9.4777502"><ele>165.0</ele><time>2026-05-02T09:57:09.18Z</time></trkpt><trkpt lat="40.3344638" lon="9.4775882"><ele>167.5</ele><time>2026-05-02T09:57:10.18Z</time></trkpt><trkpt lat="40.3342203" lon="9.4774193"><ele>170.0</ele><time>2026-05-02T09:57:11.181Z</time></trkpt><trkpt lat="40.3339812" lon="9.4772405"><ele>169.5</ele><time>2026-05-02T09:57:12.18Z</time></trkpt><trkpt lat="40.3337444" lon="9.477059"><ele>169.0</ele><time>2026-05-02T09:57:13.18Z</time></trkpt><trkpt lat="40.3335195" lon="9.476888"><ele>169.0</ele><time>2026-05-02T09:57:14.181Z</time></trkpt><trkpt lat="40.3333082" lon="9.4767153"><ele>169.0</ele><time>2026-05-02T09:57:15.18Z</time></trkpt><trkpt lat="40.3331381" lon="9.4765605"><ele>169.0</ele><time>2026-05-02T09:57:16.18Z</time></trkpt><trkpt lat="40.3329924" lon="9.4764224"><ele>169.0</ele><time>2026-05-02T09:57:17.181Z</time></trkpt><trkpt lat="40.3328563" lon="9.4762875"><ele>169.0</ele><time>2026-05-02T09:57:18.181Z</time></trkpt><trkpt lat="40.3327262" lon="9.4761604"><ele>169.0</ele><time>2026-05-02T09:57:19.18Z</time></trkpt><trkpt lat="40.3325924" lon="9.4760332"><ele>169.0</ele><time>2026-05-02T09:57:20.18Z</time></trkpt><trkpt lat="40.3324563" lon="9.4759104"><ele>169.0</ele><time>2026-05-02T09:57:21.181Z</time></trkpt><trkpt lat="40.3323126" lon="9.4757926"><ele>171.0</ele><time>2026-05-02T09:57:22.181Z</time></trkpt><trkpt lat="40.3321577" lon="9.4756775"><ele>173.0</ele><time>2026-05-02T09:57:23.18Z</time></trkpt><trkpt lat="40.3319953" lon="9.4755593"><ele>175.0</ele><time>2026-05-02T09:57:24.181Z</time></trkpt><trkpt lat="40.3318247" lon="9.4754392"><ele>175.33333333333334</ele><time>2026-05-02T09:57:25.181Z</time></trkpt><trkpt lat="40.3316488" lon="9.4753118"><ele>175.66666666666666</ele><time>2026-05-02T09:57:26.18Z</time></trkpt><trkpt lat="40.3314719" lon="9.4751731"><ele>176.0</ele><time>2026-05-02T09:57:27.181Z</time></trkpt><trkpt lat="40.3313004" lon="9.4750156"><ele>176.0</ele><time>2026-05-02T09:57:28.181Z</time></trkpt><trkpt lat="40.331129" lon="9.4748433"><ele>176.0</ele><time>2026-05-02T09:57:29.181Z</time></trkpt><trkpt lat="40.3309529" lon="9.4746679"><ele>176.0</ele><time>2026-05-02T09:57:30.18Z</time></trkpt><trkpt lat="40.3307744" lon="9.4744885"><ele>175.5</ele><time>2026-05-02T09:57:31.181Z</time></trkpt><trkpt lat="40.3305932" lon="9.4743049"><ele>175.0</ele><time>2026-05-02T09:57:32.18Z</time></trkpt><trkpt lat="40.3304098" lon="9.474128"><ele>175.0</ele><time>2026-05-02T09:57:33.181Z</time></trkpt><trkpt lat="40.3302306" lon="9.4739681"><ele>175.0</ele><time>2026-05-02T09:57:34.181Z</time></trkpt><trkpt lat="40.3300525" lon="9.473833"><ele>175.0</ele><time>2026-05-02T09:57:35.181Z</time></trkpt><trkpt lat="40.3298588" lon="9.4737282"><ele>174.0</ele><time>2026-05-02T09:57:36.18Z</time></trkpt><trkpt lat="40.3296601" lon="9.4736557"><ele>173.0</ele><time>2026-05-02T09:57:37.18Z</time></trkpt><trkpt lat="40.3294548" lon="9.4736075"><ele>172.0</ele><time>2026-05-02T09:57:38.18Z</time></trkpt><trkpt lat="40.3292521" lon="9.4735634"><ele>172.0</ele><time>2026-05-02T09:57:39.181Z</time></trkpt><trkpt lat="40.3290523" lon="9.4735014"><ele>172.0</ele><time>2026-05-02T09:57:40.18Z</time></trkpt><trkpt lat="40.3288622" lon="9.4734102"><ele>172.0</ele><time>2026-05-02T09:57:41.181Z</time></trkpt><trkpt lat="40.3286825" lon="9.4732833"><ele>173.0</ele><time>2026-05-02T09:57:42.181Z</time></trkpt><trkpt lat="40.328509" lon="9.4731443"><ele>174.0</ele><time>2026-05-02T09:57:43.181Z</time></trkpt><trkpt lat="40.3283458" lon="9.473012"><ele>175.0</ele><time>2026-05-02T09:57:44.181Z</time></trkpt><trkpt lat="40.3281874" lon="9.4728922"><ele>175.33333333333334</ele><time>2026-05-02T09:57:45.181Z</time></trkpt><trkpt lat="40.3280316" lon="9.472817"><ele>175.66666666666666</ele><time>2026-05-02T09:57:46.18Z</time></trkpt><trkpt lat="40.3278769" lon="9.472796"><ele>176.0</ele><time>2026-05-02T09:57:47.18Z</time></trkpt><trkpt lat="40.3277294" lon="9.472791"><ele>176.0</ele><time>2026-05-02T09:57:48.181Z</time></trkpt><trkpt lat="40.3275793" lon="9.4727355"><ele>176.0</ele><time>2026-05-02T09:57:49.181Z</time></trkpt><trkpt lat="40.3274366" lon="9.4726364"><ele>176.0</ele><time>2026-05-02T09:57:50.181Z</time></trkpt><trkpt lat="40.3272812" lon="9.4725105"><ele>179.66666666666666</ele><time>2026-05-02T09:57:51.181Z</time></trkpt><trkpt lat="40.3271176" lon="9.4723709"><ele>183.33333333333334</ele><time>2026-05-02T09:57:52.181Z</time></trkpt><trkpt lat="40.3269642" lon="9.472245"><ele>187.0</ele><time>2026-05-02T09:57:53.181Z</time></trkpt><trkpt lat="40.326821" lon="9.4721256"><ele>183.33333333333334</ele><time>2026-05-02T09:57:54.181Z</time></trkpt><trkpt lat="40.3266913" lon="9.4720093"><ele>179.66666666666666</ele><time>2026-05-02T09:57:55.18Z</time></trkpt><trkpt lat="40.326585" lon="9.4718725"><ele>176.0</ele><time>2026-05-02T09:57:56.18Z</time></trkpt><trkpt lat="40.326502" lon="9.4716991"><ele>176.0</ele><time>2026-05-02T09:57:57.18Z</time></trkpt><trkpt lat="40.3264496" lon="9.4715054"><ele>176.0</ele><time>2026-05-02T09:57:58.18Z</time></trkpt><trkpt lat="40.3264325" lon="9.4713002"><ele>176.0</ele><time>2026-05-02T09:57:59.18Z</time></trkpt><trkpt lat="40.3264369" lon="9.4710819"><ele>177.0</ele><time>2026-05-02T09:58:00.181Z</time></trkpt><trkpt lat="40.3264374" lon="9.4708499"><ele>178.0</ele><time>2026-05-02T09:58:01.181Z</time></trkpt><trkpt lat="40.3263991" lon="9.4706106"><ele>179.0</ele><time>2026-05-02T09:58:02.181Z</time></trkpt><trkpt lat="40.3263367" lon="9.4703737"><ele>182.66666666666666</ele><time>2026-05-02T09:58:03.18Z</time></trkpt><trkpt lat="40.3262845" lon="9.4701281"><ele>186.33333333333334</ele><time>2026-05-02T09:58:04.18Z</time></trkpt><trkpt lat="40.3262679" lon="9.4698851"><ele>190.0</ele><time>2026-05-02T09:58:05.18Z</time></trkpt><trkpt lat="40.3262644" lon="9.4696361"><ele>190.66666666666669</ele><time>2026-05-02T09:58:06.18Z</time></trkpt><trkpt lat="40.3262489" lon="9.4693736"><ele>191.33333333333334</ele><time>2026-05-02T09:58:07.18Z</time></trkpt><trkpt lat="40.3262075" lon="9.4691171"><ele>192.0</ele><time>2026-05-02T09:58:08.181Z</time></trkpt><trkpt lat="40.3261304" lon="9.4688849"><ele>190.66666666666666</ele><time>2026-05-02T09:58:09.181Z</time></trkpt><trkpt lat="40.3260403" lon="9.468657"><ele>189.33333333333331</ele><time>2026-05-02T09:58:10.18Z</time></trkpt><trkpt lat="40.3259649" lon="9.4684172"><ele>188.0</ele><time>2026-05-02T09:58:11.18Z</time></trkpt><trkpt lat="40.325918" lon="9.4681641"><ele>187.0</ele><time>2026-05-02T09:58:12.181Z</time></trkpt><trkpt lat="40.3258936" lon="9.4678961"><ele>186.0</ele><time>2026-05-02T09:58:13.181Z</time></trkpt><trkpt lat="40.325879" lon="9.4676157"><ele>185.0</ele><time>2026-05-02T09:58:14.181Z</time></trkpt><trkpt lat="40.3258677" lon="9.4673199"><ele>184.0</ele><time>2026-05-02T09:58:15.181Z</time></trkpt><trkpt lat="40.3258556" lon="9.467016"><ele>183.0</ele><time>2026-05-02T09:58:16.18Z</time></trkpt><trkpt lat="40.3258432" lon="9.4667091"><ele>183.0</ele><time>2026-05-02T09:58:17.18Z</time></trkpt><trkpt lat="40.3258309" lon="9.4664034"><ele>183.0</ele><time>2026-05-02T09:58:18.18Z</time></trkpt><trkpt lat="40.3258185" lon="9.4660964"><ele>184.5</ele><time>2026-05-02T09:58:19.18Z</time></trkpt><trkpt lat="40.3258017" lon="9.4657905"><ele>186.0</ele><time>2026-05-02T09:58:20.18Z</time></trkpt><trkpt lat="40.3257785" lon="9.4654921"><ele>186.66666666666666</ele><time>2026-05-02T09:58:21.181Z</time></trkpt><trkpt lat="40.3257384" lon="9.4652059"><ele>187.33333333333331</ele><time>2026-05-02T09:58:22.18Z</time></trkpt><trkpt lat="40.3256879" lon="9.4649273"><ele>188.0</ele><time>2026-05-02T09:58:23.181Z</time></trkpt><trkpt lat="40.3256248" lon="9.4646575"><ele>192.0</ele><time>2026-05-02T09:58:24.181Z</time></trkpt><trkpt lat="40.3255567" lon="9.4643901"><ele>196.0</ele><time>2026-05-02T09:58:25.181Z</time></trkpt><trkpt lat="40.3254857" lon="9.4641243"><ele>200.0</ele><time>2026-05-02T09:58:26.181Z</time></trkpt><trkpt lat="40.3254157" lon="9.4638554"><ele>198.66666666666669</ele><time>2026-05-02T09:58:27.181Z</time></trkpt><trkpt lat="40.3253451" lon="9.4635814"><ele>197.33333333333331</ele><time>2026-05-02T09:58:28.181Z</time></trkpt><trkpt lat="40.325275" lon="9.4633083"><ele>196.0</ele><time>2026-05-02T09:58:29.181Z</time></trkpt><trkpt lat="40.3252061" lon="9.4630383"><ele>195.0</ele><time>2026-05-02T09:58:30.181Z</time></trkpt><trkpt lat="40.3251384" lon="9.4627816"><ele>194.0</ele><time>2026-05-02T09:58:31.18Z</time></trkpt><trkpt lat="40.3250576" lon="9.462543"><ele>193.0</ele><time>2026-05-02T09:58:32.181Z</time></trkpt><trkpt lat="40.324955" lon="9.4623425"><ele>193.0</ele><time>2026-05-02T09:58:33.181Z</time></trkpt><trkpt lat="40.3248475" lon="9.4621642"><ele>193.0</ele><time>2026-05-02T09:58:34.18Z</time></trkpt><trkpt lat="40.3247563" lon="9.4619828"><ele>193.0</ele><time>2026-05-02T09:58:35.18Z</time></trkpt><trkpt lat="40.3247207" lon="9.4617795"><ele>196.0</ele><time>2026-05-02T09:58:36.18Z</time></trkpt><trkpt lat="40.3247099" lon="9.4615632"><ele>199.0</ele><time>2026-05-02T09:58:37.18Z</time></trkpt><trkpt lat="40.324711" lon="9.4613349"><ele>202.0</ele><time>2026-05-02T09:58:38.181Z</time></trkpt><trkpt lat="40.3247043" lon="9.4611012"><ele>202.33333333333331</ele><time>2026-05-02T09:58:39.181Z</time></trkpt><trkpt lat="40.3246845" lon="9.4608613"><ele>202.66666666666669</ele><time>2026-05-02T09:58:40.18Z</time></trkpt><trkpt lat="40.3246542" lon="9.4606148"><ele>203.0</ele><time>2026-05-02T09:58:41.181Z</time></trkpt><trkpt lat="40.3246158" lon="9.4603654"><ele>203.0</ele><time>2026-05-02T09:58:42.181Z</time></trkpt><trkpt lat="40.3245774" lon="9.4601114"><ele>203.0</ele><time>2026-05-02T09:58:43.18Z</time></trkpt><trkpt lat="40.3245384" lon="9.4598544"><ele>203.0</ele><time>2026-05-02T09:58:44.181Z</time></trkpt><trkpt lat="40.3244991" lon="9.459602"><ele>203.33333333333334</ele><time>2026-05-02T09:58:45.18Z</time></trkpt><trkpt lat="40.3244632" lon="9.4593569"><ele>203.66666666666669</ele><time>2026-05-02T09:58:46.181Z</time></trkpt><trkpt lat="40.3244321" lon="9.4591097"><ele>204.0</ele><time>2026-05-02T09:58:47.18Z</time></trkpt><trkpt lat="40.3244108" lon="9.4588591"><ele>204.33333333333331</ele><time>2026-05-02T09:58:48.181Z</time></trkpt><trkpt lat="40.3244045" lon="9.4586035"><ele>204.66666666666666</ele><time>2026-05-02T09:58:49.181Z</time></trkpt><trkpt lat="40.3244138" lon="9.4583397"><ele>205.0</ele><time>2026-05-02T09:58:50.181Z</time></trkpt><trkpt lat="40.3244302" lon="9.4580663"><ele>204.0</ele><time>2026-05-02T09:58:51.181Z</time></trkpt><trkpt lat="40.3244473" lon="9.4577839"><ele>203.0</ele><time>2026-05-02T09:58:52.18Z</time></trkpt><trkpt lat="40.3244637" lon="9.4574995"><ele>202.0</ele><time>2026-05-02T09:58:53.181Z</time></trkpt><trkpt lat="40.3244818" lon="9.4572207"><ele>203.0</ele><time>2026-05-02T09:58:54.18Z</time></trkpt><trkpt lat="40.3244964" lon="9.4569553"><ele>204.0</ele><time>2026-05-02T09:58:55.18Z</time></trkpt><trkpt lat="40.3245033" lon="9.4567073"><ele>205.0</ele><time>2026-05-02T09:58:56.181Z</time></trkpt><trkpt lat="40.3244887" lon="9.456463"><ele>205.0</ele><time>2026-05-02T09:58:57.181Z</time></trkpt><trkpt lat="40.3244525" lon="9.4562243"><ele>205.0</ele><time>2026-05-02T09:58:58.18Z</time></trkpt><trkpt lat="40.324399" lon="9.4559931"><ele>205.0</ele><time>2026-05-02T09:58:59.181Z</time></trkpt><trkpt lat="40.3243338" lon="9.4557632"><ele>205.0</ele><time>2026-05-02T09:59:00.181Z</time></trkpt><trkpt lat="40.3242747" lon="9.4555316"><ele>205.0</ele><time>2026-05-02T09:59:01.181Z</time></trkpt><trkpt lat="40.3242443" lon="9.4552935"><ele>205.0</ele><time>2026-05-02T09:59:02.181Z</time></trkpt><trkpt lat="40.3242387" lon="9.4550463"><ele>206.66666666666666</ele><time>2026-05-02T09:59:03.181Z</time></trkpt><trkpt lat="40.3242477" lon="9.4547845"><ele>208.33333333333331</ele><time>2026-05-02T09:59:04.181Z</time></trkpt><trkpt lat="40.3242594" lon="9.4545077"><ele>210.0</ele><time>2026-05-02T09:59:05.181Z</time></trkpt><trkpt lat="40.3242728" lon="9.4542139"><ele>212.5</ele><time>2026-05-02T09:59:06.181Z</time></trkpt><trkpt lat="40.3242831" lon="9.4539168"><ele>215.0</ele><time>2026-05-02T09:59:07.181Z</time></trkpt><trkpt lat="40.3242973" lon="9.4536243"><ele>215.66666666666669</ele><time>2026-05-02T09:59:08.181Z</time></trkpt><trkpt lat="40.3243129" lon="9.4533328"><ele>216.33333333333331</ele><time>2026-05-02T09:59:09.18Z</time></trkpt><trkpt lat="40.3243272" lon="9.4530504"><ele>217.0</ele><time>2026-05-02T09:59:10.181Z</time></trkpt><trkpt lat="40.3243471" lon="9.4527844"><ele>218.0</ele><time>2026-05-02T09:59:11.181Z</time></trkpt><trkpt lat="40.3243799" lon="9.4525183"><ele>219.0</ele><time>2026-05-02T09:59:12.18Z</time></trkpt><trkpt lat="40.324418" lon="9.4522558"><ele>220.0</ele><time>2026-05-02T09:59:13.181Z</time></trkpt><trkpt lat="40.324459" lon="9.4519935"><ele>223.0</ele><time>2026-05-02T09:59:14.181Z</time></trkpt><trkpt lat="40.3244972" lon="9.451732"><ele>226.0</ele><time>2026-05-02T09:59:15.181Z</time></trkpt><trkpt lat="40.3245274" lon="9.4514771"><ele>229.0</ele><time>2026-05-02T09:59:16.181Z</time></trkpt><trkpt lat="40.3245487" lon="9.4512237"><ele>230.66666666666666</ele><time>2026-05-02T09:59:17.18Z</time></trkpt><trkpt lat="40.3245568" lon="9.4509727"><ele>232.33333333333331</ele><time>2026-05-02T09:59:18.18Z</time></trkpt><trkpt lat="40.3245532" lon="9.4507285"><ele>234.0</ele><time>2026-05-02T09:59:19.181Z</time></trkpt><trkpt lat="40.3245391" lon="9.4504937"><ele>231.66666666666669</ele><time>2026-05-02T09:59:20.181Z</time></trkpt><trkpt lat="40.3245103" lon="9.4502727"><ele>229.33333333333334</ele><time>2026-05-02T09:59:21.18Z</time></trkpt><trkpt lat="40.3244573" lon="9.4500608"><ele>227.0</ele><time>2026-05-02T09:59:22.181Z</time></trkpt><trkpt lat="40.324375" lon="9.4498625"><ele>227.0</ele><time>2026-05-02T09:59:23.18Z</time></trkpt><trkpt lat="40.3242716" lon="9.4496793"><ele>227.0</ele><time>2026-05-02T09:59:24.181Z</time></trkpt><trkpt lat="40.324157" lon="9.449503"><ele>227.0</ele><time>2026-05-02T09:59:25.181Z</time></trkpt><trkpt lat="40.324041" lon="9.4493211"><ele>226.66666666666669</ele><time>2026-05-02T09:59:26.18Z</time></trkpt><trkpt lat="40.323937" lon="9.4491435"><ele>226.33333333333331</ele><time>2026-05-02T09:59:27.181Z</time></trkpt><trkpt lat="40.3238491" lon="9.448968"><ele>226.0</ele><time>2026-05-02T09:59:28.181Z</time></trkpt><trkpt lat="40.3237837" lon="9.4487799"><ele>228.33333333333331</ele><time>2026-05-02T09:59:29.181Z</time></trkpt><trkpt lat="40.3237582" lon="9.4485791"><ele>230.66666666666669</ele><time>2026-05-02T09:59:30.181Z</time></trkpt><trkpt lat="40.32377" lon="9.4483745"><ele>233.0</ele><time>2026-05-02T09:59:31.181Z</time></trkpt><trkpt lat="40.3238144" lon="9.4481524"><ele>235.0</ele><time>2026-05-02T09:59:32.181Z</time></trkpt><trkpt lat="40.3238715" lon="9.4479005"><ele>237.0</ele><time>2026-05-02T09:59:33.181Z</time></trkpt><trkpt lat="40.3239379" lon="9.4476056"><ele>239.0</ele><time>2026-05-02T09:59:34.18Z</time></trkpt><trkpt lat="40.3240184" lon="9.4472822"><ele>239.0</ele><time>2026-05-02T09:59:35.18Z</time></trkpt><trkpt lat="40.3241114" lon="9.4469412"><ele>239.0</ele><time>2026-05-02T09:59:36.18Z</time></trkpt><trkpt lat="40.3242062" lon="9.4466297"><ele>239.0</ele><time>2026-05-02T09:59:37.18Z</time></trkpt><trkpt lat="40.3242809" lon="9.4463403"><ele>239.0</ele><time>2026-05-02T09:59:38.181Z</time></trkpt><trkpt lat="40.3243244" lon="9.4460332"><ele>240.5</ele><time>2026-05-02T09:59:39.18Z</time></trkpt><trkpt lat="40.3243428" lon="9.4456978"><ele>242.0</ele><time>2026-05-02T09:59:40.18Z</time></trkpt><trkpt lat="40.3243459" lon="9.445359"><ele>242.0</ele><time>2026-05-02T09:59:41.181Z</time></trkpt><trkpt lat="40.3243455" lon="9.4450496"><ele>242.0</ele><time>2026-05-02T09:59:42.18Z</time></trkpt><trkpt lat="40.3243457" lon="9.44474"><ele>239.5</ele><time>2026-05-02T09:59:43.18Z</time></trkpt><trkpt lat="40.3243432" lon="9.4444293"><ele>237.0</ele><time>2026-05-02T09:59:44.18Z</time></trkpt><trkpt lat="40.3243399" lon="9.444117"><ele>237.0</ele><time>2026-05-02T09:59:45.181Z</time></trkpt><trkpt lat="40.3243391" lon="9.4438029"><ele>237.0</ele><time>2026-05-02T09:59:46.181Z</time></trkpt><trkpt lat="40.3243366" lon="9.4434851"><ele>235.5</ele><time>2026-05-02T09:59:47.181Z</time></trkpt><trkpt lat="40.3243334" lon="9.4431688"><ele>234.0</ele><time>2026-05-02T09:59:48.181Z</time></trkpt><trkpt lat="40.3243293" lon="9.4428494"><ele>232.5</ele><time>2026-05-02T09:59:49.181Z</time></trkpt><trkpt lat="40.3243178" lon="9.4425286"><ele>231.0</ele><time>2026-05-02T09:59:50.181Z</time></trkpt><trkpt lat="40.3242942" lon="9.4422068"><ele>229.5</ele><time>2026-05-02T09:59:51.181Z</time></trkpt><trkpt lat="40.3242599" lon="9.4418839"><ele>228.0</ele><time>2026-05-02T09:59:52.18Z</time></trkpt><trkpt lat="40.3242193" lon="9.4415604"><ele>228.5</ele><time>2026-05-02T09:59:53.18Z</time></trkpt><trkpt lat="40.324176" lon="9.4412516"><ele>229.0</ele><time>2026-05-02T09:59:54.18Z</time></trkpt><trkpt lat="40.3241311" lon="9.4409619"><ele>229.0</ele><time>2026-05-02T09:59:55.181Z</time></trkpt><trkpt lat="40.3240803" lon="9.4406945"><ele>229.0</ele><time>2026-05-02T09:59:56.18Z</time></trkpt><trkpt lat="40.3240078" lon="9.4404519"><ele>229.0</ele><time>2026-05-02T09:59:57.181Z</time></trkpt><trkpt lat="40.3239114" lon="9.4402253"><ele>227.66666666666666</ele><time>2026-05-02T09:59:58.18Z</time></trkpt><trkpt lat="40.3238021" lon="9.4400138"><ele>226.33333333333331</ele><time>2026-05-02T09:59:59.18Z</time></trkpt><trkpt lat="40.323689" lon="9.4398143"><ele>225.0</ele><time>2026-05-02T10:00:00.181Z</time></trkpt><trkpt lat="40.3235656" lon="9.4396426"><ele>226.0</ele><time>2026-05-02T10:00:01.18Z</time></trkpt><trkpt lat="40.3234232" lon="9.4395159"><ele>227.0</ele><time>2026-05-02T10:00:02.181Z</time></trkpt><trkpt lat="40.3232676" lon="9.4394242"><ele>228.0</ele><time>2026-05-02T10:00:03.18Z</time></trkpt><trkpt lat="40.3231106" lon="9.4393492"><ele>226.33333333333331</ele><time>2026-05-02T10:00:04.181Z</time></trkpt><trkpt lat="40.3229671" lon="9.4392577"><ele>224.66666666666666</ele><time>2026-05-02T10:00:05.18Z</time></trkpt><trkpt lat="40.3228501" lon="9.4391261"><ele>223.0</ele><time>2026-05-02T10:00:06.181Z</time></trkpt><trkpt lat="40.3227399" lon="9.4389622"><ele>225.0</ele><time>2026-05-02T10:00:07.18Z</time></trkpt><trkpt lat="40.322628" lon="9.4387759"><ele>227.0</ele><time>2026-05-02T10:00:08.181Z</time></trkpt><trkpt lat="40.3225043" lon="9.438574"><ele>229.0</ele><time>2026-05-02T10:00:09.181Z</time></trkpt><trkpt lat="40.3223698" lon="9.4383623"><ele>226.0</ele><time>2026-05-02T10:00:10.18Z</time></trkpt><trkpt lat="40.3222241" lon="9.4381686"><ele>223.0</ele><time>2026-05-02T10:00:11.181Z</time></trkpt><trkpt lat="40.3220661" lon="9.4379934"><ele>220.0</ele><time>2026-05-02T10:00:12.181Z</time></trkpt><trkpt lat="40.3219006" lon="9.4378256"><ele>220.0</ele><time>2026-05-02T10:00:13.18Z</time></trkpt><trkpt lat="40.3217443" lon="9.4376437"><ele>220.0</ele><time>2026-05-02T10:00:14.18Z</time></trkpt><trkpt lat="40.3215993" lon="9.4374368"><ele>220.0</ele><time>2026-05-02T10:00:15.18Z</time></trkpt><trkpt lat="40.3214628" lon="9.4372107"><ele>218.0</ele><time>2026-05-02T10:00:16.181Z</time></trkpt><trkpt lat="40.3213262" lon="9.4369724"><ele>216.0</ele><time>2026-05-02T10:00:17.181Z</time></trkpt><trkpt lat="40.3211845" lon="9.4367288"><ele>216.0</ele><time>2026-05-02T10:00:18.181Z</time></trkpt><trkpt lat="40.3210398" lon="9.4364798"><ele>216.0</ele><time>2026-05-02T10:00:19.18Z</time></trkpt><trkpt lat="40.320891" lon="9.4362253"><ele>217.5</ele><time>2026-05-02T10:00:20.181Z</time></trkpt><trkpt lat="40.3207425" lon="9.4359699"><ele>219.0</ele><time>2026-05-02T10:00:21.18Z</time></trkpt><trkpt lat="40.3206014" lon="9.435723"><ele>216.5</ele><time>2026-05-02T10:00:22.181Z</time></trkpt><trkpt lat="40.3204589" lon="9.4354756"><ele>214.0</ele><time>2026-05-02T10:00:23.181Z</time></trkpt><trkpt lat="40.3203162" lon="9.4352279"><ele>214.0</ele><time>2026-05-02T10:00:24.181Z</time></trkpt><trkpt lat="40.3201729" lon="9.4349786"><ele>214.0</ele><time>2026-05-02T10:00:25.18Z</time></trkpt><trkpt lat="40.3200288" lon="9.4347284"><ele>215.5</ele><time>2026-05-02T10:00:26.181Z</time></trkpt><trkpt lat="40.3198838" lon="9.434481"><ele>217.0</ele><time>2026-05-02T10:00:27.181Z</time></trkpt><trkpt lat="40.319747" lon="9.4342443"><ele>215.66666666666666</ele><time>2026-05-02T10:00:28.181Z</time></trkpt><trkpt lat="40.3196138" lon="9.4340085"><ele>214.33333333333331</ele><time>2026-05-02T10:00:29.181Z</time></trkpt><trkpt lat="40.3194811" lon="9.4337728"><ele>213.0</ele><time>2026-05-02T10:00:30.181Z</time></trkpt><trkpt lat="40.3193464" lon="9.4335377"><ele>213.0</ele><time>2026-05-02T10:00:31.18Z</time></trkpt><trkpt lat="40.3192111" lon="9.4333046"><ele>213.0</ele><time>2026-05-02T10:00:32.18Z</time></trkpt><trkpt lat="40.3190769" lon="9.433081"><ele>213.0</ele><time>2026-05-02T10:00:33.181Z</time></trkpt><trkpt lat="40.3189496" lon="9.4328674"><ele>210.66666666666669</ele><time>2026-05-02T10:00:34.18Z</time></trkpt><trkpt lat="40.3188382" lon="9.432651"><ele>208.33333333333334</ele><time>2026-05-02T10:00:35.18Z</time></trkpt><trkpt lat="40.3187392" lon="9.4324192"><ele>206.0</ele><time>2026-05-02T10:00:36.18Z</time></trkpt><trkpt lat="40.3186535" lon="9.4321752"><ele>206.66666666666669</ele><time>2026-05-02T10:00:37.18Z</time></trkpt><trkpt lat="40.3185757" lon="9.431923"><ele>207.33333333333331</ele><time>2026-05-02T10:00:38.18Z</time></trkpt><trkpt lat="40.3185026" lon="9.4316649"><ele>208.0</ele><time>2026-05-02T10:00:39.18Z</time></trkpt><trkpt lat="40.3184297" lon="9.4314007"><ele>209.66666666666666</ele><time>2026-05-02T10:00:40.18Z</time></trkpt><trkpt lat="40.3183583" lon="9.4311315"><ele>211.33333333333331</ele><time>2026-05-02T10:00:41.18Z</time></trkpt><trkpt lat="40.3182851" lon="9.4308545"><ele>213.0</ele><time>2026-05-02T10:00:42.181Z</time></trkpt><trkpt lat="40.3182048" lon="9.4305703"><ele>214.66666666666669</ele><time>2026-05-02T10:00:43.18Z</time></trkpt><trkpt lat="40.3181128" lon="9.4303061"><ele>216.33333333333334</ele><time>2026-05-02T10:00:44.181Z</time></trkpt><trkpt lat="40.3180031" lon="9.4300512"><ele>218.0</ele><time>2026-05-02T10:00:45.18Z</time></trkpt><trkpt lat="40.3178768" lon="9.4298088"><ele>214.0</ele><time>2026-05-02T10:00:46.18Z</time></trkpt><trkpt lat="40.3177397" lon="9.4295748"><ele>210.0</ele><time>2026-05-02T10:00:47.18Z</time></trkpt><trkpt lat="40.3175977" lon="9.4293431"><ele>210.0</ele><time>2026-05-02T10:00:48.18Z</time></trkpt><trkpt lat="40.3174614" lon="9.4291199"><ele>210.0</ele><time>2026-05-02T10:00:49.18Z</time></trkpt><trkpt lat="40.3173355" lon="9.4288996"><ele>210.0</ele><time>2026-05-02T10:00:50.18Z</time></trkpt><trkpt lat="40.317222" lon="9.4286805"><ele>207.66666666666669</ele><time>2026-05-02T10:00:51.18Z</time></trkpt><trkpt lat="40.3171287" lon="9.4284575"><ele>205.33333333333334</ele><time>2026-05-02T10:00:52.181Z</time></trkpt><trkpt lat="40.3170684" lon="9.4282252"><ele>203.0</ele><time>2026-05-02T10:00:53.18Z</time></trkpt><trkpt lat="40.3170301" lon="9.4279813"><ele>203.33333333333334</ele><time>2026-05-02T10:00:54.181Z</time></trkpt><trkpt lat="40.3169836" lon="9.4277424"><ele>203.66666666666669</ele><time>2026-05-02T10:00:55.18Z</time></trkpt><trkpt lat="40.3169062" lon="9.4275294"><ele>204.0</ele><time>2026-05-02T10:00:56.181Z</time></trkpt><trkpt lat="40.3168106" lon="9.4273254"><ele>204.66666666666669</ele><time>2026-05-02T10:00:57.181Z</time></trkpt><trkpt lat="40.3167055" lon="9.4271174"><ele>205.33333333333334</ele><time>2026-05-02T10:00:58.181Z</time></trkpt><trkpt lat="40.3165936" lon="9.4269043"><ele>206.0</ele><time>2026-05-02T10:00:59.18Z</time></trkpt><trkpt lat="40.3164818" lon="9.4266884"><ele>204.33333333333334</ele><time>2026-05-02T10:01:00.18Z</time></trkpt><trkpt lat="40.3163727" lon="9.426471"><ele>202.66666666666669</ele><time>2026-05-02T10:01:01.181Z</time></trkpt><trkpt lat="40.3162783" lon="9.4262516"><ele>201.0</ele><time>2026-05-02T10:01:02.181Z</time></trkpt><trkpt lat="40.3162019" lon="9.4260188"><ele>201.0</ele><time>2026-05-02T10:01:03.18Z</time></trkpt><trkpt lat="40.3161512" lon="9.4257786"><ele>201.0</ele><time>2026-05-02T10:01:04.181Z</time></trkpt><trkpt lat="40.3161276" lon="9.4255303"><ele>201.0</ele><time>2026-05-02T10:01:05.181Z</time></trkpt><trkpt lat="40.316128" lon="9.4252753"><ele>201.0</ele><time>2026-05-02T10:01:06.181Z</time></trkpt><trkpt lat="40.3161415" lon="9.425004"><ele>201.0</ele><time>2026-05-02T10:01:07.181Z</time></trkpt><trkpt lat="40.3161576" lon="9.4247237"><ele>201.0</ele><time>2026-05-02T10:01:08.18Z</time></trkpt><trkpt lat="40.3161756" lon="9.4244371"><ele>199.5</ele><time>2026-05-02T10:01:09.181Z</time></trkpt><trkpt lat="40.3161932" lon="9.4241425"><ele>198.0</ele><time>2026-05-02T10:01:10.181Z</time></trkpt><trkpt lat="40.3162119" lon="9.4238399"><ele>197.5</ele><time>2026-05-02T10:01:11.181Z</time></trkpt><trkpt lat="40.3162323" lon="9.4235329"><ele>197.0</ele><time>2026-05-02T10:01:12.18Z</time></trkpt><trkpt lat="40.3162539" lon="9.4232212"><ele>197.5</ele><time>2026-05-02T10:01:13.181Z</time></trkpt><trkpt lat="40.3162758" lon="9.4229044"><ele>198.0</ele><time>2026-05-02T10:01:14.18Z</time></trkpt><trkpt lat="40.3162971" lon="9.4225844"><ele>198.0</ele><time>2026-05-02T10:01:15.181Z</time></trkpt><trkpt lat="40.3163178" lon="9.4222603"><ele>198.0</ele><time>2026-05-02T10:01:16.18Z</time></trkpt><trkpt lat="40.31634" lon="9.4219339"><ele>199.0</ele><time>2026-05-02T10:01:17.181Z</time></trkpt><trkpt lat="40.3163633" lon="9.4216064"><ele>200.0</ele><time>2026-05-02T10:01:18.18Z</time></trkpt><trkpt lat="40.316386" lon="9.4212782"><ele>201.5</ele><time>2026-05-02T10:01:19.181Z</time></trkpt><trkpt lat="40.3164074" lon="9.4209477"><ele>203.0</ele><time>2026-05-02T10:01:20.18Z</time></trkpt><trkpt lat="40.3164288" lon="9.4206156"><ele>204.5</ele><time>2026-05-02T10:01:21.181Z</time></trkpt><trkpt lat="40.3164506" lon="9.4202839"><ele>206.0</ele><time>2026-05-02T10:01:22.18Z</time></trkpt><trkpt lat="40.3164727" lon="9.4199499"><ele>207.0</ele><time>2026-05-02T10:01:23.181Z</time></trkpt><trkpt lat="40.316496" lon="9.4196145"><ele>208.0</ele><time>2026-05-02T10:01:24.18Z</time></trkpt><trkpt lat="40.3165193" lon="9.4192769"><ele>208.0</ele><time>2026-05-02T10:01:25.181Z</time></trkpt><trkpt lat="40.3165405" lon="9.4189369"><ele>208.0</ele><time>2026-05-02T10:01:26.181Z</time></trkpt><trkpt lat="40.3165613" lon="9.4185947"><ele>208.0</ele><time>2026-05-02T10:01:27.181Z</time></trkpt><trkpt lat="40.3165822" lon="9.4182517"><ele>208.0</ele><time>2026-05-02T10:01:28.181Z</time></trkpt><trkpt lat="40.3166038" lon="9.4179076"><ele>209.0</ele><time>2026-05-02T10:01:29.181Z</time></trkpt><trkpt lat="40.3166265" lon="9.4175646"><ele>210.0</ele><time>2026-05-02T10:01:30.181Z</time></trkpt><trkpt lat="40.3166492" lon="9.4172218"><ele>210.0</ele><time>2026-05-02T10:01:31.181Z</time></trkpt><trkpt lat="40.3166724" lon="9.4168823"><ele>210.0</ele><time>2026-05-02T10:01:32.18Z</time></trkpt><trkpt lat="40.3166956" lon="9.416546"><ele>210.5</ele><time>2026-05-02T10:01:33.181Z</time></trkpt><trkpt lat="40.3167176" lon="9.416217"><ele>211.0</ele><time>2026-05-02T10:01:34.18Z</time></trkpt><trkpt lat="40.3167372" lon="9.4159088"><ele>211.0</ele><time>2026-05-02T10:01:35.181Z</time></trkpt><trkpt lat="40.3167549" lon="9.4156043"><ele>211.0</ele><time>2026-05-02T10:01:36.181Z</time></trkpt><trkpt lat="40.3167672" lon="9.4153004"><ele>214.0</ele><time>2026-05-02T10:01:37.181Z</time></trkpt><trkpt lat="40.3167649" lon="9.4149982"><ele>217.0</ele><time>2026-05-02T10:01:38.18Z</time></trkpt><trkpt lat="40.3167393" lon="9.4146995"><ele>219.5</ele><time>2026-05-02T10:01:39.18Z</time></trkpt><trkpt lat="40.3166966" lon="9.4143998"><ele>222.0</ele><time>2026-05-02T10:01:40.18Z</time></trkpt><trkpt lat="40.3166461" lon="9.414098"><ele>224.0</ele><time>2026-05-02T10:01:41.181Z</time></trkpt><trkpt lat="40.316595" lon="9.4137928"><ele>226.0</ele><time>2026-05-02T10:01:42.181Z</time></trkpt><trkpt lat="40.3165437" lon="9.413486"><ele>226.0</ele><time>2026-05-02T10:01:43.18Z</time></trkpt><trkpt lat="40.3164925" lon="9.413176"><ele>226.0</ele><time>2026-05-02T10:01:44.18Z</time></trkpt><trkpt lat="40.3164407" lon="9.4128617"><ele>229.0</ele><time>2026-05-02T10:01:45.181Z</time></trkpt><trkpt lat="40.3163893" lon="9.4125427"><ele>232.0</ele><time>2026-05-02T10:01:46.181Z</time></trkpt><trkpt lat="40.3163366" lon="9.4122205"><ele>232.0</ele><time>2026-05-02T10:01:47.181Z</time></trkpt><trkpt lat="40.3162813" lon="9.4118991"><ele>232.0</ele><time>2026-05-02T10:01:48.18Z</time></trkpt><trkpt lat="40.3162254" lon="9.4115767"><ele>233.0</ele><time>2026-05-02T10:01:49.181Z</time></trkpt><trkpt lat="40.3161711" lon="9.4112569"><ele>234.0</ele><time>2026-05-02T10:01:50.18Z</time></trkpt><trkpt lat="40.3161174" lon="9.4109406"><ele>234.0</ele><time>2026-05-02T10:01:51.181Z</time></trkpt><trkpt lat="40.3160667" lon="9.4106439"><ele>234.0</ele><time>2026-05-02T10:01:52.181Z</time></trkpt><trkpt lat="40.3160184" lon="9.4103636"><ele>234.66666666666669</ele><time>2026-05-02T10:01:53.18Z</time></trkpt><trkpt lat="40.3159692" lon="9.4100912"><ele>235.33333333333334</ele><time>2026-05-02T10:01:54.18Z</time></trkpt><trkpt lat="40.3159132" lon="9.4098224"><ele>236.0</ele><time>2026-05-02T10:01:55.18Z</time></trkpt><trkpt lat="40.3158373" lon="9.409567"><ele>236.0</ele><time>2026-05-02T10:01:56.18Z</time></trkpt><trkpt lat="40.3157423" lon="9.4093256"><ele>236.0</ele><time>2026-05-02T10:01:57.18Z</time></trkpt><trkpt lat="40.3156314" lon="9.409092"><ele>236.0</ele><time>2026-05-02T10:01:58.18Z</time></trkpt><trkpt lat="40.3155094" lon="9.4088486"><ele>234.5</ele><time>2026-05-02T10:01:59.181Z</time></trkpt><trkpt lat="40.3153841" lon="9.4086032"><ele>233.0</ele><time>2026-05-02T10:02:00.181Z</time></trkpt><trkpt lat="40.3152532" lon="9.4083474"><ele>233.0</ele><time>2026-05-02T10:02:01.181Z</time></trkpt><trkpt lat="40.3151197" lon="9.4080853"><ele>233.0</ele><time>2026-05-02T10:02:02.18Z</time></trkpt><trkpt lat="40.3149842" lon="9.4078162"><ele>235.0</ele><time>2026-05-02T10:02:03.18Z</time></trkpt><trkpt lat="40.3148472" lon="9.407543"><ele>237.0</ele><time>2026-05-02T10:02:04.18Z</time></trkpt><trkpt lat="40.314708" lon="9.4072682"><ele>234.0</ele><time>2026-05-02T10:02:05.18Z</time></trkpt><trkpt lat="40.3145677" lon="9.406993"><ele>231.0</ele><time>2026-05-02T10:02:06.181Z</time></trkpt><trkpt lat="40.3144266" lon="9.4067142"><ele>231.0</ele><time>2026-05-02T10:02:07.181Z</time></trkpt><trkpt lat="40.3142842" lon="9.4064333"><ele>231.0</ele><time>2026-05-02T10:02:08.181Z</time></trkpt><trkpt lat="40.3141406" lon="9.4061517"><ele>233.0</ele><time>2026-05-02T10:02:09.18Z</time></trkpt><trkpt lat="40.313996" lon="9.4058705"><ele>235.0</ele><time>2026-05-02T10:02:10.181Z</time></trkpt><trkpt lat="40.3138538" lon="9.4055902"><ele>236.0</ele><time>2026-05-02T10:02:11.181Z</time></trkpt><trkpt lat="40.3137124" lon="9.4053074"><ele>237.0</ele><time>2026-05-02T10:02:12.18Z</time></trkpt><trkpt lat="40.313573" lon="9.4050287"><ele>237.0</ele><time>2026-05-02T10:02:13.181Z</time></trkpt><trkpt lat="40.3134331" lon="9.4047509"><ele>237.0</ele><time>2026-05-02T10:02:14.181Z</time></trkpt><trkpt lat="40.3132922" lon="9.4044731"><ele>238.0</ele><time>2026-05-02T10:02:15.181Z</time></trkpt><trkpt lat="40.3131542" lon="9.404203"><ele>239.0</ele><time>2026-05-02T10:02:16.181Z</time></trkpt><trkpt lat="40.3130124" lon="9.4039247"><ele>240.5</ele><time>2026-05-02T10:02:17.18Z</time></trkpt><trkpt lat="40.3128707" lon="9.4036397"><ele>242.0</ele><time>2026-05-02T10:02:18.181Z</time></trkpt><trkpt lat="40.3127271" lon="9.403357"><ele>242.0</ele><time>2026-05-02T10:02:19.18Z</time></trkpt><trkpt lat="40.3125856" lon="9.4030768"><ele>242.0</ele><time>2026-05-02T10:02:20.181Z</time></trkpt><trkpt lat="40.3124457" lon="9.4028021"><ele>242.5</ele><time>2026-05-02T10:02:21.181Z</time></trkpt><trkpt lat="40.3123108" lon="9.4025279"><ele>243.0</ele><time>2026-05-02T10:02:22.18Z</time></trkpt><trkpt lat="40.312177" lon="9.4022554"><ele>245.0</ele><time>2026-05-02T10:02:23.18Z</time></trkpt><trkpt lat="40.3120467" lon="9.4019902"><ele>247.0</ele><time>2026-05-02T10:02:24.181Z</time></trkpt><trkpt lat="40.311915" lon="9.4017302"><ele>247.0</ele><time>2026-05-02T10:02:25.181Z</time></trkpt><trkpt lat="40.3117846" lon="9.4014698"><ele>247.0</ele><time>2026-05-02T10:02:26.181Z</time></trkpt><trkpt lat="40.3116522" lon="9.4012146"><ele>248.0</ele><time>2026-05-02T10:02:27.181Z</time></trkpt><trkpt lat="40.3115234" lon="9.4009633"><ele>249.0</ele><time>2026-05-02T10:02:28.18Z</time></trkpt><trkpt lat="40.3114035" lon="9.4007193"><ele>250.33333333333331</ele><time>2026-05-02T10:02:29.181Z</time></trkpt><trkpt lat="40.3112866" lon="9.4004859"><ele>251.66666666666666</ele><time>2026-05-02T10:02:30.18Z</time></trkpt><trkpt lat="40.3111707" lon="9.4002547"><ele>253.0</ele><time>2026-05-02T10:02:31.181Z</time></trkpt><trkpt lat="40.3110533" lon="9.4000184"><ele>253.0</ele><time>2026-05-02T10:02:32.18Z</time></trkpt><trkpt lat="40.310933" lon="9.3997804"><ele>253.0</ele><time>2026-05-02T10:02:33.181Z</time></trkpt><trkpt lat="40.3108102" lon="9.3995362"><ele>253.0</ele><time>2026-05-02T10:02:34.181Z</time></trkpt><trkpt lat="40.3106856" lon="9.3992899"><ele>252.5</ele><time>2026-05-02T10:02:35.18Z</time></trkpt><trkpt lat="40.3105572" lon="9.3990399"><ele>252.0</ele><time>2026-05-02T10:02:36.18Z</time></trkpt><trkpt lat="40.3104315" lon="9.3987846"><ele>254.0</ele><time>2026-05-02T10:02:37.181Z</time></trkpt><trkpt lat="40.3103026" lon="9.39853"><ele>256.0</ele><time>2026-05-02T10:02:38.18Z</time></trkpt><trkpt lat="40.3101773" lon="9.3982817"><ele>256.0</ele><time>2026-05-02T10:02:39.181Z</time></trkpt><trkpt lat="40.3100623" lon="9.3980558"><ele>256.0</ele><time>2026-05-02T10:02:40.18Z</time></trkpt><trkpt lat="40.3099607" lon="9.397859"><ele>256.0</ele><time>2026-05-02T10:02:41.18Z</time></trkpt><trkpt lat="40.3098774" lon="9.3976724"><ele>257.0</ele><time>2026-05-02T10:02:42.181Z</time></trkpt><trkpt lat="40.3098183" lon="9.3974913"><ele>258.0</ele><time>2026-05-02T10:02:43.181Z</time></trkpt><trkpt lat="40.309795" lon="9.3972986"><ele>259.0</ele><time>2026-05-02T10:02:44.18Z</time></trkpt><trkpt lat="40.309804" lon="9.3971027"><ele>260.0</ele><time>2026-05-02T10:02:45.181Z</time></trkpt><trkpt lat="40.3098413" lon="9.396895"><ele>262.33333333333337</ele><time>2026-05-02T10:02:46.181Z</time></trkpt><trkpt lat="40.3098872" lon="9.396673"><ele>264.6666666666667</ele><time>2026-05-02T10:02:47.18Z</time></trkpt><trkpt lat="40.3099362" lon="9.3964495"><ele>267.0</ele><time>2026-05-02T10:02:48.18Z</time></trkpt><trkpt lat="40.3099768" lon="9.3962446"><ele>269.0</ele><time>2026-05-02T10:02:49.181Z</time></trkpt><trkpt lat="40.309995" lon="9.3960596"><ele>271.0</ele><time>2026-05-02T10:02:50.181Z</time></trkpt><trkpt lat="40.3099611" lon="9.3959062"><ele>273.0</ele><time>2026-05-02T10:02:51.18Z</time></trkpt><trkpt lat="40.3098905" lon="9.3957699"><ele>275.0</ele><time>2026-05-02T10:02:52.181Z</time></trkpt><trkpt lat="40.3097858" lon="9.395657"><ele>275.0</ele><time>2026-05-02T10:02:53.181Z</time></trkpt><trkpt lat="40.3096699" lon="9.3955523"><ele>275.0</ele><time>2026-05-02T10:02:54.18Z</time></trkpt><trkpt lat="40.3095557" lon="9.3954326"><ele>275.0</ele><time>2026-05-02T10:02:55.18Z</time></trkpt><trkpt lat="40.3094558" lon="9.3952834"><ele>275.0</ele><time>2026-05-02T10:02:56.181Z</time></trkpt><trkpt lat="40.3093674" lon="9.3951083"><ele>275.0</ele><time>2026-05-02T10:02:57.18Z</time></trkpt><trkpt lat="40.3092908" lon="9.394905"><ele>275.0</ele><time>2026-05-02T10:02:58.181Z</time></trkpt><trkpt lat="40.3092248" lon="9.3946816"><ele>275.0</ele><time>2026-05-02T10:02:59.181Z</time></trkpt><trkpt lat="40.3091587" lon="9.3944446"><ele>279.0</ele><time>2026-05-02T10:03:00.18Z</time></trkpt><trkpt lat="40.3090946" lon="9.3942069"><ele>283.0</ele><time>2026-05-02T10:03:01.18Z</time></trkpt><trkpt lat="40.3090335" lon="9.3939895"><ele>287.0</ele><time>2026-05-02T10:03:02.18Z</time></trkpt><trkpt lat="40.3089808" lon="9.3937777"><ele>288.0</ele><time>2026-05-02T10:03:03.18Z</time></trkpt><trkpt lat="40.3089543" lon="9.3935734"><ele>289.0</ele><time>2026-05-02T10:03:04.18Z</time></trkpt><trkpt lat="40.3089651" lon="9.3933777"><ele>290.0</ele><time>2026-05-02T10:03:05.18Z</time></trkpt><trkpt lat="40.309006" lon="9.393198"><ele>290.0</ele><time>2026-05-02T10:03:06.181Z</time></trkpt><trkpt lat="40.3090855" lon="9.3930388"><ele>290.0</ele><time>2026-05-02T10:03:07.18Z</time></trkpt><trkpt lat="40.3091972" lon="9.3929047"><ele>290.0</ele><time>2026-05-02T10:03:08.18Z</time></trkpt><trkpt lat="40.3093311" lon="9.39279"><ele>287.33333333333337</ele><time>2026-05-02T10:03:09.181Z</time></trkpt><trkpt lat="40.3094736" lon="9.3926767"><ele>284.6666666666667</ele><time>2026-05-02T10:03:10.181Z</time></trkpt><trkpt lat="40.3096033" lon="9.3925307"><ele>282.0</ele><time>2026-05-02T10:03:11.18Z</time></trkpt><trkpt lat="40.3097105" lon="9.3923523"><ele>286.6666666666667</ele><time>2026-05-02T10:03:12.181Z</time></trkpt><trkpt lat="40.3097973" lon="9.3921491"><ele>291.33333333333337</ele><time>2026-05-02T10:03:13.181Z</time></trkpt><trkpt lat="40.3098614" lon="9.3919265"><ele>296.0</ele><time>2026-05-02T10:03:14.181Z</time></trkpt><trkpt lat="40.3099006" lon="9.3916896"><ele>296.0</ele><time>2026-05-02T10:03:15.18Z</time></trkpt><trkpt lat="40.3099081" lon="9.3914441"><ele>296.0</ele><time>2026-05-02T10:03:16.181Z</time></trkpt><trkpt lat="40.3098816" lon="9.3911953"><ele>296.0</ele><time>2026-05-02T10:03:17.18Z</time></trkpt><trkpt lat="40.3098337" lon="9.390944"><ele>298.6666666666667</ele><time>2026-05-02T10:03:18.181Z</time></trkpt><trkpt lat="40.30978" lon="9.3906852"><ele>301.3333333333333</ele><time>2026-05-02T10:03:19.18Z</time></trkpt><trkpt lat="40.3097457" lon="9.3904208"><ele>304.0</ele><time>2026-05-02T10:03:20.181Z</time></trkpt><trkpt lat="40.3097421" lon="9.3901508"><ele>304.0</ele><time>2026-05-02T10:03:21.181Z</time></trkpt><trkpt lat="40.3097667" lon="9.389877"><ele>304.0</ele><time>2026-05-02T10:03:22.181Z</time></trkpt><trkpt lat="40.3098145" lon="9.3896082"><ele>304.0</ele><time>2026-05-02T10:03:23.181Z</time></trkpt><trkpt lat="40.3098941" lon="9.3893415"><ele>304.0</ele><time>2026-05-02T10:03:24.18Z</time></trkpt><trkpt lat="40.3099866" lon="9.3890724"><ele>304.0</ele><time>2026-05-02T10:03:25.18Z</time></trkpt><trkpt lat="40.3100756" lon="9.3887984"><ele>302.0</ele><time>2026-05-02T10:03:26.18Z</time></trkpt><trkpt lat="40.3101548" lon="9.3885145"><ele>300.0</ele><time>2026-05-02T10:03:27.18Z</time></trkpt><trkpt lat="40.3102173" lon="9.3882156"><ele>302.0</ele><time>2026-05-02T10:03:28.18Z</time></trkpt><trkpt lat="40.3102601" lon="9.3879089"><ele>304.0</ele><time>2026-05-02T10:03:29.18Z</time></trkpt><trkpt lat="40.3102831" lon="9.3875916"><ele>304.0</ele><time>2026-05-02T10:03:30.181Z</time></trkpt><trkpt lat="40.3103016" lon="9.3872605"><ele>304.0</ele><time>2026-05-02T10:03:31.181Z</time></trkpt><trkpt lat="40.3103186" lon="9.3869239"><ele>305.0</ele><time>2026-05-02T10:03:32.18Z</time></trkpt><trkpt lat="40.3103379" lon="9.3865831"><ele>306.0</ele><time>2026-05-02T10:03:33.181Z</time></trkpt><trkpt lat="40.3103555" lon="9.386261"><ele>306.6666666666667</ele><time>2026-05-02T10:03:34.181Z</time></trkpt><trkpt lat="40.3103705" lon="9.3859655"><ele>307.33333333333337</ele><time>2026-05-02T10:03:35.18Z</time></trkpt><trkpt lat="40.3103774" lon="9.3856962"><ele>308.0</ele><time>2026-05-02T10:03:36.18Z</time></trkpt><trkpt lat="40.3103533" lon="9.3854467"><ele>310.0</ele><time>2026-05-02T10:03:37.18Z</time></trkpt><trkpt lat="40.3103012" lon="9.3852119"><ele>312.0</ele><time>2026-05-02T10:03:38.18Z</time></trkpt><trkpt lat="40.3102211" lon="9.3849984"><ele>314.0</ele><time>2026-05-02T10:03:39.181Z</time></trkpt><trkpt lat="40.3101177" lon="9.3848037"><ele>316.6666666666667</ele><time>2026-05-02T10:03:40.18Z</time></trkpt><trkpt lat="40.3100355" lon="9.3845946"><ele>319.3333333333333</ele><time>2026-05-02T10:03:41.18Z</time></trkpt><trkpt lat="40.3099786" lon="9.3843621"><ele>322.0</ele><time>2026-05-02T10:03:42.18Z</time></trkpt><trkpt lat="40.3099349" lon="9.3841091"><ele>324.0</ele><time>2026-05-02T10:03:43.181Z</time></trkpt><trkpt lat="40.3098966" lon="9.3838403"><ele>326.0</ele><time>2026-05-02T10:03:44.181Z</time></trkpt><trkpt lat="40.3098561" lon="9.3835831"><ele>328.0</ele><time>2026-05-02T10:03:45.18Z</time></trkpt><trkpt lat="40.30981" lon="9.3833538"><ele>327.3333333333333</ele><time>2026-05-02T10:03:46.18Z</time></trkpt><trkpt lat="40.3097354" lon="9.38316"><ele>326.6666666666667</ele><time>2026-05-02T10:03:47.18Z</time></trkpt><trkpt lat="40.3096297" lon="9.3829968"><ele>326.0</ele><time>2026-05-02T10:03:48.18Z</time></trkpt><trkpt lat="40.3095213" lon="9.3828319"><ele>326.0</ele><time>2026-05-02T10:03:49.181Z</time></trkpt><trkpt lat="40.309427" lon="9.382632"><ele>326.0</ele><time>2026-05-02T10:03:50.18Z</time></trkpt><trkpt lat="40.3093489" lon="9.3824041"><ele>326.0</ele><time>2026-05-02T10:03:51.181Z</time></trkpt><trkpt lat="40.309282" lon="9.3821578"><ele>328.33333333333337</ele><time>2026-05-02T10:03:52.181Z</time></trkpt><trkpt lat="40.3092043" lon="9.3819176"><ele>330.6666666666667</ele><time>2026-05-02T10:03:53.18Z</time></trkpt><trkpt lat="40.3091014" lon="9.3816964"><ele>333.0</ele><time>2026-05-02T10:03:54.18Z</time></trkpt><trkpt lat="40.3089683" lon="9.3814959"><ele>333.6666666666667</ele><time>2026-05-02T10:03:55.181Z</time></trkpt><trkpt lat="40.3088137" lon="9.3813021"><ele>334.33333333333337</ele><time>2026-05-02T10:03:56.181Z</time></trkpt><trkpt lat="40.308647" lon="9.381104"><ele>335.0</ele><time>2026-05-02T10:03:57.181Z</time></trkpt><trkpt lat="40.3084858" lon="9.3809057"><ele>335.0</ele><time>2026-05-02T10:03:58.18Z</time></trkpt><trkpt lat="40.3083411" lon="9.3807119"><ele>335.0</ele><time>2026-05-02T10:03:59.18Z</time></trkpt><trkpt lat="40.3082209" lon="9.3805076"><ele>335.0</ele><time>2026-05-02T10:04:00.181Z</time></trkpt><trkpt lat="40.3081352" lon="9.3802937"><ele>334.0</ele><time>2026-05-02T10:04:01.18Z</time></trkpt><trkpt lat="40.3080777" lon="9.3800676"><ele>333.0</ele><time>2026-05-02T10:04:02.181Z</time></trkpt><trkpt lat="40.3080568" lon="9.3798192"><ele>332.0</ele><time>2026-05-02T10:04:03.18Z</time></trkpt><trkpt lat="40.3080403" lon="9.3795582"><ele>334.0</ele><time>2026-05-02T10:04:04.181Z</time></trkpt><trkpt lat="40.3080202" lon="9.3792754"><ele>336.0</ele><time>2026-05-02T10:04:05.181Z</time></trkpt><trkpt lat="40.3080039" lon="9.3789979"><ele>338.0</ele><time>2026-05-02T10:04:06.181Z</time></trkpt><trkpt lat="40.30799" lon="9.3787419"><ele>339.6666666666667</ele><time>2026-05-02T10:04:07.18Z</time></trkpt><trkpt lat="40.3079649" lon="9.3785084"><ele>341.3333333333333</ele><time>2026-05-02T10:04:08.18Z</time></trkpt><trkpt lat="40.3079115" lon="9.3783085"><ele>343.0</ele><time>2026-05-02T10:04:09.18Z</time></trkpt><trkpt lat="40.307824" lon="9.378149"><ele>343.0</ele><time>2026-05-02T10:04:10.18Z</time></trkpt><trkpt lat="40.307707" lon="9.3780549"><ele>343.0</ele><time>2026-05-02T10:04:11.181Z</time></trkpt><trkpt lat="40.3075669" lon="9.3780141"><ele>343.0</ele><time>2026-05-02T10:04:12.18Z</time></trkpt><trkpt lat="40.3074024" lon="9.3780173"><ele>343.0</ele><time>2026-05-02T10:04:13.181Z</time></trkpt><trkpt lat="40.3072248" lon="9.3780274"><ele>344.25</ele><time>2026-05-02T10:04:14.18Z</time></trkpt><trkpt lat="40.3070511" lon="9.3780097"><ele>345.5</ele><time>2026-05-02T10:04:15.181Z</time></trkpt><trkpt lat="40.3069133" lon="9.3779648"><ele>346.75</ele><time>2026-05-02T10:04:16.181Z</time></trkpt><trkpt lat="40.3068175" lon="9.3778938"><ele>348.0</ele><time>2026-05-02T10:04:17.18Z</time></trkpt><trkpt lat="40.3067513" lon="9.3777862"><ele>348.0</ele><time>2026-05-02T10:04:18.181Z</time></trkpt><trkpt lat="40.3067108" lon="9.3776311"><ele>348.0</ele><time>2026-05-02T10:04:19.181Z</time></trkpt><trkpt lat="40.3066761" lon="9.3774273"><ele>348.0</ele><time>2026-05-02T10:04:20.18Z</time></trkpt><trkpt lat="40.3066372" lon="9.3772204"><ele>348.0</ele><time>2026-05-02T10:04:21.18Z</time></trkpt><trkpt lat="40.3065751" lon="9.3770505"><ele>345.3333333333333</ele><time>2026-05-02T10:04:22.181Z</time></trkpt><trkpt lat="40.3064789" lon="9.3769035"><ele>342.66666666666663</ele><time>2026-05-02T10:04:23.18Z</time></trkpt><trkpt lat="40.3063549" lon="9.3767886"><ele>340.0</ele><time>2026-05-02T10:04:24.18Z</time></trkpt><trkpt lat="40.3062004" lon="9.3767106"><ele>340.0</ele><time>2026-05-02T10:04:25.18Z</time></trkpt><trkpt lat="40.3060362" lon="9.3766275"><ele>340.0</ele><time>2026-05-02T10:04:26.18Z</time></trkpt><trkpt lat="40.3058797" lon="9.3764837"><ele>340.0</ele><time>2026-05-02T10:04:27.181Z</time></trkpt><trkpt lat="40.3057261" lon="9.3763109"><ele>337.0</ele><time>2026-05-02T10:04:28.18Z</time></trkpt><trkpt lat="40.3055892" lon="9.3761154"><ele>334.0</ele><time>2026-05-02T10:04:29.181Z</time></trkpt><trkpt lat="40.3054757" lon="9.3758908"><ele>331.0</ele><time>2026-05-02T10:04:30.181Z</time></trkpt><trkpt lat="40.3053753" lon="9.3756425"><ele>333.3333333333333</ele><time>2026-05-02T10:04:31.18Z</time></trkpt><trkpt lat="40.3052777" lon="9.3753966"><ele>335.6666666666667</ele><time>2026-05-02T10:04:32.18Z</time></trkpt><trkpt lat="40.3051815" lon="9.3751671"><ele>338.0</ele><time>2026-05-02T10:04:33.181Z</time></trkpt><trkpt lat="40.3050601" lon="9.3749692"><ele>338.0</ele><time>2026-05-02T10:04:34.181Z</time></trkpt><trkpt lat="40.3049201" lon="9.3747906"><ele>338.0</ele><time>2026-05-02T10:04:35.18Z</time></trkpt><trkpt lat="40.3047841" lon="9.3746155"><ele>338.0</ele><time>2026-05-02T10:04:36.18Z</time></trkpt><trkpt lat="40.3046701" lon="9.3744391"><ele>333.6666666666667</ele><time>2026-05-02T10:04:37.181Z</time></trkpt><trkpt lat="40.3045741" lon="9.3742682"><ele>329.3333333333333</ele><time>2026-05-02T10:04:38.18Z</time></trkpt><trkpt lat="40.3044646" lon="9.3741356"><ele>325.0</ele><time>2026-05-02T10:04:39.18Z</time></trkpt><trkpt lat="40.3043268" lon="9.3740443"><ele>325.0</ele><time>2026-05-02T10:04:40.18Z</time></trkpt><trkpt lat="40.3041826" lon="9.3739721"><ele>325.0</ele><time>2026-05-02T10:04:41.181Z</time></trkpt><trkpt lat="40.3040601" lon="9.3738915"><ele>325.0</ele><time>2026-05-02T10:04:42.18Z</time></trkpt><trkpt lat="40.3039609" lon="9.3737731"><ele>325.0</ele><time>2026-05-02T10:04:43.181Z</time></trkpt><trkpt lat="40.3038913" lon="9.3736092"><ele>320.3333333333333</ele><time>2026-05-02T10:04:44.181Z</time></trkpt><trkpt lat="40.3038358" lon="9.3733987"><ele>315.6666666666667</ele><time>2026-05-02T10:04:45.18Z</time></trkpt><trkpt lat="40.303778" lon="9.373149"><ele>311.0</ele><time>2026-05-02T10:04:46.181Z</time></trkpt><trkpt lat="40.3037123" lon="9.3728731"><ele>311.0</ele><time>2026-05-02T10:04:47.18Z</time></trkpt><trkpt lat="40.3036452" lon="9.3725833"><ele>311.0</ele><time>2026-05-02T10:04:48.18Z</time></trkpt><trkpt lat="40.3035694" lon="9.3722718"><ele>313.5</ele><time>2026-05-02T10:04:49.181Z</time></trkpt><trkpt lat="40.3034906" lon="9.3719423"><ele>316.0</ele><time>2026-05-02T10:04:50.181Z</time></trkpt><trkpt lat="40.30341" lon="9.3716044"><ele>318.0</ele><time>2026-05-02T10:04:51.181Z</time></trkpt><trkpt lat="40.3033312" lon="9.371274"><ele>320.0</ele><time>2026-05-02T10:04:52.18Z</time></trkpt><trkpt lat="40.3032536" lon="9.3709523"><ele>320.0</ele><time>2026-05-02T10:04:53.18Z</time></trkpt><trkpt lat="40.303178" lon="9.3706439"><ele>320.0</ele><time>2026-05-02T10:04:54.181Z</time></trkpt><trkpt lat="40.3031123" lon="9.3703626"><ele>320.33333333333337</ele><time>2026-05-02T10:04:55.181Z</time></trkpt><trkpt lat="40.3030741" lon="9.370109"><ele>320.6666666666667</ele><time>2026-05-02T10:04:56.18Z</time></trkpt><trkpt lat="40.303072" lon="9.3698641"><ele>321.0</ele><time>2026-05-02T10:04:57.181Z</time></trkpt><trkpt lat="40.3030922" lon="9.3696294"><ele>321.0</ele><time>2026-05-02T10:04:58.18Z</time></trkpt><trkpt lat="40.3030843" lon="9.369409"><ele>321.0</ele><time>2026-05-02T10:04:59.18Z</time></trkpt><trkpt lat="40.3030346" lon="9.3692058"><ele>321.0</ele><time>2026-05-02T10:05:00.18Z</time></trkpt><trkpt lat="40.3029694" lon="9.3690062"><ele>313.3333333333333</ele><time>2026-05-02T10:05:01.18Z</time></trkpt><trkpt lat="40.302942" lon="9.3688131"><ele>305.66666666666663</ele><time>2026-05-02T10:05:02.18Z</time></trkpt><trkpt lat="40.302955" lon="9.3686201"><ele>298.0</ele><time>2026-05-02T10:05:03.18Z</time></trkpt><trkpt lat="40.3030003" lon="9.368408"><ele>298.0</ele><time>2026-05-02T10:05:04.18Z</time></trkpt><trkpt lat="40.3030636" lon="9.3681863"><ele>298.0</ele><time>2026-05-02T10:05:05.18Z</time></trkpt><trkpt lat="40.3031081" lon="9.36795"><ele>298.0</ele><time>2026-05-02T10:05:06.181Z</time></trkpt><trkpt lat="40.303122" lon="9.367686"><ele>297.5</ele><time>2026-05-02T10:05:07.181Z</time></trkpt><trkpt lat="40.303108" lon="9.3674006"><ele>297.0</ele><time>2026-05-02T10:05:08.181Z</time></trkpt><trkpt lat="40.3030801" lon="9.3670857"><ele>297.0</ele><time>2026-05-02T10:05:09.18Z</time></trkpt><trkpt lat="40.3030502" lon="9.3667545"><ele>297.0</ele><time>2026-05-02T10:05:10.181Z</time></trkpt><trkpt lat="40.3030263" lon="9.3664331"><ele>297.3333333333333</ele><time>2026-05-02T10:05:11.18Z</time></trkpt><trkpt lat="40.3029992" lon="9.3661329"><ele>297.66666666666663</ele><time>2026-05-02T10:05:12.18Z</time></trkpt><trkpt lat="40.3029752" lon="9.3658531"><ele>298.0</ele><time>2026-05-02T10:05:13.18Z</time></trkpt><trkpt lat="40.3029686" lon="9.3655957"><ele>297.3333333333333</ele><time>2026-05-02T10:05:14.18Z</time></trkpt><trkpt lat="40.3029868" lon="9.3653344"><ele>296.6666666666667</ele><time>2026-05-02T10:05:15.18Z</time></trkpt><trkpt lat="40.303029" lon="9.3650761"><ele>296.0</ele><time>2026-05-02T10:05:16.181Z</time></trkpt><trkpt lat="40.3030766" lon="9.364845"><ele>301.0</ele><time>2026-05-02T10:05:17.181Z</time></trkpt><trkpt lat="40.3031418" lon="9.3646516"><ele>306.0</ele><time>2026-05-02T10:05:18.181Z</time></trkpt><trkpt lat="40.3032345" lon="9.3644907"><ele>311.0</ele><time>2026-05-02T10:05:19.18Z</time></trkpt><trkpt lat="40.3033602" lon="9.3643398"><ele>311.0</ele><time>2026-05-02T10:05:20.18Z</time></trkpt><trkpt lat="40.3035109" lon="9.3641881"><ele>311.0</ele><time>2026-05-02T10:05:21.18Z</time></trkpt><trkpt lat="40.3036427" lon="9.364041"><ele>311.0</ele><time>2026-05-02T10:05:22.18Z</time></trkpt><trkpt lat="40.3037397" lon="9.3639118"><ele>311.0</ele><time>2026-05-02T10:05:23.18Z</time></trkpt><trkpt lat="40.3037925" lon="9.3637763"><ele>311.0</ele><time>2026-05-02T10:05:24.181Z</time></trkpt><trkpt lat="40.3037895" lon="9.3636273"><ele>311.0</ele><time>2026-05-02T10:05:25.18Z</time></trkpt><trkpt lat="40.3037286" lon="9.36349"><ele>311.0</ele><time>2026-05-02T10:05:26.181Z</time></trkpt><trkpt lat="40.3036244" lon="9.3633649"><ele>311.0</ele><time>2026-05-02T10:05:27.181Z</time></trkpt><trkpt lat="40.3034892" lon="9.3632384"><ele>311.0</ele><time>2026-05-02T10:05:28.181Z</time></trkpt><trkpt lat="40.3033775" lon="9.3631064"><ele>311.0</ele><time>2026-05-02T10:05:29.18Z</time></trkpt><trkpt lat="40.3033027" lon="9.3629536"><ele>314.33333333333337</ele><time>2026-05-02T10:05:30.18Z</time></trkpt><trkpt lat="40.3032735" lon="9.3627855"><ele>317.6666666666667</ele><time>2026-05-02T10:05:31.181Z</time></trkpt><trkpt lat="40.3032757" lon="9.3625864"><ele>321.0</ele><time>2026-05-02T10:05:32.181Z</time></trkpt><trkpt lat="40.303299" lon="9.362358"><ele>321.6666666666667</ele><time>2026-05-02T10:05:33.18Z</time></trkpt><trkpt lat="40.3033238" lon="9.3621002"><ele>322.33333333333337</ele><time>2026-05-02T10:05:34.18Z</time></trkpt><trkpt lat="40.3033186" lon="9.3618611"><ele>323.0</ele><time>2026-05-02T10:05:35.18Z</time></trkpt><trkpt lat="40.3032763" lon="9.361618"><ele>323.0</ele><time>2026-05-02T10:05:36.18Z</time></trkpt><trkpt lat="40.3032088" lon="9.3613734"><ele>323.0</ele><time>2026-05-02T10:05:37.181Z</time></trkpt><trkpt lat="40.3031291" lon="9.3611271"><ele>323.0</ele><time>2026-05-02T10:05:38.18Z</time></trkpt><trkpt lat="40.3030505" lon="9.3608875"><ele>318.33333333333337</ele><time>2026-05-02T10:05:39.181Z</time></trkpt><trkpt lat="40.3029833" lon="9.3606741"><ele>313.6666666666667</ele><time>2026-05-02T10:05:40.18Z</time></trkpt><trkpt lat="40.3029274" lon="9.3604775"><ele>309.0</ele><time>2026-05-02T10:05:41.18Z</time></trkpt><trkpt lat="40.3029092" lon="9.3602876"><ele>309.0</ele><time>2026-05-02T10:05:42.18Z</time></trkpt><trkpt lat="40.3029249" lon="9.3600868"><ele>309.0</ele><time>2026-05-02T10:05:43.181Z</time></trkpt><trkpt lat="40.3029688" lon="9.3598869"><ele>309.0</ele><time>2026-05-02T10:05:44.18Z</time></trkpt><trkpt lat="40.3030346" lon="9.3597106"><ele>311.0</ele><time>2026-05-02T10:05:45.181Z</time></trkpt><trkpt lat="40.3031356" lon="9.3595581"><ele>313.0</ele><time>2026-05-02T10:05:46.18Z</time></trkpt><trkpt lat="40.3032637" lon="9.3594443"><ele>315.0</ele><time>2026-05-02T10:05:47.18Z</time></trkpt><trkpt lat="40.3034178" lon="9.3593589"><ele>315.0</ele><time>2026-05-02T10:05:48.181Z</time></trkpt><trkpt lat="40.3035944" lon="9.3592902"><ele>315.0</ele><time>2026-05-02T10:05:49.18Z</time></trkpt><trkpt lat="40.303755" lon="9.3592285"><ele>315.0</ele><time>2026-05-02T10:05:50.18Z</time></trkpt><trkpt lat="40.3038737" lon="9.3591621"><ele>319.25</ele><time>2026-05-02T10:05:51.18Z</time></trkpt><trkpt lat="40.3039584" lon="9.3590606"><ele>323.5</ele><time>2026-05-02T10:05:52.18Z</time></trkpt><trkpt lat="40.3039985" lon="9.3589279"><ele>327.75</ele><time>2026-05-02T10:05:53.18Z</time></trkpt><trkpt lat="40.3039977" lon="9.3587754"><ele>332.0</ele><time>2026-05-02T10:05:54.181Z</time></trkpt><trkpt lat="40.3039544" lon="9.3586197"><ele>332.0</ele><time>2026-05-02T10:05:55.181Z</time></trkpt><trkpt lat="40.3039177" lon="9.358482"><ele>332.0</ele><time>2026-05-02T10:05:56.18Z</time></trkpt><trkpt lat="40.3039091" lon="9.3583352"><ele>332.0</ele><time>2026-05-02T10:05:57.18Z</time></trkpt><trkpt lat="40.3039408" lon="9.3581817"><ele>332.0</ele><time>2026-05-02T10:05:58.18Z</time></trkpt><trkpt lat="40.3039998" lon="9.3580315"><ele>332.5</ele><time>2026-05-02T10:05:59.18Z</time></trkpt><trkpt lat="40.3040726" lon="9.3578801"><ele>333.0</ele><time>2026-05-02T10:06:00.18Z</time></trkpt><trkpt lat="40.3041166" lon="9.3577199"><ele>333.5</ele><time>2026-05-02T10:06:01.181Z</time></trkpt><trkpt lat="40.304104" lon="9.3575433"><ele>334.0</ele><time>2026-05-02T10:06:02.181Z</time></trkpt><trkpt lat="40.3040579" lon="9.3573612"><ele>334.5</ele><time>2026-05-02T10:06:03.18Z</time></trkpt><trkpt lat="40.303993" lon="9.3571733"><ele>335.0</ele><time>2026-05-02T10:06:04.181Z</time></trkpt><trkpt lat="40.3039401" lon="9.3570034"><ele>335.5</ele><time>2026-05-02T10:06:05.18Z</time></trkpt><trkpt lat="40.3039157" lon="9.3568372"><ele>336.0</ele><time>2026-05-02T10:06:06.18Z</time></trkpt><trkpt lat="40.3039327" lon="9.3566805"><ele>336.0</ele><time>2026-05-02T10:06:07.181Z</time></trkpt><trkpt lat="40.3039909" lon="9.3565174"><ele>336.0</ele><time>2026-05-02T10:06:08.18Z</time></trkpt><trkpt lat="40.3040786" lon="9.356359"><ele>336.0</ele><time>2026-05-02T10:06:09.18Z</time></trkpt><trkpt lat="40.3041959" lon="9.3562031"><ele>334.3333333333333</ele><time>2026-05-02T10:06:10.181Z</time></trkpt><trkpt lat="40.304323" lon="9.3560505"><ele>332.66666666666663</ele><time>2026-05-02T10:06:11.181Z</time></trkpt><trkpt lat="40.3044247" lon="9.3559032"><ele>331.0</ele><time>2026-05-02T10:06:12.181Z</time></trkpt><trkpt lat="40.3044971" lon="9.3557363"><ele>331.0</ele><time>2026-05-02T10:06:13.18Z</time></trkpt><trkpt lat="40.3045306" lon="9.3555501"><ele>331.0</ele><time>2026-05-02T10:06:14.18Z</time></trkpt><trkpt lat="40.3045204" lon="9.3553644"><ele>331.0</ele><time>2026-05-02T10:06:15.18Z</time></trkpt><trkpt lat="40.3045005" lon="9.3551872"><ele>331.0</ele><time>2026-05-02T10:06:16.18Z</time></trkpt><trkpt lat="40.304513" lon="9.355023"><ele>329.5</ele><time>2026-05-02T10:06:17.181Z</time></trkpt><trkpt lat="40.3045555" lon="9.3548539"><ele>328.0</ele><time>2026-05-02T10:06:18.18Z</time></trkpt><trkpt lat="40.3046204" lon="9.3546834"><ele>326.5</ele><time>2026-05-02T10:06:19.18Z</time></trkpt><trkpt lat="40.3046991" lon="9.3545212"><ele>325.0</ele><time>2026-05-02T10:06:20.18Z</time></trkpt><trkpt lat="40.3047952" lon="9.3543797"><ele>330.66666666666663</ele><time>2026-05-02T10:06:21.181Z</time></trkpt><trkpt lat="40.3049104" lon="9.3542548"><ele>336.3333333333333</ele><time>2026-05-02T10:06:22.181Z</time></trkpt><trkpt lat="40.3050353" lon="9.3541371"><ele>342.0</ele><time>2026-05-02T10:06:23.18Z</time></trkpt><trkpt lat="40.3051642" lon="9.3540141"><ele>342.0</ele><time>2026-05-02T10:06:24.18Z</time></trkpt><trkpt lat="40.3052862" lon="9.353872"><ele>342.0</ele><time>2026-05-02T10:06:25.18Z</time></trkpt><trkpt lat="40.3053989" lon="9.3537116"><ele>342.0</ele><time>2026-05-02T10:06:26.181Z</time></trkpt><trkpt lat="40.3055073" lon="9.3535427"><ele>346.0</ele><time>2026-05-02T10:06:27.181Z</time></trkpt><trkpt lat="40.305623" lon="9.3533802"><ele>350.0</ele><time>2026-05-02T10:06:28.181Z</time></trkpt><trkpt lat="40.305755" lon="9.3532384"><ele>354.0</ele><time>2026-05-02T10:06:29.181Z</time></trkpt><trkpt lat="40.3059057" lon="9.3531337"><ele>354.0</ele><time>2026-05-02T10:06:30.181Z</time></trkpt><trkpt lat="40.3060709" lon="9.3530573"><ele>354.0</ele><time>2026-05-02T10:06:31.181Z</time></trkpt><trkpt lat="40.3062482" lon="9.3530001"><ele>354.0</ele><time>2026-05-02T10:06:32.181Z</time></trkpt><trkpt lat="40.3064283" lon="9.3529469"><ele>352.0</ele><time>2026-05-02T10:06:33.181Z</time></trkpt><trkpt lat="40.3065949" lon="9.3529044"><ele>350.0</ele><time>2026-05-02T10:06:34.181Z</time></trkpt><trkpt lat="40.3067489" lon="9.3528666"><ele>348.0</ele><time>2026-05-02T10:06:35.181Z</time></trkpt><trkpt lat="40.3068818" lon="9.3527993"><ele>348.0</ele><time>2026-05-02T10:06:36.18Z</time></trkpt><trkpt lat="40.3070001" lon="9.352679"><ele>348.0</ele><time>2026-05-02T10:06:37.181Z</time></trkpt><trkpt lat="40.3071128" lon="9.3525234"><ele>348.0</ele><time>2026-05-02T10:06:38.181Z</time></trkpt><trkpt lat="40.3072292" lon="9.3523435"><ele>350.0</ele><time>2026-05-02T10:06:39.181Z</time></trkpt><trkpt lat="40.3073659" lon="9.3521613"><ele>352.0</ele><time>2026-05-02T10:06:40.181Z</time></trkpt><trkpt lat="40.3075189" lon="9.3519773"><ele>354.0</ele><time>2026-05-02T10:06:41.181Z</time></trkpt><trkpt lat="40.3076831" lon="9.3517851"><ele>354.0</ele><time>2026-05-02T10:06:42.18Z</time></trkpt><trkpt lat="40.3078585" lon="9.3515853"><ele>354.0</ele><time>2026-05-02T10:06:43.181Z</time></trkpt><trkpt lat="40.3080387" lon="9.3513735"><ele>358.5</ele><time>2026-05-02T10:06:44.181Z</time></trkpt><trkpt lat="40.3082135" lon="9.3511577"><ele>363.0</ele><time>2026-05-02T10:06:45.18Z</time></trkpt><trkpt lat="40.3083942" lon="9.3509524"><ele>363.0</ele><time>2026-05-02T10:06:46.181Z</time></trkpt><trkpt lat="40.3085672" lon="9.3507799"><ele>363.0</ele><time>2026-05-02T10:06:47.18Z</time></trkpt><trkpt lat="40.3087382" lon="9.3506219"><ele>363.0</ele><time>2026-05-02T10:06:48.18Z</time></trkpt><trkpt lat="40.3089166" lon="9.3504716"><ele>365.0</ele><time>2026-05-02T10:06:49.181Z</time></trkpt><trkpt lat="40.3090934" lon="9.3503369"><ele>367.0</ele><time>2026-05-02T10:06:50.181Z</time></trkpt><trkpt lat="40.3092572" lon="9.3502269"><ele>369.0</ele><time>2026-05-02T10:06:51.18Z</time></trkpt><trkpt lat="40.3094045" lon="9.3501101"><ele>369.0</ele><time>2026-05-02T10:06:52.181Z</time></trkpt><trkpt lat="40.3095374" lon="9.3499608"><ele>369.0</ele><time>2026-05-02T10:06:53.18Z</time></trkpt><trkpt lat="40.3096681" lon="9.3497968"><ele>369.0</ele><time>2026-05-02T10:06:54.18Z</time></trkpt><trkpt lat="40.3098122" lon="9.3496465"><ele>370.0</ele><time>2026-05-02T10:06:55.18Z</time></trkpt><trkpt lat="40.3099716" lon="9.3495093"><ele>371.0</ele><time>2026-05-02T10:06:56.18Z</time></trkpt><trkpt lat="40.3101416" lon="9.3493751"><ele>372.0</ele><time>2026-05-02T10:06:57.18Z</time></trkpt><trkpt lat="40.3103108" lon="9.3492396"><ele>372.0</ele><time>2026-05-02T10:06:58.18Z</time></trkpt><trkpt lat="40.3104632" lon="9.3491192"><ele>372.0</ele><time>2026-05-02T10:06:59.18Z</time></trkpt><trkpt lat="40.3106032" lon="9.3490149"><ele>372.0</ele><time>2026-05-02T10:07:00.18Z</time></trkpt><trkpt lat="40.3107332" lon="9.3489373"><ele>371.75</ele><time>2026-05-02T10:07:01.18Z</time></trkpt><trkpt lat="40.3108683" lon="9.3488954"><ele>371.5</ele><time>2026-05-02T10:07:02.18Z</time></trkpt><trkpt lat="40.3110061" lon="9.3488684"><ele>371.25</ele><time>2026-05-02T10:07:03.18Z</time></trkpt><trkpt lat="40.3111347" lon="9.3488184"><ele>371.0</ele><time>2026-05-02T10:07:04.181Z</time></trkpt><trkpt lat="40.3112575" lon="9.3487369"><ele>371.0</ele><time>2026-05-02T10:07:05.181Z</time></trkpt><trkpt lat="40.311374" lon="9.3486615"><ele>371.0</ele><time>2026-05-02T10:07:06.181Z</time></trkpt><trkpt lat="40.3114967" lon="9.3486037"><ele>371.0</ele><time>2026-05-02T10:07:07.181Z</time></trkpt><trkpt lat="40.3116224" lon="9.3485751"><ele>371.0</ele><time>2026-05-02T10:07:08.181Z</time></trkpt><trkpt lat="40.3117316" lon="9.348586"><ele>373.8</ele><time>2026-05-02T10:07:09.18Z</time></trkpt><trkpt lat="40.3118299" lon="9.3486345"><ele>376.6</ele><time>2026-05-02T10:07:10.18Z</time></trkpt><trkpt lat="40.3119218" lon="9.3487142"><ele>379.4</ele><time>2026-05-02T10:07:11.18Z</time></trkpt><trkpt lat="40.3120138" lon="9.3488049"><ele>382.2</ele><time>2026-05-02T10:07:12.18Z</time></trkpt><trkpt lat="40.312112" lon="9.3488703"><ele>385.0</ele><time>2026-05-02T10:07:13.181Z</time></trkpt><trkpt lat="40.3122163" lon="9.3488965"><ele>387.4</ele><time>2026-05-02T10:07:14.181Z</time></trkpt><trkpt lat="40.3123152" lon="9.3488802"><ele>389.8</ele><time>2026-05-02T10:07:15.18Z</time></trkpt><trkpt lat="40.3123979" lon="9.3488202"><ele>392.20000000000005</ele><time>2026-05-02T10:07:16.18Z</time></trkpt><trkpt lat="40.3124661" lon="9.3487106"><ele>394.6</ele><time>2026-05-02T10:07:17.181Z</time></trkpt><trkpt lat="40.3125249" lon="9.3485717"><ele>397.0</ele><time>2026-05-02T10:07:18.18Z</time></trkpt><trkpt lat="40.312582" lon="9.348411"><ele>397.0</ele><time>2026-05-02T10:07:19.18Z</time></trkpt><trkpt lat="40.3126401" lon="9.3482469"><ele>397.0</ele><time>2026-05-02T10:07:20.181Z</time></trkpt><trkpt lat="40.3127008" lon="9.3480747"><ele>397.0</ele><time>2026-05-02T10:07:21.181Z</time></trkpt><trkpt lat="40.3127642" lon="9.347895"><ele>397.0</ele><time>2026-05-02T10:07:22.181Z</time></trkpt><trkpt lat="40.3128347" lon="9.3477063"><ele>393.33333333333337</ele><time>2026-05-02T10:07:23.18Z</time></trkpt><trkpt lat="40.3129037" lon="9.3475106"><ele>389.66666666666663</ele><time>2026-05-02T10:07:24.181Z</time></trkpt><trkpt lat="40.3129707" lon="9.3473108"><ele>386.0</ele><time>2026-05-02T10:07:25.181Z</time></trkpt><trkpt lat="40.3130321" lon="9.3471247"><ele>390.75</ele><time>2026-05-02T10:07:26.18Z</time></trkpt><trkpt lat="40.3130943" lon="9.3469544"><ele>395.5</ele><time>2026-05-02T10:07:27.181Z</time></trkpt><trkpt lat="40.3131604" lon="9.346797"><ele>400.25</ele><time>2026-05-02T10:07:28.18Z</time></trkpt><trkpt lat="40.3132384" lon="9.3466648"><ele>405.0</ele><time>2026-05-02T10:07:29.18Z</time></trkpt><trkpt lat="40.3133334" lon="9.34655"><ele>405.0</ele><time>2026-05-02T10:07:30.18Z</time></trkpt><trkpt lat="40.3134412" lon="9.3464509"><ele>405.0</ele><time>2026-05-02T10:07:31.18Z</time></trkpt><trkpt lat="40.3135542" lon="9.3463564"><ele>405.0</ele><time>2026-05-02T10:07:32.18Z</time></trkpt><trkpt lat="40.3136702" lon="9.3462641"><ele>405.0</ele><time>2026-05-02T10:07:33.18Z</time></trkpt><trkpt lat="40.3137818" lon="9.3461653"><ele>404.25</ele><time>2026-05-02T10:07:34.181Z</time></trkpt><trkpt lat="40.3138878" lon="9.3460666"><ele>403.5</ele><time>2026-05-02T10:07:35.181Z</time></trkpt><trkpt lat="40.3139873" lon="9.3459746"><ele>402.75</ele><time>2026-05-02T10:07:36.181Z</time></trkpt><trkpt lat="40.3140816" lon="9.3458935"><ele>402.0</ele><time>2026-05-02T10:07:37.181Z</time></trkpt><trkpt lat="40.3141788" lon="9.3458526"><ele>402.0</ele><time>2026-05-02T10:07:38.18Z</time></trkpt><trkpt lat="40.3142763" lon="9.3458609"><ele>402.0</ele><time>2026-05-02T10:07:39.18Z</time></trkpt><trkpt lat="40.3143686" lon="9.3459008"><ele>402.0</ele><time>2026-05-02T10:07:40.18Z</time></trkpt><trkpt lat="40.3144619" lon="9.345948"><ele>402.0</ele><time>2026-05-02T10:07:41.181Z</time></trkpt><trkpt lat="40.3145631" lon="9.345956"><ele>402.0</ele><time>2026-05-02T10:07:42.181Z</time></trkpt><trkpt lat="40.3146642" lon="9.3459132"><ele>400.25</ele><time>2026-05-02T10:07:43.181Z</time></trkpt><trkpt lat="40.3147649" lon="9.3458347"><ele>398.5</ele><time>2026-05-02T10:07:44.18Z</time></trkpt><trkpt lat="40.314868" lon="9.3457269"><ele>396.75</ele><time>2026-05-02T10:07:45.18Z</time></trkpt><trkpt lat="40.314984" lon="9.3455991"><ele>395.0</ele><time>2026-05-02T10:07:46.18Z</time></trkpt><trkpt lat="40.3151142" lon="9.3454511"><ele>395.0</ele><time>2026-05-02T10:07:47.181Z</time></trkpt><trkpt lat="40.3152566" lon="9.3452925"><ele>395.0</ele><time>2026-05-02T10:07:48.18Z</time></trkpt><trkpt lat="40.3154034" lon="9.3451277"><ele>395.0</ele><time>2026-05-02T10:07:49.18Z</time></trkpt><trkpt lat="40.3155536" lon="9.3449586"><ele>396.3333333333333</ele><time>2026-05-02T10:07:50.18Z</time></trkpt><trkpt lat="40.315703" lon="9.3447984"><ele>397.66666666666663</ele><time>2026-05-02T10:07:51.18Z</time></trkpt><trkpt lat="40.3158418" lon="9.3446495"><ele>399.0</ele><time>2026-05-02T10:07:52.181Z</time></trkpt><trkpt lat="40.3159749" lon="9.3445131"><ele>399.0</ele><time>2026-05-02T10:07:53.18Z</time></trkpt><trkpt lat="40.3161129" lon="9.3443926"><ele>399.0</ele><time>2026-05-02T10:07:54.181Z</time></trkpt><trkpt lat="40.316255" lon="9.3442858"><ele>399.0</ele><time>2026-05-02T10:07:55.181Z</time></trkpt><trkpt lat="40.3164035" lon="9.344198"><ele>407.33333333333337</ele><time>2026-05-02T10:07:56.18Z</time></trkpt><trkpt lat="40.3165583" lon="9.3441323"><ele>415.6666666666667</ele><time>2026-05-02T10:07:57.181Z</time></trkpt><trkpt lat="40.3167214" lon="9.3440959"><ele>424.0</ele><time>2026-05-02T10:07:58.18Z</time></trkpt><trkpt lat="40.3168908" lon="9.3440652"><ele>424.0</ele><time>2026-05-02T10:07:59.181Z</time></trkpt><trkpt lat="40.3170609" lon="9.344032"><ele>424.0</ele><time>2026-05-02T10:08:00.181Z</time></trkpt><trkpt lat="40.3172077" lon="9.3439892"><ele>424.0</ele><time>2026-05-02T10:08:01.18Z</time></trkpt><trkpt lat="40.3173342" lon="9.3439364"><ele>425.6</ele><time>2026-05-02T10:08:02.18Z</time></trkpt><trkpt lat="40.3174494" lon="9.3438907"><ele>427.2</ele><time>2026-05-02T10:08:03.18Z</time></trkpt><trkpt lat="40.3175592" lon="9.3438796"><ele>428.80000000000007</ele><time>2026-05-02T10:08:04.181Z</time></trkpt><trkpt lat="40.3176594" lon="9.3439121"><ele>430.40000000000003</ele><time>2026-05-02T10:08:05.181Z</time></trkpt><trkpt lat="40.3177569" lon="9.3439792"><ele>432.0</ele><time>2026-05-02T10:08:06.18Z</time></trkpt><trkpt lat="40.3178634" lon="9.3440639"><ele>432.0</ele><time>2026-05-02T10:08:07.181Z</time></trkpt><trkpt lat="40.3179856" lon="9.3441565"><ele>432.0</ele><time>2026-05-02T10:08:08.18Z</time></trkpt><trkpt lat="40.3181204" lon="9.344248"><ele>432.0</ele><time>2026-05-02T10:08:09.18Z</time></trkpt><trkpt lat="40.3182643" lon="9.3443345"><ele>429.33333333333337</ele><time>2026-05-02T10:08:10.18Z</time></trkpt><trkpt lat="40.3184124" lon="9.3443954"><ele>426.6666666666667</ele><time>2026-05-02T10:08:11.181Z</time></trkpt><trkpt lat="40.3185667" lon="9.3444332"><ele>424.0</ele><time>2026-05-02T10:08:12.18Z</time></trkpt><trkpt lat="40.3187311" lon="9.3444497"><ele>424.0</ele><time>2026-05-02T10:08:13.181Z</time></trkpt><trkpt lat="40.3188988" lon="9.3444503"><ele>424.0</ele><time>2026-05-02T10:08:14.18Z</time></trkpt><trkpt lat="40.31907" lon="9.3444308"><ele>424.0</ele><time>2026-05-02T10:08:15.18Z</time></trkpt><trkpt lat="40.3192444" lon="9.3444058"><ele>424.6666666666667</ele><time>2026-05-02T10:08:16.18Z</time></trkpt><trkpt lat="40.3194222" lon="9.3443698"><ele>425.33333333333337</ele><time>2026-05-02T10:08:17.18Z</time></trkpt><trkpt lat="40.3196029" lon="9.3443169"><ele>426.0</ele><time>2026-05-02T10:08:18.18Z</time></trkpt><trkpt lat="40.3197823" lon="9.3442502"><ele>431.66666666666663</ele><time>2026-05-02T10:08:19.18Z</time></trkpt><trkpt lat="40.3199556" lon="9.3441668"><ele>437.3333333333333</ele><time>2026-05-02T10:08:20.181Z</time></trkpt><trkpt lat="40.3201233" lon="9.3440769"><ele>443.0</ele><time>2026-05-02T10:08:21.181Z</time></trkpt><trkpt lat="40.3202897" lon="9.343989"><ele>443.0</ele><time>2026-05-02T10:08:22.18Z</time></trkpt><trkpt lat="40.3204603" lon="9.343926"><ele>443.0</ele><time>2026-05-02T10:08:23.181Z</time></trkpt><trkpt lat="40.3206314" lon="9.3438937"><ele>443.0</ele><time>2026-05-02T10:08:24.181Z</time></trkpt><trkpt lat="40.3208097" lon="9.3438791"><ele>437.3333333333333</ele><time>2026-05-02T10:08:25.18Z</time></trkpt><trkpt lat="40.320987" lon="9.3438746"><ele>431.66666666666663</ele><time>2026-05-02T10:08:26.181Z</time></trkpt><trkpt lat="40.3211639" lon="9.343874"><ele>426.0</ele><time>2026-05-02T10:08:27.181Z</time></trkpt><trkpt lat="40.321341" lon="9.3438787"><ele>436.33333333333337</ele><time>2026-05-02T10:08:28.181Z</time></trkpt><trkpt lat="40.3215133" lon="9.3438937"><ele>446.6666666666667</ele><time>2026-05-02T10:08:29.181Z</time></trkpt><trkpt lat="40.321681" lon="9.3439213"><ele>457.0</ele><time>2026-05-02T10:08:30.181Z</time></trkpt><trkpt lat="40.3218355" lon="9.3439551"><ele>457.0</ele><time>2026-05-02T10:08:31.18Z</time></trkpt><trkpt lat="40.3219747" lon="9.3439919"><ele>457.0</ele><time>2026-05-02T10:08:32.181Z</time></trkpt><trkpt lat="40.3221009" lon="9.3440346"><ele>457.0</ele><time>2026-05-02T10:08:33.18Z</time></trkpt><trkpt lat="40.3222134" lon="9.344098"><ele>457.0</ele><time>2026-05-02T10:08:34.18Z</time></trkpt><trkpt lat="40.3223032" lon="9.3441925"><ele>459.0</ele><time>2026-05-02T10:08:35.18Z</time></trkpt><trkpt lat="40.3223774" lon="9.3443202"><ele>461.0</ele><time>2026-05-02T10:08:36.18Z</time></trkpt><trkpt lat="40.3224448" lon="9.3444777"><ele>463.0</ele><time>2026-05-02T10:08:37.18Z</time></trkpt><trkpt lat="40.3225142" lon="9.3446539"><ele>465.0</ele><time>2026-05-02T10:08:38.18Z</time></trkpt><trkpt lat="40.3225773" lon="9.3448183"><ele>465.0</ele><time>2026-05-02T10:08:39.18Z</time></trkpt><trkpt lat="40.3226387" lon="9.3449702"><ele>465.0</ele><time>2026-05-02T10:08:40.18Z</time></trkpt><trkpt lat="40.322713" lon="9.3450932"><ele>465.0</ele><time>2026-05-02T10:08:41.18Z</time></trkpt><trkpt lat="40.3228104" lon="9.3451906"><ele>465.0</ele><time>2026-05-02T10:08:42.181Z</time></trkpt><trkpt lat="40.3229254" lon="9.3452334"><ele>465.0</ele><time>2026-05-02T10:08:43.18Z</time></trkpt><trkpt lat="40.3230506" lon="9.3452313"><ele>465.0</ele><time>2026-05-02T10:08:44.181Z</time></trkpt><trkpt lat="40.3231875" lon="9.3451919"><ele>465.0</ele><time>2026-05-02T10:08:45.18Z</time></trkpt><trkpt lat="40.3233231" lon="9.3451431"><ele>465.0</ele><time>2026-05-02T10:08:46.181Z</time></trkpt><trkpt lat="40.3234476" lon="9.3451013"><ele>465.25</ele><time>2026-05-02T10:08:47.18Z</time></trkpt><trkpt lat="40.3235678" lon="9.3450395"><ele>465.5</ele><time>2026-05-02T10:08:48.181Z</time></trkpt><trkpt lat="40.3236795" lon="9.3449463"><ele>465.75</ele><time>2026-05-02T10:08:49.18Z</time></trkpt><trkpt lat="40.3237886" lon="9.3448188"><ele>466.0</ele><time>2026-05-02T10:08:50.181Z</time></trkpt><trkpt lat="40.3238994" lon="9.3446606"><ele>466.0</ele><time>2026-05-02T10:08:51.181Z</time></trkpt><trkpt lat="40.3240167" lon="9.344481"><ele>466.0</ele><time>2026-05-02T10:08:52.181Z</time></trkpt><trkpt lat="40.3241465" lon="9.3442808"><ele>466.0</ele><time>2026-05-02T10:08:53.181Z</time></trkpt><trkpt lat="40.3242632" lon="9.3440993"><ele>466.0</ele><time>2026-05-02T10:08:54.18Z</time></trkpt><trkpt lat="40.3243494" lon="9.3439223"><ele>466.0</ele><time>2026-05-02T10:08:55.181Z</time></trkpt><trkpt lat="40.3244151" lon="9.3437307"><ele>466.0</ele><time>2026-05-02T10:08:56.18Z</time></trkpt><trkpt lat="40.3244773" lon="9.3435371"><ele>463.0</ele><time>2026-05-02T10:08:57.181Z</time></trkpt><trkpt lat="40.3245566" lon="9.3433563"><ele>460.0</ele><time>2026-05-02T10:08:58.18Z</time></trkpt><trkpt lat="40.3246565" lon="9.3432005"><ele>457.0</ele><time>2026-05-02T10:08:59.181Z</time></trkpt><trkpt lat="40.3247778" lon="9.3430855"><ele>457.6666666666667</ele><time>2026-05-02T10:09:00.181Z</time></trkpt><trkpt lat="40.3249088" lon="9.3430077"><ele>458.33333333333337</ele><time>2026-05-02T10:09:01.18Z</time></trkpt><trkpt lat="40.3250504" lon="9.3429452"><ele>459.0</ele><time>2026-05-02T10:09:02.181Z</time></trkpt><trkpt lat="40.3252074" lon="9.3428717"><ele>459.0</ele><time>2026-05-02T10:09:03.18Z</time></trkpt><trkpt lat="40.325374" lon="9.3427948"><ele>459.0</ele><time>2026-05-02T10:09:04.181Z</time></trkpt><trkpt lat="40.3255401" lon="9.3427049"><ele>459.0</ele><time>2026-05-02T10:09:05.18Z</time></trkpt><trkpt lat="40.3256934" lon="9.3425913"><ele>460.0</ele><time>2026-05-02T10:09:06.18Z</time></trkpt><trkpt lat="40.3258301" lon="9.3424511"><ele>461.0</ele><time>2026-05-02T10:09:07.18Z</time></trkpt><trkpt lat="40.325956" lon="9.3422944"><ele>462.0</ele><time>2026-05-02T10:09:08.18Z</time></trkpt><trkpt lat="40.3260934" lon="9.3421581"><ele>462.0</ele><time>2026-05-02T10:09:09.181Z</time></trkpt><trkpt lat="40.3262364" lon="9.3420401"><ele>462.0</ele><time>2026-05-02T10:09:10.18Z</time></trkpt><trkpt lat="40.3263538" lon="9.3418877"><ele>462.0</ele><time>2026-05-02T10:09:11.181Z</time></trkpt><trkpt lat="40.3264548" lon="9.34171"><ele>469.0</ele><time>2026-05-02T10:09:12.18Z</time></trkpt><trkpt lat="40.3265608" lon="9.3415336"><ele>476.0</ele><time>2026-05-02T10:09:13.181Z</time></trkpt><trkpt lat="40.3266776" lon="9.3413741"><ele>483.0</ele><time>2026-05-02T10:09:14.181Z</time></trkpt><trkpt lat="40.3268065" lon="9.3412527"><ele>483.0</ele><time>2026-05-02T10:09:15.18Z</time></trkpt><trkpt lat="40.3269443" lon="9.3411583"><ele>483.0</ele><time>2026-05-02T10:09:16.18Z</time></trkpt><trkpt lat="40.3270758" lon="9.3410774"><ele>483.0</ele><time>2026-05-02T10:09:17.181Z</time></trkpt><trkpt lat="40.32719" lon="9.340996"><ele>483.0</ele><time>2026-05-02T10:09:18.181Z</time></trkpt><trkpt lat="40.3272781" lon="9.3408931"><ele>491.75</ele><time>2026-05-02T10:09:19.18Z</time></trkpt><trkpt lat="40.3273301" lon="9.3407616"><ele>500.5</ele><time>2026-05-02T10:09:20.18Z</time></trkpt><trkpt lat="40.3273359" lon="9.3406123"><ele>509.25</ele><time>2026-05-02T10:09:21.181Z</time></trkpt><trkpt lat="40.3273053" lon="9.340454"><ele>518.0</ele><time>2026-05-02T10:09:22.181Z</time></trkpt><trkpt lat="40.3272398" lon="9.3402907"><ele>511.66666666666663</ele><time>2026-05-02T10:09:23.18Z</time></trkpt><trkpt lat="40.3271548" lon="9.3401375"><ele>505.33333333333337</ele><time>2026-05-02T10:09:24.181Z</time></trkpt><trkpt lat="40.3270405" lon="9.3400003"><ele>499.0</ele><time>2026-05-02T10:09:25.18Z</time></trkpt><trkpt lat="40.3269081" lon="9.3398864"><ele>499.0</ele><time>2026-05-02T10:09:26.181Z</time></trkpt><trkpt lat="40.3267612" lon="9.3397783"><ele>499.0</ele><time>2026-05-02T10:09:27.18Z</time></trkpt><trkpt lat="40.3266122" lon="9.339661"><ele>499.0</ele><time>2026-05-02T10:09:28.18Z</time></trkpt><trkpt lat="40.3264766" lon="9.3394987"><ele>504.0</ele><time>2026-05-02T10:09:29.181Z</time></trkpt><trkpt lat="40.3263357" lon="9.3393245"><ele>509.0</ele><time>2026-05-02T10:09:30.181Z</time></trkpt><trkpt lat="40.3261882" lon="9.3391557"><ele>514.0</ele><time>2026-05-02T10:09:31.181Z</time></trkpt><trkpt lat="40.3260482" lon="9.3390241"><ele>514.0</ele><time>2026-05-02T10:09:32.181Z</time></trkpt><trkpt lat="40.3259097" lon="9.3389328"><ele>514.0</ele><time>2026-05-02T10:09:33.18Z</time></trkpt><trkpt lat="40.3257639" lon="9.3388954"><ele>514.0</ele><time>2026-05-02T10:09:34.181Z</time></trkpt><trkpt lat="40.3256135" lon="9.3389063"><ele>514.0</ele><time>2026-05-02T10:09:35.181Z</time></trkpt><trkpt lat="40.3254607" lon="9.3389546"><ele>514.0</ele><time>2026-05-02T10:09:36.18Z</time></trkpt><trkpt lat="40.3253092" lon="9.3390115"><ele>514.0</ele><time>2026-05-02T10:09:37.18Z</time></trkpt><trkpt lat="40.3251669" lon="9.3390287"><ele>514.0</ele><time>2026-05-02T10:09:38.181Z</time></trkpt><trkpt lat="40.3250175" lon="9.3390087"><ele>514.0</ele><time>2026-05-02T10:09:39.181Z</time></trkpt><trkpt lat="40.3248731" lon="9.3389517"><ele>514.0</ele><time>2026-05-02T10:09:40.18Z</time></trkpt><trkpt lat="40.3247531" lon="9.3388664"><ele>514.0</ele><time>2026-05-02T10:09:41.18Z</time></trkpt><trkpt lat="40.3246691" lon="9.3387661"><ele>518.0</ele><time>2026-05-02T10:09:42.18Z</time></trkpt><trkpt lat="40.3246216" lon="9.3386549"><ele>522.0</ele><time>2026-05-02T10:09:43.18Z</time></trkpt><trkpt lat="40.3245879" lon="9.3385158"><ele>526.0</ele><time>2026-05-02T10:09:44.18Z</time></trkpt><trkpt lat="40.3245477" lon="9.3383462"><ele>530.0</ele><time>2026-05-02T10:09:45.18Z</time></trkpt><trkpt lat="40.3244948" lon="9.3381919"><ele>530.0</ele><time>2026-05-02T10:09:46.181Z</time></trkpt><trkpt lat="40.3244312" lon="9.3380654"><ele>530.0</ele><time>2026-05-02T10:09:47.181Z</time></trkpt><trkpt lat="40.3243441" lon="9.3379792"><ele>530.0</ele><time>2026-05-02T10:09:48.18Z</time></trkpt><trkpt lat="40.3242371" lon="9.3379506"><ele>530.0</ele><time>2026-05-02T10:09:49.181Z</time></trkpt><trkpt lat="40.3241297" lon="9.3379639"><ele>530.0</ele><time>2026-05-02T10:09:50.18Z</time></trkpt><trkpt lat="40.3240214" lon="9.3380284"><ele>530.0</ele><time>2026-05-02T10:09:51.18Z</time></trkpt><trkpt lat="40.3239151" lon="9.3381148"><ele>530.0</ele><time>2026-05-02T10:09:52.181Z</time></trkpt><trkpt lat="40.3238136" lon="9.3381985"><ele>530.0</ele><time>2026-05-02T10:09:53.181Z</time></trkpt><trkpt lat="40.3237241" lon="9.3382622"><ele>530.0</ele><time>2026-05-02T10:09:54.181Z</time></trkpt><trkpt lat="40.3236522" lon="9.3382961"><ele>530.0</ele><time>2026-05-02T10:09:55.181Z</time></trkpt><trkpt lat="40.323574" lon="9.338297"><ele>529.6666666666666</ele><time>2026-05-02T10:09:57.181Z</time></trkpt><trkpt lat="40.3234989" lon="9.3382767"><ele>529.3333333333333</ele><time>2026-05-02T10:10:00.181Z</time></trkpt><trkpt lat="40.3233967" lon="9.3382586"><ele>529.0</ele><time>2026-05-02T10:10:02.181Z</time></trkpt><trkpt lat="40.323331" lon="9.3382265"><ele>528.6666666666666</ele><time>2026-05-02T10:10:03.181Z</time></trkpt><trkpt lat="40.3232575" lon="9.338181"><ele>528.3333333333334</ele><time>2026-05-02T10:10:04.18Z</time></trkpt><trkpt lat="40.3231863" lon="9.338118"><ele>528.0</ele><time>2026-05-02T10:10:05.18Z</time></trkpt><trkpt lat="40.3231134" lon="9.3380462"><ele>530.0</ele><time>2026-05-02T10:10:06.181Z</time></trkpt><trkpt lat="40.3230458" lon="9.3379592"><ele>532.0</ele><time>2026-05-02T10:10:07.181Z</time></trkpt><trkpt lat="40.3229864" lon="9.3378586"><ele>534.0</ele><time>2026-05-02T10:10:08.181Z</time></trkpt><trkpt lat="40.3229382" lon="9.3377446"><ele>536.0</ele><time>2026-05-02T10:10:09.18Z</time></trkpt><trkpt lat="40.3228968" lon="9.3376213"><ele>538.0</ele><time>2026-05-02T10:10:10.18Z</time></trkpt><trkpt lat="40.3228593" lon="9.3374984"><ele>538.0</ele><time>2026-05-02T10:10:11.18Z</time></trkpt><trkpt lat="40.3228222" lon="9.3373868"><ele>538.0</ele><time>2026-05-02T10:10:12.18Z</time></trkpt><trkpt lat="40.3227855" lon="9.3372906"><ele>538.0</ele><time>2026-05-02T10:10:13.18Z</time></trkpt><trkpt lat="40.3227436" lon="9.3372081"><ele>538.0</ele><time>2026-05-02T10:10:14.181Z</time></trkpt><trkpt lat="40.3226897" lon="9.337142"><ele>538.0</ele><time>2026-05-02T10:10:15.18Z</time></trkpt><trkpt lat="40.3226206" lon="9.337096"><ele>538.0</ele><time>2026-05-02T10:10:16.181Z</time></trkpt><trkpt lat="40.322545" lon="9.337068"><ele>539.3333333333334</ele><time>2026-05-02T10:10:17.181Z</time></trkpt><trkpt lat="40.3224604" lon="9.3370615"><ele>540.6666666666667</ele><time>2026-05-02T10:10:18.181Z</time></trkpt><trkpt lat="40.3223861" lon="9.3370683"><ele>542.0</ele><time>2026-05-02T10:10:19.181Z</time></trkpt><trkpt lat="40.3223171" lon="9.3370752"><ele>543.3333333333334</ele><time>2026-05-02T10:10:20.18Z</time></trkpt><trkpt lat="40.3222521" lon="9.3370697"><ele>544.6666666666666</ele><time>2026-05-02T10:10:21.181Z</time></trkpt><trkpt lat="40.3221889" lon="9.3370544"><ele>546.0</ele><time>2026-05-02T10:10:22.18Z</time></trkpt><trkpt lat="40.3220858" lon="9.3369789"><ele>546.1666666666666</ele><time>2026-05-02T10:10:24.18Z</time></trkpt><trkpt lat="40.3220112" lon="9.336862"><ele>546.3333333333334</ele><time>2026-05-02T10:10:26.18Z</time></trkpt><trkpt lat="40.3219805" lon="9.3367223"><ele>546.5</ele><time>2026-05-02T10:10:28.181Z</time></trkpt><trkpt lat="40.3219691" lon="9.3366178"><ele>546.6666666666667</ele><time>2026-05-02T10:10:30.181Z</time></trkpt><trkpt lat="40.3219791" lon="9.3365324"><ele>546.8333333333334</ele><time>2026-05-02T10:10:34.18Z</time></trkpt><trkpt lat="40.321997" lon="9.3364528"><ele>547.0</ele><time>2026-05-02T10:10:52.18Z</time></trkpt><trkpt lat="40.3220126" lon="9.3363662"><ele>547.0</ele><time>2026-05-02T10:10:55.18Z</time></trkpt><trkpt lat="40.3220346" lon="9.3362494"><ele>547.0</ele><time>2026-05-02T10:10:57.18Z</time></trkpt><trkpt lat="40.322039" lon="9.3361248"><ele>547.0</ele><time>2026-05-02T10:10:59.18Z</time></trkpt><trkpt lat="40.3220236" lon="9.3360068"><ele>547.0</ele><time>2026-05-02T10:11:01.181Z</time></trkpt><trkpt lat="40.3220596" lon="9.3358934"><ele>547.0</ele><time>2026-05-02T10:11:03.18Z</time></trkpt><trkpt lat="40.3221248" lon="9.3358114"><ele>547.0</ele><time>2026-05-02T10:11:05.181Z</time></trkpt><trkpt lat="40.3221903" lon="9.3357341"><ele>547.0</ele><time>2026-05-02T10:11:07.181Z</time></trkpt><trkpt lat="40.3222549" lon="9.3356507"><ele>547.0</ele><time>2026-05-02T10:11:09.181Z</time></trkpt><trkpt lat="40.3223378" lon="9.3355685"><ele>547.0</ele><time>2026-05-02T10:11:11.181Z</time></trkpt><trkpt lat="40.322429" lon="9.3354999"><ele>547.0</ele><time>2026-05-02T10:11:13.18Z</time></trkpt><trkpt lat="40.3225194" lon="9.335439"><ele>547.6666666666667</ele><time>2026-05-02T10:11:15.181Z</time></trkpt><trkpt lat="40.3225899" lon="9.3353962"><ele>548.3333333333334</ele><time>2026-05-02T10:11:17.18Z</time></trkpt><trkpt lat="40.3226642" lon="9.3353339"><ele>549.0</ele><time>2026-05-02T10:11:19.18Z</time></trkpt><trkpt lat="40.3227381" lon="9.3352465"><ele>549.6666666666666</ele><time>2026-05-02T10:11:21.181Z</time></trkpt><trkpt lat="40.3227941" lon="9.3351436"><ele>550.3333333333333</ele><time>2026-05-02T10:11:23.18Z</time></trkpt><trkpt lat="40.3228305" lon="9.3350521"><ele>551.0</ele><time>2026-05-02T10:11:25.181Z</time></trkpt><trkpt lat="40.3228576" lon="9.3349415"><ele>551.0</ele><time>2026-05-02T10:11:28.181Z</time></trkpt><trkpt lat="40.3228819" lon="9.3348287"><ele>551.0</ele><time>2026-05-02T10:11:31.18Z</time></trkpt><trkpt lat="40.3228992" lon="9.3347343"><ele>551.0</ele><time>2026-05-02T10:11:34.18Z</time></trkpt><trkpt lat="40.3229118" lon="9.3346506"><ele>551.0</ele><time>2026-05-02T10:11:37.18Z</time></trkpt><trkpt lat="40.3229261" lon="9.3345198"><ele>551.0</ele><time>2026-05-02T10:11:40.181Z</time></trkpt><trkpt lat="40.3229348" lon="9.3344225"><ele>551.0</ele><time>2026-05-02T10:11:42.181Z</time></trkpt><trkpt lat="40.322943" lon="9.3343393"><ele>550.8333333333333</ele><time>2026-05-02T10:11:44.18Z</time></trkpt><trkpt lat="40.3229475" lon="9.3342456"><ele>550.6666666666666</ele><time>2026-05-02T10:11:46.18Z</time></trkpt><trkpt lat="40.3229623" lon="9.3341042"><ele>550.5</ele><time>2026-05-02T10:11:48.181Z</time></trkpt><trkpt lat="40.3229757" lon="9.3340177"><ele>550.3333333333334</ele><time>2026-05-02T10:11:49.18Z</time></trkpt><trkpt lat="40.3229904" lon="9.3339312"><ele>550.1666666666667</ele><time>2026-05-02T10:11:50.18Z</time></trkpt><trkpt lat="40.3230005" lon="9.3337965"><ele>550.0</ele><time>2026-05-02T10:11:52.18Z</time></trkpt><trkpt lat="40.3229695" lon="9.3337093"><ele>548.8</ele><time>2026-05-02T10:11:54.181Z</time></trkpt><trkpt lat="40.3229028" lon="9.3336509"><ele>547.6</ele><time>2026-05-02T10:11:56.181Z</time></trkpt><trkpt lat="40.3228024" lon="9.3335878"><ele>546.4</ele><time>2026-05-02T10:11:58.181Z</time></trkpt><trkpt lat="40.3226945" lon="9.3335033"><ele>545.2</ele><time>2026-05-02T10:12:00.181Z</time></trkpt><trkpt lat="40.3226374" lon="9.3334659"><ele>544.0</ele><time>2026-05-02T10:12:01.18Z</time></trkpt><trkpt lat="40.3225313" lon="9.3333804"><ele>543.9999999999999</ele><time>2026-05-02T10:12:03.181Z</time></trkpt><trkpt lat="40.3224817" lon="9.3333273"><ele>544.0</ele><time>2026-05-02T10:12:04.18Z</time></trkpt><trkpt lat="40.3224339" lon="9.3332718"><ele>544.0</ele><time>2026-05-02T10:12:05.181Z</time></trkpt><trkpt lat="40.3223819" lon="9.3332161"><ele>544.0</ele><time>2026-05-02T10:12:06.181Z</time></trkpt><trkpt lat="40.3223299" lon="9.3331615"><ele>544.0</ele><time>2026-05-02T10:12:07.18Z</time></trkpt><trkpt lat="40.3222744" lon="9.3331223"><ele>543.9999999999999</ele><time>2026-05-02T10:12:08.18Z</time></trkpt><trkpt lat="40.3222181" lon="9.3330727"><ele>544.0</ele><time>2026-05-02T10:12:09.181Z</time></trkpt><trkpt lat="40.3221647" lon="9.333026"><ele>542.2</ele><time>2026-05-02T10:12:10.18Z</time></trkpt><trkpt lat="40.322068" lon="9.33294"><ele>540.4</ele><time>2026-05-02T10:12:12.18Z</time></trkpt><trkpt lat="40.3219832" lon="9.3328825"><ele>538.6</ele><time>2026-05-02T10:12:14.181Z</time></trkpt><trkpt lat="40.3219272" lon="9.3328025"><ele>536.8</ele><time>2026-05-02T10:12:16.18Z</time></trkpt><trkpt lat="40.3218827" lon="9.3327057"><ele>535.0</ele><time>2026-05-02T10:12:18.18Z</time></trkpt><trkpt lat="40.3218395" lon="9.3325911"><ele>535.0</ele><time>2026-05-02T10:12:20.18Z</time></trkpt><trkpt lat="40.3218103" lon="9.3324764"><ele>535.0</ele><time>2026-05-02T10:12:22.18Z</time></trkpt><trkpt lat="40.3218015" lon="9.3323567"><ele>535.0</ele><time>2026-05-02T10:12:24.181Z</time></trkpt><trkpt lat="40.3217948" lon="9.3322514"><ele>535.0</ele><time>2026-05-02T10:12:26.18Z</time></trkpt><trkpt lat="40.3217682" lon="9.3321475"><ele>535.0</ele><time>2026-05-02T10:12:28.18Z</time></trkpt><trkpt lat="40.3217183" lon="9.3320695"><ele>535.0</ele><time>2026-05-02T10:12:30.18Z</time></trkpt><trkpt lat="40.3216452" lon="9.3320547"><ele>534.5</ele><time>2026-05-02T10:12:32.181Z</time></trkpt><trkpt lat="40.3215673" lon="9.3320748"><ele>534.0</ele><time>2026-05-02T10:12:34.18Z</time></trkpt><trkpt lat="40.3214822" lon="9.3320877"><ele>533.5</ele><time>2026-05-02T10:12:36.18Z</time></trkpt><trkpt lat="40.3213945" lon="9.3321064"><ele>533.0</ele><time>2026-05-02T10:12:38.18Z</time></trkpt><trkpt lat="40.3213169" lon="9.3321196"><ele>532.5</ele><time>2026-05-02T10:12:40.181Z</time></trkpt><trkpt lat="40.3212471" lon="9.3321254"><ele>532.0</ele><time>2026-05-02T10:12:42.18Z</time></trkpt><trkpt lat="40.3211648" lon="9.3321327"><ele>531.4</ele><time>2026-05-02T10:12:45.18Z</time></trkpt><trkpt lat="40.3210807" lon="9.3321205"><ele>530.8000000000001</ele><time>2026-05-02T10:12:48.18Z</time></trkpt><trkpt lat="40.3209915" lon="9.3321709"><ele>530.2</ele><time>2026-05-02T10:12:51.181Z</time></trkpt><trkpt lat="40.3209173" lon="9.3322374"><ele>529.6</ele><time>2026-05-02T10:12:53.18Z</time></trkpt><trkpt lat="40.3208347" lon="9.3323111"><ele>529.0</ele><time>2026-05-02T10:12:55.181Z</time></trkpt><trkpt lat="40.3207396" lon="9.3323941"><ele>529.0</ele><time>2026-05-02T10:12:57.181Z</time></trkpt><trkpt lat="40.3206582" lon="9.3324735"><ele>529.0</ele><time>2026-05-02T10:12:59.181Z</time></trkpt><trkpt lat="40.3206015" lon="9.3325179"><ele>529.0</ele><time>2026-05-02T10:13:01.181Z</time></trkpt><trkpt lat="40.320544" lon="9.3325693"><ele>529.0</ele><time>2026-05-02T10:13:04.18Z</time></trkpt><trkpt lat="40.3204578" lon="9.3326028"><ele>529.0</ele><time>2026-05-02T10:13:12.181Z</time></trkpt><trkpt lat="40.3203936" lon="9.3325893"><ele>529.0</ele><time>2026-05-02T10:13:14.181Z</time></trkpt><trkpt lat="40.3203318" lon="9.3325724"><ele>528.5714285714286</ele><time>2026-05-02T10:13:16.181Z</time></trkpt><trkpt lat="40.3202646" lon="9.3325483"><ele>528.1428571428571</ele><time>2026-05-02T10:13:18.181Z</time></trkpt><trkpt lat="40.3201996" lon="9.3325347"><ele>527.7142857142857</ele><time>2026-05-02T10:13:20.18Z</time></trkpt><trkpt lat="40.320129" lon="9.3325564"><ele>527.2857142857142</ele><time>2026-05-02T10:13:22.181Z</time></trkpt><trkpt lat="40.3200628" lon="9.3325869"><ele>526.8571428571428</ele><time>2026-05-02T10:13:24.18Z</time></trkpt><trkpt lat="40.3199871" lon="9.3326295"><ele>526.4285714285714</ele><time>2026-05-02T10:13:27.181Z</time></trkpt><trkpt lat="40.3199201" lon="9.3326683"><ele>526.0</ele><time>2026-05-02T10:13:30.18Z</time></trkpt><trkpt lat="40.3198587" lon="9.3326966"><ele>526.0</ele><time>2026-05-02T10:13:32.18Z</time></trkpt><trkpt lat="40.319788" lon="9.3326989"><ele>526.0</ele><time>2026-05-02T10:13:34.18Z</time></trkpt><trkpt lat="40.3197012" lon="9.3326614"><ele>526.0</ele><time>2026-05-02T10:13:36.181Z</time></trkpt><trkpt lat="40.319611" lon="9.3326021"><ele>526.0</ele><time>2026-05-02T10:13:38.18Z</time></trkpt><trkpt lat="40.319554" lon="9.3325647"><ele>526.0</ele><time>2026-05-02T10:13:40.18Z</time></trkpt><trkpt lat="40.3194839" lon="9.3325246"><ele>526.0</ele><time>2026-05-02T10:13:47.181Z</time></trkpt><trkpt lat="40.3194287" lon="9.3324777"><ele>524.8333333333334</ele><time>2026-05-02T10:13:49.18Z</time></trkpt><trkpt lat="40.3193308" lon="9.3324045"><ele>523.6666666666667</ele><time>2026-05-02T10:13:52.181Z</time></trkpt><trkpt lat="40.3192654" lon="9.3323662"><ele>522.5</ele><time>2026-05-02T10:13:53.18Z</time></trkpt><trkpt lat="40.3191925" lon="9.3323321"><ele>521.3333333333334</ele><time>2026-05-02T10:13:54.18Z</time></trkpt><trkpt lat="40.3191164" lon="9.3322959"><ele>520.1666666666666</ele><time>2026-05-02T10:13:55.181Z</time></trkpt><trkpt lat="40.3190376" lon="9.3322566"><ele>519.0</ele><time>2026-05-02T10:13:56.181Z</time></trkpt><trkpt lat="40.3189543" lon="9.3322197"><ele>516.5</ele><time>2026-05-02T10:13:57.181Z</time></trkpt><trkpt lat="40.318868" lon="9.332182"><ele>514.0</ele><time>2026-05-02T10:13:58.181Z</time></trkpt><trkpt lat="40.3187796" lon="9.3321405"><ele>511.5</ele><time>2026-05-02T10:13:59.18Z</time></trkpt><trkpt lat="40.3187029" lon="9.3320952"><ele>509.0</ele><time>2026-05-02T10:14:00.18Z</time></trkpt><trkpt lat="40.3186398" lon="9.3320406"><ele>506.5</ele><time>2026-05-02T10:14:01.18Z</time></trkpt><trkpt lat="40.3185896" lon="9.331987"><ele>504.0</ele><time>2026-05-02T10:14:02.18Z</time></trkpt><trkpt lat="40.3185393" lon="9.3318804"><ele>504.0</ele><time>2026-05-02T10:14:04.18Z</time></trkpt><trkpt lat="40.3185442" lon="9.3317712"><ele>504.0</ele><time>2026-05-02T10:14:06.181Z</time></trkpt><trkpt lat="40.318541" lon="9.3316754"><ele>504.0</ele><time>2026-05-02T10:14:08.18Z</time></trkpt><trkpt lat="40.3184722" lon="9.3316208"><ele>504.0</ele><time>2026-05-02T10:14:10.181Z</time></trkpt><trkpt lat="40.3183387" lon="9.3316341"><ele>504.0</ele><time>2026-05-02T10:14:12.18Z</time></trkpt><trkpt lat="40.3182588" lon="9.331606"><ele>504.0</ele><time>2026-05-02T10:14:13.18Z</time></trkpt><trkpt lat="40.3181823" lon="9.3315486"><ele>504.0</ele><time>2026-05-02T10:14:14.181Z</time></trkpt><trkpt lat="40.318108" lon="9.3314733"><ele>504.0</ele><time>2026-05-02T10:14:15.18Z</time></trkpt><trkpt lat="40.3180321" lon="9.331405"><ele>504.0</ele><time>2026-05-02T10:14:16.181Z</time></trkpt><trkpt lat="40.3179555" lon="9.3313343"><ele>504.0</ele><time>2026-05-02T10:14:17.181Z</time></trkpt><trkpt lat="40.3178794" lon="9.3312659"><ele>503.0</ele><time>2026-05-02T10:14:18.18Z</time></trkpt><trkpt lat="40.3178028" lon="9.3311991"><ele>502.0</ele><time>2026-05-02T10:14:19.181Z</time></trkpt><trkpt lat="40.3177221" lon="9.3311366"><ele>501.0</ele><time>2026-05-02T10:14:20.181Z</time></trkpt><trkpt lat="40.3176326" lon="9.3310699"><ele>500.0</ele><time>2026-05-02T10:14:21.181Z</time></trkpt><trkpt lat="40.3175347" lon="9.3310014"><ele>499.0</ele><time>2026-05-02T10:14:22.181Z</time></trkpt><trkpt lat="40.3174359" lon="9.330935"><ele>499.0</ele><time>2026-05-02T10:14:23.181Z</time></trkpt><trkpt lat="40.3173334" lon="9.3308723"><ele>499.0</ele><time>2026-05-02T10:14:24.181Z</time></trkpt><trkpt lat="40.3172315" lon="9.3308194"><ele>499.0</ele><time>2026-05-02T10:14:25.181Z</time></trkpt><trkpt lat="40.3171287" lon="9.330786"><ele>499.0</ele><time>2026-05-02T10:14:26.18Z</time></trkpt><trkpt lat="40.317023" lon="9.3307713"><ele>499.0</ele><time>2026-05-02T10:14:27.18Z</time></trkpt><trkpt lat="40.3169162" lon="9.3307791"><ele>497.6</ele><time>2026-05-02T10:14:28.181Z</time></trkpt><trkpt lat="40.3168109" lon="9.3308044"><ele>496.2</ele><time>2026-05-02T10:14:29.181Z</time></trkpt><trkpt lat="40.3167097" lon="9.3308505"><ele>494.80000000000007</ele><time>2026-05-02T10:14:30.181Z</time></trkpt><trkpt lat="40.3166099" lon="9.3309138"><ele>493.40000000000003</ele><time>2026-05-02T10:14:31.18Z</time></trkpt><trkpt lat="40.3165078" lon="9.3309879"><ele>492.0</ele><time>2026-05-02T10:14:32.181Z</time></trkpt><trkpt lat="40.3164001" lon="9.3310645"><ele>490.5</ele><time>2026-05-02T10:14:33.181Z</time></trkpt><trkpt lat="40.316286" lon="9.3311356"><ele>489.0</ele><time>2026-05-02T10:14:34.18Z</time></trkpt><trkpt lat="40.3161754" lon="9.3311915"><ele>487.5</ele><time>2026-05-02T10:14:35.18Z</time></trkpt><trkpt lat="40.3160645" lon="9.3312332"><ele>486.0</ele><time>2026-05-02T10:14:36.181Z</time></trkpt><trkpt lat="40.3159543" lon="9.3312662"><ele>486.0</ele><time>2026-05-02T10:14:37.181Z</time></trkpt><trkpt lat="40.3158482" lon="9.331295"><ele>486.0</ele><time>2026-05-02T10:14:38.181Z</time></trkpt><trkpt lat="40.3157526" lon="9.3313106"><ele>486.0</ele><time>2026-05-02T10:14:39.18Z</time></trkpt><trkpt lat="40.3156628" lon="9.3313093"><ele>486.0</ele><time>2026-05-02T10:14:40.18Z</time></trkpt><trkpt lat="40.3155735" lon="9.3312933"><ele>486.0</ele><time>2026-05-02T10:14:41.18Z</time></trkpt><trkpt lat="40.3154848" lon="9.3312697"><ele>484.6666666666667</ele><time>2026-05-02T10:14:42.181Z</time></trkpt><trkpt lat="40.3154005" lon="9.3312394"><ele>483.33333333333337</ele><time>2026-05-02T10:14:43.181Z</time></trkpt><trkpt lat="40.3153319" lon="9.3312026"><ele>482.0</ele><time>2026-05-02T10:14:44.18Z</time></trkpt><trkpt lat="40.3152818" lon="9.3311525"><ele>480.6666666666667</ele><time>2026-05-02T10:14:45.18Z</time></trkpt><trkpt lat="40.3152347" lon="9.3309981"><ele>479.33333333333337</ele><time>2026-05-02T10:14:47.181Z</time></trkpt><trkpt lat="40.3152396" lon="9.3309041"><ele>478.0</ele><time>2026-05-02T10:14:48.181Z</time></trkpt><trkpt lat="40.3152499" lon="9.3308075"><ele>478.0</ele><time>2026-05-02T10:14:49.18Z</time></trkpt><trkpt lat="40.3152576" lon="9.3307074"><ele>477.99999999999994</ele><time>2026-05-02T10:14:50.181Z</time></trkpt><trkpt lat="40.3152587" lon="9.3305972"><ele>477.99999999999994</ele><time>2026-05-02T10:14:51.181Z</time></trkpt><trkpt lat="40.3152494" lon="9.3304755"><ele>478.0</ele><time>2026-05-02T10:14:52.181Z</time></trkpt><trkpt lat="40.3152289" lon="9.3303396"><ele>478.0</ele><time>2026-05-02T10:14:53.18Z</time></trkpt><trkpt lat="40.3152037" lon="9.3301894"><ele>478.25</ele><time>2026-05-02T10:14:54.181Z</time></trkpt><trkpt lat="40.3151704" lon="9.3300352"><ele>478.5</ele><time>2026-05-02T10:14:55.18Z</time></trkpt><trkpt lat="40.3151271" lon="9.3298741"><ele>478.75</ele><time>2026-05-02T10:14:56.181Z</time></trkpt><trkpt lat="40.3150734" lon="9.3297108"><ele>479.0</ele><time>2026-05-02T10:14:57.181Z</time></trkpt><trkpt lat="40.3150113" lon="9.3295458"><ele>478.75</ele><time>2026-05-02T10:14:58.18Z</time></trkpt><trkpt lat="40.3149421" lon="9.3293853"><ele>478.5</ele><time>2026-05-02T10:14:59.18Z</time></trkpt><trkpt lat="40.3148659" lon="9.3292385"><ele>478.25</ele><time>2026-05-02T10:15:00.18Z</time></trkpt><trkpt lat="40.3147873" lon="9.329098"><ele>478.0</ele><time>2026-05-02T10:15:01.181Z</time></trkpt><trkpt lat="40.3147092" lon="9.3289672"><ele>479.75</ele><time>2026-05-02T10:15:02.18Z</time></trkpt><trkpt lat="40.314636" lon="9.3288343"><ele>481.5</ele><time>2026-05-02T10:15:03.18Z</time></trkpt><trkpt lat="40.3145616" lon="9.3287028"><ele>483.25</ele><time>2026-05-02T10:15:04.18Z</time></trkpt><trkpt lat="40.3144984" lon="9.32858"><ele>485.0</ele><time>2026-05-02T10:15:05.18Z</time></trkpt><trkpt lat="40.3144501" lon="9.3284614"><ele>484.99999999999994</ele><time>2026-05-02T10:15:06.181Z</time></trkpt><trkpt lat="40.3144292" lon="9.3283483"><ele>485.0</ele><time>2026-05-02T10:15:07.181Z</time></trkpt><trkpt lat="40.3144358" lon="9.3282464"><ele>485.0</ele><time>2026-05-02T10:15:08.181Z</time></trkpt><trkpt lat="40.3144685" lon="9.3281552"><ele>485.0</ele><time>2026-05-02T10:15:09.181Z</time></trkpt><trkpt lat="40.3145251" lon="9.3280818"><ele>484.99999999999994</ele><time>2026-05-02T10:15:10.18Z</time></trkpt><trkpt lat="40.3146008" lon="9.3280349"><ele>485.0</ele><time>2026-05-02T10:15:11.18Z</time></trkpt><trkpt lat="40.3146812" lon="9.3280118"><ele>487.66666666666663</ele><time>2026-05-02T10:15:12.18Z</time></trkpt><trkpt lat="40.3147624" lon="9.3279951"><ele>490.3333333333333</ele><time>2026-05-02T10:15:13.18Z</time></trkpt><trkpt lat="40.3148432" lon="9.3279786"><ele>493.0</ele><time>2026-05-02T10:15:14.181Z</time></trkpt><trkpt lat="40.3149282" lon="9.3279618"><ele>495.66666666666663</ele><time>2026-05-02T10:15:15.181Z</time></trkpt><trkpt lat="40.3150103" lon="9.3279424"><ele>498.3333333333333</ele><time>2026-05-02T10:15:16.18Z</time></trkpt><trkpt lat="40.3150834" lon="9.3279252"><ele>501.0</ele><time>2026-05-02T10:15:17.18Z</time></trkpt><trkpt lat="40.31515" lon="9.3279084"><ele>501.0</ele><time>2026-05-02T10:15:18.18Z</time></trkpt><trkpt lat="40.3152124" lon="9.3278912"><ele>501.0</ele><time>2026-05-02T10:15:19.181Z</time></trkpt><trkpt lat="40.3153206" lon="9.3278541"><ele>501.0</ele><time>2026-05-02T10:15:21.18Z</time></trkpt><trkpt lat="40.3154096" lon="9.3277879"><ele>501.0</ele><time>2026-05-02T10:15:23.181Z</time></trkpt><trkpt lat="40.3154779" lon="9.3276336"><ele>501.0</ele><time>2026-05-02T10:15:25.18Z</time></trkpt><trkpt lat="40.3155045" lon="9.3275261"><ele>501.0</ele><time>2026-05-02T10:15:26.18Z</time></trkpt><trkpt lat="40.3155294" lon="9.327401"><ele>501.0</ele><time>2026-05-02T10:15:27.18Z</time></trkpt><trkpt lat="40.3155591" lon="9.3272793"><ele>501.0</ele><time>2026-05-02T10:15:28.181Z</time></trkpt><trkpt lat="40.3155897" lon="9.3271605"><ele>501.0</ele><time>2026-05-02T10:15:29.181Z</time></trkpt><trkpt lat="40.3156218" lon="9.3270434"><ele>501.0</ele><time>2026-05-02T10:15:30.181Z</time></trkpt><trkpt lat="40.3156596" lon="9.3269196"><ele>505.0</ele><time>2026-05-02T10:15:31.18Z</time></trkpt><trkpt lat="40.3157046" lon="9.3267828"><ele>509.0</ele><time>2026-05-02T10:15:32.18Z</time></trkpt><trkpt lat="40.3157534" lon="9.3266529"><ele>513.0</ele><time>2026-05-02T10:15:33.18Z</time></trkpt><trkpt lat="40.315812" lon="9.3265336"><ele>517.0</ele><time>2026-05-02T10:15:34.181Z</time></trkpt><trkpt lat="40.3158778" lon="9.3264284"><ele>521.0</ele><time>2026-05-02T10:15:35.181Z</time></trkpt><trkpt lat="40.3159476" lon="9.3263396"><ele>522.0</ele><time>2026-05-02T10:15:36.18Z</time></trkpt><trkpt lat="40.316022" lon="9.3262674"><ele>523.0</ele><time>2026-05-02T10:15:37.181Z</time></trkpt><trkpt lat="40.316098" lon="9.326221"><ele>524.0</ele><time>2026-05-02T10:15:38.181Z</time></trkpt><trkpt lat="40.3161727" lon="9.3261977"><ele>525.0</ele><time>2026-05-02T10:15:39.181Z</time></trkpt><trkpt lat="40.3162452" lon="9.3261877"><ele>526.0</ele><time>2026-05-02T10:15:40.18Z</time></trkpt><trkpt lat="40.3163209" lon="9.3261878"><ele>527.0</ele><time>2026-05-02T10:15:41.181Z</time></trkpt><trkpt lat="40.3164029" lon="9.3261899"><ele>527.1666666666666</ele><time>2026-05-02T10:15:42.181Z</time></trkpt><trkpt lat="40.3164775" lon="9.3261959"><ele>527.3333333333333</ele><time>2026-05-02T10:15:43.18Z</time></trkpt><trkpt lat="40.3165505" lon="9.3262021"><ele>527.5</ele><time>2026-05-02T10:15:44.18Z</time></trkpt><trkpt lat="40.3166278" lon="9.3262085"><ele>527.6666666666666</ele><time>2026-05-02T10:15:45.181Z</time></trkpt><trkpt lat="40.3167103" lon="9.3262157"><ele>527.8333333333334</ele><time>2026-05-02T10:15:46.181Z</time></trkpt><trkpt lat="40.3167971" lon="9.3262232"><ele>528.0</ele><time>2026-05-02T10:15:47.18Z</time></trkpt><trkpt lat="40.3168876" lon="9.3262269"><ele>528.0</ele><time>2026-05-02T10:15:48.18Z</time></trkpt><trkpt lat="40.3169816" lon="9.3262248"><ele>528.0</ele><time>2026-05-02T10:15:49.18Z</time></trkpt><trkpt lat="40.3170671" lon="9.3262124"><ele>528.0</ele><time>2026-05-02T10:15:50.181Z</time></trkpt><trkpt lat="40.3171408" lon="9.326195"><ele>528.0</ele><time>2026-05-02T10:15:51.181Z</time></trkpt><trkpt lat="40.3172431" lon="9.326131"><ele>528.0</ele><time>2026-05-02T10:15:53.181Z</time></trkpt><trkpt lat="40.3172693" lon="9.3260036"><ele>528.0</ele><time>2026-05-02T10:15:55.181Z</time></trkpt><trkpt lat="40.3172598" lon="9.3259161"><ele>528.0</ele><time>2026-05-02T10:15:56.18Z</time></trkpt><trkpt lat="40.3172376" lon="9.3258149"><ele>528.0</ele><time>2026-05-02T10:15:57.181Z</time></trkpt><trkpt lat="40.3172115" lon="9.3256991"><ele>528.0</ele><time>2026-05-02T10:15:58.181Z</time></trkpt><trkpt lat="40.3171838" lon="9.3255801"><ele>528.0</ele><time>2026-05-02T10:15:59.18Z</time></trkpt><trkpt lat="40.3171563" lon="9.3254608"><ele>528.0</ele><time>2026-05-02T10:16:00.18Z</time></trkpt><trkpt lat="40.3171301" lon="9.3253377"><ele>528.6666666666666</ele><time>2026-05-02T10:16:01.181Z</time></trkpt><trkpt lat="40.3171" lon="9.325215"><ele>529.3333333333334</ele><time>2026-05-02T10:16:02.181Z</time></trkpt><trkpt lat="40.3170691" lon="9.3251059"><ele>530.0</ele><time>2026-05-02T10:16:03.181Z</time></trkpt><trkpt lat="40.3170386" lon="9.3250269"><ele>530.6666666666667</ele><time>2026-05-02T10:16:04.181Z</time></trkpt><trkpt lat="40.3169757" lon="9.3249085"><ele>531.3333333333334</ele><time>2026-05-02T10:16:06.18Z</time></trkpt><trkpt lat="40.3169214" lon="9.324824"><ele>532.0</ele><time>2026-05-02T10:16:08.18Z</time></trkpt><trkpt lat="40.3168969" lon="9.3247146"><ele>532.8333333333334</ele><time>2026-05-02T10:16:13.18Z</time></trkpt><trkpt lat="40.3169585" lon="9.3246143"><ele>533.6666666666667</ele><time>2026-05-02T10:16:15.18Z</time></trkpt><trkpt lat="40.3170206" lon="9.3245538"><ele>534.5</ele><time>2026-05-02T10:16:16.181Z</time></trkpt><trkpt lat="40.3170869" lon="9.3244781"><ele>535.3333333333334</ele><time>2026-05-02T10:16:17.18Z</time></trkpt><trkpt lat="40.3171541" lon="9.3243957"><ele>536.1666666666666</ele><time>2026-05-02T10:16:18.181Z</time></trkpt><trkpt lat="40.3172189" lon="9.3243144"><ele>537.0</ele><time>2026-05-02T10:16:19.181Z</time></trkpt><trkpt lat="40.3172803" lon="9.3242339"><ele>537.0</ele><time>2026-05-02T10:16:20.18Z</time></trkpt><trkpt lat="40.3173451" lon="9.3241495"><ele>537.0</ele><time>2026-05-02T10:16:21.18Z</time></trkpt><trkpt lat="40.3174136" lon="9.3240609"><ele>537.0</ele><time>2026-05-02T10:16:22.18Z</time></trkpt><trkpt lat="40.3174844" lon="9.3239745"><ele>537.0</ele><time>2026-05-02T10:16:23.181Z</time></trkpt><trkpt lat="40.3175566" lon="9.3238775"><ele>537.0</ele><time>2026-05-02T10:16:24.18Z</time></trkpt><trkpt lat="40.3176212" lon="9.3237885"><ele>537.0</ele><time>2026-05-02T10:16:25.181Z</time></trkpt><trkpt lat="40.3176783" lon="9.3237099"><ele>537.0</ele><time>2026-05-02T10:16:26.181Z</time></trkpt><trkpt lat="40.3177343" lon="9.3236438"><ele>537.0</ele><time>2026-05-02T10:16:27.18Z</time></trkpt><trkpt lat="40.3177872" lon="9.323589"><ele>537.0</ele><time>2026-05-02T10:16:28.181Z</time></trkpt><trkpt lat="40.3179088" lon="9.3235417"><ele>537.0</ele><time>2026-05-02T10:16:30.181Z</time></trkpt><trkpt lat="40.3179803" lon="9.3235434"><ele>537.0</ele><time>2026-05-02T10:16:31.181Z</time></trkpt><trkpt lat="40.3180538" lon="9.3235543"><ele>536.9999999999999</ele><time>2026-05-02T10:16:32.18Z</time></trkpt><trkpt lat="40.3181229" lon="9.3235629"><ele>537.0</ele><time>2026-05-02T10:16:33.181Z</time></trkpt><trkpt lat="40.3181921" lon="9.3235688"><ele>537.0</ele><time>2026-05-02T10:16:34.181Z</time></trkpt><trkpt lat="40.3182686" lon="9.3235693"><ele>537.0</ele><time>2026-05-02T10:16:35.181Z</time></trkpt><trkpt lat="40.3183431" lon="9.3235703"><ele>537.0</ele><time>2026-05-02T10:16:36.18Z</time></trkpt><trkpt lat="40.3184135" lon="9.3235706"><ele>536.9999999999999</ele><time>2026-05-02T10:16:37.181Z</time></trkpt><trkpt lat="40.3184869" lon="9.3235719"><ele>537.0</ele><time>2026-05-02T10:16:38.18Z</time></trkpt><trkpt lat="40.3185667" lon="9.3235731"><ele>537.0</ele><time>2026-05-02T10:16:39.18Z</time></trkpt><trkpt lat="40.3186509" lon="9.323582"><ele>537.0</ele><time>2026-05-02T10:16:40.18Z</time></trkpt><trkpt lat="40.3187378" lon="9.3235883"><ele>537.0</ele><time>2026-05-02T10:16:41.181Z</time></trkpt><trkpt lat="40.3188311" lon="9.3235958"><ele>537.0</ele><time>2026-05-02T10:16:42.18Z</time></trkpt><trkpt lat="40.3189238" lon="9.3236063"><ele>537.0</ele><time>2026-05-02T10:16:43.181Z</time></trkpt><trkpt lat="40.3190109" lon="9.3236118"><ele>537.0</ele><time>2026-05-02T10:16:44.18Z</time></trkpt><trkpt lat="40.319097" lon="9.3236153"><ele>537.6</ele><time>2026-05-02T10:16:45.18Z</time></trkpt><trkpt lat="40.3191783" lon="9.3236166"><ele>538.2</ele><time>2026-05-02T10:16:46.181Z</time></trkpt><trkpt lat="40.319245" lon="9.3236208"><ele>538.8</ele><time>2026-05-02T10:16:47.18Z</time></trkpt><trkpt lat="40.3193454" lon="9.323625"><ele>539.4</ele><time>2026-05-02T10:16:49.18Z</time></trkpt><trkpt lat="40.3194288" lon="9.3236278"><ele>540.0</ele><time>2026-05-02T10:16:51.18Z</time></trkpt><trkpt lat="40.3195501" lon="9.3236339"><ele>540.0</ele><time>2026-05-02T10:16:53.181Z</time></trkpt><trkpt lat="40.319622" lon="9.3236393"><ele>540.0</ele><time>2026-05-02T10:16:54.181Z</time></trkpt><trkpt lat="40.3197021" lon="9.3236448"><ele>540.0</ele><time>2026-05-02T10:16:55.181Z</time></trkpt><trkpt lat="40.3197763" lon="9.3236502"><ele>540.0</ele><time>2026-05-02T10:16:56.18Z</time></trkpt><trkpt lat="40.3198444" lon="9.3236517"><ele>540.0</ele><time>2026-05-02T10:16:57.181Z</time></trkpt><trkpt lat="40.3199571" lon="9.3236481"><ele>540.0</ele><time>2026-05-02T10:16:59.18Z</time></trkpt><trkpt lat="40.3200178" lon="9.3235652"><ele>540.3333333333334</ele><time>2026-05-02T10:17:01.18Z</time></trkpt><trkpt lat="40.3200202" lon="9.3234401"><ele>540.6666666666666</ele><time>2026-05-02T10:17:03.18Z</time></trkpt><trkpt lat="40.3200065" lon="9.3233491"><ele>541.0</ele><time>2026-05-02T10:17:04.18Z</time></trkpt><trkpt lat="40.3199959" lon="9.3232409"><ele>541.3333333333333</ele><time>2026-05-02T10:17:05.181Z</time></trkpt><trkpt lat="40.3199876" lon="9.3231179"><ele>541.6666666666666</ele><time>2026-05-02T10:17:06.181Z</time></trkpt><trkpt lat="40.319974" lon="9.3229865"><ele>542.0</ele><time>2026-05-02T10:17:07.181Z</time></trkpt><trkpt lat="40.3199604" lon="9.3228535"><ele>542.6666666666666</ele><time>2026-05-02T10:17:08.181Z</time></trkpt><trkpt lat="40.3199487" lon="9.3227155"><ele>543.3333333333333</ele><time>2026-05-02T10:17:09.181Z</time></trkpt><trkpt lat="40.3199361" lon="9.3225971"><ele>544.0</ele><time>2026-05-02T10:17:10.18Z</time></trkpt><trkpt lat="40.3199267" lon="9.3224916"><ele>544.6666666666666</ele><time>2026-05-02T10:17:11.18Z</time></trkpt><trkpt lat="40.3199159" lon="9.3223984"><ele>545.3333333333334</ele><time>2026-05-02T10:17:12.18Z</time></trkpt><trkpt lat="40.3199057" lon="9.3223131"><ele>546.0</ele><time>2026-05-02T10:17:13.18Z</time></trkpt><trkpt lat="40.319893" lon="9.3221643"><ele>546.4</ele><time>2026-05-02T10:17:15.181Z</time></trkpt><trkpt lat="40.3198813" lon="9.3220512"><ele>546.8</ele><time>2026-05-02T10:17:17.181Z</time></trkpt><trkpt lat="40.3198622" lon="9.3219442"><ele>547.1999999999999</ele><time>2026-05-02T10:17:19.181Z</time></trkpt><trkpt lat="40.3198446" lon="9.3218214"><ele>547.6</ele><time>2026-05-02T10:17:21.18Z</time></trkpt><trkpt lat="40.3198288" lon="9.3216529"><ele>548.0</ele><time>2026-05-02T10:17:23.18Z</time></trkpt><trkpt lat="40.3198247" lon="9.3215542"><ele>548.0</ele><time>2026-05-02T10:17:24.181Z</time></trkpt><trkpt lat="40.3198287" lon="9.3214465"><ele>548.0</ele><time>2026-05-02T10:17:25.18Z</time></trkpt><trkpt lat="40.3198426" lon="9.3213304"><ele>548.0</ele><time>2026-05-02T10:17:26.18Z</time></trkpt><trkpt lat="40.3198614" lon="9.3212261"><ele>548.0</ele><time>2026-05-02T10:17:27.181Z</time></trkpt><trkpt lat="40.3198803" lon="9.3211342"><ele>548.0</ele><time>2026-05-02T10:17:28.181Z</time></trkpt><trkpt lat="40.3199292" lon="9.3209909"><ele>548.0</ele><time>2026-05-02T10:17:30.18Z</time></trkpt><trkpt lat="40.3199822" lon="9.3208872"><ele>547.8333333333333</ele><time>2026-05-02T10:17:32.18Z</time></trkpt><trkpt lat="40.3200282" lon="9.3208104"><ele>547.6666666666666</ele><time>2026-05-02T10:17:34.181Z</time></trkpt><trkpt lat="40.3200705" lon="9.3207446"><ele>547.5</ele><time>2026-05-02T10:17:36.181Z</time></trkpt><trkpt lat="40.3201147" lon="9.3206772"><ele>547.3333333333334</ele><time>2026-05-02T10:17:38.18Z</time></trkpt><trkpt lat="40.3201786" lon="9.3205955"><ele>547.1666666666667</ele><time>2026-05-02T10:17:46.181Z</time></trkpt><trkpt lat="40.320258" lon="9.3205625"><ele>547.0</ele><time>2026-05-02T10:17:48.18Z</time></trkpt><trkpt lat="40.3203746" lon="9.3205773"><ele>547.0</ele><time>2026-05-02T10:17:50.181Z</time></trkpt><trkpt lat="40.3204791" lon="9.3205014"><ele>547.0</ele><time>2026-05-02T10:17:52.181Z</time></trkpt><trkpt lat="40.320514" lon="9.3204176"><ele>547.0</ele><time>2026-05-02T10:17:53.18Z</time></trkpt><trkpt lat="40.3205497" lon="9.3202984"><ele>547.0</ele><time>2026-05-02T10:17:54.18Z</time></trkpt><trkpt lat="40.3205972" lon="9.3201728"><ele>547.0</ele><time>2026-05-02T10:17:55.18Z</time></trkpt><trkpt lat="40.320653" lon="9.3200424"><ele>546.75</ele><time>2026-05-02T10:17:56.181Z</time></trkpt><trkpt lat="40.3207156" lon="9.3199145"><ele>546.5</ele><time>2026-05-02T10:17:57.181Z</time></trkpt><trkpt lat="40.3207843" lon="9.319792"><ele>546.25</ele><time>2026-05-02T10:17:58.181Z</time></trkpt><trkpt lat="40.3208581" lon="9.3196715"><ele>546.0</ele><time>2026-05-02T10:17:59.18Z</time></trkpt><trkpt lat="40.3209345" lon="9.3195619"><ele>547.8</ele><time>2026-05-02T10:18:00.18Z</time></trkpt><trkpt lat="40.321019" lon="9.3194765"><ele>549.6</ele><time>2026-05-02T10:18:01.18Z</time></trkpt><trkpt lat="40.321113" lon="9.3194137"><ele>551.4</ele><time>2026-05-02T10:18:02.181Z</time></trkpt><trkpt lat="40.321216" lon="9.3193744"><ele>553.2</ele><time>2026-05-02T10:18:03.181Z</time></trkpt><trkpt lat="40.3213243" lon="9.3193559"><ele>555.0</ele><time>2026-05-02T10:18:04.18Z</time></trkpt><trkpt lat="40.3214353" lon="9.3193463"><ele>555.4</ele><time>2026-05-02T10:18:05.181Z</time></trkpt><trkpt lat="40.3215393" lon="9.3193427"><ele>555.8</ele><time>2026-05-02T10:18:06.181Z</time></trkpt><trkpt lat="40.3216387" lon="9.3193423"><ele>556.2</ele><time>2026-05-02T10:18:07.18Z</time></trkpt><trkpt lat="40.32173" lon="9.3193452"><ele>556.6</ele><time>2026-05-02T10:18:08.181Z</time></trkpt><trkpt lat="40.3218238" lon="9.319349"><ele>557.0</ele><time>2026-05-02T10:18:09.18Z</time></trkpt><trkpt lat="40.3219216" lon="9.3193642"><ele>557.0</ele><time>2026-05-02T10:18:10.18Z</time></trkpt><trkpt lat="40.3220101" lon="9.3193964"><ele>557.0</ele><time>2026-05-02T10:18:11.181Z</time></trkpt><trkpt lat="40.3220985" lon="9.3194404"><ele>557.0</ele><time>2026-05-02T10:18:12.18Z</time></trkpt><trkpt lat="40.3221913" lon="9.3194737"><ele>557.0</ele><time>2026-05-02T10:18:13.18Z</time></trkpt><trkpt lat="40.3222894" lon="9.3194625"><ele>557.0</ele><time>2026-05-02T10:18:14.18Z</time></trkpt><trkpt lat="40.3223783" lon="9.3194143"><ele>558.2</ele><time>2026-05-02T10:18:15.18Z</time></trkpt><trkpt lat="40.3224509" lon="9.3193265"><ele>559.4000000000001</ele><time>2026-05-02T10:18:16.181Z</time></trkpt><trkpt lat="40.3224946" lon="9.3192124"><ele>560.5999999999999</ele><time>2026-05-02T10:18:17.181Z</time></trkpt><trkpt lat="40.3225124" lon="9.3190819"><ele>561.8</ele><time>2026-05-02T10:18:18.18Z</time></trkpt><trkpt lat="40.3225413" lon="9.3189507"><ele>563.0</ele><time>2026-05-02T10:18:19.18Z</time></trkpt><trkpt lat="40.3225972" lon="9.3188337"><ele>564.75</ele><time>2026-05-02T10:18:20.181Z</time></trkpt><trkpt lat="40.322671" lon="9.318723"><ele>566.5</ele><time>2026-05-02T10:18:21.18Z</time></trkpt><trkpt lat="40.3227617" lon="9.3186151"><ele>568.25</ele><time>2026-05-02T10:18:22.181Z</time></trkpt><trkpt lat="40.3228619" lon="9.3184979"><ele>570.0</ele><time>2026-05-02T10:18:23.181Z</time></trkpt><trkpt lat="40.3229685" lon="9.3183676"><ele>572.0</ele><time>2026-05-02T10:18:24.18Z</time></trkpt><trkpt lat="40.323081" lon="9.3182272"><ele>574.0</ele><time>2026-05-02T10:18:25.18Z</time></trkpt><trkpt lat="40.3231944" lon="9.3180763"><ele>576.0</ele><time>2026-05-02T10:18:26.181Z</time></trkpt><trkpt lat="40.3233011" lon="9.3179137"><ele>576.6666666666666</ele><time>2026-05-02T10:18:27.181Z</time></trkpt><trkpt lat="40.3234003" lon="9.3177361"><ele>577.3333333333333</ele><time>2026-05-02T10:18:28.181Z</time></trkpt><trkpt lat="40.3234893" lon="9.317548"><ele>578.0</ele><time>2026-05-02T10:18:29.18Z</time></trkpt><trkpt lat="40.3235677" lon="9.3173477"><ele>579.6666666666666</ele><time>2026-05-02T10:18:30.18Z</time></trkpt><trkpt lat="40.3236407" lon="9.3171361"><ele>581.3333333333334</ele><time>2026-05-02T10:18:31.18Z</time></trkpt><trkpt lat="40.3237154" lon="9.3169214"><ele>583.0</ele><time>2026-05-02T10:18:32.181Z</time></trkpt><trkpt lat="40.3237941" lon="9.3167017"><ele>583.0</ele><time>2026-05-02T10:18:33.18Z</time></trkpt><trkpt lat="40.3238795" lon="9.3164791"><ele>583.0</ele><time>2026-05-02T10:18:34.18Z</time></trkpt><trkpt lat="40.3239687" lon="9.3162515"><ele>583.0</ele><time>2026-05-02T10:18:35.181Z</time></trkpt><trkpt lat="40.3240571" lon="9.3160259"><ele>582.6666666666667</ele><time>2026-05-02T10:18:36.181Z</time></trkpt><trkpt lat="40.3241426" lon="9.3158041"><ele>582.3333333333334</ele><time>2026-05-02T10:18:37.181Z</time></trkpt><trkpt lat="40.3242252" lon="9.3155844"><ele>582.0</ele><time>2026-05-02T10:18:38.181Z</time></trkpt><trkpt lat="40.3243059" lon="9.3153672"><ele>582.0</ele><time>2026-05-02T10:18:39.181Z</time></trkpt><trkpt lat="40.3243875" lon="9.3151532"><ele>582.0</ele><time>2026-05-02T10:18:40.18Z</time></trkpt><trkpt lat="40.3244679" lon="9.3149403"><ele>582.0</ele><time>2026-05-02T10:18:41.181Z</time></trkpt><trkpt lat="40.3245512" lon="9.3147279"><ele>581.3333333333334</ele><time>2026-05-02T10:18:42.181Z</time></trkpt><trkpt lat="40.3246384" lon="9.3145051"><ele>580.6666666666667</ele><time>2026-05-02T10:18:43.18Z</time></trkpt><trkpt lat="40.3247232" lon="9.3142888"><ele>580.0</ele><time>2026-05-02T10:18:44.18Z</time></trkpt><trkpt lat="40.3248091" lon="9.3140704"><ele>578.6666666666667</ele><time>2026-05-02T10:18:45.181Z</time></trkpt><trkpt lat="40.3248983" lon="9.3138565"><ele>577.3333333333334</ele><time>2026-05-02T10:18:46.18Z</time></trkpt><trkpt lat="40.3249863" lon="9.3136433"><ele>576.0</ele><time>2026-05-02T10:18:47.18Z</time></trkpt><trkpt lat="40.325075" lon="9.3134289"><ele>576.0</ele><time>2026-05-02T10:18:48.181Z</time></trkpt><trkpt lat="40.325164" lon="9.3132124"><ele>576.0</ele><time>2026-05-02T10:18:49.18Z</time></trkpt><trkpt lat="40.325252" lon="9.3129944"><ele>576.0</ele><time>2026-05-02T10:18:50.181Z</time></trkpt><trkpt lat="40.3253403" lon="9.3127766"><ele>574.0</ele><time>2026-05-02T10:18:51.18Z</time></trkpt><trkpt lat="40.3254232" lon="9.3125695"><ele>572.0</ele><time>2026-05-02T10:18:52.18Z</time></trkpt><trkpt lat="40.3255031" lon="9.3123698"><ele>570.0</ele><time>2026-05-02T10:18:53.18Z</time></trkpt><trkpt lat="40.3255828" lon="9.3121711"><ele>570.0</ele><time>2026-05-02T10:18:54.18Z</time></trkpt><trkpt lat="40.3256624" lon="9.3119727"><ele>570.0</ele><time>2026-05-02T10:18:55.181Z</time></trkpt><trkpt lat="40.3257421" lon="9.3117769"><ele>570.0</ele><time>2026-05-02T10:18:56.18Z</time></trkpt><trkpt lat="40.3258222" lon="9.3115798"><ele>569.0</ele><time>2026-05-02T10:18:57.181Z</time></trkpt><trkpt lat="40.3259038" lon="9.3113819"><ele>568.0</ele><time>2026-05-02T10:18:58.181Z</time></trkpt><trkpt lat="40.325985" lon="9.3111794"><ele>567.0</ele><time>2026-05-02T10:18:59.181Z</time></trkpt><trkpt lat="40.3260677" lon="9.3109721"><ele>567.0</ele><time>2026-05-02T10:19:00.18Z</time></trkpt><trkpt lat="40.3261531" lon="9.310761"><ele>567.0</ele><time>2026-05-02T10:19:01.181Z</time></trkpt><trkpt lat="40.3262383" lon="9.3105435"><ele>567.0</ele><time>2026-05-02T10:19:02.18Z</time></trkpt><trkpt lat="40.3263248" lon="9.3103241"><ele>567.3333333333334</ele><time>2026-05-02T10:19:03.18Z</time></trkpt><trkpt lat="40.3264123" lon="9.3101016"><ele>567.6666666666667</ele><time>2026-05-02T10:19:04.18Z</time></trkpt><trkpt lat="40.3265015" lon="9.30988"><ele>568.0</ele><time>2026-05-02T10:19:05.18Z</time></trkpt><trkpt lat="40.3265914" lon="9.3096557"><ele>569.0</ele><time>2026-05-02T10:19:06.181Z</time></trkpt><trkpt lat="40.3266827" lon="9.3094287"><ele>570.0</ele><time>2026-05-02T10:19:07.18Z</time></trkpt><trkpt lat="40.3267741" lon="9.309201"><ele>571.0</ele><time>2026-05-02T10:19:08.181Z</time></trkpt><trkpt lat="40.3268641" lon="9.3089756"><ele>571.6666666666667</ele><time>2026-05-02T10:19:09.181Z</time></trkpt><trkpt lat="40.326952" lon="9.3087528"><ele>572.3333333333334</ele><time>2026-05-02T10:19:10.181Z</time></trkpt><trkpt lat="40.3270399" lon="9.3085316"><ele>573.0</ele><time>2026-05-02T10:19:11.18Z</time></trkpt><trkpt lat="40.3271253" lon="9.3083116"><ele>573.0</ele><time>2026-05-02T10:19:12.181Z</time></trkpt><trkpt lat="40.3272076" lon="9.3080941"><ele>573.0</ele><time>2026-05-02T10:19:13.181Z</time></trkpt><trkpt lat="40.3272879" lon="9.3078682"><ele>573.0</ele><time>2026-05-02T10:19:14.18Z</time></trkpt><trkpt lat="40.3273626" lon="9.3076448"><ele>575.3333333333334</ele><time>2026-05-02T10:19:15.181Z</time></trkpt><trkpt lat="40.3274364" lon="9.3074197"><ele>577.6666666666667</ele><time>2026-05-02T10:19:16.181Z</time></trkpt><trkpt lat="40.3275096" lon="9.3071907"><ele>580.0</ele><time>2026-05-02T10:19:17.181Z</time></trkpt><trkpt lat="40.3275804" lon="9.306958"><ele>580.6666666666667</ele><time>2026-05-02T10:19:18.181Z</time></trkpt><trkpt lat="40.3276473" lon="9.3067248"><ele>581.3333333333334</ele><time>2026-05-02T10:19:19.18Z</time></trkpt><trkpt lat="40.3277097" lon="9.306488"><ele>582.0</ele><time>2026-05-02T10:19:20.18Z</time></trkpt><trkpt lat="40.3277704" lon="9.3062462"><ele>582.3333333333334</ele><time>2026-05-02T10:19:21.18Z</time></trkpt><trkpt lat="40.3278304" lon="9.3060053"><ele>582.6666666666667</ele><time>2026-05-02T10:19:22.18Z</time></trkpt><trkpt lat="40.3278882" lon="9.3057621"><ele>583.0</ele><time>2026-05-02T10:19:23.181Z</time></trkpt><trkpt lat="40.3279445" lon="9.3055228"><ele>583.6666666666667</ele><time>2026-05-02T10:19:24.181Z</time></trkpt><trkpt lat="40.3279956" lon="9.3052949"><ele>584.3333333333334</ele><time>2026-05-02T10:19:25.181Z</time></trkpt><trkpt lat="40.3280459" lon="9.3050652"><ele>585.0</ele><time>2026-05-02T10:19:26.181Z</time></trkpt><trkpt lat="40.3280953" lon="9.304839"><ele>582.3333333333334</ele><time>2026-05-02T10:19:27.181Z</time></trkpt><trkpt lat="40.3281475" lon="9.3046118"><ele>579.6666666666667</ele><time>2026-05-02T10:19:28.18Z</time></trkpt><trkpt lat="40.3281999" lon="9.3043815"><ele>577.0</ele><time>2026-05-02T10:19:29.181Z</time></trkpt><trkpt lat="40.3282535" lon="9.3041463"><ele>577.0</ele><time>2026-05-02T10:19:30.18Z</time></trkpt><trkpt lat="40.3283087" lon="9.3039084"><ele>577.0</ele><time>2026-05-02T10:19:31.18Z</time></trkpt><trkpt lat="40.3283656" lon="9.3036639"><ele>577.0</ele><time>2026-05-02T10:19:32.18Z</time></trkpt><trkpt lat="40.3284223" lon="9.3034132"><ele>577.0</ele><time>2026-05-02T10:19:33.18Z</time></trkpt><trkpt lat="40.3284764" lon="9.3031559"><ele>577.0</ele><time>2026-05-02T10:19:34.181Z</time></trkpt><trkpt lat="40.3285251" lon="9.3028892"><ele>577.0</ele><time>2026-05-02T10:19:35.18Z</time></trkpt><trkpt lat="40.328564" lon="9.3026186"><ele>576.6666666666667</ele><time>2026-05-02T10:19:36.181Z</time></trkpt><trkpt lat="40.3285874" lon="9.3023428"><ele>576.3333333333334</ele><time>2026-05-02T10:19:37.181Z</time></trkpt><trkpt lat="40.3285887" lon="9.3020632"><ele>576.0</ele><time>2026-05-02T10:19:38.18Z</time></trkpt><trkpt lat="40.3285742" lon="9.3017818"><ele>576.0</ele><time>2026-05-02T10:19:39.181Z</time></trkpt><trkpt lat="40.3285475" lon="9.3015"><ele>576.0</ele><time>2026-05-02T10:19:40.18Z</time></trkpt><trkpt lat="40.3285151" lon="9.3012165"><ele>576.0</ele><time>2026-05-02T10:19:41.18Z</time></trkpt><trkpt lat="40.3284838" lon="9.3009299"><ele>571.6666666666666</ele><time>2026-05-02T10:19:42.181Z</time></trkpt><trkpt lat="40.3284538" lon="9.3006419"><ele>567.3333333333333</ele><time>2026-05-02T10:19:43.181Z</time></trkpt><trkpt lat="40.3284227" lon="9.3003509"><ele>563.0</ele><time>2026-05-02T10:19:44.18Z</time></trkpt><trkpt lat="40.3283889" lon="9.3000569"><ele>563.0</ele><time>2026-05-02T10:19:45.18Z</time></trkpt><trkpt lat="40.3283517" lon="9.2997624"><ele>563.0</ele><time>2026-05-02T10:19:46.18Z</time></trkpt><trkpt lat="40.3283075" lon="9.2994812"><ele>563.0</ele><time>2026-05-02T10:19:47.18Z</time></trkpt><trkpt lat="40.3282572" lon="9.2992097"><ele>560.6666666666666</ele><time>2026-05-02T10:19:48.18Z</time></trkpt><trkpt lat="40.3282009" lon="9.2989561"><ele>558.3333333333334</ele><time>2026-05-02T10:19:49.181Z</time></trkpt><trkpt lat="40.3281431" lon="9.298717"><ele>556.0</ele><time>2026-05-02T10:19:50.18Z</time></trkpt><trkpt lat="40.3280886" lon="9.2984876"><ele>560.6666666666667</ele><time>2026-05-02T10:19:51.181Z</time></trkpt><trkpt lat="40.3280393" lon="9.2982701"><ele>565.3333333333334</ele><time>2026-05-02T10:19:52.181Z</time></trkpt><trkpt lat="40.3279956" lon="9.2980586"><ele>570.0</ele><time>2026-05-02T10:19:53.181Z</time></trkpt><trkpt lat="40.3279572" lon="9.2978504"><ele>570.0</ele><time>2026-05-02T10:19:54.181Z</time></trkpt><trkpt lat="40.3279228" lon="9.2976423"><ele>570.0</ele><time>2026-05-02T10:19:55.181Z</time></trkpt><trkpt lat="40.3278901" lon="9.2974375"><ele>570.0</ele><time>2026-05-02T10:19:56.181Z</time></trkpt><trkpt lat="40.3278554" lon="9.2972373"><ele>567.0</ele><time>2026-05-02T10:19:57.181Z</time></trkpt><trkpt lat="40.3278207" lon="9.2970388"><ele>564.0</ele><time>2026-05-02T10:19:58.181Z</time></trkpt><trkpt lat="40.327783" lon="9.2968415"><ele>561.0</ele><time>2026-05-02T10:19:59.181Z</time></trkpt><trkpt lat="40.3277395" lon="9.2966439"><ele>561.0</ele><time>2026-05-02T10:20:00.18Z</time></trkpt><trkpt lat="40.3276938" lon="9.2964495"><ele>561.0</ele><time>2026-05-02T10:20:01.181Z</time></trkpt><trkpt lat="40.3276498" lon="9.2962532"><ele>561.0</ele><time>2026-05-02T10:20:02.181Z</time></trkpt><trkpt lat="40.3276075" lon="9.2960529"><ele>557.3333333333334</ele><time>2026-05-02T10:20:03.181Z</time></trkpt><trkpt lat="40.3275663" lon="9.2958521"><ele>553.6666666666667</ele><time>2026-05-02T10:20:04.181Z</time></trkpt><trkpt lat="40.3275238" lon="9.2956454"><ele>550.0</ele><time>2026-05-02T10:20:05.181Z</time></trkpt><trkpt lat="40.3274693" lon="9.2954388"><ele>545.3333333333334</ele><time>2026-05-02T10:20:06.181Z</time></trkpt><trkpt lat="40.3274001" lon="9.295238"><ele>540.6666666666666</ele><time>2026-05-02T10:20:07.18Z</time></trkpt><trkpt lat="40.3273188" lon="9.2950381"><ele>536.0</ele><time>2026-05-02T10:20:08.18Z</time></trkpt><trkpt lat="40.3272328" lon="9.2948462"><ele>536.0</ele><time>2026-05-02T10:20:09.18Z</time></trkpt><trkpt lat="40.3271418" lon="9.2946575"><ele>536.0</ele><time>2026-05-02T10:20:10.181Z</time></trkpt><trkpt lat="40.3270425" lon="9.2944801"><ele>536.0</ele><time>2026-05-02T10:20:11.181Z</time></trkpt><trkpt lat="40.3269357" lon="9.2943076"><ele>536.0</ele><time>2026-05-02T10:20:12.181Z</time></trkpt><trkpt lat="40.326816" lon="9.2941405"><ele>536.0</ele><time>2026-05-02T10:20:13.18Z</time></trkpt><trkpt lat="40.3266798" lon="9.2939876"><ele>536.0</ele><time>2026-05-02T10:20:14.18Z</time></trkpt><trkpt lat="40.3265294" lon="9.2938433"><ele>533.6666666666666</ele><time>2026-05-02T10:20:15.181Z</time></trkpt><trkpt lat="40.3263755" lon="9.293712"><ele>531.3333333333334</ele><time>2026-05-02T10:20:16.181Z</time></trkpt><trkpt lat="40.3262221" lon="9.2935844"><ele>529.0</ele><time>2026-05-02T10:20:17.18Z</time></trkpt><trkpt lat="40.326068" lon="9.2934697"><ele>529.0</ele><time>2026-05-02T10:20:18.18Z</time></trkpt><trkpt lat="40.325913" lon="9.2933634"><ele>529.0</ele><time>2026-05-02T10:20:19.18Z</time></trkpt><trkpt lat="40.3257542" lon="9.293276"><ele>529.0</ele><time>2026-05-02T10:20:20.181Z</time></trkpt><trkpt lat="40.325601" lon="9.2932053"><ele>530.0</ele><time>2026-05-02T10:20:21.18Z</time></trkpt><trkpt lat="40.3254574" lon="9.2931545"><ele>531.0</ele><time>2026-05-02T10:20:22.18Z</time></trkpt><trkpt lat="40.3253272" lon="9.2931202"><ele>532.0</ele><time>2026-05-02T10:20:23.18Z</time></trkpt><trkpt lat="40.3252159" lon="9.293074"><ele>533.0</ele><time>2026-05-02T10:20:24.181Z</time></trkpt><trkpt lat="40.3251335" lon="9.2929879"><ele>530.25</ele><time>2026-05-02T10:20:25.18Z</time></trkpt><trkpt lat="40.3250733" lon="9.2928656"><ele>527.5</ele><time>2026-05-02T10:20:26.18Z</time></trkpt><trkpt lat="40.3250367" lon="9.2927144"><ele>524.75</ele><time>2026-05-02T10:20:27.18Z</time></trkpt><trkpt lat="40.3250166" lon="9.2925627"><ele>522.0</ele><time>2026-05-02T10:20:28.18Z</time></trkpt><trkpt lat="40.3250105" lon="9.2924191"><ele>522.0</ele><time>2026-05-02T10:20:29.18Z</time></trkpt><trkpt lat="40.3250234" lon="9.2922931"><ele>522.0</ele><time>2026-05-02T10:20:30.181Z</time></trkpt><trkpt lat="40.3250597" lon="9.2921996"><ele>522.0</ele><time>2026-05-02T10:20:31.18Z</time></trkpt><trkpt lat="40.3251153" lon="9.2921412"><ele>522.0</ele><time>2026-05-02T10:20:32.18Z</time></trkpt><trkpt lat="40.3251929" lon="9.2921065"><ele>522.0</ele><time>2026-05-02T10:20:33.18Z</time></trkpt><trkpt lat="40.3252947" lon="9.2920929"><ele>522.0</ele><time>2026-05-02T10:20:34.18Z</time></trkpt><trkpt lat="40.3254132" lon="9.292098"><ele>520.0</ele><time>2026-05-02T10:20:35.181Z</time></trkpt><trkpt lat="40.3255455" lon="9.2921233"><ele>518.0</ele><time>2026-05-02T10:20:36.18Z</time></trkpt><trkpt lat="40.3256836" lon="9.2921619"><ele>516.0</ele><time>2026-05-02T10:20:37.181Z</time></trkpt><trkpt lat="40.3258361" lon="9.2922093"><ele>514.0</ele><time>2026-05-02T10:20:38.18Z</time></trkpt><trkpt lat="40.3259989" lon="9.2922469"><ele>513.6666666666667</ele><time>2026-05-02T10:20:39.181Z</time></trkpt><trkpt lat="40.3261713" lon="9.2922657"><ele>513.3333333333334</ele><time>2026-05-02T10:20:40.181Z</time></trkpt><trkpt lat="40.3263552" lon="9.2922757"><ele>513.0</ele><time>2026-05-02T10:20:41.18Z</time></trkpt><trkpt lat="40.3265468" lon="9.2922791"><ele>512.3333333333334</ele><time>2026-05-02T10:20:42.181Z</time></trkpt><trkpt lat="40.3267438" lon="9.2922844"><ele>511.6666666666667</ele><time>2026-05-02T10:20:43.18Z</time></trkpt><trkpt lat="40.3269496" lon="9.2922886"><ele>511.0</ele><time>2026-05-02T10:20:44.181Z</time></trkpt><trkpt lat="40.3271593" lon="9.2922938"><ele>509.33333333333337</ele><time>2026-05-02T10:20:45.181Z</time></trkpt><trkpt lat="40.3273631" lon="9.2922994"><ele>507.66666666666663</ele><time>2026-05-02T10:20:46.181Z</time></trkpt><trkpt lat="40.3275543" lon="9.2923025"><ele>506.0</ele><time>2026-05-02T10:20:47.181Z</time></trkpt><trkpt lat="40.3277321" lon="9.2923051"><ele>506.0</ele><time>2026-05-02T10:20:48.18Z</time></trkpt><trkpt lat="40.3278928" lon="9.2923072"><ele>506.0</ele><time>2026-05-02T10:20:49.18Z</time></trkpt><trkpt lat="40.3280297" lon="9.292301"><ele>506.0</ele><time>2026-05-02T10:20:50.18Z</time></trkpt><trkpt lat="40.3281481" lon="9.2922807"><ele>506.0</ele><time>2026-05-02T10:20:51.18Z</time></trkpt><trkpt lat="40.3282503" lon="9.2922403"><ele>503.8</ele><time>2026-05-02T10:20:52.18Z</time></trkpt><trkpt lat="40.3283441" lon="9.2921705"><ele>501.6</ele><time>2026-05-02T10:20:53.18Z</time></trkpt><trkpt lat="40.3284196" lon="9.2920998"><ele>499.4</ele><time>2026-05-02T10:20:54.18Z</time></trkpt><trkpt lat="40.3284754" lon="9.2920223"><ele>497.2</ele><time>2026-05-02T10:20:55.18Z</time></trkpt><trkpt lat="40.3285203" lon="9.2919295"><ele>495.0</ele><time>2026-05-02T10:20:56.181Z</time></trkpt><trkpt lat="40.3285593" lon="9.2918154"><ele>495.0</ele><time>2026-05-02T10:20:57.181Z</time></trkpt><trkpt lat="40.3285892" lon="9.2916766"><ele>495.0</ele><time>2026-05-02T10:20:58.18Z</time></trkpt><trkpt lat="40.3286113" lon="9.2915139"><ele>495.0</ele><time>2026-05-02T10:20:59.18Z</time></trkpt><trkpt lat="40.3286275" lon="9.291327"><ele>495.0</ele><time>2026-05-02T10:21:00.18Z</time></trkpt><trkpt lat="40.3286459" lon="9.2911242"><ele>494.5</ele><time>2026-05-02T10:21:01.18Z</time></trkpt><trkpt lat="40.3286664" lon="9.290928"><ele>494.0</ele><time>2026-05-02T10:21:02.18Z</time></trkpt><trkpt lat="40.3286845" lon="9.2907372"><ele>493.5</ele><time>2026-05-02T10:21:03.181Z</time></trkpt><trkpt lat="40.328705" lon="9.2905409"><ele>493.0</ele><time>2026-05-02T10:21:04.181Z</time></trkpt><trkpt lat="40.3287268" lon="9.2903431"><ele>492.0</ele><time>2026-05-02T10:21:05.18Z</time></trkpt><trkpt lat="40.3287492" lon="9.2901543"><ele>491.0</ele><time>2026-05-02T10:21:06.181Z</time></trkpt><trkpt lat="40.3287675" lon="9.2899707"><ele>490.0</ele><time>2026-05-02T10:21:07.181Z</time></trkpt><trkpt lat="40.3287864" lon="9.2897965"><ele>489.0</ele><time>2026-05-02T10:21:08.18Z</time></trkpt><trkpt lat="40.3288246" lon="9.2896397"><ele>488.5</ele><time>2026-05-02T10:21:09.181Z</time></trkpt><trkpt lat="40.3288826" lon="9.289498"><ele>488.0</ele><time>2026-05-02T10:21:10.18Z</time></trkpt><trkpt lat="40.3289596" lon="9.2893805"><ele>487.5</ele><time>2026-05-02T10:21:11.181Z</time></trkpt><trkpt lat="40.3290255" lon="9.2892647"><ele>487.0</ele><time>2026-05-02T10:21:12.181Z</time></trkpt><trkpt lat="40.329066" lon="9.2891287"><ele>486.25</ele><time>2026-05-02T10:21:13.18Z</time></trkpt><trkpt lat="40.3290992" lon="9.2889805"><ele>485.5</ele><time>2026-05-02T10:21:14.181Z</time></trkpt><trkpt lat="40.3291618" lon="9.2888424"><ele>484.75</ele><time>2026-05-02T10:21:15.18Z</time></trkpt><trkpt lat="40.3292449" lon="9.2887102"><ele>484.0</ele><time>2026-05-02T10:21:16.181Z</time></trkpt><trkpt lat="40.3293452" lon="9.288579"><ele>484.0</ele><time>2026-05-02T10:21:17.18Z</time></trkpt><trkpt lat="40.3294562" lon="9.2884466"><ele>484.0</ele><time>2026-05-02T10:21:18.18Z</time></trkpt><trkpt lat="40.3295787" lon="9.2883111"><ele>484.0</ele><time>2026-05-02T10:21:19.181Z</time></trkpt><trkpt lat="40.3297104" lon="9.2881756"><ele>483.6666666666667</ele><time>2026-05-02T10:21:20.181Z</time></trkpt><trkpt lat="40.3298474" lon="9.2880396"><ele>483.33333333333337</ele><time>2026-05-02T10:21:21.181Z</time></trkpt><trkpt lat="40.3299897" lon="9.2879073"><ele>483.0</ele><time>2026-05-02T10:21:22.181Z</time></trkpt><trkpt lat="40.3301389" lon="9.2877808"><ele>483.0</ele><time>2026-05-02T10:21:23.18Z</time></trkpt><trkpt lat="40.3302936" lon="9.2876557"><ele>483.0</ele><time>2026-05-02T10:21:24.18Z</time></trkpt><trkpt lat="40.3304502" lon="9.2875304"><ele>483.0</ele><time>2026-05-02T10:21:25.18Z</time></trkpt><trkpt lat="40.330609" lon="9.2874054"><ele>483.0</ele><time>2026-05-02T10:21:26.18Z</time></trkpt><trkpt lat="40.3307699" lon="9.2872784"><ele>483.0</ele><time>2026-05-02T10:21:27.181Z</time></trkpt><trkpt lat="40.3309333" lon="9.2871487"><ele>483.0</ele><time>2026-05-02T10:21:28.181Z</time></trkpt><trkpt lat="40.3310989" lon="9.2870186"><ele>483.0</ele><time>2026-05-02T10:21:29.181Z</time></trkpt><trkpt lat="40.3312669" lon="9.2868867"><ele>483.0</ele><time>2026-05-02T10:21:30.181Z</time></trkpt><trkpt lat="40.3314378" lon="9.2867521"><ele>483.0</ele><time>2026-05-02T10:21:31.181Z</time></trkpt><trkpt lat="40.3316106" lon="9.2866144"><ele>483.0</ele><time>2026-05-02T10:21:32.18Z</time></trkpt><trkpt lat="40.3317862" lon="9.286475"><ele>483.0</ele><time>2026-05-02T10:21:33.18Z</time></trkpt><trkpt lat="40.3319656" lon="9.2863362"><ele>483.0</ele><time>2026-05-02T10:21:34.181Z</time></trkpt><trkpt lat="40.3321462" lon="9.2861951"><ele>483.0</ele><time>2026-05-02T10:21:35.18Z</time></trkpt><trkpt lat="40.3323295" lon="9.2860492"><ele>483.0</ele><time>2026-05-02T10:21:36.18Z</time></trkpt><trkpt lat="40.3325142" lon="9.2859022"><ele>483.0</ele><time>2026-05-02T10:21:37.18Z</time></trkpt><trkpt lat="40.3327027" lon="9.2857526"><ele>483.0</ele><time>2026-05-02T10:21:38.181Z</time></trkpt><trkpt lat="40.3328912" lon="9.2856047"><ele>483.0</ele><time>2026-05-02T10:21:39.181Z</time></trkpt><trkpt lat="40.333075" lon="9.2854681"><ele>483.0</ele><time>2026-05-02T10:21:40.181Z</time></trkpt><trkpt lat="40.333262" lon="9.2853483"><ele>483.66666666666663</ele><time>2026-05-02T10:21:41.181Z</time></trkpt><trkpt lat="40.3334513" lon="9.2852601"><ele>484.3333333333333</ele><time>2026-05-02T10:21:42.181Z</time></trkpt><trkpt lat="40.3336437" lon="9.2852058"><ele>485.0</ele><time>2026-05-02T10:21:43.18Z</time></trkpt><trkpt lat="40.3338385" lon="9.2851818"><ele>485.0</ele><time>2026-05-02T10:21:44.18Z</time></trkpt><trkpt lat="40.3340348" lon="9.2851843"><ele>485.0</ele><time>2026-05-02T10:21:45.18Z</time></trkpt><trkpt lat="40.3342273" lon="9.2852075"><ele>485.0</ele><time>2026-05-02T10:21:46.181Z</time></trkpt><trkpt lat="40.334411" lon="9.285265"><ele>485.0</ele><time>2026-05-02T10:21:47.181Z</time></trkpt><trkpt lat="40.334573" lon="9.2853586"><ele>485.0</ele><time>2026-05-02T10:21:48.18Z</time></trkpt><trkpt lat="40.3347188" lon="9.2854791"><ele>485.0</ele><time>2026-05-02T10:21:49.181Z</time></trkpt><trkpt lat="40.3348358" lon="9.2856216"><ele>487.3333333333333</ele><time>2026-05-02T10:21:50.18Z</time></trkpt><trkpt lat="40.3349194" lon="9.2857943"><ele>489.66666666666663</ele><time>2026-05-02T10:21:51.18Z</time></trkpt><trkpt lat="40.3349797" lon="9.2859877"><ele>492.0</ele><time>2026-05-02T10:21:52.18Z</time></trkpt><trkpt lat="40.3350103" lon="9.2861783"><ele>492.0</ele><time>2026-05-02T10:21:53.18Z</time></trkpt><trkpt lat="40.3350042" lon="9.2863694"><ele>492.0</ele><time>2026-05-02T10:21:54.181Z</time></trkpt><trkpt lat="40.3349708" lon="9.2865633"><ele>492.0</ele><time>2026-05-02T10:21:55.181Z</time></trkpt><trkpt lat="40.3349348" lon="9.2867653"><ele>492.66666666666663</ele><time>2026-05-02T10:21:56.181Z</time></trkpt><trkpt lat="40.3349095" lon="9.286982"><ele>493.3333333333333</ele><time>2026-05-02T10:21:57.181Z</time></trkpt><trkpt lat="40.3349188" lon="9.2872018"><ele>494.0</ele><time>2026-05-02T10:21:58.18Z</time></trkpt><trkpt lat="40.3349568" lon="9.2874286"><ele>495.66666666666663</ele><time>2026-05-02T10:21:59.181Z</time></trkpt><trkpt lat="40.3350088" lon="9.2876678"><ele>497.33333333333337</ele><time>2026-05-02T10:22:00.181Z</time></trkpt><trkpt lat="40.3350626" lon="9.2879092"><ele>499.0</ele><time>2026-05-02T10:22:01.181Z</time></trkpt><trkpt lat="40.3351326" lon="9.2881363"><ele>499.33333333333337</ele><time>2026-05-02T10:22:02.18Z</time></trkpt><trkpt lat="40.3352352" lon="9.288344"><ele>499.66666666666663</ele><time>2026-05-02T10:22:03.181Z</time></trkpt><trkpt lat="40.3353602" lon="9.2885447"><ele>500.0</ele><time>2026-05-02T10:22:04.181Z</time></trkpt><trkpt lat="40.3354978" lon="9.2887488"><ele>502.0</ele><time>2026-05-02T10:22:05.181Z</time></trkpt><trkpt lat="40.3356387" lon="9.2889542"><ele>504.0</ele><time>2026-05-02T10:22:06.181Z</time></trkpt><trkpt lat="40.3357761" lon="9.2891526"><ele>506.0</ele><time>2026-05-02T10:22:07.18Z</time></trkpt><trkpt lat="40.3359185" lon="9.2893292"><ele>506.0</ele><time>2026-05-02T10:22:08.18Z</time></trkpt><trkpt lat="40.33608" lon="9.2894819"><ele>506.0</ele><time>2026-05-02T10:22:09.18Z</time></trkpt><trkpt lat="40.3362534" lon="9.2896213"><ele>506.0</ele><time>2026-05-02T10:22:10.181Z</time></trkpt><trkpt lat="40.3364342" lon="9.2897551"><ele>507.3333333333333</ele><time>2026-05-02T10:22:11.181Z</time></trkpt><trkpt lat="40.3366148" lon="9.2898903"><ele>508.66666666666663</ele><time>2026-05-02T10:22:12.18Z</time></trkpt><trkpt lat="40.3367794" lon="9.2900336"><ele>510.0</ele><time>2026-05-02T10:22:13.181Z</time></trkpt><trkpt lat="40.3369253" lon="9.2901971"><ele>510.0</ele><time>2026-05-02T10:22:14.181Z</time></trkpt><trkpt lat="40.3370518" lon="9.2903812"><ele>510.0</ele><time>2026-05-02T10:22:15.18Z</time></trkpt><trkpt lat="40.3371619" lon="9.2905765"><ele>510.0</ele><time>2026-05-02T10:22:16.18Z</time></trkpt><trkpt lat="40.3372691" lon="9.2907453"><ele>510.5</ele><time>2026-05-02T10:22:17.18Z</time></trkpt><trkpt lat="40.3373885" lon="9.2908751"><ele>511.0</ele><time>2026-05-02T10:22:18.181Z</time></trkpt><trkpt lat="40.3375119" lon="9.2909506"><ele>511.5</ele><time>2026-05-02T10:22:19.181Z</time></trkpt><trkpt lat="40.3376445" lon="9.2909654"><ele>512.0</ele><time>2026-05-02T10:22:20.181Z</time></trkpt><trkpt lat="40.3377884" lon="9.2909485"><ele>512.0</ele><time>2026-05-02T10:22:21.181Z</time></trkpt><trkpt lat="40.3379397" lon="9.290938"><ele>512.0</ele><time>2026-05-02T10:22:22.18Z</time></trkpt><trkpt lat="40.3380749" lon="9.2909704"><ele>512.0</ele><time>2026-05-02T10:22:23.18Z</time></trkpt><trkpt lat="40.3381987" lon="9.2910558"><ele>512.0</ele><time>2026-05-02T10:22:24.181Z</time></trkpt><trkpt lat="40.3382937" lon="9.291192"><ele>512.0</ele><time>2026-05-02T10:22:25.181Z</time></trkpt><trkpt lat="40.3383691" lon="9.2913649"><ele>512.0</ele><time>2026-05-02T10:22:26.181Z</time></trkpt><trkpt lat="40.3384398" lon="9.2915688"><ele>512.0</ele><time>2026-05-02T10:22:27.18Z</time></trkpt><trkpt lat="40.3385014" lon="9.2918027"><ele>512.0</ele><time>2026-05-02T10:22:28.181Z</time></trkpt><trkpt lat="40.3385512" lon="9.2920591"><ele>512.0</ele><time>2026-05-02T10:22:29.181Z</time></trkpt><trkpt lat="40.3386071" lon="9.2923356"><ele>512.0</ele><time>2026-05-02T10:22:30.181Z</time></trkpt><trkpt lat="40.3386739" lon="9.2926111"><ele>512.3333333333333</ele><time>2026-05-02T10:22:31.181Z</time></trkpt><trkpt lat="40.3387563" lon="9.2928781"><ele>512.6666666666666</ele><time>2026-05-02T10:22:32.181Z</time></trkpt><trkpt lat="40.3388562" lon="9.2931301"><ele>513.0</ele><time>2026-05-02T10:22:33.181Z</time></trkpt><trkpt lat="40.3389792" lon="9.2933572"><ele>516.0</ele><time>2026-05-02T10:22:34.18Z</time></trkpt><trkpt lat="40.3391134" lon="9.2935544"><ele>519.0</ele><time>2026-05-02T10:22:35.18Z</time></trkpt><trkpt lat="40.3392553" lon="9.2937186"><ele>522.0</ele><time>2026-05-02T10:22:36.18Z</time></trkpt><trkpt lat="40.3394108" lon="9.293842"><ele>521.3333333333334</ele><time>2026-05-02T10:22:37.18Z</time></trkpt><trkpt lat="40.3395827" lon="9.2939348"><ele>520.6666666666667</ele><time>2026-05-02T10:22:38.18Z</time></trkpt><trkpt lat="40.3397632" lon="9.2940106"><ele>520.0</ele><time>2026-05-02T10:22:39.18Z</time></trkpt><trkpt lat="40.339951" lon="9.2940636"><ele>521.6666666666667</ele><time>2026-05-02T10:22:40.181Z</time></trkpt><trkpt lat="40.3401466" lon="9.2940735"><ele>523.3333333333334</ele><time>2026-05-02T10:22:41.18Z</time></trkpt><trkpt lat="40.3403539" lon="9.2940541"><ele>525.0</ele><time>2026-05-02T10:22:42.181Z</time></trkpt><trkpt lat="40.3405728" lon="9.294031"><ele>525.5</ele><time>2026-05-02T10:22:43.18Z</time></trkpt><trkpt lat="40.3408035" lon="9.2940097"><ele>526.0</ele><time>2026-05-02T10:22:44.18Z</time></trkpt><trkpt lat="40.3410411" lon="9.2939859"><ele>526.0</ele><time>2026-05-02T10:22:45.181Z</time></trkpt><trkpt lat="40.3412828" lon="9.2939605"><ele>526.0</ele><time>2026-05-02T10:22:46.181Z</time></trkpt><trkpt lat="40.3415289" lon="9.2939359"><ele>531.0</ele><time>2026-05-02T10:22:47.18Z</time></trkpt><trkpt lat="40.3417796" lon="9.2939095"><ele>536.0</ele><time>2026-05-02T10:22:48.181Z</time></trkpt><trkpt lat="40.3420253" lon="9.2938856"><ele>537.3333333333333</ele><time>2026-05-02T10:22:49.181Z</time></trkpt><trkpt lat="40.3422531" lon="9.2938585"><ele>538.6666666666666</ele><time>2026-05-02T10:22:50.18Z</time></trkpt><trkpt lat="40.3424596" lon="9.2938495"><ele>540.0</ele><time>2026-05-02T10:22:51.181Z</time></trkpt><trkpt lat="40.3426407" lon="9.2938827"><ele>539.6666666666666</ele><time>2026-05-02T10:22:52.18Z</time></trkpt><trkpt lat="40.3428001" lon="9.2939671"><ele>539.3333333333333</ele><time>2026-05-02T10:22:53.18Z</time></trkpt><trkpt lat="40.3429514" lon="9.2940908"><ele>539.0</ele><time>2026-05-02T10:22:54.181Z</time></trkpt><trkpt lat="40.3431004" lon="9.294235"><ele>539.0</ele><time>2026-05-02T10:22:55.18Z</time></trkpt><trkpt lat="40.3432558" lon="9.2943738"><ele>539.0</ele><time>2026-05-02T10:22:56.18Z</time></trkpt><trkpt lat="40.3433985" lon="9.2944684"><ele>539.0</ele><time>2026-05-02T10:22:57.18Z</time></trkpt><trkpt lat="40.3435525" lon="9.2945079"><ele>539.0</ele><time>2026-05-02T10:22:58.18Z</time></trkpt><trkpt lat="40.3437116" lon="9.294495"><ele>539.0</ele><time>2026-05-02T10:22:59.181Z</time></trkpt><trkpt lat="40.3438732" lon="9.2944633"><ele>539.0</ele><time>2026-05-02T10:23:00.181Z</time></trkpt><trkpt lat="40.3440385" lon="9.294471"><ele>540.0</ele><time>2026-05-02T10:23:01.18Z</time></trkpt><trkpt lat="40.3442097" lon="9.2945178"><ele>541.0</ele><time>2026-05-02T10:23:02.18Z</time></trkpt><trkpt lat="40.3443853" lon="9.2945828"><ele>542.0</ele><time>2026-05-02T10:23:03.18Z</time></trkpt><trkpt lat="40.3445703" lon="9.2946383"><ele>542.3333333333333</ele><time>2026-05-02T10:23:04.181Z</time></trkpt><trkpt lat="40.3447521" lon="9.294682"><ele>542.6666666666666</ele><time>2026-05-02T10:23:05.18Z</time></trkpt><trkpt lat="40.3449234" lon="9.2947056"><ele>543.0</ele><time>2026-05-02T10:23:06.181Z</time></trkpt><trkpt lat="40.3450836" lon="9.2946945"><ele>543.0</ele><time>2026-05-02T10:23:07.18Z</time></trkpt><trkpt lat="40.3452396" lon="9.2946509"><ele>543.0</ele><time>2026-05-02T10:23:08.18Z</time></trkpt><trkpt lat="40.3453885" lon="9.294571"><ele>543.0</ele><time>2026-05-02T10:23:09.18Z</time></trkpt><trkpt lat="40.3455236" lon="9.2944446"><ele>541.6666666666666</ele><time>2026-05-02T10:23:10.18Z</time></trkpt><trkpt lat="40.3456515" lon="9.2942797"><ele>540.3333333333333</ele><time>2026-05-02T10:23:11.18Z</time></trkpt><trkpt lat="40.3457634" lon="9.2940943"><ele>539.0</ele><time>2026-05-02T10:23:12.18Z</time></trkpt><trkpt lat="40.345845" lon="9.2938894"><ele>539.0</ele><time>2026-05-02T10:23:13.181Z</time></trkpt><trkpt lat="40.3458868" lon="9.2936712"><ele>539.0</ele><time>2026-05-02T10:23:14.181Z</time></trkpt><trkpt lat="40.3458896" lon="9.2934426"><ele>539.0</ele><time>2026-05-02T10:23:15.181Z</time></trkpt><trkpt lat="40.345869" lon="9.293198"><ele>539.6666666666666</ele><time>2026-05-02T10:23:16.18Z</time></trkpt><trkpt lat="40.3458528" lon="9.2929405"><ele>540.3333333333334</ele><time>2026-05-02T10:23:17.181Z</time></trkpt><trkpt lat="40.3458521" lon="9.2926648"><ele>541.0</ele><time>2026-05-02T10:23:18.181Z</time></trkpt><trkpt lat="40.3458365" lon="9.2923795"><ele>541.3333333333334</ele><time>2026-05-02T10:23:19.18Z</time></trkpt><trkpt lat="40.3458158" lon="9.2920897"><ele>541.6666666666666</ele><time>2026-05-02T10:23:20.181Z</time></trkpt><trkpt lat="40.3458129" lon="9.2917928"><ele>542.0</ele><time>2026-05-02T10:23:21.18Z</time></trkpt><trkpt lat="40.3458174" lon="9.291497"><ele>542.3333333333333</ele><time>2026-05-02T10:23:22.18Z</time></trkpt><trkpt lat="40.3458278" lon="9.2912313"><ele>542.6666666666666</ele><time>2026-05-02T10:23:23.181Z</time></trkpt><trkpt lat="40.345835" lon="9.2909941"><ele>543.0</ele><time>2026-05-02T10:23:24.18Z</time></trkpt><trkpt lat="40.3458563" lon="9.2907898"><ele>543.0</ele><time>2026-05-02T10:23:25.18Z</time></trkpt><trkpt lat="40.3459096" lon="9.2906202"><ele>543.0</ele><time>2026-05-02T10:23:26.181Z</time></trkpt><trkpt lat="40.3459966" lon="9.2904817"><ele>543.0</ele><time>2026-05-02T10:23:27.181Z</time></trkpt><trkpt lat="40.3461042" lon="9.2903511"><ele>543.0</ele><time>2026-05-02T10:23:28.18Z</time></trkpt><trkpt lat="40.3462203" lon="9.2902187"><ele>543.0</ele><time>2026-05-02T10:23:29.181Z</time></trkpt><trkpt lat="40.3463305" lon="9.2900655"><ele>543.0</ele><time>2026-05-02T10:23:30.181Z</time></trkpt><trkpt lat="40.3464267" lon="9.2898817"><ele>543.0</ele><time>2026-05-02T10:23:31.181Z</time></trkpt><trkpt lat="40.3465212" lon="9.2896726"><ele>544.3333333333334</ele><time>2026-05-02T10:23:32.18Z</time></trkpt><trkpt lat="40.346622" lon="9.2894621"><ele>545.6666666666667</ele><time>2026-05-02T10:23:33.181Z</time></trkpt><trkpt lat="40.3467202" lon="9.2892663"><ele>547.0</ele><time>2026-05-02T10:23:34.181Z</time></trkpt><trkpt lat="40.3467964" lon="9.2890673"><ele>548.0</ele><time>2026-05-02T10:23:35.18Z</time></trkpt><trkpt lat="40.3468398" lon="9.288849"><ele>549.0</ele><time>2026-05-02T10:23:36.181Z</time></trkpt><trkpt lat="40.346856" lon="9.2886189"><ele>550.0</ele><time>2026-05-02T10:23:37.18Z</time></trkpt><trkpt lat="40.3468721" lon="9.2883766"><ele>550.0</ele><time>2026-05-02T10:23:38.18Z</time></trkpt><trkpt lat="40.3469024" lon="9.288131"><ele>550.0</ele><time>2026-05-02T10:23:39.181Z</time></trkpt><trkpt lat="40.3469564" lon="9.2878825"><ele>550.0</ele><time>2026-05-02T10:23:40.181Z</time></trkpt><trkpt lat="40.3470244" lon="9.2876473"><ele>551.0</ele><time>2026-05-02T10:23:41.181Z</time></trkpt><trkpt lat="40.347097" lon="9.2874273"><ele>552.0</ele><time>2026-05-02T10:23:42.181Z</time></trkpt><trkpt lat="40.3471844" lon="9.2872176"><ele>553.0</ele><time>2026-05-02T10:23:43.18Z</time></trkpt><trkpt lat="40.347292" lon="9.2870245"><ele>553.0</ele><time>2026-05-02T10:23:44.181Z</time></trkpt><trkpt lat="40.3473988" lon="9.2868347"><ele>553.0</ele><time>2026-05-02T10:23:45.18Z</time></trkpt><trkpt lat="40.3474838" lon="9.2866218"><ele>553.0</ele><time>2026-05-02T10:23:46.18Z</time></trkpt><trkpt lat="40.3475464" lon="9.2863856"><ele>554.0</ele><time>2026-05-02T10:23:47.181Z</time></trkpt><trkpt lat="40.3475997" lon="9.2861335"><ele>555.0</ele><time>2026-05-02T10:23:48.181Z</time></trkpt><trkpt lat="40.347647" lon="9.2859013"><ele>556.0</ele><time>2026-05-02T10:23:49.181Z</time></trkpt><trkpt lat="40.3476934" lon="9.2856995"><ele>556.0</ele><time>2026-05-02T10:23:50.181Z</time></trkpt><trkpt lat="40.3477626" lon="9.2855352"><ele>556.0</ele><time>2026-05-02T10:23:51.181Z</time></trkpt><trkpt lat="40.34786" lon="9.2854072"><ele>556.0</ele><time>2026-05-02T10:23:52.18Z</time></trkpt><trkpt lat="40.347981" lon="9.2853237"><ele>556.0</ele><time>2026-05-02T10:23:53.181Z</time></trkpt><trkpt lat="40.3481185" lon="9.2852952"><ele>555.6666666666667</ele><time>2026-05-02T10:23:54.181Z</time></trkpt><trkpt lat="40.3482695" lon="9.2853174"><ele>555.3333333333334</ele><time>2026-05-02T10:23:55.18Z</time></trkpt><trkpt lat="40.3484262" lon="9.2853828"><ele>555.0</ele><time>2026-05-02T10:23:56.18Z</time></trkpt><trkpt lat="40.3485784" lon="9.2854705"><ele>555.0</ele><time>2026-05-02T10:23:57.18Z</time></trkpt><trkpt lat="40.3486964" lon="9.2855874"><ele>555.0</ele><time>2026-05-02T10:23:58.181Z</time></trkpt><trkpt lat="40.3487974" lon="9.2857566"><ele>555.0</ele><time>2026-05-02T10:23:59.18Z</time></trkpt><trkpt lat="40.3488834" lon="9.2859589"><ele>557.0</ele><time>2026-05-02T10:24:00.18Z</time></trkpt><trkpt lat="40.3489668" lon="9.2861887"><ele>559.0</ele><time>2026-05-02T10:24:01.18Z</time></trkpt><trkpt lat="40.3490514" lon="9.2864349"><ele>561.0</ele><time>2026-05-02T10:24:02.181Z</time></trkpt><trkpt lat="40.3491232" lon="9.2866639"><ele>561.0</ele><time>2026-05-02T10:24:03.181Z</time></trkpt><trkpt lat="40.3491825" lon="9.2868484"><ele>561.0</ele><time>2026-05-02T10:24:04.18Z</time></trkpt><trkpt lat="40.3492508" lon="9.2869937"><ele>561.0</ele><time>2026-05-02T10:24:05.18Z</time></trkpt><trkpt lat="40.3493565" lon="9.2870452"><ele>561.0</ele><time>2026-05-02T10:24:06.18Z</time></trkpt><trkpt lat="40.3494754" lon="9.2870531"><ele>561.0</ele><time>2026-05-02T10:24:07.181Z</time></trkpt><trkpt lat="40.3496021" lon="9.287027"><ele>561.0</ele><time>2026-05-02T10:24:08.18Z</time></trkpt><trkpt lat="40.3497189" lon="9.2870561"><ele>561.0</ele><time>2026-05-02T10:24:09.181Z</time></trkpt><trkpt lat="40.3498237" lon="9.2871388"><ele>561.0</ele><time>2026-05-02T10:24:10.181Z</time></trkpt><trkpt lat="40.3499055" lon="9.2872749"><ele>563.0</ele><time>2026-05-02T10:24:11.18Z</time></trkpt><trkpt lat="40.3499792" lon="9.2874561"><ele>565.0</ele><time>2026-05-02T10:24:12.181Z</time></trkpt><trkpt lat="40.3500434" lon="9.2876126"><ele>567.0</ele><time>2026-05-02T10:24:13.181Z</time></trkpt><trkpt lat="40.35014" lon="9.2877422"><ele>569.0</ele><time>2026-05-02T10:24:14.181Z</time></trkpt><trkpt lat="40.3502607" lon="9.2878321"><ele>569.0</ele><time>2026-05-02T10:24:15.181Z</time></trkpt><trkpt lat="40.3503846" lon="9.2878895"><ele>569.0</ele><time>2026-05-02T10:24:16.18Z</time></trkpt><trkpt lat="40.3504692" lon="9.2879973"><ele>569.0</ele><time>2026-05-02T10:24:17.18Z</time></trkpt><trkpt lat="40.3505239" lon="9.2881431"><ele>569.0</ele><time>2026-05-02T10:24:18.18Z</time></trkpt><trkpt lat="40.3505775" lon="9.2882883"><ele>571.25</ele><time>2026-05-02T10:24:19.18Z</time></trkpt><trkpt lat="40.350668" lon="9.2883849"><ele>573.5</ele><time>2026-05-02T10:24:20.181Z</time></trkpt><trkpt lat="40.3507846" lon="9.2884266"><ele>575.75</ele><time>2026-05-02T10:24:21.18Z</time></trkpt><trkpt lat="40.3509067" lon="9.2884283"><ele>578.0</ele><time>2026-05-02T10:24:22.18Z</time></trkpt><trkpt lat="40.3510279" lon="9.2884719"><ele>578.0</ele><time>2026-05-02T10:24:23.181Z</time></trkpt><trkpt lat="40.3511258" lon="9.2885685"><ele>578.0</ele><time>2026-05-02T10:24:24.181Z</time></trkpt><trkpt lat="40.3511617" lon="9.2886865"><ele>578.0</ele><time>2026-05-02T10:24:25.18Z</time></trkpt><trkpt lat="40.3511414" lon="9.2887898"><ele>578.0</ele><time>2026-05-02T10:24:26.181Z</time></trkpt><trkpt lat="40.3510837" lon="9.2888817"><ele>578.0</ele><time>2026-05-02T10:24:27.18Z</time></trkpt><trkpt lat="40.3510205" lon="9.2889753"><ele>578.25</ele><time>2026-05-02T10:24:28.18Z</time></trkpt><trkpt lat="40.3509958" lon="9.2891183"><ele>578.5</ele><time>2026-05-02T10:24:29.18Z</time></trkpt><trkpt lat="40.3510188" lon="9.2892711"><ele>578.75</ele><time>2026-05-02T10:24:30.181Z</time></trkpt><trkpt lat="40.3510848" lon="9.2894422"><ele>579.0</ele><time>2026-05-02T10:24:31.181Z</time></trkpt><trkpt lat="40.35116" lon="9.2895933"><ele>579.0</ele><time>2026-05-02T10:24:32.181Z</time></trkpt><trkpt lat="40.3512408" lon="9.2897042"><ele>579.0</ele><time>2026-05-02T10:24:33.181Z</time></trkpt><trkpt lat="40.3513452" lon="9.2897636"><ele>579.0</ele><time>2026-05-02T10:24:34.181Z</time></trkpt><trkpt lat="40.3514467" lon="9.2897559"><ele>579.0</ele><time>2026-05-02T10:24:35.18Z</time></trkpt><trkpt lat="40.3515425" lon="9.2896946"><ele>579.0</ele><time>2026-05-02T10:24:36.181Z</time></trkpt><trkpt lat="40.3516226" lon="9.2895991"><ele>580.75</ele><time>2026-05-02T10:24:37.18Z</time></trkpt><trkpt lat="40.3516942" lon="9.2894771"><ele>582.5</ele><time>2026-05-02T10:24:38.18Z</time></trkpt><trkpt lat="40.3517739" lon="9.2893503"><ele>584.25</ele><time>2026-05-02T10:24:39.181Z</time></trkpt><trkpt lat="40.3518624" lon="9.2892253"><ele>586.0</ele><time>2026-05-02T10:24:40.18Z</time></trkpt><trkpt lat="40.3519546" lon="9.289102"><ele>586.0</ele><time>2026-05-02T10:24:41.181Z</time></trkpt><trkpt lat="40.3520324" lon="9.2889628"><ele>586.0</ele><time>2026-05-02T10:24:42.18Z</time></trkpt><trkpt lat="40.3520907" lon="9.2887997"><ele>586.0</ele><time>2026-05-02T10:24:43.181Z</time></trkpt><trkpt lat="40.3521266" lon="9.2886141"><ele>586.0</ele><time>2026-05-02T10:24:44.18Z</time></trkpt><trkpt lat="40.3521503" lon="9.2884074"><ele>586.25</ele><time>2026-05-02T10:24:45.18Z</time></trkpt><trkpt lat="40.3521703" lon="9.2882084"><ele>586.5</ele><time>2026-05-02T10:24:46.18Z</time></trkpt><trkpt lat="40.3521877" lon="9.2880258"><ele>586.75</ele><time>2026-05-02T10:24:47.181Z</time></trkpt><trkpt lat="40.352209" lon="9.2878575"><ele>587.0</ele><time>2026-05-02T10:24:48.18Z</time></trkpt><trkpt lat="40.3522584" lon="9.2877091"><ele>590.25</ele><time>2026-05-02T10:24:49.18Z</time></trkpt><trkpt lat="40.3523382" lon="9.2875682"><ele>593.5</ele><time>2026-05-02T10:24:50.18Z</time></trkpt><trkpt lat="40.3524438" lon="9.2874545"><ele>596.75</ele><time>2026-05-02T10:24:51.181Z</time></trkpt><trkpt lat="40.3525566" lon="9.2873873"><ele>600.0</ele><time>2026-05-02T10:24:52.18Z</time></trkpt><trkpt lat="40.3526648" lon="9.2873737"><ele>600.0</ele><time>2026-05-02T10:24:53.18Z</time></trkpt><trkpt lat="40.3527572" lon="9.2874132"><ele>600.0</ele><time>2026-05-02T10:24:54.18Z</time></trkpt><trkpt lat="40.3528033" lon="9.287483"><ele>600.0</ele><time>2026-05-02T10:24:55.181Z</time></trkpt><trkpt lat="40.3528221" lon="9.2875822"><ele>600.0</ele><time>2026-05-02T10:24:56.18Z</time></trkpt><trkpt lat="40.352818" lon="9.2877148"><ele>600.0</ele><time>2026-05-02T10:24:57.18Z</time></trkpt><trkpt lat="40.3528101" lon="9.2878869"><ele>600.0</ele><time>2026-05-02T10:24:58.181Z</time></trkpt><trkpt lat="40.3528168" lon="9.2880644"><ele>600.0</ele><time>2026-05-02T10:24:59.181Z</time></trkpt><trkpt lat="40.3528515" lon="9.2882342"><ele>600.0</ele><time>2026-05-02T10:25:00.181Z</time></trkpt><trkpt lat="40.3529171" lon="9.2883994"><ele>600.0</ele><time>2026-05-02T10:25:01.181Z</time></trkpt><trkpt lat="40.3530066" lon="9.2885598"><ele>602.6666666666666</ele><time>2026-05-02T10:25:02.181Z</time></trkpt><trkpt lat="40.353107" lon="9.2887217"><ele>605.3333333333333</ele><time>2026-05-02T10:25:03.18Z</time></trkpt><trkpt lat="40.3532117" lon="9.2888843"><ele>608.0</ele><time>2026-05-02T10:25:04.18Z</time></trkpt><trkpt lat="40.3533234" lon="9.2890391"><ele>608.0</ele><time>2026-05-02T10:25:05.181Z</time></trkpt><trkpt lat="40.3534516" lon="9.2891718"><ele>608.0</ele><time>2026-05-02T10:25:06.18Z</time></trkpt><trkpt lat="40.3535969" lon="9.2892747"><ele>608.0</ele><time>2026-05-02T10:25:07.18Z</time></trkpt><trkpt lat="40.3537519" lon="9.2893474"><ele>608.5</ele><time>2026-05-02T10:25:08.181Z</time></trkpt><trkpt lat="40.3538985" lon="9.289377"><ele>609.0</ele><time>2026-05-02T10:25:09.18Z</time></trkpt><trkpt lat="40.3540269" lon="9.2893525"><ele>609.5</ele><time>2026-05-02T10:25:10.18Z</time></trkpt><trkpt lat="40.3541299" lon="9.2892722"><ele>610.0</ele><time>2026-05-02T10:25:11.18Z</time></trkpt><trkpt lat="40.3542151" lon="9.289153"><ele>610.0</ele><time>2026-05-02T10:25:12.181Z</time></trkpt><trkpt lat="40.3542934" lon="9.28899"><ele>610.0</ele><time>2026-05-02T10:25:13.181Z</time></trkpt><trkpt lat="40.3543819" lon="9.2888083"><ele>610.0</ele><time>2026-05-02T10:25:14.181Z</time></trkpt><trkpt lat="40.3544815" lon="9.2886579"><ele>611.3333333333334</ele><time>2026-05-02T10:25:15.18Z</time></trkpt><trkpt lat="40.3545984" lon="9.2885272"><ele>612.6666666666666</ele><time>2026-05-02T10:25:16.181Z</time></trkpt><trkpt lat="40.354732" lon="9.2884205"><ele>614.0</ele><time>2026-05-02T10:25:17.181Z</time></trkpt><trkpt lat="40.3548793" lon="9.2883262"><ele>614.0</ele><time>2026-05-02T10:25:18.181Z</time></trkpt><trkpt lat="40.3550329" lon="9.2882403"><ele>614.0</ele><time>2026-05-02T10:25:19.18Z</time></trkpt><trkpt lat="40.3551919" lon="9.2881597"><ele>614.0</ele><time>2026-05-02T10:25:20.181Z</time></trkpt><trkpt lat="40.3553572" lon="9.2880963"><ele>617.3333333333333</ele><time>2026-05-02T10:25:21.18Z</time></trkpt><trkpt lat="40.3555176" lon="9.2880627"><ele>620.6666666666666</ele><time>2026-05-02T10:25:22.18Z</time></trkpt><trkpt lat="40.3556708" lon="9.2880411"><ele>624.0</ele><time>2026-05-02T10:25:23.18Z</time></trkpt><trkpt lat="40.355824" lon="9.2879946"><ele>625.3333333333334</ele><time>2026-05-02T10:25:24.181Z</time></trkpt><trkpt lat="40.3559711" lon="9.28792"><ele>626.6666666666667</ele><time>2026-05-02T10:25:25.18Z</time></trkpt><trkpt lat="40.3561162" lon="9.2878246"><ele>628.0</ele><time>2026-05-02T10:25:26.18Z</time></trkpt><trkpt lat="40.3562739" lon="9.2877557"><ele>627.6666666666667</ele><time>2026-05-02T10:25:27.18Z</time></trkpt><trkpt lat="40.356441" lon="9.2877131"><ele>627.3333333333334</ele><time>2026-05-02T10:25:28.18Z</time></trkpt><trkpt lat="40.3566075" lon="9.2876671"><ele>627.0</ele><time>2026-05-02T10:25:29.181Z</time></trkpt><trkpt lat="40.3567645" lon="9.2875613"><ele>627.0</ele><time>2026-05-02T10:25:30.181Z</time></trkpt><trkpt lat="40.3569315" lon="9.2874436"><ele>627.0</ele><time>2026-05-02T10:25:31.18Z</time></trkpt><trkpt lat="40.357082" lon="9.2873371"><ele>627.0</ele><time>2026-05-02T10:25:32.181Z</time></trkpt><trkpt lat="40.3572105" lon="9.2872104"><ele>628.0</ele><time>2026-05-02T10:25:33.181Z</time></trkpt><trkpt lat="40.3573085" lon="9.2870519"><ele>629.0</ele><time>2026-05-02T10:25:34.18Z</time></trkpt><trkpt lat="40.3573779" lon="9.2868651"><ele>630.0</ele><time>2026-05-02T10:25:35.18Z</time></trkpt><trkpt lat="40.3574379" lon="9.286657"><ele>630.0</ele><time>2026-05-02T10:25:36.18Z</time></trkpt><trkpt lat="40.3575129" lon="9.2864487"><ele>630.0</ele><time>2026-05-02T10:25:37.18Z</time></trkpt><trkpt lat="40.3576115" lon="9.2862424"><ele>630.0</ele><time>2026-05-02T10:25:38.181Z</time></trkpt><trkpt lat="40.3577122" lon="9.2860261"><ele>633.0</ele><time>2026-05-02T10:25:39.181Z</time></trkpt><trkpt lat="40.3578058" lon="9.2857871"><ele>636.0</ele><time>2026-05-02T10:25:40.181Z</time></trkpt><trkpt lat="40.3578914" lon="9.2855634"><ele>639.0</ele><time>2026-05-02T10:25:41.181Z</time></trkpt><trkpt lat="40.3579703" lon="9.2853521"><ele>638.6666666666666</ele><time>2026-05-02T10:25:42.181Z</time></trkpt><trkpt lat="40.3580312" lon="9.285129"><ele>638.3333333333333</ele><time>2026-05-02T10:25:43.18Z</time></trkpt><trkpt lat="40.3580662" lon="9.2849033"><ele>638.0</ele><time>2026-05-02T10:25:44.181Z</time></trkpt><trkpt lat="40.3580709" lon="9.2846737"><ele>638.0</ele><time>2026-05-02T10:25:45.181Z</time></trkpt><trkpt lat="40.3580652" lon="9.28444"><ele>638.0</ele><time>2026-05-02T10:25:46.181Z</time></trkpt><trkpt lat="40.3580746" lon="9.2842009"><ele>638.0</ele><time>2026-05-02T10:25:47.18Z</time></trkpt><trkpt lat="40.3581087" lon="9.2839609"><ele>639.6666666666666</ele><time>2026-05-02T10:25:48.18Z</time></trkpt><trkpt lat="40.3581581" lon="9.2837195"><ele>641.3333333333334</ele><time>2026-05-02T10:25:49.181Z</time></trkpt><trkpt lat="40.3582232" lon="9.283492"><ele>643.0</ele><time>2026-05-02T10:25:50.18Z</time></trkpt><trkpt lat="40.3583098" lon="9.283285"><ele>643.0</ele><time>2026-05-02T10:25:51.181Z</time></trkpt><trkpt lat="40.3584076" lon="9.2831077"><ele>643.0</ele><time>2026-05-02T10:25:52.18Z</time></trkpt><trkpt lat="40.3584956" lon="9.2829643"><ele>643.0</ele><time>2026-05-02T10:25:53.181Z</time></trkpt><trkpt lat="40.3585769" lon="9.2828517"><ele>643.0</ele><time>2026-05-02T10:25:54.18Z</time></trkpt><trkpt lat="40.3586674" lon="9.2827875"><ele>644.5999999999999</ele><time>2026-05-02T10:25:55.18Z</time></trkpt><trkpt lat="40.3587564" lon="9.2827724"><ele>646.1999999999999</ele><time>2026-05-02T10:25:56.18Z</time></trkpt><trkpt lat="40.3588335" lon="9.282813"><ele>647.8</ele><time>2026-05-02T10:25:57.18Z</time></trkpt><trkpt lat="40.3589053" lon="9.2829006"><ele>649.4</ele><time>2026-05-02T10:25:58.18Z</time></trkpt><trkpt lat="40.3589623" lon="9.2830307"><ele>651.0</ele><time>2026-05-02T10:25:59.181Z</time></trkpt><trkpt lat="40.3590118" lon="9.2831936"><ele>651.0</ele><time>2026-05-02T10:26:00.181Z</time></trkpt><trkpt lat="40.3590609" lon="9.2834026"><ele>651.0</ele><time>2026-05-02T10:26:01.18Z</time></trkpt><trkpt lat="40.35912" lon="9.2836432"><ele>651.0</ele><time>2026-05-02T10:26:02.18Z</time></trkpt><trkpt lat="40.3591864" lon="9.2838575"><ele>649.6666666666666</ele><time>2026-05-02T10:26:03.18Z</time></trkpt><trkpt lat="40.3592762" lon="9.2840598"><ele>648.3333333333333</ele><time>2026-05-02T10:26:04.18Z</time></trkpt><trkpt lat="40.3593817" lon="9.2842712"><ele>647.0</ele><time>2026-05-02T10:26:05.18Z</time></trkpt><trkpt lat="40.3594997" lon="9.2844973"><ele>647.0</ele><time>2026-05-02T10:26:06.181Z</time></trkpt><trkpt lat="40.3596319" lon="9.2847169"><ele>647.0</ele><time>2026-05-02T10:26:07.181Z</time></trkpt><trkpt lat="40.359772" lon="9.284905"><ele>647.0</ele><time>2026-05-02T10:26:08.181Z</time></trkpt><trkpt lat="40.3599223" lon="9.2850682"><ele>649.3333333333333</ele><time>2026-05-02T10:26:09.18Z</time></trkpt><trkpt lat="40.3600749" lon="9.2852101"><ele>651.6666666666666</ele><time>2026-05-02T10:26:10.181Z</time></trkpt><trkpt lat="40.3602068" lon="9.2853216"><ele>654.0</ele><time>2026-05-02T10:26:11.18Z</time></trkpt><trkpt lat="40.3603138" lon="9.2854411"><ele>654.0</ele><time>2026-05-02T10:26:12.181Z</time></trkpt><trkpt lat="40.3603629" lon="9.285576"><ele>654.0</ele><time>2026-05-02T10:26:13.181Z</time></trkpt><trkpt lat="40.3603771" lon="9.285734"><ele>654.0</ele><time>2026-05-02T10:26:14.181Z</time></trkpt><trkpt lat="40.3603685" lon="9.2859181"><ele>654.0</ele><time>2026-05-02T10:26:15.181Z</time></trkpt><trkpt lat="40.3603683" lon="9.2861185"><ele>653.5</ele><time>2026-05-02T10:26:16.18Z</time></trkpt><trkpt lat="40.360382" lon="9.2862805"><ele>653.0</ele><time>2026-05-02T10:26:17.18Z</time></trkpt><trkpt lat="40.3604253" lon="9.2864247"><ele>652.5</ele><time>2026-05-02T10:26:18.18Z</time></trkpt><trkpt lat="40.3605127" lon="9.2865162"><ele>652.0</ele><time>2026-05-02T10:26:19.18Z</time></trkpt><trkpt lat="40.3606245" lon="9.2865532"><ele>654.3333333333334</ele><time>2026-05-02T10:26:20.18Z</time></trkpt><trkpt lat="40.360757" lon="9.2865342"><ele>656.6666666666666</ele><time>2026-05-02T10:26:21.181Z</time></trkpt><trkpt lat="40.3609015" lon="9.2864623"><ele>659.0</ele><time>2026-05-02T10:26:22.18Z</time></trkpt><trkpt lat="40.3610635" lon="9.2863618"><ele>659.3333333333333</ele><time>2026-05-02T10:26:23.18Z</time></trkpt><trkpt lat="40.3612439" lon="9.2862408"><ele>659.6666666666666</ele><time>2026-05-02T10:26:24.18Z</time></trkpt><trkpt lat="40.3614409" lon="9.2861085"><ele>660.0</ele><time>2026-05-02T10:26:25.18Z</time></trkpt><trkpt lat="40.3616312" lon="9.2859819"><ele>660.0</ele><time>2026-05-02T10:26:26.18Z</time></trkpt><trkpt lat="40.3618085" lon="9.2858617"><ele>660.0</ele><time>2026-05-02T10:26:27.18Z</time></trkpt><trkpt lat="40.3619712" lon="9.2857269"><ele>660.0</ele><time>2026-05-02T10:26:28.181Z</time></trkpt><trkpt lat="40.3621227" lon="9.2855639"><ele>660.6666666666666</ele><time>2026-05-02T10:26:29.181Z</time></trkpt><trkpt lat="40.3622711" lon="9.2853858"><ele>661.3333333333333</ele><time>2026-05-02T10:26:30.181Z</time></trkpt><trkpt lat="40.362421" lon="9.2852107"><ele>662.0</ele><time>2026-05-02T10:26:31.18Z</time></trkpt><trkpt lat="40.3625559" lon="9.2850585"><ele>662.0</ele><time>2026-05-02T10:26:32.18Z</time></trkpt><trkpt lat="40.3626739" lon="9.2849262"><ele>662.0</ele><time>2026-05-02T10:26:33.18Z</time></trkpt><trkpt lat="40.3627833" lon="9.2848387"><ele>662.0</ele><time>2026-05-02T10:26:34.18Z</time></trkpt><trkpt lat="40.3628892" lon="9.2848124"><ele>662.0</ele><time>2026-05-02T10:26:35.181Z</time></trkpt><trkpt lat="40.3629843" lon="9.2848502"><ele>662.25</ele><time>2026-05-02T10:26:36.181Z</time></trkpt><trkpt lat="40.3630668" lon="9.2849433"><ele>662.5</ele><time>2026-05-02T10:26:37.18Z</time></trkpt><trkpt lat="40.3631458" lon="9.2850791"><ele>662.75</ele><time>2026-05-02T10:26:38.181Z</time></trkpt><trkpt lat="40.3632456" lon="9.2852217"><ele>663.0</ele><time>2026-05-02T10:26:39.18Z</time></trkpt><trkpt lat="40.3633813" lon="9.2853235"><ele>663.0</ele><time>2026-05-02T10:26:40.18Z</time></trkpt><trkpt lat="40.3635477" lon="9.2854009"><ele>663.0</ele><time>2026-05-02T10:26:41.18Z</time></trkpt><trkpt lat="40.3637389" lon="9.2854661"><ele>663.0</ele><time>2026-05-02T10:26:42.181Z</time></trkpt><trkpt lat="40.3639517" lon="9.2855261"><ele>662.6666666666666</ele><time>2026-05-02T10:26:43.18Z</time></trkpt><trkpt lat="40.3641724" lon="9.2855906"><ele>662.3333333333333</ele><time>2026-05-02T10:26:44.18Z</time></trkpt><trkpt lat="40.3643696" lon="9.2856584"><ele>662.0</ele><time>2026-05-02T10:26:45.181Z</time></trkpt><trkpt lat="40.3645519" lon="9.2857507"><ele>664.0</ele><time>2026-05-02T10:26:46.18Z</time></trkpt><trkpt lat="40.3647238" lon="9.2858804"><ele>666.0</ele><time>2026-05-02T10:26:47.181Z</time></trkpt><trkpt lat="40.364884" lon="9.2860355"><ele>668.0</ele><time>2026-05-02T10:26:48.18Z</time></trkpt><trkpt lat="40.3650377" lon="9.2862045"><ele>668.0</ele><time>2026-05-02T10:26:49.18Z</time></trkpt><trkpt lat="40.3651695" lon="9.286351"><ele>668.0</ele><time>2026-05-02T10:26:50.18Z</time></trkpt><trkpt lat="40.3652895" lon="9.286465"><ele>668.0</ele><time>2026-05-02T10:26:51.181Z</time></trkpt><trkpt lat="40.3654101" lon="9.2865395"><ele>667.75</ele><time>2026-05-02T10:26:52.181Z</time></trkpt><trkpt lat="40.3655265" lon="9.2865636"><ele>667.5</ele><time>2026-05-02T10:26:53.18Z</time></trkpt><trkpt lat="40.3656338" lon="9.2865404"><ele>667.25</ele><time>2026-05-02T10:26:54.18Z</time></trkpt><trkpt lat="40.3657348" lon="9.2864545"><ele>667.0</ele><time>2026-05-02T10:26:55.18Z</time></trkpt><trkpt lat="40.3658379" lon="9.2863249"><ele>669.0</ele><time>2026-05-02T10:26:56.181Z</time></trkpt><trkpt lat="40.3659532" lon="9.286176"><ele>671.0</ele><time>2026-05-02T10:26:57.18Z</time></trkpt><trkpt lat="40.3660904" lon="9.2860606"><ele>673.0</ele><time>2026-05-02T10:26:58.181Z</time></trkpt><trkpt lat="40.3662297" lon="9.2859795"><ele>673.0</ele><time>2026-05-02T10:26:59.18Z</time></trkpt><trkpt lat="40.3663711" lon="9.2859485"><ele>673.0</ele><time>2026-05-02T10:27:00.181Z</time></trkpt><trkpt lat="40.3665212" lon="9.2859605"><ele>673.0</ele><time>2026-05-02T10:27:01.181Z</time></trkpt><trkpt lat="40.366675" lon="9.2859735"><ele>673.0</ele><time>2026-05-02T10:27:02.181Z</time></trkpt><trkpt lat="40.3668434" lon="9.2859538"><ele>673.0</ele><time>2026-05-02T10:27:03.18Z</time></trkpt><trkpt lat="40.3670054" lon="9.2859201"><ele>673.0</ele><time>2026-05-02T10:27:04.181Z</time></trkpt><trkpt lat="40.3671453" lon="9.2858639"><ele>673.0</ele><time>2026-05-02T10:27:05.181Z</time></trkpt><trkpt lat="40.3672638" lon="9.2857576"><ele>673.0</ele><time>2026-05-02T10:27:06.18Z</time></trkpt><trkpt lat="40.3673604" lon="9.2856007"><ele>673.0</ele><time>2026-05-02T10:27:07.181Z</time></trkpt><trkpt lat="40.3674425" lon="9.2854091"><ele>673.0</ele><time>2026-05-02T10:27:08.18Z</time></trkpt><trkpt lat="40.3675338" lon="9.2852055"><ele>673.0</ele><time>2026-05-02T10:27:09.18Z</time></trkpt><trkpt lat="40.367653" lon="9.2850256"><ele>673.0</ele><time>2026-05-02T10:27:10.181Z</time></trkpt><trkpt lat="40.367793" lon="9.2848709"><ele>673.0</ele><time>2026-05-02T10:27:11.18Z</time></trkpt><trkpt lat="40.3679282" lon="9.2847527"><ele>674.6666666666667</ele><time>2026-05-02T10:27:12.181Z</time></trkpt><trkpt lat="40.3680679" lon="9.2846858"><ele>676.3333333333334</ele><time>2026-05-02T10:27:13.181Z</time></trkpt><trkpt lat="40.3682265" lon="9.2846733"><ele>678.0</ele><time>2026-05-02T10:27:14.181Z</time></trkpt><trkpt lat="40.3684018" lon="9.2846986"><ele>678.0</ele><time>2026-05-02T10:27:15.18Z</time></trkpt><trkpt lat="40.3685924" lon="9.2847341"><ele>678.0</ele><time>2026-05-02T10:27:16.181Z</time></trkpt><trkpt lat="40.3687718" lon="9.2847679"><ele>678.0</ele><time>2026-05-02T10:27:17.181Z</time></trkpt><trkpt lat="40.3689333" lon="9.2848165"><ele>677.6666666666666</ele><time>2026-05-02T10:27:18.181Z</time></trkpt><trkpt lat="40.3690741" lon="9.2849017"><ele>677.3333333333333</ele><time>2026-05-02T10:27:19.181Z</time></trkpt><trkpt lat="40.3692011" lon="9.2850179"><ele>677.0</ele><time>2026-05-02T10:27:20.181Z</time></trkpt><trkpt lat="40.3693311" lon="9.2851228"><ele>677.0</ele><time>2026-05-02T10:27:21.181Z</time></trkpt><trkpt lat="40.3694831" lon="9.2851674"><ele>677.0</ele><time>2026-05-02T10:27:22.181Z</time></trkpt><trkpt lat="40.3696425" lon="9.2851603"><ele>677.0</ele><time>2026-05-02T10:27:23.181Z</time></trkpt><trkpt lat="40.3697964" lon="9.285094"><ele>677.5</ele><time>2026-05-02T10:27:24.181Z</time></trkpt><trkpt lat="40.3699256" lon="9.2849982"><ele>678.0</ele><time>2026-05-02T10:27:25.18Z</time></trkpt><trkpt lat="40.3700504" lon="9.2849237"><ele>678.5</ele><time>2026-05-02T10:27:26.18Z</time></trkpt><trkpt lat="40.3701761" lon="9.2849001"><ele>679.0</ele><time>2026-05-02T10:27:27.181Z</time></trkpt><trkpt lat="40.3702925" lon="9.2849287"><ele>679.0</ele><time>2026-05-02T10:27:28.18Z</time></trkpt><trkpt lat="40.3703942" lon="9.2850086"><ele>679.0</ele><time>2026-05-02T10:27:29.181Z</time></trkpt><trkpt lat="40.3704821" lon="9.2851228"><ele>679.0</ele><time>2026-05-02T10:27:30.181Z</time></trkpt><trkpt lat="40.3705918" lon="9.2852201"><ele>679.0</ele><time>2026-05-02T10:27:31.18Z</time></trkpt><trkpt lat="40.370729" lon="9.2852664"><ele>680.0</ele><time>2026-05-02T10:27:32.18Z</time></trkpt><trkpt lat="40.3708868" lon="9.2852708"><ele>681.0</ele><time>2026-05-02T10:27:33.181Z</time></trkpt><trkpt lat="40.3710621" lon="9.2852605"><ele>682.0</ele><time>2026-05-02T10:27:34.18Z</time></trkpt><trkpt lat="40.3712479" lon="9.2852746"><ele>683.3333333333334</ele><time>2026-05-02T10:27:35.18Z</time></trkpt><trkpt lat="40.3714448" lon="9.2853271"><ele>684.6666666666666</ele><time>2026-05-02T10:27:36.18Z</time></trkpt><trkpt lat="40.3716549" lon="9.2854026"><ele>686.0</ele><time>2026-05-02T10:27:37.18Z</time></trkpt><trkpt lat="40.3718578" lon="9.2854845"><ele>686.0</ele><time>2026-05-02T10:27:38.18Z</time></trkpt><trkpt lat="40.3720336" lon="9.2855597"><ele>686.0</ele><time>2026-05-02T10:27:39.18Z</time></trkpt><trkpt lat="40.3721925" lon="9.2856304"><ele>686.0</ele><time>2026-05-02T10:27:40.181Z</time></trkpt><trkpt lat="40.3723283" lon="9.2856834"><ele>685.25</ele><time>2026-05-02T10:27:41.181Z</time></trkpt><trkpt lat="40.3724609" lon="9.2856899"><ele>684.5</ele><time>2026-05-02T10:27:42.181Z</time></trkpt><trkpt lat="40.3725867" lon="9.2856194"><ele>683.75</ele><time>2026-05-02T10:27:43.18Z</time></trkpt><trkpt lat="40.372713" lon="9.2855056"><ele>683.0</ele><time>2026-05-02T10:27:44.181Z</time></trkpt><trkpt lat="40.3728443" lon="9.2853777"><ele>684.5</ele><time>2026-05-02T10:27:45.181Z</time></trkpt><trkpt lat="40.3729634" lon="9.2852682"><ele>686.0</ele><time>2026-05-02T10:27:46.18Z</time></trkpt><trkpt lat="40.3730822" lon="9.2851937"><ele>687.5</ele><time>2026-05-02T10:27:47.181Z</time></trkpt><trkpt lat="40.373216" lon="9.2851634"><ele>689.0</ele><time>2026-05-02T10:27:48.18Z</time></trkpt><trkpt lat="40.3733594" lon="9.2851672"><ele>689.6666666666666</ele><time>2026-05-02T10:27:49.181Z</time></trkpt><trkpt lat="40.3735216" lon="9.2851773"><ele>690.3333333333334</ele><time>2026-05-02T10:27:50.181Z</time></trkpt><trkpt lat="40.3737005" lon="9.2851856"><ele>691.0</ele><time>2026-05-02T10:27:51.18Z</time></trkpt><trkpt lat="40.3738971" lon="9.2851948"><ele>692.0</ele><time>2026-05-02T10:27:52.18Z</time></trkpt><trkpt lat="40.3741046" lon="9.2851995"><ele>693.0</ele><time>2026-05-02T10:27:53.18Z</time></trkpt><trkpt lat="40.3743216" lon="9.2851945"><ele>694.0</ele><time>2026-05-02T10:27:54.18Z</time></trkpt><trkpt lat="40.3745349" lon="9.2851905"><ele>695.3333333333334</ele><time>2026-05-02T10:27:55.181Z</time></trkpt><trkpt lat="40.3747335" lon="9.2851903"><ele>696.6666666666666</ele><time>2026-05-02T10:27:56.18Z</time></trkpt><trkpt lat="40.3749139" lon="9.2852183"><ele>698.0</ele><time>2026-05-02T10:27:57.181Z</time></trkpt><trkpt lat="40.3750773" lon="9.285297"><ele>698.0</ele><time>2026-05-02T10:27:58.18Z</time></trkpt><trkpt lat="40.3752312" lon="9.2854075"><ele>698.0</ele><time>2026-05-02T10:27:59.18Z</time></trkpt><trkpt lat="40.3753823" lon="9.2855171"><ele>698.0</ele><time>2026-05-02T10:28:00.18Z</time></trkpt><trkpt lat="40.3755307" lon="9.2856024"><ele>697.75</ele><time>2026-05-02T10:28:01.18Z</time></trkpt><trkpt lat="40.375678" lon="9.2856412"><ele>697.5</ele><time>2026-05-02T10:28:02.181Z</time></trkpt><trkpt lat="40.375822" lon="9.2856261"><ele>697.25</ele><time>2026-05-02T10:28:03.18Z</time></trkpt><trkpt lat="40.3759505" lon="9.2855537"><ele>697.0</ele><time>2026-05-02T10:28:04.181Z</time></trkpt><trkpt lat="40.3760505" lon="9.2854269"><ele>699.0</ele><time>2026-05-02T10:28:05.181Z</time></trkpt><trkpt lat="40.3761188" lon="9.2852529"><ele>701.0</ele><time>2026-05-02T10:28:06.181Z</time></trkpt><trkpt lat="40.3761685" lon="9.2850453"><ele>703.0</ele><time>2026-05-02T10:28:07.181Z</time></trkpt><trkpt lat="40.3762173" lon="9.2848096"><ele>704.3333333333334</ele><time>2026-05-02T10:28:08.18Z</time></trkpt><trkpt lat="40.3762738" lon="9.2845602"><ele>705.6666666666666</ele><time>2026-05-02T10:28:09.181Z</time></trkpt><trkpt lat="40.3763371" lon="9.2842962"><ele>707.0</ele><time>2026-05-02T10:28:10.181Z</time></trkpt><trkpt lat="40.3764109" lon="9.2840254"><ele>703.0</ele><time>2026-05-02T10:28:11.18Z</time></trkpt><trkpt lat="40.3764878" lon="9.2837385"><ele>699.0</ele><time>2026-05-02T10:28:12.18Z</time></trkpt><trkpt lat="40.3765542" lon="9.283457"><ele>699.0</ele><time>2026-05-02T10:28:13.18Z</time></trkpt><trkpt lat="40.3766025" lon="9.2831915"><ele>699.0</ele><time>2026-05-02T10:28:14.181Z</time></trkpt><trkpt lat="40.3766348" lon="9.2829197"><ele>699.0</ele><time>2026-05-02T10:28:15.18Z</time></trkpt><trkpt lat="40.3766664" lon="9.2826508"><ele>701.0</ele><time>2026-05-02T10:28:16.18Z</time></trkpt><trkpt lat="40.3767159" lon="9.2823985"><ele>703.0</ele><time>2026-05-02T10:28:17.181Z</time></trkpt><trkpt lat="40.3767867" lon="9.2821678"><ele>705.0</ele><time>2026-05-02T10:28:18.18Z</time></trkpt><trkpt lat="40.376884" lon="9.281941"><ele>707.6666666666666</ele><time>2026-05-02T10:28:19.181Z</time></trkpt><trkpt lat="40.3769941" lon="9.2817163"><ele>710.3333333333333</ele><time>2026-05-02T10:28:20.181Z</time></trkpt><trkpt lat="40.377111" lon="9.2814785"><ele>713.0</ele><time>2026-05-02T10:28:21.18Z</time></trkpt><trkpt lat="40.3772385" lon="9.2812288"><ele>713.0</ele><time>2026-05-02T10:28:22.181Z</time></trkpt><trkpt lat="40.3773544" lon="9.2810012"><ele>713.0</ele><time>2026-05-02T10:28:23.181Z</time></trkpt><trkpt lat="40.3774552" lon="9.2807676"><ele>713.0</ele><time>2026-05-02T10:28:24.181Z</time></trkpt><trkpt lat="40.3775303" lon="9.2805211"><ele>715.6666666666666</ele><time>2026-05-02T10:28:25.181Z</time></trkpt><trkpt lat="40.3775822" lon="9.2802638"><ele>718.3333333333334</ele><time>2026-05-02T10:28:26.18Z</time></trkpt><trkpt lat="40.3776255" lon="9.2799988"><ele>721.0</ele><time>2026-05-02T10:28:27.18Z</time></trkpt><trkpt lat="40.377671" lon="9.2797529"><ele>722.3333333333334</ele><time>2026-05-02T10:28:28.18Z</time></trkpt><trkpt lat="40.3777264" lon="9.2795438"><ele>723.6666666666666</ele><time>2026-05-02T10:28:29.18Z</time></trkpt><trkpt lat="40.3778033" lon="9.2793735"><ele>725.0</ele><time>2026-05-02T10:28:30.18Z</time></trkpt><trkpt lat="40.3779079" lon="9.2792467"><ele>724.3333333333333</ele><time>2026-05-02T10:28:31.18Z</time></trkpt><trkpt lat="40.3780396" lon="9.2791612"><ele>723.6666666666666</ele><time>2026-05-02T10:28:32.18Z</time></trkpt><trkpt lat="40.3781952" lon="9.2791175"><ele>723.0</ele><time>2026-05-02T10:28:33.181Z</time></trkpt><trkpt lat="40.3783738" lon="9.2791013"><ele>723.0</ele><time>2026-05-02T10:28:34.181Z</time></trkpt><trkpt lat="40.3785654" lon="9.2790863"><ele>723.0</ele><time>2026-05-02T10:28:35.18Z</time></trkpt><trkpt lat="40.3787566" lon="9.2790373"><ele>723.0</ele><time>2026-05-02T10:28:36.18Z</time></trkpt><trkpt lat="40.3789308" lon="9.278973"><ele>723.6666666666666</ele><time>2026-05-02T10:28:37.18Z</time></trkpt><trkpt lat="40.3790878" lon="9.2789178"><ele>724.3333333333333</ele><time>2026-05-02T10:28:38.181Z</time></trkpt><trkpt lat="40.3792391" lon="9.2789081"><ele>725.0</ele><time>2026-05-02T10:28:39.18Z</time></trkpt><trkpt lat="40.3793838" lon="9.2789441"><ele>725.0</ele><time>2026-05-02T10:28:40.18Z</time></trkpt><trkpt lat="40.3795383" lon="9.2790001"><ele>725.0</ele><time>2026-05-02T10:28:41.181Z</time></trkpt><trkpt lat="40.3796841" lon="9.2790707"><ele>725.0</ele><time>2026-05-02T10:28:42.181Z</time></trkpt><trkpt lat="40.3798037" lon="9.2791731"><ele>726.75</ele><time>2026-05-02T10:28:43.181Z</time></trkpt><trkpt lat="40.3799012" lon="9.2793023"><ele>728.5</ele><time>2026-05-02T10:28:44.18Z</time></trkpt><trkpt lat="40.3799899" lon="9.2794148"><ele>730.25</ele><time>2026-05-02T10:28:45.181Z</time></trkpt><trkpt lat="40.3800963" lon="9.2794658"><ele>732.0</ele><time>2026-05-02T10:28:46.181Z</time></trkpt><trkpt lat="40.3802128" lon="9.2794607"><ele>732.0</ele><time>2026-05-02T10:28:47.181Z</time></trkpt><trkpt lat="40.3803374" lon="9.2794248"><ele>732.0</ele><time>2026-05-02T10:28:48.18Z</time></trkpt><trkpt lat="40.3804701" lon="9.2794277"><ele>732.0</ele><time>2026-05-02T10:28:49.18Z</time></trkpt><trkpt lat="40.3806015" lon="9.2794837"><ele>732.0</ele><time>2026-05-02T10:28:50.18Z</time></trkpt><trkpt lat="40.3807412" lon="9.2795741"><ele>731.6666666666666</ele><time>2026-05-02T10:28:51.181Z</time></trkpt><trkpt lat="40.3808984" lon="9.2796664"><ele>731.3333333333333</ele><time>2026-05-02T10:28:52.18Z</time></trkpt><trkpt lat="40.3810748" lon="9.2797546"><ele>731.0</ele><time>2026-05-02T10:28:53.181Z</time></trkpt><trkpt lat="40.3812511" lon="9.279802"><ele>733.0</ele><time>2026-05-02T10:28:54.18Z</time></trkpt><trkpt lat="40.3814088" lon="9.2798279"><ele>735.0</ele><time>2026-05-02T10:28:55.181Z</time></trkpt><trkpt lat="40.3815503" lon="9.2798563"><ele>737.0</ele><time>2026-05-02T10:28:56.181Z</time></trkpt><trkpt lat="40.3816741" lon="9.2798994"><ele>739.0</ele><time>2026-05-02T10:28:57.18Z</time></trkpt><trkpt lat="40.3817883" lon="9.2799462"><ele>739.0</ele><time>2026-05-02T10:28:58.181Z</time></trkpt><trkpt lat="40.3819003" lon="9.2799938"><ele>739.0</ele><time>2026-05-02T10:28:59.181Z</time></trkpt><trkpt lat="40.3820171" lon="9.2800421"><ele>739.0</ele><time>2026-05-02T10:29:00.18Z</time></trkpt><trkpt lat="40.3821379" lon="9.2801034"><ele>739.0</ele><time>2026-05-02T10:29:01.181Z</time></trkpt><trkpt lat="40.3822562" lon="9.2801971"><ele>741.6666666666667</ele><time>2026-05-02T10:29:02.18Z</time></trkpt><trkpt lat="40.3823727" lon="9.2803282"><ele>744.3333333333334</ele><time>2026-05-02T10:29:03.181Z</time></trkpt><trkpt lat="40.3824887" lon="9.2804719"><ele>747.0</ele><time>2026-05-02T10:29:04.181Z</time></trkpt><trkpt lat="40.3825965" lon="9.2805822"><ele>747.3333333333334</ele><time>2026-05-02T10:29:05.18Z</time></trkpt><trkpt lat="40.3827279" lon="9.2806535"><ele>747.6666666666667</ele><time>2026-05-02T10:29:06.181Z</time></trkpt><trkpt lat="40.3828857" lon="9.280698"><ele>748.0</ele><time>2026-05-02T10:29:07.181Z</time></trkpt><trkpt lat="40.3830595" lon="9.2807378"><ele>748.0</ele><time>2026-05-02T10:29:08.18Z</time></trkpt><trkpt lat="40.3832482" lon="9.2807751"><ele>748.0</ele><time>2026-05-02T10:29:09.181Z</time></trkpt><trkpt lat="40.3834478" lon="9.2808148"><ele>748.0</ele><time>2026-05-02T10:29:10.181Z</time></trkpt><trkpt lat="40.3836518" lon="9.2808458"><ele>748.6666666666667</ele><time>2026-05-02T10:29:11.181Z</time></trkpt><trkpt lat="40.3838586" lon="9.2808526"><ele>749.3333333333334</ele><time>2026-05-02T10:29:12.18Z</time></trkpt><trkpt lat="40.3840409" lon="9.2808477"><ele>750.0</ele><time>2026-05-02T10:29:13.181Z</time></trkpt><trkpt lat="40.3842053" lon="9.2808619"><ele>750.0</ele><time>2026-05-02T10:29:14.18Z</time></trkpt><trkpt lat="40.3843588" lon="9.2809194"><ele>750.0</ele><time>2026-05-02T10:29:15.181Z</time></trkpt><trkpt lat="40.3844989" lon="9.2810209"><ele>750.0</ele><time>2026-05-02T10:29:16.181Z</time></trkpt><trkpt lat="40.3846274" lon="9.2811557"><ele>751.6666666666666</ele><time>2026-05-02T10:29:17.181Z</time></trkpt><trkpt lat="40.3847424" lon="9.2813361"><ele>753.3333333333333</ele><time>2026-05-02T10:29:18.181Z</time></trkpt><trkpt lat="40.3848563" lon="9.2815439"><ele>755.0</ele><time>2026-05-02T10:29:19.181Z</time></trkpt><trkpt lat="40.3849892" lon="9.2817553"><ele>755.0</ele><time>2026-05-02T10:29:20.181Z</time></trkpt><trkpt lat="40.3851348" lon="9.2819606"><ele>755.0</ele><time>2026-05-02T10:29:21.18Z</time></trkpt><trkpt lat="40.3852938" lon="9.2821674"><ele>755.0</ele><time>2026-05-02T10:29:22.18Z</time></trkpt><trkpt lat="40.385459" lon="9.2823764"><ele>754.6666666666666</ele><time>2026-05-02T10:29:23.181Z</time></trkpt><trkpt lat="40.385615" lon="9.2825796"><ele>754.3333333333334</ele><time>2026-05-02T10:29:24.18Z</time></trkpt><trkpt lat="40.3857655" lon="9.2827732"><ele>754.0</ele><time>2026-05-02T10:29:25.181Z</time></trkpt><trkpt lat="40.3859003" lon="9.2829658"><ele>752.6666666666667</ele><time>2026-05-02T10:29:26.181Z</time></trkpt><trkpt lat="40.3860119" lon="9.2831695"><ele>751.3333333333334</ele><time>2026-05-02T10:29:27.181Z</time></trkpt><trkpt lat="40.386091" lon="9.2833856"><ele>750.0</ele><time>2026-05-02T10:29:28.18Z</time></trkpt><trkpt lat="40.3861486" lon="9.2835986"><ele>750.0</ele><time>2026-05-02T10:29:29.181Z</time></trkpt><trkpt lat="40.3862042" lon="9.2837794"><ele>750.0</ele><time>2026-05-02T10:29:30.18Z</time></trkpt><trkpt lat="40.3862647" lon="9.2839295"><ele>750.0</ele><time>2026-05-02T10:29:31.18Z</time></trkpt><trkpt lat="40.3863502" lon="9.2840314"><ele>750.0</ele><time>2026-05-02T10:29:32.181Z</time></trkpt><trkpt lat="40.386462" lon="9.2840637"><ele>750.25</ele><time>2026-05-02T10:29:33.181Z</time></trkpt><trkpt lat="40.3865797" lon="9.2840302"><ele>750.5</ele><time>2026-05-02T10:29:34.181Z</time></trkpt><trkpt lat="40.3866936" lon="9.2839423"><ele>750.75</ele><time>2026-05-02T10:29:35.18Z</time></trkpt><trkpt lat="40.386809" lon="9.283795"><ele>751.0</ele><time>2026-05-02T10:29:36.181Z</time></trkpt><trkpt lat="40.3869192" lon="9.2836164"><ele>751.0</ele><time>2026-05-02T10:29:37.18Z</time></trkpt><trkpt lat="40.3870132" lon="9.2834165"><ele>751.0</ele><time>2026-05-02T10:29:38.181Z</time></trkpt><trkpt lat="40.3870926" lon="9.2832106"><ele>751.0</ele><time>2026-05-02T10:29:39.181Z</time></trkpt><trkpt lat="40.3871647" lon="9.2830131"><ele>750.3333333333334</ele><time>2026-05-02T10:29:40.181Z</time></trkpt><trkpt lat="40.3872451" lon="9.282833"><ele>749.6666666666666</ele><time>2026-05-02T10:29:41.181Z</time></trkpt><trkpt lat="40.3873478" lon="9.2826743"><ele>749.0</ele><time>2026-05-02T10:29:42.18Z</time></trkpt><trkpt lat="40.3874687" lon="9.282558"><ele>749.0</ele><time>2026-05-02T10:29:43.18Z</time></trkpt><trkpt lat="40.387612" lon="9.2824862"><ele>749.0</ele><time>2026-05-02T10:29:44.181Z</time></trkpt><trkpt lat="40.3877838" lon="9.2824753"><ele>749.0</ele><time>2026-05-02T10:29:45.18Z</time></trkpt><trkpt lat="40.3879786" lon="9.282471"><ele>747.6666666666666</ele><time>2026-05-02T10:29:46.18Z</time></trkpt><trkpt lat="40.3881707" lon="9.2824707"><ele>746.3333333333334</ele><time>2026-05-02T10:29:47.18Z</time></trkpt><trkpt lat="40.388356" lon="9.2824955"><ele>745.0</ele><time>2026-05-02T10:29:48.181Z</time></trkpt><trkpt lat="40.3885406" lon="9.2825736"><ele>745.0</ele><time>2026-05-02T10:29:49.18Z</time></trkpt><trkpt lat="40.3887041" lon="9.2826541"><ele>745.0</ele><time>2026-05-02T10:29:50.181Z</time></trkpt><trkpt lat="40.388853" lon="9.2827515"><ele>745.0</ele><time>2026-05-02T10:29:51.181Z</time></trkpt><trkpt lat="40.3889801" lon="9.2828841"><ele>744.3333333333334</ele><time>2026-05-02T10:29:52.181Z</time></trkpt><trkpt lat="40.3890855" lon="9.2830619"><ele>743.6666666666666</ele><time>2026-05-02T10:29:53.181Z</time></trkpt><trkpt lat="40.389173" lon="9.2832721"><ele>743.0</ele><time>2026-05-02T10:29:54.181Z</time></trkpt><trkpt lat="40.3892534" lon="9.2835072"><ele>741.3333333333333</ele><time>2026-05-02T10:29:55.18Z</time></trkpt><trkpt lat="40.3893394" lon="9.2837589"><ele>739.6666666666666</ele><time>2026-05-02T10:29:56.181Z</time></trkpt><trkpt lat="40.3894274" lon="9.2840183"><ele>738.0</ele><time>2026-05-02T10:29:57.181Z</time></trkpt><trkpt lat="40.3895176" lon="9.2842883"><ele>737.5</ele><time>2026-05-02T10:29:58.181Z</time></trkpt><trkpt lat="40.3896098" lon="9.2845652"><ele>737.0</ele><time>2026-05-02T10:29:59.181Z</time></trkpt><trkpt lat="40.3897078" lon="9.2848493"><ele>735.5</ele><time>2026-05-02T10:30:00.181Z</time></trkpt><trkpt lat="40.389806" lon="9.2851412"><ele>734.0</ele><time>2026-05-02T10:30:01.18Z</time></trkpt><trkpt lat="40.3899041" lon="9.2854378"><ele>733.0</ele><time>2026-05-02T10:30:02.18Z</time></trkpt><trkpt lat="40.3899981" lon="9.2857396"><ele>732.0</ele><time>2026-05-02T10:30:03.18Z</time></trkpt><trkpt lat="40.3900839" lon="9.2860462"><ele>732.0</ele><time>2026-05-02T10:30:04.181Z</time></trkpt><trkpt lat="40.3901587" lon="9.2863573"><ele>732.0</ele><time>2026-05-02T10:30:05.18Z</time></trkpt><trkpt lat="40.3902248" lon="9.2866616"><ele>731.3333333333334</ele><time>2026-05-02T10:30:06.181Z</time></trkpt><trkpt lat="40.3902809" lon="9.2869502"><ele>730.6666666666667</ele><time>2026-05-02T10:30:07.18Z</time></trkpt><trkpt lat="40.3903281" lon="9.2872234"><ele>730.0</ele><time>2026-05-02T10:30:08.18Z</time></trkpt><trkpt lat="40.3903604" lon="9.2874844"><ele>728.6666666666667</ele><time>2026-05-02T10:30:09.18Z</time></trkpt><trkpt lat="40.39038" lon="9.2877347"><ele>727.3333333333334</ele><time>2026-05-02T10:30:10.181Z</time></trkpt><trkpt lat="40.390405" lon="9.2879664"><ele>726.0</ele><time>2026-05-02T10:30:11.181Z</time></trkpt><trkpt lat="40.390452" lon="9.2881831"><ele>724.6666666666666</ele><time>2026-05-02T10:30:12.18Z</time></trkpt><trkpt lat="40.390494" lon="9.2883863"><ele>723.3333333333333</ele><time>2026-05-02T10:30:13.18Z</time></trkpt><trkpt lat="40.3905019" lon="9.2885854"><ele>722.0</ele><time>2026-05-02T10:30:14.18Z</time></trkpt><trkpt lat="40.3904683" lon="9.2887791"><ele>722.0</ele><time>2026-05-02T10:30:15.181Z</time></trkpt><trkpt lat="40.3904038" lon="9.2889599"><ele>722.0</ele><time>2026-05-02T10:30:16.18Z</time></trkpt><trkpt lat="40.3903411" lon="9.2891478"><ele>722.0</ele><time>2026-05-02T10:30:17.181Z</time></trkpt><trkpt lat="40.3903102" lon="9.2893546"><ele>722.0</ele><time>2026-05-02T10:30:18.181Z</time></trkpt><trkpt lat="40.3903281" lon="9.2895606"><ele>722.0</ele><time>2026-05-02T10:30:19.181Z</time></trkpt><trkpt lat="40.3903946" lon="9.2897589"><ele>722.0</ele><time>2026-05-02T10:30:20.18Z</time></trkpt><trkpt lat="40.3904804" lon="9.2899424"><ele>726.0</ele><time>2026-05-02T10:30:21.18Z</time></trkpt><trkpt lat="40.3905884" lon="9.290089"><ele>730.0</ele><time>2026-05-02T10:30:22.18Z</time></trkpt><trkpt lat="40.3907297" lon="9.2901951"><ele>734.0</ele><time>2026-05-02T10:30:23.18Z</time></trkpt><trkpt lat="40.3908763" lon="9.2902965"><ele>734.0</ele><time>2026-05-02T10:30:24.181Z</time></trkpt><trkpt lat="40.391008" lon="9.2904369"><ele>734.0</ele><time>2026-05-02T10:30:25.18Z</time></trkpt><trkpt lat="40.3911492" lon="9.2905908"><ele>734.0</ele><time>2026-05-02T10:30:26.18Z</time></trkpt><trkpt lat="40.3913113" lon="9.2907407"><ele>734.6666666666666</ele><time>2026-05-02T10:30:27.18Z</time></trkpt><trkpt lat="40.3914834" lon="9.2908827"><ele>735.3333333333334</ele><time>2026-05-02T10:30:28.18Z</time></trkpt><trkpt lat="40.391648" lon="9.2910003"><ele>736.0</ele><time>2026-05-02T10:30:29.18Z</time></trkpt><trkpt lat="40.391806" lon="9.291079"><ele>736.0</ele><time>2026-05-02T10:30:30.18Z</time></trkpt><trkpt lat="40.3919477" lon="9.2911418"><ele>736.0</ele><time>2026-05-02T10:30:31.181Z</time></trkpt><trkpt lat="40.392049" lon="9.291229"><ele>736.0</ele><time>2026-05-02T10:30:32.18Z</time></trkpt><trkpt lat="40.3921124" lon="9.2913485"><ele>736.0</ele><time>2026-05-02T10:30:33.181Z</time></trkpt><trkpt lat="40.3921482" lon="9.291497"><ele>737.75</ele><time>2026-05-02T10:30:34.181Z</time></trkpt><trkpt lat="40.3921591" lon="9.2916782"><ele>739.5</ele><time>2026-05-02T10:30:35.181Z</time></trkpt><trkpt lat="40.3921881" lon="9.2918617"><ele>741.25</ele><time>2026-05-02T10:30:36.181Z</time></trkpt><trkpt lat="40.3922682" lon="9.2920336"><ele>743.0</ele><time>2026-05-02T10:30:37.181Z</time></trkpt><trkpt lat="40.3923554" lon="9.2922047"><ele>743.0</ele><time>2026-05-02T10:30:38.18Z</time></trkpt><trkpt lat="40.3924107" lon="9.2923694"><ele>743.0</ele><time>2026-05-02T10:30:39.18Z</time></trkpt><trkpt lat="40.3924246" lon="9.2925208"><ele>743.0</ele><time>2026-05-02T10:30:40.18Z</time></trkpt><trkpt lat="40.392391" lon="9.2926352"><ele>743.0</ele><time>2026-05-02T10:30:41.18Z</time></trkpt><trkpt lat="40.3923184" lon="9.2927228"><ele>743.0</ele><time>2026-05-02T10:30:42.18Z</time></trkpt><trkpt lat="40.3922152" lon="9.2927883"><ele>740.5</ele><time>2026-05-02T10:30:43.181Z</time></trkpt><trkpt lat="40.3921055" lon="9.2928854"><ele>738.0</ele><time>2026-05-02T10:30:44.18Z</time></trkpt><trkpt lat="40.3920077" lon="9.2930327"><ele>735.5</ele><time>2026-05-02T10:30:45.181Z</time></trkpt><trkpt lat="40.3919168" lon="9.2932169"><ele>733.0</ele><time>2026-05-02T10:30:46.18Z</time></trkpt><trkpt lat="40.391847" lon="9.2933967"><ele>733.0</ele><time>2026-05-02T10:30:47.18Z</time></trkpt><trkpt lat="40.3918022" lon="9.293602"><ele>733.0</ele><time>2026-05-02T10:30:48.18Z</time></trkpt><trkpt lat="40.391792" lon="9.2938333"><ele>733.0</ele><time>2026-05-02T10:30:49.181Z</time></trkpt><trkpt lat="40.3917986" lon="9.2940863"><ele>734.6666666666667</ele><time>2026-05-02T10:30:50.181Z</time></trkpt><trkpt lat="40.3918196" lon="9.294368"><ele>736.3333333333334</ele><time>2026-05-02T10:30:51.18Z</time></trkpt><trkpt lat="40.3918394" lon="9.2946415"><ele>738.0</ele><time>2026-05-02T10:30:52.18Z</time></trkpt><trkpt lat="40.3918577" lon="9.294886"><ele>738.0</ele><time>2026-05-02T10:30:53.18Z</time></trkpt><trkpt lat="40.391895" lon="9.2950813"><ele>738.0</ele><time>2026-05-02T10:30:54.181Z</time></trkpt><trkpt lat="40.3919787" lon="9.295251"><ele>738.0</ele><time>2026-05-02T10:30:55.181Z</time></trkpt><trkpt lat="40.3921033" lon="9.295386"><ele>739.5</ele><time>2026-05-02T10:30:56.18Z</time></trkpt><trkpt lat="40.3922442" lon="9.295463"><ele>741.0</ele><time>2026-05-02T10:30:57.181Z</time></trkpt><trkpt lat="40.3923719" lon="9.2955145"><ele>742.5</ele><time>2026-05-02T10:30:58.181Z</time></trkpt><trkpt lat="40.3924668" lon="9.2956098"><ele>744.0</ele><time>2026-05-02T10:30:59.181Z</time></trkpt><trkpt lat="40.392525" lon="9.2957456"><ele>744.0</ele><time>2026-05-02T10:31:00.181Z</time></trkpt><trkpt lat="40.3925432" lon="9.2959104"><ele>744.0</ele><time>2026-05-02T10:31:01.18Z</time></trkpt><trkpt lat="40.3925613" lon="9.296098"><ele>744.0</ele><time>2026-05-02T10:31:02.181Z</time></trkpt><trkpt lat="40.3926036" lon="9.2963044"><ele>744.0</ele><time>2026-05-02T10:31:03.181Z</time></trkpt><trkpt lat="40.3926704" lon="9.2965233"><ele>744.0</ele><time>2026-05-02T10:31:04.181Z</time></trkpt><trkpt lat="40.3927613" lon="9.2967428"><ele>744.0</ele><time>2026-05-02T10:31:05.181Z</time></trkpt><trkpt lat="40.3928775" lon="9.2969496"><ele>744.0</ele><time>2026-05-02T10:31:06.18Z</time></trkpt><trkpt lat="40.3930026" lon="9.297111"><ele>744.3333333333334</ele><time>2026-05-02T10:31:07.181Z</time></trkpt><trkpt lat="40.3931413" lon="9.2972264"><ele>744.6666666666667</ele><time>2026-05-02T10:31:08.181Z</time></trkpt><trkpt lat="40.3932945" lon="9.2973025"><ele>745.0</ele><time>2026-05-02T10:31:09.181Z</time></trkpt><trkpt lat="40.3934589" lon="9.2973557"><ele>745.0</ele><time>2026-05-02T10:31:10.181Z</time></trkpt><trkpt lat="40.393614" lon="9.2974427"><ele>745.0</ele><time>2026-05-02T10:31:11.18Z</time></trkpt><trkpt lat="40.3937522" lon="9.2975786"><ele>745.0</ele><time>2026-05-02T10:31:12.18Z</time></trkpt><trkpt lat="40.3938729" lon="9.297749"><ele>746.0</ele><time>2026-05-02T10:31:13.181Z</time></trkpt><trkpt lat="40.393996" lon="9.2979154"><ele>747.0</ele><time>2026-05-02T10:31:14.18Z</time></trkpt><trkpt lat="40.3941199" lon="9.2980541"><ele>748.0</ele><time>2026-05-02T10:31:15.18Z</time></trkpt><trkpt lat="40.3942241" lon="9.2981954"><ele>748.0</ele><time>2026-05-02T10:31:16.18Z</time></trkpt><trkpt lat="40.3942813" lon="9.2983555"><ele>748.0</ele><time>2026-05-02T10:31:17.18Z</time></trkpt><trkpt lat="40.394281" lon="9.2985141"><ele>748.0</ele><time>2026-05-02T10:31:18.181Z</time></trkpt><trkpt lat="40.3942332" lon="9.2986773"><ele>748.0</ele><time>2026-05-02T10:31:19.181Z</time></trkpt><trkpt lat="40.3941618" lon="9.2988652"><ele>748.6666666666667</ele><time>2026-05-02T10:31:20.18Z</time></trkpt><trkpt lat="40.394091" lon="9.29909"><ele>749.3333333333334</ele><time>2026-05-02T10:31:21.18Z</time></trkpt><trkpt lat="40.3940434" lon="9.2993471"><ele>750.0</ele><time>2026-05-02T10:31:22.18Z</time></trkpt><trkpt lat="40.3940258" lon="9.2996121"><ele>750.0</ele><time>2026-05-02T10:31:23.18Z</time></trkpt><trkpt lat="40.3940388" lon="9.2998876"><ele>750.0</ele><time>2026-05-02T10:31:24.18Z</time></trkpt><trkpt lat="40.3940557" lon="9.300155"><ele>750.0</ele><time>2026-05-02T10:31:25.181Z</time></trkpt><trkpt lat="40.3940819" lon="9.3003979"><ele>748.6666666666666</ele><time>2026-05-02T10:31:26.181Z</time></trkpt><trkpt lat="40.3941402" lon="9.3006143"><ele>747.3333333333333</ele><time>2026-05-02T10:31:27.18Z</time></trkpt><trkpt lat="40.394245" lon="9.3008008"><ele>746.0</ele><time>2026-05-02T10:31:28.181Z</time></trkpt><trkpt lat="40.3943901" lon="9.3009476"><ele>746.0</ele><time>2026-05-02T10:31:29.18Z</time></trkpt><trkpt lat="40.3945485" lon="9.3010805"><ele>746.0</ele><time>2026-05-02T10:31:30.18Z</time></trkpt><trkpt lat="40.394716" lon="9.301177"><ele>746.0</ele><time>2026-05-02T10:31:31.18Z</time></trkpt><trkpt lat="40.3948937" lon="9.30123"><ele>747.3333333333333</ele><time>2026-05-02T10:31:32.181Z</time></trkpt><trkpt lat="40.3950768" lon="9.3012264"><ele>748.6666666666666</ele><time>2026-05-02T10:31:33.18Z</time></trkpt><trkpt lat="40.3952597" lon="9.3011662"><ele>750.0</ele><time>2026-05-02T10:31:34.18Z</time></trkpt><trkpt lat="40.3954436" lon="9.3010597"><ele>747.6666666666666</ele><time>2026-05-02T10:31:35.181Z</time></trkpt><trkpt lat="40.3956339" lon="9.3009304"><ele>745.3333333333333</ele><time>2026-05-02T10:31:36.181Z</time></trkpt><trkpt lat="40.3958327" lon="9.3007842"><ele>743.0</ele><time>2026-05-02T10:31:37.18Z</time></trkpt><trkpt lat="40.3960296" lon="9.3006231"><ele>742.0</ele><time>2026-05-02T10:31:38.181Z</time></trkpt><trkpt lat="40.3962095" lon="9.3004428"><ele>741.0</ele><time>2026-05-02T10:31:39.18Z</time></trkpt><trkpt lat="40.3963769" lon="9.3002712"><ele>740.0</ele><time>2026-05-02T10:31:40.181Z</time></trkpt><trkpt lat="40.3965512" lon="9.3001497"><ele>740.0</ele><time>2026-05-02T10:31:41.18Z</time></trkpt><trkpt lat="40.3967403" lon="9.3000368"><ele>740.0</ele><time>2026-05-02T10:31:42.18Z</time></trkpt><trkpt lat="40.3969222" lon="9.2999341"><ele>740.0</ele><time>2026-05-02T10:31:43.181Z</time></trkpt><trkpt lat="40.3970986" lon="9.2998599"><ele>738.6666666666666</ele><time>2026-05-02T10:31:44.18Z</time></trkpt><trkpt lat="40.3972772" lon="9.2998457"><ele>737.3333333333334</ele><time>2026-05-02T10:31:45.18Z</time></trkpt><trkpt lat="40.397456" lon="9.299881"><ele>736.0</ele><time>2026-05-02T10:31:46.181Z</time></trkpt><trkpt lat="40.3976444" lon="9.2999358"><ele>736.0</ele><time>2026-05-02T10:31:47.18Z</time></trkpt><trkpt lat="40.3978236" lon="9.2999911"><ele>736.0</ele><time>2026-05-02T10:31:48.181Z</time></trkpt><trkpt lat="40.397991" lon="9.3000777"><ele>736.0</ele><time>2026-05-02T10:31:49.181Z</time></trkpt><trkpt lat="40.3981557" lon="9.3001961"><ele>736.0</ele><time>2026-05-02T10:31:50.181Z</time></trkpt><trkpt lat="40.3983194" lon="9.3003319"><ele>736.0</ele><time>2026-05-02T10:31:51.18Z</time></trkpt><trkpt lat="40.3984893" lon="9.3004745"><ele>736.0</ele><time>2026-05-02T10:31:52.181Z</time></trkpt><trkpt lat="40.3986673" lon="9.3006166"><ele>734.3333333333334</ele><time>2026-05-02T10:31:53.18Z</time></trkpt><trkpt lat="40.3988464" lon="9.3007677"><ele>732.6666666666666</ele><time>2026-05-02T10:31:54.18Z</time></trkpt><trkpt lat="40.399029" lon="9.3009217"><ele>731.0</ele><time>2026-05-02T10:31:55.181Z</time></trkpt><trkpt lat="40.3992171" lon="9.3010787"><ele>731.0</ele><time>2026-05-02T10:31:56.18Z</time></trkpt><trkpt lat="40.3993954" lon="9.3012282"><ele>731.0</ele><time>2026-05-02T10:31:57.18Z</time></trkpt><trkpt lat="40.3995599" lon="9.3013677"><ele>731.0</ele><time>2026-05-02T10:31:58.18Z</time></trkpt><trkpt lat="40.3997171" lon="9.3014795"><ele>731.0</ele><time>2026-05-02T10:31:59.18Z</time></trkpt><trkpt lat="40.3998773" lon="9.3015317"><ele>731.0</ele><time>2026-05-02T10:32:00.18Z</time></trkpt><trkpt lat="40.4000465" lon="9.3015396"><ele>731.0</ele><time>2026-05-02T10:32:01.18Z</time></trkpt><trkpt lat="40.4002244" lon="9.3015098"><ele>731.0</ele><time>2026-05-02T10:32:02.18Z</time></trkpt><trkpt lat="40.4004112" lon="9.3014618"><ele>731.0</ele><time>2026-05-02T10:32:03.18Z</time></trkpt><trkpt lat="40.4006061" lon="9.3014089"><ele>731.0</ele><time>2026-05-02T10:32:04.181Z</time></trkpt><trkpt lat="40.4008129" lon="9.3013572"><ele>730.0</ele><time>2026-05-02T10:32:05.181Z</time></trkpt><trkpt lat="40.401035" lon="9.3013105"><ele>729.0</ele><time>2026-05-02T10:32:06.181Z</time></trkpt><trkpt lat="40.4012676" lon="9.3012772"><ele>730.0</ele><time>2026-05-02T10:32:07.181Z</time></trkpt><trkpt lat="40.4015177" lon="9.301257"><ele>731.0</ele><time>2026-05-02T10:32:08.18Z</time></trkpt><trkpt lat="40.4017845" lon="9.3012378"><ele>731.0</ele><time>2026-05-02T10:32:09.18Z</time></trkpt><trkpt lat="40.4020374" lon="9.3012193"><ele>731.0</ele><time>2026-05-02T10:32:10.181Z</time></trkpt><trkpt lat="40.4022775" lon="9.3011983"><ele>731.6666666666666</ele><time>2026-05-02T10:32:11.181Z</time></trkpt><trkpt lat="40.4025071" lon="9.3011667"><ele>732.3333333333334</ele><time>2026-05-02T10:32:12.181Z</time></trkpt><trkpt lat="40.40272" lon="9.3011304"><ele>733.0</ele><time>2026-05-02T10:32:13.181Z</time></trkpt><trkpt lat="40.4029262" lon="9.3011124"><ele>733.3333333333334</ele><time>2026-05-02T10:32:14.18Z</time></trkpt><trkpt lat="40.4031335" lon="9.3011217"><ele>733.6666666666666</ele><time>2026-05-02T10:32:15.181Z</time></trkpt><trkpt lat="40.403331" lon="9.3011427"><ele>734.0</ele><time>2026-05-02T10:32:16.18Z</time></trkpt><trkpt lat="40.4035139" lon="9.3011711"><ele>734.0</ele><time>2026-05-02T10:32:17.18Z</time></trkpt><trkpt lat="40.4036826" lon="9.3012027"><ele>734.0</ele><time>2026-05-02T10:32:18.18Z</time></trkpt><trkpt lat="40.4038397" lon="9.3012573"><ele>734.0</ele><time>2026-05-02T10:32:19.181Z</time></trkpt><trkpt lat="40.4039838" lon="9.3013392"><ele>734.6666666666666</ele><time>2026-05-02T10:32:20.181Z</time></trkpt><trkpt lat="40.4041205" lon="9.301442"><ele>735.3333333333334</ele><time>2026-05-02T10:32:21.18Z</time></trkpt><trkpt lat="40.4042533" lon="9.3015487"><ele>736.0</ele><time>2026-05-02T10:32:22.181Z</time></trkpt><trkpt lat="40.4043813" lon="9.3016533"><ele>736.0</ele><time>2026-05-02T10:32:23.18Z</time></trkpt><trkpt lat="40.4045047" lon="9.3017535"><ele>736.0</ele><time>2026-05-02T10:32:24.18Z</time></trkpt><trkpt lat="40.4046204" lon="9.3018516"><ele>736.0</ele><time>2026-05-02T10:32:25.181Z</time></trkpt><trkpt lat="40.4047333" lon="9.3019486"><ele>736.0</ele><time>2026-05-02T10:32:26.181Z</time></trkpt><trkpt lat="40.4048492" lon="9.3020485"><ele>736.0</ele><time>2026-05-02T10:32:27.18Z</time></trkpt><trkpt lat="40.4049637" lon="9.3021422"><ele>736.0</ele><time>2026-05-02T10:32:28.181Z</time></trkpt><trkpt lat="40.4050801" lon="9.3022264"><ele>736.0</ele><time>2026-05-02T10:32:29.181Z</time></trkpt><trkpt lat="40.4052004" lon="9.3022796"><ele>736.0</ele><time>2026-05-02T10:32:30.18Z</time></trkpt><trkpt lat="40.4053219" lon="9.3022935"><ele>736.5</ele><time>2026-05-02T10:32:31.18Z</time></trkpt><trkpt lat="40.4054431" lon="9.3022763"><ele>737.0</ele><time>2026-05-02T10:32:32.181Z</time></trkpt><trkpt lat="40.4055647" lon="9.3022379"><ele>737.5</ele><time>2026-05-02T10:32:33.18Z</time></trkpt><trkpt lat="40.4056892" lon="9.3021926"><ele>738.0</ele><time>2026-05-02T10:32:34.181Z</time></trkpt><trkpt lat="40.4058137" lon="9.3021511"><ele>738.0</ele><time>2026-05-02T10:32:35.181Z</time></trkpt><trkpt lat="40.405934" lon="9.3021085"><ele>738.0</ele><time>2026-05-02T10:32:36.181Z</time></trkpt><trkpt lat="40.4060466" lon="9.3020718"><ele>738.0</ele><time>2026-05-02T10:32:37.181Z</time></trkpt><trkpt lat="40.4061571" lon="9.3020479"><ele>738.0</ele><time>2026-05-02T10:32:38.18Z</time></trkpt><trkpt lat="40.4062678" lon="9.3020539"><ele>738.5</ele><time>2026-05-02T10:32:39.181Z</time></trkpt><trkpt lat="40.4063734" lon="9.3020998"><ele>739.0</ele><time>2026-05-02T10:32:40.18Z</time></trkpt><trkpt lat="40.4064776" lon="9.3021625"><ele>739.5</ele><time>2026-05-02T10:32:41.18Z</time></trkpt><trkpt lat="40.4065873" lon="9.3022336"><ele>740.0</ele><time>2026-05-02T10:32:42.18Z</time></trkpt><trkpt lat="40.4067034" lon="9.3023089"><ele>741.5</ele><time>2026-05-02T10:32:43.181Z</time></trkpt><trkpt lat="40.4068232" lon="9.3023911"><ele>743.0</ele><time>2026-05-02T10:32:44.18Z</time></trkpt><trkpt lat="40.4069414" lon="9.3024856"><ele>744.5</ele><time>2026-05-02T10:32:45.181Z</time></trkpt><trkpt lat="40.4070545" lon="9.3026024"><ele>746.0</ele><time>2026-05-02T10:32:46.181Z</time></trkpt><trkpt lat="40.4071538" lon="9.3027442"><ele>746.0</ele><time>2026-05-02T10:32:47.181Z</time></trkpt><trkpt lat="40.4072337" lon="9.3029068"><ele>746.0</ele><time>2026-05-02T10:32:48.181Z</time></trkpt><trkpt lat="40.407305" lon="9.3030877"><ele>746.0</ele><time>2026-05-02T10:32:49.181Z</time></trkpt><trkpt lat="40.4073753" lon="9.3032752"><ele>746.0</ele><time>2026-05-02T10:32:50.181Z</time></trkpt><trkpt lat="40.407444" lon="9.3034702"><ele>746.0</ele><time>2026-05-02T10:32:51.18Z</time></trkpt><trkpt lat="40.4075116" lon="9.3036671"><ele>746.0</ele><time>2026-05-02T10:32:52.181Z</time></trkpt><trkpt lat="40.4075824" lon="9.3038637"><ele>747.0</ele><time>2026-05-02T10:32:53.18Z</time></trkpt><trkpt lat="40.4076621" lon="9.3040426"><ele>748.0</ele><time>2026-05-02T10:32:54.18Z</time></trkpt><trkpt lat="40.4077647" lon="9.3042015"><ele>749.0</ele><time>2026-05-02T10:32:55.181Z</time></trkpt><trkpt lat="40.407884" lon="9.3043384"><ele>748.3333333333333</ele><time>2026-05-02T10:32:56.18Z</time></trkpt><trkpt lat="40.4080231" lon="9.3044433"><ele>747.6666666666666</ele><time>2026-05-02T10:32:57.181Z</time></trkpt><trkpt lat="40.4081755" lon="9.3045265"><ele>747.0</ele><time>2026-05-02T10:32:58.181Z</time></trkpt><trkpt lat="40.408333" lon="9.3046033"><ele>747.0</ele><time>2026-05-02T10:32:59.181Z</time></trkpt><trkpt lat="40.4084844" lon="9.3047111"><ele>747.0</ele><time>2026-05-02T10:33:00.18Z</time></trkpt><trkpt lat="40.4086357" lon="9.3048276"><ele>747.0</ele><time>2026-05-02T10:33:01.181Z</time></trkpt><trkpt lat="40.4087924" lon="9.3049429"><ele>750.3333333333334</ele><time>2026-05-02T10:33:02.181Z</time></trkpt><trkpt lat="40.4089574" lon="9.3050472"><ele>753.6666666666667</ele><time>2026-05-02T10:33:03.18Z</time></trkpt><trkpt lat="40.409127" lon="9.3051428"><ele>757.0</ele><time>2026-05-02T10:33:04.181Z</time></trkpt><trkpt lat="40.4092858" lon="9.3052281"><ele>757.0</ele><time>2026-05-02T10:33:05.181Z</time></trkpt><trkpt lat="40.4094346" lon="9.3053034"><ele>757.0</ele><time>2026-05-02T10:33:06.181Z</time></trkpt><trkpt lat="40.409577" lon="9.3053619"><ele>757.0</ele><time>2026-05-02T10:33:07.181Z</time></trkpt><trkpt lat="40.4097117" lon="9.3053944"><ele>757.0</ele><time>2026-05-02T10:33:08.18Z</time></trkpt><trkpt lat="40.4098427" lon="9.3054022"><ele>757.75</ele><time>2026-05-02T10:33:09.18Z</time></trkpt><trkpt lat="40.4099711" lon="9.3053903"><ele>758.5</ele><time>2026-05-02T10:33:10.18Z</time></trkpt><trkpt lat="40.410095" lon="9.3053574"><ele>759.25</ele><time>2026-05-02T10:33:11.181Z</time></trkpt><trkpt lat="40.4102155" lon="9.3053278"><ele>760.0</ele><time>2026-05-02T10:33:12.18Z</time></trkpt><trkpt lat="40.4103393" lon="9.3053098"><ele>760.0</ele><time>2026-05-02T10:33:13.181Z</time></trkpt><trkpt lat="40.4104646" lon="9.3053123"><ele>760.0</ele><time>2026-05-02T10:33:14.18Z</time></trkpt><trkpt lat="40.410591" lon="9.3053441"><ele>760.0</ele><time>2026-05-02T10:33:15.181Z</time></trkpt><trkpt lat="40.410719" lon="9.3054062"><ele>760.0</ele><time>2026-05-02T10:33:16.18Z</time></trkpt><trkpt lat="40.4108395" lon="9.3054977"><ele>761.75</ele><time>2026-05-02T10:33:17.181Z</time></trkpt><trkpt lat="40.4109493" lon="9.3056143"><ele>763.5</ele><time>2026-05-02T10:33:18.181Z</time></trkpt><trkpt lat="40.411041" lon="9.3057413"><ele>765.25</ele><time>2026-05-02T10:33:19.181Z</time></trkpt><trkpt lat="40.4111234" lon="9.3058624"><ele>767.0</ele><time>2026-05-02T10:33:20.18Z</time></trkpt><trkpt lat="40.4112078" lon="9.3059804"><ele>767.0</ele><time>2026-05-02T10:33:21.18Z</time></trkpt><trkpt lat="40.4113008" lon="9.3060789"><ele>767.0</ele><time>2026-05-02T10:33:22.181Z</time></trkpt><trkpt lat="40.4113908" lon="9.3061651"><ele>767.0</ele><time>2026-05-02T10:33:23.18Z</time></trkpt><trkpt lat="40.4114796" lon="9.3062469"><ele>767.0</ele><time>2026-05-02T10:33:24.18Z</time></trkpt><trkpt lat="40.411567" lon="9.3063331"><ele>767.0</ele><time>2026-05-02T10:33:25.18Z</time></trkpt><trkpt lat="40.4116471" lon="9.3064319"><ele>766.75</ele><time>2026-05-02T10:33:26.18Z</time></trkpt><trkpt lat="40.4117177" lon="9.3065494"><ele>766.5</ele><time>2026-05-02T10:33:27.18Z</time></trkpt><trkpt lat="40.4117757" lon="9.3066829"><ele>766.25</ele><time>2026-05-02T10:33:28.181Z</time></trkpt><trkpt lat="40.4118253" lon="9.3068258"><ele>766.0</ele><time>2026-05-02T10:33:29.181Z</time></trkpt><trkpt lat="40.4118866" lon="9.3069637"><ele>766.0</ele><time>2026-05-02T10:33:30.18Z</time></trkpt><trkpt lat="40.4119594" lon="9.3070904"><ele>766.0</ele><time>2026-05-02T10:33:31.181Z</time></trkpt><trkpt lat="40.4120197" lon="9.3072278"><ele>766.0</ele><time>2026-05-02T10:33:32.18Z</time></trkpt><trkpt lat="40.4120493" lon="9.3073697"><ele>766.0</ele><time>2026-05-02T10:33:33.181Z</time></trkpt><trkpt lat="40.4120474" lon="9.3075152"><ele>767.1999999999999</ele><time>2026-05-02T10:33:34.181Z</time></trkpt><trkpt lat="40.4120265" lon="9.3076587"><ele>768.4</ele><time>2026-05-02T10:33:35.181Z</time></trkpt><trkpt lat="40.4120065" lon="9.3078034"><ele>769.6</ele><time>2026-05-02T10:33:36.18Z</time></trkpt><trkpt lat="40.4120086" lon="9.3079525"><ele>770.8</ele><time>2026-05-02T10:33:37.18Z</time></trkpt><trkpt lat="40.412049" lon="9.3080848"><ele>772.0</ele><time>2026-05-02T10:33:38.181Z</time></trkpt><trkpt lat="40.4121255" lon="9.3081874"><ele>772.75</ele><time>2026-05-02T10:33:39.181Z</time></trkpt><trkpt lat="40.4122237" lon="9.3082482"><ele>773.5</ele><time>2026-05-02T10:33:40.18Z</time></trkpt><trkpt lat="40.4123311" lon="9.3082748"><ele>774.25</ele><time>2026-05-02T10:33:41.18Z</time></trkpt><trkpt lat="40.4124501" lon="9.3082764"><ele>775.0</ele><time>2026-05-02T10:33:42.18Z</time></trkpt><trkpt lat="40.412572" lon="9.308276"><ele>775.0</ele><time>2026-05-02T10:33:43.18Z</time></trkpt><trkpt lat="40.4126926" lon="9.308274"><ele>775.0</ele><time>2026-05-02T10:33:44.181Z</time></trkpt><trkpt lat="40.4128033" lon="9.3082482"><ele>775.0</ele><time>2026-05-02T10:33:45.181Z</time></trkpt><trkpt lat="40.4129045" lon="9.3082037"><ele>775.0</ele><time>2026-05-02T10:33:46.18Z</time></trkpt><trkpt lat="40.4130086" lon="9.3081633"><ele>775.0</ele><time>2026-05-02T10:33:47.181Z</time></trkpt><trkpt lat="40.4131197" lon="9.3081522"><ele>775.25</ele><time>2026-05-02T10:33:48.181Z</time></trkpt><trkpt lat="40.4132339" lon="9.3081841"><ele>775.5</ele><time>2026-05-02T10:33:49.181Z</time></trkpt><trkpt lat="40.4133397" lon="9.3082522"><ele>775.75</ele><time>2026-05-02T10:33:50.181Z</time></trkpt><trkpt lat="40.4134328" lon="9.3083499"><ele>776.0</ele><time>2026-05-02T10:33:51.181Z</time></trkpt><trkpt lat="40.4135051" lon="9.3084686"><ele>776.0</ele><time>2026-05-02T10:33:52.18Z</time></trkpt><trkpt lat="40.4135649" lon="9.3086008"><ele>776.0</ele><time>2026-05-02T10:33:53.18Z</time></trkpt><trkpt lat="40.4136161" lon="9.3087354"><ele>776.0</ele><time>2026-05-02T10:33:54.181Z</time></trkpt><trkpt lat="40.4136631" lon="9.3088632"><ele>776.0</ele><time>2026-05-02T10:33:55.18Z</time></trkpt><trkpt lat="40.4137175" lon="9.3089928"><ele>776.75</ele><time>2026-05-02T10:33:56.18Z</time></trkpt><trkpt lat="40.4137823" lon="9.309117"><ele>777.5</ele><time>2026-05-02T10:33:57.181Z</time></trkpt><trkpt lat="40.4138636" lon="9.3092258"><ele>778.25</ele><time>2026-05-02T10:33:58.18Z</time></trkpt><trkpt lat="40.4139646" lon="9.3093098"><ele>779.0</ele><time>2026-05-02T10:33:59.18Z</time></trkpt><trkpt lat="40.4140838" lon="9.3093797"><ele>779.0</ele><time>2026-05-02T10:34:00.18Z</time></trkpt><trkpt lat="40.4142089" lon="9.3094342"><ele>779.0</ele><time>2026-05-02T10:34:01.181Z</time></trkpt><trkpt lat="40.414334" lon="9.3095043"><ele>779.0</ele><time>2026-05-02T10:34:02.18Z</time></trkpt><trkpt lat="40.4144566" lon="9.3095896"><ele>779.0</ele><time>2026-05-02T10:34:03.18Z</time></trkpt><trkpt lat="40.4145796" lon="9.3096835"><ele>780.25</ele><time>2026-05-02T10:34:04.18Z</time></trkpt><trkpt lat="40.4147021" lon="9.3097818"><ele>781.5</ele><time>2026-05-02T10:34:05.18Z</time></trkpt><trkpt lat="40.4148171" lon="9.3098864"><ele>782.75</ele><time>2026-05-02T10:34:06.18Z</time></trkpt><trkpt lat="40.4149137" lon="9.3099955"><ele>784.0</ele><time>2026-05-02T10:34:07.181Z</time></trkpt><trkpt lat="40.4150002" lon="9.3101087"><ele>784.0</ele><time>2026-05-02T10:34:08.181Z</time></trkpt><trkpt lat="40.4150783" lon="9.3102358"><ele>784.0</ele><time>2026-05-02T10:34:09.18Z</time></trkpt><trkpt lat="40.4151473" lon="9.3103709"><ele>784.0</ele><time>2026-05-02T10:34:10.181Z</time></trkpt><trkpt lat="40.4152086" lon="9.3105127"><ele>784.0</ele><time>2026-05-02T10:34:11.18Z</time></trkpt><trkpt lat="40.4152668" lon="9.310656"><ele>784.75</ele><time>2026-05-02T10:34:12.18Z</time></trkpt><trkpt lat="40.4153237" lon="9.3108035"><ele>785.5</ele><time>2026-05-02T10:34:13.18Z</time></trkpt><trkpt lat="40.4153661" lon="9.3109564"><ele>786.25</ele><time>2026-05-02T10:34:14.18Z</time></trkpt><trkpt lat="40.4153896" lon="9.3111187"><ele>787.0</ele><time>2026-05-02T10:34:15.181Z</time></trkpt><trkpt lat="40.4153878" lon="9.3112858"><ele>787.5</ele><time>2026-05-02T10:34:16.18Z</time></trkpt><trkpt lat="40.4153511" lon="9.3114511"><ele>788.0</ele><time>2026-05-02T10:34:17.18Z</time></trkpt><trkpt lat="40.4152869" lon="9.3116006"><ele>788.5</ele><time>2026-05-02T10:34:18.181Z</time></trkpt><trkpt lat="40.4151946" lon="9.3117205"><ele>789.0</ele><time>2026-05-02T10:34:19.18Z</time></trkpt><trkpt lat="40.4150829" lon="9.3118142"><ele>789.0</ele><time>2026-05-02T10:34:20.181Z</time></trkpt><trkpt lat="40.4149631" lon="9.3119021"><ele>789.0</ele><time>2026-05-02T10:34:21.181Z</time></trkpt><trkpt lat="40.4148403" lon="9.3119932"><ele>789.0</ele><time>2026-05-02T10:34:22.18Z</time></trkpt><trkpt lat="40.4147226" lon="9.3121079"><ele>789.0</ele><time>2026-05-02T10:34:23.181Z</time></trkpt><trkpt lat="40.4146125" lon="9.3122472"><ele>790.6666666666667</ele><time>2026-05-02T10:34:24.181Z</time></trkpt><trkpt lat="40.4145078" lon="9.3124054"><ele>792.3333333333334</ele><time>2026-05-02T10:34:25.18Z</time></trkpt><trkpt lat="40.4144081" lon="9.3125782"><ele>794.0</ele><time>2026-05-02T10:34:26.181Z</time></trkpt><trkpt lat="40.4143079" lon="9.312758"><ele>794.0</ele><time>2026-05-02T10:34:27.181Z</time></trkpt><trkpt lat="40.4142195" lon="9.31295"><ele>794.0</ele><time>2026-05-02T10:34:28.18Z</time></trkpt><trkpt lat="40.4141532" lon="9.3131554"><ele>794.0</ele><time>2026-05-02T10:34:29.181Z</time></trkpt><trkpt lat="40.4141132" lon="9.3133697"><ele>794.3333333333334</ele><time>2026-05-02T10:34:30.18Z</time></trkpt><trkpt lat="40.414093" lon="9.3135919"><ele>794.6666666666667</ele><time>2026-05-02T10:34:31.18Z</time></trkpt><trkpt lat="40.414082" lon="9.313815"><ele>795.0</ele><time>2026-05-02T10:34:32.18Z</time></trkpt><trkpt lat="40.4140683" lon="9.3140436"><ele>795.3333333333333</ele><time>2026-05-02T10:34:33.181Z</time></trkpt><trkpt lat="40.4140446" lon="9.3142755"><ele>795.6666666666666</ele><time>2026-05-02T10:34:34.18Z</time></trkpt><trkpt lat="40.4140064" lon="9.3145029"><ele>796.0</ele><time>2026-05-02T10:34:35.18Z</time></trkpt><trkpt lat="40.4139512" lon="9.3147259"><ele>796.0</ele><time>2026-05-02T10:34:36.181Z</time></trkpt><trkpt lat="40.4138881" lon="9.3149518"><ele>796.0</ele><time>2026-05-02T10:34:37.18Z</time></trkpt><trkpt lat="40.4138242" lon="9.3151795"><ele>796.0</ele><time>2026-05-02T10:34:38.181Z</time></trkpt><trkpt lat="40.4137644" lon="9.3154001"><ele>796.0</ele><time>2026-05-02T10:34:39.18Z</time></trkpt><trkpt lat="40.4137034" lon="9.3156076"><ele>796.0</ele><time>2026-05-02T10:34:40.18Z</time></trkpt><trkpt lat="40.4136306" lon="9.3157979"><ele>796.0</ele><time>2026-05-02T10:34:41.18Z</time></trkpt><trkpt lat="40.4135397" lon="9.3159644"><ele>796.0</ele><time>2026-05-02T10:34:42.181Z</time></trkpt><trkpt lat="40.413427" lon="9.3161096"><ele>796.0</ele><time>2026-05-02T10:34:43.18Z</time></trkpt><trkpt lat="40.4132973" lon="9.3162312"><ele>796.0</ele><time>2026-05-02T10:34:44.181Z</time></trkpt><trkpt lat="40.4131646" lon="9.3163427"><ele>796.25</ele><time>2026-05-02T10:34:45.18Z</time></trkpt><trkpt lat="40.4130533" lon="9.3164698"><ele>796.5</ele><time>2026-05-02T10:34:46.181Z</time></trkpt><trkpt lat="40.4129725" lon="9.3166171"><ele>796.75</ele><time>2026-05-02T10:34:47.181Z</time></trkpt><trkpt lat="40.412924" lon="9.3167872"><ele>797.0</ele><time>2026-05-02T10:34:48.181Z</time></trkpt><trkpt lat="40.4128973" lon="9.3169732"><ele>796.3333333333334</ele><time>2026-05-02T10:34:49.18Z</time></trkpt><trkpt lat="40.4128774" lon="9.3171735"><ele>795.6666666666667</ele><time>2026-05-02T10:34:50.181Z</time></trkpt><trkpt lat="40.4128471" lon="9.317382"><ele>795.0</ele><time>2026-05-02T10:34:51.18Z</time></trkpt><trkpt lat="40.4128076" lon="9.3175986"><ele>795.0</ele><time>2026-05-02T10:34:52.18Z</time></trkpt><trkpt lat="40.4127564" lon="9.3177994"><ele>795.0</ele><time>2026-05-02T10:34:53.18Z</time></trkpt><trkpt lat="40.4126945" lon="9.3179808"><ele>795.0</ele><time>2026-05-02T10:34:54.181Z</time></trkpt><trkpt lat="40.4126349" lon="9.3181463"><ele>795.0</ele><time>2026-05-02T10:34:55.18Z</time></trkpt><trkpt lat="40.4126034" lon="9.3183057"><ele>795.0</ele><time>2026-05-02T10:34:56.18Z</time></trkpt><trkpt lat="40.4126086" lon="9.3184649"><ele>795.0</ele><time>2026-05-02T10:34:57.18Z</time></trkpt><trkpt lat="40.4126456" lon="9.3186154"><ele>795.0</ele><time>2026-05-02T10:34:58.18Z</time></trkpt><trkpt lat="40.4127255" lon="9.3187486"><ele>795.0</ele><time>2026-05-02T10:34:59.181Z</time></trkpt><trkpt lat="40.4128246" lon="9.3188787"><ele>795.0</ele><time>2026-05-02T10:35:00.18Z</time></trkpt><trkpt lat="40.4129304" lon="9.3190199"><ele>795.0</ele><time>2026-05-02T10:35:01.18Z</time></trkpt><trkpt lat="40.4130251" lon="9.3191891"><ele>795.0</ele><time>2026-05-02T10:35:02.18Z</time></trkpt><trkpt lat="40.413099" lon="9.3193731"><ele>795.0</ele><time>2026-05-02T10:35:03.181Z</time></trkpt><trkpt lat="40.4131482" lon="9.3195756"><ele>795.0</ele><time>2026-05-02T10:35:04.18Z</time></trkpt><trkpt lat="40.4131872" lon="9.3197766"><ele>795.0</ele><time>2026-05-02T10:35:05.18Z</time></trkpt><trkpt lat="40.4132332" lon="9.3199655"><ele>795.0</ele><time>2026-05-02T10:35:06.181Z</time></trkpt><trkpt lat="40.4133076" lon="9.3201441"><ele>795.0</ele><time>2026-05-02T10:35:07.181Z</time></trkpt><trkpt lat="40.4134099" lon="9.3203084"><ele>795.0</ele><time>2026-05-02T10:35:08.181Z</time></trkpt><trkpt lat="40.4135296" lon="9.3204731"><ele>795.0</ele><time>2026-05-02T10:35:09.181Z</time></trkpt><trkpt lat="40.4136528" lon="9.3206417"><ele>795.0</ele><time>2026-05-02T10:35:10.181Z</time></trkpt><trkpt lat="40.4137689" lon="9.3208205"><ele>794.6666666666667</ele><time>2026-05-02T10:35:11.181Z</time></trkpt><trkpt lat="40.413864" lon="9.3210212"><ele>794.3333333333334</ele><time>2026-05-02T10:35:12.181Z</time></trkpt><trkpt lat="40.4139485" lon="9.3212297"><ele>794.0</ele><time>2026-05-02T10:35:13.181Z</time></trkpt><trkpt lat="40.4140363" lon="9.3214326"><ele>794.0</ele><time>2026-05-02T10:35:14.18Z</time></trkpt><trkpt lat="40.4141326" lon="9.3216098"><ele>794.0</ele><time>2026-05-02T10:35:15.18Z</time></trkpt><trkpt lat="40.4142452" lon="9.3217645"><ele>794.0</ele><time>2026-05-02T10:35:16.18Z</time></trkpt><trkpt lat="40.4143716" lon="9.3219027"><ele>794.0</ele><time>2026-05-02T10:35:17.181Z</time></trkpt><trkpt lat="40.4144927" lon="9.3220535"><ele>794.0</ele><time>2026-05-02T10:35:18.181Z</time></trkpt><trkpt lat="40.4145885" lon="9.3222422"><ele>794.0</ele><time>2026-05-02T10:35:19.18Z</time></trkpt><trkpt lat="40.4146827" lon="9.3224378"><ele>794.3333333333334</ele><time>2026-05-02T10:35:20.18Z</time></trkpt><trkpt lat="40.4147911" lon="9.3226227"><ele>794.6666666666667</ele><time>2026-05-02T10:35:21.181Z</time></trkpt><trkpt lat="40.4149221" lon="9.3227819"><ele>795.0</ele><time>2026-05-02T10:35:22.181Z</time></trkpt><trkpt lat="40.4150753" lon="9.3229013"><ele>795.0</ele><time>2026-05-02T10:35:23.18Z</time></trkpt><trkpt lat="40.4152449" lon="9.3229842"><ele>795.0</ele><time>2026-05-02T10:35:24.18Z</time></trkpt><trkpt lat="40.4154239" lon="9.3230532"><ele>795.0</ele><time>2026-05-02T10:35:25.18Z</time></trkpt><trkpt lat="40.4155956" lon="9.3231251"><ele>795.0</ele><time>2026-05-02T10:35:26.181Z</time></trkpt><trkpt lat="40.4157584" lon="9.3232206"><ele>795.0</ele><time>2026-05-02T10:35:27.181Z</time></trkpt><trkpt lat="40.4159034" lon="9.3233515"><ele>795.0</ele><time>2026-05-02T10:35:28.18Z</time></trkpt><trkpt lat="40.4160387" lon="9.3234964"><ele>795.0</ele><time>2026-05-02T10:35:29.18Z</time></trkpt><trkpt lat="40.4161766" lon="9.3236352"><ele>795.0</ele><time>2026-05-02T10:35:30.18Z</time></trkpt><trkpt lat="40.4163191" lon="9.3237642"><ele>795.0</ele><time>2026-05-02T10:35:31.181Z</time></trkpt><trkpt lat="40.4164582" lon="9.3238804"><ele>795.75</ele><time>2026-05-02T10:35:32.18Z</time></trkpt><trkpt lat="40.4165807" lon="9.3239922"><ele>796.5</ele><time>2026-05-02T10:35:33.18Z</time></trkpt><trkpt lat="40.4166727" lon="9.3241213"><ele>797.25</ele><time>2026-05-02T10:35:34.181Z</time></trkpt><trkpt lat="40.4167236" lon="9.3242715"><ele>798.0</ele><time>2026-05-02T10:35:35.181Z</time></trkpt><trkpt lat="40.4167303" lon="9.3244278"><ele>798.0</ele><time>2026-05-02T10:35:36.18Z</time></trkpt><trkpt lat="40.4166957" lon="9.3245861"><ele>798.0</ele><time>2026-05-02T10:35:37.181Z</time></trkpt><trkpt lat="40.416639" lon="9.3247483"><ele>798.0</ele><time>2026-05-02T10:35:38.18Z</time></trkpt><trkpt lat="40.4165728" lon="9.3249261"><ele>798.0</ele><time>2026-05-02T10:35:39.18Z</time></trkpt><trkpt lat="40.4164989" lon="9.3251248"><ele>798.0</ele><time>2026-05-02T10:35:40.181Z</time></trkpt><trkpt lat="40.4164201" lon="9.3253373"><ele>798.0</ele><time>2026-05-02T10:35:41.181Z</time></trkpt><trkpt lat="40.4163358" lon="9.3255443"><ele>798.0</ele><time>2026-05-02T10:35:42.181Z</time></trkpt><trkpt lat="40.4162385" lon="9.3257178"><ele>798.0</ele><time>2026-05-02T10:35:43.181Z</time></trkpt><trkpt lat="40.4161168" lon="9.3258454"><ele>798.0</ele><time>2026-05-02T10:35:44.181Z</time></trkpt><trkpt lat="40.4159723" lon="9.3259357"><ele>798.0</ele><time>2026-05-02T10:35:45.18Z</time></trkpt><trkpt lat="40.4158111" lon="9.3260178"><ele>798.0</ele><time>2026-05-02T10:35:46.181Z</time></trkpt><trkpt lat="40.4156562" lon="9.3260989"><ele>798.0</ele><time>2026-05-02T10:35:47.18Z</time></trkpt><trkpt lat="40.415519" lon="9.3261829"><ele>798.0</ele><time>2026-05-02T10:35:48.181Z</time></trkpt><trkpt lat="40.4154103" lon="9.3262931"><ele>798.25</ele><time>2026-05-02T10:35:49.181Z</time></trkpt><trkpt lat="40.4153457" lon="9.3264327"><ele>798.5</ele><time>2026-05-02T10:35:50.181Z</time></trkpt><trkpt lat="40.4153231" lon="9.3265898"><ele>798.75</ele><time>2026-05-02T10:35:51.18Z</time></trkpt><trkpt lat="40.4153387" lon="9.3267582"><ele>799.0</ele><time>2026-05-02T10:35:52.18Z</time></trkpt><trkpt lat="40.4153739" lon="9.3269317"><ele>799.0</ele><time>2026-05-02T10:35:53.181Z</time></trkpt><trkpt lat="40.4154234" lon="9.3271252"><ele>799.0</ele><time>2026-05-02T10:35:54.18Z</time></trkpt><trkpt lat="40.4154749" lon="9.3273323"><ele>799.0</ele><time>2026-05-02T10:35:55.181Z</time></trkpt><trkpt lat="40.4155312" lon="9.3275484"><ele>802.6666666666666</ele><time>2026-05-02T10:35:56.181Z</time></trkpt><trkpt lat="40.4155856" lon="9.3277665"><ele>806.3333333333333</ele><time>2026-05-02T10:35:57.181Z</time></trkpt><trkpt lat="40.4156342" lon="9.3279805"><ele>810.0</ele><time>2026-05-02T10:35:58.18Z</time></trkpt><trkpt lat="40.4156627" lon="9.3281764"><ele>810.0</ele><time>2026-05-02T10:35:59.181Z</time></trkpt><trkpt lat="40.4156606" lon="9.3283463"><ele>810.0</ele><time>2026-05-02T10:36:00.18Z</time></trkpt><trkpt lat="40.4156219" lon="9.328485"><ele>810.0</ele><time>2026-05-02T10:36:01.181Z</time></trkpt><trkpt lat="40.415549" lon="9.3286018"><ele>810.0</ele><time>2026-05-02T10:36:02.181Z</time></trkpt><trkpt lat="40.4154509" lon="9.3286991"><ele>810.0</ele><time>2026-05-02T10:36:03.181Z</time></trkpt><trkpt lat="40.4153305" lon="9.3287721"><ele>810.0</ele><time>2026-05-02T10:36:04.181Z</time></trkpt><trkpt lat="40.415189" lon="9.3288062"><ele>810.0</ele><time>2026-05-02T10:36:05.181Z</time></trkpt><trkpt lat="40.4150315" lon="9.3288061"><ele>810.0</ele><time>2026-05-02T10:36:06.18Z</time></trkpt><trkpt lat="40.414871" lon="9.3288065"><ele>810.0</ele><time>2026-05-02T10:36:07.18Z</time></trkpt><trkpt lat="40.414724" lon="9.3288337"><ele>810.0</ele><time>2026-05-02T10:36:08.181Z</time></trkpt><trkpt lat="40.4145828" lon="9.3289056"><ele>810.0</ele><time>2026-05-02T10:36:09.18Z</time></trkpt><trkpt lat="40.41446" lon="9.3290198"><ele>812.0</ele><time>2026-05-02T10:36:10.181Z</time></trkpt><trkpt lat="40.4143537" lon="9.3291521"><ele>814.0</ele><time>2026-05-02T10:36:11.181Z</time></trkpt><trkpt lat="40.4142529" lon="9.3292592"><ele>816.0</ele><time>2026-05-02T10:36:12.18Z</time></trkpt><trkpt lat="40.414153" lon="9.3293185"><ele>818.0</ele><time>2026-05-02T10:36:13.181Z</time></trkpt><trkpt lat="40.414058" lon="9.3293204"><ele>818.0</ele><time>2026-05-02T10:36:14.181Z</time></trkpt><trkpt lat="40.4139698" lon="9.3292706"><ele>818.0</ele><time>2026-05-02T10:36:15.181Z</time></trkpt><trkpt lat="40.4138919" lon="9.3291755"><ele>818.0</ele><time>2026-05-02T10:36:16.18Z</time></trkpt><trkpt lat="40.4138327" lon="9.329047"><ele>818.0</ele><time>2026-05-02T10:36:17.18Z</time></trkpt><trkpt lat="40.4137863" lon="9.3288964"><ele>818.0</ele><time>2026-05-02T10:36:18.181Z</time></trkpt><trkpt lat="40.4137327" lon="9.3287313"><ele>819.0</ele><time>2026-05-02T10:36:19.181Z</time></trkpt><trkpt lat="40.4136658" lon="9.3285597"><ele>820.0</ele><time>2026-05-02T10:36:20.18Z</time></trkpt><trkpt lat="40.4135773" lon="9.3284054"><ele>821.0</ele><time>2026-05-02T10:36:21.181Z</time></trkpt><trkpt lat="40.4134632" lon="9.3282826"><ele>822.0</ele><time>2026-05-02T10:36:22.181Z</time></trkpt><trkpt lat="40.4133281" lon="9.3281995"><ele>822.0</ele><time>2026-05-02T10:36:23.181Z</time></trkpt><trkpt lat="40.4131794" lon="9.3281581"><ele>822.0</ele><time>2026-05-02T10:36:24.181Z</time></trkpt><trkpt lat="40.4130212" lon="9.3281418"><ele>822.0</ele><time>2026-05-02T10:36:25.181Z</time></trkpt><trkpt lat="40.4128557" lon="9.3281353"><ele>824.3333333333333</ele><time>2026-05-02T10:36:26.181Z</time></trkpt><trkpt lat="40.4126857" lon="9.3281282"><ele>826.6666666666666</ele><time>2026-05-02T10:36:27.181Z</time></trkpt><trkpt lat="40.4125274" lon="9.3281258"><ele>829.0</ele><time>2026-05-02T10:36:28.181Z</time></trkpt><trkpt lat="40.4123876" lon="9.3281457"><ele>829.0</ele><time>2026-05-02T10:36:29.181Z</time></trkpt><trkpt lat="40.4122885" lon="9.3282254"><ele>829.0</ele><time>2026-05-02T10:36:30.181Z</time></trkpt><trkpt lat="40.412218" lon="9.3283476"><ele>829.0</ele><time>2026-05-02T10:36:31.181Z</time></trkpt><trkpt lat="40.4121908" lon="9.3284967"><ele>829.0</ele><time>2026-05-02T10:36:32.181Z</time></trkpt><trkpt lat="40.4122016" lon="9.328654"><ele>829.0</ele><time>2026-05-02T10:36:33.181Z</time></trkpt><trkpt lat="40.4122263" lon="9.3288224"><ele>829.0</ele><time>2026-05-02T10:36:34.18Z</time></trkpt><trkpt lat="40.4122384" lon="9.3290024"><ele>829.0</ele><time>2026-05-02T10:36:35.181Z</time></trkpt><trkpt lat="40.4122443" lon="9.3291954"><ele>829.0</ele><time>2026-05-02T10:36:36.18Z</time></trkpt><trkpt lat="40.4122485" lon="9.3294029"><ele>829.3333333333333</ele><time>2026-05-02T10:36:37.18Z</time></trkpt><trkpt lat="40.4122477" lon="9.3296197"><ele>829.6666666666667</ele><time>2026-05-02T10:36:38.181Z</time></trkpt><trkpt lat="40.4122423" lon="9.3298483"><ele>830.0</ele><time>2026-05-02T10:36:39.181Z</time></trkpt><trkpt lat="40.4122358" lon="9.3300584"><ele>830.75</ele><time>2026-05-02T10:36:40.181Z</time></trkpt><trkpt lat="40.4122223" lon="9.3302551"><ele>831.5</ele><time>2026-05-02T10:36:41.181Z</time></trkpt><trkpt lat="40.4121888" lon="9.3304259"><ele>832.25</ele><time>2026-05-02T10:36:42.181Z</time></trkpt><trkpt lat="40.4121338" lon="9.3305695"><ele>833.0</ele><time>2026-05-02T10:36:43.18Z</time></trkpt><trkpt lat="40.412048" lon="9.3306771"><ele>834.5</ele><time>2026-05-02T10:36:44.181Z</time></trkpt><trkpt lat="40.4119415" lon="9.3307577"><ele>836.0</ele><time>2026-05-02T10:36:45.181Z</time></trkpt><trkpt lat="40.411823" lon="9.3308337"><ele>837.5</ele><time>2026-05-02T10:36:46.18Z</time></trkpt><trkpt lat="40.4116985" lon="9.3309201"><ele>839.0</ele><time>2026-05-02T10:36:47.181Z</time></trkpt><trkpt lat="40.4115767" lon="9.3310285"><ele>839.0</ele><time>2026-05-02T10:36:48.181Z</time></trkpt><trkpt lat="40.4114658" lon="9.3311647"><ele>839.0</ele><time>2026-05-02T10:36:49.181Z</time></trkpt><trkpt lat="40.4113738" lon="9.3313294"><ele>839.0</ele><time>2026-05-02T10:36:50.181Z</time></trkpt><trkpt lat="40.4113065" lon="9.3315183"><ele>839.0</ele><time>2026-05-02T10:36:51.181Z</time></trkpt><trkpt lat="40.411245" lon="9.3317119"><ele>839.0</ele><time>2026-05-02T10:36:52.18Z</time></trkpt><trkpt lat="40.4111946" lon="9.3319067"><ele>839.0</ele><time>2026-05-02T10:36:53.18Z</time></trkpt><trkpt lat="40.4111726" lon="9.3320924"><ele>839.0</ele><time>2026-05-02T10:36:54.181Z</time></trkpt><trkpt lat="40.4111787" lon="9.3322679"><ele>839.0</ele><time>2026-05-02T10:36:55.18Z</time></trkpt><trkpt lat="40.4112211" lon="9.332431"><ele>839.0</ele><time>2026-05-02T10:36:56.18Z</time></trkpt><trkpt lat="40.4112907" lon="9.3325789"><ele>839.0</ele><time>2026-05-02T10:36:57.181Z</time></trkpt><trkpt lat="40.4113799" lon="9.3327121"><ele>839.5</ele><time>2026-05-02T10:36:58.18Z</time></trkpt><trkpt lat="40.4114808" lon="9.3328416"><ele>840.0</ele><time>2026-05-02T10:36:59.18Z</time></trkpt><trkpt lat="40.4115811" lon="9.3329768"><ele>840.5</ele><time>2026-05-02T10:37:00.181Z</time></trkpt><trkpt lat="40.4116739" lon="9.333125"><ele>841.0</ele><time>2026-05-02T10:37:01.181Z</time></trkpt><trkpt lat="40.4117546" lon="9.3332872"><ele>841.5</ele><time>2026-05-02T10:37:02.181Z</time></trkpt><trkpt lat="40.4118144" lon="9.3334691"><ele>842.0</ele><time>2026-05-02T10:37:03.18Z</time></trkpt><trkpt lat="40.4118517" lon="9.3336566"><ele>842.5</ele><time>2026-05-02T10:37:04.18Z</time></trkpt><trkpt lat="40.4118584" lon="9.3338447"><ele>843.0</ele><time>2026-05-02T10:37:05.18Z</time></trkpt><trkpt lat="40.4118322" lon="9.3340346"><ele>844.0</ele><time>2026-05-02T10:37:06.181Z</time></trkpt><trkpt lat="40.411781" lon="9.3342283"><ele>845.0</ele><time>2026-05-02T10:37:07.181Z</time></trkpt><trkpt lat="40.4117159" lon="9.3344327"><ele>846.0</ele><time>2026-05-02T10:37:08.18Z</time></trkpt><trkpt lat="40.4116436" lon="9.3346447"><ele>848.6666666666667</ele><time>2026-05-02T10:37:09.18Z</time></trkpt><trkpt lat="40.4115665" lon="9.334859"><ele>851.3333333333334</ele><time>2026-05-02T10:37:10.18Z</time></trkpt><trkpt lat="40.4114803" lon="9.3350761"><ele>854.0</ele><time>2026-05-02T10:37:11.181Z</time></trkpt><trkpt lat="40.4113827" lon="9.3352887"><ele>852.6666666666667</ele><time>2026-05-02T10:37:12.181Z</time></trkpt><trkpt lat="40.411278" lon="9.3354996"><ele>851.3333333333333</ele><time>2026-05-02T10:37:13.181Z</time></trkpt><trkpt lat="40.4111659" lon="9.3357109"><ele>850.0</ele><time>2026-05-02T10:37:14.18Z</time></trkpt><trkpt lat="40.4110549" lon="9.3359312"><ele>850.0</ele><time>2026-05-02T10:37:15.18Z</time></trkpt><trkpt lat="40.4109479" lon="9.336161"><ele>850.0</ele><time>2026-05-02T10:37:16.18Z</time></trkpt><trkpt lat="40.4108437" lon="9.3363992"><ele>850.0</ele><time>2026-05-02T10:37:17.18Z</time></trkpt><trkpt lat="40.4107397" lon="9.3366365"><ele>851.3333333333333</ele><time>2026-05-02T10:37:18.18Z</time></trkpt><trkpt lat="40.4106256" lon="9.3368594"><ele>852.6666666666667</ele><time>2026-05-02T10:37:19.18Z</time></trkpt><trkpt lat="40.4105011" lon="9.3370521"><ele>854.0</ele><time>2026-05-02T10:37:20.181Z</time></trkpt><trkpt lat="40.410377" lon="9.3372279"><ele>854.3333333333334</ele><time>2026-05-02T10:37:21.181Z</time></trkpt><trkpt lat="40.410267" lon="9.3374065"><ele>854.6666666666667</ele><time>2026-05-02T10:37:22.181Z</time></trkpt><trkpt lat="40.4101827" lon="9.3375924"><ele>855.0</ele><time>2026-05-02T10:37:23.181Z</time></trkpt><trkpt lat="40.4101141" lon="9.3377838"><ele>855.0</ele><time>2026-05-02T10:37:24.18Z</time></trkpt><trkpt lat="40.4100682" lon="9.3379716"><ele>855.0</ele><time>2026-05-02T10:37:25.181Z</time></trkpt><trkpt lat="40.4100196" lon="9.338142"><ele>855.0</ele><time>2026-05-02T10:37:26.181Z</time></trkpt><trkpt lat="40.4099476" lon="9.3382894"><ele>855.0</ele><time>2026-05-02T10:37:27.181Z</time></trkpt><trkpt lat="40.4098524" lon="9.3384121"><ele>855.0</ele><time>2026-05-02T10:37:28.18Z</time></trkpt><trkpt lat="40.4097372" lon="9.3384984"><ele>855.0</ele><time>2026-05-02T10:37:29.181Z</time></trkpt><trkpt lat="40.4096058" lon="9.3385535"><ele>855.0</ele><time>2026-05-02T10:37:30.18Z</time></trkpt><trkpt lat="40.4094645" lon="9.3386038"><ele>855.0</ele><time>2026-05-02T10:37:31.18Z</time></trkpt><trkpt lat="40.4093199" lon="9.3386615"><ele>855.0</ele><time>2026-05-02T10:37:32.181Z</time></trkpt><trkpt lat="40.4091822" lon="9.3387431"><ele>855.0</ele><time>2026-05-02T10:37:33.18Z</time></trkpt><trkpt lat="40.4090541" lon="9.3388489"><ele>855.0</ele><time>2026-05-02T10:37:34.181Z</time></trkpt><trkpt lat="40.4089412" lon="9.3389795"><ele>855.75</ele><time>2026-05-02T10:37:35.18Z</time></trkpt><trkpt lat="40.4088447" lon="9.3391343"><ele>856.5</ele><time>2026-05-02T10:37:36.18Z</time></trkpt><trkpt lat="40.4087617" lon="9.339296"><ele>857.25</ele><time>2026-05-02T10:37:37.18Z</time></trkpt><trkpt lat="40.4086935" lon="9.3394523"><ele>858.0</ele><time>2026-05-02T10:37:38.18Z</time></trkpt><trkpt lat="40.4086501" lon="9.3396186"><ele>859.0</ele><time>2026-05-02T10:37:39.181Z</time></trkpt><trkpt lat="40.4086309" lon="9.3397913"><ele>860.0</ele><time>2026-05-02T10:37:40.181Z</time></trkpt><trkpt lat="40.4086458" lon="9.3399636"><ele>861.0</ele><time>2026-05-02T10:37:41.18Z</time></trkpt><trkpt lat="40.4086937" lon="9.3401297"><ele>862.0</ele><time>2026-05-02T10:37:42.181Z</time></trkpt><trkpt lat="40.4087696" lon="9.3402834"><ele>862.3333333333333</ele><time>2026-05-02T10:37:43.181Z</time></trkpt><trkpt lat="40.4088646" lon="9.3404277"><ele>862.6666666666667</ele><time>2026-05-02T10:37:44.18Z</time></trkpt><trkpt lat="40.408968" lon="9.3405752"><ele>863.0</ele><time>2026-05-02T10:37:45.18Z</time></trkpt><trkpt lat="40.4090736" lon="9.3407307"><ele>863.0</ele><time>2026-05-02T10:37:46.18Z</time></trkpt><trkpt lat="40.4091599" lon="9.340908"><ele>863.0</ele><time>2026-05-02T10:37:47.181Z</time></trkpt><trkpt lat="40.4092248" lon="9.3411016"><ele>863.0</ele><time>2026-05-02T10:37:48.181Z</time></trkpt><trkpt lat="40.4092738" lon="9.3413072"><ele>862.3333333333334</ele><time>2026-05-02T10:37:49.181Z</time></trkpt><trkpt lat="40.4093264" lon="9.3415205"><ele>861.6666666666667</ele><time>2026-05-02T10:37:50.181Z</time></trkpt><trkpt lat="40.4093919" lon="9.3417388"><ele>861.0</ele><time>2026-05-02T10:37:51.181Z</time></trkpt><trkpt lat="40.4094663" lon="9.341949"><ele>861.0</ele><time>2026-05-02T10:37:52.18Z</time></trkpt><trkpt lat="40.4095466" lon="9.3421562"><ele>861.0</ele><time>2026-05-02T10:37:53.181Z</time></trkpt><trkpt lat="40.4096296" lon="9.3423538"><ele>861.0</ele><time>2026-05-02T10:37:54.18Z</time></trkpt><trkpt lat="40.4097178" lon="9.342534"><ele>863.75</ele><time>2026-05-02T10:37:55.18Z</time></trkpt><trkpt lat="40.4098186" lon="9.3426882"><ele>866.5</ele><time>2026-05-02T10:37:56.181Z</time></trkpt><trkpt lat="40.4099331" lon="9.3428036"><ele>869.25</ele><time>2026-05-02T10:37:57.18Z</time></trkpt><trkpt lat="40.4100592" lon="9.3428975"><ele>872.0</ele><time>2026-05-02T10:37:58.181Z</time></trkpt><trkpt lat="40.410194" lon="9.3429746"><ele>872.0</ele><time>2026-05-02T10:37:59.18Z</time></trkpt><trkpt lat="40.4103323" lon="9.3430449"><ele>872.0</ele><time>2026-05-02T10:38:00.18Z</time></trkpt><trkpt lat="40.4104697" lon="9.3431289"><ele>872.0</ele><time>2026-05-02T10:38:01.181Z</time></trkpt><trkpt lat="40.4105955" lon="9.3432495"><ele>871.6666666666667</ele><time>2026-05-02T10:38:02.18Z</time></trkpt><trkpt lat="40.4107097" lon="9.343393"><ele>871.3333333333333</ele><time>2026-05-02T10:38:03.181Z</time></trkpt><trkpt lat="40.4108172" lon="9.3435552"><ele>871.0</ele><time>2026-05-02T10:38:04.181Z</time></trkpt><trkpt lat="40.4109308" lon="9.3437241"><ele>867.6666666666666</ele><time>2026-05-02T10:38:05.18Z</time></trkpt><trkpt lat="40.4110552" lon="9.3438956"><ele>864.3333333333333</ele><time>2026-05-02T10:38:06.18Z</time></trkpt><trkpt lat="40.4111823" lon="9.3440747"><ele>861.0</ele><time>2026-05-02T10:38:07.181Z</time></trkpt><trkpt lat="40.4113002" lon="9.3442572"><ele>863.6666666666667</ele><time>2026-05-02T10:38:08.181Z</time></trkpt><trkpt lat="40.4113951" lon="9.3444518"><ele>866.3333333333334</ele><time>2026-05-02T10:38:09.181Z</time></trkpt><trkpt lat="40.4114727" lon="9.3446484"><ele>869.0</ele><time>2026-05-02T10:38:10.18Z</time></trkpt><trkpt lat="40.4115456" lon="9.3448478"><ele>869.0</ele><time>2026-05-02T10:38:11.18Z</time></trkpt><trkpt lat="40.4116216" lon="9.3450368"><ele>869.0</ele><time>2026-05-02T10:38:12.181Z</time></trkpt><trkpt lat="40.4117008" lon="9.3452143"><ele>869.0</ele><time>2026-05-02T10:38:13.181Z</time></trkpt><trkpt lat="40.4117871" lon="9.3453903"><ele>868.75</ele><time>2026-05-02T10:38:14.18Z</time></trkpt><trkpt lat="40.4118707" lon="9.3455539"><ele>868.5</ele><time>2026-05-02T10:38:15.18Z</time></trkpt><trkpt lat="40.4119495" lon="9.3457114"><ele>868.25</ele><time>2026-05-02T10:38:16.18Z</time></trkpt><trkpt lat="40.4120112" lon="9.3458702"><ele>868.0</ele><time>2026-05-02T10:38:17.181Z</time></trkpt><trkpt lat="40.4120382" lon="9.3460377"><ele>868.0</ele><time>2026-05-02T10:38:18.18Z</time></trkpt><trkpt lat="40.4120234" lon="9.3462004"><ele>868.0</ele><time>2026-05-02T10:38:19.181Z</time></trkpt><trkpt lat="40.4119747" lon="9.3463563"><ele>868.0</ele><time>2026-05-02T10:38:20.181Z</time></trkpt><trkpt lat="40.4119051" lon="9.346504"><ele>868.0</ele><time>2026-05-02T10:38:21.181Z</time></trkpt><trkpt lat="40.411825" lon="9.3466521"><ele>867.75</ele><time>2026-05-02T10:38:22.181Z</time></trkpt><trkpt lat="40.4117469" lon="9.3468042"><ele>867.5</ele><time>2026-05-02T10:38:23.18Z</time></trkpt><trkpt lat="40.4116722" lon="9.3469479"><ele>867.25</ele><time>2026-05-02T10:38:24.18Z</time></trkpt><trkpt lat="40.4115977" lon="9.3470888"><ele>867.0</ele><time>2026-05-02T10:38:25.18Z</time></trkpt><trkpt lat="40.4115235" lon="9.3472286"><ele>867.0</ele><time>2026-05-02T10:38:26.18Z</time></trkpt><trkpt lat="40.4114531" lon="9.3473702"><ele>867.0</ele><time>2026-05-02T10:38:27.181Z</time></trkpt><trkpt lat="40.4113982" lon="9.347517"><ele>867.0</ele><time>2026-05-02T10:38:28.18Z</time></trkpt><trkpt lat="40.4113728" lon="9.3476713"><ele>867.0</ele><time>2026-05-02T10:38:29.181Z</time></trkpt><trkpt lat="40.4113805" lon="9.3478294"><ele>867.0</ele><time>2026-05-02T10:38:30.181Z</time></trkpt><trkpt lat="40.4114093" lon="9.3479882"><ele>867.0</ele><time>2026-05-02T10:38:31.18Z</time></trkpt><trkpt lat="40.4114401" lon="9.34815"><ele>867.0</ele><time>2026-05-02T10:38:32.18Z</time></trkpt><trkpt lat="40.4114445" lon="9.3483251"><ele>867.0</ele><time>2026-05-02T10:38:33.181Z</time></trkpt><trkpt lat="40.4114341" lon="9.3485071"><ele>869.0</ele><time>2026-05-02T10:38:34.181Z</time></trkpt><trkpt lat="40.4114139" lon="9.3486955"><ele>871.0</ele><time>2026-05-02T10:38:35.18Z</time></trkpt><trkpt lat="40.4113873" lon="9.3488894"><ele>873.0</ele><time>2026-05-02T10:38:36.181Z</time></trkpt><trkpt lat="40.4113586" lon="9.3490907"><ele>873.0</ele><time>2026-05-02T10:38:37.181Z</time></trkpt><trkpt lat="40.4113259" lon="9.3492967"><ele>873.0</ele><time>2026-05-02T10:38:38.18Z</time></trkpt><trkpt lat="40.4112897" lon="9.3495062"><ele>873.0</ele><time>2026-05-02T10:38:39.181Z</time></trkpt><trkpt lat="40.4112464" lon="9.3497191"><ele>872.0</ele><time>2026-05-02T10:38:40.181Z</time></trkpt><trkpt lat="40.4111996" lon="9.3499362"><ele>871.0</ele><time>2026-05-02T10:38:41.18Z</time></trkpt><trkpt lat="40.41115" lon="9.3501586"><ele>870.0</ele><time>2026-05-02T10:38:42.181Z</time></trkpt><trkpt lat="40.4110972" lon="9.3503843"><ele>870.0</ele><time>2026-05-02T10:38:43.18Z</time></trkpt><trkpt lat="40.4110425" lon="9.3506139"><ele>870.0</ele><time>2026-05-02T10:38:44.181Z</time></trkpt><trkpt lat="40.4109871" lon="9.3508436"><ele>870.0</ele><time>2026-05-02T10:38:45.18Z</time></trkpt><trkpt lat="40.4109353" lon="9.3510602"><ele>870.0</ele><time>2026-05-02T10:38:46.18Z</time></trkpt><trkpt lat="40.4108892" lon="9.3512561"><ele>870.0</ele><time>2026-05-02T10:38:47.18Z</time></trkpt><trkpt lat="40.4108494" lon="9.3514311"><ele>870.0</ele><time>2026-05-02T10:38:48.181Z</time></trkpt><trkpt lat="40.4108212" lon="9.3515929"><ele>870.0</ele><time>2026-05-02T10:38:49.18Z</time></trkpt><trkpt lat="40.4108206" lon="9.3517446"><ele>870.2</ele><time>2026-05-02T10:38:50.18Z</time></trkpt><trkpt lat="40.4108514" lon="9.3518819"><ele>870.4</ele><time>2026-05-02T10:38:51.181Z</time></trkpt><trkpt lat="40.4109108" lon="9.3520012"><ele>870.5999999999999</ele><time>2026-05-02T10:38:52.181Z</time></trkpt><trkpt lat="40.4109928" lon="9.3520972"><ele>870.8</ele><time>2026-05-02T10:38:53.181Z</time></trkpt><trkpt lat="40.4110855" lon="9.3521916"><ele>871.0</ele><time>2026-05-02T10:38:54.18Z</time></trkpt><trkpt lat="40.4111598" lon="9.3523124"><ele>870.5</ele><time>2026-05-02T10:38:55.181Z</time></trkpt><trkpt lat="40.4112077" lon="9.3524616"><ele>870.0</ele><time>2026-05-02T10:38:56.18Z</time></trkpt><trkpt lat="40.411224" lon="9.3526259"><ele>869.5</ele><time>2026-05-02T10:38:57.18Z</time></trkpt><trkpt lat="40.4112234" lon="9.3527955"><ele>869.0</ele><time>2026-05-02T10:38:58.18Z</time></trkpt><trkpt lat="40.4112174" lon="9.352956"><ele>868.5</ele><time>2026-05-02T10:38:59.18Z</time></trkpt><trkpt lat="40.4112124" lon="9.3531178"><ele>868.0</ele><time>2026-05-02T10:39:00.18Z</time></trkpt><trkpt lat="40.4112182" lon="9.3532865"><ele>867.5</ele><time>2026-05-02T10:39:01.18Z</time></trkpt><trkpt lat="40.411231" lon="9.3534559"><ele>867.0</ele><time>2026-05-02T10:39:02.18Z</time></trkpt><trkpt lat="40.4112488" lon="9.3536292"><ele>867.0</ele><time>2026-05-02T10:39:03.18Z</time></trkpt><trkpt lat="40.411268" lon="9.3538101"><ele>867.0</ele><time>2026-05-02T10:39:04.18Z</time></trkpt><trkpt lat="40.4112868" lon="9.3539998"><ele>867.0</ele><time>2026-05-02T10:39:05.181Z</time></trkpt><trkpt lat="40.4113045" lon="9.3541946"><ele>867.0</ele><time>2026-05-02T10:39:06.181Z</time></trkpt><trkpt lat="40.4113239" lon="9.354395"><ele>867.0</ele><time>2026-05-02T10:39:07.181Z</time></trkpt><trkpt lat="40.4113477" lon="9.354609"><ele>867.0</ele><time>2026-05-02T10:39:08.18Z</time></trkpt><trkpt lat="40.411368" lon="9.35482"><ele>867.0</ele><time>2026-05-02T10:39:09.18Z</time></trkpt><trkpt lat="40.4113915" lon="9.3550256"><ele>867.0</ele><time>2026-05-02T10:39:10.181Z</time></trkpt><trkpt lat="40.4114378" lon="9.3552143"><ele>867.0</ele><time>2026-05-02T10:39:11.18Z</time></trkpt><trkpt lat="40.4115154" lon="9.3553699"><ele>867.0</ele><time>2026-05-02T10:39:12.181Z</time></trkpt><trkpt lat="40.411613" lon="9.3554975"><ele>867.0</ele><time>2026-05-02T10:39:13.181Z</time></trkpt><trkpt lat="40.4117266" lon="9.3556146"><ele>866.3333333333333</ele><time>2026-05-02T10:39:14.18Z</time></trkpt><trkpt lat="40.4118584" lon="9.3557294"><ele>865.6666666666666</ele><time>2026-05-02T10:39:15.181Z</time></trkpt><trkpt lat="40.4119924" lon="9.3558564"><ele>865.0</ele><time>2026-05-02T10:39:16.181Z</time></trkpt><trkpt lat="40.412132" lon="9.3559849"><ele>865.3333333333333</ele><time>2026-05-02T10:39:17.18Z</time></trkpt><trkpt lat="40.4122626" lon="9.3561039"><ele>865.6666666666667</ele><time>2026-05-02T10:39:18.181Z</time></trkpt><trkpt lat="40.4123898" lon="9.3562175"><ele>866.0</ele><time>2026-05-02T10:39:19.181Z</time></trkpt><trkpt lat="40.4125118" lon="9.3563264"><ele>865.25</ele><time>2026-05-02T10:39:20.18Z</time></trkpt><trkpt lat="40.4126286" lon="9.3564323"><ele>864.5</ele><time>2026-05-02T10:39:21.181Z</time></trkpt><trkpt lat="40.4127458" lon="9.3565376"><ele>863.75</ele><time>2026-05-02T10:39:22.181Z</time></trkpt><trkpt lat="40.4128653" lon="9.3566452"><ele>863.0</ele><time>2026-05-02T10:39:23.18Z</time></trkpt><trkpt lat="40.4129851" lon="9.3567539"><ele>863.0</ele><time>2026-05-02T10:39:24.18Z</time></trkpt><trkpt lat="40.4131003" lon="9.3568569"><ele>863.0</ele><time>2026-05-02T10:39:25.181Z</time></trkpt><trkpt lat="40.4132089" lon="9.3569603"><ele>863.0</ele><time>2026-05-02T10:39:26.18Z</time></trkpt><trkpt lat="40.4133127" lon="9.3570681"><ele>863.0</ele><time>2026-05-02T10:39:27.181Z</time></trkpt><trkpt lat="40.4134086" lon="9.3571905"><ele>862.5</ele><time>2026-05-02T10:39:28.18Z</time></trkpt><trkpt lat="40.4134865" lon="9.3573313"><ele>862.0</ele><time>2026-05-02T10:39:29.18Z</time></trkpt><trkpt lat="40.4135353" lon="9.3574798"><ele>861.5</ele><time>2026-05-02T10:39:30.18Z</time></trkpt><trkpt lat="40.4135776" lon="9.3576119"><ele>861.0</ele><time>2026-05-02T10:39:31.18Z</time></trkpt><trkpt lat="40.4136162" lon="9.3577315"><ele>861.0</ele><time>2026-05-02T10:39:32.18Z</time></trkpt><trkpt lat="40.4136569" lon="9.3578495"><ele>860.9999999999999</ele><time>2026-05-02T10:39:33.181Z</time></trkpt><trkpt lat="40.4136911" lon="9.3579739"><ele>860.9999999999999</ele><time>2026-05-02T10:39:34.181Z</time></trkpt><trkpt lat="40.4137134" lon="9.3581065"><ele>861.0</ele><time>2026-05-02T10:39:35.18Z</time></trkpt><trkpt lat="40.4137145" lon="9.3582479"><ele>861.0</ele><time>2026-05-02T10:39:36.18Z</time></trkpt><trkpt lat="40.4136996" lon="9.3583976"><ele>859.5</ele><time>2026-05-02T10:39:37.18Z</time></trkpt><trkpt lat="40.4136752" lon="9.3585547"><ele>858.0</ele><time>2026-05-02T10:39:38.181Z</time></trkpt><trkpt lat="40.4136519" lon="9.358721"><ele>856.5</ele><time>2026-05-02T10:39:39.18Z</time></trkpt><trkpt lat="40.4136273" lon="9.3588993"><ele>855.0</ele><time>2026-05-02T10:39:40.181Z</time></trkpt><trkpt lat="40.4135992" lon="9.359087"><ele>855.0</ele><time>2026-05-02T10:39:41.18Z</time></trkpt><trkpt lat="40.4135692" lon="9.359284"><ele>855.0</ele><time>2026-05-02T10:39:42.18Z</time></trkpt><trkpt lat="40.4135424" lon="9.3594773"><ele>855.0</ele><time>2026-05-02T10:39:43.18Z</time></trkpt><trkpt lat="40.4135068" lon="9.3596639"><ele>855.0</ele><time>2026-05-02T10:39:44.18Z</time></trkpt><trkpt lat="40.4134562" lon="9.3598384"><ele>854.75</ele><time>2026-05-02T10:39:45.18Z</time></trkpt><trkpt lat="40.4133765" lon="9.3599917"><ele>854.5</ele><time>2026-05-02T10:39:46.181Z</time></trkpt><trkpt lat="40.4132802" lon="9.3601305"><ele>854.25</ele><time>2026-05-02T10:39:47.18Z</time></trkpt><trkpt lat="40.413164" lon="9.3602476"><ele>854.0</ele><time>2026-05-02T10:39:48.18Z</time></trkpt><trkpt lat="40.4130485" lon="9.3603719"><ele>849.0</ele><time>2026-05-02T10:39:49.181Z</time></trkpt><trkpt lat="40.4129514" lon="9.3605253"><ele>844.0</ele><time>2026-05-02T10:39:50.181Z</time></trkpt><trkpt lat="40.4128736" lon="9.360702"><ele>839.0</ele><time>2026-05-02T10:39:51.181Z</time></trkpt><trkpt lat="40.4128123" lon="9.360893"><ele>838.5</ele><time>2026-05-02T10:39:52.181Z</time></trkpt><trkpt lat="40.4127734" lon="9.3610843"><ele>838.0</ele><time>2026-05-02T10:39:53.181Z</time></trkpt><trkpt lat="40.4127575" lon="9.3612749"><ele>837.5</ele><time>2026-05-02T10:39:54.181Z</time></trkpt><trkpt lat="40.4127693" lon="9.3614643"><ele>837.0</ele><time>2026-05-02T10:39:55.18Z</time></trkpt><trkpt lat="40.412809" lon="9.3616552"><ele>836.0</ele><time>2026-05-02T10:39:56.181Z</time></trkpt><trkpt lat="40.4128672" lon="9.3618482"><ele>835.0</ele><time>2026-05-02T10:39:57.181Z</time></trkpt><trkpt lat="40.4129358" lon="9.3620411"><ele>834.0</ele><time>2026-05-02T10:39:58.18Z</time></trkpt><trkpt lat="40.4130106" lon="9.3622215"><ele>836.5</ele><time>2026-05-02T10:39:59.18Z</time></trkpt><trkpt lat="40.413082" lon="9.3623814"><ele>839.0</ele><time>2026-05-02T10:40:00.18Z</time></trkpt><trkpt lat="40.4131576" lon="9.362506"><ele>841.5</ele><time>2026-05-02T10:40:01.181Z</time></trkpt><trkpt lat="40.4132553" lon="9.3625855"><ele>844.0</ele><time>2026-05-02T10:40:02.181Z</time></trkpt><trkpt lat="40.4133674" lon="9.3626166"><ele>844.0</ele><time>2026-05-02T10:40:03.181Z</time></trkpt><trkpt lat="40.4134904" lon="9.3626131"><ele>844.0</ele><time>2026-05-02T10:40:04.18Z</time></trkpt><trkpt lat="40.4136243" lon="9.3625883"><ele>844.0</ele><time>2026-05-02T10:40:05.181Z</time></trkpt><trkpt lat="40.4137571" lon="9.3625635"><ele>844.0</ele><time>2026-05-02T10:40:06.18Z</time></trkpt><trkpt lat="40.4138748" lon="9.3625597"><ele>842.4000000000001</ele><time>2026-05-02T10:40:07.18Z</time></trkpt><trkpt lat="40.4139697" lon="9.3625984"><ele>840.8</ele><time>2026-05-02T10:40:08.18Z</time></trkpt><trkpt lat="40.4140309" lon="9.3626772"><ele>839.2</ele><time>2026-05-02T10:40:09.181Z</time></trkpt><trkpt lat="40.4140603" lon="9.3627852"><ele>837.5999999999999</ele><time>2026-05-02T10:40:10.18Z</time></trkpt><trkpt lat="40.4140626" lon="9.3629194"><ele>836.0</ele><time>2026-05-02T10:40:11.18Z</time></trkpt><trkpt lat="40.4140455" lon="9.3630781"><ele>836.0</ele><time>2026-05-02T10:40:12.18Z</time></trkpt><trkpt lat="40.414026" lon="9.3632584"><ele>836.0</ele><time>2026-05-02T10:40:13.181Z</time></trkpt><trkpt lat="40.4140181" lon="9.3634287"><ele>836.0</ele><time>2026-05-02T10:40:14.18Z</time></trkpt><trkpt lat="40.4140355" lon="9.3635946"><ele>836.0</ele><time>2026-05-02T10:40:15.18Z</time></trkpt><trkpt lat="40.4140773" lon="9.3637525"><ele>832.0</ele><time>2026-05-02T10:40:16.18Z</time></trkpt><trkpt lat="40.4141426" lon="9.3638846"><ele>828.0</ele><time>2026-05-02T10:40:17.181Z</time></trkpt><trkpt lat="40.4142331" lon="9.3639818"><ele>824.0</ele><time>2026-05-02T10:40:18.18Z</time></trkpt><trkpt lat="40.4143451" lon="9.3640429"><ele>820.0</ele><time>2026-05-02T10:40:19.181Z</time></trkpt><trkpt lat="40.4144702" lon="9.3640876"><ele>820.0</ele><time>2026-05-02T10:40:20.181Z</time></trkpt><trkpt lat="40.4145886" lon="9.3641688"><ele>820.0</ele><time>2026-05-02T10:40:21.181Z</time></trkpt><trkpt lat="40.4147004" lon="9.3642895"><ele>820.0</ele><time>2026-05-02T10:40:22.18Z</time></trkpt><trkpt lat="40.4148073" lon="9.3644338"><ele>820.0</ele><time>2026-05-02T10:40:23.18Z</time></trkpt><trkpt lat="40.4149082" lon="9.36456"><ele>817.25</ele><time>2026-05-02T10:40:24.181Z</time></trkpt><trkpt lat="40.4150164" lon="9.3646706"><ele>814.5</ele><time>2026-05-02T10:40:25.18Z</time></trkpt><trkpt lat="40.4151311" lon="9.3647526"><ele>811.75</ele><time>2026-05-02T10:40:26.181Z</time></trkpt><trkpt lat="40.4152448" lon="9.3648039"><ele>809.0</ele><time>2026-05-02T10:40:27.181Z</time></trkpt><trkpt lat="40.4153547" lon="9.3648019"><ele>809.0</ele><time>2026-05-02T10:40:28.18Z</time></trkpt><trkpt lat="40.4154678" lon="9.3647598"><ele>809.0</ele><time>2026-05-02T10:40:29.18Z</time></trkpt><trkpt lat="40.4155905" lon="9.3647104"><ele>809.0</ele><time>2026-05-02T10:40:30.18Z</time></trkpt><trkpt lat="40.4157254" lon="9.3646799"><ele>809.0</ele><time>2026-05-02T10:40:31.18Z</time></trkpt><trkpt lat="40.4158722" lon="9.3646547"><ele>810.6666666666667</ele><time>2026-05-02T10:40:32.181Z</time></trkpt><trkpt lat="40.4160366" lon="9.3646205"><ele>812.3333333333333</ele><time>2026-05-02T10:40:33.18Z</time></trkpt><trkpt lat="40.4162026" lon="9.3645573"><ele>814.0</ele><time>2026-05-02T10:40:34.18Z</time></trkpt><trkpt lat="40.4163608" lon="9.3644639"><ele>814.0</ele><time>2026-05-02T10:40:35.18Z</time></trkpt><trkpt lat="40.4165038" lon="9.3643324"><ele>814.0</ele><time>2026-05-02T10:40:36.181Z</time></trkpt><trkpt lat="40.4166246" lon="9.3641701"><ele>814.0</ele><time>2026-05-02T10:40:37.18Z</time></trkpt><trkpt lat="40.4167297" lon="9.3639771"><ele>821.3333333333333</ele><time>2026-05-02T10:40:38.181Z</time></trkpt><trkpt lat="40.4168362" lon="9.3637622"><ele>828.6666666666667</ele><time>2026-05-02T10:40:39.181Z</time></trkpt><trkpt lat="40.416947" lon="9.3635296"><ele>836.0</ele><time>2026-05-02T10:40:40.181Z</time></trkpt><trkpt lat="40.4170493" lon="9.3633141"><ele>836.0</ele><time>2026-05-02T10:40:41.18Z</time></trkpt><trkpt lat="40.417149" lon="9.3631064"><ele>836.0</ele><time>2026-05-02T10:40:42.181Z</time></trkpt><trkpt lat="40.4172432" lon="9.3629156"><ele>836.0</ele><time>2026-05-02T10:40:43.181Z</time></trkpt><trkpt lat="40.4173219" lon="9.3627318"><ele>831.0</ele><time>2026-05-02T10:40:44.18Z</time></trkpt><trkpt lat="40.4173649" lon="9.3625416"><ele>826.0</ele><time>2026-05-02T10:40:45.18Z</time></trkpt><trkpt lat="40.4173792" lon="9.3623437"><ele>821.0</ele><time>2026-05-02T10:40:46.18Z</time></trkpt><trkpt lat="40.4173812" lon="9.3621483"><ele>821.0</ele><time>2026-05-02T10:40:47.18Z</time></trkpt><trkpt lat="40.4173991" lon="9.361966"><ele>821.0</ele><time>2026-05-02T10:40:48.181Z</time></trkpt><trkpt lat="40.4174534" lon="9.3617976"><ele>821.0</ele><time>2026-05-02T10:40:49.18Z</time></trkpt><trkpt lat="40.4175255" lon="9.3616373"><ele>821.0</ele><time>2026-05-02T10:40:50.18Z</time></trkpt><trkpt lat="40.4175941" lon="9.361468"><ele>820.0</ele><time>2026-05-02T10:40:51.18Z</time></trkpt><trkpt lat="40.4176349" lon="9.3612792"><ele>819.0</ele><time>2026-05-02T10:40:52.18Z</time></trkpt><trkpt lat="40.4176484" lon="9.3610783"><ele>818.0</ele><time>2026-05-02T10:40:53.18Z</time></trkpt><trkpt lat="40.4176482" lon="9.3608662"><ele>818.0</ele><time>2026-05-02T10:40:54.18Z</time></trkpt><trkpt lat="40.4176474" lon="9.3606526"><ele>818.0</ele><time>2026-05-02T10:40:55.181Z</time></trkpt><trkpt lat="40.4176503" lon="9.3604608"><ele>818.0</ele><time>2026-05-02T10:40:56.181Z</time></trkpt><trkpt lat="40.4176651" lon="9.360291"><ele>818.0</ele><time>2026-05-02T10:40:57.181Z</time></trkpt><trkpt lat="40.417706" lon="9.3601403"><ele>820.75</ele><time>2026-05-02T10:40:58.181Z</time></trkpt><trkpt lat="40.4177735" lon="9.3600206"><ele>823.5</ele><time>2026-05-02T10:40:59.18Z</time></trkpt><trkpt lat="40.4178405" lon="9.3599051"><ele>826.25</ele><time>2026-05-02T10:41:00.181Z</time></trkpt><trkpt lat="40.4178725" lon="9.3597509"><ele>829.0</ele><time>2026-05-02T10:41:01.181Z</time></trkpt><trkpt lat="40.4178953" lon="9.3595789"><ele>831.75</ele><time>2026-05-02T10:41:02.18Z</time></trkpt><trkpt lat="40.4179225" lon="9.3593902"><ele>834.5</ele><time>2026-05-02T10:41:03.181Z</time></trkpt><trkpt lat="40.4179601" lon="9.3592065"><ele>837.25</ele><time>2026-05-02T10:41:04.18Z</time></trkpt><trkpt lat="40.4180176" lon="9.3590324"><ele>840.0</ele><time>2026-05-02T10:41:05.18Z</time></trkpt><trkpt lat="40.4180972" lon="9.3588771"><ele>837.0</ele><time>2026-05-02T10:41:06.181Z</time></trkpt><trkpt lat="40.4181826" lon="9.3587443"><ele>834.0</ele><time>2026-05-02T10:41:07.181Z</time></trkpt><trkpt lat="40.4182787" lon="9.3586423"><ele>831.0</ele><time>2026-05-02T10:41:08.181Z</time></trkpt><trkpt lat="40.4183966" lon="9.3585785"><ele>828.0</ele><time>2026-05-02T10:41:09.181Z</time></trkpt><trkpt lat="40.4185332" lon="9.358541"><ele>828.0</ele><time>2026-05-02T10:41:10.18Z</time></trkpt><trkpt lat="40.4186834" lon="9.3585251"><ele>828.0</ele><time>2026-05-02T10:41:11.18Z</time></trkpt><trkpt lat="40.4188345" lon="9.3585347"><ele>828.0</ele><time>2026-05-02T10:41:12.18Z</time></trkpt><trkpt lat="40.4189748" lon="9.3585361"><ele>828.0</ele><time>2026-05-02T10:41:13.18Z</time></trkpt><trkpt lat="40.4190999" lon="9.3584872"><ele>826.5</ele><time>2026-05-02T10:41:14.18Z</time></trkpt><trkpt lat="40.4192253" lon="9.3584037"><ele>825.0</ele><time>2026-05-02T10:41:15.18Z</time></trkpt><trkpt lat="40.4193523" lon="9.358303"><ele>823.5</ele><time>2026-05-02T10:41:16.18Z</time></trkpt><trkpt lat="40.4194886" lon="9.358205"><ele>822.0</ele><time>2026-05-02T10:41:17.181Z</time></trkpt><trkpt lat="40.4196339" lon="9.3581217"><ele>822.6666666666667</ele><time>2026-05-02T10:41:18.18Z</time></trkpt><trkpt lat="40.4197815" lon="9.3580425"><ele>823.3333333333334</ele><time>2026-05-02T10:41:19.18Z</time></trkpt><trkpt lat="40.4199223" lon="9.3579304"><ele>824.0</ele><time>2026-05-02T10:41:20.18Z</time></trkpt><trkpt lat="40.4200503" lon="9.3577871"><ele>824.0</ele><time>2026-05-02T10:41:21.181Z</time></trkpt><trkpt lat="40.4201539" lon="9.3576265"><ele>824.0</ele><time>2026-05-02T10:41:22.181Z</time></trkpt><trkpt lat="40.4202353" lon="9.357474"><ele>824.0</ele><time>2026-05-02T10:41:23.18Z</time></trkpt><trkpt lat="40.4203179" lon="9.3573465"><ele>824.0</ele><time>2026-05-02T10:41:24.181Z</time></trkpt><trkpt lat="40.4204238" lon="9.3572634"><ele>824.75</ele><time>2026-05-02T10:41:25.181Z</time></trkpt><trkpt lat="40.4205489" lon="9.3572088"><ele>825.5</ele><time>2026-05-02T10:41:26.18Z</time></trkpt><trkpt lat="40.4206865" lon="9.3571519"><ele>826.25</ele><time>2026-05-02T10:41:27.181Z</time></trkpt><trkpt lat="40.4208336" lon="9.3570556"><ele>827.0</ele><time>2026-05-02T10:41:28.18Z</time></trkpt><trkpt lat="40.42098" lon="9.3569526"><ele>827.0</ele><time>2026-05-02T10:41:29.18Z</time></trkpt><trkpt lat="40.4211185" lon="9.356869"><ele>827.0</ele><time>2026-05-02T10:41:30.18Z</time></trkpt><trkpt lat="40.421259" lon="9.3568152"><ele>827.0</ele><time>2026-05-02T10:41:31.181Z</time></trkpt><trkpt lat="40.4213995" lon="9.356781"><ele>827.0</ele><time>2026-05-02T10:41:32.18Z</time></trkpt><trkpt lat="40.4215411" lon="9.3567536"><ele>825.25</ele><time>2026-05-02T10:41:33.181Z</time></trkpt><trkpt lat="40.4216698" lon="9.3567364"><ele>823.5</ele><time>2026-05-02T10:41:34.181Z</time></trkpt><trkpt lat="40.421786" lon="9.356769"><ele>821.75</ele><time>2026-05-02T10:41:35.18Z</time></trkpt><trkpt lat="40.4218804" lon="9.3568542"><ele>820.0</ele><time>2026-05-02T10:41:36.18Z</time></trkpt><trkpt lat="40.4219506" lon="9.3569833"><ele>820.0</ele><time>2026-05-02T10:41:37.181Z</time></trkpt><trkpt lat="40.4220161" lon="9.3571418"><ele>820.0</ele><time>2026-05-02T10:41:38.18Z</time></trkpt><trkpt lat="40.4220784" lon="9.357316"><ele>820.0</ele><time>2026-05-02T10:41:39.181Z</time></trkpt><trkpt lat="40.4221215" lon="9.357497"><ele>820.0</ele><time>2026-05-02T10:41:40.18Z</time></trkpt><trkpt lat="40.4221529" lon="9.3576707"><ele>821.25</ele><time>2026-05-02T10:41:41.18Z</time></trkpt><trkpt lat="40.4221999" lon="9.3578259"><ele>822.5</ele><time>2026-05-02T10:41:42.181Z</time></trkpt><trkpt lat="40.4222876" lon="9.3579562"><ele>823.75</ele><time>2026-05-02T10:41:43.18Z</time></trkpt><trkpt lat="40.4224021" lon="9.3580538"><ele>825.0</ele><time>2026-05-02T10:41:44.181Z</time></trkpt><trkpt lat="40.4225205" lon="9.3581105"><ele>821.4</ele><time>2026-05-02T10:41:45.18Z</time></trkpt><trkpt lat="40.4226257" lon="9.358181"><ele>817.8</ele><time>2026-05-02T10:41:46.18Z</time></trkpt><trkpt lat="40.4226988" lon="9.358288"><ele>814.2</ele><time>2026-05-02T10:41:47.181Z</time></trkpt><trkpt lat="40.4227329" lon="9.3584178"><ele>810.6</ele><time>2026-05-02T10:41:48.18Z</time></trkpt><trkpt lat="40.4227323" lon="9.3585641"><ele>807.0</ele><time>2026-05-02T10:41:49.181Z</time></trkpt><trkpt lat="40.4227302" lon="9.3587375"><ele>804.5</ele><time>2026-05-02T10:41:50.18Z</time></trkpt><trkpt lat="40.4227436" lon="9.3589184"><ele>802.0</ele><time>2026-05-02T10:41:51.181Z</time></trkpt><trkpt lat="40.4227818" lon="9.3591035"><ele>799.5</ele><time>2026-05-02T10:41:52.181Z</time></trkpt><trkpt lat="40.4228587" lon="9.3592744"><ele>797.0</ele><time>2026-05-02T10:41:53.181Z</time></trkpt><trkpt lat="40.4229583" lon="9.3594071"><ele>802.0</ele><time>2026-05-02T10:41:54.18Z</time></trkpt><trkpt lat="40.4230764" lon="9.3594805"><ele>807.0</ele><time>2026-05-02T10:41:55.18Z</time></trkpt><trkpt lat="40.4232028" lon="9.359503"><ele>812.0</ele><time>2026-05-02T10:41:56.181Z</time></trkpt><trkpt lat="40.4233327" lon="9.3594615"><ele>817.0</ele><time>2026-05-02T10:41:57.18Z</time></trkpt><trkpt lat="40.4234647" lon="9.3593932"><ele>817.0</ele><time>2026-05-02T10:41:58.181Z</time></trkpt><trkpt lat="40.4235906" lon="9.3593359"><ele>817.0</ele><time>2026-05-02T10:41:59.18Z</time></trkpt><trkpt lat="40.4237151" lon="9.3592988"><ele>817.0</ele><time>2026-05-02T10:42:00.18Z</time></trkpt><trkpt lat="40.4238434" lon="9.3593061"><ele>817.0</ele><time>2026-05-02T10:42:01.18Z</time></trkpt><trkpt lat="40.4239695" lon="9.3593663"><ele>818.0</ele><time>2026-05-02T10:42:02.181Z</time></trkpt><trkpt lat="40.4240851" lon="9.3594756"><ele>819.0</ele><time>2026-05-02T10:42:03.18Z</time></trkpt><trkpt lat="40.4241967" lon="9.3596166"><ele>820.0</ele><time>2026-05-02T10:42:04.181Z</time></trkpt><trkpt lat="40.4243209" lon="9.3597631"><ele>818.3333333333333</ele><time>2026-05-02T10:42:05.181Z</time></trkpt><trkpt lat="40.4244576" lon="9.3599091"><ele>816.6666666666667</ele><time>2026-05-02T10:42:06.181Z</time></trkpt><trkpt lat="40.4245946" lon="9.3600622"><ele>815.0</ele><time>2026-05-02T10:42:07.181Z</time></trkpt><trkpt lat="40.4247175" lon="9.3602019"><ele>815.0</ele><time>2026-05-02T10:42:08.181Z</time></trkpt><trkpt lat="40.4248397" lon="9.3603047"><ele>815.0</ele><time>2026-05-02T10:42:09.18Z</time></trkpt><trkpt lat="40.4249732" lon="9.3603575"><ele>815.0</ele><time>2026-05-02T10:42:10.181Z</time></trkpt><trkpt lat="40.4251138" lon="9.3603546"><ele>815.0</ele><time>2026-05-02T10:42:11.18Z</time></trkpt><trkpt lat="40.4252577" lon="9.360309"><ele>815.0</ele><time>2026-05-02T10:42:12.18Z</time></trkpt><trkpt lat="40.4254087" lon="9.3602564"><ele>815.0</ele><time>2026-05-02T10:42:13.181Z</time></trkpt><trkpt lat="40.4255506" lon="9.360212"><ele>815.0</ele><time>2026-05-02T10:42:14.18Z</time></trkpt><trkpt lat="40.4256838" lon="9.3601945"><ele>815.0</ele><time>2026-05-02T10:42:15.18Z</time></trkpt><trkpt lat="40.4258073" lon="9.3602446"><ele>814.75</ele><time>2026-05-02T10:42:16.18Z</time></trkpt><trkpt lat="40.4259187" lon="9.36033"><ele>814.5</ele><time>2026-05-02T10:42:17.18Z</time></trkpt><trkpt lat="40.4260212" lon="9.3604314"><ele>814.25</ele><time>2026-05-02T10:42:18.181Z</time></trkpt><trkpt lat="40.4261378" lon="9.3605007"><ele>814.0</ele><time>2026-05-02T10:42:19.18Z</time></trkpt><trkpt lat="40.4262828" lon="9.3605043"><ele>813.0</ele><time>2026-05-02T10:42:20.18Z</time></trkpt><trkpt lat="40.4264407" lon="9.3605017"><ele>812.0</ele><time>2026-05-02T10:42:21.181Z</time></trkpt><trkpt lat="40.4266127" lon="9.3604902"><ele>811.0</ele><time>2026-05-02T10:42:22.181Z</time></trkpt><trkpt lat="40.4267916" lon="9.3604786"><ele>811.0</ele><time>2026-05-02T10:42:23.18Z</time></trkpt><trkpt lat="40.4269715" lon="9.3604404"><ele>811.0</ele><time>2026-05-02T10:42:24.181Z</time></trkpt><trkpt lat="40.4271514" lon="9.3603612"><ele>811.0</ele><time>2026-05-02T10:42:25.18Z</time></trkpt><trkpt lat="40.4273241" lon="9.360257"><ele>809.3333333333333</ele><time>2026-05-02T10:42:26.18Z</time></trkpt><trkpt lat="40.4274879" lon="9.3601494"><ele>807.6666666666667</ele><time>2026-05-02T10:42:27.18Z</time></trkpt><trkpt lat="40.4276409" lon="9.3600528"><ele>806.0</ele><time>2026-05-02T10:42:28.181Z</time></trkpt><trkpt lat="40.4277777" lon="9.3599483"><ele>806.0</ele><time>2026-05-02T10:42:29.18Z</time></trkpt><trkpt lat="40.4278851" lon="9.3598174"><ele>806.0</ele><time>2026-05-02T10:42:30.181Z</time></trkpt><trkpt lat="40.4279556" lon="9.359654"><ele>806.0</ele><time>2026-05-02T10:42:31.181Z</time></trkpt><trkpt lat="40.4280019" lon="9.3594918"><ele>806.0</ele><time>2026-05-02T10:42:32.181Z</time></trkpt><trkpt lat="40.4280662" lon="9.3593672"><ele>806.5</ele><time>2026-05-02T10:42:33.18Z</time></trkpt><trkpt lat="40.4281624" lon="9.3592846"><ele>807.0</ele><time>2026-05-02T10:42:34.18Z</time></trkpt><trkpt lat="40.4282721" lon="9.3592688"><ele>807.5</ele><time>2026-05-02T10:42:35.18Z</time></trkpt><trkpt lat="40.4283885" lon="9.3593073"><ele>808.0</ele><time>2026-05-02T10:42:36.181Z</time></trkpt><trkpt lat="40.4285027" lon="9.3593918"><ele>808.0</ele><time>2026-05-02T10:42:37.181Z</time></trkpt><trkpt lat="40.4286083" lon="9.3595169"><ele>808.0</ele><time>2026-05-02T10:42:38.181Z</time></trkpt><trkpt lat="40.4287051" lon="9.3596714"><ele>808.0</ele><time>2026-05-02T10:42:39.18Z</time></trkpt><trkpt lat="40.4288176" lon="9.3598247"><ele>804.0</ele><time>2026-05-02T10:42:40.18Z</time></trkpt><trkpt lat="40.4289579" lon="9.3599539"><ele>800.0</ele><time>2026-05-02T10:42:41.18Z</time></trkpt><trkpt lat="40.4291068" lon="9.3600593"><ele>796.0</ele><time>2026-05-02T10:42:42.181Z</time></trkpt><trkpt lat="40.4292472" lon="9.3601504"><ele>796.0</ele><time>2026-05-02T10:42:43.18Z</time></trkpt><trkpt lat="40.4293867" lon="9.3602173"><ele>796.0</ele><time>2026-05-02T10:42:44.181Z</time></trkpt><trkpt lat="40.4295318" lon="9.3602271"><ele>796.0</ele><time>2026-05-02T10:42:45.181Z</time></trkpt><trkpt lat="40.4296771" lon="9.3601943"><ele>796.0</ele><time>2026-05-02T10:42:46.181Z</time></trkpt><trkpt lat="40.4298249" lon="9.3601396"><ele>797.6666666666666</ele><time>2026-05-02T10:42:47.181Z</time></trkpt><trkpt lat="40.4299831" lon="9.3601261"><ele>799.3333333333333</ele><time>2026-05-02T10:42:48.18Z</time></trkpt><trkpt lat="40.4301482" lon="9.3601528"><ele>801.0</ele><time>2026-05-02T10:42:49.18Z</time></trkpt><trkpt lat="40.4303169" lon="9.36019"><ele>801.0</ele><time>2026-05-02T10:42:50.181Z</time></trkpt><trkpt lat="40.4304667" lon="9.3602299"><ele>801.0</ele><time>2026-05-02T10:42:51.18Z</time></trkpt><trkpt lat="40.4305896" lon="9.3602925"><ele>801.0</ele><time>2026-05-02T10:42:52.181Z</time></trkpt><trkpt lat="40.4306836" lon="9.3604043"><ele>801.0</ele><time>2026-05-02T10:42:53.18Z</time></trkpt><trkpt lat="40.4307516" lon="9.3605425"><ele>796.25</ele><time>2026-05-02T10:42:54.181Z</time></trkpt><trkpt lat="40.4308306" lon="9.3606849"><ele>791.5</ele><time>2026-05-02T10:42:55.181Z</time></trkpt><trkpt lat="40.430939" lon="9.3607964"><ele>786.75</ele><time>2026-05-02T10:42:56.181Z</time></trkpt><trkpt lat="40.4310563" lon="9.3608478"><ele>782.0</ele><time>2026-05-02T10:42:57.18Z</time></trkpt><trkpt lat="40.4311812" lon="9.3608333"><ele>782.0</ele><time>2026-05-02T10:42:58.181Z</time></trkpt><trkpt lat="40.4312996" lon="9.36076"><ele>782.0</ele><time>2026-05-02T10:42:59.18Z</time></trkpt><trkpt lat="40.4314194" lon="9.360645"><ele>782.0</ele><time>2026-05-02T10:43:00.181Z</time></trkpt><trkpt lat="40.4315455" lon="9.3605124"><ele>782.0</ele><time>2026-05-02T10:43:01.181Z</time></trkpt><trkpt lat="40.431686" lon="9.3604042"><ele>787.6666666666667</ele><time>2026-05-02T10:43:02.181Z</time></trkpt><trkpt lat="40.4318456" lon="9.3603415"><ele>793.3333333333333</ele><time>2026-05-02T10:43:03.181Z</time></trkpt><trkpt lat="40.4320191" lon="9.3603069"><ele>799.0</ele><time>2026-05-02T10:43:04.181Z</time></trkpt><trkpt lat="40.4322009" lon="9.3602826"><ele>799.0</ele><time>2026-05-02T10:43:05.18Z</time></trkpt><trkpt lat="40.4323774" lon="9.3602839"><ele>799.0</ele><time>2026-05-02T10:43:06.181Z</time></trkpt><trkpt lat="40.4325412" lon="9.3603177"><ele>799.0</ele><time>2026-05-02T10:43:07.18Z</time></trkpt><trkpt lat="40.4326874" lon="9.3603472"><ele>799.0</ele><time>2026-05-02T10:43:08.18Z</time></trkpt><trkpt lat="40.4328222" lon="9.3603315"><ele>799.0</ele><time>2026-05-02T10:43:09.18Z</time></trkpt><trkpt lat="40.4329555" lon="9.3602437"><ele>799.0</ele><time>2026-05-02T10:43:10.18Z</time></trkpt><trkpt lat="40.4330823" lon="9.3601192"><ele>799.0</ele><time>2026-05-02T10:43:11.181Z</time></trkpt><trkpt lat="40.4332021" lon="9.3599692"><ele>797.3333333333333</ele><time>2026-05-02T10:43:12.18Z</time></trkpt><trkpt lat="40.4333134" lon="9.3598154"><ele>795.6666666666667</ele><time>2026-05-02T10:43:13.18Z</time></trkpt><trkpt lat="40.4334247" lon="9.3596813"><ele>794.0</ele><time>2026-05-02T10:43:14.181Z</time></trkpt><trkpt lat="40.4335506" lon="9.3595835"><ele>794.0</ele><time>2026-05-02T10:43:15.18Z</time></trkpt><trkpt lat="40.4336945" lon="9.359526"><ele>794.0</ele><time>2026-05-02T10:43:16.181Z</time></trkpt><trkpt lat="40.4338477" lon="9.3595109"><ele>794.0</ele><time>2026-05-02T10:43:17.181Z</time></trkpt><trkpt lat="40.4340093" lon="9.3595188"><ele>793.5</ele><time>2026-05-02T10:43:18.181Z</time></trkpt><trkpt lat="40.4341678" lon="9.3595299"><ele>793.0</ele><time>2026-05-02T10:43:19.181Z</time></trkpt><trkpt lat="40.4343079" lon="9.3595563"><ele>792.5</ele><time>2026-05-02T10:43:20.18Z</time></trkpt><trkpt lat="40.4344382" lon="9.3596214"><ele>792.0</ele><time>2026-05-02T10:43:21.181Z</time></trkpt><trkpt lat="40.4345504" lon="9.359736"><ele>790.0</ele><time>2026-05-02T10:43:22.181Z</time></trkpt><trkpt lat="40.4346558" lon="9.3598712"><ele>788.0</ele><time>2026-05-02T10:43:23.18Z</time></trkpt><trkpt lat="40.4347759" lon="9.3599918"><ele>786.0</ele><time>2026-05-02T10:43:24.18Z</time></trkpt><trkpt lat="40.4349322" lon="9.3600501"><ele>786.0</ele><time>2026-05-02T10:43:25.18Z</time></trkpt><trkpt lat="40.4351007" lon="9.3600751"><ele>786.0</ele><time>2026-05-02T10:43:26.181Z</time></trkpt><trkpt lat="40.43528" lon="9.3600664"><ele>786.0</ele><time>2026-05-02T10:43:27.18Z</time></trkpt><trkpt lat="40.4354634" lon="9.3600346"><ele>784.0</ele><time>2026-05-02T10:43:28.181Z</time></trkpt><trkpt lat="40.435643" lon="9.3599987"><ele>782.0</ele><time>2026-05-02T10:43:29.18Z</time></trkpt><trkpt lat="40.4358244" lon="9.3599817"><ele>780.0</ele><time>2026-05-02T10:43:30.181Z</time></trkpt><trkpt lat="40.4360125" lon="9.3599875"><ele>780.0</ele><time>2026-05-02T10:43:31.181Z</time></trkpt><trkpt lat="40.4362066" lon="9.3599999"><ele>780.0</ele><time>2026-05-02T10:43:32.18Z</time></trkpt><trkpt lat="40.4364017" lon="9.3600101"><ele>780.0</ele><time>2026-05-02T10:43:33.181Z</time></trkpt><trkpt lat="40.4365877" lon="9.3600174"><ele>779.3333333333333</ele><time>2026-05-02T10:43:34.18Z</time></trkpt><trkpt lat="40.4367639" lon="9.3599926"><ele>778.6666666666666</ele><time>2026-05-02T10:43:35.181Z</time></trkpt><trkpt lat="40.4369216" lon="9.3599063"><ele>778.0</ele><time>2026-05-02T10:43:36.18Z</time></trkpt><trkpt lat="40.4370569" lon="9.3597753"><ele>778.6666666666666</ele><time>2026-05-02T10:43:37.181Z</time></trkpt><trkpt lat="40.4371779" lon="9.3596123"><ele>779.3333333333333</ele><time>2026-05-02T10:43:38.18Z</time></trkpt><trkpt lat="40.4372896" lon="9.3594367"><ele>780.0</ele><time>2026-05-02T10:43:39.18Z</time></trkpt><trkpt lat="40.4374024" lon="9.359255"><ele>780.0</ele><time>2026-05-02T10:43:40.181Z</time></trkpt><trkpt lat="40.4375228" lon="9.3590987"><ele>780.0</ele><time>2026-05-02T10:43:41.181Z</time></trkpt><trkpt lat="40.4376604" lon="9.3589801"><ele>780.0</ele><time>2026-05-02T10:43:42.18Z</time></trkpt><trkpt lat="40.4378154" lon="9.358899"><ele>780.0</ele><time>2026-05-02T10:43:43.18Z</time></trkpt><trkpt lat="40.43798" lon="9.3588741"><ele>780.0</ele><time>2026-05-02T10:43:44.181Z</time></trkpt><trkpt lat="40.4381545" lon="9.3589001"><ele>780.0</ele><time>2026-05-02T10:43:45.181Z</time></trkpt><trkpt lat="40.4383459" lon="9.3589379"><ele>780.0</ele><time>2026-05-02T10:43:46.181Z</time></trkpt><trkpt lat="40.4385228" lon="9.3589704"><ele>780.0</ele><time>2026-05-02T10:43:47.181Z</time></trkpt><trkpt lat="40.4386801" lon="9.3590118"><ele>780.0</ele><time>2026-05-02T10:43:48.18Z</time></trkpt><trkpt lat="40.4388203" lon="9.3590946"><ele>777.75</ele><time>2026-05-02T10:43:49.181Z</time></trkpt><trkpt lat="40.4389348" lon="9.3592248"><ele>775.5</ele><time>2026-05-02T10:43:50.181Z</time></trkpt><trkpt lat="40.4390076" lon="9.3593874"><ele>773.25</ele><time>2026-05-02T10:43:51.181Z</time></trkpt><trkpt lat="40.4390493" lon="9.3595799"><ele>771.0</ele><time>2026-05-02T10:43:52.18Z</time></trkpt><trkpt lat="40.4390558" lon="9.3598101"><ele>771.0</ele><time>2026-05-02T10:43:53.181Z</time></trkpt><trkpt lat="40.4390556" lon="9.3600248"><ele>771.0</ele><time>2026-05-02T10:43:54.181Z</time></trkpt><trkpt lat="40.4390821" lon="9.3601918"><ele>771.0</ele><time>2026-05-02T10:43:55.181Z</time></trkpt><trkpt lat="40.4391583" lon="9.3603236"><ele>771.0</ele><time>2026-05-02T10:43:56.181Z</time></trkpt><trkpt lat="40.4392732" lon="9.3603995"><ele>771.0</ele><time>2026-05-02T10:43:57.181Z</time></trkpt><trkpt lat="40.4394072" lon="9.3604263"><ele>771.0</ele><time>2026-05-02T10:43:58.181Z</time></trkpt><trkpt lat="40.4395418" lon="9.3604795"><ele>771.0</ele><time>2026-05-02T10:43:59.18Z</time></trkpt><trkpt lat="40.4396536" lon="9.3605935"><ele>771.0</ele><time>2026-05-02T10:44:00.18Z</time></trkpt><trkpt lat="40.4397335" lon="9.36076"><ele>768.6666666666666</ele><time>2026-05-02T10:44:01.181Z</time></trkpt><trkpt lat="40.439781" lon="9.3609699"><ele>766.3333333333333</ele><time>2026-05-02T10:44:02.181Z</time></trkpt><trkpt lat="40.4398241" lon="9.361243"><ele>764.0</ele><time>2026-05-02T10:44:03.181Z</time></trkpt><trkpt lat="40.4398592" lon="9.3615321"><ele>764.0</ele><time>2026-05-02T10:44:04.18Z</time></trkpt><trkpt lat="40.4398719" lon="9.3618134"><ele>764.0</ele><time>2026-05-02T10:44:05.18Z</time></trkpt><trkpt lat="40.4398669" lon="9.3621045"><ele>764.0</ele><time>2026-05-02T10:44:06.181Z</time></trkpt><trkpt lat="40.4398463" lon="9.3623491"><ele>763.0</ele><time>2026-05-02T10:44:07.181Z</time></trkpt><trkpt lat="40.439808" lon="9.3625707"><ele>762.0</ele><time>2026-05-02T10:44:08.18Z</time></trkpt><trkpt lat="40.4397289" lon="9.3627615"><ele>761.0</ele><time>2026-05-02T10:44:09.18Z</time></trkpt><trkpt lat="40.4396255" lon="9.3629314"><ele>763.25</ele><time>2026-05-02T10:44:10.181Z</time></trkpt><trkpt lat="40.4395371" lon="9.3630606"><ele>765.5</ele><time>2026-05-02T10:44:11.181Z</time></trkpt><trkpt lat="40.4395008" lon="9.3632169"><ele>767.75</ele><time>2026-05-02T10:44:12.181Z</time></trkpt><trkpt lat="40.4395258" lon="9.3633554"><ele>770.0</ele><time>2026-05-02T10:44:13.18Z</time></trkpt><trkpt lat="40.4396086" lon="9.3634599"><ele>766.75</ele><time>2026-05-02T10:44:14.18Z</time></trkpt><trkpt lat="40.4397239" lon="9.3635246"><ele>763.5</ele><time>2026-05-02T10:44:15.18Z</time></trkpt><trkpt lat="40.4398583" lon="9.3635903"><ele>760.25</ele><time>2026-05-02T10:44:16.18Z</time></trkpt><trkpt lat="40.4400043" lon="9.3637009"><ele>757.0</ele><time>2026-05-02T10:44:17.18Z</time></trkpt><trkpt lat="40.4401229" lon="9.3638398"><ele>759.5</ele><time>2026-05-02T10:44:18.18Z</time></trkpt><trkpt lat="40.4402172" lon="9.363979"><ele>762.0</ele><time>2026-05-02T10:44:19.18Z</time></trkpt><trkpt lat="40.4403128" lon="9.3640959"><ele>764.5</ele><time>2026-05-02T10:44:20.18Z</time></trkpt><trkpt lat="40.4404158" lon="9.3641618"><ele>767.0</ele><time>2026-05-02T10:44:21.181Z</time></trkpt><trkpt lat="40.4405181" lon="9.3641664"><ele>767.0</ele><time>2026-05-02T10:44:22.18Z</time></trkpt><trkpt lat="40.4406097" lon="9.3641177"><ele>767.0</ele><time>2026-05-02T10:44:23.18Z</time></trkpt><trkpt lat="40.4406781" lon="9.3640239"><ele>767.0</ele><time>2026-05-02T10:44:24.181Z</time></trkpt><trkpt lat="40.4407134" lon="9.3639051"><ele>767.0</ele><time>2026-05-02T10:44:25.18Z</time></trkpt><trkpt lat="40.4407304" lon="9.3637764"><ele>767.0</ele><time>2026-05-02T10:44:26.18Z</time></trkpt><trkpt lat="40.4407507" lon="9.3636426"><ele>765.2</ele><time>2026-05-02T10:44:27.181Z</time></trkpt><trkpt lat="40.4407918" lon="9.3635245"><ele>763.4000000000001</ele><time>2026-05-02T10:44:28.18Z</time></trkpt><trkpt lat="40.4408582" lon="9.3634273"><ele>761.5999999999999</ele><time>2026-05-02T10:44:29.181Z</time></trkpt><trkpt lat="40.4409533" lon="9.3633685"><ele>759.8</ele><time>2026-05-02T10:44:30.181Z</time></trkpt><trkpt lat="40.4410637" lon="9.3633556"><ele>758.0</ele><time>2026-05-02T10:44:31.18Z</time></trkpt><trkpt lat="40.4411748" lon="9.3633817"><ele>758.0</ele><time>2026-05-02T10:44:32.18Z</time></trkpt><trkpt lat="40.4412758" lon="9.3634258"><ele>758.0</ele><time>2026-05-02T10:44:33.181Z</time></trkpt><trkpt lat="40.441377" lon="9.3634851"><ele>758.0</ele><time>2026-05-02T10:44:34.18Z</time></trkpt><trkpt lat="40.4414772" lon="9.3635486"><ele>758.0</ele><time>2026-05-02T10:44:35.181Z</time></trkpt><trkpt lat="40.4415739" lon="9.3636067"><ele>758.0</ele><time>2026-05-02T10:44:36.18Z</time></trkpt><trkpt lat="40.4416739" lon="9.3636597"><ele>757.8</ele><time>2026-05-02T10:44:37.18Z</time></trkpt><trkpt lat="40.441776" lon="9.3636943"><ele>757.5999999999999</ele><time>2026-05-02T10:44:38.18Z</time></trkpt><trkpt lat="40.4418809" lon="9.363687"><ele>757.4000000000001</ele><time>2026-05-02T10:44:39.18Z</time></trkpt><trkpt lat="40.4419771" lon="9.3636226"><ele>757.2</ele><time>2026-05-02T10:44:40.181Z</time></trkpt><trkpt lat="40.442061" lon="9.3635224"><ele>757.0</ele><time>2026-05-02T10:44:41.18Z</time></trkpt><trkpt lat="40.4421434" lon="9.3634045"><ele>756.75</ele><time>2026-05-02T10:44:42.18Z</time></trkpt><trkpt lat="40.4422422" lon="9.363297"><ele>756.5</ele><time>2026-05-02T10:44:43.181Z</time></trkpt><trkpt lat="40.4423575" lon="9.3632193"><ele>756.25</ele><time>2026-05-02T10:44:44.18Z</time></trkpt><trkpt lat="40.4424773" lon="9.3631654"><ele>756.0</ele><time>2026-05-02T10:44:45.18Z</time></trkpt><trkpt lat="40.4425996" lon="9.3631317"><ele>756.0</ele><time>2026-05-02T10:44:46.181Z</time></trkpt><trkpt lat="40.442722" lon="9.3631068"><ele>756.0</ele><time>2026-05-02T10:44:47.18Z</time></trkpt><trkpt lat="40.4428366" lon="9.3630904"><ele>756.0</ele><time>2026-05-02T10:44:48.181Z</time></trkpt><trkpt lat="40.4429468" lon="9.3631111"><ele>756.0</ele><time>2026-05-02T10:44:49.18Z</time></trkpt><trkpt lat="40.4430525" lon="9.3631699"><ele>754.75</ele><time>2026-05-02T10:44:50.18Z</time></trkpt><trkpt lat="40.4431439" lon="9.3632691"><ele>753.5</ele><time>2026-05-02T10:44:51.181Z</time></trkpt><trkpt lat="40.4432169" lon="9.3633854"><ele>752.25</ele><time>2026-05-02T10:44:52.18Z</time></trkpt><trkpt lat="40.4432814" lon="9.3635158"><ele>751.0</ele><time>2026-05-02T10:44:53.181Z</time></trkpt><trkpt lat="40.4433488" lon="9.3636554"><ele>751.0</ele><time>2026-05-02T10:44:54.181Z</time></trkpt><trkpt lat="40.443422" lon="9.3638082"><ele>751.0</ele><time>2026-05-02T10:44:55.181Z</time></trkpt><trkpt lat="40.443503" lon="9.3639744"><ele>751.0</ele><time>2026-05-02T10:44:56.18Z</time></trkpt><trkpt lat="40.4435869" lon="9.3641528"><ele>751.0</ele><time>2026-05-02T10:44:57.18Z</time></trkpt><trkpt lat="40.4436738" lon="9.3643369"><ele>751.0</ele><time>2026-05-02T10:44:58.181Z</time></trkpt><trkpt lat="40.4437583" lon="9.364516"><ele>751.0</ele><time>2026-05-02T10:44:59.18Z</time></trkpt><trkpt lat="40.4438369" lon="9.3646863"><ele>751.0</ele><time>2026-05-02T10:45:00.18Z</time></trkpt><trkpt lat="40.4439169" lon="9.3648342"><ele>751.0</ele><time>2026-05-02T10:45:01.18Z</time></trkpt><trkpt lat="40.4440159" lon="9.3649296"><ele>751.0</ele><time>2026-05-02T10:45:02.18Z</time></trkpt><trkpt lat="40.4441342" lon="9.3649772"><ele>751.0</ele><time>2026-05-02T10:45:03.18Z</time></trkpt><trkpt lat="40.4442569" lon="9.3649661"><ele>751.0</ele><time>2026-05-02T10:45:04.18Z</time></trkpt><trkpt lat="40.444381" lon="9.3649183"><ele>751.0</ele><time>2026-05-02T10:45:05.181Z</time></trkpt><trkpt lat="40.4445128" lon="9.3648736"><ele>751.0</ele><time>2026-05-02T10:45:06.181Z</time></trkpt><trkpt lat="40.4446579" lon="9.3648737"><ele>751.0</ele><time>2026-05-02T10:45:07.18Z</time></trkpt><trkpt lat="40.4448038" lon="9.3649169"><ele>751.0</ele><time>2026-05-02T10:45:08.18Z</time></trkpt><trkpt lat="40.444958" lon="9.3649941"><ele>749.6666666666667</ele><time>2026-05-02T10:45:09.18Z</time></trkpt><trkpt lat="40.445102" lon="9.3650792"><ele>748.3333333333334</ele><time>2026-05-02T10:45:10.181Z</time></trkpt><trkpt lat="40.4452263" lon="9.3651869"><ele>747.0</ele><time>2026-05-02T10:45:11.181Z</time></trkpt><trkpt lat="40.4453203" lon="9.3653315"><ele>747.0</ele><time>2026-05-02T10:45:12.181Z</time></trkpt><trkpt lat="40.4453999" lon="9.3654985"><ele>747.0</ele><time>2026-05-02T10:45:13.18Z</time></trkpt><trkpt lat="40.4454988" lon="9.3656487"><ele>747.0</ele><time>2026-05-02T10:45:14.181Z</time></trkpt><trkpt lat="40.4456304" lon="9.365753"><ele>745.6666666666666</ele><time>2026-05-02T10:45:15.18Z</time></trkpt><trkpt lat="40.445778" lon="9.365819"><ele>744.3333333333333</ele><time>2026-05-02T10:45:16.181Z</time></trkpt><trkpt lat="40.4459318" lon="9.3658889"><ele>743.0</ele><time>2026-05-02T10:45:17.18Z</time></trkpt><trkpt lat="40.4460802" lon="9.3659831"><ele>743.0</ele><time>2026-05-02T10:45:18.18Z</time></trkpt><trkpt lat="40.4462168" lon="9.3661006"><ele>743.0</ele><time>2026-05-02T10:45:19.18Z</time></trkpt><trkpt lat="40.4463539" lon="9.3662424"><ele>743.0</ele><time>2026-05-02T10:45:20.181Z</time></trkpt><trkpt lat="40.4464945" lon="9.3663934"><ele>742.3333333333333</ele><time>2026-05-02T10:45:21.18Z</time></trkpt><trkpt lat="40.4466413" lon="9.366539"><ele>741.6666666666666</ele><time>2026-05-02T10:45:22.18Z</time></trkpt><trkpt lat="40.4467875" lon="9.3666713"><ele>741.0</ele><time>2026-05-02T10:45:23.181Z</time></trkpt><trkpt lat="40.4469368" lon="9.3668006"><ele>741.0</ele><time>2026-05-02T10:45:24.181Z</time></trkpt><trkpt lat="40.4470817" lon="9.3669241"><ele>741.0</ele><time>2026-05-02T10:45:25.181Z</time></trkpt><trkpt lat="40.4472259" lon="9.3670433"><ele>741.0</ele><time>2026-05-02T10:45:26.181Z</time></trkpt><trkpt lat="40.4473681" lon="9.3671579"><ele>738.6666666666666</ele><time>2026-05-02T10:45:27.18Z</time></trkpt><trkpt lat="40.4475122" lon="9.3672714"><ele>736.3333333333333</ele><time>2026-05-02T10:45:28.18Z</time></trkpt><trkpt lat="40.4476738" lon="9.3673895"><ele>734.0</ele><time>2026-05-02T10:45:29.18Z</time></trkpt><trkpt lat="40.4478498" lon="9.3675217"><ele>733.6666666666666</ele><time>2026-05-02T10:45:30.18Z</time></trkpt><trkpt lat="40.4480354" lon="9.3676714"><ele>733.3333333333334</ele><time>2026-05-02T10:45:31.181Z</time></trkpt><trkpt lat="40.4482284" lon="9.3678374"><ele>733.0</ele><time>2026-05-02T10:45:32.181Z</time></trkpt><trkpt lat="40.4484351" lon="9.3680129"><ele>733.0</ele><time>2026-05-02T10:45:33.181Z</time></trkpt><trkpt lat="40.4486534" lon="9.3681925"><ele>733.0</ele><time>2026-05-02T10:45:34.18Z</time></trkpt><trkpt lat="40.4488763" lon="9.3683754"><ele>733.0</ele><time>2026-05-02T10:45:35.181Z</time></trkpt><trkpt lat="40.4490894" lon="9.3685535"><ele>733.0</ele><time>2026-05-02T10:45:36.181Z</time></trkpt><trkpt lat="40.4492922" lon="9.3687266"><ele>731.5</ele><time>2026-05-02T10:45:37.18Z</time></trkpt><trkpt lat="40.4494881" lon="9.3688898"><ele>730.0</ele><time>2026-05-02T10:45:38.181Z</time></trkpt><trkpt lat="40.4496762" lon="9.3690451"><ele>729.0</ele><time>2026-05-02T10:45:39.181Z</time></trkpt><trkpt lat="40.4498577" lon="9.3691937"><ele>728.0</ele><time>2026-05-02T10:45:40.181Z</time></trkpt><trkpt lat="40.4500336" lon="9.3693385"><ele>727.0</ele><time>2026-05-02T10:45:41.18Z</time></trkpt><trkpt lat="40.4502114" lon="9.3694827"><ele>727.0</ele><time>2026-05-02T10:45:42.18Z</time></trkpt><trkpt lat="40.4503874" lon="9.3696254"><ele>727.0</ele><time>2026-05-02T10:45:43.18Z</time></trkpt><trkpt lat="40.4505623" lon="9.3697672"><ele>727.0</ele><time>2026-05-02T10:45:44.181Z</time></trkpt><trkpt lat="40.4507398" lon="9.3698983"><ele>727.3333333333334</ele><time>2026-05-02T10:45:45.181Z</time></trkpt><trkpt lat="40.4509249" lon="9.3700049"><ele>727.6666666666666</ele><time>2026-05-02T10:45:46.18Z</time></trkpt><trkpt lat="40.4511145" lon="9.3700882"><ele>728.0</ele><time>2026-05-02T10:45:47.181Z</time></trkpt><trkpt lat="40.4512991" lon="9.3701636"><ele>728.0</ele><time>2026-05-02T10:45:48.18Z</time></trkpt><trkpt lat="40.4514714" lon="9.370231"><ele>728.0</ele><time>2026-05-02T10:45:49.181Z</time></trkpt><trkpt lat="40.4516276" lon="9.3702624"><ele>728.0</ele><time>2026-05-02T10:45:50.181Z</time></trkpt><trkpt lat="40.4517749" lon="9.3702317"><ele>728.0</ele><time>2026-05-02T10:45:51.18Z</time></trkpt><trkpt lat="40.4519161" lon="9.3701513"><ele>728.0</ele><time>2026-05-02T10:45:52.18Z</time></trkpt><trkpt lat="40.4520585" lon="9.3700503"><ele>728.0</ele><time>2026-05-02T10:45:53.18Z</time></trkpt><trkpt lat="40.4522058" lon="9.369959"><ele>729.3333333333333</ele><time>2026-05-02T10:45:54.181Z</time></trkpt><trkpt lat="40.4523646" lon="9.3698914"><ele>730.6666666666666</ele><time>2026-05-02T10:45:55.18Z</time></trkpt><trkpt lat="40.4525317" lon="9.3698543"><ele>732.0</ele><time>2026-05-02T10:45:56.181Z</time></trkpt><trkpt lat="40.4527042" lon="9.3698339"><ele>732.0</ele><time>2026-05-02T10:45:57.18Z</time></trkpt><trkpt lat="40.4528809" lon="9.3698199"><ele>732.0</ele><time>2026-05-02T10:45:58.18Z</time></trkpt><trkpt lat="40.453061" lon="9.3698088"><ele>732.0</ele><time>2026-05-02T10:45:59.18Z</time></trkpt><trkpt lat="40.4532451" lon="9.369796"><ele>732.3333333333334</ele><time>2026-05-02T10:46:00.181Z</time></trkpt><trkpt lat="40.4534298" lon="9.3697808"><ele>732.6666666666667</ele><time>2026-05-02T10:46:01.181Z</time></trkpt><trkpt lat="40.4536128" lon="9.3697657"><ele>733.0</ele><time>2026-05-02T10:46:02.181Z</time></trkpt><trkpt lat="40.4537859" lon="9.3697546"><ele>733.6666666666667</ele><time>2026-05-02T10:46:03.181Z</time></trkpt><trkpt lat="40.4539476" lon="9.3697451"><ele>734.3333333333334</ele><time>2026-05-02T10:46:04.181Z</time></trkpt><trkpt lat="40.4541034" lon="9.3697324"><ele>735.0</ele><time>2026-05-02T10:46:05.181Z</time></trkpt><trkpt lat="40.4542493" lon="9.369723"><ele>735.0</ele><time>2026-05-02T10:46:06.18Z</time></trkpt><trkpt lat="40.4543853" lon="9.3697109"><ele>735.0</ele><time>2026-05-02T10:46:07.181Z</time></trkpt><trkpt lat="40.4545067" lon="9.3696873"><ele>735.0</ele><time>2026-05-02T10:46:08.181Z</time></trkpt><trkpt lat="40.4546131" lon="9.369656"><ele>735.0</ele><time>2026-05-02T10:46:09.18Z</time></trkpt><trkpt lat="40.4547007" lon="9.369622"><ele>735.6666666666666</ele><time>2026-05-02T10:46:10.18Z</time></trkpt><trkpt lat="40.4547726" lon="9.3695893"><ele>736.3333333333334</ele><time>2026-05-02T10:46:11.181Z</time></trkpt><trkpt lat="40.4548737" lon="9.3695433"><ele>737.0</ele><time>2026-05-02T10:46:13.18Z</time></trkpt><trkpt lat="40.4549224" lon="9.3694815"><ele>737.6666666666667</ele><time>2026-05-02T10:46:31.18Z</time></trkpt><trkpt lat="40.4548771" lon="9.36941"><ele>738.3333333333334</ele><time>2026-05-02T10:46:34.18Z</time></trkpt><trkpt lat="40.4548388" lon="9.3693378"><ele>739.0</ele><time>2026-05-02T10:46:36.181Z</time></trkpt><trkpt lat="40.4548013" lon="9.3692216"><ele>739.0</ele><time>2026-05-02T10:46:39.18Z</time></trkpt><trkpt lat="40.4547809" lon="9.3690955"><ele>739.0</ele><time>2026-05-02T10:46:41.181Z</time></trkpt><trkpt lat="40.4547734" lon="9.36899"><ele>739.0</ele><time>2026-05-02T10:46:43.18Z</time></trkpt><trkpt lat="40.4547659" lon="9.368825"><ele>739.0</ele><time>2026-05-02T10:46:45.181Z</time></trkpt><trkpt lat="40.4547634" lon="9.3687178"><ele>739.0</ele><time>2026-05-02T10:46:46.181Z</time></trkpt><trkpt lat="40.454756" lon="9.3685928"><ele>739.4000000000001</ele><time>2026-05-02T10:46:47.18Z</time></trkpt><trkpt lat="40.4547481" lon="9.3684696"><ele>739.8</ele><time>2026-05-02T10:46:48.18Z</time></trkpt><trkpt lat="40.4547408" lon="9.3683537"><ele>740.2</ele><time>2026-05-02T10:46:49.181Z</time></trkpt><trkpt lat="40.4547315" lon="9.3682337"><ele>740.5999999999999</ele><time>2026-05-02T10:46:50.181Z</time></trkpt><trkpt lat="40.454721" lon="9.3681076"><ele>741.0</ele><time>2026-05-02T10:46:51.18Z</time></trkpt><trkpt lat="40.4547092" lon="9.3679834"><ele>741.0</ele><time>2026-05-02T10:46:52.18Z</time></trkpt><trkpt lat="40.4546979" lon="9.3678707"><ele>741.0</ele><time>2026-05-02T10:46:53.181Z</time></trkpt><trkpt lat="40.4546864" lon="9.3677544"><ele>741.0</ele><time>2026-05-02T10:46:54.181Z</time></trkpt><trkpt lat="40.4546701" lon="9.3676463"><ele>741.0</ele><time>2026-05-02T10:46:55.181Z</time></trkpt><trkpt lat="40.4546464" lon="9.367545"><ele>741.0</ele><time>2026-05-02T10:46:56.181Z</time></trkpt><trkpt lat="40.4546179" lon="9.3674602"><ele>741.0</ele><time>2026-05-02T10:46:57.18Z</time></trkpt><trkpt lat="40.4545664" lon="9.3673217"><ele>741.0</ele><time>2026-05-02T10:46:59.181Z</time></trkpt><trkpt lat="40.4545163" lon="9.3672064"><ele>741.0</ele><time>2026-05-02T10:47:01.18Z</time></trkpt><trkpt lat="40.4544597" lon="9.3671417"><ele>741.0</ele><time>2026-05-02T10:47:03.18Z</time></trkpt><trkpt lat="40.454528" lon="9.3671059"><ele>741.0</ele><time>2026-05-02T10:48:54.181Z</time></trkpt><trkpt lat="40.4544707" lon="9.3671454"><ele>741.0</ele><time>2026-05-02T10:49:09.181Z</time></trkpt><trkpt lat="40.4544459" lon="9.3672491"><ele>741.0</ele><time>2026-05-02T10:50:10.181Z</time></trkpt><trkpt lat="40.454455" lon="9.3671656"><ele>742.0</ele><time>2026-05-02T10:50:22.18Z</time></trkpt><trkpt lat="40.4545207" lon="9.3671489"><ele>742.0</ele><time>2026-05-02T10:50:37.181Z</time></trkpt><trkpt lat="40.4544628" lon="9.3671901"><ele>742.0</ele><time>2026-05-02T10:51:13.181Z</time></trkpt><trkpt lat="40.4544865" lon="9.3672827"><ele>741.0</ele><time>2026-05-02T10:51:43.18Z</time></trkpt><trkpt lat="40.4544596" lon="9.3672044"><ele>741.0</ele><time>2026-05-02T10:53:10.181Z</time></trkpt></trkseg><trkseg><trkpt lat="40.4543638" lon="9.3671514"><ele>742.0</ele><time>2026-05-02T12:55:54.167Z</time></trkpt><trkpt lat="40.4543824" lon="9.3672336"><ele>742.0</ele><time>2026-05-02T12:56:01.168Z</time></trkpt><trkpt lat="40.4544481" lon="9.3672443"><ele>742.0</ele><time>2026-05-02T12:56:17.168Z</time></trkpt><trkpt lat="40.4544473" lon="9.3671566"><ele>742.0</ele><time>2026-05-02T12:56:22.168Z</time></trkpt><trkpt lat="40.4544166" lon="9.3672304"><ele>742.0</ele><time>2026-05-02T12:56:48.167Z</time></trkpt><trkpt lat="40.4544136" lon="9.3671456"><ele>742.0</ele><time>2026-05-02T13:07:04.168Z</time></trkpt><trkpt lat="40.4544294" lon="9.3672319"><ele>742.0</ele><time>2026-05-02T13:26:06.161Z</time></trkpt><trkpt lat="40.4544601" lon="9.3673235"><ele>742.0</ele><time>2026-05-02T13:26:08.161Z</time></trkpt><trkpt lat="40.4545292" lon="9.3673671"><ele>742.0</ele><time>2026-05-02T13:26:10.16Z</time></trkpt><trkpt lat="40.4545825" lon="9.3674253"><ele>742.0</ele><time>2026-05-02T13:26:12.16Z</time></trkpt><trkpt lat="40.4546253" lon="9.3675164"><ele>742.0</ele><time>2026-05-02T13:26:14.161Z</time></trkpt><trkpt lat="40.454655" lon="9.3676354"><ele>742.0</ele><time>2026-05-02T13:26:16.161Z</time></trkpt><trkpt lat="40.454682" lon="9.3677882"><ele>742.0</ele><time>2026-05-02T13:26:18.16Z</time></trkpt><trkpt lat="40.4546946" lon="9.3678769"><ele>742.0</ele><time>2026-05-02T13:26:19.16Z</time></trkpt><trkpt lat="40.4547063" lon="9.367968"><ele>742.0</ele><time>2026-05-02T13:26:20.16Z</time></trkpt><trkpt lat="40.4547144" lon="9.3680548"><ele>742.0</ele><time>2026-05-02T13:26:21.161Z</time></trkpt><trkpt lat="40.4547289" lon="9.3682129"><ele>742.0</ele><time>2026-05-02T13:26:23.161Z</time></trkpt><trkpt lat="40.4547432" lon="9.3683807"><ele>742.0</ele><time>2026-05-02T13:26:25.16Z</time></trkpt><trkpt lat="40.4547498" lon="9.3684751"><ele>741.8333333333334</ele><time>2026-05-02T13:26:26.161Z</time></trkpt><trkpt lat="40.4547567" lon="9.3685756"><ele>741.6666666666667</ele><time>2026-05-02T13:26:27.16Z</time></trkpt><trkpt lat="40.4547617" lon="9.3686796"><ele>741.5</ele><time>2026-05-02T13:26:28.16Z</time></trkpt><trkpt lat="40.4547669" lon="9.3687805"><ele>741.3333333333334</ele><time>2026-05-02T13:26:29.16Z</time></trkpt><trkpt lat="40.4547703" lon="9.3688751"><ele>741.1666666666666</ele><time>2026-05-02T13:26:30.161Z</time></trkpt><trkpt lat="40.4547737" lon="9.3689619"><ele>741.0</ele><time>2026-05-02T13:26:31.16Z</time></trkpt><trkpt lat="40.4547828" lon="9.3691171"><ele>740.6666666666666</ele><time>2026-05-02T13:26:33.16Z</time></trkpt><trkpt lat="40.4547956" lon="9.3692288"><ele>740.3333333333334</ele><time>2026-05-02T13:26:35.16Z</time></trkpt><trkpt lat="40.4548099" lon="9.3693097"><ele>740.0</ele><time>2026-05-02T13:26:38.16Z</time></trkpt><trkpt lat="40.4548444" lon="9.3694076"><ele>739.6666666666667</ele><time>2026-05-02T13:26:45.161Z</time></trkpt><trkpt lat="40.4548887" lon="9.3694823"><ele>739.3333333333334</ele><time>2026-05-02T13:26:51.161Z</time></trkpt><trkpt lat="40.4549661" lon="9.3694956"><ele>739.0</ele><time>2026-05-02T13:26:53.161Z</time></trkpt><trkpt lat="40.4550673" lon="9.3694321"><ele>739.0</ele><time>2026-05-02T13:26:55.161Z</time></trkpt><trkpt lat="40.455128" lon="9.3693991"><ele>739.0</ele><time>2026-05-02T13:26:56.16Z</time></trkpt><trkpt lat="40.455198" lon="9.3693631"><ele>739.0</ele><time>2026-05-02T13:26:57.161Z</time></trkpt><trkpt lat="40.4552789" lon="9.3693207"><ele>739.0</ele><time>2026-05-02T13:26:58.161Z</time></trkpt><trkpt lat="40.4553692" lon="9.3692721"><ele>739.0</ele><time>2026-05-02T13:26:59.16Z</time></trkpt><trkpt lat="40.4554678" lon="9.3692195"><ele>739.0</ele><time>2026-05-02T13:27:00.161Z</time></trkpt><trkpt lat="40.4555746" lon="9.3691651"><ele>739.75</ele><time>2026-05-02T13:27:01.16Z</time></trkpt><trkpt lat="40.4556889" lon="9.3691078"><ele>740.5</ele><time>2026-05-02T13:27:02.161Z</time></trkpt><trkpt lat="40.4558087" lon="9.3690461"><ele>741.25</ele><time>2026-05-02T13:27:03.16Z</time></trkpt><trkpt lat="40.4559332" lon="9.3689756"><ele>742.0</ele><time>2026-05-02T13:27:04.161Z</time></trkpt><trkpt lat="40.4560633" lon="9.3688915"><ele>742.3333333333334</ele><time>2026-05-02T13:27:05.161Z</time></trkpt><trkpt lat="40.4562001" lon="9.368796"><ele>742.6666666666666</ele><time>2026-05-02T13:27:06.16Z</time></trkpt><trkpt lat="40.4563465" lon="9.368692"><ele>743.0</ele><time>2026-05-02T13:27:07.16Z</time></trkpt><trkpt lat="40.4564913" lon="9.3685841"><ele>743.0</ele><time>2026-05-02T13:27:08.16Z</time></trkpt><trkpt lat="40.4566292" lon="9.3684767"><ele>743.0</ele><time>2026-05-02T13:27:09.16Z</time></trkpt><trkpt lat="40.4567609" lon="9.3683706"><ele>743.0</ele><time>2026-05-02T13:27:10.161Z</time></trkpt><trkpt lat="40.4568807" lon="9.3682763"><ele>743.0</ele><time>2026-05-02T13:27:11.16Z</time></trkpt><trkpt lat="40.456993" lon="9.36819"><ele>743.0</ele><time>2026-05-02T13:27:12.161Z</time></trkpt><trkpt lat="40.4570954" lon="9.368115"><ele>743.0</ele><time>2026-05-02T13:27:13.161Z</time></trkpt><trkpt lat="40.4571963" lon="9.3680531"><ele>743.0</ele><time>2026-05-02T13:27:14.16Z</time></trkpt><trkpt lat="40.457298" lon="9.3680118"><ele>742.8</ele><time>2026-05-02T13:27:15.161Z</time></trkpt><trkpt lat="40.4574012" lon="9.3680015"><ele>742.5999999999999</ele><time>2026-05-02T13:27:16.16Z</time></trkpt><trkpt lat="40.4575023" lon="9.3680263"><ele>742.4000000000001</ele><time>2026-05-02T13:27:17.16Z</time></trkpt><trkpt lat="40.4575952" lon="9.3680911"><ele>742.2</ele><time>2026-05-02T13:27:18.161Z</time></trkpt><trkpt lat="40.4576725" lon="9.3681885"><ele>742.0</ele><time>2026-05-02T13:27:19.161Z</time></trkpt><trkpt lat="40.457737" lon="9.368298"><ele>742.0</ele><time>2026-05-02T13:27:20.16Z</time></trkpt><trkpt lat="40.4578044" lon="9.3683912"><ele>742.0</ele><time>2026-05-02T13:27:21.16Z</time></trkpt><trkpt lat="40.4578937" lon="9.3684444"><ele>742.0</ele><time>2026-05-02T13:27:22.16Z</time></trkpt><trkpt lat="40.4579949" lon="9.3684539"><ele>742.0</ele><time>2026-05-02T13:27:23.16Z</time></trkpt><trkpt lat="40.4581018" lon="9.3684274"><ele>742.0</ele><time>2026-05-02T13:27:24.16Z</time></trkpt><trkpt lat="40.4582071" lon="9.3683764"><ele>742.0</ele><time>2026-05-02T13:27:25.16Z</time></trkpt><trkpt lat="40.4583017" lon="9.3683262"><ele>742.0</ele><time>2026-05-02T13:27:26.161Z</time></trkpt><trkpt lat="40.4583922" lon="9.3683075"><ele>742.0</ele><time>2026-05-02T13:27:27.16Z</time></trkpt><trkpt lat="40.4584818" lon="9.3683279"><ele>742.0</ele><time>2026-05-02T13:27:28.16Z</time></trkpt><trkpt lat="40.4585606" lon="9.3683696"><ele>742.0</ele><time>2026-05-02T13:27:29.161Z</time></trkpt><trkpt lat="40.4585977" lon="9.3684795"><ele>742.0</ele><time>2026-05-02T13:27:30.161Z</time></trkpt><trkpt lat="40.4586204" lon="9.3685782"><ele>742.0</ele><time>2026-05-02T13:27:31.16Z</time></trkpt><trkpt lat="40.4586043" lon="9.368685"><ele>742.0</ele><time>2026-05-02T13:27:32.16Z</time></trkpt><trkpt lat="40.4585552" lon="9.3687801"><ele>742.0</ele><time>2026-05-02T13:27:33.16Z</time></trkpt><trkpt lat="40.4584896" lon="9.3688718"><ele>742.0</ele><time>2026-05-02T13:27:34.161Z</time></trkpt><trkpt lat="40.4584449" lon="9.3689862"><ele>742.0</ele><time>2026-05-02T13:27:35.16Z</time></trkpt><trkpt lat="40.4584255" lon="9.3691198"><ele>739.6</ele><time>2026-05-02T13:27:36.161Z</time></trkpt><trkpt lat="40.4584387" lon="9.3692614"><ele>737.2</ele><time>2026-05-02T13:27:37.161Z</time></trkpt><trkpt lat="40.4584867" lon="9.3693954"><ele>734.8</ele><time>2026-05-02T13:27:38.161Z</time></trkpt><trkpt lat="40.4585648" lon="9.3695005"><ele>732.4</ele><time>2026-05-02T13:27:39.161Z</time></trkpt><trkpt lat="40.4586654" lon="9.369553"><ele>730.0</ele><time>2026-05-02T13:27:40.161Z</time></trkpt><trkpt lat="40.4587719" lon="9.3695603"><ele>733.0</ele><time>2026-05-02T13:27:41.161Z</time></trkpt><trkpt lat="40.4588895" lon="9.3695501"><ele>736.0</ele><time>2026-05-02T13:27:42.16Z</time></trkpt><trkpt lat="40.4590307" lon="9.3695576"><ele>739.0</ele><time>2026-05-02T13:27:43.16Z</time></trkpt><trkpt lat="40.4591802" lon="9.369579"><ele>742.0</ele><time>2026-05-02T13:27:44.161Z</time></trkpt><trkpt lat="40.4593205" lon="9.3696105"><ele>742.0</ele><time>2026-05-02T13:27:45.16Z</time></trkpt><trkpt lat="40.4594494" lon="9.3696429"><ele>742.0</ele><time>2026-05-02T13:27:46.161Z</time></trkpt><trkpt lat="40.459556" lon="9.3696959"><ele>742.0</ele><time>2026-05-02T13:27:47.161Z</time></trkpt><trkpt lat="40.4596342" lon="9.3697819"><ele>742.0</ele><time>2026-05-02T13:27:48.16Z</time></trkpt><trkpt lat="40.4596686" lon="9.3698888"><ele>742.0</ele><time>2026-05-02T13:27:49.16Z</time></trkpt><trkpt lat="40.4596614" lon="9.3699941"><ele>739.2</ele><time>2026-05-02T13:27:50.16Z</time></trkpt><trkpt lat="40.4596146" lon="9.3700875"><ele>736.4000000000001</ele><time>2026-05-02T13:27:51.16Z</time></trkpt><trkpt lat="40.4595383" lon="9.3701516"><ele>733.5999999999999</ele><time>2026-05-02T13:27:52.16Z</time></trkpt><trkpt lat="40.4594463" lon="9.3702009"><ele>730.8</ele><time>2026-05-02T13:27:53.161Z</time></trkpt><trkpt lat="40.4593493" lon="9.3702748"><ele>728.0</ele><time>2026-05-02T13:27:54.161Z</time></trkpt><trkpt lat="40.4592596" lon="9.3703906"><ele>727.5</ele><time>2026-05-02T13:27:55.161Z</time></trkpt><trkpt lat="40.4591794" lon="9.3705285"><ele>727.0</ele><time>2026-05-02T13:27:56.161Z</time></trkpt><trkpt lat="40.4591211" lon="9.3706758"><ele>726.5</ele><time>2026-05-02T13:27:57.161Z</time></trkpt><trkpt lat="40.4590908" lon="9.3708405"><ele>726.0</ele><time>2026-05-02T13:27:58.16Z</time></trkpt><trkpt lat="40.459086" lon="9.3710197"><ele>726.0</ele><time>2026-05-02T13:27:59.16Z</time></trkpt><trkpt lat="40.4590846" lon="9.3712115"><ele>726.0</ele><time>2026-05-02T13:28:00.161Z</time></trkpt><trkpt lat="40.4590775" lon="9.3714134"><ele>726.0</ele><time>2026-05-02T13:28:01.16Z</time></trkpt><trkpt lat="40.4590644" lon="9.3716059"><ele>726.0</ele><time>2026-05-02T13:28:02.16Z</time></trkpt><trkpt lat="40.459056" lon="9.3717714"><ele>725.75</ele><time>2026-05-02T13:28:03.16Z</time></trkpt><trkpt lat="40.4590771" lon="9.37192"><ele>725.5</ele><time>2026-05-02T13:28:04.16Z</time></trkpt><trkpt lat="40.4591345" lon="9.3720495"><ele>725.25</ele><time>2026-05-02T13:28:05.161Z</time></trkpt><trkpt lat="40.4592251" lon="9.3721488"><ele>725.0</ele><time>2026-05-02T13:28:06.16Z</time></trkpt><trkpt lat="40.4593364" lon="9.3722207"><ele>725.0</ele><time>2026-05-02T13:28:07.161Z</time></trkpt><trkpt lat="40.4594736" lon="9.3722694"><ele>725.0</ele><time>2026-05-02T13:28:08.16Z</time></trkpt><trkpt lat="40.4596259" lon="9.3723194"><ele>725.0</ele><time>2026-05-02T13:28:09.161Z</time></trkpt><trkpt lat="40.4597865" lon="9.3723789"><ele>725.0</ele><time>2026-05-02T13:28:10.161Z</time></trkpt><trkpt lat="40.4599404" lon="9.3724464"><ele>725.0</ele><time>2026-05-02T13:28:11.161Z</time></trkpt><trkpt lat="40.4600793" lon="9.3725216"><ele>725.0</ele><time>2026-05-02T13:28:12.16Z</time></trkpt><trkpt lat="40.4602076" lon="9.372596"><ele>725.0</ele><time>2026-05-02T13:28:13.16Z</time></trkpt><trkpt lat="40.4603281" lon="9.3726681"><ele>725.0</ele><time>2026-05-02T13:28:14.161Z</time></trkpt><trkpt lat="40.4604326" lon="9.3727268"><ele>725.0</ele><time>2026-05-02T13:28:15.161Z</time></trkpt><trkpt lat="40.4605255" lon="9.3727853"><ele>725.0</ele><time>2026-05-02T13:28:16.16Z</time></trkpt><trkpt lat="40.4606021" lon="9.3728582"><ele>725.0</ele><time>2026-05-02T13:28:17.161Z</time></trkpt><trkpt lat="40.4606496" lon="9.3729575"><ele>725.8333333333333</ele><time>2026-05-02T13:28:18.16Z</time></trkpt><trkpt lat="40.4606566" lon="9.3730685"><ele>726.6666666666666</ele><time>2026-05-02T13:28:19.16Z</time></trkpt><trkpt lat="40.4606272" lon="9.3731597"><ele>727.5</ele><time>2026-05-02T13:28:20.161Z</time></trkpt><trkpt lat="40.4605658" lon="9.3732294"><ele>728.3333333333334</ele><time>2026-05-02T13:28:21.16Z</time></trkpt><trkpt lat="40.4604841" lon="9.3732841"><ele>729.1666666666667</ele><time>2026-05-02T13:28:22.161Z</time></trkpt><trkpt lat="40.4603903" lon="9.3733487"><ele>730.0</ele><time>2026-05-02T13:28:23.16Z</time></trkpt><trkpt lat="40.4602946" lon="9.3734571"><ele>727.0</ele><time>2026-05-02T13:28:24.161Z</time></trkpt><trkpt lat="40.4601957" lon="9.3735803"><ele>724.0</ele><time>2026-05-02T13:28:25.16Z</time></trkpt><trkpt lat="40.4601012" lon="9.3737091"><ele>721.0</ele><time>2026-05-02T13:28:26.161Z</time></trkpt><trkpt lat="40.4600167" lon="9.3738302"><ele>718.0</ele><time>2026-05-02T13:28:27.16Z</time></trkpt><trkpt lat="40.4599551" lon="9.3739645"><ele>718.0</ele><time>2026-05-02T13:28:28.16Z</time></trkpt><trkpt lat="40.4599228" lon="9.3741248"><ele>718.0</ele><time>2026-05-02T13:28:29.161Z</time></trkpt><trkpt lat="40.459907" lon="9.3743031"><ele>718.0</ele><time>2026-05-02T13:28:30.161Z</time></trkpt><trkpt lat="40.459902" lon="9.3744959"><ele>718.0</ele><time>2026-05-02T13:28:31.161Z</time></trkpt><trkpt lat="40.4599041" lon="9.3746823"><ele>716.5</ele><time>2026-05-02T13:28:32.161Z</time></trkpt><trkpt lat="40.4599358" lon="9.3748568"><ele>715.0</ele><time>2026-05-02T13:28:33.16Z</time></trkpt><trkpt lat="40.4599974" lon="9.3750189"><ele>713.5</ele><time>2026-05-02T13:28:34.16Z</time></trkpt><trkpt lat="40.4600839" lon="9.3751644"><ele>712.0</ele><time>2026-05-02T13:28:35.161Z</time></trkpt><trkpt lat="40.4601982" lon="9.3752824"><ele>712.0</ele><time>2026-05-02T13:28:36.16Z</time></trkpt><trkpt lat="40.4603227" lon="9.3753921"><ele>712.0</ele><time>2026-05-02T13:28:37.16Z</time></trkpt><trkpt lat="40.4604438" lon="9.3755235"><ele>712.0</ele><time>2026-05-02T13:28:38.161Z</time></trkpt><trkpt lat="40.4605524" lon="9.3756841"><ele>713.5</ele><time>2026-05-02T13:28:39.161Z</time></trkpt><trkpt lat="40.4606506" lon="9.3758481"><ele>715.0</ele><time>2026-05-02T13:28:40.16Z</time></trkpt><trkpt lat="40.4607346" lon="9.3760007"><ele>716.5</ele><time>2026-05-02T13:28:41.16Z</time></trkpt><trkpt lat="40.4608041" lon="9.3761333"><ele>718.0</ele><time>2026-05-02T13:28:42.16Z</time></trkpt><trkpt lat="40.4608549" lon="9.3762587"><ele>716.2</ele><time>2026-05-02T13:28:43.161Z</time></trkpt><trkpt lat="40.4608679" lon="9.3763877"><ele>714.4</ele><time>2026-05-02T13:28:44.16Z</time></trkpt><trkpt lat="40.4608491" lon="9.3765128"><ele>712.6</ele><time>2026-05-02T13:28:45.16Z</time></trkpt><trkpt lat="40.4608084" lon="9.3766506"><ele>710.8000000000001</ele><time>2026-05-02T13:28:46.161Z</time></trkpt><trkpt lat="40.4607633" lon="9.3768118"><ele>709.0</ele><time>2026-05-02T13:28:47.161Z</time></trkpt><trkpt lat="40.4607193" lon="9.3769932"><ele>709.0</ele><time>2026-05-02T13:28:48.161Z</time></trkpt><trkpt lat="40.460681" lon="9.3771868"><ele>709.0</ele><time>2026-05-02T13:28:49.161Z</time></trkpt><trkpt lat="40.4606533" lon="9.3773905"><ele>709.0</ele><time>2026-05-02T13:28:50.16Z</time></trkpt><trkpt lat="40.4606351" lon="9.3776003"><ele>709.0</ele><time>2026-05-02T13:28:51.16Z</time></trkpt><trkpt lat="40.4606207" lon="9.3778066"><ele>709.0</ele><time>2026-05-02T13:28:52.16Z</time></trkpt><trkpt lat="40.4606085" lon="9.3780024"><ele>709.0</ele><time>2026-05-02T13:28:53.16Z</time></trkpt><trkpt lat="40.4605969" lon="9.3781867"><ele>709.0</ele><time>2026-05-02T13:28:54.161Z</time></trkpt><trkpt lat="40.4605909" lon="9.3783591"><ele>707.75</ele><time>2026-05-02T13:28:55.16Z</time></trkpt><trkpt lat="40.4605992" lon="9.3785324"><ele>706.5</ele><time>2026-05-02T13:28:56.16Z</time></trkpt><trkpt lat="40.4606323" lon="9.378704"><ele>705.25</ele><time>2026-05-02T13:28:57.161Z</time></trkpt><trkpt lat="40.4606913" lon="9.3788685"><ele>704.0</ele><time>2026-05-02T13:28:58.16Z</time></trkpt><trkpt lat="40.4607749" lon="9.3790224"><ele>699.0</ele><time>2026-05-02T13:28:59.161Z</time></trkpt><trkpt lat="40.4608793" lon="9.379164"><ele>694.0</ele><time>2026-05-02T13:29:00.161Z</time></trkpt><trkpt lat="40.4610069" lon="9.3792821"><ele>689.0</ele><time>2026-05-02T13:29:01.16Z</time></trkpt><trkpt lat="40.4611421" lon="9.3793634"><ele>689.0</ele><time>2026-05-02T13:29:02.16Z</time></trkpt><trkpt lat="40.4612716" lon="9.3794133"><ele>689.0</ele><time>2026-05-02T13:29:03.161Z</time></trkpt><trkpt lat="40.4613911" lon="9.379445"><ele>689.0</ele><time>2026-05-02T13:29:04.161Z</time></trkpt><trkpt lat="40.4614901" lon="9.3794877"><ele>689.0</ele><time>2026-05-02T13:29:05.161Z</time></trkpt><trkpt lat="40.461562" lon="9.3795746"><ele>690.0</ele><time>2026-05-02T13:29:06.161Z</time></trkpt><trkpt lat="40.4616094" lon="9.3796939"><ele>691.0</ele><time>2026-05-02T13:29:07.16Z</time></trkpt><trkpt lat="40.461628" lon="9.3798403"><ele>692.0</ele><time>2026-05-02T13:29:08.161Z</time></trkpt><trkpt lat="40.4616136" lon="9.3800002"><ele>693.0</ele><time>2026-05-02T13:29:09.16Z</time></trkpt><trkpt lat="40.4615864" lon="9.3801685"><ele>693.0</ele><time>2026-05-02T13:29:10.16Z</time></trkpt><trkpt lat="40.4615805" lon="9.3803236"><ele>693.0</ele><time>2026-05-02T13:29:11.16Z</time></trkpt><trkpt lat="40.4616163" lon="9.3804646"><ele>693.0</ele><time>2026-05-02T13:29:12.16Z</time></trkpt><trkpt lat="40.4616946" lon="9.380587"><ele>693.0</ele><time>2026-05-02T13:29:13.16Z</time></trkpt><trkpt lat="40.4617988" lon="9.3806992"><ele>689.0</ele><time>2026-05-02T13:29:14.16Z</time></trkpt><trkpt lat="40.461895" lon="9.3808385"><ele>685.0</ele><time>2026-05-02T13:29:15.16Z</time></trkpt><trkpt lat="40.4619764" lon="9.3810139"><ele>681.0</ele><time>2026-05-02T13:29:16.16Z</time></trkpt><trkpt lat="40.4620415" lon="9.3812061"><ele>683.5</ele><time>2026-05-02T13:29:17.161Z</time></trkpt><trkpt lat="40.4620858" lon="9.3813887"><ele>686.0</ele><time>2026-05-02T13:29:18.16Z</time></trkpt><trkpt lat="40.4621293" lon="9.3815461"><ele>688.5</ele><time>2026-05-02T13:29:19.161Z</time></trkpt><trkpt lat="40.462197" lon="9.3816788"><ele>691.0</ele><time>2026-05-02T13:29:20.161Z</time></trkpt><trkpt lat="40.4622946" lon="9.3817754"><ele>691.0</ele><time>2026-05-02T13:29:21.16Z</time></trkpt><trkpt lat="40.4624019" lon="9.3818319"><ele>691.0</ele><time>2026-05-02T13:29:22.16Z</time></trkpt><trkpt lat="40.4624994" lon="9.381877"><ele>691.0</ele><time>2026-05-02T13:29:23.16Z</time></trkpt><trkpt lat="40.4625805" lon="9.3819398"><ele>691.0</ele><time>2026-05-02T13:29:24.16Z</time></trkpt><trkpt lat="40.4626417" lon="9.3820349"><ele>691.0</ele><time>2026-05-02T13:29:25.16Z</time></trkpt><trkpt lat="40.4626608" lon="9.3821466"><ele>687.5</ele><time>2026-05-02T13:29:26.16Z</time></trkpt><trkpt lat="40.4626422" lon="9.3822642"><ele>684.0</ele><time>2026-05-02T13:29:27.16Z</time></trkpt><trkpt lat="40.4625884" lon="9.3823827"><ele>680.5</ele><time>2026-05-02T13:29:28.16Z</time></trkpt><trkpt lat="40.4625187" lon="9.3825177"><ele>677.0</ele><time>2026-05-02T13:29:29.16Z</time></trkpt><trkpt lat="40.4624602" lon="9.3826709"><ele>677.0</ele><time>2026-05-02T13:29:30.16Z</time></trkpt><trkpt lat="40.4624319" lon="9.3828234"><ele>677.0</ele><time>2026-05-02T13:29:31.16Z</time></trkpt><trkpt lat="40.4624349" lon="9.3829869"><ele>677.0</ele><time>2026-05-02T13:29:32.16Z</time></trkpt><trkpt lat="40.4624788" lon="9.3831428"><ele>677.0</ele><time>2026-05-02T13:29:33.16Z</time></trkpt><trkpt lat="40.4625627" lon="9.3832686"><ele>676.0</ele><time>2026-05-02T13:29:34.161Z</time></trkpt><trkpt lat="40.462669" lon="9.3833483"><ele>675.0</ele><time>2026-05-02T13:29:35.161Z</time></trkpt><trkpt lat="40.4627793" lon="9.3833869"><ele>674.0</ele><time>2026-05-02T13:29:36.161Z</time></trkpt><trkpt lat="40.4628768" lon="9.3834291"><ele>673.0</ele><time>2026-05-02T13:29:37.16Z</time></trkpt><trkpt lat="40.4629477" lon="9.3835166"><ele>672.0</ele><time>2026-05-02T13:29:38.16Z</time></trkpt><trkpt lat="40.462984" lon="9.3836319"><ele>675.5</ele><time>2026-05-02T13:29:39.161Z</time></trkpt><trkpt lat="40.4629807" lon="9.3837579"><ele>679.0</ele><time>2026-05-02T13:29:40.16Z</time></trkpt><trkpt lat="40.4629695" lon="9.3839066"><ele>682.5</ele><time>2026-05-02T13:29:41.16Z</time></trkpt><trkpt lat="40.4629804" lon="9.3840895"><ele>686.0</ele><time>2026-05-02T13:29:42.161Z</time></trkpt><trkpt lat="40.4630052" lon="9.3842852"><ele>686.0</ele><time>2026-05-02T13:29:43.161Z</time></trkpt><trkpt lat="40.4630528" lon="9.3844618"><ele>686.0</ele><time>2026-05-02T13:29:44.161Z</time></trkpt><trkpt lat="40.4631184" lon="9.3846163"><ele>686.0</ele><time>2026-05-02T13:29:45.161Z</time></trkpt><trkpt lat="40.463201" lon="9.3847468"><ele>686.0</ele><time>2026-05-02T13:29:46.16Z</time></trkpt><trkpt lat="40.4632796" lon="9.3848685"><ele>683.0</ele><time>2026-05-02T13:29:47.161Z</time></trkpt><trkpt lat="40.4633306" lon="9.3850077"><ele>680.0</ele><time>2026-05-02T13:29:48.16Z</time></trkpt><trkpt lat="40.4633506" lon="9.3851648"><ele>677.0</ele><time>2026-05-02T13:29:49.16Z</time></trkpt><trkpt lat="40.4633488" lon="9.3853346"><ele>674.0</ele><time>2026-05-02T13:29:50.161Z</time></trkpt><trkpt lat="40.463347" lon="9.3854999"><ele>670.0</ele><time>2026-05-02T13:29:51.161Z</time></trkpt><trkpt lat="40.4633762" lon="9.3856544"><ele>666.0</ele><time>2026-05-02T13:29:52.16Z</time></trkpt><trkpt lat="40.4634429" lon="9.3858004"><ele>662.0</ele><time>2026-05-02T13:29:53.161Z</time></trkpt><trkpt lat="40.4635398" lon="9.3859159"><ele>658.0</ele><time>2026-05-02T13:29:54.16Z</time></trkpt><trkpt lat="40.463641" lon="9.3860077"><ele>658.0</ele><time>2026-05-02T13:29:55.16Z</time></trkpt><trkpt lat="40.463719" lon="9.3861324"><ele>658.0</ele><time>2026-05-02T13:29:56.16Z</time></trkpt><trkpt lat="40.4637676" lon="9.3862744"><ele>658.0</ele><time>2026-05-02T13:29:57.16Z</time></trkpt><trkpt lat="40.4638118" lon="9.3864158"><ele>658.0</ele><time>2026-05-02T13:29:58.16Z</time></trkpt><trkpt lat="40.4638617" lon="9.3865476"><ele>659.5</ele><time>2026-05-02T13:29:59.161Z</time></trkpt><trkpt lat="40.4639512" lon="9.3866463"><ele>661.0</ele><time>2026-05-02T13:30:00.161Z</time></trkpt><trkpt lat="40.4640948" lon="9.3865996"><ele>662.5</ele><time>2026-05-02T13:30:01.161Z</time></trkpt><trkpt lat="40.4641917" lon="9.3866492"><ele>664.0</ele><time>2026-05-02T13:30:02.16Z</time></trkpt><trkpt lat="40.4642601" lon="9.386742"><ele>664.0</ele><time>2026-05-02T13:30:03.161Z</time></trkpt><trkpt lat="40.4643001" lon="9.3868711"><ele>664.0</ele><time>2026-05-02T13:30:04.16Z</time></trkpt><trkpt lat="40.4643283" lon="9.3870352"><ele>664.0</ele><time>2026-05-02T13:30:05.161Z</time></trkpt><trkpt lat="40.4643702" lon="9.3872296"><ele>664.0</ele><time>2026-05-02T13:30:06.161Z</time></trkpt><trkpt lat="40.4644283" lon="9.3874406"><ele>660.75</ele><time>2026-05-02T13:30:07.161Z</time></trkpt><trkpt lat="40.4644805" lon="9.3876351"><ele>657.5</ele><time>2026-05-02T13:30:08.161Z</time></trkpt><trkpt lat="40.4645366" lon="9.3878098"><ele>654.25</ele><time>2026-05-02T13:30:09.161Z</time></trkpt><trkpt lat="40.4646079" lon="9.3879641"><ele>651.0</ele><time>2026-05-02T13:30:10.16Z</time></trkpt><trkpt lat="40.4646986" lon="9.3880897"><ele>651.0</ele><time>2026-05-02T13:30:11.161Z</time></trkpt><trkpt lat="40.4648062" lon="9.3881748"><ele>651.0</ele><time>2026-05-02T13:30:12.161Z</time></trkpt><trkpt lat="40.4649283" lon="9.3882306"><ele>651.0</ele><time>2026-05-02T13:30:13.16Z</time></trkpt><trkpt lat="40.465049" lon="9.3882746"><ele>651.0</ele><time>2026-05-02T13:30:14.16Z</time></trkpt><trkpt lat="40.4651635" lon="9.3883301"><ele>651.0</ele><time>2026-05-02T13:30:15.16Z</time></trkpt><trkpt lat="40.4652511" lon="9.3884313"><ele>651.0</ele><time>2026-05-02T13:30:16.161Z</time></trkpt><trkpt lat="40.4653066" lon="9.3885568"><ele>651.0</ele><time>2026-05-02T13:30:17.16Z</time></trkpt><trkpt lat="40.4653317" lon="9.3887066"><ele>651.0</ele><time>2026-05-02T13:30:18.16Z</time></trkpt><trkpt lat="40.4653355" lon="9.3888874"><ele>647.5</ele><time>2026-05-02T13:30:19.16Z</time></trkpt><trkpt lat="40.465341" lon="9.3890868"><ele>644.0</ele><time>2026-05-02T13:30:20.16Z</time></trkpt><trkpt lat="40.4653706" lon="9.3892685"><ele>640.5</ele><time>2026-05-02T13:30:21.16Z</time></trkpt><trkpt lat="40.4654254" lon="9.3894548"><ele>637.0</ele><time>2026-05-02T13:30:22.16Z</time></trkpt><trkpt lat="40.4654965" lon="9.389629"><ele>640.5</ele><time>2026-05-02T13:30:23.16Z</time></trkpt><trkpt lat="40.4655729" lon="9.3897757"><ele>644.0</ele><time>2026-05-02T13:30:24.161Z</time></trkpt><trkpt lat="40.4656537" lon="9.3899033"><ele>647.5</ele><time>2026-05-02T13:30:25.161Z</time></trkpt><trkpt lat="40.4657449" lon="9.3900007"><ele>651.0</ele><time>2026-05-02T13:30:26.161Z</time></trkpt><trkpt lat="40.465846" lon="9.3900637"><ele>651.0</ele><time>2026-05-02T13:30:27.161Z</time></trkpt><trkpt lat="40.4659449" lon="9.3901279"><ele>651.0</ele><time>2026-05-02T13:30:28.161Z</time></trkpt><trkpt lat="40.4660285" lon="9.3902374"><ele>651.0</ele><time>2026-05-02T13:30:29.161Z</time></trkpt><trkpt lat="40.4660984" lon="9.3903787"><ele>651.0</ele><time>2026-05-02T13:30:30.16Z</time></trkpt><trkpt lat="40.4661703" lon="9.3905285"><ele>649.25</ele><time>2026-05-02T13:30:31.16Z</time></trkpt><trkpt lat="40.4662458" lon="9.3906602"><ele>647.5</ele><time>2026-05-02T13:30:32.16Z</time></trkpt><trkpt lat="40.4663406" lon="9.3907589"><ele>645.75</ele><time>2026-05-02T13:30:33.16Z</time></trkpt><trkpt lat="40.4664517" lon="9.3908174"><ele>644.0</ele><time>2026-05-02T13:30:34.16Z</time></trkpt><trkpt lat="40.4665744" lon="9.3908322"><ele>644.0</ele><time>2026-05-02T13:30:35.16Z</time></trkpt><trkpt lat="40.4666969" lon="9.3908471"><ele>644.0</ele><time>2026-05-02T13:30:36.161Z</time></trkpt><trkpt lat="40.4668049" lon="9.3909006"><ele>644.0</ele><time>2026-05-02T13:30:37.161Z</time></trkpt><trkpt lat="40.4668914" lon="9.3909962"><ele>644.0</ele><time>2026-05-02T13:30:38.16Z</time></trkpt><trkpt lat="40.4669671" lon="9.3911248"><ele>644.0</ele><time>2026-05-02T13:30:39.161Z</time></trkpt><trkpt lat="40.4670544" lon="9.3912614"><ele>644.0</ele><time>2026-05-02T13:30:40.16Z</time></trkpt><trkpt lat="40.4671682" lon="9.3914045"><ele>644.0</ele><time>2026-05-02T13:30:41.161Z</time></trkpt><trkpt lat="40.4672861" lon="9.3915416"><ele>642.3333333333333</ele><time>2026-05-02T13:30:42.161Z</time></trkpt><trkpt lat="40.4674054" lon="9.3916638"><ele>640.6666666666666</ele><time>2026-05-02T13:30:43.161Z</time></trkpt><trkpt lat="40.4675383" lon="9.3917733"><ele>639.0</ele><time>2026-05-02T13:30:44.16Z</time></trkpt><trkpt lat="40.4676746" lon="9.3918576"><ele>639.0</ele><time>2026-05-02T13:30:45.16Z</time></trkpt><trkpt lat="40.4678127" lon="9.391909"><ele>639.0</ele><time>2026-05-02T13:30:46.161Z</time></trkpt><trkpt lat="40.4679458" lon="9.3919251"><ele>639.0</ele><time>2026-05-02T13:30:47.161Z</time></trkpt><trkpt lat="40.4680695" lon="9.391925"><ele>639.0</ele><time>2026-05-02T13:30:48.16Z</time></trkpt><trkpt lat="40.4681806" lon="9.3919539"><ele>640.5</ele><time>2026-05-02T13:30:49.16Z</time></trkpt><trkpt lat="40.4682743" lon="9.3920241"><ele>642.0</ele><time>2026-05-02T13:30:50.16Z</time></trkpt><trkpt lat="40.4683472" lon="9.3921357"><ele>643.5</ele><time>2026-05-02T13:30:51.161Z</time></trkpt><trkpt lat="40.4684064" lon="9.3922735"><ele>645.0</ele><time>2026-05-02T13:30:52.16Z</time></trkpt><trkpt lat="40.4684958" lon="9.3924089"><ele>642.3333333333334</ele><time>2026-05-02T13:30:53.16Z</time></trkpt><trkpt lat="40.468615" lon="9.3925344"><ele>639.6666666666667</ele><time>2026-05-02T13:30:54.161Z</time></trkpt><trkpt lat="40.4687525" lon="9.3926465"><ele>637.0</ele><time>2026-05-02T13:30:55.16Z</time></trkpt><trkpt lat="40.4688945" lon="9.3927424"><ele>637.0</ele><time>2026-05-02T13:30:56.161Z</time></trkpt><trkpt lat="40.469039" lon="9.3928045"><ele>637.0</ele><time>2026-05-02T13:30:57.16Z</time></trkpt><trkpt lat="40.4691824" lon="9.3928296"><ele>637.0</ele><time>2026-05-02T13:30:58.161Z</time></trkpt><trkpt lat="40.4693102" lon="9.3928276"><ele>637.0</ele><time>2026-05-02T13:30:59.16Z</time></trkpt><trkpt lat="40.4694211" lon="9.3928213"><ele>637.0</ele><time>2026-05-02T13:31:00.16Z</time></trkpt><trkpt lat="40.469518" lon="9.3928386"><ele>637.0</ele><time>2026-05-02T13:31:01.16Z</time></trkpt><trkpt lat="40.469592" lon="9.3929066"><ele>637.0</ele><time>2026-05-02T13:31:02.16Z</time></trkpt><trkpt lat="40.4696422" lon="9.3930124"><ele>637.0</ele><time>2026-05-02T13:31:03.16Z</time></trkpt><trkpt lat="40.4696809" lon="9.3931533"><ele>637.0</ele><time>2026-05-02T13:31:04.161Z</time></trkpt><trkpt lat="40.4697244" lon="9.393319"><ele>635.6666666666667</ele><time>2026-05-02T13:31:05.161Z</time></trkpt><trkpt lat="40.4697948" lon="9.393492"><ele>634.3333333333334</ele><time>2026-05-02T13:31:06.161Z</time></trkpt><trkpt lat="40.4698871" lon="9.3936508"><ele>633.0</ele><time>2026-05-02T13:31:07.16Z</time></trkpt><trkpt lat="40.4700042" lon="9.3937968"><ele>624.3333333333334</ele><time>2026-05-02T13:31:08.16Z</time></trkpt><trkpt lat="40.47014" lon="9.3939293"><ele>615.6666666666667</ele><time>2026-05-02T13:31:09.161Z</time></trkpt><trkpt lat="40.4702814" lon="9.3940489"><ele>607.0</ele><time>2026-05-02T13:31:10.16Z</time></trkpt><trkpt lat="40.4704213" lon="9.3941518"><ele>609.5</ele><time>2026-05-02T13:31:11.161Z</time></trkpt><trkpt lat="40.4705634" lon="9.3942285"><ele>612.0</ele><time>2026-05-02T13:31:12.16Z</time></trkpt><trkpt lat="40.4707084" lon="9.3942634"><ele>614.5</ele><time>2026-05-02T13:31:13.161Z</time></trkpt><trkpt lat="40.4708438" lon="9.3942637"><ele>617.0</ele><time>2026-05-02T13:31:14.161Z</time></trkpt><trkpt lat="40.4709618" lon="9.3942244"><ele>617.0</ele><time>2026-05-02T13:31:15.16Z</time></trkpt><trkpt lat="40.471061" lon="9.3941539"><ele>617.0</ele><time>2026-05-02T13:31:16.161Z</time></trkpt><trkpt lat="40.4711543" lon="9.3940825"><ele>617.0</ele><time>2026-05-02T13:31:17.16Z</time></trkpt><trkpt lat="40.4712568" lon="9.3940549"><ele>617.0</ele><time>2026-05-02T13:31:18.16Z</time></trkpt><trkpt lat="40.4713671" lon="9.3940723"><ele>617.0</ele><time>2026-05-02T13:31:19.16Z</time></trkpt><trkpt lat="40.4714804" lon="9.3941405"><ele>618.3333333333333</ele><time>2026-05-02T13:31:20.16Z</time></trkpt><trkpt lat="40.4715927" lon="9.3942487"><ele>619.6666666666666</ele><time>2026-05-02T13:31:21.16Z</time></trkpt><trkpt lat="40.4717073" lon="9.394394"><ele>621.0</ele><time>2026-05-02T13:31:22.16Z</time></trkpt><trkpt lat="40.471834" lon="9.3945464"><ele>621.0</ele><time>2026-05-02T13:31:23.161Z</time></trkpt><trkpt lat="40.4719633" lon="9.3946688"><ele>621.0</ele><time>2026-05-02T13:31:24.16Z</time></trkpt><trkpt lat="40.4720814" lon="9.3948045"><ele>621.0</ele><time>2026-05-02T13:31:25.161Z</time></trkpt><trkpt lat="40.4721912" lon="9.3949649"><ele>618.0</ele><time>2026-05-02T13:31:26.16Z</time></trkpt><trkpt lat="40.4723014" lon="9.3951244"><ele>615.0</ele><time>2026-05-02T13:31:27.161Z</time></trkpt><trkpt lat="40.4724216" lon="9.3952557"><ele>612.0</ele><time>2026-05-02T13:31:28.16Z</time></trkpt><trkpt lat="40.4725598" lon="9.3953656"><ele>612.0</ele><time>2026-05-02T13:31:29.161Z</time></trkpt><trkpt lat="40.4727066" lon="9.3954558"><ele>612.0</ele><time>2026-05-02T13:31:30.16Z</time></trkpt><trkpt lat="40.4728534" lon="9.3955378"><ele>612.0</ele><time>2026-05-02T13:31:31.16Z</time></trkpt><trkpt lat="40.4729941" lon="9.3956183"><ele>607.5</ele><time>2026-05-02T13:31:32.16Z</time></trkpt><trkpt lat="40.4731263" lon="9.3956949"><ele>603.0</ele><time>2026-05-02T13:31:33.161Z</time></trkpt><trkpt lat="40.4732519" lon="9.395756"><ele>598.5</ele><time>2026-05-02T13:31:34.161Z</time></trkpt><trkpt lat="40.4733767" lon="9.3957904"><ele>594.0</ele><time>2026-05-02T13:31:35.16Z</time></trkpt><trkpt lat="40.4734996" lon="9.3957788"><ele>594.0</ele><time>2026-05-02T13:31:36.161Z</time></trkpt><trkpt lat="40.4736205" lon="9.3957227"><ele>594.0</ele><time>2026-05-02T13:31:37.16Z</time></trkpt><trkpt lat="40.4737424" lon="9.3956358"><ele>594.0</ele><time>2026-05-02T13:31:38.161Z</time></trkpt><trkpt lat="40.4738694" lon="9.3955387"><ele>594.0</ele><time>2026-05-02T13:31:39.161Z</time></trkpt><trkpt lat="40.473999" lon="9.3954446"><ele>596.0</ele><time>2026-05-02T13:31:40.16Z</time></trkpt><trkpt lat="40.4741224" lon="9.3953524"><ele>598.0</ele><time>2026-05-02T13:31:41.16Z</time></trkpt><trkpt lat="40.4742365" lon="9.3952493"><ele>600.0</ele><time>2026-05-02T13:31:42.16Z</time></trkpt><trkpt lat="40.4743332" lon="9.3951115"><ele>602.0</ele><time>2026-05-02T13:31:43.161Z</time></trkpt><trkpt lat="40.4744087" lon="9.3949498"><ele>602.0</ele><time>2026-05-02T13:31:44.161Z</time></trkpt><trkpt lat="40.4744715" lon="9.3947695"><ele>602.0</ele><time>2026-05-02T13:31:45.161Z</time></trkpt><trkpt lat="40.4745451" lon="9.3945831"><ele>602.0</ele><time>2026-05-02T13:31:46.161Z</time></trkpt><trkpt lat="40.4746347" lon="9.3944012"><ele>597.0</ele><time>2026-05-02T13:31:47.16Z</time></trkpt><trkpt lat="40.47474" lon="9.3942261"><ele>592.0</ele><time>2026-05-02T13:31:48.161Z</time></trkpt><trkpt lat="40.4748465" lon="9.3940639"><ele>587.0</ele><time>2026-05-02T13:31:49.161Z</time></trkpt><trkpt lat="40.4749436" lon="9.3939133"><ele>590.75</ele><time>2026-05-02T13:31:50.16Z</time></trkpt><trkpt lat="40.4750327" lon="9.3937737"><ele>594.5</ele><time>2026-05-02T13:31:51.16Z</time></trkpt><trkpt lat="40.4751141" lon="9.3936536"><ele>598.25</ele><time>2026-05-02T13:31:52.161Z</time></trkpt><trkpt lat="40.4752047" lon="9.3935589"><ele>602.0</ele><time>2026-05-02T13:31:53.16Z</time></trkpt><trkpt lat="40.475308" lon="9.393507"><ele>602.0</ele><time>2026-05-02T13:31:54.16Z</time></trkpt><trkpt lat="40.4754195" lon="9.393502"><ele>602.0</ele><time>2026-05-02T13:31:55.161Z</time></trkpt><trkpt lat="40.475535" lon="9.3935333"><ele>602.0</ele><time>2026-05-02T13:31:56.161Z</time></trkpt><trkpt lat="40.4756564" lon="9.3935711"><ele>602.0</ele><time>2026-05-02T13:31:57.161Z</time></trkpt><trkpt lat="40.4757859" lon="9.3935699"><ele>599.25</ele><time>2026-05-02T13:31:58.161Z</time></trkpt><trkpt lat="40.4759173" lon="9.393511"><ele>596.5</ele><time>2026-05-02T13:31:59.161Z</time></trkpt><trkpt lat="40.4760457" lon="9.3934235"><ele>593.75</ele><time>2026-05-02T13:32:00.16Z</time></trkpt><trkpt lat="40.4761538" lon="9.3933257"><ele>591.0</ele><time>2026-05-02T13:32:01.16Z</time></trkpt><trkpt lat="40.476232" lon="9.3932022"><ele>591.0</ele><time>2026-05-02T13:32:02.161Z</time></trkpt><trkpt lat="40.476269" lon="9.3930532"><ele>591.0</ele><time>2026-05-02T13:32:03.16Z</time></trkpt><trkpt lat="40.4762765" lon="9.392885"><ele>591.0</ele><time>2026-05-02T13:32:04.16Z</time></trkpt><trkpt lat="40.4762702" lon="9.3926946"><ele>591.0</ele><time>2026-05-02T13:32:05.161Z</time></trkpt><trkpt lat="40.4762649" lon="9.3925047"><ele>591.0</ele><time>2026-05-02T13:32:06.16Z</time></trkpt><trkpt lat="40.4762705" lon="9.3923377"><ele>591.0</ele><time>2026-05-02T13:32:07.161Z</time></trkpt><trkpt lat="40.4763076" lon="9.3921848"><ele>591.0</ele><time>2026-05-02T13:32:08.16Z</time></trkpt><trkpt lat="40.4763778" lon="9.3920653"><ele>591.0</ele><time>2026-05-02T13:32:09.161Z</time></trkpt><trkpt lat="40.4764758" lon="9.3919878"><ele>591.0</ele><time>2026-05-02T13:32:10.161Z</time></trkpt><trkpt lat="40.4765947" lon="9.3919368"><ele>591.0</ele><time>2026-05-02T13:32:11.161Z</time></trkpt><trkpt lat="40.4767381" lon="9.3918987"><ele>591.0</ele><time>2026-05-02T13:32:12.161Z</time></trkpt><trkpt lat="40.4768869" lon="9.3918468"><ele>591.0</ele><time>2026-05-02T13:32:13.161Z</time></trkpt><trkpt lat="40.4770295" lon="9.3917534"><ele>584.3333333333334</ele><time>2026-05-02T13:32:14.161Z</time></trkpt><trkpt lat="40.4771611" lon="9.3916446"><ele>577.6666666666667</ele><time>2026-05-02T13:32:15.16Z</time></trkpt><trkpt lat="40.4772816" lon="9.3915281"><ele>571.0</ele><time>2026-05-02T13:32:16.161Z</time></trkpt><trkpt lat="40.4773963" lon="9.3914095"><ele>572.75</ele><time>2026-05-02T13:32:17.16Z</time></trkpt><trkpt lat="40.4774955" lon="9.3912826"><ele>574.5</ele><time>2026-05-02T13:32:18.16Z</time></trkpt><trkpt lat="40.4775808" lon="9.3911434"><ele>576.25</ele><time>2026-05-02T13:32:19.161Z</time></trkpt><trkpt lat="40.477651" lon="9.390995"><ele>578.0</ele><time>2026-05-02T13:32:20.161Z</time></trkpt><trkpt lat="40.4777036" lon="9.3908262"><ele>578.0</ele><time>2026-05-02T13:32:21.16Z</time></trkpt><trkpt lat="40.4777283" lon="9.3906429"><ele>578.0</ele><time>2026-05-02T13:32:22.16Z</time></trkpt><trkpt lat="40.4777299" lon="9.3904465"><ele>578.0</ele><time>2026-05-02T13:32:23.16Z</time></trkpt><trkpt lat="40.477717" lon="9.3902411"><ele>578.0</ele><time>2026-05-02T13:32:24.16Z</time></trkpt><trkpt lat="40.4777007" lon="9.3900514"><ele>578.0</ele><time>2026-05-02T13:32:25.161Z</time></trkpt><trkpt lat="40.4776866" lon="9.3898928"><ele>578.0</ele><time>2026-05-02T13:32:26.16Z</time></trkpt><trkpt lat="40.477677" lon="9.3897744"><ele>578.0</ele><time>2026-05-02T13:32:27.16Z</time></trkpt><trkpt lat="40.4776696" lon="9.3896806"><ele>578.0</ele><time>2026-05-02T13:32:28.16Z</time></trkpt><trkpt lat="40.4776467" lon="9.3895244"><ele>578.0</ele><time>2026-05-02T13:32:30.161Z</time></trkpt><trkpt lat="40.4776139" lon="9.3894434"><ele>578.0</ele><time>2026-05-02T13:32:31.16Z</time></trkpt><trkpt lat="40.4775715" lon="9.3893579"><ele>578.0</ele><time>2026-05-02T13:32:32.16Z</time></trkpt><trkpt lat="40.4775218" lon="9.3892615"><ele>578.0</ele><time>2026-05-02T13:32:33.161Z</time></trkpt><trkpt lat="40.4774681" lon="9.3891559"><ele>578.0</ele><time>2026-05-02T13:32:34.16Z</time></trkpt><trkpt lat="40.4774156" lon="9.3890431"><ele>578.0</ele><time>2026-05-02T13:32:35.16Z</time></trkpt><trkpt lat="40.4773637" lon="9.3889195"><ele>576.3333333333333</ele><time>2026-05-02T13:32:36.16Z</time></trkpt><trkpt lat="40.4773173" lon="9.3887916"><ele>574.6666666666666</ele><time>2026-05-02T13:32:37.16Z</time></trkpt><trkpt lat="40.4772787" lon="9.388677"><ele>573.0</ele><time>2026-05-02T13:32:38.16Z</time></trkpt><trkpt lat="40.4772409" lon="9.3885765"><ele>571.3333333333334</ele><time>2026-05-02T13:32:39.161Z</time></trkpt><trkpt lat="40.4772005" lon="9.3884905"><ele>569.6666666666667</ele><time>2026-05-02T13:32:40.16Z</time></trkpt><trkpt lat="40.4771536" lon="9.3884034"><ele>568.0</ele><time>2026-05-02T13:32:41.161Z</time></trkpt><trkpt lat="40.4770967" lon="9.3883147"><ele>568.6</ele><time>2026-05-02T13:32:42.161Z</time></trkpt><trkpt lat="40.4770279" lon="9.3882308"><ele>569.1999999999999</ele><time>2026-05-02T13:32:43.16Z</time></trkpt><trkpt lat="40.4769409" lon="9.3881521"><ele>569.8</ele><time>2026-05-02T13:32:44.161Z</time></trkpt><trkpt lat="40.4768412" lon="9.3880721"><ele>570.4</ele><time>2026-05-02T13:32:45.16Z</time></trkpt><trkpt lat="40.4767303" lon="9.3879918"><ele>571.0</ele><time>2026-05-02T13:32:46.161Z</time></trkpt><trkpt lat="40.4766122" lon="9.3879091"><ele>571.0</ele><time>2026-05-02T13:32:47.16Z</time></trkpt><trkpt lat="40.4764949" lon="9.3878292"><ele>571.0</ele><time>2026-05-02T13:32:48.16Z</time></trkpt><trkpt lat="40.4763838" lon="9.3877516"><ele>571.0</ele><time>2026-05-02T13:32:49.16Z</time></trkpt><trkpt lat="40.4762743" lon="9.3876784"><ele>571.0</ele><time>2026-05-02T13:32:50.16Z</time></trkpt><trkpt lat="40.4761683" lon="9.3876064"><ele>574.4</ele><time>2026-05-02T13:32:51.16Z</time></trkpt><trkpt lat="40.4760644" lon="9.3875396"><ele>577.8</ele><time>2026-05-02T13:32:52.16Z</time></trkpt><trkpt lat="40.4759653" lon="9.3874692"><ele>581.1999999999999</ele><time>2026-05-02T13:32:53.161Z</time></trkpt><trkpt lat="40.4758739" lon="9.3873853"><ele>584.6</ele><time>2026-05-02T13:32:54.161Z</time></trkpt><trkpt lat="40.4758043" lon="9.3872833"><ele>588.0</ele><time>2026-05-02T13:32:55.16Z</time></trkpt><trkpt lat="40.4757564" lon="9.387161"><ele>588.0</ele><time>2026-05-02T13:32:56.161Z</time></trkpt><trkpt lat="40.4757352" lon="9.3870229"><ele>588.0</ele><time>2026-05-02T13:32:57.161Z</time></trkpt><trkpt lat="40.4757289" lon="9.3868679"><ele>588.0</ele><time>2026-05-02T13:32:58.161Z</time></trkpt><trkpt lat="40.4757223" lon="9.3866974"><ele>588.0</ele><time>2026-05-02T13:32:59.161Z</time></trkpt><trkpt lat="40.4756883" lon="9.3865227"><ele>588.0</ele><time>2026-05-02T13:33:00.16Z</time></trkpt><trkpt lat="40.4756343" lon="9.386349"><ele>588.0</ele><time>2026-05-02T13:33:01.16Z</time></trkpt><trkpt lat="40.4755599" lon="9.3861919"><ele>588.0</ele><time>2026-05-02T13:33:02.16Z</time></trkpt><trkpt lat="40.4754585" lon="9.3860615"><ele>588.0</ele><time>2026-05-02T13:33:03.161Z</time></trkpt><trkpt lat="40.4753396" lon="9.3859664"><ele>592.0</ele><time>2026-05-02T13:33:04.161Z</time></trkpt><trkpt lat="40.4752064" lon="9.3859015"><ele>596.0</ele><time>2026-05-02T13:33:05.16Z</time></trkpt><trkpt lat="40.475085" lon="9.3858572"><ele>600.0</ele><time>2026-05-02T13:33:06.161Z</time></trkpt><trkpt lat="40.4749764" lon="9.3858029"><ele>604.0</ele><time>2026-05-02T13:33:07.161Z</time></trkpt><trkpt lat="40.474886" lon="9.3857178"><ele>604.0</ele><time>2026-05-02T13:33:08.16Z</time></trkpt><trkpt lat="40.4748312" lon="9.3856096"><ele>604.0</ele><time>2026-05-02T13:33:09.161Z</time></trkpt><trkpt lat="40.4748008" lon="9.3854871"><ele>604.0</ele><time>2026-05-02T13:33:10.161Z</time></trkpt><trkpt lat="40.4747822" lon="9.3853453"><ele>604.0</ele><time>2026-05-02T13:33:11.16Z</time></trkpt><trkpt lat="40.4747443" lon="9.3852001"><ele>604.0</ele><time>2026-05-02T13:33:12.16Z</time></trkpt><trkpt lat="40.474678" lon="9.3850433"><ele>602.0</ele><time>2026-05-02T13:33:13.161Z</time></trkpt><trkpt lat="40.474593" lon="9.3848765"><ele>600.0</ele><time>2026-05-02T13:33:14.16Z</time></trkpt><trkpt lat="40.4744908" lon="9.3847068"><ele>598.0</ele><time>2026-05-02T13:33:15.16Z</time></trkpt><trkpt lat="40.4743834" lon="9.3845454"><ele>598.0</ele><time>2026-05-02T13:33:16.161Z</time></trkpt><trkpt lat="40.4742794" lon="9.384385"><ele>598.0</ele><time>2026-05-02T13:33:17.161Z</time></trkpt><trkpt lat="40.4741741" lon="9.3842214"><ele>598.0</ele><time>2026-05-02T13:33:18.16Z</time></trkpt><trkpt lat="40.4740646" lon="9.3840548"><ele>598.0</ele><time>2026-05-02T13:33:19.161Z</time></trkpt><trkpt lat="40.4739545" lon="9.3838804"><ele>598.0</ele><time>2026-05-02T13:33:20.161Z</time></trkpt><trkpt lat="40.473843" lon="9.3836996"><ele>598.0</ele><time>2026-05-02T13:33:21.16Z</time></trkpt><trkpt lat="40.4737257" lon="9.3835186"><ele>597.3333333333334</ele><time>2026-05-02T13:33:22.161Z</time></trkpt><trkpt lat="40.4736076" lon="9.383333"><ele>596.6666666666666</ele><time>2026-05-02T13:33:23.16Z</time></trkpt><trkpt lat="40.4734909" lon="9.3831531"><ele>596.0</ele><time>2026-05-02T13:33:24.161Z</time></trkpt><trkpt lat="40.4733855" lon="9.3829865"><ele>596.0</ele><time>2026-05-02T13:33:25.16Z</time></trkpt><trkpt lat="40.4732831" lon="9.3828267"><ele>596.0</ele><time>2026-05-02T13:33:26.161Z</time></trkpt><trkpt lat="40.473183" lon="9.3826785"><ele>596.0</ele><time>2026-05-02T13:33:27.161Z</time></trkpt><trkpt lat="40.4730884" lon="9.3825514"><ele>596.0</ele><time>2026-05-02T13:33:28.161Z</time></trkpt><trkpt lat="40.4729916" lon="9.3824387"><ele>597.25</ele><time>2026-05-02T13:33:29.16Z</time></trkpt><trkpt lat="40.4728945" lon="9.3823383"><ele>598.5</ele><time>2026-05-02T13:33:30.161Z</time></trkpt><trkpt lat="40.4727962" lon="9.3822433"><ele>599.75</ele><time>2026-05-02T13:33:31.161Z</time></trkpt><trkpt lat="40.4726927" lon="9.3821444"><ele>601.0</ele><time>2026-05-02T13:33:32.16Z</time></trkpt><trkpt lat="40.4725853" lon="9.3820411"><ele>601.0</ele><time>2026-05-02T13:33:33.161Z</time></trkpt><trkpt lat="40.4724741" lon="9.3819307"><ele>601.0</ele><time>2026-05-02T13:33:34.161Z</time></trkpt><trkpt lat="40.4723547" lon="9.3818216"><ele>601.0</ele><time>2026-05-02T13:33:35.161Z</time></trkpt><trkpt lat="40.4722294" lon="9.3817063"><ele>601.0</ele><time>2026-05-02T13:33:36.16Z</time></trkpt><trkpt lat="40.4721007" lon="9.3815871"><ele>603.3333333333334</ele><time>2026-05-02T13:33:37.16Z</time></trkpt><trkpt lat="40.4719702" lon="9.3814669"><ele>605.6666666666666</ele><time>2026-05-02T13:33:38.161Z</time></trkpt><trkpt lat="40.4718365" lon="9.3813397"><ele>608.0</ele><time>2026-05-02T13:33:39.161Z</time></trkpt><trkpt lat="40.4716994" lon="9.3812152"><ele>608.0</ele><time>2026-05-02T13:33:40.16Z</time></trkpt><trkpt lat="40.4715638" lon="9.3810958"><ele>608.0</ele><time>2026-05-02T13:33:41.161Z</time></trkpt><trkpt lat="40.4714395" lon="9.3809817"><ele>608.0</ele><time>2026-05-02T13:33:42.16Z</time></trkpt><trkpt lat="40.4713294" lon="9.3808804"><ele>608.0</ele><time>2026-05-02T13:33:43.16Z</time></trkpt><trkpt lat="40.4712439" lon="9.3807818"><ele>613.6</ele><time>2026-05-02T13:33:44.16Z</time></trkpt><trkpt lat="40.4711904" lon="9.3806732"><ele>619.1999999999999</ele><time>2026-05-02T13:33:45.16Z</time></trkpt><trkpt lat="40.4711681" lon="9.380557"><ele>624.8</ele><time>2026-05-02T13:33:46.161Z</time></trkpt><trkpt lat="40.4711746" lon="9.3804388"><ele>630.4</ele><time>2026-05-02T13:33:47.16Z</time></trkpt><trkpt lat="40.4712077" lon="9.380315"><ele>636.0</ele><time>2026-05-02T13:33:48.16Z</time></trkpt><trkpt lat="40.4712657" lon="9.3801978"><ele>632.5</ele><time>2026-05-02T13:33:49.161Z</time></trkpt><trkpt lat="40.4713475" lon="9.3801049"><ele>629.0</ele><time>2026-05-02T13:33:50.16Z</time></trkpt><trkpt lat="40.4714476" lon="9.3800476"><ele>625.5</ele><time>2026-05-02T13:33:51.161Z</time></trkpt><trkpt lat="40.4715673" lon="9.3800152"><ele>622.0</ele><time>2026-05-02T13:33:52.161Z</time></trkpt><trkpt lat="40.4717045" lon="9.379988"><ele>622.0</ele><time>2026-05-02T13:33:53.16Z</time></trkpt><trkpt lat="40.4718585" lon="9.3799578"><ele>622.0</ele><time>2026-05-02T13:33:54.161Z</time></trkpt><trkpt lat="40.4720208" lon="9.3799255"><ele>622.0</ele><time>2026-05-02T13:33:55.16Z</time></trkpt><trkpt lat="40.4721845" lon="9.3798915"><ele>618.3333333333334</ele><time>2026-05-02T13:33:56.16Z</time></trkpt><trkpt lat="40.4723397" lon="9.3798546"><ele>614.6666666666666</ele><time>2026-05-02T13:33:57.16Z</time></trkpt><trkpt lat="40.4724901" lon="9.3798205"><ele>611.0</ele><time>2026-05-02T13:33:58.16Z</time></trkpt><trkpt lat="40.4726378" lon="9.3797863"><ele>611.0</ele><time>2026-05-02T13:33:59.161Z</time></trkpt><trkpt lat="40.4727791" lon="9.3797688"><ele>611.0</ele><time>2026-05-02T13:34:00.161Z</time></trkpt><trkpt lat="40.4729144" lon="9.3797856"><ele>611.0</ele><time>2026-05-02T13:34:01.16Z</time></trkpt><trkpt lat="40.4730446" lon="9.3798412"><ele>611.0</ele><time>2026-05-02T13:34:02.16Z</time></trkpt><trkpt lat="40.4731758" lon="9.3799201"><ele>612.6666666666666</ele><time>2026-05-02T13:34:03.161Z</time></trkpt><trkpt lat="40.4733189" lon="9.3799994"><ele>614.3333333333334</ele><time>2026-05-02T13:34:04.161Z</time></trkpt><trkpt lat="40.4734734" lon="9.380061"><ele>616.0</ele><time>2026-05-02T13:34:05.161Z</time></trkpt><trkpt lat="40.4736361" lon="9.3800978"><ele>617.0</ele><time>2026-05-02T13:34:06.161Z</time></trkpt><trkpt lat="40.4737972" lon="9.3801006"><ele>618.0</ele><time>2026-05-02T13:34:07.16Z</time></trkpt><trkpt lat="40.4739502" lon="9.3800765"><ele>619.0</ele><time>2026-05-02T13:34:08.161Z</time></trkpt><trkpt lat="40.4740954" lon="9.3800407"><ele>619.0</ele><time>2026-05-02T13:34:09.16Z</time></trkpt><trkpt lat="40.474234" lon="9.3800063"><ele>619.0</ele><time>2026-05-02T13:34:10.161Z</time></trkpt><trkpt lat="40.4743687" lon="9.379968"><ele>619.0</ele><time>2026-05-02T13:34:11.161Z</time></trkpt><trkpt lat="40.4745059" lon="9.379931"><ele>619.0</ele><time>2026-05-02T13:34:12.16Z</time></trkpt><trkpt lat="40.4746467" lon="9.3798892"><ele>616.5</ele><time>2026-05-02T13:34:13.16Z</time></trkpt><trkpt lat="40.4747878" lon="9.379844"><ele>614.0</ele><time>2026-05-02T13:34:14.161Z</time></trkpt><trkpt lat="40.4749251" lon="9.379803"><ele>611.5</ele><time>2026-05-02T13:34:15.161Z</time></trkpt><trkpt lat="40.4750618" lon="9.3797759"><ele>609.0</ele><time>2026-05-02T13:34:16.16Z</time></trkpt><trkpt lat="40.4751917" lon="9.3797633"><ele>609.0</ele><time>2026-05-02T13:34:17.16Z</time></trkpt><trkpt lat="40.4752933" lon="9.3797692"><ele>609.0</ele><time>2026-05-02T13:34:18.16Z</time></trkpt><trkpt lat="40.475378" lon="9.3797889"><ele>609.0</ele><time>2026-05-02T13:34:19.16Z</time></trkpt><trkpt lat="40.4754602" lon="9.3798121"><ele>609.0</ele><time>2026-05-02T13:34:20.16Z</time></trkpt><trkpt lat="40.4755471" lon="9.3798415"><ele>609.0</ele><time>2026-05-02T13:34:21.16Z</time></trkpt><trkpt lat="40.4756388" lon="9.3798793"><ele>609.75</ele><time>2026-05-02T13:34:22.161Z</time></trkpt><trkpt lat="40.4757376" lon="9.3799212"><ele>610.5</ele><time>2026-05-02T13:34:23.161Z</time></trkpt><trkpt lat="40.4758478" lon="9.3799563"><ele>611.25</ele><time>2026-05-02T13:34:24.161Z</time></trkpt><trkpt lat="40.4759659" lon="9.3799783"><ele>612.0</ele><time>2026-05-02T13:34:25.161Z</time></trkpt><trkpt lat="40.476092" lon="9.3799756"><ele>612.0</ele><time>2026-05-02T13:34:26.161Z</time></trkpt><trkpt lat="40.4762227" lon="9.3799466"><ele>612.0</ele><time>2026-05-02T13:34:27.16Z</time></trkpt><trkpt lat="40.476361" lon="9.3798972"><ele>612.0</ele><time>2026-05-02T13:34:28.161Z</time></trkpt><trkpt lat="40.4765054" lon="9.3798387"><ele>612.0</ele><time>2026-05-02T13:34:29.161Z</time></trkpt><trkpt lat="40.4766498" lon="9.3797659"><ele>610.5</ele><time>2026-05-02T13:34:30.161Z</time></trkpt><trkpt lat="40.4767842" lon="9.37967"><ele>609.0</ele><time>2026-05-02T13:34:31.161Z</time></trkpt><trkpt lat="40.4769014" lon="9.3795636"><ele>607.5</ele><time>2026-05-02T13:34:32.161Z</time></trkpt><trkpt lat="40.4770101" lon="9.3794514"><ele>606.0</ele><time>2026-05-02T13:34:33.16Z</time></trkpt><trkpt lat="40.4771103" lon="9.3793342"><ele>606.0</ele><time>2026-05-02T13:34:34.161Z</time></trkpt><trkpt lat="40.4772049" lon="9.3792187"><ele>606.0</ele><time>2026-05-02T13:34:35.16Z</time></trkpt><trkpt lat="40.4772896" lon="9.3791151"><ele>606.0</ele><time>2026-05-02T13:34:36.161Z</time></trkpt><trkpt lat="40.4773561" lon="9.37903"><ele>606.0</ele><time>2026-05-02T13:34:37.16Z</time></trkpt><trkpt lat="40.477417" lon="9.3789527"><ele>606.0</ele><time>2026-05-02T13:34:38.161Z</time></trkpt><trkpt lat="40.4774708" lon="9.3788814"><ele>608.6</ele><time>2026-05-02T13:34:39.161Z</time></trkpt><trkpt lat="40.4775169" lon="9.3788154"><ele>611.2</ele><time>2026-05-02T13:34:40.16Z</time></trkpt><trkpt lat="40.4775998" lon="9.378704"><ele>613.8</ele><time>2026-05-02T13:34:42.16Z</time></trkpt><trkpt lat="40.4776808" lon="9.3785892"><ele>616.4</ele><time>2026-05-02T13:34:44.16Z</time></trkpt><trkpt lat="40.4777331" lon="9.3784483"><ele>619.0</ele><time>2026-05-02T13:34:46.16Z</time></trkpt><trkpt lat="40.4776877" lon="9.3783116"><ele>619.0</ele><time>2026-05-02T13:34:48.161Z</time></trkpt><trkpt lat="40.4776356" lon="9.3782455"><ele>619.0</ele><time>2026-05-02T13:34:49.161Z</time></trkpt><trkpt lat="40.4775593" lon="9.3781714"><ele>619.0</ele><time>2026-05-02T13:34:50.16Z</time></trkpt><trkpt lat="40.4774678" lon="9.3780867"><ele>619.0</ele><time>2026-05-02T13:34:51.161Z</time></trkpt><trkpt lat="40.4773774" lon="9.3779846"><ele>619.0</ele><time>2026-05-02T13:34:52.16Z</time></trkpt><trkpt lat="40.4772902" lon="9.3778646"><ele>619.25</ele><time>2026-05-02T13:34:53.16Z</time></trkpt><trkpt lat="40.4772135" lon="9.3777283"><ele>619.5</ele><time>2026-05-02T13:34:54.161Z</time></trkpt><trkpt lat="40.4771459" lon="9.3775771"><ele>619.75</ele><time>2026-05-02T13:34:55.161Z</time></trkpt><trkpt lat="40.4770919" lon="9.377411"><ele>620.0</ele><time>2026-05-02T13:34:56.16Z</time></trkpt><trkpt lat="40.4770476" lon="9.3772361"><ele>626.75</ele><time>2026-05-02T13:34:57.16Z</time></trkpt><trkpt lat="40.4770042" lon="9.3770563"><ele>633.5</ele><time>2026-05-02T13:34:58.161Z</time></trkpt><trkpt lat="40.4769594" lon="9.3768728"><ele>640.25</ele><time>2026-05-02T13:34:59.161Z</time></trkpt><trkpt lat="40.4769116" lon="9.3766884"><ele>647.0</ele><time>2026-05-02T13:35:00.161Z</time></trkpt><trkpt lat="40.4768658" lon="9.3765039"><ele>644.75</ele><time>2026-05-02T13:35:01.161Z</time></trkpt><trkpt lat="40.4768209" lon="9.3763187"><ele>642.5</ele><time>2026-05-02T13:35:02.16Z</time></trkpt><trkpt lat="40.4767761" lon="9.3761328"><ele>640.25</ele><time>2026-05-02T13:35:03.161Z</time></trkpt><trkpt lat="40.4767297" lon="9.3759418"><ele>638.0</ele><time>2026-05-02T13:35:04.16Z</time></trkpt><trkpt lat="40.4766803" lon="9.3757469"><ele>638.0</ele><time>2026-05-02T13:35:05.161Z</time></trkpt><trkpt lat="40.4766284" lon="9.3755436"><ele>638.0</ele><time>2026-05-02T13:35:06.161Z</time></trkpt><trkpt lat="40.4765755" lon="9.375331"><ele>638.0</ele><time>2026-05-02T13:35:07.16Z</time></trkpt><trkpt lat="40.4765218" lon="9.3751121"><ele>635.6666666666666</ele><time>2026-05-02T13:35:08.161Z</time></trkpt><trkpt lat="40.4764728" lon="9.3748836"><ele>633.3333333333334</ele><time>2026-05-02T13:35:09.16Z</time></trkpt><trkpt lat="40.4764368" lon="9.3746519"><ele>631.0</ele><time>2026-05-02T13:35:10.161Z</time></trkpt><trkpt lat="40.4764213" lon="9.3744209"><ele>629.6666666666667</ele><time>2026-05-02T13:35:11.16Z</time></trkpt><trkpt lat="40.476431" lon="9.374192"><ele>628.3333333333334</ele><time>2026-05-02T13:35:12.161Z</time></trkpt><trkpt lat="40.4764659" lon="9.3739744"><ele>627.0</ele><time>2026-05-02T13:35:13.16Z</time></trkpt><trkpt lat="40.4765256" lon="9.3737643"><ele>630.0</ele><time>2026-05-02T13:35:14.16Z</time></trkpt><trkpt lat="40.4765856" lon="9.3735498"><ele>633.0</ele><time>2026-05-02T13:35:15.16Z</time></trkpt><trkpt lat="40.4766212" lon="9.3733167"><ele>636.0</ele><time>2026-05-02T13:35:16.161Z</time></trkpt><trkpt lat="40.4766293" lon="9.3730778"><ele>635.3333333333334</ele><time>2026-05-02T13:35:17.16Z</time></trkpt><trkpt lat="40.4766073" lon="9.3728479"><ele>634.6666666666667</ele><time>2026-05-02T13:35:18.161Z</time></trkpt><trkpt lat="40.4765559" lon="9.3726381"><ele>634.0</ele><time>2026-05-02T13:35:19.16Z</time></trkpt><trkpt lat="40.4764803" lon="9.3724375"><ele>634.0</ele><time>2026-05-02T13:35:20.161Z</time></trkpt><trkpt lat="40.4763842" lon="9.3722509"><ele>634.0</ele><time>2026-05-02T13:35:21.16Z</time></trkpt><trkpt lat="40.4762671" lon="9.3720853"><ele>634.0</ele><time>2026-05-02T13:35:22.16Z</time></trkpt><trkpt lat="40.4761297" lon="9.37195"><ele>634.6666666666667</ele><time>2026-05-02T13:35:23.16Z</time></trkpt><trkpt lat="40.4759783" lon="9.3718431"><ele>635.3333333333334</ele><time>2026-05-02T13:35:24.16Z</time></trkpt><trkpt lat="40.4758142" lon="9.3717734"><ele>636.0</ele><time>2026-05-02T13:35:25.16Z</time></trkpt><trkpt lat="40.4756443" lon="9.3717364"><ele>636.0</ele><time>2026-05-02T13:35:26.16Z</time></trkpt><trkpt lat="40.4754725" lon="9.3717128"><ele>636.0</ele><time>2026-05-02T13:35:27.161Z</time></trkpt><trkpt lat="40.475302" lon="9.3716658"><ele>636.0</ele><time>2026-05-02T13:35:28.161Z</time></trkpt><trkpt lat="40.4751375" lon="9.3715895"><ele>634.6666666666666</ele><time>2026-05-02T13:35:29.161Z</time></trkpt><trkpt lat="40.4749787" lon="9.3714911"><ele>633.3333333333333</ele><time>2026-05-02T13:35:30.161Z</time></trkpt><trkpt lat="40.4748277" lon="9.3713786"><ele>632.0</ele><time>2026-05-02T13:35:31.161Z</time></trkpt><trkpt lat="40.4746856" lon="9.3712621"><ele>635.75</ele><time>2026-05-02T13:35:32.16Z</time></trkpt><trkpt lat="40.4745515" lon="9.3711498"><ele>639.5</ele><time>2026-05-02T13:35:33.16Z</time></trkpt><trkpt lat="40.4744227" lon="9.371046"><ele>643.25</ele><time>2026-05-02T13:35:34.16Z</time></trkpt><trkpt lat="40.4743146" lon="9.3709619"><ele>647.0</ele><time>2026-05-02T13:35:35.16Z</time></trkpt><trkpt lat="40.474222" lon="9.3708925"><ele>647.0</ele><time>2026-05-02T13:35:36.16Z</time></trkpt><trkpt lat="40.4741404" lon="9.3708293"><ele>647.0</ele><time>2026-05-02T13:35:37.161Z</time></trkpt><trkpt lat="40.4740527" lon="9.3707564"><ele>647.0</ele><time>2026-05-02T13:35:38.161Z</time></trkpt><trkpt lat="40.4739651" lon="9.3706764"><ele>647.0</ele><time>2026-05-02T13:35:39.16Z</time></trkpt><trkpt lat="40.4738802" lon="9.3705839"><ele>647.0</ele><time>2026-05-02T13:35:40.161Z</time></trkpt><trkpt lat="40.4738007" lon="9.3704731"><ele>646.75</ele><time>2026-05-02T13:35:41.16Z</time></trkpt><trkpt lat="40.4737291" lon="9.3703414"><ele>646.5</ele><time>2026-05-02T13:35:42.16Z</time></trkpt><trkpt lat="40.4736672" lon="9.3701923"><ele>646.25</ele><time>2026-05-02T13:35:43.161Z</time></trkpt><trkpt lat="40.4736147" lon="9.3700405"><ele>646.0</ele><time>2026-05-02T13:35:44.161Z</time></trkpt><trkpt lat="40.4735798" lon="9.3698896"><ele>646.0</ele><time>2026-05-02T13:35:45.161Z</time></trkpt><trkpt lat="40.4735607" lon="9.3697321"><ele>646.0</ele><time>2026-05-02T13:35:46.161Z</time></trkpt><trkpt lat="40.4735553" lon="9.3695715"><ele>646.0</ele><time>2026-05-02T13:35:47.16Z</time></trkpt><trkpt lat="40.4735636" lon="9.3694051"><ele>646.0</ele><time>2026-05-02T13:35:48.16Z</time></trkpt><trkpt lat="40.4735874" lon="9.3692384"><ele>647.75</ele><time>2026-05-02T13:35:49.161Z</time></trkpt><trkpt lat="40.4736269" lon="9.3690767"><ele>649.5</ele><time>2026-05-02T13:35:50.16Z</time></trkpt><trkpt lat="40.4736831" lon="9.3689209"><ele>651.25</ele><time>2026-05-02T13:35:51.161Z</time></trkpt><trkpt lat="40.4737558" lon="9.3687754"><ele>653.0</ele><time>2026-05-02T13:35:52.16Z</time></trkpt><trkpt lat="40.4738427" lon="9.3686414"><ele>653.0</ele><time>2026-05-02T13:35:53.161Z</time></trkpt><trkpt lat="40.4739431" lon="9.3685203"><ele>653.0</ele><time>2026-05-02T13:35:54.16Z</time></trkpt><trkpt lat="40.4740528" lon="9.3684116"><ele>653.0</ele><time>2026-05-02T13:35:55.16Z</time></trkpt><trkpt lat="40.474168" lon="9.3683124"><ele>653.0</ele><time>2026-05-02T13:35:56.161Z</time></trkpt><trkpt lat="40.4742865" lon="9.3682155"><ele>653.0</ele><time>2026-05-02T13:35:57.161Z</time></trkpt><trkpt lat="40.4744046" lon="9.3681165"><ele>653.0</ele><time>2026-05-02T13:35:58.16Z</time></trkpt><trkpt lat="40.4745191" lon="9.3680176"><ele>653.0</ele><time>2026-05-02T13:35:59.161Z</time></trkpt><trkpt lat="40.474631" lon="9.3679138"><ele>653.0</ele><time>2026-05-02T13:36:00.161Z</time></trkpt><trkpt lat="40.4747395" lon="9.3678057"><ele>654.5</ele><time>2026-05-02T13:36:01.16Z</time></trkpt><trkpt lat="40.4748398" lon="9.3676836"><ele>656.0</ele><time>2026-05-02T13:36:02.16Z</time></trkpt><trkpt lat="40.474928" lon="9.3675443"><ele>657.5</ele><time>2026-05-02T13:36:03.16Z</time></trkpt><trkpt lat="40.4750011" lon="9.367388"><ele>659.0</ele><time>2026-05-02T13:36:04.16Z</time></trkpt><trkpt lat="40.4750568" lon="9.367219"><ele>661.25</ele><time>2026-05-02T13:36:05.16Z</time></trkpt><trkpt lat="40.475097" lon="9.3670395"><ele>663.5</ele><time>2026-05-02T13:36:06.161Z</time></trkpt><trkpt lat="40.475121" lon="9.3668513"><ele>665.75</ele><time>2026-05-02T13:36:07.16Z</time></trkpt><trkpt lat="40.4751255" lon="9.366658"><ele>668.0</ele><time>2026-05-02T13:36:08.161Z</time></trkpt><trkpt lat="40.4751071" lon="9.3664647"><ele>666.6666666666666</ele><time>2026-05-02T13:36:09.161Z</time></trkpt><trkpt lat="40.4750681" lon="9.3662703"><ele>665.3333333333334</ele><time>2026-05-02T13:36:10.161Z</time></trkpt><trkpt lat="40.4750119" lon="9.3660754"><ele>664.0</ele><time>2026-05-02T13:36:11.161Z</time></trkpt><trkpt lat="40.4749468" lon="9.3658733"><ele>664.0</ele><time>2026-05-02T13:36:12.161Z</time></trkpt><trkpt lat="40.4748788" lon="9.3656579"><ele>664.0</ele><time>2026-05-02T13:36:13.16Z</time></trkpt><trkpt lat="40.4748101" lon="9.3654277"><ele>664.0</ele><time>2026-05-02T13:36:14.16Z</time></trkpt><trkpt lat="40.474742" lon="9.365195"><ele>662.6666666666667</ele><time>2026-05-02T13:36:15.161Z</time></trkpt><trkpt lat="40.4746756" lon="9.3649726"><ele>661.3333333333334</ele><time>2026-05-02T13:36:16.16Z</time></trkpt><trkpt lat="40.474605" lon="9.3647447"><ele>660.0</ele><time>2026-05-02T13:36:17.16Z</time></trkpt><trkpt lat="40.4745337" lon="9.3645113"><ele>663.3333333333334</ele><time>2026-05-02T13:36:18.16Z</time></trkpt><trkpt lat="40.4744592" lon="9.3642677"><ele>666.6666666666667</ele><time>2026-05-02T13:36:19.16Z</time></trkpt><trkpt lat="40.4743797" lon="9.364013"><ele>670.0</ele><time>2026-05-02T13:36:20.16Z</time></trkpt><trkpt lat="40.474299" lon="9.3637538"><ele>670.0</ele><time>2026-05-02T13:36:21.161Z</time></trkpt><trkpt lat="40.4742165" lon="9.3634913"><ele>670.0</ele><time>2026-05-02T13:36:22.16Z</time></trkpt><trkpt lat="40.4741343" lon="9.3632251"><ele>670.0</ele><time>2026-05-02T13:36:23.161Z</time></trkpt><trkpt lat="40.4740519" lon="9.3629551"><ele>664.0</ele><time>2026-05-02T13:36:24.16Z</time></trkpt><trkpt lat="40.4739671" lon="9.3626823"><ele>658.0</ele><time>2026-05-02T13:36:25.161Z</time></trkpt><trkpt lat="40.4738823" lon="9.3624045"><ele>652.0</ele><time>2026-05-02T13:36:26.161Z</time></trkpt><trkpt lat="40.4737961" lon="9.3621248"><ele>646.0</ele><time>2026-05-02T13:36:27.16Z</time></trkpt><trkpt lat="40.4737083" lon="9.361842"><ele>656.0</ele><time>2026-05-02T13:36:28.16Z</time></trkpt><trkpt lat="40.47362" lon="9.3615604"><ele>666.0</ele><time>2026-05-02T13:36:29.16Z</time></trkpt><trkpt lat="40.4735331" lon="9.3612809"><ele>666.0</ele><time>2026-05-02T13:36:30.16Z</time></trkpt><trkpt lat="40.4734505" lon="9.3610118"><ele>666.0</ele><time>2026-05-02T13:36:31.16Z</time></trkpt><trkpt lat="40.4733707" lon="9.3607504"><ele>666.0</ele><time>2026-05-02T13:36:32.161Z</time></trkpt><trkpt lat="40.4732921" lon="9.3604918"><ele>666.3333333333334</ele><time>2026-05-02T13:36:33.16Z</time></trkpt><trkpt lat="40.4732162" lon="9.3602427"><ele>666.6666666666667</ele><time>2026-05-02T13:36:34.16Z</time></trkpt><trkpt lat="40.4731442" lon="9.3600082"><ele>667.0</ele><time>2026-05-02T13:36:35.161Z</time></trkpt><trkpt lat="40.4730729" lon="9.3597768"><ele>664.6666666666667</ele><time>2026-05-02T13:36:36.16Z</time></trkpt><trkpt lat="40.4730013" lon="9.3595498"><ele>662.3333333333334</ele><time>2026-05-02T13:36:37.161Z</time></trkpt><trkpt lat="40.4729314" lon="9.359325"><ele>660.0</ele><time>2026-05-02T13:36:38.161Z</time></trkpt><trkpt lat="40.4728649" lon="9.3591021"><ele>666.6666666666666</ele><time>2026-05-02T13:36:39.161Z</time></trkpt><trkpt lat="40.4727995" lon="9.3588819"><ele>673.3333333333333</ele><time>2026-05-02T13:36:40.16Z</time></trkpt><trkpt lat="40.4727339" lon="9.3586616"><ele>680.0</ele><time>2026-05-02T13:36:41.161Z</time></trkpt><trkpt lat="40.4726646" lon="9.3584348"><ele>680.0</ele><time>2026-05-02T13:36:42.161Z</time></trkpt><trkpt lat="40.4725909" lon="9.3582006"><ele>680.0</ele><time>2026-05-02T13:36:43.161Z</time></trkpt><trkpt lat="40.4725161" lon="9.3579619"><ele>680.0</ele><time>2026-05-02T13:36:44.161Z</time></trkpt><trkpt lat="40.4724401" lon="9.3577176"><ele>677.3333333333333</ele><time>2026-05-02T13:36:45.161Z</time></trkpt><trkpt lat="40.4723593" lon="9.3574662"><ele>674.6666666666666</ele><time>2026-05-02T13:36:46.16Z</time></trkpt><trkpt lat="40.4722786" lon="9.3572125"><ele>672.0</ele><time>2026-05-02T13:36:47.16Z</time></trkpt><trkpt lat="40.4721998" lon="9.3569621"><ele>671.0</ele><time>2026-05-02T13:36:48.16Z</time></trkpt><trkpt lat="40.4721285" lon="9.3567271"><ele>670.0</ele><time>2026-05-02T13:36:49.16Z</time></trkpt><trkpt lat="40.4720632" lon="9.3565036"><ele>669.0</ele><time>2026-05-02T13:36:50.161Z</time></trkpt><trkpt lat="40.4720085" lon="9.3562901"><ele>673.6666666666666</ele><time>2026-05-02T13:36:51.161Z</time></trkpt><trkpt lat="40.4719721" lon="9.3560843"><ele>678.3333333333333</ele><time>2026-05-02T13:36:52.16Z</time></trkpt><trkpt lat="40.4719548" lon="9.3558853"><ele>683.0</ele><time>2026-05-02T13:36:53.161Z</time></trkpt><trkpt lat="40.4719533" lon="9.3556871"><ele>685.5</ele><time>2026-05-02T13:36:54.161Z</time></trkpt><trkpt lat="40.4719678" lon="9.3554923"><ele>688.0</ele><time>2026-05-02T13:36:55.16Z</time></trkpt><trkpt lat="40.4720018" lon="9.3553039"><ele>690.5</ele><time>2026-05-02T13:36:56.161Z</time></trkpt><trkpt lat="40.4720567" lon="9.3551213"><ele>693.0</ele><time>2026-05-02T13:36:57.161Z</time></trkpt><trkpt lat="40.472132" lon="9.354947"><ele>693.0</ele><time>2026-05-02T13:36:58.161Z</time></trkpt><trkpt lat="40.4722234" lon="9.3547787"><ele>693.0</ele><time>2026-05-02T13:36:59.161Z</time></trkpt><trkpt lat="40.4723296" lon="9.3546214"><ele>693.0</ele><time>2026-05-02T13:37:00.16Z</time></trkpt><trkpt lat="40.4724538" lon="9.3544866"><ele>698.0</ele><time>2026-05-02T13:37:01.16Z</time></trkpt><trkpt lat="40.4725927" lon="9.3543753"><ele>703.0</ele><time>2026-05-02T13:37:02.16Z</time></trkpt><trkpt lat="40.4727425" lon="9.3542879"><ele>708.0</ele><time>2026-05-02T13:37:03.161Z</time></trkpt><trkpt lat="40.4729007" lon="9.3542237"><ele>706.0</ele><time>2026-05-02T13:37:04.161Z</time></trkpt><trkpt lat="40.4730576" lon="9.3541834"><ele>704.0</ele><time>2026-05-02T13:37:05.16Z</time></trkpt><trkpt lat="40.4732173" lon="9.3541768"><ele>702.0</ele><time>2026-05-02T13:37:06.161Z</time></trkpt><trkpt lat="40.473376" lon="9.3542038"><ele>702.0</ele><time>2026-05-02T13:37:07.16Z</time></trkpt><trkpt lat="40.4735339" lon="9.3542589"><ele>702.0</ele><time>2026-05-02T13:37:08.161Z</time></trkpt><trkpt lat="40.4736853" lon="9.354339"><ele>702.0</ele><time>2026-05-02T13:37:09.161Z</time></trkpt><trkpt lat="40.4738276" lon="9.3544478"><ele>705.0</ele><time>2026-05-02T13:37:10.16Z</time></trkpt><trkpt lat="40.4739595" lon="9.354582"><ele>708.0</ele><time>2026-05-02T13:37:11.161Z</time></trkpt><trkpt lat="40.4740828" lon="9.3547316"><ele>711.0</ele><time>2026-05-02T13:37:12.16Z</time></trkpt><trkpt lat="40.4741992" lon="9.3548963"><ele>711.0</ele><time>2026-05-02T13:37:13.16Z</time></trkpt><trkpt lat="40.4743118" lon="9.3550637"><ele>711.0</ele><time>2026-05-02T13:37:14.16Z</time></trkpt><trkpt lat="40.4744285" lon="9.3552234"><ele>711.0</ele><time>2026-05-02T13:37:15.16Z</time></trkpt><trkpt lat="40.4745576" lon="9.3553674"><ele>714.0</ele><time>2026-05-02T13:37:16.16Z</time></trkpt><trkpt lat="40.4747001" lon="9.3554849"><ele>717.0</ele><time>2026-05-02T13:37:17.161Z</time></trkpt><trkpt lat="40.4748545" lon="9.3555685"><ele>720.0</ele><time>2026-05-02T13:37:18.16Z</time></trkpt><trkpt lat="40.4750169" lon="9.3556197"><ele>720.0</ele><time>2026-05-02T13:37:19.161Z</time></trkpt><trkpt lat="40.4751824" lon="9.3556368"><ele>720.0</ele><time>2026-05-02T13:37:20.161Z</time></trkpt><trkpt lat="40.4753479" lon="9.3556216"><ele>720.0</ele><time>2026-05-02T13:37:21.161Z</time></trkpt><trkpt lat="40.475509" lon="9.3555739"><ele>723.3333333333334</ele><time>2026-05-02T13:37:22.16Z</time></trkpt><trkpt lat="40.4756633" lon="9.3554918"><ele>726.6666666666667</ele><time>2026-05-02T13:37:23.161Z</time></trkpt><trkpt lat="40.4758073" lon="9.3553819"><ele>730.0</ele><time>2026-05-02T13:37:24.161Z</time></trkpt><trkpt lat="40.4759366" lon="9.3552415"><ele>730.0</ele><time>2026-05-02T13:37:25.161Z</time></trkpt><trkpt lat="40.4760483" lon="9.355079"><ele>730.0</ele><time>2026-05-02T13:37:26.16Z</time></trkpt><trkpt lat="40.4761438" lon="9.3548909"><ele>730.0</ele><time>2026-05-02T13:37:27.16Z</time></trkpt><trkpt lat="40.4762301" lon="9.3546872"><ele>725.0</ele><time>2026-05-02T13:37:28.161Z</time></trkpt><trkpt lat="40.476316" lon="9.3544691"><ele>720.0</ele><time>2026-05-02T13:37:29.161Z</time></trkpt><trkpt lat="40.4764025" lon="9.354246"><ele>715.0</ele><time>2026-05-02T13:37:30.161Z</time></trkpt><trkpt lat="40.4764886" lon="9.3540285"><ele>720.0</ele><time>2026-05-02T13:37:31.16Z</time></trkpt><trkpt lat="40.4765711" lon="9.3538107"><ele>725.0</ele><time>2026-05-02T13:37:32.16Z</time></trkpt><trkpt lat="40.4766353" lon="9.3535963"><ele>730.0</ele><time>2026-05-02T13:37:33.16Z</time></trkpt><trkpt lat="40.4766752" lon="9.3533764"><ele>730.0</ele><time>2026-05-02T13:37:34.16Z</time></trkpt><trkpt lat="40.4766914" lon="9.3531541"><ele>730.0</ele><time>2026-05-02T13:37:35.16Z</time></trkpt><trkpt lat="40.4766795" lon="9.3529363"><ele>730.0</ele><time>2026-05-02T13:37:36.16Z</time></trkpt><trkpt lat="40.4766423" lon="9.3527237"><ele>730.0</ele><time>2026-05-02T13:37:37.161Z</time></trkpt><trkpt lat="40.4765825" lon="9.3525239"><ele>730.0</ele><time>2026-05-02T13:37:38.161Z</time></trkpt><trkpt lat="40.4765014" lon="9.3523402"><ele>730.0</ele><time>2026-05-02T13:37:39.161Z</time></trkpt><trkpt lat="40.4763985" lon="9.3521777"><ele>735.0</ele><time>2026-05-02T13:37:40.161Z</time></trkpt><trkpt lat="40.47628" lon="9.3520409"><ele>740.0</ele><time>2026-05-02T13:37:41.161Z</time></trkpt><trkpt lat="40.4761484" lon="9.3519183"><ele>745.0</ele><time>2026-05-02T13:37:42.161Z</time></trkpt><trkpt lat="40.4760194" lon="9.3517915"><ele>745.0</ele><time>2026-05-02T13:37:43.16Z</time></trkpt><trkpt lat="40.4759083" lon="9.3516408"><ele>745.0</ele><time>2026-05-02T13:37:44.161Z</time></trkpt><trkpt lat="40.4758138" lon="9.3514622"><ele>745.0</ele><time>2026-05-02T13:37:45.161Z</time></trkpt><trkpt lat="40.4757391" lon="9.3512612"><ele>744.0</ele><time>2026-05-02T13:37:46.161Z</time></trkpt><trkpt lat="40.4756847" lon="9.3510403"><ele>743.0</ele><time>2026-05-02T13:37:47.16Z</time></trkpt><trkpt lat="40.4756308" lon="9.3508033"><ele>742.0</ele><time>2026-05-02T13:37:48.161Z</time></trkpt><trkpt lat="40.4755529" lon="9.3505681"><ele>737.6666666666667</ele><time>2026-05-02T13:37:49.16Z</time></trkpt><trkpt lat="40.4754584" lon="9.3503324"><ele>733.3333333333334</ele><time>2026-05-02T13:37:50.16Z</time></trkpt><trkpt lat="40.4753555" lon="9.3500912"><ele>729.0</ele><time>2026-05-02T13:37:51.16Z</time></trkpt><trkpt lat="40.4752509" lon="9.349844"><ele>739.0</ele><time>2026-05-02T13:37:52.161Z</time></trkpt><trkpt lat="40.4751498" lon="9.3496001"><ele>749.0</ele><time>2026-05-02T13:37:53.16Z</time></trkpt><trkpt lat="40.4750516" lon="9.3493692"><ele>759.0</ele><time>2026-05-02T13:37:54.16Z</time></trkpt><trkpt lat="40.474956" lon="9.3491423"><ele>759.0</ele><time>2026-05-02T13:37:55.16Z</time></trkpt><trkpt lat="40.4748622" lon="9.3489171"><ele>759.0</ele><time>2026-05-02T13:37:56.16Z</time></trkpt><trkpt lat="40.4747691" lon="9.3486939"><ele>759.0</ele><time>2026-05-02T13:37:57.161Z</time></trkpt><trkpt lat="40.4746762" lon="9.3484723"><ele>761.6666666666666</ele><time>2026-05-02T13:37:58.161Z</time></trkpt><trkpt lat="40.4745823" lon="9.3482523"><ele>764.3333333333333</ele><time>2026-05-02T13:37:59.161Z</time></trkpt><trkpt lat="40.474481" lon="9.3480407"><ele>767.0</ele><time>2026-05-02T13:38:00.161Z</time></trkpt><trkpt lat="40.4743638" lon="9.3478446"><ele>767.0</ele><time>2026-05-02T13:38:01.16Z</time></trkpt><trkpt lat="40.4742404" lon="9.3476566"><ele>767.0</ele><time>2026-05-02T13:38:02.16Z</time></trkpt><trkpt lat="40.4741152" lon="9.347469"><ele>767.0</ele><time>2026-05-02T13:38:03.161Z</time></trkpt><trkpt lat="40.4739925" lon="9.3472789"><ele>765.3333333333333</ele><time>2026-05-02T13:38:04.161Z</time></trkpt><trkpt lat="40.4738862" lon="9.3470866"><ele>763.6666666666666</ele><time>2026-05-02T13:38:05.16Z</time></trkpt><trkpt lat="40.4738016" lon="9.3468856"><ele>762.0</ele><time>2026-05-02T13:38:06.161Z</time></trkpt><trkpt lat="40.4737362" lon="9.3466678"><ele>766.0</ele><time>2026-05-02T13:38:07.161Z</time></trkpt><trkpt lat="40.4736926" lon="9.3464424"><ele>770.0</ele><time>2026-05-02T13:38:08.161Z</time></trkpt><trkpt lat="40.4736729" lon="9.3462226"><ele>774.0</ele><time>2026-05-02T13:38:09.16Z</time></trkpt><trkpt lat="40.4736757" lon="9.3460185"><ele>774.0</ele><time>2026-05-02T13:38:10.16Z</time></trkpt><trkpt lat="40.4736968" lon="9.3458499"><ele>774.0</ele><time>2026-05-02T13:38:11.16Z</time></trkpt><trkpt lat="40.473733" lon="9.3457209"><ele>774.0</ele><time>2026-05-02T13:38:12.161Z</time></trkpt><trkpt lat="40.4737844" lon="9.3456272"><ele>774.0</ele><time>2026-05-02T13:38:13.161Z</time></trkpt><trkpt lat="40.4738528" lon="9.3455508"><ele>774.0</ele><time>2026-05-02T13:38:14.161Z</time></trkpt><trkpt lat="40.4739342" lon="9.3454789"><ele>774.5</ele><time>2026-05-02T13:38:15.16Z</time></trkpt><trkpt lat="40.4740272" lon="9.3454046"><ele>775.0</ele><time>2026-05-02T13:38:16.16Z</time></trkpt><trkpt lat="40.4741343" lon="9.3453371"><ele>775.5</ele><time>2026-05-02T13:38:17.16Z</time></trkpt><trkpt lat="40.4742553" lon="9.3453004"><ele>776.0</ele><time>2026-05-02T13:38:18.161Z</time></trkpt><trkpt lat="40.4743814" lon="9.3452972"><ele>776.0</ele><time>2026-05-02T13:38:19.161Z</time></trkpt><trkpt lat="40.4745132" lon="9.3453177"><ele>776.0</ele><time>2026-05-02T13:38:20.16Z</time></trkpt><trkpt lat="40.4746544" lon="9.3453486"><ele>776.0</ele><time>2026-05-02T13:38:21.16Z</time></trkpt><trkpt lat="40.4748018" lon="9.3453775"><ele>776.0</ele><time>2026-05-02T13:38:22.16Z</time></trkpt><trkpt lat="40.4749547" lon="9.3453989"><ele>778.75</ele><time>2026-05-02T13:38:23.161Z</time></trkpt><trkpt lat="40.475107" lon="9.345408"><ele>781.5</ele><time>2026-05-02T13:38:24.16Z</time></trkpt><trkpt lat="40.4752596" lon="9.3454032"><ele>784.25</ele><time>2026-05-02T13:38:25.161Z</time></trkpt><trkpt lat="40.4754003" lon="9.3453844"><ele>787.0</ele><time>2026-05-02T13:38:26.161Z</time></trkpt><trkpt lat="40.4755263" lon="9.3453619"><ele>787.75</ele><time>2026-05-02T13:38:27.16Z</time></trkpt><trkpt lat="40.4756523" lon="9.3453376"><ele>788.5</ele><time>2026-05-02T13:38:28.161Z</time></trkpt><trkpt lat="40.4757764" lon="9.3453149"><ele>789.25</ele><time>2026-05-02T13:38:29.16Z</time></trkpt><trkpt lat="40.4759" lon="9.3453002"><ele>790.0</ele><time>2026-05-02T13:38:30.16Z</time></trkpt><trkpt lat="40.4760243" lon="9.3452959"><ele>790.0</ele><time>2026-05-02T13:38:31.161Z</time></trkpt><trkpt lat="40.4761491" lon="9.3453048"><ele>790.0</ele><time>2026-05-02T13:38:32.16Z</time></trkpt><trkpt lat="40.4762788" lon="9.3453242"><ele>790.0</ele><time>2026-05-02T13:38:33.161Z</time></trkpt><trkpt lat="40.4764146" lon="9.3453527"><ele>790.0</ele><time>2026-05-02T13:38:34.16Z</time></trkpt><trkpt lat="40.4765591" lon="9.3453862"><ele>789.3333333333333</ele><time>2026-05-02T13:38:35.16Z</time></trkpt><trkpt lat="40.4767135" lon="9.3454258"><ele>788.6666666666667</ele><time>2026-05-02T13:38:36.161Z</time></trkpt><trkpt lat="40.4768743" lon="9.3454694"><ele>788.0</ele><time>2026-05-02T13:38:37.161Z</time></trkpt><trkpt lat="40.4770426" lon="9.3455145"><ele>785.3333333333334</ele><time>2026-05-02T13:38:38.161Z</time></trkpt><trkpt lat="40.477218" lon="9.3455642"><ele>782.6666666666667</ele><time>2026-05-02T13:38:39.161Z</time></trkpt><trkpt lat="40.4773982" lon="9.3456183"><ele>780.0</ele><time>2026-05-02T13:38:40.16Z</time></trkpt><trkpt lat="40.4775855" lon="9.3456745"><ele>780.0</ele><time>2026-05-02T13:38:41.161Z</time></trkpt><trkpt lat="40.4777798" lon="9.3457302"><ele>780.0</ele><time>2026-05-02T13:38:42.161Z</time></trkpt><trkpt lat="40.4779756" lon="9.3457845"><ele>780.0</ele><time>2026-05-02T13:38:43.161Z</time></trkpt><trkpt lat="40.4781638" lon="9.3458363"><ele>779.6666666666667</ele><time>2026-05-02T13:38:44.16Z</time></trkpt><trkpt lat="40.4783476" lon="9.3458875"><ele>779.3333333333334</ele><time>2026-05-02T13:38:45.16Z</time></trkpt><trkpt lat="40.478534" lon="9.3459399"><ele>779.0</ele><time>2026-05-02T13:38:46.16Z</time></trkpt><trkpt lat="40.4787103" lon="9.3459896"><ele>779.0</ele><time>2026-05-02T13:38:47.16Z</time></trkpt><trkpt lat="40.4788754" lon="9.3460367"><ele>779.0</ele><time>2026-05-02T13:38:48.161Z</time></trkpt><trkpt lat="40.4790325" lon="9.3460808"><ele>779.0</ele><time>2026-05-02T13:38:49.161Z</time></trkpt><trkpt lat="40.4791881" lon="9.34612"><ele>779.0</ele><time>2026-05-02T13:38:50.16Z</time></trkpt><trkpt lat="40.4793505" lon="9.3461406"><ele>779.0</ele><time>2026-05-02T13:38:51.16Z</time></trkpt><trkpt lat="40.4795205" lon="9.3461405"><ele>779.0</ele><time>2026-05-02T13:38:52.161Z</time></trkpt><trkpt lat="40.4796973" lon="9.3461191"><ele>777.3333333333334</ele><time>2026-05-02T13:38:53.161Z</time></trkpt><trkpt lat="40.4798817" lon="9.3460865"><ele>775.6666666666667</ele><time>2026-05-02T13:38:54.16Z</time></trkpt><trkpt lat="40.4800746" lon="9.3460484"><ele>774.0</ele><time>2026-05-02T13:38:55.161Z</time></trkpt><trkpt lat="40.4802768" lon="9.3460093"><ele>773.3333333333333</ele><time>2026-05-02T13:38:56.16Z</time></trkpt><trkpt lat="40.4804877" lon="9.3459685"><ele>772.6666666666666</ele><time>2026-05-02T13:38:57.16Z</time></trkpt><trkpt lat="40.4807059" lon="9.3459253"><ele>772.0</ele><time>2026-05-02T13:38:58.161Z</time></trkpt><trkpt lat="40.4809295" lon="9.3458811"><ele>772.0</ele><time>2026-05-02T13:38:59.161Z</time></trkpt><trkpt lat="40.4811575" lon="9.3458354"><ele>772.0</ele><time>2026-05-02T13:39:00.161Z</time></trkpt><trkpt lat="40.4813844" lon="9.3457895"><ele>772.0</ele><time>2026-05-02T13:39:01.161Z</time></trkpt><trkpt lat="40.4816131" lon="9.3457444"><ele>772.0</ele><time>2026-05-02T13:39:02.16Z</time></trkpt><trkpt lat="40.4818444" lon="9.3457024"><ele>772.0</ele><time>2026-05-02T13:39:03.161Z</time></trkpt><trkpt lat="40.4820796" lon="9.3456605"><ele>772.0</ele><time>2026-05-02T13:39:04.161Z</time></trkpt><trkpt lat="40.4823156" lon="9.3456163"><ele>772.5</ele><time>2026-05-02T13:39:05.161Z</time></trkpt><trkpt lat="40.4825529" lon="9.3455717"><ele>773.0</ele><time>2026-05-02T13:39:06.16Z</time></trkpt><trkpt lat="40.4827902" lon="9.3455266"><ele>771.0</ele><time>2026-05-02T13:39:07.16Z</time></trkpt><trkpt lat="40.4830293" lon="9.3454806"><ele>769.0</ele><time>2026-05-02T13:39:08.16Z</time></trkpt><trkpt lat="40.4832698" lon="9.3454352"><ele>769.0</ele><time>2026-05-02T13:39:09.16Z</time></trkpt><trkpt lat="40.4835053" lon="9.34539"><ele>769.0</ele><time>2026-05-02T13:39:10.161Z</time></trkpt><trkpt lat="40.4837326" lon="9.3453452"><ele>768.3333333333333</ele><time>2026-05-02T13:39:11.16Z</time></trkpt><trkpt lat="40.4839547" lon="9.3453014"><ele>767.6666666666666</ele><time>2026-05-02T13:39:12.16Z</time></trkpt><trkpt lat="40.4841694" lon="9.3452597"><ele>767.0</ele><time>2026-05-02T13:39:13.161Z</time></trkpt><trkpt lat="40.4843783" lon="9.3452261"><ele>767.0</ele><time>2026-05-02T13:39:14.16Z</time></trkpt><trkpt lat="40.4845828" lon="9.3452067"><ele>767.0</ele><time>2026-05-02T13:39:15.16Z</time></trkpt><trkpt lat="40.4847782" lon="9.3452011"><ele>767.0</ele><time>2026-05-02T13:39:16.16Z</time></trkpt><trkpt lat="40.4849575" lon="9.3452083"><ele>766.0</ele><time>2026-05-02T13:39:17.16Z</time></trkpt><trkpt lat="40.4851192" lon="9.3452166"><ele>765.0</ele><time>2026-05-02T13:39:18.161Z</time></trkpt><trkpt lat="40.4852693" lon="9.3452231"><ele>764.0</ele><time>2026-05-02T13:39:19.16Z</time></trkpt><trkpt lat="40.4854058" lon="9.3452289"><ele>763.0</ele><time>2026-05-02T13:39:20.161Z</time></trkpt><trkpt lat="40.4855314" lon="9.3452326"><ele>763.0</ele><time>2026-05-02T13:39:21.16Z</time></trkpt><trkpt lat="40.4856442" lon="9.345241"><ele>763.0</ele><time>2026-05-02T13:39:22.161Z</time></trkpt><trkpt lat="40.4857463" lon="9.3452699"><ele>763.0</ele><time>2026-05-02T13:39:23.16Z</time></trkpt><trkpt lat="40.4858349" lon="9.3453169"><ele>763.0</ele><time>2026-05-02T13:39:24.161Z</time></trkpt><trkpt lat="40.4859191" lon="9.3453819"><ele>763.0</ele><time>2026-05-02T13:39:25.16Z</time></trkpt><trkpt lat="40.4860107" lon="9.3454423"><ele>763.0</ele><time>2026-05-02T13:39:26.161Z</time></trkpt><trkpt lat="40.4861134" lon="9.3454659"><ele>763.0</ele><time>2026-05-02T13:39:27.161Z</time></trkpt><trkpt lat="40.4862116" lon="9.345451"><ele>763.0</ele><time>2026-05-02T13:39:28.161Z</time></trkpt><trkpt lat="40.4863114" lon="9.3454031"><ele>763.0</ele><time>2026-05-02T13:39:29.161Z</time></trkpt><trkpt lat="40.4864186" lon="9.3453453"><ele>763.0</ele><time>2026-05-02T13:39:30.161Z</time></trkpt><trkpt lat="40.4865357" lon="9.3453114"><ele>762.6666666666667</ele><time>2026-05-02T13:39:31.16Z</time></trkpt><trkpt lat="40.4866728" lon="9.3453"><ele>762.3333333333334</ele><time>2026-05-02T13:39:32.16Z</time></trkpt><trkpt lat="40.4868279" lon="9.3453034"><ele>762.0</ele><time>2026-05-02T13:39:33.161Z</time></trkpt><trkpt lat="40.4869974" lon="9.3453115"><ele>761.0</ele><time>2026-05-02T13:39:34.161Z</time></trkpt><trkpt lat="40.4871642" lon="9.3453181"><ele>760.0</ele><time>2026-05-02T13:39:35.161Z</time></trkpt><trkpt lat="40.4873207" lon="9.3453255"><ele>759.0</ele><time>2026-05-02T13:39:36.16Z</time></trkpt><trkpt lat="40.4874714" lon="9.3453317"><ele>759.0</ele><time>2026-05-02T13:39:37.16Z</time></trkpt><trkpt lat="40.4876152" lon="9.3453384"><ele>759.0</ele><time>2026-05-02T13:39:38.161Z</time></trkpt><trkpt lat="40.4877543" lon="9.3453436"><ele>759.0</ele><time>2026-05-02T13:39:39.16Z</time></trkpt><trkpt lat="40.4878887" lon="9.3453477"><ele>759.0</ele><time>2026-05-02T13:39:40.16Z</time></trkpt><trkpt lat="40.4880111" lon="9.3453527"><ele>758.75</ele><time>2026-05-02T13:39:41.16Z</time></trkpt><trkpt lat="40.488128" lon="9.3453576"><ele>758.5</ele><time>2026-05-02T13:39:42.161Z</time></trkpt><trkpt lat="40.4882493" lon="9.3453638"><ele>758.25</ele><time>2026-05-02T13:39:43.161Z</time></trkpt><trkpt lat="40.4883759" lon="9.3453719"><ele>758.0</ele><time>2026-05-02T13:39:44.16Z</time></trkpt><trkpt lat="40.4885083" lon="9.3453781"><ele>758.0</ele><time>2026-05-02T13:39:45.16Z</time></trkpt><trkpt lat="40.4886456" lon="9.3453828"><ele>758.0</ele><time>2026-05-02T13:39:46.16Z</time></trkpt><trkpt lat="40.4887843" lon="9.3453885"><ele>758.0</ele><time>2026-05-02T13:39:47.16Z</time></trkpt><trkpt lat="40.4889267" lon="9.345397"><ele>758.0</ele><time>2026-05-02T13:39:48.161Z</time></trkpt><trkpt lat="40.4890706" lon="9.3454094"><ele>758.0</ele><time>2026-05-02T13:39:49.16Z</time></trkpt><trkpt lat="40.4892163" lon="9.3454241"><ele>758.0</ele><time>2026-05-02T13:39:50.16Z</time></trkpt><trkpt lat="40.4893635" lon="9.3454375"><ele>758.0</ele><time>2026-05-02T13:39:51.161Z</time></trkpt><trkpt lat="40.4895081" lon="9.345446"><ele>758.0</ele><time>2026-05-02T13:39:52.16Z</time></trkpt><trkpt lat="40.4896499" lon="9.3454483"><ele>757.0</ele><time>2026-05-02T13:39:53.16Z</time></trkpt><trkpt lat="40.489788" lon="9.3454487"><ele>756.0</ele><time>2026-05-02T13:39:54.16Z</time></trkpt><trkpt lat="40.4899235" lon="9.3454503"><ele>755.0</ele><time>2026-05-02T13:39:55.16Z</time></trkpt><trkpt lat="40.4900533" lon="9.3454511"><ele>754.0</ele><time>2026-05-02T13:39:56.161Z</time></trkpt><trkpt lat="40.4901633" lon="9.3454537"><ele>754.0</ele><time>2026-05-02T13:39:57.16Z</time></trkpt><trkpt lat="40.4902816" lon="9.3454623"><ele>754.0</ele><time>2026-05-02T13:39:58.16Z</time></trkpt><trkpt lat="40.4904126" lon="9.3454714"><ele>754.0</ele><time>2026-05-02T13:39:59.16Z</time></trkpt><trkpt lat="40.4905466" lon="9.3454813"><ele>754.0</ele><time>2026-05-02T13:40:00.16Z</time></trkpt><trkpt lat="40.4906833" lon="9.3454837"><ele>753.75</ele><time>2026-05-02T13:40:01.161Z</time></trkpt><trkpt lat="40.4908258" lon="9.3454811"><ele>753.5</ele><time>2026-05-02T13:40:02.161Z</time></trkpt><trkpt lat="40.490972" lon="9.3454844"><ele>753.25</ele><time>2026-05-02T13:40:03.161Z</time></trkpt><trkpt lat="40.4911288" lon="9.345491"><ele>753.0</ele><time>2026-05-02T13:40:04.16Z</time></trkpt><trkpt lat="40.4912922" lon="9.3454987"><ele>753.6666666666666</ele><time>2026-05-02T13:40:05.161Z</time></trkpt><trkpt lat="40.4914644" lon="9.3455059"><ele>754.3333333333333</ele><time>2026-05-02T13:40:06.161Z</time></trkpt><trkpt lat="40.4916441" lon="9.3455158"><ele>755.0</ele><time>2026-05-02T13:40:07.16Z</time></trkpt><trkpt lat="40.4918302" lon="9.3455278"><ele>755.0</ele><time>2026-05-02T13:40:08.16Z</time></trkpt><trkpt lat="40.4920218" lon="9.3455385"><ele>755.0</ele><time>2026-05-02T13:40:09.16Z</time></trkpt><trkpt lat="40.4922165" lon="9.3455484"><ele>755.0</ele><time>2026-05-02T13:40:10.16Z</time></trkpt><trkpt lat="40.4924156" lon="9.345559"><ele>754.3333333333333</ele><time>2026-05-02T13:40:11.161Z</time></trkpt><trkpt lat="40.4926139" lon="9.3455681"><ele>753.6666666666666</ele><time>2026-05-02T13:40:12.161Z</time></trkpt><trkpt lat="40.4928113" lon="9.3455764"><ele>753.0</ele><time>2026-05-02T13:40:13.161Z</time></trkpt><trkpt lat="40.4930041" lon="9.3455831"><ele>752.3333333333334</ele><time>2026-05-02T13:40:14.161Z</time></trkpt><trkpt lat="40.493186" lon="9.3455898"><ele>751.6666666666667</ele><time>2026-05-02T13:40:15.16Z</time></trkpt><trkpt lat="40.4933542" lon="9.3455975"><ele>751.0</ele><time>2026-05-02T13:40:16.161Z</time></trkpt><trkpt lat="40.4935096" lon="9.3456052"><ele>751.0</ele><time>2026-05-02T13:40:17.16Z</time></trkpt><trkpt lat="40.4936517" lon="9.3456122"><ele>751.0</ele><time>2026-05-02T13:40:18.16Z</time></trkpt><trkpt lat="40.4937763" lon="9.3456166"><ele>751.0</ele><time>2026-05-02T13:40:19.16Z</time></trkpt><trkpt lat="40.4938863" lon="9.3456204"><ele>751.0</ele><time>2026-05-02T13:40:20.16Z</time></trkpt><trkpt lat="40.4939862" lon="9.3456272"><ele>749.5999999999999</ele><time>2026-05-02T13:40:21.16Z</time></trkpt><trkpt lat="40.4940802" lon="9.3456478"><ele>748.2</ele><time>2026-05-02T13:40:22.161Z</time></trkpt><trkpt lat="40.494166" lon="9.3456926"><ele>746.8</ele><time>2026-05-02T13:40:23.161Z</time></trkpt><trkpt lat="40.4942371" lon="9.3457569"><ele>745.4000000000001</ele><time>2026-05-02T13:40:24.161Z</time></trkpt><trkpt lat="40.4943101" lon="9.3458308"><ele>744.0</ele><time>2026-05-02T13:40:25.161Z</time></trkpt><trkpt lat="40.4943855" lon="9.3458861"><ele>744.0</ele><time>2026-05-02T13:40:26.161Z</time></trkpt><trkpt lat="40.4944697" lon="9.3459003"><ele>744.0</ele><time>2026-05-02T13:40:27.161Z</time></trkpt><trkpt lat="40.4945499" lon="9.3458738"><ele>744.0</ele><time>2026-05-02T13:40:28.16Z</time></trkpt><trkpt lat="40.4946129" lon="9.3458119"><ele>744.0</ele><time>2026-05-02T13:40:29.16Z</time></trkpt><trkpt lat="40.4946524" lon="9.3457187"><ele>744.0</ele><time>2026-05-02T13:40:30.161Z</time></trkpt><trkpt lat="40.494668" lon="9.3456044"><ele>744.0</ele><time>2026-05-02T13:40:31.161Z</time></trkpt><trkpt lat="40.4946692" lon="9.3454772"><ele>743.4000000000001</ele><time>2026-05-02T13:40:32.16Z</time></trkpt><trkpt lat="40.4946751" lon="9.3453396"><ele>742.8</ele><time>2026-05-02T13:40:33.161Z</time></trkpt><trkpt lat="40.4947017" lon="9.345214"><ele>742.2</ele><time>2026-05-02T13:40:34.16Z</time></trkpt><trkpt lat="40.494755" lon="9.3450928"><ele>741.5999999999999</ele><time>2026-05-02T13:40:35.16Z</time></trkpt><trkpt lat="40.4948354" lon="9.3449886"><ele>741.0</ele><time>2026-05-02T13:40:36.161Z</time></trkpt><trkpt lat="40.4949425" lon="9.344909"><ele>741.0</ele><time>2026-05-02T13:40:37.16Z</time></trkpt><trkpt lat="40.4950729" lon="9.3448534"><ele>741.0</ele><time>2026-05-02T13:40:38.161Z</time></trkpt><trkpt lat="40.4952248" lon="9.3448078"><ele>741.0</ele><time>2026-05-02T13:40:39.161Z</time></trkpt><trkpt lat="40.4953956" lon="9.3447623"><ele>742.6666666666666</ele><time>2026-05-02T13:40:40.161Z</time></trkpt><trkpt lat="40.4955801" lon="9.3447133"><ele>744.3333333333333</ele><time>2026-05-02T13:40:41.161Z</time></trkpt><trkpt lat="40.4957691" lon="9.344662"><ele>746.0</ele><time>2026-05-02T13:40:42.16Z</time></trkpt><trkpt lat="40.4959614" lon="9.3446101"><ele>743.0</ele><time>2026-05-02T13:40:43.16Z</time></trkpt><trkpt lat="40.4961525" lon="9.3445567"><ele>740.0</ele><time>2026-05-02T13:40:44.16Z</time></trkpt><trkpt lat="40.4963451" lon="9.3445038"><ele>737.0</ele><time>2026-05-02T13:40:45.16Z</time></trkpt><trkpt lat="40.4965378" lon="9.3444512"><ele>737.0</ele><time>2026-05-02T13:40:46.16Z</time></trkpt><trkpt lat="40.4967325" lon="9.3443989"><ele>737.0</ele><time>2026-05-02T13:40:47.16Z</time></trkpt><trkpt lat="40.4969261" lon="9.3443475"><ele>737.0</ele><time>2026-05-02T13:40:48.161Z</time></trkpt><trkpt lat="40.497125" lon="9.3443035"><ele>737.0</ele><time>2026-05-02T13:40:49.161Z</time></trkpt><trkpt lat="40.497327" lon="9.3442726"><ele>737.0</ele><time>2026-05-02T13:40:50.161Z</time></trkpt><trkpt lat="40.4975354" lon="9.3442525"><ele>737.0</ele><time>2026-05-02T13:40:51.161Z</time></trkpt><trkpt lat="40.4977505" lon="9.3442449"><ele>737.5</ele><time>2026-05-02T13:40:52.161Z</time></trkpt><trkpt lat="40.4979726" lon="9.344242"><ele>738.0</ele><time>2026-05-02T13:40:53.16Z</time></trkpt><trkpt lat="40.4982012" lon="9.3442411"><ele>738.0</ele><time>2026-05-02T13:40:54.16Z</time></trkpt><trkpt lat="40.4984349" lon="9.3442399"><ele>738.0</ele><time>2026-05-02T13:40:55.161Z</time></trkpt><trkpt lat="40.4986709" lon="9.3442413"><ele>736.0</ele><time>2026-05-02T13:40:56.161Z</time></trkpt><trkpt lat="40.4989097" lon="9.3442443"><ele>734.0</ele><time>2026-05-02T13:40:57.161Z</time></trkpt><trkpt lat="40.4991502" lon="9.344245"><ele>734.0</ele><time>2026-05-02T13:40:58.16Z</time></trkpt><trkpt lat="40.4993933" lon="9.3442454"><ele>734.0</ele><time>2026-05-02T13:40:59.16Z</time></trkpt><trkpt lat="40.4996346" lon="9.344237"><ele>733.0</ele><time>2026-05-02T13:41:00.16Z</time></trkpt><trkpt lat="40.499867" lon="9.3442003"><ele>732.0</ele><time>2026-05-02T13:41:01.16Z</time></trkpt><trkpt lat="40.5000974" lon="9.3441326"><ele>732.0</ele><time>2026-05-02T13:41:02.161Z</time></trkpt><trkpt lat="40.5003261" lon="9.3440428"><ele>732.0</ele><time>2026-05-02T13:41:03.161Z</time></trkpt><trkpt lat="40.5005569" lon="9.3439463"><ele>729.5</ele><time>2026-05-02T13:41:04.16Z</time></trkpt><trkpt lat="40.5007936" lon="9.343847"><ele>727.0</ele><time>2026-05-02T13:41:05.16Z</time></trkpt><trkpt lat="40.5010328" lon="9.3437485"><ele>727.5</ele><time>2026-05-02T13:41:06.161Z</time></trkpt><trkpt lat="40.5012719" lon="9.3436504"><ele>728.0</ele><time>2026-05-02T13:41:07.16Z</time></trkpt><trkpt lat="40.501511" lon="9.3435516"><ele>728.0</ele><time>2026-05-02T13:41:08.16Z</time></trkpt><trkpt lat="40.5017501" lon="9.3434536"><ele>728.0</ele><time>2026-05-02T13:41:09.16Z</time></trkpt><trkpt lat="40.5019906" lon="9.3433545"><ele>728.0</ele><time>2026-05-02T13:41:10.161Z</time></trkpt><trkpt lat="40.5022333" lon="9.3432535"><ele>728.0</ele><time>2026-05-02T13:41:11.161Z</time></trkpt><trkpt lat="40.5024777" lon="9.3431522"><ele>728.0</ele><time>2026-05-02T13:41:12.161Z</time></trkpt><trkpt lat="40.5027218" lon="9.3430522"><ele>728.0</ele><time>2026-05-02T13:41:13.16Z</time></trkpt><trkpt lat="40.5029673" lon="9.3429539"><ele>727.5</ele><time>2026-05-02T13:41:14.16Z</time></trkpt><trkpt lat="40.5032131" lon="9.3428561"><ele>727.0</ele><time>2026-05-02T13:41:15.16Z</time></trkpt><trkpt lat="40.5034578" lon="9.3427598"><ele>727.0</ele><time>2026-05-02T13:41:16.16Z</time></trkpt><trkpt lat="40.5036935" lon="9.3426654"><ele>727.0</ele><time>2026-05-02T13:41:17.16Z</time></trkpt><trkpt lat="40.5039019" lon="9.3425713"><ele>727.3333333333334</ele><time>2026-05-02T13:41:18.16Z</time></trkpt><trkpt lat="40.5040926" lon="9.3424584"><ele>727.6666666666666</ele><time>2026-05-02T13:41:19.161Z</time></trkpt><trkpt lat="40.5042548" lon="9.3423155"><ele>728.0</ele><time>2026-05-02T13:41:20.161Z</time></trkpt><trkpt lat="40.5043924" lon="9.3421394"><ele>728.0</ele><time>2026-05-02T13:41:21.16Z</time></trkpt><trkpt lat="40.5045066" lon="9.3419306"><ele>728.0</ele><time>2026-05-02T13:41:22.161Z</time></trkpt><trkpt lat="40.5046049" lon="9.3416942"><ele>728.0</ele><time>2026-05-02T13:41:23.161Z</time></trkpt><trkpt lat="40.5046987" lon="9.3414394"><ele>729.3333333333333</ele><time>2026-05-02T13:41:24.161Z</time></trkpt><trkpt lat="40.5047948" lon="9.341175"><ele>730.6666666666666</ele><time>2026-05-02T13:41:25.16Z</time></trkpt><trkpt lat="40.5048943" lon="9.3409073"><ele>732.0</ele><time>2026-05-02T13:41:26.16Z</time></trkpt><trkpt lat="40.5049971" lon="9.3406373"><ele>731.0</ele><time>2026-05-02T13:41:27.161Z</time></trkpt><trkpt lat="40.5051026" lon="9.3403643"><ele>730.0</ele><time>2026-05-02T13:41:28.16Z</time></trkpt><trkpt lat="40.5052093" lon="9.3400876"><ele>730.0</ele><time>2026-05-02T13:41:29.161Z</time></trkpt><trkpt lat="40.5053138" lon="9.3398131"><ele>730.0</ele><time>2026-05-02T13:41:30.161Z</time></trkpt><trkpt lat="40.5054118" lon="9.339552"><ele>731.6666666666667</ele><time>2026-05-02T13:41:31.161Z</time></trkpt><trkpt lat="40.5055013" lon="9.3393152"><ele>733.3333333333334</ele><time>2026-05-02T13:41:32.161Z</time></trkpt><trkpt lat="40.5055797" lon="9.3390994"><ele>735.0</ele><time>2026-05-02T13:41:33.16Z</time></trkpt><trkpt lat="40.5056496" lon="9.3389088"><ele>735.0</ele><time>2026-05-02T13:41:34.16Z</time></trkpt><trkpt lat="40.5057138" lon="9.3387431"><ele>735.0</ele><time>2026-05-02T13:41:35.16Z</time></trkpt><trkpt lat="40.5057818" lon="9.3386048"><ele>735.0</ele><time>2026-05-02T13:41:36.161Z</time></trkpt><trkpt lat="40.5058664" lon="9.3384975"><ele>735.0</ele><time>2026-05-02T13:41:37.161Z</time></trkpt><trkpt lat="40.5059669" lon="9.3384082"><ele>735.0</ele><time>2026-05-02T13:41:38.16Z</time></trkpt><trkpt lat="40.5060593" lon="9.3383168"><ele>735.0</ele><time>2026-05-02T13:41:39.16Z</time></trkpt><trkpt lat="40.5061177" lon="9.3381965"><ele>735.0</ele><time>2026-05-02T13:41:40.16Z</time></trkpt><trkpt lat="40.5061491" lon="9.3380613"><ele>735.0</ele><time>2026-05-02T13:41:41.16Z</time></trkpt><trkpt lat="40.5061767" lon="9.3379225"><ele>735.0</ele><time>2026-05-02T13:41:42.16Z</time></trkpt><trkpt lat="40.5062303" lon="9.3377881"><ele>734.75</ele><time>2026-05-02T13:41:43.161Z</time></trkpt><trkpt lat="40.5063133" lon="9.3376666"><ele>734.5</ele><time>2026-05-02T13:41:44.16Z</time></trkpt><trkpt lat="40.5064195" lon="9.3375537"><ele>734.25</ele><time>2026-05-02T13:41:45.16Z</time></trkpt><trkpt lat="40.5065421" lon="9.3374383"><ele>734.0</ele><time>2026-05-02T13:41:46.16Z</time></trkpt><trkpt lat="40.506676" lon="9.3373163"><ele>734.6666666666666</ele><time>2026-05-02T13:41:47.161Z</time></trkpt><trkpt lat="40.5068185" lon="9.3371868"><ele>735.3333333333334</ele><time>2026-05-02T13:41:48.16Z</time></trkpt><trkpt lat="40.506967" lon="9.3370483"><ele>736.0</ele><time>2026-05-02T13:41:49.161Z</time></trkpt><trkpt lat="40.5071163" lon="9.3368961"><ele>736.0</ele><time>2026-05-02T13:41:50.161Z</time></trkpt><trkpt lat="40.50726" lon="9.3367213"><ele>736.0</ele><time>2026-05-02T13:41:51.161Z</time></trkpt><trkpt lat="40.5074" lon="9.3365272"><ele>736.0</ele><time>2026-05-02T13:41:52.161Z</time></trkpt><trkpt lat="40.5075377" lon="9.3363128"><ele>736.0</ele><time>2026-05-02T13:41:53.161Z</time></trkpt><trkpt lat="40.5076777" lon="9.3360907"><ele>736.0</ele><time>2026-05-02T13:41:54.16Z</time></trkpt><trkpt lat="40.5078231" lon="9.3358616"><ele>736.0</ele><time>2026-05-02T13:41:55.16Z</time></trkpt><trkpt lat="40.5079641" lon="9.3356369"><ele>734.3333333333334</ele><time>2026-05-02T13:41:56.161Z</time></trkpt><trkpt lat="40.5081024" lon="9.3354171"><ele>732.6666666666666</ele><time>2026-05-02T13:41:57.16Z</time></trkpt><trkpt lat="40.5082328" lon="9.3352102"><ele>731.0</ele><time>2026-05-02T13:41:58.16Z</time></trkpt><trkpt lat="40.5083555" lon="9.3350353"><ele>731.0</ele><time>2026-05-02T13:41:59.161Z</time></trkpt><trkpt lat="40.5084818" lon="9.334902"><ele>731.0</ele><time>2026-05-02T13:42:00.161Z</time></trkpt><trkpt lat="40.5086199" lon="9.3348264"><ele>731.0</ele><time>2026-05-02T13:42:01.16Z</time></trkpt><trkpt lat="40.5087732" lon="9.3348022"><ele>729.6666666666666</ele><time>2026-05-02T13:42:02.16Z</time></trkpt><trkpt lat="40.5089403" lon="9.3348234"><ele>728.3333333333334</ele><time>2026-05-02T13:42:03.161Z</time></trkpt><trkpt lat="40.5091248" lon="9.3348751"><ele>727.0</ele><time>2026-05-02T13:42:04.16Z</time></trkpt><trkpt lat="40.5093246" lon="9.3349358"><ele>727.0</ele><time>2026-05-02T13:42:05.161Z</time></trkpt><trkpt lat="40.5095351" lon="9.3349962"><ele>727.0</ele><time>2026-05-02T13:42:06.16Z</time></trkpt><trkpt lat="40.5097496" lon="9.3350573"><ele>727.0</ele><time>2026-05-02T13:42:07.16Z</time></trkpt><trkpt lat="40.5099544" lon="9.3351135"><ele>727.0</ele><time>2026-05-02T13:42:08.16Z</time></trkpt><trkpt lat="40.510157" lon="9.3351715"><ele>727.0</ele><time>2026-05-02T13:42:09.161Z</time></trkpt><trkpt lat="40.5103506" lon="9.3352279"><ele>727.0</ele><time>2026-05-02T13:42:10.16Z</time></trkpt><trkpt lat="40.5105355" lon="9.3352827"><ele>727.0</ele><time>2026-05-02T13:42:11.16Z</time></trkpt><trkpt lat="40.510716" lon="9.3353366"><ele>727.0</ele><time>2026-05-02T13:42:12.161Z</time></trkpt><trkpt lat="40.5108961" lon="9.3353888"><ele>727.0</ele><time>2026-05-02T13:42:13.161Z</time></trkpt><trkpt lat="40.5110752" lon="9.3354418"><ele>727.3333333333334</ele><time>2026-05-02T13:42:14.161Z</time></trkpt><trkpt lat="40.5112515" lon="9.3354954"><ele>727.6666666666666</ele><time>2026-05-02T13:42:15.161Z</time></trkpt><trkpt lat="40.5114275" lon="9.3355468"><ele>728.0</ele><time>2026-05-02T13:42:16.16Z</time></trkpt><trkpt lat="40.5116003" lon="9.3355968"><ele>727.3333333333333</ele><time>2026-05-02T13:42:17.16Z</time></trkpt><trkpt lat="40.5117649" lon="9.3356445"><ele>726.6666666666666</ele><time>2026-05-02T13:42:18.161Z</time></trkpt><trkpt lat="40.5119189" lon="9.33569"><ele>726.0</ele><time>2026-05-02T13:42:19.161Z</time></trkpt><trkpt lat="40.5120658" lon="9.3357341"><ele>727.5</ele><time>2026-05-02T13:42:20.161Z</time></trkpt><trkpt lat="40.5122056" lon="9.3357793"><ele>729.0</ele><time>2026-05-02T13:42:21.16Z</time></trkpt><trkpt lat="40.5123451" lon="9.3358273"><ele>730.5</ele><time>2026-05-02T13:42:22.16Z</time></trkpt><trkpt lat="40.5124832" lon="9.3358879"><ele>732.0</ele><time>2026-05-02T13:42:23.16Z</time></trkpt><trkpt lat="40.5126189" lon="9.3359645"><ele>732.0</ele><time>2026-05-02T13:42:24.16Z</time></trkpt><trkpt lat="40.5127522" lon="9.3360619"><ele>732.0</ele><time>2026-05-02T13:42:25.161Z</time></trkpt><trkpt lat="40.5128842" lon="9.336178"><ele>732.0</ele><time>2026-05-02T13:42:26.16Z</time></trkpt><trkpt lat="40.5130163" lon="9.3363123"><ele>734.0</ele><time>2026-05-02T13:42:27.16Z</time></trkpt><trkpt lat="40.513153" lon="9.3364596"><ele>736.0</ele><time>2026-05-02T13:42:28.16Z</time></trkpt><trkpt lat="40.513295" lon="9.3366161"><ele>738.0</ele><time>2026-05-02T13:42:29.16Z</time></trkpt><trkpt lat="40.5134433" lon="9.3367834"><ele>738.0</ele><time>2026-05-02T13:42:30.161Z</time></trkpt><trkpt lat="40.5135969" lon="9.3369586"><ele>738.0</ele><time>2026-05-02T13:42:31.161Z</time></trkpt><trkpt lat="40.5137514" lon="9.3371373"><ele>738.0</ele><time>2026-05-02T13:42:32.161Z</time></trkpt><trkpt lat="40.5139031" lon="9.3373155"><ele>738.6666666666666</ele><time>2026-05-02T13:42:33.16Z</time></trkpt><trkpt lat="40.5140437" lon="9.3374806"><ele>739.3333333333333</ele><time>2026-05-02T13:42:34.161Z</time></trkpt><trkpt lat="40.5141749" lon="9.3376439"><ele>740.0</ele><time>2026-05-02T13:42:35.16Z</time></trkpt><trkpt lat="40.5142969" lon="9.3378181"><ele>740.0</ele><time>2026-05-02T13:42:36.16Z</time></trkpt><trkpt lat="40.5144061" lon="9.3380081"><ele>740.0</ele><time>2026-05-02T13:42:37.16Z</time></trkpt><trkpt lat="40.5145102" lon="9.338207"><ele>740.0</ele><time>2026-05-02T13:42:38.16Z</time></trkpt><trkpt lat="40.514623" lon="9.3384084"><ele>741.0</ele><time>2026-05-02T13:42:39.161Z</time></trkpt><trkpt lat="40.5147473" lon="9.3386104"><ele>742.0</ele><time>2026-05-02T13:42:40.161Z</time></trkpt><trkpt lat="40.5148784" lon="9.3388177"><ele>743.0</ele><time>2026-05-02T13:42:41.16Z</time></trkpt><trkpt lat="40.5150113" lon="9.3390296"><ele>743.0</ele><time>2026-05-02T13:42:42.16Z</time></trkpt><trkpt lat="40.515147" lon="9.3392441"><ele>743.0</ele><time>2026-05-02T13:42:43.161Z</time></trkpt><trkpt lat="40.5152874" lon="9.3394661"><ele>743.0</ele><time>2026-05-02T13:42:44.16Z</time></trkpt><trkpt lat="40.5154281" lon="9.3396908"><ele>744.0</ele><time>2026-05-02T13:42:45.16Z</time></trkpt><trkpt lat="40.5155712" lon="9.3399201"><ele>745.0</ele><time>2026-05-02T13:42:46.16Z</time></trkpt><trkpt lat="40.515715" lon="9.3401485"><ele>745.0</ele><time>2026-05-02T13:42:47.16Z</time></trkpt><trkpt lat="40.5158524" lon="9.3403679"><ele>745.0</ele><time>2026-05-02T13:42:48.16Z</time></trkpt><trkpt lat="40.5159757" lon="9.3405667"><ele>745.0</ele><time>2026-05-02T13:42:49.161Z</time></trkpt><trkpt lat="40.5160917" lon="9.3407538"><ele>744.3333333333334</ele><time>2026-05-02T13:42:50.161Z</time></trkpt><trkpt lat="40.5162" lon="9.3409312"><ele>743.6666666666666</ele><time>2026-05-02T13:42:51.161Z</time></trkpt><trkpt lat="40.5162961" lon="9.3411082"><ele>743.0</ele><time>2026-05-02T13:42:52.161Z</time></trkpt><trkpt lat="40.5163736" lon="9.3412926"><ele>743.6666666666666</ele><time>2026-05-02T13:42:53.161Z</time></trkpt><trkpt lat="40.5164308" lon="9.3414915"><ele>744.3333333333334</ele><time>2026-05-02T13:42:54.16Z</time></trkpt><trkpt lat="40.5164695" lon="9.3417018"><ele>745.0</ele><time>2026-05-02T13:42:55.16Z</time></trkpt><trkpt lat="40.5165009" lon="9.341906"><ele>745.0</ele><time>2026-05-02T13:42:56.161Z</time></trkpt><trkpt lat="40.5165326" lon="9.3420991"><ele>745.0</ele><time>2026-05-02T13:42:57.161Z</time></trkpt><trkpt lat="40.5165844" lon="9.3422728"><ele>745.0</ele><time>2026-05-02T13:42:58.16Z</time></trkpt><trkpt lat="40.5166637" lon="9.3424328"><ele>745.0</ele><time>2026-05-02T13:42:59.161Z</time></trkpt><trkpt lat="40.5167692" lon="9.3425656"><ele>745.3333333333334</ele><time>2026-05-02T13:43:00.16Z</time></trkpt><trkpt lat="40.5168947" lon="9.3426808"><ele>745.6666666666666</ele><time>2026-05-02T13:43:01.161Z</time></trkpt><trkpt lat="40.5170334" lon="9.3427874"><ele>746.0</ele><time>2026-05-02T13:43:02.16Z</time></trkpt><trkpt lat="40.5171738" lon="9.3428962"><ele>745.25</ele><time>2026-05-02T13:43:03.161Z</time></trkpt><trkpt lat="40.5173133" lon="9.3429874"><ele>744.5</ele><time>2026-05-02T13:43:04.161Z</time></trkpt><trkpt lat="40.5174547" lon="9.3430359"><ele>743.75</ele><time>2026-05-02T13:43:05.16Z</time></trkpt><trkpt lat="40.5175963" lon="9.3430383"><ele>743.0</ele><time>2026-05-02T13:43:06.16Z</time></trkpt><trkpt lat="40.517736" lon="9.343001"><ele>743.0</ele><time>2026-05-02T13:43:07.16Z</time></trkpt><trkpt lat="40.5178744" lon="9.3429429"><ele>743.0</ele><time>2026-05-02T13:43:08.161Z</time></trkpt><trkpt lat="40.5180186" lon="9.342897"><ele>743.0</ele><time>2026-05-02T13:43:09.161Z</time></trkpt><trkpt lat="40.5181643" lon="9.342878"><ele>743.0</ele><time>2026-05-02T13:43:10.161Z</time></trkpt><trkpt lat="40.5183035" lon="9.3428977"><ele>744.0</ele><time>2026-05-02T13:43:11.16Z</time></trkpt><trkpt lat="40.5184403" lon="9.3429546"><ele>745.0</ele><time>2026-05-02T13:43:12.161Z</time></trkpt><trkpt lat="40.5185808" lon="9.3430435"><ele>746.0</ele><time>2026-05-02T13:43:13.161Z</time></trkpt><trkpt lat="40.5187287" lon="9.343146"><ele>747.0</ele><time>2026-05-02T13:43:14.16Z</time></trkpt><trkpt lat="40.518886" lon="9.3432491"><ele>748.0</ele><time>2026-05-02T13:43:15.161Z</time></trkpt><trkpt lat="40.5190521" lon="9.3433569"><ele>749.0</ele><time>2026-05-02T13:43:16.161Z</time></trkpt><trkpt lat="40.5192238" lon="9.3434676"><ele>749.0</ele><time>2026-05-02T13:43:17.161Z</time></trkpt><trkpt lat="40.5194014" lon="9.3435829"><ele>749.0</ele><time>2026-05-02T13:43:18.161Z</time></trkpt><trkpt lat="40.5195838" lon="9.3437012"><ele>749.0</ele><time>2026-05-02T13:43:19.16Z</time></trkpt><trkpt lat="40.5197661" lon="9.3438222"><ele>750.0</ele><time>2026-05-02T13:43:20.161Z</time></trkpt><trkpt lat="40.5199401" lon="9.3439386"><ele>751.0</ele><time>2026-05-02T13:43:21.161Z</time></trkpt><trkpt lat="40.5201131" lon="9.3440571"><ele>752.0</ele><time>2026-05-02T13:43:22.16Z</time></trkpt><trkpt lat="40.5202836" lon="9.3441743"><ele>751.3333333333333</ele><time>2026-05-02T13:43:23.161Z</time></trkpt><trkpt lat="40.5204414" lon="9.3442805"><ele>750.6666666666666</ele><time>2026-05-02T13:43:24.16Z</time></trkpt><trkpt lat="40.520591" lon="9.3443709"><ele>750.0</ele><time>2026-05-02T13:43:25.161Z</time></trkpt><trkpt lat="40.5207363" lon="9.344414"><ele>750.0</ele><time>2026-05-02T13:43:26.161Z</time></trkpt><trkpt lat="40.5208898" lon="9.3444122"><ele>750.0</ele><time>2026-05-02T13:43:27.161Z</time></trkpt><trkpt lat="40.5210465" lon="9.3443683"><ele>750.0</ele><time>2026-05-02T13:43:28.161Z</time></trkpt><trkpt lat="40.5212173" lon="9.3442979"><ele>751.3333333333334</ele><time>2026-05-02T13:43:29.161Z</time></trkpt><trkpt lat="40.521403" lon="9.3442208"><ele>752.6666666666667</ele><time>2026-05-02T13:43:30.16Z</time></trkpt><trkpt lat="40.5215964" lon="9.344148"><ele>754.0</ele><time>2026-05-02T13:43:31.16Z</time></trkpt><trkpt lat="40.5217998" lon="9.344072"><ele>754.0</ele><time>2026-05-02T13:43:32.161Z</time></trkpt><trkpt lat="40.5220082" lon="9.3439911"><ele>754.0</ele><time>2026-05-02T13:43:33.161Z</time></trkpt><trkpt lat="40.5222191" lon="9.3439144"><ele>754.0</ele><time>2026-05-02T13:43:34.161Z</time></trkpt><trkpt lat="40.5224276" lon="9.3438494"><ele>753.3333333333334</ele><time>2026-05-02T13:43:35.161Z</time></trkpt><trkpt lat="40.5226331" lon="9.3438115"><ele>752.6666666666666</ele><time>2026-05-02T13:43:36.16Z</time></trkpt><trkpt lat="40.5228401" lon="9.3438071"><ele>752.0</ele><time>2026-05-02T13:43:37.16Z</time></trkpt><trkpt lat="40.5230456" lon="9.3438375"><ele>754.6666666666666</ele><time>2026-05-02T13:43:38.16Z</time></trkpt><trkpt lat="40.5232462" lon="9.3438988"><ele>757.3333333333334</ele><time>2026-05-02T13:43:39.161Z</time></trkpt><trkpt lat="40.5234339" lon="9.3440012"><ele>760.0</ele><time>2026-05-02T13:43:40.161Z</time></trkpt><trkpt lat="40.5236129" lon="9.3441333"><ele>760.6666666666667</ele><time>2026-05-02T13:43:41.161Z</time></trkpt><trkpt lat="40.5237795" lon="9.3442987"><ele>761.3333333333334</ele><time>2026-05-02T13:43:42.161Z</time></trkpt><trkpt lat="40.5239181" lon="9.344485"><ele>762.0</ele><time>2026-05-02T13:43:43.16Z</time></trkpt><trkpt lat="40.5240485" lon="9.344684"><ele>760.3333333333334</ele><time>2026-05-02T13:43:44.16Z</time></trkpt><trkpt lat="40.5241916" lon="9.3448665"><ele>758.6666666666667</ele><time>2026-05-02T13:43:45.16Z</time></trkpt><trkpt lat="40.5243595" lon="9.345023"><ele>757.0</ele><time>2026-05-02T13:43:46.161Z</time></trkpt><trkpt lat="40.5245439" lon="9.345174"><ele>757.3333333333334</ele><time>2026-05-02T13:43:47.16Z</time></trkpt><trkpt lat="40.5247391" lon="9.3453322"><ele>757.6666666666666</ele><time>2026-05-02T13:43:48.16Z</time></trkpt><trkpt lat="40.5249204" lon="9.3454811"><ele>758.0</ele><time>2026-05-02T13:43:49.16Z</time></trkpt><trkpt lat="40.5250963" lon="9.3456251"><ele>758.0</ele><time>2026-05-02T13:43:50.16Z</time></trkpt><trkpt lat="40.525268" lon="9.3457473"><ele>758.0</ele><time>2026-05-02T13:43:51.16Z</time></trkpt><trkpt lat="40.5254463" lon="9.3458431"><ele>758.0</ele><time>2026-05-02T13:43:52.16Z</time></trkpt><trkpt lat="40.5256276" lon="9.345907"><ele>760.0</ele><time>2026-05-02T13:43:53.16Z</time></trkpt><trkpt lat="40.5258154" lon="9.3459529"><ele>762.0</ele><time>2026-05-02T13:43:54.161Z</time></trkpt><trkpt lat="40.5260072" lon="9.345993"><ele>764.0</ele><time>2026-05-02T13:43:55.16Z</time></trkpt><trkpt lat="40.5261965" lon="9.346025"><ele>765.6666666666666</ele><time>2026-05-02T13:43:56.161Z</time></trkpt><trkpt lat="40.5263842" lon="9.3460184"><ele>767.3333333333333</ele><time>2026-05-02T13:43:57.161Z</time></trkpt><trkpt lat="40.5265682" lon="9.3459781"><ele>769.0</ele><time>2026-05-02T13:43:58.161Z</time></trkpt><trkpt lat="40.5267548" lon="9.3458981"><ele>769.0</ele><time>2026-05-02T13:43:59.161Z</time></trkpt><trkpt lat="40.5269479" lon="9.3458014"><ele>769.0</ele><time>2026-05-02T13:44:00.161Z</time></trkpt><trkpt lat="40.5271477" lon="9.3457018"><ele>769.0</ele><time>2026-05-02T13:44:01.16Z</time></trkpt><trkpt lat="40.5273483" lon="9.3456035"><ele>771.0</ele><time>2026-05-02T13:44:02.16Z</time></trkpt><trkpt lat="40.5275447" lon="9.3455099"><ele>773.0</ele><time>2026-05-02T13:44:03.16Z</time></trkpt><trkpt lat="40.527743" lon="9.3454123"><ele>775.0</ele><time>2026-05-02T13:44:04.161Z</time></trkpt><trkpt lat="40.5279425" lon="9.3453142"><ele>776.0</ele><time>2026-05-02T13:44:05.161Z</time></trkpt><trkpt lat="40.5281358" lon="9.3452195"><ele>777.0</ele><time>2026-05-02T13:44:06.16Z</time></trkpt><trkpt lat="40.5283229" lon="9.3451259"><ele>778.0</ele><time>2026-05-02T13:44:07.161Z</time></trkpt><trkpt lat="40.5285088" lon="9.3450335"><ele>778.0</ele><time>2026-05-02T13:44:08.161Z</time></trkpt><trkpt lat="40.5286964" lon="9.3449397"><ele>778.0</ele><time>2026-05-02T13:44:09.161Z</time></trkpt><trkpt lat="40.528888" lon="9.3448457"><ele>778.0</ele><time>2026-05-02T13:44:10.16Z</time></trkpt><trkpt lat="40.5290809" lon="9.3447473"><ele>779.0</ele><time>2026-05-02T13:44:11.16Z</time></trkpt><trkpt lat="40.5292779" lon="9.344649"><ele>780.0</ele><time>2026-05-02T13:44:12.161Z</time></trkpt><trkpt lat="40.529465" lon="9.34455"><ele>781.0</ele><time>2026-05-02T13:44:13.16Z</time></trkpt><trkpt lat="40.5296441" lon="9.344456"><ele>781.0</ele><time>2026-05-02T13:44:14.16Z</time></trkpt><trkpt lat="40.5298197" lon="9.3443777"><ele>781.0</ele><time>2026-05-02T13:44:15.161Z</time></trkpt><trkpt lat="40.5299998" lon="9.3443226"><ele>781.0</ele><time>2026-05-02T13:44:16.161Z</time></trkpt><trkpt lat="40.5301798" lon="9.3443088"><ele>781.0</ele><time>2026-05-02T13:44:17.16Z</time></trkpt><trkpt lat="40.5303548" lon="9.3443436"><ele>781.0</ele><time>2026-05-02T13:44:18.161Z</time></trkpt><trkpt lat="40.5305245" lon="9.3444174"><ele>781.0</ele><time>2026-05-02T13:44:19.161Z</time></trkpt><trkpt lat="40.5306837" lon="9.3445128"><ele>782.0</ele><time>2026-05-02T13:44:20.161Z</time></trkpt><trkpt lat="40.5308325" lon="9.3445877"><ele>783.0</ele><time>2026-05-02T13:44:21.16Z</time></trkpt><trkpt lat="40.5309802" lon="9.3446054"><ele>784.0</ele><time>2026-05-02T13:44:22.16Z</time></trkpt><trkpt lat="40.5311346" lon="9.344584"><ele>786.3333333333333</ele><time>2026-05-02T13:44:23.161Z</time></trkpt><trkpt lat="40.531298" lon="9.3445339"><ele>788.6666666666667</ele><time>2026-05-02T13:44:24.16Z</time></trkpt><trkpt lat="40.5314647" lon="9.3444963"><ele>791.0</ele><time>2026-05-02T13:44:25.16Z</time></trkpt><trkpt lat="40.5316305" lon="9.3445027"><ele>791.0</ele><time>2026-05-02T13:44:26.161Z</time></trkpt><trkpt lat="40.5317935" lon="9.3445544"><ele>791.0</ele><time>2026-05-02T13:44:27.161Z</time></trkpt><trkpt lat="40.5319537" lon="9.3446323"><ele>791.0</ele><time>2026-05-02T13:44:28.16Z</time></trkpt><trkpt lat="40.532117" lon="9.3446817"><ele>792.3333333333334</ele><time>2026-05-02T13:44:29.161Z</time></trkpt><trkpt lat="40.5322814" lon="9.3446872"><ele>793.6666666666667</ele><time>2026-05-02T13:44:30.16Z</time></trkpt><trkpt lat="40.5324441" lon="9.344664"><ele>795.0</ele><time>2026-05-02T13:44:31.161Z</time></trkpt><trkpt lat="40.5326022" lon="9.3446814"><ele>794.3333333333333</ele><time>2026-05-02T13:44:32.16Z</time></trkpt><trkpt lat="40.5327541" lon="9.3447382"><ele>793.6666666666666</ele><time>2026-05-02T13:44:33.16Z</time></trkpt><trkpt lat="40.5328899" lon="9.3448406"><ele>793.0</ele><time>2026-05-02T13:44:34.161Z</time></trkpt><trkpt lat="40.5330095" lon="9.3449694"><ele>794.5</ele><time>2026-05-02T13:44:35.161Z</time></trkpt><trkpt lat="40.5331163" lon="9.3450762"><ele>796.0</ele><time>2026-05-02T13:44:36.16Z</time></trkpt><trkpt lat="40.5332349" lon="9.3451283"><ele>797.5</ele><time>2026-05-02T13:44:37.16Z</time></trkpt><trkpt lat="40.5333683" lon="9.3451266"><ele>799.0</ele><time>2026-05-02T13:44:38.161Z</time></trkpt><trkpt lat="40.5335142" lon="9.3450819"><ele>799.0</ele><time>2026-05-02T13:44:39.16Z</time></trkpt><trkpt lat="40.5336747" lon="9.3450097"><ele>799.0</ele><time>2026-05-02T13:44:40.161Z</time></trkpt><trkpt lat="40.5338476" lon="9.3449321"><ele>799.0</ele><time>2026-05-02T13:44:41.16Z</time></trkpt><trkpt lat="40.5340304" lon="9.3448522"><ele>799.6666666666666</ele><time>2026-05-02T13:44:42.161Z</time></trkpt><trkpt lat="40.5342193" lon="9.3447695"><ele>800.3333333333333</ele><time>2026-05-02T13:44:43.161Z</time></trkpt><trkpt lat="40.5344091" lon="9.344684"><ele>801.0</ele><time>2026-05-02T13:44:44.16Z</time></trkpt><trkpt lat="40.5345987" lon="9.3445992"><ele>803.0</ele><time>2026-05-02T13:44:45.16Z</time></trkpt><trkpt lat="40.5347847" lon="9.3445108"><ele>805.0</ele><time>2026-05-02T13:44:46.16Z</time></trkpt><trkpt lat="40.5349685" lon="9.3444044"><ele>807.0</ele><time>2026-05-02T13:44:47.161Z</time></trkpt><trkpt lat="40.5351521" lon="9.3442818"><ele>807.0</ele><time>2026-05-02T13:44:48.16Z</time></trkpt><trkpt lat="40.5353393" lon="9.3441477"><ele>807.0</ele><time>2026-05-02T13:44:49.16Z</time></trkpt><trkpt lat="40.5355315" lon="9.3440102"><ele>807.0</ele><time>2026-05-02T13:44:50.16Z</time></trkpt><trkpt lat="40.5357258" lon="9.3438827"><ele>807.0</ele><time>2026-05-02T13:44:51.16Z</time></trkpt><trkpt lat="40.5359034" lon="9.3437606"><ele>807.0</ele><time>2026-05-02T13:44:52.161Z</time></trkpt><trkpt lat="40.5360714" lon="9.343641"><ele>807.0</ele><time>2026-05-02T13:44:53.161Z</time></trkpt><trkpt lat="40.5362249" lon="9.3435287"><ele>807.0</ele><time>2026-05-02T13:44:54.16Z</time></trkpt><trkpt lat="40.5363654" lon="9.3434105"><ele>807.0</ele><time>2026-05-02T13:44:55.161Z</time></trkpt><trkpt lat="40.5364913" lon="9.3432682"><ele>807.0</ele><time>2026-05-02T13:44:56.161Z</time></trkpt><trkpt lat="40.5366006" lon="9.3431003"><ele>808.3333333333333</ele><time>2026-05-02T13:44:57.161Z</time></trkpt><trkpt lat="40.5367093" lon="9.3429109"><ele>809.6666666666666</ele><time>2026-05-02T13:44:58.16Z</time></trkpt><trkpt lat="40.5368204" lon="9.3427035"><ele>811.0</ele><time>2026-05-02T13:44:59.16Z</time></trkpt><trkpt lat="40.5369392" lon="9.3424863"><ele>811.6666666666666</ele><time>2026-05-02T13:45:00.161Z</time></trkpt><trkpt lat="40.5370642" lon="9.3422624"><ele>812.3333333333333</ele><time>2026-05-02T13:45:01.16Z</time></trkpt><trkpt lat="40.5371883" lon="9.3420395"><ele>813.0</ele><time>2026-05-02T13:45:02.16Z</time></trkpt><trkpt lat="40.5373155" lon="9.3418171"><ele>813.0</ele><time>2026-05-02T13:45:03.16Z</time></trkpt><trkpt lat="40.5374433" lon="9.3415907"><ele>813.0</ele><time>2026-05-02T13:45:04.161Z</time></trkpt><trkpt lat="40.537569" lon="9.3413637"><ele>813.0</ele><time>2026-05-02T13:45:05.16Z</time></trkpt><trkpt lat="40.5376894" lon="9.3411433"><ele>813.6666666666667</ele><time>2026-05-02T13:45:06.16Z</time></trkpt><trkpt lat="40.5378185" lon="9.3409105"><ele>814.3333333333334</ele><time>2026-05-02T13:45:07.161Z</time></trkpt><trkpt lat="40.5379512" lon="9.3406704"><ele>815.0</ele><time>2026-05-02T13:45:08.161Z</time></trkpt><trkpt lat="40.5380776" lon="9.3404447"><ele>816.6666666666667</ele><time>2026-05-02T13:45:09.161Z</time></trkpt><trkpt lat="40.5382014" lon="9.3402233"><ele>818.3333333333333</ele><time>2026-05-02T13:45:10.16Z</time></trkpt><trkpt lat="40.5383226" lon="9.3400015"><ele>820.0</ele><time>2026-05-02T13:45:11.161Z</time></trkpt><trkpt lat="40.5384417" lon="9.3397796"><ele>821.3333333333333</ele><time>2026-05-02T13:45:12.16Z</time></trkpt><trkpt lat="40.538562" lon="9.3395603"><ele>822.6666666666667</ele><time>2026-05-02T13:45:13.16Z</time></trkpt><trkpt lat="40.5386827" lon="9.3393438"><ele>824.0</ele><time>2026-05-02T13:45:14.16Z</time></trkpt><trkpt lat="40.5387962" lon="9.339142"><ele>824.0</ele><time>2026-05-02T13:45:15.161Z</time></trkpt><trkpt lat="40.5389053" lon="9.3389626"><ele>824.0</ele><time>2026-05-02T13:45:16.16Z</time></trkpt><trkpt lat="40.5390248" lon="9.3388254"><ele>824.0</ele><time>2026-05-02T13:45:17.161Z</time></trkpt><trkpt lat="40.5391559" lon="9.3387262"><ele>824.3333333333334</ele><time>2026-05-02T13:45:18.161Z</time></trkpt><trkpt lat="40.5393023" lon="9.3386733"><ele>824.6666666666667</ele><time>2026-05-02T13:45:19.161Z</time></trkpt><trkpt lat="40.5394678" lon="9.3386567"><ele>825.0</ele><time>2026-05-02T13:45:20.161Z</time></trkpt><trkpt lat="40.5396482" lon="9.3386474"><ele>822.3333333333333</ele><time>2026-05-02T13:45:21.161Z</time></trkpt><trkpt lat="40.539848" lon="9.3386333"><ele>819.6666666666666</ele><time>2026-05-02T13:45:22.161Z</time></trkpt><trkpt lat="40.5400368" lon="9.3386175"><ele>817.0</ele><time>2026-05-02T13:45:23.16Z</time></trkpt><trkpt lat="40.5402168" lon="9.3386182"><ele>815.0</ele><time>2026-05-02T13:45:24.161Z</time></trkpt><trkpt lat="40.5403938" lon="9.3386626"><ele>813.0</ele><time>2026-05-02T13:45:25.161Z</time></trkpt><trkpt lat="40.5405679" lon="9.3387448"><ele>811.0</ele><time>2026-05-02T13:45:26.16Z</time></trkpt><trkpt lat="40.5407322" lon="9.3388311"><ele>811.0</ele><time>2026-05-02T13:45:27.161Z</time></trkpt><trkpt lat="40.5409066" lon="9.3388819"><ele>811.0</ele><time>2026-05-02T13:45:28.16Z</time></trkpt><trkpt lat="40.5410938" lon="9.338901"><ele>811.0</ele><time>2026-05-02T13:45:29.16Z</time></trkpt><trkpt lat="40.5412972" lon="9.3388972"><ele>810.6666666666666</ele><time>2026-05-02T13:45:30.16Z</time></trkpt><trkpt lat="40.5415116" lon="9.3388851"><ele>810.3333333333333</ele><time>2026-05-02T13:45:31.16Z</time></trkpt><trkpt lat="40.541731" lon="9.3388749"><ele>810.0</ele><time>2026-05-02T13:45:32.161Z</time></trkpt><trkpt lat="40.5419483" lon="9.3388642"><ele>809.6666666666667</ele><time>2026-05-02T13:45:33.161Z</time></trkpt><trkpt lat="40.5421575" lon="9.3388546"><ele>809.3333333333334</ele><time>2026-05-02T13:45:34.161Z</time></trkpt><trkpt lat="40.5423706" lon="9.3388434"><ele>809.0</ele><time>2026-05-02T13:45:35.16Z</time></trkpt><trkpt lat="40.5425851" lon="9.3388322"><ele>809.0</ele><time>2026-05-02T13:45:36.161Z</time></trkpt><trkpt lat="40.5427892" lon="9.3388226"><ele>809.0</ele><time>2026-05-02T13:45:37.161Z</time></trkpt><trkpt lat="40.5429719" lon="9.3388135"><ele>809.0</ele><time>2026-05-02T13:45:38.16Z</time></trkpt><trkpt lat="40.5431414" lon="9.3388037"><ele>808.0</ele><time>2026-05-02T13:45:39.161Z</time></trkpt><trkpt lat="40.5433072" lon="9.3387878"><ele>807.0</ele><time>2026-05-02T13:45:40.161Z</time></trkpt><trkpt lat="40.5434683" lon="9.3387283"><ele>806.0</ele><time>2026-05-02T13:45:41.161Z</time></trkpt><trkpt lat="40.54362" lon="9.3386226"><ele>809.3333333333334</ele><time>2026-05-02T13:45:42.161Z</time></trkpt><trkpt lat="40.5437757" lon="9.338488"><ele>812.6666666666667</ele><time>2026-05-02T13:45:43.16Z</time></trkpt><trkpt lat="40.54392" lon="9.3383615"><ele>816.0</ele><time>2026-05-02T13:45:44.16Z</time></trkpt><trkpt lat="40.5440409" lon="9.3382252"><ele>814.0</ele><time>2026-05-02T13:45:45.161Z</time></trkpt><trkpt lat="40.5441318" lon="9.3380489"><ele>812.0</ele><time>2026-05-02T13:45:46.161Z</time></trkpt><trkpt lat="40.5441901" lon="9.337848"><ele>810.0</ele><time>2026-05-02T13:45:47.161Z</time></trkpt><trkpt lat="40.5442338" lon="9.3376368"><ele>810.0</ele><time>2026-05-02T13:45:48.16Z</time></trkpt><trkpt lat="40.5442913" lon="9.3374519"><ele>810.0</ele><time>2026-05-02T13:45:49.161Z</time></trkpt><trkpt lat="40.5443729" lon="9.3373003"><ele>810.0</ele><time>2026-05-02T13:45:50.16Z</time></trkpt><trkpt lat="40.5444732" lon="9.3371997"><ele>810.0</ele><time>2026-05-02T13:45:51.16Z</time></trkpt><trkpt lat="40.5445859" lon="9.3371569"><ele>810.75</ele><time>2026-05-02T13:45:52.161Z</time></trkpt><trkpt lat="40.5447151" lon="9.3371627"><ele>811.5</ele><time>2026-05-02T13:45:53.161Z</time></trkpt><trkpt lat="40.5448556" lon="9.3372163"><ele>812.25</ele><time>2026-05-02T13:45:54.161Z</time></trkpt><trkpt lat="40.5449978" lon="9.3373056"><ele>813.0</ele><time>2026-05-02T13:45:55.161Z</time></trkpt><trkpt lat="40.5451367" lon="9.3374204"><ele>815.6666666666667</ele><time>2026-05-02T13:45:56.161Z</time></trkpt><trkpt lat="40.5452683" lon="9.3375547"><ele>818.3333333333334</ele><time>2026-05-02T13:45:57.161Z</time></trkpt><trkpt lat="40.5454016" lon="9.3377072"><ele>821.0</ele><time>2026-05-02T13:45:58.161Z</time></trkpt><trkpt lat="40.5455406" lon="9.3378733"><ele>821.3333333333334</ele><time>2026-05-02T13:45:59.16Z</time></trkpt><trkpt lat="40.5456842" lon="9.3380465"><ele>821.6666666666667</ele><time>2026-05-02T13:46:00.161Z</time></trkpt><trkpt lat="40.5458228" lon="9.3382212"><ele>822.0</ele><time>2026-05-02T13:46:01.161Z</time></trkpt><trkpt lat="40.5459568" lon="9.3383922"><ele>824.3333333333333</ele><time>2026-05-02T13:46:02.161Z</time></trkpt><trkpt lat="40.5460954" lon="9.3385557"><ele>826.6666666666666</ele><time>2026-05-02T13:46:03.161Z</time></trkpt><trkpt lat="40.5462443" lon="9.3387024"><ele>829.0</ele><time>2026-05-02T13:46:04.161Z</time></trkpt><trkpt lat="40.5464064" lon="9.3388311"><ele>830.3333333333333</ele><time>2026-05-02T13:46:05.161Z</time></trkpt><trkpt lat="40.5465803" lon="9.3389392"><ele>831.6666666666667</ele><time>2026-05-02T13:46:06.161Z</time></trkpt><trkpt lat="40.5467614" lon="9.3390225"><ele>833.0</ele><time>2026-05-02T13:46:07.16Z</time></trkpt><trkpt lat="40.5469468" lon="9.3390722"><ele>832.0</ele><time>2026-05-02T13:46:08.161Z</time></trkpt><trkpt lat="40.5471359" lon="9.3390913"><ele>831.0</ele><time>2026-05-02T13:46:09.16Z</time></trkpt><trkpt lat="40.5473274" lon="9.3390742"><ele>830.0</ele><time>2026-05-02T13:46:10.161Z</time></trkpt><trkpt lat="40.5475215" lon="9.3390449"><ele>830.0</ele><time>2026-05-02T13:46:11.161Z</time></trkpt><trkpt lat="40.5477151" lon="9.3390089"><ele>830.0</ele><time>2026-05-02T13:46:12.161Z</time></trkpt><trkpt lat="40.5479092" lon="9.3389714"><ele>830.0</ele><time>2026-05-02T13:46:13.161Z</time></trkpt><trkpt lat="40.5481091" lon="9.3389347"><ele>828.3333333333334</ele><time>2026-05-02T13:46:14.16Z</time></trkpt><trkpt lat="40.5483148" lon="9.3388982"><ele>826.6666666666667</ele><time>2026-05-02T13:46:15.16Z</time></trkpt><trkpt lat="40.5485217" lon="9.3388587"><ele>825.0</ele><time>2026-05-02T13:46:16.16Z</time></trkpt><trkpt lat="40.548729" lon="9.3388184"><ele>823.0</ele><time>2026-05-02T13:46:17.16Z</time></trkpt><trkpt lat="40.5489406" lon="9.3387794"><ele>821.0</ele><time>2026-05-02T13:46:18.16Z</time></trkpt><trkpt lat="40.5491465" lon="9.3387415"><ele>819.0</ele><time>2026-05-02T13:46:19.161Z</time></trkpt><trkpt lat="40.549353" lon="9.3387034"><ele>818.6666666666667</ele><time>2026-05-02T13:46:20.16Z</time></trkpt><trkpt lat="40.5495548" lon="9.3386679"><ele>818.3333333333334</ele><time>2026-05-02T13:46:21.16Z</time></trkpt><trkpt lat="40.549745" lon="9.3386327"><ele>818.0</ele><time>2026-05-02T13:46:22.16Z</time></trkpt><trkpt lat="40.549922" lon="9.3385996"><ele>818.0</ele><time>2026-05-02T13:46:23.161Z</time></trkpt><trkpt lat="40.5500845" lon="9.3385566"><ele>818.0</ele><time>2026-05-02T13:46:24.161Z</time></trkpt><trkpt lat="40.5502288" lon="9.3384724"><ele>818.0</ele><time>2026-05-02T13:46:25.161Z</time></trkpt><trkpt lat="40.5503706" lon="9.3383486"><ele>817.6666666666667</ele><time>2026-05-02T13:46:26.161Z</time></trkpt><trkpt lat="40.5505167" lon="9.3381875"><ele>817.3333333333333</ele><time>2026-05-02T13:46:27.16Z</time></trkpt><trkpt lat="40.5506765" lon="9.338008"><ele>817.0</ele><time>2026-05-02T13:46:28.16Z</time></trkpt><trkpt lat="40.5508484" lon="9.337819"><ele>817.0</ele><time>2026-05-02T13:46:29.16Z</time></trkpt><trkpt lat="40.5510248" lon="9.3376272"><ele>817.0</ele><time>2026-05-02T13:46:30.161Z</time></trkpt><trkpt lat="40.5512021" lon="9.3374327"><ele>817.0</ele><time>2026-05-02T13:46:31.161Z</time></trkpt><trkpt lat="40.5513744" lon="9.337243"><ele>817.0</ele><time>2026-05-02T13:46:32.16Z</time></trkpt><trkpt lat="40.551539" lon="9.3370661"><ele>817.0</ele><time>2026-05-02T13:46:33.16Z</time></trkpt><trkpt lat="40.5517018" lon="9.3368887"><ele>817.0</ele><time>2026-05-02T13:46:34.161Z</time></trkpt><trkpt lat="40.5518401" lon="9.3367457"><ele>817.0</ele><time>2026-05-02T13:46:35.161Z</time></trkpt><trkpt lat="40.5519971" lon="9.3366002"><ele>817.0</ele><time>2026-05-02T13:46:36.161Z</time></trkpt><trkpt lat="40.552173" lon="9.3364663"><ele>817.0</ele><time>2026-05-02T13:46:37.16Z</time></trkpt><trkpt lat="40.5523656" lon="9.336339"><ele>817.0</ele><time>2026-05-02T13:46:38.16Z</time></trkpt><trkpt lat="40.5525617" lon="9.3362182"><ele>817.0</ele><time>2026-05-02T13:46:39.16Z</time></trkpt><trkpt lat="40.5527563" lon="9.3361092"><ele>818.3333333333333</ele><time>2026-05-02T13:46:40.161Z</time></trkpt><trkpt lat="40.5529434" lon="9.3360066"><ele>819.6666666666667</ele><time>2026-05-02T13:46:41.16Z</time></trkpt><trkpt lat="40.553115" lon="9.335914"><ele>821.0</ele><time>2026-05-02T13:46:42.161Z</time></trkpt><trkpt lat="40.5532766" lon="9.3358198"><ele>821.0</ele><time>2026-05-02T13:46:43.16Z</time></trkpt><trkpt lat="40.5534243" lon="9.3357361"><ele>821.0</ele><time>2026-05-02T13:46:44.161Z</time></trkpt><trkpt lat="40.553572" lon="9.3356633"><ele>821.0</ele><time>2026-05-02T13:46:45.161Z</time></trkpt><trkpt lat="40.5537221" lon="9.3356309"><ele>819.0</ele><time>2026-05-02T13:46:46.161Z</time></trkpt><trkpt lat="40.5538722" lon="9.3356269"><ele>817.0</ele><time>2026-05-02T13:46:47.161Z</time></trkpt><trkpt lat="40.5540197" lon="9.3357162"><ele>815.0</ele><time>2026-05-02T13:46:48.161Z</time></trkpt><trkpt lat="40.5541662" lon="9.3358263"><ele>815.0</ele><time>2026-05-02T13:46:49.16Z</time></trkpt><trkpt lat="40.5543248" lon="9.3359441"><ele>815.0</ele><time>2026-05-02T13:46:50.161Z</time></trkpt><trkpt lat="40.5545003" lon="9.336032"><ele>815.0</ele><time>2026-05-02T13:46:51.16Z</time></trkpt><trkpt lat="40.5546837" lon="9.3360932"><ele>812.6666666666667</ele><time>2026-05-02T13:46:52.161Z</time></trkpt><trkpt lat="40.5548705" lon="9.3361476"><ele>810.3333333333333</ele><time>2026-05-02T13:46:53.16Z</time></trkpt><trkpt lat="40.5550409" lon="9.3362235"><ele>808.0</ele><time>2026-05-02T13:46:54.161Z</time></trkpt><trkpt lat="40.5552083" lon="9.3363455"><ele>809.0</ele><time>2026-05-02T13:46:55.161Z</time></trkpt><trkpt lat="40.5553667" lon="9.3364906"><ele>810.0</ele><time>2026-05-02T13:46:56.16Z</time></trkpt><trkpt lat="40.5555215" lon="9.3366574"><ele>811.0</ele><time>2026-05-02T13:46:57.161Z</time></trkpt><trkpt lat="40.5556668" lon="9.3368511"><ele>808.6666666666666</ele><time>2026-05-02T13:46:58.161Z</time></trkpt><trkpt lat="40.5558121" lon="9.337067"><ele>806.3333333333333</ele><time>2026-05-02T13:46:59.16Z</time></trkpt><trkpt lat="40.5559566" lon="9.3372961"><ele>804.0</ele><time>2026-05-02T13:47:00.16Z</time></trkpt><trkpt lat="40.5561004" lon="9.3375295"><ele>800.6666666666667</ele><time>2026-05-02T13:47:01.16Z</time></trkpt><trkpt lat="40.55623" lon="9.3377591"><ele>797.3333333333334</ele><time>2026-05-02T13:47:02.161Z</time></trkpt><trkpt lat="40.5563487" lon="9.3379821"><ele>794.0</ele><time>2026-05-02T13:47:03.161Z</time></trkpt><trkpt lat="40.5564387" lon="9.3381988"><ele>794.0</ele><time>2026-05-02T13:47:04.16Z</time></trkpt><trkpt lat="40.5565066" lon="9.3383774"><ele>794.0</ele><time>2026-05-02T13:47:05.16Z</time></trkpt><trkpt lat="40.5565731" lon="9.3385394"><ele>794.0</ele><time>2026-05-02T13:47:06.161Z</time></trkpt><trkpt lat="40.5566395" lon="9.3386882"><ele>794.0</ele><time>2026-05-02T13:47:07.16Z</time></trkpt><trkpt lat="40.556714" lon="9.3388144"><ele>793.5</ele><time>2026-05-02T13:47:08.161Z</time></trkpt><trkpt lat="40.5568031" lon="9.338924"><ele>793.0</ele><time>2026-05-02T13:47:09.161Z</time></trkpt><trkpt lat="40.5569208" lon="9.3389405"><ele>792.5</ele><time>2026-05-02T13:47:10.16Z</time></trkpt><trkpt lat="40.5570383" lon="9.3389121"><ele>792.0</ele><time>2026-05-02T13:47:11.161Z</time></trkpt><trkpt lat="40.5571532" lon="9.3388296"><ele>789.75</ele><time>2026-05-02T13:47:12.16Z</time></trkpt><trkpt lat="40.5572349" lon="9.3387068"><ele>787.5</ele><time>2026-05-02T13:47:13.16Z</time></trkpt><trkpt lat="40.5572874" lon="9.3385434"><ele>785.25</ele><time>2026-05-02T13:47:14.161Z</time></trkpt><trkpt lat="40.5573163" lon="9.3383414"><ele>783.0</ele><time>2026-05-02T13:47:15.16Z</time></trkpt><trkpt lat="40.5573402" lon="9.3381199"><ele>783.0</ele><time>2026-05-02T13:47:16.161Z</time></trkpt><trkpt lat="40.557361" lon="9.3378909"><ele>783.0</ele><time>2026-05-02T13:47:17.161Z</time></trkpt><trkpt lat="40.5573868" lon="9.337677"><ele>783.0</ele><time>2026-05-02T13:47:18.16Z</time></trkpt><trkpt lat="40.5574129" lon="9.3374699"><ele>783.0</ele><time>2026-05-02T13:47:19.161Z</time></trkpt><trkpt lat="40.5574388" lon="9.3372813"><ele>783.0</ele><time>2026-05-02T13:47:20.161Z</time></trkpt><trkpt lat="40.5574732" lon="9.3370981"><ele>783.0</ele><time>2026-05-02T13:47:21.16Z</time></trkpt><trkpt lat="40.5575236" lon="9.3369489"><ele>783.0</ele><time>2026-05-02T13:47:22.161Z</time></trkpt><trkpt lat="40.5575998" lon="9.3368516"><ele>783.0</ele><time>2026-05-02T13:47:23.16Z</time></trkpt><trkpt lat="40.5577007" lon="9.3368192"><ele>783.0</ele><time>2026-05-02T13:47:24.161Z</time></trkpt><trkpt lat="40.5578189" lon="9.3368277"><ele>783.0</ele><time>2026-05-02T13:47:25.161Z</time></trkpt><trkpt lat="40.557956" lon="9.3368621"><ele>783.0</ele><time>2026-05-02T13:47:26.16Z</time></trkpt><trkpt lat="40.5581027" lon="9.3369004"><ele>781.0</ele><time>2026-05-02T13:47:27.161Z</time></trkpt><trkpt lat="40.55827" lon="9.3369241"><ele>779.0</ele><time>2026-05-02T13:47:28.16Z</time></trkpt><trkpt lat="40.5584324" lon="9.3369463"><ele>777.0</ele><time>2026-05-02T13:47:29.161Z</time></trkpt><trkpt lat="40.5585709" lon="9.3370022"><ele>777.0</ele><time>2026-05-02T13:47:30.161Z</time></trkpt><trkpt lat="40.5586925" lon="9.3370691"><ele>777.0</ele><time>2026-05-02T13:47:31.16Z</time></trkpt><trkpt lat="40.5588093" lon="9.3371023"><ele>777.0</ele><time>2026-05-02T13:47:32.161Z</time></trkpt><trkpt lat="40.5589284" lon="9.3370802"><ele>777.0</ele><time>2026-05-02T13:47:33.16Z</time></trkpt><trkpt lat="40.5590484" lon="9.3370082"><ele>775.0</ele><time>2026-05-02T13:47:34.16Z</time></trkpt><trkpt lat="40.5591689" lon="9.3369029"><ele>773.0</ele><time>2026-05-02T13:47:35.161Z</time></trkpt><trkpt lat="40.5592946" lon="9.3367786"><ele>771.0</ele><time>2026-05-02T13:47:36.16Z</time></trkpt><trkpt lat="40.5594166" lon="9.336658"><ele>771.0</ele><time>2026-05-02T13:47:37.161Z</time></trkpt><trkpt lat="40.5595264" lon="9.3365434"><ele>771.0</ele><time>2026-05-02T13:47:38.16Z</time></trkpt><trkpt lat="40.5596301" lon="9.3364408"><ele>771.0</ele><time>2026-05-02T13:47:39.16Z</time></trkpt><trkpt lat="40.5597383" lon="9.3363689"><ele>771.0</ele><time>2026-05-02T13:47:40.16Z</time></trkpt><trkpt lat="40.559848" lon="9.3363495"><ele>769.8</ele><time>2026-05-02T13:47:41.161Z</time></trkpt><trkpt lat="40.5599491" lon="9.3363685"><ele>768.5999999999999</ele><time>2026-05-02T13:47:42.16Z</time></trkpt><trkpt lat="40.5600609" lon="9.3363802"><ele>767.4</ele><time>2026-05-02T13:47:43.16Z</time></trkpt><trkpt lat="40.5601636" lon="9.3363321"><ele>766.2</ele><time>2026-05-02T13:47:44.161Z</time></trkpt><trkpt lat="40.5602533" lon="9.3362318"><ele>765.0</ele><time>2026-05-02T13:47:45.161Z</time></trkpt><trkpt lat="40.5603198" lon="9.3360894"><ele>768.6666666666667</ele><time>2026-05-02T13:47:46.161Z</time></trkpt><trkpt lat="40.5603693" lon="9.3359111"><ele>772.3333333333334</ele><time>2026-05-02T13:47:47.16Z</time></trkpt><trkpt lat="40.5604092" lon="9.3357253"><ele>776.0</ele><time>2026-05-02T13:47:48.16Z</time></trkpt><trkpt lat="40.560434" lon="9.3355097"><ele>776.25</ele><time>2026-05-02T13:47:49.16Z</time></trkpt><trkpt lat="40.5604046" lon="9.3353287"><ele>776.5</ele><time>2026-05-02T13:47:50.161Z</time></trkpt><trkpt lat="40.5603773" lon="9.335146"><ele>776.75</ele><time>2026-05-02T13:47:51.161Z</time></trkpt><trkpt lat="40.5603732" lon="9.3349608"><ele>777.0</ele><time>2026-05-02T13:47:52.161Z</time></trkpt><trkpt lat="40.5603964" lon="9.3347771"><ele>777.25</ele><time>2026-05-02T13:47:53.161Z</time></trkpt><trkpt lat="40.5604207" lon="9.3345896"><ele>777.5</ele><time>2026-05-02T13:47:54.16Z</time></trkpt><trkpt lat="40.5604127" lon="9.3344062"><ele>777.75</ele><time>2026-05-02T13:47:55.161Z</time></trkpt><trkpt lat="40.5604044" lon="9.3342283"><ele>778.0</ele><time>2026-05-02T13:47:56.161Z</time></trkpt><trkpt lat="40.5604076" lon="9.3340551"><ele>778.0</ele><time>2026-05-02T13:47:57.161Z</time></trkpt><trkpt lat="40.5604517" lon="9.333906"><ele>778.0</ele><time>2026-05-02T13:47:58.16Z</time></trkpt><trkpt lat="40.5605346" lon="9.3337583"><ele>778.0</ele><time>2026-05-02T13:47:59.16Z</time></trkpt><trkpt lat="40.5606424" lon="9.3336021"><ele>778.0</ele><time>2026-05-02T13:48:00.16Z</time></trkpt><trkpt lat="40.5607564" lon="9.3334604"><ele>776.75</ele><time>2026-05-02T13:48:01.161Z</time></trkpt><trkpt lat="40.5608664" lon="9.333337"><ele>775.5</ele><time>2026-05-02T13:48:02.16Z</time></trkpt><trkpt lat="40.5609741" lon="9.333254"><ele>774.25</ele><time>2026-05-02T13:48:03.161Z</time></trkpt><trkpt lat="40.5611009" lon="9.333221"><ele>773.0</ele><time>2026-05-02T13:48:04.161Z</time></trkpt><trkpt lat="40.5612367" lon="9.3332114"><ele>772.75</ele><time>2026-05-02T13:48:05.16Z</time></trkpt><trkpt lat="40.5613651" lon="9.3332232"><ele>772.5</ele><time>2026-05-02T13:48:06.16Z</time></trkpt><trkpt lat="40.5614858" lon="9.3332692"><ele>772.25</ele><time>2026-05-02T13:48:07.161Z</time></trkpt><trkpt lat="40.5615843" lon="9.3333772"><ele>772.0</ele><time>2026-05-02T13:48:08.161Z</time></trkpt><trkpt lat="40.5616793" lon="9.3334771"><ele>772.0</ele><time>2026-05-02T13:48:09.16Z</time></trkpt><trkpt lat="40.5617865" lon="9.3335245"><ele>772.0</ele><time>2026-05-02T13:48:10.161Z</time></trkpt><trkpt lat="40.5619056" lon="9.333513"><ele>772.0</ele><time>2026-05-02T13:48:11.161Z</time></trkpt><trkpt lat="40.5620221" lon="9.3334602"><ele>772.0</ele><time>2026-05-02T13:48:12.16Z</time></trkpt><trkpt lat="40.5621487" lon="9.3334054"><ele>770.3333333333333</ele><time>2026-05-02T13:48:13.161Z</time></trkpt><trkpt lat="40.5622917" lon="9.3333887"><ele>768.6666666666666</ele><time>2026-05-02T13:48:14.16Z</time></trkpt><trkpt lat="40.5624476" lon="9.3333918"><ele>767.0</ele><time>2026-05-02T13:48:15.161Z</time></trkpt><trkpt lat="40.5626007" lon="9.3334165"><ele>767.0</ele><time>2026-05-02T13:48:16.16Z</time></trkpt><trkpt lat="40.5627353" lon="9.3334761"><ele>767.0</ele><time>2026-05-02T13:48:17.161Z</time></trkpt><trkpt lat="40.5628493" lon="9.3335511"><ele>767.0</ele><time>2026-05-02T13:48:18.16Z</time></trkpt><trkpt lat="40.5629597" lon="9.3336028"><ele>767.0</ele><time>2026-05-02T13:48:19.161Z</time></trkpt><trkpt lat="40.5630722" lon="9.3335961"><ele>767.25</ele><time>2026-05-02T13:48:20.161Z</time></trkpt><trkpt lat="40.5631723" lon="9.3335224"><ele>767.5</ele><time>2026-05-02T13:48:21.161Z</time></trkpt><trkpt lat="40.5632321" lon="9.3334026"><ele>767.75</ele><time>2026-05-02T13:48:22.161Z</time></trkpt><trkpt lat="40.5632493" lon="9.333263"><ele>768.0</ele><time>2026-05-02T13:48:23.16Z</time></trkpt><trkpt lat="40.5632305" lon="9.3330934"><ele>769.3333333333333</ele><time>2026-05-02T13:48:24.161Z</time></trkpt><trkpt lat="40.5631983" lon="9.3328975"><ele>770.6666666666666</ele><time>2026-05-02T13:48:25.16Z</time></trkpt><trkpt lat="40.5631593" lon="9.3326953"><ele>772.0</ele><time>2026-05-02T13:48:26.16Z</time></trkpt><trkpt lat="40.5631388" lon="9.3325018"><ele>772.0</ele><time>2026-05-02T13:48:27.16Z</time></trkpt><trkpt lat="40.5631494" lon="9.3323028"><ele>772.0</ele><time>2026-05-02T13:48:28.161Z</time></trkpt><trkpt lat="40.5631863" lon="9.3321003"><ele>772.0</ele><time>2026-05-02T13:48:29.16Z</time></trkpt><trkpt lat="40.5632321" lon="9.3318871"><ele>773.25</ele><time>2026-05-02T13:48:30.161Z</time></trkpt><trkpt lat="40.5632845" lon="9.3316809"><ele>774.5</ele><time>2026-05-02T13:48:31.16Z</time></trkpt><trkpt lat="40.5633223" lon="9.3314968"><ele>775.75</ele><time>2026-05-02T13:48:32.16Z</time></trkpt><trkpt lat="40.5633393" lon="9.331329"><ele>777.0</ele><time>2026-05-02T13:48:33.16Z</time></trkpt><trkpt lat="40.5633189" lon="9.3311731"><ele>778.5</ele><time>2026-05-02T13:48:34.16Z</time></trkpt><trkpt lat="40.5632612" lon="9.3310246"><ele>780.0</ele><time>2026-05-02T13:48:35.16Z</time></trkpt><trkpt lat="40.5631636" lon="9.3308726"><ele>781.5</ele><time>2026-05-02T13:48:36.16Z</time></trkpt><trkpt lat="40.5630656" lon="9.3306927"><ele>783.0</ele><time>2026-05-02T13:48:37.161Z</time></trkpt><trkpt lat="40.5629732" lon="9.3305107"><ele>782.3333333333333</ele><time>2026-05-02T13:48:38.16Z</time></trkpt><trkpt lat="40.5628912" lon="9.3303069"><ele>781.6666666666666</ele><time>2026-05-02T13:48:39.161Z</time></trkpt><trkpt lat="40.5628049" lon="9.3300867"><ele>781.0</ele><time>2026-05-02T13:48:40.16Z</time></trkpt><trkpt lat="40.5627109" lon="9.3298358"><ele>783.6666666666666</ele><time>2026-05-02T13:48:41.16Z</time></trkpt><trkpt lat="40.562625" lon="9.3295811"><ele>786.3333333333333</ele><time>2026-05-02T13:48:42.161Z</time></trkpt><trkpt lat="40.562538" lon="9.3293379"><ele>789.0</ele><time>2026-05-02T13:48:43.16Z</time></trkpt><trkpt lat="40.5624536" lon="9.3291024"><ele>789.0</ele><time>2026-05-02T13:48:44.161Z</time></trkpt><trkpt lat="40.5623512" lon="9.3289055"><ele>789.0</ele><time>2026-05-02T13:48:45.16Z</time></trkpt><trkpt lat="40.5622409" lon="9.3287242"><ele>789.0</ele><time>2026-05-02T13:48:46.16Z</time></trkpt><trkpt lat="40.562156" lon="9.3285704"><ele>789.25</ele><time>2026-05-02T13:48:47.16Z</time></trkpt><trkpt lat="40.5620961" lon="9.328416"><ele>789.5</ele><time>2026-05-02T13:48:48.16Z</time></trkpt><trkpt lat="40.5620784" lon="9.3282566"><ele>789.75</ele><time>2026-05-02T13:48:49.16Z</time></trkpt><trkpt lat="40.5620934" lon="9.3281089"><ele>790.0</ele><time>2026-05-02T13:48:50.16Z</time></trkpt><trkpt lat="40.5621586" lon="9.3279946"><ele>790.0</ele><time>2026-05-02T13:48:51.161Z</time></trkpt><trkpt lat="40.5622381" lon="9.3279353"><ele>790.0</ele><time>2026-05-02T13:48:52.161Z</time></trkpt><trkpt lat="40.5623509" lon="9.3279176"><ele>790.0</ele><time>2026-05-02T13:48:53.16Z</time></trkpt><trkpt lat="40.5624647" lon="9.3279455"><ele>790.0</ele><time>2026-05-02T13:48:54.16Z</time></trkpt><trkpt lat="40.5625926" lon="9.328"><ele>790.0</ele><time>2026-05-02T13:48:55.16Z</time></trkpt><trkpt lat="40.5627449" lon="9.3280492"><ele>790.0</ele><time>2026-05-02T13:48:56.16Z</time></trkpt><trkpt lat="40.5629083" lon="9.3280659"><ele>790.0</ele><time>2026-05-02T13:48:57.161Z</time></trkpt><trkpt lat="40.5630961" lon="9.3280482"><ele>789.3333333333333</ele><time>2026-05-02T13:48:58.16Z</time></trkpt><trkpt lat="40.5632892" lon="9.3280249"><ele>788.6666666666667</ele><time>2026-05-02T13:48:59.161Z</time></trkpt><trkpt lat="40.5635043" lon="9.3280015"><ele>788.0</ele><time>2026-05-02T13:49:00.161Z</time></trkpt><trkpt lat="40.5636886" lon="9.3279825"><ele>789.6666666666667</ele><time>2026-05-02T13:49:01.161Z</time></trkpt><trkpt lat="40.5638518" lon="9.327962"><ele>791.3333333333333</ele><time>2026-05-02T13:49:02.161Z</time></trkpt><trkpt lat="40.5639914" lon="9.3278993"><ele>793.0</ele><time>2026-05-02T13:49:03.16Z</time></trkpt><trkpt lat="40.5641038" lon="9.3277824"><ele>793.0</ele><time>2026-05-02T13:49:04.16Z</time></trkpt><trkpt lat="40.5641767" lon="9.3276269"><ele>793.0</ele><time>2026-05-02T13:49:05.16Z</time></trkpt><trkpt lat="40.5642304" lon="9.3274699"><ele>793.0</ele><time>2026-05-02T13:49:06.16Z</time></trkpt><trkpt lat="40.5642479" lon="9.3273017"><ele>793.0</ele><time>2026-05-02T13:49:07.16Z</time></trkpt><trkpt lat="40.5642453" lon="9.3271333"><ele>793.5</ele><time>2026-05-02T13:49:08.16Z</time></trkpt><trkpt lat="40.5641676" lon="9.3269981"><ele>794.0</ele><time>2026-05-02T13:49:09.16Z</time></trkpt><trkpt lat="40.5641284" lon="9.3268407"><ele>794.5</ele><time>2026-05-02T13:49:10.161Z</time></trkpt><trkpt lat="40.5641152" lon="9.3266612"><ele>795.0</ele><time>2026-05-02T13:49:11.161Z</time></trkpt><trkpt lat="40.5641277" lon="9.3264691"><ele>796.3333333333333</ele><time>2026-05-02T13:49:12.16Z</time></trkpt><trkpt lat="40.5641341" lon="9.3262648"><ele>797.6666666666666</ele><time>2026-05-02T13:49:13.161Z</time></trkpt><trkpt lat="40.5640992" lon="9.3260547"><ele>799.0</ele><time>2026-05-02T13:49:14.16Z</time></trkpt><trkpt lat="40.5640372" lon="9.3258283"><ele>799.0</ele><time>2026-05-02T13:49:15.16Z</time></trkpt><trkpt lat="40.5639661" lon="9.3255768"><ele>799.0</ele><time>2026-05-02T13:49:16.16Z</time></trkpt><trkpt lat="40.5639001" lon="9.3253147"><ele>799.0</ele><time>2026-05-02T13:49:17.161Z</time></trkpt><trkpt lat="40.5638386" lon="9.3250268"><ele>799.3333333333333</ele><time>2026-05-02T13:49:18.161Z</time></trkpt><trkpt lat="40.5637945" lon="9.3247639"><ele>799.6666666666667</ele><time>2026-05-02T13:49:19.161Z</time></trkpt><trkpt lat="40.5637754" lon="9.3245096"><ele>800.0</ele><time>2026-05-02T13:49:20.161Z</time></trkpt><trkpt lat="40.5637759" lon="9.3242635"><ele>800.0</ele><time>2026-05-02T13:49:21.16Z</time></trkpt><trkpt lat="40.5637964" lon="9.324021"><ele>800.0</ele><time>2026-05-02T13:49:22.161Z</time></trkpt><trkpt lat="40.5638347" lon="9.3237804"><ele>800.0</ele><time>2026-05-02T13:49:23.16Z</time></trkpt><trkpt lat="40.5638932" lon="9.3235412"><ele>799.3333333333334</ele><time>2026-05-02T13:49:24.16Z</time></trkpt><trkpt lat="40.5639572" lon="9.3232889"><ele>798.6666666666667</ele><time>2026-05-02T13:49:25.161Z</time></trkpt><trkpt lat="40.5640182" lon="9.3230494"><ele>798.0</ele><time>2026-05-02T13:49:26.161Z</time></trkpt><trkpt lat="40.5640758" lon="9.3228419"><ele>797.75</ele><time>2026-05-02T13:49:27.161Z</time></trkpt><trkpt lat="40.5641428" lon="9.322662"><ele>797.5</ele><time>2026-05-02T13:49:28.16Z</time></trkpt><trkpt lat="40.5642189" lon="9.322529"><ele>797.25</ele><time>2026-05-02T13:49:29.16Z</time></trkpt><trkpt lat="40.5643224" lon="9.3224388"><ele>797.0</ele><time>2026-05-02T13:49:30.161Z</time></trkpt><trkpt lat="40.5644549" lon="9.3223872"><ele>796.6666666666667</ele><time>2026-05-02T13:49:31.161Z</time></trkpt><trkpt lat="40.5646121" lon="9.3223508"><ele>796.3333333333333</ele><time>2026-05-02T13:49:32.161Z</time></trkpt><trkpt lat="40.5647664" lon="9.3223231"><ele>796.0</ele><time>2026-05-02T13:49:33.161Z</time></trkpt><trkpt lat="40.564909" lon="9.3222835"><ele>794.5</ele><time>2026-05-02T13:49:34.16Z</time></trkpt><trkpt lat="40.5650298" lon="9.3222155"><ele>793.0</ele><time>2026-05-02T13:49:35.16Z</time></trkpt><trkpt lat="40.565116" lon="9.3220951"><ele>791.5</ele><time>2026-05-02T13:49:36.16Z</time></trkpt><trkpt lat="40.5651739" lon="9.3219299"><ele>790.0</ele><time>2026-05-02T13:49:37.16Z</time></trkpt><trkpt lat="40.5652177" lon="9.3217235"><ele>790.0</ele><time>2026-05-02T13:49:38.161Z</time></trkpt><trkpt lat="40.5652625" lon="9.3214954"><ele>790.0</ele><time>2026-05-02T13:49:39.16Z</time></trkpt><trkpt lat="40.5653296" lon="9.321264"><ele>790.0</ele><time>2026-05-02T13:49:40.161Z</time></trkpt><trkpt lat="40.5654031" lon="9.3210248"><ele>789.6666666666666</ele><time>2026-05-02T13:49:41.16Z</time></trkpt><trkpt lat="40.5654936" lon="9.3207833"><ele>789.3333333333333</ele><time>2026-05-02T13:49:42.16Z</time></trkpt><trkpt lat="40.5655912" lon="9.3205302"><ele>789.0</ele><time>2026-05-02T13:49:43.16Z</time></trkpt><trkpt lat="40.5656962" lon="9.3202665"><ele>788.5</ele><time>2026-05-02T13:49:44.161Z</time></trkpt><trkpt lat="40.5658068" lon="9.3199959"><ele>788.0</ele><time>2026-05-02T13:49:45.16Z</time></trkpt><trkpt lat="40.565911" lon="9.3197295"><ele>789.5</ele><time>2026-05-02T13:49:46.161Z</time></trkpt><trkpt lat="40.5660186" lon="9.3194592"><ele>791.0</ele><time>2026-05-02T13:49:47.161Z</time></trkpt><trkpt lat="40.5661289" lon="9.3191896"><ele>790.5</ele><time>2026-05-02T13:49:48.16Z</time></trkpt><trkpt lat="40.5662382" lon="9.3189078"><ele>790.0</ele><time>2026-05-02T13:49:49.161Z</time></trkpt><trkpt lat="40.566349" lon="9.3186338"><ele>791.0</ele><time>2026-05-02T13:49:50.16Z</time></trkpt><trkpt lat="40.566462" lon="9.3183561"><ele>792.0</ele><time>2026-05-02T13:49:51.161Z</time></trkpt><trkpt lat="40.566566" lon="9.3180918"><ele>792.6666666666667</ele><time>2026-05-02T13:49:52.161Z</time></trkpt><trkpt lat="40.5666638" lon="9.3178365"><ele>793.3333333333334</ele><time>2026-05-02T13:49:53.16Z</time></trkpt><trkpt lat="40.566764" lon="9.3175959"><ele>794.0</ele><time>2026-05-02T13:49:54.161Z</time></trkpt><trkpt lat="40.5668717" lon="9.3173654"><ele>794.3333333333334</ele><time>2026-05-02T13:49:55.16Z</time></trkpt><trkpt lat="40.5669945" lon="9.317154"><ele>794.6666666666667</ele><time>2026-05-02T13:49:56.16Z</time></trkpt><trkpt lat="40.5671313" lon="9.3169508"><ele>795.0</ele><time>2026-05-02T13:49:57.16Z</time></trkpt><trkpt lat="40.5672736" lon="9.3167521"><ele>795.0</ele><time>2026-05-02T13:49:58.16Z</time></trkpt><trkpt lat="40.5674159" lon="9.3165493"><ele>795.0</ele><time>2026-05-02T13:49:59.16Z</time></trkpt><trkpt lat="40.567548" lon="9.3163362"><ele>795.0</ele><time>2026-05-02T13:50:00.161Z</time></trkpt><trkpt lat="40.5676679" lon="9.3161211"><ele>795.6666666666667</ele><time>2026-05-02T13:50:01.161Z</time></trkpt><trkpt lat="40.5677817" lon="9.315899"><ele>796.3333333333334</ele><time>2026-05-02T13:50:02.161Z</time></trkpt><trkpt lat="40.5678884" lon="9.3156809"><ele>797.0</ele><time>2026-05-02T13:50:03.161Z</time></trkpt><trkpt lat="40.5679916" lon="9.315467"><ele>795.0</ele><time>2026-05-02T13:50:04.16Z</time></trkpt><trkpt lat="40.5680975" lon="9.315254"><ele>793.0</ele><time>2026-05-02T13:50:05.16Z</time></trkpt><trkpt lat="40.5682078" lon="9.31504"><ele>791.0</ele><time>2026-05-02T13:50:06.161Z</time></trkpt><trkpt lat="40.5683257" lon="9.3148368"><ele>790.0</ele><time>2026-05-02T13:50:07.16Z</time></trkpt><trkpt lat="40.5684638" lon="9.3146369"><ele>789.0</ele><time>2026-05-02T13:50:08.16Z</time></trkpt><trkpt lat="40.5686168" lon="9.3144462"><ele>788.0</ele><time>2026-05-02T13:50:09.161Z</time></trkpt><trkpt lat="40.5687847" lon="9.3142582"><ele>788.0</ele><time>2026-05-02T13:50:10.161Z</time></trkpt><trkpt lat="40.5689384" lon="9.3140865"><ele>788.0</ele><time>2026-05-02T13:50:11.16Z</time></trkpt><trkpt lat="40.5690928" lon="9.3139067"><ele>788.0</ele><time>2026-05-02T13:50:12.16Z</time></trkpt><trkpt lat="40.5692312" lon="9.3137402"><ele>789.3333333333334</ele><time>2026-05-02T13:50:13.161Z</time></trkpt><trkpt lat="40.5693484" lon="9.3135662"><ele>790.6666666666667</ele><time>2026-05-02T13:50:14.16Z</time></trkpt><trkpt lat="40.5694354" lon="9.3133764"><ele>792.0</ele><time>2026-05-02T13:50:15.161Z</time></trkpt><trkpt lat="40.5694908" lon="9.3131666"><ele>793.0</ele><time>2026-05-02T13:50:16.161Z</time></trkpt><trkpt lat="40.569515" lon="9.3129331"><ele>794.0</ele><time>2026-05-02T13:50:17.16Z</time></trkpt><trkpt lat="40.5695224" lon="9.3126861"><ele>795.0</ele><time>2026-05-02T13:50:18.16Z</time></trkpt><trkpt lat="40.5695304" lon="9.312451"><ele>792.3333333333333</ele><time>2026-05-02T13:50:19.16Z</time></trkpt><trkpt lat="40.5695543" lon="9.3122292"><ele>789.6666666666666</ele><time>2026-05-02T13:50:20.161Z</time></trkpt><trkpt lat="40.5696027" lon="9.3120225"><ele>787.0</ele><time>2026-05-02T13:50:21.16Z</time></trkpt><trkpt lat="40.5696881" lon="9.311835"><ele>787.0</ele><time>2026-05-02T13:50:22.16Z</time></trkpt><trkpt lat="40.5698062" lon="9.3116613"><ele>787.0</ele><time>2026-05-02T13:50:23.161Z</time></trkpt><trkpt lat="40.569941" lon="9.3114886"><ele>787.0</ele><time>2026-05-02T13:50:24.16Z</time></trkpt><trkpt lat="40.5700827" lon="9.3112908"><ele>788.0</ele><time>2026-05-02T13:50:25.161Z</time></trkpt><trkpt lat="40.5702222" lon="9.311078"><ele>789.0</ele><time>2026-05-02T13:50:26.161Z</time></trkpt><trkpt lat="40.5703416" lon="9.3108414"><ele>790.0</ele><time>2026-05-02T13:50:27.16Z</time></trkpt><trkpt lat="40.5704494" lon="9.3106102"><ele>789.3333333333333</ele><time>2026-05-02T13:50:28.16Z</time></trkpt><trkpt lat="40.5705334" lon="9.3103746"><ele>788.6666666666667</ele><time>2026-05-02T13:50:29.16Z</time></trkpt><trkpt lat="40.5705916" lon="9.3101344"><ele>788.0</ele><time>2026-05-02T13:50:30.16Z</time></trkpt><trkpt lat="40.5706218" lon="9.309858"><ele>787.0</ele><time>2026-05-02T13:50:31.161Z</time></trkpt><trkpt lat="40.5706375" lon="9.3095648"><ele>786.0</ele><time>2026-05-02T13:50:32.161Z</time></trkpt><trkpt lat="40.5706416" lon="9.30926"><ele>786.0</ele><time>2026-05-02T13:50:33.161Z</time></trkpt><trkpt lat="40.5706441" lon="9.3089715"><ele>786.0</ele><time>2026-05-02T13:50:34.161Z</time></trkpt><trkpt lat="40.5706418" lon="9.3086978"><ele>786.0</ele><time>2026-05-02T13:50:35.16Z</time></trkpt><trkpt lat="40.5706438" lon="9.3084315"><ele>786.0</ele><time>2026-05-02T13:50:36.161Z</time></trkpt><trkpt lat="40.5706462" lon="9.308178"><ele>786.0</ele><time>2026-05-02T13:50:37.16Z</time></trkpt><trkpt lat="40.5706502" lon="9.3079262"><ele>786.0</ele><time>2026-05-02T13:50:38.161Z</time></trkpt><trkpt lat="40.5706506" lon="9.3076803"><ele>786.0</ele><time>2026-05-02T13:50:39.161Z</time></trkpt><trkpt lat="40.5706611" lon="9.3074308"><ele>786.0</ele><time>2026-05-02T13:50:40.16Z</time></trkpt><trkpt lat="40.5706612" lon="9.3071771"><ele>786.0</ele><time>2026-05-02T13:50:41.16Z</time></trkpt><trkpt lat="40.5706644" lon="9.3069171"><ele>786.3333333333333</ele><time>2026-05-02T13:50:42.16Z</time></trkpt><trkpt lat="40.5706748" lon="9.306641"><ele>786.6666666666666</ele><time>2026-05-02T13:50:43.161Z</time></trkpt><trkpt lat="40.5706827" lon="9.306352"><ele>787.0</ele><time>2026-05-02T13:50:44.161Z</time></trkpt><trkpt lat="40.5706877" lon="9.3060695"><ele>787.0</ele><time>2026-05-02T13:50:45.16Z</time></trkpt><trkpt lat="40.5706962" lon="9.3057876"><ele>787.0</ele><time>2026-05-02T13:50:46.161Z</time></trkpt><trkpt lat="40.5707021" lon="9.3054992"><ele>787.0</ele><time>2026-05-02T13:50:47.161Z</time></trkpt><trkpt lat="40.5707109" lon="9.3052067"><ele>787.0</ele><time>2026-05-02T13:50:48.16Z</time></trkpt><trkpt lat="40.5707181" lon="9.3049166"><ele>787.0</ele><time>2026-05-02T13:50:49.16Z</time></trkpt><trkpt lat="40.5707249" lon="9.3046449"><ele>787.0</ele><time>2026-05-02T13:50:50.161Z</time></trkpt><trkpt lat="40.5707268" lon="9.3043813"><ele>787.3333333333333</ele><time>2026-05-02T13:50:51.16Z</time></trkpt><trkpt lat="40.5707325" lon="9.3041317"><ele>787.6666666666667</ele><time>2026-05-02T13:50:52.16Z</time></trkpt><trkpt lat="40.5707357" lon="9.3038995"><ele>788.0</ele><time>2026-05-02T13:50:53.161Z</time></trkpt><trkpt lat="40.570736" lon="9.3036745"><ele>788.3333333333334</ele><time>2026-05-02T13:50:54.161Z</time></trkpt><trkpt lat="40.5707294" lon="9.303446"><ele>788.6666666666667</ele><time>2026-05-02T13:50:55.16Z</time></trkpt><trkpt lat="40.5707213" lon="9.3032181"><ele>789.0</ele><time>2026-05-02T13:50:56.161Z</time></trkpt><trkpt lat="40.5707149" lon="9.3029909"><ele>789.0</ele><time>2026-05-02T13:50:57.16Z</time></trkpt><trkpt lat="40.5707074" lon="9.3027611"><ele>789.0</ele><time>2026-05-02T13:50:58.16Z</time></trkpt><trkpt lat="40.5707013" lon="9.3025231"><ele>789.0</ele><time>2026-05-02T13:50:59.161Z</time></trkpt><trkpt lat="40.5707161" lon="9.3022852"><ele>789.0</ele><time>2026-05-02T13:51:00.16Z</time></trkpt><trkpt lat="40.5707598" lon="9.3020504"><ele>789.0</ele><time>2026-05-02T13:51:01.16Z</time></trkpt><trkpt lat="40.5708207" lon="9.3018067"><ele>789.0</ele><time>2026-05-02T13:51:02.161Z</time></trkpt><trkpt lat="40.5709041" lon="9.3015631"><ele>788.0</ele><time>2026-05-02T13:51:03.16Z</time></trkpt><trkpt lat="40.5709863" lon="9.3013418"><ele>787.0</ele><time>2026-05-02T13:51:04.16Z</time></trkpt><trkpt lat="40.5710584" lon="9.3011294"><ele>786.0</ele><time>2026-05-02T13:51:05.16Z</time></trkpt><trkpt lat="40.5711118" lon="9.3009331"><ele>786.0</ele><time>2026-05-02T13:51:06.161Z</time></trkpt><trkpt lat="40.5711147" lon="9.3007296"><ele>786.0</ele><time>2026-05-02T13:51:07.161Z</time></trkpt><trkpt lat="40.5710702" lon="9.3005269"><ele>786.0</ele><time>2026-05-02T13:51:08.161Z</time></trkpt><trkpt lat="40.5709884" lon="9.3003053"><ele>784.5</ele><time>2026-05-02T13:51:09.161Z</time></trkpt><trkpt lat="40.5708846" lon="9.3000613"><ele>783.0</ele><time>2026-05-02T13:51:10.16Z</time></trkpt><trkpt lat="40.5707642" lon="9.2997823"><ele>783.5</ele><time>2026-05-02T13:51:11.16Z</time></trkpt><trkpt lat="40.5706455" lon="9.2994718"><ele>784.0</ele><time>2026-05-02T13:51:12.16Z</time></trkpt><trkpt lat="40.570541" lon="9.2991746"><ele>785.0</ele><time>2026-05-02T13:51:13.161Z</time></trkpt><trkpt lat="40.5704504" lon="9.2988751"><ele>786.0</ele><time>2026-05-02T13:51:14.16Z</time></trkpt><trkpt lat="40.5703687" lon="9.2985763"><ele>786.0</ele><time>2026-05-02T13:51:15.161Z</time></trkpt><trkpt lat="40.5702976" lon="9.2982962"><ele>786.0</ele><time>2026-05-02T13:51:16.16Z</time></trkpt><trkpt lat="40.5702284" lon="9.2980219"><ele>786.0</ele><time>2026-05-02T13:51:17.16Z</time></trkpt><trkpt lat="40.5701589" lon="9.2977463"><ele>786.0</ele><time>2026-05-02T13:51:18.16Z</time></trkpt><trkpt lat="40.5700953" lon="9.2974697"><ele>786.0</ele><time>2026-05-02T13:51:19.161Z</time></trkpt><trkpt lat="40.5700352" lon="9.2971894"><ele>786.0</ele><time>2026-05-02T13:51:20.161Z</time></trkpt><trkpt lat="40.5699765" lon="9.2969176"><ele>786.0</ele><time>2026-05-02T13:51:21.16Z</time></trkpt><trkpt lat="40.5699155" lon="9.2966515"><ele>786.0</ele><time>2026-05-02T13:51:22.16Z</time></trkpt><trkpt lat="40.5698633" lon="9.2963748"><ele>786.0</ele><time>2026-05-02T13:51:23.161Z</time></trkpt><trkpt lat="40.569818" lon="9.2960936"><ele>786.0</ele><time>2026-05-02T13:51:24.16Z</time></trkpt><trkpt lat="40.56977" lon="9.2958132"><ele>786.0</ele><time>2026-05-02T13:51:25.16Z</time></trkpt><trkpt lat="40.5697292" lon="9.2955297"><ele>786.0</ele><time>2026-05-02T13:51:26.161Z</time></trkpt><trkpt lat="40.569682" lon="9.2952382"><ele>786.0</ele><time>2026-05-02T13:51:27.16Z</time></trkpt><trkpt lat="40.5696344" lon="9.2949493"><ele>786.0</ele><time>2026-05-02T13:51:28.161Z</time></trkpt><trkpt lat="40.5695766" lon="9.2946527"><ele>785.0</ele><time>2026-05-02T13:51:29.16Z</time></trkpt><trkpt lat="40.5695092" lon="9.2943544"><ele>784.0</ele><time>2026-05-02T13:51:30.16Z</time></trkpt><trkpt lat="40.5694381" lon="9.2940637"><ele>784.5</ele><time>2026-05-02T13:51:31.16Z</time></trkpt><trkpt lat="40.5693637" lon="9.2937725"><ele>785.0</ele><time>2026-05-02T13:51:32.161Z</time></trkpt><trkpt lat="40.5692938" lon="9.2934878"><ele>785.0</ele><time>2026-05-02T13:51:33.161Z</time></trkpt><trkpt lat="40.5692392" lon="9.2931946"><ele>785.0</ele><time>2026-05-02T13:51:34.161Z</time></trkpt><trkpt lat="40.5691887" lon="9.2928873"><ele>784.3333333333334</ele><time>2026-05-02T13:51:35.161Z</time></trkpt><trkpt lat="40.5691537" lon="9.2925929"><ele>783.6666666666667</ele><time>2026-05-02T13:51:36.16Z</time></trkpt><trkpt lat="40.5691202" lon="9.2923066"><ele>783.0</ele><time>2026-05-02T13:51:37.16Z</time></trkpt><trkpt lat="40.5690867" lon="9.2920419"><ele>783.0</ele><time>2026-05-02T13:51:38.16Z</time></trkpt><trkpt lat="40.5690576" lon="9.2917941"><ele>783.0</ele><time>2026-05-02T13:51:39.161Z</time></trkpt><trkpt lat="40.5690452" lon="9.2915539"><ele>783.0</ele><time>2026-05-02T13:51:40.161Z</time></trkpt><trkpt lat="40.5690531" lon="9.2913261"><ele>782.3333333333333</ele><time>2026-05-02T13:51:41.161Z</time></trkpt><trkpt lat="40.569094" lon="9.2910904"><ele>781.6666666666666</ele><time>2026-05-02T13:51:42.161Z</time></trkpt><trkpt lat="40.569152" lon="9.2908467"><ele>781.0</ele><time>2026-05-02T13:51:43.16Z</time></trkpt><trkpt lat="40.56923" lon="9.2906033"><ele>780.0</ele><time>2026-05-02T13:51:44.16Z</time></trkpt><trkpt lat="40.5693222" lon="9.2903487"><ele>779.0</ele><time>2026-05-02T13:51:45.16Z</time></trkpt><trkpt lat="40.5694207" lon="9.2900865"><ele>778.0</ele><time>2026-05-02T13:51:46.161Z</time></trkpt><trkpt lat="40.5695244" lon="9.2898382"><ele>778.3333333333333</ele><time>2026-05-02T13:51:47.16Z</time></trkpt><trkpt lat="40.5696307" lon="9.2895918"><ele>778.6666666666667</ele><time>2026-05-02T13:51:48.161Z</time></trkpt><trkpt lat="40.5697319" lon="9.289342"><ele>779.0</ele><time>2026-05-02T13:51:49.16Z</time></trkpt><trkpt lat="40.5698129" lon="9.2890864"><ele>777.5</ele><time>2026-05-02T13:51:50.161Z</time></trkpt><trkpt lat="40.5698751" lon="9.2888132"><ele>776.0</ele><time>2026-05-02T13:51:51.161Z</time></trkpt><trkpt lat="40.5699389" lon="9.2885172"><ele>776.0</ele><time>2026-05-02T13:51:52.161Z</time></trkpt><trkpt lat="40.5699915" lon="9.2882216"><ele>776.0</ele><time>2026-05-02T13:51:53.161Z</time></trkpt><trkpt lat="40.5700447" lon="9.2879374"><ele>776.6666666666667</ele><time>2026-05-02T13:51:54.161Z</time></trkpt><trkpt lat="40.5700955" lon="9.287663"><ele>777.3333333333333</ele><time>2026-05-02T13:51:55.161Z</time></trkpt><trkpt lat="40.5701518" lon="9.2873928"><ele>778.0</ele><time>2026-05-02T13:51:56.16Z</time></trkpt><trkpt lat="40.5702258" lon="9.2871271"><ele>778.0</ele><time>2026-05-02T13:51:57.16Z</time></trkpt><trkpt lat="40.5703215" lon="9.2868815"><ele>778.0</ele><time>2026-05-02T13:51:58.161Z</time></trkpt><trkpt lat="40.5704348" lon="9.2866312"><ele>778.0</ele><time>2026-05-02T13:51:59.161Z</time></trkpt><trkpt lat="40.57056" lon="9.2863749"><ele>778.0</ele><time>2026-05-02T13:52:00.161Z</time></trkpt><trkpt lat="40.5706841" lon="9.2861096"><ele>778.0</ele><time>2026-05-02T13:52:01.16Z</time></trkpt><trkpt lat="40.5708058" lon="9.2858498"><ele>778.0</ele><time>2026-05-02T13:52:02.161Z</time></trkpt><trkpt lat="40.5709123" lon="9.2856146"><ele>778.0</ele><time>2026-05-02T13:52:03.16Z</time></trkpt><trkpt lat="40.5709887" lon="9.2853748"><ele>778.0</ele><time>2026-05-02T13:52:04.16Z</time></trkpt><trkpt lat="40.5710303" lon="9.2851359"><ele>778.0</ele><time>2026-05-02T13:52:05.161Z</time></trkpt><trkpt lat="40.5710358" lon="9.2848837"><ele>778.0</ele><time>2026-05-02T13:52:06.16Z</time></trkpt><trkpt lat="40.5710067" lon="9.2846357"><ele>778.0</ele><time>2026-05-02T13:52:07.161Z</time></trkpt><trkpt lat="40.5709251" lon="9.284387"><ele>777.0</ele><time>2026-05-02T13:52:08.161Z</time></trkpt><trkpt lat="40.5708416" lon="9.2841381"><ele>776.0</ele><time>2026-05-02T13:52:09.161Z</time></trkpt><trkpt lat="40.5707135" lon="9.283901"><ele>775.0</ele><time>2026-05-02T13:52:10.16Z</time></trkpt><trkpt lat="40.5706112" lon="9.2836964"><ele>774.75</ele><time>2026-05-02T13:52:11.16Z</time></trkpt><trkpt lat="40.5705283" lon="9.2834963"><ele>774.5</ele><time>2026-05-02T13:52:12.161Z</time></trkpt><trkpt lat="40.570483" lon="9.2833092"><ele>774.25</ele><time>2026-05-02T13:52:13.161Z</time></trkpt><trkpt lat="40.5704694" lon="9.2831444"><ele>774.0</ele><time>2026-05-02T13:52:14.16Z</time></trkpt><trkpt lat="40.5705212" lon="9.2829976"><ele>774.0</ele><time>2026-05-02T13:52:15.16Z</time></trkpt><trkpt lat="40.5706086" lon="9.2828344"><ele>774.0</ele><time>2026-05-02T13:52:16.161Z</time></trkpt><trkpt lat="40.5707288" lon="9.2826317"><ele>774.0</ele><time>2026-05-02T13:52:17.16Z</time></trkpt><trkpt lat="40.5708539" lon="9.2824281"><ele>773.6666666666667</ele><time>2026-05-02T13:52:18.16Z</time></trkpt><trkpt lat="40.5709592" lon="9.2822459"><ele>773.3333333333334</ele><time>2026-05-02T13:52:19.16Z</time></trkpt><trkpt lat="40.5710517" lon="9.2820814"><ele>773.0</ele><time>2026-05-02T13:52:20.161Z</time></trkpt><trkpt lat="40.5711181" lon="9.281924"><ele>773.0</ele><time>2026-05-02T13:52:21.161Z</time></trkpt><trkpt lat="40.5711428" lon="9.2817583"><ele>773.0</ele><time>2026-05-02T13:52:22.161Z</time></trkpt><trkpt lat="40.5711227" lon="9.2815938"><ele>773.0</ele><time>2026-05-02T13:52:23.16Z</time></trkpt><trkpt lat="40.5710797" lon="9.2814411"><ele>773.0</ele><time>2026-05-02T13:52:24.161Z</time></trkpt><trkpt lat="40.5709501" lon="9.2812693"><ele>771.6666666666667</ele><time>2026-05-02T13:52:25.16Z</time></trkpt><trkpt lat="40.5708021" lon="9.2810661"><ele>770.3333333333333</ele><time>2026-05-02T13:52:26.16Z</time></trkpt><trkpt lat="40.5706666" lon="9.2808664"><ele>769.0</ele><time>2026-05-02T13:52:27.16Z</time></trkpt><trkpt lat="40.5705336" lon="9.2806803"><ele>767.75</ele><time>2026-05-02T13:52:28.161Z</time></trkpt><trkpt lat="40.5704201" lon="9.2805304"><ele>766.5</ele><time>2026-05-02T13:52:29.16Z</time></trkpt><trkpt lat="40.5703221" lon="9.2803862"><ele>765.25</ele><time>2026-05-02T13:52:30.16Z</time></trkpt><trkpt lat="40.5702489" lon="9.280237"><ele>764.0</ele><time>2026-05-02T13:52:31.16Z</time></trkpt><trkpt lat="40.5702148" lon="9.2800874"><ele>765.0</ele><time>2026-05-02T13:52:32.161Z</time></trkpt><trkpt lat="40.5702314" lon="9.279947"><ele>766.0</ele><time>2026-05-02T13:52:33.16Z</time></trkpt><trkpt lat="40.5702878" lon="9.2798227"><ele>767.0</ele><time>2026-05-02T13:52:34.16Z</time></trkpt><trkpt lat="40.5703947" lon="9.2796913"><ele>768.0</ele><time>2026-05-02T13:52:35.161Z</time></trkpt><trkpt lat="40.5705294" lon="9.2795376"><ele>768.0</ele><time>2026-05-02T13:52:36.16Z</time></trkpt><trkpt lat="40.5706716" lon="9.279381"><ele>768.0</ele><time>2026-05-02T13:52:37.16Z</time></trkpt><trkpt lat="40.5707944" lon="9.2792293"><ele>768.0</ele><time>2026-05-02T13:52:38.161Z</time></trkpt><trkpt lat="40.5709068" lon="9.2790676"><ele>770.0</ele><time>2026-05-02T13:52:39.16Z</time></trkpt><trkpt lat="40.5710019" lon="9.2788869"><ele>772.0</ele><time>2026-05-02T13:52:40.161Z</time></trkpt><trkpt lat="40.5710689" lon="9.2786767"><ele>774.0</ele><time>2026-05-02T13:52:41.16Z</time></trkpt><trkpt lat="40.5711187" lon="9.278456"><ele>774.0</ele><time>2026-05-02T13:52:42.16Z</time></trkpt><trkpt lat="40.5711505" lon="9.2782145"><ele>774.0</ele><time>2026-05-02T13:52:43.16Z</time></trkpt><trkpt lat="40.5711721" lon="9.2779758"><ele>774.0</ele><time>2026-05-02T13:52:44.161Z</time></trkpt><trkpt lat="40.5711763" lon="9.2777517"><ele>773.25</ele><time>2026-05-02T13:52:45.16Z</time></trkpt><trkpt lat="40.5711575" lon="9.2775423"><ele>772.5</ele><time>2026-05-02T13:52:46.161Z</time></trkpt><trkpt lat="40.5711047" lon="9.2773649"><ele>771.75</ele><time>2026-05-02T13:52:47.161Z</time></trkpt><trkpt lat="40.5710541" lon="9.2771981"><ele>771.0</ele><time>2026-05-02T13:52:48.16Z</time></trkpt><trkpt lat="40.5710242" lon="9.2770753"><ele>770.4</ele><time>2026-05-02T13:52:49.16Z</time></trkpt><trkpt lat="40.571038" lon="9.2769591"><ele>769.8</ele><time>2026-05-02T13:52:50.16Z</time></trkpt><trkpt lat="40.5710882" lon="9.2768857"><ele>769.1999999999999</ele><time>2026-05-02T13:52:51.16Z</time></trkpt><trkpt lat="40.5711678" lon="9.2768215"><ele>768.5999999999999</ele><time>2026-05-02T13:52:52.161Z</time></trkpt><trkpt lat="40.5712613" lon="9.276748"><ele>768.0</ele><time>2026-05-02T13:52:53.161Z</time></trkpt><trkpt lat="40.5713385" lon="9.2766226"><ele>764.0</ele><time>2026-05-02T13:52:54.16Z</time></trkpt><trkpt lat="40.571382" lon="9.2764485"><ele>760.0</ele><time>2026-05-02T13:52:55.16Z</time></trkpt><trkpt lat="40.5714053" lon="9.2762363"><ele>756.0</ele><time>2026-05-02T13:52:56.16Z</time></trkpt><trkpt lat="40.5714116" lon="9.2759892"><ele>756.0</ele><time>2026-05-02T13:52:57.16Z</time></trkpt><trkpt lat="40.5714136" lon="9.2757247"><ele>756.0</ele><time>2026-05-02T13:52:58.16Z</time></trkpt><trkpt lat="40.5714298" lon="9.275468"><ele>756.0</ele><time>2026-05-02T13:52:59.161Z</time></trkpt><trkpt lat="40.5714754" lon="9.2752158"><ele>756.0</ele><time>2026-05-02T13:53:00.16Z</time></trkpt><trkpt lat="40.5715533" lon="9.2749816"><ele>756.0</ele><time>2026-05-02T13:53:01.16Z</time></trkpt><trkpt lat="40.5716575" lon="9.2747556"><ele>756.0</ele><time>2026-05-02T13:53:02.16Z</time></trkpt><trkpt lat="40.571775" lon="9.2745348"><ele>756.3333333333334</ele><time>2026-05-02T13:53:03.161Z</time></trkpt><trkpt lat="40.5718839" lon="9.274322"><ele>756.6666666666667</ele><time>2026-05-02T13:53:04.16Z</time></trkpt><trkpt lat="40.5719563" lon="9.2740965"><ele>757.0</ele><time>2026-05-02T13:53:05.161Z</time></trkpt><trkpt lat="40.572002" lon="9.2738676"><ele>757.0</ele><time>2026-05-02T13:53:06.161Z</time></trkpt><trkpt lat="40.5720071" lon="9.2736387"><ele>757.0</ele><time>2026-05-02T13:53:07.161Z</time></trkpt><trkpt lat="40.5719712" lon="9.2734072"><ele>757.0</ele><time>2026-05-02T13:53:08.161Z</time></trkpt><trkpt lat="40.5718991" lon="9.273179"><ele>756.6666666666667</ele><time>2026-05-02T13:53:09.16Z</time></trkpt><trkpt lat="40.571804" lon="9.2729461"><ele>756.3333333333334</ele><time>2026-05-02T13:53:10.161Z</time></trkpt><trkpt lat="40.5716895" lon="9.2727005"><ele>756.0</ele><time>2026-05-02T13:53:11.161Z</time></trkpt><trkpt lat="40.5715772" lon="9.2724582"><ele>755.0</ele><time>2026-05-02T13:53:12.16Z</time></trkpt><trkpt lat="40.5714637" lon="9.2722317"><ele>754.0</ele><time>2026-05-02T13:53:13.16Z</time></trkpt><trkpt lat="40.5713574" lon="9.2720058"><ele>753.0</ele><time>2026-05-02T13:53:14.161Z</time></trkpt><trkpt lat="40.5712516" lon="9.2717803"><ele>752.6666666666666</ele><time>2026-05-02T13:53:15.161Z</time></trkpt><trkpt lat="40.5711452" lon="9.2715531"><ele>752.3333333333333</ele><time>2026-05-02T13:53:16.161Z</time></trkpt><trkpt lat="40.5710425" lon="9.2713261"><ele>752.0</ele><time>2026-05-02T13:53:17.16Z</time></trkpt><trkpt lat="40.5709452" lon="9.2711132"><ele>752.0</ele><time>2026-05-02T13:53:18.16Z</time></trkpt><trkpt lat="40.5708488" lon="9.2709187"><ele>752.0</ele><time>2026-05-02T13:53:19.161Z</time></trkpt><trkpt lat="40.5707639" lon="9.2707326"><ele>752.0</ele><time>2026-05-02T13:53:20.161Z</time></trkpt><trkpt lat="40.570694" lon="9.2705364"><ele>750.0</ele><time>2026-05-02T13:53:21.16Z</time></trkpt><trkpt lat="40.5706485" lon="9.2703305"><ele>748.0</ele><time>2026-05-02T13:53:22.161Z</time></trkpt><trkpt lat="40.5706255" lon="9.2701074"><ele>746.0</ele><time>2026-05-02T13:53:23.16Z</time></trkpt><trkpt lat="40.5706228" lon="9.2698798"><ele>744.6666666666666</ele><time>2026-05-02T13:53:24.16Z</time></trkpt><trkpt lat="40.5706249" lon="9.2696539"><ele>743.3333333333334</ele><time>2026-05-02T13:53:25.161Z</time></trkpt><trkpt lat="40.5706178" lon="9.2694213"><ele>742.0</ele><time>2026-05-02T13:53:26.161Z</time></trkpt><trkpt lat="40.5706107" lon="9.269184"><ele>741.0</ele><time>2026-05-02T13:53:27.161Z</time></trkpt><trkpt lat="40.570606" lon="9.2689316"><ele>740.0</ele><time>2026-05-02T13:53:28.16Z</time></trkpt><trkpt lat="40.5706039" lon="9.2686779"><ele>739.0</ele><time>2026-05-02T13:53:29.161Z</time></trkpt><trkpt lat="40.5706066" lon="9.2684236"><ele>739.0</ele><time>2026-05-02T13:53:30.16Z</time></trkpt><trkpt lat="40.5706004" lon="9.2681802"><ele>739.0</ele><time>2026-05-02T13:53:31.161Z</time></trkpt><trkpt lat="40.5705857" lon="9.2679383"><ele>739.0</ele><time>2026-05-02T13:53:32.161Z</time></trkpt><trkpt lat="40.5705465" lon="9.2676961"><ele>738.3333333333334</ele><time>2026-05-02T13:53:33.16Z</time></trkpt><trkpt lat="40.5704901" lon="9.2674591"><ele>737.6666666666666</ele><time>2026-05-02T13:53:34.16Z</time></trkpt><trkpt lat="40.5704276" lon="9.2672138"><ele>737.0</ele><time>2026-05-02T13:53:35.161Z</time></trkpt><trkpt lat="40.5703538" lon="9.2669825"><ele>737.0</ele><time>2026-05-02T13:53:36.161Z</time></trkpt><trkpt lat="40.5702821" lon="9.2667627"><ele>737.0</ele><time>2026-05-02T13:53:37.161Z</time></trkpt><trkpt lat="40.5702198" lon="9.2665588"><ele>737.0</ele><time>2026-05-02T13:53:38.16Z</time></trkpt><trkpt lat="40.5701715" lon="9.2663605"><ele>735.6666666666666</ele><time>2026-05-02T13:53:39.16Z</time></trkpt><trkpt lat="40.5701439" lon="9.2661527"><ele>734.3333333333334</ele><time>2026-05-02T13:53:40.161Z</time></trkpt><trkpt lat="40.5701331" lon="9.2659365"><ele>733.0</ele><time>2026-05-02T13:53:41.161Z</time></trkpt><trkpt lat="40.5701354" lon="9.2657206"><ele>732.3333333333334</ele><time>2026-05-02T13:53:42.16Z</time></trkpt><trkpt lat="40.5701365" lon="9.2655148"><ele>731.6666666666666</ele><time>2026-05-02T13:53:43.161Z</time></trkpt><trkpt lat="40.5701404" lon="9.2653086"><ele>731.0</ele><time>2026-05-02T13:53:44.161Z</time></trkpt><trkpt lat="40.5701451" lon="9.265107"><ele>731.0</ele><time>2026-05-02T13:53:45.16Z</time></trkpt><trkpt lat="40.5701447" lon="9.2649134"><ele>731.0</ele><time>2026-05-02T13:53:46.16Z</time></trkpt><trkpt lat="40.5701447" lon="9.2647171"><ele>731.0</ele><time>2026-05-02T13:53:47.161Z</time></trkpt><trkpt lat="40.5701517" lon="9.264515"><ele>730.3333333333333</ele><time>2026-05-02T13:53:48.16Z</time></trkpt><trkpt lat="40.5701554" lon="9.2643058"><ele>729.6666666666666</ele><time>2026-05-02T13:53:49.161Z</time></trkpt><trkpt lat="40.5701647" lon="9.264095"><ele>729.0</ele><time>2026-05-02T13:53:50.161Z</time></trkpt><trkpt lat="40.5701881" lon="9.2638828"><ele>727.3333333333334</ele><time>2026-05-02T13:53:51.161Z</time></trkpt><trkpt lat="40.5702307" lon="9.2636783"><ele>725.6666666666667</ele><time>2026-05-02T13:53:52.16Z</time></trkpt><trkpt lat="40.5702838" lon="9.263475"><ele>724.0</ele><time>2026-05-02T13:53:53.161Z</time></trkpt><trkpt lat="40.5703519" lon="9.2632658"><ele>723.0</ele><time>2026-05-02T13:53:54.16Z</time></trkpt><trkpt lat="40.5704168" lon="9.2630542"><ele>722.0</ele><time>2026-05-02T13:53:55.16Z</time></trkpt><trkpt lat="40.5704852" lon="9.2628452"><ele>721.0</ele><time>2026-05-02T13:53:56.161Z</time></trkpt><trkpt lat="40.5705565" lon="9.2626182"><ele>721.0</ele><time>2026-05-02T13:53:57.16Z</time></trkpt><trkpt lat="40.5706218" lon="9.2624082"><ele>721.0</ele><time>2026-05-02T13:53:58.16Z</time></trkpt><trkpt lat="40.5706927" lon="9.2621963"><ele>721.0</ele><time>2026-05-02T13:53:59.161Z</time></trkpt><trkpt lat="40.5707502" lon="9.2619976"><ele>719.6666666666667</ele><time>2026-05-02T13:54:00.161Z</time></trkpt><trkpt lat="40.570808" lon="9.2617985"><ele>718.3333333333334</ele><time>2026-05-02T13:54:01.161Z</time></trkpt><trkpt lat="40.5708667" lon="9.2616066"><ele>717.0</ele><time>2026-05-02T13:54:02.16Z</time></trkpt><trkpt lat="40.5709285" lon="9.2614118"><ele>716.0</ele><time>2026-05-02T13:54:03.161Z</time></trkpt><trkpt lat="40.5709909" lon="9.2612021"><ele>715.0</ele><time>2026-05-02T13:54:04.161Z</time></trkpt><trkpt lat="40.5710457" lon="9.2609909"><ele>714.0</ele><time>2026-05-02T13:54:05.161Z</time></trkpt><trkpt lat="40.5710881" lon="9.2607679"><ele>713.6666666666666</ele><time>2026-05-02T13:54:06.16Z</time></trkpt><trkpt lat="40.5711133" lon="9.26054"><ele>713.3333333333333</ele><time>2026-05-02T13:54:07.161Z</time></trkpt><trkpt lat="40.5711259" lon="9.2603039"><ele>713.0</ele><time>2026-05-02T13:54:08.161Z</time></trkpt><trkpt lat="40.5711377" lon="9.2600564"><ele>713.0</ele><time>2026-05-02T13:54:09.16Z</time></trkpt><trkpt lat="40.5711559" lon="9.2598049"><ele>713.0</ele><time>2026-05-02T13:54:10.161Z</time></trkpt><trkpt lat="40.5711865" lon="9.2595439"><ele>713.0</ele><time>2026-05-02T13:54:11.16Z</time></trkpt><trkpt lat="40.5712226" lon="9.2592787"><ele>714.3333333333333</ele><time>2026-05-02T13:54:12.161Z</time></trkpt><trkpt lat="40.5712666" lon="9.2590141"><ele>715.6666666666666</ele><time>2026-05-02T13:54:13.161Z</time></trkpt><trkpt lat="40.5713057" lon="9.2587736"><ele>717.0</ele><time>2026-05-02T13:54:14.161Z</time></trkpt><trkpt lat="40.5713367" lon="9.2585536"><ele>717.0</ele><time>2026-05-02T13:54:15.161Z</time></trkpt><trkpt lat="40.5713727" lon="9.2583391"><ele>717.0</ele><time>2026-05-02T13:54:16.161Z</time></trkpt><trkpt lat="40.5713973" lon="9.2581488"><ele>717.0</ele><time>2026-05-02T13:54:17.161Z</time></trkpt><trkpt lat="40.5714296" lon="9.2579554"><ele>716.75</ele><time>2026-05-02T13:54:18.16Z</time></trkpt><trkpt lat="40.5714571" lon="9.2577754"><ele>716.5</ele><time>2026-05-02T13:54:19.161Z</time></trkpt><trkpt lat="40.57149" lon="9.2575947"><ele>716.25</ele><time>2026-05-02T13:54:20.16Z</time></trkpt><trkpt lat="40.5715252" lon="9.257424"><ele>716.0</ele><time>2026-05-02T13:54:21.161Z</time></trkpt><trkpt lat="40.5715668" lon="9.2572598"><ele>715.25</ele><time>2026-05-02T13:54:22.16Z</time></trkpt><trkpt lat="40.5716129" lon="9.2571006"><ele>714.5</ele><time>2026-05-02T13:54:23.16Z</time></trkpt><trkpt lat="40.5716562" lon="9.2569546"><ele>713.75</ele><time>2026-05-02T13:54:24.16Z</time></trkpt><trkpt lat="40.5717037" lon="9.2568159"><ele>713.0</ele><time>2026-05-02T13:54:25.161Z</time></trkpt><trkpt lat="40.5717534" lon="9.2566945"><ele>713.0</ele><time>2026-05-02T13:54:26.161Z</time></trkpt><trkpt lat="40.5718134" lon="9.2565898"><ele>713.0</ele><time>2026-05-02T13:54:27.161Z</time></trkpt><trkpt lat="40.5718716" lon="9.2565073"><ele>713.0</ele><time>2026-05-02T13:54:28.16Z</time></trkpt><trkpt lat="40.5719257" lon="9.2564296"><ele>713.0</ele><time>2026-05-02T13:54:29.16Z</time></trkpt><trkpt lat="40.5719541" lon="9.2563513"><ele>713.0</ele><time>2026-05-02T13:54:30.16Z</time></trkpt><trkpt lat="40.5719669" lon="9.2562506"><ele>713.0</ele><time>2026-05-02T13:54:31.161Z</time></trkpt><trkpt lat="40.5719846" lon="9.2561424"><ele>713.0</ele><time>2026-05-02T13:54:32.16Z</time></trkpt><trkpt lat="40.5720221" lon="9.2560231"><ele>713.0</ele><time>2026-05-02T13:54:33.161Z</time></trkpt><trkpt lat="40.5720772" lon="9.2558873"><ele>713.0</ele><time>2026-05-02T13:54:34.161Z</time></trkpt><trkpt lat="40.5721395" lon="9.2557404"><ele>713.0</ele><time>2026-05-02T13:54:35.161Z</time></trkpt><trkpt lat="40.5722106" lon="9.2555803"><ele>712.5</ele><time>2026-05-02T13:54:36.161Z</time></trkpt><trkpt lat="40.5722808" lon="9.2554193"><ele>712.0</ele><time>2026-05-02T13:54:37.161Z</time></trkpt><trkpt lat="40.5723575" lon="9.2552451"><ele>711.5</ele><time>2026-05-02T13:54:38.16Z</time></trkpt><trkpt lat="40.5724343" lon="9.2550856"><ele>711.0</ele><time>2026-05-02T13:54:39.161Z</time></trkpt><trkpt lat="40.5725198" lon="9.2549285"><ele>710.5</ele><time>2026-05-02T13:54:40.161Z</time></trkpt><trkpt lat="40.5726139" lon="9.2547815"><ele>710.0</ele><time>2026-05-02T13:54:41.16Z</time></trkpt><trkpt lat="40.5727152" lon="9.2546457"><ele>709.5</ele><time>2026-05-02T13:54:42.161Z</time></trkpt><trkpt lat="40.5728159" lon="9.2545223"><ele>709.0</ele><time>2026-05-02T13:54:43.161Z</time></trkpt><trkpt lat="40.5729167" lon="9.2544032"><ele>708.25</ele><time>2026-05-02T13:54:44.16Z</time></trkpt><trkpt lat="40.5730186" lon="9.2542771"><ele>707.5</ele><time>2026-05-02T13:54:45.16Z</time></trkpt><trkpt lat="40.5731146" lon="9.2541658"><ele>706.75</ele><time>2026-05-02T13:54:46.16Z</time></trkpt><trkpt lat="40.5732045" lon="9.2540578"><ele>706.0</ele><time>2026-05-02T13:54:47.16Z</time></trkpt><trkpt lat="40.573289" lon="9.2539662"><ele>705.5</ele><time>2026-05-02T13:54:48.16Z</time></trkpt><trkpt lat="40.5733606" lon="9.2538821"><ele>705.0</ele><time>2026-05-02T13:54:49.16Z</time></trkpt><trkpt lat="40.5734281" lon="9.253816"><ele>704.5</ele><time>2026-05-02T13:54:50.161Z</time></trkpt><trkpt lat="40.5734834" lon="9.2537567"><ele>704.0</ele><time>2026-05-02T13:54:51.161Z</time></trkpt><trkpt lat="40.5735365" lon="9.2537062"><ele>703.5</ele><time>2026-05-02T13:54:52.16Z</time></trkpt><trkpt lat="40.5736038" lon="9.2535865"><ele>703.0</ele><time>2026-05-02T13:54:54.16Z</time></trkpt><trkpt lat="40.5736283" lon="9.2534215"><ele>703.0</ele><time>2026-05-02T13:54:56.16Z</time></trkpt><trkpt lat="40.5736476" lon="9.2533226"><ele>703.0</ele><time>2026-05-02T13:54:57.161Z</time></trkpt><trkpt lat="40.5736656" lon="9.2532288"><ele>703.0</ele><time>2026-05-02T13:54:58.161Z</time></trkpt><trkpt lat="40.5737057" lon="9.253074"><ele>703.0</ele><time>2026-05-02T13:55:00.16Z</time></trkpt><trkpt lat="40.5737511" lon="9.2530066"><ele>703.0</ele><time>2026-05-02T13:55:01.161Z</time></trkpt><trkpt lat="40.5738625" lon="9.2529381"><ele>702.1428571428571</ele><time>2026-05-02T13:55:03.161Z</time></trkpt><trkpt lat="40.5739239" lon="9.2529732"><ele>701.2857142857143</ele><time>2026-05-02T13:55:04.16Z</time></trkpt><trkpt lat="40.5739873" lon="9.2530033"><ele>700.4285714285714</ele><time>2026-05-02T13:55:05.161Z</time></trkpt><trkpt lat="40.574057" lon="9.2530437"><ele>699.5714285714286</ele><time>2026-05-02T13:55:06.16Z</time></trkpt><trkpt lat="40.5741258" lon="9.2530956"><ele>698.7142857142857</ele><time>2026-05-02T13:55:07.161Z</time></trkpt><trkpt lat="40.5741897" lon="9.2531623"><ele>697.8571428571429</ele><time>2026-05-02T13:55:08.16Z</time></trkpt><trkpt lat="40.5742576" lon="9.2531957"><ele>697.0</ele><time>2026-05-02T13:55:09.16Z</time></trkpt><trkpt lat="40.574325" lon="9.2532399"><ele>697.0</ele><time>2026-05-02T13:55:10.16Z</time></trkpt><trkpt lat="40.5743915" lon="9.2532647"><ele>697.0</ele><time>2026-05-02T13:55:11.16Z</time></trkpt><trkpt lat="40.574457" lon="9.2533002"><ele>697.0</ele><time>2026-05-02T13:55:12.16Z</time></trkpt><trkpt lat="40.5745203" lon="9.2533388"><ele>697.0</ele><time>2026-05-02T13:55:13.16Z</time></trkpt><trkpt lat="40.5745889" lon="9.2533855"><ele>697.0</ele><time>2026-05-02T13:55:14.161Z</time></trkpt><trkpt lat="40.5746586" lon="9.2534271"><ele>697.0</ele><time>2026-05-02T13:55:15.16Z</time></trkpt><trkpt lat="40.5747304" lon="9.2534749"><ele>697.0</ele><time>2026-05-02T13:55:16.16Z</time></trkpt><trkpt lat="40.5748027" lon="9.2535184"><ele>695.8333333333334</ele><time>2026-05-02T13:55:17.161Z</time></trkpt><trkpt lat="40.5748803" lon="9.2535752"><ele>694.6666666666667</ele><time>2026-05-02T13:55:18.161Z</time></trkpt><trkpt lat="40.5749614" lon="9.2536268"><ele>693.5</ele><time>2026-05-02T13:55:19.16Z</time></trkpt><trkpt lat="40.575042" lon="9.2536805"><ele>692.3333333333334</ele><time>2026-05-02T13:55:20.16Z</time></trkpt><trkpt lat="40.575123" lon="9.2537357"><ele>691.1666666666666</ele><time>2026-05-02T13:55:21.16Z</time></trkpt><trkpt lat="40.5752042" lon="9.2537779"><ele>690.0</ele><time>2026-05-02T13:55:22.16Z</time></trkpt><trkpt lat="40.5752877" lon="9.2538331"><ele>689.8333333333334</ele><time>2026-05-02T13:55:23.16Z</time></trkpt><trkpt lat="40.5753698" lon="9.2538841"><ele>689.6666666666666</ele><time>2026-05-02T13:55:24.16Z</time></trkpt><trkpt lat="40.5754548" lon="9.2539362"><ele>689.5</ele><time>2026-05-02T13:55:25.16Z</time></trkpt><trkpt lat="40.5755348" lon="9.2539864"><ele>689.3333333333333</ele><time>2026-05-02T13:55:26.16Z</time></trkpt><trkpt lat="40.5756087" lon="9.2540376"><ele>689.1666666666666</ele><time>2026-05-02T13:55:27.161Z</time></trkpt><trkpt lat="40.5756861" lon="9.2540919"><ele>689.0</ele><time>2026-05-02T13:55:28.161Z</time></trkpt><trkpt lat="40.5757655" lon="9.2541453"><ele>687.8333333333333</ele><time>2026-05-02T13:55:29.16Z</time></trkpt><trkpt lat="40.5758423" lon="9.2541992"><ele>686.6666666666666</ele><time>2026-05-02T13:55:30.161Z</time></trkpt><trkpt lat="40.5759071" lon="9.2542774"><ele>685.5</ele><time>2026-05-02T13:55:31.161Z</time></trkpt><trkpt lat="40.5759748" lon="9.2543503"><ele>684.3333333333334</ele><time>2026-05-02T13:55:32.161Z</time></trkpt><trkpt lat="40.5760301" lon="9.2544345"><ele>683.1666666666667</ele><time>2026-05-02T13:55:33.16Z</time></trkpt><trkpt lat="40.5760924" lon="9.2545135"><ele>682.0</ele><time>2026-05-02T13:55:34.161Z</time></trkpt><trkpt lat="40.5761445" lon="9.2545972"><ele>681.0</ele><time>2026-05-02T13:55:35.16Z</time></trkpt><trkpt lat="40.5762063" lon="9.254679"><ele>680.0</ele><time>2026-05-02T13:55:36.16Z</time></trkpt><trkpt lat="40.5762755" lon="9.2547634"><ele>679.0</ele><time>2026-05-02T13:55:37.16Z</time></trkpt><trkpt lat="40.5763482" lon="9.2548409"><ele>678.0</ele><time>2026-05-02T13:55:38.161Z</time></trkpt><trkpt lat="40.5764311" lon="9.2549121"><ele>677.0</ele><time>2026-05-02T13:55:39.161Z</time></trkpt><trkpt lat="40.5765196" lon="9.2549765"><ele>676.8</ele><time>2026-05-02T13:55:40.161Z</time></trkpt><trkpt lat="40.5766059" lon="9.2550239"><ele>676.6</ele><time>2026-05-02T13:55:41.16Z</time></trkpt><trkpt lat="40.576697" lon="9.2550649"><ele>676.4</ele><time>2026-05-02T13:55:42.16Z</time></trkpt><trkpt lat="40.5767712" lon="9.2550886"><ele>676.1999999999999</ele><time>2026-05-02T13:55:43.161Z</time></trkpt><trkpt lat="40.5768423" lon="9.2551084"><ele>676.0</ele><time>2026-05-02T13:55:44.16Z</time></trkpt><trkpt lat="40.5769615" lon="9.255131"><ele>676.1666666666667</ele><time>2026-05-02T13:55:46.161Z</time></trkpt><trkpt lat="40.5770347" lon="9.2550766"><ele>676.3333333333334</ele><time>2026-05-02T13:55:48.161Z</time></trkpt><trkpt lat="40.5770569" lon="9.2549632"><ele>676.5</ele><time>2026-05-02T13:55:50.16Z</time></trkpt><trkpt lat="40.5770309" lon="9.2548208"><ele>676.6666666666666</ele><time>2026-05-02T13:55:52.16Z</time></trkpt><trkpt lat="40.5770184" lon="9.254724"><ele>676.8333333333333</ele><time>2026-05-02T13:55:53.161Z</time></trkpt><trkpt lat="40.5770207" lon="9.254636"><ele>677.0</ele><time>2026-05-02T13:55:54.161Z</time></trkpt><trkpt lat="40.5770465" lon="9.2545517"><ele>675.8333333333333</ele><time>2026-05-02T13:55:55.16Z</time></trkpt><trkpt lat="40.5770922" lon="9.2544743"><ele>674.6666666666666</ele><time>2026-05-02T13:55:56.16Z</time></trkpt><trkpt lat="40.5771515" lon="9.2544085"><ele>673.5</ele><time>2026-05-02T13:55:57.16Z</time></trkpt><trkpt lat="40.577225" lon="9.2543569"><ele>672.3333333333334</ele><time>2026-05-02T13:55:58.16Z</time></trkpt><trkpt lat="40.5773054" lon="9.2543217"><ele>671.1666666666667</ele><time>2026-05-02T13:55:59.16Z</time></trkpt><trkpt lat="40.5773861" lon="9.2542816"><ele>670.0</ele><time>2026-05-02T13:56:00.161Z</time></trkpt><trkpt lat="40.5774604" lon="9.2542416"><ele>670.0</ele><time>2026-05-02T13:56:01.16Z</time></trkpt><trkpt lat="40.5775366" lon="9.2542063"><ele>670.0</ele><time>2026-05-02T13:56:02.161Z</time></trkpt><trkpt lat="40.5776169" lon="9.2541549"><ele>670.0</ele><time>2026-05-02T13:56:03.161Z</time></trkpt><trkpt lat="40.5776959" lon="9.2540945"><ele>670.0</ele><time>2026-05-02T13:56:04.161Z</time></trkpt><trkpt lat="40.5777891" lon="9.2540239"><ele>670.0</ele><time>2026-05-02T13:56:05.16Z</time></trkpt><trkpt lat="40.5778681" lon="9.2539422"><ele>668.6</ele><time>2026-05-02T13:56:06.161Z</time></trkpt><trkpt lat="40.5779431" lon="9.2538627"><ele>667.2</ele><time>2026-05-02T13:56:07.161Z</time></trkpt><trkpt lat="40.5779966" lon="9.2537622"><ele>665.8</ele><time>2026-05-02T13:56:08.16Z</time></trkpt><trkpt lat="40.5780508" lon="9.2536643"><ele>664.4</ele><time>2026-05-02T13:56:09.161Z</time></trkpt><trkpt lat="40.578098" lon="9.2535333"><ele>663.0</ele><time>2026-05-02T13:56:10.16Z</time></trkpt><trkpt lat="40.5781523" lon="9.253407"><ele>663.0</ele><time>2026-05-02T13:56:11.161Z</time></trkpt><trkpt lat="40.5781971" lon="9.2532762"><ele>663.0</ele><time>2026-05-02T13:56:12.16Z</time></trkpt><trkpt lat="40.5782341" lon="9.2531555"><ele>663.0</ele><time>2026-05-02T13:56:13.161Z</time></trkpt><trkpt lat="40.5782688" lon="9.2530526"><ele>663.0</ele><time>2026-05-02T13:56:14.161Z</time></trkpt><trkpt lat="40.5783029" lon="9.2529643"><ele>663.0</ele><time>2026-05-02T13:56:15.16Z</time></trkpt><trkpt lat="40.5783574" lon="9.2528435"><ele>663.0</ele><time>2026-05-02T13:56:17.161Z</time></trkpt><trkpt lat="40.5784108" lon="9.252794"><ele>663.0</ele><time>2026-05-02T13:56:19.16Z</time></trkpt><trkpt lat="40.5784728" lon="9.2528288"><ele>663.0</ele><time>2026-05-02T13:56:21.161Z</time></trkpt><trkpt lat="40.5785361" lon="9.2529411"><ele>663.0</ele><time>2026-05-02T13:56:23.161Z</time></trkpt><trkpt lat="40.5785657" lon="9.2530245"><ele>663.0</ele><time>2026-05-02T13:56:24.16Z</time></trkpt><trkpt lat="40.5785961" lon="9.2531321"><ele>663.0</ele><time>2026-05-02T13:56:25.161Z</time></trkpt><trkpt lat="40.5786368" lon="9.2532575"><ele>663.0</ele><time>2026-05-02T13:56:26.161Z</time></trkpt><trkpt lat="40.5786785" lon="9.2533815"><ele>663.0</ele><time>2026-05-02T13:56:27.16Z</time></trkpt><trkpt lat="40.5787117" lon="9.2535056"><ele>663.0</ele><time>2026-05-02T13:56:28.161Z</time></trkpt><trkpt lat="40.578744" lon="9.2536335"><ele>663.0</ele><time>2026-05-02T13:56:29.16Z</time></trkpt><trkpt lat="40.5787769" lon="9.2537454"><ele>663.0</ele><time>2026-05-02T13:56:30.16Z</time></trkpt><trkpt lat="40.5788087" lon="9.2538605"><ele>660.4</ele><time>2026-05-02T13:56:31.161Z</time></trkpt><trkpt lat="40.5788343" lon="9.2539748"><ele>657.8</ele><time>2026-05-02T13:56:32.161Z</time></trkpt><trkpt lat="40.5788545" lon="9.254101"><ele>655.2</ele><time>2026-05-02T13:56:33.16Z</time></trkpt><trkpt lat="40.5788696" lon="9.254229"><ele>652.6</ele><time>2026-05-02T13:56:34.161Z</time></trkpt><trkpt lat="40.5788782" lon="9.2543607"><ele>650.0</ele><time>2026-05-02T13:56:35.161Z</time></trkpt><trkpt lat="40.5788816" lon="9.2545159"><ele>650.0</ele><time>2026-05-02T13:56:36.161Z</time></trkpt><trkpt lat="40.5788814" lon="9.254675"><ele>650.0</ele><time>2026-05-02T13:56:37.16Z</time></trkpt><trkpt lat="40.5788761" lon="9.2548439"><ele>650.0</ele><time>2026-05-02T13:56:38.16Z</time></trkpt><trkpt lat="40.5788672" lon="9.2550195"><ele>650.0</ele><time>2026-05-02T13:56:39.16Z</time></trkpt><trkpt lat="40.5788564" lon="9.2551776"><ele>649.8</ele><time>2026-05-02T13:56:40.16Z</time></trkpt><trkpt lat="40.5788501" lon="9.255332"><ele>649.6</ele><time>2026-05-02T13:56:41.161Z</time></trkpt><trkpt lat="40.5788566" lon="9.2554796"><ele>649.4000000000001</ele><time>2026-05-02T13:56:42.161Z</time></trkpt><trkpt lat="40.5788961" lon="9.2556139"><ele>649.2</ele><time>2026-05-02T13:56:43.16Z</time></trkpt><trkpt lat="40.5789411" lon="9.2557371"><ele>649.0</ele><time>2026-05-02T13:56:44.161Z</time></trkpt><trkpt lat="40.579031" lon="9.2558338"><ele>651.5</ele><time>2026-05-02T13:56:45.16Z</time></trkpt><trkpt lat="40.5791129" lon="9.2559454"><ele>654.0</ele><time>2026-05-02T13:56:46.161Z</time></trkpt><trkpt lat="40.5792113" lon="9.2560499"><ele>656.5</ele><time>2026-05-02T13:56:47.16Z</time></trkpt><trkpt lat="40.5793089" lon="9.2561489"><ele>659.0</ele><time>2026-05-02T13:56:48.16Z</time></trkpt><trkpt lat="40.5794023" lon="9.2562392"><ele>659.0</ele><time>2026-05-02T13:56:49.16Z</time></trkpt><trkpt lat="40.5794958" lon="9.2563181"><ele>659.0</ele><time>2026-05-02T13:56:50.161Z</time></trkpt><trkpt lat="40.5795931" lon="9.256382"><ele>659.0</ele><time>2026-05-02T13:56:51.16Z</time></trkpt><trkpt lat="40.5796872" lon="9.2564528"><ele>659.0</ele><time>2026-05-02T13:56:52.16Z</time></trkpt><trkpt lat="40.5797827" lon="9.2565295"><ele>659.0</ele><time>2026-05-02T13:56:53.16Z</time></trkpt><trkpt lat="40.579883" lon="9.2566083"><ele>658.25</ele><time>2026-05-02T13:56:54.161Z</time></trkpt><trkpt lat="40.5799839" lon="9.2566895"><ele>657.5</ele><time>2026-05-02T13:56:55.16Z</time></trkpt><trkpt lat="40.5800807" lon="9.2567678"><ele>656.75</ele><time>2026-05-02T13:56:56.16Z</time></trkpt><trkpt lat="40.5801746" lon="9.2568468"><ele>656.0</ele><time>2026-05-02T13:56:57.16Z</time></trkpt><trkpt lat="40.5802629" lon="9.2569265"><ele>655.5999999999999</ele><time>2026-05-02T13:56:58.161Z</time></trkpt><trkpt lat="40.5803508" lon="9.256999"><ele>655.2</ele><time>2026-05-02T13:56:59.161Z</time></trkpt><trkpt lat="40.5804371" lon="9.2570442"><ele>654.8</ele><time>2026-05-02T13:57:00.161Z</time></trkpt><trkpt lat="40.5805327" lon="9.2570842"><ele>654.4000000000001</ele><time>2026-05-02T13:57:01.161Z</time></trkpt><trkpt lat="40.5806349" lon="9.257102"><ele>654.0</ele><time>2026-05-02T13:57:02.16Z</time></trkpt><trkpt lat="40.5807438" lon="9.2570973"><ele>654.0</ele><time>2026-05-02T13:57:03.16Z</time></trkpt><trkpt lat="40.5808492" lon="9.257082"><ele>654.0</ele><time>2026-05-02T13:57:04.161Z</time></trkpt><trkpt lat="40.5809538" lon="9.2570366"><ele>654.0</ele><time>2026-05-02T13:57:05.16Z</time></trkpt><trkpt lat="40.5810547" lon="9.2569748"><ele>654.0</ele><time>2026-05-02T13:57:06.161Z</time></trkpt><trkpt lat="40.5811619" lon="9.256911"><ele>654.0</ele><time>2026-05-02T13:57:07.16Z</time></trkpt><trkpt lat="40.5812606" lon="9.2568447"><ele>655.2</ele><time>2026-05-02T13:57:08.16Z</time></trkpt><trkpt lat="40.5813531" lon="9.2567855"><ele>656.4000000000001</ele><time>2026-05-02T13:57:09.16Z</time></trkpt><trkpt lat="40.5814427" lon="9.2567289"><ele>657.6</ele><time>2026-05-02T13:57:10.16Z</time></trkpt><trkpt lat="40.5815197" lon="9.256674"><ele>658.8</ele><time>2026-05-02T13:57:11.161Z</time></trkpt><trkpt lat="40.5816063" lon="9.2566278"><ele>660.0</ele><time>2026-05-02T13:57:12.16Z</time></trkpt><trkpt lat="40.581683" lon="9.2565826"><ele>660.0</ele><time>2026-05-02T13:57:13.161Z</time></trkpt><trkpt lat="40.5817613" lon="9.2565398"><ele>660.0</ele><time>2026-05-02T13:57:14.16Z</time></trkpt><trkpt lat="40.5818457" lon="9.2565336"><ele>660.0</ele><time>2026-05-02T13:57:15.161Z</time></trkpt><trkpt lat="40.5819318" lon="9.2565539"><ele>660.0</ele><time>2026-05-02T13:57:16.161Z</time></trkpt><trkpt lat="40.582005" lon="9.2565902"><ele>660.0</ele><time>2026-05-02T13:57:17.16Z</time></trkpt><trkpt lat="40.5820652" lon="9.2566415"><ele>660.0</ele><time>2026-05-02T13:57:18.16Z</time></trkpt><trkpt lat="40.5821456" lon="9.2567354"><ele>661.0</ele><time>2026-05-02T13:57:20.16Z</time></trkpt><trkpt lat="40.5822444" lon="9.2567696"><ele>662.0</ele><time>2026-05-02T13:57:22.161Z</time></trkpt><trkpt lat="40.5823113" lon="9.2567694"><ele>663.0</ele><time>2026-05-02T13:57:23.16Z</time></trkpt><trkpt lat="40.582385" lon="9.2567481"><ele>664.0</ele><time>2026-05-02T13:57:24.16Z</time></trkpt><trkpt lat="40.5824745" lon="9.2567123"><ele>665.0</ele><time>2026-05-02T13:57:25.16Z</time></trkpt><trkpt lat="40.5825811" lon="9.2566689"><ele>665.0</ele><time>2026-05-02T13:57:26.161Z</time></trkpt><trkpt lat="40.5827019" lon="9.2566079"><ele>665.0</ele><time>2026-05-02T13:57:27.16Z</time></trkpt><trkpt lat="40.5828348" lon="9.2565438"><ele>665.0</ele><time>2026-05-02T13:57:28.161Z</time></trkpt><trkpt lat="40.5829775" lon="9.2564753"><ele>665.0</ele><time>2026-05-02T13:57:29.161Z</time></trkpt><trkpt lat="40.5831266" lon="9.2564041"><ele>664.0</ele><time>2026-05-02T13:57:30.16Z</time></trkpt><trkpt lat="40.5832704" lon="9.2563282"><ele>663.0</ele><time>2026-05-02T13:57:31.161Z</time></trkpt><trkpt lat="40.5834107" lon="9.2562547"><ele>662.0</ele><time>2026-05-02T13:57:32.16Z</time></trkpt><trkpt lat="40.5835402" lon="9.2561709"><ele>662.0</ele><time>2026-05-02T13:57:33.16Z</time></trkpt><trkpt lat="40.5836504" lon="9.2560687"><ele>662.0</ele><time>2026-05-02T13:57:34.161Z</time></trkpt><trkpt lat="40.5837352" lon="9.255942"><ele>662.0</ele><time>2026-05-02T13:57:35.16Z</time></trkpt><trkpt lat="40.5837924" lon="9.2557885"><ele>662.0</ele><time>2026-05-02T13:57:36.16Z</time></trkpt><trkpt lat="40.5838283" lon="9.2556153"><ele>664.0</ele><time>2026-05-02T13:57:37.16Z</time></trkpt><trkpt lat="40.583854" lon="9.2554212"><ele>666.0</ele><time>2026-05-02T13:57:38.16Z</time></trkpt><trkpt lat="40.5838816" lon="9.2552262"><ele>668.0</ele><time>2026-05-02T13:57:39.161Z</time></trkpt><trkpt lat="40.5839134" lon="9.2550557"><ele>670.0</ele><time>2026-05-02T13:57:40.161Z</time></trkpt><trkpt lat="40.583967" lon="9.254901"><ele>669.25</ele><time>2026-05-02T13:57:41.16Z</time></trkpt><trkpt lat="40.5840372" lon="9.254755"><ele>668.5</ele><time>2026-05-02T13:57:42.16Z</time></trkpt><trkpt lat="40.5841169" lon="9.2546178"><ele>667.75</ele><time>2026-05-02T13:57:43.16Z</time></trkpt><trkpt lat="40.5842019" lon="9.2544956"><ele>667.0</ele><time>2026-05-02T13:57:44.16Z</time></trkpt><trkpt lat="40.5842996" lon="9.254419"><ele>667.0</ele><time>2026-05-02T13:57:45.16Z</time></trkpt><trkpt lat="40.5844081" lon="9.2543736"><ele>667.0</ele><time>2026-05-02T13:57:46.161Z</time></trkpt><trkpt lat="40.5845318" lon="9.2543735"><ele>667.0</ele><time>2026-05-02T13:57:47.16Z</time></trkpt><trkpt lat="40.5846564" lon="9.2544204"><ele>667.0</ele><time>2026-05-02T13:57:48.161Z</time></trkpt><trkpt lat="40.5847854" lon="9.2545046"><ele>667.0</ele><time>2026-05-02T13:57:49.161Z</time></trkpt><trkpt lat="40.5849222" lon="9.25461"><ele>667.0</ele><time>2026-05-02T13:57:50.161Z</time></trkpt><trkpt lat="40.5850372" lon="9.2547256"><ele>667.0</ele><time>2026-05-02T13:57:51.16Z</time></trkpt><trkpt lat="40.5851273" lon="9.2548504"><ele>667.0</ele><time>2026-05-02T13:57:52.161Z</time></trkpt><trkpt lat="40.585185" lon="9.2549965"><ele>667.0</ele><time>2026-05-02T13:57:53.161Z</time></trkpt><trkpt lat="40.5852093" lon="9.2551722"><ele>667.0</ele><time>2026-05-02T13:57:54.16Z</time></trkpt><trkpt lat="40.5852206" lon="9.2553736"><ele>667.0</ele><time>2026-05-02T13:57:55.16Z</time></trkpt><trkpt lat="40.5852541" lon="9.2555865"><ele>668.3333333333334</ele><time>2026-05-02T13:57:56.16Z</time></trkpt><trkpt lat="40.5853211" lon="9.255811"><ele>669.6666666666666</ele><time>2026-05-02T13:57:57.16Z</time></trkpt><trkpt lat="40.5854093" lon="9.2560453"><ele>671.0</ele><time>2026-05-02T13:57:58.161Z</time></trkpt><trkpt lat="40.5855031" lon="9.2562609"><ele>666.0</ele><time>2026-05-02T13:57:59.16Z</time></trkpt><trkpt lat="40.5855952" lon="9.2564885"><ele>661.0</ele><time>2026-05-02T13:58:00.161Z</time></trkpt><trkpt lat="40.5856825" lon="9.2567248"><ele>656.0</ele><time>2026-05-02T13:58:01.161Z</time></trkpt><trkpt lat="40.5857525" lon="9.2569546"><ele>656.0</ele><time>2026-05-02T13:58:02.161Z</time></trkpt><trkpt lat="40.5858103" lon="9.2571708"><ele>656.0</ele><time>2026-05-02T13:58:03.161Z</time></trkpt><trkpt lat="40.5858588" lon="9.2573786"><ele>656.0</ele><time>2026-05-02T13:58:04.161Z</time></trkpt><trkpt lat="40.5858992" lon="9.257576"><ele>656.0</ele><time>2026-05-02T13:58:05.16Z</time></trkpt><trkpt lat="40.5859166" lon="9.2577706"><ele>656.0</ele><time>2026-05-02T13:58:06.16Z</time></trkpt><trkpt lat="40.5859193" lon="9.2579721"><ele>656.0</ele><time>2026-05-02T13:58:07.161Z</time></trkpt><trkpt lat="40.5859138" lon="9.2581775"><ele>656.0</ele><time>2026-05-02T13:58:08.16Z</time></trkpt><trkpt lat="40.5859248" lon="9.2583852"><ele>656.0</ele><time>2026-05-02T13:58:09.161Z</time></trkpt><trkpt lat="40.585947" lon="9.2585949"><ele>656.0</ele><time>2026-05-02T13:58:10.16Z</time></trkpt><trkpt lat="40.5859648" lon="9.2588042"><ele>655.6666666666666</ele><time>2026-05-02T13:58:11.16Z</time></trkpt><trkpt lat="40.5859864" lon="9.2590125"><ele>655.3333333333334</ele><time>2026-05-02T13:58:12.16Z</time></trkpt><trkpt lat="40.5860236" lon="9.2592191"><ele>655.0</ele><time>2026-05-02T13:58:13.161Z</time></trkpt><trkpt lat="40.5860817" lon="9.2594094"><ele>655.0</ele><time>2026-05-02T13:58:14.16Z</time></trkpt><trkpt lat="40.5861623" lon="9.2595895"><ele>655.0</ele><time>2026-05-02T13:58:15.16Z</time></trkpt><trkpt lat="40.5862589" lon="9.2597718"><ele>655.0</ele><time>2026-05-02T13:58:16.16Z</time></trkpt><trkpt lat="40.5863636" lon="9.2599501"><ele>651.0</ele><time>2026-05-02T13:58:17.16Z</time></trkpt><trkpt lat="40.5864639" lon="9.2601465"><ele>647.0</ele><time>2026-05-02T13:58:18.161Z</time></trkpt><trkpt lat="40.5865692" lon="9.26034"><ele>643.0</ele><time>2026-05-02T13:58:19.161Z</time></trkpt><trkpt lat="40.5866659" lon="9.2605335"><ele>643.0</ele><time>2026-05-02T13:58:20.161Z</time></trkpt><trkpt lat="40.586761" lon="9.2607304"><ele>643.0</ele><time>2026-05-02T13:58:21.16Z</time></trkpt><trkpt lat="40.586857" lon="9.2609262"><ele>643.0</ele><time>2026-05-02T13:58:22.161Z</time></trkpt><trkpt lat="40.5869547" lon="9.2611128"><ele>642.3333333333334</ele><time>2026-05-02T13:58:23.161Z</time></trkpt><trkpt lat="40.5870441" lon="9.2613038"><ele>641.6666666666666</ele><time>2026-05-02T13:58:24.161Z</time></trkpt><trkpt lat="40.5871409" lon="9.2614933"><ele>641.0</ele><time>2026-05-02T13:58:25.16Z</time></trkpt><trkpt lat="40.587236" lon="9.2616882"><ele>641.0</ele><time>2026-05-02T13:58:26.161Z</time></trkpt><trkpt lat="40.5873395" lon="9.2619005"><ele>641.0</ele><time>2026-05-02T13:58:27.16Z</time></trkpt><trkpt lat="40.5874491" lon="9.262118"><ele>641.0</ele><time>2026-05-02T13:58:28.161Z</time></trkpt><trkpt lat="40.5875657" lon="9.2623397"><ele>641.0</ele><time>2026-05-02T13:58:29.161Z</time></trkpt><trkpt lat="40.5876945" lon="9.2625583"><ele>641.0</ele><time>2026-05-02T13:58:30.161Z</time></trkpt><trkpt lat="40.5878325" lon="9.2627891"><ele>641.0</ele><time>2026-05-02T13:58:31.161Z</time></trkpt><trkpt lat="40.5879821" lon="9.2630111"><ele>639.6666666666666</ele><time>2026-05-02T13:58:32.16Z</time></trkpt><trkpt lat="40.5881339" lon="9.2632261"><ele>638.3333333333334</ele><time>2026-05-02T13:58:33.16Z</time></trkpt><trkpt lat="40.5882844" lon="9.2634375"><ele>637.0</ele><time>2026-05-02T13:58:34.16Z</time></trkpt><trkpt lat="40.5884221" lon="9.2636465"><ele>637.0</ele><time>2026-05-02T13:58:35.161Z</time></trkpt><trkpt lat="40.5885536" lon="9.2638514"><ele>637.0</ele><time>2026-05-02T13:58:36.16Z</time></trkpt><trkpt lat="40.5886857" lon="9.264047"><ele>637.0</ele><time>2026-05-02T13:58:37.16Z</time></trkpt><trkpt lat="40.5888122" lon="9.2642341"><ele>637.6666666666667</ele><time>2026-05-02T13:58:38.161Z</time></trkpt><trkpt lat="40.5889395" lon="9.2644229"><ele>638.3333333333334</ele><time>2026-05-02T13:58:39.161Z</time></trkpt><trkpt lat="40.5890683" lon="9.2646078"><ele>639.0</ele><time>2026-05-02T13:58:40.16Z</time></trkpt><trkpt lat="40.589205" lon="9.2647792"><ele>638.0</ele><time>2026-05-02T13:58:41.16Z</time></trkpt><trkpt lat="40.5893456" lon="9.2649443"><ele>637.0</ele><time>2026-05-02T13:58:42.161Z</time></trkpt><trkpt lat="40.5894912" lon="9.2651083"><ele>636.0</ele><time>2026-05-02T13:58:43.16Z</time></trkpt><trkpt lat="40.5896351" lon="9.2652537"><ele>636.0</ele><time>2026-05-02T13:58:44.16Z</time></trkpt><trkpt lat="40.5897818" lon="9.2653836"><ele>636.0</ele><time>2026-05-02T13:58:45.161Z</time></trkpt><trkpt lat="40.5899346" lon="9.2654864"><ele>636.0</ele><time>2026-05-02T13:58:46.161Z</time></trkpt><trkpt lat="40.5901014" lon="9.2655656"><ele>633.6666666666666</ele><time>2026-05-02T13:58:47.16Z</time></trkpt><trkpt lat="40.5902776" lon="9.2656121"><ele>631.3333333333333</ele><time>2026-05-02T13:58:48.16Z</time></trkpt><trkpt lat="40.5904648" lon="9.265629"><ele>629.0</ele><time>2026-05-02T13:58:49.16Z</time></trkpt><trkpt lat="40.5906616" lon="9.2656062"><ele>629.0</ele><time>2026-05-02T13:58:50.16Z</time></trkpt><trkpt lat="40.5908536" lon="9.2655597"><ele>629.0</ele><time>2026-05-02T13:58:51.161Z</time></trkpt><trkpt lat="40.591049" lon="9.2654895"><ele>629.0</ele><time>2026-05-02T13:58:52.161Z</time></trkpt><trkpt lat="40.5912353" lon="9.265433"><ele>625.6666666666666</ele><time>2026-05-02T13:58:53.16Z</time></trkpt><trkpt lat="40.5914283" lon="9.2654123"><ele>622.3333333333334</ele><time>2026-05-02T13:58:54.16Z</time></trkpt><trkpt lat="40.5916256" lon="9.2654097"><ele>619.0</ele><time>2026-05-02T13:58:55.161Z</time></trkpt><trkpt lat="40.5918306" lon="9.2654637"><ele>617.6666666666667</ele><time>2026-05-02T13:58:56.16Z</time></trkpt><trkpt lat="40.592049" lon="9.2655116"><ele>616.3333333333334</ele><time>2026-05-02T13:58:57.16Z</time></trkpt><trkpt lat="40.5922659" lon="9.265558"><ele>615.0</ele><time>2026-05-02T13:58:58.161Z</time></trkpt><trkpt lat="40.5924834" lon="9.2656143"><ele>615.0</ele><time>2026-05-02T13:58:59.161Z</time></trkpt><trkpt lat="40.5927057" lon="9.2656666"><ele>615.0</ele><time>2026-05-02T13:59:00.161Z</time></trkpt><trkpt lat="40.5929351" lon="9.2657199"><ele>614.5</ele><time>2026-05-02T13:59:01.16Z</time></trkpt><trkpt lat="40.5931751" lon="9.2657787"><ele>614.0</ele><time>2026-05-02T13:59:02.16Z</time></trkpt><trkpt lat="40.593419" lon="9.2658365"><ele>614.0</ele><time>2026-05-02T13:59:03.16Z</time></trkpt><trkpt lat="40.5936652" lon="9.2659036"><ele>614.0</ele><time>2026-05-02T13:59:04.16Z</time></trkpt><trkpt lat="40.5939112" lon="9.2659695"><ele>613.5</ele><time>2026-05-02T13:59:05.16Z</time></trkpt><trkpt lat="40.5941467" lon="9.2660303"><ele>613.0</ele><time>2026-05-02T13:59:06.16Z</time></trkpt><trkpt lat="40.5943608" lon="9.2660876"><ele>613.0</ele><time>2026-05-02T13:59:07.16Z</time></trkpt><trkpt lat="40.5945633" lon="9.2661408"><ele>613.0</ele><time>2026-05-02T13:59:08.16Z</time></trkpt><trkpt lat="40.5947578" lon="9.2661909"><ele>613.0</ele><time>2026-05-02T13:59:09.16Z</time></trkpt><trkpt lat="40.594952" lon="9.2662415"><ele>613.0</ele><time>2026-05-02T13:59:10.161Z</time></trkpt><trkpt lat="40.5951337" lon="9.2662877"><ele>613.0</ele><time>2026-05-02T13:59:11.161Z</time></trkpt><trkpt lat="40.5953126" lon="9.2663386"><ele>613.0</ele><time>2026-05-02T13:59:12.161Z</time></trkpt><trkpt lat="40.59549" lon="9.2663862"><ele>613.0</ele><time>2026-05-02T13:59:13.16Z</time></trkpt><trkpt lat="40.5956664" lon="9.2664375"><ele>613.0</ele><time>2026-05-02T13:59:14.16Z</time></trkpt><trkpt lat="40.595853" lon="9.2664813"><ele>613.0</ele><time>2026-05-02T13:59:15.16Z</time></trkpt><trkpt lat="40.5960353" lon="9.2665314"><ele>612.6666666666667</ele><time>2026-05-02T13:59:16.16Z</time></trkpt><trkpt lat="40.5962198" lon="9.2665857"><ele>612.3333333333334</ele><time>2026-05-02T13:59:17.161Z</time></trkpt><trkpt lat="40.5964103" lon="9.2666411"><ele>612.0</ele><time>2026-05-02T13:59:18.161Z</time></trkpt><trkpt lat="40.5965938" lon="9.2667093"><ele>612.0</ele><time>2026-05-02T13:59:19.161Z</time></trkpt><trkpt lat="40.5967844" lon="9.2667876"><ele>612.0</ele><time>2026-05-02T13:59:20.161Z</time></trkpt><trkpt lat="40.5969785" lon="9.2668775"><ele>612.0</ele><time>2026-05-02T13:59:21.161Z</time></trkpt><trkpt lat="40.5971802" lon="9.2669702"><ele>611.5</ele><time>2026-05-02T13:59:22.16Z</time></trkpt><trkpt lat="40.5973864" lon="9.2670725"><ele>611.0</ele><time>2026-05-02T13:59:23.161Z</time></trkpt><trkpt lat="40.5976002" lon="9.2671824"><ele>610.5</ele><time>2026-05-02T13:59:24.161Z</time></trkpt><trkpt lat="40.5978187" lon="9.2672973"><ele>610.0</ele><time>2026-05-02T13:59:25.16Z</time></trkpt><trkpt lat="40.5980424" lon="9.2674066"><ele>612.0</ele><time>2026-05-02T13:59:26.161Z</time></trkpt><trkpt lat="40.5982676" lon="9.2675218"><ele>614.0</ele><time>2026-05-02T13:59:27.161Z</time></trkpt><trkpt lat="40.5984913" lon="9.2676376"><ele>613.5</ele><time>2026-05-02T13:59:28.161Z</time></trkpt><trkpt lat="40.598709" lon="9.2677472"><ele>613.0</ele><time>2026-05-02T13:59:29.16Z</time></trkpt><trkpt lat="40.5989247" lon="9.2678555"><ele>613.0</ele><time>2026-05-02T13:59:30.16Z</time></trkpt><trkpt lat="40.5991351" lon="9.2679601"><ele>613.0</ele><time>2026-05-02T13:59:31.161Z</time></trkpt><trkpt lat="40.5993402" lon="9.2680612"><ele>613.0</ele><time>2026-05-02T13:59:32.16Z</time></trkpt><trkpt lat="40.5995432" lon="9.2681594"><ele>612.3333333333334</ele><time>2026-05-02T13:59:33.16Z</time></trkpt><trkpt lat="40.5997426" lon="9.2682618"><ele>611.6666666666666</ele><time>2026-05-02T13:59:34.16Z</time></trkpt><trkpt lat="40.599939" lon="9.2683616"><ele>611.0</ele><time>2026-05-02T13:59:35.16Z</time></trkpt><trkpt lat="40.6001339" lon="9.2684573"><ele>611.0</ele><time>2026-05-02T13:59:36.16Z</time></trkpt><trkpt lat="40.6003277" lon="9.2685527"><ele>611.0</ele><time>2026-05-02T13:59:37.16Z</time></trkpt><trkpt lat="40.6005078" lon="9.26865"><ele>611.0</ele><time>2026-05-02T13:59:38.16Z</time></trkpt><trkpt lat="40.6006891" lon="9.2687374"><ele>611.6666666666666</ele><time>2026-05-02T13:59:39.16Z</time></trkpt><trkpt lat="40.6008633" lon="9.268822"><ele>612.3333333333334</ele><time>2026-05-02T13:59:40.161Z</time></trkpt><trkpt lat="40.6010312" lon="9.2689129"><ele>613.0</ele><time>2026-05-02T13:59:41.16Z</time></trkpt><trkpt lat="40.601196" lon="9.2690029"><ele>613.6666666666667</ele><time>2026-05-02T13:59:42.161Z</time></trkpt><trkpt lat="40.6013598" lon="9.2690904"><ele>614.3333333333334</ele><time>2026-05-02T13:59:43.161Z</time></trkpt><trkpt lat="40.6015262" lon="9.2691742"><ele>615.0</ele><time>2026-05-02T13:59:44.161Z</time></trkpt><trkpt lat="40.6016853" lon="9.269252"><ele>615.0</ele><time>2026-05-02T13:59:45.161Z</time></trkpt><trkpt lat="40.6018419" lon="9.2693305"><ele>615.0</ele><time>2026-05-02T13:59:46.16Z</time></trkpt><trkpt lat="40.602" lon="9.2694097"><ele>615.0</ele><time>2026-05-02T13:59:47.16Z</time></trkpt><trkpt lat="40.6021611" lon="9.2694891"><ele>614.3333333333334</ele><time>2026-05-02T13:59:48.16Z</time></trkpt><trkpt lat="40.6023244" lon="9.269559"><ele>613.6666666666667</ele><time>2026-05-02T13:59:49.161Z</time></trkpt><trkpt lat="40.6024848" lon="9.2696254"><ele>613.0</ele><time>2026-05-02T13:59:50.16Z</time></trkpt><trkpt lat="40.6026427" lon="9.2696879"><ele>613.0</ele><time>2026-05-02T13:59:51.161Z</time></trkpt><trkpt lat="40.602799" lon="9.2697363"><ele>613.0</ele><time>2026-05-02T13:59:52.16Z</time></trkpt><trkpt lat="40.602939" lon="9.269783"><ele>613.0</ele><time>2026-05-02T13:59:53.16Z</time></trkpt><trkpt lat="40.6030719" lon="9.2698253"><ele>613.0</ele><time>2026-05-02T13:59:54.161Z</time></trkpt><trkpt lat="40.603206" lon="9.2698723"><ele>614.0</ele><time>2026-05-02T13:59:55.161Z</time></trkpt><trkpt lat="40.6033485" lon="9.2699177"><ele>615.0</ele><time>2026-05-02T13:59:56.161Z</time></trkpt><trkpt lat="40.6034957" lon="9.2699635"><ele>616.0</ele><time>2026-05-02T13:59:57.16Z</time></trkpt><trkpt lat="40.6036465" lon="9.2700115"><ele>617.3333333333334</ele><time>2026-05-02T13:59:58.161Z</time></trkpt><trkpt lat="40.6038002" lon="9.2700585"><ele>618.6666666666666</ele><time>2026-05-02T13:59:59.161Z</time></trkpt><trkpt lat="40.6039584" lon="9.2701082"><ele>620.0</ele><time>2026-05-02T14:00:00.16Z</time></trkpt><trkpt lat="40.6041212" lon="9.2701627"><ele>620.0</ele><time>2026-05-02T14:00:01.16Z</time></trkpt><trkpt lat="40.6042873" lon="9.2702117"><ele>620.0</ele><time>2026-05-02T14:00:02.161Z</time></trkpt><trkpt lat="40.6044572" lon="9.2702643"><ele>620.0</ele><time>2026-05-02T14:00:03.161Z</time></trkpt><trkpt lat="40.6046323" lon="9.270324"><ele>620.3333333333333</ele><time>2026-05-02T14:00:04.161Z</time></trkpt><trkpt lat="40.6048121" lon="9.2703813"><ele>620.6666666666666</ele><time>2026-05-02T14:00:05.161Z</time></trkpt><trkpt lat="40.6050019" lon="9.2704327"><ele>621.0</ele><time>2026-05-02T14:00:06.161Z</time></trkpt><trkpt lat="40.6051947" lon="9.2704604"><ele>620.3333333333334</ele><time>2026-05-02T14:00:07.16Z</time></trkpt><trkpt lat="40.6053895" lon="9.2704703"><ele>619.6666666666667</ele><time>2026-05-02T14:00:08.161Z</time></trkpt><trkpt lat="40.6055881" lon="9.2704633"><ele>619.0</ele><time>2026-05-02T14:00:09.16Z</time></trkpt><trkpt lat="40.6057931" lon="9.2704477"><ele>619.0</ele><time>2026-05-02T14:00:10.161Z</time></trkpt><trkpt lat="40.6060023" lon="9.2704263"><ele>619.0</ele><time>2026-05-02T14:00:11.161Z</time></trkpt><trkpt lat="40.6062089" lon="9.2704069"><ele>619.0</ele><time>2026-05-02T14:00:12.161Z</time></trkpt><trkpt lat="40.6064156" lon="9.2703889"><ele>619.3333333333334</ele><time>2026-05-02T14:00:13.161Z</time></trkpt><trkpt lat="40.6066252" lon="9.2703661"><ele>619.6666666666666</ele><time>2026-05-02T14:00:14.161Z</time></trkpt><trkpt lat="40.6068216" lon="9.2703476"><ele>620.0</ele><time>2026-05-02T14:00:15.16Z</time></trkpt><trkpt lat="40.6070174" lon="9.2703382"><ele>621.6666666666666</ele><time>2026-05-02T14:00:16.16Z</time></trkpt><trkpt lat="40.6072139" lon="9.2703322"><ele>623.3333333333334</ele><time>2026-05-02T14:00:17.161Z</time></trkpt><trkpt lat="40.6074083" lon="9.2703445"><ele>625.0</ele><time>2026-05-02T14:00:18.16Z</time></trkpt><trkpt lat="40.6076189" lon="9.2703875"><ele>624.0</ele><time>2026-05-02T14:00:19.16Z</time></trkpt><trkpt lat="40.6078282" lon="9.2704338"><ele>623.0</ele><time>2026-05-02T14:00:20.161Z</time></trkpt><trkpt lat="40.6080212" lon="9.2704737"><ele>622.0</ele><time>2026-05-02T14:00:21.16Z</time></trkpt><trkpt lat="40.6082133" lon="9.2705171"><ele>622.0</ele><time>2026-05-02T14:00:22.161Z</time></trkpt><trkpt lat="40.6083954" lon="9.2705598"><ele>622.0</ele><time>2026-05-02T14:00:23.161Z</time></trkpt><trkpt lat="40.6085696" lon="9.2705906"><ele>622.0</ele><time>2026-05-02T14:00:24.161Z</time></trkpt><trkpt lat="40.6087365" lon="9.2706229"><ele>620.6666666666667</ele><time>2026-05-02T14:00:25.16Z</time></trkpt><trkpt lat="40.6088934" lon="9.2706577"><ele>619.3333333333334</ele><time>2026-05-02T14:00:26.161Z</time></trkpt><trkpt lat="40.6090521" lon="9.2706862"><ele>618.0</ele><time>2026-05-02T14:00:27.161Z</time></trkpt><trkpt lat="40.6092048" lon="9.2707215"><ele>618.0</ele><time>2026-05-02T14:00:28.16Z</time></trkpt><trkpt lat="40.609345" lon="9.2707528"><ele>618.0</ele><time>2026-05-02T14:00:29.16Z</time></trkpt><trkpt lat="40.6094813" lon="9.2707844"><ele>618.0</ele><time>2026-05-02T14:00:30.16Z</time></trkpt><trkpt lat="40.6096112" lon="9.2708141"><ele>618.0</ele><time>2026-05-02T14:00:31.16Z</time></trkpt><trkpt lat="40.6097433" lon="9.270838"><ele>618.25</ele><time>2026-05-02T14:00:32.161Z</time></trkpt><trkpt lat="40.6098723" lon="9.2708655"><ele>618.5</ele><time>2026-05-02T14:00:33.161Z</time></trkpt><trkpt lat="40.6099989" lon="9.2708953"><ele>618.75</ele><time>2026-05-02T14:00:34.161Z</time></trkpt><trkpt lat="40.610123" lon="9.2709219"><ele>619.0</ele><time>2026-05-02T14:00:35.161Z</time></trkpt><trkpt lat="40.610237" lon="9.2709498"><ele>618.8</ele><time>2026-05-02T14:00:36.16Z</time></trkpt><trkpt lat="40.6103433" lon="9.2709756"><ele>618.5999999999999</ele><time>2026-05-02T14:00:37.16Z</time></trkpt><trkpt lat="40.610437" lon="9.2710056"><ele>618.4</ele><time>2026-05-02T14:00:38.161Z</time></trkpt><trkpt lat="40.6105247" lon="9.2710421"><ele>618.1999999999999</ele><time>2026-05-02T14:00:39.161Z</time></trkpt><trkpt lat="40.6106064" lon="9.2710843"><ele>618.0</ele><time>2026-05-02T14:00:40.16Z</time></trkpt><trkpt lat="40.6106702" lon="9.2711552"><ele>618.0</ele><time>2026-05-02T14:00:41.16Z</time></trkpt><trkpt lat="40.6107279" lon="9.2712382"><ele>618.0</ele><time>2026-05-02T14:00:42.161Z</time></trkpt><trkpt lat="40.6107661" lon="9.2713426"><ele>618.0</ele><time>2026-05-02T14:00:43.16Z</time></trkpt><trkpt lat="40.6107892" lon="9.2714655"><ele>618.0</ele><time>2026-05-02T14:00:44.161Z</time></trkpt><trkpt lat="40.6107977" lon="9.2715945"><ele>618.0</ele><time>2026-05-02T14:00:45.161Z</time></trkpt><trkpt lat="40.6108067" lon="9.2717413"><ele>619.0</ele><time>2026-05-02T14:00:46.16Z</time></trkpt><trkpt lat="40.6108151" lon="9.2719012"><ele>620.0</ele><time>2026-05-02T14:00:47.161Z</time></trkpt><trkpt lat="40.6108243" lon="9.27208"><ele>621.0</ele><time>2026-05-02T14:00:48.16Z</time></trkpt><trkpt lat="40.6108297" lon="9.2722698"><ele>622.0</ele><time>2026-05-02T14:00:49.16Z</time></trkpt><trkpt lat="40.6108408" lon="9.2724649"><ele>622.25</ele><time>2026-05-02T14:00:50.16Z</time></trkpt><trkpt lat="40.6108487" lon="9.2726599"><ele>622.5</ele><time>2026-05-02T14:00:51.16Z</time></trkpt><trkpt lat="40.6108623" lon="9.2728412"><ele>622.75</ele><time>2026-05-02T14:00:52.161Z</time></trkpt><trkpt lat="40.6108967" lon="9.2730109"><ele>623.0</ele><time>2026-05-02T14:00:53.16Z</time></trkpt><trkpt lat="40.6109552" lon="9.2731621"><ele>623.0</ele><time>2026-05-02T14:00:54.16Z</time></trkpt><trkpt lat="40.61104" lon="9.2732868"><ele>623.0</ele><time>2026-05-02T14:00:55.161Z</time></trkpt><trkpt lat="40.611149" lon="9.2733929"><ele>623.0</ele><time>2026-05-02T14:00:56.16Z</time></trkpt><trkpt lat="40.6112823" lon="9.2734982"><ele>623.0</ele><time>2026-05-02T14:00:57.161Z</time></trkpt><trkpt lat="40.6114416" lon="9.2736085"><ele>623.3333333333333</ele><time>2026-05-02T14:00:58.16Z</time></trkpt><trkpt lat="40.6116108" lon="9.273735"><ele>623.6666666666666</ele><time>2026-05-02T14:00:59.16Z</time></trkpt><trkpt lat="40.6117918" lon="9.2738686"><ele>624.0</ele><time>2026-05-02T14:01:00.161Z</time></trkpt><trkpt lat="40.6119757" lon="9.2740114"><ele>621.5</ele><time>2026-05-02T14:01:01.16Z</time></trkpt><trkpt lat="40.6121699" lon="9.2741577"><ele>619.0</ele><time>2026-05-02T14:01:02.161Z</time></trkpt><trkpt lat="40.6123781" lon="9.2743078"><ele>619.0</ele><time>2026-05-02T14:01:03.16Z</time></trkpt><trkpt lat="40.6125908" lon="9.2744578"><ele>619.0</ele><time>2026-05-02T14:01:04.161Z</time></trkpt><trkpt lat="40.612812" lon="9.2746217"><ele>620.5</ele><time>2026-05-02T14:01:05.16Z</time></trkpt><trkpt lat="40.6130331" lon="9.2747915"><ele>622.0</ele><time>2026-05-02T14:01:06.16Z</time></trkpt><trkpt lat="40.6132627" lon="9.2749563"><ele>622.0</ele><time>2026-05-02T14:01:07.161Z</time></trkpt><trkpt lat="40.6134965" lon="9.275126"><ele>622.0</ele><time>2026-05-02T14:01:08.16Z</time></trkpt><trkpt lat="40.6137242" lon="9.2752947"><ele>624.0</ele><time>2026-05-02T14:01:09.16Z</time></trkpt><trkpt lat="40.6139466" lon="9.2754519"><ele>626.0</ele><time>2026-05-02T14:01:10.161Z</time></trkpt><trkpt lat="40.6141642" lon="9.2755995"><ele>625.5</ele><time>2026-05-02T14:01:11.161Z</time></trkpt><trkpt lat="40.6143798" lon="9.2757279"><ele>625.0</ele><time>2026-05-02T14:01:12.161Z</time></trkpt><trkpt lat="40.614602" lon="9.275841"><ele>624.0</ele><time>2026-05-02T14:01:13.161Z</time></trkpt><trkpt lat="40.6148156" lon="9.2759309"><ele>623.0</ele><time>2026-05-02T14:01:14.16Z</time></trkpt><trkpt lat="40.6150337" lon="9.2760115"><ele>623.0</ele><time>2026-05-02T14:01:15.16Z</time></trkpt><trkpt lat="40.6152529" lon="9.2760919"><ele>623.0</ele><time>2026-05-02T14:01:16.161Z</time></trkpt><trkpt lat="40.6154714" lon="9.2761689"><ele>623.0</ele><time>2026-05-02T14:01:17.161Z</time></trkpt><trkpt lat="40.6156767" lon="9.2762435"><ele>623.0</ele><time>2026-05-02T14:01:18.16Z</time></trkpt><trkpt lat="40.6158858" lon="9.2763165"><ele>623.0</ele><time>2026-05-02T14:01:19.16Z</time></trkpt><trkpt lat="40.6160688" lon="9.2763909"><ele>623.0</ele><time>2026-05-02T14:01:20.161Z</time></trkpt><trkpt lat="40.6162407" lon="9.2764557"><ele>623.0</ele><time>2026-05-02T14:01:21.16Z</time></trkpt><trkpt lat="40.6164176" lon="9.2765166"><ele>623.0</ele><time>2026-05-02T14:01:22.161Z</time></trkpt><trkpt lat="40.6165876" lon="9.2765776"><ele>623.0</ele><time>2026-05-02T14:01:23.161Z</time></trkpt><trkpt lat="40.6167668" lon="9.2766393"><ele>623.0</ele><time>2026-05-02T14:01:24.161Z</time></trkpt><trkpt lat="40.6169446" lon="9.2767024"><ele>623.0</ele><time>2026-05-02T14:01:25.161Z</time></trkpt><trkpt lat="40.6171098" lon="9.2767687"><ele>624.0</ele><time>2026-05-02T14:01:26.16Z</time></trkpt><trkpt lat="40.617275" lon="9.2768294"><ele>625.0</ele><time>2026-05-02T14:01:27.161Z</time></trkpt><trkpt lat="40.6174343" lon="9.2768903"><ele>626.0</ele><time>2026-05-02T14:01:28.161Z</time></trkpt><trkpt lat="40.6175821" lon="9.2769667"><ele>626.0</ele><time>2026-05-02T14:01:29.161Z</time></trkpt><trkpt lat="40.6177122" lon="9.2770645"><ele>626.0</ele><time>2026-05-02T14:01:30.16Z</time></trkpt><trkpt lat="40.6178165" lon="9.2771913"><ele>626.0</ele><time>2026-05-02T14:01:31.161Z</time></trkpt><trkpt lat="40.6179082" lon="9.2773541"><ele>626.0</ele><time>2026-05-02T14:01:32.16Z</time></trkpt><trkpt lat="40.6180012" lon="9.2775368"><ele>626.3333333333333</ele><time>2026-05-02T14:01:33.161Z</time></trkpt><trkpt lat="40.6180816" lon="9.2777509"><ele>626.6666666666666</ele><time>2026-05-02T14:01:34.161Z</time></trkpt><trkpt lat="40.6181777" lon="9.2779751"><ele>627.0</ele><time>2026-05-02T14:01:35.161Z</time></trkpt><trkpt lat="40.6182814" lon="9.2782055"><ele>625.6666666666666</ele><time>2026-05-02T14:01:36.161Z</time></trkpt><trkpt lat="40.618382" lon="9.2784354"><ele>624.3333333333333</ele><time>2026-05-02T14:01:37.16Z</time></trkpt><trkpt lat="40.6184815" lon="9.2786593"><ele>623.0</ele><time>2026-05-02T14:01:38.161Z</time></trkpt><trkpt lat="40.6185786" lon="9.2788762"><ele>622.6666666666666</ele><time>2026-05-02T14:01:39.161Z</time></trkpt><trkpt lat="40.6186679" lon="9.2790855"><ele>622.3333333333334</ele><time>2026-05-02T14:01:40.161Z</time></trkpt><trkpt lat="40.6187446" lon="9.2792992"><ele>622.0</ele><time>2026-05-02T14:01:41.16Z</time></trkpt><trkpt lat="40.6188197" lon="9.2795199"><ele>622.0</ele><time>2026-05-02T14:01:42.16Z</time></trkpt><trkpt lat="40.6188852" lon="9.2797478"><ele>622.0</ele><time>2026-05-02T14:01:43.16Z</time></trkpt><trkpt lat="40.6189503" lon="9.2799858"><ele>622.0</ele><time>2026-05-02T14:01:44.16Z</time></trkpt><trkpt lat="40.619007" lon="9.2802374"><ele>623.6666666666667</ele><time>2026-05-02T14:01:45.161Z</time></trkpt><trkpt lat="40.6190702" lon="9.2804966"><ele>625.3333333333334</ele><time>2026-05-02T14:01:46.161Z</time></trkpt><trkpt lat="40.6191386" lon="9.2807612"><ele>627.0</ele><time>2026-05-02T14:01:47.161Z</time></trkpt><trkpt lat="40.6192102" lon="9.2810365"><ele>626.5</ele><time>2026-05-02T14:01:48.16Z</time></trkpt><trkpt lat="40.6192906" lon="9.2813226"><ele>626.0</ele><time>2026-05-02T14:01:49.161Z</time></trkpt><trkpt lat="40.6193592" lon="9.2816052"><ele>626.0</ele><time>2026-05-02T14:01:50.161Z</time></trkpt><trkpt lat="40.6194238" lon="9.2818759"><ele>626.0</ele><time>2026-05-02T14:01:51.16Z</time></trkpt><trkpt lat="40.6194829" lon="9.2821363"><ele>626.0</ele><time>2026-05-02T14:01:52.161Z</time></trkpt><trkpt lat="40.6195413" lon="9.2823975"><ele>626.6666666666666</ele><time>2026-05-02T14:01:53.16Z</time></trkpt><trkpt lat="40.6195949" lon="9.2826599"><ele>627.3333333333334</ele><time>2026-05-02T14:01:54.161Z</time></trkpt><trkpt lat="40.6196391" lon="9.2829291"><ele>628.0</ele><time>2026-05-02T14:01:55.16Z</time></trkpt><trkpt lat="40.6196793" lon="9.283199"><ele>628.0</ele><time>2026-05-02T14:01:56.161Z</time></trkpt><trkpt lat="40.6197176" lon="9.2834711"><ele>628.0</ele><time>2026-05-02T14:01:57.16Z</time></trkpt><trkpt lat="40.619754" lon="9.2837478"><ele>628.0</ele><time>2026-05-02T14:01:58.161Z</time></trkpt><trkpt lat="40.6197967" lon="9.284034"><ele>628.0</ele><time>2026-05-02T14:01:59.161Z</time></trkpt><trkpt lat="40.6198368" lon="9.2843174"><ele>628.0</ele><time>2026-05-02T14:02:00.16Z</time></trkpt><trkpt lat="40.6198751" lon="9.2846048"><ele>628.0</ele><time>2026-05-02T14:02:01.161Z</time></trkpt><trkpt lat="40.6199255" lon="9.2848923"><ele>628.0</ele><time>2026-05-02T14:02:02.16Z</time></trkpt><trkpt lat="40.6199652" lon="9.285174"><ele>628.0</ele><time>2026-05-02T14:02:03.161Z</time></trkpt><trkpt lat="40.6200004" lon="9.2854454"><ele>628.0</ele><time>2026-05-02T14:02:04.16Z</time></trkpt><trkpt lat="40.620039" lon="9.285703"><ele>628.3333333333334</ele><time>2026-05-02T14:02:05.161Z</time></trkpt><trkpt lat="40.6200932" lon="9.2859489"><ele>628.6666666666666</ele><time>2026-05-02T14:02:06.16Z</time></trkpt><trkpt lat="40.6201599" lon="9.2861934"><ele>629.0</ele><time>2026-05-02T14:02:07.16Z</time></trkpt><trkpt lat="40.6202468" lon="9.2864257"><ele>630.0</ele><time>2026-05-02T14:02:08.161Z</time></trkpt><trkpt lat="40.6203551" lon="9.2866515"><ele>631.0</ele><time>2026-05-02T14:02:09.161Z</time></trkpt><trkpt lat="40.6204716" lon="9.2868774"><ele>632.0</ele><time>2026-05-02T14:02:10.16Z</time></trkpt><trkpt lat="40.6205903" lon="9.2870931"><ele>631.6666666666666</ele><time>2026-05-02T14:02:11.161Z</time></trkpt><trkpt lat="40.6207072" lon="9.2873097"><ele>631.3333333333334</ele><time>2026-05-02T14:02:12.16Z</time></trkpt><trkpt lat="40.6208133" lon="9.2875047"><ele>631.0</ele><time>2026-05-02T14:02:13.161Z</time></trkpt><trkpt lat="40.6209069" lon="9.287684"><ele>631.0</ele><time>2026-05-02T14:02:14.16Z</time></trkpt><trkpt lat="40.620998" lon="9.287862"><ele>631.0</ele><time>2026-05-02T14:02:15.161Z</time></trkpt><trkpt lat="40.6210558" lon="9.2880586"><ele>631.0</ele><time>2026-05-02T14:02:16.16Z</time></trkpt><trkpt lat="40.6210923" lon="9.2882591"><ele>631.0</ele><time>2026-05-02T14:02:17.161Z</time></trkpt><trkpt lat="40.6211072" lon="9.2884756"><ele>631.0</ele><time>2026-05-02T14:02:18.161Z</time></trkpt><trkpt lat="40.6211077" lon="9.2887095"><ele>631.0</ele><time>2026-05-02T14:02:19.161Z</time></trkpt><trkpt lat="40.621104" lon="9.2889431"><ele>631.0</ele><time>2026-05-02T14:02:20.161Z</time></trkpt><trkpt lat="40.6211174" lon="9.289174"><ele>631.0</ele><time>2026-05-02T14:02:21.16Z</time></trkpt><trkpt lat="40.6211572" lon="9.2894008"><ele>631.0</ele><time>2026-05-02T14:02:22.16Z</time></trkpt><trkpt lat="40.621219" lon="9.2896112"><ele>631.6666666666667</ele><time>2026-05-02T14:02:23.161Z</time></trkpt><trkpt lat="40.6213087" lon="9.2898063"><ele>632.3333333333334</ele><time>2026-05-02T14:02:24.16Z</time></trkpt><trkpt lat="40.6214324" lon="9.2899791"><ele>633.0</ele><time>2026-05-02T14:02:25.161Z</time></trkpt><trkpt lat="40.6215774" lon="9.2901446"><ele>633.0</ele><time>2026-05-02T14:02:26.161Z</time></trkpt><trkpt lat="40.6217404" lon="9.2903131"><ele>633.0</ele><time>2026-05-02T14:02:27.16Z</time></trkpt><trkpt lat="40.621909" lon="9.290488"><ele>633.0</ele><time>2026-05-02T14:02:28.161Z</time></trkpt><trkpt lat="40.6220785" lon="9.2906701"><ele>633.3333333333334</ele><time>2026-05-02T14:02:29.161Z</time></trkpt><trkpt lat="40.6222508" lon="9.2908487"><ele>633.6666666666667</ele><time>2026-05-02T14:02:30.161Z</time></trkpt><trkpt lat="40.6224251" lon="9.2910348"><ele>634.0</ele><time>2026-05-02T14:02:31.16Z</time></trkpt><trkpt lat="40.6226064" lon="9.2912186"><ele>634.0</ele><time>2026-05-02T14:02:32.16Z</time></trkpt><trkpt lat="40.6227877" lon="9.2914145"><ele>634.0</ele><time>2026-05-02T14:02:33.16Z</time></trkpt><trkpt lat="40.6229722" lon="9.2916104"><ele>636.0</ele><time>2026-05-02T14:02:34.161Z</time></trkpt><trkpt lat="40.6231578" lon="9.2918082"><ele>638.0</ele><time>2026-05-02T14:02:35.16Z</time></trkpt><trkpt lat="40.6233432" lon="9.2920062"><ele>638.0</ele><time>2026-05-02T14:02:36.161Z</time></trkpt><trkpt lat="40.623532" lon="9.2922005"><ele>638.0</ele><time>2026-05-02T14:02:37.161Z</time></trkpt><trkpt lat="40.6237054" lon="9.2923845"><ele>639.3333333333333</ele><time>2026-05-02T14:02:38.16Z</time></trkpt><trkpt lat="40.6238625" lon="9.2925501"><ele>640.6666666666666</ele><time>2026-05-02T14:02:39.16Z</time></trkpt><trkpt lat="40.6240102" lon="9.2927141"><ele>642.0</ele><time>2026-05-02T14:02:40.161Z</time></trkpt><trkpt lat="40.6241347" lon="9.2928796"><ele>642.0</ele><time>2026-05-02T14:02:41.16Z</time></trkpt><trkpt lat="40.6242413" lon="9.2930662"><ele>642.0</ele><time>2026-05-02T14:02:42.16Z</time></trkpt><trkpt lat="40.6243297" lon="9.2932811"><ele>642.0</ele><time>2026-05-02T14:02:43.16Z</time></trkpt><trkpt lat="40.6244089" lon="9.293522"><ele>642.3333333333334</ele><time>2026-05-02T14:02:44.161Z</time></trkpt><trkpt lat="40.6244853" lon="9.2937667"><ele>642.6666666666667</ele><time>2026-05-02T14:02:45.16Z</time></trkpt><trkpt lat="40.6245675" lon="9.2940254"><ele>643.0</ele><time>2026-05-02T14:02:46.16Z</time></trkpt><trkpt lat="40.624656" lon="9.2942838"><ele>643.6666666666667</ele><time>2026-05-02T14:02:47.16Z</time></trkpt><trkpt lat="40.6247508" lon="9.2945452"><ele>644.3333333333334</ele><time>2026-05-02T14:02:48.161Z</time></trkpt><trkpt lat="40.6248672" lon="9.2947968"><ele>645.0</ele><time>2026-05-02T14:02:49.16Z</time></trkpt><trkpt lat="40.6249989" lon="9.2950448"><ele>645.0</ele><time>2026-05-02T14:02:50.161Z</time></trkpt><trkpt lat="40.6251326" lon="9.2952792"><ele>645.0</ele><time>2026-05-02T14:02:51.161Z</time></trkpt><trkpt lat="40.6252606" lon="9.2954971"><ele>645.0</ele><time>2026-05-02T14:02:52.16Z</time></trkpt><trkpt lat="40.6253949" lon="9.2956831"><ele>646.0</ele><time>2026-05-02T14:02:53.16Z</time></trkpt><trkpt lat="40.6255311" lon="9.2958404"><ele>647.0</ele><time>2026-05-02T14:02:54.161Z</time></trkpt><trkpt lat="40.6256856" lon="9.2959735"><ele>648.0</ele><time>2026-05-02T14:02:55.161Z</time></trkpt><trkpt lat="40.6258512" lon="9.2960972"><ele>648.0</ele><time>2026-05-02T14:02:56.16Z</time></trkpt><trkpt lat="40.626025" lon="9.2962165"><ele>648.0</ele><time>2026-05-02T14:02:57.16Z</time></trkpt><trkpt lat="40.6262043" lon="9.296335"><ele>648.0</ele><time>2026-05-02T14:02:58.161Z</time></trkpt><trkpt lat="40.6263824" lon="9.2964533"><ele>647.0</ele><time>2026-05-02T14:02:59.16Z</time></trkpt><trkpt lat="40.6265568" lon="9.2965775"><ele>646.0</ele><time>2026-05-02T14:03:00.161Z</time></trkpt><trkpt lat="40.6267255" lon="9.2967182"><ele>645.0</ele><time>2026-05-02T14:03:01.16Z</time></trkpt><trkpt lat="40.6268868" lon="9.2968755"><ele>645.0</ele><time>2026-05-02T14:03:02.161Z</time></trkpt><trkpt lat="40.6270437" lon="9.2970471"><ele>645.0</ele><time>2026-05-02T14:03:03.16Z</time></trkpt><trkpt lat="40.6272005" lon="9.2972335"><ele>645.0</ele><time>2026-05-02T14:03:04.161Z</time></trkpt><trkpt lat="40.6273559" lon="9.297426"><ele>644.6666666666666</ele><time>2026-05-02T14:03:05.16Z</time></trkpt><trkpt lat="40.6275152" lon="9.297614"><ele>644.3333333333333</ele><time>2026-05-02T14:03:06.16Z</time></trkpt><trkpt lat="40.6276763" lon="9.2978077"><ele>644.0</ele><time>2026-05-02T14:03:07.16Z</time></trkpt><trkpt lat="40.6278365" lon="9.2980044"><ele>644.3333333333333</ele><time>2026-05-02T14:03:08.16Z</time></trkpt><trkpt lat="40.6279905" lon="9.2981979"><ele>644.6666666666666</ele><time>2026-05-02T14:03:09.161Z</time></trkpt><trkpt lat="40.628152" lon="9.2983933"><ele>645.0</ele><time>2026-05-02T14:03:10.161Z</time></trkpt><trkpt lat="40.6283168" lon="9.2985912"><ele>645.0</ele><time>2026-05-02T14:03:11.161Z</time></trkpt><trkpt lat="40.6284825" lon="9.2987904"><ele>645.0</ele><time>2026-05-02T14:03:12.16Z</time></trkpt><trkpt lat="40.6286446" lon="9.2989854"><ele>645.0</ele><time>2026-05-02T14:03:13.16Z</time></trkpt><trkpt lat="40.6288065" lon="9.2991834"><ele>645.6666666666666</ele><time>2026-05-02T14:03:14.161Z</time></trkpt><trkpt lat="40.6289553" lon="9.2993576"><ele>646.3333333333333</ele><time>2026-05-02T14:03:15.161Z</time></trkpt><trkpt lat="40.6290933" lon="9.2995213"><ele>647.0</ele><time>2026-05-02T14:03:16.161Z</time></trkpt><trkpt lat="40.629231" lon="9.2996565"><ele>646.0</ele><time>2026-05-02T14:03:17.161Z</time></trkpt><trkpt lat="40.6293761" lon="9.2997595"><ele>645.0</ele><time>2026-05-02T14:03:18.161Z</time></trkpt><trkpt lat="40.6295289" lon="9.2998536"><ele>644.0</ele><time>2026-05-02T14:03:19.161Z</time></trkpt><trkpt lat="40.6296887" lon="9.2999168"><ele>643.6666666666666</ele><time>2026-05-02T14:03:20.161Z</time></trkpt><trkpt lat="40.6298495" lon="9.2999849"><ele>643.3333333333334</ele><time>2026-05-02T14:03:21.16Z</time></trkpt><trkpt lat="40.6299966" lon="9.3000766"><ele>643.0</ele><time>2026-05-02T14:03:22.16Z</time></trkpt><trkpt lat="40.6301449" lon="9.3001987"><ele>643.0</ele><time>2026-05-02T14:03:23.161Z</time></trkpt><trkpt lat="40.6302731" lon="9.3003501"><ele>643.0</ele><time>2026-05-02T14:03:24.161Z</time></trkpt><trkpt lat="40.6303914" lon="9.3005309"><ele>643.0</ele><time>2026-05-02T14:03:25.16Z</time></trkpt><trkpt lat="40.6305188" lon="9.3007282"><ele>642.0</ele><time>2026-05-02T14:03:26.16Z</time></trkpt><trkpt lat="40.6306438" lon="9.3009364"><ele>641.0</ele><time>2026-05-02T14:03:27.161Z</time></trkpt><trkpt lat="40.6307752" lon="9.3011574"><ele>640.0</ele><time>2026-05-02T14:03:28.161Z</time></trkpt><trkpt lat="40.6309126" lon="9.3013818"><ele>639.6666666666667</ele><time>2026-05-02T14:03:29.161Z</time></trkpt><trkpt lat="40.6310509" lon="9.3016105"><ele>639.3333333333334</ele><time>2026-05-02T14:03:30.16Z</time></trkpt><trkpt lat="40.6311866" lon="9.3018466"><ele>639.0</ele><time>2026-05-02T14:03:31.16Z</time></trkpt><trkpt lat="40.6313218" lon="9.3020925"><ele>640.5</ele><time>2026-05-02T14:03:32.161Z</time></trkpt><trkpt lat="40.6314519" lon="9.3023392"><ele>642.0</ele><time>2026-05-02T14:03:33.16Z</time></trkpt><trkpt lat="40.6315835" lon="9.3026017"><ele>642.0</ele><time>2026-05-02T14:03:34.16Z</time></trkpt><trkpt lat="40.6317184" lon="9.3028676"><ele>642.0</ele><time>2026-05-02T14:03:35.16Z</time></trkpt><trkpt lat="40.6318551" lon="9.3031386"><ele>641.0</ele><time>2026-05-02T14:03:36.16Z</time></trkpt><trkpt lat="40.6319831" lon="9.3034008"><ele>640.0</ele><time>2026-05-02T14:03:37.161Z</time></trkpt><trkpt lat="40.6321091" lon="9.3036515"><ele>640.0</ele><time>2026-05-02T14:03:38.16Z</time></trkpt><trkpt lat="40.6322298" lon="9.3038905"><ele>640.0</ele><time>2026-05-02T14:03:39.161Z</time></trkpt><trkpt lat="40.6323427" lon="9.3041094"><ele>640.0</ele><time>2026-05-02T14:03:40.161Z</time></trkpt><trkpt lat="40.6324624" lon="9.3043058"><ele>640.6666666666667</ele><time>2026-05-02T14:03:41.161Z</time></trkpt><trkpt lat="40.6325956" lon="9.3044778"><ele>641.3333333333334</ele><time>2026-05-02T14:03:42.16Z</time></trkpt><trkpt lat="40.6327412" lon="9.3046306"><ele>642.0</ele><time>2026-05-02T14:03:43.161Z</time></trkpt><trkpt lat="40.6329077" lon="9.3047696"><ele>642.0</ele><time>2026-05-02T14:03:44.16Z</time></trkpt><trkpt lat="40.6330768" lon="9.3048992"><ele>642.0</ele><time>2026-05-02T14:03:45.161Z</time></trkpt><trkpt lat="40.6332638" lon="9.3050352"><ele>642.0</ele><time>2026-05-02T14:03:46.16Z</time></trkpt><trkpt lat="40.6334533" lon="9.3051792"><ele>642.0</ele><time>2026-05-02T14:03:47.16Z</time></trkpt><trkpt lat="40.6336406" lon="9.3053274"><ele>642.0</ele><time>2026-05-02T14:03:48.161Z</time></trkpt><trkpt lat="40.6338272" lon="9.3054752"><ele>642.0</ele><time>2026-05-02T14:03:49.161Z</time></trkpt><trkpt lat="40.6340202" lon="9.3056219"><ele>642.0</ele><time>2026-05-02T14:03:50.161Z</time></trkpt><trkpt lat="40.6342134" lon="9.3057731"><ele>642.0</ele><time>2026-05-02T14:03:51.161Z</time></trkpt><trkpt lat="40.6344117" lon="9.3059182"><ele>642.5</ele><time>2026-05-02T14:03:52.16Z</time></trkpt><trkpt lat="40.6346147" lon="9.306068"><ele>643.0</ele><time>2026-05-02T14:03:53.161Z</time></trkpt><trkpt lat="40.6348092" lon="9.3062196"><ele>643.0</ele><time>2026-05-02T14:03:54.161Z</time></trkpt><trkpt lat="40.6349975" lon="9.3063683"><ele>643.0</ele><time>2026-05-02T14:03:55.16Z</time></trkpt><trkpt lat="40.635189" lon="9.306511"><ele>643.0</ele><time>2026-05-02T14:03:56.161Z</time></trkpt><trkpt lat="40.6353831" lon="9.3066524"><ele>643.6666666666667</ele><time>2026-05-02T14:03:57.161Z</time></trkpt><trkpt lat="40.6355708" lon="9.3067917"><ele>644.3333333333334</ele><time>2026-05-02T14:03:58.16Z</time></trkpt><trkpt lat="40.6357567" lon="9.3069309"><ele>645.0</ele><time>2026-05-02T14:03:59.161Z</time></trkpt><trkpt lat="40.6359527" lon="9.3070616"><ele>645.3333333333334</ele><time>2026-05-02T14:04:00.161Z</time></trkpt><trkpt lat="40.6361389" lon="9.3071804"><ele>645.6666666666667</ele><time>2026-05-02T14:04:01.16Z</time></trkpt><trkpt lat="40.6363431" lon="9.3073013"><ele>646.0</ele><time>2026-05-02T14:04:02.16Z</time></trkpt><trkpt lat="40.6365363" lon="9.3074184"><ele>646.6666666666667</ele><time>2026-05-02T14:04:03.16Z</time></trkpt><trkpt lat="40.6367156" lon="9.3075376"><ele>647.3333333333334</ele><time>2026-05-02T14:04:04.16Z</time></trkpt><trkpt lat="40.636893" lon="9.3076598"><ele>648.0</ele><time>2026-05-02T14:04:05.161Z</time></trkpt><trkpt lat="40.6370731" lon="9.3077828"><ele>648.0</ele><time>2026-05-02T14:04:06.16Z</time></trkpt><trkpt lat="40.6372584" lon="9.3079136"><ele>648.0</ele><time>2026-05-02T14:04:07.16Z</time></trkpt><trkpt lat="40.6374464" lon="9.3080548"><ele>648.0</ele><time>2026-05-02T14:04:08.16Z</time></trkpt><trkpt lat="40.6376187" lon="9.3081896"><ele>648.3333333333334</ele><time>2026-05-02T14:04:09.161Z</time></trkpt><trkpt lat="40.6377773" lon="9.3083224"><ele>648.6666666666667</ele><time>2026-05-02T14:04:10.16Z</time></trkpt><trkpt lat="40.6379288" lon="9.3084373"><ele>649.0</ele><time>2026-05-02T14:04:11.161Z</time></trkpt><trkpt lat="40.6380752" lon="9.3085353"><ele>650.0</ele><time>2026-05-02T14:04:12.161Z</time></trkpt><trkpt lat="40.6382146" lon="9.3086093"><ele>651.0</ele><time>2026-05-02T14:04:13.16Z</time></trkpt><trkpt lat="40.6383573" lon="9.3086534"><ele>652.0</ele><time>2026-05-02T14:04:14.161Z</time></trkpt><trkpt lat="40.6385111" lon="9.3086622"><ele>652.25</ele><time>2026-05-02T14:04:15.16Z</time></trkpt><trkpt lat="40.6386617" lon="9.3086527"><ele>652.5</ele><time>2026-05-02T14:04:16.16Z</time></trkpt><trkpt lat="40.6388087" lon="9.3086569"><ele>652.75</ele><time>2026-05-02T14:04:17.161Z</time></trkpt><trkpt lat="40.6389504" lon="9.3086963"><ele>653.0</ele><time>2026-05-02T14:04:18.161Z</time></trkpt><trkpt lat="40.6390936" lon="9.3087696"><ele>653.0</ele><time>2026-05-02T14:04:19.16Z</time></trkpt><trkpt lat="40.6392404" lon="9.3088722"><ele>653.0</ele><time>2026-05-02T14:04:20.16Z</time></trkpt><trkpt lat="40.6393911" lon="9.3090025"><ele>653.0</ele><time>2026-05-02T14:04:21.16Z</time></trkpt><trkpt lat="40.6395507" lon="9.3091395"><ele>655.6666666666666</ele><time>2026-05-02T14:04:22.161Z</time></trkpt><trkpt lat="40.6397207" lon="9.3092849"><ele>658.3333333333334</ele><time>2026-05-02T14:04:23.161Z</time></trkpt><trkpt lat="40.6398916" lon="9.3094312"><ele>661.0</ele><time>2026-05-02T14:04:24.161Z</time></trkpt><trkpt lat="40.6400503" lon="9.3095938"><ele>661.6666666666667</ele><time>2026-05-02T14:04:25.16Z</time></trkpt><trkpt lat="40.6402084" lon="9.3097649"><ele>662.3333333333334</ele><time>2026-05-02T14:04:26.16Z</time></trkpt><trkpt lat="40.6403659" lon="9.3099436"><ele>663.0</ele><time>2026-05-02T14:04:27.161Z</time></trkpt><trkpt lat="40.6405202" lon="9.3101307"><ele>663.0</ele><time>2026-05-02T14:04:28.161Z</time></trkpt><trkpt lat="40.6406777" lon="9.3103197"><ele>663.0</ele><time>2026-05-02T14:04:29.161Z</time></trkpt><trkpt lat="40.6408355" lon="9.3105154"><ele>663.0</ele><time>2026-05-02T14:04:30.16Z</time></trkpt><trkpt lat="40.6409966" lon="9.3107045"><ele>662.0</ele><time>2026-05-02T14:04:31.16Z</time></trkpt><trkpt lat="40.6411582" lon="9.3108996"><ele>661.0</ele><time>2026-05-02T14:04:32.161Z</time></trkpt><trkpt lat="40.641315" lon="9.3110841"><ele>660.0</ele><time>2026-05-02T14:04:33.16Z</time></trkpt><trkpt lat="40.6414755" lon="9.3112714"><ele>659.6666666666666</ele><time>2026-05-02T14:04:34.161Z</time></trkpt><trkpt lat="40.6416319" lon="9.3114603"><ele>659.3333333333333</ele><time>2026-05-02T14:04:35.161Z</time></trkpt><trkpt lat="40.6417893" lon="9.3116542"><ele>659.0</ele><time>2026-05-02T14:04:36.16Z</time></trkpt><trkpt lat="40.6419499" lon="9.3118509"><ele>658.6666666666666</ele><time>2026-05-02T14:04:37.16Z</time></trkpt><trkpt lat="40.6421102" lon="9.3120476"><ele>658.3333333333334</ele><time>2026-05-02T14:04:38.16Z</time></trkpt><trkpt lat="40.6422751" lon="9.3122449"><ele>658.0</ele><time>2026-05-02T14:04:39.161Z</time></trkpt><trkpt lat="40.6424439" lon="9.3124488"><ele>658.0</ele><time>2026-05-02T14:04:40.16Z</time></trkpt><trkpt lat="40.6426092" lon="9.3126505"><ele>658.0</ele><time>2026-05-02T14:04:41.16Z</time></trkpt><trkpt lat="40.6427743" lon="9.3128464"><ele>658.0</ele><time>2026-05-02T14:04:42.16Z</time></trkpt><trkpt lat="40.6429263" lon="9.3130374"><ele>658.0</ele><time>2026-05-02T14:04:43.161Z</time></trkpt><trkpt lat="40.6430766" lon="9.3132276"><ele>658.0</ele><time>2026-05-02T14:04:44.16Z</time></trkpt><trkpt lat="40.6432167" lon="9.3134131"><ele>658.0</ele><time>2026-05-02T14:04:45.161Z</time></trkpt><trkpt lat="40.6433539" lon="9.3136028"><ele>658.0</ele><time>2026-05-02T14:04:46.16Z</time></trkpt><trkpt lat="40.6434736" lon="9.3138013"><ele>658.0</ele><time>2026-05-02T14:04:47.16Z</time></trkpt><trkpt lat="40.6435958" lon="9.3140105"><ele>658.0</ele><time>2026-05-02T14:04:48.161Z</time></trkpt><trkpt lat="40.6437153" lon="9.3142196"><ele>658.3333333333334</ele><time>2026-05-02T14:04:49.16Z</time></trkpt><trkpt lat="40.6438332" lon="9.3144288"><ele>658.6666666666666</ele><time>2026-05-02T14:04:50.16Z</time></trkpt><trkpt lat="40.643955" lon="9.3146408"><ele>659.0</ele><time>2026-05-02T14:04:51.161Z</time></trkpt><trkpt lat="40.644083" lon="9.3148555"><ele>659.0</ele><time>2026-05-02T14:04:52.16Z</time></trkpt><trkpt lat="40.6442035" lon="9.3150719"><ele>659.0</ele><time>2026-05-02T14:04:53.16Z</time></trkpt><trkpt lat="40.644332" lon="9.3152929"><ele>659.0</ele><time>2026-05-02T14:04:54.161Z</time></trkpt><trkpt lat="40.644456" lon="9.3155173"><ele>657.6666666666666</ele><time>2026-05-02T14:04:55.161Z</time></trkpt><trkpt lat="40.6445781" lon="9.3157291"><ele>656.3333333333334</ele><time>2026-05-02T14:04:56.161Z</time></trkpt><trkpt lat="40.644697" lon="9.3159276"><ele>655.0</ele><time>2026-05-02T14:04:57.161Z</time></trkpt><trkpt lat="40.6448077" lon="9.3161157"><ele>655.0</ele><time>2026-05-02T14:04:58.161Z</time></trkpt><trkpt lat="40.6449075" lon="9.3163102"><ele>655.0</ele><time>2026-05-02T14:04:59.16Z</time></trkpt><trkpt lat="40.6450006" lon="9.3165054"><ele>655.0</ele><time>2026-05-02T14:05:00.161Z</time></trkpt><trkpt lat="40.6450694" lon="9.3167276"><ele>655.3333333333334</ele><time>2026-05-02T14:05:01.16Z</time></trkpt><trkpt lat="40.6451325" lon="9.3169631"><ele>655.6666666666666</ele><time>2026-05-02T14:05:02.16Z</time></trkpt><trkpt lat="40.64519" lon="9.3172185"><ele>656.0</ele><time>2026-05-02T14:05:03.161Z</time></trkpt><trkpt lat="40.645242" lon="9.3174894"><ele>656.0</ele><time>2026-05-02T14:05:04.16Z</time></trkpt><trkpt lat="40.6452993" lon="9.3177581"><ele>656.0</ele><time>2026-05-02T14:05:05.16Z</time></trkpt><trkpt lat="40.6453429" lon="9.318024"><ele>656.0</ele><time>2026-05-02T14:05:06.16Z</time></trkpt><trkpt lat="40.6453777" lon="9.3182938"><ele>656.0</ele><time>2026-05-02T14:05:07.161Z</time></trkpt><trkpt lat="40.6454006" lon="9.3185595"><ele>656.0</ele><time>2026-05-02T14:05:08.161Z</time></trkpt><trkpt lat="40.6454106" lon="9.3188261"><ele>656.0</ele><time>2026-05-02T14:05:09.161Z</time></trkpt><trkpt lat="40.6454089" lon="9.3190939"><ele>656.6666666666666</ele><time>2026-05-02T14:05:10.16Z</time></trkpt><trkpt lat="40.6453833" lon="9.3193695"><ele>657.3333333333334</ele><time>2026-05-02T14:05:11.161Z</time></trkpt><trkpt lat="40.6453466" lon="9.3196403"><ele>658.0</ele><time>2026-05-02T14:05:12.16Z</time></trkpt><trkpt lat="40.6453065" lon="9.3199128"><ele>659.0</ele><time>2026-05-02T14:05:13.161Z</time></trkpt><trkpt lat="40.645269" lon="9.3201888"><ele>660.0</ele><time>2026-05-02T14:05:14.161Z</time></trkpt><trkpt lat="40.6452362" lon="9.320463"><ele>661.0</ele><time>2026-05-02T14:05:15.16Z</time></trkpt><trkpt lat="40.6452154" lon="9.3207415"><ele>661.0</ele><time>2026-05-02T14:05:16.161Z</time></trkpt><trkpt lat="40.6452053" lon="9.3210238"><ele>661.0</ele><time>2026-05-02T14:05:17.161Z</time></trkpt><trkpt lat="40.6451992" lon="9.3213084"><ele>661.0</ele><time>2026-05-02T14:05:18.161Z</time></trkpt><trkpt lat="40.6451988" lon="9.3215926"><ele>661.0</ele><time>2026-05-02T14:05:19.161Z</time></trkpt><trkpt lat="40.6451905" lon="9.3218799"><ele>661.0</ele><time>2026-05-02T14:05:20.16Z</time></trkpt><trkpt lat="40.6451913" lon="9.3221519"><ele>661.0</ele><time>2026-05-02T14:05:21.16Z</time></trkpt><trkpt lat="40.6451906" lon="9.3224199"><ele>661.6666666666667</ele><time>2026-05-02T14:05:22.16Z</time></trkpt><trkpt lat="40.6451906" lon="9.322688"><ele>662.3333333333334</ele><time>2026-05-02T14:05:23.161Z</time></trkpt><trkpt lat="40.6451962" lon="9.3229471"><ele>663.0</ele><time>2026-05-02T14:05:24.161Z</time></trkpt><trkpt lat="40.6452205" lon="9.3231987"><ele>663.3333333333334</ele><time>2026-05-02T14:05:25.161Z</time></trkpt><trkpt lat="40.6452667" lon="9.3234245"><ele>663.6666666666667</ele><time>2026-05-02T14:05:26.161Z</time></trkpt><trkpt lat="40.6453371" lon="9.3236204"><ele>664.0</ele><time>2026-05-02T14:05:27.161Z</time></trkpt><trkpt lat="40.6454386" lon="9.3237929"><ele>663.0</ele><time>2026-05-02T14:05:28.16Z</time></trkpt><trkpt lat="40.6455659" lon="9.3239295"><ele>662.0</ele><time>2026-05-02T14:05:29.16Z</time></trkpt><trkpt lat="40.6457069" lon="9.3240585"><ele>661.0</ele><time>2026-05-02T14:05:30.161Z</time></trkpt><trkpt lat="40.645857" lon="9.3241809"><ele>661.0</ele><time>2026-05-02T14:05:31.16Z</time></trkpt><trkpt lat="40.6460022" lon="9.3242965"><ele>661.0</ele><time>2026-05-02T14:05:32.16Z</time></trkpt><trkpt lat="40.6461372" lon="9.3244081"><ele>661.0</ele><time>2026-05-02T14:05:33.16Z</time></trkpt><trkpt lat="40.6462545" lon="9.3244988"><ele>661.4</ele><time>2026-05-02T14:05:34.161Z</time></trkpt><trkpt lat="40.6463558" lon="9.3245832"><ele>661.8</ele><time>2026-05-02T14:05:35.16Z</time></trkpt><trkpt lat="40.6464501" lon="9.3246577"><ele>662.1999999999999</ele><time>2026-05-02T14:05:36.16Z</time></trkpt><trkpt lat="40.6465307" lon="9.324727"><ele>662.5999999999999</ele><time>2026-05-02T14:05:37.161Z</time></trkpt><trkpt lat="40.6466086" lon="9.324788"><ele>663.0</ele><time>2026-05-02T14:05:38.16Z</time></trkpt><trkpt lat="40.6466829" lon="9.3248421"><ele>663.3333333333334</ele><time>2026-05-02T14:05:39.16Z</time></trkpt><trkpt lat="40.6467502" lon="9.3248911"><ele>663.6666666666666</ele><time>2026-05-02T14:05:40.16Z</time></trkpt><trkpt lat="40.6468115" lon="9.324939"><ele>664.0</ele><time>2026-05-02T14:05:41.16Z</time></trkpt><trkpt lat="40.6468785" lon="9.3249895"><ele>664.3333333333333</ele><time>2026-05-02T14:05:42.16Z</time></trkpt><trkpt lat="40.6469578" lon="9.3250493"><ele>664.6666666666666</ele><time>2026-05-02T14:05:43.161Z</time></trkpt><trkpt lat="40.647043" lon="9.3251108"><ele>665.0</ele><time>2026-05-02T14:05:44.16Z</time></trkpt><trkpt lat="40.6471302" lon="9.3251692"><ele>665.25</ele><time>2026-05-02T14:05:45.16Z</time></trkpt><trkpt lat="40.6472242" lon="9.3252333"><ele>665.5</ele><time>2026-05-02T14:05:46.161Z</time></trkpt><trkpt lat="40.6473325" lon="9.3252997"><ele>665.75</ele><time>2026-05-02T14:05:47.16Z</time></trkpt><trkpt lat="40.6474417" lon="9.325359"><ele>666.0</ele><time>2026-05-02T14:05:48.161Z</time></trkpt><trkpt lat="40.647543" lon="9.3254152"><ele>666.0</ele><time>2026-05-02T14:05:49.16Z</time></trkpt><trkpt lat="40.6476348" lon="9.3254624"><ele>666.0</ele><time>2026-05-02T14:05:50.16Z</time></trkpt><trkpt lat="40.6477274" lon="9.3254943"><ele>666.0</ele><time>2026-05-02T14:05:51.16Z</time></trkpt><trkpt lat="40.6478098" lon="9.3255328"><ele>666.0</ele><time>2026-05-02T14:05:52.161Z</time></trkpt><trkpt lat="40.6478921" lon="9.3255688"><ele>666.0</ele><time>2026-05-02T14:05:53.16Z</time></trkpt><trkpt lat="40.6479745" lon="9.3256038"><ele>665.5999999999999</ele><time>2026-05-02T14:05:54.16Z</time></trkpt><trkpt lat="40.6480649" lon="9.3256457"><ele>665.2</ele><time>2026-05-02T14:05:55.16Z</time></trkpt><trkpt lat="40.64815" lon="9.3256848"><ele>664.8</ele><time>2026-05-02T14:05:56.16Z</time></trkpt><trkpt lat="40.6482346" lon="9.3257211"><ele>664.4000000000001</ele><time>2026-05-02T14:05:57.161Z</time></trkpt><trkpt lat="40.6483187" lon="9.3257651"><ele>664.0</ele><time>2026-05-02T14:05:58.161Z</time></trkpt><trkpt lat="40.6484065" lon="9.3258171"><ele>664.0</ele><time>2026-05-02T14:05:59.16Z</time></trkpt><trkpt lat="40.6485061" lon="9.3258835"><ele>664.0</ele><time>2026-05-02T14:06:00.161Z</time></trkpt><trkpt lat="40.6486116" lon="9.325971"><ele>664.0</ele><time>2026-05-02T14:06:01.161Z</time></trkpt><trkpt lat="40.6487182" lon="9.3260822"><ele>664.0</ele><time>2026-05-02T14:06:02.16Z</time></trkpt><trkpt lat="40.6488291" lon="9.3262132"><ele>664.25</ele><time>2026-05-02T14:06:03.16Z</time></trkpt><trkpt lat="40.6489345" lon="9.3263516"><ele>664.5</ele><time>2026-05-02T14:06:04.161Z</time></trkpt><trkpt lat="40.6490341" lon="9.3264872"><ele>664.75</ele><time>2026-05-02T14:06:05.161Z</time></trkpt><trkpt lat="40.6491125" lon="9.3266003"><ele>665.0</ele><time>2026-05-02T14:06:06.16Z</time></trkpt><trkpt lat="40.64919" lon="9.3267064"><ele>665.0</ele><time>2026-05-02T14:06:07.161Z</time></trkpt><trkpt lat="40.6492578" lon="9.3268062"><ele>665.0</ele><time>2026-05-02T14:06:08.161Z</time></trkpt><trkpt lat="40.6493194" lon="9.326893"><ele>665.0</ele><time>2026-05-02T14:06:09.16Z</time></trkpt><trkpt lat="40.6493799" lon="9.3269689"><ele>665.0</ele><time>2026-05-02T14:06:10.161Z</time></trkpt><trkpt lat="40.6494313" lon="9.3270423"><ele>665.0</ele><time>2026-05-02T14:06:11.16Z</time></trkpt><trkpt lat="40.6494843" lon="9.3271141"><ele>665.0</ele><time>2026-05-02T14:06:12.161Z</time></trkpt><trkpt lat="40.6495375" lon="9.327188"><ele>664.6666666666666</ele><time>2026-05-02T14:06:13.16Z</time></trkpt><trkpt lat="40.6496046" lon="9.3272687"><ele>664.3333333333333</ele><time>2026-05-02T14:06:14.16Z</time></trkpt><trkpt lat="40.6496607" lon="9.3273426"><ele>664.0</ele><time>2026-05-02T14:06:15.16Z</time></trkpt><trkpt lat="40.6497121" lon="9.3274174"><ele>663.6666666666666</ele><time>2026-05-02T14:06:16.161Z</time></trkpt><trkpt lat="40.6497602" lon="9.3274872"><ele>663.3333333333334</ele><time>2026-05-02T14:06:17.16Z</time></trkpt><trkpt lat="40.6498112" lon="9.3275527"><ele>663.0</ele><time>2026-05-02T14:06:18.16Z</time></trkpt><trkpt lat="40.6498588" lon="9.3276112"><ele>662.9999999999999</ele><time>2026-05-02T14:06:19.161Z</time></trkpt><trkpt lat="40.6499059" lon="9.3276708"><ele>663.0</ele><time>2026-05-02T14:06:20.16Z</time></trkpt><trkpt lat="40.6499487" lon="9.3277334"><ele>663.0</ele><time>2026-05-02T14:06:21.161Z</time></trkpt><trkpt lat="40.6499902" lon="9.3277974"><ele>663.0</ele><time>2026-05-02T14:06:22.161Z</time></trkpt><trkpt lat="40.6500327" lon="9.3278725"><ele>663.0</ele><time>2026-05-02T14:06:23.16Z</time></trkpt><trkpt lat="40.6500764" lon="9.3279386"><ele>662.9999999999999</ele><time>2026-05-02T14:06:24.16Z</time></trkpt><trkpt lat="40.6501123" lon="9.328013"><ele>663.0</ele><time>2026-05-02T14:06:25.16Z</time></trkpt><trkpt lat="40.6501512" lon="9.3281073"><ele>663.0</ele><time>2026-05-02T14:06:26.16Z</time></trkpt><trkpt lat="40.6501986" lon="9.3282042"><ele>663.0</ele><time>2026-05-02T14:06:27.16Z</time></trkpt><trkpt lat="40.6502461" lon="9.3283034"><ele>663.0</ele><time>2026-05-02T14:06:28.161Z</time></trkpt><trkpt lat="40.6502968" lon="9.3284124"><ele>663.0</ele><time>2026-05-02T14:06:29.161Z</time></trkpt><trkpt lat="40.650346" lon="9.3285237"><ele>663.0</ele><time>2026-05-02T14:06:30.16Z</time></trkpt><trkpt lat="40.6503993" lon="9.3286409"><ele>664.0</ele><time>2026-05-02T14:06:31.16Z</time></trkpt><trkpt lat="40.6504565" lon="9.3287589"><ele>665.0</ele><time>2026-05-02T14:06:32.161Z</time></trkpt><trkpt lat="40.6505164" lon="9.3288817"><ele>666.0</ele><time>2026-05-02T14:06:33.16Z</time></trkpt><trkpt lat="40.6505704" lon="9.3290125"><ele>667.0</ele><time>2026-05-02T14:06:34.161Z</time></trkpt><trkpt lat="40.6506319" lon="9.3291468"><ele>668.0</ele><time>2026-05-02T14:06:35.161Z</time></trkpt><trkpt lat="40.6506993" lon="9.3292893"><ele>668.0</ele><time>2026-05-02T14:06:36.16Z</time></trkpt><trkpt lat="40.6507698" lon="9.3294308"><ele>668.0</ele><time>2026-05-02T14:06:37.16Z</time></trkpt><trkpt lat="40.6508402" lon="9.3295834"><ele>668.0</ele><time>2026-05-02T14:06:38.16Z</time></trkpt><trkpt lat="40.6509089" lon="9.3297176"><ele>668.0</ele><time>2026-05-02T14:06:39.16Z</time></trkpt><trkpt lat="40.6509659" lon="9.329851"><ele>668.0</ele><time>2026-05-02T14:06:40.16Z</time></trkpt><trkpt lat="40.6510232" lon="9.3299994"><ele>668.0</ele><time>2026-05-02T14:06:41.161Z</time></trkpt><trkpt lat="40.6510627" lon="9.3301407"><ele>668.0</ele><time>2026-05-02T14:06:42.161Z</time></trkpt><trkpt lat="40.651085" lon="9.3302955"><ele>668.0</ele><time>2026-05-02T14:06:43.16Z</time></trkpt><trkpt lat="40.6510932" lon="9.330459"><ele>667.0</ele><time>2026-05-02T14:06:44.16Z</time></trkpt><trkpt lat="40.6510869" lon="9.3306226"><ele>666.0</ele><time>2026-05-02T14:06:45.16Z</time></trkpt><trkpt lat="40.6510761" lon="9.3307932"><ele>665.0</ele><time>2026-05-02T14:06:46.161Z</time></trkpt><trkpt lat="40.6510647" lon="9.3309614"><ele>664.0</ele><time>2026-05-02T14:06:47.161Z</time></trkpt><trkpt lat="40.6510532" lon="9.3311226"><ele>664.0</ele><time>2026-05-02T14:06:48.161Z</time></trkpt><trkpt lat="40.6510385" lon="9.3312822"><ele>664.0</ele><time>2026-05-02T14:06:49.16Z</time></trkpt><trkpt lat="40.6510226" lon="9.3314384"><ele>664.0</ele><time>2026-05-02T14:06:50.16Z</time></trkpt><trkpt lat="40.6509959" lon="9.3315846"><ele>664.0</ele><time>2026-05-02T14:06:51.161Z</time></trkpt><trkpt lat="40.6509616" lon="9.3317259"><ele>662.8000000000001</ele><time>2026-05-02T14:06:52.16Z</time></trkpt><trkpt lat="40.6509236" lon="9.3318593"><ele>661.6</ele><time>2026-05-02T14:06:53.16Z</time></trkpt><trkpt lat="40.6508824" lon="9.3319876"><ele>660.4</ele><time>2026-05-02T14:06:54.161Z</time></trkpt><trkpt lat="40.650833" lon="9.3321113"><ele>659.2</ele><time>2026-05-02T14:06:55.161Z</time></trkpt><trkpt lat="40.6507846" lon="9.3322363"><ele>658.0</ele><time>2026-05-02T14:06:56.16Z</time></trkpt><trkpt lat="40.6507365" lon="9.3323558"><ele>657.8</ele><time>2026-05-02T14:06:57.161Z</time></trkpt><trkpt lat="40.6506907" lon="9.3324746"><ele>657.5999999999999</ele><time>2026-05-02T14:06:58.161Z</time></trkpt><trkpt lat="40.65064" lon="9.3326019"><ele>657.4000000000001</ele><time>2026-05-02T14:06:59.161Z</time></trkpt><trkpt lat="40.6505873" lon="9.3327336"><ele>657.2</ele><time>2026-05-02T14:07:00.161Z</time></trkpt><trkpt lat="40.6505235" lon="9.3328664"><ele>657.0</ele><time>2026-05-02T14:07:01.161Z</time></trkpt><trkpt lat="40.6504619" lon="9.3329844"><ele>657.0</ele><time>2026-05-02T14:07:02.16Z</time></trkpt><trkpt lat="40.6503874" lon="9.3330999"><ele>657.0</ele><time>2026-05-02T14:07:03.16Z</time></trkpt><trkpt lat="40.6503134" lon="9.3332203"><ele>657.0</ele><time>2026-05-02T14:07:04.161Z</time></trkpt><trkpt lat="40.6502396" lon="9.3333557"><ele>657.0</ele><time>2026-05-02T14:07:05.161Z</time></trkpt><trkpt lat="40.6501697" lon="9.3335051"><ele>654.75</ele><time>2026-05-02T14:07:06.161Z</time></trkpt><trkpt lat="40.6501065" lon="9.3336524"><ele>652.5</ele><time>2026-05-02T14:07:07.16Z</time></trkpt><trkpt lat="40.6500499" lon="9.3338049"><ele>650.25</ele><time>2026-05-02T14:07:08.16Z</time></trkpt><trkpt lat="40.64998" lon="9.3339919"><ele>648.0</ele><time>2026-05-02T14:07:09.161Z</time></trkpt><trkpt lat="40.6499152" lon="9.3341675"><ele>648.0</ele><time>2026-05-02T14:07:10.16Z</time></trkpt><trkpt lat="40.6498644" lon="9.3343462"><ele>648.0</ele><time>2026-05-02T14:07:11.161Z</time></trkpt><trkpt lat="40.649833" lon="9.3345395"><ele>648.0</ele><time>2026-05-02T14:07:12.161Z</time></trkpt><trkpt lat="40.6498253" lon="9.3347467"><ele>647.3333333333334</ele><time>2026-05-02T14:07:13.16Z</time></trkpt><trkpt lat="40.6498288" lon="9.3349583"><ele>646.6666666666667</ele><time>2026-05-02T14:07:14.161Z</time></trkpt><trkpt lat="40.6498579" lon="9.3351871"><ele>646.0</ele><time>2026-05-02T14:07:15.16Z</time></trkpt><trkpt lat="40.6498896" lon="9.3354147"><ele>644.3333333333334</ele><time>2026-05-02T14:07:16.16Z</time></trkpt><trkpt lat="40.6499322" lon="9.3356307"><ele>642.6666666666666</ele><time>2026-05-02T14:07:17.161Z</time></trkpt><trkpt lat="40.6499937" lon="9.3358303"><ele>641.0</ele><time>2026-05-02T14:07:18.161Z</time></trkpt><trkpt lat="40.6500465" lon="9.3360133"><ele>641.0</ele><time>2026-05-02T14:07:19.161Z</time></trkpt><trkpt lat="40.6500754" lon="9.3361968"><ele>641.0</ele><time>2026-05-02T14:07:20.161Z</time></trkpt><trkpt lat="40.6500697" lon="9.3363714"><ele>641.0</ele><time>2026-05-02T14:07:21.161Z</time></trkpt><trkpt lat="40.6500211" lon="9.33654"><ele>641.0</ele><time>2026-05-02T14:07:22.16Z</time></trkpt><trkpt lat="40.6499623" lon="9.3367037"><ele>640.0</ele><time>2026-05-02T14:07:23.161Z</time></trkpt><trkpt lat="40.6499142" lon="9.3368534"><ele>639.0</ele><time>2026-05-02T14:07:24.16Z</time></trkpt><trkpt lat="40.6498953" lon="9.3369973"><ele>638.0</ele><time>2026-05-02T14:07:25.16Z</time></trkpt><trkpt lat="40.6499141" lon="9.3371541"><ele>637.0</ele><time>2026-05-02T14:07:26.161Z</time></trkpt><trkpt lat="40.6499651" lon="9.3373117"><ele>635.3333333333334</ele><time>2026-05-02T14:07:27.161Z</time></trkpt><trkpt lat="40.6500475" lon="9.3374858"><ele>633.6666666666666</ele><time>2026-05-02T14:07:28.161Z</time></trkpt><trkpt lat="40.6501536" lon="9.3376509"><ele>632.0</ele><time>2026-05-02T14:07:29.161Z</time></trkpt><trkpt lat="40.6502761" lon="9.3378054"><ele>632.0</ele><time>2026-05-02T14:07:30.16Z</time></trkpt><trkpt lat="40.650414" lon="9.3379452"><ele>632.0</ele><time>2026-05-02T14:07:31.16Z</time></trkpt><trkpt lat="40.650544" lon="9.3380653"><ele>632.0</ele><time>2026-05-02T14:07:32.161Z</time></trkpt><trkpt lat="40.6506677" lon="9.3381803"><ele>632.0</ele><time>2026-05-02T14:07:33.16Z</time></trkpt><trkpt lat="40.650765" lon="9.3383111"><ele>632.0</ele><time>2026-05-02T14:07:34.16Z</time></trkpt><trkpt lat="40.6508316" lon="9.3384674"><ele>632.0</ele><time>2026-05-02T14:07:35.16Z</time></trkpt><trkpt lat="40.6508728" lon="9.3386391"><ele>632.0</ele><time>2026-05-02T14:07:36.161Z</time></trkpt><trkpt lat="40.6509063" lon="9.338827"><ele>627.6666666666666</ele><time>2026-05-02T14:07:37.16Z</time></trkpt><trkpt lat="40.6509522" lon="9.339022"><ele>623.3333333333334</ele><time>2026-05-02T14:07:38.16Z</time></trkpt><trkpt lat="40.6510015" lon="9.3392155"><ele>619.0</ele><time>2026-05-02T14:07:39.16Z</time></trkpt><trkpt lat="40.6510569" lon="9.3394101"><ele>619.0</ele><time>2026-05-02T14:07:40.16Z</time></trkpt><trkpt lat="40.651123" lon="9.3395897"><ele>619.0</ele><time>2026-05-02T14:07:41.161Z</time></trkpt><trkpt lat="40.6511988" lon="9.3397646"><ele>619.0</ele><time>2026-05-02T14:07:42.161Z</time></trkpt><trkpt lat="40.6513197" lon="9.3399187"><ele>621.0</ele><time>2026-05-02T14:07:43.161Z</time></trkpt><trkpt lat="40.6514305" lon="9.3400805"><ele>623.0</ele><time>2026-05-02T14:07:44.161Z</time></trkpt><trkpt lat="40.6515356" lon="9.3402435"><ele>625.0</ele><time>2026-05-02T14:07:45.16Z</time></trkpt><trkpt lat="40.6516269" lon="9.3404115"><ele>622.0</ele><time>2026-05-02T14:07:46.161Z</time></trkpt><trkpt lat="40.6517098" lon="9.3405792"><ele>619.0</ele><time>2026-05-02T14:07:47.161Z</time></trkpt><trkpt lat="40.6517846" lon="9.3407303"><ele>616.0</ele><time>2026-05-02T14:07:48.16Z</time></trkpt><trkpt lat="40.6518596" lon="9.3408774"><ele>613.0</ele><time>2026-05-02T14:07:49.161Z</time></trkpt><trkpt lat="40.6519379" lon="9.3410113"><ele>612.4</ele><time>2026-05-02T14:07:50.16Z</time></trkpt><trkpt lat="40.6520155" lon="9.3411261"><ele>611.8</ele><time>2026-05-02T14:07:51.16Z</time></trkpt><trkpt lat="40.6520839" lon="9.3412337"><ele>611.2</ele><time>2026-05-02T14:07:52.16Z</time></trkpt><trkpt lat="40.6521562" lon="9.3413394"><ele>610.6</ele><time>2026-05-02T14:07:53.16Z</time></trkpt><trkpt lat="40.6522244" lon="9.3414391"><ele>610.0</ele><time>2026-05-02T14:07:54.16Z</time></trkpt><trkpt lat="40.6522862" lon="9.3415334"><ele>610.0</ele><time>2026-05-02T14:07:55.161Z</time></trkpt><trkpt lat="40.6523395" lon="9.3416177"><ele>610.0</ele><time>2026-05-02T14:07:56.16Z</time></trkpt><trkpt lat="40.6523997" lon="9.3417335"><ele>610.0</ele><time>2026-05-02T14:07:58.161Z</time></trkpt><trkpt lat="40.6524243" lon="9.341821"><ele>610.0</ele><time>2026-05-02T14:08:00.161Z</time></trkpt><trkpt lat="40.6524242" lon="9.3419085"><ele>610.0</ele><time>2026-05-02T14:08:02.161Z</time></trkpt><trkpt lat="40.6524041" lon="9.3419894"><ele>610.0</ele><time>2026-05-02T14:08:04.16Z</time></trkpt><trkpt lat="40.6524026" lon="9.3420805"><ele>610.0</ele><time>2026-05-02T14:08:06.16Z</time></trkpt><trkpt lat="40.652483" lon="9.3421891"><ele>610.0</ele><time>2026-05-02T14:08:08.161Z</time></trkpt><trkpt lat="40.6525569" lon="9.3422425"><ele>610.0</ele><time>2026-05-02T14:08:09.16Z</time></trkpt><trkpt lat="40.6526522" lon="9.3423059"><ele>610.0</ele><time>2026-05-02T14:08:10.161Z</time></trkpt><trkpt lat="40.6527552" lon="9.342375"><ele>610.0</ele><time>2026-05-02T14:08:11.16Z</time></trkpt><trkpt lat="40.6528654" lon="9.3424589"><ele>609.75</ele><time>2026-05-02T14:08:12.161Z</time></trkpt><trkpt lat="40.6529713" lon="9.3425372"><ele>609.5</ele><time>2026-05-02T14:08:13.16Z</time></trkpt><trkpt lat="40.6530941" lon="9.3426093"><ele>609.25</ele><time>2026-05-02T14:08:14.161Z</time></trkpt><trkpt lat="40.6532258" lon="9.3426537"><ele>609.0</ele><time>2026-05-02T14:08:15.16Z</time></trkpt><trkpt lat="40.6533604" lon="9.3426682"><ele>609.0</ele><time>2026-05-02T14:08:16.16Z</time></trkpt><trkpt lat="40.6534844" lon="9.3426605"><ele>609.0</ele><time>2026-05-02T14:08:17.16Z</time></trkpt><trkpt lat="40.6535862" lon="9.3426465"><ele>609.0</ele><time>2026-05-02T14:08:18.161Z</time></trkpt><trkpt lat="40.6536843" lon="9.3426312"><ele>609.0</ele><time>2026-05-02T14:08:19.16Z</time></trkpt><trkpt lat="40.6537724" lon="9.3426682"><ele>609.0</ele><time>2026-05-02T14:08:20.161Z</time></trkpt><trkpt lat="40.6538515" lon="9.3427247"><ele>609.5</ele><time>2026-05-02T14:08:21.161Z</time></trkpt><trkpt lat="40.6539076" lon="9.3428326"><ele>610.0</ele><time>2026-05-02T14:08:22.161Z</time></trkpt><trkpt lat="40.6539395" lon="9.342966"><ele>610.5</ele><time>2026-05-02T14:08:23.16Z</time></trkpt><trkpt lat="40.6539805" lon="9.3431168"><ele>611.0</ele><time>2026-05-02T14:08:24.161Z</time></trkpt><trkpt lat="40.6540443" lon="9.3432873"><ele>608.0</ele><time>2026-05-02T14:08:25.16Z</time></trkpt><trkpt lat="40.6541173" lon="9.343482"><ele>605.0</ele><time>2026-05-02T14:08:26.16Z</time></trkpt><trkpt lat="40.6541935" lon="9.3436786"><ele>602.0</ele><time>2026-05-02T14:08:27.161Z</time></trkpt><trkpt lat="40.6542621" lon="9.3438764"><ele>603.3333333333333</ele><time>2026-05-02T14:08:28.161Z</time></trkpt><trkpt lat="40.6543421" lon="9.3440773"><ele>604.6666666666666</ele><time>2026-05-02T14:08:29.161Z</time></trkpt><trkpt lat="40.6544347" lon="9.3442803"><ele>606.0</ele><time>2026-05-02T14:08:30.16Z</time></trkpt><trkpt lat="40.6545699" lon="9.344452"><ele>606.0</ele><time>2026-05-02T14:08:31.161Z</time></trkpt><trkpt lat="40.6547169" lon="9.3446142"><ele>606.0</ele><time>2026-05-02T14:08:32.16Z</time></trkpt><trkpt lat="40.6548732" lon="9.3447537"><ele>606.0</ele><time>2026-05-02T14:08:33.161Z</time></trkpt><trkpt lat="40.6550269" lon="9.344885"><ele>603.0</ele><time>2026-05-02T14:08:34.161Z</time></trkpt><trkpt lat="40.6551671" lon="9.3450135"><ele>600.0</ele><time>2026-05-02T14:08:35.161Z</time></trkpt><trkpt lat="40.6553013" lon="9.3451599"><ele>597.0</ele><time>2026-05-02T14:08:36.16Z</time></trkpt><trkpt lat="40.6554259" lon="9.3453217"><ele>597.0</ele><time>2026-05-02T14:08:37.16Z</time></trkpt><trkpt lat="40.6555408" lon="9.3454961"><ele>597.0</ele><time>2026-05-02T14:08:38.16Z</time></trkpt><trkpt lat="40.6556537" lon="9.3456894"><ele>597.0</ele><time>2026-05-02T14:08:39.161Z</time></trkpt><trkpt lat="40.6557675" lon="9.3458946"><ele>594.0</ele><time>2026-05-02T14:08:40.161Z</time></trkpt><trkpt lat="40.6558955" lon="9.3461089"><ele>591.0</ele><time>2026-05-02T14:08:41.16Z</time></trkpt><trkpt lat="40.6560271" lon="9.3463102"><ele>588.0</ele><time>2026-05-02T14:08:42.16Z</time></trkpt><trkpt lat="40.6561759" lon="9.3465007"><ele>584.0</ele><time>2026-05-02T14:08:43.161Z</time></trkpt><trkpt lat="40.656343" lon="9.3466371"><ele>580.0</ele><time>2026-05-02T14:08:44.161Z</time></trkpt><trkpt lat="40.6564932" lon="9.3467404"><ele>576.0</ele><time>2026-05-02T14:08:45.16Z</time></trkpt><trkpt lat="40.6566355" lon="9.3468206"><ele>576.0</ele><time>2026-05-02T14:08:46.161Z</time></trkpt><trkpt lat="40.6567783" lon="9.3468854"><ele>576.0</ele><time>2026-05-02T14:08:47.161Z</time></trkpt><trkpt lat="40.6569112" lon="9.3469584"><ele>576.0</ele><time>2026-05-02T14:08:48.16Z</time></trkpt><trkpt lat="40.657029" lon="9.3470477"><ele>576.0</ele><time>2026-05-02T14:08:49.161Z</time></trkpt><trkpt lat="40.657131" lon="9.3471479"><ele>574.5</ele><time>2026-05-02T14:08:50.161Z</time></trkpt><trkpt lat="40.6572397" lon="9.3472304"><ele>573.0</ele><time>2026-05-02T14:08:51.16Z</time></trkpt><trkpt lat="40.6573639" lon="9.3472969"><ele>571.5</ele><time>2026-05-02T14:08:52.161Z</time></trkpt><trkpt lat="40.6575003" lon="9.3473717"><ele>570.0</ele><time>2026-05-02T14:08:53.16Z</time></trkpt><trkpt lat="40.6576343" lon="9.3474655"><ele>570.0</ele><time>2026-05-02T14:08:54.16Z</time></trkpt><trkpt lat="40.6577816" lon="9.3475943"><ele>570.0</ele><time>2026-05-02T14:08:55.161Z</time></trkpt><trkpt lat="40.6579251" lon="9.3477283"><ele>570.0</ele><time>2026-05-02T14:08:56.161Z</time></trkpt><trkpt lat="40.6580642" lon="9.3478386"><ele>571.5</ele><time>2026-05-02T14:08:57.16Z</time></trkpt><trkpt lat="40.6582072" lon="9.3479003"><ele>573.0</ele><time>2026-05-02T14:08:58.161Z</time></trkpt><trkpt lat="40.6583545" lon="9.3479224"><ele>574.5</ele><time>2026-05-02T14:08:59.161Z</time></trkpt><trkpt lat="40.6584888" lon="9.3478758"><ele>576.0</ele><time>2026-05-02T14:09:00.161Z</time></trkpt><trkpt lat="40.6586176" lon="9.3478061"><ele>576.5</ele><time>2026-05-02T14:09:01.161Z</time></trkpt><trkpt lat="40.6587416" lon="9.347749"><ele>577.0</ele><time>2026-05-02T14:09:02.161Z</time></trkpt><trkpt lat="40.6588694" lon="9.347732"><ele>577.5</ele><time>2026-05-02T14:09:03.161Z</time></trkpt><trkpt lat="40.6590036" lon="9.3477571"><ele>578.0</ele><time>2026-05-02T14:09:04.161Z</time></trkpt><trkpt lat="40.6591468" lon="9.3478183"><ele>578.0</ele><time>2026-05-02T14:09:05.161Z</time></trkpt><trkpt lat="40.6592953" lon="9.3478793"><ele>578.0</ele><time>2026-05-02T14:09:06.16Z</time></trkpt><trkpt lat="40.6594541" lon="9.3479212"><ele>578.0</ele><time>2026-05-02T14:09:07.16Z</time></trkpt><trkpt lat="40.659616" lon="9.3479595"><ele>577.75</ele><time>2026-05-02T14:09:08.16Z</time></trkpt><trkpt lat="40.6597803" lon="9.3479456"><ele>577.5</ele><time>2026-05-02T14:09:09.16Z</time></trkpt><trkpt lat="40.6599276" lon="9.3479373"><ele>577.25</ele><time>2026-05-02T14:09:10.16Z</time></trkpt><trkpt lat="40.6600591" lon="9.3478906"><ele>577.0</ele><time>2026-05-02T14:09:11.161Z</time></trkpt><trkpt lat="40.6601721" lon="9.3478009"><ele>577.0</ele><time>2026-05-02T14:09:12.16Z</time></trkpt><trkpt lat="40.6602774" lon="9.3476728"><ele>577.0</ele><time>2026-05-02T14:09:13.16Z</time></trkpt><trkpt lat="40.6603714" lon="9.3475231"><ele>577.0</ele><time>2026-05-02T14:09:14.161Z</time></trkpt><trkpt lat="40.6604376" lon="9.3473577"><ele>577.0</ele><time>2026-05-02T14:09:15.16Z</time></trkpt><trkpt lat="40.6604708" lon="9.3471893"><ele>575.2</ele><time>2026-05-02T14:09:16.161Z</time></trkpt><trkpt lat="40.6604677" lon="9.3470261"><ele>573.4000000000001</ele><time>2026-05-02T14:09:17.16Z</time></trkpt><trkpt lat="40.6604671" lon="9.3468771"><ele>571.5999999999999</ele><time>2026-05-02T14:09:18.161Z</time></trkpt><trkpt lat="40.6604931" lon="9.3467458"><ele>569.8</ele><time>2026-05-02T14:09:19.161Z</time></trkpt><trkpt lat="40.660541" lon="9.3466487"><ele>568.0</ele><time>2026-05-02T14:09:20.161Z</time></trkpt><trkpt lat="40.660626" lon="9.3466018"><ele>568.0</ele><time>2026-05-02T14:09:21.16Z</time></trkpt><trkpt lat="40.6607269" lon="9.3466073"><ele>568.0</ele><time>2026-05-02T14:09:22.161Z</time></trkpt><trkpt lat="40.6608291" lon="9.3466566"><ele>568.0</ele><time>2026-05-02T14:09:23.161Z</time></trkpt><trkpt lat="40.6609451" lon="9.3467519"><ele>568.0</ele><time>2026-05-02T14:09:24.16Z</time></trkpt><trkpt lat="40.6610737" lon="9.3468594"><ele>571.0</ele><time>2026-05-02T14:09:25.16Z</time></trkpt><trkpt lat="40.6612063" lon="9.3469767"><ele>574.0</ele><time>2026-05-02T14:09:26.16Z</time></trkpt><trkpt lat="40.6613354" lon="9.3470877"><ele>577.0</ele><time>2026-05-02T14:09:27.161Z</time></trkpt><trkpt lat="40.6614583" lon="9.3471872"><ele>573.0</ele><time>2026-05-02T14:09:28.16Z</time></trkpt><trkpt lat="40.6615899" lon="9.347281"><ele>569.0</ele><time>2026-05-02T14:09:29.161Z</time></trkpt><trkpt lat="40.66173" lon="9.3473536"><ele>565.0</ele><time>2026-05-02T14:09:30.161Z</time></trkpt><trkpt lat="40.6618803" lon="9.3474124"><ele>567.6666666666667</ele><time>2026-05-02T14:09:31.16Z</time></trkpt><trkpt lat="40.6620436" lon="9.3474538"><ele>570.3333333333334</ele><time>2026-05-02T14:09:32.16Z</time></trkpt><trkpt lat="40.6622104" lon="9.3474831"><ele>573.0</ele><time>2026-05-02T14:09:33.16Z</time></trkpt><trkpt lat="40.6623856" lon="9.3475178"><ele>573.0</ele><time>2026-05-02T14:09:34.16Z</time></trkpt><trkpt lat="40.6625548" lon="9.3475683"><ele>573.0</ele><time>2026-05-02T14:09:35.161Z</time></trkpt><trkpt lat="40.6627128" lon="9.3477004"><ele>573.0</ele><time>2026-05-02T14:09:36.161Z</time></trkpt><trkpt lat="40.6628701" lon="9.3478131"><ele>571.0</ele><time>2026-05-02T14:09:37.161Z</time></trkpt><trkpt lat="40.6630356" lon="9.3479125"><ele>569.0</ele><time>2026-05-02T14:09:38.16Z</time></trkpt><trkpt lat="40.6631953" lon="9.3479854"><ele>567.0</ele><time>2026-05-02T14:09:39.161Z</time></trkpt><trkpt lat="40.6633409" lon="9.348056"><ele>567.0</ele><time>2026-05-02T14:09:40.16Z</time></trkpt><trkpt lat="40.6634658" lon="9.3481446"><ele>567.0</ele><time>2026-05-02T14:09:41.16Z</time></trkpt><trkpt lat="40.6635728" lon="9.3482633"><ele>567.0</ele><time>2026-05-02T14:09:42.16Z</time></trkpt><trkpt lat="40.6636786" lon="9.3483952"><ele>567.0</ele><time>2026-05-02T14:09:43.16Z</time></trkpt><trkpt lat="40.6637976" lon="9.3485325"><ele>572.0</ele><time>2026-05-02T14:09:44.16Z</time></trkpt><trkpt lat="40.6639342" lon="9.3486567"><ele>577.0</ele><time>2026-05-02T14:09:45.161Z</time></trkpt><trkpt lat="40.6640638" lon="9.3487588"><ele>582.0</ele><time>2026-05-02T14:09:46.16Z</time></trkpt><trkpt lat="40.6642043" lon="9.3488289"><ele>581.25</ele><time>2026-05-02T14:09:47.161Z</time></trkpt><trkpt lat="40.6643533" lon="9.3488857"><ele>580.5</ele><time>2026-05-02T14:09:48.16Z</time></trkpt><trkpt lat="40.6644899" lon="9.3489623"><ele>579.75</ele><time>2026-05-02T14:09:49.161Z</time></trkpt><trkpt lat="40.6646048" lon="9.3490702"><ele>579.0</ele><time>2026-05-02T14:09:50.16Z</time></trkpt><trkpt lat="40.6647026" lon="9.3491829"><ele>579.0</ele><time>2026-05-02T14:09:51.161Z</time></trkpt><trkpt lat="40.6648136" lon="9.3492646"><ele>579.0</ele><time>2026-05-02T14:09:52.16Z</time></trkpt><trkpt lat="40.6649383" lon="9.3493087"><ele>579.0</ele><time>2026-05-02T14:09:53.161Z</time></trkpt><trkpt lat="40.665077" lon="9.3493327"><ele>579.0</ele><time>2026-05-02T14:09:54.161Z</time></trkpt><trkpt lat="40.6652184" lon="9.3493716"><ele>583.0</ele><time>2026-05-02T14:09:55.161Z</time></trkpt><trkpt lat="40.6653543" lon="9.3494517"><ele>587.0</ele><time>2026-05-02T14:09:56.16Z</time></trkpt><trkpt lat="40.6654933" lon="9.3495445"><ele>591.0</ele><time>2026-05-02T14:09:57.16Z</time></trkpt><trkpt lat="40.6656334" lon="9.3496397"><ele>586.0</ele><time>2026-05-02T14:09:58.16Z</time></trkpt><trkpt lat="40.6657865" lon="9.3497581"><ele>581.0</ele><time>2026-05-02T14:09:59.161Z</time></trkpt><trkpt lat="40.6659432" lon="9.3498857"><ele>576.0</ele><time>2026-05-02T14:10:00.161Z</time></trkpt><trkpt lat="40.6661096" lon="9.3500353"><ele>584.0</ele><time>2026-05-02T14:10:01.161Z</time></trkpt><trkpt lat="40.6662784" lon="9.3501905"><ele>592.0</ele><time>2026-05-02T14:10:02.161Z</time></trkpt><trkpt lat="40.6664405" lon="9.3503545"><ele>600.0</ele><time>2026-05-02T14:10:03.16Z</time></trkpt><trkpt lat="40.666604" lon="9.3505154"><ele>598.0</ele><time>2026-05-02T14:10:04.161Z</time></trkpt><trkpt lat="40.6667429" lon="9.3506751"><ele>596.0</ele><time>2026-05-02T14:10:05.161Z</time></trkpt><trkpt lat="40.6668906" lon="9.3507993"><ele>594.0</ele><time>2026-05-02T14:10:06.161Z</time></trkpt><trkpt lat="40.6670427" lon="9.3508972"><ele>594.0</ele><time>2026-05-02T14:10:07.161Z</time></trkpt><trkpt lat="40.6671842" lon="9.3509608"><ele>594.0</ele><time>2026-05-02T14:10:08.16Z</time></trkpt><trkpt lat="40.6673278" lon="9.351024"><ele>594.0</ele><time>2026-05-02T14:10:09.161Z</time></trkpt><trkpt lat="40.6674401" lon="9.3511232"><ele>594.0</ele><time>2026-05-02T14:10:10.16Z</time></trkpt><trkpt lat="40.6675374" lon="9.3512413"><ele>592.25</ele><time>2026-05-02T14:10:11.16Z</time></trkpt><trkpt lat="40.6676142" lon="9.3513838"><ele>590.5</ele><time>2026-05-02T14:10:12.161Z</time></trkpt><trkpt lat="40.6677062" lon="9.3515185"><ele>588.75</ele><time>2026-05-02T14:10:13.161Z</time></trkpt><trkpt lat="40.6677994" lon="9.3516401"><ele>587.0</ele><time>2026-05-02T14:10:14.16Z</time></trkpt><trkpt lat="40.6679474" lon="9.3517194"><ele>587.0</ele><time>2026-05-02T14:10:15.16Z</time></trkpt><trkpt lat="40.6680695" lon="9.3518282"><ele>587.0</ele><time>2026-05-02T14:10:16.16Z</time></trkpt><trkpt lat="40.6681681" lon="9.3519686"><ele>587.0</ele><time>2026-05-02T14:10:17.16Z</time></trkpt><trkpt lat="40.6682683" lon="9.3521051"><ele>587.0</ele><time>2026-05-02T14:10:18.161Z</time></trkpt><trkpt lat="40.6683786" lon="9.3521766"><ele>587.25</ele><time>2026-05-02T14:10:19.161Z</time></trkpt><trkpt lat="40.6685106" lon="9.3522129"><ele>587.5</ele><time>2026-05-02T14:10:20.161Z</time></trkpt><trkpt lat="40.668643" lon="9.352212"><ele>587.75</ele><time>2026-05-02T14:10:21.16Z</time></trkpt><trkpt lat="40.6687774" lon="9.3521963"><ele>588.0</ele><time>2026-05-02T14:10:22.161Z</time></trkpt><trkpt lat="40.6688993" lon="9.3521713"><ele>588.0</ele><time>2026-05-02T14:10:23.16Z</time></trkpt><trkpt lat="40.6690164" lon="9.3521542"><ele>588.0</ele><time>2026-05-02T14:10:24.161Z</time></trkpt><trkpt lat="40.6691138" lon="9.3521475"><ele>588.0</ele><time>2026-05-02T14:10:25.16Z</time></trkpt><trkpt lat="40.6692095" lon="9.352156"><ele>588.0</ele><time>2026-05-02T14:10:26.161Z</time></trkpt><trkpt lat="40.669307" lon="9.3521791"><ele>588.0</ele><time>2026-05-02T14:10:27.16Z</time></trkpt><trkpt lat="40.6694053" lon="9.3522276"><ele>586.5</ele><time>2026-05-02T14:10:28.161Z</time></trkpt><trkpt lat="40.6695143" lon="9.3523016"><ele>585.0</ele><time>2026-05-02T14:10:29.161Z</time></trkpt><trkpt lat="40.6696154" lon="9.3523781"><ele>583.5</ele><time>2026-05-02T14:10:30.16Z</time></trkpt><trkpt lat="40.6697213" lon="9.3524596"><ele>582.0</ele><time>2026-05-02T14:10:31.16Z</time></trkpt><trkpt lat="40.6698158" lon="9.3525393"><ele>582.0</ele><time>2026-05-02T14:10:32.16Z</time></trkpt><trkpt lat="40.6698926" lon="9.3526534"><ele>582.0</ele><time>2026-05-02T14:10:33.16Z</time></trkpt><trkpt lat="40.669952" lon="9.3527917"><ele>582.0</ele><time>2026-05-02T14:10:34.16Z</time></trkpt><trkpt lat="40.6699859" lon="9.3529419"><ele>582.0</ele><time>2026-05-02T14:10:35.161Z</time></trkpt><trkpt lat="40.6699994" lon="9.3530987"><ele>582.75</ele><time>2026-05-02T14:10:36.16Z</time></trkpt><trkpt lat="40.670014" lon="9.3532544"><ele>583.5</ele><time>2026-05-02T14:10:37.161Z</time></trkpt><trkpt lat="40.6700314" lon="9.3534295"><ele>584.25</ele><time>2026-05-02T14:10:38.16Z</time></trkpt><trkpt lat="40.6700643" lon="9.3536109"><ele>585.0</ele><time>2026-05-02T14:10:39.161Z</time></trkpt><trkpt lat="40.6701138" lon="9.3538002"><ele>584.6666666666666</ele><time>2026-05-02T14:10:40.16Z</time></trkpt><trkpt lat="40.6701625" lon="9.3540075"><ele>584.3333333333333</ele><time>2026-05-02T14:10:41.16Z</time></trkpt><trkpt lat="40.6702179" lon="9.3542185"><ele>584.0</ele><time>2026-05-02T14:10:42.16Z</time></trkpt><trkpt lat="40.6702749" lon="9.3544123"><ele>586.5</ele><time>2026-05-02T14:10:43.161Z</time></trkpt><trkpt lat="40.6703283" lon="9.354588"><ele>589.0</ele><time>2026-05-02T14:10:44.16Z</time></trkpt><trkpt lat="40.6703832" lon="9.3547676"><ele>591.5</ele><time>2026-05-02T14:10:45.16Z</time></trkpt><trkpt lat="40.6704274" lon="9.3549307"><ele>594.0</ele><time>2026-05-02T14:10:46.16Z</time></trkpt><trkpt lat="40.6704767" lon="9.3550961"><ele>594.0</ele><time>2026-05-02T14:10:47.16Z</time></trkpt><trkpt lat="40.6705357" lon="9.3552531"><ele>594.0</ele><time>2026-05-02T14:10:48.16Z</time></trkpt><trkpt lat="40.6705943" lon="9.3553987"><ele>594.0</ele><time>2026-05-02T14:10:49.161Z</time></trkpt><trkpt lat="40.670663" lon="9.3555388"><ele>594.0</ele><time>2026-05-02T14:10:50.161Z</time></trkpt><trkpt lat="40.6707412" lon="9.3556719"><ele>593.75</ele><time>2026-05-02T14:10:51.16Z</time></trkpt><trkpt lat="40.6708297" lon="9.3557814"><ele>593.5</ele><time>2026-05-02T14:10:52.16Z</time></trkpt><trkpt lat="40.6709168" lon="9.3558902"><ele>593.25</ele><time>2026-05-02T14:10:53.161Z</time></trkpt><trkpt lat="40.6710051" lon="9.3559972"><ele>593.0</ele><time>2026-05-02T14:10:54.161Z</time></trkpt><trkpt lat="40.6710953" lon="9.3561016"><ele>593.25</ele><time>2026-05-02T14:10:55.16Z</time></trkpt><trkpt lat="40.671186" lon="9.3561934"><ele>593.5</ele><time>2026-05-02T14:10:56.161Z</time></trkpt><trkpt lat="40.6712823" lon="9.3562738"><ele>593.75</ele><time>2026-05-02T14:10:57.16Z</time></trkpt><trkpt lat="40.6713892" lon="9.3563423"><ele>594.0</ele><time>2026-05-02T14:10:58.161Z</time></trkpt><trkpt lat="40.6715066" lon="9.3563705"><ele>594.0</ele><time>2026-05-02T14:10:59.161Z</time></trkpt><trkpt lat="40.6716352" lon="9.3563907"><ele>594.0</ele><time>2026-05-02T14:11:00.161Z</time></trkpt><trkpt lat="40.6718125" lon="9.3563977"><ele>594.0</ele><time>2026-05-02T14:11:01.161Z</time></trkpt><trkpt lat="40.6720072" lon="9.3564204"><ele>593.6666666666666</ele><time>2026-05-02T14:11:02.161Z</time></trkpt><trkpt lat="40.6722254" lon="9.3564371"><ele>593.3333333333333</ele><time>2026-05-02T14:11:03.16Z</time></trkpt><trkpt lat="40.6724498" lon="9.3564576"><ele>593.0</ele><time>2026-05-02T14:11:04.16Z</time></trkpt><trkpt lat="40.6726954" lon="9.3564835"><ele>591.5</ele><time>2026-05-02T14:11:05.16Z</time></trkpt><trkpt lat="40.6729369" lon="9.356508"><ele>590.0</ele><time>2026-05-02T14:11:06.161Z</time></trkpt><trkpt lat="40.6731631" lon="9.3565214"><ele>590.0</ele><time>2026-05-02T14:11:07.161Z</time></trkpt><trkpt lat="40.6733803" lon="9.3565326"><ele>590.0</ele><time>2026-05-02T14:11:08.16Z</time></trkpt><trkpt lat="40.6735738" lon="9.356548"><ele>590.0</ele><time>2026-05-02T14:11:09.16Z</time></trkpt><trkpt lat="40.6737568" lon="9.356566"><ele>590.0</ele><time>2026-05-02T14:11:10.161Z</time></trkpt><trkpt lat="40.6739184" lon="9.3565832"><ele>590.0</ele><time>2026-05-02T14:11:11.161Z</time></trkpt><trkpt lat="40.674077" lon="9.3566106"><ele>590.0</ele><time>2026-05-02T14:11:12.16Z</time></trkpt><trkpt lat="40.6741896" lon="9.3566804"><ele>590.0</ele><time>2026-05-02T14:11:13.16Z</time></trkpt><trkpt lat="40.6742809" lon="9.356777"><ele>590.0</ele><time>2026-05-02T14:11:14.161Z</time></trkpt><trkpt lat="40.6743509" lon="9.3569174"><ele>590.0</ele><time>2026-05-02T14:11:15.161Z</time></trkpt><trkpt lat="40.6744116" lon="9.3570983"><ele>590.0</ele><time>2026-05-02T14:11:16.16Z</time></trkpt><trkpt lat="40.6744743" lon="9.3573079"><ele>590.0</ele><time>2026-05-02T14:11:17.161Z</time></trkpt><trkpt lat="40.6745424" lon="9.3575474"><ele>590.6666666666666</ele><time>2026-05-02T14:11:18.16Z</time></trkpt><trkpt lat="40.6746111" lon="9.357778"><ele>591.3333333333334</ele><time>2026-05-02T14:11:19.161Z</time></trkpt><trkpt lat="40.6746776" lon="9.3580075"><ele>592.0</ele><time>2026-05-02T14:11:20.161Z</time></trkpt><trkpt lat="40.6747449" lon="9.3582256"><ele>592.0</ele><time>2026-05-02T14:11:21.16Z</time></trkpt><trkpt lat="40.6748154" lon="9.3584144"><ele>592.0</ele><time>2026-05-02T14:11:22.161Z</time></trkpt><trkpt lat="40.6748957" lon="9.3585902"><ele>592.0</ele><time>2026-05-02T14:11:23.161Z</time></trkpt><trkpt lat="40.6749861" lon="9.3587397"><ele>591.75</ele><time>2026-05-02T14:11:24.16Z</time></trkpt><trkpt lat="40.6750969" lon="9.3588759"><ele>591.5</ele><time>2026-05-02T14:11:25.161Z</time></trkpt><trkpt lat="40.6752151" lon="9.3589975"><ele>591.25</ele><time>2026-05-02T14:11:26.161Z</time></trkpt><trkpt lat="40.6753256" lon="9.3591094"><ele>591.0</ele><time>2026-05-02T14:11:27.16Z</time></trkpt><trkpt lat="40.6754259" lon="9.3592101"><ele>590.4</ele><time>2026-05-02T14:11:28.161Z</time></trkpt><trkpt lat="40.6755142" lon="9.359305"><ele>589.8</ele><time>2026-05-02T14:11:29.161Z</time></trkpt><trkpt lat="40.6755968" lon="9.3593875"><ele>589.1999999999999</ele><time>2026-05-02T14:11:30.161Z</time></trkpt><trkpt lat="40.6756879" lon="9.3594571"><ele>588.6</ele><time>2026-05-02T14:11:31.16Z</time></trkpt><trkpt lat="40.6757955" lon="9.3595058"><ele>588.0</ele><time>2026-05-02T14:11:32.161Z</time></trkpt><trkpt lat="40.6759164" lon="9.359524"><ele>588.0</ele><time>2026-05-02T14:11:33.16Z</time></trkpt><trkpt lat="40.6760438" lon="9.3595137"><ele>588.0</ele><time>2026-05-02T14:11:34.16Z</time></trkpt><trkpt lat="40.6761728" lon="9.3594671"><ele>588.0</ele><time>2026-05-02T14:11:35.16Z</time></trkpt><trkpt lat="40.6763015" lon="9.3593829"><ele>588.0</ele><time>2026-05-02T14:11:36.161Z</time></trkpt><trkpt lat="40.6764315" lon="9.3592625"><ele>587.3333333333334</ele><time>2026-05-02T14:11:37.16Z</time></trkpt><trkpt lat="40.6765722" lon="9.3591083"><ele>586.6666666666667</ele><time>2026-05-02T14:11:38.161Z</time></trkpt><trkpt lat="40.6767274" lon="9.3589432"><ele>586.0</ele><time>2026-05-02T14:11:39.161Z</time></trkpt><trkpt lat="40.6768959" lon="9.3587703"><ele>582.0</ele><time>2026-05-02T14:11:40.16Z</time></trkpt><trkpt lat="40.6770699" lon="9.358586"><ele>578.0</ele><time>2026-05-02T14:11:41.161Z</time></trkpt><trkpt lat="40.6772407" lon="9.3584063"><ele>574.0</ele><time>2026-05-02T14:11:42.161Z</time></trkpt><trkpt lat="40.6774257" lon="9.3582011"><ele>573.3333333333334</ele><time>2026-05-02T14:11:43.161Z</time></trkpt><trkpt lat="40.6776085" lon="9.3580139"><ele>572.6666666666666</ele><time>2026-05-02T14:11:44.161Z</time></trkpt><trkpt lat="40.6777736" lon="9.3578406"><ele>572.0</ele><time>2026-05-02T14:11:45.161Z</time></trkpt><trkpt lat="40.6779352" lon="9.3576874"><ele>572.0</ele><time>2026-05-02T14:11:46.16Z</time></trkpt><trkpt lat="40.6780812" lon="9.3575438"><ele>572.0</ele><time>2026-05-02T14:11:47.161Z</time></trkpt><trkpt lat="40.6782123" lon="9.3574103"><ele>572.0</ele><time>2026-05-02T14:11:48.16Z</time></trkpt><trkpt lat="40.6783499" lon="9.3572962"><ele>572.0</ele><time>2026-05-02T14:11:49.16Z</time></trkpt><trkpt lat="40.6784904" lon="9.3572098"><ele>572.0</ele><time>2026-05-02T14:11:50.16Z</time></trkpt><trkpt lat="40.6786349" lon="9.3571562"><ele>572.0</ele><time>2026-05-02T14:11:51.161Z</time></trkpt><trkpt lat="40.678789" lon="9.3571466"><ele>571.6666666666666</ele><time>2026-05-02T14:11:52.16Z</time></trkpt><trkpt lat="40.6789461" lon="9.3571779"><ele>571.3333333333334</ele><time>2026-05-02T14:11:53.161Z</time></trkpt><trkpt lat="40.6791107" lon="9.3572344"><ele>571.0</ele><time>2026-05-02T14:11:54.16Z</time></trkpt><trkpt lat="40.6792775" lon="9.35731"><ele>571.3333333333334</ele><time>2026-05-02T14:11:55.16Z</time></trkpt><trkpt lat="40.6794448" lon="9.357393"><ele>571.6666666666666</ele><time>2026-05-02T14:11:56.16Z</time></trkpt><trkpt lat="40.6796152" lon="9.3574799"><ele>572.0</ele><time>2026-05-02T14:11:57.16Z</time></trkpt><trkpt lat="40.6797831" lon="9.3575608"><ele>572.0</ele><time>2026-05-02T14:11:58.16Z</time></trkpt><trkpt lat="40.6799472" lon="9.3576406"><ele>572.0</ele><time>2026-05-02T14:11:59.16Z</time></trkpt><trkpt lat="40.6801023" lon="9.3577191"><ele>572.0</ele><time>2026-05-02T14:12:00.161Z</time></trkpt><trkpt lat="40.6802493" lon="9.3577929"><ele>573.25</ele><time>2026-05-02T14:12:01.16Z</time></trkpt><trkpt lat="40.6803831" lon="9.3578677"><ele>574.5</ele><time>2026-05-02T14:12:02.16Z</time></trkpt><trkpt lat="40.680501" lon="9.3579483"><ele>575.75</ele><time>2026-05-02T14:12:03.161Z</time></trkpt><trkpt lat="40.6805866" lon="9.3580461"><ele>577.0</ele><time>2026-05-02T14:12:04.161Z</time></trkpt><trkpt lat="40.6806431" lon="9.3581742"><ele>577.25</ele><time>2026-05-02T14:12:05.161Z</time></trkpt><trkpt lat="40.6806657" lon="9.3583281"><ele>577.5</ele><time>2026-05-02T14:12:06.161Z</time></trkpt><trkpt lat="40.6806648" lon="9.3585096"><ele>577.75</ele><time>2026-05-02T14:12:07.161Z</time></trkpt><trkpt lat="40.6806731" lon="9.3587021"><ele>578.0</ele><time>2026-05-02T14:12:08.16Z</time></trkpt><trkpt lat="40.6807004" lon="9.3588778"><ele>578.0</ele><time>2026-05-02T14:12:09.16Z</time></trkpt><trkpt lat="40.6807522" lon="9.3590421"><ele>578.0</ele><time>2026-05-02T14:12:10.16Z</time></trkpt><trkpt lat="40.6808461" lon="9.3591686"><ele>578.0</ele><time>2026-05-02T14:12:11.16Z</time></trkpt><trkpt lat="40.6809635" lon="9.3592947"><ele>578.0</ele><time>2026-05-02T14:12:12.16Z</time></trkpt><trkpt lat="40.6811014" lon="9.3594137"><ele>579.3333333333333</ele><time>2026-05-02T14:12:13.161Z</time></trkpt><trkpt lat="40.6812392" lon="9.3595402"><ele>580.6666666666666</ele><time>2026-05-02T14:12:14.16Z</time></trkpt><trkpt lat="40.6813696" lon="9.3596888"><ele>582.0</ele><time>2026-05-02T14:12:15.16Z</time></trkpt><trkpt lat="40.6814788" lon="9.3598336"><ele>582.0</ele><time>2026-05-02T14:12:16.16Z</time></trkpt><trkpt lat="40.6815748" lon="9.3599796"><ele>582.0</ele><time>2026-05-02T14:12:17.161Z</time></trkpt><trkpt lat="40.6816648" lon="9.3600952"><ele>582.0</ele><time>2026-05-02T14:12:18.161Z</time></trkpt><trkpt lat="40.6817598" lon="9.3601673"><ele>582.0</ele><time>2026-05-02T14:12:19.161Z</time></trkpt><trkpt lat="40.6818599" lon="9.360168"><ele>582.25</ele><time>2026-05-02T14:12:20.16Z</time></trkpt><trkpt lat="40.6819631" lon="9.3601148"><ele>582.5</ele><time>2026-05-02T14:12:21.161Z</time></trkpt><trkpt lat="40.6820704" lon="9.3600236"><ele>582.75</ele><time>2026-05-02T14:12:22.161Z</time></trkpt><trkpt lat="40.6821997" lon="9.3599149"><ele>583.0</ele><time>2026-05-02T14:12:23.16Z</time></trkpt><trkpt lat="40.6823242" lon="9.3598156"><ele>583.0</ele><time>2026-05-02T14:12:24.16Z</time></trkpt><trkpt lat="40.6824477" lon="9.3597266"><ele>583.0</ele><time>2026-05-02T14:12:25.16Z</time></trkpt><trkpt lat="40.68254" lon="9.3596159"><ele>583.0</ele><time>2026-05-02T14:12:26.16Z</time></trkpt><trkpt lat="40.6825987" lon="9.3594913"><ele>583.0</ele><time>2026-05-02T14:12:27.161Z</time></trkpt><trkpt lat="40.6826234" lon="9.3593593"><ele>585.0</ele><time>2026-05-02T14:12:28.16Z</time></trkpt><trkpt lat="40.682662" lon="9.3592363"><ele>587.0</ele><time>2026-05-02T14:12:29.161Z</time></trkpt><trkpt lat="40.6827263" lon="9.359139"><ele>589.0</ele><time>2026-05-02T14:12:30.161Z</time></trkpt><trkpt lat="40.682806" lon="9.3590666"><ele>591.0</ele><time>2026-05-02T14:12:31.16Z</time></trkpt><trkpt lat="40.6828946" lon="9.3589836"><ele>593.0</ele><time>2026-05-02T14:12:32.161Z</time></trkpt><trkpt lat="40.6829606" lon="9.3588804"><ele>593.4</ele><time>2026-05-02T14:12:33.16Z</time></trkpt><trkpt lat="40.6830347" lon="9.3588001"><ele>593.8</ele><time>2026-05-02T14:12:34.16Z</time></trkpt><trkpt lat="40.6831119" lon="9.3587662"><ele>594.2</ele><time>2026-05-02T14:12:35.161Z</time></trkpt><trkpt lat="40.683192" lon="9.3587826"><ele>594.6</ele><time>2026-05-02T14:12:36.16Z</time></trkpt><trkpt lat="40.6832677" lon="9.358852"><ele>595.0</ele><time>2026-05-02T14:12:37.16Z</time></trkpt><trkpt lat="40.6833336" lon="9.3589667"><ele>595.0</ele><time>2026-05-02T14:12:38.161Z</time></trkpt><trkpt lat="40.6833962" lon="9.3591231"><ele>595.0</ele><time>2026-05-02T14:12:39.161Z</time></trkpt><trkpt lat="40.6834665" lon="9.3593163"><ele>595.0</ele><time>2026-05-02T14:12:40.16Z</time></trkpt><trkpt lat="40.6835386" lon="9.3595213"><ele>597.0</ele><time>2026-05-02T14:12:41.16Z</time></trkpt><trkpt lat="40.6836114" lon="9.3597048"><ele>599.0</ele><time>2026-05-02T14:12:42.16Z</time></trkpt><trkpt lat="40.683685" lon="9.3598555"><ele>601.0</ele><time>2026-05-02T14:12:43.16Z</time></trkpt><trkpt lat="40.6837586" lon="9.3599792"><ele>603.0</ele><time>2026-05-02T14:12:44.161Z</time></trkpt><trkpt lat="40.683876" lon="9.3599929"><ele>603.0</ele><time>2026-05-02T14:12:45.16Z</time></trkpt><trkpt lat="40.6839874" lon="9.3600335"><ele>603.0</ele><time>2026-05-02T14:12:46.16Z</time></trkpt><trkpt lat="40.6840973" lon="9.3600945"><ele>603.0</ele><time>2026-05-02T14:12:47.161Z</time></trkpt><trkpt lat="40.6841867" lon="9.3602015"><ele>603.0</ele><time>2026-05-02T14:12:48.16Z</time></trkpt><trkpt lat="40.6842722" lon="9.3603369"><ele>603.0</ele><time>2026-05-02T14:12:49.161Z</time></trkpt><trkpt lat="40.6843656" lon="9.3604877"><ele>603.0</ele><time>2026-05-02T14:12:50.161Z</time></trkpt><trkpt lat="40.6844846" lon="9.360638"><ele>603.0</ele><time>2026-05-02T14:12:51.16Z</time></trkpt><trkpt lat="40.6846204" lon="9.3607957"><ele>606.0</ele><time>2026-05-02T14:12:52.16Z</time></trkpt><trkpt lat="40.6847516" lon="9.3609458"><ele>609.0</ele><time>2026-05-02T14:12:53.161Z</time></trkpt><trkpt lat="40.6848781" lon="9.3610861"><ele>612.0</ele><time>2026-05-02T14:12:54.161Z</time></trkpt><trkpt lat="40.6849861" lon="9.3612264"><ele>609.25</ele><time>2026-05-02T14:12:55.161Z</time></trkpt><trkpt lat="40.6850724" lon="9.3613881"><ele>606.5</ele><time>2026-05-02T14:12:56.161Z</time></trkpt><trkpt lat="40.6851499" lon="9.3615494"><ele>603.75</ele><time>2026-05-02T14:12:57.16Z</time></trkpt><trkpt lat="40.6852101" lon="9.3617151"><ele>601.0</ele><time>2026-05-02T14:12:58.16Z</time></trkpt><trkpt lat="40.6852831" lon="9.3618435"><ele>604.0</ele><time>2026-05-02T14:12:59.16Z</time></trkpt><trkpt lat="40.6853697" lon="9.3619469"><ele>607.0</ele><time>2026-05-02T14:13:00.16Z</time></trkpt><trkpt lat="40.6854864" lon="9.3620053"><ele>610.0</ele><time>2026-05-02T14:13:01.161Z</time></trkpt><trkpt lat="40.6855885" lon="9.3620957"><ele>613.0</ele><time>2026-05-02T14:13:02.161Z</time></trkpt><trkpt lat="40.6856744" lon="9.3622099"><ele>613.0</ele><time>2026-05-02T14:13:03.16Z</time></trkpt><trkpt lat="40.6857235" lon="9.362352"><ele>613.0</ele><time>2026-05-02T14:13:04.161Z</time></trkpt><trkpt lat="40.6857525" lon="9.3625166"><ele>613.0</ele><time>2026-05-02T14:13:05.16Z</time></trkpt><trkpt lat="40.6857725" lon="9.3627206"><ele>613.0</ele><time>2026-05-02T14:13:06.16Z</time></trkpt><trkpt lat="40.6857972" lon="9.3629378"><ele>612.75</ele><time>2026-05-02T14:13:07.161Z</time></trkpt><trkpt lat="40.6858258" lon="9.3631319"><ele>612.5</ele><time>2026-05-02T14:13:08.161Z</time></trkpt><trkpt lat="40.6858828" lon="9.3632971"><ele>612.25</ele><time>2026-05-02T14:13:09.16Z</time></trkpt><trkpt lat="40.6859584" lon="9.3634318"><ele>612.0</ele><time>2026-05-02T14:13:10.161Z</time></trkpt><trkpt lat="40.6860524" lon="9.36354"><ele>613.6666666666666</ele><time>2026-05-02T14:13:11.16Z</time></trkpt><trkpt lat="40.6861961" lon="9.3636156"><ele>615.3333333333333</ele><time>2026-05-02T14:13:12.161Z</time></trkpt><trkpt lat="40.6863398" lon="9.3637021"><ele>617.0</ele><time>2026-05-02T14:13:13.16Z</time></trkpt><trkpt lat="40.6865009" lon="9.363807"><ele>612.6666666666666</ele><time>2026-05-02T14:13:14.161Z</time></trkpt><trkpt lat="40.6866585" lon="9.3639084"><ele>608.3333333333334</ele><time>2026-05-02T14:13:15.161Z</time></trkpt><trkpt lat="40.6868087" lon="9.3640049"><ele>604.0</ele><time>2026-05-02T14:13:16.161Z</time></trkpt><trkpt lat="40.6869473" lon="9.3640658"><ele>604.0</ele><time>2026-05-02T14:13:17.16Z</time></trkpt><trkpt lat="40.6870788" lon="9.3640727"><ele>604.0</ele><time>2026-05-02T14:13:18.161Z</time></trkpt><trkpt lat="40.6871992" lon="9.364044"><ele>604.0</ele><time>2026-05-02T14:13:19.16Z</time></trkpt><trkpt lat="40.68731" lon="9.3640106"><ele>604.0</ele><time>2026-05-02T14:13:20.161Z</time></trkpt><trkpt lat="40.6874069" lon="9.3640294"><ele>604.0</ele><time>2026-05-02T14:13:21.161Z</time></trkpt><trkpt lat="40.6874968" lon="9.3640639"><ele>604.0</ele><time>2026-05-02T14:13:22.16Z</time></trkpt><trkpt lat="40.687528" lon="9.3642075"><ele>604.0</ele><time>2026-05-02T14:13:23.161Z</time></trkpt><trkpt lat="40.6875494" lon="9.3643573"><ele>604.0</ele><time>2026-05-02T14:13:24.161Z</time></trkpt><trkpt lat="40.6875582" lon="9.3645391"><ele>601.6666666666667</ele><time>2026-05-02T14:13:25.16Z</time></trkpt><trkpt lat="40.6875719" lon="9.3647622"><ele>599.3333333333334</ele><time>2026-05-02T14:13:26.161Z</time></trkpt><trkpt lat="40.6875774" lon="9.3650164"><ele>597.0</ele><time>2026-05-02T14:13:27.161Z</time></trkpt><trkpt lat="40.6875714" lon="9.3652538"><ele>597.0</ele><time>2026-05-02T14:13:28.16Z</time></trkpt><trkpt lat="40.6875452" lon="9.365476"><ele>597.0</ele><time>2026-05-02T14:13:29.161Z</time></trkpt><trkpt lat="40.6875297" lon="9.3656783"><ele>597.0</ele><time>2026-05-02T14:13:30.161Z</time></trkpt><trkpt lat="40.687536" lon="9.365863"><ele>596.25</ele><time>2026-05-02T14:13:31.16Z</time></trkpt><trkpt lat="40.6875751" lon="9.3660216"><ele>595.5</ele><time>2026-05-02T14:13:32.161Z</time></trkpt><trkpt lat="40.6876455" lon="9.3661475"><ele>594.75</ele><time>2026-05-02T14:13:33.16Z</time></trkpt><trkpt lat="40.6877471" lon="9.3662463"><ele>594.0</ele><time>2026-05-02T14:13:34.161Z</time></trkpt><trkpt lat="40.6878785" lon="9.3663295"><ele>592.3333333333334</ele><time>2026-05-02T14:13:35.16Z</time></trkpt><trkpt lat="40.6880322" lon="9.3664093"><ele>590.6666666666667</ele><time>2026-05-02T14:13:36.16Z</time></trkpt><trkpt lat="40.6881868" lon="9.366495"><ele>589.0</ele><time>2026-05-02T14:13:37.16Z</time></trkpt><trkpt lat="40.6883272" lon="9.3665796"><ele>589.0</ele><time>2026-05-02T14:13:38.161Z</time></trkpt><trkpt lat="40.6884417" lon="9.3666906"><ele>589.0</ele><time>2026-05-02T14:13:39.161Z</time></trkpt><trkpt lat="40.6885307" lon="9.3668375"><ele>589.0</ele><time>2026-05-02T14:13:40.16Z</time></trkpt><trkpt lat="40.6885916" lon="9.3670168"><ele>589.0</ele><time>2026-05-02T14:13:41.16Z</time></trkpt><trkpt lat="40.6886392" lon="9.3672266"><ele>593.6666666666667</ele><time>2026-05-02T14:13:42.161Z</time></trkpt><trkpt lat="40.6886812" lon="9.3674548"><ele>598.3333333333334</ele><time>2026-05-02T14:13:43.161Z</time></trkpt><trkpt lat="40.6887248" lon="9.3677027"><ele>603.0</ele><time>2026-05-02T14:13:44.161Z</time></trkpt><trkpt lat="40.6887684" lon="9.3679664"><ele>601.6666666666666</ele><time>2026-05-02T14:13:45.16Z</time></trkpt><trkpt lat="40.6888155" lon="9.368229"><ele>600.3333333333333</ele><time>2026-05-02T14:13:46.161Z</time></trkpt><trkpt lat="40.6888623" lon="9.3684887"><ele>599.0</ele><time>2026-05-02T14:13:47.161Z</time></trkpt><trkpt lat="40.6889059" lon="9.368737"><ele>598.6666666666666</ele><time>2026-05-02T14:13:48.16Z</time></trkpt><trkpt lat="40.6889422" lon="9.3689709"><ele>598.3333333333334</ele><time>2026-05-02T14:13:49.16Z</time></trkpt><trkpt lat="40.68899" lon="9.3691879"><ele>598.0</ele><time>2026-05-02T14:13:50.16Z</time></trkpt><trkpt lat="40.6890559" lon="9.3693857"><ele>598.0</ele><time>2026-05-02T14:13:51.161Z</time></trkpt><trkpt lat="40.6891486" lon="9.3695604"><ele>598.0</ele><time>2026-05-02T14:13:52.16Z</time></trkpt><trkpt lat="40.6892597" lon="9.3697182"><ele>598.0</ele><time>2026-05-02T14:13:53.16Z</time></trkpt><trkpt lat="40.689396" lon="9.36984"><ele>600.0</ele><time>2026-05-02T14:13:54.16Z</time></trkpt><trkpt lat="40.6895463" lon="9.3699555"><ele>602.0</ele><time>2026-05-02T14:13:55.161Z</time></trkpt><trkpt lat="40.6897208" lon="9.3700365"><ele>604.0</ele><time>2026-05-02T14:13:56.16Z</time></trkpt><trkpt lat="40.6898947" lon="9.3701363"><ele>604.0</ele><time>2026-05-02T14:13:57.161Z</time></trkpt><trkpt lat="40.6900565" lon="9.3702529"><ele>604.0</ele><time>2026-05-02T14:13:58.161Z</time></trkpt><trkpt lat="40.6902015" lon="9.3704037"><ele>604.0</ele><time>2026-05-02T14:13:59.16Z</time></trkpt><trkpt lat="40.6903423" lon="9.3705852"><ele>605.0</ele><time>2026-05-02T14:14:00.16Z</time></trkpt><trkpt lat="40.6904637" lon="9.3707965"><ele>606.0</ele><time>2026-05-02T14:14:01.161Z</time></trkpt><trkpt lat="40.6905736" lon="9.3710261"><ele>607.0</ele><time>2026-05-02T14:14:02.16Z</time></trkpt><trkpt lat="40.6906813" lon="9.3712549"><ele>605.6666666666667</ele><time>2026-05-02T14:14:03.161Z</time></trkpt><trkpt lat="40.6907776" lon="9.3714732"><ele>604.3333333333334</ele><time>2026-05-02T14:14:04.16Z</time></trkpt><trkpt lat="40.6908739" lon="9.371676"><ele>603.0</ele><time>2026-05-02T14:14:05.16Z</time></trkpt><trkpt lat="40.6909832" lon="9.3718419"><ele>602.3333333333334</ele><time>2026-05-02T14:14:06.161Z</time></trkpt><trkpt lat="40.6911027" lon="9.3719816"><ele>601.6666666666667</ele><time>2026-05-02T14:14:07.16Z</time></trkpt><trkpt lat="40.6912363" lon="9.3720987"><ele>601.0</ele><time>2026-05-02T14:14:08.16Z</time></trkpt><trkpt lat="40.6913839" lon="9.3722008"><ele>601.0</ele><time>2026-05-02T14:14:09.16Z</time></trkpt><trkpt lat="40.6915406" lon="9.3722532"><ele>601.0</ele><time>2026-05-02T14:14:10.161Z</time></trkpt><trkpt lat="40.6917067" lon="9.3723055"><ele>601.0</ele><time>2026-05-02T14:14:11.161Z</time></trkpt><trkpt lat="40.6918744" lon="9.3723736"><ele>604.0</ele><time>2026-05-02T14:14:12.16Z</time></trkpt><trkpt lat="40.6920485" lon="9.3724562"><ele>607.0</ele><time>2026-05-02T14:14:13.16Z</time></trkpt><trkpt lat="40.6922078" lon="9.3725683"><ele>610.0</ele><time>2026-05-02T14:14:14.16Z</time></trkpt><trkpt lat="40.6923497" lon="9.3727041"><ele>610.0</ele><time>2026-05-02T14:14:15.161Z</time></trkpt><trkpt lat="40.6924801" lon="9.3728733"><ele>610.0</ele><time>2026-05-02T14:14:16.16Z</time></trkpt><trkpt lat="40.6926145" lon="9.3730684"><ele>610.0</ele><time>2026-05-02T14:14:17.161Z</time></trkpt><trkpt lat="40.6927428" lon="9.3732584"><ele>612.6666666666667</ele><time>2026-05-02T14:14:18.161Z</time></trkpt><trkpt lat="40.6928731" lon="9.3734364"><ele>615.3333333333334</ele><time>2026-05-02T14:14:19.161Z</time></trkpt><trkpt lat="40.6930201" lon="9.3735972"><ele>618.0</ele><time>2026-05-02T14:14:20.161Z</time></trkpt><trkpt lat="40.6931778" lon="9.3737365"><ele>618.3333333333334</ele><time>2026-05-02T14:14:21.16Z</time></trkpt><trkpt lat="40.6933502" lon="9.3738576"><ele>618.6666666666667</ele><time>2026-05-02T14:14:22.161Z</time></trkpt><trkpt lat="40.6935321" lon="9.3739479"><ele>619.0</ele><time>2026-05-02T14:14:23.161Z</time></trkpt><trkpt lat="40.6937179" lon="9.3740174"><ele>619.0</ele><time>2026-05-02T14:14:24.16Z</time></trkpt><trkpt lat="40.6939114" lon="9.3740605"><ele>619.0</ele><time>2026-05-02T14:14:25.16Z</time></trkpt><trkpt lat="40.6941098" lon="9.374075"><ele>619.0</ele><time>2026-05-02T14:14:26.161Z</time></trkpt><trkpt lat="40.6943168" lon="9.3740633"><ele>620.0</ele><time>2026-05-02T14:14:27.161Z</time></trkpt><trkpt lat="40.6945226" lon="9.3740233"><ele>621.0</ele><time>2026-05-02T14:14:28.16Z</time></trkpt><trkpt lat="40.6947227" lon="9.3739514"><ele>622.0</ele><time>2026-05-02T14:14:29.16Z</time></trkpt><trkpt lat="40.6949179" lon="9.373865"><ele>623.6666666666667</ele><time>2026-05-02T14:14:30.16Z</time></trkpt><trkpt lat="40.6951067" lon="9.3737257"><ele>625.3333333333334</ele><time>2026-05-02T14:14:31.16Z</time></trkpt><trkpt lat="40.6952934" lon="9.3735757"><ele>627.0</ele><time>2026-05-02T14:14:32.161Z</time></trkpt><trkpt lat="40.6954583" lon="9.3734227"><ele>627.0</ele><time>2026-05-02T14:14:33.16Z</time></trkpt><trkpt lat="40.6956091" lon="9.3732869"><ele>627.0</ele><time>2026-05-02T14:14:34.16Z</time></trkpt><trkpt lat="40.6957509" lon="9.3731768"><ele>627.0</ele><time>2026-05-02T14:14:35.161Z</time></trkpt><trkpt lat="40.6958916" lon="9.3730954"><ele>627.0</ele><time>2026-05-02T14:14:36.16Z</time></trkpt><trkpt lat="40.6960411" lon="9.3730531"><ele>627.0</ele><time>2026-05-02T14:14:37.161Z</time></trkpt><trkpt lat="40.6961954" lon="9.3730336"><ele>627.0</ele><time>2026-05-02T14:14:38.16Z</time></trkpt><trkpt lat="40.6963452" lon="9.3730584"><ele>629.6666666666666</ele><time>2026-05-02T14:14:39.16Z</time></trkpt><trkpt lat="40.6964866" lon="9.3731237"><ele>632.3333333333333</ele><time>2026-05-02T14:14:40.16Z</time></trkpt><trkpt lat="40.6966224" lon="9.3732261"><ele>635.0</ele><time>2026-05-02T14:14:41.16Z</time></trkpt><trkpt lat="40.6967455" lon="9.3733592"><ele>635.0</ele><time>2026-05-02T14:14:42.16Z</time></trkpt><trkpt lat="40.6968578" lon="9.3735279"><ele>635.0</ele><time>2026-05-02T14:14:43.16Z</time></trkpt><trkpt lat="40.6969664" lon="9.3737077"><ele>635.0</ele><time>2026-05-02T14:14:44.161Z</time></trkpt><trkpt lat="40.6970774" lon="9.3738677"><ele>638.0</ele><time>2026-05-02T14:14:45.16Z</time></trkpt><trkpt lat="40.6971914" lon="9.3740001"><ele>641.0</ele><time>2026-05-02T14:14:46.16Z</time></trkpt><trkpt lat="40.6973231" lon="9.3741028"><ele>644.0</ele><time>2026-05-02T14:14:47.16Z</time></trkpt><trkpt lat="40.6974736" lon="9.3741888"><ele>644.0</ele><time>2026-05-02T14:14:48.161Z</time></trkpt><trkpt lat="40.697629" lon="9.3742723"><ele>644.0</ele><time>2026-05-02T14:14:49.16Z</time></trkpt><trkpt lat="40.697774" lon="9.3743457"><ele>644.0</ele><time>2026-05-02T14:14:50.16Z</time></trkpt><trkpt lat="40.6979117" lon="9.3743849"><ele>645.5</ele><time>2026-05-02T14:14:51.161Z</time></trkpt><trkpt lat="40.6980534" lon="9.3743882"><ele>647.0</ele><time>2026-05-02T14:14:52.16Z</time></trkpt><trkpt lat="40.6981872" lon="9.3743477"><ele>648.5</ele><time>2026-05-02T14:14:53.161Z</time></trkpt><trkpt lat="40.698322" lon="9.3742737"><ele>650.0</ele><time>2026-05-02T14:14:54.161Z</time></trkpt><trkpt lat="40.698464" lon="9.3742221"><ele>652.3333333333333</ele><time>2026-05-02T14:14:55.161Z</time></trkpt><trkpt lat="40.698619" lon="9.3742029"><ele>654.6666666666666</ele><time>2026-05-02T14:14:56.16Z</time></trkpt><trkpt lat="40.6987881" lon="9.3742088"><ele>657.0</ele><time>2026-05-02T14:14:57.161Z</time></trkpt><trkpt lat="40.6989716" lon="9.3742329"><ele>657.0</ele><time>2026-05-02T14:14:58.16Z</time></trkpt><trkpt lat="40.699166" lon="9.3742616"><ele>657.0</ele><time>2026-05-02T14:14:59.161Z</time></trkpt><trkpt lat="40.699369" lon="9.3742961"><ele>657.0</ele><time>2026-05-02T14:15:00.16Z</time></trkpt><trkpt lat="40.6995665" lon="9.3743238"><ele>658.0</ele><time>2026-05-02T14:15:01.161Z</time></trkpt><trkpt lat="40.699756" lon="9.3743576"><ele>659.0</ele><time>2026-05-02T14:15:02.16Z</time></trkpt><trkpt lat="40.6999377" lon="9.3743861"><ele>660.0</ele><time>2026-05-02T14:15:03.16Z</time></trkpt><trkpt lat="40.7001106" lon="9.374411"><ele>660.75</ele><time>2026-05-02T14:15:04.16Z</time></trkpt><trkpt lat="40.7002691" lon="9.3744313"><ele>661.5</ele><time>2026-05-02T14:15:05.16Z</time></trkpt><trkpt lat="40.7004083" lon="9.3744241"><ele>662.25</ele><time>2026-05-02T14:15:06.161Z</time></trkpt><trkpt lat="40.70053" lon="9.3743715"><ele>663.0</ele><time>2026-05-02T14:15:07.161Z</time></trkpt><trkpt lat="40.700634" lon="9.3742667"><ele>663.0</ele><time>2026-05-02T14:15:08.16Z</time></trkpt><trkpt lat="40.7007243" lon="9.3741272"><ele>663.0</ele><time>2026-05-02T14:15:09.161Z</time></trkpt><trkpt lat="40.7008173" lon="9.3739708"><ele>663.0</ele><time>2026-05-02T14:15:10.16Z</time></trkpt><trkpt lat="40.7009274" lon="9.3738378"><ele>663.0</ele><time>2026-05-02T14:15:11.161Z</time></trkpt><trkpt lat="40.7010418" lon="9.3737172"><ele>661.0</ele><time>2026-05-02T14:15:12.16Z</time></trkpt><trkpt lat="40.7012106" lon="9.3736848"><ele>659.0</ele><time>2026-05-02T14:15:13.16Z</time></trkpt><trkpt lat="40.7013866" lon="9.3736541"><ele>657.0</ele><time>2026-05-02T14:15:14.16Z</time></trkpt><trkpt lat="40.7015617" lon="9.3736392"><ele>657.0</ele><time>2026-05-02T14:15:15.161Z</time></trkpt><trkpt lat="40.7017419" lon="9.3736206"><ele>657.0</ele><time>2026-05-02T14:15:16.16Z</time></trkpt><trkpt lat="40.7019078" lon="9.3735952"><ele>657.0</ele><time>2026-05-02T14:15:17.161Z</time></trkpt><trkpt lat="40.7020636" lon="9.3735335"><ele>657.0</ele><time>2026-05-02T14:15:18.161Z</time></trkpt><trkpt lat="40.7022137" lon="9.3734372"><ele>657.0</ele><time>2026-05-02T14:15:19.16Z</time></trkpt><trkpt lat="40.7023567" lon="9.3733059"><ele>657.0</ele><time>2026-05-02T14:15:20.16Z</time></trkpt><trkpt lat="40.7025074" lon="9.3731597"><ele>655.3333333333334</ele><time>2026-05-02T14:15:21.161Z</time></trkpt><trkpt lat="40.7026465" lon="9.3730027"><ele>653.6666666666667</ele><time>2026-05-02T14:15:22.16Z</time></trkpt><trkpt lat="40.7027768" lon="9.3728363"><ele>652.0</ele><time>2026-05-02T14:15:23.161Z</time></trkpt><trkpt lat="40.702886" lon="9.372657"><ele>652.0</ele><time>2026-05-02T14:15:24.16Z</time></trkpt><trkpt lat="40.7029841" lon="9.3724767"><ele>652.0</ele><time>2026-05-02T14:15:25.161Z</time></trkpt><trkpt lat="40.7030812" lon="9.3723085"><ele>652.0</ele><time>2026-05-02T14:15:26.16Z</time></trkpt><trkpt lat="40.7031741" lon="9.3721566"><ele>649.0</ele><time>2026-05-02T14:15:27.161Z</time></trkpt><trkpt lat="40.7032754" lon="9.3720161"><ele>646.0</ele><time>2026-05-02T14:15:28.161Z</time></trkpt><trkpt lat="40.7034214" lon="9.3719217"><ele>643.0</ele><time>2026-05-02T14:15:29.16Z</time></trkpt><trkpt lat="40.7035821" lon="9.371838"><ele>642.3333333333334</ele><time>2026-05-02T14:15:30.161Z</time></trkpt><trkpt lat="40.7037592" lon="9.3717542"><ele>641.6666666666666</ele><time>2026-05-02T14:15:31.16Z</time></trkpt><trkpt lat="40.7039491" lon="9.3716676"><ele>641.0</ele><time>2026-05-02T14:15:32.161Z</time></trkpt><trkpt lat="40.7041316" lon="9.3715839"><ele>641.0</ele><time>2026-05-02T14:15:33.161Z</time></trkpt><trkpt lat="40.7043134" lon="9.3715051"><ele>641.0</ele><time>2026-05-02T14:15:34.161Z</time></trkpt><trkpt lat="40.7044956" lon="9.3714336"><ele>641.0</ele><time>2026-05-02T14:15:35.16Z</time></trkpt><trkpt lat="40.7046854" lon="9.3713735"><ele>637.0</ele><time>2026-05-02T14:15:36.161Z</time></trkpt><trkpt lat="40.7048791" lon="9.3713293"><ele>633.0</ele><time>2026-05-02T14:15:37.161Z</time></trkpt><trkpt lat="40.7050709" lon="9.3713035"><ele>629.0</ele><time>2026-05-02T14:15:38.16Z</time></trkpt><trkpt lat="40.7052514" lon="9.3712861"><ele>628.0</ele><time>2026-05-02T14:15:39.161Z</time></trkpt><trkpt lat="40.7054353" lon="9.3712705"><ele>627.0</ele><time>2026-05-02T14:15:40.16Z</time></trkpt><trkpt lat="40.7056103" lon="9.3712762"><ele>626.0</ele><time>2026-05-02T14:15:41.161Z</time></trkpt><trkpt lat="40.7057998" lon="9.3713053"><ele>626.0</ele><time>2026-05-02T14:15:42.16Z</time></trkpt><trkpt lat="40.7059938" lon="9.3713461"><ele>626.0</ele><time>2026-05-02T14:15:43.16Z</time></trkpt><trkpt lat="40.7061961" lon="9.371395"><ele>626.0</ele><time>2026-05-02T14:15:44.161Z</time></trkpt><trkpt lat="40.7064003" lon="9.3714463"><ele>626.3333333333333</ele><time>2026-05-02T14:15:45.16Z</time></trkpt><trkpt lat="40.7065988" lon="9.3714882"><ele>626.6666666666666</ele><time>2026-05-02T14:15:46.16Z</time></trkpt><trkpt lat="40.7067977" lon="9.3715123"><ele>627.0</ele><time>2026-05-02T14:15:47.161Z</time></trkpt><trkpt lat="40.7069904" lon="9.3715128"><ele>625.6666666666666</ele><time>2026-05-02T14:15:48.161Z</time></trkpt><trkpt lat="40.7071877" lon="9.3715049"><ele>624.3333333333333</ele><time>2026-05-02T14:15:49.161Z</time></trkpt><trkpt lat="40.7073784" lon="9.3715001"><ele>623.0</ele><time>2026-05-02T14:15:50.161Z</time></trkpt><trkpt lat="40.7075646" lon="9.3714896"><ele>622.0</ele><time>2026-05-02T14:15:51.16Z</time></trkpt><trkpt lat="40.7077471" lon="9.3714771"><ele>621.0</ele><time>2026-05-02T14:15:52.16Z</time></trkpt><trkpt lat="40.7079272" lon="9.3714626"><ele>620.0</ele><time>2026-05-02T14:15:53.161Z</time></trkpt><trkpt lat="40.7081026" lon="9.371447"><ele>620.0</ele><time>2026-05-02T14:15:54.161Z</time></trkpt><trkpt lat="40.7082865" lon="9.3714264"><ele>620.0</ele><time>2026-05-02T14:15:55.16Z</time></trkpt><trkpt lat="40.7084795" lon="9.3714005"><ele>620.0</ele><time>2026-05-02T14:15:56.161Z</time></trkpt><trkpt lat="40.7086742" lon="9.371369"><ele>619.6666666666666</ele><time>2026-05-02T14:15:57.161Z</time></trkpt><trkpt lat="40.7088606" lon="9.3713354"><ele>619.3333333333334</ele><time>2026-05-02T14:15:58.161Z</time></trkpt><trkpt lat="40.7090449" lon="9.3713041"><ele>619.0</ele><time>2026-05-02T14:15:59.16Z</time></trkpt><trkpt lat="40.7092241" lon="9.3712753"><ele>619.0</ele><time>2026-05-02T14:16:00.161Z</time></trkpt><trkpt lat="40.7093919" lon="9.3712503"><ele>619.0</ele><time>2026-05-02T14:16:01.161Z</time></trkpt><trkpt lat="40.7095487" lon="9.3712469"><ele>619.0</ele><time>2026-05-02T14:16:02.16Z</time></trkpt><trkpt lat="40.7096948" lon="9.3712834"><ele>616.0</ele><time>2026-05-02T14:16:03.16Z</time></trkpt><trkpt lat="40.7098339" lon="9.3713593"><ele>613.0</ele><time>2026-05-02T14:16:04.16Z</time></trkpt><trkpt lat="40.7099681" lon="9.3714639"><ele>610.0</ele><time>2026-05-02T14:16:05.161Z</time></trkpt><trkpt lat="40.7100889" lon="9.3715716"><ele>610.0</ele><time>2026-05-02T14:16:06.16Z</time></trkpt><trkpt lat="40.7102055" lon="9.3716617"><ele>610.0</ele><time>2026-05-02T14:16:07.16Z</time></trkpt><trkpt lat="40.7103303" lon="9.3717246"><ele>610.0</ele><time>2026-05-02T14:16:08.161Z</time></trkpt><trkpt lat="40.7104568" lon="9.3717442"><ele>610.0</ele><time>2026-05-02T14:16:09.161Z</time></trkpt><trkpt lat="40.7105847" lon="9.3717091"><ele>608.3333333333334</ele><time>2026-05-02T14:16:10.16Z</time></trkpt><trkpt lat="40.7107136" lon="9.3716283"><ele>606.6666666666666</ele><time>2026-05-02T14:16:11.16Z</time></trkpt><trkpt lat="40.7108505" lon="9.3715223"><ele>605.0</ele><time>2026-05-02T14:16:12.16Z</time></trkpt><trkpt lat="40.7109993" lon="9.3714123"><ele>605.3333333333333</ele><time>2026-05-02T14:16:13.161Z</time></trkpt><trkpt lat="40.7111654" lon="9.3713139"><ele>605.6666666666666</ele><time>2026-05-02T14:16:14.16Z</time></trkpt><trkpt lat="40.7113339" lon="9.371232"><ele>606.0</ele><time>2026-05-02T14:16:15.161Z</time></trkpt><trkpt lat="40.7115016" lon="9.3711499"><ele>606.0</ele><time>2026-05-02T14:16:16.16Z</time></trkpt><trkpt lat="40.7116646" lon="9.371043"><ele>606.0</ele><time>2026-05-02T14:16:17.161Z</time></trkpt><trkpt lat="40.7118194" lon="9.3709083"><ele>606.0</ele><time>2026-05-02T14:16:18.16Z</time></trkpt><trkpt lat="40.7119754" lon="9.3707629"><ele>603.0</ele><time>2026-05-02T14:16:19.161Z</time></trkpt><trkpt lat="40.712148" lon="9.3706216"><ele>600.0</ele><time>2026-05-02T14:16:20.161Z</time></trkpt><trkpt lat="40.7123284" lon="9.3704954"><ele>597.0</ele><time>2026-05-02T14:16:21.16Z</time></trkpt><trkpt lat="40.7125059" lon="9.3703784"><ele>597.0</ele><time>2026-05-02T14:16:22.16Z</time></trkpt><trkpt lat="40.7126656" lon="9.3702705"><ele>597.0</ele><time>2026-05-02T14:16:23.16Z</time></trkpt><trkpt lat="40.7128015" lon="9.3701429"><ele>597.0</ele><time>2026-05-02T14:16:24.16Z</time></trkpt><trkpt lat="40.7129179" lon="9.3699828"><ele>593.0</ele><time>2026-05-02T14:16:25.161Z</time></trkpt><trkpt lat="40.713011" lon="9.3697935"><ele>589.0</ele><time>2026-05-02T14:16:26.16Z</time></trkpt><trkpt lat="40.7130984" lon="9.3695821"><ele>585.0</ele><time>2026-05-02T14:16:27.16Z</time></trkpt><trkpt lat="40.713189" lon="9.3693702"><ele>585.0</ele><time>2026-05-02T14:16:28.16Z</time></trkpt><trkpt lat="40.7132764" lon="9.369173"><ele>585.0</ele><time>2026-05-02T14:16:29.16Z</time></trkpt><trkpt lat="40.7133582" lon="9.3689989"><ele>585.0</ele><time>2026-05-02T14:16:30.161Z</time></trkpt><trkpt lat="40.7134304" lon="9.3688541"><ele>586.0</ele><time>2026-05-02T14:16:31.16Z</time></trkpt><trkpt lat="40.7135148" lon="9.3687456"><ele>587.0</ele><time>2026-05-02T14:16:32.161Z</time></trkpt><trkpt lat="40.7136089" lon="9.3686888"><ele>588.0</ele><time>2026-05-02T14:16:33.161Z</time></trkpt><trkpt lat="40.7137173" lon="9.3686722"><ele>589.0</ele><time>2026-05-02T14:16:34.16Z</time></trkpt><trkpt lat="40.7138262" lon="9.368704"><ele>590.0</ele><time>2026-05-02T14:16:35.16Z</time></trkpt><trkpt lat="40.7139429" lon="9.3687592"><ele>590.0</ele><time>2026-05-02T14:16:36.16Z</time></trkpt><trkpt lat="40.7140673" lon="9.3687949"><ele>590.0</ele><time>2026-05-02T14:16:37.161Z</time></trkpt><trkpt lat="40.7142153" lon="9.3687837"><ele>590.0</ele><time>2026-05-02T14:16:38.16Z</time></trkpt><trkpt lat="40.7143747" lon="9.3687489"><ele>590.0</ele><time>2026-05-02T14:16:39.16Z</time></trkpt><trkpt lat="40.7145496" lon="9.3686881"><ele>586.6666666666666</ele><time>2026-05-02T14:16:40.161Z</time></trkpt><trkpt lat="40.7147362" lon="9.3686222"><ele>583.3333333333334</ele><time>2026-05-02T14:16:41.16Z</time></trkpt><trkpt lat="40.7149118" lon="9.3685511"><ele>580.0</ele><time>2026-05-02T14:16:42.16Z</time></trkpt><trkpt lat="40.7150649" lon="9.3684644"><ele>580.0</ele><time>2026-05-02T14:16:43.16Z</time></trkpt><trkpt lat="40.7151923" lon="9.3683535"><ele>580.0</ele><time>2026-05-02T14:16:44.161Z</time></trkpt><trkpt lat="40.7152993" lon="9.368216"><ele>580.0</ele><time>2026-05-02T14:16:45.16Z</time></trkpt><trkpt lat="40.7153763" lon="9.3680517"><ele>580.0</ele><time>2026-05-02T14:16:46.16Z</time></trkpt><trkpt lat="40.7154269" lon="9.3678536"><ele>577.6666666666667</ele><time>2026-05-02T14:16:47.161Z</time></trkpt><trkpt lat="40.7154499" lon="9.3676378"><ele>575.3333333333334</ele><time>2026-05-02T14:16:48.16Z</time></trkpt><trkpt lat="40.7154381" lon="9.3674219"><ele>573.0</ele><time>2026-05-02T14:16:49.16Z</time></trkpt><trkpt lat="40.7154007" lon="9.3672023"><ele>572.75</ele><time>2026-05-02T14:16:50.161Z</time></trkpt><trkpt lat="40.7153536" lon="9.3670036"><ele>572.5</ele><time>2026-05-02T14:16:51.16Z</time></trkpt><trkpt lat="40.7153127" lon="9.3668323"><ele>572.25</ele><time>2026-05-02T14:16:52.161Z</time></trkpt><trkpt lat="40.7152963" lon="9.366675"><ele>572.0</ele><time>2026-05-02T14:16:53.16Z</time></trkpt><trkpt lat="40.7153219" lon="9.3665354"><ele>572.0</ele><time>2026-05-02T14:16:54.161Z</time></trkpt><trkpt lat="40.7153635" lon="9.3664096"><ele>572.0</ele><time>2026-05-02T14:16:55.161Z</time></trkpt><trkpt lat="40.715449" lon="9.366321"><ele>572.0</ele><time>2026-05-02T14:16:56.161Z</time></trkpt><trkpt lat="40.7155662" lon="9.3662691"><ele>572.0</ele><time>2026-05-02T14:16:57.16Z</time></trkpt><trkpt lat="40.7156897" lon="9.3662035"><ele>572.5</ele><time>2026-05-02T14:16:58.161Z</time></trkpt><trkpt lat="40.7157832" lon="9.3661054"><ele>573.0</ele><time>2026-05-02T14:16:59.161Z</time></trkpt><trkpt lat="40.7158612" lon="9.3659594"><ele>573.5</ele><time>2026-05-02T14:17:00.16Z</time></trkpt><trkpt lat="40.7159013" lon="9.3657899"><ele>574.0</ele><time>2026-05-02T14:17:01.161Z</time></trkpt><trkpt lat="40.715921" lon="9.3655888"><ele>573.3333333333334</ele><time>2026-05-02T14:17:02.161Z</time></trkpt><trkpt lat="40.7159379" lon="9.365362"><ele>572.6666666666666</ele><time>2026-05-02T14:17:03.16Z</time></trkpt><trkpt lat="40.7159683" lon="9.3651291"><ele>572.0</ele><time>2026-05-02T14:17:04.16Z</time></trkpt><trkpt lat="40.7160143" lon="9.364922"><ele>572.5</ele><time>2026-05-02T14:17:05.161Z</time></trkpt><trkpt lat="40.7160811" lon="9.3647521"><ele>573.0</ele><time>2026-05-02T14:17:06.16Z</time></trkpt><trkpt lat="40.7161543" lon="9.3646256"><ele>573.5</ele><time>2026-05-02T14:17:07.161Z</time></trkpt><trkpt lat="40.7162548" lon="9.3645511"><ele>574.0</ele><time>2026-05-02T14:17:08.161Z</time></trkpt><trkpt lat="40.7163595" lon="9.3645167"><ele>574.0</ele><time>2026-05-02T14:17:09.16Z</time></trkpt><trkpt lat="40.7164874" lon="9.3645191"><ele>574.0</ele><time>2026-05-02T14:17:10.161Z</time></trkpt><trkpt lat="40.7166302" lon="9.3645287"><ele>574.0</ele><time>2026-05-02T14:17:11.161Z</time></trkpt><trkpt lat="40.7167657" lon="9.3645139"><ele>574.0</ele><time>2026-05-02T14:17:12.16Z</time></trkpt><trkpt lat="40.7168792" lon="9.3644365"><ele>574.75</ele><time>2026-05-02T14:17:13.161Z</time></trkpt><trkpt lat="40.7169664" lon="9.364313"><ele>575.5</ele><time>2026-05-02T14:17:14.161Z</time></trkpt><trkpt lat="40.7170369" lon="9.3641463"><ele>576.25</ele><time>2026-05-02T14:17:15.16Z</time></trkpt><trkpt lat="40.7171135" lon="9.3639531"><ele>577.0</ele><time>2026-05-02T14:17:16.161Z</time></trkpt><trkpt lat="40.7172042" lon="9.363748"><ele>577.0</ele><time>2026-05-02T14:17:17.161Z</time></trkpt><trkpt lat="40.7173155" lon="9.3635343"><ele>577.0</ele><time>2026-05-02T14:17:18.16Z</time></trkpt><trkpt lat="40.7174197" lon="9.3633266"><ele>577.0</ele><time>2026-05-02T14:17:19.16Z</time></trkpt><trkpt lat="40.7175209" lon="9.3631415"><ele>576.5</ele><time>2026-05-02T14:17:20.16Z</time></trkpt><trkpt lat="40.7176062" lon="9.3629812"><ele>576.0</ele><time>2026-05-02T14:17:21.16Z</time></trkpt><trkpt lat="40.7177131" lon="9.3628596"><ele>575.5</ele><time>2026-05-02T14:17:22.16Z</time></trkpt><trkpt lat="40.7178362" lon="9.3627742"><ele>575.0</ele><time>2026-05-02T14:17:23.16Z</time></trkpt><trkpt lat="40.71798" lon="9.3627269"><ele>574.5</ele><time>2026-05-02T14:17:24.161Z</time></trkpt><trkpt lat="40.7181289" lon="9.3627228"><ele>574.0</ele><time>2026-05-02T14:17:25.16Z</time></trkpt><trkpt lat="40.7182719" lon="9.3627438"><ele>573.5</ele><time>2026-05-02T14:17:26.161Z</time></trkpt><trkpt lat="40.7184076" lon="9.3628084"><ele>573.0</ele><time>2026-05-02T14:17:27.16Z</time></trkpt><trkpt lat="40.7185358" lon="9.3628144"><ele>574.5</ele><time>2026-05-02T14:17:28.16Z</time></trkpt><trkpt lat="40.7186485" lon="9.3627555"><ele>576.0</ele><time>2026-05-02T14:17:29.161Z</time></trkpt><trkpt lat="40.7187481" lon="9.3626486"><ele>577.5</ele><time>2026-05-02T14:17:30.161Z</time></trkpt><trkpt lat="40.7188383" lon="9.3625062"><ele>579.0</ele><time>2026-05-02T14:17:31.16Z</time></trkpt><trkpt lat="40.7189272" lon="9.362383"><ele>579.0</ele><time>2026-05-02T14:17:32.161Z</time></trkpt><trkpt lat="40.7190275" lon="9.3623003"><ele>579.0</ele><time>2026-05-02T14:17:33.16Z</time></trkpt><trkpt lat="40.7191518" lon="9.362271"><ele>579.0</ele><time>2026-05-02T14:17:34.161Z</time></trkpt><trkpt lat="40.7192916" lon="9.3622886"><ele>579.0</ele><time>2026-05-02T14:17:35.16Z</time></trkpt><trkpt lat="40.719443" lon="9.3623334"><ele>579.75</ele><time>2026-05-02T14:17:36.161Z</time></trkpt><trkpt lat="40.719587" lon="9.3623656"><ele>580.5</ele><time>2026-05-02T14:17:37.161Z</time></trkpt><trkpt lat="40.7197331" lon="9.3623665"><ele>581.25</ele><time>2026-05-02T14:17:38.161Z</time></trkpt><trkpt lat="40.7198473" lon="9.3622351"><ele>582.0</ele><time>2026-05-02T14:17:39.161Z</time></trkpt><trkpt lat="40.7199732" lon="9.3620952"><ele>579.0</ele><time>2026-05-02T14:17:40.16Z</time></trkpt><trkpt lat="40.7200965" lon="9.3619419"><ele>576.0</ele><time>2026-05-02T14:17:41.16Z</time></trkpt><trkpt lat="40.720209" lon="9.3618067"><ele>573.0</ele><time>2026-05-02T14:17:42.16Z</time></trkpt><trkpt lat="40.7203196" lon="9.3617059"><ele>573.0</ele><time>2026-05-02T14:17:43.16Z</time></trkpt><trkpt lat="40.7204584" lon="9.3616387"><ele>573.0</ele><time>2026-05-02T14:17:44.161Z</time></trkpt><trkpt lat="40.7206144" lon="9.3616021"><ele>573.0</ele><time>2026-05-02T14:17:45.161Z</time></trkpt><trkpt lat="40.720792" lon="9.3615986"><ele>573.0</ele><time>2026-05-02T14:17:46.16Z</time></trkpt><trkpt lat="40.7209564" lon="9.3616068"><ele>573.0</ele><time>2026-05-02T14:17:47.16Z</time></trkpt><trkpt lat="40.7210942" lon="9.3616214"><ele>573.0</ele><time>2026-05-02T14:17:48.161Z</time></trkpt><trkpt lat="40.7212109" lon="9.3616552"><ele>573.0</ele><time>2026-05-02T14:17:49.161Z</time></trkpt><trkpt lat="40.721297" lon="9.3617304"><ele>571.5</ele><time>2026-05-02T14:17:50.16Z</time></trkpt><trkpt lat="40.7213543" lon="9.3618505"><ele>570.0</ele><time>2026-05-02T14:17:51.16Z</time></trkpt><trkpt lat="40.7213883" lon="9.362011"><ele>568.5</ele><time>2026-05-02T14:17:52.161Z</time></trkpt><trkpt lat="40.7214166" lon="9.362198"><ele>567.0</ele><time>2026-05-02T14:17:53.161Z</time></trkpt><trkpt lat="40.7214506" lon="9.3623655"><ele>567.0</ele><time>2026-05-02T14:17:54.161Z</time></trkpt><trkpt lat="40.7215154" lon="9.3624807"><ele>567.0</ele><time>2026-05-02T14:17:55.161Z</time></trkpt><trkpt lat="40.7215996" lon="9.3625395"><ele>567.0</ele><time>2026-05-02T14:17:56.16Z</time></trkpt><trkpt lat="40.7216983" lon="9.3625141"><ele>567.0</ele><time>2026-05-02T14:17:57.161Z</time></trkpt><trkpt lat="40.7217735" lon="9.3624363"><ele>567.0</ele><time>2026-05-02T14:17:58.16Z</time></trkpt><trkpt lat="40.7218221" lon="9.3623159"><ele>565.75</ele><time>2026-05-02T14:17:59.161Z</time></trkpt><trkpt lat="40.7218647" lon="9.3621817"><ele>564.5</ele><time>2026-05-02T14:18:00.16Z</time></trkpt><trkpt lat="40.7219333" lon="9.3620435"><ele>563.25</ele><time>2026-05-02T14:18:01.16Z</time></trkpt><trkpt lat="40.7220475" lon="9.3619145"><ele>562.0</ele><time>2026-05-02T14:18:02.16Z</time></trkpt><trkpt lat="40.7221673" lon="9.3617811"><ele>561.25</ele><time>2026-05-02T14:18:03.161Z</time></trkpt><trkpt lat="40.722291" lon="9.3616671"><ele>560.5</ele><time>2026-05-02T14:18:04.16Z</time></trkpt><trkpt lat="40.7224125" lon="9.3615704"><ele>559.75</ele><time>2026-05-02T14:18:05.16Z</time></trkpt><trkpt lat="40.722527" lon="9.3615316"><ele>559.0</ele><time>2026-05-02T14:18:06.161Z</time></trkpt><trkpt lat="40.7226726" lon="9.3615488"><ele>555.6666666666667</ele><time>2026-05-02T14:18:07.16Z</time></trkpt><trkpt lat="40.7228321" lon="9.3615992"><ele>552.3333333333334</ele><time>2026-05-02T14:18:08.16Z</time></trkpt><trkpt lat="40.7229947" lon="9.3616778"><ele>549.0</ele><time>2026-05-02T14:18:09.161Z</time></trkpt><trkpt lat="40.7231469" lon="9.3617816"><ele>549.0</ele><time>2026-05-02T14:18:10.16Z</time></trkpt><trkpt lat="40.7232794" lon="9.3619107"><ele>549.0</ele><time>2026-05-02T14:18:11.16Z</time></trkpt><trkpt lat="40.7233973" lon="9.3620427"><ele>549.0</ele><time>2026-05-02T14:18:12.161Z</time></trkpt><trkpt lat="40.7235026" lon="9.3621687"><ele>549.75</ele><time>2026-05-02T14:18:13.161Z</time></trkpt><trkpt lat="40.7236201" lon="9.3622633"><ele>550.5</ele><time>2026-05-02T14:18:14.16Z</time></trkpt><trkpt lat="40.7237366" lon="9.3622735"><ele>551.25</ele><time>2026-05-02T14:18:15.161Z</time></trkpt><trkpt lat="40.7238473" lon="9.3622459"><ele>552.0</ele><time>2026-05-02T14:18:16.16Z</time></trkpt><trkpt lat="40.7239334" lon="9.3621541"><ele>552.0</ele><time>2026-05-02T14:18:17.16Z</time></trkpt><trkpt lat="40.7239879" lon="9.3620214"><ele>552.0</ele><time>2026-05-02T14:18:18.16Z</time></trkpt><trkpt lat="40.723998" lon="9.361861"><ele>552.0</ele><time>2026-05-02T14:18:19.161Z</time></trkpt><trkpt lat="40.7239698" lon="9.3616872"><ele>552.0</ele><time>2026-05-02T14:18:20.16Z</time></trkpt><trkpt lat="40.7239295" lon="9.3615196"><ele>549.0</ele><time>2026-05-02T14:18:21.161Z</time></trkpt><trkpt lat="40.7238948" lon="9.3613552"><ele>546.0</ele><time>2026-05-02T14:18:22.16Z</time></trkpt><trkpt lat="40.7238927" lon="9.3611892"><ele>543.0</ele><time>2026-05-02T14:18:23.16Z</time></trkpt><trkpt lat="40.7239309" lon="9.361046"><ele>540.0</ele><time>2026-05-02T14:18:24.16Z</time></trkpt><trkpt lat="40.7240016" lon="9.3609404"><ele>540.0</ele><time>2026-05-02T14:18:25.16Z</time></trkpt><trkpt lat="40.724102" lon="9.3608784"><ele>540.0</ele><time>2026-05-02T14:18:26.16Z</time></trkpt><trkpt lat="40.7242128" lon="9.3608574"><ele>540.0</ele><time>2026-05-02T14:18:27.16Z</time></trkpt><trkpt lat="40.7243394" lon="9.3608952"><ele>540.0</ele><time>2026-05-02T14:18:28.161Z</time></trkpt><trkpt lat="40.7244994" lon="9.3609404"><ele>536.0</ele><time>2026-05-02T14:18:29.16Z</time></trkpt><trkpt lat="40.7246796" lon="9.3610023"><ele>532.0</ele><time>2026-05-02T14:18:30.161Z</time></trkpt><trkpt lat="40.7248691" lon="9.3610871"><ele>528.0</ele><time>2026-05-02T14:18:31.16Z</time></trkpt><trkpt lat="40.7250716" lon="9.3611855"><ele>524.5</ele><time>2026-05-02T14:18:32.161Z</time></trkpt><trkpt lat="40.7252805" lon="9.3612759"><ele>521.0</ele><time>2026-05-02T14:18:33.161Z</time></trkpt><trkpt lat="40.7255035" lon="9.3613499"><ele>530.0</ele><time>2026-05-02T14:18:34.161Z</time></trkpt><trkpt lat="40.7257446" lon="9.3614028"><ele>539.0</ele><time>2026-05-02T14:18:35.161Z</time></trkpt><trkpt lat="40.725974" lon="9.3614506"><ele>536.6666666666666</ele><time>2026-05-02T14:18:36.161Z</time></trkpt><trkpt lat="40.7261916" lon="9.3614942"><ele>534.3333333333334</ele><time>2026-05-02T14:18:37.161Z</time></trkpt><trkpt lat="40.7263944" lon="9.3615221"><ele>532.0</ele><time>2026-05-02T14:18:38.16Z</time></trkpt><trkpt lat="40.7265847" lon="9.3615309"><ele>532.0</ele><time>2026-05-02T14:18:39.16Z</time></trkpt><trkpt lat="40.7267633" lon="9.3615196"><ele>532.0</ele><time>2026-05-02T14:18:40.161Z</time></trkpt><trkpt lat="40.7269351" lon="9.3615163"><ele>532.0</ele><time>2026-05-02T14:18:41.16Z</time></trkpt><trkpt lat="40.7270928" lon="9.361537"><ele>529.75</ele><time>2026-05-02T14:18:42.16Z</time></trkpt><trkpt lat="40.7272336" lon="9.361588"><ele>527.5</ele><time>2026-05-02T14:18:43.161Z</time></trkpt><trkpt lat="40.7273668" lon="9.361679"><ele>525.25</ele><time>2026-05-02T14:18:44.16Z</time></trkpt><trkpt lat="40.727489" lon="9.3618008"><ele>523.0</ele><time>2026-05-02T14:18:45.16Z</time></trkpt><trkpt lat="40.7276148" lon="9.3618973"><ele>521.75</ele><time>2026-05-02T14:18:46.161Z</time></trkpt><trkpt lat="40.7277481" lon="9.3619481"><ele>520.5</ele><time>2026-05-02T14:18:47.161Z</time></trkpt><trkpt lat="40.7278936" lon="9.3619552"><ele>519.25</ele><time>2026-05-02T14:18:48.161Z</time></trkpt><trkpt lat="40.7280413" lon="9.361955"><ele>518.0</ele><time>2026-05-02T14:18:49.16Z</time></trkpt><trkpt lat="40.7282037" lon="9.3619666"><ele>518.0</ele><time>2026-05-02T14:18:50.16Z</time></trkpt><trkpt lat="40.7283765" lon="9.3619817"><ele>518.0</ele><time>2026-05-02T14:18:51.16Z</time></trkpt><trkpt lat="40.7285466" lon="9.3619759"><ele>518.0</ele><time>2026-05-02T14:18:52.16Z</time></trkpt><trkpt lat="40.7287174" lon="9.3619333"><ele>517.3333333333333</ele><time>2026-05-02T14:18:53.16Z</time></trkpt><trkpt lat="40.7288823" lon="9.3618601"><ele>516.6666666666666</ele><time>2026-05-02T14:18:54.16Z</time></trkpt><trkpt lat="40.7290326" lon="9.3617622"><ele>516.0</ele><time>2026-05-02T14:18:55.161Z</time></trkpt><trkpt lat="40.7291836" lon="9.3616837"><ele>516.0</ele><time>2026-05-02T14:18:56.161Z</time></trkpt><trkpt lat="40.7293439" lon="9.3616335"><ele>516.0</ele><time>2026-05-02T14:18:57.161Z</time></trkpt><trkpt lat="40.7295181" lon="9.3616089"><ele>516.0</ele><time>2026-05-02T14:18:58.16Z</time></trkpt><trkpt lat="40.7296966" lon="9.3616033"><ele>515.6666666666666</ele><time>2026-05-02T14:18:59.16Z</time></trkpt><trkpt lat="40.7298713" lon="9.3615993"><ele>515.3333333333333</ele><time>2026-05-02T14:19:00.161Z</time></trkpt><trkpt lat="40.7300428" lon="9.3616305"><ele>515.0</ele><time>2026-05-02T14:19:01.16Z</time></trkpt><trkpt lat="40.730213" lon="9.3616916"><ele>514.6666666666666</ele><time>2026-05-02T14:19:02.16Z</time></trkpt><trkpt lat="40.7303829" lon="9.3617815"><ele>514.3333333333334</ele><time>2026-05-02T14:19:03.161Z</time></trkpt><trkpt lat="40.7305552" lon="9.361881"><ele>514.0</ele><time>2026-05-02T14:19:04.16Z</time></trkpt><trkpt lat="40.7307242" lon="9.3619769"><ele>514.0</ele><time>2026-05-02T14:19:05.161Z</time></trkpt><trkpt lat="40.7308945" lon="9.362056"><ele>514.0</ele><time>2026-05-02T14:19:06.161Z</time></trkpt><trkpt lat="40.7310563" lon="9.3621256"><ele>514.0</ele><time>2026-05-02T14:19:07.161Z</time></trkpt><trkpt lat="40.7312123" lon="9.362183"><ele>511.6666666666667</ele><time>2026-05-02T14:19:08.16Z</time></trkpt><trkpt lat="40.7313483" lon="9.3622485"><ele>509.33333333333337</ele><time>2026-05-02T14:19:09.16Z</time></trkpt><trkpt lat="40.731489" lon="9.3623486"><ele>507.0</ele><time>2026-05-02T14:19:10.16Z</time></trkpt><trkpt lat="40.7316232" lon="9.362473"><ele>507.0</ele><time>2026-05-02T14:19:11.161Z</time></trkpt><trkpt lat="40.7317507" lon="9.3626032"><ele>507.0</ele><time>2026-05-02T14:19:12.16Z</time></trkpt><trkpt lat="40.7318536" lon="9.3627248"><ele>507.0</ele><time>2026-05-02T14:19:13.161Z</time></trkpt><trkpt lat="40.7319461" lon="9.3628656"><ele>507.0</ele><time>2026-05-02T14:19:14.16Z</time></trkpt><trkpt lat="40.732004" lon="9.3630258"><ele>506.8</ele><time>2026-05-02T14:19:15.16Z</time></trkpt><trkpt lat="40.73205" lon="9.3631765"><ele>506.6</ele><time>2026-05-02T14:19:16.16Z</time></trkpt><trkpt lat="40.7321179" lon="9.3632889"><ele>506.40000000000003</ele><time>2026-05-02T14:19:17.16Z</time></trkpt><trkpt lat="40.732202" lon="9.3633506"><ele>506.20000000000005</ele><time>2026-05-02T14:19:18.161Z</time></trkpt><trkpt lat="40.7323079" lon="9.3633325"><ele>506.0</ele><time>2026-05-02T14:19:19.161Z</time></trkpt><trkpt lat="40.7323965" lon="9.3633021"><ele>506.0</ele><time>2026-05-02T14:19:20.16Z</time></trkpt><trkpt lat="40.7324427" lon="9.3632052"><ele>506.0</ele><time>2026-05-02T14:19:21.16Z</time></trkpt><trkpt lat="40.7324435" lon="9.3630319"><ele>506.0</ele><time>2026-05-02T14:19:22.16Z</time></trkpt><trkpt lat="40.732467" lon="9.3628397"><ele>506.0</ele><time>2026-05-02T14:19:23.16Z</time></trkpt><trkpt lat="40.7324712" lon="9.362633"><ele>504.66666666666663</ele><time>2026-05-02T14:19:24.16Z</time></trkpt><trkpt lat="40.7324414" lon="9.362412"><ele>503.33333333333337</ele><time>2026-05-02T14:19:25.16Z</time></trkpt><trkpt lat="40.7323899" lon="9.3621812"><ele>502.0</ele><time>2026-05-02T14:19:26.161Z</time></trkpt><trkpt lat="40.7323209" lon="9.361971"><ele>501.0</ele><time>2026-05-02T14:19:27.161Z</time></trkpt><trkpt lat="40.7322619" lon="9.3617857"><ele>500.0</ele><time>2026-05-02T14:19:28.161Z</time></trkpt><trkpt lat="40.7322215" lon="9.3616177"><ele>499.0</ele><time>2026-05-02T14:19:29.161Z</time></trkpt><trkpt lat="40.7321998" lon="9.3614567"><ele>498.0</ele><time>2026-05-02T14:19:30.161Z</time></trkpt><trkpt lat="40.7322181" lon="9.3613298"><ele>496.25</ele><time>2026-05-02T14:19:31.16Z</time></trkpt><trkpt lat="40.7323221" lon="9.361284"><ele>494.5</ele><time>2026-05-02T14:19:32.161Z</time></trkpt><trkpt lat="40.7324375" lon="9.3612465"><ele>492.75</ele><time>2026-05-02T14:19:33.161Z</time></trkpt><trkpt lat="40.7325875" lon="9.3612418"><ele>491.0</ele><time>2026-05-02T14:19:34.161Z</time></trkpt><trkpt lat="40.7327731" lon="9.3612606"><ele>489.66666666666663</ele><time>2026-05-02T14:19:35.16Z</time></trkpt><trkpt lat="40.7329531" lon="9.361272"><ele>488.33333333333337</ele><time>2026-05-02T14:19:36.161Z</time></trkpt><trkpt lat="40.7331019" lon="9.3612469"><ele>487.0</ele><time>2026-05-02T14:19:37.161Z</time></trkpt><trkpt lat="40.733253" lon="9.3611751"><ele>487.0</ele><time>2026-05-02T14:19:38.16Z</time></trkpt><trkpt lat="40.7333988" lon="9.3610674"><ele>487.0</ele><time>2026-05-02T14:19:39.16Z</time></trkpt><trkpt lat="40.7335549" lon="9.3609461"><ele>487.0</ele><time>2026-05-02T14:19:40.16Z</time></trkpt><trkpt lat="40.7337076" lon="9.3608182"><ele>486.0</ele><time>2026-05-02T14:19:41.16Z</time></trkpt><trkpt lat="40.7338423" lon="9.3606759"><ele>485.0</ele><time>2026-05-02T14:19:42.161Z</time></trkpt><trkpt lat="40.7339673" lon="9.3605053"><ele>484.0</ele><time>2026-05-02T14:19:43.16Z</time></trkpt><trkpt lat="40.7340857" lon="9.3603331"><ele>484.0</ele><time>2026-05-02T14:19:44.16Z</time></trkpt><trkpt lat="40.7341971" lon="9.3601823"><ele>484.0</ele><time>2026-05-02T14:19:45.16Z</time></trkpt><trkpt lat="40.7343204" lon="9.3600485"><ele>484.0</ele><time>2026-05-02T14:19:46.161Z</time></trkpt><trkpt lat="40.7344816" lon="9.3599685"><ele>487.33333333333337</ele><time>2026-05-02T14:19:47.16Z</time></trkpt><trkpt lat="40.7346527" lon="9.3599032"><ele>490.66666666666663</ele><time>2026-05-02T14:19:48.16Z</time></trkpt><trkpt lat="40.7348227" lon="9.3598414"><ele>494.0</ele><time>2026-05-02T14:19:49.16Z</time></trkpt><trkpt lat="40.7349954" lon="9.3597675"><ele>489.0</ele><time>2026-05-02T14:19:50.16Z</time></trkpt><trkpt lat="40.7351513" lon="9.3596622"><ele>484.0</ele><time>2026-05-02T14:19:51.16Z</time></trkpt><trkpt lat="40.7353164" lon="9.3595584"><ele>479.0</ele><time>2026-05-02T14:19:52.16Z</time></trkpt><trkpt lat="40.7354915" lon="9.3594714"><ele>479.0</ele><time>2026-05-02T14:19:53.161Z</time></trkpt><trkpt lat="40.7356661" lon="9.3594169"><ele>479.0</ele><time>2026-05-02T14:19:54.16Z</time></trkpt><trkpt lat="40.7358288" lon="9.3593958"><ele>479.0</ele><time>2026-05-02T14:19:55.16Z</time></trkpt><trkpt lat="40.7359952" lon="9.3594158"><ele>478.0</ele><time>2026-05-02T14:19:56.161Z</time></trkpt><trkpt lat="40.7361687" lon="9.3594581"><ele>477.0</ele><time>2026-05-02T14:19:57.16Z</time></trkpt><trkpt lat="40.7363348" lon="9.359528"><ele>476.0</ele><time>2026-05-02T14:19:58.161Z</time></trkpt><trkpt lat="40.7364947" lon="9.3596238"><ele>480.3333333333333</ele><time>2026-05-02T14:19:59.161Z</time></trkpt><trkpt lat="40.736636" lon="9.3597515"><ele>484.66666666666663</ele><time>2026-05-02T14:20:00.16Z</time></trkpt><trkpt lat="40.7367608" lon="9.3599048"><ele>489.0</ele><time>2026-05-02T14:20:01.161Z</time></trkpt><trkpt lat="40.7368691" lon="9.3600919"><ele>487.33333333333337</ele><time>2026-05-02T14:20:02.16Z</time></trkpt><trkpt lat="40.736973" lon="9.3602972"><ele>485.6666666666667</ele><time>2026-05-02T14:20:03.161Z</time></trkpt><trkpt lat="40.7370773" lon="9.3605217"><ele>484.0</ele><time>2026-05-02T14:20:04.161Z</time></trkpt><trkpt lat="40.7371804" lon="9.3607306"><ele>484.0</ele><time>2026-05-02T14:20:05.161Z</time></trkpt><trkpt lat="40.7372816" lon="9.3609305"><ele>484.0</ele><time>2026-05-02T14:20:06.161Z</time></trkpt><trkpt lat="40.7373895" lon="9.3611182"><ele>484.0</ele><time>2026-05-02T14:20:07.161Z</time></trkpt><trkpt lat="40.7375209" lon="9.3612739"><ele>484.6666666666667</ele><time>2026-05-02T14:20:08.16Z</time></trkpt><trkpt lat="40.7376735" lon="9.3614005"><ele>485.33333333333337</ele><time>2026-05-02T14:20:09.161Z</time></trkpt><trkpt lat="40.7378442" lon="9.3615089"><ele>486.0</ele><time>2026-05-02T14:20:10.161Z</time></trkpt><trkpt lat="40.738" lon="9.3616339"><ele>486.0</ele><time>2026-05-02T14:20:11.161Z</time></trkpt><trkpt lat="40.7381443" lon="9.3617857"><ele>486.0</ele><time>2026-05-02T14:20:12.16Z</time></trkpt><trkpt lat="40.738275" lon="9.3619728"><ele>486.0</ele><time>2026-05-02T14:20:13.16Z</time></trkpt><trkpt lat="40.7383869" lon="9.3621814"><ele>485.66666666666663</ele><time>2026-05-02T14:20:14.16Z</time></trkpt><trkpt lat="40.7384935" lon="9.3624043"><ele>485.3333333333333</ele><time>2026-05-02T14:20:15.161Z</time></trkpt><trkpt lat="40.7385939" lon="9.3626413"><ele>485.0</ele><time>2026-05-02T14:20:16.16Z</time></trkpt><trkpt lat="40.7386948" lon="9.3628838"><ele>482.66666666666663</ele><time>2026-05-02T14:20:17.161Z</time></trkpt><trkpt lat="40.7387968" lon="9.3631333"><ele>480.33333333333337</ele><time>2026-05-02T14:20:18.16Z</time></trkpt><trkpt lat="40.7389015" lon="9.3633891"><ele>478.0</ele><time>2026-05-02T14:20:19.161Z</time></trkpt><trkpt lat="40.7390184" lon="9.3636391"><ele>475.6666666666667</ele><time>2026-05-02T14:20:20.161Z</time></trkpt><trkpt lat="40.7391428" lon="9.3638767"><ele>473.33333333333337</ele><time>2026-05-02T14:20:21.161Z</time></trkpt><trkpt lat="40.7392747" lon="9.3641094"><ele>471.0</ele><time>2026-05-02T14:20:22.161Z</time></trkpt><trkpt lat="40.7394113" lon="9.3643449"><ele>470.66666666666663</ele><time>2026-05-02T14:20:23.16Z</time></trkpt><trkpt lat="40.7395479" lon="9.3645833"><ele>470.3333333333333</ele><time>2026-05-02T14:20:24.161Z</time></trkpt><trkpt lat="40.7396784" lon="9.3648214"><ele>470.0</ele><time>2026-05-02T14:20:25.161Z</time></trkpt><trkpt lat="40.7398114" lon="9.3650454"><ele>469.66666666666663</ele><time>2026-05-02T14:20:26.161Z</time></trkpt><trkpt lat="40.7399418" lon="9.3652436"><ele>469.33333333333337</ele><time>2026-05-02T14:20:27.16Z</time></trkpt><trkpt lat="40.7400791" lon="9.365413"><ele>469.0</ele><time>2026-05-02T14:20:28.161Z</time></trkpt><trkpt lat="40.7402317" lon="9.3655586"><ele>467.6666666666667</ele><time>2026-05-02T14:20:29.161Z</time></trkpt><trkpt lat="40.7403955" lon="9.3656765"><ele>466.33333333333337</ele><time>2026-05-02T14:20:30.161Z</time></trkpt><trkpt lat="40.7405693" lon="9.3657686"><ele>465.0</ele><time>2026-05-02T14:20:31.16Z</time></trkpt><trkpt lat="40.7407613" lon="9.3658146"><ele>465.0</ele><time>2026-05-02T14:20:32.16Z</time></trkpt><trkpt lat="40.7409639" lon="9.3658315"><ele>465.0</ele><time>2026-05-02T14:20:33.16Z</time></trkpt><trkpt lat="40.7411812" lon="9.365844"><ele>465.0</ele><time>2026-05-02T14:20:34.16Z</time></trkpt><trkpt lat="40.7413996" lon="9.3658548"><ele>465.5</ele><time>2026-05-02T14:20:35.16Z</time></trkpt><trkpt lat="40.7416238" lon="9.3658659"><ele>466.0</ele><time>2026-05-02T14:20:36.16Z</time></trkpt><trkpt lat="40.7418509" lon="9.3658814"><ele>467.33333333333337</ele><time>2026-05-02T14:20:37.161Z</time></trkpt><trkpt lat="40.7420732" lon="9.3658924"><ele>468.66666666666663</ele><time>2026-05-02T14:20:38.161Z</time></trkpt><trkpt lat="40.7422986" lon="9.3659021"><ele>470.0</ele><time>2026-05-02T14:20:39.161Z</time></trkpt><trkpt lat="40.742526" lon="9.3659216"><ele>469.0</ele><time>2026-05-02T14:20:40.16Z</time></trkpt><trkpt lat="40.7427579" lon="9.3659232"><ele>468.0</ele><time>2026-05-02T14:20:41.161Z</time></trkpt><trkpt lat="40.7429852" lon="9.3659321"><ele>468.0</ele><time>2026-05-02T14:20:42.161Z</time></trkpt><trkpt lat="40.7432159" lon="9.3659416"><ele>468.0</ele><time>2026-05-02T14:20:43.161Z</time></trkpt><trkpt lat="40.7434524" lon="9.3659472"><ele>467.0</ele><time>2026-05-02T14:20:44.161Z</time></trkpt><trkpt lat="40.7436924" lon="9.3659538"><ele>466.0</ele><time>2026-05-02T14:20:45.161Z</time></trkpt><trkpt lat="40.7439238" lon="9.3659602"><ele>466.0</ele><time>2026-05-02T14:20:46.161Z</time></trkpt><trkpt lat="40.7441467" lon="9.3659684"><ele>466.0</ele><time>2026-05-02T14:20:47.161Z</time></trkpt><trkpt lat="40.7443612" lon="9.3659862"><ele>466.0</ele><time>2026-05-02T14:20:48.16Z</time></trkpt><trkpt lat="40.7445656" lon="9.3659923"><ele>469.0</ele><time>2026-05-02T14:20:49.16Z</time></trkpt><trkpt lat="40.7447665" lon="9.3660007"><ele>472.0</ele><time>2026-05-02T14:20:50.161Z</time></trkpt><trkpt lat="40.7449625" lon="9.3660207"><ele>475.0</ele><time>2026-05-02T14:20:51.16Z</time></trkpt><trkpt lat="40.7451518" lon="9.3660519"><ele>475.0</ele><time>2026-05-02T14:20:52.16Z</time></trkpt><trkpt lat="40.7453376" lon="9.3661041"><ele>475.0</ele><time>2026-05-02T14:20:53.161Z</time></trkpt><trkpt lat="40.7455158" lon="9.3661836"><ele>475.0</ele><time>2026-05-02T14:20:54.161Z</time></trkpt><trkpt lat="40.745678" lon="9.3662918"><ele>475.0</ele><time>2026-05-02T14:20:55.161Z</time></trkpt><trkpt lat="40.745829" lon="9.3664363"><ele>475.0</ele><time>2026-05-02T14:20:56.161Z</time></trkpt><trkpt lat="40.7459732" lon="9.3666009"><ele>475.0</ele><time>2026-05-02T14:20:57.16Z</time></trkpt><trkpt lat="40.7461184" lon="9.3667927"><ele>477.33333333333337</ele><time>2026-05-02T14:20:58.16Z</time></trkpt><trkpt lat="40.7462582" lon="9.3670157"><ele>479.66666666666663</ele><time>2026-05-02T14:20:59.161Z</time></trkpt><trkpt lat="40.7463954" lon="9.3672405"><ele>482.0</ele><time>2026-05-02T14:21:00.16Z</time></trkpt><trkpt lat="40.7465304" lon="9.3674678"><ele>482.0</ele><time>2026-05-02T14:21:01.161Z</time></trkpt><trkpt lat="40.7466664" lon="9.3676935"><ele>482.0</ele><time>2026-05-02T14:21:02.16Z</time></trkpt><trkpt lat="40.7467965" lon="9.3679204"><ele>482.0</ele><time>2026-05-02T14:21:03.161Z</time></trkpt><trkpt lat="40.7469304" lon="9.3681212"><ele>486.0</ele><time>2026-05-02T14:21:04.16Z</time></trkpt><trkpt lat="40.7470711" lon="9.3683156"><ele>490.0</ele><time>2026-05-02T14:21:05.16Z</time></trkpt><trkpt lat="40.7472167" lon="9.3684854"><ele>494.0</ele><time>2026-05-02T14:21:06.161Z</time></trkpt><trkpt lat="40.7473549" lon="9.3686403"><ele>494.0</ele><time>2026-05-02T14:21:07.16Z</time></trkpt><trkpt lat="40.7474908" lon="9.3687759"><ele>494.0</ele><time>2026-05-02T14:21:08.161Z</time></trkpt><trkpt lat="40.7476331" lon="9.3688765"><ele>494.0</ele><time>2026-05-02T14:21:09.161Z</time></trkpt><trkpt lat="40.7477905" lon="9.3689477"><ele>493.0</ele><time>2026-05-02T14:21:10.161Z</time></trkpt><trkpt lat="40.747956" lon="9.3689891"><ele>492.0</ele><time>2026-05-02T14:21:11.16Z</time></trkpt><trkpt lat="40.7481339" lon="9.3690266"><ele>491.0</ele><time>2026-05-02T14:21:12.161Z</time></trkpt><trkpt lat="40.748316" lon="9.3690727"><ele>491.0</ele><time>2026-05-02T14:21:13.161Z</time></trkpt><trkpt lat="40.7485059" lon="9.3691385"><ele>491.0</ele><time>2026-05-02T14:21:14.161Z</time></trkpt><trkpt lat="40.7487011" lon="9.3692245"><ele>491.0</ele><time>2026-05-02T14:21:15.161Z</time></trkpt><trkpt lat="40.7488886" lon="9.369319"><ele>495.66666666666663</ele><time>2026-05-02T14:21:16.161Z</time></trkpt><trkpt lat="40.7490635" lon="9.36942"><ele>500.33333333333337</ele><time>2026-05-02T14:21:17.161Z</time></trkpt><trkpt lat="40.7492263" lon="9.3695286"><ele>505.0</ele><time>2026-05-02T14:21:18.161Z</time></trkpt><trkpt lat="40.7493684" lon="9.3696498"><ele>503.0</ele><time>2026-05-02T14:21:19.16Z</time></trkpt><trkpt lat="40.749488" lon="9.3697779"><ele>501.0</ele><time>2026-05-02T14:21:20.161Z</time></trkpt><trkpt lat="40.7495954" lon="9.3698875"><ele>499.0</ele><time>2026-05-02T14:21:21.16Z</time></trkpt><trkpt lat="40.7497072" lon="9.3699828"><ele>497.0</ele><time>2026-05-02T14:21:22.161Z</time></trkpt><trkpt lat="40.74985" lon="9.3699849"><ele>497.0</ele><time>2026-05-02T14:21:23.16Z</time></trkpt><trkpt lat="40.7499962" lon="9.3699953"><ele>497.0</ele><time>2026-05-02T14:21:24.161Z</time></trkpt><trkpt lat="40.7501537" lon="9.3699955"><ele>497.0</ele><time>2026-05-02T14:21:25.16Z</time></trkpt><trkpt lat="40.7503091" lon="9.3699457"><ele>496.3333333333333</ele><time>2026-05-02T14:21:26.161Z</time></trkpt><trkpt lat="40.7504649" lon="9.3698458"><ele>495.66666666666663</ele><time>2026-05-02T14:21:27.161Z</time></trkpt><trkpt lat="40.7506362" lon="9.3697104"><ele>495.0</ele><time>2026-05-02T14:21:28.161Z</time></trkpt><trkpt lat="40.7508092" lon="9.3695622"><ele>498.0</ele><time>2026-05-02T14:21:29.16Z</time></trkpt><trkpt lat="40.750974" lon="9.36942"><ele>501.0</ele><time>2026-05-02T14:21:30.16Z</time></trkpt><trkpt lat="40.7511258" lon="9.3692906"><ele>504.0</ele><time>2026-05-02T14:21:31.16Z</time></trkpt><trkpt lat="40.7512554" lon="9.3691491"><ele>504.0</ele><time>2026-05-02T14:21:32.16Z</time></trkpt><trkpt lat="40.7513657" lon="9.3689905"><ele>504.0</ele><time>2026-05-02T14:21:33.16Z</time></trkpt><trkpt lat="40.7514586" lon="9.3688181"><ele>504.0</ele><time>2026-05-02T14:21:34.161Z</time></trkpt><trkpt lat="40.7515646" lon="9.368666"><ele>505.0</ele><time>2026-05-02T14:21:35.161Z</time></trkpt><trkpt lat="40.7516958" lon="9.3685305"><ele>506.0</ele><time>2026-05-02T14:21:36.16Z</time></trkpt><trkpt lat="40.7518517" lon="9.3684076"><ele>507.0</ele><time>2026-05-02T14:21:37.161Z</time></trkpt><trkpt lat="40.7520196" lon="9.368282"><ele>507.0</ele><time>2026-05-02T14:21:38.16Z</time></trkpt><trkpt lat="40.7522008" lon="9.3681536"><ele>507.0</ele><time>2026-05-02T14:21:39.161Z</time></trkpt><trkpt lat="40.7523901" lon="9.3680319"><ele>507.0</ele><time>2026-05-02T14:21:40.161Z</time></trkpt><trkpt lat="40.7525921" lon="9.3679137"><ele>511.0</ele><time>2026-05-02T14:21:41.16Z</time></trkpt><trkpt lat="40.752793" lon="9.3678265"><ele>515.0</ele><time>2026-05-02T14:21:42.161Z</time></trkpt><trkpt lat="40.7530066" lon="9.3677833"><ele>519.0</ele><time>2026-05-02T14:21:43.161Z</time></trkpt><trkpt lat="40.7532261" lon="9.3677545"><ele>519.0</ele><time>2026-05-02T14:21:44.161Z</time></trkpt><trkpt lat="40.7534307" lon="9.3677229"><ele>519.0</ele><time>2026-05-02T14:21:45.161Z</time></trkpt><trkpt lat="40.7536209" lon="9.3676952"><ele>519.0</ele><time>2026-05-02T14:21:46.161Z</time></trkpt><trkpt lat="40.7537762" lon="9.3676728"><ele>518.25</ele><time>2026-05-02T14:21:47.16Z</time></trkpt><trkpt lat="40.7539126" lon="9.3676335"><ele>517.5</ele><time>2026-05-02T14:21:48.16Z</time></trkpt><trkpt lat="40.7540427" lon="9.3675623"><ele>516.75</ele><time>2026-05-02T14:21:49.161Z</time></trkpt><trkpt lat="40.7541629" lon="9.3674532"><ele>516.0</ele><time>2026-05-02T14:21:50.161Z</time></trkpt><trkpt lat="40.7542822" lon="9.3673239"><ele>516.0</ele><time>2026-05-02T14:21:51.16Z</time></trkpt><trkpt lat="40.7544145" lon="9.3671947"><ele>516.0</ele><time>2026-05-02T14:21:52.161Z</time></trkpt><trkpt lat="40.7545694" lon="9.3670942"><ele>516.0</ele><time>2026-05-02T14:21:53.161Z</time></trkpt><trkpt lat="40.7547428" lon="9.3670079"><ele>518.0</ele><time>2026-05-02T14:21:54.161Z</time></trkpt><trkpt lat="40.7549314" lon="9.366927"><ele>520.0</ele><time>2026-05-02T14:21:55.161Z</time></trkpt><trkpt lat="40.755132" lon="9.3668392"><ele>522.0</ele><time>2026-05-02T14:21:56.16Z</time></trkpt><trkpt lat="40.7553298" lon="9.3667547"><ele>522.0</ele><time>2026-05-02T14:21:57.161Z</time></trkpt><trkpt lat="40.7555166" lon="9.3666808"><ele>522.0</ele><time>2026-05-02T14:21:58.161Z</time></trkpt><trkpt lat="40.7556902" lon="9.3665992"><ele>522.0</ele><time>2026-05-02T14:21:59.16Z</time></trkpt><trkpt lat="40.7558385" lon="9.3664988"><ele>522.0</ele><time>2026-05-02T14:22:00.16Z</time></trkpt><trkpt lat="40.7559634" lon="9.3664062"><ele>522.0</ele><time>2026-05-02T14:22:01.161Z</time></trkpt><trkpt lat="40.756079" lon="9.3663309"><ele>522.0</ele><time>2026-05-02T14:22:02.161Z</time></trkpt><trkpt lat="40.7561967" lon="9.3663004"><ele>522.0</ele><time>2026-05-02T14:22:03.161Z</time></trkpt><trkpt lat="40.7563172" lon="9.3663154"><ele>522.3333333333334</ele><time>2026-05-02T14:22:04.16Z</time></trkpt><trkpt lat="40.7564396" lon="9.3663837"><ele>522.6666666666667</ele><time>2026-05-02T14:22:05.16Z</time></trkpt><trkpt lat="40.7565795" lon="9.3664864"><ele>523.0</ele><time>2026-05-02T14:22:06.161Z</time></trkpt><trkpt lat="40.7567407" lon="9.3666133"><ele>525.0</ele><time>2026-05-02T14:22:07.16Z</time></trkpt><trkpt lat="40.7568881" lon="9.3667332"><ele>527.0</ele><time>2026-05-02T14:22:08.16Z</time></trkpt><trkpt lat="40.7570363" lon="9.3668266"><ele>529.0</ele><time>2026-05-02T14:22:09.16Z</time></trkpt><trkpt lat="40.7571865" lon="9.3668909"><ele>529.0</ele><time>2026-05-02T14:22:10.161Z</time></trkpt><trkpt lat="40.7573341" lon="9.3668926"><ele>529.0</ele><time>2026-05-02T14:22:11.161Z</time></trkpt><trkpt lat="40.7574912" lon="9.3668582"><ele>529.0</ele><time>2026-05-02T14:22:12.161Z</time></trkpt><trkpt lat="40.7576631" lon="9.3668094"><ele>530.0</ele><time>2026-05-02T14:22:13.161Z</time></trkpt><trkpt lat="40.7578432" lon="9.3667721"><ele>531.0</ele><time>2026-05-02T14:22:14.161Z</time></trkpt><trkpt lat="40.7580257" lon="9.366758"><ele>532.0</ele><time>2026-05-02T14:22:15.161Z</time></trkpt><trkpt lat="40.7581994" lon="9.3667611"><ele>532.0</ele><time>2026-05-02T14:22:16.161Z</time></trkpt><trkpt lat="40.7583655" lon="9.3667549"><ele>532.0</ele><time>2026-05-02T14:22:17.16Z</time></trkpt><trkpt lat="40.7585228" lon="9.3667273"><ele>532.0</ele><time>2026-05-02T14:22:18.16Z</time></trkpt><trkpt lat="40.7586626" lon="9.3666432"><ele>533.6666666666667</ele><time>2026-05-02T14:22:19.161Z</time></trkpt><trkpt lat="40.7587957" lon="9.366536"><ele>535.3333333333334</ele><time>2026-05-02T14:22:20.16Z</time></trkpt><trkpt lat="40.7589324" lon="9.3664244"><ele>537.0</ele><time>2026-05-02T14:22:21.16Z</time></trkpt><trkpt lat="40.7590735" lon="9.3663297"><ele>537.25</ele><time>2026-05-02T14:22:22.16Z</time></trkpt><trkpt lat="40.7592277" lon="9.3663034"><ele>537.5</ele><time>2026-05-02T14:22:23.161Z</time></trkpt><trkpt lat="40.7593683" lon="9.366277"><ele>537.75</ele><time>2026-05-02T14:22:24.161Z</time></trkpt><trkpt lat="40.7595019" lon="9.366258"><ele>538.0</ele><time>2026-05-02T14:22:25.161Z</time></trkpt><trkpt lat="40.7596121" lon="9.366251"><ele>538.1999999999999</ele><time>2026-05-02T14:22:26.16Z</time></trkpt><trkpt lat="40.7597232" lon="9.366241"><ele>538.4</ele><time>2026-05-02T14:22:27.16Z</time></trkpt><trkpt lat="40.7598163" lon="9.3662383"><ele>538.5999999999999</ele><time>2026-05-02T14:22:28.16Z</time></trkpt><trkpt lat="40.7599112" lon="9.3662239"><ele>538.8</ele><time>2026-05-02T14:22:29.16Z</time></trkpt><trkpt lat="40.7600057" lon="9.3662056"><ele>539.0</ele><time>2026-05-02T14:22:30.16Z</time></trkpt><trkpt lat="40.7601205" lon="9.3661633"><ele>537.5</ele><time>2026-05-02T14:22:31.16Z</time></trkpt><trkpt lat="40.7602369" lon="9.3661099"><ele>536.0</ele><time>2026-05-02T14:22:32.16Z</time></trkpt><trkpt lat="40.7603512" lon="9.36602"><ele>534.5</ele><time>2026-05-02T14:22:33.161Z</time></trkpt><trkpt lat="40.7604797" lon="9.3659154"><ele>533.0</ele><time>2026-05-02T14:22:34.161Z</time></trkpt><trkpt lat="40.7606067" lon="9.3658149"><ele>533.0</ele><time>2026-05-02T14:22:35.16Z</time></trkpt><trkpt lat="40.7607291" lon="9.3657081"><ele>533.0</ele><time>2026-05-02T14:22:36.161Z</time></trkpt><trkpt lat="40.7608511" lon="9.3656215"><ele>533.0</ele><time>2026-05-02T14:22:37.16Z</time></trkpt><trkpt lat="40.760983" lon="9.3655859"><ele>533.0</ele><time>2026-05-02T14:22:38.161Z</time></trkpt><trkpt lat="40.761104" lon="9.3655784"><ele>532.0</ele><time>2026-05-02T14:22:39.161Z</time></trkpt><trkpt lat="40.7612348" lon="9.3656238"><ele>531.0</ele><time>2026-05-02T14:22:40.161Z</time></trkpt><trkpt lat="40.7613641" lon="9.3657078"><ele>530.0</ele><time>2026-05-02T14:22:41.161Z</time></trkpt><trkpt lat="40.7615111" lon="9.3658143"><ele>529.0</ele><time>2026-05-02T14:22:42.16Z</time></trkpt><trkpt lat="40.761662" lon="9.3659223"><ele>529.0</ele><time>2026-05-02T14:22:43.161Z</time></trkpt><trkpt lat="40.7618057" lon="9.3660228"><ele>529.0</ele><time>2026-05-02T14:22:44.16Z</time></trkpt><trkpt lat="40.7619437" lon="9.3661207"><ele>529.0</ele><time>2026-05-02T14:22:45.161Z</time></trkpt><trkpt lat="40.7620788" lon="9.3661939"><ele>528.0</ele><time>2026-05-02T14:22:46.161Z</time></trkpt><trkpt lat="40.7622273" lon="9.3662378"><ele>527.0</ele><time>2026-05-02T14:22:47.16Z</time></trkpt><trkpt lat="40.7623821" lon="9.3662426"><ele>526.0</ele><time>2026-05-02T14:22:48.16Z</time></trkpt><trkpt lat="40.7625524" lon="9.3662107"><ele>525.0</ele><time>2026-05-02T14:22:49.161Z</time></trkpt><trkpt lat="40.7627438" lon="9.3661654"><ele>524.0</ele><time>2026-05-02T14:22:50.16Z</time></trkpt><trkpt lat="40.7629015" lon="9.3661014"><ele>523.0</ele><time>2026-05-02T14:22:51.16Z</time></trkpt><trkpt lat="40.7630541" lon="9.366044"><ele>523.0</ele><time>2026-05-02T14:22:52.161Z</time></trkpt><trkpt lat="40.7632037" lon="9.3659803"><ele>523.0</ele><time>2026-05-02T14:22:53.161Z</time></trkpt><trkpt lat="40.7633367" lon="9.3658813"><ele>523.0</ele><time>2026-05-02T14:22:54.161Z</time></trkpt><trkpt lat="40.763469" lon="9.3657628"><ele>523.5</ele><time>2026-05-02T14:22:55.161Z</time></trkpt><trkpt lat="40.7635902" lon="9.365638"><ele>524.0</ele><time>2026-05-02T14:22:56.161Z</time></trkpt><trkpt lat="40.7637058" lon="9.3655226"><ele>524.5</ele><time>2026-05-02T14:22:57.161Z</time></trkpt><trkpt lat="40.7638187" lon="9.3654527"><ele>525.0</ele><time>2026-05-02T14:22:58.16Z</time></trkpt><trkpt lat="40.7639307" lon="9.3654068"><ele>525.0</ele><time>2026-05-02T14:22:59.161Z</time></trkpt><trkpt lat="40.7640446" lon="9.3654215"><ele>525.0</ele><time>2026-05-02T14:23:00.161Z</time></trkpt><trkpt lat="40.7641711" lon="9.3654771"><ele>525.0</ele><time>2026-05-02T14:23:01.161Z</time></trkpt><trkpt lat="40.7642963" lon="9.3655625"><ele>525.0</ele><time>2026-05-02T14:23:02.16Z</time></trkpt><trkpt lat="40.7644269" lon="9.3656702"><ele>523.0</ele><time>2026-05-02T14:23:03.161Z</time></trkpt><trkpt lat="40.7645269" lon="9.3657987"><ele>521.0</ele><time>2026-05-02T14:23:04.16Z</time></trkpt><trkpt lat="40.7646292" lon="9.3658959"><ele>519.0</ele><time>2026-05-02T14:23:05.161Z</time></trkpt><trkpt lat="40.7647402" lon="9.3659437"><ele>517.0</ele><time>2026-05-02T14:23:06.161Z</time></trkpt><trkpt lat="40.7648574" lon="9.3659402"><ele>517.0</ele><time>2026-05-02T14:23:07.16Z</time></trkpt><trkpt lat="40.7649837" lon="9.3659062"><ele>517.0</ele><time>2026-05-02T14:23:08.16Z</time></trkpt><trkpt lat="40.7651204" lon="9.36585"><ele>517.0</ele><time>2026-05-02T14:23:09.16Z</time></trkpt><trkpt lat="40.7652659" lon="9.3657611"><ele>517.0</ele><time>2026-05-02T14:23:10.16Z</time></trkpt><trkpt lat="40.765399" lon="9.3656876"><ele>516.75</ele><time>2026-05-02T14:23:11.161Z</time></trkpt><trkpt lat="40.7655271" lon="9.3656382"><ele>516.5</ele><time>2026-05-02T14:23:12.161Z</time></trkpt><trkpt lat="40.7656546" lon="9.3656263"><ele>516.25</ele><time>2026-05-02T14:23:13.16Z</time></trkpt><trkpt lat="40.7657736" lon="9.3656632"><ele>516.0</ele><time>2026-05-02T14:23:14.16Z</time></trkpt><trkpt lat="40.7659105" lon="9.3657467"><ele>517.0</ele><time>2026-05-02T14:23:15.16Z</time></trkpt><trkpt lat="40.7660675" lon="9.365838"><ele>518.0</ele><time>2026-05-02T14:23:16.161Z</time></trkpt><trkpt lat="40.7662448" lon="9.3659334"><ele>519.0</ele><time>2026-05-02T14:23:17.16Z</time></trkpt><trkpt lat="40.7664194" lon="9.3660089"><ele>519.0</ele><time>2026-05-02T14:23:18.161Z</time></trkpt><trkpt lat="40.7666086" lon="9.3660627"><ele>519.0</ele><time>2026-05-02T14:23:19.161Z</time></trkpt><trkpt lat="40.7668105" lon="9.366097"><ele>519.0</ele><time>2026-05-02T14:23:20.161Z</time></trkpt><trkpt lat="40.767016" lon="9.3661381"><ele>521.5</ele><time>2026-05-02T14:23:21.16Z</time></trkpt><trkpt lat="40.7672308" lon="9.366205"><ele>524.0</ele><time>2026-05-02T14:23:22.161Z</time></trkpt><trkpt lat="40.7674604" lon="9.366291"><ele>518.5</ele><time>2026-05-02T14:23:23.161Z</time></trkpt><trkpt lat="40.7677013" lon="9.366372"><ele>513.0</ele><time>2026-05-02T14:23:24.161Z</time></trkpt><trkpt lat="40.7679419" lon="9.3664599"><ele>513.0</ele><time>2026-05-02T14:23:25.16Z</time></trkpt><trkpt lat="40.7681678" lon="9.3665331"><ele>513.0</ele><time>2026-05-02T14:23:26.16Z</time></trkpt><trkpt lat="40.7683672" lon="9.3665929"><ele>513.0</ele><time>2026-05-02T14:23:27.16Z</time></trkpt><trkpt lat="40.7685431" lon="9.3666471"><ele>517.0</ele><time>2026-05-02T14:23:28.16Z</time></trkpt><trkpt lat="40.7687017" lon="9.3667288"><ele>521.0</ele><time>2026-05-02T14:23:29.161Z</time></trkpt><trkpt lat="40.7688462" lon="9.366851"><ele>525.0</ele><time>2026-05-02T14:23:30.161Z</time></trkpt><trkpt lat="40.7689885" lon="9.3669894"><ele>525.0</ele><time>2026-05-02T14:23:31.16Z</time></trkpt><trkpt lat="40.7691338" lon="9.3671435"><ele>525.0</ele><time>2026-05-02T14:23:32.161Z</time></trkpt><trkpt lat="40.769321" lon="9.3672447"><ele>525.0</ele><time>2026-05-02T14:23:33.161Z</time></trkpt><trkpt lat="40.7695147" lon="9.3673325"><ele>520.3333333333334</ele><time>2026-05-02T14:23:34.16Z</time></trkpt><trkpt lat="40.7697209" lon="9.3673924"><ele>515.6666666666667</ele><time>2026-05-02T14:23:35.16Z</time></trkpt><trkpt lat="40.7699187" lon="9.3674428"><ele>511.0</ele><time>2026-05-02T14:23:36.161Z</time></trkpt><trkpt lat="40.7701062" lon="9.3674902"><ele>512.0</ele><time>2026-05-02T14:23:37.161Z</time></trkpt><trkpt lat="40.7702823" lon="9.3675591"><ele>513.0</ele><time>2026-05-02T14:23:38.16Z</time></trkpt><trkpt lat="40.7704427" lon="9.3676428"><ele>514.0</ele><time>2026-05-02T14:23:39.16Z</time></trkpt><trkpt lat="40.7706028" lon="9.367689"><ele>514.0</ele><time>2026-05-02T14:23:40.16Z</time></trkpt><trkpt lat="40.770779" lon="9.3677169"><ele>514.0</ele><time>2026-05-02T14:23:41.161Z</time></trkpt><trkpt lat="40.7709601" lon="9.3677592"><ele>514.0</ele><time>2026-05-02T14:23:42.16Z</time></trkpt><trkpt lat="40.771137" lon="9.367813"><ele>515.3333333333334</ele><time>2026-05-02T14:23:43.16Z</time></trkpt><trkpt lat="40.7713075" lon="9.3679064"><ele>516.6666666666666</ele><time>2026-05-02T14:23:44.16Z</time></trkpt><trkpt lat="40.7714785" lon="9.3679665"><ele>518.0</ele><time>2026-05-02T14:23:45.161Z</time></trkpt><trkpt lat="40.7716383" lon="9.3680132"><ele>516.75</ele><time>2026-05-02T14:23:46.16Z</time></trkpt><trkpt lat="40.7717741" lon="9.3680766"><ele>515.5</ele><time>2026-05-02T14:23:47.161Z</time></trkpt><trkpt lat="40.7718927" lon="9.3681807"><ele>514.25</ele><time>2026-05-02T14:23:48.161Z</time></trkpt><trkpt lat="40.7720051" lon="9.368306"><ele>513.0</ele><time>2026-05-02T14:23:49.161Z</time></trkpt><trkpt lat="40.7721303" lon="9.3684255"><ele>513.0</ele><time>2026-05-02T14:23:50.161Z</time></trkpt><trkpt lat="40.7722847" lon="9.3685317"><ele>513.0</ele><time>2026-05-02T14:23:51.161Z</time></trkpt><trkpt lat="40.7724323" lon="9.3686482"><ele>513.0</ele><time>2026-05-02T14:23:52.161Z</time></trkpt><trkpt lat="40.7725713" lon="9.3688014"><ele>513.3333333333334</ele><time>2026-05-02T14:23:53.16Z</time></trkpt><trkpt lat="40.7727044" lon="9.3689883"><ele>513.6666666666667</ele><time>2026-05-02T14:23:54.16Z</time></trkpt><trkpt lat="40.7728347" lon="9.3691729"><ele>514.0</ele><time>2026-05-02T14:23:55.161Z</time></trkpt><trkpt lat="40.7729766" lon="9.3693375"><ele>514.0</ele><time>2026-05-02T14:23:56.161Z</time></trkpt><trkpt lat="40.7731325" lon="9.3694806"><ele>514.0</ele><time>2026-05-02T14:23:57.16Z</time></trkpt><trkpt lat="40.773303" lon="9.3696178"><ele>514.0</ele><time>2026-05-02T14:23:58.16Z</time></trkpt><trkpt lat="40.7734698" lon="9.369739"><ele>510.33333333333337</ele><time>2026-05-02T14:23:59.16Z</time></trkpt><trkpt lat="40.7736415" lon="9.3698406"><ele>506.66666666666663</ele><time>2026-05-02T14:24:00.161Z</time></trkpt><trkpt lat="40.7738251" lon="9.3699167"><ele>503.0</ele><time>2026-05-02T14:24:01.161Z</time></trkpt><trkpt lat="40.7740188" lon="9.3699725"><ele>503.0</ele><time>2026-05-02T14:24:02.16Z</time></trkpt><trkpt lat="40.7742181" lon="9.3700151"><ele>503.0</ele><time>2026-05-02T14:24:03.161Z</time></trkpt><trkpt lat="40.774409" lon="9.3700615"><ele>503.0</ele><time>2026-05-02T14:24:04.161Z</time></trkpt><trkpt lat="40.7745947" lon="9.3700711"><ele>502.0</ele><time>2026-05-02T14:24:05.16Z</time></trkpt><trkpt lat="40.7747854" lon="9.3700481"><ele>501.0</ele><time>2026-05-02T14:24:06.16Z</time></trkpt><trkpt lat="40.7749794" lon="9.369989"><ele>500.0</ele><time>2026-05-02T14:24:07.161Z</time></trkpt><trkpt lat="40.7751856" lon="9.3699144"><ele>497.0</ele><time>2026-05-02T14:24:08.161Z</time></trkpt><trkpt lat="40.7754103" lon="9.3698312"><ele>494.0</ele><time>2026-05-02T14:24:09.16Z</time></trkpt><trkpt lat="40.7756306" lon="9.3697427"><ele>495.0</ele><time>2026-05-02T14:24:10.16Z</time></trkpt><trkpt lat="40.7758527" lon="9.3696538"><ele>496.0</ele><time>2026-05-02T14:24:11.16Z</time></trkpt><trkpt lat="40.7760666" lon="9.3695647"><ele>494.6666666666667</ele><time>2026-05-02T14:24:12.161Z</time></trkpt><trkpt lat="40.7762889" lon="9.3694763"><ele>493.33333333333337</ele><time>2026-05-02T14:24:13.161Z</time></trkpt><trkpt lat="40.7764946" lon="9.3693939"><ele>492.0</ele><time>2026-05-02T14:24:14.161Z</time></trkpt><trkpt lat="40.7766993" lon="9.3693137"><ele>491.33333333333337</ele><time>2026-05-02T14:24:15.16Z</time></trkpt><trkpt lat="40.7768987" lon="9.3692372"><ele>490.6666666666667</ele><time>2026-05-02T14:24:16.16Z</time></trkpt><trkpt lat="40.7770924" lon="9.3691627"><ele>490.0</ele><time>2026-05-02T14:24:17.16Z</time></trkpt><trkpt lat="40.7772813" lon="9.3690895"><ele>490.0</ele><time>2026-05-02T14:24:18.161Z</time></trkpt><trkpt lat="40.7774646" lon="9.3690182"><ele>490.0</ele><time>2026-05-02T14:24:19.161Z</time></trkpt><trkpt lat="40.7776425" lon="9.3689479"><ele>490.0</ele><time>2026-05-02T14:24:20.16Z</time></trkpt><trkpt lat="40.7778119" lon="9.3688786"><ele>491.0</ele><time>2026-05-02T14:24:21.161Z</time></trkpt><trkpt lat="40.7779806" lon="9.3688172"><ele>492.0</ele><time>2026-05-02T14:24:22.16Z</time></trkpt><trkpt lat="40.7781494" lon="9.3687596"><ele>493.0</ele><time>2026-05-02T14:24:23.16Z</time></trkpt><trkpt lat="40.7783156" lon="9.3686927"><ele>493.0</ele><time>2026-05-02T14:24:24.16Z</time></trkpt><trkpt lat="40.7784818" lon="9.3686314"><ele>493.0</ele><time>2026-05-02T14:24:25.161Z</time></trkpt><trkpt lat="40.7786546" lon="9.3685657"><ele>493.0</ele><time>2026-05-02T14:24:26.161Z</time></trkpt><trkpt lat="40.7788291" lon="9.3684984"><ele>492.0</ele><time>2026-05-02T14:24:27.161Z</time></trkpt><trkpt lat="40.7790086" lon="9.3684287"><ele>491.0</ele><time>2026-05-02T14:24:28.161Z</time></trkpt><trkpt lat="40.7791893" lon="9.368363"><ele>490.0</ele><time>2026-05-02T14:24:29.161Z</time></trkpt><trkpt lat="40.7793757" lon="9.3683"><ele>489.6666666666667</ele><time>2026-05-02T14:24:30.16Z</time></trkpt><trkpt lat="40.7795456" lon="9.3682223"><ele>489.33333333333337</ele><time>2026-05-02T14:24:31.161Z</time></trkpt><trkpt lat="40.7797132" lon="9.368127"><ele>489.0</ele><time>2026-05-02T14:24:32.16Z</time></trkpt><trkpt lat="40.7798628" lon="9.367998"><ele>489.0</ele><time>2026-05-02T14:24:33.161Z</time></trkpt><trkpt lat="40.7799972" lon="9.3678353"><ele>489.0</ele><time>2026-05-02T14:24:34.161Z</time></trkpt><trkpt lat="40.7801327" lon="9.3676442"><ele>489.0</ele><time>2026-05-02T14:24:35.161Z</time></trkpt><trkpt lat="40.7802683" lon="9.3674432"><ele>490.0</ele><time>2026-05-02T14:24:36.16Z</time></trkpt><trkpt lat="40.7804003" lon="9.3672575"><ele>491.0</ele><time>2026-05-02T14:24:37.16Z</time></trkpt><trkpt lat="40.7805221" lon="9.3670891"><ele>492.0</ele><time>2026-05-02T14:24:38.16Z</time></trkpt><trkpt lat="40.7806444" lon="9.3669686"><ele>492.0</ele><time>2026-05-02T14:24:39.161Z</time></trkpt><trkpt lat="40.780769" lon="9.3668927"><ele>492.0</ele><time>2026-05-02T14:24:40.16Z</time></trkpt><trkpt lat="40.7809021" lon="9.3668539"><ele>492.0</ele><time>2026-05-02T14:24:41.16Z</time></trkpt><trkpt lat="40.7810492" lon="9.3668352"><ele>492.0</ele><time>2026-05-02T14:24:42.16Z</time></trkpt><trkpt lat="40.7812147" lon="9.3668127"><ele>493.0</ele><time>2026-05-02T14:24:43.161Z</time></trkpt><trkpt lat="40.7813999" lon="9.3667933"><ele>494.0</ele><time>2026-05-02T14:24:44.16Z</time></trkpt><trkpt lat="40.7815814" lon="9.3667663"><ele>495.0</ele><time>2026-05-02T14:24:45.161Z</time></trkpt><trkpt lat="40.7817435" lon="9.3667365"><ele>496.5</ele><time>2026-05-02T14:24:46.16Z</time></trkpt><trkpt lat="40.7818876" lon="9.3666777"><ele>498.0</ele><time>2026-05-02T14:24:47.16Z</time></trkpt><trkpt lat="40.7820079" lon="9.3665785"><ele>499.5</ele><time>2026-05-02T14:24:48.161Z</time></trkpt><trkpt lat="40.7821096" lon="9.3664299"><ele>501.0</ele><time>2026-05-02T14:24:49.16Z</time></trkpt><trkpt lat="40.7822029" lon="9.3662585"><ele>501.0</ele><time>2026-05-02T14:24:50.16Z</time></trkpt><trkpt lat="40.7822909" lon="9.3660816"><ele>501.0</ele><time>2026-05-02T14:24:51.161Z</time></trkpt><trkpt lat="40.7823758" lon="9.3659346"><ele>501.0</ele><time>2026-05-02T14:24:52.16Z</time></trkpt><trkpt lat="40.7824626" lon="9.3658282"><ele>501.0</ele><time>2026-05-02T14:24:53.161Z</time></trkpt><trkpt lat="40.7825624" lon="9.3657695"><ele>501.0</ele><time>2026-05-02T14:24:54.16Z</time></trkpt><trkpt lat="40.7826681" lon="9.3657727"><ele>501.0</ele><time>2026-05-02T14:24:55.16Z</time></trkpt><trkpt lat="40.7827696" lon="9.3658294"><ele>501.0</ele><time>2026-05-02T14:24:56.16Z</time></trkpt><trkpt lat="40.7828758" lon="9.3659132"><ele>501.0</ele><time>2026-05-02T14:24:57.16Z</time></trkpt><trkpt lat="40.7830067" lon="9.3660314"><ele>501.33333333333337</ele><time>2026-05-02T14:24:58.161Z</time></trkpt><trkpt lat="40.7831606" lon="9.3661676"><ele>501.6666666666667</ele><time>2026-05-02T14:24:59.16Z</time></trkpt><trkpt lat="40.7833008" lon="9.3662885"><ele>502.0</ele><time>2026-05-02T14:25:00.161Z</time></trkpt><trkpt lat="40.7834469" lon="9.3663941"><ele>504.0</ele><time>2026-05-02T14:25:01.161Z</time></trkpt><trkpt lat="40.7836018" lon="9.3664767"><ele>506.0</ele><time>2026-05-02T14:25:02.161Z</time></trkpt><trkpt lat="40.783775" lon="9.3664912"><ele>508.0</ele><time>2026-05-02T14:25:03.161Z</time></trkpt><trkpt lat="40.7839583" lon="9.3664873"><ele>508.0</ele><time>2026-05-02T14:25:04.161Z</time></trkpt><trkpt lat="40.7841428" lon="9.366476"><ele>508.0</ele><time>2026-05-02T14:25:05.16Z</time></trkpt><trkpt lat="40.7843082" lon="9.3664548"><ele>508.0</ele><time>2026-05-02T14:25:06.16Z</time></trkpt><trkpt lat="40.784451" lon="9.3664119"><ele>507.25</ele><time>2026-05-02T14:25:07.161Z</time></trkpt><trkpt lat="40.7845862" lon="9.366352"><ele>506.5</ele><time>2026-05-02T14:25:08.161Z</time></trkpt><trkpt lat="40.7846968" lon="9.366252"><ele>505.75</ele><time>2026-05-02T14:25:09.161Z</time></trkpt><trkpt lat="40.7847748" lon="9.3660484"><ele>505.0</ele><time>2026-05-02T14:25:10.161Z</time></trkpt><trkpt lat="40.7848426" lon="9.365844"><ele>505.0</ele><time>2026-05-02T14:25:11.161Z</time></trkpt><trkpt lat="40.784906" lon="9.3656309"><ele>505.0</ele><time>2026-05-02T14:25:12.161Z</time></trkpt><trkpt lat="40.7849286" lon="9.3654134"><ele>505.0</ele><time>2026-05-02T14:25:13.161Z</time></trkpt><trkpt lat="40.7849221" lon="9.3651819"><ele>506.33333333333337</ele><time>2026-05-02T14:25:14.161Z</time></trkpt><trkpt lat="40.7849032" lon="9.364943"><ele>507.66666666666663</ele><time>2026-05-02T14:25:15.161Z</time></trkpt><trkpt lat="40.7848949" lon="9.3647228"><ele>509.0</ele><time>2026-05-02T14:25:16.161Z</time></trkpt><trkpt lat="40.7849092" lon="9.3645224"><ele>509.75</ele><time>2026-05-02T14:25:17.16Z</time></trkpt><trkpt lat="40.7849568" lon="9.3643527"><ele>510.5</ele><time>2026-05-02T14:25:18.161Z</time></trkpt><trkpt lat="40.7850141" lon="9.36423"><ele>511.25</ele><time>2026-05-02T14:25:19.161Z</time></trkpt><trkpt lat="40.7850561" lon="9.3640976"><ele>512.0</ele><time>2026-05-02T14:25:20.161Z</time></trkpt><trkpt lat="40.7850573" lon="9.3639525"><ele>513.5</ele><time>2026-05-02T14:25:21.16Z</time></trkpt><trkpt lat="40.7850126" lon="9.3638106"><ele>515.0</ele><time>2026-05-02T14:25:22.16Z</time></trkpt><trkpt lat="40.7849323" lon="9.3636758"><ele>516.5</ele><time>2026-05-02T14:25:23.161Z</time></trkpt><trkpt lat="40.7848472" lon="9.3635287"><ele>518.0</ele><time>2026-05-02T14:25:24.16Z</time></trkpt><trkpt lat="40.7847884" lon="9.363368"><ele>518.0</ele><time>2026-05-02T14:25:25.161Z</time></trkpt><trkpt lat="40.7847541" lon="9.3631802"><ele>518.0</ele><time>2026-05-02T14:25:26.16Z</time></trkpt><trkpt lat="40.7847448" lon="9.3629587"><ele>518.0</ele><time>2026-05-02T14:25:27.16Z</time></trkpt><trkpt lat="40.7847463" lon="9.3627089"><ele>518.6666666666666</ele><time>2026-05-02T14:25:28.161Z</time></trkpt><trkpt lat="40.7847516" lon="9.3624253"><ele>519.3333333333334</ele><time>2026-05-02T14:25:29.161Z</time></trkpt><trkpt lat="40.7847524" lon="9.362137"><ele>520.0</ele><time>2026-05-02T14:25:30.16Z</time></trkpt><trkpt lat="40.7847392" lon="9.3618543"><ele>520.3333333333334</ele><time>2026-05-02T14:25:31.16Z</time></trkpt><trkpt lat="40.7847152" lon="9.3615743"><ele>520.6666666666666</ele><time>2026-05-02T14:25:32.161Z</time></trkpt><trkpt lat="40.7846825" lon="9.361294"><ele>521.0</ele><time>2026-05-02T14:25:33.161Z</time></trkpt><trkpt lat="40.7846484" lon="9.3610203"><ele>522.0</ele><time>2026-05-02T14:25:34.161Z</time></trkpt><trkpt lat="40.7846193" lon="9.3607722"><ele>523.0</ele><time>2026-05-02T14:25:35.161Z</time></trkpt><trkpt lat="40.7846025" lon="9.3605586"><ele>524.0</ele><time>2026-05-02T14:25:36.161Z</time></trkpt><trkpt lat="40.7846116" lon="9.3603557"><ele>525.3333333333333</ele><time>2026-05-02T14:25:37.16Z</time></trkpt><trkpt lat="40.7846523" lon="9.3601587"><ele>526.6666666666666</ele><time>2026-05-02T14:25:38.16Z</time></trkpt><trkpt lat="40.7847219" lon="9.3599665"><ele>528.0</ele><time>2026-05-02T14:25:39.16Z</time></trkpt><trkpt lat="40.7847945" lon="9.3597913"><ele>529.75</ele><time>2026-05-02T14:25:40.16Z</time></trkpt><trkpt lat="40.7848915" lon="9.359671"><ele>531.5</ele><time>2026-05-02T14:25:41.16Z</time></trkpt><trkpt lat="40.7850035" lon="9.35959"><ele>533.25</ele><time>2026-05-02T14:25:42.16Z</time></trkpt><trkpt lat="40.7851061" lon="9.3595341"><ele>535.0</ele><time>2026-05-02T14:25:43.16Z</time></trkpt><trkpt lat="40.7852341" lon="9.3595781"><ele>535.0</ele><time>2026-05-02T14:25:44.16Z</time></trkpt><trkpt lat="40.7853661" lon="9.3596392"><ele>535.0</ele><time>2026-05-02T14:25:45.161Z</time></trkpt><trkpt lat="40.785494" lon="9.35975"><ele>535.0</ele><time>2026-05-02T14:25:46.16Z</time></trkpt><trkpt lat="40.7856279" lon="9.3598764"><ele>535.0</ele><time>2026-05-02T14:25:47.161Z</time></trkpt><trkpt lat="40.7857843" lon="9.3600279"><ele>535.0</ele><time>2026-05-02T14:25:48.16Z</time></trkpt><trkpt lat="40.7859338" lon="9.3601726"><ele>535.0</ele><time>2026-05-02T14:25:49.161Z</time></trkpt><trkpt lat="40.7860838" lon="9.3602983"><ele>535.3333333333334</ele><time>2026-05-02T14:25:50.16Z</time></trkpt><trkpt lat="40.7862499" lon="9.3603935"><ele>535.6666666666666</ele><time>2026-05-02T14:25:51.161Z</time></trkpt><trkpt lat="40.7864339" lon="9.3604718"><ele>536.0</ele><time>2026-05-02T14:25:52.161Z</time></trkpt><trkpt lat="40.7866409" lon="9.3605345"><ele>536.0</ele><time>2026-05-02T14:25:53.16Z</time></trkpt><trkpt lat="40.7868307" lon="9.3605809"><ele>536.0</ele><time>2026-05-02T14:25:54.161Z</time></trkpt><trkpt lat="40.787025" lon="9.3605967"><ele>536.0</ele><time>2026-05-02T14:25:55.161Z</time></trkpt><trkpt lat="40.7872202" lon="9.3605843"><ele>535.3333333333333</ele><time>2026-05-02T14:25:56.161Z</time></trkpt><trkpt lat="40.7873985" lon="9.3605654"><ele>534.6666666666666</ele><time>2026-05-02T14:25:57.161Z</time></trkpt><trkpt lat="40.7875678" lon="9.3605409"><ele>534.0</ele><time>2026-05-02T14:25:58.161Z</time></trkpt><trkpt lat="40.7877279" lon="9.3605134"><ele>534.0</ele><time>2026-05-02T14:25:59.161Z</time></trkpt><trkpt lat="40.7878764" lon="9.3604829"><ele>534.0</ele><time>2026-05-02T14:26:00.16Z</time></trkpt><trkpt lat="40.7880142" lon="9.360431"><ele>534.0</ele><time>2026-05-02T14:26:01.161Z</time></trkpt><trkpt lat="40.7881369" lon="9.3603421"><ele>534.0</ele><time>2026-05-02T14:26:02.161Z</time></trkpt><trkpt lat="40.7882406" lon="9.3601863"><ele>534.0</ele><time>2026-05-02T14:26:03.16Z</time></trkpt><trkpt lat="40.7883494" lon="9.3599849"><ele>534.0</ele><time>2026-05-02T14:26:04.16Z</time></trkpt><trkpt lat="40.7884693" lon="9.3597545"><ele>534.0</ele><time>2026-05-02T14:26:05.16Z</time></trkpt><trkpt lat="40.7886025" lon="9.3595041"><ele>533.5</ele><time>2026-05-02T14:26:06.16Z</time></trkpt><trkpt lat="40.7887483" lon="9.3592413"><ele>533.0</ele><time>2026-05-02T14:26:07.16Z</time></trkpt><trkpt lat="40.7888924" lon="9.3589592"><ele>534.0</ele><time>2026-05-02T14:26:08.16Z</time></trkpt><trkpt lat="40.7890388" lon="9.3586696"><ele>535.0</ele><time>2026-05-02T14:26:09.161Z</time></trkpt><trkpt lat="40.7891813" lon="9.3583907"><ele>535.0</ele><time>2026-05-02T14:26:10.16Z</time></trkpt><trkpt lat="40.7893214" lon="9.3581202"><ele>535.0</ele><time>2026-05-02T14:26:11.161Z</time></trkpt><trkpt lat="40.7894625" lon="9.3578519"><ele>536.5</ele><time>2026-05-02T14:26:12.161Z</time></trkpt><trkpt lat="40.7895992" lon="9.357592"><ele>538.0</ele><time>2026-05-02T14:26:13.161Z</time></trkpt><trkpt lat="40.7897335" lon="9.3573315"><ele>538.5</ele><time>2026-05-02T14:26:14.161Z</time></trkpt><trkpt lat="40.7898645" lon="9.3570764"><ele>539.0</ele><time>2026-05-02T14:26:15.161Z</time></trkpt><trkpt lat="40.7899937" lon="9.3568291"><ele>539.0</ele><time>2026-05-02T14:26:16.161Z</time></trkpt><trkpt lat="40.7901155" lon="9.3565978"><ele>539.0</ele><time>2026-05-02T14:26:17.161Z</time></trkpt><trkpt lat="40.790236" lon="9.3563765"><ele>539.0</ele><time>2026-05-02T14:26:18.16Z</time></trkpt><trkpt lat="40.7903488" lon="9.3561515"><ele>541.3333333333333</ele><time>2026-05-02T14:26:19.161Z</time></trkpt><trkpt lat="40.7904568" lon="9.3559197"><ele>543.6666666666666</ele><time>2026-05-02T14:26:20.16Z</time></trkpt><trkpt lat="40.7905413" lon="9.3556743"><ele>546.0</ele><time>2026-05-02T14:26:21.161Z</time></trkpt><trkpt lat="40.7906072" lon="9.3554042"><ele>547.0</ele><time>2026-05-02T14:26:22.16Z</time></trkpt><trkpt lat="40.7906565" lon="9.3551206"><ele>548.0</ele><time>2026-05-02T14:26:23.16Z</time></trkpt><trkpt lat="40.7907052" lon="9.3548444"><ele>549.0</ele><time>2026-05-02T14:26:24.161Z</time></trkpt><trkpt lat="40.7907652" lon="9.354572"><ele>549.6666666666666</ele><time>2026-05-02T14:26:25.161Z</time></trkpt><trkpt lat="40.7908315" lon="9.3542989"><ele>550.3333333333333</ele><time>2026-05-02T14:26:26.16Z</time></trkpt><trkpt lat="40.7908875" lon="9.3540186"><ele>551.0</ele><time>2026-05-02T14:26:27.161Z</time></trkpt><trkpt lat="40.7909364" lon="9.3537314"><ele>551.3333333333333</ele><time>2026-05-02T14:26:28.16Z</time></trkpt><trkpt lat="40.7909785" lon="9.3534544"><ele>551.6666666666666</ele><time>2026-05-02T14:26:29.161Z</time></trkpt><trkpt lat="40.7910127" lon="9.3532097"><ele>552.0</ele><time>2026-05-02T14:26:30.16Z</time></trkpt><trkpt lat="40.791057" lon="9.3529898"><ele>552.0</ele><time>2026-05-02T14:26:31.16Z</time></trkpt><trkpt lat="40.7911227" lon="9.3528025"><ele>552.0</ele><time>2026-05-02T14:26:32.161Z</time></trkpt><trkpt lat="40.791209" lon="9.3526555"><ele>552.0</ele><time>2026-05-02T14:26:33.16Z</time></trkpt><trkpt lat="40.7913137" lon="9.352546"><ele>552.0</ele><time>2026-05-02T14:26:34.16Z</time></trkpt><trkpt lat="40.7914452" lon="9.3524767"><ele>552.0</ele><time>2026-05-02T14:26:35.161Z</time></trkpt><trkpt lat="40.7915997" lon="9.3524532"><ele>552.0</ele><time>2026-05-02T14:26:36.161Z</time></trkpt><trkpt lat="40.791764" lon="9.3524426"><ele>552.0</ele><time>2026-05-02T14:26:37.16Z</time></trkpt><trkpt lat="40.7919277" lon="9.3524073"><ele>551.6666666666666</ele><time>2026-05-02T14:26:38.161Z</time></trkpt><trkpt lat="40.7920916" lon="9.352339"><ele>551.3333333333333</ele><time>2026-05-02T14:26:39.161Z</time></trkpt><trkpt lat="40.7922465" lon="9.3522457"><ele>551.0</ele><time>2026-05-02T14:26:40.16Z</time></trkpt><trkpt lat="40.7923808" lon="9.3520689"><ele>549.6666666666666</ele><time>2026-05-02T14:26:41.161Z</time></trkpt><trkpt lat="40.7924908" lon="9.3518927"><ele>548.3333333333334</ele><time>2026-05-02T14:26:42.16Z</time></trkpt><trkpt lat="40.7926001" lon="9.3517193"><ele>547.0</ele><time>2026-05-02T14:26:43.161Z</time></trkpt><trkpt lat="40.7927181" lon="9.3515734"><ele>547.0</ele><time>2026-05-02T14:26:44.16Z</time></trkpt><trkpt lat="40.7928162" lon="9.3514223"><ele>547.0</ele><time>2026-05-02T14:26:45.16Z</time></trkpt><trkpt lat="40.7928744" lon="9.3512456"><ele>547.0</ele><time>2026-05-02T14:26:46.161Z</time></trkpt><trkpt lat="40.7929126" lon="9.3510616"><ele>547.0</ele><time>2026-05-02T14:26:47.161Z</time></trkpt><trkpt lat="40.7929524" lon="9.3509098"><ele>545.5</ele><time>2026-05-02T14:26:48.161Z</time></trkpt><trkpt lat="40.7930186" lon="9.350807"><ele>544.0</ele><time>2026-05-02T14:26:49.161Z</time></trkpt><trkpt lat="40.7931094" lon="9.350747"><ele>542.5</ele><time>2026-05-02T14:26:50.161Z</time></trkpt><trkpt lat="40.7932232" lon="9.3507332"><ele>541.0</ele><time>2026-05-02T14:26:51.161Z</time></trkpt><trkpt lat="40.7933648" lon="9.350752"><ele>540.0</ele><time>2026-05-02T14:26:52.161Z</time></trkpt><trkpt lat="40.7935223" lon="9.3507886"><ele>539.0</ele><time>2026-05-02T14:26:53.161Z</time></trkpt><trkpt lat="40.7936711" lon="9.3508221"><ele>538.0</ele><time>2026-05-02T14:26:54.16Z</time></trkpt><trkpt lat="40.7938077" lon="9.3508243"><ele>537.0</ele><time>2026-05-02T14:26:55.16Z</time></trkpt><trkpt lat="40.7939294" lon="9.3507666"><ele>537.0</ele><time>2026-05-02T14:26:56.16Z</time></trkpt><trkpt lat="40.7940468" lon="9.3506411"><ele>537.0</ele><time>2026-05-02T14:26:57.16Z</time></trkpt><trkpt lat="40.7941576" lon="9.3504953"><ele>537.0</ele><time>2026-05-02T14:26:58.16Z</time></trkpt><trkpt lat="40.7942598" lon="9.3502628"><ele>534.6666666666666</ele><time>2026-05-02T14:26:59.161Z</time></trkpt><trkpt lat="40.7943648" lon="9.3500251"><ele>532.3333333333333</ele><time>2026-05-02T14:27:00.16Z</time></trkpt><trkpt lat="40.7944564" lon="9.3497993"><ele>530.0</ele><time>2026-05-02T14:27:01.161Z</time></trkpt><trkpt lat="40.7945378" lon="9.349609"><ele>530.0</ele><time>2026-05-02T14:27:02.161Z</time></trkpt><trkpt lat="40.79462" lon="9.3494263"><ele>530.0</ele><time>2026-05-02T14:27:03.161Z</time></trkpt><trkpt lat="40.7947325" lon="9.3493179"><ele>530.0</ele><time>2026-05-02T14:27:04.161Z</time></trkpt><trkpt lat="40.7948701" lon="9.3492367"><ele>530.0</ele><time>2026-05-02T14:27:05.16Z</time></trkpt><trkpt lat="40.7950298" lon="9.3491979"><ele>530.0</ele><time>2026-05-02T14:27:06.161Z</time></trkpt><trkpt lat="40.7951911" lon="9.3491952"><ele>530.0</ele><time>2026-05-02T14:27:07.161Z</time></trkpt><trkpt lat="40.7953252" lon="9.3492305"><ele>529.25</ele><time>2026-05-02T14:27:08.161Z</time></trkpt><trkpt lat="40.7954316" lon="9.3493093"><ele>528.5</ele><time>2026-05-02T14:27:09.16Z</time></trkpt><trkpt lat="40.7955276" lon="9.3494133"><ele>527.75</ele><time>2026-05-02T14:27:10.16Z</time></trkpt><trkpt lat="40.7956133" lon="9.3495413"><ele>527.0</ele><time>2026-05-02T14:27:11.161Z</time></trkpt><trkpt lat="40.7957154" lon="9.3496193"><ele>527.0</ele><time>2026-05-02T14:27:12.161Z</time></trkpt><trkpt lat="40.7958341" lon="9.3496347"><ele>527.0</ele><time>2026-05-02T14:27:13.161Z</time></trkpt><trkpt lat="40.7959619" lon="9.3495879"><ele>527.0</ele><time>2026-05-02T14:27:14.16Z</time></trkpt><trkpt lat="40.7961041" lon="9.3494963"><ele>527.0</ele><time>2026-05-02T14:27:15.16Z</time></trkpt><trkpt lat="40.7962401" lon="9.3493962"><ele>523.5</ele><time>2026-05-02T14:27:16.161Z</time></trkpt><trkpt lat="40.7963701" lon="9.3492783"><ele>520.0</ele><time>2026-05-02T14:27:17.16Z</time></trkpt><trkpt lat="40.7964331" lon="9.3491169"><ele>516.5</ele><time>2026-05-02T14:27:18.16Z</time></trkpt><trkpt lat="40.796499" lon="9.3489332"><ele>513.0</ele><time>2026-05-02T14:27:19.16Z</time></trkpt><trkpt lat="40.7965629" lon="9.34874"><ele>513.0</ele><time>2026-05-02T14:27:20.161Z</time></trkpt><trkpt lat="40.7965968" lon="9.3485512"><ele>513.0</ele><time>2026-05-02T14:27:21.161Z</time></trkpt><trkpt lat="40.7966281" lon="9.348357"><ele>513.0</ele><time>2026-05-02T14:27:22.16Z</time></trkpt><trkpt lat="40.7966505" lon="9.3481891"><ele>513.0</ele><time>2026-05-02T14:27:23.161Z</time></trkpt><trkpt lat="40.7966482" lon="9.3480252"><ele>511.5</ele><time>2026-05-02T14:27:24.16Z</time></trkpt><trkpt lat="40.796601" lon="9.3478708"><ele>510.0</ele><time>2026-05-02T14:27:25.161Z</time></trkpt><trkpt lat="40.7965165" lon="9.3477287"><ele>508.5</ele><time>2026-05-02T14:27:26.16Z</time></trkpt><trkpt lat="40.7964091" lon="9.3475764"><ele>507.0</ele><time>2026-05-02T14:27:27.16Z</time></trkpt><trkpt lat="40.7963036" lon="9.3473844"><ele>502.33333333333337</ele><time>2026-05-02T14:27:28.161Z</time></trkpt><trkpt lat="40.7962034" lon="9.3471897"><ele>497.6666666666667</ele><time>2026-05-02T14:27:29.16Z</time></trkpt><trkpt lat="40.7961072" lon="9.3470038"><ele>493.0</ele><time>2026-05-02T14:27:30.16Z</time></trkpt><trkpt lat="40.7960045" lon="9.3468587"><ele>496.6666666666667</ele><time>2026-05-02T14:27:31.16Z</time></trkpt><trkpt lat="40.7958797" lon="9.3467672"><ele>500.33333333333337</ele><time>2026-05-02T14:27:32.16Z</time></trkpt><trkpt lat="40.7957269" lon="9.3467295"><ele>504.0</ele><time>2026-05-02T14:27:33.161Z</time></trkpt><trkpt lat="40.7955495" lon="9.3467259"><ele>504.0</ele><time>2026-05-02T14:27:34.16Z</time></trkpt><trkpt lat="40.7953664" lon="9.3467161"><ele>504.0</ele><time>2026-05-02T14:27:35.16Z</time></trkpt><trkpt lat="40.7951891" lon="9.3467066"><ele>504.0</ele><time>2026-05-02T14:27:36.16Z</time></trkpt><trkpt lat="40.7950212" lon="9.3467141"><ele>504.0</ele><time>2026-05-02T14:27:37.161Z</time></trkpt><trkpt lat="40.7948707" lon="9.3467319"><ele>504.0</ele><time>2026-05-02T14:27:38.161Z</time></trkpt><trkpt lat="40.7947412" lon="9.3467574"><ele>504.0</ele><time>2026-05-02T14:27:39.161Z</time></trkpt><trkpt lat="40.7946222" lon="9.3467659"><ele>504.0</ele><time>2026-05-02T14:27:40.16Z</time></trkpt><trkpt lat="40.7945322" lon="9.3466894"><ele>504.0</ele><time>2026-05-02T14:27:41.161Z</time></trkpt><trkpt lat="40.7944705" lon="9.3465824"><ele>504.0</ele><time>2026-05-02T14:27:42.161Z</time></trkpt><trkpt lat="40.7944592" lon="9.3464497"><ele>504.0</ele><time>2026-05-02T14:27:43.161Z</time></trkpt><trkpt lat="40.7944802" lon="9.3462984"><ele>504.0</ele><time>2026-05-02T14:27:44.161Z</time></trkpt><trkpt lat="40.7945564" lon="9.3461124"><ele>501.33333333333337</ele><time>2026-05-02T14:27:45.161Z</time></trkpt><trkpt lat="40.7946526" lon="9.34594"><ele>498.6666666666667</ele><time>2026-05-02T14:27:46.16Z</time></trkpt><trkpt lat="40.7947951" lon="9.3457768"><ele>496.0</ele><time>2026-05-02T14:27:47.161Z</time></trkpt><trkpt lat="40.7949665" lon="9.3456174"><ele>496.33333333333337</ele><time>2026-05-02T14:27:48.161Z</time></trkpt><trkpt lat="40.7951396" lon="9.3454613"><ele>496.66666666666663</ele><time>2026-05-02T14:27:49.16Z</time></trkpt><trkpt lat="40.7953073" lon="9.3453247"><ele>497.0</ele><time>2026-05-02T14:27:50.16Z</time></trkpt><trkpt lat="40.7954835" lon="9.3452204"><ele>495.66666666666663</ele><time>2026-05-02T14:27:51.16Z</time></trkpt><trkpt lat="40.7956833" lon="9.3451439"><ele>494.33333333333337</ele><time>2026-05-02T14:27:52.16Z</time></trkpt><trkpt lat="40.7958959" lon="9.3450796"><ele>493.0</ele><time>2026-05-02T14:27:53.161Z</time></trkpt><trkpt lat="40.7961073" lon="9.3450125"><ele>492.0</ele><time>2026-05-02T14:27:54.161Z</time></trkpt><trkpt lat="40.796301" lon="9.344981"><ele>491.0</ele><time>2026-05-02T14:27:55.161Z</time></trkpt><trkpt lat="40.7964802" lon="9.3449891"><ele>490.0</ele><time>2026-05-02T14:27:56.16Z</time></trkpt><trkpt lat="40.796645" lon="9.3450459"><ele>490.0</ele><time>2026-05-02T14:27:57.16Z</time></trkpt><trkpt lat="40.7968085" lon="9.3451478"><ele>490.0</ele><time>2026-05-02T14:27:58.161Z</time></trkpt><trkpt lat="40.7969727" lon="9.3452859"><ele>490.0</ele><time>2026-05-02T14:27:59.16Z</time></trkpt><trkpt lat="40.7971297" lon="9.3454565"><ele>487.6666666666667</ele><time>2026-05-02T14:28:00.161Z</time></trkpt><trkpt lat="40.797284" lon="9.34565"><ele>485.33333333333337</ele><time>2026-05-02T14:28:01.16Z</time></trkpt><trkpt lat="40.7974352" lon="9.3458776"><ele>483.0</ele><time>2026-05-02T14:28:02.16Z</time></trkpt><trkpt lat="40.7975837" lon="9.3460989"><ele>482.0</ele><time>2026-05-02T14:28:03.16Z</time></trkpt><trkpt lat="40.7977266" lon="9.3463096"><ele>481.0</ele><time>2026-05-02T14:28:04.16Z</time></trkpt><trkpt lat="40.7978651" lon="9.3465097"><ele>480.0</ele><time>2026-05-02T14:28:05.161Z</time></trkpt><trkpt lat="40.798" lon="9.3466914"><ele>479.0</ele><time>2026-05-02T14:28:06.161Z</time></trkpt><trkpt lat="40.798129" lon="9.3468492"><ele>478.0</ele><time>2026-05-02T14:28:07.161Z</time></trkpt><trkpt lat="40.7982517" lon="9.3469792"><ele>477.0</ele><time>2026-05-02T14:28:08.16Z</time></trkpt><trkpt lat="40.7983716" lon="9.3470609"><ele>477.0</ele><time>2026-05-02T14:28:09.161Z</time></trkpt><trkpt lat="40.7984962" lon="9.3470825"><ele>477.0</ele><time>2026-05-02T14:28:10.161Z</time></trkpt><trkpt lat="40.798619" lon="9.3470549"><ele>477.0</ele><time>2026-05-02T14:28:11.161Z</time></trkpt><trkpt lat="40.7987547" lon="9.3469949"><ele>477.0</ele><time>2026-05-02T14:28:12.161Z</time></trkpt><trkpt lat="40.7988964" lon="9.3469178"><ele>474.33333333333337</ele><time>2026-05-02T14:28:13.161Z</time></trkpt><trkpt lat="40.7990447" lon="9.3468368"><ele>471.6666666666667</ele><time>2026-05-02T14:28:14.16Z</time></trkpt><trkpt lat="40.7991916" lon="9.3467582"><ele>469.0</ele><time>2026-05-02T14:28:15.161Z</time></trkpt><trkpt lat="40.7993337" lon="9.3467043"><ele>467.25</ele><time>2026-05-02T14:28:16.16Z</time></trkpt><trkpt lat="40.7994679" lon="9.3467285"><ele>465.5</ele><time>2026-05-02T14:28:17.161Z</time></trkpt><trkpt lat="40.7996026" lon="9.3467447"><ele>463.75</ele><time>2026-05-02T14:28:18.161Z</time></trkpt><trkpt lat="40.799746" lon="9.3467663"><ele>462.0</ele><time>2026-05-02T14:28:19.16Z</time></trkpt><trkpt lat="40.7998987" lon="9.3467476"><ele>462.0</ele><time>2026-05-02T14:28:20.161Z</time></trkpt><trkpt lat="40.8000226" lon="9.3467121"><ele>462.0</ele><time>2026-05-02T14:28:21.16Z</time></trkpt><trkpt lat="40.8001145" lon="9.3466275"><ele>462.0</ele><time>2026-05-02T14:28:22.16Z</time></trkpt><trkpt lat="40.800166" lon="9.346502"><ele>462.0</ele><time>2026-05-02T14:28:23.16Z</time></trkpt><trkpt lat="40.8001754" lon="9.3463311"><ele>462.33333333333337</ele><time>2026-05-02T14:28:24.161Z</time></trkpt><trkpt lat="40.8001669" lon="9.3461317"><ele>462.6666666666667</ele><time>2026-05-02T14:28:25.16Z</time></trkpt><trkpt lat="40.8001459" lon="9.3458638"><ele>463.0</ele><time>2026-05-02T14:28:26.16Z</time></trkpt><trkpt lat="40.8001274" lon="9.3456138"><ele>460.33333333333337</ele><time>2026-05-02T14:28:27.161Z</time></trkpt><trkpt lat="40.8001093" lon="9.3453933"><ele>457.66666666666663</ele><time>2026-05-02T14:28:28.161Z</time></trkpt><trkpt lat="40.8000792" lon="9.3451976"><ele>455.0</ele><time>2026-05-02T14:28:29.161Z</time></trkpt><trkpt lat="40.8000251" lon="9.3450342"><ele>455.0</ele><time>2026-05-02T14:28:30.161Z</time></trkpt><trkpt lat="40.7999431" lon="9.3449094"><ele>455.0</ele><time>2026-05-02T14:28:31.16Z</time></trkpt><trkpt lat="40.7998551" lon="9.3448075"><ele>455.0</ele><time>2026-05-02T14:28:32.161Z</time></trkpt><trkpt lat="40.7997696" lon="9.3447106"><ele>455.0</ele><time>2026-05-02T14:28:33.16Z</time></trkpt><trkpt lat="40.7997117" lon="9.3446027"><ele>455.4</ele><time>2026-05-02T14:28:34.161Z</time></trkpt><trkpt lat="40.7996951" lon="9.3444816"><ele>455.8</ele><time>2026-05-02T14:28:35.161Z</time></trkpt><trkpt lat="40.7997073" lon="9.3443684"><ele>456.20000000000005</ele><time>2026-05-02T14:28:36.161Z</time></trkpt><trkpt lat="40.799807" lon="9.3442817"><ele>456.6</ele><time>2026-05-02T14:28:37.161Z</time></trkpt><trkpt lat="40.7999091" lon="9.3441863"><ele>457.0</ele><time>2026-05-02T14:28:38.16Z</time></trkpt><trkpt lat="40.8000563" lon="9.3441517"><ele>452.0</ele><time>2026-05-02T14:28:39.16Z</time></trkpt><trkpt lat="40.8001927" lon="9.3441382"><ele>447.0</ele><time>2026-05-02T14:28:40.161Z</time></trkpt><trkpt lat="40.8003123" lon="9.3441286"><ele>442.0</ele><time>2026-05-02T14:28:41.16Z</time></trkpt><trkpt lat="40.8004218" lon="9.3440788"><ele>437.0</ele><time>2026-05-02T14:28:42.161Z</time></trkpt><trkpt lat="40.8005432" lon="9.3439942"><ele>437.0</ele><time>2026-05-02T14:28:43.161Z</time></trkpt><trkpt lat="40.8006827" lon="9.3439076"><ele>437.0</ele><time>2026-05-02T14:28:44.161Z</time></trkpt><trkpt lat="40.8008324" lon="9.343826"><ele>437.0</ele><time>2026-05-02T14:28:45.161Z</time></trkpt><trkpt lat="40.8009845" lon="9.3437233"><ele>440.0</ele><time>2026-05-02T14:28:46.16Z</time></trkpt><trkpt lat="40.801148" lon="9.3436175"><ele>443.0</ele><time>2026-05-02T14:28:47.16Z</time></trkpt><trkpt lat="40.8013361" lon="9.3435262"><ele>446.0</ele><time>2026-05-02T14:28:48.161Z</time></trkpt><trkpt lat="40.8015335" lon="9.3434408"><ele>446.0</ele><time>2026-05-02T14:28:49.16Z</time></trkpt><trkpt lat="40.8017202" lon="9.3433626"><ele>446.0</ele><time>2026-05-02T14:28:50.161Z</time></trkpt><trkpt lat="40.8018946" lon="9.3433063"><ele>446.0</ele><time>2026-05-02T14:28:51.161Z</time></trkpt><trkpt lat="40.8020565" lon="9.3432914"><ele>442.0</ele><time>2026-05-02T14:28:52.16Z</time></trkpt><trkpt lat="40.8022051" lon="9.3433046"><ele>438.0</ele><time>2026-05-02T14:28:53.161Z</time></trkpt><trkpt lat="40.8023393" lon="9.3432773"><ele>434.0</ele><time>2026-05-02T14:28:54.161Z</time></trkpt><trkpt lat="40.8024696" lon="9.3432326"><ele>430.0</ele><time>2026-05-02T14:28:55.16Z</time></trkpt><trkpt lat="40.8025981" lon="9.3431716"><ele>427.25</ele><time>2026-05-02T14:28:56.161Z</time></trkpt><trkpt lat="40.8027234" lon="9.343147"><ele>424.5</ele><time>2026-05-02T14:28:57.161Z</time></trkpt><trkpt lat="40.8028305" lon="9.3430695"><ele>421.75</ele><time>2026-05-02T14:28:58.16Z</time></trkpt><trkpt lat="40.8029173" lon="9.3429464"><ele>419.0</ele><time>2026-05-02T14:28:59.16Z</time></trkpt><trkpt lat="40.802992" lon="9.3427802"><ele>419.0</ele><time>2026-05-02T14:29:00.161Z</time></trkpt><trkpt lat="40.8030715" lon="9.3425716"><ele>419.0</ele><time>2026-05-02T14:29:01.161Z</time></trkpt><trkpt lat="40.8031604" lon="9.3423299"><ele>419.0</ele><time>2026-05-02T14:29:02.161Z</time></trkpt><trkpt lat="40.8032452" lon="9.3420857"><ele>421.66666666666663</ele><time>2026-05-02T14:29:03.161Z</time></trkpt><trkpt lat="40.8033244" lon="9.3418554"><ele>424.33333333333337</ele><time>2026-05-02T14:29:04.161Z</time></trkpt><trkpt lat="40.8033862" lon="9.3416428"><ele>427.0</ele><time>2026-05-02T14:29:05.16Z</time></trkpt><trkpt lat="40.8034526" lon="9.3414479"><ele>425.75</ele><time>2026-05-02T14:29:06.16Z</time></trkpt><trkpt lat="40.8035383" lon="9.3412825"><ele>424.5</ele><time>2026-05-02T14:29:07.161Z</time></trkpt><trkpt lat="40.8036346" lon="9.3411417"><ele>423.25</ele><time>2026-05-02T14:29:08.16Z</time></trkpt><trkpt lat="40.8037446" lon="9.3410416"><ele>422.0</ele><time>2026-05-02T14:29:09.16Z</time></trkpt><trkpt lat="40.8038548" lon="9.3410313"><ele>422.0</ele><time>2026-05-02T14:29:10.16Z</time></trkpt><trkpt lat="40.8039516" lon="9.3410701"><ele>422.0</ele><time>2026-05-02T14:29:11.161Z</time></trkpt><trkpt lat="40.8040395" lon="9.341155"><ele>422.0</ele><time>2026-05-02T14:29:12.161Z</time></trkpt><trkpt lat="40.8041237" lon="9.3412679"><ele>422.0</ele><time>2026-05-02T14:29:13.161Z</time></trkpt><trkpt lat="40.8042153" lon="9.3413538"><ele>422.0</ele><time>2026-05-02T14:29:14.161Z</time></trkpt><trkpt lat="40.8043236" lon="9.3413734"><ele>417.25</ele><time>2026-05-02T14:29:15.161Z</time></trkpt><trkpt lat="40.8044355" lon="9.3413196"><ele>412.5</ele><time>2026-05-02T14:29:16.16Z</time></trkpt><trkpt lat="40.8045518" lon="9.3412045"><ele>407.75</ele><time>2026-05-02T14:29:17.161Z</time></trkpt><trkpt lat="40.8046612" lon="9.3410794"><ele>403.0</ele><time>2026-05-02T14:29:18.16Z</time></trkpt><trkpt lat="40.8047478" lon="9.3409402"><ele>403.0</ele><time>2026-05-02T14:29:19.161Z</time></trkpt><trkpt lat="40.8048041" lon="9.3407836"><ele>403.0</ele><time>2026-05-02T14:29:20.16Z</time></trkpt><trkpt lat="40.8048185" lon="9.3406016"><ele>403.0</ele><time>2026-05-02T14:29:21.16Z</time></trkpt><trkpt lat="40.8047963" lon="9.3403935"><ele>403.0</ele><time>2026-05-02T14:29:22.16Z</time></trkpt><trkpt lat="40.8047369" lon="9.3401687"><ele>400.33333333333337</ele><time>2026-05-02T14:29:23.161Z</time></trkpt><trkpt lat="40.8046729" lon="9.3399333"><ele>397.66666666666663</ele><time>2026-05-02T14:29:24.161Z</time></trkpt><trkpt lat="40.8046234" lon="9.3396943"><ele>395.0</ele><time>2026-05-02T14:29:25.16Z</time></trkpt><trkpt lat="40.8045794" lon="9.3394548"><ele>391.0</ele><time>2026-05-02T14:29:26.16Z</time></trkpt><trkpt lat="40.8045496" lon="9.3392022"><ele>387.0</ele><time>2026-05-02T14:29:27.16Z</time></trkpt><trkpt lat="40.8044995" lon="9.3389555"><ele>383.0</ele><time>2026-05-02T14:29:28.161Z</time></trkpt><trkpt lat="40.8044366" lon="9.3387126"><ele>379.6666666666667</ele><time>2026-05-02T14:29:29.161Z</time></trkpt><trkpt lat="40.8043603" lon="9.3384665"><ele>376.3333333333333</ele><time>2026-05-02T14:29:30.161Z</time></trkpt><trkpt lat="40.8043015" lon="9.338241"><ele>373.0</ele><time>2026-05-02T14:29:31.161Z</time></trkpt><trkpt lat="40.8042653" lon="9.3380281"><ele>380.0</ele><time>2026-05-02T14:29:32.16Z</time></trkpt><trkpt lat="40.8042387" lon="9.3378368"><ele>387.0</ele><time>2026-05-02T14:29:33.161Z</time></trkpt><trkpt lat="40.8041817" lon="9.3376526"><ele>394.0</ele><time>2026-05-02T14:29:34.16Z</time></trkpt><trkpt lat="40.8040861" lon="9.337496"><ele>394.0</ele><time>2026-05-02T14:29:35.16Z</time></trkpt><trkpt lat="40.8039699" lon="9.337357"><ele>394.0</ele><time>2026-05-02T14:29:36.161Z</time></trkpt><trkpt lat="40.8038606" lon="9.3372336"><ele>394.0</ele><time>2026-05-02T14:29:37.161Z</time></trkpt><trkpt lat="40.8037761" lon="9.3371243"><ele>394.0</ele><time>2026-05-02T14:29:38.16Z</time></trkpt><trkpt lat="40.8037142" lon="9.3370138"><ele>391.25</ele><time>2026-05-02T14:29:39.16Z</time></trkpt><trkpt lat="40.8037333" lon="9.336903"><ele>388.5</ele><time>2026-05-02T14:29:40.16Z</time></trkpt><trkpt lat="40.8037813" lon="9.3367809"><ele>385.75</ele><time>2026-05-02T14:29:41.16Z</time></trkpt><trkpt lat="40.8038495" lon="9.3366404"><ele>383.0</ele><time>2026-05-02T14:29:42.16Z</time></trkpt><trkpt lat="40.8039533" lon="9.3364777"><ele>385.6666666666667</ele><time>2026-05-02T14:29:43.161Z</time></trkpt><trkpt lat="40.8040679" lon="9.3362979"><ele>388.33333333333337</ele><time>2026-05-02T14:29:44.16Z</time></trkpt><trkpt lat="40.8041754" lon="9.3361299"><ele>391.0</ele><time>2026-05-02T14:29:45.161Z</time></trkpt><trkpt lat="40.8042686" lon="9.3359708"><ele>391.0</ele><time>2026-05-02T14:29:46.161Z</time></trkpt><trkpt lat="40.8043458" lon="9.3358102"><ele>391.0</ele><time>2026-05-02T14:29:47.161Z</time></trkpt><trkpt lat="40.8043241" lon="9.3356041"><ele>391.0</ele><time>2026-05-02T14:29:48.16Z</time></trkpt><trkpt lat="40.8042895" lon="9.3354042"><ele>388.6666666666667</ele><time>2026-05-02T14:29:49.161Z</time></trkpt><trkpt lat="40.8042382" lon="9.3351903"><ele>386.33333333333337</ele><time>2026-05-02T14:29:50.161Z</time></trkpt><trkpt lat="40.8041987" lon="9.3349622"><ele>384.0</ele><time>2026-05-02T14:29:51.161Z</time></trkpt><trkpt lat="40.8041854" lon="9.3347274"><ele>380.6666666666667</ele><time>2026-05-02T14:29:52.161Z</time></trkpt><trkpt lat="40.804176" lon="9.3345018"><ele>377.33333333333337</ele><time>2026-05-02T14:29:53.161Z</time></trkpt><trkpt lat="40.8041374" lon="9.3342919"><ele>374.0</ele><time>2026-05-02T14:29:54.161Z</time></trkpt><trkpt lat="40.8040857" lon="9.3341027"><ele>374.0</ele><time>2026-05-02T14:29:55.16Z</time></trkpt><trkpt lat="40.8039473" lon="9.3339604"><ele>374.0</ele><time>2026-05-02T14:29:56.161Z</time></trkpt><trkpt lat="40.8037918" lon="9.3338358"><ele>374.0</ele><time>2026-05-02T14:29:57.161Z</time></trkpt><trkpt lat="40.8036221" lon="9.3337092"><ele>372.33333333333337</ele><time>2026-05-02T14:29:58.161Z</time></trkpt><trkpt lat="40.8034532" lon="9.3335562"><ele>370.6666666666667</ele><time>2026-05-02T14:29:59.161Z</time></trkpt><trkpt lat="40.8032819" lon="9.3333786"><ele>369.0</ele><time>2026-05-02T14:30:00.161Z</time></trkpt><trkpt lat="40.8031106" lon="9.3331901"><ele>364.3333333333333</ele><time>2026-05-02T14:30:01.161Z</time></trkpt><trkpt lat="40.8029511" lon="9.333002"><ele>359.66666666666663</ele><time>2026-05-02T14:30:02.161Z</time></trkpt><trkpt lat="40.802804" lon="9.3328205"><ele>355.0</ele><time>2026-05-02T14:30:03.16Z</time></trkpt><trkpt lat="40.8026889" lon="9.3326332"><ele>355.0</ele><time>2026-05-02T14:30:04.161Z</time></trkpt><trkpt lat="40.8025999" lon="9.3324288"><ele>355.0</ele><time>2026-05-02T14:30:05.161Z</time></trkpt><trkpt lat="40.8025122" lon="9.3322271"><ele>355.0</ele><time>2026-05-02T14:30:06.16Z</time></trkpt><trkpt lat="40.8023921" lon="9.3320538"><ele>355.0</ele><time>2026-05-02T14:30:07.161Z</time></trkpt><trkpt lat="40.8022626" lon="9.3318825"><ele>355.0</ele><time>2026-05-02T14:30:08.16Z</time></trkpt><trkpt lat="40.80211" lon="9.3317233"><ele>355.0</ele><time>2026-05-02T14:30:09.161Z</time></trkpt><trkpt lat="40.8019498" lon="9.3315821"><ele>354.3333333333333</ele><time>2026-05-02T14:30:10.161Z</time></trkpt><trkpt lat="40.8017888" lon="9.331475"><ele>353.6666666666667</ele><time>2026-05-02T14:30:11.161Z</time></trkpt><trkpt lat="40.8016453" lon="9.3313797"><ele>353.0</ele><time>2026-05-02T14:30:12.16Z</time></trkpt><trkpt lat="40.8015109" lon="9.3312972"><ele>353.0</ele><time>2026-05-02T14:30:13.161Z</time></trkpt><trkpt lat="40.8014155" lon="9.3312315"><ele>353.0</ele><time>2026-05-02T14:30:14.16Z</time></trkpt><trkpt lat="40.8013444" lon="9.3311338"><ele>353.0</ele><time>2026-05-02T14:30:15.161Z</time></trkpt><trkpt lat="40.8013171" lon="9.3310155"><ele>353.0</ele><time>2026-05-02T14:30:16.16Z</time></trkpt><trkpt lat="40.8013351" lon="9.3308883"><ele>353.0</ele><time>2026-05-02T14:30:17.161Z</time></trkpt><trkpt lat="40.801392" lon="9.3307729"><ele>353.0</ele><time>2026-05-02T14:30:18.16Z</time></trkpt><trkpt lat="40.8014813" lon="9.3306589"><ele>353.0</ele><time>2026-05-02T14:30:19.16Z</time></trkpt><trkpt lat="40.8016043" lon="9.3305374"><ele>353.0</ele><time>2026-05-02T14:30:20.16Z</time></trkpt><trkpt lat="40.8017423" lon="9.3303915"><ele>348.6666666666667</ele><time>2026-05-02T14:30:21.161Z</time></trkpt><trkpt lat="40.8018771" lon="9.3302394"><ele>344.3333333333333</ele><time>2026-05-02T14:30:22.16Z</time></trkpt><trkpt lat="40.8020085" lon="9.3300724"><ele>340.0</ele><time>2026-05-02T14:30:23.161Z</time></trkpt><trkpt lat="40.8021316" lon="9.3298905"><ele>341.0</ele><time>2026-05-02T14:30:24.161Z</time></trkpt><trkpt lat="40.8022041" lon="9.3296621"><ele>342.0</ele><time>2026-05-02T14:30:25.16Z</time></trkpt><trkpt lat="40.8022705" lon="9.3294382"><ele>343.0</ele><time>2026-05-02T14:30:26.16Z</time></trkpt><trkpt lat="40.8023295" lon="9.3292096"><ele>343.0</ele><time>2026-05-02T14:30:27.16Z</time></trkpt><trkpt lat="40.8023874" lon="9.3289871"><ele>343.0</ele><time>2026-05-02T14:30:28.161Z</time></trkpt><trkpt lat="40.8024426" lon="9.3287883"><ele>343.0</ele><time>2026-05-02T14:30:29.16Z</time></trkpt><trkpt lat="40.8024981" lon="9.3285958"><ele>345.25</ele><time>2026-05-02T14:30:30.161Z</time></trkpt><trkpt lat="40.8025623" lon="9.3284389"><ele>347.5</ele><time>2026-05-02T14:30:31.161Z</time></trkpt><trkpt lat="40.80265" lon="9.3283093"><ele>349.75</ele><time>2026-05-02T14:30:32.16Z</time></trkpt><trkpt lat="40.8027554" lon="9.3282251"><ele>352.0</ele><time>2026-05-02T14:30:33.161Z</time></trkpt><trkpt lat="40.8028768" lon="9.3281901"><ele>347.5</ele><time>2026-05-02T14:30:34.16Z</time></trkpt><trkpt lat="40.8030085" lon="9.3281809"><ele>343.0</ele><time>2026-05-02T14:30:35.161Z</time></trkpt><trkpt lat="40.8031487" lon="9.3281807"><ele>338.5</ele><time>2026-05-02T14:30:36.16Z</time></trkpt><trkpt lat="40.8032692" lon="9.3281853"><ele>334.0</ele><time>2026-05-02T14:30:37.161Z</time></trkpt><trkpt lat="40.8033716" lon="9.3282006"><ele>334.0</ele><time>2026-05-02T14:30:38.161Z</time></trkpt><trkpt lat="40.8034697" lon="9.3282096"><ele>334.0</ele><time>2026-05-02T14:30:39.161Z</time></trkpt><trkpt lat="40.8035287" lon="9.3281662"><ele>334.0</ele><time>2026-05-02T14:30:40.16Z</time></trkpt><trkpt lat="40.8035887" lon="9.3281142"><ele>334.0</ele><time>2026-05-02T14:30:41.16Z</time></trkpt><trkpt lat="40.8036398" lon="9.3280242"><ele>334.0</ele><time>2026-05-02T14:30:42.16Z</time></trkpt><trkpt lat="40.8036838" lon="9.3279217"><ele>334.0</ele><time>2026-05-02T14:30:43.161Z</time></trkpt><trkpt lat="40.8037055" lon="9.3277894"><ele>330.25</ele><time>2026-05-02T14:30:44.161Z</time></trkpt><trkpt lat="40.8037142" lon="9.3276266"><ele>326.5</ele><time>2026-05-02T14:30:45.16Z</time></trkpt><trkpt lat="40.8037186" lon="9.3274434"><ele>322.75</ele><time>2026-05-02T14:30:46.161Z</time></trkpt><trkpt lat="40.803721" lon="9.327227"><ele>319.0</ele><time>2026-05-02T14:30:47.161Z</time></trkpt><trkpt lat="40.8037463" lon="9.3270238"><ele>319.0</ele><time>2026-05-02T14:30:48.161Z</time></trkpt><trkpt lat="40.8037967" lon="9.3268318"><ele>319.0</ele><time>2026-05-02T14:30:49.161Z</time></trkpt><trkpt lat="40.8038776" lon="9.3266736"><ele>319.0</ele><time>2026-05-02T14:30:50.161Z</time></trkpt><trkpt lat="40.8039687" lon="9.3265325"><ele>319.0</ele><time>2026-05-02T14:30:51.16Z</time></trkpt><trkpt lat="40.8041012" lon="9.3264519"><ele>319.25</ele><time>2026-05-02T14:30:52.161Z</time></trkpt><trkpt lat="40.8042144" lon="9.326349"><ele>319.5</ele><time>2026-05-02T14:30:53.16Z</time></trkpt><trkpt lat="40.8043031" lon="9.3262417"><ele>319.75</ele><time>2026-05-02T14:30:54.16Z</time></trkpt><trkpt lat="40.8043611" lon="9.3261271"><ele>320.0</ele><time>2026-05-02T14:30:55.161Z</time></trkpt><trkpt lat="40.8043481" lon="9.3260055"><ele>320.0</ele><time>2026-05-02T14:30:56.161Z</time></trkpt><trkpt lat="40.8042929" lon="9.3258953"><ele>320.0</ele><time>2026-05-02T14:30:57.161Z</time></trkpt><trkpt lat="40.8042003" lon="9.325795"><ele>320.0</ele><time>2026-05-02T14:30:58.16Z</time></trkpt><trkpt lat="40.8040978" lon="9.3257076"><ele>320.0</ele><time>2026-05-02T14:30:59.161Z</time></trkpt><trkpt lat="40.8040295" lon="9.3255882"><ele>319.25</ele><time>2026-05-02T14:31:00.16Z</time></trkpt><trkpt lat="40.8039737" lon="9.3254517"><ele>318.5</ele><time>2026-05-02T14:31:01.161Z</time></trkpt><trkpt lat="40.804008" lon="9.3253089"><ele>317.75</ele><time>2026-05-02T14:31:02.16Z</time></trkpt><trkpt lat="40.8040489" lon="9.3251746"><ele>317.0</ele><time>2026-05-02T14:31:03.16Z</time></trkpt><trkpt lat="40.8041189" lon="9.3250412"><ele>317.0</ele><time>2026-05-02T14:31:04.161Z</time></trkpt><trkpt lat="40.8042104" lon="9.3249061"><ele>317.0</ele><time>2026-05-02T14:31:05.161Z</time></trkpt><trkpt lat="40.8043113" lon="9.3247774"><ele>317.0</ele><time>2026-05-02T14:31:06.16Z</time></trkpt><trkpt lat="40.8044024" lon="9.3246559"><ele>317.0</ele><time>2026-05-02T14:31:07.161Z</time></trkpt><trkpt lat="40.8044817" lon="9.324529"><ele>313.0</ele><time>2026-05-02T14:31:08.161Z</time></trkpt><trkpt lat="40.8045386" lon="9.3243906"><ele>309.0</ele><time>2026-05-02T14:31:09.16Z</time></trkpt><trkpt lat="40.804584" lon="9.3242312"><ele>305.0</ele><time>2026-05-02T14:31:10.16Z</time></trkpt><trkpt lat="40.804619" lon="9.3240586"><ele>301.0</ele><time>2026-05-02T14:31:11.16Z</time></trkpt><trkpt lat="40.804657" lon="9.323879"><ele>301.0</ele><time>2026-05-02T14:31:12.161Z</time></trkpt><trkpt lat="40.804694" lon="9.3236959"><ele>301.0</ele><time>2026-05-02T14:31:13.161Z</time></trkpt><trkpt lat="40.8047286" lon="9.3235191"><ele>301.0</ele><time>2026-05-02T14:31:14.161Z</time></trkpt><trkpt lat="40.8047616" lon="9.3233524"><ele>301.0</ele><time>2026-05-02T14:31:15.16Z</time></trkpt><trkpt lat="40.8048005" lon="9.3231876"><ele>301.0</ele><time>2026-05-02T14:31:16.161Z</time></trkpt><trkpt lat="40.8048358" lon="9.3230308"><ele>301.0</ele><time>2026-05-02T14:31:17.16Z</time></trkpt><trkpt lat="40.8048659" lon="9.3228682"><ele>301.0</ele><time>2026-05-02T14:31:18.161Z</time></trkpt><trkpt lat="40.8048979" lon="9.32272"><ele>301.0</ele><time>2026-05-02T14:31:19.161Z</time></trkpt><trkpt lat="40.8049299" lon="9.322574"><ele>301.0</ele><time>2026-05-02T14:31:20.16Z</time></trkpt><trkpt lat="40.8049549" lon="9.3224404"><ele>301.0</ele><time>2026-05-02T14:31:21.161Z</time></trkpt><trkpt lat="40.8049676" lon="9.3223092"><ele>301.0</ele><time>2026-05-02T14:31:22.16Z</time></trkpt><trkpt lat="40.8049695" lon="9.32218"><ele>301.0</ele><time>2026-05-02T14:31:23.161Z</time></trkpt><trkpt lat="40.8049437" lon="9.3220574"><ele>301.0</ele><time>2026-05-02T14:31:24.16Z</time></trkpt><trkpt lat="40.8049161" lon="9.3219268"><ele>300.3333333333333</ele><time>2026-05-02T14:31:25.161Z</time></trkpt><trkpt lat="40.8049074" lon="9.321805"><ele>299.66666666666663</ele><time>2026-05-02T14:31:26.161Z</time></trkpt><trkpt lat="40.8049199" lon="9.3216915"><ele>299.0</ele><time>2026-05-02T14:31:27.161Z</time></trkpt><trkpt lat="40.8049583" lon="9.3216017"><ele>298.3333333333333</ele><time>2026-05-02T14:31:28.161Z</time></trkpt><trkpt lat="40.8050128" lon="9.3215466"><ele>297.6666666666667</ele><time>2026-05-02T14:31:29.161Z</time></trkpt><trkpt lat="40.8051067" lon="9.3215114"><ele>297.0</ele><time>2026-05-02T14:31:31.161Z</time></trkpt><trkpt lat="40.8051719" lon="9.32155"><ele>295.6666666666667</ele><time>2026-05-02T14:31:33.161Z</time></trkpt><trkpt lat="40.8052036" lon="9.3216342"><ele>294.3333333333333</ele><time>2026-05-02T14:31:36.16Z</time></trkpt><trkpt lat="40.805228" lon="9.3217845"><ele>293.0</ele><time>2026-05-02T14:31:55.161Z</time></trkpt><trkpt lat="40.8052433" lon="9.3219062"><ele>291.66666666666663</ele><time>2026-05-02T14:31:57.161Z</time></trkpt><trkpt lat="40.8052677" lon="9.321988"><ele>290.3333333333333</ele><time>2026-05-02T14:31:59.16Z</time></trkpt><trkpt lat="40.8053436" lon="9.3220102"><ele>289.0</ele><time>2026-05-02T14:32:03.16Z</time></trkpt><trkpt lat="40.8052639" lon="9.3220354"><ele>289.0</ele><time>2026-05-02T14:59:22.154Z</time></trkpt><trkpt lat="40.8052249" lon="9.3221239"><ele>289.0</ele><time>2026-05-02T14:59:26.153Z</time></trkpt><trkpt lat="40.8052347" lon="9.3222671"><ele>289.0</ele><time>2026-05-02T15:00:30.154Z</time></trkpt><trkpt lat="40.8052418" lon="9.3224049"><ele>289.0</ele><time>2026-05-02T15:00:32.154Z</time></trkpt><trkpt lat="40.8052474" lon="9.3224923"><ele>289.0</ele><time>2026-05-02T15:00:33.154Z</time></trkpt><trkpt lat="40.8052538" lon="9.3225899"><ele>289.0</ele><time>2026-05-02T15:00:34.153Z</time></trkpt><trkpt lat="40.8052605" lon="9.322698"><ele>289.2</ele><time>2026-05-02T15:00:35.153Z</time></trkpt><trkpt lat="40.8052646" lon="9.3228112"><ele>289.4</ele><time>2026-05-02T15:00:36.154Z</time></trkpt><trkpt lat="40.8052681" lon="9.322935"><ele>289.6</ele><time>2026-05-02T15:00:37.153Z</time></trkpt><trkpt lat="40.8052752" lon="9.323059"><ele>289.8</ele><time>2026-05-02T15:00:38.153Z</time></trkpt><trkpt lat="40.8052814" lon="9.3231819"><ele>290.0</ele><time>2026-05-02T15:00:39.153Z</time></trkpt><trkpt lat="40.8052901" lon="9.3233079"><ele>290.0</ele><time>2026-05-02T15:00:40.154Z</time></trkpt><trkpt lat="40.8053003" lon="9.3234358"><ele>290.0</ele><time>2026-05-02T15:00:41.153Z</time></trkpt><trkpt lat="40.805312" lon="9.3235716"><ele>290.0</ele><time>2026-05-02T15:00:42.153Z</time></trkpt><trkpt lat="40.805336" lon="9.3237005"><ele>290.0</ele><time>2026-05-02T15:00:43.153Z</time></trkpt><trkpt lat="40.8053709" lon="9.3238208"><ele>290.0</ele><time>2026-05-02T15:00:44.154Z</time></trkpt><trkpt lat="40.8054174" lon="9.3239363"><ele>290.4</ele><time>2026-05-02T15:00:45.153Z</time></trkpt><trkpt lat="40.8054803" lon="9.324054"><ele>290.8</ele><time>2026-05-02T15:00:46.154Z</time></trkpt><trkpt lat="40.8055458" lon="9.3241652"><ele>291.2</ele><time>2026-05-02T15:00:47.154Z</time></trkpt><trkpt lat="40.805623" lon="9.3242662"><ele>291.6</ele><time>2026-05-02T15:00:48.153Z</time></trkpt><trkpt lat="40.8057082" lon="9.3243635"><ele>292.0</ele><time>2026-05-02T15:00:49.154Z</time></trkpt><trkpt lat="40.8057932" lon="9.3244491"><ele>292.0</ele><time>2026-05-02T15:00:50.153Z</time></trkpt><trkpt lat="40.8058753" lon="9.324528"><ele>292.0</ele><time>2026-05-02T15:00:51.153Z</time></trkpt><trkpt lat="40.8059576" lon="9.3246011"><ele>292.0</ele><time>2026-05-02T15:00:52.154Z</time></trkpt><trkpt lat="40.8060198" lon="9.324664"><ele>292.0</ele><time>2026-05-02T15:00:53.154Z</time></trkpt><trkpt lat="40.8060756" lon="9.3247161"><ele>292.0</ele><time>2026-05-02T15:00:54.153Z</time></trkpt><trkpt lat="40.8061314" lon="9.3247742"><ele>292.0</ele><time>2026-05-02T15:00:55.153Z</time></trkpt><trkpt lat="40.8061919" lon="9.3248246"><ele>292.0</ele><time>2026-05-02T15:00:56.154Z</time></trkpt><trkpt lat="40.8062509" lon="9.3248759"><ele>292.0</ele><time>2026-05-02T15:00:57.153Z</time></trkpt><trkpt lat="40.8063083" lon="9.3249281"><ele>292.0</ele><time>2026-05-02T15:00:58.153Z</time></trkpt><trkpt lat="40.8063735" lon="9.3249837"><ele>292.0</ele><time>2026-05-02T15:00:59.154Z</time></trkpt><trkpt lat="40.8064455" lon="9.3250411"><ele>292.0</ele><time>2026-05-02T15:01:00.154Z</time></trkpt><trkpt lat="40.8065252" lon="9.3251034"><ele>292.0</ele><time>2026-05-02T15:01:01.153Z</time></trkpt><trkpt lat="40.8066091" lon="9.3251733"><ele>292.0</ele><time>2026-05-02T15:01:02.153Z</time></trkpt><trkpt lat="40.8066848" lon="9.3252416"><ele>292.0</ele><time>2026-05-02T15:01:03.153Z</time></trkpt><trkpt lat="40.8067567" lon="9.3253106"><ele>292.0</ele><time>2026-05-02T15:01:04.153Z</time></trkpt><trkpt lat="40.8068299" lon="9.3253681"><ele>292.0</ele><time>2026-05-02T15:01:05.154Z</time></trkpt><trkpt lat="40.8069045" lon="9.3254254"><ele>292.0</ele><time>2026-05-02T15:01:06.153Z</time></trkpt><trkpt lat="40.8069887" lon="9.3254752"><ele>292.0</ele><time>2026-05-02T15:01:07.154Z</time></trkpt><trkpt lat="40.8070823" lon="9.3255125"><ele>291.4</ele><time>2026-05-02T15:01:08.153Z</time></trkpt><trkpt lat="40.8071812" lon="9.3255481"><ele>290.79999999999995</ele><time>2026-05-02T15:01:09.153Z</time></trkpt><trkpt lat="40.8072818" lon="9.3255814"><ele>290.2</ele><time>2026-05-02T15:01:10.154Z</time></trkpt><trkpt lat="40.8073823" lon="9.3255964"><ele>289.59999999999997</ele><time>2026-05-02T15:01:11.153Z</time></trkpt><trkpt lat="40.8074893" lon="9.3255922"><ele>289.0</ele><time>2026-05-02T15:01:12.154Z</time></trkpt><trkpt lat="40.8075838" lon="9.3255798"><ele>288.8333333333333</ele><time>2026-05-02T15:01:13.154Z</time></trkpt><trkpt lat="40.807665" lon="9.3255666"><ele>288.66666666666663</ele><time>2026-05-02T15:01:14.154Z</time></trkpt><trkpt lat="40.8077437" lon="9.3255469"><ele>288.5</ele><time>2026-05-02T15:01:15.153Z</time></trkpt><trkpt lat="40.8078185" lon="9.3255244"><ele>288.3333333333333</ele><time>2026-05-02T15:01:16.153Z</time></trkpt><trkpt lat="40.8078909" lon="9.3254998"><ele>288.1666666666667</ele><time>2026-05-02T15:01:17.154Z</time></trkpt><trkpt lat="40.8079654" lon="9.3254629"><ele>288.0</ele><time>2026-05-02T15:01:18.153Z</time></trkpt><trkpt lat="40.8080426" lon="9.3254079"><ele>287.6</ele><time>2026-05-02T15:01:19.154Z</time></trkpt><trkpt lat="40.8081194" lon="9.3253405"><ele>287.20000000000005</ele><time>2026-05-02T15:01:20.153Z</time></trkpt><trkpt lat="40.8082006" lon="9.3252728"><ele>286.8</ele><time>2026-05-02T15:01:21.154Z</time></trkpt><trkpt lat="40.8082868" lon="9.3251963"><ele>286.40000000000003</ele><time>2026-05-02T15:01:22.153Z</time></trkpt><trkpt lat="40.8083706" lon="9.3251217"><ele>286.0</ele><time>2026-05-02T15:01:23.154Z</time></trkpt><trkpt lat="40.808461" lon="9.3250373"><ele>286.0</ele><time>2026-05-02T15:01:24.154Z</time></trkpt><trkpt lat="40.8085491" lon="9.3249554"><ele>286.0</ele><time>2026-05-02T15:01:25.154Z</time></trkpt><trkpt lat="40.8086466" lon="9.3248572"><ele>286.0</ele><time>2026-05-02T15:01:26.154Z</time></trkpt><trkpt lat="40.808748" lon="9.3247615"><ele>286.0</ele><time>2026-05-02T15:01:27.154Z</time></trkpt><trkpt lat="40.808854" lon="9.3246661"><ele>286.0</ele><time>2026-05-02T15:01:28.154Z</time></trkpt><trkpt lat="40.8089609" lon="9.3245675"><ele>286.0</ele><time>2026-05-02T15:01:29.153Z</time></trkpt><trkpt lat="40.8090715" lon="9.3244586"><ele>286.0</ele><time>2026-05-02T15:01:30.153Z</time></trkpt><trkpt lat="40.8091863" lon="9.3243485"><ele>286.0</ele><time>2026-05-02T15:01:31.154Z</time></trkpt><trkpt lat="40.8092963" lon="9.3242418"><ele>286.0</ele><time>2026-05-02T15:01:32.154Z</time></trkpt><trkpt lat="40.8094016" lon="9.3241396"><ele>286.0</ele><time>2026-05-02T15:01:33.153Z</time></trkpt><trkpt lat="40.8095088" lon="9.3240387"><ele>286.0</ele><time>2026-05-02T15:01:34.154Z</time></trkpt><trkpt lat="40.8096126" lon="9.3239394"><ele>286.0</ele><time>2026-05-02T15:01:35.154Z</time></trkpt><trkpt lat="40.8097164" lon="9.3238374"><ele>286.0</ele><time>2026-05-02T15:01:36.154Z</time></trkpt><trkpt lat="40.8098177" lon="9.3237396"><ele>286.0</ele><time>2026-05-02T15:01:37.154Z</time></trkpt><trkpt lat="40.8099238" lon="9.3236375"><ele>286.0</ele><time>2026-05-02T15:01:38.154Z</time></trkpt><trkpt lat="40.8100347" lon="9.3235314"><ele>286.0</ele><time>2026-05-02T15:01:39.154Z</time></trkpt><trkpt lat="40.810147" lon="9.3234263"><ele>286.5</ele><time>2026-05-02T15:01:40.154Z</time></trkpt><trkpt lat="40.8102584" lon="9.3233168"><ele>287.0</ele><time>2026-05-02T15:01:41.153Z</time></trkpt><trkpt lat="40.8103729" lon="9.3232104"><ele>287.5</ele><time>2026-05-02T15:01:42.154Z</time></trkpt><trkpt lat="40.8104877" lon="9.3231023"><ele>288.0</ele><time>2026-05-02T15:01:43.153Z</time></trkpt><trkpt lat="40.8106111" lon="9.3229896"><ele>288.0</ele><time>2026-05-02T15:01:44.153Z</time></trkpt><trkpt lat="40.8107452" lon="9.3228637"><ele>288.0</ele><time>2026-05-02T15:01:45.153Z</time></trkpt><trkpt lat="40.810878" lon="9.3227363"><ele>288.0</ele><time>2026-05-02T15:01:46.154Z</time></trkpt><trkpt lat="40.8110118" lon="9.3226006"><ele>288.6666666666667</ele><time>2026-05-02T15:01:47.153Z</time></trkpt><trkpt lat="40.8111389" lon="9.3224777"><ele>289.33333333333337</ele><time>2026-05-02T15:01:48.153Z</time></trkpt><trkpt lat="40.8112679" lon="9.3223568"><ele>290.0</ele><time>2026-05-02T15:01:49.154Z</time></trkpt><trkpt lat="40.8113956" lon="9.3222318"><ele>289.33333333333337</ele><time>2026-05-02T15:01:50.153Z</time></trkpt><trkpt lat="40.8115224" lon="9.322106"><ele>288.6666666666667</ele><time>2026-05-02T15:01:51.153Z</time></trkpt><trkpt lat="40.8116552" lon="9.321979"><ele>288.0</ele><time>2026-05-02T15:01:52.154Z</time></trkpt><trkpt lat="40.8117915" lon="9.3218457"><ele>289.3333333333333</ele><time>2026-05-02T15:01:53.154Z</time></trkpt><trkpt lat="40.8119337" lon="9.3217132"><ele>290.66666666666663</ele><time>2026-05-02T15:01:54.153Z</time></trkpt><trkpt lat="40.8120787" lon="9.3215759"><ele>292.0</ele><time>2026-05-02T15:01:55.153Z</time></trkpt><trkpt lat="40.8122308" lon="9.3214319"><ele>291.0</ele><time>2026-05-02T15:01:56.153Z</time></trkpt><trkpt lat="40.8123844" lon="9.3212845"><ele>290.0</ele><time>2026-05-02T15:01:57.154Z</time></trkpt><trkpt lat="40.8125409" lon="9.3211333"><ele>289.0</ele><time>2026-05-02T15:01:58.154Z</time></trkpt><trkpt lat="40.8126973" lon="9.3209819"><ele>291.66666666666663</ele><time>2026-05-02T15:01:59.154Z</time></trkpt><trkpt lat="40.8128446" lon="9.3208441"><ele>294.3333333333333</ele><time>2026-05-02T15:02:00.154Z</time></trkpt><trkpt lat="40.8129863" lon="9.3207135"><ele>297.0</ele><time>2026-05-02T15:02:01.153Z</time></trkpt><trkpt lat="40.8131126" lon="9.3205897"><ele>296.25</ele><time>2026-05-02T15:02:02.153Z</time></trkpt><trkpt lat="40.8132351" lon="9.3204722"><ele>295.5</ele><time>2026-05-02T15:02:03.154Z</time></trkpt><trkpt lat="40.8133635" lon="9.3203795"><ele>294.75</ele><time>2026-05-02T15:02:04.154Z</time></trkpt><trkpt lat="40.813489" lon="9.3203185"><ele>294.0</ele><time>2026-05-02T15:02:05.154Z</time></trkpt><trkpt lat="40.8136167" lon="9.320297"><ele>294.0</ele><time>2026-05-02T15:02:06.154Z</time></trkpt><trkpt lat="40.8137453" lon="9.3202956"><ele>294.0</ele><time>2026-05-02T15:02:07.153Z</time></trkpt><trkpt lat="40.8138862" lon="9.3203601"><ele>294.0</ele><time>2026-05-02T15:02:08.154Z</time></trkpt><trkpt lat="40.8140259" lon="9.3204427"><ele>294.0</ele><time>2026-05-02T15:02:09.153Z</time></trkpt><trkpt lat="40.8141711" lon="9.3205577"><ele>294.3333333333333</ele><time>2026-05-02T15:02:10.153Z</time></trkpt><trkpt lat="40.8143293" lon="9.3206959"><ele>294.66666666666663</ele><time>2026-05-02T15:02:11.153Z</time></trkpt><trkpt lat="40.8145" lon="9.3208578"><ele>295.0</ele><time>2026-05-02T15:02:12.153Z</time></trkpt><trkpt lat="40.8146856" lon="9.3210392"><ele>295.0</ele><time>2026-05-02T15:02:13.154Z</time></trkpt><trkpt lat="40.8148708" lon="9.3212309"><ele>295.0</ele><time>2026-05-02T15:02:14.153Z</time></trkpt><trkpt lat="40.8150279" lon="9.3213995"><ele>295.0</ele><time>2026-05-02T15:02:15.154Z</time></trkpt><trkpt lat="40.815174" lon="9.3215406"><ele>297.0</ele><time>2026-05-02T15:02:16.154Z</time></trkpt><trkpt lat="40.8153144" lon="9.3216489"><ele>299.0</ele><time>2026-05-02T15:02:17.153Z</time></trkpt><trkpt lat="40.8154563" lon="9.321714"><ele>301.0</ele><time>2026-05-02T15:02:18.154Z</time></trkpt><trkpt lat="40.8155991" lon="9.3217232"><ele>301.0</ele><time>2026-05-02T15:02:19.153Z</time></trkpt><trkpt lat="40.8157337" lon="9.321682"><ele>301.0</ele><time>2026-05-02T15:02:20.153Z</time></trkpt><trkpt lat="40.8158574" lon="9.321592"><ele>301.0</ele><time>2026-05-02T15:02:21.154Z</time></trkpt><trkpt lat="40.8159725" lon="9.3214695"><ele>301.0</ele><time>2026-05-02T15:02:22.153Z</time></trkpt><trkpt lat="40.816083" lon="9.3213276"><ele>303.25</ele><time>2026-05-02T15:02:23.153Z</time></trkpt><trkpt lat="40.8161785" lon="9.3211696"><ele>305.5</ele><time>2026-05-02T15:02:24.154Z</time></trkpt><trkpt lat="40.8162449" lon="9.321011"><ele>307.75</ele><time>2026-05-02T15:02:25.153Z</time></trkpt><trkpt lat="40.8162825" lon="9.3208449"><ele>310.0</ele><time>2026-05-02T15:02:26.154Z</time></trkpt><trkpt lat="40.8162761" lon="9.3206741"><ele>311.75</ele><time>2026-05-02T15:02:27.154Z</time></trkpt><trkpt lat="40.8162305" lon="9.3205087"><ele>313.5</ele><time>2026-05-02T15:02:28.154Z</time></trkpt><trkpt lat="40.8161602" lon="9.3203542"><ele>315.25</ele><time>2026-05-02T15:02:29.153Z</time></trkpt><trkpt lat="40.8161016" lon="9.3202032"><ele>317.0</ele><time>2026-05-02T15:02:30.154Z</time></trkpt><trkpt lat="40.8160645" lon="9.3200411"><ele>317.0</ele><time>2026-05-02T15:02:31.154Z</time></trkpt><trkpt lat="40.8160503" lon="9.3198694"><ele>317.0</ele><time>2026-05-02T15:02:32.154Z</time></trkpt><trkpt lat="40.8160599" lon="9.3197005"><ele>317.0</ele><time>2026-05-02T15:02:33.153Z</time></trkpt><trkpt lat="40.8161137" lon="9.3195208"><ele>317.0</ele><time>2026-05-02T15:02:34.154Z</time></trkpt><trkpt lat="40.8161734" lon="9.3193417"><ele>316.33333333333337</ele><time>2026-05-02T15:02:35.154Z</time></trkpt><trkpt lat="40.8162539" lon="9.3191684"><ele>315.6666666666667</ele><time>2026-05-02T15:02:36.153Z</time></trkpt><trkpt lat="40.8163484" lon="9.3190077"><ele>315.0</ele><time>2026-05-02T15:02:37.153Z</time></trkpt><trkpt lat="40.8164508" lon="9.3188766"><ele>314.5</ele><time>2026-05-02T15:02:38.154Z</time></trkpt><trkpt lat="40.8165696" lon="9.3187769"><ele>314.0</ele><time>2026-05-02T15:02:39.154Z</time></trkpt><trkpt lat="40.8167076" lon="9.3187107"><ele>313.5</ele><time>2026-05-02T15:02:40.154Z</time></trkpt><trkpt lat="40.8168571" lon="9.318673"><ele>313.0</ele><time>2026-05-02T15:02:41.154Z</time></trkpt><trkpt lat="40.8170143" lon="9.3186724"><ele>315.66666666666663</ele><time>2026-05-02T15:02:42.154Z</time></trkpt><trkpt lat="40.817185" lon="9.318673"><ele>318.3333333333333</ele><time>2026-05-02T15:02:43.154Z</time></trkpt><trkpt lat="40.817372" lon="9.3186844"><ele>321.0</ele><time>2026-05-02T15:02:44.153Z</time></trkpt><trkpt lat="40.8175648" lon="9.3186929"><ele>321.0</ele><time>2026-05-02T15:02:45.154Z</time></trkpt><trkpt lat="40.817759" lon="9.3187001"><ele>321.0</ele><time>2026-05-02T15:02:46.154Z</time></trkpt><trkpt lat="40.8179557" lon="9.3187107"><ele>321.0</ele><time>2026-05-02T15:02:47.154Z</time></trkpt><trkpt lat="40.8181523" lon="9.3187277"><ele>321.0</ele><time>2026-05-02T15:02:48.154Z</time></trkpt><trkpt lat="40.8183453" lon="9.3187441"><ele>321.0</ele><time>2026-05-02T15:02:49.154Z</time></trkpt><trkpt lat="40.818541" lon="9.3187554"><ele>321.0</ele><time>2026-05-02T15:02:50.153Z</time></trkpt><trkpt lat="40.8187359" lon="9.3187664"><ele>320.3333333333333</ele><time>2026-05-02T15:02:51.153Z</time></trkpt><trkpt lat="40.818923" lon="9.3187714"><ele>319.66666666666663</ele><time>2026-05-02T15:02:52.153Z</time></trkpt><trkpt lat="40.8190983" lon="9.3187882"><ele>319.0</ele><time>2026-05-02T15:02:53.154Z</time></trkpt><trkpt lat="40.8192737" lon="9.3188007"><ele>318.3333333333333</ele><time>2026-05-02T15:02:54.154Z</time></trkpt><trkpt lat="40.819436" lon="9.318818"><ele>317.6666666666667</ele><time>2026-05-02T15:02:55.154Z</time></trkpt><trkpt lat="40.819588" lon="9.3188595"><ele>317.0</ele><time>2026-05-02T15:02:56.154Z</time></trkpt><trkpt lat="40.8197446" lon="9.3189062"><ele>317.33333333333337</ele><time>2026-05-02T15:02:57.154Z</time></trkpt><trkpt lat="40.819896" lon="9.3189616"><ele>317.6666666666667</ele><time>2026-05-02T15:02:58.154Z</time></trkpt><trkpt lat="40.8200495" lon="9.3190229"><ele>318.0</ele><time>2026-05-02T15:02:59.153Z</time></trkpt><trkpt lat="40.8202039" lon="9.3190887"><ele>318.0</ele><time>2026-05-02T15:03:00.153Z</time></trkpt><trkpt lat="40.8203532" lon="9.3191535"><ele>318.0</ele><time>2026-05-02T15:03:01.153Z</time></trkpt><trkpt lat="40.8205041" lon="9.3192146"><ele>318.0</ele><time>2026-05-02T15:03:02.154Z</time></trkpt><trkpt lat="40.8206445" lon="9.3192749"><ele>318.0</ele><time>2026-05-02T15:03:03.153Z</time></trkpt><trkpt lat="40.8207839" lon="9.3193307"><ele>318.0</ele><time>2026-05-02T15:03:04.154Z</time></trkpt><trkpt lat="40.8209291" lon="9.319387"><ele>318.0</ele><time>2026-05-02T15:03:05.154Z</time></trkpt><trkpt lat="40.8210753" lon="9.3194269"><ele>318.0</ele><time>2026-05-02T15:03:06.153Z</time></trkpt><trkpt lat="40.8212258" lon="9.3194517"><ele>316.6666666666667</ele><time>2026-05-02T15:03:07.154Z</time></trkpt><trkpt lat="40.8213787" lon="9.3194418"><ele>315.33333333333337</ele><time>2026-05-02T15:03:08.153Z</time></trkpt><trkpt lat="40.8215388" lon="9.3194123"><ele>314.0</ele><time>2026-05-02T15:03:09.153Z</time></trkpt><trkpt lat="40.8217018" lon="9.3193592"><ele>312.6666666666667</ele><time>2026-05-02T15:03:10.153Z</time></trkpt><trkpt lat="40.8218619" lon="9.319293"><ele>311.3333333333333</ele><time>2026-05-02T15:03:11.153Z</time></trkpt><trkpt lat="40.8220179" lon="9.3192197"><ele>310.0</ele><time>2026-05-02T15:03:12.154Z</time></trkpt><trkpt lat="40.822171" lon="9.3191549"><ele>310.0</ele><time>2026-05-02T15:03:13.153Z</time></trkpt><trkpt lat="40.8223214" lon="9.3190894"><ele>310.0</ele><time>2026-05-02T15:03:14.154Z</time></trkpt><trkpt lat="40.8224626" lon="9.3190268"><ele>310.0</ele><time>2026-05-02T15:03:15.154Z</time></trkpt><trkpt lat="40.8226042" lon="9.3189619"><ele>308.5</ele><time>2026-05-02T15:03:16.154Z</time></trkpt><trkpt lat="40.8227428" lon="9.3188953"><ele>307.0</ele><time>2026-05-02T15:03:17.154Z</time></trkpt><trkpt lat="40.8228813" lon="9.3188346"><ele>305.5</ele><time>2026-05-02T15:03:18.154Z</time></trkpt><trkpt lat="40.8230202" lon="9.3187706"><ele>304.0</ele><time>2026-05-02T15:03:19.154Z</time></trkpt><trkpt lat="40.8231616" lon="9.3187077"><ele>304.0</ele><time>2026-05-02T15:03:20.154Z</time></trkpt><trkpt lat="40.8233009" lon="9.3186446"><ele>304.0</ele><time>2026-05-02T15:03:21.153Z</time></trkpt><trkpt lat="40.8234366" lon="9.318605"><ele>304.0</ele><time>2026-05-02T15:03:22.153Z</time></trkpt><trkpt lat="40.823567" lon="9.3185941"><ele>304.0</ele><time>2026-05-02T15:03:23.154Z</time></trkpt><trkpt lat="40.8236911" lon="9.3186284"><ele>303.0</ele><time>2026-05-02T15:03:24.153Z</time></trkpt><trkpt lat="40.8237916" lon="9.3187007"><ele>302.0</ele><time>2026-05-02T15:03:25.153Z</time></trkpt><trkpt lat="40.8238834" lon="9.3188222"><ele>301.0</ele><time>2026-05-02T15:03:26.154Z</time></trkpt><trkpt lat="40.8239551" lon="9.3189745"><ele>300.0</ele><time>2026-05-02T15:03:27.154Z</time></trkpt><trkpt lat="40.8240182" lon="9.3191511"><ele>300.0</ele><time>2026-05-02T15:03:28.154Z</time></trkpt><trkpt lat="40.8240804" lon="9.3193369"><ele>300.0</ele><time>2026-05-02T15:03:29.154Z</time></trkpt><trkpt lat="40.8241427" lon="9.319519"><ele>300.0</ele><time>2026-05-02T15:03:30.154Z</time></trkpt><trkpt lat="40.8242065" lon="9.3197"><ele>299.6666666666667</ele><time>2026-05-02T15:03:31.154Z</time></trkpt><trkpt lat="40.8242682" lon="9.3198802"><ele>299.33333333333337</ele><time>2026-05-02T15:03:32.154Z</time></trkpt><trkpt lat="40.8243275" lon="9.3200637"><ele>299.0</ele><time>2026-05-02T15:03:33.153Z</time></trkpt><trkpt lat="40.8243866" lon="9.3202538"><ele>296.33333333333337</ele><time>2026-05-02T15:03:34.154Z</time></trkpt><trkpt lat="40.8244403" lon="9.3204469"><ele>293.6666666666667</ele><time>2026-05-02T15:03:35.154Z</time></trkpt><trkpt lat="40.8244947" lon="9.3206348"><ele>291.0</ele><time>2026-05-02T15:03:36.154Z</time></trkpt><trkpt lat="40.8245467" lon="9.3208265"><ele>291.0</ele><time>2026-05-02T15:03:37.154Z</time></trkpt><trkpt lat="40.8245966" lon="9.3210251"><ele>291.0</ele><time>2026-05-02T15:03:38.154Z</time></trkpt><trkpt lat="40.8246365" lon="9.3212188"><ele>291.0</ele><time>2026-05-02T15:03:39.154Z</time></trkpt><trkpt lat="40.8246734" lon="9.3214096"><ele>291.5</ele><time>2026-05-02T15:03:40.153Z</time></trkpt><trkpt lat="40.8247075" lon="9.3215832"><ele>292.0</ele><time>2026-05-02T15:03:41.154Z</time></trkpt><trkpt lat="40.8247386" lon="9.3217344"><ele>292.5</ele><time>2026-05-02T15:03:42.153Z</time></trkpt><trkpt lat="40.8247633" lon="9.3218753"><ele>293.0</ele><time>2026-05-02T15:03:43.153Z</time></trkpt><trkpt lat="40.8247762" lon="9.3220054"><ele>293.0</ele><time>2026-05-02T15:03:44.154Z</time></trkpt><trkpt lat="40.8247748" lon="9.3221261"><ele>293.0</ele><time>2026-05-02T15:03:45.153Z</time></trkpt><trkpt lat="40.8247567" lon="9.3222362"><ele>293.0</ele><time>2026-05-02T15:03:46.154Z</time></trkpt><trkpt lat="40.8247469" lon="9.3223389"><ele>293.0</ele><time>2026-05-02T15:03:47.153Z</time></trkpt><trkpt lat="40.8247396" lon="9.3224428"><ele>293.0</ele><time>2026-05-02T15:03:48.153Z</time></trkpt><trkpt lat="40.8247815" lon="9.3225273"><ele>293.0</ele><time>2026-05-02T15:03:49.154Z</time></trkpt><trkpt lat="40.8248428" lon="9.3225872"><ele>293.2</ele><time>2026-05-02T15:03:50.154Z</time></trkpt><trkpt lat="40.8249202" lon="9.3226081"><ele>293.4</ele><time>2026-05-02T15:03:51.153Z</time></trkpt><trkpt lat="40.8250014" lon="9.3225842"><ele>293.59999999999997</ele><time>2026-05-02T15:03:52.153Z</time></trkpt><trkpt lat="40.8250755" lon="9.32251"><ele>293.8</ele><time>2026-05-02T15:03:53.154Z</time></trkpt><trkpt lat="40.8251514" lon="9.3224229"><ele>294.0</ele><time>2026-05-02T15:03:54.153Z</time></trkpt><trkpt lat="40.8252387" lon="9.3223445"><ele>293.25</ele><time>2026-05-02T15:03:55.153Z</time></trkpt><trkpt lat="40.8253704" lon="9.3222755"><ele>292.5</ele><time>2026-05-02T15:03:56.154Z</time></trkpt><trkpt lat="40.8255016" lon="9.3222055"><ele>291.75</ele><time>2026-05-02T15:03:57.154Z</time></trkpt><trkpt lat="40.8256499" lon="9.3221478"><ele>291.0</ele><time>2026-05-02T15:03:58.154Z</time></trkpt><trkpt lat="40.8257932" lon="9.3220865"><ele>289.6666666666667</ele><time>2026-05-02T15:03:59.153Z</time></trkpt><trkpt lat="40.825971" lon="9.3220216"><ele>288.33333333333337</ele><time>2026-05-02T15:04:00.153Z</time></trkpt><trkpt lat="40.8261259" lon="9.3219588"><ele>287.0</ele><time>2026-05-02T15:04:01.154Z</time></trkpt><trkpt lat="40.8262764" lon="9.3218925"><ele>286.6666666666667</ele><time>2026-05-02T15:04:02.154Z</time></trkpt><trkpt lat="40.8264305" lon="9.3218131"><ele>286.3333333333333</ele><time>2026-05-02T15:04:03.153Z</time></trkpt><trkpt lat="40.8265759" lon="9.3217128"><ele>286.0</ele><time>2026-05-02T15:04:04.154Z</time></trkpt><trkpt lat="40.8267074" lon="9.3216023"><ele>286.0</ele><time>2026-05-02T15:04:05.153Z</time></trkpt><trkpt lat="40.8268154" lon="9.3214977"><ele>286.0</ele><time>2026-05-02T15:04:06.154Z</time></trkpt><trkpt lat="40.8269004" lon="9.3214047"><ele>286.0</ele><time>2026-05-02T15:04:07.154Z</time></trkpt><trkpt lat="40.8269758" lon="9.3213404"><ele>286.0</ele><time>2026-05-02T15:04:08.154Z</time></trkpt><trkpt lat="40.8270575" lon="9.3212856"><ele>286.0</ele><time>2026-05-02T15:04:09.153Z</time></trkpt><trkpt lat="40.8271508" lon="9.32123"><ele>286.0</ele><time>2026-05-02T15:04:10.154Z</time></trkpt><trkpt lat="40.8272434" lon="9.3211588"><ele>286.0</ele><time>2026-05-02T15:04:11.153Z</time></trkpt><trkpt lat="40.8273732" lon="9.3211063"><ele>286.0</ele><time>2026-05-02T15:04:12.153Z</time></trkpt><trkpt lat="40.8275137" lon="9.3210561"><ele>286.0</ele><time>2026-05-02T15:04:13.154Z</time></trkpt><trkpt lat="40.8276655" lon="9.3210036"><ele>287.3333333333333</ele><time>2026-05-02T15:04:14.154Z</time></trkpt><trkpt lat="40.8278356" lon="9.3209507"><ele>288.6666666666667</ele><time>2026-05-02T15:04:15.153Z</time></trkpt><trkpt lat="40.8280045" lon="9.3208938"><ele>290.0</ele><time>2026-05-02T15:04:16.154Z</time></trkpt><trkpt lat="40.8281679" lon="9.3208437"><ele>290.0</ele><time>2026-05-02T15:04:17.154Z</time></trkpt><trkpt lat="40.8283271" lon="9.3207927"><ele>290.0</ele><time>2026-05-02T15:04:18.154Z</time></trkpt><trkpt lat="40.8284525" lon="9.3207542"><ele>290.0</ele><time>2026-05-02T15:04:19.154Z</time></trkpt><trkpt lat="40.8285689" lon="9.3207152"><ele>290.0</ele><time>2026-05-02T15:04:20.154Z</time></trkpt><trkpt lat="40.8286838" lon="9.3206826"><ele>290.4</ele><time>2026-05-02T15:04:21.153Z</time></trkpt><trkpt lat="40.8287926" lon="9.3206597"><ele>290.8</ele><time>2026-05-02T15:04:22.153Z</time></trkpt><trkpt lat="40.8288893" lon="9.320632"><ele>291.2</ele><time>2026-05-02T15:04:23.154Z</time></trkpt><trkpt lat="40.8289824" lon="9.3206079"><ele>291.6</ele><time>2026-05-02T15:04:24.153Z</time></trkpt><trkpt lat="40.829069" lon="9.3205842"><ele>292.0</ele><time>2026-05-02T15:04:25.153Z</time></trkpt><trkpt lat="40.8291697" lon="9.3205592"><ele>292.0</ele><time>2026-05-02T15:04:26.154Z</time></trkpt><trkpt lat="40.8292732" lon="9.3205334"><ele>292.0</ele><time>2026-05-02T15:04:27.154Z</time></trkpt><trkpt lat="40.8293821" lon="9.3205038"><ele>292.0</ele><time>2026-05-02T15:04:28.154Z</time></trkpt><trkpt lat="40.8294904" lon="9.320491"><ele>292.0</ele><time>2026-05-02T15:04:29.154Z</time></trkpt><trkpt lat="40.829595" lon="9.3204849"><ele>292.0</ele><time>2026-05-02T15:04:30.154Z</time></trkpt><trkpt lat="40.8296985" lon="9.320489"><ele>292.2</ele><time>2026-05-02T15:04:31.153Z</time></trkpt><trkpt lat="40.8298021" lon="9.32049"><ele>292.4</ele><time>2026-05-02T15:04:32.154Z</time></trkpt><trkpt lat="40.8299111" lon="9.3204958"><ele>292.6</ele><time>2026-05-02T15:04:33.154Z</time></trkpt><trkpt lat="40.8300198" lon="9.3205022"><ele>292.8</ele><time>2026-05-02T15:04:34.153Z</time></trkpt><trkpt lat="40.8301365" lon="9.3205018"><ele>293.0</ele><time>2026-05-02T15:04:35.154Z</time></trkpt><trkpt lat="40.8302557" lon="9.3204921"><ele>293.0</ele><time>2026-05-02T15:04:36.153Z</time></trkpt><trkpt lat="40.8303756" lon="9.3204522"><ele>293.0</ele><time>2026-05-02T15:04:37.153Z</time></trkpt><trkpt lat="40.8304894" lon="9.3203832"><ele>293.0</ele><time>2026-05-02T15:04:38.153Z</time></trkpt><trkpt lat="40.8306055" lon="9.3202759"><ele>293.0</ele><time>2026-05-02T15:04:39.154Z</time></trkpt><trkpt lat="40.8307161" lon="9.3201398"><ele>293.0</ele><time>2026-05-02T15:04:40.153Z</time></trkpt><trkpt lat="40.8308214" lon="9.3199821"><ele>293.0</ele><time>2026-05-02T15:04:41.153Z</time></trkpt><trkpt lat="40.8309343" lon="9.3198072"><ele>293.0</ele><time>2026-05-02T15:04:42.154Z</time></trkpt><trkpt lat="40.8310429" lon="9.3196344"><ele>293.33333333333337</ele><time>2026-05-02T15:04:43.154Z</time></trkpt><trkpt lat="40.8311451" lon="9.3194752"><ele>293.6666666666667</ele><time>2026-05-02T15:04:44.154Z</time></trkpt><trkpt lat="40.8312462" lon="9.3193244"><ele>294.0</ele><time>2026-05-02T15:04:45.154Z</time></trkpt><trkpt lat="40.831342" lon="9.3191741"><ele>294.0</ele><time>2026-05-02T15:04:46.153Z</time></trkpt><trkpt lat="40.8314368" lon="9.3190244"><ele>294.0</ele><time>2026-05-02T15:04:47.154Z</time></trkpt><trkpt lat="40.8315393" lon="9.3188661"><ele>294.0</ele><time>2026-05-02T15:04:48.153Z</time></trkpt><trkpt lat="40.8316468" lon="9.3187029"><ele>294.6666666666667</ele><time>2026-05-02T15:04:49.154Z</time></trkpt><trkpt lat="40.831757" lon="9.3185333"><ele>295.33333333333337</ele><time>2026-05-02T15:04:50.154Z</time></trkpt><trkpt lat="40.8318792" lon="9.318357"><ele>296.0</ele><time>2026-05-02T15:04:51.154Z</time></trkpt><trkpt lat="40.8320011" lon="9.318163"><ele>297.6666666666667</ele><time>2026-05-02T15:04:52.153Z</time></trkpt><trkpt lat="40.8321324" lon="9.3179519"><ele>299.3333333333333</ele><time>2026-05-02T15:04:53.153Z</time></trkpt><trkpt lat="40.8322637" lon="9.3177393"><ele>301.0</ele><time>2026-05-02T15:04:54.153Z</time></trkpt><trkpt lat="40.8323979" lon="9.3175252"><ele>301.0</ele><time>2026-05-02T15:04:55.153Z</time></trkpt><trkpt lat="40.8325329" lon="9.3173086"><ele>301.0</ele><time>2026-05-02T15:04:56.154Z</time></trkpt><trkpt lat="40.8326698" lon="9.3170921"><ele>301.0</ele><time>2026-05-02T15:04:57.154Z</time></trkpt><trkpt lat="40.8328088" lon="9.3168731"><ele>302.3333333333333</ele><time>2026-05-02T15:04:58.154Z</time></trkpt><trkpt lat="40.8329486" lon="9.316651"><ele>303.6666666666667</ele><time>2026-05-02T15:04:59.153Z</time></trkpt><trkpt lat="40.8330939" lon="9.3164342"><ele>305.0</ele><time>2026-05-02T15:05:00.154Z</time></trkpt><trkpt lat="40.8332371" lon="9.3162129"><ele>306.33333333333337</ele><time>2026-05-02T15:05:01.154Z</time></trkpt><trkpt lat="40.8333767" lon="9.3159881"><ele>307.6666666666667</ele><time>2026-05-02T15:05:02.154Z</time></trkpt><trkpt lat="40.8335165" lon="9.3157775"><ele>309.0</ele><time>2026-05-02T15:05:03.154Z</time></trkpt><trkpt lat="40.8336574" lon="9.3155712"><ele>310.3333333333333</ele><time>2026-05-02T15:05:04.154Z</time></trkpt><trkpt lat="40.8337914" lon="9.3153652"><ele>311.66666666666663</ele><time>2026-05-02T15:05:05.154Z</time></trkpt><trkpt lat="40.8339129" lon="9.3151725"><ele>313.0</ele><time>2026-05-02T15:05:06.153Z</time></trkpt><trkpt lat="40.8340333" lon="9.3149888"><ele>313.0</ele><time>2026-05-02T15:05:07.154Z</time></trkpt><trkpt lat="40.8341495" lon="9.3148122"><ele>313.0</ele><time>2026-05-02T15:05:08.153Z</time></trkpt><trkpt lat="40.8342631" lon="9.3146368"><ele>313.0</ele><time>2026-05-02T15:05:09.153Z</time></trkpt><trkpt lat="40.8343807" lon="9.3144598"><ele>315.0</ele><time>2026-05-02T15:05:10.154Z</time></trkpt><trkpt lat="40.8344956" lon="9.3142823"><ele>317.0</ele><time>2026-05-02T15:05:11.154Z</time></trkpt><trkpt lat="40.834612" lon="9.3140972"><ele>319.0</ele><time>2026-05-02T15:05:12.153Z</time></trkpt><trkpt lat="40.8347241" lon="9.3139166"><ele>318.0</ele><time>2026-05-02T15:05:13.153Z</time></trkpt><trkpt lat="40.8348269" lon="9.3137531"><ele>317.0</ele><time>2026-05-02T15:05:14.154Z</time></trkpt><trkpt lat="40.8349396" lon="9.3136008"><ele>316.0</ele><time>2026-05-02T15:05:15.153Z</time></trkpt><trkpt lat="40.8350598" lon="9.3134869"><ele>316.75</ele><time>2026-05-02T15:05:16.153Z</time></trkpt><trkpt lat="40.8351882" lon="9.3134122"><ele>317.5</ele><time>2026-05-02T15:05:17.153Z</time></trkpt><trkpt lat="40.8353323" lon="9.3133823"><ele>318.25</ele><time>2026-05-02T15:05:18.153Z</time></trkpt><trkpt lat="40.8354785" lon="9.3133949"><ele>319.0</ele><time>2026-05-02T15:05:19.154Z</time></trkpt><trkpt lat="40.835611" lon="9.3134513"><ele>319.0</ele><time>2026-05-02T15:05:20.153Z</time></trkpt><trkpt lat="40.8357411" lon="9.3135488"><ele>319.0</ele><time>2026-05-02T15:05:21.153Z</time></trkpt><trkpt lat="40.835858" lon="9.3136698"><ele>319.0</ele><time>2026-05-02T15:05:22.153Z</time></trkpt><trkpt lat="40.8359718" lon="9.313812"><ele>320.66666666666663</ele><time>2026-05-02T15:05:23.154Z</time></trkpt><trkpt lat="40.8360868" lon="9.3139497"><ele>322.3333333333333</ele><time>2026-05-02T15:05:24.153Z</time></trkpt><trkpt lat="40.8362021" lon="9.3140978"><ele>324.0</ele><time>2026-05-02T15:05:25.153Z</time></trkpt><trkpt lat="40.836317" lon="9.3142452"><ele>324.0</ele><time>2026-05-02T15:05:26.154Z</time></trkpt><trkpt lat="40.8364387" lon="9.314404"><ele>324.0</ele><time>2026-05-02T15:05:27.154Z</time></trkpt><trkpt lat="40.8365628" lon="9.3145583"><ele>324.0</ele><time>2026-05-02T15:05:28.154Z</time></trkpt><trkpt lat="40.8366938" lon="9.3147247"><ele>324.3333333333333</ele><time>2026-05-02T15:05:29.154Z</time></trkpt><trkpt lat="40.836828" lon="9.3148955"><ele>324.66666666666663</ele><time>2026-05-02T15:05:30.153Z</time></trkpt><trkpt lat="40.8369666" lon="9.31507"><ele>325.0</ele><time>2026-05-02T15:05:31.154Z</time></trkpt><trkpt lat="40.8371055" lon="9.3152529"><ele>325.0</ele><time>2026-05-02T15:05:32.154Z</time></trkpt><trkpt lat="40.837239" lon="9.3154216"><ele>325.0</ele><time>2026-05-02T15:05:33.154Z</time></trkpt><trkpt lat="40.8373681" lon="9.3155782"><ele>325.0</ele><time>2026-05-02T15:05:34.154Z</time></trkpt><trkpt lat="40.8374985" lon="9.3157211"><ele>326.0</ele><time>2026-05-02T15:05:35.153Z</time></trkpt><trkpt lat="40.8376415" lon="9.31585"><ele>327.0</ele><time>2026-05-02T15:05:36.154Z</time></trkpt><trkpt lat="40.8377987" lon="9.3159623"><ele>328.0</ele><time>2026-05-02T15:05:37.154Z</time></trkpt><trkpt lat="40.837972" lon="9.3160467"><ele>328.0</ele><time>2026-05-02T15:05:38.153Z</time></trkpt><trkpt lat="40.8381529" lon="9.3161178"><ele>328.0</ele><time>2026-05-02T15:05:39.154Z</time></trkpt><trkpt lat="40.8383229" lon="9.3161722"><ele>328.0</ele><time>2026-05-02T15:05:40.153Z</time></trkpt><trkpt lat="40.8384796" lon="9.3161877"><ele>330.66666666666663</ele><time>2026-05-02T15:05:41.153Z</time></trkpt><trkpt lat="40.8386226" lon="9.3161488"><ele>333.3333333333333</ele><time>2026-05-02T15:05:42.153Z</time></trkpt><trkpt lat="40.8387485" lon="9.3160511"><ele>336.0</ele><time>2026-05-02T15:05:43.153Z</time></trkpt><trkpt lat="40.83887" lon="9.3159109"><ele>336.0</ele><time>2026-05-02T15:05:44.153Z</time></trkpt><trkpt lat="40.8389849" lon="9.31575"><ele>336.0</ele><time>2026-05-02T15:05:45.154Z</time></trkpt><trkpt lat="40.8391041" lon="9.3156414"><ele>336.0</ele><time>2026-05-02T15:05:46.154Z</time></trkpt><trkpt lat="40.8392327" lon="9.315586"><ele>336.0</ele><time>2026-05-02T15:05:47.154Z</time></trkpt><trkpt lat="40.8393599" lon="9.3155908"><ele>338.3333333333333</ele><time>2026-05-02T15:05:48.153Z</time></trkpt><trkpt lat="40.8394968" lon="9.3156476"><ele>340.66666666666663</ele><time>2026-05-02T15:05:49.153Z</time></trkpt><trkpt lat="40.8396449" lon="9.3157267"><ele>343.0</ele><time>2026-05-02T15:05:50.154Z</time></trkpt><trkpt lat="40.8398054" lon="9.3157647"><ele>343.0</ele><time>2026-05-02T15:05:51.154Z</time></trkpt><trkpt lat="40.8399785" lon="9.3157865"><ele>343.0</ele><time>2026-05-02T15:05:52.154Z</time></trkpt><trkpt lat="40.8401559" lon="9.3158432"><ele>343.0</ele><time>2026-05-02T15:05:53.154Z</time></trkpt><trkpt lat="40.8403421" lon="9.315932"><ele>343.3333333333333</ele><time>2026-05-02T15:05:54.154Z</time></trkpt><trkpt lat="40.8405442" lon="9.3160471"><ele>343.6666666666667</ele><time>2026-05-02T15:05:55.154Z</time></trkpt><trkpt lat="40.8407539" lon="9.3161645"><ele>344.0</ele><time>2026-05-02T15:05:56.153Z</time></trkpt><trkpt lat="40.8409777" lon="9.3162887"><ele>347.0</ele><time>2026-05-02T15:05:57.153Z</time></trkpt><trkpt lat="40.8412107" lon="9.3164245"><ele>350.0</ele><time>2026-05-02T15:05:58.154Z</time></trkpt><trkpt lat="40.8414456" lon="9.3165613"><ele>350.0</ele><time>2026-05-02T15:05:59.154Z</time></trkpt><trkpt lat="40.8416585" lon="9.3166883"><ele>350.0</ele><time>2026-05-02T15:06:00.153Z</time></trkpt><trkpt lat="40.8418622" lon="9.3168059"><ele>350.33333333333337</ele><time>2026-05-02T15:06:01.154Z</time></trkpt><trkpt lat="40.8420658" lon="9.3169027"><ele>350.6666666666667</ele><time>2026-05-02T15:06:02.153Z</time></trkpt><trkpt lat="40.8422706" lon="9.316971"><ele>351.0</ele><time>2026-05-02T15:06:03.153Z</time></trkpt><trkpt lat="40.8424842" lon="9.317025"><ele>351.3333333333333</ele><time>2026-05-02T15:06:04.153Z</time></trkpt><trkpt lat="40.8426946" lon="9.3170396"><ele>351.66666666666663</ele><time>2026-05-02T15:06:05.153Z</time></trkpt><trkpt lat="40.8429145" lon="9.3170651"><ele>352.0</ele><time>2026-05-02T15:06:06.153Z</time></trkpt><trkpt lat="40.8431367" lon="9.317092"><ele>352.0</ele><time>2026-05-02T15:06:07.153Z</time></trkpt><trkpt lat="40.8433629" lon="9.3171156"><ele>352.0</ele><time>2026-05-02T15:06:08.154Z</time></trkpt><trkpt lat="40.8435932" lon="9.3171428"><ele>353.5</ele><time>2026-05-02T15:06:09.154Z</time></trkpt><trkpt lat="40.8438264" lon="9.3171727"><ele>355.0</ele><time>2026-05-02T15:06:10.153Z</time></trkpt><trkpt lat="40.8440612" lon="9.3172002"><ele>355.0</ele><time>2026-05-02T15:06:11.153Z</time></trkpt><trkpt lat="40.8442849" lon="9.317224"><ele>355.0</ele><time>2026-05-02T15:06:12.153Z</time></trkpt><trkpt lat="40.8445053" lon="9.3172384"><ele>355.0</ele><time>2026-05-02T15:06:13.154Z</time></trkpt><trkpt lat="40.8447259" lon="9.317236"><ele>355.0</ele><time>2026-05-02T15:06:14.154Z</time></trkpt><trkpt lat="40.8449488" lon="9.3172127"><ele>355.0</ele><time>2026-05-02T15:06:15.153Z</time></trkpt><trkpt lat="40.8451709" lon="9.3171811"><ele>355.0</ele><time>2026-05-02T15:06:16.153Z</time></trkpt><trkpt lat="40.8453755" lon="9.3171443"><ele>357.0</ele><time>2026-05-02T15:06:17.154Z</time></trkpt><trkpt lat="40.8455557" lon="9.317116"><ele>359.0</ele><time>2026-05-02T15:06:18.154Z</time></trkpt><trkpt lat="40.8457217" lon="9.317101"><ele>361.0</ele><time>2026-05-02T15:06:19.154Z</time></trkpt><trkpt lat="40.8458801" lon="9.3171097"><ele>361.0</ele><time>2026-05-02T15:06:20.153Z</time></trkpt><trkpt lat="40.846032" lon="9.3171616"><ele>361.0</ele><time>2026-05-02T15:06:21.153Z</time></trkpt><trkpt lat="40.846167" lon="9.3172529"><ele>361.0</ele><time>2026-05-02T15:06:22.154Z</time></trkpt><trkpt lat="40.8462941" lon="9.3173797"><ele>362.3333333333333</ele><time>2026-05-02T15:06:23.153Z</time></trkpt><trkpt lat="40.846416" lon="9.3175384"><ele>363.6666666666667</ele><time>2026-05-02T15:06:24.154Z</time></trkpt><trkpt lat="40.8465271" lon="9.317707"><ele>365.0</ele><time>2026-05-02T15:06:25.154Z</time></trkpt><trkpt lat="40.846621" lon="9.317891"><ele>365.6666666666667</ele><time>2026-05-02T15:06:26.153Z</time></trkpt><trkpt lat="40.8467006" lon="9.3180934"><ele>366.3333333333333</ele><time>2026-05-02T15:06:27.154Z</time></trkpt><trkpt lat="40.8467743" lon="9.318309"><ele>367.0</ele><time>2026-05-02T15:06:28.153Z</time></trkpt><trkpt lat="40.8468604" lon="9.3185193"><ele>367.0</ele><time>2026-05-02T15:06:29.153Z</time></trkpt><trkpt lat="40.8469732" lon="9.318704"><ele>367.0</ele><time>2026-05-02T15:06:30.154Z</time></trkpt><trkpt lat="40.8471097" lon="9.3188615"><ele>367.0</ele><time>2026-05-02T15:06:31.154Z</time></trkpt><trkpt lat="40.847272" lon="9.3189827"><ele>367.3333333333333</ele><time>2026-05-02T15:06:32.153Z</time></trkpt><trkpt lat="40.847457" lon="9.3190807"><ele>367.6666666666667</ele><time>2026-05-02T15:06:33.153Z</time></trkpt><trkpt lat="40.8476601" lon="9.319177"><ele>368.0</ele><time>2026-05-02T15:06:34.153Z</time></trkpt><trkpt lat="40.847867" lon="9.3192748"><ele>369.0</ele><time>2026-05-02T15:06:35.153Z</time></trkpt><trkpt lat="40.8480771" lon="9.3193791"><ele>370.0</ele><time>2026-05-02T15:06:36.153Z</time></trkpt><trkpt lat="40.8482929" lon="9.3194883"><ele>370.5</ele><time>2026-05-02T15:06:37.153Z</time></trkpt><trkpt lat="40.848516" lon="9.3195975"><ele>371.0</ele><time>2026-05-02T15:06:38.154Z</time></trkpt><trkpt lat="40.8487436" lon="9.3197102"><ele>370.0</ele><time>2026-05-02T15:06:39.154Z</time></trkpt><trkpt lat="40.8489775" lon="9.319825"><ele>369.0</ele><time>2026-05-02T15:06:40.153Z</time></trkpt><trkpt lat="40.8492165" lon="9.3199414"><ele>368.0</ele><time>2026-05-02T15:06:41.154Z</time></trkpt><trkpt lat="40.8494597" lon="9.3200579"><ele>367.0</ele><time>2026-05-02T15:06:42.153Z</time></trkpt><trkpt lat="40.8497058" lon="9.3201761"><ele>367.0</ele><time>2026-05-02T15:06:43.154Z</time></trkpt><trkpt lat="40.8499544" lon="9.3202969"><ele>367.0</ele><time>2026-05-02T15:06:44.154Z</time></trkpt><trkpt lat="40.8502025" lon="9.3204189"><ele>365.5</ele><time>2026-05-02T15:06:45.154Z</time></trkpt><trkpt lat="40.8504419" lon="9.3205396"><ele>364.0</ele><time>2026-05-02T15:06:46.153Z</time></trkpt><trkpt lat="40.8506766" lon="9.3206704"><ele>363.5</ele><time>2026-05-02T15:06:47.153Z</time></trkpt><trkpt lat="40.8509067" lon="9.3208181"><ele>363.0</ele><time>2026-05-02T15:06:48.153Z</time></trkpt><trkpt lat="40.8511293" lon="9.3209797"><ele>363.0</ele><time>2026-05-02T15:06:49.154Z</time></trkpt><trkpt lat="40.8513453" lon="9.3211545"><ele>363.0</ele><time>2026-05-02T15:06:50.154Z</time></trkpt><trkpt lat="40.8515574" lon="9.3213346"><ele>362.5</ele><time>2026-05-02T15:06:51.153Z</time></trkpt><trkpt lat="40.8517685" lon="9.3215121"><ele>362.0</ele><time>2026-05-02T15:06:52.154Z</time></trkpt><trkpt lat="40.8519706" lon="9.3216796"><ele>363.5</ele><time>2026-05-02T15:06:53.153Z</time></trkpt><trkpt lat="40.8521607" lon="9.3218389"><ele>365.0</ele><time>2026-05-02T15:06:54.154Z</time></trkpt><trkpt lat="40.8523518" lon="9.3219959"><ele>365.0</ele><time>2026-05-02T15:06:55.153Z</time></trkpt><trkpt lat="40.8525442" lon="9.3221583"><ele>365.0</ele><time>2026-05-02T15:06:56.154Z</time></trkpt><trkpt lat="40.8527432" lon="9.3223236"><ele>365.0</ele><time>2026-05-02T15:06:57.153Z</time></trkpt><trkpt lat="40.8529428" lon="9.3224882"><ele>365.0</ele><time>2026-05-02T15:06:58.154Z</time></trkpt><trkpt lat="40.8531297" lon="9.3226521"><ele>365.0</ele><time>2026-05-02T15:06:59.153Z</time></trkpt><trkpt lat="40.8533063" lon="9.3228211"><ele>365.0</ele><time>2026-05-02T15:07:00.153Z</time></trkpt><trkpt lat="40.8534783" lon="9.3230031"><ele>365.0</ele><time>2026-05-02T15:07:01.154Z</time></trkpt><trkpt lat="40.853647" lon="9.3231958"><ele>367.0</ele><time>2026-05-02T15:07:02.154Z</time></trkpt><trkpt lat="40.8538138" lon="9.3234009"><ele>369.0</ele><time>2026-05-02T15:07:03.154Z</time></trkpt><trkpt lat="40.8539776" lon="9.3236109"><ele>369.0</ele><time>2026-05-02T15:07:04.154Z</time></trkpt><trkpt lat="40.8541424" lon="9.323825"><ele>369.0</ele><time>2026-05-02T15:07:05.154Z</time></trkpt><trkpt lat="40.8543097" lon="9.3240385"><ele>369.5</ele><time>2026-05-02T15:07:06.154Z</time></trkpt><trkpt lat="40.8544802" lon="9.3242471"><ele>370.0</ele><time>2026-05-02T15:07:07.153Z</time></trkpt><trkpt lat="40.8546505" lon="9.3244425"><ele>370.0</ele><time>2026-05-02T15:07:08.153Z</time></trkpt><trkpt lat="40.8548194" lon="9.3246122"><ele>370.0</ele><time>2026-05-02T15:07:09.153Z</time></trkpt><trkpt lat="40.8549919" lon="9.3247584"><ele>370.0</ele><time>2026-05-02T15:07:10.153Z</time></trkpt><trkpt lat="40.8551696" lon="9.324866"><ele>368.3333333333333</ele><time>2026-05-02T15:07:11.153Z</time></trkpt><trkpt lat="40.8553584" lon="9.3249295"><ele>366.6666666666667</ele><time>2026-05-02T15:07:12.154Z</time></trkpt><trkpt lat="40.8555591" lon="9.3249522"><ele>365.0</ele><time>2026-05-02T15:07:13.153Z</time></trkpt><trkpt lat="40.8557712" lon="9.324953"><ele>363.0</ele><time>2026-05-02T15:07:14.154Z</time></trkpt><trkpt lat="40.85599" lon="9.3249351"><ele>361.0</ele><time>2026-05-02T15:07:15.154Z</time></trkpt><trkpt lat="40.8562129" lon="9.3248941"><ele>359.0</ele><time>2026-05-02T15:07:16.153Z</time></trkpt><trkpt lat="40.8564292" lon="9.32483"><ele>359.0</ele><time>2026-05-02T15:07:17.154Z</time></trkpt><trkpt lat="40.8566316" lon="9.3247473"><ele>359.0</ele><time>2026-05-02T15:07:18.153Z</time></trkpt><trkpt lat="40.8568109" lon="9.3246638"><ele>359.0</ele><time>2026-05-02T15:07:19.153Z</time></trkpt><trkpt lat="40.8569712" lon="9.3245935"><ele>359.25</ele><time>2026-05-02T15:07:20.154Z</time></trkpt><trkpt lat="40.8571148" lon="9.3245604"><ele>359.5</ele><time>2026-05-02T15:07:21.153Z</time></trkpt><trkpt lat="40.8572484" lon="9.3245828"><ele>359.75</ele><time>2026-05-02T15:07:22.153Z</time></trkpt><trkpt lat="40.8573626" lon="9.3246575"><ele>360.0</ele><time>2026-05-02T15:07:23.154Z</time></trkpt><trkpt lat="40.857451" lon="9.3247865"><ele>359.0</ele><time>2026-05-02T15:07:24.153Z</time></trkpt><trkpt lat="40.8575157" lon="9.3249599"><ele>358.0</ele><time>2026-05-02T15:07:25.153Z</time></trkpt><trkpt lat="40.8575656" lon="9.3251721"><ele>357.0</ele><time>2026-05-02T15:07:26.153Z</time></trkpt><trkpt lat="40.8576088" lon="9.3254196"><ele>356.6666666666667</ele><time>2026-05-02T15:07:27.154Z</time></trkpt><trkpt lat="40.8576514" lon="9.3256954"><ele>356.33333333333337</ele><time>2026-05-02T15:07:28.153Z</time></trkpt><trkpt lat="40.8576893" lon="9.3259878"><ele>356.0</ele><time>2026-05-02T15:07:29.154Z</time></trkpt><trkpt lat="40.8577205" lon="9.3262726"><ele>354.33333333333337</ele><time>2026-05-02T15:07:30.153Z</time></trkpt><trkpt lat="40.8577552" lon="9.3265506"><ele>352.6666666666667</ele><time>2026-05-02T15:07:31.153Z</time></trkpt><trkpt lat="40.8578072" lon="9.3268245"><ele>351.0</ele><time>2026-05-02T15:07:32.154Z</time></trkpt><trkpt lat="40.85788" lon="9.3270877"><ele>349.6666666666667</ele><time>2026-05-02T15:07:33.154Z</time></trkpt><trkpt lat="40.8579741" lon="9.3273372"><ele>348.33333333333337</ele><time>2026-05-02T15:07:34.154Z</time></trkpt><trkpt lat="40.8580813" lon="9.3275774"><ele>347.0</ele><time>2026-05-02T15:07:35.154Z</time></trkpt><trkpt lat="40.8581945" lon="9.3278143"><ele>346.0</ele><time>2026-05-02T15:07:36.154Z</time></trkpt><trkpt lat="40.8582812" lon="9.32806"><ele>345.0</ele><time>2026-05-02T15:07:37.153Z</time></trkpt><trkpt lat="40.8583328" lon="9.3283122"><ele>344.0</ele><time>2026-05-02T15:07:38.153Z</time></trkpt><trkpt lat="40.8583633" lon="9.3285702"><ele>344.0</ele><time>2026-05-02T15:07:39.154Z</time></trkpt><trkpt lat="40.8583652" lon="9.3288363"><ele>344.0</ele><time>2026-05-02T15:07:40.154Z</time></trkpt><trkpt lat="40.8583492" lon="9.3291062"><ele>344.0</ele><time>2026-05-02T15:07:41.153Z</time></trkpt><trkpt lat="40.8583375" lon="9.3293851"><ele>342.0</ele><time>2026-05-02T15:07:42.153Z</time></trkpt><trkpt lat="40.8583412" lon="9.3296738"><ele>340.0</ele><time>2026-05-02T15:07:43.154Z</time></trkpt><trkpt lat="40.8583605" lon="9.3299661"><ele>338.0</ele><time>2026-05-02T15:07:44.153Z</time></trkpt><trkpt lat="40.8583902" lon="9.3302668"><ele>333.0</ele><time>2026-05-02T15:07:45.153Z</time></trkpt><trkpt lat="40.8584202" lon="9.3305687"><ele>328.0</ele><time>2026-05-02T15:07:46.153Z</time></trkpt><trkpt lat="40.8584508" lon="9.3308579"><ele>330.3333333333333</ele><time>2026-05-02T15:07:47.154Z</time></trkpt><trkpt lat="40.8584812" lon="9.3311395"><ele>332.6666666666667</ele><time>2026-05-02T15:07:48.154Z</time></trkpt><trkpt lat="40.858508" lon="9.3314155"><ele>335.0</ele><time>2026-05-02T15:07:49.153Z</time></trkpt><trkpt lat="40.8585388" lon="9.3316851"><ele>335.0</ele><time>2026-05-02T15:07:50.154Z</time></trkpt><trkpt lat="40.8585881" lon="9.3319504"><ele>335.0</ele><time>2026-05-02T15:07:51.153Z</time></trkpt><trkpt lat="40.8586632" lon="9.3322114"><ele>335.0</ele><time>2026-05-02T15:07:52.153Z</time></trkpt><trkpt lat="40.8587612" lon="9.3324587"><ele>332.6666666666667</ele><time>2026-05-02T15:07:53.153Z</time></trkpt><trkpt lat="40.858876" lon="9.3326994"><ele>330.3333333333333</ele><time>2026-05-02T15:07:54.153Z</time></trkpt><trkpt lat="40.8589983" lon="9.3329384"><ele>328.0</ele><time>2026-05-02T15:07:55.153Z</time></trkpt><trkpt lat="40.8591244" lon="9.333169"><ele>328.3333333333333</ele><time>2026-05-02T15:07:56.154Z</time></trkpt><trkpt lat="40.8592424" lon="9.3333918"><ele>328.6666666666667</ele><time>2026-05-02T15:07:57.154Z</time></trkpt><trkpt lat="40.8593459" lon="9.3336028"><ele>329.0</ele><time>2026-05-02T15:07:58.153Z</time></trkpt><trkpt lat="40.8594292" lon="9.3338116"><ele>326.0</ele><time>2026-05-02T15:07:59.154Z</time></trkpt><trkpt lat="40.8594908" lon="9.3340282"><ele>323.0</ele><time>2026-05-02T15:08:00.154Z</time></trkpt><trkpt lat="40.8595297" lon="9.3342537"><ele>320.0</ele><time>2026-05-02T15:08:01.153Z</time></trkpt><trkpt lat="40.8595597" lon="9.3344841"><ele>320.0</ele><time>2026-05-02T15:08:02.154Z</time></trkpt><trkpt lat="40.8595943" lon="9.3347083"><ele>320.0</ele><time>2026-05-02T15:08:03.154Z</time></trkpt><trkpt lat="40.8596443" lon="9.3349134"><ele>320.0</ele><time>2026-05-02T15:08:04.154Z</time></trkpt><trkpt lat="40.859727" lon="9.3350973"><ele>316.33333333333337</ele><time>2026-05-02T15:08:05.154Z</time></trkpt><trkpt lat="40.8598377" lon="9.3352768"><ele>312.6666666666667</ele><time>2026-05-02T15:08:06.153Z</time></trkpt><trkpt lat="40.8599671" lon="9.3354559"><ele>309.0</ele><time>2026-05-02T15:08:07.154Z</time></trkpt><trkpt lat="40.860114" lon="9.3356537"><ele>306.5</ele><time>2026-05-02T15:08:08.153Z</time></trkpt><trkpt lat="40.8602676" lon="9.3358743"><ele>304.0</ele><time>2026-05-02T15:08:09.154Z</time></trkpt><trkpt lat="40.8604257" lon="9.3361108"><ele>304.0</ele><time>2026-05-02T15:08:10.154Z</time></trkpt><trkpt lat="40.860584" lon="9.3363578"><ele>304.0</ele><time>2026-05-02T15:08:11.153Z</time></trkpt><trkpt lat="40.8607471" lon="9.3366061"><ele>302.5</ele><time>2026-05-02T15:08:12.153Z</time></trkpt><trkpt lat="40.8609136" lon="9.336856"><ele>301.0</ele><time>2026-05-02T15:08:13.154Z</time></trkpt><trkpt lat="40.8610796" lon="9.3371041"><ele>300.5</ele><time>2026-05-02T15:08:14.154Z</time></trkpt><trkpt lat="40.8612377" lon="9.3373378"><ele>300.0</ele><time>2026-05-02T15:08:15.153Z</time></trkpt><trkpt lat="40.8613866" lon="9.3375542"><ele>300.0</ele><time>2026-05-02T15:08:16.154Z</time></trkpt><trkpt lat="40.8615188" lon="9.3377602"><ele>300.0</ele><time>2026-05-02T15:08:17.153Z</time></trkpt><trkpt lat="40.8616292" lon="9.3379706"><ele>300.0</ele><time>2026-05-02T15:08:18.154Z</time></trkpt><trkpt lat="40.8617197" lon="9.3381987"><ele>299.6666666666667</ele><time>2026-05-02T15:08:19.153Z</time></trkpt><trkpt lat="40.8617931" lon="9.3384436"><ele>299.33333333333337</ele><time>2026-05-02T15:08:20.154Z</time></trkpt><trkpt lat="40.8618598" lon="9.3387042"><ele>299.0</ele><time>2026-05-02T15:08:21.154Z</time></trkpt><trkpt lat="40.861931" lon="9.3389713"><ele>299.0</ele><time>2026-05-02T15:08:22.153Z</time></trkpt><trkpt lat="40.8620035" lon="9.3392412"><ele>299.0</ele><time>2026-05-02T15:08:23.153Z</time></trkpt><trkpt lat="40.8620779" lon="9.3395116"><ele>299.0</ele><time>2026-05-02T15:08:24.153Z</time></trkpt><trkpt lat="40.8621541" lon="9.339785"><ele>298.6666666666667</ele><time>2026-05-02T15:08:25.154Z</time></trkpt><trkpt lat="40.8622322" lon="9.340061"><ele>298.3333333333333</ele><time>2026-05-02T15:08:26.153Z</time></trkpt><trkpt lat="40.8623107" lon="9.3403403"><ele>298.0</ele><time>2026-05-02T15:08:27.154Z</time></trkpt><trkpt lat="40.8623881" lon="9.3406208"><ele>297.3333333333333</ele><time>2026-05-02T15:08:28.153Z</time></trkpt><trkpt lat="40.8624653" lon="9.3409"><ele>296.6666666666667</ele><time>2026-05-02T15:08:29.153Z</time></trkpt><trkpt lat="40.8625427" lon="9.3411761"><ele>296.0</ele><time>2026-05-02T15:08:30.154Z</time></trkpt><trkpt lat="40.8626232" lon="9.3414491"><ele>297.6666666666667</ele><time>2026-05-02T15:08:31.154Z</time></trkpt><trkpt lat="40.862709" lon="9.341718"><ele>299.3333333333333</ele><time>2026-05-02T15:08:32.153Z</time></trkpt><trkpt lat="40.8628033" lon="9.3419848"><ele>301.0</ele><time>2026-05-02T15:08:33.153Z</time></trkpt><trkpt lat="40.8629079" lon="9.3422463"><ele>301.0</ele><time>2026-05-02T15:08:34.154Z</time></trkpt><trkpt lat="40.8630185" lon="9.3425028"><ele>301.0</ele><time>2026-05-02T15:08:35.154Z</time></trkpt><trkpt lat="40.8631314" lon="9.3427607"><ele>301.0</ele><time>2026-05-02T15:08:36.154Z</time></trkpt><trkpt lat="40.8632436" lon="9.343018"><ele>300.3333333333333</ele><time>2026-05-02T15:08:37.153Z</time></trkpt><trkpt lat="40.8633568" lon="9.3432732"><ele>299.6666666666667</ele><time>2026-05-02T15:08:38.154Z</time></trkpt><trkpt lat="40.8634691" lon="9.3435302"><ele>299.0</ele><time>2026-05-02T15:08:39.154Z</time></trkpt><trkpt lat="40.8635805" lon="9.3437877"><ele>298.6666666666667</ele><time>2026-05-02T15:08:40.154Z</time></trkpt><trkpt lat="40.8636966" lon="9.3440417"><ele>298.3333333333333</ele><time>2026-05-02T15:08:41.153Z</time></trkpt><trkpt lat="40.8638229" lon="9.3442795"><ele>298.0</ele><time>2026-05-02T15:08:42.153Z</time></trkpt><trkpt lat="40.8639614" lon="9.3444941"><ele>298.0</ele><time>2026-05-02T15:08:43.153Z</time></trkpt><trkpt lat="40.8641185" lon="9.3446824"><ele>298.0</ele><time>2026-05-02T15:08:44.153Z</time></trkpt><trkpt lat="40.8642915" lon="9.3448463"><ele>298.0</ele><time>2026-05-02T15:08:45.153Z</time></trkpt><trkpt lat="40.8644777" lon="9.3449951"><ele>297.0</ele><time>2026-05-02T15:08:46.153Z</time></trkpt><trkpt lat="40.864668" lon="9.3451452"><ele>296.0</ele><time>2026-05-02T15:08:47.153Z</time></trkpt><trkpt lat="40.8648629" lon="9.3452973"><ele>295.0</ele><time>2026-05-02T15:08:48.154Z</time></trkpt><trkpt lat="40.8650602" lon="9.34545"><ele>291.5</ele><time>2026-05-02T15:08:49.153Z</time></trkpt><trkpt lat="40.8652592" lon="9.3456033"><ele>288.0</ele><time>2026-05-02T15:08:50.154Z</time></trkpt><trkpt lat="40.8654595" lon="9.3457559"><ele>288.0</ele><time>2026-05-02T15:08:51.154Z</time></trkpt><trkpt lat="40.865661" lon="9.3459106"><ele>288.0</ele><time>2026-05-02T15:08:52.154Z</time></trkpt><trkpt lat="40.865862" lon="9.3460686"><ele>288.6666666666667</ele><time>2026-05-02T15:08:53.153Z</time></trkpt><trkpt lat="40.866058" lon="9.3462231"><ele>289.33333333333337</ele><time>2026-05-02T15:08:54.154Z</time></trkpt><trkpt lat="40.866241" lon="9.3463571"><ele>290.0</ele><time>2026-05-02T15:08:55.153Z</time></trkpt><trkpt lat="40.8664129" lon="9.3464532"><ele>288.33333333333337</ele><time>2026-05-02T15:08:56.153Z</time></trkpt><trkpt lat="40.8665766" lon="9.3465037"><ele>286.6666666666667</ele><time>2026-05-02T15:08:57.154Z</time></trkpt><trkpt lat="40.8667412" lon="9.3464995"><ele>285.0</ele><time>2026-05-02T15:08:58.153Z</time></trkpt><trkpt lat="40.8669171" lon="9.3464438"><ele>285.3333333333333</ele><time>2026-05-02T15:08:59.154Z</time></trkpt><trkpt lat="40.8671046" lon="9.346355"><ele>285.66666666666663</ele><time>2026-05-02T15:09:00.154Z</time></trkpt><trkpt lat="40.8672891" lon="9.3462545"><ele>286.0</ele><time>2026-05-02T15:09:01.153Z</time></trkpt><trkpt lat="40.8674621" lon="9.3461546"><ele>285.0</ele><time>2026-05-02T15:09:02.153Z</time></trkpt><trkpt lat="40.867621" lon="9.3460657"><ele>284.0</ele><time>2026-05-02T15:09:03.154Z</time></trkpt><trkpt lat="40.8677697" lon="9.346015"><ele>283.0</ele><time>2026-05-02T15:09:04.153Z</time></trkpt><trkpt lat="40.8679132" lon="9.3460116"><ele>283.0</ele><time>2026-05-02T15:09:05.154Z</time></trkpt><trkpt lat="40.8680552" lon="9.3460331"><ele>283.0</ele><time>2026-05-02T15:09:06.154Z</time></trkpt><trkpt lat="40.8681719" lon="9.3460784"><ele>283.0</ele><time>2026-05-02T15:09:07.154Z</time></trkpt><trkpt lat="40.8682589" lon="9.3461713"><ele>283.0</ele><time>2026-05-02T15:09:08.153Z</time></trkpt><trkpt lat="40.8683164" lon="9.3463069"><ele>283.0</ele><time>2026-05-02T15:09:09.154Z</time></trkpt><trkpt lat="40.8683448" lon="9.3464808"><ele>283.0</ele><time>2026-05-02T15:09:10.153Z</time></trkpt><trkpt lat="40.8683686" lon="9.3467144"><ele>283.0</ele><time>2026-05-02T15:09:11.153Z</time></trkpt><trkpt lat="40.8684099" lon="9.3469949"><ele>285.0</ele><time>2026-05-02T15:09:12.154Z</time></trkpt><trkpt lat="40.8684566" lon="9.3472678"><ele>287.0</ele><time>2026-05-02T15:09:13.154Z</time></trkpt><trkpt lat="40.8685127" lon="9.3475312"><ele>289.0</ele><time>2026-05-02T15:09:14.153Z</time></trkpt><trkpt lat="40.8685761" lon="9.3477975"><ele>289.0</ele><time>2026-05-02T15:09:15.153Z</time></trkpt><trkpt lat="40.868642" lon="9.3480687"><ele>289.0</ele><time>2026-05-02T15:09:16.154Z</time></trkpt><trkpt lat="40.8687063" lon="9.3483415"><ele>289.0</ele><time>2026-05-02T15:09:17.153Z</time></trkpt><trkpt lat="40.8687768" lon="9.3486164"><ele>289.0</ele><time>2026-05-02T15:09:18.154Z</time></trkpt><trkpt lat="40.8688464" lon="9.3488892"><ele>289.0</ele><time>2026-05-02T15:09:19.154Z</time></trkpt><trkpt lat="40.8689146" lon="9.34916"><ele>289.0</ele><time>2026-05-02T15:09:20.153Z</time></trkpt><trkpt lat="40.8689821" lon="9.3494322"><ele>289.0</ele><time>2026-05-02T15:09:21.153Z</time></trkpt><trkpt lat="40.8690508" lon="9.3497037"><ele>289.0</ele><time>2026-05-02T15:09:22.153Z</time></trkpt><trkpt lat="40.8691178" lon="9.3499752"><ele>289.0</ele><time>2026-05-02T15:09:23.153Z</time></trkpt><trkpt lat="40.8691841" lon="9.350247"><ele>288.0</ele><time>2026-05-02T15:09:24.154Z</time></trkpt><trkpt lat="40.8692532" lon="9.3505254"><ele>287.0</ele><time>2026-05-02T15:09:25.154Z</time></trkpt><trkpt lat="40.8693255" lon="9.350806"><ele>286.0</ele><time>2026-05-02T15:09:26.153Z</time></trkpt><trkpt lat="40.8693986" lon="9.3510919"><ele>291.0</ele><time>2026-05-02T15:09:27.153Z</time></trkpt><trkpt lat="40.8694721" lon="9.3513799"><ele>296.0</ele><time>2026-05-02T15:09:28.153Z</time></trkpt><trkpt lat="40.8695458" lon="9.3516708"><ele>296.0</ele><time>2026-05-02T15:09:29.153Z</time></trkpt><trkpt lat="40.8696207" lon="9.3519661"><ele>296.0</ele><time>2026-05-02T15:09:30.153Z</time></trkpt><trkpt lat="40.8696952" lon="9.3522631"><ele>295.0</ele><time>2026-05-02T15:09:31.153Z</time></trkpt><trkpt lat="40.8697676" lon="9.3525614"><ele>294.0</ele><time>2026-05-02T15:09:32.153Z</time></trkpt><trkpt lat="40.8698422" lon="9.3528578"><ele>295.0</ele><time>2026-05-02T15:09:33.153Z</time></trkpt><trkpt lat="40.8699163" lon="9.3531533"><ele>296.0</ele><time>2026-05-02T15:09:34.153Z</time></trkpt><trkpt lat="40.8699909" lon="9.3534491"><ele>296.0</ele><time>2026-05-02T15:09:35.154Z</time></trkpt><trkpt lat="40.8700638" lon="9.3537476"><ele>296.0</ele><time>2026-05-02T15:09:36.153Z</time></trkpt><trkpt lat="40.8701383" lon="9.3540466"><ele>297.0</ele><time>2026-05-02T15:09:37.154Z</time></trkpt><trkpt lat="40.8702139" lon="9.3543482"><ele>298.0</ele><time>2026-05-02T15:09:38.154Z</time></trkpt><trkpt lat="40.870288" lon="9.3546508"><ele>298.0</ele><time>2026-05-02T15:09:39.153Z</time></trkpt><trkpt lat="40.8703631" lon="9.3549548"><ele>298.0</ele><time>2026-05-02T15:09:40.154Z</time></trkpt><trkpt lat="40.8704398" lon="9.3552588"><ele>298.0</ele><time>2026-05-02T15:09:41.154Z</time></trkpt><trkpt lat="40.8705131" lon="9.3555501"><ele>298.0</ele><time>2026-05-02T15:09:42.153Z</time></trkpt><trkpt lat="40.8705833" lon="9.3558254"><ele>298.0</ele><time>2026-05-02T15:09:43.153Z</time></trkpt><trkpt lat="40.8706496" lon="9.3560874"><ele>298.0</ele><time>2026-05-02T15:09:44.154Z</time></trkpt><trkpt lat="40.8707124" lon="9.3563444"><ele>298.0</ele><time>2026-05-02T15:09:45.153Z</time></trkpt><trkpt lat="40.8707737" lon="9.3565962"><ele>299.0</ele><time>2026-05-02T15:09:46.154Z</time></trkpt><trkpt lat="40.8708357" lon="9.3568422"><ele>300.0</ele><time>2026-05-02T15:09:47.154Z</time></trkpt><trkpt lat="40.8708968" lon="9.3570845"><ele>301.0</ele><time>2026-05-02T15:09:48.153Z</time></trkpt><trkpt lat="40.8709561" lon="9.3573208"><ele>301.3333333333333</ele><time>2026-05-02T15:09:49.154Z</time></trkpt><trkpt lat="40.87101" lon="9.3575442"><ele>301.6666666666667</ele><time>2026-05-02T15:09:50.153Z</time></trkpt><trkpt lat="40.8710557" lon="9.3577383"><ele>302.0</ele><time>2026-05-02T15:09:51.154Z</time></trkpt><trkpt lat="40.8710958" lon="9.3578939"><ele>302.0</ele><time>2026-05-02T15:09:52.154Z</time></trkpt><trkpt lat="40.8711324" lon="9.3580059"><ele>302.0</ele><time>2026-05-02T15:09:53.153Z</time></trkpt><trkpt lat="40.8711642" lon="9.3580853"><ele>302.0</ele><time>2026-05-02T15:09:54.154Z</time></trkpt><trkpt lat="40.8712439" lon="9.3582268"><ele>302.0</ele><time>2026-05-02T15:09:56.154Z</time></trkpt><trkpt lat="40.8713088" lon="9.3583135"><ele>302.0</ele><time>2026-05-02T15:09:57.153Z</time></trkpt><trkpt lat="40.8713862" lon="9.3584138"><ele>301.25</ele><time>2026-05-02T15:09:58.154Z</time></trkpt><trkpt lat="40.8714738" lon="9.3585299"><ele>300.5</ele><time>2026-05-02T15:09:59.153Z</time></trkpt><trkpt lat="40.8715681" lon="9.3586632"><ele>299.75</ele><time>2026-05-02T15:10:00.154Z</time></trkpt><trkpt lat="40.8716714" lon="9.3588132"><ele>299.0</ele><time>2026-05-02T15:10:01.154Z</time></trkpt><trkpt lat="40.8717842" lon="9.35897"><ele>296.6666666666667</ele><time>2026-05-02T15:10:02.154Z</time></trkpt><trkpt lat="40.8719032" lon="9.3591361"><ele>294.3333333333333</ele><time>2026-05-02T15:10:03.153Z</time></trkpt><trkpt lat="40.8720266" lon="9.3593105"><ele>292.0</ele><time>2026-05-02T15:10:04.153Z</time></trkpt><trkpt lat="40.8721538" lon="9.3594904"><ele>292.0</ele><time>2026-05-02T15:10:05.153Z</time></trkpt><trkpt lat="40.8722866" lon="9.3596741"><ele>292.0</ele><time>2026-05-02T15:10:06.154Z</time></trkpt><trkpt lat="40.872423" lon="9.3598645"><ele>292.0</ele><time>2026-05-02T15:10:07.154Z</time></trkpt><trkpt lat="40.8725623" lon="9.3600579"><ele>291.0</ele><time>2026-05-02T15:10:08.154Z</time></trkpt><trkpt lat="40.8726983" lon="9.3602503"><ele>290.0</ele><time>2026-05-02T15:10:09.154Z</time></trkpt><trkpt lat="40.8728278" lon="9.3604364"><ele>289.0</ele><time>2026-05-02T15:10:10.154Z</time></trkpt><trkpt lat="40.8729552" lon="9.3606216"><ele>289.0</ele><time>2026-05-02T15:10:11.154Z</time></trkpt><trkpt lat="40.8730835" lon="9.3608074"><ele>289.0</ele><time>2026-05-02T15:10:12.154Z</time></trkpt><trkpt lat="40.8732098" lon="9.3609904"><ele>289.0</ele><time>2026-05-02T15:10:13.153Z</time></trkpt><trkpt lat="40.8733363" lon="9.3611685"><ele>289.0</ele><time>2026-05-02T15:10:14.153Z</time></trkpt><trkpt lat="40.8734549" lon="9.3613353"><ele>289.0</ele><time>2026-05-02T15:10:15.153Z</time></trkpt><trkpt lat="40.8735663" lon="9.3614933"><ele>289.0</ele><time>2026-05-02T15:10:16.154Z</time></trkpt><trkpt lat="40.8736786" lon="9.3616513"><ele>288.3333333333333</ele><time>2026-05-02T15:10:17.154Z</time></trkpt><trkpt lat="40.8737925" lon="9.3618107"><ele>287.6666666666667</ele><time>2026-05-02T15:10:18.154Z</time></trkpt><trkpt lat="40.8739061" lon="9.3619715"><ele>287.0</ele><time>2026-05-02T15:10:19.153Z</time></trkpt><trkpt lat="40.8740219" lon="9.3621365"><ele>286.6666666666667</ele><time>2026-05-02T15:10:20.153Z</time></trkpt><trkpt lat="40.8741402" lon="9.362307"><ele>286.3333333333333</ele><time>2026-05-02T15:10:21.154Z</time></trkpt><trkpt lat="40.8742613" lon="9.3624819"><ele>286.0</ele><time>2026-05-02T15:10:22.153Z</time></trkpt><trkpt lat="40.8743844" lon="9.3626596"><ele>286.3333333333333</ele><time>2026-05-02T15:10:23.153Z</time></trkpt><trkpt lat="40.8745112" lon="9.362839"><ele>286.6666666666667</ele><time>2026-05-02T15:10:24.154Z</time></trkpt><trkpt lat="40.87464" lon="9.3630208"><ele>287.0</ele><time>2026-05-02T15:10:25.154Z</time></trkpt><trkpt lat="40.8747705" lon="9.3632042"><ele>287.0</ele><time>2026-05-02T15:10:26.154Z</time></trkpt><trkpt lat="40.8749016" lon="9.3633889"><ele>287.0</ele><time>2026-05-02T15:10:27.153Z</time></trkpt><trkpt lat="40.8750335" lon="9.3635775"><ele>287.0</ele><time>2026-05-02T15:10:28.153Z</time></trkpt><trkpt lat="40.8751652" lon="9.363764"><ele>286.6666666666667</ele><time>2026-05-02T15:10:29.153Z</time></trkpt><trkpt lat="40.8752964" lon="9.3639515"><ele>286.3333333333333</ele><time>2026-05-02T15:10:30.154Z</time></trkpt><trkpt lat="40.8754273" lon="9.3641386"><ele>286.0</ele><time>2026-05-02T15:10:31.153Z</time></trkpt><trkpt lat="40.8755586" lon="9.3643252"><ele>286.0</ele><time>2026-05-02T15:10:32.153Z</time></trkpt><trkpt lat="40.8756889" lon="9.3645076"><ele>286.0</ele><time>2026-05-02T15:10:33.153Z</time></trkpt><trkpt lat="40.8758114" lon="9.3646804"><ele>286.0</ele><time>2026-05-02T15:10:34.154Z</time></trkpt><trkpt lat="40.8759323" lon="9.3648549"><ele>285.0</ele><time>2026-05-02T15:10:35.154Z</time></trkpt><trkpt lat="40.8760513" lon="9.3650256"><ele>284.0</ele><time>2026-05-02T15:10:36.153Z</time></trkpt><trkpt lat="40.8761659" lon="9.3651889"><ele>283.0</ele><time>2026-05-02T15:10:37.154Z</time></trkpt><trkpt lat="40.8762772" lon="9.3653528"><ele>283.0</ele><time>2026-05-02T15:10:38.154Z</time></trkpt><trkpt lat="40.8763757" lon="9.3655216"><ele>283.0</ele><time>2026-05-02T15:10:39.153Z</time></trkpt><trkpt lat="40.8764544" lon="9.365703"><ele>283.0</ele><time>2026-05-02T15:10:40.153Z</time></trkpt><trkpt lat="40.8765158" lon="9.3658982"><ele>282.66666666666663</ele><time>2026-05-02T15:10:41.153Z</time></trkpt><trkpt lat="40.8765611" lon="9.3661019"><ele>282.3333333333333</ele><time>2026-05-02T15:10:42.153Z</time></trkpt><trkpt lat="40.876591" lon="9.3663018"><ele>282.0</ele><time>2026-05-02T15:10:43.153Z</time></trkpt><trkpt lat="40.8766173" lon="9.3664948"><ele>281.75</ele><time>2026-05-02T15:10:44.154Z</time></trkpt><trkpt lat="40.8766536" lon="9.3666672"><ele>281.5</ele><time>2026-05-02T15:10:45.153Z</time></trkpt><trkpt lat="40.8767145" lon="9.3668162"><ele>281.25</ele><time>2026-05-02T15:10:46.153Z</time></trkpt><trkpt lat="40.8768023" lon="9.3669291"><ele>281.0</ele><time>2026-05-02T15:10:47.154Z</time></trkpt><trkpt lat="40.8769063" lon="9.367005"><ele>280.25</ele><time>2026-05-02T15:10:48.154Z</time></trkpt><trkpt lat="40.8770136" lon="9.3670516"><ele>279.5</ele><time>2026-05-02T15:10:49.153Z</time></trkpt><trkpt lat="40.8771253" lon="9.3671026"><ele>278.75</ele><time>2026-05-02T15:10:50.153Z</time></trkpt><trkpt lat="40.8772295" lon="9.3671814"><ele>278.0</ele><time>2026-05-02T15:10:51.153Z</time></trkpt><trkpt lat="40.8773168" lon="9.3672961"><ele>278.0</ele><time>2026-05-02T15:10:52.153Z</time></trkpt><trkpt lat="40.8773924" lon="9.367425"><ele>278.0</ele><time>2026-05-02T15:10:53.154Z</time></trkpt><trkpt lat="40.8774759" lon="9.367544"><ele>278.0</ele><time>2026-05-02T15:10:54.153Z</time></trkpt><trkpt lat="40.8775785" lon="9.3676304"><ele>278.0</ele><time>2026-05-02T15:10:55.154Z</time></trkpt><trkpt lat="40.8776948" lon="9.367678"><ele>276.25</ele><time>2026-05-02T15:10:56.153Z</time></trkpt><trkpt lat="40.877813" lon="9.3677106"><ele>274.5</ele><time>2026-05-02T15:10:57.153Z</time></trkpt><trkpt lat="40.8779294" lon="9.3677668"><ele>272.75</ele><time>2026-05-02T15:10:58.153Z</time></trkpt><trkpt lat="40.8780327" lon="9.3678611"><ele>271.0</ele><time>2026-05-02T15:10:59.153Z</time></trkpt><trkpt lat="40.8781231" lon="9.3679787"><ele>271.5</ele><time>2026-05-02T15:11:00.153Z</time></trkpt><trkpt lat="40.8781975" lon="9.3681183"><ele>272.0</ele><time>2026-05-02T15:11:01.154Z</time></trkpt><trkpt lat="40.8782605" lon="9.3682727"><ele>272.5</ele><time>2026-05-02T15:11:02.154Z</time></trkpt><trkpt lat="40.8783155" lon="9.3684359"><ele>273.0</ele><time>2026-05-02T15:11:03.154Z</time></trkpt><trkpt lat="40.8783612" lon="9.3686107"><ele>273.0</ele><time>2026-05-02T15:11:04.154Z</time></trkpt><trkpt lat="40.8783975" lon="9.3688009"><ele>273.0</ele><time>2026-05-02T15:11:05.154Z</time></trkpt><trkpt lat="40.8784248" lon="9.3689928"><ele>273.0</ele><time>2026-05-02T15:11:06.153Z</time></trkpt><trkpt lat="40.8784426" lon="9.3691837"><ele>273.0</ele><time>2026-05-02T15:11:07.153Z</time></trkpt><trkpt lat="40.8784538" lon="9.3693661"><ele>271.5</ele><time>2026-05-02T15:11:08.153Z</time></trkpt><trkpt lat="40.8784707" lon="9.3695399"><ele>270.0</ele><time>2026-05-02T15:11:09.154Z</time></trkpt><trkpt lat="40.8784988" lon="9.3697055"><ele>268.5</ele><time>2026-05-02T15:11:10.153Z</time></trkpt><trkpt lat="40.8785326" lon="9.3698725"><ele>267.0</ele><time>2026-05-02T15:11:11.153Z</time></trkpt><trkpt lat="40.8785728" lon="9.3700435"><ele>267.0</ele><time>2026-05-02T15:11:12.154Z</time></trkpt><trkpt lat="40.8786186" lon="9.3702114"><ele>267.0</ele><time>2026-05-02T15:11:13.154Z</time></trkpt><trkpt lat="40.8786729" lon="9.3703704"><ele>267.0</ele><time>2026-05-02T15:11:14.153Z</time></trkpt><trkpt lat="40.8787443" lon="9.3705117"><ele>267.0</ele><time>2026-05-02T15:11:15.153Z</time></trkpt><trkpt lat="40.8788402" lon="9.3706138"><ele>268.25</ele><time>2026-05-02T15:11:16.153Z</time></trkpt><trkpt lat="40.8789577" lon="9.3706739"><ele>269.5</ele><time>2026-05-02T15:11:17.154Z</time></trkpt><trkpt lat="40.8790848" lon="9.3707072"><ele>270.75</ele><time>2026-05-02T15:11:18.153Z</time></trkpt><trkpt lat="40.879215" lon="9.3707305"><ele>272.0</ele><time>2026-05-02T15:11:19.154Z</time></trkpt><trkpt lat="40.8793433" lon="9.3707601"><ele>272.0</ele><time>2026-05-02T15:11:20.154Z</time></trkpt><trkpt lat="40.8794647" lon="9.3708089"><ele>272.0</ele><time>2026-05-02T15:11:21.153Z</time></trkpt><trkpt lat="40.8795758" lon="9.370888"><ele>272.0</ele><time>2026-05-02T15:11:22.154Z</time></trkpt><trkpt lat="40.8796772" lon="9.3709983"><ele>272.0</ele><time>2026-05-02T15:11:23.153Z</time></trkpt><trkpt lat="40.8797715" lon="9.3711284"><ele>272.0</ele><time>2026-05-02T15:11:24.153Z</time></trkpt><trkpt lat="40.8798778" lon="9.3712703"><ele>272.0</ele><time>2026-05-02T15:11:25.154Z</time></trkpt><trkpt lat="40.8800224" lon="9.3714105"><ele>272.0</ele><time>2026-05-02T15:11:26.153Z</time></trkpt><trkpt lat="40.8802031" lon="9.3715481"><ele>272.33333333333337</ele><time>2026-05-02T15:11:27.154Z</time></trkpt><trkpt lat="40.8803783" lon="9.3716566"><ele>272.6666666666667</ele><time>2026-05-02T15:11:28.153Z</time></trkpt><trkpt lat="40.8805423" lon="9.3717194"><ele>273.0</ele><time>2026-05-02T15:11:29.154Z</time></trkpt><trkpt lat="40.8807028" lon="9.3717323"><ele>273.0</ele><time>2026-05-02T15:11:30.153Z</time></trkpt><trkpt lat="40.8808647" lon="9.3716931"><ele>273.0</ele><time>2026-05-02T15:11:31.154Z</time></trkpt><trkpt lat="40.8810225" lon="9.3716138"><ele>273.0</ele><time>2026-05-02T15:11:32.153Z</time></trkpt><trkpt lat="40.881171" lon="9.3715284"><ele>272.5</ele><time>2026-05-02T15:11:33.154Z</time></trkpt><trkpt lat="40.8813111" lon="9.3714976"><ele>272.0</ele><time>2026-05-02T15:11:34.154Z</time></trkpt><trkpt lat="40.8814454" lon="9.3715153"><ele>271.5</ele><time>2026-05-02T15:11:35.153Z</time></trkpt><trkpt lat="40.8815832" lon="9.3715719"><ele>271.0</ele><time>2026-05-02T15:11:36.154Z</time></trkpt><trkpt lat="40.8817174" lon="9.3716654"><ele>269.0</ele><time>2026-05-02T15:11:37.154Z</time></trkpt><trkpt lat="40.8818568" lon="9.3717809"><ele>267.0</ele><time>2026-05-02T15:11:38.154Z</time></trkpt><trkpt lat="40.8820056" lon="9.3719003"><ele>265.0</ele><time>2026-05-02T15:11:39.153Z</time></trkpt><trkpt lat="40.8821578" lon="9.3720245"><ele>265.0</ele><time>2026-05-02T15:11:40.154Z</time></trkpt><trkpt lat="40.882315" lon="9.3721525"><ele>265.0</ele><time>2026-05-02T15:11:41.154Z</time></trkpt><trkpt lat="40.8824751" lon="9.3722781"><ele>265.0</ele><time>2026-05-02T15:11:42.153Z</time></trkpt><trkpt lat="40.8826351" lon="9.3724032"><ele>266.3333333333333</ele><time>2026-05-02T15:11:43.154Z</time></trkpt><trkpt lat="40.8827983" lon="9.3725314"><ele>267.6666666666667</ele><time>2026-05-02T15:11:44.154Z</time></trkpt><trkpt lat="40.8829619" lon="9.3726602"><ele>269.0</ele><time>2026-05-02T15:11:45.154Z</time></trkpt><trkpt lat="40.8831233" lon="9.3728005"><ele>269.0</ele><time>2026-05-02T15:11:46.154Z</time></trkpt><trkpt lat="40.8832816" lon="9.372959"><ele>269.0</ele><time>2026-05-02T15:11:47.154Z</time></trkpt><trkpt lat="40.8834366" lon="9.3731333"><ele>269.0</ele><time>2026-05-02T15:11:48.154Z</time></trkpt><trkpt lat="40.883593" lon="9.3733237"><ele>268.0</ele><time>2026-05-02T15:11:49.153Z</time></trkpt><trkpt lat="40.8837428" lon="9.3735178"><ele>267.0</ele><time>2026-05-02T15:11:50.154Z</time></trkpt><trkpt lat="40.8838917" lon="9.3737132"><ele>266.0</ele><time>2026-05-02T15:11:51.153Z</time></trkpt><trkpt lat="40.8840428" lon="9.3739042"><ele>266.0</ele><time>2026-05-02T15:11:52.154Z</time></trkpt><trkpt lat="40.8842012" lon="9.3740879"><ele>266.0</ele><time>2026-05-02T15:11:53.153Z</time></trkpt><trkpt lat="40.8843702" lon="9.3742534"><ele>266.0</ele><time>2026-05-02T15:11:54.153Z</time></trkpt><trkpt lat="40.8845543" lon="9.374386"><ele>266.33333333333337</ele><time>2026-05-02T15:11:55.154Z</time></trkpt><trkpt lat="40.8847467" lon="9.3744856"><ele>266.6666666666667</ele><time>2026-05-02T15:11:56.153Z</time></trkpt><trkpt lat="40.8849361" lon="9.374564"><ele>267.0</ele><time>2026-05-02T15:11:57.154Z</time></trkpt><trkpt lat="40.8851157" lon="9.3746509"><ele>265.3333333333333</ele><time>2026-05-02T15:11:58.153Z</time></trkpt><trkpt lat="40.8852871" lon="9.3747603"><ele>263.66666666666663</ele><time>2026-05-02T15:11:59.154Z</time></trkpt><trkpt lat="40.885449" lon="9.3748954"><ele>262.0</ele><time>2026-05-02T15:12:00.154Z</time></trkpt><trkpt lat="40.8856027" lon="9.3750505"><ele>262.0</ele><time>2026-05-02T15:12:01.154Z</time></trkpt><trkpt lat="40.8857611" lon="9.3752066"><ele>262.0</ele><time>2026-05-02T15:12:02.154Z</time></trkpt><trkpt lat="40.8859256" lon="9.3753596"><ele>262.0</ele><time>2026-05-02T15:12:03.154Z</time></trkpt><trkpt lat="40.8860899" lon="9.3755004"><ele>260.66666666666663</ele><time>2026-05-02T15:12:04.154Z</time></trkpt><trkpt lat="40.8862516" lon="9.3756258"><ele>259.3333333333333</ele><time>2026-05-02T15:12:05.153Z</time></trkpt><trkpt lat="40.8864064" lon="9.3757464"><ele>258.0</ele><time>2026-05-02T15:12:06.153Z</time></trkpt><trkpt lat="40.8865503" lon="9.3758754"><ele>258.0</ele><time>2026-05-02T15:12:07.153Z</time></trkpt><trkpt lat="40.8866827" lon="9.3760214"><ele>258.0</ele><time>2026-05-02T15:12:08.153Z</time></trkpt><trkpt lat="40.88681" lon="9.3761817"><ele>258.0</ele><time>2026-05-02T15:12:09.154Z</time></trkpt><trkpt lat="40.8869418" lon="9.3763332"><ele>257.0</ele><time>2026-05-02T15:12:10.153Z</time></trkpt><trkpt lat="40.8870841" lon="9.376472"><ele>256.0</ele><time>2026-05-02T15:12:11.154Z</time></trkpt><trkpt lat="40.8872299" lon="9.3766066"><ele>255.0</ele><time>2026-05-02T15:12:12.154Z</time></trkpt><trkpt lat="40.88738" lon="9.3767387"><ele>255.0</ele><time>2026-05-02T15:12:13.154Z</time></trkpt><trkpt lat="40.887535" lon="9.3768685"><ele>255.0</ele><time>2026-05-02T15:12:14.154Z</time></trkpt><trkpt lat="40.8876975" lon="9.376992"><ele>255.0</ele><time>2026-05-02T15:12:15.154Z</time></trkpt><trkpt lat="40.8878647" lon="9.3771133"><ele>253.0</ele><time>2026-05-02T15:12:16.154Z</time></trkpt><trkpt lat="40.8880359" lon="9.3772364"><ele>251.0</ele><time>2026-05-02T15:12:17.154Z</time></trkpt><trkpt lat="40.8882109" lon="9.3773595"><ele>249.0</ele><time>2026-05-02T15:12:18.153Z</time></trkpt><trkpt lat="40.8883919" lon="9.377484"><ele>249.33333333333331</ele><time>2026-05-02T15:12:19.154Z</time></trkpt><trkpt lat="40.8885777" lon="9.3776078"><ele>249.66666666666666</ele><time>2026-05-02T15:12:20.153Z</time></trkpt><trkpt lat="40.8887674" lon="9.3777289"><ele>250.0</ele><time>2026-05-02T15:12:21.153Z</time></trkpt><trkpt lat="40.8889499" lon="9.3778396"><ele>250.0</ele><time>2026-05-02T15:12:22.154Z</time></trkpt><trkpt lat="40.889127" lon="9.3779424"><ele>250.0</ele><time>2026-05-02T15:12:23.154Z</time></trkpt><trkpt lat="40.8892939" lon="9.3780343"><ele>250.0</ele><time>2026-05-02T15:12:24.153Z</time></trkpt><trkpt lat="40.8894519" lon="9.3781219"><ele>247.66666666666666</ele><time>2026-05-02T15:12:25.154Z</time></trkpt><trkpt lat="40.8896055" lon="9.3781874"><ele>245.33333333333331</ele><time>2026-05-02T15:12:26.153Z</time></trkpt><trkpt lat="40.889764" lon="9.3782223"><ele>243.0</ele><time>2026-05-02T15:12:27.153Z</time></trkpt><trkpt lat="40.8899287" lon="9.3782249"><ele>240.33333333333331</ele><time>2026-05-02T15:12:28.154Z</time></trkpt><trkpt lat="40.8900958" lon="9.3781971"><ele>237.66666666666666</ele><time>2026-05-02T15:12:29.154Z</time></trkpt><trkpt lat="40.8902621" lon="9.3781368"><ele>235.0</ele><time>2026-05-02T15:12:30.154Z</time></trkpt><trkpt lat="40.8904199" lon="9.3780532"><ele>234.75</ele><time>2026-05-02T15:12:31.153Z</time></trkpt><trkpt lat="40.8905602" lon="9.3779537"><ele>234.5</ele><time>2026-05-02T15:12:32.153Z</time></trkpt><trkpt lat="40.8906865" lon="9.3778589"><ele>234.25</ele><time>2026-05-02T15:12:33.153Z</time></trkpt><trkpt lat="40.8907941" lon="9.3777619"><ele>234.0</ele><time>2026-05-02T15:12:34.154Z</time></trkpt><trkpt lat="40.8908626" lon="9.3776257"><ele>234.0</ele><time>2026-05-02T15:12:35.153Z</time></trkpt><trkpt lat="40.8908868" lon="9.3774683"><ele>234.0</ele><time>2026-05-02T15:12:36.154Z</time></trkpt><trkpt lat="40.8908667" lon="9.3772991"><ele>234.0</ele><time>2026-05-02T15:12:37.154Z</time></trkpt><trkpt lat="40.890822" lon="9.3771348"><ele>234.0</ele><time>2026-05-02T15:12:38.153Z</time></trkpt><trkpt lat="40.8907984" lon="9.3769857"><ele>234.0</ele><time>2026-05-02T15:12:39.153Z</time></trkpt><trkpt lat="40.8908136" lon="9.3768569"><ele>234.0</ele><time>2026-05-02T15:12:40.153Z</time></trkpt><trkpt lat="40.8908701" lon="9.3767686"><ele>234.0</ele><time>2026-05-02T15:12:41.154Z</time></trkpt><trkpt lat="40.8909471" lon="9.3767428"><ele>234.0</ele><time>2026-05-02T15:12:42.154Z</time></trkpt><trkpt lat="40.8910217" lon="9.3767833"><ele>234.0</ele><time>2026-05-02T15:12:43.153Z</time></trkpt><trkpt lat="40.8910836" lon="9.3768768"><ele>234.0</ele><time>2026-05-02T15:12:44.154Z</time></trkpt><trkpt lat="40.8911292" lon="9.3770148"><ele>230.66666666666669</ele><time>2026-05-02T15:12:45.153Z</time></trkpt><trkpt lat="40.8911688" lon="9.3771852"><ele>227.33333333333334</ele><time>2026-05-02T15:12:46.154Z</time></trkpt><trkpt lat="40.8912035" lon="9.3773838"><ele>224.0</ele><time>2026-05-02T15:12:47.153Z</time></trkpt><trkpt lat="40.891225" lon="9.3775948"><ele>223.5</ele><time>2026-05-02T15:12:48.154Z</time></trkpt><trkpt lat="40.8912422" lon="9.3777988"><ele>223.0</ele><time>2026-05-02T15:12:49.154Z</time></trkpt><trkpt lat="40.891268" lon="9.3779937"><ele>222.5</ele><time>2026-05-02T15:12:50.153Z</time></trkpt><trkpt lat="40.891315" lon="9.3781744"><ele>222.0</ele><time>2026-05-02T15:12:51.154Z</time></trkpt><trkpt lat="40.8913915" lon="9.3783237"><ele>223.0</ele><time>2026-05-02T15:12:52.154Z</time></trkpt><trkpt lat="40.8914957" lon="9.3784216"><ele>224.0</ele><time>2026-05-02T15:12:53.154Z</time></trkpt><trkpt lat="40.8916054" lon="9.3784583"><ele>225.0</ele><time>2026-05-02T15:12:54.153Z</time></trkpt><trkpt lat="40.8917115" lon="9.3784001"><ele>226.0</ele><time>2026-05-02T15:12:55.154Z</time></trkpt><trkpt lat="40.891784" lon="9.3782934"><ele>224.0</ele><time>2026-05-02T15:12:56.154Z</time></trkpt><trkpt lat="40.8918354" lon="9.3781547"><ele>222.0</ele><time>2026-05-02T15:12:57.153Z</time></trkpt><trkpt lat="40.8919055" lon="9.3780176"><ele>220.0</ele><time>2026-05-02T15:12:58.153Z</time></trkpt><trkpt lat="40.8920043" lon="9.3779163"><ele>218.0</ele><time>2026-05-02T15:12:59.153Z</time></trkpt><trkpt lat="40.8921206" lon="9.3778701"><ele>218.0</ele><time>2026-05-02T15:13:00.154Z</time></trkpt><trkpt lat="40.8922364" lon="9.3778834"><ele>218.0</ele><time>2026-05-02T15:13:01.153Z</time></trkpt><trkpt lat="40.892341" lon="9.3779539"><ele>218.0</ele><time>2026-05-02T15:13:02.154Z</time></trkpt><trkpt lat="40.8924302" lon="9.3780794"><ele>218.0</ele><time>2026-05-02T15:13:03.154Z</time></trkpt><trkpt lat="40.8925074" lon="9.378234"><ele>217.75</ele><time>2026-05-02T15:13:04.154Z</time></trkpt><trkpt lat="40.8925793" lon="9.3784101"><ele>217.5</ele><time>2026-05-02T15:13:05.153Z</time></trkpt><trkpt lat="40.8926348" lon="9.3785873"><ele>217.25</ele><time>2026-05-02T15:13:06.154Z</time></trkpt><trkpt lat="40.8926688" lon="9.3787637"><ele>217.0</ele><time>2026-05-02T15:13:07.153Z</time></trkpt><trkpt lat="40.8926748" lon="9.3789367"><ele>214.0</ele><time>2026-05-02T15:13:08.153Z</time></trkpt><trkpt lat="40.8926717" lon="9.3790993"><ele>211.0</ele><time>2026-05-02T15:13:09.153Z</time></trkpt><trkpt lat="40.8926945" lon="9.3792497"><ele>208.0</ele><time>2026-05-02T15:13:10.153Z</time></trkpt><trkpt lat="40.8927389" lon="9.3793935"><ele>205.0</ele><time>2026-05-02T15:13:11.153Z</time></trkpt><trkpt lat="40.8928052" lon="9.3795315"><ele>205.0</ele><time>2026-05-02T15:13:12.153Z</time></trkpt><trkpt lat="40.8928821" lon="9.3796637"><ele>205.0</ele><time>2026-05-02T15:13:13.154Z</time></trkpt><trkpt lat="40.8929694" lon="9.3797908"><ele>205.0</ele><time>2026-05-02T15:13:14.154Z</time></trkpt><trkpt lat="40.8930614" lon="9.3799187"><ele>205.0</ele><time>2026-05-02T15:13:15.154Z</time></trkpt><trkpt lat="40.89316" lon="9.3800457"><ele>206.0</ele><time>2026-05-02T15:13:16.153Z</time></trkpt><trkpt lat="40.8932606" lon="9.3801741"><ele>207.0</ele><time>2026-05-02T15:13:17.154Z</time></trkpt><trkpt lat="40.8933617" lon="9.380305"><ele>208.0</ele><time>2026-05-02T15:13:18.154Z</time></trkpt><trkpt lat="40.8934656" lon="9.3804378"><ele>209.0</ele><time>2026-05-02T15:13:19.154Z</time></trkpt><trkpt lat="40.8935679" lon="9.380572"><ele>209.0</ele><time>2026-05-02T15:13:20.153Z</time></trkpt><trkpt lat="40.8936623" lon="9.3807065"><ele>209.0</ele><time>2026-05-02T15:13:21.153Z</time></trkpt><trkpt lat="40.8937472" lon="9.3808491"><ele>209.0</ele><time>2026-05-02T15:13:22.153Z</time></trkpt><trkpt lat="40.893814" lon="9.3810025"><ele>209.0</ele><time>2026-05-02T15:13:23.153Z</time></trkpt><trkpt lat="40.8938581" lon="9.3811652"><ele>209.0</ele><time>2026-05-02T15:13:24.154Z</time></trkpt><trkpt lat="40.8938851" lon="9.3813354"><ele>209.0</ele><time>2026-05-02T15:13:25.154Z</time></trkpt><trkpt lat="40.893904" lon="9.3815101"><ele>209.0</ele><time>2026-05-02T15:13:26.154Z</time></trkpt><trkpt lat="40.8939206" lon="9.3816912"><ele>209.0</ele><time>2026-05-02T15:13:27.154Z</time></trkpt><trkpt lat="40.8939353" lon="9.3818788"><ele>208.0</ele><time>2026-05-02T15:13:28.154Z</time></trkpt><trkpt lat="40.8939517" lon="9.3820656"><ele>207.0</ele><time>2026-05-02T15:13:29.153Z</time></trkpt><trkpt lat="40.8939689" lon="9.3822553"><ele>206.0</ele><time>2026-05-02T15:13:30.154Z</time></trkpt><trkpt lat="40.8939942" lon="9.3824351"><ele>205.0</ele><time>2026-05-02T15:13:31.154Z</time></trkpt><trkpt lat="40.8940406" lon="9.3826021"><ele>204.0</ele><time>2026-05-02T15:13:32.153Z</time></trkpt><trkpt lat="40.8941101" lon="9.3827511"><ele>203.0</ele><time>2026-05-02T15:13:33.153Z</time></trkpt><trkpt lat="40.8941962" lon="9.3828872"><ele>202.0</ele><time>2026-05-02T15:13:34.153Z</time></trkpt><trkpt lat="40.8942909" lon="9.3830156"><ele>201.0</ele><time>2026-05-02T15:13:35.154Z</time></trkpt><trkpt lat="40.894388" lon="9.3831432"><ele>200.0</ele><time>2026-05-02T15:13:36.153Z</time></trkpt><trkpt lat="40.8944889" lon="9.3832726"><ele>199.0</ele><time>2026-05-02T15:13:37.154Z</time></trkpt><trkpt lat="40.8945889" lon="9.3834059"><ele>198.0</ele><time>2026-05-02T15:13:38.153Z</time></trkpt><trkpt lat="40.8946907" lon="9.3835398"><ele>197.0</ele><time>2026-05-02T15:13:39.154Z</time></trkpt><trkpt lat="40.8947942" lon="9.3836734"><ele>197.0</ele><time>2026-05-02T15:13:40.153Z</time></trkpt><trkpt lat="40.8949018" lon="9.3838104"><ele>197.0</ele><time>2026-05-02T15:13:41.154Z</time></trkpt><trkpt lat="40.8950099" lon="9.3839545"><ele>197.0</ele><time>2026-05-02T15:13:42.153Z</time></trkpt><trkpt lat="40.8951243" lon="9.3841052"><ele>194.33333333333334</ele><time>2026-05-02T15:13:43.153Z</time></trkpt><trkpt lat="40.8952399" lon="9.384263"><ele>191.66666666666669</ele><time>2026-05-02T15:13:44.153Z</time></trkpt><trkpt lat="40.8953581" lon="9.3844206"><ele>189.0</ele><time>2026-05-02T15:13:45.153Z</time></trkpt><trkpt lat="40.8954797" lon="9.384584"><ele>188.66666666666666</ele><time>2026-05-02T15:13:46.153Z</time></trkpt><trkpt lat="40.8956063" lon="9.3847486"><ele>188.33333333333331</ele><time>2026-05-02T15:13:47.153Z</time></trkpt><trkpt lat="40.8957346" lon="9.3849166"><ele>188.0</ele><time>2026-05-02T15:13:48.153Z</time></trkpt><trkpt lat="40.8958623" lon="9.3850844"><ele>187.66666666666666</ele><time>2026-05-02T15:13:49.154Z</time></trkpt><trkpt lat="40.8959834" lon="9.3852401"><ele>187.33333333333334</ele><time>2026-05-02T15:13:50.154Z</time></trkpt><trkpt lat="40.8961062" lon="9.3853756"><ele>187.0</ele><time>2026-05-02T15:13:51.154Z</time></trkpt><trkpt lat="40.8962393" lon="9.3854839"><ele>188.0</ele><time>2026-05-02T15:13:52.154Z</time></trkpt><trkpt lat="40.8963816" lon="9.3855697"><ele>189.0</ele><time>2026-05-02T15:13:53.154Z</time></trkpt><trkpt lat="40.8965283" lon="9.3856484"><ele>190.0</ele><time>2026-05-02T15:13:54.153Z</time></trkpt><trkpt lat="40.8966798" lon="9.385727"><ele>190.0</ele><time>2026-05-02T15:13:55.153Z</time></trkpt><trkpt lat="40.8968351" lon="9.3858076"><ele>190.0</ele><time>2026-05-02T15:13:56.154Z</time></trkpt><trkpt lat="40.8969939" lon="9.3858926"><ele>190.0</ele><time>2026-05-02T15:13:57.153Z</time></trkpt><trkpt lat="40.8971561" lon="9.3859804"><ele>190.0</ele><time>2026-05-02T15:13:58.153Z</time></trkpt><trkpt lat="40.8973263" lon="9.3860717"><ele>190.0</ele><time>2026-05-02T15:13:59.154Z</time></trkpt><trkpt lat="40.8974996" lon="9.3861644"><ele>190.0</ele><time>2026-05-02T15:14:00.153Z</time></trkpt><trkpt lat="40.8976765" lon="9.3862558"><ele>190.66666666666669</ele><time>2026-05-02T15:14:01.153Z</time></trkpt><trkpt lat="40.8978562" lon="9.3863395"><ele>191.33333333333334</ele><time>2026-05-02T15:14:02.153Z</time></trkpt><trkpt lat="40.8980416" lon="9.3864084"><ele>192.0</ele><time>2026-05-02T15:14:03.154Z</time></trkpt><trkpt lat="40.8982324" lon="9.3864622"><ele>192.0</ele><time>2026-05-02T15:14:04.154Z</time></trkpt><trkpt lat="40.8984254" lon="9.3865085"><ele>192.0</ele><time>2026-05-02T15:14:05.154Z</time></trkpt><trkpt lat="40.8986203" lon="9.3865501"><ele>192.0</ele><time>2026-05-02T15:14:06.153Z</time></trkpt><trkpt lat="40.8988174" lon="9.3865905"><ele>192.0</ele><time>2026-05-02T15:14:07.154Z</time></trkpt><trkpt lat="40.8990147" lon="9.3866324"><ele>192.0</ele><time>2026-05-02T15:14:08.154Z</time></trkpt><trkpt lat="40.8992137" lon="9.3866749"><ele>192.0</ele><time>2026-05-02T15:14:09.154Z</time></trkpt><trkpt lat="40.8994129" lon="9.3867162"><ele>192.0</ele><time>2026-05-02T15:14:10.153Z</time></trkpt><trkpt lat="40.8996131" lon="9.386754"><ele>192.0</ele><time>2026-05-02T15:14:11.153Z</time></trkpt><trkpt lat="40.8998118" lon="9.3867932"><ele>192.0</ele><time>2026-05-02T15:14:12.153Z</time></trkpt><trkpt lat="40.8999994" lon="9.3868329"><ele>192.66666666666669</ele><time>2026-05-02T15:14:13.154Z</time></trkpt><trkpt lat="40.9001773" lon="9.3868701"><ele>193.33333333333334</ele><time>2026-05-02T15:14:14.153Z</time></trkpt><trkpt lat="40.9003499" lon="9.3869054"><ele>194.0</ele><time>2026-05-02T15:14:15.154Z</time></trkpt><trkpt lat="40.900516" lon="9.3869376"><ele>194.0</ele><time>2026-05-02T15:14:16.154Z</time></trkpt><trkpt lat="40.9006784" lon="9.3869725"><ele>194.0</ele><time>2026-05-02T15:14:17.153Z</time></trkpt><trkpt lat="40.9008379" lon="9.3870078"><ele>194.0</ele><time>2026-05-02T15:14:18.154Z</time></trkpt><trkpt lat="40.9009928" lon="9.3870425"><ele>193.5</ele><time>2026-05-02T15:14:19.153Z</time></trkpt><trkpt lat="40.9011437" lon="9.3870748"><ele>193.0</ele><time>2026-05-02T15:14:20.153Z</time></trkpt><trkpt lat="40.9012895" lon="9.3871034"><ele>192.5</ele><time>2026-05-02T15:14:21.154Z</time></trkpt><trkpt lat="40.901431" lon="9.3871328"><ele>192.0</ele><time>2026-05-02T15:14:22.153Z</time></trkpt><trkpt lat="40.9015615" lon="9.3871607"><ele>191.2</ele><time>2026-05-02T15:14:23.153Z</time></trkpt><trkpt lat="40.9016772" lon="9.3871859"><ele>190.39999999999998</ele><time>2026-05-02T15:14:24.154Z</time></trkpt><trkpt lat="40.9017755" lon="9.3871909"><ele>189.60000000000002</ele><time>2026-05-02T15:14:25.154Z</time></trkpt><trkpt lat="40.901861" lon="9.3871607"><ele>188.8</ele><time>2026-05-02T15:14:26.154Z</time></trkpt><trkpt lat="40.9019313" lon="9.3871041"><ele>188.0</ele><time>2026-05-02T15:14:27.153Z</time></trkpt><trkpt lat="40.9019813" lon="9.387015"><ele>188.0</ele><time>2026-05-02T15:14:28.154Z</time></trkpt><trkpt lat="40.90202" lon="9.3869074"><ele>188.0</ele><time>2026-05-02T15:14:29.153Z</time></trkpt><trkpt lat="40.9020624" lon="9.3867891"><ele>188.0</ele><time>2026-05-02T15:14:30.153Z</time></trkpt><trkpt lat="40.9021294" lon="9.3866733"><ele>188.0</ele><time>2026-05-02T15:14:31.153Z</time></trkpt><trkpt lat="40.9022144" lon="9.3865585"><ele>188.0</ele><time>2026-05-02T15:14:32.153Z</time></trkpt><trkpt lat="40.902313" lon="9.3864511"><ele>188.0</ele><time>2026-05-02T15:14:33.154Z</time></trkpt><trkpt lat="40.9024288" lon="9.3863636"><ele>188.0</ele><time>2026-05-02T15:14:34.154Z</time></trkpt><trkpt lat="40.9025591" lon="9.3862918"><ele>188.0</ele><time>2026-05-02T15:14:35.154Z</time></trkpt><trkpt lat="40.9027006" lon="9.3862276"><ele>188.0</ele><time>2026-05-02T15:14:36.153Z</time></trkpt><trkpt lat="40.9028504" lon="9.3861652"><ele>189.75</ele><time>2026-05-02T15:14:37.154Z</time></trkpt><trkpt lat="40.9029972" lon="9.3861091"><ele>191.5</ele><time>2026-05-02T15:14:38.153Z</time></trkpt><trkpt lat="40.9031331" lon="9.3860613"><ele>193.25</ele><time>2026-05-02T15:14:39.153Z</time></trkpt><trkpt lat="40.9032697" lon="9.3860394"><ele>195.0</ele><time>2026-05-02T15:14:40.153Z</time></trkpt><trkpt lat="40.9033997" lon="9.3860584"><ele>196.0</ele><time>2026-05-02T15:14:41.153Z</time></trkpt><trkpt lat="40.9035138" lon="9.3861181"><ele>197.0</ele><time>2026-05-02T15:14:42.153Z</time></trkpt><trkpt lat="40.9036155" lon="9.3862217"><ele>198.0</ele><time>2026-05-02T15:14:43.154Z</time></trkpt><trkpt lat="40.9037174" lon="9.3863494"><ele>199.0</ele><time>2026-05-02T15:14:44.154Z</time></trkpt><trkpt lat="40.9038239" lon="9.386475"><ele>199.5</ele><time>2026-05-02T15:14:45.154Z</time></trkpt><trkpt lat="40.9039284" lon="9.386554"><ele>200.0</ele><time>2026-05-02T15:14:46.153Z</time></trkpt><trkpt lat="40.9040424" lon="9.3865836"><ele>200.5</ele><time>2026-05-02T15:14:47.154Z</time></trkpt><trkpt lat="40.904154" lon="9.3865491"><ele>201.0</ele><time>2026-05-02T15:14:48.154Z</time></trkpt><trkpt lat="40.9042572" lon="9.3864607"><ele>203.0</ele><time>2026-05-02T15:14:49.153Z</time></trkpt><trkpt lat="40.904361" lon="9.3863275"><ele>205.0</ele><time>2026-05-02T15:14:50.154Z</time></trkpt><trkpt lat="40.9044755" lon="9.3861607"><ele>207.0</ele><time>2026-05-02T15:14:51.154Z</time></trkpt><trkpt lat="40.9045999" lon="9.3859682"><ele>207.0</ele><time>2026-05-02T15:14:52.154Z</time></trkpt><trkpt lat="40.9047126" lon="9.3857632"><ele>207.0</ele><time>2026-05-02T15:14:53.154Z</time></trkpt><trkpt lat="40.9048098" lon="9.3855294"><ele>207.0</ele><time>2026-05-02T15:14:54.153Z</time></trkpt><trkpt lat="40.9049007" lon="9.3852733"><ele>209.0</ele><time>2026-05-02T15:14:55.154Z</time></trkpt><trkpt lat="40.90499" lon="9.3849999"><ele>211.0</ele><time>2026-05-02T15:14:56.153Z</time></trkpt><trkpt lat="40.9050852" lon="9.3847136"><ele>211.66666666666666</ele><time>2026-05-02T15:14:57.153Z</time></trkpt><trkpt lat="40.9051754" lon="9.3844416"><ele>212.33333333333331</ele><time>2026-05-02T15:14:58.154Z</time></trkpt><trkpt lat="40.9052666" lon="9.3841961"><ele>213.0</ele><time>2026-05-02T15:14:59.153Z</time></trkpt><trkpt lat="40.9053692" lon="9.3839776"><ele>213.66666666666669</ele><time>2026-05-02T15:15:00.153Z</time></trkpt><trkpt lat="40.9054977" lon="9.3837755"><ele>214.33333333333334</ele><time>2026-05-02T15:15:01.154Z</time></trkpt><trkpt lat="40.9056446" lon="9.3835773"><ele>215.0</ele><time>2026-05-02T15:15:02.154Z</time></trkpt><trkpt lat="40.9057992" lon="9.3833697"><ele>215.0</ele><time>2026-05-02T15:15:03.153Z</time></trkpt><trkpt lat="40.9059577" lon="9.3831509"><ele>215.0</ele><time>2026-05-02T15:15:04.153Z</time></trkpt><trkpt lat="40.9061181" lon="9.3829263"><ele>216.5</ele><time>2026-05-02T15:15:05.154Z</time></trkpt><trkpt lat="40.906283" lon="9.3826978"><ele>218.0</ele><time>2026-05-02T15:15:06.153Z</time></trkpt><trkpt lat="40.9064487" lon="9.3824714"><ele>218.0</ele><time>2026-05-02T15:15:07.153Z</time></trkpt><trkpt lat="40.9066062" lon="9.3822575"><ele>218.0</ele><time>2026-05-02T15:15:08.154Z</time></trkpt><trkpt lat="40.9067592" lon="9.3820481"><ele>218.0</ele><time>2026-05-02T15:15:09.153Z</time></trkpt><trkpt lat="40.9069056" lon="9.3818398"><ele>219.66666666666669</ele><time>2026-05-02T15:15:10.153Z</time></trkpt><trkpt lat="40.9070509" lon="9.3816334"><ele>221.33333333333331</ele><time>2026-05-02T15:15:11.153Z</time></trkpt><trkpt lat="40.9071885" lon="9.3814416"><ele>223.0</ele><time>2026-05-02T15:15:12.153Z</time></trkpt><trkpt lat="40.9073309" lon="9.3812751"><ele>223.0</ele><time>2026-05-02T15:15:13.154Z</time></trkpt><trkpt lat="40.9074831" lon="9.3811353"><ele>223.0</ele><time>2026-05-02T15:15:14.153Z</time></trkpt><trkpt lat="40.9076439" lon="9.3810371"><ele>223.0</ele><time>2026-05-02T15:15:15.154Z</time></trkpt><trkpt lat="40.9078039" lon="9.3809925"><ele>223.66666666666666</ele><time>2026-05-02T15:15:16.154Z</time></trkpt><trkpt lat="40.9079644" lon="9.3810039"><ele>224.33333333333331</ele><time>2026-05-02T15:15:17.153Z</time></trkpt><trkpt lat="40.9081294" lon="9.3810562"><ele>225.0</ele><time>2026-05-02T15:15:18.153Z</time></trkpt><trkpt lat="40.9083032" lon="9.3811243"><ele>225.0</ele><time>2026-05-02T15:15:19.153Z</time></trkpt><trkpt lat="40.9084782" lon="9.3811863"><ele>225.0</ele><time>2026-05-02T15:15:20.153Z</time></trkpt><trkpt lat="40.9086511" lon="9.3812512"><ele>225.0</ele><time>2026-05-02T15:15:21.153Z</time></trkpt><trkpt lat="40.9088177" lon="9.3813175"><ele>227.66666666666669</ele><time>2026-05-02T15:15:22.153Z</time></trkpt><trkpt lat="40.9089812" lon="9.3813713"><ele>230.33333333333334</ele><time>2026-05-02T15:15:23.154Z</time></trkpt><trkpt lat="40.9091511" lon="9.3814032"><ele>233.0</ele><time>2026-05-02T15:15:24.154Z</time></trkpt><trkpt lat="40.9093255" lon="9.3814088"><ele>234.0</ele><time>2026-05-02T15:15:25.153Z</time></trkpt><trkpt lat="40.909506" lon="9.3814011"><ele>235.0</ele><time>2026-05-02T15:15:26.154Z</time></trkpt><trkpt lat="40.9096917" lon="9.3813853"><ele>236.0</ele><time>2026-05-02T15:15:27.153Z</time></trkpt><trkpt lat="40.9098792" lon="9.381364"><ele>235.66666666666669</ele><time>2026-05-02T15:15:28.154Z</time></trkpt><trkpt lat="40.9100689" lon="9.3813419"><ele>235.33333333333331</ele><time>2026-05-02T15:15:29.153Z</time></trkpt><trkpt lat="40.9102634" lon="9.381321"><ele>235.0</ele><time>2026-05-02T15:15:30.154Z</time></trkpt><trkpt lat="40.9104607" lon="9.3812997"><ele>235.0</ele><time>2026-05-02T15:15:31.154Z</time></trkpt><trkpt lat="40.9106542" lon="9.3812813"><ele>235.0</ele><time>2026-05-02T15:15:32.154Z</time></trkpt><trkpt lat="40.9108343" lon="9.3812598"><ele>235.0</ele><time>2026-05-02T15:15:33.154Z</time></trkpt><trkpt lat="40.9110024" lon="9.3812187"><ele>235.66666666666666</ele><time>2026-05-02T15:15:34.154Z</time></trkpt><trkpt lat="40.9111556" lon="9.3811498"><ele>236.33333333333331</ele><time>2026-05-02T15:15:35.154Z</time></trkpt><trkpt lat="40.9112995" lon="9.3810559"><ele>237.0</ele><time>2026-05-02T15:15:36.153Z</time></trkpt><trkpt lat="40.9114334" lon="9.3809281"><ele>237.0</ele><time>2026-05-02T15:15:37.154Z</time></trkpt><trkpt lat="40.9115639" lon="9.3807774"><ele>237.0</ele><time>2026-05-02T15:15:38.153Z</time></trkpt><trkpt lat="40.9116955" lon="9.3806135"><ele>237.0</ele><time>2026-05-02T15:15:39.153Z</time></trkpt><trkpt lat="40.9118292" lon="9.3804417"><ele>238.33333333333331</ele><time>2026-05-02T15:15:40.153Z</time></trkpt><trkpt lat="40.9119672" lon="9.3802706"><ele>239.66666666666666</ele><time>2026-05-02T15:15:41.154Z</time></trkpt><trkpt lat="40.9121065" lon="9.3800966"><ele>241.0</ele><time>2026-05-02T15:15:42.154Z</time></trkpt><trkpt lat="40.9122482" lon="9.3799173"><ele>241.0</ele><time>2026-05-02T15:15:43.154Z</time></trkpt><trkpt lat="40.912391" lon="9.3797391"><ele>241.0</ele><time>2026-05-02T15:15:44.153Z</time></trkpt><trkpt lat="40.912533" lon="9.3795588"><ele>241.0</ele><time>2026-05-02T15:15:45.153Z</time></trkpt><trkpt lat="40.9126729" lon="9.3793766"><ele>243.0</ele><time>2026-05-02T15:15:46.153Z</time></trkpt><trkpt lat="40.9128075" lon="9.3792025"><ele>245.0</ele><time>2026-05-02T15:15:47.154Z</time></trkpt><trkpt lat="40.9129449" lon="9.3790385"><ele>247.0</ele><time>2026-05-02T15:15:48.153Z</time></trkpt><trkpt lat="40.9130929" lon="9.3788922"><ele>247.33333333333331</ele><time>2026-05-02T15:15:49.154Z</time></trkpt><trkpt lat="40.9132518" lon="9.3787707"><ele>247.66666666666669</ele><time>2026-05-02T15:15:50.153Z</time></trkpt><trkpt lat="40.9134231" lon="9.3786667"><ele>248.0</ele><time>2026-05-02T15:15:51.153Z</time></trkpt><trkpt lat="40.9136041" lon="9.378574"><ele>248.66666666666669</ele><time>2026-05-02T15:15:52.153Z</time></trkpt><trkpt lat="40.9137861" lon="9.3784863"><ele>249.33333333333331</ele><time>2026-05-02T15:15:53.153Z</time></trkpt><trkpt lat="40.9139737" lon="9.3783966"><ele>250.0</ele><time>2026-05-02T15:15:54.154Z</time></trkpt><trkpt lat="40.9141607" lon="9.3783031"><ele>251.0</ele><time>2026-05-02T15:15:55.153Z</time></trkpt><trkpt lat="40.9143462" lon="9.3782081"><ele>252.0</ele><time>2026-05-02T15:15:56.154Z</time></trkpt><trkpt lat="40.9145336" lon="9.3781156"><ele>253.0</ele><time>2026-05-02T15:15:57.154Z</time></trkpt><trkpt lat="40.9147212" lon="9.3780215"><ele>254.0</ele><time>2026-05-02T15:15:58.153Z</time></trkpt><trkpt lat="40.9149103" lon="9.3779245"><ele>255.0</ele><time>2026-05-02T15:15:59.153Z</time></trkpt><trkpt lat="40.9150986" lon="9.3778311"><ele>256.0</ele><time>2026-05-02T15:16:00.154Z</time></trkpt><trkpt lat="40.9152841" lon="9.377739"><ele>257.66666666666663</ele><time>2026-05-02T15:16:01.154Z</time></trkpt><trkpt lat="40.9154677" lon="9.3776483"><ele>259.3333333333333</ele><time>2026-05-02T15:16:02.154Z</time></trkpt><trkpt lat="40.9156396" lon="9.3775615"><ele>261.0</ele><time>2026-05-02T15:16:03.154Z</time></trkpt><trkpt lat="40.91595" lon="9.377415"><ele>262.75</ele><time>2026-05-02T15:16:05.153Z</time></trkpt><trkpt lat="40.9160993" lon="9.3773675"><ele>264.5</ele><time>2026-05-02T15:16:06.153Z</time></trkpt><trkpt lat="40.9162382" lon="9.3773508"><ele>266.25</ele><time>2026-05-02T15:16:07.153Z</time></trkpt><trkpt lat="40.9163702" lon="9.3773678"><ele>268.0</ele><time>2026-05-02T15:16:08.154Z</time></trkpt><trkpt lat="40.9164947" lon="9.3774167"><ele>268.0</ele><time>2026-05-02T15:16:09.154Z</time></trkpt><trkpt lat="40.9166097" lon="9.3774912"><ele>268.0</ele><time>2026-05-02T15:16:10.153Z</time></trkpt><trkpt lat="40.9167155" lon="9.3775883"><ele>268.0</ele><time>2026-05-02T15:16:11.153Z</time></trkpt><trkpt lat="40.9168119" lon="9.3777022"><ele>268.0</ele><time>2026-05-02T15:16:12.153Z</time></trkpt><trkpt lat="40.9169039" lon="9.3778275"><ele>270.25</ele><time>2026-05-02T15:16:13.154Z</time></trkpt><trkpt lat="40.9169972" lon="9.3779539"><ele>272.5</ele><time>2026-05-02T15:16:14.153Z</time></trkpt><trkpt lat="40.9170907" lon="9.378079"><ele>274.75</ele><time>2026-05-02T15:16:15.154Z</time></trkpt><trkpt lat="40.9171855" lon="9.3781988"><ele>277.0</ele><time>2026-05-02T15:16:16.153Z</time></trkpt><trkpt lat="40.9172851" lon="9.3783062"><ele>277.0</ele><time>2026-05-02T15:16:17.153Z</time></trkpt><trkpt lat="40.9173939" lon="9.3783811"><ele>277.0</ele><time>2026-05-02T15:16:18.153Z</time></trkpt><trkpt lat="40.9175103" lon="9.3784203"><ele>277.0</ele><time>2026-05-02T15:16:19.153Z</time></trkpt><trkpt lat="40.9176269" lon="9.3784321"><ele>277.0</ele><time>2026-05-02T15:16:20.153Z</time></trkpt><trkpt lat="40.917746" lon="9.3784067"><ele>277.25</ele><time>2026-05-02T15:16:21.154Z</time></trkpt><trkpt lat="40.9178617" lon="9.3783522"><ele>277.5</ele><time>2026-05-02T15:16:22.153Z</time></trkpt><trkpt lat="40.9179745" lon="9.378284"><ele>277.75</ele><time>2026-05-02T15:16:23.154Z</time></trkpt><trkpt lat="40.9180894" lon="9.3782088"><ele>278.0</ele><time>2026-05-02T15:16:24.154Z</time></trkpt><trkpt lat="40.9182104" lon="9.3781335"><ele>278.0</ele><time>2026-05-02T15:16:25.153Z</time></trkpt><trkpt lat="40.918335" lon="9.3780591"><ele>278.0</ele><time>2026-05-02T15:16:26.153Z</time></trkpt><trkpt lat="40.918462" lon="9.377977"><ele>278.0</ele><time>2026-05-02T15:16:27.154Z</time></trkpt><trkpt lat="40.918591" lon="9.3778863"><ele>278.0</ele><time>2026-05-02T15:16:28.153Z</time></trkpt><trkpt lat="40.9187239" lon="9.3777947"><ele>278.0</ele><time>2026-05-02T15:16:29.153Z</time></trkpt><trkpt lat="40.9188621" lon="9.377701"><ele>278.0</ele><time>2026-05-02T15:16:30.153Z</time></trkpt><trkpt lat="40.9190036" lon="9.3776072"><ele>278.0</ele><time>2026-05-02T15:16:31.153Z</time></trkpt><trkpt lat="40.9191464" lon="9.3775102"><ele>279.0</ele><time>2026-05-02T15:16:32.154Z</time></trkpt><trkpt lat="40.9192898" lon="9.3774105"><ele>280.0</ele><time>2026-05-02T15:16:33.153Z</time></trkpt><trkpt lat="40.9194358" lon="9.3773113"><ele>281.0</ele><time>2026-05-02T15:16:34.153Z</time></trkpt><trkpt lat="40.9195857" lon="9.3772119"><ele>281.0</ele><time>2026-05-02T15:16:35.154Z</time></trkpt><trkpt lat="40.9197503" lon="9.3771026"><ele>281.0</ele><time>2026-05-02T15:16:36.153Z</time></trkpt><trkpt lat="40.9199278" lon="9.3769824"><ele>281.0</ele><time>2026-05-02T15:16:37.153Z</time></trkpt><trkpt lat="40.9201169" lon="9.3768522"><ele>282.5</ele><time>2026-05-02T15:16:38.153Z</time></trkpt><trkpt lat="40.9203176" lon="9.3767137"><ele>284.0</ele><time>2026-05-02T15:16:39.154Z</time></trkpt><trkpt lat="40.920531" lon="9.3765704"><ele>284.0</ele><time>2026-05-02T15:16:40.153Z</time></trkpt><trkpt lat="40.920756" lon="9.3764194"><ele>284.0</ele><time>2026-05-02T15:16:41.154Z</time></trkpt><trkpt lat="40.9209932" lon="9.376262"><ele>288.5</ele><time>2026-05-02T15:16:42.154Z</time></trkpt><trkpt lat="40.9212431" lon="9.3760971"><ele>293.0</ele><time>2026-05-02T15:16:43.153Z</time></trkpt><trkpt lat="40.921504" lon="9.3759227"><ele>297.0</ele><time>2026-05-02T15:16:44.153Z</time></trkpt><trkpt lat="40.9217622" lon="9.3757505"><ele>301.0</ele><time>2026-05-02T15:16:45.153Z</time></trkpt><trkpt lat="40.9219979" lon="9.3755952"><ele>301.5</ele><time>2026-05-02T15:16:46.153Z</time></trkpt><trkpt lat="40.9222236" lon="9.3754358"><ele>302.0</ele><time>2026-05-02T15:16:47.154Z</time></trkpt><trkpt lat="40.9224417" lon="9.3752776"><ele>304.5</ele><time>2026-05-02T15:16:48.153Z</time></trkpt><trkpt lat="40.9226565" lon="9.3751295"><ele>307.0</ele><time>2026-05-02T15:16:49.153Z</time></trkpt><trkpt lat="40.9228722" lon="9.3749852"><ele>307.0</ele><time>2026-05-02T15:16:50.154Z</time></trkpt><trkpt lat="40.9230801" lon="9.3748456"><ele>307.0</ele><time>2026-05-02T15:16:51.153Z</time></trkpt><trkpt lat="40.9232875" lon="9.3747092"><ele>310.3333333333333</ele><time>2026-05-02T15:16:52.153Z</time></trkpt><trkpt lat="40.9234913" lon="9.3745812"><ele>313.6666666666667</ele><time>2026-05-02T15:16:53.154Z</time></trkpt><trkpt lat="40.9236693" lon="9.3744658"><ele>317.0</ele><time>2026-05-02T15:16:54.153Z</time></trkpt><trkpt lat="40.9238289" lon="9.3743587"><ele>317.0</ele><time>2026-05-02T15:16:55.153Z</time></trkpt><trkpt lat="40.9239728" lon="9.3742595"><ele>317.0</ele><time>2026-05-02T15:16:56.154Z</time></trkpt><trkpt lat="40.9241089" lon="9.3741687"><ele>317.0</ele><time>2026-05-02T15:16:57.153Z</time></trkpt><trkpt lat="40.924241" lon="9.3740804"><ele>317.33333333333337</ele><time>2026-05-02T15:16:58.153Z</time></trkpt><trkpt lat="40.9243765" lon="9.3739991"><ele>317.6666666666667</ele><time>2026-05-02T15:16:59.154Z</time></trkpt><trkpt lat="40.9245291" lon="9.3739195"><ele>318.0</ele><time>2026-05-02T15:17:00.154Z</time></trkpt><trkpt lat="40.9247001" lon="9.3738363"><ele>318.0</ele><time>2026-05-02T15:17:01.153Z</time></trkpt><trkpt lat="40.9248873" lon="9.3737533"><ele>318.0</ele><time>2026-05-02T15:17:02.154Z</time></trkpt><trkpt lat="40.925091" lon="9.3736718"><ele>318.0</ele><time>2026-05-02T15:17:03.154Z</time></trkpt><trkpt lat="40.9253113" lon="9.3735875"><ele>318.0</ele><time>2026-05-02T15:17:04.153Z</time></trkpt><trkpt lat="40.9255452" lon="9.3734995"><ele>318.0</ele><time>2026-05-02T15:17:05.154Z</time></trkpt><trkpt lat="40.9257855" lon="9.3734069"><ele>321.0</ele><time>2026-05-02T15:17:06.153Z</time></trkpt><trkpt lat="40.9260254" lon="9.3733132"><ele>324.0</ele><time>2026-05-02T15:17:07.154Z</time></trkpt><trkpt lat="40.9262672" lon="9.3732177"><ele>324.0</ele><time>2026-05-02T15:17:08.154Z</time></trkpt><trkpt lat="40.9265079" lon="9.3731222"><ele>324.0</ele><time>2026-05-02T15:17:09.154Z</time></trkpt><trkpt lat="40.926746" lon="9.3730265"><ele>329.0</ele><time>2026-05-02T15:17:10.153Z</time></trkpt><trkpt lat="40.9269772" lon="9.3729351"><ele>334.0</ele><time>2026-05-02T15:17:11.154Z</time></trkpt><trkpt lat="40.92719" lon="9.3728517"><ele>334.0</ele><time>2026-05-02T15:17:12.153Z</time></trkpt><trkpt lat="40.9273922" lon="9.3727597"><ele>334.0</ele><time>2026-05-02T15:17:13.154Z</time></trkpt><trkpt lat="40.927584" lon="9.3726495"><ele>334.0</ele><time>2026-05-02T15:17:14.153Z</time></trkpt><trkpt lat="40.9277614" lon="9.3725182"><ele>336.0</ele><time>2026-05-02T15:17:15.154Z</time></trkpt><trkpt lat="40.9279145" lon="9.3723517"><ele>338.0</ele><time>2026-05-02T15:17:16.154Z</time></trkpt><trkpt lat="40.9280557" lon="9.3721544"><ele>340.0</ele><time>2026-05-02T15:17:17.153Z</time></trkpt><trkpt lat="40.9282" lon="9.37194"><ele>340.0</ele><time>2026-05-02T15:17:18.154Z</time></trkpt><trkpt lat="40.928349" lon="9.3717232"><ele>340.0</ele><time>2026-05-02T15:17:19.153Z</time></trkpt><trkpt lat="40.9284999" lon="9.3715059"><ele>340.0</ele><time>2026-05-02T15:17:20.154Z</time></trkpt><trkpt lat="40.9286466" lon="9.3712905"><ele>340.0</ele><time>2026-05-02T15:17:21.153Z</time></trkpt><trkpt lat="40.9287888" lon="9.3710694"><ele>340.0</ele><time>2026-05-02T15:17:22.153Z</time></trkpt><trkpt lat="40.9289269" lon="9.370835"><ele>340.0</ele><time>2026-05-02T15:17:23.153Z</time></trkpt><trkpt lat="40.9290514" lon="9.3705851"><ele>339.0</ele><time>2026-05-02T15:17:24.153Z</time></trkpt><trkpt lat="40.9291538" lon="9.3703159"><ele>338.0</ele><time>2026-05-02T15:17:25.154Z</time></trkpt><trkpt lat="40.9292363" lon="9.3700292"><ele>341.0</ele><time>2026-05-02T15:17:26.154Z</time></trkpt><trkpt lat="40.9293152" lon="9.3697345"><ele>344.0</ele><time>2026-05-02T15:17:27.153Z</time></trkpt><trkpt lat="40.9293956" lon="9.3694424"><ele>344.0</ele><time>2026-05-02T15:17:28.153Z</time></trkpt><trkpt lat="40.9294704" lon="9.3691862"><ele>344.0</ele><time>2026-05-02T15:17:29.154Z</time></trkpt><trkpt lat="40.9295386" lon="9.3689664"><ele>344.0</ele><time>2026-05-02T15:17:30.153Z</time></trkpt><trkpt lat="40.9296294" lon="9.3687833"><ele>340.33333333333337</ele><time>2026-05-02T15:17:31.153Z</time></trkpt><trkpt lat="40.9297396" lon="9.3686236"><ele>336.6666666666667</ele><time>2026-05-02T15:17:32.154Z</time></trkpt><trkpt lat="40.9298714" lon="9.3684982"><ele>333.0</ele><time>2026-05-02T15:17:33.154Z</time></trkpt><trkpt lat="40.9300304" lon="9.3683917"><ele>334.0</ele><time>2026-05-02T15:17:34.154Z</time></trkpt><trkpt lat="40.9302019" lon="9.3682928"><ele>335.0</ele><time>2026-05-02T15:17:35.154Z</time></trkpt><trkpt lat="40.9303762" lon="9.3681948"><ele>336.0</ele><time>2026-05-02T15:17:36.154Z</time></trkpt><trkpt lat="40.9305545" lon="9.3680945"><ele>335.0</ele><time>2026-05-02T15:17:37.154Z</time></trkpt><trkpt lat="40.9307346" lon="9.3679943"><ele>334.0</ele><time>2026-05-02T15:17:38.153Z</time></trkpt><trkpt lat="40.9309168" lon="9.3678946"><ele>333.0</ele><time>2026-05-02T15:17:39.153Z</time></trkpt><trkpt lat="40.9310985" lon="9.3677963"><ele>335.3333333333333</ele><time>2026-05-02T15:17:40.154Z</time></trkpt><trkpt lat="40.9312787" lon="9.3676989"><ele>337.66666666666663</ele><time>2026-05-02T15:17:41.153Z</time></trkpt><trkpt lat="40.9314568" lon="9.3676043"><ele>340.0</ele><time>2026-05-02T15:17:42.154Z</time></trkpt><trkpt lat="40.9316323" lon="9.3675115"><ele>342.3333333333333</ele><time>2026-05-02T15:17:43.153Z</time></trkpt><trkpt lat="40.9318049" lon="9.3674199"><ele>344.6666666666667</ele><time>2026-05-02T15:17:44.153Z</time></trkpt><trkpt lat="40.9319767" lon="9.3673261"><ele>347.0</ele><time>2026-05-02T15:17:45.153Z</time></trkpt><trkpt lat="40.932149" lon="9.3672335"><ele>347.6666666666667</ele><time>2026-05-02T15:17:46.154Z</time></trkpt><trkpt lat="40.9323205" lon="9.3671438"><ele>348.3333333333333</ele><time>2026-05-02T15:17:47.153Z</time></trkpt><trkpt lat="40.9324913" lon="9.367058"><ele>349.0</ele><time>2026-05-02T15:17:48.153Z</time></trkpt><trkpt lat="40.9326631" lon="9.3669677"><ele>350.66666666666663</ele><time>2026-05-02T15:17:49.153Z</time></trkpt><trkpt lat="40.932837" lon="9.3668724"><ele>352.3333333333333</ele><time>2026-05-02T15:17:50.154Z</time></trkpt><trkpt lat="40.9330109" lon="9.366777"><ele>354.0</ele><time>2026-05-02T15:17:51.154Z</time></trkpt><trkpt lat="40.9331892" lon="9.3666794"><ele>354.0</ele><time>2026-05-02T15:17:52.153Z</time></trkpt><trkpt lat="40.9333703" lon="9.3665799"><ele>354.0</ele><time>2026-05-02T15:17:53.153Z</time></trkpt><trkpt lat="40.9335545" lon="9.3664822"><ele>354.0</ele><time>2026-05-02T15:17:54.154Z</time></trkpt><trkpt lat="40.9337434" lon="9.3663823"><ele>356.3333333333333</ele><time>2026-05-02T15:17:55.154Z</time></trkpt><trkpt lat="40.9339361" lon="9.3662793"><ele>358.66666666666663</ele><time>2026-05-02T15:17:56.153Z</time></trkpt><trkpt lat="40.9341274" lon="9.3661764"><ele>361.0</ele><time>2026-05-02T15:17:57.153Z</time></trkpt><trkpt lat="40.9343184" lon="9.366074"><ele>364.0</ele><time>2026-05-02T15:17:58.153Z</time></trkpt><trkpt lat="40.9345058" lon="9.36597"><ele>367.0</ele><time>2026-05-02T15:17:59.153Z</time></trkpt><trkpt lat="40.9346717" lon="9.3658685"><ele>370.0</ele><time>2026-05-02T15:18:00.154Z</time></trkpt><trkpt lat="40.9348138" lon="9.3657579"><ele>370.0</ele><time>2026-05-02T15:18:01.153Z</time></trkpt><trkpt lat="40.9349325" lon="9.3656307"><ele>370.0</ele><time>2026-05-02T15:18:02.153Z</time></trkpt><trkpt lat="40.9350268" lon="9.3654616"><ele>370.0</ele><time>2026-05-02T15:18:03.154Z</time></trkpt><trkpt lat="40.9351099" lon="9.3652572"><ele>372.0</ele><time>2026-05-02T15:18:04.153Z</time></trkpt><trkpt lat="40.9351845" lon="9.365027"><ele>374.0</ele><time>2026-05-02T15:18:05.153Z</time></trkpt><trkpt lat="40.9352607" lon="9.3647817"><ele>376.0</ele><time>2026-05-02T15:18:06.154Z</time></trkpt><trkpt lat="40.9353428" lon="9.3645191"><ele>377.5</ele><time>2026-05-02T15:18:07.153Z</time></trkpt><trkpt lat="40.9354288" lon="9.3642449"><ele>379.0</ele><time>2026-05-02T15:18:08.153Z</time></trkpt><trkpt lat="40.9355178" lon="9.3639585"><ele>380.5</ele><time>2026-05-02T15:18:09.153Z</time></trkpt><trkpt lat="40.9356112" lon="9.3636563"><ele>382.0</ele><time>2026-05-02T15:18:10.154Z</time></trkpt><trkpt lat="40.9357109" lon="9.3633389"><ele>384.0</ele><time>2026-05-02T15:18:11.153Z</time></trkpt><trkpt lat="40.935814" lon="9.3630086"><ele>386.0</ele><time>2026-05-02T15:18:12.153Z</time></trkpt><trkpt lat="40.9359118" lon="9.3626915"><ele>390.66666666666663</ele><time>2026-05-02T15:18:13.153Z</time></trkpt><trkpt lat="40.9360016" lon="9.3624067"><ele>395.33333333333337</ele><time>2026-05-02T15:18:14.154Z</time></trkpt><trkpt lat="40.9360768" lon="9.3621579"><ele>400.0</ele><time>2026-05-02T15:18:15.153Z</time></trkpt><trkpt lat="40.9361256" lon="9.3619295"><ele>401.0</ele><time>2026-05-02T15:18:16.153Z</time></trkpt><trkpt lat="40.9361411" lon="9.3617022"><ele>402.0</ele><time>2026-05-02T15:18:17.154Z</time></trkpt><trkpt lat="40.9361293" lon="9.3614531"><ele>403.0</ele><time>2026-05-02T15:18:18.154Z</time></trkpt><trkpt lat="40.9360946" lon="9.3611896"><ele>403.6666666666667</ele><time>2026-05-02T15:18:19.153Z</time></trkpt><trkpt lat="40.9360528" lon="9.3609173"><ele>404.33333333333337</ele><time>2026-05-02T15:18:20.154Z</time></trkpt><trkpt lat="40.9360065" lon="9.3606353"><ele>405.0</ele><time>2026-05-02T15:18:21.153Z</time></trkpt><trkpt lat="40.9359602" lon="9.3603506"><ele>405.33333333333337</ele><time>2026-05-02T15:18:22.153Z</time></trkpt><trkpt lat="40.9359153" lon="9.3600722"><ele>405.6666666666667</ele><time>2026-05-02T15:18:23.153Z</time></trkpt><trkpt lat="40.9358725" lon="9.3598074"><ele>406.0</ele><time>2026-05-02T15:18:24.154Z</time></trkpt><trkpt lat="40.9358272" lon="9.359545"><ele>404.6666666666667</ele><time>2026-05-02T15:18:25.153Z</time></trkpt><trkpt lat="40.9357825" lon="9.3592832"><ele>403.33333333333337</ele><time>2026-05-02T15:18:26.154Z</time></trkpt><trkpt lat="40.9357383" lon="9.3590318"><ele>402.0</ele><time>2026-05-02T15:18:27.153Z</time></trkpt><trkpt lat="40.935691" lon="9.3587678"><ele>400.5</ele><time>2026-05-02T15:18:28.154Z</time></trkpt><trkpt lat="40.9356393" lon="9.3584749"><ele>399.0</ele><time>2026-05-02T15:18:29.153Z</time></trkpt><trkpt lat="40.9355931" lon="9.3581639"><ele>395.5</ele><time>2026-05-02T15:18:30.154Z</time></trkpt><trkpt lat="40.9355492" lon="9.3578364"><ele>392.0</ele><time>2026-05-02T15:18:31.154Z</time></trkpt><trkpt lat="40.9354994" lon="9.3574885"><ele>389.5</ele><time>2026-05-02T15:18:32.154Z</time></trkpt><trkpt lat="40.9354453" lon="9.3571335"><ele>387.0</ele><time>2026-05-02T15:18:33.153Z</time></trkpt><trkpt lat="40.9353882" lon="9.3567693"><ele>387.0</ele><time>2026-05-02T15:18:34.153Z</time></trkpt><trkpt lat="40.9353305" lon="9.3563998"><ele>387.0</ele><time>2026-05-02T15:18:35.154Z</time></trkpt><trkpt lat="40.9352714" lon="9.3560254"><ele>385.0</ele><time>2026-05-02T15:18:36.153Z</time></trkpt><trkpt lat="40.9352115" lon="9.355649"><ele>383.0</ele><time>2026-05-02T15:18:37.154Z</time></trkpt><trkpt lat="40.9351481" lon="9.3552703"><ele>380.5</ele><time>2026-05-02T15:18:38.154Z</time></trkpt><trkpt lat="40.9350868" lon="9.3548899"><ele>378.0</ele><time>2026-05-02T15:18:39.153Z</time></trkpt><trkpt lat="40.9350259" lon="9.3545104"><ele>375.5</ele><time>2026-05-02T15:18:40.153Z</time></trkpt><trkpt lat="40.9349668" lon="9.3541303"><ele>373.0</ele><time>2026-05-02T15:18:41.154Z</time></trkpt><trkpt lat="40.9349052" lon="9.3537512"><ele>372.0</ele><time>2026-05-02T15:18:42.153Z</time></trkpt><trkpt lat="40.9348435" lon="9.3533688"><ele>371.0</ele><time>2026-05-02T15:18:43.153Z</time></trkpt><trkpt lat="40.9347836" lon="9.3529841"><ele>369.5</ele><time>2026-05-02T15:18:44.153Z</time></trkpt><trkpt lat="40.9347232" lon="9.3525979"><ele>368.0</ele><time>2026-05-02T15:18:45.154Z</time></trkpt><trkpt lat="40.9346639" lon="9.3522087"><ele>367.5</ele><time>2026-05-02T15:18:46.154Z</time></trkpt><trkpt lat="40.9346019" lon="9.3518175"><ele>367.0</ele><time>2026-05-02T15:18:47.154Z</time></trkpt><trkpt lat="40.9345409" lon="9.351429"><ele>366.0</ele><time>2026-05-02T15:18:48.153Z</time></trkpt><trkpt lat="40.9344803" lon="9.3510412"><ele>365.0</ele><time>2026-05-02T15:18:49.153Z</time></trkpt><trkpt lat="40.9344201" lon="9.3506529"><ele>362.5</ele><time>2026-05-02T15:18:50.154Z</time></trkpt><trkpt lat="40.9343593" lon="9.3502673"><ele>360.0</ele><time>2026-05-02T15:18:51.153Z</time></trkpt><trkpt lat="40.934299" lon="9.3498836"><ele>360.5</ele><time>2026-05-02T15:18:52.153Z</time></trkpt><trkpt lat="40.934239" lon="9.3495007"><ele>361.0</ele><time>2026-05-02T15:18:53.153Z</time></trkpt><trkpt lat="40.934182" lon="9.3491233"><ele>363.0</ele><time>2026-05-02T15:18:54.153Z</time></trkpt><trkpt lat="40.9341201" lon="9.3487477"><ele>365.0</ele><time>2026-05-02T15:18:55.153Z</time></trkpt><trkpt lat="40.9340592" lon="9.3483748"><ele>366.0</ele><time>2026-05-02T15:18:56.153Z</time></trkpt><trkpt lat="40.934" lon="9.3480004"><ele>367.0</ele><time>2026-05-02T15:18:57.153Z</time></trkpt><trkpt lat="40.9339411" lon="9.34763"><ele>367.0</ele><time>2026-05-02T15:18:58.153Z</time></trkpt><trkpt lat="40.9338825" lon="9.3472643"><ele>367.0</ele><time>2026-05-02T15:18:59.153Z</time></trkpt><trkpt lat="40.933827" lon="9.3469296"><ele>368.3333333333333</ele><time>2026-05-02T15:19:00.153Z</time></trkpt><trkpt lat="40.9337762" lon="9.3466264"><ele>369.6666666666667</ele><time>2026-05-02T15:19:01.154Z</time></trkpt><trkpt lat="40.93373" lon="9.34635"><ele>371.0</ele><time>2026-05-02T15:19:02.153Z</time></trkpt><trkpt lat="40.9336944" lon="9.3460933"><ele>373.6666666666667</ele><time>2026-05-02T15:19:03.154Z</time></trkpt><trkpt lat="40.9336746" lon="9.3458435"><ele>376.3333333333333</ele><time>2026-05-02T15:19:04.154Z</time></trkpt><trkpt lat="40.9336725" lon="9.3455901"><ele>379.0</ele><time>2026-05-02T15:19:05.153Z</time></trkpt><trkpt lat="40.9336913" lon="9.3453333"><ele>379.66666666666663</ele><time>2026-05-02T15:19:06.153Z</time></trkpt><trkpt lat="40.933723" lon="9.3450659"><ele>380.3333333333333</ele><time>2026-05-02T15:19:07.153Z</time></trkpt><trkpt lat="40.9337626" lon="9.3447841"><ele>381.0</ele><time>2026-05-02T15:19:08.154Z</time></trkpt><trkpt lat="40.9338056" lon="9.3444905"><ele>378.5</ele><time>2026-05-02T15:19:09.154Z</time></trkpt><trkpt lat="40.933847" lon="9.3441795"><ele>376.0</ele><time>2026-05-02T15:19:10.153Z</time></trkpt><trkpt lat="40.9338918" lon="9.3438545"><ele>374.0</ele><time>2026-05-02T15:19:11.154Z</time></trkpt><trkpt lat="40.9339365" lon="9.3435237"><ele>372.0</ele><time>2026-05-02T15:19:12.153Z</time></trkpt><trkpt lat="40.9339806" lon="9.3431831"><ele>372.0</ele><time>2026-05-02T15:19:13.154Z</time></trkpt><trkpt lat="40.9340254" lon="9.3428414"><ele>372.0</ele><time>2026-05-02T15:19:14.153Z</time></trkpt><trkpt lat="40.934075" lon="9.3425006"><ele>372.5</ele><time>2026-05-02T15:19:15.153Z</time></trkpt><trkpt lat="40.9341221" lon="9.3421558"><ele>373.0</ele><time>2026-05-02T15:19:16.153Z</time></trkpt><trkpt lat="40.9341709" lon="9.3418127"><ele>373.0</ele><time>2026-05-02T15:19:17.153Z</time></trkpt><trkpt lat="40.93422" lon="9.3414664"><ele>373.0</ele><time>2026-05-02T15:19:18.153Z</time></trkpt><trkpt lat="40.9342674" lon="9.3411199"><ele>377.0</ele><time>2026-05-02T15:19:19.153Z</time></trkpt><trkpt lat="40.9343119" lon="9.3407805"><ele>381.0</ele><time>2026-05-02T15:19:20.154Z</time></trkpt><trkpt lat="40.9343561" lon="9.3404615"><ele>381.5</ele><time>2026-05-02T15:19:21.153Z</time></trkpt><trkpt lat="40.9343996" lon="9.3401566"><ele>382.0</ele><time>2026-05-02T15:19:22.154Z</time></trkpt><trkpt lat="40.934454" lon="9.3398683"><ele>381.3333333333333</ele><time>2026-05-02T15:19:23.154Z</time></trkpt><trkpt lat="40.9345319" lon="9.3395953"><ele>380.6666666666667</ele><time>2026-05-02T15:19:24.154Z</time></trkpt><trkpt lat="40.9346308" lon="9.3393348"><ele>380.0</ele><time>2026-05-02T15:19:25.154Z</time></trkpt><trkpt lat="40.9347402" lon="9.3390656"><ele>380.6666666666667</ele><time>2026-05-02T15:19:26.154Z</time></trkpt><trkpt lat="40.9348435" lon="9.3388077"><ele>381.3333333333333</ele><time>2026-05-02T15:19:27.154Z</time></trkpt><trkpt lat="40.9349246" lon="9.3385625"><ele>382.0</ele><time>2026-05-02T15:19:28.154Z</time></trkpt><trkpt lat="40.9349636" lon="9.3383095"><ele>383.0</ele><time>2026-05-02T15:19:29.153Z</time></trkpt><trkpt lat="40.9349591" lon="9.3380461"><ele>384.0</ele><time>2026-05-02T15:19:30.154Z</time></trkpt><trkpt lat="40.9349197" lon="9.3377681"><ele>385.0</ele><time>2026-05-02T15:19:31.154Z</time></trkpt><trkpt lat="40.9348514" lon="9.3374803"><ele>387.0</ele><time>2026-05-02T15:19:32.153Z</time></trkpt><trkpt lat="40.9347691" lon="9.3371766"><ele>389.0</ele><time>2026-05-02T15:19:33.154Z</time></trkpt><trkpt lat="40.9346804" lon="9.3368616"><ele>389.0</ele><time>2026-05-02T15:19:34.154Z</time></trkpt><trkpt lat="40.9345905" lon="9.3365446"><ele>389.0</ele><time>2026-05-02T15:19:35.154Z</time></trkpt><trkpt lat="40.9345015" lon="9.3362238"><ele>391.5</ele><time>2026-05-02T15:19:36.154Z</time></trkpt><trkpt lat="40.9344105" lon="9.3358975"><ele>394.0</ele><time>2026-05-02T15:19:37.154Z</time></trkpt><trkpt lat="40.9343214" lon="9.3355672"><ele>392.5</ele><time>2026-05-02T15:19:38.153Z</time></trkpt><trkpt lat="40.9342295" lon="9.3352348"><ele>391.0</ele><time>2026-05-02T15:19:39.154Z</time></trkpt><trkpt lat="40.9341371" lon="9.3349"><ele>394.5</ele><time>2026-05-02T15:19:40.153Z</time></trkpt><trkpt lat="40.9340435" lon="9.3345627"><ele>398.0</ele><time>2026-05-02T15:19:41.153Z</time></trkpt><trkpt lat="40.9339483" lon="9.3342231"><ele>398.0</ele><time>2026-05-02T15:19:42.154Z</time></trkpt><trkpt lat="40.9338532" lon="9.3338817"><ele>398.0</ele><time>2026-05-02T15:19:43.154Z</time></trkpt><trkpt lat="40.9337591" lon="9.3335401"><ele>398.0</ele><time>2026-05-02T15:19:44.153Z</time></trkpt><trkpt lat="40.9336668" lon="9.3331995"><ele>398.0</ele><time>2026-05-02T15:19:45.153Z</time></trkpt><trkpt lat="40.933572" lon="9.3328569"><ele>398.5</ele><time>2026-05-02T15:19:46.153Z</time></trkpt><trkpt lat="40.9334782" lon="9.3325139"><ele>399.0</ele><time>2026-05-02T15:19:47.153Z</time></trkpt><trkpt lat="40.9333848" lon="9.3321714"><ele>397.5</ele><time>2026-05-02T15:19:48.153Z</time></trkpt><trkpt lat="40.9332911" lon="9.3318283"><ele>396.0</ele><time>2026-05-02T15:19:49.153Z</time></trkpt><trkpt lat="40.9331949" lon="9.3314838"><ele>398.0</ele><time>2026-05-02T15:19:50.154Z</time></trkpt><trkpt lat="40.9330996" lon="9.3311386"><ele>400.0</ele><time>2026-05-02T15:19:51.154Z</time></trkpt><trkpt lat="40.9330044" lon="9.3307942"><ele>402.0</ele><time>2026-05-02T15:19:52.154Z</time></trkpt><trkpt lat="40.9329082" lon="9.33045"><ele>404.0</ele><time>2026-05-02T15:19:53.153Z</time></trkpt><trkpt lat="40.9328145" lon="9.3301052"><ele>404.0</ele><time>2026-05-02T15:19:54.153Z</time></trkpt><trkpt lat="40.9327214" lon="9.329761"><ele>404.0</ele><time>2026-05-02T15:19:55.154Z</time></trkpt><trkpt lat="40.932627" lon="9.3294171"><ele>406.0</ele><time>2026-05-02T15:19:56.154Z</time></trkpt><trkpt lat="40.9325328" lon="9.3290718"><ele>408.0</ele><time>2026-05-02T15:19:57.154Z</time></trkpt><trkpt lat="40.932438" lon="9.328725"><ele>409.5</ele><time>2026-05-02T15:19:58.153Z</time></trkpt><trkpt lat="40.9323432" lon="9.3283782"><ele>411.0</ele><time>2026-05-02T15:19:59.153Z</time></trkpt><trkpt lat="40.9322488" lon="9.3280327"><ele>411.5</ele><time>2026-05-02T15:20:00.154Z</time></trkpt><trkpt lat="40.9321537" lon="9.3276898"><ele>412.0</ele><time>2026-05-02T15:20:01.153Z</time></trkpt><trkpt lat="40.932059" lon="9.3273529"><ele>416.0</ele><time>2026-05-02T15:20:02.153Z</time></trkpt><trkpt lat="40.9319658" lon="9.3270365"><ele>420.0</ele><time>2026-05-02T15:20:03.153Z</time></trkpt><trkpt lat="40.9318685" lon="9.326736"><ele>420.0</ele><time>2026-05-02T15:20:04.154Z</time></trkpt><trkpt lat="40.9317667" lon="9.3264367"><ele>420.0</ele><time>2026-05-02T15:20:05.154Z</time></trkpt><trkpt lat="40.931663" lon="9.3261368"><ele>415.5</ele><time>2026-05-02T15:20:06.154Z</time></trkpt><trkpt lat="40.9315579" lon="9.325835"><ele>411.0</ele><time>2026-05-02T15:20:07.153Z</time></trkpt><trkpt lat="40.9314481" lon="9.3255408"><ele>407.0</ele><time>2026-05-02T15:20:08.153Z</time></trkpt><trkpt lat="40.9313376" lon="9.3252664"><ele>403.0</ele><time>2026-05-02T15:20:09.154Z</time></trkpt><trkpt lat="40.931234" lon="9.325017"><ele>403.0</ele><time>2026-05-02T15:20:10.154Z</time></trkpt><trkpt lat="40.9311408" lon="9.3247941"><ele>403.0</ele><time>2026-05-02T15:20:11.154Z</time></trkpt><trkpt lat="40.9310581" lon="9.324585"><ele>403.0</ele><time>2026-05-02T15:20:12.153Z</time></trkpt><trkpt lat="40.9309935" lon="9.324381"><ele>398.33333333333337</ele><time>2026-05-02T15:20:13.154Z</time></trkpt><trkpt lat="40.930966" lon="9.3241678"><ele>393.66666666666663</ele><time>2026-05-02T15:20:14.153Z</time></trkpt><trkpt lat="40.9309821" lon="9.3239472"><ele>389.0</ele><time>2026-05-02T15:20:15.154Z</time></trkpt><trkpt lat="40.9310412" lon="9.3237159"><ele>387.0</ele><time>2026-05-02T15:20:16.154Z</time></trkpt><trkpt lat="40.9311338" lon="9.3234657"><ele>385.0</ele><time>2026-05-02T15:20:17.154Z</time></trkpt><trkpt lat="40.9312363" lon="9.3231819"><ele>383.0</ele><time>2026-05-02T15:20:18.154Z</time></trkpt><trkpt lat="40.9313348" lon="9.3228577"><ele>382.5</ele><time>2026-05-02T15:20:19.154Z</time></trkpt><trkpt lat="40.9314249" lon="9.3225435"><ele>382.0</ele><time>2026-05-02T15:20:20.154Z</time></trkpt><trkpt lat="40.9314997" lon="9.3222472"><ele>382.66666666666663</ele><time>2026-05-02T15:20:21.153Z</time></trkpt><trkpt lat="40.9315453" lon="9.3219518"><ele>383.3333333333333</ele><time>2026-05-02T15:20:22.154Z</time></trkpt><trkpt lat="40.9315725" lon="9.3216698"><ele>384.0</ele><time>2026-05-02T15:20:23.153Z</time></trkpt><trkpt lat="40.9315955" lon="9.3214166"><ele>382.3333333333333</ele><time>2026-05-02T15:20:24.153Z</time></trkpt><trkpt lat="40.9316178" lon="9.3211918"><ele>380.66666666666663</ele><time>2026-05-02T15:20:25.153Z</time></trkpt><trkpt lat="40.9316632" lon="9.3209775"><ele>379.0</ele><time>2026-05-02T15:20:26.153Z</time></trkpt><trkpt lat="40.9317485" lon="9.3207975"><ele>375.66666666666663</ele><time>2026-05-02T15:20:27.153Z</time></trkpt><trkpt lat="40.9318661" lon="9.3206691"><ele>372.3333333333333</ele><time>2026-05-02T15:20:28.154Z</time></trkpt><trkpt lat="40.9320329" lon="9.320561"><ele>369.0</ele><time>2026-05-02T15:20:29.153Z</time></trkpt><trkpt lat="40.9322321" lon="9.3204619"><ele>366.0</ele><time>2026-05-02T15:20:30.153Z</time></trkpt><trkpt lat="40.9324473" lon="9.3203813"><ele>363.0</ele><time>2026-05-02T15:20:31.154Z</time></trkpt><trkpt lat="40.9326527" lon="9.3203197"><ele>360.0</ele><time>2026-05-02T15:20:32.154Z</time></trkpt><trkpt lat="40.9328513" lon="9.3202917"><ele>358.0</ele><time>2026-05-02T15:20:33.154Z</time></trkpt><trkpt lat="40.9330514" lon="9.3203001"><ele>356.0</ele><time>2026-05-02T15:20:34.153Z</time></trkpt><trkpt lat="40.9332616" lon="9.3203428"><ele>354.0</ele><time>2026-05-02T15:20:35.153Z</time></trkpt><trkpt lat="40.9334781" lon="9.3203992"><ele>352.0</ele><time>2026-05-02T15:20:36.153Z</time></trkpt><trkpt lat="40.9337051" lon="9.3204643"><ele>350.0</ele><time>2026-05-02T15:20:37.153Z</time></trkpt><trkpt lat="40.9339334" lon="9.3205335"><ele>350.6666666666667</ele><time>2026-05-02T15:20:38.154Z</time></trkpt><trkpt lat="40.934133" lon="9.3205912"><ele>351.3333333333333</ele><time>2026-05-02T15:20:39.154Z</time></trkpt><trkpt lat="40.9343133" lon="9.3206293"><ele>352.0</ele><time>2026-05-02T15:20:40.153Z</time></trkpt><trkpt lat="40.9344701" lon="9.3206307"><ele>352.0</ele><time>2026-05-02T15:20:41.154Z</time></trkpt><trkpt lat="40.9346107" lon="9.3205921"><ele>352.0</ele><time>2026-05-02T15:20:42.154Z</time></trkpt><trkpt lat="40.9347322" lon="9.3205064"><ele>352.0</ele><time>2026-05-02T15:20:43.153Z</time></trkpt><trkpt lat="40.9348417" lon="9.3203825"><ele>352.0</ele><time>2026-05-02T15:20:44.153Z</time></trkpt><trkpt lat="40.9349345" lon="9.3202264"><ele>351.0</ele><time>2026-05-02T15:20:45.154Z</time></trkpt><trkpt lat="40.9350137" lon="9.3200489"><ele>350.0</ele><time>2026-05-02T15:20:46.154Z</time></trkpt><trkpt lat="40.9350854" lon="9.3198561"><ele>349.0</ele><time>2026-05-02T15:20:47.153Z</time></trkpt><trkpt lat="40.9351589" lon="9.3196535"><ele>347.66666666666663</ele><time>2026-05-02T15:20:48.153Z</time></trkpt><trkpt lat="40.9352239" lon="9.3194463"><ele>346.3333333333333</ele><time>2026-05-02T15:20:49.154Z</time></trkpt><trkpt lat="40.9352831" lon="9.3192466"><ele>345.0</ele><time>2026-05-02T15:20:50.153Z</time></trkpt><trkpt lat="40.9353315" lon="9.3190542"><ele>344.5</ele><time>2026-05-02T15:20:51.153Z</time></trkpt><trkpt lat="40.935364" lon="9.3188634"><ele>344.0</ele><time>2026-05-02T15:20:52.154Z</time></trkpt><trkpt lat="40.9353847" lon="9.3186699"><ele>343.5</ele><time>2026-05-02T15:20:53.153Z</time></trkpt><trkpt lat="40.9353973" lon="9.3184676"><ele>343.0</ele><time>2026-05-02T15:20:54.153Z</time></trkpt><trkpt lat="40.9354049" lon="9.3182551"><ele>342.3333333333333</ele><time>2026-05-02T15:20:55.153Z</time></trkpt><trkpt lat="40.9354118" lon="9.3180349"><ele>341.6666666666667</ele><time>2026-05-02T15:20:56.154Z</time></trkpt><trkpt lat="40.935417" lon="9.3178144"><ele>341.0</ele><time>2026-05-02T15:20:57.154Z</time></trkpt><trkpt lat="40.9354242" lon="9.3175889"><ele>341.0</ele><time>2026-05-02T15:20:58.153Z</time></trkpt><trkpt lat="40.9354289" lon="9.3173595"><ele>341.0</ele><time>2026-05-02T15:20:59.153Z</time></trkpt><trkpt lat="40.9354382" lon="9.3171308"><ele>341.0</ele><time>2026-05-02T15:21:00.154Z</time></trkpt><trkpt lat="40.9354484" lon="9.3169027"><ele>341.0</ele><time>2026-05-02T15:21:01.153Z</time></trkpt><trkpt lat="40.9354589" lon="9.3166803"><ele>341.0</ele><time>2026-05-02T15:21:02.154Z</time></trkpt><trkpt lat="40.9354707" lon="9.3164569"><ele>341.0</ele><time>2026-05-02T15:21:03.154Z</time></trkpt><trkpt lat="40.9354836" lon="9.3162401"><ele>340.6666666666667</ele><time>2026-05-02T15:21:04.154Z</time></trkpt><trkpt lat="40.9354887" lon="9.3160299"><ele>340.3333333333333</ele><time>2026-05-02T15:21:05.153Z</time></trkpt><trkpt lat="40.935487" lon="9.3158261"><ele>340.0</ele><time>2026-05-02T15:21:06.153Z</time></trkpt><trkpt lat="40.9354718" lon="9.3156262"><ele>340.66666666666663</ele><time>2026-05-02T15:21:07.154Z</time></trkpt><trkpt lat="40.9354406" lon="9.3154287"><ele>341.3333333333333</ele><time>2026-05-02T15:21:08.154Z</time></trkpt><trkpt lat="40.9353968" lon="9.3152383"><ele>342.0</ele><time>2026-05-02T15:21:09.154Z</time></trkpt><trkpt lat="40.9353519" lon="9.315045"><ele>342.0</ele><time>2026-05-02T15:21:10.154Z</time></trkpt><trkpt lat="40.935311" lon="9.3148413"><ele>342.0</ele><time>2026-05-02T15:21:11.154Z</time></trkpt><trkpt lat="40.9352744" lon="9.314613"><ele>342.0</ele><time>2026-05-02T15:21:12.153Z</time></trkpt><trkpt lat="40.9352418" lon="9.314363"><ele>342.0</ele><time>2026-05-02T15:21:13.153Z</time></trkpt><trkpt lat="40.9352061" lon="9.3141007"><ele>342.0</ele><time>2026-05-02T15:21:14.153Z</time></trkpt><trkpt lat="40.9351753" lon="9.3138247"><ele>342.0</ele><time>2026-05-02T15:21:15.154Z</time></trkpt><trkpt lat="40.9351445" lon="9.3135394"><ele>341.0</ele><time>2026-05-02T15:21:16.153Z</time></trkpt><trkpt lat="40.9351126" lon="9.3132472"><ele>340.0</ele><time>2026-05-02T15:21:17.153Z</time></trkpt><trkpt lat="40.9350831" lon="9.3129472"><ele>336.5</ele><time>2026-05-02T15:21:18.154Z</time></trkpt><trkpt lat="40.9350516" lon="9.3126444"><ele>333.0</ele><time>2026-05-02T15:21:19.154Z</time></trkpt><trkpt lat="40.9350172" lon="9.3123401"><ele>332.3333333333333</ele><time>2026-05-02T15:21:20.154Z</time></trkpt><trkpt lat="40.9349817" lon="9.3120447"><ele>331.66666666666663</ele><time>2026-05-02T15:21:21.154Z</time></trkpt><trkpt lat="40.9349472" lon="9.3117599"><ele>331.0</ele><time>2026-05-02T15:21:22.153Z</time></trkpt><trkpt lat="40.9349163" lon="9.3114863"><ele>329.66666666666663</ele><time>2026-05-02T15:21:23.153Z</time></trkpt><trkpt lat="40.9348868" lon="9.3112247"><ele>328.3333333333333</ele><time>2026-05-02T15:21:24.154Z</time></trkpt><trkpt lat="40.9348681" lon="9.3109721"><ele>327.0</ele><time>2026-05-02T15:21:25.154Z</time></trkpt><trkpt lat="40.9348664" lon="9.3107242"><ele>328.3333333333333</ele><time>2026-05-02T15:21:26.153Z</time></trkpt><trkpt lat="40.9349033" lon="9.3104946"><ele>329.66666666666663</ele><time>2026-05-02T15:21:27.154Z</time></trkpt><trkpt lat="40.9349734" lon="9.3102696"><ele>331.0</ele><time>2026-05-02T15:21:28.154Z</time></trkpt><trkpt lat="40.9350673" lon="9.3100406"><ele>328.3333333333333</ele><time>2026-05-02T15:21:29.154Z</time></trkpt><trkpt lat="40.935171" lon="9.3097977"><ele>325.6666666666667</ele><time>2026-05-02T15:21:30.153Z</time></trkpt><trkpt lat="40.9352749" lon="9.3095405"><ele>323.0</ele><time>2026-05-02T15:21:31.153Z</time></trkpt><trkpt lat="40.9353869" lon="9.3092696"><ele>323.0</ele><time>2026-05-02T15:21:32.153Z</time></trkpt><trkpt lat="40.9355067" lon="9.3089886"><ele>323.0</ele><time>2026-05-02T15:21:33.154Z</time></trkpt><trkpt lat="40.9356313" lon="9.3086969"><ele>323.0</ele><time>2026-05-02T15:21:34.153Z</time></trkpt><trkpt lat="40.9357565" lon="9.308398"><ele>323.0</ele><time>2026-05-02T15:21:35.153Z</time></trkpt><trkpt lat="40.9358839" lon="9.3080912"><ele>324.0</ele><time>2026-05-02T15:21:36.154Z</time></trkpt><trkpt lat="40.9360149" lon="9.3077795"><ele>325.0</ele><time>2026-05-02T15:21:37.153Z</time></trkpt><trkpt lat="40.9361392" lon="9.3074845"><ele>325.0</ele><time>2026-05-02T15:21:38.154Z</time></trkpt><trkpt lat="40.9362551" lon="9.3072082"><ele>325.0</ele><time>2026-05-02T15:21:39.154Z</time></trkpt><trkpt lat="40.9363624" lon="9.3069506"><ele>325.0</ele><time>2026-05-02T15:21:40.153Z</time></trkpt><trkpt lat="40.9364607" lon="9.3067189"><ele>325.0</ele><time>2026-05-02T15:21:41.153Z</time></trkpt><trkpt lat="40.9365753" lon="9.3065172"><ele>325.0</ele><time>2026-05-02T15:21:42.154Z</time></trkpt><trkpt lat="40.9367093" lon="9.3063484"><ele>323.66666666666663</ele><time>2026-05-02T15:21:43.153Z</time></trkpt><trkpt lat="40.9368709" lon="9.3062237"><ele>322.3333333333333</ele><time>2026-05-02T15:21:44.153Z</time></trkpt><trkpt lat="40.937059" lon="9.3061317"><ele>321.0</ele><time>2026-05-02T15:21:45.154Z</time></trkpt><trkpt lat="40.9372658" lon="9.3060524"><ele>321.0</ele><time>2026-05-02T15:21:46.153Z</time></trkpt><trkpt lat="40.9374766" lon="9.305974"><ele>321.0</ele><time>2026-05-02T15:21:47.153Z</time></trkpt><trkpt lat="40.9376754" lon="9.3059052"><ele>321.0</ele><time>2026-05-02T15:21:48.153Z</time></trkpt><trkpt lat="40.9378745" lon="9.3058654"><ele>321.3333333333333</ele><time>2026-05-02T15:21:49.153Z</time></trkpt><trkpt lat="40.9380739" lon="9.3058655"><ele>321.66666666666663</ele><time>2026-05-02T15:21:50.154Z</time></trkpt><trkpt lat="40.938287" lon="9.3058961"><ele>322.0</ele><time>2026-05-02T15:21:51.153Z</time></trkpt><trkpt lat="40.9385106" lon="9.3059296"><ele>320.66666666666663</ele><time>2026-05-02T15:21:52.153Z</time></trkpt><trkpt lat="40.9387109" lon="9.3059576"><ele>319.3333333333333</ele><time>2026-05-02T15:21:53.153Z</time></trkpt><trkpt lat="40.9389014" lon="9.3059624"><ele>318.0</ele><time>2026-05-02T15:21:54.153Z</time></trkpt><trkpt lat="40.9390918" lon="9.3059298"><ele>315.3333333333333</ele><time>2026-05-02T15:21:55.153Z</time></trkpt><trkpt lat="40.9392844" lon="9.3058462"><ele>312.66666666666663</ele><time>2026-05-02T15:21:56.154Z</time></trkpt><trkpt lat="40.9394886" lon="9.3057317"><ele>310.0</ele><time>2026-05-02T15:21:57.153Z</time></trkpt><trkpt lat="40.9397108" lon="9.3056065"><ele>311.0</ele><time>2026-05-02T15:21:58.153Z</time></trkpt><trkpt lat="40.9399298" lon="9.3054828"><ele>312.0</ele><time>2026-05-02T15:21:59.153Z</time></trkpt><trkpt lat="40.9401392" lon="9.3053637"><ele>307.3333333333333</ele><time>2026-05-02T15:22:00.154Z</time></trkpt><trkpt lat="40.9403344" lon="9.3052303"><ele>302.66666666666663</ele><time>2026-05-02T15:22:01.154Z</time></trkpt><trkpt lat="40.9405188" lon="9.3050654"><ele>298.0</ele><time>2026-05-02T15:22:02.153Z</time></trkpt><trkpt lat="40.94069" lon="9.3048664"><ele>296.5</ele><time>2026-05-02T15:22:03.153Z</time></trkpt><trkpt lat="40.940856" lon="9.3046345"><ele>295.0</ele><time>2026-05-02T15:22:04.154Z</time></trkpt><trkpt lat="40.9410177" lon="9.3043772"><ele>294.5</ele><time>2026-05-02T15:22:05.154Z</time></trkpt><trkpt lat="40.9411801" lon="9.3041036"><ele>294.0</ele><time>2026-05-02T15:22:06.154Z</time></trkpt><trkpt lat="40.9413437" lon="9.3038162"><ele>292.5</ele><time>2026-05-02T15:22:07.153Z</time></trkpt><trkpt lat="40.9415111" lon="9.3035268"><ele>291.0</ele><time>2026-05-02T15:22:08.154Z</time></trkpt><trkpt lat="40.9416818" lon="9.3032375"><ele>292.0</ele><time>2026-05-02T15:22:09.154Z</time></trkpt><trkpt lat="40.9418497" lon="9.3029481"><ele>293.0</ele><time>2026-05-02T15:22:10.153Z</time></trkpt><trkpt lat="40.9420126" lon="9.3026613"><ele>293.0</ele><time>2026-05-02T15:22:11.154Z</time></trkpt><trkpt lat="40.9421626" lon="9.3024093"><ele>293.0</ele><time>2026-05-02T15:22:12.153Z</time></trkpt><trkpt lat="40.9423233" lon="9.3021876"><ele>291.5</ele><time>2026-05-02T15:22:13.154Z</time></trkpt><trkpt lat="40.9425024" lon="9.3019768"><ele>290.0</ele><time>2026-05-02T15:22:14.154Z</time></trkpt><trkpt lat="40.9427004" lon="9.3017738"><ele>293.5</ele><time>2026-05-02T15:22:15.154Z</time></trkpt><trkpt lat="40.9429097" lon="9.3015638"><ele>297.0</ele><time>2026-05-02T15:22:16.154Z</time></trkpt><trkpt lat="40.9431364" lon="9.3013473"><ele>297.0</ele><time>2026-05-02T15:22:17.154Z</time></trkpt><trkpt lat="40.9433747" lon="9.3011207"><ele>297.0</ele><time>2026-05-02T15:22:18.154Z</time></trkpt><trkpt lat="40.9436224" lon="9.3008832"><ele>297.0</ele><time>2026-05-02T15:22:19.153Z</time></trkpt><trkpt lat="40.9438728" lon="9.3006417"><ele>297.0</ele><time>2026-05-02T15:22:20.153Z</time></trkpt><trkpt lat="40.9441122" lon="9.3004102"><ele>297.5</ele><time>2026-05-02T15:22:21.153Z</time></trkpt><trkpt lat="40.9443492" lon="9.3001838"><ele>298.0</ele><time>2026-05-02T15:22:22.154Z</time></trkpt><trkpt lat="40.944581" lon="9.2999583"><ele>295.0</ele><time>2026-05-02T15:22:23.154Z</time></trkpt><trkpt lat="40.94481" lon="9.2997344"><ele>292.0</ele><time>2026-05-02T15:22:24.153Z</time></trkpt><trkpt lat="40.945037" lon="9.2995116"><ele>291.5</ele><time>2026-05-02T15:22:25.154Z</time></trkpt><trkpt lat="40.9452627" lon="9.2992907"><ele>291.0</ele><time>2026-05-02T15:22:26.154Z</time></trkpt><trkpt lat="40.945478" lon="9.2990772"><ele>290.5</ele><time>2026-05-02T15:22:27.153Z</time></trkpt><trkpt lat="40.9456829" lon="9.2988722"><ele>290.0</ele><time>2026-05-02T15:22:28.154Z</time></trkpt><trkpt lat="40.9458797" lon="9.2986746"><ele>289.0</ele><time>2026-05-02T15:22:29.154Z</time></trkpt><trkpt lat="40.9460793" lon="9.2985027"><ele>288.0</ele><time>2026-05-02T15:22:30.154Z</time></trkpt><trkpt lat="40.9462914" lon="9.2983513"><ele>288.0</ele><time>2026-05-02T15:22:31.153Z</time></trkpt><trkpt lat="40.9465122" lon="9.2982241"><ele>288.0</ele><time>2026-05-02T15:22:32.153Z</time></trkpt><trkpt lat="40.9467431" lon="9.2981091"><ele>287.0</ele><time>2026-05-02T15:22:33.154Z</time></trkpt><trkpt lat="40.9469809" lon="9.2979973"><ele>286.0</ele><time>2026-05-02T15:22:34.154Z</time></trkpt><trkpt lat="40.9472243" lon="9.2978845"><ele>286.0</ele><time>2026-05-02T15:22:35.154Z</time></trkpt><trkpt lat="40.94747" lon="9.2977688"><ele>286.0</ele><time>2026-05-02T15:22:36.153Z</time></trkpt><trkpt lat="40.9477151" lon="9.2976536"><ele>289.0</ele><time>2026-05-02T15:22:37.153Z</time></trkpt><trkpt lat="40.9479608" lon="9.2975387"><ele>292.0</ele><time>2026-05-02T15:22:38.153Z</time></trkpt><trkpt lat="40.9481991" lon="9.2974302"><ele>291.5</ele><time>2026-05-02T15:22:39.154Z</time></trkpt><trkpt lat="40.9484233" lon="9.297329"><ele>291.0</ele><time>2026-05-02T15:22:40.154Z</time></trkpt><trkpt lat="40.9486323" lon="9.297221"><ele>291.0</ele><time>2026-05-02T15:22:41.153Z</time></trkpt><trkpt lat="40.94882" lon="9.2970808"><ele>291.0</ele><time>2026-05-02T15:22:42.154Z</time></trkpt><trkpt lat="40.9490048" lon="9.2969198"><ele>291.0</ele><time>2026-05-02T15:22:43.153Z</time></trkpt><trkpt lat="40.9491943" lon="9.296745"><ele>289.0</ele><time>2026-05-02T15:22:44.153Z</time></trkpt><trkpt lat="40.9493948" lon="9.296559"><ele>287.0</ele><time>2026-05-02T15:22:45.154Z</time></trkpt><trkpt lat="40.9496046" lon="9.2963622"><ele>287.0</ele><time>2026-05-02T15:22:46.154Z</time></trkpt><trkpt lat="40.9498235" lon="9.2961554"><ele>287.0</ele><time>2026-05-02T15:22:47.153Z</time></trkpt><trkpt lat="40.9500496" lon="9.2959422"><ele>286.5</ele><time>2026-05-02T15:22:48.154Z</time></trkpt><trkpt lat="40.9502814" lon="9.2957246"><ele>286.0</ele><time>2026-05-02T15:22:49.153Z</time></trkpt><trkpt lat="40.9505167" lon="9.2955055"><ele>286.0</ele><time>2026-05-02T15:22:50.154Z</time></trkpt><trkpt lat="40.9507541" lon="9.2952834"><ele>286.0</ele><time>2026-05-02T15:22:51.153Z</time></trkpt><trkpt lat="40.9509815" lon="9.2950711"><ele>286.5</ele><time>2026-05-02T15:22:52.154Z</time></trkpt><trkpt lat="40.9511973" lon="9.2948696"><ele>287.0</ele><time>2026-05-02T15:22:53.154Z</time></trkpt><trkpt lat="40.9513951" lon="9.2946849"><ele>286.0</ele><time>2026-05-02T15:22:54.154Z</time></trkpt><trkpt lat="40.9515874" lon="9.2945192"><ele>285.0</ele><time>2026-05-02T15:22:55.153Z</time></trkpt><trkpt lat="40.9517892" lon="9.2943865"><ele>286.3333333333333</ele><time>2026-05-02T15:22:56.154Z</time></trkpt><trkpt lat="40.9519994" lon="9.2942797"><ele>287.66666666666663</ele><time>2026-05-02T15:22:57.154Z</time></trkpt><trkpt lat="40.9522118" lon="9.2942178"><ele>289.0</ele><time>2026-05-02T15:22:58.153Z</time></trkpt><trkpt lat="40.9524292" lon="9.2941966"><ele>290.5</ele><time>2026-05-02T15:22:59.154Z</time></trkpt><trkpt lat="40.9526558" lon="9.2942056"><ele>292.0</ele><time>2026-05-02T15:23:00.154Z</time></trkpt><trkpt lat="40.9528969" lon="9.2942239"><ele>292.0</ele><time>2026-05-02T15:23:01.154Z</time></trkpt><trkpt lat="40.9531492" lon="9.294241"><ele>292.0</ele><time>2026-05-02T15:23:02.153Z</time></trkpt><trkpt lat="40.9534098" lon="9.2942563"><ele>294.0</ele><time>2026-05-02T15:23:03.153Z</time></trkpt><trkpt lat="40.9536757" lon="9.2942788"><ele>296.0</ele><time>2026-05-02T15:23:04.153Z</time></trkpt><trkpt lat="40.9539481" lon="9.2942988"><ele>298.5</ele><time>2026-05-02T15:23:05.154Z</time></trkpt><trkpt lat="40.9542185" lon="9.2943165"><ele>301.0</ele><time>2026-05-02T15:23:06.153Z</time></trkpt><trkpt lat="40.9544921" lon="9.294337"><ele>301.0</ele><time>2026-05-02T15:23:07.153Z</time></trkpt><trkpt lat="40.9547698" lon="9.2943589"><ele>301.0</ele><time>2026-05-02T15:23:08.153Z</time></trkpt><trkpt lat="40.9550498" lon="9.2943816"><ele>301.5</ele><time>2026-05-02T15:23:09.153Z</time></trkpt><trkpt lat="40.9553252" lon="9.2944006"><ele>302.0</ele><time>2026-05-02T15:23:10.153Z</time></trkpt><trkpt lat="40.9556029" lon="9.2944207"><ele>299.0</ele><time>2026-05-02T15:23:11.153Z</time></trkpt><trkpt lat="40.9558838" lon="9.294441"><ele>296.0</ele><time>2026-05-02T15:23:12.153Z</time></trkpt><trkpt lat="40.9561659" lon="9.2944617"><ele>296.0</ele><time>2026-05-02T15:23:13.154Z</time></trkpt><trkpt lat="40.9564527" lon="9.2944841"><ele>296.0</ele><time>2026-05-02T15:23:14.153Z</time></trkpt><trkpt lat="40.9567372" lon="9.2945079"><ele>294.0</ele><time>2026-05-02T15:23:15.153Z</time></trkpt><trkpt lat="40.9570253" lon="9.2945315"><ele>292.0</ele><time>2026-05-02T15:23:16.154Z</time></trkpt><trkpt lat="40.9573159" lon="9.2945568"><ele>291.5</ele><time>2026-05-02T15:23:17.154Z</time></trkpt><trkpt lat="40.957608" lon="9.2945779"><ele>291.0</ele><time>2026-05-02T15:23:18.154Z</time></trkpt><trkpt lat="40.9578865" lon="9.2945969"><ele>291.0</ele><time>2026-05-02T15:23:19.153Z</time></trkpt><trkpt lat="40.9581488" lon="9.2946174"><ele>291.0</ele><time>2026-05-02T15:23:20.153Z</time></trkpt><trkpt lat="40.9583969" lon="9.2946358"><ele>289.0</ele><time>2026-05-02T15:23:21.154Z</time></trkpt><trkpt lat="40.9586329" lon="9.294653"><ele>287.0</ele><time>2026-05-02T15:23:22.154Z</time></trkpt><trkpt lat="40.9588559" lon="9.2946718"><ele>287.0</ele><time>2026-05-02T15:23:23.153Z</time></trkpt><trkpt lat="40.9590701" lon="9.2946865"><ele>287.0</ele><time>2026-05-02T15:23:24.153Z</time></trkpt><trkpt lat="40.9592752" lon="9.2946893"><ele>287.0</ele><time>2026-05-02T15:23:25.153Z</time></trkpt><trkpt lat="40.9594729" lon="9.2946638"><ele>285.6666666666667</ele><time>2026-05-02T15:23:26.154Z</time></trkpt><trkpt lat="40.9596577" lon="9.2946007"><ele>284.3333333333333</ele><time>2026-05-02T15:23:27.153Z</time></trkpt><trkpt lat="40.9598268" lon="9.2944957"><ele>283.0</ele><time>2026-05-02T15:23:28.153Z</time></trkpt><trkpt lat="40.9599721" lon="9.2943486"><ele>284.0</ele><time>2026-05-02T15:23:29.153Z</time></trkpt><trkpt lat="40.9600887" lon="9.2941527"><ele>285.0</ele><time>2026-05-02T15:23:30.154Z</time></trkpt><trkpt lat="40.9601771" lon="9.2939138"><ele>286.0</ele><time>2026-05-02T15:23:31.153Z</time></trkpt><trkpt lat="40.9602285" lon="9.2936527"><ele>286.0</ele><time>2026-05-02T15:23:32.153Z</time></trkpt><trkpt lat="40.9602411" lon="9.2933667"><ele>286.0</ele><time>2026-05-02T15:23:33.153Z</time></trkpt><trkpt lat="40.960223" lon="9.2930476"><ele>281.0</ele><time>2026-05-02T15:23:34.154Z</time></trkpt><trkpt lat="40.9602032" lon="9.292696"><ele>276.0</ele><time>2026-05-02T15:23:35.153Z</time></trkpt><trkpt lat="40.9602073" lon="9.2923649"><ele>274.0</ele><time>2026-05-02T15:23:36.153Z</time></trkpt><trkpt lat="40.9602172" lon="9.2920546"><ele>272.0</ele><time>2026-05-02T15:23:37.153Z</time></trkpt><trkpt lat="40.9602253" lon="9.2917692"><ele>272.0</ele><time>2026-05-02T15:23:38.154Z</time></trkpt><trkpt lat="40.9602364" lon="9.2915158"><ele>272.0</ele><time>2026-05-02T15:23:39.153Z</time></trkpt><trkpt lat="40.9602821" lon="9.2912763"><ele>272.0</ele><time>2026-05-02T15:23:40.153Z</time></trkpt><trkpt lat="40.9603754" lon="9.2910327"><ele>268.5</ele><time>2026-05-02T15:23:41.153Z</time></trkpt><trkpt lat="40.9605085" lon="9.290771"><ele>265.0</ele><time>2026-05-02T15:23:42.154Z</time></trkpt><trkpt lat="40.9606759" lon="9.2904815"><ele>267.5</ele><time>2026-05-02T15:23:43.153Z</time></trkpt><trkpt lat="40.9608673" lon="9.2901616"><ele>270.0</ele><time>2026-05-02T15:23:44.154Z</time></trkpt><trkpt lat="40.9610502" lon="9.2898475"><ele>260.5</ele><time>2026-05-02T15:23:45.153Z</time></trkpt><trkpt lat="40.9612177" lon="9.2895504"><ele>251.0</ele><time>2026-05-02T15:23:46.154Z</time></trkpt><trkpt lat="40.9613691" lon="9.2892781"><ele>251.0</ele><time>2026-05-02T15:23:47.153Z</time></trkpt><trkpt lat="40.9614993" lon="9.289005"><ele>251.0</ele><time>2026-05-02T15:23:48.154Z</time></trkpt><trkpt lat="40.9615948" lon="9.2886952"><ele>252.0</ele><time>2026-05-02T15:23:49.154Z</time></trkpt><trkpt lat="40.9616783" lon="9.2883504"><ele>253.0</ele><time>2026-05-02T15:23:50.153Z</time></trkpt><trkpt lat="40.9617647" lon="9.2879777"><ele>253.0</ele><time>2026-05-02T15:23:51.153Z</time></trkpt><trkpt lat="40.9618521" lon="9.2875885"><ele>253.0</ele><time>2026-05-02T15:23:52.154Z</time></trkpt><trkpt lat="40.9619319" lon="9.2872244"><ele>249.5</ele><time>2026-05-02T15:23:53.153Z</time></trkpt><trkpt lat="40.9620145" lon="9.2868746"><ele>246.0</ele><time>2026-05-02T15:23:54.154Z</time></trkpt><trkpt lat="40.9621045" lon="9.2865407"><ele>239.0</ele><time>2026-05-02T15:23:55.154Z</time></trkpt><trkpt lat="40.9622119" lon="9.2862128"><ele>232.0</ele><time>2026-05-02T15:23:56.153Z</time></trkpt><trkpt lat="40.9623413" lon="9.2858829"><ele>229.5</ele><time>2026-05-02T15:23:57.154Z</time></trkpt><trkpt lat="40.9624826" lon="9.2855394"><ele>227.0</ele><time>2026-05-02T15:23:58.154Z</time></trkpt><trkpt lat="40.962633" lon="9.2851786"><ele>227.0</ele><time>2026-05-02T15:23:59.154Z</time></trkpt><trkpt lat="40.9627912" lon="9.2848036"><ele>227.0</ele><time>2026-05-02T15:24:00.154Z</time></trkpt><trkpt lat="40.9629534" lon="9.2844211"><ele>227.0</ele><time>2026-05-02T15:24:01.154Z</time></trkpt><trkpt lat="40.9631085" lon="9.2840599"><ele>227.0</ele><time>2026-05-02T15:24:02.154Z</time></trkpt><trkpt lat="40.963253" lon="9.2837264"><ele>228.0</ele><time>2026-05-02T15:24:03.153Z</time></trkpt><trkpt lat="40.9633858" lon="9.2834161"><ele>229.0</ele><time>2026-05-02T15:24:04.153Z</time></trkpt><trkpt lat="40.9635094" lon="9.2831203"><ele>229.0</ele><time>2026-05-02T15:24:05.153Z</time></trkpt><trkpt lat="40.9636182" lon="9.2828257"><ele>229.0</ele><time>2026-05-02T15:24:06.153Z</time></trkpt><trkpt lat="40.9637024" lon="9.2825246"><ele>230.0</ele><time>2026-05-02T15:24:07.153Z</time></trkpt><trkpt lat="40.9637833" lon="9.2822078"><ele>231.0</ele><time>2026-05-02T15:24:08.154Z</time></trkpt><trkpt lat="40.9638695" lon="9.2818792"><ele>231.0</ele><time>2026-05-02T15:24:09.153Z</time></trkpt><trkpt lat="40.9639529" lon="9.2815508"><ele>231.0</ele><time>2026-05-02T15:24:10.153Z</time></trkpt><trkpt lat="40.9640366" lon="9.2812201"><ele>230.0</ele><time>2026-05-02T15:24:11.153Z</time></trkpt><trkpt lat="40.9641241" lon="9.280887"><ele>229.0</ele><time>2026-05-02T15:24:12.153Z</time></trkpt><trkpt lat="40.9642143" lon="9.2805429"><ele>228.0</ele><time>2026-05-02T15:24:13.154Z</time></trkpt><trkpt lat="40.9643055" lon="9.2801895"><ele>227.0</ele><time>2026-05-02T15:24:14.154Z</time></trkpt><trkpt lat="40.9643895" lon="9.2798609"><ele>224.5</ele><time>2026-05-02T15:24:15.153Z</time></trkpt><trkpt lat="40.9644655" lon="9.2795552"><ele>222.0</ele><time>2026-05-02T15:24:16.154Z</time></trkpt><trkpt lat="40.9645373" lon="9.2792706"><ele>222.0</ele><time>2026-05-02T15:24:17.153Z</time></trkpt><trkpt lat="40.9646088" lon="9.2790125"><ele>222.0</ele><time>2026-05-02T15:24:18.154Z</time></trkpt><trkpt lat="40.9647016" lon="9.2787717"><ele>222.0</ele><time>2026-05-02T15:24:19.154Z</time></trkpt><trkpt lat="40.9648229" lon="9.2785539"><ele>221.33333333333331</ele><time>2026-05-02T15:24:20.154Z</time></trkpt><trkpt lat="40.9649638" lon="9.2783598"><ele>220.66666666666666</ele><time>2026-05-02T15:24:21.153Z</time></trkpt><trkpt lat="40.9651396" lon="9.2781874"><ele>220.0</ele><time>2026-05-02T15:24:22.154Z</time></trkpt><trkpt lat="40.9653426" lon="9.2780164"><ele>220.0</ele><time>2026-05-02T15:24:23.154Z</time></trkpt><trkpt lat="40.9655447" lon="9.2778536"><ele>220.0</ele><time>2026-05-02T15:24:24.153Z</time></trkpt><trkpt lat="40.9657272" lon="9.2777076"><ele>219.33333333333331</ele><time>2026-05-02T15:24:25.153Z</time></trkpt><trkpt lat="40.9659047" lon="9.2775942"><ele>218.66666666666669</ele><time>2026-05-02T15:24:26.153Z</time></trkpt><trkpt lat="40.9660883" lon="9.277522"><ele>218.0</ele><time>2026-05-02T15:24:27.154Z</time></trkpt><trkpt lat="40.9662821" lon="9.27746"><ele>218.0</ele><time>2026-05-02T15:24:28.153Z</time></trkpt><trkpt lat="40.9664737" lon="9.2774083"><ele>218.0</ele><time>2026-05-02T15:24:29.153Z</time></trkpt><trkpt lat="40.9666496" lon="9.2773588"><ele>218.0</ele><time>2026-05-02T15:24:30.154Z</time></trkpt><trkpt lat="40.966823" lon="9.2773187"><ele>217.33333333333334</ele><time>2026-05-02T15:24:31.154Z</time></trkpt><trkpt lat="40.9669818" lon="9.2772747"><ele>216.66666666666669</ele><time>2026-05-02T15:24:32.154Z</time></trkpt><trkpt lat="40.9671303" lon="9.2772328"><ele>216.0</ele><time>2026-05-02T15:24:33.153Z</time></trkpt><trkpt lat="40.9672685" lon="9.2771934"><ele>216.0</ele><time>2026-05-02T15:24:34.153Z</time></trkpt><trkpt lat="40.967396" lon="9.2771571"><ele>216.0</ele><time>2026-05-02T15:24:35.154Z</time></trkpt><trkpt lat="40.9675099" lon="9.2771205"><ele>216.0</ele><time>2026-05-02T15:24:36.153Z</time></trkpt><trkpt lat="40.9676104" lon="9.2770698"><ele>216.0</ele><time>2026-05-02T15:24:37.153Z</time></trkpt><trkpt lat="40.9676987" lon="9.2770019"><ele>215.33333333333334</ele><time>2026-05-02T15:24:38.153Z</time></trkpt><trkpt lat="40.9677741" lon="9.2769179"><ele>214.66666666666669</ele><time>2026-05-02T15:24:39.154Z</time></trkpt><trkpt lat="40.9678381" lon="9.2768322"><ele>214.0</ele><time>2026-05-02T15:24:40.154Z</time></trkpt><trkpt lat="40.9678931" lon="9.2767527"><ele>213.33333333333334</ele><time>2026-05-02T15:24:41.154Z</time></trkpt><trkpt lat="40.967949" lon="9.2766854"><ele>212.66666666666669</ele><time>2026-05-02T15:24:42.153Z</time></trkpt><trkpt lat="40.9680065" lon="9.2766335"><ele>212.0</ele><time>2026-05-02T15:24:43.154Z</time></trkpt><trkpt lat="40.9680676" lon="9.2765948"><ele>212.00000000000003</ele><time>2026-05-02T15:24:44.154Z</time></trkpt><trkpt lat="40.9681337" lon="9.2765623"><ele>212.0</ele><time>2026-05-02T15:24:45.154Z</time></trkpt><trkpt lat="40.968204" lon="9.2765279"><ele>212.0</ele><time>2026-05-02T15:24:46.153Z</time></trkpt><trkpt lat="40.9682701" lon="9.2764734"><ele>212.0</ele><time>2026-05-02T15:24:47.153Z</time></trkpt><trkpt lat="40.9683223" lon="9.276393"><ele>212.00000000000003</ele><time>2026-05-02T15:24:48.154Z</time></trkpt><trkpt lat="40.9683534" lon="9.2762958"><ele>212.0</ele><time>2026-05-02T15:24:49.153Z</time></trkpt><trkpt lat="40.968363" lon="9.2761914"><ele>212.57142857142858</ele><time>2026-05-02T15:24:50.154Z</time></trkpt><trkpt lat="40.9683515" lon="9.276092"><ele>213.14285714285714</ele><time>2026-05-02T15:24:51.153Z</time></trkpt><trkpt lat="40.9683171" lon="9.2760105"><ele>213.71428571428572</ele><time>2026-05-02T15:24:52.153Z</time></trkpt><trkpt lat="40.9682637" lon="9.2759503"><ele>214.28571428571428</ele><time>2026-05-02T15:24:53.153Z</time></trkpt><trkpt lat="40.9681989" lon="9.2759142"><ele>214.85714285714283</ele><time>2026-05-02T15:24:54.154Z</time></trkpt><trkpt lat="40.968131" lon="9.2759064"><ele>215.42857142857142</ele><time>2026-05-02T15:24:55.153Z</time></trkpt><trkpt lat="40.9680662" lon="9.2759284"><ele>216.0</ele><time>2026-05-02T15:24:56.153Z</time></trkpt><trkpt lat="40.9680069" lon="9.2759759"><ele>216.0</ele><time>2026-05-02T15:24:57.153Z</time></trkpt><trkpt lat="40.9679586" lon="9.2760454"><ele>216.0</ele><time>2026-05-02T15:24:58.153Z</time></trkpt><trkpt lat="40.9679303" lon="9.2761273"><ele>216.0</ele><time>2026-05-02T15:24:59.153Z</time></trkpt><trkpt lat="40.9679206" lon="9.2762145"><ele>216.0</ele><time>2026-05-02T15:25:00.153Z</time></trkpt><trkpt lat="40.9679283" lon="9.2763014"><ele>216.0</ele><time>2026-05-02T15:25:01.154Z</time></trkpt><trkpt lat="40.9679449" lon="9.2763821"><ele>216.0</ele><time>2026-05-02T15:25:02.154Z</time></trkpt><trkpt lat="40.9679997" lon="9.2764865"><ele>216.0</ele><time>2026-05-02T15:25:04.153Z</time></trkpt><trkpt lat="40.9680716" lon="9.2765222"><ele>215.25</ele><time>2026-05-02T15:25:44.153Z</time></trkpt><trkpt lat="40.9682001" lon="9.2765254"><ele>214.5</ele><time>2026-05-02T15:25:46.153Z</time></trkpt><trkpt lat="40.9682921" lon="9.2765192"><ele>213.75</ele><time>2026-05-02T15:25:47.153Z</time></trkpt><trkpt lat="40.9684039" lon="9.2765351"><ele>213.0</ele><time>2026-05-02T15:25:48.153Z</time></trkpt><trkpt lat="40.968529" lon="9.27658"><ele>213.0</ele><time>2026-05-02T15:25:49.154Z</time></trkpt><trkpt lat="40.9686637" lon="9.2766591"><ele>213.0</ele><time>2026-05-02T15:25:50.154Z</time></trkpt><trkpt lat="40.9688181" lon="9.276765"><ele>213.0</ele><time>2026-05-02T15:25:51.153Z</time></trkpt><trkpt lat="40.9689751" lon="9.2768739"><ele>213.0</ele><time>2026-05-02T15:25:52.153Z</time></trkpt><trkpt lat="40.9691159" lon="9.2769569"><ele>213.0</ele><time>2026-05-02T15:25:53.154Z</time></trkpt><trkpt lat="40.9692558" lon="9.2770051"><ele>213.0</ele><time>2026-05-02T15:25:54.153Z</time></trkpt><trkpt lat="40.9693972" lon="9.2769768"><ele>213.0</ele><time>2026-05-02T15:25:55.154Z</time></trkpt><trkpt lat="40.9695348" lon="9.276901"><ele>214.66666666666669</ele><time>2026-05-02T15:25:56.154Z</time></trkpt><trkpt lat="40.9696589" lon="9.2767944"><ele>216.33333333333334</ele><time>2026-05-02T15:25:57.154Z</time></trkpt><trkpt lat="40.9697872" lon="9.2766849"><ele>218.0</ele><time>2026-05-02T15:25:58.153Z</time></trkpt><trkpt lat="40.9699242" lon="9.276592"><ele>220.66666666666669</ele><time>2026-05-02T15:25:59.153Z</time></trkpt><trkpt lat="40.9700588" lon="9.2765246"><ele>223.33333333333331</ele><time>2026-05-02T15:26:00.153Z</time></trkpt><trkpt lat="40.970209" lon="9.2764795"><ele>226.0</ele><time>2026-05-02T15:26:01.154Z</time></trkpt><trkpt lat="40.9703843" lon="9.2764378"><ele>228.0</ele><time>2026-05-02T15:26:02.153Z</time></trkpt><trkpt lat="40.9705884" lon="9.2763841"><ele>230.0</ele><time>2026-05-02T15:26:03.154Z</time></trkpt><trkpt lat="40.9708128" lon="9.2763087"><ele>232.0</ele><time>2026-05-02T15:26:04.154Z</time></trkpt><trkpt lat="40.9710203" lon="9.2762234"><ele>232.0</ele><time>2026-05-02T15:26:05.153Z</time></trkpt><trkpt lat="40.9712284" lon="9.2761583"><ele>232.0</ele><time>2026-05-02T15:26:06.154Z</time></trkpt><trkpt lat="40.9714533" lon="9.2761233"><ele>232.0</ele><time>2026-05-02T15:26:07.153Z</time></trkpt><trkpt lat="40.971695" lon="9.2760922"><ele>233.33333333333331</ele><time>2026-05-02T15:26:08.154Z</time></trkpt><trkpt lat="40.9719251" lon="9.2760654"><ele>234.66666666666669</ele><time>2026-05-02T15:26:09.154Z</time></trkpt><trkpt lat="40.9721319" lon="9.2760444"><ele>236.0</ele><time>2026-05-02T15:26:10.153Z</time></trkpt><trkpt lat="40.9723244" lon="9.2760275"><ele>236.0</ele><time>2026-05-02T15:26:11.153Z</time></trkpt><trkpt lat="40.972508" lon="9.2760183"><ele>236.0</ele><time>2026-05-02T15:26:12.154Z</time></trkpt><trkpt lat="40.9727038" lon="9.2760168"><ele>236.0</ele><time>2026-05-02T15:26:13.153Z</time></trkpt><trkpt lat="40.9729044" lon="9.2760204"><ele>235.66666666666669</ele><time>2026-05-02T15:26:14.153Z</time></trkpt><trkpt lat="40.9730961" lon="9.2760289"><ele>235.33333333333331</ele><time>2026-05-02T15:26:15.153Z</time></trkpt><trkpt lat="40.9732754" lon="9.2760392"><ele>235.0</ele><time>2026-05-02T15:26:16.153Z</time></trkpt><trkpt lat="40.9734434" lon="9.2760481"><ele>235.0</ele><time>2026-05-02T15:26:17.153Z</time></trkpt><trkpt lat="40.9735993" lon="9.2760598"><ele>235.0</ele><time>2026-05-02T15:26:18.153Z</time></trkpt><trkpt lat="40.9737426" lon="9.2760703"><ele>235.0</ele><time>2026-05-02T15:26:19.153Z</time></trkpt><trkpt lat="40.9738796" lon="9.2760778"><ele>235.0</ele><time>2026-05-02T15:26:20.153Z</time></trkpt><trkpt lat="40.9740386" lon="9.2760843"><ele>235.66666666666666</ele><time>2026-05-02T15:26:21.154Z</time></trkpt><trkpt lat="40.9742067" lon="9.276095"><ele>236.33333333333331</ele><time>2026-05-02T15:26:22.154Z</time></trkpt><trkpt lat="40.9743616" lon="9.2761387"><ele>237.0</ele><time>2026-05-02T15:26:23.154Z</time></trkpt><trkpt lat="40.974511" lon="9.27623"><ele>237.0</ele><time>2026-05-02T15:26:24.154Z</time></trkpt><trkpt lat="40.9746439" lon="9.2763622"><ele>237.0</ele><time>2026-05-02T15:26:25.153Z</time></trkpt><trkpt lat="40.9747711" lon="9.2764952"><ele>237.0</ele><time>2026-05-02T15:26:26.153Z</time></trkpt><trkpt lat="40.9749007" lon="9.2765783"><ele>239.25</ele><time>2026-05-02T15:26:27.154Z</time></trkpt><trkpt lat="40.9750193" lon="9.276592"><ele>241.5</ele><time>2026-05-02T15:26:28.154Z</time></trkpt><trkpt lat="40.9751053" lon="9.2765478"><ele>243.75</ele><time>2026-05-02T15:26:29.153Z</time></trkpt><trkpt lat="40.975198" lon="9.2764509"><ele>246.0</ele><time>2026-05-02T15:26:30.154Z</time></trkpt><trkpt lat="40.9753154" lon="9.2763231"><ele>246.0</ele><time>2026-05-02T15:26:31.153Z</time></trkpt><trkpt lat="40.9754462" lon="9.2761849"><ele>246.0</ele><time>2026-05-02T15:26:32.153Z</time></trkpt><trkpt lat="40.9755707" lon="9.2760815"><ele>246.0</ele><time>2026-05-02T15:26:33.154Z</time></trkpt><trkpt lat="40.9757126" lon="9.2760132"><ele>248.5</ele><time>2026-05-02T15:26:34.154Z</time></trkpt><trkpt lat="40.9758647" lon="9.2759938"><ele>251.0</ele><time>2026-05-02T15:26:35.154Z</time></trkpt><trkpt lat="40.9760179" lon="9.2760114"><ele>253.5</ele><time>2026-05-02T15:26:36.153Z</time></trkpt><trkpt lat="40.9761496" lon="9.2760138"><ele>256.0</ele><time>2026-05-02T15:26:37.153Z</time></trkpt><trkpt lat="40.976263" lon="9.2759507"><ele>256.0</ele><time>2026-05-02T15:26:38.153Z</time></trkpt><trkpt lat="40.9763609" lon="9.2758428"><ele>256.0</ele><time>2026-05-02T15:26:39.153Z</time></trkpt><trkpt lat="40.9764486" lon="9.2756733"><ele>256.0</ele><time>2026-05-02T15:26:40.154Z</time></trkpt><trkpt lat="40.9765339" lon="9.2754994"><ele>256.0</ele><time>2026-05-02T15:26:41.154Z</time></trkpt><trkpt lat="40.9766377" lon="9.2753899"><ele>255.33333333333331</ele><time>2026-05-02T15:26:42.153Z</time></trkpt><trkpt lat="40.9767711" lon="9.2753137"><ele>254.66666666666669</ele><time>2026-05-02T15:26:43.153Z</time></trkpt><trkpt lat="40.976929" lon="9.2752569"><ele>254.0</ele><time>2026-05-02T15:26:44.154Z</time></trkpt><trkpt lat="40.9771108" lon="9.2752038"><ele>254.0</ele><time>2026-05-02T15:26:45.154Z</time></trkpt><trkpt lat="40.9772993" lon="9.2751575"><ele>254.0</ele><time>2026-05-02T15:26:46.153Z</time></trkpt><trkpt lat="40.977478" lon="9.2751226"><ele>254.0</ele><time>2026-05-02T15:26:47.154Z</time></trkpt><trkpt lat="40.9776606" lon="9.2751023"><ele>257.0</ele><time>2026-05-02T15:26:48.154Z</time></trkpt><trkpt lat="40.97784" lon="9.2750879"><ele>260.0</ele><time>2026-05-02T15:26:49.153Z</time></trkpt><trkpt lat="40.9780188" lon="9.2750665"><ele>263.0</ele><time>2026-05-02T15:26:50.154Z</time></trkpt><trkpt lat="40.9781924" lon="9.2750287"><ele>264.6666666666667</ele><time>2026-05-02T15:26:51.153Z</time></trkpt><trkpt lat="40.9783588" lon="9.2749823"><ele>266.3333333333333</ele><time>2026-05-02T15:26:52.153Z</time></trkpt><trkpt lat="40.9785255" lon="9.2749374"><ele>268.0</ele><time>2026-05-02T15:26:53.154Z</time></trkpt><trkpt lat="40.9786891" lon="9.2748933"><ele>268.0</ele><time>2026-05-02T15:26:54.154Z</time></trkpt><trkpt lat="40.9788422" lon="9.2748603"><ele>268.0</ele><time>2026-05-02T15:26:55.154Z</time></trkpt><trkpt lat="40.9789984" lon="9.2748209"><ele>268.0</ele><time>2026-05-02T15:26:56.153Z</time></trkpt><trkpt lat="40.9791574" lon="9.27476"><ele>264.66666666666663</ele><time>2026-05-02T15:26:57.153Z</time></trkpt><trkpt lat="40.9793089" lon="9.2746854"><ele>261.3333333333333</ele><time>2026-05-02T15:26:58.153Z</time></trkpt><trkpt lat="40.9794535" lon="9.2746208"><ele>258.0</ele><time>2026-05-02T15:26:59.153Z</time></trkpt><trkpt lat="40.9795993" lon="9.2745769"><ele>258.0</ele><time>2026-05-02T15:27:00.153Z</time></trkpt><trkpt lat="40.9797485" lon="9.2745565"><ele>258.0</ele><time>2026-05-02T15:27:01.154Z</time></trkpt><trkpt lat="40.9798948" lon="9.2745697"><ele>258.0</ele><time>2026-05-02T15:27:02.154Z</time></trkpt><trkpt lat="40.9800351" lon="9.2746265"><ele>258.0</ele><time>2026-05-02T15:27:03.154Z</time></trkpt><trkpt lat="40.9801501" lon="9.2747235"><ele>259.0</ele><time>2026-05-02T15:27:04.153Z</time></trkpt><trkpt lat="40.9802393" lon="9.2748574"><ele>260.0</ele><time>2026-05-02T15:27:05.154Z</time></trkpt><trkpt lat="40.9803202" lon="9.2750244"><ele>261.0</ele><time>2026-05-02T15:27:06.154Z</time></trkpt><trkpt lat="40.9803976" lon="9.2752144"><ele>262.0</ele><time>2026-05-02T15:27:07.154Z</time></trkpt><trkpt lat="40.9804655" lon="9.2754315"><ele>258.66666666666663</ele><time>2026-05-02T15:27:08.153Z</time></trkpt><trkpt lat="40.9805132" lon="9.275647"><ele>255.33333333333331</ele><time>2026-05-02T15:27:09.154Z</time></trkpt><trkpt lat="40.9805483" lon="9.2758702"><ele>252.0</ele><time>2026-05-02T15:27:10.153Z</time></trkpt><trkpt lat="40.9805794" lon="9.2761039"><ele>252.0</ele><time>2026-05-02T15:27:11.154Z</time></trkpt><trkpt lat="40.9806015" lon="9.2763482"><ele>252.0</ele><time>2026-05-02T15:27:12.154Z</time></trkpt><trkpt lat="40.9806127" lon="9.2766003"><ele>252.0</ele><time>2026-05-02T15:27:13.154Z</time></trkpt><trkpt lat="40.9806264" lon="9.2768612"><ele>248.66666666666669</ele><time>2026-05-02T15:27:14.153Z</time></trkpt><trkpt lat="40.9806419" lon="9.277144"><ele>245.33333333333334</ele><time>2026-05-02T15:27:15.153Z</time></trkpt><trkpt lat="40.9806634" lon="9.2774341"><ele>242.0</ele><time>2026-05-02T15:27:16.154Z</time></trkpt><trkpt lat="40.9806893" lon="9.2777098"><ele>241.33333333333334</ele><time>2026-05-02T15:27:17.153Z</time></trkpt><trkpt lat="40.980737" lon="9.2779807"><ele>240.66666666666669</ele><time>2026-05-02T15:27:18.154Z</time></trkpt><trkpt lat="40.980807" lon="9.2782464"><ele>240.0</ele><time>2026-05-02T15:27:19.154Z</time></trkpt><trkpt lat="40.9808805" lon="9.2785155"><ele>237.0</ele><time>2026-05-02T15:27:20.154Z</time></trkpt><trkpt lat="40.9809488" lon="9.278781"><ele>234.0</ele><time>2026-05-02T15:27:21.153Z</time></trkpt><trkpt lat="40.9809955" lon="9.2790463"><ele>231.0</ele><time>2026-05-02T15:27:22.154Z</time></trkpt><trkpt lat="40.9810293" lon="9.2793204"><ele>230.33333333333331</ele><time>2026-05-02T15:27:23.154Z</time></trkpt><trkpt lat="40.9810536" lon="9.2795978"><ele>229.66666666666666</ele><time>2026-05-02T15:27:24.153Z</time></trkpt><trkpt lat="40.9810728" lon="9.2798807"><ele>229.0</ele><time>2026-05-02T15:27:25.154Z</time></trkpt><trkpt lat="40.981086" lon="9.2801657"><ele>230.33333333333331</ele><time>2026-05-02T15:27:26.153Z</time></trkpt><trkpt lat="40.9810872" lon="9.2804563"><ele>231.66666666666669</ele><time>2026-05-02T15:27:27.154Z</time></trkpt><trkpt lat="40.98108" lon="9.2807514"><ele>233.0</ele><time>2026-05-02T15:27:28.153Z</time></trkpt><trkpt lat="40.9810703" lon="9.2810555"><ele>233.5</ele><time>2026-05-02T15:27:29.153Z</time></trkpt><trkpt lat="40.9810639" lon="9.2813676"><ele>234.0</ele><time>2026-05-02T15:27:30.153Z</time></trkpt><trkpt lat="40.9810648" lon="9.2816793"><ele>236.0</ele><time>2026-05-02T15:27:31.153Z</time></trkpt><trkpt lat="40.9810762" lon="9.2819811"><ele>238.0</ele><time>2026-05-02T15:27:32.153Z</time></trkpt><trkpt lat="40.9810985" lon="9.2822765"><ele>239.66666666666666</ele><time>2026-05-02T15:27:33.154Z</time></trkpt><trkpt lat="40.9811267" lon="9.2825716"><ele>241.33333333333331</ele><time>2026-05-02T15:27:34.154Z</time></trkpt><trkpt lat="40.9811547" lon="9.2828571"><ele>243.0</ele><time>2026-05-02T15:27:35.154Z</time></trkpt><trkpt lat="40.9811753" lon="9.2831225"><ele>245.0</ele><time>2026-05-02T15:27:36.154Z</time></trkpt><trkpt lat="40.9811958" lon="9.2833673"><ele>247.0</ele><time>2026-05-02T15:27:37.154Z</time></trkpt><trkpt lat="40.9812153" lon="9.2836041"><ele>249.0</ele><time>2026-05-02T15:27:38.153Z</time></trkpt><trkpt lat="40.9812238" lon="9.2838352"><ele>249.0</ele><time>2026-05-02T15:27:39.153Z</time></trkpt><trkpt lat="40.9812088" lon="9.2840641"><ele>249.0</ele><time>2026-05-02T15:27:40.153Z</time></trkpt><trkpt lat="40.9811707" lon="9.2842908"><ele>249.0</ele><time>2026-05-02T15:27:41.154Z</time></trkpt><trkpt lat="40.9811316" lon="9.2845097"><ele>249.0</ele><time>2026-05-02T15:27:42.154Z</time></trkpt><trkpt lat="40.9811165" lon="9.2847332"><ele>249.0</ele><time>2026-05-02T15:27:43.153Z</time></trkpt><trkpt lat="40.9811313" lon="9.2849726"><ele>249.0</ele><time>2026-05-02T15:27:44.154Z</time></trkpt><trkpt lat="40.9811627" lon="9.2852271"><ele>248.66666666666669</ele><time>2026-05-02T15:27:45.154Z</time></trkpt><trkpt lat="40.9812087" lon="9.2854817"><ele>248.33333333333334</ele><time>2026-05-02T15:27:46.153Z</time></trkpt><trkpt lat="40.9812612" lon="9.2857398"><ele>248.0</ele><time>2026-05-02T15:27:47.153Z</time></trkpt><trkpt lat="40.9812911" lon="9.2860003"><ele>248.0</ele><time>2026-05-02T15:27:48.153Z</time></trkpt><trkpt lat="40.9812892" lon="9.2862606"><ele>248.0</ele><time>2026-05-02T15:27:49.153Z</time></trkpt><trkpt lat="40.9812604" lon="9.2865163"><ele>248.0</ele><time>2026-05-02T15:27:50.154Z</time></trkpt><trkpt lat="40.9812233" lon="9.286756"><ele>248.33333333333334</ele><time>2026-05-02T15:27:51.154Z</time></trkpt><trkpt lat="40.9812028" lon="9.2869812"><ele>248.66666666666669</ele><time>2026-05-02T15:27:52.154Z</time></trkpt><trkpt lat="40.9812173" lon="9.287199"><ele>249.0</ele><time>2026-05-02T15:27:53.153Z</time></trkpt><trkpt lat="40.9812606" lon="9.2874225"><ele>250.66666666666669</ele><time>2026-05-02T15:27:54.153Z</time></trkpt><trkpt lat="40.9813121" lon="9.2876639"><ele>252.33333333333334</ele><time>2026-05-02T15:27:55.153Z</time></trkpt><trkpt lat="40.9813662" lon="9.2879193"><ele>254.0</ele><time>2026-05-02T15:27:56.153Z</time></trkpt><trkpt lat="40.9814199" lon="9.2881842"><ele>255.0</ele><time>2026-05-02T15:27:57.153Z</time></trkpt><trkpt lat="40.981471" lon="9.2884605"><ele>256.0</ele><time>2026-05-02T15:27:58.154Z</time></trkpt><trkpt lat="40.9815198" lon="9.2887461"><ele>257.0</ele><time>2026-05-02T15:27:59.153Z</time></trkpt><trkpt lat="40.9815708" lon="9.2890455"><ele>259.5</ele><time>2026-05-02T15:28:00.153Z</time></trkpt><trkpt lat="40.98162" lon="9.2893465"><ele>262.0</ele><time>2026-05-02T15:28:01.154Z</time></trkpt><trkpt lat="40.9816708" lon="9.2896529"><ele>264.0</ele><time>2026-05-02T15:28:02.154Z</time></trkpt><trkpt lat="40.9817237" lon="9.2899587"><ele>266.0</ele><time>2026-05-02T15:28:03.154Z</time></trkpt><trkpt lat="40.9817791" lon="9.2902701"><ele>266.0</ele><time>2026-05-02T15:28:04.154Z</time></trkpt><trkpt lat="40.9818377" lon="9.2905756"><ele>266.0</ele><time>2026-05-02T15:28:05.153Z</time></trkpt><trkpt lat="40.9818921" lon="9.2908557"><ele>267.33333333333337</ele><time>2026-05-02T15:28:06.153Z</time></trkpt><trkpt lat="40.9819428" lon="9.2911379"><ele>268.6666666666667</ele><time>2026-05-02T15:28:07.153Z</time></trkpt><trkpt lat="40.9819791" lon="9.2914214"><ele>270.0</ele><time>2026-05-02T15:28:08.154Z</time></trkpt><trkpt lat="40.9819994" lon="9.2917112"><ele>271.5</ele><time>2026-05-02T15:28:09.154Z</time></trkpt><trkpt lat="40.9820055" lon="9.2920139"><ele>273.0</ele><time>2026-05-02T15:28:10.154Z</time></trkpt><trkpt lat="40.9820118" lon="9.2923195"><ele>273.0</ele><time>2026-05-02T15:28:11.154Z</time></trkpt><trkpt lat="40.9820214" lon="9.2926218"><ele>273.0</ele><time>2026-05-02T15:28:12.153Z</time></trkpt><trkpt lat="40.9820327" lon="9.2929321"><ele>273.5</ele><time>2026-05-02T15:28:13.154Z</time></trkpt><trkpt lat="40.9820472" lon="9.2932435"><ele>274.0</ele><time>2026-05-02T15:28:14.154Z</time></trkpt><trkpt lat="40.9820645" lon="9.2935553"><ele>274.0</ele><time>2026-05-02T15:28:15.153Z</time></trkpt><trkpt lat="40.9820921" lon="9.2938687"><ele>274.0</ele><time>2026-05-02T15:28:16.154Z</time></trkpt><trkpt lat="40.9821306" lon="9.294186"><ele>275.5</ele><time>2026-05-02T15:28:17.153Z</time></trkpt><trkpt lat="40.9821748" lon="9.2945073"><ele>277.0</ele><time>2026-05-02T15:28:18.153Z</time></trkpt><trkpt lat="40.982223" lon="9.2948302"><ele>278.0</ele><time>2026-05-02T15:28:19.154Z</time></trkpt><trkpt lat="40.9822697" lon="9.2951487"><ele>279.0</ele><time>2026-05-02T15:28:20.154Z</time></trkpt><trkpt lat="40.9823138" lon="9.2954444"><ele>280.3333333333333</ele><time>2026-05-02T15:28:21.154Z</time></trkpt><trkpt lat="40.9823621" lon="9.2957174"><ele>281.66666666666663</ele><time>2026-05-02T15:28:22.154Z</time></trkpt><trkpt lat="40.9824222" lon="9.295968"><ele>283.0</ele><time>2026-05-02T15:28:23.153Z</time></trkpt><trkpt lat="40.9824875" lon="9.2962072"><ele>285.3333333333333</ele><time>2026-05-02T15:28:24.154Z</time></trkpt><trkpt lat="40.9825473" lon="9.2964331"><ele>287.6666666666667</ele><time>2026-05-02T15:28:25.154Z</time></trkpt><trkpt lat="40.9825874" lon="9.2966669"><ele>290.0</ele><time>2026-05-02T15:28:26.153Z</time></trkpt><trkpt lat="40.9826014" lon="9.2969164"><ele>290.0</ele><time>2026-05-02T15:28:27.154Z</time></trkpt><trkpt lat="40.9826046" lon="9.2971849"><ele>290.0</ele><time>2026-05-02T15:28:28.153Z</time></trkpt><trkpt lat="40.9826017" lon="9.2974646"><ele>290.0</ele><time>2026-05-02T15:28:29.154Z</time></trkpt><trkpt lat="40.9826108" lon="9.2977255"><ele>289.6666666666667</ele><time>2026-05-02T15:28:30.153Z</time></trkpt><trkpt lat="40.9826517" lon="9.2979876"><ele>289.3333333333333</ele><time>2026-05-02T15:28:31.153Z</time></trkpt><trkpt lat="40.9827285" lon="9.2982399"><ele>289.0</ele><time>2026-05-02T15:28:32.154Z</time></trkpt><trkpt lat="40.9828199" lon="9.2984991"><ele>289.0</ele><time>2026-05-02T15:28:33.153Z</time></trkpt><trkpt lat="40.9829171" lon="9.2987605"><ele>289.0</ele><time>2026-05-02T15:28:34.153Z</time></trkpt><trkpt lat="40.9830246" lon="9.2990127"><ele>289.0</ele><time>2026-05-02T15:28:35.154Z</time></trkpt><trkpt lat="40.9831574" lon="9.2992527"><ele>290.0</ele><time>2026-05-02T15:28:36.153Z</time></trkpt><trkpt lat="40.9833014" lon="9.299489"><ele>291.0</ele><time>2026-05-02T15:28:37.154Z</time></trkpt><trkpt lat="40.9834467" lon="9.2997241"><ele>293.3333333333333</ele><time>2026-05-02T15:28:38.153Z</time></trkpt><trkpt lat="40.9835888" lon="9.2999629"><ele>295.66666666666663</ele><time>2026-05-02T15:28:39.153Z</time></trkpt><trkpt lat="40.9837223" lon="9.3001876"><ele>298.0</ele><time>2026-05-02T15:28:40.154Z</time></trkpt><trkpt lat="40.9838395" lon="9.3003823"><ele>298.0</ele><time>2026-05-02T15:28:41.153Z</time></trkpt><trkpt lat="40.9839466" lon="9.3005307"><ele>298.0</ele><time>2026-05-02T15:28:42.153Z</time></trkpt><trkpt lat="40.9840554" lon="9.3005888"><ele>298.0</ele><time>2026-05-02T15:28:43.153Z</time></trkpt><trkpt lat="40.9841724" lon="9.3005802"><ele>298.0</ele><time>2026-05-02T15:28:44.154Z</time></trkpt><trkpt lat="40.9842935" lon="9.3005082"><ele>301.0</ele><time>2026-05-02T15:28:45.153Z</time></trkpt><trkpt lat="40.9844214" lon="9.3003978"><ele>304.0</ele><time>2026-05-02T15:28:46.153Z</time></trkpt><trkpt lat="40.9845278" lon="9.3003118"><ele>307.0</ele><time>2026-05-02T15:28:47.154Z</time></trkpt><trkpt lat="40.9846511" lon="9.3002594"><ele>310.0</ele><time>2026-05-02T15:28:48.153Z</time></trkpt><trkpt lat="40.9847818" lon="9.3002486"><ele>310.0</ele><time>2026-05-02T15:28:49.154Z</time></trkpt><trkpt lat="40.9849254" lon="9.3002742"><ele>310.0</ele><time>2026-05-02T15:28:50.153Z</time></trkpt><trkpt lat="40.9850662" lon="9.3003434"><ele>310.0</ele><time>2026-05-02T15:28:51.153Z</time></trkpt><trkpt lat="40.9851938" lon="9.3004424"><ele>310.0</ele><time>2026-05-02T15:28:52.153Z</time></trkpt><trkpt lat="40.9853109" lon="9.3005115"><ele>313.0</ele><time>2026-05-02T15:28:53.153Z</time></trkpt><trkpt lat="40.9854271" lon="9.3005247"><ele>316.0</ele><time>2026-05-02T15:28:54.153Z</time></trkpt><trkpt lat="40.9855332" lon="9.3004784"><ele>319.0</ele><time>2026-05-02T15:28:55.154Z</time></trkpt><trkpt lat="40.9856247" lon="9.3003778"><ele>322.0</ele><time>2026-05-02T15:28:56.153Z</time></trkpt><trkpt lat="40.9857093" lon="9.3002491"><ele>322.0</ele><time>2026-05-02T15:28:57.153Z</time></trkpt><trkpt lat="40.9857951" lon="9.3001422"><ele>322.0</ele><time>2026-05-02T15:28:58.154Z</time></trkpt><trkpt lat="40.9858971" lon="9.3000741"><ele>322.0</ele><time>2026-05-02T15:28:59.154Z</time></trkpt><trkpt lat="40.9860008" lon="9.3000638"><ele>322.0</ele><time>2026-05-02T15:29:00.153Z</time></trkpt><trkpt lat="40.9861034" lon="9.3001031"><ele>322.0</ele><time>2026-05-02T15:29:01.154Z</time></trkpt><trkpt lat="40.9862133" lon="9.3001773"><ele>325.75</ele><time>2026-05-02T15:29:02.153Z</time></trkpt><trkpt lat="40.986319" lon="9.3002559"><ele>329.5</ele><time>2026-05-02T15:29:03.154Z</time></trkpt><trkpt lat="40.9864217" lon="9.300323"><ele>333.25</ele><time>2026-05-02T15:29:04.153Z</time></trkpt><trkpt lat="40.9865277" lon="9.3004007"><ele>337.0</ele><time>2026-05-02T15:29:05.153Z</time></trkpt><trkpt lat="40.9866376" lon="9.3004984"><ele>340.66666666666663</ele><time>2026-05-02T15:29:06.153Z</time></trkpt><trkpt lat="40.9867481" lon="9.3006151"><ele>344.3333333333333</ele><time>2026-05-02T15:29:07.153Z</time></trkpt><trkpt lat="40.9868639" lon="9.3007451"><ele>348.0</ele><time>2026-05-02T15:29:08.154Z</time></trkpt><trkpt lat="40.9869885" lon="9.3008867"><ele>348.0</ele><time>2026-05-02T15:29:09.153Z</time></trkpt><trkpt lat="40.9871133" lon="9.3010342"><ele>348.0</ele><time>2026-05-02T15:29:10.154Z</time></trkpt><trkpt lat="40.9872373" lon="9.30118"><ele>348.0</ele><time>2026-05-02T15:29:11.154Z</time></trkpt><trkpt lat="40.9873616" lon="9.3013167"><ele>348.0</ele><time>2026-05-02T15:29:12.153Z</time></trkpt><trkpt lat="40.9874815" lon="9.3014419"><ele>348.0</ele><time>2026-05-02T15:29:13.153Z</time></trkpt><trkpt lat="40.987593" lon="9.3015509"><ele>348.0</ele><time>2026-05-02T15:29:14.153Z</time></trkpt><trkpt lat="40.9876963" lon="9.3016548"><ele>348.0</ele><time>2026-05-02T15:29:15.153Z</time></trkpt><trkpt lat="40.9877989" lon="9.3017456"><ele>348.59999999999997</ele><time>2026-05-02T15:29:16.153Z</time></trkpt><trkpt lat="40.9879068" lon="9.3018206"><ele>349.2</ele><time>2026-05-02T15:29:17.154Z</time></trkpt><trkpt lat="40.988011" lon="9.301873"><ele>349.8</ele><time>2026-05-02T15:29:18.153Z</time></trkpt><trkpt lat="40.9881103" lon="9.3019098"><ele>350.4</ele><time>2026-05-02T15:29:19.154Z</time></trkpt><trkpt lat="40.9882089" lon="9.3019314"><ele>351.0</ele><time>2026-05-02T15:29:20.154Z</time></trkpt><trkpt lat="40.9883061" lon="9.3019486"><ele>350.0</ele><time>2026-05-02T15:29:21.153Z</time></trkpt><trkpt lat="40.9884038" lon="9.3019627"><ele>349.0</ele><time>2026-05-02T15:29:22.153Z</time></trkpt><trkpt lat="40.9885089" lon="9.3019756"><ele>348.0</ele><time>2026-05-02T15:29:23.153Z</time></trkpt><trkpt lat="40.9886216" lon="9.3019843"><ele>347.0</ele><time>2026-05-02T15:29:24.154Z</time></trkpt><trkpt lat="40.9887418" lon="9.3019882"><ele>346.0</ele><time>2026-05-02T15:29:25.154Z</time></trkpt><trkpt lat="40.9888703" lon="9.301985"><ele>346.0</ele><time>2026-05-02T15:29:26.154Z</time></trkpt><trkpt lat="40.9890093" lon="9.3019756"><ele>346.0</ele><time>2026-05-02T15:29:27.154Z</time></trkpt><trkpt lat="40.9891549" lon="9.3019624"><ele>346.0</ele><time>2026-05-02T15:29:28.154Z</time></trkpt><trkpt lat="40.9892935" lon="9.3019489"><ele>346.0</ele><time>2026-05-02T15:29:29.153Z</time></trkpt><trkpt lat="40.9894301" lon="9.3019377"><ele>344.75</ele><time>2026-05-02T15:29:30.154Z</time></trkpt><trkpt lat="40.9895649" lon="9.301928"><ele>343.5</ele><time>2026-05-02T15:29:31.154Z</time></trkpt><trkpt lat="40.9896956" lon="9.3019204"><ele>342.25</ele><time>2026-05-02T15:29:32.154Z</time></trkpt><trkpt lat="40.9898233" lon="9.3019166"><ele>341.0</ele><time>2026-05-02T15:29:33.154Z</time></trkpt><trkpt lat="40.9899465" lon="9.3019124"><ele>339.5</ele><time>2026-05-02T15:29:34.154Z</time></trkpt><trkpt lat="40.99007" lon="9.3019051"><ele>338.0</ele><time>2026-05-02T15:29:35.154Z</time></trkpt><trkpt lat="40.9901921" lon="9.3018969"><ele>336.5</ele><time>2026-05-02T15:29:36.153Z</time></trkpt><trkpt lat="40.990313" lon="9.3018853"><ele>335.0</ele><time>2026-05-02T15:29:37.153Z</time></trkpt><trkpt lat="40.9904303" lon="9.3018748"><ele>335.0</ele><time>2026-05-02T15:29:38.154Z</time></trkpt><trkpt lat="40.9905462" lon="9.301868"><ele>335.0</ele><time>2026-05-02T15:29:39.153Z</time></trkpt><trkpt lat="40.9906621" lon="9.3018638"><ele>335.0</ele><time>2026-05-02T15:29:40.154Z</time></trkpt><trkpt lat="40.9907886" lon="9.3018548"><ele>335.0</ele><time>2026-05-02T15:29:41.154Z</time></trkpt><trkpt lat="40.9909171" lon="9.3018362"><ele>335.75</ele><time>2026-05-02T15:29:42.153Z</time></trkpt><trkpt lat="40.9910411" lon="9.30182"><ele>336.5</ele><time>2026-05-02T15:29:43.153Z</time></trkpt><trkpt lat="40.9911658" lon="9.3018112"><ele>337.25</ele><time>2026-05-02T15:29:44.154Z</time></trkpt><trkpt lat="40.9912868" lon="9.3018162"><ele>338.0</ele><time>2026-05-02T15:29:45.154Z</time></trkpt><trkpt lat="40.991394" lon="9.3018288"><ele>338.0</ele><time>2026-05-02T15:29:46.154Z</time></trkpt><trkpt lat="40.991498" lon="9.3018472"><ele>338.0</ele><time>2026-05-02T15:29:47.153Z</time></trkpt><trkpt lat="40.9915961" lon="9.3018683"><ele>338.0</ele><time>2026-05-02T15:29:48.153Z</time></trkpt><trkpt lat="40.9916929" lon="9.3018869"><ele>338.0</ele><time>2026-05-02T15:29:49.153Z</time></trkpt><trkpt lat="40.9917826" lon="9.3019022"><ele>338.0</ele><time>2026-05-02T15:29:50.154Z</time></trkpt><trkpt lat="40.9918686" lon="9.3019125"><ele>339.0</ele><time>2026-05-02T15:29:51.153Z</time></trkpt><trkpt lat="40.9919457" lon="9.3019236"><ele>340.0</ele><time>2026-05-02T15:29:52.153Z</time></trkpt><trkpt lat="40.9920549" lon="9.3019605"><ele>341.0</ele><time>2026-05-02T15:29:54.153Z</time></trkpt><trkpt lat="40.9921362" lon="9.302057"><ele>342.0</ele><time>2026-05-02T15:29:56.153Z</time></trkpt><trkpt lat="40.9921835" lon="9.3021278"><ele>343.0</ele><time>2026-05-02T15:29:57.154Z</time></trkpt><trkpt lat="40.9922413" lon="9.3022062"><ele>342.25</ele><time>2026-05-02T15:29:58.154Z</time></trkpt><trkpt lat="40.9923108" lon="9.302294"><ele>341.5</ele><time>2026-05-02T15:29:59.154Z</time></trkpt><trkpt lat="40.9923894" lon="9.3023914"><ele>340.75</ele><time>2026-05-02T15:30:00.154Z</time></trkpt><trkpt lat="40.9924756" lon="9.3025003"><ele>340.0</ele><time>2026-05-02T15:30:01.153Z</time></trkpt><trkpt lat="40.9925676" lon="9.3026214"><ele>340.0</ele><time>2026-05-02T15:30:02.154Z</time></trkpt><trkpt lat="40.9926626" lon="9.3027473"><ele>340.0</ele><time>2026-05-02T15:30:03.153Z</time></trkpt><trkpt lat="40.9927595" lon="9.3028767"><ele>340.0</ele><time>2026-05-02T15:30:04.153Z</time></trkpt><trkpt lat="40.9928543" lon="9.3030051"><ele>340.0</ele><time>2026-05-02T15:30:05.153Z</time></trkpt><trkpt lat="40.99295" lon="9.303135"><ele>339.25</ele><time>2026-05-02T15:30:06.154Z</time></trkpt><trkpt lat="40.993047" lon="9.3032673"><ele>338.5</ele><time>2026-05-02T15:30:07.153Z</time></trkpt><trkpt lat="40.9931445" lon="9.3034005"><ele>337.75</ele><time>2026-05-02T15:30:08.153Z</time></trkpt><trkpt lat="40.9932414" lon="9.3035379"><ele>337.0</ele><time>2026-05-02T15:30:09.153Z</time></trkpt><trkpt lat="40.9933425" lon="9.3036752"><ele>337.25</ele><time>2026-05-02T15:30:10.154Z</time></trkpt><trkpt lat="40.993447" lon="9.3038134"><ele>337.5</ele><time>2026-05-02T15:30:11.153Z</time></trkpt><trkpt lat="40.9935431" lon="9.3039477"><ele>337.75</ele><time>2026-05-02T15:30:12.154Z</time></trkpt><trkpt lat="40.9936359" lon="9.3040781"><ele>338.0</ele><time>2026-05-02T15:30:13.153Z</time></trkpt><trkpt lat="40.9937232" lon="9.3042056"><ele>338.0</ele><time>2026-05-02T15:30:14.153Z</time></trkpt><trkpt lat="40.9938095" lon="9.3043277"><ele>338.0</ele><time>2026-05-02T15:30:15.154Z</time></trkpt><trkpt lat="40.9938942" lon="9.3044412"><ele>338.0</ele><time>2026-05-02T15:30:16.154Z</time></trkpt><trkpt lat="40.9939872" lon="9.3045451"><ele>338.0</ele><time>2026-05-02T15:30:17.153Z</time></trkpt><trkpt lat="40.9940935" lon="9.3046349"><ele>337.25</ele><time>2026-05-02T15:30:18.154Z</time></trkpt><trkpt lat="40.9942136" lon="9.3047069"><ele>336.5</ele><time>2026-05-02T15:30:19.154Z</time></trkpt><trkpt lat="40.9943483" lon="9.3047638"><ele>335.75</ele><time>2026-05-02T15:30:20.153Z</time></trkpt><trkpt lat="40.9944889" lon="9.3048149"><ele>335.0</ele><time>2026-05-02T15:30:21.154Z</time></trkpt><trkpt lat="40.9946226" lon="9.3048669"><ele>332.75</ele><time>2026-05-02T15:30:22.153Z</time></trkpt><trkpt lat="40.9947547" lon="9.3049144"><ele>330.5</ele><time>2026-05-02T15:30:23.153Z</time></trkpt><trkpt lat="40.9948814" lon="9.3049616"><ele>328.25</ele><time>2026-05-02T15:30:24.153Z</time></trkpt><trkpt lat="40.9950146" lon="9.3050005"><ele>326.0</ele><time>2026-05-02T15:30:25.153Z</time></trkpt><trkpt lat="40.9951499" lon="9.3050263"><ele>324.75</ele><time>2026-05-02T15:30:26.154Z</time></trkpt><trkpt lat="40.9952813" lon="9.3050317"><ele>323.5</ele><time>2026-05-02T15:30:27.154Z</time></trkpt><trkpt lat="40.9954099" lon="9.3050274"><ele>322.25</ele><time>2026-05-02T15:30:28.153Z</time></trkpt><trkpt lat="40.9955369" lon="9.3050136"><ele>321.0</ele><time>2026-05-02T15:30:29.154Z</time></trkpt><trkpt lat="40.9956579" lon="9.3050004"><ele>321.0</ele><time>2026-05-02T15:30:30.153Z</time></trkpt><trkpt lat="40.9957723" lon="9.3049927"><ele>321.0</ele><time>2026-05-02T15:30:31.153Z</time></trkpt><trkpt lat="40.9958765" lon="9.3049989"><ele>321.0</ele><time>2026-05-02T15:30:32.154Z</time></trkpt><trkpt lat="40.9959631" lon="9.3050279"><ele>321.0</ele><time>2026-05-02T15:30:33.153Z</time></trkpt><trkpt lat="40.9960266" lon="9.3050676"><ele>321.0</ele><time>2026-05-02T15:30:34.153Z</time></trkpt><trkpt lat="40.9960921" lon="9.3051363"><ele>321.20000000000005</ele><time>2026-05-02T15:30:36.154Z</time></trkpt><trkpt lat="40.9961591" lon="9.3052699"><ele>321.40000000000003</ele><time>2026-05-02T15:30:38.154Z</time></trkpt><trkpt lat="40.9962025" lon="9.3053736"><ele>321.6</ele><time>2026-05-02T15:30:39.154Z</time></trkpt><trkpt lat="40.9962481" lon="9.3054935"><ele>321.8</ele><time>2026-05-02T15:30:40.154Z</time></trkpt><trkpt lat="40.9962966" lon="9.3056332"><ele>322.0</ele><time>2026-05-02T15:30:41.154Z</time></trkpt><trkpt lat="40.996354" lon="9.3057888"><ele>320.3333333333333</ele><time>2026-05-02T15:30:42.153Z</time></trkpt><trkpt lat="40.9964178" lon="9.3059565"><ele>318.6666666666667</ele><time>2026-05-02T15:30:43.153Z</time></trkpt><trkpt lat="40.9964844" lon="9.3061348"><ele>317.0</ele><time>2026-05-02T15:30:44.153Z</time></trkpt><trkpt lat="40.9965495" lon="9.3063254"><ele>318.33333333333337</ele><time>2026-05-02T15:30:45.154Z</time></trkpt><trkpt lat="40.9966104" lon="9.306533"><ele>319.6666666666667</ele><time>2026-05-02T15:30:46.154Z</time></trkpt><trkpt lat="40.996665" lon="9.3067513"><ele>321.0</ele><time>2026-05-02T15:30:47.154Z</time></trkpt><trkpt lat="40.9967214" lon="9.3069904"><ele>321.0</ele><time>2026-05-02T15:30:48.154Z</time></trkpt><trkpt lat="40.9967762" lon="9.3072301"><ele>321.0</ele><time>2026-05-02T15:30:49.153Z</time></trkpt><trkpt lat="40.9968282" lon="9.3074522"><ele>321.0</ele><time>2026-05-02T15:30:50.154Z</time></trkpt><trkpt lat="40.9968869" lon="9.3076485"><ele>319.3333333333333</ele><time>2026-05-02T15:30:51.153Z</time></trkpt><trkpt lat="40.9969735" lon="9.3078124"><ele>317.66666666666663</ele><time>2026-05-02T15:30:52.154Z</time></trkpt><trkpt lat="40.9970805" lon="9.3079515"><ele>316.0</ele><time>2026-05-02T15:30:53.154Z</time></trkpt><trkpt lat="40.9971961" lon="9.3080774"><ele>312.5</ele><time>2026-05-02T15:30:54.154Z</time></trkpt><trkpt lat="40.99729" lon="9.3082013"><ele>309.0</ele><time>2026-05-02T15:30:55.153Z</time></trkpt><trkpt lat="40.9973455" lon="9.3083438"><ele>305.5</ele><time>2026-05-02T15:30:56.153Z</time></trkpt><trkpt lat="40.9973586" lon="9.3084877"><ele>302.0</ele><time>2026-05-02T15:30:57.153Z</time></trkpt><trkpt lat="40.9973285" lon="9.3086296"><ele>302.0</ele><time>2026-05-02T15:30:58.153Z</time></trkpt><trkpt lat="40.9972626" lon="9.3087404"><ele>302.0</ele><time>2026-05-02T15:30:59.153Z</time></trkpt><trkpt lat="40.9971627" lon="9.3088059"><ele>302.0</ele><time>2026-05-02T15:31:00.153Z</time></trkpt><trkpt lat="40.9970455" lon="9.3088184"><ele>302.0</ele><time>2026-05-02T15:31:01.153Z</time></trkpt><trkpt lat="40.9969383" lon="9.3087671"><ele>302.0</ele><time>2026-05-02T15:31:02.154Z</time></trkpt><trkpt lat="40.9968545" lon="9.3086594"><ele>302.0</ele><time>2026-05-02T15:31:03.153Z</time></trkpt><trkpt lat="40.9967981" lon="9.3085105"><ele>302.0</ele><time>2026-05-02T15:31:04.153Z</time></trkpt><trkpt lat="40.9967497" lon="9.3083169"><ele>302.0</ele><time>2026-05-02T15:31:05.154Z</time></trkpt><trkpt lat="40.9966942" lon="9.3081045"><ele>302.0</ele><time>2026-05-02T15:31:06.154Z</time></trkpt><trkpt lat="40.9966438" lon="9.3079089"><ele>300.75</ele><time>2026-05-02T15:31:07.154Z</time></trkpt><trkpt lat="40.9965948" lon="9.307736"><ele>299.5</ele><time>2026-05-02T15:31:08.153Z</time></trkpt><trkpt lat="40.9965269" lon="9.3075919"><ele>298.25</ele><time>2026-05-02T15:31:09.153Z</time></trkpt><trkpt lat="40.9964306" lon="9.3074855"><ele>297.0</ele><time>2026-05-02T15:31:10.153Z</time></trkpt><trkpt lat="40.9963099" lon="9.3074392"><ele>297.0</ele><time>2026-05-02T15:31:11.153Z</time></trkpt><trkpt lat="40.996184" lon="9.3074586"><ele>297.0</ele><time>2026-05-02T15:31:12.153Z</time></trkpt><trkpt lat="40.9960814" lon="9.3075521"><ele>297.0</ele><time>2026-05-02T15:31:13.153Z</time></trkpt><trkpt lat="40.9959971" lon="9.3076823"><ele>297.0</ele><time>2026-05-02T15:31:14.153Z</time></trkpt><trkpt lat="40.9959053" lon="9.307829"><ele>294.75</ele><time>2026-05-02T15:31:15.153Z</time></trkpt><trkpt lat="40.9957869" lon="9.3079604"><ele>292.5</ele><time>2026-05-02T15:31:16.154Z</time></trkpt><trkpt lat="40.9956567" lon="9.3080577"><ele>290.25</ele><time>2026-05-02T15:31:17.153Z</time></trkpt><trkpt lat="40.99552" lon="9.3081166"><ele>288.0</ele><time>2026-05-02T15:31:18.153Z</time></trkpt><trkpt lat="40.9953765" lon="9.3081231"><ele>288.0</ele><time>2026-05-02T15:31:19.154Z</time></trkpt><trkpt lat="40.995231" lon="9.3080827"><ele>288.0</ele><time>2026-05-02T15:31:20.154Z</time></trkpt><trkpt lat="40.9950946" lon="9.3080272"><ele>288.0</ele><time>2026-05-02T15:31:21.153Z</time></trkpt><trkpt lat="40.9949486" lon="9.3080098"><ele>288.0</ele><time>2026-05-02T15:31:22.154Z</time></trkpt><trkpt lat="40.9947895" lon="9.3080491"><ele>279.6666666666667</ele><time>2026-05-02T15:31:23.154Z</time></trkpt><trkpt lat="40.9946167" lon="9.3081135"><ele>271.33333333333337</ele><time>2026-05-02T15:31:24.154Z</time></trkpt><trkpt lat="40.9944414" lon="9.3081866"><ele>263.0</ele><time>2026-05-02T15:31:25.153Z</time></trkpt><trkpt lat="40.9942804" lon="9.308257"><ele>264.0</ele><time>2026-05-02T15:31:26.153Z</time></trkpt><trkpt lat="40.9941395" lon="9.3083222"><ele>265.0</ele><time>2026-05-02T15:31:27.153Z</time></trkpt><trkpt lat="40.9940199" lon="9.3084022"><ele>266.0</ele><time>2026-05-02T15:31:28.154Z</time></trkpt><trkpt lat="40.9939291" lon="9.308526"><ele>267.0</ele><time>2026-05-02T15:31:29.153Z</time></trkpt><trkpt lat="40.9938791" lon="9.3086774"><ele>267.0</ele><time>2026-05-02T15:31:30.154Z</time></trkpt><trkpt lat="40.9938652" lon="9.3088496"><ele>267.0</ele><time>2026-05-02T15:31:31.153Z</time></trkpt><trkpt lat="40.9938772" lon="9.3090378"><ele>267.0</ele><time>2026-05-02T15:31:32.153Z</time></trkpt><trkpt lat="40.9938997" lon="9.3092467"><ele>267.0</ele><time>2026-05-02T15:31:33.154Z</time></trkpt><trkpt lat="40.9939223" lon="9.3094716"><ele>260.6666666666667</ele><time>2026-05-02T15:31:34.154Z</time></trkpt><trkpt lat="40.9939405" lon="9.3097068"><ele>254.33333333333334</ele><time>2026-05-02T15:31:35.153Z</time></trkpt><trkpt lat="40.9939555" lon="9.3099533"><ele>248.0</ele><time>2026-05-02T15:31:36.154Z</time></trkpt><trkpt lat="40.9939666" lon="9.3102097"><ele>246.33333333333334</ele><time>2026-05-02T15:31:37.153Z</time></trkpt><trkpt lat="40.9939732" lon="9.3104761"><ele>244.66666666666669</ele><time>2026-05-02T15:31:38.154Z</time></trkpt><trkpt lat="40.9939797" lon="9.3107505"><ele>243.0</ele><time>2026-05-02T15:31:39.154Z</time></trkpt><trkpt lat="40.9939865" lon="9.3110164"><ele>241.66666666666669</ele><time>2026-05-02T15:31:40.153Z</time></trkpt><trkpt lat="40.993996" lon="9.3112805"><ele>240.33333333333334</ele><time>2026-05-02T15:31:41.153Z</time></trkpt><trkpt lat="40.9940064" lon="9.3115382"><ele>239.0</ele><time>2026-05-02T15:31:42.154Z</time></trkpt><trkpt lat="40.9940162" lon="9.3117902"><ele>237.33333333333334</ele><time>2026-05-02T15:31:43.153Z</time></trkpt><trkpt lat="40.9940211" lon="9.3120352"><ele>235.66666666666669</ele><time>2026-05-02T15:31:44.154Z</time></trkpt><trkpt lat="40.9940286" lon="9.3122648"><ele>234.0</ele><time>2026-05-02T15:31:45.154Z</time></trkpt><trkpt lat="40.9940363" lon="9.312471"><ele>233.25</ele><time>2026-05-02T15:31:46.154Z</time></trkpt><trkpt lat="40.9940404" lon="9.3126496"><ele>232.5</ele><time>2026-05-02T15:31:47.154Z</time></trkpt><trkpt lat="40.9940343" lon="9.3128085"><ele>231.75</ele><time>2026-05-02T15:31:48.153Z</time></trkpt><trkpt lat="40.9940023" lon="9.3129489"><ele>231.0</ele><time>2026-05-02T15:31:49.154Z</time></trkpt><trkpt lat="40.9939365" lon="9.3130588"><ele>231.0</ele><time>2026-05-02T15:31:50.154Z</time></trkpt><trkpt lat="40.9938386" lon="9.3131265"><ele>231.0</ele><time>2026-05-02T15:31:51.153Z</time></trkpt><trkpt lat="40.9937266" lon="9.3131313"><ele>231.0</ele><time>2026-05-02T15:31:52.153Z</time></trkpt><trkpt lat="40.9936054" lon="9.3130793"><ele>231.0</ele><time>2026-05-02T15:31:53.153Z</time></trkpt><trkpt lat="40.9934761" lon="9.3129825"><ele>230.33333333333331</ele><time>2026-05-02T15:31:54.154Z</time></trkpt><trkpt lat="40.9933267" lon="9.3128595"><ele>229.66666666666666</ele><time>2026-05-02T15:31:55.154Z</time></trkpt><trkpt lat="40.9931726" lon="9.3127142"><ele>229.0</ele><time>2026-05-02T15:31:56.153Z</time></trkpt><trkpt lat="40.9930262" lon="9.3125426"><ele>229.0</ele><time>2026-05-02T15:31:57.153Z</time></trkpt><trkpt lat="40.9928897" lon="9.3123622"><ele>229.0</ele><time>2026-05-02T15:31:58.153Z</time></trkpt><trkpt lat="40.9927636" lon="9.3121784"><ele>229.0</ele><time>2026-05-02T15:31:59.154Z</time></trkpt><trkpt lat="40.9926373" lon="9.3120004"><ele>232.66666666666666</ele><time>2026-05-02T15:32:00.153Z</time></trkpt><trkpt lat="40.9925169" lon="9.3118271"><ele>236.33333333333331</ele><time>2026-05-02T15:32:01.154Z</time></trkpt><trkpt lat="40.9924241" lon="9.3116325"><ele>240.0</ele><time>2026-05-02T15:32:02.154Z</time></trkpt><trkpt lat="40.992352" lon="9.3114072"><ele>235.0</ele><time>2026-05-02T15:32:03.153Z</time></trkpt><trkpt lat="40.9922993" lon="9.3111622"><ele>230.0</ele><time>2026-05-02T15:32:04.153Z</time></trkpt><trkpt lat="40.9922539" lon="9.3109213"><ele>225.0</ele><time>2026-05-02T15:32:05.154Z</time></trkpt><trkpt lat="40.9922128" lon="9.3107027"><ele>227.0</ele><time>2026-05-02T15:32:06.153Z</time></trkpt><trkpt lat="40.9921719" lon="9.3105106"><ele>229.0</ele><time>2026-05-02T15:32:07.153Z</time></trkpt><trkpt lat="40.9921203" lon="9.31035"><ele>231.0</ele><time>2026-05-02T15:32:08.154Z</time></trkpt><trkpt lat="40.9920354" lon="9.3102302"><ele>233.0</ele><time>2026-05-02T15:32:09.154Z</time></trkpt><trkpt lat="40.9919282" lon="9.31017"><ele>233.0</ele><time>2026-05-02T15:32:10.154Z</time></trkpt><trkpt lat="40.991814" lon="9.3101739"><ele>233.0</ele><time>2026-05-02T15:32:11.153Z</time></trkpt><trkpt lat="40.9917101" lon="9.310236"><ele>233.0</ele><time>2026-05-02T15:32:12.153Z</time></trkpt><trkpt lat="40.9916374" lon="9.3103571"><ele>233.0</ele><time>2026-05-02T15:32:13.153Z</time></trkpt><trkpt lat="40.991598" lon="9.3105126"><ele>226.5</ele><time>2026-05-02T15:32:14.153Z</time></trkpt><trkpt lat="40.9915638" lon="9.310688"><ele>220.0</ele><time>2026-05-02T15:32:15.154Z</time></trkpt><trkpt lat="40.9915029" lon="9.3108625"><ele>213.5</ele><time>2026-05-02T15:32:16.153Z</time></trkpt><trkpt lat="40.9914209" lon="9.3110207"><ele>207.0</ele><time>2026-05-02T15:32:17.153Z</time></trkpt><trkpt lat="40.9913244" lon="9.3111511"><ele>207.0</ele><time>2026-05-02T15:32:18.154Z</time></trkpt><trkpt lat="40.9912469" lon="9.3113004"><ele>207.0</ele><time>2026-05-02T15:32:19.153Z</time></trkpt><trkpt lat="40.991212" lon="9.3114895"><ele>207.0</ele><time>2026-05-02T15:32:20.154Z</time></trkpt><trkpt lat="40.9912153" lon="9.3116876"><ele>207.0</ele><time>2026-05-02T15:32:21.153Z</time></trkpt><trkpt lat="40.9912417" lon="9.3118912"><ele>204.5</ele><time>2026-05-02T15:32:22.154Z</time></trkpt><trkpt lat="40.9912676" lon="9.3120862"><ele>202.0</ele><time>2026-05-02T15:32:23.154Z</time></trkpt><trkpt lat="40.9912817" lon="9.3122796"><ele>199.5</ele><time>2026-05-02T15:32:24.153Z</time></trkpt><trkpt lat="40.9912604" lon="9.3124679"><ele>197.0</ele><time>2026-05-02T15:32:25.154Z</time></trkpt><trkpt lat="40.9911989" lon="9.3126585"><ele>196.0</ele><time>2026-05-02T15:32:26.153Z</time></trkpt><trkpt lat="40.9911171" lon="9.3128463"><ele>195.0</ele><time>2026-05-02T15:32:27.154Z</time></trkpt><trkpt lat="40.991042" lon="9.3130541"><ele>194.0</ele><time>2026-05-02T15:32:28.153Z</time></trkpt><trkpt lat="40.9909797" lon="9.3132634"><ele>193.25</ele><time>2026-05-02T15:32:29.154Z</time></trkpt><trkpt lat="40.9909426" lon="9.3134649"><ele>192.5</ele><time>2026-05-02T15:32:30.153Z</time></trkpt><trkpt lat="40.9909225" lon="9.31366"><ele>191.75</ele><time>2026-05-02T15:32:31.153Z</time></trkpt><trkpt lat="40.9909046" lon="9.3138335"><ele>191.0</ele><time>2026-05-02T15:32:32.154Z</time></trkpt><trkpt lat="40.9908493" lon="9.3139853"><ele>189.0</ele><time>2026-05-02T15:32:33.153Z</time></trkpt><trkpt lat="40.9907623" lon="9.3140876"><ele>187.0</ele><time>2026-05-02T15:32:34.153Z</time></trkpt><trkpt lat="40.9906508" lon="9.3141392"><ele>185.0</ele><time>2026-05-02T15:32:35.153Z</time></trkpt><trkpt lat="40.9905164" lon="9.3141417"><ele>183.0</ele><time>2026-05-02T15:32:36.154Z</time></trkpt><trkpt lat="40.9903671" lon="9.3141249"><ele>183.0</ele><time>2026-05-02T15:32:37.153Z</time></trkpt><trkpt lat="40.9901881" lon="9.3141156"><ele>183.0</ele><time>2026-05-02T15:32:38.154Z</time></trkpt><trkpt lat="40.9899885" lon="9.3141089"><ele>183.0</ele><time>2026-05-02T15:32:39.153Z</time></trkpt><trkpt lat="40.9898125" lon="9.3141026"><ele>182.0</ele><time>2026-05-02T15:32:40.153Z</time></trkpt><trkpt lat="40.9896575" lon="9.3141022"><ele>181.0</ele><time>2026-05-02T15:32:41.153Z</time></trkpt><trkpt lat="40.9895204" lon="9.31412"><ele>180.0</ele><time>2026-05-02T15:32:42.153Z</time></trkpt><trkpt lat="40.9893995" lon="9.3141847"><ele>179.0</ele><time>2026-05-02T15:32:43.154Z</time></trkpt><trkpt lat="40.989305" lon="9.3142962"><ele>179.0</ele><time>2026-05-02T15:32:44.153Z</time></trkpt><trkpt lat="40.9892492" lon="9.314449"><ele>179.0</ele><time>2026-05-02T15:32:45.153Z</time></trkpt><trkpt lat="40.9892337" lon="9.3146198"><ele>179.0</ele><time>2026-05-02T15:32:46.154Z</time></trkpt><trkpt lat="40.9892704" lon="9.3147864"><ele>179.0</ele><time>2026-05-02T15:32:47.154Z</time></trkpt><trkpt lat="40.9893528" lon="9.3149303"><ele>177.33333333333331</ele><time>2026-05-02T15:32:48.154Z</time></trkpt><trkpt lat="40.9894754" lon="9.3150555"><ele>175.66666666666666</ele><time>2026-05-02T15:32:49.153Z</time></trkpt><trkpt lat="40.98963" lon="9.3151899"><ele>174.0</ele><time>2026-05-02T15:32:50.153Z</time></trkpt><trkpt lat="40.9897949" lon="9.3153265"><ele>174.0</ele><time>2026-05-02T15:32:51.154Z</time></trkpt><trkpt lat="40.9899528" lon="9.3154418"><ele>174.0</ele><time>2026-05-02T15:32:52.154Z</time></trkpt><trkpt lat="40.9901324" lon="9.3155224"><ele>174.0</ele><time>2026-05-02T15:32:53.153Z</time></trkpt><trkpt lat="40.9903248" lon="9.3155786"><ele>174.0</ele><time>2026-05-02T15:32:54.153Z</time></trkpt><trkpt lat="40.9905342" lon="9.3156271"><ele>174.0</ele><time>2026-05-02T15:32:55.154Z</time></trkpt><trkpt lat="40.9907449" lon="9.3156789"><ele>174.0</ele><time>2026-05-02T15:32:56.153Z</time></trkpt><trkpt lat="40.9909493" lon="9.3157316"><ele>174.0</ele><time>2026-05-02T15:32:57.154Z</time></trkpt><trkpt lat="40.9911422" lon="9.3157798"><ele>174.0</ele><time>2026-05-02T15:32:58.153Z</time></trkpt><trkpt lat="40.9913258" lon="9.3158259"><ele>174.0</ele><time>2026-05-02T15:32:59.153Z</time></trkpt><trkpt lat="40.9915006" lon="9.315872"><ele>174.0</ele><time>2026-05-02T15:33:00.153Z</time></trkpt><trkpt lat="40.9916642" lon="9.315915"><ele>174.0</ele><time>2026-05-02T15:33:01.153Z</time></trkpt><trkpt lat="40.9918277" lon="9.3159578"><ele>174.0</ele><time>2026-05-02T15:33:02.153Z</time></trkpt><trkpt lat="40.992002" lon="9.3159981"><ele>174.0</ele><time>2026-05-02T15:33:03.153Z</time></trkpt><trkpt lat="40.9921854" lon="9.3160419"><ele>174.0</ele><time>2026-05-02T15:33:04.154Z</time></trkpt><trkpt lat="40.9923808" lon="9.3160881"><ele>174.0</ele><time>2026-05-02T15:33:05.153Z</time></trkpt><trkpt lat="40.9925873" lon="9.3161406"><ele>174.0</ele><time>2026-05-02T15:33:06.153Z</time></trkpt><trkpt lat="40.9927764" lon="9.3161953"><ele>174.0</ele><time>2026-05-02T15:33:07.154Z</time></trkpt><trkpt lat="40.9929458" lon="9.316273"><ele>174.0</ele><time>2026-05-02T15:33:08.153Z</time></trkpt><trkpt lat="40.993098" lon="9.3163883"><ele>173.0</ele><time>2026-05-02T15:33:09.154Z</time></trkpt><trkpt lat="40.9932429" lon="9.3165343"><ele>172.0</ele><time>2026-05-02T15:33:10.154Z</time></trkpt><trkpt lat="40.9933861" lon="9.3167028"><ele>171.0</ele><time>2026-05-02T15:33:11.153Z</time></trkpt><trkpt lat="40.9935075" lon="9.3168639"><ele>171.0</ele><time>2026-05-02T15:33:12.153Z</time></trkpt><trkpt lat="40.9936018" lon="9.3170367"><ele>171.0</ele><time>2026-05-02T15:33:13.153Z</time></trkpt><trkpt lat="40.9936576" lon="9.3172311"><ele>171.0</ele><time>2026-05-02T15:33:14.154Z</time></trkpt><trkpt lat="40.9936776" lon="9.3174425"><ele>173.33333333333334</ele><time>2026-05-02T15:33:15.154Z</time></trkpt><trkpt lat="40.9936836" lon="9.3176706"><ele>175.66666666666669</ele><time>2026-05-02T15:33:16.153Z</time></trkpt><trkpt lat="40.9936796" lon="9.3179218"><ele>178.0</ele><time>2026-05-02T15:33:17.153Z</time></trkpt><trkpt lat="40.9936821" lon="9.318138"><ele>179.75</ele><time>2026-05-02T15:33:18.154Z</time></trkpt><trkpt lat="40.9937062" lon="9.3183313"><ele>181.5</ele><time>2026-05-02T15:33:19.153Z</time></trkpt><trkpt lat="40.993773" lon="9.3184981"><ele>183.25</ele><time>2026-05-02T15:33:20.154Z</time></trkpt><trkpt lat="40.9938791" lon="9.3186228"><ele>185.0</ele><time>2026-05-02T15:33:21.154Z</time></trkpt><trkpt lat="40.9939825" lon="9.3187473"><ele>183.66666666666666</ele><time>2026-05-02T15:33:22.154Z</time></trkpt><trkpt lat="40.9941806" lon="9.3187675"><ele>182.33333333333334</ele><time>2026-05-02T15:33:23.154Z</time></trkpt><trkpt lat="40.9943607" lon="9.3188278"><ele>181.0</ele><time>2026-05-02T15:33:24.154Z</time></trkpt><trkpt lat="40.9945482" lon="9.3188966"><ele>184.33333333333334</ele><time>2026-05-02T15:33:25.153Z</time></trkpt><trkpt lat="40.9947363" lon="9.3189798"><ele>187.66666666666666</ele><time>2026-05-02T15:33:26.154Z</time></trkpt><trkpt lat="40.9949252" lon="9.3190783"><ele>191.0</ele><time>2026-05-02T15:33:27.153Z</time></trkpt><trkpt lat="40.995119" lon="9.3191862"><ele>191.0</ele><time>2026-05-02T15:33:28.154Z</time></trkpt><trkpt lat="40.9953172" lon="9.3192956"><ele>191.0</ele><time>2026-05-02T15:33:29.154Z</time></trkpt><trkpt lat="40.9955149" lon="9.3194037"><ele>191.0</ele><time>2026-05-02T15:33:30.154Z</time></trkpt><trkpt lat="40.9957022" lon="9.3195081"><ele>191.66666666666666</ele><time>2026-05-02T15:33:31.153Z</time></trkpt><trkpt lat="40.9958645" lon="9.3195957"><ele>192.33333333333331</ele><time>2026-05-02T15:33:32.154Z</time></trkpt><trkpt lat="40.9959988" lon="9.3196934"><ele>193.0</ele><time>2026-05-02T15:33:33.153Z</time></trkpt><trkpt lat="40.9961083" lon="9.3198213"><ele>193.0</ele><time>2026-05-02T15:33:34.153Z</time></trkpt><trkpt lat="40.9961912" lon="9.319982"><ele>193.0</ele><time>2026-05-02T15:33:35.154Z</time></trkpt><trkpt lat="40.9962603" lon="9.320166"><ele>193.0</ele><time>2026-05-02T15:33:36.153Z</time></trkpt><trkpt lat="40.9963354" lon="9.3203617"><ele>193.0</ele><time>2026-05-02T15:33:37.154Z</time></trkpt><trkpt lat="40.9964202" lon="9.3205585"><ele>193.0</ele><time>2026-05-02T15:33:38.154Z</time></trkpt><trkpt lat="40.9965257" lon="9.3207456"><ele>193.0</ele><time>2026-05-02T15:33:39.154Z</time></trkpt><trkpt lat="40.9966586" lon="9.320912"><ele>194.0</ele><time>2026-05-02T15:33:40.154Z</time></trkpt><trkpt lat="40.9968204" lon="9.3210651"><ele>195.0</ele><time>2026-05-02T15:33:41.153Z</time></trkpt><trkpt lat="40.9970074" lon="9.3212163"><ele>196.0</ele><time>2026-05-02T15:33:42.154Z</time></trkpt><trkpt lat="40.9972107" lon="9.3213743"><ele>199.0</ele><time>2026-05-02T15:33:43.154Z</time></trkpt><trkpt lat="40.9974155" lon="9.3215425"><ele>202.0</ele><time>2026-05-02T15:33:44.153Z</time></trkpt><trkpt lat="40.997614" lon="9.3217014"><ele>202.0</ele><time>2026-05-02T15:33:45.154Z</time></trkpt><trkpt lat="40.9978062" lon="9.3218568"><ele>202.0</ele><time>2026-05-02T15:33:46.154Z</time></trkpt><trkpt lat="40.9979985" lon="9.3220102"><ele>202.0</ele><time>2026-05-02T15:33:47.154Z</time></trkpt><trkpt lat="40.998191" lon="9.322158"><ele>202.0</ele><time>2026-05-02T15:33:48.153Z</time></trkpt><trkpt lat="40.9983866" lon="9.3222996"><ele>202.0</ele><time>2026-05-02T15:33:49.153Z</time></trkpt><trkpt lat="40.9985835" lon="9.3224395"><ele>204.0</ele><time>2026-05-02T15:33:50.153Z</time></trkpt><trkpt lat="40.9987769" lon="9.3225735"><ele>206.0</ele><time>2026-05-02T15:33:51.153Z</time></trkpt><trkpt lat="40.9989713" lon="9.3227053"><ele>208.0</ele><time>2026-05-02T15:33:52.154Z</time></trkpt><trkpt lat="40.9991645" lon="9.3228356"><ele>210.0</ele><time>2026-05-02T15:33:53.153Z</time></trkpt><trkpt lat="40.9993566" lon="9.3229685"><ele>212.0</ele><time>2026-05-02T15:33:54.154Z</time></trkpt><trkpt lat="40.9995485" lon="9.3230998"><ele>214.0</ele><time>2026-05-02T15:33:55.153Z</time></trkpt><trkpt lat="40.9997419" lon="9.3232332"><ele>214.0</ele><time>2026-05-02T15:33:56.153Z</time></trkpt><trkpt lat="40.9999316" lon="9.3233639"><ele>214.0</ele><time>2026-05-02T15:33:57.153Z</time></trkpt><trkpt lat="41.0001233" lon="9.3234933"><ele>214.0</ele><time>2026-05-02T15:33:58.154Z</time></trkpt><trkpt lat="41.0003155" lon="9.3236215"><ele>214.0</ele><time>2026-05-02T15:33:59.153Z</time></trkpt><trkpt lat="41.000501" lon="9.323749"><ele>214.0</ele><time>2026-05-02T15:34:00.154Z</time></trkpt><trkpt lat="41.0006765" lon="9.3238686"><ele>214.0</ele><time>2026-05-02T15:34:01.153Z</time></trkpt><trkpt lat="41.0008429" lon="9.3239835"><ele>216.66666666666666</ele><time>2026-05-02T15:34:02.153Z</time></trkpt><trkpt lat="41.0009959" lon="9.3241046"><ele>219.33333333333331</ele><time>2026-05-02T15:34:03.153Z</time></trkpt><trkpt lat="41.0011284" lon="9.3242515"><ele>222.0</ele><time>2026-05-02T15:34:04.154Z</time></trkpt><trkpt lat="41.0012432" lon="9.3244258"><ele>222.0</ele><time>2026-05-02T15:34:05.154Z</time></trkpt><trkpt lat="41.0013444" lon="9.3246164"><ele>222.0</ele><time>2026-05-02T15:34:06.153Z</time></trkpt><trkpt lat="41.0014434" lon="9.3248203"><ele>222.0</ele><time>2026-05-02T15:34:07.154Z</time></trkpt><trkpt lat="41.0015537" lon="9.3250098"><ele>222.66666666666669</ele><time>2026-05-02T15:34:08.154Z</time></trkpt><trkpt lat="41.0016896" lon="9.3251627"><ele>223.33333333333334</ele><time>2026-05-02T15:34:09.154Z</time></trkpt><trkpt lat="41.0018501" lon="9.3253026"><ele>224.0</ele><time>2026-05-02T15:34:10.153Z</time></trkpt><trkpt lat="41.0020267" lon="9.3254373"><ele>225.0</ele><time>2026-05-02T15:34:11.154Z</time></trkpt><trkpt lat="41.0022121" lon="9.3255749"><ele>226.0</ele><time>2026-05-02T15:34:12.154Z</time></trkpt><trkpt lat="41.0023982" lon="9.3257186"><ele>227.0</ele><time>2026-05-02T15:34:13.154Z</time></trkpt><trkpt lat="41.0025946" lon="9.3258658"><ele>227.0</ele><time>2026-05-02T15:34:14.154Z</time></trkpt><trkpt lat="41.0027848" lon="9.3260143"><ele>227.0</ele><time>2026-05-02T15:34:15.153Z</time></trkpt><trkpt lat="41.0029575" lon="9.3261521"><ele>227.0</ele><time>2026-05-02T15:34:16.154Z</time></trkpt><trkpt lat="41.0031117" lon="9.3262739"><ele>227.0</ele><time>2026-05-02T15:34:17.154Z</time></trkpt><trkpt lat="41.0032531" lon="9.3263888"><ele>227.0</ele><time>2026-05-02T15:34:18.153Z</time></trkpt><trkpt lat="41.0033659" lon="9.3265248"><ele>227.0</ele><time>2026-05-02T15:34:19.154Z</time></trkpt><trkpt lat="41.0034334" lon="9.3266844"><ele>228.75</ele><time>2026-05-02T15:34:20.153Z</time></trkpt><trkpt lat="41.0034551" lon="9.3268521"><ele>230.5</ele><time>2026-05-02T15:34:21.153Z</time></trkpt><trkpt lat="41.0034394" lon="9.3270267"><ele>232.25</ele><time>2026-05-02T15:34:22.154Z</time></trkpt><trkpt lat="41.0033859" lon="9.3272187"><ele>234.0</ele><time>2026-05-02T15:34:23.154Z</time></trkpt><trkpt lat="41.0033333" lon="9.327435"><ele>244.33333333333331</ele><time>2026-05-02T15:34:24.154Z</time></trkpt><trkpt lat="41.0032698" lon="9.3276767"><ele>254.66666666666666</ele><time>2026-05-02T15:34:25.154Z</time></trkpt><trkpt lat="41.0031952" lon="9.3279289"><ele>265.0</ele><time>2026-05-02T15:34:26.153Z</time></trkpt><trkpt lat="41.0030931" lon="9.3281735"><ele>265.5</ele><time>2026-05-02T15:34:27.153Z</time></trkpt><trkpt lat="41.0029592" lon="9.3284252"><ele>266.0</ele><time>2026-05-02T15:34:28.153Z</time></trkpt><trkpt lat="41.0028141" lon="9.328679"><ele>261.33333333333337</ele><time>2026-05-02T15:34:29.154Z</time></trkpt><trkpt lat="41.0026854" lon="9.3289045"><ele>256.6666666666667</ele><time>2026-05-02T15:34:30.154Z</time></trkpt><trkpt lat="41.002571" lon="9.3291025"><ele>252.0</ele><time>2026-05-02T15:34:31.154Z</time></trkpt><trkpt lat="41.0024749" lon="9.3292761"><ele>253.5</ele><time>2026-05-02T15:34:32.154Z</time></trkpt><trkpt lat="41.0024227" lon="9.3294324"><ele>255.0</ele><time>2026-05-02T15:34:33.153Z</time></trkpt><trkpt lat="41.0024006" lon="9.3295684"><ele>256.5</ele><time>2026-05-02T15:34:34.154Z</time></trkpt><trkpt lat="41.0024863" lon="9.3297288"><ele>258.0</ele><time>2026-05-02T15:34:35.153Z</time></trkpt><trkpt lat="41.0025845" lon="9.32983"><ele>258.0</ele><time>2026-05-02T15:34:36.153Z</time></trkpt><trkpt lat="41.002722" lon="9.3298863"><ele>258.0</ele><time>2026-05-02T15:34:37.154Z</time></trkpt><trkpt lat="41.0028874" lon="9.3298978"><ele>258.0</ele><time>2026-05-02T15:34:38.153Z</time></trkpt><trkpt lat="41.0030789" lon="9.3298988"><ele>258.0</ele><time>2026-05-02T15:34:39.154Z</time></trkpt><trkpt lat="41.0032819" lon="9.3299063"><ele>258.0</ele><time>2026-05-02T15:34:40.154Z</time></trkpt><trkpt lat="41.0034738" lon="9.3298768"><ele>258.0</ele><time>2026-05-02T15:34:41.154Z</time></trkpt><trkpt lat="41.0036596" lon="9.3297827"><ele>252.33333333333331</ele><time>2026-05-02T15:34:42.153Z</time></trkpt><trkpt lat="41.0038507" lon="9.3296527"><ele>246.66666666666666</ele><time>2026-05-02T15:34:43.154Z</time></trkpt><trkpt lat="41.0040418" lon="9.32952"><ele>241.0</ele><time>2026-05-02T15:34:44.153Z</time></trkpt><trkpt lat="41.0042141" lon="9.3294272"><ele>241.0</ele><time>2026-05-02T15:34:45.153Z</time></trkpt><trkpt lat="41.0043842" lon="9.3293872"><ele>241.0</ele><time>2026-05-02T15:34:46.154Z</time></trkpt><trkpt lat="41.004562" lon="9.32939"><ele>241.0</ele><time>2026-05-02T15:34:47.153Z</time></trkpt><trkpt lat="41.0047201" lon="9.3294301"><ele>241.0</ele><time>2026-05-02T15:34:48.154Z</time></trkpt><trkpt lat="41.0048469" lon="9.3295145"><ele>241.0</ele><time>2026-05-02T15:34:49.153Z</time></trkpt><trkpt lat="41.0049613" lon="9.3296523"><ele>241.0</ele><time>2026-05-02T15:34:50.153Z</time></trkpt><trkpt lat="41.0050819" lon="9.3298345"><ele>252.5</ele><time>2026-05-02T15:34:51.153Z</time></trkpt><trkpt lat="41.0052259" lon="9.3300423"><ele>264.0</ele><time>2026-05-02T15:34:52.154Z</time></trkpt><trkpt lat="41.0053956" lon="9.3302703"><ele>264.0</ele><time>2026-05-02T15:34:53.154Z</time></trkpt><trkpt lat="41.0055372" lon="9.3304715"><ele>264.0</ele><time>2026-05-02T15:34:54.154Z</time></trkpt><trkpt lat="41.0056569" lon="9.3306432"><ele>264.0</ele><time>2026-05-02T15:34:55.153Z</time></trkpt><trkpt lat="41.0057347" lon="9.3308062"><ele>268.0</ele><time>2026-05-02T15:34:56.154Z</time></trkpt><trkpt lat="41.0057628" lon="9.330962"><ele>272.0</ele><time>2026-05-02T15:34:57.153Z</time></trkpt><trkpt lat="41.0057439" lon="9.3311128"><ele>276.0</ele><time>2026-05-02T15:34:58.154Z</time></trkpt><trkpt lat="41.0056793" lon="9.3312512"><ele>280.0</ele><time>2026-05-02T15:34:59.154Z</time></trkpt><trkpt lat="41.0055745" lon="9.331361"><ele>278.3333333333333</ele><time>2026-05-02T15:35:00.154Z</time></trkpt><trkpt lat="41.0054351" lon="9.3314661"><ele>276.6666666666667</ele><time>2026-05-02T15:35:01.154Z</time></trkpt><trkpt lat="41.0052799" lon="9.3316022"><ele>275.0</ele><time>2026-05-02T15:35:02.154Z</time></trkpt><trkpt lat="41.0051347" lon="9.3317721"><ele>275.0</ele><time>2026-05-02T15:35:03.154Z</time></trkpt><trkpt lat="41.0050217" lon="9.3319243"><ele>275.0</ele><time>2026-05-02T15:35:04.154Z</time></trkpt><trkpt lat="41.0049548" lon="9.3320739"><ele>275.0</ele><time>2026-05-02T15:35:05.153Z</time></trkpt><trkpt lat="41.0049368" lon="9.3322363"><ele>275.0</ele><time>2026-05-02T15:35:06.153Z</time></trkpt><trkpt lat="41.0049586" lon="9.3323966"><ele>274.0</ele><time>2026-05-02T15:35:07.154Z</time></trkpt><trkpt lat="41.0050381" lon="9.3325234"><ele>273.0</ele><time>2026-05-02T15:35:08.153Z</time></trkpt><trkpt lat="41.0051617" lon="9.3326022"><ele>272.0</ele><time>2026-05-02T15:35:09.153Z</time></trkpt><trkpt lat="41.0053231" lon="9.3326574"><ele>271.0</ele><time>2026-05-02T15:35:10.154Z</time></trkpt><trkpt lat="41.0055284" lon="9.3327143"><ele>271.0</ele><time>2026-05-02T15:35:11.154Z</time></trkpt><trkpt lat="41.0057729" lon="9.3327789"><ele>271.0</ele><time>2026-05-02T15:35:12.154Z</time></trkpt><trkpt lat="41.0059803" lon="9.3328365"><ele>268.0</ele><time>2026-05-02T15:35:13.154Z</time></trkpt><trkpt lat="41.0061586" lon="9.3328921"><ele>265.0</ele><time>2026-05-02T15:35:14.153Z</time></trkpt><trkpt lat="41.0063009" lon="9.3329787"><ele>262.0</ele><time>2026-05-02T15:35:15.153Z</time></trkpt><trkpt lat="41.0064114" lon="9.3331032"><ele>265.0</ele><time>2026-05-02T15:35:16.153Z</time></trkpt><trkpt lat="41.0064942" lon="9.333262"><ele>268.0</ele><time>2026-05-02T15:35:17.154Z</time></trkpt><trkpt lat="41.0065781" lon="9.3334123"><ele>271.0</ele><time>2026-05-02T15:35:18.154Z</time></trkpt><trkpt lat="41.0066992" lon="9.3335123"><ele>274.0</ele><time>2026-05-02T15:35:19.154Z</time></trkpt><trkpt lat="41.0068423" lon="9.3335616"><ele>274.0</ele><time>2026-05-02T15:35:20.153Z</time></trkpt><trkpt lat="41.0069989" lon="9.3335585"><ele>274.0</ele><time>2026-05-02T15:35:21.153Z</time></trkpt><trkpt lat="41.0071619" lon="9.333556"><ele>274.0</ele><time>2026-05-02T15:35:22.154Z</time></trkpt><trkpt lat="41.0073254" lon="9.333611"><ele>274.0</ele><time>2026-05-02T15:35:23.153Z</time></trkpt><trkpt lat="41.0075056" lon="9.3337133"><ele>274.0</ele><time>2026-05-02T15:35:24.154Z</time></trkpt><trkpt lat="41.0077106" lon="9.3338474"><ele>274.0</ele><time>2026-05-02T15:35:25.154Z</time></trkpt><trkpt lat="41.0079354" lon="9.3340111"><ele>278.66666666666663</ele><time>2026-05-02T15:35:26.153Z</time></trkpt><trkpt lat="41.0081281" lon="9.3341701"><ele>283.3333333333333</ele><time>2026-05-02T15:35:27.154Z</time></trkpt><trkpt lat="41.0083089" lon="9.3343254"><ele>288.0</ele><time>2026-05-02T15:35:28.154Z</time></trkpt><trkpt lat="41.0084723" lon="9.3344838"><ele>289.3333333333333</ele><time>2026-05-02T15:35:29.154Z</time></trkpt><trkpt lat="41.0086188" lon="9.3346614"><ele>290.66666666666663</ele><time>2026-05-02T15:35:30.153Z</time></trkpt><trkpt lat="41.0087603" lon="9.3348695"><ele>292.0</ele><time>2026-05-02T15:35:31.153Z</time></trkpt><trkpt lat="41.0089012" lon="9.3350966"><ele>294.5</ele><time>2026-05-02T15:35:32.153Z</time></trkpt><trkpt lat="41.009054" lon="9.3353444"><ele>297.0</ele><time>2026-05-02T15:35:33.154Z</time></trkpt><trkpt lat="41.0092041" lon="9.3355918"><ele>297.3333333333333</ele><time>2026-05-02T15:35:34.154Z</time></trkpt><trkpt lat="41.0093373" lon="9.3358141"><ele>297.66666666666663</ele><time>2026-05-02T15:35:35.154Z</time></trkpt><trkpt lat="41.0094396" lon="9.3360311"><ele>298.0</ele><time>2026-05-02T15:35:36.154Z</time></trkpt><trkpt lat="41.0095058" lon="9.3362697"><ele>297.0</ele><time>2026-05-02T15:35:37.154Z</time></trkpt><trkpt lat="41.0095466" lon="9.3365221"><ele>296.0</ele><time>2026-05-02T15:35:38.153Z</time></trkpt><trkpt lat="41.0095583" lon="9.3367966"><ele>295.0</ele><time>2026-05-02T15:35:39.153Z</time></trkpt><trkpt lat="41.009566" lon="9.3371013"><ele>293.66666666666663</ele><time>2026-05-02T15:35:40.154Z</time></trkpt><trkpt lat="41.0095729" lon="9.3373827"><ele>292.3333333333333</ele><time>2026-05-02T15:35:41.153Z</time></trkpt><trkpt lat="41.0095889" lon="9.337626"><ele>291.0</ele><time>2026-05-02T15:35:42.154Z</time></trkpt><trkpt lat="41.0096364" lon="9.337826"><ele>291.0</ele><time>2026-05-02T15:35:43.153Z</time></trkpt><trkpt lat="41.0097292" lon="9.3379896"><ele>291.0</ele><time>2026-05-02T15:35:44.153Z</time></trkpt><trkpt lat="41.0098643" lon="9.3381264"><ele>291.0</ele><time>2026-05-02T15:35:45.153Z</time></trkpt><trkpt lat="41.0100403" lon="9.3382611"><ele>286.0</ele><time>2026-05-02T15:35:46.154Z</time></trkpt><trkpt lat="41.0102438" lon="9.33841"><ele>281.0</ele><time>2026-05-02T15:35:47.153Z</time></trkpt><trkpt lat="41.0104392" lon="9.3385525"><ele>281.0</ele><time>2026-05-02T15:35:48.154Z</time></trkpt><trkpt lat="41.0106288" lon="9.3386897"><ele>281.0</ele><time>2026-05-02T15:35:49.153Z</time></trkpt><trkpt lat="41.0108064" lon="9.3388255"><ele>281.0</ele><time>2026-05-02T15:35:50.154Z</time></trkpt><trkpt lat="41.0109621" lon="9.3389812"><ele>278.0</ele><time>2026-05-02T15:35:51.154Z</time></trkpt><trkpt lat="41.0110939" lon="9.3391762"><ele>275.0</ele><time>2026-05-02T15:35:52.154Z</time></trkpt><trkpt lat="41.0112038" lon="9.3394065"><ele>272.0</ele><time>2026-05-02T15:35:53.154Z</time></trkpt><trkpt lat="41.0113053" lon="9.3396669"><ele>270.0</ele><time>2026-05-02T15:35:54.154Z</time></trkpt><trkpt lat="41.0113965" lon="9.339907"><ele>268.0</ele><time>2026-05-02T15:35:55.154Z</time></trkpt><trkpt lat="41.0114773" lon="9.3401079"><ele>266.0</ele><time>2026-05-02T15:35:56.153Z</time></trkpt><trkpt lat="41.0115743" lon="9.3402656"><ele>266.6666666666667</ele><time>2026-05-02T15:35:57.153Z</time></trkpt><trkpt lat="41.0116962" lon="9.3403709"><ele>267.3333333333333</ele><time>2026-05-02T15:35:58.153Z</time></trkpt><trkpt lat="41.0118425" lon="9.3404134"><ele>268.0</ele><time>2026-05-02T15:35:59.153Z</time></trkpt><trkpt lat="41.012022" lon="9.3404135"><ele>268.0</ele><time>2026-05-02T15:36:00.154Z</time></trkpt><trkpt lat="41.0122345" lon="9.3403907"><ele>268.0</ele><time>2026-05-02T15:36:01.153Z</time></trkpt><trkpt lat="41.0124349" lon="9.3403761"><ele>268.0</ele><time>2026-05-02T15:36:02.154Z</time></trkpt><trkpt lat="41.0126227" lon="9.3403663"><ele>267.25</ele><time>2026-05-02T15:36:03.154Z</time></trkpt><trkpt lat="41.012792" lon="9.3403546"><ele>266.5</ele><time>2026-05-02T15:36:04.153Z</time></trkpt><trkpt lat="41.0129348" lon="9.3403729"><ele>265.75</ele><time>2026-05-02T15:36:05.153Z</time></trkpt><trkpt lat="41.0130479" lon="9.3404477"><ele>265.0</ele><time>2026-05-02T15:36:06.154Z</time></trkpt><trkpt lat="41.0131244" lon="9.3405578"><ele>262.25</ele><time>2026-05-02T15:36:07.153Z</time></trkpt><trkpt lat="41.0131618" lon="9.3406938"><ele>259.5</ele><time>2026-05-02T15:36:08.154Z</time></trkpt><trkpt lat="41.0131478" lon="9.3408413"><ele>256.75</ele><time>2026-05-02T15:36:09.153Z</time></trkpt><trkpt lat="41.0130889" lon="9.3409837"><ele>254.0</ele><time>2026-05-02T15:36:10.154Z</time></trkpt><trkpt lat="41.0129897" lon="9.3410926"><ele>254.0</ele><time>2026-05-02T15:36:11.154Z</time></trkpt><trkpt lat="41.012856" lon="9.3411566"><ele>254.0</ele><time>2026-05-02T15:36:12.154Z</time></trkpt><trkpt lat="41.0126837" lon="9.3412035"><ele>254.0</ele><time>2026-05-02T15:36:13.154Z</time></trkpt><trkpt lat="41.0124745" lon="9.3412505"><ele>256.0</ele><time>2026-05-02T15:36:14.154Z</time></trkpt><trkpt lat="41.0122344" lon="9.3413049"><ele>258.0</ele><time>2026-05-02T15:36:15.154Z</time></trkpt><trkpt lat="41.0120079" lon="9.3413612"><ele>250.5</ele><time>2026-05-02T15:36:16.154Z</time></trkpt><trkpt lat="41.0117732" lon="9.3414091"><ele>243.0</ele><time>2026-05-02T15:36:17.153Z</time></trkpt><trkpt lat="41.0115481" lon="9.3414546"><ele>243.0</ele><time>2026-05-02T15:36:18.154Z</time></trkpt><trkpt lat="41.011347" lon="9.3415004"><ele>243.0</ele><time>2026-05-02T15:36:19.153Z</time></trkpt><trkpt lat="41.0111741" lon="9.3415457"><ele>243.0</ele><time>2026-05-02T15:36:20.153Z</time></trkpt><trkpt lat="41.011027" lon="9.3416114"><ele>243.0</ele><time>2026-05-02T15:36:21.154Z</time></trkpt><trkpt lat="41.0109106" lon="9.3417123"><ele>243.0</ele><time>2026-05-02T15:36:22.154Z</time></trkpt><trkpt lat="41.010832" lon="9.341864"><ele>243.0</ele><time>2026-05-02T15:36:23.153Z</time></trkpt><trkpt lat="41.0107846" lon="9.3420689"><ele>243.0</ele><time>2026-05-02T15:36:24.153Z</time></trkpt><trkpt lat="41.010748" lon="9.3423275"><ele>240.0</ele><time>2026-05-02T15:36:25.153Z</time></trkpt><trkpt lat="41.0107069" lon="9.3426369"><ele>237.0</ele><time>2026-05-02T15:36:26.153Z</time></trkpt><trkpt lat="41.0106602" lon="9.342974"><ele>232.0</ele><time>2026-05-02T15:36:27.154Z</time></trkpt><trkpt lat="41.0106159" lon="9.3432911"><ele>227.0</ele><time>2026-05-02T15:36:28.154Z</time></trkpt><trkpt lat="41.0105714" lon="9.3436188"><ele>224.5</ele><time>2026-05-02T15:36:29.153Z</time></trkpt><trkpt lat="41.0105273" lon="9.3439311"><ele>222.0</ele><time>2026-05-02T15:36:30.154Z</time></trkpt><trkpt lat="41.0104912" lon="9.3442328"><ele>222.0</ele><time>2026-05-02T15:36:31.153Z</time></trkpt><trkpt lat="41.0104693" lon="9.3445257"><ele>222.0</ele><time>2026-05-02T15:36:32.153Z</time></trkpt><trkpt lat="41.0104653" lon="9.3448125"><ele>222.0</ele><time>2026-05-02T15:36:33.153Z</time></trkpt><trkpt lat="41.0104754" lon="9.3451053"><ele>220.0</ele><time>2026-05-02T15:36:34.153Z</time></trkpt><trkpt lat="41.0104919" lon="9.3453845"><ele>218.0</ele><time>2026-05-02T15:36:35.154Z</time></trkpt><trkpt lat="41.0105064" lon="9.3456494"><ele>216.0</ele><time>2026-05-02T15:36:36.153Z</time></trkpt><trkpt lat="41.0105194" lon="9.3459049"><ele>214.0</ele><time>2026-05-02T15:36:37.153Z</time></trkpt><trkpt lat="41.0105335" lon="9.3461503"><ele>212.0</ele><time>2026-05-02T15:36:38.154Z</time></trkpt><trkpt lat="41.0105589" lon="9.3463916"><ele>210.0</ele><time>2026-05-02T15:36:39.154Z</time></trkpt><trkpt lat="41.0106017" lon="9.3466321"><ele>208.33333333333331</ele><time>2026-05-02T15:36:40.153Z</time></trkpt><trkpt lat="41.0106692" lon="9.3468629"><ele>206.66666666666666</ele><time>2026-05-02T15:36:41.154Z</time></trkpt><trkpt lat="41.0107657" lon="9.3470777"><ele>205.0</ele><time>2026-05-02T15:36:42.154Z</time></trkpt><trkpt lat="41.010891" lon="9.3472731"><ele>203.0</ele><time>2026-05-02T15:36:43.153Z</time></trkpt><trkpt lat="41.0110371" lon="9.3474493"><ele>201.0</ele><time>2026-05-02T15:36:44.153Z</time></trkpt><trkpt lat="41.011198" lon="9.3476098"><ele>199.0</ele><time>2026-05-02T15:36:45.153Z</time></trkpt><trkpt lat="41.0113676" lon="9.3477644"><ele>199.0</ele><time>2026-05-02T15:36:46.154Z</time></trkpt><trkpt lat="41.0115311" lon="9.347931"><ele>199.0</ele><time>2026-05-02T15:36:47.154Z</time></trkpt><trkpt lat="41.0116745" lon="9.3481224"><ele>199.0</ele><time>2026-05-02T15:36:48.153Z</time></trkpt><trkpt lat="41.0117963" lon="9.3483415"><ele>197.33333333333331</ele><time>2026-05-02T15:36:49.154Z</time></trkpt><trkpt lat="41.0119087" lon="9.3485729"><ele>195.66666666666669</ele><time>2026-05-02T15:36:50.153Z</time></trkpt><trkpt lat="41.0120026" lon="9.3488107"><ele>194.0</ele><time>2026-05-02T15:36:51.153Z</time></trkpt><trkpt lat="41.0120753" lon="9.3490658"><ele>193.33333333333334</ele><time>2026-05-02T15:36:52.154Z</time></trkpt><trkpt lat="41.0121276" lon="9.3493324"><ele>192.66666666666669</ele><time>2026-05-02T15:36:53.154Z</time></trkpt><trkpt lat="41.0121669" lon="9.3496121"><ele>192.0</ele><time>2026-05-02T15:36:54.153Z</time></trkpt><trkpt lat="41.0122021" lon="9.3498985"><ele>190.0</ele><time>2026-05-02T15:36:55.153Z</time></trkpt><trkpt lat="41.0122335" lon="9.3501721"><ele>188.0</ele><time>2026-05-02T15:36:56.154Z</time></trkpt><trkpt lat="41.0122661" lon="9.3504267"><ele>186.0</ele><time>2026-05-02T15:36:57.154Z</time></trkpt><trkpt lat="41.0123098" lon="9.3506729"><ele>185.33333333333334</ele><time>2026-05-02T15:36:58.153Z</time></trkpt><trkpt lat="41.0123739" lon="9.3509163"><ele>184.66666666666669</ele><time>2026-05-02T15:36:59.154Z</time></trkpt><trkpt lat="41.0124534" lon="9.3511542"><ele>184.0</ele><time>2026-05-02T15:37:00.153Z</time></trkpt><trkpt lat="41.0125593" lon="9.351376"><ele>181.66666666666669</ele><time>2026-05-02T15:37:01.153Z</time></trkpt><trkpt lat="41.0126813" lon="9.3515747"><ele>179.33333333333334</ele><time>2026-05-02T15:37:02.153Z</time></trkpt><trkpt lat="41.0128091" lon="9.3517473"><ele>177.0</ele><time>2026-05-02T15:37:03.153Z</time></trkpt><trkpt lat="41.0129392" lon="9.3519065"><ele>177.0</ele><time>2026-05-02T15:37:04.154Z</time></trkpt><trkpt lat="41.0130698" lon="9.3520592"><ele>177.0</ele><time>2026-05-02T15:37:05.154Z</time></trkpt><trkpt lat="41.0131981" lon="9.3522096"><ele>177.0</ele><time>2026-05-02T15:37:06.153Z</time></trkpt><trkpt lat="41.0133254" lon="9.3523591"><ele>172.66666666666666</ele><time>2026-05-02T15:37:07.154Z</time></trkpt><trkpt lat="41.0134486" lon="9.3525094"><ele>168.33333333333331</ele><time>2026-05-02T15:37:08.154Z</time></trkpt><trkpt lat="41.0135659" lon="9.3526588"><ele>164.0</ele><time>2026-05-02T15:37:09.153Z</time></trkpt><trkpt lat="41.0136849" lon="9.3528004"><ele>164.0</ele><time>2026-05-02T15:37:10.153Z</time></trkpt><trkpt lat="41.0138046" lon="9.352922"><ele>164.0</ele><time>2026-05-02T15:37:11.153Z</time></trkpt><trkpt lat="41.0139324" lon="9.3529948"><ele>164.0</ele><time>2026-05-02T15:37:12.154Z</time></trkpt><trkpt lat="41.0140644" lon="9.3530071"><ele>164.0</ele><time>2026-05-02T15:37:13.153Z</time></trkpt><trkpt lat="41.014201" lon="9.3529702"><ele>163.0</ele><time>2026-05-02T15:37:14.153Z</time></trkpt><trkpt lat="41.0143474" lon="9.3529088"><ele>162.0</ele><time>2026-05-02T15:37:15.153Z</time></trkpt><trkpt lat="41.0145082" lon="9.3528238"><ele>161.0</ele><time>2026-05-02T15:37:16.154Z</time></trkpt><trkpt lat="41.0146864" lon="9.3527375"><ele>161.0</ele><time>2026-05-02T15:37:17.154Z</time></trkpt><trkpt lat="41.0148752" lon="9.3526465"><ele>161.0</ele><time>2026-05-02T15:37:18.153Z</time></trkpt><trkpt lat="41.0150568" lon="9.3525617"><ele>161.0</ele><time>2026-05-02T15:37:19.153Z</time></trkpt><trkpt lat="41.0152415" lon="9.3524732"><ele>161.66666666666666</ele><time>2026-05-02T15:37:20.153Z</time></trkpt><trkpt lat="41.0154289" lon="9.3523853"><ele>162.33333333333334</ele><time>2026-05-02T15:37:21.154Z</time></trkpt><trkpt lat="41.0156179" lon="9.352294"><ele>163.0</ele><time>2026-05-02T15:37:22.154Z</time></trkpt><trkpt lat="41.0158104" lon="9.3522059"><ele>163.0</ele><time>2026-05-02T15:37:23.154Z</time></trkpt><trkpt lat="41.016003" lon="9.3521177"><ele>163.0</ele><time>2026-05-02T15:37:24.154Z</time></trkpt><trkpt lat="41.0161918" lon="9.3520286"><ele>163.0</ele><time>2026-05-02T15:37:25.154Z</time></trkpt><trkpt lat="41.0163919" lon="9.351929"><ele>163.0</ele><time>2026-05-02T15:37:26.153Z</time></trkpt><trkpt lat="41.0165969" lon="9.3518257"><ele>163.0</ele><time>2026-05-02T15:37:27.153Z</time></trkpt><trkpt lat="41.0167954" lon="9.3517287"><ele>163.0</ele><time>2026-05-02T15:37:28.154Z</time></trkpt><trkpt lat="41.016985" lon="9.3516626"><ele>163.33333333333334</ele><time>2026-05-02T15:37:29.153Z</time></trkpt><trkpt lat="41.0171681" lon="9.3516514"><ele>163.66666666666666</ele><time>2026-05-02T15:37:30.154Z</time></trkpt><trkpt lat="41.0173515" lon="9.3516931"><ele>164.0</ele><time>2026-05-02T15:37:31.153Z</time></trkpt><trkpt lat="41.0175307" lon="9.3517811"><ele>165.0</ele><time>2026-05-02T15:37:32.154Z</time></trkpt><trkpt lat="41.0177074" lon="9.3519006"><ele>166.0</ele><time>2026-05-02T15:37:33.153Z</time></trkpt><trkpt lat="41.0178591" lon="9.3520475"><ele>167.0</ele><time>2026-05-02T15:37:34.154Z</time></trkpt><trkpt lat="41.0179967" lon="9.3522275"><ele>169.0</ele><time>2026-05-02T15:37:35.153Z</time></trkpt><trkpt lat="41.0181245" lon="9.3524259"><ele>171.0</ele><time>2026-05-02T15:37:36.154Z</time></trkpt><trkpt lat="41.0182562" lon="9.3526229"><ele>173.0</ele><time>2026-05-02T15:37:37.153Z</time></trkpt><trkpt lat="41.0183996" lon="9.3528178"><ele>173.0</ele><time>2026-05-02T15:37:38.153Z</time></trkpt><trkpt lat="41.0185544" lon="9.3530087"><ele>173.0</ele><time>2026-05-02T15:37:39.153Z</time></trkpt><trkpt lat="41.0187188" lon="9.3531956"><ele>173.0</ele><time>2026-05-02T15:37:40.153Z</time></trkpt><trkpt lat="41.0188847" lon="9.3533828"><ele>173.0</ele><time>2026-05-02T15:37:41.154Z</time></trkpt><trkpt lat="41.0190535" lon="9.3535742"><ele>173.0</ele><time>2026-05-02T15:37:42.154Z</time></trkpt><trkpt lat="41.0192248" lon="9.3537697"><ele>173.0</ele><time>2026-05-02T15:37:43.153Z</time></trkpt><trkpt lat="41.0193934" lon="9.3539659"><ele>172.5</ele><time>2026-05-02T15:37:44.154Z</time></trkpt><trkpt lat="41.0195637" lon="9.3541638"><ele>172.0</ele><time>2026-05-02T15:37:45.153Z</time></trkpt><trkpt lat="41.0197385" lon="9.3543585"><ele>172.0</ele><time>2026-05-02T15:37:46.153Z</time></trkpt><trkpt lat="41.0199109" lon="9.3545543"><ele>172.0</ele><time>2026-05-02T15:37:47.154Z</time></trkpt><trkpt lat="41.0200792" lon="9.3547541"><ele>173.0</ele><time>2026-05-02T15:37:48.154Z</time></trkpt><trkpt lat="41.0202303" lon="9.3549662"><ele>174.0</ele><time>2026-05-02T15:37:49.153Z</time></trkpt><trkpt lat="41.0203703" lon="9.3551934"><ele>175.0</ele><time>2026-05-02T15:37:50.154Z</time></trkpt><trkpt lat="41.0204994" lon="9.3554329"><ele>177.0</ele><time>2026-05-02T15:37:51.153Z</time></trkpt><trkpt lat="41.0206238" lon="9.3556837"><ele>179.0</ele><time>2026-05-02T15:37:52.154Z</time></trkpt><trkpt lat="41.0207482" lon="9.3559373"><ele>182.5</ele><time>2026-05-02T15:37:53.153Z</time></trkpt><trkpt lat="41.0208749" lon="9.3561963"><ele>186.0</ele><time>2026-05-02T15:37:54.154Z</time></trkpt><trkpt lat="41.0210035" lon="9.3564607"><ele>187.5</ele><time>2026-05-02T15:37:55.154Z</time></trkpt><trkpt lat="41.021136" lon="9.3567261"><ele>189.0</ele><time>2026-05-02T15:37:56.154Z</time></trkpt><trkpt lat="41.0212673" lon="9.3569931"><ele>192.0</ele><time>2026-05-02T15:37:57.153Z</time></trkpt><trkpt lat="41.0214001" lon="9.3572622"><ele>195.0</ele><time>2026-05-02T15:37:58.154Z</time></trkpt><trkpt lat="41.0215351" lon="9.3575334"><ele>195.0</ele><time>2026-05-02T15:37:59.154Z</time></trkpt><trkpt lat="41.0216684" lon="9.3577988"><ele>195.0</ele><time>2026-05-02T15:38:00.153Z</time></trkpt><trkpt lat="41.0218079" lon="9.3580563"><ele>196.0</ele><time>2026-05-02T15:38:01.154Z</time></trkpt><trkpt lat="41.021955" lon="9.3583062"><ele>197.0</ele><time>2026-05-02T15:38:02.154Z</time></trkpt><trkpt lat="41.0221009" lon="9.3585407"><ele>197.0</ele><time>2026-05-02T15:38:03.154Z</time></trkpt><trkpt lat="41.0222412" lon="9.3587647"><ele>197.0</ele><time>2026-05-02T15:38:04.154Z</time></trkpt><trkpt lat="41.0223739" lon="9.3589832"><ele>197.0</ele><time>2026-05-02T15:38:05.153Z</time></trkpt><trkpt lat="41.0225046" lon="9.3591958"><ele>199.0</ele><time>2026-05-02T15:38:06.153Z</time></trkpt><trkpt lat="41.0226371" lon="9.3593985"><ele>201.0</ele><time>2026-05-02T15:38:07.154Z</time></trkpt><trkpt lat="41.0227871" lon="9.3595784"><ele>203.0</ele><time>2026-05-02T15:38:08.154Z</time></trkpt><trkpt lat="41.0229596" lon="9.3597465"><ele>203.0</ele><time>2026-05-02T15:38:09.154Z</time></trkpt><trkpt lat="41.0231441" lon="9.3598995"><ele>203.0</ele><time>2026-05-02T15:38:10.153Z</time></trkpt><trkpt lat="41.0233373" lon="9.36005"><ele>203.0</ele><time>2026-05-02T15:38:11.154Z</time></trkpt><trkpt lat="41.0235313" lon="9.3602022"><ele>202.33333333333334</ele><time>2026-05-02T15:38:12.153Z</time></trkpt><trkpt lat="41.0237199" lon="9.3603507"><ele>201.66666666666669</ele><time>2026-05-02T15:38:13.153Z</time></trkpt><trkpt lat="41.0239059" lon="9.3605063"><ele>201.0</ele><time>2026-05-02T15:38:14.153Z</time></trkpt><trkpt lat="41.0240795" lon="9.3606797"><ele>199.66666666666669</ele><time>2026-05-02T15:38:15.154Z</time></trkpt><trkpt lat="41.024242" lon="9.3608756"><ele>198.33333333333334</ele><time>2026-05-02T15:38:16.153Z</time></trkpt><trkpt lat="41.0243984" lon="9.3610903"><ele>197.0</ele><time>2026-05-02T15:38:17.154Z</time></trkpt><trkpt lat="41.024556" lon="9.3613169"><ele>195.5</ele><time>2026-05-02T15:38:18.154Z</time></trkpt><trkpt lat="41.0247177" lon="9.3615513"><ele>194.0</ele><time>2026-05-02T15:38:19.154Z</time></trkpt><trkpt lat="41.0248831" lon="9.3617919"><ele>192.0</ele><time>2026-05-02T15:38:20.153Z</time></trkpt><trkpt lat="41.0250531" lon="9.3620379"><ele>190.0</ele><time>2026-05-02T15:38:21.153Z</time></trkpt><trkpt lat="41.0252269" lon="9.3622904"><ele>190.0</ele><time>2026-05-02T15:38:22.154Z</time></trkpt><trkpt lat="41.0254031" lon="9.3625493"><ele>190.0</ele><time>2026-05-02T15:38:23.153Z</time></trkpt><trkpt lat="41.0255816" lon="9.3628099"><ele>188.0</ele><time>2026-05-02T15:38:24.154Z</time></trkpt><trkpt lat="41.0257634" lon="9.3630732"><ele>186.0</ele><time>2026-05-02T15:38:25.153Z</time></trkpt><trkpt lat="41.0259456" lon="9.3633384"><ele>184.5</ele><time>2026-05-02T15:38:26.154Z</time></trkpt><trkpt lat="41.0261288" lon="9.363606"><ele>183.0</ele><time>2026-05-02T15:38:27.153Z</time></trkpt><trkpt lat="41.0263121" lon="9.3638716"><ele>182.0</ele><time>2026-05-02T15:38:28.153Z</time></trkpt><trkpt lat="41.0264879" lon="9.3641255"><ele>181.0</ele><time>2026-05-02T15:38:29.154Z</time></trkpt><trkpt lat="41.0266585" lon="9.3643697"><ele>180.5</ele><time>2026-05-02T15:38:30.154Z</time></trkpt><trkpt lat="41.0268212" lon="9.3646039"><ele>180.0</ele><time>2026-05-02T15:38:31.154Z</time></trkpt><trkpt lat="41.0269738" lon="9.3648254"><ele>180.0</ele><time>2026-05-02T15:38:32.153Z</time></trkpt><trkpt lat="41.0271169" lon="9.3650467"><ele>180.0</ele><time>2026-05-02T15:38:33.154Z</time></trkpt><trkpt lat="41.027241" lon="9.3652774"><ele>180.0</ele><time>2026-05-02T15:38:34.153Z</time></trkpt><trkpt lat="41.0273564" lon="9.3655244"><ele>178.33333333333334</ele><time>2026-05-02T15:38:35.154Z</time></trkpt><trkpt lat="41.0274587" lon="9.3657832"><ele>176.66666666666669</ele><time>2026-05-02T15:38:36.153Z</time></trkpt><trkpt lat="41.0275508" lon="9.3660522"><ele>175.0</ele><time>2026-05-02T15:38:37.154Z</time></trkpt><trkpt lat="41.0276402" lon="9.366327"><ele>173.0</ele><time>2026-05-02T15:38:38.153Z</time></trkpt><trkpt lat="41.0277295" lon="9.3666057"><ele>171.0</ele><time>2026-05-02T15:38:39.153Z</time></trkpt><trkpt lat="41.0278173" lon="9.3668881"><ele>171.0</ele><time>2026-05-02T15:38:40.154Z</time></trkpt><trkpt lat="41.0279063" lon="9.3671734"><ele>171.0</ele><time>2026-05-02T15:38:41.153Z</time></trkpt><trkpt lat="41.0279939" lon="9.367453"><ele>172.33333333333334</ele><time>2026-05-02T15:38:42.154Z</time></trkpt><trkpt lat="41.0280799" lon="9.3677258"><ele>173.66666666666669</ele><time>2026-05-02T15:38:43.153Z</time></trkpt><trkpt lat="41.0281624" lon="9.3679983"><ele>175.0</ele><time>2026-05-02T15:38:44.153Z</time></trkpt><trkpt lat="41.0282455" lon="9.3682671"><ele>173.66666666666669</ele><time>2026-05-02T15:38:45.153Z</time></trkpt><trkpt lat="41.0283246" lon="9.3685231"><ele>172.33333333333334</ele><time>2026-05-02T15:38:46.154Z</time></trkpt><trkpt lat="41.0284089" lon="9.3687603"><ele>171.0</ele><time>2026-05-02T15:38:47.153Z</time></trkpt><trkpt lat="41.028519" lon="9.368955"><ele>171.0</ele><time>2026-05-02T15:38:48.154Z</time></trkpt><trkpt lat="41.0286589" lon="9.3691128"><ele>171.0</ele><time>2026-05-02T15:38:49.154Z</time></trkpt><trkpt lat="41.0288203" lon="9.3692436"><ele>171.0</ele><time>2026-05-02T15:38:50.153Z</time></trkpt><trkpt lat="41.0289985" lon="9.3693634"><ele>172.33333333333334</ele><time>2026-05-02T15:38:51.153Z</time></trkpt><trkpt lat="41.0291758" lon="9.3694829"><ele>173.66666666666669</ele><time>2026-05-02T15:38:52.154Z</time></trkpt><trkpt lat="41.0293458" lon="9.3696104"><ele>175.0</ele><time>2026-05-02T15:38:53.153Z</time></trkpt><trkpt lat="41.0294908" lon="9.3697577"><ele>177.0</ele><time>2026-05-02T15:38:54.154Z</time></trkpt><trkpt lat="41.029607" lon="9.3699367"><ele>179.0</ele><time>2026-05-02T15:38:55.154Z</time></trkpt><trkpt lat="41.0296945" lon="9.3701496"><ele>181.0</ele><time>2026-05-02T15:38:56.153Z</time></trkpt><trkpt lat="41.0297572" lon="9.3703961"><ele>182.0</ele><time>2026-05-02T15:38:57.153Z</time></trkpt><trkpt lat="41.0298121" lon="9.3706651"><ele>183.0</ele><time>2026-05-02T15:38:58.154Z</time></trkpt><trkpt lat="41.0298667" lon="9.370948"><ele>184.0</ele><time>2026-05-02T15:38:59.154Z</time></trkpt><trkpt lat="41.0299185" lon="9.3712308"><ele>183.66666666666669</ele><time>2026-05-02T15:39:00.153Z</time></trkpt><trkpt lat="41.0299718" lon="9.3715173"><ele>183.33333333333334</ele><time>2026-05-02T15:39:01.153Z</time></trkpt><trkpt lat="41.0300228" lon="9.3717954"><ele>183.0</ele><time>2026-05-02T15:39:02.154Z</time></trkpt><trkpt lat="41.0300752" lon="9.3720492"><ele>181.0</ele><time>2026-05-02T15:39:03.153Z</time></trkpt><trkpt lat="41.0301471" lon="9.3722825"><ele>179.0</ele><time>2026-05-02T15:39:04.154Z</time></trkpt><trkpt lat="41.0302574" lon="9.3724827"><ele>177.0</ele><time>2026-05-02T15:39:05.154Z</time></trkpt><trkpt lat="41.0304046" lon="9.3726547"><ele>177.0</ele><time>2026-05-02T15:39:06.153Z</time></trkpt><trkpt lat="41.0305728" lon="9.3728186"><ele>177.0</ele><time>2026-05-02T15:39:07.154Z</time></trkpt><trkpt lat="41.0307479" lon="9.3729827"><ele>177.0</ele><time>2026-05-02T15:39:08.154Z</time></trkpt><trkpt lat="41.0309206" lon="9.3731509"><ele>175.0</ele><time>2026-05-02T15:39:09.154Z</time></trkpt><trkpt lat="41.0310935" lon="9.3733215"><ele>173.0</ele><time>2026-05-02T15:39:10.153Z</time></trkpt><trkpt lat="41.0312609" lon="9.3734845"><ele>171.0</ele><time>2026-05-02T15:39:11.154Z</time></trkpt><trkpt lat="41.0314237" lon="9.373627"><ele>171.0</ele><time>2026-05-02T15:39:12.153Z</time></trkpt><trkpt lat="41.0315941" lon="9.3737401"><ele>171.0</ele><time>2026-05-02T15:39:13.154Z</time></trkpt><trkpt lat="41.0317746" lon="9.3738254"><ele>171.0</ele><time>2026-05-02T15:39:14.154Z</time></trkpt><trkpt lat="41.0319678" lon="9.3738819"><ele>170.66666666666666</ele><time>2026-05-02T15:39:15.154Z</time></trkpt><trkpt lat="41.0321546" lon="9.373921"><ele>170.33333333333331</ele><time>2026-05-02T15:39:16.154Z</time></trkpt><trkpt lat="41.0323219" lon="9.3739569"><ele>170.0</ele><time>2026-05-02T15:39:17.154Z</time></trkpt><trkpt lat="41.0324741" lon="9.3739913"><ele>171.25</ele><time>2026-05-02T15:39:18.154Z</time></trkpt><trkpt lat="41.0326139" lon="9.3740234"><ele>172.5</ele><time>2026-05-02T15:39:19.153Z</time></trkpt><trkpt lat="41.0327537" lon="9.3740353"><ele>173.75</ele><time>2026-05-02T15:39:20.154Z</time></trkpt><trkpt lat="41.0328879" lon="9.3740267"><ele>175.0</ele><time>2026-05-02T15:39:21.153Z</time></trkpt><trkpt lat="41.0330221" lon="9.3739963"><ele>175.0</ele><time>2026-05-02T15:39:22.154Z</time></trkpt><trkpt lat="41.0331572" lon="9.3739619"><ele>175.0</ele><time>2026-05-02T15:39:23.154Z</time></trkpt><trkpt lat="41.0332951" lon="9.3739226"><ele>175.0</ele><time>2026-05-02T15:39:24.154Z</time></trkpt><trkpt lat="41.0334372" lon="9.3738794"><ele>175.0</ele><time>2026-05-02T15:39:25.154Z</time></trkpt><trkpt lat="41.0335822" lon="9.3738363"><ele>173.5</ele><time>2026-05-02T15:39:26.154Z</time></trkpt><trkpt lat="41.0337291" lon="9.3737933"><ele>172.0</ele><time>2026-05-02T15:39:27.153Z</time></trkpt><trkpt lat="41.0338741" lon="9.3737509"><ele>170.5</ele><time>2026-05-02T15:39:28.154Z</time></trkpt><trkpt lat="41.0340161" lon="9.3737114"><ele>169.0</ele><time>2026-05-02T15:39:29.154Z</time></trkpt><trkpt lat="41.0341584" lon="9.3736849"><ele>167.0</ele><time>2026-05-02T15:39:30.153Z</time></trkpt><trkpt lat="41.0343017" lon="9.3736855"><ele>165.0</ele><time>2026-05-02T15:39:31.153Z</time></trkpt><trkpt lat="41.0344455" lon="9.3737124"><ele>163.0</ele><time>2026-05-02T15:39:32.154Z</time></trkpt><trkpt lat="41.0345892" lon="9.373748"><ele>161.0</ele><time>2026-05-02T15:39:33.153Z</time></trkpt><trkpt lat="41.0347318" lon="9.3737927"><ele>161.0</ele><time>2026-05-02T15:39:34.153Z</time></trkpt><trkpt lat="41.0348798" lon="9.3738419"><ele>161.0</ele><time>2026-05-02T15:39:35.153Z</time></trkpt><trkpt lat="41.0350279" lon="9.3738892"><ele>161.0</ele><time>2026-05-02T15:39:36.154Z</time></trkpt><trkpt lat="41.0351703" lon="9.3739419"><ele>160.0</ele><time>2026-05-02T15:39:37.154Z</time></trkpt><trkpt lat="41.0352942" lon="9.3740206"><ele>159.0</ele><time>2026-05-02T15:39:38.154Z</time></trkpt><trkpt lat="41.0353996" lon="9.3741323"><ele>158.0</ele><time>2026-05-02T15:39:39.154Z</time></trkpt><trkpt lat="41.0354873" lon="9.3742673"><ele>157.0</ele><time>2026-05-02T15:39:40.154Z</time></trkpt><trkpt lat="41.0355667" lon="9.3744066"><ele>157.0</ele><time>2026-05-02T15:39:41.153Z</time></trkpt><trkpt lat="41.0356507" lon="9.3745516"><ele>157.0</ele><time>2026-05-02T15:39:42.154Z</time></trkpt><trkpt lat="41.0357385" lon="9.3747016"><ele>157.0</ele><time>2026-05-02T15:39:43.154Z</time></trkpt><trkpt lat="41.0358334" lon="9.3748516"><ele>157.0</ele><time>2026-05-02T15:39:44.154Z</time></trkpt><trkpt lat="41.0359368" lon="9.3750004"><ele>154.0</ele><time>2026-05-02T15:39:45.154Z</time></trkpt><trkpt lat="41.0360502" lon="9.3751475"><ele>151.0</ele><time>2026-05-02T15:39:46.153Z</time></trkpt><trkpt lat="41.0361667" lon="9.3752973"><ele>148.0</ele><time>2026-05-02T15:39:47.153Z</time></trkpt><trkpt lat="41.0362804" lon="9.3754531"><ele>146.0</ele><time>2026-05-02T15:39:48.153Z</time></trkpt><trkpt lat="41.036396" lon="9.3756085"><ele>144.0</ele><time>2026-05-02T15:39:49.154Z</time></trkpt><trkpt lat="41.0365193" lon="9.3757571"><ele>142.0</ele><time>2026-05-02T15:39:50.153Z</time></trkpt><trkpt lat="41.0366552" lon="9.3758932"><ele>141.0</ele><time>2026-05-02T15:39:51.154Z</time></trkpt><trkpt lat="41.0367987" lon="9.3760172"><ele>140.0</ele><time>2026-05-02T15:39:52.153Z</time></trkpt><trkpt lat="41.0369465" lon="9.3761275"><ele>139.0</ele><time>2026-05-02T15:39:53.154Z</time></trkpt><trkpt lat="41.0370892" lon="9.3762355"><ele>139.0</ele><time>2026-05-02T15:39:54.153Z</time></trkpt><trkpt lat="41.0372326" lon="9.3763363"><ele>139.0</ele><time>2026-05-02T15:39:55.154Z</time></trkpt><trkpt lat="41.0373827" lon="9.3764118"><ele>139.0</ele><time>2026-05-02T15:39:56.154Z</time></trkpt><trkpt lat="41.0375375" lon="9.3764447"><ele>136.66666666666669</ele><time>2026-05-02T15:39:57.153Z</time></trkpt><trkpt lat="41.0376989" lon="9.3764484"><ele>134.33333333333334</ele><time>2026-05-02T15:39:58.154Z</time></trkpt><trkpt lat="41.0378659" lon="9.3764388"><ele>132.0</ele><time>2026-05-02T15:39:59.154Z</time></trkpt><trkpt lat="41.0380371" lon="9.3764234"><ele>132.0</ele><time>2026-05-02T15:40:00.154Z</time></trkpt><trkpt lat="41.0382132" lon="9.3764093"><ele>132.0</ele><time>2026-05-02T15:40:01.153Z</time></trkpt><trkpt lat="41.0383921" lon="9.3763935"><ele>132.0</ele><time>2026-05-02T15:40:02.154Z</time></trkpt><trkpt lat="41.0385706" lon="9.3763686"><ele>131.33333333333334</ele><time>2026-05-02T15:40:03.153Z</time></trkpt><trkpt lat="41.0387508" lon="9.3763306"><ele>130.66666666666669</ele><time>2026-05-02T15:40:04.153Z</time></trkpt><trkpt lat="41.0389347" lon="9.3762812"><ele>130.0</ele><time>2026-05-02T15:40:05.153Z</time></trkpt><trkpt lat="41.0391222" lon="9.3762244"><ele>129.0</ele><time>2026-05-02T15:40:06.153Z</time></trkpt><trkpt lat="41.0393145" lon="9.3761643"><ele>128.0</ele><time>2026-05-02T15:40:07.153Z</time></trkpt><trkpt lat="41.0395107" lon="9.3761034"><ele>127.0</ele><time>2026-05-02T15:40:08.153Z</time></trkpt><trkpt lat="41.0397106" lon="9.3760408"><ele>127.0</ele><time>2026-05-02T15:40:09.154Z</time></trkpt><trkpt lat="41.0399134" lon="9.3759752"><ele>127.0</ele><time>2026-05-02T15:40:10.154Z</time></trkpt><trkpt lat="41.040119" lon="9.375908"><ele>127.0</ele><time>2026-05-02T15:40:11.153Z</time></trkpt><trkpt lat="41.040323" lon="9.3758459"><ele>126.0</ele><time>2026-05-02T15:40:12.154Z</time></trkpt><trkpt lat="41.0405288" lon="9.3757947"><ele>125.0</ele><time>2026-05-02T15:40:13.154Z</time></trkpt><trkpt lat="41.0407343" lon="9.3757602"><ele>124.0</ele><time>2026-05-02T15:40:14.153Z</time></trkpt><trkpt lat="41.0409338" lon="9.3757362"><ele>122.66666666666667</ele><time>2026-05-02T15:40:15.153Z</time></trkpt><trkpt lat="41.0411262" lon="9.3757068"><ele>121.33333333333334</ele><time>2026-05-02T15:40:16.154Z</time></trkpt><trkpt lat="41.0413246" lon="9.3756498"><ele>120.0</ele><time>2026-05-02T15:40:17.153Z</time></trkpt><trkpt lat="41.0415281" lon="9.3755747"><ele>119.33333333333334</ele><time>2026-05-02T15:40:18.153Z</time></trkpt><trkpt lat="41.0417374" lon="9.3754899"><ele>118.66666666666667</ele><time>2026-05-02T15:40:19.153Z</time></trkpt><trkpt lat="41.0419509" lon="9.3754048"><ele>118.0</ele><time>2026-05-02T15:40:20.154Z</time></trkpt><trkpt lat="41.0421559" lon="9.3753225"><ele>118.0</ele><time>2026-05-02T15:40:21.153Z</time></trkpt><trkpt lat="41.0423541" lon="9.3752378"><ele>118.0</ele><time>2026-05-02T15:40:22.154Z</time></trkpt><trkpt lat="41.0425448" lon="9.3751574"><ele>118.0</ele><time>2026-05-02T15:40:23.154Z</time></trkpt><trkpt lat="41.0427207" lon="9.3750932"><ele>117.66666666666667</ele><time>2026-05-02T15:40:24.153Z</time></trkpt><trkpt lat="41.0428922" lon="9.3750657"><ele>117.33333333333334</ele><time>2026-05-02T15:40:25.154Z</time></trkpt><trkpt lat="41.0430598" lon="9.3750865"><ele>117.0</ele><time>2026-05-02T15:40:26.153Z</time></trkpt><trkpt lat="41.0432263" lon="9.3751554"><ele>116.0</ele><time>2026-05-02T15:40:27.153Z</time></trkpt><trkpt lat="41.0433964" lon="9.37525"><ele>115.0</ele><time>2026-05-02T15:40:28.154Z</time></trkpt><trkpt lat="41.0435811" lon="9.3753437"><ele>114.0</ele><time>2026-05-02T15:40:29.153Z</time></trkpt><trkpt lat="41.0437745" lon="9.3754261"><ele>114.0</ele><time>2026-05-02T15:40:30.154Z</time></trkpt><trkpt lat="41.0439761" lon="9.3754927"><ele>114.0</ele><time>2026-05-02T15:40:31.153Z</time></trkpt><trkpt lat="41.0441837" lon="9.3755491"><ele>114.0</ele><time>2026-05-02T15:40:32.153Z</time></trkpt><trkpt lat="41.0443937" lon="9.3756031"><ele>112.33333333333334</ele><time>2026-05-02T15:40:33.154Z</time></trkpt><trkpt lat="41.0446079" lon="9.3756586"><ele>110.66666666666667</ele><time>2026-05-02T15:40:34.153Z</time></trkpt><trkpt lat="41.044824" lon="9.3757141"><ele>109.0</ele><time>2026-05-02T15:40:35.153Z</time></trkpt><trkpt lat="41.0450413" lon="9.3757711"><ele>108.5</ele><time>2026-05-02T15:40:36.153Z</time></trkpt><trkpt lat="41.0452622" lon="9.3758276"><ele>108.0</ele><time>2026-05-02T15:40:37.153Z</time></trkpt><trkpt lat="41.0454862" lon="9.3758847"><ele>108.0</ele><time>2026-05-02T15:40:38.153Z</time></trkpt><trkpt lat="41.045711" lon="9.3759416"><ele>108.0</ele><time>2026-05-02T15:40:39.154Z</time></trkpt><trkpt lat="41.0459373" lon="9.3759978"><ele>105.5</ele><time>2026-05-02T15:40:40.154Z</time></trkpt><trkpt lat="41.0461653" lon="9.3760528"><ele>103.0</ele><time>2026-05-02T15:40:41.153Z</time></trkpt><trkpt lat="41.0463834" lon="9.3761058"><ele>103.0</ele><time>2026-05-02T15:40:42.154Z</time></trkpt><trkpt lat="41.0465963" lon="9.3761579"><ele>103.0</ele><time>2026-05-02T15:40:43.154Z</time></trkpt><trkpt lat="41.0467953" lon="9.3762085"><ele>103.0</ele><time>2026-05-02T15:40:44.154Z</time></trkpt><trkpt lat="41.0469794" lon="9.376257"><ele>100.33333333333334</ele><time>2026-05-02T15:40:45.154Z</time></trkpt><trkpt lat="41.0471536" lon="9.3762907"><ele>97.66666666666667</ele><time>2026-05-02T15:40:46.153Z</time></trkpt><trkpt lat="41.0473231" lon="9.3762915"><ele>95.0</ele><time>2026-05-02T15:40:47.153Z</time></trkpt><trkpt lat="41.047484" lon="9.3762442"><ele>94.33333333333334</ele><time>2026-05-02T15:40:48.154Z</time></trkpt><trkpt lat="41.0476402" lon="9.3761462"><ele>93.66666666666667</ele><time>2026-05-02T15:40:49.153Z</time></trkpt><trkpt lat="41.0477942" lon="9.3760127"><ele>93.0</ele><time>2026-05-02T15:40:50.154Z</time></trkpt><trkpt lat="41.0479579" lon="9.3758605"><ele>93.0</ele><time>2026-05-02T15:40:51.154Z</time></trkpt><trkpt lat="41.0481306" lon="9.3757006"><ele>93.0</ele><time>2026-05-02T15:40:52.153Z</time></trkpt><trkpt lat="41.048311" lon="9.3755358"><ele>93.0</ele><time>2026-05-02T15:40:53.154Z</time></trkpt><trkpt lat="41.0484948" lon="9.3753631"><ele>91.33333333333333</ele><time>2026-05-02T15:40:54.154Z</time></trkpt><trkpt lat="41.0486838" lon="9.3751925"><ele>89.66666666666666</ele><time>2026-05-02T15:40:55.153Z</time></trkpt><trkpt lat="41.0488641" lon="9.375025"><ele>88.0</ele><time>2026-05-02T15:40:56.153Z</time></trkpt><trkpt lat="41.0490367" lon="9.3748695"><ele>87.33333333333333</ele><time>2026-05-02T15:40:57.153Z</time></trkpt><trkpt lat="41.0492112" lon="9.3747561"><ele>86.66666666666667</ele><time>2026-05-02T15:40:58.154Z</time></trkpt><trkpt lat="41.0493958" lon="9.3746844"><ele>86.0</ele><time>2026-05-02T15:40:59.153Z</time></trkpt><trkpt lat="41.0495925" lon="9.3746417"><ele>84.66666666666667</ele><time>2026-05-02T15:41:00.154Z</time></trkpt><trkpt lat="41.0497949" lon="9.3746071"><ele>83.33333333333333</ele><time>2026-05-02T15:41:01.154Z</time></trkpt><trkpt lat="41.0500041" lon="9.3745744"><ele>82.0</ele><time>2026-05-02T15:41:02.153Z</time></trkpt><trkpt lat="41.050216" lon="9.3745423"><ele>80.66666666666666</ele><time>2026-05-02T15:41:03.153Z</time></trkpt><trkpt lat="41.0504223" lon="9.3745095"><ele>79.33333333333333</ele><time>2026-05-02T15:41:04.154Z</time></trkpt><trkpt lat="41.0506044" lon="9.3744785"><ele>78.0</ele><time>2026-05-02T15:41:05.153Z</time></trkpt><trkpt lat="41.0507758" lon="9.3744688"><ele>77.66666666666667</ele><time>2026-05-02T15:41:06.154Z</time></trkpt><trkpt lat="41.0509375" lon="9.3745024"><ele>77.33333333333334</ele><time>2026-05-02T15:41:07.154Z</time></trkpt><trkpt lat="41.0510855" lon="9.3745863"><ele>77.0</ele><time>2026-05-02T15:41:08.153Z</time></trkpt><trkpt lat="41.0512155" lon="9.3747117"><ele>77.0</ele><time>2026-05-02T15:41:09.153Z</time></trkpt><trkpt lat="41.0513273" lon="9.3748861"><ele>77.0</ele><time>2026-05-02T15:41:10.154Z</time></trkpt><trkpt lat="41.0514252" lon="9.3750944"><ele>77.0</ele><time>2026-05-02T15:41:11.153Z</time></trkpt><trkpt lat="41.0515179" lon="9.3753161"><ele>77.0</ele><time>2026-05-02T15:41:12.153Z</time></trkpt><trkpt lat="41.051609" lon="9.3755311"><ele>77.0</ele><time>2026-05-02T15:41:13.153Z</time></trkpt><trkpt lat="41.0516998" lon="9.3757364"><ele>77.0</ele><time>2026-05-02T15:41:14.153Z</time></trkpt><trkpt lat="41.0517987" lon="9.3759269"><ele>73.33333333333334</ele><time>2026-05-02T15:41:15.154Z</time></trkpt><trkpt lat="41.0519322" lon="9.3760906"><ele>69.66666666666667</ele><time>2026-05-02T15:41:16.153Z</time></trkpt><trkpt lat="41.0520878" lon="9.3762388"><ele>66.0</ele><time>2026-05-02T15:41:17.154Z</time></trkpt><trkpt lat="41.0522612" lon="9.3763774"><ele>65.0</ele><time>2026-05-02T15:41:18.154Z</time></trkpt><trkpt lat="41.0524435" lon="9.3765172"><ele>64.0</ele><time>2026-05-02T15:41:19.153Z</time></trkpt><trkpt lat="41.05263" lon="9.3766624"><ele>63.0</ele><time>2026-05-02T15:41:20.153Z</time></trkpt><trkpt lat="41.0528116" lon="9.3768126"><ele>60.66666666666667</ele><time>2026-05-02T15:41:21.153Z</time></trkpt><trkpt lat="41.0529934" lon="9.376976"><ele>58.333333333333336</ele><time>2026-05-02T15:41:22.154Z</time></trkpt><trkpt lat="41.0531693" lon="9.3771502"><ele>56.0</ele><time>2026-05-02T15:41:23.154Z</time></trkpt><trkpt lat="41.0533431" lon="9.3773352"><ele>55.0</ele><time>2026-05-02T15:41:24.153Z</time></trkpt><trkpt lat="41.0535147" lon="9.3775268"><ele>54.0</ele><time>2026-05-02T15:41:25.154Z</time></trkpt><trkpt lat="41.053685" lon="9.3777246"><ele>54.0</ele><time>2026-05-02T15:41:26.153Z</time></trkpt><trkpt lat="41.0538628" lon="9.3779202"><ele>54.0</ele><time>2026-05-02T15:41:27.154Z</time></trkpt><trkpt lat="41.0540432" lon="9.3781159"><ele>54.5</ele><time>2026-05-02T15:41:28.154Z</time></trkpt><trkpt lat="41.0542221" lon="9.3783071"><ele>55.0</ele><time>2026-05-02T15:41:29.154Z</time></trkpt><trkpt lat="41.0544057" lon="9.3784894"><ele>55.0</ele><time>2026-05-02T15:41:30.153Z</time></trkpt><trkpt lat="41.0545863" lon="9.3786583"><ele>55.0</ele><time>2026-05-02T15:41:31.153Z</time></trkpt><trkpt lat="41.0547616" lon="9.3788175"><ele>55.0</ele><time>2026-05-02T15:41:32.154Z</time></trkpt><trkpt lat="41.0549286" lon="9.3789666"><ele>54.0</ele><time>2026-05-02T15:41:33.153Z</time></trkpt><trkpt lat="41.0550866" lon="9.3791063"><ele>53.0</ele><time>2026-05-02T15:41:34.153Z</time></trkpt><trkpt lat="41.055234" lon="9.3792385"><ele>52.0</ele><time>2026-05-02T15:41:35.154Z</time></trkpt><trkpt lat="41.0553662" lon="9.3793568"><ele>52.0</ele><time>2026-05-02T15:41:36.153Z</time></trkpt><trkpt lat="41.0554867" lon="9.3794642"><ele>52.0</ele><time>2026-05-02T15:41:37.154Z</time></trkpt><trkpt lat="41.0555944" lon="9.3795588"><ele>52.0</ele><time>2026-05-02T15:41:38.154Z</time></trkpt><trkpt lat="41.0556941" lon="9.3796498"><ele>52.0</ele><time>2026-05-02T15:41:39.153Z</time></trkpt><trkpt lat="41.0557759" lon="9.379749"><ele>51.8</ele><time>2026-05-02T15:41:40.154Z</time></trkpt><trkpt lat="41.0558334" lon="9.3798607"><ele>51.6</ele><time>2026-05-02T15:41:41.153Z</time></trkpt><trkpt lat="41.0558675" lon="9.379983"><ele>51.4</ele><time>2026-05-02T15:41:42.154Z</time></trkpt><trkpt lat="41.0558876" lon="9.3801109"><ele>51.199999999999996</ele><time>2026-05-02T15:41:43.154Z</time></trkpt><trkpt lat="41.0559044" lon="9.38024"><ele>51.0</ele><time>2026-05-02T15:41:44.153Z</time></trkpt><trkpt lat="41.055927" lon="9.3803746"><ele>51.0</ele><time>2026-05-02T15:41:45.153Z</time></trkpt><trkpt lat="41.0559662" lon="9.3805115"><ele>51.0</ele><time>2026-05-02T15:41:46.154Z</time></trkpt><trkpt lat="41.0560177" lon="9.380657"><ele>51.0</ele><time>2026-05-02T15:41:47.154Z</time></trkpt><trkpt lat="41.0560848" lon="9.3808107"><ele>51.0</ele><time>2026-05-02T15:41:48.154Z</time></trkpt><trkpt lat="41.0561616" lon="9.3809684"><ele>51.66666666666667</ele><time>2026-05-02T15:41:49.153Z</time></trkpt><trkpt lat="41.0562381" lon="9.3811358"><ele>52.333333333333336</ele><time>2026-05-02T15:41:50.153Z</time></trkpt><trkpt lat="41.0563204" lon="9.3813128"><ele>53.0</ele><time>2026-05-02T15:41:51.153Z</time></trkpt><trkpt lat="41.056404" lon="9.3814912"><ele>53.66666666666667</ele><time>2026-05-02T15:41:52.154Z</time></trkpt><trkpt lat="41.0564934" lon="9.3816757"><ele>54.33333333333333</ele><time>2026-05-02T15:41:53.153Z</time></trkpt><trkpt lat="41.0565856" lon="9.3818664"><ele>55.0</ele><time>2026-05-02T15:41:54.153Z</time></trkpt><trkpt lat="41.0566807" lon="9.3820632"><ele>53.666666666666664</ele><time>2026-05-02T15:41:55.154Z</time></trkpt><trkpt lat="41.0567768" lon="9.3822649"><ele>52.33333333333333</ele><time>2026-05-02T15:41:56.154Z</time></trkpt><trkpt lat="41.0568735" lon="9.3824735"><ele>51.0</ele><time>2026-05-02T15:41:57.153Z</time></trkpt><trkpt lat="41.0569726" lon="9.3826843"><ele>51.0</ele><time>2026-05-02T15:41:58.153Z</time></trkpt><trkpt lat="41.0570736" lon="9.3828985"><ele>51.0</ele><time>2026-05-02T15:41:59.154Z</time></trkpt><trkpt lat="41.0571758" lon="9.3831151"><ele>51.0</ele><time>2026-05-02T15:42:00.154Z</time></trkpt><trkpt lat="41.0572808" lon="9.3833325"><ele>51.33333333333333</ele><time>2026-05-02T15:42:01.154Z</time></trkpt><trkpt lat="41.0573851" lon="9.3835512"><ele>51.666666666666664</ele><time>2026-05-02T15:42:02.153Z</time></trkpt><trkpt lat="41.0574891" lon="9.3837724"><ele>52.0</ele><time>2026-05-02T15:42:03.153Z</time></trkpt><trkpt lat="41.0575958" lon="9.3839927"><ele>52.0</ele><time>2026-05-02T15:42:04.153Z</time></trkpt><trkpt lat="41.0577051" lon="9.3842138"><ele>52.0</ele><time>2026-05-02T15:42:05.154Z</time></trkpt><trkpt lat="41.0578135" lon="9.3844357"><ele>52.0</ele><time>2026-05-02T15:42:06.154Z</time></trkpt><trkpt lat="41.05792" lon="9.3846606"><ele>52.33333333333333</ele><time>2026-05-02T15:42:07.153Z</time></trkpt><trkpt lat="41.058012" lon="9.3848887"><ele>52.66666666666667</ele><time>2026-05-02T15:42:08.153Z</time></trkpt><trkpt lat="41.0580984" lon="9.3851269"><ele>53.0</ele><time>2026-05-02T15:42:09.154Z</time></trkpt><trkpt lat="41.0581772" lon="9.385374"><ele>52.0</ele><time>2026-05-02T15:42:10.153Z</time></trkpt><trkpt lat="41.0582575" lon="9.3856281"><ele>51.0</ele><time>2026-05-02T15:42:11.153Z</time></trkpt><trkpt lat="41.0583394" lon="9.3858884"><ele>50.0</ele><time>2026-05-02T15:42:12.154Z</time></trkpt><trkpt lat="41.0584216" lon="9.3861571"><ele>48.5</ele><time>2026-05-02T15:42:13.154Z</time></trkpt><trkpt lat="41.0585063" lon="9.3864317"><ele>47.0</ele><time>2026-05-02T15:42:14.153Z</time></trkpt><trkpt lat="41.0585919" lon="9.3867102"><ele>47.0</ele><time>2026-05-02T15:42:15.153Z</time></trkpt><trkpt lat="41.058681" lon="9.3869914"><ele>47.0</ele><time>2026-05-02T15:42:16.153Z</time></trkpt><trkpt lat="41.0587682" lon="9.3872765"><ele>46.5</ele><time>2026-05-02T15:42:17.154Z</time></trkpt><trkpt lat="41.058855" lon="9.3875616"><ele>46.0</ele><time>2026-05-02T15:42:18.154Z</time></trkpt><trkpt lat="41.0589416" lon="9.3878479"><ele>45.0</ele><time>2026-05-02T15:42:19.153Z</time></trkpt><trkpt lat="41.0590291" lon="9.3881309"><ele>44.0</ele><time>2026-05-02T15:42:20.153Z</time></trkpt><trkpt lat="41.0591158" lon="9.388406"><ele>42.666666666666664</ele><time>2026-05-02T15:42:21.154Z</time></trkpt><trkpt lat="41.0591956" lon="9.3886705"><ele>41.333333333333336</ele><time>2026-05-02T15:42:22.154Z</time></trkpt><trkpt lat="41.0592758" lon="9.3889329"><ele>40.0</ele><time>2026-05-02T15:42:23.153Z</time></trkpt><trkpt lat="41.0593547" lon="9.3891947"><ele>39.66666666666667</ele><time>2026-05-02T15:42:24.154Z</time></trkpt><trkpt lat="41.0594327" lon="9.3894577"><ele>39.333333333333336</ele><time>2026-05-02T15:42:25.153Z</time></trkpt><trkpt lat="41.0595097" lon="9.3897167"><ele>39.0</ele><time>2026-05-02T15:42:26.153Z</time></trkpt><trkpt lat="41.0595899" lon="9.3899611"><ele>38.333333333333336</ele><time>2026-05-02T15:42:27.154Z</time></trkpt><trkpt lat="41.0596843" lon="9.3902016"><ele>37.66666666666667</ele><time>2026-05-02T15:42:28.153Z</time></trkpt><trkpt lat="41.0597882" lon="9.3904351"><ele>37.0</ele><time>2026-05-02T15:42:29.153Z</time></trkpt><trkpt lat="41.0598989" lon="9.3906646"><ele>35.333333333333336</ele><time>2026-05-02T15:42:30.153Z</time></trkpt><trkpt lat="41.0600149" lon="9.3908939"><ele>33.666666666666664</ele><time>2026-05-02T15:42:31.154Z</time></trkpt><trkpt lat="41.0601332" lon="9.3911245"><ele>32.0</ele><time>2026-05-02T15:42:32.153Z</time></trkpt><trkpt lat="41.0602494" lon="9.3913562"><ele>31.0</ele><time>2026-05-02T15:42:33.154Z</time></trkpt><trkpt lat="41.060363" lon="9.3915854"><ele>30.0</ele><time>2026-05-02T15:42:34.154Z</time></trkpt><trkpt lat="41.0604781" lon="9.3918198"><ele>29.0</ele><time>2026-05-02T15:42:35.154Z</time></trkpt><trkpt lat="41.0605958" lon="9.392056"><ele>29.333333333333332</ele><time>2026-05-02T15:42:36.154Z</time></trkpt><trkpt lat="41.0607128" lon="9.3922956"><ele>29.666666666666664</ele><time>2026-05-02T15:42:37.153Z</time></trkpt><trkpt lat="41.060831" lon="9.392534"><ele>30.0</ele><time>2026-05-02T15:42:38.153Z</time></trkpt><trkpt lat="41.0609458" lon="9.3927646"><ele>28.666666666666664</ele><time>2026-05-02T15:42:39.154Z</time></trkpt><trkpt lat="41.0610563" lon="9.3929927"><ele>27.333333333333332</ele><time>2026-05-02T15:42:40.154Z</time></trkpt><trkpt lat="41.0611708" lon="9.3932226"><ele>26.0</ele><time>2026-05-02T15:42:41.153Z</time></trkpt><trkpt lat="41.0612876" lon="9.3934497"><ele>24.666666666666664</ele><time>2026-05-02T15:42:42.154Z</time></trkpt><trkpt lat="41.061398" lon="9.3936682"><ele>23.333333333333332</ele><time>2026-05-02T15:42:43.154Z</time></trkpt><trkpt lat="41.061504" lon="9.3938815"><ele>22.0</ele><time>2026-05-02T15:42:44.153Z</time></trkpt><trkpt lat="41.0616122" lon="9.3941011"><ele>21.333333333333332</ele><time>2026-05-02T15:42:45.154Z</time></trkpt><trkpt lat="41.0617189" lon="9.3943209"><ele>20.666666666666668</ele><time>2026-05-02T15:42:46.154Z</time></trkpt><trkpt lat="41.0618197" lon="9.3945328"><ele>20.0</ele><time>2026-05-02T15:42:47.153Z</time></trkpt><trkpt lat="41.0619117" lon="9.3947198"><ele>20.0</ele><time>2026-05-02T15:42:48.154Z</time></trkpt><trkpt lat="41.0620037" lon="9.3949043"><ele>20.0</ele><time>2026-05-02T15:42:49.154Z</time></trkpt><trkpt lat="41.0620972" lon="9.3950958"><ele>20.0</ele><time>2026-05-02T15:42:50.153Z</time></trkpt><trkpt lat="41.0621915" lon="9.3952885"><ele>20.0</ele><time>2026-05-02T15:42:51.153Z</time></trkpt><trkpt lat="41.0622902" lon="9.3954819"><ele>20.0</ele><time>2026-05-02T15:42:52.153Z</time></trkpt><trkpt lat="41.0623879" lon="9.3956796"><ele>20.0</ele><time>2026-05-02T15:42:53.153Z</time></trkpt><trkpt lat="41.0624889" lon="9.3958801"><ele>19.666666666666668</ele><time>2026-05-02T15:42:54.154Z</time></trkpt><trkpt lat="41.0625908" lon="9.3960825"><ele>19.333333333333332</ele><time>2026-05-02T15:42:55.153Z</time></trkpt><trkpt lat="41.0626958" lon="9.3962873"><ele>19.0</ele><time>2026-05-02T15:42:56.154Z</time></trkpt><trkpt lat="41.0628017" lon="9.3964932"><ele>19.0</ele><time>2026-05-02T15:42:57.154Z</time></trkpt><trkpt lat="41.0629091" lon="9.3967059"><ele>19.0</ele><time>2026-05-02T15:42:58.153Z</time></trkpt><trkpt lat="41.0630191" lon="9.3969288"><ele>19.0</ele><time>2026-05-02T15:42:59.154Z</time></trkpt><trkpt lat="41.0631314" lon="9.397151"><ele>19.333333333333332</ele><time>2026-05-02T15:43:00.153Z</time></trkpt><trkpt lat="41.0632433" lon="9.3973725"><ele>19.666666666666668</ele><time>2026-05-02T15:43:01.153Z</time></trkpt><trkpt lat="41.0633531" lon="9.3975913"><ele>20.0</ele><time>2026-05-02T15:43:02.154Z</time></trkpt><trkpt lat="41.063461" lon="9.3978131"><ele>18.333333333333336</ele><time>2026-05-02T15:43:03.154Z</time></trkpt><trkpt lat="41.0635683" lon="9.3980363"><ele>16.666666666666668</ele><time>2026-05-02T15:43:04.154Z</time></trkpt><trkpt lat="41.0636786" lon="9.3982591"><ele>15.0</ele><time>2026-05-02T15:43:05.154Z</time></trkpt><trkpt lat="41.0637849" lon="9.3984695"><ele>15.0</ele><time>2026-05-02T15:43:06.153Z</time></trkpt><trkpt lat="41.0638837" lon="9.3986655"><ele>15.0</ele><time>2026-05-02T15:43:07.153Z</time></trkpt><trkpt lat="41.0639709" lon="9.3988416"><ele>15.0</ele><time>2026-05-02T15:43:08.153Z</time></trkpt><trkpt lat="41.0640512" lon="9.3990036"><ele>14.8</ele><time>2026-05-02T15:43:09.154Z</time></trkpt><trkpt lat="41.0641207" lon="9.3991444"><ele>14.6</ele><time>2026-05-02T15:43:10.153Z</time></trkpt><trkpt lat="41.0641799" lon="9.3992745"><ele>14.399999999999999</ele><time>2026-05-02T15:43:11.153Z</time></trkpt><trkpt lat="41.064222" lon="9.3993906"><ele>14.2</ele><time>2026-05-02T15:43:12.153Z</time></trkpt><trkpt lat="41.0642537" lon="9.3994878"><ele>14.0</ele><time>2026-05-02T15:43:13.154Z</time></trkpt><trkpt lat="41.0642777" lon="9.3995676"><ele>13.833333333333334</ele><time>2026-05-02T15:43:14.154Z</time></trkpt><trkpt lat="41.0642798" lon="9.3996776"><ele>13.666666666666668</ele><time>2026-05-02T15:43:16.154Z</time></trkpt><trkpt lat="41.0642835" lon="9.3998009"><ele>13.5</ele><time>2026-05-02T15:43:18.153Z</time></trkpt><trkpt lat="41.064281" lon="9.3998915"><ele>13.333333333333332</ele><time>2026-05-02T15:43:19.154Z</time></trkpt><trkpt lat="41.0642728" lon="9.4000032"><ele>13.166666666666666</ele><time>2026-05-02T15:43:20.153Z</time></trkpt><trkpt lat="41.0642665" lon="9.4001267"><ele>13.0</ele><time>2026-05-02T15:43:21.153Z</time></trkpt><trkpt lat="41.0642592" lon="9.4002595"><ele>13.0</ele><time>2026-05-02T15:43:22.153Z</time></trkpt><trkpt lat="41.0642508" lon="9.4004058"><ele>13.0</ele><time>2026-05-02T15:43:23.154Z</time></trkpt><trkpt lat="41.064243" lon="9.4005647"><ele>13.0</ele><time>2026-05-02T15:43:24.153Z</time></trkpt><trkpt lat="41.0642327" lon="9.4007324"><ele>13.0</ele><time>2026-05-02T15:43:25.153Z</time></trkpt><trkpt lat="41.0642229" lon="9.4009087"><ele>13.0</ele><time>2026-05-02T15:43:26.153Z</time></trkpt><trkpt lat="41.0642109" lon="9.4010932"><ele>13.0</ele><time>2026-05-02T15:43:27.153Z</time></trkpt><trkpt lat="41.0642004" lon="9.4012866"><ele>13.0</ele><time>2026-05-02T15:43:28.153Z</time></trkpt><trkpt lat="41.0641911" lon="9.4014852"><ele>13.0</ele><time>2026-05-02T15:43:29.154Z</time></trkpt><trkpt lat="41.0641835" lon="9.4016884"><ele>13.333333333333332</ele><time>2026-05-02T15:43:30.154Z</time></trkpt><trkpt lat="41.0641767" lon="9.4018959"><ele>13.666666666666668</ele><time>2026-05-02T15:43:31.154Z</time></trkpt><trkpt lat="41.0641669" lon="9.4021067"><ele>14.0</ele><time>2026-05-02T15:43:32.153Z</time></trkpt><trkpt lat="41.0641492" lon="9.402321"><ele>14.0</ele><time>2026-05-02T15:43:33.154Z</time></trkpt><trkpt lat="41.0641167" lon="9.4025361"><ele>14.0</ele><time>2026-05-02T15:43:34.154Z</time></trkpt><trkpt lat="41.0640738" lon="9.4027519"><ele>14.0</ele><time>2026-05-02T15:43:35.154Z</time></trkpt><trkpt lat="41.06402" lon="9.4029665"><ele>14.0</ele><time>2026-05-02T15:43:36.154Z</time></trkpt><trkpt lat="41.0639622" lon="9.4031853"><ele>14.0</ele><time>2026-05-02T15:43:37.153Z</time></trkpt><trkpt lat="41.0639046" lon="9.4034088"><ele>14.0</ele><time>2026-05-02T15:43:38.154Z</time></trkpt><trkpt lat="41.0638461" lon="9.4036378"><ele>13.666666666666668</ele><time>2026-05-02T15:43:39.153Z</time></trkpt><trkpt lat="41.0637858" lon="9.4038712"><ele>13.333333333333332</ele><time>2026-05-02T15:43:40.154Z</time></trkpt><trkpt lat="41.0637258" lon="9.4041081"><ele>13.0</ele><time>2026-05-02T15:43:41.153Z</time></trkpt><trkpt lat="41.0636654" lon="9.4043492"><ele>13.0</ele><time>2026-05-02T15:43:42.153Z</time></trkpt><trkpt lat="41.063605" lon="9.4045948"><ele>13.0</ele><time>2026-05-02T15:43:43.154Z</time></trkpt><trkpt lat="41.063542" lon="9.404843"><ele>13.0</ele><time>2026-05-02T15:43:44.154Z</time></trkpt><trkpt lat="41.0634789" lon="9.405096"><ele>13.0</ele><time>2026-05-02T15:43:45.153Z</time></trkpt><trkpt lat="41.0634151" lon="9.4053518"><ele>13.0</ele><time>2026-05-02T15:43:46.154Z</time></trkpt><trkpt lat="41.06335" lon="9.4056094"><ele>13.0</ele><time>2026-05-02T15:43:47.154Z</time></trkpt><trkpt lat="41.0632835" lon="9.4058695"><ele>12.666666666666666</ele><time>2026-05-02T15:43:48.153Z</time></trkpt><trkpt lat="41.0632168" lon="9.4061325"><ele>12.333333333333332</ele><time>2026-05-02T15:43:49.153Z</time></trkpt><trkpt lat="41.0631514" lon="9.4063981"><ele>12.0</ele><time>2026-05-02T15:43:50.153Z</time></trkpt><trkpt lat="41.0630849" lon="9.4066659"><ele>11.666666666666666</ele><time>2026-05-02T15:43:51.153Z</time></trkpt><trkpt lat="41.0630155" lon="9.4069318"><ele>11.333333333333332</ele><time>2026-05-02T15:43:52.153Z</time></trkpt><trkpt lat="41.0629397" lon="9.4071978"><ele>11.0</ele><time>2026-05-02T15:43:53.153Z</time></trkpt><trkpt lat="41.0628562" lon="9.4074617"><ele>11.0</ele><time>2026-05-02T15:43:54.153Z</time></trkpt><trkpt lat="41.0627666" lon="9.4077222"><ele>11.0</ele><time>2026-05-02T15:43:55.153Z</time></trkpt><trkpt lat="41.0626737" lon="9.4079829"><ele>11.0</ele><time>2026-05-02T15:43:56.154Z</time></trkpt><trkpt lat="41.0625805" lon="9.4082453"><ele>11.0</ele><time>2026-05-02T15:43:57.153Z</time></trkpt><trkpt lat="41.0624863" lon="9.4085104"><ele>11.0</ele><time>2026-05-02T15:43:58.153Z</time></trkpt><trkpt lat="41.0623915" lon="9.4087779"><ele>11.0</ele><time>2026-05-02T15:43:59.154Z</time></trkpt><trkpt lat="41.0622956" lon="9.4090463"><ele>11.0</ele><time>2026-05-02T15:44:00.154Z</time></trkpt><trkpt lat="41.0621978" lon="9.409316"><ele>11.0</ele><time>2026-05-02T15:44:01.154Z</time></trkpt><trkpt lat="41.0621" lon="9.4095864"><ele>11.0</ele><time>2026-05-02T15:44:02.154Z</time></trkpt><trkpt lat="41.0620019" lon="9.409859"><ele>11.0</ele><time>2026-05-02T15:44:03.153Z</time></trkpt><trkpt lat="41.0619045" lon="9.4101337"><ele>11.0</ele><time>2026-05-02T15:44:04.154Z</time></trkpt><trkpt lat="41.0618076" lon="9.41041"><ele>11.0</ele><time>2026-05-02T15:44:05.153Z</time></trkpt><trkpt lat="41.0617106" lon="9.4106852"><ele>10.0</ele><time>2026-05-02T15:44:06.153Z</time></trkpt><trkpt lat="41.061613" lon="9.4109591"><ele>9.0</ele><time>2026-05-02T15:44:07.153Z</time></trkpt><trkpt lat="41.0615161" lon="9.4112304"><ele>9.333333333333334</ele><time>2026-05-02T15:44:08.154Z</time></trkpt><trkpt lat="41.0614242" lon="9.4114886"><ele>9.666666666666668</ele><time>2026-05-02T15:44:09.154Z</time></trkpt><trkpt lat="41.061341" lon="9.4117378"><ele>10.0</ele><time>2026-05-02T15:44:10.154Z</time></trkpt><trkpt lat="41.0612739" lon="9.4119821"><ele>10.0</ele><time>2026-05-02T15:44:11.154Z</time></trkpt><trkpt lat="41.0612233" lon="9.4122202"><ele>10.0</ele><time>2026-05-02T15:44:12.154Z</time></trkpt><trkpt lat="41.0611924" lon="9.4124614"><ele>10.0</ele><time>2026-05-02T15:44:13.153Z</time></trkpt><trkpt lat="41.0611795" lon="9.4127034"><ele>10.0</ele><time>2026-05-02T15:44:14.153Z</time></trkpt><trkpt lat="41.0611841" lon="9.4129444"><ele>10.0</ele><time>2026-05-02T15:44:15.153Z</time></trkpt><trkpt lat="41.0612165" lon="9.4131832"><ele>10.0</ele><time>2026-05-02T15:44:16.153Z</time></trkpt><trkpt lat="41.0612635" lon="9.4134184"><ele>10.0</ele><time>2026-05-02T15:44:17.154Z</time></trkpt><trkpt lat="41.0613204" lon="9.4136555"><ele>10.0</ele><time>2026-05-02T15:44:18.154Z</time></trkpt><trkpt lat="41.0613797" lon="9.4138926"><ele>10.0</ele><time>2026-05-02T15:44:19.153Z</time></trkpt><trkpt lat="41.061442" lon="9.4141338"><ele>10.0</ele><time>2026-05-02T15:44:20.154Z</time></trkpt><trkpt lat="41.061506" lon="9.4143779"><ele>10.0</ele><time>2026-05-02T15:44:21.153Z</time></trkpt><trkpt lat="41.0615716" lon="9.4146239"><ele>10.0</ele><time>2026-05-02T15:44:22.153Z</time></trkpt><trkpt lat="41.0616398" lon="9.4148762"><ele>10.0</ele><time>2026-05-02T15:44:23.153Z</time></trkpt><trkpt lat="41.0617026" lon="9.4151212"><ele>10.0</ele><time>2026-05-02T15:44:24.154Z</time></trkpt><trkpt lat="41.0617655" lon="9.4153685"><ele>10.0</ele><time>2026-05-02T15:44:25.154Z</time></trkpt><trkpt lat="41.0618303" lon="9.4156167"><ele>10.0</ele><time>2026-05-02T15:44:26.154Z</time></trkpt><trkpt lat="41.0618954" lon="9.4158676"><ele>10.0</ele><time>2026-05-02T15:44:27.154Z</time></trkpt><trkpt lat="41.0619613" lon="9.4161216"><ele>10.0</ele><time>2026-05-02T15:44:28.153Z</time></trkpt><trkpt lat="41.0620275" lon="9.416379"><ele>9.666666666666668</ele><time>2026-05-02T15:44:29.154Z</time></trkpt><trkpt lat="41.0620941" lon="9.4166365"><ele>9.333333333333334</ele><time>2026-05-02T15:44:30.153Z</time></trkpt><trkpt lat="41.0621616" lon="9.4168947"><ele>9.0</ele><time>2026-05-02T15:44:31.153Z</time></trkpt><trkpt lat="41.0622292" lon="9.4171527"><ele>8.666666666666666</ele><time>2026-05-02T15:44:32.154Z</time></trkpt><trkpt lat="41.0622968" lon="9.4174109"><ele>8.333333333333332</ele><time>2026-05-02T15:44:33.153Z</time></trkpt><trkpt lat="41.0623652" lon="9.417669"><ele>8.0</ele><time>2026-05-02T15:44:34.154Z</time></trkpt><trkpt lat="41.0624337" lon="9.4179269"><ele>8.0</ele><time>2026-05-02T15:44:35.153Z</time></trkpt><trkpt lat="41.0625029" lon="9.4181859"><ele>8.0</ele><time>2026-05-02T15:44:36.153Z</time></trkpt><trkpt lat="41.062571" lon="9.4184463"><ele>8.0</ele><time>2026-05-02T15:44:37.153Z</time></trkpt><trkpt lat="41.0626364" lon="9.4187082"><ele>8.333333333333332</ele><time>2026-05-02T15:44:38.154Z</time></trkpt><trkpt lat="41.062699" lon="9.4189708"><ele>8.666666666666666</ele><time>2026-05-02T15:44:39.153Z</time></trkpt><trkpt lat="41.0627555" lon="9.4192351"><ele>9.0</ele><time>2026-05-02T15:44:40.154Z</time></trkpt><trkpt lat="41.0628059" lon="9.4195022"><ele>8.666666666666666</ele><time>2026-05-02T15:44:41.154Z</time></trkpt><trkpt lat="41.0628498" lon="9.4197701"><ele>8.333333333333332</ele><time>2026-05-02T15:44:42.154Z</time></trkpt><trkpt lat="41.0628787" lon="9.4200393"><ele>8.0</ele><time>2026-05-02T15:44:43.153Z</time></trkpt><trkpt lat="41.0628974" lon="9.4203096"><ele>7.666666666666666</ele><time>2026-05-02T15:44:44.154Z</time></trkpt><trkpt lat="41.0629126" lon="9.4205806"><ele>7.333333333333334</ele><time>2026-05-02T15:44:45.154Z</time></trkpt><trkpt lat="41.062929" lon="9.4208507"><ele>7.0</ele><time>2026-05-02T15:44:46.154Z</time></trkpt><trkpt lat="41.0629516" lon="9.4211195"><ele>7.0</ele><time>2026-05-02T15:44:47.153Z</time></trkpt><trkpt lat="41.0629873" lon="9.4213865"><ele>7.0</ele><time>2026-05-02T15:44:48.154Z</time></trkpt><trkpt lat="41.063034" lon="9.4216491"><ele>7.0</ele><time>2026-05-02T15:44:49.153Z</time></trkpt><trkpt lat="41.0630925" lon="9.4219092"><ele>7.0</ele><time>2026-05-02T15:44:50.154Z</time></trkpt><trkpt lat="41.0631557" lon="9.4221671"><ele>7.0</ele><time>2026-05-02T15:44:51.154Z</time></trkpt><trkpt lat="41.0632198" lon="9.4224238"><ele>7.0</ele><time>2026-05-02T15:44:52.154Z</time></trkpt><trkpt lat="41.063284" lon="9.422679"><ele>7.0</ele><time>2026-05-02T15:44:53.153Z</time></trkpt><trkpt lat="41.063347" lon="9.4229318"><ele>7.0</ele><time>2026-05-02T15:44:54.154Z</time></trkpt><trkpt lat="41.0634099" lon="9.4231861"><ele>7.0</ele><time>2026-05-02T15:44:55.154Z</time></trkpt><trkpt lat="41.0634741" lon="9.4234372"><ele>7.666666666666667</ele><time>2026-05-02T15:44:56.154Z</time></trkpt><trkpt lat="41.0635345" lon="9.42368"><ele>8.333333333333334</ele><time>2026-05-02T15:44:57.154Z</time></trkpt><trkpt lat="41.0635891" lon="9.4239105"><ele>9.0</ele><time>2026-05-02T15:44:58.154Z</time></trkpt><trkpt lat="41.0636458" lon="9.4241419"><ele>9.0</ele><time>2026-05-02T15:44:59.153Z</time></trkpt><trkpt lat="41.0637008" lon="9.4243702"><ele>9.0</ele><time>2026-05-02T15:45:00.154Z</time></trkpt><trkpt lat="41.0637566" lon="9.4245958"><ele>9.0</ele><time>2026-05-02T15:45:01.153Z</time></trkpt><trkpt lat="41.0638137" lon="9.4248207"><ele>8.666666666666666</ele><time>2026-05-02T15:45:02.154Z</time></trkpt><trkpt lat="41.0638711" lon="9.4250454"><ele>8.333333333333332</ele><time>2026-05-02T15:45:03.154Z</time></trkpt><trkpt lat="41.0639298" lon="9.4252706"><ele>8.0</ele><time>2026-05-02T15:45:04.154Z</time></trkpt><trkpt lat="41.0639866" lon="9.425495"><ele>8.0</ele><time>2026-05-02T15:45:05.154Z</time></trkpt><trkpt lat="41.064043" lon="9.4257212"><ele>8.0</ele><time>2026-05-02T15:45:06.153Z</time></trkpt><trkpt lat="41.0640995" lon="9.425948"><ele>8.0</ele><time>2026-05-02T15:45:07.154Z</time></trkpt><trkpt lat="41.0641563" lon="9.426174"><ele>8.333333333333332</ele><time>2026-05-02T15:45:08.153Z</time></trkpt><trkpt lat="41.0642141" lon="9.4264023"><ele>8.666666666666666</ele><time>2026-05-02T15:45:09.153Z</time></trkpt><trkpt lat="41.0642698" lon="9.4266266"><ele>9.0</ele><time>2026-05-02T15:45:10.154Z</time></trkpt><trkpt lat="41.0643247" lon="9.4268483"><ele>9.0</ele><time>2026-05-02T15:45:11.154Z</time></trkpt><trkpt lat="41.0643803" lon="9.4270719"><ele>9.0</ele><time>2026-05-02T15:45:12.154Z</time></trkpt><trkpt lat="41.0644331" lon="9.4272947"><ele>9.0</ele><time>2026-05-02T15:45:13.153Z</time></trkpt><trkpt lat="41.0644856" lon="9.427513"><ele>8.666666666666666</ele><time>2026-05-02T15:45:14.154Z</time></trkpt><trkpt lat="41.0645374" lon="9.42773"><ele>8.333333333333332</ele><time>2026-05-02T15:45:15.153Z</time></trkpt><trkpt lat="41.0645895" lon="9.4279469"><ele>8.0</ele><time>2026-05-02T15:45:16.153Z</time></trkpt><trkpt lat="41.0646433" lon="9.4281628"><ele>8.0</ele><time>2026-05-02T15:45:17.153Z</time></trkpt><trkpt lat="41.0646977" lon="9.4283774"><ele>8.0</ele><time>2026-05-02T15:45:18.154Z</time></trkpt><trkpt lat="41.0647552" lon="9.4285896"><ele>8.0</ele><time>2026-05-02T15:45:19.154Z</time></trkpt><trkpt lat="41.0648178" lon="9.4287997"><ele>8.333333333333332</ele><time>2026-05-02T15:45:20.153Z</time></trkpt><trkpt lat="41.0648827" lon="9.4290013"><ele>8.666666666666666</ele><time>2026-05-02T15:45:21.153Z</time></trkpt><trkpt lat="41.064945" lon="9.4291847"><ele>9.0</ele><time>2026-05-02T15:45:22.154Z</time></trkpt><trkpt lat="41.0650016" lon="9.4293493"><ele>9.0</ele><time>2026-05-02T15:45:23.154Z</time></trkpt><trkpt lat="41.0650519" lon="9.4294987"><ele>9.0</ele><time>2026-05-02T15:45:24.153Z</time></trkpt><trkpt lat="41.0650975" lon="9.4296343"><ele>9.0</ele><time>2026-05-02T15:45:25.154Z</time></trkpt><trkpt lat="41.0651388" lon="9.429758"><ele>9.0</ele><time>2026-05-02T15:45:26.154Z</time></trkpt><trkpt lat="41.0651738" lon="9.4298794"><ele>9.0</ele><time>2026-05-02T15:45:27.154Z</time></trkpt><trkpt lat="41.0652056" lon="9.4299963"><ele>8.833333333333334</ele><time>2026-05-02T15:45:28.153Z</time></trkpt><trkpt lat="41.0652301" lon="9.4301089"><ele>8.666666666666666</ele><time>2026-05-02T15:45:29.154Z</time></trkpt><trkpt lat="41.0652466" lon="9.4302177"><ele>8.5</ele><time>2026-05-02T15:45:30.153Z</time></trkpt><trkpt lat="41.0652534" lon="9.4303202"><ele>8.333333333333332</ele><time>2026-05-02T15:45:31.153Z</time></trkpt><trkpt lat="41.0652537" lon="9.4304276"><ele>8.166666666666666</ele><time>2026-05-02T15:45:32.154Z</time></trkpt><trkpt lat="41.0652478" lon="9.4305452"><ele>8.0</ele><time>2026-05-02T15:45:33.154Z</time></trkpt><trkpt lat="41.0652338" lon="9.4306701"><ele>8.600000000000001</ele><time>2026-05-02T15:45:34.153Z</time></trkpt><trkpt lat="41.0652131" lon="9.4308012"><ele>9.200000000000001</ele><time>2026-05-02T15:45:35.153Z</time></trkpt><trkpt lat="41.065184" lon="9.4309356"><ele>9.8</ele><time>2026-05-02T15:45:36.154Z</time></trkpt><trkpt lat="41.0651453" lon="9.4310725"><ele>10.4</ele><time>2026-05-02T15:45:37.154Z</time></trkpt><trkpt lat="41.0650948" lon="9.4312054"><ele>11.0</ele><time>2026-05-02T15:45:38.153Z</time></trkpt><trkpt lat="41.0650292" lon="9.4313323"><ele>11.25</ele><time>2026-05-02T15:45:39.154Z</time></trkpt><trkpt lat="41.0649483" lon="9.4314467"><ele>11.5</ele><time>2026-05-02T15:45:40.153Z</time></trkpt><trkpt lat="41.0648562" lon="9.4315587"><ele>11.75</ele><time>2026-05-02T15:45:41.153Z</time></trkpt><trkpt lat="41.0647571" lon="9.4316675"><ele>12.0</ele><time>2026-05-02T15:45:42.153Z</time></trkpt><trkpt lat="41.0646518" lon="9.4317784"><ele>12.25</ele><time>2026-05-02T15:45:43.153Z</time></trkpt><trkpt lat="41.0645426" lon="9.4318892"><ele>12.5</ele><time>2026-05-02T15:45:44.154Z</time></trkpt><trkpt lat="41.064431" lon="9.4320042"><ele>12.75</ele><time>2026-05-02T15:45:45.154Z</time></trkpt><trkpt lat="41.0643163" lon="9.4321247"><ele>13.0</ele><time>2026-05-02T15:45:46.153Z</time></trkpt><trkpt lat="41.0641976" lon="9.4322472"><ele>12.333333333333332</ele><time>2026-05-02T15:45:47.153Z</time></trkpt><trkpt lat="41.064075" lon="9.4323713"><ele>11.666666666666666</ele><time>2026-05-02T15:45:48.154Z</time></trkpt><trkpt lat="41.0639506" lon="9.4324983"><ele>11.0</ele><time>2026-05-02T15:45:49.154Z</time></trkpt><trkpt lat="41.0638233" lon="9.4326297"><ele>11.0</ele><time>2026-05-02T15:45:50.154Z</time></trkpt><trkpt lat="41.0636924" lon="9.4327629"><ele>11.0</ele><time>2026-05-02T15:45:51.154Z</time></trkpt><trkpt lat="41.063558" lon="9.4328989"><ele>11.0</ele><time>2026-05-02T15:45:52.154Z</time></trkpt><trkpt lat="41.06342" lon="9.4330392"><ele>11.333333333333332</ele><time>2026-05-02T15:45:53.153Z</time></trkpt><trkpt lat="41.0632793" lon="9.4331821"><ele>11.666666666666666</ele><time>2026-05-02T15:45:54.153Z</time></trkpt><trkpt lat="41.063136" lon="9.4333278"><ele>12.0</ele><time>2026-05-02T15:45:55.154Z</time></trkpt><trkpt lat="41.0629896" lon="9.4334744"><ele>12.0</ele><time>2026-05-02T15:45:56.154Z</time></trkpt><trkpt lat="41.0628408" lon="9.4336249"><ele>12.0</ele><time>2026-05-02T15:45:57.153Z</time></trkpt><trkpt lat="41.0626891" lon="9.4337777"><ele>12.0</ele><time>2026-05-02T15:45:58.154Z</time></trkpt><trkpt lat="41.0625364" lon="9.4339332"><ele>12.666666666666668</ele><time>2026-05-02T15:45:59.153Z</time></trkpt><trkpt lat="41.0623815" lon="9.4340919"><ele>13.333333333333334</ele><time>2026-05-02T15:46:00.153Z</time></trkpt><trkpt lat="41.0622265" lon="9.4342518"><ele>14.0</ele><time>2026-05-02T15:46:01.154Z</time></trkpt><trkpt lat="41.0620689" lon="9.4344137"><ele>14.0</ele><time>2026-05-02T15:46:02.154Z</time></trkpt><trkpt lat="41.0619079" lon="9.4345771"><ele>14.0</ele><time>2026-05-02T15:46:03.153Z</time></trkpt><trkpt lat="41.0617465" lon="9.434741"><ele>14.0</ele><time>2026-05-02T15:46:04.154Z</time></trkpt><trkpt lat="41.0615917" lon="9.4348981"><ele>14.0</ele><time>2026-05-02T15:46:05.154Z</time></trkpt><trkpt lat="41.061445" lon="9.4350456"><ele>14.0</ele><time>2026-05-02T15:46:06.154Z</time></trkpt><trkpt lat="41.0613061" lon="9.435185"><ele>14.0</ele><time>2026-05-02T15:46:07.153Z</time></trkpt><trkpt lat="41.0611728" lon="9.4353196"><ele>14.0</ele><time>2026-05-02T15:46:08.154Z</time></trkpt><trkpt lat="41.0610425" lon="9.4354468"><ele>14.0</ele><time>2026-05-02T15:46:09.153Z</time></trkpt><trkpt lat="41.0609162" lon="9.4355583"><ele>14.0</ele><time>2026-05-02T15:46:10.153Z</time></trkpt><trkpt lat="41.0607949" lon="9.4356545"><ele>15.0</ele><time>2026-05-02T15:46:11.153Z</time></trkpt><trkpt lat="41.0606789" lon="9.4357406"><ele>15.999999999999998</ele><time>2026-05-02T15:46:12.153Z</time></trkpt><trkpt lat="41.0605801" lon="9.4358017"><ele>17.0</ele><time>2026-05-02T15:46:13.153Z</time></trkpt><trkpt lat="41.0604996" lon="9.4358427"><ele>18.0</ele><time>2026-05-02T15:46:14.153Z</time></trkpt><trkpt lat="41.0604033" lon="9.4358727"><ele>19.0</ele><time>2026-05-02T15:46:16.154Z</time></trkpt><trkpt lat="41.0603047" lon="9.4359"><ele>19.0</ele><time>2026-05-02T15:46:19.153Z</time></trkpt><trkpt lat="41.0601768" lon="9.4359315"><ele>19.0</ele><time>2026-05-02T15:46:21.153Z</time></trkpt><trkpt lat="41.0600906" lon="9.4359401"><ele>19.0</ele><time>2026-05-02T15:46:22.154Z</time></trkpt><trkpt lat="41.0599928" lon="9.4359375"><ele>19.0</ele><time>2026-05-02T15:46:23.154Z</time></trkpt><trkpt lat="41.0598825" lon="9.4359279"><ele>19.0</ele><time>2026-05-02T15:46:24.154Z</time></trkpt><trkpt lat="41.0597619" lon="9.4359106"><ele>18.75</ele><time>2026-05-02T15:46:25.153Z</time></trkpt><trkpt lat="41.0596324" lon="9.435886"><ele>18.5</ele><time>2026-05-02T15:46:26.154Z</time></trkpt><trkpt lat="41.0594977" lon="9.4358615"><ele>18.25</ele><time>2026-05-02T15:46:27.154Z</time></trkpt><trkpt lat="41.0593593" lon="9.4358379"><ele>18.0</ele><time>2026-05-02T15:46:28.153Z</time></trkpt><trkpt lat="41.0592213" lon="9.4358104"><ele>19.75</ele><time>2026-05-02T15:46:29.153Z</time></trkpt><trkpt lat="41.0590831" lon="9.4357827"><ele>21.5</ele><time>2026-05-02T15:46:30.153Z</time></trkpt><trkpt lat="41.0589432" lon="9.4357556"><ele>23.25</ele><time>2026-05-02T15:46:31.154Z</time></trkpt><trkpt lat="41.0588064" lon="9.4357272"><ele>25.0</ele><time>2026-05-02T15:46:32.153Z</time></trkpt><trkpt lat="41.0586695" lon="9.4357006"><ele>25.0</ele><time>2026-05-02T15:46:33.153Z</time></trkpt><trkpt lat="41.0585342" lon="9.4356764"><ele>25.0</ele><time>2026-05-02T15:46:34.154Z</time></trkpt><trkpt lat="41.0584" lon="9.435649"><ele>25.0</ele><time>2026-05-02T15:46:35.153Z</time></trkpt><trkpt lat="41.0582661" lon="9.4356168"><ele>25.0</ele><time>2026-05-02T15:46:36.153Z</time></trkpt><trkpt lat="41.0581289" lon="9.4355718"><ele>25.0</ele><time>2026-05-02T15:46:37.154Z</time></trkpt><trkpt lat="41.0579957" lon="9.435504"><ele>25.0</ele><time>2026-05-02T15:46:38.154Z</time></trkpt><trkpt lat="41.0578657" lon="9.4354119"><ele>25.0</ele><time>2026-05-02T15:46:39.153Z</time></trkpt><trkpt lat="41.0577295" lon="9.4353128"><ele>25.0</ele><time>2026-05-02T15:46:40.153Z</time></trkpt><trkpt lat="41.0575878" lon="9.4352142"><ele>24.0</ele><time>2026-05-02T15:46:41.154Z</time></trkpt><trkpt lat="41.0574368" lon="9.4351179"><ele>23.0</ele><time>2026-05-02T15:46:42.154Z</time></trkpt><trkpt lat="41.0572812" lon="9.4350285"><ele>22.0</ele><time>2026-05-02T15:46:43.153Z</time></trkpt><trkpt lat="41.0571267" lon="9.4349471"><ele>22.0</ele><time>2026-05-02T15:46:44.153Z</time></trkpt><trkpt lat="41.0569707" lon="9.43487"><ele>22.0</ele><time>2026-05-02T15:46:45.154Z</time></trkpt><trkpt lat="41.0568057" lon="9.434791"><ele>22.0</ele><time>2026-05-02T15:46:46.153Z</time></trkpt><trkpt lat="41.0566413" lon="9.4347104"><ele>23.0</ele><time>2026-05-02T15:46:47.153Z</time></trkpt><trkpt lat="41.0564863" lon="9.4346415"><ele>24.0</ele><time>2026-05-02T15:46:48.153Z</time></trkpt><trkpt lat="41.0563317" lon="9.434595"><ele>25.0</ele><time>2026-05-02T15:46:49.154Z</time></trkpt><trkpt lat="41.0561729" lon="9.4345763"><ele>22.0</ele><time>2026-05-02T15:46:50.154Z</time></trkpt><trkpt lat="41.0560076" lon="9.4345789"><ele>19.0</ele><time>2026-05-02T15:46:51.153Z</time></trkpt><trkpt lat="41.055836" lon="9.4345921"><ele>16.0</ele><time>2026-05-02T15:46:52.154Z</time></trkpt><trkpt lat="41.055654" lon="9.4346037"><ele>16.0</ele><time>2026-05-02T15:46:53.154Z</time></trkpt><trkpt lat="41.055466" lon="9.4346121"><ele>16.0</ele><time>2026-05-02T15:46:54.153Z</time></trkpt><trkpt lat="41.0552738" lon="9.4346116"><ele>16.0</ele><time>2026-05-02T15:46:55.154Z</time></trkpt><trkpt lat="41.055086" lon="9.434603"><ele>16.0</ele><time>2026-05-02T15:46:56.153Z</time></trkpt><trkpt lat="41.0548954" lon="9.4345907"><ele>16.0</ele><time>2026-05-02T15:46:57.154Z</time></trkpt><trkpt lat="41.0547003" lon="9.4345813"><ele>16.0</ele><time>2026-05-02T15:46:58.154Z</time></trkpt><trkpt lat="41.0545038" lon="9.434573"><ele>16.0</ele><time>2026-05-02T15:46:59.154Z</time></trkpt><trkpt lat="41.0543036" lon="9.434563"><ele>16.0</ele><time>2026-05-02T15:47:00.154Z</time></trkpt><trkpt lat="41.0541034" lon="9.4345511"><ele>16.0</ele><time>2026-05-02T15:47:01.154Z</time></trkpt><trkpt lat="41.0539043" lon="9.4345347"><ele>16.0</ele><time>2026-05-02T15:47:02.153Z</time></trkpt><trkpt lat="41.0537094" lon="9.4345102"><ele>16.0</ele><time>2026-05-02T15:47:03.154Z</time></trkpt><trkpt lat="41.0535193" lon="9.4344789"><ele>16.0</ele><time>2026-05-02T15:47:04.154Z</time></trkpt><trkpt lat="41.0533346" lon="9.4344447"><ele>16.333333333333332</ele><time>2026-05-02T15:47:05.154Z</time></trkpt><trkpt lat="41.0531613" lon="9.4344086"><ele>16.666666666666668</ele><time>2026-05-02T15:47:06.154Z</time></trkpt><trkpt lat="41.052995" lon="9.4343855"><ele>17.0</ele><time>2026-05-02T15:47:07.154Z</time></trkpt><trkpt lat="41.052831" lon="9.4343964"><ele>17.0</ele><time>2026-05-02T15:47:08.154Z</time></trkpt><trkpt lat="41.0526635" lon="9.4344352"><ele>17.0</ele><time>2026-05-02T15:47:09.154Z</time></trkpt><trkpt lat="41.0524972" lon="9.4344959"><ele>17.0</ele><time>2026-05-02T15:47:10.154Z</time></trkpt><trkpt lat="41.0523279" lon="9.4345747"><ele>19.333333333333336</ele><time>2026-05-02T15:47:11.153Z</time></trkpt><trkpt lat="41.0521579" lon="9.4346636"><ele>21.666666666666668</ele><time>2026-05-02T15:47:12.154Z</time></trkpt><trkpt lat="41.051994" lon="9.4347475"><ele>24.0</ele><time>2026-05-02T15:47:13.153Z</time></trkpt><trkpt lat="41.0518431" lon="9.4348151"><ele>24.0</ele><time>2026-05-02T15:47:14.154Z</time></trkpt><trkpt lat="41.0516968" lon="9.4348546"><ele>24.0</ele><time>2026-05-02T15:47:15.153Z</time></trkpt><trkpt lat="41.0515503" lon="9.4348606"><ele>24.0</ele><time>2026-05-02T15:47:16.153Z</time></trkpt><trkpt lat="41.0514089" lon="9.4348444"><ele>24.0</ele><time>2026-05-02T15:47:17.153Z</time></trkpt><trkpt lat="41.0512727" lon="9.4348278"><ele>22.5</ele><time>2026-05-02T15:47:18.154Z</time></trkpt><trkpt lat="41.0511435" lon="9.4348245"><ele>21.0</ele><time>2026-05-02T15:47:19.154Z</time></trkpt><trkpt lat="41.0510199" lon="9.4348542"><ele>19.5</ele><time>2026-05-02T15:47:20.154Z</time></trkpt><trkpt lat="41.0509093" lon="9.4349242"><ele>18.0</ele><time>2026-05-02T15:47:21.154Z</time></trkpt><trkpt lat="41.0508157" lon="9.4350324"><ele>17.75</ele><time>2026-05-02T15:47:22.154Z</time></trkpt><trkpt lat="41.0507376" lon="9.4351693"><ele>17.5</ele><time>2026-05-02T15:47:23.154Z</time></trkpt><trkpt lat="41.0506733" lon="9.4353374"><ele>17.25</ele><time>2026-05-02T15:47:24.154Z</time></trkpt><trkpt lat="41.0506077" lon="9.4355223"><ele>17.0</ele><time>2026-05-02T15:47:25.154Z</time></trkpt><trkpt lat="41.050541" lon="9.4357073"><ele>17.0</ele><time>2026-05-02T15:47:26.153Z</time></trkpt><trkpt lat="41.0504741" lon="9.4358813"><ele>17.0</ele><time>2026-05-02T15:47:27.154Z</time></trkpt><trkpt lat="41.0503953" lon="9.4360287"><ele>17.0</ele><time>2026-05-02T15:47:28.154Z</time></trkpt><trkpt lat="41.050298" lon="9.4361365"><ele>17.0</ele><time>2026-05-02T15:47:29.153Z</time></trkpt><trkpt lat="41.0501885" lon="9.4362007"><ele>17.0</ele><time>2026-05-02T15:47:30.153Z</time></trkpt><trkpt lat="41.0500722" lon="9.4362148"><ele>17.0</ele><time>2026-05-02T15:47:31.153Z</time></trkpt><trkpt lat="41.0499433" lon="9.436192"><ele>17.0</ele><time>2026-05-02T15:47:32.154Z</time></trkpt><trkpt lat="41.0498022" lon="9.4361469"><ele>17.0</ele><time>2026-05-02T15:47:33.153Z</time></trkpt><trkpt lat="41.0496509" lon="9.4360976"><ele>17.333333333333336</ele><time>2026-05-02T15:47:34.154Z</time></trkpt><trkpt lat="41.0494884" lon="9.4360452"><ele>17.666666666666668</ele><time>2026-05-02T15:47:35.154Z</time></trkpt><trkpt lat="41.0493161" lon="9.43599"><ele>18.0</ele><time>2026-05-02T15:47:36.153Z</time></trkpt><trkpt lat="41.0491398" lon="9.4359354"><ele>18.666666666666668</ele><time>2026-05-02T15:47:37.153Z</time></trkpt><trkpt lat="41.0489639" lon="9.4358784"><ele>19.333333333333336</ele><time>2026-05-02T15:47:38.154Z</time></trkpt><trkpt lat="41.0487977" lon="9.4358218"><ele>20.0</ele><time>2026-05-02T15:47:39.153Z</time></trkpt><trkpt lat="41.0486296" lon="9.435764"><ele>20.0</ele><time>2026-05-02T15:47:40.153Z</time></trkpt><trkpt lat="41.0484638" lon="9.4357081"><ele>20.0</ele><time>2026-05-02T15:47:41.154Z</time></trkpt><trkpt lat="41.0482976" lon="9.4356531"><ele>20.0</ele><time>2026-05-02T15:47:42.153Z</time></trkpt><trkpt lat="41.0481402" lon="9.4355992"><ele>21.0</ele><time>2026-05-02T15:47:43.154Z</time></trkpt><trkpt lat="41.0479941" lon="9.4355552"><ele>22.0</ele><time>2026-05-02T15:47:44.153Z</time></trkpt><trkpt lat="41.0478547" lon="9.4355393"><ele>23.0</ele><time>2026-05-02T15:47:45.154Z</time></trkpt><trkpt lat="41.0477176" lon="9.4355708"><ele>24.0</ele><time>2026-05-02T15:47:46.154Z</time></trkpt><trkpt lat="41.0475895" lon="9.4356436"><ele>24.0</ele><time>2026-05-02T15:47:47.154Z</time></trkpt><trkpt lat="41.0474628" lon="9.435729"><ele>24.0</ele><time>2026-05-02T15:47:48.153Z</time></trkpt><trkpt lat="41.047334" lon="9.4358194"><ele>24.0</ele><time>2026-05-02T15:47:49.154Z</time></trkpt><trkpt lat="41.0472023" lon="9.4358754"><ele>24.0</ele><time>2026-05-02T15:47:50.154Z</time></trkpt><trkpt lat="41.0470745" lon="9.4359127"><ele>23.25</ele><time>2026-05-02T15:47:51.153Z</time></trkpt><trkpt lat="41.0469545" lon="9.4359354"><ele>22.5</ele><time>2026-05-02T15:47:52.154Z</time></trkpt><trkpt lat="41.0468422" lon="9.435948"><ele>21.75</ele><time>2026-05-02T15:47:53.153Z</time></trkpt><trkpt lat="41.0467297" lon="9.4359428"><ele>21.0</ele><time>2026-05-02T15:47:54.153Z</time></trkpt><trkpt lat="41.0466219" lon="9.4359053"><ele>22.75</ele><time>2026-05-02T15:47:55.153Z</time></trkpt><trkpt lat="41.0465217" lon="9.4358348"><ele>24.5</ele><time>2026-05-02T15:47:56.153Z</time></trkpt><trkpt lat="41.046425" lon="9.4357488"><ele>26.25</ele><time>2026-05-02T15:47:57.153Z</time></trkpt><trkpt lat="41.0463206" lon="9.4356617"><ele>28.0</ele><time>2026-05-02T15:47:58.154Z</time></trkpt><trkpt lat="41.0462033" lon="9.4355822"><ele>28.0</ele><time>2026-05-02T15:47:59.153Z</time></trkpt><trkpt lat="41.0460731" lon="9.4355165"><ele>28.0</ele><time>2026-05-02T15:48:00.153Z</time></trkpt><trkpt lat="41.0459316" lon="9.435466"><ele>28.0</ele><time>2026-05-02T15:48:01.153Z</time></trkpt><trkpt lat="41.0457837" lon="9.4354213"><ele>28.0</ele><time>2026-05-02T15:48:02.154Z</time></trkpt><trkpt lat="41.0456338" lon="9.4353781"><ele>25.0</ele><time>2026-05-02T15:48:03.154Z</time></trkpt><trkpt lat="41.0454884" lon="9.4353398"><ele>22.0</ele><time>2026-05-02T15:48:04.154Z</time></trkpt><trkpt lat="41.0453379" lon="9.4353242"><ele>19.0</ele><time>2026-05-02T15:48:05.154Z</time></trkpt><trkpt lat="41.0451849" lon="9.4353346"><ele>19.0</ele><time>2026-05-02T15:48:06.153Z</time></trkpt><trkpt lat="41.045029" lon="9.435358"><ele>19.0</ele><time>2026-05-02T15:48:07.154Z</time></trkpt><trkpt lat="41.0448708" lon="9.4353786"><ele>19.0</ele><time>2026-05-02T15:48:08.153Z</time></trkpt><trkpt lat="41.0447098" lon="9.435399"><ele>19.333333333333332</ele><time>2026-05-02T15:48:09.154Z</time></trkpt><trkpt lat="41.0445491" lon="9.4354184"><ele>19.666666666666668</ele><time>2026-05-02T15:48:10.153Z</time></trkpt><trkpt lat="41.044388" lon="9.4354348"><ele>20.0</ele><time>2026-05-02T15:48:11.153Z</time></trkpt><trkpt lat="41.0442218" lon="9.435442"><ele>19.666666666666668</ele><time>2026-05-02T15:48:12.154Z</time></trkpt><trkpt lat="41.0440335" lon="9.4354388"><ele>19.333333333333332</ele><time>2026-05-02T15:48:13.153Z</time></trkpt><trkpt lat="41.0438258" lon="9.4354262"><ele>19.0</ele><time>2026-05-02T15:48:14.154Z</time></trkpt><trkpt lat="41.04359" lon="9.435406"><ele>19.0</ele><time>2026-05-02T15:48:15.154Z</time></trkpt><trkpt lat="41.0433221" lon="9.4353832"><ele>19.0</ele><time>2026-05-02T15:48:16.153Z</time></trkpt><trkpt lat="41.0430268" lon="9.4353574"><ele>20.5</ele><time>2026-05-02T15:48:17.153Z</time></trkpt><trkpt lat="41.0427539" lon="9.4353328"><ele>22.0</ele><time>2026-05-02T15:48:18.154Z</time></trkpt><trkpt lat="41.0424958" lon="9.4353026"><ele>23.0</ele><time>2026-05-02T15:48:19.153Z</time></trkpt><trkpt lat="41.0422559" lon="9.4352589"><ele>24.0</ele><time>2026-05-02T15:48:20.153Z</time></trkpt><trkpt lat="41.0420332" lon="9.4351995"><ele>24.0</ele><time>2026-05-02T15:48:21.154Z</time></trkpt><trkpt lat="41.0418248" lon="9.4351303"><ele>24.0</ele><time>2026-05-02T15:48:22.154Z</time></trkpt><trkpt lat="41.0416216" lon="9.4350541"><ele>24.0</ele><time>2026-05-02T15:48:23.154Z</time></trkpt><trkpt lat="41.0414319" lon="9.4349798"><ele>25.0</ele><time>2026-05-02T15:48:24.154Z</time></trkpt><trkpt lat="41.0412561" lon="9.4349147"><ele>26.0</ele><time>2026-05-02T15:48:25.153Z</time></trkpt><trkpt lat="41.0410841" lon="9.4348539"><ele>27.0</ele><time>2026-05-02T15:48:26.154Z</time></trkpt><trkpt lat="41.0409111" lon="9.4347919"><ele>28.0</ele><time>2026-05-02T15:48:27.153Z</time></trkpt><trkpt lat="41.0407424" lon="9.4347299"><ele>29.0</ele><time>2026-05-02T15:48:28.153Z</time></trkpt><trkpt lat="41.0405772" lon="9.4346672"><ele>30.0</ele><time>2026-05-02T15:48:29.154Z</time></trkpt><trkpt lat="41.0404145" lon="9.4346047"><ele>28.0</ele><time>2026-05-02T15:48:30.154Z</time></trkpt><trkpt lat="41.0402595" lon="9.4345479"><ele>26.0</ele><time>2026-05-02T15:48:31.154Z</time></trkpt><trkpt lat="41.0400965" lon="9.4345018"><ele>24.0</ele><time>2026-05-02T15:48:32.154Z</time></trkpt><trkpt lat="41.0399122" lon="9.4344721"><ele>24.0</ele><time>2026-05-02T15:48:33.154Z</time></trkpt><trkpt lat="41.0397055" lon="9.4344438"><ele>24.0</ele><time>2026-05-02T15:48:34.153Z</time></trkpt><trkpt lat="41.039484" lon="9.4344102"><ele>24.0</ele><time>2026-05-02T15:48:35.153Z</time></trkpt><trkpt lat="41.0392531" lon="9.434376"><ele>25.0</ele><time>2026-05-02T15:48:36.154Z</time></trkpt><trkpt lat="41.03902" lon="9.4343477"><ele>26.0</ele><time>2026-05-02T15:48:37.154Z</time></trkpt><trkpt lat="41.038788" lon="9.4343191"><ele>26.0</ele><time>2026-05-02T15:48:38.153Z</time></trkpt><trkpt lat="41.0385672" lon="9.434292"><ele>26.0</ele><time>2026-05-02T15:48:39.154Z</time></trkpt><trkpt lat="41.0383556" lon="9.4342543"><ele>26.0</ele><time>2026-05-02T15:48:40.153Z</time></trkpt><trkpt lat="41.0381468" lon="9.4341986"><ele>26.0</ele><time>2026-05-02T15:48:41.154Z</time></trkpt><trkpt lat="41.0379358" lon="9.4341329"><ele>26.0</ele><time>2026-05-02T15:48:42.154Z</time></trkpt><trkpt lat="41.0377235" lon="9.4340692"><ele>26.0</ele><time>2026-05-02T15:48:43.153Z</time></trkpt><trkpt lat="41.0375074" lon="9.4340011"><ele>26.333333333333332</ele><time>2026-05-02T15:48:44.153Z</time></trkpt><trkpt lat="41.0372915" lon="9.4339301"><ele>26.666666666666664</ele><time>2026-05-02T15:48:45.154Z</time></trkpt><trkpt lat="41.0370729" lon="9.4338565"><ele>27.0</ele><time>2026-05-02T15:48:46.153Z</time></trkpt><trkpt lat="41.0368506" lon="9.4337809"><ele>26.5</ele><time>2026-05-02T15:48:47.153Z</time></trkpt><trkpt lat="41.0366263" lon="9.4337075"><ele>26.0</ele><time>2026-05-02T15:48:48.153Z</time></trkpt><trkpt lat="41.0364018" lon="9.433633"><ele>26.0</ele><time>2026-05-02T15:48:49.154Z</time></trkpt><trkpt lat="41.0361829" lon="9.4335607"><ele>26.0</ele><time>2026-05-02T15:48:50.154Z</time></trkpt><trkpt lat="41.0359826" lon="9.4334937"><ele>26.0</ele><time>2026-05-02T15:48:51.154Z</time></trkpt><trkpt lat="41.0358057" lon="9.4334369"><ele>25.666666666666664</ele><time>2026-05-02T15:48:52.153Z</time></trkpt><trkpt lat="41.0356353" lon="9.4333919"><ele>25.333333333333336</ele><time>2026-05-02T15:48:53.154Z</time></trkpt><trkpt lat="41.0354798" lon="9.4333857"><ele>25.0</ele><time>2026-05-02T15:48:54.154Z</time></trkpt><trkpt lat="41.0353247" lon="9.4334353"><ele>25.0</ele><time>2026-05-02T15:48:55.154Z</time></trkpt><trkpt lat="41.0351811" lon="9.4335258"><ele>25.0</ele><time>2026-05-02T15:48:56.153Z</time></trkpt><trkpt lat="41.0350353" lon="9.4336166"><ele>25.0</ele><time>2026-05-02T15:48:57.153Z</time></trkpt><trkpt lat="41.034883" lon="9.4336667"><ele>26.333333333333336</ele><time>2026-05-02T15:48:58.153Z</time></trkpt><trkpt lat="41.0347189" lon="9.4336727"><ele>27.666666666666664</ele><time>2026-05-02T15:48:59.154Z</time></trkpt><trkpt lat="41.0345459" lon="9.4336521"><ele>29.0</ele><time>2026-05-02T15:49:00.154Z</time></trkpt><trkpt lat="41.0343808" lon="9.43361"><ele>29.0</ele><time>2026-05-02T15:49:01.154Z</time></trkpt><trkpt lat="41.0342388" lon="9.4335336"><ele>29.0</ele><time>2026-05-02T15:49:02.154Z</time></trkpt><trkpt lat="41.03412" lon="9.4334076"><ele>29.0</ele><time>2026-05-02T15:49:03.154Z</time></trkpt><trkpt lat="41.0340108" lon="9.4332537"><ele>28.0</ele><time>2026-05-02T15:49:04.153Z</time></trkpt><trkpt lat="41.0338846" lon="9.4331092"><ele>27.0</ele><time>2026-05-02T15:49:05.154Z</time></trkpt><trkpt lat="41.0337355" lon="9.4329902"><ele>26.0</ele><time>2026-05-02T15:49:06.153Z</time></trkpt><trkpt lat="41.0335674" lon="9.4328921"><ele>26.0</ele><time>2026-05-02T15:49:07.154Z</time></trkpt><trkpt lat="41.0334044" lon="9.4328049"><ele>26.0</ele><time>2026-05-02T15:49:08.153Z</time></trkpt><trkpt lat="41.0332444" lon="9.4327173"><ele>26.0</ele><time>2026-05-02T15:49:09.153Z</time></trkpt><trkpt lat="41.0330826" lon="9.4326319"><ele>27.666666666666664</ele><time>2026-05-02T15:49:10.153Z</time></trkpt><trkpt lat="41.032921" lon="9.4325448"><ele>29.333333333333336</ele><time>2026-05-02T15:49:11.154Z</time></trkpt><trkpt lat="41.0327461" lon="9.4324594"><ele>31.0</ele><time>2026-05-02T15:49:12.154Z</time></trkpt><trkpt lat="41.0325397" lon="9.4323753"><ele>33.0</ele><time>2026-05-02T15:49:13.154Z</time></trkpt><trkpt lat="41.0323171" lon="9.4322869"><ele>35.0</ele><time>2026-05-02T15:49:14.153Z</time></trkpt><trkpt lat="41.0321055" lon="9.432212"><ele>35.0</ele><time>2026-05-02T15:49:15.153Z</time></trkpt><trkpt lat="41.0319038" lon="9.432141"><ele>35.0</ele><time>2026-05-02T15:49:16.153Z</time></trkpt><trkpt lat="41.0317092" lon="9.4320627"><ele>35.0</ele><time>2026-05-02T15:49:17.153Z</time></trkpt><trkpt lat="41.0315217" lon="9.4319649"><ele>34.666666666666664</ele><time>2026-05-02T15:49:18.154Z</time></trkpt><trkpt lat="41.0313475" lon="9.4318418"><ele>34.333333333333336</ele><time>2026-05-02T15:49:19.153Z</time></trkpt><trkpt lat="41.0311853" lon="9.431702"><ele>34.0</ele><time>2026-05-02T15:49:20.153Z</time></trkpt><trkpt lat="41.0310177" lon="9.4315743"><ele>34.0</ele><time>2026-05-02T15:49:21.154Z</time></trkpt><trkpt lat="41.0308412" lon="9.431466"><ele>34.0</ele><time>2026-05-02T15:49:22.153Z</time></trkpt><trkpt lat="41.0306592" lon="9.431373"><ele>34.0</ele><time>2026-05-02T15:49:23.154Z</time></trkpt><trkpt lat="41.0304725" lon="9.4312912"><ele>33.0</ele><time>2026-05-02T15:49:24.154Z</time></trkpt><trkpt lat="41.0302823" lon="9.431219"><ele>32.0</ele><time>2026-05-02T15:49:25.154Z</time></trkpt><trkpt lat="41.0300978" lon="9.4311605"><ele>31.0</ele><time>2026-05-02T15:49:26.153Z</time></trkpt><trkpt lat="41.0299205" lon="9.4311137"><ele>31.0</ele><time>2026-05-02T15:49:27.154Z</time></trkpt><trkpt lat="41.0297478" lon="9.4310836"><ele>31.0</ele><time>2026-05-02T15:49:28.154Z</time></trkpt><trkpt lat="41.0295798" lon="9.4310682"><ele>31.0</ele><time>2026-05-02T15:49:29.154Z</time></trkpt><trkpt lat="41.0294219" lon="9.4310589"><ele>31.0</ele><time>2026-05-02T15:49:30.153Z</time></trkpt><trkpt lat="41.0292712" lon="9.4310527"><ele>31.0</ele><time>2026-05-02T15:49:31.153Z</time></trkpt><trkpt lat="41.0291286" lon="9.4310475"><ele>31.0</ele><time>2026-05-02T15:49:32.153Z</time></trkpt><trkpt lat="41.0289842" lon="9.4310362"><ele>31.0</ele><time>2026-05-02T15:49:33.154Z</time></trkpt><trkpt lat="41.0288432" lon="9.4310116"><ele>31.5</ele><time>2026-05-02T15:49:34.153Z</time></trkpt><trkpt lat="41.0287029" lon="9.4309675"><ele>32.0</ele><time>2026-05-02T15:49:35.154Z</time></trkpt><trkpt lat="41.028567" lon="9.4309016"><ele>32.5</ele><time>2026-05-02T15:49:36.154Z</time></trkpt><trkpt lat="41.0284325" lon="9.430829"><ele>33.0</ele><time>2026-05-02T15:49:37.154Z</time></trkpt><trkpt lat="41.0282918" lon="9.4307685"><ele>33.0</ele><time>2026-05-02T15:49:38.154Z</time></trkpt><trkpt lat="41.0281444" lon="9.4307352"><ele>33.0</ele><time>2026-05-02T15:49:39.154Z</time></trkpt><trkpt lat="41.0279929" lon="9.4307223"><ele>33.0</ele><time>2026-05-02T15:49:40.153Z</time></trkpt><trkpt lat="41.0278486" lon="9.4307018"><ele>33.0</ele><time>2026-05-02T15:49:41.153Z</time></trkpt><trkpt lat="41.0277127" lon="9.4306544"><ele>33.0</ele><time>2026-05-02T15:49:42.154Z</time></trkpt><trkpt lat="41.0275838" lon="9.4305772"><ele>33.0</ele><time>2026-05-02T15:49:43.154Z</time></trkpt><trkpt lat="41.0274649" lon="9.430475"><ele>33.0</ele><time>2026-05-02T15:49:44.153Z</time></trkpt><trkpt lat="41.0273489" lon="9.4303616"><ele>33.0</ele><time>2026-05-02T15:49:45.154Z</time></trkpt><trkpt lat="41.0272292" lon="9.4302513"><ele>33.0</ele><time>2026-05-02T15:49:46.154Z</time></trkpt><trkpt lat="41.0270982" lon="9.430156"><ele>33.0</ele><time>2026-05-02T15:49:47.154Z</time></trkpt><trkpt lat="41.0269591" lon="9.4300769"><ele>33.0</ele><time>2026-05-02T15:49:48.153Z</time></trkpt><trkpt lat="41.0268154" lon="9.4300069"><ele>33.0</ele><time>2026-05-02T15:49:49.154Z</time></trkpt><trkpt lat="41.0266701" lon="9.4299398"><ele>33.0</ele><time>2026-05-02T15:49:50.154Z</time></trkpt><trkpt lat="41.0265221" lon="9.4298763"><ele>33.0</ele><time>2026-05-02T15:49:51.153Z</time></trkpt><trkpt lat="41.0263731" lon="9.4298141"><ele>32.333333333333336</ele><time>2026-05-02T15:49:52.154Z</time></trkpt><trkpt lat="41.0262324" lon="9.4297496"><ele>31.666666666666668</ele><time>2026-05-02T15:49:53.153Z</time></trkpt><trkpt lat="41.0260898" lon="9.4296823"><ele>31.0</ele><time>2026-05-02T15:49:54.154Z</time></trkpt><trkpt lat="41.0259471" lon="9.4296147"><ele>31.0</ele><time>2026-05-02T15:49:55.154Z</time></trkpt><trkpt lat="41.0258032" lon="9.4295425"><ele>31.0</ele><time>2026-05-02T15:49:56.153Z</time></trkpt><trkpt lat="41.0256536" lon="9.4294634"><ele>31.0</ele><time>2026-05-02T15:49:57.154Z</time></trkpt><trkpt lat="41.0254912" lon="9.4293745"><ele>31.0</ele><time>2026-05-02T15:49:58.154Z</time></trkpt><trkpt lat="41.0253147" lon="9.4292792"><ele>31.0</ele><time>2026-05-02T15:49:59.153Z</time></trkpt><trkpt lat="41.0251288" lon="9.4291789"><ele>31.0</ele><time>2026-05-02T15:50:00.153Z</time></trkpt><trkpt lat="41.0249265" lon="9.4290685"><ele>31.333333333333336</ele><time>2026-05-02T15:50:01.154Z</time></trkpt><trkpt lat="41.0247156" lon="9.4289485"><ele>31.666666666666664</ele><time>2026-05-02T15:50:02.153Z</time></trkpt><trkpt lat="41.0245191" lon="9.4288297"><ele>32.0</ele><time>2026-05-02T15:50:03.153Z</time></trkpt><trkpt lat="41.0243349" lon="9.4287162"><ele>32.0</ele><time>2026-05-02T15:50:04.154Z</time></trkpt><trkpt lat="41.0241633" lon="9.4286048"><ele>32.0</ele><time>2026-05-02T15:50:05.153Z</time></trkpt><trkpt lat="41.0240079" lon="9.428505"><ele>32.0</ele><time>2026-05-02T15:50:06.154Z</time></trkpt><trkpt lat="41.0238709" lon="9.428419"><ele>33.25</ele><time>2026-05-02T15:50:07.154Z</time></trkpt><trkpt lat="41.023742" lon="9.4283389"><ele>34.5</ele><time>2026-05-02T15:50:08.153Z</time></trkpt><trkpt lat="41.0236193" lon="9.4282621"><ele>35.75</ele><time>2026-05-02T15:50:09.153Z</time></trkpt><trkpt lat="41.0234902" lon="9.4281828"><ele>37.0</ele><time>2026-05-02T15:50:10.153Z</time></trkpt><trkpt lat="41.0233574" lon="9.4281038"><ele>36.0</ele><time>2026-05-02T15:50:11.154Z</time></trkpt><trkpt lat="41.0232251" lon="9.4280286"><ele>35.0</ele><time>2026-05-02T15:50:12.154Z</time></trkpt><trkpt lat="41.0230906" lon="9.427958"><ele>34.0</ele><time>2026-05-02T15:50:13.153Z</time></trkpt><trkpt lat="41.022953" lon="9.4278946"><ele>33.0</ele><time>2026-05-02T15:50:14.153Z</time></trkpt><trkpt lat="41.0228147" lon="9.4278372"><ele>33.0</ele><time>2026-05-02T15:50:15.154Z</time></trkpt><trkpt lat="41.0226727" lon="9.4277862"><ele>33.0</ele><time>2026-05-02T15:50:16.154Z</time></trkpt><trkpt lat="41.022527" lon="9.4277533"><ele>33.0</ele><time>2026-05-02T15:50:17.153Z</time></trkpt><trkpt lat="41.022378" lon="9.4277377"><ele>33.0</ele><time>2026-05-02T15:50:18.154Z</time></trkpt><trkpt lat="41.0222228" lon="9.4277447"><ele>33.333333333333336</ele><time>2026-05-02T15:50:19.153Z</time></trkpt><trkpt lat="41.0220537" lon="9.4277787"><ele>33.66666666666667</ele><time>2026-05-02T15:50:20.154Z</time></trkpt><trkpt lat="41.0218572" lon="9.427825"><ele>34.0</ele><time>2026-05-02T15:50:21.154Z</time></trkpt><trkpt lat="41.0216524" lon="9.4278578"><ele>34.0</ele><time>2026-05-02T15:50:22.154Z</time></trkpt><trkpt lat="41.021465" lon="9.4278828"><ele>34.0</ele><time>2026-05-02T15:50:23.154Z</time></trkpt><trkpt lat="41.02129" lon="9.4279091"><ele>34.0</ele><time>2026-05-02T15:50:24.154Z</time></trkpt><trkpt lat="41.0211277" lon="9.4279407"><ele>34.75</ele><time>2026-05-02T15:50:25.153Z</time></trkpt><trkpt lat="41.020979" lon="9.4279807"><ele>35.5</ele><time>2026-05-02T15:50:26.153Z</time></trkpt><trkpt lat="41.0208471" lon="9.428046"><ele>36.25</ele><time>2026-05-02T15:50:27.154Z</time></trkpt><trkpt lat="41.0207223" lon="9.4281381"><ele>37.0</ele><time>2026-05-02T15:50:28.154Z</time></trkpt><trkpt lat="41.0206016" lon="9.4282384"><ele>37.0</ele><time>2026-05-02T15:50:29.154Z</time></trkpt><trkpt lat="41.0204894" lon="9.4283284"><ele>37.0</ele><time>2026-05-02T15:50:30.154Z</time></trkpt><trkpt lat="41.0203768" lon="9.4284246"><ele>37.0</ele><time>2026-05-02T15:50:31.153Z</time></trkpt><trkpt lat="41.0202631" lon="9.4285234"><ele>37.0</ele><time>2026-05-02T15:50:32.153Z</time></trkpt><trkpt lat="41.0201469" lon="9.4286235"><ele>37.0</ele><time>2026-05-02T15:50:33.153Z</time></trkpt><trkpt lat="41.0200311" lon="9.4287175"><ele>37.0</ele><time>2026-05-02T15:50:34.153Z</time></trkpt><trkpt lat="41.019915" lon="9.4288046"><ele>37.0</ele><time>2026-05-02T15:50:35.154Z</time></trkpt><trkpt lat="41.0197901" lon="9.4288772"><ele>37.0</ele><time>2026-05-02T15:50:36.153Z</time></trkpt><trkpt lat="41.0196571" lon="9.4289292"><ele>38.5</ele><time>2026-05-02T15:50:37.154Z</time></trkpt><trkpt lat="41.0195163" lon="9.4289545"><ele>40.0</ele><time>2026-05-02T15:50:38.154Z</time></trkpt><trkpt lat="41.0193733" lon="9.4289565"><ele>41.5</ele><time>2026-05-02T15:50:39.153Z</time></trkpt><trkpt lat="41.0192235" lon="9.428939"><ele>43.0</ele><time>2026-05-02T15:50:40.154Z</time></trkpt><trkpt lat="41.0190727" lon="9.4289114"><ele>43.66666666666667</ele><time>2026-05-02T15:50:41.153Z</time></trkpt><trkpt lat="41.0189193" lon="9.4288731"><ele>44.333333333333336</ele><time>2026-05-02T15:50:42.154Z</time></trkpt><trkpt lat="41.0187727" lon="9.428823"><ele>45.0</ele><time>2026-05-02T15:50:43.154Z</time></trkpt><trkpt lat="41.0186324" lon="9.4287715"><ele>42.0</ele><time>2026-05-02T15:50:44.153Z</time></trkpt><trkpt lat="41.0184807" lon="9.428738"><ele>39.0</ele><time>2026-05-02T15:50:45.154Z</time></trkpt><trkpt lat="41.0183034" lon="9.4287239"><ele>36.0</ele><time>2026-05-02T15:50:46.153Z</time></trkpt><trkpt lat="41.0181209" lon="9.4287279"><ele>35.666666666666664</ele><time>2026-05-02T15:50:47.154Z</time></trkpt><trkpt lat="41.0179537" lon="9.4287333"><ele>35.33333333333333</ele><time>2026-05-02T15:50:48.154Z</time></trkpt><trkpt lat="41.0177936" lon="9.428711"><ele>35.0</ele><time>2026-05-02T15:50:49.153Z</time></trkpt><trkpt lat="41.0176453" lon="9.4286675"><ele>35.0</ele><time>2026-05-02T15:50:50.153Z</time></trkpt><trkpt lat="41.017504" lon="9.4286173"><ele>35.0</ele><time>2026-05-02T15:50:51.153Z</time></trkpt><trkpt lat="41.0173616" lon="9.4285732"><ele>35.0</ele><time>2026-05-02T15:50:52.154Z</time></trkpt><trkpt lat="41.0172225" lon="9.4285559"><ele>35.0</ele><time>2026-05-02T15:50:53.154Z</time></trkpt><trkpt lat="41.0170828" lon="9.4285677"><ele>35.0</ele><time>2026-05-02T15:50:54.154Z</time></trkpt><trkpt lat="41.0169466" lon="9.428606"><ele>35.0</ele><time>2026-05-02T15:50:55.154Z</time></trkpt><trkpt lat="41.0168003" lon="9.4286824"><ele>35.0</ele><time>2026-05-02T15:50:56.154Z</time></trkpt><trkpt lat="41.0166354" lon="9.4287848"><ele>37.0</ele><time>2026-05-02T15:50:57.154Z</time></trkpt><trkpt lat="41.0164537" lon="9.4288856"><ele>39.0</ele><time>2026-05-02T15:50:58.154Z</time></trkpt><trkpt lat="41.016258" lon="9.4289633"><ele>41.0</ele><time>2026-05-02T15:50:59.154Z</time></trkpt><trkpt lat="41.01604" lon="9.4290125"><ele>39.5</ele><time>2026-05-02T15:51:00.154Z</time></trkpt><trkpt lat="41.0158081" lon="9.4290539"><ele>38.0</ele><time>2026-05-02T15:51:01.153Z</time></trkpt><trkpt lat="41.0155867" lon="9.4290959"><ele>38.0</ele><time>2026-05-02T15:51:02.154Z</time></trkpt><trkpt lat="41.0153814" lon="9.4291374"><ele>38.0</ele><time>2026-05-02T15:51:03.153Z</time></trkpt><trkpt lat="41.0151865" lon="9.4291595"><ele>38.0</ele><time>2026-05-02T15:51:04.153Z</time></trkpt><trkpt lat="41.0149934" lon="9.4291362"><ele>39.33333333333333</ele><time>2026-05-02T15:51:05.153Z</time></trkpt><trkpt lat="41.0147999" lon="9.4290907"><ele>40.666666666666664</ele><time>2026-05-02T15:51:06.154Z</time></trkpt><trkpt lat="41.0146044" lon="9.4290391"><ele>42.0</ele><time>2026-05-02T15:51:07.153Z</time></trkpt><trkpt lat="41.0144073" lon="9.4289874"><ele>42.0</ele><time>2026-05-02T15:51:08.154Z</time></trkpt><trkpt lat="41.0142128" lon="9.4289331"><ele>42.0</ele><time>2026-05-02T15:51:09.154Z</time></trkpt><trkpt lat="41.0140312" lon="9.4288783"><ele>42.0</ele><time>2026-05-02T15:51:10.154Z</time></trkpt><trkpt lat="41.0138632" lon="9.4288476"><ele>44.33333333333333</ele><time>2026-05-02T15:51:11.153Z</time></trkpt><trkpt lat="41.0137037" lon="9.4288638"><ele>46.666666666666664</ele><time>2026-05-02T15:51:12.153Z</time></trkpt><trkpt lat="41.013552" lon="9.4289305"><ele>49.0</ele><time>2026-05-02T15:51:13.153Z</time></trkpt><trkpt lat="41.0134012" lon="9.429026"><ele>48.666666666666664</ele><time>2026-05-02T15:51:14.153Z</time></trkpt><trkpt lat="41.0132386" lon="9.4291099"><ele>48.33333333333333</ele><time>2026-05-02T15:51:15.154Z</time></trkpt><trkpt lat="41.013062" lon="9.429183"><ele>48.0</ele><time>2026-05-02T15:51:16.153Z</time></trkpt><trkpt lat="41.012881" lon="9.4292528"><ele>48.0</ele><time>2026-05-02T15:51:17.154Z</time></trkpt><trkpt lat="41.0126991" lon="9.4293225"><ele>48.0</ele><time>2026-05-02T15:51:18.154Z</time></trkpt><trkpt lat="41.0125142" lon="9.4293886"><ele>48.0</ele><time>2026-05-02T15:51:19.153Z</time></trkpt><trkpt lat="41.0123323" lon="9.4294522"><ele>49.66666666666667</ele><time>2026-05-02T15:51:20.153Z</time></trkpt><trkpt lat="41.0121581" lon="9.429512"><ele>51.333333333333336</ele><time>2026-05-02T15:51:21.154Z</time></trkpt><trkpt lat="41.0119916" lon="9.429574"><ele>53.0</ele><time>2026-05-02T15:51:22.154Z</time></trkpt><trkpt lat="41.0118316" lon="9.4296411"><ele>52.66666666666667</ele><time>2026-05-02T15:51:23.154Z</time></trkpt><trkpt lat="41.0116776" lon="9.4297284"><ele>52.33333333333333</ele><time>2026-05-02T15:51:24.154Z</time></trkpt><trkpt lat="41.0115337" lon="9.4298434"><ele>52.0</ele><time>2026-05-02T15:51:25.154Z</time></trkpt><trkpt lat="41.0113997" lon="9.4299792"><ele>55.33333333333333</ele><time>2026-05-02T15:51:26.153Z</time></trkpt><trkpt lat="41.0112673" lon="9.4301194"><ele>58.66666666666667</ele><time>2026-05-02T15:51:27.153Z</time></trkpt><trkpt lat="41.0111311" lon="9.4302519"><ele>62.0</ele><time>2026-05-02T15:51:28.153Z</time></trkpt><trkpt lat="41.0109859" lon="9.430358"><ele>62.0</ele><time>2026-05-02T15:51:29.154Z</time></trkpt><trkpt lat="41.0108378" lon="9.4304397"><ele>62.0</ele><time>2026-05-02T15:51:30.154Z</time></trkpt><trkpt lat="41.0106914" lon="9.430522"><ele>62.0</ele><time>2026-05-02T15:51:31.153Z</time></trkpt><trkpt lat="41.0105463" lon="9.4306226"><ele>62.0</ele><time>2026-05-02T15:51:32.154Z</time></trkpt><trkpt lat="41.010401" lon="9.4307359"><ele>62.0</ele><time>2026-05-02T15:51:33.153Z</time></trkpt><trkpt lat="41.0102541" lon="9.4308558"><ele>62.0</ele><time>2026-05-02T15:51:34.154Z</time></trkpt><trkpt lat="41.0101055" lon="9.4309812"><ele>61.66666666666667</ele><time>2026-05-02T15:51:35.153Z</time></trkpt><trkpt lat="41.0099548" lon="9.4311087"><ele>61.33333333333333</ele><time>2026-05-02T15:51:36.153Z</time></trkpt><trkpt lat="41.0098035" lon="9.4312381"><ele>61.0</ele><time>2026-05-02T15:51:37.154Z</time></trkpt><trkpt lat="41.0096556" lon="9.4313775"><ele>61.666666666666664</ele><time>2026-05-02T15:51:38.153Z</time></trkpt><trkpt lat="41.0095104" lon="9.4315255"><ele>62.33333333333333</ele><time>2026-05-02T15:51:39.153Z</time></trkpt><trkpt lat="41.0093706" lon="9.4316809"><ele>63.0</ele><time>2026-05-02T15:51:40.153Z</time></trkpt><trkpt lat="41.0092444" lon="9.4318505"><ele>66.33333333333333</ele><time>2026-05-02T15:51:41.153Z</time></trkpt><trkpt lat="41.0091422" lon="9.4320278"><ele>69.66666666666666</ele><time>2026-05-02T15:51:42.154Z</time></trkpt><trkpt lat="41.0090454" lon="9.4321973"><ele>73.0</ele><time>2026-05-02T15:51:43.154Z</time></trkpt><trkpt lat="41.0089309" lon="9.4323352"><ele>73.0</ele><time>2026-05-02T15:51:44.154Z</time></trkpt><trkpt lat="41.0087991" lon="9.4324397"><ele>73.0</ele><time>2026-05-02T15:51:45.153Z</time></trkpt><trkpt lat="41.0086479" lon="9.4325284"><ele>73.0</ele><time>2026-05-02T15:51:46.153Z</time></trkpt><trkpt lat="41.0084839" lon="9.4326068"><ele>73.33333333333333</ele><time>2026-05-02T15:51:47.154Z</time></trkpt><trkpt lat="41.0083212" lon="9.4326737"><ele>73.66666666666667</ele><time>2026-05-02T15:51:48.154Z</time></trkpt><trkpt lat="41.0081587" lon="9.4327378"><ele>74.0</ele><time>2026-05-02T15:51:49.154Z</time></trkpt><trkpt lat="41.007996" lon="9.432814"><ele>74.0</ele><time>2026-05-02T15:51:50.154Z</time></trkpt><trkpt lat="41.0078385" lon="9.4329075"><ele>74.0</ele><time>2026-05-02T15:51:51.154Z</time></trkpt><trkpt lat="41.0076942" lon="9.4330064"><ele>74.0</ele><time>2026-05-02T15:51:52.153Z</time></trkpt><trkpt lat="41.0075699" lon="9.4331074"><ele>72.5</ele><time>2026-05-02T15:51:53.154Z</time></trkpt><trkpt lat="41.0074621" lon="9.4332346"><ele>71.0</ele><time>2026-05-02T15:51:54.153Z</time></trkpt><trkpt lat="41.0073765" lon="9.4333934"><ele>69.5</ele><time>2026-05-02T15:51:55.153Z</time></trkpt><trkpt lat="41.0073077" lon="9.4335742"><ele>68.0</ele><time>2026-05-02T15:51:56.153Z</time></trkpt><trkpt lat="41.0072414" lon="9.4337714"><ele>68.33333333333334</ele><time>2026-05-02T15:51:57.154Z</time></trkpt><trkpt lat="41.0071715" lon="9.4339788"><ele>68.66666666666667</ele><time>2026-05-02T15:51:58.153Z</time></trkpt><trkpt lat="41.0070984" lon="9.4341938"><ele>69.0</ele><time>2026-05-02T15:51:59.154Z</time></trkpt><trkpt lat="41.0070252" lon="9.434414"><ele>71.66666666666667</ele><time>2026-05-02T15:52:00.154Z</time></trkpt><trkpt lat="41.0069493" lon="9.4346418"><ele>74.33333333333334</ele><time>2026-05-02T15:52:01.154Z</time></trkpt><trkpt lat="41.0068693" lon="9.434877"><ele>77.0</ele><time>2026-05-02T15:52:02.153Z</time></trkpt><trkpt lat="41.0067897" lon="9.4351163"><ele>77.0</ele><time>2026-05-02T15:52:03.153Z</time></trkpt><trkpt lat="41.0067164" lon="9.4353409"><ele>77.0</ele><time>2026-05-02T15:52:04.154Z</time></trkpt><trkpt lat="41.0066457" lon="9.4355534"><ele>77.0</ele><time>2026-05-02T15:52:05.154Z</time></trkpt><trkpt lat="41.0065792" lon="9.4357401"><ele>76.75</ele><time>2026-05-02T15:52:06.153Z</time></trkpt><trkpt lat="41.0064994" lon="9.4358962"><ele>76.5</ele><time>2026-05-02T15:52:07.154Z</time></trkpt><trkpt lat="41.0063953" lon="9.4360091"><ele>76.25</ele><time>2026-05-02T15:52:08.153Z</time></trkpt><trkpt lat="41.0062832" lon="9.4360654"><ele>76.0</ele><time>2026-05-02T15:52:09.154Z</time></trkpt><trkpt lat="41.0061594" lon="9.4360681"><ele>76.0</ele><time>2026-05-02T15:52:10.153Z</time></trkpt><trkpt lat="41.0060318" lon="9.4360254"><ele>76.0</ele><time>2026-05-02T15:52:11.153Z</time></trkpt><trkpt lat="41.0058962" lon="9.4359758"><ele>76.0</ele><time>2026-05-02T15:52:12.154Z</time></trkpt><trkpt lat="41.0057489" lon="9.4359778"><ele>76.0</ele><time>2026-05-02T15:52:13.153Z</time></trkpt><trkpt lat="41.0056011" lon="9.4360379"><ele>77.33333333333333</ele><time>2026-05-02T15:52:14.153Z</time></trkpt><trkpt lat="41.0054595" lon="9.4361419"><ele>78.66666666666667</ele><time>2026-05-02T15:52:15.154Z</time></trkpt><trkpt lat="41.0053158" lon="9.436267"><ele>80.0</ele><time>2026-05-02T15:52:16.153Z</time></trkpt><trkpt lat="41.0051701" lon="9.4364083"><ele>80.0</ele><time>2026-05-02T15:52:17.154Z</time></trkpt><trkpt lat="41.0050243" lon="9.4365623"><ele>80.0</ele><time>2026-05-02T15:52:18.153Z</time></trkpt><trkpt lat="41.0048761" lon="9.4367242"><ele>80.0</ele><time>2026-05-02T15:52:19.153Z</time></trkpt><trkpt lat="41.0047279" lon="9.4368903"><ele>79.66666666666667</ele><time>2026-05-02T15:52:20.153Z</time></trkpt><trkpt lat="41.0045778" lon="9.4370592"><ele>79.33333333333333</ele><time>2026-05-02T15:52:21.154Z</time></trkpt><trkpt lat="41.0044279" lon="9.4372252"><ele>79.0</ele><time>2026-05-02T15:52:22.153Z</time></trkpt><trkpt lat="41.0042815" lon="9.4373861"><ele>77.66666666666666</ele><time>2026-05-02T15:52:23.153Z</time></trkpt><trkpt lat="41.004149" lon="9.4375404"><ele>76.33333333333333</ele><time>2026-05-02T15:52:24.154Z</time></trkpt><trkpt lat="41.0040296" lon="9.4376901"><ele>75.0</ele><time>2026-05-02T15:52:25.154Z</time></trkpt><trkpt lat="41.0039197" lon="9.4378485"><ele>75.66666666666667</ele><time>2026-05-02T15:52:26.153Z</time></trkpt><trkpt lat="41.0038331" lon="9.438018"><ele>76.33333333333334</ele><time>2026-05-02T15:52:27.154Z</time></trkpt><trkpt lat="41.0037682" lon="9.4382012"><ele>77.0</ele><time>2026-05-02T15:52:28.153Z</time></trkpt><trkpt lat="41.0037041" lon="9.4383804"><ele>77.0</ele><time>2026-05-02T15:52:29.153Z</time></trkpt><trkpt lat="41.0036172" lon="9.4385406"><ele>77.0</ele><time>2026-05-02T15:52:30.153Z</time></trkpt><trkpt lat="41.0035058" lon="9.4386833"><ele>77.0</ele><time>2026-05-02T15:52:31.153Z</time></trkpt><trkpt lat="41.003379" lon="9.4388222"><ele>77.66666666666667</ele><time>2026-05-02T15:52:32.154Z</time></trkpt><trkpt lat="41.0032448" lon="9.4389484"><ele>78.33333333333333</ele><time>2026-05-02T15:52:33.153Z</time></trkpt><trkpt lat="41.0031003" lon="9.4390576"><ele>79.0</ele><time>2026-05-02T15:52:34.153Z</time></trkpt><trkpt lat="41.0029478" lon="9.4391414"><ele>79.0</ele><time>2026-05-02T15:52:35.154Z</time></trkpt><trkpt lat="41.0027903" lon="9.4392242"><ele>79.0</ele><time>2026-05-02T15:52:36.153Z</time></trkpt><trkpt lat="41.0026337" lon="9.4393463"><ele>79.0</ele><time>2026-05-02T15:52:37.153Z</time></trkpt><trkpt lat="41.0024767" lon="9.4394936"><ele>79.33333333333333</ele><time>2026-05-02T15:52:38.154Z</time></trkpt><trkpt lat="41.0023075" lon="9.4396523"><ele>79.66666666666667</ele><time>2026-05-02T15:52:39.153Z</time></trkpt><trkpt lat="41.0021292" lon="9.4398264"><ele>80.0</ele><time>2026-05-02T15:52:40.154Z</time></trkpt><trkpt lat="41.001983" lon="9.4399893"><ele>80.0</ele><time>2026-05-02T15:52:41.154Z</time></trkpt><trkpt lat="41.0018647" lon="9.4401751"><ele>80.0</ele><time>2026-05-02T15:52:42.153Z</time></trkpt><trkpt lat="41.001772" lon="9.4404084"><ele>80.0</ele><time>2026-05-02T15:52:43.153Z</time></trkpt><trkpt lat="41.0016904" lon="9.4406658"><ele>82.0</ele><time>2026-05-02T15:52:44.153Z</time></trkpt><trkpt lat="41.0015976" lon="9.4409137"><ele>84.0</ele><time>2026-05-02T15:52:45.154Z</time></trkpt><trkpt lat="41.0014719" lon="9.4411342"><ele>86.0</ele><time>2026-05-02T15:52:46.154Z</time></trkpt><trkpt lat="41.0013163" lon="9.4413319"><ele>88.0</ele><time>2026-05-02T15:52:47.153Z</time></trkpt><trkpt lat="41.0011438" lon="9.4415216"><ele>90.0</ele><time>2026-05-02T15:52:48.154Z</time></trkpt><trkpt lat="41.0009972" lon="9.4416852"><ele>92.0</ele><time>2026-05-02T15:52:49.153Z</time></trkpt><trkpt lat="41.0008684" lon="9.4418503"><ele>93.0</ele><time>2026-05-02T15:52:50.153Z</time></trkpt><trkpt lat="41.0007724" lon="9.4420409"><ele>94.0</ele><time>2026-05-02T15:52:51.154Z</time></trkpt><trkpt lat="41.0007002" lon="9.4422753"><ele>95.0</ele><time>2026-05-02T15:52:52.154Z</time></trkpt><trkpt lat="41.000636" lon="9.4425504"><ele>95.0</ele><time>2026-05-02T15:52:53.153Z</time></trkpt><trkpt lat="41.0005692" lon="9.4428468"><ele>95.0</ele><time>2026-05-02T15:52:54.153Z</time></trkpt><trkpt lat="41.0004964" lon="9.4431579"><ele>95.0</ele><time>2026-05-02T15:52:55.153Z</time></trkpt><trkpt lat="41.0004312" lon="9.443442"><ele>95.0</ele><time>2026-05-02T15:52:56.153Z</time></trkpt><trkpt lat="41.0003719" lon="9.4437092"><ele>95.0</ele><time>2026-05-02T15:52:57.153Z</time></trkpt><trkpt lat="41.0003211" lon="9.4439575"><ele>95.0</ele><time>2026-05-02T15:52:58.153Z</time></trkpt><trkpt lat="41.0002831" lon="9.4441917"><ele>95.0</ele><time>2026-05-02T15:52:59.153Z</time></trkpt><trkpt lat="41.0002568" lon="9.4444151"><ele>95.0</ele><time>2026-05-02T15:53:00.154Z</time></trkpt><trkpt lat="41.0002437" lon="9.4446214"><ele>96.0</ele><time>2026-05-02T15:53:01.154Z</time></trkpt><trkpt lat="41.0002383" lon="9.44481"><ele>97.0</ele><time>2026-05-02T15:53:02.153Z</time></trkpt><trkpt lat="41.0002408" lon="9.4449913"><ele>98.0</ele><time>2026-05-02T15:53:03.154Z</time></trkpt><trkpt lat="41.0002431" lon="9.4451813"><ele>99.0</ele><time>2026-05-02T15:53:04.153Z</time></trkpt><trkpt lat="41.0002265" lon="9.4453813"><ele>99.66666666666666</ele><time>2026-05-02T15:53:05.154Z</time></trkpt><trkpt lat="41.0001923" lon="9.4455991"><ele>100.33333333333333</ele><time>2026-05-02T15:53:06.154Z</time></trkpt><trkpt lat="41.0001434" lon="9.4458354"><ele>101.0</ele><time>2026-05-02T15:53:07.154Z</time></trkpt><trkpt lat="41.0000839" lon="9.4460701"><ele>101.0</ele><time>2026-05-02T15:53:08.154Z</time></trkpt><trkpt lat="41.0000226" lon="9.4462889"><ele>101.0</ele><time>2026-05-02T15:53:09.153Z</time></trkpt><trkpt lat="40.9999588" lon="9.4464904"><ele>101.0</ele><time>2026-05-02T15:53:10.153Z</time></trkpt><trkpt lat="40.9998839" lon="9.4466785"><ele>104.66666666666666</ele><time>2026-05-02T15:53:11.153Z</time></trkpt><trkpt lat="40.9998085" lon="9.44686"><ele>108.33333333333334</ele><time>2026-05-02T15:53:12.153Z</time></trkpt><trkpt lat="40.999745" lon="9.4470444"><ele>112.0</ele><time>2026-05-02T15:53:13.154Z</time></trkpt><trkpt lat="40.9996927" lon="9.4472319"><ele>115.66666666666667</ele><time>2026-05-02T15:53:14.154Z</time></trkpt><trkpt lat="40.9996555" lon="9.4474237"><ele>119.33333333333334</ele><time>2026-05-02T15:53:15.153Z</time></trkpt><trkpt lat="40.9996331" lon="9.4476337"><ele>123.0</ele><time>2026-05-02T15:53:16.153Z</time></trkpt><trkpt lat="40.9996187" lon="9.4478667"><ele>123.33333333333334</ele><time>2026-05-02T15:53:17.153Z</time></trkpt><trkpt lat="40.999612" lon="9.448134"><ele>123.66666666666667</ele><time>2026-05-02T15:53:18.153Z</time></trkpt><trkpt lat="40.9996124" lon="9.4483826"><ele>124.0</ele><time>2026-05-02T15:53:19.153Z</time></trkpt><trkpt lat="40.9996089" lon="9.4486156"><ele>126.0</ele><time>2026-05-02T15:53:20.153Z</time></trkpt><trkpt lat="40.9995866" lon="9.4488352"><ele>128.0</ele><time>2026-05-02T15:53:21.154Z</time></trkpt><trkpt lat="40.9995567" lon="9.449032"><ele>130.0</ele><time>2026-05-02T15:53:22.153Z</time></trkpt><trkpt lat="40.999515" lon="9.4492133"><ele>130.0</ele><time>2026-05-02T15:53:23.153Z</time></trkpt><trkpt lat="40.9994551" lon="9.4493834"><ele>130.0</ele><time>2026-05-02T15:53:24.153Z</time></trkpt><trkpt lat="40.9993751" lon="9.4495332"><ele>130.0</ele><time>2026-05-02T15:53:25.154Z</time></trkpt><trkpt lat="40.9992826" lon="9.4496725"><ele>130.0</ele><time>2026-05-02T15:53:26.153Z</time></trkpt><trkpt lat="40.999192" lon="9.449815"><ele>127.75</ele><time>2026-05-02T15:53:27.153Z</time></trkpt><trkpt lat="40.9991131" lon="9.4499653"><ele>125.5</ele><time>2026-05-02T15:53:28.153Z</time></trkpt><trkpt lat="40.9990579" lon="9.4501207"><ele>123.25</ele><time>2026-05-02T15:53:29.153Z</time></trkpt><trkpt lat="40.9990257" lon="9.4502882"><ele>121.0</ele><time>2026-05-02T15:53:30.153Z</time></trkpt><trkpt lat="40.9990148" lon="9.4504574"><ele>122.5</ele><time>2026-05-02T15:53:31.153Z</time></trkpt><trkpt lat="40.99901" lon="9.450632"><ele>124.0</ele><time>2026-05-02T15:53:32.154Z</time></trkpt><trkpt lat="40.9989984" lon="9.4508091"><ele>125.5</ele><time>2026-05-02T15:53:33.154Z</time></trkpt><trkpt lat="40.9989721" lon="9.4509766"><ele>127.0</ele><time>2026-05-02T15:53:34.153Z</time></trkpt><trkpt lat="40.9989331" lon="9.4511246"><ele>127.0</ele><time>2026-05-02T15:53:35.153Z</time></trkpt><trkpt lat="40.9989006" lon="9.4512812"><ele>127.0</ele><time>2026-05-02T15:53:36.153Z</time></trkpt><trkpt lat="40.9988892" lon="9.4514656"><ele>127.0</ele><time>2026-05-02T15:53:37.154Z</time></trkpt><trkpt lat="40.9988986" lon="9.4516865"><ele>127.0</ele><time>2026-05-02T15:53:38.154Z</time></trkpt><trkpt lat="40.9989186" lon="9.4519435"><ele>128.0</ele><time>2026-05-02T15:53:39.154Z</time></trkpt><trkpt lat="40.9989141" lon="9.4522078"><ele>129.0</ele><time>2026-05-02T15:53:40.153Z</time></trkpt><trkpt lat="40.99888" lon="9.4524851"><ele>130.0</ele><time>2026-05-02T15:53:41.154Z</time></trkpt><trkpt lat="40.9988296" lon="9.4528076"><ele>132.0</ele><time>2026-05-02T15:53:42.154Z</time></trkpt><trkpt lat="40.9987783" lon="9.4531077"><ele>134.0</ele><time>2026-05-02T15:53:43.154Z</time></trkpt><trkpt lat="40.9987184" lon="9.4533832"><ele>136.0</ele><time>2026-05-02T15:53:44.153Z</time></trkpt><trkpt lat="40.9986379" lon="9.4536519"><ele>137.66666666666669</ele><time>2026-05-02T15:53:45.154Z</time></trkpt><trkpt lat="40.9985456" lon="9.4539245"><ele>139.33333333333334</ele><time>2026-05-02T15:53:46.154Z</time></trkpt><trkpt lat="40.9984576" lon="9.4541802"><ele>141.0</ele><time>2026-05-02T15:53:47.153Z</time></trkpt><trkpt lat="40.9983647" lon="9.4543971"><ele>138.0</ele><time>2026-05-02T15:53:48.153Z</time></trkpt><trkpt lat="40.9982457" lon="9.4545812"><ele>135.0</ele><time>2026-05-02T15:53:49.154Z</time></trkpt><trkpt lat="40.9980988" lon="9.4547594"><ele>132.0</ele><time>2026-05-02T15:53:50.153Z</time></trkpt><trkpt lat="40.9979396" lon="9.4549444"><ele>132.0</ele><time>2026-05-02T15:53:51.154Z</time></trkpt><trkpt lat="40.9978084" lon="9.4551141"><ele>132.0</ele><time>2026-05-02T15:53:52.154Z</time></trkpt><trkpt lat="40.9977057" lon="9.4553148"><ele>132.0</ele><time>2026-05-02T15:53:53.154Z</time></trkpt><trkpt lat="40.9976292" lon="9.4555376"><ele>134.33333333333334</ele><time>2026-05-02T15:53:54.154Z</time></trkpt><trkpt lat="40.9975565" lon="9.455739"><ele>136.66666666666669</ele><time>2026-05-02T15:53:55.154Z</time></trkpt><trkpt lat="40.9974614" lon="9.4559465"><ele>139.0</ele><time>2026-05-02T15:53:56.154Z</time></trkpt><trkpt lat="40.9973425" lon="9.4561725"><ele>137.0</ele><time>2026-05-02T15:53:57.154Z</time></trkpt><trkpt lat="40.9972187" lon="9.4563843"><ele>135.0</ele><time>2026-05-02T15:53:58.154Z</time></trkpt><trkpt lat="40.9971123" lon="9.4566059"><ele>133.0</ele><time>2026-05-02T15:53:59.154Z</time></trkpt><trkpt lat="40.9970346" lon="9.4568499"><ele>133.0</ele><time>2026-05-02T15:54:00.153Z</time></trkpt><trkpt lat="40.9969899" lon="9.4570877"><ele>133.0</ele><time>2026-05-02T15:54:01.154Z</time></trkpt><trkpt lat="40.9969535" lon="9.4573028"><ele>133.0</ele><time>2026-05-02T15:54:02.154Z</time></trkpt><trkpt lat="40.9968846" lon="9.4574997"><ele>132.5</ele><time>2026-05-02T15:54:03.153Z</time></trkpt><trkpt lat="40.9967839" lon="9.4576761"><ele>132.0</ele><time>2026-05-02T15:54:04.154Z</time></trkpt><trkpt lat="40.9966832" lon="9.4578108"><ele>131.5</ele><time>2026-05-02T15:54:05.153Z</time></trkpt><trkpt lat="40.9965702" lon="9.4579011"><ele>131.0</ele><time>2026-05-02T15:54:06.154Z</time></trkpt><trkpt lat="40.9964525" lon="9.4579209"><ele>129.75</ele><time>2026-05-02T15:54:07.154Z</time></trkpt><trkpt lat="40.996321" lon="9.4578758"><ele>128.5</ele><time>2026-05-02T15:54:08.153Z</time></trkpt><trkpt lat="40.9961802" lon="9.4577785"><ele>127.25</ele><time>2026-05-02T15:54:09.153Z</time></trkpt><trkpt lat="40.9960548" lon="9.4576955"><ele>126.0</ele><time>2026-05-02T15:54:10.153Z</time></trkpt><trkpt lat="40.9959333" lon="9.4576674"><ele>126.0</ele><time>2026-05-02T15:54:11.154Z</time></trkpt><trkpt lat="40.9958226" lon="9.4577264"><ele>126.0</ele><time>2026-05-02T15:54:12.153Z</time></trkpt><trkpt lat="40.9957319" lon="9.4578402"><ele>126.0</ele><time>2026-05-02T15:54:13.154Z</time></trkpt><trkpt lat="40.9956768" lon="9.458022"><ele>126.0</ele><time>2026-05-02T15:54:14.153Z</time></trkpt><trkpt lat="40.9956251" lon="9.4582536"><ele>118.0</ele><time>2026-05-02T15:54:15.154Z</time></trkpt><trkpt lat="40.9955631" lon="9.4585316"><ele>110.0</ele><time>2026-05-02T15:54:16.153Z</time></trkpt><trkpt lat="40.9954873" lon="9.4588543"><ele>107.0</ele><time>2026-05-02T15:54:17.154Z</time></trkpt><trkpt lat="40.9954107" lon="9.4591932"><ele>104.0</ele><time>2026-05-02T15:54:18.154Z</time></trkpt><trkpt lat="40.9953396" lon="9.4595096"><ele>99.5</ele><time>2026-05-02T15:54:19.154Z</time></trkpt><trkpt lat="40.9952677" lon="9.4598165"><ele>95.0</ele><time>2026-05-02T15:54:20.154Z</time></trkpt><trkpt lat="40.9951808" lon="9.4601007"><ele>95.0</ele><time>2026-05-02T15:54:21.154Z</time></trkpt><trkpt lat="40.9950768" lon="9.4603616"><ele>95.0</ele><time>2026-05-02T15:54:22.154Z</time></trkpt><trkpt lat="40.9949825" lon="9.4606116"><ele>95.0</ele><time>2026-05-02T15:54:23.154Z</time></trkpt><trkpt lat="40.9949163" lon="9.4608665"><ele>94.66666666666667</ele><time>2026-05-02T15:54:24.153Z</time></trkpt><trkpt lat="40.9948635" lon="9.4611325"><ele>94.33333333333333</ele><time>2026-05-02T15:54:25.153Z</time></trkpt><trkpt lat="40.9947938" lon="9.4614002"><ele>94.0</ele><time>2026-05-02T15:54:26.154Z</time></trkpt><trkpt lat="40.9947115" lon="9.4616232"><ele>92.5</ele><time>2026-05-02T15:54:27.153Z</time></trkpt><trkpt lat="40.9946431" lon="9.4618065"><ele>91.0</ele><time>2026-05-02T15:54:28.154Z</time></trkpt><trkpt lat="40.994573" lon="9.461964"><ele>89.5</ele><time>2026-05-02T15:54:29.153Z</time></trkpt><trkpt lat="40.9944779" lon="9.4620686"><ele>88.0</ele><time>2026-05-02T15:54:30.153Z</time></trkpt><trkpt lat="40.9943689" lon="9.4621158"><ele>86.5</ele><time>2026-05-02T15:54:31.153Z</time></trkpt><trkpt lat="40.9942491" lon="9.4621649"><ele>85.0</ele><time>2026-05-02T15:54:32.154Z</time></trkpt><trkpt lat="40.9941389" lon="9.4622768"><ele>83.5</ele><time>2026-05-02T15:54:33.153Z</time></trkpt><trkpt lat="40.9940525" lon="9.4624356"><ele>82.0</ele><time>2026-05-02T15:54:34.153Z</time></trkpt><trkpt lat="40.9939984" lon="9.4626449"><ele>82.0</ele><time>2026-05-02T15:54:35.153Z</time></trkpt><trkpt lat="40.993947" lon="9.4628923"><ele>82.0</ele><time>2026-05-02T15:54:36.154Z</time></trkpt><trkpt lat="40.9938922" lon="9.4631594"><ele>82.0</ele><time>2026-05-02T15:54:37.154Z</time></trkpt><trkpt lat="40.9938183" lon="9.4634288"><ele>81.33333333333333</ele><time>2026-05-02T15:54:38.154Z</time></trkpt><trkpt lat="40.9937182" lon="9.4636867"><ele>80.66666666666667</ele><time>2026-05-02T15:54:39.153Z</time></trkpt><trkpt lat="40.9936124" lon="9.4639504"><ele>80.0</ele><time>2026-05-02T15:54:40.153Z</time></trkpt><trkpt lat="40.9935288" lon="9.4642411"><ele>79.5</ele><time>2026-05-02T15:54:41.154Z</time></trkpt><trkpt lat="40.9934444" lon="9.4645505"><ele>79.0</ele><time>2026-05-02T15:54:42.153Z</time></trkpt><trkpt lat="40.9933391" lon="9.4648104"><ele>81.33333333333333</ele><time>2026-05-02T15:54:43.153Z</time></trkpt><trkpt lat="40.9932206" lon="9.4650549"><ele>83.66666666666667</ele><time>2026-05-02T15:54:44.154Z</time></trkpt><trkpt lat="40.9930831" lon="9.4652857"><ele>86.0</ele><time>2026-05-02T15:54:45.154Z</time></trkpt><trkpt lat="40.9929283" lon="9.4655053"><ele>86.0</ele><time>2026-05-02T15:54:46.154Z</time></trkpt><trkpt lat="40.9927626" lon="9.4657299"><ele>86.0</ele><time>2026-05-02T15:54:47.154Z</time></trkpt><trkpt lat="40.9925948" lon="9.4659626"><ele>89.33333333333334</ele><time>2026-05-02T15:54:48.153Z</time></trkpt><trkpt lat="40.9924487" lon="9.4661666"><ele>92.66666666666667</ele><time>2026-05-02T15:54:49.154Z</time></trkpt><trkpt lat="40.9923319" lon="9.4663739"><ele>96.0</ele><time>2026-05-02T15:54:50.153Z</time></trkpt><trkpt lat="40.9922488" lon="9.4666091"><ele>96.0</ele><time>2026-05-02T15:54:51.153Z</time></trkpt><trkpt lat="40.9921697" lon="9.4668534"><ele>96.0</ele><time>2026-05-02T15:54:52.153Z</time></trkpt><trkpt lat="40.992068" lon="9.4670885"><ele>96.0</ele><time>2026-05-02T15:54:53.154Z</time></trkpt><trkpt lat="40.9919681" lon="9.4672923"><ele>97.66666666666666</ele><time>2026-05-02T15:54:54.153Z</time></trkpt><trkpt lat="40.9919045" lon="9.4675026"><ele>99.33333333333333</ele><time>2026-05-02T15:54:55.153Z</time></trkpt><trkpt lat="40.9918799" lon="9.4677352"><ele>101.0</ele><time>2026-05-02T15:54:56.154Z</time></trkpt><trkpt lat="40.9918706" lon="9.4679805"><ele>103.0</ele><time>2026-05-02T15:54:57.153Z</time></trkpt><trkpt lat="40.9918302" lon="9.4682193"><ele>105.0</ele><time>2026-05-02T15:54:58.154Z</time></trkpt><trkpt lat="40.9917585" lon="9.4684577"><ele>107.0</ele><time>2026-05-02T15:54:59.153Z</time></trkpt><trkpt lat="40.991697" lon="9.4686827"><ele>109.33333333333333</ele><time>2026-05-02T15:55:00.154Z</time></trkpt><trkpt lat="40.9916764" lon="9.4689276"><ele>111.66666666666666</ele><time>2026-05-02T15:55:01.154Z</time></trkpt><trkpt lat="40.9916951" lon="9.4691665"><ele>114.0</ele><time>2026-05-02T15:55:02.153Z</time></trkpt><trkpt lat="40.9917559" lon="9.4694032"><ele>115.33333333333334</ele><time>2026-05-02T15:55:03.154Z</time></trkpt><trkpt lat="40.9918501" lon="9.4696284"><ele>116.66666666666667</ele><time>2026-05-02T15:55:04.154Z</time></trkpt><trkpt lat="40.9919315" lon="9.469836"><ele>118.0</ele><time>2026-05-02T15:55:05.153Z</time></trkpt><trkpt lat="40.9919793" lon="9.4700574"><ele>118.0</ele><time>2026-05-02T15:55:06.153Z</time></trkpt><trkpt lat="40.991983" lon="9.4703015"><ele>118.0</ele><time>2026-05-02T15:55:07.154Z</time></trkpt><trkpt lat="40.9919504" lon="9.4705631"><ele>118.0</ele><time>2026-05-02T15:55:08.153Z</time></trkpt><trkpt lat="40.9918947" lon="9.4708452"><ele>115.33333333333334</ele><time>2026-05-02T15:55:09.153Z</time></trkpt><trkpt lat="40.9918381" lon="9.471131"><ele>112.66666666666666</ele><time>2026-05-02T15:55:10.153Z</time></trkpt><trkpt lat="40.9917859" lon="9.471401"><ele>110.0</ele><time>2026-05-02T15:55:11.153Z</time></trkpt><trkpt lat="40.9917362" lon="9.4716716"><ele>107.66666666666666</ele><time>2026-05-02T15:55:12.153Z</time></trkpt><trkpt lat="40.9916856" lon="9.4719397"><ele>105.33333333333334</ele><time>2026-05-02T15:55:13.154Z</time></trkpt><trkpt lat="40.991626" lon="9.4721963"><ele>103.0</ele><time>2026-05-02T15:55:14.154Z</time></trkpt><trkpt lat="40.9915511" lon="9.4724367"><ele>102.0</ele><time>2026-05-02T15:55:15.153Z</time></trkpt><trkpt lat="40.991458" lon="9.4726738"><ele>101.0</ele><time>2026-05-02T15:55:16.154Z</time></trkpt><trkpt lat="40.991354" lon="9.4729042"><ele>100.0</ele><time>2026-05-02T15:55:17.154Z</time></trkpt><trkpt lat="40.9912443" lon="9.4731289"><ele>99.33333333333334</ele><time>2026-05-02T15:55:18.153Z</time></trkpt><trkpt lat="40.9911472" lon="9.4733383"><ele>98.66666666666666</ele><time>2026-05-02T15:55:19.153Z</time></trkpt><trkpt lat="40.9910731" lon="9.4735556"><ele>98.0</ele><time>2026-05-02T15:55:20.153Z</time></trkpt><trkpt lat="40.991041" lon="9.4738073"><ele>96.66666666666666</ele><time>2026-05-02T15:55:21.153Z</time></trkpt><trkpt lat="40.9910248" lon="9.4740851"><ele>95.33333333333333</ele><time>2026-05-02T15:55:22.154Z</time></trkpt><trkpt lat="40.9910134" lon="9.4743663"><ele>94.0</ele><time>2026-05-02T15:55:23.153Z</time></trkpt><trkpt lat="40.9910034" lon="9.4746227"><ele>93.66666666666666</ele><time>2026-05-02T15:55:24.153Z</time></trkpt><trkpt lat="40.9909778" lon="9.4748558"><ele>93.33333333333333</ele><time>2026-05-02T15:55:25.154Z</time></trkpt><trkpt lat="40.9909206" lon="9.4750796"><ele>93.0</ele><time>2026-05-02T15:55:26.153Z</time></trkpt><trkpt lat="40.9908323" lon="9.4753122"><ele>96.5</ele><time>2026-05-02T15:55:27.154Z</time></trkpt><trkpt lat="40.990724" lon="9.4755766"><ele>100.0</ele><time>2026-05-02T15:55:28.154Z</time></trkpt><trkpt lat="40.9906116" lon="9.4758477"><ele>100.0</ele><time>2026-05-02T15:55:29.154Z</time></trkpt><trkpt lat="40.9905187" lon="9.4760967"><ele>100.0</ele><time>2026-05-02T15:55:30.154Z</time></trkpt><trkpt lat="40.9904512" lon="9.4763661"><ele>100.0</ele><time>2026-05-02T15:55:31.153Z</time></trkpt><trkpt lat="40.9904031" lon="9.4766593"><ele>102.0</ele><time>2026-05-02T15:55:32.154Z</time></trkpt><trkpt lat="40.9903589" lon="9.4769731"><ele>104.0</ele><time>2026-05-02T15:55:33.154Z</time></trkpt><trkpt lat="40.9903128" lon="9.4773054"><ele>105.5</ele><time>2026-05-02T15:55:34.153Z</time></trkpt><trkpt lat="40.990252" lon="9.4776485"><ele>107.0</ele><time>2026-05-02T15:55:35.154Z</time></trkpt><trkpt lat="40.9901784" lon="9.4780049"><ele>109.0</ele><time>2026-05-02T15:55:36.153Z</time></trkpt><trkpt lat="40.9901038" lon="9.4783767"><ele>111.0</ele><time>2026-05-02T15:55:37.153Z</time></trkpt><trkpt lat="40.9900312" lon="9.4787403"><ele>112.0</ele><time>2026-05-02T15:55:38.153Z</time></trkpt><trkpt lat="40.9899696" lon="9.4790675"><ele>113.0</ele><time>2026-05-02T15:55:39.153Z</time></trkpt><trkpt lat="40.9899207" lon="9.479375"><ele>114.5</ele><time>2026-05-02T15:55:40.154Z</time></trkpt><trkpt lat="40.9898767" lon="9.4796758"><ele>116.0</ele><time>2026-05-02T15:55:41.154Z</time></trkpt><trkpt lat="40.9898211" lon="9.4799561"><ele>116.0</ele><time>2026-05-02T15:55:42.154Z</time></trkpt><trkpt lat="40.989751" lon="9.4802054"><ele>116.0</ele><time>2026-05-02T15:55:43.153Z</time></trkpt><trkpt lat="40.9896598" lon="9.4804432"><ele>116.0</ele><time>2026-05-02T15:55:44.154Z</time></trkpt><trkpt lat="40.9895414" lon="9.4806644"><ele>117.66666666666666</ele><time>2026-05-02T15:55:45.153Z</time></trkpt><trkpt lat="40.9894148" lon="9.480891"><ele>119.33333333333334</ele><time>2026-05-02T15:55:46.154Z</time></trkpt><trkpt lat="40.9892916" lon="9.4811539"><ele>121.0</ele><time>2026-05-02T15:55:47.153Z</time></trkpt><trkpt lat="40.989167" lon="9.4814309"><ele>121.0</ele><time>2026-05-02T15:55:48.153Z</time></trkpt><trkpt lat="40.9890608" lon="9.481676"><ele>121.0</ele><time>2026-05-02T15:55:49.153Z</time></trkpt><trkpt lat="40.9889377" lon="9.4819004"><ele>121.0</ele><time>2026-05-02T15:55:50.154Z</time></trkpt><trkpt lat="40.9887826" lon="9.4821156"><ele>125.0</ele><time>2026-05-02T15:55:51.153Z</time></trkpt><trkpt lat="40.9885979" lon="9.4823347"><ele>129.0</ele><time>2026-05-02T15:55:52.154Z</time></trkpt><trkpt lat="40.9883989" lon="9.4825561"><ele>128.66666666666666</ele><time>2026-05-02T15:55:53.153Z</time></trkpt><trkpt lat="40.988224" lon="9.4827512"><ele>128.33333333333331</ele><time>2026-05-02T15:55:54.154Z</time></trkpt><trkpt lat="40.9880608" lon="9.4829335"><ele>128.0</ele><time>2026-05-02T15:55:55.153Z</time></trkpt><trkpt lat="40.9878979" lon="9.4830756"><ele>128.0</ele><time>2026-05-02T15:55:56.153Z</time></trkpt><trkpt lat="40.9877177" lon="9.4831886"><ele>128.0</ele><time>2026-05-02T15:55:57.154Z</time></trkpt><trkpt lat="40.9875111" lon="9.4832824"><ele>128.0</ele><time>2026-05-02T15:55:58.153Z</time></trkpt><trkpt lat="40.9872799" lon="9.4833813"><ele>127.33333333333333</ele><time>2026-05-02T15:55:59.153Z</time></trkpt><trkpt lat="40.9870648" lon="9.4834717"><ele>126.66666666666666</ele><time>2026-05-02T15:56:00.154Z</time></trkpt><trkpt lat="40.9868654" lon="9.4835576"><ele>126.0</ele><time>2026-05-02T15:56:01.154Z</time></trkpt><trkpt lat="40.9866843" lon="9.4836391"><ele>125.66666666666666</ele><time>2026-05-02T15:56:02.154Z</time></trkpt><trkpt lat="40.9865293" lon="9.4837379"><ele>125.33333333333333</ele><time>2026-05-02T15:56:03.153Z</time></trkpt><trkpt lat="40.9863883" lon="9.4838566"><ele>125.0</ele><time>2026-05-02T15:56:04.154Z</time></trkpt><trkpt lat="40.9862581" lon="9.4839692"><ele>125.0</ele><time>2026-05-02T15:56:05.153Z</time></trkpt><trkpt lat="40.9861349" lon="9.4840591"><ele>125.0</ele><time>2026-05-02T15:56:06.154Z</time></trkpt><trkpt lat="40.9860168" lon="9.4841229"><ele>125.0</ele><time>2026-05-02T15:56:07.154Z</time></trkpt><trkpt lat="40.9859026" lon="9.4841672"><ele>125.0</ele><time>2026-05-02T15:56:08.153Z</time></trkpt><trkpt lat="40.9857861" lon="9.4842112"><ele>126.5</ele><time>2026-05-02T15:56:09.153Z</time></trkpt><trkpt lat="40.9856712" lon="9.4842697"><ele>128.0</ele><time>2026-05-02T15:56:10.153Z</time></trkpt><trkpt lat="40.9855672" lon="9.4843566"><ele>129.5</ele><time>2026-05-02T15:56:11.153Z</time></trkpt><trkpt lat="40.9854776" lon="9.484467"><ele>131.0</ele><time>2026-05-02T15:56:12.154Z</time></trkpt><trkpt lat="40.9854028" lon="9.4845976"><ele>131.0</ele><time>2026-05-02T15:56:13.154Z</time></trkpt><trkpt lat="40.9853335" lon="9.4847364"><ele>131.0</ele><time>2026-05-02T15:56:14.153Z</time></trkpt><trkpt lat="40.9852633" lon="9.4848798"><ele>131.0</ele><time>2026-05-02T15:56:15.153Z</time></trkpt><trkpt lat="40.9851952" lon="9.4850262"><ele>131.0</ele><time>2026-05-02T15:56:16.153Z</time></trkpt><trkpt lat="40.9851355" lon="9.485175"><ele>131.0</ele><time>2026-05-02T15:56:17.154Z</time></trkpt><trkpt lat="40.9850854" lon="9.4853246"><ele>131.0</ele><time>2026-05-02T15:56:18.154Z</time></trkpt><trkpt lat="40.9850297" lon="9.4854697"><ele>131.0</ele><time>2026-05-02T15:56:19.153Z</time></trkpt><trkpt lat="40.9849572" lon="9.4856002"><ele>131.0</ele><time>2026-05-02T15:56:20.154Z</time></trkpt><trkpt lat="40.9848642" lon="9.4857019"><ele>127.0</ele><time>2026-05-02T15:56:21.153Z</time></trkpt><trkpt lat="40.9847558" lon="9.4857687"><ele>123.0</ele><time>2026-05-02T15:56:22.154Z</time></trkpt><trkpt lat="40.9846349" lon="9.4858208"><ele>119.0</ele><time>2026-05-02T15:56:23.154Z</time></trkpt><trkpt lat="40.9845098" lon="9.4858671"><ele>115.0</ele><time>2026-05-02T15:56:24.154Z</time></trkpt><trkpt lat="40.9843815" lon="9.4859129"><ele>115.0</ele><time>2026-05-02T15:56:25.153Z</time></trkpt><trkpt lat="40.984251" lon="9.4859584"><ele>115.0</ele><time>2026-05-02T15:56:26.154Z</time></trkpt><trkpt lat="40.9841232" lon="9.4859976"><ele>115.0</ele><time>2026-05-02T15:56:27.154Z</time></trkpt><trkpt lat="40.9840069" lon="9.4860171"><ele>115.0</ele><time>2026-05-02T15:56:28.154Z</time></trkpt><trkpt lat="40.9839005" lon="9.4859931"><ele>115.25</ele><time>2026-05-02T15:56:29.152Z</time></trkpt><trkpt lat="40.9838069" lon="9.4859236"><ele>115.5</ele><time>2026-05-02T15:56:30.153Z</time></trkpt><trkpt lat="40.9837378" lon="9.4858143"><ele>115.75</ele><time>2026-05-02T15:56:31.154Z</time></trkpt><trkpt lat="40.9836926" lon="9.4856718"><ele>116.0</ele><time>2026-05-02T15:56:32.154Z</time></trkpt><trkpt lat="40.9836648" lon="9.4855166"><ele>118.75</ele><time>2026-05-02T15:56:33.153Z</time></trkpt><trkpt lat="40.9836419" lon="9.4853561"><ele>121.5</ele><time>2026-05-02T15:56:34.154Z</time></trkpt><trkpt lat="40.983617" lon="9.4851852"><ele>124.25</ele><time>2026-05-02T15:56:35.154Z</time></trkpt><trkpt lat="40.9835864" lon="9.4850138"><ele>127.0</ele><time>2026-05-02T15:56:36.154Z</time></trkpt><trkpt lat="40.983558" lon="9.4848316"><ele>127.0</ele><time>2026-05-02T15:56:37.153Z</time></trkpt><trkpt lat="40.9835493" lon="9.4846414"><ele>127.0</ele><time>2026-05-02T15:56:38.153Z</time></trkpt><trkpt lat="40.9835479" lon="9.4844493"><ele>127.0</ele><time>2026-05-02T15:56:39.153Z</time></trkpt><trkpt lat="40.9835566" lon="9.4842611"><ele>127.0</ele><time>2026-05-02T15:56:40.153Z</time></trkpt><trkpt lat="40.9835758" lon="9.4840819"><ele>127.25</ele><time>2026-05-02T15:56:41.154Z</time></trkpt><trkpt lat="40.9835853" lon="9.48391"><ele>127.5</ele><time>2026-05-02T15:56:42.154Z</time></trkpt><trkpt lat="40.9835684" lon="9.4837431"><ele>127.75</ele><time>2026-05-02T15:56:43.153Z</time></trkpt><trkpt lat="40.983509" lon="9.4835953"><ele>128.0</ele><time>2026-05-02T15:56:44.153Z</time></trkpt><trkpt lat="40.9834153" lon="9.4834743"><ele>119.66666666666666</ele><time>2026-05-02T15:56:45.153Z</time></trkpt><trkpt lat="40.9832943" lon="9.4833715"><ele>111.33333333333334</ele><time>2026-05-02T15:56:46.154Z</time></trkpt><trkpt lat="40.9831566" lon="9.4832754"><ele>103.0</ele><time>2026-05-02T15:56:47.152Z</time></trkpt><trkpt lat="40.9830218" lon="9.4831784"><ele>103.0</ele><time>2026-05-02T15:56:48.153Z</time></trkpt><trkpt lat="40.9828975" lon="9.4831003"><ele>103.0</ele><time>2026-05-02T15:56:49.153Z</time></trkpt><trkpt lat="40.9827768" lon="9.4830659"><ele>103.0</ele><time>2026-05-02T15:56:50.154Z</time></trkpt><trkpt lat="40.9826638" lon="9.4830871"><ele>103.0</ele><time>2026-05-02T15:56:51.154Z</time></trkpt><trkpt lat="40.9825614" lon="9.4831514"><ele>100.5</ele><time>2026-05-02T15:56:52.154Z</time></trkpt><trkpt lat="40.9824795" lon="9.4832717"><ele>98.0</ele><time>2026-05-02T15:56:53.154Z</time></trkpt><trkpt lat="40.9824078" lon="9.4834186"><ele>95.5</ele><time>2026-05-02T15:56:54.154Z</time></trkpt><trkpt lat="40.9823394" lon="9.4835837"><ele>93.0</ele><time>2026-05-02T15:56:55.153Z</time></trkpt><trkpt lat="40.9822792" lon="9.4837459"><ele>91.5</ele><time>2026-05-02T15:56:56.153Z</time></trkpt><trkpt lat="40.982224" lon="9.4839001"><ele>90.0</ele><time>2026-05-02T15:56:57.154Z</time></trkpt><trkpt lat="40.9821758" lon="9.4840465"><ele>88.5</ele><time>2026-05-02T15:56:58.152Z</time></trkpt><trkpt lat="40.9821369" lon="9.4841908"><ele>87.0</ele><time>2026-05-02T15:56:59.153Z</time></trkpt><trkpt lat="40.9821153" lon="9.4843398"><ele>87.0</ele><time>2026-05-02T15:57:00.154Z</time></trkpt><trkpt lat="40.9821249" lon="9.4845002"><ele>87.0</ele><time>2026-05-02T15:57:01.154Z</time></trkpt><trkpt lat="40.9821638" lon="9.4846605"><ele>87.0</ele><time>2026-05-02T15:57:02.153Z</time></trkpt><trkpt lat="40.9822072" lon="9.4848248"><ele>87.0</ele><time>2026-05-02T15:57:03.153Z</time></trkpt><trkpt lat="40.9822576" lon="9.4850012"><ele>86.66666666666667</ele><time>2026-05-02T15:57:04.154Z</time></trkpt><trkpt lat="40.9823025" lon="9.485184"><ele>86.33333333333334</ele><time>2026-05-02T15:57:05.154Z</time></trkpt><trkpt lat="40.9823364" lon="9.4853919"><ele>86.0</ele><time>2026-05-02T15:57:06.153Z</time></trkpt><trkpt lat="40.9823658" lon="9.48563"><ele>85.66666666666667</ele><time>2026-05-02T15:57:07.154Z</time></trkpt><trkpt lat="40.9824052" lon="9.485904"><ele>85.33333333333333</ele><time>2026-05-02T15:57:08.154Z</time></trkpt><trkpt lat="40.9824584" lon="9.486185"><ele>85.0</ele><time>2026-05-02T15:57:09.154Z</time></trkpt><trkpt lat="40.9825149" lon="9.4864609"><ele>84.0</ele><time>2026-05-02T15:57:10.153Z</time></trkpt><trkpt lat="40.9825723" lon="9.4867234"><ele>83.0</ele><time>2026-05-02T15:57:11.153Z</time></trkpt><trkpt lat="40.9826315" lon="9.4869729"><ele>82.0</ele><time>2026-05-02T15:57:12.154Z</time></trkpt><trkpt lat="40.9826849" lon="9.4871977"><ele>78.66666666666666</ele><time>2026-05-02T15:57:13.152Z</time></trkpt><trkpt lat="40.982726" lon="9.4874056"><ele>75.33333333333333</ele><time>2026-05-02T15:57:14.154Z</time></trkpt><trkpt lat="40.9827424" lon="9.4876051"><ele>72.0</ele><time>2026-05-02T15:57:15.153Z</time></trkpt><trkpt lat="40.9827281" lon="9.4877968"><ele>71.0</ele><time>2026-05-02T15:57:16.154Z</time></trkpt><trkpt lat="40.9826889" lon="9.4879761"><ele>70.0</ele><time>2026-05-02T15:57:17.154Z</time></trkpt><trkpt lat="40.9826393" lon="9.4881458"><ele>69.0</ele><time>2026-05-02T15:57:18.153Z</time></trkpt><trkpt lat="40.9825848" lon="9.4883135"><ele>68.0</ele><time>2026-05-02T15:57:19.153Z</time></trkpt><trkpt lat="40.982519" lon="9.4884819"><ele>67.0</ele><time>2026-05-02T15:57:20.153Z</time></trkpt><trkpt lat="40.9824375" lon="9.4886468"><ele>66.0</ele><time>2026-05-02T15:57:21.153Z</time></trkpt><trkpt lat="40.9823327" lon="9.488821"><ele>65.0</ele><time>2026-05-02T15:57:22.153Z</time></trkpt><trkpt lat="40.982212" lon="9.4890007"><ele>65.0</ele><time>2026-05-02T15:57:23.153Z</time></trkpt><trkpt lat="40.982098" lon="9.4891531"><ele>65.0</ele><time>2026-05-02T15:57:24.153Z</time></trkpt><trkpt lat="40.9819689" lon="9.4892891"><ele>65.0</ele><time>2026-05-02T15:57:25.153Z</time></trkpt><trkpt lat="40.9818276" lon="9.4894024"><ele>65.0</ele><time>2026-05-02T15:57:26.153Z</time></trkpt><trkpt lat="40.9816883" lon="9.4894981"><ele>65.0</ele><time>2026-05-02T15:57:27.152Z</time></trkpt><trkpt lat="40.9815535" lon="9.4895944"><ele>65.0</ele><time>2026-05-02T15:57:28.154Z</time></trkpt><trkpt lat="40.9814209" lon="9.4896859"><ele>63.75</ele><time>2026-05-02T15:57:29.153Z</time></trkpt><trkpt lat="40.9812903" lon="9.4897685"><ele>62.5</ele><time>2026-05-02T15:57:30.154Z</time></trkpt><trkpt lat="40.9811588" lon="9.4898346"><ele>61.25</ele><time>2026-05-02T15:57:31.154Z</time></trkpt><trkpt lat="40.9810249" lon="9.4898749"><ele>60.0</ele><time>2026-05-02T15:57:32.154Z</time></trkpt><trkpt lat="40.9808871" lon="9.4898942"><ele>61.0</ele><time>2026-05-02T15:57:33.154Z</time></trkpt><trkpt lat="40.9807487" lon="9.4899104"><ele>62.0</ele><time>2026-05-02T15:57:34.153Z</time></trkpt><trkpt lat="40.9806147" lon="9.4899297"><ele>63.0</ele><time>2026-05-02T15:57:35.153Z</time></trkpt><trkpt lat="40.9804905" lon="9.4899766"><ele>64.0</ele><time>2026-05-02T15:57:36.153Z</time></trkpt><trkpt lat="40.9803876" lon="9.4900681"><ele>64.0</ele><time>2026-05-02T15:57:37.153Z</time></trkpt><trkpt lat="40.9803073" lon="9.4901819"><ele>64.0</ele><time>2026-05-02T15:57:38.154Z</time></trkpt><trkpt lat="40.9802394" lon="9.4902974"><ele>64.0</ele><time>2026-05-02T15:57:39.153Z</time></trkpt><trkpt lat="40.9801682" lon="9.4904092"><ele>64.0</ele><time>2026-05-02T15:57:40.153Z</time></trkpt><trkpt lat="40.9800925" lon="9.4905112"><ele>64.0</ele><time>2026-05-02T15:57:41.154Z</time></trkpt><trkpt lat="40.9800155" lon="9.490609"><ele>63.2</ele><time>2026-05-02T15:57:42.154Z</time></trkpt><trkpt lat="40.9799367" lon="9.4907013"><ele>62.400000000000006</ele><time>2026-05-02T15:57:43.154Z</time></trkpt><trkpt lat="40.9798581" lon="9.4907929"><ele>61.6</ele><time>2026-05-02T15:57:44.154Z</time></trkpt><trkpt lat="40.9797785" lon="9.4908847"><ele>60.8</ele><time>2026-05-02T15:57:45.154Z</time></trkpt><trkpt lat="40.9796986" lon="9.490981"><ele>60.0</ele><time>2026-05-02T15:57:46.153Z</time></trkpt><trkpt lat="40.9796193" lon="9.49108"><ele>60.0</ele><time>2026-05-02T15:57:47.153Z</time></trkpt><trkpt lat="40.9795405" lon="9.4911789"><ele>60.0</ele><time>2026-05-02T15:57:48.153Z</time></trkpt><trkpt lat="40.9794623" lon="9.4912784"><ele>60.0</ele><time>2026-05-02T15:57:49.154Z</time></trkpt><trkpt lat="40.9793819" lon="9.4913754"><ele>60.0</ele><time>2026-05-02T15:57:50.154Z</time></trkpt><trkpt lat="40.9792839" lon="9.491438"><ele>60.0</ele><time>2026-05-02T15:57:51.154Z</time></trkpt><trkpt lat="40.9791799" lon="9.491469"><ele>58.75</ele><time>2026-05-02T15:57:52.153Z</time></trkpt><trkpt lat="40.9790685" lon="9.4914841"><ele>57.5</ele><time>2026-05-02T15:57:53.153Z</time></trkpt><trkpt lat="40.9789468" lon="9.4914921"><ele>56.25</ele><time>2026-05-02T15:57:54.153Z</time></trkpt><trkpt lat="40.9788207" lon="9.4914894"><ele>55.0</ele><time>2026-05-02T15:57:55.153Z</time></trkpt><trkpt lat="40.9786873" lon="9.4914722"><ele>55.0</ele><time>2026-05-02T15:57:56.154Z</time></trkpt><trkpt lat="40.9785499" lon="9.4914544"><ele>55.0</ele><time>2026-05-02T15:57:57.154Z</time></trkpt><trkpt lat="40.9784067" lon="9.4914362"><ele>55.0</ele><time>2026-05-02T15:57:58.153Z</time></trkpt><trkpt lat="40.9782568" lon="9.4914198"><ele>55.0</ele><time>2026-05-02T15:57:59.153Z</time></trkpt><trkpt lat="40.9781049" lon="9.4914078"><ele>54.5</ele><time>2026-05-02T15:58:00.153Z</time></trkpt><trkpt lat="40.9779547" lon="9.4913949"><ele>54.0</ele><time>2026-05-02T15:58:01.154Z</time></trkpt><trkpt lat="40.9778042" lon="9.4913816"><ele>53.5</ele><time>2026-05-02T15:58:02.154Z</time></trkpt><trkpt lat="40.9776621" lon="9.4913723"><ele>53.0</ele><time>2026-05-02T15:58:03.153Z</time></trkpt><trkpt lat="40.9775201" lon="9.4913599"><ele>53.5</ele><time>2026-05-02T15:58:04.152Z</time></trkpt><trkpt lat="40.9773771" lon="9.4913467"><ele>54.0</ele><time>2026-05-02T15:58:05.154Z</time></trkpt><trkpt lat="40.9772317" lon="9.4913345"><ele>54.5</ele><time>2026-05-02T15:58:06.153Z</time></trkpt><trkpt lat="40.9770847" lon="9.4913254"><ele>55.0</ele><time>2026-05-02T15:58:07.154Z</time></trkpt><trkpt lat="40.9769343" lon="9.4913149"><ele>55.0</ele><time>2026-05-02T15:58:08.153Z</time></trkpt><trkpt lat="40.9767823" lon="9.4913028"><ele>55.0</ele><time>2026-05-02T15:58:09.153Z</time></trkpt><trkpt lat="40.9766285" lon="9.4912912"><ele>55.0</ele><time>2026-05-02T15:58:10.153Z</time></trkpt><trkpt lat="40.9764746" lon="9.4912831"><ele>55.0</ele><time>2026-05-02T15:58:11.154Z</time></trkpt><trkpt lat="40.976323" lon="9.491269"><ele>55.0</ele><time>2026-05-02T15:58:12.154Z</time></trkpt><trkpt lat="40.9761743" lon="9.4912573"><ele>55.0</ele><time>2026-05-02T15:58:13.153Z</time></trkpt><trkpt lat="40.9760277" lon="9.4912376"><ele>55.0</ele><time>2026-05-02T15:58:14.153Z</time></trkpt><trkpt lat="40.9758847" lon="9.4912074"><ele>55.5</ele><time>2026-05-02T15:58:15.153Z</time></trkpt><trkpt lat="40.9757493" lon="9.491161"><ele>56.0</ele><time>2026-05-02T15:58:16.154Z</time></trkpt><trkpt lat="40.9756172" lon="9.4911018"><ele>56.5</ele><time>2026-05-02T15:58:17.153Z</time></trkpt><trkpt lat="40.9754914" lon="9.4910283"><ele>57.0</ele><time>2026-05-02T15:58:18.153Z</time></trkpt><trkpt lat="40.9753706" lon="9.4909403"><ele>57.0</ele><time>2026-05-02T15:58:19.154Z</time></trkpt><trkpt lat="40.9752554" lon="9.4908426"><ele>57.0</ele><time>2026-05-02T15:58:20.154Z</time></trkpt><trkpt lat="40.9751369" lon="9.4907374"><ele>57.0</ele><time>2026-05-02T15:58:21.154Z</time></trkpt><trkpt lat="40.9750154" lon="9.49063"><ele>57.0</ele><time>2026-05-02T15:58:22.154Z</time></trkpt><trkpt lat="40.9748821" lon="9.4905323"><ele>57.0</ele><time>2026-05-02T15:58:23.154Z</time></trkpt><trkpt lat="40.9747397" lon="9.4904521"><ele>57.0</ele><time>2026-05-02T15:58:24.153Z</time></trkpt><trkpt lat="40.9745913" lon="9.4903951"><ele>57.0</ele><time>2026-05-02T15:58:25.153Z</time></trkpt><trkpt lat="40.9744347" lon="9.4903647"><ele>58.0</ele><time>2026-05-02T15:58:26.153Z</time></trkpt><trkpt lat="40.9742747" lon="9.4903666"><ele>59.0</ele><time>2026-05-02T15:58:27.154Z</time></trkpt><trkpt lat="40.9741158" lon="9.4903915"><ele>60.0</ele><time>2026-05-02T15:58:28.153Z</time></trkpt><trkpt lat="40.9739591" lon="9.49042"><ele>58.75</ele><time>2026-05-02T15:58:29.154Z</time></trkpt><trkpt lat="40.9738113" lon="9.490449"><ele>57.5</ele><time>2026-05-02T15:58:30.154Z</time></trkpt><trkpt lat="40.9736654" lon="9.4904776"><ele>56.25</ele><time>2026-05-02T15:58:31.154Z</time></trkpt><trkpt lat="40.9735211" lon="9.4905084"><ele>55.0</ele><time>2026-05-02T15:58:32.154Z</time></trkpt><trkpt lat="40.9733767" lon="9.490539"><ele>55.0</ele><time>2026-05-02T15:58:33.153Z</time></trkpt><trkpt lat="40.9732325" lon="9.4905678"><ele>55.0</ele><time>2026-05-02T15:58:34.154Z</time></trkpt><trkpt lat="40.9730865" lon="9.4905957"><ele>55.0</ele><time>2026-05-02T15:58:35.154Z</time></trkpt><trkpt lat="40.9729392" lon="9.490621"><ele>55.0</ele><time>2026-05-02T15:58:36.152Z</time></trkpt><trkpt lat="40.9727908" lon="9.4906481"><ele>55.0</ele><time>2026-05-02T15:58:37.153Z</time></trkpt><trkpt lat="40.9726424" lon="9.4906762"><ele>55.0</ele><time>2026-05-02T15:58:38.153Z</time></trkpt><trkpt lat="40.9724942" lon="9.4907057"><ele>55.0</ele><time>2026-05-02T15:58:39.154Z</time></trkpt><trkpt lat="40.9723465" lon="9.490735"><ele>55.0</ele><time>2026-05-02T15:58:40.153Z</time></trkpt><trkpt lat="40.9722003" lon="9.4907641"><ele>55.0</ele><time>2026-05-02T15:58:41.153Z</time></trkpt><trkpt lat="40.9720559" lon="9.4907947"><ele>55.0</ele><time>2026-05-02T15:58:42.154Z</time></trkpt><trkpt lat="40.9719126" lon="9.4908255"><ele>55.0</ele><time>2026-05-02T15:58:43.154Z</time></trkpt><trkpt lat="40.9717696" lon="9.490857"><ele>55.0</ele><time>2026-05-02T15:58:44.154Z</time></trkpt><trkpt lat="40.9716241" lon="9.4908868"><ele>55.0</ele><time>2026-05-02T15:58:45.154Z</time></trkpt><trkpt lat="40.9714786" lon="9.4909224"><ele>55.0</ele><time>2026-05-02T15:58:46.154Z</time></trkpt><trkpt lat="40.9713317" lon="9.4909529"><ele>55.0</ele><time>2026-05-02T15:58:47.154Z</time></trkpt><trkpt lat="40.9711847" lon="9.4909878"><ele>55.0</ele><time>2026-05-02T15:58:48.153Z</time></trkpt><trkpt lat="40.9710386" lon="9.4910218"><ele>55.0</ele><time>2026-05-02T15:58:49.153Z</time></trkpt><trkpt lat="40.9708943" lon="9.4910564"><ele>55.0</ele><time>2026-05-02T15:58:50.153Z</time></trkpt><trkpt lat="40.9707504" lon="9.4910936"><ele>55.0</ele><time>2026-05-02T15:58:51.152Z</time></trkpt><trkpt lat="40.9706064" lon="9.4911338"><ele>55.0</ele><time>2026-05-02T15:58:52.153Z</time></trkpt><trkpt lat="40.9704632" lon="9.4911705"><ele>54.75</ele><time>2026-05-02T15:58:53.154Z</time></trkpt><trkpt lat="40.9703203" lon="9.4912037"><ele>54.5</ele><time>2026-05-02T15:58:54.153Z</time></trkpt><trkpt lat="40.9701754" lon="9.491233"><ele>54.25</ele><time>2026-05-02T15:58:55.153Z</time></trkpt><trkpt lat="40.9700278" lon="9.4912556"><ele>54.0</ele><time>2026-05-02T15:58:56.153Z</time></trkpt><trkpt lat="40.9698807" lon="9.4912712"><ele>54.0</ele><time>2026-05-02T15:58:57.154Z</time></trkpt><trkpt lat="40.9697312" lon="9.4912817"><ele>54.0</ele><time>2026-05-02T15:58:58.153Z</time></trkpt><trkpt lat="40.9695837" lon="9.4912836"><ele>54.0</ele><time>2026-05-02T15:58:59.154Z</time></trkpt><trkpt lat="40.969436" lon="9.4912839"><ele>54.0</ele><time>2026-05-02T15:59:00.154Z</time></trkpt><trkpt lat="40.9692901" lon="9.4912774"><ele>54.5</ele><time>2026-05-02T15:59:01.153Z</time></trkpt><trkpt lat="40.9691423" lon="9.4912594"><ele>55.0</ele><time>2026-05-02T15:59:02.154Z</time></trkpt><trkpt lat="40.9689957" lon="9.4912354"><ele>55.5</ele><time>2026-05-02T15:59:03.154Z</time></trkpt><trkpt lat="40.9688489" lon="9.4912057"><ele>56.0</ele><time>2026-05-02T15:59:04.154Z</time></trkpt><trkpt lat="40.9687026" lon="9.4911728"><ele>56.25</ele><time>2026-05-02T15:59:05.154Z</time></trkpt><trkpt lat="40.9685572" lon="9.4911381"><ele>56.5</ele><time>2026-05-02T15:59:06.153Z</time></trkpt><trkpt lat="40.9684107" lon="9.4911036"><ele>56.75</ele><time>2026-05-02T15:59:07.153Z</time></trkpt><trkpt lat="40.968264" lon="9.4910703"><ele>57.0</ele><time>2026-05-02T15:59:08.153Z</time></trkpt><trkpt lat="40.9681194" lon="9.4910415"><ele>57.0</ele><time>2026-05-02T15:59:09.153Z</time></trkpt><trkpt lat="40.9679735" lon="9.4910135"><ele>57.0</ele><time>2026-05-02T15:59:10.153Z</time></trkpt><trkpt lat="40.9678275" lon="9.4909849"><ele>57.0</ele><time>2026-05-02T15:59:11.154Z</time></trkpt><trkpt lat="40.9676819" lon="9.4909529"><ele>57.0</ele><time>2026-05-02T15:59:12.153Z</time></trkpt><trkpt lat="40.9675373" lon="9.4909193"><ele>58.33333333333333</ele><time>2026-05-02T15:59:13.153Z</time></trkpt><trkpt lat="40.9673913" lon="9.4908902"><ele>59.666666666666664</ele><time>2026-05-02T15:59:14.153Z</time></trkpt><trkpt lat="40.9672439" lon="9.4908685"><ele>61.0</ele><time>2026-05-02T15:59:15.153Z</time></trkpt><trkpt lat="40.9670866" lon="9.4908534"><ele>61.0</ele><time>2026-05-02T15:59:16.154Z</time></trkpt><trkpt lat="40.9669215" lon="9.4908439"><ele>61.0</ele><time>2026-05-02T15:59:17.154Z</time></trkpt><trkpt lat="40.9667475" lon="9.4908417"><ele>61.0</ele><time>2026-05-02T15:59:18.154Z</time></trkpt><trkpt lat="40.9665654" lon="9.4908481"><ele>61.0</ele><time>2026-05-02T15:59:19.153Z</time></trkpt><trkpt lat="40.9663772" lon="9.490863"><ele>61.0</ele><time>2026-05-02T15:59:20.153Z</time></trkpt><trkpt lat="40.9661829" lon="9.4908866"><ele>61.0</ele><time>2026-05-02T15:59:21.153Z</time></trkpt><trkpt lat="40.9659885" lon="9.490921"><ele>61.666666666666664</ele><time>2026-05-02T15:59:22.154Z</time></trkpt><trkpt lat="40.9657918" lon="9.4909644"><ele>62.33333333333333</ele><time>2026-05-02T15:59:23.153Z</time></trkpt><trkpt lat="40.965594" lon="9.4910201"><ele>63.0</ele><time>2026-05-02T15:59:24.153Z</time></trkpt><trkpt lat="40.9653959" lon="9.491084"><ele>63.0</ele><time>2026-05-02T15:59:25.153Z</time></trkpt><trkpt lat="40.9651975" lon="9.4911557"><ele>63.0</ele><time>2026-05-02T15:59:26.153Z</time></trkpt><trkpt lat="40.9650009" lon="9.4912383"><ele>63.0</ele><time>2026-05-02T15:59:27.154Z</time></trkpt><trkpt lat="40.9648043" lon="9.491334"><ele>64.33333333333333</ele><time>2026-05-02T15:59:28.152Z</time></trkpt><trkpt lat="40.9646077" lon="9.4914401"><ele>65.66666666666666</ele><time>2026-05-02T15:59:29.154Z</time></trkpt><trkpt lat="40.9644117" lon="9.4915572"><ele>67.0</ele><time>2026-05-02T15:59:30.153Z</time></trkpt><trkpt lat="40.9642174" lon="9.4916861"><ele>67.66666666666666</ele><time>2026-05-02T15:59:31.154Z</time></trkpt><trkpt lat="40.9640248" lon="9.4918246"><ele>68.33333333333333</ele><time>2026-05-02T15:59:32.153Z</time></trkpt><trkpt lat="40.9638347" lon="9.4919724"><ele>69.0</ele><time>2026-05-02T15:59:33.153Z</time></trkpt><trkpt lat="40.9636475" lon="9.4921295"><ele>69.0</ele><time>2026-05-02T15:59:34.154Z</time></trkpt><trkpt lat="40.9634662" lon="9.4922962"><ele>69.0</ele><time>2026-05-02T15:59:35.153Z</time></trkpt><trkpt lat="40.9632894" lon="9.4924691"><ele>69.0</ele><time>2026-05-02T15:59:36.152Z</time></trkpt><trkpt lat="40.9631142" lon="9.4926464"><ele>67.66666666666667</ele><time>2026-05-02T15:59:37.153Z</time></trkpt><trkpt lat="40.9629383" lon="9.4928251"><ele>66.33333333333334</ele><time>2026-05-02T15:59:38.154Z</time></trkpt><trkpt lat="40.962764" lon="9.4930051"><ele>65.0</ele><time>2026-05-02T15:59:39.153Z</time></trkpt><trkpt lat="40.962591" lon="9.4931833"><ele>63.0</ele><time>2026-05-02T15:59:40.153Z</time></trkpt><trkpt lat="40.9624211" lon="9.4933596"><ele>61.0</ele><time>2026-05-02T15:59:41.153Z</time></trkpt><trkpt lat="40.9622525" lon="9.4935372"><ele>59.0</ele><time>2026-05-02T15:59:42.153Z</time></trkpt><trkpt lat="40.9620844" lon="9.4937147"><ele>59.66666666666667</ele><time>2026-05-02T15:59:43.153Z</time></trkpt><trkpt lat="40.961915" lon="9.4938935"><ele>60.33333333333333</ele><time>2026-05-02T15:59:44.153Z</time></trkpt><trkpt lat="40.9617446" lon="9.4940727"><ele>61.0</ele><time>2026-05-02T15:59:45.153Z</time></trkpt><trkpt lat="40.9615731" lon="9.494251"><ele>60.0</ele><time>2026-05-02T15:59:46.154Z</time></trkpt><trkpt lat="40.961401" lon="9.494431"><ele>59.0</ele><time>2026-05-02T15:59:47.154Z</time></trkpt><trkpt lat="40.9612289" lon="9.4946129"><ele>58.0</ele><time>2026-05-02T15:59:48.153Z</time></trkpt><trkpt lat="40.9610619" lon="9.4947888"><ele>58.0</ele><time>2026-05-02T15:59:49.154Z</time></trkpt><trkpt lat="40.9609048" lon="9.494953"><ele>58.0</ele><time>2026-05-02T15:59:50.154Z</time></trkpt><trkpt lat="40.9607506" lon="9.4951135"><ele>58.0</ele><time>2026-05-02T15:59:51.153Z</time></trkpt><trkpt lat="40.9606" lon="9.4952725"><ele>57.33333333333333</ele><time>2026-05-02T15:59:52.153Z</time></trkpt><trkpt lat="40.960452" lon="9.4954282"><ele>56.66666666666667</ele><time>2026-05-02T15:59:53.154Z</time></trkpt><trkpt lat="40.9603072" lon="9.4955818"><ele>56.0</ele><time>2026-05-02T15:59:54.154Z</time></trkpt><trkpt lat="40.9601637" lon="9.4957306"><ele>55.333333333333336</ele><time>2026-05-02T15:59:55.153Z</time></trkpt><trkpt lat="40.9600207" lon="9.4958772"><ele>54.66666666666667</ele><time>2026-05-02T15:59:56.154Z</time></trkpt><trkpt lat="40.9598794" lon="9.4960234"><ele>54.0</ele><time>2026-05-02T15:59:57.154Z</time></trkpt><trkpt lat="40.9597385" lon="9.4961681"><ele>54.0</ele><time>2026-05-02T15:59:58.154Z</time></trkpt><trkpt lat="40.959598" lon="9.4963117"><ele>54.0</ele><time>2026-05-02T15:59:59.153Z</time></trkpt><trkpt lat="40.9594631" lon="9.4964507"><ele>54.0</ele><time>2026-05-02T16:00:00.153Z</time></trkpt><trkpt lat="40.9593347" lon="9.496581"><ele>54.0</ele><time>2026-05-02T16:00:01.153Z</time></trkpt><trkpt lat="40.9592032" lon="9.4967116"><ele>54.0</ele><time>2026-05-02T16:00:02.154Z</time></trkpt><trkpt lat="40.959069" lon="9.496842"><ele>54.0</ele><time>2026-05-02T16:00:03.152Z</time></trkpt><trkpt lat="40.958932" lon="9.4969713"><ele>54.66666666666667</ele><time>2026-05-02T16:00:04.153Z</time></trkpt><trkpt lat="40.9587946" lon="9.4970956"><ele>55.333333333333336</ele><time>2026-05-02T16:00:05.154Z</time></trkpt><trkpt lat="40.9586629" lon="9.497213"><ele>56.0</ele><time>2026-05-02T16:00:06.154Z</time></trkpt><trkpt lat="40.9585337" lon="9.4973227"><ele>56.0</ele><time>2026-05-02T16:00:07.154Z</time></trkpt><trkpt lat="40.9584055" lon="9.4974285"><ele>56.0</ele><time>2026-05-02T16:00:08.153Z</time></trkpt><trkpt lat="40.9582755" lon="9.4975304"><ele>56.0</ele><time>2026-05-02T16:00:09.153Z</time></trkpt><trkpt lat="40.9581436" lon="9.4976294"><ele>55.66666666666667</ele><time>2026-05-02T16:00:10.154Z</time></trkpt><trkpt lat="40.9580108" lon="9.4977288"><ele>55.33333333333333</ele><time>2026-05-02T16:00:11.154Z</time></trkpt><trkpt lat="40.9578763" lon="9.4978271"><ele>55.0</ele><time>2026-05-02T16:00:12.154Z</time></trkpt><trkpt lat="40.957739" lon="9.4979209"><ele>54.666666666666664</ele><time>2026-05-02T16:00:13.153Z</time></trkpt><trkpt lat="40.9575989" lon="9.4980108"><ele>54.33333333333333</ele><time>2026-05-02T16:00:14.153Z</time></trkpt><trkpt lat="40.9574572" lon="9.4980997"><ele>54.0</ele><time>2026-05-02T16:00:15.153Z</time></trkpt><trkpt lat="40.9573119" lon="9.4981839"><ele>53.33333333333333</ele><time>2026-05-02T16:00:16.153Z</time></trkpt><trkpt lat="40.9571648" lon="9.4982668"><ele>52.666666666666664</ele><time>2026-05-02T16:00:17.153Z</time></trkpt><trkpt lat="40.9570165" lon="9.4983471"><ele>52.0</ele><time>2026-05-02T16:00:18.153Z</time></trkpt><trkpt lat="40.9568715" lon="9.4984222"><ele>52.0</ele><time>2026-05-02T16:00:19.153Z</time></trkpt><trkpt lat="40.9567282" lon="9.498495"><ele>52.0</ele><time>2026-05-02T16:00:20.153Z</time></trkpt><trkpt lat="40.9565754" lon="9.4985659"><ele>52.0</ele><time>2026-05-02T16:00:21.153Z</time></trkpt><trkpt lat="40.9564224" lon="9.498629"><ele>52.666666666666664</ele><time>2026-05-02T16:00:22.153Z</time></trkpt><trkpt lat="40.956268" lon="9.4986918"><ele>53.33333333333333</ele><time>2026-05-02T16:00:23.153Z</time></trkpt><trkpt lat="40.9561126" lon="9.4987539"><ele>54.0</ele><time>2026-05-02T16:00:24.154Z</time></trkpt><trkpt lat="40.9559527" lon="9.498816"><ele>55.66666666666667</ele><time>2026-05-02T16:00:25.153Z</time></trkpt><trkpt lat="40.9557884" lon="9.4988759"><ele>57.333333333333336</ele><time>2026-05-02T16:00:26.153Z</time></trkpt><trkpt lat="40.9556218" lon="9.4989341"><ele>59.0</ele><time>2026-05-02T16:00:27.154Z</time></trkpt><trkpt lat="40.9554529" lon="9.4989906"><ele>59.0</ele><time>2026-05-02T16:00:28.154Z</time></trkpt><trkpt lat="40.9552892" lon="9.4990421"><ele>59.0</ele><time>2026-05-02T16:00:29.153Z</time></trkpt><trkpt lat="40.9551342" lon="9.4990906"><ele>59.0</ele><time>2026-05-02T16:00:30.154Z</time></trkpt><trkpt lat="40.9549855" lon="9.4991346"><ele>57.25</ele><time>2026-05-02T16:00:31.154Z</time></trkpt><trkpt lat="40.9548421" lon="9.4991787"><ele>55.5</ele><time>2026-05-02T16:00:32.154Z</time></trkpt><trkpt lat="40.9546965" lon="9.4992251"><ele>53.75</ele><time>2026-05-02T16:00:33.154Z</time></trkpt><trkpt lat="40.95455" lon="9.4992729"><ele>52.0</ele><time>2026-05-02T16:00:34.153Z</time></trkpt><trkpt lat="40.9544032" lon="9.4993184"><ele>52.0</ele><time>2026-05-02T16:00:35.154Z</time></trkpt><trkpt lat="40.9542564" lon="9.4993622"><ele>52.0</ele><time>2026-05-02T16:00:36.154Z</time></trkpt><trkpt lat="40.9541074" lon="9.4994083"><ele>52.0</ele><time>2026-05-02T16:00:37.153Z</time></trkpt><trkpt lat="40.9539589" lon="9.4994556"><ele>51.33333333333333</ele><time>2026-05-02T16:00:38.152Z</time></trkpt><trkpt lat="40.9538073" lon="9.4994998"><ele>50.66666666666667</ele><time>2026-05-02T16:00:39.154Z</time></trkpt><trkpt lat="40.9536567" lon="9.499547"><ele>50.0</ele><time>2026-05-02T16:00:40.154Z</time></trkpt><trkpt lat="40.9535071" lon="9.4995963"><ele>47.333333333333336</ele><time>2026-05-02T16:00:41.154Z</time></trkpt><trkpt lat="40.9533562" lon="9.4996451"><ele>44.66666666666667</ele><time>2026-05-02T16:00:42.154Z</time></trkpt><trkpt lat="40.9531996" lon="9.4996978"><ele>42.0</ele><time>2026-05-02T16:00:43.154Z</time></trkpt><trkpt lat="40.9530359" lon="9.499754"><ele>42.0</ele><time>2026-05-02T16:00:44.153Z</time></trkpt><trkpt lat="40.9528666" lon="9.4998122"><ele>42.0</ele><time>2026-05-02T16:00:45.153Z</time></trkpt><trkpt lat="40.9526911" lon="9.4998754"><ele>42.0</ele><time>2026-05-02T16:00:46.153Z</time></trkpt><trkpt lat="40.952511" lon="9.4999388"><ele>41.0</ele><time>2026-05-02T16:00:47.152Z</time></trkpt><trkpt lat="40.9523277" lon="9.5000057"><ele>40.0</ele><time>2026-05-02T16:00:48.154Z</time></trkpt><trkpt lat="40.9521421" lon="9.5000739"><ele>39.0</ele><time>2026-05-02T16:00:49.153Z</time></trkpt><trkpt lat="40.9519537" lon="9.500144"><ele>39.0</ele><time>2026-05-02T16:00:50.153Z</time></trkpt><trkpt lat="40.9517752" lon="9.5002132"><ele>39.0</ele><time>2026-05-02T16:00:51.154Z</time></trkpt><trkpt lat="40.9516021" lon="9.5002799"><ele>39.0</ele><time>2026-05-02T16:00:52.154Z</time></trkpt><trkpt lat="40.9514365" lon="9.5003472"><ele>38.666666666666664</ele><time>2026-05-02T16:00:53.153Z</time></trkpt><trkpt lat="40.9512673" lon="9.5004154"><ele>38.33333333333333</ele><time>2026-05-02T16:00:54.153Z</time></trkpt><trkpt lat="40.9511011" lon="9.5004873"><ele>38.0</ele><time>2026-05-02T16:00:55.153Z</time></trkpt><trkpt lat="40.9509368" lon="9.5005635"><ele>37.666666666666664</ele><time>2026-05-02T16:00:56.153Z</time></trkpt><trkpt lat="40.9507717" lon="9.5006396"><ele>37.333333333333336</ele><time>2026-05-02T16:00:57.154Z</time></trkpt><trkpt lat="40.9506044" lon="9.5007175"><ele>37.0</ele><time>2026-05-02T16:00:58.154Z</time></trkpt><trkpt lat="40.9504351" lon="9.5007978"><ele>37.0</ele><time>2026-05-02T16:00:59.153Z</time></trkpt><trkpt lat="40.9502612" lon="9.5008778"><ele>37.0</ele><time>2026-05-02T16:01:00.153Z</time></trkpt><trkpt lat="40.9500867" lon="9.5009603"><ele>37.0</ele><time>2026-05-02T16:01:01.153Z</time></trkpt><trkpt lat="40.9499107" lon="9.5010441"><ele>36.0</ele><time>2026-05-02T16:01:02.154Z</time></trkpt><trkpt lat="40.9497335" lon="9.5011287"><ele>35.0</ele><time>2026-05-02T16:01:03.153Z</time></trkpt><trkpt lat="40.9495541" lon="9.5012152"><ele>34.0</ele><time>2026-05-02T16:01:04.153Z</time></trkpt><trkpt lat="40.9493747" lon="9.5013019"><ele>33.333333333333336</ele><time>2026-05-02T16:01:05.153Z</time></trkpt><trkpt lat="40.9491951" lon="9.5013915"><ele>32.666666666666664</ele><time>2026-05-02T16:01:06.153Z</time></trkpt><trkpt lat="40.9490132" lon="9.5014817"><ele>32.0</ele><time>2026-05-02T16:01:07.154Z</time></trkpt><trkpt lat="40.9488308" lon="9.5015733"><ele>32.0</ele><time>2026-05-02T16:01:08.153Z</time></trkpt><trkpt lat="40.9486493" lon="9.5016678"><ele>32.0</ele><time>2026-05-02T16:01:09.154Z</time></trkpt><trkpt lat="40.9484716" lon="9.501762"><ele>32.0</ele><time>2026-05-02T16:01:10.154Z</time></trkpt><trkpt lat="40.9482882" lon="9.5018507"><ele>32.0</ele><time>2026-05-02T16:01:11.153Z</time></trkpt><trkpt lat="40.9481075" lon="9.5019452"><ele>32.0</ele><time>2026-05-02T16:01:12.154Z</time></trkpt><trkpt lat="40.9479254" lon="9.5020375"><ele>32.0</ele><time>2026-05-02T16:01:13.153Z</time></trkpt><trkpt lat="40.9477446" lon="9.5021331"><ele>32.0</ele><time>2026-05-02T16:01:14.154Z</time></trkpt><trkpt lat="40.9475646" lon="9.5022246"><ele>32.0</ele><time>2026-05-02T16:01:15.153Z</time></trkpt><trkpt lat="40.9473856" lon="9.5023135"><ele>32.0</ele><time>2026-05-02T16:01:16.153Z</time></trkpt><trkpt lat="40.9472093" lon="9.5024021"><ele>30.333333333333332</ele><time>2026-05-02T16:01:17.154Z</time></trkpt><trkpt lat="40.9470343" lon="9.5024903"><ele>28.666666666666664</ele><time>2026-05-02T16:01:18.154Z</time></trkpt><trkpt lat="40.9468604" lon="9.5025773"><ele>27.0</ele><time>2026-05-02T16:01:19.153Z</time></trkpt><trkpt lat="40.9466868" lon="9.5026658"><ele>26.0</ele><time>2026-05-02T16:01:20.153Z</time></trkpt><trkpt lat="40.9465133" lon="9.502755"><ele>25.0</ele><time>2026-05-02T16:01:21.153Z</time></trkpt><trkpt lat="40.9463429" lon="9.5028438"><ele>24.0</ele><time>2026-05-02T16:01:22.154Z</time></trkpt><trkpt lat="40.9461757" lon="9.5029308"><ele>24.0</ele><time>2026-05-02T16:01:23.153Z</time></trkpt><trkpt lat="40.9460129" lon="9.5030172"><ele>24.0</ele><time>2026-05-02T16:01:24.154Z</time></trkpt><trkpt lat="40.9458592" lon="9.503098"><ele>24.0</ele><time>2026-05-02T16:01:25.154Z</time></trkpt><trkpt lat="40.9457102" lon="9.5031743"><ele>24.0</ele><time>2026-05-02T16:01:26.154Z</time></trkpt><trkpt lat="40.9455746" lon="9.5032407"><ele>24.0</ele><time>2026-05-02T16:01:27.153Z</time></trkpt><trkpt lat="40.9454615" lon="9.503288"><ele>24.0</ele><time>2026-05-02T16:01:28.153Z</time></trkpt><trkpt lat="40.9453654" lon="9.503322"><ele>24.0</ele><time>2026-05-02T16:01:29.152Z</time></trkpt><trkpt lat="40.9452932" lon="9.5033435"><ele>24.0</ele><time>2026-05-02T16:01:30.153Z</time></trkpt><trkpt lat="40.9452305" lon="9.503359"><ele>23.999999999999996</ele><time>2026-05-02T16:01:31.153Z</time></trkpt><trkpt lat="40.945165" lon="9.5033676"><ele>24.0</ele><time>2026-05-02T16:01:32.153Z</time></trkpt><trkpt lat="40.9450913" lon="9.5033659"><ele>24.0</ele><time>2026-05-02T16:01:33.153Z</time></trkpt><trkpt lat="40.94502" lon="9.5033567"><ele>24.0</ele><time>2026-05-02T16:01:34.154Z</time></trkpt><trkpt lat="40.9449412" lon="9.5033533"><ele>24.0</ele><time>2026-05-02T16:01:35.153Z</time></trkpt><trkpt lat="40.9448653" lon="9.5033662"><ele>23.999999999999996</ele><time>2026-05-02T16:01:36.154Z</time></trkpt><trkpt lat="40.9447996" lon="9.5033989"><ele>24.0</ele><time>2026-05-02T16:01:37.154Z</time></trkpt><trkpt lat="40.9447432" lon="9.5034529"><ele>24.4</ele><time>2026-05-02T16:01:38.154Z</time></trkpt><trkpt lat="40.9446933" lon="9.5035258"><ele>24.799999999999997</ele><time>2026-05-02T16:01:39.153Z</time></trkpt><trkpt lat="40.9446373" lon="9.5036145"><ele>25.200000000000003</ele><time>2026-05-02T16:01:40.153Z</time></trkpt><trkpt lat="40.9445635" lon="9.5037025"><ele>25.6</ele><time>2026-05-02T16:01:41.153Z</time></trkpt><trkpt lat="40.9444724" lon="9.5037899"><ele>26.0</ele><time>2026-05-02T16:01:42.153Z</time></trkpt><trkpt lat="40.9443637" lon="9.5038672"><ele>24.75</ele><time>2026-05-02T16:01:43.154Z</time></trkpt><trkpt lat="40.9442385" lon="9.5039369"><ele>23.5</ele><time>2026-05-02T16:01:44.154Z</time></trkpt><trkpt lat="40.9440982" lon="9.50401"><ele>22.25</ele><time>2026-05-02T16:01:45.154Z</time></trkpt><trkpt lat="40.9439472" lon="9.5040907"><ele>21.0</ele><time>2026-05-02T16:01:46.153Z</time></trkpt><trkpt lat="40.9437835" lon="9.5041758"><ele>20.666666666666668</ele><time>2026-05-02T16:01:47.154Z</time></trkpt><trkpt lat="40.9436098" lon="9.5042642"><ele>20.333333333333336</ele><time>2026-05-02T16:01:48.154Z</time></trkpt><trkpt lat="40.943428" lon="9.5043575"><ele>20.0</ele><time>2026-05-02T16:01:49.153Z</time></trkpt><trkpt lat="40.9432373" lon="9.5044547"><ele>19.666666666666668</ele><time>2026-05-02T16:01:50.153Z</time></trkpt><trkpt lat="40.9430373" lon="9.5045553"><ele>19.333333333333332</ele><time>2026-05-02T16:01:51.154Z</time></trkpt><trkpt lat="40.9428356" lon="9.5046584"><ele>19.0</ele><time>2026-05-02T16:01:52.154Z</time></trkpt><trkpt lat="40.9426449" lon="9.5047558"><ele>19.333333333333332</ele><time>2026-05-02T16:01:53.154Z</time></trkpt><trkpt lat="40.9424553" lon="9.504854"><ele>19.666666666666668</ele><time>2026-05-02T16:01:54.153Z</time></trkpt><trkpt lat="40.9422675" lon="9.5049492"><ele>20.0</ele><time>2026-05-02T16:01:55.154Z</time></trkpt><trkpt lat="40.9420801" lon="9.5050436"><ele>20.0</ele><time>2026-05-02T16:01:56.154Z</time></trkpt><trkpt lat="40.9418943" lon="9.505138"><ele>20.0</ele><time>2026-05-02T16:01:57.153Z</time></trkpt><trkpt lat="40.9417099" lon="9.5052336"><ele>20.0</ele><time>2026-05-02T16:01:58.154Z</time></trkpt><trkpt lat="40.9415254" lon="9.5053277"><ele>19.0</ele><time>2026-05-02T16:01:59.154Z</time></trkpt><trkpt lat="40.9413427" lon="9.5054206"><ele>18.0</ele><time>2026-05-02T16:02:00.153Z</time></trkpt><trkpt lat="40.941161" lon="9.5055127"><ele>17.0</ele><time>2026-05-02T16:02:01.153Z</time></trkpt><trkpt lat="40.9409811" lon="9.5056026"><ele>16.0</ele><time>2026-05-02T16:02:02.154Z</time></trkpt><trkpt lat="40.9408029" lon="9.5056929"><ele>15.0</ele><time>2026-05-02T16:02:03.153Z</time></trkpt><trkpt lat="40.9406268" lon="9.5057854"><ele>14.0</ele><time>2026-05-02T16:02:04.153Z</time></trkpt><trkpt lat="40.9404502" lon="9.5058776"><ele>14.0</ele><time>2026-05-02T16:02:05.154Z</time></trkpt><trkpt lat="40.9402742" lon="9.5059692"><ele>14.0</ele><time>2026-05-02T16:02:06.154Z</time></trkpt><trkpt lat="40.9401003" lon="9.5060608"><ele>14.0</ele><time>2026-05-02T16:02:07.154Z</time></trkpt><trkpt lat="40.9399256" lon="9.5061504"><ele>13.666666666666668</ele><time>2026-05-02T16:02:08.153Z</time></trkpt><trkpt lat="40.9397534" lon="9.5062371"><ele>13.333333333333332</ele><time>2026-05-02T16:02:09.154Z</time></trkpt><trkpt lat="40.9395811" lon="9.5063237"><ele>13.0</ele><time>2026-05-02T16:02:10.154Z</time></trkpt><trkpt lat="40.9394039" lon="9.5064133"><ele>12.666666666666666</ele><time>2026-05-02T16:02:11.153Z</time></trkpt><trkpt lat="40.9392276" lon="9.5065037"><ele>12.333333333333332</ele><time>2026-05-02T16:02:12.153Z</time></trkpt><trkpt lat="40.939049" lon="9.5065915"><ele>12.0</ele><time>2026-05-02T16:02:13.153Z</time></trkpt><trkpt lat="40.9388686" lon="9.5066817"><ele>12.0</ele><time>2026-05-02T16:02:14.153Z</time></trkpt><trkpt lat="40.9386874" lon="9.5067726"><ele>12.0</ele><time>2026-05-02T16:02:15.153Z</time></trkpt><trkpt lat="40.9385056" lon="9.5068652"><ele>12.0</ele><time>2026-05-02T16:02:16.153Z</time></trkpt><trkpt lat="40.9383256" lon="9.5069587"><ele>12.0</ele><time>2026-05-02T16:02:17.154Z</time></trkpt><trkpt lat="40.9381477" lon="9.507045"><ele>12.0</ele><time>2026-05-02T16:02:18.154Z</time></trkpt><trkpt lat="40.9379805" lon="9.5071239"><ele>12.0</ele><time>2026-05-02T16:02:19.153Z</time></trkpt><trkpt lat="40.9378114" lon="9.5072033"><ele>12.0</ele><time>2026-05-02T16:02:20.154Z</time></trkpt><trkpt lat="40.937643" lon="9.5072835"><ele>12.0</ele><time>2026-05-02T16:02:21.153Z</time></trkpt><trkpt lat="40.9374746" lon="9.507361"><ele>12.0</ele><time>2026-05-02T16:02:22.154Z</time></trkpt><trkpt lat="40.9373049" lon="9.5074359"><ele>11.666666666666666</ele><time>2026-05-02T16:02:23.154Z</time></trkpt><trkpt lat="40.9371379" lon="9.5075067"><ele>11.333333333333332</ele><time>2026-05-02T16:02:24.154Z</time></trkpt><trkpt lat="40.9369666" lon="9.5075784"><ele>11.0</ele><time>2026-05-02T16:02:25.154Z</time></trkpt><trkpt lat="40.9367955" lon="9.5076471"><ele>9.666666666666666</ele><time>2026-05-02T16:02:26.153Z</time></trkpt><trkpt lat="40.9366231" lon="9.5077134"><ele>8.333333333333334</ele><time>2026-05-02T16:02:27.154Z</time></trkpt><trkpt lat="40.9364507" lon="9.5077791"><ele>7.0</ele><time>2026-05-02T16:02:28.154Z</time></trkpt><trkpt lat="40.9362784" lon="9.5078402"><ele>7.0</ele><time>2026-05-02T16:02:29.154Z</time></trkpt><trkpt lat="40.9361073" lon="9.507899"><ele>7.0</ele><time>2026-05-02T16:02:30.154Z</time></trkpt><trkpt lat="40.9359363" lon="9.5079556"><ele>7.0</ele><time>2026-05-02T16:02:31.154Z</time></trkpt><trkpt lat="40.935766" lon="9.5080088"><ele>7.0</ele><time>2026-05-02T16:02:32.153Z</time></trkpt><trkpt lat="40.9355946" lon="9.5080598"><ele>7.0</ele><time>2026-05-02T16:02:33.154Z</time></trkpt><trkpt lat="40.9354229" lon="9.5081076"><ele>7.0</ele><time>2026-05-02T16:02:34.154Z</time></trkpt><trkpt lat="40.9352496" lon="9.5081533"><ele>7.0</ele><time>2026-05-02T16:02:35.154Z</time></trkpt><trkpt lat="40.9350742" lon="9.5081972"><ele>7.0</ele><time>2026-05-02T16:02:36.154Z</time></trkpt><trkpt lat="40.9348977" lon="9.5082388"><ele>7.0</ele><time>2026-05-02T16:02:37.154Z</time></trkpt><trkpt lat="40.9347188" lon="9.5082786"><ele>6.333333333333334</ele><time>2026-05-02T16:02:38.153Z</time></trkpt><trkpt lat="40.9345383" lon="9.508318"><ele>5.666666666666667</ele><time>2026-05-02T16:02:39.153Z</time></trkpt><trkpt lat="40.9343553" lon="9.5083538"><ele>5.0</ele><time>2026-05-02T16:02:40.153Z</time></trkpt><trkpt lat="40.9341717" lon="9.5083858"><ele>5.0</ele><time>2026-05-02T16:02:41.154Z</time></trkpt><trkpt lat="40.9339912" lon="9.5084148"><ele>5.0</ele><time>2026-05-02T16:02:42.153Z</time></trkpt><trkpt lat="40.9338089" lon="9.5084387"><ele>5.0</ele><time>2026-05-02T16:02:43.153Z</time></trkpt><trkpt lat="40.9336312" lon="9.5084596"><ele>5.0</ele><time>2026-05-02T16:02:44.153Z</time></trkpt><trkpt lat="40.9334611" lon="9.5084796"><ele>5.0</ele><time>2026-05-02T16:02:45.153Z</time></trkpt><trkpt lat="40.9332885" lon="9.5084981"><ele>5.0</ele><time>2026-05-02T16:02:46.153Z</time></trkpt><trkpt lat="40.9331175" lon="9.5085132"><ele>4.666666666666667</ele><time>2026-05-02T16:02:47.154Z</time></trkpt><trkpt lat="40.9329476" lon="9.5085276"><ele>4.333333333333333</ele><time>2026-05-02T16:02:48.154Z</time></trkpt><trkpt lat="40.9327742" lon="9.5085404"><ele>4.0</ele><time>2026-05-02T16:02:49.153Z</time></trkpt><trkpt lat="40.9325998" lon="9.5085495"><ele>4.666666666666666</ele><time>2026-05-02T16:02:50.153Z</time></trkpt><trkpt lat="40.932426" lon="9.5085579"><ele>5.333333333333333</ele><time>2026-05-02T16:02:51.153Z</time></trkpt><trkpt lat="40.9322532" lon="9.5085635"><ele>6.0</ele><time>2026-05-02T16:02:52.153Z</time></trkpt><trkpt lat="40.9320798" lon="9.508569"><ele>6.0</ele><time>2026-05-02T16:02:53.154Z</time></trkpt><trkpt lat="40.9319075" lon="9.5085744"><ele>6.0</ele><time>2026-05-02T16:02:54.153Z</time></trkpt><trkpt lat="40.9317346" lon="9.5085765"><ele>6.0</ele><time>2026-05-02T16:02:55.154Z</time></trkpt><trkpt lat="40.931562" lon="9.5085729"><ele>5.333333333333333</ele><time>2026-05-02T16:02:56.154Z</time></trkpt><trkpt lat="40.9313902" lon="9.5085642"><ele>4.666666666666666</ele><time>2026-05-02T16:02:57.154Z</time></trkpt><trkpt lat="40.9312191" lon="9.5085499"><ele>4.0</ele><time>2026-05-02T16:02:58.154Z</time></trkpt><trkpt lat="40.9310506" lon="9.508532"><ele>3.333333333333333</ele><time>2026-05-02T16:02:59.153Z</time></trkpt><trkpt lat="40.9308853" lon="9.5085106"><ele>2.6666666666666665</ele><time>2026-05-02T16:03:00.154Z</time></trkpt><trkpt lat="40.930727" lon="9.5084877"><ele>2.0</ele><time>2026-05-02T16:03:01.154Z</time></trkpt><trkpt lat="40.9305667" lon="9.5084625"><ele>2.0</ele><time>2026-05-02T16:03:02.153Z</time></trkpt><trkpt lat="40.9304091" lon="9.5084334"><ele>2.0</ele><time>2026-05-02T16:03:03.154Z</time></trkpt><trkpt lat="40.9302513" lon="9.5084011"><ele>2.0</ele><time>2026-05-02T16:03:04.154Z</time></trkpt><trkpt lat="40.9300941" lon="9.508368"><ele>1.3333333333333333</ele><time>2026-05-02T16:03:05.154Z</time></trkpt><trkpt lat="40.9299394" lon="9.5083287"><ele>0.6666666666666666</ele><time>2026-05-02T16:03:06.153Z</time></trkpt><trkpt lat="40.9297883" lon="9.5082874"><ele>0.0</ele><time>2026-05-02T16:03:07.153Z</time></trkpt><trkpt lat="40.9296408" lon="9.5082477"><ele>0.0</ele><time>2026-05-02T16:03:08.154Z</time></trkpt><trkpt lat="40.9294939" lon="9.5082083"><ele>0.0</ele><time>2026-05-02T16:03:09.154Z</time></trkpt><trkpt lat="40.9293486" lon="9.5081683"><ele>0.0</ele><time>2026-05-02T16:03:10.154Z</time></trkpt><trkpt lat="40.9292066" lon="9.5081287"><ele>0.0</ele><time>2026-05-02T16:03:11.154Z</time></trkpt><trkpt lat="40.9290667" lon="9.5080896"><ele>0.75</ele><time>2026-05-02T16:03:12.153Z</time></trkpt><trkpt lat="40.9289351" lon="9.5080533"><ele>1.5</ele><time>2026-05-02T16:03:13.153Z</time></trkpt><trkpt lat="40.9288056" lon="9.5080176"><ele>2.25</ele><time>2026-05-02T16:03:14.154Z</time></trkpt><trkpt lat="40.92868" lon="9.5079829"><ele>3.0</ele><time>2026-05-02T16:03:15.154Z</time></trkpt><trkpt lat="40.9285575" lon="9.507948"><ele>3.0</ele><time>2026-05-02T16:03:16.153Z</time></trkpt><trkpt lat="40.9284382" lon="9.5079159"><ele>3.0</ele><time>2026-05-02T16:03:17.154Z</time></trkpt><trkpt lat="40.9283221" lon="9.5078863"><ele>3.0</ele><time>2026-05-02T16:03:18.154Z</time></trkpt><trkpt lat="40.9282076" lon="9.5078559"><ele>3.0</ele><time>2026-05-02T16:03:19.154Z</time></trkpt><trkpt lat="40.9280958" lon="9.5078199"><ele>2.25</ele><time>2026-05-02T16:03:20.154Z</time></trkpt><trkpt lat="40.9279817" lon="9.5077885"><ele>1.5</ele><time>2026-05-02T16:03:21.153Z</time></trkpt><trkpt lat="40.9278688" lon="9.5077568"><ele>0.75</ele><time>2026-05-02T16:03:22.154Z</time></trkpt><trkpt lat="40.9277545" lon="9.5077244"><ele>0.0</ele><time>2026-05-02T16:03:23.154Z</time></trkpt><trkpt lat="40.9276422" lon="9.5076905"><ele>0.0</ele><time>2026-05-02T16:03:24.153Z</time></trkpt><trkpt lat="40.9275262" lon="9.507653"><ele>0.0</ele><time>2026-05-02T16:03:25.154Z</time></trkpt><trkpt lat="40.9274106" lon="9.5076093"><ele>0.0</ele><time>2026-05-02T16:03:26.154Z</time></trkpt><trkpt lat="40.9272964" lon="9.5075576"><ele>0.0</ele><time>2026-05-02T16:03:27.153Z</time></trkpt><trkpt lat="40.9271859" lon="9.5075058"><ele>0.0</ele><time>2026-05-02T16:03:28.153Z</time></trkpt><trkpt lat="40.9270762" lon="9.5074585"><ele>0.0</ele><time>2026-05-02T16:03:29.154Z</time></trkpt><trkpt lat="40.9269726" lon="9.5074145"><ele>0.0</ele><time>2026-05-02T16:03:30.154Z</time></trkpt><trkpt lat="40.9268738" lon="9.5073704"><ele>0.0</ele><time>2026-05-02T16:03:31.154Z</time></trkpt><trkpt lat="40.9267812" lon="9.5073258"><ele>0.0</ele><time>2026-05-02T16:03:32.154Z</time></trkpt><trkpt lat="40.9266878" lon="9.507285"><ele>0.4</ele><time>2026-05-02T16:03:33.154Z</time></trkpt><trkpt lat="40.9265978" lon="9.5072497"><ele>0.8</ele><time>2026-05-02T16:03:34.154Z</time></trkpt><trkpt lat="40.9265107" lon="9.5072176"><ele>1.2000000000000002</ele><time>2026-05-02T16:03:35.154Z</time></trkpt><trkpt lat="40.9264234" lon="9.5071836"><ele>1.6</ele><time>2026-05-02T16:03:36.153Z</time></trkpt><trkpt lat="40.9263382" lon="9.5071514"><ele>2.0</ele><time>2026-05-02T16:03:37.154Z</time></trkpt><trkpt lat="40.9262526" lon="9.5071167"><ele>2.0</ele><time>2026-05-02T16:03:38.153Z</time></trkpt><trkpt lat="40.9261654" lon="9.5070854"><ele>2.0</ele><time>2026-05-02T16:03:39.153Z</time></trkpt><trkpt lat="40.9260766" lon="9.5070564"><ele>2.0</ele><time>2026-05-02T16:03:40.153Z</time></trkpt><trkpt lat="40.9259846" lon="9.5070292"><ele>2.0</ele><time>2026-05-02T16:03:41.154Z</time></trkpt><trkpt lat="40.9258885" lon="9.5070099"><ele>2.0</ele><time>2026-05-02T16:03:42.153Z</time></trkpt><trkpt lat="40.925792" lon="9.5069975"><ele>2.333333333333333</ele><time>2026-05-02T16:03:43.153Z</time></trkpt><trkpt lat="40.9256985" lon="9.506985"><ele>2.6666666666666665</ele><time>2026-05-02T16:03:44.153Z</time></trkpt><trkpt lat="40.9256111" lon="9.506974"><ele>3.0</ele><time>2026-05-02T16:03:45.154Z</time></trkpt><trkpt lat="40.9255263" lon="9.5069632"><ele>3.333333333333333</ele><time>2026-05-02T16:03:46.154Z</time></trkpt><trkpt lat="40.9254512" lon="9.5069499"><ele>3.6666666666666665</ele><time>2026-05-02T16:03:47.154Z</time></trkpt><trkpt lat="40.9253827" lon="9.5069388"><ele>4.0</ele><time>2026-05-02T16:03:48.154Z</time></trkpt><trkpt lat="40.9252802" lon="9.5069218"><ele>3.9999999999999996</ele><time>2026-05-02T16:03:50.154Z</time></trkpt><trkpt lat="40.9252024" lon="9.5069076"><ele>4.0</ele><time>2026-05-02T16:03:52.154Z</time></trkpt><trkpt lat="40.9251361" lon="9.5068921"><ele>4.0</ele><time>2026-05-02T16:03:54.153Z</time></trkpt><trkpt lat="40.9250609" lon="9.5068743"><ele>4.0</ele><time>2026-05-02T16:03:57.154Z</time></trkpt><trkpt lat="40.924968" lon="9.5068444"><ele>3.9999999999999996</ele><time>2026-05-02T16:04:02.154Z</time></trkpt><trkpt lat="40.9249038" lon="9.5068093"><ele>4.0</ele><time>2026-05-02T16:04:03.153Z</time></trkpt><trkpt lat="40.9248322" lon="9.5067621"><ele>3.6</ele><time>2026-05-02T16:04:04.154Z</time></trkpt><trkpt lat="40.9247508" lon="9.5067021"><ele>3.2</ele><time>2026-05-02T16:04:05.153Z</time></trkpt><trkpt lat="40.924667" lon="9.506632"><ele>2.8000000000000003</ele><time>2026-05-02T16:04:06.153Z</time></trkpt><trkpt lat="40.9245838" lon="9.506555"><ele>2.4000000000000004</ele><time>2026-05-02T16:04:07.153Z</time></trkpt><trkpt lat="40.9245005" lon="9.5064751"><ele>2.0</ele><time>2026-05-02T16:04:08.154Z</time></trkpt><trkpt lat="40.9244153" lon="9.5063939"><ele>1.9999999999999998</ele><time>2026-05-02T16:04:09.153Z</time></trkpt><trkpt lat="40.924332" lon="9.5063127"><ele>2.0</ele><time>2026-05-02T16:04:10.154Z</time></trkpt><trkpt lat="40.9242561" lon="9.5062415"><ele>2.0</ele><time>2026-05-02T16:04:11.153Z</time></trkpt><trkpt lat="40.9241811" lon="9.5061754"><ele>2.0</ele><time>2026-05-02T16:04:12.154Z</time></trkpt><trkpt lat="40.9241135" lon="9.5061138"><ele>1.9999999999999998</ele><time>2026-05-02T16:04:13.153Z</time></trkpt><trkpt lat="40.9240513" lon="9.5060582"><ele>2.0</ele><time>2026-05-02T16:04:14.154Z</time></trkpt><trkpt lat="40.923992" lon="9.5060019"><ele>2.333333333333333</ele><time>2026-05-02T16:04:15.153Z</time></trkpt><trkpt lat="40.9239368" lon="9.5059484"><ele>2.6666666666666665</ele><time>2026-05-02T16:04:16.153Z</time></trkpt><trkpt lat="40.9238845" lon="9.5058989"><ele>3.0</ele><time>2026-05-02T16:04:17.154Z</time></trkpt><trkpt lat="40.923791" lon="9.505813"><ele>3.333333333333333</ele><time>2026-05-02T16:04:19.154Z</time></trkpt><trkpt lat="40.9237085" lon="9.5057354"><ele>3.6666666666666665</ele><time>2026-05-02T16:04:21.153Z</time></trkpt><trkpt lat="40.9236354" lon="9.5056612"><ele>4.0</ele><time>2026-05-02T16:04:23.153Z</time></trkpt><trkpt lat="40.9235706" lon="9.5055998"><ele>4.0</ele><time>2026-05-02T16:04:25.153Z</time></trkpt><trkpt lat="40.9235119" lon="9.5055471"><ele>3.9999999999999996</ele><time>2026-05-02T16:04:27.154Z</time></trkpt><trkpt lat="40.9234456" lon="9.5054795"><ele>4.0</ele><time>2026-05-02T16:04:30.154Z</time></trkpt><trkpt lat="40.9233902" lon="9.5054276"><ele>4.0</ele><time>2026-05-02T16:04:52.153Z</time></trkpt><trkpt lat="40.9233288" lon="9.5053746"><ele>3.9999999999999996</ele><time>2026-05-02T16:04:54.154Z</time></trkpt><trkpt lat="40.9232694" lon="9.5053232"><ele>4.0</ele><time>2026-05-02T16:04:56.154Z</time></trkpt><trkpt lat="40.9232112" lon="9.505273"><ele>4.0</ele><time>2026-05-02T16:04:58.153Z</time></trkpt><trkpt lat="40.9231412" lon="9.505198"><ele>3.9999999999999996</ele><time>2026-05-02T16:05:00.153Z</time></trkpt><trkpt lat="40.9230546" lon="9.5051104"><ele>4.0</ele><time>2026-05-02T16:05:02.154Z</time></trkpt><trkpt lat="40.9229722" lon="9.5050347"><ele>4.0</ele><time>2026-05-02T16:05:04.154Z</time></trkpt><trkpt lat="40.9229054" lon="9.5049712"><ele>4.0</ele><time>2026-05-02T16:05:06.154Z</time></trkpt><trkpt lat="40.9228737" lon="9.5048906"><ele>3.9999999999999996</ele><time>2026-05-02T16:05:08.153Z</time></trkpt><trkpt lat="40.9228659" lon="9.5047975"><ele>4.0</ele><time>2026-05-02T16:05:10.153Z</time></trkpt><trkpt lat="40.9228192" lon="9.5047327"><ele>4.0</ele><time>2026-05-02T16:06:27.154Z</time></trkpt><trkpt lat="40.9227508" lon="9.504699"><ele>3.9999999999999996</ele><time>2026-05-02T16:06:34.154Z</time></trkpt><trkpt lat="40.9226893" lon="9.5047168"><ele>4.0</ele><time>2026-05-02T16:06:42.154Z</time></trkpt><trkpt lat="40.9227459" lon="9.5047636"><ele>4.0</ele><time>2026-05-02T16:18:36.153Z</time></trkpt><trkpt lat="40.922812" lon="9.5048016"><ele>3.9999999999999996</ele><time>2026-05-02T16:18:43.154Z</time></trkpt><trkpt lat="40.9228337" lon="9.5047084"><ele>4.0</ele><time>2026-05-02T16:18:50.126Z</time></trkpt><trkpt lat="40.9228971" lon="9.5047269"><ele>4.0</ele><time>2026-05-02T16:18:59.154Z</time></trkpt><trkpt lat="40.9228478" lon="9.504669"><ele>4.0</ele><time>2026-05-02T16:19:32.154Z</time></trkpt><trkpt lat="40.9227895" lon="9.5047019"><ele>3.9999999999999996</ele><time>2026-05-02T16:20:37.154Z</time></trkpt><trkpt lat="40.9227254" lon="9.5046977"><ele>4.0</ele><time>2026-05-02T16:20:44.154Z</time></trkpt><trkpt lat="40.9227827" lon="9.5046618"><ele>4.0</ele><time>2026-05-02T16:24:08.153Z</time></trkpt><trkpt lat="40.9227157" lon="9.5046565"><ele>3.9999999999999996</ele><time>2026-05-02T16:24:27.129Z</time></trkpt><trkpt lat="40.9227865" lon="9.5046296"><ele>4.0</ele><time>2026-05-02T16:24:36.154Z</time></trkpt><trkpt lat="40.9228527" lon="9.5046669"><ele>4.0</ele><time>2026-05-02T16:24:43.153Z</time></trkpt><trkpt lat="40.9229005" lon="9.5047247"><ele>4.0</ele><time>2026-05-02T16:24:59.153Z</time></trkpt><trkpt lat="40.9228334" lon="9.5047144"><ele>4.0</ele><time>2026-05-02T16:25:51.153Z</time></trkpt><trkpt lat="40.9227704" lon="9.5047137"><ele>4.0</ele><time>2026-05-02T16:25:59.154Z</time></trkpt><trkpt lat="40.9227082" lon="9.5047453"><ele>4.0</ele><time>2026-05-02T16:26:11.153Z</time></trkpt></trkseg><trkseg><trkpt lat="43.5689431" lon="10.3075601"><ele>0.0</ele><time>2026-05-03T05:08:45.139Z</time></trkpt><trkpt lat="43.5690042" lon="10.3076022"><ele>0.0</ele><time>2026-05-03T05:08:48.138Z</time></trkpt><trkpt lat="43.5690628" lon="10.3076462"><ele>0.0</ele><time>2026-05-03T05:08:51.14Z</time></trkpt><trkpt lat="43.5691193" lon="10.3076888"><ele>0.0</ele><time>2026-05-03T05:08:54.138Z</time></trkpt><trkpt lat="43.5691879" lon="10.3077439"><ele>0.0</ele><time>2026-05-03T05:08:58.138Z</time></trkpt><trkpt lat="43.5692535" lon="10.3077933"><ele>0.0</ele><time>2026-05-03T05:09:02.138Z</time></trkpt><trkpt lat="43.5693184" lon="10.3078473"><ele>0.0</ele><time>2026-05-03T05:09:06.139Z</time></trkpt><trkpt lat="43.5693768" lon="10.3078927"><ele>0.0</ele><time>2026-05-03T05:09:10.138Z</time></trkpt><trkpt lat="43.5694404" lon="10.3079467"><ele>0.0</ele><time>2026-05-03T05:09:15.139Z</time></trkpt><trkpt lat="43.5694877" lon="10.3080077"><ele>0.0</ele><time>2026-05-03T05:09:20.139Z</time></trkpt><trkpt lat="43.5695443" lon="10.3080578"><ele>0.0</ele><time>2026-05-03T05:09:31.138Z</time></trkpt><trkpt lat="43.5695934" lon="10.3081142"><ele>0.0</ele><time>2026-05-03T05:09:43.139Z</time></trkpt><trkpt lat="43.5696691" lon="10.3082691"><ele>0.0</ele><time>2026-05-03T05:10:21.14Z</time></trkpt><trkpt lat="43.5696076" lon="10.30825"><ele>0.0</ele><time>2026-05-03T05:10:37.14Z</time></trkpt><trkpt lat="43.5695444" lon="10.3082406"><ele>0.0</ele><time>2026-05-03T05:10:48.138Z</time></trkpt><trkpt lat="43.5694958" lon="10.308181"><ele>0.0</ele><time>2026-05-03T05:10:57.14Z</time></trkpt><trkpt lat="43.5694483" lon="10.3081196"><ele>0.0</ele><time>2026-05-03T05:11:07.139Z</time></trkpt><trkpt lat="43.5694203" lon="10.3080354"><ele>0.0</ele><time>2026-05-03T05:11:15.138Z</time></trkpt><trkpt lat="43.5694056" lon="10.3079207"><ele>0.0</ele><time>2026-05-03T05:11:58.14Z</time></trkpt><trkpt lat="43.5694385" lon="10.3078418"><ele>0.0</ele><time>2026-05-03T05:12:04.139Z</time></trkpt><trkpt lat="43.5694828" lon="10.3077569"><ele>0.0</ele><time>2026-05-03T05:12:09.139Z</time></trkpt><trkpt lat="43.5695269" lon="10.3076835"><ele>0.0</ele><time>2026-05-03T05:12:15.14Z</time></trkpt><trkpt lat="43.5695316" lon="10.307584"><ele>0.0</ele><time>2026-05-03T05:12:23.139Z</time></trkpt><trkpt lat="43.5695985" lon="10.3075322"><ele>0.0</ele><time>2026-05-03T05:12:28.139Z</time></trkpt><trkpt lat="43.5696617" lon="10.3074656"><ele>0.0</ele><time>2026-05-03T05:12:33.139Z</time></trkpt><trkpt lat="43.5697071" lon="10.3074003"><ele>0.0</ele><time>2026-05-03T05:12:37.14Z</time></trkpt><trkpt lat="43.5697637" lon="10.3073207"><ele>0.0</ele><time>2026-05-03T05:12:42.139Z</time></trkpt><trkpt lat="43.5698044" lon="10.3072383"><ele>0.0</ele><time>2026-05-03T05:12:49.14Z</time></trkpt><trkpt lat="43.5698542" lon="10.3071738"><ele>0.0</ele><time>2026-05-03T05:12:52.14Z</time></trkpt><trkpt lat="43.5699002" lon="10.307107"><ele>0.0</ele><time>2026-05-03T05:12:55.139Z</time></trkpt><trkpt lat="43.5699578" lon="10.3070528"><ele>0.0</ele><time>2026-05-03T05:12:59.139Z</time></trkpt><trkpt lat="43.5700162" lon="10.3069825"><ele>0.0</ele><time>2026-05-03T05:13:03.14Z</time></trkpt><trkpt lat="43.570078" lon="10.3069351"><ele>0.0</ele><time>2026-05-03T05:13:07.139Z</time></trkpt><trkpt lat="43.5701031" lon="10.3068541"><ele>0.0</ele><time>2026-05-03T05:13:15.14Z</time></trkpt><trkpt lat="43.5702566" lon="10.3068232"><ele>0.0</ele><time>2026-05-03T05:13:22.14Z</time></trkpt><trkpt lat="43.5703241" lon="10.3068058"><ele>0.0</ele><time>2026-05-03T05:13:25.14Z</time></trkpt><trkpt lat="43.5703979" lon="10.3067509"><ele>0.0</ele><time>2026-05-03T05:13:28.139Z</time></trkpt><trkpt lat="43.5704554" lon="10.3067134"><ele>0.0</ele><time>2026-05-03T05:13:31.14Z</time></trkpt><trkpt lat="43.570503" lon="10.3066517"><ele>0.0</ele><time>2026-05-03T05:13:35.14Z</time></trkpt><trkpt lat="43.5705671" lon="10.3066099"><ele>0.0</ele><time>2026-05-03T05:13:39.139Z</time></trkpt><trkpt lat="43.5706463" lon="10.3065732"><ele>0.0</ele><time>2026-05-03T05:13:42.138Z</time></trkpt><trkpt lat="43.5707193" lon="10.3065469"><ele>0.0</ele><time>2026-05-03T05:13:45.14Z</time></trkpt><trkpt lat="43.5707883" lon="10.3065195"><ele>0.0</ele><time>2026-05-03T05:13:48.14Z</time></trkpt><trkpt lat="43.5708547" lon="10.306473"><ele>0.0</ele><time>2026-05-03T05:13:52.138Z</time></trkpt><trkpt lat="43.5709216" lon="10.3064114"><ele>0.0</ele><time>2026-05-03T05:13:55.138Z</time></trkpt><trkpt lat="43.5710064" lon="10.3063654"><ele>0.0</ele><time>2026-05-03T05:13:58.139Z</time></trkpt><trkpt lat="43.571082" lon="10.3063464"><ele>0.0</ele><time>2026-05-03T05:14:00.14Z</time></trkpt><trkpt lat="43.5711446" lon="10.3063193"><ele>0.0</ele><time>2026-05-03T05:14:02.14Z</time></trkpt><trkpt lat="43.5712195" lon="10.3062914"><ele>0.0</ele><time>2026-05-03T05:14:05.139Z</time></trkpt><trkpt lat="43.5712945" lon="10.3062503"><ele>0.0</ele><time>2026-05-03T05:14:09.139Z</time></trkpt><trkpt lat="43.5713779" lon="10.3062161"><ele>0.0</ele><time>2026-05-03T05:14:13.14Z</time></trkpt><trkpt lat="43.5714417" lon="10.3061981"><ele>0.0</ele><time>2026-05-03T05:14:16.139Z</time></trkpt><trkpt lat="43.5715144" lon="10.3061846"><ele>0.0</ele><time>2026-05-03T05:14:19.139Z</time></trkpt><trkpt lat="43.5715692" lon="10.3061278"><ele>0.0</ele><time>2026-05-03T05:14:23.14Z</time></trkpt><trkpt lat="43.5716464" lon="10.3061229"><ele>0.0</ele><time>2026-05-03T05:14:26.138Z</time></trkpt><trkpt lat="43.5717157" lon="10.3061147"><ele>0.0</ele><time>2026-05-03T05:14:28.14Z</time></trkpt><trkpt lat="43.5717861" lon="10.3061003"><ele>0.0</ele><time>2026-05-03T05:14:31.139Z</time></trkpt><trkpt lat="43.571867" lon="10.3060837"><ele>0.0</ele><time>2026-05-03T05:14:35.138Z</time></trkpt><trkpt lat="43.5719367" lon="10.3060535"><ele>0.0</ele><time>2026-05-03T05:14:39.137Z</time></trkpt><trkpt lat="43.5720038" lon="10.306028"><ele>0.0</ele><time>2026-05-03T05:14:42.138Z</time></trkpt><trkpt lat="43.5720713" lon="10.3060101"><ele>0.3333333333333333</ele><time>2026-05-03T05:14:45.137Z</time></trkpt><trkpt lat="43.5721346" lon="10.305996"><ele>0.6666666666666666</ele><time>2026-05-03T05:14:47.137Z</time></trkpt><trkpt lat="43.5722273" lon="10.3059715"><ele>1.0</ele><time>2026-05-03T05:14:50.139Z</time></trkpt><trkpt lat="43.5723042" lon="10.3059623"><ele>1.3333333333333333</ele><time>2026-05-03T05:14:53.138Z</time></trkpt><trkpt lat="43.5723878" lon="10.3059599"><ele>1.6666666666666665</ele><time>2026-05-03T05:14:58.138Z</time></trkpt><trkpt lat="43.5724552" lon="10.3059368"><ele>2.0</ele><time>2026-05-03T05:15:00.138Z</time></trkpt><trkpt lat="43.5725122" lon="10.3058791"><ele>1.9999999999999998</ele><time>2026-05-03T05:15:04.137Z</time></trkpt><trkpt lat="43.5725871" lon="10.3058457"><ele>2.0</ele><time>2026-05-03T05:15:07.137Z</time></trkpt><trkpt lat="43.5726545" lon="10.3058417"><ele>2.0</ele><time>2026-05-03T05:15:09.138Z</time></trkpt><trkpt lat="43.5727372" lon="10.3058311"><ele>2.0</ele><time>2026-05-03T05:15:11.137Z</time></trkpt><trkpt lat="43.5728254" lon="10.3058179"><ele>1.9999999999999998</ele><time>2026-05-03T05:15:13.138Z</time></trkpt><trkpt lat="43.5729301" lon="10.3058096"><ele>2.0</ele><time>2026-05-03T05:15:15.139Z</time></trkpt><trkpt lat="43.5730209" lon="10.3058038"><ele>2.333333333333333</ele><time>2026-05-03T05:15:18.138Z</time></trkpt><trkpt lat="43.5730819" lon="10.3057795"><ele>2.6666666666666665</ele><time>2026-05-03T05:15:21.139Z</time></trkpt><trkpt lat="43.573168" lon="10.3057553"><ele>3.0</ele><time>2026-05-03T05:15:25.139Z</time></trkpt><trkpt lat="43.5732453" lon="10.3057429"><ele>3.333333333333333</ele><time>2026-05-03T05:15:28.138Z</time></trkpt><trkpt lat="43.573313" lon="10.3057074"><ele>3.6666666666666665</ele><time>2026-05-03T05:15:32.139Z</time></trkpt><trkpt lat="43.5734014" lon="10.3056887"><ele>4.0</ele><time>2026-05-03T05:15:35.137Z</time></trkpt><trkpt lat="43.5734646" lon="10.3056783"><ele>4.0</ele><time>2026-05-03T05:15:37.139Z</time></trkpt><trkpt lat="43.5735305" lon="10.3056594"><ele>3.9999999999999996</ele><time>2026-05-03T05:15:41.138Z</time></trkpt><trkpt lat="43.5735983" lon="10.3056428"><ele>4.0</ele><time>2026-05-03T05:15:45.138Z</time></trkpt><trkpt lat="43.573673" lon="10.3056296"><ele>4.0</ele><time>2026-05-03T05:15:48.137Z</time></trkpt><trkpt lat="43.5737466" lon="10.3056196"><ele>3.9999999999999996</ele><time>2026-05-03T05:15:51.138Z</time></trkpt><trkpt lat="43.5738317" lon="10.3056178"><ele>4.0</ele><time>2026-05-03T05:15:54.139Z</time></trkpt><trkpt lat="43.5739093" lon="10.3056032"><ele>4.0</ele><time>2026-05-03T05:15:57.138Z</time></trkpt><trkpt lat="43.5739766" lon="10.305592"><ele>3.333333333333333</ele><time>2026-05-03T05:16:02.139Z</time></trkpt><trkpt lat="43.5740655" lon="10.3055908"><ele>2.6666666666666665</ele><time>2026-05-03T05:16:05.138Z</time></trkpt><trkpt lat="43.574139" lon="10.3055635"><ele>2.0</ele><time>2026-05-03T05:16:10.138Z</time></trkpt><trkpt lat="43.5742168" lon="10.3055337"><ele>1.3333333333333333</ele><time>2026-05-03T05:16:17.139Z</time></trkpt><trkpt lat="43.574294" lon="10.3055176"><ele>0.6666666666666666</ele><time>2026-05-03T05:16:22.137Z</time></trkpt><trkpt lat="43.5743714" lon="10.3055136"><ele>0.0</ele><time>2026-05-03T05:16:25.139Z</time></trkpt><trkpt lat="43.5746647" lon="10.3054964"><ele>0.0</ele><time>2026-05-03T05:16:33.138Z</time></trkpt><trkpt lat="43.5747695" lon="10.3054703"><ele>0.0</ele><time>2026-05-03T05:16:38.138Z</time></trkpt><trkpt lat="43.5748359" lon="10.305454"><ele>0.0</ele><time>2026-05-03T05:16:41.137Z</time></trkpt><trkpt lat="43.5749102" lon="10.3054475"><ele>0.0</ele><time>2026-05-03T05:16:44.138Z</time></trkpt><trkpt lat="43.5749879" lon="10.3054376"><ele>0.0</ele><time>2026-05-03T05:16:47.137Z</time></trkpt><trkpt lat="43.5750544" lon="10.3054163"><ele>0.0</ele><time>2026-05-03T05:16:51.139Z</time></trkpt><trkpt lat="43.5751163" lon="10.305393"><ele>0.0</ele><time>2026-05-03T05:16:54.138Z</time></trkpt><trkpt lat="43.5751903" lon="10.3053705"><ele>0.0</ele><time>2026-05-03T05:16:59.139Z</time></trkpt><trkpt lat="43.5752606" lon="10.3053389"><ele>0.0</ele><time>2026-05-03T05:17:03.138Z</time></trkpt><trkpt lat="43.575318" lon="10.3053019"><ele>0.0</ele><time>2026-05-03T05:17:06.138Z</time></trkpt><trkpt lat="43.575393" lon="10.3052794"><ele>0.0</ele><time>2026-05-03T05:17:09.137Z</time></trkpt><trkpt lat="43.5754647" lon="10.3052599"><ele>0.0</ele><time>2026-05-03T05:17:12.138Z</time></trkpt><trkpt lat="43.5755415" lon="10.3052398"><ele>0.0</ele><time>2026-05-03T05:17:15.139Z</time></trkpt><trkpt lat="43.5756199" lon="10.3052235"><ele>0.0</ele><time>2026-05-03T05:17:18.139Z</time></trkpt><trkpt lat="43.5756908" lon="10.3052104"><ele>0.0</ele><time>2026-05-03T05:17:21.139Z</time></trkpt><trkpt lat="43.5757633" lon="10.3051983"><ele>0.0</ele><time>2026-05-03T05:17:24.139Z</time></trkpt><trkpt lat="43.5758329" lon="10.3051839"><ele>0.0</ele><time>2026-05-03T05:17:27.138Z</time></trkpt><trkpt lat="43.5759152" lon="10.3051702"><ele>0.0</ele><time>2026-05-03T05:17:30.139Z</time></trkpt><trkpt lat="43.5759939" lon="10.3051548"><ele>0.0</ele><time>2026-05-03T05:17:33.137Z</time></trkpt><trkpt lat="43.5760791" lon="10.3051454"><ele>0.0</ele><time>2026-05-03T05:17:36.138Z</time></trkpt><trkpt lat="43.5761605" lon="10.3051316"><ele>0.0</ele><time>2026-05-03T05:17:39.139Z</time></trkpt><trkpt lat="43.5762395" lon="10.3051159"><ele>0.0</ele><time>2026-05-03T05:17:42.138Z</time></trkpt><trkpt lat="43.5763218" lon="10.3051036"><ele>0.0</ele><time>2026-05-03T05:17:45.137Z</time></trkpt><trkpt lat="43.5763987" lon="10.3050953"><ele>0.0</ele><time>2026-05-03T05:17:48.138Z</time></trkpt><trkpt lat="43.5764588" lon="10.305068"><ele>0.0</ele><time>2026-05-03T05:17:51.138Z</time></trkpt><trkpt lat="43.5765387" lon="10.3050594"><ele>0.0</ele><time>2026-05-03T05:17:54.138Z</time></trkpt><trkpt lat="43.5766117" lon="10.3050369"><ele>0.0</ele><time>2026-05-03T05:17:57.139Z</time></trkpt><trkpt lat="43.576689" lon="10.3050303"><ele>0.0</ele><time>2026-05-03T05:18:00.139Z</time></trkpt><trkpt lat="43.5767695" lon="10.3050087"><ele>0.0</ele><time>2026-05-03T05:18:04.137Z</time></trkpt><trkpt lat="43.5768352" lon="10.304977"><ele>0.0</ele><time>2026-05-03T05:18:08.138Z</time></trkpt><trkpt lat="43.576913" lon="10.3049681"><ele>0.0</ele><time>2026-05-03T05:18:13.139Z</time></trkpt><trkpt lat="43.5769912" lon="10.3049577"><ele>0.0</ele><time>2026-05-03T05:18:17.139Z</time></trkpt><trkpt lat="43.5770676" lon="10.3049414"><ele>0.0</ele><time>2026-05-03T05:18:20.138Z</time></trkpt><trkpt lat="43.5771392" lon="10.3049378"><ele>0.0</ele><time>2026-05-03T05:18:23.138Z</time></trkpt><trkpt lat="43.5772094" lon="10.3049272"><ele>0.0</ele><time>2026-05-03T05:18:26.138Z</time></trkpt><trkpt lat="43.5772714" lon="10.3049548"><ele>0.0</ele><time>2026-05-03T05:18:28.138Z</time></trkpt><trkpt lat="43.5773373" lon="10.3049742"><ele>0.0</ele><time>2026-05-03T05:18:32.137Z</time></trkpt><trkpt lat="43.5774046" lon="10.3049432"><ele>0.0</ele><time>2026-05-03T05:18:36.139Z</time></trkpt><trkpt lat="43.5774787" lon="10.304904"><ele>0.0</ele><time>2026-05-03T05:18:40.139Z</time></trkpt><trkpt lat="43.5775431" lon="10.3048822"><ele>0.0</ele><time>2026-05-03T05:18:43.139Z</time></trkpt><trkpt lat="43.5776088" lon="10.3048608"><ele>0.0</ele><time>2026-05-03T05:18:46.137Z</time></trkpt><trkpt lat="43.5776824" lon="10.3048322"><ele>0.0</ele><time>2026-05-03T05:18:50.138Z</time></trkpt><trkpt lat="43.5777682" lon="10.3048018"><ele>0.0</ele><time>2026-05-03T05:18:54.139Z</time></trkpt><trkpt lat="43.577833" lon="10.3047806"><ele>0.0</ele><time>2026-05-03T05:18:57.138Z</time></trkpt><trkpt lat="43.5779152" lon="10.3047584"><ele>0.0</ele><time>2026-05-03T05:19:00.137Z</time></trkpt><trkpt lat="43.577996" lon="10.3047418"><ele>0.42857142857142855</ele><time>2026-05-03T05:19:03.139Z</time></trkpt><trkpt lat="43.5780681" lon="10.3047216"><ele>0.8571428571428571</ele><time>2026-05-03T05:19:07.137Z</time></trkpt><trkpt lat="43.5781359" lon="10.3047001"><ele>1.2857142857142856</ele><time>2026-05-03T05:19:10.138Z</time></trkpt><trkpt lat="43.5781975" lon="10.3046743"><ele>1.7142857142857142</ele><time>2026-05-03T05:19:12.139Z</time></trkpt><trkpt lat="43.5782674" lon="10.3046376"><ele>2.142857142857143</ele><time>2026-05-03T05:19:16.138Z</time></trkpt><trkpt lat="43.5783376" lon="10.3046084"><ele>2.571428571428571</ele><time>2026-05-03T05:19:20.137Z</time></trkpt><trkpt lat="43.5784141" lon="10.3045819"><ele>3.0</ele><time>2026-05-03T05:19:23.138Z</time></trkpt><trkpt lat="43.5784873" lon="10.304552"><ele>2.9999999999999996</ele><time>2026-05-03T05:19:26.139Z</time></trkpt><trkpt lat="43.5785632" lon="10.3045198"><ele>3.0</ele><time>2026-05-03T05:19:29.138Z</time></trkpt><trkpt lat="43.5786438" lon="10.3045013"><ele>3.0</ele><time>2026-05-03T05:19:32.138Z</time></trkpt><trkpt lat="43.5787169" lon="10.3044762"><ele>3.0</ele><time>2026-05-03T05:19:36.139Z</time></trkpt><trkpt lat="43.5787596" lon="10.3044046"><ele>3.0</ele><time>2026-05-03T05:19:43.139Z</time></trkpt><trkpt lat="43.5788232" lon="10.3043736"><ele>2.9999999999999996</ele><time>2026-05-03T05:19:47.138Z</time></trkpt><trkpt lat="43.5788929" lon="10.3043517"><ele>3.0</ele><time>2026-05-03T05:19:51.137Z</time></trkpt><trkpt lat="43.5789579" lon="10.3043141"><ele>2.6666666666666665</ele><time>2026-05-03T05:19:56.138Z</time></trkpt><trkpt lat="43.5790187" lon="10.3042727"><ele>2.3333333333333335</ele><time>2026-05-03T05:20:03.139Z</time></trkpt><trkpt lat="43.5790796" lon="10.3042367"><ele>2.0</ele><time>2026-05-03T05:20:11.138Z</time></trkpt><trkpt lat="43.5791264" lon="10.3041724"><ele>1.6666666666666665</ele><time>2026-05-03T05:20:21.138Z</time></trkpt><trkpt lat="43.5791811" lon="10.3041244"><ele>1.3333333333333333</ele><time>2026-05-03T05:20:27.138Z</time></trkpt><trkpt lat="43.5792413" lon="10.3040841"><ele>1.0</ele><time>2026-05-03T05:20:40.139Z</time></trkpt><trkpt lat="43.579319" lon="10.3039364"><ele>1.0</ele><time>2026-05-03T05:21:10.138Z</time></trkpt><trkpt lat="43.5793553" lon="10.3038648"><ele>0.9999999999999999</ele><time>2026-05-03T05:21:37.137Z</time></trkpt><trkpt lat="43.5793985" lon="10.3037999"><ele>1.0</ele><time>2026-05-03T05:22:38.139Z</time></trkpt><trkpt lat="43.5794448" lon="10.3037399"><ele>1.0</ele><time>2026-05-03T05:25:40.139Z</time></trkpt><trkpt lat="43.5795138" lon="10.3037142"><ele>0.9999999999999999</ele><time>2026-05-03T05:27:27.138Z</time></trkpt><trkpt lat="43.5794251" lon="10.3036723"><ele>1.0</ele><time>2026-05-03T05:28:10.055Z</time></trkpt><trkpt lat="43.5794186" lon="10.3035839"><ele>1.0</ele><time>2026-05-03T05:28:15.035Z</time></trkpt><trkpt lat="43.5794182" lon="10.3034877"><ele>1.0</ele><time>2026-05-03T05:28:22.138Z</time></trkpt><trkpt lat="43.5793564" lon="10.3034365"><ele>1.0</ele><time>2026-05-03T05:28:28.974Z</time></trkpt><trkpt lat="43.5790369" lon="10.3037236"><ele>1.0</ele><time>2026-05-03T05:40:26.136Z</time></trkpt><trkpt lat="43.5790113" lon="10.3036348"><ele>1.0</ele><time>2026-05-03T05:41:00.466Z</time></trkpt><trkpt lat="43.5772887" lon="10.3036435"><ele>1.0</ele><time>2026-05-03T05:41:08.915Z</time></trkpt><trkpt lat="43.5790082" lon="10.3036278"><ele>1.0</ele><time>2026-05-03T05:41:15.14Z</time></trkpt><trkpt lat="43.5789832" lon="10.3034661"><ele>1.0</ele><time>2026-05-03T05:41:51.14Z</time></trkpt><trkpt lat="43.57897" lon="10.3033449"><ele>1.0</ele><time>2026-05-03T05:41:52.14Z</time></trkpt><trkpt lat="43.5790066" lon="10.303137"><ele>1.0</ele><time>2026-05-03T05:41:53.141Z</time></trkpt><trkpt lat="43.5790466" lon="10.3033223"><ele>1.0</ele><time>2026-05-03T05:41:55.141Z</time></trkpt><trkpt lat="43.5791144" lon="10.3033921"><ele>1.0</ele><time>2026-05-03T05:42:27.14Z</time></trkpt><trkpt lat="43.5791787" lon="10.3034067"><ele>1.0</ele><time>2026-05-03T05:42:28.141Z</time></trkpt><trkpt lat="43.5793713" lon="10.3034728"><ele>1.0</ele><time>2026-05-03T05:42:29.14Z</time></trkpt><trkpt lat="43.5799878" lon="10.3034754"><ele>0.75</ele><time>2026-05-03T05:42:31.141Z</time></trkpt><trkpt lat="43.5801675" lon="10.3034993"><ele>0.5</ele><time>2026-05-03T05:42:35.141Z</time></trkpt><trkpt lat="43.5802368" lon="10.3034621"><ele>0.25</ele><time>2026-05-03T05:42:37.141Z</time></trkpt><trkpt lat="43.5803568" lon="10.3034264"><ele>0.0</ele><time>2026-05-03T05:42:39.14Z</time></trkpt><trkpt lat="43.5804758" lon="10.303393"><ele>0.0</ele><time>2026-05-03T05:42:41.141Z</time></trkpt><trkpt lat="43.5805726" lon="10.3033382"><ele>0.0</ele><time>2026-05-03T05:42:43.14Z</time></trkpt><trkpt lat="43.5806227" lon="10.3032557"><ele>0.0</ele><time>2026-05-03T05:42:45.141Z</time></trkpt><trkpt lat="43.5806349" lon="10.3031374"><ele>0.0</ele><time>2026-05-03T05:42:48.141Z</time></trkpt><trkpt lat="43.5806219" lon="10.3030279"><ele>0.0</ele><time>2026-05-03T05:42:51.14Z</time></trkpt><trkpt lat="43.5805955" lon="10.3029232"><ele>0.0</ele><time>2026-05-03T05:42:54.14Z</time></trkpt><trkpt lat="43.5806049" lon="10.3028261"><ele>-0.16666666666666666</ele><time>2026-05-03T05:44:59.14Z</time></trkpt><trkpt lat="43.5805933" lon="10.3027332"><ele>-0.3333333333333333</ele><time>2026-05-03T05:45:04.14Z</time></trkpt><trkpt lat="43.5805843" lon="10.3026324"><ele>-0.5</ele><time>2026-05-03T05:45:07.141Z</time></trkpt><trkpt lat="43.5805806" lon="10.3025205"><ele>-0.6666666666666666</ele><time>2026-05-03T05:45:09.141Z</time></trkpt><trkpt lat="43.5805713" lon="10.3023923"><ele>-0.8333333333333333</ele><time>2026-05-03T05:45:11.141Z</time></trkpt><trkpt lat="43.5805613" lon="10.3022659"><ele>-1.0</ele><time>2026-05-03T05:45:13.141Z</time></trkpt><trkpt lat="43.5805545" lon="10.3021667"><ele>-0.33333333333333326</ele><time>2026-05-03T05:45:15.14Z</time></trkpt><trkpt lat="43.5805389" lon="10.3020394"><ele>0.33333333333333337</ele><time>2026-05-03T05:45:18.14Z</time></trkpt><trkpt lat="43.5805324" lon="10.3019171"><ele>1.0</ele><time>2026-05-03T05:45:20.141Z</time></trkpt><trkpt lat="43.5805223" lon="10.301784"><ele>1.6666666666666667</ele><time>2026-05-03T05:45:22.14Z</time></trkpt><trkpt lat="43.5805059" lon="10.301675"><ele>2.3333333333333335</ele><time>2026-05-03T05:45:24.141Z</time></trkpt><trkpt lat="43.5805" lon="10.3015882"><ele>3.0</ele><time>2026-05-03T05:45:26.14Z</time></trkpt><trkpt lat="43.5804991" lon="10.301485"><ele>2.8333333333333335</ele><time>2026-05-03T05:45:30.14Z</time></trkpt><trkpt lat="43.580533" lon="10.3013897"><ele>2.6666666666666665</ele><time>2026-05-03T05:45:41.14Z</time></trkpt><trkpt lat="43.5805724" lon="10.3013193"><ele>2.5</ele><time>2026-05-03T05:45:47.14Z</time></trkpt><trkpt lat="43.5806192" lon="10.3012387"><ele>2.333333333333333</ele><time>2026-05-03T05:45:53.14Z</time></trkpt><trkpt lat="43.5806767" lon="10.3011481"><ele>2.1666666666666665</ele><time>2026-05-03T05:45:58.141Z</time></trkpt><trkpt lat="43.5807669" lon="10.3011193"><ele>2.0</ele><time>2026-05-03T05:46:00.141Z</time></trkpt><trkpt lat="43.5808793" lon="10.3011675"><ele>1.9999999999999998</ele><time>2026-05-03T05:46:02.141Z</time></trkpt><trkpt lat="43.5809375" lon="10.3012184"><ele>2.0</ele><time>2026-05-03T05:46:03.141Z</time></trkpt><trkpt lat="43.5809965" lon="10.3012809"><ele>2.0</ele><time>2026-05-03T05:46:04.14Z</time></trkpt><trkpt lat="43.5810564" lon="10.3013526"><ele>2.0</ele><time>2026-05-03T05:46:05.14Z</time></trkpt><trkpt lat="43.5811246" lon="10.3014326"><ele>1.9999999999999998</ele><time>2026-05-03T05:46:06.14Z</time></trkpt><trkpt lat="43.5812" lon="10.3015195"><ele>2.0</ele><time>2026-05-03T05:46:07.141Z</time></trkpt><trkpt lat="43.5812786" lon="10.3016123"><ele>2.0</ele><time>2026-05-03T05:46:08.141Z</time></trkpt><trkpt lat="43.5813588" lon="10.3017111"><ele>2.0</ele><time>2026-05-03T05:46:09.14Z</time></trkpt><trkpt lat="43.5814432" lon="10.3018128"><ele>2.0</ele><time>2026-05-03T05:46:10.14Z</time></trkpt><trkpt lat="43.5815303" lon="10.3019164"><ele>2.0</ele><time>2026-05-03T05:46:11.141Z</time></trkpt><trkpt lat="43.5816206" lon="10.3020251"><ele>2.0</ele><time>2026-05-03T05:46:12.14Z</time></trkpt><trkpt lat="43.581713" lon="10.3021423"><ele>2.0</ele><time>2026-05-03T05:46:13.141Z</time></trkpt><trkpt lat="43.5818075" lon="10.3022662"><ele>2.0</ele><time>2026-05-03T05:46:14.14Z</time></trkpt><trkpt lat="43.5819041" lon="10.3023968"><ele>2.0</ele><time>2026-05-03T05:46:15.14Z</time></trkpt><trkpt lat="43.5820005" lon="10.3025354"><ele>2.0</ele><time>2026-05-03T05:46:16.14Z</time></trkpt><trkpt lat="43.582092" lon="10.3026839"><ele>2.0</ele><time>2026-05-03T05:46:17.141Z</time></trkpt><trkpt lat="43.5821785" lon="10.3028402"><ele>2.0</ele><time>2026-05-03T05:46:18.14Z</time></trkpt><trkpt lat="43.5822564" lon="10.3030013"><ele>2.0</ele><time>2026-05-03T05:46:19.141Z</time></trkpt><trkpt lat="43.5823269" lon="10.3031685"><ele>2.0</ele><time>2026-05-03T05:46:20.14Z</time></trkpt><trkpt lat="43.5823879" lon="10.303342"><ele>2.0</ele><time>2026-05-03T05:46:21.141Z</time></trkpt><trkpt lat="43.5824402" lon="10.3035213"><ele>2.0</ele><time>2026-05-03T05:46:22.14Z</time></trkpt><trkpt lat="43.5824842" lon="10.303705"><ele>2.0</ele><time>2026-05-03T05:46:23.14Z</time></trkpt><trkpt lat="43.5825172" lon="10.3038929"><ele>1.5</ele><time>2026-05-03T05:46:24.14Z</time></trkpt><trkpt lat="43.5825416" lon="10.3040859"><ele>1.0</ele><time>2026-05-03T05:46:25.14Z</time></trkpt><trkpt lat="43.5825604" lon="10.3042842"><ele>0.5</ele><time>2026-05-03T05:46:26.141Z</time></trkpt><trkpt lat="43.5825773" lon="10.3044895"><ele>0.0</ele><time>2026-05-03T05:46:27.141Z</time></trkpt><trkpt lat="43.5825942" lon="10.3046972"><ele>-0.3333333333333333</ele><time>2026-05-03T05:46:28.141Z</time></trkpt><trkpt lat="43.5826169" lon="10.3049083"><ele>-0.6666666666666666</ele><time>2026-05-03T05:46:29.141Z</time></trkpt><trkpt lat="43.582644" lon="10.3051222"><ele>-1.0</ele><time>2026-05-03T05:46:30.14Z</time></trkpt><trkpt lat="43.5826799" lon="10.3053368"><ele>-1.0</ele><time>2026-05-03T05:46:31.141Z</time></trkpt><trkpt lat="43.5827259" lon="10.3055481"><ele>-1.0</ele><time>2026-05-03T05:46:32.141Z</time></trkpt><trkpt lat="43.5827854" lon="10.3057564"><ele>-1.0</ele><time>2026-05-03T05:46:33.141Z</time></trkpt><trkpt lat="43.582857" lon="10.3059582"><ele>-1.0</ele><time>2026-05-03T05:46:34.141Z</time></trkpt><trkpt lat="43.5829415" lon="10.3061539"><ele>-1.0</ele><time>2026-05-03T05:46:35.14Z</time></trkpt><trkpt lat="43.583037" lon="10.3063428"><ele>-1.0</ele><time>2026-05-03T05:46:36.141Z</time></trkpt><trkpt lat="43.5831387" lon="10.3065169"><ele>-1.0</ele><time>2026-05-03T05:46:37.141Z</time></trkpt><trkpt lat="43.5832411" lon="10.3066757"><ele>-1.0</ele><time>2026-05-03T05:46:38.141Z</time></trkpt><trkpt lat="43.5833427" lon="10.3068226"><ele>-1.0</ele><time>2026-05-03T05:46:39.14Z</time></trkpt><trkpt lat="43.5834397" lon="10.3069644"><ele>-1.0</ele><time>2026-05-03T05:46:40.14Z</time></trkpt><trkpt lat="43.5835335" lon="10.3071003"><ele>-1.0</ele><time>2026-05-03T05:46:41.14Z</time></trkpt><trkpt lat="43.5836242" lon="10.3072301"><ele>-1.0</ele><time>2026-05-03T05:46:42.141Z</time></trkpt><trkpt lat="43.5837125" lon="10.3073578"><ele>-1.0</ele><time>2026-05-03T05:46:43.14Z</time></trkpt><trkpt lat="43.5837998" lon="10.3074868"><ele>-1.0</ele><time>2026-05-03T05:46:44.14Z</time></trkpt><trkpt lat="43.5838863" lon="10.3076153"><ele>-0.75</ele><time>2026-05-03T05:46:45.141Z</time></trkpt><trkpt lat="43.5839717" lon="10.3077502"><ele>-0.5</ele><time>2026-05-03T05:46:46.14Z</time></trkpt><trkpt lat="43.5840572" lon="10.3078934"><ele>-0.25</ele><time>2026-05-03T05:46:47.14Z</time></trkpt><trkpt lat="43.5841411" lon="10.3080537"><ele>0.0</ele><time>2026-05-03T05:46:48.141Z</time></trkpt><trkpt lat="43.5842224" lon="10.3082283"><ele>0.0</ele><time>2026-05-03T05:46:49.141Z</time></trkpt><trkpt lat="43.5843008" lon="10.30842"><ele>0.0</ele><time>2026-05-03T05:46:50.14Z</time></trkpt><trkpt lat="43.5843732" lon="10.3086269"><ele>0.0</ele><time>2026-05-03T05:46:51.14Z</time></trkpt><trkpt lat="43.5844376" lon="10.3088493"><ele>0.0</ele><time>2026-05-03T05:46:52.14Z</time></trkpt><trkpt lat="43.5844957" lon="10.3090856"><ele>0.0</ele><time>2026-05-03T05:46:53.141Z</time></trkpt><trkpt lat="43.5845503" lon="10.3093323"><ele>0.0</ele><time>2026-05-03T05:46:54.14Z</time></trkpt><trkpt lat="43.5846009" lon="10.3095907"><ele>0.0</ele><time>2026-05-03T05:46:55.14Z</time></trkpt><trkpt lat="43.5846472" lon="10.3098577"><ele>0.0</ele><time>2026-05-03T05:46:56.141Z</time></trkpt><trkpt lat="43.5846961" lon="10.3101331"><ele>0.0</ele><time>2026-05-03T05:46:57.141Z</time></trkpt><trkpt lat="43.5847468" lon="10.3104047"><ele>0.0</ele><time>2026-05-03T05:46:58.14Z</time></trkpt><trkpt lat="43.5847945" lon="10.3106607"><ele>0.0</ele><time>2026-05-03T05:46:59.14Z</time></trkpt><trkpt lat="43.5848408" lon="10.3109109"><ele>0.0</ele><time>2026-05-03T05:47:00.14Z</time></trkpt><trkpt lat="43.5848883" lon="10.3111643"><ele>0.0</ele><time>2026-05-03T05:47:01.141Z</time></trkpt><trkpt lat="43.5849363" lon="10.3114177"><ele>0.0</ele><time>2026-05-03T05:47:02.141Z</time></trkpt><trkpt lat="43.5849854" lon="10.311672"><ele>0.0</ele><time>2026-05-03T05:47:03.141Z</time></trkpt><trkpt lat="43.5850348" lon="10.311929"><ele>0.0</ele><time>2026-05-03T05:47:04.14Z</time></trkpt><trkpt lat="43.5850842" lon="10.3121899"><ele>0.0</ele><time>2026-05-03T05:47:05.141Z</time></trkpt><trkpt lat="43.5851345" lon="10.3124587"><ele>0.0</ele><time>2026-05-03T05:47:06.141Z</time></trkpt><trkpt lat="43.5851876" lon="10.3127379"><ele>0.0</ele><time>2026-05-03T05:47:07.141Z</time></trkpt><trkpt lat="43.5852414" lon="10.3130261"><ele>0.0</ele><time>2026-05-03T05:47:08.14Z</time></trkpt><trkpt lat="43.5852959" lon="10.3133215"><ele>0.0</ele><time>2026-05-03T05:47:09.141Z</time></trkpt><trkpt lat="43.5853519" lon="10.3136216"><ele>0.0</ele><time>2026-05-03T05:47:10.14Z</time></trkpt><trkpt lat="43.5854083" lon="10.3139273"><ele>0.0</ele><time>2026-05-03T05:47:11.14Z</time></trkpt><trkpt lat="43.5854651" lon="10.3142361"><ele>0.0</ele><time>2026-05-03T05:47:12.14Z</time></trkpt><trkpt lat="43.5855272" lon="10.314547"><ele>0.0</ele><time>2026-05-03T05:47:13.141Z</time></trkpt><trkpt lat="43.5855956" lon="10.3148596"><ele>-0.5</ele><time>2026-05-03T05:47:14.14Z</time></trkpt><trkpt lat="43.5856733" lon="10.3151733"><ele>-1.0</ele><time>2026-05-03T05:47:15.141Z</time></trkpt><trkpt lat="43.5857623" lon="10.315486"><ele>-1.0</ele><time>2026-05-03T05:47:16.141Z</time></trkpt><trkpt lat="43.5858608" lon="10.315797"><ele>-1.0</ele><time>2026-05-03T05:47:17.141Z</time></trkpt><trkpt lat="43.585961" lon="10.3160926"><ele>-1.0</ele><time>2026-05-03T05:47:18.14Z</time></trkpt><trkpt lat="43.586062" lon="10.3163751"><ele>-1.0</ele><time>2026-05-03T05:47:19.14Z</time></trkpt><trkpt lat="43.5861624" lon="10.3166505"><ele>-1.0</ele><time>2026-05-03T05:47:20.141Z</time></trkpt><trkpt lat="43.5862589" lon="10.3169114"><ele>-1.0</ele><time>2026-05-03T05:47:21.14Z</time></trkpt><trkpt lat="43.5863493" lon="10.3171615"><ele>-1.0</ele><time>2026-05-03T05:47:22.14Z</time></trkpt><trkpt lat="43.5864382" lon="10.3174028"><ele>-0.6666666666666666</ele><time>2026-05-03T05:47:23.141Z</time></trkpt><trkpt lat="43.5865233" lon="10.3176337"><ele>-0.3333333333333333</ele><time>2026-05-03T05:47:24.14Z</time></trkpt><trkpt lat="43.5866059" lon="10.3178555"><ele>0.0</ele><time>2026-05-03T05:47:25.141Z</time></trkpt><trkpt lat="43.5866843" lon="10.3180643"><ele>0.0</ele><time>2026-05-03T05:47:26.14Z</time></trkpt><trkpt lat="43.5867534" lon="10.3182541"><ele>0.0</ele><time>2026-05-03T05:47:27.14Z</time></trkpt><trkpt lat="43.5868164" lon="10.3184335"><ele>0.0</ele><time>2026-05-03T05:47:28.14Z</time></trkpt><trkpt lat="43.5868736" lon="10.3186052"><ele>0.0</ele><time>2026-05-03T05:47:29.14Z</time></trkpt><trkpt lat="43.5869242" lon="10.3187701"><ele>0.25</ele><time>2026-05-03T05:47:30.141Z</time></trkpt><trkpt lat="43.5869701" lon="10.3189292"><ele>0.5</ele><time>2026-05-03T05:47:31.141Z</time></trkpt><trkpt lat="43.5870135" lon="10.3190943"><ele>0.75</ele><time>2026-05-03T05:47:32.14Z</time></trkpt><trkpt lat="43.5870499" lon="10.3192688"><ele>1.0</ele><time>2026-05-03T05:47:33.14Z</time></trkpt><trkpt lat="43.5870781" lon="10.3194493"><ele>1.0</ele><time>2026-05-03T05:47:34.14Z</time></trkpt><trkpt lat="43.5870982" lon="10.3196335"><ele>1.0</ele><time>2026-05-03T05:47:35.141Z</time></trkpt><trkpt lat="43.5871083" lon="10.319812"><ele>1.0</ele><time>2026-05-03T05:47:36.141Z</time></trkpt><trkpt lat="43.5871086" lon="10.3199827"><ele>1.0</ele><time>2026-05-03T05:47:37.14Z</time></trkpt><trkpt lat="43.5871064" lon="10.3201456"><ele>1.0</ele><time>2026-05-03T05:47:38.14Z</time></trkpt><trkpt lat="43.5871055" lon="10.3203062"><ele>1.0</ele><time>2026-05-03T05:47:39.14Z</time></trkpt><trkpt lat="43.5871071" lon="10.3204683"><ele>1.0</ele><time>2026-05-03T05:47:40.141Z</time></trkpt><trkpt lat="43.5871113" lon="10.3206354"><ele>1.0</ele><time>2026-05-03T05:47:41.14Z</time></trkpt><trkpt lat="43.5871207" lon="10.3208083"><ele>1.25</ele><time>2026-05-03T05:47:42.14Z</time></trkpt><trkpt lat="43.587138" lon="10.3209865"><ele>1.5</ele><time>2026-05-03T05:47:43.141Z</time></trkpt><trkpt lat="43.5871672" lon="10.3211645"><ele>1.75</ele><time>2026-05-03T05:47:44.141Z</time></trkpt><trkpt lat="43.5872072" lon="10.3213396"><ele>2.0</ele><time>2026-05-03T05:47:45.14Z</time></trkpt><trkpt lat="43.5872528" lon="10.3215118"><ele>1.5</ele><time>2026-05-03T05:47:46.14Z</time></trkpt><trkpt lat="43.5873021" lon="10.321684"><ele>1.0</ele><time>2026-05-03T05:47:47.14Z</time></trkpt><trkpt lat="43.5873544" lon="10.3218579"><ele>0.5</ele><time>2026-05-03T05:47:48.14Z</time></trkpt><trkpt lat="43.5874042" lon="10.3220296"><ele>0.0</ele><time>2026-05-03T05:47:49.14Z</time></trkpt><trkpt lat="43.5874485" lon="10.3221894"><ele>-0.4</ele><time>2026-05-03T05:47:50.14Z</time></trkpt><trkpt lat="43.5874873" lon="10.322332"><ele>-0.8</ele><time>2026-05-03T05:47:51.14Z</time></trkpt><trkpt lat="43.5875189" lon="10.3224641"><ele>-1.2000000000000002</ele><time>2026-05-03T05:47:52.14Z</time></trkpt><trkpt lat="43.587535" lon="10.3225901"><ele>-1.6</ele><time>2026-05-03T05:47:53.141Z</time></trkpt><trkpt lat="43.5875345" lon="10.3227093"><ele>-2.0</ele><time>2026-05-03T05:47:54.14Z</time></trkpt><trkpt lat="43.587521" lon="10.3228295"><ele>-2.0</ele><time>2026-05-03T05:47:55.141Z</time></trkpt><trkpt lat="43.58749" lon="10.3229477"><ele>-2.0</ele><time>2026-05-03T05:47:56.14Z</time></trkpt><trkpt lat="43.5874423" lon="10.3230601"><ele>-2.0</ele><time>2026-05-03T05:47:57.141Z</time></trkpt><trkpt lat="43.5873771" lon="10.3231649"><ele>-2.0</ele><time>2026-05-03T05:47:58.141Z</time></trkpt><trkpt lat="43.5872954" lon="10.3232595"><ele>-2.0</ele><time>2026-05-03T05:47:59.14Z</time></trkpt><trkpt lat="43.5872033" lon="10.3233494"><ele>-1.0</ele><time>2026-05-03T05:48:00.141Z</time></trkpt><trkpt lat="43.5871043" lon="10.3234416"><ele>0.0</ele><time>2026-05-03T05:48:01.14Z</time></trkpt><trkpt lat="43.5870015" lon="10.3235411"><ele>1.0</ele><time>2026-05-03T05:48:02.14Z</time></trkpt><trkpt lat="43.5868905" lon="10.3236379"><ele>2.0</ele><time>2026-05-03T05:48:03.141Z</time></trkpt><trkpt lat="43.5867727" lon="10.3237269"><ele>2.25</ele><time>2026-05-03T05:48:04.14Z</time></trkpt><trkpt lat="43.5866482" lon="10.3238078"><ele>2.5</ele><time>2026-05-03T05:48:05.141Z</time></trkpt><trkpt lat="43.5865175" lon="10.3238795"><ele>2.75</ele><time>2026-05-03T05:48:06.14Z</time></trkpt><trkpt lat="43.5863795" lon="10.3239491"><ele>3.0</ele><time>2026-05-03T05:48:07.14Z</time></trkpt><trkpt lat="43.5862305" lon="10.3240199"><ele>1.6666666666666667</ele><time>2026-05-03T05:48:08.141Z</time></trkpt><trkpt lat="43.5860663" lon="10.3240974"><ele>0.33333333333333337</ele><time>2026-05-03T05:48:09.14Z</time></trkpt><trkpt lat="43.5858902" lon="10.324181"><ele>-1.0</ele><time>2026-05-03T05:48:10.14Z</time></trkpt><trkpt lat="43.5857038" lon="10.3242716"><ele>-1.0</ele><time>2026-05-03T05:48:11.14Z</time></trkpt><trkpt lat="43.5855079" lon="10.3243651"><ele>-1.0</ele><time>2026-05-03T05:48:12.14Z</time></trkpt><trkpt lat="43.5853058" lon="10.3244606"><ele>-1.0</ele><time>2026-05-03T05:48:13.141Z</time></trkpt><trkpt lat="43.5850998" lon="10.3245523"><ele>-0.6666666666666666</ele><time>2026-05-03T05:48:14.141Z</time></trkpt><trkpt lat="43.5848946" lon="10.3246393"><ele>-0.3333333333333333</ele><time>2026-05-03T05:48:15.14Z</time></trkpt><trkpt lat="43.5846947" lon="10.3247182"><ele>0.0</ele><time>2026-05-03T05:48:16.141Z</time></trkpt><trkpt lat="43.5844919" lon="10.3247807"><ele>0.6666666666666666</ele><time>2026-05-03T05:48:17.141Z</time></trkpt><trkpt lat="43.5842908" lon="10.3248178"><ele>1.3333333333333333</ele><time>2026-05-03T05:48:18.14Z</time></trkpt><trkpt lat="43.5840895" lon="10.3248367"><ele>2.0</ele><time>2026-05-03T05:48:19.141Z</time></trkpt><trkpt lat="43.5838907" lon="10.324833"><ele>2.0</ele><time>2026-05-03T05:48:20.141Z</time></trkpt><trkpt lat="43.5836947" lon="10.3248045"><ele>2.0</ele><time>2026-05-03T05:48:21.14Z</time></trkpt><trkpt lat="43.5835038" lon="10.3247539"><ele>2.0</ele><time>2026-05-03T05:48:22.141Z</time></trkpt><trkpt lat="43.5833284" lon="10.3246873"><ele>1.6666666666666665</ele><time>2026-05-03T05:48:23.141Z</time></trkpt><trkpt lat="43.5831704" lon="10.3246125"><ele>1.3333333333333333</ele><time>2026-05-03T05:48:24.14Z</time></trkpt><trkpt lat="43.5830265" lon="10.3245378"><ele>1.0</ele><time>2026-05-03T05:48:25.141Z</time></trkpt><trkpt lat="43.5828954" lon="10.3244678"><ele>1.25</ele><time>2026-05-03T05:48:26.141Z</time></trkpt><trkpt lat="43.5827696" lon="10.3243996"><ele>1.5</ele><time>2026-05-03T05:48:27.14Z</time></trkpt><trkpt lat="43.5826486" lon="10.3243366"><ele>1.75</ele><time>2026-05-03T05:48:28.14Z</time></trkpt><trkpt lat="43.5825324" lon="10.3242751"><ele>2.0</ele><time>2026-05-03T05:48:29.141Z</time></trkpt><trkpt lat="43.5824234" lon="10.3242176"><ele>2.0</ele><time>2026-05-03T05:48:30.14Z</time></trkpt><trkpt lat="43.582316" lon="10.3241587"><ele>2.0</ele><time>2026-05-03T05:48:31.141Z</time></trkpt><trkpt lat="43.5821952" lon="10.3240917"><ele>2.0</ele><time>2026-05-03T05:48:32.14Z</time></trkpt><trkpt lat="43.5820578" lon="10.3240165"><ele>2.0</ele><time>2026-05-03T05:48:33.14Z</time></trkpt><trkpt lat="43.5819156" lon="10.3239397"><ele>1.6666666666666665</ele><time>2026-05-03T05:48:34.141Z</time></trkpt><trkpt lat="43.5817704" lon="10.3238631"><ele>1.3333333333333333</ele><time>2026-05-03T05:48:35.141Z</time></trkpt><trkpt lat="43.5816236" lon="10.3237848"><ele>1.0</ele><time>2026-05-03T05:48:36.14Z</time></trkpt><trkpt lat="43.5814783" lon="10.3237078"><ele>1.0</ele><time>2026-05-03T05:48:37.141Z</time></trkpt><trkpt lat="43.5813356" lon="10.3236299"><ele>1.0</ele><time>2026-05-03T05:48:38.141Z</time></trkpt><trkpt lat="43.5811962" lon="10.3235555"><ele>1.0</ele><time>2026-05-03T05:48:39.141Z</time></trkpt><trkpt lat="43.5810599" lon="10.3234801"><ele>1.5</ele><time>2026-05-03T05:48:40.14Z</time></trkpt><trkpt lat="43.5809249" lon="10.3234049"><ele>2.0</ele><time>2026-05-03T05:48:41.14Z</time></trkpt><trkpt lat="43.5807869" lon="10.3233278"><ele>2.5</ele><time>2026-05-03T05:48:42.141Z</time></trkpt><trkpt lat="43.5806524" lon="10.3232526"><ele>3.0</ele><time>2026-05-03T05:48:43.141Z</time></trkpt><trkpt lat="43.5805085" lon="10.3231737"><ele>3.0</ele><time>2026-05-03T05:48:44.14Z</time></trkpt><trkpt lat="43.5803566" lon="10.3230931"><ele>3.0</ele><time>2026-05-03T05:48:45.141Z</time></trkpt><trkpt lat="43.5802008" lon="10.3230079"><ele>3.0</ele><time>2026-05-03T05:48:46.14Z</time></trkpt><trkpt lat="43.5800405" lon="10.322919"><ele>2.6666666666666665</ele><time>2026-05-03T05:48:47.14Z</time></trkpt><trkpt lat="43.5798754" lon="10.3228295"><ele>2.333333333333333</ele><time>2026-05-03T05:48:48.14Z</time></trkpt><trkpt lat="43.579704" lon="10.322738"><ele>2.0</ele><time>2026-05-03T05:48:49.14Z</time></trkpt><trkpt lat="43.579529" lon="10.322643"><ele>2.0</ele><time>2026-05-03T05:48:50.14Z</time></trkpt><trkpt lat="43.5793495" lon="10.3225455"><ele>2.0</ele><time>2026-05-03T05:48:51.141Z</time></trkpt><trkpt lat="43.5791664" lon="10.3224456"><ele>2.0</ele><time>2026-05-03T05:48:52.141Z</time></trkpt><trkpt lat="43.5789786" lon="10.3223436"><ele>2.0</ele><time>2026-05-03T05:48:53.14Z</time></trkpt><trkpt lat="43.5787877" lon="10.3222375"><ele>2.0</ele><time>2026-05-03T05:48:54.141Z</time></trkpt><trkpt lat="43.5785924" lon="10.3221298"><ele>2.0</ele><time>2026-05-03T05:48:55.141Z</time></trkpt><trkpt lat="43.5783895" lon="10.3220187"><ele>2.333333333333333</ele><time>2026-05-03T05:48:56.141Z</time></trkpt><trkpt lat="43.5781844" lon="10.321906"><ele>2.6666666666666665</ele><time>2026-05-03T05:48:57.14Z</time></trkpt><trkpt lat="43.5779759" lon="10.3217914"><ele>3.0</ele><time>2026-05-03T05:48:58.14Z</time></trkpt><trkpt lat="43.5777645" lon="10.3216757"><ele>1.5</ele><time>2026-05-03T05:48:59.14Z</time></trkpt><trkpt lat="43.5775481" lon="10.3215636"><ele>0.0</ele><time>2026-05-03T05:49:00.14Z</time></trkpt><trkpt lat="43.5773315" lon="10.3214687"><ele>0.0</ele><time>2026-05-03T05:49:01.141Z</time></trkpt><trkpt lat="43.5771248" lon="10.3213969"><ele>0.0</ele><time>2026-05-03T05:49:02.14Z</time></trkpt><trkpt lat="43.5769241" lon="10.3213356"><ele>0.0</ele><time>2026-05-03T05:49:03.141Z</time></trkpt><trkpt lat="43.5767397" lon="10.3212817"><ele>0.0</ele><time>2026-05-03T05:49:04.141Z</time></trkpt><trkpt lat="43.5765633" lon="10.3212259"><ele>0.0</ele><time>2026-05-03T05:49:05.14Z</time></trkpt><trkpt lat="43.5763903" lon="10.321163"><ele>0.0</ele><time>2026-05-03T05:49:06.141Z</time></trkpt><trkpt lat="43.576217" lon="10.3210875"><ele>0.3333333333333333</ele><time>2026-05-03T05:49:07.14Z</time></trkpt><trkpt lat="43.5760431" lon="10.3209993"><ele>0.6666666666666666</ele><time>2026-05-03T05:49:08.14Z</time></trkpt><trkpt lat="43.5758681" lon="10.3209045"><ele>1.0</ele><time>2026-05-03T05:49:09.141Z</time></trkpt><trkpt lat="43.5756926" lon="10.3208075"><ele>1.0</ele><time>2026-05-03T05:49:10.141Z</time></trkpt><trkpt lat="43.5755154" lon="10.320711"><ele>1.0</ele><time>2026-05-03T05:49:11.14Z</time></trkpt><trkpt lat="43.5753393" lon="10.3206153"><ele>1.0</ele><time>2026-05-03T05:49:12.141Z</time></trkpt><trkpt lat="43.5751864" lon="10.3205279"><ele>2.0</ele><time>2026-05-03T05:49:13.14Z</time></trkpt><trkpt lat="43.575046" lon="10.3204512"><ele>3.0</ele><time>2026-05-03T05:49:14.141Z</time></trkpt><trkpt lat="43.5749111" lon="10.3203759"><ele>4.0</ele><time>2026-05-03T05:49:15.141Z</time></trkpt><trkpt lat="43.5747775" lon="10.3203005"><ele>5.0</ele><time>2026-05-03T05:49:16.14Z</time></trkpt><trkpt lat="43.5746505" lon="10.3202291"><ele>5.0</ele><time>2026-05-03T05:49:17.141Z</time></trkpt><trkpt lat="43.5745304" lon="10.3201637"><ele>5.0</ele><time>2026-05-03T05:49:18.14Z</time></trkpt><trkpt lat="43.5744259" lon="10.3201095"><ele>5.0</ele><time>2026-05-03T05:49:19.141Z</time></trkpt><trkpt lat="43.5743454" lon="10.3200651"><ele>5.0</ele><time>2026-05-03T05:49:20.14Z</time></trkpt><trkpt lat="43.5742791" lon="10.3200281"><ele>5.0</ele><time>2026-05-03T05:49:21.141Z</time></trkpt><trkpt lat="43.5741681" lon="10.3199675"><ele>4.166666666666667</ele><time>2026-05-03T05:49:23.141Z</time></trkpt><trkpt lat="43.5740725" lon="10.3199196"><ele>3.3333333333333335</ele><time>2026-05-03T05:49:25.141Z</time></trkpt><trkpt lat="43.5740092" lon="10.3198838"><ele>2.5</ele><time>2026-05-03T05:49:27.14Z</time></trkpt><trkpt lat="43.5739398" lon="10.3198526"><ele>1.6666666666666667</ele><time>2026-05-03T05:49:30.141Z</time></trkpt><trkpt lat="43.5738571" lon="10.3198365"><ele>0.8333333333333334</ele><time>2026-05-03T05:49:33.14Z</time></trkpt><trkpt lat="43.5738319" lon="10.3199369"><ele>0.0</ele><time>2026-05-03T05:49:36.141Z</time></trkpt><trkpt lat="43.573892" lon="10.3200256"><ele>0.0</ele><time>2026-05-03T05:49:39.14Z</time></trkpt><trkpt lat="43.5739598" lon="10.3200914"><ele>0.0</ele><time>2026-05-03T05:49:42.14Z</time></trkpt><trkpt lat="43.5740333" lon="10.3201001"><ele>0.0</ele><time>2026-05-03T06:00:06.141Z</time></trkpt><trkpt lat="43.5741119" lon="10.3200785"><ele>0.0</ele><time>2026-05-03T06:00:10.141Z</time></trkpt><trkpt lat="43.5741851" lon="10.3200321"><ele>0.0</ele><time>2026-05-03T06:00:13.141Z</time></trkpt><trkpt lat="43.574254" lon="10.3200407"><ele>0.0</ele><time>2026-05-03T06:00:15.14Z</time></trkpt><trkpt lat="43.574374" lon="10.3201075"><ele>0.0</ele><time>2026-05-03T06:00:17.14Z</time></trkpt><trkpt lat="43.5744494" lon="10.3201481"><ele>0.0</ele><time>2026-05-03T06:00:18.14Z</time></trkpt><trkpt lat="43.574531" lon="10.3201962"><ele>0.0</ele><time>2026-05-03T06:00:19.141Z</time></trkpt><trkpt lat="43.5746178" lon="10.3202443"><ele>0.0</ele><time>2026-05-03T06:00:20.141Z</time></trkpt><trkpt lat="43.5747098" lon="10.3202972"><ele>0.0</ele><time>2026-05-03T06:00:21.141Z</time></trkpt><trkpt lat="43.5748077" lon="10.3203531"><ele>0.25</ele><time>2026-05-03T06:00:22.141Z</time></trkpt><trkpt lat="43.5749131" lon="10.3204127"><ele>0.5</ele><time>2026-05-03T06:00:23.14Z</time></trkpt><trkpt lat="43.5750216" lon="10.3204725"><ele>0.75</ele><time>2026-05-03T06:00:24.141Z</time></trkpt><trkpt lat="43.5751318" lon="10.320532"><ele>1.0</ele><time>2026-05-03T06:00:25.14Z</time></trkpt><trkpt lat="43.5752421" lon="10.320594"><ele>1.0</ele><time>2026-05-03T06:00:26.14Z</time></trkpt><trkpt lat="43.5753585" lon="10.3206577"><ele>1.0</ele><time>2026-05-03T06:00:27.14Z</time></trkpt><trkpt lat="43.5754818" lon="10.3207239"><ele>1.0</ele><time>2026-05-03T06:00:28.141Z</time></trkpt><trkpt lat="43.5756121" lon="10.3207994"><ele>1.0</ele><time>2026-05-03T06:00:29.141Z</time></trkpt><trkpt lat="43.5757524" lon="10.3208763"><ele>1.0</ele><time>2026-05-03T06:00:30.141Z</time></trkpt><trkpt lat="43.5758978" lon="10.32096"><ele>1.0</ele><time>2026-05-03T06:00:31.141Z</time></trkpt><trkpt lat="43.5760538" lon="10.3210439"><ele>1.0</ele><time>2026-05-03T06:00:32.141Z</time></trkpt><trkpt lat="43.5762066" lon="10.3211244"><ele>0.6666666666666666</ele><time>2026-05-03T06:00:33.141Z</time></trkpt><trkpt lat="43.576356" lon="10.321192"><ele>0.3333333333333333</ele><time>2026-05-03T06:00:34.141Z</time></trkpt><trkpt lat="43.5765052" lon="10.3212444"><ele>0.0</ele><time>2026-05-03T06:00:35.14Z</time></trkpt><trkpt lat="43.5766621" lon="10.3212879"><ele>0.0</ele><time>2026-05-03T06:00:36.14Z</time></trkpt><trkpt lat="43.5768224" lon="10.3213352"><ele>0.0</ele><time>2026-05-03T06:00:37.141Z</time></trkpt><trkpt lat="43.5769834" lon="10.321386"><ele>0.0</ele><time>2026-05-03T06:00:38.14Z</time></trkpt><trkpt lat="43.5771496" lon="10.3214383"><ele>0.0</ele><time>2026-05-03T06:00:39.14Z</time></trkpt><trkpt lat="43.5773162" lon="10.3214947"><ele>0.0</ele><time>2026-05-03T06:00:40.141Z</time></trkpt><trkpt lat="43.5774824" lon="10.3215642"><ele>0.0</ele><time>2026-05-03T06:00:41.14Z</time></trkpt><trkpt lat="43.5776525" lon="10.3216451"><ele>0.0</ele><time>2026-05-03T06:00:42.14Z</time></trkpt><trkpt lat="43.5778218" lon="10.3217353"><ele>0.0</ele><time>2026-05-03T06:00:43.14Z</time></trkpt><trkpt lat="43.5779922" lon="10.3218309"><ele>0.0</ele><time>2026-05-03T06:00:44.14Z</time></trkpt><trkpt lat="43.578164" lon="10.3219249"><ele>1.0</ele><time>2026-05-03T06:00:45.14Z</time></trkpt><trkpt lat="43.5783355" lon="10.3220188"><ele>2.0</ele><time>2026-05-03T06:00:46.14Z</time></trkpt><trkpt lat="43.5784952" lon="10.3221072"><ele>3.0</ele><time>2026-05-03T06:00:47.14Z</time></trkpt><trkpt lat="43.5786484" lon="10.3221919"><ele>2.75</ele><time>2026-05-03T06:00:48.141Z</time></trkpt><trkpt lat="43.5787944" lon="10.322271"><ele>2.5</ele><time>2026-05-03T06:00:49.14Z</time></trkpt><trkpt lat="43.5789329" lon="10.3223486"><ele>2.25</ele><time>2026-05-03T06:00:50.14Z</time></trkpt><trkpt lat="43.5790643" lon="10.3224223"><ele>2.0</ele><time>2026-05-03T06:00:51.14Z</time></trkpt><trkpt lat="43.5791954" lon="10.3224964"><ele>2.0</ele><time>2026-05-03T06:00:52.141Z</time></trkpt><trkpt lat="43.5793345" lon="10.3225735"><ele>2.0</ele><time>2026-05-03T06:00:53.14Z</time></trkpt><trkpt lat="43.5794806" lon="10.3226531"><ele>2.0</ele><time>2026-05-03T06:00:54.14Z</time></trkpt><trkpt lat="43.5796334" lon="10.322738"><ele>2.0</ele><time>2026-05-03T06:00:55.141Z</time></trkpt><trkpt lat="43.5797928" lon="10.3228252"><ele>2.0</ele><time>2026-05-03T06:00:56.14Z</time></trkpt><trkpt lat="43.5799569" lon="10.3229128"><ele>2.0</ele><time>2026-05-03T06:00:57.14Z</time></trkpt><trkpt lat="43.5801205" lon="10.323002"><ele>1.6666666666666665</ele><time>2026-05-03T06:00:58.141Z</time></trkpt><trkpt lat="43.5802819" lon="10.3230911"><ele>1.3333333333333333</ele><time>2026-05-03T06:00:59.14Z</time></trkpt><trkpt lat="43.5804394" lon="10.3231775"><ele>1.0</ele><time>2026-05-03T06:01:00.141Z</time></trkpt><trkpt lat="43.5805979" lon="10.3232648"><ele>1.6666666666666665</ele><time>2026-05-03T06:01:01.14Z</time></trkpt><trkpt lat="43.5807551" lon="10.3233495"><ele>2.3333333333333335</ele><time>2026-05-03T06:01:02.141Z</time></trkpt><trkpt lat="43.5809019" lon="10.3234295"><ele>3.0</ele><time>2026-05-03T06:01:03.14Z</time></trkpt><trkpt lat="43.5810405" lon="10.3235029"><ele>3.0</ele><time>2026-05-03T06:01:04.141Z</time></trkpt><trkpt lat="43.5811732" lon="10.3235769"><ele>3.0</ele><time>2026-05-03T06:01:05.14Z</time></trkpt><trkpt lat="43.5813074" lon="10.3236494"><ele>3.0</ele><time>2026-05-03T06:01:06.14Z</time></trkpt><trkpt lat="43.5814447" lon="10.3237239"><ele>3.0</ele><time>2026-05-03T06:01:07.14Z</time></trkpt><trkpt lat="43.5815794" lon="10.3237981"><ele>2.75</ele><time>2026-05-03T06:01:08.14Z</time></trkpt><trkpt lat="43.5817137" lon="10.3238691"><ele>2.5</ele><time>2026-05-03T06:01:09.14Z</time></trkpt><trkpt lat="43.5818491" lon="10.3239412"><ele>2.25</ele><time>2026-05-03T06:01:10.14Z</time></trkpt><trkpt lat="43.5819861" lon="10.324018"><ele>2.0</ele><time>2026-05-03T06:01:11.141Z</time></trkpt><trkpt lat="43.5821263" lon="10.324094"><ele>2.0</ele><time>2026-05-03T06:01:12.14Z</time></trkpt><trkpt lat="43.5822665" lon="10.3241703"><ele>2.0</ele><time>2026-05-03T06:01:13.141Z</time></trkpt><trkpt lat="43.5824072" lon="10.3242494"><ele>2.0</ele><time>2026-05-03T06:01:14.14Z</time></trkpt><trkpt lat="43.5825463" lon="10.3243324"><ele>2.0</ele><time>2026-05-03T06:01:15.141Z</time></trkpt><trkpt lat="43.5826852" lon="10.3244141"><ele>2.0</ele><time>2026-05-03T06:01:16.14Z</time></trkpt><trkpt lat="43.5828253" lon="10.3244899"><ele>2.0</ele><time>2026-05-03T06:01:17.141Z</time></trkpt><trkpt lat="43.5829642" lon="10.3245642"><ele>1.5</ele><time>2026-05-03T06:01:18.141Z</time></trkpt><trkpt lat="43.5832436" lon="10.3247071"><ele>1.0</ele><time>2026-05-03T06:01:20.14Z</time></trkpt><trkpt lat="43.5833903" lon="10.324767"><ele>0.6666666666666666</ele><time>2026-05-03T06:01:21.141Z</time></trkpt><trkpt lat="43.5835354" lon="10.324819"><ele>0.3333333333333333</ele><time>2026-05-03T06:01:22.141Z</time></trkpt><trkpt lat="43.5836834" lon="10.3248568"><ele>0.0</ele><time>2026-05-03T06:01:23.14Z</time></trkpt><trkpt lat="43.5838327" lon="10.3248816"><ele>0.5</ele><time>2026-05-03T06:01:24.141Z</time></trkpt><trkpt lat="43.5839801" lon="10.3248883"><ele>1.0</ele><time>2026-05-03T06:01:25.141Z</time></trkpt><trkpt lat="43.5841279" lon="10.3248848"><ele>1.5</ele><time>2026-05-03T06:01:26.141Z</time></trkpt><trkpt lat="43.5842767" lon="10.3248704"><ele>2.0</ele><time>2026-05-03T06:01:27.141Z</time></trkpt><trkpt lat="43.5844232" lon="10.3248399"><ele>1.5</ele><time>2026-05-03T06:01:28.141Z</time></trkpt><trkpt lat="43.5845704" lon="10.324798"><ele>1.0</ele><time>2026-05-03T06:01:29.141Z</time></trkpt><trkpt lat="43.5847169" lon="10.3247506"><ele>0.5</ele><time>2026-05-03T06:01:30.14Z</time></trkpt><trkpt lat="43.5848589" lon="10.3246943"><ele>0.0</ele><time>2026-05-03T06:01:31.141Z</time></trkpt><trkpt lat="43.5850008" lon="10.3246334"><ele>0.0</ele><time>2026-05-03T06:01:32.14Z</time></trkpt><trkpt lat="43.5851401" lon="10.3245685"><ele>0.0</ele><time>2026-05-03T06:01:33.14Z</time></trkpt><trkpt lat="43.5852795" lon="10.3245041"><ele>0.0</ele><time>2026-05-03T06:01:34.141Z</time></trkpt><trkpt lat="43.5854177" lon="10.3244397"><ele>0.0</ele><time>2026-05-03T06:01:35.14Z</time></trkpt><trkpt lat="43.5855545" lon="10.3243757"><ele>-0.25</ele><time>2026-05-03T06:01:36.14Z</time></trkpt><trkpt lat="43.5856936" lon="10.3243121"><ele>-0.5</ele><time>2026-05-03T06:01:37.141Z</time></trkpt><trkpt lat="43.585836" lon="10.3242506"><ele>-0.75</ele><time>2026-05-03T06:01:38.14Z</time></trkpt><trkpt lat="43.5859798" lon="10.3241857"><ele>-1.0</ele><time>2026-05-03T06:01:39.14Z</time></trkpt><trkpt lat="43.586118" lon="10.324119"><ele>-0.6666666666666666</ele><time>2026-05-03T06:01:40.141Z</time></trkpt><trkpt lat="43.5862561" lon="10.3240464"><ele>-0.3333333333333333</ele><time>2026-05-03T06:01:41.141Z</time></trkpt><trkpt lat="43.5864095" lon="10.3239737"><ele>0.0</ele><time>2026-05-03T06:01:42.14Z</time></trkpt><trkpt lat="43.5865639" lon="10.3239037"><ele>0.5</ele><time>2026-05-03T06:01:43.14Z</time></trkpt><trkpt lat="43.5866972" lon="10.3238305"><ele>1.0</ele><time>2026-05-03T06:01:44.14Z</time></trkpt><trkpt lat="43.586824" lon="10.3237541"><ele>1.5</ele><time>2026-05-03T06:01:45.141Z</time></trkpt><trkpt lat="43.5869408" lon="10.3236735"><ele>2.0</ele><time>2026-05-03T06:01:46.141Z</time></trkpt><trkpt lat="43.5870436" lon="10.3235945"><ele>2.0</ele><time>2026-05-03T06:01:47.141Z</time></trkpt><trkpt lat="43.5871396" lon="10.3235161"><ele>2.0</ele><time>2026-05-03T06:01:48.141Z</time></trkpt><trkpt lat="43.587234" lon="10.3234356"><ele>2.0</ele><time>2026-05-03T06:01:49.14Z</time></trkpt><trkpt lat="43.5873285" lon="10.3233449"><ele>2.0</ele><time>2026-05-03T06:01:50.141Z</time></trkpt><trkpt lat="43.5874262" lon="10.3232457"><ele>2.0</ele><time>2026-05-03T06:01:51.14Z</time></trkpt><trkpt lat="43.5875251" lon="10.3231394"><ele>2.0</ele><time>2026-05-03T06:01:52.141Z</time></trkpt><trkpt lat="43.587624" lon="10.3230203"><ele>2.0</ele><time>2026-05-03T06:01:53.141Z</time></trkpt><trkpt lat="43.5877255" lon="10.3228948"><ele>2.0</ele><time>2026-05-03T06:01:54.14Z</time></trkpt><trkpt lat="43.5878347" lon="10.3227724"><ele>1.5</ele><time>2026-05-03T06:01:55.14Z</time></trkpt><trkpt lat="43.5879431" lon="10.32266"><ele>1.0</ele><time>2026-05-03T06:01:56.14Z</time></trkpt><trkpt lat="43.5880485" lon="10.3225625"><ele>0.5</ele><time>2026-05-03T06:01:57.14Z</time></trkpt><trkpt lat="43.588153" lon="10.3224789"><ele>0.0</ele><time>2026-05-03T06:01:58.141Z</time></trkpt><trkpt lat="43.5882611" lon="10.3224038"><ele>0.0</ele><time>2026-05-03T06:01:59.14Z</time></trkpt><trkpt lat="43.5883764" lon="10.3223364"><ele>0.0</ele><time>2026-05-03T06:02:00.141Z</time></trkpt><trkpt lat="43.5884987" lon="10.3222803"><ele>0.0</ele><time>2026-05-03T06:02:01.14Z</time></trkpt><trkpt lat="43.5886257" lon="10.3222373"><ele>0.0</ele><time>2026-05-03T06:02:02.141Z</time></trkpt><trkpt lat="43.5887505" lon="10.3222081"><ele>0.0</ele><time>2026-05-03T06:02:03.14Z</time></trkpt><trkpt lat="43.5888702" lon="10.3222029"><ele>0.0</ele><time>2026-05-03T06:02:04.14Z</time></trkpt><trkpt lat="43.5889811" lon="10.3222375"><ele>0.0</ele><time>2026-05-03T06:02:05.14Z</time></trkpt><trkpt lat="43.5890732" lon="10.3223117"><ele>0.0</ele><time>2026-05-03T06:02:06.14Z</time></trkpt><trkpt lat="43.5891479" lon="10.3224102"><ele>0.0</ele><time>2026-05-03T06:02:07.14Z</time></trkpt><trkpt lat="43.5891953" lon="10.3225328"><ele>0.2</ele><time>2026-05-03T06:02:08.14Z</time></trkpt><trkpt lat="43.5892201" lon="10.3226643"><ele>0.4</ele><time>2026-05-03T06:02:09.141Z</time></trkpt><trkpt lat="43.5892188" lon="10.3228007"><ele>0.6000000000000001</ele><time>2026-05-03T06:02:10.141Z</time></trkpt><trkpt lat="43.589192" lon="10.3229317"><ele>0.8</ele><time>2026-05-03T06:02:11.14Z</time></trkpt><trkpt lat="43.5891407" lon="10.323047"><ele>1.0</ele><time>2026-05-03T06:02:12.14Z</time></trkpt><trkpt lat="43.5890712" lon="10.3231406"><ele>1.2000000000000002</ele><time>2026-05-03T06:02:13.141Z</time></trkpt><trkpt lat="43.5889871" lon="10.3232046"><ele>1.4000000000000001</ele><time>2026-05-03T06:02:14.14Z</time></trkpt><trkpt lat="43.5888881" lon="10.3232417"><ele>1.6</ele><time>2026-05-03T06:02:15.141Z</time></trkpt><trkpt lat="43.5887809" lon="10.3232455"><ele>1.8</ele><time>2026-05-03T06:02:16.141Z</time></trkpt><trkpt lat="43.5886733" lon="10.3232146"><ele>2.0</ele><time>2026-05-03T06:02:17.141Z</time></trkpt><trkpt lat="43.5885706" lon="10.3231501"><ele>1.5</ele><time>2026-05-03T06:02:18.14Z</time></trkpt><trkpt lat="43.5884804" lon="10.323047"><ele>1.0</ele><time>2026-05-03T06:02:19.14Z</time></trkpt><trkpt lat="43.5884086" lon="10.3229189"><ele>0.5</ele><time>2026-05-03T06:02:20.141Z</time></trkpt><trkpt lat="43.5883521" lon="10.3227715"><ele>0.0</ele><time>2026-05-03T06:02:21.141Z</time></trkpt><trkpt lat="43.5883023" lon="10.3226036"><ele>0.0</ele><time>2026-05-03T06:02:22.141Z</time></trkpt><trkpt lat="43.5882411" lon="10.3224131"><ele>0.0</ele><time>2026-05-03T06:02:23.14Z</time></trkpt><trkpt lat="43.5881699" lon="10.3221984"><ele>0.0</ele><time>2026-05-03T06:02:24.141Z</time></trkpt><trkpt lat="43.5880906" lon="10.3219678"><ele>0.3333333333333333</ele><time>2026-05-03T06:02:25.141Z</time></trkpt><trkpt lat="43.5880094" lon="10.3217368"><ele>0.6666666666666666</ele><time>2026-05-03T06:02:26.141Z</time></trkpt><trkpt lat="43.5879307" lon="10.3215047"><ele>1.0</ele><time>2026-05-03T06:02:27.14Z</time></trkpt><trkpt lat="43.5878537" lon="10.3212678"><ele>1.0</ele><time>2026-05-03T06:02:28.141Z</time></trkpt><trkpt lat="43.5877766" lon="10.3210313"><ele>1.0</ele><time>2026-05-03T06:02:29.141Z</time></trkpt><trkpt lat="43.5877005" lon="10.320789"><ele>1.0</ele><time>2026-05-03T06:02:30.141Z</time></trkpt><trkpt lat="43.5876274" lon="10.3205446"><ele>1.0</ele><time>2026-05-03T06:02:31.14Z</time></trkpt><trkpt lat="43.5875569" lon="10.3202943"><ele>1.0</ele><time>2026-05-03T06:02:32.141Z</time></trkpt><trkpt lat="43.5874853" lon="10.3200386"><ele>1.0</ele><time>2026-05-03T06:02:33.141Z</time></trkpt><trkpt lat="43.58741" lon="10.3197856"><ele>1.0</ele><time>2026-05-03T06:02:34.14Z</time></trkpt><trkpt lat="43.5873389" lon="10.3195465"><ele>1.0</ele><time>2026-05-03T06:02:35.141Z</time></trkpt><trkpt lat="43.5872714" lon="10.3193141"><ele>1.0</ele><time>2026-05-03T06:02:36.14Z</time></trkpt><trkpt lat="43.5872003" lon="10.3190788"><ele>1.0</ele><time>2026-05-03T06:02:37.14Z</time></trkpt><trkpt lat="43.5871274" lon="10.318843"><ele>1.0</ele><time>2026-05-03T06:02:38.14Z</time></trkpt><trkpt lat="43.5870518" lon="10.3186045"><ele>1.0</ele><time>2026-05-03T06:02:39.14Z</time></trkpt><trkpt lat="43.5869756" lon="10.3183628"><ele>0.6666666666666666</ele><time>2026-05-03T06:02:40.141Z</time></trkpt><trkpt lat="43.5868982" lon="10.3181192"><ele>0.3333333333333333</ele><time>2026-05-03T06:02:41.14Z</time></trkpt><trkpt lat="43.5868173" lon="10.317873"><ele>0.0</ele><time>2026-05-03T06:02:42.14Z</time></trkpt><trkpt lat="43.5867387" lon="10.3176365"><ele>0.0</ele><time>2026-05-03T06:02:43.14Z</time></trkpt><trkpt lat="43.5866648" lon="10.3174123"><ele>0.0</ele><time>2026-05-03T06:02:44.141Z</time></trkpt><trkpt lat="43.5865957" lon="10.3171956"><ele>0.0</ele><time>2026-05-03T06:02:45.141Z</time></trkpt><trkpt lat="43.5865244" lon="10.3169774"><ele>-0.3333333333333333</ele><time>2026-05-03T06:02:46.141Z</time></trkpt><trkpt lat="43.5864526" lon="10.3167606"><ele>-0.6666666666666666</ele><time>2026-05-03T06:02:47.141Z</time></trkpt><trkpt lat="43.5863856" lon="10.3165514"><ele>-1.0</ele><time>2026-05-03T06:02:48.141Z</time></trkpt><trkpt lat="43.5863228" lon="10.3163521"><ele>-1.0</ele><time>2026-05-03T06:02:49.141Z</time></trkpt><trkpt lat="43.586267" lon="10.3161699"><ele>-1.0</ele><time>2026-05-03T06:02:50.14Z</time></trkpt><trkpt lat="43.5862217" lon="10.3159962"><ele>-1.0</ele><time>2026-05-03T06:02:51.14Z</time></trkpt><trkpt lat="43.5861882" lon="10.3158295"><ele>-1.0</ele><time>2026-05-03T06:02:52.14Z</time></trkpt><trkpt lat="43.5861669" lon="10.3156694"><ele>-1.0</ele><time>2026-05-03T06:02:53.14Z</time></trkpt><trkpt lat="43.5861524" lon="10.3155005"><ele>-1.0</ele><time>2026-05-03T06:02:54.141Z</time></trkpt><trkpt lat="43.5861383" lon="10.3153264"><ele>-1.0</ele><time>2026-05-03T06:02:55.141Z</time></trkpt><trkpt lat="43.5861188" lon="10.3151516"><ele>-1.0</ele><time>2026-05-03T06:02:56.14Z</time></trkpt><trkpt lat="43.5860876" lon="10.3149827"><ele>-1.0</ele><time>2026-05-03T06:02:57.141Z</time></trkpt><trkpt lat="43.5860434" lon="10.3148204"><ele>-1.0</ele><time>2026-05-03T06:02:58.141Z</time></trkpt><trkpt lat="43.5859854" lon="10.3146608"><ele>-1.0</ele><time>2026-05-03T06:02:59.141Z</time></trkpt><trkpt lat="43.5859149" lon="10.3145041"><ele>-1.0</ele><time>2026-05-03T06:03:00.14Z</time></trkpt><trkpt lat="43.5858378" lon="10.3143458"><ele>-1.0</ele><time>2026-05-03T06:03:01.14Z</time></trkpt><trkpt lat="43.5857666" lon="10.3141802"><ele>-1.0</ele><time>2026-05-03T06:03:02.141Z</time></trkpt><trkpt lat="43.5857081" lon="10.3140086"><ele>-1.0</ele><time>2026-05-03T06:03:03.14Z</time></trkpt><trkpt lat="43.5856622" lon="10.3138405"><ele>-1.0</ele><time>2026-05-03T06:03:04.14Z</time></trkpt><trkpt lat="43.5856189" lon="10.3136762"><ele>-1.0</ele><time>2026-05-03T06:03:05.141Z</time></trkpt><trkpt lat="43.5855778" lon="10.3135037"><ele>-1.0</ele><time>2026-05-03T06:03:06.14Z</time></trkpt><trkpt lat="43.5855353" lon="10.3133288"><ele>-1.0</ele><time>2026-05-03T06:03:07.141Z</time></trkpt><trkpt lat="43.585496" lon="10.3131476"><ele>-1.0</ele><time>2026-05-03T06:03:08.14Z</time></trkpt><trkpt lat="43.5854558" lon="10.312968"><ele>-0.8</ele><time>2026-05-03T06:03:09.14Z</time></trkpt><trkpt lat="43.5854191" lon="10.3128218"><ele>-0.6000000000000001</ele><time>2026-05-03T06:03:10.141Z</time></trkpt><trkpt lat="43.5853912" lon="10.312701"><ele>-0.4</ele><time>2026-05-03T06:03:11.14Z</time></trkpt><trkpt lat="43.5853707" lon="10.3125941"><ele>-0.2</ele><time>2026-05-03T06:03:12.141Z</time></trkpt><trkpt lat="43.5853489" lon="10.3125074"><ele>0.0</ele><time>2026-05-03T06:03:13.14Z</time></trkpt><trkpt lat="43.585264" lon="10.3123872"><ele>0.0</ele><time>2026-05-03T06:03:15.14Z</time></trkpt><trkpt lat="43.5851558" lon="10.3123548"><ele>0.0</ele><time>2026-05-03T06:03:17.14Z</time></trkpt><trkpt lat="43.5850813" lon="10.3123982"><ele>0.0</ele><time>2026-05-03T06:03:18.141Z</time></trkpt><trkpt lat="43.5850292" lon="10.3124641"><ele>0.0</ele><time>2026-05-03T06:03:19.141Z</time></trkpt><trkpt lat="43.5850012" lon="10.3125531"><ele>0.0</ele><time>2026-05-03T06:03:20.14Z</time></trkpt><trkpt lat="43.5850012" lon="10.3126493"><ele>0.0</ele><time>2026-05-03T06:03:21.14Z</time></trkpt><trkpt lat="43.5850212" lon="10.3127623"><ele>0.0</ele><time>2026-05-03T06:03:22.141Z</time></trkpt><trkpt lat="43.5850487" lon="10.3128854"><ele>0.0</ele><time>2026-05-03T06:03:23.141Z</time></trkpt><trkpt lat="43.5850798" lon="10.3130279"><ele>0.0</ele><time>2026-05-03T06:03:24.141Z</time></trkpt><trkpt lat="43.5851153" lon="10.3131841"><ele>0.0</ele><time>2026-05-03T06:03:25.141Z</time></trkpt><trkpt lat="43.5851516" lon="10.3133516"><ele>0.0</ele><time>2026-05-03T06:03:26.141Z</time></trkpt><trkpt lat="43.5851909" lon="10.3135351"><ele>0.0</ele><time>2026-05-03T06:03:27.14Z</time></trkpt><trkpt lat="43.5852298" lon="10.3137264"><ele>0.0</ele><time>2026-05-03T06:03:28.141Z</time></trkpt><trkpt lat="43.5852681" lon="10.3139251"><ele>0.0</ele><time>2026-05-03T06:03:29.14Z</time></trkpt><trkpt lat="43.5853077" lon="10.3141298"><ele>0.0</ele><time>2026-05-03T06:03:30.14Z</time></trkpt><trkpt lat="43.5853476" lon="10.3143388"><ele>0.0</ele><time>2026-05-03T06:03:31.14Z</time></trkpt><trkpt lat="43.5853944" lon="10.3145606"><ele>0.0</ele><time>2026-05-03T06:03:32.14Z</time></trkpt><trkpt lat="43.5854508" lon="10.3147888"><ele>0.0</ele><time>2026-05-03T06:03:33.141Z</time></trkpt><trkpt lat="43.5855092" lon="10.3150119"><ele>-0.3333333333333333</ele><time>2026-05-03T06:03:34.141Z</time></trkpt><trkpt lat="43.5855711" lon="10.315224"><ele>-0.6666666666666666</ele><time>2026-05-03T06:03:35.14Z</time></trkpt><trkpt lat="43.5856334" lon="10.3154253"><ele>-1.0</ele><time>2026-05-03T06:03:36.14Z</time></trkpt><trkpt lat="43.5856967" lon="10.3156145"><ele>-1.0</ele><time>2026-05-03T06:03:37.141Z</time></trkpt><trkpt lat="43.5857581" lon="10.3157976"><ele>-1.0</ele><time>2026-05-03T06:03:38.14Z</time></trkpt><trkpt lat="43.5858158" lon="10.315969"><ele>-1.0</ele><time>2026-05-03T06:03:39.141Z</time></trkpt><trkpt lat="43.5858676" lon="10.3161367"><ele>-1.0</ele><time>2026-05-03T06:03:40.14Z</time></trkpt><trkpt lat="43.5859201" lon="10.3163048"><ele>-1.0</ele><time>2026-05-03T06:03:41.14Z</time></trkpt><trkpt lat="43.5859766" lon="10.31647"><ele>-1.0</ele><time>2026-05-03T06:03:42.141Z</time></trkpt><trkpt lat="43.5860307" lon="10.3166319"><ele>-1.0</ele><time>2026-05-03T06:03:43.141Z</time></trkpt><trkpt lat="43.5860833" lon="10.3167925"><ele>-1.0</ele><time>2026-05-03T06:03:44.14Z</time></trkpt><trkpt lat="43.5861375" lon="10.3169519"><ele>-1.0</ele><time>2026-05-03T06:03:45.141Z</time></trkpt><trkpt lat="43.5862024" lon="10.31712"><ele>-1.0</ele><time>2026-05-03T06:03:46.141Z</time></trkpt><trkpt lat="43.586276" lon="10.3172967"><ele>-1.0</ele><time>2026-05-03T06:03:47.141Z</time></trkpt><trkpt lat="43.5863624" lon="10.3174693"><ele>-1.0</ele><time>2026-05-03T06:03:48.141Z</time></trkpt><trkpt lat="43.5864523" lon="10.3176436"><ele>-0.6666666666666666</ele><time>2026-05-03T06:03:49.141Z</time></trkpt><trkpt lat="43.5865336" lon="10.3178133"><ele>-0.3333333333333333</ele><time>2026-05-03T06:03:50.14Z</time></trkpt><trkpt lat="43.5866114" lon="10.3179958"><ele>0.0</ele><time>2026-05-03T06:03:51.141Z</time></trkpt><trkpt lat="43.5866888" lon="10.3181881"><ele>0.0</ele><time>2026-05-03T06:03:52.141Z</time></trkpt><trkpt lat="43.5867639" lon="10.3183933"><ele>0.0</ele><time>2026-05-03T06:03:53.14Z</time></trkpt><trkpt lat="43.5868357" lon="10.3186019"><ele>0.0</ele><time>2026-05-03T06:03:54.14Z</time></trkpt><trkpt lat="43.5869053" lon="10.3188116"><ele>0.3333333333333333</ele><time>2026-05-03T06:03:55.141Z</time></trkpt><trkpt lat="43.5869761" lon="10.3190283"><ele>0.6666666666666666</ele><time>2026-05-03T06:03:56.14Z</time></trkpt><trkpt lat="43.5870474" lon="10.3192559"><ele>1.0</ele><time>2026-05-03T06:03:57.141Z</time></trkpt><trkpt lat="43.5871181" lon="10.3194908"><ele>1.0</ele><time>2026-05-03T06:03:58.14Z</time></trkpt><trkpt lat="43.5871822" lon="10.3197215"><ele>1.0</ele><time>2026-05-03T06:03:59.141Z</time></trkpt><trkpt lat="43.5872451" lon="10.3199438"><ele>1.0</ele><time>2026-05-03T06:04:00.141Z</time></trkpt><trkpt lat="43.5873073" lon="10.3201708"><ele>1.0</ele><time>2026-05-03T06:04:01.14Z</time></trkpt><trkpt lat="43.5873696" lon="10.3204"><ele>1.0</ele><time>2026-05-03T06:04:02.14Z</time></trkpt><trkpt lat="43.5874318" lon="10.3206308"><ele>1.0</ele><time>2026-05-03T06:04:03.141Z</time></trkpt><trkpt lat="43.5874965" lon="10.3208636"><ele>1.3333333333333333</ele><time>2026-05-03T06:04:04.14Z</time></trkpt><trkpt lat="43.5875614" lon="10.3210994"><ele>1.6666666666666665</ele><time>2026-05-03T06:04:05.141Z</time></trkpt><trkpt lat="43.5876276" lon="10.3213372"><ele>2.0</ele><time>2026-05-03T06:04:06.14Z</time></trkpt><trkpt lat="43.5876924" lon="10.3215737"><ele>1.3333333333333333</ele><time>2026-05-03T06:04:07.14Z</time></trkpt><trkpt lat="43.5877572" lon="10.3218126"><ele>0.6666666666666666</ele><time>2026-05-03T06:04:08.14Z</time></trkpt><trkpt lat="43.5878231" lon="10.3220538"><ele>0.0</ele><time>2026-05-03T06:04:09.141Z</time></trkpt><trkpt lat="43.587892" lon="10.3222966"><ele>0.0</ele><time>2026-05-03T06:04:10.141Z</time></trkpt><trkpt lat="43.5879631" lon="10.3225444"><ele>0.0</ele><time>2026-05-03T06:04:11.141Z</time></trkpt><trkpt lat="43.5880393" lon="10.3227988"><ele>0.0</ele><time>2026-05-03T06:04:12.141Z</time></trkpt><trkpt lat="43.5881141" lon="10.323054"><ele>0.0</ele><time>2026-05-03T06:04:13.14Z</time></trkpt><trkpt lat="43.588186" lon="10.3233025"><ele>0.0</ele><time>2026-05-03T06:04:14.14Z</time></trkpt><trkpt lat="43.5882542" lon="10.3235388"><ele>0.0</ele><time>2026-05-03T06:04:15.14Z</time></trkpt><trkpt lat="43.5883225" lon="10.3237742"><ele>0.3333333333333333</ele><time>2026-05-03T06:04:16.141Z</time></trkpt><trkpt lat="43.5883913" lon="10.3240066"><ele>0.6666666666666666</ele><time>2026-05-03T06:04:17.141Z</time></trkpt><trkpt lat="43.5884566" lon="10.3242279"><ele>1.0</ele><time>2026-05-03T06:04:18.14Z</time></trkpt><trkpt lat="43.588521" lon="10.3244479"><ele>1.0</ele><time>2026-05-03T06:04:19.14Z</time></trkpt><trkpt lat="43.5885868" lon="10.3246711"><ele>1.0</ele><time>2026-05-03T06:04:20.14Z</time></trkpt><trkpt lat="43.588654" lon="10.3248935"><ele>1.0</ele><time>2026-05-03T06:04:21.14Z</time></trkpt><trkpt lat="43.5887216" lon="10.3251161"><ele>0.6666666666666666</ele><time>2026-05-03T06:04:22.14Z</time></trkpt><trkpt lat="43.5887872" lon="10.3253365"><ele>0.3333333333333333</ele><time>2026-05-03T06:04:23.141Z</time></trkpt><trkpt lat="43.5888509" lon="10.3255516"><ele>0.0</ele><time>2026-05-03T06:04:24.14Z</time></trkpt><trkpt lat="43.58891" lon="10.325756"><ele>0.0</ele><time>2026-05-03T06:04:25.141Z</time></trkpt><trkpt lat="43.5889655" lon="10.325953"><ele>0.0</ele><time>2026-05-03T06:04:26.14Z</time></trkpt><trkpt lat="43.5890195" lon="10.3261379"><ele>0.0</ele><time>2026-05-03T06:04:27.14Z</time></trkpt><trkpt lat="43.5890722" lon="10.3263182"><ele>0.0</ele><time>2026-05-03T06:04:28.141Z</time></trkpt><trkpt lat="43.5891268" lon="10.3264995"><ele>-0.25</ele><time>2026-05-03T06:04:29.141Z</time></trkpt><trkpt lat="43.5891829" lon="10.3266834"><ele>-0.5</ele><time>2026-05-03T06:04:30.14Z</time></trkpt><trkpt lat="43.5892402" lon="10.3268696"><ele>-0.75</ele><time>2026-05-03T06:04:31.141Z</time></trkpt><trkpt lat="43.5892966" lon="10.3270551"><ele>-1.0</ele><time>2026-05-03T06:04:32.141Z</time></trkpt><trkpt lat="43.5893513" lon="10.3272396"><ele>-1.0</ele><time>2026-05-03T06:04:33.141Z</time></trkpt><trkpt lat="43.5894054" lon="10.327424"><ele>-1.0</ele><time>2026-05-03T06:04:34.14Z</time></trkpt><trkpt lat="43.58946" lon="10.3276082"><ele>-1.0</ele><time>2026-05-03T06:04:35.14Z</time></trkpt><trkpt lat="43.5895154" lon="10.3277943"><ele>-1.0</ele><time>2026-05-03T06:04:36.14Z</time></trkpt><trkpt lat="43.589572" lon="10.3279818"><ele>-1.6666666666666665</ele><time>2026-05-03T06:04:37.14Z</time></trkpt><trkpt lat="43.5896296" lon="10.3281735"><ele>-2.3333333333333335</ele><time>2026-05-03T06:04:38.141Z</time></trkpt><trkpt lat="43.5896886" lon="10.3283709"><ele>-3.0</ele><time>2026-05-03T06:04:39.141Z</time></trkpt><trkpt lat="43.5897499" lon="10.3285762"><ele>-3.0</ele><time>2026-05-03T06:04:40.141Z</time></trkpt><trkpt lat="43.5898143" lon="10.3287895"><ele>-3.0</ele><time>2026-05-03T06:04:41.14Z</time></trkpt><trkpt lat="43.5898806" lon="10.3290136"><ele>-3.0</ele><time>2026-05-03T06:04:42.14Z</time></trkpt><trkpt lat="43.5899509" lon="10.3292485"><ele>-2.6666666666666665</ele><time>2026-05-03T06:04:43.141Z</time></trkpt><trkpt lat="43.590024" lon="10.3294952"><ele>-2.333333333333333</ele><time>2026-05-03T06:04:44.141Z</time></trkpt><trkpt lat="43.5901008" lon="10.3297518"><ele>-2.0</ele><time>2026-05-03T06:04:45.14Z</time></trkpt><trkpt lat="43.5901806" lon="10.330016"><ele>-2.0</ele><time>2026-05-03T06:04:46.141Z</time></trkpt><trkpt lat="43.5902638" lon="10.3302863"><ele>-2.0</ele><time>2026-05-03T06:04:47.141Z</time></trkpt><trkpt lat="43.5903466" lon="10.3305582"><ele>-2.0</ele><time>2026-05-03T06:04:48.141Z</time></trkpt><trkpt lat="43.5904241" lon="10.3308157"><ele>-1.6666666666666665</ele><time>2026-05-03T06:04:49.14Z</time></trkpt><trkpt lat="43.5904988" lon="10.3310661"><ele>-1.3333333333333333</ele><time>2026-05-03T06:04:50.141Z</time></trkpt><trkpt lat="43.5905747" lon="10.3313227"><ele>-1.0</ele><time>2026-05-03T06:04:51.14Z</time></trkpt><trkpt lat="43.5906519" lon="10.3315838"><ele>-1.6666666666666665</ele><time>2026-05-03T06:04:52.141Z</time></trkpt><trkpt lat="43.5907313" lon="10.331851"><ele>-2.3333333333333335</ele><time>2026-05-03T06:04:53.14Z</time></trkpt><trkpt lat="43.5908135" lon="10.3321272"><ele>-3.0</ele><time>2026-05-03T06:04:54.141Z</time></trkpt><trkpt lat="43.5908976" lon="10.3324116"><ele>-4.0</ele><time>2026-05-03T06:04:55.141Z</time></trkpt><trkpt lat="43.5909836" lon="10.3327035"><ele>-5.0</ele><time>2026-05-03T06:04:56.141Z</time></trkpt><trkpt lat="43.59107" lon="10.3329975"><ele>-4.0</ele><time>2026-05-03T06:04:57.141Z</time></trkpt><trkpt lat="43.5911585" lon="10.3332956"><ele>-3.0</ele><time>2026-05-03T06:04:58.14Z</time></trkpt><trkpt lat="43.5912453" lon="10.333584"><ele>-3.0</ele><time>2026-05-03T06:04:59.141Z</time></trkpt><trkpt lat="43.591329" lon="10.3338631"><ele>-3.0</ele><time>2026-05-03T06:05:00.14Z</time></trkpt><trkpt lat="43.591412" lon="10.3341389"><ele>-3.0</ele><time>2026-05-03T06:05:01.141Z</time></trkpt><trkpt lat="43.5914928" lon="10.3344114"><ele>-3.0</ele><time>2026-05-03T06:05:02.14Z</time></trkpt><trkpt lat="43.5915725" lon="10.3346771"><ele>-3.0</ele><time>2026-05-03T06:05:03.14Z</time></trkpt><trkpt lat="43.5916515" lon="10.3349406"><ele>-3.0</ele><time>2026-05-03T06:05:04.141Z</time></trkpt><trkpt lat="43.591725" lon="10.3351935"><ele>-3.0</ele><time>2026-05-03T06:05:05.141Z</time></trkpt><trkpt lat="43.5917977" lon="10.3354346"><ele>-3.0</ele><time>2026-05-03T06:05:06.141Z</time></trkpt><trkpt lat="43.5918682" lon="10.3356732"><ele>-3.0</ele><time>2026-05-03T06:05:07.141Z</time></trkpt><trkpt lat="43.5919352" lon="10.3358996"><ele>-2.3333333333333335</ele><time>2026-05-03T06:05:08.141Z</time></trkpt><trkpt lat="43.5920011" lon="10.3361204"><ele>-1.6666666666666665</ele><time>2026-05-03T06:05:09.14Z</time></trkpt><trkpt lat="43.5920694" lon="10.3363488"><ele>-1.0</ele><time>2026-05-03T06:05:10.14Z</time></trkpt><trkpt lat="43.5921437" lon="10.3365819"><ele>-0.6666666666666666</ele><time>2026-05-03T06:05:11.141Z</time></trkpt><trkpt lat="43.5922213" lon="10.3368211"><ele>-0.3333333333333333</ele><time>2026-05-03T06:05:12.141Z</time></trkpt><trkpt lat="43.5922978" lon="10.3370663"><ele>0.0</ele><time>2026-05-03T06:05:13.141Z</time></trkpt><trkpt lat="43.5923771" lon="10.3373216"><ele>0.0</ele><time>2026-05-03T06:05:14.14Z</time></trkpt><trkpt lat="43.5924572" lon="10.3375843"><ele>0.0</ele><time>2026-05-03T06:05:15.141Z</time></trkpt><trkpt lat="43.5925398" lon="10.3378586"><ele>0.0</ele><time>2026-05-03T06:05:16.14Z</time></trkpt><trkpt lat="43.5926249" lon="10.33814"><ele>0.5</ele><time>2026-05-03T06:05:17.141Z</time></trkpt><trkpt lat="43.5927122" lon="10.3384266"><ele>1.0</ele><time>2026-05-03T06:05:18.14Z</time></trkpt><trkpt lat="43.5927993" lon="10.338715"><ele>2.6666666666666665</ele><time>2026-05-03T06:05:19.141Z</time></trkpt><trkpt lat="43.5928827" lon="10.3389918"><ele>4.333333333333333</ele><time>2026-05-03T06:05:20.14Z</time></trkpt><trkpt lat="43.5929632" lon="10.3392578"><ele>6.0</ele><time>2026-05-03T06:05:21.14Z</time></trkpt><trkpt lat="43.5930393" lon="10.3395105"><ele>5.333333333333333</ele><time>2026-05-03T06:05:22.14Z</time></trkpt><trkpt lat="43.593114" lon="10.3397555"><ele>4.666666666666666</ele><time>2026-05-03T06:05:23.14Z</time></trkpt><trkpt lat="43.5931864" lon="10.339998"><ele>4.0</ele><time>2026-05-03T06:05:24.14Z</time></trkpt><trkpt lat="43.5932552" lon="10.3402319"><ele>4.0</ele><time>2026-05-03T06:05:25.14Z</time></trkpt><trkpt lat="43.5933221" lon="10.3404518"><ele>4.0</ele><time>2026-05-03T06:05:26.14Z</time></trkpt><trkpt lat="43.593385" lon="10.3406638"><ele>4.0</ele><time>2026-05-03T06:05:27.14Z</time></trkpt><trkpt lat="43.5934454" lon="10.340878"><ele>4.333333333333333</ele><time>2026-05-03T06:05:28.14Z</time></trkpt><trkpt lat="43.593506" lon="10.3410846"><ele>4.666666666666667</ele><time>2026-05-03T06:05:29.141Z</time></trkpt><trkpt lat="43.5935664" lon="10.3412873"><ele>5.0</ele><time>2026-05-03T06:05:30.141Z</time></trkpt><trkpt lat="43.5936213" lon="10.3414855"><ele>4.333333333333334</ele><time>2026-05-03T06:05:31.14Z</time></trkpt><trkpt lat="43.5936757" lon="10.3416841"><ele>3.666666666666667</ele><time>2026-05-03T06:05:32.141Z</time></trkpt><trkpt lat="43.5937298" lon="10.3418845"><ele>3.0</ele><time>2026-05-03T06:05:33.141Z</time></trkpt><trkpt lat="43.593788" lon="10.3420909"><ele>3.0</ele><time>2026-05-03T06:05:34.141Z</time></trkpt><trkpt lat="43.5938443" lon="10.3422968"><ele>3.0</ele><time>2026-05-03T06:05:35.14Z</time></trkpt><trkpt lat="43.5939007" lon="10.3424926"><ele>3.0</ele><time>2026-05-03T06:05:36.141Z</time></trkpt><trkpt lat="43.5939578" lon="10.3426774"><ele>3.0</ele><time>2026-05-03T06:05:37.14Z</time></trkpt><trkpt lat="43.5940112" lon="10.3428576"><ele>3.0</ele><time>2026-05-03T06:05:38.14Z</time></trkpt><trkpt lat="43.5940613" lon="10.3430225"><ele>3.0</ele><time>2026-05-03T06:05:39.14Z</time></trkpt><trkpt lat="43.5941087" lon="10.343185"><ele>3.0</ele><time>2026-05-03T06:05:40.141Z</time></trkpt><trkpt lat="43.5941543" lon="10.343339"><ele>2.75</ele><time>2026-05-03T06:05:41.14Z</time></trkpt><trkpt lat="43.5942" lon="10.3434908"><ele>2.5</ele><time>2026-05-03T06:05:42.14Z</time></trkpt><trkpt lat="43.5942449" lon="10.3436425"><ele>2.25</ele><time>2026-05-03T06:05:43.141Z</time></trkpt><trkpt lat="43.5942905" lon="10.3437988"><ele>2.0</ele><time>2026-05-03T06:05:44.14Z</time></trkpt><trkpt lat="43.5943363" lon="10.3439663"><ele>2.0</ele><time>2026-05-03T06:05:45.141Z</time></trkpt><trkpt lat="43.5943865" lon="10.3441321"><ele>2.0</ele><time>2026-05-03T06:05:46.14Z</time></trkpt><trkpt lat="43.5944352" lon="10.3442873"><ele>2.0</ele><time>2026-05-03T06:05:47.14Z</time></trkpt><trkpt lat="43.5944792" lon="10.3444424"><ele>2.0</ele><time>2026-05-03T06:05:48.141Z</time></trkpt><trkpt lat="43.5945302" lon="10.3446036"><ele>2.333333333333333</ele><time>2026-05-03T06:05:49.141Z</time></trkpt><trkpt lat="43.5945913" lon="10.3447798"><ele>2.6666666666666665</ele><time>2026-05-03T06:05:50.141Z</time></trkpt><trkpt lat="43.5946591" lon="10.3449848"><ele>3.0</ele><time>2026-05-03T06:05:51.141Z</time></trkpt><trkpt lat="43.5947282" lon="10.3452155"><ele>3.0</ele><time>2026-05-03T06:05:52.14Z</time></trkpt><trkpt lat="43.594799" lon="10.3454609"><ele>3.0</ele><time>2026-05-03T06:05:53.141Z</time></trkpt><trkpt lat="43.5948701" lon="10.3457199"><ele>3.0</ele><time>2026-05-03T06:05:54.141Z</time></trkpt><trkpt lat="43.5949441" lon="10.3459901"><ele>3.0</ele><time>2026-05-03T06:05:55.14Z</time></trkpt><trkpt lat="43.5950244" lon="10.3462662"><ele>3.0</ele><time>2026-05-03T06:05:56.141Z</time></trkpt><trkpt lat="43.5951032" lon="10.3465271"><ele>3.0</ele><time>2026-05-03T06:05:57.14Z</time></trkpt><trkpt lat="43.5951758" lon="10.34678"><ele>3.666666666666667</ele><time>2026-05-03T06:05:58.141Z</time></trkpt><trkpt lat="43.5952495" lon="10.3470295"><ele>4.333333333333334</ele><time>2026-05-03T06:05:59.141Z</time></trkpt><trkpt lat="43.5953254" lon="10.3472787"><ele>5.0</ele><time>2026-05-03T06:06:00.14Z</time></trkpt><trkpt lat="43.5953975" lon="10.3475311"><ele>5.0</ele><time>2026-05-03T06:06:01.141Z</time></trkpt><trkpt lat="43.595472" lon="10.3477831"><ele>5.0</ele><time>2026-05-03T06:06:02.14Z</time></trkpt><trkpt lat="43.5955477" lon="10.3480376"><ele>5.0</ele><time>2026-05-03T06:06:03.141Z</time></trkpt><trkpt lat="43.5956241" lon="10.348293"><ele>3.666666666666667</ele><time>2026-05-03T06:06:04.141Z</time></trkpt><trkpt lat="43.5957026" lon="10.3485493"><ele>2.3333333333333335</ele><time>2026-05-03T06:06:05.14Z</time></trkpt><trkpt lat="43.5957806" lon="10.3488133"><ele>1.0</ele><time>2026-05-03T06:06:06.141Z</time></trkpt><trkpt lat="43.595858" lon="10.3490857"><ele>1.0</ele><time>2026-05-03T06:06:07.14Z</time></trkpt><trkpt lat="43.5959345" lon="10.3493667"><ele>1.0</ele><time>2026-05-03T06:06:08.14Z</time></trkpt><trkpt lat="43.5960064" lon="10.3496531"><ele>1.0</ele><time>2026-05-03T06:06:09.141Z</time></trkpt><trkpt lat="43.5960744" lon="10.3499426"><ele>2.0</ele><time>2026-05-03T06:06:10.14Z</time></trkpt><trkpt lat="43.5961391" lon="10.3502299"><ele>3.0</ele><time>2026-05-03T06:06:11.14Z</time></trkpt><trkpt lat="43.5961949" lon="10.3505136"><ele>4.0</ele><time>2026-05-03T06:06:12.141Z</time></trkpt><trkpt lat="43.5962447" lon="10.3507823"><ele>4.0</ele><time>2026-05-03T06:06:13.141Z</time></trkpt><trkpt lat="43.5962929" lon="10.3510392"><ele>4.0</ele><time>2026-05-03T06:06:14.141Z</time></trkpt><trkpt lat="43.596335" lon="10.351294"><ele>4.0</ele><time>2026-05-03T06:06:15.141Z</time></trkpt><trkpt lat="43.5963754" lon="10.3515436"><ele>4.0</ele><time>2026-05-03T06:06:16.14Z</time></trkpt><trkpt lat="43.5964105" lon="10.3517888"><ele>4.0</ele><time>2026-05-03T06:06:17.14Z</time></trkpt><trkpt lat="43.5964437" lon="10.3520328"><ele>4.0</ele><time>2026-05-03T06:06:18.141Z</time></trkpt><trkpt lat="43.5964788" lon="10.3522796"><ele>3.0</ele><time>2026-05-03T06:06:19.14Z</time></trkpt><trkpt lat="43.5965184" lon="10.3525324"><ele>2.0</ele><time>2026-05-03T06:06:20.141Z</time></trkpt><trkpt lat="43.5965638" lon="10.3528001"><ele>1.0</ele><time>2026-05-03T06:06:21.14Z</time></trkpt><trkpt lat="43.5966123" lon="10.3530791"><ele>0.6666666666666666</ele><time>2026-05-03T06:06:22.14Z</time></trkpt><trkpt lat="43.5966635" lon="10.3533672"><ele>0.3333333333333333</ele><time>2026-05-03T06:06:23.141Z</time></trkpt><trkpt lat="43.5967168" lon="10.3536621"><ele>0.0</ele><time>2026-05-03T06:06:24.14Z</time></trkpt><trkpt lat="43.5967713" lon="10.3539618"><ele>0.3333333333333333</ele><time>2026-05-03T06:06:25.14Z</time></trkpt><trkpt lat="43.5968248" lon="10.3542641"><ele>0.6666666666666666</ele><time>2026-05-03T06:06:26.14Z</time></trkpt><trkpt lat="43.5968765" lon="10.3545611"><ele>1.0</ele><time>2026-05-03T06:06:27.141Z</time></trkpt><trkpt lat="43.5969271" lon="10.3548472"><ele>1.0</ele><time>2026-05-03T06:06:28.14Z</time></trkpt><trkpt lat="43.5969772" lon="10.3551327"><ele>1.0</ele><time>2026-05-03T06:06:29.14Z</time></trkpt><trkpt lat="43.5970255" lon="10.3554159"><ele>1.0</ele><time>2026-05-03T06:06:30.14Z</time></trkpt><trkpt lat="43.5970704" lon="10.3556835"><ele>0.6666666666666666</ele><time>2026-05-03T06:06:31.141Z</time></trkpt><trkpt lat="43.5971119" lon="10.3559349"><ele>0.3333333333333333</ele><time>2026-05-03T06:06:32.141Z</time></trkpt><trkpt lat="43.5971499" lon="10.3561699"><ele>0.0</ele><time>2026-05-03T06:06:33.141Z</time></trkpt><trkpt lat="43.5971841" lon="10.3563929"><ele>1.0</ele><time>2026-05-03T06:06:34.14Z</time></trkpt><trkpt lat="43.5972149" lon="10.3566086"><ele>2.0</ele><time>2026-05-03T06:06:35.14Z</time></trkpt><trkpt lat="43.5972489" lon="10.3568241"><ele>3.0</ele><time>2026-05-03T06:06:36.14Z</time></trkpt><trkpt lat="43.597283" lon="10.3570323"><ele>3.0</ele><time>2026-05-03T06:06:37.141Z</time></trkpt><trkpt lat="43.597313" lon="10.3572308"><ele>3.0</ele><time>2026-05-03T06:06:38.14Z</time></trkpt><trkpt lat="43.5973434" lon="10.3574218"><ele>3.0</ele><time>2026-05-03T06:06:39.14Z</time></trkpt><trkpt lat="43.5973701" lon="10.3576164"><ele>3.0</ele><time>2026-05-03T06:06:40.141Z</time></trkpt><trkpt lat="43.5973944" lon="10.3578108"><ele>3.0</ele><time>2026-05-03T06:06:41.141Z</time></trkpt><trkpt lat="43.5973649" lon="10.3579957"><ele>3.0</ele><time>2026-05-03T06:06:42.141Z</time></trkpt><trkpt lat="43.5973318" lon="10.3581713"><ele>3.0</ele><time>2026-05-03T06:06:43.14Z</time></trkpt><trkpt lat="43.5972724" lon="10.3583302"><ele>3.0</ele><time>2026-05-03T06:06:44.14Z</time></trkpt><trkpt lat="43.5971934" lon="10.3584756"><ele>2.5</ele><time>2026-05-03T06:06:45.141Z</time></trkpt><trkpt lat="43.5970922" lon="10.3586016"><ele>2.0</ele><time>2026-05-03T06:06:46.14Z</time></trkpt><trkpt lat="43.5969754" lon="10.3587015"><ele>1.5</ele><time>2026-05-03T06:06:47.141Z</time></trkpt><trkpt lat="43.5968479" lon="10.3587729"><ele>1.0</ele><time>2026-05-03T06:06:48.14Z</time></trkpt><trkpt lat="43.5967065" lon="10.3588182"><ele>1.0</ele><time>2026-05-03T06:06:49.141Z</time></trkpt><trkpt lat="43.5965616" lon="10.3588363"><ele>1.0</ele><time>2026-05-03T06:06:50.14Z</time></trkpt><trkpt lat="43.5964163" lon="10.3588342"><ele>1.0</ele><time>2026-05-03T06:06:51.141Z</time></trkpt><trkpt lat="43.5962641" lon="10.358827"><ele>1.0</ele><time>2026-05-03T06:06:52.141Z</time></trkpt><trkpt lat="43.5960975" lon="10.3588169"><ele>0.3333333333333333</ele><time>2026-05-03T06:06:53.141Z</time></trkpt><trkpt lat="43.5959225" lon="10.3587978"><ele>-0.3333333333333333</ele><time>2026-05-03T06:06:54.141Z</time></trkpt><trkpt lat="43.5957381" lon="10.358775"><ele>-1.0</ele><time>2026-05-03T06:06:55.14Z</time></trkpt><trkpt lat="43.5955452" lon="10.3587485"><ele>-1.0</ele><time>2026-05-03T06:06:56.14Z</time></trkpt><trkpt lat="43.5953432" lon="10.3587189"><ele>-1.0</ele><time>2026-05-03T06:06:57.141Z</time></trkpt><trkpt lat="43.5951387" lon="10.358691"><ele>-1.0</ele><time>2026-05-03T06:06:58.14Z</time></trkpt><trkpt lat="43.5949298" lon="10.3586616"><ele>-0.6666666666666666</ele><time>2026-05-03T06:06:59.14Z</time></trkpt><trkpt lat="43.5947195" lon="10.3586381"><ele>-0.3333333333333333</ele><time>2026-05-03T06:07:00.14Z</time></trkpt><trkpt lat="43.5945105" lon="10.3586183"><ele>0.0</ele><time>2026-05-03T06:07:01.14Z</time></trkpt><trkpt lat="43.5943008" lon="10.3586053"><ele>0.3333333333333333</ele><time>2026-05-03T06:07:02.14Z</time></trkpt><trkpt lat="43.5940921" lon="10.3585932"><ele>0.6666666666666666</ele><time>2026-05-03T06:07:03.14Z</time></trkpt><trkpt lat="43.5938786" lon="10.3585828"><ele>1.0</ele><time>2026-05-03T06:07:04.141Z</time></trkpt><trkpt lat="43.593659" lon="10.358572"><ele>2.3333333333333335</ele><time>2026-05-03T06:07:05.14Z</time></trkpt><trkpt lat="43.5934379" lon="10.3585675"><ele>3.666666666666667</ele><time>2026-05-03T06:07:06.141Z</time></trkpt><trkpt lat="43.5932199" lon="10.3585653"><ele>5.0</ele><time>2026-05-03T06:07:07.14Z</time></trkpt><trkpt lat="43.593013" lon="10.3585663"><ele>5.0</ele><time>2026-05-03T06:07:08.141Z</time></trkpt><trkpt lat="43.592807" lon="10.358568"><ele>5.0</ele><time>2026-05-03T06:07:09.14Z</time></trkpt><trkpt lat="43.5926015" lon="10.3585735"><ele>5.0</ele><time>2026-05-03T06:07:10.141Z</time></trkpt><trkpt lat="43.5923929" lon="10.358582"><ele>5.0</ele><time>2026-05-03T06:07:11.14Z</time></trkpt><trkpt lat="43.5921833" lon="10.3585937"><ele>5.0</ele><time>2026-05-03T06:07:12.14Z</time></trkpt><trkpt lat="43.591977" lon="10.3586091"><ele>5.0</ele><time>2026-05-03T06:07:13.14Z</time></trkpt><trkpt lat="43.5917728" lon="10.3586251"><ele>6.333333333333334</ele><time>2026-05-03T06:07:14.14Z</time></trkpt><trkpt lat="43.5915689" lon="10.3586408"><ele>7.666666666666667</ele><time>2026-05-03T06:07:15.14Z</time></trkpt><trkpt lat="43.5913657" lon="10.3586539"><ele>9.0</ele><time>2026-05-03T06:07:16.14Z</time></trkpt><trkpt lat="43.5911772" lon="10.3586661"><ele>9.666666666666666</ele><time>2026-05-03T06:07:17.141Z</time></trkpt><trkpt lat="43.5910002" lon="10.358678"><ele>10.333333333333332</ele><time>2026-05-03T06:07:18.141Z</time></trkpt><trkpt lat="43.5908232" lon="10.3586915"><ele>11.0</ele><time>2026-05-03T06:07:19.141Z</time></trkpt><trkpt lat="43.5906434" lon="10.3587031"><ele>11.0</ele><time>2026-05-03T06:07:20.14Z</time></trkpt><trkpt lat="43.5904593" lon="10.3587072"><ele>11.0</ele><time>2026-05-03T06:07:21.141Z</time></trkpt><trkpt lat="43.590266" lon="10.3587043"><ele>11.0</ele><time>2026-05-03T06:07:22.141Z</time></trkpt><trkpt lat="43.5900663" lon="10.3586973"><ele>11.333333333333332</ele><time>2026-05-03T06:07:23.14Z</time></trkpt><trkpt lat="43.5898664" lon="10.3586845"><ele>11.666666666666666</ele><time>2026-05-03T06:07:24.14Z</time></trkpt><trkpt lat="43.58967" lon="10.3586675"><ele>12.0</ele><time>2026-05-03T06:07:25.14Z</time></trkpt><trkpt lat="43.5894737" lon="10.3586447"><ele>11.0</ele><time>2026-05-03T06:07:26.14Z</time></trkpt><trkpt lat="43.5892762" lon="10.35862"><ele>10.0</ele><time>2026-05-03T06:07:27.141Z</time></trkpt><trkpt lat="43.5890797" lon="10.3585888"><ele>9.0</ele><time>2026-05-03T06:07:28.14Z</time></trkpt><trkpt lat="43.5888852" lon="10.3585511"><ele>9.0</ele><time>2026-05-03T06:07:29.141Z</time></trkpt><trkpt lat="43.5886886" lon="10.3585132"><ele>9.0</ele><time>2026-05-03T06:07:30.14Z</time></trkpt><trkpt lat="43.5884903" lon="10.3584728"><ele>9.0</ele><time>2026-05-03T06:07:31.141Z</time></trkpt><trkpt lat="43.5882915" lon="10.3584306"><ele>9.333333333333334</ele><time>2026-05-03T06:07:32.14Z</time></trkpt><trkpt lat="43.5880925" lon="10.3583892"><ele>9.666666666666668</ele><time>2026-05-03T06:07:33.14Z</time></trkpt><trkpt lat="43.5878906" lon="10.3583491"><ele>10.0</ele><time>2026-05-03T06:07:34.14Z</time></trkpt><trkpt lat="43.587686" lon="10.3583071"><ele>10.333333333333334</ele><time>2026-05-03T06:07:35.14Z</time></trkpt><trkpt lat="43.5874816" lon="10.358263"><ele>10.666666666666666</ele><time>2026-05-03T06:07:36.141Z</time></trkpt><trkpt lat="43.5872804" lon="10.3582209"><ele>11.0</ele><time>2026-05-03T06:07:37.14Z</time></trkpt><trkpt lat="43.5870807" lon="10.3581791"><ele>10.0</ele><time>2026-05-03T06:07:38.141Z</time></trkpt><trkpt lat="43.5868827" lon="10.3581392"><ele>9.0</ele><time>2026-05-03T06:07:39.141Z</time></trkpt><trkpt lat="43.5866916" lon="10.3581003"><ele>8.0</ele><time>2026-05-03T06:07:40.14Z</time></trkpt><trkpt lat="43.5865072" lon="10.3580636"><ele>8.0</ele><time>2026-05-03T06:07:41.141Z</time></trkpt><trkpt lat="43.5863317" lon="10.3580265"><ele>8.0</ele><time>2026-05-03T06:07:42.14Z</time></trkpt><trkpt lat="43.5861543" lon="10.3579896"><ele>8.0</ele><time>2026-05-03T06:07:43.14Z</time></trkpt><trkpt lat="43.5859757" lon="10.357952"><ele>8.333333333333332</ele><time>2026-05-03T06:07:44.14Z</time></trkpt><trkpt lat="43.5857928" lon="10.3579116"><ele>8.666666666666666</ele><time>2026-05-03T06:07:45.141Z</time></trkpt><trkpt lat="43.5856086" lon="10.3578724"><ele>9.0</ele><time>2026-05-03T06:07:46.141Z</time></trkpt><trkpt lat="43.5854296" lon="10.3578301"><ele>9.666666666666666</ele><time>2026-05-03T06:07:47.14Z</time></trkpt><trkpt lat="43.5852486" lon="10.3577995"><ele>10.333333333333332</ele><time>2026-05-03T06:07:48.141Z</time></trkpt><trkpt lat="43.5850707" lon="10.3577899"><ele>11.0</ele><time>2026-05-03T06:07:49.14Z</time></trkpt><trkpt lat="43.5848915" lon="10.3578101"><ele>11.0</ele><time>2026-05-03T06:07:50.141Z</time></trkpt><trkpt lat="43.5847163" lon="10.3578564"><ele>11.0</ele><time>2026-05-03T06:07:51.14Z</time></trkpt><trkpt lat="43.5845427" lon="10.3579341"><ele>11.0</ele><time>2026-05-03T06:07:52.14Z</time></trkpt><trkpt lat="43.5843797" lon="10.358044"><ele>11.333333333333332</ele><time>2026-05-03T06:07:53.141Z</time></trkpt><trkpt lat="43.5842328" lon="10.3581719"><ele>11.666666666666666</ele><time>2026-05-03T06:07:54.141Z</time></trkpt><trkpt lat="43.5841034" lon="10.3583054"><ele>12.0</ele><time>2026-05-03T06:07:55.14Z</time></trkpt><trkpt lat="43.5839887" lon="10.3584277"><ele>12.0</ele><time>2026-05-03T06:07:56.141Z</time></trkpt><trkpt lat="43.5838818" lon="10.3585353"><ele>12.0</ele><time>2026-05-03T06:07:57.141Z</time></trkpt><trkpt lat="43.58378" lon="10.3586271"><ele>12.0</ele><time>2026-05-03T06:07:58.141Z</time></trkpt><trkpt lat="43.5836788" lon="10.3587006"><ele>12.0</ele><time>2026-05-03T06:07:59.141Z</time></trkpt><trkpt lat="43.5835704" lon="10.3587635"><ele>12.399999999999999</ele><time>2026-05-03T06:08:00.14Z</time></trkpt><trkpt lat="43.5834633" lon="10.3587923"><ele>12.799999999999999</ele><time>2026-05-03T06:08:01.141Z</time></trkpt><trkpt lat="43.5833556" lon="10.3587923"><ele>13.2</ele><time>2026-05-03T06:08:02.14Z</time></trkpt><trkpt lat="43.5832475" lon="10.3587658"><ele>13.6</ele><time>2026-05-03T06:08:03.14Z</time></trkpt><trkpt lat="43.5831373" lon="10.3587126"><ele>14.0</ele><time>2026-05-03T06:08:04.141Z</time></trkpt><trkpt lat="43.5830266" lon="10.3586264"><ele>14.0</ele><time>2026-05-03T06:08:05.14Z</time></trkpt><trkpt lat="43.5829216" lon="10.3585182"><ele>14.0</ele><time>2026-05-03T06:08:06.14Z</time></trkpt><trkpt lat="43.5828269" lon="10.3583798"><ele>14.0</ele><time>2026-05-03T06:08:07.141Z</time></trkpt><trkpt lat="43.5827502" lon="10.3582174"><ele>14.0</ele><time>2026-05-03T06:08:08.141Z</time></trkpt><trkpt lat="43.5826957" lon="10.3580335"><ele>13.75</ele><time>2026-05-03T06:08:09.14Z</time></trkpt><trkpt lat="43.5826601" lon="10.35784"><ele>13.5</ele><time>2026-05-03T06:08:10.141Z</time></trkpt><trkpt lat="43.5826548" lon="10.3576425"><ele>13.25</ele><time>2026-05-03T06:08:11.14Z</time></trkpt><trkpt lat="43.5826771" lon="10.3574369"><ele>13.0</ele><time>2026-05-03T06:08:12.141Z</time></trkpt><trkpt lat="43.5827063" lon="10.3572181"><ele>12.666666666666666</ele><time>2026-05-03T06:08:13.14Z</time></trkpt><trkpt lat="43.5827382" lon="10.3569838"><ele>12.333333333333332</ele><time>2026-05-03T06:08:14.14Z</time></trkpt><trkpt lat="43.5827709" lon="10.3567392"><ele>12.0</ele><time>2026-05-03T06:08:15.141Z</time></trkpt><trkpt lat="43.5828041" lon="10.3564863"><ele>12.333333333333332</ele><time>2026-05-03T06:08:16.141Z</time></trkpt><trkpt lat="43.582841" lon="10.3562217"><ele>12.666666666666666</ele><time>2026-05-03T06:08:17.141Z</time></trkpt><trkpt lat="43.5828777" lon="10.3559501"><ele>13.0</ele><time>2026-05-03T06:08:18.141Z</time></trkpt><trkpt lat="43.5829156" lon="10.3556717"><ele>12.666666666666666</ele><time>2026-05-03T06:08:19.141Z</time></trkpt><trkpt lat="43.5829544" lon="10.3553871"><ele>12.333333333333332</ele><time>2026-05-03T06:08:20.141Z</time></trkpt><trkpt lat="43.5829937" lon="10.3551071"><ele>12.0</ele><time>2026-05-03T06:08:21.141Z</time></trkpt><trkpt lat="43.5830315" lon="10.3548204"><ele>12.666666666666668</ele><time>2026-05-03T06:08:22.14Z</time></trkpt><trkpt lat="43.5830659" lon="10.3545291"><ele>13.333333333333334</ele><time>2026-05-03T06:08:23.141Z</time></trkpt><trkpt lat="43.5830987" lon="10.3542303"><ele>14.0</ele><time>2026-05-03T06:08:24.14Z</time></trkpt><trkpt lat="43.583128" lon="10.3539271"><ele>13.333333333333334</ele><time>2026-05-03T06:08:25.14Z</time></trkpt><trkpt lat="43.5831566" lon="10.3536222"><ele>12.666666666666668</ele><time>2026-05-03T06:08:26.14Z</time></trkpt><trkpt lat="43.583185" lon="10.3533226"><ele>12.0</ele><time>2026-05-03T06:08:27.141Z</time></trkpt><trkpt lat="43.5832153" lon="10.3530254"><ele>12.0</ele><time>2026-05-03T06:08:28.141Z</time></trkpt><trkpt lat="43.5832498" lon="10.3527298"><ele>12.0</ele><time>2026-05-03T06:08:29.141Z</time></trkpt><trkpt lat="43.5832851" lon="10.3524323"><ele>12.0</ele><time>2026-05-03T06:08:30.14Z</time></trkpt><trkpt lat="43.5833165" lon="10.352128"><ele>9.5</ele><time>2026-05-03T06:08:31.14Z</time></trkpt><trkpt lat="43.583348" lon="10.3518165"><ele>7.0</ele><time>2026-05-03T06:08:32.141Z</time></trkpt><trkpt lat="43.5833812" lon="10.3515019"><ele>7.5</ele><time>2026-05-03T06:08:33.14Z</time></trkpt><trkpt lat="43.5834171" lon="10.3511862"><ele>8.0</ele><time>2026-05-03T06:08:34.141Z</time></trkpt><trkpt lat="43.5834539" lon="10.3508762"><ele>8.0</ele><time>2026-05-03T06:08:35.141Z</time></trkpt><trkpt lat="43.5834914" lon="10.3505793"><ele>8.0</ele><time>2026-05-03T06:08:36.141Z</time></trkpt><trkpt lat="43.5835307" lon="10.3502887"><ele>8.0</ele><time>2026-05-03T06:08:37.141Z</time></trkpt><trkpt lat="43.5835703" lon="10.3500122"><ele>8.0</ele><time>2026-05-03T06:08:38.141Z</time></trkpt><trkpt lat="43.5836075" lon="10.3497492"><ele>8.0</ele><time>2026-05-03T06:08:39.14Z</time></trkpt><trkpt lat="43.5836529" lon="10.349498"><ele>8.0</ele><time>2026-05-03T06:08:40.14Z</time></trkpt><trkpt lat="43.5837071" lon="10.3492597"><ele>8.666666666666666</ele><time>2026-05-03T06:08:41.14Z</time></trkpt><trkpt lat="43.5837737" lon="10.3490302"><ele>9.333333333333334</ele><time>2026-05-03T06:08:42.141Z</time></trkpt><trkpt lat="43.5838426" lon="10.3488006"><ele>10.0</ele><time>2026-05-03T06:08:43.141Z</time></trkpt><trkpt lat="43.5839163" lon="10.3485733"><ele>8.0</ele><time>2026-05-03T06:08:44.14Z</time></trkpt><trkpt lat="43.5839957" lon="10.3483466"><ele>6.0</ele><time>2026-05-03T06:08:45.141Z</time></trkpt><trkpt lat="43.5840819" lon="10.3481253"><ele>4.0</ele><time>2026-05-03T06:08:46.14Z</time></trkpt><trkpt lat="43.5841748" lon="10.3479092"><ele>3.333333333333333</ele><time>2026-05-03T06:08:47.14Z</time></trkpt><trkpt lat="43.5842788" lon="10.3476993"><ele>2.6666666666666665</ele><time>2026-05-03T06:08:48.14Z</time></trkpt><trkpt lat="43.5843878" lon="10.347498"><ele>2.0</ele><time>2026-05-03T06:08:49.14Z</time></trkpt><trkpt lat="43.584493" lon="10.3473143"><ele>2.25</ele><time>2026-05-03T06:08:50.141Z</time></trkpt><trkpt lat="43.5845941" lon="10.3471459"><ele>2.5</ele><time>2026-05-03T06:08:51.141Z</time></trkpt><trkpt lat="43.5846887" lon="10.3470014"><ele>2.75</ele><time>2026-05-03T06:08:52.141Z</time></trkpt><trkpt lat="43.5847787" lon="10.346863"><ele>3.0</ele><time>2026-05-03T06:08:53.14Z</time></trkpt><trkpt lat="43.5848638" lon="10.3467333"><ele>3.0</ele><time>2026-05-03T06:08:54.14Z</time></trkpt><trkpt lat="43.5849461" lon="10.3466125"><ele>3.0</ele><time>2026-05-03T06:08:55.141Z</time></trkpt><trkpt lat="43.5850229" lon="10.3465014"><ele>3.0</ele><time>2026-05-03T06:08:56.14Z</time></trkpt><trkpt lat="43.5850945" lon="10.3463897"><ele>3.0</ele><time>2026-05-03T06:08:57.141Z</time></trkpt><trkpt lat="43.5851579" lon="10.346278"><ele>3.0</ele><time>2026-05-03T06:08:58.141Z</time></trkpt><trkpt lat="43.5852159" lon="10.3461675"><ele>2.8</ele><time>2026-05-03T06:08:59.141Z</time></trkpt><trkpt lat="43.5852738" lon="10.3460671"><ele>2.5999999999999996</ele><time>2026-05-03T06:09:00.141Z</time></trkpt><trkpt lat="43.5853387" lon="10.345982"><ele>2.4000000000000004</ele><time>2026-05-03T06:09:01.141Z</time></trkpt><trkpt lat="43.585413" lon="10.3459128"><ele>2.2</ele><time>2026-05-03T06:09:02.14Z</time></trkpt><trkpt lat="43.5855009" lon="10.3458488"><ele>2.0</ele><time>2026-05-03T06:09:03.141Z</time></trkpt><trkpt lat="43.5856055" lon="10.3457922"><ele>2.0</ele><time>2026-05-03T06:09:04.14Z</time></trkpt><trkpt lat="43.5857241" lon="10.345754"><ele>2.0</ele><time>2026-05-03T06:09:05.14Z</time></trkpt><trkpt lat="43.5858522" lon="10.3457512"><ele>2.0</ele><time>2026-05-03T06:09:06.141Z</time></trkpt><trkpt lat="43.5859894" lon="10.3457729"><ele>2.0</ele><time>2026-05-03T06:09:07.14Z</time></trkpt><trkpt lat="43.5861315" lon="10.3458208"><ele>2.333333333333333</ele><time>2026-05-03T06:09:08.14Z</time></trkpt><trkpt lat="43.5862847" lon="10.3458899"><ele>2.6666666666666665</ele><time>2026-05-03T06:09:09.14Z</time></trkpt><trkpt lat="43.586449" lon="10.3459658"><ele>3.0</ele><time>2026-05-03T06:09:10.141Z</time></trkpt><trkpt lat="43.5866196" lon="10.3460513"><ele>3.0</ele><time>2026-05-03T06:09:11.14Z</time></trkpt><trkpt lat="43.5867987" lon="10.3461354"><ele>3.0</ele><time>2026-05-03T06:09:12.141Z</time></trkpt><trkpt lat="43.5869875" lon="10.3462199"><ele>3.0</ele><time>2026-05-03T06:09:13.141Z</time></trkpt><trkpt lat="43.5871808" lon="10.3463095"><ele>2.3333333333333335</ele><time>2026-05-03T06:09:14.14Z</time></trkpt><trkpt lat="43.5873808" lon="10.3463974"><ele>1.6666666666666665</ele><time>2026-05-03T06:09:15.14Z</time></trkpt><trkpt lat="43.587585" lon="10.346497"><ele>1.0</ele><time>2026-05-03T06:09:16.141Z</time></trkpt><trkpt lat="43.5877933" lon="10.3465955"><ele>1.3333333333333333</ele><time>2026-05-03T06:09:17.14Z</time></trkpt><trkpt lat="43.5879997" lon="10.3466945"><ele>1.6666666666666665</ele><time>2026-05-03T06:09:18.14Z</time></trkpt><trkpt lat="43.5882059" lon="10.346794"><ele>2.0</ele><time>2026-05-03T06:09:19.141Z</time></trkpt><trkpt lat="43.5884008" lon="10.3468911"><ele>2.0</ele><time>2026-05-03T06:09:20.141Z</time></trkpt><trkpt lat="43.5885951" lon="10.3469884"><ele>2.0</ele><time>2026-05-03T06:09:21.141Z</time></trkpt><trkpt lat="43.588786" lon="10.3470805"><ele>2.0</ele><time>2026-05-03T06:09:22.141Z</time></trkpt><trkpt lat="43.5889775" lon="10.3471679"><ele>1.6666666666666665</ele><time>2026-05-03T06:09:23.14Z</time></trkpt><trkpt lat="43.5891648" lon="10.3472526"><ele>1.3333333333333333</ele><time>2026-05-03T06:09:24.141Z</time></trkpt><trkpt lat="43.5893447" lon="10.3473431"><ele>1.0</ele><time>2026-05-03T06:09:25.141Z</time></trkpt><trkpt lat="43.5895175" lon="10.3474286"><ele>1.6666666666666665</ele><time>2026-05-03T06:09:26.141Z</time></trkpt><trkpt lat="43.5896905" lon="10.347508"><ele>2.3333333333333335</ele><time>2026-05-03T06:09:27.14Z</time></trkpt><trkpt lat="43.5898634" lon="10.3475879"><ele>3.0</ele><time>2026-05-03T06:09:28.14Z</time></trkpt><trkpt lat="43.5900394" lon="10.3476732"><ele>3.0</ele><time>2026-05-03T06:09:29.14Z</time></trkpt><trkpt lat="43.5902116" lon="10.3477524"><ele>3.0</ele><time>2026-05-03T06:09:30.141Z</time></trkpt><trkpt lat="43.5903823" lon="10.3478333"><ele>3.0</ele><time>2026-05-03T06:09:31.14Z</time></trkpt><trkpt lat="43.5905453" lon="10.3479113"><ele>3.0</ele><time>2026-05-03T06:09:32.14Z</time></trkpt><trkpt lat="43.5907097" lon="10.3479905"><ele>3.0</ele><time>2026-05-03T06:09:33.141Z</time></trkpt><trkpt lat="43.5908734" lon="10.3480706"><ele>3.0</ele><time>2026-05-03T06:09:34.14Z</time></trkpt><trkpt lat="43.5910405" lon="10.3481483"><ele>2.6666666666666665</ele><time>2026-05-03T06:09:35.14Z</time></trkpt><trkpt lat="43.5912153" lon="10.3482286"><ele>2.333333333333333</ele><time>2026-05-03T06:09:36.141Z</time></trkpt><trkpt lat="43.5913905" lon="10.3483096"><ele>2.0</ele><time>2026-05-03T06:09:37.14Z</time></trkpt><trkpt lat="43.5915541" lon="10.3483849"><ele>2.0</ele><time>2026-05-03T06:09:38.14Z</time></trkpt><trkpt lat="43.5917169" lon="10.3484585"><ele>2.0</ele><time>2026-05-03T06:09:39.141Z</time></trkpt><trkpt lat="43.5918798" lon="10.3485353"><ele>2.0</ele><time>2026-05-03T06:09:40.14Z</time></trkpt><trkpt lat="43.5920346" lon="10.348612"><ele>2.25</ele><time>2026-05-03T06:09:41.141Z</time></trkpt><trkpt lat="43.5921799" lon="10.3486881"><ele>2.5</ele><time>2026-05-03T06:09:42.141Z</time></trkpt><trkpt lat="43.5923185" lon="10.3487563"><ele>2.75</ele><time>2026-05-03T06:09:43.141Z</time></trkpt><trkpt lat="43.5924555" lon="10.3488239"><ele>3.0</ele><time>2026-05-03T06:09:44.14Z</time></trkpt><trkpt lat="43.5925957" lon="10.3488895"><ele>3.0</ele><time>2026-05-03T06:09:45.141Z</time></trkpt><trkpt lat="43.5927403" lon="10.3489563"><ele>3.0</ele><time>2026-05-03T06:09:46.141Z</time></trkpt><trkpt lat="43.5928824" lon="10.3490208"><ele>3.0</ele><time>2026-05-03T06:09:47.14Z</time></trkpt><trkpt lat="43.5930276" lon="10.3490888"><ele>3.0</ele><time>2026-05-03T06:09:48.141Z</time></trkpt><trkpt lat="43.5931749" lon="10.3491574"><ele>3.0</ele><time>2026-05-03T06:09:49.14Z</time></trkpt><trkpt lat="43.593322" lon="10.3492262"><ele>3.0</ele><time>2026-05-03T06:09:50.14Z</time></trkpt><trkpt lat="43.5934666" lon="10.3492984"><ele>3.0</ele><time>2026-05-03T06:09:51.141Z</time></trkpt><trkpt lat="43.5936053" lon="10.3493671"><ele>3.0</ele><time>2026-05-03T06:09:52.141Z</time></trkpt><trkpt lat="43.593746" lon="10.3494331"><ele>3.0</ele><time>2026-05-03T06:09:53.141Z</time></trkpt><trkpt lat="43.5938924" lon="10.3494999"><ele>3.0</ele><time>2026-05-03T06:09:54.141Z</time></trkpt><trkpt lat="43.5940399" lon="10.3495659"><ele>3.0</ele><time>2026-05-03T06:09:55.14Z</time></trkpt><trkpt lat="43.5941784" lon="10.3496313"><ele>3.0</ele><time>2026-05-03T06:09:56.14Z</time></trkpt><trkpt lat="43.5943064" lon="10.3496916"><ele>3.0</ele><time>2026-05-03T06:09:57.141Z</time></trkpt><trkpt lat="43.5944237" lon="10.3497499"><ele>3.5999999999999996</ele><time>2026-05-03T06:09:58.141Z</time></trkpt><trkpt lat="43.5945287" lon="10.3498062"><ele>4.199999999999999</ele><time>2026-05-03T06:09:59.14Z</time></trkpt><trkpt lat="43.5946282" lon="10.3498708"><ele>4.8</ele><time>2026-05-03T06:10:00.14Z</time></trkpt><trkpt lat="43.5947232" lon="10.3499519"><ele>5.3999999999999995</ele><time>2026-05-03T06:10:01.141Z</time></trkpt><trkpt lat="43.594812" lon="10.3500516"><ele>6.0</ele><time>2026-05-03T06:10:02.141Z</time></trkpt><trkpt lat="43.5948886" lon="10.3501683"><ele>6.0</ele><time>2026-05-03T06:10:03.14Z</time></trkpt><trkpt lat="43.5949515" lon="10.3502999"><ele>6.0</ele><time>2026-05-03T06:10:04.14Z</time></trkpt><trkpt lat="43.5949957" lon="10.350419"><ele>6.0</ele><time>2026-05-03T06:10:05.14Z</time></trkpt><trkpt lat="43.5950267" lon="10.3505193"><ele>6.0</ele><time>2026-05-03T06:10:06.14Z</time></trkpt><trkpt lat="43.5950524" lon="10.3506046"><ele>6.0</ele><time>2026-05-03T06:10:07.14Z</time></trkpt><trkpt lat="43.5950997" lon="10.3507504"><ele>5.166666666666667</ele><time>2026-05-03T06:10:09.141Z</time></trkpt><trkpt lat="43.5951346" lon="10.3508592"><ele>4.333333333333333</ele><time>2026-05-03T06:10:11.14Z</time></trkpt><trkpt lat="43.5951587" lon="10.3509518"><ele>3.5</ele><time>2026-05-03T06:10:13.141Z</time></trkpt><trkpt lat="43.595184" lon="10.3510392"><ele>2.6666666666666665</ele><time>2026-05-03T06:10:15.141Z</time></trkpt><trkpt lat="43.5952202" lon="10.3511406"><ele>1.8333333333333333</ele><time>2026-05-03T06:10:18.14Z</time></trkpt><trkpt lat="43.5952514" lon="10.3512356"><ele>1.0</ele><time>2026-05-03T06:10:21.14Z</time></trkpt><trkpt lat="43.5952834" lon="10.3513379"><ele>0.6666666666666666</ele><time>2026-05-03T06:10:23.14Z</time></trkpt><trkpt lat="43.5953167" lon="10.3514551"><ele>0.3333333333333333</ele><time>2026-05-03T06:10:25.141Z</time></trkpt><trkpt lat="43.5953511" lon="10.3516043"><ele>0.0</ele><time>2026-05-03T06:10:27.14Z</time></trkpt><trkpt lat="43.5953683" lon="10.3517025"><ele>-0.3333333333333333</ele><time>2026-05-03T06:10:28.141Z</time></trkpt><trkpt lat="43.5953878" lon="10.3518105"><ele>-0.6666666666666666</ele><time>2026-05-03T06:10:29.141Z</time></trkpt><trkpt lat="43.5954049" lon="10.3519275"><ele>-1.0</ele><time>2026-05-03T06:10:30.14Z</time></trkpt><trkpt lat="43.5954237" lon="10.3520433"><ele>-0.8</ele><time>2026-05-03T06:10:31.141Z</time></trkpt><trkpt lat="43.5954434" lon="10.3521624"><ele>-0.6000000000000001</ele><time>2026-05-03T06:10:32.141Z</time></trkpt><trkpt lat="43.595466" lon="10.3522882"><ele>-0.4</ele><time>2026-05-03T06:10:33.14Z</time></trkpt><trkpt lat="43.595491" lon="10.352417"><ele>-0.2</ele><time>2026-05-03T06:10:34.14Z</time></trkpt><trkpt lat="43.5955136" lon="10.3525514"><ele>0.0</ele><time>2026-05-03T06:10:35.141Z</time></trkpt><trkpt lat="43.595538" lon="10.35268"><ele>0.0</ele><time>2026-05-03T06:10:36.141Z</time></trkpt><trkpt lat="43.5955601" lon="10.3527991"><ele>0.0</ele><time>2026-05-03T06:10:37.14Z</time></trkpt><trkpt lat="43.5955813" lon="10.3529089"><ele>0.0</ele><time>2026-05-03T06:10:38.14Z</time></trkpt><trkpt lat="43.5955993" lon="10.3530129"><ele>0.0</ele><time>2026-05-03T06:10:39.14Z</time></trkpt><trkpt lat="43.5956168" lon="10.3531052"><ele>0.0</ele><time>2026-05-03T06:10:40.14Z</time></trkpt><trkpt lat="43.5956356" lon="10.3531912"><ele>0.0</ele><time>2026-05-03T06:10:41.14Z</time></trkpt><trkpt lat="43.595651" lon="10.353276"><ele>0.0</ele><time>2026-05-03T06:10:42.141Z</time></trkpt><trkpt lat="43.5956683" lon="10.3533632"><ele>0.3333333333333333</ele><time>2026-05-03T06:10:43.14Z</time></trkpt><trkpt lat="43.5956858" lon="10.3534587"><ele>0.6666666666666666</ele><time>2026-05-03T06:10:44.141Z</time></trkpt><trkpt lat="43.5957065" lon="10.3535605"><ele>1.0</ele><time>2026-05-03T06:10:45.14Z</time></trkpt><trkpt lat="43.595726" lon="10.353659"><ele>1.3333333333333333</ele><time>2026-05-03T06:10:46.141Z</time></trkpt><trkpt lat="43.595747" lon="10.3537551"><ele>1.6666666666666665</ele><time>2026-05-03T06:10:47.141Z</time></trkpt><trkpt lat="43.5957636" lon="10.3538603"><ele>2.0</ele><time>2026-05-03T06:10:48.14Z</time></trkpt><trkpt lat="43.5957841" lon="10.3539641"><ele>2.1666666666666665</ele><time>2026-05-03T06:10:49.14Z</time></trkpt><trkpt lat="43.5958014" lon="10.3540703"><ele>2.333333333333333</ele><time>2026-05-03T06:10:50.14Z</time></trkpt><trkpt lat="43.5958225" lon="10.3541782"><ele>2.5</ele><time>2026-05-03T06:10:51.14Z</time></trkpt><trkpt lat="43.595842" lon="10.3542909"><ele>2.6666666666666665</ele><time>2026-05-03T06:10:52.141Z</time></trkpt><trkpt lat="43.5958621" lon="10.3544008"><ele>2.8333333333333335</ele><time>2026-05-03T06:10:53.14Z</time></trkpt><trkpt lat="43.5958831" lon="10.3545136"><ele>3.0</ele><time>2026-05-03T06:10:54.14Z</time></trkpt><trkpt lat="43.5959062" lon="10.3546288"><ele>2.6</ele><time>2026-05-03T06:10:55.141Z</time></trkpt><trkpt lat="43.5959319" lon="10.3547608"><ele>2.1999999999999997</ele><time>2026-05-03T06:10:56.141Z</time></trkpt><trkpt lat="43.595958" lon="10.3549095"><ele>1.8</ele><time>2026-05-03T06:10:57.14Z</time></trkpt><trkpt lat="43.5959881" lon="10.3550625"><ele>1.4</ele><time>2026-05-03T06:10:58.141Z</time></trkpt><trkpt lat="43.5960148" lon="10.3552136"><ele>1.0</ele><time>2026-05-03T06:10:59.141Z</time></trkpt><trkpt lat="43.59604" lon="10.3553597"><ele>1.0</ele><time>2026-05-03T06:11:00.141Z</time></trkpt><trkpt lat="43.5960698" lon="10.3555124"><ele>1.0</ele><time>2026-05-03T06:11:01.141Z</time></trkpt><trkpt lat="43.5960985" lon="10.355672"><ele>1.0</ele><time>2026-05-03T06:11:02.141Z</time></trkpt><trkpt lat="43.59613" lon="10.355842"><ele>1.0</ele><time>2026-05-03T06:11:03.14Z</time></trkpt><trkpt lat="43.5961627" lon="10.356026"><ele>1.0</ele><time>2026-05-03T06:11:04.141Z</time></trkpt><trkpt lat="43.5961992" lon="10.3562205"><ele>1.0</ele><time>2026-05-03T06:11:05.141Z</time></trkpt><trkpt lat="43.5962363" lon="10.3564237"><ele>1.0</ele><time>2026-05-03T06:11:06.141Z</time></trkpt><trkpt lat="43.596276" lon="10.3566415"><ele>1.0</ele><time>2026-05-03T06:11:07.14Z</time></trkpt><trkpt lat="43.596317" lon="10.3568726"><ele>1.0</ele><time>2026-05-03T06:11:08.14Z</time></trkpt><trkpt lat="43.5963595" lon="10.357112"><ele>1.0</ele><time>2026-05-03T06:11:09.14Z</time></trkpt><trkpt lat="43.596403" lon="10.3573595"><ele>1.0</ele><time>2026-05-03T06:11:10.14Z</time></trkpt><trkpt lat="43.5964494" lon="10.3576118"><ele>1.0</ele><time>2026-05-03T06:11:11.14Z</time></trkpt><trkpt lat="43.5964946" lon="10.3578665"><ele>1.0</ele><time>2026-05-03T06:11:12.141Z</time></trkpt><trkpt lat="43.5965434" lon="10.3581267"><ele>1.0</ele><time>2026-05-03T06:11:13.14Z</time></trkpt><trkpt lat="43.5965898" lon="10.358392"><ele>1.0</ele><time>2026-05-03T06:11:14.14Z</time></trkpt><trkpt lat="43.596639" lon="10.3586553"><ele>1.0</ele><time>2026-05-03T06:11:15.141Z</time></trkpt><trkpt lat="43.5966873" lon="10.358917"><ele>1.3333333333333333</ele><time>2026-05-03T06:11:16.141Z</time></trkpt><trkpt lat="43.5967383" lon="10.3591813"><ele>1.6666666666666665</ele><time>2026-05-03T06:11:17.141Z</time></trkpt><trkpt lat="43.5967857" lon="10.3594588"><ele>2.0</ele><time>2026-05-03T06:11:18.141Z</time></trkpt><trkpt lat="43.5968334" lon="10.3597372"><ele>1.0</ele><time>2026-05-03T06:11:19.14Z</time></trkpt><trkpt lat="43.5968779" lon="10.360009"><ele>0.0</ele><time>2026-05-03T06:11:20.141Z</time></trkpt><trkpt lat="43.5969137" lon="10.3602868"><ele>-1.0</ele><time>2026-05-03T06:11:21.141Z</time></trkpt><trkpt lat="43.596945" lon="10.3605667"><ele>-2.0</ele><time>2026-05-03T06:11:22.14Z</time></trkpt><trkpt lat="43.5969706" lon="10.3608537"><ele>-3.0</ele><time>2026-05-03T06:11:23.14Z</time></trkpt><trkpt lat="43.5969836" lon="10.3611466"><ele>-4.0</ele><time>2026-05-03T06:11:24.14Z</time></trkpt><trkpt lat="43.5969889" lon="10.3614449"><ele>-4.333333333333333</ele><time>2026-05-03T06:11:25.14Z</time></trkpt><trkpt lat="43.5969924" lon="10.3617468"><ele>-4.666666666666667</ele><time>2026-05-03T06:11:26.141Z</time></trkpt><trkpt lat="43.5969924" lon="10.3620556"><ele>-5.0</ele><time>2026-05-03T06:11:27.14Z</time></trkpt><trkpt lat="43.5969925" lon="10.3623693"><ele>-5.0</ele><time>2026-05-03T06:11:28.14Z</time></trkpt><trkpt lat="43.5969945" lon="10.3626836"><ele>-5.0</ele><time>2026-05-03T06:11:29.141Z</time></trkpt><trkpt lat="43.5969964" lon="10.3629984"><ele>-3.5</ele><time>2026-05-03T06:11:30.141Z</time></trkpt><trkpt lat="43.5969947" lon="10.3633132"><ele>-2.0</ele><time>2026-05-03T06:11:31.141Z</time></trkpt><trkpt lat="43.5969928" lon="10.3636296"><ele>-1.0</ele><time>2026-05-03T06:11:32.14Z</time></trkpt><trkpt lat="43.5969891" lon="10.3639475"><ele>0.0</ele><time>2026-05-03T06:11:33.141Z</time></trkpt><trkpt lat="43.5969884" lon="10.3642568"><ele>0.0</ele><time>2026-05-03T06:11:34.14Z</time></trkpt><trkpt lat="43.5969873" lon="10.3645379"><ele>0.0</ele><time>2026-05-03T06:11:35.141Z</time></trkpt><trkpt lat="43.5969864" lon="10.3647968"><ele>0.0</ele><time>2026-05-03T06:11:36.14Z</time></trkpt><trkpt lat="43.5969868" lon="10.3650455"><ele>-0.3333333333333333</ele><time>2026-05-03T06:11:37.14Z</time></trkpt><trkpt lat="43.5969856" lon="10.3652823"><ele>-0.6666666666666666</ele><time>2026-05-03T06:11:38.141Z</time></trkpt><trkpt lat="43.5969847" lon="10.3655062"><ele>-1.0</ele><time>2026-05-03T06:11:39.14Z</time></trkpt><trkpt lat="43.5969834" lon="10.3657188"><ele>-1.0</ele><time>2026-05-03T06:11:40.14Z</time></trkpt><trkpt lat="43.5969806" lon="10.3659328"><ele>-1.0</ele><time>2026-05-03T06:11:41.14Z</time></trkpt><trkpt lat="43.5969808" lon="10.3661537"><ele>-1.0</ele><time>2026-05-03T06:11:42.14Z</time></trkpt><trkpt lat="43.5969822" lon="10.3663848"><ele>-1.3333333333333333</ele><time>2026-05-03T06:11:43.141Z</time></trkpt><trkpt lat="43.5969835" lon="10.3666287"><ele>-1.6666666666666665</ele><time>2026-05-03T06:11:44.141Z</time></trkpt><trkpt lat="43.5969833" lon="10.3668723"><ele>-2.0</ele><time>2026-05-03T06:11:45.141Z</time></trkpt><trkpt lat="43.5969822" lon="10.3671215"><ele>-2.0</ele><time>2026-05-03T06:11:46.141Z</time></trkpt><trkpt lat="43.5969807" lon="10.3673807"><ele>-2.0</ele><time>2026-05-03T06:11:47.14Z</time></trkpt><trkpt lat="43.5969795" lon="10.3676487"><ele>-2.0</ele><time>2026-05-03T06:11:48.14Z</time></trkpt><trkpt lat="43.5969787" lon="10.3679186"><ele>-2.0</ele><time>2026-05-03T06:11:49.141Z</time></trkpt><trkpt lat="43.5969771" lon="10.3681916"><ele>-2.0</ele><time>2026-05-03T06:11:50.14Z</time></trkpt><trkpt lat="43.596976" lon="10.3684658"><ele>-2.0</ele><time>2026-05-03T06:11:51.141Z</time></trkpt><trkpt lat="43.5969747" lon="10.3687389"><ele>-1.6666666666666665</ele><time>2026-05-03T06:11:52.14Z</time></trkpt><trkpt lat="43.596973" lon="10.3690069"><ele>-1.3333333333333333</ele><time>2026-05-03T06:11:53.141Z</time></trkpt><trkpt lat="43.5969712" lon="10.3692752"><ele>-1.0</ele><time>2026-05-03T06:11:54.14Z</time></trkpt><trkpt lat="43.5969711" lon="10.3695428"><ele>-0.6666666666666666</ele><time>2026-05-03T06:11:55.141Z</time></trkpt><trkpt lat="43.596973" lon="10.369804"><ele>-0.3333333333333333</ele><time>2026-05-03T06:11:56.14Z</time></trkpt><trkpt lat="43.5969738" lon="10.37005"><ele>0.0</ele><time>2026-05-03T06:11:57.141Z</time></trkpt><trkpt lat="43.5969747" lon="10.3703005"><ele>-0.3333333333333333</ele><time>2026-05-03T06:11:58.141Z</time></trkpt><trkpt lat="43.5969753" lon="10.3705529"><ele>-0.6666666666666666</ele><time>2026-05-03T06:11:59.14Z</time></trkpt><trkpt lat="43.5969756" lon="10.3708042"><ele>-1.0</ele><time>2026-05-03T06:12:00.141Z</time></trkpt><trkpt lat="43.5969747" lon="10.3710646"><ele>-1.0</ele><time>2026-05-03T06:12:01.14Z</time></trkpt><trkpt lat="43.5969733" lon="10.3713305"><ele>-1.0</ele><time>2026-05-03T06:12:02.14Z</time></trkpt><trkpt lat="43.5969735" lon="10.3716003"><ele>-1.0</ele><time>2026-05-03T06:12:03.14Z</time></trkpt><trkpt lat="43.5969744" lon="10.3718693"><ele>-1.0</ele><time>2026-05-03T06:12:04.141Z</time></trkpt><trkpt lat="43.5969755" lon="10.3721396"><ele>-1.0</ele><time>2026-05-03T06:12:05.14Z</time></trkpt><trkpt lat="43.5969763" lon="10.3724122"><ele>-1.0</ele><time>2026-05-03T06:12:06.141Z</time></trkpt><trkpt lat="43.5969756" lon="10.3726824"><ele>-1.0</ele><time>2026-05-03T06:12:07.14Z</time></trkpt><trkpt lat="43.5969756" lon="10.3729524"><ele>-1.0</ele><time>2026-05-03T06:12:08.14Z</time></trkpt><trkpt lat="43.5969752" lon="10.3732203"><ele>-1.0</ele><time>2026-05-03T06:12:09.141Z</time></trkpt><trkpt lat="43.5969729" lon="10.3734857"><ele>-1.0</ele><time>2026-05-03T06:12:10.14Z</time></trkpt><trkpt lat="43.5969712" lon="10.3737489"><ele>-1.0</ele><time>2026-05-03T06:12:11.14Z</time></trkpt><trkpt lat="43.5969696" lon="10.3740107"><ele>-1.0</ele><time>2026-05-03T06:12:12.141Z</time></trkpt><trkpt lat="43.5969685" lon="10.3742709"><ele>-1.0</ele><time>2026-05-03T06:12:13.14Z</time></trkpt><trkpt lat="43.5969678" lon="10.3745322"><ele>-1.0</ele><time>2026-05-03T06:12:14.141Z</time></trkpt><trkpt lat="43.5969673" lon="10.3747964"><ele>-1.0</ele><time>2026-05-03T06:12:15.141Z</time></trkpt><trkpt lat="43.596967" lon="10.3750613"><ele>-0.3333333333333333</ele><time>2026-05-03T06:12:16.14Z</time></trkpt><trkpt lat="43.5969666" lon="10.3753262"><ele>0.3333333333333333</ele><time>2026-05-03T06:12:17.141Z</time></trkpt><trkpt lat="43.5969649" lon="10.3755862"><ele>1.0</ele><time>2026-05-03T06:12:18.14Z</time></trkpt><trkpt lat="43.5969638" lon="10.3758312"><ele>1.3333333333333333</ele><time>2026-05-03T06:12:19.141Z</time></trkpt><trkpt lat="43.5969643" lon="10.3760665"><ele>1.6666666666666665</ele><time>2026-05-03T06:12:20.141Z</time></trkpt><trkpt lat="43.5969655" lon="10.376304"><ele>2.0</ele><time>2026-05-03T06:12:21.141Z</time></trkpt><trkpt lat="43.5969664" lon="10.3765451"><ele>1.0</ele><time>2026-05-03T06:12:22.141Z</time></trkpt><trkpt lat="43.5969666" lon="10.3767881"><ele>0.0</ele><time>2026-05-03T06:12:23.14Z</time></trkpt><trkpt lat="43.5969659" lon="10.3770334"><ele>-1.0</ele><time>2026-05-03T06:12:24.14Z</time></trkpt><trkpt lat="43.5969655" lon="10.3772842"><ele>-1.0</ele><time>2026-05-03T06:12:25.141Z</time></trkpt><trkpt lat="43.5969644" lon="10.3775439"><ele>-1.0</ele><time>2026-05-03T06:12:26.14Z</time></trkpt><trkpt lat="43.5969644" lon="10.3778113"><ele>-1.0</ele><time>2026-05-03T06:12:27.141Z</time></trkpt><trkpt lat="43.596963" lon="10.3780787"><ele>-0.3333333333333333</ele><time>2026-05-03T06:12:28.141Z</time></trkpt><trkpt lat="43.5969578" lon="10.3783427"><ele>0.3333333333333333</ele><time>2026-05-03T06:12:29.141Z</time></trkpt><trkpt lat="43.5969447" lon="10.3785927"><ele>1.0</ele><time>2026-05-03T06:12:30.141Z</time></trkpt><trkpt lat="43.5969236" lon="10.3788426"><ele>0.3333333333333333</ele><time>2026-05-03T06:12:31.141Z</time></trkpt><trkpt lat="43.5968946" lon="10.3790918"><ele>-0.3333333333333333</ele><time>2026-05-03T06:12:32.141Z</time></trkpt><trkpt lat="43.5968622" lon="10.3793417"><ele>-1.0</ele><time>2026-05-03T06:12:33.141Z</time></trkpt><trkpt lat="43.5968283" lon="10.3795931"><ele>-1.0</ele><time>2026-05-03T06:12:34.141Z</time></trkpt><trkpt lat="43.5967944" lon="10.3798465"><ele>-1.0</ele><time>2026-05-03T06:12:35.14Z</time></trkpt><trkpt lat="43.5967619" lon="10.3800958"><ele>-1.0</ele><time>2026-05-03T06:12:36.14Z</time></trkpt><trkpt lat="43.5967307" lon="10.3803291"><ele>-1.3333333333333333</ele><time>2026-05-03T06:12:37.141Z</time></trkpt><trkpt lat="43.5967011" lon="10.3805627"><ele>-1.6666666666666665</ele><time>2026-05-03T06:12:38.141Z</time></trkpt><trkpt lat="43.5966776" lon="10.3807988"><ele>-2.0</ele><time>2026-05-03T06:12:39.14Z</time></trkpt><trkpt lat="43.596663" lon="10.3810398"><ele>-2.0</ele><time>2026-05-03T06:12:40.14Z</time></trkpt><trkpt lat="43.5966569" lon="10.3812854"><ele>-2.0</ele><time>2026-05-03T06:12:41.141Z</time></trkpt><trkpt lat="43.5966562" lon="10.3815375"><ele>-2.0</ele><time>2026-05-03T06:12:42.14Z</time></trkpt><trkpt lat="43.5966594" lon="10.3817981"><ele>-1.6666666666666665</ele><time>2026-05-03T06:12:43.141Z</time></trkpt><trkpt lat="43.5966651" lon="10.3820657"><ele>-1.3333333333333333</ele><time>2026-05-03T06:12:44.14Z</time></trkpt><trkpt lat="43.5966707" lon="10.3823414"><ele>-1.0</ele><time>2026-05-03T06:12:45.141Z</time></trkpt><trkpt lat="43.5966763" lon="10.3826261"><ele>-0.6666666666666666</ele><time>2026-05-03T06:12:46.14Z</time></trkpt><trkpt lat="43.5966831" lon="10.3829194"><ele>-0.3333333333333333</ele><time>2026-05-03T06:12:47.14Z</time></trkpt><trkpt lat="43.5966905" lon="10.383218"><ele>0.0</ele><time>2026-05-03T06:12:48.141Z</time></trkpt><trkpt lat="43.5966989" lon="10.3835277"><ele>0.0</ele><time>2026-05-03T06:12:49.141Z</time></trkpt><trkpt lat="43.596708" lon="10.3838373"><ele>0.0</ele><time>2026-05-03T06:12:50.14Z</time></trkpt><trkpt lat="43.596717" lon="10.3841479"><ele>0.0</ele><time>2026-05-03T06:12:51.14Z</time></trkpt><trkpt lat="43.5967252" lon="10.3844559"><ele>0.0</ele><time>2026-05-03T06:12:52.141Z</time></trkpt><trkpt lat="43.5967349" lon="10.3847655"><ele>0.0</ele><time>2026-05-03T06:12:53.14Z</time></trkpt><trkpt lat="43.596744" lon="10.3850746"><ele>0.0</ele><time>2026-05-03T06:12:54.14Z</time></trkpt><trkpt lat="43.5967528" lon="10.385373"><ele>0.0</ele><time>2026-05-03T06:12:55.14Z</time></trkpt><trkpt lat="43.5967604" lon="10.3856564"><ele>0.0</ele><time>2026-05-03T06:12:56.141Z</time></trkpt><trkpt lat="43.5967663" lon="10.3859448"><ele>0.0</ele><time>2026-05-03T06:12:57.14Z</time></trkpt><trkpt lat="43.5967724" lon="10.3862307"><ele>0.0</ele><time>2026-05-03T06:12:58.141Z</time></trkpt><trkpt lat="43.5967794" lon="10.386519"><ele>0.0</ele><time>2026-05-03T06:12:59.14Z</time></trkpt><trkpt lat="43.5967867" lon="10.3868135"><ele>-1.0</ele><time>2026-05-03T06:13:00.141Z</time></trkpt><trkpt lat="43.5967934" lon="10.3871186"><ele>-2.0</ele><time>2026-05-03T06:13:01.14Z</time></trkpt><trkpt lat="43.596802" lon="10.3874241"><ele>-3.0</ele><time>2026-05-03T06:13:02.141Z</time></trkpt><trkpt lat="43.5968125" lon="10.3877313"><ele>-2.3333333333333335</ele><time>2026-05-03T06:13:03.141Z</time></trkpt><trkpt lat="43.5968223" lon="10.3880397"><ele>-1.6666666666666665</ele><time>2026-05-03T06:13:04.14Z</time></trkpt><trkpt lat="43.5968321" lon="10.3883499"><ele>-1.0</ele><time>2026-05-03T06:13:05.141Z</time></trkpt><trkpt lat="43.5968417" lon="10.3886615"><ele>-0.5</ele><time>2026-05-03T06:13:06.14Z</time></trkpt><trkpt lat="43.5968496" lon="10.3889743"><ele>0.0</ele><time>2026-05-03T06:13:07.141Z</time></trkpt><trkpt lat="43.5968555" lon="10.3892886"><ele>0.0</ele><time>2026-05-03T06:13:08.14Z</time></trkpt><trkpt lat="43.5968631" lon="10.3896074"><ele>0.0</ele><time>2026-05-03T06:13:09.141Z</time></trkpt><trkpt lat="43.5968701" lon="10.3899231"><ele>0.0</ele><time>2026-05-03T06:13:10.141Z</time></trkpt><trkpt lat="43.5968801" lon="10.3902406"><ele>0.0</ele><time>2026-05-03T06:13:11.14Z</time></trkpt><trkpt lat="43.5968887" lon="10.3905441"><ele>0.0</ele><time>2026-05-03T06:13:12.14Z</time></trkpt><trkpt lat="43.5968956" lon="10.3908439"><ele>0.0</ele><time>2026-05-03T06:13:13.14Z</time></trkpt><trkpt lat="43.5969025" lon="10.3911371"><ele>0.0</ele><time>2026-05-03T06:13:14.14Z</time></trkpt><trkpt lat="43.5969072" lon="10.3914238"><ele>0.0</ele><time>2026-05-03T06:13:15.14Z</time></trkpt><trkpt lat="43.5969102" lon="10.3917122"><ele>0.0</ele><time>2026-05-03T06:13:16.141Z</time></trkpt><trkpt lat="43.5969123" lon="10.3919962"><ele>0.0</ele><time>2026-05-03T06:13:17.141Z</time></trkpt><trkpt lat="43.5969142" lon="10.3922843"><ele>0.0</ele><time>2026-05-03T06:13:18.14Z</time></trkpt><trkpt lat="43.5969161" lon="10.3925725"><ele>0.0</ele><time>2026-05-03T06:13:19.141Z</time></trkpt><trkpt lat="43.5969183" lon="10.3928643"><ele>0.0</ele><time>2026-05-03T06:13:20.141Z</time></trkpt><trkpt lat="43.5969226" lon="10.3931514"><ele>0.0</ele><time>2026-05-03T06:13:21.14Z</time></trkpt><trkpt lat="43.596928" lon="10.3934392"><ele>0.0</ele><time>2026-05-03T06:13:22.141Z</time></trkpt><trkpt lat="43.5969348" lon="10.3937259"><ele>0.0</ele><time>2026-05-03T06:13:23.14Z</time></trkpt><trkpt lat="43.5969424" lon="10.3940175"><ele>0.0</ele><time>2026-05-03T06:13:24.141Z</time></trkpt><trkpt lat="43.5969502" lon="10.394311"><ele>0.0</ele><time>2026-05-03T06:13:25.141Z</time></trkpt><trkpt lat="43.5969584" lon="10.394604"><ele>0.0</ele><time>2026-05-03T06:13:26.14Z</time></trkpt><trkpt lat="43.5969667" lon="10.3948998"><ele>-0.6666666666666666</ele><time>2026-05-03T06:13:27.141Z</time></trkpt><trkpt lat="43.5969739" lon="10.3951963"><ele>-1.3333333333333333</ele><time>2026-05-03T06:13:28.141Z</time></trkpt><trkpt lat="43.5969805" lon="10.3954942"><ele>-2.0</ele><time>2026-05-03T06:13:29.14Z</time></trkpt><trkpt lat="43.5969879" lon="10.3957921"><ele>-2.0</ele><time>2026-05-03T06:13:30.141Z</time></trkpt><trkpt lat="43.596995" lon="10.3960763"><ele>-2.0</ele><time>2026-05-03T06:13:31.14Z</time></trkpt><trkpt lat="43.5970028" lon="10.3963482"><ele>-2.0</ele><time>2026-05-03T06:13:32.14Z</time></trkpt><trkpt lat="43.5970092" lon="10.3966218"><ele>-1.3333333333333333</ele><time>2026-05-03T06:13:33.141Z</time></trkpt><trkpt lat="43.5970156" lon="10.3968942"><ele>-0.6666666666666666</ele><time>2026-05-03T06:13:34.141Z</time></trkpt><trkpt lat="43.5970229" lon="10.3971641"><ele>0.0</ele><time>2026-05-03T06:13:35.141Z</time></trkpt><trkpt lat="43.5970297" lon="10.3974367"><ele>0.3333333333333333</ele><time>2026-05-03T06:13:36.141Z</time></trkpt><trkpt lat="43.5970371" lon="10.3977062"><ele>0.6666666666666666</ele><time>2026-05-03T06:13:37.14Z</time></trkpt><trkpt lat="43.5970436" lon="10.3979799"><ele>1.0</ele><time>2026-05-03T06:13:38.141Z</time></trkpt><trkpt lat="43.5970502" lon="10.398255"><ele>1.0</ele><time>2026-05-03T06:13:39.14Z</time></trkpt><trkpt lat="43.5970576" lon="10.3985298"><ele>1.0</ele><time>2026-05-03T06:13:40.141Z</time></trkpt><trkpt lat="43.5970662" lon="10.3988008"><ele>1.0</ele><time>2026-05-03T06:13:41.141Z</time></trkpt><trkpt lat="43.5970742" lon="10.3990467"><ele>1.0</ele><time>2026-05-03T06:13:42.14Z</time></trkpt><trkpt lat="43.5970816" lon="10.3992744"><ele>1.0</ele><time>2026-05-03T06:13:43.14Z</time></trkpt><trkpt lat="43.5970892" lon="10.3994798"><ele>1.0</ele><time>2026-05-03T06:13:44.141Z</time></trkpt><trkpt lat="43.5970959" lon="10.3996698"><ele>0.6000000000000001</ele><time>2026-05-03T06:13:45.14Z</time></trkpt><trkpt lat="43.5971045" lon="10.3998441"><ele>0.20000000000000007</ele><time>2026-05-03T06:13:46.141Z</time></trkpt><trkpt lat="43.5971095" lon="10.399993"><ele>-0.20000000000000007</ele><time>2026-05-03T06:13:47.141Z</time></trkpt><trkpt lat="43.5971112" lon="10.4001236"><ele>-0.6000000000000001</ele><time>2026-05-03T06:13:48.14Z</time></trkpt><trkpt lat="43.5971054" lon="10.4002463"><ele>-1.0</ele><time>2026-05-03T06:13:49.141Z</time></trkpt><trkpt lat="43.5970742" lon="10.4003639"><ele>-1.0</ele><time>2026-05-03T06:13:50.14Z</time></trkpt><trkpt lat="43.597025" lon="10.4004827"><ele>-1.0</ele><time>2026-05-03T06:13:51.141Z</time></trkpt><trkpt lat="43.5969712" lon="10.40061"><ele>-1.0</ele><time>2026-05-03T06:13:52.14Z</time></trkpt><trkpt lat="43.5969332" lon="10.4007545"><ele>-1.0</ele><time>2026-05-03T06:13:53.14Z</time></trkpt><trkpt lat="43.59693" lon="10.4009077"><ele>-1.0</ele><time>2026-05-03T06:13:54.141Z</time></trkpt><trkpt lat="43.5969629" lon="10.4010553"><ele>-0.25</ele><time>2026-05-03T06:13:55.14Z</time></trkpt><trkpt lat="43.597024" lon="10.4011858"><ele>0.5</ele><time>2026-05-03T06:13:56.141Z</time></trkpt><trkpt lat="43.5970904" lon="10.4013154"><ele>1.25</ele><time>2026-05-03T06:13:57.14Z</time></trkpt><trkpt lat="43.5971368" lon="10.4014698"><ele>2.0</ele><time>2026-05-03T06:13:58.141Z</time></trkpt><trkpt lat="43.5971656" lon="10.4016397"><ele>2.0</ele><time>2026-05-03T06:13:59.14Z</time></trkpt><trkpt lat="43.5971798" lon="10.4018132"><ele>2.0</ele><time>2026-05-03T06:14:00.141Z</time></trkpt><trkpt lat="43.5971885" lon="10.4019921"><ele>2.0</ele><time>2026-05-03T06:14:01.141Z</time></trkpt><trkpt lat="43.5971935" lon="10.4021744"><ele>2.0</ele><time>2026-05-03T06:14:02.141Z</time></trkpt><trkpt lat="43.5971976" lon="10.4023449"><ele>2.0</ele><time>2026-05-03T06:14:03.141Z</time></trkpt><trkpt lat="43.5972024" lon="10.402504"><ele>2.0</ele><time>2026-05-03T06:14:04.141Z</time></trkpt><trkpt lat="43.5972061" lon="10.4026513"><ele>2.0</ele><time>2026-05-03T06:14:05.14Z</time></trkpt><trkpt lat="43.5972081" lon="10.4027807"><ele>2.0</ele><time>2026-05-03T06:14:06.141Z</time></trkpt><trkpt lat="43.5972108" lon="10.4028993"><ele>2.0</ele><time>2026-05-03T06:14:07.141Z</time></trkpt><trkpt lat="43.5972121" lon="10.4030075"><ele>2.1666666666666665</ele><time>2026-05-03T06:14:08.141Z</time></trkpt><trkpt lat="43.5972143" lon="10.4031118"><ele>2.333333333333333</ele><time>2026-05-03T06:14:09.141Z</time></trkpt><trkpt lat="43.5972176" lon="10.4032204"><ele>2.5</ele><time>2026-05-03T06:14:10.141Z</time></trkpt><trkpt lat="43.5972222" lon="10.4033379"><ele>2.6666666666666665</ele><time>2026-05-03T06:14:11.14Z</time></trkpt><trkpt lat="43.5972253" lon="10.40346"><ele>2.8333333333333335</ele><time>2026-05-03T06:14:12.14Z</time></trkpt><trkpt lat="43.5972264" lon="10.4035873"><ele>3.0</ele><time>2026-05-03T06:14:13.14Z</time></trkpt><trkpt lat="43.5972294" lon="10.4037182"><ele>3.0</ele><time>2026-05-03T06:14:14.141Z</time></trkpt><trkpt lat="43.5972321" lon="10.4038562"><ele>3.0</ele><time>2026-05-03T06:14:15.141Z</time></trkpt><trkpt lat="43.597235" lon="10.4039947"><ele>3.0</ele><time>2026-05-03T06:14:16.14Z</time></trkpt><trkpt lat="43.5972408" lon="10.404119"><ele>3.0</ele><time>2026-05-03T06:14:17.141Z</time></trkpt><trkpt lat="43.597246" lon="10.404239"><ele>3.0</ele><time>2026-05-03T06:14:18.141Z</time></trkpt><trkpt lat="43.5972507" lon="10.404361"><ele>3.0</ele><time>2026-05-03T06:14:19.14Z</time></trkpt><trkpt lat="43.5972546" lon="10.4044822"><ele>3.0</ele><time>2026-05-03T06:14:20.141Z</time></trkpt><trkpt lat="43.5972559" lon="10.4046066"><ele>3.0</ele><time>2026-05-03T06:14:21.14Z</time></trkpt><trkpt lat="43.5972575" lon="10.4047327"><ele>3.0</ele><time>2026-05-03T06:14:22.141Z</time></trkpt><trkpt lat="43.597261" lon="10.4048561"><ele>3.0</ele><time>2026-05-03T06:14:23.141Z</time></trkpt><trkpt lat="43.597263" lon="10.4049809"><ele>3.0</ele><time>2026-05-03T06:14:24.14Z</time></trkpt><trkpt lat="43.5972673" lon="10.4051111"><ele>3.0</ele><time>2026-05-03T06:14:25.141Z</time></trkpt><trkpt lat="43.5972718" lon="10.4052436"><ele>3.0</ele><time>2026-05-03T06:14:26.14Z</time></trkpt><trkpt lat="43.5972783" lon="10.4053849"><ele>3.0</ele><time>2026-05-03T06:14:27.14Z</time></trkpt><trkpt lat="43.5972858" lon="10.4055329"><ele>3.0</ele><time>2026-05-03T06:14:28.14Z</time></trkpt><trkpt lat="43.5973018" lon="10.4056848"><ele>3.0</ele><time>2026-05-03T06:14:29.141Z</time></trkpt><trkpt lat="43.5973216" lon="10.4058463"><ele>3.0</ele><time>2026-05-03T06:14:30.141Z</time></trkpt><trkpt lat="43.5973431" lon="10.4059983"><ele>3.0</ele><time>2026-05-03T06:14:31.14Z</time></trkpt><trkpt lat="43.5973624" lon="10.4061425"><ele>3.0</ele><time>2026-05-03T06:14:32.141Z</time></trkpt><trkpt lat="43.5973792" lon="10.4062857"><ele>3.0</ele><time>2026-05-03T06:14:33.141Z</time></trkpt><trkpt lat="43.5973953" lon="10.4064172"><ele>3.0</ele><time>2026-05-03T06:14:34.14Z</time></trkpt><trkpt lat="43.5974143" lon="10.4065423"><ele>3.0</ele><time>2026-05-03T06:14:35.14Z</time></trkpt><trkpt lat="43.5974337" lon="10.4066715"><ele>3.0</ele><time>2026-05-03T06:14:36.14Z</time></trkpt><trkpt lat="43.5974519" lon="10.406801"><ele>3.0</ele><time>2026-05-03T06:14:37.141Z</time></trkpt><trkpt lat="43.5974723" lon="10.4069209"><ele>3.0</ele><time>2026-05-03T06:14:38.141Z</time></trkpt><trkpt lat="43.597497" lon="10.4070416"><ele>3.0</ele><time>2026-05-03T06:14:39.14Z</time></trkpt><trkpt lat="43.597519" lon="10.4071637"><ele>3.1666666666666665</ele><time>2026-05-03T06:14:40.141Z</time></trkpt><trkpt lat="43.5975354" lon="10.4072796"><ele>3.333333333333333</ele><time>2026-05-03T06:14:41.141Z</time></trkpt><trkpt lat="43.5975493" lon="10.4073888"><ele>3.5</ele><time>2026-05-03T06:14:42.14Z</time></trkpt><trkpt lat="43.5975618" lon="10.4075026"><ele>3.6666666666666665</ele><time>2026-05-03T06:14:43.14Z</time></trkpt><trkpt lat="43.5975799" lon="10.4076187"><ele>3.833333333333333</ele><time>2026-05-03T06:14:44.14Z</time></trkpt><trkpt lat="43.5975966" lon="10.4077425"><ele>4.0</ele><time>2026-05-03T06:14:45.141Z</time></trkpt><trkpt lat="43.597613" lon="10.407855"><ele>4.0</ele><time>2026-05-03T06:14:46.14Z</time></trkpt><trkpt lat="43.5976291" lon="10.4079661"><ele>4.0</ele><time>2026-05-03T06:14:47.14Z</time></trkpt><trkpt lat="43.5976442" lon="10.4080787"><ele>4.0</ele><time>2026-05-03T06:14:48.14Z</time></trkpt><trkpt lat="43.5976628" lon="10.4082004"><ele>4.0</ele><time>2026-05-03T06:14:49.141Z</time></trkpt><trkpt lat="43.5976818" lon="10.4083325"><ele>4.0</ele><time>2026-05-03T06:14:50.141Z</time></trkpt><trkpt lat="43.5977023" lon="10.4084764"><ele>4.0</ele><time>2026-05-03T06:14:51.141Z</time></trkpt><trkpt lat="43.5977225" lon="10.4086277"><ele>4.0</ele><time>2026-05-03T06:14:52.141Z</time></trkpt><trkpt lat="43.5977487" lon="10.4087831"><ele>4.0</ele><time>2026-05-03T06:14:53.14Z</time></trkpt><trkpt lat="43.5977711" lon="10.4089501"><ele>4.0</ele><time>2026-05-03T06:14:54.141Z</time></trkpt><trkpt lat="43.5977939" lon="10.4091164"><ele>4.0</ele><time>2026-05-03T06:14:55.14Z</time></trkpt><trkpt lat="43.5978171" lon="10.4092836"><ele>4.0</ele><time>2026-05-03T06:14:56.14Z</time></trkpt><trkpt lat="43.5978331" lon="10.4094468"><ele>4.0</ele><time>2026-05-03T06:14:57.14Z</time></trkpt><trkpt lat="43.5978462" lon="10.4096005"><ele>4.0</ele><time>2026-05-03T06:14:58.141Z</time></trkpt><trkpt lat="43.59786" lon="10.4097428"><ele>3.9999999999999996</ele><time>2026-05-03T06:14:59.141Z</time></trkpt><trkpt lat="43.5978729" lon="10.4098759"><ele>4.0</ele><time>2026-05-03T06:15:00.14Z</time></trkpt><trkpt lat="43.5978841" lon="10.4099856"><ele>4.0</ele><time>2026-05-03T06:15:01.14Z</time></trkpt><trkpt lat="43.5978952" lon="10.4100834"><ele>4.0</ele><time>2026-05-03T06:15:02.141Z</time></trkpt><trkpt lat="43.5979064" lon="10.4101867"><ele>3.9999999999999996</ele><time>2026-05-03T06:15:03.14Z</time></trkpt><trkpt lat="43.5979173" lon="10.410295"><ele>4.0</ele><time>2026-05-03T06:15:04.141Z</time></trkpt><trkpt lat="43.5979256" lon="10.4104077"><ele>4.2</ele><time>2026-05-03T06:15:05.141Z</time></trkpt><trkpt lat="43.5979349" lon="10.4105241"><ele>4.4</ele><time>2026-05-03T06:15:06.141Z</time></trkpt><trkpt lat="43.5979476" lon="10.4106502"><ele>4.6</ele><time>2026-05-03T06:15:07.141Z</time></trkpt><trkpt lat="43.5979621" lon="10.4107873"><ele>4.8</ele><time>2026-05-03T06:15:08.141Z</time></trkpt><trkpt lat="43.5979783" lon="10.4109393"><ele>5.0</ele><time>2026-05-03T06:15:09.14Z</time></trkpt><trkpt lat="43.5979943" lon="10.4111061"><ele>5.0</ele><time>2026-05-03T06:15:10.141Z</time></trkpt><trkpt lat="43.5980099" lon="10.4112741"><ele>5.0</ele><time>2026-05-03T06:15:11.141Z</time></trkpt><trkpt lat="43.59802" lon="10.4114298"><ele>5.0</ele><time>2026-05-03T06:15:12.141Z</time></trkpt><trkpt lat="43.5980283" lon="10.4115923"><ele>5.0</ele><time>2026-05-03T06:15:13.141Z</time></trkpt><trkpt lat="43.5980343" lon="10.4117562"><ele>5.0</ele><time>2026-05-03T06:15:14.141Z</time></trkpt><trkpt lat="43.5980367" lon="10.4119126"><ele>5.0</ele><time>2026-05-03T06:15:15.141Z</time></trkpt><trkpt lat="43.5980364" lon="10.4120622"><ele>5.0</ele><time>2026-05-03T06:15:16.141Z</time></trkpt><trkpt lat="43.598035" lon="10.4122047"><ele>5.0</ele><time>2026-05-03T06:15:17.14Z</time></trkpt><trkpt lat="43.5980335" lon="10.412339"><ele>5.0</ele><time>2026-05-03T06:15:18.14Z</time></trkpt><trkpt lat="43.5980333" lon="10.4124715"><ele>4.8</ele><time>2026-05-03T06:15:19.14Z</time></trkpt><trkpt lat="43.5980314" lon="10.4126072"><ele>4.6</ele><time>2026-05-03T06:15:20.141Z</time></trkpt><trkpt lat="43.5980289" lon="10.4127426"><ele>4.4</ele><time>2026-05-03T06:15:21.141Z</time></trkpt><trkpt lat="43.5980255" lon="10.4128791"><ele>4.2</ele><time>2026-05-03T06:15:22.141Z</time></trkpt><trkpt lat="43.5980208" lon="10.4130178"><ele>4.0</ele><time>2026-05-03T06:15:23.14Z</time></trkpt><trkpt lat="43.5980161" lon="10.4131549"><ele>4.0</ele><time>2026-05-03T06:15:24.141Z</time></trkpt><trkpt lat="43.59801" lon="10.4132927"><ele>4.0</ele><time>2026-05-03T06:15:25.141Z</time></trkpt><trkpt lat="43.5980053" lon="10.4134201"><ele>4.0</ele><time>2026-05-03T06:15:26.14Z</time></trkpt><trkpt lat="43.5979996" lon="10.4135413"><ele>4.0</ele><time>2026-05-03T06:15:27.14Z</time></trkpt><trkpt lat="43.5979942" lon="10.4136635"><ele>4.0</ele><time>2026-05-03T06:15:28.141Z</time></trkpt><trkpt lat="43.5979848" lon="10.4137854"><ele>4.0</ele><time>2026-05-03T06:15:29.14Z</time></trkpt><trkpt lat="43.5979778" lon="10.4139143"><ele>4.0</ele><time>2026-05-03T06:15:30.14Z</time></trkpt><trkpt lat="43.5979707" lon="10.4140479"><ele>4.0</ele><time>2026-05-03T06:15:31.141Z</time></trkpt><trkpt lat="43.5979636" lon="10.4141866"><ele>4.0</ele><time>2026-05-03T06:15:32.141Z</time></trkpt><trkpt lat="43.5979574" lon="10.4143286"><ele>4.0</ele><time>2026-05-03T06:15:33.141Z</time></trkpt><trkpt lat="43.5979491" lon="10.4144807"><ele>4.0</ele><time>2026-05-03T06:15:34.141Z</time></trkpt><trkpt lat="43.5979404" lon="10.414629"><ele>4.0</ele><time>2026-05-03T06:15:35.141Z</time></trkpt><trkpt lat="43.597934" lon="10.4147837"><ele>4.0</ele><time>2026-05-03T06:15:36.14Z</time></trkpt><trkpt lat="43.5979266" lon="10.4149486"><ele>4.0</ele><time>2026-05-03T06:15:37.141Z</time></trkpt><trkpt lat="43.5979164" lon="10.4151159"><ele>4.0</ele><time>2026-05-03T06:15:38.141Z</time></trkpt><trkpt lat="43.5979094" lon="10.4152886"><ele>4.0</ele><time>2026-05-03T06:15:39.14Z</time></trkpt><trkpt lat="43.5978995" lon="10.4154563"><ele>4.0</ele><time>2026-05-03T06:15:40.14Z</time></trkpt><trkpt lat="43.5978931" lon="10.415618"><ele>4.0</ele><time>2026-05-03T06:15:41.141Z</time></trkpt><trkpt lat="43.5978845" lon="10.4157748"><ele>4.2</ele><time>2026-05-03T06:15:42.14Z</time></trkpt><trkpt lat="43.5978758" lon="10.4159217"><ele>4.4</ele><time>2026-05-03T06:15:43.14Z</time></trkpt><trkpt lat="43.5978654" lon="10.4160625"><ele>4.6</ele><time>2026-05-03T06:15:44.141Z</time></trkpt><trkpt lat="43.5978575" lon="10.4162136"><ele>4.8</ele><time>2026-05-03T06:15:45.141Z</time></trkpt><trkpt lat="43.5978475" lon="10.4163743"><ele>5.0</ele><time>2026-05-03T06:15:46.141Z</time></trkpt><trkpt lat="43.5978365" lon="10.4165497"><ele>4.5</ele><time>2026-05-03T06:15:47.14Z</time></trkpt><trkpt lat="43.5978269" lon="10.4167422"><ele>4.0</ele><time>2026-05-03T06:15:48.141Z</time></trkpt><trkpt lat="43.5978182" lon="10.4169415"><ele>3.5</ele><time>2026-05-03T06:15:49.14Z</time></trkpt><trkpt lat="43.5978063" lon="10.4171536"><ele>3.0</ele><time>2026-05-03T06:15:50.141Z</time></trkpt><trkpt lat="43.5977957" lon="10.4173714"><ele>3.0</ele><time>2026-05-03T06:15:51.14Z</time></trkpt><trkpt lat="43.5977824" lon="10.4176052"><ele>3.0</ele><time>2026-05-03T06:15:52.14Z</time></trkpt><trkpt lat="43.5977645" lon="10.4178505"><ele>3.0</ele><time>2026-05-03T06:15:53.14Z</time></trkpt><trkpt lat="43.597738" lon="10.4181"><ele>3.0</ele><time>2026-05-03T06:15:54.14Z</time></trkpt><trkpt lat="43.5977066" lon="10.418359"><ele>3.0</ele><time>2026-05-03T06:15:55.14Z</time></trkpt><trkpt lat="43.5976728" lon="10.4186268"><ele>3.0</ele><time>2026-05-03T06:15:56.141Z</time></trkpt><trkpt lat="43.5976489" lon="10.4188951"><ele>2.6666666666666665</ele><time>2026-05-03T06:15:57.14Z</time></trkpt><trkpt lat="43.5976285" lon="10.4191731"><ele>2.333333333333333</ele><time>2026-05-03T06:15:58.141Z</time></trkpt><trkpt lat="43.5976146" lon="10.419462"><ele>2.0</ele><time>2026-05-03T06:15:59.141Z</time></trkpt><trkpt lat="43.5976016" lon="10.4197607"><ele>2.6666666666666665</ele><time>2026-05-03T06:16:00.14Z</time></trkpt><trkpt lat="43.5975901" lon="10.4200637"><ele>3.333333333333333</ele><time>2026-05-03T06:16:01.141Z</time></trkpt><trkpt lat="43.5975771" lon="10.4203742"><ele>4.0</ele><time>2026-05-03T06:16:02.14Z</time></trkpt><trkpt lat="43.5975642" lon="10.4206876"><ele>4.0</ele><time>2026-05-03T06:16:03.141Z</time></trkpt><trkpt lat="43.5975507" lon="10.4210099"><ele>4.0</ele><time>2026-05-03T06:16:04.141Z</time></trkpt><trkpt lat="43.59754" lon="10.421347"><ele>3.5</ele><time>2026-05-03T06:16:05.141Z</time></trkpt><trkpt lat="43.597536" lon="10.4216641"><ele>3.0</ele><time>2026-05-03T06:16:06.141Z</time></trkpt><trkpt lat="43.597538" lon="10.4219683"><ele>2.6666666666666665</ele><time>2026-05-03T06:16:07.141Z</time></trkpt><trkpt lat="43.5975498" lon="10.4222563"><ele>2.333333333333333</ele><time>2026-05-03T06:16:08.14Z</time></trkpt><trkpt lat="43.5975626" lon="10.4225382"><ele>2.0</ele><time>2026-05-03T06:16:09.141Z</time></trkpt><trkpt lat="43.5975649" lon="10.4228188"><ele>2.0</ele><time>2026-05-03T06:16:10.14Z</time></trkpt><trkpt lat="43.5975607" lon="10.4230984"><ele>2.0</ele><time>2026-05-03T06:16:11.141Z</time></trkpt><trkpt lat="43.5975525" lon="10.4233808"><ele>2.0</ele><time>2026-05-03T06:16:12.14Z</time></trkpt><trkpt lat="43.597545" lon="10.4236689"><ele>2.0</ele><time>2026-05-03T06:16:13.14Z</time></trkpt><trkpt lat="43.5975377" lon="10.4239591"><ele>2.0</ele><time>2026-05-03T06:16:14.14Z</time></trkpt><trkpt lat="43.5975306" lon="10.4242532"><ele>2.0</ele><time>2026-05-03T06:16:15.14Z</time></trkpt><trkpt lat="43.5975221" lon="10.4245464"><ele>1.6666666666666665</ele><time>2026-05-03T06:16:16.141Z</time></trkpt><trkpt lat="43.5975153" lon="10.4248294"><ele>1.3333333333333333</ele><time>2026-05-03T06:16:17.141Z</time></trkpt><trkpt lat="43.5975088" lon="10.4251075"><ele>1.0</ele><time>2026-05-03T06:16:18.141Z</time></trkpt><trkpt lat="43.5975017" lon="10.4253856"><ele>1.3333333333333333</ele><time>2026-05-03T06:16:19.141Z</time></trkpt><trkpt lat="43.5974965" lon="10.4256599"><ele>1.6666666666666665</ele><time>2026-05-03T06:16:20.141Z</time></trkpt><trkpt lat="43.5974944" lon="10.4259338"><ele>2.0</ele><time>2026-05-03T06:16:21.14Z</time></trkpt><trkpt lat="43.5974921" lon="10.4262065"><ele>3.0</ele><time>2026-05-03T06:16:22.141Z</time></trkpt><trkpt lat="43.5974913" lon="10.4264806"><ele>4.0</ele><time>2026-05-03T06:16:23.14Z</time></trkpt><trkpt lat="43.597489" lon="10.4267541"><ele>5.0</ele><time>2026-05-03T06:16:24.14Z</time></trkpt><trkpt lat="43.5974868" lon="10.4270243"><ele>5.0</ele><time>2026-05-03T06:16:25.141Z</time></trkpt><trkpt lat="43.5974839" lon="10.4272805"><ele>5.0</ele><time>2026-05-03T06:16:26.141Z</time></trkpt><trkpt lat="43.5974808" lon="10.4275419"><ele>5.0</ele><time>2026-05-03T06:16:27.14Z</time></trkpt><trkpt lat="43.5974784" lon="10.4278001"><ele>4.666666666666667</ele><time>2026-05-03T06:16:28.14Z</time></trkpt><trkpt lat="43.5974727" lon="10.4280547"><ele>4.333333333333333</ele><time>2026-05-03T06:16:29.14Z</time></trkpt><trkpt lat="43.5974704" lon="10.4283137"><ele>4.0</ele><time>2026-05-03T06:16:30.14Z</time></trkpt><trkpt lat="43.5974665" lon="10.4285724"><ele>4.333333333333333</ele><time>2026-05-03T06:16:31.14Z</time></trkpt><trkpt lat="43.5974622" lon="10.4288398"><ele>4.666666666666667</ele><time>2026-05-03T06:16:32.141Z</time></trkpt><trkpt lat="43.5974563" lon="10.4291148"><ele>5.0</ele><time>2026-05-03T06:16:33.141Z</time></trkpt><trkpt lat="43.5974519" lon="10.4293906"><ele>4.666666666666667</ele><time>2026-05-03T06:16:34.14Z</time></trkpt><trkpt lat="43.5974439" lon="10.4296639"><ele>4.333333333333333</ele><time>2026-05-03T06:16:35.14Z</time></trkpt><trkpt lat="43.5974348" lon="10.4299345"><ele>4.0</ele><time>2026-05-03T06:16:36.141Z</time></trkpt><trkpt lat="43.5974267" lon="10.4302076"><ele>4.666666666666666</ele><time>2026-05-03T06:16:37.141Z</time></trkpt><trkpt lat="43.5974181" lon="10.4304781"><ele>5.333333333333333</ele><time>2026-05-03T06:16:38.141Z</time></trkpt><trkpt lat="43.5974118" lon="10.4307492"><ele>6.0</ele><time>2026-05-03T06:16:39.141Z</time></trkpt><trkpt lat="43.5974014" lon="10.4310195"><ele>6.0</ele><time>2026-05-03T06:16:40.141Z</time></trkpt><trkpt lat="43.5973943" lon="10.4312929"><ele>6.0</ele><time>2026-05-03T06:16:41.141Z</time></trkpt><trkpt lat="43.5973848" lon="10.4315655"><ele>6.0</ele><time>2026-05-03T06:16:42.141Z</time></trkpt><trkpt lat="43.59738" lon="10.4318438"><ele>5.333333333333333</ele><time>2026-05-03T06:16:43.141Z</time></trkpt><trkpt lat="43.5973845" lon="10.4321278"><ele>4.666666666666666</ele><time>2026-05-03T06:16:44.141Z</time></trkpt><trkpt lat="43.5973982" lon="10.4324092"><ele>4.0</ele><time>2026-05-03T06:16:45.14Z</time></trkpt><trkpt lat="43.5974208" lon="10.4326903"><ele>3.6666666666666665</ele><time>2026-05-03T06:16:46.141Z</time></trkpt><trkpt lat="43.5974553" lon="10.4329665"><ele>3.333333333333333</ele><time>2026-05-03T06:16:47.14Z</time></trkpt><trkpt lat="43.5974983" lon="10.4332253"><ele>3.0</ele><time>2026-05-03T06:16:48.14Z</time></trkpt><trkpt lat="43.597548" lon="10.4334828"><ele>3.0</ele><time>2026-05-03T06:16:49.14Z</time></trkpt><trkpt lat="43.5976041" lon="10.4337356"><ele>3.0</ele><time>2026-05-03T06:16:50.14Z</time></trkpt><trkpt lat="43.5976614" lon="10.433986"><ele>3.0</ele><time>2026-05-03T06:16:51.14Z</time></trkpt><trkpt lat="43.5977179" lon="10.4342375"><ele>3.0</ele><time>2026-05-03T06:16:52.141Z</time></trkpt><trkpt lat="43.5977735" lon="10.4344878"><ele>3.0</ele><time>2026-05-03T06:16:53.14Z</time></trkpt><trkpt lat="43.5978285" lon="10.4347312"><ele>3.0</ele><time>2026-05-03T06:16:54.141Z</time></trkpt><trkpt lat="43.5978814" lon="10.4349665"><ele>3.666666666666667</ele><time>2026-05-03T06:16:55.141Z</time></trkpt><trkpt lat="43.5979335" lon="10.4351926"><ele>4.333333333333334</ele><time>2026-05-03T06:16:56.14Z</time></trkpt><trkpt lat="43.5979836" lon="10.4354134"><ele>5.0</ele><time>2026-05-03T06:16:57.14Z</time></trkpt><trkpt lat="43.5980366" lon="10.4356358"><ele>5.0</ele><time>2026-05-03T06:16:58.14Z</time></trkpt><trkpt lat="43.5980903" lon="10.4358605"><ele>5.0</ele><time>2026-05-03T06:16:59.141Z</time></trkpt><trkpt lat="43.598144" lon="10.4360897"><ele>5.0</ele><time>2026-05-03T06:17:00.14Z</time></trkpt><trkpt lat="43.5981972" lon="10.4363212"><ele>4.666666666666667</ele><time>2026-05-03T06:17:01.141Z</time></trkpt><trkpt lat="43.5982527" lon="10.4365572"><ele>4.333333333333333</ele><time>2026-05-03T06:17:02.14Z</time></trkpt><trkpt lat="43.5983084" lon="10.4367955"><ele>4.0</ele><time>2026-05-03T06:17:03.14Z</time></trkpt><trkpt lat="43.5983662" lon="10.4370374"><ele>4.0</ele><time>2026-05-03T06:17:04.141Z</time></trkpt><trkpt lat="43.5984228" lon="10.437279"><ele>4.0</ele><time>2026-05-03T06:17:05.141Z</time></trkpt><trkpt lat="43.5984786" lon="10.4375229"><ele>4.0</ele><time>2026-05-03T06:17:06.14Z</time></trkpt><trkpt lat="43.5985341" lon="10.4377684"><ele>4.333333333333333</ele><time>2026-05-03T06:17:07.14Z</time></trkpt><trkpt lat="43.5985914" lon="10.4380131"><ele>4.666666666666667</ele><time>2026-05-03T06:17:08.141Z</time></trkpt><trkpt lat="43.5986482" lon="10.4382597"><ele>5.0</ele><time>2026-05-03T06:17:09.141Z</time></trkpt><trkpt lat="43.5987078" lon="10.4385076"><ele>5.0</ele><time>2026-05-03T06:17:10.141Z</time></trkpt><trkpt lat="43.598768" lon="10.4387527"><ele>5.0</ele><time>2026-05-03T06:17:11.14Z</time></trkpt><trkpt lat="43.5988288" lon="10.4390042"><ele>5.0</ele><time>2026-05-03T06:17:12.141Z</time></trkpt><trkpt lat="43.5988871" lon="10.4392461"><ele>5.333333333333334</ele><time>2026-05-03T06:17:13.141Z</time></trkpt><trkpt lat="43.5989427" lon="10.4394836"><ele>5.666666666666667</ele><time>2026-05-03T06:17:14.14Z</time></trkpt><trkpt lat="43.5990002" lon="10.4397242"><ele>6.0</ele><time>2026-05-03T06:17:15.141Z</time></trkpt><trkpt lat="43.5990598" lon="10.4399604"><ele>6.333333333333334</ele><time>2026-05-03T06:17:16.14Z</time></trkpt><trkpt lat="43.5991154" lon="10.4401999"><ele>6.666666666666667</ele><time>2026-05-03T06:17:17.14Z</time></trkpt><trkpt lat="43.5991733" lon="10.4404437"><ele>7.0</ele><time>2026-05-03T06:17:18.141Z</time></trkpt><trkpt lat="43.5992317" lon="10.4406875"><ele>7.0</ele><time>2026-05-03T06:17:19.141Z</time></trkpt><trkpt lat="43.5992914" lon="10.4409296"><ele>7.0</ele><time>2026-05-03T06:17:20.14Z</time></trkpt><trkpt lat="43.5993489" lon="10.4411756"><ele>7.0</ele><time>2026-05-03T06:17:21.14Z</time></trkpt><trkpt lat="43.5994095" lon="10.4414182"><ele>7.0</ele><time>2026-05-03T06:17:22.14Z</time></trkpt><trkpt lat="43.5994687" lon="10.4416656"><ele>7.0</ele><time>2026-05-03T06:17:23.14Z</time></trkpt><trkpt lat="43.5995278" lon="10.4419123"><ele>7.0</ele><time>2026-05-03T06:17:24.14Z</time></trkpt><trkpt lat="43.5995886" lon="10.4421614"><ele>7.333333333333334</ele><time>2026-05-03T06:17:25.141Z</time></trkpt><trkpt lat="43.5996481" lon="10.4424097"><ele>7.666666666666666</ele><time>2026-05-03T06:17:26.14Z</time></trkpt><trkpt lat="43.5997069" lon="10.4426566"><ele>8.0</ele><time>2026-05-03T06:17:27.14Z</time></trkpt><trkpt lat="43.5997649" lon="10.4429006"><ele>7.666666666666666</ele><time>2026-05-03T06:17:28.14Z</time></trkpt><trkpt lat="43.5998227" lon="10.4431399"><ele>7.333333333333334</ele><time>2026-05-03T06:17:29.14Z</time></trkpt><trkpt lat="43.5998774" lon="10.4433686"><ele>7.0</ele><time>2026-05-03T06:17:30.14Z</time></trkpt><trkpt lat="43.599932" lon="10.4435873"><ele>7.0</ele><time>2026-05-03T06:17:31.141Z</time></trkpt><trkpt lat="43.5999878" lon="10.4437925"><ele>7.0</ele><time>2026-05-03T06:17:32.14Z</time></trkpt><trkpt lat="43.6000515" lon="10.4439768"><ele>7.0</ele><time>2026-05-03T06:17:33.141Z</time></trkpt><trkpt lat="43.6001374" lon="10.4441222"><ele>7.0</ele><time>2026-05-03T06:17:34.141Z</time></trkpt><trkpt lat="43.6002411" lon="10.4442371"><ele>7.0</ele><time>2026-05-03T06:17:35.14Z</time></trkpt><trkpt lat="43.6003612" lon="10.4443353"><ele>7.0</ele><time>2026-05-03T06:17:36.14Z</time></trkpt><trkpt lat="43.6004916" lon="10.4444311"><ele>7.0</ele><time>2026-05-03T06:17:37.14Z</time></trkpt><trkpt lat="43.600635" lon="10.4445341"><ele>7.0</ele><time>2026-05-03T06:17:38.141Z</time></trkpt><trkpt lat="43.6007886" lon="10.4446467"><ele>7.0</ele><time>2026-05-03T06:17:39.14Z</time></trkpt><trkpt lat="43.6009445" lon="10.4447599"><ele>7.0</ele><time>2026-05-03T06:17:40.14Z</time></trkpt><trkpt lat="43.6010965" lon="10.4448662"><ele>7.0</ele><time>2026-05-03T06:17:41.141Z</time></trkpt><trkpt lat="43.6012395" lon="10.4449787"><ele>6.666666666666667</ele><time>2026-05-03T06:17:42.14Z</time></trkpt><trkpt lat="43.6013686" lon="10.4451065"><ele>6.333333333333334</ele><time>2026-05-03T06:17:43.14Z</time></trkpt><trkpt lat="43.601479" lon="10.4452536"><ele>6.0</ele><time>2026-05-03T06:17:44.141Z</time></trkpt><trkpt lat="43.6015645" lon="10.4454127"><ele>5.75</ele><time>2026-05-03T06:17:45.141Z</time></trkpt><trkpt lat="43.6016206" lon="10.4455846"><ele>5.5</ele><time>2026-05-03T06:17:46.14Z</time></trkpt><trkpt lat="43.6016578" lon="10.4457743"><ele>5.25</ele><time>2026-05-03T06:17:47.141Z</time></trkpt><trkpt lat="43.6016843" lon="10.4459844"><ele>5.0</ele><time>2026-05-03T06:17:48.141Z</time></trkpt><trkpt lat="43.6017107" lon="10.4462099"><ele>5.333333333333334</ele><time>2026-05-03T06:17:49.14Z</time></trkpt><trkpt lat="43.6017393" lon="10.4464445"><ele>5.666666666666667</ele><time>2026-05-03T06:17:50.14Z</time></trkpt><trkpt lat="43.6017703" lon="10.4466903"><ele>6.0</ele><time>2026-05-03T06:17:51.141Z</time></trkpt><trkpt lat="43.6017998" lon="10.4469433"><ele>6.0</ele><time>2026-05-03T06:17:52.141Z</time></trkpt><trkpt lat="43.601828" lon="10.4472055"><ele>6.0</ele><time>2026-05-03T06:17:53.141Z</time></trkpt><trkpt lat="43.6018568" lon="10.4474729"><ele>6.0</ele><time>2026-05-03T06:17:54.14Z</time></trkpt><trkpt lat="43.6018874" lon="10.4477452"><ele>6.333333333333334</ele><time>2026-05-03T06:17:55.141Z</time></trkpt><trkpt lat="43.6019169" lon="10.4480259"><ele>6.666666666666667</ele><time>2026-05-03T06:17:56.14Z</time></trkpt><trkpt lat="43.601947" lon="10.4483072"><ele>7.0</ele><time>2026-05-03T06:17:57.141Z</time></trkpt><trkpt lat="43.6019785" lon="10.4485894"><ele>6.666666666666667</ele><time>2026-05-03T06:17:58.141Z</time></trkpt><trkpt lat="43.6020111" lon="10.4488711"><ele>6.333333333333334</ele><time>2026-05-03T06:17:59.14Z</time></trkpt><trkpt lat="43.6020345" lon="10.4491629"><ele>6.0</ele><time>2026-05-03T06:18:00.14Z</time></trkpt><trkpt lat="43.6020658" lon="10.4494521"><ele>6.0</ele><time>2026-05-03T06:18:01.14Z</time></trkpt><trkpt lat="43.6020985" lon="10.4497346"><ele>6.0</ele><time>2026-05-03T06:18:02.141Z</time></trkpt><trkpt lat="43.6021355" lon="10.4500124"><ele>6.0</ele><time>2026-05-03T06:18:03.141Z</time></trkpt><trkpt lat="43.6021736" lon="10.4502872"><ele>6.666666666666666</ele><time>2026-05-03T06:18:04.14Z</time></trkpt><trkpt lat="43.6022169" lon="10.4505589"><ele>7.333333333333333</ele><time>2026-05-03T06:18:05.141Z</time></trkpt><trkpt lat="43.6022607" lon="10.4508251"><ele>8.0</ele><time>2026-05-03T06:18:06.141Z</time></trkpt><trkpt lat="43.6023092" lon="10.4510935"><ele>8.0</ele><time>2026-05-03T06:18:07.14Z</time></trkpt><trkpt lat="43.6023583" lon="10.4513606"><ele>8.0</ele><time>2026-05-03T06:18:08.141Z</time></trkpt><trkpt lat="43.6024056" lon="10.4516266"><ele>8.0</ele><time>2026-05-03T06:18:09.14Z</time></trkpt><trkpt lat="43.6024522" lon="10.4518838"><ele>7.333333333333333</ele><time>2026-05-03T06:18:10.14Z</time></trkpt><trkpt lat="43.6024968" lon="10.4521313"><ele>6.666666666666666</ele><time>2026-05-03T06:18:11.14Z</time></trkpt><trkpt lat="43.6025406" lon="10.4523757"><ele>6.0</ele><time>2026-05-03T06:18:12.141Z</time></trkpt><trkpt lat="43.602585" lon="10.4526165"><ele>6.0</ele><time>2026-05-03T06:18:13.141Z</time></trkpt><trkpt lat="43.6026279" lon="10.4528507"><ele>6.0</ele><time>2026-05-03T06:18:14.141Z</time></trkpt><trkpt lat="43.602667" lon="10.4530716"><ele>6.0</ele><time>2026-05-03T06:18:15.14Z</time></trkpt><trkpt lat="43.6027022" lon="10.4532661"><ele>6.5</ele><time>2026-05-03T06:18:16.141Z</time></trkpt><trkpt lat="43.6027347" lon="10.4534392"><ele>7.0</ele><time>2026-05-03T06:18:17.14Z</time></trkpt><trkpt lat="43.6027652" lon="10.4536001"><ele>7.5</ele><time>2026-05-03T06:18:18.141Z</time></trkpt><trkpt lat="43.602798" lon="10.4537553"><ele>8.0</ele><time>2026-05-03T06:18:19.141Z</time></trkpt><trkpt lat="43.6028427" lon="10.4539055"><ele>8.25</ele><time>2026-05-03T06:18:20.141Z</time></trkpt><trkpt lat="43.6029022" lon="10.4540497"><ele>8.5</ele><time>2026-05-03T06:18:21.141Z</time></trkpt><trkpt lat="43.6029813" lon="10.4541829"><ele>8.75</ele><time>2026-05-03T06:18:22.141Z</time></trkpt><trkpt lat="43.6030779" lon="10.4543091"><ele>9.0</ele><time>2026-05-03T06:18:23.141Z</time></trkpt><trkpt lat="43.6031899" lon="10.4544239"><ele>9.0</ele><time>2026-05-03T06:18:24.141Z</time></trkpt><trkpt lat="43.6033103" lon="10.4545365"><ele>9.0</ele><time>2026-05-03T06:18:25.14Z</time></trkpt><trkpt lat="43.6034403" lon="10.454658"><ele>9.0</ele><time>2026-05-03T06:18:26.14Z</time></trkpt><trkpt lat="43.6035783" lon="10.4547881"><ele>9.0</ele><time>2026-05-03T06:18:27.141Z</time></trkpt><trkpt lat="43.6037187" lon="10.4549194"><ele>9.0</ele><time>2026-05-03T06:18:28.14Z</time></trkpt><trkpt lat="43.6038535" lon="10.4550414"><ele>9.0</ele><time>2026-05-03T06:18:29.14Z</time></trkpt><trkpt lat="43.6039811" lon="10.455162"><ele>9.0</ele><time>2026-05-03T06:18:30.141Z</time></trkpt><trkpt lat="43.6041073" lon="10.455277"><ele>9.0</ele><time>2026-05-03T06:18:31.14Z</time></trkpt><trkpt lat="43.6042318" lon="10.4553913"><ele>9.0</ele><time>2026-05-03T06:18:32.141Z</time></trkpt><trkpt lat="43.604361" lon="10.4555093"><ele>8.666666666666666</ele><time>2026-05-03T06:18:33.141Z</time></trkpt><trkpt lat="43.6044954" lon="10.4556327"><ele>8.333333333333332</ele><time>2026-05-03T06:18:34.14Z</time></trkpt><trkpt lat="43.6046327" lon="10.4557607"><ele>8.0</ele><time>2026-05-03T06:18:35.141Z</time></trkpt><trkpt lat="43.6047665" lon="10.4558849"><ele>7.666666666666666</ele><time>2026-05-03T06:18:36.14Z</time></trkpt><trkpt lat="43.6048959" lon="10.4560041"><ele>7.333333333333334</ele><time>2026-05-03T06:18:37.14Z</time></trkpt><trkpt lat="43.6050206" lon="10.4561193"><ele>7.0</ele><time>2026-05-03T06:18:38.141Z</time></trkpt><trkpt lat="43.6051423" lon="10.4562299"><ele>7.0</ele><time>2026-05-03T06:18:39.14Z</time></trkpt><trkpt lat="43.605261" lon="10.4563378"><ele>7.0</ele><time>2026-05-03T06:18:40.141Z</time></trkpt><trkpt lat="43.6053828" lon="10.4564481"><ele>7.0</ele><time>2026-05-03T06:18:41.14Z</time></trkpt><trkpt lat="43.6055063" lon="10.456562"><ele>7.0</ele><time>2026-05-03T06:18:42.141Z</time></trkpt><trkpt lat="43.605634" lon="10.4566805"><ele>6.666666666666667</ele><time>2026-05-03T06:18:43.141Z</time></trkpt><trkpt lat="43.6057664" lon="10.4568012"><ele>6.333333333333334</ele><time>2026-05-03T06:18:44.14Z</time></trkpt><trkpt lat="43.6058999" lon="10.456923"><ele>6.0</ele><time>2026-05-03T06:18:45.14Z</time></trkpt><trkpt lat="43.606035" lon="10.4570474"><ele>6.0</ele><time>2026-05-03T06:18:46.14Z</time></trkpt><trkpt lat="43.6061743" lon="10.4571783"><ele>6.0</ele><time>2026-05-03T06:18:47.141Z</time></trkpt><trkpt lat="43.6063194" lon="10.4573148"><ele>6.0</ele><time>2026-05-03T06:18:48.14Z</time></trkpt><trkpt lat="43.6064695" lon="10.4574528"><ele>6.0</ele><time>2026-05-03T06:18:49.14Z</time></trkpt><trkpt lat="43.6066179" lon="10.4575893"><ele>6.0</ele><time>2026-05-03T06:18:50.14Z</time></trkpt><trkpt lat="43.6067673" lon="10.4577273"><ele>6.0</ele><time>2026-05-03T06:18:51.141Z</time></trkpt><trkpt lat="43.6069152" lon="10.4578653"><ele>5.666666666666667</ele><time>2026-05-03T06:18:52.141Z</time></trkpt><trkpt lat="43.6070642" lon="10.4580031"><ele>5.333333333333334</ele><time>2026-05-03T06:18:53.14Z</time></trkpt><trkpt lat="43.6072115" lon="10.458136"><ele>5.0</ele><time>2026-05-03T06:18:54.141Z</time></trkpt><trkpt lat="43.6073503" lon="10.4582653"><ele>5.0</ele><time>2026-05-03T06:18:55.14Z</time></trkpt><trkpt lat="43.6074821" lon="10.4583808"><ele>5.0</ele><time>2026-05-03T06:18:56.14Z</time></trkpt><trkpt lat="43.6076059" lon="10.4584895"><ele>5.0</ele><time>2026-05-03T06:18:57.14Z</time></trkpt><trkpt lat="43.6077224" lon="10.4585937"><ele>5.0</ele><time>2026-05-03T06:18:58.14Z</time></trkpt><trkpt lat="43.6078346" lon="10.458697"><ele>5.75</ele><time>2026-05-03T06:18:59.141Z</time></trkpt><trkpt lat="43.6079468" lon="10.458806"><ele>6.5</ele><time>2026-05-03T06:19:00.141Z</time></trkpt><trkpt lat="43.6080562" lon="10.458907"><ele>7.25</ele><time>2026-05-03T06:19:01.14Z</time></trkpt><trkpt lat="43.6081605" lon="10.4590049"><ele>8.0</ele><time>2026-05-03T06:19:02.141Z</time></trkpt><trkpt lat="43.6082572" lon="10.4591041"><ele>8.0</ele><time>2026-05-03T06:19:03.14Z</time></trkpt><trkpt lat="43.6083477" lon="10.4592036"><ele>8.0</ele><time>2026-05-03T06:19:04.14Z</time></trkpt><trkpt lat="43.6084327" lon="10.4593045"><ele>8.0</ele><time>2026-05-03T06:19:05.141Z</time></trkpt><trkpt lat="43.6085179" lon="10.4594111"><ele>8.0</ele><time>2026-05-03T06:19:06.141Z</time></trkpt><trkpt lat="43.6086059" lon="10.4595233"><ele>8.0</ele><time>2026-05-03T06:19:07.14Z</time></trkpt><trkpt lat="43.6086965" lon="10.4596395"><ele>8.0</ele><time>2026-05-03T06:19:08.141Z</time></trkpt><trkpt lat="43.6087876" lon="10.4597559"><ele>8.0</ele><time>2026-05-03T06:19:09.14Z</time></trkpt><trkpt lat="43.6088773" lon="10.4598732"><ele>8.0</ele><time>2026-05-03T06:19:10.14Z</time></trkpt><trkpt lat="43.6089643" lon="10.4599865"><ele>8.0</ele><time>2026-05-03T06:19:11.141Z</time></trkpt><trkpt lat="43.6090537" lon="10.4600915"><ele>8.0</ele><time>2026-05-03T06:19:12.141Z</time></trkpt><trkpt lat="43.6091477" lon="10.460197"><ele>8.0</ele><time>2026-05-03T06:19:13.14Z</time></trkpt><trkpt lat="43.6092474" lon="10.4603011"><ele>8.0</ele><time>2026-05-03T06:19:14.14Z</time></trkpt><trkpt lat="43.6093518" lon="10.4604104"><ele>8.0</ele><time>2026-05-03T06:19:15.141Z</time></trkpt><trkpt lat="43.6094624" lon="10.4605243"><ele>8.0</ele><time>2026-05-03T06:19:16.14Z</time></trkpt><trkpt lat="43.6095766" lon="10.4606405"><ele>8.0</ele><time>2026-05-03T06:19:17.141Z</time></trkpt><trkpt lat="43.6096871" lon="10.4607553"><ele>8.0</ele><time>2026-05-03T06:19:18.14Z</time></trkpt><trkpt lat="43.6097921" lon="10.4608648"><ele>7.75</ele><time>2026-05-03T06:19:19.14Z</time></trkpt><trkpt lat="43.6098964" lon="10.4609685"><ele>7.5</ele><time>2026-05-03T06:19:20.141Z</time></trkpt><trkpt lat="43.6099935" lon="10.4610703"><ele>7.25</ele><time>2026-05-03T06:19:21.141Z</time></trkpt><trkpt lat="43.6100891" lon="10.4611674"><ele>7.0</ele><time>2026-05-03T06:19:22.141Z</time></trkpt><trkpt lat="43.6101902" lon="10.461265"><ele>7.0</ele><time>2026-05-03T06:19:23.14Z</time></trkpt><trkpt lat="43.6102864" lon="10.4613664"><ele>7.0</ele><time>2026-05-03T06:19:24.14Z</time></trkpt><trkpt lat="43.6103813" lon="10.4614653"><ele>7.0</ele><time>2026-05-03T06:19:25.14Z</time></trkpt><trkpt lat="43.6104712" lon="10.461559"><ele>7.0</ele><time>2026-05-03T06:19:26.14Z</time></trkpt><trkpt lat="43.6105592" lon="10.4616509"><ele>7.0</ele><time>2026-05-03T06:19:27.141Z</time></trkpt><trkpt lat="43.6106448" lon="10.4617397"><ele>6.999999999999999</ele><time>2026-05-03T06:19:28.14Z</time></trkpt><trkpt lat="43.6107336" lon="10.4618291"><ele>6.999999999999999</ele><time>2026-05-03T06:19:29.14Z</time></trkpt><trkpt lat="43.6108237" lon="10.4619197"><ele>7.0</ele><time>2026-05-03T06:19:30.141Z</time></trkpt><trkpt lat="43.6109178" lon="10.4620162"><ele>7.0</ele><time>2026-05-03T06:19:31.14Z</time></trkpt><trkpt lat="43.6110157" lon="10.4621142"><ele>7.0</ele><time>2026-05-03T06:19:32.141Z</time></trkpt><trkpt lat="43.6111167" lon="10.4622118"><ele>7.0</ele><time>2026-05-03T06:19:33.14Z</time></trkpt><trkpt lat="43.6112185" lon="10.462314"><ele>7.0</ele><time>2026-05-03T06:19:34.141Z</time></trkpt><trkpt lat="43.6113207" lon="10.4624128"><ele>7.0</ele><time>2026-05-03T06:19:35.14Z</time></trkpt><trkpt lat="43.6114199" lon="10.4625077"><ele>7.0</ele><time>2026-05-03T06:19:36.14Z</time></trkpt><trkpt lat="43.6115199" lon="10.4626098"><ele>7.0</ele><time>2026-05-03T06:19:37.14Z</time></trkpt><trkpt lat="43.611621" lon="10.4627166"><ele>7.0</ele><time>2026-05-03T06:19:38.14Z</time></trkpt><trkpt lat="43.6117204" lon="10.4628216"><ele>7.0</ele><time>2026-05-03T06:19:39.141Z</time></trkpt><trkpt lat="43.6118192" lon="10.4629215"><ele>7.0</ele><time>2026-05-03T06:19:40.141Z</time></trkpt><trkpt lat="43.6119153" lon="10.46302"><ele>6.999999999999999</ele><time>2026-05-03T06:19:41.14Z</time></trkpt><trkpt lat="43.6120094" lon="10.4631124"><ele>6.999999999999999</ele><time>2026-05-03T06:19:42.141Z</time></trkpt><trkpt lat="43.6120999" lon="10.4631986"><ele>7.0</ele><time>2026-05-03T06:19:43.14Z</time></trkpt><trkpt lat="43.6121844" lon="10.463281"><ele>7.0</ele><time>2026-05-03T06:19:44.14Z</time></trkpt><trkpt lat="43.6122662" lon="10.4633647"><ele>7.0</ele><time>2026-05-03T06:19:45.141Z</time></trkpt><trkpt lat="43.6123493" lon="10.4634501"><ele>6.999999999999999</ele><time>2026-05-03T06:19:46.141Z</time></trkpt><trkpt lat="43.6124379" lon="10.4635356"><ele>6.999999999999999</ele><time>2026-05-03T06:19:47.141Z</time></trkpt><trkpt lat="43.6125305" lon="10.4636274"><ele>7.0</ele><time>2026-05-03T06:19:48.141Z</time></trkpt><trkpt lat="43.6126259" lon="10.4637251"><ele>7.0</ele><time>2026-05-03T06:19:49.141Z</time></trkpt><trkpt lat="43.6127256" lon="10.4638267"><ele>7.3999999999999995</ele><time>2026-05-03T06:19:50.141Z</time></trkpt><trkpt lat="43.6128245" lon="10.463925"><ele>7.799999999999999</ele><time>2026-05-03T06:19:51.14Z</time></trkpt><trkpt lat="43.6129167" lon="10.4640181"><ele>8.2</ele><time>2026-05-03T06:19:52.141Z</time></trkpt><trkpt lat="43.6130043" lon="10.4641067"><ele>8.6</ele><time>2026-05-03T06:19:53.14Z</time></trkpt><trkpt lat="43.6130875" lon="10.4641905"><ele>9.0</ele><time>2026-05-03T06:19:54.141Z</time></trkpt><trkpt lat="43.6131719" lon="10.4642732"><ele>9.0</ele><time>2026-05-03T06:19:55.141Z</time></trkpt><trkpt lat="43.6132536" lon="10.4643471"><ele>9.0</ele><time>2026-05-03T06:19:56.14Z</time></trkpt><trkpt lat="43.6133285" lon="10.4644196"><ele>9.0</ele><time>2026-05-03T06:19:57.14Z</time></trkpt><trkpt lat="43.6133892" lon="10.4644813"><ele>9.0</ele><time>2026-05-03T06:19:58.141Z</time></trkpt><trkpt lat="43.6134774" lon="10.4645745"><ele>9.0</ele><time>2026-05-03T06:20:00.141Z</time></trkpt><trkpt lat="43.6135173" lon="10.4646474"><ele>9.0</ele><time>2026-05-03T06:20:02.141Z</time></trkpt><trkpt lat="43.6135583" lon="10.4647202"><ele>9.0</ele><time>2026-05-03T06:20:05.14Z</time></trkpt><trkpt lat="43.6136499" lon="10.4647548"><ele>9.0</ele><time>2026-05-03T06:20:07.14Z</time></trkpt><trkpt lat="43.6137258" lon="10.4647433"><ele>9.0</ele><time>2026-05-03T06:20:08.141Z</time></trkpt><trkpt lat="43.613819" lon="10.4647239"><ele>9.0</ele><time>2026-05-03T06:20:09.141Z</time></trkpt><trkpt lat="43.6139208" lon="10.464696"><ele>9.0</ele><time>2026-05-03T06:20:10.141Z</time></trkpt><trkpt lat="43.614035" lon="10.4646592"><ele>8.75</ele><time>2026-05-03T06:20:11.14Z</time></trkpt><trkpt lat="43.6141571" lon="10.46462"><ele>8.5</ele><time>2026-05-03T06:20:12.141Z</time></trkpt><trkpt lat="43.6142751" lon="10.4645895"><ele>8.25</ele><time>2026-05-03T06:20:13.14Z</time></trkpt><trkpt lat="43.6143921" lon="10.4645537"><ele>8.0</ele><time>2026-05-03T06:20:14.141Z</time></trkpt><trkpt lat="43.6145092" lon="10.4645201"><ele>7.75</ele><time>2026-05-03T06:20:15.141Z</time></trkpt><trkpt lat="43.6146323" lon="10.4644848"><ele>7.5</ele><time>2026-05-03T06:20:16.14Z</time></trkpt><trkpt lat="43.6147569" lon="10.4644515"><ele>7.25</ele><time>2026-05-03T06:20:17.141Z</time></trkpt><trkpt lat="43.6148851" lon="10.4644146"><ele>7.0</ele><time>2026-05-03T06:20:18.141Z</time></trkpt><trkpt lat="43.6150148" lon="10.4643759"><ele>7.0</ele><time>2026-05-03T06:20:19.141Z</time></trkpt><trkpt lat="43.6151425" lon="10.4643372"><ele>7.0</ele><time>2026-05-03T06:20:20.141Z</time></trkpt><trkpt lat="43.6152682" lon="10.4643049"><ele>7.0</ele><time>2026-05-03T06:20:21.141Z</time></trkpt><trkpt lat="43.6153968" lon="10.4642721"><ele>7.0</ele><time>2026-05-03T06:20:22.14Z</time></trkpt><trkpt lat="43.615523" lon="10.4642364"><ele>7.25</ele><time>2026-05-03T06:20:23.14Z</time></trkpt><trkpt lat="43.615655" lon="10.4641998"><ele>7.5</ele><time>2026-05-03T06:20:24.14Z</time></trkpt><trkpt lat="43.6157901" lon="10.4641626"><ele>7.75</ele><time>2026-05-03T06:20:25.14Z</time></trkpt><trkpt lat="43.6159271" lon="10.4641244"><ele>8.0</ele><time>2026-05-03T06:20:26.141Z</time></trkpt><trkpt lat="43.6160689" lon="10.4640819"><ele>7.5</ele><time>2026-05-03T06:20:27.14Z</time></trkpt><trkpt lat="43.6162017" lon="10.4640412"><ele>7.0</ele><time>2026-05-03T06:20:28.141Z</time></trkpt><trkpt lat="43.6163357" lon="10.4639996"><ele>6.5</ele><time>2026-05-03T06:20:29.14Z</time></trkpt><trkpt lat="43.6164752" lon="10.463951"><ele>6.0</ele><time>2026-05-03T06:20:30.141Z</time></trkpt><trkpt lat="43.6166161" lon="10.4638977"><ele>6.0</ele><time>2026-05-03T06:20:31.141Z</time></trkpt><trkpt lat="43.6167548" lon="10.4638391"><ele>6.0</ele><time>2026-05-03T06:20:32.141Z</time></trkpt><trkpt lat="43.6168936" lon="10.4637777"><ele>6.0</ele><time>2026-05-03T06:20:33.14Z</time></trkpt><trkpt lat="43.6170344" lon="10.4637155"><ele>6.0</ele><time>2026-05-03T06:20:34.14Z</time></trkpt><trkpt lat="43.6171699" lon="10.4636569"><ele>6.0</ele><time>2026-05-03T06:20:35.141Z</time></trkpt><trkpt lat="43.6173083" lon="10.4635979"><ele>6.0</ele><time>2026-05-03T06:20:36.141Z</time></trkpt><trkpt lat="43.617446" lon="10.4635357"><ele>6.0</ele><time>2026-05-03T06:20:37.14Z</time></trkpt><trkpt lat="43.6175752" lon="10.4634774"><ele>6.0</ele><time>2026-05-03T06:20:38.141Z</time></trkpt><trkpt lat="43.6176957" lon="10.4634242"><ele>6.0</ele><time>2026-05-03T06:20:39.141Z</time></trkpt><trkpt lat="43.617805" lon="10.463375"><ele>6.0</ele><time>2026-05-03T06:20:40.14Z</time></trkpt><trkpt lat="43.6179096" lon="10.4633294"><ele>6.0</ele><time>2026-05-03T06:20:41.141Z</time></trkpt><trkpt lat="43.6180064" lon="10.4632854"><ele>6.0</ele><time>2026-05-03T06:20:42.141Z</time></trkpt><trkpt lat="43.6181034" lon="10.4632416"><ele>6.0</ele><time>2026-05-03T06:20:43.141Z</time></trkpt><trkpt lat="43.6182068" lon="10.4632036"><ele>6.0</ele><time>2026-05-03T06:20:44.14Z</time></trkpt><trkpt lat="43.6183167" lon="10.463186"><ele>6.0</ele><time>2026-05-03T06:20:45.141Z</time></trkpt><trkpt lat="43.6184292" lon="10.4631997"><ele>6.0</ele><time>2026-05-03T06:20:46.141Z</time></trkpt><trkpt lat="43.6185397" lon="10.4632467"><ele>6.0</ele><time>2026-05-03T06:20:47.141Z</time></trkpt><trkpt lat="43.6186436" lon="10.4633209"><ele>5.5</ele><time>2026-05-03T06:20:48.141Z</time></trkpt><trkpt lat="43.6187437" lon="10.4634184"><ele>5.0</ele><time>2026-05-03T06:20:49.14Z</time></trkpt><trkpt lat="43.6188468" lon="10.4635227"><ele>4.5</ele><time>2026-05-03T06:20:50.141Z</time></trkpt><trkpt lat="43.6189502" lon="10.4636285"><ele>4.0</ele><time>2026-05-03T06:20:51.141Z</time></trkpt><trkpt lat="43.6190489" lon="10.4637333"><ele>4.2</ele><time>2026-05-03T06:20:52.14Z</time></trkpt><trkpt lat="43.6191414" lon="10.4638265"><ele>4.4</ele><time>2026-05-03T06:20:53.141Z</time></trkpt><trkpt lat="43.61922" lon="10.4639107"><ele>4.6</ele><time>2026-05-03T06:20:54.14Z</time></trkpt><trkpt lat="43.6192923" lon="10.4639837"><ele>4.8</ele><time>2026-05-03T06:20:55.141Z</time></trkpt><trkpt lat="43.6193597" lon="10.4640489"><ele>5.0</ele><time>2026-05-03T06:20:56.14Z</time></trkpt><trkpt lat="43.6194244" lon="10.4641113"><ele>5.0</ele><time>2026-05-03T06:20:57.141Z</time></trkpt><trkpt lat="43.6194771" lon="10.4641811"><ele>5.0</ele><time>2026-05-03T06:20:58.14Z</time></trkpt><trkpt lat="43.6195159" lon="10.464259"><ele>5.0</ele><time>2026-05-03T06:20:59.141Z</time></trkpt><trkpt lat="43.6195444" lon="10.464345"><ele>5.0</ele><time>2026-05-03T06:21:00.141Z</time></trkpt><trkpt lat="43.6195587" lon="10.4644509"><ele>5.0</ele><time>2026-05-03T06:21:01.14Z</time></trkpt><trkpt lat="43.619561" lon="10.4645691"><ele>5.0</ele><time>2026-05-03T06:21:02.14Z</time></trkpt><trkpt lat="43.6195378" lon="10.4646925"><ele>4.75</ele><time>2026-05-03T06:21:03.14Z</time></trkpt><trkpt lat="43.6194877" lon="10.4648216"><ele>4.5</ele><time>2026-05-03T06:21:04.141Z</time></trkpt><trkpt lat="43.6194218" lon="10.4649539"><ele>4.25</ele><time>2026-05-03T06:21:05.14Z</time></trkpt><trkpt lat="43.6193479" lon="10.465099"><ele>4.0</ele><time>2026-05-03T06:21:06.141Z</time></trkpt><trkpt lat="43.6192697" lon="10.4652534"><ele>4.0</ele><time>2026-05-03T06:21:07.14Z</time></trkpt><trkpt lat="43.6191976" lon="10.4654101"><ele>4.0</ele><time>2026-05-03T06:21:08.14Z</time></trkpt><trkpt lat="43.6191382" lon="10.4655373"><ele>4.0</ele><time>2026-05-03T06:21:09.141Z</time></trkpt><trkpt lat="43.6190977" lon="10.4656428"><ele>4.0</ele><time>2026-05-03T06:21:10.141Z</time></trkpt><trkpt lat="43.6190812" lon="10.4657455"><ele>4.0</ele><time>2026-05-03T06:21:11.14Z</time></trkpt><trkpt lat="43.6190881" lon="10.4658395"><ele>3.8000000000000003</ele><time>2026-05-03T06:21:12.141Z</time></trkpt><trkpt lat="43.6191669" lon="10.4659598"><ele>3.6000000000000005</ele><time>2026-05-03T06:21:14.141Z</time></trkpt><trkpt lat="43.6192785" lon="10.4659689"><ele>3.4</ele><time>2026-05-03T06:21:16.141Z</time></trkpt><trkpt lat="43.6193369" lon="10.4659309"><ele>3.2</ele><time>2026-05-03T06:21:17.141Z</time></trkpt><trkpt lat="43.6193968" lon="10.4658649"><ele>3.0</ele><time>2026-05-03T06:21:18.14Z</time></trkpt><trkpt lat="43.6194566" lon="10.465777"><ele>3.25</ele><time>2026-05-03T06:21:19.141Z</time></trkpt><trkpt lat="43.6195216" lon="10.4656705"><ele>3.5</ele><time>2026-05-03T06:21:20.14Z</time></trkpt><trkpt lat="43.6195892" lon="10.4655519"><ele>3.75</ele><time>2026-05-03T06:21:21.14Z</time></trkpt><trkpt lat="43.6196614" lon="10.4654188"><ele>4.0</ele><time>2026-05-03T06:21:22.141Z</time></trkpt><trkpt lat="43.6197397" lon="10.4652778"><ele>4.0</ele><time>2026-05-03T06:21:23.14Z</time></trkpt><trkpt lat="43.6198255" lon="10.4651338"><ele>4.0</ele><time>2026-05-03T06:21:24.14Z</time></trkpt><trkpt lat="43.6199154" lon="10.4649847"><ele>4.0</ele><time>2026-05-03T06:21:25.14Z</time></trkpt><trkpt lat="43.620006" lon="10.464832"><ele>4.0</ele><time>2026-05-03T06:21:26.14Z</time></trkpt><trkpt lat="43.6200989" lon="10.4646745"><ele>3.75</ele><time>2026-05-03T06:21:27.141Z</time></trkpt><trkpt lat="43.6201899" lon="10.4645102"><ele>3.5</ele><time>2026-05-03T06:21:28.141Z</time></trkpt><trkpt lat="43.6202752" lon="10.4643538"><ele>3.25</ele><time>2026-05-03T06:21:29.141Z</time></trkpt><trkpt lat="43.6203766" lon="10.4642079"><ele>3.0</ele><time>2026-05-03T06:21:30.14Z</time></trkpt><trkpt lat="43.6204893" lon="10.4640839"><ele>4.333333333333334</ele><time>2026-05-03T06:21:31.141Z</time></trkpt><trkpt lat="43.6206167" lon="10.4639831"><ele>5.666666666666667</ele><time>2026-05-03T06:21:32.14Z</time></trkpt><trkpt lat="43.6207544" lon="10.4638968"><ele>7.0</ele><time>2026-05-03T06:21:33.141Z</time></trkpt><trkpt lat="43.6209078" lon="10.4638233"><ele>6.333333333333334</ele><time>2026-05-03T06:21:34.141Z</time></trkpt><trkpt lat="43.6210735" lon="10.4637491"><ele>5.666666666666667</ele><time>2026-05-03T06:21:35.14Z</time></trkpt><trkpt lat="43.6212453" lon="10.463669"><ele>5.0</ele><time>2026-05-03T06:21:36.141Z</time></trkpt><trkpt lat="43.621424" lon="10.463578"><ele>5.0</ele><time>2026-05-03T06:21:37.14Z</time></trkpt><trkpt lat="43.6216032" lon="10.4634914"><ele>5.0</ele><time>2026-05-03T06:21:38.14Z</time></trkpt><trkpt lat="43.6217804" lon="10.4633994"><ele>5.0</ele><time>2026-05-03T06:21:39.14Z</time></trkpt><trkpt lat="43.6219474" lon="10.4633076"><ele>5.0</ele><time>2026-05-03T06:21:40.14Z</time></trkpt><trkpt lat="43.6221075" lon="10.4632149"><ele>5.0</ele><time>2026-05-03T06:21:41.141Z</time></trkpt><trkpt lat="43.6222643" lon="10.4631205"><ele>5.0</ele><time>2026-05-03T06:21:42.14Z</time></trkpt><trkpt lat="43.6224144" lon="10.4630274"><ele>4.666666666666667</ele><time>2026-05-03T06:21:43.14Z</time></trkpt><trkpt lat="43.6225561" lon="10.4629404"><ele>4.333333333333333</ele><time>2026-05-03T06:21:44.141Z</time></trkpt><trkpt lat="43.6226957" lon="10.4628556"><ele>4.0</ele><time>2026-05-03T06:21:45.141Z</time></trkpt><trkpt lat="43.6228302" lon="10.4627702"><ele>4.666666666666666</ele><time>2026-05-03T06:21:46.14Z</time></trkpt><trkpt lat="43.6229677" lon="10.462689"><ele>5.333333333333333</ele><time>2026-05-03T06:21:47.141Z</time></trkpt><trkpt lat="43.6231045" lon="10.4626063"><ele>6.0</ele><time>2026-05-03T06:21:48.14Z</time></trkpt><trkpt lat="43.6232432" lon="10.4625189"><ele>6.0</ele><time>2026-05-03T06:21:49.141Z</time></trkpt><trkpt lat="43.6233876" lon="10.4624287"><ele>6.0</ele><time>2026-05-03T06:21:50.14Z</time></trkpt><trkpt lat="43.623538" lon="10.4623325"><ele>6.0</ele><time>2026-05-03T06:21:51.14Z</time></trkpt><trkpt lat="43.6236991" lon="10.4622316"><ele>6.333333333333334</ele><time>2026-05-03T06:21:52.141Z</time></trkpt><trkpt lat="43.6238693" lon="10.4621246"><ele>6.666666666666667</ele><time>2026-05-03T06:21:53.141Z</time></trkpt><trkpt lat="43.6240459" lon="10.4620141"><ele>7.0</ele><time>2026-05-03T06:21:54.141Z</time></trkpt><trkpt lat="43.6242254" lon="10.4619005"><ele>7.0</ele><time>2026-05-03T06:21:55.141Z</time></trkpt><trkpt lat="43.6244035" lon="10.4617861"><ele>7.0</ele><time>2026-05-03T06:21:56.14Z</time></trkpt><trkpt lat="43.6245737" lon="10.4616759"><ele>7.0</ele><time>2026-05-03T06:21:57.14Z</time></trkpt><trkpt lat="43.6247451" lon="10.4615647"><ele>6.0</ele><time>2026-05-03T06:21:58.141Z</time></trkpt><trkpt lat="43.6249172" lon="10.4614547"><ele>5.0</ele><time>2026-05-03T06:21:59.141Z</time></trkpt><trkpt lat="43.6250886" lon="10.4613452"><ele>4.0</ele><time>2026-05-03T06:22:00.14Z</time></trkpt><trkpt lat="43.6252587" lon="10.4612346"><ele>3.0</ele><time>2026-05-03T06:22:01.14Z</time></trkpt><trkpt lat="43.6254274" lon="10.4611262"><ele>2.0</ele><time>2026-05-03T06:22:02.14Z</time></trkpt><trkpt lat="43.6255965" lon="10.4610169"><ele>1.0</ele><time>2026-05-03T06:22:03.14Z</time></trkpt><trkpt lat="43.6257663" lon="10.4609087"><ele>1.0</ele><time>2026-05-03T06:22:04.141Z</time></trkpt><trkpt lat="43.6259345" lon="10.4608"><ele>1.0</ele><time>2026-05-03T06:22:05.141Z</time></trkpt><trkpt lat="43.6260992" lon="10.4606945"><ele>1.0</ele><time>2026-05-03T06:22:06.14Z</time></trkpt><trkpt lat="43.6262621" lon="10.4605921"><ele>1.3333333333333333</ele><time>2026-05-03T06:22:07.141Z</time></trkpt><trkpt lat="43.6264276" lon="10.4604886"><ele>1.6666666666666665</ele><time>2026-05-03T06:22:08.141Z</time></trkpt><trkpt lat="43.6265943" lon="10.4603815"><ele>2.0</ele><time>2026-05-03T06:22:09.14Z</time></trkpt><trkpt lat="43.6267646" lon="10.4602745"><ele>2.0</ele><time>2026-05-03T06:22:10.14Z</time></trkpt><trkpt lat="43.626936" lon="10.4601632"><ele>2.0</ele><time>2026-05-03T06:22:11.141Z</time></trkpt><trkpt lat="43.6271092" lon="10.4600501"><ele>2.0</ele><time>2026-05-03T06:22:12.141Z</time></trkpt><trkpt lat="43.6272843" lon="10.4599367"><ele>2.0</ele><time>2026-05-03T06:22:13.141Z</time></trkpt><trkpt lat="43.6274605" lon="10.4598241"><ele>2.0</ele><time>2026-05-03T06:22:14.141Z</time></trkpt><trkpt lat="43.6276372" lon="10.4597105"><ele>2.0</ele><time>2026-05-03T06:22:15.14Z</time></trkpt><trkpt lat="43.6278057" lon="10.4596006"><ele>1.6666666666666665</ele><time>2026-05-03T06:22:16.14Z</time></trkpt><trkpt lat="43.6279685" lon="10.4594936"><ele>1.3333333333333333</ele><time>2026-05-03T06:22:17.14Z</time></trkpt><trkpt lat="43.6281262" lon="10.4593922"><ele>1.0</ele><time>2026-05-03T06:22:18.141Z</time></trkpt><trkpt lat="43.6282854" lon="10.4592907"><ele>1.0</ele><time>2026-05-03T06:22:19.141Z</time></trkpt><trkpt lat="43.6284404" lon="10.4591932"><ele>1.0</ele><time>2026-05-03T06:22:20.14Z</time></trkpt><trkpt lat="43.6285901" lon="10.4590988"><ele>1.0</ele><time>2026-05-03T06:22:21.14Z</time></trkpt><trkpt lat="43.6287404" lon="10.4590031"><ele>1.0</ele><time>2026-05-03T06:22:22.14Z</time></trkpt><trkpt lat="43.6288905" lon="10.4589075"><ele>1.0</ele><time>2026-05-03T06:22:23.14Z</time></trkpt><trkpt lat="43.6290397" lon="10.4588128"><ele>1.0</ele><time>2026-05-03T06:22:24.14Z</time></trkpt><trkpt lat="43.6291884" lon="10.4587195"><ele>1.0</ele><time>2026-05-03T06:22:25.141Z</time></trkpt><trkpt lat="43.6293375" lon="10.4586249"><ele>1.0</ele><time>2026-05-03T06:22:26.141Z</time></trkpt><trkpt lat="43.6294869" lon="10.4585296"><ele>1.0</ele><time>2026-05-03T06:22:27.14Z</time></trkpt><trkpt lat="43.6296379" lon="10.4584304"><ele>1.3333333333333333</ele><time>2026-05-03T06:22:28.141Z</time></trkpt><trkpt lat="43.6297927" lon="10.4583322"><ele>1.6666666666666665</ele><time>2026-05-03T06:22:29.14Z</time></trkpt><trkpt lat="43.6299517" lon="10.4582323"><ele>2.0</ele><time>2026-05-03T06:22:30.141Z</time></trkpt><trkpt lat="43.6301126" lon="10.458129"><ele>2.0</ele><time>2026-05-03T06:22:31.141Z</time></trkpt><trkpt lat="43.6302769" lon="10.4580262"><ele>2.0</ele><time>2026-05-03T06:22:32.141Z</time></trkpt><trkpt lat="43.6304442" lon="10.4579239"><ele>2.0</ele><time>2026-05-03T06:22:33.14Z</time></trkpt><trkpt lat="43.6306093" lon="10.4578216"><ele>2.0</ele><time>2026-05-03T06:22:34.141Z</time></trkpt><trkpt lat="43.6307671" lon="10.4577247"><ele>2.0</ele><time>2026-05-03T06:22:35.141Z</time></trkpt><trkpt lat="43.6309195" lon="10.4576301"><ele>2.0</ele><time>2026-05-03T06:22:36.141Z</time></trkpt><trkpt lat="43.6310679" lon="10.4575409"><ele>2.0</ele><time>2026-05-03T06:22:37.14Z</time></trkpt><trkpt lat="43.6312166" lon="10.4574549"><ele>2.0</ele><time>2026-05-03T06:22:38.141Z</time></trkpt><trkpt lat="43.6313655" lon="10.4573658"><ele>2.0</ele><time>2026-05-03T06:22:39.14Z</time></trkpt><trkpt lat="43.6315133" lon="10.4572764"><ele>2.0</ele><time>2026-05-03T06:22:40.14Z</time></trkpt><trkpt lat="43.6316623" lon="10.4571842"><ele>2.0</ele><time>2026-05-03T06:22:41.141Z</time></trkpt><trkpt lat="43.6318117" lon="10.4570889"><ele>2.0</ele><time>2026-05-03T06:22:42.14Z</time></trkpt><trkpt lat="43.6319619" lon="10.4569927"><ele>1.6666666666666665</ele><time>2026-05-03T06:22:43.14Z</time></trkpt><trkpt lat="43.6321129" lon="10.4568959"><ele>1.3333333333333333</ele><time>2026-05-03T06:22:44.141Z</time></trkpt><trkpt lat="43.6322657" lon="10.4567989"><ele>1.0</ele><time>2026-05-03T06:22:45.141Z</time></trkpt><trkpt lat="43.6324192" lon="10.4567024"><ele>1.0</ele><time>2026-05-03T06:22:46.14Z</time></trkpt><trkpt lat="43.632574" lon="10.4566043"><ele>1.0</ele><time>2026-05-03T06:22:47.141Z</time></trkpt><trkpt lat="43.632729" lon="10.4565064"><ele>1.0</ele><time>2026-05-03T06:22:48.14Z</time></trkpt><trkpt lat="43.6328752" lon="10.4564077"><ele>1.0</ele><time>2026-05-03T06:22:49.14Z</time></trkpt><trkpt lat="43.6330184" lon="10.4563107"><ele>1.0</ele><time>2026-05-03T06:22:50.141Z</time></trkpt><trkpt lat="43.6331619" lon="10.4562125"><ele>1.0</ele><time>2026-05-03T06:22:51.14Z</time></trkpt><trkpt lat="43.6333062" lon="10.4561134"><ele>1.0</ele><time>2026-05-03T06:22:52.141Z</time></trkpt><trkpt lat="43.6334545" lon="10.4560161"><ele>1.0</ele><time>2026-05-03T06:22:53.14Z</time></trkpt><trkpt lat="43.6336043" lon="10.455921"><ele>1.0</ele><time>2026-05-03T06:22:54.14Z</time></trkpt><trkpt lat="43.6337554" lon="10.4558258"><ele>1.6666666666666665</ele><time>2026-05-03T06:22:55.14Z</time></trkpt><trkpt lat="43.6339089" lon="10.4557284"><ele>2.3333333333333335</ele><time>2026-05-03T06:22:56.14Z</time></trkpt><trkpt lat="43.6340595" lon="10.4556317"><ele>3.0</ele><time>2026-05-03T06:22:57.14Z</time></trkpt><trkpt lat="43.6342038" lon="10.4555426"><ele>3.0</ele><time>2026-05-03T06:22:58.14Z</time></trkpt><trkpt lat="43.6343444" lon="10.4554557"><ele>3.0</ele><time>2026-05-03T06:22:59.14Z</time></trkpt><trkpt lat="43.6344846" lon="10.4553689"><ele>3.0</ele><time>2026-05-03T06:23:00.141Z</time></trkpt><trkpt lat="43.6346254" lon="10.4552798"><ele>2.3333333333333335</ele><time>2026-05-03T06:23:01.14Z</time></trkpt><trkpt lat="43.6347689" lon="10.4551862"><ele>1.6666666666666665</ele><time>2026-05-03T06:23:02.14Z</time></trkpt><trkpt lat="43.634918" lon="10.4550877"><ele>1.0</ele><time>2026-05-03T06:23:03.141Z</time></trkpt><trkpt lat="43.6350698" lon="10.4549878"><ele>1.0</ele><time>2026-05-03T06:23:04.14Z</time></trkpt><trkpt lat="43.6352296" lon="10.4548851"><ele>1.0</ele><time>2026-05-03T06:23:05.14Z</time></trkpt><trkpt lat="43.6353967" lon="10.4547765"><ele>1.0</ele><time>2026-05-03T06:23:06.141Z</time></trkpt><trkpt lat="43.6355711" lon="10.4546657"><ele>1.0</ele><time>2026-05-03T06:23:07.14Z</time></trkpt><trkpt lat="43.63575" lon="10.454551"><ele>1.0</ele><time>2026-05-03T06:23:08.141Z</time></trkpt><trkpt lat="43.635931" lon="10.4544367"><ele>1.0</ele><time>2026-05-03T06:23:09.14Z</time></trkpt><trkpt lat="43.6361148" lon="10.4543201"><ele>1.0</ele><time>2026-05-03T06:23:10.14Z</time></trkpt><trkpt lat="43.6363032" lon="10.4542018"><ele>1.0</ele><time>2026-05-03T06:23:11.14Z</time></trkpt><trkpt lat="43.6364967" lon="10.4540794"><ele>1.0</ele><time>2026-05-03T06:23:12.14Z</time></trkpt><trkpt lat="43.6366944" lon="10.4539537"><ele>1.0</ele><time>2026-05-03T06:23:13.141Z</time></trkpt><trkpt lat="43.636896" lon="10.4538266"><ele>1.0</ele><time>2026-05-03T06:23:14.141Z</time></trkpt><trkpt lat="43.6371016" lon="10.4536965"><ele>1.0</ele><time>2026-05-03T06:23:15.141Z</time></trkpt><trkpt lat="43.6373116" lon="10.4535661"><ele>0.5</ele><time>2026-05-03T06:23:16.141Z</time></trkpt><trkpt lat="43.6375269" lon="10.4534344"><ele>0.0</ele><time>2026-05-03T06:23:17.14Z</time></trkpt><trkpt lat="43.6377463" lon="10.4532995"><ele>0.5</ele><time>2026-05-03T06:23:18.14Z</time></trkpt><trkpt lat="43.6379629" lon="10.4531626"><ele>1.0</ele><time>2026-05-03T06:23:19.141Z</time></trkpt><trkpt lat="43.6381793" lon="10.4530248"><ele>1.5</ele><time>2026-05-03T06:23:20.141Z</time></trkpt><trkpt lat="43.6383984" lon="10.4528852"><ele>2.0</ele><time>2026-05-03T06:23:21.14Z</time></trkpt><trkpt lat="43.6386195" lon="10.4527446"><ele>1.0</ele><time>2026-05-03T06:23:22.14Z</time></trkpt><trkpt lat="43.6388419" lon="10.4526029"><ele>0.0</ele><time>2026-05-03T06:23:23.141Z</time></trkpt><trkpt lat="43.6390639" lon="10.4524617"><ele>0.0</ele><time>2026-05-03T06:23:24.14Z</time></trkpt><trkpt lat="43.6392856" lon="10.4523176"><ele>0.0</ele><time>2026-05-03T06:23:25.14Z</time></trkpt><trkpt lat="43.639506" lon="10.4521736"><ele>0.0</ele><time>2026-05-03T06:23:26.14Z</time></trkpt><trkpt lat="43.6397249" lon="10.4520324"><ele>0.0</ele><time>2026-05-03T06:23:27.141Z</time></trkpt><trkpt lat="43.6399411" lon="10.4518933"><ele>0.0</ele><time>2026-05-03T06:23:28.14Z</time></trkpt><trkpt lat="43.6401564" lon="10.4517553"><ele>0.0</ele><time>2026-05-03T06:23:29.141Z</time></trkpt><trkpt lat="43.6403728" lon="10.4516202"><ele>0.0</ele><time>2026-05-03T06:23:30.141Z</time></trkpt><trkpt lat="43.6405889" lon="10.4514859"><ele>0.0</ele><time>2026-05-03T06:23:31.14Z</time></trkpt><trkpt lat="43.6408062" lon="10.4513508"><ele>0.0</ele><time>2026-05-03T06:23:32.14Z</time></trkpt><trkpt lat="43.6410218" lon="10.4512141"><ele>0.0</ele><time>2026-05-03T06:23:33.14Z</time></trkpt><trkpt lat="43.6412365" lon="10.4510778"><ele>0.0</ele><time>2026-05-03T06:23:34.14Z</time></trkpt><trkpt lat="43.6414481" lon="10.4509414"><ele>0.0</ele><time>2026-05-03T06:23:35.14Z</time></trkpt><trkpt lat="43.6416616" lon="10.4508069"><ele>0.0</ele><time>2026-05-03T06:23:36.14Z</time></trkpt><trkpt lat="43.6418733" lon="10.4506732"><ele>0.0</ele><time>2026-05-03T06:23:37.14Z</time></trkpt><trkpt lat="43.6420846" lon="10.4505382"><ele>0.5</ele><time>2026-05-03T06:23:38.14Z</time></trkpt><trkpt lat="43.6422965" lon="10.4504032"><ele>1.0</ele><time>2026-05-03T06:23:39.14Z</time></trkpt><trkpt lat="43.6425064" lon="10.4502693"><ele>1.0</ele><time>2026-05-03T06:23:40.14Z</time></trkpt><trkpt lat="43.6427147" lon="10.4501391"><ele>1.0</ele><time>2026-05-03T06:23:41.141Z</time></trkpt><trkpt lat="43.6429209" lon="10.4500077"><ele>1.3333333333333333</ele><time>2026-05-03T06:23:42.14Z</time></trkpt><trkpt lat="43.6431253" lon="10.4498779"><ele>1.6666666666666665</ele><time>2026-05-03T06:23:43.141Z</time></trkpt><trkpt lat="43.6433187" lon="10.4497547"><ele>2.0</ele><time>2026-05-03T06:23:44.14Z</time></trkpt><trkpt lat="43.6434945" lon="10.4496444"><ele>2.333333333333333</ele><time>2026-05-03T06:23:45.141Z</time></trkpt><trkpt lat="43.6436497" lon="10.4495431"><ele>2.6666666666666665</ele><time>2026-05-03T06:23:46.141Z</time></trkpt><trkpt lat="43.6437841" lon="10.4494566"><ele>3.0</ele><time>2026-05-03T06:23:47.141Z</time></trkpt><trkpt lat="43.6439059" lon="10.4493864"><ele>3.0</ele><time>2026-05-03T06:23:48.14Z</time></trkpt><trkpt lat="43.6440265" lon="10.4493363"><ele>3.0</ele><time>2026-05-03T06:23:49.141Z</time></trkpt><trkpt lat="43.6441436" lon="10.4492841"><ele>3.0</ele><time>2026-05-03T06:23:50.141Z</time></trkpt><trkpt lat="43.6442525" lon="10.4492053"><ele>3.0</ele><time>2026-05-03T06:23:51.14Z</time></trkpt><trkpt lat="43.6443768" lon="10.4491055"><ele>2.75</ele><time>2026-05-03T06:23:52.14Z</time></trkpt><trkpt lat="43.6444881" lon="10.4490289"><ele>2.5</ele><time>2026-05-03T06:23:53.14Z</time></trkpt><trkpt lat="43.6445977" lon="10.4489573"><ele>2.25</ele><time>2026-05-03T06:23:54.141Z</time></trkpt><trkpt lat="43.6447153" lon="10.4488777"><ele>2.0</ele><time>2026-05-03T06:23:55.14Z</time></trkpt><trkpt lat="43.6448422" lon="10.4487945"><ele>2.0</ele><time>2026-05-03T06:23:56.141Z</time></trkpt><trkpt lat="43.6449738" lon="10.4487092"><ele>2.0</ele><time>2026-05-03T06:23:57.14Z</time></trkpt><trkpt lat="43.6451079" lon="10.4486218"><ele>2.0</ele><time>2026-05-03T06:23:58.14Z</time></trkpt><trkpt lat="43.6452426" lon="10.4485328"><ele>2.0</ele><time>2026-05-03T06:23:59.141Z</time></trkpt><trkpt lat="43.6453811" lon="10.4484442"><ele>1.6666666666666665</ele><time>2026-05-03T06:24:00.14Z</time></trkpt><trkpt lat="43.6455216" lon="10.4483553"><ele>1.3333333333333333</ele><time>2026-05-03T06:24:01.141Z</time></trkpt><trkpt lat="43.645668" lon="10.4482646"><ele>1.0</ele><time>2026-05-03T06:24:02.14Z</time></trkpt><trkpt lat="43.6458167" lon="10.4481749"><ele>1.0</ele><time>2026-05-03T06:24:03.141Z</time></trkpt><trkpt lat="43.6459671" lon="10.44808"><ele>1.0</ele><time>2026-05-03T06:24:04.14Z</time></trkpt><trkpt lat="43.6461241" lon="10.4479823"><ele>1.0</ele><time>2026-05-03T06:24:05.141Z</time></trkpt><trkpt lat="43.6462824" lon="10.4478825"><ele>0.3333333333333333</ele><time>2026-05-03T06:24:06.14Z</time></trkpt><trkpt lat="43.6464448" lon="10.4477791"><ele>-0.3333333333333333</ele><time>2026-05-03T06:24:07.14Z</time></trkpt><trkpt lat="43.6466118" lon="10.4476756"><ele>-1.0</ele><time>2026-05-03T06:24:08.14Z</time></trkpt><trkpt lat="43.646782" lon="10.4475708"><ele>-1.0</ele><time>2026-05-03T06:24:09.141Z</time></trkpt><trkpt lat="43.6469516" lon="10.4474639"><ele>-1.0</ele><time>2026-05-03T06:24:10.141Z</time></trkpt><trkpt lat="43.6471213" lon="10.4473529"><ele>-1.0</ele><time>2026-05-03T06:24:11.14Z</time></trkpt><trkpt lat="43.6472919" lon="10.4472419"><ele>-1.3333333333333333</ele><time>2026-05-03T06:24:12.14Z</time></trkpt><trkpt lat="43.6474648" lon="10.4471334"><ele>-1.6666666666666665</ele><time>2026-05-03T06:24:13.14Z</time></trkpt><trkpt lat="43.6476397" lon="10.4470236"><ele>-2.0</ele><time>2026-05-03T06:24:14.141Z</time></trkpt><trkpt lat="43.6478188" lon="10.4469109"><ele>-1.3333333333333333</ele><time>2026-05-03T06:24:15.141Z</time></trkpt><trkpt lat="43.6480023" lon="10.4467975"><ele>-0.6666666666666666</ele><time>2026-05-03T06:24:16.14Z</time></trkpt><trkpt lat="43.6481884" lon="10.446681"><ele>0.0</ele><time>2026-05-03T06:24:17.14Z</time></trkpt><trkpt lat="43.6483772" lon="10.4465618"><ele>0.0</ele><time>2026-05-03T06:24:18.141Z</time></trkpt><trkpt lat="43.6485692" lon="10.4464378"><ele>0.0</ele><time>2026-05-03T06:24:19.141Z</time></trkpt><trkpt lat="43.6487638" lon="10.4463145"><ele>0.0</ele><time>2026-05-03T06:24:20.141Z</time></trkpt><trkpt lat="43.6489605" lon="10.4461894"><ele>-0.3333333333333333</ele><time>2026-05-03T06:24:21.141Z</time></trkpt><trkpt lat="43.6491588" lon="10.4460633"><ele>-0.6666666666666666</ele><time>2026-05-03T06:24:22.141Z</time></trkpt><trkpt lat="43.6493572" lon="10.4459378"><ele>-1.0</ele><time>2026-05-03T06:24:23.14Z</time></trkpt><trkpt lat="43.6495581" lon="10.445812"><ele>-1.0</ele><time>2026-05-03T06:24:24.141Z</time></trkpt><trkpt lat="43.6497619" lon="10.4456844"><ele>-1.0</ele><time>2026-05-03T06:24:25.141Z</time></trkpt><trkpt lat="43.6499679" lon="10.445554"><ele>-0.5</ele><time>2026-05-03T06:24:26.141Z</time></trkpt><trkpt lat="43.6501736" lon="10.4454254"><ele>0.0</ele><time>2026-05-03T06:24:27.14Z</time></trkpt><trkpt lat="43.6503788" lon="10.4452966"><ele>0.5</ele><time>2026-05-03T06:24:28.14Z</time></trkpt><trkpt lat="43.6505839" lon="10.4451676"><ele>1.0</ele><time>2026-05-03T06:24:29.141Z</time></trkpt><trkpt lat="43.6507907" lon="10.4450404"><ele>1.0</ele><time>2026-05-03T06:24:30.141Z</time></trkpt><trkpt lat="43.6509979" lon="10.444914"><ele>1.0</ele><time>2026-05-03T06:24:31.141Z</time></trkpt><trkpt lat="43.6512056" lon="10.4447857"><ele>0.0</ele><time>2026-05-03T06:24:32.141Z</time></trkpt><trkpt lat="43.6514118" lon="10.4446544"><ele>-1.0</ele><time>2026-05-03T06:24:33.141Z</time></trkpt><trkpt lat="43.6516157" lon="10.4445234"><ele>-1.0</ele><time>2026-05-03T06:24:34.14Z</time></trkpt><trkpt lat="43.6518181" lon="10.4443923"><ele>-1.0</ele><time>2026-05-03T06:24:35.14Z</time></trkpt><trkpt lat="43.6520218" lon="10.4442614"><ele>-1.0</ele><time>2026-05-03T06:24:36.14Z</time></trkpt><trkpt lat="43.6522268" lon="10.44413"><ele>-1.0</ele><time>2026-05-03T06:24:37.14Z</time></trkpt><trkpt lat="43.6524307" lon="10.4440014"><ele>-1.0</ele><time>2026-05-03T06:24:38.141Z</time></trkpt><trkpt lat="43.6526349" lon="10.4438705"><ele>-1.0</ele><time>2026-05-03T06:24:39.14Z</time></trkpt><trkpt lat="43.6528384" lon="10.4437419"><ele>-1.0</ele><time>2026-05-03T06:24:40.141Z</time></trkpt><trkpt lat="43.6530402" lon="10.4436155"><ele>-1.0</ele><time>2026-05-03T06:24:41.14Z</time></trkpt><trkpt lat="43.6532433" lon="10.443489"><ele>-1.0</ele><time>2026-05-03T06:24:42.141Z</time></trkpt><trkpt lat="43.6534453" lon="10.4433604"><ele>-0.6666666666666666</ele><time>2026-05-03T06:24:43.141Z</time></trkpt><trkpt lat="43.6536469" lon="10.4432334"><ele>-0.3333333333333333</ele><time>2026-05-03T06:24:44.14Z</time></trkpt><trkpt lat="43.6538492" lon="10.4431037"><ele>0.0</ele><time>2026-05-03T06:24:45.141Z</time></trkpt><trkpt lat="43.6540502" lon="10.4429745"><ele>0.0</ele><time>2026-05-03T06:24:46.141Z</time></trkpt><trkpt lat="43.6542527" lon="10.4428445"><ele>0.0</ele><time>2026-05-03T06:24:47.14Z</time></trkpt><trkpt lat="43.6544558" lon="10.4427141"><ele>0.0</ele><time>2026-05-03T06:24:48.14Z</time></trkpt><trkpt lat="43.6546606" lon="10.4425843"><ele>0.0</ele><time>2026-05-03T06:24:49.14Z</time></trkpt><trkpt lat="43.6548648" lon="10.4424544"><ele>0.0</ele><time>2026-05-03T06:24:50.14Z</time></trkpt><trkpt lat="43.6550696" lon="10.4423231"><ele>0.0</ele><time>2026-05-03T06:24:51.14Z</time></trkpt><trkpt lat="43.6552727" lon="10.4421933"><ele>0.0</ele><time>2026-05-03T06:24:52.141Z</time></trkpt><trkpt lat="43.6554755" lon="10.4420652"><ele>0.0</ele><time>2026-05-03T06:24:53.141Z</time></trkpt><trkpt lat="43.6556777" lon="10.4419366"><ele>0.0</ele><time>2026-05-03T06:24:54.14Z</time></trkpt><trkpt lat="43.6558789" lon="10.4418072"><ele>0.0</ele><time>2026-05-03T06:24:55.14Z</time></trkpt><trkpt lat="43.6560801" lon="10.4416777"><ele>0.0</ele><time>2026-05-03T06:24:56.14Z</time></trkpt><trkpt lat="43.6562815" lon="10.4415492"><ele>0.0</ele><time>2026-05-03T06:24:57.14Z</time></trkpt><trkpt lat="43.6564847" lon="10.4414203"><ele>0.0</ele><time>2026-05-03T06:24:58.141Z</time></trkpt><trkpt lat="43.6566849" lon="10.4412901"><ele>0.0</ele><time>2026-05-03T06:24:59.14Z</time></trkpt><trkpt lat="43.6568832" lon="10.4411633"><ele>0.3333333333333333</ele><time>2026-05-03T06:25:00.141Z</time></trkpt><trkpt lat="43.6570805" lon="10.4410381"><ele>0.6666666666666666</ele><time>2026-05-03T06:25:01.14Z</time></trkpt><trkpt lat="43.6572775" lon="10.4409125"><ele>1.0</ele><time>2026-05-03T06:25:02.141Z</time></trkpt><trkpt lat="43.6574751" lon="10.4407867"><ele>1.0</ele><time>2026-05-03T06:25:03.14Z</time></trkpt><trkpt lat="43.6576734" lon="10.4406604"><ele>1.0</ele><time>2026-05-03T06:25:04.14Z</time></trkpt><trkpt lat="43.6578733" lon="10.4405348"><ele>1.0</ele><time>2026-05-03T06:25:05.141Z</time></trkpt><trkpt lat="43.6580728" lon="10.4404081"><ele>0.6666666666666666</ele><time>2026-05-03T06:25:06.141Z</time></trkpt><trkpt lat="43.6582715" lon="10.4402794"><ele>0.3333333333333333</ele><time>2026-05-03T06:25:07.141Z</time></trkpt><trkpt lat="43.6584705" lon="10.4401526"><ele>0.0</ele><time>2026-05-03T06:25:08.141Z</time></trkpt><trkpt lat="43.6586686" lon="10.4400259"><ele>-0.6666666666666666</ele><time>2026-05-03T06:25:09.141Z</time></trkpt><trkpt lat="43.6588668" lon="10.4398993"><ele>-1.3333333333333333</ele><time>2026-05-03T06:25:10.14Z</time></trkpt><trkpt lat="43.6590658" lon="10.4397743"><ele>-2.0</ele><time>2026-05-03T06:25:11.14Z</time></trkpt><trkpt lat="43.6592644" lon="10.4396509"><ele>-1.0</ele><time>2026-05-03T06:25:12.14Z</time></trkpt><trkpt lat="43.6594638" lon="10.4395257"><ele>0.0</ele><time>2026-05-03T06:25:13.14Z</time></trkpt><trkpt lat="43.659662" lon="10.4393991"><ele>1.0</ele><time>2026-05-03T06:25:14.14Z</time></trkpt><trkpt lat="43.6598606" lon="10.439273"><ele>1.0</ele><time>2026-05-03T06:25:15.14Z</time></trkpt><trkpt lat="43.6600577" lon="10.4391475"><ele>1.0</ele><time>2026-05-03T06:25:16.141Z</time></trkpt><trkpt lat="43.6602469" lon="10.439028"><ele>1.0</ele><time>2026-05-03T06:25:17.141Z</time></trkpt><trkpt lat="43.6604332" lon="10.4389091"><ele>1.0</ele><time>2026-05-03T06:25:18.141Z</time></trkpt><trkpt lat="43.6606167" lon="10.4387897"><ele>1.0</ele><time>2026-05-03T06:25:19.14Z</time></trkpt><trkpt lat="43.6607941" lon="10.4386753"><ele>1.0</ele><time>2026-05-03T06:25:20.14Z</time></trkpt><trkpt lat="43.6609656" lon="10.4385663"><ele>0.6666666666666666</ele><time>2026-05-03T06:25:21.14Z</time></trkpt><trkpt lat="43.6611376" lon="10.4384573"><ele>0.3333333333333333</ele><time>2026-05-03T06:25:22.141Z</time></trkpt><trkpt lat="43.6613108" lon="10.4383496"><ele>0.0</ele><time>2026-05-03T06:25:23.14Z</time></trkpt><trkpt lat="43.6614844" lon="10.438243"><ele>0.0</ele><time>2026-05-03T06:25:24.141Z</time></trkpt><trkpt lat="43.6616603" lon="10.4381291"><ele>0.0</ele><time>2026-05-03T06:25:25.141Z</time></trkpt><trkpt lat="43.6618411" lon="10.4380152"><ele>0.0</ele><time>2026-05-03T06:25:26.14Z</time></trkpt><trkpt lat="43.6620297" lon="10.4378948"><ele>0.0</ele><time>2026-05-03T06:25:27.141Z</time></trkpt><trkpt lat="43.6622234" lon="10.4377704"><ele>0.0</ele><time>2026-05-03T06:25:28.141Z</time></trkpt><trkpt lat="43.662424" lon="10.4376464"><ele>0.0</ele><time>2026-05-03T06:25:29.14Z</time></trkpt><trkpt lat="43.6626257" lon="10.4375203"><ele>0.0</ele><time>2026-05-03T06:25:30.14Z</time></trkpt><trkpt lat="43.662829" lon="10.437393"><ele>0.0</ele><time>2026-05-03T06:25:31.14Z</time></trkpt><trkpt lat="43.663034" lon="10.4372657"><ele>0.0</ele><time>2026-05-03T06:25:32.141Z</time></trkpt><trkpt lat="43.6632432" lon="10.4371302"><ele>0.0</ele><time>2026-05-03T06:25:33.14Z</time></trkpt><trkpt lat="43.6634596" lon="10.4369912"><ele>0.0</ele><time>2026-05-03T06:25:34.14Z</time></trkpt><trkpt lat="43.6636679" lon="10.4368582"><ele>0.0</ele><time>2026-05-03T06:25:35.14Z</time></trkpt><trkpt lat="43.6638686" lon="10.4367307"><ele>0.0</ele><time>2026-05-03T06:25:36.14Z</time></trkpt><trkpt lat="43.6640694" lon="10.4366048"><ele>0.0</ele><time>2026-05-03T06:25:37.14Z</time></trkpt><trkpt lat="43.6642683" lon="10.4364799"><ele>0.0</ele><time>2026-05-03T06:25:38.141Z</time></trkpt><trkpt lat="43.6644665" lon="10.436354"><ele>0.0</ele><time>2026-05-03T06:25:39.14Z</time></trkpt><trkpt lat="43.6646634" lon="10.4362286"><ele>0.0</ele><time>2026-05-03T06:25:40.14Z</time></trkpt><trkpt lat="43.6648609" lon="10.436102"><ele>0.0</ele><time>2026-05-03T06:25:41.141Z</time></trkpt><trkpt lat="43.6650607" lon="10.4359734"><ele>0.0</ele><time>2026-05-03T06:25:42.14Z</time></trkpt><trkpt lat="43.6652662" lon="10.4358429"><ele>0.0</ele><time>2026-05-03T06:25:43.14Z</time></trkpt><trkpt lat="43.6654753" lon="10.4357129"><ele>0.5</ele><time>2026-05-03T06:25:44.14Z</time></trkpt><trkpt lat="43.6656858" lon="10.4355821"><ele>1.0</ele><time>2026-05-03T06:25:45.14Z</time></trkpt><trkpt lat="43.6658955" lon="10.4354497"><ele>1.0</ele><time>2026-05-03T06:25:46.141Z</time></trkpt><trkpt lat="43.6661049" lon="10.4353167"><ele>1.0</ele><time>2026-05-03T06:25:47.141Z</time></trkpt><trkpt lat="43.666316" lon="10.4351809"><ele>1.0</ele><time>2026-05-03T06:25:48.141Z</time></trkpt><trkpt lat="43.6665263" lon="10.4350469"><ele>1.0</ele><time>2026-05-03T06:25:49.14Z</time></trkpt><trkpt lat="43.6667352" lon="10.4349129"><ele>1.0</ele><time>2026-05-03T06:25:50.141Z</time></trkpt><trkpt lat="43.6669399" lon="10.4347843"><ele>1.0</ele><time>2026-05-03T06:25:51.141Z</time></trkpt><trkpt lat="43.6671463" lon="10.4346592"><ele>2.0</ele><time>2026-05-03T06:25:52.14Z</time></trkpt><trkpt lat="43.6673536" lon="10.4345401"><ele>3.0</ele><time>2026-05-03T06:25:53.141Z</time></trkpt><trkpt lat="43.6675643" lon="10.4344263"><ele>3.0</ele><time>2026-05-03T06:25:54.14Z</time></trkpt><trkpt lat="43.6677632" lon="10.4343212"><ele>3.0</ele><time>2026-05-03T06:25:55.141Z</time></trkpt><trkpt lat="43.6679336" lon="10.4342405"><ele>3.0</ele><time>2026-05-03T06:25:56.141Z</time></trkpt><trkpt lat="43.6680872" lon="10.4341707"><ele>2.6</ele><time>2026-05-03T06:25:57.141Z</time></trkpt><trkpt lat="43.6682179" lon="10.4341236"><ele>2.1999999999999997</ele><time>2026-05-03T06:25:58.141Z</time></trkpt><trkpt lat="43.6683295" lon="10.4341094"><ele>1.8</ele><time>2026-05-03T06:25:59.141Z</time></trkpt><trkpt lat="43.6684289" lon="10.4341224"><ele>1.4</ele><time>2026-05-03T06:26:00.141Z</time></trkpt><trkpt lat="43.6685233" lon="10.434162"><ele>1.0</ele><time>2026-05-03T06:26:01.14Z</time></trkpt><trkpt lat="43.6686064" lon="10.4342105"><ele>1.0</ele><time>2026-05-03T06:26:02.141Z</time></trkpt><trkpt lat="43.6686797" lon="10.4342302"><ele>1.0</ele><time>2026-05-03T06:26:03.14Z</time></trkpt><trkpt lat="43.6687912" lon="10.4341342"><ele>1.0</ele><time>2026-05-03T06:26:05.14Z</time></trkpt><trkpt lat="43.6688279" lon="10.4340411"><ele>1.0</ele><time>2026-05-03T06:26:06.14Z</time></trkpt><trkpt lat="43.6688663" lon="10.4339376"><ele>1.0</ele><time>2026-05-03T06:26:07.141Z</time></trkpt><trkpt lat="43.6689358" lon="10.4338453"><ele>0.75</ele><time>2026-05-03T06:26:08.14Z</time></trkpt><trkpt lat="43.6690369" lon="10.4337685"><ele>0.5</ele><time>2026-05-03T06:26:09.141Z</time></trkpt><trkpt lat="43.6691651" lon="10.4337038"><ele>0.25</ele><time>2026-05-03T06:26:10.14Z</time></trkpt><trkpt lat="43.6693172" lon="10.4336419"><ele>0.0</ele><time>2026-05-03T06:26:11.141Z</time></trkpt><trkpt lat="43.6694835" lon="10.4335724"><ele>0.0</ele><time>2026-05-03T06:26:12.14Z</time></trkpt><trkpt lat="43.6696572" lon="10.4334974"><ele>0.0</ele><time>2026-05-03T06:26:13.141Z</time></trkpt><trkpt lat="43.6698367" lon="10.4334239"><ele>0.0</ele><time>2026-05-03T06:26:14.14Z</time></trkpt><trkpt lat="43.670021" lon="10.4333587"><ele>0.0</ele><time>2026-05-03T06:26:15.141Z</time></trkpt><trkpt lat="43.6702054" lon="10.4333013"><ele>0.0</ele><time>2026-05-03T06:26:16.14Z</time></trkpt><trkpt lat="43.6703913" lon="10.4332491"><ele>0.0</ele><time>2026-05-03T06:26:17.141Z</time></trkpt><trkpt lat="43.6705778" lon="10.4331973"><ele>0.0</ele><time>2026-05-03T06:26:18.141Z</time></trkpt><trkpt lat="43.6707655" lon="10.4331472"><ele>0.0</ele><time>2026-05-03T06:26:19.14Z</time></trkpt><trkpt lat="43.6709533" lon="10.4330985"><ele>0.0</ele><time>2026-05-03T06:26:20.141Z</time></trkpt><trkpt lat="43.6711365" lon="10.4330491"><ele>0.0</ele><time>2026-05-03T06:26:21.141Z</time></trkpt><trkpt lat="43.6713182" lon="10.4329951"><ele>0.0</ele><time>2026-05-03T06:26:22.141Z</time></trkpt><trkpt lat="43.6715017" lon="10.4329364"><ele>0.0</ele><time>2026-05-03T06:26:23.139Z</time></trkpt><trkpt lat="43.671686" lon="10.43287"><ele>0.0</ele><time>2026-05-03T06:26:24.14Z</time></trkpt><trkpt lat="43.6718714" lon="10.4327967"><ele>0.0</ele><time>2026-05-03T06:26:25.141Z</time></trkpt><trkpt lat="43.672056" lon="10.4327165"><ele>0.0</ele><time>2026-05-03T06:26:26.141Z</time></trkpt><trkpt lat="43.6722401" lon="10.432627"><ele>0.0</ele><time>2026-05-03T06:26:27.141Z</time></trkpt><trkpt lat="43.6724275" lon="10.4325293"><ele>0.0</ele><time>2026-05-03T06:26:28.14Z</time></trkpt><trkpt lat="43.6726175" lon="10.4324246"><ele>0.0</ele><time>2026-05-03T06:26:29.14Z</time></trkpt><trkpt lat="43.6728105" lon="10.4323164"><ele>0.0</ele><time>2026-05-03T06:26:30.14Z</time></trkpt><trkpt lat="43.6730004" lon="10.4322025"><ele>0.0</ele><time>2026-05-03T06:26:31.141Z</time></trkpt><trkpt lat="43.6731854" lon="10.4320885"><ele>0.0</ele><time>2026-05-03T06:26:32.141Z</time></trkpt><trkpt lat="43.6733635" lon="10.4319749"><ele>0.0</ele><time>2026-05-03T06:26:33.141Z</time></trkpt><trkpt lat="43.673542" lon="10.4318627"><ele>0.0</ele><time>2026-05-03T06:26:34.141Z</time></trkpt><trkpt lat="43.6737213" lon="10.4317496"><ele>0.0</ele><time>2026-05-03T06:26:35.141Z</time></trkpt><trkpt lat="43.6739026" lon="10.4316351"><ele>0.0</ele><time>2026-05-03T06:26:36.14Z</time></trkpt><trkpt lat="43.6740825" lon="10.4315199"><ele>0.0</ele><time>2026-05-03T06:26:37.14Z</time></trkpt><trkpt lat="43.6742545" lon="10.4314105"><ele>0.0</ele><time>2026-05-03T06:26:38.14Z</time></trkpt><trkpt lat="43.6744076" lon="10.4313124"><ele>0.2</ele><time>2026-05-03T06:26:39.14Z</time></trkpt><trkpt lat="43.674537" lon="10.4312329"><ele>0.4</ele><time>2026-05-03T06:26:40.14Z</time></trkpt><trkpt lat="43.6746421" lon="10.4311673"><ele>0.6000000000000001</ele><time>2026-05-03T06:26:41.141Z</time></trkpt><trkpt lat="43.6747372" lon="10.4311196"><ele>0.8</ele><time>2026-05-03T06:26:42.141Z</time></trkpt><trkpt lat="43.6748239" lon="10.4310819"><ele>1.0</ele><time>2026-05-03T06:26:43.141Z</time></trkpt><trkpt lat="43.6749063" lon="10.4310628"><ele>0.9999999999999999</ele><time>2026-05-03T06:26:44.141Z</time></trkpt><trkpt lat="43.6749836" lon="10.4310602"><ele>1.0</ele><time>2026-05-03T06:26:45.14Z</time></trkpt><trkpt lat="43.6750579" lon="10.4310644"><ele>1.0</ele><time>2026-05-03T06:26:46.141Z</time></trkpt><trkpt lat="43.6751217" lon="10.4310599"><ele>1.0</ele><time>2026-05-03T06:26:47.141Z</time></trkpt><trkpt lat="43.6752139" lon="10.430975"><ele>0.9999999999999999</ele><time>2026-05-03T06:26:49.141Z</time></trkpt><trkpt lat="43.6752454" lon="10.4308996"><ele>1.0</ele><time>2026-05-03T06:26:50.14Z</time></trkpt><trkpt lat="43.6752816" lon="10.4308121"><ele>1.1666666666666665</ele><time>2026-05-03T06:26:51.14Z</time></trkpt><trkpt lat="43.6753417" lon="10.4307357"><ele>1.3333333333333333</ele><time>2026-05-03T06:26:52.141Z</time></trkpt><trkpt lat="43.6754097" lon="10.4306734"><ele>1.5</ele><time>2026-05-03T06:26:53.14Z</time></trkpt><trkpt lat="43.6754757" lon="10.4306231"><ele>1.6666666666666665</ele><time>2026-05-03T06:26:54.141Z</time></trkpt><trkpt lat="43.6755404" lon="10.4305779"><ele>1.8333333333333333</ele><time>2026-05-03T06:26:55.141Z</time></trkpt><trkpt lat="43.6756028" lon="10.4305345"><ele>2.0</ele><time>2026-05-03T06:26:56.141Z</time></trkpt><trkpt lat="43.675667" lon="10.4304937"><ele>1.9999999999999998</ele><time>2026-05-03T06:26:57.141Z</time></trkpt><trkpt lat="43.6757285" lon="10.4304544"><ele>2.0</ele><time>2026-05-03T06:26:58.141Z</time></trkpt><trkpt lat="43.6757868" lon="10.4304166"><ele>2.0</ele><time>2026-05-03T06:26:59.141Z</time></trkpt><trkpt lat="43.6758509" lon="10.4303734"><ele>2.0</ele><time>2026-05-03T06:27:00.141Z</time></trkpt><trkpt lat="43.675919" lon="10.4303252"><ele>1.9999999999999998</ele><time>2026-05-03T06:27:01.139Z</time></trkpt><trkpt lat="43.6759909" lon="10.4302695"><ele>2.0</ele><time>2026-05-03T06:27:02.141Z</time></trkpt><trkpt lat="43.6760673" lon="10.430211"><ele>1.8333333333333333</ele><time>2026-05-03T06:27:03.141Z</time></trkpt><trkpt lat="43.676148" lon="10.4301486"><ele>1.6666666666666665</ele><time>2026-05-03T06:27:04.14Z</time></trkpt><trkpt lat="43.6762265" lon="10.4300928"><ele>1.5</ele><time>2026-05-03T06:27:05.14Z</time></trkpt><trkpt lat="43.6763004" lon="10.4300356"><ele>1.3333333333333333</ele><time>2026-05-03T06:27:06.14Z</time></trkpt><trkpt lat="43.6763702" lon="10.4299804"><ele>1.1666666666666665</ele><time>2026-05-03T06:27:07.14Z</time></trkpt><trkpt lat="43.6764345" lon="10.429928"><ele>1.0</ele><time>2026-05-03T06:27:08.14Z</time></trkpt><trkpt lat="43.6764911" lon="10.4298686"><ele>0.9999999999999999</ele><time>2026-05-03T06:27:09.14Z</time></trkpt><trkpt lat="43.676554" lon="10.4297641"><ele>1.0</ele><time>2026-05-03T06:27:11.14Z</time></trkpt><trkpt lat="43.6765409" lon="10.4296776"><ele>1.0</ele><time>2026-05-03T06:27:13.141Z</time></trkpt><trkpt lat="43.6764575" lon="10.4296379"><ele>1.0</ele><time>2026-05-03T06:27:15.141Z</time></trkpt><trkpt lat="43.6763555" lon="10.4297052"><ele>0.9999999999999999</ele><time>2026-05-03T06:27:17.14Z</time></trkpt><trkpt lat="43.6763067" lon="10.4297646"><ele>1.0</ele><time>2026-05-03T06:27:18.141Z</time></trkpt><trkpt lat="43.6762522" lon="10.4298826"><ele>0.9999999999999999</ele><time>2026-05-03T06:27:20.141Z</time></trkpt><trkpt lat="43.676205" lon="10.4299991"><ele>1.0</ele><time>2026-05-03T06:27:23.14Z</time></trkpt><trkpt lat="43.6761297" lon="10.4301012"><ele>1.0</ele><time>2026-05-03T06:27:25.14Z</time></trkpt><trkpt lat="43.6760683" lon="10.4301448"><ele>1.0</ele><time>2026-05-03T06:27:26.14Z</time></trkpt><trkpt lat="43.6760016" lon="10.4301907"><ele>0.9999999999999999</ele><time>2026-05-03T06:27:27.14Z</time></trkpt><trkpt lat="43.6759415" lon="10.4302328"><ele>1.0</ele><time>2026-05-03T06:27:28.141Z</time></trkpt><trkpt lat="43.6758416" lon="10.4302889"><ele>1.1666666666666665</ele><time>2026-05-03T06:27:30.14Z</time></trkpt><trkpt lat="43.675762" lon="10.4302828"><ele>1.3333333333333333</ele><time>2026-05-03T06:27:32.141Z</time></trkpt><trkpt lat="43.6757013" lon="10.4302553"><ele>1.5</ele><time>2026-05-03T06:27:34.139Z</time></trkpt><trkpt lat="43.6756175" lon="10.4302124"><ele>1.6666666666666665</ele><time>2026-05-03T06:27:37.141Z</time></trkpt><trkpt lat="43.6755425" lon="10.4301687"><ele>1.8333333333333333</ele><time>2026-05-03T06:27:39.14Z</time></trkpt><trkpt lat="43.6754478" lon="10.4301318"><ele>2.0</ele><time>2026-05-03T06:27:41.14Z</time></trkpt><trkpt lat="43.6753772" lon="10.4301053"><ele>2.0</ele><time>2026-05-03T06:27:43.14Z</time></trkpt><trkpt lat="43.6753095" lon="10.4301253"><ele>1.9999999999999998</ele><time>2026-05-03T06:27:46.141Z</time></trkpt><trkpt lat="43.6752393" lon="10.4301384"><ele>2.0</ele><time>2026-05-03T06:32:20.129Z</time></trkpt><trkpt lat="43.6751525" lon="10.4301813"><ele>2.0</ele><time>2026-05-03T06:32:23.13Z</time></trkpt><trkpt lat="43.6750914" lon="10.430209"><ele>1.9999999999999998</ele><time>2026-05-03T06:32:25.13Z</time></trkpt><trkpt lat="43.6750766" lon="10.4303084"><ele>2.0</ele><time>2026-05-03T06:32:28.129Z</time></trkpt><trkpt lat="43.6751235" lon="10.4303832"><ele>2.0</ele><time>2026-05-03T06:32:31.13Z</time></trkpt><trkpt lat="43.6752009" lon="10.4304458"><ele>2.0</ele><time>2026-05-03T06:33:05.13Z</time></trkpt><trkpt lat="43.675248" lon="10.4305038"><ele>1.9999999999999998</ele><time>2026-05-03T06:33:08.13Z</time></trkpt><trkpt lat="43.675302" lon="10.4305631"><ele>2.0</ele><time>2026-05-03T06:33:23.129Z</time></trkpt><trkpt lat="43.6753702" lon="10.4305518"><ele>2.0</ele><time>2026-05-03T06:33:26.129Z</time></trkpt><trkpt lat="43.6754649" lon="10.4305276"><ele>1.9999999999999998</ele><time>2026-05-03T06:33:28.129Z</time></trkpt><trkpt lat="43.6755277" lon="10.4305054"><ele>2.0</ele><time>2026-05-03T06:33:29.13Z</time></trkpt><trkpt lat="43.6756085" lon="10.4304705"><ele>2.0</ele><time>2026-05-03T06:33:30.13Z</time></trkpt><trkpt lat="43.6756995" lon="10.4304251"><ele>2.0</ele><time>2026-05-03T06:33:31.13Z</time></trkpt><trkpt lat="43.6758003" lon="10.4303691"><ele>2.0</ele><time>2026-05-03T06:33:32.129Z</time></trkpt><trkpt lat="43.6759019" lon="10.4303039"><ele>2.0</ele><time>2026-05-03T06:33:33.129Z</time></trkpt><trkpt lat="43.6760009" lon="10.4302333"><ele>2.0</ele><time>2026-05-03T06:33:34.13Z</time></trkpt><trkpt lat="43.6761094" lon="10.4301638"><ele>1.75</ele><time>2026-05-03T06:33:35.129Z</time></trkpt><trkpt lat="43.6762198" lon="10.4300899"><ele>1.5</ele><time>2026-05-03T06:33:36.13Z</time></trkpt><trkpt lat="43.676332" lon="10.4300135"><ele>1.25</ele><time>2026-05-03T06:33:37.13Z</time></trkpt><trkpt lat="43.6764401" lon="10.4299385"><ele>1.0</ele><time>2026-05-03T06:33:38.129Z</time></trkpt><trkpt lat="43.6765501" lon="10.4298595"><ele>1.0</ele><time>2026-05-03T06:33:39.13Z</time></trkpt><trkpt lat="43.6766599" lon="10.4297812"><ele>1.0</ele><time>2026-05-03T06:33:40.129Z</time></trkpt><trkpt lat="43.6767708" lon="10.4297001"><ele>1.0</ele><time>2026-05-03T06:33:41.13Z</time></trkpt><trkpt lat="43.6768861" lon="10.4296174"><ele>1.0</ele><time>2026-05-03T06:33:42.13Z</time></trkpt><trkpt lat="43.677005" lon="10.4295292"><ele>1.0</ele><time>2026-05-03T06:33:43.129Z</time></trkpt><trkpt lat="43.6771286" lon="10.4294401"><ele>1.0</ele><time>2026-05-03T06:33:44.13Z</time></trkpt><trkpt lat="43.6772564" lon="10.4293481"><ele>1.0</ele><time>2026-05-03T06:33:45.13Z</time></trkpt><trkpt lat="43.6773865" lon="10.4292566"><ele>1.0</ele><time>2026-05-03T06:33:46.129Z</time></trkpt><trkpt lat="43.6775165" lon="10.4291634"><ele>1.0</ele><time>2026-05-03T06:33:47.129Z</time></trkpt><trkpt lat="43.6776459" lon="10.4290706"><ele>1.0</ele><time>2026-05-03T06:33:48.13Z</time></trkpt><trkpt lat="43.6777759" lon="10.4289762"><ele>1.0</ele><time>2026-05-03T06:33:49.13Z</time></trkpt><trkpt lat="43.6779076" lon="10.4288804"><ele>1.0</ele><time>2026-05-03T06:33:50.129Z</time></trkpt><trkpt lat="43.678037" lon="10.4287868"><ele>1.0</ele><time>2026-05-03T06:33:51.129Z</time></trkpt><trkpt lat="43.678158" lon="10.4286976"><ele>1.0</ele><time>2026-05-03T06:33:52.13Z</time></trkpt><trkpt lat="43.67827" lon="10.4286148"><ele>1.0</ele><time>2026-05-03T06:33:53.13Z</time></trkpt><trkpt lat="43.6783773" lon="10.428536"><ele>1.0</ele><time>2026-05-03T06:33:54.129Z</time></trkpt><trkpt lat="43.6784815" lon="10.4284619"><ele>1.0</ele><time>2026-05-03T06:33:55.129Z</time></trkpt><trkpt lat="43.6785887" lon="10.4283912"><ele>1.0</ele><time>2026-05-03T06:33:56.13Z</time></trkpt><trkpt lat="43.6787" lon="10.4283259"><ele>1.0</ele><time>2026-05-03T06:33:57.129Z</time></trkpt><trkpt lat="43.6788136" lon="10.4282681"><ele>1.0</ele><time>2026-05-03T06:33:58.13Z</time></trkpt><trkpt lat="43.6789234" lon="10.4282118"><ele>1.4</ele><time>2026-05-03T06:33:59.129Z</time></trkpt><trkpt lat="43.6790285" lon="10.4281701"><ele>1.8</ele><time>2026-05-03T06:34:00.129Z</time></trkpt><trkpt lat="43.6791294" lon="10.4281439"><ele>2.1999999999999997</ele><time>2026-05-03T06:34:01.13Z</time></trkpt><trkpt lat="43.6792255" lon="10.4281335"><ele>2.6</ele><time>2026-05-03T06:34:02.13Z</time></trkpt><trkpt lat="43.6793182" lon="10.4281291"><ele>3.0</ele><time>2026-05-03T06:34:03.13Z</time></trkpt><trkpt lat="43.679406" lon="10.4281383"><ele>2.8</ele><time>2026-05-03T06:34:04.129Z</time></trkpt><trkpt lat="43.6794929" lon="10.428161"><ele>2.5999999999999996</ele><time>2026-05-03T06:34:05.129Z</time></trkpt><trkpt lat="43.6795818" lon="10.4281913"><ele>2.4000000000000004</ele><time>2026-05-03T06:34:06.129Z</time></trkpt><trkpt lat="43.6796775" lon="10.4282231"><ele>2.2</ele><time>2026-05-03T06:34:07.129Z</time></trkpt><trkpt lat="43.6797831" lon="10.4282525"><ele>2.0</ele><time>2026-05-03T06:34:08.13Z</time></trkpt><trkpt lat="43.6798958" lon="10.4282836"><ele>2.0</ele><time>2026-05-03T06:34:09.129Z</time></trkpt><trkpt lat="43.6800147" lon="10.4283237"><ele>2.0</ele><time>2026-05-03T06:34:10.13Z</time></trkpt><trkpt lat="43.680137" lon="10.4283784"><ele>2.0</ele><time>2026-05-03T06:34:11.129Z</time></trkpt><trkpt lat="43.6802643" lon="10.428443"><ele>2.0</ele><time>2026-05-03T06:34:12.13Z</time></trkpt><trkpt lat="43.6803962" lon="10.4285184"><ele>2.333333333333333</ele><time>2026-05-03T06:34:13.13Z</time></trkpt><trkpt lat="43.6805345" lon="10.4285996"><ele>2.6666666666666665</ele><time>2026-05-03T06:34:14.129Z</time></trkpt><trkpt lat="43.6806792" lon="10.4286849"><ele>3.0</ele><time>2026-05-03T06:34:15.13Z</time></trkpt><trkpt lat="43.6808189" lon="10.4287684"><ele>3.0</ele><time>2026-05-03T06:34:16.13Z</time></trkpt><trkpt lat="43.6809549" lon="10.4288488"><ele>3.0</ele><time>2026-05-03T06:34:17.129Z</time></trkpt><trkpt lat="43.6810932" lon="10.4289292"><ele>3.0</ele><time>2026-05-03T06:34:18.13Z</time></trkpt><trkpt lat="43.6812329" lon="10.4290117"><ele>2.75</ele><time>2026-05-03T06:34:19.13Z</time></trkpt><trkpt lat="43.6813735" lon="10.4290945"><ele>2.5</ele><time>2026-05-03T06:34:20.129Z</time></trkpt><trkpt lat="43.6815098" lon="10.4291739"><ele>2.25</ele><time>2026-05-03T06:34:21.129Z</time></trkpt><trkpt lat="43.6816409" lon="10.4292522"><ele>2.0</ele><time>2026-05-03T06:34:22.129Z</time></trkpt><trkpt lat="43.681776" lon="10.429331"><ele>2.0</ele><time>2026-05-03T06:34:23.129Z</time></trkpt><trkpt lat="43.681905" lon="10.4294058"><ele>2.0</ele><time>2026-05-03T06:34:24.129Z</time></trkpt><trkpt lat="43.6820344" lon="10.4294833"><ele>2.0</ele><time>2026-05-03T06:34:25.129Z</time></trkpt><trkpt lat="43.682167" lon="10.4295613"><ele>2.0</ele><time>2026-05-03T06:34:26.129Z</time></trkpt><trkpt lat="43.6823027" lon="10.4296409"><ele>2.0</ele><time>2026-05-03T06:34:27.129Z</time></trkpt><trkpt lat="43.6824383" lon="10.4297218"><ele>2.0</ele><time>2026-05-03T06:34:28.129Z</time></trkpt><trkpt lat="43.6825764" lon="10.4298047"><ele>2.0</ele><time>2026-05-03T06:34:29.13Z</time></trkpt><trkpt lat="43.6827178" lon="10.4298884"><ele>2.0</ele><time>2026-05-03T06:34:30.129Z</time></trkpt><trkpt lat="43.6828616" lon="10.4299749"><ele>2.0</ele><time>2026-05-03T06:34:31.13Z</time></trkpt><trkpt lat="43.6830053" lon="10.4300644"><ele>2.0</ele><time>2026-05-03T06:34:32.13Z</time></trkpt><trkpt lat="43.6831527" lon="10.4301505"><ele>2.0</ele><time>2026-05-03T06:34:33.129Z</time></trkpt><trkpt lat="43.6832949" lon="10.4302318"><ele>2.0</ele><time>2026-05-03T06:34:34.129Z</time></trkpt><trkpt lat="43.6834269" lon="10.4303093"><ele>2.0</ele><time>2026-05-03T06:34:35.129Z</time></trkpt><trkpt lat="43.6835473" lon="10.4303822"><ele>2.0</ele><time>2026-05-03T06:34:36.129Z</time></trkpt><trkpt lat="43.6836566" lon="10.4304479"><ele>1.9999999999999998</ele><time>2026-05-03T06:34:37.13Z</time></trkpt><trkpt lat="43.6837492" lon="10.4305005"><ele>2.0</ele><time>2026-05-03T06:34:38.13Z</time></trkpt><trkpt lat="43.6838337" lon="10.4305515"><ele>2.0</ele><time>2026-05-03T06:34:39.13Z</time></trkpt><trkpt lat="43.6839087" lon="10.4306077"><ele>2.0</ele><time>2026-05-03T06:34:40.13Z</time></trkpt><trkpt lat="43.6839706" lon="10.4306773"><ele>1.9999999999999998</ele><time>2026-05-03T06:34:41.13Z</time></trkpt><trkpt lat="43.6840259" lon="10.43076"><ele>2.0</ele><time>2026-05-03T06:34:42.129Z</time></trkpt><trkpt lat="43.6840708" lon="10.4308576"><ele>1.9999999999999998</ele><time>2026-05-03T06:34:43.13Z</time></trkpt><trkpt lat="43.6841098" lon="10.4309486"><ele>2.0</ele><time>2026-05-03T06:34:44.129Z</time></trkpt><trkpt lat="43.6841592" lon="10.4310203"><ele>2.0</ele><time>2026-05-03T06:34:45.13Z</time></trkpt><trkpt lat="43.684222" lon="10.4310714"><ele>2.0</ele><time>2026-05-03T06:34:46.13Z</time></trkpt><trkpt lat="43.6842933" lon="10.4310963"><ele>1.9999999999999998</ele><time>2026-05-03T06:34:47.129Z</time></trkpt><trkpt lat="43.6843694" lon="10.4310851"><ele>2.0</ele><time>2026-05-03T06:34:48.13Z</time></trkpt><trkpt lat="43.6844476" lon="10.4310603"><ele>2.0</ele><time>2026-05-03T06:34:49.13Z</time></trkpt><trkpt lat="43.6845352" lon="10.4310625"><ele>2.0</ele><time>2026-05-03T06:34:50.13Z</time></trkpt><trkpt lat="43.6846307" lon="10.4310915"><ele>2.0</ele><time>2026-05-03T06:34:51.129Z</time></trkpt><trkpt lat="43.6847308" lon="10.4311439"><ele>2.0</ele><time>2026-05-03T06:34:52.13Z</time></trkpt><trkpt lat="43.6848348" lon="10.431218"><ele>2.0</ele><time>2026-05-03T06:34:53.13Z</time></trkpt><trkpt lat="43.6849506" lon="10.4312983"><ele>2.25</ele><time>2026-05-03T06:34:54.13Z</time></trkpt><trkpt lat="43.685074" lon="10.4313838"><ele>2.5</ele><time>2026-05-03T06:34:55.13Z</time></trkpt><trkpt lat="43.6852028" lon="10.4314719"><ele>2.75</ele><time>2026-05-03T06:34:56.13Z</time></trkpt><trkpt lat="43.6853371" lon="10.4315645"><ele>3.0</ele><time>2026-05-03T06:34:57.129Z</time></trkpt><trkpt lat="43.6854756" lon="10.4316574"><ele>1.6666666666666667</ele><time>2026-05-03T06:34:58.129Z</time></trkpt><trkpt lat="43.6856159" lon="10.4317534"><ele>0.33333333333333337</ele><time>2026-05-03T06:34:59.13Z</time></trkpt><trkpt lat="43.6857565" lon="10.4318495"><ele>-1.0</ele><time>2026-05-03T06:35:00.129Z</time></trkpt><trkpt lat="43.6858919" lon="10.431942"><ele>-1.0</ele><time>2026-05-03T06:35:01.129Z</time></trkpt><trkpt lat="43.6860226" lon="10.4320301"><ele>-1.0</ele><time>2026-05-03T06:35:02.13Z</time></trkpt><trkpt lat="43.6861477" lon="10.432114"><ele>-1.0</ele><time>2026-05-03T06:35:03.13Z</time></trkpt><trkpt lat="43.6862661" lon="10.4321941"><ele>-1.0</ele><time>2026-05-03T06:35:04.13Z</time></trkpt><trkpt lat="43.6863781" lon="10.4322684"><ele>-0.6000000000000001</ele><time>2026-05-03T06:35:05.13Z</time></trkpt><trkpt lat="43.6864856" lon="10.4323417"><ele>-0.20000000000000007</ele><time>2026-05-03T06:35:06.13Z</time></trkpt><trkpt lat="43.6865885" lon="10.432413"><ele>0.20000000000000007</ele><time>2026-05-03T06:35:07.129Z</time></trkpt><trkpt lat="43.686686" lon="10.432477"><ele>0.6000000000000001</ele><time>2026-05-03T06:35:08.13Z</time></trkpt><trkpt lat="43.6867695" lon="10.4325341"><ele>1.0</ele><time>2026-05-03T06:35:09.13Z</time></trkpt><trkpt lat="43.6868412" lon="10.432584"><ele>1.0</ele><time>2026-05-03T06:35:10.13Z</time></trkpt><trkpt lat="43.6869018" lon="10.4326287"><ele>0.9999999999999999</ele><time>2026-05-03T06:35:11.13Z</time></trkpt><trkpt lat="43.6869563" lon="10.4326783"><ele>1.0</ele><time>2026-05-03T06:35:12.13Z</time></trkpt><trkpt lat="43.687006" lon="10.4327404"><ele>1.0</ele><time>2026-05-03T06:35:13.129Z</time></trkpt><trkpt lat="43.6870549" lon="10.4328118"><ele>0.9999999999999999</ele><time>2026-05-03T06:35:14.13Z</time></trkpt><trkpt lat="43.6871111" lon="10.4328747"><ele>1.0</ele><time>2026-05-03T06:35:15.13Z</time></trkpt><trkpt lat="43.6871701" lon="10.4329208"><ele>1.0</ele><time>2026-05-03T06:35:16.129Z</time></trkpt><trkpt lat="43.6872402" lon="10.4329551"><ele>1.0</ele><time>2026-05-03T06:35:17.13Z</time></trkpt><trkpt lat="43.6873172" lon="10.4329726"><ele>1.0</ele><time>2026-05-03T06:35:18.129Z</time></trkpt><trkpt lat="43.6874019" lon="10.4329909"><ele>1.0</ele><time>2026-05-03T06:35:19.13Z</time></trkpt><trkpt lat="43.6874916" lon="10.4330238"><ele>1.0</ele><time>2026-05-03T06:35:20.129Z</time></trkpt><trkpt lat="43.6875853" lon="10.4330738"><ele>1.0</ele><time>2026-05-03T06:35:21.129Z</time></trkpt><trkpt lat="43.6876912" lon="10.4331393"><ele>1.0</ele><time>2026-05-03T06:35:22.13Z</time></trkpt><trkpt lat="43.6878157" lon="10.4332209"><ele>1.0</ele><time>2026-05-03T06:35:23.129Z</time></trkpt><trkpt lat="43.6879492" lon="10.4333074"><ele>1.0</ele><time>2026-05-03T06:35:24.129Z</time></trkpt><trkpt lat="43.6880927" lon="10.4334019"><ele>1.0</ele><time>2026-05-03T06:35:25.13Z</time></trkpt><trkpt lat="43.6882442" lon="10.4335037"><ele>1.0</ele><time>2026-05-03T06:35:26.13Z</time></trkpt><trkpt lat="43.6883993" lon="10.4336099"><ele>1.0</ele><time>2026-05-03T06:35:27.13Z</time></trkpt><trkpt lat="43.6885551" lon="10.4337169"><ele>1.0</ele><time>2026-05-03T06:35:28.129Z</time></trkpt><trkpt lat="43.6887112" lon="10.4338216"><ele>1.3333333333333333</ele><time>2026-05-03T06:35:29.129Z</time></trkpt><trkpt lat="43.6888587" lon="10.433921"><ele>1.6666666666666665</ele><time>2026-05-03T06:35:30.13Z</time></trkpt><trkpt lat="43.689003" lon="10.4340165"><ele>2.0</ele><time>2026-05-03T06:35:31.129Z</time></trkpt><trkpt lat="43.6891422" lon="10.4341092"><ele>2.0</ele><time>2026-05-03T06:35:32.129Z</time></trkpt><trkpt lat="43.6892755" lon="10.4341995"><ele>2.0</ele><time>2026-05-03T06:35:33.129Z</time></trkpt><trkpt lat="43.6894057" lon="10.434288"><ele>2.0</ele><time>2026-05-03T06:35:34.129Z</time></trkpt><trkpt lat="43.6895384" lon="10.4343753"><ele>2.0</ele><time>2026-05-03T06:35:35.13Z</time></trkpt><trkpt lat="43.6896707" lon="10.4344642"><ele>2.333333333333333</ele><time>2026-05-03T06:35:36.129Z</time></trkpt><trkpt lat="43.6898102" lon="10.4345548"><ele>2.6666666666666665</ele><time>2026-05-03T06:35:37.13Z</time></trkpt><trkpt lat="43.6899489" lon="10.4346404"><ele>3.0</ele><time>2026-05-03T06:35:38.129Z</time></trkpt><trkpt lat="43.6900919" lon="10.434721"><ele>2.3333333333333335</ele><time>2026-05-03T06:35:39.129Z</time></trkpt><trkpt lat="43.6902379" lon="10.4347973"><ele>1.6666666666666665</ele><time>2026-05-03T06:35:40.13Z</time></trkpt><trkpt lat="43.6903858" lon="10.4348745"><ele>1.0</ele><time>2026-05-03T06:35:41.129Z</time></trkpt><trkpt lat="43.6905371" lon="10.4349489"><ele>1.0</ele><time>2026-05-03T06:35:42.13Z</time></trkpt><trkpt lat="43.690692" lon="10.4350217"><ele>1.0</ele><time>2026-05-03T06:35:43.13Z</time></trkpt><trkpt lat="43.6908498" lon="10.4350857"><ele>1.0</ele><time>2026-05-03T06:35:44.129Z</time></trkpt><trkpt lat="43.6910038" lon="10.4351285"><ele>1.3333333333333333</ele><time>2026-05-03T06:35:45.13Z</time></trkpt><trkpt lat="43.6911601" lon="10.4351636"><ele>1.6666666666666665</ele><time>2026-05-03T06:35:46.129Z</time></trkpt><trkpt lat="43.6913188" lon="10.4351788"><ele>2.0</ele><time>2026-05-03T06:35:47.13Z</time></trkpt><trkpt lat="43.6914776" lon="10.4351825"><ele>2.0</ele><time>2026-05-03T06:35:48.13Z</time></trkpt><trkpt lat="43.6916376" lon="10.4351764"><ele>2.0</ele><time>2026-05-03T06:35:49.129Z</time></trkpt><trkpt lat="43.6917985" lon="10.4351597"><ele>2.0</ele><time>2026-05-03T06:35:50.129Z</time></trkpt><trkpt lat="43.6919638" lon="10.4351393"><ele>2.0</ele><time>2026-05-03T06:35:51.13Z</time></trkpt><trkpt lat="43.6921358" lon="10.4351243"><ele>2.0</ele><time>2026-05-03T06:35:52.13Z</time></trkpt><trkpt lat="43.6923171" lon="10.4351115"><ele>2.0</ele><time>2026-05-03T06:35:53.13Z</time></trkpt><trkpt lat="43.692513" lon="10.4350977"><ele>2.0</ele><time>2026-05-03T06:35:54.129Z</time></trkpt><trkpt lat="43.6927172" lon="10.4350819"><ele>2.0</ele><time>2026-05-03T06:35:55.129Z</time></trkpt><trkpt lat="43.6929278" lon="10.4350685"><ele>2.0</ele><time>2026-05-03T06:35:56.13Z</time></trkpt><trkpt lat="43.6931387" lon="10.4350561"><ele>2.6666666666666665</ele><time>2026-05-03T06:35:57.129Z</time></trkpt><trkpt lat="43.6933494" lon="10.4350453"><ele>3.333333333333333</ele><time>2026-05-03T06:35:58.13Z</time></trkpt><trkpt lat="43.6935503" lon="10.4350373"><ele>4.0</ele><time>2026-05-03T06:35:59.129Z</time></trkpt><trkpt lat="43.6937465" lon="10.4350283"><ele>4.0</ele><time>2026-05-03T06:36:00.129Z</time></trkpt><trkpt lat="43.6939322" lon="10.4350147"><ele>4.0</ele><time>2026-05-03T06:36:01.13Z</time></trkpt><trkpt lat="43.6941158" lon="10.4350035"><ele>4.0</ele><time>2026-05-03T06:36:02.129Z</time></trkpt><trkpt lat="43.6942982" lon="10.4349978"><ele>4.333333333333333</ele><time>2026-05-03T06:36:03.13Z</time></trkpt><trkpt lat="43.6944788" lon="10.4349968"><ele>4.666666666666667</ele><time>2026-05-03T06:36:04.129Z</time></trkpt><trkpt lat="43.6946595" lon="10.4350001"><ele>5.0</ele><time>2026-05-03T06:36:05.13Z</time></trkpt><trkpt lat="43.6948378" lon="10.4350128"><ele>5.0</ele><time>2026-05-03T06:36:06.129Z</time></trkpt><trkpt lat="43.6950161" lon="10.4350327"><ele>5.0</ele><time>2026-05-03T06:36:07.13Z</time></trkpt><trkpt lat="43.6951955" lon="10.4350624"><ele>5.0</ele><time>2026-05-03T06:36:08.13Z</time></trkpt><trkpt lat="43.6953789" lon="10.4351"><ele>5.333333333333334</ele><time>2026-05-03T06:36:09.13Z</time></trkpt><trkpt lat="43.6955651" lon="10.4351422"><ele>5.666666666666667</ele><time>2026-05-03T06:36:10.13Z</time></trkpt><trkpt lat="43.6957568" lon="10.4351896"><ele>6.0</ele><time>2026-05-03T06:36:11.129Z</time></trkpt><trkpt lat="43.6959494" lon="10.4352443"><ele>6.333333333333334</ele><time>2026-05-03T06:36:12.13Z</time></trkpt><trkpt lat="43.6961431" lon="10.4353071"><ele>6.666666666666667</ele><time>2026-05-03T06:36:13.13Z</time></trkpt><trkpt lat="43.6963235" lon="10.435364"><ele>7.0</ele><time>2026-05-03T06:36:14.129Z</time></trkpt><trkpt lat="43.6964935" lon="10.4354169"><ele>7.0</ele><time>2026-05-03T06:36:15.129Z</time></trkpt><trkpt lat="43.6966457" lon="10.435469"><ele>7.0</ele><time>2026-05-03T06:36:16.13Z</time></trkpt><trkpt lat="43.696778" lon="10.4355143"><ele>7.0</ele><time>2026-05-03T06:36:17.129Z</time></trkpt><trkpt lat="43.6969051" lon="10.4355563"><ele>7.0</ele><time>2026-05-03T06:36:18.13Z</time></trkpt><trkpt lat="43.6970363" lon="10.4355971"><ele>6.5</ele><time>2026-05-03T06:36:19.13Z</time></trkpt><trkpt lat="43.6971723" lon="10.4356403"><ele>6.0</ele><time>2026-05-03T06:36:20.13Z</time></trkpt><trkpt lat="43.6973112" lon="10.4356863"><ele>5.5</ele><time>2026-05-03T06:36:21.129Z</time></trkpt><trkpt lat="43.6974553" lon="10.4357303"><ele>5.0</ele><time>2026-05-03T06:36:22.13Z</time></trkpt><trkpt lat="43.6976027" lon="10.4357755"><ele>4.0</ele><time>2026-05-03T06:36:23.129Z</time></trkpt><trkpt lat="43.6977539" lon="10.4358229"><ele>3.0</ele><time>2026-05-03T06:36:24.13Z</time></trkpt><trkpt lat="43.6979153" lon="10.435874"><ele>2.0</ele><time>2026-05-03T06:36:25.13Z</time></trkpt><trkpt lat="43.6980659" lon="10.4359218"><ele>2.0</ele><time>2026-05-03T06:36:26.13Z</time></trkpt><trkpt lat="43.6982128" lon="10.4359679"><ele>2.0</ele><time>2026-05-03T06:36:27.13Z</time></trkpt><trkpt lat="43.6983547" lon="10.4360133"><ele>2.0</ele><time>2026-05-03T06:36:28.13Z</time></trkpt><trkpt lat="43.6984971" lon="10.4360578"><ele>2.0</ele><time>2026-05-03T06:36:29.129Z</time></trkpt><trkpt lat="43.698642" lon="10.4361008"><ele>3.0</ele><time>2026-05-03T06:36:30.129Z</time></trkpt><trkpt lat="43.6987909" lon="10.4361412"><ele>4.0</ele><time>2026-05-03T06:36:31.13Z</time></trkpt><trkpt lat="43.6989408" lon="10.4361767"><ele>5.0</ele><time>2026-05-03T06:36:32.13Z</time></trkpt><trkpt lat="43.6990872" lon="10.436202"><ele>5.0</ele><time>2026-05-03T06:36:33.13Z</time></trkpt><trkpt lat="43.6992325" lon="10.4362214"><ele>5.0</ele><time>2026-05-03T06:36:34.129Z</time></trkpt><trkpt lat="43.6993732" lon="10.4362376"><ele>5.0</ele><time>2026-05-03T06:36:35.13Z</time></trkpt><trkpt lat="43.6995021" lon="10.4362445"><ele>5.0</ele><time>2026-05-03T06:36:36.13Z</time></trkpt><trkpt lat="43.6996259" lon="10.4362463"><ele>4.8</ele><time>2026-05-03T06:36:37.13Z</time></trkpt><trkpt lat="43.699743" lon="10.4362423"><ele>4.6</ele><time>2026-05-03T06:36:38.13Z</time></trkpt><trkpt lat="43.6998464" lon="10.4362389"><ele>4.4</ele><time>2026-05-03T06:36:39.129Z</time></trkpt><trkpt lat="43.6999418" lon="10.4362347"><ele>4.2</ele><time>2026-05-03T06:36:40.129Z</time></trkpt><trkpt lat="43.7000291" lon="10.4362358"><ele>4.0</ele><time>2026-05-03T06:36:41.129Z</time></trkpt><trkpt lat="43.7001085" lon="10.4362578"><ele>3.9999999999999996</ele><time>2026-05-03T06:36:42.129Z</time></trkpt><trkpt lat="43.7001804" lon="10.4362989"><ele>4.0</ele><time>2026-05-03T06:36:43.129Z</time></trkpt><trkpt lat="43.7002492" lon="10.4363458"><ele>4.0</ele><time>2026-05-03T06:36:44.13Z</time></trkpt><trkpt lat="43.7003197" lon="10.436383"><ele>4.0</ele><time>2026-05-03T06:36:45.13Z</time></trkpt><trkpt lat="43.7003921" lon="10.4363982"><ele>3.9999999999999996</ele><time>2026-05-03T06:36:46.129Z</time></trkpt><trkpt lat="43.700465" lon="10.4363878"><ele>4.0</ele><time>2026-05-03T06:36:47.13Z</time></trkpt><trkpt lat="43.700536" lon="10.4363487"><ele>3.8000000000000003</ele><time>2026-05-03T06:36:48.129Z</time></trkpt><trkpt lat="43.7006097" lon="10.4362946"><ele>3.6000000000000005</ele><time>2026-05-03T06:36:49.129Z</time></trkpt><trkpt lat="43.7006952" lon="10.4362356"><ele>3.4</ele><time>2026-05-03T06:36:50.129Z</time></trkpt><trkpt lat="43.7007965" lon="10.4361885"><ele>3.2</ele><time>2026-05-03T06:36:51.13Z</time></trkpt><trkpt lat="43.7009108" lon="10.4361549"><ele>3.0</ele><time>2026-05-03T06:36:52.13Z</time></trkpt><trkpt lat="43.7010362" lon="10.4361358"><ele>3.0</ele><time>2026-05-03T06:36:53.129Z</time></trkpt><trkpt lat="43.7011732" lon="10.4361244"><ele>3.0</ele><time>2026-05-03T06:36:54.13Z</time></trkpt><trkpt lat="43.7013243" lon="10.4361136"><ele>3.0</ele><time>2026-05-03T06:36:55.13Z</time></trkpt><trkpt lat="43.7014778" lon="10.4361023"><ele>3.0</ele><time>2026-05-03T06:36:56.13Z</time></trkpt><trkpt lat="43.7016389" lon="10.4360882"><ele>3.0</ele><time>2026-05-03T06:36:57.129Z</time></trkpt><trkpt lat="43.7018053" lon="10.436075"><ele>3.0</ele><time>2026-05-03T06:36:58.129Z</time></trkpt><trkpt lat="43.7019751" lon="10.4360625"><ele>3.0</ele><time>2026-05-03T06:36:59.13Z</time></trkpt><trkpt lat="43.7021473" lon="10.436049"><ele>3.0</ele><time>2026-05-03T06:37:00.129Z</time></trkpt><trkpt lat="43.7023127" lon="10.4360365"><ele>3.0</ele><time>2026-05-03T06:37:01.129Z</time></trkpt><trkpt lat="43.7024748" lon="10.4360266"><ele>3.0</ele><time>2026-05-03T06:37:02.13Z</time></trkpt><trkpt lat="43.702637" lon="10.4360147"><ele>2.3333333333333335</ele><time>2026-05-03T06:37:03.129Z</time></trkpt><trkpt lat="43.7027987" lon="10.4360004"><ele>1.6666666666666665</ele><time>2026-05-03T06:37:04.129Z</time></trkpt><trkpt lat="43.7029596" lon="10.4359875"><ele>1.0</ele><time>2026-05-03T06:37:05.13Z</time></trkpt><trkpt lat="43.7031224" lon="10.4359743"><ele>1.0</ele><time>2026-05-03T06:37:06.13Z</time></trkpt><trkpt lat="43.7032809" lon="10.4359613"><ele>1.0</ele><time>2026-05-03T06:37:07.13Z</time></trkpt><trkpt lat="43.7034373" lon="10.4359481"><ele>1.0</ele><time>2026-05-03T06:37:08.13Z</time></trkpt><trkpt lat="43.7035946" lon="10.4359343"><ele>2.3333333333333335</ele><time>2026-05-03T06:37:09.13Z</time></trkpt><trkpt lat="43.7037538" lon="10.4359177"><ele>3.666666666666667</ele><time>2026-05-03T06:37:10.129Z</time></trkpt><trkpt lat="43.7039136" lon="10.4359033"><ele>5.0</ele><time>2026-05-03T06:37:11.13Z</time></trkpt><trkpt lat="43.7040753" lon="10.4358888"><ele>5.0</ele><time>2026-05-03T06:37:12.129Z</time></trkpt><trkpt lat="43.7042388" lon="10.4358728"><ele>5.0</ele><time>2026-05-03T06:37:13.129Z</time></trkpt><trkpt lat="43.704405" lon="10.4358572"><ele>5.0</ele><time>2026-05-03T06:37:14.13Z</time></trkpt><trkpt lat="43.7045709" lon="10.4358435"><ele>5.0</ele><time>2026-05-03T06:37:15.129Z</time></trkpt><trkpt lat="43.704731" lon="10.4358293"><ele>5.0</ele><time>2026-05-03T06:37:16.129Z</time></trkpt><trkpt lat="43.7048875" lon="10.4358141"><ele>5.0</ele><time>2026-05-03T06:37:17.129Z</time></trkpt><trkpt lat="43.7050393" lon="10.4357992"><ele>5.0</ele><time>2026-05-03T06:37:18.13Z</time></trkpt><trkpt lat="43.7051911" lon="10.4357825"><ele>5.0</ele><time>2026-05-03T06:37:19.129Z</time></trkpt><trkpt lat="43.705342" lon="10.4357682"><ele>5.0</ele><time>2026-05-03T06:37:20.129Z</time></trkpt><trkpt lat="43.7054883" lon="10.4357532"><ele>4.75</ele><time>2026-05-03T06:37:21.129Z</time></trkpt><trkpt lat="43.70563" lon="10.4357392"><ele>4.5</ele><time>2026-05-03T06:37:22.13Z</time></trkpt><trkpt lat="43.7057677" lon="10.4357305"><ele>4.25</ele><time>2026-05-03T06:37:23.129Z</time></trkpt><trkpt lat="43.7059056" lon="10.4357281"><ele>4.0</ele><time>2026-05-03T06:37:24.13Z</time></trkpt><trkpt lat="43.7060423" lon="10.4357355"><ele>4.0</ele><time>2026-05-03T06:37:25.129Z</time></trkpt><trkpt lat="43.7061801" lon="10.4357554"><ele>4.0</ele><time>2026-05-03T06:37:26.129Z</time></trkpt><trkpt lat="43.7063145" lon="10.4357894"><ele>4.0</ele><time>2026-05-03T06:37:27.129Z</time></trkpt><trkpt lat="43.7064505" lon="10.43584"><ele>4.0</ele><time>2026-05-03T06:37:28.129Z</time></trkpt><trkpt lat="43.7065879" lon="10.4359056"><ele>4.0</ele><time>2026-05-03T06:37:29.13Z</time></trkpt><trkpt lat="43.7067203" lon="10.4359886"><ele>4.0</ele><time>2026-05-03T06:37:30.129Z</time></trkpt><trkpt lat="43.706849" lon="10.4360903"><ele>4.0</ele><time>2026-05-03T06:37:31.13Z</time></trkpt><trkpt lat="43.7069694" lon="10.4362142"><ele>4.0</ele><time>2026-05-03T06:37:32.13Z</time></trkpt><trkpt lat="43.7070866" lon="10.4363544"><ele>3.25</ele><time>2026-05-03T06:37:33.129Z</time></trkpt><trkpt lat="43.7071976" lon="10.4365015"><ele>2.5</ele><time>2026-05-03T06:37:34.129Z</time></trkpt><trkpt lat="43.7072959" lon="10.4366451"><ele>1.75</ele><time>2026-05-03T06:37:35.129Z</time></trkpt><trkpt lat="43.7073827" lon="10.4367747"><ele>1.0</ele><time>2026-05-03T06:37:36.129Z</time></trkpt><trkpt lat="43.707453" lon="10.4369006"><ele>1.0</ele><time>2026-05-03T06:37:37.129Z</time></trkpt><trkpt lat="43.7075081" lon="10.43703"><ele>1.0</ele><time>2026-05-03T06:37:38.13Z</time></trkpt><trkpt lat="43.7075441" lon="10.4371696"><ele>1.0</ele><time>2026-05-03T06:37:39.13Z</time></trkpt><trkpt lat="43.7075602" lon="10.4373112"><ele>1.0</ele><time>2026-05-03T06:37:40.13Z</time></trkpt><trkpt lat="43.7075745" lon="10.437441"><ele>1.0</ele><time>2026-05-03T06:37:41.129Z</time></trkpt><trkpt lat="43.7076186" lon="10.4375515"><ele>1.4</ele><time>2026-05-03T06:37:42.129Z</time></trkpt><trkpt lat="43.7076863" lon="10.4376272"><ele>1.8</ele><time>2026-05-03T06:37:43.13Z</time></trkpt><trkpt lat="43.7077733" lon="10.437681"><ele>2.1999999999999997</ele><time>2026-05-03T06:37:44.13Z</time></trkpt><trkpt lat="43.707876" lon="10.4377204"><ele>2.6</ele><time>2026-05-03T06:37:45.129Z</time></trkpt><trkpt lat="43.7079852" lon="10.4377751"><ele>3.0</ele><time>2026-05-03T06:37:46.13Z</time></trkpt><trkpt lat="43.708086" lon="10.4378658"><ele>3.25</ele><time>2026-05-03T06:37:47.13Z</time></trkpt><trkpt lat="43.7081803" lon="10.4379849"><ele>3.5</ele><time>2026-05-03T06:37:48.129Z</time></trkpt><trkpt lat="43.7082696" lon="10.4381217"><ele>3.75</ele><time>2026-05-03T06:37:49.13Z</time></trkpt><trkpt lat="43.70836" lon="10.4382592"><ele>4.0</ele><time>2026-05-03T06:37:50.13Z</time></trkpt><trkpt lat="43.7084493" lon="10.4383951"><ele>4.0</ele><time>2026-05-03T06:37:51.13Z</time></trkpt><trkpt lat="43.7085417" lon="10.4385376"><ele>4.0</ele><time>2026-05-03T06:37:52.13Z</time></trkpt><trkpt lat="43.7086373" lon="10.4386853"><ele>4.0</ele><time>2026-05-03T06:37:53.13Z</time></trkpt><trkpt lat="43.7087374" lon="10.4388356"><ele>4.0</ele><time>2026-05-03T06:37:54.129Z</time></trkpt><trkpt lat="43.7088404" lon="10.4389878"><ele>4.25</ele><time>2026-05-03T06:37:55.13Z</time></trkpt><trkpt lat="43.70894" lon="10.4391324"><ele>4.5</ele><time>2026-05-03T06:37:56.13Z</time></trkpt><trkpt lat="43.7090384" lon="10.439274"><ele>4.75</ele><time>2026-05-03T06:37:57.13Z</time></trkpt><trkpt lat="43.7091377" lon="10.4394158"><ele>5.0</ele><time>2026-05-03T06:37:58.13Z</time></trkpt><trkpt lat="43.7092353" lon="10.4395568"><ele>5.25</ele><time>2026-05-03T06:37:59.129Z</time></trkpt><trkpt lat="43.7093309" lon="10.439696"><ele>5.5</ele><time>2026-05-03T06:38:00.129Z</time></trkpt><trkpt lat="43.7094247" lon="10.4398323"><ele>5.75</ele><time>2026-05-03T06:38:01.13Z</time></trkpt><trkpt lat="43.7095173" lon="10.4399659"><ele>6.0</ele><time>2026-05-03T06:38:02.13Z</time></trkpt><trkpt lat="43.70961" lon="10.4400976"><ele>5.75</ele><time>2026-05-03T06:38:03.129Z</time></trkpt><trkpt lat="43.7097078" lon="10.440229"><ele>5.5</ele><time>2026-05-03T06:38:04.129Z</time></trkpt><trkpt lat="43.7098034" lon="10.4403672"><ele>5.25</ele><time>2026-05-03T06:38:05.13Z</time></trkpt><trkpt lat="43.709901" lon="10.4405103"><ele>5.0</ele><time>2026-05-03T06:38:06.129Z</time></trkpt><trkpt lat="43.7100004" lon="10.4406558"><ele>5.0</ele><time>2026-05-03T06:38:07.13Z</time></trkpt><trkpt lat="43.7101039" lon="10.4408051"><ele>5.0</ele><time>2026-05-03T06:38:08.13Z</time></trkpt><trkpt lat="43.7102102" lon="10.4409621"><ele>5.0</ele><time>2026-05-03T06:38:09.129Z</time></trkpt><trkpt lat="43.7103239" lon="10.4411256"><ele>4.666666666666667</ele><time>2026-05-03T06:38:10.13Z</time></trkpt><trkpt lat="43.7104354" lon="10.4412893"><ele>4.333333333333333</ele><time>2026-05-03T06:38:11.129Z</time></trkpt><trkpt lat="43.7105423" lon="10.4414425"><ele>4.0</ele><time>2026-05-03T06:38:12.13Z</time></trkpt><trkpt lat="43.7106445" lon="10.4415769"><ele>4.0</ele><time>2026-05-03T06:38:13.13Z</time></trkpt><trkpt lat="43.7107386" lon="10.4416935"><ele>4.0</ele><time>2026-05-03T06:38:14.13Z</time></trkpt><trkpt lat="43.7108306" lon="10.4418001"><ele>4.0</ele><time>2026-05-03T06:38:15.13Z</time></trkpt><trkpt lat="43.7109265" lon="10.4418966"><ele>4.0</ele><time>2026-05-03T06:38:16.129Z</time></trkpt><trkpt lat="43.7110315" lon="10.4419863"><ele>3.75</ele><time>2026-05-03T06:38:17.13Z</time></trkpt><trkpt lat="43.7111394" lon="10.4420564"><ele>3.5</ele><time>2026-05-03T06:38:18.129Z</time></trkpt><trkpt lat="43.7112521" lon="10.442116"><ele>3.25</ele><time>2026-05-03T06:38:19.129Z</time></trkpt><trkpt lat="43.711372" lon="10.4421799"><ele>3.0</ele><time>2026-05-03T06:38:20.129Z</time></trkpt><trkpt lat="43.7114997" lon="10.442243"><ele>3.0</ele><time>2026-05-03T06:38:21.129Z</time></trkpt><trkpt lat="43.71164" lon="10.4423046"><ele>3.0</ele><time>2026-05-03T06:38:22.129Z</time></trkpt><trkpt lat="43.7117934" lon="10.4423699"><ele>3.0</ele><time>2026-05-03T06:38:23.129Z</time></trkpt><trkpt lat="43.7119544" lon="10.4424351"><ele>2.6666666666666665</ele><time>2026-05-03T06:38:24.13Z</time></trkpt><trkpt lat="43.7121228" lon="10.4425019"><ele>2.333333333333333</ele><time>2026-05-03T06:38:25.129Z</time></trkpt><trkpt lat="43.7122956" lon="10.442574"><ele>2.0</ele><time>2026-05-03T06:38:26.129Z</time></trkpt><trkpt lat="43.7124597" lon="10.4426429"><ele>2.0</ele><time>2026-05-03T06:38:27.129Z</time></trkpt><trkpt lat="43.71262" lon="10.442709"><ele>2.0</ele><time>2026-05-03T06:38:28.129Z</time></trkpt><trkpt lat="43.7127742" lon="10.442774"><ele>2.0</ele><time>2026-05-03T06:38:29.13Z</time></trkpt><trkpt lat="43.7129283" lon="10.4428365"><ele>2.333333333333333</ele><time>2026-05-03T06:38:30.129Z</time></trkpt><trkpt lat="43.7130832" lon="10.4429025"><ele>2.6666666666666665</ele><time>2026-05-03T06:38:31.129Z</time></trkpt><trkpt lat="43.713241" lon="10.4429701"><ele>3.0</ele><time>2026-05-03T06:38:32.13Z</time></trkpt><trkpt lat="43.7133915" lon="10.4430355"><ele>3.0</ele><time>2026-05-03T06:38:33.129Z</time></trkpt><trkpt lat="43.7135353" lon="10.4431038"><ele>3.0</ele><time>2026-05-03T06:38:34.129Z</time></trkpt><trkpt lat="43.7136697" lon="10.4431727"><ele>3.0</ele><time>2026-05-03T06:38:35.129Z</time></trkpt><trkpt lat="43.7137996" lon="10.4432425"><ele>3.0</ele><time>2026-05-03T06:38:36.129Z</time></trkpt><trkpt lat="43.7139292" lon="10.4433167"><ele>2.75</ele><time>2026-05-03T06:38:37.13Z</time></trkpt><trkpt lat="43.7140602" lon="10.4433926"><ele>2.5</ele><time>2026-05-03T06:38:38.13Z</time></trkpt><trkpt lat="43.7141927" lon="10.4434716"><ele>2.25</ele><time>2026-05-03T06:38:39.13Z</time></trkpt><trkpt lat="43.7143263" lon="10.4435519"><ele>2.0</ele><time>2026-05-03T06:38:40.129Z</time></trkpt><trkpt lat="43.7144554" lon="10.4436306"><ele>2.0</ele><time>2026-05-03T06:38:41.129Z</time></trkpt><trkpt lat="43.714573" lon="10.4437032"><ele>2.0</ele><time>2026-05-03T06:38:42.13Z</time></trkpt><trkpt lat="43.7146817" lon="10.4437712"><ele>2.0</ele><time>2026-05-03T06:38:43.129Z</time></trkpt><trkpt lat="43.7147912" lon="10.4438412"><ele>2.0</ele><time>2026-05-03T06:38:44.13Z</time></trkpt><trkpt lat="43.7149034" lon="10.4439122"><ele>2.0</ele><time>2026-05-03T06:38:45.129Z</time></trkpt><trkpt lat="43.7150259" lon="10.4439857"><ele>2.0</ele><time>2026-05-03T06:38:46.129Z</time></trkpt><trkpt lat="43.7151543" lon="10.4440628"><ele>2.0</ele><time>2026-05-03T06:38:47.13Z</time></trkpt><trkpt lat="43.7152862" lon="10.4441462"><ele>2.0</ele><time>2026-05-03T06:38:48.13Z</time></trkpt><trkpt lat="43.7154259" lon="10.4442338"><ele>2.6666666666666665</ele><time>2026-05-03T06:38:49.13Z</time></trkpt><trkpt lat="43.7155739" lon="10.4443308"><ele>3.333333333333333</ele><time>2026-05-03T06:38:50.129Z</time></trkpt><trkpt lat="43.7157323" lon="10.4444337"><ele>4.0</ele><time>2026-05-03T06:38:51.13Z</time></trkpt><trkpt lat="43.715911" lon="10.444544"><ele>4.333333333333333</ele><time>2026-05-03T06:38:52.129Z</time></trkpt><trkpt lat="43.716084" lon="10.4446402"><ele>4.666666666666667</ele><time>2026-05-03T06:38:53.129Z</time></trkpt><trkpt lat="43.7162625" lon="10.4447269"><ele>5.0</ele><time>2026-05-03T06:38:54.13Z</time></trkpt><trkpt lat="43.7164443" lon="10.444804"><ele>5.0</ele><time>2026-05-03T06:38:55.129Z</time></trkpt><trkpt lat="43.7166292" lon="10.4448779"><ele>5.0</ele><time>2026-05-03T06:38:56.129Z</time></trkpt><trkpt lat="43.7168138" lon="10.4449556"><ele>5.0</ele><time>2026-05-03T06:38:57.129Z</time></trkpt><trkpt lat="43.716999" lon="10.4450347"><ele>5.0</ele><time>2026-05-03T06:38:58.129Z</time></trkpt><trkpt lat="43.7171818" lon="10.4451114"><ele>5.0</ele><time>2026-05-03T06:38:59.129Z</time></trkpt><trkpt lat="43.7173565" lon="10.4451843"><ele>5.0</ele><time>2026-05-03T06:39:00.129Z</time></trkpt><trkpt lat="43.7175257" lon="10.4452558"><ele>5.0</ele><time>2026-05-03T06:39:01.129Z</time></trkpt><trkpt lat="43.7176885" lon="10.4453261"><ele>5.0</ele><time>2026-05-03T06:39:02.13Z</time></trkpt><trkpt lat="43.7178508" lon="10.4453933"><ele>5.0</ele><time>2026-05-03T06:39:03.13Z</time></trkpt><trkpt lat="43.7180146" lon="10.4454625"><ele>5.666666666666667</ele><time>2026-05-03T06:39:04.13Z</time></trkpt><trkpt lat="43.7181765" lon="10.4455353"><ele>6.333333333333334</ele><time>2026-05-03T06:39:05.129Z</time></trkpt><trkpt lat="43.7183398" lon="10.4456116"><ele>7.0</ele><time>2026-05-03T06:39:06.13Z</time></trkpt><trkpt lat="43.718505" lon="10.4456873"><ele>6.0</ele><time>2026-05-03T06:39:07.129Z</time></trkpt><trkpt lat="43.718669" lon="10.4457677"><ele>5.0</ele><time>2026-05-03T06:39:08.13Z</time></trkpt><trkpt lat="43.7188285" lon="10.4458469"><ele>4.0</ele><time>2026-05-03T06:39:09.129Z</time></trkpt><trkpt lat="43.7189819" lon="10.445928"><ele>4.0</ele><time>2026-05-03T06:39:10.13Z</time></trkpt><trkpt lat="43.7191282" lon="10.4460124"><ele>4.0</ele><time>2026-05-03T06:39:11.13Z</time></trkpt><trkpt lat="43.7192729" lon="10.4461004"><ele>4.0</ele><time>2026-05-03T06:39:12.13Z</time></trkpt><trkpt lat="43.7194203" lon="10.4461861"><ele>3.6666666666666665</ele><time>2026-05-03T06:39:13.129Z</time></trkpt><trkpt lat="43.719571" lon="10.446262"><ele>3.333333333333333</ele><time>2026-05-03T06:39:14.13Z</time></trkpt><trkpt lat="43.7197272" lon="10.4463248"><ele>3.0</ele><time>2026-05-03T06:39:15.13Z</time></trkpt><trkpt lat="43.7198876" lon="10.4463765"><ele>3.666666666666667</ele><time>2026-05-03T06:39:16.129Z</time></trkpt><trkpt lat="43.7200523" lon="10.4464216"><ele>4.333333333333334</ele><time>2026-05-03T06:39:17.13Z</time></trkpt><trkpt lat="43.7202208" lon="10.4464685"><ele>5.0</ele><time>2026-05-03T06:39:18.13Z</time></trkpt><trkpt lat="43.7203941" lon="10.4465142"><ele>5.0</ele><time>2026-05-03T06:39:19.13Z</time></trkpt><trkpt lat="43.7205718" lon="10.4465553"><ele>5.0</ele><time>2026-05-03T06:39:20.129Z</time></trkpt><trkpt lat="43.7207539" lon="10.4465908"><ele>5.0</ele><time>2026-05-03T06:39:21.129Z</time></trkpt><trkpt lat="43.7209384" lon="10.4466188"><ele>4.333333333333334</ele><time>2026-05-03T06:39:22.13Z</time></trkpt><trkpt lat="43.7211234" lon="10.446639"><ele>3.666666666666667</ele><time>2026-05-03T06:39:23.13Z</time></trkpt><trkpt lat="43.7213094" lon="10.4466617"><ele>3.0</ele><time>2026-05-03T06:39:24.129Z</time></trkpt><trkpt lat="43.7214885" lon="10.4466948"><ele>3.0</ele><time>2026-05-03T06:39:25.129Z</time></trkpt><trkpt lat="43.7216623" lon="10.4467512"><ele>3.0</ele><time>2026-05-03T06:39:26.13Z</time></trkpt><trkpt lat="43.7218325" lon="10.4468282"><ele>3.0</ele><time>2026-05-03T06:39:27.13Z</time></trkpt><trkpt lat="43.7219982" lon="10.446924"><ele>2.6666666666666665</ele><time>2026-05-03T06:39:28.129Z</time></trkpt><trkpt lat="43.7221631" lon="10.4470287"><ele>2.333333333333333</ele><time>2026-05-03T06:39:29.13Z</time></trkpt><trkpt lat="43.7223269" lon="10.4471439"><ele>2.0</ele><time>2026-05-03T06:39:30.129Z</time></trkpt><trkpt lat="43.7224902" lon="10.447269"><ele>2.0</ele><time>2026-05-03T06:39:31.129Z</time></trkpt><trkpt lat="43.722649" lon="10.447397"><ele>2.0</ele><time>2026-05-03T06:39:32.13Z</time></trkpt><trkpt lat="43.7228012" lon="10.4475232"><ele>2.0</ele><time>2026-05-03T06:39:33.129Z</time></trkpt><trkpt lat="43.7229485" lon="10.4476461"><ele>2.0</ele><time>2026-05-03T06:39:34.129Z</time></trkpt><trkpt lat="43.7230908" lon="10.4477649"><ele>2.0</ele><time>2026-05-03T06:39:35.13Z</time></trkpt><trkpt lat="43.7232337" lon="10.4478856"><ele>2.0</ele><time>2026-05-03T06:39:36.129Z</time></trkpt><trkpt lat="43.7233772" lon="10.4480085"><ele>1.6666666666666665</ele><time>2026-05-03T06:39:37.13Z</time></trkpt><trkpt lat="43.7235208" lon="10.4481324"><ele>1.3333333333333333</ele><time>2026-05-03T06:39:38.13Z</time></trkpt><trkpt lat="43.7236639" lon="10.4482602"><ele>1.0</ele><time>2026-05-03T06:39:39.13Z</time></trkpt><trkpt lat="43.7238069" lon="10.4483906"><ele>1.0</ele><time>2026-05-03T06:39:40.129Z</time></trkpt><trkpt lat="43.7239469" lon="10.4485216"><ele>1.0</ele><time>2026-05-03T06:39:41.129Z</time></trkpt><trkpt lat="43.7240795" lon="10.4486507"><ele>1.0</ele><time>2026-05-03T06:39:42.13Z</time></trkpt><trkpt lat="43.7242084" lon="10.448788"><ele>1.0</ele><time>2026-05-03T06:39:43.13Z</time></trkpt><trkpt lat="43.724331" lon="10.4489345"><ele>1.0</ele><time>2026-05-03T06:39:44.129Z</time></trkpt><trkpt lat="43.7244419" lon="10.4490827"><ele>1.0</ele><time>2026-05-03T06:39:45.13Z</time></trkpt><trkpt lat="43.7245389" lon="10.4492237"><ele>1.0</ele><time>2026-05-03T06:39:46.13Z</time></trkpt><trkpt lat="43.7246259" lon="10.4493538"><ele>1.0</ele><time>2026-05-03T06:39:47.129Z</time></trkpt><trkpt lat="43.7247109" lon="10.4494715"><ele>1.0</ele><time>2026-05-03T06:39:48.13Z</time></trkpt><trkpt lat="43.7247951" lon="10.4495645"><ele>1.0</ele><time>2026-05-03T06:39:49.13Z</time></trkpt><trkpt lat="43.7248765" lon="10.4496338"><ele>1.4285714285714284</ele><time>2026-05-03T06:39:50.13Z</time></trkpt><trkpt lat="43.7249495" lon="10.4496743"><ele>1.857142857142857</ele><time>2026-05-03T06:39:51.13Z</time></trkpt><trkpt lat="43.72502" lon="10.4497"><ele>2.2857142857142856</ele><time>2026-05-03T06:39:52.13Z</time></trkpt><trkpt lat="43.725087" lon="10.4497227"><ele>2.714285714285714</ele><time>2026-05-03T06:39:53.129Z</time></trkpt><trkpt lat="43.7251495" lon="10.4497625"><ele>3.1428571428571423</ele><time>2026-05-03T06:39:54.13Z</time></trkpt><trkpt lat="43.7252046" lon="10.4498271"><ele>3.571428571428571</ele><time>2026-05-03T06:39:55.129Z</time></trkpt><trkpt lat="43.725243" lon="10.4498978"><ele>4.0</ele><time>2026-05-03T06:39:56.129Z</time></trkpt><trkpt lat="43.725332" lon="10.4499767"><ele>4.0</ele><time>2026-05-03T06:39:58.129Z</time></trkpt><trkpt lat="43.7254329" lon="10.449932"><ele>4.0</ele><time>2026-05-03T06:40:00.129Z</time></trkpt><trkpt lat="43.7254759" lon="10.4498625"><ele>4.0</ele><time>2026-05-03T06:40:01.13Z</time></trkpt><trkpt lat="43.7255192" lon="10.4497611"><ele>4.0</ele><time>2026-05-03T06:40:02.129Z</time></trkpt><trkpt lat="43.725565" lon="10.4496374"><ele>4.0</ele><time>2026-05-03T06:40:03.13Z</time></trkpt><trkpt lat="43.725615" lon="10.4494994"><ele>4.0</ele><time>2026-05-03T06:40:04.13Z</time></trkpt><trkpt lat="43.72567" lon="10.4493484"><ele>4.0</ele><time>2026-05-03T06:40:05.13Z</time></trkpt><trkpt lat="43.7257292" lon="10.4491857"><ele>4.0</ele><time>2026-05-03T06:40:06.129Z</time></trkpt><trkpt lat="43.725792" lon="10.449009"><ele>4.0</ele><time>2026-05-03T06:40:07.129Z</time></trkpt><trkpt lat="43.7258573" lon="10.4488214"><ele>4.0</ele><time>2026-05-03T06:40:08.13Z</time></trkpt><trkpt lat="43.7259263" lon="10.4486206"><ele>4.0</ele><time>2026-05-03T06:40:09.129Z</time></trkpt><trkpt lat="43.7259953" lon="10.4484152"><ele>4.0</ele><time>2026-05-03T06:40:10.13Z</time></trkpt><trkpt lat="43.7260684" lon="10.448203"><ele>4.0</ele><time>2026-05-03T06:40:11.13Z</time></trkpt><trkpt lat="43.726141" lon="10.4479888"><ele>4.0</ele><time>2026-05-03T06:40:12.129Z</time></trkpt><trkpt lat="43.7262082" lon="10.4477773"><ele>4.0</ele><time>2026-05-03T06:40:13.13Z</time></trkpt><trkpt lat="43.7262675" lon="10.4475786"><ele>4.0</ele><time>2026-05-03T06:40:14.129Z</time></trkpt><trkpt lat="43.7263136" lon="10.4473938"><ele>4.0</ele><time>2026-05-03T06:40:15.129Z</time></trkpt><trkpt lat="43.7263492" lon="10.4472296"><ele>4.0</ele><time>2026-05-03T06:40:16.13Z</time></trkpt><trkpt lat="43.7263735" lon="10.4470851"><ele>4.0</ele><time>2026-05-03T06:40:17.129Z</time></trkpt><trkpt lat="43.7263948" lon="10.446958"><ele>3.6</ele><time>2026-05-03T06:40:18.129Z</time></trkpt><trkpt lat="43.7264301" lon="10.4468424"><ele>3.2</ele><time>2026-05-03T06:40:19.13Z</time></trkpt><trkpt lat="43.7264748" lon="10.4467242"><ele>2.8000000000000003</ele><time>2026-05-03T06:40:20.129Z</time></trkpt><trkpt lat="43.7265263" lon="10.4465975"><ele>2.4000000000000004</ele><time>2026-05-03T06:40:21.129Z</time></trkpt><trkpt lat="43.7265881" lon="10.4464441"><ele>2.0</ele><time>2026-05-03T06:40:22.129Z</time></trkpt><trkpt lat="43.7266572" lon="10.4462731"><ele>1.6666666666666665</ele><time>2026-05-03T06:40:23.13Z</time></trkpt><trkpt lat="43.7267333" lon="10.4460886"><ele>1.3333333333333333</ele><time>2026-05-03T06:40:24.129Z</time></trkpt><trkpt lat="43.7268149" lon="10.4458923"><ele>1.0</ele><time>2026-05-03T06:40:25.13Z</time></trkpt><trkpt lat="43.7269003" lon="10.4456886"><ele>1.0</ele><time>2026-05-03T06:40:26.129Z</time></trkpt><trkpt lat="43.7269853" lon="10.4454833"><ele>1.0</ele><time>2026-05-03T06:40:27.13Z</time></trkpt><trkpt lat="43.7270711" lon="10.4452754"><ele>1.0</ele><time>2026-05-03T06:40:28.129Z</time></trkpt><trkpt lat="43.727157" lon="10.4450665"><ele>1.0</ele><time>2026-05-03T06:40:29.13Z</time></trkpt><trkpt lat="43.7272422" lon="10.4448559"><ele>1.0</ele><time>2026-05-03T06:40:30.129Z</time></trkpt><trkpt lat="43.7273267" lon="10.4446405"><ele>1.0</ele><time>2026-05-03T06:40:31.13Z</time></trkpt><trkpt lat="43.7274113" lon="10.4444225"><ele>1.0</ele><time>2026-05-03T06:40:32.129Z</time></trkpt><trkpt lat="43.727496" lon="10.4442008"><ele>1.0</ele><time>2026-05-03T06:40:33.13Z</time></trkpt><trkpt lat="43.727579" lon="10.4439801"><ele>1.0</ele><time>2026-05-03T06:40:34.129Z</time></trkpt><trkpt lat="43.7276595" lon="10.4437574"><ele>1.0</ele><time>2026-05-03T06:40:35.13Z</time></trkpt><trkpt lat="43.7277378" lon="10.4435367"><ele>1.0</ele><time>2026-05-03T06:40:36.13Z</time></trkpt><trkpt lat="43.7278137" lon="10.4433159"><ele>1.0</ele><time>2026-05-03T06:40:37.129Z</time></trkpt><trkpt lat="43.7278866" lon="10.4431001"><ele>1.0</ele><time>2026-05-03T06:40:38.129Z</time></trkpt><trkpt lat="43.7279557" lon="10.4428913"><ele>1.0</ele><time>2026-05-03T06:40:39.129Z</time></trkpt><trkpt lat="43.7280241" lon="10.4426821"><ele>1.0</ele><time>2026-05-03T06:40:40.129Z</time></trkpt><trkpt lat="43.7280924" lon="10.4424744"><ele>1.0</ele><time>2026-05-03T06:40:41.13Z</time></trkpt><trkpt lat="43.7281577" lon="10.442265"><ele>1.0</ele><time>2026-05-03T06:40:42.13Z</time></trkpt><trkpt lat="43.728224" lon="10.4420596"><ele>1.0</ele><time>2026-05-03T06:40:43.13Z</time></trkpt><trkpt lat="43.7282887" lon="10.4418542"><ele>1.0</ele><time>2026-05-03T06:40:44.13Z</time></trkpt><trkpt lat="43.7283517" lon="10.4416527"><ele>1.0</ele><time>2026-05-03T06:40:45.129Z</time></trkpt><trkpt lat="43.7284113" lon="10.4414557"><ele>1.0</ele><time>2026-05-03T06:40:46.129Z</time></trkpt><trkpt lat="43.7284722" lon="10.4412631"><ele>1.3333333333333333</ele><time>2026-05-03T06:40:47.129Z</time></trkpt><trkpt lat="43.7285336" lon="10.4410679"><ele>1.6666666666666665</ele><time>2026-05-03T06:40:48.129Z</time></trkpt><trkpt lat="43.7285971" lon="10.4408703"><ele>2.0</ele><time>2026-05-03T06:40:49.129Z</time></trkpt><trkpt lat="43.7286589" lon="10.4406693"><ele>1.6666666666666665</ele><time>2026-05-03T06:40:50.129Z</time></trkpt><trkpt lat="43.7287188" lon="10.4404724"><ele>1.3333333333333333</ele><time>2026-05-03T06:40:51.129Z</time></trkpt><trkpt lat="43.7287824" lon="10.4402806"><ele>1.0</ele><time>2026-05-03T06:40:52.13Z</time></trkpt><trkpt lat="43.7288472" lon="10.4400887"><ele>1.0</ele><time>2026-05-03T06:40:53.129Z</time></trkpt><trkpt lat="43.7289142" lon="10.4398868"><ele>1.0</ele><time>2026-05-03T06:40:54.129Z</time></trkpt><trkpt lat="43.7289891" lon="10.4396683"><ele>1.0</ele><time>2026-05-03T06:40:55.129Z</time></trkpt><trkpt lat="43.7290691" lon="10.439435"><ele>0.3333333333333333</ele><time>2026-05-03T06:40:56.13Z</time></trkpt><trkpt lat="43.7291436" lon="10.4392148"><ele>-0.3333333333333333</ele><time>2026-05-03T06:40:57.13Z</time></trkpt><trkpt lat="43.7292219" lon="10.4390035"><ele>-1.0</ele><time>2026-05-03T06:40:58.13Z</time></trkpt><trkpt lat="43.7293033" lon="10.4388073"><ele>-0.5</ele><time>2026-05-03T06:40:59.13Z</time></trkpt><trkpt lat="43.729381" lon="10.4386298"><ele>0.0</ele><time>2026-05-03T06:41:00.13Z</time></trkpt><trkpt lat="43.7294507" lon="10.438474"><ele>0.5</ele><time>2026-05-03T06:41:01.129Z</time></trkpt><trkpt lat="43.729513" lon="10.4383346"><ele>1.0</ele><time>2026-05-03T06:41:02.13Z</time></trkpt><trkpt lat="43.7295704" lon="10.4382105"><ele>1.1666666666666665</ele><time>2026-05-03T06:41:03.13Z</time></trkpt><trkpt lat="43.7296216" lon="10.4380984"><ele>1.3333333333333333</ele><time>2026-05-03T06:41:04.13Z</time></trkpt><trkpt lat="43.7296652" lon="10.4380063"><ele>1.5</ele><time>2026-05-03T06:41:05.129Z</time></trkpt><trkpt lat="43.7297211" lon="10.4378866"><ele>1.6666666666666665</ele><time>2026-05-03T06:41:07.13Z</time></trkpt><trkpt lat="43.7297654" lon="10.4377925"><ele>1.8333333333333333</ele><time>2026-05-03T06:41:10.13Z</time></trkpt><trkpt lat="43.729802" lon="10.4377019"><ele>2.0</ele><time>2026-05-03T06:42:06.129Z</time></trkpt><trkpt lat="43.7298519" lon="10.4375904"><ele>2.2</ele><time>2026-05-03T06:42:08.129Z</time></trkpt><trkpt lat="43.7298958" lon="10.4374903"><ele>2.4000000000000004</ele><time>2026-05-03T06:42:10.13Z</time></trkpt><trkpt lat="43.7299332" lon="10.4374082"><ele>2.5999999999999996</ele><time>2026-05-03T06:42:12.129Z</time></trkpt><trkpt lat="43.7299915" lon="10.4373011"><ele>2.8</ele><time>2026-05-03T06:42:15.129Z</time></trkpt><trkpt lat="43.7300707" lon="10.4371763"><ele>3.0</ele><time>2026-05-03T06:42:17.13Z</time></trkpt><trkpt lat="43.7301178" lon="10.4370829"><ele>2.5</ele><time>2026-05-03T06:42:18.129Z</time></trkpt><trkpt lat="43.7301675" lon="10.4369659"><ele>2.0</ele><time>2026-05-03T06:42:19.13Z</time></trkpt><trkpt lat="43.7302204" lon="10.4368275"><ele>1.5</ele><time>2026-05-03T06:42:20.129Z</time></trkpt><trkpt lat="43.7302774" lon="10.4366771"><ele>1.0</ele><time>2026-05-03T06:42:21.129Z</time></trkpt><trkpt lat="43.7303382" lon="10.4365145"><ele>1.0</ele><time>2026-05-03T06:42:22.129Z</time></trkpt><trkpt lat="43.7303969" lon="10.4363546"><ele>1.0</ele><time>2026-05-03T06:42:23.129Z</time></trkpt><trkpt lat="43.7304543" lon="10.4361988"><ele>1.0</ele><time>2026-05-03T06:42:24.129Z</time></trkpt><trkpt lat="43.7305104" lon="10.4360459"><ele>1.0</ele><time>2026-05-03T06:42:25.13Z</time></trkpt><trkpt lat="43.730568" lon="10.4358908"><ele>0.75</ele><time>2026-05-03T06:42:26.13Z</time></trkpt><trkpt lat="43.730628" lon="10.4357325"><ele>0.5</ele><time>2026-05-03T06:42:27.13Z</time></trkpt><trkpt lat="43.7306892" lon="10.4355724"><ele>0.25</ele><time>2026-05-03T06:42:28.13Z</time></trkpt><trkpt lat="43.7307526" lon="10.4354065"><ele>0.0</ele><time>2026-05-03T06:42:29.13Z</time></trkpt><trkpt lat="43.7308183" lon="10.4352389"><ele>0.25</ele><time>2026-05-03T06:42:30.13Z</time></trkpt><trkpt lat="43.7308861" lon="10.435065"><ele>0.5</ele><time>2026-05-03T06:42:31.129Z</time></trkpt><trkpt lat="43.7309549" lon="10.4348875"><ele>0.75</ele><time>2026-05-03T06:42:32.129Z</time></trkpt><trkpt lat="43.7310244" lon="10.4347084"><ele>1.0</ele><time>2026-05-03T06:42:33.129Z</time></trkpt><trkpt lat="43.7310958" lon="10.4345212"><ele>1.0</ele><time>2026-05-03T06:42:34.129Z</time></trkpt><trkpt lat="43.7311692" lon="10.4343269"><ele>1.0</ele><time>2026-05-03T06:42:35.129Z</time></trkpt><trkpt lat="43.7312469" lon="10.434127"><ele>1.0</ele><time>2026-05-03T06:42:36.129Z</time></trkpt><trkpt lat="43.7313304" lon="10.433909"><ele>1.3333333333333333</ele><time>2026-05-03T06:42:37.129Z</time></trkpt><trkpt lat="43.7314213" lon="10.4336674"><ele>1.6666666666666665</ele><time>2026-05-03T06:42:38.13Z</time></trkpt><trkpt lat="43.7315162" lon="10.4334108"><ele>2.0</ele><time>2026-05-03T06:42:39.13Z</time></trkpt><trkpt lat="43.7316088" lon="10.4331626"><ele>2.0</ele><time>2026-05-03T06:42:40.129Z</time></trkpt><trkpt lat="43.7316979" lon="10.4329303"><ele>2.0</ele><time>2026-05-03T06:42:41.129Z</time></trkpt><trkpt lat="43.7317825" lon="10.4327063"><ele>2.0</ele><time>2026-05-03T06:42:42.13Z</time></trkpt><trkpt lat="43.7318629" lon="10.4324952"><ele>1.3333333333333333</ele><time>2026-05-03T06:42:43.129Z</time></trkpt><trkpt lat="43.7319457" lon="10.4322793"><ele>0.6666666666666666</ele><time>2026-05-03T06:42:44.129Z</time></trkpt><trkpt lat="43.7320292" lon="10.4320598"><ele>0.0</ele><time>2026-05-03T06:42:45.13Z</time></trkpt><trkpt lat="43.7321136" lon="10.4318383"><ele>0.0</ele><time>2026-05-03T06:42:46.129Z</time></trkpt><trkpt lat="43.732199" lon="10.4316148"><ele>0.0</ele><time>2026-05-03T06:42:47.13Z</time></trkpt><trkpt lat="43.7322853" lon="10.431386"><ele>0.0</ele><time>2026-05-03T06:42:48.129Z</time></trkpt><trkpt lat="43.7323741" lon="10.4311552"><ele>0.0</ele><time>2026-05-03T06:42:49.129Z</time></trkpt><trkpt lat="43.7324632" lon="10.4309223"><ele>0.0</ele><time>2026-05-03T06:42:50.129Z</time></trkpt><trkpt lat="43.7325562" lon="10.4306879"><ele>0.0</ele><time>2026-05-03T06:42:51.13Z</time></trkpt><trkpt lat="43.7326497" lon="10.4304495"><ele>0.0</ele><time>2026-05-03T06:42:52.129Z</time></trkpt><trkpt lat="43.7327432" lon="10.4302117"><ele>0.0</ele><time>2026-05-03T06:42:53.129Z</time></trkpt><trkpt lat="43.7328377" lon="10.4299701"><ele>0.0</ele><time>2026-05-03T06:42:54.129Z</time></trkpt><trkpt lat="43.7329274" lon="10.4297327"><ele>0.3333333333333333</ele><time>2026-05-03T06:42:55.129Z</time></trkpt><trkpt lat="43.7330171" lon="10.4294954"><ele>0.6666666666666666</ele><time>2026-05-03T06:42:56.129Z</time></trkpt><trkpt lat="43.7331085" lon="10.4292554"><ele>1.0</ele><time>2026-05-03T06:42:57.13Z</time></trkpt><trkpt lat="43.7331994" lon="10.4290139"><ele>1.0</ele><time>2026-05-03T06:42:58.129Z</time></trkpt><trkpt lat="43.7332859" lon="10.4287795"><ele>1.0</ele><time>2026-05-03T06:42:59.129Z</time></trkpt><trkpt lat="43.7333691" lon="10.4285542"><ele>1.0</ele><time>2026-05-03T06:43:00.13Z</time></trkpt><trkpt lat="43.7334523" lon="10.4283303"><ele>1.0</ele><time>2026-05-03T06:43:01.13Z</time></trkpt><trkpt lat="43.7335316" lon="10.4281074"><ele>1.0</ele><time>2026-05-03T06:43:02.13Z</time></trkpt><trkpt lat="43.7336086" lon="10.4278845"><ele>1.0</ele><time>2026-05-03T06:43:03.13Z</time></trkpt><trkpt lat="43.7336828" lon="10.4276583"><ele>1.0</ele><time>2026-05-03T06:43:04.13Z</time></trkpt><trkpt lat="43.7337559" lon="10.4274326"><ele>1.0</ele><time>2026-05-03T06:43:05.13Z</time></trkpt><trkpt lat="43.7338243" lon="10.4272116"><ele>1.0</ele><time>2026-05-03T06:43:06.13Z</time></trkpt><trkpt lat="43.7338855" lon="10.4270012"><ele>0.75</ele><time>2026-05-03T06:43:07.129Z</time></trkpt><trkpt lat="43.733941" lon="10.4268042"><ele>0.5</ele><time>2026-05-03T06:43:08.129Z</time></trkpt><trkpt lat="43.7339906" lon="10.4266191"><ele>0.25</ele><time>2026-05-03T06:43:09.13Z</time></trkpt><trkpt lat="43.7340349" lon="10.4264496"><ele>0.0</ele><time>2026-05-03T06:43:10.129Z</time></trkpt><trkpt lat="43.7340721" lon="10.4262875"><ele>0.0</ele><time>2026-05-03T06:43:11.129Z</time></trkpt><trkpt lat="43.7341071" lon="10.4261413"><ele>0.0</ele><time>2026-05-03T06:43:12.129Z</time></trkpt><trkpt lat="43.7341356" lon="10.4260052"><ele>0.0</ele><time>2026-05-03T06:43:13.13Z</time></trkpt><trkpt lat="43.734154" lon="10.4258729"><ele>0.0</ele><time>2026-05-03T06:43:14.13Z</time></trkpt><trkpt lat="43.7341682" lon="10.425739"><ele>0.0</ele><time>2026-05-03T06:43:15.13Z</time></trkpt><trkpt lat="43.734196" lon="10.425602"><ele>0.5</ele><time>2026-05-03T06:43:16.129Z</time></trkpt><trkpt lat="43.7342391" lon="10.4254607"><ele>1.0</ele><time>2026-05-03T06:43:17.13Z</time></trkpt><trkpt lat="43.7342916" lon="10.4253113"><ele>1.5</ele><time>2026-05-03T06:43:18.129Z</time></trkpt><trkpt lat="43.7343484" lon="10.4251413"><ele>2.0</ele><time>2026-05-03T06:43:19.129Z</time></trkpt><trkpt lat="43.7344028" lon="10.4249546"><ele>2.333333333333333</ele><time>2026-05-03T06:43:20.129Z</time></trkpt><trkpt lat="43.7344551" lon="10.4247507"><ele>2.6666666666666665</ele><time>2026-05-03T06:43:21.129Z</time></trkpt><trkpt lat="43.7345095" lon="10.4245369"><ele>3.0</ele><time>2026-05-03T06:43:22.129Z</time></trkpt><trkpt lat="43.7345614" lon="10.4243271"><ele>2.5</ele><time>2026-05-03T06:43:23.13Z</time></trkpt><trkpt lat="43.7346108" lon="10.4241273"><ele>2.0</ele><time>2026-05-03T06:43:24.129Z</time></trkpt><trkpt lat="43.7346618" lon="10.4239435"><ele>1.5</ele><time>2026-05-03T06:43:25.129Z</time></trkpt><trkpt lat="43.7347243" lon="10.4237773"><ele>1.0</ele><time>2026-05-03T06:43:26.129Z</time></trkpt><trkpt lat="43.7348048" lon="10.4236405"><ele>1.0</ele><time>2026-05-03T06:43:27.13Z</time></trkpt><trkpt lat="43.7349109" lon="10.4235438"><ele>1.0</ele><time>2026-05-03T06:43:28.13Z</time></trkpt><trkpt lat="43.7350345" lon="10.4234839"><ele>1.0</ele><time>2026-05-03T06:43:29.129Z</time></trkpt><trkpt lat="43.7351723" lon="10.4234596"><ele>1.0</ele><time>2026-05-03T06:43:30.13Z</time></trkpt><trkpt lat="43.7353141" lon="10.4234769"><ele>1.3333333333333333</ele><time>2026-05-03T06:43:31.13Z</time></trkpt><trkpt lat="43.7354593" lon="10.4235337"><ele>1.6666666666666665</ele><time>2026-05-03T06:43:32.13Z</time></trkpt><trkpt lat="43.7356113" lon="10.4236113"><ele>2.0</ele><time>2026-05-03T06:43:33.13Z</time></trkpt><trkpt lat="43.7357742" lon="10.4237054"><ele>2.0</ele><time>2026-05-03T06:43:34.129Z</time></trkpt><trkpt lat="43.7359257" lon="10.4237994"><ele>2.0</ele><time>2026-05-03T06:43:35.129Z</time></trkpt><trkpt lat="43.7360665" lon="10.4238938"><ele>2.0</ele><time>2026-05-03T06:43:36.129Z</time></trkpt><trkpt lat="43.7361976" lon="10.4239868"><ele>2.25</ele><time>2026-05-03T06:43:37.13Z</time></trkpt><trkpt lat="43.7363155" lon="10.4240823"><ele>2.5</ele><time>2026-05-03T06:43:38.129Z</time></trkpt><trkpt lat="43.7364179" lon="10.424166"><ele>2.75</ele><time>2026-05-03T06:43:39.129Z</time></trkpt><trkpt lat="43.7365095" lon="10.4242422"><ele>3.0</ele><time>2026-05-03T06:43:40.129Z</time></trkpt><trkpt lat="43.7365949" lon="10.4242976"><ele>3.0</ele><time>2026-05-03T06:43:41.13Z</time></trkpt><trkpt lat="43.736675" lon="10.4243223"><ele>3.0</ele><time>2026-05-03T06:43:42.129Z</time></trkpt><trkpt lat="43.736746" lon="10.4243234"><ele>3.0</ele><time>2026-05-03T06:43:43.129Z</time></trkpt><trkpt lat="43.7368449" lon="10.4242744"><ele>3.0</ele><time>2026-05-03T06:43:45.129Z</time></trkpt><trkpt lat="43.7368986" lon="10.424205"><ele>3.0</ele><time>2026-05-03T06:43:47.129Z</time></trkpt><trkpt lat="43.736945" lon="10.424142"><ele>3.0</ele><time>2026-05-03T06:43:49.129Z</time></trkpt><trkpt lat="43.7370125" lon="10.4240917"><ele>2.8</ele><time>2026-05-03T06:43:51.129Z</time></trkpt><trkpt lat="43.7371179" lon="10.424114"><ele>2.5999999999999996</ele><time>2026-05-03T06:43:53.13Z</time></trkpt><trkpt lat="43.737197" lon="10.4241511"><ele>2.4000000000000004</ele><time>2026-05-03T06:43:54.129Z</time></trkpt><trkpt lat="43.7372935" lon="10.4242073"><ele>2.2</ele><time>2026-05-03T06:43:55.129Z</time></trkpt><trkpt lat="43.7374047" lon="10.4242668"><ele>2.0</ele><time>2026-05-03T06:43:56.13Z</time></trkpt><trkpt lat="43.7375284" lon="10.424331"><ele>2.0</ele><time>2026-05-03T06:43:57.129Z</time></trkpt><trkpt lat="43.737664" lon="10.4243984"><ele>2.0</ele><time>2026-05-03T06:43:58.13Z</time></trkpt><trkpt lat="43.737812" lon="10.4244689"><ele>2.0</ele><time>2026-05-03T06:43:59.129Z</time></trkpt><trkpt lat="43.7379679" lon="10.4245395"><ele>1.3333333333333333</ele><time>2026-05-03T06:44:00.129Z</time></trkpt><trkpt lat="43.7381255" lon="10.4246099"><ele>0.6666666666666666</ele><time>2026-05-03T06:44:01.129Z</time></trkpt><trkpt lat="43.7382898" lon="10.4246884"><ele>0.0</ele><time>2026-05-03T06:44:02.13Z</time></trkpt><trkpt lat="43.7384566" lon="10.4247656"><ele>0.0</ele><time>2026-05-03T06:44:03.13Z</time></trkpt><trkpt lat="43.7386284" lon="10.4248441"><ele>0.0</ele><time>2026-05-03T06:44:04.13Z</time></trkpt><trkpt lat="43.7388037" lon="10.424924"><ele>0.0</ele><time>2026-05-03T06:44:05.129Z</time></trkpt><trkpt lat="43.7389852" lon="10.4250024"><ele>0.0</ele><time>2026-05-03T06:44:06.129Z</time></trkpt><trkpt lat="43.7391607" lon="10.4250824"><ele>0.0</ele><time>2026-05-03T06:44:07.13Z</time></trkpt><trkpt lat="43.7393309" lon="10.4251617"><ele>0.0</ele><time>2026-05-03T06:44:08.129Z</time></trkpt><trkpt lat="43.7395048" lon="10.4252418"><ele>-0.3333333333333333</ele><time>2026-05-03T06:44:09.13Z</time></trkpt><trkpt lat="43.7396789" lon="10.4253281"><ele>-0.6666666666666666</ele><time>2026-05-03T06:44:10.129Z</time></trkpt><trkpt lat="43.7398521" lon="10.4254326"><ele>-1.0</ele><time>2026-05-03T06:44:11.129Z</time></trkpt><trkpt lat="43.7400226" lon="10.4255545"><ele>0.0</ele><time>2026-05-03T06:44:12.129Z</time></trkpt><trkpt lat="43.7401942" lon="10.4256884"><ele>1.0</ele><time>2026-05-03T06:44:13.129Z</time></trkpt><trkpt lat="43.740369" lon="10.4258314"><ele>2.0</ele><time>2026-05-03T06:44:14.13Z</time></trkpt><trkpt lat="43.7405368" lon="10.4259747"><ele>2.0</ele><time>2026-05-03T06:44:15.13Z</time></trkpt><trkpt lat="43.7406974" lon="10.4261118"><ele>2.0</ele><time>2026-05-03T06:44:16.129Z</time></trkpt><trkpt lat="43.7408539" lon="10.4262448"><ele>2.0</ele><time>2026-05-03T06:44:17.129Z</time></trkpt><trkpt lat="43.7410035" lon="10.4263789"><ele>2.0</ele><time>2026-05-03T06:44:18.13Z</time></trkpt><trkpt lat="43.7411508" lon="10.4265165"><ele>2.0</ele><time>2026-05-03T06:44:19.13Z</time></trkpt><trkpt lat="43.7412983" lon="10.4266548"><ele>2.0</ele><time>2026-05-03T06:44:20.13Z</time></trkpt><trkpt lat="43.7414467" lon="10.4267976"><ele>2.0</ele><time>2026-05-03T06:44:21.129Z</time></trkpt><trkpt lat="43.7415987" lon="10.4269439"><ele>2.0</ele><time>2026-05-03T06:44:22.129Z</time></trkpt><trkpt lat="43.7417545" lon="10.4270943"><ele>2.0</ele><time>2026-05-03T06:44:23.13Z</time></trkpt><trkpt lat="43.7419165" lon="10.4272483"><ele>2.333333333333333</ele><time>2026-05-03T06:44:24.129Z</time></trkpt><trkpt lat="43.7420802" lon="10.4274101"><ele>2.6666666666666665</ele><time>2026-05-03T06:44:25.129Z</time></trkpt><trkpt lat="43.7422482" lon="10.4275761"><ele>3.0</ele><time>2026-05-03T06:44:26.129Z</time></trkpt><trkpt lat="43.7424202" lon="10.4277416"><ele>3.0</ele><time>2026-05-03T06:44:27.129Z</time></trkpt><trkpt lat="43.7425835" lon="10.4278996"><ele>3.0</ele><time>2026-05-03T06:44:28.13Z</time></trkpt><trkpt lat="43.7427404" lon="10.428052"><ele>3.0</ele><time>2026-05-03T06:44:29.13Z</time></trkpt><trkpt lat="43.7428941" lon="10.428202"><ele>2.6666666666666665</ele><time>2026-05-03T06:44:30.13Z</time></trkpt><trkpt lat="43.7430471" lon="10.4283521"><ele>2.333333333333333</ele><time>2026-05-03T06:44:31.13Z</time></trkpt><trkpt lat="43.7431991" lon="10.4284976"><ele>2.0</ele><time>2026-05-03T06:44:32.13Z</time></trkpt><trkpt lat="43.7433504" lon="10.4286419"><ele>2.0</ele><time>2026-05-03T06:44:33.13Z</time></trkpt><trkpt lat="43.7435031" lon="10.4287841"><ele>2.0</ele><time>2026-05-03T06:44:34.129Z</time></trkpt><trkpt lat="43.7436588" lon="10.4289239"><ele>2.0</ele><time>2026-05-03T06:44:35.13Z</time></trkpt><trkpt lat="43.7438179" lon="10.4290637"><ele>2.333333333333333</ele><time>2026-05-03T06:44:36.129Z</time></trkpt><trkpt lat="43.7439798" lon="10.4292036"><ele>2.6666666666666665</ele><time>2026-05-03T06:44:37.13Z</time></trkpt><trkpt lat="43.7441423" lon="10.4293425"><ele>3.0</ele><time>2026-05-03T06:44:38.13Z</time></trkpt><trkpt lat="43.7443088" lon="10.4294817"><ele>3.333333333333333</ele><time>2026-05-03T06:44:39.13Z</time></trkpt><trkpt lat="43.7444735" lon="10.4296247"><ele>3.6666666666666665</ele><time>2026-05-03T06:44:40.129Z</time></trkpt><trkpt lat="43.744638" lon="10.4297635"><ele>4.0</ele><time>2026-05-03T06:44:41.129Z</time></trkpt><trkpt lat="43.7448016" lon="10.4299064"><ele>4.0</ele><time>2026-05-03T06:44:42.13Z</time></trkpt><trkpt lat="43.7449678" lon="10.4300439"><ele>4.0</ele><time>2026-05-03T06:44:43.129Z</time></trkpt><trkpt lat="43.7451347" lon="10.4301824"><ele>4.0</ele><time>2026-05-03T06:44:44.13Z</time></trkpt><trkpt lat="43.7453014" lon="10.4303204"><ele>3.6666666666666665</ele><time>2026-05-03T06:44:45.13Z</time></trkpt><trkpt lat="43.7454622" lon="10.4304558"><ele>3.333333333333333</ele><time>2026-05-03T06:44:46.129Z</time></trkpt><trkpt lat="43.7456233" lon="10.4305913"><ele>3.0</ele><time>2026-05-03T06:44:47.129Z</time></trkpt><trkpt lat="43.7457852" lon="10.430726"><ele>3.0</ele><time>2026-05-03T06:44:48.13Z</time></trkpt><trkpt lat="43.7459505" lon="10.4308595"><ele>3.0</ele><time>2026-05-03T06:44:49.13Z</time></trkpt><trkpt lat="43.746117" lon="10.4309947"><ele>3.0</ele><time>2026-05-03T06:44:50.129Z</time></trkpt><trkpt lat="43.7462836" lon="10.4311293"><ele>2.3333333333333335</ele><time>2026-05-03T06:44:51.129Z</time></trkpt><trkpt lat="43.746448" lon="10.4312632"><ele>1.6666666666666665</ele><time>2026-05-03T06:44:52.129Z</time></trkpt><trkpt lat="43.7466112" lon="10.4314005"><ele>1.0</ele><time>2026-05-03T06:44:53.13Z</time></trkpt><trkpt lat="43.7467743" lon="10.4315412"><ele>1.0</ele><time>2026-05-03T06:44:54.129Z</time></trkpt><trkpt lat="43.7469361" lon="10.4316856"><ele>1.0</ele><time>2026-05-03T06:44:55.129Z</time></trkpt><trkpt lat="43.7470981" lon="10.4318344"><ele>1.0</ele><time>2026-05-03T06:44:56.13Z</time></trkpt><trkpt lat="43.7472625" lon="10.4319837"><ele>1.0</ele><time>2026-05-03T06:44:57.129Z</time></trkpt><trkpt lat="43.7474304" lon="10.4321331"><ele>1.0</ele><time>2026-05-03T06:44:58.13Z</time></trkpt><trkpt lat="43.747601" lon="10.4322856"><ele>1.0</ele><time>2026-05-03T06:44:59.129Z</time></trkpt><trkpt lat="43.7477701" lon="10.4324351"><ele>1.3333333333333333</ele><time>2026-05-03T06:45:00.13Z</time></trkpt><trkpt lat="43.7479327" lon="10.4325779"><ele>1.6666666666666665</ele><time>2026-05-03T06:45:01.129Z</time></trkpt><trkpt lat="43.7480984" lon="10.4327228"><ele>2.0</ele><time>2026-05-03T06:45:02.129Z</time></trkpt><trkpt lat="43.7482687" lon="10.4328735"><ele>2.0</ele><time>2026-05-03T06:45:03.13Z</time></trkpt><trkpt lat="43.7484472" lon="10.4330313"><ele>2.0</ele><time>2026-05-03T06:45:04.129Z</time></trkpt><trkpt lat="43.7486205" lon="10.4331804"><ele>2.0</ele><time>2026-05-03T06:45:05.13Z</time></trkpt><trkpt lat="43.7487921" lon="10.4333207"><ele>2.0</ele><time>2026-05-03T06:45:06.13Z</time></trkpt><trkpt lat="43.7489657" lon="10.4334575"><ele>2.0</ele><time>2026-05-03T06:45:07.13Z</time></trkpt><trkpt lat="43.7491422" lon="10.433595"><ele>2.0</ele><time>2026-05-03T06:45:08.13Z</time></trkpt><trkpt lat="43.7493244" lon="10.4337373"><ele>2.0</ele><time>2026-05-03T06:45:09.129Z</time></trkpt><trkpt lat="43.7495027" lon="10.433874"><ele>2.0</ele><time>2026-05-03T06:45:10.13Z</time></trkpt><trkpt lat="43.7496674" lon="10.4340068"><ele>2.0</ele><time>2026-05-03T06:45:11.129Z</time></trkpt><trkpt lat="43.7498274" lon="10.434137"><ele>2.0</ele><time>2026-05-03T06:45:12.13Z</time></trkpt><trkpt lat="43.7499864" lon="10.4342608"><ele>2.0</ele><time>2026-05-03T06:45:13.13Z</time></trkpt><trkpt lat="43.7501453" lon="10.4343818"><ele>2.0</ele><time>2026-05-03T06:45:14.129Z</time></trkpt><trkpt lat="43.7503058" lon="10.4345032"><ele>2.0</ele><time>2026-05-03T06:45:15.13Z</time></trkpt><trkpt lat="43.7504655" lon="10.4346247"><ele>2.0</ele><time>2026-05-03T06:45:16.129Z</time></trkpt><trkpt lat="43.7506269" lon="10.434754"><ele>2.0</ele><time>2026-05-03T06:45:17.13Z</time></trkpt><trkpt lat="43.7507804" lon="10.4348861"><ele>2.0</ele><time>2026-05-03T06:45:18.129Z</time></trkpt><trkpt lat="43.7509264" lon="10.4350187"><ele>2.0</ele><time>2026-05-03T06:45:19.129Z</time></trkpt><trkpt lat="43.7510679" lon="10.4351524"><ele>2.0</ele><time>2026-05-03T06:45:20.13Z</time></trkpt><trkpt lat="43.7512108" lon="10.4352833"><ele>1.6666666666666665</ele><time>2026-05-03T06:45:21.13Z</time></trkpt><trkpt lat="43.7513545" lon="10.4354197"><ele>1.3333333333333333</ele><time>2026-05-03T06:45:22.129Z</time></trkpt><trkpt lat="43.7515028" lon="10.4355589"><ele>1.0</ele><time>2026-05-03T06:45:23.13Z</time></trkpt><trkpt lat="43.7516552" lon="10.4357066"><ele>1.3333333333333333</ele><time>2026-05-03T06:45:24.13Z</time></trkpt><trkpt lat="43.7518144" lon="10.4358594"><ele>1.6666666666666665</ele><time>2026-05-03T06:45:25.13Z</time></trkpt><trkpt lat="43.7519722" lon="10.4360015"><ele>2.0</ele><time>2026-05-03T06:45:26.129Z</time></trkpt><trkpt lat="43.7521364" lon="10.43612"><ele>2.0</ele><time>2026-05-03T06:45:27.13Z</time></trkpt><trkpt lat="43.7523084" lon="10.4362157"><ele>2.0</ele><time>2026-05-03T06:45:28.13Z</time></trkpt><trkpt lat="43.752489" lon="10.43629"><ele>2.0</ele><time>2026-05-03T06:45:29.129Z</time></trkpt><trkpt lat="43.7526752" lon="10.4363631"><ele>2.333333333333333</ele><time>2026-05-03T06:45:30.13Z</time></trkpt><trkpt lat="43.7528645" lon="10.4364513"><ele>2.6666666666666665</ele><time>2026-05-03T06:45:31.13Z</time></trkpt><trkpt lat="43.7530476" lon="10.4365575"><ele>3.0</ele><time>2026-05-03T06:45:32.129Z</time></trkpt><trkpt lat="43.753233" lon="10.4366792"><ele>3.0</ele><time>2026-05-03T06:45:33.129Z</time></trkpt><trkpt lat="43.7534092" lon="10.4368064"><ele>3.0</ele><time>2026-05-03T06:45:34.129Z</time></trkpt><trkpt lat="43.7535729" lon="10.4369368"><ele>3.0</ele><time>2026-05-03T06:45:35.129Z</time></trkpt><trkpt lat="43.753728" lon="10.437063"><ele>3.0</ele><time>2026-05-03T06:45:36.129Z</time></trkpt><trkpt lat="43.7538703" lon="10.437178"><ele>3.0</ele><time>2026-05-03T06:45:37.13Z</time></trkpt><trkpt lat="43.7540042" lon="10.4373067"><ele>3.0</ele><time>2026-05-03T06:45:38.13Z</time></trkpt><trkpt lat="43.75413" lon="10.4374555"><ele>3.0</ele><time>2026-05-03T06:45:39.129Z</time></trkpt><trkpt lat="43.7542506" lon="10.4376139"><ele>3.0</ele><time>2026-05-03T06:45:40.13Z</time></trkpt><trkpt lat="43.7543759" lon="10.4377647"><ele>3.0</ele><time>2026-05-03T06:45:41.13Z</time></trkpt><trkpt lat="43.7545111" lon="10.4378954"><ele>3.0</ele><time>2026-05-03T06:45:42.129Z</time></trkpt><trkpt lat="43.7546601" lon="10.437986"><ele>3.0</ele><time>2026-05-03T06:45:43.13Z</time></trkpt><trkpt lat="43.7548155" lon="10.438044"><ele>3.0</ele><time>2026-05-03T06:45:44.13Z</time></trkpt><trkpt lat="43.754978" lon="10.4380808"><ele>3.0</ele><time>2026-05-03T06:45:45.13Z</time></trkpt><trkpt lat="43.7551327" lon="10.4381066"><ele>3.0</ele><time>2026-05-03T06:45:46.129Z</time></trkpt><trkpt lat="43.7552716" lon="10.4381228"><ele>3.0</ele><time>2026-05-03T06:45:47.13Z</time></trkpt><trkpt lat="43.7553958" lon="10.4381303"><ele>3.0</ele><time>2026-05-03T06:45:48.129Z</time></trkpt><trkpt lat="43.7555062" lon="10.4381295"><ele>2.6</ele><time>2026-05-03T06:45:49.129Z</time></trkpt><trkpt lat="43.7556068" lon="10.4381163"><ele>2.1999999999999997</ele><time>2026-05-03T06:45:50.13Z</time></trkpt><trkpt lat="43.7557008" lon="10.4381054"><ele>1.8</ele><time>2026-05-03T06:45:51.129Z</time></trkpt><trkpt lat="43.755791" lon="10.4381105"><ele>1.4</ele><time>2026-05-03T06:45:52.129Z</time></trkpt><trkpt lat="43.7558786" lon="10.4381313"><ele>1.0</ele><time>2026-05-03T06:45:53.129Z</time></trkpt><trkpt lat="43.755968" lon="10.4381709"><ele>1.25</ele><time>2026-05-03T06:45:54.129Z</time></trkpt><trkpt lat="43.7560562" lon="10.4382348"><ele>1.5</ele><time>2026-05-03T06:45:55.13Z</time></trkpt><trkpt lat="43.7561321" lon="10.4383361"><ele>1.75</ele><time>2026-05-03T06:45:56.129Z</time></trkpt><trkpt lat="43.7562071" lon="10.4384684"><ele>2.0</ele><time>2026-05-03T06:45:57.13Z</time></trkpt><trkpt lat="43.7562887" lon="10.4386235"><ele>2.0</ele><time>2026-05-03T06:45:58.129Z</time></trkpt><trkpt lat="43.7563812" lon="10.4387815"><ele>2.0</ele><time>2026-05-03T06:45:59.13Z</time></trkpt><trkpt lat="43.7564886" lon="10.4389345"><ele>2.0</ele><time>2026-05-03T06:46:00.129Z</time></trkpt><trkpt lat="43.7566121" lon="10.4390822"><ele>2.0</ele><time>2026-05-03T06:46:01.129Z</time></trkpt><trkpt lat="43.7567521" lon="10.4392283"><ele>2.0</ele><time>2026-05-03T06:46:02.129Z</time></trkpt><trkpt lat="43.7569027" lon="10.4393716"><ele>2.0</ele><time>2026-05-03T06:46:03.129Z</time></trkpt><trkpt lat="43.7570642" lon="10.4395124"><ele>2.0</ele><time>2026-05-03T06:46:04.13Z</time></trkpt><trkpt lat="43.7572319" lon="10.4396524"><ele>2.0</ele><time>2026-05-03T06:46:05.129Z</time></trkpt><trkpt lat="43.7573877" lon="10.4397803"><ele>2.0</ele><time>2026-05-03T06:46:06.13Z</time></trkpt><trkpt lat="43.7575377" lon="10.4399041"><ele>2.0</ele><time>2026-05-03T06:46:07.129Z</time></trkpt><trkpt lat="43.7576836" lon="10.4400264"><ele>2.0</ele><time>2026-05-03T06:46:08.129Z</time></trkpt><trkpt lat="43.7578288" lon="10.4401452"><ele>2.0</ele><time>2026-05-03T06:46:09.129Z</time></trkpt><trkpt lat="43.7579736" lon="10.4402597"><ele>2.0</ele><time>2026-05-03T06:46:10.13Z</time></trkpt><trkpt lat="43.7581136" lon="10.4403705"><ele>2.0</ele><time>2026-05-03T06:46:11.129Z</time></trkpt><trkpt lat="43.758248" lon="10.4404795"><ele>2.0</ele><time>2026-05-03T06:46:12.13Z</time></trkpt><trkpt lat="43.7583818" lon="10.4405871"><ele>1.75</ele><time>2026-05-03T06:46:13.13Z</time></trkpt><trkpt lat="43.7585108" lon="10.4406936"><ele>1.5</ele><time>2026-05-03T06:46:14.129Z</time></trkpt><trkpt lat="43.7586366" lon="10.4408006"><ele>1.25</ele><time>2026-05-03T06:46:15.13Z</time></trkpt><trkpt lat="43.7587536" lon="10.4409073"><ele>1.0</ele><time>2026-05-03T06:46:16.129Z</time></trkpt><trkpt lat="43.7588606" lon="10.4410121"><ele>1.4</ele><time>2026-05-03T06:46:17.129Z</time></trkpt><trkpt lat="43.7589555" lon="10.4411137"><ele>1.8</ele><time>2026-05-03T06:46:18.129Z</time></trkpt><trkpt lat="43.7590437" lon="10.4412084"><ele>2.1999999999999997</ele><time>2026-05-03T06:46:19.129Z</time></trkpt><trkpt lat="43.7591303" lon="10.4412995"><ele>2.6</ele><time>2026-05-03T06:46:20.13Z</time></trkpt><trkpt lat="43.7592083" lon="10.4413863"><ele>3.0</ele><time>2026-05-03T06:46:21.129Z</time></trkpt><trkpt lat="43.7592877" lon="10.4414713"><ele>3.2</ele><time>2026-05-03T06:46:22.13Z</time></trkpt><trkpt lat="43.7593689" lon="10.4415561"><ele>3.4</ele><time>2026-05-03T06:46:23.13Z</time></trkpt><trkpt lat="43.759451" lon="10.4416455"><ele>3.6000000000000005</ele><time>2026-05-03T06:46:24.13Z</time></trkpt><trkpt lat="43.7595377" lon="10.4417332"><ele>3.8000000000000003</ele><time>2026-05-03T06:46:25.13Z</time></trkpt><trkpt lat="43.7596188" lon="10.4418217"><ele>4.0</ele><time>2026-05-03T06:46:26.129Z</time></trkpt><trkpt lat="43.7597033" lon="10.4419098"><ele>4.0</ele><time>2026-05-03T06:46:27.129Z</time></trkpt><trkpt lat="43.7597882" lon="10.4420006"><ele>4.0</ele><time>2026-05-03T06:46:28.129Z</time></trkpt><trkpt lat="43.7598765" lon="10.4420976"><ele>4.0</ele><time>2026-05-03T06:46:29.13Z</time></trkpt><trkpt lat="43.7599707" lon="10.4421963"><ele>4.0</ele><time>2026-05-03T06:46:30.129Z</time></trkpt><trkpt lat="43.7600671" lon="10.4422983"><ele>4.0</ele><time>2026-05-03T06:46:31.129Z</time></trkpt><trkpt lat="43.7601663" lon="10.4424005"><ele>4.0</ele><time>2026-05-03T06:46:32.129Z</time></trkpt><trkpt lat="43.7602648" lon="10.4425037"><ele>4.0</ele><time>2026-05-03T06:46:33.129Z</time></trkpt><trkpt lat="43.7603656" lon="10.442606"><ele>4.0</ele><time>2026-05-03T06:46:34.13Z</time></trkpt><trkpt lat="43.7604688" lon="10.4427171"><ele>4.0</ele><time>2026-05-03T06:46:35.129Z</time></trkpt><trkpt lat="43.760577" lon="10.442833"><ele>4.0</ele><time>2026-05-03T06:46:36.13Z</time></trkpt><trkpt lat="43.7606954" lon="10.4429603"><ele>4.0</ele><time>2026-05-03T06:46:37.129Z</time></trkpt><trkpt lat="43.7608121" lon="10.4430869"><ele>4.0</ele><time>2026-05-03T06:46:38.129Z</time></trkpt><trkpt lat="43.7609359" lon="10.443216"><ele>5.0</ele><time>2026-05-03T06:46:39.129Z</time></trkpt><trkpt lat="43.7610627" lon="10.4433539"><ele>6.0</ele><time>2026-05-03T06:46:40.129Z</time></trkpt><trkpt lat="43.7611942" lon="10.4434965"><ele>7.0</ele><time>2026-05-03T06:46:41.13Z</time></trkpt><trkpt lat="43.7613254" lon="10.4436447"><ele>8.333333333333334</ele><time>2026-05-03T06:46:42.13Z</time></trkpt><trkpt lat="43.7614577" lon="10.4438002"><ele>9.666666666666666</ele><time>2026-05-03T06:46:43.129Z</time></trkpt><trkpt lat="43.7615848" lon="10.4439537"><ele>11.0</ele><time>2026-05-03T06:46:44.129Z</time></trkpt><trkpt lat="43.7617044" lon="10.4440976"><ele>11.0</ele><time>2026-05-03T06:46:45.129Z</time></trkpt><trkpt lat="43.7618188" lon="10.4442379"><ele>11.0</ele><time>2026-05-03T06:46:46.129Z</time></trkpt><trkpt lat="43.761926" lon="10.4443696"><ele>11.0</ele><time>2026-05-03T06:46:47.129Z</time></trkpt><trkpt lat="43.7620313" lon="10.4444977"><ele>11.0</ele><time>2026-05-03T06:46:48.129Z</time></trkpt><trkpt lat="43.7621332" lon="10.4446292"><ele>11.75</ele><time>2026-05-03T06:46:49.129Z</time></trkpt><trkpt lat="43.7622354" lon="10.4447616"><ele>12.5</ele><time>2026-05-03T06:46:50.13Z</time></trkpt><trkpt lat="43.7623354" lon="10.4448791"><ele>13.25</ele><time>2026-05-03T06:46:51.129Z</time></trkpt><trkpt lat="43.7624408" lon="10.4449676"><ele>14.0</ele><time>2026-05-03T06:46:52.129Z</time></trkpt><trkpt lat="43.7625504" lon="10.4450107"><ele>14.0</ele><time>2026-05-03T06:46:53.13Z</time></trkpt><trkpt lat="43.7626623" lon="10.4450044"><ele>14.0</ele><time>2026-05-03T06:46:54.129Z</time></trkpt><trkpt lat="43.7627761" lon="10.4449585"><ele>14.0</ele><time>2026-05-03T06:46:55.129Z</time></trkpt><trkpt lat="43.7628909" lon="10.444888"><ele>14.0</ele><time>2026-05-03T06:46:56.129Z</time></trkpt><trkpt lat="43.7630114" lon="10.4448019"><ele>14.0</ele><time>2026-05-03T06:46:57.13Z</time></trkpt><trkpt lat="43.7631445" lon="10.4447095"><ele>14.0</ele><time>2026-05-03T06:46:58.129Z</time></trkpt><trkpt lat="43.7632798" lon="10.4446167"><ele>14.0</ele><time>2026-05-03T06:46:59.129Z</time></trkpt><trkpt lat="43.7633989" lon="10.4445338"><ele>14.0</ele><time>2026-05-03T06:47:00.129Z</time></trkpt><trkpt lat="43.7635155" lon="10.4444757"><ele>16.0</ele><time>2026-05-03T06:47:01.13Z</time></trkpt><trkpt lat="43.7636335" lon="10.4444665"><ele>18.0</ele><time>2026-05-03T06:47:02.129Z</time></trkpt><trkpt lat="43.7637449" lon="10.444506"><ele>20.0</ele><time>2026-05-03T06:47:03.129Z</time></trkpt><trkpt lat="43.7638375" lon="10.4445915"><ele>22.0</ele><time>2026-05-03T06:47:04.129Z</time></trkpt><trkpt lat="43.7639054" lon="10.4447115"><ele>22.0</ele><time>2026-05-03T06:47:05.13Z</time></trkpt><trkpt lat="43.7639406" lon="10.4448547"><ele>22.0</ele><time>2026-05-03T06:47:06.129Z</time></trkpt><trkpt lat="43.7639423" lon="10.4450063"><ele>22.0</ele><time>2026-05-03T06:47:07.13Z</time></trkpt><trkpt lat="43.7639151" lon="10.4451539"><ele>22.0</ele><time>2026-05-03T06:47:08.13Z</time></trkpt><trkpt lat="43.7638519" lon="10.4452791"><ele>22.0</ele><time>2026-05-03T06:47:09.129Z</time></trkpt><trkpt lat="43.7637621" lon="10.445369"><ele>22.0</ele><time>2026-05-03T06:47:10.129Z</time></trkpt><trkpt lat="43.7636591" lon="10.4454225"><ele>22.0</ele><time>2026-05-03T06:47:11.13Z</time></trkpt><trkpt lat="43.763536" lon="10.4454248"><ele>22.0</ele><time>2026-05-03T06:47:12.13Z</time></trkpt><trkpt lat="43.7633987" lon="10.4454053"><ele>22.0</ele><time>2026-05-03T06:47:13.13Z</time></trkpt><trkpt lat="43.7632713" lon="10.4453815"><ele>21.75</ele><time>2026-05-03T06:47:14.129Z</time></trkpt><trkpt lat="43.7631396" lon="10.4453862"><ele>21.5</ele><time>2026-05-03T06:47:15.13Z</time></trkpt><trkpt lat="43.7630202" lon="10.4454273"><ele>21.25</ele><time>2026-05-03T06:47:16.129Z</time></trkpt><trkpt lat="43.7629155" lon="10.4455196"><ele>21.0</ele><time>2026-05-03T06:47:17.13Z</time></trkpt><trkpt lat="43.7628341" lon="10.445647"><ele>21.0</ele><time>2026-05-03T06:47:18.129Z</time></trkpt><trkpt lat="43.7627952" lon="10.4458063"><ele>21.0</ele><time>2026-05-03T06:47:19.129Z</time></trkpt><trkpt lat="43.7627905" lon="10.4459697"><ele>21.0</ele><time>2026-05-03T06:47:20.13Z</time></trkpt><trkpt lat="43.7628271" lon="10.4461239"><ele>21.0</ele><time>2026-05-03T06:47:21.13Z</time></trkpt><trkpt lat="43.7628976" lon="10.4462575"><ele>23.5</ele><time>2026-05-03T06:47:22.129Z</time></trkpt><trkpt lat="43.7630015" lon="10.446371"><ele>26.0</ele><time>2026-05-03T06:47:23.129Z</time></trkpt><trkpt lat="43.7631186" lon="10.4464822"><ele>28.5</ele><time>2026-05-03T06:47:24.13Z</time></trkpt><trkpt lat="43.7632417" lon="10.4465916"><ele>31.0</ele><time>2026-05-03T06:47:25.13Z</time></trkpt><trkpt lat="43.7633649" lon="10.4467019"><ele>31.0</ele><time>2026-05-03T06:47:26.13Z</time></trkpt><trkpt lat="43.763484" lon="10.4467905"><ele>31.0</ele><time>2026-05-03T06:47:27.13Z</time></trkpt><trkpt lat="43.7636018" lon="10.4468305"><ele>31.0</ele><time>2026-05-03T06:47:28.13Z</time></trkpt><trkpt lat="43.7637273" lon="10.446821"><ele>31.0</ele><time>2026-05-03T06:47:29.13Z</time></trkpt><trkpt lat="43.7638519" lon="10.4467572"><ele>32.66666666666667</ele><time>2026-05-03T06:47:30.13Z</time></trkpt><trkpt lat="43.7639659" lon="10.4466715"><ele>34.333333333333336</ele><time>2026-05-03T06:47:31.13Z</time></trkpt><trkpt lat="43.7640975" lon="10.4465089"><ele>36.0</ele><time>2026-05-03T06:47:32.129Z</time></trkpt><trkpt lat="43.7642251" lon="10.4463561"><ele>36.0</ele><time>2026-05-03T06:47:33.13Z</time></trkpt><trkpt lat="43.7643453" lon="10.4462104"><ele>36.0</ele><time>2026-05-03T06:47:34.13Z</time></trkpt><trkpt lat="43.7644616" lon="10.4460703"><ele>36.0</ele><time>2026-05-03T06:47:35.13Z</time></trkpt><trkpt lat="43.7645776" lon="10.4459355"><ele>36.0</ele><time>2026-05-03T06:47:36.129Z</time></trkpt><trkpt lat="43.764684" lon="10.4458109"><ele>36.0</ele><time>2026-05-03T06:47:37.13Z</time></trkpt><trkpt lat="43.7647835" lon="10.4456968"><ele>36.0</ele><time>2026-05-03T06:47:38.129Z</time></trkpt><trkpt lat="43.7648839" lon="10.4456052"><ele>36.0</ele><time>2026-05-03T06:47:39.13Z</time></trkpt><trkpt lat="43.7649929" lon="10.445544"><ele>36.0</ele><time>2026-05-03T06:47:40.129Z</time></trkpt><trkpt lat="43.7651051" lon="10.4455305"><ele>36.0</ele><time>2026-05-03T06:47:41.129Z</time></trkpt><trkpt lat="43.765215" lon="10.4455752"><ele>36.0</ele><time>2026-05-03T06:47:42.13Z</time></trkpt><trkpt lat="43.7653083" lon="10.4456652"><ele>36.0</ele><time>2026-05-03T06:47:43.13Z</time></trkpt><trkpt lat="43.7653753" lon="10.4457948"><ele>39.5</ele><time>2026-05-03T06:47:44.13Z</time></trkpt><trkpt lat="43.7654103" lon="10.4459523"><ele>43.0</ele><time>2026-05-03T06:47:45.13Z</time></trkpt><trkpt lat="43.7654069" lon="10.4461173"><ele>46.5</ele><time>2026-05-03T06:47:46.129Z</time></trkpt><trkpt lat="43.7653671" lon="10.4462712"><ele>50.0</ele><time>2026-05-03T06:47:47.129Z</time></trkpt><trkpt lat="43.7653068" lon="10.446413"><ele>48.8</ele><time>2026-05-03T06:47:48.13Z</time></trkpt><trkpt lat="43.7652416" lon="10.4465508"><ele>47.6</ele><time>2026-05-03T06:47:49.13Z</time></trkpt><trkpt lat="43.7651757" lon="10.4466747"><ele>46.400000000000006</ele><time>2026-05-03T06:47:50.13Z</time></trkpt><trkpt lat="43.7651132" lon="10.4467841"><ele>45.2</ele><time>2026-05-03T06:47:51.129Z</time></trkpt><trkpt lat="43.7650439" lon="10.4468795"><ele>44.0</ele><time>2026-05-03T06:47:52.129Z</time></trkpt><trkpt lat="43.7649616" lon="10.4469627"><ele>44.0</ele><time>2026-05-03T06:47:53.129Z</time></trkpt><trkpt lat="43.7648669" lon="10.4470355"><ele>44.0</ele><time>2026-05-03T06:47:54.13Z</time></trkpt><trkpt lat="43.7647637" lon="10.4470885"><ele>44.0</ele><time>2026-05-03T06:47:55.129Z</time></trkpt><trkpt lat="43.7646527" lon="10.4471338"><ele>44.0</ele><time>2026-05-03T06:47:56.13Z</time></trkpt><trkpt lat="43.7645368" lon="10.4471766"><ele>44.5</ele><time>2026-05-03T06:47:57.13Z</time></trkpt><trkpt lat="43.764419" lon="10.4472229"><ele>45.0</ele><time>2026-05-03T06:47:58.13Z</time></trkpt><trkpt lat="43.764308" lon="10.4472608"><ele>45.5</ele><time>2026-05-03T06:47:59.13Z</time></trkpt><trkpt lat="43.7641998" lon="10.4473021"><ele>46.0</ele><time>2026-05-03T06:48:00.129Z</time></trkpt><trkpt lat="43.7640991" lon="10.4473508"><ele>46.0</ele><time>2026-05-03T06:48:01.129Z</time></trkpt><trkpt lat="43.7640074" lon="10.4474225"><ele>46.0</ele><time>2026-05-03T06:48:02.13Z</time></trkpt><trkpt lat="43.7639338" lon="10.4475243"><ele>46.0</ele><time>2026-05-03T06:48:03.13Z</time></trkpt><trkpt lat="43.763882" lon="10.4476512"><ele>46.0</ele><time>2026-05-03T06:48:04.129Z</time></trkpt><trkpt lat="43.7638611" lon="10.4477947"><ele>46.0</ele><time>2026-05-03T06:48:05.13Z</time></trkpt><trkpt lat="43.7638716" lon="10.4479429"><ele>47.599999999999994</ele><time>2026-05-03T06:48:06.13Z</time></trkpt><trkpt lat="43.7639021" lon="10.4480861"><ele>49.2</ele><time>2026-05-03T06:48:07.13Z</time></trkpt><trkpt lat="43.7639664" lon="10.448216"><ele>50.800000000000004</ele><time>2026-05-03T06:48:08.129Z</time></trkpt><trkpt lat="43.7640553" lon="10.4483046"><ele>52.400000000000006</ele><time>2026-05-03T06:48:09.129Z</time></trkpt><trkpt lat="43.7641617" lon="10.4483564"><ele>54.0</ele><time>2026-05-03T06:48:10.13Z</time></trkpt><trkpt lat="43.7642746" lon="10.4483647"><ele>58.75</ele><time>2026-05-03T06:48:11.129Z</time></trkpt><trkpt lat="43.7643932" lon="10.4483308"><ele>63.5</ele><time>2026-05-03T06:48:12.129Z</time></trkpt><trkpt lat="43.7644997" lon="10.4482528"><ele>68.25</ele><time>2026-05-03T06:48:13.129Z</time></trkpt><trkpt lat="43.7645855" lon="10.4481343"><ele>73.0</ele><time>2026-05-03T06:48:14.129Z</time></trkpt><trkpt lat="43.7646608" lon="10.4480005"><ele>70.4</ele><time>2026-05-03T06:48:15.129Z</time></trkpt><trkpt lat="43.7647299" lon="10.4478818"><ele>67.8</ele><time>2026-05-03T06:48:16.13Z</time></trkpt><trkpt lat="43.7648018" lon="10.4477677"><ele>65.2</ele><time>2026-05-03T06:48:17.129Z</time></trkpt><trkpt lat="43.7648702" lon="10.4476616"><ele>62.6</ele><time>2026-05-03T06:48:18.129Z</time></trkpt><trkpt lat="43.7649413" lon="10.4475544"><ele>60.0</ele><time>2026-05-03T06:48:19.129Z</time></trkpt><trkpt lat="43.765014" lon="10.447447"><ele>60.0</ele><time>2026-05-03T06:48:20.13Z</time></trkpt><trkpt lat="43.7650854" lon="10.4473366"><ele>60.0</ele><time>2026-05-03T06:48:21.129Z</time></trkpt><trkpt lat="43.7651553" lon="10.4472304"><ele>60.0</ele><time>2026-05-03T06:48:22.129Z</time></trkpt><trkpt lat="43.765218" lon="10.4471303"><ele>60.0</ele><time>2026-05-03T06:48:23.129Z</time></trkpt><trkpt lat="43.765277" lon="10.4470321"><ele>60.0</ele><time>2026-05-03T06:48:24.13Z</time></trkpt><trkpt lat="43.7653403" lon="10.4469285"><ele>63.5</ele><time>2026-05-03T06:48:25.129Z</time></trkpt><trkpt lat="43.7654067" lon="10.4468209"><ele>67.0</ele><time>2026-05-03T06:48:26.13Z</time></trkpt><trkpt lat="43.7654778" lon="10.4467111"><ele>70.5</ele><time>2026-05-03T06:48:27.129Z</time></trkpt><trkpt lat="43.7655596" lon="10.4465982"><ele>74.0</ele><time>2026-05-03T06:48:28.129Z</time></trkpt><trkpt lat="43.7656528" lon="10.4464822"><ele>74.0</ele><time>2026-05-03T06:48:29.13Z</time></trkpt><trkpt lat="43.765751" lon="10.4463751"><ele>74.0</ele><time>2026-05-03T06:48:30.13Z</time></trkpt><trkpt lat="43.7658687" lon="10.4462832"><ele>74.0</ele><time>2026-05-03T06:48:31.129Z</time></trkpt><trkpt lat="43.7659972" lon="10.4462067"><ele>74.0</ele><time>2026-05-03T06:48:32.129Z</time></trkpt><trkpt lat="43.766133" lon="10.4461506"><ele>73.0</ele><time>2026-05-03T06:48:33.13Z</time></trkpt><trkpt lat="43.7662692" lon="10.4460893"><ele>72.0</ele><time>2026-05-03T06:48:34.13Z</time></trkpt><trkpt lat="43.7663904" lon="10.446"><ele>71.0</ele><time>2026-05-03T06:48:35.13Z</time></trkpt><trkpt lat="43.7665005" lon="10.4458988"><ele>70.0</ele><time>2026-05-03T06:48:36.13Z</time></trkpt><trkpt lat="43.7666029" lon="10.4457991"><ele>70.0</ele><time>2026-05-03T06:48:37.13Z</time></trkpt><trkpt lat="43.7667016" lon="10.445705"><ele>70.0</ele><time>2026-05-03T06:48:38.129Z</time></trkpt><trkpt lat="43.7668059" lon="10.4456478"><ele>70.0</ele><time>2026-05-03T06:48:39.129Z</time></trkpt><trkpt lat="43.766911" lon="10.4456177"><ele>70.0</ele><time>2026-05-03T06:48:40.129Z</time></trkpt><trkpt lat="43.7670118" lon="10.4456224"><ele>70.0</ele><time>2026-05-03T06:48:41.13Z</time></trkpt><trkpt lat="43.7671111" lon="10.4456696"><ele>71.0</ele><time>2026-05-03T06:48:42.129Z</time></trkpt><trkpt lat="43.7671967" lon="10.4457522"><ele>72.0</ele><time>2026-05-03T06:48:43.129Z</time></trkpt><trkpt lat="43.767264" lon="10.4458675"><ele>73.0</ele><time>2026-05-03T06:48:44.13Z</time></trkpt><trkpt lat="43.7673099" lon="10.4460203"><ele>74.0</ele><time>2026-05-03T06:48:45.129Z</time></trkpt><trkpt lat="43.7673469" lon="10.4461932"><ele>79.25</ele><time>2026-05-03T06:48:46.13Z</time></trkpt><trkpt lat="43.7673815" lon="10.4463689"><ele>84.5</ele><time>2026-05-03T06:48:47.13Z</time></trkpt><trkpt lat="43.7674147" lon="10.4465447"><ele>89.75</ele><time>2026-05-03T06:48:48.13Z</time></trkpt><trkpt lat="43.7674464" lon="10.4467213"><ele>95.0</ele><time>2026-05-03T06:48:49.129Z</time></trkpt><trkpt lat="43.7695726" lon="10.4579506"><ele>97.0</ele><time>2026-05-03T06:49:43.129Z</time></trkpt><trkpt lat="43.7696295" lon="10.4580817"><ele>99.0</ele><time>2026-05-03T06:49:44.13Z</time></trkpt><trkpt lat="43.7697069" lon="10.4582096"><ele>101.0</ele><time>2026-05-03T06:49:45.129Z</time></trkpt><trkpt lat="43.7697943" lon="10.4583425"><ele>103.0</ele><time>2026-05-03T06:49:46.129Z</time></trkpt><trkpt lat="43.7699103" lon="10.4584631"><ele>103.0</ele><time>2026-05-03T06:49:47.129Z</time></trkpt><trkpt lat="43.7700373" lon="10.4585724"><ele>103.0</ele><time>2026-05-03T06:49:48.13Z</time></trkpt><trkpt lat="43.7701718" lon="10.4586678"><ele>103.0</ele><time>2026-05-03T06:49:49.13Z</time></trkpt><trkpt lat="43.7703087" lon="10.4587551"><ele>101.25</ele><time>2026-05-03T06:49:50.13Z</time></trkpt><trkpt lat="43.770445" lon="10.458841"><ele>99.5</ele><time>2026-05-03T06:49:51.129Z</time></trkpt><trkpt lat="43.7705707" lon="10.4589347"><ele>97.75</ele><time>2026-05-03T06:49:52.13Z</time></trkpt><trkpt lat="43.7706872" lon="10.4590535"><ele>96.0</ele><time>2026-05-03T06:49:53.129Z</time></trkpt><trkpt lat="43.7707862" lon="10.4591914"><ele>96.0</ele><time>2026-05-03T06:49:54.13Z</time></trkpt><trkpt lat="43.7708725" lon="10.4593391"><ele>96.0</ele><time>2026-05-03T06:49:55.129Z</time></trkpt><trkpt lat="43.7709509" lon="10.4594802"><ele>96.0</ele><time>2026-05-03T06:49:56.13Z</time></trkpt><trkpt lat="43.7710285" lon="10.4596089"><ele>96.0</ele><time>2026-05-03T06:49:57.129Z</time></trkpt><trkpt lat="43.7711206" lon="10.459721"><ele>94.75</ele><time>2026-05-03T06:49:58.13Z</time></trkpt><trkpt lat="43.7712278" lon="10.4598126"><ele>93.5</ele><time>2026-05-03T06:49:59.13Z</time></trkpt><trkpt lat="43.7713456" lon="10.4598828"><ele>92.25</ele><time>2026-05-03T06:50:00.129Z</time></trkpt><trkpt lat="43.7714709" lon="10.4599366"><ele>91.0</ele><time>2026-05-03T06:50:01.13Z</time></trkpt><trkpt lat="43.771601" lon="10.4599779"><ele>91.0</ele><time>2026-05-03T06:50:02.129Z</time></trkpt><trkpt lat="43.771729" lon="10.4600113"><ele>91.0</ele><time>2026-05-03T06:50:03.13Z</time></trkpt><trkpt lat="43.771855" lon="10.4600438"><ele>91.0</ele><time>2026-05-03T06:50:04.129Z</time></trkpt><trkpt lat="43.7719798" lon="10.4600797"><ele>91.0</ele><time>2026-05-03T06:50:05.129Z</time></trkpt><trkpt lat="43.7720988" lon="10.4600983"><ele>90.0</ele><time>2026-05-03T06:50:06.13Z</time></trkpt><trkpt lat="43.7722216" lon="10.4601008"><ele>89.0</ele><time>2026-05-03T06:50:07.129Z</time></trkpt><trkpt lat="43.7723458" lon="10.4600834"><ele>88.0</ele><time>2026-05-03T06:50:08.129Z</time></trkpt><trkpt lat="43.7724747" lon="10.4600546"><ele>87.0</ele><time>2026-05-03T06:50:09.13Z</time></trkpt><trkpt lat="43.7726074" lon="10.4600136"><ele>86.0</ele><time>2026-05-03T06:50:10.129Z</time></trkpt><trkpt lat="43.7727416" lon="10.4599635"><ele>85.0</ele><time>2026-05-03T06:50:11.129Z</time></trkpt><trkpt lat="43.7728788" lon="10.4599131"><ele>84.0</ele><time>2026-05-03T06:50:12.129Z</time></trkpt><trkpt lat="43.7730139" lon="10.4598597"><ele>83.0</ele><time>2026-05-03T06:50:13.129Z</time></trkpt><trkpt lat="43.7731416" lon="10.4598084"><ele>83.0</ele><time>2026-05-03T06:50:14.13Z</time></trkpt><trkpt lat="43.7732718" lon="10.4597578"><ele>83.0</ele><time>2026-05-03T06:50:15.129Z</time></trkpt><trkpt lat="43.7734004" lon="10.4597097"><ele>83.0</ele><time>2026-05-03T06:50:16.13Z</time></trkpt><trkpt lat="43.7735297" lon="10.4596638"><ele>83.0</ele><time>2026-05-03T06:50:17.13Z</time></trkpt><trkpt lat="43.7736592" lon="10.4596129"><ele>84.25</ele><time>2026-05-03T06:50:18.129Z</time></trkpt><trkpt lat="43.7737903" lon="10.4595732"><ele>85.5</ele><time>2026-05-03T06:50:19.13Z</time></trkpt><trkpt lat="43.7739161" lon="10.4595303"><ele>86.75</ele><time>2026-05-03T06:50:20.13Z</time></trkpt><trkpt lat="43.7740278" lon="10.4594915"><ele>88.0</ele><time>2026-05-03T06:50:21.129Z</time></trkpt><trkpt lat="43.7741328" lon="10.4594574"><ele>88.0</ele><time>2026-05-03T06:50:22.129Z</time></trkpt><trkpt lat="43.7742422" lon="10.4594264"><ele>88.0</ele><time>2026-05-03T06:50:23.129Z</time></trkpt><trkpt lat="43.7743567" lon="10.4593927"><ele>88.0</ele><time>2026-05-03T06:50:24.129Z</time></trkpt><trkpt lat="43.7744816" lon="10.4593629"><ele>88.0</ele><time>2026-05-03T06:50:25.129Z</time></trkpt><trkpt lat="43.7746087" lon="10.4593292"><ele>86.75</ele><time>2026-05-03T06:50:26.129Z</time></trkpt><trkpt lat="43.7747389" lon="10.4593014"><ele>85.5</ele><time>2026-05-03T06:50:27.13Z</time></trkpt><trkpt lat="43.7748751" lon="10.4592814"><ele>84.25</ele><time>2026-05-03T06:50:28.13Z</time></trkpt><trkpt lat="43.7750147" lon="10.4592587"><ele>83.0</ele><time>2026-05-03T06:50:29.129Z</time></trkpt><trkpt lat="43.7751614" lon="10.4592378"><ele>83.0</ele><time>2026-05-03T06:50:30.129Z</time></trkpt><trkpt lat="43.7753168" lon="10.4592203"><ele>83.0</ele><time>2026-05-03T06:50:31.129Z</time></trkpt><trkpt lat="43.7754758" lon="10.4592045"><ele>83.0</ele><time>2026-05-03T06:50:32.129Z</time></trkpt><trkpt lat="43.7756234" lon="10.4591874"><ele>83.0</ele><time>2026-05-03T06:50:33.13Z</time></trkpt><trkpt lat="43.7757694" lon="10.4591718"><ele>83.0</ele><time>2026-05-03T06:50:34.129Z</time></trkpt><trkpt lat="43.7759082" lon="10.459152"><ele>83.0</ele><time>2026-05-03T06:50:35.129Z</time></trkpt><trkpt lat="43.7760455" lon="10.4591367"><ele>83.0</ele><time>2026-05-03T06:50:36.129Z</time></trkpt><trkpt lat="43.7761812" lon="10.4591214"><ele>82.25</ele><time>2026-05-03T06:50:37.13Z</time></trkpt><trkpt lat="43.7763182" lon="10.4591069"><ele>81.5</ele><time>2026-05-03T06:50:38.13Z</time></trkpt><trkpt lat="43.7764587" lon="10.4590912"><ele>80.75</ele><time>2026-05-03T06:50:39.129Z</time></trkpt><trkpt lat="43.7766037" lon="10.4590741"><ele>80.0</ele><time>2026-05-03T06:50:40.13Z</time></trkpt><trkpt lat="43.7767526" lon="10.4590557"><ele>79.5</ele><time>2026-05-03T06:50:41.13Z</time></trkpt><trkpt lat="43.776896" lon="10.4590382"><ele>79.0</ele><time>2026-05-03T06:50:42.129Z</time></trkpt><trkpt lat="43.7770342" lon="10.4590193"><ele>78.5</ele><time>2026-05-03T06:50:43.13Z</time></trkpt><trkpt lat="43.7771709" lon="10.4590007"><ele>78.0</ele><time>2026-05-03T06:50:44.13Z</time></trkpt><trkpt lat="43.7773035" lon="10.4589835"><ele>78.0</ele><time>2026-05-03T06:50:45.129Z</time></trkpt><trkpt lat="43.7774339" lon="10.4589673"><ele>78.0</ele><time>2026-05-03T06:50:46.13Z</time></trkpt><trkpt lat="43.7775631" lon="10.4589524"><ele>78.0</ele><time>2026-05-03T06:50:47.129Z</time></trkpt><trkpt lat="43.7776901" lon="10.4589397"><ele>78.0</ele><time>2026-05-03T06:50:48.13Z</time></trkpt><trkpt lat="43.7778193" lon="10.4589435"><ele>77.25</ele><time>2026-05-03T06:50:49.13Z</time></trkpt><trkpt lat="43.777946" lon="10.4589705"><ele>76.5</ele><time>2026-05-03T06:50:50.129Z</time></trkpt><trkpt lat="43.7780775" lon="10.4590155"><ele>75.75</ele><time>2026-05-03T06:50:51.13Z</time></trkpt><trkpt lat="43.7782089" lon="10.4590887"><ele>75.0</ele><time>2026-05-03T06:50:52.129Z</time></trkpt><trkpt lat="43.7783375" lon="10.459183"><ele>75.0</ele><time>2026-05-03T06:50:53.129Z</time></trkpt><trkpt lat="43.7784561" lon="10.4593007"><ele>75.0</ele><time>2026-05-03T06:50:54.13Z</time></trkpt><trkpt lat="43.7785618" lon="10.4594324"><ele>75.0</ele><time>2026-05-03T06:50:55.13Z</time></trkpt><trkpt lat="43.7786565" lon="10.4595658"><ele>75.0</ele><time>2026-05-03T06:50:56.129Z</time></trkpt><trkpt lat="43.7787442" lon="10.4596971"><ele>74.25</ele><time>2026-05-03T06:50:57.129Z</time></trkpt><trkpt lat="43.7788321" lon="10.4598262"><ele>73.5</ele><time>2026-05-03T06:50:58.13Z</time></trkpt><trkpt lat="43.7789162" lon="10.4599562"><ele>72.75</ele><time>2026-05-03T06:50:59.129Z</time></trkpt><trkpt lat="43.7789971" lon="10.4600832"><ele>72.0</ele><time>2026-05-03T06:51:00.13Z</time></trkpt><trkpt lat="43.7790857" lon="10.4602178"><ele>72.0</ele><time>2026-05-03T06:51:01.129Z</time></trkpt><trkpt lat="43.7791766" lon="10.4603567"><ele>72.0</ele><time>2026-05-03T06:51:02.129Z</time></trkpt><trkpt lat="43.7792687" lon="10.4605006"><ele>72.0</ele><time>2026-05-03T06:51:03.129Z</time></trkpt><trkpt lat="43.779367" lon="10.4606453"><ele>72.0</ele><time>2026-05-03T06:51:04.13Z</time></trkpt><trkpt lat="43.7794665" lon="10.4607947"><ele>71.66666666666667</ele><time>2026-05-03T06:51:05.13Z</time></trkpt><trkpt lat="43.7795676" lon="10.46095"><ele>71.33333333333334</ele><time>2026-05-03T06:51:06.13Z</time></trkpt><trkpt lat="43.7796749" lon="10.4611105"><ele>71.0</ele><time>2026-05-03T06:51:07.13Z</time></trkpt><trkpt lat="43.7797837" lon="10.4612767"><ele>70.0</ele><time>2026-05-03T06:51:08.129Z</time></trkpt><trkpt lat="43.779897" lon="10.4614478"><ele>69.0</ele><time>2026-05-03T06:51:09.129Z</time></trkpt><trkpt lat="43.7800063" lon="10.4616153"><ele>68.0</ele><time>2026-05-03T06:51:10.13Z</time></trkpt><trkpt lat="43.7801099" lon="10.461773"><ele>67.75</ele><time>2026-05-03T06:51:11.13Z</time></trkpt><trkpt lat="43.7802087" lon="10.4619246"><ele>67.5</ele><time>2026-05-03T06:51:12.129Z</time></trkpt><trkpt lat="43.7803051" lon="10.4620717"><ele>67.25</ele><time>2026-05-03T06:51:13.129Z</time></trkpt><trkpt lat="43.7804008" lon="10.4622163"><ele>67.0</ele><time>2026-05-03T06:51:14.129Z</time></trkpt><trkpt lat="43.7804981" lon="10.4623638"><ele>66.66666666666666</ele><time>2026-05-03T06:51:15.129Z</time></trkpt><trkpt lat="43.7805991" lon="10.4625135"><ele>66.33333333333333</ele><time>2026-05-03T06:51:16.129Z</time></trkpt><trkpt lat="43.7807058" lon="10.4626634"><ele>66.0</ele><time>2026-05-03T06:51:17.13Z</time></trkpt><trkpt lat="43.7808222" lon="10.4628119"><ele>66.0</ele><time>2026-05-03T06:51:18.13Z</time></trkpt><trkpt lat="43.7809449" lon="10.4629627"><ele>66.0</ele><time>2026-05-03T06:51:19.13Z</time></trkpt><trkpt lat="43.7810713" lon="10.4631142"><ele>66.0</ele><time>2026-05-03T06:51:20.129Z</time></trkpt><trkpt lat="43.7811968" lon="10.4632581"><ele>65.0</ele><time>2026-05-03T06:51:21.13Z</time></trkpt><trkpt lat="43.7813172" lon="10.4633945"><ele>64.0</ele><time>2026-05-03T06:51:22.129Z</time></trkpt><trkpt lat="43.7814337" lon="10.4635242"><ele>63.0</ele><time>2026-05-03T06:51:23.13Z</time></trkpt><trkpt lat="43.7815467" lon="10.4636528"><ele>63.0</ele><time>2026-05-03T06:51:24.129Z</time></trkpt><trkpt lat="43.7816576" lon="10.4637747"><ele>63.0</ele><time>2026-05-03T06:51:25.13Z</time></trkpt><trkpt lat="43.7817717" lon="10.463898"><ele>63.0</ele><time>2026-05-03T06:51:26.129Z</time></trkpt><trkpt lat="43.7818802" lon="10.4640194"><ele>63.0</ele><time>2026-05-03T06:51:27.129Z</time></trkpt><trkpt lat="43.7819893" lon="10.4641437"><ele>62.25</ele><time>2026-05-03T06:51:28.13Z</time></trkpt><trkpt lat="43.7821015" lon="10.4642649"><ele>61.5</ele><time>2026-05-03T06:51:29.129Z</time></trkpt><trkpt lat="43.7822071" lon="10.4643838"><ele>60.75</ele><time>2026-05-03T06:51:30.129Z</time></trkpt><trkpt lat="43.7823104" lon="10.4644995"><ele>60.0</ele><time>2026-05-03T06:51:31.13Z</time></trkpt><trkpt lat="43.7824113" lon="10.4646136"><ele>59.5</ele><time>2026-05-03T06:51:32.13Z</time></trkpt><trkpt lat="43.7825156" lon="10.4647302"><ele>59.0</ele><time>2026-05-03T06:51:33.129Z</time></trkpt><trkpt lat="43.7826245" lon="10.4648525"><ele>58.5</ele><time>2026-05-03T06:51:34.129Z</time></trkpt><trkpt lat="43.7827383" lon="10.4649837"><ele>58.0</ele><time>2026-05-03T06:51:35.129Z</time></trkpt><trkpt lat="43.782858" lon="10.4651183"><ele>57.666666666666664</ele><time>2026-05-03T06:51:36.13Z</time></trkpt><trkpt lat="43.7829827" lon="10.4652609"><ele>57.33333333333333</ele><time>2026-05-03T06:51:37.13Z</time></trkpt><trkpt lat="43.7831112" lon="10.4654119"><ele>57.0</ele><time>2026-05-03T06:51:38.129Z</time></trkpt><trkpt lat="43.7832439" lon="10.4655727"><ele>57.0</ele><time>2026-05-03T06:51:39.13Z</time></trkpt><trkpt lat="43.7833822" lon="10.4657395"><ele>57.0</ele><time>2026-05-03T06:51:40.129Z</time></trkpt><trkpt lat="43.7835158" lon="10.4659053"><ele>57.0</ele><time>2026-05-03T06:51:41.129Z</time></trkpt><trkpt lat="43.7836442" lon="10.4660623"><ele>56.66666666666667</ele><time>2026-05-03T06:51:42.13Z</time></trkpt><trkpt lat="43.7837727" lon="10.4662226"><ele>56.333333333333336</ele><time>2026-05-03T06:51:43.129Z</time></trkpt><trkpt lat="43.7839006" lon="10.4663836"><ele>56.0</ele><time>2026-05-03T06:51:44.13Z</time></trkpt><trkpt lat="43.7840334" lon="10.4665484"><ele>56.0</ele><time>2026-05-03T06:51:45.13Z</time></trkpt><trkpt lat="43.7841682" lon="10.4667153"><ele>56.0</ele><time>2026-05-03T06:51:46.13Z</time></trkpt><trkpt lat="43.7842953" lon="10.4668742"><ele>56.0</ele><time>2026-05-03T06:51:47.13Z</time></trkpt><trkpt lat="43.7844216" lon="10.4670332"><ele>55.0</ele><time>2026-05-03T06:51:48.129Z</time></trkpt><trkpt lat="43.7845499" lon="10.4671953"><ele>54.0</ele><time>2026-05-03T06:51:49.129Z</time></trkpt><trkpt lat="43.784676" lon="10.4673535"><ele>53.0</ele><time>2026-05-03T06:51:50.129Z</time></trkpt><trkpt lat="43.7848021" lon="10.4675088"><ele>53.0</ele><time>2026-05-03T06:51:51.13Z</time></trkpt><trkpt lat="43.7849247" lon="10.4676612"><ele>53.0</ele><time>2026-05-03T06:51:52.13Z</time></trkpt><trkpt lat="43.7850437" lon="10.46781"><ele>53.0</ele><time>2026-05-03T06:51:53.129Z</time></trkpt><trkpt lat="43.7851642" lon="10.4679589"><ele>53.0</ele><time>2026-05-03T06:51:54.129Z</time></trkpt><trkpt lat="43.7852835" lon="10.4681094"><ele>53.0</ele><time>2026-05-03T06:51:55.129Z</time></trkpt><trkpt lat="43.7854068" lon="10.4682634"><ele>53.0</ele><time>2026-05-03T06:51:56.129Z</time></trkpt><trkpt lat="43.7855308" lon="10.4684178"><ele>53.0</ele><time>2026-05-03T06:51:57.129Z</time></trkpt><trkpt lat="43.7856539" lon="10.4685704"><ele>53.0</ele><time>2026-05-03T06:51:58.129Z</time></trkpt><trkpt lat="43.7857719" lon="10.4687183"><ele>53.0</ele><time>2026-05-03T06:51:59.13Z</time></trkpt><trkpt lat="43.7858872" lon="10.4688613"><ele>53.333333333333336</ele><time>2026-05-03T06:52:00.13Z</time></trkpt><trkpt lat="43.7859981" lon="10.4690006"><ele>53.66666666666667</ele><time>2026-05-03T06:52:01.129Z</time></trkpt><trkpt lat="43.7861165" lon="10.4691491"><ele>54.0</ele><time>2026-05-03T06:52:02.129Z</time></trkpt><trkpt lat="43.7862409" lon="10.4693002"><ele>52.66666666666667</ele><time>2026-05-03T06:52:03.129Z</time></trkpt><trkpt lat="43.7863642" lon="10.4694526"><ele>51.333333333333336</ele><time>2026-05-03T06:52:04.13Z</time></trkpt><trkpt lat="43.7864834" lon="10.4696017"><ele>50.0</ele><time>2026-05-03T06:52:05.13Z</time></trkpt><trkpt lat="43.786605" lon="10.4697553"><ele>50.0</ele><time>2026-05-03T06:52:06.13Z</time></trkpt><trkpt lat="43.7867245" lon="10.4699055"><ele>50.0</ele><time>2026-05-03T06:52:07.129Z</time></trkpt><trkpt lat="43.7868444" lon="10.4700559"><ele>50.0</ele><time>2026-05-03T06:52:08.13Z</time></trkpt><trkpt lat="43.7869655" lon="10.4702106"><ele>48.66666666666667</ele><time>2026-05-03T06:52:09.13Z</time></trkpt><trkpt lat="43.7870859" lon="10.4703664"><ele>47.333333333333336</ele><time>2026-05-03T06:52:10.129Z</time></trkpt><trkpt lat="43.7872062" lon="10.4705276"><ele>46.0</ele><time>2026-05-03T06:52:11.129Z</time></trkpt><trkpt lat="43.7873253" lon="10.4706955"><ele>46.0</ele><time>2026-05-03T06:52:12.129Z</time></trkpt><trkpt lat="43.7874466" lon="10.4708664"><ele>46.0</ele><time>2026-05-03T06:52:13.129Z</time></trkpt><trkpt lat="43.7875701" lon="10.471044"><ele>46.0</ele><time>2026-05-03T06:52:14.13Z</time></trkpt><trkpt lat="43.7876869" lon="10.4712141"><ele>45.333333333333336</ele><time>2026-05-03T06:52:15.13Z</time></trkpt><trkpt lat="43.7878011" lon="10.471381"><ele>44.666666666666664</ele><time>2026-05-03T06:52:16.13Z</time></trkpt><trkpt lat="43.7879138" lon="10.4715468"><ele>44.0</ele><time>2026-05-03T06:52:17.129Z</time></trkpt><trkpt lat="43.7880259" lon="10.4717138"><ele>44.0</ele><time>2026-05-03T06:52:18.129Z</time></trkpt><trkpt lat="43.7881404" lon="10.4718819"><ele>44.0</ele><time>2026-05-03T06:52:19.129Z</time></trkpt><trkpt lat="43.7882558" lon="10.472052"><ele>44.0</ele><time>2026-05-03T06:52:20.129Z</time></trkpt><trkpt lat="43.7883702" lon="10.4722198"><ele>43.0</ele><time>2026-05-03T06:52:21.129Z</time></trkpt><trkpt lat="43.7884844" lon="10.4723916"><ele>42.0</ele><time>2026-05-03T06:52:22.129Z</time></trkpt><trkpt lat="43.7885981" lon="10.4725612"><ele>41.0</ele><time>2026-05-03T06:52:23.13Z</time></trkpt><trkpt lat="43.7887051" lon="10.4727234"><ele>41.0</ele><time>2026-05-03T06:52:24.129Z</time></trkpt><trkpt lat="43.7888095" lon="10.472874"><ele>41.0</ele><time>2026-05-03T06:52:25.13Z</time></trkpt><trkpt lat="43.7889102" lon="10.4730235"><ele>41.0</ele><time>2026-05-03T06:52:26.129Z</time></trkpt><trkpt lat="43.7890078" lon="10.4731666"><ele>41.0</ele><time>2026-05-03T06:52:27.129Z</time></trkpt><trkpt lat="43.7891017" lon="10.4733068"><ele>40.75</ele><time>2026-05-03T06:52:28.129Z</time></trkpt><trkpt lat="43.7891999" lon="10.4734505"><ele>40.5</ele><time>2026-05-03T06:52:29.129Z</time></trkpt><trkpt lat="43.7893013" lon="10.4735974"><ele>40.25</ele><time>2026-05-03T06:52:30.129Z</time></trkpt><trkpt lat="43.7894022" lon="10.4737482"><ele>40.0</ele><time>2026-05-03T06:52:31.129Z</time></trkpt><trkpt lat="43.7895016" lon="10.4738954"><ele>39.5</ele><time>2026-05-03T06:52:32.129Z</time></trkpt><trkpt lat="43.7896029" lon="10.4740408"><ele>39.0</ele><time>2026-05-03T06:52:33.129Z</time></trkpt><trkpt lat="43.7897066" lon="10.4741857"><ele>38.5</ele><time>2026-05-03T06:52:34.129Z</time></trkpt><trkpt lat="43.7898066" lon="10.4743333"><ele>38.0</ele><time>2026-05-03T06:52:35.129Z</time></trkpt><trkpt lat="43.7899038" lon="10.4744725"><ele>38.0</ele><time>2026-05-03T06:52:36.13Z</time></trkpt><trkpt lat="43.7900007" lon="10.4746062"><ele>38.0</ele><time>2026-05-03T06:52:37.13Z</time></trkpt><trkpt lat="43.7901018" lon="10.474724"><ele>38.0</ele><time>2026-05-03T06:52:38.13Z</time></trkpt><trkpt lat="43.7902056" lon="10.4748297"><ele>38.0</ele><time>2026-05-03T06:52:39.129Z</time></trkpt><trkpt lat="43.7903138" lon="10.4749249"><ele>37.75</ele><time>2026-05-03T06:52:40.129Z</time></trkpt><trkpt lat="43.7904282" lon="10.4750122"><ele>37.5</ele><time>2026-05-03T06:52:41.13Z</time></trkpt><trkpt lat="43.7905495" lon="10.4750943"><ele>37.25</ele><time>2026-05-03T06:52:42.129Z</time></trkpt><trkpt lat="43.7906744" lon="10.4751733"><ele>37.0</ele><time>2026-05-03T06:52:43.129Z</time></trkpt><trkpt lat="43.7908003" lon="10.4752551"><ele>37.0</ele><time>2026-05-03T06:52:44.129Z</time></trkpt><trkpt lat="43.7909252" lon="10.4753377"><ele>37.0</ele><time>2026-05-03T06:52:45.129Z</time></trkpt><trkpt lat="43.7910464" lon="10.4754134"><ele>37.0</ele><time>2026-05-03T06:52:46.13Z</time></trkpt><trkpt lat="43.7911641" lon="10.4754861"><ele>37.0</ele><time>2026-05-03T06:52:47.13Z</time></trkpt><trkpt lat="43.7912774" lon="10.4755538"><ele>36.5</ele><time>2026-05-03T06:52:48.13Z</time></trkpt><trkpt lat="43.7913927" lon="10.4756219"><ele>36.0</ele><time>2026-05-03T06:52:49.129Z</time></trkpt><trkpt lat="43.791508" lon="10.4756918"><ele>35.5</ele><time>2026-05-03T06:52:50.13Z</time></trkpt><trkpt lat="43.7916235" lon="10.4757681"><ele>35.0</ele><time>2026-05-03T06:52:51.13Z</time></trkpt><trkpt lat="43.7917385" lon="10.4758542"><ele>35.5</ele><time>2026-05-03T06:52:52.129Z</time></trkpt><trkpt lat="43.7918549" lon="10.4759593"><ele>36.0</ele><time>2026-05-03T06:52:53.129Z</time></trkpt><trkpt lat="43.7919692" lon="10.4760796"><ele>36.5</ele><time>2026-05-03T06:52:54.129Z</time></trkpt><trkpt lat="43.7920875" lon="10.4762163"><ele>37.0</ele><time>2026-05-03T06:52:55.13Z</time></trkpt><trkpt lat="43.7922074" lon="10.476359"><ele>37.0</ele><time>2026-05-03T06:52:56.13Z</time></trkpt><trkpt lat="43.7923256" lon="10.4764986"><ele>37.0</ele><time>2026-05-03T06:52:57.13Z</time></trkpt><trkpt lat="43.7924372" lon="10.4766305"><ele>37.0</ele><time>2026-05-03T06:52:58.13Z</time></trkpt><trkpt lat="43.7925462" lon="10.4767568"><ele>37.0</ele><time>2026-05-03T06:52:59.129Z</time></trkpt><trkpt lat="43.7926486" lon="10.4768773"><ele>37.0</ele><time>2026-05-03T06:53:00.13Z</time></trkpt><trkpt lat="43.792745" lon="10.4769995"><ele>37.0</ele><time>2026-05-03T06:53:01.13Z</time></trkpt><trkpt lat="43.7928488" lon="10.4771176"><ele>37.0</ele><time>2026-05-03T06:53:02.13Z</time></trkpt><trkpt lat="43.792954" lon="10.4772396"><ele>37.0</ele><time>2026-05-03T06:53:03.129Z</time></trkpt><trkpt lat="43.7930579" lon="10.4773647"><ele>36.0</ele><time>2026-05-03T06:53:04.13Z</time></trkpt><trkpt lat="43.7931575" lon="10.477484"><ele>35.0</ele><time>2026-05-03T06:53:05.13Z</time></trkpt><trkpt lat="43.7932576" lon="10.4776047"><ele>34.0</ele><time>2026-05-03T06:53:06.129Z</time></trkpt><trkpt lat="43.7933547" lon="10.4777234"><ele>33.0</ele><time>2026-05-03T06:53:07.13Z</time></trkpt><trkpt lat="43.7934522" lon="10.4778416"><ele>33.25</ele><time>2026-05-03T06:53:08.13Z</time></trkpt><trkpt lat="43.7935547" lon="10.4779642"><ele>33.5</ele><time>2026-05-03T06:53:09.129Z</time></trkpt><trkpt lat="43.7936577" lon="10.4780866"><ele>33.75</ele><time>2026-05-03T06:53:10.129Z</time></trkpt><trkpt lat="43.7937644" lon="10.4782113"><ele>34.0</ele><time>2026-05-03T06:53:11.129Z</time></trkpt><trkpt lat="43.7938728" lon="10.4783396"><ele>34.0</ele><time>2026-05-03T06:53:12.129Z</time></trkpt><trkpt lat="43.7939827" lon="10.4784696"><ele>34.0</ele><time>2026-05-03T06:53:13.129Z</time></trkpt><trkpt lat="43.7940941" lon="10.4786044"><ele>34.0</ele><time>2026-05-03T06:53:14.13Z</time></trkpt><trkpt lat="43.7942087" lon="10.4787388"><ele>34.0</ele><time>2026-05-03T06:53:15.13Z</time></trkpt><trkpt lat="43.7943261" lon="10.4788741"><ele>34.0</ele><time>2026-05-03T06:53:16.129Z</time></trkpt><trkpt lat="43.7944425" lon="10.4790135"><ele>34.0</ele><time>2026-05-03T06:53:17.129Z</time></trkpt><trkpt lat="43.7945594" lon="10.4791527"><ele>34.0</ele><time>2026-05-03T06:53:18.13Z</time></trkpt><trkpt lat="43.7946772" lon="10.4792937"><ele>34.0</ele><time>2026-05-03T06:53:19.13Z</time></trkpt><trkpt lat="43.794794" lon="10.4794345"><ele>34.0</ele><time>2026-05-03T06:53:20.13Z</time></trkpt><trkpt lat="43.7949118" lon="10.4795765"><ele>34.0</ele><time>2026-05-03T06:53:21.13Z</time></trkpt><trkpt lat="43.7950304" lon="10.4797199"><ele>33.5</ele><time>2026-05-03T06:53:22.13Z</time></trkpt><trkpt lat="43.7951465" lon="10.4798544"><ele>33.0</ele><time>2026-05-03T06:53:23.13Z</time></trkpt><trkpt lat="43.7952568" lon="10.4799836"><ele>32.5</ele><time>2026-05-03T06:53:24.129Z</time></trkpt><trkpt lat="43.7953627" lon="10.4801083"><ele>32.0</ele><time>2026-05-03T06:53:25.129Z</time></trkpt><trkpt lat="43.795468" lon="10.4802329"><ele>32.0</ele><time>2026-05-03T06:53:26.13Z</time></trkpt><trkpt lat="43.7955735" lon="10.480357"><ele>32.0</ele><time>2026-05-03T06:53:27.13Z</time></trkpt><trkpt lat="43.7956799" lon="10.4804853"><ele>32.0</ele><time>2026-05-03T06:53:28.129Z</time></trkpt><trkpt lat="43.7957888" lon="10.4806177"><ele>32.0</ele><time>2026-05-03T06:53:29.129Z</time></trkpt><trkpt lat="43.7959026" lon="10.4807506"><ele>32.33333333333333</ele><time>2026-05-03T06:53:30.129Z</time></trkpt><trkpt lat="43.7960217" lon="10.4808896"><ele>32.666666666666664</ele><time>2026-05-03T06:53:31.13Z</time></trkpt><trkpt lat="43.7961526" lon="10.4810444"><ele>33.0</ele><time>2026-05-03T06:53:32.129Z</time></trkpt><trkpt lat="43.7962801" lon="10.4811972"><ele>32.333333333333336</ele><time>2026-05-03T06:53:33.129Z</time></trkpt><trkpt lat="43.7964016" lon="10.4813434"><ele>31.666666666666668</ele><time>2026-05-03T06:53:34.129Z</time></trkpt><trkpt lat="43.7965198" lon="10.4814855"><ele>31.0</ele><time>2026-05-03T06:53:35.13Z</time></trkpt><trkpt lat="43.7966306" lon="10.4816199"><ele>31.0</ele><time>2026-05-03T06:53:36.13Z</time></trkpt><trkpt lat="43.7967381" lon="10.4817462"><ele>31.0</ele><time>2026-05-03T06:53:37.129Z</time></trkpt><trkpt lat="43.7968455" lon="10.4818695"><ele>31.0</ele><time>2026-05-03T06:53:38.129Z</time></trkpt><trkpt lat="43.7969496" lon="10.4819887"><ele>31.0</ele><time>2026-05-03T06:53:39.129Z</time></trkpt><trkpt lat="43.7970511" lon="10.4821109"><ele>31.25</ele><time>2026-05-03T06:53:40.129Z</time></trkpt><trkpt lat="43.7971524" lon="10.4822287"><ele>31.5</ele><time>2026-05-03T06:53:41.13Z</time></trkpt><trkpt lat="43.7972529" lon="10.4823494"><ele>31.75</ele><time>2026-05-03T06:53:42.13Z</time></trkpt><trkpt lat="43.7973567" lon="10.4824728"><ele>32.0</ele><time>2026-05-03T06:53:43.129Z</time></trkpt><trkpt lat="43.7974641" lon="10.4825987"><ele>32.0</ele><time>2026-05-03T06:53:44.129Z</time></trkpt><trkpt lat="43.797574" lon="10.4827292"><ele>32.0</ele><time>2026-05-03T06:53:45.13Z</time></trkpt><trkpt lat="43.7976882" lon="10.4828637"><ele>32.0</ele><time>2026-05-03T06:53:46.13Z</time></trkpt><trkpt lat="43.7978083" lon="10.4829986"><ele>32.0</ele><time>2026-05-03T06:53:47.13Z</time></trkpt><trkpt lat="43.7979355" lon="10.4831308"><ele>31.0</ele><time>2026-05-03T06:53:48.13Z</time></trkpt><trkpt lat="43.7980712" lon="10.4832575"><ele>30.0</ele><time>2026-05-03T06:53:49.129Z</time></trkpt><trkpt lat="43.7982142" lon="10.4833792"><ele>29.0</ele><time>2026-05-03T06:53:50.13Z</time></trkpt><trkpt lat="43.7983601" lon="10.4834912"><ele>29.0</ele><time>2026-05-03T06:53:51.13Z</time></trkpt><trkpt lat="43.7985023" lon="10.4835954"><ele>29.0</ele><time>2026-05-03T06:53:52.13Z</time></trkpt><trkpt lat="43.7986358" lon="10.4836944"><ele>29.0</ele><time>2026-05-03T06:53:53.129Z</time></trkpt><trkpt lat="43.7987648" lon="10.4837908"><ele>29.0</ele><time>2026-05-03T06:53:54.13Z</time></trkpt><trkpt lat="43.7988945" lon="10.4838848"><ele>29.0</ele><time>2026-05-03T06:53:55.129Z</time></trkpt><trkpt lat="43.7990186" lon="10.4839762"><ele>29.0</ele><time>2026-05-03T06:53:56.13Z</time></trkpt><trkpt lat="43.7991379" lon="10.4840642"><ele>29.0</ele><time>2026-05-03T06:53:57.13Z</time></trkpt><trkpt lat="43.7992577" lon="10.4841519"><ele>29.25</ele><time>2026-05-03T06:53:58.129Z</time></trkpt><trkpt lat="43.7993787" lon="10.4842369"><ele>29.5</ele><time>2026-05-03T06:53:59.129Z</time></trkpt><trkpt lat="43.7995015" lon="10.4843167"><ele>29.75</ele><time>2026-05-03T06:54:00.129Z</time></trkpt><trkpt lat="43.7996279" lon="10.4843863"><ele>30.0</ele><time>2026-05-03T06:54:01.13Z</time></trkpt><trkpt lat="43.7997581" lon="10.4844456"><ele>30.0</ele><time>2026-05-03T06:54:02.13Z</time></trkpt><trkpt lat="43.7998937" lon="10.48449"><ele>30.0</ele><time>2026-05-03T06:54:03.129Z</time></trkpt><trkpt lat="43.8000366" lon="10.4845212"><ele>30.0</ele><time>2026-05-03T06:54:04.129Z</time></trkpt><trkpt lat="43.8001867" lon="10.4845443"><ele>30.0</ele><time>2026-05-03T06:54:05.129Z</time></trkpt><trkpt lat="43.8003441" lon="10.4845627"><ele>29.666666666666664</ele><time>2026-05-03T06:54:06.129Z</time></trkpt><trkpt lat="43.8005021" lon="10.4845756"><ele>29.333333333333332</ele><time>2026-05-03T06:54:07.129Z</time></trkpt><trkpt lat="43.8006508" lon="10.4845876"><ele>29.0</ele><time>2026-05-03T06:54:08.13Z</time></trkpt><trkpt lat="43.800794" lon="10.4846027"><ele>28.5</ele><time>2026-05-03T06:54:09.129Z</time></trkpt><trkpt lat="43.8009315" lon="10.484616"><ele>28.0</ele><time>2026-05-03T06:54:10.13Z</time></trkpt><trkpt lat="43.8010657" lon="10.4846268"><ele>27.5</ele><time>2026-05-03T06:54:11.13Z</time></trkpt><trkpt lat="43.8011957" lon="10.4846378"><ele>27.0</ele><time>2026-05-03T06:54:12.13Z</time></trkpt><trkpt lat="43.8013274" lon="10.4846518"><ele>27.0</ele><time>2026-05-03T06:54:13.129Z</time></trkpt><trkpt lat="43.8014641" lon="10.4846685"><ele>27.0</ele><time>2026-05-03T06:54:14.13Z</time></trkpt><trkpt lat="43.8016055" lon="10.4846846"><ele>27.0</ele><time>2026-05-03T06:54:15.13Z</time></trkpt><trkpt lat="43.8017458" lon="10.484699"><ele>27.0</ele><time>2026-05-03T06:54:16.13Z</time></trkpt><trkpt lat="43.801883" lon="10.4847124"><ele>26.25</ele><time>2026-05-03T06:54:17.13Z</time></trkpt><trkpt lat="43.8020201" lon="10.4847268"><ele>25.5</ele><time>2026-05-03T06:54:18.129Z</time></trkpt><trkpt lat="43.8021572" lon="10.4847401"><ele>24.75</ele><time>2026-05-03T06:54:19.13Z</time></trkpt><trkpt lat="43.8022961" lon="10.4847487"><ele>24.0</ele><time>2026-05-03T06:54:20.129Z</time></trkpt><trkpt lat="43.8024362" lon="10.4847541"><ele>24.0</ele><time>2026-05-03T06:54:21.129Z</time></trkpt><trkpt lat="43.8025763" lon="10.4847518"><ele>24.0</ele><time>2026-05-03T06:54:22.129Z</time></trkpt><trkpt lat="43.8027174" lon="10.4847322"><ele>24.0</ele><time>2026-05-03T06:54:23.129Z</time></trkpt><trkpt lat="43.8028599" lon="10.4846992"><ele>24.0</ele><time>2026-05-03T06:54:24.129Z</time></trkpt><trkpt lat="43.8030042" lon="10.4846576"><ele>24.0</ele><time>2026-05-03T06:54:25.13Z</time></trkpt><trkpt lat="43.8031537" lon="10.4846117"><ele>24.0</ele><time>2026-05-03T06:54:26.13Z</time></trkpt><trkpt lat="43.8033082" lon="10.484564"><ele>24.0</ele><time>2026-05-03T06:54:27.129Z</time></trkpt><trkpt lat="43.8034565" lon="10.4845155"><ele>23.5</ele><time>2026-05-03T06:54:28.129Z</time></trkpt><trkpt lat="43.8035877" lon="10.4844669"><ele>23.0</ele><time>2026-05-03T06:54:29.13Z</time></trkpt><trkpt lat="43.8037177" lon="10.4844234"><ele>22.5</ele><time>2026-05-03T06:54:30.129Z</time></trkpt><trkpt lat="43.8038468" lon="10.4843807"><ele>22.0</ele><time>2026-05-03T06:54:31.13Z</time></trkpt><trkpt lat="43.8039812" lon="10.4843406"><ele>22.0</ele><time>2026-05-03T06:54:32.13Z</time></trkpt><trkpt lat="43.8041193" lon="10.4843105"><ele>22.0</ele><time>2026-05-03T06:54:33.129Z</time></trkpt><trkpt lat="43.8042624" lon="10.4842912"><ele>22.0</ele><time>2026-05-03T06:54:34.129Z</time></trkpt><trkpt lat="43.8044087" lon="10.4842883"><ele>22.0</ele><time>2026-05-03T06:54:35.129Z</time></trkpt><trkpt lat="43.8045501" lon="10.4842994"><ele>21.5</ele><time>2026-05-03T06:54:36.13Z</time></trkpt><trkpt lat="43.8046854" lon="10.4843197"><ele>21.0</ele><time>2026-05-03T06:54:37.13Z</time></trkpt><trkpt lat="43.8048154" lon="10.4843422"><ele>20.5</ele><time>2026-05-03T06:54:38.129Z</time></trkpt><trkpt lat="43.8049276" lon="10.48436"><ele>20.0</ele><time>2026-05-03T06:54:39.13Z</time></trkpt><trkpt lat="43.8050276" lon="10.4843766"><ele>20.0</ele><time>2026-05-03T06:54:40.13Z</time></trkpt><trkpt lat="43.8051157" lon="10.4843905"><ele>20.0</ele><time>2026-05-03T06:54:41.13Z</time></trkpt><trkpt lat="43.805198" lon="10.4844055"><ele>20.0</ele><time>2026-05-03T06:54:42.129Z</time></trkpt><trkpt lat="43.8052729" lon="10.4844194"><ele>20.0</ele><time>2026-05-03T06:54:43.129Z</time></trkpt><trkpt lat="43.8053459" lon="10.4844328"><ele>20.0</ele><time>2026-05-03T06:54:44.129Z</time></trkpt><trkpt lat="43.8054239" lon="10.4844425"><ele>20.0</ele><time>2026-05-03T06:54:45.129Z</time></trkpt><trkpt lat="43.8055043" lon="10.4844563"><ele>20.0</ele><time>2026-05-03T06:54:46.129Z</time></trkpt><trkpt lat="43.805592" lon="10.4844695"><ele>20.0</ele><time>2026-05-03T06:54:47.13Z</time></trkpt><trkpt lat="43.8056857" lon="10.4844821"><ele>20.0</ele><time>2026-05-03T06:54:48.13Z</time></trkpt><trkpt lat="43.8057874" lon="10.484503"><ele>20.0</ele><time>2026-05-03T06:54:49.13Z</time></trkpt><trkpt lat="43.8058995" lon="10.4845217"><ele>20.0</ele><time>2026-05-03T06:54:50.13Z</time></trkpt><trkpt lat="43.8060221" lon="10.4845403"><ele>20.25</ele><time>2026-05-03T06:54:51.129Z</time></trkpt><trkpt lat="43.806152" lon="10.4845623"><ele>20.5</ele><time>2026-05-03T06:54:52.13Z</time></trkpt><trkpt lat="43.8062895" lon="10.4845857"><ele>20.75</ele><time>2026-05-03T06:54:53.13Z</time></trkpt><trkpt lat="43.8064348" lon="10.4846094"><ele>21.0</ele><time>2026-05-03T06:54:54.129Z</time></trkpt><trkpt lat="43.8065882" lon="10.4846339"><ele>21.0</ele><time>2026-05-03T06:54:55.129Z</time></trkpt><trkpt lat="43.8067401" lon="10.4846563"><ele>21.0</ele><time>2026-05-03T06:54:56.13Z</time></trkpt><trkpt lat="43.8068852" lon="10.4846804"><ele>21.0</ele><time>2026-05-03T06:54:57.13Z</time></trkpt><trkpt lat="43.8070269" lon="10.4847046"><ele>21.0</ele><time>2026-05-03T06:54:58.13Z</time></trkpt><trkpt lat="43.8071596" lon="10.4847334"><ele>21.25</ele><time>2026-05-03T06:54:59.13Z</time></trkpt><trkpt lat="43.8072873" lon="10.4847592"><ele>21.5</ele><time>2026-05-03T06:55:00.13Z</time></trkpt><trkpt lat="43.8074101" lon="10.4847878"><ele>21.75</ele><time>2026-05-03T06:55:01.13Z</time></trkpt><trkpt lat="43.8075251" lon="10.484819"><ele>22.0</ele><time>2026-05-03T06:55:02.13Z</time></trkpt><trkpt lat="43.8076322" lon="10.4848505"><ele>22.200000000000003</ele><time>2026-05-03T06:55:03.129Z</time></trkpt><trkpt lat="43.807734" lon="10.4848771"><ele>22.4</ele><time>2026-05-03T06:55:04.129Z</time></trkpt><trkpt lat="43.8078293" lon="10.4849086"><ele>22.6</ele><time>2026-05-03T06:55:05.129Z</time></trkpt><trkpt lat="43.8079261" lon="10.4849401"><ele>22.799999999999997</ele><time>2026-05-03T06:55:06.129Z</time></trkpt><trkpt lat="43.8080284" lon="10.4849773"><ele>23.0</ele><time>2026-05-03T06:55:07.129Z</time></trkpt><trkpt lat="43.8081408" lon="10.4850155"><ele>23.0</ele><time>2026-05-03T06:55:08.129Z</time></trkpt><trkpt lat="43.80826" lon="10.4850567"><ele>23.0</ele><time>2026-05-03T06:55:09.129Z</time></trkpt><trkpt lat="43.8083863" lon="10.4851024"><ele>23.0</ele><time>2026-05-03T06:55:10.13Z</time></trkpt><trkpt lat="43.8085178" lon="10.4851518"><ele>23.0</ele><time>2026-05-03T06:55:11.129Z</time></trkpt><trkpt lat="43.8086437" lon="10.4851986"><ele>24.0</ele><time>2026-05-03T06:55:12.129Z</time></trkpt><trkpt lat="43.8087635" lon="10.485239"><ele>25.0</ele><time>2026-05-03T06:55:13.13Z</time></trkpt><trkpt lat="43.8088865" lon="10.4852827"><ele>26.0</ele><time>2026-05-03T06:55:14.13Z</time></trkpt><trkpt lat="43.8090146" lon="10.4853268"><ele>27.0</ele><time>2026-05-03T06:55:15.129Z</time></trkpt><trkpt lat="43.8091349" lon="10.4853662"><ele>27.0</ele><time>2026-05-03T06:55:16.13Z</time></trkpt><trkpt lat="43.80925" lon="10.4854067"><ele>27.0</ele><time>2026-05-03T06:55:17.129Z</time></trkpt><trkpt lat="43.8093589" lon="10.4854449"><ele>27.0</ele><time>2026-05-03T06:55:18.129Z</time></trkpt><trkpt lat="43.8094684" lon="10.4854811"><ele>27.0</ele><time>2026-05-03T06:55:19.13Z</time></trkpt><trkpt lat="43.8095755" lon="10.4855193"><ele>25.200000000000003</ele><time>2026-05-03T06:55:20.129Z</time></trkpt><trkpt lat="43.8096852" lon="10.4855537"><ele>23.400000000000002</ele><time>2026-05-03T06:55:21.129Z</time></trkpt><trkpt lat="43.8097925" lon="10.4855944"><ele>21.6</ele><time>2026-05-03T06:55:22.13Z</time></trkpt><trkpt lat="43.8098969" lon="10.4856282"><ele>19.8</ele><time>2026-05-03T06:55:23.129Z</time></trkpt><trkpt lat="43.8099976" lon="10.4856625"><ele>18.0</ele><time>2026-05-03T06:55:24.129Z</time></trkpt><trkpt lat="43.8100988" lon="10.4856968"><ele>18.25</ele><time>2026-05-03T06:55:25.129Z</time></trkpt><trkpt lat="43.8102027" lon="10.4857312"><ele>18.5</ele><time>2026-05-03T06:55:26.13Z</time></trkpt><trkpt lat="43.8103126" lon="10.485764"><ele>18.75</ele><time>2026-05-03T06:55:27.13Z</time></trkpt><trkpt lat="43.8104293" lon="10.4858"><ele>19.0</ele><time>2026-05-03T06:55:28.13Z</time></trkpt><trkpt lat="43.8105487" lon="10.4858395"><ele>19.0</ele><time>2026-05-03T06:55:29.13Z</time></trkpt><trkpt lat="43.8106711" lon="10.4858798"><ele>19.0</ele><time>2026-05-03T06:55:30.13Z</time></trkpt><trkpt lat="43.8107986" lon="10.4859216"><ele>19.0</ele><time>2026-05-03T06:55:31.129Z</time></trkpt><trkpt lat="43.8109291" lon="10.4859634"><ele>19.0</ele><time>2026-05-03T06:55:32.129Z</time></trkpt><trkpt lat="43.8110628" lon="10.4860098"><ele>19.25</ele><time>2026-05-03T06:55:33.129Z</time></trkpt><trkpt lat="43.8111966" lon="10.4860549"><ele>19.5</ele><time>2026-05-03T06:55:34.13Z</time></trkpt><trkpt lat="43.8113313" lon="10.4861074"><ele>19.75</ele><time>2026-05-03T06:55:35.129Z</time></trkpt><trkpt lat="43.8114665" lon="10.4861632"><ele>20.0</ele><time>2026-05-03T06:55:36.129Z</time></trkpt><trkpt lat="43.8116047" lon="10.4862285"><ele>19.5</ele><time>2026-05-03T06:55:37.13Z</time></trkpt><trkpt lat="43.8117429" lon="10.4862897"><ele>19.0</ele><time>2026-05-03T06:55:38.129Z</time></trkpt><trkpt lat="43.8118825" lon="10.4863517"><ele>18.5</ele><time>2026-05-03T06:55:39.13Z</time></trkpt><trkpt lat="43.8120252" lon="10.486415"><ele>18.0</ele><time>2026-05-03T06:55:40.13Z</time></trkpt><trkpt lat="43.8121657" lon="10.486483"><ele>18.0</ele><time>2026-05-03T06:55:41.129Z</time></trkpt><trkpt lat="43.8123106" lon="10.4865521"><ele>18.0</ele><time>2026-05-03T06:55:42.13Z</time></trkpt><trkpt lat="43.8124561" lon="10.4866225"><ele>18.0</ele><time>2026-05-03T06:55:43.13Z</time></trkpt><trkpt lat="43.8126016" lon="10.48669"><ele>17.333333333333332</ele><time>2026-05-03T06:55:44.13Z</time></trkpt><trkpt lat="43.8127485" lon="10.486756"><ele>16.666666666666664</ele><time>2026-05-03T06:55:45.13Z</time></trkpt><trkpt lat="43.8129007" lon="10.4868209"><ele>16.0</ele><time>2026-05-03T06:55:46.129Z</time></trkpt><trkpt lat="43.8130547" lon="10.4868885"><ele>16.0</ele><time>2026-05-03T06:55:47.13Z</time></trkpt><trkpt lat="43.8132137" lon="10.4869532"><ele>16.0</ele><time>2026-05-03T06:55:48.129Z</time></trkpt><trkpt lat="43.8133623" lon="10.4870127"><ele>16.0</ele><time>2026-05-03T06:55:49.13Z</time></trkpt><trkpt lat="43.8135065" lon="10.4870729"><ele>15.5</ele><time>2026-05-03T06:55:50.129Z</time></trkpt><trkpt lat="43.8136425" lon="10.4871303"><ele>15.0</ele><time>2026-05-03T06:55:51.129Z</time></trkpt><trkpt lat="43.8137755" lon="10.487186"><ele>14.5</ele><time>2026-05-03T06:55:52.129Z</time></trkpt><trkpt lat="43.8139008" lon="10.4872412"><ele>14.0</ele><time>2026-05-03T06:55:53.13Z</time></trkpt><trkpt lat="43.8140196" lon="10.4872999"><ele>14.0</ele><time>2026-05-03T06:55:54.13Z</time></trkpt><trkpt lat="43.8141377" lon="10.4873602"><ele>14.0</ele><time>2026-05-03T06:55:55.129Z</time></trkpt><trkpt lat="43.8142483" lon="10.487426"><ele>14.0</ele><time>2026-05-03T06:55:56.129Z</time></trkpt><trkpt lat="43.8143584" lon="10.4874943"><ele>14.0</ele><time>2026-05-03T06:55:57.129Z</time></trkpt><trkpt lat="43.8144685" lon="10.4875708"><ele>14.25</ele><time>2026-05-03T06:55:58.13Z</time></trkpt><trkpt lat="43.8145842" lon="10.4876515"><ele>14.5</ele><time>2026-05-03T06:55:59.13Z</time></trkpt><trkpt lat="43.8147062" lon="10.4877335"><ele>14.75</ele><time>2026-05-03T06:56:00.129Z</time></trkpt><trkpt lat="43.8148325" lon="10.4878202"><ele>15.0</ele><time>2026-05-03T06:56:01.129Z</time></trkpt><trkpt lat="43.8149659" lon="10.4879141"><ele>14.5</ele><time>2026-05-03T06:56:02.13Z</time></trkpt><trkpt lat="43.8150966" lon="10.4880088"><ele>14.0</ele><time>2026-05-03T06:56:03.129Z</time></trkpt><trkpt lat="43.8152224" lon="10.4880986"><ele>13.5</ele><time>2026-05-03T06:56:04.129Z</time></trkpt><trkpt lat="43.8153463" lon="10.4881826"><ele>13.0</ele><time>2026-05-03T06:56:05.13Z</time></trkpt><trkpt lat="43.8154688" lon="10.4882571"><ele>13.0</ele><time>2026-05-03T06:56:06.129Z</time></trkpt><trkpt lat="43.8155858" lon="10.4883241"><ele>13.0</ele><time>2026-05-03T06:56:07.13Z</time></trkpt><trkpt lat="43.8156929" lon="10.4883842"><ele>13.0</ele><time>2026-05-03T06:56:08.13Z</time></trkpt><trkpt lat="43.8157842" lon="10.4884311"><ele>13.0</ele><time>2026-05-03T06:56:09.13Z</time></trkpt><trkpt lat="43.8158663" lon="10.4884745"><ele>13.0</ele><time>2026-05-03T06:56:10.129Z</time></trkpt><trkpt lat="43.8159382" lon="10.4885157"><ele>12.833333333333332</ele><time>2026-05-03T06:56:11.129Z</time></trkpt><trkpt lat="43.8160034" lon="10.4885578"><ele>12.666666666666666</ele><time>2026-05-03T06:56:12.129Z</time></trkpt><trkpt lat="43.816065" lon="10.4885995"><ele>12.5</ele><time>2026-05-03T06:56:13.13Z</time></trkpt><trkpt lat="43.8161262" lon="10.4886548"><ele>12.333333333333332</ele><time>2026-05-03T06:56:14.13Z</time></trkpt><trkpt lat="43.8161813" lon="10.488729"><ele>12.166666666666666</ele><time>2026-05-03T06:56:15.13Z</time></trkpt><trkpt lat="43.816242" lon="10.4888019"><ele>12.0</ele><time>2026-05-03T06:56:16.129Z</time></trkpt><trkpt lat="43.8163156" lon="10.4888441"><ele>12.0</ele><time>2026-05-03T06:56:17.13Z</time></trkpt><trkpt lat="43.8163887" lon="10.4888422"><ele>12.0</ele><time>2026-05-03T06:56:18.13Z</time></trkpt><trkpt lat="43.8164571" lon="10.4888018"><ele>12.0</ele><time>2026-05-03T06:56:19.13Z</time></trkpt><trkpt lat="43.8165103" lon="10.4887246"><ele>12.0</ele><time>2026-05-03T06:56:20.129Z</time></trkpt><trkpt lat="43.8165587" lon="10.4886299"><ele>12.0</ele><time>2026-05-03T06:56:21.129Z</time></trkpt><trkpt lat="43.816625" lon="10.4885381"><ele>12.0</ele><time>2026-05-03T06:56:22.13Z</time></trkpt><trkpt lat="43.8167137" lon="10.4884611"><ele>11.5</ele><time>2026-05-03T06:56:23.13Z</time></trkpt><trkpt lat="43.816821" lon="10.4883991"><ele>11.0</ele><time>2026-05-03T06:56:24.129Z</time></trkpt><trkpt lat="43.8169526" lon="10.4883425"><ele>10.5</ele><time>2026-05-03T06:56:25.13Z</time></trkpt><trkpt lat="43.817108" lon="10.488287"><ele>10.0</ele><time>2026-05-03T06:56:26.129Z</time></trkpt><trkpt lat="43.8172762" lon="10.4882366"><ele>10.0</ele><time>2026-05-03T06:56:27.129Z</time></trkpt><trkpt lat="43.817452" lon="10.4881893"><ele>10.0</ele><time>2026-05-03T06:56:28.13Z</time></trkpt><trkpt lat="43.8176269" lon="10.4881427"><ele>10.0</ele><time>2026-05-03T06:56:29.13Z</time></trkpt><trkpt lat="43.8177902" lon="10.4880983"><ele>10.666666666666668</ele><time>2026-05-03T06:56:30.129Z</time></trkpt><trkpt lat="43.8179543" lon="10.4880517"><ele>11.333333333333334</ele><time>2026-05-03T06:56:31.13Z</time></trkpt><trkpt lat="43.8181454" lon="10.4879967"><ele>12.0</ele><time>2026-05-03T06:56:32.13Z</time></trkpt><trkpt lat="43.818355" lon="10.487945"><ele>12.0</ele><time>2026-05-03T06:56:33.13Z</time></trkpt><trkpt lat="43.8185521" lon="10.4879051"><ele>12.0</ele><time>2026-05-03T06:56:34.129Z</time></trkpt><trkpt lat="43.8187426" lon="10.4878834"><ele>12.0</ele><time>2026-05-03T06:56:35.13Z</time></trkpt><trkpt lat="43.8189405" lon="10.48788"><ele>12.0</ele><time>2026-05-03T06:56:36.129Z</time></trkpt><trkpt lat="43.8191493" lon="10.4878968"><ele>12.0</ele><time>2026-05-03T06:56:37.13Z</time></trkpt><trkpt lat="43.8193667" lon="10.4879394"><ele>12.0</ele><time>2026-05-03T06:56:38.129Z</time></trkpt><trkpt lat="43.8195918" lon="10.4880013"><ele>12.5</ele><time>2026-05-03T06:56:39.13Z</time></trkpt><trkpt lat="43.8198309" lon="10.4880736"><ele>13.0</ele><time>2026-05-03T06:56:40.13Z</time></trkpt><trkpt lat="43.8200798" lon="10.4881405"><ele>12.5</ele><time>2026-05-03T06:56:41.13Z</time></trkpt><trkpt lat="43.8203352" lon="10.4882071"><ele>12.0</ele><time>2026-05-03T06:56:42.13Z</time></trkpt><trkpt lat="43.8205985" lon="10.4882727"><ele>12.0</ele><time>2026-05-03T06:56:43.129Z</time></trkpt><trkpt lat="43.8208663" lon="10.488343"><ele>12.0</ele><time>2026-05-03T06:56:44.13Z</time></trkpt><trkpt lat="43.821137" lon="10.488412"><ele>12.0</ele><time>2026-05-03T06:56:45.129Z</time></trkpt><trkpt lat="43.8214046" lon="10.4884618"><ele>12.0</ele><time>2026-05-03T06:56:46.129Z</time></trkpt><trkpt lat="43.821672" lon="10.4884904"><ele>11.5</ele><time>2026-05-03T06:56:47.13Z</time></trkpt><trkpt lat="43.8219376" lon="10.4884876"><ele>11.0</ele><time>2026-05-03T06:56:48.129Z</time></trkpt><trkpt lat="43.822204" lon="10.4884531"><ele>11.0</ele><time>2026-05-03T06:56:49.129Z</time></trkpt><trkpt lat="43.8224684" lon="10.4883865"><ele>11.0</ele><time>2026-05-03T06:56:50.129Z</time></trkpt><trkpt lat="43.8227261" lon="10.4882825"><ele>10.5</ele><time>2026-05-03T06:56:51.129Z</time></trkpt><trkpt lat="43.8229744" lon="10.4881445"><ele>10.0</ele><time>2026-05-03T06:56:52.13Z</time></trkpt><trkpt lat="43.8232195" lon="10.4879841"><ele>10.0</ele><time>2026-05-03T06:56:53.129Z</time></trkpt><trkpt lat="43.8234651" lon="10.4878144"><ele>10.0</ele><time>2026-05-03T06:56:54.13Z</time></trkpt><trkpt lat="43.8237112" lon="10.4876367"><ele>10.5</ele><time>2026-05-03T06:56:55.129Z</time></trkpt><trkpt lat="43.8239608" lon="10.48746"><ele>11.0</ele><time>2026-05-03T06:56:56.129Z</time></trkpt><trkpt lat="43.8241989" lon="10.4872909"><ele>11.5</ele><time>2026-05-03T06:56:57.129Z</time></trkpt><trkpt lat="43.824427" lon="10.4871317"><ele>12.0</ele><time>2026-05-03T06:56:58.13Z</time></trkpt><trkpt lat="43.8246484" lon="10.486988"><ele>12.0</ele><time>2026-05-03T06:56:59.129Z</time></trkpt><trkpt lat="43.8248686" lon="10.4868612"><ele>12.0</ele><time>2026-05-03T06:57:00.129Z</time></trkpt><trkpt lat="43.8250919" lon="10.4867551"><ele>11.0</ele><time>2026-05-03T06:57:01.129Z</time></trkpt><trkpt lat="43.8253184" lon="10.4866796"><ele>10.0</ele><time>2026-05-03T06:57:02.13Z</time></trkpt><trkpt lat="43.8255439" lon="10.4866315"><ele>10.0</ele><time>2026-05-03T06:57:03.129Z</time></trkpt><trkpt lat="43.825761" lon="10.4866056"><ele>10.0</ele><time>2026-05-03T06:57:04.13Z</time></trkpt><trkpt lat="43.8259746" lon="10.486603"><ele>10.0</ele><time>2026-05-03T06:57:05.13Z</time></trkpt><trkpt lat="43.8261872" lon="10.4866214"><ele>10.0</ele><time>2026-05-03T06:57:06.13Z</time></trkpt><trkpt lat="43.8263973" lon="10.4866576"><ele>10.0</ele><time>2026-05-03T06:57:07.13Z</time></trkpt><trkpt lat="43.8266107" lon="10.4867054"><ele>10.0</ele><time>2026-05-03T06:57:08.13Z</time></trkpt><trkpt lat="43.8268324" lon="10.4867628"><ele>10.0</ele><time>2026-05-03T06:57:09.13Z</time></trkpt><trkpt lat="43.827061" lon="10.4868202"><ele>10.0</ele><time>2026-05-03T06:57:10.129Z</time></trkpt><trkpt lat="43.8273005" lon="10.4868844"><ele>10.0</ele><time>2026-05-03T06:57:11.129Z</time></trkpt><trkpt lat="43.8275489" lon="10.4869614"><ele>10.0</ele><time>2026-05-03T06:57:12.13Z</time></trkpt><trkpt lat="43.8278078" lon="10.4870446"><ele>10.5</ele><time>2026-05-03T06:57:13.129Z</time></trkpt><trkpt lat="43.8280706" lon="10.4871255"><ele>11.0</ele><time>2026-05-03T06:57:14.129Z</time></trkpt><trkpt lat="43.8283147" lon="10.4871967"><ele>11.0</ele><time>2026-05-03T06:57:15.13Z</time></trkpt><trkpt lat="43.8285424" lon="10.4872651"><ele>11.0</ele><time>2026-05-03T06:57:16.13Z</time></trkpt><trkpt lat="43.8287579" lon="10.4873522"><ele>11.0</ele><time>2026-05-03T06:57:17.129Z</time></trkpt><trkpt lat="43.8289567" lon="10.4874573"><ele>11.0</ele><time>2026-05-03T06:57:18.129Z</time></trkpt><trkpt lat="43.8291242" lon="10.4875744"><ele>11.0</ele><time>2026-05-03T06:57:19.129Z</time></trkpt><trkpt lat="43.8292725" lon="10.4877055"><ele>11.333333333333332</ele><time>2026-05-03T06:57:20.13Z</time></trkpt><trkpt lat="43.8294054" lon="10.4878522"><ele>11.666666666666666</ele><time>2026-05-03T06:57:21.13Z</time></trkpt><trkpt lat="43.8295255" lon="10.4880166"><ele>12.0</ele><time>2026-05-03T06:57:22.13Z</time></trkpt><trkpt lat="43.8296403" lon="10.4882062"><ele>12.333333333333332</ele><time>2026-05-03T06:57:23.129Z</time></trkpt><trkpt lat="43.8297478" lon="10.4884139"><ele>12.666666666666666</ele><time>2026-05-03T06:57:24.129Z</time></trkpt><trkpt lat="43.8298488" lon="10.4886401"><ele>13.0</ele><time>2026-05-03T06:57:25.129Z</time></trkpt><trkpt lat="43.8299435" lon="10.4888704"><ele>12.333333333333332</ele><time>2026-05-03T06:57:26.13Z</time></trkpt><trkpt lat="43.8300296" lon="10.4890914"><ele>11.666666666666666</ele><time>2026-05-03T06:57:27.129Z</time></trkpt><trkpt lat="43.8301068" lon="10.4893067"><ele>11.0</ele><time>2026-05-03T06:57:28.129Z</time></trkpt><trkpt lat="43.8301707" lon="10.489519"><ele>11.666666666666666</ele><time>2026-05-03T06:57:29.129Z</time></trkpt><trkpt lat="43.830221" lon="10.4897468"><ele>12.333333333333332</ele><time>2026-05-03T06:57:30.13Z</time></trkpt><trkpt lat="43.830253" lon="10.489986"><ele>13.0</ele><time>2026-05-03T06:57:31.129Z</time></trkpt><trkpt lat="43.8302679" lon="10.4902337"><ele>12.666666666666666</ele><time>2026-05-03T06:57:32.13Z</time></trkpt><trkpt lat="43.8302657" lon="10.4904716"><ele>12.333333333333332</ele><time>2026-05-03T06:57:33.129Z</time></trkpt><trkpt lat="43.8302578" lon="10.4907018"><ele>12.0</ele><time>2026-05-03T06:57:34.13Z</time></trkpt><trkpt lat="43.8302489" lon="10.4909238"><ele>12.0</ele><time>2026-05-03T06:57:35.13Z</time></trkpt><trkpt lat="43.8302284" lon="10.4911342"><ele>12.0</ele><time>2026-05-03T06:57:36.129Z</time></trkpt><trkpt lat="43.8301846" lon="10.4913301"><ele>12.0</ele><time>2026-05-03T06:57:37.129Z</time></trkpt><trkpt lat="43.8301126" lon="10.4915129"><ele>11.666666666666666</ele><time>2026-05-03T06:57:38.129Z</time></trkpt><trkpt lat="43.8300246" lon="10.4916849"><ele>11.333333333333332</ele><time>2026-05-03T06:57:39.129Z</time></trkpt><trkpt lat="43.8299314" lon="10.4918567"><ele>11.0</ele><time>2026-05-03T06:57:40.129Z</time></trkpt><trkpt lat="43.829852" lon="10.4920243"><ele>10.8</ele><time>2026-05-03T06:57:41.13Z</time></trkpt><trkpt lat="43.8297989" lon="10.492187"><ele>10.600000000000001</ele><time>2026-05-03T06:57:42.129Z</time></trkpt><trkpt lat="43.8297782" lon="10.4923402"><ele>10.4</ele><time>2026-05-03T06:57:43.129Z</time></trkpt><trkpt lat="43.8297935" lon="10.4924826"><ele>10.2</ele><time>2026-05-03T06:57:44.129Z</time></trkpt><trkpt lat="43.8298403" lon="10.4926059"><ele>10.0</ele><time>2026-05-03T06:57:45.13Z</time></trkpt><trkpt lat="43.8299101" lon="10.492705"><ele>10.0</ele><time>2026-05-03T06:57:46.13Z</time></trkpt><trkpt lat="43.8299936" lon="10.4927811"><ele>10.0</ele><time>2026-05-03T06:57:47.13Z</time></trkpt><trkpt lat="43.8300799" lon="10.4928294"><ele>10.0</ele><time>2026-05-03T06:57:48.13Z</time></trkpt><trkpt lat="43.8301533" lon="10.4928606"><ele>10.0</ele><time>2026-05-03T06:57:49.129Z</time></trkpt><trkpt lat="43.8302592" lon="10.4929043"><ele>10.0</ele><time>2026-05-03T06:57:51.13Z</time></trkpt><trkpt lat="43.8303474" lon="10.4929477"><ele>10.333333333333334</ele><time>2026-05-03T06:57:53.129Z</time></trkpt><trkpt lat="43.8304264" lon="10.4929971"><ele>10.666666666666668</ele><time>2026-05-03T06:57:55.13Z</time></trkpt><trkpt lat="43.8305009" lon="10.4931055"><ele>11.0</ele><time>2026-05-03T06:57:57.13Z</time></trkpt><trkpt lat="43.8305217" lon="10.4931896"><ele>11.333333333333334</ele><time>2026-05-03T06:57:58.13Z</time></trkpt><trkpt lat="43.8305263" lon="10.493289"><ele>11.666666666666666</ele><time>2026-05-03T06:57:59.13Z</time></trkpt><trkpt lat="43.8305302" lon="10.4933948"><ele>12.0</ele><time>2026-05-03T06:58:00.129Z</time></trkpt><trkpt lat="43.8305397" lon="10.4935018"><ele>12.0</ele><time>2026-05-03T06:58:01.13Z</time></trkpt><trkpt lat="43.8305596" lon="10.4936152"><ele>12.0</ele><time>2026-05-03T06:58:02.129Z</time></trkpt><trkpt lat="43.8305817" lon="10.4937368"><ele>12.0</ele><time>2026-05-03T06:58:03.13Z</time></trkpt><trkpt lat="43.8306049" lon="10.4938694"><ele>12.0</ele><time>2026-05-03T06:58:04.13Z</time></trkpt><trkpt lat="43.8306314" lon="10.4939963"><ele>12.0</ele><time>2026-05-03T06:58:05.129Z</time></trkpt><trkpt lat="43.8306709" lon="10.4941088"><ele>12.0</ele><time>2026-05-03T06:58:06.13Z</time></trkpt><trkpt lat="43.8307251" lon="10.4942104"><ele>12.0</ele><time>2026-05-03T06:58:07.13Z</time></trkpt><trkpt lat="43.8307978" lon="10.49429"><ele>12.0</ele><time>2026-05-03T06:58:08.129Z</time></trkpt><trkpt lat="43.830881" lon="10.4943402"><ele>12.0</ele><time>2026-05-03T06:58:09.129Z</time></trkpt><trkpt lat="43.8309753" lon="10.4943512"><ele>12.0</ele><time>2026-05-03T06:58:10.13Z</time></trkpt><trkpt lat="43.8310662" lon="10.4943345"><ele>12.0</ele><time>2026-05-03T06:58:11.13Z</time></trkpt><trkpt lat="43.8311545" lon="10.4943024"><ele>12.0</ele><time>2026-05-03T06:58:12.129Z</time></trkpt><trkpt lat="43.8312416" lon="10.4942676"><ele>12.0</ele><time>2026-05-03T06:58:13.129Z</time></trkpt><trkpt lat="43.8313307" lon="10.4942402"><ele>12.0</ele><time>2026-05-03T06:58:14.129Z</time></trkpt><trkpt lat="43.8314168" lon="10.4942219"><ele>12.0</ele><time>2026-05-03T06:58:15.13Z</time></trkpt><trkpt lat="43.8314966" lon="10.4942267"><ele>12.0</ele><time>2026-05-03T06:58:16.13Z</time></trkpt><trkpt lat="43.8315724" lon="10.4942448"><ele>12.0</ele><time>2026-05-03T06:58:17.129Z</time></trkpt><trkpt lat="43.83164" lon="10.4942743"><ele>12.0</ele><time>2026-05-03T06:58:18.129Z</time></trkpt><trkpt lat="43.8316967" lon="10.494314"><ele>12.0</ele><time>2026-05-03T06:58:19.129Z</time></trkpt><trkpt lat="43.8317846" lon="10.4944147"><ele>12.0</ele><time>2026-05-03T06:58:21.129Z</time></trkpt><trkpt lat="43.8318216" lon="10.4945187"><ele>12.0</ele><time>2026-05-03T06:58:23.129Z</time></trkpt><trkpt lat="43.831824" lon="10.494623"><ele>12.0</ele><time>2026-05-03T06:58:25.129Z</time></trkpt><trkpt lat="43.8318116" lon="10.4947414"><ele>12.0</ele><time>2026-05-03T06:58:27.13Z</time></trkpt><trkpt lat="43.8317392" lon="10.4948307"><ele>12.0</ele><time>2026-05-03T06:58:29.13Z</time></trkpt><trkpt lat="43.8316404" lon="10.4948339"><ele>12.0</ele><time>2026-05-03T06:58:31.129Z</time></trkpt><trkpt lat="43.8315579" lon="10.4947915"><ele>12.0</ele><time>2026-05-03T06:58:33.13Z</time></trkpt><trkpt lat="43.8314858" lon="10.4947781"><ele>12.0</ele><time>2026-05-03T06:58:35.129Z</time></trkpt><trkpt lat="43.8313927" lon="10.4947631"><ele>11.999999999999998</ele><time>2026-05-03T06:58:38.129Z</time></trkpt><trkpt lat="43.8313308" lon="10.4948313"><ele>12.0</ele><time>2026-05-03T06:58:41.129Z</time></trkpt><trkpt lat="43.8313237" lon="10.4949241"><ele>12.0</ele><time>2026-05-03T06:58:44.129Z</time></trkpt><trkpt lat="43.8313721" lon="10.4949829"><ele>12.0</ele><time>2026-05-03T06:58:47.13Z</time></trkpt><trkpt lat="43.8314356" lon="10.4949949"><ele>12.0</ele><time>2026-05-03T06:58:50.13Z</time></trkpt><trkpt lat="43.8314711" lon="10.4949195"><ele>11.999999999999998</ele><time>2026-05-03T06:58:54.13Z</time></trkpt><trkpt lat="43.8315248" lon="10.494988"><ele>12.0</ele><time>2026-05-03T07:06:14.132Z</time></trkpt><trkpt lat="43.8315948" lon="10.4949988"><ele>12.0</ele><time>2026-05-03T07:06:16.133Z</time></trkpt><trkpt lat="43.8316612" lon="10.495018"><ele>12.0</ele><time>2026-05-03T07:06:18.132Z</time></trkpt><trkpt lat="43.8317308" lon="10.4950221"><ele>12.0</ele><time>2026-05-03T07:06:28.133Z</time></trkpt><trkpt lat="43.8317908" lon="10.4949651"><ele>12.0</ele><time>2026-05-03T07:06:31.133Z</time></trkpt><trkpt lat="43.8318098" lon="10.4948449"><ele>12.0</ele><time>2026-05-03T07:06:33.133Z</time></trkpt><trkpt lat="43.8318206" lon="10.4947442"><ele>12.0</ele><time>2026-05-03T07:06:35.132Z</time></trkpt><trkpt lat="43.8318283" lon="10.49462"><ele>12.166666666666666</ele><time>2026-05-03T07:06:38.132Z</time></trkpt><trkpt lat="43.8318291" lon="10.494522"><ele>12.333333333333332</ele><time>2026-05-03T07:06:42.133Z</time></trkpt><trkpt lat="43.8318327" lon="10.4944345"><ele>12.5</ele><time>2026-05-03T07:06:46.132Z</time></trkpt><trkpt lat="43.8318728" lon="10.4943309"><ele>12.666666666666666</ele><time>2026-05-03T07:06:53.133Z</time></trkpt><trkpt lat="43.8319722" lon="10.4942723"><ele>12.833333333333332</ele><time>2026-05-03T07:06:55.133Z</time></trkpt><trkpt lat="43.8320436" lon="10.4942688"><ele>13.0</ele><time>2026-05-03T07:06:56.133Z</time></trkpt><trkpt lat="43.8321249" lon="10.4942763"><ele>12.999999999999998</ele><time>2026-05-03T07:06:57.133Z</time></trkpt><trkpt lat="43.8322003" lon="10.4942896"><ele>13.0</ele><time>2026-05-03T07:06:58.132Z</time></trkpt><trkpt lat="43.8322781" lon="10.4942992"><ele>13.0</ele><time>2026-05-03T07:06:59.133Z</time></trkpt><trkpt lat="43.8323575" lon="10.4943114"><ele>13.0</ele><time>2026-05-03T07:07:00.132Z</time></trkpt><trkpt lat="43.8324425" lon="10.4943229"><ele>12.999999999999998</ele><time>2026-05-03T07:07:01.132Z</time></trkpt><trkpt lat="43.8325321" lon="10.4943385"><ele>13.0</ele><time>2026-05-03T07:07:02.133Z</time></trkpt><trkpt lat="43.8326269" lon="10.4943568"><ele>12.8</ele><time>2026-05-03T07:07:03.132Z</time></trkpt><trkpt lat="43.8327158" lon="10.4943696"><ele>12.600000000000001</ele><time>2026-05-03T07:07:04.132Z</time></trkpt><trkpt lat="43.8328097" lon="10.4943808"><ele>12.399999999999999</ele><time>2026-05-03T07:07:05.132Z</time></trkpt><trkpt lat="43.8329028" lon="10.4943961"><ele>12.2</ele><time>2026-05-03T07:07:06.132Z</time></trkpt><trkpt lat="43.8329924" lon="10.4944101"><ele>12.0</ele><time>2026-05-03T07:07:07.132Z</time></trkpt><trkpt lat="43.8330766" lon="10.4944221"><ele>12.0</ele><time>2026-05-03T07:07:08.133Z</time></trkpt><trkpt lat="43.8331579" lon="10.4944335"><ele>12.0</ele><time>2026-05-03T07:07:09.133Z</time></trkpt><trkpt lat="43.8332367" lon="10.4944449"><ele>12.0</ele><time>2026-05-03T07:07:10.132Z</time></trkpt><trkpt lat="43.8333135" lon="10.4944571"><ele>12.0</ele><time>2026-05-03T07:07:11.132Z</time></trkpt><trkpt lat="43.8333907" lon="10.4944671"><ele>12.0</ele><time>2026-05-03T07:07:12.133Z</time></trkpt><trkpt lat="43.8334676" lon="10.4944792"><ele>12.0</ele><time>2026-05-03T07:07:13.133Z</time></trkpt><trkpt lat="43.833543" lon="10.4944905"><ele>12.166666666666666</ele><time>2026-05-03T07:07:14.132Z</time></trkpt><trkpt lat="43.8336189" lon="10.4945029"><ele>12.333333333333332</ele><time>2026-05-03T07:07:15.132Z</time></trkpt><trkpt lat="43.8336947" lon="10.4945098"><ele>12.5</ele><time>2026-05-03T07:07:16.133Z</time></trkpt><trkpt lat="43.8337721" lon="10.4945195"><ele>12.666666666666666</ele><time>2026-05-03T07:07:17.132Z</time></trkpt><trkpt lat="43.83385" lon="10.4945301"><ele>12.833333333333332</ele><time>2026-05-03T07:07:18.132Z</time></trkpt><trkpt lat="43.8339272" lon="10.4945428"><ele>13.0</ele><time>2026-05-03T07:07:19.133Z</time></trkpt><trkpt lat="43.8340032" lon="10.4945532"><ele>12.999999999999998</ele><time>2026-05-03T07:07:20.132Z</time></trkpt><trkpt lat="43.8340809" lon="10.4945665"><ele>13.0</ele><time>2026-05-03T07:07:21.132Z</time></trkpt><trkpt lat="43.8341561" lon="10.4945758"><ele>13.0</ele><time>2026-05-03T07:07:22.132Z</time></trkpt><trkpt lat="43.8342316" lon="10.494589"><ele>13.0</ele><time>2026-05-03T07:07:23.132Z</time></trkpt><trkpt lat="43.8343084" lon="10.4946008"><ele>12.999999999999998</ele><time>2026-05-03T07:07:24.133Z</time></trkpt><trkpt lat="43.8343867" lon="10.4946095"><ele>13.0</ele><time>2026-05-03T07:07:25.132Z</time></trkpt><trkpt lat="43.8344634" lon="10.4946183"><ele>13.2</ele><time>2026-05-03T07:07:26.133Z</time></trkpt><trkpt lat="43.8345424" lon="10.4946291"><ele>13.4</ele><time>2026-05-03T07:07:27.132Z</time></trkpt><trkpt lat="43.8346293" lon="10.4946441"><ele>13.599999999999998</ele><time>2026-05-03T07:07:28.132Z</time></trkpt><trkpt lat="43.8347217" lon="10.494657"><ele>13.799999999999999</ele><time>2026-05-03T07:07:29.132Z</time></trkpt><trkpt lat="43.8348176" lon="10.4946748"><ele>14.0</ele><time>2026-05-03T07:07:30.132Z</time></trkpt><trkpt lat="43.834917" lon="10.4946932"><ele>14.0</ele><time>2026-05-03T07:07:31.132Z</time></trkpt><trkpt lat="43.8350224" lon="10.4947103"><ele>13.999999999999998</ele><time>2026-05-03T07:07:32.133Z</time></trkpt><trkpt lat="43.8351238" lon="10.4947261"><ele>13.999999999999998</ele><time>2026-05-03T07:07:33.133Z</time></trkpt><trkpt lat="43.835221" lon="10.4947369"><ele>14.0</ele><time>2026-05-03T07:07:34.132Z</time></trkpt><trkpt lat="43.8353157" lon="10.4947497"><ele>14.0</ele><time>2026-05-03T07:07:35.132Z</time></trkpt><trkpt lat="43.835403" lon="10.494757"><ele>14.000000000000002</ele><time>2026-05-03T07:07:36.133Z</time></trkpt><trkpt lat="43.8354845" lon="10.4947662"><ele>14.0</ele><time>2026-05-03T07:07:37.133Z</time></trkpt><trkpt lat="43.8355563" lon="10.4947811"><ele>14.0</ele><time>2026-05-03T07:07:38.132Z</time></trkpt><trkpt lat="43.8356687" lon="10.4947972"><ele>14.0</ele><time>2026-05-03T07:07:40.132Z</time></trkpt><trkpt lat="43.8357456" lon="10.4948058"><ele>14.000000000000002</ele><time>2026-05-03T07:07:42.132Z</time></trkpt><trkpt lat="43.8358252" lon="10.4948385"><ele>14.0</ele><time>2026-05-03T07:07:45.132Z</time></trkpt><trkpt lat="43.8359153" lon="10.4948624"><ele>14.399999999999999</ele><time>2026-05-03T07:08:42.132Z</time></trkpt><trkpt lat="43.8360283" lon="10.4948808"><ele>14.799999999999999</ele><time>2026-05-03T07:08:44.133Z</time></trkpt><trkpt lat="43.83616" lon="10.4948926"><ele>15.200000000000001</ele><time>2026-05-03T07:08:46.132Z</time></trkpt><trkpt lat="43.8362384" lon="10.4949035"><ele>15.600000000000001</ele><time>2026-05-03T07:08:47.133Z</time></trkpt><trkpt lat="43.8363419" lon="10.4949252"><ele>16.0</ele><time>2026-05-03T07:08:48.132Z</time></trkpt><trkpt lat="43.8364526" lon="10.4949406"><ele>16.0</ele><time>2026-05-03T07:08:49.133Z</time></trkpt><trkpt lat="43.8365481" lon="10.4949533"><ele>16.0</ele><time>2026-05-03T07:08:50.133Z</time></trkpt><trkpt lat="43.8366442" lon="10.4949661"><ele>16.0</ele><time>2026-05-03T07:08:51.117Z</time></trkpt><trkpt lat="43.8367492" lon="10.494981"><ele>16.0</ele><time>2026-05-03T07:08:52.112Z</time></trkpt><trkpt lat="43.8368593" lon="10.494998"><ele>16.0</ele><time>2026-05-03T07:08:53.115Z</time></trkpt><trkpt lat="43.8369731" lon="10.4950138"><ele>16.0</ele><time>2026-05-03T07:08:54.114Z</time></trkpt><trkpt lat="43.8370885" lon="10.4950304"><ele>16.0</ele><time>2026-05-03T07:08:55.113Z</time></trkpt><trkpt lat="43.8372015" lon="10.4950477"><ele>16.0</ele><time>2026-05-03T07:08:56.115Z</time></trkpt><trkpt lat="43.8373111" lon="10.4950614"><ele>16.0</ele><time>2026-05-03T07:08:57.114Z</time></trkpt><trkpt lat="43.8374201" lon="10.4950758"><ele>16.0</ele><time>2026-05-03T07:08:58.114Z</time></trkpt><trkpt lat="43.8375301" lon="10.4950907"><ele>15.8</ele><time>2026-05-03T07:08:59.114Z</time></trkpt><trkpt lat="43.837643" lon="10.4951073"><ele>15.600000000000001</ele><time>2026-05-03T07:09:00.114Z</time></trkpt><trkpt lat="43.8377552" lon="10.4951224"><ele>15.4</ele><time>2026-05-03T07:09:01.115Z</time></trkpt><trkpt lat="43.8378653" lon="10.4951381"><ele>15.2</ele><time>2026-05-03T07:09:02.115Z</time></trkpt><trkpt lat="43.8379728" lon="10.4951529"><ele>15.0</ele><time>2026-05-03T07:09:03.114Z</time></trkpt><trkpt lat="43.8380836" lon="10.495169"><ele>15.0</ele><time>2026-05-03T07:09:04.114Z</time></trkpt><trkpt lat="43.8382002" lon="10.4951848"><ele>15.0</ele><time>2026-05-03T07:09:05.114Z</time></trkpt><trkpt lat="43.8383251" lon="10.4952013"><ele>15.0</ele><time>2026-05-03T07:09:06.115Z</time></trkpt><trkpt lat="43.838457" lon="10.4952174"><ele>15.0</ele><time>2026-05-03T07:09:07.114Z</time></trkpt><trkpt lat="43.8385905" lon="10.4952306"><ele>15.25</ele><time>2026-05-03T07:09:08.114Z</time></trkpt><trkpt lat="43.838722" lon="10.4952454"><ele>15.5</ele><time>2026-05-03T07:09:09.114Z</time></trkpt><trkpt lat="43.8388518" lon="10.495258"><ele>15.75</ele><time>2026-05-03T07:09:10.115Z</time></trkpt><trkpt lat="43.8389736" lon="10.4952701"><ele>16.0</ele><time>2026-05-03T07:09:11.114Z</time></trkpt><trkpt lat="43.8390861" lon="10.4952875"><ele>15.999999999999998</ele><time>2026-05-03T07:09:12.114Z</time></trkpt><trkpt lat="43.8391648" lon="10.4952875"><ele>16.0</ele><time>2026-05-03T07:09:13.132Z</time></trkpt><trkpt lat="43.8392426" lon="10.4953003"><ele>16.0</ele><time>2026-05-03T07:09:14.132Z</time></trkpt><trkpt lat="43.8393078" lon="10.4953133"><ele>16.0</ele><time>2026-05-03T07:09:15.133Z</time></trkpt><trkpt lat="43.8394111" lon="10.4953279"><ele>15.999999999999998</ele><time>2026-05-03T07:09:17.132Z</time></trkpt><trkpt lat="43.8394894" lon="10.4953417"><ele>16.0</ele><time>2026-05-03T07:09:19.133Z</time></trkpt><trkpt lat="43.8395692" lon="10.4953637"><ele>16.2</ele><time>2026-05-03T07:09:22.115Z</time></trkpt><trkpt lat="43.8396622" lon="10.495402"><ele>16.400000000000002</ele><time>2026-05-03T07:09:29.116Z</time></trkpt><trkpt lat="43.8397537" lon="10.4954256"><ele>16.6</ele><time>2026-05-03T07:09:31.116Z</time></trkpt><trkpt lat="43.8398573" lon="10.4954011"><ele>16.8</ele><time>2026-05-03T07:09:33.115Z</time></trkpt><trkpt lat="43.839931" lon="10.495294"><ele>17.0</ele><time>2026-05-03T07:09:35.116Z</time></trkpt><trkpt lat="43.8399249" lon="10.4951488"><ele>17.0</ele><time>2026-05-03T07:09:37.115Z</time></trkpt><trkpt lat="43.839875" lon="10.4949927"><ele>17.0</ele><time>2026-05-03T07:09:39.116Z</time></trkpt><trkpt lat="43.8398643" lon="10.4949015"><ele>17.0</ele><time>2026-05-03T07:09:40.115Z</time></trkpt><trkpt lat="43.8398705" lon="10.4948028"><ele>17.0</ele><time>2026-05-03T07:09:41.115Z</time></trkpt><trkpt lat="43.8398918" lon="10.4947017"><ele>17.0</ele><time>2026-05-03T07:09:42.116Z</time></trkpt><trkpt lat="43.8399235" lon="10.4945931"><ele>17.0</ele><time>2026-05-03T07:09:43.116Z</time></trkpt><trkpt lat="43.8399623" lon="10.494465"><ele>17.25</ele><time>2026-05-03T07:09:44.115Z</time></trkpt><trkpt lat="43.8400051" lon="10.4943194"><ele>17.5</ele><time>2026-05-03T07:09:45.116Z</time></trkpt><trkpt lat="43.8400514" lon="10.4941635"><ele>17.75</ele><time>2026-05-03T07:09:46.115Z</time></trkpt><trkpt lat="43.8400988" lon="10.4940087"><ele>18.0</ele><time>2026-05-03T07:09:47.115Z</time></trkpt><trkpt lat="43.8401445" lon="10.493865"><ele>17.8</ele><time>2026-05-03T07:09:48.116Z</time></trkpt><trkpt lat="43.8401925" lon="10.4937255"><ele>17.6</ele><time>2026-05-03T07:09:49.115Z</time></trkpt><trkpt lat="43.8402459" lon="10.4935893"><ele>17.4</ele><time>2026-05-03T07:09:50.116Z</time></trkpt><trkpt lat="43.8403041" lon="10.4934668"><ele>17.2</ele><time>2026-05-03T07:09:51.133Z</time></trkpt><trkpt lat="43.8403706" lon="10.4933282"><ele>17.0</ele><time>2026-05-03T07:09:52.132Z</time></trkpt><trkpt lat="43.8404427" lon="10.4931858"><ele>17.0</ele><time>2026-05-03T07:09:53.133Z</time></trkpt><trkpt lat="43.8405162" lon="10.49304"><ele>17.0</ele><time>2026-05-03T07:09:54.132Z</time></trkpt><trkpt lat="43.8405834" lon="10.4929062"><ele>17.0</ele><time>2026-05-03T07:09:55.132Z</time></trkpt><trkpt lat="43.8406424" lon="10.4927867"><ele>17.0</ele><time>2026-05-03T07:09:56.133Z</time></trkpt><trkpt lat="43.8406967" lon="10.4926801"><ele>17.0</ele><time>2026-05-03T07:09:57.132Z</time></trkpt><trkpt lat="43.8407428" lon="10.4925841"><ele>16.833333333333336</ele><time>2026-05-03T07:09:58.132Z</time></trkpt><trkpt lat="43.8407827" lon="10.4924981"><ele>16.666666666666668</ele><time>2026-05-03T07:09:59.133Z</time></trkpt><trkpt lat="43.8408201" lon="10.4924222"><ele>16.5</ele><time>2026-05-03T07:10:00.133Z</time></trkpt><trkpt lat="43.840884" lon="10.4923031"><ele>16.333333333333332</ele><time>2026-05-03T07:10:02.133Z</time></trkpt><trkpt lat="43.8409376" lon="10.4922251"><ele>16.166666666666664</ele><time>2026-05-03T07:10:04.133Z</time></trkpt><trkpt lat="43.8410128" lon="10.4921628"><ele>16.0</ele><time>2026-05-03T07:10:07.133Z</time></trkpt><trkpt lat="43.8410849" lon="10.4921332"><ele>15.999999999999998</ele><time>2026-05-03T07:10:09.132Z</time></trkpt><trkpt lat="43.8411754" lon="10.4921449"><ele>16.0</ele><time>2026-05-03T07:10:11.132Z</time></trkpt><trkpt lat="43.841261" lon="10.4922157"><ele>16.0</ele><time>2026-05-03T07:10:13.132Z</time></trkpt><trkpt lat="43.8413256" lon="10.4922929"><ele>16.0</ele><time>2026-05-03T07:10:15.132Z</time></trkpt><trkpt lat="43.8413673" lon="10.4923816"><ele>15.999999999999998</ele><time>2026-05-03T07:10:17.132Z</time></trkpt><trkpt lat="43.8413995" lon="10.4925016"><ele>16.0</ele><time>2026-05-03T07:10:19.132Z</time></trkpt><trkpt lat="43.8414311" lon="10.492609"><ele>15.999999999999998</ele><time>2026-05-03T07:10:21.132Z</time></trkpt><trkpt lat="43.8414644" lon="10.4927375"><ele>16.0</ele><time>2026-05-03T07:10:23.133Z</time></trkpt><trkpt lat="43.8414867" lon="10.4928363"><ele>16.0</ele><time>2026-05-03T07:10:24.132Z</time></trkpt><trkpt lat="43.8415123" lon="10.4929519"><ele>16.0</ele><time>2026-05-03T07:10:25.133Z</time></trkpt><trkpt lat="43.8415406" lon="10.4930607"><ele>15.999999999999998</ele><time>2026-05-03T07:10:26.133Z</time></trkpt><trkpt lat="43.8415681" lon="10.4931541"><ele>16.0</ele><time>2026-05-03T07:10:27.133Z</time></trkpt><trkpt lat="43.8415941" lon="10.4932445"><ele>16.166666666666664</ele><time>2026-05-03T07:10:28.133Z</time></trkpt><trkpt lat="43.841639" lon="10.493395"><ele>16.333333333333332</ele><time>2026-05-03T07:10:30.133Z</time></trkpt><trkpt lat="43.8416722" lon="10.4935114"><ele>16.5</ele><time>2026-05-03T07:10:32.132Z</time></trkpt><trkpt lat="43.8417003" lon="10.4936168"><ele>16.666666666666668</ele><time>2026-05-03T07:10:34.132Z</time></trkpt><trkpt lat="43.841724" lon="10.4937142"><ele>16.833333333333336</ele><time>2026-05-03T07:10:36.133Z</time></trkpt><trkpt lat="43.8417481" lon="10.493813"><ele>17.0</ele><time>2026-05-03T07:10:38.132Z</time></trkpt><trkpt lat="43.8417727" lon="10.4939181"><ele>17.0</ele><time>2026-05-03T07:10:40.132Z</time></trkpt><trkpt lat="43.8417976" lon="10.4940126"><ele>17.0</ele><time>2026-05-03T07:10:42.133Z</time></trkpt><trkpt lat="43.8418263" lon="10.49411"><ele>17.0</ele><time>2026-05-03T07:10:46.133Z</time></trkpt><trkpt lat="43.8418464" lon="10.4941943"><ele>17.0</ele><time>2026-05-03T07:10:48.132Z</time></trkpt><trkpt lat="43.8418653" lon="10.4942944"><ele>17.0</ele><time>2026-05-03T07:10:55.133Z</time></trkpt><trkpt lat="43.8418671" lon="10.4944449"><ele>17.0</ele><time>2026-05-03T07:10:57.133Z</time></trkpt><trkpt lat="43.8418622" lon="10.4945482"><ele>17.0</ele><time>2026-05-03T07:10:58.133Z</time></trkpt><trkpt lat="43.8418758" lon="10.4946386"><ele>17.0</ele><time>2026-05-03T07:10:59.133Z</time></trkpt><trkpt lat="43.8419715" lon="10.4947462"><ele>17.0</ele><time>2026-05-03T07:11:01.133Z</time></trkpt><trkpt lat="43.842087" lon="10.4947062"><ele>17.0</ele><time>2026-05-03T07:11:03.133Z</time></trkpt><trkpt lat="43.8421345" lon="10.4945687"><ele>17.0</ele><time>2026-05-03T07:11:05.132Z</time></trkpt><trkpt lat="43.8420945" lon="10.4944364"><ele>16.8</ele><time>2026-05-03T07:11:07.133Z</time></trkpt><trkpt lat="43.8419946" lon="10.4943073"><ele>16.6</ele><time>2026-05-03T07:11:09.133Z</time></trkpt><trkpt lat="43.8419412" lon="10.4942006"><ele>16.400000000000002</ele><time>2026-05-03T07:11:10.133Z</time></trkpt><trkpt lat="43.8418937" lon="10.4940686"><ele>16.2</ele><time>2026-05-03T07:11:11.132Z</time></trkpt><trkpt lat="43.841852" lon="10.4939264"><ele>16.0</ele><time>2026-05-03T07:11:12.132Z</time></trkpt><trkpt lat="43.8418162" lon="10.4937918"><ele>16.333333333333332</ele><time>2026-05-03T07:11:13.132Z</time></trkpt><trkpt lat="43.8417815" lon="10.4936626"><ele>16.666666666666664</ele><time>2026-05-03T07:11:14.133Z</time></trkpt><trkpt lat="43.8417448" lon="10.4935411"><ele>17.0</ele><time>2026-05-03T07:11:15.132Z</time></trkpt><trkpt lat="43.8417121" lon="10.4934274"><ele>17.333333333333332</ele><time>2026-05-03T07:11:16.132Z</time></trkpt><trkpt lat="43.8416847" lon="10.4933191"><ele>17.666666666666668</ele><time>2026-05-03T07:11:17.133Z</time></trkpt><trkpt lat="43.8416566" lon="10.493219"><ele>18.0</ele><time>2026-05-03T07:11:18.132Z</time></trkpt><trkpt lat="43.8416302" lon="10.4931253"><ele>18.0</ele><time>2026-05-03T07:11:19.132Z</time></trkpt><trkpt lat="43.841608" lon="10.4930353"><ele>18.0</ele><time>2026-05-03T07:11:20.132Z</time></trkpt><trkpt lat="43.8415871" lon="10.4929527"><ele>18.0</ele><time>2026-05-03T07:11:21.133Z</time></trkpt><trkpt lat="43.8415476" lon="10.4928149"><ele>18.0</ele><time>2026-05-03T07:11:23.132Z</time></trkpt><trkpt lat="43.8415148" lon="10.4926898"><ele>18.0</ele><time>2026-05-03T07:11:25.132Z</time></trkpt><trkpt lat="43.8414851" lon="10.4925734"><ele>18.0</ele><time>2026-05-03T07:11:27.133Z</time></trkpt><trkpt lat="43.8414643" lon="10.4924636"><ele>17.6</ele><time>2026-05-03T07:11:29.133Z</time></trkpt><trkpt lat="43.8414454" lon="10.4923268"><ele>17.200000000000003</ele><time>2026-05-03T07:11:31.132Z</time></trkpt><trkpt lat="43.8414388" lon="10.4921703"><ele>16.8</ele><time>2026-05-03T07:11:33.133Z</time></trkpt><trkpt lat="43.8414453" lon="10.4920819"><ele>16.400000000000002</ele><time>2026-05-03T07:11:34.132Z</time></trkpt><trkpt lat="43.841466" lon="10.4919905"><ele>16.0</ele><time>2026-05-03T07:11:35.132Z</time></trkpt><trkpt lat="43.8415273" lon="10.4918601"><ele>15.999999999999998</ele><time>2026-05-03T07:11:37.133Z</time></trkpt><trkpt lat="43.8415896" lon="10.4917656"><ele>16.0</ele><time>2026-05-03T07:11:39.133Z</time></trkpt><trkpt lat="43.8416468" lon="10.4916359"><ele>16.0</ele><time>2026-05-03T07:11:41.133Z</time></trkpt><trkpt lat="43.8416758" lon="10.4915527"><ele>16.0</ele><time>2026-05-03T07:11:42.132Z</time></trkpt><trkpt lat="43.8417058" lon="10.4914622"><ele>15.999999999999998</ele><time>2026-05-03T07:11:43.132Z</time></trkpt><trkpt lat="43.8417368" lon="10.491367"><ele>16.0</ele><time>2026-05-03T07:11:44.132Z</time></trkpt><trkpt lat="43.8417707" lon="10.491268"><ele>16.166666666666664</ele><time>2026-05-03T07:11:45.133Z</time></trkpt><trkpt lat="43.841805" lon="10.4911785"><ele>16.333333333333332</ele><time>2026-05-03T07:11:46.133Z</time></trkpt><trkpt lat="43.8418349" lon="10.4910947"><ele>16.5</ele><time>2026-05-03T07:11:47.133Z</time></trkpt><trkpt lat="43.8418773" lon="10.4909678"><ele>16.666666666666668</ele><time>2026-05-03T07:11:49.133Z</time></trkpt><trkpt lat="43.8419043" lon="10.4908821"><ele>16.833333333333336</ele><time>2026-05-03T07:11:51.132Z</time></trkpt><trkpt lat="43.8419231" lon="10.4907914"><ele>17.0</ele><time>2026-05-03T07:12:03.132Z</time></trkpt><trkpt lat="43.8419516" lon="10.4906886"><ele>17.0</ele><time>2026-05-03T07:12:09.133Z</time></trkpt><trkpt lat="43.841977" lon="10.4906008"><ele>17.0</ele><time>2026-05-03T07:12:12.133Z</time></trkpt><trkpt lat="43.8419886" lon="10.4905056"><ele>17.0</ele><time>2026-05-03T07:12:14.133Z</time></trkpt><trkpt lat="43.8419874" lon="10.4904129"><ele>17.0</ele><time>2026-05-03T07:12:15.132Z</time></trkpt><trkpt lat="43.8419848" lon="10.4903038"><ele>17.0</ele><time>2026-05-03T07:12:16.133Z</time></trkpt><trkpt lat="43.8419787" lon="10.4901805"><ele>17.0</ele><time>2026-05-03T07:12:17.132Z</time></trkpt><trkpt lat="43.8419712" lon="10.4900467"><ele>17.0</ele><time>2026-05-03T07:12:18.133Z</time></trkpt><trkpt lat="43.8419622" lon="10.4899111"><ele>17.0</ele><time>2026-05-03T07:12:19.133Z</time></trkpt><trkpt lat="43.841954" lon="10.4897806"><ele>17.0</ele><time>2026-05-03T07:12:20.133Z</time></trkpt><trkpt lat="43.8419481" lon="10.4896479"><ele>17.0</ele><time>2026-05-03T07:12:21.133Z</time></trkpt><trkpt lat="43.8419437" lon="10.4895245"><ele>17.0</ele><time>2026-05-03T07:12:22.133Z</time></trkpt><trkpt lat="43.8419402" lon="10.4894097"><ele>17.0</ele><time>2026-05-03T07:12:23.132Z</time></trkpt><trkpt lat="43.8419372" lon="10.489296"><ele>17.0</ele><time>2026-05-03T07:12:24.133Z</time></trkpt><trkpt lat="43.8419326" lon="10.4891804"><ele>17.0</ele><time>2026-05-03T07:12:25.133Z</time></trkpt><trkpt lat="43.8419301" lon="10.4890634"><ele>17.0</ele><time>2026-05-03T07:12:26.132Z</time></trkpt><trkpt lat="43.8419306" lon="10.4889475"><ele>17.0</ele><time>2026-05-03T07:12:27.133Z</time></trkpt><trkpt lat="43.8419327" lon="10.4888324"><ele>17.0</ele><time>2026-05-03T07:12:28.132Z</time></trkpt><trkpt lat="43.8419341" lon="10.4887155"><ele>16.8</ele><time>2026-05-03T07:12:29.132Z</time></trkpt><trkpt lat="43.8419339" lon="10.4885973"><ele>16.6</ele><time>2026-05-03T07:12:30.132Z</time></trkpt><trkpt lat="43.8419339" lon="10.4884784"><ele>16.400000000000002</ele><time>2026-05-03T07:12:31.132Z</time></trkpt><trkpt lat="43.8419368" lon="10.4883571"><ele>16.2</ele><time>2026-05-03T07:12:32.133Z</time></trkpt><trkpt lat="43.8419385" lon="10.4882285"><ele>16.0</ele><time>2026-05-03T07:12:33.133Z</time></trkpt><trkpt lat="43.8419411" lon="10.4880913"><ele>16.0</ele><time>2026-05-03T07:12:34.132Z</time></trkpt><trkpt lat="43.8419459" lon="10.4879466"><ele>16.0</ele><time>2026-05-03T07:12:35.132Z</time></trkpt><trkpt lat="43.8419492" lon="10.487795"><ele>16.0</ele><time>2026-05-03T07:12:36.132Z</time></trkpt><trkpt lat="43.8419534" lon="10.4876318"><ele>16.0</ele><time>2026-05-03T07:12:37.133Z</time></trkpt><trkpt lat="43.8419568" lon="10.4874648"><ele>16.25</ele><time>2026-05-03T07:12:38.133Z</time></trkpt><trkpt lat="43.8419541" lon="10.4873082"><ele>16.5</ele><time>2026-05-03T07:12:39.132Z</time></trkpt><trkpt lat="43.8419461" lon="10.4871503"><ele>16.75</ele><time>2026-05-03T07:12:40.132Z</time></trkpt><trkpt lat="43.8419324" lon="10.4869926"><ele>17.0</ele><time>2026-05-03T07:12:41.133Z</time></trkpt><trkpt lat="43.8419146" lon="10.4868282"><ele>16.75</ele><time>2026-05-03T07:12:42.132Z</time></trkpt><trkpt lat="43.8418938" lon="10.4866675"><ele>16.5</ele><time>2026-05-03T07:12:43.133Z</time></trkpt><trkpt lat="43.8418627" lon="10.4865065"><ele>16.25</ele><time>2026-05-03T07:12:44.132Z</time></trkpt><trkpt lat="43.8418239" lon="10.4863454"><ele>16.0</ele><time>2026-05-03T07:12:45.132Z</time></trkpt><trkpt lat="43.841782" lon="10.4861871"><ele>16.0</ele><time>2026-05-03T07:12:46.132Z</time></trkpt><trkpt lat="43.8417418" lon="10.4860408"><ele>16.0</ele><time>2026-05-03T07:12:47.132Z</time></trkpt><trkpt lat="43.8417024" lon="10.4858944"><ele>16.0</ele><time>2026-05-03T07:12:48.133Z</time></trkpt><trkpt lat="43.8416632" lon="10.485747"><ele>16.0</ele><time>2026-05-03T07:12:49.133Z</time></trkpt><trkpt lat="43.8416302" lon="10.4855981"><ele>16.0</ele><time>2026-05-03T07:12:50.133Z</time></trkpt><trkpt lat="43.8416009" lon="10.4854433"><ele>16.0</ele><time>2026-05-03T07:12:51.133Z</time></trkpt><trkpt lat="43.8415787" lon="10.485285"><ele>16.0</ele><time>2026-05-03T07:12:52.132Z</time></trkpt><trkpt lat="43.8415615" lon="10.4851193"><ele>16.0</ele><time>2026-05-03T07:12:53.132Z</time></trkpt><trkpt lat="43.841552" lon="10.4849494"><ele>15.600000000000001</ele><time>2026-05-03T07:12:54.133Z</time></trkpt><trkpt lat="43.841551" lon="10.4847856"><ele>15.200000000000001</ele><time>2026-05-03T07:12:55.132Z</time></trkpt><trkpt lat="43.841558" lon="10.484632"><ele>14.799999999999999</ele><time>2026-05-03T07:12:56.133Z</time></trkpt><trkpt lat="43.8415675" lon="10.4844839"><ele>14.399999999999999</ele><time>2026-05-03T07:12:57.132Z</time></trkpt><trkpt lat="43.8415764" lon="10.4843418"><ele>14.0</ele><time>2026-05-03T07:12:58.133Z</time></trkpt><trkpt lat="43.8415824" lon="10.4842068"><ele>14.0</ele><time>2026-05-03T07:12:59.132Z</time></trkpt><trkpt lat="43.8415854" lon="10.4840897"><ele>13.999999999999998</ele><time>2026-05-03T07:13:00.132Z</time></trkpt><trkpt lat="43.8415862" lon="10.4839885"><ele>13.999999999999998</ele><time>2026-05-03T07:13:01.133Z</time></trkpt><trkpt lat="43.8416006" lon="10.4838337"><ele>14.0</ele><time>2026-05-03T07:13:03.133Z</time></trkpt><trkpt lat="43.8416648" lon="10.4837671"><ele>14.0</ele><time>2026-05-03T07:13:05.133Z</time></trkpt><trkpt lat="43.841779" lon="10.4837589"><ele>14.799999999999999</ele><time>2026-05-03T07:13:07.133Z</time></trkpt><trkpt lat="43.8418547" lon="10.4837587"><ele>15.599999999999998</ele><time>2026-05-03T07:13:08.132Z</time></trkpt><trkpt lat="43.8419376" lon="10.4837613"><ele>16.4</ele><time>2026-05-03T07:13:09.133Z</time></trkpt><trkpt lat="43.842028" lon="10.48376"><ele>17.2</ele><time>2026-05-03T07:13:10.133Z</time></trkpt><trkpt lat="43.842126" lon="10.4837549"><ele>18.0</ele><time>2026-05-03T07:13:11.133Z</time></trkpt><trkpt lat="43.8422304" lon="10.4837506"><ele>18.0</ele><time>2026-05-03T07:13:12.133Z</time></trkpt><trkpt lat="43.8423432" lon="10.4837436"><ele>18.0</ele><time>2026-05-03T07:13:13.133Z</time></trkpt><trkpt lat="43.8424489" lon="10.4837365"><ele>18.0</ele><time>2026-05-03T07:13:14.133Z</time></trkpt><trkpt lat="43.8425546" lon="10.4837312"><ele>18.0</ele><time>2026-05-03T07:13:15.132Z</time></trkpt><trkpt lat="43.842669" lon="10.4837304"><ele>18.0</ele><time>2026-05-03T07:13:16.133Z</time></trkpt><trkpt lat="43.8427805" lon="10.4837309"><ele>17.4</ele><time>2026-05-03T07:13:17.133Z</time></trkpt><trkpt lat="43.842886" lon="10.4837318"><ele>16.8</ele><time>2026-05-03T07:13:18.133Z</time></trkpt><trkpt lat="43.8429896" lon="10.4837366"><ele>16.2</ele><time>2026-05-03T07:13:19.132Z</time></trkpt><trkpt lat="43.8430936" lon="10.4837355"><ele>15.6</ele><time>2026-05-03T07:13:20.133Z</time></trkpt><trkpt lat="43.8432027" lon="10.4837327"><ele>15.0</ele><time>2026-05-03T07:13:21.133Z</time></trkpt><trkpt lat="43.8433123" lon="10.4837323"><ele>15.0</ele><time>2026-05-03T07:13:22.132Z</time></trkpt><trkpt lat="43.843414" lon="10.4837315"><ele>15.0</ele><time>2026-05-03T07:13:23.132Z</time></trkpt><trkpt lat="43.8435148" lon="10.4837307"><ele>15.0</ele><time>2026-05-03T07:13:24.133Z</time></trkpt><trkpt lat="43.8436163" lon="10.4837294"><ele>15.0</ele><time>2026-05-03T07:13:25.132Z</time></trkpt><trkpt lat="43.8437261" lon="10.4837291"><ele>15.0</ele><time>2026-05-03T07:13:26.132Z</time></trkpt><trkpt lat="43.8438368" lon="10.4837286"><ele>15.0</ele><time>2026-05-03T07:13:27.133Z</time></trkpt><trkpt lat="43.8439534" lon="10.4837273"><ele>15.0</ele><time>2026-05-03T07:13:28.133Z</time></trkpt><trkpt lat="43.8440652" lon="10.4837262"><ele>15.0</ele><time>2026-05-03T07:13:29.132Z</time></trkpt><trkpt lat="43.8441715" lon="10.4837259"><ele>15.0</ele><time>2026-05-03T07:13:30.132Z</time></trkpt><trkpt lat="43.8442679" lon="10.4837218"><ele>15.0</ele><time>2026-05-03T07:13:31.132Z</time></trkpt><trkpt lat="43.8443471" lon="10.4837271"><ele>15.0</ele><time>2026-05-03T07:13:32.133Z</time></trkpt><trkpt lat="43.8444595" lon="10.4837269"><ele>15.0</ele><time>2026-05-03T07:13:34.133Z</time></trkpt><trkpt lat="43.84453" lon="10.4837243"><ele>15.0</ele><time>2026-05-03T07:13:36.132Z</time></trkpt><trkpt lat="43.8446043" lon="10.4837257"><ele>15.0</ele><time>2026-05-03T07:13:39.133Z</time></trkpt><trkpt lat="43.8446672" lon="10.4837479"><ele>15.0</ele><time>2026-05-03T07:13:44.133Z</time></trkpt><trkpt lat="43.8447347" lon="10.4837087"><ele>15.0</ele><time>2026-05-03T07:13:47.133Z</time></trkpt><trkpt lat="43.8447978" lon="10.4835372"><ele>15.0</ele><time>2026-05-03T07:13:49.133Z</time></trkpt><trkpt lat="43.8448333" lon="10.4833726"><ele>15.0</ele><time>2026-05-03T07:13:50.132Z</time></trkpt><trkpt lat="43.8448691" lon="10.483206"><ele>15.0</ele><time>2026-05-03T07:13:51.132Z</time></trkpt><trkpt lat="43.8449033" lon="10.4830573"><ele>15.0</ele><time>2026-05-03T07:13:52.133Z</time></trkpt><trkpt lat="43.8449348" lon="10.4829201"><ele>15.4</ele><time>2026-05-03T07:13:53.132Z</time></trkpt><trkpt lat="43.8449666" lon="10.4827826"><ele>15.8</ele><time>2026-05-03T07:13:54.132Z</time></trkpt><trkpt lat="43.8449949" lon="10.4826435"><ele>16.2</ele><time>2026-05-03T07:13:55.133Z</time></trkpt><trkpt lat="43.8450223" lon="10.4825175"><ele>16.6</ele><time>2026-05-03T07:13:56.133Z</time></trkpt><trkpt lat="43.845049" lon="10.4824067"><ele>17.0</ele><time>2026-05-03T07:13:57.132Z</time></trkpt><trkpt lat="43.8450704" lon="10.4823126"><ele>17.0</ele><time>2026-05-03T07:13:58.133Z</time></trkpt><trkpt lat="43.8450982" lon="10.4822004"><ele>17.0</ele><time>2026-05-03T07:14:00.132Z</time></trkpt><trkpt lat="43.8451328" lon="10.4821195"><ele>17.0</ele><time>2026-05-03T07:14:04.133Z</time></trkpt><trkpt lat="43.8452247" lon="10.4820821"><ele>17.0</ele><time>2026-05-03T07:14:09.132Z</time></trkpt><trkpt lat="43.8452959" lon="10.4820905"><ele>17.0</ele><time>2026-05-03T07:14:10.133Z</time></trkpt><trkpt lat="43.8454042" lon="10.4820853"><ele>17.0</ele><time>2026-05-03T07:14:11.133Z</time></trkpt><trkpt lat="43.8455443" lon="10.4820794"><ele>16.333333333333336</ele><time>2026-05-03T07:14:12.133Z</time></trkpt><trkpt lat="43.8457098" lon="10.4820737"><ele>15.666666666666668</ele><time>2026-05-03T07:14:13.133Z</time></trkpt><trkpt lat="43.8458585" lon="10.4820685"><ele>15.0</ele><time>2026-05-03T07:14:14.133Z</time></trkpt><trkpt lat="43.8459973" lon="10.4820661"><ele>14.75</ele><time>2026-05-03T07:14:15.132Z</time></trkpt><trkpt lat="43.8461263" lon="10.4820669"><ele>14.5</ele><time>2026-05-03T07:14:16.133Z</time></trkpt><trkpt lat="43.8462571" lon="10.4820612"><ele>14.25</ele><time>2026-05-03T07:14:17.132Z</time></trkpt><trkpt lat="43.8463941" lon="10.4820591"><ele>14.0</ele><time>2026-05-03T07:14:18.132Z</time></trkpt><trkpt lat="43.8465238" lon="10.4820575"><ele>14.000000000000002</ele><time>2026-05-03T07:14:19.132Z</time></trkpt><trkpt lat="43.8466358" lon="10.4820608"><ele>14.0</ele><time>2026-05-03T07:14:20.133Z</time></trkpt><trkpt lat="43.8467295" lon="10.4820639"><ele>14.0</ele><time>2026-05-03T07:14:21.133Z</time></trkpt><trkpt lat="43.8468068" lon="10.4820582"><ele>14.0</ele><time>2026-05-03T07:14:22.132Z</time></trkpt><trkpt lat="43.8469038" lon="10.4820657"><ele>14.000000000000002</ele><time>2026-05-03T07:14:24.133Z</time></trkpt><trkpt lat="43.8469624" lon="10.4821162"><ele>14.0</ele><time>2026-05-03T07:14:26.132Z</time></trkpt><trkpt lat="43.8469762" lon="10.4822349"><ele>14.0</ele><time>2026-05-03T07:14:28.133Z</time></trkpt><trkpt lat="43.8469809" lon="10.4823302"><ele>13.999999999999998</ele><time>2026-05-03T07:14:29.132Z</time></trkpt><trkpt lat="43.8469941" lon="10.4824563"><ele>13.999999999999998</ele><time>2026-05-03T07:14:30.132Z</time></trkpt><trkpt lat="43.8470133" lon="10.4826059"><ele>14.0</ele><time>2026-05-03T07:14:31.132Z</time></trkpt><trkpt lat="43.8470392" lon="10.48275"><ele>14.0</ele><time>2026-05-03T07:14:32.133Z</time></trkpt><trkpt lat="43.8470691" lon="10.4828815"><ele>14.25</ele><time>2026-05-03T07:14:33.132Z</time></trkpt><trkpt lat="43.847105" lon="10.4830201"><ele>14.5</ele><time>2026-05-03T07:14:34.133Z</time></trkpt><trkpt lat="43.8471446" lon="10.4831679"><ele>14.75</ele><time>2026-05-03T07:14:35.133Z</time></trkpt><trkpt lat="43.847187" lon="10.4833243"><ele>15.0</ele><time>2026-05-03T07:14:36.132Z</time></trkpt><trkpt lat="43.8472231" lon="10.4834767"><ele>15.0</ele><time>2026-05-03T07:14:37.133Z</time></trkpt><trkpt lat="43.847254" lon="10.4836133"><ele>15.0</ele><time>2026-05-03T07:14:38.133Z</time></trkpt><trkpt lat="43.8472831" lon="10.4837397"><ele>15.0</ele><time>2026-05-03T07:14:39.132Z</time></trkpt><trkpt lat="43.8473122" lon="10.4838744"><ele>15.0</ele><time>2026-05-03T07:14:40.132Z</time></trkpt><trkpt lat="43.8473378" lon="10.4840136"><ele>15.0</ele><time>2026-05-03T07:14:41.132Z</time></trkpt><trkpt lat="43.8473655" lon="10.4841576"><ele>15.2</ele><time>2026-05-03T07:14:42.133Z</time></trkpt><trkpt lat="43.8473938" lon="10.4842966"><ele>15.4</ele><time>2026-05-03T07:14:43.132Z</time></trkpt><trkpt lat="43.8474199" lon="10.4844304"><ele>15.600000000000001</ele><time>2026-05-03T07:14:44.133Z</time></trkpt><trkpt lat="43.847452" lon="10.4845715"><ele>15.8</ele><time>2026-05-03T07:14:45.133Z</time></trkpt><trkpt lat="43.8474901" lon="10.4847175"><ele>16.0</ele><time>2026-05-03T07:14:46.133Z</time></trkpt><trkpt lat="43.8475323" lon="10.4848667"><ele>16.0</ele><time>2026-05-03T07:14:47.133Z</time></trkpt><trkpt lat="43.8475736" lon="10.4850224"><ele>16.0</ele><time>2026-05-03T07:14:48.132Z</time></trkpt><trkpt lat="43.8476151" lon="10.4851784"><ele>16.0</ele><time>2026-05-03T07:14:49.132Z</time></trkpt><trkpt lat="43.8476502" lon="10.4853136"><ele>16.0</ele><time>2026-05-03T07:14:50.133Z</time></trkpt><trkpt lat="43.8476808" lon="10.4854337"><ele>16.0</ele><time>2026-05-03T07:14:51.132Z</time></trkpt><trkpt lat="43.8477118" lon="10.4855397"><ele>15.999999999999998</ele><time>2026-05-03T07:14:52.132Z</time></trkpt><trkpt lat="43.8477508" lon="10.4856441"><ele>16.0</ele><time>2026-05-03T07:14:53.132Z</time></trkpt><trkpt lat="43.8477894" lon="10.4857463"><ele>16.0</ele><time>2026-05-03T07:14:54.133Z</time></trkpt><trkpt lat="43.8478068" lon="10.4858497"><ele>16.0</ele><time>2026-05-03T07:14:55.132Z</time></trkpt><trkpt lat="43.8478132" lon="10.4859512"><ele>15.999999999999998</ele><time>2026-05-03T07:14:56.133Z</time></trkpt><trkpt lat="43.847804" lon="10.4860626"><ele>16.0</ele><time>2026-05-03T07:14:57.133Z</time></trkpt><trkpt lat="43.8477888" lon="10.4861845"><ele>15.833333333333332</ele><time>2026-05-03T07:14:58.133Z</time></trkpt><trkpt lat="43.847782" lon="10.4863117"><ele>15.666666666666666</ele><time>2026-05-03T07:14:59.133Z</time></trkpt><trkpt lat="43.8477796" lon="10.4864337"><ele>15.5</ele><time>2026-05-03T07:15:00.132Z</time></trkpt><trkpt lat="43.8477825" lon="10.4865589"><ele>15.333333333333332</ele><time>2026-05-03T07:15:01.133Z</time></trkpt><trkpt lat="43.8477867" lon="10.4866843"><ele>15.166666666666666</ele><time>2026-05-03T07:15:02.132Z</time></trkpt><trkpt lat="43.8477922" lon="10.4867994"><ele>15.0</ele><time>2026-05-03T07:15:03.133Z</time></trkpt><trkpt lat="43.8477979" lon="10.4869068"><ele>15.0</ele><time>2026-05-03T07:15:04.132Z</time></trkpt><trkpt lat="43.8478074" lon="10.487018"><ele>15.0</ele><time>2026-05-03T07:15:05.132Z</time></trkpt><trkpt lat="43.8478167" lon="10.4871307"><ele>15.0</ele><time>2026-05-03T07:15:06.133Z</time></trkpt><trkpt lat="43.8478218" lon="10.4872337"><ele>15.0</ele><time>2026-05-03T07:15:07.132Z</time></trkpt><trkpt lat="43.8478249" lon="10.487345"><ele>15.0</ele><time>2026-05-03T07:15:08.132Z</time></trkpt><trkpt lat="43.8478149" lon="10.4874592"><ele>15.0</ele><time>2026-05-03T07:15:09.132Z</time></trkpt><trkpt lat="43.8477901" lon="10.4875701"><ele>15.2</ele><time>2026-05-03T07:15:10.133Z</time></trkpt><trkpt lat="43.8477547" lon="10.4876842"><ele>15.4</ele><time>2026-05-03T07:15:11.133Z</time></trkpt><trkpt lat="43.847714" lon="10.4878125"><ele>15.600000000000001</ele><time>2026-05-03T07:15:12.133Z</time></trkpt><trkpt lat="43.8476704" lon="10.4879527"><ele>15.8</ele><time>2026-05-03T07:15:13.133Z</time></trkpt><trkpt lat="43.847623" lon="10.4880982"><ele>16.0</ele><time>2026-05-03T07:15:14.132Z</time></trkpt><trkpt lat="43.8475736" lon="10.488247"><ele>16.0</ele><time>2026-05-03T07:15:15.133Z</time></trkpt><trkpt lat="43.8475216" lon="10.4884006"><ele>16.0</ele><time>2026-05-03T07:15:16.132Z</time></trkpt><trkpt lat="43.8474702" lon="10.4885569"><ele>16.0</ele><time>2026-05-03T07:15:17.132Z</time></trkpt><trkpt lat="43.8474192" lon="10.4887166"><ele>16.0</ele><time>2026-05-03T07:15:18.133Z</time></trkpt><trkpt lat="43.8473717" lon="10.4888754"><ele>15.8</ele><time>2026-05-03T07:15:19.133Z</time></trkpt><trkpt lat="43.8473293" lon="10.4890238"><ele>15.600000000000001</ele><time>2026-05-03T07:15:20.133Z</time></trkpt><trkpt lat="43.8472888" lon="10.4891675"><ele>15.4</ele><time>2026-05-03T07:15:21.133Z</time></trkpt><trkpt lat="43.8472466" lon="10.489307"><ele>15.2</ele><time>2026-05-03T07:15:22.133Z</time></trkpt><trkpt lat="43.8471995" lon="10.4894456"><ele>15.0</ele><time>2026-05-03T07:15:23.133Z</time></trkpt><trkpt lat="43.8471551" lon="10.4895859"><ele>14.75</ele><time>2026-05-03T07:15:24.132Z</time></trkpt><trkpt lat="43.8471208" lon="10.4897344"><ele>14.5</ele><time>2026-05-03T07:15:25.133Z</time></trkpt><trkpt lat="43.8471002" lon="10.4898927"><ele>14.25</ele><time>2026-05-03T07:15:26.132Z</time></trkpt><trkpt lat="43.8470871" lon="10.4900548"><ele>14.0</ele><time>2026-05-03T07:15:27.132Z</time></trkpt><trkpt lat="43.8470813" lon="10.4902098"><ele>14.000000000000002</ele><time>2026-05-03T07:15:28.132Z</time></trkpt><trkpt lat="43.8470789" lon="10.4903525"><ele>14.0</ele><time>2026-05-03T07:15:29.133Z</time></trkpt><trkpt lat="43.8470724" lon="10.4904844"><ele>14.0</ele><time>2026-05-03T07:15:30.132Z</time></trkpt><trkpt lat="43.8470679" lon="10.4906022"><ele>14.0</ele><time>2026-05-03T07:15:31.133Z</time></trkpt><trkpt lat="43.8470481" lon="10.4907083"><ele>14.000000000000002</ele><time>2026-05-03T07:15:32.132Z</time></trkpt><trkpt lat="43.8470107" lon="10.4907987"><ele>14.0</ele><time>2026-05-03T07:15:33.133Z</time></trkpt><trkpt lat="43.8469587" lon="10.490876"><ele>14.0</ele><time>2026-05-03T07:15:34.133Z</time></trkpt><trkpt lat="43.8468905" lon="10.4909365"><ele>13.999999999999998</ele><time>2026-05-03T07:15:35.133Z</time></trkpt><trkpt lat="43.8468062" lon="10.4909897"><ele>13.999999999999998</ele><time>2026-05-03T07:15:36.132Z</time></trkpt><trkpt lat="43.8467175" lon="10.491055"><ele>14.0</ele><time>2026-05-03T07:15:37.133Z</time></trkpt><trkpt lat="43.8466386" lon="10.4911448"><ele>14.0</ele><time>2026-05-03T07:15:38.132Z</time></trkpt><trkpt lat="43.846574" lon="10.4912601"><ele>13.75</ele><time>2026-05-03T07:15:39.132Z</time></trkpt><trkpt lat="43.8465251" lon="10.4913994"><ele>13.5</ele><time>2026-05-03T07:15:40.133Z</time></trkpt><trkpt lat="43.846479" lon="10.4915557"><ele>13.25</ele><time>2026-05-03T07:15:41.133Z</time></trkpt><trkpt lat="43.8464367" lon="10.4917363"><ele>13.0</ele><time>2026-05-03T07:15:42.133Z</time></trkpt><trkpt lat="43.8463981" lon="10.4919242"><ele>13.25</ele><time>2026-05-03T07:15:43.133Z</time></trkpt><trkpt lat="43.8463687" lon="10.4920993"><ele>13.5</ele><time>2026-05-03T07:15:44.133Z</time></trkpt><trkpt lat="43.8463453" lon="10.4922678"><ele>13.75</ele><time>2026-05-03T07:15:45.132Z</time></trkpt><trkpt lat="43.846321" lon="10.4924395"><ele>14.0</ele><time>2026-05-03T07:15:46.132Z</time></trkpt><trkpt lat="43.8462861" lon="10.492597"><ele>14.0</ele><time>2026-05-03T07:15:47.133Z</time></trkpt><trkpt lat="43.846233" lon="10.4927379"><ele>13.999999999999998</ele><time>2026-05-03T07:15:48.133Z</time></trkpt><trkpt lat="43.8461689" lon="10.4928674"><ele>13.999999999999998</ele><time>2026-05-03T07:15:49.133Z</time></trkpt><trkpt lat="43.8460962" lon="10.4929884"><ele>14.0</ele><time>2026-05-03T07:15:50.132Z</time></trkpt><trkpt lat="43.8460269" lon="10.4930956"><ele>14.0</ele><time>2026-05-03T07:15:51.133Z</time></trkpt><trkpt lat="43.8459744" lon="10.4931777"><ele>14.2</ele><time>2026-05-03T07:15:52.132Z</time></trkpt><trkpt lat="43.8459029" lon="10.4932813"><ele>14.399999999999999</ele><time>2026-05-03T07:15:54.133Z</time></trkpt><trkpt lat="43.8458546" lon="10.4933621"><ele>14.6</ele><time>2026-05-03T07:15:56.133Z</time></trkpt><trkpt lat="43.8457973" lon="10.4934512"><ele>14.8</ele><time>2026-05-03T07:15:58.133Z</time></trkpt><trkpt lat="43.8457321" lon="10.4935431"><ele>15.0</ele><time>2026-05-03T07:16:00.132Z</time></trkpt><trkpt lat="43.8456693" lon="10.4936365"><ele>15.0</ele><time>2026-05-03T07:16:02.132Z</time></trkpt><trkpt lat="43.8456169" lon="10.4937161"><ele>15.0</ele><time>2026-05-03T07:16:04.132Z</time></trkpt><trkpt lat="43.8455529" lon="10.4938143"><ele>15.0</ele><time>2026-05-03T07:16:06.132Z</time></trkpt><trkpt lat="43.8454965" lon="10.4938995"><ele>15.0</ele><time>2026-05-03T07:16:08.132Z</time></trkpt><trkpt lat="43.8454338" lon="10.4940127"><ele>15.0</ele><time>2026-05-03T07:16:10.133Z</time></trkpt><trkpt lat="43.8453615" lon="10.4941525"><ele>15.166666666666666</ele><time>2026-05-03T07:16:12.133Z</time></trkpt><trkpt lat="43.8453239" lon="10.4942373"><ele>15.333333333333332</ele><time>2026-05-03T07:16:13.133Z</time></trkpt><trkpt lat="43.8452848" lon="10.4943293"><ele>15.5</ele><time>2026-05-03T07:16:14.133Z</time></trkpt><trkpt lat="43.8452497" lon="10.4944147"><ele>15.666666666666666</ele><time>2026-05-03T07:16:15.133Z</time></trkpt><trkpt lat="43.8452133" lon="10.4944972"><ele>15.833333333333332</ele><time>2026-05-03T07:16:16.132Z</time></trkpt><trkpt lat="43.845176" lon="10.4945801"><ele>16.0</ele><time>2026-05-03T07:16:17.133Z</time></trkpt><trkpt lat="43.8451153" lon="10.4947219"><ele>16.166666666666664</ele><time>2026-05-03T07:16:19.132Z</time></trkpt><trkpt lat="43.8450757" lon="10.4948336"><ele>16.333333333333332</ele><time>2026-05-03T07:16:21.132Z</time></trkpt><trkpt lat="43.8450437" lon="10.4949231"><ele>16.5</ele><time>2026-05-03T07:16:23.133Z</time></trkpt><trkpt lat="43.8450175" lon="10.4950199"><ele>16.666666666666668</ele><time>2026-05-03T07:16:26.133Z</time></trkpt><trkpt lat="43.8449807" lon="10.4951417"><ele>16.833333333333336</ele><time>2026-05-03T07:16:49.132Z</time></trkpt><trkpt lat="43.8449671" lon="10.4952378"><ele>17.0</ele><time>2026-05-03T07:16:51.132Z</time></trkpt><trkpt lat="43.8450055" lon="10.4953429"><ele>17.0</ele><time>2026-05-03T07:16:53.133Z</time></trkpt><trkpt lat="43.8451094" lon="10.4954026"><ele>17.0</ele><time>2026-05-03T07:16:55.132Z</time></trkpt><trkpt lat="43.8451798" lon="10.4954372"><ele>17.0</ele><time>2026-05-03T07:16:56.132Z</time></trkpt><trkpt lat="43.8452498" lon="10.4954589"><ele>17.0</ele><time>2026-05-03T07:16:57.133Z</time></trkpt><trkpt lat="43.8453376" lon="10.4954729"><ele>17.0</ele><time>2026-05-03T07:16:58.132Z</time></trkpt><trkpt lat="43.8454194" lon="10.4954879"><ele>17.0</ele><time>2026-05-03T07:16:59.133Z</time></trkpt><trkpt lat="43.8455076" lon="10.4955117"><ele>17.0</ele><time>2026-05-03T07:17:00.132Z</time></trkpt><trkpt lat="43.8455872" lon="10.4955329"><ele>17.0</ele><time>2026-05-03T07:17:01.133Z</time></trkpt><trkpt lat="43.8456618" lon="10.4955578"><ele>17.0</ele><time>2026-05-03T07:17:02.133Z</time></trkpt><trkpt lat="43.8457344" lon="10.4955801"><ele>17.0</ele><time>2026-05-03T07:17:03.132Z</time></trkpt><trkpt lat="43.8458107" lon="10.4956021"><ele>17.0</ele><time>2026-05-03T07:17:04.133Z</time></trkpt><trkpt lat="43.8458851" lon="10.4956303"><ele>17.0</ele><time>2026-05-03T07:17:05.132Z</time></trkpt><trkpt lat="43.8459604" lon="10.4956572"><ele>17.166666666666668</ele><time>2026-05-03T07:17:06.133Z</time></trkpt><trkpt lat="43.8460265" lon="10.4956741"><ele>17.333333333333336</ele><time>2026-05-03T07:17:07.133Z</time></trkpt><trkpt lat="43.8460893" lon="10.4956897"><ele>17.5</ele><time>2026-05-03T07:17:08.133Z</time></trkpt><trkpt lat="43.8462096" lon="10.4957245"><ele>17.666666666666668</ele><time>2026-05-03T07:17:10.132Z</time></trkpt><trkpt lat="43.8462736" lon="10.4957463"><ele>17.833333333333332</ele><time>2026-05-03T07:17:11.133Z</time></trkpt><trkpt lat="43.8463479" lon="10.4957688"><ele>18.0</ele><time>2026-05-03T07:17:12.133Z</time></trkpt><trkpt lat="43.8464372" lon="10.4957897"><ele>18.0</ele><time>2026-05-03T07:17:13.132Z</time></trkpt><trkpt lat="43.8465359" lon="10.4958154"><ele>18.0</ele><time>2026-05-03T07:17:14.132Z</time></trkpt><trkpt lat="43.8466364" lon="10.4958458"><ele>18.0</ele><time>2026-05-03T07:17:15.133Z</time></trkpt><trkpt lat="43.8467333" lon="10.4958774"><ele>18.0</ele><time>2026-05-03T07:17:16.133Z</time></trkpt><trkpt lat="43.8468325" lon="10.4959094"><ele>18.0</ele><time>2026-05-03T07:17:17.133Z</time></trkpt><trkpt lat="43.8469285" lon="10.4959372"><ele>18.0</ele><time>2026-05-03T07:17:18.132Z</time></trkpt><trkpt lat="43.8470199" lon="10.4959521"><ele>18.0</ele><time>2026-05-03T07:17:19.132Z</time></trkpt><trkpt lat="43.8471135" lon="10.4959807"><ele>18.0</ele><time>2026-05-03T07:17:20.133Z</time></trkpt><trkpt lat="43.8472034" lon="10.4960137"><ele>18.0</ele><time>2026-05-03T07:17:21.132Z</time></trkpt><trkpt lat="43.8472898" lon="10.4960481"><ele>18.0</ele><time>2026-05-03T07:17:22.133Z</time></trkpt><trkpt lat="43.847381" lon="10.4961055"><ele>18.0</ele><time>2026-05-03T07:17:23.133Z</time></trkpt><trkpt lat="43.8474634" lon="10.4961662"><ele>18.0</ele><time>2026-05-03T07:17:24.133Z</time></trkpt><trkpt lat="43.8475368" lon="10.4962311"><ele>18.0</ele><time>2026-05-03T07:17:25.132Z</time></trkpt><trkpt lat="43.8476017" lon="10.4962983"><ele>18.0</ele><time>2026-05-03T07:17:26.132Z</time></trkpt><trkpt lat="43.8476612" lon="10.4963726"><ele>18.0</ele><time>2026-05-03T07:17:27.133Z</time></trkpt><trkpt lat="43.8477191" lon="10.4964671"><ele>18.0</ele><time>2026-05-03T07:17:28.133Z</time></trkpt><trkpt lat="43.847782" lon="10.4965828"><ele>18.0</ele><time>2026-05-03T07:17:29.132Z</time></trkpt><trkpt lat="43.8478399" lon="10.4967153"><ele>18.0</ele><time>2026-05-03T07:17:30.132Z</time></trkpt><trkpt lat="43.8478872" lon="10.4968746"><ele>18.0</ele><time>2026-05-03T07:17:31.133Z</time></trkpt><trkpt lat="43.8479146" lon="10.4970431"><ele>18.0</ele><time>2026-05-03T07:17:32.133Z</time></trkpt><trkpt lat="43.8479458" lon="10.4971757"><ele>18.0</ele><time>2026-05-03T07:17:33.132Z</time></trkpt><trkpt lat="43.8479595" lon="10.4972843"><ele>18.0</ele><time>2026-05-03T07:17:34.132Z</time></trkpt><trkpt lat="43.8479783" lon="10.4973841"><ele>18.0</ele><time>2026-05-03T07:17:35.132Z</time></trkpt><trkpt lat="43.8480024" lon="10.4975544"><ele>18.0</ele><time>2026-05-03T07:17:37.132Z</time></trkpt><trkpt lat="43.8480184" lon="10.4976508"><ele>18.0</ele><time>2026-05-03T07:17:38.133Z</time></trkpt><trkpt lat="43.8480338" lon="10.4977532"><ele>18.0</ele><time>2026-05-03T07:17:39.133Z</time></trkpt><trkpt lat="43.8480479" lon="10.4978602"><ele>18.2</ele><time>2026-05-03T07:17:40.132Z</time></trkpt><trkpt lat="43.8480673" lon="10.4979766"><ele>18.4</ele><time>2026-05-03T07:17:41.133Z</time></trkpt><trkpt lat="43.8480888" lon="10.4980979"><ele>18.599999999999998</ele><time>2026-05-03T07:17:42.132Z</time></trkpt><trkpt lat="43.8481066" lon="10.4982218"><ele>18.8</ele><time>2026-05-03T07:17:43.133Z</time></trkpt><trkpt lat="43.8481356" lon="10.4983551"><ele>19.0</ele><time>2026-05-03T07:17:44.133Z</time></trkpt><trkpt lat="43.8481582" lon="10.4984986"><ele>19.0</ele><time>2026-05-03T07:17:45.132Z</time></trkpt><trkpt lat="43.8481891" lon="10.4986563"><ele>19.0</ele><time>2026-05-03T07:17:46.133Z</time></trkpt><trkpt lat="43.8482195" lon="10.4988055"><ele>19.0</ele><time>2026-05-03T07:17:47.132Z</time></trkpt><trkpt lat="43.8482463" lon="10.4989613"><ele>19.0</ele><time>2026-05-03T07:17:48.133Z</time></trkpt><trkpt lat="43.8482724" lon="10.4990988"><ele>19.0</ele><time>2026-05-03T07:17:49.132Z</time></trkpt><trkpt lat="43.8483" lon="10.4992265"><ele>19.0</ele><time>2026-05-03T07:17:50.133Z</time></trkpt><trkpt lat="43.8483205" lon="10.4993431"><ele>19.0</ele><time>2026-05-03T07:17:51.133Z</time></trkpt><trkpt lat="43.8483386" lon="10.4994569"><ele>19.0</ele><time>2026-05-03T07:17:52.132Z</time></trkpt><trkpt lat="43.84836" lon="10.4995789"><ele>19.0</ele><time>2026-05-03T07:17:53.132Z</time></trkpt><trkpt lat="43.8483849" lon="10.4997115"><ele>19.0</ele><time>2026-05-03T07:17:54.132Z</time></trkpt><trkpt lat="43.8484057" lon="10.4998492"><ele>19.0</ele><time>2026-05-03T07:17:55.132Z</time></trkpt><trkpt lat="43.8484296" lon="10.4999803"><ele>19.0</ele><time>2026-05-03T07:17:56.132Z</time></trkpt><trkpt lat="43.8484494" lon="10.5001092"><ele>19.0</ele><time>2026-05-03T07:17:57.133Z</time></trkpt><trkpt lat="43.8484727" lon="10.5002433"><ele>19.0</ele><time>2026-05-03T07:17:58.133Z</time></trkpt><trkpt lat="43.8484924" lon="10.5003823"><ele>19.0</ele><time>2026-05-03T07:17:59.133Z</time></trkpt><trkpt lat="43.8485216" lon="10.5005243"><ele>19.0</ele><time>2026-05-03T07:18:00.132Z</time></trkpt><trkpt lat="43.8485492" lon="10.5006781"><ele>19.0</ele><time>2026-05-03T07:18:01.133Z</time></trkpt><trkpt lat="43.848575" lon="10.5008397"><ele>19.0</ele><time>2026-05-03T07:18:02.133Z</time></trkpt><trkpt lat="43.8486045" lon="10.5010077"><ele>19.0</ele><time>2026-05-03T07:18:03.132Z</time></trkpt><trkpt lat="43.8486382" lon="10.501174"><ele>19.0</ele><time>2026-05-03T07:18:04.132Z</time></trkpt><trkpt lat="43.848669" lon="10.5013415"><ele>19.0</ele><time>2026-05-03T07:18:05.133Z</time></trkpt><trkpt lat="43.8486941" lon="10.5014883"><ele>19.0</ele><time>2026-05-03T07:18:06.133Z</time></trkpt><trkpt lat="43.8487183" lon="10.5016262"><ele>19.0</ele><time>2026-05-03T07:18:07.132Z</time></trkpt><trkpt lat="43.8487427" lon="10.5017387"><ele>19.0</ele><time>2026-05-03T07:18:08.132Z</time></trkpt><trkpt lat="43.848766" lon="10.5018624"><ele>19.0</ele><time>2026-05-03T07:18:09.132Z</time></trkpt><trkpt lat="43.8487739" lon="10.5019888"><ele>19.0</ele><time>2026-05-03T07:18:10.132Z</time></trkpt><trkpt lat="43.848779" lon="10.5021212"><ele>19.0</ele><time>2026-05-03T07:18:11.133Z</time></trkpt><trkpt lat="43.8487699" lon="10.5022437"><ele>19.0</ele><time>2026-05-03T07:18:12.133Z</time></trkpt><trkpt lat="43.848748" lon="10.5023534"><ele>19.0</ele><time>2026-05-03T07:18:13.133Z</time></trkpt><trkpt lat="43.8487192" lon="10.5024597"><ele>19.0</ele><time>2026-05-03T07:18:14.132Z</time></trkpt><trkpt lat="43.8486811" lon="10.5025464"><ele>18.8</ele><time>2026-05-03T07:18:15.132Z</time></trkpt><trkpt lat="43.8486368" lon="10.5026406"><ele>18.599999999999998</ele><time>2026-05-03T07:18:16.133Z</time></trkpt><trkpt lat="43.8485899" lon="10.5027552"><ele>18.4</ele><time>2026-05-03T07:18:17.133Z</time></trkpt><trkpt lat="43.8485269" lon="10.5028807"><ele>18.2</ele><time>2026-05-03T07:18:18.133Z</time></trkpt><trkpt lat="43.8484557" lon="10.5030155"><ele>18.0</ele><time>2026-05-03T07:18:19.132Z</time></trkpt><trkpt lat="43.8483962" lon="10.5031494"><ele>18.166666666666668</ele><time>2026-05-03T07:18:20.132Z</time></trkpt><trkpt lat="43.8483378" lon="10.503267"><ele>18.333333333333332</ele><time>2026-05-03T07:18:21.133Z</time></trkpt><trkpt lat="43.8482829" lon="10.503371"><ele>18.5</ele><time>2026-05-03T07:18:22.132Z</time></trkpt><trkpt lat="43.8482356" lon="10.5034754"><ele>18.666666666666664</ele><time>2026-05-03T07:18:23.133Z</time></trkpt><trkpt lat="43.8481963" lon="10.5035813"><ele>18.833333333333332</ele><time>2026-05-03T07:18:24.132Z</time></trkpt><trkpt lat="43.8481641" lon="10.5036808"><ele>19.0</ele><time>2026-05-03T07:18:25.133Z</time></trkpt><trkpt lat="43.8481348" lon="10.5037763"><ele>19.0</ele><time>2026-05-03T07:18:26.132Z</time></trkpt><trkpt lat="43.8481325" lon="10.5038648"><ele>19.0</ele><time>2026-05-03T07:18:27.133Z</time></trkpt><trkpt lat="43.8481264" lon="10.5039621"><ele>19.0</ele><time>2026-05-03T07:18:28.132Z</time></trkpt><trkpt lat="43.848141" lon="10.5041554"><ele>19.0</ele><time>2026-05-03T07:18:30.132Z</time></trkpt><trkpt lat="43.8481494" lon="10.5042698"><ele>19.0</ele><time>2026-05-03T07:18:31.133Z</time></trkpt><trkpt lat="43.8481639" lon="10.5043796"><ele>19.0</ele><time>2026-05-03T07:18:32.133Z</time></trkpt><trkpt lat="43.848177" lon="10.5044828"><ele>19.166666666666664</ele><time>2026-05-03T07:18:33.132Z</time></trkpt><trkpt lat="43.8481924" lon="10.5045897"><ele>19.333333333333332</ele><time>2026-05-03T07:18:34.132Z</time></trkpt><trkpt lat="43.8482072" lon="10.5046893"><ele>19.5</ele><time>2026-05-03T07:18:35.132Z</time></trkpt><trkpt lat="43.8482197" lon="10.5047955"><ele>19.666666666666668</ele><time>2026-05-03T07:18:36.133Z</time></trkpt><trkpt lat="43.848235" lon="10.5049007"><ele>19.833333333333336</ele><time>2026-05-03T07:18:37.132Z</time></trkpt><trkpt lat="43.8482479" lon="10.5050087"><ele>20.0</ele><time>2026-05-03T07:18:38.132Z</time></trkpt><trkpt lat="43.8482647" lon="10.5051151"><ele>20.0</ele><time>2026-05-03T07:18:39.133Z</time></trkpt><trkpt lat="43.8482797" lon="10.5052265"><ele>20.0</ele><time>2026-05-03T07:18:40.132Z</time></trkpt><trkpt lat="43.8482935" lon="10.5053455"><ele>20.0</ele><time>2026-05-03T07:18:41.133Z</time></trkpt><trkpt lat="43.8483118" lon="10.505457"><ele>20.0</ele><time>2026-05-03T07:18:42.132Z</time></trkpt><trkpt lat="43.8483285" lon="10.5055693"><ele>20.0</ele><time>2026-05-03T07:18:43.133Z</time></trkpt><trkpt lat="43.8483455" lon="10.5056688"><ele>20.0</ele><time>2026-05-03T07:18:44.132Z</time></trkpt><trkpt lat="43.8483648" lon="10.5057751"><ele>20.0</ele><time>2026-05-03T07:18:45.133Z</time></trkpt><trkpt lat="43.848385" lon="10.5058847"><ele>20.0</ele><time>2026-05-03T07:18:46.132Z</time></trkpt><trkpt lat="43.8484038" lon="10.5059823"><ele>20.0</ele><time>2026-05-03T07:18:47.133Z</time></trkpt><trkpt lat="43.848422" lon="10.5060666"><ele>20.0</ele><time>2026-05-03T07:18:48.133Z</time></trkpt><trkpt lat="43.8484661" lon="10.5061972"><ele>20.0</ele><time>2026-05-03T07:18:50.133Z</time></trkpt><trkpt lat="43.8484877" lon="10.5063097"><ele>20.0</ele><time>2026-05-03T07:18:52.133Z</time></trkpt><trkpt lat="43.8485009" lon="10.5064455"><ele>20.2</ele><time>2026-05-03T07:18:54.132Z</time></trkpt><trkpt lat="43.8484844" lon="10.5065854"><ele>20.4</ele><time>2026-05-03T07:18:56.132Z</time></trkpt><trkpt lat="43.8485059" lon="10.5067339"><ele>20.6</ele><time>2026-05-03T07:18:58.132Z</time></trkpt><trkpt lat="43.848593" lon="10.5068552"><ele>20.8</ele><time>2026-05-03T07:19:00.133Z</time></trkpt><trkpt lat="43.848655" lon="10.5069019"><ele>21.0</ele><time>2026-05-03T07:19:01.133Z</time></trkpt><trkpt lat="43.8487137" lon="10.5069571"><ele>21.0</ele><time>2026-05-03T07:19:02.133Z</time></trkpt><trkpt lat="43.848767" lon="10.5070121"><ele>21.0</ele><time>2026-05-03T07:19:03.132Z</time></trkpt><trkpt lat="43.8488536" lon="10.5071364"><ele>21.0</ele><time>2026-05-03T07:19:05.132Z</time></trkpt><trkpt lat="43.848905" lon="10.5072146"><ele>21.0</ele><time>2026-05-03T07:19:06.133Z</time></trkpt><trkpt lat="43.8489682" lon="10.5073036"><ele>21.0</ele><time>2026-05-03T07:19:07.133Z</time></trkpt><trkpt lat="43.8490462" lon="10.5074123"><ele>21.200000000000003</ele><time>2026-05-03T07:19:08.133Z</time></trkpt><trkpt lat="43.8491165" lon="10.5075118"><ele>21.400000000000002</ele><time>2026-05-03T07:19:09.133Z</time></trkpt><trkpt lat="43.849185" lon="10.5076102"><ele>21.6</ele><time>2026-05-03T07:19:10.132Z</time></trkpt><trkpt lat="43.8492614" lon="10.507717"><ele>21.8</ele><time>2026-05-03T07:19:11.133Z</time></trkpt><trkpt lat="43.8493396" lon="10.5078266"><ele>22.0</ele><time>2026-05-03T07:19:12.132Z</time></trkpt><trkpt lat="43.8494146" lon="10.5079314"><ele>21.666666666666664</ele><time>2026-05-03T07:19:13.133Z</time></trkpt><trkpt lat="43.8494814" lon="10.5080258"><ele>21.333333333333332</ele><time>2026-05-03T07:19:14.133Z</time></trkpt><trkpt lat="43.8495471" lon="10.5081169"><ele>21.0</ele><time>2026-05-03T07:19:15.133Z</time></trkpt><trkpt lat="43.8496037" lon="10.5081988"><ele>20.666666666666668</ele><time>2026-05-03T07:19:16.132Z</time></trkpt><trkpt lat="43.8496474" lon="10.5082621"><ele>20.333333333333336</ele><time>2026-05-03T07:19:17.133Z</time></trkpt><trkpt lat="43.8496914" lon="10.5083312"><ele>20.0</ele><time>2026-05-03T07:19:19.133Z</time></trkpt><trkpt lat="43.8497314" lon="10.5084046"><ele>20.0</ele><time>2026-05-03T07:19:24.133Z</time></trkpt><trkpt lat="43.8497687" lon="10.5084965"><ele>20.0</ele><time>2026-05-03T07:19:27.132Z</time></trkpt><trkpt lat="43.8498044" lon="10.5086001"><ele>20.0</ele><time>2026-05-03T07:19:32.132Z</time></trkpt><trkpt lat="43.8498197" lon="10.5087178"><ele>20.0</ele><time>2026-05-03T07:19:35.133Z</time></trkpt><trkpt lat="43.8498934" lon="10.5087908"><ele>20.0</ele><time>2026-05-03T07:19:38.132Z</time></trkpt><trkpt lat="43.8499584" lon="10.5087964"><ele>20.0</ele><time>2026-05-03T07:19:39.133Z</time></trkpt><trkpt lat="43.8500566" lon="10.5087982"><ele>19.333333333333336</ele><time>2026-05-03T07:19:40.132Z</time></trkpt><trkpt lat="43.8501813" lon="10.5088101"><ele>18.666666666666668</ele><time>2026-05-03T07:19:41.133Z</time></trkpt><trkpt lat="43.8503499" lon="10.5088321"><ele>18.0</ele><time>2026-05-03T07:19:42.132Z</time></trkpt><trkpt lat="43.8505343" lon="10.5088523"><ele>18.0</ele><time>2026-05-03T07:19:43.132Z</time></trkpt><trkpt lat="43.8507424" lon="10.5088705"><ele>18.0</ele><time>2026-05-03T07:19:44.133Z</time></trkpt><trkpt lat="43.8509424" lon="10.5088889"><ele>18.0</ele><time>2026-05-03T07:19:45.133Z</time></trkpt><trkpt lat="43.8511314" lon="10.5089068"><ele>18.666666666666668</ele><time>2026-05-03T07:19:46.132Z</time></trkpt><trkpt lat="43.8513131" lon="10.5089234"><ele>19.333333333333336</ele><time>2026-05-03T07:19:47.133Z</time></trkpt><trkpt lat="43.8514866" lon="10.5089406"><ele>20.0</ele><time>2026-05-03T07:19:48.133Z</time></trkpt><trkpt lat="43.8516641" lon="10.5089557"><ele>21.333333333333336</ele><time>2026-05-03T07:19:49.132Z</time></trkpt><trkpt lat="43.8518372" lon="10.5089698"><ele>22.666666666666668</ele><time>2026-05-03T07:19:50.132Z</time></trkpt><trkpt lat="43.8519976" lon="10.5089834"><ele>24.0</ele><time>2026-05-03T07:19:51.132Z</time></trkpt><trkpt lat="43.8521328" lon="10.5089964"><ele>24.0</ele><time>2026-05-03T07:19:52.133Z</time></trkpt><trkpt lat="43.8522583" lon="10.5090088"><ele>24.0</ele><time>2026-05-03T07:19:53.132Z</time></trkpt><trkpt lat="43.8523668" lon="10.5090209"><ele>24.0</ele><time>2026-05-03T07:19:54.132Z</time></trkpt><trkpt lat="43.8524604" lon="10.509032"><ele>24.0</ele><time>2026-05-03T07:19:55.133Z</time></trkpt><trkpt lat="43.8525453" lon="10.5090415"><ele>24.0</ele><time>2026-05-03T07:19:56.133Z</time></trkpt><trkpt lat="43.852619" lon="10.5090503"><ele>23.57142857142857</ele><time>2026-05-03T07:19:57.132Z</time></trkpt><trkpt lat="43.852721" lon="10.5090584"><ele>23.142857142857142</ele><time>2026-05-03T07:19:59.132Z</time></trkpt><trkpt lat="43.8527839" lon="10.5090691"><ele>22.714285714285715</ele><time>2026-05-03T07:20:03.133Z</time></trkpt><trkpt lat="43.8528513" lon="10.5090646"><ele>22.285714285714285</ele><time>2026-05-03T07:20:07.132Z</time></trkpt><trkpt lat="43.8529181" lon="10.5090775"><ele>21.857142857142858</ele><time>2026-05-03T07:20:21.133Z</time></trkpt><trkpt lat="43.8529861" lon="10.5090809"><ele>21.428571428571427</ele><time>2026-05-03T07:20:23.132Z</time></trkpt><trkpt lat="43.8530497" lon="10.5090832"><ele>21.0</ele><time>2026-05-03T07:20:24.133Z</time></trkpt><trkpt lat="43.8531192" lon="10.5090868"><ele>21.0</ele><time>2026-05-03T07:20:25.133Z</time></trkpt><trkpt lat="43.8531965" lon="10.5090838"><ele>21.0</ele><time>2026-05-03T07:20:26.132Z</time></trkpt><trkpt lat="43.8532789" lon="10.5090855"><ele>21.0</ele><time>2026-05-03T07:20:27.133Z</time></trkpt><trkpt lat="43.8533688" lon="10.5090918"><ele>21.0</ele><time>2026-05-03T07:20:28.133Z</time></trkpt><trkpt lat="43.8534643" lon="10.5090982"><ele>21.0</ele><time>2026-05-03T07:20:29.132Z</time></trkpt><trkpt lat="43.8535623" lon="10.509105"><ele>21.0</ele><time>2026-05-03T07:20:30.132Z</time></trkpt><trkpt lat="43.8536587" lon="10.5091133"><ele>20.833333333333332</ele><time>2026-05-03T07:20:31.133Z</time></trkpt><trkpt lat="43.8537479" lon="10.50912"><ele>20.666666666666668</ele><time>2026-05-03T07:20:32.132Z</time></trkpt><trkpt lat="43.8538306" lon="10.5091259"><ele>20.5</ele><time>2026-05-03T07:20:33.132Z</time></trkpt><trkpt lat="43.8539061" lon="10.5091335"><ele>20.333333333333336</ele><time>2026-05-03T07:20:34.132Z</time></trkpt><trkpt lat="43.8539719" lon="10.5091397"><ele>20.166666666666668</ele><time>2026-05-03T07:20:35.132Z</time></trkpt><trkpt lat="43.854052" lon="10.5091458"><ele>20.0</ele><time>2026-05-03T07:20:37.132Z</time></trkpt><trkpt lat="43.8541176" lon="10.5091469"><ele>20.0</ele><time>2026-05-03T07:20:41.132Z</time></trkpt><trkpt lat="43.854201" lon="10.5091544"><ele>20.0</ele><time>2026-05-03T07:20:49.132Z</time></trkpt><trkpt lat="43.8542657" lon="10.5091568"><ele>20.0</ele><time>2026-05-03T07:20:51.132Z</time></trkpt><trkpt lat="43.8543428" lon="10.5091529"><ele>20.0</ele><time>2026-05-03T07:20:53.132Z</time></trkpt><trkpt lat="43.8544149" lon="10.5091027"><ele>20.0</ele><time>2026-05-03T07:20:55.132Z</time></trkpt><trkpt lat="43.854473" lon="10.5090467"><ele>20.0</ele><time>2026-05-03T07:20:57.133Z</time></trkpt><trkpt lat="43.8545353" lon="10.5089925"><ele>20.0</ele><time>2026-05-03T07:20:59.133Z</time></trkpt><trkpt lat="43.8546051" lon="10.5089307"><ele>20.0</ele><time>2026-05-03T07:21:02.139Z</time></trkpt><trkpt lat="43.8546556" lon="10.5088729"><ele>20.0</ele><time>2026-05-03T07:21:05.138Z</time></trkpt><trkpt lat="43.8547135" lon="10.5088322"><ele>20.0</ele><time>2026-05-03T07:21:11.138Z</time></trkpt><trkpt lat="43.8547988" lon="10.5087765"><ele>20.0</ele><time>2026-05-03T07:21:14.139Z</time></trkpt><trkpt lat="43.8548499" lon="10.5087202"><ele>20.0</ele><time>2026-05-03T07:21:16.139Z</time></trkpt><trkpt lat="43.8549163" lon="10.5087118"><ele>20.0</ele><time>2026-05-03T07:21:20.139Z</time></trkpt><trkpt lat="43.8549704" lon="10.5086543"><ele>20.428571428571427</ele><time>2026-05-03T07:21:25.138Z</time></trkpt><trkpt lat="43.854894" lon="10.5086763"><ele>20.857142857142858</ele><time>2026-05-03T07:22:20.139Z</time></trkpt><trkpt lat="43.8548314" lon="10.5086971"><ele>21.285714285714285</ele><time>2026-05-03T07:22:33.138Z</time></trkpt><trkpt lat="43.8547649" lon="10.5087151"><ele>21.714285714285715</ele><time>2026-05-03T07:22:41.138Z</time></trkpt><trkpt lat="43.8547246" lon="10.5086286"><ele>22.142857142857142</ele><time>2026-05-03T07:22:47.139Z</time></trkpt><trkpt lat="43.8547557" lon="10.5085469"><ele>22.571428571428573</ele><time>2026-05-03T07:25:53.139Z</time></trkpt><trkpt lat="43.854694" lon="10.5085291"><ele>23.0</ele><time>2026-05-03T07:32:23.139Z</time></trkpt><trkpt lat="43.8546659" lon="10.5086229"><ele>23.0</ele><time>2026-05-03T07:32:42.138Z</time></trkpt><trkpt lat="43.8547341" lon="10.5085911"><ele>23.0</ele><time>2026-05-03T07:56:27.139Z</time></trkpt><trkpt lat="43.8547854" lon="10.5086494"><ele>23.0</ele><time>2026-05-03T07:56:32.139Z</time></trkpt><trkpt lat="43.8548471" lon="10.5086895"><ele>23.0</ele><time>2026-05-03T07:57:07.138Z</time></trkpt><trkpt lat="43.8547799" lon="10.5087095"><ele>23.0</ele><time>2026-05-03T07:59:32.138Z</time></trkpt><trkpt lat="43.8548509" lon="10.5086948"><ele>23.0</ele><time>2026-05-03T08:05:42.138Z</time></trkpt><trkpt lat="43.8549078" lon="10.5086383"><ele>23.0</ele><time>2026-05-03T08:05:47.139Z</time></trkpt><trkpt lat="43.8549706" lon="10.5086237"><ele>23.0</ele><time>2026-05-03T08:05:54.137Z</time></trkpt><trkpt lat="43.8550234" lon="10.5085631"><ele>23.0</ele><time>2026-05-03T08:08:21.136Z</time></trkpt><trkpt lat="43.8550547" lon="10.5084831"><ele>23.0</ele><time>2026-05-03T08:08:24.135Z</time></trkpt><trkpt lat="43.8551172" lon="10.5084081"><ele>23.0</ele><time>2026-05-03T08:10:18.135Z</time></trkpt><trkpt lat="43.8551434" lon="10.5083198"><ele>23.0</ele><time>2026-05-03T08:10:20.136Z</time></trkpt><trkpt lat="43.8551388" lon="10.5081812"><ele>23.0</ele><time>2026-05-03T08:10:22.136Z</time></trkpt><trkpt lat="43.8551192" lon="10.5080646"><ele>23.2</ele><time>2026-05-03T08:10:24.136Z</time></trkpt><trkpt lat="43.8551661" lon="10.5079396"><ele>23.4</ele><time>2026-05-03T08:10:26.136Z</time></trkpt><trkpt lat="43.8552813" lon="10.5078978"><ele>23.599999999999998</ele><time>2026-05-03T08:10:28.136Z</time></trkpt><trkpt lat="43.855353" lon="10.5079023"><ele>23.799999999999997</ele><time>2026-05-03T08:10:29.135Z</time></trkpt><trkpt lat="43.8554363" lon="10.5078989"><ele>24.0</ele><time>2026-05-03T08:10:30.135Z</time></trkpt><trkpt lat="43.8555175" lon="10.5078868"><ele>24.0</ele><time>2026-05-03T08:10:31.136Z</time></trkpt><trkpt lat="43.8555889" lon="10.5078632"><ele>24.0</ele><time>2026-05-03T08:10:32.136Z</time></trkpt><trkpt lat="43.8556586" lon="10.50784"><ele>24.0</ele><time>2026-05-03T08:10:33.135Z</time></trkpt><trkpt lat="43.8557218" lon="10.5078173"><ele>24.0</ele><time>2026-05-03T08:10:34.135Z</time></trkpt><trkpt lat="43.8558379" lon="10.5077812"><ele>24.0</ele><time>2026-05-03T08:10:36.135Z</time></trkpt><trkpt lat="43.8559553" lon="10.5077664"><ele>24.0</ele><time>2026-05-03T08:10:38.136Z</time></trkpt><trkpt lat="43.85606" lon="10.5077612"><ele>24.0</ele><time>2026-05-03T08:10:40.135Z</time></trkpt><trkpt lat="43.8561748" lon="10.5077585"><ele>24.0</ele><time>2026-05-03T08:10:42.135Z</time></trkpt><trkpt lat="43.8563064" lon="10.5077466"><ele>24.0</ele><time>2026-05-03T08:10:44.135Z</time></trkpt><trkpt lat="43.8563733" lon="10.5077275"><ele>24.0</ele><time>2026-05-03T08:10:45.135Z</time></trkpt><trkpt lat="43.856445" lon="10.5077115"><ele>24.0</ele><time>2026-05-03T08:10:46.135Z</time></trkpt><trkpt lat="43.8565624" lon="10.5076891"><ele>24.0</ele><time>2026-05-03T08:10:48.135Z</time></trkpt><trkpt lat="43.856686" lon="10.5076335"><ele>24.0</ele><time>2026-05-03T08:10:50.136Z</time></trkpt><trkpt lat="43.8567527" lon="10.5075843"><ele>24.0</ele><time>2026-05-03T08:10:51.136Z</time></trkpt><trkpt lat="43.8568158" lon="10.5075168"><ele>24.0</ele><time>2026-05-03T08:10:52.136Z</time></trkpt><trkpt lat="43.8568798" lon="10.5074372"><ele>24.0</ele><time>2026-05-03T08:10:53.136Z</time></trkpt><trkpt lat="43.8569465" lon="10.5073478"><ele>23.333333333333332</ele><time>2026-05-03T08:10:54.135Z</time></trkpt><trkpt lat="43.8570132" lon="10.5072547"><ele>22.666666666666668</ele><time>2026-05-03T08:10:55.135Z</time></trkpt><trkpt lat="43.8570766" lon="10.5071654"><ele>22.0</ele><time>2026-05-03T08:10:56.136Z</time></trkpt><trkpt lat="43.8571388" lon="10.5070808"><ele>21.333333333333336</ele><time>2026-05-03T08:10:57.135Z</time></trkpt><trkpt lat="43.8571972" lon="10.507002"><ele>20.666666666666668</ele><time>2026-05-03T08:10:58.135Z</time></trkpt><trkpt lat="43.8572521" lon="10.5069263"><ele>20.0</ele><time>2026-05-03T08:10:59.136Z</time></trkpt><trkpt lat="43.8573044" lon="10.5068508"><ele>20.166666666666668</ele><time>2026-05-03T08:11:00.135Z</time></trkpt><trkpt lat="43.8573567" lon="10.5067745"><ele>20.333333333333336</ele><time>2026-05-03T08:11:01.135Z</time></trkpt><trkpt lat="43.8574135" lon="10.5066948"><ele>20.5</ele><time>2026-05-03T08:11:02.135Z</time></trkpt><trkpt lat="43.8574728" lon="10.5066102"><ele>20.666666666666668</ele><time>2026-05-03T08:11:03.135Z</time></trkpt><trkpt lat="43.8575383" lon="10.5065228"><ele>20.833333333333332</ele><time>2026-05-03T08:11:04.136Z</time></trkpt><trkpt lat="43.8576052" lon="10.5064296"><ele>21.0</ele><time>2026-05-03T08:11:05.135Z</time></trkpt><trkpt lat="43.8576719" lon="10.506337"><ele>21.0</ele><time>2026-05-03T08:11:06.135Z</time></trkpt><trkpt lat="43.8577309" lon="10.5062527"><ele>21.0</ele><time>2026-05-03T08:11:07.135Z</time></trkpt><trkpt lat="43.857787" lon="10.506171"><ele>21.0</ele><time>2026-05-03T08:11:08.136Z</time></trkpt><trkpt lat="43.8578431" lon="10.5060952"><ele>21.0</ele><time>2026-05-03T08:11:09.135Z</time></trkpt><trkpt lat="43.8579037" lon="10.5060263"><ele>21.0</ele><time>2026-05-03T08:11:10.136Z</time></trkpt><trkpt lat="43.8579751" lon="10.5059703"><ele>21.0</ele><time>2026-05-03T08:11:11.136Z</time></trkpt><trkpt lat="43.858063" lon="10.5059312"><ele>22.0</ele><time>2026-05-03T08:11:12.136Z</time></trkpt><trkpt lat="43.8581621" lon="10.5059156"><ele>23.0</ele><time>2026-05-03T08:11:13.136Z</time></trkpt><trkpt lat="43.8582725" lon="10.5059107"><ele>24.0</ele><time>2026-05-03T08:11:14.136Z</time></trkpt><trkpt lat="43.8583896" lon="10.5059233"><ele>25.0</ele><time>2026-05-03T08:11:15.136Z</time></trkpt><trkpt lat="43.8585038" lon="10.5059418"><ele>26.0</ele><time>2026-05-03T08:11:16.135Z</time></trkpt><trkpt lat="43.8586118" lon="10.5059772"><ele>26.0</ele><time>2026-05-03T08:11:17.135Z</time></trkpt><trkpt lat="43.8587132" lon="10.5060312"><ele>26.0</ele><time>2026-05-03T08:11:18.135Z</time></trkpt><trkpt lat="43.8588095" lon="10.5060996"><ele>26.0</ele><time>2026-05-03T08:11:19.135Z</time></trkpt><trkpt lat="43.8589088" lon="10.5061725"><ele>26.0</ele><time>2026-05-03T08:11:20.136Z</time></trkpt><trkpt lat="43.8590054" lon="10.5062473"><ele>26.0</ele><time>2026-05-03T08:11:21.136Z</time></trkpt><trkpt lat="43.8591014" lon="10.506324"><ele>26.0</ele><time>2026-05-03T08:11:22.136Z</time></trkpt><trkpt lat="43.8591972" lon="10.5064058"><ele>26.0</ele><time>2026-05-03T08:11:23.136Z</time></trkpt><trkpt lat="43.8592971" lon="10.506493"><ele>26.0</ele><time>2026-05-03T08:11:24.135Z</time></trkpt><trkpt lat="43.8593976" lon="10.5065814"><ele>26.0</ele><time>2026-05-03T08:11:25.135Z</time></trkpt><trkpt lat="43.8594993" lon="10.5066811"><ele>25.75</ele><time>2026-05-03T08:11:26.135Z</time></trkpt><trkpt lat="43.8596021" lon="10.5067903"><ele>25.5</ele><time>2026-05-03T08:11:27.135Z</time></trkpt><trkpt lat="43.8597053" lon="10.5069033"><ele>25.25</ele><time>2026-05-03T08:11:28.135Z</time></trkpt><trkpt lat="43.859809" lon="10.5070236"><ele>25.0</ele><time>2026-05-03T08:11:29.135Z</time></trkpt><trkpt lat="43.859919" lon="10.5071417"><ele>25.0</ele><time>2026-05-03T08:11:30.136Z</time></trkpt><trkpt lat="43.8600327" lon="10.5072611"><ele>25.0</ele><time>2026-05-03T08:11:31.135Z</time></trkpt><trkpt lat="43.8601446" lon="10.507386"><ele>25.0</ele><time>2026-05-03T08:11:32.135Z</time></trkpt><trkpt lat="43.8602594" lon="10.5075074"><ele>25.0</ele><time>2026-05-03T08:11:33.136Z</time></trkpt><trkpt lat="43.8603747" lon="10.5076284"><ele>24.75</ele><time>2026-05-03T08:11:34.135Z</time></trkpt><trkpt lat="43.8604879" lon="10.5077444"><ele>24.5</ele><time>2026-05-03T08:11:35.135Z</time></trkpt><trkpt lat="43.8605981" lon="10.5078575"><ele>24.25</ele><time>2026-05-03T08:11:36.135Z</time></trkpt><trkpt lat="43.8607094" lon="10.5079657"><ele>24.0</ele><time>2026-05-03T08:11:37.135Z</time></trkpt><trkpt lat="43.8608254" lon="10.5080727"><ele>24.0</ele><time>2026-05-03T08:11:38.136Z</time></trkpt><trkpt lat="43.8609473" lon="10.5081718"><ele>24.0</ele><time>2026-05-03T08:11:39.135Z</time></trkpt><trkpt lat="43.8610748" lon="10.5082696"><ele>24.0</ele><time>2026-05-03T08:11:40.135Z</time></trkpt><trkpt lat="43.8611994" lon="10.5083582"><ele>24.0</ele><time>2026-05-03T08:11:41.135Z</time></trkpt><trkpt lat="43.8613157" lon="10.5084435"><ele>24.2</ele><time>2026-05-03T08:11:42.135Z</time></trkpt><trkpt lat="43.8614194" lon="10.5085161"><ele>24.4</ele><time>2026-05-03T08:11:43.135Z</time></trkpt><trkpt lat="43.8615146" lon="10.508588"><ele>24.6</ele><time>2026-05-03T08:11:44.135Z</time></trkpt><trkpt lat="43.8616071" lon="10.508652"><ele>24.8</ele><time>2026-05-03T08:11:45.135Z</time></trkpt><trkpt lat="43.8616964" lon="10.508709"><ele>25.0</ele><time>2026-05-03T08:11:46.136Z</time></trkpt><trkpt lat="43.8617834" lon="10.5087653"><ele>25.000000000000004</ele><time>2026-05-03T08:11:47.136Z</time></trkpt><trkpt lat="43.8618671" lon="10.5088204"><ele>25.0</ele><time>2026-05-03T08:11:48.136Z</time></trkpt><trkpt lat="43.8619425" lon="10.5088709"><ele>25.0</ele><time>2026-05-03T08:11:49.135Z</time></trkpt><trkpt lat="43.8620221" lon="10.5089199"><ele>25.0</ele><time>2026-05-03T08:11:50.136Z</time></trkpt><trkpt lat="43.8621018" lon="10.5089683"><ele>25.000000000000004</ele><time>2026-05-03T08:11:51.135Z</time></trkpt><trkpt lat="43.8621889" lon="10.5090184"><ele>25.0</ele><time>2026-05-03T08:11:52.135Z</time></trkpt><trkpt lat="43.8622784" lon="10.509072"><ele>25.0</ele><time>2026-05-03T08:11:53.136Z</time></trkpt><trkpt lat="43.8623731" lon="10.5091288"><ele>25.0</ele><time>2026-05-03T08:11:54.136Z</time></trkpt><trkpt lat="43.8624694" lon="10.5091827"><ele>25.0</ele><time>2026-05-03T08:11:55.135Z</time></trkpt><trkpt lat="43.862559" lon="10.509236"><ele>25.0</ele><time>2026-05-03T08:11:56.136Z</time></trkpt><trkpt lat="43.8626525" lon="10.5092789"><ele>25.0</ele><time>2026-05-03T08:11:57.136Z</time></trkpt><trkpt lat="43.8627351" lon="10.5093255"><ele>24.833333333333336</ele><time>2026-05-03T08:11:58.135Z</time></trkpt><trkpt lat="43.8628052" lon="10.5093832"><ele>24.666666666666668</ele><time>2026-05-03T08:11:59.136Z</time></trkpt><trkpt lat="43.8628582" lon="10.5094586"><ele>24.5</ele><time>2026-05-03T08:12:00.136Z</time></trkpt><trkpt lat="43.8628984" lon="10.5095562"><ele>24.333333333333336</ele><time>2026-05-03T08:12:01.135Z</time></trkpt><trkpt lat="43.8629353" lon="10.5096715"><ele>24.166666666666668</ele><time>2026-05-03T08:12:02.135Z</time></trkpt><trkpt lat="43.8629923" lon="10.509775"><ele>24.0</ele><time>2026-05-03T08:12:03.136Z</time></trkpt><trkpt lat="43.8630631" lon="10.5098695"><ele>23.75</ele><time>2026-05-03T08:12:04.136Z</time></trkpt><trkpt lat="43.8631269" lon="10.509984"><ele>23.5</ele><time>2026-05-03T08:12:05.135Z</time></trkpt><trkpt lat="43.863183" lon="10.5101213"><ele>23.25</ele><time>2026-05-03T08:12:06.135Z</time></trkpt><trkpt lat="43.863242" lon="10.5102702"><ele>23.0</ele><time>2026-05-03T08:12:07.135Z</time></trkpt><trkpt lat="43.8633127" lon="10.5104124"><ele>23.0</ele><time>2026-05-03T08:12:08.136Z</time></trkpt><trkpt lat="43.8633947" lon="10.5105514"><ele>23.0</ele><time>2026-05-03T08:12:09.136Z</time></trkpt><trkpt lat="43.8634891" lon="10.5106891"><ele>23.0</ele><time>2026-05-03T08:12:10.136Z</time></trkpt><trkpt lat="43.8635878" lon="10.5108322"><ele>23.0</ele><time>2026-05-03T08:12:11.136Z</time></trkpt><trkpt lat="43.8636881" lon="10.5109789"><ele>22.75</ele><time>2026-05-03T08:12:12.135Z</time></trkpt><trkpt lat="43.8637918" lon="10.5111252"><ele>22.5</ele><time>2026-05-03T08:12:13.135Z</time></trkpt><trkpt lat="43.8638887" lon="10.5112635"><ele>22.25</ele><time>2026-05-03T08:12:14.135Z</time></trkpt><trkpt lat="43.8639795" lon="10.5113943"><ele>22.0</ele><time>2026-05-03T08:12:15.136Z</time></trkpt><trkpt lat="43.8640658" lon="10.5115216"><ele>22.0</ele><time>2026-05-03T08:12:16.135Z</time></trkpt><trkpt lat="43.8641483" lon="10.5116504"><ele>22.0</ele><time>2026-05-03T08:12:17.136Z</time></trkpt><trkpt lat="43.8642246" lon="10.5117853"><ele>22.0</ele><time>2026-05-03T08:12:18.136Z</time></trkpt><trkpt lat="43.8642949" lon="10.5119266"><ele>22.0</ele><time>2026-05-03T08:12:19.135Z</time></trkpt><trkpt lat="43.8643543" lon="10.5120756"><ele>22.5</ele><time>2026-05-03T08:12:20.136Z</time></trkpt><trkpt lat="43.8644003" lon="10.5122379"><ele>23.0</ele><time>2026-05-03T08:12:21.136Z</time></trkpt><trkpt lat="43.8644388" lon="10.5124128"><ele>23.5</ele><time>2026-05-03T08:12:22.135Z</time></trkpt><trkpt lat="43.8644643" lon="10.5125972"><ele>24.0</ele><time>2026-05-03T08:12:23.135Z</time></trkpt><trkpt lat="43.864478" lon="10.5127911"><ele>24.0</ele><time>2026-05-03T08:12:24.135Z</time></trkpt><trkpt lat="43.8644772" lon="10.5129835"><ele>24.0</ele><time>2026-05-03T08:12:25.136Z</time></trkpt><trkpt lat="43.8644667" lon="10.513178"><ele>24.0</ele><time>2026-05-03T08:12:26.136Z</time></trkpt><trkpt lat="43.8644474" lon="10.5133703"><ele>24.0</ele><time>2026-05-03T08:12:27.135Z</time></trkpt><trkpt lat="43.864424" lon="10.5135697"><ele>23.0</ele><time>2026-05-03T08:12:28.136Z</time></trkpt><trkpt lat="43.8643959" lon="10.5137773"><ele>22.0</ele><time>2026-05-03T08:12:29.136Z</time></trkpt><trkpt lat="43.864365" lon="10.5139889"><ele>21.0</ele><time>2026-05-03T08:12:30.135Z</time></trkpt><trkpt lat="43.8643336" lon="10.5142088"><ele>21.0</ele><time>2026-05-03T08:12:31.136Z</time></trkpt><trkpt lat="43.8643052" lon="10.5144316"><ele>21.0</ele><time>2026-05-03T08:12:32.135Z</time></trkpt><trkpt lat="43.8642735" lon="10.5146626"><ele>21.0</ele><time>2026-05-03T08:12:33.136Z</time></trkpt><trkpt lat="43.8642422" lon="10.5148982"><ele>21.0</ele><time>2026-05-03T08:12:34.136Z</time></trkpt><trkpt lat="43.864208" lon="10.5151425"><ele>21.0</ele><time>2026-05-03T08:12:35.136Z</time></trkpt><trkpt lat="43.8641795" lon="10.515392"><ele>21.0</ele><time>2026-05-03T08:12:36.136Z</time></trkpt><trkpt lat="43.8641601" lon="10.5156402"><ele>22.333333333333336</ele><time>2026-05-03T08:12:37.135Z</time></trkpt><trkpt lat="43.8641568" lon="10.5158894"><ele>23.666666666666668</ele><time>2026-05-03T08:12:38.136Z</time></trkpt><trkpt lat="43.8641752" lon="10.5161332"><ele>25.0</ele><time>2026-05-03T08:12:39.135Z</time></trkpt><trkpt lat="43.8642134" lon="10.516374"><ele>25.666666666666668</ele><time>2026-05-03T08:12:40.135Z</time></trkpt><trkpt lat="43.8642692" lon="10.5166003"><ele>26.333333333333336</ele><time>2026-05-03T08:12:41.136Z</time></trkpt><trkpt lat="43.8643323" lon="10.5168036"><ele>27.0</ele><time>2026-05-03T08:12:42.135Z</time></trkpt><trkpt lat="43.8643984" lon="10.5169933"><ele>28.0</ele><time>2026-05-03T08:12:43.136Z</time></trkpt><trkpt lat="43.8644625" lon="10.5171747"><ele>29.0</ele><time>2026-05-03T08:12:44.135Z</time></trkpt><trkpt lat="43.8645271" lon="10.5173484"><ele>30.0</ele><time>2026-05-03T08:12:45.135Z</time></trkpt><trkpt lat="43.8645892" lon="10.5175109"><ele>31.0</ele><time>2026-05-03T08:12:46.136Z</time></trkpt><trkpt lat="43.8646458" lon="10.5176593"><ele>31.0</ele><time>2026-05-03T08:12:47.135Z</time></trkpt><trkpt lat="43.864693" lon="10.5177956"><ele>31.0</ele><time>2026-05-03T08:12:48.136Z</time></trkpt><trkpt lat="43.8647316" lon="10.5179207"><ele>31.0</ele><time>2026-05-03T08:12:49.136Z</time></trkpt><trkpt lat="43.8647531" lon="10.5180278"><ele>31.0</ele><time>2026-05-03T08:12:50.136Z</time></trkpt><trkpt lat="43.8647651" lon="10.5181154"><ele>31.0</ele><time>2026-05-03T08:12:51.135Z</time></trkpt><trkpt lat="43.864764" lon="10.5182564"><ele>31.500000000000004</ele><time>2026-05-03T08:12:53.136Z</time></trkpt><trkpt lat="43.8647481" lon="10.5183667"><ele>32.0</ele><time>2026-05-03T08:12:55.136Z</time></trkpt><trkpt lat="43.8647122" lon="10.5184729"><ele>32.5</ele><time>2026-05-03T08:12:58.136Z</time></trkpt><trkpt lat="43.8646364" lon="10.5185567"><ele>33.0</ele><time>2026-05-03T08:13:07.135Z</time></trkpt><trkpt lat="43.8645775" lon="10.5186081"><ele>33.5</ele><time>2026-05-03T08:13:08.136Z</time></trkpt><trkpt lat="43.8645346" lon="10.51869"><ele>34.0</ele><time>2026-05-03T08:13:09.136Z</time></trkpt><trkpt lat="43.8645144" lon="10.5187916"><ele>32.833333333333336</ele><time>2026-05-03T08:13:10.136Z</time></trkpt><trkpt lat="43.8645261" lon="10.5188955"><ele>31.666666666666668</ele><time>2026-05-03T08:13:11.136Z</time></trkpt><trkpt lat="43.8645688" lon="10.5189797"><ele>30.5</ele><time>2026-05-03T08:13:12.136Z</time></trkpt><trkpt lat="43.8646333" lon="10.5190303"><ele>29.333333333333336</ele><time>2026-05-03T08:13:13.135Z</time></trkpt><trkpt lat="43.8647068" lon="10.5190518"><ele>28.166666666666668</ele><time>2026-05-03T08:13:14.136Z</time></trkpt><trkpt lat="43.8647898" lon="10.5190674"><ele>27.0</ele><time>2026-05-03T08:13:15.135Z</time></trkpt><trkpt lat="43.8648797" lon="10.5191139"><ele>27.0</ele><time>2026-05-03T08:13:16.136Z</time></trkpt><trkpt lat="43.8649712" lon="10.5191855"><ele>27.0</ele><time>2026-05-03T08:13:17.136Z</time></trkpt><trkpt lat="43.8650659" lon="10.5192819"><ele>27.0</ele><time>2026-05-03T08:13:18.136Z</time></trkpt><trkpt lat="43.8651659" lon="10.5193876"><ele>27.0</ele><time>2026-05-03T08:13:19.135Z</time></trkpt><trkpt lat="43.8652691" lon="10.5195027"><ele>26.25</ele><time>2026-05-03T08:13:20.135Z</time></trkpt><trkpt lat="43.8653769" lon="10.5196211"><ele>25.5</ele><time>2026-05-03T08:13:21.135Z</time></trkpt><trkpt lat="43.865488" lon="10.5197421"><ele>24.75</ele><time>2026-05-03T08:13:22.135Z</time></trkpt><trkpt lat="43.865599" lon="10.519863"><ele>24.0</ele><time>2026-05-03T08:13:23.136Z</time></trkpt><trkpt lat="43.8657108" lon="10.5199846"><ele>24.0</ele><time>2026-05-03T08:13:24.136Z</time></trkpt><trkpt lat="43.8658202" lon="10.5201065"><ele>24.0</ele><time>2026-05-03T08:13:25.136Z</time></trkpt><trkpt lat="43.8659278" lon="10.5202288"><ele>24.0</ele><time>2026-05-03T08:13:26.136Z</time></trkpt><trkpt lat="43.8660346" lon="10.5203487"><ele>24.0</ele><time>2026-05-03T08:13:27.136Z</time></trkpt><trkpt lat="43.8661414" lon="10.5204614"><ele>24.25</ele><time>2026-05-03T08:13:28.136Z</time></trkpt><trkpt lat="43.8662542" lon="10.5205736"><ele>24.5</ele><time>2026-05-03T08:13:29.135Z</time></trkpt><trkpt lat="43.8663702" lon="10.5206942"><ele>24.75</ele><time>2026-05-03T08:13:30.135Z</time></trkpt><trkpt lat="43.8664946" lon="10.5208195"><ele>25.0</ele><time>2026-05-03T08:13:31.136Z</time></trkpt><trkpt lat="43.8666287" lon="10.5209487"><ele>25.0</ele><time>2026-05-03T08:13:32.136Z</time></trkpt><trkpt lat="43.8667658" lon="10.5210945"><ele>25.0</ele><time>2026-05-03T08:13:33.136Z</time></trkpt><trkpt lat="43.8668999" lon="10.52125"><ele>25.0</ele><time>2026-05-03T08:13:34.136Z</time></trkpt><trkpt lat="43.8670367" lon="10.5214079"><ele>25.0</ele><time>2026-05-03T08:13:35.135Z</time></trkpt><trkpt lat="43.8671762" lon="10.5215677"><ele>25.0</ele><time>2026-05-03T08:13:36.136Z</time></trkpt><trkpt lat="43.867316" lon="10.52173"><ele>25.0</ele><time>2026-05-03T08:13:37.136Z</time></trkpt><trkpt lat="43.8674617" lon="10.5218958"><ele>25.0</ele><time>2026-05-03T08:13:38.135Z</time></trkpt><trkpt lat="43.8676077" lon="10.52206"><ele>25.0</ele><time>2026-05-03T08:13:39.135Z</time></trkpt><trkpt lat="43.8677562" lon="10.5222242"><ele>25.0</ele><time>2026-05-03T08:13:40.136Z</time></trkpt><trkpt lat="43.8679028" lon="10.5223853"><ele>25.333333333333336</ele><time>2026-05-03T08:13:41.136Z</time></trkpt><trkpt lat="43.8680504" lon="10.522548"><ele>25.666666666666664</ele><time>2026-05-03T08:13:42.135Z</time></trkpt><trkpt lat="43.868198" lon="10.5227147"><ele>26.0</ele><time>2026-05-03T08:13:43.136Z</time></trkpt><trkpt lat="43.8683486" lon="10.5228821"><ele>25.666666666666664</ele><time>2026-05-03T08:13:44.136Z</time></trkpt><trkpt lat="43.8685032" lon="10.5230542"><ele>25.333333333333336</ele><time>2026-05-03T08:13:45.135Z</time></trkpt><trkpt lat="43.868658" lon="10.5232254"><ele>25.0</ele><time>2026-05-03T08:13:46.135Z</time></trkpt><trkpt lat="43.8688144" lon="10.5233957"><ele>25.0</ele><time>2026-05-03T08:13:47.136Z</time></trkpt><trkpt lat="43.8689697" lon="10.5235665"><ele>25.0</ele><time>2026-05-03T08:13:48.136Z</time></trkpt><trkpt lat="43.869125" lon="10.523738"><ele>25.0</ele><time>2026-05-03T08:13:49.135Z</time></trkpt><trkpt lat="43.8692806" lon="10.5239125"><ele>25.666666666666668</ele><time>2026-05-03T08:13:50.136Z</time></trkpt><trkpt lat="43.8694353" lon="10.5240861"><ele>26.333333333333336</ele><time>2026-05-03T08:13:51.136Z</time></trkpt><trkpt lat="43.8695936" lon="10.5242603"><ele>27.0</ele><time>2026-05-03T08:13:52.135Z</time></trkpt><trkpt lat="43.8697522" lon="10.5244362"><ele>27.0</ele><time>2026-05-03T08:13:53.135Z</time></trkpt><trkpt lat="43.8699131" lon="10.5246072"><ele>27.0</ele><time>2026-05-03T08:13:54.135Z</time></trkpt><trkpt lat="43.8700768" lon="10.5247843"><ele>27.0</ele><time>2026-05-03T08:13:55.135Z</time></trkpt><trkpt lat="43.8702417" lon="10.5249581"><ele>26.333333333333336</ele><time>2026-05-03T08:13:56.136Z</time></trkpt><trkpt lat="43.8704057" lon="10.5251365"><ele>25.666666666666668</ele><time>2026-05-03T08:13:57.135Z</time></trkpt><trkpt lat="43.8705703" lon="10.5253119"><ele>25.0</ele><time>2026-05-03T08:13:58.136Z</time></trkpt><trkpt lat="43.8707277" lon="10.52547"><ele>25.0</ele><time>2026-05-03T08:13:59.135Z</time></trkpt><trkpt lat="43.8708937" lon="10.5256173"><ele>25.0</ele><time>2026-05-03T08:14:00.135Z</time></trkpt><trkpt lat="43.8710625" lon="10.5257541"><ele>25.0</ele><time>2026-05-03T08:14:01.136Z</time></trkpt><trkpt lat="43.8712367" lon="10.5258793"><ele>25.333333333333336</ele><time>2026-05-03T08:14:02.135Z</time></trkpt><trkpt lat="43.8714146" lon="10.5259926"><ele>25.666666666666664</ele><time>2026-05-03T08:14:03.135Z</time></trkpt><trkpt lat="43.8715962" lon="10.5260967"><ele>26.0</ele><time>2026-05-03T08:14:04.136Z</time></trkpt><trkpt lat="43.8717792" lon="10.5261979"><ele>26.666666666666664</ele><time>2026-05-03T08:14:05.135Z</time></trkpt><trkpt lat="43.8719605" lon="10.5263017"><ele>27.333333333333336</ele><time>2026-05-03T08:14:06.136Z</time></trkpt><trkpt lat="43.8721324" lon="10.5263997"><ele>28.0</ele><time>2026-05-03T08:14:07.136Z</time></trkpt><trkpt lat="43.8722982" lon="10.526493"><ele>28.0</ele><time>2026-05-03T08:14:08.135Z</time></trkpt><trkpt lat="43.8724599" lon="10.5265855"><ele>28.0</ele><time>2026-05-03T08:14:09.135Z</time></trkpt><trkpt lat="43.8726217" lon="10.5266761"><ele>28.0</ele><time>2026-05-03T08:14:10.136Z</time></trkpt><trkpt lat="43.8727832" lon="10.5267649"><ele>28.0</ele><time>2026-05-03T08:14:11.136Z</time></trkpt><trkpt lat="43.8729451" lon="10.5268553"><ele>28.0</ele><time>2026-05-03T08:14:12.135Z</time></trkpt><trkpt lat="43.8731051" lon="10.526945"><ele>28.0</ele><time>2026-05-03T08:14:13.135Z</time></trkpt><trkpt lat="43.8732654" lon="10.5270364"><ele>27.666666666666668</ele><time>2026-05-03T08:14:14.136Z</time></trkpt><trkpt lat="43.8734278" lon="10.5271277"><ele>27.333333333333336</ele><time>2026-05-03T08:14:15.136Z</time></trkpt><trkpt lat="43.8735952" lon="10.5272176"><ele>27.0</ele><time>2026-05-03T08:14:16.135Z</time></trkpt><trkpt lat="43.8737634" lon="10.527304"><ele>26.666666666666664</ele><time>2026-05-03T08:14:17.135Z</time></trkpt><trkpt lat="43.8739326" lon="10.5273865"><ele>26.333333333333332</ele><time>2026-05-03T08:14:18.136Z</time></trkpt><trkpt lat="43.8740998" lon="10.527467"><ele>26.0</ele><time>2026-05-03T08:14:19.135Z</time></trkpt><trkpt lat="43.8742674" lon="10.5275484"><ele>26.333333333333332</ele><time>2026-05-03T08:14:20.135Z</time></trkpt><trkpt lat="43.8744358" lon="10.5276293"><ele>26.666666666666664</ele><time>2026-05-03T08:14:21.136Z</time></trkpt><trkpt lat="43.874605" lon="10.5277106"><ele>27.0</ele><time>2026-05-03T08:14:22.135Z</time></trkpt><trkpt lat="43.8747752" lon="10.5277928"><ele>27.0</ele><time>2026-05-03T08:14:23.135Z</time></trkpt><trkpt lat="43.8749482" lon="10.5278763"><ele>27.0</ele><time>2026-05-03T08:14:24.135Z</time></trkpt><trkpt lat="43.8751214" lon="10.5279601"><ele>27.0</ele><time>2026-05-03T08:14:25.135Z</time></trkpt><trkpt lat="43.8752961" lon="10.5280468"><ele>27.333333333333336</ele><time>2026-05-03T08:14:26.135Z</time></trkpt><trkpt lat="43.8754705" lon="10.5281333"><ele>27.666666666666668</ele><time>2026-05-03T08:14:27.135Z</time></trkpt><trkpt lat="43.8756475" lon="10.5282212"><ele>28.0</ele><time>2026-05-03T08:14:28.136Z</time></trkpt><trkpt lat="43.875824" lon="10.528311"><ele>28.666666666666668</ele><time>2026-05-03T08:14:29.135Z</time></trkpt><trkpt lat="43.8760007" lon="10.5284028"><ele>29.333333333333336</ele><time>2026-05-03T08:14:30.136Z</time></trkpt><trkpt lat="43.8761782" lon="10.5284967"><ele>30.0</ele><time>2026-05-03T08:14:31.135Z</time></trkpt><trkpt lat="43.8763581" lon="10.528591"><ele>30.0</ele><time>2026-05-03T08:14:32.136Z</time></trkpt><trkpt lat="43.8765387" lon="10.5286854"><ele>30.0</ele><time>2026-05-03T08:14:33.135Z</time></trkpt><trkpt lat="43.8767201" lon="10.5287797"><ele>30.0</ele><time>2026-05-03T08:14:34.136Z</time></trkpt><trkpt lat="43.876902" lon="10.5288759"><ele>28.666666666666664</ele><time>2026-05-03T08:14:35.136Z</time></trkpt><trkpt lat="43.8770852" lon="10.5289748"><ele>27.333333333333332</ele><time>2026-05-03T08:14:36.135Z</time></trkpt><trkpt lat="43.8772686" lon="10.5290722"><ele>26.0</ele><time>2026-05-03T08:14:37.136Z</time></trkpt><trkpt lat="43.8774525" lon="10.5291704"><ele>26.0</ele><time>2026-05-03T08:14:38.136Z</time></trkpt><trkpt lat="43.8776388" lon="10.5292689"><ele>26.0</ele><time>2026-05-03T08:14:39.135Z</time></trkpt><trkpt lat="43.8778259" lon="10.5293685"><ele>26.0</ele><time>2026-05-03T08:14:40.135Z</time></trkpt><trkpt lat="43.8780123" lon="10.5294668"><ele>26.0</ele><time>2026-05-03T08:14:41.135Z</time></trkpt><trkpt lat="43.8781997" lon="10.5295657"><ele>26.0</ele><time>2026-05-03T08:14:42.136Z</time></trkpt><trkpt lat="43.8783838" lon="10.5296614"><ele>26.0</ele><time>2026-05-03T08:14:43.135Z</time></trkpt><trkpt lat="43.8785679" lon="10.5297565"><ele>26.666666666666664</ele><time>2026-05-03T08:14:44.136Z</time></trkpt><trkpt lat="43.8787492" lon="10.5298511"><ele>27.333333333333336</ele><time>2026-05-03T08:14:45.135Z</time></trkpt><trkpt lat="43.8789298" lon="10.5299434"><ele>28.0</ele><time>2026-05-03T08:14:46.135Z</time></trkpt><trkpt lat="43.8791109" lon="10.5300357"><ele>28.333333333333336</ele><time>2026-05-03T08:14:47.136Z</time></trkpt><trkpt lat="43.8792911" lon="10.5301289"><ele>28.666666666666664</ele><time>2026-05-03T08:14:48.135Z</time></trkpt><trkpt lat="43.8794717" lon="10.5302232"><ele>29.0</ele><time>2026-05-03T08:14:49.135Z</time></trkpt><trkpt lat="43.8796536" lon="10.5303174"><ele>28.666666666666664</ele><time>2026-05-03T08:14:50.136Z</time></trkpt><trkpt lat="43.8798376" lon="10.5304137"><ele>28.333333333333336</ele><time>2026-05-03T08:14:51.136Z</time></trkpt><trkpt lat="43.8800196" lon="10.530506"><ele>28.0</ele><time>2026-05-03T08:14:52.135Z</time></trkpt><trkpt lat="43.8801991" lon="10.5305977"><ele>28.0</ele><time>2026-05-03T08:14:53.136Z</time></trkpt><trkpt lat="43.8803682" lon="10.5306833"><ele>28.0</ele><time>2026-05-03T08:14:54.135Z</time></trkpt><trkpt lat="43.8805378" lon="10.5307726"><ele>28.0</ele><time>2026-05-03T08:14:55.135Z</time></trkpt><trkpt lat="43.880704" lon="10.5308617"><ele>28.0</ele><time>2026-05-03T08:14:56.136Z</time></trkpt><trkpt lat="43.880869" lon="10.5309516"><ele>28.0</ele><time>2026-05-03T08:14:57.136Z</time></trkpt><trkpt lat="43.8810313" lon="10.5310486"><ele>28.0</ele><time>2026-05-03T08:14:58.135Z</time></trkpt><trkpt lat="43.8811942" lon="10.5311533"><ele>28.0</ele><time>2026-05-03T08:14:59.136Z</time></trkpt><trkpt lat="43.8813544" lon="10.5312609"><ele>28.0</ele><time>2026-05-03T08:15:00.135Z</time></trkpt><trkpt lat="43.8815134" lon="10.5313713"><ele>28.0</ele><time>2026-05-03T08:15:01.136Z</time></trkpt><trkpt lat="43.8816722" lon="10.5314813"><ele>28.0</ele><time>2026-05-03T08:15:02.136Z</time></trkpt><trkpt lat="43.8818353" lon="10.531589"><ele>28.0</ele><time>2026-05-03T08:15:03.135Z</time></trkpt><trkpt lat="43.8820035" lon="10.5316908"><ele>28.0</ele><time>2026-05-03T08:15:04.135Z</time></trkpt><trkpt lat="43.8821756" lon="10.5317847"><ele>28.0</ele><time>2026-05-03T08:15:05.135Z</time></trkpt><trkpt lat="43.8823522" lon="10.5318765"><ele>28.0</ele><time>2026-05-03T08:15:06.135Z</time></trkpt><trkpt lat="43.8825304" lon="10.5319672"><ele>28.0</ele><time>2026-05-03T08:15:07.135Z</time></trkpt><trkpt lat="43.8827083" lon="10.5320581"><ele>28.0</ele><time>2026-05-03T08:15:08.136Z</time></trkpt><trkpt lat="43.882884" lon="10.53215"><ele>28.0</ele><time>2026-05-03T08:15:09.135Z</time></trkpt><trkpt lat="43.8830601" lon="10.5322398"><ele>28.0</ele><time>2026-05-03T08:15:10.136Z</time></trkpt><trkpt lat="43.8832368" lon="10.5323308"><ele>28.0</ele><time>2026-05-03T08:15:11.136Z</time></trkpt><trkpt lat="43.8834138" lon="10.5324221"><ele>28.0</ele><time>2026-05-03T08:15:12.136Z</time></trkpt><trkpt lat="43.8835915" lon="10.5325144"><ele>28.0</ele><time>2026-05-03T08:15:13.135Z</time></trkpt><trkpt lat="43.8837688" lon="10.5326069"><ele>28.0</ele><time>2026-05-03T08:15:14.136Z</time></trkpt><trkpt lat="43.8839456" lon="10.5326995"><ele>28.0</ele><time>2026-05-03T08:15:15.136Z</time></trkpt><trkpt lat="43.884123" lon="10.5327919"><ele>28.0</ele><time>2026-05-03T08:15:16.136Z</time></trkpt><trkpt lat="43.8843012" lon="10.5328836"><ele>29.0</ele><time>2026-05-03T08:15:17.136Z</time></trkpt><trkpt lat="43.8844806" lon="10.5329754"><ele>30.0</ele><time>2026-05-03T08:15:18.135Z</time></trkpt><trkpt lat="43.8846597" lon="10.5330684"><ele>31.0</ele><time>2026-05-03T08:15:19.135Z</time></trkpt><trkpt lat="43.884839" lon="10.5331621"><ele>31.0</ele><time>2026-05-03T08:15:20.136Z</time></trkpt><trkpt lat="43.8850188" lon="10.5332566"><ele>31.0</ele><time>2026-05-03T08:15:21.135Z</time></trkpt><trkpt lat="43.8852006" lon="10.5333526"><ele>31.0</ele><time>2026-05-03T08:15:22.136Z</time></trkpt><trkpt lat="43.8853819" lon="10.533448"><ele>30.666666666666668</ele><time>2026-05-03T08:15:23.135Z</time></trkpt><trkpt lat="43.885564" lon="10.5335429"><ele>30.333333333333336</ele><time>2026-05-03T08:15:24.136Z</time></trkpt><trkpt lat="43.8857479" lon="10.5336382"><ele>30.0</ele><time>2026-05-03T08:15:25.135Z</time></trkpt><trkpt lat="43.8859333" lon="10.5337321"><ele>30.666666666666664</ele><time>2026-05-03T08:15:26.135Z</time></trkpt><trkpt lat="43.8861191" lon="10.5338277"><ele>31.333333333333332</ele><time>2026-05-03T08:15:27.136Z</time></trkpt><trkpt lat="43.8863055" lon="10.5339246"><ele>32.0</ele><time>2026-05-03T08:15:28.135Z</time></trkpt><trkpt lat="43.8864906" lon="10.5340231"><ele>32.0</ele><time>2026-05-03T08:15:29.135Z</time></trkpt><trkpt lat="43.886667" lon="10.5341193"><ele>32.0</ele><time>2026-05-03T08:15:30.135Z</time></trkpt><trkpt lat="43.8868416" lon="10.5342126"><ele>32.0</ele><time>2026-05-03T08:15:31.136Z</time></trkpt><trkpt lat="43.8870138" lon="10.5343033"><ele>32.0</ele><time>2026-05-03T08:15:32.135Z</time></trkpt><trkpt lat="43.8871846" lon="10.5343943"><ele>32.0</ele><time>2026-05-03T08:15:33.135Z</time></trkpt><trkpt lat="43.8873542" lon="10.5344834"><ele>32.0</ele><time>2026-05-03T08:15:34.136Z</time></trkpt><trkpt lat="43.8875245" lon="10.5345722"><ele>31.666666666666664</ele><time>2026-05-03T08:15:35.136Z</time></trkpt><trkpt lat="43.8876957" lon="10.5346652"><ele>31.333333333333336</ele><time>2026-05-03T08:15:36.136Z</time></trkpt><trkpt lat="43.8878675" lon="10.5347544"><ele>31.0</ele><time>2026-05-03T08:15:37.136Z</time></trkpt><trkpt lat="43.8880375" lon="10.5348492"><ele>31.0</ele><time>2026-05-03T08:15:38.135Z</time></trkpt><trkpt lat="43.8882125" lon="10.5349408"><ele>31.0</ele><time>2026-05-03T08:15:39.136Z</time></trkpt><trkpt lat="43.888389" lon="10.5350331"><ele>31.0</ele><time>2026-05-03T08:15:40.135Z</time></trkpt><trkpt lat="43.8885672" lon="10.5351295"><ele>30.666666666666668</ele><time>2026-05-03T08:15:41.135Z</time></trkpt><trkpt lat="43.8887461" lon="10.5352271"><ele>30.333333333333336</ele><time>2026-05-03T08:15:42.136Z</time></trkpt><trkpt lat="43.8889261" lon="10.5353235"><ele>30.0</ele><time>2026-05-03T08:15:43.136Z</time></trkpt><trkpt lat="43.889109" lon="10.5354179"><ele>30.0</ele><time>2026-05-03T08:15:44.136Z</time></trkpt><trkpt lat="43.8892953" lon="10.5355144"><ele>30.0</ele><time>2026-05-03T08:15:45.136Z</time></trkpt><trkpt lat="43.8894821" lon="10.5356114"><ele>30.0</ele><time>2026-05-03T08:15:46.136Z</time></trkpt><trkpt lat="43.8896709" lon="10.5357077"><ele>30.0</ele><time>2026-05-03T08:15:47.135Z</time></trkpt><trkpt lat="43.8898598" lon="10.535806"><ele>30.0</ele><time>2026-05-03T08:15:48.135Z</time></trkpt><trkpt lat="43.8900393" lon="10.5359016"><ele>30.0</ele><time>2026-05-03T08:15:49.135Z</time></trkpt><trkpt lat="43.8902107" lon="10.5359915"><ele>30.0</ele><time>2026-05-03T08:15:50.136Z</time></trkpt><trkpt lat="43.8903748" lon="10.5360771"><ele>30.0</ele><time>2026-05-03T08:15:51.136Z</time></trkpt><trkpt lat="43.8905409" lon="10.5361614"><ele>30.0</ele><time>2026-05-03T08:15:52.136Z</time></trkpt><trkpt lat="43.8907058" lon="10.5362442"><ele>30.333333333333336</ele><time>2026-05-03T08:15:53.135Z</time></trkpt><trkpt lat="43.8908704" lon="10.5363257"><ele>30.666666666666668</ele><time>2026-05-03T08:15:54.135Z</time></trkpt><trkpt lat="43.8910364" lon="10.5364119"><ele>31.0</ele><time>2026-05-03T08:15:55.135Z</time></trkpt><trkpt lat="43.8912006" lon="10.536491"><ele>31.333333333333336</ele><time>2026-05-03T08:15:56.135Z</time></trkpt><trkpt lat="43.8913656" lon="10.5365752"><ele>31.666666666666664</ele><time>2026-05-03T08:15:57.136Z</time></trkpt><trkpt lat="43.8915317" lon="10.5366598"><ele>32.0</ele><time>2026-05-03T08:15:58.136Z</time></trkpt><trkpt lat="43.8917001" lon="10.536742"><ele>32.33333333333333</ele><time>2026-05-03T08:15:59.135Z</time></trkpt><trkpt lat="43.8918681" lon="10.5368258"><ele>32.666666666666664</ele><time>2026-05-03T08:16:00.135Z</time></trkpt><trkpt lat="43.8920334" lon="10.536911"><ele>33.0</ele><time>2026-05-03T08:16:01.136Z</time></trkpt><trkpt lat="43.8921937" lon="10.5369928"><ele>33.0</ele><time>2026-05-03T08:16:02.136Z</time></trkpt><trkpt lat="43.892356" lon="10.537072"><ele>33.0</ele><time>2026-05-03T08:16:03.136Z</time></trkpt><trkpt lat="43.8925174" lon="10.5371442"><ele>33.0</ele><time>2026-05-03T08:16:04.136Z</time></trkpt><trkpt lat="43.8926824" lon="10.5372089"><ele>33.0</ele><time>2026-05-03T08:16:05.135Z</time></trkpt><trkpt lat="43.8928512" lon="10.5372598"><ele>33.0</ele><time>2026-05-03T08:16:06.135Z</time></trkpt><trkpt lat="43.8930248" lon="10.5372941"><ele>33.0</ele><time>2026-05-03T08:16:07.135Z</time></trkpt><trkpt lat="43.8932026" lon="10.5373137"><ele>33.0</ele><time>2026-05-03T08:16:08.136Z</time></trkpt><trkpt lat="43.8933839" lon="10.5373229"><ele>33.0</ele><time>2026-05-03T08:16:09.135Z</time></trkpt><trkpt lat="43.8935662" lon="10.53733"><ele>33.0</ele><time>2026-05-03T08:16:10.135Z</time></trkpt><trkpt lat="43.8937466" lon="10.5373347"><ele>33.333333333333336</ele><time>2026-05-03T08:16:11.136Z</time></trkpt><trkpt lat="43.8939263" lon="10.5373381"><ele>33.66666666666667</ele><time>2026-05-03T08:16:12.135Z</time></trkpt><trkpt lat="43.8941062" lon="10.5373429"><ele>34.0</ele><time>2026-05-03T08:16:13.136Z</time></trkpt><trkpt lat="43.8942865" lon="10.5373503"><ele>34.333333333333336</ele><time>2026-05-03T08:16:14.135Z</time></trkpt><trkpt lat="43.8944618" lon="10.5373539"><ele>34.666666666666664</ele><time>2026-05-03T08:16:15.136Z</time></trkpt><trkpt lat="43.8946299" lon="10.5373569"><ele>35.0</ele><time>2026-05-03T08:16:16.135Z</time></trkpt><trkpt lat="43.894789" lon="10.5373595"><ele>35.0</ele><time>2026-05-03T08:16:17.135Z</time></trkpt><trkpt lat="43.8949362" lon="10.5373596"><ele>35.0</ele><time>2026-05-03T08:16:18.135Z</time></trkpt><trkpt lat="43.8950704" lon="10.5373637"><ele>35.0</ele><time>2026-05-03T08:16:19.136Z</time></trkpt><trkpt lat="43.8951941" lon="10.5373655"><ele>35.0</ele><time>2026-05-03T08:16:20.136Z</time></trkpt><trkpt lat="43.8953037" lon="10.5373656"><ele>34.666666666666664</ele><time>2026-05-03T08:16:21.135Z</time></trkpt><trkpt lat="43.8954019" lon="10.53735"><ele>34.33333333333333</ele><time>2026-05-03T08:16:22.136Z</time></trkpt><trkpt lat="43.8954894" lon="10.5373193"><ele>34.0</ele><time>2026-05-03T08:16:23.136Z</time></trkpt><trkpt lat="43.8955624" lon="10.5372727"><ele>33.666666666666664</ele><time>2026-05-03T08:16:24.136Z</time></trkpt><trkpt lat="43.8956299" lon="10.5372192"><ele>33.333333333333336</ele><time>2026-05-03T08:16:25.135Z</time></trkpt><trkpt lat="43.8957012" lon="10.5371778"><ele>33.0</ele><time>2026-05-03T08:16:26.136Z</time></trkpt><trkpt lat="43.8957826" lon="10.5371747"><ele>33.0</ele><time>2026-05-03T08:16:27.135Z</time></trkpt><trkpt lat="43.8958656" lon="10.5372081"><ele>33.0</ele><time>2026-05-03T08:16:28.136Z</time></trkpt><trkpt lat="43.8959619" lon="10.5372701"><ele>33.0</ele><time>2026-05-03T08:16:29.136Z</time></trkpt><trkpt lat="43.8960618" lon="10.5373116"><ele>33.0</ele><time>2026-05-03T08:16:30.135Z</time></trkpt><trkpt lat="43.8961605" lon="10.537323"><ele>33.0</ele><time>2026-05-03T08:16:31.136Z</time></trkpt><trkpt lat="43.8962569" lon="10.5373044"><ele>33.0</ele><time>2026-05-03T08:16:32.136Z</time></trkpt><trkpt lat="43.89634" lon="10.5372465"><ele>33.0</ele><time>2026-05-03T08:16:33.136Z</time></trkpt><trkpt lat="43.8964039" lon="10.5371564"><ele>33.0</ele><time>2026-05-03T08:16:34.136Z</time></trkpt><trkpt lat="43.8964517" lon="10.5370441"><ele>33.0</ele><time>2026-05-03T08:16:35.136Z</time></trkpt><trkpt lat="43.8964901" lon="10.5369139"><ele>33.0</ele><time>2026-05-03T08:16:36.136Z</time></trkpt><trkpt lat="43.8965351" lon="10.5367736"><ele>33.0</ele><time>2026-05-03T08:16:37.135Z</time></trkpt><trkpt lat="43.8965985" lon="10.5366342"><ele>33.0</ele><time>2026-05-03T08:16:38.135Z</time></trkpt><trkpt lat="43.8966812" lon="10.5365015"><ele>33.0</ele><time>2026-05-03T08:16:39.136Z</time></trkpt><trkpt lat="43.8967809" lon="10.5363704"><ele>33.0</ele><time>2026-05-03T08:16:40.135Z</time></trkpt><trkpt lat="43.8968916" lon="10.5362354"><ele>33.333333333333336</ele><time>2026-05-03T08:16:41.136Z</time></trkpt><trkpt lat="43.897005" lon="10.5360921"><ele>33.66666666666667</ele><time>2026-05-03T08:16:42.135Z</time></trkpt><trkpt lat="43.8971189" lon="10.5359393"><ele>34.0</ele><time>2026-05-03T08:16:43.135Z</time></trkpt><trkpt lat="43.8972358" lon="10.535779"><ele>34.0</ele><time>2026-05-03T08:16:44.136Z</time></trkpt><trkpt lat="43.8973536" lon="10.5356153"><ele>34.0</ele><time>2026-05-03T08:16:45.135Z</time></trkpt><trkpt lat="43.8974724" lon="10.5354477"><ele>34.0</ele><time>2026-05-03T08:16:46.136Z</time></trkpt><trkpt lat="43.8975895" lon="10.5352795"><ele>33.66666666666667</ele><time>2026-05-03T08:16:47.135Z</time></trkpt><trkpt lat="43.8977022" lon="10.5351173"><ele>33.333333333333336</ele><time>2026-05-03T08:16:48.135Z</time></trkpt><trkpt lat="43.8978189" lon="10.5349497"><ele>33.0</ele><time>2026-05-03T08:16:49.135Z</time></trkpt><trkpt lat="43.8979348" lon="10.5347836"><ele>33.0</ele><time>2026-05-03T08:16:50.135Z</time></trkpt><trkpt lat="43.8980499" lon="10.5346197"><ele>33.0</ele><time>2026-05-03T08:16:51.136Z</time></trkpt><trkpt lat="43.8981642" lon="10.5344554"><ele>33.0</ele><time>2026-05-03T08:16:52.135Z</time></trkpt><trkpt lat="43.8982805" lon="10.5342886"><ele>32.666666666666664</ele><time>2026-05-03T08:16:53.135Z</time></trkpt><trkpt lat="43.8984003" lon="10.5341206"><ele>32.33333333333333</ele><time>2026-05-03T08:16:54.135Z</time></trkpt><trkpt lat="43.8985219" lon="10.5339499"><ele>32.0</ele><time>2026-05-03T08:16:55.136Z</time></trkpt><trkpt lat="43.8986439" lon="10.5337741"><ele>33.0</ele><time>2026-05-03T08:16:56.135Z</time></trkpt><trkpt lat="43.8987667" lon="10.5336006"><ele>34.0</ele><time>2026-05-03T08:16:57.135Z</time></trkpt><trkpt lat="43.8988845" lon="10.5334388"><ele>35.0</ele><time>2026-05-03T08:16:58.135Z</time></trkpt><trkpt lat="43.8990006" lon="10.5332774"><ele>35.0</ele><time>2026-05-03T08:16:59.135Z</time></trkpt><trkpt lat="43.8991192" lon="10.5331148"><ele>35.0</ele><time>2026-05-03T08:17:00.135Z</time></trkpt><trkpt lat="43.8992365" lon="10.5329646"><ele>35.0</ele><time>2026-05-03T08:17:01.136Z</time></trkpt><trkpt lat="43.8993591" lon="10.5328238"><ele>35.666666666666664</ele><time>2026-05-03T08:17:02.136Z</time></trkpt><trkpt lat="43.8994906" lon="10.5326925"><ele>36.333333333333336</ele><time>2026-05-03T08:17:03.135Z</time></trkpt><trkpt lat="43.8996319" lon="10.5325748"><ele>37.0</ele><time>2026-05-03T08:17:04.136Z</time></trkpt><trkpt lat="43.8997831" lon="10.5324721"><ele>37.0</ele><time>2026-05-03T08:17:05.135Z</time></trkpt><trkpt lat="43.8999411" lon="10.5323889"><ele>37.0</ele><time>2026-05-03T08:17:06.135Z</time></trkpt><trkpt lat="43.9001027" lon="10.5323225"><ele>37.0</ele><time>2026-05-03T08:17:07.135Z</time></trkpt><trkpt lat="43.9002675" lon="10.5322655"><ele>36.66666666666667</ele><time>2026-05-03T08:17:08.135Z</time></trkpt><trkpt lat="43.9004328" lon="10.5322131"><ele>36.333333333333336</ele><time>2026-05-03T08:17:09.135Z</time></trkpt><trkpt lat="43.9005985" lon="10.5321629"><ele>36.0</ele><time>2026-05-03T08:17:10.135Z</time></trkpt><trkpt lat="43.9007653" lon="10.5321139"><ele>35.333333333333336</ele><time>2026-05-03T08:17:11.135Z</time></trkpt><trkpt lat="43.9009335" lon="10.5320638"><ele>34.66666666666667</ele><time>2026-05-03T08:17:12.136Z</time></trkpt><trkpt lat="43.9011041" lon="10.5320116"><ele>34.0</ele><time>2026-05-03T08:17:13.136Z</time></trkpt><trkpt lat="43.901279" lon="10.5319535"><ele>34.333333333333336</ele><time>2026-05-03T08:17:14.136Z</time></trkpt><trkpt lat="43.9014528" lon="10.531887"><ele>34.666666666666664</ele><time>2026-05-03T08:17:15.135Z</time></trkpt><trkpt lat="43.9016236" lon="10.5318085"><ele>35.0</ele><time>2026-05-03T08:17:16.136Z</time></trkpt><trkpt lat="43.901793" lon="10.5317138"><ele>35.0</ele><time>2026-05-03T08:17:17.135Z</time></trkpt><trkpt lat="43.9019599" lon="10.5316093"><ele>35.0</ele><time>2026-05-03T08:17:18.135Z</time></trkpt><trkpt lat="43.9021247" lon="10.5314978"><ele>35.0</ele><time>2026-05-03T08:17:19.135Z</time></trkpt><trkpt lat="43.902283" lon="10.5313765"><ele>35.0</ele><time>2026-05-03T08:17:20.135Z</time></trkpt><trkpt lat="43.9024367" lon="10.5312494"><ele>35.0</ele><time>2026-05-03T08:17:21.136Z</time></trkpt><trkpt lat="43.9025883" lon="10.5311168"><ele>35.0</ele><time>2026-05-03T08:17:22.136Z</time></trkpt><trkpt lat="43.9027324" lon="10.5309876"><ele>36.33333333333333</ele><time>2026-05-03T08:17:23.135Z</time></trkpt><trkpt lat="43.9028712" lon="10.5308613"><ele>37.666666666666664</ele><time>2026-05-03T08:17:24.136Z</time></trkpt><trkpt lat="43.9030034" lon="10.5307405"><ele>39.0</ele><time>2026-05-03T08:17:25.136Z</time></trkpt><trkpt lat="43.9031342" lon="10.5306186"><ele>39.0</ele><time>2026-05-03T08:17:26.135Z</time></trkpt><trkpt lat="43.9032651" lon="10.5304992"><ele>39.0</ele><time>2026-05-03T08:17:27.135Z</time></trkpt><trkpt lat="43.9033948" lon="10.5303804"><ele>39.0</ele><time>2026-05-03T08:17:28.135Z</time></trkpt><trkpt lat="43.9035234" lon="10.5302635"><ele>40.0</ele><time>2026-05-03T08:17:29.136Z</time></trkpt><trkpt lat="43.9036526" lon="10.5301462"><ele>41.0</ele><time>2026-05-03T08:17:30.135Z</time></trkpt><trkpt lat="43.9037818" lon="10.5300264"><ele>42.0</ele><time>2026-05-03T08:17:31.135Z</time></trkpt><trkpt lat="43.9039118" lon="10.5299072"><ele>42.0</ele><time>2026-05-03T08:17:32.135Z</time></trkpt><trkpt lat="43.9040417" lon="10.5297862"><ele>42.0</ele><time>2026-05-03T08:17:33.135Z</time></trkpt><trkpt lat="43.9041735" lon="10.5296671"><ele>42.0</ele><time>2026-05-03T08:17:34.135Z</time></trkpt><trkpt lat="43.904305" lon="10.5295489"><ele>40.666666666666664</ele><time>2026-05-03T08:17:35.135Z</time></trkpt><trkpt lat="43.9044366" lon="10.5294286"><ele>39.33333333333333</ele><time>2026-05-03T08:17:36.135Z</time></trkpt><trkpt lat="43.9045689" lon="10.5293101"><ele>38.0</ele><time>2026-05-03T08:17:37.136Z</time></trkpt><trkpt lat="43.9046991" lon="10.5291935"><ele>38.0</ele><time>2026-05-03T08:17:38.135Z</time></trkpt><trkpt lat="43.9048284" lon="10.5290839"><ele>38.0</ele><time>2026-05-03T08:17:39.135Z</time></trkpt><trkpt lat="43.9049626" lon="10.5289729"><ele>38.0</ele><time>2026-05-03T08:17:40.136Z</time></trkpt><trkpt lat="43.9051003" lon="10.528866"><ele>36.0</ele><time>2026-05-03T08:17:41.135Z</time></trkpt><trkpt lat="43.9052437" lon="10.5287625"><ele>34.0</ele><time>2026-05-03T08:17:42.136Z</time></trkpt><trkpt lat="43.9053954" lon="10.5286685"><ele>32.0</ele><time>2026-05-03T08:17:43.136Z</time></trkpt><trkpt lat="43.9055511" lon="10.5285802"><ele>34.33333333333333</ele><time>2026-05-03T08:17:44.135Z</time></trkpt><trkpt lat="43.9057112" lon="10.5284945"><ele>36.666666666666664</ele><time>2026-05-03T08:17:45.135Z</time></trkpt><trkpt lat="43.9058751" lon="10.5284098"><ele>39.0</ele><time>2026-05-03T08:17:46.136Z</time></trkpt><trkpt lat="43.906043" lon="10.5283262"><ele>39.0</ele><time>2026-05-03T08:17:47.136Z</time></trkpt><trkpt lat="43.9062117" lon="10.5282506"><ele>39.0</ele><time>2026-05-03T08:17:48.136Z</time></trkpt><trkpt lat="43.9063799" lon="10.5281799"><ele>39.0</ele><time>2026-05-03T08:17:49.135Z</time></trkpt><trkpt lat="43.9065356" lon="10.5281163"><ele>39.0</ele><time>2026-05-03T08:17:50.136Z</time></trkpt><trkpt lat="43.906688" lon="10.5280527"><ele>39.0</ele><time>2026-05-03T08:17:51.136Z</time></trkpt><trkpt lat="43.9068333" lon="10.5279901"><ele>39.0</ele><time>2026-05-03T08:17:52.135Z</time></trkpt><trkpt lat="43.9069745" lon="10.527928"><ele>40.75</ele><time>2026-05-03T08:17:53.135Z</time></trkpt><trkpt lat="43.9071137" lon="10.5278608"><ele>42.5</ele><time>2026-05-03T08:17:54.135Z</time></trkpt><trkpt lat="43.9072487" lon="10.5277893"><ele>44.25</ele><time>2026-05-03T08:17:55.136Z</time></trkpt><trkpt lat="43.9073787" lon="10.5277154"><ele>46.0</ele><time>2026-05-03T08:17:56.135Z</time></trkpt><trkpt lat="43.9075052" lon="10.5276372"><ele>45.0</ele><time>2026-05-03T08:17:57.136Z</time></trkpt><trkpt lat="43.9076295" lon="10.5275522"><ele>44.0</ele><time>2026-05-03T08:17:58.136Z</time></trkpt><trkpt lat="43.907752" lon="10.5274623"><ele>43.0</ele><time>2026-05-03T08:17:59.135Z</time></trkpt><trkpt lat="43.9078762" lon="10.5273666"><ele>42.0</ele><time>2026-05-03T08:18:00.135Z</time></trkpt><trkpt lat="43.9080036" lon="10.5272651"><ele>42.0</ele><time>2026-05-03T08:18:01.136Z</time></trkpt><trkpt lat="43.9081332" lon="10.5271585"><ele>42.0</ele><time>2026-05-03T08:18:02.135Z</time></trkpt><trkpt lat="43.9082578" lon="10.5270511"><ele>42.0</ele><time>2026-05-03T08:18:03.136Z</time></trkpt><trkpt lat="43.9083841" lon="10.5269428"><ele>42.0</ele><time>2026-05-03T08:18:04.135Z</time></trkpt><trkpt lat="43.9085112" lon="10.5268283"><ele>49.66666666666667</ele><time>2026-05-03T08:18:05.135Z</time></trkpt><trkpt lat="43.9086381" lon="10.5267167"><ele>57.333333333333336</ele><time>2026-05-03T08:18:06.136Z</time></trkpt><trkpt lat="43.9087652" lon="10.5266045"><ele>65.0</ele><time>2026-05-03T08:18:07.136Z</time></trkpt><trkpt lat="43.9088922" lon="10.5264923"><ele>65.0</ele><time>2026-05-03T08:18:08.136Z</time></trkpt><trkpt lat="43.9090191" lon="10.5263803"><ele>65.0</ele><time>2026-05-03T08:18:09.135Z</time></trkpt><trkpt lat="43.9091459" lon="10.5262683"><ele>65.0</ele><time>2026-05-03T08:18:10.136Z</time></trkpt><trkpt lat="43.909225" lon="10.5261648"><ele>65.0</ele><time>2026-05-03T08:18:11.136Z</time></trkpt><trkpt lat="43.9117412" lon="10.5242971"><ele>59.333333333333336</ele><time>2026-05-03T08:18:27.135Z</time></trkpt><trkpt lat="43.9119137" lon="10.5242109"><ele>53.66666666666667</ele><time>2026-05-03T08:18:28.135Z</time></trkpt><trkpt lat="43.9120906" lon="10.5241266"><ele>48.0</ele><time>2026-05-03T08:18:29.136Z</time></trkpt><trkpt lat="43.9122513" lon="10.5240558"><ele>48.0</ele><time>2026-05-03T08:18:30.135Z</time></trkpt><trkpt lat="43.912426" lon="10.5239855"><ele>48.0</ele><time>2026-05-03T08:18:31.135Z</time></trkpt><trkpt lat="43.9125963" lon="10.5239251"><ele>48.0</ele><time>2026-05-03T08:18:32.136Z</time></trkpt><trkpt lat="43.912769" lon="10.5238701"><ele>49.33333333333333</ele><time>2026-05-03T08:18:33.136Z</time></trkpt><trkpt lat="43.9129431" lon="10.5238139"><ele>50.666666666666664</ele><time>2026-05-03T08:18:34.135Z</time></trkpt><trkpt lat="43.9131168" lon="10.5237618"><ele>52.0</ele><time>2026-05-03T08:18:35.136Z</time></trkpt><trkpt lat="43.9132896" lon="10.5237138"><ele>56.0</ele><time>2026-05-03T08:18:36.135Z</time></trkpt><trkpt lat="43.9134659" lon="10.5236712"><ele>60.0</ele><time>2026-05-03T08:18:37.135Z</time></trkpt><trkpt lat="43.9136408" lon="10.5236341"><ele>64.0</ele><time>2026-05-03T08:18:38.136Z</time></trkpt><trkpt lat="43.9138165" lon="10.5236029"><ele>64.0</ele><time>2026-05-03T08:18:39.136Z</time></trkpt><trkpt lat="43.913994" lon="10.5235753"><ele>64.0</ele><time>2026-05-03T08:18:40.136Z</time></trkpt><trkpt lat="43.9141685" lon="10.5235443"><ele>64.0</ele><time>2026-05-03T08:18:41.136Z</time></trkpt><trkpt lat="43.9143429" lon="10.5235138"><ele>59.5</ele><time>2026-05-03T08:18:42.136Z</time></trkpt><trkpt lat="43.9145163" lon="10.5234825"><ele>55.0</ele><time>2026-05-03T08:18:43.136Z</time></trkpt><trkpt lat="43.9199405" lon="10.5255879"><ele>54.33333333333333</ele><time>2026-05-03T08:19:17.135Z</time></trkpt><trkpt lat="43.9201158" lon="10.5256923"><ele>53.66666666666667</ele><time>2026-05-03T08:19:18.135Z</time></trkpt><trkpt lat="43.9202799" lon="10.5257826"><ele>53.0</ele><time>2026-05-03T08:19:19.135Z</time></trkpt><trkpt lat="43.9204484" lon="10.5258497"><ele>53.0</ele><time>2026-05-03T08:19:20.135Z</time></trkpt><trkpt lat="43.9206144" lon="10.5258941"><ele>53.0</ele><time>2026-05-03T08:19:21.136Z</time></trkpt><trkpt lat="43.920789" lon="10.5259292"><ele>53.0</ele><time>2026-05-03T08:19:22.135Z</time></trkpt><trkpt lat="43.9209685" lon="10.5259535"><ele>53.333333333333336</ele><time>2026-05-03T08:19:23.135Z</time></trkpt><trkpt lat="43.9211459" lon="10.5259532"><ele>53.66666666666667</ele><time>2026-05-03T08:19:24.135Z</time></trkpt><trkpt lat="43.9213324" lon="10.5259387"><ele>54.0</ele><time>2026-05-03T08:19:25.135Z</time></trkpt><trkpt lat="43.9215225" lon="10.5259084"><ele>54.0</ele><time>2026-05-03T08:19:26.135Z</time></trkpt><trkpt lat="43.9217145" lon="10.5258598"><ele>54.0</ele><time>2026-05-03T08:19:27.136Z</time></trkpt><trkpt lat="43.9219062" lon="10.5257925"><ele>54.0</ele><time>2026-05-03T08:19:28.136Z</time></trkpt><trkpt lat="43.9221006" lon="10.5257087"><ele>56.0</ele><time>2026-05-03T08:19:29.136Z</time></trkpt><trkpt lat="43.9222917" lon="10.5256106"><ele>58.0</ele><time>2026-05-03T08:19:30.136Z</time></trkpt><trkpt lat="43.9224814" lon="10.5254998"><ele>60.0</ele><time>2026-05-03T08:19:31.136Z</time></trkpt><trkpt lat="43.9226698" lon="10.5253825"><ele>71.66666666666667</ele><time>2026-05-03T08:19:32.136Z</time></trkpt><trkpt lat="43.922855" lon="10.5252729"><ele>83.33333333333334</ele><time>2026-05-03T08:19:33.136Z</time></trkpt><trkpt lat="43.923042" lon="10.5251581"><ele>95.0</ele><time>2026-05-03T08:19:34.135Z</time></trkpt><trkpt lat="43.9232287" lon="10.5250438"><ele>74.0</ele><time>2026-05-03T08:19:35.135Z</time></trkpt><trkpt lat="43.9243533" lon="10.523592"><ele>74.0</ele><time>2026-05-03T08:19:43.135Z</time></trkpt><trkpt lat="43.9244558" lon="10.5233949"><ele>74.0</ele><time>2026-05-03T08:19:44.136Z</time></trkpt><trkpt lat="43.9245662" lon="10.5231973"><ele>74.0</ele><time>2026-05-03T08:19:45.136Z</time></trkpt><trkpt lat="43.9252687" lon="10.5212259"><ele>66.33333333333334</ele><time>2026-05-03T08:19:53.135Z</time></trkpt><trkpt lat="43.925349" lon="10.5209671"><ele>58.66666666666667</ele><time>2026-05-03T08:19:54.135Z</time></trkpt><trkpt lat="43.925433" lon="10.5206933"><ele>51.0</ele><time>2026-05-03T08:19:55.135Z</time></trkpt><trkpt lat="43.9255136" lon="10.5204277"><ele>51.33333333333333</ele><time>2026-05-03T08:19:56.135Z</time></trkpt><trkpt lat="43.9255969" lon="10.5201611"><ele>51.666666666666664</ele><time>2026-05-03T08:19:57.136Z</time></trkpt><trkpt lat="43.9256802" lon="10.5198999"><ele>52.0</ele><time>2026-05-03T08:19:58.135Z</time></trkpt><trkpt lat="43.9257629" lon="10.5196361"><ele>51.666666666666664</ele><time>2026-05-03T08:19:59.136Z</time></trkpt><trkpt lat="43.9258476" lon="10.519369"><ele>51.33333333333333</ele><time>2026-05-03T08:20:00.136Z</time></trkpt><trkpt lat="43.9259291" lon="10.5191174"><ele>51.0</ele><time>2026-05-03T08:20:01.135Z</time></trkpt><trkpt lat="43.9260086" lon="10.5188736"><ele>56.0</ele><time>2026-05-03T08:20:02.136Z</time></trkpt><trkpt lat="43.9260928" lon="10.5186461"><ele>61.0</ele><time>2026-05-03T08:20:03.136Z</time></trkpt><trkpt lat="43.9261845" lon="10.5184301"><ele>66.0</ele><time>2026-05-03T08:20:04.136Z</time></trkpt><trkpt lat="43.926283" lon="10.5182263"><ele>66.0</ele><time>2026-05-03T08:20:05.136Z</time></trkpt><trkpt lat="43.9263925" lon="10.518036"><ele>66.0</ele><time>2026-05-03T08:20:06.136Z</time></trkpt><trkpt lat="43.9265121" lon="10.5178493"><ele>66.0</ele><time>2026-05-03T08:20:07.135Z</time></trkpt><trkpt lat="43.9266407" lon="10.5176733"><ele>70.66666666666667</ele><time>2026-05-03T08:20:08.136Z</time></trkpt><trkpt lat="43.9267734" lon="10.517512"><ele>75.33333333333334</ele><time>2026-05-03T08:20:09.136Z</time></trkpt><trkpt lat="43.9269153" lon="10.5173576"><ele>80.0</ele><time>2026-05-03T08:20:10.136Z</time></trkpt><trkpt lat="43.9270592" lon="10.5172087"><ele>70.66666666666667</ele><time>2026-05-03T08:20:11.135Z</time></trkpt><trkpt lat="43.9272002" lon="10.5170645"><ele>61.33333333333333</ele><time>2026-05-03T08:20:12.136Z</time></trkpt><trkpt lat="43.9273471" lon="10.5169203"><ele>52.0</ele><time>2026-05-03T08:20:13.135Z</time></trkpt><trkpt lat="43.9274976" lon="10.5167745"><ele>64.33333333333333</ele><time>2026-05-03T08:20:14.136Z</time></trkpt><trkpt lat="43.9276528" lon="10.5166243"><ele>76.66666666666667</ele><time>2026-05-03T08:20:15.136Z</time></trkpt><trkpt lat="43.9278124" lon="10.516469"><ele>89.0</ele><time>2026-05-03T08:20:16.135Z</time></trkpt><trkpt lat="43.9279783" lon="10.5163125"><ele>91.66666666666667</ele><time>2026-05-03T08:20:17.136Z</time></trkpt><trkpt lat="43.9281462" lon="10.516154"><ele>94.33333333333334</ele><time>2026-05-03T08:20:18.136Z</time></trkpt><trkpt lat="43.928314" lon="10.5159894"><ele>97.0</ele><time>2026-05-03T08:20:19.136Z</time></trkpt><trkpt lat="43.9284797" lon="10.5158174"><ele>97.0</ele><time>2026-05-03T08:20:20.135Z</time></trkpt><trkpt lat="43.9286362" lon="10.5156293"><ele>97.0</ele><time>2026-05-03T08:20:21.136Z</time></trkpt><trkpt lat="43.9287828" lon="10.515426"><ele>97.0</ele><time>2026-05-03T08:20:22.135Z</time></trkpt><trkpt lat="43.9289196" lon="10.5152074"><ele>94.33333333333334</ele><time>2026-05-03T08:20:23.135Z</time></trkpt><trkpt lat="43.9290568" lon="10.5149869"><ele>91.66666666666667</ele><time>2026-05-03T08:20:24.135Z</time></trkpt><trkpt lat="43.9291794" lon="10.5147648"><ele>89.0</ele><time>2026-05-03T08:20:25.135Z</time></trkpt><trkpt lat="43.9292984" lon="10.5145547"><ele>89.0</ele><time>2026-05-03T08:20:26.136Z</time></trkpt><trkpt lat="43.9294114" lon="10.5143525"><ele>89.0</ele><time>2026-05-03T08:20:27.135Z</time></trkpt><trkpt lat="43.9295158" lon="10.5141543"><ele>89.0</ele><time>2026-05-03T08:20:28.136Z</time></trkpt><trkpt lat="43.9296077" lon="10.513959"><ele>89.0</ele><time>2026-05-03T08:20:29.136Z</time></trkpt><trkpt lat="43.9296886" lon="10.513756"><ele>89.0</ele><time>2026-05-03T08:20:30.136Z</time></trkpt><trkpt lat="43.9297539" lon="10.5135456"><ele>89.0</ele><time>2026-05-03T08:20:31.135Z</time></trkpt><trkpt lat="43.9298086" lon="10.5133303"><ele>84.0</ele><time>2026-05-03T08:20:32.135Z</time></trkpt><trkpt lat="43.92985" lon="10.5131063"><ele>79.0</ele><time>2026-05-03T08:20:33.136Z</time></trkpt><trkpt lat="43.9298739" lon="10.5128772"><ele>74.0</ele><time>2026-05-03T08:20:34.136Z</time></trkpt><trkpt lat="43.92988" lon="10.5126429"><ele>73.66666666666667</ele><time>2026-05-03T08:20:35.135Z</time></trkpt><trkpt lat="43.9298681" lon="10.5124022"><ele>73.33333333333333</ele><time>2026-05-03T08:20:36.136Z</time></trkpt><trkpt lat="43.9298434" lon="10.5121614"><ele>73.0</ele><time>2026-05-03T08:20:37.136Z</time></trkpt><trkpt lat="43.9298057" lon="10.5119281"><ele>74.66666666666666</ele><time>2026-05-03T08:20:38.135Z</time></trkpt><trkpt lat="43.9297573" lon="10.5117096"><ele>76.33333333333333</ele><time>2026-05-03T08:20:39.136Z</time></trkpt><trkpt lat="43.9297047" lon="10.5115113"><ele>78.0</ele><time>2026-05-03T08:20:40.135Z</time></trkpt><trkpt lat="43.9296514" lon="10.5113279"><ele>79.0</ele><time>2026-05-03T08:20:41.135Z</time></trkpt><trkpt lat="43.9296013" lon="10.5111642"><ele>80.0</ele><time>2026-05-03T08:20:42.136Z</time></trkpt><trkpt lat="43.9295559" lon="10.5110184"><ele>81.0</ele><time>2026-05-03T08:20:43.136Z</time></trkpt><trkpt lat="43.9295147" lon="10.5108857"><ele>82.0</ele><time>2026-05-03T08:20:44.135Z</time></trkpt><trkpt lat="43.9294801" lon="10.5107594"><ele>83.0</ele><time>2026-05-03T08:20:45.135Z</time></trkpt><trkpt lat="43.9294393" lon="10.5106294"><ele>83.0</ele><time>2026-05-03T08:20:46.135Z</time></trkpt><trkpt lat="43.9293989" lon="10.510498"><ele>83.0</ele><time>2026-05-03T08:20:47.136Z</time></trkpt><trkpt lat="43.9293563" lon="10.5103657"><ele>83.0</ele><time>2026-05-03T08:20:48.135Z</time></trkpt><trkpt lat="43.9293113" lon="10.5102267"><ele>83.0</ele><time>2026-05-03T08:20:49.135Z</time></trkpt><trkpt lat="43.9292645" lon="10.5100857"><ele>83.0</ele><time>2026-05-03T08:20:50.135Z</time></trkpt><trkpt lat="43.9292231" lon="10.5099515"><ele>78.80000000000001</ele><time>2026-05-03T08:20:51.135Z</time></trkpt><trkpt lat="43.9291878" lon="10.5098258"><ele>74.60000000000001</ele><time>2026-05-03T08:20:52.135Z</time></trkpt><trkpt lat="43.9291587" lon="10.5097158"><ele>70.4</ele><time>2026-05-03T08:20:53.136Z</time></trkpt><trkpt lat="43.9291424" lon="10.5096207"><ele>66.2</ele><time>2026-05-03T08:20:54.135Z</time></trkpt><trkpt lat="43.9291253" lon="10.5094464"><ele>62.0</ele><time>2026-05-03T08:20:56.135Z</time></trkpt><trkpt lat="43.9291233" lon="10.5093474"><ele>62.0</ele><time>2026-05-03T08:20:57.136Z</time></trkpt><trkpt lat="43.9291229" lon="10.5092331"><ele>62.0</ele><time>2026-05-03T08:20:58.136Z</time></trkpt><trkpt lat="43.9291284" lon="10.5091103"><ele>62.0</ele><time>2026-05-03T08:20:59.135Z</time></trkpt><trkpt lat="43.9291422" lon="10.508979"><ele>62.0</ele><time>2026-05-03T08:21:00.135Z</time></trkpt><trkpt lat="43.9291621" lon="10.5088473"><ele>62.0</ele><time>2026-05-03T08:21:01.136Z</time></trkpt><trkpt lat="43.9291906" lon="10.5087078"><ele>66.25</ele><time>2026-05-03T08:21:02.136Z</time></trkpt><trkpt lat="43.9292257" lon="10.5085588"><ele>70.5</ele><time>2026-05-03T08:21:03.136Z</time></trkpt><trkpt lat="43.9292688" lon="10.5084063"><ele>74.75</ele><time>2026-05-03T08:21:04.135Z</time></trkpt><trkpt lat="43.9293202" lon="10.5082521"><ele>79.0</ele><time>2026-05-03T08:21:05.135Z</time></trkpt><trkpt lat="43.9293858" lon="10.5080991"><ele>79.0</ele><time>2026-05-03T08:21:06.136Z</time></trkpt><trkpt lat="43.9294643" lon="10.5079455"><ele>79.0</ele><time>2026-05-03T08:21:07.136Z</time></trkpt><trkpt lat="43.929557" lon="10.5077968"><ele>79.0</ele><time>2026-05-03T08:21:08.136Z</time></trkpt><trkpt lat="43.9296582" lon="10.5076559"><ele>79.0</ele><time>2026-05-03T08:21:09.135Z</time></trkpt><trkpt lat="43.9297605" lon="10.5075308"><ele>78.25</ele><time>2026-05-03T08:21:10.136Z</time></trkpt><trkpt lat="43.929866" lon="10.5074033"><ele>77.5</ele><time>2026-05-03T08:21:11.136Z</time></trkpt><trkpt lat="43.9299845" lon="10.50727"><ele>76.75</ele><time>2026-05-03T08:21:12.135Z</time></trkpt><trkpt lat="43.9301019" lon="10.507143"><ele>76.0</ele><time>2026-05-03T08:21:13.135Z</time></trkpt><trkpt lat="43.9302104" lon="10.5070288"><ele>71.75</ele><time>2026-05-03T08:21:14.136Z</time></trkpt><trkpt lat="43.9303206" lon="10.5069376"><ele>67.5</ele><time>2026-05-03T08:21:15.135Z</time></trkpt><trkpt lat="43.930429" lon="10.5068633"><ele>63.25</ele><time>2026-05-03T08:21:16.136Z</time></trkpt><trkpt lat="43.9305412" lon="10.5068303"><ele>59.0</ele><time>2026-05-03T08:21:17.135Z</time></trkpt><trkpt lat="43.9306714" lon="10.5068725"><ele>59.0</ele><time>2026-05-03T08:21:18.135Z</time></trkpt><trkpt lat="43.930787" lon="10.5069204"><ele>59.0</ele><time>2026-05-03T08:21:19.135Z</time></trkpt><trkpt lat="43.9308917" lon="10.5069969"><ele>59.0</ele><time>2026-05-03T08:21:20.135Z</time></trkpt><trkpt lat="43.9309889" lon="10.5070814"><ele>59.0</ele><time>2026-05-03T08:21:21.135Z</time></trkpt><trkpt lat="43.9310799" lon="10.5072558"><ele>57.333333333333336</ele><time>2026-05-03T08:21:22.136Z</time></trkpt><trkpt lat="43.9311628" lon="10.5073993"><ele>55.66666666666667</ele><time>2026-05-03T08:21:23.135Z</time></trkpt><trkpt lat="43.9312633" lon="10.5076331"><ele>54.0</ele><time>2026-05-03T08:21:24.135Z</time></trkpt><trkpt lat="43.9313449" lon="10.5078263"><ele>54.5</ele><time>2026-05-03T08:21:25.135Z</time></trkpt><trkpt lat="43.9314131" lon="10.5080058"><ele>55.0</ele><time>2026-05-03T08:21:26.136Z</time></trkpt><trkpt lat="43.9314831" lon="10.5081724"><ele>55.5</ele><time>2026-05-03T08:21:27.135Z</time></trkpt><trkpt lat="43.9315504" lon="10.50834"><ele>56.0</ele><time>2026-05-03T08:21:28.135Z</time></trkpt><trkpt lat="43.9316093" lon="10.5085093"><ele>56.0</ele><time>2026-05-03T08:21:29.136Z</time></trkpt><trkpt lat="43.9316582" lon="10.508675"><ele>56.0</ele><time>2026-05-03T08:21:30.136Z</time></trkpt><trkpt lat="43.9317068" lon="10.5088434"><ele>56.0</ele><time>2026-05-03T08:21:31.136Z</time></trkpt><trkpt lat="43.931761" lon="10.50899"><ele>56.0</ele><time>2026-05-03T08:21:32.136Z</time></trkpt><trkpt lat="43.9318132" lon="10.5091136"><ele>56.00000000000001</ele><time>2026-05-03T08:21:33.136Z</time></trkpt><trkpt lat="43.9318605" lon="10.5092022"><ele>56.0</ele><time>2026-05-03T08:21:34.135Z</time></trkpt><trkpt lat="43.9319021" lon="10.5092738"><ele>56.0</ele><time>2026-05-03T08:21:35.136Z</time></trkpt><trkpt lat="43.9319766" lon="10.5093715"><ele>56.0</ele><time>2026-05-03T08:21:37.135Z</time></trkpt><trkpt lat="43.932037" lon="10.5094439"><ele>56.00000000000001</ele><time>2026-05-03T08:21:39.136Z</time></trkpt><trkpt lat="43.9320944" lon="10.5095148"><ele>56.0</ele><time>2026-05-03T08:21:41.135Z</time></trkpt><trkpt lat="43.9321595" lon="10.5095805"><ele>56.14285714285714</ele><time>2026-05-03T08:21:43.135Z</time></trkpt><trkpt lat="43.9322129" lon="10.5096333"><ele>56.285714285714285</ele><time>2026-05-03T08:21:45.135Z</time></trkpt><trkpt lat="43.9322839" lon="10.5096946"><ele>56.42857142857143</ele><time>2026-05-03T08:21:50.136Z</time></trkpt><trkpt lat="43.9323428" lon="10.5097459"><ele>56.57142857142857</ele><time>2026-05-03T08:21:54.136Z</time></trkpt><trkpt lat="43.9324062" lon="10.5097889"><ele>56.71428571428571</ele><time>2026-05-03T08:21:58.136Z</time></trkpt><trkpt lat="43.9324659" lon="10.5098199"><ele>56.857142857142854</ele><time>2026-05-03T08:22:03.136Z</time></trkpt><trkpt lat="43.9325363" lon="10.5098404"><ele>57.0</ele><time>2026-05-03T08:23:32.136Z</time></trkpt><trkpt lat="43.932605" lon="10.5098771"><ele>57.0</ele><time>2026-05-03T08:23:36.136Z</time></trkpt><trkpt lat="43.9326647" lon="10.509916"><ele>57.0</ele><time>2026-05-03T08:23:39.136Z</time></trkpt><trkpt lat="43.9327393" lon="10.5099641"><ele>57.0</ele><time>2026-05-03T08:23:41.135Z</time></trkpt><trkpt lat="43.9328104" lon="10.5100113"><ele>57.0</ele><time>2026-05-03T08:23:43.136Z</time></trkpt><trkpt lat="43.9328835" lon="10.5100455"><ele>57.0</ele><time>2026-05-03T08:23:45.136Z</time></trkpt><trkpt lat="43.9329917" lon="10.5100482"><ele>57.0</ele><time>2026-05-03T08:23:47.135Z</time></trkpt><trkpt lat="43.9330597" lon="10.5100074"><ele>57.0</ele><time>2026-05-03T08:23:48.136Z</time></trkpt><trkpt lat="43.93314" lon="10.5099269"><ele>57.0</ele><time>2026-05-03T08:23:49.135Z</time></trkpt><trkpt lat="43.9332327" lon="10.5098141"><ele>57.0</ele><time>2026-05-03T08:23:50.135Z</time></trkpt><trkpt lat="43.9333323" lon="10.5096958"><ele>57.0</ele><time>2026-05-03T08:23:51.135Z</time></trkpt><trkpt lat="43.9334304" lon="10.5095924"><ele>57.0</ele><time>2026-05-03T08:23:52.135Z</time></trkpt><trkpt lat="43.9335379" lon="10.5094863"><ele>57.0</ele><time>2026-05-03T08:23:53.136Z</time></trkpt><trkpt lat="43.9336474" lon="10.5093819"><ele>57.0</ele><time>2026-05-03T08:23:54.136Z</time></trkpt><trkpt lat="43.9337537" lon="10.5092806"><ele>57.0</ele><time>2026-05-03T08:23:55.135Z</time></trkpt><trkpt lat="43.9338621" lon="10.5091762"><ele>57.0</ele><time>2026-05-03T08:23:56.136Z</time></trkpt><trkpt lat="43.9339744" lon="10.5090688"><ele>57.0</ele><time>2026-05-03T08:23:57.136Z</time></trkpt><trkpt lat="43.934086" lon="10.5089589"><ele>57.0</ele><time>2026-05-03T08:23:58.135Z</time></trkpt><trkpt lat="43.9341905" lon="10.5088512"><ele>57.0</ele><time>2026-05-03T08:23:59.136Z</time></trkpt><trkpt lat="43.9342986" lon="10.5087432"><ele>57.25</ele><time>2026-05-03T08:24:00.135Z</time></trkpt><trkpt lat="43.9344035" lon="10.508637"><ele>57.5</ele><time>2026-05-03T08:24:01.135Z</time></trkpt><trkpt lat="43.9345053" lon="10.5085243"><ele>57.75</ele><time>2026-05-03T08:24:02.135Z</time></trkpt><trkpt lat="43.9346052" lon="10.5083979"><ele>58.0</ele><time>2026-05-03T08:24:03.136Z</time></trkpt><trkpt lat="43.934706" lon="10.508257"><ele>58.0</ele><time>2026-05-03T08:24:04.136Z</time></trkpt><trkpt lat="43.9348083" lon="10.5081015"><ele>58.0</ele><time>2026-05-03T08:24:05.136Z</time></trkpt><trkpt lat="43.93492" lon="10.5079192"><ele>58.0</ele><time>2026-05-03T08:24:06.136Z</time></trkpt><trkpt lat="43.9350372" lon="10.507727"><ele>59.0</ele><time>2026-05-03T08:24:07.136Z</time></trkpt><trkpt lat="43.9351511" lon="10.5075433"><ele>60.0</ele><time>2026-05-03T08:24:08.135Z</time></trkpt><trkpt lat="43.935266" lon="10.5073679"><ele>61.0</ele><time>2026-05-03T08:24:09.135Z</time></trkpt><trkpt lat="43.9353831" lon="10.5071918"><ele>61.0</ele><time>2026-05-03T08:24:10.136Z</time></trkpt><trkpt lat="43.9355025" lon="10.5070126"><ele>61.0</ele><time>2026-05-03T08:24:11.136Z</time></trkpt><trkpt lat="43.9356257" lon="10.5068275"><ele>61.0</ele><time>2026-05-03T08:24:12.136Z</time></trkpt><trkpt lat="43.9357544" lon="10.5066338"><ele>61.0</ele><time>2026-05-03T08:24:13.135Z</time></trkpt><trkpt lat="43.9358871" lon="10.5064379"><ele>61.0</ele><time>2026-05-03T08:24:14.135Z</time></trkpt><trkpt lat="43.9360216" lon="10.5062411"><ele>61.0</ele><time>2026-05-03T08:24:15.135Z</time></trkpt><trkpt lat="43.9361595" lon="10.5060385"><ele>60.0</ele><time>2026-05-03T08:24:16.135Z</time></trkpt><trkpt lat="43.9362963" lon="10.5058391"><ele>59.0</ele><time>2026-05-03T08:24:17.136Z</time></trkpt><trkpt lat="43.936437" lon="10.5056352"><ele>58.0</ele><time>2026-05-03T08:24:18.135Z</time></trkpt><trkpt lat="43.9365771" lon="10.5054266"><ele>58.33333333333333</ele><time>2026-05-03T08:24:19.136Z</time></trkpt><trkpt lat="43.9367165" lon="10.5052148"><ele>58.66666666666667</ele><time>2026-05-03T08:24:20.136Z</time></trkpt><trkpt lat="43.9368586" lon="10.5050041"><ele>59.0</ele><time>2026-05-03T08:24:21.135Z</time></trkpt><trkpt lat="43.9370007" lon="10.5047905"><ele>60.0</ele><time>2026-05-03T08:24:22.135Z</time></trkpt><trkpt lat="43.9371426" lon="10.5045752"><ele>61.0</ele><time>2026-05-03T08:24:23.135Z</time></trkpt><trkpt lat="43.9372835" lon="10.504364"><ele>62.0</ele><time>2026-05-03T08:24:24.135Z</time></trkpt><trkpt lat="43.937422" lon="10.5041649"><ele>67.0</ele><time>2026-05-03T08:24:25.136Z</time></trkpt><trkpt lat="43.93756" lon="10.5039601"><ele>72.0</ele><time>2026-05-03T08:24:26.135Z</time></trkpt><trkpt lat="43.937698" lon="10.5037567"><ele>77.0</ele><time>2026-05-03T08:24:27.135Z</time></trkpt><trkpt lat="43.9378333" lon="10.5035548"><ele>77.0</ele><time>2026-05-03T08:24:28.136Z</time></trkpt><trkpt lat="43.9379677" lon="10.5033511"><ele>77.0</ele><time>2026-05-03T08:24:29.135Z</time></trkpt><trkpt lat="43.9381022" lon="10.50315"><ele>77.0</ele><time>2026-05-03T08:24:30.135Z</time></trkpt><trkpt lat="43.9382363" lon="10.50295"><ele>75.66666666666667</ele><time>2026-05-03T08:24:31.135Z</time></trkpt><trkpt lat="43.938366" lon="10.5027613"><ele>74.33333333333333</ele><time>2026-05-03T08:24:32.135Z</time></trkpt><trkpt lat="43.9384826" lon="10.5025996"><ele>73.0</ele><time>2026-05-03T08:24:33.136Z</time></trkpt><trkpt lat="43.9386067" lon="10.5024597"><ele>73.0</ele><time>2026-05-03T08:24:34.136Z</time></trkpt><trkpt lat="43.9387396" lon="10.5023533"><ele>73.0</ele><time>2026-05-03T08:24:35.136Z</time></trkpt><trkpt lat="43.9388845" lon="10.5022726"><ele>73.0</ele><time>2026-05-03T08:24:36.135Z</time></trkpt><trkpt lat="43.9390396" lon="10.5022089"><ele>73.0</ele><time>2026-05-03T08:24:37.136Z</time></trkpt><trkpt lat="43.9391995" lon="10.5021539"><ele>73.0</ele><time>2026-05-03T08:24:38.135Z</time></trkpt><trkpt lat="43.9393521" lon="10.5020948"><ele>73.0</ele><time>2026-05-03T08:24:39.135Z</time></trkpt><trkpt lat="43.939502" lon="10.502049"><ele>73.0</ele><time>2026-05-03T08:24:40.136Z</time></trkpt><trkpt lat="43.9396475" lon="10.5020389"><ele>73.0</ele><time>2026-05-03T08:24:41.135Z</time></trkpt><trkpt lat="43.9397944" lon="10.5020503"><ele>73.0</ele><time>2026-05-03T08:24:42.136Z</time></trkpt><trkpt lat="43.9399464" lon="10.5020822"><ele>73.0</ele><time>2026-05-03T08:24:43.136Z</time></trkpt><trkpt lat="43.9400972" lon="10.5021319"><ele>73.0</ele><time>2026-05-03T08:24:44.135Z</time></trkpt><trkpt lat="43.9402483" lon="10.502196"><ele>73.0</ele><time>2026-05-03T08:24:45.136Z</time></trkpt><trkpt lat="43.9404073" lon="10.5022846"><ele>73.0</ele><time>2026-05-03T08:24:46.135Z</time></trkpt><trkpt lat="43.940579" lon="10.5023716"><ele>73.0</ele><time>2026-05-03T08:24:47.135Z</time></trkpt><trkpt lat="43.9407546" lon="10.502459"><ele>73.0</ele><time>2026-05-03T08:24:48.135Z</time></trkpt><trkpt lat="43.9409341" lon="10.5025632"><ele>73.0</ele><time>2026-05-03T08:24:49.135Z</time></trkpt><trkpt lat="43.9411535" lon="10.5027286"><ele>72.0</ele><time>2026-05-03T08:24:50.136Z</time></trkpt><trkpt lat="43.941357" lon="10.5028272"><ele>71.0</ele><time>2026-05-03T08:24:51.135Z</time></trkpt><trkpt lat="43.9415662" lon="10.5029517"><ele>70.0</ele><time>2026-05-03T08:24:52.135Z</time></trkpt><trkpt lat="43.9417709" lon="10.5031741"><ele>70.0</ele><time>2026-05-03T08:24:53.136Z</time></trkpt><trkpt lat="43.9420908" lon="10.5034498"><ele>70.0</ele><time>2026-05-03T08:24:54.136Z</time></trkpt><trkpt lat="43.942294" lon="10.5036361"><ele>75.0</ele><time>2026-05-03T08:24:55.135Z</time></trkpt><trkpt lat="43.9424988" lon="10.503789"><ele>80.0</ele><time>2026-05-03T08:24:56.135Z</time></trkpt><trkpt lat="43.9427133" lon="10.5039261"><ele>80.0</ele><time>2026-05-03T08:24:57.135Z</time></trkpt><trkpt lat="43.9429566" lon="10.5040225"><ele>80.0</ele><time>2026-05-03T08:24:58.136Z</time></trkpt><trkpt lat="43.9431966" lon="10.5041223"><ele>76.0</ele><time>2026-05-03T08:24:59.135Z</time></trkpt><trkpt lat="43.9434079" lon="10.5042209"><ele>72.0</ele><time>2026-05-03T08:25:00.136Z</time></trkpt><trkpt lat="43.9436122" lon="10.5043107"><ele>68.0</ele><time>2026-05-03T08:25:01.135Z</time></trkpt><trkpt lat="43.9438092" lon="10.5043975"><ele>68.0</ele><time>2026-05-03T08:25:02.136Z</time></trkpt><trkpt lat="43.943999" lon="10.5044787"><ele>68.0</ele><time>2026-05-03T08:25:03.136Z</time></trkpt><trkpt lat="43.9441827" lon="10.5045569"><ele>68.0</ele><time>2026-05-03T08:25:04.136Z</time></trkpt><trkpt lat="43.9443634" lon="10.5046689"><ele>74.66666666666667</ele><time>2026-05-03T08:25:05.136Z</time></trkpt><trkpt lat="43.9445408" lon="10.5047892"><ele>81.33333333333333</ele><time>2026-05-03T08:25:06.135Z</time></trkpt><trkpt lat="43.9447207" lon="10.504914"><ele>88.0</ele><time>2026-05-03T08:25:07.135Z</time></trkpt><trkpt lat="43.944894" lon="10.5050278"><ele>81.33333333333333</ele><time>2026-05-03T08:25:08.135Z</time></trkpt><trkpt lat="43.9450584" lon="10.505129"><ele>74.66666666666667</ele><time>2026-05-03T08:25:09.135Z</time></trkpt><trkpt lat="43.9452225" lon="10.50521"><ele>68.0</ele><time>2026-05-03T08:25:10.136Z</time></trkpt><trkpt lat="43.9453687" lon="10.5053008"><ele>76.66666666666667</ele><time>2026-05-03T08:25:11.135Z</time></trkpt><trkpt lat="43.9455045" lon="10.5054278"><ele>85.33333333333333</ele><time>2026-05-03T08:25:12.135Z</time></trkpt><trkpt lat="43.9456334" lon="10.5055773"><ele>94.0</ele><time>2026-05-03T08:25:13.135Z</time></trkpt><trkpt lat="43.9457549" lon="10.5057395"><ele>87.0</ele><time>2026-05-03T08:25:14.136Z</time></trkpt><trkpt lat="43.945879" lon="10.5058709"><ele>80.0</ele><time>2026-05-03T08:25:15.135Z</time></trkpt><trkpt lat="43.9460228" lon="10.5059657"><ele>73.0</ele><time>2026-05-03T08:25:16.136Z</time></trkpt><trkpt lat="43.9461771" lon="10.5060516"><ele>73.0</ele><time>2026-05-03T08:25:17.136Z</time></trkpt><trkpt lat="43.9463236" lon="10.5061387"><ele>73.0</ele><time>2026-05-03T08:25:18.136Z</time></trkpt><trkpt lat="43.9464797" lon="10.5061948"><ele>73.0</ele><time>2026-05-03T08:25:19.135Z</time></trkpt><trkpt lat="43.946635" lon="10.5062262"><ele>71.5</ele><time>2026-05-03T08:25:20.136Z</time></trkpt><trkpt lat="43.9467845" lon="10.5062204"><ele>70.0</ele><time>2026-05-03T08:25:21.136Z</time></trkpt><trkpt lat="43.9469245" lon="10.5061701"><ele>68.5</ele><time>2026-05-03T08:25:22.135Z</time></trkpt><trkpt lat="43.9470642" lon="10.5060992"><ele>67.0</ele><time>2026-05-03T08:25:23.135Z</time></trkpt><trkpt lat="43.9472136" lon="10.5060446"><ele>67.0</ele><time>2026-05-03T08:25:24.135Z</time></trkpt><trkpt lat="43.9473747" lon="10.5060166"><ele>67.0</ele><time>2026-05-03T08:25:25.136Z</time></trkpt><trkpt lat="43.9475473" lon="10.5060107"><ele>67.0</ele><time>2026-05-03T08:25:26.135Z</time></trkpt><trkpt lat="43.9477313" lon="10.5060213"><ele>66.33333333333333</ele><time>2026-05-03T08:25:27.136Z</time></trkpt><trkpt lat="43.9479229" lon="10.5060357"><ele>65.66666666666667</ele><time>2026-05-03T08:25:28.135Z</time></trkpt><trkpt lat="43.9481236" lon="10.5060528"><ele>65.0</ele><time>2026-05-03T08:25:29.136Z</time></trkpt><trkpt lat="43.9483289" lon="10.5060671"><ele>65.66666666666667</ele><time>2026-05-03T08:25:30.135Z</time></trkpt><trkpt lat="43.9485398" lon="10.5060818"><ele>66.33333333333333</ele><time>2026-05-03T08:25:31.135Z</time></trkpt><trkpt lat="43.9487548" lon="10.5060997"><ele>67.0</ele><time>2026-05-03T08:25:32.136Z</time></trkpt><trkpt lat="43.9489744" lon="10.5061228"><ele>67.0</ele><time>2026-05-03T08:25:33.136Z</time></trkpt><trkpt lat="43.9491988" lon="10.5061461"><ele>67.0</ele><time>2026-05-03T08:25:34.135Z</time></trkpt><trkpt lat="43.9494167" lon="10.5061689"><ele>67.0</ele><time>2026-05-03T08:25:35.136Z</time></trkpt><trkpt lat="43.9496225" lon="10.5061825"><ele>67.0</ele><time>2026-05-03T08:25:36.136Z</time></trkpt><trkpt lat="43.9498231" lon="10.5062031"><ele>67.0</ele><time>2026-05-03T08:25:37.136Z</time></trkpt><trkpt lat="43.9500126" lon="10.5062227"><ele>67.0</ele><time>2026-05-03T08:25:38.136Z</time></trkpt><trkpt lat="43.9501877" lon="10.5062397"><ele>73.66666666666666</ele><time>2026-05-03T08:25:39.135Z</time></trkpt><trkpt lat="43.9503518" lon="10.5062549"><ele>80.33333333333333</ele><time>2026-05-03T08:25:40.136Z</time></trkpt><trkpt lat="43.950507" lon="10.5062659"><ele>87.0</ele><time>2026-05-03T08:25:41.136Z</time></trkpt><trkpt lat="43.9506666" lon="10.5062813"><ele>87.0</ele><time>2026-05-03T08:25:42.136Z</time></trkpt><trkpt lat="43.9508353" lon="10.506291"><ele>87.0</ele><time>2026-05-03T08:25:43.135Z</time></trkpt><trkpt lat="43.9510059" lon="10.506313"><ele>87.0</ele><time>2026-05-03T08:25:44.135Z</time></trkpt><trkpt lat="43.951178" lon="10.5063291"><ele>89.33333333333333</ele><time>2026-05-03T08:25:45.135Z</time></trkpt><trkpt lat="43.9513482" lon="10.5063591"><ele>91.66666666666666</ele><time>2026-05-03T08:25:46.136Z</time></trkpt><trkpt lat="43.9515127" lon="10.506404"><ele>94.0</ele><time>2026-05-03T08:25:47.135Z</time></trkpt><trkpt lat="43.9516569" lon="10.5064504"><ele>91.0</ele><time>2026-05-03T08:25:48.136Z</time></trkpt><trkpt lat="43.9517813" lon="10.5064942"><ele>88.0</ele><time>2026-05-03T08:25:49.136Z</time></trkpt><trkpt lat="43.9518926" lon="10.5065345"><ele>85.0</ele><time>2026-05-03T08:25:50.136Z</time></trkpt><trkpt lat="43.9519891" lon="10.5065701"><ele>82.0</ele><time>2026-05-03T08:25:51.135Z</time></trkpt><trkpt lat="43.9520703" lon="10.5066007"><ele>79.0</ele><time>2026-05-03T08:25:52.135Z</time></trkpt><trkpt lat="43.9521359" lon="10.5066229"><ele>79.0</ele><time>2026-05-03T08:25:53.135Z</time></trkpt><trkpt lat="43.9522267" lon="10.5066564"><ele>79.0</ele><time>2026-05-03T08:25:55.135Z</time></trkpt><trkpt lat="43.9522933" lon="10.5066826"><ele>79.0</ele><time>2026-05-03T08:25:58.135Z</time></trkpt><trkpt lat="43.9524778" lon="10.5067704"><ele>79.0</ele><time>2026-05-03T08:27:33.136Z</time></trkpt><trkpt lat="43.9525491" lon="10.5068012"><ele>79.0</ele><time>2026-05-03T08:27:34.136Z</time></trkpt><trkpt lat="43.9526226" lon="10.5068348"><ele>80.80000000000001</ele><time>2026-05-03T08:27:35.136Z</time></trkpt><trkpt lat="43.952706" lon="10.5068806"><ele>82.60000000000001</ele><time>2026-05-03T08:27:36.135Z</time></trkpt><trkpt lat="43.952796" lon="10.5069342"><ele>84.4</ele><time>2026-05-03T08:27:37.136Z</time></trkpt><trkpt lat="43.9528909" lon="10.5069848"><ele>86.2</ele><time>2026-05-03T08:27:38.136Z</time></trkpt><trkpt lat="43.952994" lon="10.507043"><ele>88.0</ele><time>2026-05-03T08:27:39.136Z</time></trkpt><trkpt lat="43.9531054" lon="10.5071046"><ele>88.0</ele><time>2026-05-03T08:27:40.135Z</time></trkpt><trkpt lat="43.9532225" lon="10.5071676"><ele>88.0</ele><time>2026-05-03T08:27:41.136Z</time></trkpt><trkpt lat="43.953331" lon="10.5072298"><ele>88.0</ele><time>2026-05-03T08:27:42.135Z</time></trkpt><trkpt lat="43.9534379" lon="10.5072934"><ele>88.0</ele><time>2026-05-03T08:27:43.136Z</time></trkpt><trkpt lat="43.9535458" lon="10.5073687"><ele>82.75</ele><time>2026-05-03T08:27:44.135Z</time></trkpt><trkpt lat="43.9536504" lon="10.5074602"><ele>77.5</ele><time>2026-05-03T08:27:45.136Z</time></trkpt><trkpt lat="43.9537504" lon="10.5075684"><ele>72.25</ele><time>2026-05-03T08:27:46.136Z</time></trkpt><trkpt lat="43.9538551" lon="10.5076847"><ele>67.0</ele><time>2026-05-03T08:27:47.136Z</time></trkpt><trkpt lat="43.9539618" lon="10.5078138"><ele>66.25</ele><time>2026-05-03T08:27:48.135Z</time></trkpt><trkpt lat="43.9540735" lon="10.507938"><ele>65.5</ele><time>2026-05-03T08:27:49.136Z</time></trkpt><trkpt lat="43.9541928" lon="10.5080699"><ele>64.75</ele><time>2026-05-03T08:27:50.136Z</time></trkpt><trkpt lat="43.9543147" lon="10.5081998"><ele>64.0</ele><time>2026-05-03T08:27:51.135Z</time></trkpt><trkpt lat="43.9544252" lon="10.5083423"><ele>64.0</ele><time>2026-05-03T08:27:52.135Z</time></trkpt><trkpt lat="43.954526" lon="10.5084981"><ele>64.0</ele><time>2026-05-03T08:27:53.135Z</time></trkpt><trkpt lat="43.9546094" lon="10.5086872"><ele>64.0</ele><time>2026-05-03T08:27:54.136Z</time></trkpt><trkpt lat="43.9546952" lon="10.5088788"><ele>68.0</ele><time>2026-05-03T08:27:55.113Z</time></trkpt><trkpt lat="43.9547785" lon="10.5090872"><ele>72.0</ele><time>2026-05-03T08:27:56.109Z</time></trkpt><trkpt lat="43.9548667" lon="10.5092976"><ele>76.0</ele><time>2026-05-03T08:27:57.108Z</time></trkpt><trkpt lat="43.9549628" lon="10.5095037"><ele>72.0</ele><time>2026-05-03T08:27:58.108Z</time></trkpt><trkpt lat="43.9550712" lon="10.5097041"><ele>68.0</ele><time>2026-05-03T08:27:59.11Z</time></trkpt><trkpt lat="43.955183" lon="10.5099023"><ele>64.0</ele><time>2026-05-03T08:28:00.109Z</time></trkpt><trkpt lat="43.9552953" lon="10.5101076"><ele>64.0</ele><time>2026-05-03T08:28:01.109Z</time></trkpt><trkpt lat="43.9553982" lon="10.5103223"><ele>64.0</ele><time>2026-05-03T08:28:02.109Z</time></trkpt><trkpt lat="43.9554905" lon="10.5105694"><ele>64.0</ele><time>2026-05-03T08:28:03.135Z</time></trkpt><trkpt lat="43.9555724" lon="10.5108045"><ele>68.0</ele><time>2026-05-03T08:28:04.136Z</time></trkpt><trkpt lat="43.9556584" lon="10.5110362"><ele>72.0</ele><time>2026-05-03T08:28:05.136Z</time></trkpt><trkpt lat="43.9557438" lon="10.5112714"><ele>76.0</ele><time>2026-05-03T08:28:06.135Z</time></trkpt><trkpt lat="43.955832" lon="10.511507"><ele>73.0</ele><time>2026-05-03T08:28:07.135Z</time></trkpt><trkpt lat="43.9559169" lon="10.5117448"><ele>70.0</ele><time>2026-05-03T08:28:08.135Z</time></trkpt><trkpt lat="43.9560048" lon="10.5119798"><ele>67.0</ele><time>2026-05-03T08:28:09.135Z</time></trkpt><trkpt lat="43.9560903" lon="10.512215"><ele>67.0</ele><time>2026-05-03T08:28:10.136Z</time></trkpt><trkpt lat="43.9561767" lon="10.5124519"><ele>67.0</ele><time>2026-05-03T08:28:11.135Z</time></trkpt><trkpt lat="43.9562663" lon="10.5126857"><ele>67.0</ele><time>2026-05-03T08:28:12.136Z</time></trkpt><trkpt lat="43.9563622" lon="10.5129177"><ele>69.33333333333333</ele><time>2026-05-03T08:28:13.136Z</time></trkpt><trkpt lat="43.9564636" lon="10.5131404"><ele>71.66666666666667</ele><time>2026-05-03T08:28:14.135Z</time></trkpt><trkpt lat="43.9565717" lon="10.5133602"><ele>74.0</ele><time>2026-05-03T08:28:15.135Z</time></trkpt><trkpt lat="43.9566845" lon="10.5135804"><ele>71.0</ele><time>2026-05-03T08:28:16.135Z</time></trkpt><trkpt lat="43.956796" lon="10.5138008"><ele>68.0</ele><time>2026-05-03T08:28:17.135Z</time></trkpt><trkpt lat="43.9569068" lon="10.5140241"><ele>65.0</ele><time>2026-05-03T08:28:18.135Z</time></trkpt><trkpt lat="43.9570176" lon="10.5142488"><ele>65.0</ele><time>2026-05-03T08:28:19.136Z</time></trkpt><trkpt lat="43.957128" lon="10.5144771"><ele>65.0</ele><time>2026-05-03T08:28:20.136Z</time></trkpt><trkpt lat="43.9572346" lon="10.5147109"><ele>65.0</ele><time>2026-05-03T08:28:21.136Z</time></trkpt><trkpt lat="43.957335" lon="10.5149529"><ele>65.0</ele><time>2026-05-03T08:28:22.136Z</time></trkpt><trkpt lat="43.9574308" lon="10.5152012"><ele>65.0</ele><time>2026-05-03T08:28:23.136Z</time></trkpt><trkpt lat="43.9575251" lon="10.5154574"><ele>65.0</ele><time>2026-05-03T08:28:24.136Z</time></trkpt><trkpt lat="43.9576228" lon="10.5157136"><ele>65.0</ele><time>2026-05-03T08:28:25.136Z</time></trkpt><trkpt lat="43.9577156" lon="10.5159638"><ele>65.0</ele><time>2026-05-03T08:28:26.135Z</time></trkpt><trkpt lat="43.957799" lon="10.5162039"><ele>65.0</ele><time>2026-05-03T08:28:27.136Z</time></trkpt><trkpt lat="43.9578789" lon="10.5164355"><ele>67.33333333333334</ele><time>2026-05-03T08:28:28.135Z</time></trkpt><trkpt lat="43.9579655" lon="10.5166466"><ele>69.66666666666667</ele><time>2026-05-03T08:28:29.136Z</time></trkpt><trkpt lat="43.9580697" lon="10.5168322"><ele>72.0</ele><time>2026-05-03T08:28:30.135Z</time></trkpt><trkpt lat="43.9582005" lon="10.5169983"><ele>70.66666666666667</ele><time>2026-05-03T08:28:31.136Z</time></trkpt><trkpt lat="43.9583486" lon="10.5171641"><ele>69.33333333333334</ele><time>2026-05-03T08:28:32.136Z</time></trkpt><trkpt lat="43.9585167" lon="10.5173347"><ele>68.0</ele><time>2026-05-03T08:28:33.136Z</time></trkpt><trkpt lat="43.9586917" lon="10.5175062"><ele>68.0</ele><time>2026-05-03T08:28:34.135Z</time></trkpt><trkpt lat="43.9588648" lon="10.5176801"><ele>68.0</ele><time>2026-05-03T08:28:35.136Z</time></trkpt><trkpt lat="43.9590314" lon="10.5178451"><ele>68.0</ele><time>2026-05-03T08:28:36.136Z</time></trkpt><trkpt lat="43.9591991" lon="10.5180094"><ele>68.0</ele><time>2026-05-03T08:28:37.135Z</time></trkpt><trkpt lat="43.9593659" lon="10.5181801"><ele>68.0</ele><time>2026-05-03T08:28:38.136Z</time></trkpt><trkpt lat="43.959532" lon="10.5183535"><ele>68.0</ele><time>2026-05-03T08:28:39.135Z</time></trkpt><trkpt lat="43.959705" lon="10.5185281"><ele>68.0</ele><time>2026-05-03T08:28:40.136Z</time></trkpt><trkpt lat="43.9598786" lon="10.5187042"><ele>68.0</ele><time>2026-05-03T08:28:41.135Z</time></trkpt><trkpt lat="43.960056" lon="10.5188773"><ele>68.0</ele><time>2026-05-03T08:28:42.136Z</time></trkpt><trkpt lat="43.9602328" lon="10.5190515"><ele>68.33333333333334</ele><time>2026-05-03T08:28:43.135Z</time></trkpt><trkpt lat="43.9604123" lon="10.5192275"><ele>68.66666666666667</ele><time>2026-05-03T08:28:44.136Z</time></trkpt><trkpt lat="43.9605882" lon="10.5194062"><ele>69.0</ele><time>2026-05-03T08:28:45.136Z</time></trkpt><trkpt lat="43.9607689" lon="10.5195818"><ele>69.0</ele><time>2026-05-03T08:28:46.136Z</time></trkpt><trkpt lat="43.9609511" lon="10.5197598"><ele>69.0</ele><time>2026-05-03T08:28:47.135Z</time></trkpt><trkpt lat="43.961133" lon="10.519942"><ele>69.0</ele><time>2026-05-03T08:28:48.136Z</time></trkpt><trkpt lat="43.9613093" lon="10.5201205"><ele>69.0</ele><time>2026-05-03T08:28:49.136Z</time></trkpt><trkpt lat="43.9614761" lon="10.5202838"><ele>69.0</ele><time>2026-05-03T08:28:50.135Z</time></trkpt><trkpt lat="43.9616356" lon="10.5204382"><ele>69.0</ele><time>2026-05-03T08:28:51.135Z</time></trkpt><trkpt lat="43.9617885" lon="10.520588"><ele>69.0</ele><time>2026-05-03T08:28:52.136Z</time></trkpt><trkpt lat="43.9619346" lon="10.5207324"><ele>69.0</ele><time>2026-05-03T08:28:53.136Z</time></trkpt><trkpt lat="43.9620792" lon="10.5208786"><ele>69.0</ele><time>2026-05-03T08:28:54.136Z</time></trkpt><trkpt lat="43.9622237" lon="10.521021"><ele>69.0</ele><time>2026-05-03T08:28:55.135Z</time></trkpt><trkpt lat="43.9623689" lon="10.5211701"><ele>69.0</ele><time>2026-05-03T08:28:56.136Z</time></trkpt><trkpt lat="43.9625136" lon="10.5213192"><ele>69.0</ele><time>2026-05-03T08:28:57.135Z</time></trkpt><trkpt lat="43.9626573" lon="10.5214697"><ele>69.33333333333333</ele><time>2026-05-03T08:28:58.136Z</time></trkpt><trkpt lat="43.9628067" lon="10.5216171"><ele>69.66666666666666</ele><time>2026-05-03T08:28:59.136Z</time></trkpt><trkpt lat="43.9629618" lon="10.5217696"><ele>70.0</ele><time>2026-05-03T08:29:00.136Z</time></trkpt><trkpt lat="43.9631179" lon="10.5219271"><ele>70.0</ele><time>2026-05-03T08:29:01.136Z</time></trkpt><trkpt lat="43.9632773" lon="10.5220875"><ele>70.0</ele><time>2026-05-03T08:29:02.136Z</time></trkpt><trkpt lat="43.9634415" lon="10.522251"><ele>70.0</ele><time>2026-05-03T08:29:03.135Z</time></trkpt><trkpt lat="43.9636095" lon="10.522419"><ele>70.33333333333333</ele><time>2026-05-03T08:29:04.136Z</time></trkpt><trkpt lat="43.9637831" lon="10.5225889"><ele>70.66666666666667</ele><time>2026-05-03T08:29:05.136Z</time></trkpt><trkpt lat="43.9639586" lon="10.5227648"><ele>71.0</ele><time>2026-05-03T08:29:06.135Z</time></trkpt><trkpt lat="43.9641403" lon="10.522944"><ele>71.5</ele><time>2026-05-03T08:29:07.135Z</time></trkpt><trkpt lat="43.9643242" lon="10.5231271"><ele>72.0</ele><time>2026-05-03T08:29:08.136Z</time></trkpt><trkpt lat="43.9645074" lon="10.5233088"><ele>72.0</ele><time>2026-05-03T08:29:09.135Z</time></trkpt><trkpt lat="43.9646857" lon="10.5234874"><ele>72.0</ele><time>2026-05-03T08:29:10.136Z</time></trkpt><trkpt lat="43.964859" lon="10.5236606"><ele>72.0</ele><time>2026-05-03T08:29:11.135Z</time></trkpt><trkpt lat="43.965022" lon="10.5238226"><ele>72.0</ele><time>2026-05-03T08:29:12.135Z</time></trkpt><trkpt lat="43.9651768" lon="10.5239726"><ele>72.0</ele><time>2026-05-03T08:29:13.135Z</time></trkpt><trkpt lat="43.9653249" lon="10.5241222"><ele>72.0</ele><time>2026-05-03T08:29:14.136Z</time></trkpt><trkpt lat="43.9654664" lon="10.5242643"><ele>72.0</ele><time>2026-05-03T08:29:15.136Z</time></trkpt><trkpt lat="43.9656037" lon="10.5244037"><ele>72.0</ele><time>2026-05-03T08:29:16.136Z</time></trkpt><trkpt lat="43.9657397" lon="10.5245433"><ele>72.0</ele><time>2026-05-03T08:29:17.136Z</time></trkpt><trkpt lat="43.9658778" lon="10.5246803"><ele>72.66666666666667</ele><time>2026-05-03T08:29:18.135Z</time></trkpt><trkpt lat="43.9660154" lon="10.5248185"><ele>73.33333333333334</ele><time>2026-05-03T08:29:19.136Z</time></trkpt><trkpt lat="43.9661532" lon="10.5249599"><ele>74.0</ele><time>2026-05-03T08:29:20.135Z</time></trkpt><trkpt lat="43.9662946" lon="10.5251018"><ele>74.0</ele><time>2026-05-03T08:29:21.136Z</time></trkpt><trkpt lat="43.9664372" lon="10.5252437"><ele>74.0</ele><time>2026-05-03T08:29:22.136Z</time></trkpt><trkpt lat="43.9665833" lon="10.5253885"><ele>74.0</ele><time>2026-05-03T08:29:23.135Z</time></trkpt><trkpt lat="43.9667316" lon="10.5255382"><ele>73.66666666666667</ele><time>2026-05-03T08:29:24.136Z</time></trkpt><trkpt lat="43.9668822" lon="10.5256921"><ele>73.33333333333333</ele><time>2026-05-03T08:29:25.136Z</time></trkpt><trkpt lat="43.9670355" lon="10.5258479"><ele>73.0</ele><time>2026-05-03T08:29:26.136Z</time></trkpt><trkpt lat="43.967183" lon="10.5259996"><ele>73.0</ele><time>2026-05-03T08:29:27.136Z</time></trkpt><trkpt lat="43.9673275" lon="10.5261424"><ele>73.0</ele><time>2026-05-03T08:29:28.136Z</time></trkpt><trkpt lat="43.9674713" lon="10.5262838"><ele>73.0</ele><time>2026-05-03T08:29:29.135Z</time></trkpt><trkpt lat="43.9676036" lon="10.5264165"><ele>73.0</ele><time>2026-05-03T08:29:30.135Z</time></trkpt><trkpt lat="43.9677306" lon="10.5265486"><ele>73.0</ele><time>2026-05-03T08:29:31.136Z</time></trkpt><trkpt lat="43.9678567" lon="10.5266774"><ele>73.0</ele><time>2026-05-03T08:29:32.135Z</time></trkpt><trkpt lat="43.9679829" lon="10.5268091"><ele>73.0</ele><time>2026-05-03T08:29:33.136Z</time></trkpt><trkpt lat="43.968107" lon="10.5269497"><ele>73.0</ele><time>2026-05-03T08:29:34.135Z</time></trkpt><trkpt lat="43.968229" lon="10.5271034"><ele>73.0</ele><time>2026-05-03T08:29:35.135Z</time></trkpt><trkpt lat="43.9683549" lon="10.5272684"><ele>73.0</ele><time>2026-05-03T08:29:36.135Z</time></trkpt><trkpt lat="43.9684871" lon="10.527442"><ele>73.0</ele><time>2026-05-03T08:29:37.135Z</time></trkpt><trkpt lat="43.9686237" lon="10.527617"><ele>73.0</ele><time>2026-05-03T08:29:38.136Z</time></trkpt><trkpt lat="43.9687684" lon="10.5277992"><ele>75.33333333333333</ele><time>2026-05-03T08:29:39.135Z</time></trkpt><trkpt lat="43.9689126" lon="10.5279836"><ele>77.66666666666667</ele><time>2026-05-03T08:29:40.135Z</time></trkpt><trkpt lat="43.9690542" lon="10.5281692"><ele>80.0</ele><time>2026-05-03T08:29:41.135Z</time></trkpt><trkpt lat="43.9691864" lon="10.5283547"><ele>79.0</ele><time>2026-05-03T08:29:42.136Z</time></trkpt><trkpt lat="43.9693068" lon="10.5285333"><ele>78.0</ele><time>2026-05-03T08:29:43.136Z</time></trkpt><trkpt lat="43.9694172" lon="10.5286917"><ele>77.0</ele><time>2026-05-03T08:29:44.136Z</time></trkpt><trkpt lat="43.9695158" lon="10.5288384"><ele>77.0</ele><time>2026-05-03T08:29:45.135Z</time></trkpt><trkpt lat="43.969605" lon="10.5289695"><ele>77.0</ele><time>2026-05-03T08:29:46.136Z</time></trkpt><trkpt lat="43.9696858" lon="10.5290928"><ele>77.0</ele><time>2026-05-03T08:29:47.135Z</time></trkpt><trkpt lat="43.9697489" lon="10.5292147"><ele>77.0</ele><time>2026-05-03T08:29:48.136Z</time></trkpt><trkpt lat="43.9697924" lon="10.5293416"><ele>77.0</ele><time>2026-05-03T08:29:49.136Z</time></trkpt><trkpt lat="43.9698126" lon="10.5294724"><ele>77.0</ele><time>2026-05-03T08:29:50.136Z</time></trkpt><trkpt lat="43.969808" lon="10.5295991"><ele>77.0</ele><time>2026-05-03T08:29:51.135Z</time></trkpt><trkpt lat="43.9697928" lon="10.5297211"><ele>77.0</ele><time>2026-05-03T08:29:52.135Z</time></trkpt><trkpt lat="43.9697869" lon="10.5298363"><ele>77.0</ele><time>2026-05-03T08:29:53.135Z</time></trkpt><trkpt lat="43.9698068" lon="10.5299437"><ele>77.0</ele><time>2026-05-03T08:29:54.136Z</time></trkpt><trkpt lat="43.9698532" lon="10.5300208"><ele>77.4</ele><time>2026-05-03T08:29:55.135Z</time></trkpt><trkpt lat="43.9699238" lon="10.5300603"><ele>77.80000000000001</ele><time>2026-05-03T08:29:56.135Z</time></trkpt><trkpt lat="43.9700058" lon="10.530061"><ele>78.2</ele><time>2026-05-03T08:29:57.136Z</time></trkpt><trkpt lat="43.9700992" lon="10.5300272"><ele>78.60000000000001</ele><time>2026-05-03T08:29:58.135Z</time></trkpt><trkpt lat="43.9701989" lon="10.5300106"><ele>79.0</ele><time>2026-05-03T08:29:59.136Z</time></trkpt><trkpt lat="43.9702974" lon="10.53005"><ele>79.0</ele><time>2026-05-03T08:30:00.136Z</time></trkpt><trkpt lat="43.9703797" lon="10.5301345"><ele>79.0</ele><time>2026-05-03T08:30:01.135Z</time></trkpt><trkpt lat="43.9704525" lon="10.530252"><ele>79.0</ele><time>2026-05-03T08:30:02.136Z</time></trkpt><trkpt lat="43.9705371" lon="10.5303865"><ele>79.0</ele><time>2026-05-03T08:30:03.136Z</time></trkpt><trkpt lat="43.9706352" lon="10.5305388"><ele>79.0</ele><time>2026-05-03T08:30:04.135Z</time></trkpt><trkpt lat="43.9707425" lon="10.5307085"><ele>79.0</ele><time>2026-05-03T08:30:05.136Z</time></trkpt><trkpt lat="43.9708563" lon="10.5308838"><ele>79.0</ele><time>2026-05-03T08:30:06.135Z</time></trkpt><trkpt lat="43.9709763" lon="10.5310645"><ele>79.0</ele><time>2026-05-03T08:30:07.136Z</time></trkpt><trkpt lat="43.9710917" lon="10.5312405"><ele>79.0</ele><time>2026-05-03T08:30:08.136Z</time></trkpt><trkpt lat="43.9711961" lon="10.5314068"><ele>79.0</ele><time>2026-05-03T08:30:09.136Z</time></trkpt><trkpt lat="43.971288" lon="10.5315742"><ele>79.0</ele><time>2026-05-03T08:30:10.135Z</time></trkpt><trkpt lat="43.9713692" lon="10.5317579"><ele>79.0</ele><time>2026-05-03T08:30:11.135Z</time></trkpt><trkpt lat="43.9714354" lon="10.5319522"><ele>79.0</ele><time>2026-05-03T08:30:12.135Z</time></trkpt><trkpt lat="43.9714864" lon="10.5321579"><ele>80.0</ele><time>2026-05-03T08:30:13.135Z</time></trkpt><trkpt lat="43.9715266" lon="10.5323733"><ele>81.0</ele><time>2026-05-03T08:30:14.135Z</time></trkpt><trkpt lat="43.9715517" lon="10.5326003"><ele>82.0</ele><time>2026-05-03T08:30:15.135Z</time></trkpt><trkpt lat="43.9715739" lon="10.5328379"><ele>84.33333333333333</ele><time>2026-05-03T08:30:16.135Z</time></trkpt><trkpt lat="43.9715958" lon="10.5330797"><ele>86.66666666666667</ele><time>2026-05-03T08:30:17.136Z</time></trkpt><trkpt lat="43.9716187" lon="10.5333222"><ele>89.0</ele><time>2026-05-03T08:30:18.136Z</time></trkpt><trkpt lat="43.9716368" lon="10.5335614"><ele>91.66666666666667</ele><time>2026-05-03T08:30:19.135Z</time></trkpt><trkpt lat="43.9716423" lon="10.5338017"><ele>94.33333333333334</ele><time>2026-05-03T08:30:20.135Z</time></trkpt><trkpt lat="43.9716411" lon="10.5340423"><ele>97.0</ele><time>2026-05-03T08:30:21.136Z</time></trkpt><trkpt lat="43.9716169" lon="10.5342896"><ele>97.0</ele><time>2026-05-03T08:30:22.136Z</time></trkpt><trkpt lat="43.9715925" lon="10.5345337"><ele>97.0</ele><time>2026-05-03T08:30:23.135Z</time></trkpt><trkpt lat="43.9715666" lon="10.5347852"><ele>97.0</ele><time>2026-05-03T08:30:24.136Z</time></trkpt><trkpt lat="43.9715413" lon="10.5350381"><ele>97.0</ele><time>2026-05-03T08:30:25.136Z</time></trkpt><trkpt lat="43.9715119" lon="10.5352951"><ele>97.0</ele><time>2026-05-03T08:30:26.136Z</time></trkpt><trkpt lat="43.9714744" lon="10.5355559"><ele>97.0</ele><time>2026-05-03T08:30:27.135Z</time></trkpt><trkpt lat="43.9714292" lon="10.5358249"><ele>94.33333333333334</ele><time>2026-05-03T08:30:28.135Z</time></trkpt><trkpt lat="43.9713815" lon="10.5360965"><ele>91.66666666666667</ele><time>2026-05-03T08:30:29.135Z</time></trkpt><trkpt lat="43.9713426" lon="10.536376"><ele>89.0</ele><time>2026-05-03T08:30:30.136Z</time></trkpt><trkpt lat="43.9713146" lon="10.5366529"><ele>87.0</ele><time>2026-05-03T08:30:31.136Z</time></trkpt><trkpt lat="43.9712846" lon="10.5369119"><ele>85.0</ele><time>2026-05-03T08:30:32.136Z</time></trkpt><trkpt lat="43.9712587" lon="10.5371596"><ele>83.0</ele><time>2026-05-03T08:30:33.136Z</time></trkpt><trkpt lat="43.9712337" lon="10.5373953"><ele>83.0</ele><time>2026-05-03T08:30:34.136Z</time></trkpt><trkpt lat="43.9712008" lon="10.537629"><ele>83.0</ele><time>2026-05-03T08:30:35.135Z</time></trkpt><trkpt lat="43.9711506" lon="10.5378565"><ele>83.0</ele><time>2026-05-03T08:30:36.135Z</time></trkpt><trkpt lat="43.9710873" lon="10.5380871"><ele>83.66666666666667</ele><time>2026-05-03T08:30:37.136Z</time></trkpt><trkpt lat="43.9710116" lon="10.5383167"><ele>84.33333333333333</ele><time>2026-05-03T08:30:38.135Z</time></trkpt><trkpt lat="43.9709343" lon="10.5385308"><ele>85.0</ele><time>2026-05-03T08:30:39.136Z</time></trkpt><trkpt lat="43.9708649" lon="10.5387473"><ele>87.33333333333333</ele><time>2026-05-03T08:30:40.136Z</time></trkpt><trkpt lat="43.970811" lon="10.5389705"><ele>89.66666666666667</ele><time>2026-05-03T08:30:41.136Z</time></trkpt><trkpt lat="43.9707661" lon="10.5392027"><ele>92.0</ele><time>2026-05-03T08:30:42.135Z</time></trkpt><trkpt lat="43.9707329" lon="10.5394422"><ele>91.0</ele><time>2026-05-03T08:30:43.135Z</time></trkpt><trkpt lat="43.9707066" lon="10.5396871"><ele>90.0</ele><time>2026-05-03T08:30:44.135Z</time></trkpt><trkpt lat="43.9706927" lon="10.5399362"><ele>89.0</ele><time>2026-05-03T08:30:45.136Z</time></trkpt><trkpt lat="43.9706975" lon="10.5401881"><ele>89.33333333333334</ele><time>2026-05-03T08:30:46.136Z</time></trkpt><trkpt lat="43.9707221" lon="10.5404415"><ele>89.66666666666667</ele><time>2026-05-03T08:30:47.135Z</time></trkpt><trkpt lat="43.9707637" lon="10.5406979"><ele>90.0</ele><time>2026-05-03T08:30:48.135Z</time></trkpt><trkpt lat="43.9708299" lon="10.5409509"><ele>90.0</ele><time>2026-05-03T08:30:49.135Z</time></trkpt><trkpt lat="43.9709013" lon="10.541201"><ele>90.0</ele><time>2026-05-03T08:30:50.136Z</time></trkpt><trkpt lat="43.9709705" lon="10.5414376"><ele>90.0</ele><time>2026-05-03T08:30:51.136Z</time></trkpt><trkpt lat="43.971034" lon="10.5416748"><ele>90.0</ele><time>2026-05-03T08:30:52.135Z</time></trkpt><trkpt lat="43.9710915" lon="10.541907"><ele>90.0</ele><time>2026-05-03T08:30:53.135Z</time></trkpt><trkpt lat="43.9711447" lon="10.5421355"><ele>90.0</ele><time>2026-05-03T08:30:54.135Z</time></trkpt><trkpt lat="43.971197" lon="10.542366"><ele>90.33333333333333</ele><time>2026-05-03T08:30:55.136Z</time></trkpt><trkpt lat="43.9712461" lon="10.5426005"><ele>90.66666666666666</ele><time>2026-05-03T08:30:56.135Z</time></trkpt><trkpt lat="43.9712966" lon="10.5428303"><ele>91.0</ele><time>2026-05-03T08:30:57.135Z</time></trkpt><trkpt lat="43.9713503" lon="10.5430577"><ele>91.66666666666666</ele><time>2026-05-03T08:30:58.136Z</time></trkpt><trkpt lat="43.9714198" lon="10.5432689"><ele>92.33333333333333</ele><time>2026-05-03T08:30:59.135Z</time></trkpt><trkpt lat="43.9715126" lon="10.5434721"><ele>93.0</ele><time>2026-05-03T08:31:00.136Z</time></trkpt><trkpt lat="43.9716238" lon="10.5436688"><ele>91.33333333333333</ele><time>2026-05-03T08:31:01.135Z</time></trkpt><trkpt lat="43.9717476" lon="10.5438699"><ele>89.66666666666666</ele><time>2026-05-03T08:31:02.135Z</time></trkpt><trkpt lat="43.9718789" lon="10.5440773"><ele>88.0</ele><time>2026-05-03T08:31:03.135Z</time></trkpt><trkpt lat="43.9720154" lon="10.5442906"><ele>88.0</ele><time>2026-05-03T08:31:04.135Z</time></trkpt><trkpt lat="43.9721602" lon="10.5445053"><ele>88.0</ele><time>2026-05-03T08:31:05.136Z</time></trkpt><trkpt lat="43.9723146" lon="10.5447122"><ele>88.0</ele><time>2026-05-03T08:31:06.135Z</time></trkpt><trkpt lat="43.9724809" lon="10.5449081"><ele>88.33333333333333</ele><time>2026-05-03T08:31:07.136Z</time></trkpt><trkpt lat="43.9726587" lon="10.545089"><ele>88.66666666666667</ele><time>2026-05-03T08:31:08.135Z</time></trkpt><trkpt lat="43.9728467" lon="10.5452485"><ele>89.0</ele><time>2026-05-03T08:31:09.135Z</time></trkpt><trkpt lat="43.9730462" lon="10.5453799"><ele>89.33333333333334</ele><time>2026-05-03T08:31:10.135Z</time></trkpt><trkpt lat="43.9732544" lon="10.5454893"><ele>89.66666666666667</ele><time>2026-05-03T08:31:11.136Z</time></trkpt><trkpt lat="43.9734665" lon="10.5455809"><ele>90.0</ele><time>2026-05-03T08:31:12.136Z</time></trkpt><trkpt lat="43.973679" lon="10.5456719"><ele>90.0</ele><time>2026-05-03T08:31:13.136Z</time></trkpt><trkpt lat="43.9738841" lon="10.5457695"><ele>90.0</ele><time>2026-05-03T08:31:14.136Z</time></trkpt><trkpt lat="43.9740645" lon="10.5458829"><ele>90.0</ele><time>2026-05-03T08:31:15.136Z</time></trkpt><trkpt lat="43.9742264" lon="10.5460226"><ele>88.66666666666667</ele><time>2026-05-03T08:31:16.136Z</time></trkpt><trkpt lat="43.9743752" lon="10.546202"><ele>87.33333333333334</ele><time>2026-05-03T08:31:17.136Z</time></trkpt><trkpt lat="43.9745078" lon="10.5464019"><ele>86.0</ele><time>2026-05-03T08:31:18.136Z</time></trkpt><trkpt lat="43.9746262" lon="10.5466215"><ele>86.0</ele><time>2026-05-03T08:31:19.136Z</time></trkpt><trkpt lat="43.9747349" lon="10.5468656"><ele>86.0</ele><time>2026-05-03T08:31:20.136Z</time></trkpt><trkpt lat="43.9748469" lon="10.5471134"><ele>86.0</ele><time>2026-05-03T08:31:21.136Z</time></trkpt><trkpt lat="43.9749623" lon="10.5473605"><ele>86.33333333333334</ele><time>2026-05-03T08:31:22.135Z</time></trkpt><trkpt lat="43.9750729" lon="10.5475988"><ele>86.66666666666667</ele><time>2026-05-03T08:31:23.136Z</time></trkpt><trkpt lat="43.9751859" lon="10.5478333"><ele>87.0</ele><time>2026-05-03T08:31:24.136Z</time></trkpt><trkpt lat="43.9752965" lon="10.5480691"><ele>87.0</ele><time>2026-05-03T08:31:25.135Z</time></trkpt><trkpt lat="43.9754053" lon="10.5483088"><ele>87.0</ele><time>2026-05-03T08:31:26.136Z</time></trkpt><trkpt lat="43.9755214" lon="10.548549"><ele>87.0</ele><time>2026-05-03T08:31:27.136Z</time></trkpt><trkpt lat="43.9756476" lon="10.5487847"><ele>86.33333333333333</ele><time>2026-05-03T08:31:28.135Z</time></trkpt><trkpt lat="43.9757873" lon="10.549015"><ele>85.66666666666666</ele><time>2026-05-03T08:31:29.135Z</time></trkpt><trkpt lat="43.9759351" lon="10.5492436"><ele>85.0</ele><time>2026-05-03T08:31:30.135Z</time></trkpt><trkpt lat="43.9760921" lon="10.5494661"><ele>90.0</ele><time>2026-05-03T08:31:31.135Z</time></trkpt><trkpt lat="43.9762516" lon="10.5496866"><ele>95.0</ele><time>2026-05-03T08:31:32.136Z</time></trkpt><trkpt lat="43.976417" lon="10.5499031"><ele>95.0</ele><time>2026-05-03T08:31:33.135Z</time></trkpt><trkpt lat="43.9765847" lon="10.5501188"><ele>95.0</ele><time>2026-05-03T08:31:34.135Z</time></trkpt><trkpt lat="43.9767541" lon="10.5503317"><ele>96.66666666666667</ele><time>2026-05-03T08:31:35.135Z</time></trkpt><trkpt lat="43.976919" lon="10.5505293"><ele>98.33333333333334</ele><time>2026-05-03T08:31:36.135Z</time></trkpt><trkpt lat="43.9770824" lon="10.550706"><ele>100.0</ele><time>2026-05-03T08:31:37.135Z</time></trkpt><trkpt lat="43.9772485" lon="10.550856"><ele>100.0</ele><time>2026-05-03T08:31:38.135Z</time></trkpt><trkpt lat="43.9774238" lon="10.5509817"><ele>100.0</ele><time>2026-05-03T08:31:39.135Z</time></trkpt><trkpt lat="43.9776054" lon="10.5510898"><ele>100.0</ele><time>2026-05-03T08:31:40.136Z</time></trkpt><trkpt lat="43.9777931" lon="10.5511741"><ele>102.66666666666667</ele><time>2026-05-03T08:31:41.136Z</time></trkpt><trkpt lat="43.9779887" lon="10.5512469"><ele>105.33333333333334</ele><time>2026-05-03T08:31:42.136Z</time></trkpt><trkpt lat="43.9781882" lon="10.5513109"><ele>108.0</ele><time>2026-05-03T08:31:43.136Z</time></trkpt><trkpt lat="43.9783943" lon="10.5513661"><ele>108.0</ele><time>2026-05-03T08:31:44.136Z</time></trkpt><trkpt lat="43.9786008" lon="10.5514177"><ele>108.0</ele><time>2026-05-03T08:31:45.136Z</time></trkpt><trkpt lat="43.9788077" lon="10.5514724"><ele>108.0</ele><time>2026-05-03T08:31:46.136Z</time></trkpt><trkpt lat="43.9790152" lon="10.5515343"><ele>101.33333333333333</ele><time>2026-05-03T08:31:47.135Z</time></trkpt><trkpt lat="43.9792118" lon="10.5516168"><ele>94.66666666666666</ele><time>2026-05-03T08:31:48.136Z</time></trkpt><trkpt lat="43.9793977" lon="10.5517015"><ele>88.0</ele><time>2026-05-03T08:31:49.136Z</time></trkpt><trkpt lat="43.9795788" lon="10.5517865"><ele>88.0</ele><time>2026-05-03T08:31:50.135Z</time></trkpt><trkpt lat="43.979748" lon="10.5518653"><ele>88.0</ele><time>2026-05-03T08:31:51.135Z</time></trkpt><trkpt lat="43.979909" lon="10.5519374"><ele>88.0</ele><time>2026-05-03T08:31:52.135Z</time></trkpt><trkpt lat="43.9800597" lon="10.5520168"><ele>92.33333333333333</ele><time>2026-05-03T08:31:53.136Z</time></trkpt><trkpt lat="43.9802009" lon="10.5521108"><ele>96.66666666666666</ele><time>2026-05-03T08:31:54.136Z</time></trkpt><trkpt lat="43.9803423" lon="10.5522216"><ele>101.0</ele><time>2026-05-03T08:31:55.135Z</time></trkpt><trkpt lat="43.9804849" lon="10.5523442"><ele>101.0</ele><time>2026-05-03T08:31:56.136Z</time></trkpt><trkpt lat="43.9806273" lon="10.5524705"><ele>101.0</ele><time>2026-05-03T08:31:57.136Z</time></trkpt><trkpt lat="43.9807712" lon="10.5526022"><ele>101.0</ele><time>2026-05-03T08:31:58.136Z</time></trkpt><trkpt lat="43.9809185" lon="10.552739"><ele>105.0</ele><time>2026-05-03T08:31:59.136Z</time></trkpt><trkpt lat="43.9810679" lon="10.5528762"><ele>109.0</ele><time>2026-05-03T08:32:00.136Z</time></trkpt><trkpt lat="43.9812197" lon="10.5529877"><ele>113.0</ele><time>2026-05-03T08:32:01.136Z</time></trkpt><trkpt lat="43.9813849" lon="10.5530671"><ele>113.0</ele><time>2026-05-03T08:32:02.136Z</time></trkpt><trkpt lat="43.9815567" lon="10.5531131"><ele>113.0</ele><time>2026-05-03T08:32:03.135Z</time></trkpt><trkpt lat="43.9817435" lon="10.5531437"><ele>113.0</ele><time>2026-05-03T08:32:04.135Z</time></trkpt><trkpt lat="43.9819389" lon="10.5531731"><ele>113.0</ele><time>2026-05-03T08:32:05.136Z</time></trkpt><trkpt lat="43.9821168" lon="10.5531833"><ele>113.0</ele><time>2026-05-03T08:32:06.135Z</time></trkpt><trkpt lat="43.9822923" lon="10.553182"><ele>113.0</ele><time>2026-05-03T08:32:07.136Z</time></trkpt><trkpt lat="43.982463" lon="10.5531658"><ele>112.0</ele><time>2026-05-03T08:32:08.135Z</time></trkpt><trkpt lat="43.9826357" lon="10.5531471"><ele>111.0</ele><time>2026-05-03T08:32:09.136Z</time></trkpt><trkpt lat="43.982814" lon="10.5531274"><ele>110.0</ele><time>2026-05-03T08:32:10.135Z</time></trkpt><trkpt lat="43.9829982" lon="10.5530986"><ele>110.0</ele><time>2026-05-03T08:32:11.136Z</time></trkpt><trkpt lat="43.9831916" lon="10.5530679"><ele>110.0</ele><time>2026-05-03T08:32:12.136Z</time></trkpt><trkpt lat="43.9833864" lon="10.5530419"><ele>110.0</ele><time>2026-05-03T08:32:13.135Z</time></trkpt><trkpt lat="43.983581" lon="10.5530143"><ele>111.0</ele><time>2026-05-03T08:32:14.136Z</time></trkpt><trkpt lat="43.9837791" lon="10.552989"><ele>112.0</ele><time>2026-05-03T08:32:15.136Z</time></trkpt><trkpt lat="43.9839688" lon="10.552961"><ele>113.0</ele><time>2026-05-03T08:32:16.135Z</time></trkpt><trkpt lat="43.9841512" lon="10.5529353"><ele>116.33333333333333</ele><time>2026-05-03T08:32:17.135Z</time></trkpt><trkpt lat="43.9843286" lon="10.5529145"><ele>119.66666666666666</ele><time>2026-05-03T08:32:18.136Z</time></trkpt><trkpt lat="43.9845015" lon="10.5528875"><ele>123.0</ele><time>2026-05-03T08:32:19.135Z</time></trkpt><trkpt lat="43.9846698" lon="10.5528628"><ele>118.5</ele><time>2026-05-03T08:32:20.136Z</time></trkpt><trkpt lat="43.9848315" lon="10.5528397"><ele>114.0</ele><time>2026-05-03T08:32:21.135Z</time></trkpt><trkpt lat="43.9849765" lon="10.5528199"><ele>109.5</ele><time>2026-05-03T08:32:22.135Z</time></trkpt><trkpt lat="43.9850993" lon="10.5528039"><ele>105.0</ele><time>2026-05-03T08:32:23.136Z</time></trkpt><trkpt lat="43.985211" lon="10.5527905"><ele>105.0</ele><time>2026-05-03T08:32:24.135Z</time></trkpt><trkpt lat="43.9853131" lon="10.5527846"><ele>105.0</ele><time>2026-05-03T08:32:25.135Z</time></trkpt><trkpt lat="43.9854206" lon="10.5527699"><ele>105.0</ele><time>2026-05-03T08:32:26.135Z</time></trkpt><trkpt lat="43.9855293" lon="10.5527527"><ele>105.0</ele><time>2026-05-03T08:32:27.136Z</time></trkpt><trkpt lat="43.9856386" lon="10.5527431"><ele>105.0</ele><time>2026-05-03T08:32:28.135Z</time></trkpt><trkpt lat="43.9857476" lon="10.5527412"><ele>105.8</ele><time>2026-05-03T08:32:29.135Z</time></trkpt><trkpt lat="43.985847" lon="10.5527456"><ele>106.6</ele><time>2026-05-03T08:32:30.135Z</time></trkpt><trkpt lat="43.9859458" lon="10.5527551"><ele>107.4</ele><time>2026-05-03T08:32:31.136Z</time></trkpt><trkpt lat="43.9860434" lon="10.5527729"><ele>108.2</ele><time>2026-05-03T08:32:32.136Z</time></trkpt><trkpt lat="43.986139" lon="10.5527984"><ele>109.0</ele><time>2026-05-03T08:32:33.135Z</time></trkpt><trkpt lat="43.9862293" lon="10.5528235"><ele>109.0</ele><time>2026-05-03T08:32:34.135Z</time></trkpt><trkpt lat="43.9863205" lon="10.5528524"><ele>109.0</ele><time>2026-05-03T08:32:35.136Z</time></trkpt><trkpt lat="43.9864133" lon="10.5528754"><ele>109.0</ele><time>2026-05-03T08:32:36.135Z</time></trkpt><trkpt lat="43.9865103" lon="10.5529032"><ele>109.0</ele><time>2026-05-03T08:32:37.135Z</time></trkpt><trkpt lat="43.9866123" lon="10.5529343"><ele>109.0</ele><time>2026-05-03T08:32:38.136Z</time></trkpt><trkpt lat="43.9867201" lon="10.5529634"><ele>119.0</ele><time>2026-05-03T08:32:39.135Z</time></trkpt><trkpt lat="43.9868346" lon="10.5529902"><ele>129.0</ele><time>2026-05-03T08:32:40.136Z</time></trkpt><trkpt lat="43.9869497" lon="10.553012"><ele>139.0</ele><time>2026-05-03T08:32:41.136Z</time></trkpt><trkpt lat="43.9870689" lon="10.553023"><ele>149.0</ele><time>2026-05-03T08:32:42.136Z</time></trkpt><trkpt lat="43.9871918" lon="10.5530254"><ele>149.0</ele><time>2026-05-03T08:32:43.135Z</time></trkpt><trkpt lat="43.9873321" lon="10.5530201"><ele>149.0</ele><time>2026-05-03T08:32:44.135Z</time></trkpt><trkpt lat="43.9874961" lon="10.5530111"><ele>149.0</ele><time>2026-05-03T08:32:45.136Z</time></trkpt><trkpt lat="43.9876862" lon="10.5529986"><ele>153.66666666666666</ele><time>2026-05-03T08:32:46.136Z</time></trkpt><trkpt lat="43.9878683" lon="10.552993"><ele>158.33333333333334</ele><time>2026-05-03T08:32:47.136Z</time></trkpt><trkpt lat="43.9880476" lon="10.5529914"><ele>163.0</ele><time>2026-05-03T08:32:48.135Z</time></trkpt><trkpt lat="43.9882263" lon="10.552997"><ele>159.33333333333334</ele><time>2026-05-03T08:32:49.135Z</time></trkpt><trkpt lat="43.988404" lon="10.5530023"><ele>155.66666666666666</ele><time>2026-05-03T08:32:50.135Z</time></trkpt><trkpt lat="43.9885836" lon="10.5530128"><ele>152.0</ele><time>2026-05-03T08:32:51.136Z</time></trkpt><trkpt lat="43.9887658" lon="10.5530182"><ele>152.0</ele><time>2026-05-03T08:32:52.135Z</time></trkpt><trkpt lat="43.9889486" lon="10.5530231"><ele>152.0</ele><time>2026-05-03T08:32:53.136Z</time></trkpt><trkpt lat="43.9891324" lon="10.5530261"><ele>152.0</ele><time>2026-05-03T08:32:54.136Z</time></trkpt><trkpt lat="43.9893188" lon="10.5530316"><ele>146.0</ele><time>2026-05-03T08:32:55.136Z</time></trkpt><trkpt lat="43.9895044" lon="10.5530355"><ele>140.0</ele><time>2026-05-03T08:32:56.136Z</time></trkpt><trkpt lat="43.9896868" lon="10.5530439"><ele>134.0</ele><time>2026-05-03T08:32:57.135Z</time></trkpt><trkpt lat="43.9898653" lon="10.5530578"><ele>131.66666666666666</ele><time>2026-05-03T08:32:58.135Z</time></trkpt><trkpt lat="43.9900437" lon="10.5530776"><ele>129.33333333333334</ele><time>2026-05-03T08:32:59.136Z</time></trkpt><trkpt lat="43.9902256" lon="10.5531064"><ele>127.0</ele><time>2026-05-03T08:33:00.136Z</time></trkpt><trkpt lat="43.99041" lon="10.553142"><ele>127.0</ele><time>2026-05-03T08:33:01.135Z</time></trkpt><trkpt lat="43.9905968" lon="10.553179"><ele>127.0</ele><time>2026-05-03T08:33:02.135Z</time></trkpt><trkpt lat="43.9907871" lon="10.5532178"><ele>127.0</ele><time>2026-05-03T08:33:03.135Z</time></trkpt><trkpt lat="43.9909799" lon="10.5532603"><ele>121.33333333333334</ele><time>2026-05-03T08:33:04.136Z</time></trkpt><trkpt lat="43.991178" lon="10.5533054"><ele>115.66666666666666</ele><time>2026-05-03T08:33:05.135Z</time></trkpt><trkpt lat="43.9913777" lon="10.5533507"><ele>110.0</ele><time>2026-05-03T08:33:06.136Z</time></trkpt><trkpt lat="43.9915773" lon="10.5533959"><ele>107.33333333333333</ele><time>2026-05-03T08:33:07.135Z</time></trkpt><trkpt lat="43.9917782" lon="10.5534511"><ele>104.66666666666666</ele><time>2026-05-03T08:33:08.136Z</time></trkpt><trkpt lat="43.9919806" lon="10.5535082"><ele>102.0</ele><time>2026-05-03T08:33:09.136Z</time></trkpt><trkpt lat="43.9921818" lon="10.5535702"><ele>102.0</ele><time>2026-05-03T08:33:10.135Z</time></trkpt><trkpt lat="43.9923796" lon="10.5536416"><ele>102.0</ele><time>2026-05-03T08:33:11.135Z</time></trkpt><trkpt lat="43.9925738" lon="10.5537234"><ele>102.0</ele><time>2026-05-03T08:33:12.135Z</time></trkpt><trkpt lat="43.9927535" lon="10.5538128"><ele>102.66666666666666</ele><time>2026-05-03T08:33:13.136Z</time></trkpt><trkpt lat="43.9929242" lon="10.5539181"><ele>103.33333333333333</ele><time>2026-05-03T08:33:14.135Z</time></trkpt><trkpt lat="43.993087" lon="10.5540514"><ele>104.0</ele><time>2026-05-03T08:33:15.136Z</time></trkpt><trkpt lat="43.9932424" lon="10.5542016"><ele>105.0</ele><time>2026-05-03T08:33:16.135Z</time></trkpt><trkpt lat="43.9933984" lon="10.5543662"><ele>106.0</ele><time>2026-05-03T08:33:17.135Z</time></trkpt><trkpt lat="43.9935608" lon="10.5545433"><ele>107.0</ele><time>2026-05-03T08:33:18.135Z</time></trkpt><trkpt lat="43.993738" lon="10.5547165"><ele>107.0</ele><time>2026-05-03T08:33:19.136Z</time></trkpt><trkpt lat="43.9939157" lon="10.5548758"><ele>107.0</ele><time>2026-05-03T08:33:20.135Z</time></trkpt><trkpt lat="43.9940886" lon="10.5550108"><ele>107.0</ele><time>2026-05-03T08:33:21.135Z</time></trkpt><trkpt lat="43.9942583" lon="10.5551282"><ele>106.66666666666666</ele><time>2026-05-03T08:33:22.135Z</time></trkpt><trkpt lat="43.9944242" lon="10.5552505"><ele>106.33333333333334</ele><time>2026-05-03T08:33:23.136Z</time></trkpt><trkpt lat="43.9945828" lon="10.5553881"><ele>106.0</ele><time>2026-05-03T08:33:24.135Z</time></trkpt><trkpt lat="43.9947326" lon="10.5555392"><ele>106.0</ele><time>2026-05-03T08:33:25.136Z</time></trkpt><trkpt lat="43.9948748" lon="10.5557051"><ele>106.0</ele><time>2026-05-03T08:33:26.135Z</time></trkpt><trkpt lat="43.995018" lon="10.555872"><ele>106.0</ele><time>2026-05-03T08:33:27.135Z</time></trkpt><trkpt lat="43.9951698" lon="10.5560243"><ele>104.33333333333334</ele><time>2026-05-03T08:33:28.135Z</time></trkpt><trkpt lat="43.9953413" lon="10.5561445"><ele>102.66666666666666</ele><time>2026-05-03T08:33:29.136Z</time></trkpt><trkpt lat="43.9955201" lon="10.5562381"><ele>101.0</ele><time>2026-05-03T08:33:30.136Z</time></trkpt><trkpt lat="43.9956958" lon="10.5563139"><ele>102.66666666666666</ele><time>2026-05-03T08:33:31.136Z</time></trkpt><trkpt lat="43.9958663" lon="10.5563867"><ele>104.33333333333334</ele><time>2026-05-03T08:33:32.136Z</time></trkpt><trkpt lat="43.9960362" lon="10.5564442"><ele>106.0</ele><time>2026-05-03T08:33:33.136Z</time></trkpt><trkpt lat="43.9961991" lon="10.5565005"><ele>106.0</ele><time>2026-05-03T08:33:34.136Z</time></trkpt><trkpt lat="43.9963629" lon="10.5565671"><ele>106.0</ele><time>2026-05-03T08:33:35.136Z</time></trkpt><trkpt lat="43.9965272" lon="10.5566397"><ele>106.0</ele><time>2026-05-03T08:33:36.135Z</time></trkpt><trkpt lat="43.9966926" lon="10.5567194"><ele>106.0</ele><time>2026-05-03T08:33:37.135Z</time></trkpt><trkpt lat="43.9968583" lon="10.5567977"><ele>106.0</ele><time>2026-05-03T08:33:38.135Z</time></trkpt><trkpt lat="43.9970158" lon="10.556872"><ele>106.0</ele><time>2026-05-03T08:33:39.135Z</time></trkpt><trkpt lat="43.9971724" lon="10.5569498"><ele>106.0</ele><time>2026-05-03T08:33:40.135Z</time></trkpt><trkpt lat="43.9973219" lon="10.5570425"><ele>106.0</ele><time>2026-05-03T08:33:41.135Z</time></trkpt><trkpt lat="43.9974669" lon="10.5571472"><ele>106.0</ele><time>2026-05-03T08:33:42.135Z</time></trkpt><trkpt lat="43.9975986" lon="10.5572431"><ele>106.0</ele><time>2026-05-03T08:33:43.136Z</time></trkpt><trkpt lat="43.9977204" lon="10.5573304"><ele>106.0</ele><time>2026-05-03T08:33:44.135Z</time></trkpt><trkpt lat="43.9978457" lon="10.5574173"><ele>106.0</ele><time>2026-05-03T08:33:45.135Z</time></trkpt><trkpt lat="43.9979758" lon="10.5575051"><ele>106.0</ele><time>2026-05-03T08:33:46.136Z</time></trkpt><trkpt lat="43.9981072" lon="10.5575983"><ele>106.0</ele><time>2026-05-03T08:33:47.136Z</time></trkpt><trkpt lat="43.9982441" lon="10.5576986"><ele>106.0</ele><time>2026-05-03T08:33:48.136Z</time></trkpt><trkpt lat="43.9983848" lon="10.5577978"><ele>106.0</ele><time>2026-05-03T08:33:49.136Z</time></trkpt><trkpt lat="43.9985301" lon="10.5579007"><ele>107.33333333333334</ele><time>2026-05-03T08:33:50.136Z</time></trkpt><trkpt lat="43.9986761" lon="10.5580033"><ele>108.66666666666666</ele><time>2026-05-03T08:33:51.136Z</time></trkpt><trkpt lat="43.998818" lon="10.5581062"><ele>110.0</ele><time>2026-05-03T08:33:52.136Z</time></trkpt><trkpt lat="43.9989617" lon="10.5582131"><ele>110.0</ele><time>2026-05-03T08:33:53.136Z</time></trkpt><trkpt lat="43.9991074" lon="10.5583144"><ele>110.0</ele><time>2026-05-03T08:33:54.136Z</time></trkpt><trkpt lat="43.9992525" lon="10.5584162"><ele>110.0</ele><time>2026-05-03T08:33:55.136Z</time></trkpt><trkpt lat="43.9993998" lon="10.5585217"><ele>110.33333333333333</ele><time>2026-05-03T08:33:56.135Z</time></trkpt><trkpt lat="43.9995493" lon="10.5586306"><ele>110.66666666666666</ele><time>2026-05-03T08:33:57.135Z</time></trkpt><trkpt lat="43.9997016" lon="10.5587463"><ele>111.0</ele><time>2026-05-03T08:33:58.135Z</time></trkpt><trkpt lat="43.999857" lon="10.5588601"><ele>111.0</ele><time>2026-05-03T08:33:59.136Z</time></trkpt><trkpt lat="44.0000109" lon="10.5589705"><ele>111.0</ele><time>2026-05-03T08:34:00.135Z</time></trkpt><trkpt lat="44.0001576" lon="10.5590733"><ele>111.0</ele><time>2026-05-03T08:34:01.136Z</time></trkpt><trkpt lat="44.0003084" lon="10.5591788"><ele>111.0</ele><time>2026-05-03T08:34:02.136Z</time></trkpt><trkpt lat="44.0004588" lon="10.559288"><ele>111.0</ele><time>2026-05-03T08:34:03.136Z</time></trkpt><trkpt lat="44.0006156" lon="10.5594019"><ele>111.0</ele><time>2026-05-03T08:34:04.136Z</time></trkpt><trkpt lat="44.0007817" lon="10.5595158"><ele>112.66666666666666</ele><time>2026-05-03T08:34:05.135Z</time></trkpt><trkpt lat="44.0009415" lon="10.5596284"><ele>114.33333333333333</ele><time>2026-05-03T08:34:06.135Z</time></trkpt><trkpt lat="44.0010972" lon="10.5597404"><ele>116.0</ele><time>2026-05-03T08:34:07.136Z</time></trkpt><trkpt lat="44.0012324" lon="10.5598356"><ele>116.0</ele><time>2026-05-03T08:34:08.135Z</time></trkpt><trkpt lat="44.0013678" lon="10.559932"><ele>116.0</ele><time>2026-05-03T08:34:09.135Z</time></trkpt><trkpt lat="44.0014959" lon="10.5600234"><ele>116.0</ele><time>2026-05-03T08:34:10.136Z</time></trkpt><trkpt lat="44.0016311" lon="10.5601208"><ele>116.0</ele><time>2026-05-03T08:34:11.135Z</time></trkpt><trkpt lat="44.001775" lon="10.560223"><ele>115.33333333333333</ele><time>2026-05-03T08:34:12.135Z</time></trkpt><trkpt lat="44.0019162" lon="10.5603226"><ele>114.66666666666666</ele><time>2026-05-03T08:34:13.136Z</time></trkpt><trkpt lat="44.0020507" lon="10.5604183"><ele>114.0</ele><time>2026-05-03T08:34:14.136Z</time></trkpt><trkpt lat="44.0021833" lon="10.5605124"><ele>115.75</ele><time>2026-05-03T08:34:15.135Z</time></trkpt><trkpt lat="44.002302" lon="10.5606091"><ele>117.5</ele><time>2026-05-03T08:34:16.136Z</time></trkpt><trkpt lat="44.0024153" lon="10.5607111"><ele>119.25</ele><time>2026-05-03T08:34:17.135Z</time></trkpt><trkpt lat="44.0025301" lon="10.5608208"><ele>121.0</ele><time>2026-05-03T08:34:18.135Z</time></trkpt><trkpt lat="44.0026469" lon="10.5609305"><ele>121.0</ele><time>2026-05-03T08:34:19.136Z</time></trkpt><trkpt lat="44.0027677" lon="10.5610449"><ele>121.0</ele><time>2026-05-03T08:34:20.136Z</time></trkpt><trkpt lat="44.0028939" lon="10.5611627"><ele>121.0</ele><time>2026-05-03T08:34:21.135Z</time></trkpt><trkpt lat="44.0030203" lon="10.5612911"><ele>122.0</ele><time>2026-05-03T08:34:22.136Z</time></trkpt><trkpt lat="44.0031434" lon="10.5614222"><ele>123.0</ele><time>2026-05-03T08:34:23.136Z</time></trkpt><trkpt lat="44.0032456" lon="10.5615333"><ele>124.0</ele><time>2026-05-03T08:34:24.136Z</time></trkpt><trkpt lat="44.0033288" lon="10.5616274"><ele>125.0</ele><time>2026-05-03T08:34:25.135Z</time></trkpt><trkpt lat="44.0034051" lon="10.5617127"><ele>125.0</ele><time>2026-05-03T08:34:26.136Z</time></trkpt><trkpt lat="44.0034812" lon="10.5618012"><ele>125.0</ele><time>2026-05-03T08:34:27.135Z</time></trkpt><trkpt lat="44.003558" lon="10.56189"><ele>125.0</ele><time>2026-05-03T08:34:28.135Z</time></trkpt><trkpt lat="44.0036356" lon="10.5619799"><ele>125.0</ele><time>2026-05-03T08:34:29.135Z</time></trkpt><trkpt lat="44.003719" lon="10.5620722"><ele>125.0</ele><time>2026-05-03T08:34:30.135Z</time></trkpt><trkpt lat="44.003811" lon="10.5621736"><ele>122.5</ele><time>2026-05-03T08:34:31.135Z</time></trkpt><trkpt lat="44.00391" lon="10.5622849"><ele>120.0</ele><time>2026-05-03T08:34:32.136Z</time></trkpt><trkpt lat="44.0040179" lon="10.5624131"><ele>117.5</ele><time>2026-05-03T08:34:33.135Z</time></trkpt><trkpt lat="44.0041447" lon="10.5625546"><ele>115.0</ele><time>2026-05-03T08:34:34.136Z</time></trkpt><trkpt lat="44.0042694" lon="10.5626958"><ele>115.0</ele><time>2026-05-03T08:34:35.136Z</time></trkpt><trkpt lat="44.0044094" lon="10.5628308"><ele>115.0</ele><time>2026-05-03T08:34:36.135Z</time></trkpt><trkpt lat="44.0045513" lon="10.5629763"><ele>115.0</ele><time>2026-05-03T08:34:37.135Z</time></trkpt><trkpt lat="44.0047017" lon="10.5631269"><ele>115.0</ele><time>2026-05-03T08:34:38.136Z</time></trkpt><trkpt lat="44.0048518" lon="10.5632902"><ele>115.0</ele><time>2026-05-03T08:34:39.135Z</time></trkpt><trkpt lat="44.0050001" lon="10.5634658"><ele>115.0</ele><time>2026-05-03T08:34:40.136Z</time></trkpt><trkpt lat="44.0051538" lon="10.5636469"><ele>118.33333333333334</ele><time>2026-05-03T08:34:41.136Z</time></trkpt><trkpt lat="44.0053158" lon="10.5638316"><ele>121.66666666666666</ele><time>2026-05-03T08:34:42.136Z</time></trkpt><trkpt lat="44.0054847" lon="10.5640189"><ele>125.0</ele><time>2026-05-03T08:34:43.135Z</time></trkpt><trkpt lat="44.0056519" lon="10.5642057"><ele>125.0</ele><time>2026-05-03T08:34:44.136Z</time></trkpt><trkpt lat="44.0058165" lon="10.5643889"><ele>125.0</ele><time>2026-05-03T08:34:45.135Z</time></trkpt><trkpt lat="44.0059675" lon="10.5645575"><ele>125.0</ele><time>2026-05-03T08:34:46.136Z</time></trkpt><trkpt lat="44.0061097" lon="10.5647105"><ele>124.0</ele><time>2026-05-03T08:34:47.136Z</time></trkpt><trkpt lat="44.0062413" lon="10.5648547"><ele>123.0</ele><time>2026-05-03T08:34:48.135Z</time></trkpt><trkpt lat="44.0063665" lon="10.5649948"><ele>122.0</ele><time>2026-05-03T08:34:49.136Z</time></trkpt><trkpt lat="44.0064929" lon="10.5651344"><ele>122.0</ele><time>2026-05-03T08:34:50.135Z</time></trkpt><trkpt lat="44.0066166" lon="10.5652781"><ele>122.0</ele><time>2026-05-03T08:34:51.135Z</time></trkpt><trkpt lat="44.0067273" lon="10.5654446"><ele>122.0</ele><time>2026-05-03T08:34:52.135Z</time></trkpt><trkpt lat="44.0068235" lon="10.5656339"><ele>120.33333333333333</ele><time>2026-05-03T08:34:53.135Z</time></trkpt><trkpt lat="44.0069232" lon="10.5658442"><ele>118.66666666666666</ele><time>2026-05-03T08:34:54.136Z</time></trkpt><trkpt lat="44.0070159" lon="10.5660651"><ele>117.0</ele><time>2026-05-03T08:34:55.135Z</time></trkpt><trkpt lat="44.0071123" lon="10.5662924"><ele>120.66666666666666</ele><time>2026-05-03T08:34:56.135Z</time></trkpt><trkpt lat="44.0072106" lon="10.5665213"><ele>124.33333333333333</ele><time>2026-05-03T08:34:57.136Z</time></trkpt><trkpt lat="44.007312" lon="10.5667571"><ele>128.0</ele><time>2026-05-03T08:34:58.136Z</time></trkpt><trkpt lat="44.007414" lon="10.5669964"><ele>126.66666666666666</ele><time>2026-05-03T08:34:59.136Z</time></trkpt><trkpt lat="44.0075157" lon="10.5672368"><ele>125.33333333333334</ele><time>2026-05-03T08:35:00.136Z</time></trkpt><trkpt lat="44.0076177" lon="10.5674799"><ele>124.0</ele><time>2026-05-03T08:35:01.135Z</time></trkpt><trkpt lat="44.0077129" lon="10.5677095"><ele>131.33333333333334</ele><time>2026-05-03T08:35:02.135Z</time></trkpt><trkpt lat="44.007801" lon="10.567926"><ele>138.66666666666666</ele><time>2026-05-03T08:35:03.135Z</time></trkpt><trkpt lat="44.0078876" lon="10.5681272"><ele>146.0</ele><time>2026-05-03T08:35:04.135Z</time></trkpt><trkpt lat="44.0079725" lon="10.5683326"><ele>146.0</ele><time>2026-05-03T08:35:05.136Z</time></trkpt><trkpt lat="44.0080569" lon="10.5685393"><ele>146.0</ele><time>2026-05-03T08:35:06.135Z</time></trkpt><trkpt lat="44.0081339" lon="10.5687585"><ele>146.0</ele><time>2026-05-03T08:35:07.136Z</time></trkpt><trkpt lat="44.008189" lon="10.5689848"><ele>143.33333333333331</ele><time>2026-05-03T08:35:08.135Z</time></trkpt><trkpt lat="44.0082524" lon="10.5692175"><ele>140.66666666666666</ele><time>2026-05-03T08:35:09.136Z</time></trkpt><trkpt lat="44.0083146" lon="10.5694727"><ele>138.0</ele><time>2026-05-03T08:35:10.135Z</time></trkpt><trkpt lat="44.0083763" lon="10.5697285"><ele>138.0</ele><time>2026-05-03T08:35:11.136Z</time></trkpt><trkpt lat="44.0084387" lon="10.5699894"><ele>138.0</ele><time>2026-05-03T08:35:12.135Z</time></trkpt><trkpt lat="44.0085058" lon="10.5702557"><ele>138.0</ele><time>2026-05-03T08:35:13.135Z</time></trkpt><trkpt lat="44.0085799" lon="10.5705173"><ele>141.0</ele><time>2026-05-03T08:35:14.136Z</time></trkpt><trkpt lat="44.0086677" lon="10.5707806"><ele>144.0</ele><time>2026-05-03T08:35:15.136Z</time></trkpt><trkpt lat="44.0087225" lon="10.5710114"><ele>147.0</ele><time>2026-05-03T08:35:16.136Z</time></trkpt><trkpt lat="44.0087737" lon="10.5712561"><ele>151.33333333333334</ele><time>2026-05-03T08:35:17.135Z</time></trkpt><trkpt lat="44.0088003" lon="10.5715003"><ele>155.66666666666669</ele><time>2026-05-03T08:35:18.135Z</time></trkpt><trkpt lat="44.0088118" lon="10.5717515"><ele>160.0</ele><time>2026-05-03T08:35:19.135Z</time></trkpt><trkpt lat="44.0088146" lon="10.5720132"><ele>162.0</ele><time>2026-05-03T08:35:20.135Z</time></trkpt><trkpt lat="44.0088145" lon="10.5722832"><ele>164.0</ele><time>2026-05-03T08:35:21.135Z</time></trkpt><trkpt lat="44.0088173" lon="10.572561"><ele>166.0</ele><time>2026-05-03T08:35:22.135Z</time></trkpt><trkpt lat="44.0088279" lon="10.5728396"><ele>166.33333333333334</ele><time>2026-05-03T08:35:23.136Z</time></trkpt><trkpt lat="44.0088592" lon="10.5731206"><ele>166.66666666666666</ele><time>2026-05-03T08:35:24.136Z</time></trkpt><trkpt lat="44.0088869" lon="10.5734014"><ele>167.0</ele><time>2026-05-03T08:35:25.136Z</time></trkpt><trkpt lat="44.0089315" lon="10.5736813"><ele>167.66666666666666</ele><time>2026-05-03T08:35:26.135Z</time></trkpt><trkpt lat="44.0089671" lon="10.5739613"><ele>168.33333333333334</ele><time>2026-05-03T08:35:27.135Z</time></trkpt><trkpt lat="44.0089986" lon="10.5742305"><ele>169.0</ele><time>2026-05-03T08:35:28.136Z</time></trkpt><trkpt lat="44.0090238" lon="10.5744794"><ele>168.66666666666669</ele><time>2026-05-03T08:35:29.135Z</time></trkpt><trkpt lat="44.009049" lon="10.5747127"><ele>168.33333333333334</ele><time>2026-05-03T08:35:30.136Z</time></trkpt><trkpt lat="44.0090766" lon="10.5749334"><ele>168.0</ele><time>2026-05-03T08:35:31.135Z</time></trkpt><trkpt lat="44.0091037" lon="10.5751469"><ele>169.66666666666666</ele><time>2026-05-03T08:35:32.135Z</time></trkpt><trkpt lat="44.0091241" lon="10.5753698"><ele>171.33333333333331</ele><time>2026-05-03T08:35:33.135Z</time></trkpt><trkpt lat="44.009151" lon="10.5755903"><ele>173.0</ele><time>2026-05-03T08:35:34.135Z</time></trkpt><trkpt lat="44.0091856" lon="10.5758164"><ele>162.0</ele><time>2026-05-03T08:35:35.136Z</time></trkpt><trkpt lat="44.0092149" lon="10.5760437"><ele>151.0</ele><time>2026-05-03T08:35:36.136Z</time></trkpt><trkpt lat="44.009237" lon="10.5762712"><ele>140.0</ele><time>2026-05-03T08:35:37.136Z</time></trkpt><trkpt lat="44.0092625" lon="10.576495"><ele>140.0</ele><time>2026-05-03T08:35:38.136Z</time></trkpt><trkpt lat="44.0092959" lon="10.5767191"><ele>140.0</ele><time>2026-05-03T08:35:39.135Z</time></trkpt><trkpt lat="44.0093426" lon="10.5769371"><ele>140.0</ele><time>2026-05-03T08:35:40.135Z</time></trkpt><trkpt lat="44.0093955" lon="10.5771386"><ele>140.25</ele><time>2026-05-03T08:35:41.136Z</time></trkpt><trkpt lat="44.0094454" lon="10.577331"><ele>140.5</ele><time>2026-05-03T08:35:42.136Z</time></trkpt><trkpt lat="44.0094797" lon="10.577517"><ele>140.75</ele><time>2026-05-03T08:35:43.136Z</time></trkpt><trkpt lat="44.0095007" lon="10.5776777"><ele>141.0</ele><time>2026-05-03T08:35:44.135Z</time></trkpt><trkpt lat="44.0094938" lon="10.5778252"><ele>139.6</ele><time>2026-05-03T08:35:45.136Z</time></trkpt><trkpt lat="44.0094573" lon="10.5779649"><ele>138.2</ele><time>2026-05-03T08:35:46.136Z</time></trkpt><trkpt lat="44.0093938" lon="10.5780636"><ele>136.8</ele><time>2026-05-03T08:35:47.136Z</time></trkpt><trkpt lat="44.0093013" lon="10.578136"><ele>135.4</ele><time>2026-05-03T08:35:48.135Z</time></trkpt><trkpt lat="44.0091903" lon="10.5781891"><ele>134.0</ele><time>2026-05-03T08:35:49.135Z</time></trkpt><trkpt lat="44.0090701" lon="10.5782212"><ele>134.0</ele><time>2026-05-03T08:35:50.136Z</time></trkpt><trkpt lat="44.0089413" lon="10.5782622"><ele>134.0</ele><time>2026-05-03T08:35:51.135Z</time></trkpt><trkpt lat="44.0088243" lon="10.5782934"><ele>134.0</ele><time>2026-05-03T08:35:52.135Z</time></trkpt><trkpt lat="44.0087116" lon="10.5783203"><ele>134.0</ele><time>2026-05-03T08:35:53.136Z</time></trkpt><trkpt lat="44.0086004" lon="10.5783513"><ele>134.0</ele><time>2026-05-03T08:35:54.136Z</time></trkpt><trkpt lat="44.0084914" lon="10.5783765"><ele>134.0</ele><time>2026-05-03T08:35:55.135Z</time></trkpt><trkpt lat="44.0083836" lon="10.5784016"><ele>134.0</ele><time>2026-05-03T08:35:56.136Z</time></trkpt><trkpt lat="44.0082797" lon="10.5783704"><ele>134.0</ele><time>2026-05-03T08:35:57.135Z</time></trkpt><trkpt lat="44.008178" lon="10.5783632"><ele>134.0</ele><time>2026-05-03T08:35:58.135Z</time></trkpt><trkpt lat="44.0080643" lon="10.5783436"><ele>137.33333333333331</ele><time>2026-05-03T08:35:59.135Z</time></trkpt><trkpt lat="44.0078881" lon="10.57837"><ele>140.66666666666666</ele><time>2026-05-03T08:36:00.136Z</time></trkpt><trkpt lat="44.007721" lon="10.5783495"><ele>144.0</ele><time>2026-05-03T08:36:01.135Z</time></trkpt><trkpt lat="44.0075717" lon="10.5783206"><ele>141.0</ele><time>2026-05-03T08:36:02.135Z</time></trkpt><trkpt lat="44.0074107" lon="10.5783126"><ele>138.0</ele><time>2026-05-03T08:36:03.136Z</time></trkpt><trkpt lat="44.0072493" lon="10.5782955"><ele>135.0</ele><time>2026-05-03T08:36:04.136Z</time></trkpt><trkpt lat="44.0070804" lon="10.5782829"><ele>135.0</ele><time>2026-05-03T08:36:05.136Z</time></trkpt><trkpt lat="44.0069099" lon="10.5782637"><ele>135.0</ele><time>2026-05-03T08:36:06.136Z</time></trkpt><trkpt lat="44.0067373" lon="10.5782442"><ele>135.0</ele><time>2026-05-03T08:36:07.136Z</time></trkpt><trkpt lat="44.0065595" lon="10.5782356"><ele>132.0</ele><time>2026-05-03T08:36:08.136Z</time></trkpt><trkpt lat="44.0063797" lon="10.5782255"><ele>129.0</ele><time>2026-05-03T08:36:09.135Z</time></trkpt><trkpt lat="44.0061949" lon="10.5782141"><ele>126.0</ele><time>2026-05-03T08:36:10.136Z</time></trkpt><trkpt lat="44.0060063" lon="10.5782054"><ele>126.33333333333334</ele><time>2026-05-03T08:36:11.135Z</time></trkpt><trkpt lat="44.0058175" lon="10.5781936"><ele>126.66666666666667</ele><time>2026-05-03T08:36:12.135Z</time></trkpt><trkpt lat="44.0056289" lon="10.5781818"><ele>127.0</ele><time>2026-05-03T08:36:13.135Z</time></trkpt><trkpt lat="44.0054525" lon="10.5781684"><ele>127.0</ele><time>2026-05-03T08:36:14.135Z</time></trkpt><trkpt lat="44.0052856" lon="10.5781555"><ele>127.0</ele><time>2026-05-03T08:36:15.135Z</time></trkpt><trkpt lat="44.0051258" lon="10.5781382"><ele>127.0</ele><time>2026-05-03T08:36:16.135Z</time></trkpt><trkpt lat="44.0049691" lon="10.5781193"><ele>133.0</ele><time>2026-05-03T08:36:17.136Z</time></trkpt><trkpt lat="44.0048108" lon="10.5781186"><ele>139.0</ele><time>2026-05-03T08:36:18.135Z</time></trkpt><trkpt lat="44.0046607" lon="10.5781297"><ele>145.0</ele><time>2026-05-03T08:36:19.136Z</time></trkpt><trkpt lat="44.004522" lon="10.5781699"><ele>145.0</ele><time>2026-05-03T08:36:20.136Z</time></trkpt><trkpt lat="44.0043947" lon="10.5782421"><ele>145.0</ele><time>2026-05-03T08:36:21.135Z</time></trkpt><trkpt lat="44.0042695" lon="10.5783441"><ele>145.0</ele><time>2026-05-03T08:36:22.135Z</time></trkpt><trkpt lat="44.0041488" lon="10.5784742"><ele>145.0</ele><time>2026-05-03T08:36:23.135Z</time></trkpt><trkpt lat="44.0040226" lon="10.578631"><ele>145.66666666666669</ele><time>2026-05-03T08:36:24.135Z</time></trkpt><trkpt lat="44.0038912" lon="10.578814"><ele>146.33333333333334</ele><time>2026-05-03T08:36:25.135Z</time></trkpt><trkpt lat="44.003765" lon="10.5790003"><ele>147.0</ele><time>2026-05-03T08:36:26.136Z</time></trkpt><trkpt lat="44.0036516" lon="10.5791801"><ele>147.0</ele><time>2026-05-03T08:36:27.136Z</time></trkpt><trkpt lat="44.003539" lon="10.5793636"><ele>147.0</ele><time>2026-05-03T08:36:28.135Z</time></trkpt><trkpt lat="44.0034363" lon="10.5795424"><ele>147.0</ele><time>2026-05-03T08:36:29.136Z</time></trkpt><trkpt lat="44.0033376" lon="10.5797103"><ele>146.0</ele><time>2026-05-03T08:36:30.136Z</time></trkpt><trkpt lat="44.0032395" lon="10.5798794"><ele>145.0</ele><time>2026-05-03T08:36:31.136Z</time></trkpt><trkpt lat="44.0031536" lon="10.5800541"><ele>144.0</ele><time>2026-05-03T08:36:32.135Z</time></trkpt><trkpt lat="44.0030866" lon="10.5802467"><ele>145.33333333333334</ele><time>2026-05-03T08:36:33.135Z</time></trkpt><trkpt lat="44.0030373" lon="10.5804557"><ele>146.66666666666669</ele><time>2026-05-03T08:36:34.136Z</time></trkpt><trkpt lat="44.0030164" lon="10.5806749"><ele>148.0</ele><time>2026-05-03T08:36:35.135Z</time></trkpt><trkpt lat="44.0030215" lon="10.5809005"><ele>148.0</ele><time>2026-05-03T08:36:36.135Z</time></trkpt><trkpt lat="44.0030439" lon="10.5811351"><ele>148.0</ele><time>2026-05-03T08:36:37.135Z</time></trkpt><trkpt lat="44.0030728" lon="10.5813813"><ele>148.0</ele><time>2026-05-03T08:36:38.135Z</time></trkpt><trkpt lat="44.0031071" lon="10.5816338"><ele>152.66666666666669</ele><time>2026-05-03T08:36:39.136Z</time></trkpt><trkpt lat="44.0031454" lon="10.5818943"><ele>157.33333333333334</ele><time>2026-05-03T08:36:40.135Z</time></trkpt><trkpt lat="44.0031905" lon="10.5821624"><ele>162.0</ele><time>2026-05-03T08:36:41.135Z</time></trkpt><trkpt lat="44.0032428" lon="10.5824332"><ele>158.33333333333334</ele><time>2026-05-03T08:36:42.136Z</time></trkpt><trkpt lat="44.0033038" lon="10.5827019"><ele>154.66666666666669</ele><time>2026-05-03T08:36:43.135Z</time></trkpt><trkpt lat="44.0033737" lon="10.5829666"><ele>151.0</ele><time>2026-05-03T08:36:44.135Z</time></trkpt><trkpt lat="44.0034512" lon="10.5832302"><ele>151.0</ele><time>2026-05-03T08:36:45.135Z</time></trkpt><trkpt lat="44.003536" lon="10.583489"><ele>151.0</ele><time>2026-05-03T08:36:46.135Z</time></trkpt><trkpt lat="44.0036248" lon="10.583742"><ele>151.0</ele><time>2026-05-03T08:36:47.136Z</time></trkpt><trkpt lat="44.0037134" lon="10.5839761"><ele>158.0</ele><time>2026-05-03T08:36:48.136Z</time></trkpt><trkpt lat="44.0038044" lon="10.5842096"><ele>165.0</ele><time>2026-05-03T08:36:49.136Z</time></trkpt><trkpt lat="44.0038964" lon="10.5844381"><ele>172.0</ele><time>2026-05-03T08:36:50.136Z</time></trkpt><trkpt lat="44.0039863" lon="10.5846719"><ele>177.33333333333334</ele><time>2026-05-03T08:36:51.136Z</time></trkpt><trkpt lat="44.0040774" lon="10.5849041"><ele>182.66666666666666</ele><time>2026-05-03T08:36:52.135Z</time></trkpt><trkpt lat="44.0041703" lon="10.5851395"><ele>188.0</ele><time>2026-05-03T08:36:53.135Z</time></trkpt><trkpt lat="44.0042615" lon="10.5853775"><ele>175.66666666666666</ele><time>2026-05-03T08:36:54.136Z</time></trkpt><trkpt lat="44.0043581" lon="10.5856178"><ele>163.33333333333334</ele><time>2026-05-03T08:36:55.135Z</time></trkpt><trkpt lat="44.0044516" lon="10.5858539"><ele>151.0</ele><time>2026-05-03T08:36:56.135Z</time></trkpt><trkpt lat="44.0045425" lon="10.5860738"><ele>155.33333333333334</ele><time>2026-05-03T08:36:57.136Z</time></trkpt><trkpt lat="44.0046327" lon="10.5862783"><ele>159.66666666666666</ele><time>2026-05-03T08:36:58.136Z</time></trkpt><trkpt lat="44.0047303" lon="10.5864725"><ele>164.0</ele><time>2026-05-03T08:36:59.135Z</time></trkpt><trkpt lat="44.0048374" lon="10.5866597"><ele>164.0</ele><time>2026-05-03T08:37:00.136Z</time></trkpt><trkpt lat="44.0049416" lon="10.5868452"><ele>164.0</ele><time>2026-05-03T08:37:01.135Z</time></trkpt><trkpt lat="44.0050425" lon="10.587033"><ele>164.0</ele><time>2026-05-03T08:37:02.135Z</time></trkpt><trkpt lat="44.0051453" lon="10.5872187"><ele>158.0</ele><time>2026-05-03T08:37:03.135Z</time></trkpt><trkpt lat="44.0052498" lon="10.5874046"><ele>152.0</ele><time>2026-05-03T08:37:04.136Z</time></trkpt><trkpt lat="44.0053517" lon="10.5875908"><ele>146.0</ele><time>2026-05-03T08:37:05.135Z</time></trkpt><trkpt lat="44.0054544" lon="10.5877771"><ele>149.0</ele><time>2026-05-03T08:37:06.136Z</time></trkpt><trkpt lat="44.0055585" lon="10.5879676"><ele>152.0</ele><time>2026-05-03T08:37:07.135Z</time></trkpt><trkpt lat="44.005666" lon="10.5881632"><ele>155.0</ele><time>2026-05-03T08:37:08.135Z</time></trkpt><trkpt lat="44.0057866" lon="10.5883694"><ele>152.66666666666666</ele><time>2026-05-03T08:37:09.135Z</time></trkpt><trkpt lat="44.0059032" lon="10.5885625"><ele>150.33333333333334</ele><time>2026-05-03T08:37:10.135Z</time></trkpt><trkpt lat="44.0060327" lon="10.588747"><ele>148.0</ele><time>2026-05-03T08:37:11.135Z</time></trkpt><trkpt lat="44.0061753" lon="10.5889152"><ele>148.0</ele><time>2026-05-03T08:37:12.135Z</time></trkpt><trkpt lat="44.0063238" lon="10.5890728"><ele>148.0</ele><time>2026-05-03T08:37:13.136Z</time></trkpt><trkpt lat="44.0064658" lon="10.5892231"><ele>148.0</ele><time>2026-05-03T08:37:14.136Z</time></trkpt><trkpt lat="44.0066055" lon="10.5893698"><ele>149.33333333333334</ele><time>2026-05-03T08:37:15.135Z</time></trkpt><trkpt lat="44.0067446" lon="10.5895169"><ele>150.66666666666666</ele><time>2026-05-03T08:37:16.136Z</time></trkpt><trkpt lat="44.0068888" lon="10.5896657"><ele>152.0</ele><time>2026-05-03T08:37:17.135Z</time></trkpt><trkpt lat="44.0070266" lon="10.5898148"><ele>152.0</ele><time>2026-05-03T08:37:18.135Z</time></trkpt><trkpt lat="44.0071678" lon="10.5899607"><ele>152.0</ele><time>2026-05-03T08:37:19.136Z</time></trkpt><trkpt lat="44.0073103" lon="10.5901082"><ele>152.0</ele><time>2026-05-03T08:37:20.135Z</time></trkpt><trkpt lat="44.0074529" lon="10.5902593"><ele>154.0</ele><time>2026-05-03T08:37:21.136Z</time></trkpt><trkpt lat="44.0076" lon="10.5904159"><ele>156.0</ele><time>2026-05-03T08:37:22.135Z</time></trkpt><trkpt lat="44.0077532" lon="10.590576"><ele>158.0</ele><time>2026-05-03T08:37:23.135Z</time></trkpt><trkpt lat="44.0079139" lon="10.5907417"><ele>158.0</ele><time>2026-05-03T08:37:24.136Z</time></trkpt><trkpt lat="44.0080807" lon="10.5909113"><ele>158.0</ele><time>2026-05-03T08:37:25.136Z</time></trkpt><trkpt lat="44.0082478" lon="10.5910834"><ele>158.0</ele><time>2026-05-03T08:37:26.135Z</time></trkpt><trkpt lat="44.0084159" lon="10.5912588"><ele>160.0</ele><time>2026-05-03T08:37:27.135Z</time></trkpt><trkpt lat="44.008583" lon="10.5914248"><ele>162.0</ele><time>2026-05-03T08:37:28.135Z</time></trkpt><trkpt lat="44.0087435" lon="10.5915799"><ele>164.0</ele><time>2026-05-03T08:37:29.135Z</time></trkpt><trkpt lat="44.0088989" lon="10.5917296"><ele>164.0</ele><time>2026-05-03T08:37:30.135Z</time></trkpt><trkpt lat="44.00905" lon="10.5918763"><ele>164.0</ele><time>2026-05-03T08:37:31.135Z</time></trkpt><trkpt lat="44.0091965" lon="10.5920176"><ele>164.0</ele><time>2026-05-03T08:37:32.136Z</time></trkpt><trkpt lat="44.009342" lon="10.5921566"><ele>166.0</ele><time>2026-05-03T08:37:33.135Z</time></trkpt><trkpt lat="44.0094883" lon="10.5922956"><ele>168.0</ele><time>2026-05-03T08:37:34.135Z</time></trkpt><trkpt lat="44.0096389" lon="10.592437"><ele>170.0</ele><time>2026-05-03T08:37:35.135Z</time></trkpt><trkpt lat="44.0097948" lon="10.592582"><ele>170.0</ele><time>2026-05-03T08:37:36.135Z</time></trkpt><trkpt lat="44.0099575" lon="10.5927282"><ele>170.0</ele><time>2026-05-03T08:37:37.135Z</time></trkpt><trkpt lat="44.010135" lon="10.5929001"><ele>170.0</ele><time>2026-05-03T08:37:38.135Z</time></trkpt><trkpt lat="44.0102944" lon="10.5930485"><ele>171.33333333333331</ele><time>2026-05-03T08:37:39.135Z</time></trkpt><trkpt lat="44.0104486" lon="10.5931925"><ele>172.66666666666666</ele><time>2026-05-03T08:37:40.135Z</time></trkpt><trkpt lat="44.0105973" lon="10.5933255"><ele>174.0</ele><time>2026-05-03T08:37:41.135Z</time></trkpt><trkpt lat="44.0107366" lon="10.5934603"><ele>171.66666666666666</ele><time>2026-05-03T08:37:42.136Z</time></trkpt><trkpt lat="44.0108509" lon="10.5936278"><ele>169.33333333333331</ele><time>2026-05-03T08:37:43.135Z</time></trkpt><trkpt lat="44.0109565" lon="10.5938145"><ele>167.0</ele><time>2026-05-03T08:37:44.136Z</time></trkpt><trkpt lat="44.0110583" lon="10.5940026"><ele>167.0</ele><time>2026-05-03T08:37:45.136Z</time></trkpt><trkpt lat="44.0111547" lon="10.5941789"><ele>167.0</ele><time>2026-05-03T08:37:46.135Z</time></trkpt><trkpt lat="44.0112446" lon="10.5943648"><ele>167.0</ele><time>2026-05-03T08:37:47.136Z</time></trkpt><trkpt lat="44.0113125" lon="10.5945658"><ele>173.0</ele><time>2026-05-03T08:37:48.135Z</time></trkpt><trkpt lat="44.0113776" lon="10.5947835"><ele>179.0</ele><time>2026-05-03T08:37:49.136Z</time></trkpt><trkpt lat="44.0114407" lon="10.5950075"><ele>185.0</ele><time>2026-05-03T08:37:50.135Z</time></trkpt><trkpt lat="44.0114987" lon="10.5952257"><ele>188.33333333333331</ele><time>2026-05-03T08:37:51.135Z</time></trkpt><trkpt lat="44.0115609" lon="10.5954378"><ele>191.66666666666666</ele><time>2026-05-03T08:37:52.135Z</time></trkpt><trkpt lat="44.0116204" lon="10.5956486"><ele>195.0</ele><time>2026-05-03T08:37:53.135Z</time></trkpt><trkpt lat="44.0116784" lon="10.5958578"><ele>182.66666666666666</ele><time>2026-05-03T08:37:54.136Z</time></trkpt><trkpt lat="44.0117323" lon="10.5960712"><ele>170.33333333333331</ele><time>2026-05-03T08:37:55.135Z</time></trkpt><trkpt lat="44.0117832" lon="10.5962877"><ele>158.0</ele><time>2026-05-03T08:37:56.136Z</time></trkpt><trkpt lat="44.0118367" lon="10.5964993"><ele>158.0</ele><time>2026-05-03T08:37:57.136Z</time></trkpt><trkpt lat="44.0118899" lon="10.5967122"><ele>158.0</ele><time>2026-05-03T08:37:58.136Z</time></trkpt><trkpt lat="44.0119433" lon="10.5969252"><ele>158.0</ele><time>2026-05-03T08:37:59.135Z</time></trkpt><trkpt lat="44.0119952" lon="10.5971399"><ele>161.66666666666666</ele><time>2026-05-03T08:38:00.136Z</time></trkpt><trkpt lat="44.0120499" lon="10.5973519"><ele>165.33333333333334</ele><time>2026-05-03T08:38:01.136Z</time></trkpt><trkpt lat="44.0121098" lon="10.5975622"><ele>169.0</ele><time>2026-05-03T08:38:02.136Z</time></trkpt><trkpt lat="44.0121677" lon="10.5977729"><ele>174.66666666666669</ele><time>2026-05-03T08:38:03.136Z</time></trkpt><trkpt lat="44.0122253" lon="10.5979837"><ele>180.33333333333334</ele><time>2026-05-03T08:38:04.135Z</time></trkpt><trkpt lat="44.0122776" lon="10.5981996"><ele>186.0</ele><time>2026-05-03T08:38:05.135Z</time></trkpt><trkpt lat="44.012325" lon="10.5984239"><ele>186.0</ele><time>2026-05-03T08:38:06.135Z</time></trkpt><trkpt lat="44.0123672" lon="10.5986544"><ele>186.0</ele><time>2026-05-03T08:38:07.135Z</time></trkpt><trkpt lat="44.0124032" lon="10.5988928"><ele>186.0</ele><time>2026-05-03T08:38:08.135Z</time></trkpt><trkpt lat="44.0124322" lon="10.5991342"><ele>190.66666666666669</ele><time>2026-05-03T08:38:09.135Z</time></trkpt><trkpt lat="44.012458" lon="10.5993754"><ele>195.33333333333334</ele><time>2026-05-03T08:38:10.136Z</time></trkpt><trkpt lat="44.0124814" lon="10.5996089"><ele>200.0</ele><time>2026-05-03T08:38:11.135Z</time></trkpt><trkpt lat="44.0124828" lon="10.59983"><ele>202.0</ele><time>2026-05-03T08:38:12.136Z</time></trkpt><trkpt lat="44.0124606" lon="10.600045"><ele>204.0</ele><time>2026-05-03T08:38:13.136Z</time></trkpt><trkpt lat="44.0124166" lon="10.6002668"><ele>206.0</ele><time>2026-05-03T08:38:14.136Z</time></trkpt><trkpt lat="44.0123607" lon="10.6005016"><ele>206.0</ele><time>2026-05-03T08:38:15.135Z</time></trkpt><trkpt lat="44.0122912" lon="10.6007469"><ele>206.0</ele><time>2026-05-03T08:38:16.135Z</time></trkpt><trkpt lat="44.0122047" lon="10.6009995"><ele>206.0</ele><time>2026-05-03T08:38:17.136Z</time></trkpt><trkpt lat="44.0121068" lon="10.6012574"><ele>200.66666666666669</ele><time>2026-05-03T08:38:18.135Z</time></trkpt><trkpt lat="44.0119989" lon="10.6015157"><ele>195.33333333333334</ele><time>2026-05-03T08:38:19.136Z</time></trkpt><trkpt lat="44.011887" lon="10.6017774"><ele>190.0</ele><time>2026-05-03T08:38:20.136Z</time></trkpt><trkpt lat="44.0117819" lon="10.6020489"><ele>183.0</ele><time>2026-05-03T08:38:21.136Z</time></trkpt><trkpt lat="44.0116932" lon="10.6023079"><ele>176.0</ele><time>2026-05-03T08:38:22.136Z</time></trkpt><trkpt lat="44.0116188" lon="10.6025638"><ele>169.0</ele><time>2026-05-03T08:38:23.135Z</time></trkpt><trkpt lat="44.0115593" lon="10.6028179"><ele>187.66666666666669</ele><time>2026-05-03T08:38:24.135Z</time></trkpt><trkpt lat="44.0115011" lon="10.6030732"><ele>206.33333333333334</ele><time>2026-05-03T08:38:25.136Z</time></trkpt><trkpt lat="44.0114533" lon="10.6033276"><ele>225.0</ele><time>2026-05-03T08:38:26.135Z</time></trkpt><trkpt lat="44.0114241" lon="10.603591"><ele>220.0</ele><time>2026-05-03T08:38:27.136Z</time></trkpt><trkpt lat="44.0114122" lon="10.6038567"><ele>215.0</ele><time>2026-05-03T08:38:28.135Z</time></trkpt><trkpt lat="44.0114077" lon="10.6041271"><ele>210.0</ele><time>2026-05-03T08:38:29.135Z</time></trkpt><trkpt lat="44.0114055" lon="10.6044027"><ele>205.33333333333331</ele><time>2026-05-03T08:38:30.136Z</time></trkpt><trkpt lat="44.0113982" lon="10.6046812"><ele>200.66666666666666</ele><time>2026-05-03T08:38:31.136Z</time></trkpt><trkpt lat="44.0113818" lon="10.6049625"><ele>196.0</ele><time>2026-05-03T08:38:32.135Z</time></trkpt><trkpt lat="44.0113453" lon="10.6052395"><ele>192.0</ele><time>2026-05-03T08:38:33.136Z</time></trkpt><trkpt lat="44.011289" lon="10.6055107"><ele>188.0</ele><time>2026-05-03T08:38:34.135Z</time></trkpt><trkpt lat="44.0112287" lon="10.6057656"><ele>184.0</ele><time>2026-05-03T08:38:35.135Z</time></trkpt><trkpt lat="44.01118" lon="10.6060052"><ele>181.66666666666669</ele><time>2026-05-03T08:38:36.135Z</time></trkpt><trkpt lat="44.0111675" lon="10.6062472"><ele>179.33333333333334</ele><time>2026-05-03T08:38:37.136Z</time></trkpt><trkpt lat="44.0111929" lon="10.6064925"><ele>177.0</ele><time>2026-05-03T08:38:38.135Z</time></trkpt><trkpt lat="44.0112417" lon="10.6067419"><ele>177.0</ele><time>2026-05-03T08:38:39.136Z</time></trkpt><trkpt lat="44.0112956" lon="10.6069852"><ele>177.0</ele><time>2026-05-03T08:38:40.135Z</time></trkpt><trkpt lat="44.0113412" lon="10.6072131"><ele>177.0</ele><time>2026-05-03T08:38:41.136Z</time></trkpt><trkpt lat="44.0113688" lon="10.6074348"><ele>176.33333333333334</ele><time>2026-05-03T08:38:42.136Z</time></trkpt><trkpt lat="44.0113715" lon="10.6076534"><ele>175.66666666666669</ele><time>2026-05-03T08:38:43.135Z</time></trkpt><trkpt lat="44.0113453" lon="10.607882"><ele>175.0</ele><time>2026-05-03T08:38:44.136Z</time></trkpt><trkpt lat="44.0113104" lon="10.6081196"><ele>174.66666666666669</ele><time>2026-05-03T08:38:45.136Z</time></trkpt><trkpt lat="44.0112778" lon="10.6083657"><ele>174.33333333333334</ele><time>2026-05-03T08:38:46.135Z</time></trkpt><trkpt lat="44.0112344" lon="10.6085867"><ele>174.0</ele><time>2026-05-03T08:38:47.135Z</time></trkpt><trkpt lat="44.0111622" lon="10.6088036"><ele>173.0</ele><time>2026-05-03T08:38:48.135Z</time></trkpt><trkpt lat="44.0110806" lon="10.6090179"><ele>172.0</ele><time>2026-05-03T08:38:49.135Z</time></trkpt><trkpt lat="44.0109976" lon="10.6092446"><ele>171.0</ele><time>2026-05-03T08:38:50.136Z</time></trkpt><trkpt lat="44.0109117" lon="10.6094849"><ele>176.33333333333334</ele><time>2026-05-03T08:38:51.135Z</time></trkpt><trkpt lat="44.0108206" lon="10.6097312"><ele>181.66666666666669</ele><time>2026-05-03T08:38:52.135Z</time></trkpt><trkpt lat="44.0107338" lon="10.6099588"><ele>187.0</ele><time>2026-05-03T08:38:53.136Z</time></trkpt><trkpt lat="44.0106359" lon="10.6101819"><ele>184.0</ele><time>2026-05-03T08:38:54.135Z</time></trkpt><trkpt lat="44.0105271" lon="10.6103912"><ele>181.0</ele><time>2026-05-03T08:38:55.136Z</time></trkpt><trkpt lat="44.0104108" lon="10.610593"><ele>178.0</ele><time>2026-05-03T08:38:56.135Z</time></trkpt><trkpt lat="44.0102915" lon="10.6108005"><ele>178.0</ele><time>2026-05-03T08:38:57.135Z</time></trkpt><trkpt lat="44.0101685" lon="10.6110191"><ele>178.0</ele><time>2026-05-03T08:38:58.136Z</time></trkpt><trkpt lat="44.0100422" lon="10.6112498"><ele>178.0</ele><time>2026-05-03T08:38:59.136Z</time></trkpt><trkpt lat="44.0099088" lon="10.6114771"><ele>179.33333333333334</ele><time>2026-05-03T08:39:00.136Z</time></trkpt><trkpt lat="44.0097664" lon="10.6117063"><ele>180.66666666666666</ele><time>2026-05-03T08:39:01.136Z</time></trkpt><trkpt lat="44.0096176" lon="10.6119393"><ele>182.0</ele><time>2026-05-03T08:39:02.135Z</time></trkpt><trkpt lat="44.0094667" lon="10.6121746"><ele>182.0</ele><time>2026-05-03T08:39:03.135Z</time></trkpt><trkpt lat="44.0093257" lon="10.6124048"><ele>182.0</ele><time>2026-05-03T08:39:04.136Z</time></trkpt><trkpt lat="44.0091925" lon="10.6126348"><ele>182.0</ele><time>2026-05-03T08:39:05.136Z</time></trkpt><trkpt lat="44.0090715" lon="10.6128715"><ele>186.66666666666666</ele><time>2026-05-03T08:39:06.136Z</time></trkpt><trkpt lat="44.0089624" lon="10.6131206"><ele>191.33333333333331</ele><time>2026-05-03T08:39:07.136Z</time></trkpt><trkpt lat="44.0088853" lon="10.6133696"><ele>196.0</ele><time>2026-05-03T08:39:08.136Z</time></trkpt><trkpt lat="44.0088311" lon="10.613615"><ele>191.66666666666666</ele><time>2026-05-03T08:39:09.136Z</time></trkpt><trkpt lat="44.0088268" lon="10.613861"><ele>187.33333333333331</ele><time>2026-05-03T08:39:10.135Z</time></trkpt><trkpt lat="44.0087927" lon="10.6140923"><ele>183.0</ele><time>2026-05-03T08:39:11.136Z</time></trkpt><trkpt lat="44.0087321" lon="10.6142982"><ele>179.33333333333334</ele><time>2026-05-03T08:39:12.136Z</time></trkpt><trkpt lat="44.0086449" lon="10.6144896"><ele>175.66666666666669</ele><time>2026-05-03T08:39:13.136Z</time></trkpt><trkpt lat="44.0085407" lon="10.6146685"><ele>172.0</ele><time>2026-05-03T08:39:14.135Z</time></trkpt><trkpt lat="44.0084452" lon="10.6148521"><ele>172.0</ele><time>2026-05-03T08:39:15.135Z</time></trkpt><trkpt lat="44.0083745" lon="10.6150647"><ele>172.0</ele><time>2026-05-03T08:39:16.136Z</time></trkpt><trkpt lat="44.0083253" lon="10.6152939"><ele>172.0</ele><time>2026-05-03T08:39:17.135Z</time></trkpt><trkpt lat="44.0082895" lon="10.615538"><ele>185.66666666666669</ele><time>2026-05-03T08:39:18.135Z</time></trkpt><trkpt lat="44.008263" lon="10.6157817"><ele>199.33333333333334</ele><time>2026-05-03T08:39:19.135Z</time></trkpt><trkpt lat="44.0082611" lon="10.6160348"><ele>213.0</ele><time>2026-05-03T08:39:20.136Z</time></trkpt><trkpt lat="44.0082831" lon="10.6162925"><ele>204.66666666666666</ele><time>2026-05-03T08:39:21.136Z</time></trkpt><trkpt lat="44.0083286" lon="10.616551"><ele>196.33333333333331</ele><time>2026-05-03T08:39:22.136Z</time></trkpt><trkpt lat="44.0083943" lon="10.6168008"><ele>188.0</ele><time>2026-05-03T08:39:23.135Z</time></trkpt><trkpt lat="44.0084554" lon="10.617034"><ele>188.0</ele><time>2026-05-03T08:39:24.136Z</time></trkpt><trkpt lat="44.0085044" lon="10.6172706"><ele>188.0</ele><time>2026-05-03T08:39:25.136Z</time></trkpt><trkpt lat="44.0085469" lon="10.6175114"><ele>188.0</ele><time>2026-05-03T08:39:26.135Z</time></trkpt><trkpt lat="44.008585" lon="10.6177527"><ele>187.0</ele><time>2026-05-03T08:39:27.136Z</time></trkpt><trkpt lat="44.0086203" lon="10.6179717"><ele>186.0</ele><time>2026-05-03T08:39:28.135Z</time></trkpt><trkpt lat="44.0086747" lon="10.6181545"><ele>185.0</ele><time>2026-05-03T08:39:29.136Z</time></trkpt><trkpt lat="44.0087536" lon="10.6182966"><ele>184.0</ele><time>2026-05-03T08:39:30.136Z</time></trkpt><trkpt lat="44.0088644" lon="10.6183969"><ele>184.0</ele><time>2026-05-03T08:39:31.135Z</time></trkpt><trkpt lat="44.009" lon="10.6184653"><ele>184.0</ele><time>2026-05-03T08:39:32.135Z</time></trkpt><trkpt lat="44.0091556" lon="10.6185097"><ele>184.0</ele><time>2026-05-03T08:39:33.135Z</time></trkpt><trkpt lat="44.0093185" lon="10.6185344"><ele>186.66666666666669</ele><time>2026-05-03T08:39:34.136Z</time></trkpt><trkpt lat="44.0094651" lon="10.618574"><ele>189.33333333333334</ele><time>2026-05-03T08:39:35.135Z</time></trkpt><trkpt lat="44.009605" lon="10.6186573"><ele>192.0</ele><time>2026-05-03T08:39:36.136Z</time></trkpt><trkpt lat="44.0097351" lon="10.6187817"><ele>192.0</ele><time>2026-05-03T08:39:37.135Z</time></trkpt><trkpt lat="44.0098635" lon="10.6189354"><ele>192.0</ele><time>2026-05-03T08:39:38.135Z</time></trkpt><trkpt lat="44.0100106" lon="10.6191021"><ele>192.0</ele><time>2026-05-03T08:39:39.136Z</time></trkpt><trkpt lat="44.0101663" lon="10.6192752"><ele>194.66666666666669</ele><time>2026-05-03T08:39:40.135Z</time></trkpt><trkpt lat="44.0103276" lon="10.619456"><ele>197.33333333333334</ele><time>2026-05-03T08:39:41.136Z</time></trkpt><trkpt lat="44.0104974" lon="10.6196419"><ele>200.0</ele><time>2026-05-03T08:39:42.135Z</time></trkpt><trkpt lat="44.0106673" lon="10.6198354"><ele>188.5</ele><time>2026-05-03T08:39:43.136Z</time></trkpt><trkpt lat="44.0108484" lon="10.6200283"><ele>177.0</ele><time>2026-05-03T08:39:44.135Z</time></trkpt><trkpt lat="44.0110297" lon="10.6202147"><ele>182.33333333333331</ele><time>2026-05-03T08:39:45.136Z</time></trkpt><trkpt lat="44.0112019" lon="10.6203901"><ele>187.66666666666666</ele><time>2026-05-03T08:39:46.135Z</time></trkpt><trkpt lat="44.0113704" lon="10.6205603"><ele>193.0</ele><time>2026-05-03T08:39:47.136Z</time></trkpt><trkpt lat="44.0115273" lon="10.6207208"><ele>188.0</ele><time>2026-05-03T08:39:48.136Z</time></trkpt><trkpt lat="44.0116812" lon="10.6208745"><ele>183.0</ele><time>2026-05-03T08:39:49.136Z</time></trkpt><trkpt lat="44.0118421" lon="10.6210141"><ele>178.0</ele><time>2026-05-03T08:39:50.136Z</time></trkpt><trkpt lat="44.0120114" lon="10.6211366"><ele>179.33333333333334</ele><time>2026-05-03T08:39:51.136Z</time></trkpt><trkpt lat="44.0121833" lon="10.6212519"><ele>180.66666666666666</ele><time>2026-05-03T08:39:52.135Z</time></trkpt><trkpt lat="44.012357" lon="10.6213694"><ele>182.0</ele><time>2026-05-03T08:39:53.136Z</time></trkpt><trkpt lat="44.0125288" lon="10.6214824"><ele>182.0</ele><time>2026-05-03T08:39:54.135Z</time></trkpt><trkpt lat="44.0127036" lon="10.6215961"><ele>182.0</ele><time>2026-05-03T08:39:55.135Z</time></trkpt><trkpt lat="44.0128786" lon="10.6217061"><ele>182.0</ele><time>2026-05-03T08:39:56.136Z</time></trkpt><trkpt lat="44.0130558" lon="10.6218176"><ele>182.0</ele><time>2026-05-03T08:39:57.136Z</time></trkpt><trkpt lat="44.0132329" lon="10.6219286"><ele>182.0</ele><time>2026-05-03T08:39:58.135Z</time></trkpt><trkpt lat="44.0134073" lon="10.6220419"><ele>182.0</ele><time>2026-05-03T08:39:59.135Z</time></trkpt><trkpt lat="44.013581" lon="10.6221524"><ele>183.0</ele><time>2026-05-03T08:40:00.135Z</time></trkpt><trkpt lat="44.0137597" lon="10.6222568"><ele>184.0</ele><time>2026-05-03T08:40:01.135Z</time></trkpt><trkpt lat="44.0139459" lon="10.6223372"><ele>185.0</ele><time>2026-05-03T08:40:02.135Z</time></trkpt><trkpt lat="44.0141349" lon="10.6224018"><ele>184.33333333333331</ele><time>2026-05-03T08:40:03.135Z</time></trkpt><trkpt lat="44.0143184" lon="10.6224608"><ele>183.66666666666666</ele><time>2026-05-03T08:40:04.135Z</time></trkpt><trkpt lat="44.0144989" lon="10.6225272"><ele>183.0</ele><time>2026-05-03T08:40:05.135Z</time></trkpt><trkpt lat="44.0146655" lon="10.6226066"><ele>183.0</ele><time>2026-05-03T08:40:06.136Z</time></trkpt><trkpt lat="44.014817" lon="10.6227043"><ele>183.0</ele><time>2026-05-03T08:40:07.135Z</time></trkpt><trkpt lat="44.0149536" lon="10.622828"><ele>183.0</ele><time>2026-05-03T08:40:08.136Z</time></trkpt><trkpt lat="44.0150811" lon="10.6229743"><ele>184.33333333333334</ele><time>2026-05-03T08:40:09.136Z</time></trkpt><trkpt lat="44.015192" lon="10.6231411"><ele>185.66666666666669</ele><time>2026-05-03T08:40:10.136Z</time></trkpt><trkpt lat="44.0152891" lon="10.623326"><ele>187.0</ele><time>2026-05-03T08:40:11.136Z</time></trkpt><trkpt lat="44.0153804" lon="10.6235241"><ele>192.33333333333334</ele><time>2026-05-03T08:40:12.135Z</time></trkpt><trkpt lat="44.0154807" lon="10.6237234"><ele>197.66666666666669</ele><time>2026-05-03T08:40:13.136Z</time></trkpt><trkpt lat="44.0155949" lon="10.6239223"><ele>203.0</ele><time>2026-05-03T08:40:14.135Z</time></trkpt><trkpt lat="44.0157242" lon="10.6241237"><ele>204.66666666666669</ele><time>2026-05-03T08:40:15.136Z</time></trkpt><trkpt lat="44.0158617" lon="10.624334"><ele>206.33333333333331</ele><time>2026-05-03T08:40:16.136Z</time></trkpt><trkpt lat="44.0159893" lon="10.6245428"><ele>208.0</ele><time>2026-05-03T08:40:17.136Z</time></trkpt><trkpt lat="44.0160985" lon="10.6247372"><ele>208.0</ele><time>2026-05-03T08:40:18.136Z</time></trkpt><trkpt lat="44.0161954" lon="10.6249357"><ele>208.0</ele><time>2026-05-03T08:40:19.136Z</time></trkpt><trkpt lat="44.0162727" lon="10.6251289"><ele>208.0</ele><time>2026-05-03T08:40:20.136Z</time></trkpt><trkpt lat="44.0163454" lon="10.6253269"><ele>220.0</ele><time>2026-05-03T08:40:21.135Z</time></trkpt><trkpt lat="44.0164223" lon="10.6255282"><ele>232.0</ele><time>2026-05-03T08:40:22.135Z</time></trkpt><trkpt lat="44.0165121" lon="10.625726"><ele>244.0</ele><time>2026-05-03T08:40:23.136Z</time></trkpt><trkpt lat="44.0166102" lon="10.6259232"><ele>233.0</ele><time>2026-05-03T08:40:24.135Z</time></trkpt><trkpt lat="44.0167128" lon="10.6261146"><ele>222.0</ele><time>2026-05-03T08:40:25.136Z</time></trkpt><trkpt lat="44.0168073" lon="10.6262958"><ele>211.0</ele><time>2026-05-03T08:40:26.135Z</time></trkpt><trkpt lat="44.0169047" lon="10.6264803"><ele>211.0</ele><time>2026-05-03T08:40:27.135Z</time></trkpt><trkpt lat="44.0169981" lon="10.6266489"><ele>211.0</ele><time>2026-05-03T08:40:28.135Z</time></trkpt><trkpt lat="44.0170911" lon="10.6268221"><ele>211.0</ele><time>2026-05-03T08:40:29.136Z</time></trkpt><trkpt lat="44.0171783" lon="10.6269881"><ele>206.0</ele><time>2026-05-03T08:40:30.135Z</time></trkpt><trkpt lat="44.0172637" lon="10.6271445"><ele>201.0</ele><time>2026-05-03T08:40:31.135Z</time></trkpt><trkpt lat="44.0173463" lon="10.6272975"><ele>196.0</ele><time>2026-05-03T08:40:32.136Z</time></trkpt><trkpt lat="44.0174312" lon="10.62745"><ele>191.0</ele><time>2026-05-03T08:40:33.135Z</time></trkpt><trkpt lat="44.0175105" lon="10.6275955"><ele>191.0</ele><time>2026-05-03T08:40:34.135Z</time></trkpt><trkpt lat="44.0175839" lon="10.6277352"><ele>191.0</ele><time>2026-05-03T08:40:35.135Z</time></trkpt><trkpt lat="44.0176454" lon="10.6278626"><ele>191.0</ele><time>2026-05-03T08:40:36.135Z</time></trkpt><trkpt lat="44.0177005" lon="10.6279908"><ele>191.0</ele><time>2026-05-03T08:40:37.136Z</time></trkpt><trkpt lat="44.0177559" lon="10.6281326"><ele>198.25</ele><time>2026-05-03T08:40:38.135Z</time></trkpt><trkpt lat="44.0178118" lon="10.6282774"><ele>205.5</ele><time>2026-05-03T08:40:39.135Z</time></trkpt><trkpt lat="44.0178784" lon="10.6284213"><ele>212.75</ele><time>2026-05-03T08:40:40.136Z</time></trkpt><trkpt lat="44.0179628" lon="10.6285444"><ele>220.0</ele><time>2026-05-03T08:40:41.135Z</time></trkpt><trkpt lat="44.0180536" lon="10.6286395"><ele>216.0</ele><time>2026-05-03T08:40:42.136Z</time></trkpt><trkpt lat="44.0181474" lon="10.628717"><ele>212.0</ele><time>2026-05-03T08:40:43.136Z</time></trkpt><trkpt lat="44.0182368" lon="10.6287924"><ele>208.0</ele><time>2026-05-03T08:40:44.136Z</time></trkpt><trkpt lat="44.018321" lon="10.6288703"><ele>204.0</ele><time>2026-05-03T08:40:45.135Z</time></trkpt><trkpt lat="44.0184012" lon="10.6289681"><ele>200.0</ele><time>2026-05-03T08:40:46.136Z</time></trkpt><trkpt lat="44.0184747" lon="10.6290938"><ele>200.0</ele><time>2026-05-03T08:40:47.135Z</time></trkpt><trkpt lat="44.018556" lon="10.6292499"><ele>200.0</ele><time>2026-05-03T08:40:48.136Z</time></trkpt><trkpt lat="44.0186384" lon="10.6294249"><ele>200.0</ele><time>2026-05-03T08:40:49.136Z</time></trkpt><trkpt lat="44.0187203" lon="10.6296118"><ele>200.0</ele><time>2026-05-03T08:40:50.135Z</time></trkpt><trkpt lat="44.0188037" lon="10.6298245"><ele>203.0</ele><time>2026-05-03T08:40:51.135Z</time></trkpt><trkpt lat="44.0189031" lon="10.6300257"><ele>206.0</ele><time>2026-05-03T08:40:52.135Z</time></trkpt><trkpt lat="44.0190369" lon="10.6302222"><ele>209.0</ele><time>2026-05-03T08:40:53.135Z</time></trkpt><trkpt lat="44.019194" lon="10.630447"><ele>209.0</ele><time>2026-05-03T08:40:54.135Z</time></trkpt><trkpt lat="44.0193524" lon="10.6306797"><ele>209.0</ele><time>2026-05-03T08:40:55.135Z</time></trkpt><trkpt lat="44.0194935" lon="10.6308955"><ele>209.0</ele><time>2026-05-03T08:40:56.135Z</time></trkpt><trkpt lat="44.0196145" lon="10.6311221"><ele>215.0</ele><time>2026-05-03T08:40:57.136Z</time></trkpt><trkpt lat="44.0197173" lon="10.6313689"><ele>221.0</ele><time>2026-05-03T08:40:58.136Z</time></trkpt><trkpt lat="44.0197975" lon="10.6316423"><ele>227.0</ele><time>2026-05-03T08:40:59.136Z</time></trkpt><trkpt lat="44.0198678" lon="10.6319413"><ele>238.0</ele><time>2026-05-03T08:41:00.136Z</time></trkpt><trkpt lat="44.0199521" lon="10.6322505"><ele>249.0</ele><time>2026-05-03T08:41:01.136Z</time></trkpt><trkpt lat="44.0200462" lon="10.6325742"><ele>239.0</ele><time>2026-05-03T08:41:02.136Z</time></trkpt><trkpt lat="44.0201351" lon="10.6328679"><ele>229.0</ele><time>2026-05-03T08:41:03.136Z</time></trkpt><trkpt lat="44.0202275" lon="10.6331404"><ele>219.0</ele><time>2026-05-03T08:41:04.136Z</time></trkpt><trkpt lat="44.0203204" lon="10.6333929"><ele>219.0</ele><time>2026-05-03T08:41:05.136Z</time></trkpt><trkpt lat="44.0204099" lon="10.6336254"><ele>219.0</ele><time>2026-05-03T08:41:06.136Z</time></trkpt><trkpt lat="44.0205156" lon="10.6338293"><ele>219.0</ele><time>2026-05-03T08:41:07.136Z</time></trkpt><trkpt lat="44.0206407" lon="10.6340085"><ele>222.0</ele><time>2026-05-03T08:41:08.135Z</time></trkpt><trkpt lat="44.0207812" lon="10.6341759"><ele>225.0</ele><time>2026-05-03T08:41:09.136Z</time></trkpt><trkpt lat="44.0209242" lon="10.6343318"><ele>228.0</ele><time>2026-05-03T08:41:10.136Z</time></trkpt><trkpt lat="44.0210586" lon="10.6344817"><ele>228.0</ele><time>2026-05-03T08:41:11.136Z</time></trkpt><trkpt lat="44.0211882" lon="10.6346214"><ele>228.0</ele><time>2026-05-03T08:41:12.136Z</time></trkpt><trkpt lat="44.0213154" lon="10.6347629"><ele>228.0</ele><time>2026-05-03T08:41:13.136Z</time></trkpt><trkpt lat="44.0214345" lon="10.6349128"><ele>228.0</ele><time>2026-05-03T08:41:14.136Z</time></trkpt><trkpt lat="44.0215397" lon="10.6350819"><ele>228.0</ele><time>2026-05-03T08:41:15.135Z</time></trkpt><trkpt lat="44.0216266" lon="10.635266"><ele>228.0</ele><time>2026-05-03T08:41:16.136Z</time></trkpt><trkpt lat="44.0216847" lon="10.6354485"><ele>220.75</ele><time>2026-05-03T08:41:17.135Z</time></trkpt><trkpt lat="44.0217374" lon="10.6356168"><ele>213.5</ele><time>2026-05-03T08:41:18.136Z</time></trkpt><trkpt lat="44.0217755" lon="10.6357688"><ele>206.25</ele><time>2026-05-03T08:41:19.136Z</time></trkpt><trkpt lat="44.0218168" lon="10.6359117"><ele>199.0</ele><time>2026-05-03T08:41:20.136Z</time></trkpt><trkpt lat="44.0218674" lon="10.6360503"><ele>199.5</ele><time>2026-05-03T08:41:21.136Z</time></trkpt><trkpt lat="44.0219313" lon="10.63618"><ele>200.0</ele><time>2026-05-03T08:41:22.135Z</time></trkpt><trkpt lat="44.0220129" lon="10.6362904"><ele>200.5</ele><time>2026-05-03T08:41:23.136Z</time></trkpt><trkpt lat="44.0220927" lon="10.6364031"><ele>201.0</ele><time>2026-05-03T08:41:24.135Z</time></trkpt><trkpt lat="44.0221716" lon="10.6365185"><ele>201.0</ele><time>2026-05-03T08:41:25.136Z</time></trkpt><trkpt lat="44.0222476" lon="10.6366434"><ele>201.0</ele><time>2026-05-03T08:41:26.136Z</time></trkpt><trkpt lat="44.022322" lon="10.636772"><ele>201.0</ele><time>2026-05-03T08:41:27.135Z</time></trkpt><trkpt lat="44.0223929" lon="10.63691"><ele>201.0</ele><time>2026-05-03T08:41:28.135Z</time></trkpt><trkpt lat="44.0224622" lon="10.6370599"><ele>202.0</ele><time>2026-05-03T08:41:29.135Z</time></trkpt><trkpt lat="44.0225325" lon="10.6372143"><ele>203.0</ele><time>2026-05-03T08:41:30.136Z</time></trkpt><trkpt lat="44.0226071" lon="10.6373793"><ele>204.0</ele><time>2026-05-03T08:41:31.135Z</time></trkpt><trkpt lat="44.0226906" lon="10.6375609"><ele>205.0</ele><time>2026-05-03T08:41:32.135Z</time></trkpt><trkpt lat="44.0227855" lon="10.6377615"><ele>207.33333333333331</ele><time>2026-05-03T08:41:33.136Z</time></trkpt><trkpt lat="44.0228852" lon="10.6379746"><ele>209.66666666666669</ele><time>2026-05-03T08:41:34.135Z</time></trkpt><trkpt lat="44.0229922" lon="10.6381988"><ele>212.0</ele><time>2026-05-03T08:41:35.135Z</time></trkpt><trkpt lat="44.0230959" lon="10.6384282"><ele>214.33333333333334</ele><time>2026-05-03T08:41:36.135Z</time></trkpt><trkpt lat="44.0231992" lon="10.6386682"><ele>216.66666666666669</ele><time>2026-05-03T08:41:37.136Z</time></trkpt><trkpt lat="44.023303" lon="10.6389162"><ele>219.0</ele><time>2026-05-03T08:41:38.136Z</time></trkpt><trkpt lat="44.0234088" lon="10.6391741"><ele>215.33333333333331</ele><time>2026-05-03T08:41:39.136Z</time></trkpt><trkpt lat="44.0235152" lon="10.6394308"><ele>211.66666666666666</ele><time>2026-05-03T08:41:40.136Z</time></trkpt><trkpt lat="44.0236248" lon="10.6396889"><ele>208.0</ele><time>2026-05-03T08:41:41.136Z</time></trkpt><trkpt lat="44.0237344" lon="10.6399509"><ele>208.0</ele><time>2026-05-03T08:41:42.135Z</time></trkpt><trkpt lat="44.0238431" lon="10.6402154"><ele>208.0</ele><time>2026-05-03T08:41:43.136Z</time></trkpt><trkpt lat="44.0239504" lon="10.640478"><ele>208.0</ele><time>2026-05-03T08:41:44.135Z</time></trkpt><trkpt lat="44.0240512" lon="10.6407216"><ele>207.0</ele><time>2026-05-03T08:41:45.136Z</time></trkpt><trkpt lat="44.0241551" lon="10.6409539"><ele>206.0</ele><time>2026-05-03T08:41:46.136Z</time></trkpt><trkpt lat="44.024263" lon="10.6411532"><ele>205.0</ele><time>2026-05-03T08:41:47.136Z</time></trkpt><trkpt lat="44.0243903" lon="10.6413127"><ele>212.66666666666666</ele><time>2026-05-03T08:41:48.135Z</time></trkpt><trkpt lat="44.0245354" lon="10.6414436"><ele>220.33333333333331</ele><time>2026-05-03T08:41:49.136Z</time></trkpt><trkpt lat="44.0247075" lon="10.6415504"><ele>228.0</ele><time>2026-05-03T08:41:50.136Z</time></trkpt><trkpt lat="44.0248993" lon="10.6416516"><ele>229.66666666666669</ele><time>2026-05-03T08:41:51.136Z</time></trkpt><trkpt lat="44.0251002" lon="10.6417603"><ele>231.33333333333334</ele><time>2026-05-03T08:41:52.136Z</time></trkpt><trkpt lat="44.0253096" lon="10.64188"><ele>233.0</ele><time>2026-05-03T08:41:53.136Z</time></trkpt><trkpt lat="44.025503" lon="10.6419865"><ele>233.0</ele><time>2026-05-03T08:41:54.136Z</time></trkpt><trkpt lat="44.0256791" lon="10.6420975"><ele>233.0</ele><time>2026-05-03T08:41:55.136Z</time></trkpt><trkpt lat="44.0258443" lon="10.6422422"><ele>233.0</ele><time>2026-05-03T08:41:56.136Z</time></trkpt><trkpt lat="44.0259974" lon="10.6424029"><ele>233.0</ele><time>2026-05-03T08:41:57.136Z</time></trkpt><trkpt lat="44.0261501" lon="10.6425662"><ele>233.0</ele><time>2026-05-03T08:41:58.135Z</time></trkpt><trkpt lat="44.0263092" lon="10.6427367"><ele>233.0</ele><time>2026-05-03T08:41:59.135Z</time></trkpt><trkpt lat="44.0264774" lon="10.6429149"><ele>233.0</ele><time>2026-05-03T08:42:00.136Z</time></trkpt><trkpt lat="44.0266443" lon="10.6430913"><ele>233.0</ele><time>2026-05-03T08:42:01.135Z</time></trkpt><trkpt lat="44.0268076" lon="10.6432667"><ele>233.0</ele><time>2026-05-03T08:42:02.136Z</time></trkpt><trkpt lat="44.0269725" lon="10.6434466"><ele>234.33333333333334</ele><time>2026-05-03T08:42:03.136Z</time></trkpt><trkpt lat="44.0271369" lon="10.6436264"><ele>235.66666666666669</ele><time>2026-05-03T08:42:04.135Z</time></trkpt><trkpt lat="44.027306" lon="10.643807"><ele>237.0</ele><time>2026-05-03T08:42:05.136Z</time></trkpt><trkpt lat="44.0274747" lon="10.6439908"><ele>237.0</ele><time>2026-05-03T08:42:06.136Z</time></trkpt><trkpt lat="44.0276455" lon="10.6441754"><ele>237.0</ele><time>2026-05-03T08:42:07.136Z</time></trkpt><trkpt lat="44.0278194" lon="10.6443624"><ele>237.0</ele><time>2026-05-03T08:42:08.135Z</time></trkpt><trkpt lat="44.0279974" lon="10.6445486"><ele>237.0</ele><time>2026-05-03T08:42:09.135Z</time></trkpt><trkpt lat="44.0281777" lon="10.6447331"><ele>237.0</ele><time>2026-05-03T08:42:10.135Z</time></trkpt><trkpt lat="44.0283584" lon="10.6449201"><ele>237.0</ele><time>2026-05-03T08:42:11.136Z</time></trkpt><trkpt lat="44.02854" lon="10.6451079"><ele>237.0</ele><time>2026-05-03T08:42:12.135Z</time></trkpt><trkpt lat="44.0287232" lon="10.6452955"><ele>237.0</ele><time>2026-05-03T08:42:13.136Z</time></trkpt><trkpt lat="44.0289096" lon="10.6454837"><ele>237.0</ele><time>2026-05-03T08:42:14.136Z</time></trkpt><trkpt lat="44.0290954" lon="10.6456744"><ele>237.0</ele><time>2026-05-03T08:42:15.136Z</time></trkpt><trkpt lat="44.0292824" lon="10.6458685"><ele>236.0</ele><time>2026-05-03T08:42:16.135Z</time></trkpt><trkpt lat="44.0294705" lon="10.6460613"><ele>235.0</ele><time>2026-05-03T08:42:17.136Z</time></trkpt><trkpt lat="44.0296487" lon="10.6462408"><ele>235.0</ele><time>2026-05-03T08:42:18.135Z</time></trkpt><trkpt lat="44.0298078" lon="10.6463973"><ele>235.0</ele><time>2026-05-03T08:42:19.136Z</time></trkpt><trkpt lat="44.029962" lon="10.6465167"><ele>235.0</ele><time>2026-05-03T08:42:20.136Z</time></trkpt><trkpt lat="44.0301322" lon="10.6465963"><ele>230.66666666666666</ele><time>2026-05-03T08:42:21.136Z</time></trkpt><trkpt lat="44.0303193" lon="10.6466604"><ele>226.33333333333331</ele><time>2026-05-03T08:42:22.135Z</time></trkpt><trkpt lat="44.0305207" lon="10.6467185"><ele>222.0</ele><time>2026-05-03T08:42:23.136Z</time></trkpt><trkpt lat="44.0307311" lon="10.6467833"><ele>220.66666666666669</ele><time>2026-05-03T08:42:24.135Z</time></trkpt><trkpt lat="44.0309351" lon="10.6468467"><ele>219.33333333333334</ele><time>2026-05-03T08:42:25.135Z</time></trkpt><trkpt lat="44.0311448" lon="10.6469091"><ele>218.0</ele><time>2026-05-03T08:42:26.135Z</time></trkpt><trkpt lat="44.031355" lon="10.6469742"><ele>222.0</ele><time>2026-05-03T08:42:27.136Z</time></trkpt><trkpt lat="44.031569" lon="10.6470417"><ele>226.0</ele><time>2026-05-03T08:42:28.135Z</time></trkpt><trkpt lat="44.0317898" lon="10.6471094"><ele>230.0</ele><time>2026-05-03T08:42:29.136Z</time></trkpt><trkpt lat="44.0320094" lon="10.6471766"><ele>230.0</ele><time>2026-05-03T08:42:30.136Z</time></trkpt><trkpt lat="44.0322228" lon="10.6472395"><ele>230.0</ele><time>2026-05-03T08:42:31.135Z</time></trkpt><trkpt lat="44.0324401" lon="10.6472864"><ele>230.0</ele><time>2026-05-03T08:42:32.135Z</time></trkpt><trkpt lat="44.0326654" lon="10.6473218"><ele>229.5</ele><time>2026-05-03T08:42:33.135Z</time></trkpt><trkpt lat="44.0328965" lon="10.6473368"><ele>229.0</ele><time>2026-05-03T08:42:34.135Z</time></trkpt><trkpt lat="44.0331305" lon="10.6473451"><ele>228.5</ele><time>2026-05-03T08:42:35.135Z</time></trkpt><trkpt lat="44.0333643" lon="10.6473563"><ele>228.0</ele><time>2026-05-03T08:42:36.135Z</time></trkpt><trkpt lat="44.0335941" lon="10.6473628"><ele>228.0</ele><time>2026-05-03T08:42:37.136Z</time></trkpt><trkpt lat="44.0338208" lon="10.6473718"><ele>228.0</ele><time>2026-05-03T08:42:38.136Z</time></trkpt><trkpt lat="44.0340464" lon="10.6473776"><ele>229.0</ele><time>2026-05-03T08:42:39.136Z</time></trkpt><trkpt lat="44.0342707" lon="10.6473802"><ele>230.0</ele><time>2026-05-03T08:42:40.136Z</time></trkpt><trkpt lat="44.0344976" lon="10.6473822"><ele>230.0</ele><time>2026-05-03T08:42:41.135Z</time></trkpt><trkpt lat="44.0347283" lon="10.647381"><ele>230.0</ele><time>2026-05-03T08:42:42.136Z</time></trkpt><trkpt lat="44.0349555" lon="10.6473807"><ele>229.33333333333334</ele><time>2026-05-03T08:42:43.135Z</time></trkpt><trkpt lat="44.0351604" lon="10.6473862"><ele>228.66666666666669</ele><time>2026-05-03T08:42:44.136Z</time></trkpt><trkpt lat="44.0353502" lon="10.6473975"><ele>228.0</ele><time>2026-05-03T08:42:45.136Z</time></trkpt><trkpt lat="44.0355273" lon="10.6474357"><ele>228.0</ele><time>2026-05-03T08:42:46.136Z</time></trkpt><trkpt lat="44.0356983" lon="10.6475035"><ele>228.0</ele><time>2026-05-03T08:42:47.135Z</time></trkpt><trkpt lat="44.0358609" lon="10.6475937"><ele>228.0</ele><time>2026-05-03T08:42:48.136Z</time></trkpt><trkpt lat="44.0360202" lon="10.647733"><ele>230.33333333333331</ele><time>2026-05-03T08:42:49.135Z</time></trkpt><trkpt lat="44.0361761" lon="10.6478625"><ele>232.66666666666666</ele><time>2026-05-03T08:42:50.135Z</time></trkpt><trkpt lat="44.0363234" lon="10.6479859"><ele>235.0</ele><time>2026-05-03T08:42:51.135Z</time></trkpt><trkpt lat="44.0364519" lon="10.6480973"><ele>235.0</ele><time>2026-05-03T08:42:52.135Z</time></trkpt><trkpt lat="44.0365595" lon="10.6482032"><ele>235.0</ele><time>2026-05-03T08:42:53.135Z</time></trkpt><trkpt lat="44.0366359" lon="10.6483349"><ele>235.0</ele><time>2026-05-03T08:42:54.136Z</time></trkpt><trkpt lat="44.0366777" lon="10.648483"><ele>235.0</ele><time>2026-05-03T08:42:55.136Z</time></trkpt><trkpt lat="44.0366792" lon="10.6486517"><ele>233.33333333333331</ele><time>2026-05-03T08:42:56.135Z</time></trkpt><trkpt lat="44.0366424" lon="10.6488319"><ele>231.66666666666669</ele><time>2026-05-03T08:42:57.136Z</time></trkpt><trkpt lat="44.0365684" lon="10.6490244"><ele>230.0</ele><time>2026-05-03T08:42:58.136Z</time></trkpt><trkpt lat="44.0364649" lon="10.649234"><ele>229.33333333333334</ele><time>2026-05-03T08:42:59.135Z</time></trkpt><trkpt lat="44.0363577" lon="10.6494312"><ele>228.66666666666669</ele><time>2026-05-03T08:43:00.135Z</time></trkpt><trkpt lat="44.036246" lon="10.6495888"><ele>228.0</ele><time>2026-05-03T08:43:01.135Z</time></trkpt><trkpt lat="44.0361124" lon="10.649719"><ele>228.0</ele><time>2026-05-03T08:43:02.136Z</time></trkpt><trkpt lat="44.0359584" lon="10.6498384"><ele>228.0</ele><time>2026-05-03T08:43:03.136Z</time></trkpt><trkpt lat="44.03579" lon="10.6499651"><ele>228.0</ele><time>2026-05-03T08:43:04.135Z</time></trkpt><trkpt lat="44.035608" lon="10.6500766"><ele>228.66666666666669</ele><time>2026-05-03T08:43:05.136Z</time></trkpt><trkpt lat="44.0354157" lon="10.6501745"><ele>229.33333333333334</ele><time>2026-05-03T08:43:06.136Z</time></trkpt><trkpt lat="44.0352327" lon="10.6502744"><ele>230.0</ele><time>2026-05-03T08:43:07.135Z</time></trkpt><trkpt lat="44.0350752" lon="10.6503701"><ele>229.33333333333334</ele><time>2026-05-03T08:43:08.135Z</time></trkpt><trkpt lat="44.0349415" lon="10.6504955"><ele>228.66666666666669</ele><time>2026-05-03T08:43:09.135Z</time></trkpt><trkpt lat="44.0348154" lon="10.6506448"><ele>228.0</ele><time>2026-05-03T08:43:10.136Z</time></trkpt><trkpt lat="44.0346958" lon="10.6508251"><ele>228.0</ele><time>2026-05-03T08:43:11.135Z</time></trkpt><trkpt lat="44.0345777" lon="10.6510202"><ele>228.0</ele><time>2026-05-03T08:43:12.135Z</time></trkpt><trkpt lat="44.0344577" lon="10.65123"><ele>228.0</ele><time>2026-05-03T08:43:13.135Z</time></trkpt><trkpt lat="44.0343307" lon="10.6514495"><ele>228.66666666666669</ele><time>2026-05-03T08:43:14.136Z</time></trkpt><trkpt lat="44.0342194" lon="10.6516578"><ele>229.33333333333334</ele><time>2026-05-03T08:43:15.135Z</time></trkpt><trkpt lat="44.0341278" lon="10.6518501"><ele>230.0</ele><time>2026-05-03T08:43:16.135Z</time></trkpt><trkpt lat="44.0340501" lon="10.6520342"><ele>229.0</ele><time>2026-05-03T08:43:17.135Z</time></trkpt><trkpt lat="44.0339903" lon="10.6521971"><ele>228.0</ele><time>2026-05-03T08:43:18.136Z</time></trkpt><trkpt lat="44.0339419" lon="10.6523473"><ele>227.0</ele><time>2026-05-03T08:43:19.136Z</time></trkpt><trkpt lat="44.0339303" lon="10.6524996"><ele>226.0</ele><time>2026-05-03T08:43:20.136Z</time></trkpt><trkpt lat="44.0339466" lon="10.6526633"><ele>226.25</ele><time>2026-05-03T08:43:21.135Z</time></trkpt><trkpt lat="44.0339906" lon="10.652829"><ele>226.5</ele><time>2026-05-03T08:43:22.136Z</time></trkpt><trkpt lat="44.0340603" lon="10.6529801"><ele>226.75</ele><time>2026-05-03T08:43:23.136Z</time></trkpt><trkpt lat="44.0341627" lon="10.6531034"><ele>227.0</ele><time>2026-05-03T08:43:24.136Z</time></trkpt><trkpt lat="44.0342911" lon="10.6531935"><ele>231.66666666666669</ele><time>2026-05-03T08:43:25.135Z</time></trkpt><trkpt lat="44.0344378" lon="10.6532547"><ele>236.33333333333331</ele><time>2026-05-03T08:43:26.135Z</time></trkpt><trkpt lat="44.034602" lon="10.6532974"><ele>241.0</ele><time>2026-05-03T08:43:27.136Z</time></trkpt><trkpt lat="44.034775" lon="10.6533387"><ele>241.0</ele><time>2026-05-03T08:43:28.136Z</time></trkpt><trkpt lat="44.0349543" lon="10.6533851"><ele>241.0</ele><time>2026-05-03T08:43:29.136Z</time></trkpt><trkpt lat="44.0351379" lon="10.6534401"><ele>241.0</ele><time>2026-05-03T08:43:30.136Z</time></trkpt><trkpt lat="44.0353201" lon="10.653495"><ele>241.0</ele><time>2026-05-03T08:43:31.135Z</time></trkpt><trkpt lat="44.0354895" lon="10.6535449"><ele>241.0</ele><time>2026-05-03T08:43:32.135Z</time></trkpt><trkpt lat="44.0356493" lon="10.6535897"><ele>241.0</ele><time>2026-05-03T08:43:33.136Z</time></trkpt><trkpt lat="44.0357999" lon="10.6536351"><ele>241.75</ele><time>2026-05-03T08:43:34.136Z</time></trkpt><trkpt lat="44.0359399" lon="10.6536773"><ele>242.5</ele><time>2026-05-03T08:43:35.136Z</time></trkpt><trkpt lat="44.0360686" lon="10.6537133"><ele>243.25</ele><time>2026-05-03T08:43:36.136Z</time></trkpt><trkpt lat="44.0361837" lon="10.6537622"><ele>244.0</ele><time>2026-05-03T08:43:37.136Z</time></trkpt><trkpt lat="44.0362875" lon="10.6538454"><ele>244.0</ele><time>2026-05-03T08:43:38.135Z</time></trkpt><trkpt lat="44.0363873" lon="10.6539652"><ele>244.0</ele><time>2026-05-03T08:43:39.135Z</time></trkpt><trkpt lat="44.0364873" lon="10.6541093"><ele>244.0</ele><time>2026-05-03T08:43:40.135Z</time></trkpt><trkpt lat="44.0365945" lon="10.6542636"><ele>244.0</ele><time>2026-05-03T08:43:41.135Z</time></trkpt><trkpt lat="44.0367019" lon="10.6544232"><ele>242.75</ele><time>2026-05-03T08:43:42.136Z</time></trkpt><trkpt lat="44.0367943" lon="10.6545733"><ele>241.5</ele><time>2026-05-03T08:43:43.135Z</time></trkpt><trkpt lat="44.0368777" lon="10.6547116"><ele>240.25</ele><time>2026-05-03T08:43:44.135Z</time></trkpt><trkpt lat="44.0369549" lon="10.6548492"><ele>239.0</ele><time>2026-05-03T08:43:45.135Z</time></trkpt><trkpt lat="44.0370179" lon="10.6549981"><ele>239.0</ele><time>2026-05-03T08:43:46.136Z</time></trkpt><trkpt lat="44.0370568" lon="10.6551603"><ele>239.0</ele><time>2026-05-03T08:43:47.135Z</time></trkpt><trkpt lat="44.0370624" lon="10.6553427"><ele>239.0</ele><time>2026-05-03T08:43:48.135Z</time></trkpt><trkpt lat="44.0370508" lon="10.655536"><ele>239.0</ele><time>2026-05-03T08:43:49.135Z</time></trkpt><trkpt lat="44.0370352" lon="10.6557315"><ele>238.25</ele><time>2026-05-03T08:43:50.136Z</time></trkpt><trkpt lat="44.0370234" lon="10.6559239"><ele>237.5</ele><time>2026-05-03T08:43:51.136Z</time></trkpt><trkpt lat="44.0370166" lon="10.6561149"><ele>236.75</ele><time>2026-05-03T08:43:52.136Z</time></trkpt><trkpt lat="44.0370121" lon="10.6562976"><ele>236.0</ele><time>2026-05-03T08:43:53.136Z</time></trkpt><trkpt lat="44.0370213" lon="10.6564701"><ele>234.75</ele><time>2026-05-03T08:43:54.136Z</time></trkpt><trkpt lat="44.0370509" lon="10.656637"><ele>233.5</ele><time>2026-05-03T08:43:55.136Z</time></trkpt><trkpt lat="44.0370995" lon="10.6567872"><ele>232.25</ele><time>2026-05-03T08:43:56.135Z</time></trkpt><trkpt lat="44.0371581" lon="10.6569313"><ele>231.0</ele><time>2026-05-03T08:43:57.136Z</time></trkpt><trkpt lat="44.037201" lon="10.6570643"><ele>230.20000000000002</ele><time>2026-05-03T08:43:58.136Z</time></trkpt><trkpt lat="44.037223" lon="10.6572029"><ele>229.40000000000003</ele><time>2026-05-03T08:43:59.136Z</time></trkpt><trkpt lat="44.0372266" lon="10.6573514"><ele>228.6</ele><time>2026-05-03T08:44:00.135Z</time></trkpt><trkpt lat="44.0372129" lon="10.6575065"><ele>227.8</ele><time>2026-05-03T08:44:01.136Z</time></trkpt><trkpt lat="44.0371928" lon="10.6576585"><ele>227.0</ele><time>2026-05-03T08:44:02.135Z</time></trkpt><trkpt lat="44.0371734" lon="10.6577998"><ele>228.8</ele><time>2026-05-03T08:44:03.136Z</time></trkpt><trkpt lat="44.037146" lon="10.6579393"><ele>230.6</ele><time>2026-05-03T08:44:04.135Z</time></trkpt><trkpt lat="44.0371033" lon="10.6580707"><ele>232.40000000000003</ele><time>2026-05-03T08:44:05.136Z</time></trkpt><trkpt lat="44.0370415" lon="10.6581914"><ele>234.20000000000002</ele><time>2026-05-03T08:44:06.135Z</time></trkpt><trkpt lat="44.0369705" lon="10.6582945"><ele>236.0</ele><time>2026-05-03T08:44:07.136Z</time></trkpt><trkpt lat="44.0368864" lon="10.6583735"><ele>236.0</ele><time>2026-05-03T08:44:08.136Z</time></trkpt><trkpt lat="44.0368004" lon="10.6584214"><ele>236.00000000000003</ele><time>2026-05-03T08:44:09.136Z</time></trkpt><trkpt lat="44.0367194" lon="10.6584399"><ele>236.00000000000003</ele><time>2026-05-03T08:44:10.136Z</time></trkpt><trkpt lat="44.0366482" lon="10.6584426"><ele>236.0</ele><time>2026-05-03T08:44:11.135Z</time></trkpt><trkpt lat="44.036531" lon="10.6584382"><ele>236.0</ele><time>2026-05-03T08:44:13.135Z</time></trkpt><trkpt lat="44.0364112" lon="10.6584673"><ele>236.0</ele><time>2026-05-03T08:44:15.136Z</time></trkpt><trkpt lat="44.0363525" lon="10.6585225"><ele>236.00000000000003</ele><time>2026-05-03T08:44:16.135Z</time></trkpt><trkpt lat="44.0362976" lon="10.6586125"><ele>236.00000000000003</ele><time>2026-05-03T08:44:17.136Z</time></trkpt><trkpt lat="44.0362441" lon="10.6587322"><ele>236.0</ele><time>2026-05-03T08:44:18.135Z</time></trkpt><trkpt lat="44.0361892" lon="10.6588665"><ele>236.0</ele><time>2026-05-03T08:44:19.135Z</time></trkpt><trkpt lat="44.0361426" lon="10.6589881"><ele>236.00000000000003</ele><time>2026-05-03T08:44:20.136Z</time></trkpt><trkpt lat="44.0361115" lon="10.6590917"><ele>236.0</ele><time>2026-05-03T08:44:21.136Z</time></trkpt><trkpt lat="44.0360997" lon="10.6591881"><ele>236.0</ele><time>2026-05-03T08:44:22.135Z</time></trkpt><trkpt lat="44.0361041" lon="10.6592827"><ele>236.0</ele><time>2026-05-03T08:44:23.136Z</time></trkpt><trkpt lat="44.0361333" lon="10.6593878"><ele>236.00000000000003</ele><time>2026-05-03T08:44:24.135Z</time></trkpt><trkpt lat="44.0361897" lon="10.6595281"><ele>236.0</ele><time>2026-05-03T08:44:25.135Z</time></trkpt><trkpt lat="44.0362743" lon="10.6596841"><ele>235.66666666666669</ele><time>2026-05-03T08:44:26.135Z</time></trkpt><trkpt lat="44.036374" lon="10.6598468"><ele>235.33333333333331</ele><time>2026-05-03T08:44:27.136Z</time></trkpt><trkpt lat="44.0364738" lon="10.6600045"><ele>235.0</ele><time>2026-05-03T08:44:28.136Z</time></trkpt><trkpt lat="44.036565" lon="10.6601806"><ele>238.0</ele><time>2026-05-03T08:44:29.135Z</time></trkpt><trkpt lat="44.0366695" lon="10.6603734"><ele>241.0</ele><time>2026-05-03T08:44:30.135Z</time></trkpt><trkpt lat="44.0367681" lon="10.6605502"><ele>244.0</ele><time>2026-05-03T08:44:31.135Z</time></trkpt><trkpt lat="44.0368565" lon="10.6607146"><ele>244.0</ele><time>2026-05-03T08:44:32.136Z</time></trkpt><trkpt lat="44.0369394" lon="10.6608883"><ele>244.0</ele><time>2026-05-03T08:44:33.136Z</time></trkpt><trkpt lat="44.0370191" lon="10.661068"><ele>244.0</ele><time>2026-05-03T08:44:34.135Z</time></trkpt><trkpt lat="44.0370972" lon="10.6612554"><ele>242.0</ele><time>2026-05-03T08:44:35.136Z</time></trkpt><trkpt lat="44.0371798" lon="10.6614475"><ele>240.0</ele><time>2026-05-03T08:44:36.136Z</time></trkpt><trkpt lat="44.0372596" lon="10.6616414"><ele>238.0</ele><time>2026-05-03T08:44:37.136Z</time></trkpt><trkpt lat="44.0373356" lon="10.661826"><ele>238.5</ele><time>2026-05-03T08:44:38.135Z</time></trkpt><trkpt lat="44.0374071" lon="10.6620067"><ele>239.0</ele><time>2026-05-03T08:44:39.136Z</time></trkpt><trkpt lat="44.0374706" lon="10.6621728"><ele>239.5</ele><time>2026-05-03T08:44:40.136Z</time></trkpt><trkpt lat="44.037528" lon="10.6623229"><ele>240.0</ele><time>2026-05-03T08:44:41.135Z</time></trkpt><trkpt lat="44.0375946" lon="10.6624521"><ele>244.0</ele><time>2026-05-03T08:44:42.135Z</time></trkpt><trkpt lat="44.0376782" lon="10.6625505"><ele>248.0</ele><time>2026-05-03T08:44:43.136Z</time></trkpt><trkpt lat="44.0377804" lon="10.6625983"><ele>252.0</ele><time>2026-05-03T08:44:44.135Z</time></trkpt><trkpt lat="44.0378997" lon="10.6626139"><ele>256.0</ele><time>2026-05-03T08:44:45.136Z</time></trkpt><trkpt lat="44.0380377" lon="10.6626116"><ele>256.0</ele><time>2026-05-03T08:44:46.135Z</time></trkpt><trkpt lat="44.0381958" lon="10.6625909"><ele>256.0</ele><time>2026-05-03T08:44:47.135Z</time></trkpt><trkpt lat="44.0383622" lon="10.6625689"><ele>256.0</ele><time>2026-05-03T08:44:48.135Z</time></trkpt><trkpt lat="44.0385409" lon="10.66255"><ele>264.3333333333333</ele><time>2026-05-03T08:44:49.135Z</time></trkpt><trkpt lat="44.0387299" lon="10.66253"><ele>272.6666666666667</ele><time>2026-05-03T08:44:50.135Z</time></trkpt><trkpt lat="44.0389075" lon="10.6625107"><ele>281.0</ele><time>2026-05-03T08:44:51.136Z</time></trkpt><trkpt lat="44.0390766" lon="10.6624955"><ele>282.6666666666667</ele><time>2026-05-03T08:44:52.136Z</time></trkpt><trkpt lat="44.0392373" lon="10.6624766"><ele>284.3333333333333</ele><time>2026-05-03T08:44:53.136Z</time></trkpt><trkpt lat="44.039388" lon="10.6624939"><ele>286.0</ele><time>2026-05-03T08:44:54.135Z</time></trkpt><trkpt lat="44.0395422" lon="10.6625197"><ele>286.0</ele><time>2026-05-03T08:44:55.136Z</time></trkpt><trkpt lat="44.0396909" lon="10.6625932"><ele>286.0</ele><time>2026-05-03T08:44:56.136Z</time></trkpt><trkpt lat="44.0398385" lon="10.6626839"><ele>286.0</ele><time>2026-05-03T08:44:57.136Z</time></trkpt><trkpt lat="44.0399911" lon="10.6627887"><ele>286.0</ele><time>2026-05-03T08:44:58.136Z</time></trkpt><trkpt lat="44.0401479" lon="10.6629013"><ele>286.0</ele><time>2026-05-03T08:44:59.136Z</time></trkpt><trkpt lat="44.0403059" lon="10.6630142"><ele>286.0</ele><time>2026-05-03T08:45:00.136Z</time></trkpt><trkpt lat="44.0404664" lon="10.6631314"><ele>286.0</ele><time>2026-05-03T08:45:01.136Z</time></trkpt><trkpt lat="44.040639" lon="10.6632558"><ele>286.0</ele><time>2026-05-03T08:45:02.135Z</time></trkpt><trkpt lat="44.0408178" lon="10.6633794"><ele>286.0</ele><time>2026-05-03T08:45:03.136Z</time></trkpt><trkpt lat="44.0410022" lon="10.6635121"><ele>285.66666666666663</ele><time>2026-05-03T08:45:04.135Z</time></trkpt><trkpt lat="44.0411845" lon="10.6636241"><ele>285.3333333333333</ele><time>2026-05-03T08:45:05.136Z</time></trkpt><trkpt lat="44.041373" lon="10.6637135"><ele>285.0</ele><time>2026-05-03T08:45:06.136Z</time></trkpt><trkpt lat="44.0415676" lon="10.6637998"><ele>278.6666666666667</ele><time>2026-05-03T08:45:07.135Z</time></trkpt><trkpt lat="44.0417732" lon="10.6638497"><ele>272.33333333333337</ele><time>2026-05-03T08:45:08.136Z</time></trkpt><trkpt lat="44.0419826" lon="10.6639083"><ele>266.0</ele><time>2026-05-03T08:45:09.135Z</time></trkpt><trkpt lat="44.0421926" lon="10.66397"><ele>266.0</ele><time>2026-05-03T08:45:10.135Z</time></trkpt><trkpt lat="44.0424025" lon="10.6640268"><ele>266.0</ele><time>2026-05-03T08:45:11.135Z</time></trkpt><trkpt lat="44.0426108" lon="10.6640766"><ele>266.0</ele><time>2026-05-03T08:45:12.136Z</time></trkpt><trkpt lat="44.0428221" lon="10.6641099"><ele>265.33333333333337</ele><time>2026-05-03T08:45:13.135Z</time></trkpt><trkpt lat="44.0430298" lon="10.664138"><ele>264.6666666666667</ele><time>2026-05-03T08:45:14.136Z</time></trkpt><trkpt lat="44.0432075" lon="10.664166"><ele>264.0</ele><time>2026-05-03T08:45:15.136Z</time></trkpt><trkpt lat="44.043374" lon="10.6641842"><ele>266.0</ele><time>2026-05-03T08:45:16.136Z</time></trkpt><trkpt lat="44.0435142" lon="10.6642159"><ele>268.0</ele><time>2026-05-03T08:45:17.135Z</time></trkpt><trkpt lat="44.0436473" lon="10.6642736"><ele>270.0</ele><time>2026-05-03T08:45:18.135Z</time></trkpt><trkpt lat="44.0437607" lon="10.6643694"><ele>272.0</ele><time>2026-05-03T08:45:19.136Z</time></trkpt><trkpt lat="44.0438391" lon="10.6645135"><ele>273.33333333333337</ele><time>2026-05-03T08:45:20.136Z</time></trkpt><trkpt lat="44.0438987" lon="10.6646901"><ele>274.6666666666667</ele><time>2026-05-03T08:45:21.135Z</time></trkpt><trkpt lat="44.0439566" lon="10.6648976"><ele>276.0</ele><time>2026-05-03T08:45:22.135Z</time></trkpt><trkpt lat="44.0440072" lon="10.6651428"><ele>287.3333333333333</ele><time>2026-05-03T08:45:23.135Z</time></trkpt><trkpt lat="44.0440611" lon="10.6653876"><ele>298.66666666666663</ele><time>2026-05-03T08:45:24.136Z</time></trkpt><trkpt lat="44.0441004" lon="10.6656113"><ele>310.0</ele><time>2026-05-03T08:45:25.135Z</time></trkpt><trkpt lat="44.0441022" lon="10.6658259"><ele>310.0</ele><time>2026-05-03T08:45:26.136Z</time></trkpt><trkpt lat="44.0441047" lon="10.6660258"><ele>310.0</ele><time>2026-05-03T08:45:27.136Z</time></trkpt><trkpt lat="44.044123" lon="10.6662202"><ele>310.0</ele><time>2026-05-03T08:45:28.135Z</time></trkpt><trkpt lat="44.0441693" lon="10.6664213"><ele>310.0</ele><time>2026-05-03T08:45:29.136Z</time></trkpt><trkpt lat="44.0442368" lon="10.6666368"><ele>298.3333333333333</ele><time>2026-05-03T08:45:30.136Z</time></trkpt><trkpt lat="44.0443156" lon="10.6668651"><ele>286.6666666666667</ele><time>2026-05-03T08:45:31.135Z</time></trkpt><trkpt lat="44.0443914" lon="10.6670908"><ele>275.0</ele><time>2026-05-03T08:45:32.135Z</time></trkpt><trkpt lat="44.0444661" lon="10.6673157"><ele>275.0</ele><time>2026-05-03T08:45:33.136Z</time></trkpt><trkpt lat="44.0445339" lon="10.6675473"><ele>275.0</ele><time>2026-05-03T08:45:34.135Z</time></trkpt><trkpt lat="44.0445912" lon="10.6677795"><ele>275.0</ele><time>2026-05-03T08:45:35.136Z</time></trkpt><trkpt lat="44.0446324" lon="10.6680093"><ele>280.0</ele><time>2026-05-03T08:45:36.135Z</time></trkpt><trkpt lat="44.0446617" lon="10.6682425"><ele>285.0</ele><time>2026-05-03T08:45:37.135Z</time></trkpt><trkpt lat="44.0446756" lon="10.6684779"><ele>290.0</ele><time>2026-05-03T08:45:38.135Z</time></trkpt><trkpt lat="44.044675" lon="10.6687062"><ele>290.0</ele><time>2026-05-03T08:45:39.135Z</time></trkpt><trkpt lat="44.0446583" lon="10.66893"><ele>290.0</ele><time>2026-05-03T08:45:40.136Z</time></trkpt><trkpt lat="44.0446276" lon="10.6691532"><ele>290.0</ele><time>2026-05-03T08:45:41.135Z</time></trkpt><trkpt lat="44.044588" lon="10.6693755"><ele>288.0</ele><time>2026-05-03T08:45:42.136Z</time></trkpt><trkpt lat="44.0445379" lon="10.6695965"><ele>286.0</ele><time>2026-05-03T08:45:43.136Z</time></trkpt><trkpt lat="44.0444702" lon="10.669823"><ele>284.0</ele><time>2026-05-03T08:45:44.135Z</time></trkpt><trkpt lat="44.0443932" lon="10.6700635"><ele>283.0</ele><time>2026-05-03T08:45:45.136Z</time></trkpt><trkpt lat="44.0443233" lon="10.6703103"><ele>282.0</ele><time>2026-05-03T08:45:46.135Z</time></trkpt><trkpt lat="44.0442595" lon="10.6705542"><ele>281.0</ele><time>2026-05-03T08:45:47.136Z</time></trkpt><trkpt lat="44.0441999" lon="10.6707806"><ele>281.0</ele><time>2026-05-03T08:45:48.136Z</time></trkpt><trkpt lat="44.044145" lon="10.6709905"><ele>281.0</ele><time>2026-05-03T08:45:49.135Z</time></trkpt><trkpt lat="44.0440939" lon="10.6711908"><ele>281.0</ele><time>2026-05-03T08:45:50.136Z</time></trkpt><trkpt lat="44.0440423" lon="10.6713972"><ele>279.6666666666667</ele><time>2026-05-03T08:45:51.136Z</time></trkpt><trkpt lat="44.0439894" lon="10.6716055"><ele>278.3333333333333</ele><time>2026-05-03T08:45:52.136Z</time></trkpt><trkpt lat="44.0439348" lon="10.6718115"><ele>277.0</ele><time>2026-05-03T08:45:53.136Z</time></trkpt><trkpt lat="44.0438814" lon="10.6720185"><ele>274.3333333333333</ele><time>2026-05-03T08:45:54.135Z</time></trkpt><trkpt lat="44.0438272" lon="10.6722285"><ele>271.6666666666667</ele><time>2026-05-03T08:45:55.135Z</time></trkpt><trkpt lat="44.0437745" lon="10.6724417"><ele>269.0</ele><time>2026-05-03T08:45:56.135Z</time></trkpt><trkpt lat="44.0437159" lon="10.6726959"><ele>270.5</ele><time>2026-05-03T08:45:57.135Z</time></trkpt><trkpt lat="44.0436454" lon="10.6729891"><ele>272.0</ele><time>2026-05-03T08:45:58.135Z</time></trkpt><trkpt lat="44.0435534" lon="10.6732998"><ele>272.0</ele><time>2026-05-03T08:45:59.135Z</time></trkpt><trkpt lat="44.0434634" lon="10.6735946"><ele>272.0</ele><time>2026-05-03T08:46:00.136Z</time></trkpt><trkpt lat="44.0433695" lon="10.673869"><ele>272.0</ele><time>2026-05-03T08:46:01.135Z</time></trkpt><trkpt lat="44.0432476" lon="10.6741152"><ele>272.5</ele><time>2026-05-03T08:46:02.136Z</time></trkpt><trkpt lat="44.0430969" lon="10.6743623"><ele>273.0</ele><time>2026-05-03T08:46:03.136Z</time></trkpt><trkpt lat="44.0429323" lon="10.6746213"><ele>273.6666666666667</ele><time>2026-05-03T08:46:04.136Z</time></trkpt><trkpt lat="44.0427886" lon="10.6748645"><ele>274.33333333333337</ele><time>2026-05-03T08:46:05.136Z</time></trkpt><trkpt lat="44.0426631" lon="10.6751078"><ele>275.0</ele><time>2026-05-03T08:46:06.135Z</time></trkpt><trkpt lat="44.0425563" lon="10.6753613"><ele>275.6666666666667</ele><time>2026-05-03T08:46:07.136Z</time></trkpt><trkpt lat="44.0424697" lon="10.6756292"><ele>276.3333333333333</ele><time>2026-05-03T08:46:08.135Z</time></trkpt><trkpt lat="44.0424002" lon="10.6759075"><ele>277.0</ele><time>2026-05-03T08:46:09.136Z</time></trkpt><trkpt lat="44.0423469" lon="10.676192"><ele>277.3333333333333</ele><time>2026-05-03T08:46:10.135Z</time></trkpt><trkpt lat="44.0423181" lon="10.6764828"><ele>277.6666666666667</ele><time>2026-05-03T08:46:11.135Z</time></trkpt><trkpt lat="44.0423153" lon="10.676776"><ele>278.0</ele><time>2026-05-03T08:46:12.135Z</time></trkpt><trkpt lat="44.0423352" lon="10.677066"><ele>277.33333333333337</ele><time>2026-05-03T08:46:13.136Z</time></trkpt><trkpt lat="44.0423708" lon="10.6773559"><ele>276.6666666666667</ele><time>2026-05-03T08:46:14.136Z</time></trkpt><trkpt lat="44.0424197" lon="10.6776441"><ele>276.0</ele><time>2026-05-03T08:46:15.136Z</time></trkpt><trkpt lat="44.0424957" lon="10.6779286"><ele>277.3333333333333</ele><time>2026-05-03T08:46:16.135Z</time></trkpt><trkpt lat="44.0425751" lon="10.678218"><ele>278.66666666666663</ele><time>2026-05-03T08:46:17.136Z</time></trkpt><trkpt lat="44.042658" lon="10.6785049"><ele>280.0</ele><time>2026-05-03T08:46:18.135Z</time></trkpt><trkpt lat="44.0427421" lon="10.6787972"><ele>280.0</ele><time>2026-05-03T08:46:19.135Z</time></trkpt><trkpt lat="44.0428186" lon="10.6790621"><ele>280.0</ele><time>2026-05-03T08:46:20.135Z</time></trkpt><trkpt lat="44.0428938" lon="10.679316"><ele>280.0</ele><time>2026-05-03T08:46:21.136Z</time></trkpt><trkpt lat="44.0429628" lon="10.6795523"><ele>281.66666666666663</ele><time>2026-05-03T08:46:22.136Z</time></trkpt><trkpt lat="44.0430281" lon="10.6797838"><ele>283.3333333333333</ele><time>2026-05-03T08:46:23.135Z</time></trkpt><trkpt lat="44.0430953" lon="10.6800103"><ele>285.0</ele><time>2026-05-03T08:46:24.136Z</time></trkpt><trkpt lat="44.0431608" lon="10.6802163"><ele>287.75</ele><time>2026-05-03T08:46:25.135Z</time></trkpt><trkpt lat="44.0432691" lon="10.6803508"><ele>290.5</ele><time>2026-05-03T08:46:26.135Z</time></trkpt><trkpt lat="44.0433642" lon="10.6804966"><ele>293.25</ele><time>2026-05-03T08:46:27.136Z</time></trkpt><trkpt lat="44.0434295" lon="10.6806565"><ele>296.0</ele><time>2026-05-03T08:46:28.135Z</time></trkpt><trkpt lat="44.0434714" lon="10.6808403"><ele>296.0</ele><time>2026-05-03T08:46:29.136Z</time></trkpt><trkpt lat="44.0435031" lon="10.6810336"><ele>296.0</ele><time>2026-05-03T08:46:30.136Z</time></trkpt><trkpt lat="44.0435289" lon="10.6812362"><ele>296.0</ele><time>2026-05-03T08:46:31.136Z</time></trkpt><trkpt lat="44.0435439" lon="10.6814453"><ele>296.0</ele><time>2026-05-03T08:46:32.135Z</time></trkpt><trkpt lat="44.0435377" lon="10.6816628"><ele>295.6666666666667</ele><time>2026-05-03T08:46:33.136Z</time></trkpt><trkpt lat="44.043514" lon="10.6818844"><ele>295.3333333333333</ele><time>2026-05-03T08:46:34.135Z</time></trkpt><trkpt lat="44.0434839" lon="10.6821012"><ele>295.0</ele><time>2026-05-03T08:46:35.136Z</time></trkpt><trkpt lat="44.0434554" lon="10.6823009"><ele>295.5</ele><time>2026-05-03T08:46:36.136Z</time></trkpt><trkpt lat="44.043428" lon="10.6824771"><ele>296.0</ele><time>2026-05-03T08:46:37.136Z</time></trkpt><trkpt lat="44.0434038" lon="10.6826409"><ele>296.5</ele><time>2026-05-03T08:46:38.135Z</time></trkpt><trkpt lat="44.0433805" lon="10.6828012"><ele>297.0</ele><time>2026-05-03T08:46:39.135Z</time></trkpt><trkpt lat="44.0433553" lon="10.6829682"><ele>297.0</ele><time>2026-05-03T08:46:40.135Z</time></trkpt><trkpt lat="44.0433276" lon="10.6831449"><ele>297.0</ele><time>2026-05-03T08:46:41.136Z</time></trkpt><trkpt lat="44.0433011" lon="10.6833281"><ele>297.0</ele><time>2026-05-03T08:46:42.135Z</time></trkpt><trkpt lat="44.0432747" lon="10.6835206"><ele>297.0</ele><time>2026-05-03T08:46:43.135Z</time></trkpt><trkpt lat="44.0432463" lon="10.6837231"><ele>296.0</ele><time>2026-05-03T08:46:44.136Z</time></trkpt><trkpt lat="44.0432156" lon="10.683934"><ele>295.0</ele><time>2026-05-03T08:46:45.136Z</time></trkpt><trkpt lat="44.0431846" lon="10.6841495"><ele>294.0</ele><time>2026-05-03T08:46:46.136Z</time></trkpt><trkpt lat="44.0431519" lon="10.6843714"><ele>294.0</ele><time>2026-05-03T08:46:47.136Z</time></trkpt><trkpt lat="44.0431176" lon="10.6845998"><ele>294.0</ele><time>2026-05-03T08:46:48.136Z</time></trkpt><trkpt lat="44.0430822" lon="10.684831"><ele>294.0</ele><time>2026-05-03T08:46:49.136Z</time></trkpt><trkpt lat="44.0430474" lon="10.6850579"><ele>294.0</ele><time>2026-05-03T08:46:50.136Z</time></trkpt><trkpt lat="44.043015" lon="10.685262"><ele>294.0</ele><time>2026-05-03T08:46:51.135Z</time></trkpt><trkpt lat="44.04299" lon="10.6854449"><ele>294.0</ele><time>2026-05-03T08:46:52.135Z</time></trkpt><trkpt lat="44.042969" lon="10.685615"><ele>294.0</ele><time>2026-05-03T08:46:53.136Z</time></trkpt><trkpt lat="44.0429478" lon="10.6857765"><ele>294.5</ele><time>2026-05-03T08:46:54.136Z</time></trkpt><trkpt lat="44.042918" lon="10.685942"><ele>295.0</ele><time>2026-05-03T08:46:55.136Z</time></trkpt><trkpt lat="44.0428733" lon="10.6861089"><ele>295.5</ele><time>2026-05-03T08:46:56.136Z</time></trkpt><trkpt lat="44.0428182" lon="10.6862873"><ele>296.0</ele><time>2026-05-03T08:46:57.136Z</time></trkpt><trkpt lat="44.0427651" lon="10.686463"><ele>296.0</ele><time>2026-05-03T08:46:58.136Z</time></trkpt><trkpt lat="44.0427102" lon="10.6866505"><ele>296.0</ele><time>2026-05-03T08:46:59.135Z</time></trkpt><trkpt lat="44.0426512" lon="10.6868453"><ele>296.0</ele><time>2026-05-03T08:47:00.136Z</time></trkpt><trkpt lat="44.0425928" lon="10.6870529"><ele>296.6666666666667</ele><time>2026-05-03T08:47:01.135Z</time></trkpt><trkpt lat="44.0425388" lon="10.6872639"><ele>297.3333333333333</ele><time>2026-05-03T08:47:02.136Z</time></trkpt><trkpt lat="44.0424849" lon="10.6874803"><ele>298.0</ele><time>2026-05-03T08:47:03.136Z</time></trkpt><trkpt lat="44.0424398" lon="10.6876876"><ele>296.0</ele><time>2026-05-03T08:47:04.135Z</time></trkpt><trkpt lat="44.0424078" lon="10.6879006"><ele>294.0</ele><time>2026-05-03T08:47:05.136Z</time></trkpt><trkpt lat="44.0423957" lon="10.6881183"><ele>292.0</ele><time>2026-05-03T08:47:06.135Z</time></trkpt><trkpt lat="44.0424116" lon="10.688333"><ele>292.0</ele><time>2026-05-03T08:47:07.135Z</time></trkpt><trkpt lat="44.0424593" lon="10.6885376"><ele>292.0</ele><time>2026-05-03T08:47:08.136Z</time></trkpt><trkpt lat="44.0425379" lon="10.6887216"><ele>292.0</ele><time>2026-05-03T08:47:09.135Z</time></trkpt><trkpt lat="44.0426436" lon="10.6888884"><ele>293.3333333333333</ele><time>2026-05-03T08:47:10.136Z</time></trkpt><trkpt lat="44.0427698" lon="10.6890479"><ele>294.6666666666667</ele><time>2026-05-03T08:47:11.135Z</time></trkpt><trkpt lat="44.0428958" lon="10.6892043"><ele>296.0</ele><time>2026-05-03T08:47:12.135Z</time></trkpt><trkpt lat="44.0430099" lon="10.6893536"><ele>297.33333333333337</ele><time>2026-05-03T08:47:13.136Z</time></trkpt><trkpt lat="44.0431178" lon="10.689512"><ele>298.6666666666667</ele><time>2026-05-03T08:47:14.135Z</time></trkpt><trkpt lat="44.0432128" lon="10.6896864"><ele>300.0</ele><time>2026-05-03T08:47:15.135Z</time></trkpt><trkpt lat="44.0432966" lon="10.6898605"><ele>299.25</ele><time>2026-05-03T08:47:16.135Z</time></trkpt><trkpt lat="44.0433795" lon="10.690023"><ele>298.5</ele><time>2026-05-03T08:47:17.136Z</time></trkpt><trkpt lat="44.0434786" lon="10.6901593"><ele>297.75</ele><time>2026-05-03T08:47:18.136Z</time></trkpt><trkpt lat="44.043601" lon="10.6902586"><ele>297.0</ele><time>2026-05-03T08:47:19.136Z</time></trkpt><trkpt lat="44.0437453" lon="10.6903372"><ele>297.0</ele><time>2026-05-03T08:47:20.135Z</time></trkpt><trkpt lat="44.0439042" lon="10.6904037"><ele>297.0</ele><time>2026-05-03T08:47:21.136Z</time></trkpt><trkpt lat="44.0440724" lon="10.690474"><ele>297.0</ele><time>2026-05-03T08:47:22.135Z</time></trkpt><trkpt lat="44.044249" lon="10.6905695"><ele>298.3333333333333</ele><time>2026-05-03T08:47:23.136Z</time></trkpt><trkpt lat="44.0444276" lon="10.6906836"><ele>299.66666666666663</ele><time>2026-05-03T08:47:24.136Z</time></trkpt><trkpt lat="44.0446104" lon="10.6908215"><ele>301.0</ele><time>2026-05-03T08:47:25.135Z</time></trkpt><trkpt lat="44.0448007" lon="10.6909739"><ele>301.0</ele><time>2026-05-03T08:47:26.136Z</time></trkpt><trkpt lat="44.0449739" lon="10.6911171"><ele>301.0</ele><time>2026-05-03T08:47:27.135Z</time></trkpt><trkpt lat="44.0451455" lon="10.6912745"><ele>301.0</ele><time>2026-05-03T08:47:28.136Z</time></trkpt><trkpt lat="44.0453073" lon="10.6914488"><ele>301.0</ele><time>2026-05-03T08:47:29.136Z</time></trkpt><trkpt lat="44.0454593" lon="10.6916418"><ele>301.0</ele><time>2026-05-03T08:47:30.135Z</time></trkpt><trkpt lat="44.0456021" lon="10.6918498"><ele>301.0</ele><time>2026-05-03T08:47:31.135Z</time></trkpt><trkpt lat="44.0457322" lon="10.6920543"><ele>303.3333333333333</ele><time>2026-05-03T08:47:32.136Z</time></trkpt><trkpt lat="44.0458603" lon="10.6922588"><ele>305.6666666666667</ele><time>2026-05-03T08:47:33.135Z</time></trkpt><trkpt lat="44.0459899" lon="10.6924399"><ele>308.0</ele><time>2026-05-03T08:47:34.136Z</time></trkpt><trkpt lat="44.046116" lon="10.6925939"><ele>308.0</ele><time>2026-05-03T08:47:35.136Z</time></trkpt><trkpt lat="44.0462319" lon="10.6927391"><ele>308.0</ele><time>2026-05-03T08:47:36.135Z</time></trkpt><trkpt lat="44.0463192" lon="10.692901"><ele>308.0</ele><time>2026-05-03T08:47:37.135Z</time></trkpt><trkpt lat="44.0463684" lon="10.6930727"><ele>308.0</ele><time>2026-05-03T08:47:38.136Z</time></trkpt><trkpt lat="44.0463995" lon="10.6932478"><ele>308.33333333333337</ele><time>2026-05-03T08:47:39.136Z</time></trkpt><trkpt lat="44.0463551" lon="10.6934589"><ele>308.6666666666667</ele><time>2026-05-03T08:47:40.136Z</time></trkpt><trkpt lat="44.0463137" lon="10.6936764"><ele>309.0</ele><time>2026-05-03T08:47:41.136Z</time></trkpt><trkpt lat="44.0462538" lon="10.6939172"><ele>309.0</ele><time>2026-05-03T08:47:42.136Z</time></trkpt><trkpt lat="44.046188" lon="10.6941734"><ele>309.0</ele><time>2026-05-03T08:47:43.135Z</time></trkpt><trkpt lat="44.0461234" lon="10.6944339"><ele>309.0</ele><time>2026-05-03T08:47:44.136Z</time></trkpt><trkpt lat="44.046074" lon="10.6947017"><ele>310.0</ele><time>2026-05-03T08:47:45.135Z</time></trkpt><trkpt lat="44.0460459" lon="10.6949801"><ele>311.0</ele><time>2026-05-03T08:47:46.135Z</time></trkpt><trkpt lat="44.046035" lon="10.6952689"><ele>312.0</ele><time>2026-05-03T08:47:47.135Z</time></trkpt><trkpt lat="44.0460412" lon="10.6955724"><ele>312.0</ele><time>2026-05-03T08:47:48.136Z</time></trkpt><trkpt lat="44.0460532" lon="10.6958946"><ele>312.0</ele><time>2026-05-03T08:47:49.136Z</time></trkpt><trkpt lat="44.0460695" lon="10.6962329"><ele>309.0</ele><time>2026-05-03T08:47:50.135Z</time></trkpt><trkpt lat="44.0460833" lon="10.6965567"><ele>306.0</ele><time>2026-05-03T08:47:51.135Z</time></trkpt><trkpt lat="44.0460771" lon="10.6968644"><ele>307.0</ele><time>2026-05-03T08:47:52.135Z</time></trkpt><trkpt lat="44.0460485" lon="10.6971524"><ele>308.0</ele><time>2026-05-03T08:47:53.136Z</time></trkpt><trkpt lat="44.045997" lon="10.6974305"><ele>309.0</ele><time>2026-05-03T08:47:54.136Z</time></trkpt><trkpt lat="44.0459323" lon="10.6977176"><ele>311.3333333333333</ele><time>2026-05-03T08:47:55.135Z</time></trkpt><trkpt lat="44.0458609" lon="10.6980149"><ele>313.66666666666663</ele><time>2026-05-03T08:47:56.136Z</time></trkpt><trkpt lat="44.0457967" lon="10.6982938"><ele>316.0</ele><time>2026-05-03T08:47:57.136Z</time></trkpt><trkpt lat="44.0457359" lon="10.6985532"><ele>319.66666666666663</ele><time>2026-05-03T08:47:58.136Z</time></trkpt><trkpt lat="44.0456867" lon="10.6987842"><ele>323.3333333333333</ele><time>2026-05-03T08:47:59.135Z</time></trkpt><trkpt lat="44.0456621" lon="10.6989965"><ele>327.0</ele><time>2026-05-03T08:48:00.136Z</time></trkpt><trkpt lat="44.0456666" lon="10.6992061"><ele>327.6666666666667</ele><time>2026-05-03T08:48:01.136Z</time></trkpt><trkpt lat="44.0456896" lon="10.6994294"><ele>328.33333333333337</ele><time>2026-05-03T08:48:02.135Z</time></trkpt><trkpt lat="44.0457036" lon="10.6996686"><ele>329.0</ele><time>2026-05-03T08:48:03.136Z</time></trkpt><trkpt lat="44.0457037" lon="10.6999227"><ele>329.0</ele><time>2026-05-03T08:48:04.135Z</time></trkpt><trkpt lat="44.0456861" lon="10.700182"><ele>329.0</ele><time>2026-05-03T08:48:05.135Z</time></trkpt><trkpt lat="44.0456592" lon="10.700454"><ele>329.0</ele><time>2026-05-03T08:48:06.136Z</time></trkpt><trkpt lat="44.0456275" lon="10.7007377"><ele>330.33333333333337</ele><time>2026-05-03T08:48:07.135Z</time></trkpt><trkpt lat="44.045597" lon="10.701041"><ele>331.6666666666667</ele><time>2026-05-03T08:48:08.135Z</time></trkpt><trkpt lat="44.0455714" lon="10.7013329"><ele>333.0</ele><time>2026-05-03T08:48:09.136Z</time></trkpt><trkpt lat="44.0455518" lon="10.7016059"><ele>333.3333333333333</ele><time>2026-05-03T08:48:10.135Z</time></trkpt><trkpt lat="44.0455298" lon="10.7018636"><ele>333.66666666666663</ele><time>2026-05-03T08:48:11.136Z</time></trkpt><trkpt lat="44.0454868" lon="10.7020998"><ele>334.0</ele><time>2026-05-03T08:48:12.136Z</time></trkpt><trkpt lat="44.0454219" lon="10.7023328"><ele>332.3333333333333</ele><time>2026-05-03T08:48:13.135Z</time></trkpt><trkpt lat="44.045333" lon="10.7025538"><ele>330.6666666666667</ele><time>2026-05-03T08:48:14.135Z</time></trkpt><trkpt lat="44.0452218" lon="10.7027695"><ele>329.0</ele><time>2026-05-03T08:48:15.135Z</time></trkpt><trkpt lat="44.0450964" lon="10.7029918"><ele>328.6666666666667</ele><time>2026-05-03T08:48:16.136Z</time></trkpt><trkpt lat="44.0449611" lon="10.7032139"><ele>328.3333333333333</ele><time>2026-05-03T08:48:17.136Z</time></trkpt><trkpt lat="44.0448177" lon="10.7034281"><ele>328.0</ele><time>2026-05-03T08:48:18.135Z</time></trkpt><trkpt lat="44.044669" lon="10.7036377"><ele>328.0</ele><time>2026-05-03T08:48:19.136Z</time></trkpt><trkpt lat="44.0445291" lon="10.7038369"><ele>328.0</ele><time>2026-05-03T08:48:20.136Z</time></trkpt><trkpt lat="44.0444012" lon="10.7040281"><ele>328.0</ele><time>2026-05-03T08:48:21.136Z</time></trkpt><trkpt lat="44.0442821" lon="10.7042312"><ele>327.66666666666663</ele><time>2026-05-03T08:48:22.136Z</time></trkpt><trkpt lat="44.0441707" lon="10.7044461"><ele>327.3333333333333</ele><time>2026-05-03T08:48:23.135Z</time></trkpt><trkpt lat="44.0440591" lon="10.7046708"><ele>327.0</ele><time>2026-05-03T08:48:24.136Z</time></trkpt><trkpt lat="44.0439456" lon="10.7048962"><ele>327.0</ele><time>2026-05-03T08:48:25.136Z</time></trkpt><trkpt lat="44.0438283" lon="10.7051176"><ele>327.0</ele><time>2026-05-03T08:48:26.135Z</time></trkpt><trkpt lat="44.0437201" lon="10.7053251"><ele>327.0</ele><time>2026-05-03T08:48:27.136Z</time></trkpt><trkpt lat="44.0436294" lon="10.7055365"><ele>327.3333333333333</ele><time>2026-05-03T08:48:28.136Z</time></trkpt><trkpt lat="44.0435628" lon="10.7057621"><ele>327.66666666666663</ele><time>2026-05-03T08:48:29.135Z</time></trkpt><trkpt lat="44.0435099" lon="10.7060077"><ele>328.0</ele><time>2026-05-03T08:48:30.135Z</time></trkpt><trkpt lat="44.0434604" lon="10.7062656"><ele>328.0</ele><time>2026-05-03T08:48:31.135Z</time></trkpt><trkpt lat="44.0434055" lon="10.7065253"><ele>328.0</ele><time>2026-05-03T08:48:32.136Z</time></trkpt><trkpt lat="44.0433449" lon="10.7067936"><ele>328.0</ele><time>2026-05-03T08:48:33.136Z</time></trkpt><trkpt lat="44.0432824" lon="10.7070697"><ele>326.0</ele><time>2026-05-03T08:48:34.136Z</time></trkpt><trkpt lat="44.0432187" lon="10.7073431"><ele>324.0</ele><time>2026-05-03T08:48:35.136Z</time></trkpt><trkpt lat="44.0431577" lon="10.7076191"><ele>322.0</ele><time>2026-05-03T08:48:36.136Z</time></trkpt><trkpt lat="44.0431127" lon="10.7078947"><ele>321.0</ele><time>2026-05-03T08:48:37.135Z</time></trkpt><trkpt lat="44.0430887" lon="10.7081758"><ele>320.0</ele><time>2026-05-03T08:48:38.135Z</time></trkpt><trkpt lat="44.0430818" lon="10.70847"><ele>319.0</ele><time>2026-05-03T08:48:39.135Z</time></trkpt><trkpt lat="44.0430853" lon="10.7087706"><ele>318.5</ele><time>2026-05-03T08:48:40.136Z</time></trkpt><trkpt lat="44.0430925" lon="10.7090851"><ele>318.0</ele><time>2026-05-03T08:48:41.135Z</time></trkpt><trkpt lat="44.0431024" lon="10.7094021"><ele>319.0</ele><time>2026-05-03T08:48:42.135Z</time></trkpt><trkpt lat="44.0431102" lon="10.7096941"><ele>320.0</ele><time>2026-05-03T08:48:43.136Z</time></trkpt><trkpt lat="44.0431131" lon="10.7099845"><ele>321.0</ele><time>2026-05-03T08:48:44.136Z</time></trkpt><trkpt lat="44.0431122" lon="10.7102691"><ele>325.6666666666667</ele><time>2026-05-03T08:48:45.135Z</time></trkpt><trkpt lat="44.0431163" lon="10.7105331"><ele>330.33333333333337</ele><time>2026-05-03T08:48:46.136Z</time></trkpt><trkpt lat="44.0431211" lon="10.7107921"><ele>335.0</ele><time>2026-05-03T08:48:47.135Z</time></trkpt><trkpt lat="44.0431233" lon="10.7110698"><ele>337.6666666666667</ele><time>2026-05-03T08:48:48.135Z</time></trkpt><trkpt lat="44.0431252" lon="10.711338"><ele>340.3333333333333</ele><time>2026-05-03T08:48:49.135Z</time></trkpt><trkpt lat="44.043126" lon="10.7116001"><ele>343.0</ele><time>2026-05-03T08:48:50.136Z</time></trkpt><trkpt lat="44.0431331" lon="10.7118567"><ele>343.0</ele><time>2026-05-03T08:48:51.136Z</time></trkpt><trkpt lat="44.0431523" lon="10.7121175"><ele>343.0</ele><time>2026-05-03T08:48:52.135Z</time></trkpt><trkpt lat="44.0431847" lon="10.7123753"><ele>343.0</ele><time>2026-05-03T08:48:53.136Z</time></trkpt><trkpt lat="44.0432365" lon="10.7126338"><ele>343.66666666666663</ele><time>2026-05-03T08:48:54.135Z</time></trkpt><trkpt lat="44.0433087" lon="10.7129023"><ele>344.3333333333333</ele><time>2026-05-03T08:48:55.135Z</time></trkpt><trkpt lat="44.043401" lon="10.7131777"><ele>345.0</ele><time>2026-05-03T08:48:56.136Z</time></trkpt><trkpt lat="44.0435097" lon="10.7134631"><ele>338.5</ele><time>2026-05-03T08:48:57.135Z</time></trkpt><trkpt lat="44.0436227" lon="10.7137444"><ele>332.0</ele><time>2026-05-03T08:48:58.135Z</time></trkpt><trkpt lat="44.0437356" lon="10.7140232"><ele>332.0</ele><time>2026-05-03T08:48:59.135Z</time></trkpt><trkpt lat="44.0438511" lon="10.714306"><ele>332.0</ele><time>2026-05-03T08:49:00.136Z</time></trkpt><trkpt lat="44.0439619" lon="10.7145766"><ele>332.0</ele><time>2026-05-03T08:49:01.135Z</time></trkpt><trkpt lat="44.0440684" lon="10.7148403"><ele>332.0</ele><time>2026-05-03T08:49:02.135Z</time></trkpt><trkpt lat="44.0441719" lon="10.7150963"><ele>332.0</ele><time>2026-05-03T08:49:03.136Z</time></trkpt><trkpt lat="44.0442725" lon="10.7153382"><ele>332.0</ele><time>2026-05-03T08:49:04.135Z</time></trkpt><trkpt lat="44.0443695" lon="10.7155684"><ele>332.0</ele><time>2026-05-03T08:49:05.135Z</time></trkpt><trkpt lat="44.0444605" lon="10.7157868"><ele>332.0</ele><time>2026-05-03T08:49:06.136Z</time></trkpt><trkpt lat="44.0445424" lon="10.715998"><ele>332.0</ele><time>2026-05-03T08:49:07.136Z</time></trkpt><trkpt lat="44.0446074" lon="10.7162106"><ele>332.0</ele><time>2026-05-03T08:49:08.135Z</time></trkpt><trkpt lat="44.0446638" lon="10.716437"><ele>332.0</ele><time>2026-05-03T08:49:09.135Z</time></trkpt><trkpt lat="44.0447096" lon="10.7166778"><ele>333.0</ele><time>2026-05-03T08:49:10.136Z</time></trkpt><trkpt lat="44.0447429" lon="10.7169293"><ele>334.0</ele><time>2026-05-03T08:49:11.135Z</time></trkpt><trkpt lat="44.0447582" lon="10.7171888"><ele>335.0</ele><time>2026-05-03T08:49:12.136Z</time></trkpt><trkpt lat="44.0447528" lon="10.7174609"><ele>335.0</ele><time>2026-05-03T08:49:13.135Z</time></trkpt><trkpt lat="44.0447273" lon="10.7177317"><ele>335.0</ele><time>2026-05-03T08:49:14.136Z</time></trkpt><trkpt lat="44.0446792" lon="10.717998"><ele>335.0</ele><time>2026-05-03T08:49:15.135Z</time></trkpt><trkpt lat="44.0446007" lon="10.7182505"><ele>336.6666666666667</ele><time>2026-05-03T08:49:16.135Z</time></trkpt><trkpt lat="44.044507" lon="10.7184869"><ele>338.3333333333333</ele><time>2026-05-03T08:49:17.136Z</time></trkpt><trkpt lat="44.0444008" lon="10.7187141"><ele>340.0</ele><time>2026-05-03T08:49:18.136Z</time></trkpt><trkpt lat="44.0442908" lon="10.7189335"><ele>340.3333333333333</ele><time>2026-05-03T08:49:19.135Z</time></trkpt><trkpt lat="44.0441854" lon="10.7191439"><ele>340.6666666666667</ele><time>2026-05-03T08:49:20.136Z</time></trkpt><trkpt lat="44.0440839" lon="10.7193454"><ele>341.0</ele><time>2026-05-03T08:49:21.136Z</time></trkpt><trkpt lat="44.0439829" lon="10.7195465"><ele>341.0</ele><time>2026-05-03T08:49:22.136Z</time></trkpt><trkpt lat="44.0438813" lon="10.7197473"><ele>341.0</ele><time>2026-05-03T08:49:23.136Z</time></trkpt><trkpt lat="44.0437878" lon="10.7199572"><ele>341.0</ele><time>2026-05-03T08:49:24.135Z</time></trkpt><trkpt lat="44.0437114" lon="10.720178"><ele>340.6666666666667</ele><time>2026-05-03T08:49:25.136Z</time></trkpt><trkpt lat="44.0436552" lon="10.720406"><ele>340.3333333333333</ele><time>2026-05-03T08:49:26.136Z</time></trkpt><trkpt lat="44.0436162" lon="10.7206412"><ele>340.0</ele><time>2026-05-03T08:49:27.135Z</time></trkpt><trkpt lat="44.0435787" lon="10.7208699"><ele>344.3333333333333</ele><time>2026-05-03T08:49:28.135Z</time></trkpt><trkpt lat="44.0435217" lon="10.7210792"><ele>348.6666666666667</ele><time>2026-05-03T08:49:29.136Z</time></trkpt><trkpt lat="44.0434372" lon="10.7212726"><ele>353.0</ele><time>2026-05-03T08:49:30.135Z</time></trkpt><trkpt lat="44.0433398" lon="10.7214816"><ele>350.6666666666667</ele><time>2026-05-03T08:49:31.135Z</time></trkpt><trkpt lat="44.0432368" lon="10.7217075"><ele>348.3333333333333</ele><time>2026-05-03T08:49:32.135Z</time></trkpt><trkpt lat="44.0431261" lon="10.7219444"><ele>346.0</ele><time>2026-05-03T08:49:33.136Z</time></trkpt><trkpt lat="44.0430093" lon="10.7221952"><ele>346.0</ele><time>2026-05-03T08:49:34.135Z</time></trkpt><trkpt lat="44.0428863" lon="10.7224547"><ele>346.0</ele><time>2026-05-03T08:49:35.135Z</time></trkpt><trkpt lat="44.0427599" lon="10.7227298"><ele>353.0</ele><time>2026-05-03T08:49:36.136Z</time></trkpt><trkpt lat="44.0426299" lon="10.7230214"><ele>360.0</ele><time>2026-05-03T08:49:37.135Z</time></trkpt><trkpt lat="44.0425179" lon="10.7232977"><ele>355.3333333333333</ele><time>2026-05-03T08:49:38.136Z</time></trkpt><trkpt lat="44.0424176" lon="10.7235656"><ele>350.66666666666663</ele><time>2026-05-03T08:49:39.135Z</time></trkpt><trkpt lat="44.0423223" lon="10.7238341"><ele>346.0</ele><time>2026-05-03T08:49:40.136Z</time></trkpt><trkpt lat="44.0422322" lon="10.7240983"><ele>346.0</ele><time>2026-05-03T08:49:41.136Z</time></trkpt><trkpt lat="44.0421444" lon="10.7243622"><ele>346.0</ele><time>2026-05-03T08:49:42.135Z</time></trkpt><trkpt lat="44.0420525" lon="10.7246201"><ele>346.0</ele><time>2026-05-03T08:49:43.135Z</time></trkpt><trkpt lat="44.0419482" lon="10.7248642"><ele>351.0</ele><time>2026-05-03T08:49:44.135Z</time></trkpt><trkpt lat="44.0418255" lon="10.7250818"><ele>356.0</ele><time>2026-05-03T08:49:45.136Z</time></trkpt><trkpt lat="44.041688" lon="10.725289"><ele>361.0</ele><time>2026-05-03T08:49:46.135Z</time></trkpt><trkpt lat="44.0415425" lon="10.7255034"><ele>361.0</ele><time>2026-05-03T08:49:47.135Z</time></trkpt><trkpt lat="44.0413996" lon="10.7257198"><ele>361.0</ele><time>2026-05-03T08:49:48.136Z</time></trkpt><trkpt lat="44.0412448" lon="10.7259215"><ele>361.0</ele><time>2026-05-03T08:49:49.135Z</time></trkpt><trkpt lat="44.0410828" lon="10.7261042"><ele>359.3333333333333</ele><time>2026-05-03T08:49:50.135Z</time></trkpt><trkpt lat="44.0409203" lon="10.7262629"><ele>357.6666666666667</ele><time>2026-05-03T08:49:51.136Z</time></trkpt><trkpt lat="44.0407645" lon="10.7264176"><ele>356.0</ele><time>2026-05-03T08:49:52.136Z</time></trkpt><trkpt lat="44.0406139" lon="10.7265875"><ele>356.0</ele><time>2026-05-03T08:49:53.136Z</time></trkpt><trkpt lat="44.0404773" lon="10.7267786"><ele>356.0</ele><time>2026-05-03T08:49:54.136Z</time></trkpt><trkpt lat="44.0403558" lon="10.7269916"><ele>356.0</ele><time>2026-05-03T08:49:55.136Z</time></trkpt><trkpt lat="44.040248" lon="10.7272188"><ele>362.33333333333337</ele><time>2026-05-03T08:49:56.136Z</time></trkpt><trkpt lat="44.0401532" lon="10.7274527"><ele>368.6666666666667</ele><time>2026-05-03T08:49:57.136Z</time></trkpt><trkpt lat="44.0400766" lon="10.7276768"><ele>375.0</ele><time>2026-05-03T08:49:58.136Z</time></trkpt><trkpt lat="44.0400136" lon="10.7278973"><ele>369.6666666666667</ele><time>2026-05-03T08:49:59.136Z</time></trkpt><trkpt lat="44.0399769" lon="10.7281171"><ele>364.33333333333337</ele><time>2026-05-03T08:50:00.136Z</time></trkpt><trkpt lat="44.0399611" lon="10.7283466"><ele>359.0</ele><time>2026-05-03T08:50:01.136Z</time></trkpt><trkpt lat="44.0399505" lon="10.7285864"><ele>359.0</ele><time>2026-05-03T08:50:02.136Z</time></trkpt><trkpt lat="44.0399397" lon="10.7288342"><ele>359.0</ele><time>2026-05-03T08:50:03.135Z</time></trkpt><trkpt lat="44.0399293" lon="10.7290859"><ele>359.0</ele><time>2026-05-03T08:50:04.136Z</time></trkpt><trkpt lat="44.039913" lon="10.7293401"><ele>358.0</ele><time>2026-05-03T08:50:05.136Z</time></trkpt><trkpt lat="44.0399042" lon="10.7295921"><ele>357.0</ele><time>2026-05-03T08:50:06.136Z</time></trkpt><trkpt lat="44.0399271" lon="10.7298484"><ele>356.0</ele><time>2026-05-03T08:50:07.136Z</time></trkpt><trkpt lat="44.0399707" lon="10.7301081"><ele>362.6666666666667</ele><time>2026-05-03T08:50:08.135Z</time></trkpt><trkpt lat="44.0400321" lon="10.7303627"><ele>369.3333333333333</ele><time>2026-05-03T08:50:09.135Z</time></trkpt><trkpt lat="44.0401001" lon="10.7305881"><ele>376.0</ele><time>2026-05-03T08:50:10.135Z</time></trkpt><trkpt lat="44.0401872" lon="10.7307811"><ele>376.0</ele><time>2026-05-03T08:50:11.136Z</time></trkpt><trkpt lat="44.0402901" lon="10.7309576"><ele>376.0</ele><time>2026-05-03T08:50:12.135Z</time></trkpt><trkpt lat="44.0403911" lon="10.7311311"><ele>376.0</ele><time>2026-05-03T08:50:13.136Z</time></trkpt><trkpt lat="44.0404822" lon="10.731295"><ele>375.0</ele><time>2026-05-03T08:50:14.136Z</time></trkpt><trkpt lat="44.0405548" lon="10.7314533"><ele>374.0</ele><time>2026-05-03T08:50:15.135Z</time></trkpt><trkpt lat="44.0405883" lon="10.7316079"><ele>373.0</ele><time>2026-05-03T08:50:16.135Z</time></trkpt><trkpt lat="44.0405847" lon="10.7317713"><ele>372.0</ele><time>2026-05-03T08:50:17.135Z</time></trkpt><trkpt lat="44.0405589" lon="10.7319592"><ele>372.0</ele><time>2026-05-03T08:50:18.135Z</time></trkpt><trkpt lat="44.0405478" lon="10.7321697"><ele>372.0</ele><time>2026-05-03T08:50:19.135Z</time></trkpt><trkpt lat="44.0405592" lon="10.7323846"><ele>372.0</ele><time>2026-05-03T08:50:20.135Z</time></trkpt><trkpt lat="44.0406012" lon="10.7325969"><ele>373.6666666666667</ele><time>2026-05-03T08:50:21.135Z</time></trkpt><trkpt lat="44.0406693" lon="10.732801"><ele>375.33333333333337</ele><time>2026-05-03T08:50:22.135Z</time></trkpt><trkpt lat="44.0407529" lon="10.7330038"><ele>377.0</ele><time>2026-05-03T08:50:23.135Z</time></trkpt><trkpt lat="44.0408412" lon="10.7332042"><ele>383.75</ele><time>2026-05-03T08:50:24.135Z</time></trkpt><trkpt lat="44.0409196" lon="10.7333966"><ele>390.5</ele><time>2026-05-03T08:50:25.135Z</time></trkpt><trkpt lat="44.0409752" lon="10.7335651"><ele>397.25</ele><time>2026-05-03T08:50:26.135Z</time></trkpt><trkpt lat="44.0410057" lon="10.733726"><ele>404.0</ele><time>2026-05-03T08:50:27.136Z</time></trkpt><trkpt lat="44.0409993" lon="10.7338792"><ele>405.2</ele><time>2026-05-03T08:50:28.135Z</time></trkpt><trkpt lat="44.040959" lon="10.7340116"><ele>406.4</ele><time>2026-05-03T08:50:29.135Z</time></trkpt><trkpt lat="44.0408883" lon="10.7341133"><ele>407.6</ele><time>2026-05-03T08:50:30.135Z</time></trkpt><trkpt lat="44.0408042" lon="10.7342114"><ele>408.8</ele><time>2026-05-03T08:50:31.135Z</time></trkpt><trkpt lat="44.0407253" lon="10.7343363"><ele>410.0</ele><time>2026-05-03T08:50:32.135Z</time></trkpt><trkpt lat="44.0406757" lon="10.7344996"><ele>401.5</ele><time>2026-05-03T08:50:33.136Z</time></trkpt><trkpt lat="44.0406556" lon="10.7346822"><ele>393.0</ele><time>2026-05-03T08:50:34.136Z</time></trkpt><trkpt lat="44.0406695" lon="10.7348774"><ele>384.5</ele><time>2026-05-03T08:50:35.135Z</time></trkpt><trkpt lat="44.0407044" lon="10.7350715"><ele>376.0</ele><time>2026-05-03T08:50:36.136Z</time></trkpt><trkpt lat="44.0407491" lon="10.7352525"><ele>376.0</ele><time>2026-05-03T08:50:37.135Z</time></trkpt><trkpt lat="44.0407978" lon="10.7354224"><ele>376.0</ele><time>2026-05-03T08:50:38.136Z</time></trkpt><trkpt lat="44.0408381" lon="10.73558"><ele>376.0</ele><time>2026-05-03T08:50:39.135Z</time></trkpt><trkpt lat="44.0408414" lon="10.7357375"><ele>376.0</ele><time>2026-05-03T08:50:40.135Z</time></trkpt><trkpt lat="44.0408171" lon="10.7358911"><ele>376.0</ele><time>2026-05-03T08:50:41.136Z</time></trkpt><trkpt lat="44.0407891" lon="10.7360355"><ele>376.0</ele><time>2026-05-03T08:50:42.136Z</time></trkpt><trkpt lat="44.0407867" lon="10.7362108"><ele>376.0</ele><time>2026-05-03T08:50:43.135Z</time></trkpt><trkpt lat="44.0408065" lon="10.7364036"><ele>376.0</ele><time>2026-05-03T08:50:44.135Z</time></trkpt><trkpt lat="44.0408177" lon="10.7365911"><ele>377.25</ele><time>2026-05-03T08:50:45.135Z</time></trkpt><trkpt lat="44.0407946" lon="10.736758"><ele>378.5</ele><time>2026-05-03T08:50:46.135Z</time></trkpt><trkpt lat="44.0407613" lon="10.7369119"><ele>379.75</ele><time>2026-05-03T08:50:47.136Z</time></trkpt><trkpt lat="44.0407545" lon="10.7370775"><ele>381.0</ele><time>2026-05-03T08:50:48.135Z</time></trkpt><trkpt lat="44.0407818" lon="10.7372318"><ele>388.4</ele><time>2026-05-03T08:50:49.135Z</time></trkpt><trkpt lat="44.0408488" lon="10.7373522"><ele>395.8</ele><time>2026-05-03T08:50:50.135Z</time></trkpt><trkpt lat="44.0409145" lon="10.7374741"><ele>403.2</ele><time>2026-05-03T08:50:51.136Z</time></trkpt><trkpt lat="44.0409348" lon="10.7376236"><ele>410.59999999999997</ele><time>2026-05-03T08:50:52.135Z</time></trkpt><trkpt lat="44.0409163" lon="10.7377665"><ele>418.0</ele><time>2026-05-03T08:50:53.136Z</time></trkpt><trkpt lat="44.0408598" lon="10.7378911"><ele>418.75</ele><time>2026-05-03T08:50:54.136Z</time></trkpt><trkpt lat="44.0408021" lon="10.7380228"><ele>419.5</ele><time>2026-05-03T08:50:55.136Z</time></trkpt><trkpt lat="44.040777" lon="10.7381791"><ele>420.25</ele><time>2026-05-03T08:50:56.136Z</time></trkpt><trkpt lat="44.0407866" lon="10.7383504"><ele>421.0</ele><time>2026-05-03T08:50:57.136Z</time></trkpt><trkpt lat="44.0408104" lon="10.7385263"><ele>425.0</ele><time>2026-05-03T08:50:58.136Z</time></trkpt><trkpt lat="44.0408092" lon="10.7386942"><ele>429.0</ele><time>2026-05-03T08:50:59.136Z</time></trkpt><trkpt lat="44.040774" lon="10.7388513"><ele>433.0</ele><time>2026-05-03T08:51:00.135Z</time></trkpt><trkpt lat="44.0407163" lon="10.7390023"><ele>437.0</ele><time>2026-05-03T08:51:01.136Z</time></trkpt><trkpt lat="44.0406733" lon="10.7391768"><ele>423.0</ele><time>2026-05-03T08:51:02.136Z</time></trkpt><trkpt lat="44.040644" lon="10.7393858"><ele>409.0</ele><time>2026-05-03T08:51:03.136Z</time></trkpt><trkpt lat="44.0406155" lon="10.7396229"><ele>395.0</ele><time>2026-05-03T08:51:04.136Z</time></trkpt><trkpt lat="44.0405857" lon="10.7398802"><ele>395.0</ele><time>2026-05-03T08:51:05.135Z</time></trkpt><trkpt lat="44.0405573" lon="10.7401128"><ele>395.0</ele><time>2026-05-03T08:51:06.135Z</time></trkpt><trkpt lat="44.0405233" lon="10.7403312"><ele>395.0</ele><time>2026-05-03T08:51:07.136Z</time></trkpt><trkpt lat="44.0404822" lon="10.7405461"><ele>396.5</ele><time>2026-05-03T08:51:08.135Z</time></trkpt><trkpt lat="44.0404485" lon="10.7407412"><ele>398.0</ele><time>2026-05-03T08:51:09.135Z</time></trkpt><trkpt lat="44.0404432" lon="10.7409183"><ele>399.5</ele><time>2026-05-03T08:51:10.135Z</time></trkpt><trkpt lat="44.0404637" lon="10.7410804"><ele>401.0</ele><time>2026-05-03T08:51:11.136Z</time></trkpt><trkpt lat="44.0405106" lon="10.7412244"><ele>401.6</ele><time>2026-05-03T08:51:12.136Z</time></trkpt><trkpt lat="44.0405582" lon="10.7413535"><ele>402.20000000000005</ele><time>2026-05-03T08:51:13.135Z</time></trkpt><trkpt lat="44.04057" lon="10.7414833"><ele>402.79999999999995</ele><time>2026-05-03T08:51:14.135Z</time></trkpt><trkpt lat="44.0405468" lon="10.7416115"><ele>403.4</ele><time>2026-05-03T08:51:15.135Z</time></trkpt><trkpt lat="44.0404899" lon="10.7417168"><ele>404.0</ele><time>2026-05-03T08:51:16.136Z</time></trkpt><trkpt lat="44.0403983" lon="10.7417965"><ele>410.0</ele><time>2026-05-03T08:51:17.135Z</time></trkpt><trkpt lat="44.0402929" lon="10.7418864"><ele>416.0</ele><time>2026-05-03T08:51:18.136Z</time></trkpt><trkpt lat="44.04018" lon="10.7419911"><ele>422.0</ele><time>2026-05-03T08:51:19.136Z</time></trkpt><trkpt lat="44.0400978" lon="10.7421147"><ele>428.0</ele><time>2026-05-03T08:51:20.135Z</time></trkpt><trkpt lat="44.0400409" lon="10.7422733"><ele>428.0</ele><time>2026-05-03T08:51:21.135Z</time></trkpt><trkpt lat="44.0400012" lon="10.7424575"><ele>428.0</ele><time>2026-05-03T08:51:22.135Z</time></trkpt><trkpt lat="44.0399663" lon="10.7426587"><ele>428.0</ele><time>2026-05-03T08:51:23.136Z</time></trkpt><trkpt lat="44.0399263" lon="10.7428748"><ele>428.0</ele><time>2026-05-03T08:51:24.136Z</time></trkpt><trkpt lat="44.0398843" lon="10.7431013"><ele>422.0</ele><time>2026-05-03T08:51:25.135Z</time></trkpt><trkpt lat="44.0398561" lon="10.743337"><ele>416.0</ele><time>2026-05-03T08:51:26.136Z</time></trkpt><trkpt lat="44.0398327" lon="10.7435852"><ele>410.0</ele><time>2026-05-03T08:51:27.135Z</time></trkpt><trkpt lat="44.0398017" lon="10.7438321"><ele>410.0</ele><time>2026-05-03T08:51:28.136Z</time></trkpt><trkpt lat="44.0397702" lon="10.7440674"><ele>410.0</ele><time>2026-05-03T08:51:29.136Z</time></trkpt><trkpt lat="44.0397549" lon="10.7443061"><ele>410.0</ele><time>2026-05-03T08:51:30.135Z</time></trkpt><trkpt lat="44.039753" lon="10.7445339"><ele>414.0</ele><time>2026-05-03T08:51:31.136Z</time></trkpt><trkpt lat="44.039753" lon="10.7447493"><ele>418.0</ele><time>2026-05-03T08:51:32.135Z</time></trkpt><trkpt lat="44.0397474" lon="10.7449392"><ele>422.0</ele><time>2026-05-03T08:51:33.136Z</time></trkpt><trkpt lat="44.039752" lon="10.7451207"><ele>426.0</ele><time>2026-05-03T08:51:34.136Z</time></trkpt><trkpt lat="44.0397828" lon="10.7453031"><ele>426.5</ele><time>2026-05-03T08:51:35.136Z</time></trkpt><trkpt lat="44.0398294" lon="10.7454813"><ele>427.0</ele><time>2026-05-03T08:51:36.136Z</time></trkpt><trkpt lat="44.0398872" lon="10.745657"><ele>427.5</ele><time>2026-05-03T08:51:37.136Z</time></trkpt><trkpt lat="44.0399406" lon="10.7458393"><ele>428.0</ele><time>2026-05-03T08:51:38.135Z</time></trkpt><trkpt lat="44.0399895" lon="10.7460229"><ele>427.0</ele><time>2026-05-03T08:51:39.136Z</time></trkpt><trkpt lat="44.0400158" lon="10.7461985"><ele>426.0</ele><time>2026-05-03T08:51:40.135Z</time></trkpt><trkpt lat="44.0400135" lon="10.7463825"><ele>425.0</ele><time>2026-05-03T08:51:41.136Z</time></trkpt><trkpt lat="44.0399921" lon="10.7465753"><ele>424.0</ele><time>2026-05-03T08:51:42.135Z</time></trkpt><trkpt lat="44.0399651" lon="10.7467795"><ele>423.5</ele><time>2026-05-03T08:51:43.135Z</time></trkpt><trkpt lat="44.0399411" lon="10.7469656"><ele>423.0</ele><time>2026-05-03T08:51:44.136Z</time></trkpt><trkpt lat="44.0399293" lon="10.7471351"><ele>422.5</ele><time>2026-05-03T08:51:45.135Z</time></trkpt><trkpt lat="44.0399404" lon="10.747291"><ele>422.0</ele><time>2026-05-03T08:51:46.136Z</time></trkpt><trkpt lat="44.0399811" lon="10.7474236"><ele>426.25</ele><time>2026-05-03T08:51:47.135Z</time></trkpt><trkpt lat="44.0400522" lon="10.7475307"><ele>430.5</ele><time>2026-05-03T08:51:48.135Z</time></trkpt><trkpt lat="44.0401484" lon="10.7476316"><ele>434.75</ele><time>2026-05-03T08:51:49.136Z</time></trkpt><trkpt lat="44.040271" lon="10.7477327"><ele>439.0</ele><time>2026-05-03T08:51:50.136Z</time></trkpt><trkpt lat="44.0404153" lon="10.7478413"><ele>439.0</ele><time>2026-05-03T08:51:51.136Z</time></trkpt><trkpt lat="44.0405713" lon="10.74795"><ele>439.0</ele><time>2026-05-03T08:51:52.136Z</time></trkpt><trkpt lat="44.0407498" lon="10.7480633"><ele>439.0</ele><time>2026-05-03T08:51:53.136Z</time></trkpt><trkpt lat="44.0409466" lon="10.7481771"><ele>448.33333333333337</ele><time>2026-05-03T08:51:54.135Z</time></trkpt><trkpt lat="44.041143" lon="10.7482795"><ele>457.66666666666663</ele><time>2026-05-03T08:51:55.136Z</time></trkpt><trkpt lat="44.0413371" lon="10.748379"><ele>467.0</ele><time>2026-05-03T08:51:56.136Z</time></trkpt><trkpt lat="44.0415239" lon="10.7484872"><ele>465.0</ele><time>2026-05-03T08:51:57.135Z</time></trkpt><trkpt lat="44.0416975" lon="10.7485962"><ele>463.0</ele><time>2026-05-03T08:51:58.135Z</time></trkpt><trkpt lat="44.0418605" lon="10.7487137"><ele>461.0</ele><time>2026-05-03T08:51:59.135Z</time></trkpt><trkpt lat="44.0420165" lon="10.7488344"><ele>461.0</ele><time>2026-05-03T08:52:00.136Z</time></trkpt><trkpt lat="44.0421667" lon="10.7489632"><ele>461.0</ele><time>2026-05-03T08:52:01.135Z</time></trkpt><trkpt lat="44.042317" lon="10.7490852"><ele>461.0</ele><time>2026-05-03T08:52:02.136Z</time></trkpt><trkpt lat="44.042465" lon="10.7491957"><ele>463.3333333333333</ele><time>2026-05-03T08:52:03.136Z</time></trkpt><trkpt lat="44.0426096" lon="10.7492944"><ele>465.66666666666663</ele><time>2026-05-03T08:52:04.136Z</time></trkpt><trkpt lat="44.0427531" lon="10.7493894"><ele>468.0</ele><time>2026-05-03T08:52:05.136Z</time></trkpt><trkpt lat="44.0428966" lon="10.7494788"><ele>468.0</ele><time>2026-05-03T08:52:06.136Z</time></trkpt><trkpt lat="44.0430429" lon="10.7495596"><ele>468.0</ele><time>2026-05-03T08:52:07.135Z</time></trkpt><trkpt lat="44.0431968" lon="10.7496197"><ele>468.0</ele><time>2026-05-03T08:52:08.135Z</time></trkpt><trkpt lat="44.0433521" lon="10.7496559"><ele>472.33333333333337</ele><time>2026-05-03T08:52:09.136Z</time></trkpt><trkpt lat="44.0435098" lon="10.7496628"><ele>476.6666666666667</ele><time>2026-05-03T08:52:10.136Z</time></trkpt><trkpt lat="44.0436614" lon="10.749643"><ele>481.0</ele><time>2026-05-03T08:52:11.135Z</time></trkpt><trkpt lat="44.0437989" lon="10.7495833"><ele>481.0</ele><time>2026-05-03T08:52:12.136Z</time></trkpt><trkpt lat="44.0439273" lon="10.7495019"><ele>481.0</ele><time>2026-05-03T08:52:13.136Z</time></trkpt><trkpt lat="44.0440633" lon="10.7494335"><ele>481.0</ele><time>2026-05-03T08:52:14.136Z</time></trkpt><trkpt lat="44.0442101" lon="10.7494086"><ele>481.0</ele><time>2026-05-03T08:52:15.136Z</time></trkpt><trkpt lat="44.0443655" lon="10.7494098"><ele>484.33333333333337</ele><time>2026-05-03T08:52:16.135Z</time></trkpt><trkpt lat="44.0445234" lon="10.7494316"><ele>487.66666666666663</ele><time>2026-05-03T08:52:17.135Z</time></trkpt><trkpt lat="44.0446772" lon="10.7494818"><ele>491.0</ele><time>2026-05-03T08:52:18.135Z</time></trkpt><trkpt lat="44.0448295" lon="10.7495498"><ele>496.66666666666663</ele><time>2026-05-03T08:52:19.136Z</time></trkpt><trkpt lat="44.0449903" lon="10.7496009"><ele>502.33333333333337</ele><time>2026-05-03T08:52:20.136Z</time></trkpt><trkpt lat="44.045141" lon="10.7496358"><ele>508.0</ele><time>2026-05-03T08:52:21.136Z</time></trkpt><trkpt lat="44.045276" lon="10.7496688"><ele>508.0</ele><time>2026-05-03T08:52:22.135Z</time></trkpt><trkpt lat="44.0453914" lon="10.7497041"><ele>507.99999999999994</ele><time>2026-05-03T08:52:23.135Z</time></trkpt><trkpt lat="44.0454827" lon="10.7497689"><ele>507.99999999999994</ele><time>2026-05-03T08:52:24.135Z</time></trkpt><trkpt lat="44.0455464" lon="10.7498578"><ele>508.0</ele><time>2026-05-03T08:52:25.136Z</time></trkpt><trkpt lat="44.045575" lon="10.7499723"><ele>508.0</ele><time>2026-05-03T08:52:26.135Z</time></trkpt><trkpt lat="44.0455789" lon="10.7500981"><ele>512.4</ele><time>2026-05-03T08:52:27.136Z</time></trkpt><trkpt lat="44.0455536" lon="10.7502155"><ele>516.8</ele><time>2026-05-03T08:52:28.136Z</time></trkpt><trkpt lat="44.0454975" lon="10.7503022"><ele>521.2</ele><time>2026-05-03T08:52:29.136Z</time></trkpt><trkpt lat="44.045414" lon="10.7503435"><ele>525.6</ele><time>2026-05-03T08:52:30.135Z</time></trkpt><trkpt lat="44.0453141" lon="10.7503718"><ele>530.0</ele><time>2026-05-03T08:52:31.136Z</time></trkpt><trkpt lat="44.0451837" lon="10.7504038"><ele>530.0</ele><time>2026-05-03T08:52:32.136Z</time></trkpt><trkpt lat="44.045037" lon="10.7504301"><ele>530.0</ele><time>2026-05-03T08:52:33.136Z</time></trkpt><trkpt lat="44.0449054" lon="10.7504496"><ele>530.0</ele><time>2026-05-03T08:52:34.136Z</time></trkpt><trkpt lat="44.0447876" lon="10.7504888"><ele>530.0</ele><time>2026-05-03T08:52:35.135Z</time></trkpt><trkpt lat="44.0446883" lon="10.7505722"><ele>527.5</ele><time>2026-05-03T08:52:36.136Z</time></trkpt><trkpt lat="44.0445954" lon="10.7506843"><ele>525.0</ele><time>2026-05-03T08:52:37.135Z</time></trkpt><trkpt lat="44.0445032" lon="10.7508144"><ele>522.5</ele><time>2026-05-03T08:52:38.136Z</time></trkpt><trkpt lat="44.0444137" lon="10.7509657"><ele>520.0</ele><time>2026-05-03T08:52:39.136Z</time></trkpt><trkpt lat="44.0443163" lon="10.7510954"><ele>520.0</ele><time>2026-05-03T08:52:40.136Z</time></trkpt><trkpt lat="44.0442039" lon="10.751172"><ele>520.0</ele><time>2026-05-03T08:52:41.136Z</time></trkpt><trkpt lat="44.0440873" lon="10.7511834"><ele>520.0</ele><time>2026-05-03T08:52:42.136Z</time></trkpt><trkpt lat="44.0439782" lon="10.7511735"><ele>520.0</ele><time>2026-05-03T08:52:43.136Z</time></trkpt><trkpt lat="44.0438805" lon="10.7511667"><ele>520.0</ele><time>2026-05-03T08:52:44.136Z</time></trkpt><trkpt lat="44.0437974" lon="10.7511859"><ele>518.1666666666667</ele><time>2026-05-03T08:52:45.136Z</time></trkpt><trkpt lat="44.0437432" lon="10.7512328"><ele>516.3333333333334</ele><time>2026-05-03T08:52:46.136Z</time></trkpt><trkpt lat="44.0436926" lon="10.7513174"><ele>514.5</ele><time>2026-05-03T08:52:48.136Z</time></trkpt><trkpt lat="44.0436643" lon="10.7514375"><ele>512.6666666666666</ele><time>2026-05-03T08:52:50.136Z</time></trkpt><trkpt lat="44.0437408" lon="10.751578"><ele>510.8333333333333</ele><time>2026-05-03T08:52:52.136Z</time></trkpt><trkpt lat="44.0438075" lon="10.7516322"><ele>509.0</ele><time>2026-05-03T08:52:53.135Z</time></trkpt><trkpt lat="44.0438901" lon="10.7516667"><ele>508.99999999999994</ele><time>2026-05-03T08:52:54.135Z</time></trkpt><trkpt lat="44.0439743" lon="10.751688"><ele>509.0</ele><time>2026-05-03T08:52:55.136Z</time></trkpt><trkpt lat="44.0440548" lon="10.7517083"><ele>509.0</ele><time>2026-05-03T08:52:56.135Z</time></trkpt><trkpt lat="44.0441322" lon="10.7517368"><ele>509.0</ele><time>2026-05-03T08:52:57.135Z</time></trkpt><trkpt lat="44.0442075" lon="10.7517846"><ele>508.99999999999994</ele><time>2026-05-03T08:52:58.135Z</time></trkpt><trkpt lat="44.0442799" lon="10.7518511"><ele>509.0</ele><time>2026-05-03T08:52:59.136Z</time></trkpt><trkpt lat="44.044349" lon="10.7519318"><ele>509.0</ele><time>2026-05-03T08:53:00.136Z</time></trkpt><trkpt lat="44.0444145" lon="10.7520285"><ele>509.0</ele><time>2026-05-03T08:53:01.135Z</time></trkpt><trkpt lat="44.0444809" lon="10.7521394"><ele>509.0</ele><time>2026-05-03T08:53:02.136Z</time></trkpt><trkpt lat="44.0445509" lon="10.7522555"><ele>509.0</ele><time>2026-05-03T08:53:03.135Z</time></trkpt><trkpt lat="44.0446172" lon="10.7523836"><ele>509.0</ele><time>2026-05-03T08:53:04.136Z</time></trkpt><trkpt lat="44.0446803" lon="10.7525113"><ele>509.0</ele><time>2026-05-03T08:53:05.135Z</time></trkpt><trkpt lat="44.0447453" lon="10.7526408"><ele>509.0</ele><time>2026-05-03T08:53:06.136Z</time></trkpt><trkpt lat="44.0448089" lon="10.7527733"><ele>509.0</ele><time>2026-05-03T08:53:07.135Z</time></trkpt><trkpt lat="44.0448754" lon="10.7529093"><ele>509.0</ele><time>2026-05-03T08:53:08.135Z</time></trkpt><trkpt lat="44.0449455" lon="10.7530475"><ele>510.0</ele><time>2026-05-03T08:53:09.135Z</time></trkpt><trkpt lat="44.0450161" lon="10.7531873"><ele>511.0</ele><time>2026-05-03T08:53:10.136Z</time></trkpt><trkpt lat="44.0450926" lon="10.7533254"><ele>512.0</ele><time>2026-05-03T08:53:11.136Z</time></trkpt><trkpt lat="44.0451755" lon="10.753467"><ele>513.0</ele><time>2026-05-03T08:53:12.135Z</time></trkpt><trkpt lat="44.0452626" lon="10.7536105"><ele>513.0</ele><time>2026-05-03T08:53:13.136Z</time></trkpt><trkpt lat="44.0453527" lon="10.7537574"><ele>513.0</ele><time>2026-05-03T08:53:14.135Z</time></trkpt><trkpt lat="44.0454432" lon="10.7539004"><ele>513.0</ele><time>2026-05-03T08:53:15.135Z</time></trkpt><trkpt lat="44.0455199" lon="10.7540559"><ele>513.0</ele><time>2026-05-03T08:53:16.135Z</time></trkpt><trkpt lat="44.0455951" lon="10.7542176"><ele>512.3333333333334</ele><time>2026-05-03T08:53:17.136Z</time></trkpt><trkpt lat="44.0456675" lon="10.7543894"><ele>511.6666666666667</ele><time>2026-05-03T08:53:18.135Z</time></trkpt><trkpt lat="44.0457495" lon="10.7545684"><ele>511.0</ele><time>2026-05-03T08:53:19.135Z</time></trkpt><trkpt lat="44.0458432" lon="10.7547605"><ele>509.33333333333337</ele><time>2026-05-03T08:53:20.135Z</time></trkpt><trkpt lat="44.0459429" lon="10.7549431"><ele>507.66666666666663</ele><time>2026-05-03T08:53:21.136Z</time></trkpt><trkpt lat="44.0460412" lon="10.7551162"><ele>506.0</ele><time>2026-05-03T08:53:22.136Z</time></trkpt><trkpt lat="44.0461353" lon="10.7552844"><ele>506.0</ele><time>2026-05-03T08:53:23.135Z</time></trkpt><trkpt lat="44.046227" lon="10.7554444"><ele>506.0</ele><time>2026-05-03T08:53:24.135Z</time></trkpt><trkpt lat="44.0463001" lon="10.7556027"><ele>506.0</ele><time>2026-05-03T08:53:25.136Z</time></trkpt><trkpt lat="44.0463369" lon="10.7557822"><ele>506.0</ele><time>2026-05-03T08:53:26.136Z</time></trkpt><trkpt lat="44.0463583" lon="10.7559792"><ele>499.5</ele><time>2026-05-03T08:53:27.136Z</time></trkpt><trkpt lat="44.0463721" lon="10.7561945"><ele>493.0</ele><time>2026-05-03T08:53:28.135Z</time></trkpt><trkpt lat="44.0463856" lon="10.7564005"><ele>486.5</ele><time>2026-05-03T08:53:29.135Z</time></trkpt><trkpt lat="44.0464011" lon="10.7565924"><ele>480.0</ele><time>2026-05-03T08:53:30.135Z</time></trkpt><trkpt lat="44.0464251" lon="10.7567681"><ele>476.75</ele><time>2026-05-03T08:53:31.136Z</time></trkpt><trkpt lat="44.0464787" lon="10.7569213"><ele>473.5</ele><time>2026-05-03T08:53:32.136Z</time></trkpt><trkpt lat="44.0465584" lon="10.7570407"><ele>470.25</ele><time>2026-05-03T08:53:33.135Z</time></trkpt><trkpt lat="44.0466498" lon="10.7571632"><ele>467.0</ele><time>2026-05-03T08:53:34.135Z</time></trkpt><trkpt lat="44.0467432" lon="10.7573143"><ele>477.66666666666663</ele><time>2026-05-03T08:53:35.136Z</time></trkpt><trkpt lat="44.0468164" lon="10.7575024"><ele>488.33333333333337</ele><time>2026-05-03T08:53:36.136Z</time></trkpt><trkpt lat="44.0468702" lon="10.7577164"><ele>499.0</ele><time>2026-05-03T08:53:37.135Z</time></trkpt><trkpt lat="44.0469002" lon="10.7579473"><ele>499.0</ele><time>2026-05-03T08:53:38.135Z</time></trkpt><trkpt lat="44.0469023" lon="10.758168"><ele>499.0</ele><time>2026-05-03T08:53:39.135Z</time></trkpt><trkpt lat="44.0468924" lon="10.7583763"><ele>499.0</ele><time>2026-05-03T08:53:40.135Z</time></trkpt><trkpt lat="44.0469057" lon="10.7585727"><ele>494.5</ele><time>2026-05-03T08:53:41.135Z</time></trkpt><trkpt lat="44.0469497" lon="10.7587718"><ele>490.0</ele><time>2026-05-03T08:53:42.136Z</time></trkpt><trkpt lat="44.0470123" lon="10.7589529"><ele>485.5</ele><time>2026-05-03T08:53:43.136Z</time></trkpt><trkpt lat="44.0470786" lon="10.7591037"><ele>481.0</ele><time>2026-05-03T08:53:44.135Z</time></trkpt><trkpt lat="44.0471644" lon="10.7592212"><ele>481.0</ele><time>2026-05-03T08:53:45.135Z</time></trkpt><trkpt lat="44.047275" lon="10.7593028"><ele>481.0</ele><time>2026-05-03T08:53:46.136Z</time></trkpt><trkpt lat="44.0474087" lon="10.7593736"><ele>481.0</ele><time>2026-05-03T08:53:47.136Z</time></trkpt><trkpt lat="44.04756" lon="10.7594614"><ele>481.0</ele><time>2026-05-03T08:53:48.136Z</time></trkpt><trkpt lat="44.0477072" lon="10.7595775"><ele>480.75</ele><time>2026-05-03T08:53:49.135Z</time></trkpt><trkpt lat="44.0478382" lon="10.7596873"><ele>480.5</ele><time>2026-05-03T08:53:50.135Z</time></trkpt><trkpt lat="44.0479685" lon="10.7597698"><ele>480.25</ele><time>2026-05-03T08:53:51.136Z</time></trkpt><trkpt lat="44.0481002" lon="10.7598154"><ele>480.0</ele><time>2026-05-03T08:53:52.135Z</time></trkpt><trkpt lat="44.0482217" lon="10.7598641"><ele>475.75</ele><time>2026-05-03T08:53:53.136Z</time></trkpt><trkpt lat="44.0483221" lon="10.7599539"><ele>471.5</ele><time>2026-05-03T08:53:54.135Z</time></trkpt><trkpt lat="44.0483959" lon="10.760075"><ele>467.25</ele><time>2026-05-03T08:53:55.135Z</time></trkpt><trkpt lat="44.0484708" lon="10.7602078"><ele>463.0</ele><time>2026-05-03T08:53:56.135Z</time></trkpt><trkpt lat="44.0485752" lon="10.7603082"><ele>463.0</ele><time>2026-05-03T08:53:57.136Z</time></trkpt><trkpt lat="44.0487007" lon="10.7603926"><ele>463.0</ele><time>2026-05-03T08:53:58.136Z</time></trkpt><trkpt lat="44.0488539" lon="10.7604756"><ele>463.0</ele><time>2026-05-03T08:53:59.136Z</time></trkpt><trkpt lat="44.0490009" lon="10.7605595"><ele>474.0</ele><time>2026-05-03T08:54:00.136Z</time></trkpt><trkpt lat="44.0491263" lon="10.7606335"><ele>485.0</ele><time>2026-05-03T08:54:01.135Z</time></trkpt><trkpt lat="44.0492346" lon="10.7607155"><ele>496.0</ele><time>2026-05-03T08:54:02.136Z</time></trkpt><trkpt lat="44.049309" lon="10.7608293"><ele>507.0</ele><time>2026-05-03T08:54:03.135Z</time></trkpt><trkpt lat="44.0493564" lon="10.7609655"><ele>497.75</ele><time>2026-05-03T08:54:04.136Z</time></trkpt><trkpt lat="44.0493955" lon="10.7611298"><ele>488.5</ele><time>2026-05-03T08:54:05.136Z</time></trkpt><trkpt lat="44.049458" lon="10.7612899"><ele>479.25</ele><time>2026-05-03T08:54:06.135Z</time></trkpt><trkpt lat="44.0495471" lon="10.7614365"><ele>470.0</ele><time>2026-05-03T08:54:07.136Z</time></trkpt><trkpt lat="44.0496688" lon="10.7615756"><ele>470.0</ele><time>2026-05-03T08:54:08.135Z</time></trkpt><trkpt lat="44.0498136" lon="10.7617209"><ele>470.0</ele><time>2026-05-03T08:54:09.136Z</time></trkpt><trkpt lat="44.0499744" lon="10.761863"><ele>470.0</ele><time>2026-05-03T08:54:10.136Z</time></trkpt><trkpt lat="44.0501307" lon="10.7619847"><ele>474.0</ele><time>2026-05-03T08:54:11.136Z</time></trkpt><trkpt lat="44.0502726" lon="10.7620999"><ele>478.0</ele><time>2026-05-03T08:54:12.135Z</time></trkpt><trkpt lat="44.0504039" lon="10.7622199"><ele>482.0</ele><time>2026-05-03T08:54:13.136Z</time></trkpt><trkpt lat="44.050508" lon="10.7623664"><ele>482.0</ele><time>2026-05-03T08:54:14.136Z</time></trkpt><trkpt lat="44.0505922" lon="10.7625446"><ele>482.0</ele><time>2026-05-03T08:54:15.135Z</time></trkpt><trkpt lat="44.0506695" lon="10.7627353"><ele>482.0</ele><time>2026-05-03T08:54:16.136Z</time></trkpt><trkpt lat="44.0507407" lon="10.7629183"><ele>484.0</ele><time>2026-05-03T08:54:17.135Z</time></trkpt><trkpt lat="44.0508085" lon="10.7630834"><ele>486.0</ele><time>2026-05-03T08:54:18.136Z</time></trkpt><trkpt lat="44.0508895" lon="10.7632163"><ele>488.0</ele><time>2026-05-03T08:54:19.135Z</time></trkpt><trkpt lat="44.0509853" lon="10.7633054"><ele>490.0</ele><time>2026-05-03T08:54:20.135Z</time></trkpt><trkpt lat="44.0510999" lon="10.7633537"><ele>490.0</ele><time>2026-05-03T08:54:21.136Z</time></trkpt><trkpt lat="44.0512257" lon="10.7634173"><ele>490.0</ele><time>2026-05-03T08:54:22.135Z</time></trkpt><trkpt lat="44.0513517" lon="10.7634777"><ele>490.0</ele><time>2026-05-03T08:54:23.135Z</time></trkpt><trkpt lat="44.0514968" lon="10.7635697"><ele>490.0</ele><time>2026-05-03T08:54:24.136Z</time></trkpt><trkpt lat="44.0516779" lon="10.7635892"><ele>483.33333333333337</ele><time>2026-05-03T08:54:25.135Z</time></trkpt><trkpt lat="44.0518283" lon="10.7636219"><ele>476.66666666666663</ele><time>2026-05-03T08:54:26.136Z</time></trkpt><trkpt lat="44.0519907" lon="10.7636571"><ele>470.0</ele><time>2026-05-03T08:54:27.136Z</time></trkpt><trkpt lat="44.0521524" lon="10.7637281"><ele>470.0</ele><time>2026-05-03T08:54:28.136Z</time></trkpt><trkpt lat="44.0523176" lon="10.7638119"><ele>470.0</ele><time>2026-05-03T08:54:29.135Z</time></trkpt><trkpt lat="44.0524951" lon="10.7638971"><ele>470.0</ele><time>2026-05-03T08:54:30.136Z</time></trkpt><trkpt lat="44.0526688" lon="10.7639737"><ele>474.66666666666663</ele><time>2026-05-03T08:54:31.135Z</time></trkpt><trkpt lat="44.0528359" lon="10.7640358"><ele>479.33333333333337</ele><time>2026-05-03T08:54:32.136Z</time></trkpt><trkpt lat="44.0529936" lon="10.7641161"><ele>484.0</ele><time>2026-05-03T08:54:33.136Z</time></trkpt><trkpt lat="44.0531358" lon="10.7642192"><ele>484.0</ele><time>2026-05-03T08:54:34.136Z</time></trkpt><trkpt lat="44.0532679" lon="10.7643183"><ele>484.0</ele><time>2026-05-03T08:54:35.135Z</time></trkpt><trkpt lat="44.0534051" lon="10.7643881"><ele>484.0</ele><time>2026-05-03T08:54:36.136Z</time></trkpt><trkpt lat="44.0535554" lon="10.7644348"><ele>475.6666666666667</ele><time>2026-05-03T08:54:37.136Z</time></trkpt><trkpt lat="44.0537134" lon="10.7644592"><ele>467.33333333333337</ele><time>2026-05-03T08:54:38.136Z</time></trkpt><trkpt lat="44.0538763" lon="10.7644727"><ele>459.0</ele><time>2026-05-03T08:54:39.136Z</time></trkpt><trkpt lat="44.0540451" lon="10.7644864"><ele>460.33333333333337</ele><time>2026-05-03T08:54:40.136Z</time></trkpt><trkpt lat="44.0542074" lon="10.7645141"><ele>461.6666666666667</ele><time>2026-05-03T08:54:41.136Z</time></trkpt><trkpt lat="44.0543646" lon="10.7645363"><ele>463.0</ele><time>2026-05-03T08:54:42.136Z</time></trkpt><trkpt lat="44.0545144" lon="10.7645288"><ele>463.0</ele><time>2026-05-03T08:54:43.135Z</time></trkpt><trkpt lat="44.0546609" lon="10.7644837"><ele>463.0</ele><time>2026-05-03T08:54:44.135Z</time></trkpt><trkpt lat="44.0548112" lon="10.7644189"><ele>463.0</ele><time>2026-05-03T08:54:45.135Z</time></trkpt><trkpt lat="44.0549697" lon="10.7643529"><ele>473.6666666666667</ele><time>2026-05-03T08:54:46.136Z</time></trkpt><trkpt lat="44.055134" lon="10.764279"><ele>484.33333333333337</ele><time>2026-05-03T08:54:47.135Z</time></trkpt><trkpt lat="44.055304" lon="10.7642017"><ele>495.0</ele><time>2026-05-03T08:54:48.136Z</time></trkpt><trkpt lat="44.0554644" lon="10.7641154"><ele>495.0</ele><time>2026-05-03T08:54:49.135Z</time></trkpt><trkpt lat="44.0556058" lon="10.7640284"><ele>495.0</ele><time>2026-05-03T08:54:50.135Z</time></trkpt><trkpt lat="44.0557387" lon="10.7639574"><ele>495.0</ele><time>2026-05-03T08:54:51.135Z</time></trkpt><trkpt lat="44.055868" lon="10.7639202"><ele>495.0</ele><time>2026-05-03T08:54:52.135Z</time></trkpt><trkpt lat="44.0559905" lon="10.7639271"><ele>492.75</ele><time>2026-05-03T08:54:53.135Z</time></trkpt><trkpt lat="44.0561057" lon="10.7639699"><ele>490.5</ele><time>2026-05-03T08:54:54.136Z</time></trkpt><trkpt lat="44.0562166" lon="10.7640432"><ele>488.25</ele><time>2026-05-03T08:54:55.135Z</time></trkpt><trkpt lat="44.0563198" lon="10.7641334"><ele>486.0</ele><time>2026-05-03T08:54:56.136Z</time></trkpt><trkpt lat="44.0564257" lon="10.7641871"><ele>486.0</ele><time>2026-05-03T08:54:57.136Z</time></trkpt><trkpt lat="44.0565395" lon="10.764182"><ele>486.0</ele><time>2026-05-03T08:54:58.136Z</time></trkpt><trkpt lat="44.0566467" lon="10.7641276"><ele>486.0</ele><time>2026-05-03T08:54:59.136Z</time></trkpt><trkpt lat="44.0567537" lon="10.7640532"><ele>486.0</ele><time>2026-05-03T08:55:00.135Z</time></trkpt><trkpt lat="44.0568768" lon="10.7639973"><ele>487.0</ele><time>2026-05-03T08:55:01.135Z</time></trkpt><trkpt lat="44.0569969" lon="10.7639991"><ele>488.0</ele><time>2026-05-03T08:55:02.135Z</time></trkpt><trkpt lat="44.0571175" lon="10.7640517"><ele>489.0</ele><time>2026-05-03T08:55:03.136Z</time></trkpt><trkpt lat="44.0572269" lon="10.7641435"><ele>490.0</ele><time>2026-05-03T08:55:04.136Z</time></trkpt><trkpt lat="44.0573295" lon="10.7642393"><ele>490.00000000000006</ele><time>2026-05-03T08:55:05.136Z</time></trkpt><trkpt lat="44.0574081" lon="10.7643104"><ele>490.0</ele><time>2026-05-03T08:55:06.135Z</time></trkpt><trkpt lat="44.057479" lon="10.764359"><ele>490.0</ele><time>2026-05-03T08:55:07.135Z</time></trkpt><trkpt lat="44.0575517" lon="10.76439"><ele>490.0</ele><time>2026-05-03T08:55:08.135Z</time></trkpt><trkpt lat="44.0576209" lon="10.7644047"><ele>490.00000000000006</ele><time>2026-05-03T08:55:09.134Z</time></trkpt><trkpt lat="44.05774" lon="10.7644203"><ele>490.0</ele><time>2026-05-03T08:55:11.135Z</time></trkpt><trkpt lat="44.057835" lon="10.7644324"><ele>491.1666666666667</ele><time>2026-05-03T08:55:13.136Z</time></trkpt><trkpt lat="44.0579089" lon="10.7644449"><ele>492.33333333333337</ele><time>2026-05-03T08:55:15.136Z</time></trkpt><trkpt lat="44.0579719" lon="10.7644453"><ele>493.5</ele><time>2026-05-03T08:55:20.136Z</time></trkpt><trkpt lat="44.0580643" lon="10.7644156"><ele>494.66666666666663</ele><time>2026-05-03T08:56:12.135Z</time></trkpt><trkpt lat="44.0581299" lon="10.7643801"><ele>495.8333333333333</ele><time>2026-05-03T08:56:13.136Z</time></trkpt><trkpt lat="44.0581975" lon="10.7643361"><ele>497.0</ele><time>2026-05-03T08:56:14.135Z</time></trkpt><trkpt lat="44.0582626" lon="10.7642907"><ele>496.3333333333333</ele><time>2026-05-03T08:56:15.136Z</time></trkpt><trkpt lat="44.0583318" lon="10.7642452"><ele>495.66666666666663</ele><time>2026-05-03T08:56:16.136Z</time></trkpt><trkpt lat="44.0584108" lon="10.764211"><ele>495.0</ele><time>2026-05-03T08:56:17.135Z</time></trkpt><trkpt lat="44.0584953" lon="10.7642036"><ele>494.33333333333337</ele><time>2026-05-03T08:56:18.135Z</time></trkpt><trkpt lat="44.0585784" lon="10.7642278"><ele>493.6666666666667</ele><time>2026-05-03T08:56:19.136Z</time></trkpt><trkpt lat="44.0586578" lon="10.7642926"><ele>493.0</ele><time>2026-05-03T08:56:20.135Z</time></trkpt><trkpt lat="44.058729" lon="10.7643748"><ele>489.2</ele><time>2026-05-03T08:56:21.136Z</time></trkpt><trkpt lat="44.0588026" lon="10.764444"><ele>485.4</ele><time>2026-05-03T08:56:22.135Z</time></trkpt><trkpt lat="44.0588903" lon="10.7644895"><ele>481.59999999999997</ele><time>2026-05-03T08:56:23.135Z</time></trkpt><trkpt lat="44.0589885" lon="10.764513"><ele>477.79999999999995</ele><time>2026-05-03T08:56:24.135Z</time></trkpt><trkpt lat="44.059096" lon="10.7645311"><ele>474.0</ele><time>2026-05-03T08:56:25.134Z</time></trkpt><trkpt lat="44.059214" lon="10.7645489"><ele>474.0</ele><time>2026-05-03T08:56:26.134Z</time></trkpt><trkpt lat="44.0593384" lon="10.7645739"><ele>474.0</ele><time>2026-05-03T08:56:27.135Z</time></trkpt><trkpt lat="44.059468" lon="10.7645943"><ele>474.0</ele><time>2026-05-03T08:56:28.136Z</time></trkpt><trkpt lat="44.0595969" lon="10.7645999"><ele>474.0</ele><time>2026-05-03T08:56:29.136Z</time></trkpt><trkpt lat="44.0597105" lon="10.7645901"><ele>474.0</ele><time>2026-05-03T08:56:30.135Z</time></trkpt><trkpt lat="44.0598281" lon="10.7645111"><ele>474.0</ele><time>2026-05-03T08:56:31.135Z</time></trkpt><trkpt lat="44.0599376" lon="10.7644253"><ele>474.0</ele><time>2026-05-03T08:56:32.136Z</time></trkpt><trkpt lat="44.060046" lon="10.7643543"><ele>474.0</ele><time>2026-05-03T08:56:33.136Z</time></trkpt><trkpt lat="44.0601546" lon="10.7643297"><ele>474.1666666666667</ele><time>2026-05-03T08:56:34.136Z</time></trkpt><trkpt lat="44.0602476" lon="10.7643471"><ele>474.33333333333337</ele><time>2026-05-03T08:56:35.135Z</time></trkpt><trkpt lat="44.060318" lon="10.7644078"><ele>474.5</ele><time>2026-05-03T08:56:36.136Z</time></trkpt><trkpt lat="44.0603642" lon="10.7644951"><ele>474.6666666666667</ele><time>2026-05-03T08:56:37.135Z</time></trkpt><trkpt lat="44.0603917" lon="10.7646147"><ele>474.83333333333337</ele><time>2026-05-03T08:56:38.136Z</time></trkpt><trkpt lat="44.0604246" lon="10.7647505"><ele>475.0</ele><time>2026-05-03T08:56:39.136Z</time></trkpt><trkpt lat="44.0604813" lon="10.7649023"><ele>475.0</ele><time>2026-05-03T08:56:40.136Z</time></trkpt><trkpt lat="44.0605573" lon="10.7650581"><ele>475.0</ele><time>2026-05-03T08:56:41.136Z</time></trkpt><trkpt lat="44.0606423" lon="10.765179"><ele>475.0</ele><time>2026-05-03T08:56:42.135Z</time></trkpt><trkpt lat="44.060739" lon="10.765261"><ele>475.0</ele><time>2026-05-03T08:56:43.135Z</time></trkpt><trkpt lat="44.0608538" lon="10.7653104"><ele>470.6666666666667</ele><time>2026-05-03T08:56:44.135Z</time></trkpt><trkpt lat="44.0610047" lon="10.7653279"><ele>466.33333333333337</ele><time>2026-05-03T08:56:45.136Z</time></trkpt><trkpt lat="44.061164" lon="10.7653339"><ele>462.0</ele><time>2026-05-03T08:56:46.136Z</time></trkpt><trkpt lat="44.0613122" lon="10.7653311"><ele>462.0</ele><time>2026-05-03T08:56:47.136Z</time></trkpt><trkpt lat="44.0614459" lon="10.7653227"><ele>462.0</ele><time>2026-05-03T08:56:48.135Z</time></trkpt><trkpt lat="44.0615631" lon="10.7652926"><ele>462.0</ele><time>2026-05-03T08:56:49.135Z</time></trkpt><trkpt lat="44.0616643" lon="10.7652348"><ele>462.0</ele><time>2026-05-03T08:56:50.135Z</time></trkpt><trkpt lat="44.0617352" lon="10.7651378"><ele>467.40000000000003</ele><time>2026-05-03T08:56:51.135Z</time></trkpt><trkpt lat="44.0618039" lon="10.7650353"><ele>472.80000000000007</ele><time>2026-05-03T08:56:52.136Z</time></trkpt><trkpt lat="44.0618252" lon="10.7649048"><ele>478.2</ele><time>2026-05-03T08:56:53.135Z</time></trkpt><trkpt lat="44.061901" lon="10.7648139"><ele>483.6</ele><time>2026-05-03T08:56:54.136Z</time></trkpt><trkpt lat="44.0619965" lon="10.7647434"><ele>489.0</ele><time>2026-05-03T08:56:55.135Z</time></trkpt><trkpt lat="44.0621179" lon="10.7647137"><ele>489.0</ele><time>2026-05-03T08:56:56.136Z</time></trkpt><trkpt lat="44.0622603" lon="10.7647091"><ele>489.0</ele><time>2026-05-03T08:56:57.135Z</time></trkpt><trkpt lat="44.0624163" lon="10.7646988"><ele>489.0</ele><time>2026-05-03T08:56:58.136Z</time></trkpt><trkpt lat="44.0625619" lon="10.7647063"><ele>489.0</ele><time>2026-05-03T08:56:59.136Z</time></trkpt><trkpt lat="44.0627021" lon="10.7647081"><ele>486.5</ele><time>2026-05-03T08:57:00.136Z</time></trkpt><trkpt lat="44.062829" lon="10.7647103"><ele>484.0</ele><time>2026-05-03T08:57:01.135Z</time></trkpt><trkpt lat="44.0629516" lon="10.7647333"><ele>481.5</ele><time>2026-05-03T08:57:02.135Z</time></trkpt><trkpt lat="44.0630596" lon="10.7647988"><ele>479.0</ele><time>2026-05-03T08:57:03.135Z</time></trkpt><trkpt lat="44.063151" lon="10.7648932"><ele>479.0</ele><time>2026-05-03T08:57:04.135Z</time></trkpt><trkpt lat="44.0632186" lon="10.7650096"><ele>479.0</ele><time>2026-05-03T08:57:05.136Z</time></trkpt><trkpt lat="44.0632888" lon="10.7651108"><ele>479.0</ele><time>2026-05-03T08:57:06.135Z</time></trkpt><trkpt lat="44.0633776" lon="10.7651894"><ele>479.0</ele><time>2026-05-03T08:57:07.135Z</time></trkpt><trkpt lat="44.0634841" lon="10.7652431"><ele>479.0</ele><time>2026-05-03T08:57:08.135Z</time></trkpt><trkpt lat="44.0635886" lon="10.7653021"><ele>473.0</ele><time>2026-05-03T08:57:09.136Z</time></trkpt><trkpt lat="44.0636796" lon="10.7653752"><ele>467.0</ele><time>2026-05-03T08:57:10.135Z</time></trkpt><trkpt lat="44.063766" lon="10.7654595"><ele>461.0</ele><time>2026-05-03T08:57:11.135Z</time></trkpt><trkpt lat="44.0638441" lon="10.7655577"><ele>455.0</ele><time>2026-05-03T08:57:12.136Z</time></trkpt><trkpt lat="44.0639162" lon="10.7656694"><ele>449.0</ele><time>2026-05-03T08:57:13.135Z</time></trkpt><trkpt lat="44.0639762" lon="10.7657908"><ele>448.99999999999994</ele><time>2026-05-03T08:57:14.135Z</time></trkpt><trkpt lat="44.0640257" lon="10.7659029"><ele>449.0</ele><time>2026-05-03T08:57:15.135Z</time></trkpt><trkpt lat="44.0640643" lon="10.7659977"><ele>449.0</ele><time>2026-05-03T08:57:16.134Z</time></trkpt><trkpt lat="44.0641014" lon="10.7660772"><ele>449.0</ele><time>2026-05-03T08:57:17.135Z</time></trkpt><trkpt lat="44.0641356" lon="10.7661525"><ele>448.99999999999994</ele><time>2026-05-03T08:57:18.135Z</time></trkpt><trkpt lat="44.0641859" lon="10.7662888"><ele>449.0</ele><time>2026-05-03T08:57:20.135Z</time></trkpt><trkpt lat="44.0642156" lon="10.7664142"><ele>450.4</ele><time>2026-05-03T08:57:22.136Z</time></trkpt><trkpt lat="44.0642658" lon="10.7665273"><ele>451.79999999999995</ele><time>2026-05-03T08:57:24.135Z</time></trkpt><trkpt lat="44.0643754" lon="10.7666133"><ele>453.20000000000005</ele><time>2026-05-03T08:57:26.136Z</time></trkpt><trkpt lat="44.0644522" lon="10.7666269"><ele>454.6</ele><time>2026-05-03T08:57:27.136Z</time></trkpt><trkpt lat="44.0645551" lon="10.7666342"><ele>456.0</ele><time>2026-05-03T08:57:28.135Z</time></trkpt><trkpt lat="44.0646969" lon="10.7666228"><ele>456.0</ele><time>2026-05-03T08:57:29.135Z</time></trkpt><trkpt lat="44.0647964" lon="10.7666294"><ele>456.0</ele><time>2026-05-03T08:57:30.135Z</time></trkpt><trkpt lat="44.0649019" lon="10.7666318"><ele>456.0</ele><time>2026-05-03T08:57:31.136Z</time></trkpt><trkpt lat="44.0650053" lon="10.7666347"><ele>456.0</ele><time>2026-05-03T08:57:32.135Z</time></trkpt><trkpt lat="44.0650993" lon="10.7665714"><ele>456.0</ele><time>2026-05-03T08:57:33.135Z</time></trkpt><trkpt lat="44.0651811" lon="10.7664994"><ele>456.75</ele><time>2026-05-03T08:57:34.136Z</time></trkpt><trkpt lat="44.0652359" lon="10.7663784"><ele>457.5</ele><time>2026-05-03T08:57:35.135Z</time></trkpt><trkpt lat="44.065268" lon="10.7662164"><ele>458.25</ele><time>2026-05-03T08:57:36.135Z</time></trkpt><trkpt lat="44.0652951" lon="10.7660177"><ele>459.0</ele><time>2026-05-03T08:57:37.135Z</time></trkpt><trkpt lat="44.0653335" lon="10.7658555"><ele>459.5</ele><time>2026-05-03T08:57:38.135Z</time></trkpt><trkpt lat="44.0654045" lon="10.7656933"><ele>460.0</ele><time>2026-05-03T08:57:39.135Z</time></trkpt><trkpt lat="44.0654919" lon="10.7655551"><ele>460.5</ele><time>2026-05-03T08:57:40.135Z</time></trkpt><trkpt lat="44.0656189" lon="10.7654308"><ele>461.0</ele><time>2026-05-03T08:57:41.135Z</time></trkpt><trkpt lat="44.0657799" lon="10.7653152"><ele>461.0</ele><time>2026-05-03T08:57:42.136Z</time></trkpt><trkpt lat="44.0659431" lon="10.7652143"><ele>461.0</ele><time>2026-05-03T08:57:43.135Z</time></trkpt><trkpt lat="44.0660869" lon="10.7651241"><ele>461.0</ele><time>2026-05-03T08:57:44.135Z</time></trkpt><trkpt lat="44.0662225" lon="10.7650563"><ele>468.66666666666663</ele><time>2026-05-03T08:57:45.135Z</time></trkpt><trkpt lat="44.0663687" lon="10.7650266"><ele>476.33333333333337</ele><time>2026-05-03T08:57:46.136Z</time></trkpt><trkpt lat="44.0665323" lon="10.7650188"><ele>484.0</ele><time>2026-05-03T08:57:47.135Z</time></trkpt><trkpt lat="44.066704" lon="10.7650123"><ele>484.0</ele><time>2026-05-03T08:57:48.136Z</time></trkpt><trkpt lat="44.0668811" lon="10.7650092"><ele>484.0</ele><time>2026-05-03T08:57:49.136Z</time></trkpt><trkpt lat="44.067062" lon="10.7650031"><ele>484.0</ele><time>2026-05-03T08:57:50.135Z</time></trkpt><trkpt lat="44.0672485" lon="10.7649971"><ele>484.0</ele><time>2026-05-03T08:57:51.136Z</time></trkpt><trkpt lat="44.0674235" lon="10.7649937"><ele>484.0</ele><time>2026-05-03T08:57:52.135Z</time></trkpt><trkpt lat="44.0675953" lon="10.7649986"><ele>484.0</ele><time>2026-05-03T08:57:53.136Z</time></trkpt><trkpt lat="44.0677659" lon="10.7650247"><ele>482.6666666666667</ele><time>2026-05-03T08:57:54.135Z</time></trkpt><trkpt lat="44.0679356" lon="10.7650682"><ele>481.33333333333337</ele><time>2026-05-03T08:57:55.136Z</time></trkpt><trkpt lat="44.0681041" lon="10.7651074"><ele>480.0</ele><time>2026-05-03T08:57:56.135Z</time></trkpt><trkpt lat="44.0682739" lon="10.7651261"><ele>484.33333333333337</ele><time>2026-05-03T08:57:57.135Z</time></trkpt><trkpt lat="44.0684435" lon="10.7651137"><ele>488.6666666666667</ele><time>2026-05-03T08:57:58.135Z</time></trkpt><trkpt lat="44.068614" lon="10.7650849"><ele>493.0</ele><time>2026-05-03T08:57:59.136Z</time></trkpt><trkpt lat="44.0687863" lon="10.7650512"><ele>493.0</ele><time>2026-05-03T08:58:00.135Z</time></trkpt><trkpt lat="44.0689635" lon="10.7650562"><ele>493.0</ele><time>2026-05-03T08:58:01.135Z</time></trkpt><trkpt lat="44.0691405" lon="10.7651075"><ele>493.0</ele><time>2026-05-03T08:58:02.135Z</time></trkpt><trkpt lat="44.0693111" lon="10.7651947"><ele>487.6666666666667</ele><time>2026-05-03T08:58:03.136Z</time></trkpt><trkpt lat="44.0694728" lon="10.7652896"><ele>482.33333333333337</ele><time>2026-05-03T08:58:04.136Z</time></trkpt><trkpt lat="44.0696409" lon="10.7653639"><ele>477.0</ele><time>2026-05-03T08:58:05.136Z</time></trkpt><trkpt lat="44.0698071" lon="10.7654207"><ele>478.33333333333337</ele><time>2026-05-03T08:58:06.135Z</time></trkpt><trkpt lat="44.0699669" lon="10.7654841"><ele>479.6666666666667</ele><time>2026-05-03T08:58:07.135Z</time></trkpt><trkpt lat="44.070119" lon="10.7655527"><ele>481.0</ele><time>2026-05-03T08:58:08.136Z</time></trkpt><trkpt lat="44.0702512" lon="10.7656208"><ele>481.0</ele><time>2026-05-03T08:58:09.136Z</time></trkpt><trkpt lat="44.07037" lon="10.7656724"><ele>481.0</ele><time>2026-05-03T08:58:10.135Z</time></trkpt><trkpt lat="44.0704722" lon="10.76569"><ele>481.0</ele><time>2026-05-03T08:58:11.135Z</time></trkpt><trkpt lat="44.0705602" lon="10.7656522"><ele>481.0</ele><time>2026-05-03T08:58:12.135Z</time></trkpt><trkpt lat="44.070635" lon="10.7655644"><ele>481.0</ele><time>2026-05-03T08:58:13.134Z</time></trkpt><trkpt lat="44.070715" lon="10.7654412"><ele>481.0</ele><time>2026-05-03T08:58:14.136Z</time></trkpt><trkpt lat="44.0708061" lon="10.765297"><ele>481.0</ele><time>2026-05-03T08:58:15.135Z</time></trkpt><trkpt lat="44.0709018" lon="10.7651459"><ele>481.0</ele><time>2026-05-03T08:58:16.135Z</time></trkpt><trkpt lat="44.0709887" lon="10.7650075"><ele>481.0</ele><time>2026-05-03T08:58:17.135Z</time></trkpt><trkpt lat="44.0710887" lon="10.7648985"><ele>482.0</ele><time>2026-05-03T08:58:18.134Z</time></trkpt><trkpt lat="44.0712136" lon="10.76482"><ele>483.0</ele><time>2026-05-03T08:58:19.136Z</time></trkpt><trkpt lat="44.0713548" lon="10.7647742"><ele>484.0</ele><time>2026-05-03T08:58:20.136Z</time></trkpt><trkpt lat="44.0715066" lon="10.7647415"><ele>485.0</ele><time>2026-05-03T08:58:21.136Z</time></trkpt><trkpt lat="44.0716468" lon="10.7647114"><ele>485.5</ele><time>2026-05-03T08:58:22.135Z</time></trkpt><trkpt lat="44.0717762" lon="10.7646845"><ele>486.0</ele><time>2026-05-03T08:58:23.135Z</time></trkpt><trkpt lat="44.0719029" lon="10.7646913"><ele>486.5</ele><time>2026-05-03T08:58:24.136Z</time></trkpt><trkpt lat="44.0720246" lon="10.76474"><ele>487.0</ele><time>2026-05-03T08:58:25.136Z</time></trkpt><trkpt lat="44.0721311" lon="10.7648374"><ele>487.0</ele><time>2026-05-03T08:58:26.135Z</time></trkpt><trkpt lat="44.0722281" lon="10.7649754"><ele>487.0</ele><time>2026-05-03T08:58:27.135Z</time></trkpt><trkpt lat="44.0723276" lon="10.7651342"><ele>487.0</ele><time>2026-05-03T08:58:28.136Z</time></trkpt><trkpt lat="44.0724331" lon="10.7653264"><ele>489.0</ele><time>2026-05-03T08:58:29.135Z</time></trkpt><trkpt lat="44.0725436" lon="10.7655238"><ele>491.0</ele><time>2026-05-03T08:58:30.136Z</time></trkpt><trkpt lat="44.0726525" lon="10.7657243"><ele>493.0</ele><time>2026-05-03T08:58:31.135Z</time></trkpt><trkpt lat="44.0727497" lon="10.7659228"><ele>494.0</ele><time>2026-05-03T08:58:32.135Z</time></trkpt><trkpt lat="44.0728248" lon="10.7661115"><ele>495.0</ele><time>2026-05-03T08:58:33.135Z</time></trkpt><trkpt lat="44.0728946" lon="10.7662819"><ele>496.0</ele><time>2026-05-03T08:58:34.135Z</time></trkpt><trkpt lat="44.0729627" lon="10.7664269"><ele>497.0</ele><time>2026-05-03T08:58:35.136Z</time></trkpt><trkpt lat="44.0730421" lon="10.7665301"><ele>497.0</ele><time>2026-05-03T08:58:36.135Z</time></trkpt><trkpt lat="44.0731457" lon="10.7666034"><ele>497.0</ele><time>2026-05-03T08:58:37.135Z</time></trkpt><trkpt lat="44.0732758" lon="10.7666627"><ele>497.0</ele><time>2026-05-03T08:58:38.135Z</time></trkpt><trkpt lat="44.0734298" lon="10.7667206"><ele>497.0</ele><time>2026-05-03T08:58:39.135Z</time></trkpt><trkpt lat="44.0735926" lon="10.76677"><ele>497.66666666666663</ele><time>2026-05-03T08:58:40.136Z</time></trkpt><trkpt lat="44.0737514" lon="10.7668212"><ele>498.33333333333337</ele><time>2026-05-03T08:58:41.135Z</time></trkpt><trkpt lat="44.073905" lon="10.7668872"><ele>499.0</ele><time>2026-05-03T08:58:42.136Z</time></trkpt><trkpt lat="44.0740519" lon="10.7669824"><ele>500.33333333333337</ele><time>2026-05-03T08:58:43.136Z</time></trkpt><trkpt lat="44.0741924" lon="10.7670825"><ele>501.66666666666663</ele><time>2026-05-03T08:58:44.135Z</time></trkpt><trkpt lat="44.0743505" lon="10.7671578"><ele>503.0</ele><time>2026-05-03T08:58:45.136Z</time></trkpt><trkpt lat="44.0745256" lon="10.7672174"><ele>503.0</ele><time>2026-05-03T08:58:46.135Z</time></trkpt><trkpt lat="44.0747199" lon="10.7672741"><ele>503.0</ele><time>2026-05-03T08:58:47.136Z</time></trkpt><trkpt lat="44.0749057" lon="10.7673301"><ele>503.0</ele><time>2026-05-03T08:58:48.136Z</time></trkpt><trkpt lat="44.0750805" lon="10.7673947"><ele>505.3333333333333</ele><time>2026-05-03T08:58:49.135Z</time></trkpt><trkpt lat="44.0752437" lon="10.7674599"><ele>507.66666666666663</ele><time>2026-05-03T08:58:50.135Z</time></trkpt><trkpt lat="44.0754031" lon="10.7675342"><ele>510.0</ele><time>2026-05-03T08:58:51.136Z</time></trkpt><trkpt lat="44.0755629" lon="10.7675948"><ele>510.0</ele><time>2026-05-03T08:58:52.135Z</time></trkpt><trkpt lat="44.0757304" lon="10.7676192"><ele>510.0</ele><time>2026-05-03T08:58:53.136Z</time></trkpt><trkpt lat="44.0759071" lon="10.7676177"><ele>510.0</ele><time>2026-05-03T08:58:54.136Z</time></trkpt><trkpt lat="44.0760962" lon="10.7676079"><ele>515.3333333333334</ele><time>2026-05-03T08:58:55.136Z</time></trkpt><trkpt lat="44.0762885" lon="10.7675882"><ele>520.6666666666667</ele><time>2026-05-03T08:58:56.136Z</time></trkpt><trkpt lat="44.0764734" lon="10.7675711"><ele>526.0</ele><time>2026-05-03T08:58:57.136Z</time></trkpt><trkpt lat="44.0766595" lon="10.7675436"><ele>529.3333333333334</ele><time>2026-05-03T08:58:58.136Z</time></trkpt><trkpt lat="44.076846" lon="10.7675075"><ele>532.6666666666666</ele><time>2026-05-03T08:58:59.136Z</time></trkpt><trkpt lat="44.0770269" lon="10.7674628"><ele>536.0</ele><time>2026-05-03T08:59:00.135Z</time></trkpt><trkpt lat="44.0771944" lon="10.7674225"><ele>536.0</ele><time>2026-05-03T08:59:01.135Z</time></trkpt><trkpt lat="44.0773503" lon="10.7673843"><ele>536.0</ele><time>2026-05-03T08:59:02.135Z</time></trkpt><trkpt lat="44.0774969" lon="10.7673427"><ele>536.0</ele><time>2026-05-03T08:59:03.136Z</time></trkpt><trkpt lat="44.0776487" lon="10.7673161"><ele>530.3333333333333</ele><time>2026-05-03T08:59:04.135Z</time></trkpt><trkpt lat="44.0778084" lon="10.7673206"><ele>524.6666666666666</ele><time>2026-05-03T08:59:05.135Z</time></trkpt><trkpt lat="44.0779831" lon="10.7673485"><ele>519.0</ele><time>2026-05-03T08:59:06.136Z</time></trkpt><trkpt lat="44.078165" lon="10.7673846"><ele>519.3333333333334</ele><time>2026-05-03T08:59:07.135Z</time></trkpt><trkpt lat="44.0783514" lon="10.76743"><ele>519.6666666666667</ele><time>2026-05-03T08:59:08.136Z</time></trkpt><trkpt lat="44.0785398" lon="10.7674975"><ele>520.0</ele><time>2026-05-03T08:59:09.135Z</time></trkpt><trkpt lat="44.0787086" lon="10.7675678"><ele>520.0</ele><time>2026-05-03T08:59:10.136Z</time></trkpt><trkpt lat="44.0788587" lon="10.7676257"><ele>520.0</ele><time>2026-05-03T08:59:11.136Z</time></trkpt><trkpt lat="44.0789948" lon="10.7676422"><ele>520.0</ele><time>2026-05-03T08:59:12.136Z</time></trkpt><trkpt lat="44.0791261" lon="10.7676049"><ele>520.0</ele><time>2026-05-03T08:59:13.135Z</time></trkpt><trkpt lat="44.0792639" lon="10.7675126"><ele>520.3333333333334</ele><time>2026-05-03T08:59:14.135Z</time></trkpt><trkpt lat="44.0794147" lon="10.7673896"><ele>520.6666666666666</ele><time>2026-05-03T08:59:15.135Z</time></trkpt><trkpt lat="44.079572" lon="10.7672599"><ele>521.0</ele><time>2026-05-03T08:59:16.135Z</time></trkpt><trkpt lat="44.0797387" lon="10.7671229"><ele>521.0</ele><time>2026-05-03T08:59:17.136Z</time></trkpt><trkpt lat="44.0799119" lon="10.7669755"><ele>521.0</ele><time>2026-05-03T08:59:18.135Z</time></trkpt><trkpt lat="44.0800834" lon="10.7668119"><ele>521.0</ele><time>2026-05-03T08:59:19.135Z</time></trkpt><trkpt lat="44.0802504" lon="10.7666339"><ele>533.0</ele><time>2026-05-03T08:59:20.136Z</time></trkpt><trkpt lat="44.0804145" lon="10.7664552"><ele>545.0</ele><time>2026-05-03T08:59:21.135Z</time></trkpt><trkpt lat="44.0805681" lon="10.7662889"><ele>557.0</ele><time>2026-05-03T08:59:22.135Z</time></trkpt><trkpt lat="44.0807086" lon="10.7661418"><ele>559.3333333333333</ele><time>2026-05-03T08:59:23.136Z</time></trkpt><trkpt lat="44.0808363" lon="10.7660073"><ele>561.6666666666666</ele><time>2026-05-03T08:59:24.136Z</time></trkpt><trkpt lat="44.0809614" lon="10.7658953"><ele>564.0</ele><time>2026-05-03T08:59:25.136Z</time></trkpt><trkpt lat="44.0810981" lon="10.7657984"><ele>564.0</ele><time>2026-05-03T08:59:26.136Z</time></trkpt><trkpt lat="44.0812508" lon="10.7657252"><ele>564.0</ele><time>2026-05-03T08:59:27.135Z</time></trkpt><trkpt lat="44.0814137" lon="10.7656727"><ele>564.0</ele><time>2026-05-03T08:59:28.136Z</time></trkpt><trkpt lat="44.0815826" lon="10.7656401"><ele>560.0</ele><time>2026-05-03T08:59:29.136Z</time></trkpt><trkpt lat="44.0817462" lon="10.7656277"><ele>556.0</ele><time>2026-05-03T08:59:30.136Z</time></trkpt><trkpt lat="44.0818985" lon="10.765645"><ele>552.0</ele><time>2026-05-03T08:59:31.136Z</time></trkpt><trkpt lat="44.0820388" lon="10.7656867"><ele>552.0</ele><time>2026-05-03T08:59:32.135Z</time></trkpt><trkpt lat="44.0821704" lon="10.7657047"><ele>552.0</ele><time>2026-05-03T08:59:33.135Z</time></trkpt><trkpt lat="44.0823174" lon="10.7656636"><ele>552.0</ele><time>2026-05-03T08:59:34.136Z</time></trkpt><trkpt lat="44.0824656" lon="10.7655988"><ele>552.0</ele><time>2026-05-03T08:59:35.135Z</time></trkpt><trkpt lat="44.0826157" lon="10.7655013"><ele>551.3333333333334</ele><time>2026-05-03T08:59:36.135Z</time></trkpt><trkpt lat="44.0827584" lon="10.7653714"><ele>550.6666666666667</ele><time>2026-05-03T08:59:37.136Z</time></trkpt><trkpt lat="44.0828914" lon="10.765206"><ele>550.0</ele><time>2026-05-03T08:59:38.136Z</time></trkpt><trkpt lat="44.0830184" lon="10.7650058"><ele>555.3333333333334</ele><time>2026-05-03T08:59:39.135Z</time></trkpt><trkpt lat="44.0831398" lon="10.7647758"><ele>560.6666666666666</ele><time>2026-05-03T08:59:40.136Z</time></trkpt><trkpt lat="44.0832467" lon="10.7645471"><ele>566.0</ele><time>2026-05-03T08:59:41.135Z</time></trkpt><trkpt lat="44.0833477" lon="10.7643357"><ele>566.0</ele><time>2026-05-03T08:59:42.135Z</time></trkpt><trkpt lat="44.0834534" lon="10.7641474"><ele>566.0</ele><time>2026-05-03T08:59:43.136Z</time></trkpt><trkpt lat="44.0835607" lon="10.7639803"><ele>566.0</ele><time>2026-05-03T08:59:44.136Z</time></trkpt><trkpt lat="44.083665" lon="10.7638382"><ele>566.0</ele><time>2026-05-03T08:59:45.135Z</time></trkpt><trkpt lat="44.0837729" lon="10.7637103"><ele>566.0</ele><time>2026-05-03T08:59:46.136Z</time></trkpt><trkpt lat="44.0838925" lon="10.7636222"><ele>566.0</ele><time>2026-05-03T08:59:47.136Z</time></trkpt><trkpt lat="44.0840297" lon="10.7635565"><ele>566.0</ele><time>2026-05-03T08:59:48.135Z</time></trkpt><trkpt lat="44.0841853" lon="10.7635082"><ele>569.6666666666666</ele><time>2026-05-03T08:59:49.136Z</time></trkpt><trkpt lat="44.0843536" lon="10.7634577"><ele>573.3333333333334</ele><time>2026-05-03T08:59:50.135Z</time></trkpt><trkpt lat="44.0845334" lon="10.7634073"><ele>577.0</ele><time>2026-05-03T08:59:51.136Z</time></trkpt><trkpt lat="44.0847106" lon="10.7633592"><ele>577.0</ele><time>2026-05-03T08:59:52.135Z</time></trkpt><trkpt lat="44.0848843" lon="10.7633239"><ele>577.0</ele><time>2026-05-03T08:59:53.136Z</time></trkpt><trkpt lat="44.08506" lon="10.7632973"><ele>577.0</ele><time>2026-05-03T08:59:54.135Z</time></trkpt><trkpt lat="44.085233" lon="10.7632732"><ele>573.3333333333334</ele><time>2026-05-03T08:59:55.136Z</time></trkpt><trkpt lat="44.0854076" lon="10.763244"><ele>569.6666666666666</ele><time>2026-05-03T08:59:56.135Z</time></trkpt><trkpt lat="44.0855837" lon="10.7631974"><ele>566.0</ele><time>2026-05-03T08:59:57.135Z</time></trkpt><trkpt lat="44.0857626" lon="10.7631266"><ele>560.0</ele><time>2026-05-03T08:59:58.135Z</time></trkpt><trkpt lat="44.0859443" lon="10.7630285"><ele>554.0</ele><time>2026-05-03T08:59:59.136Z</time></trkpt><trkpt lat="44.0861296" lon="10.7629143"><ele>548.0</ele><time>2026-05-03T09:00:00.135Z</time></trkpt><trkpt lat="44.0863237" lon="10.7627947"><ele>552.3333333333333</ele><time>2026-05-03T09:00:01.136Z</time></trkpt><trkpt lat="44.0865199" lon="10.7626789"><ele>556.6666666666666</ele><time>2026-05-03T09:00:02.135Z</time></trkpt><trkpt lat="44.0867087" lon="10.7625708"><ele>561.0</ele><time>2026-05-03T09:00:03.136Z</time></trkpt><trkpt lat="44.0868933" lon="10.7624561"><ele>561.0</ele><time>2026-05-03T09:00:04.136Z</time></trkpt><trkpt lat="44.0870641" lon="10.7623295"><ele>561.0</ele><time>2026-05-03T09:00:05.136Z</time></trkpt><trkpt lat="44.0872269" lon="10.7621891"><ele>561.0</ele><time>2026-05-03T09:00:06.135Z</time></trkpt><trkpt lat="44.0873785" lon="10.7620449"><ele>563.3333333333334</ele><time>2026-05-03T09:00:07.135Z</time></trkpt><trkpt lat="44.0875234" lon="10.7619001"><ele>565.6666666666667</ele><time>2026-05-03T09:00:08.136Z</time></trkpt><trkpt lat="44.0876631" lon="10.7617609"><ele>568.0</ele><time>2026-05-03T09:00:09.136Z</time></trkpt><trkpt lat="44.0878001" lon="10.761625"><ele>568.0</ele><time>2026-05-03T09:00:10.136Z</time></trkpt><trkpt lat="44.0879389" lon="10.7614881"><ele>568.0</ele><time>2026-05-03T09:00:11.136Z</time></trkpt><trkpt lat="44.0880748" lon="10.7613464"><ele>568.0</ele><time>2026-05-03T09:00:12.135Z</time></trkpt><trkpt lat="44.0882059" lon="10.7611946"><ele>566.0</ele><time>2026-05-03T09:00:13.135Z</time></trkpt><trkpt lat="44.0883308" lon="10.7610285"><ele>564.0</ele><time>2026-05-03T09:00:14.136Z</time></trkpt><trkpt lat="44.0884518" lon="10.7608508"><ele>562.0</ele><time>2026-05-03T09:00:15.136Z</time></trkpt><trkpt lat="44.0885672" lon="10.760666"><ele>562.0</ele><time>2026-05-03T09:00:16.135Z</time></trkpt><trkpt lat="44.08868" lon="10.7604786"><ele>562.0</ele><time>2026-05-03T09:00:17.135Z</time></trkpt><trkpt lat="44.0887919" lon="10.7602963"><ele>562.0</ele><time>2026-05-03T09:00:18.135Z</time></trkpt><trkpt lat="44.0888978" lon="10.7601227"><ele>560.3333333333334</ele><time>2026-05-03T09:00:19.135Z</time></trkpt><trkpt lat="44.0890054" lon="10.7599475"><ele>558.6666666666666</ele><time>2026-05-03T09:00:20.135Z</time></trkpt><trkpt lat="44.0891167" lon="10.7597855"><ele>557.0</ele><time>2026-05-03T09:00:21.135Z</time></trkpt><trkpt lat="44.0892151" lon="10.7596505"><ele>557.0</ele><time>2026-05-03T09:00:22.136Z</time></trkpt><trkpt lat="44.0892985" lon="10.7595457"><ele>557.0</ele><time>2026-05-03T09:00:23.135Z</time></trkpt><trkpt lat="44.0893696" lon="10.7594602"><ele>557.0</ele><time>2026-05-03T09:00:24.136Z</time></trkpt><trkpt lat="44.0894433" lon="10.7593774"><ele>557.0</ele><time>2026-05-03T09:00:25.136Z</time></trkpt><trkpt lat="44.0895268" lon="10.7593043"><ele>557.0</ele><time>2026-05-03T09:00:26.135Z</time></trkpt><trkpt lat="44.0896236" lon="10.7592327"><ele>558.0</ele><time>2026-05-03T09:00:27.135Z</time></trkpt><trkpt lat="44.0897256" lon="10.7591595"><ele>559.0</ele><time>2026-05-03T09:00:28.135Z</time></trkpt><trkpt lat="44.0898343" lon="10.7590849"><ele>560.0</ele><time>2026-05-03T09:00:29.136Z</time></trkpt><trkpt lat="44.0899364" lon="10.7590129"><ele>561.0</ele><time>2026-05-03T09:00:30.135Z</time></trkpt><trkpt lat="44.0900369" lon="10.7589388"><ele>561.0</ele><time>2026-05-03T09:00:31.135Z</time></trkpt><trkpt lat="44.0901373" lon="10.7588657"><ele>561.0</ele><time>2026-05-03T09:00:32.135Z</time></trkpt><trkpt lat="44.0902339" lon="10.7587955"><ele>561.0</ele><time>2026-05-03T09:00:33.136Z</time></trkpt><trkpt lat="44.0903208" lon="10.7587233"><ele>561.0</ele><time>2026-05-03T09:00:34.136Z</time></trkpt><trkpt lat="44.090404" lon="10.7586332"><ele>561.0</ele><time>2026-05-03T09:00:35.136Z</time></trkpt><trkpt lat="44.0904811" lon="10.7585172"><ele>562.8</ele><time>2026-05-03T09:00:36.136Z</time></trkpt><trkpt lat="44.0905543" lon="10.758387"><ele>564.6</ele><time>2026-05-03T09:00:37.136Z</time></trkpt><trkpt lat="44.0906205" lon="10.7582625"><ele>566.4</ele><time>2026-05-03T09:00:38.135Z</time></trkpt><trkpt lat="44.0907008" lon="10.7581651"><ele>568.2</ele><time>2026-05-03T09:00:39.135Z</time></trkpt><trkpt lat="44.0907956" lon="10.7580854"><ele>570.0</ele><time>2026-05-03T09:00:40.135Z</time></trkpt><trkpt lat="44.0909044" lon="10.7580222"><ele>570.0</ele><time>2026-05-03T09:00:41.135Z</time></trkpt><trkpt lat="44.0910232" lon="10.7579495"><ele>570.0</ele><time>2026-05-03T09:00:42.136Z</time></trkpt><trkpt lat="44.0911656" lon="10.7578549"><ele>570.0</ele><time>2026-05-03T09:00:43.135Z</time></trkpt><trkpt lat="44.0913385" lon="10.7577686"><ele>574.6666666666666</ele><time>2026-05-03T09:00:44.136Z</time></trkpt><trkpt lat="44.091523" lon="10.7576777"><ele>579.3333333333333</ele><time>2026-05-03T09:00:45.135Z</time></trkpt><trkpt lat="44.091686" lon="10.7575955"><ele>584.0</ele><time>2026-05-03T09:00:46.136Z</time></trkpt><trkpt lat="44.0918346" lon="10.7575219"><ele>584.0</ele><time>2026-05-03T09:00:47.136Z</time></trkpt><trkpt lat="44.0919713" lon="10.7574791"><ele>584.0</ele><time>2026-05-03T09:00:48.135Z</time></trkpt><trkpt lat="44.0920876" lon="10.7574659"><ele>584.0</ele><time>2026-05-03T09:00:49.136Z</time></trkpt><trkpt lat="44.0921925" lon="10.7574668"><ele>584.0</ele><time>2026-05-03T09:00:50.136Z</time></trkpt><trkpt lat="44.0922931" lon="10.7574807"><ele>584.0</ele><time>2026-05-03T09:00:51.136Z</time></trkpt><trkpt lat="44.0923901" lon="10.7575034"><ele>584.0</ele><time>2026-05-03T09:00:52.135Z</time></trkpt><trkpt lat="44.0924871" lon="10.7575291"><ele>584.0</ele><time>2026-05-03T09:00:53.135Z</time></trkpt><trkpt lat="44.0925823" lon="10.7575526"><ele>584.0</ele><time>2026-05-03T09:00:54.136Z</time></trkpt><trkpt lat="44.0926823" lon="10.7575682"><ele>584.0</ele><time>2026-05-03T09:00:55.135Z</time></trkpt><trkpt lat="44.0927916" lon="10.7575732"><ele>582.5</ele><time>2026-05-03T09:00:56.135Z</time></trkpt><trkpt lat="44.0929021" lon="10.7575585"><ele>581.0</ele><time>2026-05-03T09:00:57.136Z</time></trkpt><trkpt lat="44.0930093" lon="10.7575329"><ele>579.5</ele><time>2026-05-03T09:00:58.135Z</time></trkpt><trkpt lat="44.0931212" lon="10.7575037"><ele>578.0</ele><time>2026-05-03T09:00:59.136Z</time></trkpt><trkpt lat="44.0932555" lon="10.757461"><ele>579.3333333333333</ele><time>2026-05-03T09:01:00.136Z</time></trkpt><trkpt lat="44.0934019" lon="10.7574118"><ele>580.6666666666666</ele><time>2026-05-03T09:01:01.135Z</time></trkpt><trkpt lat="44.093555" lon="10.7573678"><ele>582.0</ele><time>2026-05-03T09:01:02.135Z</time></trkpt><trkpt lat="44.0937027" lon="10.7573331"><ele>582.0</ele><time>2026-05-03T09:01:03.135Z</time></trkpt><trkpt lat="44.0938346" lon="10.7573005"><ele>582.0</ele><time>2026-05-03T09:01:04.136Z</time></trkpt><trkpt lat="44.093951" lon="10.7572701"><ele>582.0</ele><time>2026-05-03T09:01:05.135Z</time></trkpt><trkpt lat="44.094048" lon="10.7572463"><ele>582.0</ele><time>2026-05-03T09:01:06.135Z</time></trkpt><trkpt lat="44.0941331" lon="10.7572199"><ele>582.0</ele><time>2026-05-03T09:01:07.135Z</time></trkpt><trkpt lat="44.0942121" lon="10.7571978"><ele>581.8333333333334</ele><time>2026-05-03T09:01:08.135Z</time></trkpt><trkpt lat="44.0942933" lon="10.7571733"><ele>581.6666666666666</ele><time>2026-05-03T09:01:09.136Z</time></trkpt><trkpt lat="44.094377" lon="10.7571464"><ele>581.5</ele><time>2026-05-03T09:01:10.135Z</time></trkpt><trkpt lat="44.0944574" lon="10.757111"><ele>581.3333333333333</ele><time>2026-05-03T09:01:11.136Z</time></trkpt><trkpt lat="44.0945199" lon="10.7570699"><ele>581.1666666666666</ele><time>2026-05-03T09:01:12.135Z</time></trkpt><trkpt lat="44.0946247" lon="10.756982"><ele>581.0</ele><time>2026-05-03T09:01:14.135Z</time></trkpt><trkpt lat="44.094677" lon="10.7569272"><ele>585.8333333333333</ele><time>2026-05-03T09:01:15.135Z</time></trkpt><trkpt lat="44.0947279" lon="10.7568629"><ele>590.6666666666666</ele><time>2026-05-03T09:01:16.136Z</time></trkpt><trkpt lat="44.0947707" lon="10.7567834"><ele>595.5</ele><time>2026-05-03T09:01:17.136Z</time></trkpt><trkpt lat="44.0948088" lon="10.7567006"><ele>600.3333333333334</ele><time>2026-05-03T09:01:18.136Z</time></trkpt><trkpt lat="44.0948382" lon="10.7566073"><ele>605.1666666666667</ele><time>2026-05-03T09:01:19.136Z</time></trkpt><trkpt lat="44.0948558" lon="10.7564953"><ele>610.0</ele><time>2026-05-03T09:01:20.136Z</time></trkpt><trkpt lat="44.0948617" lon="10.756363"><ele>610.0</ele><time>2026-05-03T09:01:21.135Z</time></trkpt><trkpt lat="44.0948646" lon="10.7562324"><ele>610.0</ele><time>2026-05-03T09:01:22.136Z</time></trkpt><trkpt lat="44.0948739" lon="10.7560908"><ele>610.0</ele><time>2026-05-03T09:01:23.136Z</time></trkpt><trkpt lat="44.0948954" lon="10.7559077"><ele>610.0</ele><time>2026-05-03T09:01:24.136Z</time></trkpt><trkpt lat="44.0949487" lon="10.7556905"><ele>608.3333333333334</ele><time>2026-05-03T09:01:25.135Z</time></trkpt><trkpt lat="44.0950291" lon="10.7554292"><ele>606.6666666666666</ele><time>2026-05-03T09:01:26.136Z</time></trkpt><trkpt lat="44.0951171" lon="10.7551695"><ele>605.0</ele><time>2026-05-03T09:01:27.136Z</time></trkpt><trkpt lat="44.0952234" lon="10.7549279"><ele>609.3333333333333</ele><time>2026-05-03T09:01:28.136Z</time></trkpt><trkpt lat="44.0953341" lon="10.7547146"><ele>613.6666666666666</ele><time>2026-05-03T09:01:29.135Z</time></trkpt><trkpt lat="44.0954261" lon="10.7545286"><ele>618.0</ele><time>2026-05-03T09:01:30.136Z</time></trkpt><trkpt lat="44.0954704" lon="10.7543291"><ele>621.3333333333334</ele><time>2026-05-03T09:01:31.136Z</time></trkpt><trkpt lat="44.0954819" lon="10.754106"><ele>624.6666666666667</ele><time>2026-05-03T09:01:32.135Z</time></trkpt><trkpt lat="44.0954841" lon="10.7538929"><ele>628.0</ele><time>2026-05-03T09:01:33.135Z</time></trkpt><trkpt lat="44.0955144" lon="10.7536936"><ele>626.0</ele><time>2026-05-03T09:01:34.135Z</time></trkpt><trkpt lat="44.0955796" lon="10.7535074"><ele>624.0</ele><time>2026-05-03T09:01:35.136Z</time></trkpt><trkpt lat="44.0956847" lon="10.7533681"><ele>622.0</ele><time>2026-05-03T09:01:36.136Z</time></trkpt><trkpt lat="44.0958021" lon="10.7532832"><ele>620.0</ele><time>2026-05-03T09:01:37.135Z</time></trkpt><trkpt lat="44.0959706" lon="10.7532114"><ele>608.3333333333333</ele><time>2026-05-03T09:01:38.136Z</time></trkpt><trkpt lat="44.0961693" lon="10.7531112"><ele>596.6666666666666</ele><time>2026-05-03T09:01:39.136Z</time></trkpt><trkpt lat="44.0963738" lon="10.7530252"><ele>585.0</ele><time>2026-05-03T09:01:40.136Z</time></trkpt><trkpt lat="44.0965602" lon="10.7529623"><ele>583.25</ele><time>2026-05-03T09:01:41.135Z</time></trkpt><trkpt lat="44.0967256" lon="10.7529246"><ele>581.5</ele><time>2026-05-03T09:01:42.136Z</time></trkpt><trkpt lat="44.0968645" lon="10.7528896"><ele>579.75</ele><time>2026-05-03T09:01:43.136Z</time></trkpt><trkpt lat="44.0969753" lon="10.7528135"><ele>578.0</ele><time>2026-05-03T09:01:44.135Z</time></trkpt><trkpt lat="44.0970528" lon="10.7526909"><ele>586.25</ele><time>2026-05-03T09:01:45.135Z</time></trkpt><trkpt lat="44.0970854" lon="10.752544"><ele>594.5</ele><time>2026-05-03T09:01:46.135Z</time></trkpt><trkpt lat="44.0970743" lon="10.7523701"><ele>602.75</ele><time>2026-05-03T09:01:47.136Z</time></trkpt><trkpt lat="44.0970594" lon="10.7521683"><ele>611.0</ele><time>2026-05-03T09:01:48.136Z</time></trkpt><trkpt lat="44.0970939" lon="10.7519657"><ele>617.3333333333333</ele><time>2026-05-03T09:01:49.136Z</time></trkpt><trkpt lat="44.0971699" lon="10.7517657"><ele>623.6666666666666</ele><time>2026-05-03T09:01:50.135Z</time></trkpt><trkpt lat="44.0972687" lon="10.7515747"><ele>630.0</ele><time>2026-05-03T09:01:51.135Z</time></trkpt><trkpt lat="44.0973882" lon="10.7514063"><ele>617.0</ele><time>2026-05-03T09:01:52.135Z</time></trkpt><trkpt lat="44.097535" lon="10.7512663"><ele>604.0</ele><time>2026-05-03T09:01:53.136Z</time></trkpt><trkpt lat="44.0976952" lon="10.7511453"><ele>591.0</ele><time>2026-05-03T09:01:54.136Z</time></trkpt><trkpt lat="44.0978464" lon="10.7510427"><ele>591.5</ele><time>2026-05-03T09:01:55.136Z</time></trkpt><trkpt lat="44.0979866" lon="10.7509799"><ele>592.0</ele><time>2026-05-03T09:01:56.135Z</time></trkpt><trkpt lat="44.0981348" lon="10.7509613"><ele>592.5</ele><time>2026-05-03T09:01:57.136Z</time></trkpt><trkpt lat="44.0982876" lon="10.7509656"><ele>593.0</ele><time>2026-05-03T09:01:58.135Z</time></trkpt><trkpt lat="44.0984602" lon="10.750964"><ele>593.0</ele><time>2026-05-03T09:01:59.136Z</time></trkpt><trkpt lat="44.0986244" lon="10.7509474"><ele>593.0</ele><time>2026-05-03T09:02:00.135Z</time></trkpt><trkpt lat="44.0987775" lon="10.7509104"><ele>593.0</ele><time>2026-05-03T09:02:01.135Z</time></trkpt><trkpt lat="44.0989273" lon="10.7508379"><ele>593.0</ele><time>2026-05-03T09:02:02.136Z</time></trkpt><trkpt lat="44.0990671" lon="10.7507549"><ele>593.0</ele><time>2026-05-03T09:02:03.136Z</time></trkpt><trkpt lat="44.0992032" lon="10.7507103"><ele>593.0</ele><time>2026-05-03T09:02:04.136Z</time></trkpt><trkpt lat="44.0993416" lon="10.7507138"><ele>593.0</ele><time>2026-05-03T09:02:05.136Z</time></trkpt><trkpt lat="44.0994714" lon="10.7507211"><ele>593.25</ele><time>2026-05-03T09:02:06.135Z</time></trkpt><trkpt lat="44.0995951" lon="10.7507013"><ele>593.5</ele><time>2026-05-03T09:02:07.135Z</time></trkpt><trkpt lat="44.0997171" lon="10.7506348"><ele>593.75</ele><time>2026-05-03T09:02:08.135Z</time></trkpt><trkpt lat="44.0998389" lon="10.7505231"><ele>594.0</ele><time>2026-05-03T09:02:09.136Z</time></trkpt><trkpt lat="44.0999622" lon="10.750364"><ele>598.0</ele><time>2026-05-03T09:02:10.135Z</time></trkpt><trkpt lat="44.1000965" lon="10.7501954"><ele>602.0</ele><time>2026-05-03T09:02:11.135Z</time></trkpt><trkpt lat="44.1001992" lon="10.7500364"><ele>606.0</ele><time>2026-05-03T09:02:12.135Z</time></trkpt><trkpt lat="44.1002672" lon="10.7498476"><ele>606.0</ele><time>2026-05-03T09:02:13.136Z</time></trkpt><trkpt lat="44.1002892" lon="10.7496439"><ele>606.0</ele><time>2026-05-03T09:02:14.136Z</time></trkpt><trkpt lat="44.1002818" lon="10.7494548"><ele>606.0</ele><time>2026-05-03T09:02:15.136Z</time></trkpt><trkpt lat="44.1002964" lon="10.7492992"><ele>606.0</ele><time>2026-05-03T09:02:16.135Z</time></trkpt><trkpt lat="44.1003402" lon="10.7491611"><ele>608.0</ele><time>2026-05-03T09:02:17.135Z</time></trkpt><trkpt lat="44.1004095" lon="10.749048"><ele>610.0</ele><time>2026-05-03T09:02:18.136Z</time></trkpt><trkpt lat="44.1004925" lon="10.7489469"><ele>612.0</ele><time>2026-05-03T09:02:19.136Z</time></trkpt><trkpt lat="44.100581" lon="10.7488361"><ele>614.0</ele><time>2026-05-03T09:02:20.136Z</time></trkpt><trkpt lat="44.1006719" lon="10.7487172"><ele>615.0</ele><time>2026-05-03T09:02:21.136Z</time></trkpt><trkpt lat="44.1007696" lon="10.7485925"><ele>616.0</ele><time>2026-05-03T09:02:22.135Z</time></trkpt><trkpt lat="44.1008751" lon="10.7484554"><ele>617.0</ele><time>2026-05-03T09:02:23.135Z</time></trkpt><trkpt lat="44.1009846" lon="10.7483131"><ele>618.0</ele><time>2026-05-03T09:02:24.136Z</time></trkpt><trkpt lat="44.1010994" lon="10.7481682"><ele>618.0</ele><time>2026-05-03T09:02:25.135Z</time></trkpt><trkpt lat="44.1012182" lon="10.7480181"><ele>618.0</ele><time>2026-05-03T09:02:26.136Z</time></trkpt><trkpt lat="44.1013362" lon="10.7478686"><ele>618.0</ele><time>2026-05-03T09:02:27.136Z</time></trkpt><trkpt lat="44.1014339" lon="10.7477159"><ele>618.75</ele><time>2026-05-03T09:02:28.135Z</time></trkpt><trkpt lat="44.1015022" lon="10.7475446"><ele>619.5</ele><time>2026-05-03T09:02:29.135Z</time></trkpt><trkpt lat="44.1015439" lon="10.7473559"><ele>620.25</ele><time>2026-05-03T09:02:30.136Z</time></trkpt><trkpt lat="44.1015694" lon="10.7471463"><ele>621.0</ele><time>2026-05-03T09:02:31.136Z</time></trkpt><trkpt lat="44.1015927" lon="10.7469147"><ele>622.3333333333334</ele><time>2026-05-03T09:02:32.135Z</time></trkpt><trkpt lat="44.1016149" lon="10.7466687"><ele>623.6666666666667</ele><time>2026-05-03T09:02:33.135Z</time></trkpt><trkpt lat="44.1016371" lon="10.746413"><ele>625.0</ele><time>2026-05-03T09:02:34.136Z</time></trkpt><trkpt lat="44.10166" lon="10.7461461"><ele>627.6666666666667</ele><time>2026-05-03T09:02:35.136Z</time></trkpt><trkpt lat="44.1016788" lon="10.7458983"><ele>630.3333333333334</ele><time>2026-05-03T09:02:36.135Z</time></trkpt><trkpt lat="44.1017061" lon="10.7456733"><ele>633.0</ele><time>2026-05-03T09:02:37.136Z</time></trkpt><trkpt lat="44.1017671" lon="10.7455028"><ele>633.0</ele><time>2026-05-03T09:02:38.136Z</time></trkpt><trkpt lat="44.101857" lon="10.7453614"><ele>633.0</ele><time>2026-05-03T09:02:39.135Z</time></trkpt><trkpt lat="44.1019796" lon="10.7452246"><ele>633.0</ele><time>2026-05-03T09:02:40.136Z</time></trkpt><trkpt lat="44.1021268" lon="10.7450795"><ele>634.3333333333334</ele><time>2026-05-03T09:02:41.136Z</time></trkpt><trkpt lat="44.1022863" lon="10.744918"><ele>635.6666666666667</ele><time>2026-05-03T09:02:42.135Z</time></trkpt><trkpt lat="44.1024271" lon="10.7447755"><ele>637.0</ele><time>2026-05-03T09:02:43.135Z</time></trkpt><trkpt lat="44.1025721" lon="10.7446682"><ele>632.6666666666667</ele><time>2026-05-03T09:02:44.136Z</time></trkpt><trkpt lat="44.1027248" lon="10.744618"><ele>628.3333333333334</ele><time>2026-05-03T09:02:45.136Z</time></trkpt><trkpt lat="44.1028885" lon="10.7446022"><ele>624.0</ele><time>2026-05-03T09:02:46.136Z</time></trkpt><trkpt lat="44.1030577" lon="10.7446271"><ele>624.0</ele><time>2026-05-03T09:02:47.136Z</time></trkpt><trkpt lat="44.103206" lon="10.7446776"><ele>624.0</ele><time>2026-05-03T09:02:48.136Z</time></trkpt><trkpt lat="44.1033278" lon="10.7447219"><ele>624.0</ele><time>2026-05-03T09:02:49.135Z</time></trkpt><trkpt lat="44.1034366" lon="10.7447214"><ele>624.0</ele><time>2026-05-03T09:02:50.135Z</time></trkpt><trkpt lat="44.1035108" lon="10.7446613"><ele>624.3333333333334</ele><time>2026-05-03T09:02:51.136Z</time></trkpt><trkpt lat="44.1035473" lon="10.7445575"><ele>624.6666666666666</ele><time>2026-05-03T09:02:52.135Z</time></trkpt><trkpt lat="44.1035326" lon="10.7444572"><ele>625.0</ele><time>2026-05-03T09:02:53.136Z</time></trkpt><trkpt lat="44.1034684" lon="10.7443802"><ele>625.3333333333333</ele><time>2026-05-03T09:02:54.135Z</time></trkpt><trkpt lat="44.1033786" lon="10.7443411"><ele>625.6666666666666</ele><time>2026-05-03T09:02:55.136Z</time></trkpt><trkpt lat="44.1032807" lon="10.7442993"><ele>626.0</ele><time>2026-05-03T09:02:56.136Z</time></trkpt><trkpt lat="44.1031709" lon="10.7443106"><ele>626.0</ele><time>2026-05-03T09:02:57.136Z</time></trkpt><trkpt lat="44.1030976" lon="10.744258"><ele>626.0</ele><time>2026-05-03T09:02:58.135Z</time></trkpt><trkpt lat="44.1030583" lon="10.7441775"><ele>626.0</ele><time>2026-05-03T09:02:59.135Z</time></trkpt><trkpt lat="44.1030611" lon="10.7440869"><ele>626.0</ele><time>2026-05-03T09:03:00.135Z</time></trkpt><trkpt lat="44.1031048" lon="10.7440124"><ele>626.0</ele><time>2026-05-03T09:03:01.134Z</time></trkpt><trkpt lat="44.1031708" lon="10.7439945"><ele>626.0</ele><time>2026-05-03T09:03:02.135Z</time></trkpt><trkpt lat="44.1032704" lon="10.7439995"><ele>630.2</ele><time>2026-05-03T09:03:03.135Z</time></trkpt><trkpt lat="44.1033946" lon="10.7439958"><ele>634.4000000000001</ele><time>2026-05-03T09:03:04.135Z</time></trkpt><trkpt lat="44.1034797" lon="10.7439715"><ele>638.6</ele><time>2026-05-03T09:03:05.136Z</time></trkpt><trkpt lat="44.1035381" lon="10.7438897"><ele>642.8000000000001</ele><time>2026-05-03T09:03:06.136Z</time></trkpt><trkpt lat="44.1035586" lon="10.7437561"><ele>647.0</ele><time>2026-05-03T09:03:07.136Z</time></trkpt><trkpt lat="44.1035517" lon="10.743591"><ele>649.0</ele><time>2026-05-03T09:03:08.135Z</time></trkpt><trkpt lat="44.1035601" lon="10.7433909"><ele>651.0</ele><time>2026-05-03T09:03:09.136Z</time></trkpt><trkpt lat="44.1036039" lon="10.7431785"><ele>653.0</ele><time>2026-05-03T09:03:10.136Z</time></trkpt><trkpt lat="44.103673" lon="10.7429752"><ele>653.0</ele><time>2026-05-03T09:03:11.136Z</time></trkpt><trkpt lat="44.1037692" lon="10.742795"><ele>653.0</ele><time>2026-05-03T09:03:12.135Z</time></trkpt><trkpt lat="44.1038822" lon="10.7426777"><ele>653.0</ele><time>2026-05-03T09:03:13.136Z</time></trkpt><trkpt lat="44.1040183" lon="10.7426155"><ele>653.0</ele><time>2026-05-03T09:03:14.136Z</time></trkpt><trkpt lat="44.1041677" lon="10.7426107"><ele>661.3333333333333</ele><time>2026-05-03T09:03:15.134Z</time></trkpt><trkpt lat="44.1043309" lon="10.7426321"><ele>669.6666666666666</ele><time>2026-05-03T09:03:16.136Z</time></trkpt><trkpt lat="44.1045127" lon="10.7426518"><ele>678.0</ele><time>2026-05-03T09:03:17.136Z</time></trkpt><trkpt lat="44.104707" lon="10.7426783"><ele>678.0</ele><time>2026-05-03T09:03:18.136Z</time></trkpt><trkpt lat="44.104862" lon="10.7427005"><ele>678.0</ele><time>2026-05-03T09:03:19.135Z</time></trkpt><trkpt lat="44.104986" lon="10.7426935"><ele>678.0</ele><time>2026-05-03T09:03:20.136Z</time></trkpt><trkpt lat="44.1050844" lon="10.7426336"><ele>678.0</ele><time>2026-05-03T09:03:21.135Z</time></trkpt><trkpt lat="44.1051691" lon="10.7425308"><ele>677.75</ele><time>2026-05-03T09:03:22.136Z</time></trkpt><trkpt lat="44.1052467" lon="10.7423856"><ele>677.5</ele><time>2026-05-03T09:03:23.135Z</time></trkpt><trkpt lat="44.1053612" lon="10.7422909"><ele>677.25</ele><time>2026-05-03T09:03:24.136Z</time></trkpt><trkpt lat="44.1055042" lon="10.742233"><ele>677.0</ele><time>2026-05-03T09:03:25.135Z</time></trkpt><trkpt lat="44.1056794" lon="10.7421947"><ele>674.5</ele><time>2026-05-03T09:03:26.136Z</time></trkpt><trkpt lat="44.1058531" lon="10.7421717"><ele>672.0</ele><time>2026-05-03T09:03:27.135Z</time></trkpt><trkpt lat="44.1059868" lon="10.7421516"><ele>669.5</ele><time>2026-05-03T09:03:28.135Z</time></trkpt><trkpt lat="44.1060968" lon="10.7421248"><ele>667.0</ele><time>2026-05-03T09:03:29.136Z</time></trkpt><trkpt lat="44.1061768" lon="10.7420608"><ele>667.0</ele><time>2026-05-03T09:03:30.136Z</time></trkpt><trkpt lat="44.1062194" lon="10.7419681"><ele>667.0</ele><time>2026-05-03T09:03:31.135Z</time></trkpt><trkpt lat="44.1062132" lon="10.7418698"><ele>667.0</ele><time>2026-05-03T09:03:32.135Z</time></trkpt><trkpt lat="44.1061703" lon="10.7417888"><ele>667.0</ele><time>2026-05-03T09:03:33.135Z</time></trkpt><trkpt lat="44.1060371" lon="10.7417523"><ele>667.0</ele><time>2026-05-03T09:03:35.136Z</time></trkpt><trkpt lat="44.1059646" lon="10.7417978"><ele>667.0</ele><time>2026-05-03T09:03:36.135Z</time></trkpt><trkpt lat="44.1058342" lon="10.7418736"><ele>675.5</ele><time>2026-05-03T09:03:37.135Z</time></trkpt><trkpt lat="44.1056918" lon="10.7418522"><ele>684.0</ele><time>2026-05-03T09:03:38.136Z</time></trkpt><trkpt lat="44.105564" lon="10.7418202"><ele>692.5</ele><time>2026-05-03T09:03:39.135Z</time></trkpt><trkpt lat="44.1054127" lon="10.7417358"><ele>701.0</ele><time>2026-05-03T09:03:40.136Z</time></trkpt><trkpt lat="44.1052587" lon="10.7416668"><ele>701.0</ele><time>2026-05-03T09:03:41.136Z</time></trkpt><trkpt lat="44.1051432" lon="10.7416061"><ele>701.0</ele><time>2026-05-03T09:03:42.135Z</time></trkpt><trkpt lat="44.1050349" lon="10.7415899"><ele>701.0</ele><time>2026-05-03T09:03:43.135Z</time></trkpt><trkpt lat="44.1049471" lon="10.7416427"><ele>701.0</ele><time>2026-05-03T09:03:44.134Z</time></trkpt><trkpt lat="44.1048837" lon="10.7417428"><ele>701.0</ele><time>2026-05-03T09:03:45.136Z</time></trkpt><trkpt lat="44.1048287" lon="10.7418694"><ele>696.4</ele><time>2026-05-03T09:03:46.135Z</time></trkpt><trkpt lat="44.104752" lon="10.7419652"><ele>691.8</ele><time>2026-05-03T09:03:47.136Z</time></trkpt><trkpt lat="44.1046555" lon="10.7420325"><ele>687.1999999999999</ele><time>2026-05-03T09:03:48.134Z</time></trkpt><trkpt lat="44.1045713" lon="10.7420834"><ele>682.5999999999999</ele><time>2026-05-03T09:03:49.136Z</time></trkpt><trkpt lat="44.1044889" lon="10.7420877"><ele>678.0</ele><time>2026-05-03T09:03:50.135Z</time></trkpt><trkpt lat="44.1044199" lon="10.742036"><ele>678.0</ele><time>2026-05-03T09:03:51.136Z</time></trkpt><trkpt lat="44.1043909" lon="10.7419463"><ele>678.0</ele><time>2026-05-03T09:03:52.135Z</time></trkpt><trkpt lat="44.1044004" lon="10.7418449"><ele>678.0</ele><time>2026-05-03T09:03:53.135Z</time></trkpt><trkpt lat="44.1044499" lon="10.7417454"><ele>678.0</ele><time>2026-05-03T09:03:54.135Z</time></trkpt><trkpt lat="44.1045307" lon="10.7416263"><ele>678.0</ele><time>2026-05-03T09:03:55.135Z</time></trkpt><trkpt lat="44.1046314" lon="10.7414777"><ele>683.75</ele><time>2026-05-03T09:03:56.135Z</time></trkpt><trkpt lat="44.1047265" lon="10.7413425"><ele>689.5</ele><time>2026-05-03T09:03:57.135Z</time></trkpt><trkpt lat="44.1048267" lon="10.741253"><ele>695.25</ele><time>2026-05-03T09:03:58.135Z</time></trkpt><trkpt lat="44.1049428" lon="10.7412182"><ele>701.0</ele><time>2026-05-03T09:03:59.136Z</time></trkpt><trkpt lat="44.105057" lon="10.7412359"><ele>701.0</ele><time>2026-05-03T09:04:00.136Z</time></trkpt><trkpt lat="44.105177" lon="10.7412927"><ele>701.0</ele><time>2026-05-03T09:04:01.135Z</time></trkpt><trkpt lat="44.1052871" lon="10.7413649"><ele>701.0</ele><time>2026-05-03T09:04:02.135Z</time></trkpt><trkpt lat="44.1053822" lon="10.7414203"><ele>701.0</ele><time>2026-05-03T09:04:03.135Z</time></trkpt><trkpt lat="44.1054772" lon="10.7414325"><ele>701.0</ele><time>2026-05-03T09:04:04.135Z</time></trkpt><trkpt lat="44.1055673" lon="10.7413914"><ele>701.0</ele><time>2026-05-03T09:04:05.135Z</time></trkpt><trkpt lat="44.1056583" lon="10.741305"><ele>701.0</ele><time>2026-05-03T09:04:06.134Z</time></trkpt><trkpt lat="44.1057517" lon="10.7412024"><ele>701.0</ele><time>2026-05-03T09:04:07.135Z</time></trkpt><trkpt lat="44.1058551" lon="10.7411069"><ele>701.0</ele><time>2026-05-03T09:04:08.135Z</time></trkpt><trkpt lat="44.1059732" lon="10.7410605"><ele>700.5</ele><time>2026-05-03T09:04:09.136Z</time></trkpt><trkpt lat="44.1060967" lon="10.741061"><ele>700.0</ele><time>2026-05-03T09:04:10.135Z</time></trkpt><trkpt lat="44.1062205" lon="10.7410891"><ele>699.5</ele><time>2026-05-03T09:04:11.135Z</time></trkpt><trkpt lat="44.1063547" lon="10.7411101"><ele>699.0</ele><time>2026-05-03T09:04:12.136Z</time></trkpt><trkpt lat="44.1064981" lon="10.7410708"><ele>708.0</ele><time>2026-05-03T09:04:13.135Z</time></trkpt><trkpt lat="44.1066431" lon="10.7409884"><ele>717.0</ele><time>2026-05-03T09:04:14.135Z</time></trkpt><trkpt lat="44.1067902" lon="10.7408624"><ele>726.0</ele><time>2026-05-03T09:04:15.135Z</time></trkpt><trkpt lat="44.1069328" lon="10.7407314"><ele>726.0</ele><time>2026-05-03T09:04:16.136Z</time></trkpt><trkpt lat="44.1070522" lon="10.7406166"><ele>726.0</ele><time>2026-05-03T09:04:17.136Z</time></trkpt><trkpt lat="44.1071383" lon="10.7404875"><ele>726.0</ele><time>2026-05-03T09:04:18.135Z</time></trkpt><trkpt lat="44.1071854" lon="10.7403265"><ele>726.0</ele><time>2026-05-03T09:04:19.135Z</time></trkpt><trkpt lat="44.1071855" lon="10.7401578"><ele>732.75</ele><time>2026-05-03T09:04:20.134Z</time></trkpt><trkpt lat="44.1071568" lon="10.7399673"><ele>739.5</ele><time>2026-05-03T09:04:21.135Z</time></trkpt><trkpt lat="44.1071195" lon="10.7397619"><ele>746.25</ele><time>2026-05-03T09:04:22.136Z</time></trkpt><trkpt lat="44.1070962" lon="10.7395865"><ele>753.0</ele><time>2026-05-03T09:04:23.135Z</time></trkpt><trkpt lat="44.1070889" lon="10.7394182"><ele>755.25</ele><time>2026-05-03T09:04:24.134Z</time></trkpt><trkpt lat="44.1070914" lon="10.7392535"><ele>757.5</ele><time>2026-05-03T09:04:25.136Z</time></trkpt><trkpt lat="44.1072063" lon="10.7391809"><ele>759.75</ele><time>2026-05-03T09:04:26.135Z</time></trkpt><trkpt lat="44.1072657" lon="10.7390787"><ele>762.0</ele><time>2026-05-03T09:04:27.135Z</time></trkpt><trkpt lat="44.1074328" lon="10.7390291"><ele>761.75</ele><time>2026-05-03T09:04:28.136Z</time></trkpt><trkpt lat="44.1075446" lon="10.7389229"><ele>761.5</ele><time>2026-05-03T09:04:29.135Z</time></trkpt><trkpt lat="44.107646" lon="10.7387853"><ele>761.25</ele><time>2026-05-03T09:04:30.136Z</time></trkpt><trkpt lat="44.1077371" lon="10.7386286"><ele>761.0</ele><time>2026-05-03T09:04:31.135Z</time></trkpt><trkpt lat="44.1078481" lon="10.7384984"><ele>761.0</ele><time>2026-05-03T09:04:32.136Z</time></trkpt><trkpt lat="44.1079843" lon="10.7384124"><ele>761.0</ele><time>2026-05-03T09:04:33.134Z</time></trkpt><trkpt lat="44.1081177" lon="10.7383272"><ele>761.0</ele><time>2026-05-03T09:04:34.136Z</time></trkpt><trkpt lat="44.1082452" lon="10.738205"><ele>764.6666666666666</ele><time>2026-05-03T09:04:35.135Z</time></trkpt><trkpt lat="44.1083583" lon="10.7380426"><ele>768.3333333333333</ele><time>2026-05-03T09:04:36.135Z</time></trkpt><trkpt lat="44.1084557" lon="10.737842"><ele>772.0</ele><time>2026-05-03T09:04:37.136Z</time></trkpt><trkpt lat="44.1085433" lon="10.7376588"><ele>772.0</ele><time>2026-05-03T09:04:38.136Z</time></trkpt><trkpt lat="44.1086264" lon="10.7375109"><ele>772.0</ele><time>2026-05-03T09:04:39.136Z</time></trkpt><trkpt lat="44.1087236" lon="10.737423"><ele>772.0</ele><time>2026-05-03T09:04:40.136Z</time></trkpt><trkpt lat="44.1088137" lon="10.7373949"><ele>772.0</ele><time>2026-05-03T09:04:41.135Z</time></trkpt><trkpt lat="44.1089002" lon="10.7374149"><ele>772.0</ele><time>2026-05-03T09:04:42.136Z</time></trkpt><trkpt lat="44.1089883" lon="10.7374714"><ele>768.25</ele><time>2026-05-03T09:04:43.136Z</time></trkpt><trkpt lat="44.1090922" lon="10.737492"><ele>764.5</ele><time>2026-05-03T09:04:44.135Z</time></trkpt><trkpt lat="44.1092032" lon="10.7374598"><ele>760.75</ele><time>2026-05-03T09:04:45.135Z</time></trkpt><trkpt lat="44.1093015" lon="10.7373638"><ele>757.0</ele><time>2026-05-03T09:04:46.136Z</time></trkpt><trkpt lat="44.1093898" lon="10.7372151"><ele>757.0</ele><time>2026-05-03T09:04:47.135Z</time></trkpt><trkpt lat="44.109492" lon="10.7370243"><ele>757.0</ele><time>2026-05-03T09:04:48.136Z</time></trkpt><trkpt lat="44.1095933" lon="10.7368421"><ele>757.0</ele><time>2026-05-03T09:04:49.136Z</time></trkpt><trkpt lat="44.1096709" lon="10.7366944"><ele>761.0</ele><time>2026-05-03T09:04:50.135Z</time></trkpt><trkpt lat="44.1097242" lon="10.7365486"><ele>765.0</ele><time>2026-05-03T09:04:51.135Z</time></trkpt><trkpt lat="44.109765" lon="10.7364091"><ele>769.0</ele><time>2026-05-03T09:04:52.135Z</time></trkpt><trkpt lat="44.1096887" lon="10.7363057"><ele>773.0</ele><time>2026-05-03T09:04:53.136Z</time></trkpt><trkpt lat="44.1096054" lon="10.7362242"><ele>777.0</ele><time>2026-05-03T09:04:54.134Z</time></trkpt><trkpt lat="44.1095292" lon="10.7361642"><ele>777.0</ele><time>2026-05-03T09:04:55.136Z</time></trkpt><trkpt lat="44.1094355" lon="10.7361423"><ele>777.0</ele><time>2026-05-03T09:04:56.136Z</time></trkpt><trkpt lat="44.1093393" lon="10.7361552"><ele>777.0</ele><time>2026-05-03T09:04:57.136Z</time></trkpt><trkpt lat="44.1092194" lon="10.7362297"><ele>777.0</ele><time>2026-05-03T09:04:58.134Z</time></trkpt><trkpt lat="44.109026" lon="10.7365327"><ele>775.3333333333333</ele><time>2026-05-03T09:04:59.136Z</time></trkpt><trkpt lat="44.1088889" lon="10.7366747"><ele>773.6666666666666</ele><time>2026-05-03T09:05:00.136Z</time></trkpt><trkpt lat="44.1087618" lon="10.736802"><ele>772.0</ele><time>2026-05-03T09:05:01.136Z</time></trkpt><trkpt lat="44.1086384" lon="10.7369222"><ele>772.0</ele><time>2026-05-03T09:05:02.136Z</time></trkpt><trkpt lat="44.1085291" lon="10.7370273"><ele>772.0</ele><time>2026-05-03T09:05:03.136Z</time></trkpt><trkpt lat="44.1084282" lon="10.7371201"><ele>772.0</ele><time>2026-05-03T09:05:04.136Z</time></trkpt><trkpt lat="44.1083328" lon="10.7372092"><ele>772.0</ele><time>2026-05-03T09:05:05.135Z</time></trkpt><trkpt lat="44.108244" lon="10.7372951"><ele>774.8333333333333</ele><time>2026-05-03T09:05:06.135Z</time></trkpt><trkpt lat="44.1081608" lon="10.7373647"><ele>777.6666666666666</ele><time>2026-05-03T09:05:07.135Z</time></trkpt><trkpt lat="44.1080717" lon="10.7373995"><ele>780.5</ele><time>2026-05-03T09:05:08.135Z</time></trkpt><trkpt lat="44.1079855" lon="10.7373848"><ele>783.3333333333333</ele><time>2026-05-03T09:05:09.135Z</time></trkpt><trkpt lat="44.1079219" lon="10.7373191"><ele>786.1666666666666</ele><time>2026-05-03T09:05:10.136Z</time></trkpt><trkpt lat="44.1078813" lon="10.7372213"><ele>789.0</ele><time>2026-05-03T09:05:11.136Z</time></trkpt><trkpt lat="44.1078883" lon="10.737097"><ele>789.0</ele><time>2026-05-03T09:05:12.135Z</time></trkpt><trkpt lat="44.1079343" lon="10.7369957"><ele>789.0</ele><time>2026-05-03T09:05:13.135Z</time></trkpt><trkpt lat="44.1080138" lon="10.7368957"><ele>789.0</ele><time>2026-05-03T09:05:14.136Z</time></trkpt><trkpt lat="44.1081284" lon="10.7367863"><ele>789.0</ele><time>2026-05-03T09:05:15.135Z</time></trkpt><trkpt lat="44.1082694" lon="10.7366438"><ele>791.0</ele><time>2026-05-03T09:05:16.136Z</time></trkpt><trkpt lat="44.1084236" lon="10.7364733"><ele>793.0</ele><time>2026-05-03T09:05:17.136Z</time></trkpt><trkpt lat="44.1085642" lon="10.7363239"><ele>795.0</ele><time>2026-05-03T09:05:18.136Z</time></trkpt><trkpt lat="44.1087029" lon="10.7361794"><ele>795.3333333333333</ele><time>2026-05-03T09:05:19.136Z</time></trkpt><trkpt lat="44.1088388" lon="10.7360363"><ele>795.6666666666666</ele><time>2026-05-03T09:05:20.136Z</time></trkpt><trkpt lat="44.1089747" lon="10.7358908"><ele>796.0</ele><time>2026-05-03T09:05:21.135Z</time></trkpt><trkpt lat="44.1091106" lon="10.7357454"><ele>796.0</ele><time>2026-05-03T09:05:22.136Z</time></trkpt><trkpt lat="44.109239" lon="10.7356074"><ele>796.0</ele><time>2026-05-03T09:05:23.136Z</time></trkpt><trkpt lat="44.1093525" lon="10.7354886"><ele>796.0</ele><time>2026-05-03T09:05:24.135Z</time></trkpt><trkpt lat="44.1094533" lon="10.7353838"><ele>796.0</ele><time>2026-05-03T09:05:25.136Z</time></trkpt><trkpt lat="44.109545" lon="10.7352867"><ele>800.5999999999999</ele><time>2026-05-03T09:05:26.135Z</time></trkpt><trkpt lat="44.1096329" lon="10.7351872"><ele>805.2</ele><time>2026-05-03T09:05:27.136Z</time></trkpt><trkpt lat="44.1097111" lon="10.7350995"><ele>809.8</ele><time>2026-05-03T09:05:28.136Z</time></trkpt><trkpt lat="44.1097872" lon="10.7350183"><ele>814.4000000000001</ele><time>2026-05-03T09:05:29.135Z</time></trkpt><trkpt lat="44.109861" lon="10.7349515"><ele>819.0</ele><time>2026-05-03T09:05:30.136Z</time></trkpt><trkpt lat="44.1099447" lon="10.7349255"><ele>819.0</ele><time>2026-05-03T09:05:31.136Z</time></trkpt><trkpt lat="44.110028" lon="10.7349538"><ele>819.0</ele><time>2026-05-03T09:05:32.135Z</time></trkpt><trkpt lat="44.110096" lon="10.7350228"><ele>819.0</ele><time>2026-05-03T09:05:33.135Z</time></trkpt><trkpt lat="44.1101515" lon="10.7351377"><ele>819.0</ele><time>2026-05-03T09:05:34.135Z</time></trkpt><trkpt lat="44.1102238" lon="10.735261"><ele>819.0</ele><time>2026-05-03T09:05:35.136Z</time></trkpt><trkpt lat="44.1103242" lon="10.735366"><ele>808.6666666666667</ele><time>2026-05-03T09:05:36.135Z</time></trkpt><trkpt lat="44.1104476" lon="10.735465"><ele>798.3333333333334</ele><time>2026-05-03T09:05:37.136Z</time></trkpt><trkpt lat="44.1106009" lon="10.7355596"><ele>788.0</ele><time>2026-05-03T09:05:38.135Z</time></trkpt><trkpt lat="44.1107347" lon="10.7356511"><ele>793.0</ele><time>2026-05-03T09:05:39.135Z</time></trkpt><trkpt lat="44.1108511" lon="10.7357271"><ele>798.0</ele><time>2026-05-03T09:05:40.136Z</time></trkpt><trkpt lat="44.1109607" lon="10.7357628"><ele>803.0</ele><time>2026-05-03T09:05:41.135Z</time></trkpt><trkpt lat="44.1110501" lon="10.7357333"><ele>808.0</ele><time>2026-05-03T09:05:42.136Z</time></trkpt><trkpt lat="44.1111265" lon="10.7356588"><ele>813.0</ele><time>2026-05-03T09:05:43.135Z</time></trkpt><trkpt lat="44.1112243" lon="10.7355875"><ele>813.0</ele><time>2026-05-03T09:05:44.136Z</time></trkpt><trkpt lat="44.1113398" lon="10.73554"><ele>813.0</ele><time>2026-05-03T09:05:45.136Z</time></trkpt><trkpt lat="44.1114561" lon="10.7354997"><ele>813.0</ele><time>2026-05-03T09:05:46.136Z</time></trkpt><trkpt lat="44.1115872" lon="10.7354923"><ele>813.0</ele><time>2026-05-03T09:05:47.135Z</time></trkpt><trkpt lat="44.1117539" lon="10.735506"><ele>816.0</ele><time>2026-05-03T09:05:48.135Z</time></trkpt><trkpt lat="44.1119382" lon="10.735557"><ele>819.0</ele><time>2026-05-03T09:05:49.135Z</time></trkpt><trkpt lat="44.1120878" lon="10.7355861"><ele>822.0</ele><time>2026-05-03T09:05:50.135Z</time></trkpt><trkpt lat="44.1122293" lon="10.7356003"><ele>822.0</ele><time>2026-05-03T09:05:51.136Z</time></trkpt><trkpt lat="44.1123541" lon="10.7356185"><ele>822.0</ele><time>2026-05-03T09:05:52.136Z</time></trkpt><trkpt lat="44.1124721" lon="10.7355578"><ele>822.0</ele><time>2026-05-03T09:05:53.136Z</time></trkpt><trkpt lat="44.1125811" lon="10.7354963"><ele>822.0</ele><time>2026-05-03T09:05:54.136Z</time></trkpt><trkpt lat="44.1126822" lon="10.7353915"><ele>821.5</ele><time>2026-05-03T09:05:55.136Z</time></trkpt><trkpt lat="44.1127812" lon="10.7352802"><ele>821.0</ele><time>2026-05-03T09:05:56.136Z</time></trkpt><trkpt lat="44.1128981" lon="10.735169"><ele>820.5</ele><time>2026-05-03T09:05:57.135Z</time></trkpt><trkpt lat="44.1130206" lon="10.7350773"><ele>820.0</ele><time>2026-05-03T09:05:58.135Z</time></trkpt><trkpt lat="44.1131332" lon="10.7350149"><ele>823.1666666666666</ele><time>2026-05-03T09:05:59.136Z</time></trkpt><trkpt lat="44.1132241" lon="10.734969"><ele>826.3333333333333</ele><time>2026-05-03T09:06:00.135Z</time></trkpt><trkpt lat="44.1132918" lon="10.7349367"><ele>829.5</ele><time>2026-05-03T09:06:01.135Z</time></trkpt><trkpt lat="44.1133795" lon="10.7348878"><ele>832.6666666666667</ele><time>2026-05-03T09:06:03.135Z</time></trkpt><trkpt lat="44.113443" lon="10.7348473"><ele>835.8333333333334</ele><time>2026-05-03T09:06:05.135Z</time></trkpt><trkpt lat="44.1135238" lon="10.7347837"><ele>839.0</ele><time>2026-05-03T09:06:07.135Z</time></trkpt><trkpt lat="44.1135908" lon="10.7346506"><ele>839.0000000000001</ele><time>2026-05-03T09:06:09.135Z</time></trkpt><trkpt lat="44.1135919" lon="10.7345556"><ele>839.0</ele><time>2026-05-03T09:06:10.135Z</time></trkpt><trkpt lat="44.1135525" lon="10.734468"><ele>839.0</ele><time>2026-05-03T09:06:11.135Z</time></trkpt><trkpt lat="44.1134767" lon="10.7344181"><ele>839.0</ele><time>2026-05-03T09:06:12.135Z</time></trkpt><trkpt lat="44.1133865" lon="10.7344298"><ele>839.0000000000001</ele><time>2026-05-03T09:06:13.135Z</time></trkpt><trkpt lat="44.1132938" lon="10.7344975"><ele>839.0</ele><time>2026-05-03T09:06:14.136Z</time></trkpt><trkpt lat="44.1131908" lon="10.7346032"><ele>840.6</ele><time>2026-05-03T09:06:15.135Z</time></trkpt><trkpt lat="44.113095" lon="10.7347003"><ele>842.2</ele><time>2026-05-03T09:06:16.136Z</time></trkpt><trkpt lat="44.1130077" lon="10.7347444"><ele>843.8000000000001</ele><time>2026-05-03T09:06:17.136Z</time></trkpt><trkpt lat="44.1129283" lon="10.7347302"><ele>845.4000000000001</ele><time>2026-05-03T09:06:18.135Z</time></trkpt><trkpt lat="44.1128738" lon="10.7346783"><ele>847.0</ele><time>2026-05-03T09:06:19.135Z</time></trkpt><trkpt lat="44.1128721" lon="10.7345135"><ele>847.0</ele><time>2026-05-03T09:06:21.135Z</time></trkpt><trkpt lat="44.1129269" lon="10.7344461"><ele>847.0</ele><time>2026-05-03T09:06:22.136Z</time></trkpt><trkpt lat="44.1130104" lon="10.7343992"><ele>847.0</ele><time>2026-05-03T09:06:23.136Z</time></trkpt><trkpt lat="44.1131276" lon="10.7343448"><ele>847.0</ele><time>2026-05-03T09:06:24.136Z</time></trkpt><trkpt lat="44.1132644" lon="10.7342772"><ele>847.0</ele><time>2026-05-03T09:06:25.135Z</time></trkpt><trkpt lat="44.1133816" lon="10.7342252"><ele>851.25</ele><time>2026-05-03T09:06:26.136Z</time></trkpt><trkpt lat="44.1134928" lon="10.7341587"><ele>855.5</ele><time>2026-05-03T09:06:27.136Z</time></trkpt><trkpt lat="44.1135915" lon="10.7340563"><ele>859.75</ele><time>2026-05-03T09:06:28.135Z</time></trkpt><trkpt lat="44.1136688" lon="10.7339365"><ele>864.0</ele><time>2026-05-03T09:06:29.136Z</time></trkpt><trkpt lat="44.1137289" lon="10.7338179"><ele>864.0</ele><time>2026-05-03T09:06:30.136Z</time></trkpt><trkpt lat="44.1137954" lon="10.7337138"><ele>864.0000000000001</ele><time>2026-05-03T09:06:31.136Z</time></trkpt><trkpt lat="44.1138747" lon="10.733629"><ele>864.0000000000001</ele><time>2026-05-03T09:06:32.135Z</time></trkpt><trkpt lat="44.1139626" lon="10.7335639"><ele>864.0</ele><time>2026-05-03T09:06:33.136Z</time></trkpt><trkpt lat="44.1140534" lon="10.7335061"><ele>864.0</ele><time>2026-05-03T09:06:34.135Z</time></trkpt><trkpt lat="44.1141419" lon="10.7334476"><ele>865.5</ele><time>2026-05-03T09:06:35.136Z</time></trkpt><trkpt lat="44.1142326" lon="10.7333906"><ele>867.0</ele><time>2026-05-03T09:06:36.136Z</time></trkpt><trkpt lat="44.1143123" lon="10.7333387"><ele>868.5</ele><time>2026-05-03T09:06:37.135Z</time></trkpt><trkpt lat="44.1143827" lon="10.7332935"><ele>870.0</ele><time>2026-05-03T09:06:38.136Z</time></trkpt><trkpt lat="44.1144496" lon="10.7332678"><ele>871.5</ele><time>2026-05-03T09:06:39.136Z</time></trkpt><trkpt lat="44.1145624" lon="10.7332854"><ele>873.0</ele><time>2026-05-03T09:06:41.135Z</time></trkpt><trkpt lat="44.1146606" lon="10.7333659"><ele>873.0</ele><time>2026-05-03T09:06:43.135Z</time></trkpt><trkpt lat="44.1147255" lon="10.7333975"><ele>873.0</ele><time>2026-05-03T09:06:44.136Z</time></trkpt><trkpt lat="44.1148109" lon="10.7334099"><ele>873.0</ele><time>2026-05-03T09:06:45.135Z</time></trkpt><trkpt lat="44.114913" lon="10.733398"><ele>873.0</ele><time>2026-05-03T09:06:46.136Z</time></trkpt><trkpt lat="44.1150237" lon="10.7333613"><ele>873.0</ele><time>2026-05-03T09:06:47.136Z</time></trkpt><trkpt lat="44.1151398" lon="10.73331"><ele>871.0</ele><time>2026-05-03T09:06:48.135Z</time></trkpt><trkpt lat="44.1152687" lon="10.7332448"><ele>869.0</ele><time>2026-05-03T09:06:49.135Z</time></trkpt><trkpt lat="44.1154134" lon="10.7331679"><ele>867.0</ele><time>2026-05-03T09:06:50.135Z</time></trkpt><trkpt lat="44.1155751" lon="10.7330695"><ele>868.0</ele><time>2026-05-03T09:06:51.136Z</time></trkpt><trkpt lat="44.1157401" lon="10.7329474"><ele>869.0</ele><time>2026-05-03T09:06:52.136Z</time></trkpt><trkpt lat="44.1158876" lon="10.7328203"><ele>870.0</ele><time>2026-05-03T09:06:53.135Z</time></trkpt><trkpt lat="44.1160181" lon="10.7326942"><ele>872.5</ele><time>2026-05-03T09:06:54.136Z</time></trkpt><trkpt lat="44.1161443" lon="10.7325837"><ele>875.0</ele><time>2026-05-03T09:06:55.136Z</time></trkpt><trkpt lat="44.1162623" lon="10.7324796"><ele>877.5</ele><time>2026-05-03T09:06:56.135Z</time></trkpt><trkpt lat="44.11636" lon="10.7323932"><ele>880.0</ele><time>2026-05-03T09:06:57.135Z</time></trkpt><trkpt lat="44.1164335" lon="10.7323135"><ele>879.9999999999999</ele><time>2026-05-03T09:06:58.135Z</time></trkpt><trkpt lat="44.1164708" lon="10.7322248"><ele>880.0</ele><time>2026-05-03T09:06:59.136Z</time></trkpt><trkpt lat="44.1164663" lon="10.7320594"><ele>880.0</ele><time>2026-05-03T09:07:01.136Z</time></trkpt><trkpt lat="44.1164216" lon="10.7319958"><ele>880.0</ele><time>2026-05-03T09:07:02.136Z</time></trkpt><trkpt lat="44.1163567" lon="10.7319639"><ele>879.9999999999999</ele><time>2026-05-03T09:07:03.134Z</time></trkpt><trkpt lat="44.1162811" lon="10.7319897"><ele>880.0</ele><time>2026-05-03T09:07:04.136Z</time></trkpt><trkpt lat="44.1162104" lon="10.7320667"><ele>880.0</ele><time>2026-05-03T09:07:05.135Z</time></trkpt><trkpt lat="44.1161272" lon="10.7321937"><ele>880.0</ele><time>2026-05-03T09:07:06.135Z</time></trkpt><trkpt lat="44.1160173" lon="10.7323384"><ele>880.0</ele><time>2026-05-03T09:07:07.135Z</time></trkpt><trkpt lat="44.115915" lon="10.7324457"><ele>880.0</ele><time>2026-05-03T09:07:08.136Z</time></trkpt><trkpt lat="44.1158" lon="10.7325071"><ele>884.6666666666666</ele><time>2026-05-03T09:07:09.135Z</time></trkpt><trkpt lat="44.1156532" lon="10.7325477"><ele>889.3333333333333</ele><time>2026-05-03T09:07:10.136Z</time></trkpt><trkpt lat="44.1154818" lon="10.7325827"><ele>894.0</ele><time>2026-05-03T09:07:11.136Z</time></trkpt><trkpt lat="44.1152815" lon="10.7326316"><ele>894.0</ele><time>2026-05-03T09:07:12.135Z</time></trkpt><trkpt lat="44.115109" lon="10.7326706"><ele>894.0</ele><time>2026-05-03T09:07:13.135Z</time></trkpt><trkpt lat="44.1149731" lon="10.7327005"><ele>894.0</ele><time>2026-05-03T09:07:14.136Z</time></trkpt><trkpt lat="44.1148701" lon="10.7327229"><ele>894.0</ele><time>2026-05-03T09:07:15.136Z</time></trkpt><trkpt lat="44.1147948" lon="10.7327137"><ele>894.0</ele><time>2026-05-03T09:07:16.136Z</time></trkpt><trkpt lat="44.1147415" lon="10.7326669"><ele>894.0000000000001</ele><time>2026-05-03T09:07:17.136Z</time></trkpt><trkpt lat="44.1147314" lon="10.7325212"><ele>894.0000000000001</ele><time>2026-05-03T09:07:19.136Z</time></trkpt><trkpt lat="44.1148453" lon="10.7324557"><ele>894.0</ele><time>2026-05-03T09:07:21.135Z</time></trkpt><trkpt lat="44.1149473" lon="10.7324513"><ele>894.0</ele><time>2026-05-03T09:07:22.136Z</time></trkpt><trkpt lat="44.1150753" lon="10.7324516"><ele>894.0</ele><time>2026-05-03T09:07:23.136Z</time></trkpt><trkpt lat="44.1151916" lon="10.7324334"><ele>894.0000000000001</ele><time>2026-05-03T09:07:24.135Z</time></trkpt><trkpt lat="44.1152853" lon="10.7323753"><ele>894.0000000000001</ele><time>2026-05-03T09:07:25.135Z</time></trkpt><trkpt lat="44.1153623" lon="10.7322758"><ele>894.0</ele><time>2026-05-03T09:07:26.135Z</time></trkpt><trkpt lat="44.11541" lon="10.7321485"><ele>894.0</ele><time>2026-05-03T09:07:27.136Z</time></trkpt><trkpt lat="44.1154608" lon="10.7320146"><ele>894.0</ele><time>2026-05-03T09:07:28.135Z</time></trkpt><trkpt lat="44.1155491" lon="10.7319084"><ele>894.0000000000001</ele><time>2026-05-03T09:07:29.135Z</time></trkpt><trkpt lat="44.1156517" lon="10.7318402"><ele>894.0000000000001</ele><time>2026-05-03T09:07:30.136Z</time></trkpt><trkpt lat="44.1157564" lon="10.73179"><ele>894.0</ele><time>2026-05-03T09:07:31.136Z</time></trkpt><trkpt lat="44.1158445" lon="10.7317321"><ele>894.0</ele><time>2026-05-03T09:07:32.136Z</time></trkpt><trkpt lat="44.1159265" lon="10.7316503"><ele>897.2</ele><time>2026-05-03T09:07:33.136Z</time></trkpt><trkpt lat="44.1160001" lon="10.7315346"><ele>900.4000000000001</ele><time>2026-05-03T09:07:34.135Z</time></trkpt><trkpt lat="44.1160673" lon="10.7314252"><ele>903.6</ele><time>2026-05-03T09:07:35.136Z</time></trkpt><trkpt lat="44.1161605" lon="10.7313603"><ele>906.8</ele><time>2026-05-03T09:07:36.135Z</time></trkpt><trkpt lat="44.1162663" lon="10.7313281"><ele>910.0</ele><time>2026-05-03T09:07:37.136Z</time></trkpt><trkpt lat="44.1163884" lon="10.7313192"><ele>910.0</ele><time>2026-05-03T09:07:38.135Z</time></trkpt><trkpt lat="44.1165176" lon="10.7312983"><ele>910.0</ele><time>2026-05-03T09:07:39.136Z</time></trkpt><trkpt lat="44.1166492" lon="10.7312455"><ele>910.0</ele><time>2026-05-03T09:07:40.135Z</time></trkpt><trkpt lat="44.1167657" lon="10.7311876"><ele>910.0</ele><time>2026-05-03T09:07:41.135Z</time></trkpt><trkpt lat="44.1168746" lon="10.7311253"><ele>914.0</ele><time>2026-05-03T09:07:42.136Z</time></trkpt><trkpt lat="44.1169668" lon="10.7310498"><ele>918.0</ele><time>2026-05-03T09:07:43.136Z</time></trkpt><trkpt lat="44.1170414" lon="10.7309406"><ele>922.0</ele><time>2026-05-03T09:07:44.135Z</time></trkpt><trkpt lat="44.1171064" lon="10.7308174"><ele>926.0</ele><time>2026-05-03T09:07:45.136Z</time></trkpt><trkpt lat="44.1171839" lon="10.7307039"><ele>930.0</ele><time>2026-05-03T09:07:46.136Z</time></trkpt><trkpt lat="44.1172838" lon="10.7306205"><ele>930.0</ele><time>2026-05-03T09:07:47.136Z</time></trkpt><trkpt lat="44.1173871" lon="10.7305229"><ele>930.0</ele><time>2026-05-03T09:07:48.136Z</time></trkpt><trkpt lat="44.1174948" lon="10.7304406"><ele>930.0</ele><time>2026-05-03T09:07:49.136Z</time></trkpt><trkpt lat="44.1176007" lon="10.730324"><ele>930.0</ele><time>2026-05-03T09:07:50.136Z</time></trkpt><trkpt lat="44.1176811" lon="10.7302395"><ele>932.6</ele><time>2026-05-03T09:07:51.135Z</time></trkpt><trkpt lat="44.1177506" lon="10.7301735"><ele>935.2</ele><time>2026-05-03T09:07:52.136Z</time></trkpt><trkpt lat="44.1178093" lon="10.7301145"><ele>937.8</ele><time>2026-05-03T09:07:53.136Z</time></trkpt><trkpt lat="44.1179192" lon="10.730017"><ele>940.4</ele><time>2026-05-03T09:07:55.136Z</time></trkpt><trkpt lat="44.1179945" lon="10.7299568"><ele>943.0</ele><time>2026-05-03T09:07:56.135Z</time></trkpt><trkpt lat="44.1180872" lon="10.7298923"><ele>943.0</ele><time>2026-05-03T09:07:57.136Z</time></trkpt><trkpt lat="44.1182075" lon="10.7298395"><ele>943.0</ele><time>2026-05-03T09:07:58.135Z</time></trkpt><trkpt lat="44.1183374" lon="10.729799"><ele>943.0</ele><time>2026-05-03T09:07:59.135Z</time></trkpt><trkpt lat="44.1184576" lon="10.7297768"><ele>943.0</ele><time>2026-05-03T09:08:00.134Z</time></trkpt><trkpt lat="44.1185762" lon="10.729767"><ele>939.5</ele><time>2026-05-03T09:08:01.136Z</time></trkpt><trkpt lat="44.1186757" lon="10.7297978"><ele>936.0</ele><time>2026-05-03T09:08:02.136Z</time></trkpt><trkpt lat="44.1187898" lon="10.729878"><ele>932.5</ele><time>2026-05-03T09:08:03.135Z</time></trkpt><trkpt lat="44.1188981" lon="10.7299699"><ele>929.0</ele><time>2026-05-03T09:08:04.136Z</time></trkpt><trkpt lat="44.1189913" lon="10.7300057"><ele>928.75</ele><time>2026-05-03T09:08:05.136Z</time></trkpt><trkpt lat="44.1190883" lon="10.7300052"><ele>928.5</ele><time>2026-05-03T09:08:06.135Z</time></trkpt><trkpt lat="44.1191818" lon="10.7299957"><ele>928.25</ele><time>2026-05-03T09:08:07.135Z</time></trkpt><trkpt lat="44.1192548" lon="10.7298277"><ele>928.0</ele><time>2026-05-03T09:08:08.135Z</time></trkpt><trkpt lat="44.1193573" lon="10.7296907"><ele>928.0</ele><time>2026-05-03T09:08:09.135Z</time></trkpt><trkpt lat="44.1194682" lon="10.7295208"><ele>928.0</ele><time>2026-05-03T09:08:10.135Z</time></trkpt><trkpt lat="44.1195626" lon="10.7293578"><ele>928.0</ele><time>2026-05-03T09:08:11.136Z</time></trkpt><trkpt lat="44.1196414" lon="10.7291782"><ele>939.0</ele><time>2026-05-03T09:08:12.135Z</time></trkpt><trkpt lat="44.1197182" lon="10.7289839"><ele>950.0</ele><time>2026-05-03T09:08:13.135Z</time></trkpt><trkpt lat="44.1197936" lon="10.7287863"><ele>961.0</ele><time>2026-05-03T09:08:14.134Z</time></trkpt><trkpt lat="44.119867" lon="10.7285832"><ele>955.6666666666666</ele><time>2026-05-03T09:08:15.136Z</time></trkpt><trkpt lat="44.119923" lon="10.7283808"><ele>950.3333333333333</ele><time>2026-05-03T09:08:16.135Z</time></trkpt><trkpt lat="44.1199554" lon="10.7281701"><ele>945.0</ele><time>2026-05-03T09:08:17.135Z</time></trkpt><trkpt lat="44.1199818" lon="10.7279621"><ele>945.0</ele><time>2026-05-03T09:08:18.135Z</time></trkpt><trkpt lat="44.1200185" lon="10.7277738"><ele>945.0</ele><time>2026-05-03T09:08:19.135Z</time></trkpt><trkpt lat="44.1200701" lon="10.7276068"><ele>945.0</ele><time>2026-05-03T09:08:20.136Z</time></trkpt><trkpt lat="44.1201368" lon="10.7274694"><ele>945.0</ele><time>2026-05-03T09:08:21.136Z</time></trkpt><trkpt lat="44.1202044" lon="10.72736"><ele>947.0</ele><time>2026-05-03T09:08:22.135Z</time></trkpt><trkpt lat="44.1202502" lon="10.7272556"><ele>949.0</ele><time>2026-05-03T09:08:23.136Z</time></trkpt><trkpt lat="44.1202566" lon="10.7271626"><ele>951.0</ele><time>2026-05-03T09:08:24.136Z</time></trkpt><trkpt lat="44.1201656" lon="10.7270729"><ele>953.0</ele><time>2026-05-03T09:08:26.135Z</time></trkpt><trkpt lat="44.1200893" lon="10.7270813"><ele>955.0</ele><time>2026-05-03T09:08:27.135Z</time></trkpt><trkpt lat="44.1200008" lon="10.7271084"><ele>957.0</ele><time>2026-05-03T09:08:28.135Z</time></trkpt><trkpt lat="44.1199004" lon="10.727162"><ele>962.25</ele><time>2026-05-03T09:08:29.136Z</time></trkpt><trkpt lat="44.1198072" lon="10.7272922"><ele>967.5</ele><time>2026-05-03T09:08:30.135Z</time></trkpt><trkpt lat="44.1197326" lon="10.7274491"><ele>972.75</ele><time>2026-05-03T09:08:31.136Z</time></trkpt><trkpt lat="44.1196738" lon="10.7276053"><ele>978.0</ele><time>2026-05-03T09:08:32.136Z</time></trkpt><trkpt lat="44.1196422" lon="10.7277512"><ele>978.0</ele><time>2026-05-03T09:08:33.136Z</time></trkpt><trkpt lat="44.1196445" lon="10.727894"><ele>978.0</ele><time>2026-05-03T09:08:34.136Z</time></trkpt><trkpt lat="44.1196638" lon="10.7280301"><ele>978.0</ele><time>2026-05-03T09:08:35.136Z</time></trkpt><trkpt lat="44.1196623" lon="10.7281476"><ele>978.0</ele><time>2026-05-03T09:08:36.136Z</time></trkpt><trkpt lat="44.1196403" lon="10.7282513"><ele>978.0</ele><time>2026-05-03T09:08:37.135Z</time></trkpt><trkpt lat="44.1196105" lon="10.7283514"><ele>978.0</ele><time>2026-05-03T09:08:38.136Z</time></trkpt><trkpt lat="44.119577" lon="10.7284354"><ele>978.0</ele><time>2026-05-03T09:08:39.135Z</time></trkpt><trkpt lat="44.1194791" lon="10.7284746"><ele>978.0</ele><time>2026-05-03T09:08:41.136Z</time></trkpt><trkpt lat="44.1194312" lon="10.7283693"><ele>978.0</ele><time>2026-05-03T09:08:43.136Z</time></trkpt><trkpt lat="44.1194757" lon="10.7281536"><ele>978.0</ele><time>2026-05-03T09:08:45.135Z</time></trkpt><trkpt lat="44.1194989" lon="10.7279817"><ele>978.0</ele><time>2026-05-03T09:08:46.136Z</time></trkpt><trkpt lat="44.1195222" lon="10.7277298"><ele>978.0</ele><time>2026-05-03T09:08:47.136Z</time></trkpt><trkpt lat="44.1195443" lon="10.7274941"><ele>978.0</ele><time>2026-05-03T09:08:48.136Z</time></trkpt><trkpt lat="44.1195872" lon="10.7272742"><ele>985.0</ele><time>2026-05-03T09:08:49.135Z</time></trkpt><trkpt lat="44.1196533" lon="10.7270544"><ele>992.0</ele><time>2026-05-03T09:08:50.136Z</time></trkpt><trkpt lat="44.1197303" lon="10.7268474"><ele>999.0</ele><time>2026-05-03T09:08:51.136Z</time></trkpt><trkpt lat="44.1198119" lon="10.7266768"><ele>994.25</ele><time>2026-05-03T09:08:52.135Z</time></trkpt><trkpt lat="44.1199055" lon="10.7265239"><ele>989.5</ele><time>2026-05-03T09:08:53.135Z</time></trkpt><trkpt lat="44.1199939" lon="10.7263873"><ele>984.75</ele><time>2026-05-03T09:08:54.135Z</time></trkpt><trkpt lat="44.120075" lon="10.7262848"><ele>980.0</ele><time>2026-05-03T09:08:55.136Z</time></trkpt><trkpt lat="44.1201582" lon="10.7262308"><ele>980.0</ele><time>2026-05-03T09:08:56.135Z</time></trkpt><trkpt lat="44.1202355" lon="10.7262357"><ele>980.0</ele><time>2026-05-03T09:08:57.135Z</time></trkpt><trkpt lat="44.1203078" lon="10.726276"><ele>980.0</ele><time>2026-05-03T09:08:58.136Z</time></trkpt><trkpt lat="44.1203934" lon="10.7262977"><ele>980.0</ele><time>2026-05-03T09:08:59.136Z</time></trkpt><trkpt lat="44.1205025" lon="10.7262692"><ele>980.0</ele><time>2026-05-03T09:09:00.136Z</time></trkpt><trkpt lat="44.1206058" lon="10.7262418"><ele>979.25</ele><time>2026-05-03T09:09:01.135Z</time></trkpt><trkpt lat="44.1207508" lon="10.7261889"><ele>978.5</ele><time>2026-05-03T09:09:02.135Z</time></trkpt><trkpt lat="44.1208788" lon="10.7262105"><ele>977.75</ele><time>2026-05-03T09:09:03.136Z</time></trkpt><trkpt lat="44.1210222" lon="10.7262677"><ele>977.0</ele><time>2026-05-03T09:09:04.135Z</time></trkpt><trkpt lat="44.1211552" lon="10.7263492"><ele>977.0</ele><time>2026-05-03T09:09:05.135Z</time></trkpt><trkpt lat="44.1212752" lon="10.7264603"><ele>977.0</ele><time>2026-05-03T09:09:06.136Z</time></trkpt><trkpt lat="44.1213712" lon="10.7265828"><ele>977.0</ele><time>2026-05-03T09:09:07.135Z</time></trkpt><trkpt lat="44.1214687" lon="10.7266808"><ele>977.0</ele><time>2026-05-03T09:09:08.134Z</time></trkpt><trkpt lat="44.1215812" lon="10.7267355"><ele>979.75</ele><time>2026-05-03T09:09:09.135Z</time></trkpt><trkpt lat="44.1216912" lon="10.7267221"><ele>982.5</ele><time>2026-05-03T09:09:10.136Z</time></trkpt><trkpt lat="44.1217869" lon="10.726636"><ele>985.25</ele><time>2026-05-03T09:09:11.136Z</time></trkpt><trkpt lat="44.121858" lon="10.7264977"><ele>988.0</ele><time>2026-05-03T09:09:12.135Z</time></trkpt><trkpt lat="44.1218981" lon="10.7263245"><ele>988.0</ele><time>2026-05-03T09:09:13.135Z</time></trkpt><trkpt lat="44.1219317" lon="10.7261397"><ele>988.0</ele><time>2026-05-03T09:09:14.136Z</time></trkpt><trkpt lat="44.1219192" lon="10.7259582"><ele>988.0</ele><time>2026-05-03T09:09:15.136Z</time></trkpt><trkpt lat="44.1219115" lon="10.725755"><ele>988.0</ele><time>2026-05-03T09:09:16.135Z</time></trkpt><trkpt lat="44.1218255" lon="10.7255906"><ele>992.5</ele><time>2026-05-03T09:09:17.135Z</time></trkpt><trkpt lat="44.1218087" lon="10.7254136"><ele>997.0</ele><time>2026-05-03T09:09:18.135Z</time></trkpt><trkpt lat="44.1219144" lon="10.7252777"><ele>1001.5</ele><time>2026-05-03T09:09:19.136Z</time></trkpt><trkpt lat="44.1219804" lon="10.7251369"><ele>1006.0</ele><time>2026-05-03T09:09:20.134Z</time></trkpt><trkpt lat="44.1220643" lon="10.7249974"><ele>1011.5</ele><time>2026-05-03T09:09:21.136Z</time></trkpt><trkpt lat="44.1221859" lon="10.724847"><ele>1017.0</ele><time>2026-05-03T09:09:22.135Z</time></trkpt><trkpt lat="44.1222609" lon="10.7247251"><ele>1022.5</ele><time>2026-05-03T09:09:23.136Z</time></trkpt><trkpt lat="44.1223112" lon="10.7245949"><ele>1028.0</ele><time>2026-05-03T09:09:24.136Z</time></trkpt><trkpt lat="44.1223148" lon="10.7244469"><ele>1035.5</ele><time>2026-05-03T09:09:25.136Z</time></trkpt><trkpt lat="44.1223049" lon="10.72429"><ele>1043.0</ele><time>2026-05-03T09:09:26.135Z</time></trkpt><trkpt lat="44.1222978" lon="10.72413"><ele>1050.5</ele><time>2026-05-03T09:09:27.135Z</time></trkpt><trkpt lat="44.1223138" lon="10.7239599"><ele>1058.0</ele><time>2026-05-03T09:09:28.134Z</time></trkpt><trkpt lat="44.1223794" lon="10.7237986"><ele>1052.6666666666667</ele><time>2026-05-03T09:09:29.136Z</time></trkpt><trkpt lat="44.1224986" lon="10.7236985"><ele>1047.3333333333333</ele><time>2026-05-03T09:09:30.136Z</time></trkpt><trkpt lat="44.1226386" lon="10.7235157"><ele>1042.0</ele><time>2026-05-03T09:09:31.135Z</time></trkpt><trkpt lat="44.1227171" lon="10.7233571"><ele>1042.0</ele><time>2026-05-03T09:09:32.135Z</time></trkpt><trkpt lat="44.1228023" lon="10.7232007"><ele>1042.0</ele><time>2026-05-03T09:09:33.136Z</time></trkpt><trkpt lat="44.1228894" lon="10.7230768"><ele>1042.0</ele><time>2026-05-03T09:09:34.136Z</time></trkpt><trkpt lat="44.1230022" lon="10.7229842"><ele>1042.0</ele><time>2026-05-03T09:09:35.136Z</time></trkpt><trkpt lat="44.1230771" lon="10.7228733"><ele>1042.0</ele><time>2026-05-03T09:09:36.134Z</time></trkpt><trkpt lat="44.1231559" lon="10.7227324"><ele>1042.0</ele><time>2026-05-03T09:09:37.135Z</time></trkpt><trkpt lat="44.1231755" lon="10.7225947"><ele>1042.0</ele><time>2026-05-03T09:09:38.136Z</time></trkpt><trkpt lat="44.1231958" lon="10.7224683"><ele>1042.0</ele><time>2026-05-03T09:09:39.135Z</time></trkpt><trkpt lat="44.123222" lon="10.7223254"><ele>1042.0</ele><time>2026-05-03T09:09:40.136Z</time></trkpt><trkpt lat="44.1231164" lon="10.7221828"><ele>1045.3333333333333</ele><time>2026-05-03T09:09:41.135Z</time></trkpt><trkpt lat="44.1229025" lon="10.7220088"><ele>1048.6666666666667</ele><time>2026-05-03T09:09:42.135Z</time></trkpt><trkpt lat="44.1228022" lon="10.7218283"><ele>1052.0</ele><time>2026-05-03T09:09:43.135Z</time></trkpt><trkpt lat="44.1226907" lon="10.7216445"><ele>1052.0</ele><time>2026-05-03T09:09:44.135Z</time></trkpt><trkpt lat="44.1225775" lon="10.7214538"><ele>1052.0</ele><time>2026-05-03T09:09:45.136Z</time></trkpt><trkpt lat="44.1224568" lon="10.7212588"><ele>1052.0</ele><time>2026-05-03T09:09:46.135Z</time></trkpt><trkpt lat="44.1223505" lon="10.7210732"><ele>1066.0</ele><time>2026-05-03T09:09:47.135Z</time></trkpt><trkpt lat="44.1222352" lon="10.7209029"><ele>1080.0</ele><time>2026-05-03T09:09:48.136Z</time></trkpt><trkpt lat="44.1221784" lon="10.720731"><ele>1094.0</ele><time>2026-05-03T09:09:49.134Z</time></trkpt><trkpt lat="44.1221122" lon="10.7205487"><ele>1094.0</ele><time>2026-05-03T09:09:50.136Z</time></trkpt><trkpt lat="44.12207" lon="10.720353"><ele>1094.0</ele><time>2026-05-03T09:09:51.135Z</time></trkpt><trkpt lat="44.1220235" lon="10.7201153"><ele>1094.0</ele><time>2026-05-03T09:09:52.136Z</time></trkpt><trkpt lat="44.1219843" lon="10.7199053"><ele>1090.25</ele><time>2026-05-03T09:09:53.135Z</time></trkpt><trkpt lat="44.1219416" lon="10.7197311"><ele>1086.5</ele><time>2026-05-03T09:09:54.135Z</time></trkpt><trkpt lat="44.1219009" lon="10.7195379"><ele>1082.75</ele><time>2026-05-03T09:09:55.135Z</time></trkpt><trkpt lat="44.1218918" lon="10.7194025"><ele>1079.0</ele><time>2026-05-03T09:09:56.136Z</time></trkpt><trkpt lat="44.1218757" lon="10.7192449"><ele>1078.75</ele><time>2026-05-03T09:09:57.135Z</time></trkpt><trkpt lat="44.1219563" lon="10.7191353"><ele>1078.5</ele><time>2026-05-03T09:09:58.136Z</time></trkpt><trkpt lat="44.1220132" lon="10.7190009"><ele>1078.25</ele><time>2026-05-03T09:09:59.135Z</time></trkpt><trkpt lat="44.1221165" lon="10.7188461"><ele>1078.0</ele><time>2026-05-03T09:10:00.135Z</time></trkpt><trkpt lat="44.1222144" lon="10.7186773"><ele>1083.0</ele><time>2026-05-03T09:10:01.135Z</time></trkpt><trkpt lat="44.1223155" lon="10.7184941"><ele>1088.0</ele><time>2026-05-03T09:10:02.135Z</time></trkpt><trkpt lat="44.1224211" lon="10.7183111"><ele>1093.0</ele><time>2026-05-03T09:10:03.135Z</time></trkpt><trkpt lat="44.1225297" lon="10.7181218"><ele>1091.6666666666665</ele><time>2026-05-03T09:10:04.136Z</time></trkpt><trkpt lat="44.1226417" lon="10.7179247"><ele>1090.3333333333333</ele><time>2026-05-03T09:10:05.136Z</time></trkpt><trkpt lat="44.1227543" lon="10.7177201"><ele>1089.0</ele><time>2026-05-03T09:10:06.136Z</time></trkpt><trkpt lat="44.1228698" lon="10.7175145"><ele>1089.0</ele><time>2026-05-03T09:10:07.136Z</time></trkpt><trkpt lat="44.1229894" lon="10.7173027"><ele>1089.0</ele><time>2026-05-03T09:10:08.136Z</time></trkpt><trkpt lat="44.1231158" lon="10.7171017"><ele>1089.0</ele><time>2026-05-03T09:10:09.135Z</time></trkpt><trkpt lat="44.1232479" lon="10.7168927"><ele>1083.6666666666667</ele><time>2026-05-03T09:10:10.136Z</time></trkpt><trkpt lat="44.1233613" lon="10.7166713"><ele>1078.3333333333335</ele><time>2026-05-03T09:10:11.134Z</time></trkpt><trkpt lat="44.1234658" lon="10.7164486"><ele>1073.0</ele><time>2026-05-03T09:10:12.136Z</time></trkpt><trkpt lat="44.1235588" lon="10.7162419"><ele>1073.0</ele><time>2026-05-03T09:10:13.135Z</time></trkpt><trkpt lat="44.1236517" lon="10.7160708"><ele>1073.0</ele><time>2026-05-03T09:10:14.136Z</time></trkpt><trkpt lat="44.1237507" lon="10.7159413"><ele>1073.0</ele><time>2026-05-03T09:10:15.135Z</time></trkpt><trkpt lat="44.1238457" lon="10.7158429"><ele>1073.0</ele><time>2026-05-03T09:10:16.136Z</time></trkpt><trkpt lat="44.1239175" lon="10.715742"><ele>1075.8333333333335</ele><time>2026-05-03T09:10:17.135Z</time></trkpt><trkpt lat="44.1239534" lon="10.7156227"><ele>1078.6666666666667</ele><time>2026-05-03T09:10:18.135Z</time></trkpt><trkpt lat="44.1239463" lon="10.7155055"><ele>1081.5</ele><time>2026-05-03T09:10:19.135Z</time></trkpt><trkpt lat="44.1238896" lon="10.7154207"><ele>1084.3333333333333</ele><time>2026-05-03T09:10:20.135Z</time></trkpt><trkpt lat="44.1238069" lon="10.7153932"><ele>1087.1666666666665</ele><time>2026-05-03T09:10:21.135Z</time></trkpt><trkpt lat="44.1237143" lon="10.7153725"><ele>1090.0</ele><time>2026-05-03T09:10:22.135Z</time></trkpt><trkpt lat="44.1235905" lon="10.7154178"><ele>1090.0</ele><time>2026-05-03T09:10:23.136Z</time></trkpt><trkpt lat="44.1235339" lon="10.7156975"><ele>1090.0</ele><time>2026-05-03T09:10:24.135Z</time></trkpt><trkpt lat="44.1234184" lon="10.7158824"><ele>1090.0</ele><time>2026-05-03T09:10:25.135Z</time></trkpt><trkpt lat="44.1233238" lon="10.7160666"><ele>1086.6</ele><time>2026-05-03T09:10:26.135Z</time></trkpt><trkpt lat="44.1232445" lon="10.716216"><ele>1083.2</ele><time>2026-05-03T09:10:27.136Z</time></trkpt><trkpt lat="44.1231756" lon="10.7163428"><ele>1079.8</ele><time>2026-05-03T09:10:28.135Z</time></trkpt><trkpt lat="44.1231208" lon="10.7164553"><ele>1076.4</ele><time>2026-05-03T09:10:29.135Z</time></trkpt><trkpt lat="44.1230621" lon="10.7165458"><ele>1073.0</ele><time>2026-05-03T09:10:30.136Z</time></trkpt><trkpt lat="44.1229974" lon="10.7166113"><ele>1078.6666666666667</ele><time>2026-05-03T09:10:31.136Z</time></trkpt><trkpt lat="44.1229228" lon="10.7166477"><ele>1084.3333333333335</ele><time>2026-05-03T09:10:32.136Z</time></trkpt><trkpt lat="44.122848" lon="10.7166532"><ele>1090.0</ele><time>2026-05-03T09:10:33.135Z</time></trkpt><trkpt lat="44.1227794" lon="10.716603"><ele>1095.6666666666667</ele><time>2026-05-03T09:10:34.135Z</time></trkpt><trkpt lat="44.1227377" lon="10.7165103"><ele>1101.3333333333333</ele><time>2026-05-03T09:10:35.135Z</time></trkpt><trkpt lat="44.1227378" lon="10.7164107"><ele>1107.0</ele><time>2026-05-03T09:10:36.136Z</time></trkpt><trkpt lat="44.1227802" lon="10.7163182"><ele>1107.0</ele><time>2026-05-03T09:10:37.135Z</time></trkpt><trkpt lat="44.1228465" lon="10.7162193"><ele>1107.0</ele><time>2026-05-03T09:10:38.136Z</time></trkpt><trkpt lat="44.1229337" lon="10.7160926"><ele>1107.0</ele><time>2026-05-03T09:10:39.136Z</time></trkpt><trkpt lat="44.1230326" lon="10.7159165"><ele>1107.0</ele><time>2026-05-03T09:10:40.134Z</time></trkpt><trkpt lat="44.1231371" lon="10.7157196"><ele>1110.0</ele><time>2026-05-03T09:10:41.135Z</time></trkpt><trkpt lat="44.1232075" lon="10.7155381"><ele>1113.0</ele><time>2026-05-03T09:10:42.136Z</time></trkpt><trkpt lat="44.1232632" lon="10.7153377"><ele>1116.0</ele><time>2026-05-03T09:10:43.136Z</time></trkpt><trkpt lat="44.1233128" lon="10.7151398"><ele>1116.0</ele><time>2026-05-03T09:10:44.136Z</time></trkpt><trkpt lat="44.123368" lon="10.7149891"><ele>1116.0</ele><time>2026-05-03T09:10:45.136Z</time></trkpt><trkpt lat="44.1234603" lon="10.7148774"><ele>1116.0</ele><time>2026-05-03T09:10:46.136Z</time></trkpt><trkpt lat="44.1235613" lon="10.7147945"><ele>1116.0</ele><time>2026-05-03T09:10:47.135Z</time></trkpt><trkpt lat="44.1236649" lon="10.714711"><ele>1116.0</ele><time>2026-05-03T09:10:48.136Z</time></trkpt><trkpt lat="44.1237396" lon="10.7146217"><ele>1116.0</ele><time>2026-05-03T09:10:49.136Z</time></trkpt><trkpt lat="44.1237852" lon="10.7145044"><ele>1116.0</ele><time>2026-05-03T09:10:50.135Z</time></trkpt><trkpt lat="44.1238055" lon="10.7143666"><ele>1116.0</ele><time>2026-05-03T09:10:51.136Z</time></trkpt><trkpt lat="44.1238085" lon="10.7142343"><ele>1116.0</ele><time>2026-05-03T09:10:52.134Z</time></trkpt><trkpt lat="44.1237736" lon="10.7140775"><ele>1121.0</ele><time>2026-05-03T09:10:53.134Z</time></trkpt><trkpt lat="44.1237559" lon="10.7138528"><ele>1126.0</ele><time>2026-05-03T09:10:54.136Z</time></trkpt><trkpt lat="44.123784" lon="10.7136771"><ele>1131.0</ele><time>2026-05-03T09:10:55.135Z</time></trkpt><trkpt lat="44.1238413" lon="10.7135155"><ele>1136.0</ele><time>2026-05-03T09:10:56.135Z</time></trkpt><trkpt lat="44.1239281" lon="10.7133533"><ele>1139.75</ele><time>2026-05-03T09:10:57.136Z</time></trkpt><trkpt lat="44.1240253" lon="10.7132205"><ele>1143.5</ele><time>2026-05-03T09:10:58.135Z</time></trkpt><trkpt lat="44.1241081" lon="10.7131132"><ele>1147.25</ele><time>2026-05-03T09:10:59.136Z</time></trkpt><trkpt lat="44.1241689" lon="10.7129969"><ele>1151.0</ele><time>2026-05-03T09:11:00.136Z</time></trkpt><trkpt lat="44.1242053" lon="10.7128452"><ele>1148.5</ele><time>2026-05-03T09:11:01.135Z</time></trkpt><trkpt lat="44.1242369" lon="10.712657"><ele>1146.0</ele><time>2026-05-03T09:11:02.135Z</time></trkpt><trkpt lat="44.1242794" lon="10.7124605"><ele>1143.5</ele><time>2026-05-03T09:11:03.135Z</time></trkpt><trkpt lat="44.1243385" lon="10.7122639"><ele>1141.0</ele><time>2026-05-03T09:11:04.135Z</time></trkpt><trkpt lat="44.124388" lon="10.7120971"><ele>1141.0</ele><time>2026-05-03T09:11:05.136Z</time></trkpt><trkpt lat="44.1244118" lon="10.7119428"><ele>1141.0</ele><time>2026-05-03T09:11:06.135Z</time></trkpt><trkpt lat="44.1244346" lon="10.7117914"><ele>1141.0</ele><time>2026-05-03T09:11:07.135Z</time></trkpt><trkpt lat="44.1244019" lon="10.7116929"><ele>1141.0</ele><time>2026-05-03T09:11:08.135Z</time></trkpt><trkpt lat="44.124411" lon="10.711571"><ele>1141.0</ele><time>2026-05-03T09:11:09.135Z</time></trkpt><trkpt lat="44.1244302" lon="10.7114692"><ele>1138.6</ele><time>2026-05-03T09:11:10.136Z</time></trkpt><trkpt lat="44.1245164" lon="10.7114375"><ele>1136.1999999999998</ele><time>2026-05-03T09:11:11.136Z</time></trkpt><trkpt lat="44.1245972" lon="10.7114346"><ele>1133.8000000000002</ele><time>2026-05-03T09:11:12.135Z</time></trkpt><trkpt lat="44.1247146" lon="10.7114608"><ele>1131.4</ele><time>2026-05-03T09:11:13.132Z</time></trkpt><trkpt lat="44.1248416" lon="10.711425"><ele>1129.0</ele><time>2026-05-03T09:11:14.135Z</time></trkpt><trkpt lat="44.1249368" lon="10.7113416"><ele>1129.0</ele><time>2026-05-03T09:11:15.136Z</time></trkpt><trkpt lat="44.1250287" lon="10.7112213"><ele>1129.0</ele><time>2026-05-03T09:11:16.135Z</time></trkpt><trkpt lat="44.1251115" lon="10.7110587"><ele>1129.0</ele><time>2026-05-03T09:11:17.136Z</time></trkpt><trkpt lat="44.1252032" lon="10.7108914"><ele>1129.0</ele><time>2026-05-03T09:11:18.136Z</time></trkpt><trkpt lat="44.1253015" lon="10.7107753"><ele>1138.0</ele><time>2026-05-03T09:11:19.135Z</time></trkpt><trkpt lat="44.1254042" lon="10.7106834"><ele>1147.0</ele><time>2026-05-03T09:11:20.135Z</time></trkpt><trkpt lat="44.1254934" lon="10.7105758"><ele>1156.0</ele><time>2026-05-03T09:11:21.136Z</time></trkpt><trkpt lat="44.1255792" lon="10.7104336"><ele>1165.0</ele><time>2026-05-03T09:11:22.135Z</time></trkpt><trkpt lat="44.1256673" lon="10.7102774"><ele>1163.75</ele><time>2026-05-03T09:11:23.136Z</time></trkpt><trkpt lat="44.1257601" lon="10.7101494"><ele>1162.5</ele><time>2026-05-03T09:11:24.135Z</time></trkpt><trkpt lat="44.1258417" lon="10.7100478"><ele>1161.25</ele><time>2026-05-03T09:11:25.135Z</time></trkpt><trkpt lat="44.1258975" lon="10.7099215"><ele>1160.0</ele><time>2026-05-03T09:11:26.135Z</time></trkpt><trkpt lat="44.1259585" lon="10.7097886"><ele>1160.0</ele><time>2026-05-03T09:11:27.135Z</time></trkpt><trkpt lat="44.1259893" lon="10.709567"><ele>1160.0</ele><time>2026-05-03T09:11:28.136Z</time></trkpt><trkpt lat="44.1260008" lon="10.7093858"><ele>1160.0</ele><time>2026-05-03T09:11:29.135Z</time></trkpt><trkpt lat="44.1257333" lon="10.7093705"><ele>1167.0</ele><time>2026-05-03T09:11:30.136Z</time></trkpt><trkpt lat="44.1256247" lon="10.7092826"><ele>1174.0</ele><time>2026-05-03T09:11:31.136Z</time></trkpt><trkpt lat="44.1255058" lon="10.7091797"><ele>1181.0</ele><time>2026-05-03T09:11:32.134Z</time></trkpt><trkpt lat="44.1254077" lon="10.7090431"><ele>1188.0</ele><time>2026-05-03T09:11:33.135Z</time></trkpt><trkpt lat="44.1253307" lon="10.7088735"><ele>1188.0</ele><time>2026-05-03T09:11:34.136Z</time></trkpt><trkpt lat="44.1252558" lon="10.7086942"><ele>1188.0</ele><time>2026-05-03T09:11:35.136Z</time></trkpt><trkpt lat="44.125183" lon="10.7085125"><ele>1188.0</ele><time>2026-05-03T09:11:36.136Z</time></trkpt><trkpt lat="44.1251257" lon="10.708331"><ele>1188.0</ele><time>2026-05-03T09:11:37.136Z</time></trkpt><trkpt lat="44.1250805" lon="10.7081449"><ele>1187.5</ele><time>2026-05-03T09:11:38.134Z</time></trkpt><trkpt lat="44.1251451" lon="10.7079675"><ele>1187.0</ele><time>2026-05-03T09:11:39.134Z</time></trkpt><trkpt lat="44.1251979" lon="10.7077865"><ele>1186.5</ele><time>2026-05-03T09:11:40.136Z</time></trkpt><trkpt lat="44.1252758" lon="10.7076048"><ele>1186.0</ele><time>2026-05-03T09:11:41.135Z</time></trkpt><trkpt lat="44.12538" lon="10.7074264"><ele>1191.6666666666665</ele><time>2026-05-03T09:11:42.136Z</time></trkpt><trkpt lat="44.12548" lon="10.7072336"><ele>1197.3333333333333</ele><time>2026-05-03T09:11:43.136Z</time></trkpt><trkpt lat="44.125576" lon="10.7070746"><ele>1203.0</ele><time>2026-05-03T09:11:44.136Z</time></trkpt><trkpt lat="44.1256907" lon="10.7069582"><ele>1199.0</ele><time>2026-05-03T09:11:45.136Z</time></trkpt><trkpt lat="44.1258094" lon="10.7068422"><ele>1195.0</ele><time>2026-05-03T09:11:46.136Z</time></trkpt><trkpt lat="44.1259387" lon="10.7067538"><ele>1191.0</ele><time>2026-05-03T09:11:47.136Z</time></trkpt><trkpt lat="44.1260588" lon="10.7066409"><ele>1187.0</ele><time>2026-05-03T09:11:48.135Z</time></trkpt><trkpt lat="44.126166" lon="10.706502"><ele>1187.0</ele><time>2026-05-03T09:11:49.136Z</time></trkpt><trkpt lat="44.1262436" lon="10.7063317"><ele>1187.0</ele><time>2026-05-03T09:11:50.135Z</time></trkpt><trkpt lat="44.1262968" lon="10.7061345"><ele>1187.0</ele><time>2026-05-03T09:11:51.136Z</time></trkpt><trkpt lat="44.1263343" lon="10.7059152"><ele>1195.0</ele><time>2026-05-03T09:11:52.136Z</time></trkpt><trkpt lat="44.1263554" lon="10.7056826"><ele>1203.0</ele><time>2026-05-03T09:11:53.135Z</time></trkpt><trkpt lat="44.1263801" lon="10.7054384"><ele>1211.0</ele><time>2026-05-03T09:11:54.136Z</time></trkpt><trkpt lat="44.12639" lon="10.705208"><ele>1213.5</ele><time>2026-05-03T09:11:55.135Z</time></trkpt><trkpt lat="44.1264009" lon="10.705001"><ele>1216.0</ele><time>2026-05-03T09:11:56.136Z</time></trkpt><trkpt lat="44.1264115" lon="10.7048169"><ele>1218.5</ele><time>2026-05-03T09:11:57.135Z</time></trkpt><trkpt lat="44.1264109" lon="10.7046606"><ele>1221.0</ele><time>2026-05-03T09:11:58.136Z</time></trkpt><trkpt lat="44.1264" lon="10.7045233"><ele>1221.0</ele><time>2026-05-03T09:11:59.135Z</time></trkpt><trkpt lat="44.1263831" lon="10.7044264"><ele>1221.0</ele><time>2026-05-03T09:12:00.134Z</time></trkpt><trkpt lat="44.1263373" lon="10.7043351"><ele>1221.0</ele><time>2026-05-03T09:12:01.135Z</time></trkpt><trkpt lat="44.1262531" lon="10.7042462"><ele>1221.0</ele><time>2026-05-03T09:12:02.135Z</time></trkpt><trkpt lat="44.1261744" lon="10.7042248"><ele>1221.0</ele><time>2026-05-03T09:12:03.135Z</time></trkpt><trkpt lat="44.1260194" lon="10.7042328"><ele>1219.0</ele><time>2026-05-03T09:12:04.136Z</time></trkpt><trkpt lat="44.125876" lon="10.7042321"><ele>1217.0</ele><time>2026-05-03T09:12:05.133Z</time></trkpt><trkpt lat="44.125731" lon="10.7041847"><ele>1215.0</ele><time>2026-05-03T09:12:06.135Z</time></trkpt><trkpt lat="44.1255909" lon="10.7040848"><ele>1221.0</ele><time>2026-05-03T09:12:07.135Z</time></trkpt><trkpt lat="44.1254498" lon="10.704"><ele>1227.0</ele><time>2026-05-03T09:12:08.136Z</time></trkpt><trkpt lat="44.1253184" lon="10.7038502"><ele>1233.0</ele><time>2026-05-03T09:12:09.135Z</time></trkpt><trkpt lat="44.1252402" lon="10.7035956"><ele>1227.0</ele><time>2026-05-03T09:12:10.136Z</time></trkpt><trkpt lat="44.1251311" lon="10.7033624"><ele>1221.0</ele><time>2026-05-03T09:12:11.135Z</time></trkpt><trkpt lat="44.1250436" lon="10.703136"><ele>1215.0</ele><time>2026-05-03T09:12:12.136Z</time></trkpt><trkpt lat="44.1249747" lon="10.702915"><ele>1213.0</ele><time>2026-05-03T09:12:13.134Z</time></trkpt><trkpt lat="44.1249325" lon="10.7026825"><ele>1211.0</ele><time>2026-05-03T09:12:14.134Z</time></trkpt><trkpt lat="44.1249132" lon="10.7024361"><ele>1209.0</ele><time>2026-05-03T09:12:15.136Z</time></trkpt><trkpt lat="44.1249184" lon="10.7021847"><ele>1209.0</ele><time>2026-05-03T09:12:16.135Z</time></trkpt><trkpt lat="44.1249444" lon="10.7019309"><ele>1209.0</ele><time>2026-05-03T09:12:17.135Z</time></trkpt><trkpt lat="44.1249953" lon="10.7016861"><ele>1209.0</ele><time>2026-05-03T09:12:18.135Z</time></trkpt><trkpt lat="44.1250506" lon="10.7014668"><ele>1209.75</ele><time>2026-05-03T09:12:19.136Z</time></trkpt><trkpt lat="44.1251055" lon="10.7012696"><ele>1210.5</ele><time>2026-05-03T09:12:20.135Z</time></trkpt><trkpt lat="44.1251371" lon="10.7010874"><ele>1211.25</ele><time>2026-05-03T09:12:21.135Z</time></trkpt><trkpt lat="44.1251366" lon="10.7009071"><ele>1212.0</ele><time>2026-05-03T09:12:22.136Z</time></trkpt><trkpt lat="44.1250866" lon="10.7007502"><ele>1214.75</ele><time>2026-05-03T09:12:23.135Z</time></trkpt><trkpt lat="44.1250091" lon="10.7006013"><ele>1217.5</ele><time>2026-05-03T09:12:24.136Z</time></trkpt><trkpt lat="44.1249354" lon="10.7004401"><ele>1220.25</ele><time>2026-05-03T09:12:25.135Z</time></trkpt><trkpt lat="44.1248762" lon="10.7002673"><ele>1223.0</ele><time>2026-05-03T09:12:26.134Z</time></trkpt><trkpt lat="44.1248313" lon="10.7000917"><ele>1226.5</ele><time>2026-05-03T09:12:27.133Z</time></trkpt><trkpt lat="44.1248157" lon="10.6999362"><ele>1230.0</ele><time>2026-05-03T09:12:28.136Z</time></trkpt><trkpt lat="44.1248412" lon="10.6997551"><ele>1233.5</ele><time>2026-05-03T09:12:29.135Z</time></trkpt><trkpt lat="44.1248565" lon="10.6995847"><ele>1237.0</ele><time>2026-05-03T09:12:30.136Z</time></trkpt><trkpt lat="44.1249361" lon="10.699392"><ele>1237.0</ele><time>2026-05-03T09:12:31.135Z</time></trkpt><trkpt lat="44.1249884" lon="10.6992287"><ele>1237.0</ele><time>2026-05-03T09:12:32.136Z</time></trkpt><trkpt lat="44.1250698" lon="10.6990555"><ele>1237.0</ele><time>2026-05-03T09:12:33.135Z</time></trkpt><trkpt lat="44.1251813" lon="10.6988299"><ele>1237.0</ele><time>2026-05-03T09:12:34.136Z</time></trkpt><trkpt lat="44.1252853" lon="10.6985931"><ele>1237.0</ele><time>2026-05-03T09:12:35.135Z</time></trkpt><trkpt lat="44.1253826" lon="10.6983893"><ele>1237.0</ele><time>2026-05-03T09:12:36.136Z</time></trkpt><trkpt lat="44.1254751" lon="10.6981774"><ele>1239.6666666666665</ele><time>2026-05-03T09:12:37.135Z</time></trkpt><trkpt lat="44.1255248" lon="10.6978723"><ele>1242.3333333333333</ele><time>2026-05-03T09:12:38.134Z</time></trkpt><trkpt lat="44.12558" lon="10.6975851"><ele>1245.0</ele><time>2026-05-03T09:12:39.136Z</time></trkpt><trkpt lat="44.1255109" lon="10.6972888"><ele>1248.0</ele><time>2026-05-03T09:12:40.136Z</time></trkpt><trkpt lat="44.1255078" lon="10.6970336"><ele>1251.0</ele><time>2026-05-03T09:12:41.134Z</time></trkpt><trkpt lat="44.12551" lon="10.6967734"><ele>1254.0</ele><time>2026-05-03T09:12:42.136Z</time></trkpt><trkpt lat="44.1255419" lon="10.6965875"><ele>1256.3333333333333</ele><time>2026-05-03T09:12:43.135Z</time></trkpt><trkpt lat="44.1256739" lon="10.6964403"><ele>1258.6666666666665</ele><time>2026-05-03T09:12:44.134Z</time></trkpt><trkpt lat="44.1257605" lon="10.6962487"><ele>1261.0</ele><time>2026-05-03T09:12:45.136Z</time></trkpt><trkpt lat="44.12585" lon="10.6960928"><ele>1257.25</ele><time>2026-05-03T09:12:46.136Z</time></trkpt><trkpt lat="44.1259502" lon="10.69598"><ele>1253.5</ele><time>2026-05-03T09:12:47.136Z</time></trkpt><trkpt lat="44.1260542" lon="10.6959216"><ele>1249.75</ele><time>2026-05-03T09:12:48.135Z</time></trkpt><trkpt lat="44.1261606" lon="10.6958547"><ele>1246.0</ele><time>2026-05-03T09:12:49.136Z</time></trkpt><trkpt lat="44.1263299" lon="10.6959135"><ele>1246.0</ele><time>2026-05-03T09:12:50.135Z</time></trkpt><trkpt lat="44.1265164" lon="10.6958742"><ele>1246.0</ele><time>2026-05-03T09:12:51.135Z</time></trkpt><trkpt lat="44.1267021" lon="10.6958322"><ele>1246.0</ele><time>2026-05-03T09:12:52.135Z</time></trkpt><trkpt lat="44.1268742" lon="10.6957927"><ele>1248.5</ele><time>2026-05-03T09:12:53.136Z</time></trkpt><trkpt lat="44.1270307" lon="10.6957625"><ele>1251.0</ele><time>2026-05-03T09:12:54.135Z</time></trkpt><trkpt lat="44.1271563" lon="10.6957192"><ele>1253.5</ele><time>2026-05-03T09:12:55.136Z</time></trkpt><trkpt lat="44.1272732" lon="10.6955942"><ele>1256.0</ele><time>2026-05-03T09:12:56.136Z</time></trkpt><trkpt lat="44.127392" lon="10.6954587"><ele>1255.0</ele><time>2026-05-03T09:12:57.136Z</time></trkpt><trkpt lat="44.1275069" lon="10.6952872"><ele>1254.0</ele><time>2026-05-03T09:12:58.136Z</time></trkpt><trkpt lat="44.1276226" lon="10.6950974"><ele>1253.0</ele><time>2026-05-03T09:12:59.135Z</time></trkpt><trkpt lat="44.1277213" lon="10.6948814"><ele>1259.0</ele><time>2026-05-03T09:13:00.136Z</time></trkpt><trkpt lat="44.1278065" lon="10.6946443"><ele>1265.0</ele><time>2026-05-03T09:13:01.136Z</time></trkpt><trkpt lat="44.127889" lon="10.6944151"><ele>1271.0</ele><time>2026-05-03T09:13:02.135Z</time></trkpt><trkpt lat="44.1279652" lon="10.6942063"><ele>1273.25</ele><time>2026-05-03T09:13:03.135Z</time></trkpt><trkpt lat="44.1280333" lon="10.6940123"><ele>1275.5</ele><time>2026-05-03T09:13:04.135Z</time></trkpt><trkpt lat="44.1280765" lon="10.6938219"><ele>1277.75</ele><time>2026-05-03T09:13:05.135Z</time></trkpt><trkpt lat="44.1280823" lon="10.6936231"><ele>1280.0</ele><time>2026-05-03T09:13:06.135Z</time></trkpt><trkpt lat="44.1280614" lon="10.6934238"><ele>1280.25</ele><time>2026-05-03T09:13:07.136Z</time></trkpt><trkpt lat="44.1280315" lon="10.6932208"><ele>1280.5</ele><time>2026-05-03T09:13:08.134Z</time></trkpt><trkpt lat="44.1280065" lon="10.693022"><ele>1280.75</ele><time>2026-05-03T09:13:09.136Z</time></trkpt><trkpt lat="44.1280129" lon="10.6928292"><ele>1281.0</ele><time>2026-05-03T09:13:10.135Z</time></trkpt><trkpt lat="44.1280574" lon="10.6926462"><ele>1282.75</ele><time>2026-05-03T09:13:11.135Z</time></trkpt><trkpt lat="44.1281218" lon="10.6924987"><ele>1284.5</ele><time>2026-05-03T09:13:12.135Z</time></trkpt><trkpt lat="44.1281689" lon="10.6923619"><ele>1286.25</ele><time>2026-05-03T09:13:13.136Z</time></trkpt><trkpt lat="44.1281902" lon="10.692205"><ele>1288.0</ele><time>2026-05-03T09:13:14.136Z</time></trkpt><trkpt lat="44.1281966" lon="10.6920359"><ele>1289.5</ele><time>2026-05-03T09:13:15.136Z</time></trkpt><trkpt lat="44.1282027" lon="10.6918597"><ele>1291.0</ele><time>2026-05-03T09:13:16.135Z</time></trkpt><trkpt lat="44.1282222" lon="10.6916816"><ele>1292.5</ele><time>2026-05-03T09:13:17.136Z</time></trkpt><trkpt lat="44.1282612" lon="10.691522"><ele>1294.0</ele><time>2026-05-03T09:13:18.135Z</time></trkpt><trkpt lat="44.1283181" lon="10.6913869"><ele>1288.5</ele><time>2026-05-03T09:13:19.135Z</time></trkpt><trkpt lat="44.1284015" lon="10.6912677"><ele>1283.0</ele><time>2026-05-03T09:13:20.135Z</time></trkpt><trkpt lat="44.1284823" lon="10.6911392"><ele>1277.5</ele><time>2026-05-03T09:13:21.136Z</time></trkpt><trkpt lat="44.128548" lon="10.6909897"><ele>1272.0</ele><time>2026-05-03T09:13:22.135Z</time></trkpt><trkpt lat="44.1285639" lon="10.690781"><ele>1272.0</ele><time>2026-05-03T09:13:23.134Z</time></trkpt><trkpt lat="44.1285688" lon="10.690568"><ele>1272.0</ele><time>2026-05-03T09:13:24.134Z</time></trkpt><trkpt lat="44.128515" lon="10.6903394"><ele>1272.0</ele><time>2026-05-03T09:13:25.136Z</time></trkpt><trkpt lat="44.1284963" lon="10.6900971"><ele>1272.75</ele><time>2026-05-03T09:13:26.136Z</time></trkpt><trkpt lat="44.128504" lon="10.6898803"><ele>1273.5</ele><time>2026-05-03T09:13:27.135Z</time></trkpt><trkpt lat="44.1285221" lon="10.6896913"><ele>1274.25</ele><time>2026-05-03T09:13:28.136Z</time></trkpt><trkpt lat="44.1285586" lon="10.6895324"><ele>1275.0</ele><time>2026-05-03T09:13:29.136Z</time></trkpt><trkpt lat="44.1286058" lon="10.6894045"><ele>1275.6</ele><time>2026-05-03T09:13:30.135Z</time></trkpt><trkpt lat="44.1286657" lon="10.6892903"><ele>1276.2</ele><time>2026-05-03T09:13:31.135Z</time></trkpt><trkpt lat="44.1287402" lon="10.689182"><ele>1276.8</ele><time>2026-05-03T09:13:32.136Z</time></trkpt><trkpt lat="44.1288238" lon="10.6890799"><ele>1277.4</ele><time>2026-05-03T09:13:33.136Z</time></trkpt><trkpt lat="44.1289152" lon="10.6889778"><ele>1278.0</ele><time>2026-05-03T09:13:34.136Z</time></trkpt><trkpt lat="44.1290147" lon="10.6888699"><ele>1275.6666666666667</ele><time>2026-05-03T09:13:35.136Z</time></trkpt><trkpt lat="44.1291331" lon="10.6887576"><ele>1273.3333333333335</ele><time>2026-05-03T09:13:36.135Z</time></trkpt><trkpt lat="44.1292683" lon="10.68866"><ele>1271.0</ele><time>2026-05-03T09:13:37.136Z</time></trkpt><trkpt lat="44.1294107" lon="10.6885669"><ele>1271.0</ele><time>2026-05-03T09:13:38.136Z</time></trkpt><trkpt lat="44.1295389" lon="10.6884716"><ele>1271.0</ele><time>2026-05-03T09:13:39.135Z</time></trkpt><trkpt lat="44.12966" lon="10.6883387"><ele>1271.0</ele><time>2026-05-03T09:13:40.136Z</time></trkpt><trkpt lat="44.1297748" lon="10.6881868"><ele>1271.0</ele><time>2026-05-03T09:13:41.136Z</time></trkpt><trkpt lat="44.1298829" lon="10.6880175"><ele>1271.0</ele><time>2026-05-03T09:13:42.136Z</time></trkpt><trkpt lat="44.1299842" lon="10.6878542"><ele>1271.0</ele><time>2026-05-03T09:13:43.135Z</time></trkpt><trkpt lat="44.1300796" lon="10.6876957"><ele>1270.5</ele><time>2026-05-03T09:13:44.136Z</time></trkpt><trkpt lat="44.1301731" lon="10.6875395"><ele>1270.0</ele><time>2026-05-03T09:13:45.136Z</time></trkpt><trkpt lat="44.1302693" lon="10.6873854"><ele>1269.5</ele><time>2026-05-03T09:13:46.135Z</time></trkpt><trkpt lat="44.1303641" lon="10.6872389"><ele>1269.0</ele><time>2026-05-03T09:13:47.136Z</time></trkpt><trkpt lat="44.1304613" lon="10.6870962"><ele>1269.0</ele><time>2026-05-03T09:13:48.136Z</time></trkpt><trkpt lat="44.130574" lon="10.6869575"><ele>1269.0</ele><time>2026-05-03T09:13:49.135Z</time></trkpt><trkpt lat="44.130705" lon="10.6868185"><ele>1269.0</ele><time>2026-05-03T09:13:50.136Z</time></trkpt><trkpt lat="44.1308547" lon="10.6866803"><ele>1268.3333333333333</ele><time>2026-05-03T09:13:51.135Z</time></trkpt><trkpt lat="44.1310076" lon="10.6865393"><ele>1267.6666666666665</ele><time>2026-05-03T09:13:52.135Z</time></trkpt><trkpt lat="44.1311631" lon="10.6863978"><ele>1267.0</ele><time>2026-05-03T09:13:53.136Z</time></trkpt><trkpt lat="44.1313181" lon="10.6862554"><ele>1267.0</ele><time>2026-05-03T09:13:54.134Z</time></trkpt><trkpt lat="44.1314716" lon="10.6861179"><ele>1267.0</ele><time>2026-05-03T09:13:55.135Z</time></trkpt><trkpt lat="44.131614" lon="10.6859877"><ele>1267.0</ele><time>2026-05-03T09:13:56.135Z</time></trkpt><trkpt lat="44.1317491" lon="10.685865"><ele>1267.75</ele><time>2026-05-03T09:13:57.135Z</time></trkpt><trkpt lat="44.1318825" lon="10.6857603"><ele>1268.5</ele><time>2026-05-03T09:13:58.135Z</time></trkpt><trkpt lat="44.1320132" lon="10.6856667"><ele>1269.25</ele><time>2026-05-03T09:13:59.135Z</time></trkpt><trkpt lat="44.1321316" lon="10.6855805"><ele>1270.0</ele><time>2026-05-03T09:14:00.135Z</time></trkpt><trkpt lat="44.1322406" lon="10.6854909"><ele>1270.0</ele><time>2026-05-03T09:14:01.136Z</time></trkpt><trkpt lat="44.1323345" lon="10.6853904"><ele>1270.0</ele><time>2026-05-03T09:14:02.136Z</time></trkpt><trkpt lat="44.1324112" lon="10.685264"><ele>1270.0</ele><time>2026-05-03T09:14:03.135Z</time></trkpt><trkpt lat="44.1324684" lon="10.6851043"><ele>1270.0</ele><time>2026-05-03T09:14:04.135Z</time></trkpt><trkpt lat="44.1325145" lon="10.6849189"><ele>1271.75</ele><time>2026-05-03T09:14:05.135Z</time></trkpt><trkpt lat="44.1325598" lon="10.6847142"><ele>1273.5</ele><time>2026-05-03T09:14:06.135Z</time></trkpt><trkpt lat="44.132603" lon="10.6845082"><ele>1275.25</ele><time>2026-05-03T09:14:07.135Z</time></trkpt><trkpt lat="44.1326467" lon="10.684326"><ele>1277.0</ele><time>2026-05-03T09:14:08.136Z</time></trkpt><trkpt lat="44.1327037" lon="10.6841605"><ele>1281.0</ele><time>2026-05-03T09:14:09.134Z</time></trkpt><trkpt lat="44.1327977" lon="10.684027"><ele>1285.0</ele><time>2026-05-03T09:14:10.135Z</time></trkpt><trkpt lat="44.1329107" lon="10.6838958"><ele>1289.0</ele><time>2026-05-03T09:14:11.136Z</time></trkpt><trkpt lat="44.1330334" lon="10.6837517"><ele>1293.0</ele><time>2026-05-03T09:14:12.136Z</time></trkpt><trkpt lat="44.1331586" lon="10.6836029"><ele>1294.75</ele><time>2026-05-03T09:14:13.136Z</time></trkpt><trkpt lat="44.133269" lon="10.6834722"><ele>1296.5</ele><time>2026-05-03T09:14:14.135Z</time></trkpt><trkpt lat="44.1333692" lon="10.6833562"><ele>1298.25</ele><time>2026-05-03T09:14:15.135Z</time></trkpt><trkpt lat="44.1334842" lon="10.6832576"><ele>1300.0</ele><time>2026-05-03T09:14:16.135Z</time></trkpt><trkpt lat="44.1336052" lon="10.6831918"><ele>1300.0</ele><time>2026-05-03T09:14:17.135Z</time></trkpt><trkpt lat="44.1337221" lon="10.6831359"><ele>1300.0</ele><time>2026-05-03T09:14:18.136Z</time></trkpt><trkpt lat="44.1338386" lon="10.6831398"><ele>1300.0</ele><time>2026-05-03T09:14:19.136Z</time></trkpt><trkpt lat="44.1339178" lon="10.6830651"><ele>1300.0</ele><time>2026-05-03T09:14:20.134Z</time></trkpt><trkpt lat="44.1340435" lon="10.6829675"><ele>1298.0</ele><time>2026-05-03T09:14:21.135Z</time></trkpt><trkpt lat="44.1341268" lon="10.6827871"><ele>1296.0</ele><time>2026-05-03T09:14:22.134Z</time></trkpt><trkpt lat="44.134232" lon="10.6826007"><ele>1294.0</ele><time>2026-05-03T09:14:23.135Z</time></trkpt><trkpt lat="44.1343382" lon="10.6823751"><ele>1298.6666666666665</ele><time>2026-05-03T09:14:24.136Z</time></trkpt><trkpt lat="44.134478" lon="10.682173"><ele>1303.3333333333333</ele><time>2026-05-03T09:14:25.135Z</time></trkpt><trkpt lat="44.1346125" lon="10.6819751"><ele>1308.0</ele><time>2026-05-03T09:14:26.135Z</time></trkpt><trkpt lat="44.1347481" lon="10.6818004"><ele>1308.0</ele><time>2026-05-03T09:14:27.135Z</time></trkpt><trkpt lat="44.134896" lon="10.6816236"><ele>1308.0</ele><time>2026-05-03T09:14:28.135Z</time></trkpt><trkpt lat="44.1350448" lon="10.6814483"><ele>1308.0</ele><time>2026-05-03T09:14:29.136Z</time></trkpt><trkpt lat="44.1351918" lon="10.6812867"><ele>1308.0</ele><time>2026-05-03T09:14:30.135Z</time></trkpt><trkpt lat="44.1353645" lon="10.6811819"><ele>1308.0</ele><time>2026-05-03T09:14:31.135Z</time></trkpt><trkpt lat="44.1355001" lon="10.6810256"><ele>1308.0</ele><time>2026-05-03T09:14:32.134Z</time></trkpt><trkpt lat="44.1356339" lon="10.6808626"><ele>1308.3333333333333</ele><time>2026-05-03T09:14:33.135Z</time></trkpt><trkpt lat="44.1357631" lon="10.6807045"><ele>1308.6666666666665</ele><time>2026-05-03T09:14:34.135Z</time></trkpt><trkpt lat="44.1358695" lon="10.6805366"><ele>1309.0</ele><time>2026-05-03T09:14:35.135Z</time></trkpt><trkpt lat="44.1359733" lon="10.6803739"><ele>1313.5</ele><time>2026-05-03T09:14:36.135Z</time></trkpt><trkpt lat="44.1360673" lon="10.6802077"><ele>1318.0</ele><time>2026-05-03T09:14:37.136Z</time></trkpt><trkpt lat="44.1361616" lon="10.6800477"><ele>1322.5</ele><time>2026-05-03T09:14:38.135Z</time></trkpt><trkpt lat="44.136252" lon="10.6798963"><ele>1327.0</ele><time>2026-05-03T09:14:39.136Z</time></trkpt><trkpt lat="44.1363347" lon="10.6797626"><ele>1327.0</ele><time>2026-05-03T09:14:40.135Z</time></trkpt><trkpt lat="44.1364225" lon="10.6796638"><ele>1327.0</ele><time>2026-05-03T09:14:41.135Z</time></trkpt><trkpt lat="44.1365238" lon="10.6796112"><ele>1327.0</ele><time>2026-05-03T09:14:42.136Z</time></trkpt><trkpt lat="44.1366222" lon="10.6795825"><ele>1327.0</ele><time>2026-05-03T09:14:43.135Z</time></trkpt><trkpt lat="44.1367196" lon="10.6796246"><ele>1327.0</ele><time>2026-05-03T09:14:44.135Z</time></trkpt><trkpt lat="44.1368414" lon="10.6796386"><ele>1328.5</ele><time>2026-05-03T09:14:45.136Z</time></trkpt><trkpt lat="44.1369448" lon="10.6795425"><ele>1330.0</ele><time>2026-05-03T09:14:46.136Z</time></trkpt><trkpt lat="44.1370744" lon="10.679438"><ele>1331.5</ele><time>2026-05-03T09:14:47.136Z</time></trkpt><trkpt lat="44.1371985" lon="10.6793395"><ele>1333.0</ele><time>2026-05-03T09:14:48.135Z</time></trkpt><trkpt lat="44.1373083" lon="10.6792468"><ele>1328.75</ele><time>2026-05-03T09:14:49.135Z</time></trkpt><trkpt lat="44.1374144" lon="10.6791545"><ele>1324.5</ele><time>2026-05-03T09:14:50.136Z</time></trkpt><trkpt lat="44.1374962" lon="10.6790371"><ele>1320.25</ele><time>2026-05-03T09:14:51.135Z</time></trkpt><trkpt lat="44.1374929" lon="10.6788755"><ele>1316.0</ele><time>2026-05-03T09:14:52.134Z</time></trkpt><trkpt lat="44.1375251" lon="10.6787415"><ele>1317.0</ele><time>2026-05-03T09:14:53.135Z</time></trkpt><trkpt lat="44.1374879" lon="10.6785551"><ele>1318.0</ele><time>2026-05-03T09:14:54.135Z</time></trkpt><trkpt lat="44.1374553" lon="10.678354"><ele>1319.0</ele><time>2026-05-03T09:14:55.136Z</time></trkpt><trkpt lat="44.137414" lon="10.6781608"><ele>1320.0</ele><time>2026-05-03T09:14:56.134Z</time></trkpt><trkpt lat="44.1373872" lon="10.6779441"><ele>1321.0</ele><time>2026-05-03T09:14:57.135Z</time></trkpt><trkpt lat="44.1373748" lon="10.6777139"><ele>1322.0</ele><time>2026-05-03T09:14:58.135Z</time></trkpt><trkpt lat="44.1373874" lon="10.6775028"><ele>1323.0</ele><time>2026-05-03T09:14:59.134Z</time></trkpt><trkpt lat="44.137402" lon="10.6773087"><ele>1323.0</ele><time>2026-05-03T09:15:00.135Z</time></trkpt><trkpt lat="44.1374451" lon="10.6771338"><ele>1323.0</ele><time>2026-05-03T09:15:01.134Z</time></trkpt><trkpt lat="44.137542" lon="10.6770871"><ele>1323.0</ele><time>2026-05-03T09:15:02.135Z</time></trkpt><trkpt lat="44.1376882" lon="10.6770823"><ele>1323.0</ele><time>2026-05-03T09:15:03.135Z</time></trkpt><trkpt lat="44.1377866" lon="10.6769781"><ele>1325.75</ele><time>2026-05-03T09:15:04.134Z</time></trkpt><trkpt lat="44.1378861" lon="10.6768558"><ele>1328.5</ele><time>2026-05-03T09:15:05.134Z</time></trkpt><trkpt lat="44.1379861" lon="10.6766827"><ele>1331.25</ele><time>2026-05-03T09:15:06.135Z</time></trkpt><trkpt lat="44.1381003" lon="10.6765412"><ele>1334.0</ele><time>2026-05-03T09:15:07.136Z</time></trkpt><trkpt lat="44.1382155" lon="10.6764192"><ele>1331.75</ele><time>2026-05-03T09:15:08.135Z</time></trkpt><trkpt lat="44.1383357" lon="10.6763071"><ele>1329.5</ele><time>2026-05-03T09:15:09.136Z</time></trkpt><trkpt lat="44.1384626" lon="10.6761959"><ele>1327.25</ele><time>2026-05-03T09:15:10.135Z</time></trkpt><trkpt lat="44.1385687" lon="10.6761021"><ele>1325.0</ele><time>2026-05-03T09:15:11.133Z</time></trkpt><trkpt lat="44.1386688" lon="10.6760221"><ele>1325.0</ele><time>2026-05-03T09:15:12.134Z</time></trkpt><trkpt lat="44.1387527" lon="10.6759186"><ele>1325.0</ele><time>2026-05-03T09:15:13.136Z</time></trkpt><trkpt lat="44.1388311" lon="10.6757773"><ele>1325.0</ele><time>2026-05-03T09:15:14.135Z</time></trkpt><trkpt lat="44.1388939" lon="10.675603"><ele>1325.0</ele><time>2026-05-03T09:15:15.136Z</time></trkpt><trkpt lat="44.1389614" lon="10.6754018"><ele>1329.6666666666667</ele><time>2026-05-03T09:15:16.135Z</time></trkpt><trkpt lat="44.1390245" lon="10.6751913"><ele>1334.3333333333333</ele><time>2026-05-03T09:15:17.135Z</time></trkpt><trkpt lat="44.1390885" lon="10.6749867"><ele>1339.0</ele><time>2026-05-03T09:15:18.136Z</time></trkpt><trkpt lat="44.1391511" lon="10.6747701"><ele>1339.6666666666665</ele><time>2026-05-03T09:15:19.136Z</time></trkpt><trkpt lat="44.13922" lon="10.674549"><ele>1340.3333333333333</ele><time>2026-05-03T09:15:20.136Z</time></trkpt><trkpt lat="44.1392876" lon="10.674321"><ele>1341.0</ele><time>2026-05-03T09:15:21.134Z</time></trkpt><trkpt lat="44.139351" lon="10.6741115"><ele>1342.0</ele><time>2026-05-03T09:15:22.135Z</time></trkpt><trkpt lat="44.1394135" lon="10.67391"><ele>1343.0</ele><time>2026-05-03T09:15:23.136Z</time></trkpt><trkpt lat="44.1394746" lon="10.6737004"><ele>1344.0</ele><time>2026-05-03T09:15:24.134Z</time></trkpt><trkpt lat="44.1395307" lon="10.673507"><ele>1344.5</ele><time>2026-05-03T09:15:25.136Z</time></trkpt><trkpt lat="44.1395839" lon="10.6733444"><ele>1345.0</ele><time>2026-05-03T09:15:26.135Z</time></trkpt><trkpt lat="44.139631" lon="10.6731876"><ele>1345.5</ele><time>2026-05-03T09:15:27.136Z</time></trkpt><trkpt lat="44.1396552" lon="10.6730266"><ele>1346.0</ele><time>2026-05-03T09:15:28.136Z</time></trkpt><trkpt lat="44.1396516" lon="10.6728545"><ele>1348.5</ele><time>2026-05-03T09:15:29.136Z</time></trkpt><trkpt lat="44.1396304" lon="10.6726796"><ele>1351.0</ele><time>2026-05-03T09:15:30.136Z</time></trkpt><trkpt lat="44.1396203" lon="10.6725192"><ele>1353.5</ele><time>2026-05-03T09:15:31.136Z</time></trkpt><trkpt lat="44.1396397" lon="10.67236"><ele>1356.0</ele><time>2026-05-03T09:15:32.136Z</time></trkpt><trkpt lat="44.1396915" lon="10.6722152"><ele>1356.0</ele><time>2026-05-03T09:15:33.135Z</time></trkpt><trkpt lat="44.139775" lon="10.6720651"><ele>1356.0</ele><time>2026-05-03T09:15:34.135Z</time></trkpt><trkpt lat="44.139883" lon="10.6719044"><ele>1356.0</ele><time>2026-05-03T09:15:35.135Z</time></trkpt><trkpt lat="44.1399953" lon="10.6717305"><ele>1355.25</ele><time>2026-05-03T09:15:36.135Z</time></trkpt><trkpt lat="44.1400945" lon="10.6715713"><ele>1354.5</ele><time>2026-05-03T09:15:37.132Z</time></trkpt><trkpt lat="44.1401918" lon="10.6714127"><ele>1353.75</ele><time>2026-05-03T09:15:38.135Z</time></trkpt><trkpt lat="44.1402847" lon="10.6712841"><ele>1353.0</ele><time>2026-05-03T09:15:39.135Z</time></trkpt><trkpt lat="44.1403841" lon="10.6712086"><ele>1353.0</ele><time>2026-05-03T09:15:40.135Z</time></trkpt><trkpt lat="44.1404821" lon="10.6711421"><ele>1353.0</ele><time>2026-05-03T09:15:41.134Z</time></trkpt><trkpt lat="44.1405921" lon="10.6711826"><ele>1353.0</ele><time>2026-05-03T09:15:42.135Z</time></trkpt><trkpt lat="44.14071" lon="10.6711924"><ele>1353.0</ele><time>2026-05-03T09:15:43.136Z</time></trkpt><trkpt lat="44.1408018" lon="10.6711215"><ele>1353.0</ele><time>2026-05-03T09:15:44.135Z</time></trkpt><trkpt lat="44.1408802" lon="10.6710156"><ele>1356.0</ele><time>2026-05-03T09:15:45.135Z</time></trkpt><trkpt lat="44.1409683" lon="10.6708897"><ele>1359.0</ele><time>2026-05-03T09:15:46.134Z</time></trkpt><trkpt lat="44.1409965" lon="10.6707098"><ele>1362.0</ele><time>2026-05-03T09:15:47.134Z</time></trkpt><trkpt lat="44.1410443" lon="10.6705586"><ele>1365.0</ele><time>2026-05-03T09:15:48.136Z</time></trkpt><trkpt lat="44.1411113" lon="10.6703931"><ele>1371.25</ele><time>2026-05-03T09:15:49.136Z</time></trkpt><trkpt lat="44.141188" lon="10.6702424"><ele>1377.5</ele><time>2026-05-03T09:15:50.134Z</time></trkpt><trkpt lat="44.1413241" lon="10.6701427"><ele>1383.75</ele><time>2026-05-03T09:15:51.135Z</time></trkpt><trkpt lat="44.1414207" lon="10.6700094"><ele>1390.0</ele><time>2026-05-03T09:15:52.136Z</time></trkpt><trkpt lat="44.1415364" lon="10.6698782"><ele>1386.0</ele><time>2026-05-03T09:15:53.135Z</time></trkpt><trkpt lat="44.1416483" lon="10.6697255"><ele>1382.0</ele><time>2026-05-03T09:15:54.135Z</time></trkpt><trkpt lat="44.1417317" lon="10.6695666"><ele>1378.0</ele><time>2026-05-03T09:15:55.135Z</time></trkpt><trkpt lat="44.1418033" lon="10.6694033"><ele>1374.0</ele><time>2026-05-03T09:15:56.135Z</time></trkpt><trkpt lat="44.1418468" lon="10.6692327"><ele>1374.0</ele><time>2026-05-03T09:15:57.135Z</time></trkpt><trkpt lat="44.1418677" lon="10.6690705"><ele>1374.0</ele><time>2026-05-03T09:15:58.135Z</time></trkpt><trkpt lat="44.1418905" lon="10.6689185"><ele>1374.0</ele><time>2026-05-03T09:15:59.136Z</time></trkpt><trkpt lat="44.1419119" lon="10.6687674"><ele>1374.0</ele><time>2026-05-03T09:16:00.135Z</time></trkpt><trkpt lat="44.1419313" lon="10.668618"><ele>1374.0</ele><time>2026-05-03T09:16:01.135Z</time></trkpt><trkpt lat="44.1419578" lon="10.6684713"><ele>1374.0</ele><time>2026-05-03T09:16:02.136Z</time></trkpt><trkpt lat="44.142006" lon="10.6683409"><ele>1374.0</ele><time>2026-05-03T09:16:03.136Z</time></trkpt><trkpt lat="44.1420868" lon="10.6682479"><ele>1374.0</ele><time>2026-05-03T09:16:04.136Z</time></trkpt><trkpt lat="44.1421896" lon="10.6681985"><ele>1374.0</ele><time>2026-05-03T09:16:05.135Z</time></trkpt><trkpt lat="44.1423069" lon="10.6681928"><ele>1374.0</ele><time>2026-05-03T09:16:06.135Z</time></trkpt><trkpt lat="44.1424334" lon="10.6682096"><ele>1374.0</ele><time>2026-05-03T09:16:07.135Z</time></trkpt><trkpt lat="44.1425511" lon="10.6682009"><ele>1374.0</ele><time>2026-05-03T09:16:08.136Z</time></trkpt><trkpt lat="44.1426639" lon="10.6681806"><ele>1374.0</ele><time>2026-05-03T09:16:09.135Z</time></trkpt><trkpt lat="44.1427512" lon="10.6681248"><ele>1374.0</ele><time>2026-05-03T09:16:10.135Z</time></trkpt><trkpt lat="44.1428285" lon="10.6680533"><ele>1374.0</ele><time>2026-05-03T09:16:11.135Z</time></trkpt><trkpt lat="44.1428935" lon="10.6679599"><ele>1374.0</ele><time>2026-05-03T09:16:12.136Z</time></trkpt><trkpt lat="44.1429584" lon="10.6678477"><ele>1374.0</ele><time>2026-05-03T09:16:13.134Z</time></trkpt><trkpt lat="44.1430291" lon="10.667711"><ele>1374.0</ele><time>2026-05-03T09:16:14.135Z</time></trkpt><trkpt lat="44.1430905" lon="10.6675821"><ele>1374.0</ele><time>2026-05-03T09:16:15.136Z</time></trkpt><trkpt lat="44.1431457" lon="10.6674725"><ele>1374.0</ele><time>2026-05-03T09:16:16.135Z</time></trkpt><trkpt lat="44.1431911" lon="10.6673647"><ele>1375.0</ele><time>2026-05-03T09:16:17.134Z</time></trkpt><trkpt lat="44.1432267" lon="10.6672485"><ele>1376.0</ele><time>2026-05-03T09:16:18.134Z</time></trkpt><trkpt lat="44.1432509" lon="10.6671238"><ele>1377.0</ele><time>2026-05-03T09:16:19.136Z</time></trkpt><trkpt lat="44.1432635" lon="10.6669886"><ele>1378.0</ele><time>2026-05-03T09:16:20.136Z</time></trkpt><trkpt lat="44.1432689" lon="10.6668463"><ele>1379.0</ele><time>2026-05-03T09:16:21.136Z</time></trkpt><trkpt lat="44.1432723" lon="10.6667057"><ele>1379.0</ele><time>2026-05-03T09:16:22.135Z</time></trkpt><trkpt lat="44.1432814" lon="10.6665673"><ele>1379.0</ele><time>2026-05-03T09:16:23.136Z</time></trkpt><trkpt lat="44.1432979" lon="10.6664401"><ele>1379.0</ele><time>2026-05-03T09:16:24.136Z</time></trkpt><trkpt lat="44.1433278" lon="10.6663222"><ele>1379.0</ele><time>2026-05-03T09:16:25.135Z</time></trkpt><trkpt lat="44.1433751" lon="10.6662136"><ele>1379.0</ele><time>2026-05-03T09:16:26.135Z</time></trkpt><trkpt lat="44.1434427" lon="10.6661187"><ele>1380.4</ele><time>2026-05-03T09:16:27.136Z</time></trkpt><trkpt lat="44.1435243" lon="10.6660432"><ele>1381.8000000000002</ele><time>2026-05-03T09:16:28.136Z</time></trkpt><trkpt lat="44.1436171" lon="10.6659762"><ele>1383.1999999999998</ele><time>2026-05-03T09:16:29.135Z</time></trkpt><trkpt lat="44.1437134" lon="10.6659116"><ele>1384.6</ele><time>2026-05-03T09:16:30.136Z</time></trkpt><trkpt lat="44.1438091" lon="10.6658465"><ele>1386.0</ele><time>2026-05-03T09:16:31.136Z</time></trkpt><trkpt lat="44.1439014" lon="10.6657818"><ele>1386.0</ele><time>2026-05-03T09:16:32.136Z</time></trkpt><trkpt lat="44.1439888" lon="10.6657192"><ele>1386.0</ele><time>2026-05-03T09:16:33.135Z</time></trkpt><trkpt lat="44.1440632" lon="10.6656562"><ele>1386.0</ele><time>2026-05-03T09:16:34.135Z</time></trkpt><trkpt lat="44.1441289" lon="10.6655956"><ele>1386.0</ele><time>2026-05-03T09:16:35.136Z</time></trkpt><trkpt lat="44.1441814" lon="10.665528"><ele>1386.0</ele><time>2026-05-03T09:16:36.135Z</time></trkpt><trkpt lat="44.1442288" lon="10.665457"><ele>1386.0</ele><time>2026-05-03T09:16:37.136Z</time></trkpt><trkpt lat="44.1442828" lon="10.6653967"><ele>1386.3333333333333</ele><time>2026-05-03T09:16:38.136Z</time></trkpt><trkpt lat="44.1443409" lon="10.665352"><ele>1386.6666666666667</ele><time>2026-05-03T09:16:39.135Z</time></trkpt><trkpt lat="44.1444037" lon="10.6653235"><ele>1387.0</ele><time>2026-05-03T09:16:40.135Z</time></trkpt><trkpt lat="44.1444666" lon="10.6653054"><ele>1387.3333333333335</ele><time>2026-05-03T09:16:41.136Z</time></trkpt><trkpt lat="44.1445851" lon="10.6652741"><ele>1387.6666666666667</ele><time>2026-05-03T09:16:43.136Z</time></trkpt><trkpt lat="44.1446657" lon="10.6652563"><ele>1388.0</ele><time>2026-05-03T09:16:45.136Z</time></trkpt><trkpt lat="44.1447608" lon="10.6652287"><ele>1388.0</ele><time>2026-05-03T09:16:48.135Z</time></trkpt><trkpt lat="44.144877" lon="10.6651998"><ele>1388.0</ele><time>2026-05-03T09:16:50.135Z</time></trkpt><trkpt lat="44.1449752" lon="10.6651732"><ele>1388.0</ele><time>2026-05-03T09:16:52.136Z</time></trkpt><trkpt lat="44.145038" lon="10.6651614"><ele>1388.0</ele><time>2026-05-03T09:16:54.136Z</time></trkpt><trkpt lat="44.1451238" lon="10.6651581"><ele>1388.0</ele><time>2026-05-03T09:16:57.135Z</time></trkpt><trkpt lat="44.1451918" lon="10.6651748"><ele>1388.0</ele><time>2026-05-03T09:17:00.136Z</time></trkpt><trkpt lat="44.1451395" lon="10.6652326"><ele>1387.2857142857144</ele><time>2026-05-03T09:19:04.135Z</time></trkpt><trkpt lat="44.1450773" lon="10.665251"><ele>1386.5714285714284</ele><time>2026-05-03T09:19:11.135Z</time></trkpt><trkpt lat="44.1450069" lon="10.66525"><ele>1385.857142857143</ele><time>2026-05-03T09:19:17.134Z</time></trkpt><trkpt lat="44.1449409" lon="10.6652613"><ele>1385.1428571428573</ele><time>2026-05-03T09:19:23.135Z</time></trkpt><trkpt lat="44.1448805" lon="10.6653164"><ele>1384.4285714285716</ele><time>2026-05-03T09:19:31.064Z</time></trkpt><trkpt lat="44.1448075" lon="10.6653241"><ele>1383.7142857142858</ele><time>2026-05-03T09:20:07.108Z</time></trkpt><trkpt lat="44.1447427" lon="10.6653491"><ele>1383.0</ele><time>2026-05-03T09:20:11.136Z</time></trkpt><trkpt lat="44.1446833" lon="10.6653904"><ele>1382.0000000000002</ele><time>2026-05-03T09:20:16.136Z</time></trkpt><trkpt lat="44.1446163" lon="10.6654327"><ele>1381.0</ele><time>2026-05-03T09:20:22.134Z</time></trkpt><trkpt lat="44.1445559" lon="10.6654673"><ele>1380.0</ele><time>2026-05-03T09:20:27.135Z</time></trkpt><trkpt lat="44.1444811" lon="10.6654912"><ele>1379.0</ele><time>2026-05-03T09:20:33.136Z</time></trkpt><trkpt lat="44.1444163" lon="10.6654498"><ele>1378.0</ele><time>2026-05-03T09:20:39.135Z</time></trkpt><trkpt lat="44.1444757" lon="10.6655067"><ele>1377.0000000000002</ele><time>2026-05-03T09:24:06.135Z</time></trkpt><trkpt lat="44.1445419" lon="10.6655176"><ele>1376.0</ele><time>2026-05-03T09:24:11.089Z</time></trkpt><trkpt lat="44.144605" lon="10.6655066"><ele>1376.0000000000002</ele><time>2026-05-03T09:24:16.136Z</time></trkpt><trkpt lat="44.1446713" lon="10.6654669"><ele>1376.0</ele><time>2026-05-03T09:24:22.135Z</time></trkpt><trkpt lat="44.1447317" lon="10.6654329"><ele>1376.0</ele><time>2026-05-03T09:24:28.135Z</time></trkpt><trkpt lat="44.1447918" lon="10.6653892"><ele>1376.0</ele><time>2026-05-03T09:24:34.118Z</time></trkpt><trkpt lat="44.1448586" lon="10.6653697"><ele>1376.0</ele><time>2026-05-03T09:24:41.135Z</time></trkpt><trkpt lat="44.1449023" lon="10.6653009"><ele>1376.0000000000002</ele><time>2026-05-03T09:27:11.136Z</time></trkpt><trkpt lat="44.1449692" lon="10.6652711"><ele>1376.0</ele><time>2026-05-03T09:27:26.135Z</time></trkpt><trkpt lat="44.1450382" lon="10.6652579"><ele>1377.0000000000002</ele><time>2026-05-03T09:27:32.129Z</time></trkpt><trkpt lat="44.1451083" lon="10.6652552"><ele>1378.0</ele><time>2026-05-03T09:27:39.135Z</time></trkpt><trkpt lat="44.1451706" lon="10.6652423"><ele>1379.0</ele><time>2026-05-03T09:27:45.065Z</time></trkpt><trkpt lat="44.1452342" lon="10.6652155"><ele>1380.0</ele><time>2026-05-03T09:29:14.135Z</time></trkpt><trkpt lat="44.1453013" lon="10.66523"><ele>1381.0</ele><time>2026-05-03T09:29:22.136Z</time></trkpt><trkpt lat="44.1453713" lon="10.665214"><ele>1382.0000000000002</ele><time>2026-05-03T09:29:28.135Z</time></trkpt><trkpt lat="44.1454224" lon="10.6651547"><ele>1383.0</ele><time>2026-05-03T09:29:34.135Z</time></trkpt><trkpt lat="44.1454848" lon="10.665131"><ele>1383.0000000000002</ele><time>2026-05-03T09:29:42.135Z</time></trkpt><trkpt lat="44.1455401" lon="10.6650825"><ele>1383.0</ele><time>2026-05-03T09:29:50.135Z</time></trkpt><trkpt lat="44.1456017" lon="10.6650453"><ele>1383.0</ele><time>2026-05-03T09:29:57.135Z</time></trkpt><trkpt lat="44.1456472" lon="10.6651238"><ele>1383.0</ele><time>2026-05-03T09:30:08.136Z</time></trkpt><trkpt lat="44.1456536" lon="10.6652178"><ele>1383.0</ele><time>2026-05-03T09:30:16.136Z</time></trkpt><trkpt lat="44.1456504" lon="10.6651245"><ele>1383.0000000000002</ele><time>2026-05-03T09:30:49.135Z</time></trkpt><trkpt lat="44.1455778" lon="10.6650946"><ele>1383.0</ele><time>2026-05-03T09:40:54.105Z</time></trkpt><trkpt lat="44.1455256" lon="10.6650374"><ele>1383.0000000000002</ele><time>2026-05-03T09:41:08.133Z</time></trkpt><trkpt lat="44.145578" lon="10.6649879"><ele>1383.0</ele><time>2026-05-03T09:41:23.061Z</time></trkpt><trkpt lat="44.1456386" lon="10.6649629"><ele>1383.0</ele><time>2026-05-03T09:41:30.136Z</time></trkpt><trkpt lat="44.1457115" lon="10.6649515"><ele>1383.0</ele><time>2026-05-03T09:41:37.136Z</time></trkpt><trkpt lat="44.1457749" lon="10.6649457"><ele>1383.0</ele><time>2026-05-03T09:41:43.134Z</time></trkpt><trkpt lat="44.1458369" lon="10.6649207"><ele>1383.0000000000002</ele><time>2026-05-03T09:41:52.136Z</time></trkpt><trkpt lat="44.1458554" lon="10.6648361"><ele>1383.0</ele><time>2026-05-03T09:41:59.044Z</time></trkpt><trkpt lat="44.145913" lon="10.6647796"><ele>1382.5</ele><time>2026-05-03T10:22:41.128Z</time></trkpt><trkpt lat="44.1458973" lon="10.664633"><ele>1382.0</ele><time>2026-05-03T10:28:20.125Z</time></trkpt><trkpt lat="44.1459161" lon="10.6647325"><ele>1381.5</ele><time>2026-05-03T10:32:10.015Z</time></trkpt><trkpt lat="44.1458809" lon="10.6648091"><ele>1381.0</ele><time>2026-05-03T10:32:14.127Z</time></trkpt><trkpt lat="44.1458371" lon="10.6648957"><ele>1380.5</ele><time>2026-05-03T10:32:38.127Z</time></trkpt><trkpt lat="44.1457944" lon="10.6649723"><ele>1380.0</ele><time>2026-05-03T10:32:42.127Z</time></trkpt><trkpt lat="44.1457201" lon="10.6650286"><ele>1380.4285714285716</ele><time>2026-05-03T10:32:48.123Z</time></trkpt><trkpt lat="44.1456568" lon="10.6650633"><ele>1380.857142857143</ele><time>2026-05-03T10:32:53.122Z</time></trkpt><trkpt lat="44.145586" lon="10.6650759"><ele>1381.2857142857142</ele><time>2026-05-03T10:32:57.125Z</time></trkpt><trkpt lat="44.1455256" lon="10.6651025"><ele>1381.7142857142858</ele><time>2026-05-03T10:33:02.123Z</time></trkpt><trkpt lat="44.1454565" lon="10.6651203"><ele>1382.142857142857</ele><time>2026-05-03T10:33:07.124Z</time></trkpt><trkpt lat="44.1453897" lon="10.6651402"><ele>1382.5714285714287</ele><time>2026-05-03T10:33:13.125Z</time></trkpt><trkpt lat="44.1453261" lon="10.6651662"><ele>1383.0</ele><time>2026-05-03T10:33:18.098Z</time></trkpt><trkpt lat="44.1452591" lon="10.6651778"><ele>1383.0000000000002</ele><time>2026-05-03T10:33:23.128Z</time></trkpt><trkpt lat="44.145191" lon="10.6651943"><ele>1383.0</ele><time>2026-05-03T10:33:28.124Z</time></trkpt><trkpt lat="44.1452224" lon="10.6652717"><ele>1383.0</ele><time>2026-05-03T10:33:34.129Z</time></trkpt><trkpt lat="44.1451989" lon="10.6651713"><ele>1383.0</ele><time>2026-05-03T10:38:41.112Z</time></trkpt><trkpt lat="44.1452331" lon="10.6650855"><ele>1383.0</ele><time>2026-05-03T10:38:44.111Z</time></trkpt><trkpt lat="44.1453232" lon="10.6650991"><ele>1383.0000000000002</ele><time>2026-05-03T10:38:46.112Z</time></trkpt><trkpt lat="44.1453989" lon="10.665094"><ele>1383.0</ele><time>2026-05-03T10:38:48.111Z</time></trkpt><trkpt lat="44.1454741" lon="10.6650713"><ele>1383.0</ele><time>2026-05-03T10:38:50.111Z</time></trkpt><trkpt lat="44.1455644" lon="10.6650293"><ele>1383.0</ele><time>2026-05-03T10:38:52.112Z</time></trkpt><trkpt lat="44.1456373" lon="10.6649254"><ele>1383.0</ele><time>2026-05-03T10:38:54.112Z</time></trkpt><trkpt lat="44.1456238" lon="10.6647711"><ele>1383.0</ele><time>2026-05-03T10:38:56.112Z</time></trkpt><trkpt lat="44.1455892" lon="10.6646973"><ele>1383.0</ele><time>2026-05-03T10:38:57.112Z</time></trkpt><trkpt lat="44.1455454" lon="10.6646266"><ele>1383.0</ele><time>2026-05-03T10:38:58.111Z</time></trkpt><trkpt lat="44.1454878" lon="10.6645375"><ele>1383.0</ele><time>2026-05-03T10:38:59.111Z</time></trkpt><trkpt lat="44.1454288" lon="10.6644487"><ele>1383.0</ele><time>2026-05-03T10:39:00.112Z</time></trkpt><trkpt lat="44.1453645" lon="10.6643629"><ele>1383.0</ele><time>2026-05-03T10:39:01.111Z</time></trkpt><trkpt lat="44.1453051" lon="10.6642683"><ele>1383.0</ele><time>2026-05-03T10:39:02.111Z</time></trkpt><trkpt lat="44.145239" lon="10.6641834"><ele>1383.0</ele><time>2026-05-03T10:39:03.112Z</time></trkpt><trkpt lat="44.1451735" lon="10.6641008"><ele>1383.0</ele><time>2026-05-03T10:39:04.111Z</time></trkpt><trkpt lat="44.1451116" lon="10.6640118"><ele>1382.6666666666667</ele><time>2026-05-03T10:39:05.112Z</time></trkpt><trkpt lat="44.1450497" lon="10.6639338"><ele>1382.3333333333333</ele><time>2026-05-03T10:39:06.111Z</time></trkpt><trkpt lat="44.1449873" lon="10.6638524"><ele>1382.0</ele><time>2026-05-03T10:39:07.111Z</time></trkpt><trkpt lat="44.1449225" lon="10.6637751"><ele>1381.6666666666665</ele><time>2026-05-03T10:39:08.112Z</time></trkpt><trkpt lat="44.1448595" lon="10.6636938"><ele>1381.3333333333333</ele><time>2026-05-03T10:39:09.112Z</time></trkpt><trkpt lat="44.1447938" lon="10.6636048"><ele>1381.0</ele><time>2026-05-03T10:39:10.112Z</time></trkpt><trkpt lat="44.1447276" lon="10.6635215"><ele>1381.0</ele><time>2026-05-03T10:39:11.111Z</time></trkpt><trkpt lat="44.1446621" lon="10.6634416"><ele>1381.0</ele><time>2026-05-03T10:39:12.112Z</time></trkpt><trkpt lat="44.1445939" lon="10.6633627"><ele>1381.0</ele><time>2026-05-03T10:39:13.112Z</time></trkpt><trkpt lat="44.1445339" lon="10.6632846"><ele>1381.0</ele><time>2026-05-03T10:39:14.112Z</time></trkpt><trkpt lat="44.1444647" lon="10.6632062"><ele>1381.0</ele><time>2026-05-03T10:39:15.111Z</time></trkpt><trkpt lat="44.1443976" lon="10.6631388"><ele>1381.0</ele><time>2026-05-03T10:39:16.112Z</time></trkpt><trkpt lat="44.1443337" lon="10.6630684"><ele>1381.0</ele><time>2026-05-03T10:39:17.112Z</time></trkpt><trkpt lat="44.1442707" lon="10.6630043"><ele>1381.0</ele><time>2026-05-03T10:39:18.112Z</time></trkpt><trkpt lat="44.1442061" lon="10.6629355"><ele>1381.0</ele><time>2026-05-03T10:39:19.112Z</time></trkpt><trkpt lat="44.1441361" lon="10.6628814"><ele>1381.0</ele><time>2026-05-03T10:39:20.111Z</time></trkpt><trkpt lat="44.1440931" lon="10.6627789"><ele>1381.0</ele><time>2026-05-03T10:39:21.111Z</time></trkpt><trkpt lat="44.1440534" lon="10.6626687"><ele>1381.0</ele><time>2026-05-03T10:39:22.112Z</time></trkpt><trkpt lat="44.1440159" lon="10.6625693"><ele>1381.4</ele><time>2026-05-03T10:39:23.112Z</time></trkpt><trkpt lat="44.1439737" lon="10.6624649"><ele>1381.8</ele><time>2026-05-03T10:39:24.112Z</time></trkpt><trkpt lat="44.1439279" lon="10.6623707"><ele>1382.2</ele><time>2026-05-03T10:39:25.111Z</time></trkpt><trkpt lat="44.1438813" lon="10.6622772"><ele>1382.6000000000001</ele><time>2026-05-03T10:39:26.112Z</time></trkpt><trkpt lat="44.1438184" lon="10.6621844"><ele>1383.0</ele><time>2026-05-03T10:39:27.111Z</time></trkpt><trkpt lat="44.1437385" lon="10.6620723"><ele>1383.0</ele><time>2026-05-03T10:39:28.112Z</time></trkpt><trkpt lat="44.1436549" lon="10.6619749"><ele>1383.0</ele><time>2026-05-03T10:39:29.111Z</time></trkpt><trkpt lat="44.143551" lon="10.6618703"><ele>1383.0</ele><time>2026-05-03T10:39:30.112Z</time></trkpt><trkpt lat="44.1434475" lon="10.661763"><ele>1383.0</ele><time>2026-05-03T10:39:31.112Z</time></trkpt><trkpt lat="44.1433305" lon="10.6616405"><ele>1380.0</ele><time>2026-05-03T10:39:32.111Z</time></trkpt><trkpt lat="44.1432045" lon="10.661523"><ele>1377.0</ele><time>2026-05-03T10:39:33.112Z</time></trkpt><trkpt lat="44.1430786" lon="10.6614116"><ele>1374.0</ele><time>2026-05-03T10:39:34.112Z</time></trkpt><trkpt lat="44.1429436" lon="10.6613222"><ele>1374.0</ele><time>2026-05-03T10:39:35.112Z</time></trkpt><trkpt lat="44.1428068" lon="10.66124"><ele>1374.0</ele><time>2026-05-03T10:39:36.111Z</time></trkpt><trkpt lat="44.1426653" lon="10.6611849"><ele>1374.0</ele><time>2026-05-03T10:39:37.111Z</time></trkpt><trkpt lat="44.1425478" lon="10.6611081"><ele>1374.0</ele><time>2026-05-03T10:39:38.112Z</time></trkpt><trkpt lat="44.1424084" lon="10.6610189"><ele>1371.5</ele><time>2026-05-03T10:39:39.112Z</time></trkpt><trkpt lat="44.1422841" lon="10.6609271"><ele>1369.0</ele><time>2026-05-03T10:39:40.112Z</time></trkpt><trkpt lat="44.1421695" lon="10.6608308"><ele>1366.5</ele><time>2026-05-03T10:39:41.111Z</time></trkpt><trkpt lat="44.1420604" lon="10.6607288"><ele>1364.0</ele><time>2026-05-03T10:39:42.112Z</time></trkpt><trkpt lat="44.1419627" lon="10.6606184"><ele>1364.0</ele><time>2026-05-03T10:39:43.111Z</time></trkpt><trkpt lat="44.1418639" lon="10.6604964"><ele>1364.0</ele><time>2026-05-03T10:39:44.111Z</time></trkpt><trkpt lat="44.1417842" lon="10.6603777"><ele>1364.0</ele><time>2026-05-03T10:39:45.111Z</time></trkpt><trkpt lat="44.1417154" lon="10.6602615"><ele>1364.0</ele><time>2026-05-03T10:39:46.111Z</time></trkpt><trkpt lat="44.1416507" lon="10.660159"><ele>1362.142857142857</ele><time>2026-05-03T10:39:47.111Z</time></trkpt><trkpt lat="44.1416086" lon="10.6600681"><ele>1360.2857142857142</ele><time>2026-05-03T10:39:48.111Z</time></trkpt><trkpt lat="44.1416016" lon="10.6599632"><ele>1358.4285714285716</ele><time>2026-05-03T10:39:49.112Z</time></trkpt><trkpt lat="44.1416161" lon="10.6598752"><ele>1356.5714285714284</ele><time>2026-05-03T10:39:50.112Z</time></trkpt><trkpt lat="44.1416665" lon="10.6597939"><ele>1354.7142857142858</ele><time>2026-05-03T10:39:51.111Z</time></trkpt><trkpt lat="44.1417355" lon="10.6597489"><ele>1352.857142857143</ele><time>2026-05-03T10:39:52.112Z</time></trkpt><trkpt lat="44.1418032" lon="10.6597482"><ele>1351.0</ele><time>2026-05-03T10:39:53.111Z</time></trkpt><trkpt lat="44.141891" lon="10.6597777"><ele>1351.0</ele><time>2026-05-03T10:39:54.112Z</time></trkpt><trkpt lat="44.1419803" lon="10.6598049"><ele>1351.0</ele><time>2026-05-03T10:39:55.112Z</time></trkpt><trkpt lat="44.1420958" lon="10.6597917"><ele>1351.0</ele><time>2026-05-03T10:39:56.112Z</time></trkpt><trkpt lat="44.1422258" lon="10.6597473"><ele>1351.0</ele><time>2026-05-03T10:39:57.111Z</time></trkpt><trkpt lat="44.1423523" lon="10.6596746"><ele>1348.0</ele><time>2026-05-03T10:39:58.111Z</time></trkpt><trkpt lat="44.1424863" lon="10.6595826"><ele>1345.0</ele><time>2026-05-03T10:39:59.111Z</time></trkpt><trkpt lat="44.1426165" lon="10.659472"><ele>1342.0</ele><time>2026-05-03T10:40:00.111Z</time></trkpt><trkpt lat="44.1427356" lon="10.6593467"><ele>1342.0</ele><time>2026-05-03T10:40:01.112Z</time></trkpt><trkpt lat="44.1428443" lon="10.6592051"><ele>1342.0</ele><time>2026-05-03T10:40:02.111Z</time></trkpt><trkpt lat="44.1429513" lon="10.6590691"><ele>1342.0</ele><time>2026-05-03T10:40:03.111Z</time></trkpt><trkpt lat="44.1430617" lon="10.6589566"><ele>1342.0</ele><time>2026-05-03T10:40:04.111Z</time></trkpt><trkpt lat="44.1431834" lon="10.6588786"><ele>1339.25</ele><time>2026-05-03T10:40:05.112Z</time></trkpt><trkpt lat="44.1433045" lon="10.6588043"><ele>1336.5</ele><time>2026-05-03T10:40:06.111Z</time></trkpt><trkpt lat="44.1434238" lon="10.6587465"><ele>1333.75</ele><time>2026-05-03T10:40:07.112Z</time></trkpt><trkpt lat="44.1435049" lon="10.6586462"><ele>1331.0</ele><time>2026-05-03T10:40:08.111Z</time></trkpt><trkpt lat="44.1435828" lon="10.6585307"><ele>1331.0</ele><time>2026-05-03T10:40:09.112Z</time></trkpt><trkpt lat="44.1436459" lon="10.6583898"><ele>1331.0</ele><time>2026-05-03T10:40:10.112Z</time></trkpt><trkpt lat="44.1436836" lon="10.6582197"><ele>1331.0</ele><time>2026-05-03T10:40:11.112Z</time></trkpt><trkpt lat="44.1437308" lon="10.6580356"><ele>1331.0</ele><time>2026-05-03T10:40:12.112Z</time></trkpt><trkpt lat="44.143816" lon="10.6578612"><ele>1331.5</ele><time>2026-05-03T10:40:13.111Z</time></trkpt><trkpt lat="44.1439032" lon="10.6577148"><ele>1332.0</ele><time>2026-05-03T10:40:14.111Z</time></trkpt><trkpt lat="44.1440115" lon="10.6575886"><ele>1332.5</ele><time>2026-05-03T10:40:15.111Z</time></trkpt><trkpt lat="44.1441266" lon="10.6574897"><ele>1333.0</ele><time>2026-05-03T10:40:16.111Z</time></trkpt><trkpt lat="44.1442398" lon="10.6574015"><ele>1329.5</ele><time>2026-05-03T10:40:17.111Z</time></trkpt><trkpt lat="44.1443273" lon="10.6572959"><ele>1326.0</ele><time>2026-05-03T10:40:18.112Z</time></trkpt><trkpt lat="44.1443591" lon="10.6571502"><ele>1322.5</ele><time>2026-05-03T10:40:19.112Z</time></trkpt><trkpt lat="44.1443752" lon="10.6569926"><ele>1319.0</ele><time>2026-05-03T10:40:20.111Z</time></trkpt><trkpt lat="44.1443757" lon="10.6568183"><ele>1319.0</ele><time>2026-05-03T10:40:21.112Z</time></trkpt><trkpt lat="44.1443507" lon="10.6566368"><ele>1319.0</ele><time>2026-05-03T10:40:22.112Z</time></trkpt><trkpt lat="44.1443287" lon="10.6564519"><ele>1319.0</ele><time>2026-05-03T10:40:23.111Z</time></trkpt><trkpt lat="44.1443341" lon="10.6562745"><ele>1319.0</ele><time>2026-05-03T10:40:24.112Z</time></trkpt><trkpt lat="44.1443522" lon="10.6560921"><ele>1321.0</ele><time>2026-05-03T10:40:25.111Z</time></trkpt><trkpt lat="44.1443887" lon="10.6559109"><ele>1323.0</ele><time>2026-05-03T10:40:26.112Z</time></trkpt><trkpt lat="44.1444484" lon="10.6557201"><ele>1325.0</ele><time>2026-05-03T10:40:27.112Z</time></trkpt><trkpt lat="44.1445238" lon="10.6555372"><ele>1327.0</ele><time>2026-05-03T10:40:28.112Z</time></trkpt><trkpt lat="44.1445993" lon="10.6553793"><ele>1325.0</ele><time>2026-05-03T10:40:29.112Z</time></trkpt><trkpt lat="44.1446822" lon="10.6552344"><ele>1323.0</ele><time>2026-05-03T10:40:30.111Z</time></trkpt><trkpt lat="44.1447927" lon="10.6551433"><ele>1321.0</ele><time>2026-05-03T10:40:31.112Z</time></trkpt><trkpt lat="44.1449009" lon="10.6550807"><ele>1319.0</ele><time>2026-05-03T10:40:32.112Z</time></trkpt><trkpt lat="44.145009" lon="10.6550356"><ele>1319.0</ele><time>2026-05-03T10:40:33.111Z</time></trkpt><trkpt lat="44.1451334" lon="10.655028"><ele>1319.0</ele><time>2026-05-03T10:40:34.111Z</time></trkpt><trkpt lat="44.1452612" lon="10.654959"><ele>1319.0</ele><time>2026-05-03T10:40:35.111Z</time></trkpt><trkpt lat="44.1453805" lon="10.6548683"><ele>1319.0</ele><time>2026-05-03T10:40:36.112Z</time></trkpt><trkpt lat="44.1454989" lon="10.6548007"><ele>1319.0</ele><time>2026-05-03T10:40:37.111Z</time></trkpt><trkpt lat="44.1456232" lon="10.6547731"><ele>1319.0</ele><time>2026-05-03T10:40:38.111Z</time></trkpt><trkpt lat="44.1457427" lon="10.654785"><ele>1319.0</ele><time>2026-05-03T10:40:39.111Z</time></trkpt><trkpt lat="44.1458698" lon="10.6547956"><ele>1319.0</ele><time>2026-05-03T10:40:40.112Z</time></trkpt><trkpt lat="44.1460005" lon="10.6547893"><ele>1314.0</ele><time>2026-05-03T10:40:41.111Z</time></trkpt><trkpt lat="44.1461461" lon="10.6547548"><ele>1309.0</ele><time>2026-05-03T10:40:42.112Z</time></trkpt><trkpt lat="44.1462959" lon="10.65468"><ele>1304.0</ele><time>2026-05-03T10:40:43.111Z</time></trkpt><trkpt lat="44.146462" lon="10.6546031"><ele>1305.0</ele><time>2026-05-03T10:40:44.111Z</time></trkpt><trkpt lat="44.1466278" lon="10.6545208"><ele>1306.0</ele><time>2026-05-03T10:40:45.111Z</time></trkpt><trkpt lat="44.1467735" lon="10.6544323"><ele>1307.0</ele><time>2026-05-03T10:40:46.111Z</time></trkpt><trkpt lat="44.1468941" lon="10.6543184"><ele>1307.0</ele><time>2026-05-03T10:40:47.111Z</time></trkpt><trkpt lat="44.1469899" lon="10.6541726"><ele>1307.0</ele><time>2026-05-03T10:40:48.112Z</time></trkpt><trkpt lat="44.1470768" lon="10.6540112"><ele>1307.0</ele><time>2026-05-03T10:40:49.111Z</time></trkpt><trkpt lat="44.147171" lon="10.6538696"><ele>1307.0</ele><time>2026-05-03T10:40:50.111Z</time></trkpt><trkpt lat="44.1472864" lon="10.6537632"><ele>1303.75</ele><time>2026-05-03T10:40:51.112Z</time></trkpt><trkpt lat="44.1474101" lon="10.6537022"><ele>1300.5</ele><time>2026-05-03T10:40:52.111Z</time></trkpt><trkpt lat="44.1475403" lon="10.6536352"><ele>1297.25</ele><time>2026-05-03T10:40:53.112Z</time></trkpt><trkpt lat="44.1476693" lon="10.6535419"><ele>1294.0</ele><time>2026-05-03T10:40:54.111Z</time></trkpt><trkpt lat="44.1477995" lon="10.653418"><ele>1294.0</ele><time>2026-05-03T10:40:55.111Z</time></trkpt><trkpt lat="44.1479268" lon="10.6533027"><ele>1294.0</ele><time>2026-05-03T10:40:56.111Z</time></trkpt><trkpt lat="44.1480615" lon="10.6531822"><ele>1294.0</ele><time>2026-05-03T10:40:57.111Z</time></trkpt><trkpt lat="44.1481923" lon="10.6530571"><ele>1289.25</ele><time>2026-05-03T10:40:58.111Z</time></trkpt><trkpt lat="44.1483253" lon="10.652941"><ele>1284.5</ele><time>2026-05-03T10:40:59.112Z</time></trkpt><trkpt lat="44.1484515" lon="10.65284"><ele>1279.75</ele><time>2026-05-03T10:41:00.112Z</time></trkpt><trkpt lat="44.1485916" lon="10.6528456"><ele>1275.0</ele><time>2026-05-03T10:41:01.112Z</time></trkpt><trkpt lat="44.1487409" lon="10.6528457"><ele>1275.0</ele><time>2026-05-03T10:41:02.111Z</time></trkpt><trkpt lat="44.1488868" lon="10.6528746"><ele>1275.0</ele><time>2026-05-03T10:41:03.112Z</time></trkpt><trkpt lat="44.14904" lon="10.6528988"><ele>1275.0</ele><time>2026-05-03T10:41:04.112Z</time></trkpt><trkpt lat="44.1491859" lon="10.652894"><ele>1275.0</ele><time>2026-05-03T10:41:05.112Z</time></trkpt><trkpt lat="44.1493307" lon="10.6528466"><ele>1281.0</ele><time>2026-05-03T10:41:06.111Z</time></trkpt><trkpt lat="44.1494834" lon="10.6527835"><ele>1287.0</ele><time>2026-05-03T10:41:07.112Z</time></trkpt><trkpt lat="44.1496478" lon="10.6527382"><ele>1293.0</ele><time>2026-05-03T10:41:08.112Z</time></trkpt><trkpt lat="44.1498186" lon="10.6527124"><ele>1289.6666666666667</ele><time>2026-05-03T10:41:09.111Z</time></trkpt><trkpt lat="44.1499954" lon="10.6527182"><ele>1286.3333333333335</ele><time>2026-05-03T10:41:10.111Z</time></trkpt><trkpt lat="44.1501577" lon="10.6526966"><ele>1283.0</ele><time>2026-05-03T10:41:11.112Z</time></trkpt><trkpt lat="44.1502983" lon="10.6527194"><ele>1283.0</ele><time>2026-05-03T10:41:12.111Z</time></trkpt><trkpt lat="44.1504225" lon="10.6527111"><ele>1283.0</ele><time>2026-05-03T10:41:13.111Z</time></trkpt><trkpt lat="44.1505204" lon="10.6526286"><ele>1283.0</ele><time>2026-05-03T10:41:14.111Z</time></trkpt><trkpt lat="44.1506203" lon="10.6525494"><ele>1283.0</ele><time>2026-05-03T10:41:15.111Z</time></trkpt><trkpt lat="44.1506675" lon="10.652405"><ele>1277.0</ele><time>2026-05-03T10:41:16.111Z</time></trkpt><trkpt lat="44.1507339" lon="10.6522837"><ele>1271.0</ele><time>2026-05-03T10:41:17.112Z</time></trkpt><trkpt lat="44.1507932" lon="10.6521665"><ele>1265.0</ele><time>2026-05-03T10:41:18.111Z</time></trkpt><trkpt lat="44.1508778" lon="10.6520705"><ele>1259.0</ele><time>2026-05-03T10:41:19.112Z</time></trkpt><trkpt lat="44.1509784" lon="10.6520178"><ele>1253.0</ele><time>2026-05-03T10:41:20.112Z</time></trkpt><trkpt lat="44.1511109" lon="10.6519658"><ele>1261.0</ele><time>2026-05-03T10:41:21.112Z</time></trkpt><trkpt lat="44.1512529" lon="10.6519113"><ele>1269.0</ele><time>2026-05-03T10:41:22.112Z</time></trkpt><trkpt lat="44.1514046" lon="10.6518408"><ele>1277.0</ele><time>2026-05-03T10:41:23.111Z</time></trkpt><trkpt lat="44.1515363" lon="10.6517617"><ele>1273.0</ele><time>2026-05-03T10:41:24.111Z</time></trkpt><trkpt lat="44.1516594" lon="10.6516807"><ele>1269.0</ele><time>2026-05-03T10:41:25.111Z</time></trkpt><trkpt lat="44.1517669" lon="10.6515902"><ele>1265.0</ele><time>2026-05-03T10:41:26.112Z</time></trkpt><trkpt lat="44.1518887" lon="10.6514987"><ele>1261.0</ele><time>2026-05-03T10:41:27.111Z</time></trkpt><trkpt lat="44.1520119" lon="10.6514365"><ele>1261.0</ele><time>2026-05-03T10:41:28.111Z</time></trkpt><trkpt lat="44.1521435" lon="10.6513865"><ele>1261.0</ele><time>2026-05-03T10:41:29.112Z</time></trkpt><trkpt lat="44.1522869" lon="10.6514457"><ele>1261.0</ele><time>2026-05-03T10:41:30.112Z</time></trkpt><trkpt lat="44.1524181" lon="10.651483"><ele>1261.0</ele><time>2026-05-03T10:41:31.112Z</time></trkpt><trkpt lat="44.1525488" lon="10.6515014"><ele>1256.5</ele><time>2026-05-03T10:41:32.112Z</time></trkpt><trkpt lat="44.1526759" lon="10.651491"><ele>1252.0</ele><time>2026-05-03T10:41:33.111Z</time></trkpt><trkpt lat="44.1528009" lon="10.6514"><ele>1247.5</ele><time>2026-05-03T10:41:34.112Z</time></trkpt><trkpt lat="44.1529243" lon="10.6513292"><ele>1243.0</ele><time>2026-05-03T10:41:35.112Z</time></trkpt><trkpt lat="44.153053" lon="10.6512663"><ele>1243.0</ele><time>2026-05-03T10:41:36.111Z</time></trkpt><trkpt lat="44.1532001" lon="10.6512277"><ele>1243.0</ele><time>2026-05-03T10:41:37.112Z</time></trkpt><trkpt lat="44.1533445" lon="10.6512096"><ele>1243.0</ele><time>2026-05-03T10:41:38.112Z</time></trkpt><trkpt lat="44.15348" lon="10.6511985"><ele>1243.0</ele><time>2026-05-03T10:41:39.112Z</time></trkpt><trkpt lat="44.1536064" lon="10.6511753"><ele>1242.0</ele><time>2026-05-03T10:41:40.112Z</time></trkpt><trkpt lat="44.1537363" lon="10.6511208"><ele>1241.0</ele><time>2026-05-03T10:41:41.111Z</time></trkpt><trkpt lat="44.1538622" lon="10.6510408"><ele>1240.0</ele><time>2026-05-03T10:41:42.112Z</time></trkpt><trkpt lat="44.1539813" lon="10.650955"><ele>1239.0</ele><time>2026-05-03T10:41:43.111Z</time></trkpt><trkpt lat="44.1540934" lon="10.650871"><ele>1236.25</ele><time>2026-05-03T10:41:44.111Z</time></trkpt><trkpt lat="44.1542014" lon="10.6507792"><ele>1233.5</ele><time>2026-05-03T10:41:45.111Z</time></trkpt><trkpt lat="44.1543121" lon="10.6506923"><ele>1230.75</ele><time>2026-05-03T10:41:46.112Z</time></trkpt><trkpt lat="44.1544202" lon="10.6506092"><ele>1228.0</ele><time>2026-05-03T10:41:47.112Z</time></trkpt><trkpt lat="44.1545201" lon="10.6505308"><ele>1228.0</ele><time>2026-05-03T10:41:48.111Z</time></trkpt><trkpt lat="44.1546235" lon="10.6504639"><ele>1228.0</ele><time>2026-05-03T10:41:49.112Z</time></trkpt><trkpt lat="44.1547339" lon="10.6504052"><ele>1228.0</ele><time>2026-05-03T10:41:50.111Z</time></trkpt><trkpt lat="44.1548602" lon="10.6503621"><ele>1228.0</ele><time>2026-05-03T10:41:51.112Z</time></trkpt><trkpt lat="44.1549851" lon="10.6503168"><ele>1227.0</ele><time>2026-05-03T10:41:52.112Z</time></trkpt><trkpt lat="44.1551157" lon="10.6502729"><ele>1226.0</ele><time>2026-05-03T10:41:53.111Z</time></trkpt><trkpt lat="44.1552489" lon="10.6502272"><ele>1225.0</ele><time>2026-05-03T10:41:54.111Z</time></trkpt><trkpt lat="44.1553836" lon="10.6501854"><ele>1224.0</ele><time>2026-05-03T10:41:55.111Z</time></trkpt><trkpt lat="44.1555238" lon="10.6501352"><ele>1224.0</ele><time>2026-05-03T10:41:56.112Z</time></trkpt><trkpt lat="44.155659" lon="10.6500855"><ele>1224.0</ele><time>2026-05-03T10:41:57.111Z</time></trkpt><trkpt lat="44.1558013" lon="10.6500238"><ele>1224.0</ele><time>2026-05-03T10:41:58.112Z</time></trkpt><trkpt lat="44.1559404" lon="10.6499597"><ele>1224.0</ele><time>2026-05-03T10:41:59.112Z</time></trkpt><trkpt lat="44.1560793" lon="10.6499048"><ele>1222.4</ele><time>2026-05-03T10:42:00.112Z</time></trkpt><trkpt lat="44.156203" lon="10.6498445"><ele>1220.8000000000002</ele><time>2026-05-03T10:42:01.111Z</time></trkpt><trkpt lat="44.1562993" lon="10.6497576"><ele>1219.1999999999998</ele><time>2026-05-03T10:42:02.112Z</time></trkpt><trkpt lat="44.1563587" lon="10.6496552"><ele>1217.6</ele><time>2026-05-03T10:42:03.112Z</time></trkpt><trkpt lat="44.1563798" lon="10.6495497"><ele>1216.0</ele><time>2026-05-03T10:42:04.111Z</time></trkpt><trkpt lat="44.1563508" lon="10.6494608"><ele>1215.6</ele><time>2026-05-03T10:42:05.112Z</time></trkpt><trkpt lat="44.156293" lon="10.6493675"><ele>1215.1999999999998</ele><time>2026-05-03T10:42:06.111Z</time></trkpt><trkpt lat="44.1562117" lon="10.6492708"><ele>1214.8000000000002</ele><time>2026-05-03T10:42:07.112Z</time></trkpt><trkpt lat="44.1561185" lon="10.6491665"><ele>1214.4</ele><time>2026-05-03T10:42:08.111Z</time></trkpt><trkpt lat="44.1560298" lon="10.6490601"><ele>1214.0</ele><time>2026-05-03T10:42:09.112Z</time></trkpt><trkpt lat="44.1559417" lon="10.6489529"><ele>1214.0</ele><time>2026-05-03T10:42:10.112Z</time></trkpt><trkpt lat="44.1558513" lon="10.6488398"><ele>1214.0</ele><time>2026-05-03T10:42:11.111Z</time></trkpt><trkpt lat="44.1557825" lon="10.6487167"><ele>1214.0</ele><time>2026-05-03T10:42:12.112Z</time></trkpt><trkpt lat="44.1557336" lon="10.6485715"><ele>1214.0</ele><time>2026-05-03T10:42:13.112Z</time></trkpt><trkpt lat="44.1556901" lon="10.6484175"><ele>1212.75</ele><time>2026-05-03T10:42:14.112Z</time></trkpt><trkpt lat="44.1557179" lon="10.6482531"><ele>1211.5</ele><time>2026-05-03T10:42:15.111Z</time></trkpt><trkpt lat="44.1557612" lon="10.648116"><ele>1210.25</ele><time>2026-05-03T10:42:16.112Z</time></trkpt><trkpt lat="44.1558449" lon="10.6480115"><ele>1209.0</ele><time>2026-05-03T10:42:17.111Z</time></trkpt><trkpt lat="44.1559495" lon="10.6479424"><ele>1209.0</ele><time>2026-05-03T10:42:18.112Z</time></trkpt><trkpt lat="44.1560614" lon="10.6478642"><ele>1209.0</ele><time>2026-05-03T10:42:19.111Z</time></trkpt><trkpt lat="44.1561772" lon="10.6477526"><ele>1209.0</ele><time>2026-05-03T10:42:20.112Z</time></trkpt><trkpt lat="44.1563017" lon="10.6476284"><ele>1209.0</ele><time>2026-05-03T10:42:21.111Z</time></trkpt><trkpt lat="44.1564309" lon="10.6475111"><ele>1206.0</ele><time>2026-05-03T10:42:22.112Z</time></trkpt><trkpt lat="44.156577" lon="10.6474112"><ele>1203.0</ele><time>2026-05-03T10:42:23.111Z</time></trkpt><trkpt lat="44.1567178" lon="10.6473232"><ele>1200.0</ele><time>2026-05-03T10:42:24.111Z</time></trkpt><trkpt lat="44.1568599" lon="10.6472519"><ele>1200.0</ele><time>2026-05-03T10:42:25.112Z</time></trkpt><trkpt lat="44.1569891" lon="10.6471771"><ele>1200.0</ele><time>2026-05-03T10:42:26.112Z</time></trkpt><trkpt lat="44.1571216" lon="10.6471125"><ele>1200.0</ele><time>2026-05-03T10:42:27.112Z</time></trkpt><trkpt lat="44.1572483" lon="10.6470456"><ele>1200.0</ele><time>2026-05-03T10:42:28.112Z</time></trkpt><trkpt lat="44.1573917" lon="10.6469753"><ele>1198.75</ele><time>2026-05-03T10:42:29.112Z</time></trkpt><trkpt lat="44.1575362" lon="10.6469033"><ele>1197.5</ele><time>2026-05-03T10:42:30.112Z</time></trkpt><trkpt lat="44.1576725" lon="10.6468395"><ele>1196.25</ele><time>2026-05-03T10:42:31.112Z</time></trkpt><trkpt lat="44.1578163" lon="10.6467787"><ele>1195.0</ele><time>2026-05-03T10:42:32.111Z</time></trkpt><trkpt lat="44.1579464" lon="10.6467394"><ele>1195.0</ele><time>2026-05-03T10:42:33.112Z</time></trkpt><trkpt lat="44.1580685" lon="10.6466929"><ele>1195.0</ele><time>2026-05-03T10:42:34.112Z</time></trkpt><trkpt lat="44.1581987" lon="10.6466213"><ele>1195.0</ele><time>2026-05-03T10:42:35.112Z</time></trkpt><trkpt lat="44.1583131" lon="10.6464939"><ele>1195.0</ele><time>2026-05-03T10:42:36.112Z</time></trkpt><trkpt lat="44.1584292" lon="10.6463616"><ele>1193.0</ele><time>2026-05-03T10:42:37.112Z</time></trkpt><trkpt lat="44.1585251" lon="10.6462192"><ele>1191.0</ele><time>2026-05-03T10:42:38.112Z</time></trkpt><trkpt lat="44.1586198" lon="10.6460775"><ele>1189.0</ele><time>2026-05-03T10:42:39.111Z</time></trkpt><trkpt lat="44.1586959" lon="10.6459253"><ele>1187.0</ele><time>2026-05-03T10:42:40.111Z</time></trkpt><trkpt lat="44.1587664" lon="10.6457677"><ele>1187.0</ele><time>2026-05-03T10:42:41.111Z</time></trkpt><trkpt lat="44.1588302" lon="10.6456141"><ele>1187.0</ele><time>2026-05-03T10:42:42.111Z</time></trkpt><trkpt lat="44.1588843" lon="10.6454618"><ele>1187.0</ele><time>2026-05-03T10:42:43.111Z</time></trkpt><trkpt lat="44.1589605" lon="10.6453259"><ele>1187.0</ele><time>2026-05-03T10:42:44.112Z</time></trkpt><trkpt lat="44.1590432" lon="10.6452026"><ele>1186.0</ele><time>2026-05-03T10:42:45.111Z</time></trkpt><trkpt lat="44.1591446" lon="10.6451026"><ele>1185.0</ele><time>2026-05-03T10:42:46.112Z</time></trkpt><trkpt lat="44.1592525" lon="10.6450218"><ele>1184.0</ele><time>2026-05-03T10:42:47.112Z</time></trkpt><trkpt lat="44.1593651" lon="10.6449521"><ele>1183.0</ele><time>2026-05-03T10:42:48.112Z</time></trkpt><trkpt lat="44.159508" lon="10.6448895"><ele>1183.0</ele><time>2026-05-03T10:42:49.112Z</time></trkpt><trkpt lat="44.1596436" lon="10.6448201"><ele>1183.0</ele><time>2026-05-03T10:42:50.111Z</time></trkpt><trkpt lat="44.1597767" lon="10.6447506"><ele>1183.0</ele><time>2026-05-03T10:42:51.111Z</time></trkpt><trkpt lat="44.1599002" lon="10.6446935"><ele>1183.0</ele><time>2026-05-03T10:42:52.111Z</time></trkpt><trkpt lat="44.1600297" lon="10.6446553"><ele>1178.5</ele><time>2026-05-03T10:42:53.111Z</time></trkpt><trkpt lat="44.1601599" lon="10.6446319"><ele>1174.0</ele><time>2026-05-03T10:42:54.112Z</time></trkpt><trkpt lat="44.1602952" lon="10.6446319"><ele>1169.5</ele><time>2026-05-03T10:42:55.112Z</time></trkpt><trkpt lat="44.1604387" lon="10.6446585"><ele>1165.0</ele><time>2026-05-03T10:42:56.111Z</time></trkpt><trkpt lat="44.1605838" lon="10.6447108"><ele>1163.0</ele><time>2026-05-03T10:42:57.112Z</time></trkpt><trkpt lat="44.1607418" lon="10.6447589"><ele>1161.0</ele><time>2026-05-03T10:42:58.111Z</time></trkpt><trkpt lat="44.1608985" lon="10.6447932"><ele>1159.0</ele><time>2026-05-03T10:42:59.111Z</time></trkpt><trkpt lat="44.1610529" lon="10.6448076"><ele>1159.0</ele><time>2026-05-03T10:43:00.111Z</time></trkpt><trkpt lat="44.161215" lon="10.6447958"><ele>1159.0</ele><time>2026-05-03T10:43:01.112Z</time></trkpt><trkpt lat="44.1613783" lon="10.6447756"><ele>1159.0</ele><time>2026-05-03T10:43:02.112Z</time></trkpt><trkpt lat="44.1615343" lon="10.6447398"><ele>1157.0</ele><time>2026-05-03T10:43:03.111Z</time></trkpt><trkpt lat="44.1616802" lon="10.6447063"><ele>1155.0</ele><time>2026-05-03T10:43:04.112Z</time></trkpt><trkpt lat="44.1618154" lon="10.6446449"><ele>1153.0</ele><time>2026-05-03T10:43:05.112Z</time></trkpt><trkpt lat="44.1619536" lon="10.6445484"><ele>1151.0</ele><time>2026-05-03T10:43:06.111Z</time></trkpt><trkpt lat="44.1620871" lon="10.6444182"><ele>1150.6666666666667</ele><time>2026-05-03T10:43:07.111Z</time></trkpt><trkpt lat="44.1622196" lon="10.6442855"><ele>1150.3333333333333</ele><time>2026-05-03T10:43:08.111Z</time></trkpt><trkpt lat="44.1623438" lon="10.6441528"><ele>1150.0</ele><time>2026-05-03T10:43:09.112Z</time></trkpt><trkpt lat="44.1624653" lon="10.6440143"><ele>1150.0</ele><time>2026-05-03T10:43:10.111Z</time></trkpt><trkpt lat="44.162586" lon="10.6438781"><ele>1150.0</ele><time>2026-05-03T10:43:11.111Z</time></trkpt><trkpt lat="44.1627005" lon="10.6437472"><ele>1150.0</ele><time>2026-05-03T10:43:12.112Z</time></trkpt><trkpt lat="44.1628054" lon="10.6436337"><ele>1150.0</ele><time>2026-05-03T10:43:13.111Z</time></trkpt><trkpt lat="44.162907" lon="10.6435303"><ele>1148.5</ele><time>2026-05-03T10:43:14.112Z</time></trkpt><trkpt lat="44.1630145" lon="10.6434481"><ele>1147.0</ele><time>2026-05-03T10:43:15.111Z</time></trkpt><trkpt lat="44.1631242" lon="10.6433743"><ele>1145.5</ele><time>2026-05-03T10:43:16.112Z</time></trkpt><trkpt lat="44.1632344" lon="10.6433199"><ele>1144.0</ele><time>2026-05-03T10:43:17.111Z</time></trkpt><trkpt lat="44.1633325" lon="10.6432684"><ele>1144.0</ele><time>2026-05-03T10:43:18.112Z</time></trkpt><trkpt lat="44.1634278" lon="10.6432172"><ele>1144.0</ele><time>2026-05-03T10:43:19.112Z</time></trkpt><trkpt lat="44.1635154" lon="10.6431454"><ele>1144.0</ele><time>2026-05-03T10:43:20.112Z</time></trkpt><trkpt lat="44.1636125" lon="10.6430981"><ele>1144.0</ele><time>2026-05-03T10:43:21.112Z</time></trkpt><trkpt lat="44.1637272" lon="10.6430648"><ele>1144.0</ele><time>2026-05-03T10:43:22.112Z</time></trkpt><trkpt lat="44.1638197" lon="10.6430235"><ele>1144.0</ele><time>2026-05-03T10:43:23.111Z</time></trkpt><trkpt lat="44.1639076" lon="10.6429614"><ele>1144.0</ele><time>2026-05-03T10:43:24.111Z</time></trkpt><trkpt lat="44.1639832" lon="10.6428606"><ele>1144.0</ele><time>2026-05-03T10:43:25.112Z</time></trkpt><trkpt lat="44.1640412" lon="10.6427465"><ele>1144.0</ele><time>2026-05-03T10:43:26.111Z</time></trkpt><trkpt lat="44.1640725" lon="10.6425997"><ele>1144.0</ele><time>2026-05-03T10:43:27.112Z</time></trkpt><trkpt lat="44.1640911" lon="10.6424419"><ele>1144.0</ele><time>2026-05-03T10:43:28.112Z</time></trkpt><trkpt lat="44.1640844" lon="10.6422855"><ele>1144.0</ele><time>2026-05-03T10:43:29.111Z</time></trkpt><trkpt lat="44.1640524" lon="10.642138"><ele>1144.0</ele><time>2026-05-03T10:43:30.112Z</time></trkpt><trkpt lat="44.1640123" lon="10.6420073"><ele>1144.0</ele><time>2026-05-03T10:43:31.112Z</time></trkpt><trkpt lat="44.1639508" lon="10.6418977"><ele>1144.0</ele><time>2026-05-03T10:43:32.111Z</time></trkpt><trkpt lat="44.1638947" lon="10.641793"><ele>1144.0</ele><time>2026-05-03T10:43:33.112Z</time></trkpt><trkpt lat="44.1638926" lon="10.641668"><ele>1144.0</ele><time>2026-05-03T10:43:34.112Z</time></trkpt><trkpt lat="44.1639023" lon="10.6415405"><ele>1144.0</ele><time>2026-05-03T10:43:35.112Z</time></trkpt><trkpt lat="44.1639319" lon="10.6413986"><ele>1144.0</ele><time>2026-05-03T10:43:36.112Z</time></trkpt><trkpt lat="44.1639582" lon="10.6412459"><ele>1144.0</ele><time>2026-05-03T10:43:37.111Z</time></trkpt><trkpt lat="44.1639605" lon="10.6410751"><ele>1141.8</ele><time>2026-05-03T10:43:38.111Z</time></trkpt><trkpt lat="44.1639496" lon="10.6409196"><ele>1139.6000000000001</ele><time>2026-05-03T10:43:39.112Z</time></trkpt><trkpt lat="44.1639106" lon="10.6407738"><ele>1137.4</ele><time>2026-05-03T10:43:40.112Z</time></trkpt><trkpt lat="44.1638616" lon="10.6406416"><ele>1135.2</ele><time>2026-05-03T10:43:41.111Z</time></trkpt><trkpt lat="44.1637936" lon="10.6405336"><ele>1133.0</ele><time>2026-05-03T10:43:42.111Z</time></trkpt><trkpt lat="44.1637311" lon="10.6404552"><ele>1133.0</ele><time>2026-05-03T10:43:43.112Z</time></trkpt><trkpt lat="44.1636393" lon="10.6404234"><ele>1133.0</ele><time>2026-05-03T10:43:45.111Z</time></trkpt><trkpt lat="44.1635589" lon="10.6404087"><ele>1133.0</ele><time>2026-05-03T10:43:48.111Z</time></trkpt><trkpt lat="44.1634909" lon="10.6403606"><ele>1133.0</ele><time>2026-05-03T10:43:51.111Z</time></trkpt><trkpt lat="44.163429" lon="10.6403216"><ele>1133.0</ele><time>2026-05-03T10:43:53.111Z</time></trkpt><trkpt lat="44.1634229" lon="10.6402119"><ele>1133.0</ele><time>2026-05-03T10:43:55.112Z</time></trkpt><trkpt lat="44.1635289" lon="10.6401579"><ele>1133.0</ele><time>2026-05-03T10:43:57.111Z</time></trkpt><trkpt lat="44.1636042" lon="10.6402092"><ele>1133.0</ele><time>2026-05-03T10:43:58.111Z</time></trkpt><trkpt lat="44.1637007" lon="10.6402763"><ele>1133.0</ele><time>2026-05-03T10:43:59.111Z</time></trkpt><trkpt lat="44.1638226" lon="10.6403638"><ele>1133.0</ele><time>2026-05-03T10:44:00.111Z</time></trkpt><trkpt lat="44.1639354" lon="10.640462"><ele>1133.0</ele><time>2026-05-03T10:44:01.111Z</time></trkpt><trkpt lat="44.1640198" lon="10.6405854"><ele>1133.0</ele><time>2026-05-03T10:44:02.111Z</time></trkpt><trkpt lat="44.164094" lon="10.6407362"><ele>1133.0</ele><time>2026-05-03T10:44:03.112Z</time></trkpt><trkpt lat="44.1641704" lon="10.6409019"><ele>1133.0</ele><time>2026-05-03T10:44:04.111Z</time></trkpt><trkpt lat="44.1642472" lon="10.6410771"><ele>1129.25</ele><time>2026-05-03T10:44:05.112Z</time></trkpt><trkpt lat="44.1643021" lon="10.641247"><ele>1125.5</ele><time>2026-05-03T10:44:06.112Z</time></trkpt><trkpt lat="44.1643591" lon="10.641413"><ele>1121.75</ele><time>2026-05-03T10:44:07.111Z</time></trkpt><trkpt lat="44.1644179" lon="10.6415643"><ele>1118.0</ele><time>2026-05-03T10:44:08.111Z</time></trkpt><trkpt lat="44.1644785" lon="10.6417057"><ele>1118.0</ele><time>2026-05-03T10:44:09.111Z</time></trkpt><trkpt lat="44.1645327" lon="10.6418443"><ele>1118.0</ele><time>2026-05-03T10:44:10.111Z</time></trkpt><trkpt lat="44.1645949" lon="10.6419779"><ele>1118.0</ele><time>2026-05-03T10:44:11.111Z</time></trkpt><trkpt lat="44.1646603" lon="10.6420982"><ele>1118.0</ele><time>2026-05-03T10:44:12.112Z</time></trkpt><trkpt lat="44.1647147" lon="10.642209"><ele>1118.0</ele><time>2026-05-03T10:44:13.111Z</time></trkpt><trkpt lat="44.1647707" lon="10.6423221"><ele>1119.6666666666667</ele><time>2026-05-03T10:44:14.111Z</time></trkpt><trkpt lat="44.1648251" lon="10.6424311"><ele>1121.3333333333335</ele><time>2026-05-03T10:44:15.112Z</time></trkpt><trkpt lat="44.164879" lon="10.6425253"><ele>1123.0</ele><time>2026-05-03T10:44:16.112Z</time></trkpt><trkpt lat="44.1649308" lon="10.6426145"><ele>1124.6666666666667</ele><time>2026-05-03T10:44:17.111Z</time></trkpt><trkpt lat="44.1649899" lon="10.6427037"><ele>1126.3333333333333</ele><time>2026-05-03T10:44:18.111Z</time></trkpt><trkpt lat="44.1650513" lon="10.6427974"><ele>1128.0</ele><time>2026-05-03T10:44:19.112Z</time></trkpt><trkpt lat="44.1651051" lon="10.6428765"><ele>1121.4</ele><time>2026-05-03T10:44:20.112Z</time></trkpt><trkpt lat="44.1651561" lon="10.6429388"><ele>1114.8</ele><time>2026-05-03T10:44:21.112Z</time></trkpt><trkpt lat="44.1652379" lon="10.6430466"><ele>1108.2</ele><time>2026-05-03T10:44:23.111Z</time></trkpt><trkpt lat="44.1653463" lon="10.6430377"><ele>1101.6</ele><time>2026-05-03T10:44:25.112Z</time></trkpt><trkpt lat="44.1653863" lon="10.6428772"><ele>1095.0</ele><time>2026-05-03T10:44:27.111Z</time></trkpt><trkpt lat="44.1653907" lon="10.642775"><ele>1095.0</ele><time>2026-05-03T10:44:28.112Z</time></trkpt><trkpt lat="44.1653861" lon="10.6426448"><ele>1095.0</ele><time>2026-05-03T10:44:29.112Z</time></trkpt><trkpt lat="44.1653779" lon="10.6425127"><ele>1095.0</ele><time>2026-05-03T10:44:30.111Z</time></trkpt><trkpt lat="44.1653571" lon="10.642361"><ele>1095.0</ele><time>2026-05-03T10:44:31.111Z</time></trkpt><trkpt lat="44.1653156" lon="10.6422123"><ele>1095.0</ele><time>2026-05-03T10:44:32.112Z</time></trkpt><trkpt lat="44.1652616" lon="10.6420654"><ele>1093.75</ele><time>2026-05-03T10:44:33.111Z</time></trkpt><trkpt lat="44.1652047" lon="10.6419214"><ele>1092.5</ele><time>2026-05-03T10:44:34.111Z</time></trkpt><trkpt lat="44.1651516" lon="10.6417584"><ele>1091.25</ele><time>2026-05-03T10:44:35.111Z</time></trkpt><trkpt lat="44.1651045" lon="10.6416069"><ele>1090.0</ele><time>2026-05-03T10:44:36.111Z</time></trkpt><trkpt lat="44.1650758" lon="10.6414543"><ele>1090.0</ele><time>2026-05-03T10:44:37.111Z</time></trkpt><trkpt lat="44.1650471" lon="10.6412893"><ele>1090.0</ele><time>2026-05-03T10:44:38.111Z</time></trkpt><trkpt lat="44.165043" lon="10.6411287"><ele>1090.0</ele><time>2026-05-03T10:44:39.112Z</time></trkpt><trkpt lat="44.1650192" lon="10.640966"><ele>1090.0</ele><time>2026-05-03T10:44:40.111Z</time></trkpt><trkpt lat="44.1650043" lon="10.6407777"><ele>1088.25</ele><time>2026-05-03T10:44:41.111Z</time></trkpt><trkpt lat="44.1649901" lon="10.6405885"><ele>1086.5</ele><time>2026-05-03T10:44:42.112Z</time></trkpt><trkpt lat="44.1649766" lon="10.6403928"><ele>1084.75</ele><time>2026-05-03T10:44:43.111Z</time></trkpt><trkpt lat="44.1649722" lon="10.6401894"><ele>1083.0</ele><time>2026-05-03T10:44:44.111Z</time></trkpt><trkpt lat="44.1649766" lon="10.6399922"><ele>1080.5</ele><time>2026-05-03T10:44:45.112Z</time></trkpt><trkpt lat="44.1649817" lon="10.639805"><ele>1078.0</ele><time>2026-05-03T10:44:46.111Z</time></trkpt><trkpt lat="44.1649814" lon="10.6396225"><ele>1075.5</ele><time>2026-05-03T10:44:47.112Z</time></trkpt><trkpt lat="44.1649851" lon="10.6394505"><ele>1073.0</ele><time>2026-05-03T10:44:48.111Z</time></trkpt><trkpt lat="44.1649937" lon="10.6392936"><ele>1073.0</ele><time>2026-05-03T10:44:49.111Z</time></trkpt><trkpt lat="44.1650191" lon="10.6391555"><ele>1073.0</ele><time>2026-05-03T10:44:50.111Z</time></trkpt><trkpt lat="44.1650649" lon="10.6390356"><ele>1073.0</ele><time>2026-05-03T10:44:51.111Z</time></trkpt><trkpt lat="44.1651253" lon="10.6389398"><ele>1073.0</ele><time>2026-05-03T10:44:52.112Z</time></trkpt><trkpt lat="44.1652097" lon="10.6388988"><ele>1073.0</ele><time>2026-05-03T10:44:53.111Z</time></trkpt><trkpt lat="44.1653058" lon="10.6388813"><ele>1073.0</ele><time>2026-05-03T10:44:54.111Z</time></trkpt><trkpt lat="44.1654283" lon="10.6388945"><ele>1073.0</ele><time>2026-05-03T10:44:55.112Z</time></trkpt><trkpt lat="44.1655585" lon="10.638942"><ele>1073.0</ele><time>2026-05-03T10:44:56.111Z</time></trkpt><trkpt lat="44.1656732" lon="10.6390312"><ele>1073.0</ele><time>2026-05-03T10:44:57.111Z</time></trkpt><trkpt lat="44.1657874" lon="10.6391413"><ele>1074.6666666666667</ele><time>2026-05-03T10:44:58.112Z</time></trkpt><trkpt lat="44.1658899" lon="10.6392873"><ele>1076.3333333333333</ele><time>2026-05-03T10:44:59.111Z</time></trkpt><trkpt lat="44.1659955" lon="10.6394589"><ele>1078.0</ele><time>2026-05-03T10:45:00.112Z</time></trkpt><trkpt lat="44.1661078" lon="10.6396294"><ele>1073.0</ele><time>2026-05-03T10:45:01.111Z</time></trkpt><trkpt lat="44.1662131" lon="10.6397945"><ele>1068.0</ele><time>2026-05-03T10:45:02.112Z</time></trkpt><trkpt lat="44.1663177" lon="10.639969"><ele>1063.0</ele><time>2026-05-03T10:45:03.112Z</time></trkpt><trkpt lat="44.166382" lon="10.6401299"><ele>1063.0</ele><time>2026-05-03T10:45:04.111Z</time></trkpt><trkpt lat="44.1664674" lon="10.6402697"><ele>1063.0</ele><time>2026-05-03T10:45:05.112Z</time></trkpt><trkpt lat="44.166538" lon="10.6404022"><ele>1063.0</ele><time>2026-05-03T10:45:06.111Z</time></trkpt><trkpt lat="44.1666187" lon="10.6405181"><ele>1063.0</ele><time>2026-05-03T10:45:07.112Z</time></trkpt><trkpt lat="44.1666881" lon="10.6406379"><ele>1062.0</ele><time>2026-05-03T10:45:08.112Z</time></trkpt><trkpt lat="44.1667579" lon="10.6407548"><ele>1061.0</ele><time>2026-05-03T10:45:09.112Z</time></trkpt><trkpt lat="44.16683" lon="10.6408702"><ele>1060.0</ele><time>2026-05-03T10:45:10.111Z</time></trkpt><trkpt lat="44.1668956" lon="10.6409918"><ele>1059.0</ele><time>2026-05-03T10:45:11.111Z</time></trkpt><trkpt lat="44.1669903" lon="10.6410982"><ele>1056.0</ele><time>2026-05-03T10:45:12.111Z</time></trkpt><trkpt lat="44.167098" lon="10.641178"><ele>1053.0</ele><time>2026-05-03T10:45:13.112Z</time></trkpt><trkpt lat="44.1672072" lon="10.6412322"><ele>1050.0</ele><time>2026-05-03T10:45:14.112Z</time></trkpt><trkpt lat="44.1673122" lon="10.6412683"><ele>1047.0</ele><time>2026-05-03T10:45:15.112Z</time></trkpt><trkpt lat="44.1674214" lon="10.6412701"><ele>1046.8</ele><time>2026-05-03T10:45:16.111Z</time></trkpt><trkpt lat="44.1675268" lon="10.641259"><ele>1046.6</ele><time>2026-05-03T10:45:17.111Z</time></trkpt><trkpt lat="44.1676344" lon="10.6412343"><ele>1046.3999999999999</ele><time>2026-05-03T10:45:18.112Z</time></trkpt><trkpt lat="44.1677478" lon="10.6412112"><ele>1046.2</ele><time>2026-05-03T10:45:19.111Z</time></trkpt><trkpt lat="44.1678581" lon="10.6411875"><ele>1046.0</ele><time>2026-05-03T10:45:20.111Z</time></trkpt><trkpt lat="44.1679686" lon="10.6411604"><ele>1050.25</ele><time>2026-05-03T10:45:21.112Z</time></trkpt><trkpt lat="44.1680853" lon="10.6411266"><ele>1054.5</ele><time>2026-05-03T10:45:22.111Z</time></trkpt><trkpt lat="44.1682075" lon="10.6410864"><ele>1058.75</ele><time>2026-05-03T10:45:23.112Z</time></trkpt><trkpt lat="44.1683279" lon="10.6410617"><ele>1063.0</ele><time>2026-05-03T10:45:24.112Z</time></trkpt><trkpt lat="44.1684487" lon="10.6410497"><ele>1063.0</ele><time>2026-05-03T10:45:25.111Z</time></trkpt><trkpt lat="44.1685722" lon="10.6410703"><ele>1063.0</ele><time>2026-05-03T10:45:26.112Z</time></trkpt><trkpt lat="44.168691" lon="10.6411055"><ele>1063.0</ele><time>2026-05-03T10:45:27.112Z</time></trkpt><trkpt lat="44.1688061" lon="10.6411143"><ele>1063.0</ele><time>2026-05-03T10:45:28.111Z</time></trkpt><trkpt lat="44.1689325" lon="10.6410929"><ele>1062.0</ele><time>2026-05-03T10:45:29.112Z</time></trkpt><trkpt lat="44.1690544" lon="10.6410338"><ele>1061.0</ele><time>2026-05-03T10:45:30.112Z</time></trkpt><trkpt lat="44.1691854" lon="10.6409595"><ele>1060.0</ele><time>2026-05-03T10:45:31.112Z</time></trkpt><trkpt lat="44.1693274" lon="10.6408985"><ele>1059.0</ele><time>2026-05-03T10:45:32.112Z</time></trkpt><trkpt lat="44.1694771" lon="10.6408714"><ele>1059.0</ele><time>2026-05-03T10:45:33.112Z</time></trkpt><trkpt lat="44.1696358" lon="10.6408765"><ele>1059.0</ele><time>2026-05-03T10:45:34.111Z</time></trkpt><trkpt lat="44.1697921" lon="10.640879"><ele>1059.0</ele><time>2026-05-03T10:45:35.112Z</time></trkpt><trkpt lat="44.1699329" lon="10.6408897"><ele>1058.8</ele><time>2026-05-03T10:45:36.112Z</time></trkpt><trkpt lat="44.1700649" lon="10.6408893"><ele>1058.6000000000001</ele><time>2026-05-03T10:45:37.112Z</time></trkpt><trkpt lat="44.1701912" lon="10.6408776"><ele>1058.4</ele><time>2026-05-03T10:45:38.112Z</time></trkpt><trkpt lat="44.1702774" lon="10.6408497"><ele>1058.2</ele><time>2026-05-03T10:45:39.112Z</time></trkpt><trkpt lat="44.1703724" lon="10.6408142"><ele>1058.0</ele><time>2026-05-03T10:45:40.111Z</time></trkpt><trkpt lat="44.1704224" lon="10.6406859"><ele>1058.0</ele><time>2026-05-03T10:45:41.111Z</time></trkpt><trkpt lat="44.1704614" lon="10.6405794"><ele>1058.0</ele><time>2026-05-03T10:45:42.111Z</time></trkpt><trkpt lat="44.1704885" lon="10.6404357"><ele>1058.0</ele><time>2026-05-03T10:45:43.111Z</time></trkpt><trkpt lat="44.1705418" lon="10.6403314"><ele>1058.0</ele><time>2026-05-03T10:45:44.112Z</time></trkpt><trkpt lat="44.1706112" lon="10.6402709"><ele>1058.0</ele><time>2026-05-03T10:45:45.112Z</time></trkpt><trkpt lat="44.1707021" lon="10.640259"><ele>1057.75</ele><time>2026-05-03T10:45:46.111Z</time></trkpt><trkpt lat="44.1708185" lon="10.6402474"><ele>1057.5</ele><time>2026-05-03T10:45:47.111Z</time></trkpt><trkpt lat="44.1709487" lon="10.6402799"><ele>1057.25</ele><time>2026-05-03T10:45:48.112Z</time></trkpt><trkpt lat="44.1710627" lon="10.640293"><ele>1057.0</ele><time>2026-05-03T10:45:49.111Z</time></trkpt><trkpt lat="44.1711721" lon="10.6403134"><ele>1055.0</ele><time>2026-05-03T10:45:50.112Z</time></trkpt><trkpt lat="44.1712778" lon="10.6403729"><ele>1053.0</ele><time>2026-05-03T10:45:51.111Z</time></trkpt><trkpt lat="44.1713825" lon="10.6404461"><ele>1051.0</ele><time>2026-05-03T10:45:52.111Z</time></trkpt><trkpt lat="44.1714468" lon="10.640542"><ele>1049.0</ele><time>2026-05-03T10:45:53.111Z</time></trkpt><trkpt lat="44.1714926" lon="10.6406635"><ele>1047.0</ele><time>2026-05-03T10:45:54.111Z</time></trkpt><trkpt lat="44.1715417" lon="10.6407735"><ele>1047.0</ele><time>2026-05-03T10:45:55.111Z</time></trkpt><trkpt lat="44.1716164" lon="10.6408538"><ele>1047.0</ele><time>2026-05-03T10:45:56.112Z</time></trkpt><trkpt lat="44.1717097" lon="10.6408981"><ele>1047.0</ele><time>2026-05-03T10:45:57.111Z</time></trkpt><trkpt lat="44.1718196" lon="10.6409051"><ele>1047.0</ele><time>2026-05-03T10:45:58.112Z</time></trkpt><trkpt lat="44.1719433" lon="10.6409021"><ele>1047.0</ele><time>2026-05-03T10:45:59.111Z</time></trkpt><trkpt lat="44.1720556" lon="10.6409099"><ele>1047.0</ele><time>2026-05-03T10:46:00.112Z</time></trkpt><trkpt lat="44.1721687" lon="10.6409354"><ele>1047.0</ele><time>2026-05-03T10:46:01.111Z</time></trkpt><trkpt lat="44.1722747" lon="10.6409934"><ele>1047.0</ele><time>2026-05-03T10:46:02.111Z</time></trkpt><trkpt lat="44.1723774" lon="10.6410749"><ele>1047.0</ele><time>2026-05-03T10:46:03.111Z</time></trkpt><trkpt lat="44.1724816" lon="10.6411644"><ele>1041.5</ele><time>2026-05-03T10:46:04.112Z</time></trkpt><trkpt lat="44.1725977" lon="10.6412333"><ele>1036.0</ele><time>2026-05-03T10:46:05.111Z</time></trkpt><trkpt lat="44.1727254" lon="10.6412864"><ele>1030.5</ele><time>2026-05-03T10:46:06.112Z</time></trkpt><trkpt lat="44.1728431" lon="10.6413303"><ele>1025.0</ele><time>2026-05-03T10:46:07.112Z</time></trkpt><trkpt lat="44.172968" lon="10.6413653"><ele>1025.0</ele><time>2026-05-03T10:46:08.111Z</time></trkpt><trkpt lat="44.17308" lon="10.6414062"><ele>1025.0</ele><time>2026-05-03T10:46:09.111Z</time></trkpt><trkpt lat="44.1731819" lon="10.64146"><ele>1025.0</ele><time>2026-05-03T10:46:10.111Z</time></trkpt><trkpt lat="44.1732608" lon="10.6415419"><ele>1025.0</ele><time>2026-05-03T10:46:11.111Z</time></trkpt><trkpt lat="44.1733323" lon="10.6416246"><ele>1025.0</ele><time>2026-05-03T10:46:12.112Z</time></trkpt><trkpt lat="44.1733938" lon="10.6417036"><ele>1025.8</ele><time>2026-05-03T10:46:13.112Z</time></trkpt><trkpt lat="44.1734511" lon="10.6417782"><ele>1026.6</ele><time>2026-05-03T10:46:14.112Z</time></trkpt><trkpt lat="44.1735139" lon="10.6418698"><ele>1027.4</ele><time>2026-05-03T10:46:15.111Z</time></trkpt><trkpt lat="44.1735858" lon="10.6419596"><ele>1028.2</ele><time>2026-05-03T10:46:16.111Z</time></trkpt><trkpt lat="44.1736489" lon="10.642058"><ele>1029.0</ele><time>2026-05-03T10:46:17.111Z</time></trkpt><trkpt lat="44.1737264" lon="10.6421437"><ele>1028.6000000000001</ele><time>2026-05-03T10:46:18.111Z</time></trkpt><trkpt lat="44.1738108" lon="10.6422328"><ele>1028.2</ele><time>2026-05-03T10:46:19.111Z</time></trkpt><trkpt lat="44.1738904" lon="10.6423108"><ele>1027.8000000000002</ele><time>2026-05-03T10:46:20.112Z</time></trkpt><trkpt lat="44.1739638" lon="10.6423833"><ele>1027.4</ele><time>2026-05-03T10:46:21.112Z</time></trkpt><trkpt lat="44.1740443" lon="10.6424697"><ele>1027.0</ele><time>2026-05-03T10:46:22.112Z</time></trkpt><trkpt lat="44.1741203" lon="10.642558"><ele>1027.0</ele><time>2026-05-03T10:46:23.111Z</time></trkpt><trkpt lat="44.1741933" lon="10.6426482"><ele>1027.0</ele><time>2026-05-03T10:46:24.111Z</time></trkpt><trkpt lat="44.1742595" lon="10.6427582"><ele>1027.0</ele><time>2026-05-03T10:46:25.112Z</time></trkpt><trkpt lat="44.1743141" lon="10.6428674"><ele>1027.0</ele><time>2026-05-03T10:46:26.111Z</time></trkpt><trkpt lat="44.1743741" lon="10.6429662"><ele>1027.0</ele><time>2026-05-03T10:46:27.112Z</time></trkpt><trkpt lat="44.1744507" lon="10.6430398"><ele>1024.1666666666665</ele><time>2026-05-03T10:46:28.112Z</time></trkpt><trkpt lat="44.1745374" lon="10.6430741"><ele>1021.3333333333333</ele><time>2026-05-03T10:46:29.112Z</time></trkpt><trkpt lat="44.1746303" lon="10.6430955"><ele>1018.5</ele><time>2026-05-03T10:46:30.112Z</time></trkpt><trkpt lat="44.1747193" lon="10.6431297"><ele>1015.6666666666667</ele><time>2026-05-03T10:46:31.112Z</time></trkpt><trkpt lat="44.1747698" lon="10.6432171"><ele>1012.8333333333334</ele><time>2026-05-03T10:46:32.112Z</time></trkpt><trkpt lat="44.1748154" lon="10.6433182"><ele>1010.0</ele><time>2026-05-03T10:46:33.111Z</time></trkpt><trkpt lat="44.174773" lon="10.6434539"><ele>1010.0</ele><time>2026-05-03T10:46:34.112Z</time></trkpt><trkpt lat="44.1747556" lon="10.6435934"><ele>1010.0</ele><time>2026-05-03T10:46:35.111Z</time></trkpt><trkpt lat="44.1747419" lon="10.6437264"><ele>1010.0</ele><time>2026-05-03T10:46:36.112Z</time></trkpt><trkpt lat="44.1747359" lon="10.6438458"><ele>1010.0</ele><time>2026-05-03T10:46:37.111Z</time></trkpt><trkpt lat="44.1747625" lon="10.6439592"><ele>1010.0</ele><time>2026-05-03T10:46:38.111Z</time></trkpt><trkpt lat="44.1748272" lon="10.644066"><ele>1010.25</ele><time>2026-05-03T10:46:39.111Z</time></trkpt><trkpt lat="44.1749248" lon="10.6441564"><ele>1010.5</ele><time>2026-05-03T10:46:40.111Z</time></trkpt><trkpt lat="44.1750672" lon="10.6442618"><ele>1010.75</ele><time>2026-05-03T10:46:41.111Z</time></trkpt><trkpt lat="44.1752001" lon="10.6443416"><ele>1011.0</ele><time>2026-05-03T10:46:42.111Z</time></trkpt><trkpt lat="44.175338" lon="10.6443955"><ele>1011.0</ele><time>2026-05-03T10:46:43.111Z</time></trkpt><trkpt lat="44.1754729" lon="10.6444137"><ele>1011.0</ele><time>2026-05-03T10:46:44.111Z</time></trkpt><trkpt lat="44.1755991" lon="10.6444367"><ele>1011.0</ele><time>2026-05-03T10:46:45.112Z</time></trkpt><trkpt lat="44.175729" lon="10.6444741"><ele>1011.0</ele><time>2026-05-03T10:46:46.112Z</time></trkpt><trkpt lat="44.1758636" lon="10.6445142"><ele>1008.5</ele><time>2026-05-03T10:46:47.111Z</time></trkpt><trkpt lat="44.1759934" lon="10.6445696"><ele>1006.0</ele><time>2026-05-03T10:46:48.112Z</time></trkpt><trkpt lat="44.1761137" lon="10.6446726"><ele>1003.5</ele><time>2026-05-03T10:46:49.112Z</time></trkpt><trkpt lat="44.1762139" lon="10.6448012"><ele>1001.0</ele><time>2026-05-03T10:46:50.111Z</time></trkpt><trkpt lat="44.1762864" lon="10.6449646"><ele>1001.0</ele><time>2026-05-03T10:46:51.112Z</time></trkpt><trkpt lat="44.1763471" lon="10.6451257"><ele>1001.0</ele><time>2026-05-03T10:46:52.111Z</time></trkpt><trkpt lat="44.176441" lon="10.645242"><ele>1001.0</ele><time>2026-05-03T10:46:53.111Z</time></trkpt><trkpt lat="44.1765499" lon="10.6453326"><ele>1001.0</ele><time>2026-05-03T10:46:54.111Z</time></trkpt><trkpt lat="44.1766658" lon="10.6454031"><ele>1002.25</ele><time>2026-05-03T10:46:55.112Z</time></trkpt><trkpt lat="44.1767762" lon="10.6453649"><ele>1003.5</ele><time>2026-05-03T10:46:56.112Z</time></trkpt><trkpt lat="44.1768895" lon="10.6453047"><ele>1004.75</ele><time>2026-05-03T10:46:57.111Z</time></trkpt><trkpt lat="44.1770191" lon="10.6452082"><ele>1006.0</ele><time>2026-05-03T10:46:58.111Z</time></trkpt><trkpt lat="44.1771587" lon="10.6451294"><ele>1006.0</ele><time>2026-05-03T10:46:59.111Z</time></trkpt><trkpt lat="44.1772848" lon="10.6450394"><ele>1006.0</ele><time>2026-05-03T10:47:00.112Z</time></trkpt><trkpt lat="44.1774143" lon="10.6449593"><ele>1006.0</ele><time>2026-05-03T10:47:01.112Z</time></trkpt><trkpt lat="44.1775491" lon="10.6449059"><ele>1006.0</ele><time>2026-05-03T10:47:02.112Z</time></trkpt><trkpt lat="44.1776989" lon="10.6448973"><ele>1004.0</ele><time>2026-05-03T10:47:03.112Z</time></trkpt><trkpt lat="44.1778475" lon="10.6449313"><ele>1002.0</ele><time>2026-05-03T10:47:04.111Z</time></trkpt><trkpt lat="44.1779938" lon="10.6449867"><ele>1000.0</ele><time>2026-05-03T10:47:05.112Z</time></trkpt><trkpt lat="44.1781519" lon="10.6450327"><ele>997.0</ele><time>2026-05-03T10:47:06.111Z</time></trkpt><trkpt lat="44.1783154" lon="10.645037"><ele>994.0</ele><time>2026-05-03T10:47:07.112Z</time></trkpt><trkpt lat="44.1784834" lon="10.6450055"><ele>991.0</ele><time>2026-05-03T10:47:08.112Z</time></trkpt><trkpt lat="44.1786371" lon="10.6449335"><ele>991.0</ele><time>2026-05-03T10:47:09.111Z</time></trkpt><trkpt lat="44.1787626" lon="10.6448365"><ele>991.0</ele><time>2026-05-03T10:47:10.111Z</time></trkpt><trkpt lat="44.1788636" lon="10.6447293"><ele>991.0</ele><time>2026-05-03T10:47:11.112Z</time></trkpt><trkpt lat="44.1789638" lon="10.6446468"><ele>991.0</ele><time>2026-05-03T10:47:12.111Z</time></trkpt><trkpt lat="44.1790675" lon="10.644616"><ele>988.5</ele><time>2026-05-03T10:47:13.112Z</time></trkpt><trkpt lat="44.1791665" lon="10.6446384"><ele>986.0</ele><time>2026-05-03T10:47:14.112Z</time></trkpt><trkpt lat="44.1792636" lon="10.6447138"><ele>983.5</ele><time>2026-05-03T10:47:15.111Z</time></trkpt><trkpt lat="44.1793741" lon="10.6447711"><ele>981.0</ele><time>2026-05-03T10:47:16.112Z</time></trkpt><trkpt lat="44.1795003" lon="10.6447833"><ele>981.0</ele><time>2026-05-03T10:47:17.112Z</time></trkpt><trkpt lat="44.1796364" lon="10.6447491"><ele>981.0</ele><time>2026-05-03T10:47:18.112Z</time></trkpt><trkpt lat="44.1797821" lon="10.6447017"><ele>981.0</ele><time>2026-05-03T10:47:19.112Z</time></trkpt><trkpt lat="44.1799285" lon="10.6446543"><ele>981.0</ele><time>2026-05-03T10:47:20.111Z</time></trkpt><trkpt lat="44.1800717" lon="10.6446119"><ele>978.5</ele><time>2026-05-03T10:47:21.111Z</time></trkpt><trkpt lat="44.1802189" lon="10.6445887"><ele>976.0</ele><time>2026-05-03T10:47:22.112Z</time></trkpt><trkpt lat="44.1803605" lon="10.6445994"><ele>973.5</ele><time>2026-05-03T10:47:23.111Z</time></trkpt><trkpt lat="44.1804964" lon="10.6446376"><ele>971.0</ele><time>2026-05-03T10:47:24.111Z</time></trkpt><trkpt lat="44.1806233" lon="10.6446884"><ele>972.5</ele><time>2026-05-03T10:47:25.112Z</time></trkpt><trkpt lat="44.1807349" lon="10.6447689"><ele>974.0</ele><time>2026-05-03T10:47:26.112Z</time></trkpt><trkpt lat="44.1808207" lon="10.6448829"><ele>975.5</ele><time>2026-05-03T10:47:27.111Z</time></trkpt><trkpt lat="44.1808927" lon="10.6450032"><ele>977.0</ele><time>2026-05-03T10:47:28.112Z</time></trkpt><trkpt lat="44.1809694" lon="10.6451025"><ele>977.0000000000001</ele><time>2026-05-03T10:47:29.112Z</time></trkpt><trkpt lat="44.1810637" lon="10.6451824"><ele>977.0</ele><time>2026-05-03T10:47:30.112Z</time></trkpt><trkpt lat="44.1811305" lon="10.6452128"><ele>977.0</ele><time>2026-05-03T10:47:31.112Z</time></trkpt><trkpt lat="44.1812181" lon="10.6452476"><ele>977.0</ele><time>2026-05-03T10:47:32.111Z</time></trkpt><trkpt lat="44.1812962" lon="10.6452727"><ele>977.0000000000001</ele><time>2026-05-03T10:47:33.112Z</time></trkpt><trkpt lat="44.1813668" lon="10.645308"><ele>977.0</ele><time>2026-05-03T10:47:34.111Z</time></trkpt><trkpt lat="44.1814766" lon="10.6453366"><ele>972.0</ele><time>2026-05-03T10:47:36.111Z</time></trkpt><trkpt lat="44.1815809" lon="10.6453719"><ele>967.0</ele><time>2026-05-03T10:47:38.112Z</time></trkpt><trkpt lat="44.1817171" lon="10.6454037"><ele>962.0</ele><time>2026-05-03T10:47:40.112Z</time></trkpt><trkpt lat="44.1818093" lon="10.6453985"><ele>957.0</ele><time>2026-05-03T10:47:41.112Z</time></trkpt><trkpt lat="44.1818957" lon="10.645374"><ele>952.0</ele><time>2026-05-03T10:47:42.112Z</time></trkpt><trkpt lat="44.1820002" lon="10.6453304"><ele>958.0</ele><time>2026-05-03T10:47:43.112Z</time></trkpt><trkpt lat="44.1821031" lon="10.6452712"><ele>964.0</ele><time>2026-05-03T10:47:44.111Z</time></trkpt><trkpt lat="44.1821975" lon="10.6451883"><ele>970.0</ele><time>2026-05-03T10:47:45.112Z</time></trkpt><trkpt lat="44.1822916" lon="10.6451032"><ele>976.0</ele><time>2026-05-03T10:47:46.112Z</time></trkpt><trkpt lat="44.1823847" lon="10.6450183"><ele>982.0</ele><time>2026-05-03T10:47:47.111Z</time></trkpt><trkpt lat="44.1824773" lon="10.6449431"><ele>982.0</ele><time>2026-05-03T10:47:48.112Z</time></trkpt><trkpt lat="44.1825707" lon="10.644866"><ele>982.0</ele><time>2026-05-03T10:47:49.111Z</time></trkpt><trkpt lat="44.1826685" lon="10.6447921"><ele>982.0</ele><time>2026-05-03T10:47:50.112Z</time></trkpt><trkpt lat="44.1827761" lon="10.6447115"><ele>982.0</ele><time>2026-05-03T10:47:51.112Z</time></trkpt><trkpt lat="44.1828881" lon="10.6446293"><ele>982.0</ele><time>2026-05-03T10:47:52.111Z</time></trkpt><trkpt lat="44.1830076" lon="10.6445445"><ele>982.0</ele><time>2026-05-03T10:47:53.111Z</time></trkpt><trkpt lat="44.1831415" lon="10.6444634"><ele>982.0</ele><time>2026-05-03T10:47:54.112Z</time></trkpt><trkpt lat="44.1832851" lon="10.6443862"><ele>982.0</ele><time>2026-05-03T10:47:55.112Z</time></trkpt><trkpt lat="44.1834376" lon="10.644322"><ele>982.0</ele><time>2026-05-03T10:47:56.112Z</time></trkpt><trkpt lat="44.1835943" lon="10.6442699"><ele>982.0</ele><time>2026-05-03T10:47:57.111Z</time></trkpt><trkpt lat="44.1837518" lon="10.6442363"><ele>982.0</ele><time>2026-05-03T10:47:58.112Z</time></trkpt><trkpt lat="44.1839175" lon="10.6442205"><ele>980.6666666666666</ele><time>2026-05-03T10:47:59.112Z</time></trkpt><trkpt lat="44.1840785" lon="10.6442114"><ele>979.3333333333333</ele><time>2026-05-03T10:48:00.112Z</time></trkpt><trkpt lat="44.1842424" lon="10.6442206"><ele>978.0</ele><time>2026-05-03T10:48:01.112Z</time></trkpt><trkpt lat="44.1844117" lon="10.6442605"><ele>978.0</ele><time>2026-05-03T10:48:02.112Z</time></trkpt><trkpt lat="44.1845764" lon="10.6443076"><ele>978.0</ele><time>2026-05-03T10:48:03.111Z</time></trkpt><trkpt lat="44.1847392" lon="10.6443691"><ele>978.0</ele><time>2026-05-03T10:48:04.111Z</time></trkpt><trkpt lat="44.1848998" lon="10.64444"><ele>969.3333333333333</ele><time>2026-05-03T10:48:05.112Z</time></trkpt><trkpt lat="44.1850548" lon="10.6445098"><ele>960.6666666666666</ele><time>2026-05-03T10:48:06.111Z</time></trkpt><trkpt lat="44.185205" lon="10.6445627"><ele>952.0</ele><time>2026-05-03T10:48:07.111Z</time></trkpt><trkpt lat="44.1853544" lon="10.644591"><ele>952.0</ele><time>2026-05-03T10:48:08.112Z</time></trkpt><trkpt lat="44.1855035" lon="10.6446007"><ele>952.0</ele><time>2026-05-03T10:48:09.111Z</time></trkpt><trkpt lat="44.1856559" lon="10.6445626"><ele>952.0</ele><time>2026-05-03T10:48:10.111Z</time></trkpt><trkpt lat="44.1858155" lon="10.6445322"><ele>952.6666666666666</ele><time>2026-05-03T10:48:11.112Z</time></trkpt><trkpt lat="44.1859712" lon="10.6445016"><ele>953.3333333333333</ele><time>2026-05-03T10:48:12.112Z</time></trkpt><trkpt lat="44.1861261" lon="10.6444733"><ele>954.0</ele><time>2026-05-03T10:48:13.112Z</time></trkpt><trkpt lat="44.1862838" lon="10.6444426"><ele>952.3333333333333</ele><time>2026-05-03T10:48:14.112Z</time></trkpt><trkpt lat="44.1864398" lon="10.6444326"><ele>950.6666666666666</ele><time>2026-05-03T10:48:15.112Z</time></trkpt><trkpt lat="44.1866017" lon="10.6444545"><ele>949.0</ele><time>2026-05-03T10:48:16.112Z</time></trkpt><trkpt lat="44.1867622" lon="10.6444918"><ele>949.0</ele><time>2026-05-03T10:48:17.112Z</time></trkpt><trkpt lat="44.1869162" lon="10.6445295"><ele>949.0</ele><time>2026-05-03T10:48:18.112Z</time></trkpt><trkpt lat="44.18707" lon="10.6445646"><ele>949.0</ele><time>2026-05-03T10:48:19.112Z</time></trkpt><trkpt lat="44.1872166" lon="10.6445508"><ele>947.75</ele><time>2026-05-03T10:48:20.111Z</time></trkpt><trkpt lat="44.1873515" lon="10.6445061"><ele>946.5</ele><time>2026-05-03T10:48:21.111Z</time></trkpt><trkpt lat="44.1874832" lon="10.64442"><ele>945.25</ele><time>2026-05-03T10:48:22.111Z</time></trkpt><trkpt lat="44.1876212" lon="10.6443146"><ele>944.0</ele><time>2026-05-03T10:48:23.112Z</time></trkpt><trkpt lat="44.1877533" lon="10.6441897"><ele>953.0</ele><time>2026-05-03T10:48:24.112Z</time></trkpt><trkpt lat="44.1878838" lon="10.6440658"><ele>962.0</ele><time>2026-05-03T10:48:25.111Z</time></trkpt><trkpt lat="44.1880025" lon="10.64394"><ele>971.0</ele><time>2026-05-03T10:48:26.112Z</time></trkpt><trkpt lat="44.1881231" lon="10.6438203"><ele>969.0</ele><time>2026-05-03T10:48:27.112Z</time></trkpt><trkpt lat="44.188227" lon="10.6436921"><ele>967.0</ele><time>2026-05-03T10:48:28.111Z</time></trkpt><trkpt lat="44.1883181" lon="10.6435315"><ele>965.0</ele><time>2026-05-03T10:48:29.112Z</time></trkpt><trkpt lat="44.1883997" lon="10.6433472"><ele>963.0</ele><time>2026-05-03T10:48:30.111Z</time></trkpt><trkpt lat="44.1884884" lon="10.6431586"><ele>963.0</ele><time>2026-05-03T10:48:31.111Z</time></trkpt><trkpt lat="44.1885896" lon="10.6429668"><ele>963.0</ele><time>2026-05-03T10:48:32.112Z</time></trkpt><trkpt lat="44.1887057" lon="10.6427876"><ele>963.0</ele><time>2026-05-03T10:48:33.111Z</time></trkpt><trkpt lat="44.1888256" lon="10.6426139"><ele>966.0</ele><time>2026-05-03T10:48:34.112Z</time></trkpt><trkpt lat="44.1889345" lon="10.6424512"><ele>969.0</ele><time>2026-05-03T10:48:35.112Z</time></trkpt><trkpt lat="44.189032" lon="10.642319"><ele>972.0</ele><time>2026-05-03T10:48:36.112Z</time></trkpt><trkpt lat="44.1891027" lon="10.6421792"><ele>975.0</ele><time>2026-05-03T10:48:37.112Z</time></trkpt><trkpt lat="44.1891383" lon="10.6420031"><ele>975.25</ele><time>2026-05-03T10:48:38.112Z</time></trkpt><trkpt lat="44.1891421" lon="10.6418151"><ele>975.5</ele><time>2026-05-03T10:48:39.112Z</time></trkpt><trkpt lat="44.189109" lon="10.6416351"><ele>975.75</ele><time>2026-05-03T10:48:40.112Z</time></trkpt><trkpt lat="44.1890466" lon="10.6414643"><ele>976.0</ele><time>2026-05-03T10:48:41.112Z</time></trkpt><trkpt lat="44.1889479" lon="10.641308"><ele>976.0</ele><time>2026-05-03T10:48:42.112Z</time></trkpt><trkpt lat="44.1888477" lon="10.6411599"><ele>976.0</ele><time>2026-05-03T10:48:43.112Z</time></trkpt><trkpt lat="44.1887254" lon="10.6409822"><ele>976.0</ele><time>2026-05-03T10:48:44.112Z</time></trkpt><trkpt lat="44.1886187" lon="10.6407944"><ele>970.3333333333333</ele><time>2026-05-03T10:48:45.112Z</time></trkpt><trkpt lat="44.1885328" lon="10.640578"><ele>964.6666666666667</ele><time>2026-05-03T10:48:46.111Z</time></trkpt><trkpt lat="44.1884673" lon="10.6403611"><ele>959.0</ele><time>2026-05-03T10:48:47.111Z</time></trkpt><trkpt lat="44.1884123" lon="10.6401426"><ele>955.3333333333334</ele><time>2026-05-03T10:48:48.111Z</time></trkpt><trkpt lat="44.1883704" lon="10.6399305"><ele>951.6666666666667</ele><time>2026-05-03T10:48:49.111Z</time></trkpt><trkpt lat="44.1884027" lon="10.6397254"><ele>948.0</ele><time>2026-05-03T10:48:50.111Z</time></trkpt><trkpt lat="44.1884293" lon="10.6395154"><ele>947.25</ele><time>2026-05-03T10:48:51.112Z</time></trkpt><trkpt lat="44.1884463" lon="10.6393114"><ele>946.5</ele><time>2026-05-03T10:48:52.111Z</time></trkpt><trkpt lat="44.1884588" lon="10.6391168"><ele>945.75</ele><time>2026-05-03T10:48:53.112Z</time></trkpt><trkpt lat="44.1884597" lon="10.6389265"><ele>945.0</ele><time>2026-05-03T10:48:54.111Z</time></trkpt><trkpt lat="44.1884837" lon="10.6387556"><ele>947.25</ele><time>2026-05-03T10:48:55.112Z</time></trkpt><trkpt lat="44.1885328" lon="10.6386072"><ele>949.5</ele><time>2026-05-03T10:48:56.111Z</time></trkpt><trkpt lat="44.1886109" lon="10.6384806"><ele>951.75</ele><time>2026-05-03T10:48:57.111Z</time></trkpt><trkpt lat="44.1887306" lon="10.6383886"><ele>954.0</ele><time>2026-05-03T10:48:58.111Z</time></trkpt><trkpt lat="44.1888732" lon="10.6383083"><ele>943.3333333333333</ele><time>2026-05-03T10:48:59.111Z</time></trkpt><trkpt lat="44.1890288" lon="10.638211"><ele>932.6666666666666</ele><time>2026-05-03T10:49:00.112Z</time></trkpt><trkpt lat="44.1891833" lon="10.6381051"><ele>922.0</ele><time>2026-05-03T10:49:01.112Z</time></trkpt><trkpt lat="44.189329" lon="10.6379985"><ele>922.0</ele><time>2026-05-03T10:49:02.112Z</time></trkpt><trkpt lat="44.1894567" lon="10.6378742"><ele>922.0</ele><time>2026-05-03T10:49:03.112Z</time></trkpt><trkpt lat="44.1895548" lon="10.63773"><ele>922.0</ele><time>2026-05-03T10:49:04.112Z</time></trkpt><trkpt lat="44.1896273" lon="10.6375627"><ele>922.0</ele><time>2026-05-03T10:49:05.111Z</time></trkpt><trkpt lat="44.1896777" lon="10.6373753"><ele>928.6666666666666</ele><time>2026-05-03T10:49:06.111Z</time></trkpt><trkpt lat="44.1897211" lon="10.6371613"><ele>935.3333333333333</ele><time>2026-05-03T10:49:07.112Z</time></trkpt><trkpt lat="44.1897523" lon="10.6369329"><ele>942.0</ele><time>2026-05-03T10:49:08.111Z</time></trkpt><trkpt lat="44.1897734" lon="10.6366963"><ele>944.3333333333333</ele><time>2026-05-03T10:49:09.112Z</time></trkpt><trkpt lat="44.1897811" lon="10.6364465"><ele>946.6666666666666</ele><time>2026-05-03T10:49:10.111Z</time></trkpt><trkpt lat="44.1898027" lon="10.6361754"><ele>949.0</ele><time>2026-05-03T10:49:11.112Z</time></trkpt><trkpt lat="44.1898162" lon="10.6359141"><ele>949.0</ele><time>2026-05-03T10:49:12.111Z</time></trkpt><trkpt lat="44.1898362" lon="10.6356802"><ele>949.0</ele><time>2026-05-03T10:49:13.112Z</time></trkpt><trkpt lat="44.1898595" lon="10.6354623"><ele>949.0</ele><time>2026-05-03T10:49:14.112Z</time></trkpt><trkpt lat="44.1898932" lon="10.6352515"><ele>938.5</ele><time>2026-05-03T10:49:15.112Z</time></trkpt><trkpt lat="44.1899129" lon="10.6350494"><ele>928.0</ele><time>2026-05-03T10:49:16.112Z</time></trkpt><trkpt lat="44.1899371" lon="10.6348467"><ele>917.5</ele><time>2026-05-03T10:49:17.112Z</time></trkpt><trkpt lat="44.1899505" lon="10.6346448"><ele>907.0</ele><time>2026-05-03T10:49:18.111Z</time></trkpt><trkpt lat="44.1899299" lon="10.6344351"><ele>904.6666666666666</ele><time>2026-05-03T10:49:19.112Z</time></trkpt><trkpt lat="44.1899127" lon="10.6342223"><ele>902.3333333333333</ele><time>2026-05-03T10:49:20.112Z</time></trkpt><trkpt lat="44.1899023" lon="10.63401"><ele>900.0</ele><time>2026-05-03T10:49:21.112Z</time></trkpt><trkpt lat="44.1898955" lon="10.6337721"><ele>900.6666666666667</ele><time>2026-05-03T10:49:22.111Z</time></trkpt><trkpt lat="44.1898907" lon="10.6335382"><ele>901.3333333333334</ele><time>2026-05-03T10:49:23.112Z</time></trkpt><trkpt lat="44.1898909" lon="10.6333073"><ele>902.0</ele><time>2026-05-03T10:49:24.112Z</time></trkpt><trkpt lat="44.1899134" lon="10.6330765"><ele>902.0</ele><time>2026-05-03T10:49:25.111Z</time></trkpt><trkpt lat="44.1899535" lon="10.6328481"><ele>902.0</ele><time>2026-05-03T10:49:26.111Z</time></trkpt><trkpt lat="44.1900138" lon="10.6326344"><ele>902.0</ele><time>2026-05-03T10:49:27.112Z</time></trkpt><trkpt lat="44.1900878" lon="10.632438"><ele>905.0</ele><time>2026-05-03T10:49:28.111Z</time></trkpt><trkpt lat="44.190165" lon="10.6322604"><ele>908.0</ele><time>2026-05-03T10:49:29.111Z</time></trkpt><trkpt lat="44.190288" lon="10.6321099"><ele>911.0</ele><time>2026-05-03T10:49:30.112Z</time></trkpt><trkpt lat="44.1904016" lon="10.6319705"><ele>912.25</ele><time>2026-05-03T10:49:31.111Z</time></trkpt><trkpt lat="44.1905128" lon="10.6318393"><ele>913.5</ele><time>2026-05-03T10:49:32.112Z</time></trkpt><trkpt lat="44.1906051" lon="10.6316978"><ele>914.75</ele><time>2026-05-03T10:49:33.111Z</time></trkpt><trkpt lat="44.1906888" lon="10.6315753"><ele>916.0</ele><time>2026-05-03T10:49:34.111Z</time></trkpt><trkpt lat="44.1907521" lon="10.6314344"><ele>909.0</ele><time>2026-05-03T10:49:35.111Z</time></trkpt><trkpt lat="44.1907572" lon="10.6312918"><ele>902.0</ele><time>2026-05-03T10:49:36.112Z</time></trkpt><trkpt lat="44.1907463" lon="10.6311283"><ele>895.0</ele><time>2026-05-03T10:49:37.112Z</time></trkpt><trkpt lat="44.1907848" lon="10.6309383"><ele>888.0</ele><time>2026-05-03T10:49:38.111Z</time></trkpt><trkpt lat="44.190835" lon="10.6307624"><ele>888.0</ele><time>2026-05-03T10:49:39.112Z</time></trkpt><trkpt lat="44.1908738" lon="10.6305857"><ele>888.0</ele><time>2026-05-03T10:49:40.111Z</time></trkpt><trkpt lat="44.1908736" lon="10.6303986"><ele>888.0</ele><time>2026-05-03T10:49:41.111Z</time></trkpt><trkpt lat="44.1908515" lon="10.6302185"><ele>888.0</ele><time>2026-05-03T10:49:42.111Z</time></trkpt><trkpt lat="44.1908213" lon="10.6300418"><ele>887.75</ele><time>2026-05-03T10:49:43.112Z</time></trkpt><trkpt lat="44.190816" lon="10.6298672"><ele>887.5</ele><time>2026-05-03T10:49:44.111Z</time></trkpt><trkpt lat="44.1908468" lon="10.6297092"><ele>887.25</ele><time>2026-05-03T10:49:45.111Z</time></trkpt><trkpt lat="44.190915" lon="10.6295454"><ele>887.0</ele><time>2026-05-03T10:49:46.111Z</time></trkpt><trkpt lat="44.1909929" lon="10.629349"><ele>886.0</ele><time>2026-05-03T10:49:47.112Z</time></trkpt><trkpt lat="44.1910671" lon="10.629153"><ele>885.0</ele><time>2026-05-03T10:49:48.111Z</time></trkpt><trkpt lat="44.1911333" lon="10.6289659"><ele>884.0</ele><time>2026-05-03T10:49:49.112Z</time></trkpt><trkpt lat="44.1911919" lon="10.6287783"><ele>885.0</ele><time>2026-05-03T10:49:50.111Z</time></trkpt><trkpt lat="44.191215" lon="10.6285797"><ele>886.0</ele><time>2026-05-03T10:49:51.111Z</time></trkpt><trkpt lat="44.1912418" lon="10.6283807"><ele>887.0</ele><time>2026-05-03T10:49:52.112Z</time></trkpt><trkpt lat="44.1912783" lon="10.628194"><ele>888.0</ele><time>2026-05-03T10:49:53.111Z</time></trkpt><trkpt lat="44.1913221" lon="10.6280131"><ele>888.0</ele><time>2026-05-03T10:49:54.112Z</time></trkpt><trkpt lat="44.1913793" lon="10.6278312"><ele>888.0</ele><time>2026-05-03T10:49:55.112Z</time></trkpt><trkpt lat="44.1914356" lon="10.6276422"><ele>888.0</ele><time>2026-05-03T10:49:56.111Z</time></trkpt><trkpt lat="44.191476" lon="10.6274495"><ele>888.0</ele><time>2026-05-03T10:49:57.111Z</time></trkpt><trkpt lat="44.1915015" lon="10.6272582"><ele>884.75</ele><time>2026-05-03T10:49:58.111Z</time></trkpt><trkpt lat="44.1915075" lon="10.6270717"><ele>881.5</ele><time>2026-05-03T10:49:59.111Z</time></trkpt><trkpt lat="44.1915077" lon="10.6268834"><ele>878.25</ele><time>2026-05-03T10:50:00.111Z</time></trkpt><trkpt lat="44.1914949" lon="10.6266988"><ele>875.0</ele><time>2026-05-03T10:50:01.112Z</time></trkpt><trkpt lat="44.1914671" lon="10.6265195"><ele>875.0</ele><time>2026-05-03T10:50:02.112Z</time></trkpt><trkpt lat="44.1914349" lon="10.6263498"><ele>875.0</ele><time>2026-05-03T10:50:03.111Z</time></trkpt><trkpt lat="44.191399" lon="10.6262003"><ele>875.0</ele><time>2026-05-03T10:50:04.112Z</time></trkpt><trkpt lat="44.1913559" lon="10.6260658"><ele>875.0</ele><time>2026-05-03T10:50:05.112Z</time></trkpt><trkpt lat="44.1913355" lon="10.6259351"><ele>875.0</ele><time>2026-05-03T10:50:06.112Z</time></trkpt><trkpt lat="44.1913476" lon="10.6258045"><ele>873.25</ele><time>2026-05-03T10:50:07.112Z</time></trkpt><trkpt lat="44.1914024" lon="10.6256977"><ele>871.5</ele><time>2026-05-03T10:50:08.111Z</time></trkpt><trkpt lat="44.1914982" lon="10.625627"><ele>869.75</ele><time>2026-05-03T10:50:09.112Z</time></trkpt><trkpt lat="44.1915998" lon="10.6255552"><ele>868.0</ele><time>2026-05-03T10:50:10.111Z</time></trkpt><trkpt lat="44.1917413" lon="10.6254679"><ele>867.25</ele><time>2026-05-03T10:50:11.112Z</time></trkpt><trkpt lat="44.1918656" lon="10.625381"><ele>866.5</ele><time>2026-05-03T10:50:12.111Z</time></trkpt><trkpt lat="44.1919999" lon="10.6253073"><ele>865.75</ele><time>2026-05-03T10:50:13.111Z</time></trkpt><trkpt lat="44.1921547" lon="10.6252752"><ele>865.0</ele><time>2026-05-03T10:50:14.112Z</time></trkpt><trkpt lat="44.1923191" lon="10.6252486"><ele>862.6666666666666</ele><time>2026-05-03T10:50:15.112Z</time></trkpt><trkpt lat="44.1925001" lon="10.6252434"><ele>860.3333333333333</ele><time>2026-05-03T10:50:16.112Z</time></trkpt><trkpt lat="44.1926714" lon="10.6252288"><ele>858.0</ele><time>2026-05-03T10:50:17.112Z</time></trkpt><trkpt lat="44.1928005" lon="10.6252069"><ele>858.0</ele><time>2026-05-03T10:50:18.112Z</time></trkpt><trkpt lat="44.1929283" lon="10.6251931"><ele>858.0</ele><time>2026-05-03T10:50:19.112Z</time></trkpt><trkpt lat="44.1930324" lon="10.6251855"><ele>858.0</ele><time>2026-05-03T10:50:20.111Z</time></trkpt><trkpt lat="44.1931282" lon="10.6251728"><ele>858.0</ele><time>2026-05-03T10:50:21.111Z</time></trkpt><trkpt lat="44.193221" lon="10.6251783"><ele>858.0</ele><time>2026-05-03T10:50:22.112Z</time></trkpt><trkpt lat="44.1932912" lon="10.62514"><ele>854.8333333333334</ele><time>2026-05-03T10:50:23.112Z</time></trkpt><trkpt lat="44.193355" lon="10.6250878"><ele>851.6666666666667</ele><time>2026-05-03T10:50:24.112Z</time></trkpt><trkpt lat="44.1934021" lon="10.6250111"><ele>848.5</ele><time>2026-05-03T10:50:25.112Z</time></trkpt><trkpt lat="44.1934387" lon="10.6249204"><ele>845.3333333333334</ele><time>2026-05-03T10:50:26.111Z</time></trkpt><trkpt lat="44.1934215" lon="10.6248016"><ele>842.1666666666667</ele><time>2026-05-03T10:50:27.112Z</time></trkpt><trkpt lat="44.1934079" lon="10.6246839"><ele>839.0</ele><time>2026-05-03T10:50:28.111Z</time></trkpt><trkpt lat="44.1933707" lon="10.6245632"><ele>839.6</ele><time>2026-05-03T10:50:29.112Z</time></trkpt><trkpt lat="44.1933386" lon="10.624446"><ele>840.2</ele><time>2026-05-03T10:50:30.112Z</time></trkpt><trkpt lat="44.1933105" lon="10.6243253"><ele>840.8000000000001</ele><time>2026-05-03T10:50:31.112Z</time></trkpt><trkpt lat="44.19328" lon="10.6241978"><ele>841.4000000000001</ele><time>2026-05-03T10:50:32.111Z</time></trkpt><trkpt lat="44.1932694" lon="10.6240755"><ele>842.0</ele><time>2026-05-03T10:50:33.111Z</time></trkpt><trkpt lat="44.1932964" lon="10.6239587"><ele>842.0</ele><time>2026-05-03T10:50:34.111Z</time></trkpt><trkpt lat="44.1933621" lon="10.6238756"><ele>842.0</ele><time>2026-05-03T10:50:35.112Z</time></trkpt><trkpt lat="44.193442" lon="10.6238035"><ele>842.0</ele><time>2026-05-03T10:50:36.112Z</time></trkpt><trkpt lat="44.1935371" lon="10.6237497"><ele>842.0</ele><time>2026-05-03T10:50:37.111Z</time></trkpt><trkpt lat="44.1936294" lon="10.6236989"><ele>842.0</ele><time>2026-05-03T10:50:38.112Z</time></trkpt><trkpt lat="44.1936998" lon="10.623627"><ele>845.4000000000001</ele><time>2026-05-03T10:50:39.112Z</time></trkpt><trkpt lat="44.1937728" lon="10.6235404"><ele>848.8000000000001</ele><time>2026-05-03T10:50:40.111Z</time></trkpt><trkpt lat="44.1938364" lon="10.6234479"><ele>852.2</ele><time>2026-05-03T10:50:41.112Z</time></trkpt><trkpt lat="44.1938811" lon="10.6233306"><ele>855.6</ele><time>2026-05-03T10:50:42.111Z</time></trkpt><trkpt lat="44.1939389" lon="10.6232372"><ele>859.0</ele><time>2026-05-03T10:50:43.112Z</time></trkpt><trkpt lat="44.1940033" lon="10.6231527"><ele>852.2</ele><time>2026-05-03T10:50:44.111Z</time></trkpt><trkpt lat="44.1940908" lon="10.6230999"><ele>845.4000000000001</ele><time>2026-05-03T10:50:45.112Z</time></trkpt><trkpt lat="44.1941901" lon="10.6230552"><ele>838.6</ele><time>2026-05-03T10:50:46.111Z</time></trkpt><trkpt lat="44.1942926" lon="10.6230464"><ele>831.8</ele><time>2026-05-03T10:50:47.111Z</time></trkpt><trkpt lat="44.1943843" lon="10.6230862"><ele>825.0</ele><time>2026-05-03T10:50:48.112Z</time></trkpt><trkpt lat="44.1944812" lon="10.6230987"><ele>825.0</ele><time>2026-05-03T10:50:49.112Z</time></trkpt><trkpt lat="44.1945686" lon="10.6231123"><ele>825.0</ele><time>2026-05-03T10:50:50.112Z</time></trkpt><trkpt lat="44.1946512" lon="10.6231074"><ele>825.0</ele><time>2026-05-03T10:50:51.111Z</time></trkpt><trkpt lat="44.1947374" lon="10.6230597"><ele>825.0</ele><time>2026-05-03T10:50:52.112Z</time></trkpt><trkpt lat="44.1948116" lon="10.6229804"><ele>825.0</ele><time>2026-05-03T10:50:53.112Z</time></trkpt><trkpt lat="44.1948662" lon="10.6228891"><ele>825.0</ele><time>2026-05-03T10:50:54.112Z</time></trkpt><trkpt lat="44.194901" lon="10.6227787"><ele>823.0</ele><time>2026-05-03T10:50:55.111Z</time></trkpt><trkpt lat="44.1949411" lon="10.6226684"><ele>821.0</ele><time>2026-05-03T10:50:56.112Z</time></trkpt><trkpt lat="44.1949777" lon="10.6225554"><ele>819.0</ele><time>2026-05-03T10:50:57.111Z</time></trkpt><trkpt lat="44.1950239" lon="10.622444"><ele>817.0</ele><time>2026-05-03T10:50:58.111Z</time></trkpt><trkpt lat="44.1950647" lon="10.6223429"><ele>815.0</ele><time>2026-05-03T10:50:59.112Z</time></trkpt><trkpt lat="44.1951162" lon="10.6222462"><ele>813.0</ele><time>2026-05-03T10:51:00.112Z</time></trkpt><trkpt lat="44.1951752" lon="10.6221498"><ele>813.0</ele><time>2026-05-03T10:51:01.111Z</time></trkpt><trkpt lat="44.1952322" lon="10.6220474"><ele>813.0</ele><time>2026-05-03T10:51:02.111Z</time></trkpt><trkpt lat="44.1952937" lon="10.6219534"><ele>813.0</ele><time>2026-05-03T10:51:03.111Z</time></trkpt><trkpt lat="44.1953656" lon="10.6218581"><ele>813.0</ele><time>2026-05-03T10:51:04.111Z</time></trkpt><trkpt lat="44.1954309" lon="10.6217677"><ele>813.0</ele><time>2026-05-03T10:51:05.112Z</time></trkpt><trkpt lat="44.1954825" lon="10.6216807"><ele>814.2</ele><time>2026-05-03T10:51:06.111Z</time></trkpt><trkpt lat="44.1955129" lon="10.6216008"><ele>815.4</ele><time>2026-05-03T10:51:07.112Z</time></trkpt><trkpt lat="44.1955291" lon="10.6215109"><ele>816.6</ele><time>2026-05-03T10:51:08.112Z</time></trkpt><trkpt lat="44.19549" lon="10.6213573"><ele>817.8000000000001</ele><time>2026-05-03T10:51:10.111Z</time></trkpt><trkpt lat="44.1953917" lon="10.6212531"><ele>819.0</ele><time>2026-05-03T10:51:12.111Z</time></trkpt><trkpt lat="44.1953213" lon="10.6211947"><ele>816.3333333333334</ele><time>2026-05-03T10:51:13.112Z</time></trkpt><trkpt lat="44.1952691" lon="10.6211238"><ele>813.6666666666667</ele><time>2026-05-03T10:51:14.112Z</time></trkpt><trkpt lat="44.1952127" lon="10.6210379"><ele>811.0</ele><time>2026-05-03T10:51:15.112Z</time></trkpt><trkpt lat="44.195164" lon="10.6209557"><ele>808.3333333333334</ele><time>2026-05-03T10:51:16.111Z</time></trkpt><trkpt lat="44.1951078" lon="10.6208654"><ele>805.6666666666667</ele><time>2026-05-03T10:51:17.112Z</time></trkpt><trkpt lat="44.195058" lon="10.6207717"><ele>803.0</ele><time>2026-05-03T10:51:18.111Z</time></trkpt><trkpt lat="44.1950139" lon="10.6206704"><ele>803.0000000000001</ele><time>2026-05-03T10:51:19.111Z</time></trkpt><trkpt lat="44.194963" lon="10.6205613"><ele>803.0</ele><time>2026-05-03T10:51:20.111Z</time></trkpt><trkpt lat="44.1949335" lon="10.6204342"><ele>803.0</ele><time>2026-05-03T10:51:21.111Z</time></trkpt><trkpt lat="44.1949231" lon="10.6203056"><ele>803.0</ele><time>2026-05-03T10:51:22.112Z</time></trkpt><trkpt lat="44.1949194" lon="10.6201855"><ele>803.0000000000001</ele><time>2026-05-03T10:51:23.112Z</time></trkpt><trkpt lat="44.1949191" lon="10.6200761"><ele>803.0</ele><time>2026-05-03T10:51:24.111Z</time></trkpt><trkpt lat="44.1949168" lon="10.6199825"><ele>801.8333333333334</ele><time>2026-05-03T10:51:25.111Z</time></trkpt><trkpt lat="44.1949506" lon="10.6198506"><ele>800.6666666666667</ele><time>2026-05-03T10:51:27.112Z</time></trkpt><trkpt lat="44.1950395" lon="10.6197864"><ele>799.5</ele><time>2026-05-03T10:51:29.111Z</time></trkpt><trkpt lat="44.1951078" lon="10.6197962"><ele>798.3333333333333</ele><time>2026-05-03T10:51:30.112Z</time></trkpt><trkpt lat="44.1951762" lon="10.6198287"><ele>797.1666666666666</ele><time>2026-05-03T10:51:31.111Z</time></trkpt><trkpt lat="44.1952439" lon="10.6199271"><ele>796.0</ele><time>2026-05-03T10:51:32.111Z</time></trkpt><trkpt lat="44.1953078" lon="10.6200603"><ele>796.0</ele><time>2026-05-03T10:51:33.112Z</time></trkpt><trkpt lat="44.1953725" lon="10.6202285"><ele>796.0</ele><time>2026-05-03T10:51:34.112Z</time></trkpt><trkpt lat="44.1954479" lon="10.6204148"><ele>796.0</ele><time>2026-05-03T10:51:35.112Z</time></trkpt><trkpt lat="44.1955319" lon="10.6205994"><ele>796.0</ele><time>2026-05-03T10:51:36.111Z</time></trkpt><trkpt lat="44.1956387" lon="10.6207865"><ele>793.0</ele><time>2026-05-03T10:51:37.112Z</time></trkpt><trkpt lat="44.1957708" lon="10.6209659"><ele>790.0</ele><time>2026-05-03T10:51:38.112Z</time></trkpt><trkpt lat="44.1959166" lon="10.6211313"><ele>787.0</ele><time>2026-05-03T10:51:39.112Z</time></trkpt><trkpt lat="44.1960824" lon="10.6212563"><ele>787.0</ele><time>2026-05-03T10:51:40.111Z</time></trkpt><trkpt lat="44.1962694" lon="10.6213528"><ele>787.0</ele><time>2026-05-03T10:51:41.111Z</time></trkpt><trkpt lat="44.1964654" lon="10.6214501"><ele>787.0</ele><time>2026-05-03T10:51:42.111Z</time></trkpt><trkpt lat="44.1966647" lon="10.6215252"><ele>781.3333333333333</ele><time>2026-05-03T10:51:43.112Z</time></trkpt><trkpt lat="44.1968652" lon="10.6215939"><ele>775.6666666666667</ele><time>2026-05-03T10:51:44.111Z</time></trkpt><trkpt lat="44.1970567" lon="10.6216655"><ele>770.0</ele><time>2026-05-03T10:51:45.111Z</time></trkpt><trkpt lat="44.1972429" lon="10.6217289"><ele>770.3333333333334</ele><time>2026-05-03T10:51:46.112Z</time></trkpt><trkpt lat="44.1974235" lon="10.6217702"><ele>770.6666666666667</ele><time>2026-05-03T10:51:47.111Z</time></trkpt><trkpt lat="44.1975994" lon="10.6217865"><ele>771.0</ele><time>2026-05-03T10:51:48.111Z</time></trkpt><trkpt lat="44.1977874" lon="10.6217769"><ele>771.0</ele><time>2026-05-03T10:51:49.112Z</time></trkpt><trkpt lat="44.1979785" lon="10.6217436"><ele>771.0</ele><time>2026-05-03T10:51:50.111Z</time></trkpt><trkpt lat="44.1981719" lon="10.6216903"><ele>771.0</ele><time>2026-05-03T10:51:51.111Z</time></trkpt><trkpt lat="44.1983677" lon="10.6216218"><ele>771.3333333333333</ele><time>2026-05-03T10:51:52.112Z</time></trkpt><trkpt lat="44.1985748" lon="10.6215493"><ele>771.6666666666666</ele><time>2026-05-03T10:51:53.112Z</time></trkpt><trkpt lat="44.198773" lon="10.6214721"><ele>772.0</ele><time>2026-05-03T10:51:54.112Z</time></trkpt><trkpt lat="44.1989697" lon="10.6214009"><ele>774.3333333333333</ele><time>2026-05-03T10:51:55.111Z</time></trkpt><trkpt lat="44.1991667" lon="10.621331"><ele>776.6666666666667</ele><time>2026-05-03T10:51:56.112Z</time></trkpt><trkpt lat="44.1993619" lon="10.6212636"><ele>779.0</ele><time>2026-05-03T10:51:57.112Z</time></trkpt><trkpt lat="44.1995552" lon="10.6211988"><ele>773.6666666666667</ele><time>2026-05-03T10:51:58.112Z</time></trkpt><trkpt lat="44.1997459" lon="10.6211332"><ele>768.3333333333334</ele><time>2026-05-03T10:51:59.112Z</time></trkpt><trkpt lat="44.1999342" lon="10.6210594"><ele>763.0</ele><time>2026-05-03T10:52:00.112Z</time></trkpt><trkpt lat="44.2001202" lon="10.6209859"><ele>763.0</ele><time>2026-05-03T10:52:01.111Z</time></trkpt><trkpt lat="44.2002949" lon="10.6209039"><ele>763.0</ele><time>2026-05-03T10:52:02.112Z</time></trkpt><trkpt lat="44.2004723" lon="10.6208301"><ele>763.0</ele><time>2026-05-03T10:52:03.111Z</time></trkpt><trkpt lat="44.2006454" lon="10.6207744"><ele>766.0</ele><time>2026-05-03T10:52:04.112Z</time></trkpt><trkpt lat="44.200813" lon="10.6207089"><ele>769.0</ele><time>2026-05-03T10:52:05.112Z</time></trkpt><trkpt lat="44.2009857" lon="10.6206632"><ele>772.0</ele><time>2026-05-03T10:52:06.111Z</time></trkpt><trkpt lat="44.2011528" lon="10.62062"><ele>772.0</ele><time>2026-05-03T10:52:07.112Z</time></trkpt><trkpt lat="44.201311" lon="10.620589"><ele>772.0</ele><time>2026-05-03T10:52:08.112Z</time></trkpt><trkpt lat="44.2014564" lon="10.6205452"><ele>772.0</ele><time>2026-05-03T10:52:09.112Z</time></trkpt><trkpt lat="44.2016021" lon="10.6204942"><ele>773.25</ele><time>2026-05-03T10:52:10.111Z</time></trkpt><trkpt lat="44.201738" lon="10.6204247"><ele>774.5</ele><time>2026-05-03T10:52:11.112Z</time></trkpt><trkpt lat="44.2018675" lon="10.6203388"><ele>775.75</ele><time>2026-05-03T10:52:12.111Z</time></trkpt><trkpt lat="44.2019856" lon="10.6202544"><ele>777.0</ele><time>2026-05-03T10:52:13.112Z</time></trkpt><trkpt lat="44.2020918" lon="10.6201769"><ele>772.4000000000001</ele><time>2026-05-03T10:52:14.112Z</time></trkpt><trkpt lat="44.2021911" lon="10.620105"><ele>767.8000000000001</ele><time>2026-05-03T10:52:15.112Z</time></trkpt><trkpt lat="44.2022853" lon="10.6200554"><ele>763.2</ele><time>2026-05-03T10:52:16.112Z</time></trkpt><trkpt lat="44.202377" lon="10.6200487"><ele>758.6</ele><time>2026-05-03T10:52:17.111Z</time></trkpt><trkpt lat="44.2024575" lon="10.6200692"><ele>754.0</ele><time>2026-05-03T10:52:18.111Z</time></trkpt><trkpt lat="44.2025333" lon="10.6200893"><ele>753.5</ele><time>2026-05-03T10:52:19.111Z</time></trkpt><trkpt lat="44.2026091" lon="10.6200924"><ele>753.0</ele><time>2026-05-03T10:52:20.112Z</time></trkpt><trkpt lat="44.202676" lon="10.6200549"><ele>752.5</ele><time>2026-05-03T10:52:21.112Z</time></trkpt><trkpt lat="44.202726" lon="10.6199867"><ele>752.0</ele><time>2026-05-03T10:52:22.111Z</time></trkpt><trkpt lat="44.2027708" lon="10.6198917"><ele>751.5</ele><time>2026-05-03T10:52:23.111Z</time></trkpt><trkpt lat="44.202826" lon="10.619805"><ele>751.0</ele><time>2026-05-03T10:52:24.111Z</time></trkpt><trkpt lat="44.2029072" lon="10.6197633"><ele>751.0</ele><time>2026-05-03T10:52:25.111Z</time></trkpt><trkpt lat="44.2030087" lon="10.619769"><ele>751.0</ele><time>2026-05-03T10:52:26.112Z</time></trkpt><trkpt lat="44.2031276" lon="10.6198004"><ele>751.0</ele><time>2026-05-03T10:52:27.112Z</time></trkpt><trkpt lat="44.2032654" lon="10.6198234"><ele>751.0</ele><time>2026-05-03T10:52:28.111Z</time></trkpt><trkpt lat="44.2034028" lon="10.6198555"><ele>751.0</ele><time>2026-05-03T10:52:29.112Z</time></trkpt><trkpt lat="44.2035562" lon="10.61989"><ele>751.0</ele><time>2026-05-03T10:52:30.111Z</time></trkpt><trkpt lat="44.2037093" lon="10.6199333"><ele>751.0</ele><time>2026-05-03T10:52:31.112Z</time></trkpt><trkpt lat="44.2038723" lon="10.61998"><ele>750.0</ele><time>2026-05-03T10:52:32.112Z</time></trkpt><trkpt lat="44.2040374" lon="10.6200372"><ele>749.0</ele><time>2026-05-03T10:52:33.111Z</time></trkpt><trkpt lat="44.2042095" lon="10.6201045"><ele>748.0</ele><time>2026-05-03T10:52:34.111Z</time></trkpt><trkpt lat="44.2043812" lon="10.6201953"><ele>748.0</ele><time>2026-05-03T10:52:35.112Z</time></trkpt><trkpt lat="44.2045574" lon="10.6203129"><ele>748.0</ele><time>2026-05-03T10:52:36.112Z</time></trkpt><trkpt lat="44.2047189" lon="10.6204617"><ele>748.0</ele><time>2026-05-03T10:52:37.112Z</time></trkpt><trkpt lat="44.204884" lon="10.6206327"><ele>748.0</ele><time>2026-05-03T10:52:38.111Z</time></trkpt><trkpt lat="44.2050469" lon="10.6208173"><ele>748.0</ele><time>2026-05-03T10:52:39.111Z</time></trkpt><trkpt lat="44.2052195" lon="10.6210457"><ele>748.0</ele><time>2026-05-03T10:52:40.111Z</time></trkpt><trkpt lat="44.2053993" lon="10.6212739"><ele>748.0</ele><time>2026-05-03T10:52:41.112Z</time></trkpt><trkpt lat="44.2055968" lon="10.6215118"><ele>748.0</ele><time>2026-05-03T10:52:42.111Z</time></trkpt><trkpt lat="44.2057928" lon="10.6217573"><ele>749.0</ele><time>2026-05-03T10:52:43.111Z</time></trkpt><trkpt lat="44.2059938" lon="10.6219716"><ele>750.0</ele><time>2026-05-03T10:52:44.112Z</time></trkpt><trkpt lat="44.2061998" lon="10.6221809"><ele>750.0</ele><time>2026-05-03T10:52:45.111Z</time></trkpt><trkpt lat="44.2064058" lon="10.6223651"><ele>750.0</ele><time>2026-05-03T10:52:46.111Z</time></trkpt><trkpt lat="44.206608" lon="10.6225175"><ele>750.0</ele><time>2026-05-03T10:52:47.112Z</time></trkpt><trkpt lat="44.2068079" lon="10.6226511"><ele>750.0</ele><time>2026-05-03T10:52:48.112Z</time></trkpt><trkpt lat="44.2070053" lon="10.6227574"><ele>750.0</ele><time>2026-05-03T10:52:49.112Z</time></trkpt><trkpt lat="44.2072065" lon="10.6228397"><ele>749.0</ele><time>2026-05-03T10:52:50.112Z</time></trkpt><trkpt lat="44.2074137" lon="10.6229082"><ele>748.0</ele><time>2026-05-03T10:52:51.111Z</time></trkpt><trkpt lat="44.2076177" lon="10.6229646"><ele>747.0</ele><time>2026-05-03T10:52:52.112Z</time></trkpt><trkpt lat="44.2078181" lon="10.6230173"><ele>747.0</ele><time>2026-05-03T10:52:53.112Z</time></trkpt><trkpt lat="44.2080256" lon="10.6230732"><ele>747.0</ele><time>2026-05-03T10:52:54.112Z</time></trkpt><trkpt lat="44.2082322" lon="10.62313"><ele>747.0</ele><time>2026-05-03T10:52:55.111Z</time></trkpt><trkpt lat="44.2084442" lon="10.6231933"><ele>745.6666666666666</ele><time>2026-05-03T10:52:56.111Z</time></trkpt><trkpt lat="44.2086463" lon="10.6232414"><ele>744.3333333333333</ele><time>2026-05-03T10:52:57.112Z</time></trkpt><trkpt lat="44.2088423" lon="10.6232931"><ele>743.0</ele><time>2026-05-03T10:52:58.111Z</time></trkpt><trkpt lat="44.2090307" lon="10.6233387"><ele>743.0</ele><time>2026-05-03T10:52:59.112Z</time></trkpt><trkpt lat="44.2092147" lon="10.6233902"><ele>743.0</ele><time>2026-05-03T10:53:00.112Z</time></trkpt><trkpt lat="44.2093869" lon="10.6234366"><ele>743.0</ele><time>2026-05-03T10:53:01.112Z</time></trkpt><trkpt lat="44.2095529" lon="10.6234817"><ele>743.0</ele><time>2026-05-03T10:53:02.111Z</time></trkpt><trkpt lat="44.2097186" lon="10.6235278"><ele>743.0</ele><time>2026-05-03T10:53:03.111Z</time></trkpt><trkpt lat="44.2098785" lon="10.6235777"><ele>743.0</ele><time>2026-05-03T10:53:04.112Z</time></trkpt><trkpt lat="44.2100427" lon="10.6236277"><ele>749.6666666666666</ele><time>2026-05-03T10:53:05.111Z</time></trkpt><trkpt lat="44.2102026" lon="10.6236781"><ele>756.3333333333334</ele><time>2026-05-03T10:53:06.112Z</time></trkpt><trkpt lat="44.2103611" lon="10.6237286"><ele>763.0</ele><time>2026-05-03T10:53:07.111Z</time></trkpt><trkpt lat="44.2105163" lon="10.6237777"><ele>756.5</ele><time>2026-05-03T10:53:08.111Z</time></trkpt><trkpt lat="44.2106658" lon="10.6238281"><ele>750.0</ele><time>2026-05-03T10:53:09.111Z</time></trkpt><trkpt lat="44.2108095" lon="10.6238782"><ele>743.5</ele><time>2026-05-03T10:53:10.112Z</time></trkpt><trkpt lat="44.2109486" lon="10.6239226"><ele>737.0</ele><time>2026-05-03T10:53:11.111Z</time></trkpt><trkpt lat="44.21108" lon="10.6239643"><ele>737.0</ele><time>2026-05-03T10:53:12.111Z</time></trkpt><trkpt lat="44.2112096" lon="10.6240086"><ele>737.0</ele><time>2026-05-03T10:53:13.112Z</time></trkpt><trkpt lat="44.2113436" lon="10.6240478"><ele>737.0</ele><time>2026-05-03T10:53:14.111Z</time></trkpt><trkpt lat="44.2114873" lon="10.6240846"><ele>737.0</ele><time>2026-05-03T10:53:15.112Z</time></trkpt><trkpt lat="44.2116144" lon="10.6241423"><ele>737.6</ele><time>2026-05-03T10:53:16.112Z</time></trkpt><trkpt lat="44.2117182" lon="10.6241975"><ele>738.2</ele><time>2026-05-03T10:53:17.111Z</time></trkpt><trkpt lat="44.2118172" lon="10.6242622"><ele>738.8</ele><time>2026-05-03T10:53:18.111Z</time></trkpt><trkpt lat="44.2119106" lon="10.6243232"><ele>739.4</ele><time>2026-05-03T10:53:19.111Z</time></trkpt><trkpt lat="44.2120071" lon="10.6243762"><ele>740.0</ele><time>2026-05-03T10:53:20.111Z</time></trkpt><trkpt lat="44.2120908" lon="10.6244542"><ele>738.0</ele><time>2026-05-03T10:53:21.111Z</time></trkpt><trkpt lat="44.2121641" lon="10.6245476"><ele>736.0</ele><time>2026-05-03T10:53:22.112Z</time></trkpt><trkpt lat="44.212216" lon="10.6246742"><ele>734.0</ele><time>2026-05-03T10:53:23.112Z</time></trkpt><trkpt lat="44.2122493" lon="10.6248374"><ele>732.0</ele><time>2026-05-03T10:53:24.111Z</time></trkpt><trkpt lat="44.2122778" lon="10.6250266"><ele>732.0</ele><time>2026-05-03T10:53:25.112Z</time></trkpt><trkpt lat="44.2122953" lon="10.625248"><ele>732.0</ele><time>2026-05-03T10:53:26.112Z</time></trkpt><trkpt lat="44.2122939" lon="10.6254791"><ele>732.0</ele><time>2026-05-03T10:53:27.112Z</time></trkpt><trkpt lat="44.2122793" lon="10.6257203"><ele>732.3333333333334</ele><time>2026-05-03T10:53:28.112Z</time></trkpt><trkpt lat="44.212249" lon="10.6259521"><ele>732.6666666666667</ele><time>2026-05-03T10:53:29.112Z</time></trkpt><trkpt lat="44.2121976" lon="10.6261594"><ele>733.0</ele><time>2026-05-03T10:53:30.111Z</time></trkpt><trkpt lat="44.2121566" lon="10.6263676"><ele>734.75</ele><time>2026-05-03T10:53:31.111Z</time></trkpt><trkpt lat="44.2121285" lon="10.6265856"><ele>736.5</ele><time>2026-05-03T10:53:32.111Z</time></trkpt><trkpt lat="44.2121178" lon="10.626783"><ele>738.25</ele><time>2026-05-03T10:53:33.112Z</time></trkpt><trkpt lat="44.2121418" lon="10.6269872"><ele>740.0</ele><time>2026-05-03T10:53:34.112Z</time></trkpt><trkpt lat="44.2121723" lon="10.6271815"><ele>743.3333333333333</ele><time>2026-05-03T10:53:35.111Z</time></trkpt><trkpt lat="44.2122347" lon="10.6273755"><ele>746.6666666666666</ele><time>2026-05-03T10:53:36.111Z</time></trkpt><trkpt lat="44.2123438" lon="10.6276804"><ele>750.0</ele><time>2026-05-03T10:53:37.511Z</time></trkpt><trkpt lat="44.212489" lon="10.6280121"><ele>750.0</ele><time>2026-05-03T10:53:39.121Z</time></trkpt><trkpt lat="44.2125632" lon="10.6282204"><ele>750.0</ele><time>2026-05-03T10:53:40.122Z</time></trkpt><trkpt lat="44.2126324" lon="10.6284279"><ele>750.0</ele><time>2026-05-03T10:53:41.122Z</time></trkpt><trkpt lat="44.2127088" lon="10.6286365"><ele>747.3333333333334</ele><time>2026-05-03T10:53:42.122Z</time></trkpt><trkpt lat="44.2127799" lon="10.6288352"><ele>744.6666666666667</ele><time>2026-05-03T10:53:43.122Z</time></trkpt><trkpt lat="44.2128501" lon="10.6290303"><ele>742.0</ele><time>2026-05-03T10:53:44.121Z</time></trkpt><trkpt lat="44.2129149" lon="10.6292172"><ele>742.0</ele><time>2026-05-03T10:53:45.122Z</time></trkpt><trkpt lat="44.2129907" lon="10.6293883"><ele>742.0</ele><time>2026-05-03T10:53:46.121Z</time></trkpt><trkpt lat="44.2130827" lon="10.6295252"><ele>742.0</ele><time>2026-05-03T10:53:47.121Z</time></trkpt><trkpt lat="44.2131872" lon="10.6296209"><ele>742.0</ele><time>2026-05-03T10:53:48.122Z</time></trkpt><trkpt lat="44.2133035" lon="10.6296651"><ele>739.25</ele><time>2026-05-03T10:53:49.122Z</time></trkpt><trkpt lat="44.2134315" lon="10.6296461"><ele>736.5</ele><time>2026-05-03T10:53:50.122Z</time></trkpt><trkpt lat="44.2135767" lon="10.6295978"><ele>733.75</ele><time>2026-05-03T10:53:51.121Z</time></trkpt><trkpt lat="44.2137403" lon="10.6295346"><ele>731.0</ele><time>2026-05-03T10:53:52.121Z</time></trkpt><trkpt lat="44.2139296" lon="10.6294702"><ele>736.6666666666666</ele><time>2026-05-03T10:53:53.122Z</time></trkpt><trkpt lat="44.214131" lon="10.6294062"><ele>742.3333333333334</ele><time>2026-05-03T10:53:54.122Z</time></trkpt><trkpt lat="44.2143162" lon="10.6293507"><ele>748.0</ele><time>2026-05-03T10:53:55.122Z</time></trkpt><trkpt lat="44.214494" lon="10.629301"><ele>748.0</ele><time>2026-05-03T10:53:56.122Z</time></trkpt><trkpt lat="44.2146633" lon="10.6292751"><ele>748.0</ele><time>2026-05-03T10:53:57.121Z</time></trkpt><trkpt lat="44.2148294" lon="10.6292862"><ele>748.0</ele><time>2026-05-03T10:53:58.121Z</time></trkpt><trkpt lat="44.2149785" lon="10.6293448"><ele>748.5</ele><time>2026-05-03T10:53:59.122Z</time></trkpt><trkpt lat="44.2151081" lon="10.6294546"><ele>749.0</ele><time>2026-05-03T10:54:00.121Z</time></trkpt><trkpt lat="44.2152134" lon="10.6296066"><ele>749.5</ele><time>2026-05-03T10:54:01.121Z</time></trkpt><trkpt lat="44.2152745" lon="10.6297564"><ele>750.0</ele><time>2026-05-03T10:54:02.122Z</time></trkpt><trkpt lat="44.2152939" lon="10.6299091"><ele>747.2</ele><time>2026-05-03T10:54:03.121Z</time></trkpt><trkpt lat="44.2152846" lon="10.630079"><ele>744.4</ele><time>2026-05-03T10:54:04.122Z</time></trkpt><trkpt lat="44.2152688" lon="10.6302384"><ele>741.5999999999999</ele><time>2026-05-03T10:54:05.122Z</time></trkpt><trkpt lat="44.2152637" lon="10.6303554"><ele>738.8</ele><time>2026-05-03T10:54:06.122Z</time></trkpt><trkpt lat="44.2152573" lon="10.6304631"><ele>736.0</ele><time>2026-05-03T10:54:07.121Z</time></trkpt><trkpt lat="44.2152529" lon="10.6305604"><ele>736.0</ele><time>2026-05-03T10:54:08.122Z</time></trkpt><trkpt lat="44.2152679" lon="10.6306566"><ele>736.0</ele><time>2026-05-03T10:54:09.121Z</time></trkpt><trkpt lat="44.2153159" lon="10.6307319"><ele>736.0</ele><time>2026-05-03T10:54:10.121Z</time></trkpt><trkpt lat="44.2153906" lon="10.6307785"><ele>736.0</ele><time>2026-05-03T10:54:11.121Z</time></trkpt><trkpt lat="44.2154949" lon="10.6308027"><ele>736.0</ele><time>2026-05-03T10:54:12.121Z</time></trkpt><trkpt lat="44.2155912" lon="10.6308286"><ele>736.0</ele><time>2026-05-03T10:54:13.121Z</time></trkpt><trkpt lat="44.2156758" lon="10.6308501"><ele>736.5999999999999</ele><time>2026-05-03T10:54:14.121Z</time></trkpt><trkpt lat="44.2157579" lon="10.6308785"><ele>737.2</ele><time>2026-05-03T10:54:15.121Z</time></trkpt><trkpt lat="44.2158407" lon="10.6309198"><ele>737.8</ele><time>2026-05-03T10:54:16.122Z</time></trkpt><trkpt lat="44.215927" lon="10.6309873"><ele>738.4000000000001</ele><time>2026-05-03T10:54:17.122Z</time></trkpt><trkpt lat="44.2160176" lon="10.6310887"><ele>739.0</ele><time>2026-05-03T10:54:18.122Z</time></trkpt><trkpt lat="44.2161162" lon="10.6312062"><ele>740.5</ele><time>2026-05-03T10:54:19.122Z</time></trkpt><trkpt lat="44.2162385" lon="10.6313259"><ele>742.0</ele><time>2026-05-03T10:54:20.122Z</time></trkpt><trkpt lat="44.2163638" lon="10.6314362"><ele>743.5</ele><time>2026-05-03T10:54:21.121Z</time></trkpt><trkpt lat="44.2164882" lon="10.6315334"><ele>745.0</ele><time>2026-05-03T10:54:22.121Z</time></trkpt><trkpt lat="44.2166012" lon="10.6316244"><ele>745.0</ele><time>2026-05-03T10:54:23.121Z</time></trkpt><trkpt lat="44.2167127" lon="10.6317194"><ele>745.0</ele><time>2026-05-03T10:54:24.121Z</time></trkpt><trkpt lat="44.2168109" lon="10.6318304"><ele>745.0</ele><time>2026-05-03T10:54:25.122Z</time></trkpt><trkpt lat="44.2168965" lon="10.6319742"><ele>745.0</ele><time>2026-05-03T10:54:26.122Z</time></trkpt><trkpt lat="44.216976" lon="10.6321393"><ele>753.5</ele><time>2026-05-03T10:54:27.122Z</time></trkpt><trkpt lat="44.2170678" lon="10.6323027"><ele>762.0</ele><time>2026-05-03T10:54:28.122Z</time></trkpt><trkpt lat="44.2170855" lon="10.6324786"><ele>770.5</ele><time>2026-05-03T10:54:29.121Z</time></trkpt><trkpt lat="44.2171176" lon="10.6326582"><ele>779.0</ele><time>2026-05-03T10:54:30.122Z</time></trkpt><trkpt lat="44.217161" lon="10.6328166"><ele>773.25</ele><time>2026-05-03T10:54:31.122Z</time></trkpt><trkpt lat="44.2172309" lon="10.6329553"><ele>767.5</ele><time>2026-05-03T10:54:32.122Z</time></trkpt><trkpt lat="44.2173061" lon="10.6330837"><ele>761.75</ele><time>2026-05-03T10:54:33.121Z</time></trkpt><trkpt lat="44.2174046" lon="10.6331576"><ele>756.0</ele><time>2026-05-03T10:54:34.121Z</time></trkpt><trkpt lat="44.2175098" lon="10.633245"><ele>756.0</ele><time>2026-05-03T10:54:35.121Z</time></trkpt><trkpt lat="44.2176056" lon="10.6333792"><ele>756.0</ele><time>2026-05-03T10:54:36.122Z</time></trkpt><trkpt lat="44.2177094" lon="10.6335338"><ele>756.0</ele><time>2026-05-03T10:54:37.122Z</time></trkpt><trkpt lat="44.2178298" lon="10.6337165"><ele>753.3333333333334</ele><time>2026-05-03T10:54:38.122Z</time></trkpt><trkpt lat="44.2179458" lon="10.6338845"><ele>750.6666666666667</ele><time>2026-05-03T10:54:39.122Z</time></trkpt><trkpt lat="44.2180605" lon="10.6340471"><ele>748.0</ele><time>2026-05-03T10:54:40.121Z</time></trkpt><trkpt lat="44.2182026" lon="10.6341667"><ele>748.0</ele><time>2026-05-03T10:54:41.122Z</time></trkpt><trkpt lat="44.2183593" lon="10.6342591"><ele>748.0</ele><time>2026-05-03T10:54:42.122Z</time></trkpt><trkpt lat="44.2185141" lon="10.6343145"><ele>748.0</ele><time>2026-05-03T10:54:43.122Z</time></trkpt><trkpt lat="44.2186652" lon="10.6343316"><ele>748.0</ele><time>2026-05-03T10:54:44.121Z</time></trkpt><trkpt lat="44.21882" lon="10.6343298"><ele>748.0</ele><time>2026-05-03T10:54:45.122Z</time></trkpt><trkpt lat="44.2189717" lon="10.634339"><ele>748.0</ele><time>2026-05-03T10:54:46.121Z</time></trkpt><trkpt lat="44.2191047" lon="10.6343549"><ele>748.0</ele><time>2026-05-03T10:54:47.122Z</time></trkpt><trkpt lat="44.2192361" lon="10.6343924"><ele>754.0</ele><time>2026-05-03T10:54:48.122Z</time></trkpt><trkpt lat="44.2193679" lon="10.6344888"><ele>760.0</ele><time>2026-05-03T10:54:49.122Z</time></trkpt><trkpt lat="44.2194976" lon="10.6345806"><ele>766.0</ele><time>2026-05-03T10:54:50.121Z</time></trkpt><trkpt lat="44.219633" lon="10.6346253"><ele>772.0</ele><time>2026-05-03T10:54:51.122Z</time></trkpt><trkpt lat="44.2197742" lon="10.6346467"><ele>769.25</ele><time>2026-05-03T10:54:52.121Z</time></trkpt><trkpt lat="44.2199199" lon="10.6346536"><ele>766.5</ele><time>2026-05-03T10:54:53.121Z</time></trkpt><trkpt lat="44.2200676" lon="10.6346493"><ele>763.75</ele><time>2026-05-03T10:54:54.122Z</time></trkpt><trkpt lat="44.2201999" lon="10.6346933"><ele>761.0</ele><time>2026-05-03T10:54:55.121Z</time></trkpt><trkpt lat="44.2203316" lon="10.6347523"><ele>761.0</ele><time>2026-05-03T10:54:56.122Z</time></trkpt><trkpt lat="44.2204254" lon="10.6349202"><ele>761.0</ele><time>2026-05-03T10:54:57.122Z</time></trkpt><trkpt lat="44.2205193" lon="10.6350409"><ele>761.0</ele><time>2026-05-03T10:54:58.121Z</time></trkpt><trkpt lat="44.2205604" lon="10.6352524"><ele>761.0</ele><time>2026-05-03T10:54:59.121Z</time></trkpt><trkpt lat="44.2206166" lon="10.635441"><ele>761.3333333333333</ele><time>2026-05-03T10:55:00.121Z</time></trkpt><trkpt lat="44.2206708" lon="10.6356291"><ele>761.6666666666666</ele><time>2026-05-03T10:55:01.122Z</time></trkpt><trkpt lat="44.2207559" lon="10.6357809"><ele>762.0</ele><time>2026-05-03T10:55:02.121Z</time></trkpt><trkpt lat="44.2209257" lon="10.6358788"><ele>762.0</ele><time>2026-05-03T10:55:03.122Z</time></trkpt><trkpt lat="44.2210525" lon="10.6360174"><ele>762.0</ele><time>2026-05-03T10:55:04.122Z</time></trkpt><trkpt lat="44.2212291" lon="10.6361909"><ele>762.0</ele><time>2026-05-03T10:55:05.121Z</time></trkpt><trkpt lat="44.2213817" lon="10.6363383"><ele>762.0</ele><time>2026-05-03T10:55:06.121Z</time></trkpt><trkpt lat="44.2215521" lon="10.6364583"><ele>762.0</ele><time>2026-05-03T10:55:07.121Z</time></trkpt><trkpt lat="44.2217386" lon="10.636536"><ele>762.0</ele><time>2026-05-03T10:55:08.122Z</time></trkpt><trkpt lat="44.2219188" lon="10.6366222"><ele>762.0</ele><time>2026-05-03T10:55:09.121Z</time></trkpt><trkpt lat="44.2220816" lon="10.6367349"><ele>762.0</ele><time>2026-05-03T10:55:10.121Z</time></trkpt><trkpt lat="44.2222337" lon="10.6368634"><ele>762.0</ele><time>2026-05-03T10:55:11.122Z</time></trkpt><trkpt lat="44.2223771" lon="10.6370091"><ele>766.3333333333333</ele><time>2026-05-03T10:55:12.122Z</time></trkpt><trkpt lat="44.2225163" lon="10.6371404"><ele>770.6666666666666</ele><time>2026-05-03T10:55:13.122Z</time></trkpt><trkpt lat="44.2226674" lon="10.637252"><ele>775.0</ele><time>2026-05-03T10:55:14.121Z</time></trkpt><trkpt lat="44.2228338" lon="10.6373121"><ele>775.0</ele><time>2026-05-03T10:55:15.122Z</time></trkpt><trkpt lat="44.2230184" lon="10.6373623"><ele>775.0</ele><time>2026-05-03T10:55:16.122Z</time></trkpt><trkpt lat="44.2232109" lon="10.637409"><ele>775.0</ele><time>2026-05-03T10:55:17.121Z</time></trkpt><trkpt lat="44.2233937" lon="10.637439"><ele>768.3333333333333</ele><time>2026-05-03T10:55:18.121Z</time></trkpt><trkpt lat="44.2235695" lon="10.6374641"><ele>761.6666666666666</ele><time>2026-05-03T10:55:19.121Z</time></trkpt><trkpt lat="44.2237376" lon="10.6374754"><ele>755.0</ele><time>2026-05-03T10:55:20.122Z</time></trkpt><trkpt lat="44.2239013" lon="10.6374695"><ele>751.3333333333333</ele><time>2026-05-03T10:55:21.122Z</time></trkpt><trkpt lat="44.2240634" lon="10.6374708"><ele>747.6666666666666</ele><time>2026-05-03T10:55:22.121Z</time></trkpt><trkpt lat="44.2242223" lon="10.6374964"><ele>744.0</ele><time>2026-05-03T10:55:23.122Z</time></trkpt><trkpt lat="44.2243796" lon="10.6375362"><ele>744.0</ele><time>2026-05-03T10:55:24.122Z</time></trkpt><trkpt lat="44.2245237" lon="10.6376226"><ele>744.0</ele><time>2026-05-03T10:55:25.122Z</time></trkpt><trkpt lat="44.2246499" lon="10.6377404"><ele>744.0</ele><time>2026-05-03T10:55:26.122Z</time></trkpt><trkpt lat="44.224751" lon="10.6378957"><ele>747.6666666666666</ele><time>2026-05-03T10:55:27.121Z</time></trkpt><trkpt lat="44.2248521" lon="10.6380589"><ele>751.3333333333333</ele><time>2026-05-03T10:55:28.12Z</time></trkpt><trkpt lat="44.2249804" lon="10.6382138"><ele>755.0</ele><time>2026-05-03T10:55:29.122Z</time></trkpt><trkpt lat="44.2251287" lon="10.6383507"><ele>755.0</ele><time>2026-05-03T10:55:30.122Z</time></trkpt><trkpt lat="44.2252797" lon="10.6384776"><ele>755.0</ele><time>2026-05-03T10:55:31.121Z</time></trkpt><trkpt lat="44.2254286" lon="10.6386526"><ele>755.0</ele><time>2026-05-03T10:55:32.122Z</time></trkpt><trkpt lat="44.2255659" lon="10.6388297"><ele>752.6666666666666</ele><time>2026-05-03T10:55:33.122Z</time></trkpt><trkpt lat="44.2256966" lon="10.6390028"><ele>750.3333333333334</ele><time>2026-05-03T10:55:34.122Z</time></trkpt><trkpt lat="44.2258178" lon="10.6391583"><ele>748.0</ele><time>2026-05-03T10:55:35.121Z</time></trkpt><trkpt lat="44.2258993" lon="10.6393182"><ele>752.25</ele><time>2026-05-03T10:55:36.122Z</time></trkpt><trkpt lat="44.2259515" lon="10.6395019"><ele>756.5</ele><time>2026-05-03T10:55:37.121Z</time></trkpt><trkpt lat="44.2259726" lon="10.6396904"><ele>760.75</ele><time>2026-05-03T10:55:38.121Z</time></trkpt><trkpt lat="44.226001" lon="10.6398591"><ele>765.0</ele><time>2026-05-03T10:55:39.122Z</time></trkpt><trkpt lat="44.2260352" lon="10.6400117"><ele>765.0</ele><time>2026-05-03T10:55:40.122Z</time></trkpt><trkpt lat="44.226146" lon="10.6401393"><ele>765.0</ele><time>2026-05-03T10:55:41.121Z</time></trkpt><trkpt lat="44.2262301" lon="10.6403008"><ele>765.0</ele><time>2026-05-03T10:55:42.121Z</time></trkpt><trkpt lat="44.2263055" lon="10.6405128"><ele>761.3333333333334</ele><time>2026-05-03T10:55:43.122Z</time></trkpt><trkpt lat="44.2263838" lon="10.640733"><ele>757.6666666666667</ele><time>2026-05-03T10:55:44.121Z</time></trkpt><trkpt lat="44.2264564" lon="10.6409471"><ele>754.0</ele><time>2026-05-03T10:55:45.122Z</time></trkpt><trkpt lat="44.226516" lon="10.6411452"><ele>754.0</ele><time>2026-05-03T10:55:46.121Z</time></trkpt><trkpt lat="44.2265734" lon="10.6413471"><ele>754.0</ele><time>2026-05-03T10:55:47.122Z</time></trkpt><trkpt lat="44.2266103" lon="10.6415244"><ele>754.0</ele><time>2026-05-03T10:55:48.122Z</time></trkpt><trkpt lat="44.2266615" lon="10.6416834"><ele>754.0</ele><time>2026-05-03T10:55:49.122Z</time></trkpt><trkpt lat="44.2267501" lon="10.6418038"><ele>754.0</ele><time>2026-05-03T10:55:50.122Z</time></trkpt><trkpt lat="44.2268595" lon="10.641873"><ele>754.0</ele><time>2026-05-03T10:55:51.122Z</time></trkpt><trkpt lat="44.2269836" lon="10.641925"><ele>754.0</ele><time>2026-05-03T10:55:52.122Z</time></trkpt><trkpt lat="44.227104" lon="10.6419766"><ele>754.0</ele><time>2026-05-03T10:55:53.122Z</time></trkpt><trkpt lat="44.2272104" lon="10.6420629"><ele>759.25</ele><time>2026-05-03T10:55:54.122Z</time></trkpt><trkpt lat="44.2272982" lon="10.6421924"><ele>764.5</ele><time>2026-05-03T10:55:55.121Z</time></trkpt><trkpt lat="44.2273545" lon="10.6423327"><ele>769.75</ele><time>2026-05-03T10:55:56.121Z</time></trkpt><trkpt lat="44.227399" lon="10.6424939"><ele>775.0</ele><time>2026-05-03T10:55:57.121Z</time></trkpt><trkpt lat="44.2273999" lon="10.6427081"><ele>766.0</ele><time>2026-05-03T10:55:58.121Z</time></trkpt><trkpt lat="44.227395" lon="10.6429177"><ele>757.0</ele><time>2026-05-03T10:55:59.122Z</time></trkpt><trkpt lat="44.2273987" lon="10.6431148"><ele>748.0</ele><time>2026-05-03T10:56:00.121Z</time></trkpt><trkpt lat="44.2273832" lon="10.6432962"><ele>739.0</ele><time>2026-05-03T10:56:01.121Z</time></trkpt><trkpt lat="44.2273689" lon="10.643482"><ele>740.25</ele><time>2026-05-03T10:56:02.122Z</time></trkpt><trkpt lat="44.2273399" lon="10.6436534"><ele>741.5</ele><time>2026-05-03T10:56:03.122Z</time></trkpt><trkpt lat="44.2273574" lon="10.6438294"><ele>742.75</ele><time>2026-05-03T10:56:04.122Z</time></trkpt><trkpt lat="44.2274099" lon="10.6440092"><ele>744.0</ele><time>2026-05-03T10:56:05.121Z</time></trkpt><trkpt lat="44.2275009" lon="10.6441975"><ele>744.0</ele><time>2026-05-03T10:56:06.121Z</time></trkpt><trkpt lat="44.2276014" lon="10.6444111"><ele>744.0</ele><time>2026-05-03T10:56:07.122Z</time></trkpt><trkpt lat="44.2276884" lon="10.6446259"><ele>744.0</ele><time>2026-05-03T10:56:08.122Z</time></trkpt><trkpt lat="44.2277591" lon="10.6448537"><ele>746.0</ele><time>2026-05-03T10:56:09.121Z</time></trkpt><trkpt lat="44.2278287" lon="10.6450647"><ele>748.0</ele><time>2026-05-03T10:56:10.121Z</time></trkpt><trkpt lat="44.2278824" lon="10.6452517"><ele>750.0</ele><time>2026-05-03T10:56:11.122Z</time></trkpt><trkpt lat="44.2279257" lon="10.6454148"><ele>752.0</ele><time>2026-05-03T10:56:12.122Z</time></trkpt><trkpt lat="44.2279372" lon="10.645561"><ele>752.8</ele><time>2026-05-03T10:56:13.122Z</time></trkpt><trkpt lat="44.2279044" lon="10.6456854"><ele>753.6</ele><time>2026-05-03T10:56:14.121Z</time></trkpt><trkpt lat="44.2278257" lon="10.6457852"><ele>754.4</ele><time>2026-05-03T10:56:15.122Z</time></trkpt><trkpt lat="44.2277417" lon="10.6458954"><ele>755.1999999999999</ele><time>2026-05-03T10:56:16.121Z</time></trkpt><trkpt lat="44.2276727" lon="10.646022"><ele>756.0</ele><time>2026-05-03T10:56:17.122Z</time></trkpt><trkpt lat="44.2276932" lon="10.646199"><ele>756.75</ele><time>2026-05-03T10:56:18.122Z</time></trkpt><trkpt lat="44.2277294" lon="10.6463514"><ele>757.5</ele><time>2026-05-03T10:56:19.121Z</time></trkpt><trkpt lat="44.2277996" lon="10.6464821"><ele>758.25</ele><time>2026-05-03T10:56:20.121Z</time></trkpt><trkpt lat="44.2279243" lon="10.6465646"><ele>759.0</ele><time>2026-05-03T10:56:21.122Z</time></trkpt><trkpt lat="44.2280359" lon="10.6466154"><ele>759.0</ele><time>2026-05-03T10:56:22.121Z</time></trkpt><trkpt lat="44.2281237" lon="10.6467058"><ele>759.0</ele><time>2026-05-03T10:56:23.122Z</time></trkpt><trkpt lat="44.2282045" lon="10.6468179"><ele>759.0</ele><time>2026-05-03T10:56:24.122Z</time></trkpt><trkpt lat="44.2282773" lon="10.6469617"><ele>759.0</ele><time>2026-05-03T10:56:25.122Z</time></trkpt><trkpt lat="44.2283488" lon="10.6471215"><ele>754.5</ele><time>2026-05-03T10:56:26.122Z</time></trkpt><trkpt lat="44.2284348" lon="10.6472833"><ele>750.0</ele><time>2026-05-03T10:56:27.121Z</time></trkpt><trkpt lat="44.2285277" lon="10.6474204"><ele>745.5</ele><time>2026-05-03T10:56:28.122Z</time></trkpt><trkpt lat="44.2285936" lon="10.6475647"><ele>741.0</ele><time>2026-05-03T10:56:29.122Z</time></trkpt><trkpt lat="44.2286548" lon="10.6477152"><ele>744.5</ele><time>2026-05-03T10:56:30.122Z</time></trkpt><trkpt lat="44.228652" lon="10.6479142"><ele>748.0</ele><time>2026-05-03T10:56:31.122Z</time></trkpt><trkpt lat="44.2286882" lon="10.6481003"><ele>751.5</ele><time>2026-05-03T10:56:32.121Z</time></trkpt><trkpt lat="44.2287412" lon="10.6482973"><ele>755.0</ele><time>2026-05-03T10:56:33.121Z</time></trkpt><trkpt lat="44.2288069" lon="10.6484802"><ele>755.0</ele><time>2026-05-03T10:56:34.122Z</time></trkpt><trkpt lat="44.2289268" lon="10.6486158"><ele>755.0</ele><time>2026-05-03T10:56:35.122Z</time></trkpt><trkpt lat="44.2290481" lon="10.6487329"><ele>755.0</ele><time>2026-05-03T10:56:36.121Z</time></trkpt><trkpt lat="44.2291896" lon="10.6487992"><ele>751.75</ele><time>2026-05-03T10:56:37.122Z</time></trkpt><trkpt lat="44.2293366" lon="10.6488262"><ele>748.5</ele><time>2026-05-03T10:56:38.122Z</time></trkpt><trkpt lat="44.229481" lon="10.648853"><ele>745.25</ele><time>2026-05-03T10:56:39.122Z</time></trkpt><trkpt lat="44.2296326" lon="10.6488765"><ele>742.0</ele><time>2026-05-03T10:56:40.122Z</time></trkpt><trkpt lat="44.2297867" lon="10.6489543"><ele>738.0</ele><time>2026-05-03T10:56:41.121Z</time></trkpt><trkpt lat="44.2299391" lon="10.6490007"><ele>734.0</ele><time>2026-05-03T10:56:42.122Z</time></trkpt><trkpt lat="44.2300856" lon="10.6490191"><ele>730.0</ele><time>2026-05-03T10:56:43.121Z</time></trkpt><trkpt lat="44.2302326" lon="10.6490261"><ele>730.0</ele><time>2026-05-03T10:56:44.121Z</time></trkpt><trkpt lat="44.2303703" lon="10.6490542"><ele>730.0</ele><time>2026-05-03T10:56:45.122Z</time></trkpt><trkpt lat="44.2304898" lon="10.6491215"><ele>730.0</ele><time>2026-05-03T10:56:46.122Z</time></trkpt><trkpt lat="44.2306084" lon="10.6492105"><ele>730.0</ele><time>2026-05-03T10:56:47.121Z</time></trkpt><trkpt lat="44.2306713" lon="10.6493813"><ele>728.0</ele><time>2026-05-03T10:56:48.122Z</time></trkpt><trkpt lat="44.2307457" lon="10.6495343"><ele>726.0</ele><time>2026-05-03T10:56:49.121Z</time></trkpt><trkpt lat="44.2307753" lon="10.6497258"><ele>724.0</ele><time>2026-05-03T10:56:50.121Z</time></trkpt><trkpt lat="44.2308044" lon="10.6499049"><ele>722.0</ele><time>2026-05-03T10:56:51.121Z</time></trkpt><trkpt lat="44.2308147" lon="10.650071"><ele>722.0</ele><time>2026-05-03T10:56:52.122Z</time></trkpt><trkpt lat="44.2308055" lon="10.6502219"><ele>722.0</ele><time>2026-05-03T10:56:53.122Z</time></trkpt><trkpt lat="44.2307863" lon="10.6503648"><ele>722.0</ele><time>2026-05-03T10:56:54.121Z</time></trkpt><trkpt lat="44.230757" lon="10.6504985"><ele>722.0</ele><time>2026-05-03T10:56:55.121Z</time></trkpt><trkpt lat="44.2307297" lon="10.6506262"><ele>722.0</ele><time>2026-05-03T10:56:56.122Z</time></trkpt><trkpt lat="44.2307173" lon="10.6507451"><ele>721.8</ele><time>2026-05-03T10:56:57.121Z</time></trkpt><trkpt lat="44.2307131" lon="10.6508564"><ele>721.6</ele><time>2026-05-03T10:56:58.121Z</time></trkpt><trkpt lat="44.2307137" lon="10.6509781"><ele>721.4</ele><time>2026-05-03T10:56:59.121Z</time></trkpt><trkpt lat="44.2307253" lon="10.6511152"><ele>721.1999999999999</ele><time>2026-05-03T10:57:00.122Z</time></trkpt><trkpt lat="44.2307471" lon="10.6512679"><ele>721.0</ele><time>2026-05-03T10:57:01.122Z</time></trkpt><trkpt lat="44.2307653" lon="10.6514211"><ele>721.0</ele><time>2026-05-03T10:57:02.122Z</time></trkpt><trkpt lat="44.2307835" lon="10.651543"><ele>721.0</ele><time>2026-05-03T10:57:03.121Z</time></trkpt><trkpt lat="44.2307968" lon="10.6516564"><ele>721.0</ele><time>2026-05-03T10:57:04.121Z</time></trkpt><trkpt lat="44.230813" lon="10.6517675"><ele>721.0</ele><time>2026-05-03T10:57:05.121Z</time></trkpt><trkpt lat="44.2308312" lon="10.6518734"><ele>721.0</ele><time>2026-05-03T10:57:06.122Z</time></trkpt><trkpt lat="44.2308449" lon="10.6519867"><ele>721.0</ele><time>2026-05-03T10:57:07.122Z</time></trkpt><trkpt lat="44.2308618" lon="10.6521062"><ele>721.8</ele><time>2026-05-03T10:57:08.121Z</time></trkpt><trkpt lat="44.2308781" lon="10.6522341"><ele>722.5999999999999</ele><time>2026-05-03T10:57:09.122Z</time></trkpt><trkpt lat="44.2308958" lon="10.6523635"><ele>723.4</ele><time>2026-05-03T10:57:10.122Z</time></trkpt><trkpt lat="44.2309153" lon="10.652494"><ele>724.2</ele><time>2026-05-03T10:57:11.121Z</time></trkpt><trkpt lat="44.2309349" lon="10.6526329"><ele>725.0</ele><time>2026-05-03T10:57:12.121Z</time></trkpt><trkpt lat="44.2309691" lon="10.6527593"><ele>724.4</ele><time>2026-05-03T10:57:13.121Z</time></trkpt><trkpt lat="44.2309792" lon="10.6528973"><ele>723.8</ele><time>2026-05-03T10:57:14.122Z</time></trkpt><trkpt lat="44.2309807" lon="10.6530312"><ele>723.2</ele><time>2026-05-03T10:57:15.122Z</time></trkpt><trkpt lat="44.2309563" lon="10.6531388"><ele>722.6</ele><time>2026-05-03T10:57:16.121Z</time></trkpt><trkpt lat="44.2308892" lon="10.6532485"><ele>722.0</ele><time>2026-05-03T10:57:17.122Z</time></trkpt><trkpt lat="44.2308256" lon="10.6533244"><ele>722.0</ele><time>2026-05-03T10:57:18.122Z</time></trkpt><trkpt lat="44.2307113" lon="10.6533999"><ele>722.0</ele><time>2026-05-03T10:57:19.122Z</time></trkpt><trkpt lat="44.2306087" lon="10.6535243"><ele>722.0</ele><time>2026-05-03T10:57:20.121Z</time></trkpt><trkpt lat="44.2304886" lon="10.6536872"><ele>722.0</ele><time>2026-05-03T10:57:21.121Z</time></trkpt><trkpt lat="44.2304013" lon="10.6538427"><ele>725.5</ele><time>2026-05-03T10:57:22.121Z</time></trkpt><trkpt lat="44.2303479" lon="10.6539898"><ele>729.0</ele><time>2026-05-03T10:57:23.122Z</time></trkpt><trkpt lat="44.2303445" lon="10.6541505"><ele>732.5</ele><time>2026-05-03T10:57:24.121Z</time></trkpt><trkpt lat="44.2303777" lon="10.6543091"><ele>736.0</ele><time>2026-05-03T10:57:25.121Z</time></trkpt><trkpt lat="44.2304413" lon="10.6545015"><ele>736.3333333333334</ele><time>2026-05-03T10:57:26.121Z</time></trkpt><trkpt lat="44.2305089" lon="10.6546991"><ele>736.6666666666666</ele><time>2026-05-03T10:57:27.121Z</time></trkpt><trkpt lat="44.2305756" lon="10.6548939"><ele>737.0</ele><time>2026-05-03T10:57:28.122Z</time></trkpt><trkpt lat="44.2306344" lon="10.6550724"><ele>735.0</ele><time>2026-05-03T10:57:29.122Z</time></trkpt><trkpt lat="44.2307111" lon="10.655218"><ele>733.0</ele><time>2026-05-03T10:57:30.122Z</time></trkpt><trkpt lat="44.2308022" lon="10.6553404"><ele>731.0</ele><time>2026-05-03T10:57:31.121Z</time></trkpt><trkpt lat="44.230915" lon="10.6554279"><ele>729.0</ele><time>2026-05-03T10:57:32.122Z</time></trkpt><trkpt lat="44.2310311" lon="10.655495"><ele>729.0</ele><time>2026-05-03T10:57:33.122Z</time></trkpt><trkpt lat="44.2311507" lon="10.6555669"><ele>729.0</ele><time>2026-05-03T10:57:34.122Z</time></trkpt><trkpt lat="44.2312679" lon="10.6556468"><ele>729.0</ele><time>2026-05-03T10:57:35.122Z</time></trkpt><trkpt lat="44.2313751" lon="10.6557218"><ele>729.0</ele><time>2026-05-03T10:57:36.122Z</time></trkpt><trkpt lat="44.2314716" lon="10.6558019"><ele>728.0</ele><time>2026-05-03T10:57:37.121Z</time></trkpt><trkpt lat="44.2315538" lon="10.6558748"><ele>727.0</ele><time>2026-05-03T10:57:38.121Z</time></trkpt><trkpt lat="44.2316373" lon="10.6559466"><ele>726.0</ele><time>2026-05-03T10:57:39.122Z</time></trkpt><trkpt lat="44.2316916" lon="10.6560038"><ele>725.0</ele><time>2026-05-03T10:57:40.122Z</time></trkpt><trkpt lat="44.2317484" lon="10.6560691"><ele>724.0</ele><time>2026-05-03T10:57:41.121Z</time></trkpt><trkpt lat="44.2318017" lon="10.6561374"><ele>723.0</ele><time>2026-05-03T10:57:43.121Z</time></trkpt><trkpt lat="44.2318905" lon="10.6561943"><ele>723.0</ele><time>2026-05-03T10:58:26.121Z</time></trkpt><trkpt lat="44.231994" lon="10.6562215"><ele>723.0</ele><time>2026-05-03T10:58:27.122Z</time></trkpt><trkpt lat="44.2320893" lon="10.6562093"><ele>723.0</ele><time>2026-05-03T10:58:28.121Z</time></trkpt><trkpt lat="44.2321873" lon="10.6561904"><ele>723.0</ele><time>2026-05-03T10:58:29.121Z</time></trkpt><trkpt lat="44.2322938" lon="10.6561142"><ele>723.0</ele><time>2026-05-03T10:58:30.122Z</time></trkpt><trkpt lat="44.232391" lon="10.6560019"><ele>724.0</ele><time>2026-05-03T10:58:31.121Z</time></trkpt><trkpt lat="44.232472" lon="10.6558522"><ele>725.0</ele><time>2026-05-03T10:58:32.121Z</time></trkpt><trkpt lat="44.2325594" lon="10.6557142"><ele>726.0</ele><time>2026-05-03T10:58:33.122Z</time></trkpt><trkpt lat="44.2326639" lon="10.6555991"><ele>727.0</ele><time>2026-05-03T10:58:34.121Z</time></trkpt><trkpt lat="44.2327809" lon="10.6555166"><ele>727.0</ele><time>2026-05-03T10:58:35.121Z</time></trkpt><trkpt lat="44.2328966" lon="10.6554481"><ele>727.0</ele><time>2026-05-03T10:58:36.121Z</time></trkpt><trkpt lat="44.2329964" lon="10.6554415"><ele>727.0</ele><time>2026-05-03T10:58:37.122Z</time></trkpt><trkpt lat="44.2331044" lon="10.655425"><ele>727.0</ele><time>2026-05-03T10:58:38.122Z</time></trkpt><trkpt lat="44.2332233" lon="10.6553906"><ele>728.25</ele><time>2026-05-03T10:58:39.122Z</time></trkpt><trkpt lat="44.2333668" lon="10.6553498"><ele>729.5</ele><time>2026-05-03T10:58:40.122Z</time></trkpt><trkpt lat="44.2334957" lon="10.6553144"><ele>730.75</ele><time>2026-05-03T10:58:41.121Z</time></trkpt><trkpt lat="44.2336093" lon="10.6552802"><ele>732.0</ele><time>2026-05-03T10:58:42.121Z</time></trkpt><trkpt lat="44.2337212" lon="10.655233"><ele>729.0</ele><time>2026-05-03T10:58:43.122Z</time></trkpt><trkpt lat="44.233838" lon="10.6551731"><ele>726.0</ele><time>2026-05-03T10:58:44.122Z</time></trkpt><trkpt lat="44.2339568" lon="10.6550905"><ele>723.0</ele><time>2026-05-03T10:58:45.122Z</time></trkpt><trkpt lat="44.2340816" lon="10.6549836"><ele>720.0</ele><time>2026-05-03T10:58:46.121Z</time></trkpt><trkpt lat="44.2342127" lon="10.6548547"><ele>720.0</ele><time>2026-05-03T10:58:47.121Z</time></trkpt><trkpt lat="44.2343497" lon="10.6547111"><ele>720.0</ele><time>2026-05-03T10:58:48.122Z</time></trkpt><trkpt lat="44.2345275" lon="10.6545329"><ele>720.0</ele><time>2026-05-03T10:58:49.121Z</time></trkpt><trkpt lat="44.2347012" lon="10.6543643"><ele>716.0</ele><time>2026-05-03T10:58:50.122Z</time></trkpt><trkpt lat="44.2348557" lon="10.6542119"><ele>712.0</ele><time>2026-05-03T10:58:51.121Z</time></trkpt><trkpt lat="44.2350199" lon="10.6540692"><ele>708.0</ele><time>2026-05-03T10:58:52.121Z</time></trkpt><trkpt lat="44.2351839" lon="10.6539768"><ele>708.0</ele><time>2026-05-03T10:58:53.121Z</time></trkpt><trkpt lat="44.2353716" lon="10.653917"><ele>708.0</ele><time>2026-05-03T10:58:54.122Z</time></trkpt><trkpt lat="44.235594" lon="10.6538746"><ele>708.0</ele><time>2026-05-03T10:58:55.122Z</time></trkpt><trkpt lat="44.2358461" lon="10.653814"><ele>711.0</ele><time>2026-05-03T10:58:56.121Z</time></trkpt><trkpt lat="44.2360794" lon="10.6537362"><ele>714.0</ele><time>2026-05-03T10:58:57.121Z</time></trkpt><trkpt lat="44.236296" lon="10.6536508"><ele>701.5</ele><time>2026-05-03T10:58:58.121Z</time></trkpt><trkpt lat="44.2365154" lon="10.6535509"><ele>689.0</ele><time>2026-05-03T10:58:59.121Z</time></trkpt><trkpt lat="44.2367386" lon="10.6534732"><ele>689.0</ele><time>2026-05-03T10:59:00.121Z</time></trkpt><trkpt lat="44.2369578" lon="10.6533854"><ele>689.0</ele><time>2026-05-03T10:59:01.122Z</time></trkpt><trkpt lat="44.2371512" lon="10.6533637"><ele>689.0</ele><time>2026-05-03T10:59:02.121Z</time></trkpt><trkpt lat="44.2373269" lon="10.6533613"><ele>687.6666666666666</ele><time>2026-05-03T10:59:03.122Z</time></trkpt><trkpt lat="44.2374605" lon="10.6534795"><ele>686.3333333333334</ele><time>2026-05-03T10:59:04.121Z</time></trkpt><trkpt lat="44.2376085" lon="10.6536027"><ele>685.0</ele><time>2026-05-03T10:59:05.121Z</time></trkpt><trkpt lat="44.2377173" lon="10.6537869"><ele>696.0</ele><time>2026-05-03T10:59:06.121Z</time></trkpt><trkpt lat="44.2377866" lon="10.6539971"><ele>707.0</ele><time>2026-05-03T10:59:07.121Z</time></trkpt><trkpt lat="44.2378085" lon="10.6542239"><ele>718.0</ele><time>2026-05-03T10:59:08.121Z</time></trkpt><trkpt lat="44.2378164" lon="10.6544764"><ele>721.6666666666667</ele><time>2026-05-03T10:59:09.121Z</time></trkpt><trkpt lat="44.2378295" lon="10.6547123"><ele>725.3333333333334</ele><time>2026-05-03T10:59:10.121Z</time></trkpt><trkpt lat="44.2378985" lon="10.6549329"><ele>729.0</ele><time>2026-05-03T10:59:11.122Z</time></trkpt><trkpt lat="44.2379823" lon="10.6551393"><ele>731.0</ele><time>2026-05-03T10:59:12.121Z</time></trkpt><trkpt lat="44.238113" lon="10.65532"><ele>733.0</ele><time>2026-05-03T10:59:13.122Z</time></trkpt><trkpt lat="44.2382789" lon="10.65545"><ele>735.0</ele><time>2026-05-03T10:59:14.121Z</time></trkpt><trkpt lat="44.2384663" lon="10.6555355"><ele>718.5</ele><time>2026-05-03T10:59:15.122Z</time></trkpt><trkpt lat="44.2386662" lon="10.6555809"><ele>702.0</ele><time>2026-05-03T10:59:16.121Z</time></trkpt><trkpt lat="44.2389121" lon="10.6555315"><ele>701.0</ele><time>2026-05-03T10:59:17.122Z</time></trkpt><trkpt lat="44.2391576" lon="10.6555055"><ele>700.0</ele><time>2026-05-03T10:59:18.122Z</time></trkpt><trkpt lat="44.2394174" lon="10.6554912"><ele>700.0</ele><time>2026-05-03T10:59:19.122Z</time></trkpt><trkpt lat="44.2396833" lon="10.655521"><ele>700.0</ele><time>2026-05-03T10:59:20.122Z</time></trkpt><trkpt lat="44.239948" lon="10.655589"><ele>698.0</ele><time>2026-05-03T10:59:21.122Z</time></trkpt><trkpt lat="44.2402353" lon="10.6556909"><ele>696.0</ele><time>2026-05-03T10:59:22.122Z</time></trkpt><trkpt lat="44.2405035" lon="10.6557853"><ele>692.0</ele><time>2026-05-03T10:59:23.121Z</time></trkpt><trkpt lat="44.2407488" lon="10.655885"><ele>688.0</ele><time>2026-05-03T10:59:24.122Z</time></trkpt><trkpt lat="44.2409737" lon="10.6559878"><ele>688.0</ele><time>2026-05-03T10:59:25.121Z</time></trkpt><trkpt lat="44.2412017" lon="10.6560979"><ele>688.0</ele><time>2026-05-03T10:59:26.122Z</time></trkpt><trkpt lat="44.2413957" lon="10.6562533"><ele>690.3333333333334</ele><time>2026-05-03T10:59:27.121Z</time></trkpt><trkpt lat="44.2415838" lon="10.6563882"><ele>692.6666666666666</ele><time>2026-05-03T10:59:28.121Z</time></trkpt><trkpt lat="44.2417686" lon="10.6565183"><ele>695.0</ele><time>2026-05-03T10:59:29.121Z</time></trkpt><trkpt lat="44.2419642" lon="10.656624"><ele>695.0</ele><time>2026-05-03T10:59:30.122Z</time></trkpt><trkpt lat="44.2421865" lon="10.6566966"><ele>695.0</ele><time>2026-05-03T10:59:31.122Z</time></trkpt><trkpt lat="44.2424439" lon="10.6567655"><ele>685.0</ele><time>2026-05-03T10:59:32.121Z</time></trkpt><trkpt lat="44.2427061" lon="10.6568286"><ele>675.0</ele><time>2026-05-03T10:59:33.122Z</time></trkpt><trkpt lat="44.2429415" lon="10.6568732"><ele>679.0</ele><time>2026-05-03T10:59:34.122Z</time></trkpt><trkpt lat="44.243142" lon="10.656937"><ele>683.0</ele><time>2026-05-03T10:59:35.122Z</time></trkpt><trkpt lat="44.2433152" lon="10.6570169"><ele>687.0</ele><time>2026-05-03T10:59:36.121Z</time></trkpt><trkpt lat="44.2434525" lon="10.6571516"><ele>687.0</ele><time>2026-05-03T10:59:37.122Z</time></trkpt><trkpt lat="44.2435875" lon="10.6573359"><ele>687.0</ele><time>2026-05-03T10:59:38.121Z</time></trkpt><trkpt lat="44.2437032" lon="10.6575428"><ele>687.0</ele><time>2026-05-03T10:59:39.121Z</time></trkpt><trkpt lat="44.2437943" lon="10.6577759"><ele>699.5</ele><time>2026-05-03T10:59:40.121Z</time></trkpt><trkpt lat="44.2438651" lon="10.6580591"><ele>712.0</ele><time>2026-05-03T10:59:41.121Z</time></trkpt><trkpt lat="44.2439146" lon="10.6583805"><ele>713.5</ele><time>2026-05-03T10:59:42.122Z</time></trkpt><trkpt lat="44.2439516" lon="10.6587145"><ele>715.0</ele><time>2026-05-03T10:59:43.121Z</time></trkpt><trkpt lat="44.2439665" lon="10.6590244"><ele>715.0</ele><time>2026-05-03T10:59:44.122Z</time></trkpt><trkpt lat="44.2439597" lon="10.6593348"><ele>715.0</ele><time>2026-05-03T10:59:45.122Z</time></trkpt><trkpt lat="44.2439327" lon="10.6596296"><ele>715.0</ele><time>2026-05-03T10:59:46.122Z</time></trkpt><trkpt lat="44.2439045" lon="10.6598803"><ele>714.0</ele><time>2026-05-03T10:59:47.122Z</time></trkpt><trkpt lat="44.2438672" lon="10.660101"><ele>713.0</ele><time>2026-05-03T10:59:48.121Z</time></trkpt><trkpt lat="44.2438084" lon="10.6603109"><ele>712.0</ele><time>2026-05-03T10:59:49.121Z</time></trkpt><trkpt lat="44.2437213" lon="10.660523"><ele>707.6666666666667</ele><time>2026-05-03T10:59:50.122Z</time></trkpt><trkpt lat="44.2436514" lon="10.6607462"><ele>703.3333333333334</ele><time>2026-05-03T10:59:51.121Z</time></trkpt><trkpt lat="44.2435832" lon="10.66098"><ele>699.0</ele><time>2026-05-03T10:59:52.121Z</time></trkpt><trkpt lat="44.2435402" lon="10.6612306"><ele>694.6666666666666</ele><time>2026-05-03T10:59:53.121Z</time></trkpt><trkpt lat="44.2435371" lon="10.6615056"><ele>690.3333333333333</ele><time>2026-05-03T10:59:54.122Z</time></trkpt><trkpt lat="44.2435349" lon="10.6617886"><ele>686.0</ele><time>2026-05-03T10:59:55.122Z</time></trkpt><trkpt lat="44.243531" lon="10.6620607"><ele>684.3333333333333</ele><time>2026-05-03T10:59:56.122Z</time></trkpt><trkpt lat="44.2435444" lon="10.6623051"><ele>682.6666666666666</ele><time>2026-05-03T10:59:57.121Z</time></trkpt><trkpt lat="44.2435641" lon="10.6625529"><ele>681.0</ele><time>2026-05-03T10:59:58.122Z</time></trkpt><trkpt lat="44.2435549" lon="10.6628164"><ele>679.0</ele><time>2026-05-03T10:59:59.122Z</time></trkpt><trkpt lat="44.2435303" lon="10.6631026"><ele>677.0</ele><time>2026-05-03T11:00:00.121Z</time></trkpt><trkpt lat="44.2434825" lon="10.6634173"><ele>675.0</ele><time>2026-05-03T11:00:01.122Z</time></trkpt><trkpt lat="44.2434291" lon="10.6637363"><ele>675.0</ele><time>2026-05-03T11:00:02.122Z</time></trkpt><trkpt lat="44.2433773" lon="10.6640373"><ele>675.0</ele><time>2026-05-03T11:00:03.122Z</time></trkpt><trkpt lat="44.2433313" lon="10.664335"><ele>675.0</ele><time>2026-05-03T11:00:04.122Z</time></trkpt><trkpt lat="44.2433168" lon="10.664621"><ele>675.0</ele><time>2026-05-03T11:00:05.121Z</time></trkpt><trkpt lat="44.2433321" lon="10.6649069"><ele>675.0</ele><time>2026-05-03T11:00:06.122Z</time></trkpt><trkpt lat="44.2433638" lon="10.665186"><ele>675.0</ele><time>2026-05-03T11:00:07.122Z</time></trkpt><trkpt lat="44.2434702" lon="10.6654481"><ele>678.6666666666666</ele><time>2026-05-03T11:00:08.122Z</time></trkpt><trkpt lat="44.2435538" lon="10.6656879"><ele>682.3333333333333</ele><time>2026-05-03T11:00:09.122Z</time></trkpt><trkpt lat="44.2436178" lon="10.6659045"><ele>686.0</ele><time>2026-05-03T11:00:10.121Z</time></trkpt><trkpt lat="44.2436771" lon="10.6661252"><ele>689.0</ele><time>2026-05-03T11:00:11.121Z</time></trkpt><trkpt lat="44.2437232" lon="10.6663417"><ele>692.0</ele><time>2026-05-03T11:00:12.122Z</time></trkpt><trkpt lat="44.2437027" lon="10.6665692"><ele>695.0</ele><time>2026-05-03T11:00:13.121Z</time></trkpt><trkpt lat="44.2436932" lon="10.6667673"><ele>694.5</ele><time>2026-05-03T11:00:14.121Z</time></trkpt><trkpt lat="44.2436839" lon="10.666947"><ele>694.0</ele><time>2026-05-03T11:00:15.122Z</time></trkpt><trkpt lat="44.243731" lon="10.6671228"><ele>693.5</ele><time>2026-05-03T11:00:16.121Z</time></trkpt><trkpt lat="44.2437923" lon="10.6673131"><ele>693.0</ele><time>2026-05-03T11:00:17.121Z</time></trkpt><trkpt lat="44.2438315" lon="10.667496"><ele>693.0</ele><time>2026-05-03T11:00:18.122Z</time></trkpt><trkpt lat="44.2438703" lon="10.6676715"><ele>693.0</ele><time>2026-05-03T11:00:19.121Z</time></trkpt><trkpt lat="44.2439118" lon="10.6678434"><ele>693.0</ele><time>2026-05-03T11:00:20.121Z</time></trkpt><trkpt lat="44.2439505" lon="10.6680068"><ele>693.0</ele><time>2026-05-03T11:00:21.122Z</time></trkpt><trkpt lat="44.2439952" lon="10.6681813"><ele>690.0</ele><time>2026-05-03T11:00:22.122Z</time></trkpt><trkpt lat="44.2440557" lon="10.6683527"><ele>687.0</ele><time>2026-05-03T11:00:23.121Z</time></trkpt><trkpt lat="44.2441161" lon="10.6685383"><ele>684.0</ele><time>2026-05-03T11:00:24.122Z</time></trkpt><trkpt lat="44.2441924" lon="10.6687015"><ele>681.0</ele><time>2026-05-03T11:00:25.122Z</time></trkpt><trkpt lat="44.2442811" lon="10.6688428"><ele>681.0</ele><time>2026-05-03T11:00:26.122Z</time></trkpt><trkpt lat="44.2443843" lon="10.6689475"><ele>681.0</ele><time>2026-05-03T11:00:27.122Z</time></trkpt><trkpt lat="44.2445056" lon="10.6690189"><ele>681.0</ele><time>2026-05-03T11:00:28.121Z</time></trkpt><trkpt lat="44.2446449" lon="10.669076"><ele>681.0</ele><time>2026-05-03T11:00:29.122Z</time></trkpt><trkpt lat="44.2447915" lon="10.6691052"><ele>674.75</ele><time>2026-05-03T11:00:30.122Z</time></trkpt><trkpt lat="44.2449297" lon="10.6690964"><ele>668.5</ele><time>2026-05-03T11:00:31.122Z</time></trkpt><trkpt lat="44.2450796" lon="10.6690748"><ele>662.25</ele><time>2026-05-03T11:00:32.121Z</time></trkpt><trkpt lat="44.2452216" lon="10.6690462"><ele>656.0</ele><time>2026-05-03T11:00:33.122Z</time></trkpt><trkpt lat="44.2453496" lon="10.6690266"><ele>656.0</ele><time>2026-05-03T11:00:34.121Z</time></trkpt><trkpt lat="44.2454645" lon="10.6689809"><ele>656.0</ele><time>2026-05-03T11:00:35.122Z</time></trkpt><trkpt lat="44.2455729" lon="10.6689327"><ele>656.0</ele><time>2026-05-03T11:00:36.121Z</time></trkpt><trkpt lat="44.2456727" lon="10.6688859"><ele>656.0</ele><time>2026-05-03T11:00:37.121Z</time></trkpt><trkpt lat="44.2457649" lon="10.6688274"><ele>656.0</ele><time>2026-05-03T11:00:38.121Z</time></trkpt><trkpt lat="44.2458513" lon="10.6687897"><ele>655.1999999999999</ele><time>2026-05-03T11:00:39.121Z</time></trkpt><trkpt lat="44.2459429" lon="10.6687752"><ele>654.4</ele><time>2026-05-03T11:00:40.122Z</time></trkpt><trkpt lat="44.246033" lon="10.6688012"><ele>653.6</ele><time>2026-05-03T11:00:41.122Z</time></trkpt><trkpt lat="44.2460997" lon="10.6688825"><ele>652.8</ele><time>2026-05-03T11:00:42.122Z</time></trkpt><trkpt lat="44.2461645" lon="10.6689743"><ele>652.0</ele><time>2026-05-03T11:00:43.121Z</time></trkpt><trkpt lat="44.246228" lon="10.6690785"><ele>652.0</ele><time>2026-05-03T11:00:44.121Z</time></trkpt><trkpt lat="44.2462846" lon="10.6691908"><ele>652.0</ele><time>2026-05-03T11:00:45.121Z</time></trkpt><trkpt lat="44.2463354" lon="10.6693087"><ele>652.0</ele><time>2026-05-03T11:00:46.121Z</time></trkpt><trkpt lat="44.2463791" lon="10.6694285"><ele>652.0</ele><time>2026-05-03T11:00:47.122Z</time></trkpt><trkpt lat="44.2464195" lon="10.6695539"><ele>652.0</ele><time>2026-05-03T11:00:48.121Z</time></trkpt><trkpt lat="44.2464571" lon="10.669695"><ele>649.2</ele><time>2026-05-03T11:00:49.122Z</time></trkpt><trkpt lat="44.2464721" lon="10.6698456"><ele>646.4000000000001</ele><time>2026-05-03T11:00:50.121Z</time></trkpt><trkpt lat="44.2464685" lon="10.6700005"><ele>643.5999999999999</ele><time>2026-05-03T11:00:51.121Z</time></trkpt><trkpt lat="44.2464362" lon="10.6701502"><ele>640.8</ele><time>2026-05-03T11:00:52.121Z</time></trkpt><trkpt lat="44.2463815" lon="10.6702868"><ele>638.0</ele><time>2026-05-03T11:00:53.122Z</time></trkpt><trkpt lat="44.2463087" lon="10.670411"><ele>644.5999999999999</ele><time>2026-05-03T11:00:54.121Z</time></trkpt><trkpt lat="44.2462343" lon="10.6705243"><ele>651.1999999999999</ele><time>2026-05-03T11:00:55.121Z</time></trkpt><trkpt lat="44.2461615" lon="10.6706415"><ele>657.8</ele><time>2026-05-03T11:00:56.122Z</time></trkpt><trkpt lat="44.2460982" lon="10.6707582"><ele>664.4</ele><time>2026-05-03T11:00:57.121Z</time></trkpt><trkpt lat="44.2460628" lon="10.6708897"><ele>671.0</ele><time>2026-05-03T11:00:58.121Z</time></trkpt><trkpt lat="44.2460526" lon="10.6710271"><ele>669.75</ele><time>2026-05-03T11:00:59.121Z</time></trkpt><trkpt lat="44.2460665" lon="10.6711745"><ele>668.5</ele><time>2026-05-03T11:01:00.121Z</time></trkpt><trkpt lat="44.2460824" lon="10.6713308"><ele>667.25</ele><time>2026-05-03T11:01:01.121Z</time></trkpt><trkpt lat="44.2460941" lon="10.6714872"><ele>666.0</ele><time>2026-05-03T11:01:02.121Z</time></trkpt><trkpt lat="44.2460875" lon="10.6716649"><ele>666.0</ele><time>2026-05-03T11:01:03.122Z</time></trkpt><trkpt lat="44.2460606" lon="10.6718882"><ele>666.0</ele><time>2026-05-03T11:01:04.122Z</time></trkpt><trkpt lat="44.2460328" lon="10.6721281"><ele>666.0</ele><time>2026-05-03T11:01:05.121Z</time></trkpt><trkpt lat="44.2460014" lon="10.6723574"><ele>663.0</ele><time>2026-05-03T11:01:06.122Z</time></trkpt><trkpt lat="44.2459746" lon="10.6725774"><ele>660.0</ele><time>2026-05-03T11:01:07.121Z</time></trkpt><trkpt lat="44.2459475" lon="10.6727865"><ele>657.0</ele><time>2026-05-03T11:01:08.121Z</time></trkpt><trkpt lat="44.2459113" lon="10.6729766"><ele>653.2</ele><time>2026-05-03T11:01:09.121Z</time></trkpt><trkpt lat="44.2458864" lon="10.6731344"><ele>649.4000000000001</ele><time>2026-05-03T11:01:10.121Z</time></trkpt><trkpt lat="44.2458599" lon="10.6732862"><ele>645.5999999999999</ele><time>2026-05-03T11:01:11.122Z</time></trkpt><trkpt lat="44.2458363" lon="10.6734191"><ele>641.8</ele><time>2026-05-03T11:01:12.122Z</time></trkpt><trkpt lat="44.2457986" lon="10.6735369"><ele>638.0</ele><time>2026-05-03T11:01:13.122Z</time></trkpt><trkpt lat="44.2457161" lon="10.6736373"><ele>639.5999999999999</ele><time>2026-05-03T11:01:14.121Z</time></trkpt><trkpt lat="44.2456429" lon="10.6737342"><ele>641.1999999999999</ele><time>2026-05-03T11:01:15.121Z</time></trkpt><trkpt lat="44.245565" lon="10.6738264"><ele>642.8</ele><time>2026-05-03T11:01:16.122Z</time></trkpt><trkpt lat="44.2454924" lon="10.6739218"><ele>644.4</ele><time>2026-05-03T11:01:17.121Z</time></trkpt><trkpt lat="44.245448" lon="10.6740454"><ele>646.0</ele><time>2026-05-03T11:01:18.121Z</time></trkpt><trkpt lat="44.2454131" lon="10.674169"><ele>646.0</ele><time>2026-05-03T11:01:19.122Z</time></trkpt><trkpt lat="44.2454097" lon="10.6743126"><ele>646.0</ele><time>2026-05-03T11:01:20.121Z</time></trkpt><trkpt lat="44.245416" lon="10.6744497"><ele>646.0</ele><time>2026-05-03T11:01:21.122Z</time></trkpt><trkpt lat="44.2454454" lon="10.6745833"><ele>646.0</ele><time>2026-05-03T11:01:22.122Z</time></trkpt><trkpt lat="44.2455073" lon="10.6746836"><ele>646.0</ele><time>2026-05-03T11:01:23.122Z</time></trkpt><trkpt lat="44.2455889" lon="10.6747688"><ele>642.25</ele><time>2026-05-03T11:01:24.122Z</time></trkpt><trkpt lat="44.245683" lon="10.6748593"><ele>638.5</ele><time>2026-05-03T11:01:25.122Z</time></trkpt><trkpt lat="44.2457858" lon="10.6749689"><ele>634.75</ele><time>2026-05-03T11:01:26.121Z</time></trkpt><trkpt lat="44.2458747" lon="10.6750999"><ele>631.0</ele><time>2026-05-03T11:01:27.121Z</time></trkpt><trkpt lat="44.24594" lon="10.6752245"><ele>639.25</ele><time>2026-05-03T11:01:28.122Z</time></trkpt><trkpt lat="44.2460213" lon="10.6753418"><ele>647.5</ele><time>2026-05-03T11:01:29.121Z</time></trkpt><trkpt lat="44.2460828" lon="10.675472"><ele>655.75</ele><time>2026-05-03T11:01:30.122Z</time></trkpt><trkpt lat="44.2461319" lon="10.6756048"><ele>664.0</ele><time>2026-05-03T11:01:31.122Z</time></trkpt><trkpt lat="44.2461928" lon="10.6757808"><ele>664.0</ele><time>2026-05-03T11:01:32.121Z</time></trkpt><trkpt lat="44.2462571" lon="10.6759974"><ele>664.0</ele><time>2026-05-03T11:01:33.122Z</time></trkpt><trkpt lat="44.2462871" lon="10.6762532"><ele>664.0</ele><time>2026-05-03T11:01:34.121Z</time></trkpt><trkpt lat="44.2463304" lon="10.6764682"><ele>656.6666666666667</ele><time>2026-05-03T11:01:35.121Z</time></trkpt><trkpt lat="44.2463772" lon="10.6766337"><ele>649.3333333333334</ele><time>2026-05-03T11:01:36.121Z</time></trkpt><trkpt lat="44.2464241" lon="10.6768159"><ele>642.0</ele><time>2026-05-03T11:01:37.122Z</time></trkpt><trkpt lat="44.2465565" lon="10.6770152"><ele>642.0</ele><time>2026-05-03T11:01:38.121Z</time></trkpt><trkpt lat="44.2466608" lon="10.6772134"><ele>642.0</ele><time>2026-05-03T11:01:39.122Z</time></trkpt><trkpt lat="44.2467465" lon="10.6773863"><ele>642.0</ele><time>2026-05-03T11:01:40.122Z</time></trkpt><trkpt lat="44.2468265" lon="10.6775386"><ele>642.0</ele><time>2026-05-03T11:01:41.122Z</time></trkpt><trkpt lat="44.246884" lon="10.6776824"><ele>642.0</ele><time>2026-05-03T11:01:42.122Z</time></trkpt><trkpt lat="44.2469141" lon="10.6778176"><ele>642.0</ele><time>2026-05-03T11:01:43.121Z</time></trkpt><trkpt lat="44.2468763" lon="10.6779415"><ele>642.0</ele><time>2026-05-03T11:01:44.122Z</time></trkpt><trkpt lat="44.2468202" lon="10.6780533"><ele>642.0</ele><time>2026-05-03T11:01:45.122Z</time></trkpt><trkpt lat="44.2467087" lon="10.6781689"><ele>639.0</ele><time>2026-05-03T11:01:46.122Z</time></trkpt><trkpt lat="44.2465688" lon="10.6782838"><ele>636.0</ele><time>2026-05-03T11:01:47.121Z</time></trkpt><trkpt lat="44.2464095" lon="10.6784058"><ele>633.0</ele><time>2026-05-03T11:01:48.121Z</time></trkpt><trkpt lat="44.2462517" lon="10.6785197"><ele>637.3333333333334</ele><time>2026-05-03T11:01:49.122Z</time></trkpt><trkpt lat="44.2461026" lon="10.6786677"><ele>641.6666666666667</ele><time>2026-05-03T11:01:50.121Z</time></trkpt><trkpt lat="44.2459423" lon="10.6788658"><ele>646.0</ele><time>2026-05-03T11:01:51.121Z</time></trkpt><trkpt lat="44.2457986" lon="10.6790638"><ele>646.0</ele><time>2026-05-03T11:01:52.121Z</time></trkpt><trkpt lat="44.245687" lon="10.6792512"><ele>646.0</ele><time>2026-05-03T11:01:53.121Z</time></trkpt><trkpt lat="44.2456056" lon="10.6794341"><ele>646.0</ele><time>2026-05-03T11:01:54.122Z</time></trkpt><trkpt lat="44.245554" lon="10.6796399"><ele>661.0</ele><time>2026-05-03T11:01:55.121Z</time></trkpt><trkpt lat="44.2455317" lon="10.6798875"><ele>676.0</ele><time>2026-05-03T11:01:56.121Z</time></trkpt><trkpt lat="44.2455073" lon="10.6801751"><ele>691.0</ele><time>2026-05-03T11:01:57.122Z</time></trkpt><trkpt lat="44.2454938" lon="10.6804342"><ele>691.6666666666667</ele><time>2026-05-03T11:01:58.121Z</time></trkpt><trkpt lat="44.2455053" lon="10.6806676"><ele>692.3333333333334</ele><time>2026-05-03T11:01:59.122Z</time></trkpt><trkpt lat="44.2455553" lon="10.6808781"><ele>693.0</ele><time>2026-05-03T11:02:00.122Z</time></trkpt><trkpt lat="44.2456163" lon="10.6810815"><ele>672.0</ele><time>2026-05-03T11:02:01.121Z</time></trkpt><trkpt lat="44.2458007" lon="10.6812825"><ele>651.0</ele><time>2026-05-03T11:02:02.121Z</time></trkpt><trkpt lat="44.2459687" lon="10.6815018"><ele>651.0</ele><time>2026-05-03T11:02:03.121Z</time></trkpt><trkpt lat="44.2461415" lon="10.6817149"><ele>651.0</ele><time>2026-05-03T11:02:04.122Z</time></trkpt><trkpt lat="44.2463231" lon="10.6819211"><ele>646.0</ele><time>2026-05-03T11:02:05.122Z</time></trkpt><trkpt lat="44.246515" lon="10.6821165"><ele>641.0</ele><time>2026-05-03T11:02:06.122Z</time></trkpt><trkpt lat="44.2467092" lon="10.6823051"><ele>641.0</ele><time>2026-05-03T11:02:07.121Z</time></trkpt><trkpt lat="44.2469148" lon="10.6825006"><ele>641.0</ele><time>2026-05-03T11:02:08.122Z</time></trkpt><trkpt lat="44.24713" lon="10.682681"><ele>642.0</ele><time>2026-05-03T11:02:09.122Z</time></trkpt><trkpt lat="44.247343" lon="10.6828664"><ele>643.0</ele><time>2026-05-03T11:02:10.122Z</time></trkpt><trkpt lat="44.247561" lon="10.6830521"><ele>643.0</ele><time>2026-05-03T11:02:11.121Z</time></trkpt><trkpt lat="44.2477804" lon="10.683238"><ele>643.0</ele><time>2026-05-03T11:02:12.122Z</time></trkpt><trkpt lat="44.2479973" lon="10.6834246"><ele>648.0</ele><time>2026-05-03T11:02:13.121Z</time></trkpt><trkpt lat="44.248207" lon="10.6836082"><ele>653.0</ele><time>2026-05-03T11:02:14.122Z</time></trkpt><trkpt lat="44.2484148" lon="10.6837885"><ele>653.0</ele><time>2026-05-03T11:02:15.121Z</time></trkpt><trkpt lat="44.2486141" lon="10.6839867"><ele>653.0</ele><time>2026-05-03T11:02:16.121Z</time></trkpt><trkpt lat="44.2488093" lon="10.6841917"><ele>649.5</ele><time>2026-05-03T11:02:17.122Z</time></trkpt><trkpt lat="44.2489692" lon="10.6844348"><ele>646.0</ele><time>2026-05-03T11:02:18.121Z</time></trkpt><trkpt lat="44.249121" lon="10.684691"><ele>646.0</ele><time>2026-05-03T11:02:19.122Z</time></trkpt><trkpt lat="44.2492441" lon="10.6849927"><ele>646.0</ele><time>2026-05-03T11:02:20.121Z</time></trkpt><trkpt lat="44.2493952" lon="10.6852703"><ele>661.5</ele><time>2026-05-03T11:02:21.122Z</time></trkpt><trkpt lat="44.2495679" lon="10.6855279"><ele>677.0</ele><time>2026-05-03T11:02:22.121Z</time></trkpt><trkpt lat="44.2497637" lon="10.6857637"><ele>666.5</ele><time>2026-05-03T11:02:23.121Z</time></trkpt><trkpt lat="44.2499653" lon="10.68598"><ele>656.0</ele><time>2026-05-03T11:02:24.122Z</time></trkpt><trkpt lat="44.2501672" lon="10.6861898"><ele>656.0</ele><time>2026-05-03T11:02:25.122Z</time></trkpt><trkpt lat="44.2503428" lon="10.686399"><ele>656.0</ele><time>2026-05-03T11:02:26.122Z</time></trkpt><trkpt lat="44.2505071" lon="10.6866138"><ele>649.5</ele><time>2026-05-03T11:02:27.121Z</time></trkpt><trkpt lat="44.2506773" lon="10.6868231"><ele>643.0</ele><time>2026-05-03T11:02:28.121Z</time></trkpt><trkpt lat="44.2508486" lon="10.687059"><ele>643.0</ele><time>2026-05-03T11:02:29.122Z</time></trkpt><trkpt lat="44.2510183" lon="10.6873972"><ele>643.0</ele><time>2026-05-03T11:02:30.122Z</time></trkpt><trkpt lat="44.2508621" lon="10.6877309"><ele>649.0</ele><time>2026-05-03T11:02:31.122Z</time></trkpt><trkpt lat="44.2509282" lon="10.6880387"><ele>655.0</ele><time>2026-05-03T11:02:32.122Z</time></trkpt><trkpt lat="44.2510085" lon="10.6883407"><ele>660.5</ele><time>2026-05-03T11:02:33.121Z</time></trkpt><trkpt lat="44.2511136" lon="10.6886412"><ele>666.0</ele><time>2026-05-03T11:02:34.122Z</time></trkpt><trkpt lat="44.2512531" lon="10.6889333"><ele>666.0</ele><time>2026-05-03T11:02:35.122Z</time></trkpt><trkpt lat="44.2514016" lon="10.6892128"><ele>666.0</ele><time>2026-05-03T11:02:36.121Z</time></trkpt><trkpt lat="44.251578" lon="10.6894745"><ele>656.5</ele><time>2026-05-03T11:02:37.121Z</time></trkpt><trkpt lat="44.2517516" lon="10.6897329"><ele>647.0</ele><time>2026-05-03T11:02:38.122Z</time></trkpt><trkpt lat="44.25194" lon="10.6899881"><ele>647.0</ele><time>2026-05-03T11:02:39.122Z</time></trkpt><trkpt lat="44.2521459" lon="10.6902314"><ele>647.0</ele><time>2026-05-03T11:02:40.121Z</time></trkpt><trkpt lat="44.2523347" lon="10.6904704"><ele>640.5</ele><time>2026-05-03T11:02:41.122Z</time></trkpt><trkpt lat="44.2524968" lon="10.6907336"><ele>634.0</ele><time>2026-05-03T11:02:42.122Z</time></trkpt><trkpt lat="44.2526376" lon="10.6910054"><ele>641.5</ele><time>2026-05-03T11:02:43.121Z</time></trkpt><trkpt lat="44.252759" lon="10.6912885"><ele>649.0</ele><time>2026-05-03T11:02:44.121Z</time></trkpt><trkpt lat="44.2528526" lon="10.6915874"><ele>649.0</ele><time>2026-05-03T11:02:45.121Z</time></trkpt><trkpt lat="44.2529346" lon="10.6918894"><ele>649.0</ele><time>2026-05-03T11:02:46.122Z</time></trkpt><trkpt lat="44.2529719" lon="10.692215"><ele>653.5</ele><time>2026-05-03T11:02:47.122Z</time></trkpt><trkpt lat="44.2529929" lon="10.6925496"><ele>658.0</ele><time>2026-05-03T11:02:48.122Z</time></trkpt><trkpt lat="44.2529864" lon="10.6928765"><ele>659.0</ele><time>2026-05-03T11:02:49.121Z</time></trkpt><trkpt lat="44.2529617" lon="10.6932111"><ele>660.0</ele><time>2026-05-03T11:02:50.121Z</time></trkpt><trkpt lat="44.2529102" lon="10.6935559"><ele>665.0</ele><time>2026-05-03T11:02:51.121Z</time></trkpt><trkpt lat="44.2528507" lon="10.6939086"><ele>670.0</ele><time>2026-05-03T11:02:52.122Z</time></trkpt><trkpt lat="44.2527859" lon="10.6942594"><ele>678.5</ele><time>2026-05-03T11:02:53.122Z</time></trkpt><trkpt lat="44.2527181" lon="10.694609"><ele>687.0</ele><time>2026-05-03T11:02:54.121Z</time></trkpt><trkpt lat="44.2575905" lon="10.7105223"><ele>632.0</ele><time>2026-05-03T11:03:40.121Z</time></trkpt><trkpt lat="44.2576972" lon="10.7108205"><ele>577.0</ele><time>2026-05-03T11:03:41.122Z</time></trkpt><trkpt lat="44.2578192" lon="10.7111374"><ele>577.0</ele><time>2026-05-03T11:03:42.121Z</time></trkpt><trkpt lat="44.2579476" lon="10.7114307"><ele>577.0</ele><time>2026-05-03T11:03:43.121Z</time></trkpt><trkpt lat="44.2580675" lon="10.7116958"><ele>572.0</ele><time>2026-05-03T11:03:44.122Z</time></trkpt><trkpt lat="44.2581697" lon="10.7119101"><ele>567.0</ele><time>2026-05-03T11:03:45.121Z</time></trkpt><trkpt lat="44.2582659" lon="10.7121004"><ele>562.0</ele><time>2026-05-03T11:03:46.121Z</time></trkpt><trkpt lat="44.2583803" lon="10.7122442"><ele>562.0</ele><time>2026-05-03T11:03:47.121Z</time></trkpt><trkpt lat="44.258511" lon="10.7123328"><ele>562.0</ele><time>2026-05-03T11:03:48.122Z</time></trkpt><trkpt lat="44.2586503" lon="10.7123583"><ele>562.0</ele><time>2026-05-03T11:03:49.121Z</time></trkpt><trkpt lat="44.2587892" lon="10.7123214"><ele>562.0</ele><time>2026-05-03T11:03:50.121Z</time></trkpt><trkpt lat="44.2589196" lon="10.7122329"><ele>554.0</ele><time>2026-05-03T11:03:51.121Z</time></trkpt><trkpt lat="44.2590387" lon="10.7120882"><ele>546.0</ele><time>2026-05-03T11:03:52.121Z</time></trkpt><trkpt lat="44.2591558" lon="10.7119119"><ele>538.0</ele><time>2026-05-03T11:03:53.122Z</time></trkpt><trkpt lat="44.2592831" lon="10.7117812"><ele>538.0</ele><time>2026-05-03T11:03:54.121Z</time></trkpt><trkpt lat="44.2594145" lon="10.7116815"><ele>538.0</ele><time>2026-05-03T11:03:55.121Z</time></trkpt><trkpt lat="44.2595682" lon="10.7116771"><ele>538.0</ele><time>2026-05-03T11:03:56.12Z</time></trkpt><trkpt lat="44.2597065" lon="10.7117062"><ele>538.0</ele><time>2026-05-03T11:03:57.121Z</time></trkpt><trkpt lat="44.2598539" lon="10.7117806"><ele>537.0</ele><time>2026-05-03T11:03:58.121Z</time></trkpt><trkpt lat="44.2600206" lon="10.7118537"><ele>536.0</ele><time>2026-05-03T11:03:59.122Z</time></trkpt><trkpt lat="44.260208" lon="10.7119025"><ele>535.0</ele><time>2026-05-03T11:04:00.121Z</time></trkpt><trkpt lat="44.2604156" lon="10.7119341"><ele>542.0</ele><time>2026-05-03T11:04:01.121Z</time></trkpt><trkpt lat="44.2606374" lon="10.7119497"><ele>549.0</ele><time>2026-05-03T11:04:02.122Z</time></trkpt><trkpt lat="44.2608764" lon="10.7119518"><ele>549.0</ele><time>2026-05-03T11:04:03.121Z</time></trkpt><trkpt lat="44.2611085" lon="10.7119452"><ele>549.0</ele><time>2026-05-03T11:04:04.12Z</time></trkpt><trkpt lat="44.2613161" lon="10.7119386"><ele>549.0</ele><time>2026-05-03T11:04:05.122Z</time></trkpt><trkpt lat="44.2615046" lon="10.7119492"><ele>550.6666666666666</ele><time>2026-05-03T11:04:06.121Z</time></trkpt><trkpt lat="44.2616848" lon="10.712004"><ele>552.3333333333333</ele><time>2026-05-03T11:04:07.122Z</time></trkpt><trkpt lat="44.2618592" lon="10.7121008"><ele>554.0</ele><time>2026-05-03T11:04:08.121Z</time></trkpt><trkpt lat="44.2620199" lon="10.7122013"><ele>554.0</ele><time>2026-05-03T11:04:09.122Z</time></trkpt><trkpt lat="44.2621928" lon="10.7122727"><ele>554.0</ele><time>2026-05-03T11:04:10.122Z</time></trkpt><trkpt lat="44.262386" lon="10.7123031"><ele>554.0</ele><time>2026-05-03T11:04:11.121Z</time></trkpt><trkpt lat="44.2626015" lon="10.7123023"><ele>556.0</ele><time>2026-05-03T11:04:12.122Z</time></trkpt><trkpt lat="44.2628278" lon="10.7122938"><ele>558.0</ele><time>2026-05-03T11:04:13.121Z</time></trkpt><trkpt lat="44.2630324" lon="10.7122931"><ele>560.0</ele><time>2026-05-03T11:04:14.121Z</time></trkpt><trkpt lat="44.2632117" lon="10.71232"><ele>562.0</ele><time>2026-05-03T11:04:15.122Z</time></trkpt><trkpt lat="44.2633769" lon="10.7123901"><ele>564.0</ele><time>2026-05-03T11:04:16.121Z</time></trkpt><trkpt lat="44.2635516" lon="10.7125014"><ele>566.0</ele><time>2026-05-03T11:04:17.122Z</time></trkpt><trkpt lat="44.2637297" lon="10.7126191"><ele>566.0</ele><time>2026-05-03T11:04:18.122Z</time></trkpt><trkpt lat="44.2639206" lon="10.7127216"><ele>566.0</ele><time>2026-05-03T11:04:19.122Z</time></trkpt><trkpt lat="44.2641268" lon="10.7128074"><ele>566.0</ele><time>2026-05-03T11:04:20.122Z</time></trkpt><trkpt lat="44.264314" lon="10.7128916"><ele>565.3333333333333</ele><time>2026-05-03T11:04:21.122Z</time></trkpt><trkpt lat="44.2644898" lon="10.7130155"><ele>564.6666666666666</ele><time>2026-05-03T11:04:22.122Z</time></trkpt><trkpt lat="44.26464" lon="10.7131518"><ele>564.0</ele><time>2026-05-03T11:04:23.121Z</time></trkpt><trkpt lat="44.2647733" lon="10.713272"><ele>569.3333333333334</ele><time>2026-05-03T11:04:24.122Z</time></trkpt><trkpt lat="44.2649256" lon="10.7133652"><ele>574.6666666666667</ele><time>2026-05-03T11:04:25.122Z</time></trkpt><trkpt lat="44.2651103" lon="10.7134316"><ele>580.0</ele><time>2026-05-03T11:04:26.121Z</time></trkpt><trkpt lat="44.2653047" lon="10.7134944"><ele>580.0</ele><time>2026-05-03T11:04:27.121Z</time></trkpt><trkpt lat="44.2655023" lon="10.7135576"><ele>580.0</ele><time>2026-05-03T11:04:28.122Z</time></trkpt><trkpt lat="44.2656778" lon="10.7136222"><ele>580.0</ele><time>2026-05-03T11:04:29.121Z</time></trkpt><trkpt lat="44.2658368" lon="10.713691"><ele>580.25</ele><time>2026-05-03T11:04:30.121Z</time></trkpt><trkpt lat="44.2659724" lon="10.7137839"><ele>580.5</ele><time>2026-05-03T11:04:31.122Z</time></trkpt><trkpt lat="44.2660697" lon="10.7139275"><ele>580.75</ele><time>2026-05-03T11:04:32.121Z</time></trkpt><trkpt lat="44.2661489" lon="10.7141136"><ele>581.0</ele><time>2026-05-03T11:04:33.122Z</time></trkpt><trkpt lat="44.2662183" lon="10.7143449"><ele>579.3333333333333</ele><time>2026-05-03T11:04:34.122Z</time></trkpt><trkpt lat="44.2662886" lon="10.7145926"><ele>577.6666666666666</ele><time>2026-05-03T11:04:35.121Z</time></trkpt><trkpt lat="44.2663614" lon="10.7148073"><ele>576.0</ele><time>2026-05-03T11:04:36.122Z</time></trkpt><trkpt lat="44.266461" lon="10.7150153"><ele>577.6666666666666</ele><time>2026-05-03T11:04:37.121Z</time></trkpt><trkpt lat="44.26659" lon="10.7151977"><ele>579.3333333333333</ele><time>2026-05-03T11:04:38.122Z</time></trkpt><trkpt lat="44.2667352" lon="10.7153677"><ele>581.0</ele><time>2026-05-03T11:04:39.121Z</time></trkpt><trkpt lat="44.2669507" lon="10.7154928"><ele>581.0</ele><time>2026-05-03T11:04:40.122Z</time></trkpt><trkpt lat="44.2671778" lon="10.7156164"><ele>581.0</ele><time>2026-05-03T11:04:41.121Z</time></trkpt><trkpt lat="44.2674127" lon="10.7157456"><ele>579.6666666666666</ele><time>2026-05-03T11:04:42.121Z</time></trkpt><trkpt lat="44.2676277" lon="10.715872"><ele>578.3333333333334</ele><time>2026-05-03T11:04:43.121Z</time></trkpt><trkpt lat="44.2678256" lon="10.7159859"><ele>577.0</ele><time>2026-05-03T11:04:44.121Z</time></trkpt><trkpt lat="44.2680089" lon="10.7160928"><ele>578.3333333333334</ele><time>2026-05-03T11:04:45.122Z</time></trkpt><trkpt lat="44.2681768" lon="10.7161743"><ele>579.6666666666666</ele><time>2026-05-03T11:04:46.122Z</time></trkpt><trkpt lat="44.268346" lon="10.7162213"><ele>581.0</ele><time>2026-05-03T11:04:47.122Z</time></trkpt><trkpt lat="44.2685285" lon="10.7161799"><ele>581.0</ele><time>2026-05-03T11:04:48.121Z</time></trkpt><trkpt lat="44.2687118" lon="10.7160971"><ele>581.0</ele><time>2026-05-03T11:04:49.122Z</time></trkpt><trkpt lat="44.268885" lon="10.7160105"><ele>581.0</ele><time>2026-05-03T11:04:50.122Z</time></trkpt><trkpt lat="44.2690639" lon="10.7159551"><ele>584.6666666666666</ele><time>2026-05-03T11:04:51.122Z</time></trkpt><trkpt lat="44.269251" lon="10.7159376"><ele>588.3333333333334</ele><time>2026-05-03T11:04:52.122Z</time></trkpt><trkpt lat="44.2694061" lon="10.7159376"><ele>592.0</ele><time>2026-05-03T11:04:53.121Z</time></trkpt><trkpt lat="44.2695291" lon="10.7159406"><ele>592.0</ele><time>2026-05-03T11:04:54.121Z</time></trkpt><trkpt lat="44.2696249" lon="10.7159427"><ele>592.0</ele><time>2026-05-03T11:04:55.121Z</time></trkpt><trkpt lat="44.2696961" lon="10.7159459"><ele>592.0</ele><time>2026-05-03T11:04:56.122Z</time></trkpt><trkpt lat="44.2697635" lon="10.7159458"><ele>592.0</ele><time>2026-05-03T11:04:58.122Z</time></trkpt><trkpt lat="44.2698268" lon="10.7159388"><ele>592.0</ele><time>2026-05-03T11:05:11.121Z</time></trkpt><trkpt lat="44.2699657" lon="10.7159397"><ele>592.0</ele><time>2026-05-03T11:05:13.121Z</time></trkpt><trkpt lat="44.2700592" lon="10.7159496"><ele>592.5</ele><time>2026-05-03T11:05:14.121Z</time></trkpt><trkpt lat="44.2701612" lon="10.7159647"><ele>593.0</ele><time>2026-05-03T11:05:15.121Z</time></trkpt><trkpt lat="44.2702697" lon="10.7160161"><ele>593.5</ele><time>2026-05-03T11:05:16.121Z</time></trkpt><trkpt lat="44.2703797" lon="10.7160874"><ele>594.0</ele><time>2026-05-03T11:05:17.121Z</time></trkpt><trkpt lat="44.2704829" lon="10.7161729"><ele>594.0</ele><time>2026-05-03T11:05:18.122Z</time></trkpt><trkpt lat="44.2705791" lon="10.7162755"><ele>594.0</ele><time>2026-05-03T11:05:19.122Z</time></trkpt><trkpt lat="44.2706755" lon="10.7163904"><ele>594.0</ele><time>2026-05-03T11:05:20.121Z</time></trkpt><trkpt lat="44.2707764" lon="10.7164892"><ele>594.0</ele><time>2026-05-03T11:05:21.122Z</time></trkpt><trkpt lat="44.27089" lon="10.7165686"><ele>594.0</ele><time>2026-05-03T11:05:22.122Z</time></trkpt><trkpt lat="44.2710172" lon="10.7166354"><ele>594.0</ele><time>2026-05-03T11:05:23.121Z</time></trkpt><trkpt lat="44.2711558" lon="10.7166905"><ele>594.0</ele><time>2026-05-03T11:05:24.122Z</time></trkpt><trkpt lat="44.271307" lon="10.7167461"><ele>594.0</ele><time>2026-05-03T11:05:25.121Z</time></trkpt><trkpt lat="44.2714476" lon="10.7167992"><ele>593.0</ele><time>2026-05-03T11:05:26.121Z</time></trkpt><trkpt lat="44.2715882" lon="10.7168526"><ele>592.0</ele><time>2026-05-03T11:05:27.122Z</time></trkpt><trkpt lat="44.271726" lon="10.7169124"><ele>591.0</ele><time>2026-05-03T11:05:28.122Z</time></trkpt><trkpt lat="44.2718607" lon="10.7169945"><ele>590.0</ele><time>2026-05-03T11:05:29.121Z</time></trkpt><trkpt lat="44.2719801" lon="10.7171076"><ele>590.0</ele><time>2026-05-03T11:05:30.121Z</time></trkpt><trkpt lat="44.2720847" lon="10.7172663"><ele>590.0</ele><time>2026-05-03T11:05:31.122Z</time></trkpt><trkpt lat="44.2721602" lon="10.7174294"><ele>590.0</ele><time>2026-05-03T11:05:32.121Z</time></trkpt><trkpt lat="44.2722355" lon="10.7175983"><ele>590.0</ele><time>2026-05-03T11:05:33.121Z</time></trkpt><trkpt lat="44.2723237" lon="10.7177587"><ele>591.3333333333333</ele><time>2026-05-03T11:05:34.121Z</time></trkpt><trkpt lat="44.2724362" lon="10.7178879"><ele>592.6666666666666</ele><time>2026-05-03T11:05:35.121Z</time></trkpt><trkpt lat="44.2725769" lon="10.7179836"><ele>594.0</ele><time>2026-05-03T11:05:36.121Z</time></trkpt><trkpt lat="44.2727437" lon="10.7180662"><ele>594.0</ele><time>2026-05-03T11:05:37.122Z</time></trkpt><trkpt lat="44.2729235" lon="10.7181336"><ele>594.0</ele><time>2026-05-03T11:05:38.121Z</time></trkpt><trkpt lat="44.273113" lon="10.7181759"><ele>594.0</ele><time>2026-05-03T11:05:39.121Z</time></trkpt><trkpt lat="44.2733071" lon="10.7181851"><ele>595.0</ele><time>2026-05-03T11:05:40.121Z</time></trkpt><trkpt lat="44.2735031" lon="10.7181789"><ele>596.0</ele><time>2026-05-03T11:05:41.122Z</time></trkpt><trkpt lat="44.2737079" lon="10.7181878"><ele>597.0</ele><time>2026-05-03T11:05:42.122Z</time></trkpt><trkpt lat="44.2739097" lon="10.7182233"><ele>598.3333333333334</ele><time>2026-05-03T11:05:43.122Z</time></trkpt><trkpt lat="44.2741129" lon="10.7182881"><ele>599.6666666666667</ele><time>2026-05-03T11:05:44.122Z</time></trkpt><trkpt lat="44.2743043" lon="10.7183645"><ele>601.0</ele><time>2026-05-03T11:05:45.121Z</time></trkpt><trkpt lat="44.2744825" lon="10.7184213"><ele>601.0</ele><time>2026-05-03T11:05:46.122Z</time></trkpt><trkpt lat="44.2746554" lon="10.7184343"><ele>601.0</ele><time>2026-05-03T11:05:47.122Z</time></trkpt><trkpt lat="44.274813" lon="10.7183965"><ele>601.0</ele><time>2026-05-03T11:05:48.121Z</time></trkpt><trkpt lat="44.2749615" lon="10.7182946"><ele>600.3333333333334</ele><time>2026-05-03T11:05:49.121Z</time></trkpt><trkpt lat="44.2751048" lon="10.7181478"><ele>599.6666666666666</ele><time>2026-05-03T11:05:50.122Z</time></trkpt><trkpt lat="44.2752561" lon="10.717971"><ele>599.0</ele><time>2026-05-03T11:05:51.121Z</time></trkpt><trkpt lat="44.2754226" lon="10.7178007"><ele>601.0</ele><time>2026-05-03T11:05:52.121Z</time></trkpt><trkpt lat="44.2756045" lon="10.7176508"><ele>603.0</ele><time>2026-05-03T11:05:53.121Z</time></trkpt><trkpt lat="44.2757833" lon="10.717522"><ele>605.0</ele><time>2026-05-03T11:05:54.121Z</time></trkpt><trkpt lat="44.2759618" lon="10.7174057"><ele>605.0</ele><time>2026-05-03T11:05:55.121Z</time></trkpt><trkpt lat="44.2761223" lon="10.7173055"><ele>605.0</ele><time>2026-05-03T11:05:56.122Z</time></trkpt><trkpt lat="44.2762755" lon="10.7172174"><ele>605.0</ele><time>2026-05-03T11:05:57.121Z</time></trkpt><trkpt lat="44.2764159" lon="10.7171326"><ele>606.0</ele><time>2026-05-03T11:05:58.122Z</time></trkpt><trkpt lat="44.2765463" lon="10.7170703"><ele>607.0</ele><time>2026-05-03T11:05:59.122Z</time></trkpt><trkpt lat="44.2766746" lon="10.7170487"><ele>608.0</ele><time>2026-05-03T11:06:00.122Z</time></trkpt><trkpt lat="44.2767931" lon="10.7170788"><ele>609.0</ele><time>2026-05-03T11:06:01.122Z</time></trkpt><trkpt lat="44.2768985" lon="10.7171661"><ele>609.0</ele><time>2026-05-03T11:06:02.122Z</time></trkpt><trkpt lat="44.2769744" lon="10.7172992"><ele>609.0</ele><time>2026-05-03T11:06:03.121Z</time></trkpt><trkpt lat="44.2770266" lon="10.717465"><ele>609.0</ele><time>2026-05-03T11:06:04.121Z</time></trkpt><trkpt lat="44.2770733" lon="10.7176504"><ele>609.0</ele><time>2026-05-03T11:06:05.121Z</time></trkpt><trkpt lat="44.2771491" lon="10.7178684"><ele>607.0</ele><time>2026-05-03T11:06:06.121Z</time></trkpt><trkpt lat="44.277232" lon="10.718084"><ele>605.0</ele><time>2026-05-03T11:06:07.121Z</time></trkpt><trkpt lat="44.2773141" lon="10.7182747"><ele>603.0</ele><time>2026-05-03T11:06:08.122Z</time></trkpt><trkpt lat="44.2774065" lon="10.7184363"><ele>603.25</ele><time>2026-05-03T11:06:09.121Z</time></trkpt><trkpt lat="44.2775162" lon="10.7185473"><ele>603.5</ele><time>2026-05-03T11:06:10.119Z</time></trkpt><trkpt lat="44.2776404" lon="10.718594"><ele>603.75</ele><time>2026-05-03T11:06:11.12Z</time></trkpt><trkpt lat="44.2777697" lon="10.7185643"><ele>604.0</ele><time>2026-05-03T11:06:12.122Z</time></trkpt><trkpt lat="44.2779066" lon="10.7184851"><ele>608.0</ele><time>2026-05-03T11:06:13.121Z</time></trkpt><trkpt lat="44.2780649" lon="10.7183737"><ele>612.0</ele><time>2026-05-03T11:06:14.121Z</time></trkpt><trkpt lat="44.2782269" lon="10.7182677"><ele>616.0</ele><time>2026-05-03T11:06:15.122Z</time></trkpt><trkpt lat="44.2783897" lon="10.7181794"><ele>618.0</ele><time>2026-05-03T11:06:16.122Z</time></trkpt><trkpt lat="44.2785674" lon="10.7181417"><ele>620.0</ele><time>2026-05-03T11:06:17.121Z</time></trkpt><trkpt lat="44.2787454" lon="10.7181478"><ele>622.0</ele><time>2026-05-03T11:06:18.122Z</time></trkpt><trkpt lat="44.278931" lon="10.7181829"><ele>624.5</ele><time>2026-05-03T11:06:19.121Z</time></trkpt><trkpt lat="44.2791295" lon="10.7183079"><ele>627.0</ele><time>2026-05-03T11:06:20.121Z</time></trkpt><trkpt lat="44.2793464" lon="10.7184312"><ele>627.0</ele><time>2026-05-03T11:06:21.122Z</time></trkpt><trkpt lat="44.2795735" lon="10.7185631"><ele>627.0</ele><time>2026-05-03T11:06:22.122Z</time></trkpt><trkpt lat="44.2797811" lon="10.7186861"><ele>627.0</ele><time>2026-05-03T11:06:23.121Z</time></trkpt><trkpt lat="44.2799757" lon="10.7188186"><ele>627.0</ele><time>2026-05-03T11:06:24.122Z</time></trkpt><trkpt lat="44.2801545" lon="10.7189671"><ele>627.0</ele><time>2026-05-03T11:06:25.121Z</time></trkpt><trkpt lat="44.2803208" lon="10.7190952"><ele>627.0</ele><time>2026-05-03T11:06:26.122Z</time></trkpt><trkpt lat="44.2804776" lon="10.7191796"><ele>627.0</ele><time>2026-05-03T11:06:27.122Z</time></trkpt><trkpt lat="44.2806513" lon="10.7192196"><ele>627.0</ele><time>2026-05-03T11:06:28.122Z</time></trkpt><trkpt lat="44.280826" lon="10.719218"><ele>632.0</ele><time>2026-05-03T11:06:29.122Z</time></trkpt><trkpt lat="44.2810026" lon="10.7192379"><ele>637.0</ele><time>2026-05-03T11:06:30.121Z</time></trkpt><trkpt lat="44.2811882" lon="10.7193097"><ele>642.0</ele><time>2026-05-03T11:06:31.121Z</time></trkpt><trkpt lat="44.2813725" lon="10.7193994"><ele>641.3333333333334</ele><time>2026-05-03T11:06:32.121Z</time></trkpt><trkpt lat="44.2815399" lon="10.7195292"><ele>640.6666666666667</ele><time>2026-05-03T11:06:33.122Z</time></trkpt><trkpt lat="44.2817065" lon="10.7196109"><ele>640.0</ele><time>2026-05-03T11:06:34.122Z</time></trkpt><trkpt lat="44.281863" lon="10.7196797"><ele>640.0</ele><time>2026-05-03T11:06:35.122Z</time></trkpt><trkpt lat="44.2820016" lon="10.7197417"><ele>640.0</ele><time>2026-05-03T11:06:36.121Z</time></trkpt><trkpt lat="44.2821292" lon="10.7198192"><ele>640.0</ele><time>2026-05-03T11:06:37.121Z</time></trkpt><trkpt lat="44.2822435" lon="10.7199681"><ele>640.0</ele><time>2026-05-03T11:06:38.121Z</time></trkpt><trkpt lat="44.2823453" lon="10.7201156"><ele>639.6666666666667</ele><time>2026-05-03T11:06:39.122Z</time></trkpt><trkpt lat="44.2824728" lon="10.720242"><ele>639.3333333333334</ele><time>2026-05-03T11:06:40.121Z</time></trkpt><trkpt lat="44.2826165" lon="10.7203173"><ele>639.0</ele><time>2026-05-03T11:06:41.122Z</time></trkpt><trkpt lat="44.2827811" lon="10.720349"><ele>639.0</ele><time>2026-05-03T11:06:42.122Z</time></trkpt><trkpt lat="44.2829544" lon="10.7203643"><ele>639.0</ele><time>2026-05-03T11:06:43.121Z</time></trkpt><trkpt lat="44.2831376" lon="10.7203364"><ele>639.0</ele><time>2026-05-03T11:06:44.122Z</time></trkpt><trkpt lat="44.2833001" lon="10.7203236"><ele>640.75</ele><time>2026-05-03T11:06:45.121Z</time></trkpt><trkpt lat="44.2834333" lon="10.7203585"><ele>642.5</ele><time>2026-05-03T11:06:46.122Z</time></trkpt><trkpt lat="44.2835495" lon="10.7204378"><ele>644.25</ele><time>2026-05-03T11:06:47.121Z</time></trkpt><trkpt lat="44.2836591" lon="10.7205549"><ele>646.0</ele><time>2026-05-03T11:06:48.121Z</time></trkpt><trkpt lat="44.2837746" lon="10.7206837"><ele>646.0</ele><time>2026-05-03T11:06:49.122Z</time></trkpt><trkpt lat="44.2839214" lon="10.7208065"><ele>646.0</ele><time>2026-05-03T11:06:50.122Z</time></trkpt><trkpt lat="44.2840634" lon="10.7209313"><ele>646.0</ele><time>2026-05-03T11:06:51.121Z</time></trkpt><trkpt lat="44.2841793" lon="10.7210768"><ele>649.0</ele><time>2026-05-03T11:06:52.121Z</time></trkpt><trkpt lat="44.2842472" lon="10.7212379"><ele>652.0</ele><time>2026-05-03T11:06:53.121Z</time></trkpt><trkpt lat="44.2842771" lon="10.7214072"><ele>655.0</ele><time>2026-05-03T11:06:54.122Z</time></trkpt><trkpt lat="44.2842899" lon="10.7215919"><ele>658.0</ele><time>2026-05-03T11:06:55.121Z</time></trkpt><trkpt lat="44.2843142" lon="10.7217515"><ele>658.0</ele><time>2026-05-03T11:06:56.122Z</time></trkpt><trkpt lat="44.2843722" lon="10.7218936"><ele>658.0</ele><time>2026-05-03T11:06:57.122Z</time></trkpt><trkpt lat="44.2844668" lon="10.7220077"><ele>658.0</ele><time>2026-05-03T11:06:58.121Z</time></trkpt><trkpt lat="44.2845716" lon="10.7220944"><ele>658.0</ele><time>2026-05-03T11:06:59.122Z</time></trkpt><trkpt lat="44.2847167" lon="10.7220804"><ele>661.25</ele><time>2026-05-03T11:07:00.12Z</time></trkpt><trkpt lat="44.2848573" lon="10.7220711"><ele>664.5</ele><time>2026-05-03T11:07:01.122Z</time></trkpt><trkpt lat="44.2849787" lon="10.7220941"><ele>667.75</ele><time>2026-05-03T11:07:02.122Z</time></trkpt><trkpt lat="44.2850891" lon="10.7221514"><ele>671.0</ele><time>2026-05-03T11:07:03.122Z</time></trkpt><trkpt lat="44.2851366" lon="10.7222978"><ele>671.0</ele><time>2026-05-03T11:07:04.122Z</time></trkpt><trkpt lat="44.2851768" lon="10.722443"><ele>671.0</ele><time>2026-05-03T11:07:05.121Z</time></trkpt><trkpt lat="44.2852351" lon="10.7226137"><ele>671.0</ele><time>2026-05-03T11:07:06.122Z</time></trkpt><trkpt lat="44.285304" lon="10.7227784"><ele>671.0</ele><time>2026-05-03T11:07:07.122Z</time></trkpt><trkpt lat="44.2854204" lon="10.7228778"><ele>672.0</ele><time>2026-05-03T11:07:08.122Z</time></trkpt><trkpt lat="44.2855523" lon="10.7229222"><ele>673.0</ele><time>2026-05-03T11:07:09.121Z</time></trkpt><trkpt lat="44.2856883" lon="10.7229122"><ele>674.0</ele><time>2026-05-03T11:07:10.122Z</time></trkpt><trkpt lat="44.2858452" lon="10.7228717"><ele>675.0</ele><time>2026-05-03T11:07:11.122Z</time></trkpt><trkpt lat="44.2860148" lon="10.7228498"><ele>675.0</ele><time>2026-05-03T11:07:12.122Z</time></trkpt><trkpt lat="44.2862078" lon="10.7228678"><ele>675.0</ele><time>2026-05-03T11:07:13.121Z</time></trkpt><trkpt lat="44.2864138" lon="10.7229026"><ele>675.0</ele><time>2026-05-03T11:07:14.121Z</time></trkpt><trkpt lat="44.286604" lon="10.7229205"><ele>676.6666666666666</ele><time>2026-05-03T11:07:15.121Z</time></trkpt><trkpt lat="44.2867836" lon="10.7229171"><ele>678.3333333333333</ele><time>2026-05-03T11:07:16.122Z</time></trkpt><trkpt lat="44.2869603" lon="10.722926"><ele>680.0</ele><time>2026-05-03T11:07:17.122Z</time></trkpt><trkpt lat="44.2871222" lon="10.7229821"><ele>682.6666666666666</ele><time>2026-05-03T11:07:18.122Z</time></trkpt><trkpt lat="44.2872783" lon="10.7230463"><ele>685.3333333333334</ele><time>2026-05-03T11:07:19.121Z</time></trkpt><trkpt lat="44.2874384" lon="10.7230711"><ele>688.0</ele><time>2026-05-03T11:07:20.122Z</time></trkpt><trkpt lat="44.2876018" lon="10.7230459"><ele>688.0</ele><time>2026-05-03T11:07:21.122Z</time></trkpt><trkpt lat="44.2877785" lon="10.7229753"><ele>688.0</ele><time>2026-05-03T11:07:22.122Z</time></trkpt><trkpt lat="44.2879662" lon="10.7228764"><ele>688.0</ele><time>2026-05-03T11:07:23.121Z</time></trkpt><trkpt lat="44.2881642" lon="10.7227992"><ele>696.3333333333334</ele><time>2026-05-03T11:07:24.122Z</time></trkpt><trkpt lat="44.2883524" lon="10.7227254"><ele>704.6666666666666</ele><time>2026-05-03T11:07:25.121Z</time></trkpt><trkpt lat="44.2884963" lon="10.7226305"><ele>713.0</ele><time>2026-05-03T11:07:26.121Z</time></trkpt><trkpt lat="44.2886172" lon="10.7224834"><ele>713.0</ele><time>2026-05-03T11:07:27.122Z</time></trkpt><trkpt lat="44.288725" lon="10.7222878"><ele>713.0</ele><time>2026-05-03T11:07:28.121Z</time></trkpt><trkpt lat="44.2888337" lon="10.7220661"><ele>713.0</ele><time>2026-05-03T11:07:29.121Z</time></trkpt><trkpt lat="44.2889234" lon="10.7218386"><ele>712.0</ele><time>2026-05-03T11:07:30.122Z</time></trkpt><trkpt lat="44.2889976" lon="10.7216316"><ele>711.0</ele><time>2026-05-03T11:07:31.122Z</time></trkpt><trkpt lat="44.2890742" lon="10.7214742"><ele>710.0</ele><time>2026-05-03T11:07:32.122Z</time></trkpt><trkpt lat="44.289166" lon="10.7213742"><ele>709.0</ele><time>2026-05-03T11:07:33.121Z</time></trkpt><trkpt lat="44.2892609" lon="10.7213314"><ele>709.0</ele><time>2026-05-03T11:07:34.122Z</time></trkpt><trkpt lat="44.2893608" lon="10.7213503"><ele>709.0</ele><time>2026-05-03T11:07:35.122Z</time></trkpt><trkpt lat="44.2894446" lon="10.7214252"><ele>709.0</ele><time>2026-05-03T11:07:36.121Z</time></trkpt><trkpt lat="44.2895333" lon="10.7215399"><ele>709.0</ele><time>2026-05-03T11:07:37.122Z</time></trkpt><trkpt lat="44.2896382" lon="10.7216858"><ele>706.3333333333334</ele><time>2026-05-03T11:07:38.122Z</time></trkpt><trkpt lat="44.2897641" lon="10.7218047"><ele>703.6666666666666</ele><time>2026-05-03T11:07:39.121Z</time></trkpt><trkpt lat="44.2899278" lon="10.7218958"><ele>701.0</ele><time>2026-05-03T11:07:40.122Z</time></trkpt><trkpt lat="44.2901051" lon="10.7219936"><ele>701.0</ele><time>2026-05-03T11:07:41.121Z</time></trkpt><trkpt lat="44.2903001" lon="10.7221143"><ele>701.0</ele><time>2026-05-03T11:07:42.121Z</time></trkpt><trkpt lat="44.2905095" lon="10.7222677"><ele>704.6666666666666</ele><time>2026-05-03T11:07:43.121Z</time></trkpt><trkpt lat="44.2907017" lon="10.7224187"><ele>708.3333333333334</ele><time>2026-05-03T11:07:44.121Z</time></trkpt><trkpt lat="44.2908752" lon="10.7225587"><ele>712.0</ele><time>2026-05-03T11:07:45.122Z</time></trkpt><trkpt lat="44.2910231" lon="10.7227131"><ele>707.3333333333334</ele><time>2026-05-03T11:07:46.122Z</time></trkpt><trkpt lat="44.2911458" lon="10.7228981"><ele>702.6666666666666</ele><time>2026-05-03T11:07:47.121Z</time></trkpt><trkpt lat="44.2912672" lon="10.7230888"><ele>698.0</ele><time>2026-05-03T11:07:48.122Z</time></trkpt><trkpt lat="44.2914027" lon="10.7232422"><ele>699.0</ele><time>2026-05-03T11:07:49.122Z</time></trkpt><trkpt lat="44.2915579" lon="10.7233626"><ele>700.0</ele><time>2026-05-03T11:07:50.122Z</time></trkpt><trkpt lat="44.2917024" lon="10.7234863"><ele>701.0</ele><time>2026-05-03T11:07:51.121Z</time></trkpt><trkpt lat="44.291839" lon="10.7236178"><ele>701.0</ele><time>2026-05-03T11:07:52.122Z</time></trkpt><trkpt lat="44.291916" lon="10.7238209"><ele>701.0</ele><time>2026-05-03T11:07:53.121Z</time></trkpt><trkpt lat="44.2920042" lon="10.7240138"><ele>701.0</ele><time>2026-05-03T11:07:54.121Z</time></trkpt><trkpt lat="44.2920933" lon="10.7242326"><ele>698.6666666666666</ele><time>2026-05-03T11:07:55.122Z</time></trkpt><trkpt lat="44.2921855" lon="10.7244302"><ele>696.3333333333334</ele><time>2026-05-03T11:07:56.121Z</time></trkpt><trkpt lat="44.2922734" lon="10.7246058"><ele>694.0</ele><time>2026-05-03T11:07:57.121Z</time></trkpt><trkpt lat="44.2923541" lon="10.7247673"><ele>697.25</ele><time>2026-05-03T11:07:58.122Z</time></trkpt><trkpt lat="44.2924433" lon="10.7249217"><ele>700.5</ele><time>2026-05-03T11:07:59.122Z</time></trkpt><trkpt lat="44.2925335" lon="10.7250577"><ele>703.75</ele><time>2026-05-03T11:08:00.122Z</time></trkpt><trkpt lat="44.2926374" lon="10.7251914"><ele>707.0</ele><time>2026-05-03T11:08:01.122Z</time></trkpt><trkpt lat="44.2927399" lon="10.7253174"><ele>707.0</ele><time>2026-05-03T11:08:02.122Z</time></trkpt><trkpt lat="44.29288" lon="10.7254033"><ele>707.0</ele><time>2026-05-03T11:08:03.122Z</time></trkpt><trkpt lat="44.2930335" lon="10.7254718"><ele>707.0</ele><time>2026-05-03T11:08:04.121Z</time></trkpt><trkpt lat="44.2931928" lon="10.7255065"><ele>708.6666666666666</ele><time>2026-05-03T11:08:05.122Z</time></trkpt><trkpt lat="44.2933578" lon="10.7255354"><ele>710.3333333333334</ele><time>2026-05-03T11:08:06.121Z</time></trkpt><trkpt lat="44.2935192" lon="10.7255579"><ele>712.0</ele><time>2026-05-03T11:08:07.121Z</time></trkpt><trkpt lat="44.2936672" lon="10.7255819"><ele>712.0</ele><time>2026-05-03T11:08:08.121Z</time></trkpt><trkpt lat="44.293817" lon="10.7255786"><ele>712.0</ele><time>2026-05-03T11:08:09.121Z</time></trkpt><trkpt lat="44.2939492" lon="10.7255217"><ele>712.0</ele><time>2026-05-03T11:08:10.122Z</time></trkpt><trkpt lat="44.2940795" lon="10.7254191"><ele>712.0</ele><time>2026-05-03T11:08:11.121Z</time></trkpt><trkpt lat="44.2942302" lon="10.7253041"><ele>716.0</ele><time>2026-05-03T11:08:12.121Z</time></trkpt><trkpt lat="44.294385" lon="10.7251911"><ele>720.0</ele><time>2026-05-03T11:08:13.122Z</time></trkpt><trkpt lat="44.2945498" lon="10.7251028"><ele>724.0</ele><time>2026-05-03T11:08:14.122Z</time></trkpt><trkpt lat="44.294709" lon="10.7250385"><ele>725.0</ele><time>2026-05-03T11:08:15.121Z</time></trkpt><trkpt lat="44.2948706" lon="10.7250076"><ele>726.0</ele><time>2026-05-03T11:08:16.122Z</time></trkpt><trkpt lat="44.2950328" lon="10.7250172"><ele>727.0</ele><time>2026-05-03T11:08:17.121Z</time></trkpt><trkpt lat="44.2951817" lon="10.7250628"><ele>727.0</ele><time>2026-05-03T11:08:18.122Z</time></trkpt><trkpt lat="44.2953201" lon="10.7251538"><ele>727.0</ele><time>2026-05-03T11:08:19.122Z</time></trkpt><trkpt lat="44.2954435" lon="10.7252827"><ele>727.0</ele><time>2026-05-03T11:08:20.122Z</time></trkpt><trkpt lat="44.2955516" lon="10.7254588"><ele>728.6666666666667</ele><time>2026-05-03T11:08:21.121Z</time></trkpt><trkpt lat="44.295652" lon="10.7256552"><ele>730.3333333333334</ele><time>2026-05-03T11:08:22.122Z</time></trkpt><trkpt lat="44.2957538" lon="10.7258687"><ele>732.0</ele><time>2026-05-03T11:08:23.122Z</time></trkpt><trkpt lat="44.2958652" lon="10.7260936"><ele>732.0</ele><time>2026-05-03T11:08:24.121Z</time></trkpt><trkpt lat="44.2959834" lon="10.7263074"><ele>732.0</ele><time>2026-05-03T11:08:25.121Z</time></trkpt><trkpt lat="44.2961137" lon="10.7264999"><ele>732.0</ele><time>2026-05-03T11:08:26.122Z</time></trkpt><trkpt lat="44.296256" lon="10.7266799"><ele>732.0</ele><time>2026-05-03T11:08:27.122Z</time></trkpt><trkpt lat="44.2963971" lon="10.7268461"><ele>732.0</ele><time>2026-05-03T11:08:28.121Z</time></trkpt><trkpt lat="44.2965136" lon="10.7270115"><ele>732.0</ele><time>2026-05-03T11:08:29.122Z</time></trkpt><trkpt lat="44.2966116" lon="10.7271769"><ele>736.0</ele><time>2026-05-03T11:08:30.122Z</time></trkpt><trkpt lat="44.2967107" lon="10.727346"><ele>740.0</ele><time>2026-05-03T11:08:31.121Z</time></trkpt><trkpt lat="44.296827" lon="10.7275054"><ele>744.0</ele><time>2026-05-03T11:08:32.121Z</time></trkpt><trkpt lat="44.2969578" lon="10.7276574"><ele>745.0</ele><time>2026-05-03T11:08:33.122Z</time></trkpt><trkpt lat="44.2970986" lon="10.7278238"><ele>746.0</ele><time>2026-05-03T11:08:34.122Z</time></trkpt><trkpt lat="44.2972552" lon="10.7280003"><ele>747.0</ele><time>2026-05-03T11:08:35.122Z</time></trkpt><trkpt lat="44.2974268" lon="10.7281898"><ele>747.0</ele><time>2026-05-03T11:08:36.122Z</time></trkpt><trkpt lat="44.2976147" lon="10.7284018"><ele>747.0</ele><time>2026-05-03T11:08:37.122Z</time></trkpt><trkpt lat="44.2977994" lon="10.728614"><ele>749.0</ele><time>2026-05-03T11:08:38.122Z</time></trkpt><trkpt lat="44.2979693" lon="10.7288198"><ele>751.0</ele><time>2026-05-03T11:08:39.121Z</time></trkpt><trkpt lat="44.2981322" lon="10.7290076"><ele>753.0</ele><time>2026-05-03T11:08:40.121Z</time></trkpt><trkpt lat="44.298254" lon="10.7291588"><ele>753.0</ele><time>2026-05-03T11:08:41.121Z</time></trkpt><trkpt lat="44.2983731" lon="10.729288"><ele>753.0</ele><time>2026-05-03T11:08:42.122Z</time></trkpt><trkpt lat="44.2984763" lon="10.7293409"><ele>753.0</ele><time>2026-05-03T11:08:43.121Z</time></trkpt><trkpt lat="44.2985809" lon="10.7293749"><ele>753.0</ele><time>2026-05-03T11:08:44.122Z</time></trkpt><trkpt lat="44.2986824" lon="10.729315"><ele>753.0</ele><time>2026-05-03T11:08:45.121Z</time></trkpt><trkpt lat="44.2987925" lon="10.7292194"><ele>753.0</ele><time>2026-05-03T11:08:46.121Z</time></trkpt><trkpt lat="44.2989192" lon="10.7290713"><ele>753.0</ele><time>2026-05-03T11:08:47.121Z</time></trkpt><trkpt lat="44.2990485" lon="10.7289269"><ele>755.3333333333334</ele><time>2026-05-03T11:08:48.121Z</time></trkpt><trkpt lat="44.2991892" lon="10.728809"><ele>757.6666666666667</ele><time>2026-05-03T11:08:49.121Z</time></trkpt><trkpt lat="44.2993513" lon="10.7287113"><ele>760.0</ele><time>2026-05-03T11:08:50.121Z</time></trkpt><trkpt lat="44.2995051" lon="10.7286276"><ele>760.0</ele><time>2026-05-03T11:08:51.122Z</time></trkpt><trkpt lat="44.2996726" lon="10.7286284"><ele>760.0</ele><time>2026-05-03T11:08:52.122Z</time></trkpt><trkpt lat="44.2998516" lon="10.7286597"><ele>760.0</ele><time>2026-05-03T11:08:53.122Z</time></trkpt><trkpt lat="44.3000477" lon="10.7287191"><ele>762.3333333333334</ele><time>2026-05-03T11:08:54.121Z</time></trkpt><trkpt lat="44.3002616" lon="10.7287883"><ele>764.6666666666666</ele><time>2026-05-03T11:08:55.121Z</time></trkpt><trkpt lat="44.3004854" lon="10.7288579"><ele>767.0</ele><time>2026-05-03T11:08:56.121Z</time></trkpt><trkpt lat="44.3006965" lon="10.7289247"><ele>768.0</ele><time>2026-05-03T11:08:57.122Z</time></trkpt><trkpt lat="44.3008884" lon="10.7289892"><ele>769.0</ele><time>2026-05-03T11:08:58.122Z</time></trkpt><trkpt lat="44.3010401" lon="10.7290359"><ele>770.0</ele><time>2026-05-03T11:08:59.121Z</time></trkpt><trkpt lat="44.3011819" lon="10.7290733"><ele>770.0</ele><time>2026-05-03T11:09:00.121Z</time></trkpt><trkpt lat="44.3013165" lon="10.7291011"><ele>770.0</ele><time>2026-05-03T11:09:01.121Z</time></trkpt><trkpt lat="44.3014441" lon="10.7291186"><ele>770.0</ele><time>2026-05-03T11:09:02.122Z</time></trkpt><trkpt lat="44.3015716" lon="10.7291284"><ele>770.0</ele><time>2026-05-03T11:09:03.122Z</time></trkpt><trkpt lat="44.3016922" lon="10.7291355"><ele>771.5</ele><time>2026-05-03T11:09:04.121Z</time></trkpt><trkpt lat="44.3018147" lon="10.729136"><ele>773.0</ele><time>2026-05-03T11:09:05.121Z</time></trkpt><trkpt lat="44.3019314" lon="10.7291287"><ele>774.5</ele><time>2026-05-03T11:09:06.122Z</time></trkpt><trkpt lat="44.3020376" lon="10.7290943"><ele>776.0</ele><time>2026-05-03T11:09:07.121Z</time></trkpt><trkpt lat="44.3021249" lon="10.7290146"><ele>776.0</ele><time>2026-05-03T11:09:08.121Z</time></trkpt><trkpt lat="44.3022001" lon="10.7289007"><ele>776.0</ele><time>2026-05-03T11:09:09.121Z</time></trkpt><trkpt lat="44.3022441" lon="10.7287431"><ele>776.0</ele><time>2026-05-03T11:09:10.122Z</time></trkpt><trkpt lat="44.3022756" lon="10.7285696"><ele>776.0</ele><time>2026-05-03T11:09:11.121Z</time></trkpt><trkpt lat="44.3022996" lon="10.7284075"><ele>777.1666666666667</ele><time>2026-05-03T11:09:12.122Z</time></trkpt><trkpt lat="44.3023253" lon="10.7282649"><ele>778.3333333333334</ele><time>2026-05-03T11:09:13.122Z</time></trkpt><trkpt lat="44.3023474" lon="10.728134"><ele>779.5</ele><time>2026-05-03T11:09:14.122Z</time></trkpt><trkpt lat="44.3023691" lon="10.7280209"><ele>780.6666666666667</ele><time>2026-05-03T11:09:15.121Z</time></trkpt><trkpt lat="44.3023866" lon="10.7279143"><ele>781.8333333333334</ele><time>2026-05-03T11:09:16.121Z</time></trkpt><trkpt lat="44.3024004" lon="10.7278121"><ele>783.0</ele><time>2026-05-03T11:09:17.121Z</time></trkpt><trkpt lat="44.3024134" lon="10.7277048"><ele>783.6666666666666</ele><time>2026-05-03T11:09:18.121Z</time></trkpt><trkpt lat="44.3024359" lon="10.7275968"><ele>784.3333333333333</ele><time>2026-05-03T11:09:19.121Z</time></trkpt><trkpt lat="44.3024566" lon="10.7274825"><ele>785.0</ele><time>2026-05-03T11:09:20.121Z</time></trkpt><trkpt lat="44.3024852" lon="10.727366"><ele>785.6666666666666</ele><time>2026-05-03T11:09:21.121Z</time></trkpt><trkpt lat="44.3025262" lon="10.7272511"><ele>786.3333333333333</ele><time>2026-05-03T11:09:22.121Z</time></trkpt><trkpt lat="44.302585" lon="10.727158"><ele>787.0</ele><time>2026-05-03T11:09:23.121Z</time></trkpt><trkpt lat="44.302662" lon="10.7270854"><ele>787.0</ele><time>2026-05-03T11:09:24.122Z</time></trkpt><trkpt lat="44.302752" lon="10.7270559"><ele>787.0</ele><time>2026-05-03T11:09:25.121Z</time></trkpt><trkpt lat="44.3028527" lon="10.7270583"><ele>787.0</ele><time>2026-05-03T11:09:26.122Z</time></trkpt><trkpt lat="44.3029643" lon="10.7270926"><ele>787.0</ele><time>2026-05-03T11:09:27.121Z</time></trkpt><trkpt lat="44.3030944" lon="10.7271381"><ele>787.0</ele><time>2026-05-03T11:09:28.122Z</time></trkpt><trkpt lat="44.3032329" lon="10.7272039"><ele>788.6666666666666</ele><time>2026-05-03T11:09:29.121Z</time></trkpt><trkpt lat="44.3033807" lon="10.7272875"><ele>790.3333333333333</ele><time>2026-05-03T11:09:30.122Z</time></trkpt><trkpt lat="44.3035121" lon="10.7273878"><ele>792.0</ele><time>2026-05-03T11:09:31.122Z</time></trkpt><trkpt lat="44.303643" lon="10.7274735"><ele>792.0</ele><time>2026-05-03T11:09:32.122Z</time></trkpt><trkpt lat="44.3037829" lon="10.727528"><ele>792.0</ele><time>2026-05-03T11:09:33.122Z</time></trkpt><trkpt lat="44.3039323" lon="10.7275504"><ele>792.0</ele><time>2026-05-03T11:09:34.121Z</time></trkpt><trkpt lat="44.3040983" lon="10.7275696"><ele>795.3333333333333</ele><time>2026-05-03T11:09:35.122Z</time></trkpt><trkpt lat="44.3042623" lon="10.727589"><ele>798.6666666666666</ele><time>2026-05-03T11:09:36.121Z</time></trkpt><trkpt lat="44.3044052" lon="10.7276389"><ele>802.0</ele><time>2026-05-03T11:09:37.121Z</time></trkpt><trkpt lat="44.3045374" lon="10.7277119"><ele>803.0</ele><time>2026-05-03T11:09:38.122Z</time></trkpt><trkpt lat="44.3046546" lon="10.7278095"><ele>804.0</ele><time>2026-05-03T11:09:39.122Z</time></trkpt><trkpt lat="44.304773" lon="10.7279145"><ele>805.0</ele><time>2026-05-03T11:09:40.122Z</time></trkpt><trkpt lat="44.3048829" lon="10.7280079"><ele>806.0</ele><time>2026-05-03T11:09:41.122Z</time></trkpt><trkpt lat="44.3049714" lon="10.7280878"><ele>806.0</ele><time>2026-05-03T11:09:42.122Z</time></trkpt><trkpt lat="44.3050689" lon="10.7281618"><ele>806.0</ele><time>2026-05-03T11:09:43.122Z</time></trkpt><trkpt lat="44.3051611" lon="10.7282235"><ele>806.0</ele><time>2026-05-03T11:09:44.121Z</time></trkpt><trkpt lat="44.3052629" lon="10.728276"><ele>806.0</ele><time>2026-05-03T11:09:45.122Z</time></trkpt><trkpt lat="44.3053672" lon="10.7283059"><ele>806.0</ele><time>2026-05-03T11:09:46.121Z</time></trkpt><trkpt lat="44.3054748" lon="10.7283252"><ele>808.1999999999999</ele><time>2026-05-03T11:09:47.121Z</time></trkpt><trkpt lat="44.3055833" lon="10.7283517"><ele>810.4</ele><time>2026-05-03T11:09:48.121Z</time></trkpt><trkpt lat="44.3056839" lon="10.7284025"><ele>812.6</ele><time>2026-05-03T11:09:49.121Z</time></trkpt><trkpt lat="44.3057684" lon="10.7284851"><ele>814.8</ele><time>2026-05-03T11:09:50.121Z</time></trkpt><trkpt lat="44.3058446" lon="10.7285763"><ele>817.0</ele><time>2026-05-03T11:09:51.121Z</time></trkpt><trkpt lat="44.3059164" lon="10.7286962"><ele>817.0</ele><time>2026-05-03T11:09:52.122Z</time></trkpt><trkpt lat="44.305973" lon="10.7288072"><ele>817.0</ele><time>2026-05-03T11:09:53.121Z</time></trkpt><trkpt lat="44.3060323" lon="10.7289184"><ele>817.0</ele><time>2026-05-03T11:09:54.122Z</time></trkpt><trkpt lat="44.3060925" lon="10.72902"><ele>817.0</ele><time>2026-05-03T11:09:55.121Z</time></trkpt><trkpt lat="44.3061565" lon="10.7291055"><ele>817.0</ele><time>2026-05-03T11:09:56.121Z</time></trkpt><trkpt lat="44.3062183" lon="10.7291892"><ele>816.9999999999999</ele><time>2026-05-03T11:09:57.122Z</time></trkpt><trkpt lat="44.3062863" lon="10.7292636"><ele>817.0</ele><time>2026-05-03T11:09:58.121Z</time></trkpt><trkpt lat="44.3063518" lon="10.7293312"><ele>817.0</ele><time>2026-05-03T11:09:59.121Z</time></trkpt><trkpt lat="44.3064106" lon="10.7294085"><ele>817.0</ele><time>2026-05-03T11:10:00.121Z</time></trkpt><trkpt lat="44.306462" lon="10.7294945"><ele>816.9999999999999</ele><time>2026-05-03T11:10:01.121Z</time></trkpt><trkpt lat="44.3064817" lon="10.7296051"><ele>817.0</ele><time>2026-05-03T11:10:02.122Z</time></trkpt><trkpt lat="44.3064968" lon="10.72972"><ele>822.0</ele><time>2026-05-03T11:10:03.121Z</time></trkpt><trkpt lat="44.3064943" lon="10.7298297"><ele>827.0</ele><time>2026-05-03T11:10:04.122Z</time></trkpt><trkpt lat="44.3064789" lon="10.7299198"><ele>832.0</ele><time>2026-05-03T11:10:05.122Z</time></trkpt><trkpt lat="44.3064558" lon="10.7300017"><ele>837.0</ele><time>2026-05-03T11:10:06.122Z</time></trkpt><trkpt lat="44.3064213" lon="10.7301723"><ele>842.0</ele><time>2026-05-03T11:10:08.121Z</time></trkpt><trkpt lat="44.306476" lon="10.7303291"><ele>842.1666666666667</ele><time>2026-05-03T11:10:10.122Z</time></trkpt><trkpt lat="44.3065387" lon="10.7303937"><ele>842.3333333333334</ele><time>2026-05-03T11:10:11.122Z</time></trkpt><trkpt lat="44.3065979" lon="10.7304533"><ele>842.5</ele><time>2026-05-03T11:10:12.122Z</time></trkpt><trkpt lat="44.3066561" lon="10.7305084"><ele>842.6666666666667</ele><time>2026-05-03T11:10:13.122Z</time></trkpt><trkpt lat="44.3067353" lon="10.7306238"><ele>842.8333333333334</ele><time>2026-05-03T11:10:15.121Z</time></trkpt><trkpt lat="44.3067959" lon="10.7307194"><ele>843.0</ele><time>2026-05-03T11:10:17.122Z</time></trkpt><trkpt lat="44.30684" lon="10.7308241"><ele>843.0</ele><time>2026-05-03T11:10:19.122Z</time></trkpt><trkpt lat="44.3068938" lon="10.7309387"><ele>843.0</ele><time>2026-05-03T11:10:22.121Z</time></trkpt><trkpt lat="44.3069678" lon="10.7309854"><ele>843.0</ele><time>2026-05-03T11:10:26.121Z</time></trkpt><trkpt lat="44.3070181" lon="10.7310833"><ele>843.0</ele><time>2026-05-03T11:10:28.121Z</time></trkpt><trkpt lat="44.307041" lon="10.7311875"><ele>843.0</ele><time>2026-05-03T11:10:29.121Z</time></trkpt><trkpt lat="44.3070729" lon="10.7312992"><ele>843.0</ele><time>2026-05-03T11:10:30.121Z</time></trkpt><trkpt lat="44.3070992" lon="10.7314023"><ele>842.3333333333334</ele><time>2026-05-03T11:10:31.121Z</time></trkpt><trkpt lat="44.3071255" lon="10.7315001"><ele>841.6666666666667</ele><time>2026-05-03T11:10:32.122Z</time></trkpt><trkpt lat="44.3071541" lon="10.7316005"><ele>841.0</ele><time>2026-05-03T11:10:33.122Z</time></trkpt><trkpt lat="44.3071866" lon="10.7316993"><ele>840.3333333333334</ele><time>2026-05-03T11:10:34.121Z</time></trkpt><trkpt lat="44.3072173" lon="10.7318138"><ele>839.6666666666667</ele><time>2026-05-03T11:10:35.122Z</time></trkpt><trkpt lat="44.3072517" lon="10.7319316"><ele>839.0</ele><time>2026-05-03T11:10:36.121Z</time></trkpt><trkpt lat="44.30729" lon="10.7320524"><ele>840.5000000000001</ele><time>2026-05-03T11:10:37.122Z</time></trkpt><trkpt lat="44.3073377" lon="10.7321747"><ele>842.0</ele><time>2026-05-03T11:10:38.122Z</time></trkpt><trkpt lat="44.3073786" lon="10.7322861"><ele>843.5</ele><time>2026-05-03T11:10:39.122Z</time></trkpt><trkpt lat="44.3074085" lon="10.7323653"><ele>845.0</ele><time>2026-05-03T11:10:40.122Z</time></trkpt><trkpt lat="44.3074354" lon="10.7324639"><ele>846.5000000000001</ele><time>2026-05-03T11:10:42.122Z</time></trkpt><trkpt lat="44.3074639" lon="10.7325452"><ele>848.0</ele><time>2026-05-03T11:12:22.121Z</time></trkpt><trkpt lat="44.3075105" lon="10.7326146"><ele>847.4</ele><time>2026-05-03T11:13:24.121Z</time></trkpt><trkpt lat="44.3075641" lon="10.732747"><ele>846.8</ele><time>2026-05-03T11:13:26.122Z</time></trkpt><trkpt lat="44.3075951" lon="10.732842"><ele>846.2</ele><time>2026-05-03T11:13:28.122Z</time></trkpt><trkpt lat="44.3076118" lon="10.7329569"><ele>845.6</ele><time>2026-05-03T11:17:33.12Z</time></trkpt><trkpt lat="44.3076613" lon="10.7330645"><ele>845.0</ele><time>2026-05-03T11:17:35.122Z</time></trkpt><trkpt lat="44.3077179" lon="10.7331917"><ele>845.0000000000001</ele><time>2026-05-03T11:17:37.121Z</time></trkpt><trkpt lat="44.3077582" lon="10.7333551"><ele>845.0</ele><time>2026-05-03T11:17:39.122Z</time></trkpt><trkpt lat="44.3077747" lon="10.7334498"><ele>845.0</ele><time>2026-05-03T11:17:40.122Z</time></trkpt><trkpt lat="44.307782" lon="10.7335499"><ele>845.0</ele><time>2026-05-03T11:17:41.121Z</time></trkpt><trkpt lat="44.3077875" lon="10.7336518"><ele>845.0000000000001</ele><time>2026-05-03T11:17:42.122Z</time></trkpt><trkpt lat="44.3077929" lon="10.7337588"><ele>845.0</ele><time>2026-05-03T11:17:43.121Z</time></trkpt><trkpt lat="44.307797" lon="10.7338706"><ele>844.8333333333334</ele><time>2026-05-03T11:17:44.122Z</time></trkpt><trkpt lat="44.3078017" lon="10.7339871"><ele>844.6666666666667</ele><time>2026-05-03T11:17:45.122Z</time></trkpt><trkpt lat="44.3078055" lon="10.7341084"><ele>844.5</ele><time>2026-05-03T11:17:46.121Z</time></trkpt><trkpt lat="44.3078093" lon="10.7342341"><ele>844.3333333333333</ele><time>2026-05-03T11:17:47.12Z</time></trkpt><trkpt lat="44.3078147" lon="10.7343631"><ele>844.1666666666666</ele><time>2026-05-03T11:17:48.122Z</time></trkpt><trkpt lat="44.3078208" lon="10.7344967"><ele>844.0</ele><time>2026-05-03T11:17:49.122Z</time></trkpt><trkpt lat="44.3078261" lon="10.7346329"><ele>844.6</ele><time>2026-05-03T11:17:50.122Z</time></trkpt><trkpt lat="44.3078318" lon="10.7347732"><ele>845.2</ele><time>2026-05-03T11:17:51.122Z</time></trkpt><trkpt lat="44.3078379" lon="10.7349174"><ele>845.8000000000001</ele><time>2026-05-03T11:17:52.122Z</time></trkpt><trkpt lat="44.3078423" lon="10.7350649"><ele>846.4000000000001</ele><time>2026-05-03T11:17:53.121Z</time></trkpt><trkpt lat="44.3078482" lon="10.7352156"><ele>847.0</ele><time>2026-05-03T11:17:54.122Z</time></trkpt><trkpt lat="44.3078558" lon="10.7353704"><ele>847.5</ele><time>2026-05-03T11:17:55.122Z</time></trkpt><trkpt lat="44.3078655" lon="10.7355274"><ele>848.0</ele><time>2026-05-03T11:17:56.121Z</time></trkpt><trkpt lat="44.3078795" lon="10.7356859"><ele>848.5</ele><time>2026-05-03T11:17:57.121Z</time></trkpt><trkpt lat="44.3078948" lon="10.7358457"><ele>849.0</ele><time>2026-05-03T11:17:58.121Z</time></trkpt><trkpt lat="44.3079147" lon="10.7360083"><ele>848.2</ele><time>2026-05-03T11:17:59.121Z</time></trkpt><trkpt lat="44.307939" lon="10.7361695"><ele>847.4000000000001</ele><time>2026-05-03T11:18:00.119Z</time></trkpt><trkpt lat="44.3079665" lon="10.7363194"><ele>846.6</ele><time>2026-05-03T11:18:01.121Z</time></trkpt><trkpt lat="44.3079957" lon="10.7364631"><ele>845.8</ele><time>2026-05-03T11:18:02.121Z</time></trkpt><trkpt lat="44.3080247" lon="10.7366058"><ele>845.0</ele><time>2026-05-03T11:18:03.122Z</time></trkpt><trkpt lat="44.3080509" lon="10.7367524"><ele>843.75</ele><time>2026-05-03T11:18:04.121Z</time></trkpt><trkpt lat="44.3080734" lon="10.7369009"><ele>842.5</ele><time>2026-05-03T11:18:05.121Z</time></trkpt><trkpt lat="44.3081018" lon="10.7370532"><ele>841.25</ele><time>2026-05-03T11:18:06.122Z</time></trkpt><trkpt lat="44.3081359" lon="10.7372103"><ele>840.0</ele><time>2026-05-03T11:18:07.121Z</time></trkpt><trkpt lat="44.3081716" lon="10.7373732"><ele>842.5</ele><time>2026-05-03T11:18:08.121Z</time></trkpt><trkpt lat="44.3082091" lon="10.7375476"><ele>845.0</ele><time>2026-05-03T11:18:09.121Z</time></trkpt><trkpt lat="44.3082534" lon="10.7377334"><ele>847.5</ele><time>2026-05-03T11:18:10.122Z</time></trkpt><trkpt lat="44.3083073" lon="10.7379272"><ele>850.0</ele><time>2026-05-03T11:18:11.122Z</time></trkpt><trkpt lat="44.3083757" lon="10.7381222"><ele>851.6666666666666</ele><time>2026-05-03T11:18:12.121Z</time></trkpt><trkpt lat="44.3084629" lon="10.7383118"><ele>853.3333333333333</ele><time>2026-05-03T11:18:13.121Z</time></trkpt><trkpt lat="44.3085592" lon="10.7384884"><ele>855.0</ele><time>2026-05-03T11:18:14.122Z</time></trkpt><trkpt lat="44.3086569" lon="10.7386548"><ele>856.0</ele><time>2026-05-03T11:18:15.122Z</time></trkpt><trkpt lat="44.3087519" lon="10.7388304"><ele>857.0</ele><time>2026-05-03T11:18:16.121Z</time></trkpt><trkpt lat="44.3088325" lon="10.7390128"><ele>858.0</ele><time>2026-05-03T11:18:17.121Z</time></trkpt><trkpt lat="44.3089065" lon="10.7392075"><ele>861.3333333333333</ele><time>2026-05-03T11:18:18.121Z</time></trkpt><trkpt lat="44.3089741" lon="10.7394141"><ele>864.6666666666666</ele><time>2026-05-03T11:18:19.122Z</time></trkpt><trkpt lat="44.3090317" lon="10.7396266"><ele>868.0</ele><time>2026-05-03T11:18:20.122Z</time></trkpt><trkpt lat="44.3090871" lon="10.7398581"><ele>868.0</ele><time>2026-05-03T11:18:21.122Z</time></trkpt><trkpt lat="44.3091423" lon="10.7401106"><ele>868.0</ele><time>2026-05-03T11:18:22.121Z</time></trkpt><trkpt lat="44.3091946" lon="10.7403595"><ele>868.0</ele><time>2026-05-03T11:18:23.122Z</time></trkpt><trkpt lat="44.309242" lon="10.7405781"><ele>867.25</ele><time>2026-05-03T11:18:24.121Z</time></trkpt><trkpt lat="44.3093067" lon="10.7407604"><ele>866.5</ele><time>2026-05-03T11:18:25.119Z</time></trkpt><trkpt lat="44.3093982" lon="10.7408782"><ele>865.75</ele><time>2026-05-03T11:18:26.122Z</time></trkpt><trkpt lat="44.3095057" lon="10.7409456"><ele>865.0</ele><time>2026-05-03T11:18:27.118Z</time></trkpt><trkpt lat="44.3096376" lon="10.7409828"><ele>863.3333333333333</ele><time>2026-05-03T11:18:28.121Z</time></trkpt><trkpt lat="44.309787" lon="10.7410147"><ele>861.6666666666667</ele><time>2026-05-03T11:18:29.118Z</time></trkpt><trkpt lat="44.3099466" lon="10.7410538"><ele>860.0</ele><time>2026-05-03T11:18:30.121Z</time></trkpt><trkpt lat="44.3101081" lon="10.7410976"><ele>860.0</ele><time>2026-05-03T11:18:31.122Z</time></trkpt><trkpt lat="44.3102576" lon="10.7411637"><ele>860.0</ele><time>2026-05-03T11:18:32.12Z</time></trkpt><trkpt lat="44.3103876" lon="10.7412707"><ele>860.0</ele><time>2026-05-03T11:18:33.121Z</time></trkpt><trkpt lat="44.3105017" lon="10.7414196"><ele>864.0</ele><time>2026-05-03T11:18:34.121Z</time></trkpt><trkpt lat="44.3105995" lon="10.7416097"><ele>868.0</ele><time>2026-05-03T11:18:35.12Z</time></trkpt><trkpt lat="44.3106869" lon="10.7418282"><ele>872.0</ele><time>2026-05-03T11:18:36.121Z</time></trkpt><trkpt lat="44.3107704" lon="10.7420667"><ele>872.0</ele><time>2026-05-03T11:18:37.12Z</time></trkpt><trkpt lat="44.3108408" lon="10.7423282"><ele>872.0</ele><time>2026-05-03T11:18:38.122Z</time></trkpt><trkpt lat="44.3109003" lon="10.7425961"><ele>872.0</ele><time>2026-05-03T11:18:39.121Z</time></trkpt><trkpt lat="44.3109468" lon="10.7428496"><ele>871.0</ele><time>2026-05-03T11:18:40.122Z</time></trkpt><trkpt lat="44.3109707" lon="10.7430991"><ele>870.0</ele><time>2026-05-03T11:18:41.121Z</time></trkpt><trkpt lat="44.3109674" lon="10.7433517"><ele>869.0</ele><time>2026-05-03T11:18:42.121Z</time></trkpt><trkpt lat="44.3109321" lon="10.7436024"><ele>869.0</ele><time>2026-05-03T11:18:43.12Z</time></trkpt><trkpt lat="44.3108863" lon="10.743864"><ele>869.0</ele><time>2026-05-03T11:18:44.12Z</time></trkpt><trkpt lat="44.3108425" lon="10.7441172"><ele>869.0</ele><time>2026-05-03T11:18:45.122Z</time></trkpt><trkpt lat="44.3108085" lon="10.7443595"><ele>870.0</ele><time>2026-05-03T11:18:46.121Z</time></trkpt><trkpt lat="44.3107947" lon="10.7446049"><ele>871.0</ele><time>2026-05-03T11:18:47.121Z</time></trkpt><trkpt lat="44.3108004" lon="10.7448564"><ele>872.0</ele><time>2026-05-03T11:18:48.121Z</time></trkpt><trkpt lat="44.3108084" lon="10.7451064"><ele>873.3333333333334</ele><time>2026-05-03T11:18:49.121Z</time></trkpt><trkpt lat="44.3107993" lon="10.7453605"><ele>874.6666666666667</ele><time>2026-05-03T11:18:50.121Z</time></trkpt><trkpt lat="44.3107672" lon="10.745624"><ele>876.0</ele><time>2026-05-03T11:18:51.122Z</time></trkpt><trkpt lat="44.3107296" lon="10.7459012"><ele>875.0</ele><time>2026-05-03T11:18:52.122Z</time></trkpt><trkpt lat="44.3106905" lon="10.7461934"><ele>874.0</ele><time>2026-05-03T11:18:53.122Z</time></trkpt><trkpt lat="44.3106551" lon="10.7464848"><ele>873.0</ele><time>2026-05-03T11:18:54.122Z</time></trkpt><trkpt lat="44.3106426" lon="10.7467514"><ele>872.0</ele><time>2026-05-03T11:18:55.121Z</time></trkpt><trkpt lat="44.3106498" lon="10.7470053"><ele>871.0</ele><time>2026-05-03T11:18:56.121Z</time></trkpt><trkpt lat="44.310642" lon="10.747251"><ele>870.0</ele><time>2026-05-03T11:18:57.121Z</time></trkpt><trkpt lat="44.3105984" lon="10.74749"><ele>862.0</ele><time>2026-05-03T11:18:58.122Z</time></trkpt><trkpt lat="44.3105213" lon="10.7477049"><ele>854.0</ele><time>2026-05-03T11:18:59.122Z</time></trkpt><trkpt lat="44.3104283" lon="10.7478897"><ele>846.0</ele><time>2026-05-03T11:19:00.121Z</time></trkpt><trkpt lat="44.3103464" lon="10.7480612"><ele>845.75</ele><time>2026-05-03T11:19:01.119Z</time></trkpt><trkpt lat="44.3103028" lon="10.7482295"><ele>845.5</ele><time>2026-05-03T11:19:02.12Z</time></trkpt><trkpt lat="44.3103092" lon="10.7484005"><ele>845.25</ele><time>2026-05-03T11:19:03.121Z</time></trkpt><trkpt lat="44.3103747" lon="10.7485583"><ele>845.0</ele><time>2026-05-03T11:19:04.122Z</time></trkpt><trkpt lat="44.3104744" lon="10.7487067"><ele>846.3333333333334</ele><time>2026-05-03T11:19:05.121Z</time></trkpt><trkpt lat="44.3105945" lon="10.748835"><ele>847.6666666666667</ele><time>2026-05-03T11:19:06.122Z</time></trkpt><trkpt lat="44.310733" lon="10.748907"><ele>849.0</ele><time>2026-05-03T11:19:07.12Z</time></trkpt><trkpt lat="44.3108881" lon="10.7489062"><ele>849.0</ele><time>2026-05-03T11:19:08.121Z</time></trkpt><trkpt lat="44.3110498" lon="10.7488636"><ele>849.0</ele><time>2026-05-03T11:19:09.121Z</time></trkpt><trkpt lat="44.3112008" lon="10.7488159"><ele>849.0</ele><time>2026-05-03T11:19:10.121Z</time></trkpt><trkpt lat="44.3113214" lon="10.7487848"><ele>849.0</ele><time>2026-05-03T11:19:11.121Z</time></trkpt><trkpt lat="44.3114251" lon="10.7487844"><ele>849.0</ele><time>2026-05-03T11:19:12.121Z</time></trkpt><trkpt lat="44.3114806" lon="10.7488693"><ele>849.0</ele><time>2026-05-03T11:19:13.122Z</time></trkpt><trkpt lat="44.3115031" lon="10.7489663"><ele>849.0</ele><time>2026-05-03T11:19:14.122Z</time></trkpt><trkpt lat="44.3114817" lon="10.749067"><ele>849.0</ele><time>2026-05-03T11:19:15.121Z</time></trkpt><trkpt lat="44.3114186" lon="10.749172"><ele>849.0</ele><time>2026-05-03T11:19:16.121Z</time></trkpt><trkpt lat="44.3113231" lon="10.7492981"><ele>847.3333333333333</ele><time>2026-05-03T11:19:17.12Z</time></trkpt><trkpt lat="44.3112099" lon="10.7494597"><ele>845.6666666666666</ele><time>2026-05-03T11:19:18.122Z</time></trkpt><trkpt lat="44.3111198" lon="10.7496165"><ele>844.0</ele><time>2026-05-03T11:19:19.122Z</time></trkpt><trkpt lat="44.3110516" lon="10.7498004"><ele>844.0</ele><time>2026-05-03T11:19:20.121Z</time></trkpt><trkpt lat="44.311015" lon="10.7500022"><ele>844.0</ele><time>2026-05-03T11:19:21.122Z</time></trkpt><trkpt lat="44.3110024" lon="10.7502028"><ele>844.0</ele><time>2026-05-03T11:19:22.121Z</time></trkpt><trkpt lat="44.3109832" lon="10.7503943"><ele>844.0</ele><time>2026-05-03T11:19:23.122Z</time></trkpt><trkpt lat="44.3109278" lon="10.7505609"><ele>842.0</ele><time>2026-05-03T11:19:24.122Z</time></trkpt><trkpt lat="44.3108348" lon="10.7506891"><ele>840.0</ele><time>2026-05-03T11:19:25.122Z</time></trkpt><trkpt lat="44.3107297" lon="10.7508007"><ele>838.0</ele><time>2026-05-03T11:19:26.121Z</time></trkpt><trkpt lat="44.3106506" lon="10.7509322"><ele>836.0</ele><time>2026-05-03T11:19:27.121Z</time></trkpt><trkpt lat="44.3106109" lon="10.7511021"><ele>834.75</ele><time>2026-05-03T11:19:28.121Z</time></trkpt><trkpt lat="44.3105927" lon="10.7512911"><ele>833.5</ele><time>2026-05-03T11:19:29.121Z</time></trkpt><trkpt lat="44.3106164" lon="10.7514927"><ele>832.25</ele><time>2026-05-03T11:19:30.12Z</time></trkpt><trkpt lat="44.3106832" lon="10.7516841"><ele>831.0</ele><time>2026-05-03T11:19:31.122Z</time></trkpt><trkpt lat="44.3107808" lon="10.7518554"><ele>831.75</ele><time>2026-05-03T11:19:32.121Z</time></trkpt><trkpt lat="44.3108842" lon="10.7520254"><ele>832.5</ele><time>2026-05-03T11:19:33.121Z</time></trkpt><trkpt lat="44.3109691" lon="10.7521953"><ele>833.25</ele><time>2026-05-03T11:19:34.121Z</time></trkpt><trkpt lat="44.3110255" lon="10.7523745"><ele>834.0</ele><time>2026-05-03T11:19:35.121Z</time></trkpt><trkpt lat="44.3110565" lon="10.7525638"><ele>833.5</ele><time>2026-05-03T11:19:36.121Z</time></trkpt><trkpt lat="44.3110707" lon="10.7527631"><ele>833.0</ele><time>2026-05-03T11:19:37.121Z</time></trkpt><trkpt lat="44.31109" lon="10.7529528"><ele>832.5</ele><time>2026-05-03T11:19:38.121Z</time></trkpt><trkpt lat="44.3111371" lon="10.7531266"><ele>832.0</ele><time>2026-05-03T11:19:39.121Z</time></trkpt><trkpt lat="44.3112189" lon="10.7532781"><ele>832.0</ele><time>2026-05-03T11:19:40.121Z</time></trkpt><trkpt lat="44.3113274" lon="10.7533867"><ele>832.0</ele><time>2026-05-03T11:19:41.121Z</time></trkpt><trkpt lat="44.3114515" lon="10.7534632"><ele>832.0</ele><time>2026-05-03T11:19:42.122Z</time></trkpt><trkpt lat="44.3115634" lon="10.7535498"><ele>832.0</ele><time>2026-05-03T11:19:43.121Z</time></trkpt><trkpt lat="44.3116614" lon="10.7536738"><ele>828.0</ele><time>2026-05-03T11:19:44.121Z</time></trkpt><trkpt lat="44.3117515" lon="10.7538274"><ele>824.0</ele><time>2026-05-03T11:19:45.121Z</time></trkpt><trkpt lat="44.311849" lon="10.7539915"><ele>820.0</ele><time>2026-05-03T11:19:46.119Z</time></trkpt><trkpt lat="44.3119704" lon="10.7541656"><ele>820.0</ele><time>2026-05-03T11:19:47.12Z</time></trkpt><trkpt lat="44.3121083" lon="10.7543357"><ele>820.0</ele><time>2026-05-03T11:19:48.121Z</time></trkpt><trkpt lat="44.3122428" lon="10.7544822"><ele>820.0</ele><time>2026-05-03T11:19:49.122Z</time></trkpt><trkpt lat="44.3123723" lon="10.7546366"><ele>818.3333333333333</ele><time>2026-05-03T11:19:50.121Z</time></trkpt><trkpt lat="44.3124842" lon="10.7548245"><ele>816.6666666666667</ele><time>2026-05-03T11:19:51.121Z</time></trkpt><trkpt lat="44.312589" lon="10.7550327"><ele>815.0</ele><time>2026-05-03T11:19:52.121Z</time></trkpt><trkpt lat="44.3126866" lon="10.7552375"><ele>815.0</ele><time>2026-05-03T11:19:53.122Z</time></trkpt><trkpt lat="44.3127706" lon="10.7554227"><ele>815.0</ele><time>2026-05-03T11:19:54.121Z</time></trkpt><trkpt lat="44.3128388" lon="10.7555971"><ele>815.0</ele><time>2026-05-03T11:19:55.121Z</time></trkpt><trkpt lat="44.3128755" lon="10.7557787"><ele>815.0</ele><time>2026-05-03T11:19:56.119Z</time></trkpt><trkpt lat="44.3128743" lon="10.7559589"><ele>814.5</ele><time>2026-05-03T11:19:57.12Z</time></trkpt><trkpt lat="44.3128342" lon="10.7561386"><ele>814.0</ele><time>2026-05-03T11:19:58.121Z</time></trkpt><trkpt lat="44.3127635" lon="10.7563162"><ele>813.5</ele><time>2026-05-03T11:19:59.119Z</time></trkpt><trkpt lat="44.3126784" lon="10.7564914"><ele>813.0</ele><time>2026-05-03T11:20:00.122Z</time></trkpt><trkpt lat="44.3126025" lon="10.7566571"><ele>813.0</ele><time>2026-05-03T11:20:01.12Z</time></trkpt><trkpt lat="44.3125457" lon="10.756824"><ele>813.0</ele><time>2026-05-03T11:20:02.122Z</time></trkpt><trkpt lat="44.3125168" lon="10.7569964"><ele>813.0</ele><time>2026-05-03T11:20:03.121Z</time></trkpt><trkpt lat="44.3125189" lon="10.7571578"><ele>813.0</ele><time>2026-05-03T11:20:04.119Z</time></trkpt><trkpt lat="44.312553" lon="10.7573113"><ele>812.0</ele><time>2026-05-03T11:20:05.122Z</time></trkpt><trkpt lat="44.3126317" lon="10.7574704"><ele>811.0</ele><time>2026-05-03T11:20:06.122Z</time></trkpt><trkpt lat="44.312744" lon="10.7576488"><ele>810.0</ele><time>2026-05-03T11:20:07.122Z</time></trkpt><trkpt lat="44.3128739" lon="10.7578571"><ele>809.0</ele><time>2026-05-03T11:20:08.121Z</time></trkpt><trkpt lat="44.3129834" lon="10.7580566"><ele>808.0</ele><time>2026-05-03T11:20:09.121Z</time></trkpt><trkpt lat="44.3130935" lon="10.7582465"><ele>807.0</ele><time>2026-05-03T11:20:10.121Z</time></trkpt><trkpt lat="44.313191" lon="10.7584139"><ele>805.2</ele><time>2026-05-03T11:20:11.122Z</time></trkpt><trkpt lat="44.3132634" lon="10.7585522"><ele>803.4000000000001</ele><time>2026-05-03T11:20:12.122Z</time></trkpt><trkpt lat="44.3132993" lon="10.7586942"><ele>801.5999999999999</ele><time>2026-05-03T11:20:13.121Z</time></trkpt><trkpt lat="44.3132884" lon="10.758834"><ele>799.8</ele><time>2026-05-03T11:20:14.121Z</time></trkpt><trkpt lat="44.3132309" lon="10.7589559"><ele>798.0</ele><time>2026-05-03T11:20:15.121Z</time></trkpt><trkpt lat="44.3131381" lon="10.7590498"><ele>798.5</ele><time>2026-05-03T11:20:16.122Z</time></trkpt><trkpt lat="44.3130454" lon="10.7591591"><ele>799.0</ele><time>2026-05-03T11:20:17.121Z</time></trkpt><trkpt lat="44.3129826" lon="10.7593122"><ele>799.5</ele><time>2026-05-03T11:20:18.121Z</time></trkpt><trkpt lat="44.3129561" lon="10.7594953"><ele>800.0</ele><time>2026-05-03T11:20:19.122Z</time></trkpt><trkpt lat="44.3129719" lon="10.7597031"><ele>797.6666666666667</ele><time>2026-05-03T11:20:20.12Z</time></trkpt><trkpt lat="44.3130219" lon="10.759924"><ele>795.3333333333333</ele><time>2026-05-03T11:20:21.122Z</time></trkpt><trkpt lat="44.3130952" lon="10.760113"><ele>793.0</ele><time>2026-05-03T11:20:22.12Z</time></trkpt><trkpt lat="44.3131892" lon="10.7602715"><ele>792.8</ele><time>2026-05-03T11:20:23.122Z</time></trkpt><trkpt lat="44.3132795" lon="10.7604055"><ele>792.5999999999999</ele><time>2026-05-03T11:20:24.121Z</time></trkpt><trkpt lat="44.3133395" lon="10.7605308"><ele>792.4000000000001</ele><time>2026-05-03T11:20:25.122Z</time></trkpt><trkpt lat="44.3133555" lon="10.7606608"><ele>792.2</ele><time>2026-05-03T11:20:26.119Z</time></trkpt><trkpt lat="44.3133313" lon="10.7607861"><ele>792.0</ele><time>2026-05-03T11:20:27.121Z</time></trkpt><trkpt lat="44.3132561" lon="10.7608929"><ele>792.0</ele><time>2026-05-03T11:20:28.12Z</time></trkpt><trkpt lat="44.3131496" lon="10.7609871"><ele>792.0</ele><time>2026-05-03T11:20:29.121Z</time></trkpt><trkpt lat="44.3130564" lon="10.7611267"><ele>792.0</ele><time>2026-05-03T11:20:30.122Z</time></trkpt><trkpt lat="44.3129788" lon="10.7612919"><ele>792.0</ele><time>2026-05-03T11:20:31.121Z</time></trkpt><trkpt lat="44.3129029" lon="10.7614336"><ele>791.5</ele><time>2026-05-03T11:20:32.122Z</time></trkpt><trkpt lat="44.3128082" lon="10.7615443"><ele>791.0</ele><time>2026-05-03T11:20:33.12Z</time></trkpt><trkpt lat="44.3126971" lon="10.7616262"><ele>790.5</ele><time>2026-05-03T11:20:34.121Z</time></trkpt><trkpt lat="44.3125816" lon="10.7616886"><ele>790.0</ele><time>2026-05-03T11:20:35.122Z</time></trkpt><trkpt lat="44.3124707" lon="10.7617644"><ele>787.0</ele><time>2026-05-03T11:20:36.121Z</time></trkpt><trkpt lat="44.3123706" lon="10.7618701"><ele>784.0</ele><time>2026-05-03T11:20:37.12Z</time></trkpt><trkpt lat="44.3123193" lon="10.7620224"><ele>781.0</ele><time>2026-05-03T11:20:38.122Z</time></trkpt><trkpt lat="44.3122839" lon="10.7621721"><ele>778.0</ele><time>2026-05-03T11:20:39.122Z</time></trkpt><trkpt lat="44.3122821" lon="10.7623209"><ele>778.0</ele><time>2026-05-03T11:20:40.122Z</time></trkpt><trkpt lat="44.3123086" lon="10.762473"><ele>778.0</ele><time>2026-05-03T11:20:41.121Z</time></trkpt><trkpt lat="44.3123536" lon="10.7626209"><ele>778.0</ele><time>2026-05-03T11:20:42.122Z</time></trkpt><trkpt lat="44.3124115" lon="10.7627563"><ele>778.0</ele><time>2026-05-03T11:20:43.122Z</time></trkpt><trkpt lat="44.3124691" lon="10.7628805"><ele>778.0</ele><time>2026-05-03T11:20:44.121Z</time></trkpt><trkpt lat="44.3125161" lon="10.7630049"><ele>777.5999999999999</ele><time>2026-05-03T11:20:45.119Z</time></trkpt><trkpt lat="44.3125412" lon="10.7631334"><ele>777.1999999999999</ele><time>2026-05-03T11:20:46.121Z</time></trkpt><trkpt lat="44.312536" lon="10.7632641"><ele>776.8</ele><time>2026-05-03T11:20:47.122Z</time></trkpt><trkpt lat="44.3125021" lon="10.7633992"><ele>776.4</ele><time>2026-05-03T11:20:48.122Z</time></trkpt><trkpt lat="44.3124447" lon="10.7635301"><ele>776.0</ele><time>2026-05-03T11:20:49.119Z</time></trkpt><trkpt lat="44.3123741" lon="10.7636562"><ele>776.0</ele><time>2026-05-03T11:20:50.12Z</time></trkpt><trkpt lat="44.3123049" lon="10.7637952"><ele>776.0</ele><time>2026-05-03T11:20:51.121Z</time></trkpt><trkpt lat="44.3122494" lon="10.7639603"><ele>776.0</ele><time>2026-05-03T11:20:52.121Z</time></trkpt><trkpt lat="44.3122151" lon="10.7641416"><ele>776.0</ele><time>2026-05-03T11:20:53.12Z</time></trkpt><trkpt lat="44.3121966" lon="10.7643329"><ele>774.25</ele><time>2026-05-03T11:20:54.121Z</time></trkpt><trkpt lat="44.3121891" lon="10.7645316"><ele>772.5</ele><time>2026-05-03T11:20:55.12Z</time></trkpt><trkpt lat="44.3121823" lon="10.7647393"><ele>770.75</ele><time>2026-05-03T11:20:56.122Z</time></trkpt><trkpt lat="44.3121741" lon="10.7649481"><ele>769.0</ele><time>2026-05-03T11:20:57.121Z</time></trkpt><trkpt lat="44.312165" lon="10.7651501"><ele>767.5</ele><time>2026-05-03T11:20:58.12Z</time></trkpt><trkpt lat="44.3121579" lon="10.7653474"><ele>766.0</ele><time>2026-05-03T11:20:59.122Z</time></trkpt><trkpt lat="44.3121485" lon="10.7655375"><ele>764.5</ele><time>2026-05-03T11:21:00.12Z</time></trkpt><trkpt lat="44.3121312" lon="10.7657171"><ele>763.0</ele><time>2026-05-03T11:21:01.121Z</time></trkpt><trkpt lat="44.3120947" lon="10.7658742"><ele>763.0</ele><time>2026-05-03T11:21:02.12Z</time></trkpt><trkpt lat="44.3120433" lon="10.765994"><ele>763.0</ele><time>2026-05-03T11:21:03.122Z</time></trkpt><trkpt lat="44.3119756" lon="10.7660651"><ele>763.0</ele><time>2026-05-03T11:21:04.121Z</time></trkpt><trkpt lat="44.3119004" lon="10.7661131"><ele>763.0</ele><time>2026-05-03T11:21:05.122Z</time></trkpt><trkpt lat="44.3118262" lon="10.7661451"><ele>763.0</ele><time>2026-05-03T11:21:06.12Z</time></trkpt><trkpt lat="44.3117514" lon="10.7661889"><ele>763.0</ele><time>2026-05-03T11:21:07.122Z</time></trkpt><trkpt lat="44.3116758" lon="10.766259"><ele>762.5999999999999</ele><time>2026-05-03T11:21:08.121Z</time></trkpt><trkpt lat="44.3116154" lon="10.7663523"><ele>762.1999999999999</ele><time>2026-05-03T11:21:09.121Z</time></trkpt><trkpt lat="44.3115657" lon="10.7664674"><ele>761.8</ele><time>2026-05-03T11:21:10.121Z</time></trkpt><trkpt lat="44.3115312" lon="10.7666107"><ele>761.4</ele><time>2026-05-03T11:21:11.122Z</time></trkpt><trkpt lat="44.3115102" lon="10.7667786"><ele>761.0</ele><time>2026-05-03T11:21:12.121Z</time></trkpt><trkpt lat="44.3114997" lon="10.7669618"><ele>760.5</ele><time>2026-05-03T11:21:13.121Z</time></trkpt><trkpt lat="44.311498" lon="10.7671654"><ele>760.0</ele><time>2026-05-03T11:21:14.122Z</time></trkpt><trkpt lat="44.3115124" lon="10.7673556"><ele>759.5</ele><time>2026-05-03T11:21:15.122Z</time></trkpt><trkpt lat="44.3115435" lon="10.7675401"><ele>759.0</ele><time>2026-05-03T11:21:16.122Z</time></trkpt><trkpt lat="44.3115916" lon="10.7677199"><ele>759.0</ele><time>2026-05-03T11:21:17.122Z</time></trkpt><trkpt lat="44.3116471" lon="10.7678888"><ele>759.0</ele><time>2026-05-03T11:21:18.121Z</time></trkpt><trkpt lat="44.3117057" lon="10.76806"><ele>759.0</ele><time>2026-05-03T11:21:19.12Z</time></trkpt><trkpt lat="44.3117671" lon="10.7682352"><ele>759.0</ele><time>2026-05-03T11:21:20.12Z</time></trkpt><trkpt lat="44.3118241" lon="10.7684152"><ele>759.0</ele><time>2026-05-03T11:21:21.121Z</time></trkpt><trkpt lat="44.3118735" lon="10.7685991"><ele>759.0</ele><time>2026-05-03T11:21:22.122Z</time></trkpt><trkpt lat="44.3119123" lon="10.7687873"><ele>759.0</ele><time>2026-05-03T11:21:23.12Z</time></trkpt><trkpt lat="44.311948" lon="10.7689704"><ele>759.0</ele><time>2026-05-03T11:21:24.122Z</time></trkpt><trkpt lat="44.3119821" lon="10.7691568"><ele>759.0</ele><time>2026-05-03T11:21:25.121Z</time></trkpt><trkpt lat="44.3120169" lon="10.7693543"><ele>759.0</ele><time>2026-05-03T11:21:26.121Z</time></trkpt><trkpt lat="44.3120543" lon="10.7695573"><ele>759.0</ele><time>2026-05-03T11:21:27.12Z</time></trkpt><trkpt lat="44.3120884" lon="10.7697659"><ele>759.0</ele><time>2026-05-03T11:21:28.121Z</time></trkpt><trkpt lat="44.3121168" lon="10.7699794"><ele>754.6666666666666</ele><time>2026-05-03T11:21:29.119Z</time></trkpt><trkpt lat="44.3121349" lon="10.7702013"><ele>750.3333333333333</ele><time>2026-05-03T11:21:30.121Z</time></trkpt><trkpt lat="44.3121462" lon="10.7704245"><ele>746.0</ele><time>2026-05-03T11:21:31.121Z</time></trkpt><trkpt lat="44.3121512" lon="10.770639"><ele>746.0</ele><time>2026-05-03T11:21:32.122Z</time></trkpt><trkpt lat="44.3121389" lon="10.7708446"><ele>746.0</ele><time>2026-05-03T11:21:33.119Z</time></trkpt><trkpt lat="44.3121054" lon="10.771033"><ele>746.0</ele><time>2026-05-03T11:21:34.12Z</time></trkpt><trkpt lat="44.3120446" lon="10.7712098"><ele>746.0</ele><time>2026-05-03T11:21:35.122Z</time></trkpt><trkpt lat="44.3119624" lon="10.7713791"><ele>744.3333333333333</ele><time>2026-05-03T11:21:36.122Z</time></trkpt><trkpt lat="44.3118676" lon="10.7715434"><ele>742.6666666666666</ele><time>2026-05-03T11:21:37.121Z</time></trkpt><trkpt lat="44.3117753" lon="10.771718"><ele>741.0</ele><time>2026-05-03T11:21:38.119Z</time></trkpt><trkpt lat="44.3116955" lon="10.7719143"><ele>738.3333333333334</ele><time>2026-05-03T11:21:39.121Z</time></trkpt><trkpt lat="44.3116343" lon="10.7721319"><ele>735.6666666666667</ele><time>2026-05-03T11:21:40.12Z</time></trkpt><trkpt lat="44.3115859" lon="10.7723634"><ele>733.0</ele><time>2026-05-03T11:21:41.121Z</time></trkpt><trkpt lat="44.3115457" lon="10.7726075"><ele>732.3333333333334</ele><time>2026-05-03T11:21:42.121Z</time></trkpt><trkpt lat="44.3115178" lon="10.7728635"><ele>731.6666666666666</ele><time>2026-05-03T11:21:43.122Z</time></trkpt><trkpt lat="44.3115087" lon="10.7731301"><ele>731.0</ele><time>2026-05-03T11:21:44.121Z</time></trkpt><trkpt lat="44.3115087" lon="10.773403"><ele>730.0</ele><time>2026-05-03T11:21:45.121Z</time></trkpt><trkpt lat="44.3115084" lon="10.7736731"><ele>729.0</ele><time>2026-05-03T11:21:46.122Z</time></trkpt><trkpt lat="44.3115104" lon="10.7739265"><ele>728.0</ele><time>2026-05-03T11:21:47.121Z</time></trkpt><trkpt lat="44.3115311" lon="10.7741745"><ele>729.3333333333333</ele><time>2026-05-03T11:21:48.122Z</time></trkpt><trkpt lat="44.3115734" lon="10.7744157"><ele>730.6666666666666</ele><time>2026-05-03T11:21:49.122Z</time></trkpt><trkpt lat="44.3116284" lon="10.7746557"><ele>732.0</ele><time>2026-05-03T11:21:50.121Z</time></trkpt><trkpt lat="44.3116811" lon="10.7749071"><ele>732.0</ele><time>2026-05-03T11:21:51.121Z</time></trkpt><trkpt lat="44.3117235" lon="10.7751751"><ele>732.0</ele><time>2026-05-03T11:21:52.119Z</time></trkpt><trkpt lat="44.3117513" lon="10.775426"><ele>732.0</ele><time>2026-05-03T11:21:53.121Z</time></trkpt><trkpt lat="44.3117661" lon="10.7756788"><ele>734.3333333333334</ele><time>2026-05-03T11:21:54.121Z</time></trkpt><trkpt lat="44.3117668" lon="10.7759251"><ele>736.6666666666667</ele><time>2026-05-03T11:21:55.12Z</time></trkpt><trkpt lat="44.3117465" lon="10.7761561"><ele>739.0</ele><time>2026-05-03T11:21:56.12Z</time></trkpt><trkpt lat="44.3117058" lon="10.776361"><ele>740.0</ele><time>2026-05-03T11:21:57.12Z</time></trkpt><trkpt lat="44.3116405" lon="10.7765293"><ele>741.0</ele><time>2026-05-03T11:21:58.122Z</time></trkpt><trkpt lat="44.3115534" lon="10.7766614"><ele>742.0</ele><time>2026-05-03T11:21:59.121Z</time></trkpt><trkpt lat="44.3114458" lon="10.7767612"><ele>743.0</ele><time>2026-05-03T11:22:00.122Z</time></trkpt><trkpt lat="44.3113281" lon="10.7768474"><ele>743.5</ele><time>2026-05-03T11:22:01.121Z</time></trkpt><trkpt lat="44.3112221" lon="10.7769516"><ele>744.0</ele><time>2026-05-03T11:22:02.121Z</time></trkpt><trkpt lat="44.3111376" lon="10.7770876"><ele>744.5</ele><time>2026-05-03T11:22:03.121Z</time></trkpt><trkpt lat="44.3110806" lon="10.7772473"><ele>745.0</ele><time>2026-05-03T11:22:04.121Z</time></trkpt><trkpt lat="44.3110569" lon="10.7774379"><ele>745.0</ele><time>2026-05-03T11:22:05.122Z</time></trkpt><trkpt lat="44.3110571" lon="10.7776543"><ele>745.0</ele><time>2026-05-03T11:22:06.12Z</time></trkpt><trkpt lat="44.3110672" lon="10.7778806"><ele>745.0</ele><time>2026-05-03T11:22:07.12Z</time></trkpt><trkpt lat="44.3110804" lon="10.7781071"><ele>745.0</ele><time>2026-05-03T11:22:08.12Z</time></trkpt><trkpt lat="44.31109" lon="10.7783349"><ele>745.0</ele><time>2026-05-03T11:22:09.121Z</time></trkpt><trkpt lat="44.3110976" lon="10.7785554"><ele>745.0</ele><time>2026-05-03T11:22:10.121Z</time></trkpt><trkpt lat="44.3110889" lon="10.7787617"><ele>745.5</ele><time>2026-05-03T11:22:11.121Z</time></trkpt><trkpt lat="44.3110543" lon="10.7789588"><ele>746.0</ele><time>2026-05-03T11:22:12.122Z</time></trkpt><trkpt lat="44.3109943" lon="10.7791468"><ele>746.5</ele><time>2026-05-03T11:22:13.121Z</time></trkpt><trkpt lat="44.3109371" lon="10.7793318"><ele>747.0</ele><time>2026-05-03T11:22:14.121Z</time></trkpt><trkpt lat="44.3109138" lon="10.7795112"><ele>747.0</ele><time>2026-05-03T11:22:15.121Z</time></trkpt><trkpt lat="44.3109386" lon="10.7796888"><ele>747.0</ele><time>2026-05-03T11:22:16.12Z</time></trkpt><trkpt lat="44.3110096" lon="10.779839"><ele>747.0</ele><time>2026-05-03T11:22:17.122Z</time></trkpt><trkpt lat="44.3111133" lon="10.7799463"><ele>747.0</ele><time>2026-05-03T11:22:18.121Z</time></trkpt><trkpt lat="44.3112383" lon="10.780022"><ele>747.0</ele><time>2026-05-03T11:22:19.119Z</time></trkpt><trkpt lat="44.3113652" lon="10.7801257"><ele>747.0</ele><time>2026-05-03T11:22:20.12Z</time></trkpt><trkpt lat="44.3114794" lon="10.780283"><ele>747.0</ele><time>2026-05-03T11:22:21.119Z</time></trkpt><trkpt lat="44.3115789" lon="10.780474"><ele>746.6666666666666</ele><time>2026-05-03T11:22:22.122Z</time></trkpt><trkpt lat="44.3116555" lon="10.7806859"><ele>746.3333333333333</ele><time>2026-05-03T11:22:23.12Z</time></trkpt><trkpt lat="44.3117125" lon="10.7809194"><ele>746.0</ele><time>2026-05-03T11:22:24.121Z</time></trkpt><trkpt lat="44.3117547" lon="10.7811667"><ele>744.3333333333333</ele><time>2026-05-03T11:22:25.121Z</time></trkpt><trkpt lat="44.3117885" lon="10.7814276"><ele>742.6666666666666</ele><time>2026-05-03T11:22:26.122Z</time></trkpt><trkpt lat="44.311809" lon="10.7816973"><ele>741.0</ele><time>2026-05-03T11:22:27.119Z</time></trkpt><trkpt lat="44.3118096" lon="10.7819744"><ele>740.3333333333334</ele><time>2026-05-03T11:22:28.122Z</time></trkpt><trkpt lat="44.311798" lon="10.7822573"><ele>739.6666666666667</ele><time>2026-05-03T11:22:29.12Z</time></trkpt><trkpt lat="44.3117794" lon="10.7825436"><ele>739.0</ele><time>2026-05-03T11:22:30.122Z</time></trkpt><trkpt lat="44.3117631" lon="10.7828288"><ele>739.0</ele><time>2026-05-03T11:22:31.122Z</time></trkpt><trkpt lat="44.3117486" lon="10.783099"><ele>739.0</ele><time>2026-05-03T11:22:32.12Z</time></trkpt><trkpt lat="44.311741" lon="10.7833698"><ele>739.0</ele><time>2026-05-03T11:22:33.121Z</time></trkpt><trkpt lat="44.3117513" lon="10.7836408"><ele>739.6666666666667</ele><time>2026-05-03T11:22:34.12Z</time></trkpt><trkpt lat="44.3117799" lon="10.7839147"><ele>740.3333333333334</ele><time>2026-05-03T11:22:35.122Z</time></trkpt><trkpt lat="44.3118266" lon="10.7841895"><ele>741.0</ele><time>2026-05-03T11:22:36.121Z</time></trkpt><trkpt lat="44.3118863" lon="10.7844706"><ele>740.0</ele><time>2026-05-03T11:22:37.121Z</time></trkpt><trkpt lat="44.3119387" lon="10.7847333"><ele>739.0</ele><time>2026-05-03T11:22:38.12Z</time></trkpt><trkpt lat="44.3119751" lon="10.78499"><ele>738.0</ele><time>2026-05-03T11:22:39.122Z</time></trkpt><trkpt lat="44.3119905" lon="10.7852371"><ele>738.0</ele><time>2026-05-03T11:22:40.12Z</time></trkpt><trkpt lat="44.3119653" lon="10.7854699"><ele>738.0</ele><time>2026-05-03T11:22:41.119Z</time></trkpt><trkpt lat="44.3119021" lon="10.7856844"><ele>738.0</ele><time>2026-05-03T11:22:42.121Z</time></trkpt><trkpt lat="44.3118139" lon="10.7858849"><ele>739.6666666666666</ele><time>2026-05-03T11:22:43.122Z</time></trkpt><trkpt lat="44.3117384" lon="10.7860839"><ele>741.3333333333333</ele><time>2026-05-03T11:22:44.121Z</time></trkpt><trkpt lat="44.3116891" lon="10.7863044"><ele>743.0</ele><time>2026-05-03T11:22:45.121Z</time></trkpt><trkpt lat="44.3116493" lon="10.7865439"><ele>743.0</ele><time>2026-05-03T11:22:46.121Z</time></trkpt><trkpt lat="44.3116102" lon="10.7868006"><ele>743.0</ele><time>2026-05-03T11:22:47.118Z</time></trkpt><trkpt lat="44.3115697" lon="10.7870613"><ele>743.0</ele><time>2026-05-03T11:22:48.122Z</time></trkpt><trkpt lat="44.3115201" lon="10.7873197"><ele>743.3333333333333</ele><time>2026-05-03T11:22:49.122Z</time></trkpt><trkpt lat="44.3114654" lon="10.7875558"><ele>743.6666666666666</ele><time>2026-05-03T11:22:50.122Z</time></trkpt><trkpt lat="44.3113899" lon="10.7877558"><ele>744.0</ele><time>2026-05-03T11:22:51.122Z</time></trkpt><trkpt lat="44.3112975" lon="10.787913"><ele>742.0</ele><time>2026-05-03T11:22:52.121Z</time></trkpt><trkpt lat="44.3112149" lon="10.788042"><ele>740.0</ele><time>2026-05-03T11:22:53.122Z</time></trkpt><trkpt lat="44.3111692" lon="10.7881709"><ele>738.0</ele><time>2026-05-03T11:22:54.122Z</time></trkpt><trkpt lat="44.3111702" lon="10.7883158"><ele>736.0</ele><time>2026-05-03T11:22:55.121Z</time></trkpt><trkpt lat="44.3112247" lon="10.7884477"><ele>734.0</ele><time>2026-05-03T11:22:56.121Z</time></trkpt><trkpt lat="44.3113198" lon="10.7885656"><ele>735.5</ele><time>2026-05-03T11:22:57.122Z</time></trkpt><trkpt lat="44.3114216" lon="10.7886918"><ele>737.0</ele><time>2026-05-03T11:22:58.122Z</time></trkpt><trkpt lat="44.3114893" lon="10.7888546"><ele>738.5</ele><time>2026-05-03T11:22:59.12Z</time></trkpt><trkpt lat="44.3115231" lon="10.7890397"><ele>740.0</ele><time>2026-05-03T11:23:00.12Z</time></trkpt><trkpt lat="44.311519" lon="10.7892356"><ele>740.0</ele><time>2026-05-03T11:23:01.12Z</time></trkpt><trkpt lat="44.3114855" lon="10.7894213"><ele>740.0</ele><time>2026-05-03T11:23:02.12Z</time></trkpt><trkpt lat="44.3114308" lon="10.789615"><ele>740.0</ele><time>2026-05-03T11:23:03.122Z</time></trkpt><trkpt lat="44.311375" lon="10.7897911"><ele>740.0</ele><time>2026-05-03T11:23:04.12Z</time></trkpt><trkpt lat="44.3113414" lon="10.7899718"><ele>737.0</ele><time>2026-05-03T11:23:05.121Z</time></trkpt><trkpt lat="44.3113456" lon="10.7901763"><ele>734.0</ele><time>2026-05-03T11:23:06.12Z</time></trkpt><trkpt lat="44.3113893" lon="10.7903894"><ele>731.0</ele><time>2026-05-03T11:23:07.119Z</time></trkpt><trkpt lat="44.311453" lon="10.7906224"><ele>731.0</ele><time>2026-05-03T11:23:08.122Z</time></trkpt><trkpt lat="44.3115209" lon="10.7908738"><ele>731.0</ele><time>2026-05-03T11:23:09.121Z</time></trkpt><trkpt lat="44.3115811" lon="10.7911218"><ele>731.0</ele><time>2026-05-03T11:23:10.121Z</time></trkpt><trkpt lat="44.311637" lon="10.7913657"><ele>729.3333333333333</ele><time>2026-05-03T11:23:11.121Z</time></trkpt><trkpt lat="44.3116904" lon="10.7916028"><ele>727.6666666666666</ele><time>2026-05-03T11:23:12.122Z</time></trkpt><trkpt lat="44.3117459" lon="10.7918375"><ele>726.0</ele><time>2026-05-03T11:23:13.12Z</time></trkpt><trkpt lat="44.3118008" lon="10.7920859"><ele>724.0</ele><time>2026-05-03T11:23:14.121Z</time></trkpt><trkpt lat="44.3118553" lon="10.7923376"><ele>722.0</ele><time>2026-05-03T11:23:15.121Z</time></trkpt><trkpt lat="44.3119141" lon="10.7925984"><ele>720.0</ele><time>2026-05-03T11:23:16.121Z</time></trkpt><trkpt lat="44.3119749" lon="10.7928631"><ele>717.6666666666666</ele><time>2026-05-03T11:23:17.122Z</time></trkpt><trkpt lat="44.3120315" lon="10.793117"><ele>715.3333333333333</ele><time>2026-05-03T11:23:18.121Z</time></trkpt><trkpt lat="44.312089" lon="10.7933655"><ele>713.0</ele><time>2026-05-03T11:23:19.121Z</time></trkpt><trkpt lat="44.3121404" lon="10.7935923"><ele>712.75</ele><time>2026-05-03T11:23:20.12Z</time></trkpt><trkpt lat="44.3121885" lon="10.7938035"><ele>712.5</ele><time>2026-05-03T11:23:21.121Z</time></trkpt><trkpt lat="44.3122343" lon="10.7939983"><ele>712.25</ele><time>2026-05-03T11:23:22.119Z</time></trkpt><trkpt lat="44.3122814" lon="10.7941859"><ele>712.0</ele><time>2026-05-03T11:23:23.12Z</time></trkpt><trkpt lat="44.3123332" lon="10.7943685"><ele>713.75</ele><time>2026-05-03T11:23:24.12Z</time></trkpt><trkpt lat="44.3123946" lon="10.7945401"><ele>715.5</ele><time>2026-05-03T11:23:25.121Z</time></trkpt><trkpt lat="44.3124661" lon="10.7947021"><ele>717.25</ele><time>2026-05-03T11:23:26.122Z</time></trkpt><trkpt lat="44.3125444" lon="10.7948576"><ele>719.0</ele><time>2026-05-03T11:23:27.119Z</time></trkpt><trkpt lat="44.3126263" lon="10.7950099"><ele>719.0</ele><time>2026-05-03T11:23:28.121Z</time></trkpt><trkpt lat="44.3127085" lon="10.7951635"><ele>719.0</ele><time>2026-05-03T11:23:29.118Z</time></trkpt><trkpt lat="44.3127923" lon="10.7953195"><ele>719.0</ele><time>2026-05-03T11:23:30.121Z</time></trkpt><trkpt lat="44.3128779" lon="10.7954798"><ele>719.0</ele><time>2026-05-03T11:23:31.122Z</time></trkpt><trkpt lat="44.3129666" lon="10.7956445"><ele>719.3333333333333</ele><time>2026-05-03T11:23:32.122Z</time></trkpt><trkpt lat="44.3130567" lon="10.7958141"><ele>719.6666666666666</ele><time>2026-05-03T11:23:33.122Z</time></trkpt><trkpt lat="44.3131451" lon="10.7959839"><ele>720.0</ele><time>2026-05-03T11:23:34.12Z</time></trkpt><trkpt lat="44.3132356" lon="10.7961536"><ele>719.0</ele><time>2026-05-03T11:23:35.122Z</time></trkpt><trkpt lat="44.3133325" lon="10.7963235"><ele>718.0</ele><time>2026-05-03T11:23:36.121Z</time></trkpt><trkpt lat="44.3134364" lon="10.7964888"><ele>717.0</ele><time>2026-05-03T11:23:37.122Z</time></trkpt><trkpt lat="44.3135413" lon="10.7966539"><ele>717.0</ele><time>2026-05-03T11:23:38.12Z</time></trkpt><trkpt lat="44.3136452" lon="10.7968196"><ele>717.0</ele><time>2026-05-03T11:23:39.119Z</time></trkpt><trkpt lat="44.3137524" lon="10.7969847"><ele>717.0</ele><time>2026-05-03T11:23:40.12Z</time></trkpt><trkpt lat="44.3138605" lon="10.7971489"><ele>717.0</ele><time>2026-05-03T11:23:41.12Z</time></trkpt><trkpt lat="44.3139686" lon="10.7973079"><ele>717.0</ele><time>2026-05-03T11:23:42.122Z</time></trkpt><trkpt lat="44.31408" lon="10.7974652"><ele>717.0</ele><time>2026-05-03T11:23:43.12Z</time></trkpt><trkpt lat="44.3141984" lon="10.7976191"><ele>714.0</ele><time>2026-05-03T11:23:44.121Z</time></trkpt><trkpt lat="44.3143219" lon="10.7977711"><ele>711.0</ele><time>2026-05-03T11:23:45.122Z</time></trkpt><trkpt lat="44.3144478" lon="10.7979223"><ele>708.0</ele><time>2026-05-03T11:23:46.12Z</time></trkpt><trkpt lat="44.3145744" lon="10.7980725"><ele>708.0</ele><time>2026-05-03T11:23:47.12Z</time></trkpt><trkpt lat="44.3146969" lon="10.7982192"><ele>708.0</ele><time>2026-05-03T11:23:48.12Z</time></trkpt><trkpt lat="44.3148123" lon="10.7983609"><ele>708.0</ele><time>2026-05-03T11:23:49.121Z</time></trkpt><trkpt lat="44.3149182" lon="10.7985068"><ele>708.5</ele><time>2026-05-03T11:23:50.122Z</time></trkpt><trkpt lat="44.3150003" lon="10.7986748"><ele>709.0</ele><time>2026-05-03T11:23:51.121Z</time></trkpt><trkpt lat="44.315059" lon="10.7988508"><ele>709.5</ele><time>2026-05-03T11:23:52.121Z</time></trkpt><trkpt lat="44.3151064" lon="10.7990273"><ele>710.0</ele><time>2026-05-03T11:23:53.119Z</time></trkpt><trkpt lat="44.3151551" lon="10.7991917"><ele>709.0</ele><time>2026-05-03T11:23:54.121Z</time></trkpt><trkpt lat="44.3152006" lon="10.7993459"><ele>708.0</ele><time>2026-05-03T11:23:55.118Z</time></trkpt><trkpt lat="44.315232" lon="10.7994928"><ele>707.0</ele><time>2026-05-03T11:23:56.121Z</time></trkpt><trkpt lat="44.3152349" lon="10.799639"><ele>706.0</ele><time>2026-05-03T11:23:57.121Z</time></trkpt><trkpt lat="44.3152064" lon="10.79979"><ele>705.0</ele><time>2026-05-03T11:23:58.121Z</time></trkpt><trkpt lat="44.3151573" lon="10.7999516"><ele>705.0</ele><time>2026-05-03T11:23:59.12Z</time></trkpt><trkpt lat="44.3151028" lon="10.8001256"><ele>705.0</ele><time>2026-05-03T11:24:00.121Z</time></trkpt><trkpt lat="44.3150496" lon="10.800315"><ele>705.0</ele><time>2026-05-03T11:24:01.121Z</time></trkpt><trkpt lat="44.3149998" lon="10.800513"><ele>705.0</ele><time>2026-05-03T11:24:02.121Z</time></trkpt><trkpt lat="44.3149483" lon="10.8007127"><ele>705.75</ele><time>2026-05-03T11:24:03.118Z</time></trkpt><trkpt lat="44.3148951" lon="10.8009038"><ele>706.5</ele><time>2026-05-03T11:24:04.121Z</time></trkpt><trkpt lat="44.3148404" lon="10.8010844"><ele>707.25</ele><time>2026-05-03T11:24:05.119Z</time></trkpt><trkpt lat="44.3147896" lon="10.8012642"><ele>708.0</ele><time>2026-05-03T11:24:06.119Z</time></trkpt><trkpt lat="44.3147483" lon="10.8014434"><ele>709.75</ele><time>2026-05-03T11:24:07.12Z</time></trkpt><trkpt lat="44.3147292" lon="10.8016224"><ele>711.5</ele><time>2026-05-03T11:24:08.118Z</time></trkpt><trkpt lat="44.3147413" lon="10.8018018"><ele>713.25</ele><time>2026-05-03T11:24:09.119Z</time></trkpt><trkpt lat="44.3147741" lon="10.8019858"><ele>715.0</ele><time>2026-05-03T11:24:10.12Z</time></trkpt><trkpt lat="44.3148214" lon="10.8021831"><ele>715.0</ele><time>2026-05-03T11:24:11.122Z</time></trkpt><trkpt lat="44.3148759" lon="10.8023907"><ele>715.0</ele><time>2026-05-03T11:24:12.122Z</time></trkpt><trkpt lat="44.3149314" lon="10.8025976"><ele>715.0</ele><time>2026-05-03T11:24:13.122Z</time></trkpt><trkpt lat="44.3149855" lon="10.8028088"><ele>713.6666666666667</ele><time>2026-05-03T11:24:14.12Z</time></trkpt><trkpt lat="44.3150314" lon="10.8030257"><ele>712.3333333333334</ele><time>2026-05-03T11:24:15.122Z</time></trkpt><trkpt lat="44.3150591" lon="10.8032505"><ele>711.0</ele><time>2026-05-03T11:24:16.121Z</time></trkpt><trkpt lat="44.3150691" lon="10.8034793"><ele>711.6666666666666</ele><time>2026-05-03T11:24:17.12Z</time></trkpt><trkpt lat="44.3150714" lon="10.80371"><ele>712.3333333333333</ele><time>2026-05-03T11:24:18.121Z</time></trkpt><trkpt lat="44.3150818" lon="10.8039397"><ele>713.0</ele><time>2026-05-03T11:24:19.119Z</time></trkpt><trkpt lat="44.3151101" lon="10.8041467"><ele>711.75</ele><time>2026-05-03T11:24:20.12Z</time></trkpt><trkpt lat="44.315165" lon="10.8043336"><ele>710.5</ele><time>2026-05-03T11:24:21.121Z</time></trkpt><trkpt lat="44.3152387" lon="10.8044873"><ele>709.25</ele><time>2026-05-03T11:24:22.12Z</time></trkpt><trkpt lat="44.3153364" lon="10.8045999"><ele>708.0</ele><time>2026-05-03T11:24:23.119Z</time></trkpt><trkpt lat="44.3154526" lon="10.8046807"><ele>711.25</ele><time>2026-05-03T11:24:24.121Z</time></trkpt><trkpt lat="44.3155822" lon="10.8047514"><ele>714.5</ele><time>2026-05-03T11:24:25.119Z</time></trkpt><trkpt lat="44.3157213" lon="10.8048241"><ele>717.75</ele><time>2026-05-03T11:24:26.12Z</time></trkpt><trkpt lat="44.3158646" lon="10.8049036"><ele>721.0</ele><time>2026-05-03T11:24:27.12Z</time></trkpt><trkpt lat="44.3160091" lon="10.8049943"><ele>721.0</ele><time>2026-05-03T11:24:28.122Z</time></trkpt><trkpt lat="44.3161591" lon="10.8050856"><ele>721.0</ele><time>2026-05-03T11:24:29.121Z</time></trkpt><trkpt lat="44.3163031" lon="10.8051751"><ele>721.0</ele><time>2026-05-03T11:24:30.121Z</time></trkpt><trkpt lat="44.316435" lon="10.8052647"><ele>721.0</ele><time>2026-05-03T11:24:31.121Z</time></trkpt><trkpt lat="44.3165561" lon="10.8053765"><ele>721.0</ele><time>2026-05-03T11:24:32.121Z</time></trkpt><trkpt lat="44.3166597" lon="10.8055222"><ele>721.0</ele><time>2026-05-03T11:24:33.121Z</time></trkpt><trkpt lat="44.3167453" lon="10.8056912"><ele>721.0</ele><time>2026-05-03T11:24:34.121Z</time></trkpt><trkpt lat="44.3168195" lon="10.8058868"><ele>718.0</ele><time>2026-05-03T11:24:35.121Z</time></trkpt><trkpt lat="44.3168894" lon="10.8061055"><ele>715.0</ele><time>2026-05-03T11:24:36.121Z</time></trkpt><trkpt lat="44.3169671" lon="10.8063512"><ele>712.0</ele><time>2026-05-03T11:24:37.118Z</time></trkpt><trkpt lat="44.3170438" lon="10.8065905"><ele>712.0</ele><time>2026-05-03T11:24:38.121Z</time></trkpt><trkpt lat="44.3171165" lon="10.8068204"><ele>712.0</ele><time>2026-05-03T11:24:39.119Z</time></trkpt><trkpt lat="44.3171848" lon="10.8070526"><ele>712.0</ele><time>2026-05-03T11:24:40.122Z</time></trkpt><trkpt lat="44.3172469" lon="10.8072847"><ele>713.0</ele><time>2026-05-03T11:24:41.12Z</time></trkpt><trkpt lat="44.317292" lon="10.8075255"><ele>714.0</ele><time>2026-05-03T11:24:42.122Z</time></trkpt><trkpt lat="44.3173191" lon="10.8077615"><ele>715.0</ele><time>2026-05-03T11:24:43.121Z</time></trkpt><trkpt lat="44.3173231" lon="10.8079902"><ele>714.0</ele><time>2026-05-03T11:24:44.121Z</time></trkpt><trkpt lat="44.3172925" lon="10.8082015"><ele>713.0</ele><time>2026-05-03T11:24:45.12Z</time></trkpt><trkpt lat="44.3172332" lon="10.8083935"><ele>712.0</ele><time>2026-05-03T11:24:46.12Z</time></trkpt><trkpt lat="44.3171589" lon="10.8085695"><ele>711.6666666666667</ele><time>2026-05-03T11:24:47.119Z</time></trkpt><trkpt lat="44.3170838" lon="10.8087466"><ele>711.3333333333334</ele><time>2026-05-03T11:24:48.12Z</time></trkpt><trkpt lat="44.3170166" lon="10.8089401"><ele>711.0</ele><time>2026-05-03T11:24:49.121Z</time></trkpt><trkpt lat="44.3169712" lon="10.8091498"><ele>710.6666666666666</ele><time>2026-05-03T11:24:50.12Z</time></trkpt><trkpt lat="44.3169544" lon="10.8093662"><ele>710.3333333333333</ele><time>2026-05-03T11:24:51.121Z</time></trkpt><trkpt lat="44.3169701" lon="10.8095775"><ele>710.0</ele><time>2026-05-03T11:24:52.12Z</time></trkpt><trkpt lat="44.3170044" lon="10.8097946"><ele>710.0</ele><time>2026-05-03T11:24:53.121Z</time></trkpt><trkpt lat="44.3170411" lon="10.8100117"><ele>710.0</ele><time>2026-05-03T11:24:54.122Z</time></trkpt><trkpt lat="44.3170711" lon="10.8102313"><ele>710.0</ele><time>2026-05-03T11:24:55.121Z</time></trkpt><trkpt lat="44.3170888" lon="10.8104497"><ele>710.75</ele><time>2026-05-03T11:24:56.122Z</time></trkpt><trkpt lat="44.3170817" lon="10.8106618"><ele>711.5</ele><time>2026-05-03T11:24:57.12Z</time></trkpt><trkpt lat="44.3170522" lon="10.8108528"><ele>712.25</ele><time>2026-05-03T11:24:58.12Z</time></trkpt><trkpt lat="44.3169935" lon="10.811014"><ele>713.0</ele><time>2026-05-03T11:24:59.12Z</time></trkpt><trkpt lat="44.3169096" lon="10.8111495"><ele>719.3333333333333</ele><time>2026-05-03T11:25:00.121Z</time></trkpt><trkpt lat="44.3167945" lon="10.8112529"><ele>725.6666666666666</ele><time>2026-05-03T11:25:01.121Z</time></trkpt><trkpt lat="44.3166574" lon="10.8113381"><ele>732.0</ele><time>2026-05-03T11:25:02.119Z</time></trkpt><trkpt lat="44.3165026" lon="10.8114141"><ele>731.0</ele><time>2026-05-03T11:25:03.121Z</time></trkpt><trkpt lat="44.3163287" lon="10.8114815"><ele>730.0</ele><time>2026-05-03T11:25:04.121Z</time></trkpt><trkpt lat="44.3161496" lon="10.8115419"><ele>729.0</ele><time>2026-05-03T11:25:05.121Z</time></trkpt><trkpt lat="44.3159671" lon="10.8115938"><ele>729.0</ele><time>2026-05-03T11:25:06.122Z</time></trkpt><trkpt lat="44.3157875" lon="10.8116321"><ele>729.0</ele><time>2026-05-03T11:25:07.121Z</time></trkpt><trkpt lat="44.3155895" lon="10.8116629"><ele>729.0</ele><time>2026-05-03T11:25:08.12Z</time></trkpt><trkpt lat="44.3153724" lon="10.8116926"><ele>728.5</ele><time>2026-05-03T11:25:09.122Z</time></trkpt><trkpt lat="44.3151323" lon="10.8117255"><ele>728.0</ele><time>2026-05-03T11:25:10.12Z</time></trkpt><trkpt lat="44.3148872" lon="10.8117586"><ele>729.0</ele><time>2026-05-03T11:25:11.121Z</time></trkpt><trkpt lat="44.3146671" lon="10.8117799"><ele>730.0</ele><time>2026-05-03T11:25:12.121Z</time></trkpt><trkpt lat="44.3144605" lon="10.8117897"><ele>731.0</ele><time>2026-05-03T11:25:13.122Z</time></trkpt><trkpt lat="44.3142699" lon="10.8117972"><ele>731.0</ele><time>2026-05-03T11:25:14.122Z</time></trkpt><trkpt lat="44.314091" lon="10.811809"><ele>731.0</ele><time>2026-05-03T11:25:15.122Z</time></trkpt><trkpt lat="44.3139161" lon="10.8118293"><ele>731.0</ele><time>2026-05-03T11:25:16.122Z</time></trkpt><trkpt lat="44.3137439" lon="10.8118674"><ele>739.0</ele><time>2026-05-03T11:25:17.121Z</time></trkpt><trkpt lat="44.3135755" lon="10.8119197"><ele>747.0</ele><time>2026-05-03T11:25:18.122Z</time></trkpt><trkpt lat="44.3134073" lon="10.8119722"><ele>755.0</ele><time>2026-05-03T11:25:19.121Z</time></trkpt><trkpt lat="44.3132403" lon="10.8119874"><ele>755.0</ele><time>2026-05-03T11:25:20.122Z</time></trkpt><trkpt lat="44.313077" lon="10.8119733"><ele>755.0</ele><time>2026-05-03T11:25:21.121Z</time></trkpt><trkpt lat="44.3129176" lon="10.8119561"><ele>755.0</ele><time>2026-05-03T11:25:22.12Z</time></trkpt><trkpt lat="44.3127607" lon="10.8119715"><ele>757.0</ele><time>2026-05-03T11:25:23.12Z</time></trkpt><trkpt lat="44.3126066" lon="10.8120206"><ele>759.0</ele><time>2026-05-03T11:25:24.121Z</time></trkpt><trkpt lat="44.3124535" lon="10.8120908"><ele>761.0</ele><time>2026-05-03T11:25:25.12Z</time></trkpt><trkpt lat="44.3122987" lon="10.8121595"><ele>766.3333333333333</ele><time>2026-05-03T11:25:26.119Z</time></trkpt><trkpt lat="44.3121394" lon="10.8121866"><ele>771.6666666666666</ele><time>2026-05-03T11:25:27.12Z</time></trkpt><trkpt lat="44.3119781" lon="10.8121729"><ele>777.0</ele><time>2026-05-03T11:25:28.121Z</time></trkpt><trkpt lat="44.3118184" lon="10.8121188"><ele>777.0</ele><time>2026-05-03T11:25:29.121Z</time></trkpt><trkpt lat="44.311669" lon="10.8120307"><ele>777.0</ele><time>2026-05-03T11:25:30.12Z</time></trkpt><trkpt lat="44.3115318" lon="10.8119048"><ele>777.0</ele><time>2026-05-03T11:25:31.12Z</time></trkpt><trkpt lat="44.3113959" lon="10.811776"><ele>771.0</ele><time>2026-05-03T11:25:32.122Z</time></trkpt><trkpt lat="44.3112511" lon="10.81167"><ele>765.0</ele><time>2026-05-03T11:25:33.122Z</time></trkpt><trkpt lat="44.3110979" lon="10.8116033"><ele>759.0</ele><time>2026-05-03T11:25:34.121Z</time></trkpt><trkpt lat="44.3109413" lon="10.8115742"><ele>759.0</ele><time>2026-05-03T11:25:35.122Z</time></trkpt><trkpt lat="44.3107875" lon="10.8115804"><ele>759.0</ele><time>2026-05-03T11:25:36.12Z</time></trkpt><trkpt lat="44.310646" lon="10.8116293"><ele>759.0</ele><time>2026-05-03T11:25:37.12Z</time></trkpt><trkpt lat="44.3105179" lon="10.8117171"><ele>759.0</ele><time>2026-05-03T11:25:38.122Z</time></trkpt><trkpt lat="44.3103954" lon="10.8118297"><ele>763.75</ele><time>2026-05-03T11:25:39.122Z</time></trkpt><trkpt lat="44.3102675" lon="10.8119352"><ele>768.5</ele><time>2026-05-03T11:25:40.122Z</time></trkpt><trkpt lat="44.3101281" lon="10.8120204"><ele>773.25</ele><time>2026-05-03T11:25:41.12Z</time></trkpt><trkpt lat="44.3099909" lon="10.8120798"><ele>778.0</ele><time>2026-05-03T11:25:42.118Z</time></trkpt><trkpt lat="44.3098413" lon="10.8120987"><ele>777.3333333333333</ele><time>2026-05-03T11:25:43.12Z</time></trkpt><trkpt lat="44.3096869" lon="10.8120758"><ele>776.6666666666667</ele><time>2026-05-03T11:25:44.12Z</time></trkpt><trkpt lat="44.3095388" lon="10.8120113"><ele>776.0</ele><time>2026-05-03T11:25:45.12Z</time></trkpt><trkpt lat="44.309394" lon="10.8119114"><ele>770.75</ele><time>2026-05-03T11:25:46.121Z</time></trkpt><trkpt lat="44.3092578" lon="10.8118043"><ele>765.5</ele><time>2026-05-03T11:25:47.121Z</time></trkpt><trkpt lat="44.3091366" lon="10.8117084"><ele>760.25</ele><time>2026-05-03T11:25:48.122Z</time></trkpt><trkpt lat="44.3090235" lon="10.8116226"><ele>755.0</ele><time>2026-05-03T11:25:49.121Z</time></trkpt><trkpt lat="44.3089197" lon="10.811552"><ele>755.6</ele><time>2026-05-03T11:25:50.119Z</time></trkpt><trkpt lat="44.3088131" lon="10.8115096"><ele>756.2</ele><time>2026-05-03T11:25:51.121Z</time></trkpt><trkpt lat="44.3087115" lon="10.8115091"><ele>756.8</ele><time>2026-05-03T11:25:52.122Z</time></trkpt><trkpt lat="44.3086232" lon="10.8115377"><ele>757.4</ele><time>2026-05-03T11:25:53.12Z</time></trkpt><trkpt lat="44.3085499" lon="10.8116028"><ele>758.0</ele><time>2026-05-03T11:25:54.12Z</time></trkpt><trkpt lat="44.3084891" lon="10.8117092"><ele>759.75</ele><time>2026-05-03T11:25:55.121Z</time></trkpt><trkpt lat="44.3084318" lon="10.8118461"><ele>761.5</ele><time>2026-05-03T11:25:56.12Z</time></trkpt><trkpt lat="44.3083667" lon="10.8119977"><ele>763.25</ele><time>2026-05-03T11:25:57.12Z</time></trkpt><trkpt lat="44.3082957" lon="10.8121611"><ele>765.0</ele><time>2026-05-03T11:25:58.122Z</time></trkpt><trkpt lat="44.308222" lon="10.8123325"><ele>765.0</ele><time>2026-05-03T11:25:59.12Z</time></trkpt><trkpt lat="44.3081491" lon="10.8125116"><ele>765.0</ele><time>2026-05-03T11:26:00.121Z</time></trkpt><trkpt lat="44.3080793" lon="10.8126804"><ele>765.0</ele><time>2026-05-03T11:26:01.122Z</time></trkpt><trkpt lat="44.3080131" lon="10.8128385"><ele>765.0</ele><time>2026-05-03T11:26:02.12Z</time></trkpt><trkpt lat="44.3079509" lon="10.8129884"><ele>763.6</ele><time>2026-05-03T11:26:03.12Z</time></trkpt><trkpt lat="44.3078928" lon="10.81313"><ele>762.2</ele><time>2026-05-03T11:26:04.121Z</time></trkpt><trkpt lat="44.3078395" lon="10.8132668"><ele>760.8</ele><time>2026-05-03T11:26:05.122Z</time></trkpt><trkpt lat="44.3077884" lon="10.8134025"><ele>759.4</ele><time>2026-05-03T11:26:06.121Z</time></trkpt><trkpt lat="44.3077438" lon="10.8135337"><ele>758.0</ele><time>2026-05-03T11:26:07.12Z</time></trkpt><trkpt lat="44.3076992" lon="10.8136655"><ele>757.8</ele><time>2026-05-03T11:26:08.122Z</time></trkpt><trkpt lat="44.3076564" lon="10.8138012"><ele>757.5999999999999</ele><time>2026-05-03T11:26:09.12Z</time></trkpt><trkpt lat="44.3076118" lon="10.813943"><ele>757.4000000000001</ele><time>2026-05-03T11:26:10.121Z</time></trkpt><trkpt lat="44.3075671" lon="10.8140879"><ele>757.2</ele><time>2026-05-03T11:26:11.119Z</time></trkpt><trkpt lat="44.3075251" lon="10.8142417"><ele>757.0</ele><time>2026-05-03T11:26:12.121Z</time></trkpt><trkpt lat="44.3074908" lon="10.8143998"><ele>757.0</ele><time>2026-05-03T11:26:13.121Z</time></trkpt><trkpt lat="44.3074698" lon="10.8145667"><ele>757.0</ele><time>2026-05-03T11:26:14.122Z</time></trkpt><trkpt lat="44.3074635" lon="10.8147389"><ele>757.0</ele><time>2026-05-03T11:26:15.121Z</time></trkpt><trkpt lat="44.3074657" lon="10.8149156"><ele>757.0</ele><time>2026-05-03T11:26:16.12Z</time></trkpt><trkpt lat="44.3074698" lon="10.8151"><ele>755.75</ele><time>2026-05-03T11:26:17.121Z</time></trkpt><trkpt lat="44.3074724" lon="10.8152824"><ele>754.5</ele><time>2026-05-03T11:26:18.121Z</time></trkpt><trkpt lat="44.3074734" lon="10.8154615"><ele>753.25</ele><time>2026-05-03T11:26:19.12Z</time></trkpt><trkpt lat="44.3074771" lon="10.8156355"><ele>752.0</ele><time>2026-05-03T11:26:20.122Z</time></trkpt><trkpt lat="44.3074869" lon="10.8158151"><ele>750.5</ele><time>2026-05-03T11:26:21.12Z</time></trkpt><trkpt lat="44.3075052" lon="10.8160038"><ele>749.0</ele><time>2026-05-03T11:26:22.122Z</time></trkpt><trkpt lat="44.3075253" lon="10.8161949"><ele>747.5</ele><time>2026-05-03T11:26:23.122Z</time></trkpt><trkpt lat="44.307537" lon="10.8163922"><ele>746.0</ele><time>2026-05-03T11:26:24.122Z</time></trkpt><trkpt lat="44.3075353" lon="10.8165948"><ele>746.0</ele><time>2026-05-03T11:26:25.121Z</time></trkpt><trkpt lat="44.3075263" lon="10.8168006"><ele>746.0</ele><time>2026-05-03T11:26:26.122Z</time></trkpt><trkpt lat="44.3075182" lon="10.8170123"><ele>746.0</ele><time>2026-05-03T11:26:27.121Z</time></trkpt><trkpt lat="44.3075235" lon="10.8172299"><ele>744.6666666666666</ele><time>2026-05-03T11:26:28.121Z</time></trkpt><trkpt lat="44.3075375" lon="10.8174509"><ele>743.3333333333334</ele><time>2026-05-03T11:26:29.12Z</time></trkpt><trkpt lat="44.3075498" lon="10.8176651"><ele>742.0</ele><time>2026-05-03T11:26:30.121Z</time></trkpt><trkpt lat="44.3075754" lon="10.8178693"><ele>739.5</ele><time>2026-05-03T11:26:31.121Z</time></trkpt><trkpt lat="44.3076243" lon="10.8180614"><ele>737.0</ele><time>2026-05-03T11:26:32.12Z</time></trkpt><trkpt lat="44.3076882" lon="10.8182357"><ele>734.5</ele><time>2026-05-03T11:26:33.122Z</time></trkpt><trkpt lat="44.3077559" lon="10.8183986"><ele>732.0</ele><time>2026-05-03T11:26:34.122Z</time></trkpt><trkpt lat="44.307824" lon="10.8185566"><ele>733.25</ele><time>2026-05-03T11:26:35.12Z</time></trkpt><trkpt lat="44.3078941" lon="10.8187065"><ele>734.5</ele><time>2026-05-03T11:26:36.122Z</time></trkpt><trkpt lat="44.307964" lon="10.8188485"><ele>735.75</ele><time>2026-05-03T11:26:37.119Z</time></trkpt><trkpt lat="44.3080364" lon="10.8189778"><ele>737.0</ele><time>2026-05-03T11:26:38.122Z</time></trkpt><trkpt lat="44.3081123" lon="10.8190925"><ele>737.0</ele><time>2026-05-03T11:26:39.121Z</time></trkpt><trkpt lat="44.3081891" lon="10.8192047"><ele>737.0</ele><time>2026-05-03T11:26:40.121Z</time></trkpt><trkpt lat="44.3082667" lon="10.8193102"><ele>737.0</ele><time>2026-05-03T11:26:41.121Z</time></trkpt><trkpt lat="44.308346" lon="10.8194139"><ele>737.0</ele><time>2026-05-03T11:26:42.12Z</time></trkpt><trkpt lat="44.308424" lon="10.8195206"><ele>737.0</ele><time>2026-05-03T11:26:43.12Z</time></trkpt><trkpt lat="44.3084964" lon="10.8196353"><ele>734.8</ele><time>2026-05-03T11:26:44.121Z</time></trkpt><trkpt lat="44.3085648" lon="10.8197552"><ele>732.6</ele><time>2026-05-03T11:26:45.122Z</time></trkpt><trkpt lat="44.3086312" lon="10.819879"><ele>730.4</ele><time>2026-05-03T11:26:46.121Z</time></trkpt><trkpt lat="44.3086939" lon="10.8200077"><ele>728.1999999999999</ele><time>2026-05-03T11:26:47.121Z</time></trkpt><trkpt lat="44.3087504" lon="10.8201432"><ele>726.0</ele><time>2026-05-03T11:26:48.12Z</time></trkpt><trkpt lat="44.3087965" lon="10.8202857"><ele>725.25</ele><time>2026-05-03T11:26:49.121Z</time></trkpt><trkpt lat="44.3088312" lon="10.8204358"><ele>724.5</ele><time>2026-05-03T11:26:50.121Z</time></trkpt><trkpt lat="44.3088585" lon="10.8205901"><ele>723.75</ele><time>2026-05-03T11:26:51.121Z</time></trkpt><trkpt lat="44.3088866" lon="10.8207453"><ele>723.0</ele><time>2026-05-03T11:26:52.121Z</time></trkpt><trkpt lat="44.3089141" lon="10.8208929"><ele>724.2</ele><time>2026-05-03T11:26:53.12Z</time></trkpt><trkpt lat="44.3089408" lon="10.8210317"><ele>725.4</ele><time>2026-05-03T11:26:54.119Z</time></trkpt><trkpt lat="44.3089682" lon="10.8211627"><ele>726.6</ele><time>2026-05-03T11:26:55.12Z</time></trkpt><trkpt lat="44.3089971" lon="10.8212881"><ele>727.8000000000001</ele><time>2026-05-03T11:26:56.121Z</time></trkpt><trkpt lat="44.3090317" lon="10.8214083"><ele>729.0</ele><time>2026-05-03T11:26:57.122Z</time></trkpt><trkpt lat="44.3090775" lon="10.8215234"><ele>729.0</ele><time>2026-05-03T11:26:58.121Z</time></trkpt><trkpt lat="44.3091318" lon="10.82164"><ele>729.0</ele><time>2026-05-03T11:26:59.121Z</time></trkpt><trkpt lat="44.3091933" lon="10.8217595"><ele>729.0</ele><time>2026-05-03T11:27:00.121Z</time></trkpt><trkpt lat="44.3092628" lon="10.8218772"><ele>729.0</ele><time>2026-05-03T11:27:01.121Z</time></trkpt><trkpt lat="44.3093403" lon="10.8219905"><ele>729.0</ele><time>2026-05-03T11:27:02.122Z</time></trkpt><trkpt lat="44.3094251" lon="10.8220921"><ele>728.6</ele><time>2026-05-03T11:27:03.121Z</time></trkpt><trkpt lat="44.3095209" lon="10.8221688"><ele>728.2</ele><time>2026-05-03T11:27:04.121Z</time></trkpt><trkpt lat="44.309625" lon="10.8222076"><ele>727.8000000000001</ele><time>2026-05-03T11:27:05.122Z</time></trkpt><trkpt lat="44.3097362" lon="10.8222116"><ele>727.4000000000001</ele><time>2026-05-03T11:27:06.122Z</time></trkpt><trkpt lat="44.3098485" lon="10.8221967"><ele>727.0</ele><time>2026-05-03T11:27:07.12Z</time></trkpt><trkpt lat="44.309964" lon="10.8221782"><ele>727.0</ele><time>2026-05-03T11:27:08.121Z</time></trkpt><trkpt lat="44.3100746" lon="10.8221714"><ele>727.0</ele><time>2026-05-03T11:27:09.118Z</time></trkpt><trkpt lat="44.3101767" lon="10.8222128"><ele>727.0</ele><time>2026-05-03T11:27:10.119Z</time></trkpt><trkpt lat="44.3102578" lon="10.822296"><ele>727.0</ele><time>2026-05-03T11:27:11.121Z</time></trkpt><trkpt lat="44.3103205" lon="10.8224078"><ele>727.0</ele><time>2026-05-03T11:27:12.121Z</time></trkpt><trkpt lat="44.310372" lon="10.822542"><ele>728.5</ele><time>2026-05-03T11:27:13.121Z</time></trkpt><trkpt lat="44.3104246" lon="10.822688"><ele>730.0</ele><time>2026-05-03T11:27:14.121Z</time></trkpt><trkpt lat="44.3104809" lon="10.8228432"><ele>731.5</ele><time>2026-05-03T11:27:15.121Z</time></trkpt><trkpt lat="44.3105409" lon="10.8230036"><ele>733.0</ele><time>2026-05-03T11:27:16.12Z</time></trkpt><trkpt lat="44.3106059" lon="10.823165"><ele>733.0</ele><time>2026-05-03T11:27:17.121Z</time></trkpt><trkpt lat="44.310679" lon="10.823326"><ele>733.0</ele><time>2026-05-03T11:27:18.12Z</time></trkpt><trkpt lat="44.3107518" lon="10.8234767"><ele>733.0</ele><time>2026-05-03T11:27:19.121Z</time></trkpt><trkpt lat="44.3108258" lon="10.8236083"><ele>733.0</ele><time>2026-05-03T11:27:20.119Z</time></trkpt><trkpt lat="44.3109023" lon="10.8237263"><ele>729.25</ele><time>2026-05-03T11:27:21.121Z</time></trkpt><trkpt lat="44.3109839" lon="10.8238294"><ele>725.5</ele><time>2026-05-03T11:27:22.119Z</time></trkpt><trkpt lat="44.3110695" lon="10.8239255"><ele>721.75</ele><time>2026-05-03T11:27:23.119Z</time></trkpt><trkpt lat="44.3111621" lon="10.8240187"><ele>718.0</ele><time>2026-05-03T11:27:24.12Z</time></trkpt><trkpt lat="44.3112657" lon="10.8241054"><ele>718.0</ele><time>2026-05-03T11:27:25.119Z</time></trkpt><trkpt lat="44.3113718" lon="10.8241949"><ele>718.0</ele><time>2026-05-03T11:27:26.121Z</time></trkpt><trkpt lat="44.311478" lon="10.8242931"><ele>718.0</ele><time>2026-05-03T11:27:27.12Z</time></trkpt><trkpt lat="44.3115817" lon="10.8244016"><ele>718.0</ele><time>2026-05-03T11:27:28.122Z</time></trkpt><trkpt lat="44.3116763" lon="10.824529"><ele>718.0</ele><time>2026-05-03T11:27:29.12Z</time></trkpt><trkpt lat="44.3117506" lon="10.8246818"><ele>718.0</ele><time>2026-05-03T11:27:30.12Z</time></trkpt><trkpt lat="44.311806" lon="10.8248418"><ele>718.0</ele><time>2026-05-03T11:27:31.121Z</time></trkpt><trkpt lat="44.3118441" lon="10.8250034"><ele>718.0</ele><time>2026-05-03T11:27:32.119Z</time></trkpt><trkpt lat="44.3118719" lon="10.8251645"><ele>717.0</ele><time>2026-05-03T11:27:33.119Z</time></trkpt><trkpt lat="44.3118983" lon="10.8253275"><ele>716.0</ele><time>2026-05-03T11:27:34.119Z</time></trkpt><trkpt lat="44.3119257" lon="10.8254944"><ele>715.0</ele><time>2026-05-03T11:27:35.122Z</time></trkpt><trkpt lat="44.3119529" lon="10.8256605"><ele>714.0</ele><time>2026-05-03T11:27:36.119Z</time></trkpt><trkpt lat="44.3119809" lon="10.8258266"><ele>713.5</ele><time>2026-05-03T11:27:37.119Z</time></trkpt><trkpt lat="44.3120086" lon="10.8259944"><ele>713.0</ele><time>2026-05-03T11:27:38.12Z</time></trkpt><trkpt lat="44.3120332" lon="10.8261627"><ele>712.5</ele><time>2026-05-03T11:27:39.12Z</time></trkpt><trkpt lat="44.3120518" lon="10.8263357"><ele>712.0</ele><time>2026-05-03T11:27:40.121Z</time></trkpt><trkpt lat="44.3120663" lon="10.8265118"><ele>712.0</ele><time>2026-05-03T11:27:41.121Z</time></trkpt><trkpt lat="44.3120775" lon="10.8266933"><ele>712.0</ele><time>2026-05-03T11:27:42.122Z</time></trkpt><trkpt lat="44.3120888" lon="10.8268763"><ele>712.0</ele><time>2026-05-03T11:27:43.122Z</time></trkpt><trkpt lat="44.3121003" lon="10.8270623"><ele>712.0</ele><time>2026-05-03T11:27:44.121Z</time></trkpt><trkpt lat="44.3121118" lon="10.8272476"><ele>712.0</ele><time>2026-05-03T11:27:45.121Z</time></trkpt><trkpt lat="44.3121191" lon="10.8274358"><ele>712.0</ele><time>2026-05-03T11:27:46.118Z</time></trkpt><trkpt lat="44.312126" lon="10.827614"><ele>712.0</ele><time>2026-05-03T11:27:47.12Z</time></trkpt><trkpt lat="44.3121301" lon="10.8277844"><ele>712.0</ele><time>2026-05-03T11:27:48.119Z</time></trkpt><trkpt lat="44.3121353" lon="10.8279433"><ele>712.3333333333334</ele><time>2026-05-03T11:27:49.118Z</time></trkpt><trkpt lat="44.3121399" lon="10.8280872"><ele>712.6666666666667</ele><time>2026-05-03T11:27:50.12Z</time></trkpt><trkpt lat="44.3121432" lon="10.8282051"><ele>713.0</ele><time>2026-05-03T11:27:51.119Z</time></trkpt><trkpt lat="44.3121343" lon="10.8282986"><ele>713.3333333333334</ele><time>2026-05-03T11:27:52.119Z</time></trkpt><trkpt lat="44.3121283" lon="10.8284314"><ele>713.6666666666666</ele><time>2026-05-03T11:27:54.119Z</time></trkpt><trkpt lat="44.3121323" lon="10.8285278"><ele>714.0</ele><time>2026-05-03T11:28:02.12Z</time></trkpt><trkpt lat="44.3121505" lon="10.8286515"><ele>714.0</ele><time>2026-05-03T11:28:05.122Z</time></trkpt><trkpt lat="44.3121821" lon="10.8288128"><ele>714.0</ele><time>2026-05-03T11:28:07.121Z</time></trkpt><trkpt lat="44.3121943" lon="10.8289349"><ele>714.0</ele><time>2026-05-03T11:28:08.119Z</time></trkpt><trkpt lat="44.3122107" lon="10.8290766"><ele>714.0</ele><time>2026-05-03T11:28:09.12Z</time></trkpt><trkpt lat="44.3122319" lon="10.8292412"><ele>714.0</ele><time>2026-05-03T11:28:10.121Z</time></trkpt><trkpt lat="44.3122621" lon="10.8294252"><ele>711.6666666666666</ele><time>2026-05-03T11:28:11.121Z</time></trkpt><trkpt lat="44.3122975" lon="10.8296201"><ele>709.3333333333333</ele><time>2026-05-03T11:28:12.119Z</time></trkpt><trkpt lat="44.312335" lon="10.8298294"><ele>707.0</ele><time>2026-05-03T11:28:13.121Z</time></trkpt><trkpt lat="44.3123703" lon="10.8300476"><ele>705.6666666666666</ele><time>2026-05-03T11:28:14.12Z</time></trkpt><trkpt lat="44.3123993" lon="10.830262"><ele>704.3333333333334</ele><time>2026-05-03T11:28:15.119Z</time></trkpt><trkpt lat="44.3124198" lon="10.8304728"><ele>703.0</ele><time>2026-05-03T11:28:16.121Z</time></trkpt><trkpt lat="44.3124345" lon="10.8306778"><ele>703.0</ele><time>2026-05-03T11:28:17.119Z</time></trkpt><trkpt lat="44.3124469" lon="10.8308808"><ele>703.0</ele><time>2026-05-03T11:28:18.122Z</time></trkpt><trkpt lat="44.3124589" lon="10.8310794"><ele>703.0</ele><time>2026-05-03T11:28:19.12Z</time></trkpt><trkpt lat="44.3124697" lon="10.8312721"><ele>703.0</ele><time>2026-05-03T11:28:20.119Z</time></trkpt><trkpt lat="44.3124784" lon="10.8314632"><ele>702.0</ele><time>2026-05-03T11:28:21.121Z</time></trkpt><trkpt lat="44.312489" lon="10.83165"><ele>701.0</ele><time>2026-05-03T11:28:22.121Z</time></trkpt><trkpt lat="44.312511" lon="10.8318266"><ele>700.0</ele><time>2026-05-03T11:28:23.122Z</time></trkpt><trkpt lat="44.3125575" lon="10.8319826"><ele>699.0</ele><time>2026-05-03T11:28:24.119Z</time></trkpt><trkpt lat="44.3126337" lon="10.832108"><ele>698.0</ele><time>2026-05-03T11:28:25.121Z</time></trkpt><trkpt lat="44.3127331" lon="10.832201"><ele>697.0</ele><time>2026-05-03T11:28:26.12Z</time></trkpt><trkpt lat="44.3128529" lon="10.8322603"><ele>696.0</ele><time>2026-05-03T11:28:27.119Z</time></trkpt><trkpt lat="44.3129908" lon="10.8322885"><ele>695.0</ele><time>2026-05-03T11:28:28.12Z</time></trkpt><trkpt lat="44.3131409" lon="10.8323029"><ele>694.5</ele><time>2026-05-03T11:28:29.119Z</time></trkpt><trkpt lat="44.3132936" lon="10.8323159"><ele>694.0</ele><time>2026-05-03T11:28:30.119Z</time></trkpt><trkpt lat="44.3134379" lon="10.8323381"><ele>693.5</ele><time>2026-05-03T11:28:31.12Z</time></trkpt><trkpt lat="44.3135828" lon="10.8323591"><ele>693.0</ele><time>2026-05-03T11:28:32.119Z</time></trkpt><trkpt lat="44.3137323" lon="10.8323813"><ele>693.0</ele><time>2026-05-03T11:28:33.122Z</time></trkpt><trkpt lat="44.313882" lon="10.8324015"><ele>693.0</ele><time>2026-05-03T11:28:34.122Z</time></trkpt><trkpt lat="44.3140391" lon="10.8324225"><ele>693.0</ele><time>2026-05-03T11:28:35.122Z</time></trkpt><trkpt lat="44.3142024" lon="10.8324377"><ele>691.3333333333334</ele><time>2026-05-03T11:28:36.119Z</time></trkpt><trkpt lat="44.3143702" lon="10.8324493"><ele>689.6666666666667</ele><time>2026-05-03T11:28:37.122Z</time></trkpt><trkpt lat="44.3145454" lon="10.8324717"><ele>688.0</ele><time>2026-05-03T11:28:38.12Z</time></trkpt><trkpt lat="44.3147353" lon="10.8325018"><ele>688.0</ele><time>2026-05-03T11:28:39.121Z</time></trkpt><trkpt lat="44.314933" lon="10.8325351"><ele>688.0</ele><time>2026-05-03T11:28:40.12Z</time></trkpt><trkpt lat="44.3151389" lon="10.8325671"><ele>688.0</ele><time>2026-05-03T11:28:41.121Z</time></trkpt><trkpt lat="44.3153505" lon="10.8325992"><ele>688.0</ele><time>2026-05-03T11:28:42.122Z</time></trkpt><trkpt lat="44.315566" lon="10.8326294"><ele>688.0</ele><time>2026-05-03T11:28:43.12Z</time></trkpt><trkpt lat="44.3157837" lon="10.83266"><ele>688.0</ele><time>2026-05-03T11:28:44.12Z</time></trkpt><trkpt lat="44.3159931" lon="10.8326912"><ele>686.6666666666667</ele><time>2026-05-03T11:28:45.12Z</time></trkpt><trkpt lat="44.3161897" lon="10.8327261"><ele>685.3333333333334</ele><time>2026-05-03T11:28:46.122Z</time></trkpt><trkpt lat="44.3163756" lon="10.83277"><ele>684.0</ele><time>2026-05-03T11:28:47.12Z</time></trkpt><trkpt lat="44.3165481" lon="10.8328234"><ele>684.0</ele><time>2026-05-03T11:28:48.121Z</time></trkpt><trkpt lat="44.3167136" lon="10.8328823"><ele>684.0</ele><time>2026-05-03T11:28:49.122Z</time></trkpt><trkpt lat="44.3168741" lon="10.832948"><ele>684.0</ele><time>2026-05-03T11:28:50.12Z</time></trkpt><trkpt lat="44.3170297" lon="10.833018"><ele>684.0</ele><time>2026-05-03T11:28:51.119Z</time></trkpt><trkpt lat="44.3171856" lon="10.8330966"><ele>684.0</ele><time>2026-05-03T11:28:52.12Z</time></trkpt><trkpt lat="44.3173411" lon="10.8331809"><ele>684.0</ele><time>2026-05-03T11:28:53.121Z</time></trkpt><trkpt lat="44.3174869" lon="10.8332671"><ele>682.6666666666666</ele><time>2026-05-03T11:28:54.121Z</time></trkpt><trkpt lat="44.3176287" lon="10.8333527"><ele>681.3333333333333</ele><time>2026-05-03T11:28:55.121Z</time></trkpt><trkpt lat="44.3177729" lon="10.8334345"><ele>680.0</ele><time>2026-05-03T11:28:56.121Z</time></trkpt><trkpt lat="44.3179184" lon="10.8335187"><ele>680.0</ele><time>2026-05-03T11:28:57.121Z</time></trkpt><trkpt lat="44.3180638" lon="10.833606"><ele>680.0</ele><time>2026-05-03T11:28:58.122Z</time></trkpt><trkpt lat="44.3182126" lon="10.8336929"><ele>680.0</ele><time>2026-05-03T11:28:59.119Z</time></trkpt><trkpt lat="44.3183644" lon="10.8337803"><ele>681.3333333333333</ele><time>2026-05-03T11:29:00.118Z</time></trkpt><trkpt lat="44.3185197" lon="10.8338744"><ele>682.6666666666666</ele><time>2026-05-03T11:29:01.117Z</time></trkpt><trkpt lat="44.3186872" lon="10.8339792"><ele>684.0</ele><time>2026-05-03T11:29:02.118Z</time></trkpt><trkpt lat="44.3188731" lon="10.8341085"><ele>684.5</ele><time>2026-05-03T11:29:03.118Z</time></trkpt><trkpt lat="44.3190721" lon="10.8342619"><ele>685.0</ele><time>2026-05-03T11:29:04.119Z</time></trkpt><trkpt lat="44.3192854" lon="10.8344308"><ele>684.0</ele><time>2026-05-03T11:29:05.118Z</time></trkpt><trkpt lat="44.3195091" lon="10.8346158"><ele>683.0</ele><time>2026-05-03T11:29:06.121Z</time></trkpt><trkpt lat="44.3197398" lon="10.8348089"><ele>683.0</ele><time>2026-05-03T11:29:07.119Z</time></trkpt><trkpt lat="44.319973" lon="10.8350047"><ele>683.0</ele><time>2026-05-03T11:29:08.121Z</time></trkpt><trkpt lat="44.320191" lon="10.8351847"><ele>683.0</ele><time>2026-05-03T11:29:09.121Z</time></trkpt><trkpt lat="44.3203984" lon="10.835354"><ele>683.0</ele><time>2026-05-03T11:29:10.119Z</time></trkpt><trkpt lat="44.3205954" lon="10.8355148"><ele>683.0</ele><time>2026-05-03T11:29:11.12Z</time></trkpt><trkpt lat="44.3207892" lon="10.8356762"><ele>683.0</ele><time>2026-05-03T11:29:12.119Z</time></trkpt><trkpt lat="44.3209792" lon="10.8358362"><ele>683.0</ele><time>2026-05-03T11:29:13.122Z</time></trkpt><trkpt lat="44.3211676" lon="10.835994"><ele>682.6666666666666</ele><time>2026-05-03T11:29:14.119Z</time></trkpt><trkpt lat="44.321355" lon="10.8361467"><ele>682.3333333333334</ele><time>2026-05-03T11:29:15.12Z</time></trkpt><trkpt lat="44.3215402" lon="10.8362961"><ele>682.0</ele><time>2026-05-03T11:29:16.121Z</time></trkpt><trkpt lat="44.3217189" lon="10.8364342"><ele>682.0</ele><time>2026-05-03T11:29:17.121Z</time></trkpt><trkpt lat="44.3219007" lon="10.8365614"><ele>682.0</ele><time>2026-05-03T11:29:18.118Z</time></trkpt><trkpt lat="44.3220865" lon="10.836683"><ele>682.0</ele><time>2026-05-03T11:29:19.121Z</time></trkpt><trkpt lat="44.3222767" lon="10.8367984"><ele>680.6666666666667</ele><time>2026-05-03T11:29:20.121Z</time></trkpt><trkpt lat="44.322469" lon="10.8369075"><ele>679.3333333333334</ele><time>2026-05-03T11:29:21.12Z</time></trkpt><trkpt lat="44.3226537" lon="10.837012"><ele>678.0</ele><time>2026-05-03T11:29:22.117Z</time></trkpt><trkpt lat="44.322838" lon="10.8371176"><ele>678.0</ele><time>2026-05-03T11:29:23.122Z</time></trkpt><trkpt lat="44.3230198" lon="10.8372256"><ele>678.0</ele><time>2026-05-03T11:29:24.121Z</time></trkpt><trkpt lat="44.3231934" lon="10.8373286"><ele>678.0</ele><time>2026-05-03T11:29:25.12Z</time></trkpt><trkpt lat="44.3233526" lon="10.8374189"><ele>678.25</ele><time>2026-05-03T11:29:26.117Z</time></trkpt><trkpt lat="44.323498" lon="10.8375006"><ele>678.5</ele><time>2026-05-03T11:29:27.119Z</time></trkpt><trkpt lat="44.3236274" lon="10.837567"><ele>678.75</ele><time>2026-05-03T11:29:28.122Z</time></trkpt><trkpt lat="44.3237439" lon="10.8376167"><ele>679.0</ele><time>2026-05-03T11:29:29.12Z</time></trkpt><trkpt lat="44.3238511" lon="10.8376518"><ele>678.8333333333334</ele><time>2026-05-03T11:29:30.12Z</time></trkpt><trkpt lat="44.3239479" lon="10.8376793"><ele>678.6666666666667</ele><time>2026-05-03T11:29:31.117Z</time></trkpt><trkpt lat="44.3240332" lon="10.8377218"><ele>678.5</ele><time>2026-05-03T11:29:32.118Z</time></trkpt><trkpt lat="44.324098" lon="10.8377887"><ele>678.3333333333334</ele><time>2026-05-03T11:29:33.118Z</time></trkpt><trkpt lat="44.3241553" lon="10.8378577"><ele>678.1666666666666</ele><time>2026-05-03T11:29:34.119Z</time></trkpt><trkpt lat="44.3242153" lon="10.8378867"><ele>678.0</ele><time>2026-05-03T11:29:35.12Z</time></trkpt><trkpt lat="44.3243157" lon="10.8378152"><ele>678.0</ele><time>2026-05-03T11:29:37.119Z</time></trkpt><trkpt lat="44.3243992" lon="10.8376728"><ele>678.0</ele><time>2026-05-03T11:29:39.12Z</time></trkpt><trkpt lat="44.3244658" lon="10.8376292"><ele>678.0</ele><time>2026-05-03T11:29:40.119Z</time></trkpt><trkpt lat="44.324546" lon="10.8376074"><ele>678.0</ele><time>2026-05-03T11:29:41.121Z</time></trkpt><trkpt lat="44.3246365" lon="10.8375844"><ele>678.0</ele><time>2026-05-03T11:29:42.119Z</time></trkpt><trkpt lat="44.3247347" lon="10.8375556"><ele>679.0</ele><time>2026-05-03T11:29:43.119Z</time></trkpt><trkpt lat="44.3248435" lon="10.8375303"><ele>680.0</ele><time>2026-05-03T11:29:44.121Z</time></trkpt><trkpt lat="44.3249608" lon="10.8375129"><ele>681.0</ele><time>2026-05-03T11:29:45.12Z</time></trkpt><trkpt lat="44.3250856" lon="10.8375083"><ele>682.0</ele><time>2026-05-03T11:29:46.118Z</time></trkpt><trkpt lat="44.3252153" lon="10.8375162"><ele>682.0</ele><time>2026-05-03T11:29:47.121Z</time></trkpt><trkpt lat="44.3253519" lon="10.8375351"><ele>682.0</ele><time>2026-05-03T11:29:48.121Z</time></trkpt><trkpt lat="44.325492" lon="10.8375547"><ele>682.0</ele><time>2026-05-03T11:29:49.121Z</time></trkpt><trkpt lat="44.325637" lon="10.8375656"><ele>682.0</ele><time>2026-05-03T11:29:50.122Z</time></trkpt><trkpt lat="44.3257855" lon="10.8375621"><ele>681.6666666666667</ele><time>2026-05-03T11:29:51.118Z</time></trkpt><trkpt lat="44.325939" lon="10.8375425"><ele>681.3333333333334</ele><time>2026-05-03T11:29:52.118Z</time></trkpt><trkpt lat="44.3260938" lon="10.8375082"><ele>681.0</ele><time>2026-05-03T11:29:53.119Z</time></trkpt><trkpt lat="44.3262436" lon="10.8374556"><ele>681.0</ele><time>2026-05-03T11:29:54.121Z</time></trkpt><trkpt lat="44.3263872" lon="10.837403"><ele>681.0</ele><time>2026-05-03T11:29:55.122Z</time></trkpt><trkpt lat="44.3265361" lon="10.8373487"><ele>681.0</ele><time>2026-05-03T11:29:56.12Z</time></trkpt><trkpt lat="44.3266863" lon="10.8373022"><ele>680.0</ele><time>2026-05-03T11:29:57.119Z</time></trkpt><trkpt lat="44.3268398" lon="10.8372667"><ele>679.0</ele><time>2026-05-03T11:29:58.12Z</time></trkpt><trkpt lat="44.3269953" lon="10.8372478"><ele>678.0</ele><time>2026-05-03T11:29:59.119Z</time></trkpt><trkpt lat="44.3271514" lon="10.8372252"><ele>678.0</ele><time>2026-05-03T11:30:00.12Z</time></trkpt><trkpt lat="44.3273136" lon="10.8372037"><ele>678.0</ele><time>2026-05-03T11:30:01.122Z</time></trkpt><trkpt lat="44.3274756" lon="10.8371765"><ele>678.0</ele><time>2026-05-03T11:30:02.118Z</time></trkpt><trkpt lat="44.3276425" lon="10.83715"><ele>678.0</ele><time>2026-05-03T11:30:03.119Z</time></trkpt><trkpt lat="44.3278024" lon="10.8371285"><ele>678.0</ele><time>2026-05-03T11:30:04.121Z</time></trkpt><trkpt lat="44.3279527" lon="10.8371066"><ele>678.0</ele><time>2026-05-03T11:30:05.121Z</time></trkpt><trkpt lat="44.3280964" lon="10.8370869"><ele>678.0</ele><time>2026-05-03T11:30:06.12Z</time></trkpt><trkpt lat="44.3282412" lon="10.8370614"><ele>678.0</ele><time>2026-05-03T11:30:07.122Z</time></trkpt><trkpt lat="44.3283853" lon="10.8370377"><ele>678.0</ele><time>2026-05-03T11:30:08.121Z</time></trkpt><trkpt lat="44.328524" lon="10.8370177"><ele>678.0</ele><time>2026-05-03T11:30:09.119Z</time></trkpt><trkpt lat="44.3286611" lon="10.8369993"><ele>678.0</ele><time>2026-05-03T11:30:10.122Z</time></trkpt><trkpt lat="44.3287849" lon="10.8369827"><ele>678.0</ele><time>2026-05-03T11:30:11.119Z</time></trkpt><trkpt lat="44.3288918" lon="10.836959"><ele>678.0</ele><time>2026-05-03T11:30:12.119Z</time></trkpt><trkpt lat="44.3289823" lon="10.836929"><ele>678.0</ele><time>2026-05-03T11:30:13.119Z</time></trkpt><trkpt lat="44.3290639" lon="10.8368983"><ele>678.0</ele><time>2026-05-03T11:30:14.12Z</time></trkpt><trkpt lat="44.3291556" lon="10.8368726"><ele>678.25</ele><time>2026-05-03T11:30:15.118Z</time></trkpt><trkpt lat="44.3292494" lon="10.8368271"><ele>678.5</ele><time>2026-05-03T11:30:16.12Z</time></trkpt><trkpt lat="44.3293478" lon="10.8367515"><ele>678.75</ele><time>2026-05-03T11:30:17.121Z</time></trkpt><trkpt lat="44.3294433" lon="10.8366536"><ele>679.0</ele><time>2026-05-03T11:30:18.119Z</time></trkpt><trkpt lat="44.3295436" lon="10.8365363"><ele>678.3333333333334</ele><time>2026-05-03T11:30:19.118Z</time></trkpt><trkpt lat="44.3296485" lon="10.8364025"><ele>677.6666666666666</ele><time>2026-05-03T11:30:20.122Z</time></trkpt><trkpt lat="44.3297573" lon="10.8362567"><ele>677.0</ele><time>2026-05-03T11:30:21.121Z</time></trkpt><trkpt lat="44.3298703" lon="10.8360997"><ele>677.3333333333333</ele><time>2026-05-03T11:30:22.121Z</time></trkpt><trkpt lat="44.329989" lon="10.8359264"><ele>677.6666666666666</ele><time>2026-05-03T11:30:23.12Z</time></trkpt><trkpt lat="44.3301149" lon="10.8357323"><ele>678.0</ele><time>2026-05-03T11:30:24.12Z</time></trkpt><trkpt lat="44.3302282" lon="10.8355519"><ele>678.0</ele><time>2026-05-03T11:30:25.117Z</time></trkpt><trkpt lat="44.3303365" lon="10.8353775"><ele>678.0</ele><time>2026-05-03T11:30:26.122Z</time></trkpt><trkpt lat="44.33044" lon="10.8352124"><ele>678.0</ele><time>2026-05-03T11:30:27.119Z</time></trkpt><trkpt lat="44.3305362" lon="10.8350552"><ele>679.0</ele><time>2026-05-03T11:30:28.119Z</time></trkpt><trkpt lat="44.3306257" lon="10.8349038"><ele>680.0</ele><time>2026-05-03T11:30:29.119Z</time></trkpt><trkpt lat="44.3307072" lon="10.8347645"><ele>681.0</ele><time>2026-05-03T11:30:30.12Z</time></trkpt><trkpt lat="44.3307833" lon="10.8346435"><ele>682.0</ele><time>2026-05-03T11:30:31.119Z</time></trkpt><trkpt lat="44.3308563" lon="10.8345389"><ele>682.0</ele><time>2026-05-03T11:30:32.119Z</time></trkpt><trkpt lat="44.3309285" lon="10.8344474"><ele>682.0</ele><time>2026-05-03T11:30:33.121Z</time></trkpt><trkpt lat="44.3310018" lon="10.8343769"><ele>682.0</ele><time>2026-05-03T11:30:34.122Z</time></trkpt><trkpt lat="44.3310732" lon="10.8343287"><ele>682.0</ele><time>2026-05-03T11:30:35.121Z</time></trkpt><trkpt lat="44.3311347" lon="10.8342759"><ele>682.0</ele><time>2026-05-03T11:30:36.121Z</time></trkpt><trkpt lat="44.3311733" lon="10.834205"><ele>682.0</ele><time>2026-05-03T11:30:37.12Z</time></trkpt><trkpt lat="44.3311998" lon="10.8340316"><ele>681.2</ele><time>2026-05-03T11:30:39.119Z</time></trkpt><trkpt lat="44.3312284" lon="10.8339358"><ele>680.4000000000001</ele><time>2026-05-03T11:30:40.121Z</time></trkpt><trkpt lat="44.3312702" lon="10.8338385"><ele>679.5999999999999</ele><time>2026-05-03T11:30:41.119Z</time></trkpt><trkpt lat="44.3313247" lon="10.833738"><ele>678.8</ele><time>2026-05-03T11:30:42.121Z</time></trkpt><trkpt lat="44.3313918" lon="10.8336306"><ele>678.0</ele><time>2026-05-03T11:30:43.122Z</time></trkpt><trkpt lat="44.3314656" lon="10.833517"><ele>677.25</ele><time>2026-05-03T11:30:44.121Z</time></trkpt><trkpt lat="44.3315426" lon="10.8333999"><ele>676.5</ele><time>2026-05-03T11:30:45.121Z</time></trkpt><trkpt lat="44.3316245" lon="10.8332984"><ele>675.75</ele><time>2026-05-03T11:30:46.121Z</time></trkpt><trkpt lat="44.331716" lon="10.8332088"><ele>675.0</ele><time>2026-05-03T11:30:47.119Z</time></trkpt><trkpt lat="44.3318169" lon="10.8331316"><ele>675.0</ele><time>2026-05-03T11:30:48.119Z</time></trkpt><trkpt lat="44.3319229" lon="10.8330648"><ele>675.0</ele><time>2026-05-03T11:30:49.121Z</time></trkpt><trkpt lat="44.3320312" lon="10.8330175"><ele>675.0</ele><time>2026-05-03T11:30:50.12Z</time></trkpt><trkpt lat="44.3321381" lon="10.8329861"><ele>675.0</ele><time>2026-05-03T11:30:51.119Z</time></trkpt><trkpt lat="44.3322346" lon="10.8329719"><ele>675.0</ele><time>2026-05-03T11:30:52.12Z</time></trkpt><trkpt lat="44.3323185" lon="10.8329674"><ele>675.8</ele><time>2026-05-03T11:30:53.121Z</time></trkpt><trkpt lat="44.3323988" lon="10.8329625"><ele>676.6</ele><time>2026-05-03T11:30:54.12Z</time></trkpt><trkpt lat="44.3324906" lon="10.8329549"><ele>677.4000000000001</ele><time>2026-05-03T11:30:55.121Z</time></trkpt><trkpt lat="44.3325976" lon="10.8329486"><ele>678.2</ele><time>2026-05-03T11:30:56.121Z</time></trkpt><trkpt lat="44.3327257" lon="10.8329366"><ele>679.0</ele><time>2026-05-03T11:30:57.121Z</time></trkpt><trkpt lat="44.3328781" lon="10.8329223"><ele>678.3333333333334</ele><time>2026-05-03T11:30:58.118Z</time></trkpt><trkpt lat="44.3330588" lon="10.8329114"><ele>677.6666666666666</ele><time>2026-05-03T11:30:59.121Z</time></trkpt><trkpt lat="44.3332261" lon="10.8329169"><ele>677.0</ele><time>2026-05-03T11:31:00.12Z</time></trkpt><trkpt lat="44.3333853" lon="10.8329235"><ele>677.0</ele><time>2026-05-03T11:31:01.12Z</time></trkpt><trkpt lat="44.333541" lon="10.8329195"><ele>677.0</ele><time>2026-05-03T11:31:02.12Z</time></trkpt><trkpt lat="44.3336942" lon="10.8329187"><ele>677.0</ele><time>2026-05-03T11:31:03.119Z</time></trkpt><trkpt lat="44.3338462" lon="10.8329137"><ele>677.0</ele><time>2026-05-03T11:31:04.117Z</time></trkpt><trkpt lat="44.3339994" lon="10.8329055"><ele>677.0</ele><time>2026-05-03T11:31:05.121Z</time></trkpt><trkpt lat="44.3341481" lon="10.8329008"><ele>677.0</ele><time>2026-05-03T11:31:06.12Z</time></trkpt><trkpt lat="44.3342857" lon="10.8328976"><ele>677.0</ele><time>2026-05-03T11:31:07.119Z</time></trkpt><trkpt lat="44.3344126" lon="10.8328958"><ele>677.0</ele><time>2026-05-03T11:31:08.118Z</time></trkpt><trkpt lat="44.3345278" lon="10.8328952"><ele>677.0</ele><time>2026-05-03T11:31:09.119Z</time></trkpt><trkpt lat="44.3346275" lon="10.8328934"><ele>677.0</ele><time>2026-05-03T11:31:10.122Z</time></trkpt><trkpt lat="44.3347126" lon="10.8328904"><ele>677.0</ele><time>2026-05-03T11:31:11.121Z</time></trkpt><trkpt lat="44.3347872" lon="10.8328893"><ele>677.0</ele><time>2026-05-03T11:31:12.119Z</time></trkpt><trkpt lat="44.3348992" lon="10.8328868"><ele>677.6</ele><time>2026-05-03T11:31:14.118Z</time></trkpt><trkpt lat="44.3349717" lon="10.832887"><ele>678.2</ele><time>2026-05-03T11:31:16.119Z</time></trkpt><trkpt lat="44.3350587" lon="10.8328837"><ele>678.8</ele><time>2026-05-03T11:31:23.121Z</time></trkpt><trkpt lat="44.3351921" lon="10.8328902"><ele>679.4</ele><time>2026-05-03T11:31:25.119Z</time></trkpt><trkpt lat="44.3352835" lon="10.8328942"><ele>680.0</ele><time>2026-05-03T11:31:26.121Z</time></trkpt><trkpt lat="44.3353846" lon="10.8328856"><ele>680.0</ele><time>2026-05-03T11:31:27.121Z</time></trkpt><trkpt lat="44.335506" lon="10.8328729"><ele>680.0</ele><time>2026-05-03T11:31:28.121Z</time></trkpt><trkpt lat="44.3356425" lon="10.8328621"><ele>680.0</ele><time>2026-05-03T11:31:29.119Z</time></trkpt><trkpt lat="44.3357831" lon="10.832862"><ele>680.0</ele><time>2026-05-03T11:31:30.122Z</time></trkpt><trkpt lat="44.3359199" lon="10.8328633"><ele>679.75</ele><time>2026-05-03T11:31:31.119Z</time></trkpt><trkpt lat="44.336062" lon="10.8328547"><ele>679.5</ele><time>2026-05-03T11:31:32.121Z</time></trkpt><trkpt lat="44.3362083" lon="10.8328485"><ele>679.25</ele><time>2026-05-03T11:31:33.121Z</time></trkpt><trkpt lat="44.3363576" lon="10.8328432"><ele>679.0</ele><time>2026-05-03T11:31:34.121Z</time></trkpt><trkpt lat="44.3365029" lon="10.8328396"><ele>678.75</ele><time>2026-05-03T11:31:35.118Z</time></trkpt><trkpt lat="44.3366393" lon="10.832839"><ele>678.5</ele><time>2026-05-03T11:31:36.12Z</time></trkpt><trkpt lat="44.3367635" lon="10.8328321"><ele>678.25</ele><time>2026-05-03T11:31:37.121Z</time></trkpt><trkpt lat="44.3368849" lon="10.8328323"><ele>678.0</ele><time>2026-05-03T11:31:38.121Z</time></trkpt><trkpt lat="44.3370005" lon="10.8328351"><ele>678.0</ele><time>2026-05-03T11:31:39.121Z</time></trkpt><trkpt lat="44.3371138" lon="10.8328326"><ele>678.0</ele><time>2026-05-03T11:31:40.121Z</time></trkpt><trkpt lat="44.3372205" lon="10.8328299"><ele>678.0</ele><time>2026-05-03T11:31:41.12Z</time></trkpt><trkpt lat="44.3373204" lon="10.8328332"><ele>678.0</ele><time>2026-05-03T11:31:42.121Z</time></trkpt><trkpt lat="44.3374158" lon="10.8328368"><ele>678.0</ele><time>2026-05-03T11:31:43.119Z</time></trkpt><trkpt lat="44.3375024" lon="10.8328378"><ele>677.8333333333334</ele><time>2026-05-03T11:31:44.12Z</time></trkpt><trkpt lat="44.3375748" lon="10.8328344"><ele>677.6666666666666</ele><time>2026-05-03T11:31:45.122Z</time></trkpt><trkpt lat="44.3376803" lon="10.832831"><ele>677.5</ele><time>2026-05-03T11:31:47.12Z</time></trkpt><trkpt lat="44.337747" lon="10.8328363"><ele>677.3333333333333</ele><time>2026-05-03T11:31:49.121Z</time></trkpt><trkpt lat="44.3378531" lon="10.8328352"><ele>677.1666666666666</ele><time>2026-05-03T11:32:02.121Z</time></trkpt><trkpt lat="44.3379201" lon="10.8328394"><ele>677.0</ele><time>2026-05-03T11:32:03.121Z</time></trkpt><trkpt lat="44.3380014" lon="10.8328397"><ele>677.0</ele><time>2026-05-03T11:32:04.121Z</time></trkpt><trkpt lat="44.3380963" lon="10.832846"><ele>677.0</ele><time>2026-05-03T11:32:05.119Z</time></trkpt><trkpt lat="44.3382028" lon="10.8328505"><ele>677.0</ele><time>2026-05-03T11:32:06.122Z</time></trkpt><trkpt lat="44.3383215" lon="10.8328609"><ele>677.0</ele><time>2026-05-03T11:32:07.12Z</time></trkpt><trkpt lat="44.3384455" lon="10.8328769"><ele>677.0</ele><time>2026-05-03T11:32:08.122Z</time></trkpt><trkpt lat="44.3385693" lon="10.8328976"><ele>677.0</ele><time>2026-05-03T11:32:09.118Z</time></trkpt><trkpt lat="44.3386869" lon="10.832919"><ele>677.0</ele><time>2026-05-03T11:32:10.101Z</time></trkpt><trkpt lat="44.3388056" lon="10.832942"><ele>677.0</ele><time>2026-05-03T11:32:11.089Z</time></trkpt><trkpt lat="44.3389281" lon="10.8329668"><ele>677.0</ele><time>2026-05-03T11:32:12.09Z</time></trkpt><trkpt lat="44.3390516" lon="10.8329965"><ele>677.0</ele><time>2026-05-03T11:32:13.091Z</time></trkpt><trkpt lat="44.3391783" lon="10.833025"><ele>677.0</ele><time>2026-05-03T11:32:14.091Z</time></trkpt><trkpt lat="44.3393087" lon="10.833057"><ele>677.0</ele><time>2026-05-03T11:32:15.121Z</time></trkpt><trkpt lat="44.3394399" lon="10.8330793"><ele>677.0</ele><time>2026-05-03T11:32:16.122Z</time></trkpt><trkpt lat="44.3395795" lon="10.8330875"><ele>676.75</ele><time>2026-05-03T11:32:17.12Z</time></trkpt><trkpt lat="44.3397213" lon="10.8330792"><ele>676.5</ele><time>2026-05-03T11:32:18.12Z</time></trkpt><trkpt lat="44.3398512" lon="10.8330455"><ele>676.25</ele><time>2026-05-03T11:32:19.121Z</time></trkpt><trkpt lat="44.3399871" lon="10.8330111"><ele>676.0</ele><time>2026-05-03T11:32:20.12Z</time></trkpt><trkpt lat="44.3401253" lon="10.8329857"><ele>676.0</ele><time>2026-05-03T11:32:21.12Z</time></trkpt><trkpt lat="44.3402643" lon="10.832974"><ele>676.0</ele><time>2026-05-03T11:32:22.121Z</time></trkpt><trkpt lat="44.3404072" lon="10.8329823"><ele>676.0</ele><time>2026-05-03T11:32:23.093Z</time></trkpt><trkpt lat="44.3405559" lon="10.8329884"><ele>676.0</ele><time>2026-05-03T11:32:24.09Z</time></trkpt><trkpt lat="44.3407035" lon="10.832994"><ele>676.0</ele><time>2026-05-03T11:32:25.089Z</time></trkpt><trkpt lat="44.3408468" lon="10.8329966"><ele>676.0</ele><time>2026-05-03T11:32:26.088Z</time></trkpt><trkpt lat="44.3409877" lon="10.8329954"><ele>676.0</ele><time>2026-05-03T11:32:27.09Z</time></trkpt><trkpt lat="44.3411288" lon="10.8329905"><ele>676.0</ele><time>2026-05-03T11:32:28.092Z</time></trkpt><trkpt lat="44.3412685" lon="10.8329845"><ele>676.5</ele><time>2026-05-03T11:32:29.091Z</time></trkpt><trkpt lat="44.3414081" lon="10.8329778"><ele>677.0</ele><time>2026-05-03T11:32:30.092Z</time></trkpt><trkpt lat="44.341546" lon="10.8329715"><ele>677.5</ele><time>2026-05-03T11:32:31.091Z</time></trkpt><trkpt lat="44.3416821" lon="10.8329667"><ele>678.0</ele><time>2026-05-03T11:32:32.091Z</time></trkpt><trkpt lat="44.34182" lon="10.8329599"><ele>678.0</ele><time>2026-05-03T11:32:33.091Z</time></trkpt><trkpt lat="44.3419623" lon="10.832952"><ele>678.0</ele><time>2026-05-03T11:32:34.091Z</time></trkpt><trkpt lat="44.3421092" lon="10.8329454"><ele>678.0</ele><time>2026-05-03T11:32:35.092Z</time></trkpt><trkpt lat="44.3422592" lon="10.8329396"><ele>678.0</ele><time>2026-05-03T11:32:36.091Z</time></trkpt><trkpt lat="44.3424113" lon="10.8329342"><ele>678.6666666666666</ele><time>2026-05-03T11:32:37.091Z</time></trkpt><trkpt lat="44.3425647" lon="10.8329284"><ele>679.3333333333333</ele><time>2026-05-03T11:32:38.092Z</time></trkpt><trkpt lat="44.3427177" lon="10.8329262"><ele>680.0</ele><time>2026-05-03T11:32:39.091Z</time></trkpt><trkpt lat="44.3428727" lon="10.8329318"><ele>680.0</ele><time>2026-05-03T11:32:40.091Z</time></trkpt><trkpt lat="44.3430316" lon="10.8329483"><ele>680.0</ele><time>2026-05-03T11:32:41.092Z</time></trkpt><trkpt lat="44.3431939" lon="10.832976"><ele>680.0</ele><time>2026-05-03T11:32:42.091Z</time></trkpt><trkpt lat="44.3433595" lon="10.8330158"><ele>680.6666666666666</ele><time>2026-05-03T11:32:43.092Z</time></trkpt><trkpt lat="44.3435282" lon="10.8330619"><ele>681.3333333333334</ele><time>2026-05-03T11:32:44.092Z</time></trkpt><trkpt lat="44.3436991" lon="10.8331121"><ele>682.0</ele><time>2026-05-03T11:32:45.091Z</time></trkpt><trkpt lat="44.343872" lon="10.8331624"><ele>683.6666666666667</ele><time>2026-05-03T11:32:46.092Z</time></trkpt><trkpt lat="44.3440437" lon="10.833211"><ele>685.3333333333334</ele><time>2026-05-03T11:32:47.092Z</time></trkpt><trkpt lat="44.3442096" lon="10.8332605"><ele>687.0</ele><time>2026-05-03T11:32:48.091Z</time></trkpt><trkpt lat="44.344372" lon="10.8333098"><ele>687.0</ele><time>2026-05-03T11:32:49.092Z</time></trkpt><trkpt lat="44.3445344" lon="10.8333593"><ele>687.0</ele><time>2026-05-03T11:32:50.091Z</time></trkpt><trkpt lat="44.3446978" lon="10.8334096"><ele>687.0</ele><time>2026-05-03T11:32:51.092Z</time></trkpt><trkpt lat="44.3448621" lon="10.8334592"><ele>686.0</ele><time>2026-05-03T11:32:52.091Z</time></trkpt><trkpt lat="44.3450263" lon="10.8335101"><ele>685.0</ele><time>2026-05-03T11:32:53.091Z</time></trkpt><trkpt lat="44.3451911" lon="10.8335608"><ele>684.0</ele><time>2026-05-03T11:32:54.091Z</time></trkpt><trkpt lat="44.3453569" lon="10.8336098"><ele>684.0</ele><time>2026-05-03T11:32:55.091Z</time></trkpt><trkpt lat="44.3455187" lon="10.8336555"><ele>684.0</ele><time>2026-05-03T11:32:56.091Z</time></trkpt><trkpt lat="44.3456727" lon="10.8337002"><ele>684.0</ele><time>2026-05-03T11:32:57.092Z</time></trkpt><trkpt lat="44.3458277" lon="10.8337526"><ele>682.0</ele><time>2026-05-03T11:32:58.091Z</time></trkpt><trkpt lat="44.3459854" lon="10.8338151"><ele>680.0</ele><time>2026-05-03T11:32:59.092Z</time></trkpt><trkpt lat="44.3461415" lon="10.8338867"><ele>678.0</ele><time>2026-05-03T11:33:00.092Z</time></trkpt><trkpt lat="44.3462924" lon="10.8339605"><ele>675.0</ele><time>2026-05-03T11:33:01.092Z</time></trkpt><trkpt lat="44.3464422" lon="10.8340338"><ele>672.0</ele><time>2026-05-03T11:33:02.092Z</time></trkpt><trkpt lat="44.3465896" lon="10.8341126"><ele>669.0</ele><time>2026-05-03T11:33:03.092Z</time></trkpt><trkpt lat="44.3467308" lon="10.8342126"><ele>673.3333333333334</ele><time>2026-05-03T11:33:04.091Z</time></trkpt><trkpt lat="44.3468656" lon="10.8343445"><ele>677.6666666666667</ele><time>2026-05-03T11:33:05.092Z</time></trkpt><trkpt lat="44.3469966" lon="10.8345022"><ele>682.0</ele><time>2026-05-03T11:33:06.092Z</time></trkpt><trkpt lat="44.3471295" lon="10.8346758"><ele>676.6666666666667</ele><time>2026-05-03T11:33:07.092Z</time></trkpt><trkpt lat="44.3472708" lon="10.8348486"><ele>671.3333333333334</ele><time>2026-05-03T11:33:08.092Z</time></trkpt><trkpt lat="44.3474195" lon="10.8350057"><ele>666.0</ele><time>2026-05-03T11:33:09.091Z</time></trkpt><trkpt lat="44.3475745" lon="10.8351359"><ele>666.6666666666666</ele><time>2026-05-03T11:33:10.092Z</time></trkpt><trkpt lat="44.3477336" lon="10.8352448"><ele>667.3333333333333</ele><time>2026-05-03T11:33:11.091Z</time></trkpt><trkpt lat="44.3478974" lon="10.8353404"><ele>668.0</ele><time>2026-05-03T11:33:12.091Z</time></trkpt><trkpt lat="44.3480598" lon="10.8354336"><ele>668.0</ele><time>2026-05-03T11:33:13.091Z</time></trkpt><trkpt lat="44.3482222" lon="10.8355297"><ele>668.0</ele><time>2026-05-03T11:33:14.092Z</time></trkpt><trkpt lat="44.3483811" lon="10.8356274"><ele>668.0</ele><time>2026-05-03T11:33:15.091Z</time></trkpt><trkpt lat="44.3485378" lon="10.8357275"><ele>668.0</ele><time>2026-05-03T11:33:16.092Z</time></trkpt><trkpt lat="44.3486941" lon="10.8358278"><ele>668.0</ele><time>2026-05-03T11:33:17.092Z</time></trkpt><trkpt lat="44.3488548" lon="10.8359289"><ele>668.0</ele><time>2026-05-03T11:33:18.091Z</time></trkpt><trkpt lat="44.3490186" lon="10.836031"><ele>667.6666666666666</ele><time>2026-05-03T11:33:19.092Z</time></trkpt><trkpt lat="44.3491806" lon="10.8361281"><ele>667.3333333333334</ele><time>2026-05-03T11:33:20.091Z</time></trkpt><trkpt lat="44.3493343" lon="10.8362153"><ele>667.0</ele><time>2026-05-03T11:33:21.091Z</time></trkpt><trkpt lat="44.3494774" lon="10.8362896"><ele>667.0</ele><time>2026-05-03T11:33:22.091Z</time></trkpt><trkpt lat="44.3496087" lon="10.8363529"><ele>667.0</ele><time>2026-05-03T11:33:23.091Z</time></trkpt><trkpt lat="44.3497311" lon="10.8364056"><ele>667.0</ele><time>2026-05-03T11:33:24.091Z</time></trkpt><trkpt lat="44.3498484" lon="10.8364461"><ele>667.0</ele><time>2026-05-03T11:33:25.092Z</time></trkpt><trkpt lat="44.349963" lon="10.8364656"><ele>665.8</ele><time>2026-05-03T11:33:26.092Z</time></trkpt><trkpt lat="44.3500766" lon="10.8364577"><ele>664.6</ele><time>2026-05-03T11:33:27.091Z</time></trkpt><trkpt lat="44.3501854" lon="10.8364264"><ele>663.4</ele><time>2026-05-03T11:33:28.091Z</time></trkpt><trkpt lat="44.3502898" lon="10.8363836"><ele>662.1999999999999</ele><time>2026-05-03T11:33:29.091Z</time></trkpt><trkpt lat="44.3503901" lon="10.8363395"><ele>661.0</ele><time>2026-05-03T11:33:30.091Z</time></trkpt><trkpt lat="44.3504853" lon="10.8363036"><ele>662.0</ele><time>2026-05-03T11:33:31.091Z</time></trkpt><trkpt lat="44.350575" lon="10.8362801"><ele>663.0</ele><time>2026-05-03T11:33:32.092Z</time></trkpt><trkpt lat="44.3506673" lon="10.8362699"><ele>664.0</ele><time>2026-05-03T11:33:33.091Z</time></trkpt><trkpt lat="44.3507629" lon="10.8362782"><ele>665.0</ele><time>2026-05-03T11:33:34.092Z</time></trkpt><trkpt lat="44.3508535" lon="10.836303"><ele>666.0</ele><time>2026-05-03T11:33:35.091Z</time></trkpt><trkpt lat="44.3509432" lon="10.8363408"><ele>666.0</ele><time>2026-05-03T11:33:36.091Z</time></trkpt><trkpt lat="44.3510368" lon="10.8363886"><ele>666.0</ele><time>2026-05-03T11:33:37.092Z</time></trkpt><trkpt lat="44.3511459" lon="10.83644"><ele>666.0</ele><time>2026-05-03T11:33:38.091Z</time></trkpt><trkpt lat="44.3512788" lon="10.8364832"><ele>666.0</ele><time>2026-05-03T11:33:39.091Z</time></trkpt><trkpt lat="44.3514273" lon="10.8365204"><ele>666.6666666666666</ele><time>2026-05-03T11:33:40.092Z</time></trkpt><trkpt lat="44.3515872" lon="10.8365512"><ele>667.3333333333333</ele><time>2026-05-03T11:33:41.091Z</time></trkpt><trkpt lat="44.351747" lon="10.8365734"><ele>668.0</ele><time>2026-05-03T11:33:42.091Z</time></trkpt><trkpt lat="44.3519041" lon="10.8365891"><ele>668.0</ele><time>2026-05-03T11:33:43.091Z</time></trkpt><trkpt lat="44.3520604" lon="10.8366019"><ele>668.0</ele><time>2026-05-03T11:33:44.091Z</time></trkpt><trkpt lat="44.3522323" lon="10.8366193"><ele>668.0</ele><time>2026-05-03T11:33:45.091Z</time></trkpt><trkpt lat="44.3524158" lon="10.8366532"><ele>669.3333333333333</ele><time>2026-05-03T11:33:46.092Z</time></trkpt><trkpt lat="44.3526222" lon="10.8367011"><ele>670.6666666666666</ele><time>2026-05-03T11:33:47.122Z</time></trkpt><trkpt lat="44.3528345" lon="10.8367906"><ele>672.0</ele><time>2026-05-03T11:33:48.122Z</time></trkpt><trkpt lat="44.3530484" lon="10.8368977"><ele>677.3333333333334</ele><time>2026-05-03T11:33:49.122Z</time></trkpt><trkpt lat="44.3532648" lon="10.8370155"><ele>682.6666666666667</ele><time>2026-05-03T11:33:50.119Z</time></trkpt><trkpt lat="44.3534496" lon="10.8371296"><ele>688.0</ele><time>2026-05-03T11:33:51.118Z</time></trkpt><trkpt lat="44.3536116" lon="10.8372637"><ele>688.0</ele><time>2026-05-03T11:33:52.121Z</time></trkpt><trkpt lat="44.3537501" lon="10.8374164"><ele>688.0</ele><time>2026-05-03T11:33:53.119Z</time></trkpt><trkpt lat="44.353877" lon="10.837589"><ele>688.0</ele><time>2026-05-03T11:33:54.119Z</time></trkpt><trkpt lat="44.3540075" lon="10.8377507"><ele>688.3333333333334</ele><time>2026-05-03T11:33:55.121Z</time></trkpt><trkpt lat="44.3541151" lon="10.8379345"><ele>688.6666666666666</ele><time>2026-05-03T11:33:56.12Z</time></trkpt><trkpt lat="44.3541586" lon="10.8381674"><ele>689.0</ele><time>2026-05-03T11:33:57.12Z</time></trkpt><trkpt lat="44.354178" lon="10.8383958"><ele>692.5</ele><time>2026-05-03T11:33:58.121Z</time></trkpt><trkpt lat="44.3540384" lon="10.8387764"><ele>696.0</ele><time>2026-05-03T11:33:59.12Z</time></trkpt><trkpt lat="44.3540331" lon="10.8390242"><ele>696.0</ele><time>2026-05-03T11:34:00.12Z</time></trkpt><trkpt lat="44.3540647" lon="10.8392763"><ele>696.0</ele><time>2026-05-03T11:34:01.119Z</time></trkpt><trkpt lat="44.3541335" lon="10.8394977"><ele>696.0</ele><time>2026-05-03T11:34:02.122Z</time></trkpt><trkpt lat="44.3542478" lon="10.8396875"><ele>698.3333333333334</ele><time>2026-05-03T11:34:03.121Z</time></trkpt><trkpt lat="44.3543821" lon="10.8398459"><ele>700.6666666666667</ele><time>2026-05-03T11:34:04.118Z</time></trkpt><trkpt lat="44.3545427" lon="10.8399643"><ele>703.0</ele><time>2026-05-03T11:34:05.121Z</time></trkpt><trkpt lat="44.3547286" lon="10.8400682"><ele>706.3333333333334</ele><time>2026-05-03T11:34:06.12Z</time></trkpt><trkpt lat="44.3549125" lon="10.8401699"><ele>709.6666666666666</ele><time>2026-05-03T11:34:07.12Z</time></trkpt><trkpt lat="44.3551027" lon="10.840261"><ele>713.0</ele><time>2026-05-03T11:34:08.121Z</time></trkpt><trkpt lat="44.3552767" lon="10.8403521"><ele>713.0</ele><time>2026-05-03T11:34:09.119Z</time></trkpt><trkpt lat="44.3554488" lon="10.8404506"><ele>713.0</ele><time>2026-05-03T11:34:10.119Z</time></trkpt><trkpt lat="44.3556185" lon="10.8405597"><ele>713.0</ele><time>2026-05-03T11:34:11.12Z</time></trkpt><trkpt lat="44.3557873" lon="10.840682"><ele>712.6666666666666</ele><time>2026-05-03T11:34:12.119Z</time></trkpt><trkpt lat="44.355952" lon="10.8408151"><ele>712.3333333333334</ele><time>2026-05-03T11:34:13.117Z</time></trkpt><trkpt lat="44.3561117" lon="10.8409596"><ele>712.0</ele><time>2026-05-03T11:34:14.117Z</time></trkpt><trkpt lat="44.356255" lon="10.8411019"><ele>714.3333333333334</ele><time>2026-05-03T11:34:15.117Z</time></trkpt><trkpt lat="44.3563854" lon="10.8412485"><ele>716.6666666666666</ele><time>2026-05-03T11:34:16.121Z</time></trkpt><trkpt lat="44.3565176" lon="10.8413999"><ele>719.0</ele><time>2026-05-03T11:34:17.122Z</time></trkpt><trkpt lat="44.356663" lon="10.841545"><ele>719.0</ele><time>2026-05-03T11:34:18.119Z</time></trkpt><trkpt lat="44.3568126" lon="10.8416821"><ele>719.0</ele><time>2026-05-03T11:34:19.121Z</time></trkpt><trkpt lat="44.3569596" lon="10.8418047"><ele>719.0</ele><time>2026-05-03T11:34:20.119Z</time></trkpt><trkpt lat="44.3570977" lon="10.8419132"><ele>719.3333333333333</ele><time>2026-05-03T11:34:21.118Z</time></trkpt><trkpt lat="44.3572345" lon="10.8420026"><ele>719.6666666666666</ele><time>2026-05-03T11:34:22.117Z</time></trkpt><trkpt lat="44.3573854" lon="10.8420482"><ele>720.0</ele><time>2026-05-03T11:34:23.119Z</time></trkpt><trkpt lat="44.3575391" lon="10.8420502"><ele>720.0</ele><time>2026-05-03T11:34:24.119Z</time></trkpt><trkpt lat="44.3576938" lon="10.8419989"><ele>720.0</ele><time>2026-05-03T11:34:25.115Z</time></trkpt><trkpt lat="44.357832" lon="10.8418923"><ele>720.0</ele><time>2026-05-03T11:34:26.12Z</time></trkpt><trkpt lat="44.3579655" lon="10.8417503"><ele>721.0</ele><time>2026-05-03T11:34:27.12Z</time></trkpt><trkpt lat="44.3580921" lon="10.8415949"><ele>722.0</ele><time>2026-05-03T11:34:28.119Z</time></trkpt><trkpt lat="44.3582092" lon="10.8414449"><ele>723.0</ele><time>2026-05-03T11:34:29.119Z</time></trkpt><trkpt lat="44.3583257" lon="10.8412946"><ele>723.0</ele><time>2026-05-03T11:34:30.121Z</time></trkpt><trkpt lat="44.3584437" lon="10.841147"><ele>723.0</ele><time>2026-05-03T11:34:31.121Z</time></trkpt><trkpt lat="44.3585745" lon="10.841021"><ele>723.0</ele><time>2026-05-03T11:34:32.12Z</time></trkpt><trkpt lat="44.3587204" lon="10.8409233"><ele>721.0</ele><time>2026-05-03T11:34:33.118Z</time></trkpt><trkpt lat="44.3588782" lon="10.8408596"><ele>719.0</ele><time>2026-05-03T11:34:34.119Z</time></trkpt><trkpt lat="44.3590385" lon="10.8408319"><ele>717.0</ele><time>2026-05-03T11:34:35.12Z</time></trkpt><trkpt lat="44.3592024" lon="10.8408503"><ele>717.0</ele><time>2026-05-03T11:34:36.12Z</time></trkpt><trkpt lat="44.359363" lon="10.8409091"><ele>717.0</ele><time>2026-05-03T11:34:37.118Z</time></trkpt><trkpt lat="44.3595292" lon="10.8409716"><ele>717.0</ele><time>2026-05-03T11:34:38.122Z</time></trkpt><trkpt lat="44.3596963" lon="10.8410287"><ele>722.6666666666666</ele><time>2026-05-03T11:34:39.119Z</time></trkpt><trkpt lat="44.3598685" lon="10.8410852"><ele>728.3333333333333</ele><time>2026-05-03T11:34:40.117Z</time></trkpt><trkpt lat="44.360043" lon="10.8411427"><ele>734.0</ele><time>2026-05-03T11:34:41.119Z</time></trkpt><trkpt lat="44.3602331" lon="10.8412008"><ele>734.0</ele><time>2026-05-03T11:34:42.121Z</time></trkpt><trkpt lat="44.3604482" lon="10.8412552"><ele>734.0</ele><time>2026-05-03T11:34:43.119Z</time></trkpt><trkpt lat="44.3606645" lon="10.841307"><ele>734.0</ele><time>2026-05-03T11:34:44.121Z</time></trkpt><trkpt lat="44.3608583" lon="10.8413583"><ele>734.0</ele><time>2026-05-03T11:34:45.122Z</time></trkpt><trkpt lat="44.3610442" lon="10.8414094"><ele>734.0</ele><time>2026-05-03T11:34:46.12Z</time></trkpt><trkpt lat="44.3612157" lon="10.841452"><ele>734.0</ele><time>2026-05-03T11:34:47.119Z</time></trkpt><trkpt lat="44.3613784" lon="10.8414709"><ele>733.5</ele><time>2026-05-03T11:34:48.118Z</time></trkpt><trkpt lat="44.3615351" lon="10.8414534"><ele>733.0</ele><time>2026-05-03T11:34:49.118Z</time></trkpt><trkpt lat="44.3616465" lon="10.8414011"><ele>732.5</ele><time>2026-05-03T11:34:50.12Z</time></trkpt><trkpt lat="44.3617412" lon="10.841309"><ele>732.0</ele><time>2026-05-03T11:34:51.117Z</time></trkpt><trkpt lat="44.3618199" lon="10.8411478"><ele>731.0</ele><time>2026-05-03T11:34:52.116Z</time></trkpt><trkpt lat="44.3618881" lon="10.8409375"><ele>730.0</ele><time>2026-05-03T11:34:53.119Z</time></trkpt><trkpt lat="44.3619319" lon="10.8407248"><ele>729.0</ele><time>2026-05-03T11:34:54.12Z</time></trkpt><trkpt lat="44.361958" lon="10.8405028"><ele>729.0</ele><time>2026-05-03T11:34:55.121Z</time></trkpt><trkpt lat="44.3619797" lon="10.8402834"><ele>729.0</ele><time>2026-05-03T11:34:56.119Z</time></trkpt><trkpt lat="44.3620036" lon="10.8400676"><ele>729.0</ele><time>2026-05-03T11:34:57.118Z</time></trkpt><trkpt lat="44.3620468" lon="10.8398598"><ele>728.6666666666666</ele><time>2026-05-03T11:34:58.119Z</time></trkpt><trkpt lat="44.3621147" lon="10.8396588"><ele>728.3333333333333</ele><time>2026-05-03T11:34:59.118Z</time></trkpt><trkpt lat="44.3622053" lon="10.8394647"><ele>728.0</ele><time>2026-05-03T11:35:00.119Z</time></trkpt><trkpt lat="44.362318" lon="10.8392811"><ele>726.0</ele><time>2026-05-03T11:35:01.119Z</time></trkpt><trkpt lat="44.3624415" lon="10.8391158"><ele>724.0</ele><time>2026-05-03T11:35:02.12Z</time></trkpt><trkpt lat="44.3625633" lon="10.8389688"><ele>722.0</ele><time>2026-05-03T11:35:03.118Z</time></trkpt><trkpt lat="44.3626793" lon="10.8388189"><ele>722.0</ele><time>2026-05-03T11:35:04.119Z</time></trkpt><trkpt lat="44.3627959" lon="10.8386724"><ele>722.0</ele><time>2026-05-03T11:35:05.118Z</time></trkpt><trkpt lat="44.3629151" lon="10.8385183"><ele>722.0</ele><time>2026-05-03T11:35:06.119Z</time></trkpt><trkpt lat="44.3630337" lon="10.8383519"><ele>722.0</ele><time>2026-05-03T11:35:07.12Z</time></trkpt><trkpt lat="44.3631529" lon="10.8381768"><ele>722.0</ele><time>2026-05-03T11:35:08.122Z</time></trkpt><trkpt lat="44.3632715" lon="10.8379959"><ele>722.0</ele><time>2026-05-03T11:35:09.121Z</time></trkpt><trkpt lat="44.363386" lon="10.8378142"><ele>720.6666666666666</ele><time>2026-05-03T11:35:10.122Z</time></trkpt><trkpt lat="44.3635123" lon="10.8376004"><ele>719.3333333333334</ele><time>2026-05-03T11:35:11.12Z</time></trkpt><trkpt lat="44.3636479" lon="10.8373747"><ele>718.0</ele><time>2026-05-03T11:35:12.121Z</time></trkpt><trkpt lat="44.3637899" lon="10.8371379"><ele>718.0</ele><time>2026-05-03T11:35:13.118Z</time></trkpt><trkpt lat="44.3639117" lon="10.8369231"><ele>718.0</ele><time>2026-05-03T11:35:14.118Z</time></trkpt><trkpt lat="44.3640166" lon="10.8367081"><ele>718.0</ele><time>2026-05-03T11:35:15.12Z</time></trkpt><trkpt lat="44.36411" lon="10.8364609"><ele>717.5</ele><time>2026-05-03T11:35:16.121Z</time></trkpt><trkpt lat="44.364197" lon="10.8361746"><ele>717.0</ele><time>2026-05-03T11:35:17.117Z</time></trkpt><trkpt lat="44.3642825" lon="10.8358696"><ele>716.0</ele><time>2026-05-03T11:35:18.12Z</time></trkpt><trkpt lat="44.3643573" lon="10.8355947"><ele>715.0</ele><time>2026-05-03T11:35:19.12Z</time></trkpt><trkpt lat="44.3644255" lon="10.8353448"><ele>714.0</ele><time>2026-05-03T11:35:20.118Z</time></trkpt><trkpt lat="44.3645103" lon="10.8351284"><ele>713.6666666666666</ele><time>2026-05-03T11:35:21.12Z</time></trkpt><trkpt lat="44.3646246" lon="10.8349466"><ele>713.3333333333333</ele><time>2026-05-03T11:35:22.119Z</time></trkpt><trkpt lat="44.3647616" lon="10.8348079"><ele>713.0</ele><time>2026-05-03T11:35:23.119Z</time></trkpt><trkpt lat="44.3649158" lon="10.8347255"><ele>712.0</ele><time>2026-05-03T11:35:24.121Z</time></trkpt><trkpt lat="44.3650896" lon="10.8346932"><ele>711.0</ele><time>2026-05-03T11:35:25.12Z</time></trkpt><trkpt lat="44.3652788" lon="10.8346981"><ele>710.0</ele><time>2026-05-03T11:35:26.119Z</time></trkpt><trkpt lat="44.3654804" lon="10.8347222"><ele>709.6666666666666</ele><time>2026-05-03T11:35:27.117Z</time></trkpt><trkpt lat="44.3656905" lon="10.8347503"><ele>709.3333333333334</ele><time>2026-05-03T11:35:28.117Z</time></trkpt><trkpt lat="44.3659062" lon="10.8347697"><ele>709.0</ele><time>2026-05-03T11:35:29.121Z</time></trkpt><trkpt lat="44.3661263" lon="10.8347922"><ele>709.0</ele><time>2026-05-03T11:35:30.118Z</time></trkpt><trkpt lat="44.366352" lon="10.8348165"><ele>709.0</ele><time>2026-05-03T11:35:31.118Z</time></trkpt><trkpt lat="44.3665821" lon="10.83484"><ele>707.0</ele><time>2026-05-03T11:35:32.119Z</time></trkpt><trkpt lat="44.3668153" lon="10.8348656"><ele>705.0</ele><time>2026-05-03T11:35:33.12Z</time></trkpt><trkpt lat="44.3670516" lon="10.8348921"><ele>704.5</ele><time>2026-05-03T11:35:34.118Z</time></trkpt><trkpt lat="44.3672866" lon="10.8349161"><ele>704.0</ele><time>2026-05-03T11:35:35.121Z</time></trkpt><trkpt lat="44.367522" lon="10.8349392"><ele>704.0</ele><time>2026-05-03T11:35:36.12Z</time></trkpt><trkpt lat="44.3677581" lon="10.8349636"><ele>704.0</ele><time>2026-05-03T11:35:37.117Z</time></trkpt><trkpt lat="44.3679863" lon="10.8349875"><ele>703.6666666666666</ele><time>2026-05-03T11:35:38.119Z</time></trkpt><trkpt lat="44.3682031" lon="10.8350093"><ele>703.3333333333334</ele><time>2026-05-03T11:35:39.118Z</time></trkpt><trkpt lat="44.3684139" lon="10.8350302"><ele>703.0</ele><time>2026-05-03T11:35:40.12Z</time></trkpt><trkpt lat="44.3686242" lon="10.8350525"><ele>703.0</ele><time>2026-05-03T11:35:41.119Z</time></trkpt><trkpt lat="44.3688308" lon="10.8350746"><ele>703.0</ele><time>2026-05-03T11:35:42.118Z</time></trkpt><trkpt lat="44.3690257" lon="10.8350932"><ele>703.0</ele><time>2026-05-03T11:35:43.119Z</time></trkpt><trkpt lat="44.3692151" lon="10.8351103"><ele>703.3333333333334</ele><time>2026-05-03T11:35:44.12Z</time></trkpt><trkpt lat="44.3694042" lon="10.8351306"><ele>703.6666666666666</ele><time>2026-05-03T11:35:45.118Z</time></trkpt><trkpt lat="44.3695856" lon="10.8351512"><ele>704.0</ele><time>2026-05-03T11:35:46.117Z</time></trkpt><trkpt lat="44.3697572" lon="10.8351705"><ele>704.3333333333333</ele><time>2026-05-03T11:35:47.12Z</time></trkpt><trkpt lat="44.3699218" lon="10.8351867"><ele>704.6666666666666</ele><time>2026-05-03T11:35:48.119Z</time></trkpt><trkpt lat="44.3700747" lon="10.835197"><ele>705.0</ele><time>2026-05-03T11:35:49.118Z</time></trkpt><trkpt lat="44.3702153" lon="10.8351994"><ele>705.0</ele><time>2026-05-03T11:35:50.121Z</time></trkpt><trkpt lat="44.3703479" lon="10.8351947"><ele>705.0</ele><time>2026-05-03T11:35:51.12Z</time></trkpt><trkpt lat="44.370475" lon="10.8351836"><ele>705.0</ele><time>2026-05-03T11:35:52.119Z</time></trkpt><trkpt lat="44.3705977" lon="10.8351678"><ele>705.0</ele><time>2026-05-03T11:35:53.119Z</time></trkpt><trkpt lat="44.370723" lon="10.8351524"><ele>705.0</ele><time>2026-05-03T11:35:54.117Z</time></trkpt><trkpt lat="44.3708493" lon="10.8351343"><ele>705.0</ele><time>2026-05-03T11:35:55.118Z</time></trkpt><trkpt lat="44.3709762" lon="10.8351095"><ele>705.0</ele><time>2026-05-03T11:35:56.12Z</time></trkpt><trkpt lat="44.3711007" lon="10.8350612"><ele>705.0</ele><time>2026-05-03T11:35:57.119Z</time></trkpt><trkpt lat="44.3712161" lon="10.834981"><ele>705.0</ele><time>2026-05-03T11:35:58.12Z</time></trkpt><trkpt lat="44.3713175" lon="10.8348846"><ele>705.0</ele><time>2026-05-03T11:35:59.122Z</time></trkpt><trkpt lat="44.3714072" lon="10.8347845"><ele>705.0</ele><time>2026-05-03T11:36:00.121Z</time></trkpt><trkpt lat="44.3714959" lon="10.8346863"><ele>705.0</ele><time>2026-05-03T11:36:01.116Z</time></trkpt><trkpt lat="44.3715889" lon="10.8345815"><ele>705.6666666666666</ele><time>2026-05-03T11:36:02.122Z</time></trkpt><trkpt lat="44.3716996" lon="10.8344578"><ele>706.3333333333333</ele><time>2026-05-03T11:36:03.12Z</time></trkpt><trkpt lat="44.3718311" lon="10.8343328"><ele>707.0</ele><time>2026-05-03T11:36:04.118Z</time></trkpt><trkpt lat="44.3719829" lon="10.8342013"><ele>707.0</ele><time>2026-05-03T11:36:05.118Z</time></trkpt><trkpt lat="44.3721541" lon="10.8340712"><ele>707.0</ele><time>2026-05-03T11:36:06.118Z</time></trkpt><trkpt lat="44.3723321" lon="10.8339443"><ele>707.0</ele><time>2026-05-03T11:36:07.116Z</time></trkpt><trkpt lat="44.3725085" lon="10.8338133"><ele>707.0</ele><time>2026-05-03T11:36:08.12Z</time></trkpt><trkpt lat="44.3726767" lon="10.83367"><ele>707.0</ele><time>2026-05-03T11:36:09.119Z</time></trkpt><trkpt lat="44.3728354" lon="10.8335076"><ele>707.0</ele><time>2026-05-03T11:36:10.119Z</time></trkpt><trkpt lat="44.3729894" lon="10.833329"><ele>707.6666666666666</ele><time>2026-05-03T11:36:11.119Z</time></trkpt><trkpt lat="44.3731415" lon="10.8331281"><ele>708.3333333333334</ele><time>2026-05-03T11:36:12.117Z</time></trkpt><trkpt lat="44.3732909" lon="10.8329077"><ele>709.0</ele><time>2026-05-03T11:36:13.118Z</time></trkpt><trkpt lat="44.3734374" lon="10.8326695"><ele>708.0</ele><time>2026-05-03T11:36:14.118Z</time></trkpt><trkpt lat="44.3735771" lon="10.8324138"><ele>707.0</ele><time>2026-05-03T11:36:15.121Z</time></trkpt><trkpt lat="44.3737109" lon="10.8321483"><ele>707.0</ele><time>2026-05-03T11:36:16.121Z</time></trkpt><trkpt lat="44.3738404" lon="10.8318777"><ele>707.0</ele><time>2026-05-03T11:36:17.118Z</time></trkpt><trkpt lat="44.3739705" lon="10.8316086"><ele>707.5</ele><time>2026-05-03T11:36:18.119Z</time></trkpt><trkpt lat="44.3741007" lon="10.8313412"><ele>708.0</ele><time>2026-05-03T11:36:19.119Z</time></trkpt><trkpt lat="44.3742283" lon="10.8310689"><ele>709.5</ele><time>2026-05-03T11:36:20.121Z</time></trkpt><trkpt lat="44.3743529" lon="10.8307813"><ele>711.0</ele><time>2026-05-03T11:36:21.119Z</time></trkpt><trkpt lat="44.3744754" lon="10.830482"><ele>711.0</ele><time>2026-05-03T11:36:22.119Z</time></trkpt><trkpt lat="44.374585" lon="10.8302087"><ele>711.0</ele><time>2026-05-03T11:36:23.119Z</time></trkpt><trkpt lat="44.3746753" lon="10.8299815"><ele>711.0</ele><time>2026-05-03T11:36:24.119Z</time></trkpt><trkpt lat="44.3747462" lon="10.8297993"><ele>710.8</ele><time>2026-05-03T11:36:25.12Z</time></trkpt><trkpt lat="44.374813" lon="10.8296346"><ele>710.5999999999999</ele><time>2026-05-03T11:36:26.118Z</time></trkpt><trkpt lat="44.3748709" lon="10.8295043"><ele>710.4</ele><time>2026-05-03T11:36:27.121Z</time></trkpt><trkpt lat="44.3749258" lon="10.829389"><ele>710.2</ele><time>2026-05-03T11:36:28.121Z</time></trkpt><trkpt lat="44.3749839" lon="10.8292931"><ele>710.0</ele><time>2026-05-03T11:36:29.117Z</time></trkpt><trkpt lat="44.3750519" lon="10.8292206"><ele>710.5</ele><time>2026-05-03T11:36:30.12Z</time></trkpt><trkpt lat="44.3751266" lon="10.8291654"><ele>711.0</ele><time>2026-05-03T11:36:31.118Z</time></trkpt><trkpt lat="44.3751986" lon="10.8290974"><ele>711.5</ele><time>2026-05-03T11:36:32.119Z</time></trkpt><trkpt lat="44.3752424" lon="10.8289944"><ele>712.0</ele><time>2026-05-03T11:36:33.119Z</time></trkpt><trkpt lat="44.3752573" lon="10.8288813"><ele>712.5</ele><time>2026-05-03T11:36:34.118Z</time></trkpt><trkpt lat="44.3752546" lon="10.8287503"><ele>713.0</ele><time>2026-05-03T11:36:35.119Z</time></trkpt><trkpt lat="44.3752604" lon="10.8286088"><ele>714.0</ele><time>2026-05-03T11:36:36.118Z</time></trkpt><trkpt lat="44.3752872" lon="10.8284622"><ele>715.0</ele><time>2026-05-03T11:36:37.119Z</time></trkpt><trkpt lat="44.3753328" lon="10.8283027"><ele>716.0</ele><time>2026-05-03T11:36:38.122Z</time></trkpt><trkpt lat="44.375395" lon="10.8281165"><ele>717.0</ele><time>2026-05-03T11:36:39.12Z</time></trkpt><trkpt lat="44.3754754" lon="10.8279061"><ele>717.6666666666666</ele><time>2026-05-03T11:36:40.121Z</time></trkpt><trkpt lat="44.3755688" lon="10.8276883"><ele>718.3333333333333</ele><time>2026-05-03T11:36:41.12Z</time></trkpt><trkpt lat="44.3756648" lon="10.8274652"><ele>719.0</ele><time>2026-05-03T11:36:42.117Z</time></trkpt><trkpt lat="44.3757533" lon="10.8272546"><ele>719.0</ele><time>2026-05-03T11:36:43.119Z</time></trkpt><trkpt lat="44.3758464" lon="10.8270548"><ele>719.0</ele><time>2026-05-03T11:36:44.119Z</time></trkpt><trkpt lat="44.375951" lon="10.8268736"><ele>719.0</ele><time>2026-05-03T11:36:45.121Z</time></trkpt><trkpt lat="44.3760646" lon="10.8267025"><ele>720.6666666666666</ele><time>2026-05-03T11:36:46.119Z</time></trkpt><trkpt lat="44.3761824" lon="10.8265328"><ele>722.3333333333334</ele><time>2026-05-03T11:36:47.12Z</time></trkpt><trkpt lat="44.3763012" lon="10.8263591"><ele>724.0</ele><time>2026-05-03T11:36:48.118Z</time></trkpt><trkpt lat="44.3764242" lon="10.8261869"><ele>724.0</ele><time>2026-05-03T11:36:49.121Z</time></trkpt><trkpt lat="44.3765501" lon="10.8260169"><ele>724.0</ele><time>2026-05-03T11:36:50.118Z</time></trkpt><trkpt lat="44.3766798" lon="10.8258427"><ele>724.0</ele><time>2026-05-03T11:36:51.121Z</time></trkpt><trkpt lat="44.3768135" lon="10.8256636"><ele>725.0</ele><time>2026-05-03T11:36:52.118Z</time></trkpt><trkpt lat="44.3769547" lon="10.8254753"><ele>726.0</ele><time>2026-05-03T11:36:53.117Z</time></trkpt><trkpt lat="44.3770998" lon="10.8252787"><ele>727.0</ele><time>2026-05-03T11:36:54.119Z</time></trkpt><trkpt lat="44.3772512" lon="10.8250818"><ele>727.0</ele><time>2026-05-03T11:36:55.118Z</time></trkpt><trkpt lat="44.3774082" lon="10.8248874"><ele>727.0</ele><time>2026-05-03T11:36:56.121Z</time></trkpt><trkpt lat="44.3775709" lon="10.8246978"><ele>727.0</ele><time>2026-05-03T11:36:57.119Z</time></trkpt><trkpt lat="44.3777393" lon="10.8245151"><ele>727.0</ele><time>2026-05-03T11:36:58.121Z</time></trkpt><trkpt lat="44.3779103" lon="10.8243417"><ele>727.0</ele><time>2026-05-03T11:36:59.122Z</time></trkpt><trkpt lat="44.378085" lon="10.8241692"><ele>727.0</ele><time>2026-05-03T11:37:00.118Z</time></trkpt><trkpt lat="44.3782636" lon="10.8239945"><ele>729.0</ele><time>2026-05-03T11:37:01.117Z</time></trkpt><trkpt lat="44.3784404" lon="10.8238204"><ele>731.0</ele><time>2026-05-03T11:37:02.118Z</time></trkpt><trkpt lat="44.3786171" lon="10.8236447"><ele>733.0</ele><time>2026-05-03T11:37:03.12Z</time></trkpt><trkpt lat="44.3787932" lon="10.8234661"><ele>736.0</ele><time>2026-05-03T11:37:04.119Z</time></trkpt><trkpt lat="44.3789725" lon="10.8232885"><ele>739.0</ele><time>2026-05-03T11:37:05.121Z</time></trkpt><trkpt lat="44.3791549" lon="10.8231091"><ele>742.0</ele><time>2026-05-03T11:37:06.12Z</time></trkpt><trkpt lat="44.3793373" lon="10.8229285"><ele>742.0</ele><time>2026-05-03T11:37:07.118Z</time></trkpt><trkpt lat="44.3795219" lon="10.8227434"><ele>742.0</ele><time>2026-05-03T11:37:08.12Z</time></trkpt><trkpt lat="44.3797063" lon="10.822555"><ele>745.0</ele><time>2026-05-03T11:37:09.12Z</time></trkpt><trkpt lat="44.3798886" lon="10.8223667"><ele>748.0</ele><time>2026-05-03T11:37:10.121Z</time></trkpt><trkpt lat="44.3800688" lon="10.8221775"><ele>748.0</ele><time>2026-05-03T11:37:11.118Z</time></trkpt><trkpt lat="44.3802487" lon="10.8219887"><ele>748.0</ele><time>2026-05-03T11:37:12.12Z</time></trkpt><trkpt lat="44.3804293" lon="10.8217998"><ele>747.6666666666667</ele><time>2026-05-03T11:37:13.118Z</time></trkpt><trkpt lat="44.3806099" lon="10.8216136"><ele>747.3333333333334</ele><time>2026-05-03T11:37:14.118Z</time></trkpt><trkpt lat="44.3807914" lon="10.821432"><ele>747.0</ele><time>2026-05-03T11:37:15.118Z</time></trkpt><trkpt lat="44.3809731" lon="10.8212625"><ele>747.0</ele><time>2026-05-03T11:37:16.12Z</time></trkpt><trkpt lat="44.3811492" lon="10.821115"><ele>747.0</ele><time>2026-05-03T11:37:17.119Z</time></trkpt><trkpt lat="44.3813263" lon="10.8209838"><ele>747.0</ele><time>2026-05-03T11:37:18.118Z</time></trkpt><trkpt lat="44.3815075" lon="10.8208647"><ele>747.3333333333334</ele><time>2026-05-03T11:37:19.118Z</time></trkpt><trkpt lat="44.3816934" lon="10.8207572"><ele>747.6666666666667</ele><time>2026-05-03T11:37:20.121Z</time></trkpt><trkpt lat="44.381887" lon="10.8206484"><ele>748.0</ele><time>2026-05-03T11:37:21.12Z</time></trkpt><trkpt lat="44.3820874" lon="10.8205422"><ele>746.3333333333334</ele><time>2026-05-03T11:37:22.119Z</time></trkpt><trkpt lat="44.382279" lon="10.8204391"><ele>744.6666666666666</ele><time>2026-05-03T11:37:23.118Z</time></trkpt><trkpt lat="44.3824692" lon="10.8203341"><ele>743.0</ele><time>2026-05-03T11:37:24.116Z</time></trkpt><trkpt lat="44.3826576" lon="10.8202317"><ele>744.3333333333333</ele><time>2026-05-03T11:37:25.117Z</time></trkpt><trkpt lat="44.382844" lon="10.820134"><ele>745.6666666666666</ele><time>2026-05-03T11:37:26.117Z</time></trkpt><trkpt lat="44.3830303" lon="10.8200351"><ele>747.0</ele><time>2026-05-03T11:37:27.12Z</time></trkpt><trkpt lat="44.3832175" lon="10.8199364"><ele>747.0</ele><time>2026-05-03T11:37:28.119Z</time></trkpt><trkpt lat="44.3834067" lon="10.8198369"><ele>747.0</ele><time>2026-05-03T11:37:29.119Z</time></trkpt><trkpt lat="44.3835954" lon="10.8197345"><ele>747.0</ele><time>2026-05-03T11:37:30.12Z</time></trkpt><trkpt lat="44.3837778" lon="10.8196363"><ele>747.6666666666666</ele><time>2026-05-03T11:37:31.117Z</time></trkpt><trkpt lat="44.383959" lon="10.81954"><ele>748.3333333333333</ele><time>2026-05-03T11:37:32.118Z</time></trkpt><trkpt lat="44.3841425" lon="10.8194513"><ele>749.0</ele><time>2026-05-03T11:37:33.119Z</time></trkpt><trkpt lat="44.3843283" lon="10.819371"><ele>749.3333333333333</ele><time>2026-05-03T11:37:34.12Z</time></trkpt><trkpt lat="44.3845148" lon="10.8192948"><ele>749.6666666666666</ele><time>2026-05-03T11:37:35.12Z</time></trkpt><trkpt lat="44.3847017" lon="10.8192185"><ele>750.0</ele><time>2026-05-03T11:37:36.118Z</time></trkpt><trkpt lat="44.3848847" lon="10.8191401"><ele>750.0</ele><time>2026-05-03T11:37:37.119Z</time></trkpt><trkpt lat="44.3850595" lon="10.8190601"><ele>750.0</ele><time>2026-05-03T11:37:38.119Z</time></trkpt><trkpt lat="44.3852369" lon="10.8189807"><ele>750.0</ele><time>2026-05-03T11:37:39.118Z</time></trkpt><trkpt lat="44.3854174" lon="10.8189021"><ele>749.0</ele><time>2026-05-03T11:37:40.12Z</time></trkpt><trkpt lat="44.3855959" lon="10.8188262"><ele>748.0</ele><time>2026-05-03T11:37:41.119Z</time></trkpt><trkpt lat="44.3857701" lon="10.8187524"><ele>747.0</ele><time>2026-05-03T11:37:42.121Z</time></trkpt><trkpt lat="44.3859521" lon="10.8186714"><ele>747.0</ele><time>2026-05-03T11:37:43.12Z</time></trkpt><trkpt lat="44.3861452" lon="10.818588"><ele>747.0</ele><time>2026-05-03T11:37:44.118Z</time></trkpt><trkpt lat="44.3863503" lon="10.8185035"><ele>747.0</ele><time>2026-05-03T11:37:45.12Z</time></trkpt><trkpt lat="44.3865654" lon="10.8184228"><ele>745.0</ele><time>2026-05-03T11:37:46.12Z</time></trkpt><trkpt lat="44.3867893" lon="10.8183388"><ele>743.0</ele><time>2026-05-03T11:37:47.122Z</time></trkpt><trkpt lat="44.387019" lon="10.8182484"><ele>738.0</ele><time>2026-05-03T11:37:48.121Z</time></trkpt><trkpt lat="44.3872419" lon="10.8181592"><ele>733.0</ele><time>2026-05-03T11:37:49.12Z</time></trkpt><trkpt lat="44.3874614" lon="10.81807"><ele>733.0</ele><time>2026-05-03T11:37:50.119Z</time></trkpt><trkpt lat="44.387678" lon="10.8179841"><ele>733.0</ele><time>2026-05-03T11:37:51.118Z</time></trkpt><trkpt lat="44.3878915" lon="10.8179075"><ele>733.0</ele><time>2026-05-03T11:37:52.12Z</time></trkpt><trkpt lat="44.3881045" lon="10.8178486"><ele>729.3333333333334</ele><time>2026-05-03T11:37:53.119Z</time></trkpt><trkpt lat="44.3883166" lon="10.817814"><ele>725.6666666666666</ele><time>2026-05-03T11:37:54.118Z</time></trkpt><trkpt lat="44.3885283" lon="10.8178002"><ele>722.0</ele><time>2026-05-03T11:37:55.119Z</time></trkpt><trkpt lat="44.3887396" lon="10.8178079"><ele>721.6666666666666</ele><time>2026-05-03T11:37:56.122Z</time></trkpt><trkpt lat="44.3889443" lon="10.817838"><ele>721.3333333333334</ele><time>2026-05-03T11:37:57.121Z</time></trkpt><trkpt lat="44.3891423" lon="10.817892"><ele>721.0</ele><time>2026-05-03T11:37:58.122Z</time></trkpt><trkpt lat="44.3893357" lon="10.8179694"><ele>721.0</ele><time>2026-05-03T11:37:59.118Z</time></trkpt><trkpt lat="44.3895367" lon="10.8180686"><ele>721.0</ele><time>2026-05-03T11:38:00.12Z</time></trkpt><trkpt lat="44.3897486" lon="10.8181783"><ele>721.0</ele><time>2026-05-03T11:38:01.12Z</time></trkpt><trkpt lat="44.3899765" lon="10.8182929"><ele>719.5</ele><time>2026-05-03T11:38:02.119Z</time></trkpt><trkpt lat="44.3902147" lon="10.8184172"><ele>718.0</ele><time>2026-05-03T11:38:03.119Z</time></trkpt><trkpt lat="44.3904639" lon="10.8185516"><ele>715.0</ele><time>2026-05-03T11:38:04.122Z</time></trkpt><trkpt lat="44.3907254" lon="10.8186939"><ele>712.0</ele><time>2026-05-03T11:38:05.12Z</time></trkpt><trkpt lat="44.3910005" lon="10.818842"><ele>712.0</ele><time>2026-05-03T11:38:06.119Z</time></trkpt><trkpt lat="44.3912848" lon="10.8189941"><ele>712.0</ele><time>2026-05-03T11:38:07.12Z</time></trkpt><trkpt lat="44.3915768" lon="10.8191514"><ele>711.0</ele><time>2026-05-03T11:38:08.12Z</time></trkpt><trkpt lat="44.3918714" lon="10.8193139"><ele>710.0</ele><time>2026-05-03T11:38:09.121Z</time></trkpt><trkpt lat="44.3921653" lon="10.8194817"><ele>707.0</ele><time>2026-05-03T11:38:10.12Z</time></trkpt><trkpt lat="44.392458" lon="10.8196495"><ele>704.0</ele><time>2026-05-03T11:38:11.12Z</time></trkpt><trkpt lat="44.3927476" lon="10.8198161"><ele>704.0</ele><time>2026-05-03T11:38:12.12Z</time></trkpt><trkpt lat="44.3930326" lon="10.8199791"><ele>704.0</ele><time>2026-05-03T11:38:13.12Z</time></trkpt><trkpt lat="44.3933159" lon="10.8201365"><ele>702.0</ele><time>2026-05-03T11:38:14.118Z</time></trkpt><trkpt lat="44.3935971" lon="10.8202898"><ele>700.0</ele><time>2026-05-03T11:38:15.121Z</time></trkpt><trkpt lat="44.3938762" lon="10.8204406"><ele>699.5</ele><time>2026-05-03T11:38:16.119Z</time></trkpt><trkpt lat="44.3941538" lon="10.820588"><ele>699.0</ele><time>2026-05-03T11:38:17.118Z</time></trkpt><trkpt lat="44.39443" lon="10.8207333"><ele>699.5</ele><time>2026-05-03T11:38:18.119Z</time></trkpt><trkpt lat="44.3947014" lon="10.820872"><ele>700.0</ele><time>2026-05-03T11:38:19.118Z</time></trkpt><trkpt lat="44.3949634" lon="10.821"><ele>695.5</ele><time>2026-05-03T11:38:20.118Z</time></trkpt><trkpt lat="44.395226" lon="10.82112"><ele>691.0</ele><time>2026-05-03T11:38:21.12Z</time></trkpt><trkpt lat="44.395489" lon="10.8212244"><ele>689.0</ele><time>2026-05-03T11:38:22.119Z</time></trkpt><trkpt lat="44.3957547" lon="10.8213111"><ele>687.0</ele><time>2026-05-03T11:38:23.118Z</time></trkpt><trkpt lat="44.3960232" lon="10.8213815"><ele>687.0</ele><time>2026-05-03T11:38:24.121Z</time></trkpt><trkpt lat="44.3962923" lon="10.8214394"><ele>687.0</ele><time>2026-05-03T11:38:25.119Z</time></trkpt><trkpt lat="44.3965553" lon="10.8214858"><ele>684.0</ele><time>2026-05-03T11:38:26.12Z</time></trkpt><trkpt lat="44.3968109" lon="10.821513"><ele>681.0</ele><time>2026-05-03T11:38:27.118Z</time></trkpt><trkpt lat="44.3970566" lon="10.8215276"><ele>680.0</ele><time>2026-05-03T11:38:28.119Z</time></trkpt><trkpt lat="44.3972935" lon="10.8215293"><ele>679.0</ele><time>2026-05-03T11:38:29.119Z</time></trkpt><trkpt lat="44.3975287" lon="10.8215173"><ele>679.0</ele><time>2026-05-03T11:38:30.121Z</time></trkpt><trkpt lat="44.3977675" lon="10.8214911"><ele>679.0</ele><time>2026-05-03T11:38:31.12Z</time></trkpt><trkpt lat="44.398007" lon="10.8214523"><ele>676.5</ele><time>2026-05-03T11:38:32.12Z</time></trkpt><trkpt lat="44.3982469" lon="10.8214046"><ele>674.0</ele><time>2026-05-03T11:38:33.119Z</time></trkpt><trkpt lat="44.3984799" lon="10.8213522"><ele>674.0</ele><time>2026-05-03T11:38:34.118Z</time></trkpt><trkpt lat="44.3987165" lon="10.8212981"><ele>674.0</ele><time>2026-05-03T11:38:35.12Z</time></trkpt><trkpt lat="44.398955" lon="10.8212467"><ele>670.5</ele><time>2026-05-03T11:38:36.12Z</time></trkpt><trkpt lat="44.3991948" lon="10.8212054"><ele>667.0</ele><time>2026-05-03T11:38:37.118Z</time></trkpt><trkpt lat="44.3994338" lon="10.8211767"><ele>667.0</ele><time>2026-05-03T11:38:38.12Z</time></trkpt><trkpt lat="44.3996666" lon="10.8211645"><ele>667.0</ele><time>2026-05-03T11:38:39.12Z</time></trkpt><trkpt lat="44.3998952" lon="10.821177"><ele>662.5</ele><time>2026-05-03T11:38:40.121Z</time></trkpt><trkpt lat="44.4001247" lon="10.8212108"><ele>658.0</ele><time>2026-05-03T11:38:41.12Z</time></trkpt><trkpt lat="44.4003527" lon="10.821271"><ele>654.0</ele><time>2026-05-03T11:38:42.118Z</time></trkpt><trkpt lat="44.400579" lon="10.821355"><ele>650.0</ele><time>2026-05-03T11:38:43.12Z</time></trkpt><trkpt lat="44.4008034" lon="10.821458"><ele>650.0</ele><time>2026-05-03T11:38:44.119Z</time></trkpt><trkpt lat="44.401028" lon="10.8215745"><ele>650.0</ele><time>2026-05-03T11:38:45.118Z</time></trkpt><trkpt lat="44.4012545" lon="10.8216945"><ele>649.5</ele><time>2026-05-03T11:38:46.119Z</time></trkpt><trkpt lat="44.4014848" lon="10.8218141"><ele>649.0</ele><time>2026-05-03T11:38:47.118Z</time></trkpt><trkpt lat="44.4017166" lon="10.8219378"><ele>645.5</ele><time>2026-05-03T11:38:48.119Z</time></trkpt><trkpt lat="44.4019499" lon="10.8220647"><ele>642.0</ele><time>2026-05-03T11:38:49.119Z</time></trkpt><trkpt lat="44.4021861" lon="10.8221926"><ele>641.0</ele><time>2026-05-03T11:38:50.12Z</time></trkpt><trkpt lat="44.4024249" lon="10.8223198"><ele>640.0</ele><time>2026-05-03T11:38:51.122Z</time></trkpt><trkpt lat="44.4026662" lon="10.8224464"><ele>640.0</ele><time>2026-05-03T11:38:52.121Z</time></trkpt><trkpt lat="44.4029074" lon="10.8225725"><ele>640.0</ele><time>2026-05-03T11:38:53.119Z</time></trkpt><trkpt lat="44.4031482" lon="10.8226992"><ele>627.5</ele><time>2026-05-03T11:38:54.118Z</time></trkpt><trkpt lat="44.4033878" lon="10.8228259"><ele>615.0</ele><time>2026-05-03T11:38:55.12Z</time></trkpt><trkpt lat="44.4036262" lon="10.8229538"><ele>614.0</ele><time>2026-05-03T11:38:56.118Z</time></trkpt><trkpt lat="44.4038625" lon="10.8230812"><ele>613.0</ele><time>2026-05-03T11:38:57.119Z</time></trkpt><trkpt lat="44.4040933" lon="10.8232028"><ele>613.0</ele><time>2026-05-03T11:38:58.118Z</time></trkpt><trkpt lat="44.4043083" lon="10.8233201"><ele>613.0</ele><time>2026-05-03T11:38:59.12Z</time></trkpt><trkpt lat="44.4045112" lon="10.8234468"><ele>618.0</ele><time>2026-05-03T11:39:00.118Z</time></trkpt><trkpt lat="44.4046967" lon="10.8235921"><ele>623.0</ele><time>2026-05-03T11:39:01.118Z</time></trkpt><trkpt lat="44.404866" lon="10.8237602"><ele>628.0</ele><time>2026-05-03T11:39:02.118Z</time></trkpt><trkpt lat="44.4050266" lon="10.8239508"><ele>628.0</ele><time>2026-05-03T11:39:03.121Z</time></trkpt><trkpt lat="44.4051734" lon="10.824164"><ele>628.0</ele><time>2026-05-03T11:39:04.122Z</time></trkpt><trkpt lat="44.4053024" lon="10.8244002"><ele>628.0</ele><time>2026-05-03T11:39:05.121Z</time></trkpt><trkpt lat="44.4054144" lon="10.824658"><ele>632.3333333333334</ele><time>2026-05-03T11:39:06.117Z</time></trkpt><trkpt lat="44.4055044" lon="10.8249374"><ele>636.6666666666666</ele><time>2026-05-03T11:39:07.119Z</time></trkpt><trkpt lat="44.4055763" lon="10.8252364"><ele>641.0</ele><time>2026-05-03T11:39:08.119Z</time></trkpt><trkpt lat="44.4056361" lon="10.8255524"><ele>641.0</ele><time>2026-05-03T11:39:09.119Z</time></trkpt><trkpt lat="44.4056839" lon="10.8258769"><ele>641.0</ele><time>2026-05-03T11:39:10.12Z</time></trkpt><trkpt lat="44.4057242" lon="10.8262081"><ele>637.0</ele><time>2026-05-03T11:39:11.118Z</time></trkpt><trkpt lat="44.4057671" lon="10.8265412"><ele>633.0</ele><time>2026-05-03T11:39:12.119Z</time></trkpt><trkpt lat="44.4058253" lon="10.8268701"><ele>628.0</ele><time>2026-05-03T11:39:13.12Z</time></trkpt><trkpt lat="44.4058976" lon="10.8271992"><ele>623.0</ele><time>2026-05-03T11:39:14.122Z</time></trkpt><trkpt lat="44.4059789" lon="10.8275297"><ele>616.5</ele><time>2026-05-03T11:39:15.119Z</time></trkpt><trkpt lat="44.4060645" lon="10.8278613"><ele>610.0</ele><time>2026-05-03T11:39:16.121Z</time></trkpt><trkpt lat="44.4061514" lon="10.8281916"><ele>608.5</ele><time>2026-05-03T11:39:17.118Z</time></trkpt><trkpt lat="44.4062395" lon="10.8285203"><ele>607.0</ele><time>2026-05-03T11:39:18.121Z</time></trkpt><trkpt lat="44.406325" lon="10.8288539"><ele>619.5</ele><time>2026-05-03T11:39:19.119Z</time></trkpt><trkpt lat="44.4064109" lon="10.8291895"><ele>632.0</ele><time>2026-05-03T11:39:20.119Z</time></trkpt><trkpt lat="44.4064989" lon="10.8295274"><ele>632.0</ele><time>2026-05-03T11:39:21.12Z</time></trkpt><trkpt lat="44.4065894" lon="10.829862"><ele>632.0</ele><time>2026-05-03T11:39:22.118Z</time></trkpt><trkpt lat="44.4066877" lon="10.8301855"><ele>627.0</ele><time>2026-05-03T11:39:23.118Z</time></trkpt><trkpt lat="44.4067998" lon="10.8305007"><ele>622.0</ele><time>2026-05-03T11:39:24.118Z</time></trkpt><trkpt lat="44.4069262" lon="10.8308048"><ele>616.0</ele><time>2026-05-03T11:39:25.118Z</time></trkpt><trkpt lat="44.4070628" lon="10.8311016"><ele>610.0</ele><time>2026-05-03T11:39:26.122Z</time></trkpt><trkpt lat="44.407208" lon="10.8313982"><ele>613.5</ele><time>2026-05-03T11:39:27.121Z</time></trkpt><trkpt lat="44.4073561" lon="10.831696"><ele>617.0</ele><time>2026-05-03T11:39:28.121Z</time></trkpt><trkpt lat="44.4075039" lon="10.8320001"><ele>617.0</ele><time>2026-05-03T11:39:29.12Z</time></trkpt><trkpt lat="44.4076426" lon="10.8323143"><ele>617.0</ele><time>2026-05-03T11:39:30.121Z</time></trkpt><trkpt lat="44.4077676" lon="10.8326284"><ele>609.5</ele><time>2026-05-03T11:39:31.117Z</time></trkpt><trkpt lat="44.4078756" lon="10.8329431"><ele>602.0</ele><time>2026-05-03T11:39:32.119Z</time></trkpt><trkpt lat="44.4079645" lon="10.8332573"><ele>608.5</ele><time>2026-05-03T11:39:33.118Z</time></trkpt><trkpt lat="44.4080338" lon="10.8335799"><ele>615.0</ele><time>2026-05-03T11:39:34.118Z</time></trkpt><trkpt lat="44.4080834" lon="10.8339068"><ele>615.0</ele><time>2026-05-03T11:39:35.118Z</time></trkpt><trkpt lat="44.40812" lon="10.8342421"><ele>615.0</ele><time>2026-05-03T11:39:36.119Z</time></trkpt><trkpt lat="44.4081409" lon="10.8345799"><ele>614.5</ele><time>2026-05-03T11:39:37.119Z</time></trkpt><trkpt lat="44.4081434" lon="10.8349173"><ele>614.0</ele><time>2026-05-03T11:39:38.119Z</time></trkpt><trkpt lat="44.4081288" lon="10.835254"><ele>614.0</ele><time>2026-05-03T11:39:39.12Z</time></trkpt><trkpt lat="44.4080952" lon="10.835586"><ele>614.0</ele><time>2026-05-03T11:39:40.118Z</time></trkpt><trkpt lat="44.4080471" lon="10.8359027"><ele>612.3333333333333</ele><time>2026-05-03T11:39:41.118Z</time></trkpt><trkpt lat="44.4079937" lon="10.8362042"><ele>610.6666666666666</ele><time>2026-05-03T11:39:42.118Z</time></trkpt><trkpt lat="44.4079458" lon="10.8364919"><ele>609.0</ele><time>2026-05-03T11:39:43.119Z</time></trkpt><trkpt lat="44.4078998" lon="10.8367668"><ele>604.6666666666666</ele><time>2026-05-03T11:39:44.117Z</time></trkpt><trkpt lat="44.407855" lon="10.8370241"><ele>600.3333333333333</ele><time>2026-05-03T11:39:45.118Z</time></trkpt><trkpt lat="44.4078181" lon="10.8372814"><ele>596.0</ele><time>2026-05-03T11:39:46.118Z</time></trkpt><trkpt lat="44.4077882" lon="10.8375473"><ele>595.3333333333333</ele><time>2026-05-03T11:39:47.117Z</time></trkpt><trkpt lat="44.4077716" lon="10.837818"><ele>594.6666666666666</ele><time>2026-05-03T11:39:48.119Z</time></trkpt><trkpt lat="44.4077701" lon="10.8380967"><ele>594.0</ele><time>2026-05-03T11:39:49.118Z</time></trkpt><trkpt lat="44.4077844" lon="10.8383877"><ele>593.3333333333334</ele><time>2026-05-03T11:39:50.12Z</time></trkpt><trkpt lat="44.4078105" lon="10.8386882"><ele>592.6666666666667</ele><time>2026-05-03T11:39:51.119Z</time></trkpt><trkpt lat="44.4078499" lon="10.8389926"><ele>592.0</ele><time>2026-05-03T11:39:52.12Z</time></trkpt><trkpt lat="44.4079033" lon="10.8393002"><ele>592.5</ele><time>2026-05-03T11:39:53.118Z</time></trkpt><trkpt lat="44.4079712" lon="10.8396089"><ele>593.0</ele><time>2026-05-03T11:39:54.12Z</time></trkpt><trkpt lat="44.4080558" lon="10.8399136"><ele>589.0</ele><time>2026-05-03T11:39:55.118Z</time></trkpt><trkpt lat="44.4081501" lon="10.8402209"><ele>585.0</ele><time>2026-05-03T11:39:56.122Z</time></trkpt><trkpt lat="44.4082493" lon="10.8405294"><ele>585.0</ele><time>2026-05-03T11:39:57.119Z</time></trkpt><trkpt lat="44.4083527" lon="10.8408282"><ele>585.0</ele><time>2026-05-03T11:39:58.12Z</time></trkpt><trkpt lat="44.408464" lon="10.8411141"><ele>583.5</ele><time>2026-05-03T11:39:59.119Z</time></trkpt><trkpt lat="44.4085921" lon="10.8413864"><ele>582.0</ele><time>2026-05-03T11:40:00.118Z</time></trkpt><trkpt lat="44.4087397" lon="10.8416393"><ele>578.5</ele><time>2026-05-03T11:40:01.118Z</time></trkpt><trkpt lat="44.4088994" lon="10.8418837"><ele>575.0</ele><time>2026-05-03T11:40:02.118Z</time></trkpt><trkpt lat="44.4090672" lon="10.8421222"><ele>575.0</ele><time>2026-05-03T11:40:03.118Z</time></trkpt><trkpt lat="44.4092385" lon="10.8423616"><ele>575.0</ele><time>2026-05-03T11:40:04.121Z</time></trkpt><trkpt lat="44.4094102" lon="10.8426062"><ele>576.0</ele><time>2026-05-03T11:40:05.119Z</time></trkpt><trkpt lat="44.4095856" lon="10.8428552"><ele>577.0</ele><time>2026-05-03T11:40:06.118Z</time></trkpt><trkpt lat="44.4097655" lon="10.8431111"><ele>572.5</ele><time>2026-05-03T11:40:07.118Z</time></trkpt><trkpt lat="44.4099497" lon="10.8433714"><ele>568.0</ele><time>2026-05-03T11:40:08.12Z</time></trkpt><trkpt lat="44.4101375" lon="10.8436353"><ele>565.5</ele><time>2026-05-03T11:40:09.12Z</time></trkpt><trkpt lat="44.4103276" lon="10.8439012"><ele>563.0</ele><time>2026-05-03T11:40:10.118Z</time></trkpt><trkpt lat="44.4105147" lon="10.844159"><ele>559.5</ele><time>2026-05-03T11:40:11.119Z</time></trkpt><trkpt lat="44.4107009" lon="10.8444011"><ele>556.0</ele><time>2026-05-03T11:40:12.119Z</time></trkpt><trkpt lat="44.4108934" lon="10.8446216"><ele>556.0</ele><time>2026-05-03T11:40:13.118Z</time></trkpt><trkpt lat="44.4110987" lon="10.8448214"><ele>556.0</ele><time>2026-05-03T11:40:14.12Z</time></trkpt><trkpt lat="44.411313" lon="10.8450097"><ele>550.5</ele><time>2026-05-03T11:40:15.12Z</time></trkpt><trkpt lat="44.4115353" lon="10.8451837"><ele>545.0</ele><time>2026-05-03T11:40:16.118Z</time></trkpt><trkpt lat="44.4117632" lon="10.8453503"><ele>545.0</ele><time>2026-05-03T11:40:17.12Z</time></trkpt><trkpt lat="44.4119928" lon="10.8455182"><ele>545.0</ele><time>2026-05-03T11:40:18.121Z</time></trkpt><trkpt lat="44.4122232" lon="10.8456881"><ele>546.0</ele><time>2026-05-03T11:40:19.118Z</time></trkpt><trkpt lat="44.4124534" lon="10.8458607"><ele>547.0</ele><time>2026-05-03T11:40:20.121Z</time></trkpt><trkpt lat="44.4126761" lon="10.8460309"><ele>544.0</ele><time>2026-05-03T11:40:21.118Z</time></trkpt><trkpt lat="44.412894" lon="10.8461949"><ele>541.0</ele><time>2026-05-03T11:40:22.118Z</time></trkpt><trkpt lat="44.413106" lon="10.8463526"><ele>541.0</ele><time>2026-05-03T11:40:23.12Z</time></trkpt><trkpt lat="44.4133191" lon="10.8465035"><ele>541.0</ele><time>2026-05-03T11:40:24.118Z</time></trkpt><trkpt lat="44.4135378" lon="10.8466372"><ele>541.0</ele><time>2026-05-03T11:40:25.117Z</time></trkpt><trkpt lat="44.413768" lon="10.8467526"><ele>541.0</ele><time>2026-05-03T11:40:26.118Z</time></trkpt><trkpt lat="44.4140069" lon="10.8468451"><ele>534.5</ele><time>2026-05-03T11:40:27.118Z</time></trkpt><trkpt lat="44.4142541" lon="10.8469122"><ele>528.0</ele><time>2026-05-03T11:40:28.117Z</time></trkpt><trkpt lat="44.4145092" lon="10.8469523"><ele>526.0</ele><time>2026-05-03T11:40:29.117Z</time></trkpt><trkpt lat="44.4147693" lon="10.8469727"><ele>524.0</ele><time>2026-05-03T11:40:30.122Z</time></trkpt><trkpt lat="44.4150353" lon="10.8469782"><ele>524.0</ele><time>2026-05-03T11:40:31.122Z</time></trkpt><trkpt lat="44.4153076" lon="10.8469785"><ele>524.0</ele><time>2026-05-03T11:40:32.121Z</time></trkpt><trkpt lat="44.4155837" lon="10.8469823"><ele>524.0</ele><time>2026-05-03T11:40:33.12Z</time></trkpt><trkpt lat="44.415861" lon="10.8469884"><ele>524.0</ele><time>2026-05-03T11:40:34.122Z</time></trkpt><trkpt lat="44.4161381" lon="10.8469929"><ele>522.0</ele><time>2026-05-03T11:40:35.121Z</time></trkpt><trkpt lat="44.4164177" lon="10.8469957"><ele>520.0</ele><time>2026-05-03T11:40:36.12Z</time></trkpt><trkpt lat="44.4166963" lon="10.8469932"><ele>520.0</ele><time>2026-05-03T11:40:37.118Z</time></trkpt><trkpt lat="44.4169761" lon="10.8469895"><ele>520.0</ele><time>2026-05-03T11:40:38.12Z</time></trkpt><trkpt lat="44.417254" lon="10.8469812"><ele>518.0</ele><time>2026-05-03T11:40:39.12Z</time></trkpt><trkpt lat="44.417531" lon="10.8469683"><ele>516.0</ele><time>2026-05-03T11:40:40.119Z</time></trkpt><trkpt lat="44.4178069" lon="10.8469514"><ele>515.0</ele><time>2026-05-03T11:40:41.121Z</time></trkpt><trkpt lat="44.4180803" lon="10.8469264"><ele>514.0</ele><time>2026-05-03T11:40:42.116Z</time></trkpt><trkpt lat="44.4183521" lon="10.8468979"><ele>514.0</ele><time>2026-05-03T11:40:43.118Z</time></trkpt><trkpt lat="44.4186249" lon="10.8468692"><ele>514.0</ele><time>2026-05-03T11:40:44.121Z</time></trkpt><trkpt lat="44.4188972" lon="10.8468413"><ele>515.5</ele><time>2026-05-03T11:40:45.12Z</time></trkpt><trkpt lat="44.4191668" lon="10.8468247"><ele>517.0</ele><time>2026-05-03T11:40:46.12Z</time></trkpt><trkpt lat="44.4194334" lon="10.8468274"><ele>513.0</ele><time>2026-05-03T11:40:47.121Z</time></trkpt><trkpt lat="44.4196983" lon="10.8468528"><ele>509.0</ele><time>2026-05-03T11:40:48.12Z</time></trkpt><trkpt lat="44.4199649" lon="10.8468991"><ele>509.0</ele><time>2026-05-03T11:40:49.12Z</time></trkpt><trkpt lat="44.4202327" lon="10.846958"><ele>509.0</ele><time>2026-05-03T11:40:50.118Z</time></trkpt><trkpt lat="44.4204978" lon="10.8470196"><ele>505.0</ele><time>2026-05-03T11:40:51.119Z</time></trkpt><trkpt lat="44.4207522" lon="10.8470766"><ele>501.0</ele><time>2026-05-03T11:40:52.118Z</time></trkpt><trkpt lat="44.4209923" lon="10.847126"><ele>501.0</ele><time>2026-05-03T11:40:53.117Z</time></trkpt><trkpt lat="44.4212209" lon="10.8471619"><ele>501.0</ele><time>2026-05-03T11:40:54.119Z</time></trkpt><trkpt lat="44.4214512" lon="10.8471743"><ele>496.5</ele><time>2026-05-03T11:40:55.117Z</time></trkpt><trkpt lat="44.421677" lon="10.847152"><ele>492.0</ele><time>2026-05-03T11:40:56.118Z</time></trkpt><trkpt lat="44.4218979" lon="10.8470882"><ele>492.0</ele><time>2026-05-03T11:40:57.119Z</time></trkpt><trkpt lat="44.4221124" lon="10.8469849"><ele>492.0</ele><time>2026-05-03T11:40:58.119Z</time></trkpt><trkpt lat="44.4223194" lon="10.8468496"><ele>488.5</ele><time>2026-05-03T11:40:59.118Z</time></trkpt><trkpt lat="44.4225151" lon="10.8466865"><ele>485.0</ele><time>2026-05-03T11:41:00.12Z</time></trkpt><trkpt lat="44.4226972" lon="10.8464907"><ele>485.0</ele><time>2026-05-03T11:41:01.117Z</time></trkpt><trkpt lat="44.4228674" lon="10.8462671"><ele>485.0</ele><time>2026-05-03T11:41:02.118Z</time></trkpt><trkpt lat="44.4230298" lon="10.8460222"><ele>483.0</ele><time>2026-05-03T11:41:03.119Z</time></trkpt><trkpt lat="44.4231937" lon="10.8457646"><ele>481.0</ele><time>2026-05-03T11:41:04.119Z</time></trkpt><trkpt lat="44.4233627" lon="10.8455054"><ele>481.0</ele><time>2026-05-03T11:41:05.119Z</time></trkpt><trkpt lat="44.4235307" lon="10.8452425"><ele>481.0</ele><time>2026-05-03T11:41:06.12Z</time></trkpt><trkpt lat="44.4236989" lon="10.8449763"><ele>478.5</ele><time>2026-05-03T11:41:07.118Z</time></trkpt><trkpt lat="44.4238673" lon="10.8447107"><ele>476.0</ele><time>2026-05-03T11:41:08.116Z</time></trkpt><trkpt lat="44.4240361" lon="10.8444527"><ele>475.0</ele><time>2026-05-03T11:41:09.121Z</time></trkpt><trkpt lat="44.4242102" lon="10.8442069"><ele>474.0</ele><time>2026-05-03T11:41:10.118Z</time></trkpt><trkpt lat="44.4243916" lon="10.8439757"><ele>474.0</ele><time>2026-05-03T11:41:11.12Z</time></trkpt><trkpt lat="44.4245853" lon="10.8437647"><ele>474.0</ele><time>2026-05-03T11:41:12.117Z</time></trkpt><trkpt lat="44.4247884" lon="10.8435755"><ele>471.0</ele><time>2026-05-03T11:41:13.119Z</time></trkpt><trkpt lat="44.4250026" lon="10.8434103"><ele>468.0</ele><time>2026-05-03T11:41:14.12Z</time></trkpt><trkpt lat="44.4252272" lon="10.8432679"><ele>468.0</ele><time>2026-05-03T11:41:15.119Z</time></trkpt><trkpt lat="44.4254613" lon="10.8431475"><ele>468.0</ele><time>2026-05-03T11:41:16.12Z</time></trkpt><trkpt lat="44.4257019" lon="10.8430372"><ele>467.5</ele><time>2026-05-03T11:41:17.118Z</time></trkpt><trkpt lat="44.4259466" lon="10.8429278"><ele>467.0</ele><time>2026-05-03T11:41:18.118Z</time></trkpt><trkpt lat="44.426193" lon="10.8428133"><ele>465.0</ele><time>2026-05-03T11:41:19.12Z</time></trkpt><trkpt lat="44.4264394" lon="10.8426932"><ele>463.0</ele><time>2026-05-03T11:41:20.118Z</time></trkpt><trkpt lat="44.4266816" lon="10.8425591"><ele>461.5</ele><time>2026-05-03T11:41:21.118Z</time></trkpt><trkpt lat="44.4269192" lon="10.8424067"><ele>460.0</ele><time>2026-05-03T11:41:22.118Z</time></trkpt><trkpt lat="44.4271459" lon="10.8422239"><ele>456.5</ele><time>2026-05-03T11:41:23.117Z</time></trkpt><trkpt lat="44.4273614" lon="10.8420168"><ele>453.0</ele><time>2026-05-03T11:41:24.117Z</time></trkpt><trkpt lat="44.4275695" lon="10.8417923"><ele>451.5</ele><time>2026-05-03T11:41:25.118Z</time></trkpt><trkpt lat="44.4277749" lon="10.8415582"><ele>450.0</ele><time>2026-05-03T11:41:26.118Z</time></trkpt><trkpt lat="44.427974" lon="10.8413287"><ele>447.5</ele><time>2026-05-03T11:41:27.119Z</time></trkpt><trkpt lat="44.4281712" lon="10.8410999"><ele>445.0</ele><time>2026-05-03T11:41:28.117Z</time></trkpt><trkpt lat="44.4283688" lon="10.8408763"><ele>445.0</ele><time>2026-05-03T11:41:29.117Z</time></trkpt><trkpt lat="44.4285627" lon="10.8406547"><ele>445.0</ele><time>2026-05-03T11:41:30.119Z</time></trkpt><trkpt lat="44.4287534" lon="10.8404369"><ele>441.0</ele><time>2026-05-03T11:41:31.119Z</time></trkpt><trkpt lat="44.4289402" lon="10.8402278"><ele>437.0</ele><time>2026-05-03T11:41:32.119Z</time></trkpt><trkpt lat="44.4291252" lon="10.8400241"><ele>437.0</ele><time>2026-05-03T11:41:33.121Z</time></trkpt><trkpt lat="44.4293093" lon="10.8398204"><ele>437.0</ele><time>2026-05-03T11:41:34.118Z</time></trkpt><trkpt lat="44.4294927" lon="10.8396169"><ele>434.0</ele><time>2026-05-03T11:41:35.12Z</time></trkpt><trkpt lat="44.4296753" lon="10.8394132"><ele>431.0</ele><time>2026-05-03T11:41:36.122Z</time></trkpt><trkpt lat="44.429857" lon="10.8392086"><ele>431.0</ele><time>2026-05-03T11:41:37.118Z</time></trkpt><trkpt lat="44.4300388" lon="10.8390014"><ele>431.0</ele><time>2026-05-03T11:41:38.121Z</time></trkpt><trkpt lat="44.4302216" lon="10.8387923"><ele>431.0</ele><time>2026-05-03T11:41:39.119Z</time></trkpt><trkpt lat="44.4304047" lon="10.8385811"><ele>431.0</ele><time>2026-05-03T11:41:40.121Z</time></trkpt><trkpt lat="44.4305893" lon="10.8383686"><ele>429.0</ele><time>2026-05-03T11:41:41.119Z</time></trkpt><trkpt lat="44.4307746" lon="10.8381557"><ele>427.0</ele><time>2026-05-03T11:41:42.116Z</time></trkpt><trkpt lat="44.4309594" lon="10.8379384"><ele>427.0</ele><time>2026-05-03T11:41:43.119Z</time></trkpt><trkpt lat="44.4311461" lon="10.8377208"><ele>427.0</ele><time>2026-05-03T11:41:44.117Z</time></trkpt><trkpt lat="44.4313335" lon="10.8375043"><ele>422.5</ele><time>2026-05-03T11:41:45.118Z</time></trkpt><trkpt lat="44.4315214" lon="10.8372864"><ele>418.0</ele><time>2026-05-03T11:41:46.116Z</time></trkpt><trkpt lat="44.4317113" lon="10.8370712"><ele>418.0</ele><time>2026-05-03T11:41:47.117Z</time></trkpt><trkpt lat="44.4319012" lon="10.8368533"><ele>418.0</ele><time>2026-05-03T11:41:48.117Z</time></trkpt><trkpt lat="44.432092" lon="10.8366347"><ele>414.5</ele><time>2026-05-03T11:41:49.119Z</time></trkpt><trkpt lat="44.4322819" lon="10.8364139"><ele>411.0</ele><time>2026-05-03T11:41:50.118Z</time></trkpt><trkpt lat="44.4324727" lon="10.8361887"><ele>414.0</ele><time>2026-05-03T11:41:51.118Z</time></trkpt><trkpt lat="44.4326628" lon="10.8359582"><ele>417.0</ele><time>2026-05-03T11:41:52.12Z</time></trkpt><trkpt lat="44.43285" lon="10.8357211"><ele>411.0</ele><time>2026-05-03T11:41:53.117Z</time></trkpt><trkpt lat="44.4330354" lon="10.8354769"><ele>405.0</ele><time>2026-05-03T11:41:54.12Z</time></trkpt><trkpt lat="44.4332168" lon="10.835231"><ele>406.0</ele><time>2026-05-03T11:41:55.118Z</time></trkpt><trkpt lat="44.4333908" lon="10.8349899"><ele>407.0</ele><time>2026-05-03T11:41:56.115Z</time></trkpt><trkpt lat="44.4335629" lon="10.8347546"><ele>407.0</ele><time>2026-05-03T11:41:57.118Z</time></trkpt><trkpt lat="44.4337301" lon="10.834525"><ele>407.0</ele><time>2026-05-03T11:41:58.117Z</time></trkpt><trkpt lat="44.4338957" lon="10.8343057"><ele>401.5</ele><time>2026-05-03T11:41:59.116Z</time></trkpt><trkpt lat="44.4340674" lon="10.8341024"><ele>396.0</ele><time>2026-05-03T11:42:00.116Z</time></trkpt><trkpt lat="44.4342478" lon="10.8339082"><ele>396.0</ele><time>2026-05-03T11:42:01.116Z</time></trkpt><trkpt lat="44.4344386" lon="10.8337336"><ele>396.0</ele><time>2026-05-03T11:42:02.12Z</time></trkpt><trkpt lat="44.4346413" lon="10.8335795"><ele>394.0</ele><time>2026-05-03T11:42:03.116Z</time></trkpt><trkpt lat="44.4348552" lon="10.8334501"><ele>392.0</ele><time>2026-05-03T11:42:04.119Z</time></trkpt><trkpt lat="44.4350786" lon="10.8333431"><ele>392.0</ele><time>2026-05-03T11:42:05.118Z</time></trkpt><trkpt lat="44.4353086" lon="10.8332685"><ele>392.0</ele><time>2026-05-03T11:42:06.116Z</time></trkpt><trkpt lat="44.4355417" lon="10.833219"><ele>390.0</ele><time>2026-05-03T11:42:07.119Z</time></trkpt><trkpt lat="44.4357807" lon="10.8331938"><ele>388.0</ele><time>2026-05-03T11:42:08.118Z</time></trkpt><trkpt lat="44.4360252" lon="10.8331746"><ele>388.0</ele><time>2026-05-03T11:42:09.119Z</time></trkpt><trkpt lat="44.4362635" lon="10.8331591"><ele>388.0</ele><time>2026-05-03T11:42:10.118Z</time></trkpt><trkpt lat="44.4364977" lon="10.8331423"><ele>385.5</ele><time>2026-05-03T11:42:11.115Z</time></trkpt><trkpt lat="44.4367253" lon="10.8331261"><ele>383.0</ele><time>2026-05-03T11:42:12.118Z</time></trkpt><trkpt lat="44.4369489" lon="10.8331229"><ele>380.33333333333337</ele><time>2026-05-03T11:42:13.117Z</time></trkpt><trkpt lat="44.4371676" lon="10.8331375"><ele>377.6666666666667</ele><time>2026-05-03T11:42:14.121Z</time></trkpt><trkpt lat="44.4373881" lon="10.8331735"><ele>375.0</ele><time>2026-05-03T11:42:15.116Z</time></trkpt><trkpt lat="44.4376091" lon="10.8332337"><ele>375.0</ele><time>2026-05-03T11:42:16.118Z</time></trkpt><trkpt lat="44.4378349" lon="10.8333075"><ele>375.0</ele><time>2026-05-03T11:42:17.118Z</time></trkpt><trkpt lat="44.4380727" lon="10.8333857"><ele>372.5</ele><time>2026-05-03T11:42:18.117Z</time></trkpt><trkpt lat="44.4383246" lon="10.8334685"><ele>370.0</ele><time>2026-05-03T11:42:19.117Z</time></trkpt><trkpt lat="44.4385787" lon="10.8335501"><ele>367.0</ele><time>2026-05-03T11:42:20.119Z</time></trkpt><trkpt lat="44.4388339" lon="10.8336342"><ele>364.0</ele><time>2026-05-03T11:42:21.117Z</time></trkpt><trkpt lat="44.4390879" lon="10.833722"><ele>364.0</ele><time>2026-05-03T11:42:22.117Z</time></trkpt><trkpt lat="44.439339" lon="10.8338129"><ele>364.0</ele><time>2026-05-03T11:42:23.117Z</time></trkpt><trkpt lat="44.4395878" lon="10.833904"><ele>362.0</ele><time>2026-05-03T11:42:24.116Z</time></trkpt><trkpt lat="44.4398352" lon="10.8339943"><ele>360.0</ele><time>2026-05-03T11:42:25.118Z</time></trkpt><trkpt lat="44.4400823" lon="10.8340828"><ele>360.0</ele><time>2026-05-03T11:42:26.119Z</time></trkpt><trkpt lat="44.4403273" lon="10.8341695"><ele>360.0</ele><time>2026-05-03T11:42:27.116Z</time></trkpt><trkpt lat="44.440569" lon="10.8342584"><ele>359.0</ele><time>2026-05-03T11:42:28.117Z</time></trkpt><trkpt lat="44.4408109" lon="10.8343483"><ele>358.0</ele><time>2026-05-03T11:42:29.118Z</time></trkpt><trkpt lat="44.4410503" lon="10.8344422"><ele>358.0</ele><time>2026-05-03T11:42:30.117Z</time></trkpt><trkpt lat="44.4412886" lon="10.8345364"><ele>358.0</ele><time>2026-05-03T11:42:31.119Z</time></trkpt><trkpt lat="44.4415266" lon="10.8346321"><ele>355.5</ele><time>2026-05-03T11:42:32.117Z</time></trkpt><trkpt lat="44.4417646" lon="10.8347261"><ele>353.0</ele><time>2026-05-03T11:42:33.119Z</time></trkpt><trkpt lat="44.4420023" lon="10.8348195"><ele>351.0</ele><time>2026-05-03T11:42:34.118Z</time></trkpt><trkpt lat="44.4422391" lon="10.83491"><ele>349.0</ele><time>2026-05-03T11:42:35.117Z</time></trkpt><trkpt lat="44.4424747" lon="10.8350009"><ele>349.0</ele><time>2026-05-03T11:42:36.118Z</time></trkpt><trkpt lat="44.4427047" lon="10.835092"><ele>349.0</ele><time>2026-05-03T11:42:37.119Z</time></trkpt><trkpt lat="44.4429303" lon="10.8351768"><ele>349.5</ele><time>2026-05-03T11:42:38.118Z</time></trkpt><trkpt lat="44.4431553" lon="10.8352533"><ele>350.0</ele><time>2026-05-03T11:42:39.119Z</time></trkpt><trkpt lat="44.4433779" lon="10.835312"><ele>350.0</ele><time>2026-05-03T11:42:40.119Z</time></trkpt><trkpt lat="44.4436006" lon="10.8353465"><ele>350.0</ele><time>2026-05-03T11:42:41.119Z</time></trkpt><trkpt lat="44.4438186" lon="10.8353451"><ele>350.0</ele><time>2026-05-03T11:42:42.119Z</time></trkpt><trkpt lat="44.4440267" lon="10.835311"><ele>348.6666666666667</ele><time>2026-05-03T11:42:43.116Z</time></trkpt><trkpt lat="44.4442298" lon="10.835247"><ele>347.3333333333333</ele><time>2026-05-03T11:42:44.116Z</time></trkpt><trkpt lat="44.4444269" lon="10.8351589"><ele>346.0</ele><time>2026-05-03T11:42:45.116Z</time></trkpt><trkpt lat="44.4446206" lon="10.8350466"><ele>343.0</ele><time>2026-05-03T11:42:46.118Z</time></trkpt><trkpt lat="44.4448067" lon="10.8349211"><ele>340.0</ele><time>2026-05-03T11:42:47.116Z</time></trkpt><trkpt lat="44.4449974" lon="10.8347883"><ele>337.0</ele><time>2026-05-03T11:42:48.115Z</time></trkpt><trkpt lat="44.4451943" lon="10.8346573"><ele>337.0</ele><time>2026-05-03T11:42:49.117Z</time></trkpt><trkpt lat="44.4453953" lon="10.8345284"><ele>337.0</ele><time>2026-05-03T11:42:50.118Z</time></trkpt><trkpt lat="44.4455916" lon="10.8343971"><ele>337.0</ele><time>2026-05-03T11:42:51.118Z</time></trkpt><trkpt lat="44.4457849" lon="10.8342841"><ele>337.3333333333333</ele><time>2026-05-03T11:42:52.118Z</time></trkpt><trkpt lat="44.4459805" lon="10.8341998"><ele>337.6666666666667</ele><time>2026-05-03T11:42:53.117Z</time></trkpt><trkpt lat="44.4461781" lon="10.8341438"><ele>338.0</ele><time>2026-05-03T11:42:54.119Z</time></trkpt><trkpt lat="44.4463786" lon="10.8341128"><ele>336.0</ele><time>2026-05-03T11:42:55.121Z</time></trkpt><trkpt lat="44.4465804" lon="10.8341113"><ele>334.0</ele><time>2026-05-03T11:42:56.118Z</time></trkpt><trkpt lat="44.4467846" lon="10.8341238"><ele>332.0</ele><time>2026-05-03T11:42:57.116Z</time></trkpt><trkpt lat="44.4469912" lon="10.8341397"><ele>330.6666666666667</ele><time>2026-05-03T11:42:58.121Z</time></trkpt><trkpt lat="44.4471945" lon="10.8341583"><ele>329.3333333333333</ele><time>2026-05-03T11:42:59.12Z</time></trkpt><trkpt lat="44.4473924" lon="10.8341805"><ele>328.0</ele><time>2026-05-03T11:43:00.119Z</time></trkpt><trkpt lat="44.4475842" lon="10.8342014"><ele>328.0</ele><time>2026-05-03T11:43:01.117Z</time></trkpt><trkpt lat="44.4477738" lon="10.8342325"><ele>328.0</ele><time>2026-05-03T11:43:02.117Z</time></trkpt><trkpt lat="44.4479596" lon="10.8342806"><ele>328.0</ele><time>2026-05-03T11:43:03.119Z</time></trkpt><trkpt lat="44.4481434" lon="10.834349"><ele>324.66666666666663</ele><time>2026-05-03T11:43:04.118Z</time></trkpt><trkpt lat="44.4483261" lon="10.8344343"><ele>321.3333333333333</ele><time>2026-05-03T11:43:05.118Z</time></trkpt><trkpt lat="44.4485106" lon="10.8345246"><ele>318.0</ele><time>2026-05-03T11:43:06.118Z</time></trkpt><trkpt lat="44.4486929" lon="10.8346089"><ele>317.0</ele><time>2026-05-03T11:43:07.117Z</time></trkpt><trkpt lat="44.4488734" lon="10.8346909"><ele>316.0</ele><time>2026-05-03T11:43:08.119Z</time></trkpt><trkpt lat="44.4490604" lon="10.8347617"><ele>315.0</ele><time>2026-05-03T11:43:09.117Z</time></trkpt><trkpt lat="44.4492531" lon="10.8348065"><ele>315.0</ele><time>2026-05-03T11:43:10.116Z</time></trkpt><trkpt lat="44.44945" lon="10.8348264"><ele>315.0</ele><time>2026-05-03T11:43:11.117Z</time></trkpt><trkpt lat="44.4496548" lon="10.8348245"><ele>315.0</ele><time>2026-05-03T11:43:12.118Z</time></trkpt><trkpt lat="44.4498685" lon="10.8348059"><ele>311.5</ele><time>2026-05-03T11:43:13.118Z</time></trkpt><trkpt lat="44.4500923" lon="10.8347846"><ele>308.0</ele><time>2026-05-03T11:43:14.117Z</time></trkpt><trkpt lat="44.4503253" lon="10.8347662"><ele>306.0</ele><time>2026-05-03T11:43:15.118Z</time></trkpt><trkpt lat="44.4505572" lon="10.8347511"><ele>304.0</ele><time>2026-05-03T11:43:16.117Z</time></trkpt><trkpt lat="44.4507804" lon="10.8347343"><ele>304.0</ele><time>2026-05-03T11:43:17.118Z</time></trkpt><trkpt lat="44.4509987" lon="10.834718"><ele>304.0</ele><time>2026-05-03T11:43:18.117Z</time></trkpt><trkpt lat="44.4512169" lon="10.8346999"><ele>304.0</ele><time>2026-05-03T11:43:19.121Z</time></trkpt><trkpt lat="44.4514401" lon="10.8346699"><ele>302.5</ele><time>2026-05-03T11:43:20.118Z</time></trkpt><trkpt lat="44.4516699" lon="10.8346274"><ele>301.0</ele><time>2026-05-03T11:43:21.117Z</time></trkpt><trkpt lat="44.4519052" lon="10.8345768"><ele>301.0</ele><time>2026-05-03T11:43:22.117Z</time></trkpt><trkpt lat="44.4521468" lon="10.8345237"><ele>301.0</ele><time>2026-05-03T11:43:23.118Z</time></trkpt><trkpt lat="44.4523939" lon="10.8344712"><ele>301.0</ele><time>2026-05-03T11:43:24.116Z</time></trkpt><trkpt lat="44.4526469" lon="10.8344174"><ele>301.0</ele><time>2026-05-03T11:43:25.117Z</time></trkpt><trkpt lat="44.4529011" lon="10.8343605"><ele>299.5</ele><time>2026-05-03T11:43:26.117Z</time></trkpt><trkpt lat="44.4531554" lon="10.8343034"><ele>298.0</ele><time>2026-05-03T11:43:27.119Z</time></trkpt><trkpt lat="44.4534084" lon="10.8342461"><ele>298.0</ele><time>2026-05-03T11:43:28.119Z</time></trkpt><trkpt lat="44.4536608" lon="10.834191"><ele>298.0</ele><time>2026-05-03T11:43:29.12Z</time></trkpt><trkpt lat="44.4539118" lon="10.8341385"><ele>295.0</ele><time>2026-05-03T11:43:30.117Z</time></trkpt><trkpt lat="44.4541575" lon="10.8340904"><ele>292.0</ele><time>2026-05-03T11:43:31.118Z</time></trkpt><trkpt lat="44.4543959" lon="10.8340453"><ele>289.5</ele><time>2026-05-03T11:43:32.119Z</time></trkpt><trkpt lat="44.4546268" lon="10.8339983"><ele>287.0</ele><time>2026-05-03T11:43:33.118Z</time></trkpt><trkpt lat="44.454849" lon="10.8339526"><ele>287.0</ele><time>2026-05-03T11:43:34.118Z</time></trkpt><trkpt lat="44.455063" lon="10.8339067"><ele>287.0</ele><time>2026-05-03T11:43:35.121Z</time></trkpt><trkpt lat="44.455269" lon="10.8338591"><ele>287.0</ele><time>2026-05-03T11:43:36.117Z</time></trkpt><trkpt lat="44.4554687" lon="10.833797"><ele>285.6666666666667</ele><time>2026-05-03T11:43:37.118Z</time></trkpt><trkpt lat="44.4556649" lon="10.8337159"><ele>284.3333333333333</ele><time>2026-05-03T11:43:38.119Z</time></trkpt><trkpt lat="44.4558571" lon="10.8336158"><ele>283.0</ele><time>2026-05-03T11:43:39.118Z</time></trkpt><trkpt lat="44.456053" lon="10.8334962"><ele>282.0</ele><time>2026-05-03T11:43:40.118Z</time></trkpt><trkpt lat="44.4562545" lon="10.833368"><ele>281.0</ele><time>2026-05-03T11:43:41.118Z</time></trkpt><trkpt lat="44.4564628" lon="10.8332381"><ele>280.0</ele><time>2026-05-03T11:43:42.118Z</time></trkpt><trkpt lat="44.4566734" lon="10.8331076"><ele>280.0</ele><time>2026-05-03T11:43:43.12Z</time></trkpt><trkpt lat="44.456881" lon="10.8329809"><ele>280.0</ele><time>2026-05-03T11:43:44.117Z</time></trkpt><trkpt lat="44.4570807" lon="10.8328578"><ele>280.0</ele><time>2026-05-03T11:43:45.116Z</time></trkpt><trkpt lat="44.4572807" lon="10.8327348"><ele>280.0</ele><time>2026-05-03T11:43:46.118Z</time></trkpt><trkpt lat="44.4574812" lon="10.83261"><ele>280.0</ele><time>2026-05-03T11:43:47.118Z</time></trkpt><trkpt lat="44.4576824" lon="10.8324826"><ele>280.0</ele><time>2026-05-03T11:43:48.116Z</time></trkpt><trkpt lat="44.4578784" lon="10.832359"><ele>279.0</ele><time>2026-05-03T11:43:49.117Z</time></trkpt><trkpt lat="44.4580724" lon="10.8322516"><ele>278.0</ele><time>2026-05-03T11:43:50.119Z</time></trkpt><trkpt lat="44.4582634" lon="10.8321653"><ele>277.0</ele><time>2026-05-03T11:43:51.119Z</time></trkpt><trkpt lat="44.4584525" lon="10.8320998"><ele>277.0</ele><time>2026-05-03T11:43:52.119Z</time></trkpt><trkpt lat="44.4586433" lon="10.8320535"><ele>277.0</ele><time>2026-05-03T11:43:53.116Z</time></trkpt><trkpt lat="44.4588355" lon="10.8320253"><ele>277.0</ele><time>2026-05-03T11:43:54.117Z</time></trkpt><trkpt lat="44.4590275" lon="10.8320146"><ele>275.0</ele><time>2026-05-03T11:43:55.117Z</time></trkpt><trkpt lat="44.4592201" lon="10.8320103"><ele>273.0</ele><time>2026-05-03T11:43:56.119Z</time></trkpt><trkpt lat="44.4594089" lon="10.8320104"><ele>271.0</ele><time>2026-05-03T11:43:57.117Z</time></trkpt><trkpt lat="44.459592" lon="10.832016"><ele>269.66666666666663</ele><time>2026-05-03T11:43:58.116Z</time></trkpt><trkpt lat="44.4597712" lon="10.8320371"><ele>268.3333333333333</ele><time>2026-05-03T11:43:59.119Z</time></trkpt><trkpt lat="44.4599472" lon="10.8320768"><ele>267.0</ele><time>2026-05-03T11:44:00.116Z</time></trkpt><trkpt lat="44.460112" lon="10.8321452"><ele>267.0</ele><time>2026-05-03T11:44:01.116Z</time></trkpt><trkpt lat="44.4602695" lon="10.8322418"><ele>267.0</ele><time>2026-05-03T11:44:02.118Z</time></trkpt><trkpt lat="44.460421" lon="10.8323575"><ele>267.0</ele><time>2026-05-03T11:44:03.12Z</time></trkpt><trkpt lat="44.4605692" lon="10.8324899"><ele>267.0</ele><time>2026-05-03T11:44:04.117Z</time></trkpt><trkpt lat="44.4607072" lon="10.8326406"><ele>267.0</ele><time>2026-05-03T11:44:05.117Z</time></trkpt><trkpt lat="44.4608322" lon="10.8328111"><ele>267.0</ele><time>2026-05-03T11:44:06.121Z</time></trkpt><trkpt lat="44.4609501" lon="10.8329942"><ele>267.0</ele><time>2026-05-03T11:44:07.118Z</time></trkpt><trkpt lat="44.4610665" lon="10.8331905"><ele>267.0</ele><time>2026-05-03T11:44:08.119Z</time></trkpt><trkpt lat="44.4611902" lon="10.8334087"><ele>267.0</ele><time>2026-05-03T11:44:09.117Z</time></trkpt><trkpt lat="44.4613214" lon="10.8336482"><ele>265.0</ele><time>2026-05-03T11:44:10.12Z</time></trkpt><trkpt lat="44.4614579" lon="10.833902"><ele>263.0</ele><time>2026-05-03T11:44:11.119Z</time></trkpt><trkpt lat="44.4615933" lon="10.8341682"><ele>262.5</ele><time>2026-05-03T11:44:12.119Z</time></trkpt><trkpt lat="44.4617324" lon="10.8344356"><ele>262.0</ele><time>2026-05-03T11:44:13.118Z</time></trkpt><trkpt lat="44.4618737" lon="10.8347012"><ele>262.0</ele><time>2026-05-03T11:44:14.116Z</time></trkpt><trkpt lat="44.4620149" lon="10.8349681"><ele>262.0</ele><time>2026-05-03T11:44:15.122Z</time></trkpt><trkpt lat="44.4621539" lon="10.8352284"><ele>262.0</ele><time>2026-05-03T11:44:16.122Z</time></trkpt><trkpt lat="44.4622892" lon="10.8354782"><ele>262.0</ele><time>2026-05-03T11:44:17.12Z</time></trkpt><trkpt lat="44.4624184" lon="10.8357217"><ele>262.0</ele><time>2026-05-03T11:44:18.118Z</time></trkpt><trkpt lat="44.4625415" lon="10.835955"><ele>261.3333333333333</ele><time>2026-05-03T11:44:19.116Z</time></trkpt><trkpt lat="44.4626612" lon="10.836178"><ele>260.6666666666667</ele><time>2026-05-03T11:44:20.121Z</time></trkpt><trkpt lat="44.4627786" lon="10.8363895"><ele>260.0</ele><time>2026-05-03T11:44:21.12Z</time></trkpt><trkpt lat="44.4629001" lon="10.8365848"><ele>259.33333333333337</ele><time>2026-05-03T11:44:22.116Z</time></trkpt><trkpt lat="44.4630272" lon="10.83676"><ele>258.6666666666667</ele><time>2026-05-03T11:44:23.119Z</time></trkpt><trkpt lat="44.4631615" lon="10.8369101"><ele>258.0</ele><time>2026-05-03T11:44:24.12Z</time></trkpt><trkpt lat="44.4633024" lon="10.8370339"><ele>258.0</ele><time>2026-05-03T11:44:25.118Z</time></trkpt><trkpt lat="44.4634509" lon="10.8371314"><ele>258.0</ele><time>2026-05-03T11:44:26.12Z</time></trkpt><trkpt lat="44.4636077" lon="10.8372172"><ele>258.0</ele><time>2026-05-03T11:44:27.121Z</time></trkpt><trkpt lat="44.4637679" lon="10.8372995"><ele>257.6666666666667</ele><time>2026-05-03T11:44:28.12Z</time></trkpt><trkpt lat="44.4639354" lon="10.8373839"><ele>257.33333333333337</ele><time>2026-05-03T11:44:29.118Z</time></trkpt><trkpt lat="44.464102" lon="10.8374712"><ele>257.0</ele><time>2026-05-03T11:44:30.122Z</time></trkpt><trkpt lat="44.464266" lon="10.8375531"><ele>257.6666666666667</ele><time>2026-05-03T11:44:31.119Z</time></trkpt><trkpt lat="44.4644311" lon="10.8376377"><ele>258.3333333333333</ele><time>2026-05-03T11:44:32.118Z</time></trkpt><trkpt lat="44.4645967" lon="10.8377237"><ele>259.0</ele><time>2026-05-03T11:44:33.118Z</time></trkpt><trkpt lat="44.4647645" lon="10.837811"><ele>256.3333333333333</ele><time>2026-05-03T11:44:34.119Z</time></trkpt><trkpt lat="44.4649389" lon="10.8378969"><ele>253.66666666666669</ele><time>2026-05-03T11:44:35.119Z</time></trkpt><trkpt lat="44.4651242" lon="10.8379828"><ele>251.0</ele><time>2026-05-03T11:44:36.119Z</time></trkpt><trkpt lat="44.4653157" lon="10.8380717"><ele>251.0</ele><time>2026-05-03T11:44:37.119Z</time></trkpt><trkpt lat="44.4655112" lon="10.8381686"><ele>251.0</ele><time>2026-05-03T11:44:38.119Z</time></trkpt><trkpt lat="44.4657079" lon="10.8382724"><ele>251.0</ele><time>2026-05-03T11:44:39.118Z</time></trkpt><trkpt lat="44.4659074" lon="10.8383785"><ele>250.66666666666669</ele><time>2026-05-03T11:44:40.119Z</time></trkpt><trkpt lat="44.466108" lon="10.8384862"><ele>250.33333333333331</ele><time>2026-05-03T11:44:41.121Z</time></trkpt><trkpt lat="44.4663067" lon="10.8385938"><ele>250.0</ele><time>2026-05-03T11:44:42.122Z</time></trkpt><trkpt lat="44.4665" lon="10.838716"><ele>249.33333333333331</ele><time>2026-05-03T11:44:43.122Z</time></trkpt><trkpt lat="44.4666839" lon="10.8388599"><ele>248.66666666666669</ele><time>2026-05-03T11:44:44.119Z</time></trkpt><trkpt lat="44.4668605" lon="10.8390227"><ele>248.0</ele><time>2026-05-03T11:44:45.118Z</time></trkpt><trkpt lat="44.4670288" lon="10.8392008"><ele>248.0</ele><time>2026-05-03T11:44:46.118Z</time></trkpt><trkpt lat="44.4671843" lon="10.8393879"><ele>248.0</ele><time>2026-05-03T11:44:47.117Z</time></trkpt><trkpt lat="44.4673257" lon="10.8395811"><ele>248.0</ele><time>2026-05-03T11:44:48.117Z</time></trkpt><trkpt lat="44.4674616" lon="10.839782"><ele>248.0</ele><time>2026-05-03T11:44:49.118Z</time></trkpt><trkpt lat="44.4676005" lon="10.8399819"><ele>248.0</ele><time>2026-05-03T11:44:50.119Z</time></trkpt><trkpt lat="44.4677404" lon="10.8401815"><ele>248.0</ele><time>2026-05-03T11:44:51.117Z</time></trkpt><trkpt lat="44.4678809" lon="10.840384"><ele>247.66666666666669</ele><time>2026-05-03T11:44:52.122Z</time></trkpt><trkpt lat="44.4680247" lon="10.8405908"><ele>247.33333333333331</ele><time>2026-05-03T11:44:53.12Z</time></trkpt><trkpt lat="44.4681703" lon="10.8408031"><ele>247.0</ele><time>2026-05-03T11:44:54.119Z</time></trkpt><trkpt lat="44.4683174" lon="10.8410209"><ele>246.33333333333331</ele><time>2026-05-03T11:44:55.118Z</time></trkpt><trkpt lat="44.4684675" lon="10.8412418"><ele>245.66666666666669</ele><time>2026-05-03T11:44:56.119Z</time></trkpt><trkpt lat="44.4686211" lon="10.841462"><ele>245.0</ele><time>2026-05-03T11:44:57.119Z</time></trkpt><trkpt lat="44.4687767" lon="10.8416837"><ele>244.5</ele><time>2026-05-03T11:44:58.118Z</time></trkpt><trkpt lat="44.4689353" lon="10.8419053"><ele>244.0</ele><time>2026-05-03T11:44:59.119Z</time></trkpt><trkpt lat="44.4690968" lon="10.842126"><ele>244.0</ele><time>2026-05-03T11:45:00.118Z</time></trkpt><trkpt lat="44.4692608" lon="10.8423424"><ele>244.0</ele><time>2026-05-03T11:45:01.118Z</time></trkpt><trkpt lat="44.469424" lon="10.8425573"><ele>244.0</ele><time>2026-05-03T11:45:02.119Z</time></trkpt><trkpt lat="44.4695862" lon="10.8427699"><ele>244.33333333333331</ele><time>2026-05-03T11:45:03.119Z</time></trkpt><trkpt lat="44.4697407" lon="10.8429718"><ele>244.66666666666669</ele><time>2026-05-03T11:45:04.122Z</time></trkpt><trkpt lat="44.469891" lon="10.843166"><ele>245.0</ele><time>2026-05-03T11:45:05.121Z</time></trkpt><trkpt lat="44.470043" lon="10.8433614"><ele>244.33333333333334</ele><time>2026-05-03T11:45:06.117Z</time></trkpt><trkpt lat="44.4701923" lon="10.8435557"><ele>243.66666666666669</ele><time>2026-05-03T11:45:07.12Z</time></trkpt><trkpt lat="44.4703354" lon="10.8437393"><ele>243.0</ele><time>2026-05-03T11:45:08.116Z</time></trkpt><trkpt lat="44.4704729" lon="10.8439186"><ele>243.0</ele><time>2026-05-03T11:45:09.119Z</time></trkpt><trkpt lat="44.470606" lon="10.8440926"><ele>243.0</ele><time>2026-05-03T11:45:10.118Z</time></trkpt><trkpt lat="44.4707346" lon="10.8442588"><ele>243.0</ele><time>2026-05-03T11:45:11.118Z</time></trkpt><trkpt lat="44.470862" lon="10.8444167"><ele>241.66666666666669</ele><time>2026-05-03T11:45:12.119Z</time></trkpt><trkpt lat="44.4709863" lon="10.844574"><ele>240.33333333333334</ele><time>2026-05-03T11:45:13.118Z</time></trkpt><trkpt lat="44.4711064" lon="10.8447354"><ele>239.0</ele><time>2026-05-03T11:45:14.12Z</time></trkpt><trkpt lat="44.4712264" lon="10.8449012"><ele>240.0</ele><time>2026-05-03T11:45:15.119Z</time></trkpt><trkpt lat="44.4713482" lon="10.845072"><ele>241.0</ele><time>2026-05-03T11:45:16.12Z</time></trkpt><trkpt lat="44.4714701" lon="10.8452415"><ele>242.0</ele><time>2026-05-03T11:45:17.119Z</time></trkpt><trkpt lat="44.4715953" lon="10.8454079"><ele>239.66666666666669</ele><time>2026-05-03T11:45:18.117Z</time></trkpt><trkpt lat="44.4717234" lon="10.8455739"><ele>237.33333333333331</ele><time>2026-05-03T11:45:19.12Z</time></trkpt><trkpt lat="44.4718514" lon="10.8457402"><ele>235.0</ele><time>2026-05-03T11:45:20.121Z</time></trkpt><trkpt lat="44.4719792" lon="10.8459087"><ele>235.33333333333331</ele><time>2026-05-03T11:45:21.118Z</time></trkpt><trkpt lat="44.4721056" lon="10.8460791"><ele>235.66666666666669</ele><time>2026-05-03T11:45:22.118Z</time></trkpt><trkpt lat="44.4722364" lon="10.8462502"><ele>236.0</ele><time>2026-05-03T11:45:23.119Z</time></trkpt><trkpt lat="44.4723665" lon="10.8464267"><ele>236.33333333333334</ele><time>2026-05-03T11:45:24.118Z</time></trkpt><trkpt lat="44.4724994" lon="10.8466018"><ele>236.66666666666669</ele><time>2026-05-03T11:45:25.121Z</time></trkpt><trkpt lat="44.4726379" lon="10.8467726"><ele>237.0</ele><time>2026-05-03T11:45:26.116Z</time></trkpt><trkpt lat="44.4727814" lon="10.8469365"><ele>237.0</ele><time>2026-05-03T11:45:27.118Z</time></trkpt><trkpt lat="44.4729339" lon="10.847088"><ele>237.0</ele><time>2026-05-03T11:45:28.117Z</time></trkpt><trkpt lat="44.4730959" lon="10.8472273"><ele>237.0</ele><time>2026-05-03T11:45:29.119Z</time></trkpt><trkpt lat="44.4732639" lon="10.8473612"><ele>237.33333333333331</ele><time>2026-05-03T11:45:30.119Z</time></trkpt><trkpt lat="44.4734348" lon="10.8474954"><ele>237.66666666666666</ele><time>2026-05-03T11:45:31.119Z</time></trkpt><trkpt lat="44.4736081" lon="10.8476296"><ele>238.0</ele><time>2026-05-03T11:45:32.118Z</time></trkpt><trkpt lat="44.4737823" lon="10.8477646"><ele>235.33333333333331</ele><time>2026-05-03T11:45:33.117Z</time></trkpt><trkpt lat="44.4739585" lon="10.8478978"><ele>232.66666666666669</ele><time>2026-05-03T11:45:34.119Z</time></trkpt><trkpt lat="44.4741331" lon="10.848033"><ele>230.0</ele><time>2026-05-03T11:45:35.12Z</time></trkpt><trkpt lat="44.4743103" lon="10.8481679"><ele>230.0</ele><time>2026-05-03T11:45:36.118Z</time></trkpt><trkpt lat="44.4744889" lon="10.8483022"><ele>230.0</ele><time>2026-05-03T11:45:37.118Z</time></trkpt><trkpt lat="44.4746694" lon="10.8484383"><ele>230.0</ele><time>2026-05-03T11:45:38.118Z</time></trkpt><trkpt lat="44.4748517" lon="10.8485769"><ele>230.33333333333334</ele><time>2026-05-03T11:45:39.119Z</time></trkpt><trkpt lat="44.4750358" lon="10.848718"><ele>230.66666666666669</ele><time>2026-05-03T11:45:40.118Z</time></trkpt><trkpt lat="44.4752215" lon="10.8488618"><ele>231.0</ele><time>2026-05-03T11:45:41.117Z</time></trkpt><trkpt lat="44.4754071" lon="10.8490052"><ele>230.66666666666669</ele><time>2026-05-03T11:45:42.119Z</time></trkpt><trkpt lat="44.4755851" lon="10.8491417"><ele>230.33333333333334</ele><time>2026-05-03T11:45:43.118Z</time></trkpt><trkpt lat="44.4757628" lon="10.8492771"><ele>230.0</ele><time>2026-05-03T11:45:44.119Z</time></trkpt><trkpt lat="44.4759422" lon="10.8494123"><ele>230.0</ele><time>2026-05-03T11:45:45.117Z</time></trkpt><trkpt lat="44.4761225" lon="10.8495468"><ele>230.0</ele><time>2026-05-03T11:45:46.12Z</time></trkpt><trkpt lat="44.4763035" lon="10.8496819"><ele>230.0</ele><time>2026-05-03T11:45:47.12Z</time></trkpt><trkpt lat="44.4764857" lon="10.8498176"><ele>230.0</ele><time>2026-05-03T11:45:48.117Z</time></trkpt><trkpt lat="44.4766689" lon="10.8499542"><ele>230.0</ele><time>2026-05-03T11:45:49.118Z</time></trkpt><trkpt lat="44.4768533" lon="10.8500953"><ele>230.0</ele><time>2026-05-03T11:45:50.119Z</time></trkpt><trkpt lat="44.4770398" lon="10.8502405"><ele>229.66666666666669</ele><time>2026-05-03T11:45:51.117Z</time></trkpt><trkpt lat="44.4772303" lon="10.8503883"><ele>229.33333333333331</ele><time>2026-05-03T11:45:52.116Z</time></trkpt><trkpt lat="44.4774194" lon="10.8505317"><ele>229.0</ele><time>2026-05-03T11:45:53.119Z</time></trkpt><trkpt lat="44.4776057" lon="10.8506737"><ele>229.0</ele><time>2026-05-03T11:45:54.12Z</time></trkpt><trkpt lat="44.4777953" lon="10.8508155"><ele>229.0</ele><time>2026-05-03T11:45:55.119Z</time></trkpt><trkpt lat="44.4779842" lon="10.8509619"><ele>229.0</ele><time>2026-05-03T11:45:56.118Z</time></trkpt><trkpt lat="44.4781655" lon="10.8511298"><ele>227.0</ele><time>2026-05-03T11:45:57.119Z</time></trkpt><trkpt lat="44.4783385" lon="10.8513182"><ele>225.0</ele><time>2026-05-03T11:45:58.12Z</time></trkpt><trkpt lat="44.4785046" lon="10.8515212"><ele>223.0</ele><time>2026-05-03T11:45:59.119Z</time></trkpt><trkpt lat="44.4786613" lon="10.8517308"><ele>222.0</ele><time>2026-05-03T11:46:00.118Z</time></trkpt><trkpt lat="44.4788158" lon="10.8519476"><ele>221.0</ele><time>2026-05-03T11:46:01.118Z</time></trkpt><trkpt lat="44.478971" lon="10.8521635"><ele>220.0</ele><time>2026-05-03T11:46:02.118Z</time></trkpt><trkpt lat="44.4791291" lon="10.8523783"><ele>220.0</ele><time>2026-05-03T11:46:03.119Z</time></trkpt><trkpt lat="44.4792851" lon="10.8525944"><ele>220.0</ele><time>2026-05-03T11:46:04.116Z</time></trkpt><trkpt lat="44.4794404" lon="10.8528122"><ele>220.0</ele><time>2026-05-03T11:46:05.119Z</time></trkpt><trkpt lat="44.4795972" lon="10.8530291"><ele>220.33333333333331</ele><time>2026-05-03T11:46:06.117Z</time></trkpt><trkpt lat="44.4797558" lon="10.8532451"><ele>220.66666666666669</ele><time>2026-05-03T11:46:07.119Z</time></trkpt><trkpt lat="44.4799124" lon="10.8534628"><ele>221.0</ele><time>2026-05-03T11:46:08.116Z</time></trkpt><trkpt lat="44.4800681" lon="10.8536821"><ele>219.0</ele><time>2026-05-03T11:46:09.122Z</time></trkpt><trkpt lat="44.4802268" lon="10.8539013"><ele>217.0</ele><time>2026-05-03T11:46:10.118Z</time></trkpt><trkpt lat="44.4803812" lon="10.8541228"><ele>215.0</ele><time>2026-05-03T11:46:11.117Z</time></trkpt><trkpt lat="44.4805341" lon="10.8543453"><ele>213.66666666666669</ele><time>2026-05-03T11:46:12.12Z</time></trkpt><trkpt lat="44.4806924" lon="10.8545629"><ele>212.33333333333331</ele><time>2026-05-03T11:46:13.12Z</time></trkpt><trkpt lat="44.4808603" lon="10.8547671"><ele>211.0</ele><time>2026-05-03T11:46:14.119Z</time></trkpt><trkpt lat="44.481038" lon="10.8549557"><ele>211.33333333333331</ele><time>2026-05-03T11:46:15.116Z</time></trkpt><trkpt lat="44.4812248" lon="10.8551277"><ele>211.66666666666669</ele><time>2026-05-03T11:46:16.118Z</time></trkpt><trkpt lat="44.4814185" lon="10.8552822"><ele>212.0</ele><time>2026-05-03T11:46:17.117Z</time></trkpt><trkpt lat="44.4816206" lon="10.8554137"><ele>210.66666666666669</ele><time>2026-05-03T11:46:18.116Z</time></trkpt><trkpt lat="44.4818286" lon="10.8555218"><ele>209.33333333333331</ele><time>2026-05-03T11:46:19.118Z</time></trkpt><trkpt lat="44.4820406" lon="10.8556119"><ele>208.0</ele><time>2026-05-03T11:46:20.117Z</time></trkpt><trkpt lat="44.4822534" lon="10.8556882"><ele>208.0</ele><time>2026-05-03T11:46:21.12Z</time></trkpt><trkpt lat="44.4824673" lon="10.8557567"><ele>208.0</ele><time>2026-05-03T11:46:22.118Z</time></trkpt><trkpt lat="44.4826841" lon="10.8558246"><ele>208.0</ele><time>2026-05-03T11:46:23.122Z</time></trkpt><trkpt lat="44.4829018" lon="10.8558984"><ele>207.0</ele><time>2026-05-03T11:46:24.122Z</time></trkpt><trkpt lat="44.4831212" lon="10.8559722"><ele>206.0</ele><time>2026-05-03T11:46:25.12Z</time></trkpt><trkpt lat="44.4833399" lon="10.8560443"><ele>206.0</ele><time>2026-05-03T11:46:26.117Z</time></trkpt><trkpt lat="44.4835608" lon="10.8561119"><ele>206.0</ele><time>2026-05-03T11:46:27.12Z</time></trkpt><trkpt lat="44.4837807" lon="10.8561816"><ele>205.66666666666669</ele><time>2026-05-03T11:46:28.118Z</time></trkpt><trkpt lat="44.483999" lon="10.8562538"><ele>205.33333333333331</ele><time>2026-05-03T11:46:29.118Z</time></trkpt><trkpt lat="44.484213" lon="10.8563373"><ele>205.0</ele><time>2026-05-03T11:46:30.118Z</time></trkpt><trkpt lat="44.4844206" lon="10.8564437"><ele>205.0</ele><time>2026-05-03T11:46:31.12Z</time></trkpt><trkpt lat="44.4846182" lon="10.8565776"><ele>205.0</ele><time>2026-05-03T11:46:32.117Z</time></trkpt><trkpt lat="44.4848036" lon="10.8567395"><ele>205.0</ele><time>2026-05-03T11:46:33.12Z</time></trkpt><trkpt lat="44.4849791" lon="10.8569249"><ele>204.33333333333331</ele><time>2026-05-03T11:46:34.118Z</time></trkpt><trkpt lat="44.4851404" lon="10.8571353"><ele>203.66666666666669</ele><time>2026-05-03T11:46:35.118Z</time></trkpt><trkpt lat="44.4852875" lon="10.857369"><ele>203.0</ele><time>2026-05-03T11:46:36.119Z</time></trkpt><trkpt lat="44.4854254" lon="10.8576172"><ele>203.5</ele><time>2026-05-03T11:46:37.117Z</time></trkpt><trkpt lat="44.4855617" lon="10.8578732"><ele>204.0</ele><time>2026-05-03T11:46:38.12Z</time></trkpt><trkpt lat="44.4857012" lon="10.8581324"><ele>204.0</ele><time>2026-05-03T11:46:39.119Z</time></trkpt><trkpt lat="44.4858433" lon="10.8583938"><ele>204.0</ele><time>2026-05-03T11:46:40.118Z</time></trkpt><trkpt lat="44.4859847" lon="10.8586506"><ele>202.66666666666669</ele><time>2026-05-03T11:46:41.117Z</time></trkpt><trkpt lat="44.4861196" lon="10.8588932"><ele>201.33333333333334</ele><time>2026-05-03T11:46:42.118Z</time></trkpt><trkpt lat="44.4862498" lon="10.8591262"><ele>200.0</ele><time>2026-05-03T11:46:43.119Z</time></trkpt><trkpt lat="44.4863842" lon="10.8593509"><ele>199.33333333333334</ele><time>2026-05-03T11:46:44.117Z</time></trkpt><trkpt lat="44.486531" lon="10.8595636"><ele>198.66666666666669</ele><time>2026-05-03T11:46:45.119Z</time></trkpt><trkpt lat="44.4866946" lon="10.8597532"><ele>198.0</ele><time>2026-05-03T11:46:46.119Z</time></trkpt><trkpt lat="44.4868729" lon="10.8599243"><ele>198.0</ele><time>2026-05-03T11:46:47.117Z</time></trkpt><trkpt lat="44.4870634" lon="10.8600855"><ele>198.0</ele><time>2026-05-03T11:46:48.119Z</time></trkpt><trkpt lat="44.4872601" lon="10.8602444"><ele>195.5</ele><time>2026-05-03T11:46:49.119Z</time></trkpt><trkpt lat="44.4874575" lon="10.8604051"><ele>193.0</ele><time>2026-05-03T11:46:50.118Z</time></trkpt><trkpt lat="44.4876554" lon="10.8605689"><ele>193.0</ele><time>2026-05-03T11:46:51.121Z</time></trkpt><trkpt lat="44.4878532" lon="10.8607364"><ele>193.0</ele><time>2026-05-03T11:46:52.121Z</time></trkpt><trkpt lat="44.4880524" lon="10.8609061"><ele>192.0</ele><time>2026-05-03T11:46:53.118Z</time></trkpt><trkpt lat="44.4882537" lon="10.8610745"><ele>191.0</ele><time>2026-05-03T11:46:54.118Z</time></trkpt><trkpt lat="44.4884546" lon="10.8612392"><ele>191.0</ele><time>2026-05-03T11:46:55.118Z</time></trkpt><trkpt lat="44.4886602" lon="10.8614055"><ele>191.0</ele><time>2026-05-03T11:46:56.118Z</time></trkpt><trkpt lat="44.4888705" lon="10.861575"><ele>190.0</ele><time>2026-05-03T11:46:57.117Z</time></trkpt><trkpt lat="44.4890812" lon="10.8617485"><ele>189.0</ele><time>2026-05-03T11:46:58.121Z</time></trkpt><trkpt lat="44.4892938" lon="10.8619243"><ele>189.0</ele><time>2026-05-03T11:46:59.12Z</time></trkpt><trkpt lat="44.4895115" lon="10.8621012"><ele>189.0</ele><time>2026-05-03T11:47:00.118Z</time></trkpt><trkpt lat="44.489732" lon="10.8622795"><ele>189.0</ele><time>2026-05-03T11:47:01.122Z</time></trkpt><trkpt lat="44.4899536" lon="10.86246"><ele>189.0</ele><time>2026-05-03T11:47:02.118Z</time></trkpt><trkpt lat="44.490175" lon="10.8626406"><ele>189.5</ele><time>2026-05-03T11:47:03.122Z</time></trkpt><trkpt lat="44.4903944" lon="10.8628264"><ele>190.0</ele><time>2026-05-03T11:47:04.119Z</time></trkpt><trkpt lat="44.4906152" lon="10.8630092"><ele>190.0</ele><time>2026-05-03T11:47:05.117Z</time></trkpt><trkpt lat="44.490834" lon="10.8631802"><ele>190.0</ele><time>2026-05-03T11:47:06.116Z</time></trkpt><trkpt lat="44.4910472" lon="10.8633378"><ele>188.0</ele><time>2026-05-03T11:47:07.117Z</time></trkpt><trkpt lat="44.4912613" lon="10.8634903"><ele>186.0</ele><time>2026-05-03T11:47:08.114Z</time></trkpt><trkpt lat="44.4914789" lon="10.8636402"><ele>186.0</ele><time>2026-05-03T11:47:09.118Z</time></trkpt><trkpt lat="44.4917012" lon="10.8637941"><ele>186.0</ele><time>2026-05-03T11:47:10.117Z</time></trkpt><trkpt lat="44.4919292" lon="10.8639491"><ele>185.0</ele><time>2026-05-03T11:47:11.121Z</time></trkpt><trkpt lat="44.4921618" lon="10.8641056"><ele>184.0</ele><time>2026-05-03T11:47:12.117Z</time></trkpt><trkpt lat="44.4923944" lon="10.8642598"><ele>183.5</ele><time>2026-05-03T11:47:13.118Z</time></trkpt><trkpt lat="44.4926236" lon="10.8644162"><ele>183.0</ele><time>2026-05-03T11:47:14.118Z</time></trkpt><trkpt lat="44.4928501" lon="10.8645713"><ele>182.0</ele><time>2026-05-03T11:47:15.119Z</time></trkpt><trkpt lat="44.4930733" lon="10.8647237"><ele>181.0</ele><time>2026-05-03T11:47:16.121Z</time></trkpt><trkpt lat="44.4932902" lon="10.8648677"><ele>181.0</ele><time>2026-05-03T11:47:17.118Z</time></trkpt><trkpt lat="44.493497" lon="10.86501"><ele>181.0</ele><time>2026-05-03T11:47:18.117Z</time></trkpt><trkpt lat="44.4937015" lon="10.8651522"><ele>181.0</ele><time>2026-05-03T11:47:19.122Z</time></trkpt><trkpt lat="44.493906" lon="10.8652921"><ele>181.0</ele><time>2026-05-03T11:47:20.115Z</time></trkpt><trkpt lat="44.4941135" lon="10.8654335"><ele>181.0</ele><time>2026-05-03T11:47:21.117Z</time></trkpt><trkpt lat="44.4943239" lon="10.8655734"><ele>181.0</ele><time>2026-05-03T11:47:22.115Z</time></trkpt><trkpt lat="44.4945323" lon="10.8657172"><ele>180.5</ele><time>2026-05-03T11:47:23.122Z</time></trkpt><trkpt lat="44.4947394" lon="10.865865"><ele>180.0</ele><time>2026-05-03T11:47:24.116Z</time></trkpt><trkpt lat="44.4949488" lon="10.8660082"><ele>180.0</ele><time>2026-05-03T11:47:25.121Z</time></trkpt><trkpt lat="44.4951622" lon="10.8661456"><ele>180.0</ele><time>2026-05-03T11:47:26.122Z</time></trkpt><trkpt lat="44.4953745" lon="10.8662829"><ele>179.0</ele><time>2026-05-03T11:47:27.12Z</time></trkpt><trkpt lat="44.4955816" lon="10.8664273"><ele>178.0</ele><time>2026-05-03T11:47:28.115Z</time></trkpt><trkpt lat="44.4957877" lon="10.8665753"><ele>178.0</ele><time>2026-05-03T11:47:29.118Z</time></trkpt><trkpt lat="44.4959964" lon="10.866718"><ele>178.0</ele><time>2026-05-03T11:47:30.119Z</time></trkpt><trkpt lat="44.4962027" lon="10.8668602"><ele>177.0</ele><time>2026-05-03T11:47:31.121Z</time></trkpt><trkpt lat="44.4964044" lon="10.86701"><ele>176.0</ele><time>2026-05-03T11:47:32.118Z</time></trkpt><trkpt lat="44.4965982" lon="10.8671724"><ele>176.0</ele><time>2026-05-03T11:47:33.115Z</time></trkpt><trkpt lat="44.4967873" lon="10.8673506"><ele>176.0</ele><time>2026-05-03T11:47:34.117Z</time></trkpt><trkpt lat="44.496969" lon="10.8675434"><ele>176.5</ele><time>2026-05-03T11:47:35.118Z</time></trkpt><trkpt lat="44.4971413" lon="10.8677526"><ele>177.0</ele><time>2026-05-03T11:47:36.122Z</time></trkpt><trkpt lat="44.4973068" lon="10.8679737"><ele>177.0</ele><time>2026-05-03T11:47:37.121Z</time></trkpt><trkpt lat="44.4974648" lon="10.8682077"><ele>177.0</ele><time>2026-05-03T11:47:38.121Z</time></trkpt><trkpt lat="44.4976199" lon="10.8684481"><ele>177.0</ele><time>2026-05-03T11:47:39.117Z</time></trkpt><trkpt lat="44.4977735" lon="10.8686915"><ele>177.0</ele><time>2026-05-03T11:47:40.119Z</time></trkpt><trkpt lat="44.4979251" lon="10.8689376"><ele>177.0</ele><time>2026-05-03T11:47:41.121Z</time></trkpt><trkpt lat="44.4980788" lon="10.8691836"><ele>177.0</ele><time>2026-05-03T11:47:42.122Z</time></trkpt><trkpt lat="44.4982343" lon="10.8694264"><ele>176.0</ele><time>2026-05-03T11:47:43.12Z</time></trkpt><trkpt lat="44.4983871" lon="10.8696663"><ele>175.0</ele><time>2026-05-03T11:47:44.115Z</time></trkpt><trkpt lat="44.498529" lon="10.8698972"><ele>174.0</ele><time>2026-05-03T11:47:45.116Z</time></trkpt><trkpt lat="44.4986669" lon="10.8701154"><ele>174.66666666666666</ele><time>2026-05-03T11:47:46.12Z</time></trkpt><trkpt lat="44.498798" lon="10.8703265"><ele>175.33333333333331</ele><time>2026-05-03T11:47:47.117Z</time></trkpt><trkpt lat="44.4989269" lon="10.8705231"><ele>176.0</ele><time>2026-05-03T11:47:48.121Z</time></trkpt><trkpt lat="44.4990562" lon="10.870706"><ele>176.0</ele><time>2026-05-03T11:47:49.122Z</time></trkpt><trkpt lat="44.4991868" lon="10.8708788"><ele>176.0</ele><time>2026-05-03T11:47:50.118Z</time></trkpt><trkpt lat="44.499317" lon="10.8710438"><ele>176.0</ele><time>2026-05-03T11:47:51.12Z</time></trkpt><trkpt lat="44.4994474" lon="10.8712016"><ele>176.33333333333331</ele><time>2026-05-03T11:47:52.118Z</time></trkpt><trkpt lat="44.4995839" lon="10.8713668"><ele>176.66666666666666</ele><time>2026-05-03T11:47:53.119Z</time></trkpt><trkpt lat="44.4997246" lon="10.8715387"><ele>177.0</ele><time>2026-05-03T11:47:54.116Z</time></trkpt><trkpt lat="44.4998547" lon="10.8717001"><ele>175.66666666666666</ele><time>2026-05-03T11:47:55.122Z</time></trkpt><trkpt lat="44.4999868" lon="10.8718615"><ele>174.33333333333331</ele><time>2026-05-03T11:47:56.119Z</time></trkpt><trkpt lat="44.5001209" lon="10.8720086"><ele>173.0</ele><time>2026-05-03T11:47:57.117Z</time></trkpt><trkpt lat="44.5002551" lon="10.8721339"><ele>173.0</ele><time>2026-05-03T11:47:58.122Z</time></trkpt><trkpt lat="44.5003904" lon="10.8722313"><ele>173.0</ele><time>2026-05-03T11:47:59.121Z</time></trkpt><trkpt lat="44.5005235" lon="10.8723108"><ele>173.0</ele><time>2026-05-03T11:48:00.117Z</time></trkpt><trkpt lat="44.5006518" lon="10.872376"><ele>173.0</ele><time>2026-05-03T11:48:01.116Z</time></trkpt><trkpt lat="44.5007832" lon="10.8724403"><ele>173.66666666666666</ele><time>2026-05-03T11:48:02.12Z</time></trkpt><trkpt lat="44.500921" lon="10.8725057"><ele>174.33333333333334</ele><time>2026-05-03T11:48:03.122Z</time></trkpt><trkpt lat="44.5010694" lon="10.8725736"><ele>175.0</ele><time>2026-05-03T11:48:04.116Z</time></trkpt><trkpt lat="44.501223" lon="10.8726449"><ele>173.0</ele><time>2026-05-03T11:48:05.12Z</time></trkpt><trkpt lat="44.5013786" lon="10.8727202"><ele>171.0</ele><time>2026-05-03T11:48:06.116Z</time></trkpt><trkpt lat="44.5015407" lon="10.8727951"><ele>169.0</ele><time>2026-05-03T11:48:07.118Z</time></trkpt><trkpt lat="44.5017059" lon="10.8728727"><ele>169.0</ele><time>2026-05-03T11:48:08.122Z</time></trkpt><trkpt lat="44.5018728" lon="10.8729557"><ele>169.0</ele><time>2026-05-03T11:48:09.117Z</time></trkpt><trkpt lat="44.5020403" lon="10.8730454"><ele>169.0</ele><time>2026-05-03T11:48:10.118Z</time></trkpt><trkpt lat="44.5022095" lon="10.873139"><ele>170.0</ele><time>2026-05-03T11:48:11.121Z</time></trkpt><trkpt lat="44.502376" lon="10.8732308"><ele>171.0</ele><time>2026-05-03T11:48:12.121Z</time></trkpt><trkpt lat="44.5025401" lon="10.873323"><ele>172.0</ele><time>2026-05-03T11:48:13.119Z</time></trkpt><trkpt lat="44.5027075" lon="10.8734156"><ele>170.0</ele><time>2026-05-03T11:48:14.116Z</time></trkpt><trkpt lat="44.5028778" lon="10.8735082"><ele>168.0</ele><time>2026-05-03T11:48:15.12Z</time></trkpt><trkpt lat="44.5030488" lon="10.8735992"><ele>166.0</ele><time>2026-05-03T11:48:16.118Z</time></trkpt><trkpt lat="44.5032216" lon="10.8736877"><ele>165.66666666666669</ele><time>2026-05-03T11:48:17.117Z</time></trkpt><trkpt lat="44.5033967" lon="10.8737759"><ele>165.33333333333334</ele><time>2026-05-03T11:48:18.12Z</time></trkpt><trkpt lat="44.503573" lon="10.8738679"><ele>165.0</ele><time>2026-05-03T11:48:19.119Z</time></trkpt><trkpt lat="44.503753" lon="10.8739651"><ele>166.0</ele><time>2026-05-03T11:48:20.117Z</time></trkpt><trkpt lat="44.5039352" lon="10.8740678"><ele>167.0</ele><time>2026-05-03T11:48:21.119Z</time></trkpt><trkpt lat="44.5041185" lon="10.8741761"><ele>168.0</ele><time>2026-05-03T11:48:22.12Z</time></trkpt><trkpt lat="44.5043047" lon="10.8742875"><ele>166.0</ele><time>2026-05-03T11:48:23.117Z</time></trkpt><trkpt lat="44.5044894" lon="10.8743961"><ele>164.0</ele><time>2026-05-03T11:48:24.117Z</time></trkpt><trkpt lat="44.5046669" lon="10.8744995"><ele>162.0</ele><time>2026-05-03T11:48:25.117Z</time></trkpt><trkpt lat="44.5048381" lon="10.8745975"><ele>162.0</ele><time>2026-05-03T11:48:26.117Z</time></trkpt><trkpt lat="44.5050095" lon="10.8746944"><ele>162.0</ele><time>2026-05-03T11:48:27.116Z</time></trkpt><trkpt lat="44.5051841" lon="10.8747905"><ele>162.0</ele><time>2026-05-03T11:48:28.118Z</time></trkpt><trkpt lat="44.50536" lon="10.874883"><ele>162.33333333333334</ele><time>2026-05-03T11:48:29.118Z</time></trkpt><trkpt lat="44.50554" lon="10.8749707"><ele>162.66666666666669</ele><time>2026-05-03T11:48:30.116Z</time></trkpt><trkpt lat="44.5057209" lon="10.8750511"><ele>163.0</ele><time>2026-05-03T11:48:31.121Z</time></trkpt><trkpt lat="44.5058978" lon="10.8751243"><ele>160.33333333333334</ele><time>2026-05-03T11:48:32.116Z</time></trkpt><trkpt lat="44.5060791" lon="10.8751927"><ele>157.66666666666666</ele><time>2026-05-03T11:48:33.119Z</time></trkpt><trkpt lat="44.506262" lon="10.8752556"><ele>155.0</ele><time>2026-05-03T11:48:34.119Z</time></trkpt><trkpt lat="44.506446" lon="10.875313"><ele>154.66666666666666</ele><time>2026-05-03T11:48:35.116Z</time></trkpt><trkpt lat="44.5066275" lon="10.8753653"><ele>154.33333333333334</ele><time>2026-05-03T11:48:36.116Z</time></trkpt><trkpt lat="44.5068024" lon="10.8754116"><ele>154.0</ele><time>2026-05-03T11:48:37.119Z</time></trkpt><trkpt lat="44.5069713" lon="10.8754544"><ele>155.33333333333334</ele><time>2026-05-03T11:48:38.118Z</time></trkpt><trkpt lat="44.5071356" lon="10.8754951"><ele>156.66666666666666</ele><time>2026-05-03T11:48:39.12Z</time></trkpt><trkpt lat="44.5072939" lon="10.8755324"><ele>158.0</ele><time>2026-05-03T11:48:40.117Z</time></trkpt><trkpt lat="44.5074461" lon="10.8755687"><ele>158.0</ele><time>2026-05-03T11:48:41.118Z</time></trkpt><trkpt lat="44.5075887" lon="10.8756045"><ele>158.0</ele><time>2026-05-03T11:48:42.115Z</time></trkpt><trkpt lat="44.5077251" lon="10.8756375"><ele>158.0</ele><time>2026-05-03T11:48:43.118Z</time></trkpt><trkpt lat="44.5078636" lon="10.8756701"><ele>158.0</ele><time>2026-05-03T11:48:44.119Z</time></trkpt><trkpt lat="44.5080015" lon="10.8757042"><ele>157.75</ele><time>2026-05-03T11:48:45.12Z</time></trkpt><trkpt lat="44.5081391" lon="10.8757389"><ele>157.5</ele><time>2026-05-03T11:48:46.119Z</time></trkpt><trkpt lat="44.5082779" lon="10.8757712"><ele>157.25</ele><time>2026-05-03T11:48:47.118Z</time></trkpt><trkpt lat="44.5084182" lon="10.8758042"><ele>157.0</ele><time>2026-05-03T11:48:48.117Z</time></trkpt><trkpt lat="44.5085546" lon="10.8758373"><ele>157.0</ele><time>2026-05-03T11:48:49.12Z</time></trkpt><trkpt lat="44.5086955" lon="10.8758722"><ele>157.0</ele><time>2026-05-03T11:48:50.118Z</time></trkpt><trkpt lat="44.5088384" lon="10.8759079"><ele>157.0</ele><time>2026-05-03T11:48:51.117Z</time></trkpt><trkpt lat="44.5089859" lon="10.8759446"><ele>157.0</ele><time>2026-05-03T11:48:52.116Z</time></trkpt><trkpt lat="44.5091363" lon="10.8759822"><ele>156.0</ele><time>2026-05-03T11:48:53.116Z</time></trkpt><trkpt lat="44.5092865" lon="10.8760238"><ele>155.0</ele><time>2026-05-03T11:48:54.12Z</time></trkpt><trkpt lat="44.5094389" lon="10.876068"><ele>154.0</ele><time>2026-05-03T11:48:55.117Z</time></trkpt><trkpt lat="44.5095939" lon="10.8761173"><ele>154.0</ele><time>2026-05-03T11:48:56.117Z</time></trkpt><trkpt lat="44.5097472" lon="10.8761808"><ele>154.0</ele><time>2026-05-03T11:48:57.116Z</time></trkpt><trkpt lat="44.5099023" lon="10.8762566"><ele>154.0</ele><time>2026-05-03T11:48:58.118Z</time></trkpt><trkpt lat="44.5100537" lon="10.8763466"><ele>154.0</ele><time>2026-05-03T11:48:59.117Z</time></trkpt><trkpt lat="44.510203" lon="10.8764465"><ele>154.0</ele><time>2026-05-03T11:49:00.116Z</time></trkpt><trkpt lat="44.5103405" lon="10.8765495"><ele>154.0</ele><time>2026-05-03T11:49:01.118Z</time></trkpt><trkpt lat="44.5104669" lon="10.8766578"><ele>153.5</ele><time>2026-05-03T11:49:02.121Z</time></trkpt><trkpt lat="44.510584" lon="10.8767712"><ele>153.0</ele><time>2026-05-03T11:49:03.118Z</time></trkpt><trkpt lat="44.5106959" lon="10.8768869"><ele>152.5</ele><time>2026-05-03T11:49:04.117Z</time></trkpt><trkpt lat="44.5108037" lon="10.8770081"><ele>152.0</ele><time>2026-05-03T11:49:05.117Z</time></trkpt><trkpt lat="44.5109046" lon="10.8771362"><ele>152.0</ele><time>2026-05-03T11:49:06.116Z</time></trkpt><trkpt lat="44.5110004" lon="10.8772698"><ele>152.0</ele><time>2026-05-03T11:49:07.115Z</time></trkpt><trkpt lat="44.5110916" lon="10.8774077"><ele>152.0</ele><time>2026-05-03T11:49:08.116Z</time></trkpt><trkpt lat="44.5111769" lon="10.8775431"><ele>152.0</ele><time>2026-05-03T11:49:09.115Z</time></trkpt><trkpt lat="44.511258" lon="10.877674"><ele>151.4</ele><time>2026-05-03T11:49:10.117Z</time></trkpt><trkpt lat="44.5113344" lon="10.8777993"><ele>150.79999999999998</ele><time>2026-05-03T11:49:11.117Z</time></trkpt><trkpt lat="44.511406" lon="10.8779182"><ele>150.2</ele><time>2026-05-03T11:49:12.116Z</time></trkpt><trkpt lat="44.5114749" lon="10.878033"><ele>149.6</ele><time>2026-05-03T11:49:13.116Z</time></trkpt><trkpt lat="44.5115403" lon="10.8781446"><ele>149.0</ele><time>2026-05-03T11:49:14.12Z</time></trkpt><trkpt lat="44.5116039" lon="10.8782483"><ele>149.0</ele><time>2026-05-03T11:49:15.117Z</time></trkpt><trkpt lat="44.5116662" lon="10.878353"><ele>149.0</ele><time>2026-05-03T11:49:16.118Z</time></trkpt><trkpt lat="44.5117253" lon="10.8784535"><ele>149.0</ele><time>2026-05-03T11:49:17.116Z</time></trkpt><trkpt lat="44.5117814" lon="10.8785489"><ele>149.0</ele><time>2026-05-03T11:49:18.116Z</time></trkpt><trkpt lat="44.5118396" lon="10.8786478"><ele>149.0</ele><time>2026-05-03T11:49:19.115Z</time></trkpt><trkpt lat="44.5118966" lon="10.8787447"><ele>149.0</ele><time>2026-05-03T11:49:20.116Z</time></trkpt><trkpt lat="44.5119535" lon="10.8788408"><ele>149.0</ele><time>2026-05-03T11:49:21.118Z</time></trkpt><trkpt lat="44.5120162" lon="10.8789421"><ele>149.0</ele><time>2026-05-03T11:49:22.117Z</time></trkpt><trkpt lat="44.5120816" lon="10.8790537"><ele>149.0</ele><time>2026-05-03T11:49:23.118Z</time></trkpt><trkpt lat="44.5121516" lon="10.8791726"><ele>149.0</ele><time>2026-05-03T11:49:24.117Z</time></trkpt><trkpt lat="44.5122267" lon="10.8793027"><ele>148.5</ele><time>2026-05-03T11:49:25.115Z</time></trkpt><trkpt lat="44.5123056" lon="10.8794316"><ele>148.0</ele><time>2026-05-03T11:49:26.118Z</time></trkpt><trkpt lat="44.5123864" lon="10.879568"><ele>147.5</ele><time>2026-05-03T11:49:27.12Z</time></trkpt><trkpt lat="44.5124689" lon="10.8797076"><ele>147.0</ele><time>2026-05-03T11:49:28.12Z</time></trkpt><trkpt lat="44.5125507" lon="10.8798501"><ele>147.0</ele><time>2026-05-03T11:49:29.12Z</time></trkpt><trkpt lat="44.5126354" lon="10.8799927"><ele>147.0</ele><time>2026-05-03T11:49:30.116Z</time></trkpt><trkpt lat="44.5127234" lon="10.8801381"><ele>147.0</ele><time>2026-05-03T11:49:31.12Z</time></trkpt><trkpt lat="44.5128084" lon="10.8802887"><ele>147.0</ele><time>2026-05-03T11:49:32.117Z</time></trkpt><trkpt lat="44.5128957" lon="10.8804407"><ele>146.25</ele><time>2026-05-03T11:49:33.117Z</time></trkpt><trkpt lat="44.5129844" lon="10.8805908"><ele>145.5</ele><time>2026-05-03T11:49:34.117Z</time></trkpt><trkpt lat="44.5130738" lon="10.8807397"><ele>144.75</ele><time>2026-05-03T11:49:35.119Z</time></trkpt><trkpt lat="44.5131673" lon="10.8808926"><ele>144.0</ele><time>2026-05-03T11:49:36.117Z</time></trkpt><trkpt lat="44.5132631" lon="10.8810491"><ele>144.0</ele><time>2026-05-03T11:49:37.117Z</time></trkpt><trkpt lat="44.513363" lon="10.8812124"><ele>144.0</ele><time>2026-05-03T11:49:38.117Z</time></trkpt><trkpt lat="44.5134621" lon="10.881383"><ele>144.0</ele><time>2026-05-03T11:49:39.122Z</time></trkpt><trkpt lat="44.5135644" lon="10.8815564"><ele>144.0</ele><time>2026-05-03T11:49:40.115Z</time></trkpt><trkpt lat="44.5136702" lon="10.8817339"><ele>144.0</ele><time>2026-05-03T11:49:41.117Z</time></trkpt><trkpt lat="44.5137783" lon="10.8819162"><ele>144.0</ele><time>2026-05-03T11:49:42.119Z</time></trkpt><trkpt lat="44.5138892" lon="10.882102"><ele>143.66666666666666</ele><time>2026-05-03T11:49:43.117Z</time></trkpt><trkpt lat="44.5139968" lon="10.8822859"><ele>143.33333333333331</ele><time>2026-05-03T11:49:44.118Z</time></trkpt><trkpt lat="44.5140967" lon="10.8824602"><ele>143.0</ele><time>2026-05-03T11:49:45.115Z</time></trkpt><trkpt lat="44.5141893" lon="10.8826254"><ele>142.0</ele><time>2026-05-03T11:49:46.116Z</time></trkpt><trkpt lat="44.5142799" lon="10.8827807"><ele>141.0</ele><time>2026-05-03T11:49:47.118Z</time></trkpt><trkpt lat="44.5143638" lon="10.8829258"><ele>140.0</ele><time>2026-05-03T11:49:48.117Z</time></trkpt><trkpt lat="44.514445" lon="10.8830619"><ele>139.0</ele><time>2026-05-03T11:49:49.117Z</time></trkpt><trkpt lat="44.5145211" lon="10.8831891"><ele>138.8</ele><time>2026-05-03T11:49:50.118Z</time></trkpt><trkpt lat="44.5145904" lon="10.8833094"><ele>138.60000000000002</ele><time>2026-05-03T11:49:51.118Z</time></trkpt><trkpt lat="44.5146598" lon="10.8834249"><ele>138.4</ele><time>2026-05-03T11:49:52.118Z</time></trkpt><trkpt lat="44.5147255" lon="10.8835342"><ele>138.20000000000002</ele><time>2026-05-03T11:49:53.121Z</time></trkpt><trkpt lat="44.5147887" lon="10.8836382"><ele>138.0</ele><time>2026-05-03T11:49:54.116Z</time></trkpt><trkpt lat="44.5148479" lon="10.8837375"><ele>138.0</ele><time>2026-05-03T11:49:55.118Z</time></trkpt><trkpt lat="44.5149036" lon="10.8838314"><ele>138.0</ele><time>2026-05-03T11:49:56.117Z</time></trkpt><trkpt lat="44.5149559" lon="10.883917"><ele>138.0</ele><time>2026-05-03T11:49:57.116Z</time></trkpt><trkpt lat="44.5150044" lon="10.8839978"><ele>138.0</ele><time>2026-05-03T11:49:58.119Z</time></trkpt><trkpt lat="44.5150487" lon="10.884075"><ele>138.0</ele><time>2026-05-03T11:49:59.115Z</time></trkpt><trkpt lat="44.5150913" lon="10.8841484"><ele>138.0</ele><time>2026-05-03T11:50:00.119Z</time></trkpt><trkpt lat="44.5151295" lon="10.8842207"><ele>138.0</ele><time>2026-05-03T11:50:01.117Z</time></trkpt><trkpt lat="44.5151714" lon="10.8842926"><ele>137.83333333333334</ele><time>2026-05-03T11:50:02.117Z</time></trkpt><trkpt lat="44.5152161" lon="10.8843663"><ele>137.66666666666666</ele><time>2026-05-03T11:50:03.116Z</time></trkpt><trkpt lat="44.5152641" lon="10.8844443"><ele>137.5</ele><time>2026-05-03T11:50:04.119Z</time></trkpt><trkpt lat="44.5153146" lon="10.8845282"><ele>137.33333333333331</ele><time>2026-05-03T11:50:05.121Z</time></trkpt><trkpt lat="44.5153667" lon="10.8846191"><ele>137.16666666666666</ele><time>2026-05-03T11:50:06.119Z</time></trkpt><trkpt lat="44.5154225" lon="10.884714"><ele>137.0</ele><time>2026-05-03T11:50:07.116Z</time></trkpt><trkpt lat="44.5154807" lon="10.8848112"><ele>137.0</ele><time>2026-05-03T11:50:08.119Z</time></trkpt><trkpt lat="44.515541" lon="10.884909"><ele>137.0</ele><time>2026-05-03T11:50:09.118Z</time></trkpt><trkpt lat="44.515601" lon="10.8850122"><ele>137.0</ele><time>2026-05-03T11:50:10.118Z</time></trkpt><trkpt lat="44.5156635" lon="10.8851132"><ele>137.0</ele><time>2026-05-03T11:50:11.115Z</time></trkpt><trkpt lat="44.5157278" lon="10.8852173"><ele>137.0</ele><time>2026-05-03T11:50:12.115Z</time></trkpt><trkpt lat="44.5157931" lon="10.8853261"><ele>137.0</ele><time>2026-05-03T11:50:13.115Z</time></trkpt><trkpt lat="44.5158581" lon="10.8854365"><ele>137.0</ele><time>2026-05-03T11:50:14.116Z</time></trkpt><trkpt lat="44.5159247" lon="10.8855483"><ele>137.0</ele><time>2026-05-03T11:50:15.115Z</time></trkpt><trkpt lat="44.5159921" lon="10.8856634"><ele>137.0</ele><time>2026-05-03T11:50:16.117Z</time></trkpt><trkpt lat="44.5160595" lon="10.8857818"><ele>137.0</ele><time>2026-05-03T11:50:17.118Z</time></trkpt><trkpt lat="44.5161295" lon="10.8859051"><ele>137.0</ele><time>2026-05-03T11:50:18.119Z</time></trkpt><trkpt lat="44.5162042" lon="10.88603"><ele>137.0</ele><time>2026-05-03T11:50:19.117Z</time></trkpt><trkpt lat="44.5162783" lon="10.8861594"><ele>137.0</ele><time>2026-05-03T11:50:20.117Z</time></trkpt><trkpt lat="44.516348" lon="10.8862824"><ele>137.0</ele><time>2026-05-03T11:50:21.116Z</time></trkpt><trkpt lat="44.516419" lon="10.8864026"><ele>137.0</ele><time>2026-05-03T11:50:22.115Z</time></trkpt><trkpt lat="44.5164901" lon="10.8865222"><ele>137.0</ele><time>2026-05-03T11:50:23.116Z</time></trkpt><trkpt lat="44.5165616" lon="10.886643"><ele>137.0</ele><time>2026-05-03T11:50:24.117Z</time></trkpt><trkpt lat="44.5166352" lon="10.8867633"><ele>137.0</ele><time>2026-05-03T11:50:25.114Z</time></trkpt><trkpt lat="44.5167051" lon="10.8868793"><ele>137.0</ele><time>2026-05-03T11:50:26.116Z</time></trkpt><trkpt lat="44.5167784" lon="10.8870038"><ele>136.75</ele><time>2026-05-03T11:50:27.117Z</time></trkpt><trkpt lat="44.5168573" lon="10.8871338"><ele>136.5</ele><time>2026-05-03T11:50:28.118Z</time></trkpt><trkpt lat="44.516938" lon="10.8872633"><ele>136.25</ele><time>2026-05-03T11:50:29.116Z</time></trkpt><trkpt lat="44.5170164" lon="10.8873835"><ele>136.0</ele><time>2026-05-03T11:50:30.12Z</time></trkpt><trkpt lat="44.517095" lon="10.8875059"><ele>135.5</ele><time>2026-05-03T11:50:31.118Z</time></trkpt><trkpt lat="44.5171771" lon="10.8876304"><ele>135.0</ele><time>2026-05-03T11:50:32.117Z</time></trkpt><trkpt lat="44.517263" lon="10.8877556"><ele>134.5</ele><time>2026-05-03T11:50:33.118Z</time></trkpt><trkpt lat="44.5173514" lon="10.8878784"><ele>134.0</ele><time>2026-05-03T11:50:34.117Z</time></trkpt><trkpt lat="44.5174453" lon="10.8880039"><ele>134.0</ele><time>2026-05-03T11:50:35.119Z</time></trkpt><trkpt lat="44.5175429" lon="10.8881324"><ele>134.0</ele><time>2026-05-03T11:50:36.118Z</time></trkpt><trkpt lat="44.5176425" lon="10.8882607"><ele>134.0</ele><time>2026-05-03T11:50:37.116Z</time></trkpt><trkpt lat="44.5177468" lon="10.8883835"><ele>134.0</ele><time>2026-05-03T11:50:38.115Z</time></trkpt><trkpt lat="44.517859" lon="10.8885045"><ele>133.5</ele><time>2026-05-03T11:50:39.115Z</time></trkpt><trkpt lat="44.5179777" lon="10.8886241"><ele>133.0</ele><time>2026-05-03T11:50:40.117Z</time></trkpt><trkpt lat="44.5181005" lon="10.8887436"><ele>132.5</ele><time>2026-05-03T11:50:41.115Z</time></trkpt><trkpt lat="44.5182278" lon="10.8888625"><ele>132.0</ele><time>2026-05-03T11:50:42.118Z</time></trkpt><trkpt lat="44.5183573" lon="10.8889794"><ele>132.0</ele><time>2026-05-03T11:50:43.117Z</time></trkpt><trkpt lat="44.5184894" lon="10.8890978"><ele>132.0</ele><time>2026-05-03T11:50:44.118Z</time></trkpt><trkpt lat="44.5186167" lon="10.8892053"><ele>132.0</ele><time>2026-05-03T11:50:45.116Z</time></trkpt><trkpt lat="44.5187471" lon="10.8893087"><ele>132.0</ele><time>2026-05-03T11:50:46.118Z</time></trkpt><trkpt lat="44.51888" lon="10.8894095"><ele>132.0</ele><time>2026-05-03T11:50:47.119Z</time></trkpt><trkpt lat="44.519012" lon="10.8895047"><ele>132.0</ele><time>2026-05-03T11:50:48.118Z</time></trkpt><trkpt lat="44.5191374" lon="10.8895949"><ele>132.0</ele><time>2026-05-03T11:50:49.119Z</time></trkpt><trkpt lat="44.519262" lon="10.8896834"><ele>132.0</ele><time>2026-05-03T11:50:50.118Z</time></trkpt><trkpt lat="44.5193869" lon="10.8897719"><ele>132.0</ele><time>2026-05-03T11:50:51.118Z</time></trkpt><trkpt lat="44.5195138" lon="10.8898605"><ele>132.0</ele><time>2026-05-03T11:50:52.116Z</time></trkpt><trkpt lat="44.5196431" lon="10.8899471"><ele>132.0</ele><time>2026-05-03T11:50:53.114Z</time></trkpt><trkpt lat="44.5197746" lon="10.8900358"><ele>131.33333333333334</ele><time>2026-05-03T11:50:54.117Z</time></trkpt><trkpt lat="44.5199093" lon="10.8901276"><ele>130.66666666666669</ele><time>2026-05-03T11:50:55.115Z</time></trkpt><trkpt lat="44.5200439" lon="10.8902201"><ele>130.0</ele><time>2026-05-03T11:50:56.116Z</time></trkpt><trkpt lat="44.5201797" lon="10.8903136"><ele>130.0</ele><time>2026-05-03T11:50:57.116Z</time></trkpt><trkpt lat="44.5203176" lon="10.8904074"><ele>130.0</ele><time>2026-05-03T11:50:58.116Z</time></trkpt><trkpt lat="44.5204543" lon="10.8905031"><ele>130.0</ele><time>2026-05-03T11:50:59.119Z</time></trkpt><trkpt lat="44.5205928" lon="10.8905999"><ele>129.33333333333334</ele><time>2026-05-03T11:51:00.118Z</time></trkpt><trkpt lat="44.5207268" lon="10.8906961"><ele>128.66666666666666</ele><time>2026-05-03T11:51:01.118Z</time></trkpt><trkpt lat="44.5208643" lon="10.8907958"><ele>128.0</ele><time>2026-05-03T11:51:02.116Z</time></trkpt><trkpt lat="44.5210007" lon="10.8908936"><ele>127.75</ele><time>2026-05-03T11:51:03.118Z</time></trkpt><trkpt lat="44.5211351" lon="10.8909895"><ele>127.5</ele><time>2026-05-03T11:51:04.117Z</time></trkpt><trkpt lat="44.5212684" lon="10.891084"><ele>127.25</ele><time>2026-05-03T11:51:05.115Z</time></trkpt><trkpt lat="44.5214006" lon="10.8911766"><ele>127.0</ele><time>2026-05-03T11:51:06.116Z</time></trkpt><trkpt lat="44.5215327" lon="10.8912665"><ele>126.66666666666667</ele><time>2026-05-03T11:51:07.118Z</time></trkpt><trkpt lat="44.5216692" lon="10.8913585"><ele>126.33333333333334</ele><time>2026-05-03T11:51:08.118Z</time></trkpt><trkpt lat="44.5218114" lon="10.8914535"><ele>126.0</ele><time>2026-05-03T11:51:09.116Z</time></trkpt><trkpt lat="44.5219526" lon="10.8915523"><ele>126.0</ele><time>2026-05-03T11:51:10.116Z</time></trkpt><trkpt lat="44.5220914" lon="10.8916566"><ele>126.0</ele><time>2026-05-03T11:51:11.115Z</time></trkpt><trkpt lat="44.5222268" lon="10.8917722"><ele>126.0</ele><time>2026-05-03T11:51:12.117Z</time></trkpt><trkpt lat="44.5223554" lon="10.8919028"><ele>126.0</ele><time>2026-05-03T11:51:13.115Z</time></trkpt><trkpt lat="44.5224693" lon="10.8920361"><ele>126.0</ele><time>2026-05-03T11:51:14.121Z</time></trkpt><trkpt lat="44.5225766" lon="10.8921772"><ele>126.0</ele><time>2026-05-03T11:51:15.119Z</time></trkpt><trkpt lat="44.5226791" lon="10.8923248"><ele>126.0</ele><time>2026-05-03T11:51:16.118Z</time></trkpt><trkpt lat="44.5227817" lon="10.8924737"><ele>126.25</ele><time>2026-05-03T11:51:17.117Z</time></trkpt><trkpt lat="44.5228828" lon="10.8926213"><ele>126.5</ele><time>2026-05-03T11:51:18.116Z</time></trkpt><trkpt lat="44.5229848" lon="10.8927678"><ele>126.75</ele><time>2026-05-03T11:51:19.117Z</time></trkpt><trkpt lat="44.5230866" lon="10.8929135"><ele>127.0</ele><time>2026-05-03T11:51:20.118Z</time></trkpt><trkpt lat="44.5231859" lon="10.8930583"><ele>127.0</ele><time>2026-05-03T11:51:21.116Z</time></trkpt><trkpt lat="44.5232839" lon="10.8932048"><ele>127.0</ele><time>2026-05-03T11:51:22.116Z</time></trkpt><trkpt lat="44.5233819" lon="10.8933504"><ele>127.0</ele><time>2026-05-03T11:51:23.116Z</time></trkpt><trkpt lat="44.5234811" lon="10.8934941"><ele>127.0</ele><time>2026-05-03T11:51:24.117Z</time></trkpt><trkpt lat="44.5235802" lon="10.8936357"><ele>126.5</ele><time>2026-05-03T11:51:25.117Z</time></trkpt><trkpt lat="44.5236797" lon="10.8937769"><ele>126.0</ele><time>2026-05-03T11:51:26.118Z</time></trkpt><trkpt lat="44.5237786" lon="10.893919"><ele>125.5</ele><time>2026-05-03T11:51:27.12Z</time></trkpt><trkpt lat="44.5238777" lon="10.8940611"><ele>125.0</ele><time>2026-05-03T11:51:28.117Z</time></trkpt><trkpt lat="44.5239798" lon="10.8942048"><ele>124.5</ele><time>2026-05-03T11:51:29.115Z</time></trkpt><trkpt lat="44.5240815" lon="10.8943498"><ele>124.0</ele><time>2026-05-03T11:51:30.115Z</time></trkpt><trkpt lat="44.5241849" lon="10.894499"><ele>123.5</ele><time>2026-05-03T11:51:31.116Z</time></trkpt><trkpt lat="44.524291" lon="10.8946488"><ele>123.0</ele><time>2026-05-03T11:51:32.118Z</time></trkpt><trkpt lat="44.524399" lon="10.8947961"><ele>123.0</ele><time>2026-05-03T11:51:33.116Z</time></trkpt><trkpt lat="44.5245149" lon="10.8949401"><ele>123.0</ele><time>2026-05-03T11:51:34.122Z</time></trkpt><trkpt lat="44.5246361" lon="10.8950801"><ele>123.0</ele><time>2026-05-03T11:51:35.116Z</time></trkpt><trkpt lat="44.52476" lon="10.8952151"><ele>123.33333333333334</ele><time>2026-05-03T11:51:36.117Z</time></trkpt><trkpt lat="44.5248875" lon="10.8953437"><ele>123.66666666666667</ele><time>2026-05-03T11:51:37.117Z</time></trkpt><trkpt lat="44.525019" lon="10.895463"><ele>124.0</ele><time>2026-05-03T11:51:38.119Z</time></trkpt><trkpt lat="44.5251421" lon="10.8955715"><ele>124.0</ele><time>2026-05-03T11:51:39.118Z</time></trkpt><trkpt lat="44.5252604" lon="10.8956753"><ele>124.0</ele><time>2026-05-03T11:51:40.117Z</time></trkpt><trkpt lat="44.5253735" lon="10.8957761"><ele>124.0</ele><time>2026-05-03T11:51:41.117Z</time></trkpt><trkpt lat="44.525481" lon="10.8958778"><ele>124.0</ele><time>2026-05-03T11:51:42.116Z</time></trkpt><trkpt lat="44.5255776" lon="10.8959816"><ele>123.80000000000001</ele><time>2026-05-03T11:51:43.116Z</time></trkpt><trkpt lat="44.525664" lon="10.8960854"><ele>123.60000000000001</ele><time>2026-05-03T11:51:44.116Z</time></trkpt><trkpt lat="44.5257385" lon="10.8961912"><ele>123.4</ele><time>2026-05-03T11:51:45.115Z</time></trkpt><trkpt lat="44.5257973" lon="10.8962941"><ele>123.2</ele><time>2026-05-03T11:51:46.117Z</time></trkpt><trkpt lat="44.5258398" lon="10.8964049"><ele>123.0</ele><time>2026-05-03T11:51:47.118Z</time></trkpt><trkpt lat="44.5258707" lon="10.8965311"><ele>123.0</ele><time>2026-05-03T11:51:48.119Z</time></trkpt><trkpt lat="44.5258985" lon="10.8966629"><ele>123.00000000000001</ele><time>2026-05-03T11:51:49.117Z</time></trkpt><trkpt lat="44.5259345" lon="10.896783"><ele>123.00000000000001</ele><time>2026-05-03T11:51:50.116Z</time></trkpt><trkpt lat="44.5259948" lon="10.8968814"><ele>123.0</ele><time>2026-05-03T11:51:51.116Z</time></trkpt><trkpt lat="44.5260746" lon="10.8969459"><ele>123.0</ele><time>2026-05-03T11:51:52.115Z</time></trkpt><trkpt lat="44.5261718" lon="10.8969677"><ele>123.25</ele><time>2026-05-03T11:51:53.115Z</time></trkpt><trkpt lat="44.5262808" lon="10.896946"><ele>123.5</ele><time>2026-05-03T11:51:54.116Z</time></trkpt><trkpt lat="44.5263972" lon="10.8969048"><ele>123.75</ele><time>2026-05-03T11:51:55.115Z</time></trkpt><trkpt lat="44.5265147" lon="10.8969046"><ele>124.0</ele><time>2026-05-03T11:51:56.117Z</time></trkpt><trkpt lat="44.526627" lon="10.8969434"><ele>124.0</ele><time>2026-05-03T11:51:57.117Z</time></trkpt><trkpt lat="44.5267413" lon="10.8970157"><ele>124.0</ele><time>2026-05-03T11:51:58.116Z</time></trkpt><trkpt lat="44.5268609" lon="10.8971105"><ele>124.0</ele><time>2026-05-03T11:51:59.116Z</time></trkpt><trkpt lat="44.5269898" lon="10.8972184"><ele>124.0</ele><time>2026-05-03T11:52:00.117Z</time></trkpt><trkpt lat="44.5271206" lon="10.8973269"><ele>124.0</ele><time>2026-05-03T11:52:01.119Z</time></trkpt><trkpt lat="44.527256" lon="10.8974332"><ele>124.0</ele><time>2026-05-03T11:52:02.116Z</time></trkpt><trkpt lat="44.5273948" lon="10.8975402"><ele>124.0</ele><time>2026-05-03T11:52:03.117Z</time></trkpt><trkpt lat="44.5275412" lon="10.8976418"><ele>123.33333333333334</ele><time>2026-05-03T11:52:04.117Z</time></trkpt><trkpt lat="44.527691" lon="10.8977332"><ele>122.66666666666666</ele><time>2026-05-03T11:52:05.117Z</time></trkpt><trkpt lat="44.5278468" lon="10.897812"><ele>122.0</ele><time>2026-05-03T11:52:06.117Z</time></trkpt><trkpt lat="44.5279985" lon="10.8978749"><ele>121.25</ele><time>2026-05-03T11:52:07.116Z</time></trkpt><trkpt lat="44.5281451" lon="10.8979225"><ele>120.5</ele><time>2026-05-03T11:52:08.116Z</time></trkpt><trkpt lat="44.5282861" lon="10.8979634"><ele>119.75</ele><time>2026-05-03T11:52:09.116Z</time></trkpt><trkpt lat="44.5284223" lon="10.8979954"><ele>119.0</ele><time>2026-05-03T11:52:10.115Z</time></trkpt><trkpt lat="44.5285537" lon="10.8980219"><ele>119.0</ele><time>2026-05-03T11:52:11.117Z</time></trkpt><trkpt lat="44.5286734" lon="10.8980398"><ele>119.0</ele><time>2026-05-03T11:52:12.117Z</time></trkpt><trkpt lat="44.5287844" lon="10.8980559"><ele>119.0</ele><time>2026-05-03T11:52:13.117Z</time></trkpt><trkpt lat="44.5288834" lon="10.8980702"><ele>119.0</ele><time>2026-05-03T11:52:14.115Z</time></trkpt><trkpt lat="44.5289744" lon="10.8980846"><ele>119.0</ele><time>2026-05-03T11:52:15.117Z</time></trkpt><trkpt lat="44.5290542" lon="10.8981153"><ele>119.0</ele><time>2026-05-03T11:52:16.116Z</time></trkpt><trkpt lat="44.5291245" lon="10.8981686"><ele>119.0</ele><time>2026-05-03T11:52:17.118Z</time></trkpt><trkpt lat="44.5291914" lon="10.8982494"><ele>119.0</ele><time>2026-05-03T11:52:18.118Z</time></trkpt><trkpt lat="44.5292598" lon="10.8983449"><ele>119.0</ele><time>2026-05-03T11:52:19.115Z</time></trkpt><trkpt lat="44.5293413" lon="10.8984352"><ele>119.0</ele><time>2026-05-03T11:52:20.115Z</time></trkpt><trkpt lat="44.529427" lon="10.8985119"><ele>119.0</ele><time>2026-05-03T11:52:21.115Z</time></trkpt><trkpt lat="44.529514" lon="10.8984365"><ele>119.0</ele><time>2026-05-03T11:52:22.118Z</time></trkpt><trkpt lat="44.5295966" lon="10.8983889"><ele>119.0</ele><time>2026-05-03T11:52:23.115Z</time></trkpt><trkpt lat="44.5296571" lon="10.8982955"><ele>119.0</ele><time>2026-05-03T11:52:24.117Z</time></trkpt><trkpt lat="44.5296858" lon="10.8981847"><ele>119.0</ele><time>2026-05-03T11:52:25.118Z</time></trkpt><trkpt lat="44.5296917" lon="10.8980498"><ele>119.0</ele><time>2026-05-03T11:52:26.116Z</time></trkpt><trkpt lat="44.5296823" lon="10.897895"><ele>119.0</ele><time>2026-05-03T11:52:27.118Z</time></trkpt><trkpt lat="44.5296777" lon="10.8977299"><ele>119.0</ele><time>2026-05-03T11:52:28.117Z</time></trkpt><trkpt lat="44.5296858" lon="10.8975629"><ele>119.0</ele><time>2026-05-03T11:52:29.115Z</time></trkpt><trkpt lat="44.5296947" lon="10.8974002"><ele>119.0</ele><time>2026-05-03T11:52:30.118Z</time></trkpt><trkpt lat="44.5297052" lon="10.8972409"><ele>119.0</ele><time>2026-05-03T11:52:31.116Z</time></trkpt><trkpt lat="44.5297142" lon="10.8970955"><ele>119.0</ele><time>2026-05-03T11:52:32.121Z</time></trkpt><trkpt lat="44.5297233" lon="10.8969428"><ele>119.0</ele><time>2026-05-03T11:52:33.117Z</time></trkpt><trkpt lat="44.5297338" lon="10.8967902"><ele>119.0</ele><time>2026-05-03T11:52:34.116Z</time></trkpt><trkpt lat="44.5297471" lon="10.8966325"><ele>119.25</ele><time>2026-05-03T11:52:35.117Z</time></trkpt><trkpt lat="44.5297587" lon="10.8964724"><ele>119.5</ele><time>2026-05-03T11:52:36.117Z</time></trkpt><trkpt lat="44.5297658" lon="10.8963055"><ele>119.75</ele><time>2026-05-03T11:52:37.117Z</time></trkpt><trkpt lat="44.5297764" lon="10.8961245"><ele>120.0</ele><time>2026-05-03T11:52:38.117Z</time></trkpt><trkpt lat="44.5297931" lon="10.8959352"><ele>120.5</ele><time>2026-05-03T11:52:39.121Z</time></trkpt><trkpt lat="44.5298203" lon="10.8957414"><ele>121.0</ele><time>2026-05-03T11:52:40.116Z</time></trkpt><trkpt lat="44.5298549" lon="10.895539"><ele>121.5</ele><time>2026-05-03T11:52:41.118Z</time></trkpt><trkpt lat="44.5298947" lon="10.895326"><ele>122.0</ele><time>2026-05-03T11:52:42.117Z</time></trkpt><trkpt lat="44.5299406" lon="10.895101"><ele>122.0</ele><time>2026-05-03T11:52:43.116Z</time></trkpt><trkpt lat="44.5299914" lon="10.8948716"><ele>122.0</ele><time>2026-05-03T11:52:44.117Z</time></trkpt><trkpt lat="44.5300459" lon="10.8946343"><ele>122.0</ele><time>2026-05-03T11:52:45.116Z</time></trkpt><trkpt lat="44.530106" lon="10.8943907"><ele>122.0</ele><time>2026-05-03T11:52:46.118Z</time></trkpt><trkpt lat="44.5301694" lon="10.8941515"><ele>122.0</ele><time>2026-05-03T11:52:47.116Z</time></trkpt><trkpt lat="44.5302346" lon="10.8939195"><ele>122.0</ele><time>2026-05-03T11:52:48.117Z</time></trkpt><trkpt lat="44.5303017" lon="10.8936976"><ele>122.0</ele><time>2026-05-03T11:52:49.116Z</time></trkpt><trkpt lat="44.5303675" lon="10.8934844"><ele>122.0</ele><time>2026-05-03T11:52:50.117Z</time></trkpt><trkpt lat="44.530428" lon="10.8932909"><ele>122.0</ele><time>2026-05-03T11:52:51.117Z</time></trkpt><trkpt lat="44.5304822" lon="10.8931178"><ele>121.39999999999999</ele><time>2026-05-03T11:52:52.117Z</time></trkpt><trkpt lat="44.53053" lon="10.8929736"><ele>120.79999999999998</ele><time>2026-05-03T11:52:53.118Z</time></trkpt><trkpt lat="44.5305703" lon="10.892857"><ele>120.2</ele><time>2026-05-03T11:52:54.121Z</time></trkpt><trkpt lat="44.5306076" lon="10.8927606"><ele>119.6</ele><time>2026-05-03T11:52:55.118Z</time></trkpt><trkpt lat="44.5306409" lon="10.8926791"><ele>119.0</ele><time>2026-05-03T11:52:56.118Z</time></trkpt><trkpt lat="44.5306923" lon="10.892535"><ele>118.99999999999999</ele><time>2026-05-03T11:52:58.12Z</time></trkpt><trkpt lat="44.530736" lon="10.8924325"><ele>119.0</ele><time>2026-05-03T11:53:00.119Z</time></trkpt><trkpt lat="44.5308026" lon="10.8923833"><ele>119.0</ele><time>2026-05-03T11:53:02.118Z</time></trkpt><trkpt lat="44.5308775" lon="10.8923943"><ele>119.0</ele><time>2026-05-03T11:53:04.116Z</time></trkpt><trkpt lat="44.5309421" lon="10.8924387"><ele>118.99999999999999</ele><time>2026-05-03T11:53:06.119Z</time></trkpt><trkpt lat="44.5310019" lon="10.8924863"><ele>119.0</ele><time>2026-05-03T11:53:08.118Z</time></trkpt><trkpt lat="44.5310743" lon="10.892513"><ele>118.99999999999999</ele><time>2026-05-03T11:53:10.12Z</time></trkpt><trkpt lat="44.5311434" lon="10.8924775"><ele>119.0</ele><time>2026-05-03T11:53:12.118Z</time></trkpt><trkpt lat="44.5311891" lon="10.8924122"><ele>119.0</ele><time>2026-05-03T11:53:14.115Z</time></trkpt><trkpt lat="44.5312239" lon="10.892316"><ele>119.0</ele><time>2026-05-03T11:53:17.117Z</time></trkpt><trkpt lat="44.5312467" lon="10.8922249"><ele>118.99999999999999</ele><time>2026-05-03T11:57:55.114Z</time></trkpt><trkpt lat="44.5312487" lon="10.8920906"><ele>119.0</ele><time>2026-05-03T11:57:58.117Z</time></trkpt><trkpt lat="44.5311937" lon="10.8920298"><ele>118.99999999999999</ele><time>2026-05-03T11:58:00.113Z</time></trkpt><trkpt lat="44.5311175" lon="10.8920374"><ele>119.0</ele><time>2026-05-03T11:58:03.114Z</time></trkpt><trkpt lat="44.5310471" lon="10.8920282"><ele>119.0</ele><time>2026-05-03T11:58:06.115Z</time></trkpt><trkpt lat="44.5309792" lon="10.8919697"><ele>119.0</ele><time>2026-05-03T11:58:10.116Z</time></trkpt><trkpt lat="44.5309162" lon="10.8919058"><ele>118.99999999999999</ele><time>2026-05-03T11:58:14.114Z</time></trkpt><trkpt lat="44.5308855" lon="10.8918131"><ele>119.0</ele><time>2026-05-03T11:58:25.116Z</time></trkpt><trkpt lat="44.5308971" lon="10.8917086"><ele>119.0</ele><time>2026-05-03T11:58:27.114Z</time></trkpt><trkpt lat="44.5309521" lon="10.8915372"><ele>119.0</ele><time>2026-05-03T11:58:29.113Z</time></trkpt><trkpt lat="44.5309885" lon="10.8914264"><ele>119.0</ele><time>2026-05-03T11:58:30.118Z</time></trkpt><trkpt lat="44.5310271" lon="10.8913052"><ele>119.0</ele><time>2026-05-03T11:58:31.115Z</time></trkpt><trkpt lat="44.5310691" lon="10.8911798"><ele>119.0</ele><time>2026-05-03T11:58:32.115Z</time></trkpt><trkpt lat="44.5311141" lon="10.8910409"><ele>119.0</ele><time>2026-05-03T11:58:33.113Z</time></trkpt><trkpt lat="44.5311617" lon="10.8908934"><ele>119.0</ele><time>2026-05-03T11:58:34.114Z</time></trkpt><trkpt lat="44.5312101" lon="10.8907377"><ele>119.0</ele><time>2026-05-03T11:58:35.115Z</time></trkpt><trkpt lat="44.5312595" lon="10.8905781"><ele>119.0</ele><time>2026-05-03T11:58:36.115Z</time></trkpt><trkpt lat="44.5313094" lon="10.8904155"><ele>118.5</ele><time>2026-05-03T11:58:37.116Z</time></trkpt><trkpt lat="44.5313625" lon="10.890246"><ele>118.0</ele><time>2026-05-03T11:58:38.116Z</time></trkpt><trkpt lat="44.5314162" lon="10.8900759"><ele>117.5</ele><time>2026-05-03T11:58:39.115Z</time></trkpt><trkpt lat="44.5314718" lon="10.8899003"><ele>117.0</ele><time>2026-05-03T11:58:40.116Z</time></trkpt><trkpt lat="44.531527" lon="10.8897221"><ele>117.0</ele><time>2026-05-03T11:58:41.118Z</time></trkpt><trkpt lat="44.5315821" lon="10.8895378"><ele>117.0</ele><time>2026-05-03T11:58:42.114Z</time></trkpt><trkpt lat="44.5316372" lon="10.8893467"><ele>117.0</ele><time>2026-05-03T11:58:43.116Z</time></trkpt><trkpt lat="44.5316916" lon="10.8891503"><ele>117.0</ele><time>2026-05-03T11:58:44.114Z</time></trkpt><trkpt lat="44.5317446" lon="10.8889466"><ele>117.0</ele><time>2026-05-03T11:58:45.118Z</time></trkpt><trkpt lat="44.531795" lon="10.8887384"><ele>117.0</ele><time>2026-05-03T11:58:46.114Z</time></trkpt><trkpt lat="44.5318407" lon="10.8885337"><ele>117.0</ele><time>2026-05-03T11:58:47.115Z</time></trkpt><trkpt lat="44.5318848" lon="10.8883371"><ele>117.0</ele><time>2026-05-03T11:58:48.115Z</time></trkpt><trkpt lat="44.5319272" lon="10.8881471"><ele>117.0</ele><time>2026-05-03T11:58:49.116Z</time></trkpt><trkpt lat="44.5319666" lon="10.8879626"><ele>117.0</ele><time>2026-05-03T11:58:50.114Z</time></trkpt><trkpt lat="44.5320075" lon="10.8877691"><ele>117.0</ele><time>2026-05-03T11:58:51.115Z</time></trkpt><trkpt lat="44.5320483" lon="10.8875718"><ele>117.0</ele><time>2026-05-03T11:58:52.115Z</time></trkpt><trkpt lat="44.5320885" lon="10.8873684"><ele>117.0</ele><time>2026-05-03T11:58:53.114Z</time></trkpt><trkpt lat="44.5321297" lon="10.8871608"><ele>117.0</ele><time>2026-05-03T11:58:54.114Z</time></trkpt><trkpt lat="44.5321728" lon="10.8869497"><ele>117.33333333333334</ele><time>2026-05-03T11:58:55.116Z</time></trkpt><trkpt lat="44.5322174" lon="10.8867345"><ele>117.66666666666667</ele><time>2026-05-03T11:58:56.116Z</time></trkpt><trkpt lat="44.5322616" lon="10.8865132"><ele>118.0</ele><time>2026-05-03T11:58:57.117Z</time></trkpt><trkpt lat="44.5323063" lon="10.8862874"><ele>118.0</ele><time>2026-05-03T11:58:58.117Z</time></trkpt><trkpt lat="44.5323507" lon="10.8860611"><ele>118.0</ele><time>2026-05-03T11:58:59.115Z</time></trkpt><trkpt lat="44.5323938" lon="10.8858438"><ele>118.0</ele><time>2026-05-03T11:59:00.114Z</time></trkpt><trkpt lat="44.5324365" lon="10.8856254"><ele>119.0</ele><time>2026-05-03T11:59:01.115Z</time></trkpt><trkpt lat="44.5324796" lon="10.8854061"><ele>120.0</ele><time>2026-05-03T11:59:02.116Z</time></trkpt><trkpt lat="44.5325231" lon="10.8851857"><ele>121.0</ele><time>2026-05-03T11:59:03.115Z</time></trkpt><trkpt lat="44.532569" lon="10.8849669"><ele>121.0</ele><time>2026-05-03T11:59:04.115Z</time></trkpt><trkpt lat="44.5326134" lon="10.8847459"><ele>121.0</ele><time>2026-05-03T11:59:05.116Z</time></trkpt><trkpt lat="44.5326587" lon="10.8845246"><ele>121.0</ele><time>2026-05-03T11:59:06.119Z</time></trkpt><trkpt lat="44.5327041" lon="10.884302"><ele>120.33333333333334</ele><time>2026-05-03T11:59:07.114Z</time></trkpt><trkpt lat="44.5327483" lon="10.8840773"><ele>119.66666666666666</ele><time>2026-05-03T11:59:08.114Z</time></trkpt><trkpt lat="44.532793" lon="10.8838493"><ele>119.0</ele><time>2026-05-03T11:59:09.117Z</time></trkpt><trkpt lat="44.5328385" lon="10.8836212"><ele>119.0</ele><time>2026-05-03T11:59:10.115Z</time></trkpt><trkpt lat="44.5328848" lon="10.8833916"><ele>119.0</ele><time>2026-05-03T11:59:11.115Z</time></trkpt><trkpt lat="44.5329313" lon="10.8831616"><ele>119.0</ele><time>2026-05-03T11:59:12.115Z</time></trkpt><trkpt lat="44.5329782" lon="10.8829248"><ele>118.66666666666666</ele><time>2026-05-03T11:59:13.115Z</time></trkpt><trkpt lat="44.5330259" lon="10.8826831"><ele>118.33333333333334</ele><time>2026-05-03T11:59:14.117Z</time></trkpt><trkpt lat="44.5330725" lon="10.8824486"><ele>118.0</ele><time>2026-05-03T11:59:15.115Z</time></trkpt><trkpt lat="44.5331201" lon="10.8822128"><ele>118.0</ele><time>2026-05-03T11:59:16.118Z</time></trkpt><trkpt lat="44.5331662" lon="10.8819824"><ele>118.0</ele><time>2026-05-03T11:59:17.119Z</time></trkpt><trkpt lat="44.5332116" lon="10.8817512"><ele>118.0</ele><time>2026-05-03T11:59:18.117Z</time></trkpt><trkpt lat="44.533258" lon="10.8815192"><ele>118.0</ele><time>2026-05-03T11:59:19.115Z</time></trkpt><trkpt lat="44.5333056" lon="10.881284"><ele>118.0</ele><time>2026-05-03T11:59:20.115Z</time></trkpt><trkpt lat="44.5333528" lon="10.8810468"><ele>118.0</ele><time>2026-05-03T11:59:21.119Z</time></trkpt><trkpt lat="44.5334003" lon="10.880814"><ele>118.0</ele><time>2026-05-03T11:59:22.119Z</time></trkpt><trkpt lat="44.5334463" lon="10.8805791"><ele>118.0</ele><time>2026-05-03T11:59:23.12Z</time></trkpt><trkpt lat="44.5334912" lon="10.8803498"><ele>118.0</ele><time>2026-05-03T11:59:24.116Z</time></trkpt><trkpt lat="44.5335354" lon="10.8801286"><ele>118.66666666666667</ele><time>2026-05-03T11:59:25.114Z</time></trkpt><trkpt lat="44.5335788" lon="10.8799086"><ele>119.33333333333334</ele><time>2026-05-03T11:59:26.115Z</time></trkpt><trkpt lat="44.5336224" lon="10.8796885"><ele>120.0</ele><time>2026-05-03T11:59:27.116Z</time></trkpt><trkpt lat="44.5336675" lon="10.8794698"><ele>120.0</ele><time>2026-05-03T11:59:28.12Z</time></trkpt><trkpt lat="44.5337123" lon="10.8792467"><ele>120.0</ele><time>2026-05-03T11:59:29.117Z</time></trkpt><trkpt lat="44.5337561" lon="10.8790237"><ele>120.0</ele><time>2026-05-03T11:59:30.116Z</time></trkpt><trkpt lat="44.5338003" lon="10.8787993"><ele>119.66666666666666</ele><time>2026-05-03T11:59:31.12Z</time></trkpt><trkpt lat="44.5338454" lon="10.8785743"><ele>119.33333333333333</ele><time>2026-05-03T11:59:32.118Z</time></trkpt><trkpt lat="44.533888" lon="10.878352"><ele>119.0</ele><time>2026-05-03T11:59:33.115Z</time></trkpt><trkpt lat="44.5339318" lon="10.8781286"><ele>119.0</ele><time>2026-05-03T11:59:34.121Z</time></trkpt><trkpt lat="44.5339754" lon="10.8779036"><ele>119.0</ele><time>2026-05-03T11:59:35.118Z</time></trkpt><trkpt lat="44.5340204" lon="10.8776791"><ele>119.0</ele><time>2026-05-03T11:59:36.118Z</time></trkpt><trkpt lat="44.5340667" lon="10.8774537"><ele>118.66666666666666</ele><time>2026-05-03T11:59:37.116Z</time></trkpt><trkpt lat="44.5341118" lon="10.8772247"><ele>118.33333333333334</ele><time>2026-05-03T11:59:38.118Z</time></trkpt><trkpt lat="44.5341578" lon="10.8769891"><ele>118.0</ele><time>2026-05-03T11:59:39.116Z</time></trkpt><trkpt lat="44.5342039" lon="10.8767481"><ele>118.0</ele><time>2026-05-03T11:59:40.12Z</time></trkpt><trkpt lat="44.5342521" lon="10.8765044"><ele>118.0</ele><time>2026-05-03T11:59:41.119Z</time></trkpt><trkpt lat="44.5343006" lon="10.8762594"><ele>118.0</ele><time>2026-05-03T11:59:42.118Z</time></trkpt><trkpt lat="44.5343494" lon="10.876009"><ele>118.33333333333334</ele><time>2026-05-03T11:59:43.117Z</time></trkpt><trkpt lat="44.5343991" lon="10.8757564"><ele>118.66666666666666</ele><time>2026-05-03T11:59:44.115Z</time></trkpt><trkpt lat="44.5344486" lon="10.8755013"><ele>119.0</ele><time>2026-05-03T11:59:45.116Z</time></trkpt><trkpt lat="44.5344995" lon="10.875243"><ele>119.33333333333333</ele><time>2026-05-03T11:59:46.115Z</time></trkpt><trkpt lat="44.5345514" lon="10.8749885"><ele>119.66666666666666</ele><time>2026-05-03T11:59:47.117Z</time></trkpt><trkpt lat="44.5346015" lon="10.874746"><ele>120.0</ele><time>2026-05-03T11:59:48.115Z</time></trkpt><trkpt lat="44.5346475" lon="10.8745161"><ele>119.0</ele><time>2026-05-03T11:59:49.115Z</time></trkpt><trkpt lat="44.5346938" lon="10.8742885"><ele>118.0</ele><time>2026-05-03T11:59:50.118Z</time></trkpt><trkpt lat="44.53474" lon="10.8740599"><ele>117.0</ele><time>2026-05-03T11:59:51.121Z</time></trkpt><trkpt lat="44.5347862" lon="10.8738279"><ele>117.0</ele><time>2026-05-03T11:59:52.116Z</time></trkpt><trkpt lat="44.5348307" lon="10.8735938"><ele>117.0</ele><time>2026-05-03T11:59:53.113Z</time></trkpt><trkpt lat="44.5348757" lon="10.8733634"><ele>117.0</ele><time>2026-05-03T11:59:54.116Z</time></trkpt><trkpt lat="44.534922" lon="10.8731338"><ele>117.0</ele><time>2026-05-03T11:59:55.118Z</time></trkpt><trkpt lat="44.5349678" lon="10.8729088"><ele>117.0</ele><time>2026-05-03T11:59:56.119Z</time></trkpt><trkpt lat="44.5350118" lon="10.8726804"><ele>117.0</ele><time>2026-05-03T11:59:57.12Z</time></trkpt><trkpt lat="44.5350588" lon="10.8724543"><ele>117.0</ele><time>2026-05-03T11:59:58.118Z</time></trkpt><trkpt lat="44.5351027" lon="10.8722369"><ele>117.0</ele><time>2026-05-03T11:59:59.119Z</time></trkpt><trkpt lat="44.5351474" lon="10.8720248"><ele>117.0</ele><time>2026-05-03T12:00:00.116Z</time></trkpt><trkpt lat="44.5351896" lon="10.871817"><ele>116.66666666666666</ele><time>2026-05-03T12:00:01.116Z</time></trkpt><trkpt lat="44.5352317" lon="10.8716112"><ele>116.33333333333333</ele><time>2026-05-03T12:00:02.116Z</time></trkpt><trkpt lat="44.5352746" lon="10.8714049"><ele>116.0</ele><time>2026-05-03T12:00:03.115Z</time></trkpt><trkpt lat="44.5353164" lon="10.8711953"><ele>116.0</ele><time>2026-05-03T12:00:04.12Z</time></trkpt><trkpt lat="44.5353587" lon="10.8709839"><ele>116.0</ele><time>2026-05-03T12:00:05.115Z</time></trkpt><trkpt lat="44.5354006" lon="10.870778"><ele>116.0</ele><time>2026-05-03T12:00:06.119Z</time></trkpt><trkpt lat="44.5354417" lon="10.8705725"><ele>115.33333333333333</ele><time>2026-05-03T12:00:07.116Z</time></trkpt><trkpt lat="44.5354816" lon="10.8703647"><ele>114.66666666666666</ele><time>2026-05-03T12:00:08.119Z</time></trkpt><trkpt lat="44.5355241" lon="10.8701571"><ele>114.0</ele><time>2026-05-03T12:00:09.119Z</time></trkpt><trkpt lat="44.5355667" lon="10.869948"><ele>115.33333333333334</ele><time>2026-05-03T12:00:10.117Z</time></trkpt><trkpt lat="44.5356083" lon="10.8697359"><ele>116.66666666666667</ele><time>2026-05-03T12:00:11.116Z</time></trkpt><trkpt lat="44.5356504" lon="10.8695205"><ele>118.0</ele><time>2026-05-03T12:00:12.116Z</time></trkpt><trkpt lat="44.5356944" lon="10.8693027"><ele>118.0</ele><time>2026-05-03T12:00:13.116Z</time></trkpt><trkpt lat="44.5357385" lon="10.8690844"><ele>118.0</ele><time>2026-05-03T12:00:14.121Z</time></trkpt><trkpt lat="44.5357815" lon="10.8688653"><ele>118.0</ele><time>2026-05-03T12:00:15.116Z</time></trkpt><trkpt lat="44.5358228" lon="10.8686576"><ele>118.0</ele><time>2026-05-03T12:00:16.116Z</time></trkpt><trkpt lat="44.5358629" lon="10.8684534"><ele>118.0</ele><time>2026-05-03T12:00:17.116Z</time></trkpt><trkpt lat="44.535903" lon="10.8682476"><ele>118.0</ele><time>2026-05-03T12:00:18.122Z</time></trkpt><trkpt lat="44.5359424" lon="10.8680458"><ele>118.5</ele><time>2026-05-03T12:00:19.117Z</time></trkpt><trkpt lat="44.5359816" lon="10.8678454"><ele>119.0</ele><time>2026-05-03T12:00:20.121Z</time></trkpt><trkpt lat="44.536021" lon="10.8676471"><ele>119.5</ele><time>2026-05-03T12:00:21.117Z</time></trkpt><trkpt lat="44.5360595" lon="10.8674558"><ele>120.0</ele><time>2026-05-03T12:00:22.12Z</time></trkpt><trkpt lat="44.5360937" lon="10.8672682"><ele>120.33333333333334</ele><time>2026-05-03T12:00:23.122Z</time></trkpt><trkpt lat="44.5361284" lon="10.8670785"><ele>120.66666666666667</ele><time>2026-05-03T12:00:24.121Z</time></trkpt><trkpt lat="44.5361663" lon="10.866872"><ele>121.0</ele><time>2026-05-03T12:00:25.121Z</time></trkpt><trkpt lat="44.5362095" lon="10.8666547"><ele>121.0</ele><time>2026-05-03T12:00:26.115Z</time></trkpt><trkpt lat="44.5362579" lon="10.8664321"><ele>121.0</ele><time>2026-05-03T12:00:27.118Z</time></trkpt><trkpt lat="44.5363098" lon="10.8662024"><ele>121.0</ele><time>2026-05-03T12:00:28.115Z</time></trkpt><trkpt lat="44.5363678" lon="10.8659732"><ele>120.33333333333334</ele><time>2026-05-03T12:00:29.117Z</time></trkpt><trkpt lat="44.5364325" lon="10.865748"><ele>119.66666666666666</ele><time>2026-05-03T12:00:30.115Z</time></trkpt><trkpt lat="44.5365048" lon="10.8655306"><ele>119.0</ele><time>2026-05-03T12:00:31.119Z</time></trkpt><trkpt lat="44.5365834" lon="10.8653205"><ele>119.0</ele><time>2026-05-03T12:00:32.116Z</time></trkpt><trkpt lat="44.5366655" lon="10.8651118"><ele>119.0</ele><time>2026-05-03T12:00:33.121Z</time></trkpt><trkpt lat="44.5367519" lon="10.8649077"><ele>119.0</ele><time>2026-05-03T12:00:34.116Z</time></trkpt><trkpt lat="44.5368437" lon="10.8647106"><ele>119.0</ele><time>2026-05-03T12:00:35.12Z</time></trkpt><trkpt lat="44.536939" lon="10.8645221"><ele>119.0</ele><time>2026-05-03T12:00:36.115Z</time></trkpt><trkpt lat="44.5370392" lon="10.8643378"><ele>119.0</ele><time>2026-05-03T12:00:37.115Z</time></trkpt><trkpt lat="44.5371439" lon="10.8641546"><ele>118.33333333333333</ele><time>2026-05-03T12:00:38.12Z</time></trkpt><trkpt lat="44.5372511" lon="10.8639716"><ele>117.66666666666666</ele><time>2026-05-03T12:00:39.115Z</time></trkpt><trkpt lat="44.5373611" lon="10.8637877"><ele>117.0</ele><time>2026-05-03T12:00:40.119Z</time></trkpt><trkpt lat="44.5374728" lon="10.8635965"><ele>116.66666666666666</ele><time>2026-05-03T12:00:41.118Z</time></trkpt><trkpt lat="44.5375836" lon="10.8634047"><ele>116.33333333333333</ele><time>2026-05-03T12:00:42.118Z</time></trkpt><trkpt lat="44.5376922" lon="10.8632094"><ele>116.0</ele><time>2026-05-03T12:00:43.113Z</time></trkpt><trkpt lat="44.537794" lon="10.8630051"><ele>116.0</ele><time>2026-05-03T12:00:44.116Z</time></trkpt><trkpt lat="44.5378888" lon="10.8627947"><ele>116.0</ele><time>2026-05-03T12:00:45.115Z</time></trkpt><trkpt lat="44.5379754" lon="10.8625759"><ele>116.0</ele><time>2026-05-03T12:00:46.119Z</time></trkpt><trkpt lat="44.5380515" lon="10.8623566"><ele>116.0</ele><time>2026-05-03T12:00:47.113Z</time></trkpt><trkpt lat="44.53812" lon="10.862141"><ele>116.0</ele><time>2026-05-03T12:00:48.115Z</time></trkpt><trkpt lat="44.5381852" lon="10.8619231"><ele>116.0</ele><time>2026-05-03T12:00:49.116Z</time></trkpt><trkpt lat="44.5382464" lon="10.8617042"><ele>116.0</ele><time>2026-05-03T12:00:50.121Z</time></trkpt><trkpt lat="44.5383001" lon="10.8614911"><ele>116.0</ele><time>2026-05-03T12:00:51.119Z</time></trkpt><trkpt lat="44.5383555" lon="10.8612764"><ele>116.0</ele><time>2026-05-03T12:00:52.118Z</time></trkpt><trkpt lat="44.5384106" lon="10.8610632"><ele>116.33333333333333</ele><time>2026-05-03T12:00:53.116Z</time></trkpt><trkpt lat="44.5384648" lon="10.8608513"><ele>116.66666666666666</ele><time>2026-05-03T12:00:54.122Z</time></trkpt><trkpt lat="44.5385203" lon="10.8606412"><ele>117.0</ele><time>2026-05-03T12:00:55.118Z</time></trkpt><trkpt lat="44.5385782" lon="10.8604317"><ele>117.0</ele><time>2026-05-03T12:00:56.115Z</time></trkpt><trkpt lat="44.5386385" lon="10.8602207"><ele>117.0</ele><time>2026-05-03T12:00:57.122Z</time></trkpt><trkpt lat="44.5387035" lon="10.8600062"><ele>117.0</ele><time>2026-05-03T12:00:58.121Z</time></trkpt><trkpt lat="44.5387751" lon="10.8597914"><ele>116.66666666666666</ele><time>2026-05-03T12:00:59.117Z</time></trkpt><trkpt lat="44.5388515" lon="10.8595732"><ele>116.33333333333333</ele><time>2026-05-03T12:01:00.115Z</time></trkpt><trkpt lat="44.5389335" lon="10.8593527"><ele>116.0</ele><time>2026-05-03T12:01:01.115Z</time></trkpt><trkpt lat="44.5390207" lon="10.8591313"><ele>116.0</ele><time>2026-05-03T12:01:02.119Z</time></trkpt><trkpt lat="44.5391128" lon="10.8589096"><ele>116.0</ele><time>2026-05-03T12:01:03.117Z</time></trkpt><trkpt lat="44.539208" lon="10.8586866"><ele>116.0</ele><time>2026-05-03T12:01:04.116Z</time></trkpt><trkpt lat="44.5393028" lon="10.8584687"><ele>116.33333333333333</ele><time>2026-05-03T12:01:05.117Z</time></trkpt><trkpt lat="44.5393951" lon="10.8582586"><ele>116.66666666666666</ele><time>2026-05-03T12:01:06.12Z</time></trkpt><trkpt lat="44.5394836" lon="10.858055"><ele>117.0</ele><time>2026-05-03T12:01:07.116Z</time></trkpt><trkpt lat="44.5395701" lon="10.8578598"><ele>117.0</ele><time>2026-05-03T12:01:08.115Z</time></trkpt><trkpt lat="44.5396535" lon="10.8576706"><ele>117.0</ele><time>2026-05-03T12:01:09.119Z</time></trkpt><trkpt lat="44.5397344" lon="10.8574869"><ele>117.0</ele><time>2026-05-03T12:01:10.121Z</time></trkpt><trkpt lat="44.5398117" lon="10.8573041"><ele>117.0</ele><time>2026-05-03T12:01:11.12Z</time></trkpt><trkpt lat="44.5398877" lon="10.8571232"><ele>117.0</ele><time>2026-05-03T12:01:12.116Z</time></trkpt><trkpt lat="44.5399627" lon="10.8569399"><ele>117.0</ele><time>2026-05-03T12:01:13.116Z</time></trkpt><trkpt lat="44.5400363" lon="10.8567526"><ele>116.66666666666666</ele><time>2026-05-03T12:01:14.117Z</time></trkpt><trkpt lat="44.5401089" lon="10.8565621"><ele>116.33333333333333</ele><time>2026-05-03T12:01:15.116Z</time></trkpt><trkpt lat="44.540179" lon="10.8563688"><ele>116.0</ele><time>2026-05-03T12:01:16.119Z</time></trkpt><trkpt lat="44.5402484" lon="10.8561746"><ele>116.0</ele><time>2026-05-03T12:01:17.117Z</time></trkpt><trkpt lat="44.5403168" lon="10.855981"><ele>116.0</ele><time>2026-05-03T12:01:18.116Z</time></trkpt><trkpt lat="44.5403795" lon="10.855791"><ele>116.0</ele><time>2026-05-03T12:01:19.118Z</time></trkpt><trkpt lat="44.5404391" lon="10.8555971"><ele>115.0</ele><time>2026-05-03T12:01:20.116Z</time></trkpt><trkpt lat="44.5404975" lon="10.8553996"><ele>114.0</ele><time>2026-05-03T12:01:21.115Z</time></trkpt><trkpt lat="44.5405572" lon="10.855205"><ele>113.0</ele><time>2026-05-03T12:01:22.122Z</time></trkpt><trkpt lat="44.5406157" lon="10.8550084"><ele>112.75</ele><time>2026-05-03T12:01:23.115Z</time></trkpt><trkpt lat="44.5406721" lon="10.8548176"><ele>112.5</ele><time>2026-05-03T12:01:24.12Z</time></trkpt><trkpt lat="44.5407273" lon="10.8546317"><ele>112.25</ele><time>2026-05-03T12:01:25.116Z</time></trkpt><trkpt lat="44.5407799" lon="10.8544425"><ele>112.0</ele><time>2026-05-03T12:01:26.115Z</time></trkpt><trkpt lat="44.5408323" lon="10.85425"><ele>112.0</ele><time>2026-05-03T12:01:27.116Z</time></trkpt><trkpt lat="44.5408854" lon="10.8540577"><ele>112.0</ele><time>2026-05-03T12:01:28.119Z</time></trkpt><trkpt lat="44.540939" lon="10.8538659"><ele>112.0</ele><time>2026-05-03T12:01:29.115Z</time></trkpt><trkpt lat="44.5409923" lon="10.8536744"><ele>112.0</ele><time>2026-05-03T12:01:30.116Z</time></trkpt><trkpt lat="44.5410464" lon="10.8534793"><ele>112.0</ele><time>2026-05-03T12:01:31.118Z</time></trkpt><trkpt lat="44.5410999" lon="10.8532826"><ele>112.0</ele><time>2026-05-03T12:01:32.117Z</time></trkpt><trkpt lat="44.541154" lon="10.8530851"><ele>112.0</ele><time>2026-05-03T12:01:33.117Z</time></trkpt><trkpt lat="44.5412078" lon="10.8528859"><ele>112.0</ele><time>2026-05-03T12:01:34.116Z</time></trkpt><trkpt lat="44.5412626" lon="10.8526859"><ele>112.0</ele><time>2026-05-03T12:01:35.117Z</time></trkpt><trkpt lat="44.5413191" lon="10.8524851"><ele>112.0</ele><time>2026-05-03T12:01:36.118Z</time></trkpt><trkpt lat="44.5413775" lon="10.8522837"><ele>112.0</ele><time>2026-05-03T12:01:37.118Z</time></trkpt><trkpt lat="44.5414349" lon="10.8520779"><ele>112.0</ele><time>2026-05-03T12:01:38.117Z</time></trkpt><trkpt lat="44.5414914" lon="10.8518718"><ele>112.0</ele><time>2026-05-03T12:01:39.116Z</time></trkpt><trkpt lat="44.5415475" lon="10.8516654"><ele>111.66666666666667</ele><time>2026-05-03T12:01:40.119Z</time></trkpt><trkpt lat="44.5416037" lon="10.8514598"><ele>111.33333333333334</ele><time>2026-05-03T12:01:41.116Z</time></trkpt><trkpt lat="44.5416603" lon="10.851255"><ele>111.0</ele><time>2026-05-03T12:01:42.116Z</time></trkpt><trkpt lat="44.5417171" lon="10.8510508"><ele>111.66666666666666</ele><time>2026-05-03T12:01:43.116Z</time></trkpt><trkpt lat="44.5417732" lon="10.8508473"><ele>112.33333333333333</ele><time>2026-05-03T12:01:44.117Z</time></trkpt><trkpt lat="44.5418302" lon="10.8506417"><ele>113.0</ele><time>2026-05-03T12:01:45.116Z</time></trkpt><trkpt lat="44.541888" lon="10.8504336"><ele>113.0</ele><time>2026-05-03T12:01:46.117Z</time></trkpt><trkpt lat="44.5419475" lon="10.8502215"><ele>113.0</ele><time>2026-05-03T12:01:47.117Z</time></trkpt><trkpt lat="44.5420076" lon="10.8500046"><ele>113.0</ele><time>2026-05-03T12:01:48.117Z</time></trkpt><trkpt lat="44.5420674" lon="10.8497822"><ele>114.33333333333333</ele><time>2026-05-03T12:01:49.117Z</time></trkpt><trkpt lat="44.542129" lon="10.8495553"><ele>115.66666666666666</ele><time>2026-05-03T12:01:50.119Z</time></trkpt><trkpt lat="44.5421926" lon="10.8493252"><ele>117.0</ele><time>2026-05-03T12:01:51.119Z</time></trkpt><trkpt lat="44.5422575" lon="10.8490928"><ele>117.0</ele><time>2026-05-03T12:01:52.118Z</time></trkpt><trkpt lat="44.5423222" lon="10.8488596"><ele>117.0</ele><time>2026-05-03T12:01:53.119Z</time></trkpt><trkpt lat="44.5423865" lon="10.8486274"><ele>117.0</ele><time>2026-05-03T12:01:54.117Z</time></trkpt><trkpt lat="44.5424476" lon="10.8484035"><ele>117.0</ele><time>2026-05-03T12:01:55.114Z</time></trkpt><trkpt lat="44.5425076" lon="10.8481831"><ele>117.0</ele><time>2026-05-03T12:01:56.114Z</time></trkpt><trkpt lat="44.5425677" lon="10.8479642"><ele>117.0</ele><time>2026-05-03T12:01:57.116Z</time></trkpt><trkpt lat="44.5426281" lon="10.8477436"><ele>117.33333333333334</ele><time>2026-05-03T12:01:58.115Z</time></trkpt><trkpt lat="44.5426894" lon="10.847522"><ele>117.66666666666667</ele><time>2026-05-03T12:01:59.117Z</time></trkpt><trkpt lat="44.5427518" lon="10.847298"><ele>118.0</ele><time>2026-05-03T12:02:00.115Z</time></trkpt><trkpt lat="44.5428159" lon="10.8470661"><ele>117.66666666666667</ele><time>2026-05-03T12:02:01.116Z</time></trkpt><trkpt lat="44.5428811" lon="10.8468269"><ele>117.33333333333334</ele><time>2026-05-03T12:02:02.116Z</time></trkpt><trkpt lat="44.5429487" lon="10.8465827"><ele>117.0</ele><time>2026-05-03T12:02:03.119Z</time></trkpt><trkpt lat="44.543017" lon="10.8463351"><ele>116.0</ele><time>2026-05-03T12:02:04.117Z</time></trkpt><trkpt lat="44.5430846" lon="10.8460837"><ele>115.0</ele><time>2026-05-03T12:02:05.116Z</time></trkpt><trkpt lat="44.5431535" lon="10.8458294"><ele>114.0</ele><time>2026-05-03T12:02:06.116Z</time></trkpt><trkpt lat="44.5432257" lon="10.8455749"><ele>114.33333333333334</ele><time>2026-05-03T12:02:07.114Z</time></trkpt><trkpt lat="44.5432986" lon="10.8453189"><ele>114.66666666666667</ele><time>2026-05-03T12:02:08.116Z</time></trkpt><trkpt lat="44.5433697" lon="10.8450608"><ele>115.0</ele><time>2026-05-03T12:02:09.113Z</time></trkpt><trkpt lat="44.5434408" lon="10.8448021"><ele>115.0</ele><time>2026-05-03T12:02:10.116Z</time></trkpt><trkpt lat="44.5435128" lon="10.8445434"><ele>115.0</ele><time>2026-05-03T12:02:11.114Z</time></trkpt><trkpt lat="44.5435841" lon="10.8442915"><ele>115.0</ele><time>2026-05-03T12:02:12.113Z</time></trkpt><trkpt lat="44.5436518" lon="10.844043"><ele>115.0</ele><time>2026-05-03T12:02:13.115Z</time></trkpt><trkpt lat="44.5437197" lon="10.8437953"><ele>115.0</ele><time>2026-05-03T12:02:14.117Z</time></trkpt><trkpt lat="44.543791" lon="10.8435521"><ele>115.0</ele><time>2026-05-03T12:02:15.116Z</time></trkpt><trkpt lat="44.5438685" lon="10.8433149"><ele>114.33333333333334</ele><time>2026-05-03T12:02:16.114Z</time></trkpt><trkpt lat="44.5439515" lon="10.8430835"><ele>113.66666666666666</ele><time>2026-05-03T12:02:17.115Z</time></trkpt><trkpt lat="44.5440404" lon="10.8428566"><ele>113.0</ele><time>2026-05-03T12:02:18.116Z</time></trkpt><trkpt lat="44.5441345" lon="10.8426326"><ele>112.33333333333333</ele><time>2026-05-03T12:02:19.113Z</time></trkpt><trkpt lat="44.5442327" lon="10.8424099"><ele>111.66666666666666</ele><time>2026-05-03T12:02:20.114Z</time></trkpt><trkpt lat="44.5443369" lon="10.8421915"><ele>111.0</ele><time>2026-05-03T12:02:21.113Z</time></trkpt><trkpt lat="44.5444464" lon="10.8419757"><ele>110.0</ele><time>2026-05-03T12:02:22.117Z</time></trkpt><trkpt lat="44.5445593" lon="10.841759"><ele>109.0</ele><time>2026-05-03T12:02:23.113Z</time></trkpt><trkpt lat="44.5446742" lon="10.8415395"><ele>108.0</ele><time>2026-05-03T12:02:24.115Z</time></trkpt><trkpt lat="44.544791" lon="10.8413182"><ele>108.0</ele><time>2026-05-03T12:02:25.116Z</time></trkpt><trkpt lat="44.5449093" lon="10.8410937"><ele>108.0</ele><time>2026-05-03T12:02:26.115Z</time></trkpt><trkpt lat="44.545028" lon="10.8408692"><ele>108.0</ele><time>2026-05-03T12:02:27.115Z</time></trkpt><trkpt lat="44.5451478" lon="10.8406429"><ele>108.33333333333334</ele><time>2026-05-03T12:02:28.114Z</time></trkpt><trkpt lat="44.5452671" lon="10.8404176"><ele>108.66666666666667</ele><time>2026-05-03T12:02:29.114Z</time></trkpt><trkpt lat="44.5453872" lon="10.8401927"><ele>109.0</ele><time>2026-05-03T12:02:30.113Z</time></trkpt><trkpt lat="44.5455081" lon="10.8399665"><ele>109.0</ele><time>2026-05-03T12:02:31.114Z</time></trkpt><trkpt lat="44.5456298" lon="10.8397388"><ele>109.0</ele><time>2026-05-03T12:02:32.119Z</time></trkpt><trkpt lat="44.5457517" lon="10.8395097"><ele>109.0</ele><time>2026-05-03T12:02:33.114Z</time></trkpt><trkpt lat="44.545874" lon="10.8392785"><ele>109.33333333333334</ele><time>2026-05-03T12:02:34.114Z</time></trkpt><trkpt lat="44.5459964" lon="10.8390486"><ele>109.66666666666666</ele><time>2026-05-03T12:02:35.114Z</time></trkpt><trkpt lat="44.5461139" lon="10.8388284"><ele>110.0</ele><time>2026-05-03T12:02:36.113Z</time></trkpt><trkpt lat="44.5462297" lon="10.8386096"><ele>110.0</ele><time>2026-05-03T12:02:37.113Z</time></trkpt><trkpt lat="44.5463449" lon="10.8383919"><ele>110.0</ele><time>2026-05-03T12:02:38.114Z</time></trkpt><trkpt lat="44.5464606" lon="10.8381751"><ele>110.0</ele><time>2026-05-03T12:02:39.113Z</time></trkpt><trkpt lat="44.5465755" lon="10.8379579"><ele>110.0</ele><time>2026-05-03T12:02:40.115Z</time></trkpt><trkpt lat="44.5466915" lon="10.8377391"><ele>110.0</ele><time>2026-05-03T12:02:41.116Z</time></trkpt><trkpt lat="44.5468089" lon="10.837519"><ele>110.0</ele><time>2026-05-03T12:02:42.116Z</time></trkpt><trkpt lat="44.5469281" lon="10.8372969"><ele>110.0</ele><time>2026-05-03T12:02:43.116Z</time></trkpt><trkpt lat="44.5470491" lon="10.8370709"><ele>110.0</ele><time>2026-05-03T12:02:44.115Z</time></trkpt><trkpt lat="44.547172" lon="10.8368435"><ele>110.0</ele><time>2026-05-03T12:02:45.118Z</time></trkpt><trkpt lat="44.547296" lon="10.8366132"><ele>109.66666666666666</ele><time>2026-05-03T12:02:46.114Z</time></trkpt><trkpt lat="44.5474205" lon="10.8363792"><ele>109.33333333333334</ele><time>2026-05-03T12:02:47.116Z</time></trkpt><trkpt lat="44.5475454" lon="10.8361406"><ele>109.0</ele><time>2026-05-03T12:02:48.114Z</time></trkpt><trkpt lat="44.5476707" lon="10.8358944"><ele>108.33333333333334</ele><time>2026-05-03T12:02:49.115Z</time></trkpt><trkpt lat="44.5477944" lon="10.8356415"><ele>107.66666666666666</ele><time>2026-05-03T12:02:50.116Z</time></trkpt><trkpt lat="44.5479142" lon="10.8353867"><ele>107.0</ele><time>2026-05-03T12:02:51.115Z</time></trkpt><trkpt lat="44.5480287" lon="10.83513"><ele>107.0</ele><time>2026-05-03T12:02:52.115Z</time></trkpt><trkpt lat="44.5481373" lon="10.8348709"><ele>107.0</ele><time>2026-05-03T12:02:53.115Z</time></trkpt><trkpt lat="44.5482394" lon="10.8346072"><ele>107.0</ele><time>2026-05-03T12:02:54.114Z</time></trkpt><trkpt lat="44.5483349" lon="10.8343396"><ele>106.66666666666666</ele><time>2026-05-03T12:02:55.116Z</time></trkpt><trkpt lat="44.5484275" lon="10.8340707"><ele>106.33333333333334</ele><time>2026-05-03T12:02:56.116Z</time></trkpt><trkpt lat="44.5485211" lon="10.8338027"><ele>106.0</ele><time>2026-05-03T12:02:57.112Z</time></trkpt><trkpt lat="44.5486145" lon="10.8335346"><ele>106.0</ele><time>2026-05-03T12:02:58.117Z</time></trkpt><trkpt lat="44.5487084" lon="10.8332667"><ele>106.0</ele><time>2026-05-03T12:02:59.112Z</time></trkpt><trkpt lat="44.5487982" lon="10.8329976"><ele>106.0</ele><time>2026-05-03T12:03:00.115Z</time></trkpt><trkpt lat="44.5488884" lon="10.8327339"><ele>105.33333333333334</ele><time>2026-05-03T12:03:01.115Z</time></trkpt><trkpt lat="44.5489768" lon="10.8324748"><ele>104.66666666666666</ele><time>2026-05-03T12:03:02.114Z</time></trkpt><trkpt lat="44.5490658" lon="10.8322131"><ele>104.0</ele><time>2026-05-03T12:03:03.113Z</time></trkpt><trkpt lat="44.5491545" lon="10.8319518"><ele>104.0</ele><time>2026-05-03T12:03:04.114Z</time></trkpt><trkpt lat="44.5492428" lon="10.8316928"><ele>104.0</ele><time>2026-05-03T12:03:05.117Z</time></trkpt><trkpt lat="44.5493291" lon="10.8314388"><ele>104.0</ele><time>2026-05-03T12:03:06.115Z</time></trkpt><trkpt lat="44.5494121" lon="10.8311927"><ele>104.0</ele><time>2026-05-03T12:03:07.116Z</time></trkpt><trkpt lat="44.549498" lon="10.8309382"><ele>104.0</ele><time>2026-05-03T12:03:08.117Z</time></trkpt><trkpt lat="44.5495846" lon="10.8306802"><ele>104.0</ele><time>2026-05-03T12:03:09.114Z</time></trkpt><trkpt lat="44.5496714" lon="10.830416"><ele>104.33333333333333</ele><time>2026-05-03T12:03:10.116Z</time></trkpt><trkpt lat="44.5497574" lon="10.8301481"><ele>104.66666666666666</ele><time>2026-05-03T12:03:11.117Z</time></trkpt><trkpt lat="44.5498404" lon="10.8298746"><ele>105.0</ele><time>2026-05-03T12:03:12.116Z</time></trkpt><trkpt lat="44.5499196" lon="10.8296012"><ele>105.0</ele><time>2026-05-03T12:03:13.111Z</time></trkpt><trkpt lat="44.5499941" lon="10.8293325"><ele>105.0</ele><time>2026-05-03T12:03:14.114Z</time></trkpt><trkpt lat="44.5500644" lon="10.8290617"><ele>105.0</ele><time>2026-05-03T12:03:15.114Z</time></trkpt><trkpt lat="44.5501283" lon="10.8287879"><ele>105.0</ele><time>2026-05-03T12:03:16.115Z</time></trkpt><trkpt lat="44.5501853" lon="10.8285137"><ele>105.0</ele><time>2026-05-03T12:03:17.115Z</time></trkpt><trkpt lat="44.5502393" lon="10.8282383"><ele>105.0</ele><time>2026-05-03T12:03:18.114Z</time></trkpt><trkpt lat="44.5502907" lon="10.8279576"><ele>104.66666666666666</ele><time>2026-05-03T12:03:19.117Z</time></trkpt><trkpt lat="44.5503375" lon="10.8276793"><ele>104.33333333333333</ele><time>2026-05-03T12:03:20.115Z</time></trkpt><trkpt lat="44.5503781" lon="10.8273995"><ele>104.0</ele><time>2026-05-03T12:03:21.115Z</time></trkpt><trkpt lat="44.5504139" lon="10.8271195"><ele>104.0</ele><time>2026-05-03T12:03:22.112Z</time></trkpt><trkpt lat="44.5504476" lon="10.8268395"><ele>104.0</ele><time>2026-05-03T12:03:23.115Z</time></trkpt><trkpt lat="44.5504784" lon="10.8265602"><ele>104.0</ele><time>2026-05-03T12:03:24.114Z</time></trkpt><trkpt lat="44.5505052" lon="10.8262803"><ele>104.0</ele><time>2026-05-03T12:03:25.119Z</time></trkpt><trkpt lat="44.5505287" lon="10.8260005"><ele>104.0</ele><time>2026-05-03T12:03:26.114Z</time></trkpt><trkpt lat="44.5505497" lon="10.8257179"><ele>104.0</ele><time>2026-05-03T12:03:27.116Z</time></trkpt><trkpt lat="44.5505694" lon="10.8254332"><ele>104.0</ele><time>2026-05-03T12:03:28.117Z</time></trkpt><trkpt lat="44.5505891" lon="10.8251477"><ele>104.0</ele><time>2026-05-03T12:03:29.115Z</time></trkpt><trkpt lat="44.5506092" lon="10.8248614"><ele>104.0</ele><time>2026-05-03T12:03:30.115Z</time></trkpt><trkpt lat="44.5506296" lon="10.8245739"><ele>104.33333333333333</ele><time>2026-05-03T12:03:31.115Z</time></trkpt><trkpt lat="44.5506501" lon="10.824286"><ele>104.66666666666666</ele><time>2026-05-03T12:03:32.114Z</time></trkpt><trkpt lat="44.5506701" lon="10.823996"><ele>105.0</ele><time>2026-05-03T12:03:33.117Z</time></trkpt><trkpt lat="44.5506897" lon="10.8237064"><ele>105.0</ele><time>2026-05-03T12:03:34.122Z</time></trkpt><trkpt lat="44.5507101" lon="10.8234175"><ele>105.0</ele><time>2026-05-03T12:03:35.112Z</time></trkpt><trkpt lat="44.5507306" lon="10.8231327"><ele>105.0</ele><time>2026-05-03T12:03:36.116Z</time></trkpt><trkpt lat="44.5507506" lon="10.8228613"><ele>105.0</ele><time>2026-05-03T12:03:37.113Z</time></trkpt><trkpt lat="44.5507707" lon="10.8226019"><ele>105.0</ele><time>2026-05-03T12:03:38.112Z</time></trkpt><trkpt lat="44.550789" lon="10.822353"><ele>105.0</ele><time>2026-05-03T12:03:39.116Z</time></trkpt><trkpt lat="44.5508068" lon="10.8221074"><ele>105.0</ele><time>2026-05-03T12:03:40.117Z</time></trkpt><trkpt lat="44.5508247" lon="10.8218741"><ele>105.0</ele><time>2026-05-03T12:03:41.114Z</time></trkpt><trkpt lat="44.5508416" lon="10.8216381"><ele>105.0</ele><time>2026-05-03T12:03:42.118Z</time></trkpt><trkpt lat="44.5508588" lon="10.8213998"><ele>106.0</ele><time>2026-05-03T12:03:43.115Z</time></trkpt><trkpt lat="44.5508764" lon="10.82116"><ele>107.0</ele><time>2026-05-03T12:03:44.114Z</time></trkpt><trkpt lat="44.5508958" lon="10.8209188"><ele>108.0</ele><time>2026-05-03T12:03:45.113Z</time></trkpt><trkpt lat="44.550922" lon="10.8206758"><ele>109.0</ele><time>2026-05-03T12:03:46.112Z</time></trkpt><trkpt lat="44.5509594" lon="10.8204335"><ele>110.0</ele><time>2026-05-03T12:03:47.111Z</time></trkpt><trkpt lat="44.5510062" lon="10.820191"><ele>111.0</ele><time>2026-05-03T12:03:48.114Z</time></trkpt><trkpt lat="44.5510622" lon="10.8199477"><ele>111.0</ele><time>2026-05-03T12:03:49.112Z</time></trkpt><trkpt lat="44.5511243" lon="10.8197024"><ele>111.0</ele><time>2026-05-03T12:03:50.113Z</time></trkpt><trkpt lat="44.551191" lon="10.8194542"><ele>111.0</ele><time>2026-05-03T12:03:51.115Z</time></trkpt><trkpt lat="44.5512605" lon="10.8191984"><ele>109.66666666666666</ele><time>2026-05-03T12:03:52.113Z</time></trkpt><trkpt lat="44.5513328" lon="10.8189327"><ele>108.33333333333333</ele><time>2026-05-03T12:03:53.115Z</time></trkpt><trkpt lat="44.5514073" lon="10.8186629"><ele>107.0</ele><time>2026-05-03T12:03:54.112Z</time></trkpt><trkpt lat="44.5514834" lon="10.8183928"><ele>107.0</ele><time>2026-05-03T12:03:55.115Z</time></trkpt><trkpt lat="44.5515584" lon="10.8181226"><ele>107.0</ele><time>2026-05-03T12:03:56.113Z</time></trkpt><trkpt lat="44.5516296" lon="10.817861"><ele>107.0</ele><time>2026-05-03T12:03:57.115Z</time></trkpt><trkpt lat="44.5516977" lon="10.8176122"><ele>107.66666666666666</ele><time>2026-05-03T12:03:58.112Z</time></trkpt><trkpt lat="44.5517619" lon="10.8173793"><ele>108.33333333333334</ele><time>2026-05-03T12:03:59.113Z</time></trkpt><trkpt lat="44.5518194" lon="10.817169"><ele>109.0</ele><time>2026-05-03T12:04:00.112Z</time></trkpt><trkpt lat="44.5518708" lon="10.8169822"><ele>109.2</ele><time>2026-05-03T12:04:01.114Z</time></trkpt><trkpt lat="44.5519178" lon="10.8168187"><ele>109.4</ele><time>2026-05-03T12:04:02.113Z</time></trkpt><trkpt lat="44.5519692" lon="10.8166825"><ele>109.6</ele><time>2026-05-03T12:04:03.116Z</time></trkpt><trkpt lat="44.552033" lon="10.8165736"><ele>109.8</ele><time>2026-05-03T12:04:04.113Z</time></trkpt><trkpt lat="44.5521067" lon="10.816492"><ele>110.0</ele><time>2026-05-03T12:04:05.115Z</time></trkpt><trkpt lat="44.5521946" lon="10.8164446"><ele>110.0</ele><time>2026-05-03T12:04:06.118Z</time></trkpt><trkpt lat="44.5522899" lon="10.8164311"><ele>110.0</ele><time>2026-05-03T12:04:07.113Z</time></trkpt><trkpt lat="44.5523812" lon="10.8164417"><ele>110.0</ele><time>2026-05-03T12:04:08.114Z</time></trkpt><trkpt lat="44.5524705" lon="10.8164557"><ele>110.0</ele><time>2026-05-03T12:04:09.115Z</time></trkpt><trkpt lat="44.5525603" lon="10.8164445"><ele>110.0</ele><time>2026-05-03T12:04:10.114Z</time></trkpt><trkpt lat="44.5526504" lon="10.8164113"><ele>110.0</ele><time>2026-05-03T12:04:11.114Z</time></trkpt><trkpt lat="44.5527437" lon="10.8163614"><ele>110.0</ele><time>2026-05-03T12:04:12.114Z</time></trkpt><trkpt lat="44.5528457" lon="10.8163198"><ele>110.0</ele><time>2026-05-03T12:04:13.114Z</time></trkpt><trkpt lat="44.5529552" lon="10.8163015"><ele>110.0</ele><time>2026-05-03T12:04:14.115Z</time></trkpt><trkpt lat="44.5530763" lon="10.8163059"><ele>110.0</ele><time>2026-05-03T12:04:15.113Z</time></trkpt><trkpt lat="44.553207" lon="10.8163328"><ele>108.66666666666666</ele><time>2026-05-03T12:04:16.113Z</time></trkpt><trkpt lat="44.5533521" lon="10.8163715"><ele>107.33333333333334</ele><time>2026-05-03T12:04:17.115Z</time></trkpt><trkpt lat="44.5535118" lon="10.8164175"><ele>106.0</ele><time>2026-05-03T12:04:18.117Z</time></trkpt><trkpt lat="44.5536838" lon="10.8164669"><ele>104.66666666666667</ele><time>2026-05-03T12:04:19.115Z</time></trkpt><trkpt lat="44.5538613" lon="10.8165166"><ele>103.33333333333334</ele><time>2026-05-03T12:04:20.115Z</time></trkpt><trkpt lat="44.5540425" lon="10.8165616"><ele>102.0</ele><time>2026-05-03T12:04:21.115Z</time></trkpt><trkpt lat="44.5542286" lon="10.8166088"><ele>102.0</ele><time>2026-05-03T12:04:22.114Z</time></trkpt><trkpt lat="44.5544217" lon="10.8166605"><ele>102.0</ele><time>2026-05-03T12:04:23.114Z</time></trkpt><trkpt lat="44.554624" lon="10.8167139"><ele>102.0</ele><time>2026-05-03T12:04:24.116Z</time></trkpt><trkpt lat="44.5548376" lon="10.8167695"><ele>102.5</ele><time>2026-05-03T12:04:25.113Z</time></trkpt><trkpt lat="44.5550574" lon="10.8168281"><ele>103.0</ele><time>2026-05-03T12:04:26.114Z</time></trkpt><trkpt lat="44.5552829" lon="10.8168878"><ele>104.0</ele><time>2026-05-03T12:04:27.115Z</time></trkpt><trkpt lat="44.555513" lon="10.8169496"><ele>105.0</ele><time>2026-05-03T12:04:28.112Z</time></trkpt><trkpt lat="44.555745" lon="10.8170111"><ele>105.0</ele><time>2026-05-03T12:04:29.111Z</time></trkpt><trkpt lat="44.5559796" lon="10.8170724"><ele>105.0</ele><time>2026-05-03T12:04:30.113Z</time></trkpt><trkpt lat="44.5562167" lon="10.8171366"><ele>104.0</ele><time>2026-05-03T12:04:31.111Z</time></trkpt><trkpt lat="44.5564561" lon="10.8172007"><ele>103.0</ele><time>2026-05-03T12:04:32.114Z</time></trkpt><trkpt lat="44.5566923" lon="10.8172632"><ele>103.0</ele><time>2026-05-03T12:04:33.116Z</time></trkpt><trkpt lat="44.5569156" lon="10.8173245"><ele>103.0</ele><time>2026-05-03T12:04:34.113Z</time></trkpt><trkpt lat="44.5571318" lon="10.8173881"><ele>103.0</ele><time>2026-05-03T12:04:35.113Z</time></trkpt><trkpt lat="44.5573387" lon="10.8174508"><ele>103.33333333333334</ele><time>2026-05-03T12:04:36.114Z</time></trkpt><trkpt lat="44.5575402" lon="10.8175147"><ele>103.66666666666666</ele><time>2026-05-03T12:04:37.114Z</time></trkpt><trkpt lat="44.5577412" lon="10.8175835"><ele>104.0</ele><time>2026-05-03T12:04:38.121Z</time></trkpt><trkpt lat="44.5579386" lon="10.8176555"><ele>104.33333333333333</ele><time>2026-05-03T12:04:39.116Z</time></trkpt><trkpt lat="44.5581353" lon="10.8177308"><ele>104.66666666666666</ele><time>2026-05-03T12:04:40.117Z</time></trkpt><trkpt lat="44.5583329" lon="10.8178068"><ele>105.0</ele><time>2026-05-03T12:04:41.115Z</time></trkpt><trkpt lat="44.5585347" lon="10.817884"><ele>104.0</ele><time>2026-05-03T12:04:42.119Z</time></trkpt><trkpt lat="44.5587399" lon="10.817961"><ele>103.0</ele><time>2026-05-03T12:04:43.121Z</time></trkpt><trkpt lat="44.5589427" lon="10.818035"><ele>102.0</ele><time>2026-05-03T12:04:44.116Z</time></trkpt><trkpt lat="44.5591401" lon="10.8181081"><ele>102.0</ele><time>2026-05-03T12:04:45.114Z</time></trkpt><trkpt lat="44.5593246" lon="10.8181779"><ele>102.0</ele><time>2026-05-03T12:04:46.119Z</time></trkpt><trkpt lat="44.5595042" lon="10.8182447"><ele>102.0</ele><time>2026-05-03T12:04:47.117Z</time></trkpt><trkpt lat="44.5596818" lon="10.8183142"><ele>102.0</ele><time>2026-05-03T12:04:48.122Z</time></trkpt><trkpt lat="44.5598625" lon="10.818383"><ele>102.0</ele><time>2026-05-03T12:04:49.119Z</time></trkpt><trkpt lat="44.5600496" lon="10.8184567"><ele>102.0</ele><time>2026-05-03T12:04:50.118Z</time></trkpt><trkpt lat="44.560239" lon="10.8185303"><ele>101.33333333333334</ele><time>2026-05-03T12:04:51.116Z</time></trkpt><trkpt lat="44.560436" lon="10.8186058"><ele>100.66666666666667</ele><time>2026-05-03T12:04:52.115Z</time></trkpt><trkpt lat="44.5606371" lon="10.8186846"><ele>100.0</ele><time>2026-05-03T12:04:53.114Z</time></trkpt><trkpt lat="44.5608376" lon="10.8187637"><ele>100.0</ele><time>2026-05-03T12:04:54.114Z</time></trkpt><trkpt lat="44.5610438" lon="10.8188468"><ele>100.0</ele><time>2026-05-03T12:04:55.112Z</time></trkpt><trkpt lat="44.5612525" lon="10.8189328"><ele>100.0</ele><time>2026-05-03T12:04:56.114Z</time></trkpt><trkpt lat="44.5614617" lon="10.8190239"><ele>100.0</ele><time>2026-05-03T12:04:57.114Z</time></trkpt><trkpt lat="44.5616714" lon="10.8191208"><ele>100.0</ele><time>2026-05-03T12:04:58.116Z</time></trkpt><trkpt lat="44.5618804" lon="10.8192245"><ele>100.0</ele><time>2026-05-03T12:04:59.116Z</time></trkpt><trkpt lat="44.5620852" lon="10.8193346"><ele>99.33333333333334</ele><time>2026-05-03T12:05:00.115Z</time></trkpt><trkpt lat="44.5622859" lon="10.8194501"><ele>98.66666666666666</ele><time>2026-05-03T12:05:01.113Z</time></trkpt><trkpt lat="44.5624849" lon="10.8195731"><ele>98.0</ele><time>2026-05-03T12:05:02.114Z</time></trkpt><trkpt lat="44.5626827" lon="10.8197012"><ele>97.66666666666666</ele><time>2026-05-03T12:05:03.111Z</time></trkpt><trkpt lat="44.562871" lon="10.8198329"><ele>97.33333333333334</ele><time>2026-05-03T12:05:04.116Z</time></trkpt><trkpt lat="44.5630498" lon="10.8199633"><ele>97.0</ele><time>2026-05-03T12:05:05.115Z</time></trkpt><trkpt lat="44.5632228" lon="10.820095"><ele>97.0</ele><time>2026-05-03T12:05:06.115Z</time></trkpt><trkpt lat="44.5633951" lon="10.8202308"><ele>97.0</ele><time>2026-05-03T12:05:07.115Z</time></trkpt><trkpt lat="44.5635663" lon="10.8203703"><ele>97.0</ele><time>2026-05-03T12:05:08.122Z</time></trkpt><trkpt lat="44.5637338" lon="10.8205126"><ele>97.0</ele><time>2026-05-03T12:05:09.112Z</time></trkpt><trkpt lat="44.5639001" lon="10.8206601"><ele>97.0</ele><time>2026-05-03T12:05:10.114Z</time></trkpt><trkpt lat="44.5640647" lon="10.8208118"><ele>97.0</ele><time>2026-05-03T12:05:11.12Z</time></trkpt><trkpt lat="44.56423" lon="10.8209657"><ele>96.66666666666667</ele><time>2026-05-03T12:05:12.119Z</time></trkpt><trkpt lat="44.5643928" lon="10.8211191"><ele>96.33333333333334</ele><time>2026-05-03T12:05:13.115Z</time></trkpt><trkpt lat="44.5645489" lon="10.8212693"><ele>96.0</ele><time>2026-05-03T12:05:14.113Z</time></trkpt><trkpt lat="44.5647026" lon="10.8214192"><ele>96.33333333333334</ele><time>2026-05-03T12:05:15.115Z</time></trkpt><trkpt lat="44.5648553" lon="10.8215672"><ele>96.66666666666667</ele><time>2026-05-03T12:05:16.114Z</time></trkpt><trkpt lat="44.5650022" lon="10.8217082"><ele>97.0</ele><time>2026-05-03T12:05:17.112Z</time></trkpt><trkpt lat="44.5651428" lon="10.8218456"><ele>97.0</ele><time>2026-05-03T12:05:18.114Z</time></trkpt><trkpt lat="44.5652821" lon="10.8219842"><ele>97.0</ele><time>2026-05-03T12:05:19.115Z</time></trkpt><trkpt lat="44.5654268" lon="10.8221268"><ele>97.0</ele><time>2026-05-03T12:05:20.114Z</time></trkpt><trkpt lat="44.5655747" lon="10.822269"><ele>96.0</ele><time>2026-05-03T12:05:21.116Z</time></trkpt><trkpt lat="44.5657259" lon="10.8224151"><ele>95.0</ele><time>2026-05-03T12:05:22.115Z</time></trkpt><trkpt lat="44.5658811" lon="10.8225648"><ele>94.0</ele><time>2026-05-03T12:05:23.117Z</time></trkpt><trkpt lat="44.566039" lon="10.8227217"><ele>93.33333333333333</ele><time>2026-05-03T12:05:24.116Z</time></trkpt><trkpt lat="44.5662041" lon="10.8228867"><ele>92.66666666666667</ele><time>2026-05-03T12:05:25.115Z</time></trkpt><trkpt lat="44.5663772" lon="10.8230561"><ele>92.0</ele><time>2026-05-03T12:05:26.117Z</time></trkpt><trkpt lat="44.5665537" lon="10.8232295"><ele>92.0</ele><time>2026-05-03T12:05:27.115Z</time></trkpt><trkpt lat="44.5667332" lon="10.8234042"><ele>92.0</ele><time>2026-05-03T12:05:28.119Z</time></trkpt><trkpt lat="44.5669101" lon="10.8235723"><ele>92.0</ele><time>2026-05-03T12:05:29.114Z</time></trkpt><trkpt lat="44.5670823" lon="10.8237319"><ele>91.66666666666667</ele><time>2026-05-03T12:05:30.115Z</time></trkpt><trkpt lat="44.5672501" lon="10.8238859"><ele>91.33333333333333</ele><time>2026-05-03T12:05:31.115Z</time></trkpt><trkpt lat="44.5674146" lon="10.8240324"><ele>91.0</ele><time>2026-05-03T12:05:32.115Z</time></trkpt><trkpt lat="44.5675766" lon="10.8241726"><ele>91.0</ele><time>2026-05-03T12:05:33.116Z</time></trkpt><trkpt lat="44.5677358" lon="10.8243067"><ele>91.0</ele><time>2026-05-03T12:05:34.114Z</time></trkpt><trkpt lat="44.567898" lon="10.8244413"><ele>91.0</ele><time>2026-05-03T12:05:35.114Z</time></trkpt><trkpt lat="44.5680618" lon="10.8245756"><ele>90.66666666666666</ele><time>2026-05-03T12:05:36.115Z</time></trkpt><trkpt lat="44.5682272" lon="10.8247098"><ele>90.33333333333333</ele><time>2026-05-03T12:05:37.114Z</time></trkpt><trkpt lat="44.5683936" lon="10.8248411"><ele>90.0</ele><time>2026-05-03T12:05:38.118Z</time></trkpt><trkpt lat="44.5685525" lon="10.8249696"><ele>89.0</ele><time>2026-05-03T12:05:39.115Z</time></trkpt><trkpt lat="44.5687077" lon="10.8250943"><ele>88.0</ele><time>2026-05-03T12:05:40.115Z</time></trkpt><trkpt lat="44.5688577" lon="10.8252126"><ele>87.0</ele><time>2026-05-03T12:05:41.118Z</time></trkpt><trkpt lat="44.5690014" lon="10.8253284"><ele>87.0</ele><time>2026-05-03T12:05:42.116Z</time></trkpt><trkpt lat="44.5691378" lon="10.8254371"><ele>87.0</ele><time>2026-05-03T12:05:43.114Z</time></trkpt><trkpt lat="44.5692681" lon="10.8255404"><ele>87.0</ele><time>2026-05-03T12:05:44.115Z</time></trkpt><trkpt lat="44.5693924" lon="10.8256401"><ele>87.0</ele><time>2026-05-03T12:05:45.114Z</time></trkpt><trkpt lat="44.5695117" lon="10.8257354"><ele>87.0</ele><time>2026-05-03T12:05:46.116Z</time></trkpt><trkpt lat="44.5696286" lon="10.825831"><ele>87.0</ele><time>2026-05-03T12:05:47.114Z</time></trkpt><trkpt lat="44.5697451" lon="10.8259285"><ele>87.0</ele><time>2026-05-03T12:05:48.115Z</time></trkpt><trkpt lat="44.5698548" lon="10.8260296"><ele>87.0</ele><time>2026-05-03T12:05:49.118Z</time></trkpt><trkpt lat="44.5699623" lon="10.8261173"><ele>87.0</ele><time>2026-05-03T12:05:50.113Z</time></trkpt><trkpt lat="44.5700611" lon="10.8261948"><ele>87.0</ele><time>2026-05-03T12:05:51.115Z</time></trkpt><trkpt lat="44.570142" lon="10.826275"><ele>87.0</ele><time>2026-05-03T12:05:52.117Z</time></trkpt><trkpt lat="44.5702025" lon="10.8263579"><ele>87.0</ele><time>2026-05-03T12:05:53.118Z</time></trkpt><trkpt lat="44.5702409" lon="10.826441"><ele>87.0</ele><time>2026-05-03T12:05:54.119Z</time></trkpt><trkpt lat="44.5702737" lon="10.826595"><ele>87.0</ele><time>2026-05-03T12:05:56.115Z</time></trkpt><trkpt lat="44.5703109" lon="10.8266968"><ele>87.0</ele><time>2026-05-03T12:05:58.114Z</time></trkpt><trkpt lat="44.5703766" lon="10.8267534"><ele>87.0</ele><time>2026-05-03T12:06:01.114Z</time></trkpt><trkpt lat="44.5704499" lon="10.8267599"><ele>87.0</ele><time>2026-05-03T12:07:26.116Z</time></trkpt><trkpt lat="44.5705503" lon="10.8267789"><ele>87.0</ele><time>2026-05-03T12:07:29.114Z</time></trkpt><trkpt lat="44.5706481" lon="10.8268294"><ele>87.0</ele><time>2026-05-03T12:07:31.112Z</time></trkpt><trkpt lat="44.5707372" lon="10.8268506"><ele>87.0</ele><time>2026-05-03T12:07:33.114Z</time></trkpt><trkpt lat="44.5708212" lon="10.8268549"><ele>87.0</ele><time>2026-05-03T12:07:35.115Z</time></trkpt><trkpt lat="44.5709327" lon="10.826891"><ele>87.0</ele><time>2026-05-03T12:07:37.114Z</time></trkpt><trkpt lat="44.5710063" lon="10.8269374"><ele>87.0</ele><time>2026-05-03T12:07:38.113Z</time></trkpt><trkpt lat="44.5710913" lon="10.827002"><ele>87.0</ele><time>2026-05-03T12:07:39.114Z</time></trkpt><trkpt lat="44.5711827" lon="10.8270712"><ele>87.0</ele><time>2026-05-03T12:07:40.114Z</time></trkpt><trkpt lat="44.5712789" lon="10.8271404"><ele>87.0</ele><time>2026-05-03T12:07:41.114Z</time></trkpt><trkpt lat="44.5713792" lon="10.8272119"><ele>87.0</ele><time>2026-05-03T12:07:42.114Z</time></trkpt><trkpt lat="44.5714845" lon="10.8272858"><ele>87.0</ele><time>2026-05-03T12:07:43.114Z</time></trkpt><trkpt lat="44.5715931" lon="10.8273678"><ele>87.0</ele><time>2026-05-03T12:07:44.115Z</time></trkpt><trkpt lat="44.5717053" lon="10.8274572"><ele>87.0</ele><time>2026-05-03T12:07:45.114Z</time></trkpt><trkpt lat="44.5718149" lon="10.8275461"><ele>87.0</ele><time>2026-05-03T12:07:46.116Z</time></trkpt><trkpt lat="44.5719207" lon="10.8276336"><ele>87.0</ele><time>2026-05-03T12:07:47.115Z</time></trkpt><trkpt lat="44.5720304" lon="10.8277185"><ele>87.0</ele><time>2026-05-03T12:07:48.116Z</time></trkpt><trkpt lat="44.5721445" lon="10.827807"><ele>87.0</ele><time>2026-05-03T12:07:49.114Z</time></trkpt><trkpt lat="44.5722664" lon="10.8278993"><ele>87.0</ele><time>2026-05-03T12:07:50.114Z</time></trkpt><trkpt lat="44.5723914" lon="10.8279957"><ele>87.0</ele><time>2026-05-03T12:07:51.115Z</time></trkpt><trkpt lat="44.5725231" lon="10.8280979"><ele>87.0</ele><time>2026-05-03T12:07:52.115Z</time></trkpt><trkpt lat="44.5726597" lon="10.8282042"><ele>87.0</ele><time>2026-05-03T12:07:53.114Z</time></trkpt><trkpt lat="44.5728059" lon="10.8283185"><ele>87.0</ele><time>2026-05-03T12:07:54.116Z</time></trkpt><trkpt lat="44.5729583" lon="10.8284367"><ele>86.33333333333333</ele><time>2026-05-03T12:07:55.115Z</time></trkpt><trkpt lat="44.5731172" lon="10.8285607"><ele>85.66666666666666</ele><time>2026-05-03T12:07:56.116Z</time></trkpt><trkpt lat="44.5732787" lon="10.8286887"><ele>85.0</ele><time>2026-05-03T12:07:57.113Z</time></trkpt><trkpt lat="44.5734373" lon="10.8288156"><ele>85.0</ele><time>2026-05-03T12:07:58.114Z</time></trkpt><trkpt lat="44.5735877" lon="10.8289352"><ele>85.0</ele><time>2026-05-03T12:07:59.113Z</time></trkpt><trkpt lat="44.5737381" lon="10.8290534"><ele>85.0</ele><time>2026-05-03T12:08:00.115Z</time></trkpt><trkpt lat="44.5738939" lon="10.8291788"><ele>84.66666666666666</ele><time>2026-05-03T12:08:01.117Z</time></trkpt><trkpt lat="44.5740541" lon="10.8293067"><ele>84.33333333333333</ele><time>2026-05-03T12:08:02.116Z</time></trkpt><trkpt lat="44.5742081" lon="10.8294277"><ele>84.0</ele><time>2026-05-03T12:08:03.113Z</time></trkpt><trkpt lat="44.5743545" lon="10.8295422"><ele>84.0</ele><time>2026-05-03T12:08:04.115Z</time></trkpt><trkpt lat="44.5744978" lon="10.8296556"><ele>84.0</ele><time>2026-05-03T12:08:05.114Z</time></trkpt><trkpt lat="44.5746461" lon="10.8297769"><ele>84.0</ele><time>2026-05-03T12:08:06.113Z</time></trkpt><trkpt lat="44.5748101" lon="10.8299058"><ele>84.33333333333333</ele><time>2026-05-03T12:08:07.115Z</time></trkpt><trkpt lat="44.5749804" lon="10.8300426"><ele>84.66666666666666</ele><time>2026-05-03T12:08:08.113Z</time></trkpt><trkpt lat="44.5751533" lon="10.8301804"><ele>85.0</ele><time>2026-05-03T12:08:09.113Z</time></trkpt><trkpt lat="44.5753234" lon="10.8303161"><ele>83.66666666666666</ele><time>2026-05-03T12:08:10.117Z</time></trkpt><trkpt lat="44.5754911" lon="10.8304498"><ele>82.33333333333333</ele><time>2026-05-03T12:08:11.12Z</time></trkpt><trkpt lat="44.5756545" lon="10.8305797"><ele>81.0</ele><time>2026-05-03T12:08:12.118Z</time></trkpt><trkpt lat="44.5758167" lon="10.8307098"><ele>81.0</ele><time>2026-05-03T12:08:13.113Z</time></trkpt><trkpt lat="44.5759805" lon="10.8308385"><ele>81.0</ele><time>2026-05-03T12:08:14.115Z</time></trkpt><trkpt lat="44.5761454" lon="10.8309687"><ele>81.0</ele><time>2026-05-03T12:08:15.115Z</time></trkpt><trkpt lat="44.57631" lon="10.8310992"><ele>81.0</ele><time>2026-05-03T12:08:16.114Z</time></trkpt><trkpt lat="44.5764717" lon="10.8312346"><ele>81.0</ele><time>2026-05-03T12:08:17.113Z</time></trkpt><trkpt lat="44.5766323" lon="10.8313662"><ele>81.0</ele><time>2026-05-03T12:08:18.112Z</time></trkpt><trkpt lat="44.5767911" lon="10.8314952"><ele>81.0</ele><time>2026-05-03T12:08:19.113Z</time></trkpt><trkpt lat="44.576948" lon="10.8316227"><ele>81.0</ele><time>2026-05-03T12:08:20.119Z</time></trkpt><trkpt lat="44.5771047" lon="10.8317484"><ele>81.0</ele><time>2026-05-03T12:08:21.115Z</time></trkpt><trkpt lat="44.5772616" lon="10.8318786"><ele>81.0</ele><time>2026-05-03T12:08:22.115Z</time></trkpt><trkpt lat="44.5774194" lon="10.8320033"><ele>81.0</ele><time>2026-05-03T12:08:23.113Z</time></trkpt><trkpt lat="44.5775789" lon="10.8321275"><ele>81.0</ele><time>2026-05-03T12:08:24.113Z</time></trkpt><trkpt lat="44.5777384" lon="10.8322514"><ele>81.0</ele><time>2026-05-03T12:08:25.117Z</time></trkpt><trkpt lat="44.5778989" lon="10.8323778"><ele>81.0</ele><time>2026-05-03T12:08:26.122Z</time></trkpt><trkpt lat="44.578057" lon="10.8325039"><ele>81.0</ele><time>2026-05-03T12:08:27.113Z</time></trkpt><trkpt lat="44.5782147" lon="10.8326329"><ele>81.0</ele><time>2026-05-03T12:08:28.111Z</time></trkpt><trkpt lat="44.5783721" lon="10.8327646"><ele>81.0</ele><time>2026-05-03T12:08:29.113Z</time></trkpt><trkpt lat="44.5785282" lon="10.8328998"><ele>81.0</ele><time>2026-05-03T12:08:30.114Z</time></trkpt><trkpt lat="44.5786831" lon="10.8330364"><ele>81.33333333333333</ele><time>2026-05-03T12:08:31.119Z</time></trkpt><trkpt lat="44.578839" lon="10.8331758"><ele>81.66666666666666</ele><time>2026-05-03T12:08:32.114Z</time></trkpt><trkpt lat="44.5789969" lon="10.833322"><ele>82.0</ele><time>2026-05-03T12:08:33.116Z</time></trkpt><trkpt lat="44.5791566" lon="10.8334718"><ele>81.66666666666666</ele><time>2026-05-03T12:08:34.115Z</time></trkpt><trkpt lat="44.5793164" lon="10.8336272"><ele>81.33333333333333</ele><time>2026-05-03T12:08:35.115Z</time></trkpt><trkpt lat="44.5794743" lon="10.8337873"><ele>81.0</ele><time>2026-05-03T12:08:36.113Z</time></trkpt><trkpt lat="44.5796332" lon="10.8339506"><ele>80.33333333333333</ele><time>2026-05-03T12:08:37.114Z</time></trkpt><trkpt lat="44.5797896" lon="10.8341202"><ele>79.66666666666666</ele><time>2026-05-03T12:08:38.114Z</time></trkpt><trkpt lat="44.5799425" lon="10.8342901"><ele>79.0</ele><time>2026-05-03T12:08:39.112Z</time></trkpt><trkpt lat="44.580093" lon="10.8344647"><ele>79.0</ele><time>2026-05-03T12:08:40.114Z</time></trkpt><trkpt lat="44.5802398" lon="10.8346434"><ele>79.0</ele><time>2026-05-03T12:08:41.12Z</time></trkpt><trkpt lat="44.5803869" lon="10.8348248"><ele>79.0</ele><time>2026-05-03T12:08:42.112Z</time></trkpt><trkpt lat="44.5805333" lon="10.8350083"><ele>78.0</ele><time>2026-05-03T12:08:43.114Z</time></trkpt><trkpt lat="44.5806773" lon="10.8351962"><ele>77.0</ele><time>2026-05-03T12:08:44.112Z</time></trkpt><trkpt lat="44.5808204" lon="10.8353877"><ele>76.0</ele><time>2026-05-03T12:08:45.116Z</time></trkpt><trkpt lat="44.5809615" lon="10.835581"><ele>76.0</ele><time>2026-05-03T12:08:46.112Z</time></trkpt><trkpt lat="44.5810999" lon="10.835778"><ele>76.0</ele><time>2026-05-03T12:08:47.111Z</time></trkpt><trkpt lat="44.5812362" lon="10.8359768"><ele>76.0</ele><time>2026-05-03T12:08:48.114Z</time></trkpt><trkpt lat="44.5813708" lon="10.8361785"><ele>75.66666666666666</ele><time>2026-05-03T12:08:49.114Z</time></trkpt><trkpt lat="44.5815059" lon="10.8363798"><ele>75.33333333333333</ele><time>2026-05-03T12:08:50.115Z</time></trkpt><trkpt lat="44.5816416" lon="10.83658"><ele>75.0</ele><time>2026-05-03T12:08:51.116Z</time></trkpt><trkpt lat="44.5817754" lon="10.8367818"><ele>74.66666666666667</ele><time>2026-05-03T12:08:52.111Z</time></trkpt><trkpt lat="44.5819084" lon="10.8369851"><ele>74.33333333333334</ele><time>2026-05-03T12:08:53.111Z</time></trkpt><trkpt lat="44.5820436" lon="10.8371864"><ele>74.0</ele><time>2026-05-03T12:08:54.111Z</time></trkpt><trkpt lat="44.5821788" lon="10.8373895"><ele>74.33333333333334</ele><time>2026-05-03T12:08:55.114Z</time></trkpt><trkpt lat="44.5823136" lon="10.8375927"><ele>74.66666666666667</ele><time>2026-05-03T12:08:56.114Z</time></trkpt><trkpt lat="44.5824483" lon="10.8377954"><ele>75.0</ele><time>2026-05-03T12:08:57.114Z</time></trkpt><trkpt lat="44.5825823" lon="10.8379986"><ele>75.0</ele><time>2026-05-03T12:08:58.113Z</time></trkpt><trkpt lat="44.5827156" lon="10.8382004"><ele>75.0</ele><time>2026-05-03T12:08:59.114Z</time></trkpt><trkpt lat="44.5828498" lon="10.8384004"><ele>75.0</ele><time>2026-05-03T12:09:00.112Z</time></trkpt><trkpt lat="44.5829857" lon="10.8385985"><ele>75.0</ele><time>2026-05-03T12:09:01.114Z</time></trkpt><trkpt lat="44.5831246" lon="10.8387942"><ele>75.0</ele><time>2026-05-03T12:09:02.113Z</time></trkpt><trkpt lat="44.5832659" lon="10.8389877"><ele>75.0</ele><time>2026-05-03T12:09:03.112Z</time></trkpt><trkpt lat="44.583411" lon="10.8391768"><ele>75.33333333333333</ele><time>2026-05-03T12:09:04.111Z</time></trkpt><trkpt lat="44.5835603" lon="10.8393596"><ele>75.66666666666666</ele><time>2026-05-03T12:09:05.115Z</time></trkpt><trkpt lat="44.5837112" lon="10.8395393"><ele>76.0</ele><time>2026-05-03T12:09:06.112Z</time></trkpt><trkpt lat="44.5838634" lon="10.8397161"><ele>76.33333333333333</ele><time>2026-05-03T12:09:07.114Z</time></trkpt><trkpt lat="44.584018" lon="10.8398863"><ele>76.66666666666667</ele><time>2026-05-03T12:09:08.112Z</time></trkpt><trkpt lat="44.5841756" lon="10.8400503"><ele>77.0</ele><time>2026-05-03T12:09:09.113Z</time></trkpt><trkpt lat="44.5843373" lon="10.8402089"><ele>76.0</ele><time>2026-05-03T12:09:10.113Z</time></trkpt><trkpt lat="44.5845021" lon="10.8403618"><ele>75.0</ele><time>2026-05-03T12:09:11.113Z</time></trkpt><trkpt lat="44.5846696" lon="10.8405113"><ele>74.0</ele><time>2026-05-03T12:09:12.115Z</time></trkpt><trkpt lat="44.5848387" lon="10.8406563"><ele>73.33333333333334</ele><time>2026-05-03T12:09:13.113Z</time></trkpt><trkpt lat="44.585009" lon="10.840797"><ele>72.66666666666667</ele><time>2026-05-03T12:09:14.113Z</time></trkpt><trkpt lat="44.5851813" lon="10.8409303"><ele>72.0</ele><time>2026-05-03T12:09:15.112Z</time></trkpt><trkpt lat="44.5853564" lon="10.8410556"><ele>71.66666666666667</ele><time>2026-05-03T12:09:16.114Z</time></trkpt><trkpt lat="44.5855353" lon="10.8411724"><ele>71.33333333333334</ele><time>2026-05-03T12:09:17.113Z</time></trkpt><trkpt lat="44.5857161" lon="10.8412838"><ele>71.0</ele><time>2026-05-03T12:09:18.111Z</time></trkpt><trkpt lat="44.5858987" lon="10.8413904"><ele>71.0</ele><time>2026-05-03T12:09:19.114Z</time></trkpt><trkpt lat="44.5860827" lon="10.8414904"><ele>71.0</ele><time>2026-05-03T12:09:20.111Z</time></trkpt><trkpt lat="44.5862684" lon="10.8415857"><ele>71.0</ele><time>2026-05-03T12:09:21.113Z</time></trkpt><trkpt lat="44.5864538" lon="10.841676"><ele>70.66666666666667</ele><time>2026-05-03T12:09:22.114Z</time></trkpt><trkpt lat="44.5866405" lon="10.8417643"><ele>70.33333333333333</ele><time>2026-05-03T12:09:23.114Z</time></trkpt><trkpt lat="44.5868282" lon="10.8418513"><ele>70.0</ele><time>2026-05-03T12:09:24.115Z</time></trkpt><trkpt lat="44.587016" lon="10.8419368"><ele>70.0</ele><time>2026-05-03T12:09:25.116Z</time></trkpt><trkpt lat="44.5872045" lon="10.8420184"><ele>70.0</ele><time>2026-05-03T12:09:26.116Z</time></trkpt><trkpt lat="44.5873922" lon="10.8420996"><ele>70.0</ele><time>2026-05-03T12:09:27.115Z</time></trkpt><trkpt lat="44.5875811" lon="10.8421831"><ele>70.0</ele><time>2026-05-03T12:09:28.115Z</time></trkpt><trkpt lat="44.5877691" lon="10.8422651"><ele>70.0</ele><time>2026-05-03T12:09:29.116Z</time></trkpt><trkpt lat="44.587958" lon="10.8423483"><ele>70.0</ele><time>2026-05-03T12:09:30.114Z</time></trkpt><trkpt lat="44.5881475" lon="10.8424294"><ele>69.66666666666666</ele><time>2026-05-03T12:09:31.117Z</time></trkpt><trkpt lat="44.5883366" lon="10.842514"><ele>69.33333333333333</ele><time>2026-05-03T12:09:32.117Z</time></trkpt><trkpt lat="44.5885254" lon="10.8425961"><ele>69.0</ele><time>2026-05-03T12:09:33.115Z</time></trkpt><trkpt lat="44.5887142" lon="10.842681"><ele>69.0</ele><time>2026-05-03T12:09:34.113Z</time></trkpt><trkpt lat="44.5889026" lon="10.8427668"><ele>69.0</ele><time>2026-05-03T12:09:35.113Z</time></trkpt><trkpt lat="44.5890895" lon="10.8428527"><ele>69.0</ele><time>2026-05-03T12:09:36.114Z</time></trkpt><trkpt lat="44.5892756" lon="10.8429396"><ele>69.0</ele><time>2026-05-03T12:09:37.114Z</time></trkpt><trkpt lat="44.5894622" lon="10.8430263"><ele>69.0</ele><time>2026-05-03T12:09:38.115Z</time></trkpt><trkpt lat="44.5896507" lon="10.8431108"><ele>69.0</ele><time>2026-05-03T12:09:39.116Z</time></trkpt><trkpt lat="44.58984" lon="10.8431921"><ele>69.0</ele><time>2026-05-03T12:09:40.116Z</time></trkpt><trkpt lat="44.5900285" lon="10.8432724"><ele>69.0</ele><time>2026-05-03T12:09:41.118Z</time></trkpt><trkpt lat="44.5902168" lon="10.8433555"><ele>69.0</ele><time>2026-05-03T12:09:42.115Z</time></trkpt><trkpt lat="44.5904051" lon="10.8434374"><ele>68.66666666666667</ele><time>2026-05-03T12:09:43.113Z</time></trkpt><trkpt lat="44.590595" lon="10.8435192"><ele>68.33333333333334</ele><time>2026-05-03T12:09:44.112Z</time></trkpt><trkpt lat="44.5907836" lon="10.8436015"><ele>68.0</ele><time>2026-05-03T12:09:45.115Z</time></trkpt><trkpt lat="44.5909724" lon="10.8436822"><ele>68.0</ele><time>2026-05-03T12:09:46.116Z</time></trkpt><trkpt lat="44.5911603" lon="10.8437631"><ele>68.0</ele><time>2026-05-03T12:09:47.113Z</time></trkpt><trkpt lat="44.5913483" lon="10.8438469"><ele>68.0</ele><time>2026-05-03T12:09:48.113Z</time></trkpt><trkpt lat="44.5915356" lon="10.8439292"><ele>67.66666666666667</ele><time>2026-05-03T12:09:49.112Z</time></trkpt><trkpt lat="44.5917239" lon="10.8440118"><ele>67.33333333333333</ele><time>2026-05-03T12:09:50.117Z</time></trkpt><trkpt lat="44.5919111" lon="10.8440909"><ele>67.0</ele><time>2026-05-03T12:09:51.114Z</time></trkpt><trkpt lat="44.592099" lon="10.8441733"><ele>67.0</ele><time>2026-05-03T12:09:52.115Z</time></trkpt><trkpt lat="44.5922861" lon="10.8442545"><ele>67.0</ele><time>2026-05-03T12:09:53.115Z</time></trkpt><trkpt lat="44.5924732" lon="10.8443358"><ele>67.0</ele><time>2026-05-03T12:09:54.113Z</time></trkpt><trkpt lat="44.5926605" lon="10.8444182"><ele>65.66666666666666</ele><time>2026-05-03T12:09:55.115Z</time></trkpt><trkpt lat="44.5928481" lon="10.8444981"><ele>64.33333333333333</ele><time>2026-05-03T12:09:56.115Z</time></trkpt><trkpt lat="44.5930384" lon="10.8445837"><ele>63.0</ele><time>2026-05-03T12:09:57.116Z</time></trkpt><trkpt lat="44.5932262" lon="10.8446704"><ele>63.0</ele><time>2026-05-03T12:09:58.114Z</time></trkpt><trkpt lat="44.5934136" lon="10.8447558"><ele>63.0</ele><time>2026-05-03T12:09:59.118Z</time></trkpt><trkpt lat="44.5936015" lon="10.8448404"><ele>63.0</ele><time>2026-05-03T12:10:00.114Z</time></trkpt><trkpt lat="44.5937876" lon="10.8449258"><ele>63.66666666666667</ele><time>2026-05-03T12:10:01.114Z</time></trkpt><trkpt lat="44.5939737" lon="10.8450094"><ele>64.33333333333334</ele><time>2026-05-03T12:10:02.116Z</time></trkpt><trkpt lat="44.5941626" lon="10.8450933"><ele>65.0</ele><time>2026-05-03T12:10:03.113Z</time></trkpt><trkpt lat="44.5943519" lon="10.8451741"><ele>64.66666666666667</ele><time>2026-05-03T12:10:04.113Z</time></trkpt><trkpt lat="44.5945414" lon="10.8452521"><ele>64.33333333333333</ele><time>2026-05-03T12:10:05.113Z</time></trkpt><trkpt lat="44.5947321" lon="10.845333"><ele>64.0</ele><time>2026-05-03T12:10:06.116Z</time></trkpt><trkpt lat="44.5949207" lon="10.8454194"><ele>64.0</ele><time>2026-05-03T12:10:07.114Z</time></trkpt><trkpt lat="44.5951096" lon="10.8455018"><ele>64.0</ele><time>2026-05-03T12:10:08.114Z</time></trkpt><trkpt lat="44.5952977" lon="10.8455848"><ele>64.0</ele><time>2026-05-03T12:10:09.116Z</time></trkpt><trkpt lat="44.5954859" lon="10.8456678"><ele>64.33333333333333</ele><time>2026-05-03T12:10:10.119Z</time></trkpt><trkpt lat="44.595675" lon="10.8457531"><ele>64.66666666666667</ele><time>2026-05-03T12:10:11.116Z</time></trkpt><trkpt lat="44.5958638" lon="10.8458365"><ele>65.0</ele><time>2026-05-03T12:10:12.114Z</time></trkpt><trkpt lat="44.5960515" lon="10.84592"><ele>64.66666666666667</ele><time>2026-05-03T12:10:13.115Z</time></trkpt><trkpt lat="44.5962405" lon="10.8460057"><ele>64.33333333333333</ele><time>2026-05-03T12:10:14.112Z</time></trkpt><trkpt lat="44.5964301" lon="10.8460924"><ele>64.0</ele><time>2026-05-03T12:10:15.113Z</time></trkpt><trkpt lat="44.5966107" lon="10.8461702"><ele>64.0</ele><time>2026-05-03T12:10:16.113Z</time></trkpt><trkpt lat="44.5967994" lon="10.8462552"><ele>64.0</ele><time>2026-05-03T12:10:17.114Z</time></trkpt><trkpt lat="44.5969873" lon="10.8463377"><ele>64.0</ele><time>2026-05-03T12:10:18.111Z</time></trkpt><trkpt lat="44.5971747" lon="10.8464206"><ele>63.666666666666664</ele><time>2026-05-03T12:10:19.113Z</time></trkpt><trkpt lat="44.5973635" lon="10.8465055"><ele>63.33333333333333</ele><time>2026-05-03T12:10:20.116Z</time></trkpt><trkpt lat="44.5975522" lon="10.8465904"><ele>63.0</ele><time>2026-05-03T12:10:21.113Z</time></trkpt><trkpt lat="44.5977417" lon="10.8466734"><ele>63.0</ele><time>2026-05-03T12:10:22.112Z</time></trkpt><trkpt lat="44.5979297" lon="10.8467551"><ele>63.0</ele><time>2026-05-03T12:10:23.113Z</time></trkpt><trkpt lat="44.5981185" lon="10.8468386"><ele>63.0</ele><time>2026-05-03T12:10:24.113Z</time></trkpt><trkpt lat="44.5983083" lon="10.846923"><ele>63.0</ele><time>2026-05-03T12:10:25.112Z</time></trkpt><trkpt lat="44.5984983" lon="10.8470074"><ele>63.0</ele><time>2026-05-03T12:10:26.112Z</time></trkpt><trkpt lat="44.5986857" lon="10.8470918"><ele>63.0</ele><time>2026-05-03T12:10:27.113Z</time></trkpt><trkpt lat="44.5988735" lon="10.8471771"><ele>62.66666666666667</ele><time>2026-05-03T12:10:28.112Z</time></trkpt><trkpt lat="44.5990618" lon="10.847261"><ele>62.333333333333336</ele><time>2026-05-03T12:10:29.111Z</time></trkpt><trkpt lat="44.5992506" lon="10.8473429"><ele>62.0</ele><time>2026-05-03T12:10:30.111Z</time></trkpt><trkpt lat="44.5994412" lon="10.8474261"><ele>61.66666666666667</ele><time>2026-05-03T12:10:31.112Z</time></trkpt><trkpt lat="44.5996293" lon="10.8475107"><ele>61.33333333333333</ele><time>2026-05-03T12:10:32.113Z</time></trkpt><trkpt lat="44.5998178" lon="10.8475932"><ele>61.0</ele><time>2026-05-03T12:10:33.111Z</time></trkpt><trkpt lat="44.6000055" lon="10.8476742"><ele>61.0</ele><time>2026-05-03T12:10:34.115Z</time></trkpt><trkpt lat="44.6001937" lon="10.8477561"><ele>61.0</ele><time>2026-05-03T12:10:35.113Z</time></trkpt><trkpt lat="44.6003821" lon="10.8478371"><ele>61.0</ele><time>2026-05-03T12:10:36.112Z</time></trkpt><trkpt lat="44.6005709" lon="10.8479208"><ele>60.666666666666664</ele><time>2026-05-03T12:10:37.112Z</time></trkpt><trkpt lat="44.6007595" lon="10.8480096"><ele>60.33333333333333</ele><time>2026-05-03T12:10:38.114Z</time></trkpt><trkpt lat="44.6009469" lon="10.8481029"><ele>60.0</ele><time>2026-05-03T12:10:39.115Z</time></trkpt><trkpt lat="44.6011308" lon="10.848201"><ele>59.66666666666667</ele><time>2026-05-03T12:10:40.112Z</time></trkpt><trkpt lat="44.6013116" lon="10.8483094"><ele>59.333333333333336</ele><time>2026-05-03T12:10:41.114Z</time></trkpt><trkpt lat="44.6014904" lon="10.8484243"><ele>59.0</ele><time>2026-05-03T12:10:42.114Z</time></trkpt><trkpt lat="44.6016673" lon="10.8485464"><ele>58.66666666666667</ele><time>2026-05-03T12:10:43.112Z</time></trkpt><trkpt lat="44.6018426" lon="10.8486726"><ele>58.33333333333333</ele><time>2026-05-03T12:10:44.113Z</time></trkpt><trkpt lat="44.6020162" lon="10.8488065"><ele>58.0</ele><time>2026-05-03T12:10:45.114Z</time></trkpt><trkpt lat="44.6021861" lon="10.8489471"><ele>58.0</ele><time>2026-05-03T12:10:46.114Z</time></trkpt><trkpt lat="44.6023531" lon="10.8490963"><ele>58.0</ele><time>2026-05-03T12:10:47.114Z</time></trkpt><trkpt lat="44.6025164" lon="10.8492513"><ele>58.0</ele><time>2026-05-03T12:10:48.115Z</time></trkpt><trkpt lat="44.6026767" lon="10.8494118"><ele>57.666666666666664</ele><time>2026-05-03T12:10:49.116Z</time></trkpt><trkpt lat="44.6028328" lon="10.8495759"><ele>57.33333333333333</ele><time>2026-05-03T12:10:50.114Z</time></trkpt><trkpt lat="44.6029873" lon="10.8497449"><ele>57.0</ele><time>2026-05-03T12:10:51.116Z</time></trkpt><trkpt lat="44.60314" lon="10.8499156"><ele>57.0</ele><time>2026-05-03T12:10:52.116Z</time></trkpt><trkpt lat="44.6032935" lon="10.8500923"><ele>57.0</ele><time>2026-05-03T12:10:53.116Z</time></trkpt><trkpt lat="44.6034487" lon="10.8502671"><ele>57.0</ele><time>2026-05-03T12:10:54.115Z</time></trkpt><trkpt lat="44.6036075" lon="10.8504453"><ele>57.0</ele><time>2026-05-03T12:10:55.112Z</time></trkpt><trkpt lat="44.6037684" lon="10.8506263"><ele>57.0</ele><time>2026-05-03T12:10:56.112Z</time></trkpt><trkpt lat="44.6039323" lon="10.8508097"><ele>57.0</ele><time>2026-05-03T12:10:57.111Z</time></trkpt><trkpt lat="44.6040966" lon="10.8509932"><ele>57.33333333333333</ele><time>2026-05-03T12:10:58.111Z</time></trkpt><trkpt lat="44.6042614" lon="10.8511756"><ele>57.666666666666664</ele><time>2026-05-03T12:10:59.111Z</time></trkpt><trkpt lat="44.6044229" lon="10.8513589"><ele>58.0</ele><time>2026-05-03T12:11:00.113Z</time></trkpt><trkpt lat="44.6045821" lon="10.8515398"><ele>58.0</ele><time>2026-05-03T12:11:01.114Z</time></trkpt><trkpt lat="44.6047444" lon="10.8517221"><ele>58.0</ele><time>2026-05-03T12:11:02.113Z</time></trkpt><trkpt lat="44.604907" lon="10.8519095"><ele>58.0</ele><time>2026-05-03T12:11:03.111Z</time></trkpt><trkpt lat="44.6050692" lon="10.8520968"><ele>58.0</ele><time>2026-05-03T12:11:04.111Z</time></trkpt><trkpt lat="44.6052337" lon="10.8522824"><ele>58.0</ele><time>2026-05-03T12:11:05.113Z</time></trkpt><trkpt lat="44.6053973" lon="10.8524672"><ele>58.0</ele><time>2026-05-03T12:11:06.114Z</time></trkpt><trkpt lat="44.6055621" lon="10.8526481"><ele>57.666666666666664</ele><time>2026-05-03T12:11:07.115Z</time></trkpt><trkpt lat="44.6057253" lon="10.8528298"><ele>57.33333333333333</ele><time>2026-05-03T12:11:08.114Z</time></trkpt><trkpt lat="44.6058865" lon="10.8530111"><ele>57.0</ele><time>2026-05-03T12:11:09.114Z</time></trkpt><trkpt lat="44.6060491" lon="10.8531944"><ele>57.0</ele><time>2026-05-03T12:11:10.112Z</time></trkpt><trkpt lat="44.606212" lon="10.8533791"><ele>57.0</ele><time>2026-05-03T12:11:11.113Z</time></trkpt><trkpt lat="44.6063753" lon="10.8535636"><ele>57.0</ele><time>2026-05-03T12:11:12.114Z</time></trkpt><trkpt lat="44.6065387" lon="10.8537488"><ele>57.0</ele><time>2026-05-03T12:11:13.114Z</time></trkpt><trkpt lat="44.6067037" lon="10.8539357"><ele>57.0</ele><time>2026-05-03T12:11:14.115Z</time></trkpt><trkpt lat="44.6068701" lon="10.854125"><ele>57.0</ele><time>2026-05-03T12:11:15.115Z</time></trkpt><trkpt lat="44.6070403" lon="10.8543194"><ele>57.0</ele><time>2026-05-03T12:11:16.116Z</time></trkpt><trkpt lat="44.6072124" lon="10.8545131"><ele>57.0</ele><time>2026-05-03T12:11:17.114Z</time></trkpt><trkpt lat="44.6073864" lon="10.8547056"><ele>57.0</ele><time>2026-05-03T12:11:18.116Z</time></trkpt><trkpt lat="44.6075601" lon="10.8548964"><ele>57.0</ele><time>2026-05-03T12:11:19.116Z</time></trkpt><trkpt lat="44.6077323" lon="10.8550857"><ele>57.0</ele><time>2026-05-03T12:11:20.114Z</time></trkpt><trkpt lat="44.6079032" lon="10.8552748"><ele>57.0</ele><time>2026-05-03T12:11:21.115Z</time></trkpt><trkpt lat="44.6080731" lon="10.8554648"><ele>57.0</ele><time>2026-05-03T12:11:22.115Z</time></trkpt><trkpt lat="44.6082441" lon="10.855656"><ele>57.0</ele><time>2026-05-03T12:11:23.116Z</time></trkpt><trkpt lat="44.6084154" lon="10.8558437"><ele>57.0</ele><time>2026-05-03T12:11:24.116Z</time></trkpt><trkpt lat="44.6085884" lon="10.8560372"><ele>57.5</ele><time>2026-05-03T12:11:25.113Z</time></trkpt><trkpt lat="44.6087634" lon="10.856235"><ele>58.0</ele><time>2026-05-03T12:11:26.115Z</time></trkpt><trkpt lat="44.6089421" lon="10.8564341"><ele>58.0</ele><time>2026-05-03T12:11:27.113Z</time></trkpt><trkpt lat="44.6091213" lon="10.8566349"><ele>58.0</ele><time>2026-05-03T12:11:28.115Z</time></trkpt><trkpt lat="44.6092998" lon="10.8568337"><ele>58.0</ele><time>2026-05-03T12:11:29.113Z</time></trkpt><trkpt lat="44.609478" lon="10.8570294"><ele>58.0</ele><time>2026-05-03T12:11:30.116Z</time></trkpt><trkpt lat="44.6096538" lon="10.8572241"><ele>56.5</ele><time>2026-05-03T12:11:31.114Z</time></trkpt><trkpt lat="44.6098325" lon="10.8574162"><ele>55.0</ele><time>2026-05-03T12:11:32.113Z</time></trkpt><trkpt lat="44.6100099" lon="10.8576097"><ele>54.5</ele><time>2026-05-03T12:11:33.111Z</time></trkpt><trkpt lat="44.6101881" lon="10.8578029"><ele>54.0</ele><time>2026-05-03T12:11:34.113Z</time></trkpt><trkpt lat="44.610365" lon="10.8579998"><ele>53.0</ele><time>2026-05-03T12:11:35.115Z</time></trkpt><trkpt lat="44.6105437" lon="10.8581931"><ele>52.0</ele><time>2026-05-03T12:11:36.114Z</time></trkpt><trkpt lat="44.6107213" lon="10.8583871"><ele>53.0</ele><time>2026-05-03T12:11:37.115Z</time></trkpt><trkpt lat="44.6108972" lon="10.8585838"><ele>54.0</ele><time>2026-05-03T12:11:38.114Z</time></trkpt><trkpt lat="44.6110742" lon="10.8587787"><ele>54.0</ele><time>2026-05-03T12:11:39.115Z</time></trkpt><trkpt lat="44.61125" lon="10.8589771"><ele>54.0</ele><time>2026-05-03T12:11:40.115Z</time></trkpt><trkpt lat="44.611425" lon="10.8591764"><ele>54.0</ele><time>2026-05-03T12:11:41.114Z</time></trkpt><trkpt lat="44.6116" lon="10.8593775"><ele>54.0</ele><time>2026-05-03T12:11:42.114Z</time></trkpt><trkpt lat="44.6117746" lon="10.8595798"><ele>54.0</ele><time>2026-05-03T12:11:43.114Z</time></trkpt><trkpt lat="44.6119507" lon="10.8597812"><ele>54.0</ele><time>2026-05-03T12:11:44.114Z</time></trkpt><trkpt lat="44.6121261" lon="10.8599801"><ele>53.0</ele><time>2026-05-03T12:11:45.114Z</time></trkpt><trkpt lat="44.6123016" lon="10.8601783"><ele>52.0</ele><time>2026-05-03T12:11:46.114Z</time></trkpt><trkpt lat="44.6124754" lon="10.8603812"><ele>52.0</ele><time>2026-05-03T12:11:47.115Z</time></trkpt><trkpt lat="44.6126481" lon="10.8605848"><ele>52.0</ele><time>2026-05-03T12:11:48.115Z</time></trkpt><trkpt lat="44.6128217" lon="10.860787"><ele>53.5</ele><time>2026-05-03T12:11:49.114Z</time></trkpt><trkpt lat="44.612995" lon="10.8609902"><ele>55.0</ele><time>2026-05-03T12:11:50.115Z</time></trkpt><trkpt lat="44.6131685" lon="10.8611922"><ele>55.0</ele><time>2026-05-03T12:11:51.114Z</time></trkpt><trkpt lat="44.6133423" lon="10.8613914"><ele>55.0</ele><time>2026-05-03T12:11:52.116Z</time></trkpt><trkpt lat="44.6135174" lon="10.8615925"><ele>54.5</ele><time>2026-05-03T12:11:53.114Z</time></trkpt><trkpt lat="44.6136909" lon="10.8617926"><ele>54.0</ele><time>2026-05-03T12:11:54.114Z</time></trkpt><trkpt lat="44.613865" lon="10.861996"><ele>54.0</ele><time>2026-05-03T12:11:55.114Z</time></trkpt><trkpt lat="44.6140407" lon="10.8621972"><ele>54.0</ele><time>2026-05-03T12:11:56.114Z</time></trkpt><trkpt lat="44.6142165" lon="10.8623935"><ele>54.0</ele><time>2026-05-03T12:11:57.113Z</time></trkpt><trkpt lat="44.6143954" lon="10.8625874"><ele>54.0</ele><time>2026-05-03T12:11:58.112Z</time></trkpt><trkpt lat="44.6145818" lon="10.8627878"><ele>52.5</ele><time>2026-05-03T12:11:59.112Z</time></trkpt><trkpt lat="44.6147698" lon="10.8629816"><ele>51.0</ele><time>2026-05-03T12:12:00.113Z</time></trkpt><trkpt lat="44.6149609" lon="10.8631717"><ele>51.0</ele><time>2026-05-03T12:12:01.115Z</time></trkpt><trkpt lat="44.6151534" lon="10.8633618"><ele>51.0</ele><time>2026-05-03T12:12:02.112Z</time></trkpt><trkpt lat="44.6153463" lon="10.8635449"><ele>51.0</ele><time>2026-05-03T12:12:03.114Z</time></trkpt><trkpt lat="44.6155412" lon="10.863726"><ele>51.0</ele><time>2026-05-03T12:12:04.116Z</time></trkpt><trkpt lat="44.6157363" lon="10.8639009"><ele>51.0</ele><time>2026-05-03T12:12:05.116Z</time></trkpt><trkpt lat="44.6159322" lon="10.8640757"><ele>51.0</ele><time>2026-05-03T12:12:06.116Z</time></trkpt><trkpt lat="44.6161285" lon="10.8642441"><ele>51.0</ele><time>2026-05-03T12:12:07.115Z</time></trkpt><trkpt lat="44.6163271" lon="10.8644114"><ele>51.0</ele><time>2026-05-03T12:12:08.115Z</time></trkpt><trkpt lat="44.6165268" lon="10.8645808"><ele>51.0</ele><time>2026-05-03T12:12:09.117Z</time></trkpt><trkpt lat="44.6167259" lon="10.8647526"><ele>51.0</ele><time>2026-05-03T12:12:10.114Z</time></trkpt><trkpt lat="44.6169257" lon="10.8649221"><ele>51.5</ele><time>2026-05-03T12:12:11.116Z</time></trkpt><trkpt lat="44.6171241" lon="10.8650944"><ele>52.0</ele><time>2026-05-03T12:12:12.113Z</time></trkpt><trkpt lat="44.6173218" lon="10.8652636"><ele>51.0</ele><time>2026-05-03T12:12:13.116Z</time></trkpt><trkpt lat="44.6175205" lon="10.8654325"><ele>50.0</ele><time>2026-05-03T12:12:14.115Z</time></trkpt><trkpt lat="44.6177199" lon="10.8655995"><ele>50.0</ele><time>2026-05-03T12:12:15.115Z</time></trkpt><trkpt lat="44.6179203" lon="10.8657663"><ele>50.0</ele><time>2026-05-03T12:12:16.117Z</time></trkpt><trkpt lat="44.618121" lon="10.8659358"><ele>49.5</ele><time>2026-05-03T12:12:17.116Z</time></trkpt><trkpt lat="44.6183204" lon="10.8661034"><ele>49.0</ele><time>2026-05-03T12:12:18.113Z</time></trkpt><trkpt lat="44.6185186" lon="10.8662737"><ele>48.0</ele><time>2026-05-03T12:12:19.115Z</time></trkpt><trkpt lat="44.6187171" lon="10.8664437"><ele>47.0</ele><time>2026-05-03T12:12:20.117Z</time></trkpt><trkpt lat="44.6189168" lon="10.8666149"><ele>48.0</ele><time>2026-05-03T12:12:21.114Z</time></trkpt><trkpt lat="44.6191151" lon="10.8667852"><ele>49.0</ele><time>2026-05-03T12:12:22.112Z</time></trkpt><trkpt lat="44.6193139" lon="10.8669589"><ele>48.5</ele><time>2026-05-03T12:12:23.115Z</time></trkpt><trkpt lat="44.6195112" lon="10.8671367"><ele>48.0</ele><time>2026-05-03T12:12:24.116Z</time></trkpt><trkpt lat="44.6197038" lon="10.867319"><ele>48.0</ele><time>2026-05-03T12:12:25.118Z</time></trkpt><trkpt lat="44.619894" lon="10.8675064"><ele>48.0</ele><time>2026-05-03T12:12:26.114Z</time></trkpt><trkpt lat="44.620082" lon="10.8676975"><ele>48.0</ele><time>2026-05-03T12:12:27.115Z</time></trkpt><trkpt lat="44.6202696" lon="10.8678929"><ele>48.0</ele><time>2026-05-03T12:12:28.114Z</time></trkpt><trkpt lat="44.6204547" lon="10.8680867"><ele>47.5</ele><time>2026-05-03T12:12:29.117Z</time></trkpt><trkpt lat="44.62064" lon="10.8682876"><ele>47.0</ele><time>2026-05-03T12:12:30.115Z</time></trkpt><trkpt lat="44.6208216" lon="10.8684914"><ele>47.0</ele><time>2026-05-03T12:12:31.115Z</time></trkpt><trkpt lat="44.6210016" lon="10.8686991"><ele>47.0</ele><time>2026-05-03T12:12:32.115Z</time></trkpt><trkpt lat="44.6211792" lon="10.8689121"><ele>47.0</ele><time>2026-05-03T12:12:33.114Z</time></trkpt><trkpt lat="44.6213549" lon="10.8691252"><ele>47.0</ele><time>2026-05-03T12:12:34.116Z</time></trkpt><trkpt lat="44.6215287" lon="10.8693427"><ele>47.5</ele><time>2026-05-03T12:12:35.113Z</time></trkpt><trkpt lat="44.6217004" lon="10.869563"><ele>48.0</ele><time>2026-05-03T12:12:36.113Z</time></trkpt><trkpt lat="44.6218684" lon="10.8697882"><ele>46.5</ele><time>2026-05-03T12:12:37.114Z</time></trkpt><trkpt lat="44.6220337" lon="10.8700173"><ele>45.0</ele><time>2026-05-03T12:12:38.112Z</time></trkpt><trkpt lat="44.6221979" lon="10.8702504"><ele>44.0</ele><time>2026-05-03T12:12:39.115Z</time></trkpt><trkpt lat="44.6223606" lon="10.8704849"><ele>43.0</ele><time>2026-05-03T12:12:40.115Z</time></trkpt><trkpt lat="44.6225241" lon="10.8707146"><ele>43.5</ele><time>2026-05-03T12:12:41.117Z</time></trkpt><trkpt lat="44.6226876" lon="10.870947"><ele>44.0</ele><time>2026-05-03T12:12:42.114Z</time></trkpt><trkpt lat="44.6228512" lon="10.8711758"><ele>44.0</ele><time>2026-05-03T12:12:43.115Z</time></trkpt><trkpt lat="44.6230136" lon="10.8714082"><ele>44.0</ele><time>2026-05-03T12:12:44.116Z</time></trkpt><trkpt lat="44.6231756" lon="10.8716423"><ele>44.5</ele><time>2026-05-03T12:12:45.114Z</time></trkpt><trkpt lat="44.6233377" lon="10.8718754"><ele>45.0</ele><time>2026-05-03T12:12:46.115Z</time></trkpt><trkpt lat="44.6234999" lon="10.8721097"><ele>45.0</ele><time>2026-05-03T12:12:47.115Z</time></trkpt><trkpt lat="44.6236636" lon="10.8723431"><ele>45.0</ele><time>2026-05-03T12:12:48.115Z</time></trkpt><trkpt lat="44.6238269" lon="10.872576"><ele>44.0</ele><time>2026-05-03T12:12:49.116Z</time></trkpt><trkpt lat="44.6239904" lon="10.8728099"><ele>43.0</ele><time>2026-05-03T12:12:50.115Z</time></trkpt><trkpt lat="44.624153" lon="10.8730408"><ele>43.0</ele><time>2026-05-03T12:12:51.116Z</time></trkpt><trkpt lat="44.6243196" lon="10.8732726"><ele>43.0</ele><time>2026-05-03T12:12:52.115Z</time></trkpt><trkpt lat="44.6244868" lon="10.8735015"><ele>43.5</ele><time>2026-05-03T12:12:53.114Z</time></trkpt><trkpt lat="44.6246546" lon="10.8737279"><ele>44.0</ele><time>2026-05-03T12:12:54.115Z</time></trkpt><trkpt lat="44.6248232" lon="10.8739553"><ele>44.0</ele><time>2026-05-03T12:12:55.114Z</time></trkpt><trkpt lat="44.6249933" lon="10.8741792"><ele>44.0</ele><time>2026-05-03T12:12:56.117Z</time></trkpt><trkpt lat="44.6251648" lon="10.8743979"><ele>43.0</ele><time>2026-05-03T12:12:57.114Z</time></trkpt><trkpt lat="44.6253376" lon="10.8746157"><ele>42.0</ele><time>2026-05-03T12:12:58.119Z</time></trkpt><trkpt lat="44.6255118" lon="10.8748311"><ele>42.0</ele><time>2026-05-03T12:12:59.116Z</time></trkpt><trkpt lat="44.6256865" lon="10.8750456"><ele>42.0</ele><time>2026-05-03T12:13:00.117Z</time></trkpt><trkpt lat="44.6258622" lon="10.8752608"><ele>42.5</ele><time>2026-05-03T12:13:01.116Z</time></trkpt><trkpt lat="44.6260377" lon="10.8754753"><ele>43.0</ele><time>2026-05-03T12:13:02.114Z</time></trkpt><trkpt lat="44.6262137" lon="10.8756896"><ele>42.5</ele><time>2026-05-03T12:13:03.114Z</time></trkpt><trkpt lat="44.6263894" lon="10.8759029"><ele>42.0</ele><time>2026-05-03T12:13:04.114Z</time></trkpt><trkpt lat="44.6265644" lon="10.8761157"><ele>42.0</ele><time>2026-05-03T12:13:05.115Z</time></trkpt><trkpt lat="44.6267388" lon="10.8763261"><ele>42.0</ele><time>2026-05-03T12:13:06.113Z</time></trkpt><trkpt lat="44.6269139" lon="10.8765394"><ele>44.0</ele><time>2026-05-03T12:13:07.115Z</time></trkpt><trkpt lat="44.6270897" lon="10.8767526"><ele>46.0</ele><time>2026-05-03T12:13:08.117Z</time></trkpt><trkpt lat="44.6272647" lon="10.8769672"><ele>46.0</ele><time>2026-05-03T12:13:09.115Z</time></trkpt><trkpt lat="44.627439" lon="10.8771831"><ele>46.0</ele><time>2026-05-03T12:13:10.116Z</time></trkpt><trkpt lat="44.6276156" lon="10.8773951"><ele>46.0</ele><time>2026-05-03T12:13:11.115Z</time></trkpt><trkpt lat="44.627792" lon="10.8776074"><ele>46.0</ele><time>2026-05-03T12:13:12.116Z</time></trkpt><trkpt lat="44.6279678" lon="10.8778202"><ele>46.0</ele><time>2026-05-03T12:13:13.114Z</time></trkpt><trkpt lat="44.6281438" lon="10.8780319"><ele>46.0</ele><time>2026-05-03T12:13:14.114Z</time></trkpt><trkpt lat="44.6283214" lon="10.8782469"><ele>46.0</ele><time>2026-05-03T12:13:15.116Z</time></trkpt><trkpt lat="44.6284987" lon="10.8784628"><ele>46.0</ele><time>2026-05-03T12:13:16.116Z</time></trkpt><trkpt lat="44.6286752" lon="10.8786783"><ele>46.0</ele><time>2026-05-03T12:13:17.116Z</time></trkpt><trkpt lat="44.6288527" lon="10.8788942"><ele>46.0</ele><time>2026-05-03T12:13:18.116Z</time></trkpt><trkpt lat="44.62903" lon="10.8791075"><ele>45.0</ele><time>2026-05-03T12:13:19.112Z</time></trkpt><trkpt lat="44.6292075" lon="10.8793184"><ele>44.0</ele><time>2026-05-03T12:13:20.114Z</time></trkpt><trkpt lat="44.629386" lon="10.87953"><ele>44.0</ele><time>2026-05-03T12:13:21.114Z</time></trkpt><trkpt lat="44.6295648" lon="10.8797401"><ele>44.0</ele><time>2026-05-03T12:13:22.115Z</time></trkpt><trkpt lat="44.6297454" lon="10.8799479"><ele>44.5</ele><time>2026-05-03T12:13:23.114Z</time></trkpt><trkpt lat="44.6299299" lon="10.8801468"><ele>45.0</ele><time>2026-05-03T12:13:24.116Z</time></trkpt><trkpt lat="44.6301185" lon="10.8803378"><ele>44.5</ele><time>2026-05-03T12:13:25.115Z</time></trkpt><trkpt lat="44.6303113" lon="10.8805191"><ele>44.0</ele><time>2026-05-03T12:13:26.115Z</time></trkpt><trkpt lat="44.6305065" lon="10.8806947"><ele>44.0</ele><time>2026-05-03T12:13:27.114Z</time></trkpt><trkpt lat="44.6307044" lon="10.8808628"><ele>44.0</ele><time>2026-05-03T12:13:28.116Z</time></trkpt><trkpt lat="44.6309071" lon="10.8810216"><ele>44.0</ele><time>2026-05-03T12:13:29.112Z</time></trkpt><trkpt lat="44.6311131" lon="10.881173"><ele>44.0</ele><time>2026-05-03T12:13:30.117Z</time></trkpt><trkpt lat="44.6313213" lon="10.8813165"><ele>42.5</ele><time>2026-05-03T12:13:31.115Z</time></trkpt><trkpt lat="44.6315327" lon="10.8814516"><ele>41.0</ele><time>2026-05-03T12:13:32.116Z</time></trkpt><trkpt lat="44.6317459" lon="10.881577"><ele>41.0</ele><time>2026-05-03T12:13:33.113Z</time></trkpt><trkpt lat="44.6319632" lon="10.8816947"><ele>41.0</ele><time>2026-05-03T12:13:34.119Z</time></trkpt><trkpt lat="44.6321823" lon="10.8817978"><ele>40.5</ele><time>2026-05-03T12:13:35.114Z</time></trkpt><trkpt lat="44.6324043" lon="10.881889"><ele>40.0</ele><time>2026-05-03T12:13:36.115Z</time></trkpt><trkpt lat="44.632627" lon="10.8819752"><ele>40.0</ele><time>2026-05-03T12:13:37.114Z</time></trkpt><trkpt lat="44.6328515" lon="10.8820557"><ele>40.0</ele><time>2026-05-03T12:13:38.114Z</time></trkpt><trkpt lat="44.6330788" lon="10.882123"><ele>40.0</ele><time>2026-05-03T12:13:39.118Z</time></trkpt><trkpt lat="44.6333073" lon="10.8821838"><ele>40.0</ele><time>2026-05-03T12:13:40.116Z</time></trkpt><trkpt lat="44.6335367" lon="10.8822321"><ele>40.0</ele><time>2026-05-03T12:13:41.112Z</time></trkpt><trkpt lat="44.6337685" lon="10.8822754"><ele>40.0</ele><time>2026-05-03T12:13:42.117Z</time></trkpt><trkpt lat="44.6339992" lon="10.8823041"><ele>40.0</ele><time>2026-05-03T12:13:43.116Z</time></trkpt><trkpt lat="44.6342302" lon="10.8823282"><ele>40.0</ele><time>2026-05-03T12:13:44.115Z</time></trkpt><trkpt lat="44.6344624" lon="10.8823418"><ele>40.5</ele><time>2026-05-03T12:13:45.114Z</time></trkpt><trkpt lat="44.6346954" lon="10.8823477"><ele>41.0</ele><time>2026-05-03T12:13:46.112Z</time></trkpt><trkpt lat="44.6349291" lon="10.8823462"><ele>41.0</ele><time>2026-05-03T12:13:47.117Z</time></trkpt><trkpt lat="44.6351622" lon="10.8823332"><ele>41.0</ele><time>2026-05-03T12:13:48.114Z</time></trkpt><trkpt lat="44.6353943" lon="10.8823081"><ele>40.5</ele><time>2026-05-03T12:13:49.112Z</time></trkpt><trkpt lat="44.6356266" lon="10.8822749"><ele>40.0</ele><time>2026-05-03T12:13:50.114Z</time></trkpt><trkpt lat="44.6358562" lon="10.8822308"><ele>40.0</ele><time>2026-05-03T12:13:51.116Z</time></trkpt><trkpt lat="44.636085" lon="10.8821778"><ele>40.0</ele><time>2026-05-03T12:13:52.116Z</time></trkpt><trkpt lat="44.6363135" lon="10.8821155"><ele>39.5</ele><time>2026-05-03T12:13:53.114Z</time></trkpt><trkpt lat="44.6365401" lon="10.8820448"><ele>39.0</ele><time>2026-05-03T12:13:54.116Z</time></trkpt><trkpt lat="44.6367675" lon="10.8819684"><ele>37.5</ele><time>2026-05-03T12:13:55.116Z</time></trkpt><trkpt lat="44.636991" lon="10.8818807"><ele>36.0</ele><time>2026-05-03T12:13:56.117Z</time></trkpt><trkpt lat="44.6372135" lon="10.8817829"><ele>37.0</ele><time>2026-05-03T12:13:57.115Z</time></trkpt><trkpt lat="44.6374376" lon="10.8816777"><ele>38.0</ele><time>2026-05-03T12:13:58.119Z</time></trkpt><trkpt lat="44.6376516" lon="10.8815593"><ele>39.0</ele><time>2026-05-03T12:13:59.113Z</time></trkpt><trkpt lat="44.6378665" lon="10.8814312"><ele>40.0</ele><time>2026-05-03T12:14:00.115Z</time></trkpt><trkpt lat="44.6380784" lon="10.8812953"><ele>40.0</ele><time>2026-05-03T12:14:01.113Z</time></trkpt><trkpt lat="44.6382865" lon="10.8811521"><ele>40.0</ele><time>2026-05-03T12:14:02.113Z</time></trkpt><trkpt lat="44.6384931" lon="10.8810015"><ele>40.0</ele><time>2026-05-03T12:14:03.114Z</time></trkpt><trkpt lat="44.6386973" lon="10.8808415"><ele>40.0</ele><time>2026-05-03T12:14:04.116Z</time></trkpt><trkpt lat="44.6388985" lon="10.8806718"><ele>40.0</ele><time>2026-05-03T12:14:05.113Z</time></trkpt><trkpt lat="44.6390935" lon="10.8804958"><ele>40.0</ele><time>2026-05-03T12:14:06.118Z</time></trkpt><trkpt lat="44.6392866" lon="10.8803143"><ele>39.5</ele><time>2026-05-03T12:14:07.114Z</time></trkpt><trkpt lat="44.6394768" lon="10.8801242"><ele>39.0</ele><time>2026-05-03T12:14:08.115Z</time></trkpt><trkpt lat="44.6396612" lon="10.8799249"><ele>38.5</ele><time>2026-05-03T12:14:09.116Z</time></trkpt><trkpt lat="44.6398435" lon="10.8797222"><ele>38.0</ele><time>2026-05-03T12:14:10.115Z</time></trkpt><trkpt lat="44.6400216" lon="10.8795135"><ele>38.0</ele><time>2026-05-03T12:14:11.115Z</time></trkpt><trkpt lat="44.6401936" lon="10.8792953"><ele>38.0</ele><time>2026-05-03T12:14:12.114Z</time></trkpt><trkpt lat="44.6403579" lon="10.8790665"><ele>38.5</ele><time>2026-05-03T12:14:13.116Z</time></trkpt><trkpt lat="44.6405174" lon="10.8788309"><ele>39.0</ele><time>2026-05-03T12:14:14.117Z</time></trkpt><trkpt lat="44.6406781" lon="10.8785889"><ele>39.5</ele><time>2026-05-03T12:14:15.115Z</time></trkpt><trkpt lat="44.6408374" lon="10.8783532"><ele>40.0</ele><time>2026-05-03T12:14:16.116Z</time></trkpt><trkpt lat="44.6410003" lon="10.8781188"><ele>38.5</ele><time>2026-05-03T12:14:17.117Z</time></trkpt><trkpt lat="44.641172" lon="10.8778946"><ele>37.0</ele><time>2026-05-03T12:14:18.114Z</time></trkpt><trkpt lat="44.6413556" lon="10.8776949"><ele>37.0</ele><time>2026-05-03T12:14:19.116Z</time></trkpt><trkpt lat="44.6415514" lon="10.8775265"><ele>37.0</ele><time>2026-05-03T12:14:20.115Z</time></trkpt><trkpt lat="44.6417572" lon="10.8773866"><ele>36.333333333333336</ele><time>2026-05-03T12:14:21.115Z</time></trkpt><trkpt lat="44.641971" lon="10.8772816"><ele>35.666666666666664</ele><time>2026-05-03T12:14:22.116Z</time></trkpt><trkpt lat="44.6421809" lon="10.8772029"><ele>35.0</ele><time>2026-05-03T12:14:23.113Z</time></trkpt><trkpt lat="44.6423837" lon="10.8771426"><ele>35.0</ele><time>2026-05-03T12:14:24.116Z</time></trkpt><trkpt lat="44.6425789" lon="10.8770829"><ele>35.0</ele><time>2026-05-03T12:14:25.116Z</time></trkpt><trkpt lat="44.6427738" lon="10.8770197"><ele>35.0</ele><time>2026-05-03T12:14:26.116Z</time></trkpt><trkpt lat="44.6429721" lon="10.8769529"><ele>35.33333333333333</ele><time>2026-05-03T12:14:27.115Z</time></trkpt><trkpt lat="44.6431774" lon="10.8768862"><ele>35.666666666666664</ele><time>2026-05-03T12:14:28.117Z</time></trkpt><trkpt lat="44.6433862" lon="10.8768192"><ele>36.0</ele><time>2026-05-03T12:14:29.116Z</time></trkpt><trkpt lat="44.6436003" lon="10.8767511"><ele>36.666666666666664</ele><time>2026-05-03T12:14:30.116Z</time></trkpt><trkpt lat="44.6438164" lon="10.8766787"><ele>37.33333333333333</ele><time>2026-05-03T12:14:31.115Z</time></trkpt><trkpt lat="44.6440235" lon="10.8766068"><ele>38.0</ele><time>2026-05-03T12:14:32.115Z</time></trkpt><trkpt lat="44.64423" lon="10.8765307"><ele>38.0</ele><time>2026-05-03T12:14:33.115Z</time></trkpt><trkpt lat="44.6444334" lon="10.8764523"><ele>38.0</ele><time>2026-05-03T12:14:34.117Z</time></trkpt><trkpt lat="44.6446331" lon="10.8763668"><ele>38.0</ele><time>2026-05-03T12:14:35.114Z</time></trkpt><trkpt lat="44.6448365" lon="10.8762771"><ele>38.33333333333333</ele><time>2026-05-03T12:14:36.116Z</time></trkpt><trkpt lat="44.6450393" lon="10.8761858"><ele>38.666666666666664</ele><time>2026-05-03T12:14:37.116Z</time></trkpt><trkpt lat="44.645242" lon="10.8760969"><ele>39.0</ele><time>2026-05-03T12:14:38.118Z</time></trkpt><trkpt lat="44.6454412" lon="10.8760081"><ele>39.0</ele><time>2026-05-03T12:14:39.115Z</time></trkpt><trkpt lat="44.6456424" lon="10.8759223"><ele>39.0</ele><time>2026-05-03T12:14:40.115Z</time></trkpt><trkpt lat="44.645844" lon="10.8758338"><ele>39.0</ele><time>2026-05-03T12:14:41.116Z</time></trkpt><trkpt lat="44.6460497" lon="10.8757471"><ele>39.333333333333336</ele><time>2026-05-03T12:14:42.116Z</time></trkpt><trkpt lat="44.6462555" lon="10.8756543"><ele>39.66666666666667</ele><time>2026-05-03T12:14:43.118Z</time></trkpt><trkpt lat="44.646461" lon="10.8755642"><ele>40.0</ele><time>2026-05-03T12:14:44.114Z</time></trkpt><trkpt lat="44.6466713" lon="10.8754729"><ele>40.0</ele><time>2026-05-03T12:14:45.114Z</time></trkpt><trkpt lat="44.6468864" lon="10.8753794"><ele>40.0</ele><time>2026-05-03T12:14:46.114Z</time></trkpt><trkpt lat="44.6471059" lon="10.8752813"><ele>38.5</ele><time>2026-05-03T12:14:47.116Z</time></trkpt><trkpt lat="44.6473317" lon="10.8751823"><ele>37.0</ele><time>2026-05-03T12:14:48.117Z</time></trkpt><trkpt lat="44.6475621" lon="10.8750791"><ele>37.0</ele><time>2026-05-03T12:14:49.116Z</time></trkpt><trkpt lat="44.6477966" lon="10.874972"><ele>37.0</ele><time>2026-05-03T12:14:50.114Z</time></trkpt><trkpt lat="44.6480312" lon="10.8748679"><ele>37.0</ele><time>2026-05-03T12:14:51.117Z</time></trkpt><trkpt lat="44.6482572" lon="10.8747695"><ele>37.0</ele><time>2026-05-03T12:14:52.115Z</time></trkpt><trkpt lat="44.6484812" lon="10.874666"><ele>37.0</ele><time>2026-05-03T12:14:53.117Z</time></trkpt><trkpt lat="44.6486977" lon="10.8745539"><ele>37.0</ele><time>2026-05-03T12:14:54.116Z</time></trkpt><trkpt lat="44.6489091" lon="10.8744331"><ele>37.0</ele><time>2026-05-03T12:14:55.114Z</time></trkpt><trkpt lat="44.6491135" lon="10.8742992"><ele>37.0</ele><time>2026-05-03T12:14:56.117Z</time></trkpt><trkpt lat="44.6493129" lon="10.8741505"><ele>36.5</ele><time>2026-05-03T12:14:57.116Z</time></trkpt><trkpt lat="44.6495099" lon="10.8739851"><ele>36.0</ele><time>2026-05-03T12:14:58.118Z</time></trkpt><trkpt lat="44.6497017" lon="10.8738057"><ele>36.0</ele><time>2026-05-03T12:14:59.117Z</time></trkpt><trkpt lat="44.6498894" lon="10.8736123"><ele>36.0</ele><time>2026-05-03T12:15:00.116Z</time></trkpt><trkpt lat="44.6500723" lon="10.8734034"><ele>36.5</ele><time>2026-05-03T12:15:01.116Z</time></trkpt><trkpt lat="44.6502488" lon="10.8731819"><ele>37.0</ele><time>2026-05-03T12:15:02.115Z</time></trkpt><trkpt lat="44.650418" lon="10.8729481"><ele>37.5</ele><time>2026-05-03T12:15:03.118Z</time></trkpt><trkpt lat="44.6505793" lon="10.8727055"><ele>38.0</ele><time>2026-05-03T12:15:04.118Z</time></trkpt><trkpt lat="44.6507327" lon="10.8724565"><ele>40.0</ele><time>2026-05-03T12:15:05.115Z</time></trkpt><trkpt lat="44.6508826" lon="10.8722122"><ele>42.0</ele><time>2026-05-03T12:15:06.114Z</time></trkpt><trkpt lat="44.6510312" lon="10.8719812"><ele>42.666666666666664</ele><time>2026-05-03T12:15:07.116Z</time></trkpt><trkpt lat="44.6511838" lon="10.8717615"><ele>43.33333333333333</ele><time>2026-05-03T12:15:08.119Z</time></trkpt><trkpt lat="44.6513419" lon="10.8715513"><ele>44.0</ele><time>2026-05-03T12:15:09.117Z</time></trkpt><trkpt lat="44.6515057" lon="10.8713447"><ele>44.0</ele><time>2026-05-03T12:15:10.115Z</time></trkpt><trkpt lat="44.6516738" lon="10.8711414"><ele>44.0</ele><time>2026-05-03T12:15:11.115Z</time></trkpt><trkpt lat="44.6518503" lon="10.8709431"><ele>44.0</ele><time>2026-05-03T12:15:12.115Z</time></trkpt><trkpt lat="44.6520334" lon="10.8707519"><ele>42.5</ele><time>2026-05-03T12:15:13.116Z</time></trkpt><trkpt lat="44.6522256" lon="10.8705708"><ele>41.0</ele><time>2026-05-03T12:15:14.116Z</time></trkpt><trkpt lat="44.6524249" lon="10.8703981"><ele>41.0</ele><time>2026-05-03T12:15:15.119Z</time></trkpt><trkpt lat="44.6526321" lon="10.8702347"><ele>41.0</ele><time>2026-05-03T12:15:16.118Z</time></trkpt><trkpt lat="44.6528484" lon="10.8700764"><ele>40.5</ele><time>2026-05-03T12:15:17.118Z</time></trkpt><trkpt lat="44.6530666" lon="10.8699319"><ele>40.0</ele><time>2026-05-03T12:15:18.113Z</time></trkpt><trkpt lat="44.6532785" lon="10.8698035"><ele>40.0</ele><time>2026-05-03T12:15:19.115Z</time></trkpt><trkpt lat="44.6534902" lon="10.8696858"><ele>40.0</ele><time>2026-05-03T12:15:20.114Z</time></trkpt><trkpt lat="44.6537039" lon="10.8695841"><ele>39.0</ele><time>2026-05-03T12:15:21.116Z</time></trkpt><trkpt lat="44.6539198" lon="10.8694979"><ele>38.0</ele><time>2026-05-03T12:15:22.115Z</time></trkpt><trkpt lat="44.6541389" lon="10.8694263"><ele>37.0</ele><time>2026-05-03T12:15:23.115Z</time></trkpt><trkpt lat="44.6543609" lon="10.8693677"><ele>37.0</ele><time>2026-05-03T12:15:24.116Z</time></trkpt><trkpt lat="44.6545848" lon="10.8693224"><ele>37.0</ele><time>2026-05-03T12:15:25.114Z</time></trkpt><trkpt lat="44.6548112" lon="10.869287"><ele>38.0</ele><time>2026-05-03T12:15:26.115Z</time></trkpt><trkpt lat="44.6550405" lon="10.8692596"><ele>39.0</ele><time>2026-05-03T12:15:27.114Z</time></trkpt><trkpt lat="44.6552703" lon="10.8692462"><ele>37.5</ele><time>2026-05-03T12:15:28.116Z</time></trkpt><trkpt lat="44.6554982" lon="10.8692492"><ele>36.0</ele><time>2026-05-03T12:15:29.118Z</time></trkpt><trkpt lat="44.6557274" lon="10.8692651"><ele>36.0</ele><time>2026-05-03T12:15:30.117Z</time></trkpt><trkpt lat="44.6559649" lon="10.8692971"><ele>36.0</ele><time>2026-05-03T12:15:31.115Z</time></trkpt><trkpt lat="44.6562126" lon="10.869355"><ele>36.0</ele><time>2026-05-03T12:15:32.116Z</time></trkpt><trkpt lat="44.6564679" lon="10.8694338"><ele>36.0</ele><time>2026-05-03T12:15:33.116Z</time></trkpt><trkpt lat="44.6567132" lon="10.8695336"><ele>36.0</ele><time>2026-05-03T12:15:34.117Z</time></trkpt><trkpt lat="44.6569424" lon="10.8696502"><ele>36.0</ele><time>2026-05-03T12:15:35.115Z</time></trkpt><trkpt lat="44.6571582" lon="10.8697788"><ele>35.666666666666664</ele><time>2026-05-03T12:15:36.116Z</time></trkpt><trkpt lat="44.6573617" lon="10.8699118"><ele>35.33333333333333</ele><time>2026-05-03T12:15:37.116Z</time></trkpt><trkpt lat="44.6575514" lon="10.8700533"><ele>35.0</ele><time>2026-05-03T12:15:38.115Z</time></trkpt><trkpt lat="44.6577242" lon="10.8701986"><ele>35.0</ele><time>2026-05-03T12:15:39.115Z</time></trkpt><trkpt lat="44.6578827" lon="10.8703442"><ele>35.0</ele><time>2026-05-03T12:15:40.115Z</time></trkpt><trkpt lat="44.6580343" lon="10.8704921"><ele>35.0</ele><time>2026-05-03T12:15:41.116Z</time></trkpt><trkpt lat="44.6581694" lon="10.8706246"><ele>35.0</ele><time>2026-05-03T12:15:42.117Z</time></trkpt><trkpt lat="44.65829" lon="10.8707551"><ele>35.0</ele><time>2026-05-03T12:15:43.117Z</time></trkpt><trkpt lat="44.6583922" lon="10.8708908"><ele>35.0</ele><time>2026-05-03T12:15:44.118Z</time></trkpt><trkpt lat="44.6584773" lon="10.8710293"><ele>35.0</ele><time>2026-05-03T12:15:45.117Z</time></trkpt><trkpt lat="44.6585407" lon="10.8711834"><ele>35.5</ele><time>2026-05-03T12:15:46.116Z</time></trkpt><trkpt lat="44.6585723" lon="10.8713484"><ele>36.0</ele><time>2026-05-03T12:15:47.117Z</time></trkpt><trkpt lat="44.6585807" lon="10.8715227"><ele>36.5</ele><time>2026-05-03T12:15:48.115Z</time></trkpt><trkpt lat="44.6585569" lon="10.8716981"><ele>37.0</ele><time>2026-05-03T12:15:49.113Z</time></trkpt><trkpt lat="44.6585055" lon="10.8718541"><ele>37.5</ele><time>2026-05-03T12:15:50.113Z</time></trkpt><trkpt lat="44.6584275" lon="10.8719799"><ele>38.0</ele><time>2026-05-03T12:15:51.116Z</time></trkpt><trkpt lat="44.6583293" lon="10.872073"><ele>38.5</ele><time>2026-05-03T12:15:52.116Z</time></trkpt><trkpt lat="44.6582166" lon="10.8721388"><ele>39.0</ele><time>2026-05-03T12:15:53.113Z</time></trkpt><trkpt lat="44.6581044" lon="10.8721725"><ele>39.0</ele><time>2026-05-03T12:15:54.115Z</time></trkpt><trkpt lat="44.6579928" lon="10.8721702"><ele>39.0</ele><time>2026-05-03T12:15:55.114Z</time></trkpt><trkpt lat="44.6578864" lon="10.8721288"><ele>39.0</ele><time>2026-05-03T12:15:56.114Z</time></trkpt><trkpt lat="44.657787" lon="10.8720565"><ele>39.0</ele><time>2026-05-03T12:15:57.115Z</time></trkpt><trkpt lat="44.6577015" lon="10.8719558"><ele>39.0</ele><time>2026-05-03T12:15:58.115Z</time></trkpt><trkpt lat="44.6576338" lon="10.8718314"><ele>38.5</ele><time>2026-05-03T12:15:59.115Z</time></trkpt><trkpt lat="44.6575869" lon="10.8716912"><ele>38.0</ele><time>2026-05-03T12:16:00.115Z</time></trkpt><trkpt lat="44.6575602" lon="10.8715384"><ele>37.5</ele><time>2026-05-03T12:16:01.115Z</time></trkpt><trkpt lat="44.6575586" lon="10.8713808"><ele>37.0</ele><time>2026-05-03T12:16:02.114Z</time></trkpt><trkpt lat="44.6575832" lon="10.8712224"><ele>37.0</ele><time>2026-05-03T12:16:03.112Z</time></trkpt><trkpt lat="44.6576302" lon="10.8710703"><ele>37.0</ele><time>2026-05-03T12:16:04.115Z</time></trkpt><trkpt lat="44.6576918" lon="10.8709149"><ele>37.0</ele><time>2026-05-03T12:16:05.115Z</time></trkpt><trkpt lat="44.6577629" lon="10.8707413"><ele>37.0</ele><time>2026-05-03T12:16:06.116Z</time></trkpt><trkpt lat="44.6578388" lon="10.8705518"><ele>36.333333333333336</ele><time>2026-05-03T12:16:07.116Z</time></trkpt><trkpt lat="44.6579181" lon="10.8703534"><ele>35.666666666666664</ele><time>2026-05-03T12:16:08.114Z</time></trkpt><trkpt lat="44.6580019" lon="10.870154"><ele>35.0</ele><time>2026-05-03T12:16:09.115Z</time></trkpt><trkpt lat="44.6580896" lon="10.8699508"><ele>35.0</ele><time>2026-05-03T12:16:10.114Z</time></trkpt><trkpt lat="44.6581774" lon="10.8697381"><ele>35.0</ele><time>2026-05-03T12:16:11.115Z</time></trkpt><trkpt lat="44.6582681" lon="10.8695173"><ele>35.0</ele><time>2026-05-03T12:16:12.113Z</time></trkpt><trkpt lat="44.6583634" lon="10.8692871"><ele>35.33333333333333</ele><time>2026-05-03T12:16:13.115Z</time></trkpt><trkpt lat="44.6584603" lon="10.8690542"><ele>35.666666666666664</ele><time>2026-05-03T12:16:14.112Z</time></trkpt><trkpt lat="44.6585469" lon="10.8688243"><ele>36.0</ele><time>2026-05-03T12:16:15.112Z</time></trkpt><trkpt lat="44.6586233" lon="10.8685832"><ele>36.0</ele><time>2026-05-03T12:16:16.116Z</time></trkpt><trkpt lat="44.6586802" lon="10.8683294"><ele>36.0</ele><time>2026-05-03T12:16:17.116Z</time></trkpt><trkpt lat="44.658713" lon="10.8680658"><ele>36.0</ele><time>2026-05-03T12:16:18.115Z</time></trkpt><trkpt lat="44.6587266" lon="10.8677982"><ele>36.666666666666664</ele><time>2026-05-03T12:16:19.115Z</time></trkpt><trkpt lat="44.6587228" lon="10.8675279"><ele>37.33333333333333</ele><time>2026-05-03T12:16:20.115Z</time></trkpt><trkpt lat="44.6586971" lon="10.8672602"><ele>38.0</ele><time>2026-05-03T12:16:21.114Z</time></trkpt><trkpt lat="44.6586475" lon="10.8670002"><ele>37.33333333333333</ele><time>2026-05-03T12:16:22.112Z</time></trkpt><trkpt lat="44.6585786" lon="10.8667691"><ele>36.666666666666664</ele><time>2026-05-03T12:16:23.116Z</time></trkpt><trkpt lat="44.6584984" lon="10.8665745"><ele>36.0</ele><time>2026-05-03T12:16:24.113Z</time></trkpt><trkpt lat="44.658418" lon="10.8664086"><ele>36.0</ele><time>2026-05-03T12:16:25.118Z</time></trkpt><trkpt lat="44.6583482" lon="10.8662786"><ele>36.0</ele><time>2026-05-03T12:16:26.117Z</time></trkpt><trkpt lat="44.6582934" lon="10.8661826"><ele>36.0</ele><time>2026-05-03T12:16:27.119Z</time></trkpt><trkpt lat="44.6582534" lon="10.8661087"><ele>36.0</ele><time>2026-05-03T12:16:28.113Z</time></trkpt><trkpt lat="44.6582014" lon="10.86597"><ele>36.0</ele><time>2026-05-03T12:16:30.114Z</time></trkpt><trkpt lat="44.6581766" lon="10.8657889"><ele>36.28571428571429</ele><time>2026-05-03T12:16:32.116Z</time></trkpt><trkpt lat="44.658154" lon="10.8656929"><ele>36.57142857142857</ele><time>2026-05-03T12:16:33.113Z</time></trkpt><trkpt lat="44.6581023" lon="10.8656319"><ele>36.85714285714286</ele><time>2026-05-03T12:16:34.116Z</time></trkpt><trkpt lat="44.6580393" lon="10.865607"><ele>37.142857142857146</ele><time>2026-05-03T12:16:35.117Z</time></trkpt><trkpt lat="44.6579735" lon="10.8656177"><ele>37.42857142857143</ele><time>2026-05-03T12:16:36.117Z</time></trkpt><trkpt lat="44.6579131" lon="10.8656678"><ele>37.714285714285715</ele><time>2026-05-03T12:16:37.112Z</time></trkpt><trkpt lat="44.6578555" lon="10.8657546"><ele>38.0</ele><time>2026-05-03T12:16:38.116Z</time></trkpt><trkpt lat="44.6577892" lon="10.8658477"><ele>37.0</ele><time>2026-05-03T12:16:39.114Z</time></trkpt><trkpt lat="44.6577153" lon="10.8659503"><ele>36.0</ele><time>2026-05-03T12:16:40.115Z</time></trkpt><trkpt lat="44.6576419" lon="10.8660643"><ele>35.0</ele><time>2026-05-03T12:16:41.111Z</time></trkpt><trkpt lat="44.6575703" lon="10.866192"><ele>34.0</ele><time>2026-05-03T12:16:42.111Z</time></trkpt><trkpt lat="44.6575069" lon="10.8663442"><ele>34.0</ele><time>2026-05-03T12:16:43.115Z</time></trkpt><trkpt lat="44.6574547" lon="10.8665274"><ele>34.0</ele><time>2026-05-03T12:16:44.113Z</time></trkpt><trkpt lat="44.6574161" lon="10.8667393"><ele>34.0</ele><time>2026-05-03T12:16:45.114Z</time></trkpt><trkpt lat="44.6573817" lon="10.8669639"><ele>34.0</ele><time>2026-05-03T12:16:46.114Z</time></trkpt><trkpt lat="44.6573266" lon="10.8671883"><ele>34.0</ele><time>2026-05-03T12:16:47.117Z</time></trkpt><trkpt lat="44.6572562" lon="10.867416"><ele>34.0</ele><time>2026-05-03T12:16:48.112Z</time></trkpt><trkpt lat="44.6571693" lon="10.867648"><ele>35.0</ele><time>2026-05-03T12:16:49.114Z</time></trkpt><trkpt lat="44.6570616" lon="10.8678686"><ele>36.0</ele><time>2026-05-03T12:16:50.114Z</time></trkpt><trkpt lat="44.6569306" lon="10.8680719"><ele>37.0</ele><time>2026-05-03T12:16:51.114Z</time></trkpt><trkpt lat="44.6567774" lon="10.8682526"><ele>37.333333333333336</ele><time>2026-05-03T12:16:52.117Z</time></trkpt><trkpt lat="44.6566077" lon="10.8684038"><ele>37.666666666666664</ele><time>2026-05-03T12:16:53.117Z</time></trkpt><trkpt lat="44.6564236" lon="10.8685231"><ele>38.0</ele><time>2026-05-03T12:16:54.112Z</time></trkpt><trkpt lat="44.656226" lon="10.8686096"><ele>37.33333333333333</ele><time>2026-05-03T12:16:55.118Z</time></trkpt><trkpt lat="44.6560205" lon="10.8686638"><ele>36.666666666666664</ele><time>2026-05-03T12:16:56.111Z</time></trkpt><trkpt lat="44.6558105" lon="10.8686943"><ele>36.0</ele><time>2026-05-03T12:16:57.113Z</time></trkpt><trkpt lat="44.655595" lon="10.8687042"><ele>36.0</ele><time>2026-05-03T12:16:58.113Z</time></trkpt><trkpt lat="44.6553735" lon="10.8687157"><ele>36.0</ele><time>2026-05-03T12:16:59.116Z</time></trkpt><trkpt lat="44.6551459" lon="10.8687345"><ele>37.5</ele><time>2026-05-03T12:17:00.115Z</time></trkpt><trkpt lat="44.6549109" lon="10.8687687"><ele>39.0</ele><time>2026-05-03T12:17:01.114Z</time></trkpt><trkpt lat="44.6546805" lon="10.8688172"><ele>39.0</ele><time>2026-05-03T12:17:02.116Z</time></trkpt><trkpt lat="44.6544638" lon="10.8688635"><ele>39.0</ele><time>2026-05-03T12:17:03.115Z</time></trkpt><trkpt lat="44.6542546" lon="10.8689047"><ele>39.0</ele><time>2026-05-03T12:17:04.111Z</time></trkpt><trkpt lat="44.6540564" lon="10.8689474"><ele>39.0</ele><time>2026-05-03T12:17:05.117Z</time></trkpt><trkpt lat="44.6538739" lon="10.8689713"><ele>39.0</ele><time>2026-05-03T12:17:06.113Z</time></trkpt><trkpt lat="44.6537005" lon="10.868956"><ele>39.0</ele><time>2026-05-03T12:17:07.119Z</time></trkpt><trkpt lat="44.6535462" lon="10.8688914"><ele>39.25</ele><time>2026-05-03T12:17:08.116Z</time></trkpt><trkpt lat="44.6534196" lon="10.8687814"><ele>39.5</ele><time>2026-05-03T12:17:09.114Z</time></trkpt><trkpt lat="44.6533203" lon="10.8686269"><ele>39.75</ele><time>2026-05-03T12:17:10.115Z</time></trkpt><trkpt lat="44.6532485" lon="10.8684415"><ele>40.0</ele><time>2026-05-03T12:17:11.116Z</time></trkpt><trkpt lat="44.6532104" lon="10.8682372"><ele>40.0</ele><time>2026-05-03T12:17:12.117Z</time></trkpt><trkpt lat="44.6532162" lon="10.868039"><ele>40.0</ele><time>2026-05-03T12:17:13.116Z</time></trkpt><trkpt lat="44.6532461" lon="10.8678787"><ele>40.0</ele><time>2026-05-03T12:17:14.113Z</time></trkpt><trkpt lat="44.6532873" lon="10.8677631"><ele>40.0</ele><time>2026-05-03T12:17:15.114Z</time></trkpt><trkpt lat="44.6533368" lon="10.8676879"><ele>40.0</ele><time>2026-05-03T12:17:16.114Z</time></trkpt><trkpt lat="44.6533892" lon="10.8676281"><ele>40.16666666666667</ele><time>2026-05-03T12:17:17.114Z</time></trkpt><trkpt lat="44.6534534" lon="10.867559"><ele>40.333333333333336</ele><time>2026-05-03T12:17:18.121Z</time></trkpt><trkpt lat="44.6535142" lon="10.8674895"><ele>40.5</ele><time>2026-05-03T12:17:19.121Z</time></trkpt><trkpt lat="44.6535624" lon="10.8674268"><ele>40.666666666666664</ele><time>2026-05-03T12:17:20.115Z</time></trkpt><trkpt lat="44.6536363" lon="10.8672983"><ele>40.83333333333333</ele><time>2026-05-03T12:17:22.116Z</time></trkpt><trkpt lat="44.6536877" lon="10.8671843"><ele>41.0</ele><time>2026-05-03T12:17:24.113Z</time></trkpt><trkpt lat="44.6537345" lon="10.8670562"><ele>41.0</ele><time>2026-05-03T12:17:26.114Z</time></trkpt><trkpt lat="44.6537901" lon="10.8669067"><ele>41.0</ele><time>2026-05-03T12:17:28.114Z</time></trkpt><trkpt lat="44.6538275" lon="10.866804"><ele>41.0</ele><time>2026-05-03T12:17:29.115Z</time></trkpt><trkpt lat="44.6538627" lon="10.8666863"><ele>41.0</ele><time>2026-05-03T12:17:30.114Z</time></trkpt><trkpt lat="44.6538965" lon="10.8665462"><ele>41.0</ele><time>2026-05-03T12:17:31.114Z</time></trkpt><trkpt lat="44.6539206" lon="10.866393"><ele>41.0</ele><time>2026-05-03T12:17:32.11Z</time></trkpt><trkpt lat="44.6539388" lon="10.8662223"><ele>41.0</ele><time>2026-05-03T12:17:33.112Z</time></trkpt><trkpt lat="44.6539645" lon="10.8660425"><ele>41.0</ele><time>2026-05-03T12:17:34.116Z</time></trkpt><trkpt lat="44.6540024" lon="10.8658676"><ele>41.0</ele><time>2026-05-03T12:17:35.116Z</time></trkpt><trkpt lat="44.6540463" lon="10.8657153"><ele>40.75</ele><time>2026-05-03T12:17:36.114Z</time></trkpt><trkpt lat="44.6540931" lon="10.8655571"><ele>40.5</ele><time>2026-05-03T12:17:37.114Z</time></trkpt><trkpt lat="44.6541356" lon="10.8653957"><ele>40.25</ele><time>2026-05-03T12:17:38.112Z</time></trkpt><trkpt lat="44.6541697" lon="10.8652279"><ele>40.0</ele><time>2026-05-03T12:17:39.113Z</time></trkpt><trkpt lat="44.6541939" lon="10.8650585"><ele>40.0</ele><time>2026-05-03T12:17:40.113Z</time></trkpt><trkpt lat="44.6542062" lon="10.8649006"><ele>40.0</ele><time>2026-05-03T12:17:41.112Z</time></trkpt><trkpt lat="44.6542126" lon="10.8647461"><ele>40.0</ele><time>2026-05-03T12:17:42.115Z</time></trkpt><trkpt lat="44.654211" lon="10.864584"><ele>40.0</ele><time>2026-05-03T12:17:43.111Z</time></trkpt><trkpt lat="44.6542117" lon="10.8644157"><ele>40.25</ele><time>2026-05-03T12:17:44.115Z</time></trkpt><trkpt lat="44.6542193" lon="10.8642507"><ele>40.5</ele><time>2026-05-03T12:17:45.113Z</time></trkpt><trkpt lat="44.6542344" lon="10.8640801"><ele>40.75</ele><time>2026-05-03T12:17:46.114Z</time></trkpt><trkpt lat="44.6542572" lon="10.8639042"><ele>41.0</ele><time>2026-05-03T12:17:47.113Z</time></trkpt><trkpt lat="44.6542939" lon="10.8637248"><ele>41.0</ele><time>2026-05-03T12:17:48.111Z</time></trkpt><trkpt lat="44.654346" lon="10.8635428"><ele>41.0</ele><time>2026-05-03T12:17:49.111Z</time></trkpt><trkpt lat="44.6544139" lon="10.8633553"><ele>41.0</ele><time>2026-05-03T12:17:50.111Z</time></trkpt><trkpt lat="44.6544989" lon="10.8631752"><ele>41.0</ele><time>2026-05-03T12:17:51.112Z</time></trkpt><trkpt lat="44.6546018" lon="10.8629968"><ele>40.666666666666664</ele><time>2026-05-03T12:17:52.112Z</time></trkpt><trkpt lat="44.654728" lon="10.8628303"><ele>40.333333333333336</ele><time>2026-05-03T12:17:53.115Z</time></trkpt><trkpt lat="44.6548703" lon="10.8626765"><ele>40.0</ele><time>2026-05-03T12:17:54.113Z</time></trkpt><trkpt lat="44.6550287" lon="10.8625398"><ele>40.0</ele><time>2026-05-03T12:17:55.111Z</time></trkpt><trkpt lat="44.6551952" lon="10.8624224"><ele>40.0</ele><time>2026-05-03T12:17:56.111Z</time></trkpt><trkpt lat="44.6553582" lon="10.8623172"><ele>40.0</ele><time>2026-05-03T12:17:57.112Z</time></trkpt><trkpt lat="44.6555251" lon="10.8622073"><ele>40.0</ele><time>2026-05-03T12:17:58.114Z</time></trkpt><trkpt lat="44.6556916" lon="10.8620936"><ele>40.0</ele><time>2026-05-03T12:17:59.114Z</time></trkpt><trkpt lat="44.6558615" lon="10.8619842"><ele>40.0</ele><time>2026-05-03T12:18:00.112Z</time></trkpt><trkpt lat="44.6560392" lon="10.8618688"><ele>39.66666666666667</ele><time>2026-05-03T12:18:01.111Z</time></trkpt><trkpt lat="44.6562254" lon="10.8617467"><ele>39.333333333333336</ele><time>2026-05-03T12:18:02.11Z</time></trkpt><trkpt lat="44.6564135" lon="10.8616278"><ele>39.0</ele><time>2026-05-03T12:18:03.112Z</time></trkpt><trkpt lat="44.6566071" lon="10.8615083"><ele>39.0</ele><time>2026-05-03T12:18:04.113Z</time></trkpt><trkpt lat="44.6568019" lon="10.8613871"><ele>39.0</ele><time>2026-05-03T12:18:05.112Z</time></trkpt><trkpt lat="44.6569984" lon="10.8612724"><ele>39.0</ele><time>2026-05-03T12:18:06.111Z</time></trkpt><trkpt lat="44.6571997" lon="10.8611472"><ele>39.0</ele><time>2026-05-03T12:18:07.111Z</time></trkpt><trkpt lat="44.6574049" lon="10.861023"><ele>39.0</ele><time>2026-05-03T12:18:08.111Z</time></trkpt><trkpt lat="44.6576027" lon="10.8609024"><ele>39.0</ele><time>2026-05-03T12:18:09.111Z</time></trkpt><trkpt lat="44.6578051" lon="10.8607767"><ele>38.666666666666664</ele><time>2026-05-03T12:18:10.11Z</time></trkpt><trkpt lat="44.6580089" lon="10.8606488"><ele>38.33333333333333</ele><time>2026-05-03T12:18:11.112Z</time></trkpt><trkpt lat="44.658214" lon="10.8605177"><ele>38.0</ele><time>2026-05-03T12:18:12.114Z</time></trkpt><trkpt lat="44.6584211" lon="10.8603848"><ele>37.0</ele><time>2026-05-03T12:18:13.111Z</time></trkpt><trkpt lat="44.6586301" lon="10.8602502"><ele>36.0</ele><time>2026-05-03T12:18:14.111Z</time></trkpt><trkpt lat="44.6588355" lon="10.8601168"><ele>36.666666666666664</ele><time>2026-05-03T12:18:15.112Z</time></trkpt><trkpt lat="44.6590321" lon="10.8599887"><ele>37.33333333333333</ele><time>2026-05-03T12:18:16.111Z</time></trkpt><trkpt lat="44.6592188" lon="10.8598609"><ele>38.0</ele><time>2026-05-03T12:18:17.11Z</time></trkpt><trkpt lat="44.6593965" lon="10.8597347"><ele>37.666666666666664</ele><time>2026-05-03T12:18:18.113Z</time></trkpt><trkpt lat="44.6595684" lon="10.8596071"><ele>37.333333333333336</ele><time>2026-05-03T12:18:19.112Z</time></trkpt><trkpt lat="44.6597351" lon="10.8594774"><ele>37.0</ele><time>2026-05-03T12:18:20.112Z</time></trkpt><trkpt lat="44.659893" lon="10.8593492"><ele>37.66666666666667</ele><time>2026-05-03T12:18:21.11Z</time></trkpt><trkpt lat="44.6600456" lon="10.859226"><ele>38.333333333333336</ele><time>2026-05-03T12:18:22.111Z</time></trkpt><trkpt lat="44.66019" lon="10.8591054"><ele>39.0</ele><time>2026-05-03T12:18:23.113Z</time></trkpt><trkpt lat="44.6603225" lon="10.8589956"><ele>39.25</ele><time>2026-05-03T12:18:24.112Z</time></trkpt><trkpt lat="44.6604466" lon="10.8588959"><ele>39.5</ele><time>2026-05-03T12:18:25.11Z</time></trkpt><trkpt lat="44.6605653" lon="10.8588057"><ele>39.75</ele><time>2026-05-03T12:18:26.113Z</time></trkpt><trkpt lat="44.6606821" lon="10.8587279"><ele>40.0</ele><time>2026-05-03T12:18:27.113Z</time></trkpt><trkpt lat="44.660796" lon="10.8586657"><ele>40.0</ele><time>2026-05-03T12:18:28.112Z</time></trkpt><trkpt lat="44.660905" lon="10.8586151"><ele>40.0</ele><time>2026-05-03T12:18:29.112Z</time></trkpt><trkpt lat="44.6610064" lon="10.8585681"><ele>40.0</ele><time>2026-05-03T12:18:30.115Z</time></trkpt><trkpt lat="44.6610992" lon="10.8585187"><ele>40.0</ele><time>2026-05-03T12:18:31.114Z</time></trkpt><trkpt lat="44.6611854" lon="10.8584679"><ele>40.0</ele><time>2026-05-03T12:18:32.113Z</time></trkpt><trkpt lat="44.6612622" lon="10.8584166"><ele>40.333333333333336</ele><time>2026-05-03T12:18:33.111Z</time></trkpt><trkpt lat="44.6613267" lon="10.8583609"><ele>40.66666666666667</ele><time>2026-05-03T12:18:34.111Z</time></trkpt><trkpt lat="44.6614061" lon="10.8582669"><ele>41.0</ele><time>2026-05-03T12:18:36.113Z</time></trkpt><trkpt lat="44.6614571" lon="10.858199"><ele>41.333333333333336</ele><time>2026-05-03T12:18:39.111Z</time></trkpt><trkpt lat="44.6615128" lon="10.858103"><ele>41.666666666666664</ele><time>2026-05-03T12:18:42.111Z</time></trkpt><trkpt lat="44.6615534" lon="10.8580265"><ele>42.0</ele><time>2026-05-03T12:18:44.111Z</time></trkpt><trkpt lat="44.6616123" lon="10.8579255"><ele>42.0</ele><time>2026-05-03T12:18:46.113Z</time></trkpt><trkpt lat="44.6617031" lon="10.8577953"><ele>42.0</ele><time>2026-05-03T12:18:48.111Z</time></trkpt><trkpt lat="44.6617561" lon="10.857726"><ele>42.0</ele><time>2026-05-03T12:18:49.112Z</time></trkpt><trkpt lat="44.661807" lon="10.8576696"><ele>42.0</ele><time>2026-05-03T12:18:50.114Z</time></trkpt><trkpt lat="44.661892" lon="10.8575741"><ele>42.0</ele><time>2026-05-03T12:18:52.11Z</time></trkpt><trkpt lat="44.6619709" lon="10.8574887"><ele>42.0</ele><time>2026-05-03T12:18:54.11Z</time></trkpt><trkpt lat="44.662067" lon="10.8573801"><ele>42.0</ele><time>2026-05-03T12:18:56.112Z</time></trkpt><trkpt lat="44.6621172" lon="10.8573144"><ele>42.0</ele><time>2026-05-03T12:18:57.112Z</time></trkpt><trkpt lat="44.662173" lon="10.8572442"><ele>42.0</ele><time>2026-05-03T12:18:58.112Z</time></trkpt><trkpt lat="44.6622304" lon="10.8571752"><ele>42.0</ele><time>2026-05-03T12:18:59.112Z</time></trkpt><trkpt lat="44.6622827" lon="10.8571126"><ele>42.0</ele><time>2026-05-03T12:19:00.111Z</time></trkpt><trkpt lat="44.6623319" lon="10.857055"><ele>42.0</ele><time>2026-05-03T12:19:01.111Z</time></trkpt><trkpt lat="44.6624208" lon="10.8569491"><ele>42.0</ele><time>2026-05-03T12:19:03.113Z</time></trkpt><trkpt lat="44.6625102" lon="10.8568765"><ele>42.0</ele><time>2026-05-03T12:19:05.112Z</time></trkpt><trkpt lat="44.6626006" lon="10.8568319"><ele>42.0</ele><time>2026-05-03T12:19:07.11Z</time></trkpt><trkpt lat="44.6626835" lon="10.8568089"><ele>42.0</ele><time>2026-05-03T12:19:09.113Z</time></trkpt><trkpt lat="44.6627575" lon="10.8568301"><ele>41.857142857142854</ele><time>2026-05-03T12:19:12.111Z</time></trkpt><trkpt lat="44.6627983" lon="10.8569021"><ele>41.714285714285715</ele><time>2026-05-03T12:19:15.113Z</time></trkpt><trkpt lat="44.6628675" lon="10.8569561"><ele>41.57142857142857</ele><time>2026-05-03T12:19:19.111Z</time></trkpt><trkpt lat="44.6628959" lon="10.8568756"><ele>41.42857142857143</ele><time>2026-05-03T12:21:18.118Z</time></trkpt><trkpt lat="44.6629444" lon="10.8568171"><ele>41.285714285714285</ele><time>2026-05-03T12:23:08.068Z</time></trkpt><trkpt lat="44.6630275" lon="10.8567871"><ele>41.14285714285714</ele><time>2026-05-03T12:23:14.113Z</time></trkpt><trkpt lat="44.6630909" lon="10.8567625"><ele>41.0</ele><time>2026-05-03T12:23:19.116Z</time></trkpt><trkpt lat="44.6631538" lon="10.8567274"><ele>40.99999999999999</ele><time>2026-05-03T12:23:24.117Z</time></trkpt><trkpt lat="44.6632088" lon="10.8566802"><ele>41.0</ele><time>2026-05-03T12:23:31.115Z</time></trkpt><trkpt lat="44.6631266" lon="10.8566839"><ele>41.0</ele><time>2026-05-03T12:29:53.111Z</time></trkpt><trkpt lat="44.6630943" lon="10.856775"><ele>41.0</ele><time>2026-05-03T12:29:59.11Z</time></trkpt><trkpt lat="44.66303" lon="10.8568158"><ele>41.0</ele><time>2026-05-03T12:30:03.112Z</time></trkpt><trkpt lat="44.6629547" lon="10.8568452"><ele>40.99999999999999</ele><time>2026-05-03T12:30:08.117Z</time></trkpt><trkpt lat="44.6629005" lon="10.8569095"><ele>41.0</ele><time>2026-05-03T12:30:14.03Z</time></trkpt><trkpt lat="44.6629634" lon="10.8568646"><ele>40.99999999999999</ele><time>2026-05-03T12:30:27.109Z</time></trkpt><trkpt lat="44.6630114" lon="10.8568014"><ele>41.0</ele><time>2026-05-03T12:30:31.11Z</time></trkpt><trkpt lat="44.6630726" lon="10.8567692"><ele>41.0</ele><time>2026-05-03T12:30:36.114Z</time></trkpt><trkpt lat="44.6631361" lon="10.8567152"><ele>41.0</ele><time>2026-05-03T12:30:42.116Z</time></trkpt><trkpt lat="44.6631937" lon="10.8566636"><ele>41.0</ele><time>2026-05-03T12:30:48.116Z</time></trkpt><trkpt lat="44.6631577" lon="10.8567445"><ele>40.99999999999999</ele><time>2026-05-03T12:35:15.114Z</time></trkpt><trkpt lat="44.6630999" lon="10.8567825"><ele>41.0</ele><time>2026-05-03T12:35:33.113Z</time></trkpt><trkpt lat="44.6630302" lon="10.856765"><ele>40.99999999999999</ele><time>2026-05-03T12:35:39.05Z</time></trkpt><trkpt lat="44.662972" lon="10.8568019"><ele>41.0</ele><time>2026-05-03T12:35:44.113Z</time></trkpt><trkpt lat="44.6629171" lon="10.8568576"><ele>41.0</ele><time>2026-05-03T12:35:49.111Z</time></trkpt><trkpt lat="44.6629078" lon="10.8569547"><ele>41.0</ele><time>2026-05-03T12:35:55.11Z</time></trkpt><trkpt lat="44.6629373" lon="10.8568219"><ele>41.0</ele><time>2026-05-03T12:38:07.103Z</time></trkpt><trkpt lat="44.6629937" lon="10.8567586"><ele>40.99999999999999</ele><time>2026-05-03T12:38:09.103Z</time></trkpt><trkpt lat="44.6630491" lon="10.8566999"><ele>41.0</ele><time>2026-05-03T12:38:11.102Z</time></trkpt><trkpt lat="44.6630913" lon="10.8566231"><ele>41.0</ele><time>2026-05-03T12:38:13.103Z</time></trkpt><trkpt lat="44.6631415" lon="10.8565016"><ele>41.0</ele><time>2026-05-03T12:38:16.103Z</time></trkpt><trkpt lat="44.663165" lon="10.8563764"><ele>41.0</ele><time>2026-05-03T12:38:18.102Z</time></trkpt><trkpt lat="44.6631588" lon="10.8562453"><ele>41.0</ele><time>2026-05-03T12:38:20.103Z</time></trkpt><trkpt lat="44.6631726" lon="10.8561048"><ele>41.0</ele><time>2026-05-03T12:38:22.103Z</time></trkpt><trkpt lat="44.6632544" lon="10.8559593"><ele>41.166666666666664</ele><time>2026-05-03T12:38:24.102Z</time></trkpt><trkpt lat="44.6633138" lon="10.8558943"><ele>41.33333333333333</ele><time>2026-05-03T12:38:25.103Z</time></trkpt><trkpt lat="44.663375" lon="10.8558223"><ele>41.5</ele><time>2026-05-03T12:38:26.102Z</time></trkpt><trkpt lat="44.6634301" lon="10.8557418"><ele>41.666666666666664</ele><time>2026-05-03T12:38:27.103Z</time></trkpt><trkpt lat="44.6634724" lon="10.8556582"><ele>41.833333333333336</ele><time>2026-05-03T12:38:28.103Z</time></trkpt><trkpt lat="44.6635023" lon="10.8555682"><ele>42.0</ele><time>2026-05-03T12:38:29.103Z</time></trkpt><trkpt lat="44.6635276" lon="10.8554727"><ele>42.0</ele><time>2026-05-03T12:38:30.103Z</time></trkpt><trkpt lat="44.6635573" lon="10.8553749"><ele>42.0</ele><time>2026-05-03T12:38:31.102Z</time></trkpt><trkpt lat="44.6635869" lon="10.8552698"><ele>42.0</ele><time>2026-05-03T12:38:32.103Z</time></trkpt><trkpt lat="44.6636191" lon="10.8551723"><ele>42.0</ele><time>2026-05-03T12:38:33.103Z</time></trkpt><trkpt lat="44.6636489" lon="10.8550864"><ele>42.0</ele><time>2026-05-03T12:38:34.102Z</time></trkpt><trkpt lat="44.6636792" lon="10.8550078"><ele>42.0</ele><time>2026-05-03T12:38:35.103Z</time></trkpt><trkpt lat="44.6637271" lon="10.854893"><ele>41.833333333333336</ele><time>2026-05-03T12:38:37.102Z</time></trkpt><trkpt lat="44.6637674" lon="10.8548131"><ele>41.666666666666664</ele><time>2026-05-03T12:38:39.102Z</time></trkpt><trkpt lat="44.6638121" lon="10.8547236"><ele>41.5</ele><time>2026-05-03T12:38:41.102Z</time></trkpt><trkpt lat="44.6638485" lon="10.8546167"><ele>41.33333333333333</ele><time>2026-05-03T12:38:43.103Z</time></trkpt><trkpt lat="44.6638931" lon="10.8544774"><ele>41.166666666666664</ele><time>2026-05-03T12:38:45.103Z</time></trkpt><trkpt lat="44.6639404" lon="10.8543614"><ele>41.0</ele><time>2026-05-03T12:38:47.102Z</time></trkpt><trkpt lat="44.6640122" lon="10.8542605"><ele>41.0</ele><time>2026-05-03T12:38:49.103Z</time></trkpt><trkpt lat="44.6640629" lon="10.8541807"><ele>41.0</ele><time>2026-05-03T12:38:51.102Z</time></trkpt><trkpt lat="44.6640839" lon="10.8540941"><ele>41.0</ele><time>2026-05-03T12:38:55.103Z</time></trkpt><trkpt lat="44.6641169" lon="10.8540154"><ele>41.0</ele><time>2026-05-03T12:38:57.103Z</time></trkpt><trkpt lat="44.6641788" lon="10.8538789"><ele>41.0</ele><time>2026-05-03T12:38:59.103Z</time></trkpt><trkpt lat="44.6642241" lon="10.8537847"><ele>41.0</ele><time>2026-05-03T12:39:00.103Z</time></trkpt><trkpt lat="44.6642719" lon="10.8536811"><ele>41.0</ele><time>2026-05-03T12:39:01.103Z</time></trkpt><trkpt lat="44.664331" lon="10.8535659"><ele>41.0</ele><time>2026-05-03T12:39:02.102Z</time></trkpt><trkpt lat="44.6643946" lon="10.8534374"><ele>41.0</ele><time>2026-05-03T12:39:03.102Z</time></trkpt><trkpt lat="44.6644579" lon="10.8533005"><ele>41.0</ele><time>2026-05-03T12:39:04.102Z</time></trkpt><trkpt lat="44.664538" lon="10.8531411"><ele>40.5</ele><time>2026-05-03T12:39:05.102Z</time></trkpt><trkpt lat="44.664612" lon="10.8529766"><ele>40.0</ele><time>2026-05-03T12:39:06.102Z</time></trkpt><trkpt lat="44.6646945" lon="10.8527949"><ele>39.5</ele><time>2026-05-03T12:39:07.102Z</time></trkpt><trkpt lat="44.6647764" lon="10.8526062"><ele>39.0</ele><time>2026-05-03T12:39:08.103Z</time></trkpt><trkpt lat="44.6648577" lon="10.8524224"><ele>39.0</ele><time>2026-05-03T12:39:09.103Z</time></trkpt><trkpt lat="44.6649393" lon="10.8522401"><ele>39.0</ele><time>2026-05-03T12:39:10.103Z</time></trkpt><trkpt lat="44.6650212" lon="10.85205"><ele>39.0</ele><time>2026-05-03T12:39:11.103Z</time></trkpt><trkpt lat="44.6650997" lon="10.8518608"><ele>38.666666666666664</ele><time>2026-05-03T12:39:12.102Z</time></trkpt><trkpt lat="44.6651881" lon="10.8516595"><ele>38.33333333333333</ele><time>2026-05-03T12:39:13.102Z</time></trkpt><trkpt lat="44.6652603" lon="10.8514603"><ele>38.0</ele><time>2026-05-03T12:39:14.102Z</time></trkpt><trkpt lat="44.6653412" lon="10.8512552"><ele>38.0</ele><time>2026-05-03T12:39:15.103Z</time></trkpt><trkpt lat="44.6654151" lon="10.8510534"><ele>38.0</ele><time>2026-05-03T12:39:16.103Z</time></trkpt><trkpt lat="44.6654784" lon="10.8508618"><ele>38.0</ele><time>2026-05-03T12:39:17.103Z</time></trkpt><trkpt lat="44.6655511" lon="10.850663"><ele>38.0</ele><time>2026-05-03T12:39:18.103Z</time></trkpt><trkpt lat="44.6656217" lon="10.8504603"><ele>38.0</ele><time>2026-05-03T12:39:19.102Z</time></trkpt><trkpt lat="44.6656959" lon="10.8502495"><ele>38.0</ele><time>2026-05-03T12:39:20.103Z</time></trkpt><trkpt lat="44.6657687" lon="10.8500359"><ele>38.33333333333333</ele><time>2026-05-03T12:39:21.102Z</time></trkpt><trkpt lat="44.6658424" lon="10.849818"><ele>38.666666666666664</ele><time>2026-05-03T12:39:22.102Z</time></trkpt><trkpt lat="44.6659159" lon="10.8495945"><ele>39.0</ele><time>2026-05-03T12:39:23.103Z</time></trkpt><trkpt lat="44.6659984" lon="10.8493623"><ele>39.0</ele><time>2026-05-03T12:39:24.103Z</time></trkpt><trkpt lat="44.6660821" lon="10.8491261"><ele>39.0</ele><time>2026-05-03T12:39:25.102Z</time></trkpt><trkpt lat="44.6661622" lon="10.848882"><ele>39.0</ele><time>2026-05-03T12:39:26.103Z</time></trkpt><trkpt lat="44.6662523" lon="10.8486322"><ele>39.333333333333336</ele><time>2026-05-03T12:39:27.103Z</time></trkpt><trkpt lat="44.6663435" lon="10.8483731"><ele>39.66666666666667</ele><time>2026-05-03T12:39:28.103Z</time></trkpt><trkpt lat="44.6664331" lon="10.8481131"><ele>40.0</ele><time>2026-05-03T12:39:29.103Z</time></trkpt><trkpt lat="44.6665222" lon="10.8478508"><ele>39.66666666666667</ele><time>2026-05-03T12:39:30.103Z</time></trkpt><trkpt lat="44.6666165" lon="10.8475723"><ele>39.333333333333336</ele><time>2026-05-03T12:39:31.103Z</time></trkpt><trkpt lat="44.6667144" lon="10.8472954"><ele>39.0</ele><time>2026-05-03T12:39:32.103Z</time></trkpt><trkpt lat="44.6668142" lon="10.8470056"><ele>40.0</ele><time>2026-05-03T12:39:33.102Z</time></trkpt><trkpt lat="44.6669187" lon="10.846705"><ele>41.0</ele><time>2026-05-03T12:39:34.103Z</time></trkpt><trkpt lat="44.6670224" lon="10.8463985"><ele>41.0</ele><time>2026-05-03T12:39:35.102Z</time></trkpt><trkpt lat="44.6671346" lon="10.8460839"><ele>41.0</ele><time>2026-05-03T12:39:36.102Z</time></trkpt><trkpt lat="44.6672479" lon="10.8457685"><ele>41.0</ele><time>2026-05-03T12:39:37.103Z</time></trkpt><trkpt lat="44.6673551" lon="10.8454513"><ele>41.0</ele><time>2026-05-03T12:39:38.103Z</time></trkpt><trkpt lat="44.6674651" lon="10.8451331"><ele>41.0</ele><time>2026-05-03T12:39:39.102Z</time></trkpt><trkpt lat="44.6675774" lon="10.8448047"><ele>41.0</ele><time>2026-05-03T12:39:40.102Z</time></trkpt><trkpt lat="44.6676962" lon="10.8444745"><ele>40.0</ele><time>2026-05-03T12:39:41.102Z</time></trkpt><trkpt lat="44.6678133" lon="10.8441402"><ele>39.0</ele><time>2026-05-03T12:39:42.102Z</time></trkpt><trkpt lat="44.6679297" lon="10.8438092"><ele>39.0</ele><time>2026-05-03T12:39:43.102Z</time></trkpt><trkpt lat="44.6680362" lon="10.8434923"><ele>39.0</ele><time>2026-05-03T12:39:44.102Z</time></trkpt><trkpt lat="44.668142" lon="10.8431872"><ele>40.0</ele><time>2026-05-03T12:39:45.103Z</time></trkpt><trkpt lat="44.6682525" lon="10.8428739"><ele>41.0</ele><time>2026-05-03T12:39:46.103Z</time></trkpt><trkpt lat="44.668354" lon="10.8425662"><ele>41.0</ele><time>2026-05-03T12:39:47.102Z</time></trkpt><trkpt lat="44.6684556" lon="10.8422566"><ele>41.0</ele><time>2026-05-03T12:39:48.102Z</time></trkpt><trkpt lat="44.6685586" lon="10.8419404"><ele>41.0</ele><time>2026-05-03T12:39:49.103Z</time></trkpt><trkpt lat="44.6686543" lon="10.841625"><ele>41.0</ele><time>2026-05-03T12:39:50.103Z</time></trkpt><trkpt lat="44.6687589" lon="10.8413068"><ele>41.0</ele><time>2026-05-03T12:39:51.103Z</time></trkpt><trkpt lat="44.6688666" lon="10.8409799"><ele>41.0</ele><time>2026-05-03T12:39:52.102Z</time></trkpt><trkpt lat="44.6689757" lon="10.8406548"><ele>40.0</ele><time>2026-05-03T12:39:53.103Z</time></trkpt><trkpt lat="44.6690904" lon="10.8403141"><ele>39.0</ele><time>2026-05-03T12:39:54.102Z</time></trkpt><trkpt lat="44.6692108" lon="10.8399725"><ele>39.0</ele><time>2026-05-03T12:39:55.103Z</time></trkpt><trkpt lat="44.6693297" lon="10.8396329"><ele>39.0</ele><time>2026-05-03T12:39:56.102Z</time></trkpt><trkpt lat="44.6694522" lon="10.8392858"><ele>39.0</ele><time>2026-05-03T12:39:57.102Z</time></trkpt><trkpt lat="44.6695743" lon="10.838942"><ele>39.0</ele><time>2026-05-03T12:39:58.103Z</time></trkpt><trkpt lat="44.6696929" lon="10.8386002"><ele>40.0</ele><time>2026-05-03T12:39:59.103Z</time></trkpt><trkpt lat="44.6698107" lon="10.8382588"><ele>41.0</ele><time>2026-05-03T12:40:00.102Z</time></trkpt><trkpt lat="44.6699341" lon="10.8379111"><ele>40.5</ele><time>2026-05-03T12:40:01.102Z</time></trkpt><trkpt lat="44.6700531" lon="10.8375649"><ele>40.0</ele><time>2026-05-03T12:40:02.103Z</time></trkpt><trkpt lat="44.6701713" lon="10.8372202"><ele>40.0</ele><time>2026-05-03T12:40:03.103Z</time></trkpt><trkpt lat="44.6702907" lon="10.8368642"><ele>40.0</ele><time>2026-05-03T12:40:04.103Z</time></trkpt><trkpt lat="44.6704166" lon="10.8365023"><ele>40.0</ele><time>2026-05-03T12:40:05.102Z</time></trkpt><trkpt lat="44.6705399" lon="10.8361312"><ele>40.0</ele><time>2026-05-03T12:40:06.103Z</time></trkpt><trkpt lat="44.6706704" lon="10.8357593"><ele>40.0</ele><time>2026-05-03T12:40:07.103Z</time></trkpt><trkpt lat="44.6707927" lon="10.8353926"><ele>40.0</ele><time>2026-05-03T12:40:08.103Z</time></trkpt><trkpt lat="44.670919" lon="10.8350295"><ele>39.5</ele><time>2026-05-03T12:40:09.103Z</time></trkpt><trkpt lat="44.6710488" lon="10.8346597"><ele>39.0</ele><time>2026-05-03T12:40:10.103Z</time></trkpt><trkpt lat="44.6711795" lon="10.8342881"><ele>38.0</ele><time>2026-05-03T12:40:11.103Z</time></trkpt><trkpt lat="44.6713133" lon="10.8339175"><ele>37.0</ele><time>2026-05-03T12:40:12.103Z</time></trkpt><trkpt lat="44.6714438" lon="10.8335501"><ele>38.5</ele><time>2026-05-03T12:40:13.103Z</time></trkpt><trkpt lat="44.6715734" lon="10.8331802"><ele>40.0</ele><time>2026-05-03T12:40:14.103Z</time></trkpt><trkpt lat="44.6717016" lon="10.8328131"><ele>39.5</ele><time>2026-05-03T12:40:15.103Z</time></trkpt><trkpt lat="44.6718283" lon="10.8324514"><ele>39.0</ele><time>2026-05-03T12:40:16.103Z</time></trkpt><trkpt lat="44.6719474" lon="10.8320922"><ele>41.0</ele><time>2026-05-03T12:40:17.102Z</time></trkpt><trkpt lat="44.672068" lon="10.8317313"><ele>43.0</ele><time>2026-05-03T12:40:18.103Z</time></trkpt><trkpt lat="44.6722001" lon="10.8313652"><ele>43.0</ele><time>2026-05-03T12:40:19.102Z</time></trkpt><trkpt lat="44.6723227" lon="10.8310031"><ele>43.0</ele><time>2026-05-03T12:40:20.102Z</time></trkpt><trkpt lat="44.6724509" lon="10.8306337"><ele>43.0</ele><time>2026-05-03T12:40:21.102Z</time></trkpt><trkpt lat="44.6725809" lon="10.830268"><ele>43.0</ele><time>2026-05-03T12:40:22.103Z</time></trkpt><trkpt lat="44.6727075" lon="10.8299012"><ele>42.5</ele><time>2026-05-03T12:40:23.102Z</time></trkpt><trkpt lat="44.6728335" lon="10.8295381"><ele>42.0</ele><time>2026-05-03T12:40:24.102Z</time></trkpt><trkpt lat="44.672959" lon="10.8291669"><ele>43.0</ele><time>2026-05-03T12:40:25.102Z</time></trkpt><trkpt lat="44.673083" lon="10.8287966"><ele>44.0</ele><time>2026-05-03T12:40:26.102Z</time></trkpt><trkpt lat="44.6732113" lon="10.8284184"><ele>44.0</ele><time>2026-05-03T12:40:27.103Z</time></trkpt><trkpt lat="44.6733425" lon="10.8280459"><ele>44.0</ele><time>2026-05-03T12:40:28.103Z</time></trkpt><trkpt lat="44.6734762" lon="10.8276619"><ele>44.0</ele><time>2026-05-03T12:40:29.103Z</time></trkpt><trkpt lat="44.6736128" lon="10.8272837"><ele>44.0</ele><time>2026-05-03T12:40:30.103Z</time></trkpt><trkpt lat="44.6737498" lon="10.8269001"><ele>44.0</ele><time>2026-05-03T12:40:31.103Z</time></trkpt><trkpt lat="44.6738828" lon="10.8265213"><ele>44.0</ele><time>2026-05-03T12:40:32.102Z</time></trkpt><trkpt lat="44.6740127" lon="10.826142"><ele>43.5</ele><time>2026-05-03T12:40:33.103Z</time></trkpt><trkpt lat="44.6741426" lon="10.8257655"><ele>43.0</ele><time>2026-05-03T12:40:34.103Z</time></trkpt><trkpt lat="44.6742741" lon="10.8253904"><ele>43.0</ele><time>2026-05-03T12:40:35.102Z</time></trkpt><trkpt lat="44.6744028" lon="10.8250174"><ele>43.0</ele><time>2026-05-03T12:40:36.103Z</time></trkpt><trkpt lat="44.6745353" lon="10.8246398"><ele>42.5</ele><time>2026-05-03T12:40:37.102Z</time></trkpt><trkpt lat="44.6746703" lon="10.8242578"><ele>42.0</ele><time>2026-05-03T12:40:38.102Z</time></trkpt><trkpt lat="44.6748051" lon="10.8238811"><ele>42.0</ele><time>2026-05-03T12:40:39.102Z</time></trkpt><trkpt lat="44.6749397" lon="10.8235041"><ele>42.0</ele><time>2026-05-03T12:40:40.102Z</time></trkpt><trkpt lat="44.6750715" lon="10.8231279"><ele>42.0</ele><time>2026-05-03T12:40:41.102Z</time></trkpt><trkpt lat="44.6751976" lon="10.8227617"><ele>42.0</ele><time>2026-05-03T12:40:42.102Z</time></trkpt><trkpt lat="44.6753213" lon="10.8223994"><ele>42.0</ele><time>2026-05-03T12:40:43.103Z</time></trkpt><trkpt lat="44.6754397" lon="10.8220629"><ele>42.0</ele><time>2026-05-03T12:40:44.102Z</time></trkpt><trkpt lat="44.6755572" lon="10.8217383"><ele>41.5</ele><time>2026-05-03T12:40:45.103Z</time></trkpt><trkpt lat="44.6756701" lon="10.8214215"><ele>41.0</ele><time>2026-05-03T12:40:46.102Z</time></trkpt><trkpt lat="44.6757743" lon="10.8211157"><ele>41.0</ele><time>2026-05-03T12:40:47.102Z</time></trkpt><trkpt lat="44.675876" lon="10.8208175"><ele>41.0</ele><time>2026-05-03T12:40:48.102Z</time></trkpt><trkpt lat="44.6759803" lon="10.8205267"><ele>41.0</ele><time>2026-05-03T12:40:49.102Z</time></trkpt><trkpt lat="44.6760806" lon="10.8202374"><ele>41.0</ele><time>2026-05-03T12:40:50.102Z</time></trkpt><trkpt lat="44.67618" lon="10.8199497"><ele>42.5</ele><time>2026-05-03T12:40:51.102Z</time></trkpt><trkpt lat="44.6762775" lon="10.8196617"><ele>44.0</ele><time>2026-05-03T12:40:52.103Z</time></trkpt><trkpt lat="44.6763706" lon="10.8193759"><ele>43.5</ele><time>2026-05-03T12:40:53.103Z</time></trkpt><trkpt lat="44.6764784" lon="10.8190817"><ele>43.0</ele><time>2026-05-03T12:40:54.102Z</time></trkpt><trkpt lat="44.6765852" lon="10.8187789"><ele>43.5</ele><time>2026-05-03T12:40:55.102Z</time></trkpt><trkpt lat="44.6766875" lon="10.8184774"><ele>44.0</ele><time>2026-05-03T12:40:56.102Z</time></trkpt><trkpt lat="44.6767924" lon="10.8181723"><ele>44.0</ele><time>2026-05-03T12:40:57.102Z</time></trkpt><trkpt lat="44.6768942" lon="10.8178771"><ele>44.0</ele><time>2026-05-03T12:40:58.102Z</time></trkpt><trkpt lat="44.6769958" lon="10.8175758"><ele>42.5</ele><time>2026-05-03T12:40:59.103Z</time></trkpt><trkpt lat="44.6771016" lon="10.8172755"><ele>41.0</ele><time>2026-05-03T12:41:00.102Z</time></trkpt><trkpt lat="44.6772093" lon="10.8169723"><ele>41.0</ele><time>2026-05-03T12:41:01.102Z</time></trkpt><trkpt lat="44.6773117" lon="10.8166746"><ele>41.0</ele><time>2026-05-03T12:41:02.102Z</time></trkpt><trkpt lat="44.6774154" lon="10.8163737"><ele>41.0</ele><time>2026-05-03T12:41:03.102Z</time></trkpt><trkpt lat="44.6775206" lon="10.816068"><ele>41.0</ele><time>2026-05-03T12:41:04.102Z</time></trkpt><trkpt lat="44.6776277" lon="10.8157525"><ele>41.5</ele><time>2026-05-03T12:41:05.102Z</time></trkpt><trkpt lat="44.6777428" lon="10.8154296"><ele>42.0</ele><time>2026-05-03T12:41:06.102Z</time></trkpt><trkpt lat="44.677853" lon="10.8151"><ele>41.0</ele><time>2026-05-03T12:41:07.102Z</time></trkpt><trkpt lat="44.6779725" lon="10.8147623"><ele>40.0</ele><time>2026-05-03T12:41:08.102Z</time></trkpt><trkpt lat="44.6780891" lon="10.8144286"><ele>40.0</ele><time>2026-05-03T12:41:09.102Z</time></trkpt><trkpt lat="44.6782082" lon="10.8140875"><ele>40.0</ele><time>2026-05-03T12:41:10.102Z</time></trkpt><trkpt lat="44.6783243" lon="10.8137466"><ele>40.0</ele><time>2026-05-03T12:41:11.103Z</time></trkpt><trkpt lat="44.6784443" lon="10.8134046"><ele>40.0</ele><time>2026-05-03T12:41:12.102Z</time></trkpt><trkpt lat="44.6785603" lon="10.813068"><ele>40.0</ele><time>2026-05-03T12:41:13.103Z</time></trkpt><trkpt lat="44.6786766" lon="10.8127288"><ele>40.0</ele><time>2026-05-03T12:41:14.102Z</time></trkpt><trkpt lat="44.6787878" lon="10.8123993"><ele>40.5</ele><time>2026-05-03T12:41:15.102Z</time></trkpt><trkpt lat="44.6789049" lon="10.8120619"><ele>41.0</ele><time>2026-05-03T12:41:16.103Z</time></trkpt><trkpt lat="44.6790214" lon="10.8117273"><ele>42.0</ele><time>2026-05-03T12:41:17.102Z</time></trkpt><trkpt lat="44.679139" lon="10.8113887"><ele>43.0</ele><time>2026-05-03T12:41:18.102Z</time></trkpt><trkpt lat="44.6792559" lon="10.811048"><ele>42.5</ele><time>2026-05-03T12:41:19.102Z</time></trkpt><trkpt lat="44.6793706" lon="10.8107056"><ele>42.0</ele><time>2026-05-03T12:41:20.103Z</time></trkpt><trkpt lat="44.6794925" lon="10.8103574"><ele>43.5</ele><time>2026-05-03T12:41:21.103Z</time></trkpt><trkpt lat="44.6796156" lon="10.8100136"><ele>45.0</ele><time>2026-05-03T12:41:22.103Z</time></trkpt><trkpt lat="44.6797389" lon="10.8096729"><ele>45.0</ele><time>2026-05-03T12:41:23.103Z</time></trkpt><trkpt lat="44.679859" lon="10.8093327"><ele>45.0</ele><time>2026-05-03T12:41:24.103Z</time></trkpt><trkpt lat="44.6799833" lon="10.8089899"><ele>44.5</ele><time>2026-05-03T12:41:25.102Z</time></trkpt><trkpt lat="44.680106" lon="10.8086498"><ele>44.0</ele><time>2026-05-03T12:41:26.103Z</time></trkpt><trkpt lat="44.6802309" lon="10.8083116"><ele>43.5</ele><time>2026-05-03T12:41:27.103Z</time></trkpt><trkpt lat="44.6803598" lon="10.8079704"><ele>43.0</ele><time>2026-05-03T12:41:28.103Z</time></trkpt><trkpt lat="44.680487" lon="10.8076266"><ele>42.0</ele><time>2026-05-03T12:41:29.102Z</time></trkpt><trkpt lat="44.6806089" lon="10.8072769"><ele>41.0</ele><time>2026-05-03T12:41:30.103Z</time></trkpt><trkpt lat="44.6807252" lon="10.8069314"><ele>41.0</ele><time>2026-05-03T12:41:31.103Z</time></trkpt><trkpt lat="44.6808448" lon="10.8065811"><ele>41.0</ele><time>2026-05-03T12:41:32.103Z</time></trkpt><trkpt lat="44.6809589" lon="10.8062345"><ele>42.0</ele><time>2026-05-03T12:41:33.102Z</time></trkpt><trkpt lat="44.6810763" lon="10.8058763"><ele>43.0</ele><time>2026-05-03T12:41:34.103Z</time></trkpt><trkpt lat="44.6811958" lon="10.8055166"><ele>42.5</ele><time>2026-05-03T12:41:35.102Z</time></trkpt><trkpt lat="44.6813181" lon="10.8051601"><ele>42.0</ele><time>2026-05-03T12:41:36.102Z</time></trkpt><trkpt lat="44.6814399" lon="10.8048049"><ele>42.0</ele><time>2026-05-03T12:41:37.102Z</time></trkpt><trkpt lat="44.6815609" lon="10.8044536"><ele>42.0</ele><time>2026-05-03T12:41:38.103Z</time></trkpt><trkpt lat="44.6816813" lon="10.8041035"><ele>42.0</ele><time>2026-05-03T12:41:39.102Z</time></trkpt><trkpt lat="44.6818045" lon="10.8037496"><ele>42.0</ele><time>2026-05-03T12:41:40.102Z</time></trkpt><trkpt lat="44.6819218" lon="10.8034028"><ele>42.5</ele><time>2026-05-03T12:41:41.102Z</time></trkpt><trkpt lat="44.6820453" lon="10.8030533"><ele>43.0</ele><time>2026-05-03T12:41:42.102Z</time></trkpt><trkpt lat="44.6821706" lon="10.8026961"><ele>42.5</ele><time>2026-05-03T12:41:43.103Z</time></trkpt><trkpt lat="44.6822974" lon="10.8023461"><ele>42.0</ele><time>2026-05-03T12:41:44.102Z</time></trkpt><trkpt lat="44.682429" lon="10.8019925"><ele>42.0</ele><time>2026-05-03T12:41:45.102Z</time></trkpt><trkpt lat="44.6825581" lon="10.8016375"><ele>42.0</ele><time>2026-05-03T12:41:46.103Z</time></trkpt><trkpt lat="44.6826849" lon="10.8012873"><ele>42.0</ele><time>2026-05-03T12:41:47.103Z</time></trkpt><trkpt lat="44.6828051" lon="10.8009338"><ele>42.0</ele><time>2026-05-03T12:41:48.103Z</time></trkpt><trkpt lat="44.6829327" lon="10.8005819"><ele>42.0</ele><time>2026-05-03T12:41:49.103Z</time></trkpt><trkpt lat="44.6830552" lon="10.8002261"><ele>42.0</ele><time>2026-05-03T12:41:50.103Z</time></trkpt><trkpt lat="44.6831797" lon="10.7998747"><ele>42.5</ele><time>2026-05-03T12:41:51.102Z</time></trkpt><trkpt lat="44.6832998" lon="10.7995217"><ele>43.0</ele><time>2026-05-03T12:41:52.102Z</time></trkpt><trkpt lat="44.6834229" lon="10.7991693"><ele>43.0</ele><time>2026-05-03T12:41:53.102Z</time></trkpt><trkpt lat="44.6835464" lon="10.7988205"><ele>43.0</ele><time>2026-05-03T12:41:54.103Z</time></trkpt><trkpt lat="44.6836713" lon="10.7984668"><ele>42.0</ele><time>2026-05-03T12:41:55.103Z</time></trkpt><trkpt lat="44.6837884" lon="10.7981157"><ele>41.0</ele><time>2026-05-03T12:41:56.103Z</time></trkpt><trkpt lat="44.6839098" lon="10.7977596"><ele>41.5</ele><time>2026-05-03T12:41:57.102Z</time></trkpt><trkpt lat="44.6840331" lon="10.7974055"><ele>42.0</ele><time>2026-05-03T12:41:58.103Z</time></trkpt><trkpt lat="44.6841558" lon="10.7970513"><ele>41.5</ele><time>2026-05-03T12:41:59.102Z</time></trkpt><trkpt lat="44.6842791" lon="10.7967005"><ele>41.0</ele><time>2026-05-03T12:42:00.102Z</time></trkpt><trkpt lat="44.6844015" lon="10.7963481"><ele>41.0</ele><time>2026-05-03T12:42:01.103Z</time></trkpt><trkpt lat="44.6845251" lon="10.7959943"><ele>41.0</ele><time>2026-05-03T12:42:02.103Z</time></trkpt><trkpt lat="44.6846459" lon="10.7956381"><ele>41.0</ele><time>2026-05-03T12:42:03.103Z</time></trkpt><trkpt lat="44.6847653" lon="10.7952834"><ele>41.0</ele><time>2026-05-03T12:42:04.102Z</time></trkpt><trkpt lat="44.6848878" lon="10.794925"><ele>41.0</ele><time>2026-05-03T12:42:05.102Z</time></trkpt><trkpt lat="44.6850076" lon="10.794571"><ele>41.0</ele><time>2026-05-03T12:42:06.102Z</time></trkpt><trkpt lat="44.6851273" lon="10.7942116"><ele>41.0</ele><time>2026-05-03T12:42:07.102Z</time></trkpt><trkpt lat="44.6852469" lon="10.7938552"><ele>41.0</ele><time>2026-05-03T12:42:08.102Z</time></trkpt><trkpt lat="44.6853687" lon="10.7934991"><ele>40.0</ele><time>2026-05-03T12:42:09.102Z</time></trkpt><trkpt lat="44.6854927" lon="10.7931445"><ele>39.0</ele><time>2026-05-03T12:42:10.102Z</time></trkpt><trkpt lat="44.6856155" lon="10.7927903"><ele>39.5</ele><time>2026-05-03T12:42:11.103Z</time></trkpt><trkpt lat="44.6857391" lon="10.7924336"><ele>40.0</ele><time>2026-05-03T12:42:12.102Z</time></trkpt><trkpt lat="44.6858624" lon="10.7920754"><ele>40.0</ele><time>2026-05-03T12:42:13.102Z</time></trkpt><trkpt lat="44.6859842" lon="10.7917231"><ele>40.0</ele><time>2026-05-03T12:42:14.103Z</time></trkpt><trkpt lat="44.6861025" lon="10.7913731"><ele>39.5</ele><time>2026-05-03T12:42:15.103Z</time></trkpt><trkpt lat="44.68623" lon="10.7910145"><ele>39.0</ele><time>2026-05-03T12:42:16.102Z</time></trkpt><trkpt lat="44.686353" lon="10.7906594"><ele>40.5</ele><time>2026-05-03T12:42:17.102Z</time></trkpt><trkpt lat="44.6864752" lon="10.7903037"><ele>42.0</ele><time>2026-05-03T12:42:18.102Z</time></trkpt><trkpt lat="44.686598" lon="10.7899522"><ele>42.0</ele><time>2026-05-03T12:42:19.103Z</time></trkpt><trkpt lat="44.6867205" lon="10.7896"><ele>42.0</ele><time>2026-05-03T12:42:20.103Z</time></trkpt><trkpt lat="44.6868426" lon="10.7892491"><ele>42.5</ele><time>2026-05-03T12:42:21.102Z</time></trkpt><trkpt lat="44.6869693" lon="10.7889034"><ele>43.0</ele><time>2026-05-03T12:42:22.103Z</time></trkpt><trkpt lat="44.6870958" lon="10.7885539"><ele>42.0</ele><time>2026-05-03T12:42:23.103Z</time></trkpt><trkpt lat="44.6872203" lon="10.7882071"><ele>41.0</ele><time>2026-05-03T12:42:24.103Z</time></trkpt><trkpt lat="44.6873489" lon="10.787858"><ele>40.5</ele><time>2026-05-03T12:42:25.103Z</time></trkpt><trkpt lat="44.6874749" lon="10.7875048"><ele>40.0</ele><time>2026-05-03T12:42:26.102Z</time></trkpt><trkpt lat="44.6875963" lon="10.7871522"><ele>40.0</ele><time>2026-05-03T12:42:27.103Z</time></trkpt><trkpt lat="44.6877203" lon="10.7868002"><ele>40.0</ele><time>2026-05-03T12:42:28.103Z</time></trkpt><trkpt lat="44.6878427" lon="10.7864505"><ele>40.0</ele><time>2026-05-03T12:42:29.102Z</time></trkpt><trkpt lat="44.6879661" lon="10.7860954"><ele>40.0</ele><time>2026-05-03T12:42:30.102Z</time></trkpt><trkpt lat="44.6880828" lon="10.7857473"><ele>40.5</ele><time>2026-05-03T12:42:31.103Z</time></trkpt><trkpt lat="44.6882032" lon="10.7853914"><ele>41.0</ele><time>2026-05-03T12:42:32.102Z</time></trkpt><trkpt lat="44.6883271" lon="10.7850377"><ele>41.5</ele><time>2026-05-03T12:42:33.102Z</time></trkpt><trkpt lat="44.6884516" lon="10.7846846"><ele>42.0</ele><time>2026-05-03T12:42:34.102Z</time></trkpt><trkpt lat="44.6885716" lon="10.7843438"><ele>42.5</ele><time>2026-05-03T12:42:35.102Z</time></trkpt><trkpt lat="44.6886909" lon="10.7839994"><ele>43.0</ele><time>2026-05-03T12:42:36.103Z</time></trkpt><trkpt lat="44.6888091" lon="10.7836618"><ele>43.0</ele><time>2026-05-03T12:42:37.102Z</time></trkpt><trkpt lat="44.6889302" lon="10.7833193"><ele>43.0</ele><time>2026-05-03T12:42:38.102Z</time></trkpt><trkpt lat="44.6890484" lon="10.7829769"><ele>42.0</ele><time>2026-05-03T12:42:39.102Z</time></trkpt><trkpt lat="44.6891682" lon="10.7826273"><ele>41.0</ele><time>2026-05-03T12:42:40.102Z</time></trkpt><trkpt lat="44.689283" lon="10.782288"><ele>41.0</ele><time>2026-05-03T12:42:41.102Z</time></trkpt><trkpt lat="44.6893958" lon="10.7819491"><ele>41.0</ele><time>2026-05-03T12:42:42.102Z</time></trkpt><trkpt lat="44.6895147" lon="10.7816098"><ele>41.0</ele><time>2026-05-03T12:42:43.103Z</time></trkpt><trkpt lat="44.6896323" lon="10.7812677"><ele>41.0</ele><time>2026-05-03T12:42:44.103Z</time></trkpt><trkpt lat="44.6897501" lon="10.7809284"><ele>41.0</ele><time>2026-05-03T12:42:45.103Z</time></trkpt><trkpt lat="44.6898681" lon="10.7805862"><ele>41.0</ele><time>2026-05-03T12:42:46.103Z</time></trkpt><trkpt lat="44.6899916" lon="10.7802428"><ele>41.5</ele><time>2026-05-03T12:42:47.103Z</time></trkpt><trkpt lat="44.690112" lon="10.7799048"><ele>42.0</ele><time>2026-05-03T12:42:48.102Z</time></trkpt><trkpt lat="44.6902278" lon="10.779562"><ele>41.5</ele><time>2026-05-03T12:42:49.102Z</time></trkpt><trkpt lat="44.6903475" lon="10.7792258"><ele>41.0</ele><time>2026-05-03T12:42:50.102Z</time></trkpt><trkpt lat="44.6904707" lon="10.7788845"><ele>41.0</ele><time>2026-05-03T12:42:51.102Z</time></trkpt><trkpt lat="44.6905924" lon="10.7785434"><ele>41.0</ele><time>2026-05-03T12:42:52.102Z</time></trkpt><trkpt lat="44.6907082" lon="10.7782053"><ele>41.5</ele><time>2026-05-03T12:42:53.102Z</time></trkpt><trkpt lat="44.6908215" lon="10.7778712"><ele>42.0</ele><time>2026-05-03T12:42:54.103Z</time></trkpt><trkpt lat="44.6909426" lon="10.7775266"><ele>42.0</ele><time>2026-05-03T12:42:55.103Z</time></trkpt><trkpt lat="44.691062" lon="10.7771867"><ele>42.0</ele><time>2026-05-03T12:42:56.103Z</time></trkpt><trkpt lat="44.6911828" lon="10.776844"><ele>41.0</ele><time>2026-05-03T12:42:57.103Z</time></trkpt><trkpt lat="44.6912989" lon="10.7765016"><ele>40.0</ele><time>2026-05-03T12:42:58.102Z</time></trkpt><trkpt lat="44.6914164" lon="10.776164"><ele>40.5</ele><time>2026-05-03T12:42:59.103Z</time></trkpt><trkpt lat="44.6915359" lon="10.7758209"><ele>41.0</ele><time>2026-05-03T12:43:00.102Z</time></trkpt><trkpt lat="44.6916512" lon="10.775481"><ele>41.5</ele><time>2026-05-03T12:43:01.102Z</time></trkpt><trkpt lat="44.6917673" lon="10.7751359"><ele>42.0</ele><time>2026-05-03T12:43:02.102Z</time></trkpt><trkpt lat="44.6918835" lon="10.7748065"><ele>41.0</ele><time>2026-05-03T12:43:03.102Z</time></trkpt><trkpt lat="44.6919914" lon="10.7744927"><ele>40.0</ele><time>2026-05-03T12:43:04.103Z</time></trkpt><trkpt lat="44.6920977" lon="10.7741886"><ele>40.0</ele><time>2026-05-03T12:43:05.102Z</time></trkpt><trkpt lat="44.6922014" lon="10.7738941"><ele>40.0</ele><time>2026-05-03T12:43:06.103Z</time></trkpt><trkpt lat="44.6923008" lon="10.7736167"><ele>39.66666666666667</ele><time>2026-05-03T12:43:07.102Z</time></trkpt><trkpt lat="44.6923949" lon="10.7733485"><ele>39.333333333333336</ele><time>2026-05-03T12:43:08.103Z</time></trkpt><trkpt lat="44.6924807" lon="10.7730921"><ele>39.0</ele><time>2026-05-03T12:43:09.103Z</time></trkpt><trkpt lat="44.6925698" lon="10.772839"><ele>39.0</ele><time>2026-05-03T12:43:10.103Z</time></trkpt><trkpt lat="44.692654" lon="10.7725955"><ele>39.0</ele><time>2026-05-03T12:43:11.102Z</time></trkpt><trkpt lat="44.6927363" lon="10.7723573"><ele>39.0</ele><time>2026-05-03T12:43:12.103Z</time></trkpt><trkpt lat="44.6928156" lon="10.7721204"><ele>39.0</ele><time>2026-05-03T12:43:13.103Z</time></trkpt><trkpt lat="44.6928966" lon="10.7718945"><ele>39.0</ele><time>2026-05-03T12:43:14.102Z</time></trkpt><trkpt lat="44.6929805" lon="10.7716616"><ele>39.0</ele><time>2026-05-03T12:43:15.102Z</time></trkpt><trkpt lat="44.6930581" lon="10.771427"><ele>38.666666666666664</ele><time>2026-05-03T12:43:16.103Z</time></trkpt><trkpt lat="44.693137" lon="10.7712039"><ele>38.33333333333333</ele><time>2026-05-03T12:43:17.102Z</time></trkpt><trkpt lat="44.6932125" lon="10.771"><ele>38.0</ele><time>2026-05-03T12:43:18.102Z</time></trkpt><trkpt lat="44.693287" lon="10.7708016"><ele>37.666666666666664</ele><time>2026-05-03T12:43:19.103Z</time></trkpt><trkpt lat="44.6933582" lon="10.7706003"><ele>37.333333333333336</ele><time>2026-05-03T12:43:20.102Z</time></trkpt><trkpt lat="44.6934287" lon="10.7703979"><ele>37.0</ele><time>2026-05-03T12:43:21.103Z</time></trkpt><trkpt lat="44.6935067" lon="10.7701936"><ele>37.0</ele><time>2026-05-03T12:43:22.103Z</time></trkpt><trkpt lat="44.6935682" lon="10.770005"><ele>37.0</ele><time>2026-05-03T12:43:23.102Z</time></trkpt><trkpt lat="44.6936361" lon="10.7698088"><ele>37.0</ele><time>2026-05-03T12:43:24.102Z</time></trkpt><trkpt lat="44.6937094" lon="10.7696067"><ele>38.0</ele><time>2026-05-03T12:43:25.102Z</time></trkpt><trkpt lat="44.6937812" lon="10.7693941"><ele>39.0</ele><time>2026-05-03T12:43:26.102Z</time></trkpt><trkpt lat="44.6938507" lon="10.769185"><ele>40.0</ele><time>2026-05-03T12:43:27.103Z</time></trkpt><trkpt lat="44.6939182" lon="10.768981"><ele>40.0</ele><time>2026-05-03T12:43:28.103Z</time></trkpt><trkpt lat="44.6939906" lon="10.7687741"><ele>40.0</ele><time>2026-05-03T12:43:29.102Z</time></trkpt><trkpt lat="44.6940571" lon="10.7685784"><ele>40.0</ele><time>2026-05-03T12:43:30.103Z</time></trkpt><trkpt lat="44.6941252" lon="10.7683782"><ele>40.25</ele><time>2026-05-03T12:43:31.102Z</time></trkpt><trkpt lat="44.6941968" lon="10.7681835"><ele>40.5</ele><time>2026-05-03T12:43:32.102Z</time></trkpt><trkpt lat="44.6942639" lon="10.7679997"><ele>40.75</ele><time>2026-05-03T12:43:33.103Z</time></trkpt><trkpt lat="44.6943248" lon="10.7678222"><ele>41.0</ele><time>2026-05-03T12:43:34.102Z</time></trkpt><trkpt lat="44.6943894" lon="10.7676434"><ele>40.75</ele><time>2026-05-03T12:43:35.102Z</time></trkpt><trkpt lat="44.6944498" lon="10.7674666"><ele>40.5</ele><time>2026-05-03T12:43:36.103Z</time></trkpt><trkpt lat="44.6945068" lon="10.7672966"><ele>40.25</ele><time>2026-05-03T12:43:37.103Z</time></trkpt><trkpt lat="44.6945651" lon="10.7671237"><ele>40.0</ele><time>2026-05-03T12:43:38.103Z</time></trkpt><trkpt lat="44.6946201" lon="10.7669544"><ele>40.25</ele><time>2026-05-03T12:43:39.103Z</time></trkpt><trkpt lat="44.6946805" lon="10.7667793"><ele>40.5</ele><time>2026-05-03T12:43:40.102Z</time></trkpt><trkpt lat="44.69474" lon="10.7666063"><ele>40.75</ele><time>2026-05-03T12:43:41.102Z</time></trkpt><trkpt lat="44.6948015" lon="10.766429"><ele>41.0</ele><time>2026-05-03T12:43:42.102Z</time></trkpt><trkpt lat="44.6948574" lon="10.7662606"><ele>41.0</ele><time>2026-05-03T12:43:43.103Z</time></trkpt><trkpt lat="44.6949151" lon="10.7660924"><ele>41.0</ele><time>2026-05-03T12:43:44.102Z</time></trkpt><trkpt lat="44.6949789" lon="10.7659212"><ele>41.0</ele><time>2026-05-03T12:43:45.102Z</time></trkpt><trkpt lat="44.6950382" lon="10.7657492"><ele>41.0</ele><time>2026-05-03T12:43:46.103Z</time></trkpt><trkpt lat="44.6950977" lon="10.7655774"><ele>40.75</ele><time>2026-05-03T12:43:47.102Z</time></trkpt><trkpt lat="44.6951591" lon="10.765401"><ele>40.5</ele><time>2026-05-03T12:43:48.102Z</time></trkpt><trkpt lat="44.6952193" lon="10.7652246"><ele>40.25</ele><time>2026-05-03T12:43:49.103Z</time></trkpt><trkpt lat="44.6952816" lon="10.7650423"><ele>40.0</ele><time>2026-05-03T12:43:50.103Z</time></trkpt><trkpt lat="44.6953389" lon="10.7648685"><ele>40.0</ele><time>2026-05-03T12:43:51.102Z</time></trkpt><trkpt lat="44.6954022" lon="10.7646914"><ele>40.0</ele><time>2026-05-03T12:43:52.102Z</time></trkpt><trkpt lat="44.6954608" lon="10.764516"><ele>40.0</ele><time>2026-05-03T12:43:53.102Z</time></trkpt><trkpt lat="44.6955248" lon="10.7643408"><ele>40.0</ele><time>2026-05-03T12:43:54.102Z</time></trkpt><trkpt lat="44.695585" lon="10.7641628"><ele>40.0</ele><time>2026-05-03T12:43:55.102Z</time></trkpt><trkpt lat="44.6956521" lon="10.7639821"><ele>40.0</ele><time>2026-05-03T12:43:56.102Z</time></trkpt><trkpt lat="44.6957113" lon="10.7638072"><ele>40.0</ele><time>2026-05-03T12:43:57.103Z</time></trkpt><trkpt lat="44.6957718" lon="10.7636341"><ele>40.0</ele><time>2026-05-03T12:43:58.102Z</time></trkpt><trkpt lat="44.6958306" lon="10.7634687"><ele>40.5</ele><time>2026-05-03T12:43:59.102Z</time></trkpt><trkpt lat="44.6958869" lon="10.763302"><ele>41.0</ele><time>2026-05-03T12:44:00.102Z</time></trkpt><trkpt lat="44.6959477" lon="10.7631388"><ele>41.5</ele><time>2026-05-03T12:44:01.102Z</time></trkpt><trkpt lat="44.6960092" lon="10.7629636"><ele>42.0</ele><time>2026-05-03T12:44:02.103Z</time></trkpt><trkpt lat="44.6960744" lon="10.7627913"><ele>41.75</ele><time>2026-05-03T12:44:03.102Z</time></trkpt><trkpt lat="44.6961355" lon="10.7626223"><ele>41.5</ele><time>2026-05-03T12:44:04.102Z</time></trkpt><trkpt lat="44.6961903" lon="10.7624559"><ele>41.25</ele><time>2026-05-03T12:44:05.102Z</time></trkpt><trkpt lat="44.6962503" lon="10.7622911"><ele>41.0</ele><time>2026-05-03T12:44:06.103Z</time></trkpt><trkpt lat="44.6962998" lon="10.7621305"><ele>41.0</ele><time>2026-05-03T12:44:07.102Z</time></trkpt><trkpt lat="44.6963571" lon="10.7619633"><ele>41.0</ele><time>2026-05-03T12:44:08.102Z</time></trkpt><trkpt lat="44.6964148" lon="10.7618001"><ele>41.0</ele><time>2026-05-03T12:44:09.102Z</time></trkpt><trkpt lat="44.6964666" lon="10.7616444"><ele>41.0</ele><time>2026-05-03T12:44:10.103Z</time></trkpt><trkpt lat="44.6965299" lon="10.7614867"><ele>40.75</ele><time>2026-05-03T12:44:11.103Z</time></trkpt><trkpt lat="44.6965832" lon="10.7613308"><ele>40.5</ele><time>2026-05-03T12:44:12.103Z</time></trkpt><trkpt lat="44.696634" lon="10.7611893"><ele>40.25</ele><time>2026-05-03T12:44:13.103Z</time></trkpt><trkpt lat="44.6966895" lon="10.7610461"><ele>40.0</ele><time>2026-05-03T12:44:14.103Z</time></trkpt><trkpt lat="44.6967369" lon="10.760904"><ele>40.0</ele><time>2026-05-03T12:44:15.103Z</time></trkpt><trkpt lat="44.6967849" lon="10.7607616"><ele>40.0</ele><time>2026-05-03T12:44:16.103Z</time></trkpt><trkpt lat="44.6968328" lon="10.7606111"><ele>40.0</ele><time>2026-05-03T12:44:17.102Z</time></trkpt><trkpt lat="44.6968829" lon="10.7604665"><ele>40.0</ele><time>2026-05-03T12:44:18.102Z</time></trkpt><trkpt lat="44.6969377" lon="10.7603115"><ele>40.25</ele><time>2026-05-03T12:44:19.102Z</time></trkpt><trkpt lat="44.6969909" lon="10.7601576"><ele>40.5</ele><time>2026-05-03T12:44:20.103Z</time></trkpt><trkpt lat="44.697043" lon="10.7600043"><ele>40.75</ele><time>2026-05-03T12:44:21.103Z</time></trkpt><trkpt lat="44.6970911" lon="10.759852"><ele>41.0</ele><time>2026-05-03T12:44:22.102Z</time></trkpt><trkpt lat="44.697141" lon="10.7596983"><ele>41.0</ele><time>2026-05-03T12:44:23.102Z</time></trkpt><trkpt lat="44.6971958" lon="10.7595418"><ele>41.0</ele><time>2026-05-03T12:44:24.103Z</time></trkpt><trkpt lat="44.6972507" lon="10.7593831"><ele>41.0</ele><time>2026-05-03T12:44:25.103Z</time></trkpt><trkpt lat="44.697307" lon="10.7592233"><ele>41.0</ele><time>2026-05-03T12:44:26.103Z</time></trkpt><trkpt lat="44.6973588" lon="10.7590715"><ele>40.5</ele><time>2026-05-03T12:44:27.103Z</time></trkpt><trkpt lat="44.6974132" lon="10.7589215"><ele>40.0</ele><time>2026-05-03T12:44:28.103Z</time></trkpt><trkpt lat="44.697464" lon="10.7587728"><ele>39.5</ele><time>2026-05-03T12:44:29.102Z</time></trkpt><trkpt lat="44.6975144" lon="10.7586236"><ele>39.0</ele><time>2026-05-03T12:44:30.102Z</time></trkpt><trkpt lat="44.697566" lon="10.7584667"><ele>38.75</ele><time>2026-05-03T12:44:31.103Z</time></trkpt><trkpt lat="44.6976212" lon="10.7583026"><ele>38.5</ele><time>2026-05-03T12:44:32.102Z</time></trkpt><trkpt lat="44.6976808" lon="10.7581337"><ele>38.25</ele><time>2026-05-03T12:44:33.102Z</time></trkpt><trkpt lat="44.697746" lon="10.757958"><ele>38.0</ele><time>2026-05-03T12:44:34.103Z</time></trkpt><trkpt lat="44.6978146" lon="10.7577749"><ele>37.75</ele><time>2026-05-03T12:44:35.102Z</time></trkpt><trkpt lat="44.6978629" lon="10.7576059"><ele>37.5</ele><time>2026-05-03T12:44:36.102Z</time></trkpt><trkpt lat="44.6979158" lon="10.7574496"><ele>37.25</ele><time>2026-05-03T12:44:37.103Z</time></trkpt><trkpt lat="44.6979712" lon="10.7572861"><ele>37.0</ele><time>2026-05-03T12:44:38.102Z</time></trkpt><trkpt lat="44.6980302" lon="10.757115"><ele>37.0</ele><time>2026-05-03T12:44:39.102Z</time></trkpt><trkpt lat="44.698096" lon="10.7569365"><ele>37.0</ele><time>2026-05-03T12:44:40.102Z</time></trkpt><trkpt lat="44.698158" lon="10.7567607"><ele>37.0</ele><time>2026-05-03T12:44:41.103Z</time></trkpt><trkpt lat="44.6982212" lon="10.7565817"><ele>37.0</ele><time>2026-05-03T12:44:42.102Z</time></trkpt><trkpt lat="44.6982865" lon="10.7564012"><ele>37.25</ele><time>2026-05-03T12:44:43.103Z</time></trkpt><trkpt lat="44.6983447" lon="10.7562369"><ele>37.5</ele><time>2026-05-03T12:44:44.103Z</time></trkpt><trkpt lat="44.6984046" lon="10.7560709"><ele>37.75</ele><time>2026-05-03T12:44:45.102Z</time></trkpt><trkpt lat="44.6984643" lon="10.7558965"><ele>38.0</ele><time>2026-05-03T12:44:46.103Z</time></trkpt><trkpt lat="44.6985212" lon="10.7557272"><ele>38.25</ele><time>2026-05-03T12:44:47.103Z</time></trkpt><trkpt lat="44.698586" lon="10.755544"><ele>38.5</ele><time>2026-05-03T12:44:48.103Z</time></trkpt><trkpt lat="44.698649" lon="10.755363"><ele>38.75</ele><time>2026-05-03T12:44:49.102Z</time></trkpt><trkpt lat="44.698711" lon="10.7551757"><ele>39.0</ele><time>2026-05-03T12:44:50.102Z</time></trkpt><trkpt lat="44.6987724" lon="10.7549976"><ele>39.0</ele><time>2026-05-03T12:44:51.103Z</time></trkpt><trkpt lat="44.6988298" lon="10.7548291"><ele>39.0</ele><time>2026-05-03T12:44:52.103Z</time></trkpt><trkpt lat="44.6988892" lon="10.7546561"><ele>39.0</ele><time>2026-05-03T12:44:53.102Z</time></trkpt><trkpt lat="44.6989443" lon="10.7544802"><ele>39.0</ele><time>2026-05-03T12:44:54.102Z</time></trkpt><trkpt lat="44.6990094" lon="10.7542933"><ele>39.0</ele><time>2026-05-03T12:44:55.102Z</time></trkpt><trkpt lat="44.6990752" lon="10.7541123"><ele>39.0</ele><time>2026-05-03T12:44:56.102Z</time></trkpt><trkpt lat="44.699142" lon="10.7539299"><ele>39.0</ele><time>2026-05-03T12:44:57.102Z</time></trkpt><trkpt lat="44.6992065" lon="10.7537558"><ele>39.0</ele><time>2026-05-03T12:44:58.102Z</time></trkpt><trkpt lat="44.6992686" lon="10.7535837"><ele>39.0</ele><time>2026-05-03T12:44:59.103Z</time></trkpt><trkpt lat="44.6993341" lon="10.7534013"><ele>39.0</ele><time>2026-05-03T12:45:00.102Z</time></trkpt><trkpt lat="44.6994004" lon="10.7532136"><ele>39.0</ele><time>2026-05-03T12:45:01.102Z</time></trkpt><trkpt lat="44.6994606" lon="10.7530311"><ele>39.0</ele><time>2026-05-03T12:45:02.103Z</time></trkpt><trkpt lat="44.6995216" lon="10.7528504"><ele>39.0</ele><time>2026-05-03T12:45:03.102Z</time></trkpt><trkpt lat="44.6995828" lon="10.7526727"><ele>39.0</ele><time>2026-05-03T12:45:04.103Z</time></trkpt><trkpt lat="44.6996464" lon="10.7524985"><ele>39.0</ele><time>2026-05-03T12:45:05.103Z</time></trkpt><trkpt lat="44.6997076" lon="10.7523201"><ele>39.0</ele><time>2026-05-03T12:45:06.103Z</time></trkpt><trkpt lat="44.6997714" lon="10.7521447"><ele>39.0</ele><time>2026-05-03T12:45:07.102Z</time></trkpt><trkpt lat="44.6998282" lon="10.7519725"><ele>39.0</ele><time>2026-05-03T12:45:08.103Z</time></trkpt><trkpt lat="44.6998844" lon="10.7517983"><ele>39.0</ele><time>2026-05-03T12:45:09.102Z</time></trkpt><trkpt lat="44.6999413" lon="10.7516327"><ele>39.0</ele><time>2026-05-03T12:45:10.102Z</time></trkpt><trkpt lat="44.7000018" lon="10.7514703"><ele>39.0</ele><time>2026-05-03T12:45:11.103Z</time></trkpt><trkpt lat="44.7000622" lon="10.7513029"><ele>39.0</ele><time>2026-05-03T12:45:12.103Z</time></trkpt><trkpt lat="44.7001174" lon="10.7511314"><ele>39.0</ele><time>2026-05-03T12:45:13.102Z</time></trkpt><trkpt lat="44.7001769" lon="10.7509619"><ele>39.0</ele><time>2026-05-03T12:45:14.103Z</time></trkpt><trkpt lat="44.7002399" lon="10.7507871"><ele>38.75</ele><time>2026-05-03T12:45:15.103Z</time></trkpt><trkpt lat="44.7003016" lon="10.7506063"><ele>38.5</ele><time>2026-05-03T12:45:16.102Z</time></trkpt><trkpt lat="44.700363" lon="10.7504293"><ele>38.25</ele><time>2026-05-03T12:45:17.103Z</time></trkpt><trkpt lat="44.7004205" lon="10.7502588"><ele>38.0</ele><time>2026-05-03T12:45:18.103Z</time></trkpt><trkpt lat="44.7004789" lon="10.7500952"><ele>38.0</ele><time>2026-05-03T12:45:19.103Z</time></trkpt><trkpt lat="44.7005379" lon="10.7499312"><ele>38.0</ele><time>2026-05-03T12:45:20.103Z</time></trkpt><trkpt lat="44.700595" lon="10.7497648"><ele>38.0</ele><time>2026-05-03T12:45:21.102Z</time></trkpt><trkpt lat="44.7006504" lon="10.7495974"><ele>38.0</ele><time>2026-05-03T12:45:22.103Z</time></trkpt><trkpt lat="44.7007095" lon="10.7494285"><ele>37.75</ele><time>2026-05-03T12:45:23.102Z</time></trkpt><trkpt lat="44.7007686" lon="10.7492573"><ele>37.5</ele><time>2026-05-03T12:45:24.102Z</time></trkpt><trkpt lat="44.7008297" lon="10.7490867"><ele>37.25</ele><time>2026-05-03T12:45:25.102Z</time></trkpt><trkpt lat="44.7008875" lon="10.7489149"><ele>37.0</ele><time>2026-05-03T12:45:26.102Z</time></trkpt><trkpt lat="44.7009475" lon="10.7487425"><ele>37.0</ele><time>2026-05-03T12:45:27.102Z</time></trkpt><trkpt lat="44.7010068" lon="10.7485727"><ele>37.0</ele><time>2026-05-03T12:45:28.103Z</time></trkpt><trkpt lat="44.7010642" lon="10.7484053"><ele>37.0</ele><time>2026-05-03T12:45:29.102Z</time></trkpt><trkpt lat="44.7011235" lon="10.748238"><ele>37.0</ele><time>2026-05-03T12:45:30.103Z</time></trkpt><trkpt lat="44.701176" lon="10.7480732"><ele>37.5</ele><time>2026-05-03T12:45:31.103Z</time></trkpt><trkpt lat="44.701233" lon="10.747909"><ele>38.0</ele><time>2026-05-03T12:45:32.103Z</time></trkpt><trkpt lat="44.7012891" lon="10.7477456"><ele>38.5</ele><time>2026-05-03T12:45:33.103Z</time></trkpt><trkpt lat="44.7013484" lon="10.7475758"><ele>39.0</ele><time>2026-05-03T12:45:34.102Z</time></trkpt><trkpt lat="44.7014057" lon="10.7474084"><ele>39.0</ele><time>2026-05-03T12:45:35.103Z</time></trkpt><trkpt lat="44.701462" lon="10.7472328"><ele>39.0</ele><time>2026-05-03T12:45:36.102Z</time></trkpt><trkpt lat="44.7015208" lon="10.7470587"><ele>39.0</ele><time>2026-05-03T12:45:37.102Z</time></trkpt><trkpt lat="44.7015749" lon="10.7468978"><ele>39.0</ele><time>2026-05-03T12:45:38.103Z</time></trkpt><trkpt lat="44.7016301" lon="10.7467382"><ele>39.0</ele><time>2026-05-03T12:45:39.102Z</time></trkpt><trkpt lat="44.701688" lon="10.7465811"><ele>39.0</ele><time>2026-05-03T12:45:40.102Z</time></trkpt><trkpt lat="44.7017431" lon="10.7464279"><ele>39.0</ele><time>2026-05-03T12:45:41.103Z</time></trkpt><trkpt lat="44.7017948" lon="10.7462837"><ele>39.0</ele><time>2026-05-03T12:45:42.103Z</time></trkpt><trkpt lat="44.7018476" lon="10.7461409"><ele>39.0</ele><time>2026-05-03T12:45:43.102Z</time></trkpt><trkpt lat="44.7019022" lon="10.7459939"><ele>39.0</ele><time>2026-05-03T12:45:44.103Z</time></trkpt><trkpt lat="44.7019549" lon="10.7458456"><ele>39.0</ele><time>2026-05-03T12:45:45.103Z</time></trkpt><trkpt lat="44.7020048" lon="10.7456927"><ele>39.0</ele><time>2026-05-03T12:45:46.102Z</time></trkpt><trkpt lat="44.7020542" lon="10.7455415"><ele>38.8</ele><time>2026-05-03T12:45:47.103Z</time></trkpt><trkpt lat="44.7021026" lon="10.7453985"><ele>38.599999999999994</ele><time>2026-05-03T12:45:48.103Z</time></trkpt><trkpt lat="44.7021499" lon="10.7452593"><ele>38.4</ele><time>2026-05-03T12:45:49.103Z</time></trkpt><trkpt lat="44.7021982" lon="10.745128"><ele>38.199999999999996</ele><time>2026-05-03T12:45:50.103Z</time></trkpt><trkpt lat="44.7022428" lon="10.7449872"><ele>38.0</ele><time>2026-05-03T12:45:51.103Z</time></trkpt><trkpt lat="44.7022926" lon="10.7448433"><ele>38.75</ele><time>2026-05-03T12:45:52.103Z</time></trkpt><trkpt lat="44.7023415" lon="10.7447023"><ele>39.5</ele><time>2026-05-03T12:45:53.102Z</time></trkpt><trkpt lat="44.7023914" lon="10.7445586"><ele>40.25</ele><time>2026-05-03T12:45:54.102Z</time></trkpt><trkpt lat="44.7024435" lon="10.7444006"><ele>41.0</ele><time>2026-05-03T12:45:55.102Z</time></trkpt><trkpt lat="44.7024999" lon="10.7442522"><ele>41.0</ele><time>2026-05-03T12:45:56.102Z</time></trkpt><trkpt lat="44.7025541" lon="10.7441001"><ele>41.0</ele><time>2026-05-03T12:45:57.102Z</time></trkpt><trkpt lat="44.7026071" lon="10.7439447"><ele>41.0</ele><time>2026-05-03T12:45:58.102Z</time></trkpt><trkpt lat="44.7026609" lon="10.7437827"><ele>41.0</ele><time>2026-05-03T12:45:59.102Z</time></trkpt><trkpt lat="44.7027156" lon="10.7436216"><ele>40.25</ele><time>2026-05-03T12:46:00.102Z</time></trkpt><trkpt lat="44.7027694" lon="10.743451"><ele>39.5</ele><time>2026-05-03T12:46:01.102Z</time></trkpt><trkpt lat="44.7028243" lon="10.7432963"><ele>38.75</ele><time>2026-05-03T12:46:02.102Z</time></trkpt><trkpt lat="44.7028741" lon="10.7431513"><ele>38.0</ele><time>2026-05-03T12:46:03.102Z</time></trkpt><trkpt lat="44.7029297" lon="10.7430049"><ele>38.0</ele><time>2026-05-03T12:46:04.103Z</time></trkpt><trkpt lat="44.7029883" lon="10.7428525"><ele>38.0</ele><time>2026-05-03T12:46:05.103Z</time></trkpt><trkpt lat="44.7030416" lon="10.7426911"><ele>38.0</ele><time>2026-05-03T12:46:06.103Z</time></trkpt><trkpt lat="44.7030872" lon="10.7425305"><ele>38.0</ele><time>2026-05-03T12:46:07.102Z</time></trkpt><trkpt lat="44.7031429" lon="10.7423636"><ele>38.25</ele><time>2026-05-03T12:46:08.103Z</time></trkpt><trkpt lat="44.7031988" lon="10.7421926"><ele>38.5</ele><time>2026-05-03T12:46:09.102Z</time></trkpt><trkpt lat="44.7032613" lon="10.7420222"><ele>38.75</ele><time>2026-05-03T12:46:10.102Z</time></trkpt><trkpt lat="44.7033204" lon="10.7418469"><ele>39.0</ele><time>2026-05-03T12:46:11.103Z</time></trkpt><trkpt lat="44.7033821" lon="10.7416803"><ele>39.0</ele><time>2026-05-03T12:46:12.102Z</time></trkpt><trkpt lat="44.7034433" lon="10.7415117"><ele>39.0</ele><time>2026-05-03T12:46:13.103Z</time></trkpt><trkpt lat="44.703506" lon="10.7413387"><ele>39.0</ele><time>2026-05-03T12:46:14.103Z</time></trkpt><trkpt lat="44.703561" lon="10.741171"><ele>39.0</ele><time>2026-05-03T12:46:15.103Z</time></trkpt><trkpt lat="44.7036233" lon="10.7409998"><ele>39.0</ele><time>2026-05-03T12:46:16.102Z</time></trkpt><trkpt lat="44.7036863" lon="10.7408251"><ele>39.0</ele><time>2026-05-03T12:46:17.102Z</time></trkpt><trkpt lat="44.7037395" lon="10.7406566"><ele>39.0</ele><time>2026-05-03T12:46:18.103Z</time></trkpt><trkpt lat="44.7038036" lon="10.7404823"><ele>39.0</ele><time>2026-05-03T12:46:19.103Z</time></trkpt><trkpt lat="44.7038641" lon="10.7403076"><ele>39.0</ele><time>2026-05-03T12:46:20.102Z</time></trkpt><trkpt lat="44.703919" lon="10.7401498"><ele>39.0</ele><time>2026-05-03T12:46:21.103Z</time></trkpt><trkpt lat="44.7039704" lon="10.7399955"><ele>39.0</ele><time>2026-05-03T12:46:22.102Z</time></trkpt><trkpt lat="44.7040209" lon="10.7398454"><ele>39.0</ele><time>2026-05-03T12:46:23.103Z</time></trkpt><trkpt lat="44.7040749" lon="10.7396968"><ele>39.0</ele><time>2026-05-03T12:46:24.102Z</time></trkpt><trkpt lat="44.7041273" lon="10.7395386"><ele>39.0</ele><time>2026-05-03T12:46:25.102Z</time></trkpt><trkpt lat="44.7041833" lon="10.7393722"><ele>39.0</ele><time>2026-05-03T12:46:26.103Z</time></trkpt><trkpt lat="44.7042406" lon="10.7391973"><ele>39.0</ele><time>2026-05-03T12:46:27.103Z</time></trkpt><trkpt lat="44.7043023" lon="10.7390223"><ele>39.0</ele><time>2026-05-03T12:46:28.103Z</time></trkpt><trkpt lat="44.7043644" lon="10.7388434"><ele>39.0</ele><time>2026-05-03T12:46:29.103Z</time></trkpt><trkpt lat="44.7044191" lon="10.7386767"><ele>39.0</ele><time>2026-05-03T12:46:30.102Z</time></trkpt><trkpt lat="44.7044731" lon="10.7385221"><ele>39.0</ele><time>2026-05-03T12:46:31.103Z</time></trkpt><trkpt lat="44.7045145" lon="10.7383738"><ele>39.0</ele><time>2026-05-03T12:46:32.103Z</time></trkpt><trkpt lat="44.7045679" lon="10.7382169"><ele>39.0</ele><time>2026-05-03T12:46:33.103Z</time></trkpt><trkpt lat="44.7046233" lon="10.7380573"><ele>39.0</ele><time>2026-05-03T12:46:34.103Z</time></trkpt><trkpt lat="44.7046818" lon="10.7378979"><ele>39.0</ele><time>2026-05-03T12:46:35.103Z</time></trkpt><trkpt lat="44.7047327" lon="10.737746"><ele>39.25</ele><time>2026-05-03T12:46:36.103Z</time></trkpt><trkpt lat="44.7047855" lon="10.7375991"><ele>39.5</ele><time>2026-05-03T12:46:37.103Z</time></trkpt><trkpt lat="44.7048367" lon="10.7374622"><ele>39.75</ele><time>2026-05-03T12:46:38.102Z</time></trkpt><trkpt lat="44.7048846" lon="10.737316"><ele>40.0</ele><time>2026-05-03T12:46:39.102Z</time></trkpt><trkpt lat="44.7049353" lon="10.7371686"><ele>40.0</ele><time>2026-05-03T12:46:40.103Z</time></trkpt><trkpt lat="44.7049872" lon="10.7370171"><ele>40.0</ele><time>2026-05-03T12:46:41.103Z</time></trkpt><trkpt lat="44.7050397" lon="10.7368666"><ele>40.0</ele><time>2026-05-03T12:46:42.103Z</time></trkpt><trkpt lat="44.7050877" lon="10.7367309"><ele>40.0</ele><time>2026-05-03T12:46:43.102Z</time></trkpt><trkpt lat="44.7051271" lon="10.7366017"><ele>40.0</ele><time>2026-05-03T12:46:44.102Z</time></trkpt><trkpt lat="44.7051738" lon="10.7364736"><ele>40.0</ele><time>2026-05-03T12:46:45.102Z</time></trkpt><trkpt lat="44.7052229" lon="10.7363422"><ele>40.0</ele><time>2026-05-03T12:46:46.102Z</time></trkpt><trkpt lat="44.7052722" lon="10.7362099"><ele>40.0</ele><time>2026-05-03T12:46:47.102Z</time></trkpt><trkpt lat="44.7053214" lon="10.7360737"><ele>40.0</ele><time>2026-05-03T12:46:48.103Z</time></trkpt><trkpt lat="44.7053623" lon="10.7359404"><ele>40.0</ele><time>2026-05-03T12:46:49.103Z</time></trkpt><trkpt lat="44.7054104" lon="10.7357951"><ele>40.0</ele><time>2026-05-03T12:46:50.103Z</time></trkpt><trkpt lat="44.7054556" lon="10.7356709"><ele>40.0</ele><time>2026-05-03T12:46:51.102Z</time></trkpt><trkpt lat="44.7054915" lon="10.7355735"><ele>40.0</ele><time>2026-05-03T12:46:52.102Z</time></trkpt><trkpt lat="44.7055296" lon="10.7354283"><ele>40.0</ele><time>2026-05-03T12:46:54.103Z</time></trkpt><trkpt lat="44.7055384" lon="10.7353343"><ele>40.0</ele><time>2026-05-03T12:46:56.103Z</time></trkpt><trkpt lat="44.7055695" lon="10.7352255"><ele>40.0</ele><time>2026-05-03T12:47:00.102Z</time></trkpt><trkpt lat="44.7056042" lon="10.735113"><ele>40.0</ele><time>2026-05-03T12:47:03.102Z</time></trkpt><trkpt lat="44.7056492" lon="10.7349745"><ele>40.0</ele><time>2026-05-03T12:47:09.103Z</time></trkpt><trkpt lat="44.7056814" lon="10.7348896"><ele>40.0</ele><time>2026-05-03T12:47:10.102Z</time></trkpt><trkpt lat="44.7057166" lon="10.7347869"><ele>40.0</ele><time>2026-05-03T12:47:11.103Z</time></trkpt><trkpt lat="44.7057483" lon="10.7346961"><ele>40.0</ele><time>2026-05-03T12:47:12.102Z</time></trkpt><trkpt lat="44.7057745" lon="10.7346087"><ele>40.0</ele><time>2026-05-03T12:47:13.103Z</time></trkpt><trkpt lat="44.705821" lon="10.7344717"><ele>40.0</ele><time>2026-05-03T12:47:15.103Z</time></trkpt><trkpt lat="44.7058527" lon="10.734381"><ele>40.0</ele><time>2026-05-03T12:47:17.102Z</time></trkpt><trkpt lat="44.7058797" lon="10.7342985"><ele>40.0</ele><time>2026-05-03T12:47:19.103Z</time></trkpt><trkpt lat="44.7059152" lon="10.7342133"><ele>40.0</ele><time>2026-05-03T12:47:21.102Z</time></trkpt><trkpt lat="44.7059574" lon="10.7340997"><ele>40.0</ele><time>2026-05-03T12:47:24.102Z</time></trkpt><trkpt lat="44.705997" lon="10.7339889"><ele>40.0</ele><time>2026-05-03T12:47:27.103Z</time></trkpt><trkpt lat="44.7060394" lon="10.7338792"><ele>40.0</ele><time>2026-05-03T12:47:30.102Z</time></trkpt><trkpt lat="44.7060732" lon="10.7337694"><ele>40.0</ele><time>2026-05-03T12:47:32.103Z</time></trkpt><trkpt lat="44.7061129" lon="10.7336634"><ele>40.0</ele><time>2026-05-03T12:47:34.103Z</time></trkpt><trkpt lat="44.7061495" lon="10.7335703"><ele>40.0</ele><time>2026-05-03T12:47:36.103Z</time></trkpt><trkpt lat="44.7061943" lon="10.7334692"><ele>40.0</ele><time>2026-05-03T12:47:39.102Z</time></trkpt><trkpt lat="44.7062636" lon="10.7333943"><ele>40.0</ele><time>2026-05-03T12:47:42.103Z</time></trkpt><trkpt lat="44.7063333" lon="10.733179"><ele>40.0</ele><time>2026-05-03T12:47:44.102Z</time></trkpt><trkpt lat="44.706375" lon="10.7330458"><ele>40.0</ele><time>2026-05-03T12:47:45.102Z</time></trkpt><trkpt lat="44.7064044" lon="10.7329459"><ele>40.0</ele><time>2026-05-03T12:47:46.103Z</time></trkpt><trkpt lat="44.7064372" lon="10.7328445"><ele>40.0</ele><time>2026-05-03T12:47:47.102Z</time></trkpt><trkpt lat="44.7064719" lon="10.7327366"><ele>40.0</ele><time>2026-05-03T12:47:48.103Z</time></trkpt><trkpt lat="44.7065031" lon="10.7326458"><ele>40.0</ele><time>2026-05-03T12:47:49.102Z</time></trkpt><trkpt lat="44.7065334" lon="10.7325655"><ele>40.0</ele><time>2026-05-03T12:47:50.103Z</time></trkpt><trkpt lat="44.7065708" lon="10.7324404"><ele>40.0</ele><time>2026-05-03T12:47:52.103Z</time></trkpt><trkpt lat="44.7066078" lon="10.7323298"><ele>40.0</ele><time>2026-05-03T12:47:54.103Z</time></trkpt><trkpt lat="44.7066421" lon="10.7322303"><ele>40.0</ele><time>2026-05-03T12:47:56.103Z</time></trkpt><trkpt lat="44.7066756" lon="10.7321413"><ele>40.0</ele><time>2026-05-03T12:47:58.103Z</time></trkpt><trkpt lat="44.7067049" lon="10.7320588"><ele>40.0</ele><time>2026-05-03T12:48:01.103Z</time></trkpt><trkpt lat="44.7067245" lon="10.731961"><ele>40.0</ele><time>2026-05-03T12:48:30.102Z</time></trkpt><trkpt lat="44.7067775" lon="10.7318832"><ele>40.0</ele><time>2026-05-03T12:48:33.103Z</time></trkpt><trkpt lat="44.7068062" lon="10.7318013"><ele>40.0</ele><time>2026-05-03T12:48:40.103Z</time></trkpt><trkpt lat="44.706834" lon="10.7316838"><ele>40.0</ele><time>2026-05-03T12:48:48.103Z</time></trkpt><trkpt lat="44.7068667" lon="10.731594"><ele>40.0</ele><time>2026-05-03T12:48:58.102Z</time></trkpt><trkpt lat="44.7068863" lon="10.7315076"><ele>40.0</ele><time>2026-05-03T12:49:06.103Z</time></trkpt><trkpt lat="44.7068877" lon="10.7314076"><ele>40.0</ele><time>2026-05-03T12:49:12.102Z</time></trkpt><trkpt lat="44.7069471" lon="10.7312681"><ele>40.0</ele><time>2026-05-03T12:49:14.102Z</time></trkpt><trkpt lat="44.7069979" lon="10.7311217"><ele>40.0</ele><time>2026-05-03T12:49:16.103Z</time></trkpt><trkpt lat="44.7070534" lon="10.7309853"><ele>40.0</ele><time>2026-05-03T12:49:18.102Z</time></trkpt><trkpt lat="44.7070968" lon="10.7309102"><ele>40.0</ele><time>2026-05-03T12:49:21.102Z</time></trkpt><trkpt lat="44.7071599" lon="10.7308109"><ele>40.0</ele><time>2026-05-03T12:49:24.103Z</time></trkpt><trkpt lat="44.7071927" lon="10.7307202"><ele>40.0</ele><time>2026-05-03T12:49:25.103Z</time></trkpt><trkpt lat="44.7072241" lon="10.7306096"><ele>40.0</ele><time>2026-05-03T12:49:26.102Z</time></trkpt><trkpt lat="44.7072613" lon="10.7304788"><ele>40.0</ele><time>2026-05-03T12:49:27.102Z</time></trkpt><trkpt lat="44.7073212" lon="10.730309"><ele>40.0</ele><time>2026-05-03T12:49:28.103Z</time></trkpt><trkpt lat="44.7073965" lon="10.7300961"><ele>39.66666666666667</ele><time>2026-05-03T12:49:29.103Z</time></trkpt><trkpt lat="44.7074712" lon="10.7298846"><ele>39.333333333333336</ele><time>2026-05-03T12:49:30.103Z</time></trkpt><trkpt lat="44.7075376" lon="10.7296882"><ele>39.0</ele><time>2026-05-03T12:49:31.103Z</time></trkpt><trkpt lat="44.7075992" lon="10.7295025"><ele>39.0</ele><time>2026-05-03T12:49:32.103Z</time></trkpt><trkpt lat="44.7076614" lon="10.7293231"><ele>39.0</ele><time>2026-05-03T12:49:33.102Z</time></trkpt><trkpt lat="44.7077224" lon="10.729146"><ele>39.0</ele><time>2026-05-03T12:49:34.103Z</time></trkpt><trkpt lat="44.7077819" lon="10.7289653"><ele>39.0</ele><time>2026-05-03T12:49:35.103Z</time></trkpt><trkpt lat="44.7078405" lon="10.7287878"><ele>39.0</ele><time>2026-05-03T12:49:36.103Z</time></trkpt><trkpt lat="44.7079015" lon="10.7286143"><ele>39.0</ele><time>2026-05-03T12:49:37.103Z</time></trkpt><trkpt lat="44.7079596" lon="10.7284421"><ele>39.0</ele><time>2026-05-03T12:49:38.102Z</time></trkpt><trkpt lat="44.7080164" lon="10.7282828"><ele>39.0</ele><time>2026-05-03T12:49:39.102Z</time></trkpt><trkpt lat="44.7080697" lon="10.7281205"><ele>39.0</ele><time>2026-05-03T12:49:40.103Z</time></trkpt><trkpt lat="44.708128" lon="10.727953"><ele>39.0</ele><time>2026-05-03T12:49:41.103Z</time></trkpt><trkpt lat="44.70819" lon="10.7277868"><ele>39.0</ele><time>2026-05-03T12:49:42.103Z</time></trkpt><trkpt lat="44.7082465" lon="10.7276197"><ele>39.0</ele><time>2026-05-03T12:49:43.103Z</time></trkpt><trkpt lat="44.708306" lon="10.727449"><ele>39.25</ele><time>2026-05-03T12:49:44.102Z</time></trkpt><trkpt lat="44.7083634" lon="10.7272827"><ele>39.5</ele><time>2026-05-03T12:49:45.103Z</time></trkpt><trkpt lat="44.7084204" lon="10.7271167"><ele>39.75</ele><time>2026-05-03T12:49:46.103Z</time></trkpt><trkpt lat="44.708476" lon="10.7269532"><ele>40.0</ele><time>2026-05-03T12:49:47.102Z</time></trkpt><trkpt lat="44.7085348" lon="10.7267874"><ele>40.0</ele><time>2026-05-03T12:49:48.102Z</time></trkpt><trkpt lat="44.7085922" lon="10.7266235"><ele>40.0</ele><time>2026-05-03T12:49:49.102Z</time></trkpt><trkpt lat="44.7086451" lon="10.7264656"><ele>40.0</ele><time>2026-05-03T12:49:50.103Z</time></trkpt><trkpt lat="44.7086977" lon="10.726315"><ele>40.0</ele><time>2026-05-03T12:49:51.102Z</time></trkpt><trkpt lat="44.7087505" lon="10.7261651"><ele>40.25</ele><time>2026-05-03T12:49:52.102Z</time></trkpt><trkpt lat="44.7087995" lon="10.7260149"><ele>40.5</ele><time>2026-05-03T12:49:53.102Z</time></trkpt><trkpt lat="44.7088512" lon="10.7258594"><ele>40.75</ele><time>2026-05-03T12:49:54.103Z</time></trkpt><trkpt lat="44.7088976" lon="10.725708"><ele>41.0</ele><time>2026-05-03T12:49:55.102Z</time></trkpt><trkpt lat="44.7089442" lon="10.725561"><ele>41.0</ele><time>2026-05-03T12:49:56.102Z</time></trkpt><trkpt lat="44.7089878" lon="10.7254148"><ele>41.0</ele><time>2026-05-03T12:49:57.102Z</time></trkpt><trkpt lat="44.7090354" lon="10.7252681"><ele>41.0</ele><time>2026-05-03T12:49:58.103Z</time></trkpt><trkpt lat="44.7090794" lon="10.7251151"><ele>41.0</ele><time>2026-05-03T12:49:59.103Z</time></trkpt><trkpt lat="44.7091262" lon="10.7249664"><ele>40.75</ele><time>2026-05-03T12:50:00.102Z</time></trkpt><trkpt lat="44.7091751" lon="10.7248127"><ele>40.5</ele><time>2026-05-03T12:50:01.102Z</time></trkpt><trkpt lat="44.7092248" lon="10.7246584"><ele>40.25</ele><time>2026-05-03T12:50:02.102Z</time></trkpt><trkpt lat="44.709269" lon="10.7245027"><ele>40.0</ele><time>2026-05-03T12:50:03.102Z</time></trkpt><trkpt lat="44.7093146" lon="10.7243547"><ele>40.0</ele><time>2026-05-03T12:50:04.103Z</time></trkpt><trkpt lat="44.7093552" lon="10.72422"><ele>40.0</ele><time>2026-05-03T12:50:05.102Z</time></trkpt><trkpt lat="44.7093967" lon="10.7240764"><ele>40.0</ele><time>2026-05-03T12:50:06.103Z</time></trkpt><trkpt lat="44.7094398" lon="10.7239305"><ele>40.0</ele><time>2026-05-03T12:50:07.102Z</time></trkpt><trkpt lat="44.709477" lon="10.7237962"><ele>40.0</ele><time>2026-05-03T12:50:08.103Z</time></trkpt><trkpt lat="44.7095162" lon="10.7236613"><ele>40.2</ele><time>2026-05-03T12:50:09.103Z</time></trkpt><trkpt lat="44.7095558" lon="10.7235203"><ele>40.4</ele><time>2026-05-03T12:50:10.103Z</time></trkpt><trkpt lat="44.709591" lon="10.7233836"><ele>40.599999999999994</ele><time>2026-05-03T12:50:11.102Z</time></trkpt><trkpt lat="44.7096206" lon="10.7232511"><ele>40.8</ele><time>2026-05-03T12:50:12.102Z</time></trkpt><trkpt lat="44.7096599" lon="10.7231089"><ele>41.0</ele><time>2026-05-03T12:50:13.102Z</time></trkpt><trkpt lat="44.7096978" lon="10.7229638"><ele>41.0</ele><time>2026-05-03T12:50:14.102Z</time></trkpt><trkpt lat="44.7097409" lon="10.7228079"><ele>41.0</ele><time>2026-05-03T12:50:15.103Z</time></trkpt><trkpt lat="44.7097843" lon="10.7226575"><ele>41.0</ele><time>2026-05-03T12:50:16.103Z</time></trkpt><trkpt lat="44.709824" lon="10.7225146"><ele>41.0</ele><time>2026-05-03T12:50:17.102Z</time></trkpt><trkpt lat="44.7098646" lon="10.7223687"><ele>41.0</ele><time>2026-05-03T12:50:18.102Z</time></trkpt><trkpt lat="44.7099022" lon="10.7222246"><ele>41.0</ele><time>2026-05-03T12:50:19.102Z</time></trkpt><trkpt lat="44.7099419" lon="10.7220871"><ele>41.0</ele><time>2026-05-03T12:50:20.102Z</time></trkpt><trkpt lat="44.709979" lon="10.7219398"><ele>41.0</ele><time>2026-05-03T12:50:21.103Z</time></trkpt><trkpt lat="44.7100155" lon="10.7217972"><ele>41.0</ele><time>2026-05-03T12:50:22.103Z</time></trkpt><trkpt lat="44.7100538" lon="10.7216527"><ele>40.599999999999994</ele><time>2026-05-03T12:50:23.102Z</time></trkpt><trkpt lat="44.7100868" lon="10.7215075"><ele>40.199999999999996</ele><time>2026-05-03T12:50:24.103Z</time></trkpt><trkpt lat="44.7101259" lon="10.7213626"><ele>39.8</ele><time>2026-05-03T12:50:25.102Z</time></trkpt><trkpt lat="44.7101601" lon="10.7212111"><ele>39.4</ele><time>2026-05-03T12:50:26.102Z</time></trkpt><trkpt lat="44.7101924" lon="10.7210541"><ele>39.0</ele><time>2026-05-03T12:50:27.103Z</time></trkpt><trkpt lat="44.7102271" lon="10.7209049"><ele>38.5</ele><time>2026-05-03T12:50:28.102Z</time></trkpt><trkpt lat="44.7102625" lon="10.720743"><ele>38.0</ele><time>2026-05-03T12:50:29.103Z</time></trkpt><trkpt lat="44.7103051" lon="10.7205782"><ele>37.5</ele><time>2026-05-03T12:50:30.103Z</time></trkpt><trkpt lat="44.7103522" lon="10.7204013"><ele>37.0</ele><time>2026-05-03T12:50:31.103Z</time></trkpt><trkpt lat="44.7103946" lon="10.7202274"><ele>37.0</ele><time>2026-05-03T12:50:32.103Z</time></trkpt><trkpt lat="44.7104325" lon="10.7200571"><ele>37.0</ele><time>2026-05-03T12:50:33.103Z</time></trkpt><trkpt lat="44.7104702" lon="10.7198809"><ele>37.0</ele><time>2026-05-03T12:50:34.103Z</time></trkpt><trkpt lat="44.7105065" lon="10.719712"><ele>37.0</ele><time>2026-05-03T12:50:35.102Z</time></trkpt><trkpt lat="44.7105447" lon="10.7195424"><ele>37.25</ele><time>2026-05-03T12:50:36.103Z</time></trkpt><trkpt lat="44.7105835" lon="10.7193684"><ele>37.5</ele><time>2026-05-03T12:50:37.102Z</time></trkpt><trkpt lat="44.7106191" lon="10.7191979"><ele>37.75</ele><time>2026-05-03T12:50:38.102Z</time></trkpt><trkpt lat="44.7106528" lon="10.7190288"><ele>38.0</ele><time>2026-05-03T12:50:39.103Z</time></trkpt><trkpt lat="44.7106841" lon="10.7188593"><ele>38.0</ele><time>2026-05-03T12:50:40.103Z</time></trkpt><trkpt lat="44.7107176" lon="10.7186909"><ele>38.0</ele><time>2026-05-03T12:50:41.102Z</time></trkpt><trkpt lat="44.7107517" lon="10.7185264"><ele>38.0</ele><time>2026-05-03T12:50:42.103Z</time></trkpt><trkpt lat="44.7107833" lon="10.7183669"><ele>38.0</ele><time>2026-05-03T12:50:43.103Z</time></trkpt><trkpt lat="44.7108183" lon="10.7182089"><ele>38.0</ele><time>2026-05-03T12:50:44.103Z</time></trkpt><trkpt lat="44.71085" lon="10.7180554"><ele>38.0</ele><time>2026-05-03T12:50:45.102Z</time></trkpt><trkpt lat="44.7108841" lon="10.7179027"><ele>38.0</ele><time>2026-05-03T12:50:46.103Z</time></trkpt><trkpt lat="44.7109116" lon="10.717756"><ele>38.0</ele><time>2026-05-03T12:50:47.103Z</time></trkpt><trkpt lat="44.7109414" lon="10.7176051"><ele>38.0</ele><time>2026-05-03T12:50:48.103Z</time></trkpt><trkpt lat="44.7109721" lon="10.7174511"><ele>38.0</ele><time>2026-05-03T12:50:49.102Z</time></trkpt><trkpt lat="44.7109994" lon="10.7172997"><ele>38.0</ele><time>2026-05-03T12:50:50.103Z</time></trkpt><trkpt lat="44.7110284" lon="10.7171526"><ele>38.0</ele><time>2026-05-03T12:50:51.103Z</time></trkpt><trkpt lat="44.7110598" lon="10.7170003"><ele>38.0</ele><time>2026-05-03T12:50:52.102Z</time></trkpt><trkpt lat="44.7110912" lon="10.7168483"><ele>38.0</ele><time>2026-05-03T12:50:53.103Z</time></trkpt><trkpt lat="44.711116" lon="10.7167059"><ele>38.199999999999996</ele><time>2026-05-03T12:50:54.103Z</time></trkpt><trkpt lat="44.7111417" lon="10.7165714"><ele>38.4</ele><time>2026-05-03T12:50:55.103Z</time></trkpt><trkpt lat="44.7111668" lon="10.7164368"><ele>38.599999999999994</ele><time>2026-05-03T12:50:56.103Z</time></trkpt><trkpt lat="44.7111898" lon="10.7162974"><ele>38.8</ele><time>2026-05-03T12:50:57.102Z</time></trkpt><trkpt lat="44.7112201" lon="10.7161645"><ele>39.0</ele><time>2026-05-03T12:50:58.102Z</time></trkpt><trkpt lat="44.7112416" lon="10.7160266"><ele>39.0</ele><time>2026-05-03T12:50:59.103Z</time></trkpt><trkpt lat="44.711273" lon="10.7158859"><ele>39.0</ele><time>2026-05-03T12:51:00.103Z</time></trkpt><trkpt lat="44.7113008" lon="10.7157506"><ele>39.0</ele><time>2026-05-03T12:51:01.103Z</time></trkpt><trkpt lat="44.711325" lon="10.7156245"><ele>39.0</ele><time>2026-05-03T12:51:02.102Z</time></trkpt><trkpt lat="44.7113504" lon="10.7155031"><ele>39.0</ele><time>2026-05-03T12:51:03.102Z</time></trkpt><trkpt lat="44.7113676" lon="10.7154009"><ele>39.0</ele><time>2026-05-03T12:51:04.103Z</time></trkpt><trkpt lat="44.7113876" lon="10.7153151"><ele>39.0</ele><time>2026-05-03T12:51:05.103Z</time></trkpt><trkpt lat="44.7114192" lon="10.7151665"><ele>39.0</ele><time>2026-05-03T12:51:07.102Z</time></trkpt><trkpt lat="44.7114501" lon="10.7150169"><ele>39.0</ele><time>2026-05-03T12:51:09.103Z</time></trkpt><trkpt lat="44.7114672" lon="10.7149279"><ele>39.0</ele><time>2026-05-03T12:51:10.103Z</time></trkpt><trkpt lat="44.7114848" lon="10.7148347"><ele>39.0</ele><time>2026-05-03T12:51:11.102Z</time></trkpt><trkpt lat="44.7115042" lon="10.7147345"><ele>39.0</ele><time>2026-05-03T12:51:12.103Z</time></trkpt><trkpt lat="44.7115279" lon="10.714624"><ele>39.0</ele><time>2026-05-03T12:51:13.103Z</time></trkpt><trkpt lat="44.7115506" lon="10.7145006"><ele>39.0</ele><time>2026-05-03T12:51:14.103Z</time></trkpt><trkpt lat="44.7115754" lon="10.7143698"><ele>39.0</ele><time>2026-05-03T12:51:15.102Z</time></trkpt><trkpt lat="44.7116059" lon="10.7142337"><ele>39.0</ele><time>2026-05-03T12:51:16.103Z</time></trkpt><trkpt lat="44.7116348" lon="10.7141094"><ele>39.166666666666664</ele><time>2026-05-03T12:51:17.102Z</time></trkpt><trkpt lat="44.7116581" lon="10.7139874"><ele>39.333333333333336</ele><time>2026-05-03T12:51:18.102Z</time></trkpt><trkpt lat="44.7116829" lon="10.7138688"><ele>39.5</ele><time>2026-05-03T12:51:19.103Z</time></trkpt><trkpt lat="44.7117032" lon="10.7137495"><ele>39.66666666666667</ele><time>2026-05-03T12:51:20.103Z</time></trkpt><trkpt lat="44.7117281" lon="10.7136426"><ele>39.833333333333336</ele><time>2026-05-03T12:51:21.103Z</time></trkpt><trkpt lat="44.7117469" lon="10.7135352"><ele>40.0</ele><time>2026-05-03T12:51:22.102Z</time></trkpt><trkpt lat="44.7117723" lon="10.7134312"><ele>40.0</ele><time>2026-05-03T12:51:23.103Z</time></trkpt><trkpt lat="44.7117965" lon="10.7133274"><ele>40.0</ele><time>2026-05-03T12:51:24.103Z</time></trkpt><trkpt lat="44.7118132" lon="10.7132283"><ele>40.0</ele><time>2026-05-03T12:51:25.103Z</time></trkpt><trkpt lat="44.7118355" lon="10.7131306"><ele>40.0</ele><time>2026-05-03T12:51:26.103Z</time></trkpt><trkpt lat="44.7118552" lon="10.713033"><ele>40.0</ele><time>2026-05-03T12:51:27.102Z</time></trkpt><trkpt lat="44.7118785" lon="10.7129388"><ele>40.0</ele><time>2026-05-03T12:51:28.102Z</time></trkpt><trkpt lat="44.7118986" lon="10.7128438"><ele>40.0</ele><time>2026-05-03T12:51:29.102Z</time></trkpt><trkpt lat="44.7119166" lon="10.7127151"><ele>39.833333333333336</ele><time>2026-05-03T12:51:31.102Z</time></trkpt><trkpt lat="44.7119462" lon="10.7126146"><ele>39.66666666666667</ele><time>2026-05-03T12:51:33.102Z</time></trkpt><trkpt lat="44.7119789" lon="10.7125054"><ele>39.5</ele><time>2026-05-03T12:51:35.102Z</time></trkpt><trkpt lat="44.7120002" lon="10.7123811"><ele>39.333333333333336</ele><time>2026-05-03T12:51:37.102Z</time></trkpt><trkpt lat="44.7120364" lon="10.7122162"><ele>39.166666666666664</ele><time>2026-05-03T12:51:39.103Z</time></trkpt><trkpt lat="44.7120545" lon="10.7121268"><ele>39.0</ele><time>2026-05-03T12:51:40.103Z</time></trkpt><trkpt lat="44.7120729" lon="10.7120343"><ele>39.0</ele><time>2026-05-03T12:51:41.102Z</time></trkpt><trkpt lat="44.7120924" lon="10.7119379"><ele>39.0</ele><time>2026-05-03T12:51:42.102Z</time></trkpt><trkpt lat="44.7121175" lon="10.71183"><ele>39.0</ele><time>2026-05-03T12:51:43.103Z</time></trkpt><trkpt lat="44.7121381" lon="10.7117296"><ele>39.0</ele><time>2026-05-03T12:51:44.102Z</time></trkpt><trkpt lat="44.7121602" lon="10.7116284"><ele>39.0</ele><time>2026-05-03T12:51:45.102Z</time></trkpt><trkpt lat="44.7121847" lon="10.7115282"><ele>39.0</ele><time>2026-05-03T12:51:46.103Z</time></trkpt><trkpt lat="44.7122033" lon="10.7114327"><ele>39.0</ele><time>2026-05-03T12:51:47.103Z</time></trkpt><trkpt lat="44.7122214" lon="10.7113455"><ele>39.333333333333336</ele><time>2026-05-03T12:51:48.102Z</time></trkpt><trkpt lat="44.712238" lon="10.7112596"><ele>39.666666666666664</ele><time>2026-05-03T12:51:49.102Z</time></trkpt><trkpt lat="44.7122669" lon="10.7111087"><ele>40.0</ele><time>2026-05-03T12:51:51.103Z</time></trkpt><trkpt lat="44.712292" lon="10.7109606"><ele>40.33333333333333</ele><time>2026-05-03T12:51:53.103Z</time></trkpt><trkpt lat="44.712309" lon="10.7108737"><ele>40.666666666666664</ele><time>2026-05-03T12:51:54.103Z</time></trkpt><trkpt lat="44.7123235" lon="10.7107874"><ele>41.0</ele><time>2026-05-03T12:51:55.103Z</time></trkpt><trkpt lat="44.7123403" lon="10.7106923"><ele>41.0</ele><time>2026-05-03T12:51:56.102Z</time></trkpt><trkpt lat="44.7123609" lon="10.7105844"><ele>41.0</ele><time>2026-05-03T12:51:57.103Z</time></trkpt><trkpt lat="44.7123785" lon="10.7104685"><ele>41.0</ele><time>2026-05-03T12:51:58.103Z</time></trkpt><trkpt lat="44.7124002" lon="10.7103519"><ele>41.0</ele><time>2026-05-03T12:51:59.103Z</time></trkpt><trkpt lat="44.7124205" lon="10.7102405"><ele>41.0</ele><time>2026-05-03T12:52:00.103Z</time></trkpt><trkpt lat="44.7124429" lon="10.7101292"><ele>41.0</ele><time>2026-05-03T12:52:01.102Z</time></trkpt><trkpt lat="44.7124657" lon="10.7100231"><ele>40.666666666666664</ele><time>2026-05-03T12:52:02.103Z</time></trkpt><trkpt lat="44.7124912" lon="10.7099132"><ele>40.33333333333333</ele><time>2026-05-03T12:52:03.103Z</time></trkpt><trkpt lat="44.7125161" lon="10.7098023"><ele>40.0</ele><time>2026-05-03T12:52:04.103Z</time></trkpt><trkpt lat="44.7125336" lon="10.7097007"><ele>39.666666666666664</ele><time>2026-05-03T12:52:05.103Z</time></trkpt><trkpt lat="44.7125503" lon="10.7096112"><ele>39.333333333333336</ele><time>2026-05-03T12:52:06.103Z</time></trkpt><trkpt lat="44.7125659" lon="10.7095227"><ele>39.0</ele><time>2026-05-03T12:52:07.103Z</time></trkpt><trkpt lat="44.7125998" lon="10.7093675"><ele>39.0</ele><time>2026-05-03T12:52:09.103Z</time></trkpt><trkpt lat="44.7126257" lon="10.7092779"><ele>39.0</ele><time>2026-05-03T12:52:10.102Z</time></trkpt><trkpt lat="44.7126454" lon="10.7091876"><ele>39.0</ele><time>2026-05-03T12:52:11.102Z</time></trkpt><trkpt lat="44.7126645" lon="10.7090928"><ele>39.0</ele><time>2026-05-03T12:52:12.102Z</time></trkpt><trkpt lat="44.7126855" lon="10.7090034"><ele>39.0</ele><time>2026-05-03T12:52:13.103Z</time></trkpt><trkpt lat="44.7127176" lon="10.7088577"><ele>39.0</ele><time>2026-05-03T12:52:15.103Z</time></trkpt><trkpt lat="44.7127428" lon="10.7087405"><ele>39.0</ele><time>2026-05-03T12:52:17.102Z</time></trkpt><trkpt lat="44.712768" lon="10.7085896"><ele>39.0</ele><time>2026-05-03T12:52:19.103Z</time></trkpt><trkpt lat="44.7127862" lon="10.7084939"><ele>39.0</ele><time>2026-05-03T12:52:20.102Z</time></trkpt><trkpt lat="44.7128059" lon="10.7083938"><ele>39.0</ele><time>2026-05-03T12:52:21.103Z</time></trkpt><trkpt lat="44.7128242" lon="10.7082904"><ele>39.0</ele><time>2026-05-03T12:52:22.102Z</time></trkpt><trkpt lat="44.7128444" lon="10.7081882"><ele>39.0</ele><time>2026-05-03T12:52:23.102Z</time></trkpt><trkpt lat="44.7128717" lon="10.7080897"><ele>38.833333333333336</ele><time>2026-05-03T12:52:24.103Z</time></trkpt><trkpt lat="44.7128914" lon="10.7079997"><ele>38.666666666666664</ele><time>2026-05-03T12:52:25.103Z</time></trkpt><trkpt lat="44.7129099" lon="10.7079105"><ele>38.5</ele><time>2026-05-03T12:52:26.103Z</time></trkpt><trkpt lat="44.7129377" lon="10.707733"><ele>38.33333333333333</ele><time>2026-05-03T12:52:28.102Z</time></trkpt><trkpt lat="44.7129614" lon="10.7076342"><ele>38.166666666666664</ele><time>2026-05-03T12:52:29.103Z</time></trkpt><trkpt lat="44.7129809" lon="10.7075368"><ele>38.0</ele><time>2026-05-03T12:52:30.103Z</time></trkpt><trkpt lat="44.7129976" lon="10.70744"><ele>38.0</ele><time>2026-05-03T12:52:31.102Z</time></trkpt><trkpt lat="44.7130169" lon="10.7073394"><ele>38.0</ele><time>2026-05-03T12:52:32.102Z</time></trkpt><trkpt lat="44.7130351" lon="10.7072414"><ele>38.0</ele><time>2026-05-03T12:52:33.103Z</time></trkpt><trkpt lat="44.7130529" lon="10.7071516"><ele>38.0</ele><time>2026-05-03T12:52:34.103Z</time></trkpt><trkpt lat="44.7130883" lon="10.7069789"><ele>38.0</ele><time>2026-05-03T12:52:36.102Z</time></trkpt><trkpt lat="44.7131098" lon="10.7068912"><ele>38.0</ele><time>2026-05-03T12:52:37.103Z</time></trkpt><trkpt lat="44.7131314" lon="10.7068038"><ele>38.0</ele><time>2026-05-03T12:52:38.103Z</time></trkpt><trkpt lat="44.7131584" lon="10.7066639"><ele>38.0</ele><time>2026-05-03T12:52:40.102Z</time></trkpt><trkpt lat="44.7131834" lon="10.7065265"><ele>38.0</ele><time>2026-05-03T12:52:42.103Z</time></trkpt><trkpt lat="44.7132106" lon="10.7063969"><ele>38.0</ele><time>2026-05-03T12:52:44.103Z</time></trkpt><trkpt lat="44.7132396" lon="10.7062878"><ele>38.0</ele><time>2026-05-03T12:52:47.103Z</time></trkpt><trkpt lat="44.7132619" lon="10.7061977"><ele>38.0</ele><time>2026-05-03T12:52:50.102Z</time></trkpt><trkpt lat="44.713288" lon="10.7060815"><ele>38.0</ele><time>2026-05-03T12:52:53.103Z</time></trkpt><trkpt lat="44.7133088" lon="10.7059553"><ele>38.0</ele><time>2026-05-03T12:52:55.102Z</time></trkpt><trkpt lat="44.713329" lon="10.7058611"><ele>38.0</ele><time>2026-05-03T12:52:56.103Z</time></trkpt><trkpt lat="44.7133448" lon="10.7057749"><ele>38.0</ele><time>2026-05-03T12:52:57.103Z</time></trkpt><trkpt lat="44.7133672" lon="10.7056572"><ele>38.0</ele><time>2026-05-03T12:52:59.102Z</time></trkpt><trkpt lat="44.7133932" lon="10.7055508"><ele>38.0</ele><time>2026-05-03T12:53:02.103Z</time></trkpt><trkpt lat="44.7133957" lon="10.7054472"><ele>38.0</ele><time>2026-05-03T12:53:21.102Z</time></trkpt><trkpt lat="44.7133963" lon="10.7053285"><ele>38.0</ele><time>2026-05-03T12:53:24.102Z</time></trkpt><trkpt lat="44.71342" lon="10.7052102"><ele>38.0</ele><time>2026-05-03T12:53:26.103Z</time></trkpt><trkpt lat="44.7134395" lon="10.7051054"><ele>38.0</ele><time>2026-05-03T12:53:28.103Z</time></trkpt><trkpt lat="44.7134591" lon="10.705016"><ele>38.0</ele><time>2026-05-03T12:53:30.103Z</time></trkpt><trkpt lat="44.7134768" lon="10.7049295"><ele>38.0</ele><time>2026-05-03T12:53:32.102Z</time></trkpt><trkpt lat="44.7134933" lon="10.7048407"><ele>38.0</ele><time>2026-05-03T12:53:34.102Z</time></trkpt><trkpt lat="44.7135225" lon="10.7047172"><ele>38.0</ele><time>2026-05-03T12:53:37.102Z</time></trkpt><trkpt lat="44.7135386" lon="10.7046033"><ele>38.0</ele><time>2026-05-03T12:53:40.102Z</time></trkpt><trkpt lat="44.7135537" lon="10.7045074"><ele>38.0</ele><time>2026-05-03T12:53:45.102Z</time></trkpt><trkpt lat="44.7136046" lon="10.7044321"><ele>38.0</ele><time>2026-05-03T12:53:49.103Z</time></trkpt><trkpt lat="44.7136378" lon="10.7043263"><ele>38.0</ele><time>2026-05-03T12:53:52.102Z</time></trkpt><trkpt lat="44.7136591" lon="10.7042302"><ele>38.0</ele><time>2026-05-03T12:53:53.103Z</time></trkpt><trkpt lat="44.7136822" lon="10.7041345"><ele>38.0</ele><time>2026-05-03T12:53:54.102Z</time></trkpt><trkpt lat="44.7137075" lon="10.704041"><ele>38.0</ele><time>2026-05-03T12:53:55.103Z</time></trkpt><trkpt lat="44.7137264" lon="10.7039474"><ele>38.0</ele><time>2026-05-03T12:53:56.102Z</time></trkpt><trkpt lat="44.7137442" lon="10.7038502"><ele>38.0</ele><time>2026-05-03T12:53:57.103Z</time></trkpt><trkpt lat="44.7137635" lon="10.7037549"><ele>38.0</ele><time>2026-05-03T12:53:58.102Z</time></trkpt><trkpt lat="44.7137863" lon="10.7036489"><ele>38.0</ele><time>2026-05-03T12:53:59.103Z</time></trkpt><trkpt lat="44.7137979" lon="10.7035552"><ele>38.0</ele><time>2026-05-03T12:54:00.103Z</time></trkpt><trkpt lat="44.7138226" lon="10.7034538"><ele>38.0</ele><time>2026-05-03T12:54:01.102Z</time></trkpt><trkpt lat="44.7138407" lon="10.7033488"><ele>38.0</ele><time>2026-05-03T12:54:02.103Z</time></trkpt><trkpt lat="44.7138572" lon="10.703251"><ele>38.0</ele><time>2026-05-03T12:54:03.102Z</time></trkpt><trkpt lat="44.7138807" lon="10.7031549"><ele>38.0</ele><time>2026-05-03T12:54:04.103Z</time></trkpt><trkpt lat="44.713898" lon="10.7030677"><ele>38.0</ele><time>2026-05-03T12:54:05.103Z</time></trkpt><trkpt lat="44.7139185" lon="10.702978"><ele>38.0</ele><time>2026-05-03T12:54:06.103Z</time></trkpt><trkpt lat="44.713959" lon="10.7028238"><ele>38.0</ele><time>2026-05-03T12:54:08.102Z</time></trkpt><trkpt lat="44.7139759" lon="10.7026648"><ele>38.0</ele><time>2026-05-03T12:54:10.102Z</time></trkpt><trkpt lat="44.7140004" lon="10.702571"><ele>38.0</ele><time>2026-05-03T12:54:11.102Z</time></trkpt><trkpt lat="44.7140239" lon="10.7024138"><ele>38.0</ele><time>2026-05-03T12:54:13.103Z</time></trkpt><trkpt lat="44.714052" lon="10.702262"><ele>38.4</ele><time>2026-05-03T12:54:15.102Z</time></trkpt><trkpt lat="44.7140901" lon="10.7020962"><ele>38.8</ele><time>2026-05-03T12:54:17.103Z</time></trkpt><trkpt lat="44.714114" lon="10.7020133"><ele>39.2</ele><time>2026-05-03T12:54:18.102Z</time></trkpt><trkpt lat="44.7141435" lon="10.701849"><ele>39.6</ele><time>2026-05-03T12:54:20.102Z</time></trkpt><trkpt lat="44.7141825" lon="10.7016941"><ele>40.0</ele><time>2026-05-03T12:54:22.102Z</time></trkpt><trkpt lat="44.7142152" lon="10.7015521"><ele>40.2</ele><time>2026-05-03T12:54:24.103Z</time></trkpt><trkpt lat="44.7142475" lon="10.7014307"><ele>40.4</ele><time>2026-05-03T12:54:26.102Z</time></trkpt><trkpt lat="44.7142733" lon="10.7012901"><ele>40.599999999999994</ele><time>2026-05-03T12:54:28.102Z</time></trkpt><trkpt lat="44.714302" lon="10.7011389"><ele>40.8</ele><time>2026-05-03T12:54:30.103Z</time></trkpt><trkpt lat="44.7143299" lon="10.7009981"><ele>41.0</ele><time>2026-05-03T12:54:32.102Z</time></trkpt><trkpt lat="44.7143563" lon="10.7008729"><ele>41.0</ele><time>2026-05-03T12:54:34.103Z</time></trkpt><trkpt lat="44.7143837" lon="10.7007332"><ele>41.0</ele><time>2026-05-03T12:54:36.103Z</time></trkpt><trkpt lat="44.7144093" lon="10.7006178"><ele>41.0</ele><time>2026-05-03T12:54:38.102Z</time></trkpt><trkpt lat="44.7144264" lon="10.7005227"><ele>41.0</ele><time>2026-05-03T12:54:40.103Z</time></trkpt><trkpt lat="44.7144555" lon="10.7004236"><ele>41.0</ele><time>2026-05-03T12:54:42.102Z</time></trkpt><trkpt lat="44.7144749" lon="10.7003099"><ele>41.0</ele><time>2026-05-03T12:54:44.102Z</time></trkpt><trkpt lat="44.7145019" lon="10.7001977"><ele>40.666666666666664</ele><time>2026-05-03T12:54:46.102Z</time></trkpt><trkpt lat="44.7145338" lon="10.7000562"><ele>40.33333333333333</ele><time>2026-05-03T12:54:48.102Z</time></trkpt><trkpt lat="44.7145527" lon="10.6999678"><ele>40.0</ele><time>2026-05-03T12:54:49.102Z</time></trkpt><trkpt lat="44.7145726" lon="10.6998741"><ele>39.666666666666664</ele><time>2026-05-03T12:54:50.103Z</time></trkpt><trkpt lat="44.7145901" lon="10.6997788"><ele>39.333333333333336</ele><time>2026-05-03T12:54:51.102Z</time></trkpt><trkpt lat="44.7146112" lon="10.6996878"><ele>39.0</ele><time>2026-05-03T12:54:52.102Z</time></trkpt><trkpt lat="44.7146473" lon="10.6995344"><ele>38.8</ele><time>2026-05-03T12:54:54.102Z</time></trkpt><trkpt lat="44.7146733" lon="10.6994012"><ele>38.599999999999994</ele><time>2026-05-03T12:54:56.103Z</time></trkpt><trkpt lat="44.7146983" lon="10.6992561"><ele>38.4</ele><time>2026-05-03T12:54:58.103Z</time></trkpt><trkpt lat="44.7147224" lon="10.6991135"><ele>38.199999999999996</ele><time>2026-05-03T12:55:00.103Z</time></trkpt><trkpt lat="44.7147541" lon="10.6989813"><ele>38.0</ele><time>2026-05-03T12:55:02.103Z</time></trkpt><trkpt lat="44.7147797" lon="10.6988404"><ele>38.0</ele><time>2026-05-03T12:55:04.102Z</time></trkpt><trkpt lat="44.7148001" lon="10.6986909"><ele>38.0</ele><time>2026-05-03T12:55:06.103Z</time></trkpt><trkpt lat="44.7148353" lon="10.6985313"><ele>38.0</ele><time>2026-05-03T12:55:08.103Z</time></trkpt><trkpt lat="44.7148556" lon="10.6984438"><ele>38.0</ele><time>2026-05-03T12:55:09.102Z</time></trkpt><trkpt lat="44.7148783" lon="10.6983456"><ele>38.0</ele><time>2026-05-03T12:55:10.103Z</time></trkpt><trkpt lat="44.7148991" lon="10.6982474"><ele>38.0</ele><time>2026-05-03T12:55:11.102Z</time></trkpt><trkpt lat="44.7149113" lon="10.6981562"><ele>37.8</ele><time>2026-05-03T12:55:12.102Z</time></trkpt><trkpt lat="44.714932" lon="10.698065"><ele>37.599999999999994</ele><time>2026-05-03T12:55:13.102Z</time></trkpt><trkpt lat="44.7149541" lon="10.6979798"><ele>37.400000000000006</ele><time>2026-05-03T12:55:14.103Z</time></trkpt><trkpt lat="44.7149856" lon="10.6978198"><ele>37.2</ele><time>2026-05-03T12:55:16.102Z</time></trkpt><trkpt lat="44.7150173" lon="10.6976661"><ele>37.0</ele><time>2026-05-03T12:55:18.102Z</time></trkpt><trkpt lat="44.7150498" lon="10.6975256"><ele>37.0</ele><time>2026-05-03T12:55:20.103Z</time></trkpt><trkpt lat="44.7150737" lon="10.697388"><ele>37.0</ele><time>2026-05-03T12:55:22.103Z</time></trkpt><trkpt lat="44.7150969" lon="10.6972492"><ele>37.0</ele><time>2026-05-03T12:55:24.103Z</time></trkpt><trkpt lat="44.7151271" lon="10.6970974"><ele>37.0</ele><time>2026-05-03T12:55:26.103Z</time></trkpt><trkpt lat="44.7151629" lon="10.6969503"><ele>37.0</ele><time>2026-05-03T12:55:28.102Z</time></trkpt><trkpt lat="44.7151905" lon="10.6968004"><ele>37.2</ele><time>2026-05-03T12:55:30.103Z</time></trkpt><trkpt lat="44.7152244" lon="10.6966542"><ele>37.400000000000006</ele><time>2026-05-03T12:55:32.102Z</time></trkpt><trkpt lat="44.7152495" lon="10.6965159"><ele>37.599999999999994</ele><time>2026-05-03T12:55:34.102Z</time></trkpt><trkpt lat="44.7152817" lon="10.696385"><ele>37.8</ele><time>2026-05-03T12:55:36.103Z</time></trkpt><trkpt lat="44.7153029" lon="10.6962721"><ele>38.0</ele><time>2026-05-03T12:55:38.102Z</time></trkpt><trkpt lat="44.7153183" lon="10.6961663"><ele>38.33333333333333</ele><time>2026-05-03T12:55:40.102Z</time></trkpt><trkpt lat="44.7153317" lon="10.6960651"><ele>38.666666666666664</ele><time>2026-05-03T12:55:42.102Z</time></trkpt><trkpt lat="44.7153581" lon="10.6959489"><ele>39.0</ele><time>2026-05-03T12:55:44.103Z</time></trkpt><trkpt lat="44.7153896" lon="10.6958211"><ele>39.333333333333336</ele><time>2026-05-03T12:55:46.102Z</time></trkpt><trkpt lat="44.7154187" lon="10.6956967"><ele>39.66666666666667</ele><time>2026-05-03T12:55:48.102Z</time></trkpt><trkpt lat="44.7154434" lon="10.6955605"><ele>40.0</ele><time>2026-05-03T12:55:50.102Z</time></trkpt><trkpt lat="44.715472" lon="10.6954173"><ele>40.0</ele><time>2026-05-03T12:55:52.103Z</time></trkpt><trkpt lat="44.7154905" lon="10.6953322"><ele>40.0</ele><time>2026-05-03T12:55:53.103Z</time></trkpt><trkpt lat="44.7155259" lon="10.695178"><ele>40.0</ele><time>2026-05-03T12:55:55.103Z</time></trkpt><trkpt lat="44.7155589" lon="10.6950095"><ele>40.0</ele><time>2026-05-03T12:55:57.103Z</time></trkpt><trkpt lat="44.715581" lon="10.6949169"><ele>40.0</ele><time>2026-05-03T12:55:58.103Z</time></trkpt><trkpt lat="44.7155991" lon="10.69483"><ele>40.0</ele><time>2026-05-03T12:55:59.103Z</time></trkpt><trkpt lat="44.7156326" lon="10.6946671"><ele>40.0</ele><time>2026-05-03T12:56:01.102Z</time></trkpt><trkpt lat="44.7156605" lon="10.6944966"><ele>40.0</ele><time>2026-05-03T12:56:03.102Z</time></trkpt><trkpt lat="44.7156796" lon="10.6944045"><ele>40.0</ele><time>2026-05-03T12:56:04.102Z</time></trkpt><trkpt lat="44.7157023" lon="10.6943079"><ele>40.0</ele><time>2026-05-03T12:56:05.102Z</time></trkpt><trkpt lat="44.7157185" lon="10.6942193"><ele>40.0</ele><time>2026-05-03T12:56:06.103Z</time></trkpt><trkpt lat="44.7157369" lon="10.6941168"><ele>40.0</ele><time>2026-05-03T12:56:07.102Z</time></trkpt><trkpt lat="44.715763" lon="10.6940088"><ele>40.0</ele><time>2026-05-03T12:56:08.102Z</time></trkpt><trkpt lat="44.7157917" lon="10.6938911"><ele>40.0</ele><time>2026-05-03T12:56:09.103Z</time></trkpt><trkpt lat="44.7158158" lon="10.6937586"><ele>40.0</ele><time>2026-05-03T12:56:10.103Z</time></trkpt><trkpt lat="44.715841" lon="10.6936176"><ele>40.0</ele><time>2026-05-03T12:56:11.102Z</time></trkpt><trkpt lat="44.7158678" lon="10.6934812"><ele>40.0</ele><time>2026-05-03T12:56:12.103Z</time></trkpt><trkpt lat="44.7158934" lon="10.693341"><ele>40.0</ele><time>2026-05-03T12:56:13.103Z</time></trkpt><trkpt lat="44.7159168" lon="10.693209"><ele>40.0</ele><time>2026-05-03T12:56:14.102Z</time></trkpt><trkpt lat="44.7159396" lon="10.6930781"><ele>40.0</ele><time>2026-05-03T12:56:15.103Z</time></trkpt><trkpt lat="44.7159691" lon="10.69295"><ele>40.0</ele><time>2026-05-03T12:56:16.102Z</time></trkpt><trkpt lat="44.7159958" lon="10.692822"><ele>40.0</ele><time>2026-05-03T12:56:17.103Z</time></trkpt><trkpt lat="44.7160186" lon="10.6926966"><ele>39.5</ele><time>2026-05-03T12:56:18.102Z</time></trkpt><trkpt lat="44.7160419" lon="10.6925648"><ele>39.0</ele><time>2026-05-03T12:56:19.102Z</time></trkpt><trkpt lat="44.7160685" lon="10.6924142"><ele>38.5</ele><time>2026-05-03T12:56:20.102Z</time></trkpt><trkpt lat="44.7160967" lon="10.6922529"><ele>38.0</ele><time>2026-05-03T12:56:21.103Z</time></trkpt><trkpt lat="44.716125" lon="10.6920735"><ele>37.75</ele><time>2026-05-03T12:56:22.103Z</time></trkpt><trkpt lat="44.7161613" lon="10.6918833"><ele>37.5</ele><time>2026-05-03T12:56:23.102Z</time></trkpt><trkpt lat="44.7162001" lon="10.6916753"><ele>37.25</ele><time>2026-05-03T12:56:24.102Z</time></trkpt><trkpt lat="44.7162364" lon="10.6914638"><ele>37.0</ele><time>2026-05-03T12:56:25.102Z</time></trkpt><trkpt lat="44.7162744" lon="10.6912493"><ele>37.0</ele><time>2026-05-03T12:56:26.102Z</time></trkpt><trkpt lat="44.7163158" lon="10.6910364"><ele>37.0</ele><time>2026-05-03T12:56:27.103Z</time></trkpt><trkpt lat="44.7163603" lon="10.6908092"><ele>37.0</ele><time>2026-05-03T12:56:28.103Z</time></trkpt><trkpt lat="44.7164085" lon="10.6905682"><ele>37.0</ele><time>2026-05-03T12:56:29.102Z</time></trkpt><trkpt lat="44.7164573" lon="10.6903192"><ele>37.0</ele><time>2026-05-03T12:56:30.102Z</time></trkpt><trkpt lat="44.7165055" lon="10.6900645"><ele>37.0</ele><time>2026-05-03T12:56:31.102Z</time></trkpt><trkpt lat="44.7165524" lon="10.6898063"><ele>37.333333333333336</ele><time>2026-05-03T12:56:32.103Z</time></trkpt><trkpt lat="44.7165988" lon="10.6895482"><ele>37.666666666666664</ele><time>2026-05-03T12:56:33.103Z</time></trkpt><trkpt lat="44.7166501" lon="10.68929"><ele>38.0</ele><time>2026-05-03T12:56:34.103Z</time></trkpt><trkpt lat="44.7167065" lon="10.6890387"><ele>38.33333333333333</ele><time>2026-05-03T12:56:35.102Z</time></trkpt><trkpt lat="44.7167573" lon="10.6887991"><ele>38.666666666666664</ele><time>2026-05-03T12:56:36.103Z</time></trkpt><trkpt lat="44.7168093" lon="10.6885559"><ele>39.0</ele><time>2026-05-03T12:56:37.102Z</time></trkpt><trkpt lat="44.7168609" lon="10.6883179"><ele>38.333333333333336</ele><time>2026-05-03T12:56:38.103Z</time></trkpt><trkpt lat="44.7169122" lon="10.6880786"><ele>37.66666666666667</ele><time>2026-05-03T12:56:39.102Z</time></trkpt><trkpt lat="44.7169631" lon="10.6878391"><ele>37.0</ele><time>2026-05-03T12:56:40.103Z</time></trkpt><trkpt lat="44.7170126" lon="10.6875976"><ele>37.0</ele><time>2026-05-03T12:56:41.103Z</time></trkpt><trkpt lat="44.7170658" lon="10.6873601"><ele>37.0</ele><time>2026-05-03T12:56:42.102Z</time></trkpt><trkpt lat="44.7171176" lon="10.6871231"><ele>37.0</ele><time>2026-05-03T12:56:43.103Z</time></trkpt><trkpt lat="44.7171699" lon="10.6868861"><ele>37.0</ele><time>2026-05-03T12:56:44.103Z</time></trkpt><trkpt lat="44.7172237" lon="10.6866487"><ele>37.0</ele><time>2026-05-03T12:56:45.102Z</time></trkpt><trkpt lat="44.7172732" lon="10.6864034"><ele>37.0</ele><time>2026-05-03T12:56:46.102Z</time></trkpt><trkpt lat="44.7173211" lon="10.686156"><ele>36.66666666666667</ele><time>2026-05-03T12:56:47.103Z</time></trkpt><trkpt lat="44.7173689" lon="10.6858964"><ele>36.333333333333336</ele><time>2026-05-03T12:56:48.103Z</time></trkpt><trkpt lat="44.7174213" lon="10.6856258"><ele>36.0</ele><time>2026-05-03T12:56:49.102Z</time></trkpt><trkpt lat="44.7174715" lon="10.6853512"><ele>37.0</ele><time>2026-05-03T12:56:50.103Z</time></trkpt><trkpt lat="44.7175224" lon="10.6850805"><ele>38.0</ele><time>2026-05-03T12:56:51.103Z</time></trkpt><trkpt lat="44.7175727" lon="10.6848233"><ele>39.0</ele><time>2026-05-03T12:56:52.103Z</time></trkpt><trkpt lat="44.7176253" lon="10.6845674"><ele>39.0</ele><time>2026-05-03T12:56:53.103Z</time></trkpt><trkpt lat="44.7176735" lon="10.6843122"><ele>39.0</ele><time>2026-05-03T12:56:54.102Z</time></trkpt><trkpt lat="44.7177235" lon="10.684061"><ele>39.0</ele><time>2026-05-03T12:56:55.102Z</time></trkpt><trkpt lat="44.7177746" lon="10.6838068"><ele>38.666666666666664</ele><time>2026-05-03T12:56:56.103Z</time></trkpt><trkpt lat="44.7178278" lon="10.6835483"><ele>38.33333333333333</ele><time>2026-05-03T12:56:57.103Z</time></trkpt><trkpt lat="44.7178845" lon="10.6832834"><ele>38.0</ele><time>2026-05-03T12:56:58.103Z</time></trkpt><trkpt lat="44.7179447" lon="10.6830078"><ele>37.666666666666664</ele><time>2026-05-03T12:56:59.103Z</time></trkpt><trkpt lat="44.7180072" lon="10.682722"><ele>37.333333333333336</ele><time>2026-05-03T12:57:00.103Z</time></trkpt><trkpt lat="44.7180698" lon="10.6824303"><ele>37.0</ele><time>2026-05-03T12:57:01.102Z</time></trkpt><trkpt lat="44.7181265" lon="10.6821264"><ele>37.333333333333336</ele><time>2026-05-03T12:57:02.103Z</time></trkpt><trkpt lat="44.7181836" lon="10.6818287"><ele>37.666666666666664</ele><time>2026-05-03T12:57:03.102Z</time></trkpt><trkpt lat="44.7182479" lon="10.6815207"><ele>38.0</ele><time>2026-05-03T12:57:04.103Z</time></trkpt><trkpt lat="44.7183099" lon="10.6812098"><ele>39.0</ele><time>2026-05-03T12:57:05.103Z</time></trkpt><trkpt lat="44.7183704" lon="10.6809074"><ele>40.0</ele><time>2026-05-03T12:57:06.102Z</time></trkpt><trkpt lat="44.7184347" lon="10.6806044"><ele>41.0</ele><time>2026-05-03T12:57:07.102Z</time></trkpt><trkpt lat="44.7184958" lon="10.6803"><ele>40.33333333333333</ele><time>2026-05-03T12:57:08.102Z</time></trkpt><trkpt lat="44.71856" lon="10.6799974"><ele>39.666666666666664</ele><time>2026-05-03T12:57:09.102Z</time></trkpt><trkpt lat="44.7186245" lon="10.679699"><ele>39.0</ele><time>2026-05-03T12:57:10.102Z</time></trkpt><trkpt lat="44.7186874" lon="10.6794032"><ele>39.0</ele><time>2026-05-03T12:57:11.102Z</time></trkpt><trkpt lat="44.7187528" lon="10.6791103"><ele>39.0</ele><time>2026-05-03T12:57:12.102Z</time></trkpt><trkpt lat="44.7188142" lon="10.6788191"><ele>39.0</ele><time>2026-05-03T12:57:13.103Z</time></trkpt><trkpt lat="44.7188759" lon="10.678524"><ele>39.0</ele><time>2026-05-03T12:57:14.103Z</time></trkpt><trkpt lat="44.7189347" lon="10.6782304"><ele>39.0</ele><time>2026-05-03T12:57:15.102Z</time></trkpt><trkpt lat="44.7189967" lon="10.6779366"><ele>39.0</ele><time>2026-05-03T12:57:16.103Z</time></trkpt><trkpt lat="44.7190595" lon="10.6776393"><ele>39.0</ele><time>2026-05-03T12:57:17.103Z</time></trkpt><trkpt lat="44.7191163" lon="10.6773465"><ele>39.0</ele><time>2026-05-03T12:57:18.102Z</time></trkpt><trkpt lat="44.7191733" lon="10.6770552"><ele>39.0</ele><time>2026-05-03T12:57:19.103Z</time></trkpt><trkpt lat="44.7192243" lon="10.6767679"><ele>39.333333333333336</ele><time>2026-05-03T12:57:20.102Z</time></trkpt><trkpt lat="44.7192814" lon="10.6764783"><ele>39.66666666666667</ele><time>2026-05-03T12:57:21.103Z</time></trkpt><trkpt lat="44.7193414" lon="10.6761844"><ele>40.0</ele><time>2026-05-03T12:57:22.103Z</time></trkpt><trkpt lat="44.7194097" lon="10.6758804"><ele>38.5</ele><time>2026-05-03T12:57:23.103Z</time></trkpt><trkpt lat="44.7194754" lon="10.6755744"><ele>37.0</ele><time>2026-05-03T12:57:24.102Z</time></trkpt><trkpt lat="44.7195485" lon="10.6752571"><ele>37.0</ele><time>2026-05-03T12:57:25.102Z</time></trkpt><trkpt lat="44.7196215" lon="10.6749366"><ele>37.0</ele><time>2026-05-03T12:57:26.102Z</time></trkpt><trkpt lat="44.7196941" lon="10.6746019"><ele>38.0</ele><time>2026-05-03T12:57:27.103Z</time></trkpt><trkpt lat="44.7197685" lon="10.6742571"><ele>39.0</ele><time>2026-05-03T12:57:28.103Z</time></trkpt><trkpt lat="44.7198428" lon="10.6739005"><ele>38.5</ele><time>2026-05-03T12:57:29.103Z</time></trkpt><trkpt lat="44.7199163" lon="10.6735475"><ele>38.0</ele><time>2026-05-03T12:57:30.102Z</time></trkpt><trkpt lat="44.7199933" lon="10.6731971"><ele>38.0</ele><time>2026-05-03T12:57:31.102Z</time></trkpt><trkpt lat="44.720065" lon="10.6728486"><ele>38.0</ele><time>2026-05-03T12:57:32.103Z</time></trkpt><trkpt lat="44.7201346" lon="10.6724912"><ele>37.0</ele><time>2026-05-03T12:57:33.103Z</time></trkpt><trkpt lat="44.7202057" lon="10.6721339"><ele>36.0</ele><time>2026-05-03T12:57:34.103Z</time></trkpt><trkpt lat="44.7202758" lon="10.6717741"><ele>36.0</ele><time>2026-05-03T12:57:35.102Z</time></trkpt><trkpt lat="44.7203555" lon="10.6714042"><ele>36.0</ele><time>2026-05-03T12:57:36.102Z</time></trkpt><trkpt lat="44.7204242" lon="10.6710434"><ele>36.0</ele><time>2026-05-03T12:57:37.102Z</time></trkpt><trkpt lat="44.7204964" lon="10.6706824"><ele>36.0</ele><time>2026-05-03T12:57:38.103Z</time></trkpt><trkpt lat="44.7205708" lon="10.6703188"><ele>35.0</ele><time>2026-05-03T12:57:39.103Z</time></trkpt><trkpt lat="44.7206427" lon="10.6699633"><ele>34.0</ele><time>2026-05-03T12:57:40.103Z</time></trkpt><trkpt lat="44.7207238" lon="10.6696033"><ele>35.0</ele><time>2026-05-03T12:57:41.102Z</time></trkpt><trkpt lat="44.7207909" lon="10.6692602"><ele>36.0</ele><time>2026-05-03T12:57:42.102Z</time></trkpt><trkpt lat="44.7208653" lon="10.6689045"><ele>36.0</ele><time>2026-05-03T12:57:43.102Z</time></trkpt><trkpt lat="44.7209381" lon="10.6685483"><ele>36.0</ele><time>2026-05-03T12:57:44.102Z</time></trkpt><trkpt lat="44.7210136" lon="10.668193"><ele>35.0</ele><time>2026-05-03T12:57:45.103Z</time></trkpt><trkpt lat="44.7210865" lon="10.667833"><ele>34.0</ele><time>2026-05-03T12:57:46.103Z</time></trkpt><trkpt lat="44.7211683" lon="10.6674509"><ele>34.0</ele><time>2026-05-03T12:57:47.102Z</time></trkpt><trkpt lat="44.721249" lon="10.6670686"><ele>34.0</ele><time>2026-05-03T12:57:48.102Z</time></trkpt><trkpt lat="44.721326" lon="10.666682"><ele>34.5</ele><time>2026-05-03T12:57:49.102Z</time></trkpt><trkpt lat="44.7214038" lon="10.6663002"><ele>35.0</ele><time>2026-05-03T12:57:50.102Z</time></trkpt><trkpt lat="44.7214789" lon="10.6659139"><ele>35.0</ele><time>2026-05-03T12:57:51.102Z</time></trkpt><trkpt lat="44.721554" lon="10.6655278"><ele>35.0</ele><time>2026-05-03T12:57:52.103Z</time></trkpt><trkpt lat="44.7216294" lon="10.6651484"><ele>35.0</ele><time>2026-05-03T12:57:53.102Z</time></trkpt><trkpt lat="44.7217059" lon="10.6647671"><ele>35.0</ele><time>2026-05-03T12:57:54.102Z</time></trkpt><trkpt lat="44.7217822" lon="10.6643948"><ele>35.0</ele><time>2026-05-03T12:57:55.103Z</time></trkpt><trkpt lat="44.7218655" lon="10.6640129"><ele>35.0</ele><time>2026-05-03T12:57:56.102Z</time></trkpt><trkpt lat="44.7219475" lon="10.6636299"><ele>35.0</ele><time>2026-05-03T12:57:57.102Z</time></trkpt><trkpt lat="44.722023" lon="10.6632483"><ele>35.0</ele><time>2026-05-03T12:57:58.103Z</time></trkpt><trkpt lat="44.7220976" lon="10.6628644"><ele>35.0</ele><time>2026-05-03T12:57:59.103Z</time></trkpt><trkpt lat="44.7221703" lon="10.6624862"><ele>35.0</ele><time>2026-05-03T12:58:00.103Z</time></trkpt><trkpt lat="44.7222433" lon="10.6621078"><ele>36.0</ele><time>2026-05-03T12:58:01.103Z</time></trkpt><trkpt lat="44.7223193" lon="10.661724"><ele>37.0</ele><time>2026-05-03T12:58:02.102Z</time></trkpt><trkpt lat="44.7223954" lon="10.6613469"><ele>38.0</ele><time>2026-05-03T12:58:03.102Z</time></trkpt><trkpt lat="44.7224664" lon="10.6609731"><ele>39.0</ele><time>2026-05-03T12:58:04.102Z</time></trkpt><trkpt lat="44.7225408" lon="10.6605968"><ele>38.5</ele><time>2026-05-03T12:58:05.102Z</time></trkpt><trkpt lat="44.7226139" lon="10.6602282"><ele>38.0</ele><time>2026-05-03T12:58:06.103Z</time></trkpt><trkpt lat="44.7226851" lon="10.6598617"><ele>38.0</ele><time>2026-05-03T12:58:07.103Z</time></trkpt><trkpt lat="44.7227575" lon="10.6594967"><ele>38.0</ele><time>2026-05-03T12:58:08.103Z</time></trkpt><trkpt lat="44.7228309" lon="10.6591252"><ele>37.5</ele><time>2026-05-03T12:58:09.102Z</time></trkpt><trkpt lat="44.7229077" lon="10.6587707"><ele>37.0</ele><time>2026-05-03T12:58:10.102Z</time></trkpt><trkpt lat="44.7229812" lon="10.6584186"><ele>37.0</ele><time>2026-05-03T12:58:11.103Z</time></trkpt><trkpt lat="44.7230549" lon="10.6580712"><ele>37.0</ele><time>2026-05-03T12:58:12.102Z</time></trkpt><trkpt lat="44.723129" lon="10.6577232"><ele>37.0</ele><time>2026-05-03T12:58:13.102Z</time></trkpt><trkpt lat="44.7232025" lon="10.6573673"><ele>37.0</ele><time>2026-05-03T12:58:14.103Z</time></trkpt><trkpt lat="44.7232784" lon="10.6570135"><ele>37.0</ele><time>2026-05-03T12:58:15.102Z</time></trkpt><trkpt lat="44.7233474" lon="10.6566649"><ele>37.0</ele><time>2026-05-03T12:58:16.103Z</time></trkpt><trkpt lat="44.7234181" lon="10.6563157"><ele>37.0</ele><time>2026-05-03T12:58:17.103Z</time></trkpt><trkpt lat="44.7234952" lon="10.655981"><ele>37.0</ele><time>2026-05-03T12:58:18.102Z</time></trkpt><trkpt lat="44.7235676" lon="10.6556557"><ele>37.0</ele><time>2026-05-03T12:58:19.103Z</time></trkpt><trkpt lat="44.7236385" lon="10.6553393"><ele>37.0</ele><time>2026-05-03T12:58:20.102Z</time></trkpt><trkpt lat="44.7237035" lon="10.6550204"><ele>35.5</ele><time>2026-05-03T12:58:21.103Z</time></trkpt><trkpt lat="44.7237713" lon="10.6546965"><ele>34.0</ele><time>2026-05-03T12:58:22.103Z</time></trkpt><trkpt lat="44.7238326" lon="10.6543815"><ele>34.0</ele><time>2026-05-03T12:58:23.102Z</time></trkpt><trkpt lat="44.7239017" lon="10.6540578"><ele>34.0</ele><time>2026-05-03T12:58:24.103Z</time></trkpt><trkpt lat="44.7239636" lon="10.6537426"><ele>34.5</ele><time>2026-05-03T12:58:25.102Z</time></trkpt><trkpt lat="44.7240292" lon="10.6534197"><ele>35.0</ele><time>2026-05-03T12:58:26.102Z</time></trkpt><trkpt lat="44.7240882" lon="10.6531169"><ele>35.0</ele><time>2026-05-03T12:58:27.103Z</time></trkpt><trkpt lat="44.7241503" lon="10.6528097"><ele>35.0</ele><time>2026-05-03T12:58:28.102Z</time></trkpt><trkpt lat="44.724212" lon="10.6525013"><ele>35.0</ele><time>2026-05-03T12:58:29.103Z</time></trkpt><trkpt lat="44.7242684" lon="10.6521936"><ele>35.0</ele><time>2026-05-03T12:58:30.103Z</time></trkpt><trkpt lat="44.7243315" lon="10.6518828"><ele>35.5</ele><time>2026-05-03T12:58:31.103Z</time></trkpt><trkpt lat="44.7243917" lon="10.6515694"><ele>36.0</ele><time>2026-05-03T12:58:32.103Z</time></trkpt><trkpt lat="44.7244551" lon="10.6512538"><ele>35.5</ele><time>2026-05-03T12:58:33.102Z</time></trkpt><trkpt lat="44.7245175" lon="10.6509341"><ele>35.0</ele><time>2026-05-03T12:58:34.103Z</time></trkpt><trkpt lat="44.724583" lon="10.6506141"><ele>36.0</ele><time>2026-05-03T12:58:35.103Z</time></trkpt><trkpt lat="44.7246484" lon="10.6502876"><ele>37.0</ele><time>2026-05-03T12:58:36.103Z</time></trkpt><trkpt lat="44.7247111" lon="10.6499618"><ele>37.0</ele><time>2026-05-03T12:58:37.103Z</time></trkpt><trkpt lat="44.724779" lon="10.6496241"><ele>37.0</ele><time>2026-05-03T12:58:38.103Z</time></trkpt><trkpt lat="44.7248432" lon="10.649287"><ele>36.5</ele><time>2026-05-03T12:58:39.103Z</time></trkpt><trkpt lat="44.7249143" lon="10.6489422"><ele>36.0</ele><time>2026-05-03T12:58:40.103Z</time></trkpt><trkpt lat="44.7249929" lon="10.6485853"><ele>37.5</ele><time>2026-05-03T12:58:41.102Z</time></trkpt><trkpt lat="44.7250672" lon="10.6482341"><ele>39.0</ele><time>2026-05-03T12:58:42.103Z</time></trkpt><trkpt lat="44.7251423" lon="10.647898"><ele>39.5</ele><time>2026-05-03T12:58:43.103Z</time></trkpt><trkpt lat="44.7252126" lon="10.6475799"><ele>40.0</ele><time>2026-05-03T12:58:44.103Z</time></trkpt><trkpt lat="44.7252815" lon="10.647269"><ele>40.66666666666667</ele><time>2026-05-03T12:58:45.103Z</time></trkpt><trkpt lat="44.7253478" lon="10.6469731"><ele>41.333333333333336</ele><time>2026-05-03T12:58:46.102Z</time></trkpt><trkpt lat="44.7254104" lon="10.6466806"><ele>42.0</ele><time>2026-05-03T12:58:47.102Z</time></trkpt><trkpt lat="44.7254664" lon="10.6463935"><ele>41.0</ele><time>2026-05-03T12:58:48.103Z</time></trkpt><trkpt lat="44.725525" lon="10.6461099"><ele>40.0</ele><time>2026-05-03T12:58:49.103Z</time></trkpt><trkpt lat="44.7255818" lon="10.6458296"><ele>39.0</ele><time>2026-05-03T12:58:50.103Z</time></trkpt><trkpt lat="44.7256386" lon="10.6455607"><ele>39.0</ele><time>2026-05-03T12:58:51.102Z</time></trkpt><trkpt lat="44.7256934" lon="10.6453033"><ele>39.0</ele><time>2026-05-03T12:58:52.103Z</time></trkpt><trkpt lat="44.7257404" lon="10.6450655"><ele>39.0</ele><time>2026-05-03T12:58:53.103Z</time></trkpt><trkpt lat="44.7257907" lon="10.6448273"><ele>38.333333333333336</ele><time>2026-05-03T12:58:54.102Z</time></trkpt><trkpt lat="44.7258362" lon="10.6446001"><ele>37.66666666666667</ele><time>2026-05-03T12:58:55.103Z</time></trkpt><trkpt lat="44.7258852" lon="10.6443737"><ele>37.0</ele><time>2026-05-03T12:58:56.103Z</time></trkpt><trkpt lat="44.7259299" lon="10.6441468"><ele>36.66666666666667</ele><time>2026-05-03T12:58:57.103Z</time></trkpt><trkpt lat="44.7259751" lon="10.6439072"><ele>36.333333333333336</ele><time>2026-05-03T12:58:58.103Z</time></trkpt><trkpt lat="44.7260298" lon="10.6436448"><ele>36.0</ele><time>2026-05-03T12:58:59.102Z</time></trkpt><trkpt lat="44.7260842" lon="10.6433571"><ele>36.0</ele><time>2026-05-03T12:59:00.102Z</time></trkpt><trkpt lat="44.7261438" lon="10.6430563"><ele>36.0</ele><time>2026-05-03T12:59:01.103Z</time></trkpt><trkpt lat="44.7262056" lon="10.6427465"><ele>36.0</ele><time>2026-05-03T12:59:02.103Z</time></trkpt><trkpt lat="44.7262606" lon="10.6424359"><ele>36.0</ele><time>2026-05-03T12:59:03.102Z</time></trkpt><trkpt lat="44.7263175" lon="10.6421293"><ele>35.666666666666664</ele><time>2026-05-03T12:59:04.102Z</time></trkpt><trkpt lat="44.726379" lon="10.6418266"><ele>35.33333333333333</ele><time>2026-05-03T12:59:05.102Z</time></trkpt><trkpt lat="44.7264387" lon="10.641525"><ele>35.0</ele><time>2026-05-03T12:59:06.103Z</time></trkpt><trkpt lat="44.7264992" lon="10.6412203"><ele>35.33333333333333</ele><time>2026-05-03T12:59:07.102Z</time></trkpt><trkpt lat="44.7265592" lon="10.6409211"><ele>35.666666666666664</ele><time>2026-05-03T12:59:08.102Z</time></trkpt><trkpt lat="44.7266191" lon="10.640627"><ele>36.0</ele><time>2026-05-03T12:59:09.102Z</time></trkpt><trkpt lat="44.726678" lon="10.6403356"><ele>36.333333333333336</ele><time>2026-05-03T12:59:10.103Z</time></trkpt><trkpt lat="44.7267311" lon="10.6400513"><ele>36.66666666666667</ele><time>2026-05-03T12:59:11.103Z</time></trkpt><trkpt lat="44.7267933" lon="10.6397542"><ele>37.0</ele><time>2026-05-03T12:59:12.103Z</time></trkpt><trkpt lat="44.7268557" lon="10.6394565"><ele>36.66666666666667</ele><time>2026-05-03T12:59:13.102Z</time></trkpt><trkpt lat="44.726918" lon="10.6391605"><ele>36.333333333333336</ele><time>2026-05-03T12:59:14.102Z</time></trkpt><trkpt lat="44.7269803" lon="10.638852"><ele>36.0</ele><time>2026-05-03T12:59:15.102Z</time></trkpt><trkpt lat="44.7270449" lon="10.6385325"><ele>36.0</ele><time>2026-05-03T12:59:16.102Z</time></trkpt><trkpt lat="44.7271099" lon="10.6382074"><ele>36.0</ele><time>2026-05-03T12:59:17.103Z</time></trkpt><trkpt lat="44.7271721" lon="10.6378893"><ele>36.5</ele><time>2026-05-03T12:59:18.103Z</time></trkpt><trkpt lat="44.7272374" lon="10.6375692"><ele>37.0</ele><time>2026-05-03T12:59:19.102Z</time></trkpt><trkpt lat="44.7273048" lon="10.6372525"><ele>37.5</ele><time>2026-05-03T12:59:20.102Z</time></trkpt><trkpt lat="44.7273704" lon="10.6369289"><ele>38.0</ele><time>2026-05-03T12:59:21.102Z</time></trkpt><trkpt lat="44.7274376" lon="10.6366102"><ele>38.0</ele><time>2026-05-03T12:59:22.103Z</time></trkpt><trkpt lat="44.727502" lon="10.6362892"><ele>38.0</ele><time>2026-05-03T12:59:23.103Z</time></trkpt><trkpt lat="44.7275689" lon="10.6359578"><ele>37.0</ele><time>2026-05-03T12:59:24.102Z</time></trkpt><trkpt lat="44.7276366" lon="10.6356271"><ele>36.0</ele><time>2026-05-03T12:59:25.103Z</time></trkpt><trkpt lat="44.727706" lon="10.635301"><ele>35.5</ele><time>2026-05-03T12:59:26.102Z</time></trkpt><trkpt lat="44.7277776" lon="10.6349702"><ele>35.0</ele><time>2026-05-03T12:59:27.103Z</time></trkpt><trkpt lat="44.727851" lon="10.6346421"><ele>35.0</ele><time>2026-05-03T12:59:28.102Z</time></trkpt><trkpt lat="44.7279272" lon="10.6343109"><ele>35.0</ele><time>2026-05-03T12:59:29.103Z</time></trkpt><trkpt lat="44.7280043" lon="10.6339798"><ele>35.0</ele><time>2026-05-03T12:59:30.102Z</time></trkpt><trkpt lat="44.7280821" lon="10.6336555"><ele>35.0</ele><time>2026-05-03T12:59:31.102Z</time></trkpt><trkpt lat="44.72816" lon="10.6333286"><ele>35.5</ele><time>2026-05-03T12:59:32.102Z</time></trkpt><trkpt lat="44.7282398" lon="10.6329995"><ele>36.0</ele><time>2026-05-03T12:59:33.102Z</time></trkpt><trkpt lat="44.7283233" lon="10.6326654"><ele>36.5</ele><time>2026-05-03T12:59:34.103Z</time></trkpt><trkpt lat="44.7284053" lon="10.6323241"><ele>37.0</ele><time>2026-05-03T12:59:35.103Z</time></trkpt><trkpt lat="44.7284859" lon="10.6319879"><ele>36.5</ele><time>2026-05-03T12:59:36.102Z</time></trkpt><trkpt lat="44.7285686" lon="10.6316433"><ele>36.0</ele><time>2026-05-03T12:59:37.102Z</time></trkpt><trkpt lat="44.7286517" lon="10.6312974"><ele>36.0</ele><time>2026-05-03T12:59:38.103Z</time></trkpt><trkpt lat="44.7287353" lon="10.6309474"><ele>36.0</ele><time>2026-05-03T12:59:39.103Z</time></trkpt><trkpt lat="44.7288207" lon="10.6305903"><ele>36.5</ele><time>2026-05-03T12:59:40.103Z</time></trkpt><trkpt lat="44.7289033" lon="10.6302459"><ele>37.0</ele><time>2026-05-03T12:59:41.102Z</time></trkpt><trkpt lat="44.7289899" lon="10.6298867"><ele>37.0</ele><time>2026-05-03T12:59:42.103Z</time></trkpt><trkpt lat="44.7290746" lon="10.6295348"><ele>37.0</ele><time>2026-05-03T12:59:43.102Z</time></trkpt><trkpt lat="44.7291613" lon="10.6291718"><ele>38.0</ele><time>2026-05-03T12:59:44.102Z</time></trkpt><trkpt lat="44.7292491" lon="10.6288055"><ele>39.0</ele><time>2026-05-03T12:59:45.102Z</time></trkpt><trkpt lat="44.7293343" lon="10.6284315"><ele>39.0</ele><time>2026-05-03T12:59:46.102Z</time></trkpt><trkpt lat="44.7294185" lon="10.6280612"><ele>39.0</ele><time>2026-05-03T12:59:47.103Z</time></trkpt><trkpt lat="44.7294951" lon="10.6277087"><ele>39.0</ele><time>2026-05-03T12:59:48.102Z</time></trkpt><trkpt lat="44.7295722" lon="10.6273704"><ele>39.0</ele><time>2026-05-03T12:59:49.102Z</time></trkpt><trkpt lat="44.7296455" lon="10.6270403"><ele>39.5</ele><time>2026-05-03T12:59:50.103Z</time></trkpt><trkpt lat="44.7297224" lon="10.6266964"><ele>40.0</ele><time>2026-05-03T12:59:51.103Z</time></trkpt><trkpt lat="44.7297983" lon="10.6263466"><ele>41.0</ele><time>2026-05-03T12:59:52.103Z</time></trkpt><trkpt lat="44.7298762" lon="10.6259867"><ele>42.0</ele><time>2026-05-03T12:59:53.102Z</time></trkpt><trkpt lat="44.7299607" lon="10.625611"><ele>42.0</ele><time>2026-05-03T12:59:54.103Z</time></trkpt><trkpt lat="44.73005" lon="10.6252131"><ele>42.0</ele><time>2026-05-03T12:59:55.102Z</time></trkpt><trkpt lat="44.730139" lon="10.624809"><ele>41.5</ele><time>2026-05-03T12:59:56.102Z</time></trkpt><trkpt lat="44.7302419" lon="10.6243764"><ele>41.0</ele><time>2026-05-03T12:59:57.103Z</time></trkpt><trkpt lat="44.730345" lon="10.6239477"><ele>43.5</ele><time>2026-05-03T12:59:58.103Z</time></trkpt><trkpt lat="44.7304447" lon="10.623526"><ele>46.0</ele><time>2026-05-03T12:59:59.102Z</time></trkpt><trkpt lat="44.7305489" lon="10.6231117"><ele>45.0</ele><time>2026-05-03T13:00:00.103Z</time></trkpt><trkpt lat="44.7306464" lon="10.6227061"><ele>44.0</ele><time>2026-05-03T13:00:01.103Z</time></trkpt><trkpt lat="44.7307418" lon="10.6223057"><ele>44.0</ele><time>2026-05-03T13:00:02.102Z</time></trkpt><trkpt lat="44.7308369" lon="10.6219149"><ele>44.0</ele><time>2026-05-03T13:00:03.102Z</time></trkpt><trkpt lat="44.730929" lon="10.6215367"><ele>44.0</ele><time>2026-05-03T13:00:04.103Z</time></trkpt><trkpt lat="44.7310181" lon="10.6211649"><ele>44.0</ele><time>2026-05-03T13:00:05.102Z</time></trkpt><trkpt lat="44.7311039" lon="10.6208036"><ele>44.0</ele><time>2026-05-03T13:00:06.103Z</time></trkpt><trkpt lat="44.7311931" lon="10.6204398"><ele>44.0</ele><time>2026-05-03T13:00:07.102Z</time></trkpt><trkpt lat="44.7312835" lon="10.6200843"><ele>42.5</ele><time>2026-05-03T13:00:08.102Z</time></trkpt><trkpt lat="44.7313749" lon="10.619731"><ele>41.0</ele><time>2026-05-03T13:00:09.102Z</time></trkpt><trkpt lat="44.7314657" lon="10.619378"><ele>40.0</ele><time>2026-05-03T13:00:10.102Z</time></trkpt><trkpt lat="44.7315543" lon="10.6190284"><ele>39.0</ele><time>2026-05-03T13:00:11.102Z</time></trkpt><trkpt lat="44.7316361" lon="10.6186838"><ele>39.5</ele><time>2026-05-03T13:00:12.103Z</time></trkpt><trkpt lat="44.7317176" lon="10.6183376"><ele>40.0</ele><time>2026-05-03T13:00:13.103Z</time></trkpt><trkpt lat="44.7318037" lon="10.6179808"><ele>41.0</ele><time>2026-05-03T13:00:14.102Z</time></trkpt><trkpt lat="44.7318907" lon="10.6176239"><ele>42.0</ele><time>2026-05-03T13:00:15.102Z</time></trkpt><trkpt lat="44.7319783" lon="10.6172632"><ele>43.0</ele><time>2026-05-03T13:00:16.103Z</time></trkpt><trkpt lat="44.7320659" lon="10.6168994"><ele>44.0</ele><time>2026-05-03T13:00:17.103Z</time></trkpt><trkpt lat="44.7321554" lon="10.6165348"><ele>44.0</ele><time>2026-05-03T13:00:18.102Z</time></trkpt><trkpt lat="44.7322471" lon="10.6161586"><ele>44.0</ele><time>2026-05-03T13:00:19.103Z</time></trkpt><trkpt lat="44.7323378" lon="10.6157867"><ele>44.5</ele><time>2026-05-03T13:00:20.102Z</time></trkpt><trkpt lat="44.7324235" lon="10.6154057"><ele>45.0</ele><time>2026-05-03T13:00:21.102Z</time></trkpt><trkpt lat="44.7325077" lon="10.6150264"><ele>45.0</ele><time>2026-05-03T13:00:22.103Z</time></trkpt><trkpt lat="44.7325963" lon="10.6146484"><ele>45.0</ele><time>2026-05-03T13:00:23.102Z</time></trkpt><trkpt lat="44.7326804" lon="10.6142774"><ele>45.0</ele><time>2026-05-03T13:00:24.103Z</time></trkpt><trkpt lat="44.7327665" lon="10.6139074"><ele>45.0</ele><time>2026-05-03T13:00:25.102Z</time></trkpt><trkpt lat="44.7328542" lon="10.6135379"><ele>45.0</ele><time>2026-05-03T13:00:26.102Z</time></trkpt><trkpt lat="44.7329367" lon="10.613165"><ele>45.0</ele><time>2026-05-03T13:00:27.103Z</time></trkpt><trkpt lat="44.7330202" lon="10.612791"><ele>45.0</ele><time>2026-05-03T13:00:28.103Z</time></trkpt><trkpt lat="44.7331078" lon="10.6124226"><ele>45.0</ele><time>2026-05-03T13:00:29.103Z</time></trkpt><trkpt lat="44.7331946" lon="10.6120493"><ele>46.0</ele><time>2026-05-03T13:00:30.103Z</time></trkpt><trkpt lat="44.7332824" lon="10.6116823"><ele>47.0</ele><time>2026-05-03T13:00:31.102Z</time></trkpt><trkpt lat="44.733369" lon="10.6113039"><ele>46.0</ele><time>2026-05-03T13:00:32.103Z</time></trkpt><trkpt lat="44.7334591" lon="10.6109275"><ele>45.0</ele><time>2026-05-03T13:00:33.102Z</time></trkpt><trkpt lat="44.7335492" lon="10.6105544"><ele>44.5</ele><time>2026-05-03T13:00:34.102Z</time></trkpt><trkpt lat="44.7336388" lon="10.6101811"><ele>44.0</ele><time>2026-05-03T13:00:35.103Z</time></trkpt><trkpt lat="44.7337299" lon="10.6098046"><ele>45.0</ele><time>2026-05-03T13:00:36.102Z</time></trkpt><trkpt lat="44.7338179" lon="10.6094311"><ele>46.0</ele><time>2026-05-03T13:00:37.103Z</time></trkpt><trkpt lat="44.7339043" lon="10.6090563"><ele>46.0</ele><time>2026-05-03T13:00:38.103Z</time></trkpt><trkpt lat="44.7339953" lon="10.6086796"><ele>46.0</ele><time>2026-05-03T13:00:39.102Z</time></trkpt><trkpt lat="44.734087" lon="10.6083013"><ele>44.5</ele><time>2026-05-03T13:00:40.103Z</time></trkpt><trkpt lat="44.7341733" lon="10.6079313"><ele>43.0</ele><time>2026-05-03T13:00:41.103Z</time></trkpt><trkpt lat="44.7342606" lon="10.607564"><ele>41.0</ele><time>2026-05-03T13:00:42.103Z</time></trkpt><trkpt lat="44.7343429" lon="10.6072086"><ele>39.0</ele><time>2026-05-03T13:00:43.102Z</time></trkpt><trkpt lat="44.7344269" lon="10.6068442"><ele>39.0</ele><time>2026-05-03T13:00:44.102Z</time></trkpt><trkpt lat="44.7345109" lon="10.6064878"><ele>39.0</ele><time>2026-05-03T13:00:45.102Z</time></trkpt><trkpt lat="44.7345965" lon="10.6061332"><ele>39.0</ele><time>2026-05-03T13:00:46.103Z</time></trkpt><trkpt lat="44.7346827" lon="10.6057779"><ele>39.0</ele><time>2026-05-03T13:00:47.102Z</time></trkpt><trkpt lat="44.7347705" lon="10.6054174"><ele>38.0</ele><time>2026-05-03T13:00:48.103Z</time></trkpt><trkpt lat="44.7348554" lon="10.6050576"><ele>37.0</ele><time>2026-05-03T13:00:49.102Z</time></trkpt><trkpt lat="44.7349422" lon="10.6046956"><ele>37.0</ele><time>2026-05-03T13:00:50.102Z</time></trkpt><trkpt lat="44.7350255" lon="10.6043418"><ele>37.0</ele><time>2026-05-03T13:00:51.102Z</time></trkpt><trkpt lat="44.7351073" lon="10.6039862"><ele>38.0</ele><time>2026-05-03T13:00:52.103Z</time></trkpt><trkpt lat="44.7351925" lon="10.6036244"><ele>39.0</ele><time>2026-05-03T13:00:53.103Z</time></trkpt><trkpt lat="44.7352787" lon="10.6032622"><ele>39.5</ele><time>2026-05-03T13:00:54.102Z</time></trkpt><trkpt lat="44.7353622" lon="10.602912"><ele>40.0</ele><time>2026-05-03T13:00:55.103Z</time></trkpt><trkpt lat="44.7354405" lon="10.6025756"><ele>40.0</ele><time>2026-05-03T13:00:56.102Z</time></trkpt><trkpt lat="44.7355157" lon="10.6022508"><ele>40.0</ele><time>2026-05-03T13:00:57.103Z</time></trkpt><trkpt lat="44.7355919" lon="10.6019284"><ele>40.0</ele><time>2026-05-03T13:00:58.102Z</time></trkpt><trkpt lat="44.7356614" lon="10.6016102"><ele>40.0</ele><time>2026-05-03T13:00:59.103Z</time></trkpt><trkpt lat="44.7357389" lon="10.6012837"><ele>40.0</ele><time>2026-05-03T13:01:00.102Z</time></trkpt><trkpt lat="44.7358184" lon="10.6009535"><ele>40.0</ele><time>2026-05-03T13:01:01.102Z</time></trkpt><trkpt lat="44.7358992" lon="10.6006151"><ele>39.0</ele><time>2026-05-03T13:01:02.102Z</time></trkpt><trkpt lat="44.7359804" lon="10.6002554"><ele>38.0</ele><time>2026-05-03T13:01:03.103Z</time></trkpt><trkpt lat="44.7360627" lon="10.599879"><ele>38.5</ele><time>2026-05-03T13:01:04.103Z</time></trkpt><trkpt lat="44.7361528" lon="10.5994944"><ele>39.0</ele><time>2026-05-03T13:01:05.103Z</time></trkpt><trkpt lat="44.7362453" lon="10.5991114"><ele>39.0</ele><time>2026-05-03T13:01:06.102Z</time></trkpt><trkpt lat="44.7363335" lon="10.5987375"><ele>39.0</ele><time>2026-05-03T13:01:07.102Z</time></trkpt><trkpt lat="44.7364211" lon="10.5983728"><ele>39.0</ele><time>2026-05-03T13:01:08.103Z</time></trkpt><trkpt lat="44.7365026" lon="10.5980088"><ele>39.0</ele><time>2026-05-03T13:01:09.103Z</time></trkpt><trkpt lat="44.7365838" lon="10.5976339"><ele>38.5</ele><time>2026-05-03T13:01:10.102Z</time></trkpt><trkpt lat="44.7366615" lon="10.597253"><ele>38.0</ele><time>2026-05-03T13:01:11.102Z</time></trkpt><trkpt lat="44.7367419" lon="10.5968743"><ele>38.0</ele><time>2026-05-03T13:01:12.103Z</time></trkpt><trkpt lat="44.7368291" lon="10.5964893"><ele>38.0</ele><time>2026-05-03T13:01:13.103Z</time></trkpt><trkpt lat="44.736912" lon="10.596112"><ele>37.5</ele><time>2026-05-03T13:01:14.103Z</time></trkpt><trkpt lat="44.7370023" lon="10.5957261"><ele>37.0</ele><time>2026-05-03T13:01:15.103Z</time></trkpt><trkpt lat="44.7370927" lon="10.5953383"><ele>36.5</ele><time>2026-05-03T13:01:16.103Z</time></trkpt><trkpt lat="44.7371811" lon="10.5949538"><ele>36.0</ele><time>2026-05-03T13:01:17.103Z</time></trkpt><trkpt lat="44.7372757" lon="10.5945589"><ele>35.5</ele><time>2026-05-03T13:01:18.103Z</time></trkpt><trkpt lat="44.7373667" lon="10.5941696"><ele>35.0</ele><time>2026-05-03T13:01:19.102Z</time></trkpt><trkpt lat="44.7374579" lon="10.59378"><ele>36.5</ele><time>2026-05-03T13:01:20.103Z</time></trkpt><trkpt lat="44.7375546" lon="10.5933844"><ele>38.0</ele><time>2026-05-03T13:01:21.102Z</time></trkpt><trkpt lat="44.7376517" lon="10.5929923"><ele>36.5</ele><time>2026-05-03T13:01:22.102Z</time></trkpt><trkpt lat="44.7377464" lon="10.5925959"><ele>35.0</ele><time>2026-05-03T13:01:23.102Z</time></trkpt><trkpt lat="44.7378432" lon="10.5921974"><ele>35.5</ele><time>2026-05-03T13:01:24.102Z</time></trkpt><trkpt lat="44.7379341" lon="10.5918059"><ele>36.0</ele><time>2026-05-03T13:01:25.102Z</time></trkpt><trkpt lat="44.7380288" lon="10.5914111"><ele>36.0</ele><time>2026-05-03T13:01:26.103Z</time></trkpt><trkpt lat="44.7381217" lon="10.5910222"><ele>36.0</ele><time>2026-05-03T13:01:27.103Z</time></trkpt><trkpt lat="44.7382137" lon="10.5906299"><ele>36.0</ele><time>2026-05-03T13:01:28.103Z</time></trkpt><trkpt lat="44.7383041" lon="10.5902479"><ele>36.0</ele><time>2026-05-03T13:01:29.103Z</time></trkpt><trkpt lat="44.7383987" lon="10.5898619"><ele>36.0</ele><time>2026-05-03T13:01:30.102Z</time></trkpt><trkpt lat="44.7384908" lon="10.5894713"><ele>36.0</ele><time>2026-05-03T13:01:31.102Z</time></trkpt><trkpt lat="44.7385858" lon="10.589078"><ele>36.5</ele><time>2026-05-03T13:01:32.103Z</time></trkpt><trkpt lat="44.7386802" lon="10.5886859"><ele>37.0</ele><time>2026-05-03T13:01:33.102Z</time></trkpt><trkpt lat="44.7387735" lon="10.5882984"><ele>37.5</ele><time>2026-05-03T13:01:34.102Z</time></trkpt><trkpt lat="44.7388683" lon="10.5879065"><ele>38.0</ele><time>2026-05-03T13:01:35.102Z</time></trkpt><trkpt lat="44.738959" lon="10.5875148"><ele>38.0</ele><time>2026-05-03T13:01:36.103Z</time></trkpt><trkpt lat="44.7390513" lon="10.5871265"><ele>38.0</ele><time>2026-05-03T13:01:37.103Z</time></trkpt><trkpt lat="44.7391456" lon="10.5867363"><ele>38.0</ele><time>2026-05-03T13:01:38.103Z</time></trkpt><trkpt lat="44.7392384" lon="10.5863487"><ele>38.0</ele><time>2026-05-03T13:01:39.103Z</time></trkpt><trkpt lat="44.7393336" lon="10.5859538"><ele>37.5</ele><time>2026-05-03T13:01:40.102Z</time></trkpt><trkpt lat="44.73943" lon="10.5855569"><ele>37.0</ele><time>2026-05-03T13:01:41.102Z</time></trkpt><trkpt lat="44.7395191" lon="10.5851672"><ele>37.0</ele><time>2026-05-03T13:01:42.103Z</time></trkpt><trkpt lat="44.7396042" lon="10.5847897"><ele>37.0</ele><time>2026-05-03T13:01:43.103Z</time></trkpt><trkpt lat="44.7396952" lon="10.5844032"><ele>37.0</ele><time>2026-05-03T13:01:44.102Z</time></trkpt><trkpt lat="44.739785" lon="10.5840187"><ele>37.0</ele><time>2026-05-03T13:01:45.103Z</time></trkpt><trkpt lat="44.7398779" lon="10.58363"><ele>37.0</ele><time>2026-05-03T13:01:46.102Z</time></trkpt><trkpt lat="44.7399702" lon="10.5832394"><ele>37.0</ele><time>2026-05-03T13:01:47.103Z</time></trkpt><trkpt lat="44.7400607" lon="10.5828481"><ele>37.0</ele><time>2026-05-03T13:01:48.103Z</time></trkpt><trkpt lat="44.7401537" lon="10.5824576"><ele>37.0</ele><time>2026-05-03T13:01:49.103Z</time></trkpt><trkpt lat="44.7402431" lon="10.5820698"><ele>37.0</ele><time>2026-05-03T13:01:50.102Z</time></trkpt><trkpt lat="44.7403355" lon="10.5816826"><ele>37.0</ele><time>2026-05-03T13:01:51.102Z</time></trkpt><trkpt lat="44.7404334" lon="10.581296"><ele>37.5</ele><time>2026-05-03T13:01:52.102Z</time></trkpt><trkpt lat="44.7405343" lon="10.5809037"><ele>38.0</ele><time>2026-05-03T13:01:53.103Z</time></trkpt><trkpt lat="44.7406349" lon="10.5805063"><ele>39.0</ele><time>2026-05-03T13:01:54.103Z</time></trkpt><trkpt lat="44.7407314" lon="10.5801141"><ele>40.0</ele><time>2026-05-03T13:01:55.102Z</time></trkpt><trkpt lat="44.7408295" lon="10.5797238"><ele>39.0</ele><time>2026-05-03T13:01:56.103Z</time></trkpt><trkpt lat="44.7409247" lon="10.579333"><ele>38.0</ele><time>2026-05-03T13:01:57.102Z</time></trkpt><trkpt lat="44.7410174" lon="10.5789506"><ele>37.0</ele><time>2026-05-03T13:01:58.102Z</time></trkpt><trkpt lat="44.7411147" lon="10.5785719"><ele>36.0</ele><time>2026-05-03T13:01:59.102Z</time></trkpt><trkpt lat="44.7412066" lon="10.5782042"><ele>35.5</ele><time>2026-05-03T13:02:00.103Z</time></trkpt><trkpt lat="44.7413053" lon="10.5778334"><ele>35.0</ele><time>2026-05-03T13:02:01.103Z</time></trkpt><trkpt lat="44.7414041" lon="10.577468"><ele>35.0</ele><time>2026-05-03T13:02:02.103Z</time></trkpt><trkpt lat="44.7415087" lon="10.5770969"><ele>35.0</ele><time>2026-05-03T13:02:03.102Z</time></trkpt><trkpt lat="44.7416118" lon="10.5767362"><ele>35.0</ele><time>2026-05-03T13:02:04.102Z</time></trkpt><trkpt lat="44.7417216" lon="10.5763721"><ele>35.0</ele><time>2026-05-03T13:02:05.102Z</time></trkpt><trkpt lat="44.7418347" lon="10.5760059"><ele>35.0</ele><time>2026-05-03T13:02:06.103Z</time></trkpt><trkpt lat="44.7419474" lon="10.5756451"><ele>35.0</ele><time>2026-05-03T13:02:07.103Z</time></trkpt><trkpt lat="44.7420679" lon="10.575283"><ele>34.5</ele><time>2026-05-03T13:02:08.102Z</time></trkpt><trkpt lat="44.7421884" lon="10.574924"><ele>34.0</ele><time>2026-05-03T13:02:09.102Z</time></trkpt><trkpt lat="44.7423124" lon="10.5745691"><ele>34.0</ele><time>2026-05-03T13:02:10.102Z</time></trkpt><trkpt lat="44.7424367" lon="10.5742182"><ele>34.0</ele><time>2026-05-03T13:02:11.102Z</time></trkpt><trkpt lat="44.7425708" lon="10.573864"><ele>34.5</ele><time>2026-05-03T13:02:12.103Z</time></trkpt><trkpt lat="44.7427061" lon="10.5735145"><ele>35.0</ele><time>2026-05-03T13:02:13.103Z</time></trkpt><trkpt lat="44.7428406" lon="10.5731769"><ele>34.0</ele><time>2026-05-03T13:02:14.102Z</time></trkpt><trkpt lat="44.7429752" lon="10.5728486"><ele>33.0</ele><time>2026-05-03T13:02:15.102Z</time></trkpt><trkpt lat="44.7431113" lon="10.5725276"><ele>33.0</ele><time>2026-05-03T13:02:16.103Z</time></trkpt><trkpt lat="44.7432479" lon="10.5722029"><ele>33.0</ele><time>2026-05-03T13:02:17.103Z</time></trkpt><trkpt lat="44.7433887" lon="10.5718846"><ele>33.5</ele><time>2026-05-03T13:02:18.103Z</time></trkpt><trkpt lat="44.7435312" lon="10.5715684"><ele>34.0</ele><time>2026-05-03T13:02:19.102Z</time></trkpt><trkpt lat="44.7436741" lon="10.5712532"><ele>33.5</ele><time>2026-05-03T13:02:20.102Z</time></trkpt><trkpt lat="44.7438161" lon="10.5709417"><ele>33.0</ele><time>2026-05-03T13:02:21.102Z</time></trkpt><trkpt lat="44.7439639" lon="10.5706273"><ele>34.0</ele><time>2026-05-03T13:02:22.102Z</time></trkpt><trkpt lat="44.7441114" lon="10.570316"><ele>35.0</ele><time>2026-05-03T13:02:23.102Z</time></trkpt><trkpt lat="44.7442522" lon="10.5700048"><ele>34.5</ele><time>2026-05-03T13:02:24.102Z</time></trkpt><trkpt lat="44.7443975" lon="10.5696954"><ele>34.0</ele><time>2026-05-03T13:02:25.103Z</time></trkpt><trkpt lat="44.7445413" lon="10.5693938"><ele>34.0</ele><time>2026-05-03T13:02:26.102Z</time></trkpt><trkpt lat="44.7446841" lon="10.569083"><ele>34.0</ele><time>2026-05-03T13:02:27.102Z</time></trkpt><trkpt lat="44.7448295" lon="10.568773"><ele>34.5</ele><time>2026-05-03T13:02:28.103Z</time></trkpt><trkpt lat="44.7449716" lon="10.5684706"><ele>35.0</ele><time>2026-05-03T13:02:29.103Z</time></trkpt><trkpt lat="44.7451167" lon="10.5681606"><ele>35.5</ele><time>2026-05-03T13:02:30.103Z</time></trkpt><trkpt lat="44.7452651" lon="10.5678529"><ele>36.0</ele><time>2026-05-03T13:02:31.102Z</time></trkpt><trkpt lat="44.7454172" lon="10.56754"><ele>36.0</ele><time>2026-05-03T13:02:32.103Z</time></trkpt><trkpt lat="44.7455738" lon="10.5672271"><ele>36.0</ele><time>2026-05-03T13:02:33.102Z</time></trkpt><trkpt lat="44.7457318" lon="10.566907"><ele>36.5</ele><time>2026-05-03T13:02:34.102Z</time></trkpt><trkpt lat="44.7458887" lon="10.5665801"><ele>37.0</ele><time>2026-05-03T13:02:35.103Z</time></trkpt><trkpt lat="44.7460448" lon="10.5662464"><ele>35.5</ele><time>2026-05-03T13:02:36.102Z</time></trkpt><trkpt lat="44.7461985" lon="10.5659103"><ele>34.0</ele><time>2026-05-03T13:02:37.103Z</time></trkpt><trkpt lat="44.746347" lon="10.5655942"><ele>35.0</ele><time>2026-05-03T13:02:38.103Z</time></trkpt><trkpt lat="44.7464959" lon="10.5652806"><ele>36.0</ele><time>2026-05-03T13:02:39.102Z</time></trkpt><trkpt lat="44.7466424" lon="10.5649685"><ele>36.0</ele><time>2026-05-03T13:02:40.103Z</time></trkpt><trkpt lat="44.7467911" lon="10.5646594"><ele>36.0</ele><time>2026-05-03T13:02:41.103Z</time></trkpt><trkpt lat="44.7469347" lon="10.564351"><ele>35.0</ele><time>2026-05-03T13:02:42.102Z</time></trkpt><trkpt lat="44.7470813" lon="10.5640355"><ele>34.0</ele><time>2026-05-03T13:02:43.102Z</time></trkpt><trkpt lat="44.7472329" lon="10.5637227"><ele>34.5</ele><time>2026-05-03T13:02:44.102Z</time></trkpt><trkpt lat="44.7473971" lon="10.5633969"><ele>35.0</ele><time>2026-05-03T13:02:45.103Z</time></trkpt><trkpt lat="44.747561" lon="10.5630607"><ele>35.0</ele><time>2026-05-03T13:02:46.103Z</time></trkpt><trkpt lat="44.7477248" lon="10.5627201"><ele>35.0</ele><time>2026-05-03T13:02:47.102Z</time></trkpt><trkpt lat="44.7478878" lon="10.5623749"><ele>35.5</ele><time>2026-05-03T13:02:48.103Z</time></trkpt><trkpt lat="44.748052" lon="10.5620286"><ele>36.0</ele><time>2026-05-03T13:02:49.102Z</time></trkpt><trkpt lat="44.7482165" lon="10.5616791"><ele>36.0</ele><time>2026-05-03T13:02:50.102Z</time></trkpt><trkpt lat="44.7483803" lon="10.5613342"><ele>36.0</ele><time>2026-05-03T13:02:51.103Z</time></trkpt><trkpt lat="44.7485459" lon="10.5609836"><ele>35.5</ele><time>2026-05-03T13:02:52.102Z</time></trkpt><trkpt lat="44.7487082" lon="10.5606406"><ele>35.0</ele><time>2026-05-03T13:02:53.103Z</time></trkpt><trkpt lat="44.7488692" lon="10.5603012"><ele>35.0</ele><time>2026-05-03T13:02:54.102Z</time></trkpt><trkpt lat="44.7490334" lon="10.5599598"><ele>35.0</ele><time>2026-05-03T13:02:55.102Z</time></trkpt><trkpt lat="44.7491949" lon="10.5596262"><ele>35.0</ele><time>2026-05-03T13:02:56.103Z</time></trkpt><trkpt lat="44.7493514" lon="10.5592938"><ele>35.0</ele><time>2026-05-03T13:02:57.102Z</time></trkpt><trkpt lat="44.7495057" lon="10.5589707"><ele>34.5</ele><time>2026-05-03T13:02:58.102Z</time></trkpt><trkpt lat="44.7496565" lon="10.5586452"><ele>34.0</ele><time>2026-05-03T13:02:59.102Z</time></trkpt><trkpt lat="44.7498097" lon="10.5583184"><ele>34.0</ele><time>2026-05-03T13:03:00.102Z</time></trkpt><trkpt lat="44.7499646" lon="10.5579958"><ele>34.0</ele><time>2026-05-03T13:03:01.103Z</time></trkpt><trkpt lat="44.7501169" lon="10.5576739"><ele>34.0</ele><time>2026-05-03T13:03:02.102Z</time></trkpt><trkpt lat="44.75027" lon="10.5573423"><ele>34.0</ele><time>2026-05-03T13:03:03.103Z</time></trkpt><trkpt lat="44.7504254" lon="10.5570086"><ele>34.0</ele><time>2026-05-03T13:03:04.102Z</time></trkpt><trkpt lat="44.7505816" lon="10.5566689"><ele>34.0</ele><time>2026-05-03T13:03:05.102Z</time></trkpt><trkpt lat="44.7507396" lon="10.5563283"><ele>33.5</ele><time>2026-05-03T13:03:06.103Z</time></trkpt><trkpt lat="44.7509021" lon="10.5559824"><ele>33.0</ele><time>2026-05-03T13:03:07.102Z</time></trkpt><trkpt lat="44.7510624" lon="10.5556365"><ele>32.5</ele><time>2026-05-03T13:03:08.103Z</time></trkpt><trkpt lat="44.7512285" lon="10.5552924"><ele>32.0</ele><time>2026-05-03T13:03:09.103Z</time></trkpt><trkpt lat="44.7513869" lon="10.5549495"><ele>32.0</ele><time>2026-05-03T13:03:10.102Z</time></trkpt><trkpt lat="44.7515445" lon="10.5546117"><ele>32.0</ele><time>2026-05-03T13:03:11.102Z</time></trkpt><trkpt lat="44.7517061" lon="10.5542631"><ele>32.5</ele><time>2026-05-03T13:03:12.102Z</time></trkpt><trkpt lat="44.7518656" lon="10.5539231"><ele>33.0</ele><time>2026-05-03T13:03:13.102Z</time></trkpt><trkpt lat="44.7520284" lon="10.5535859"><ele>32.0</ele><time>2026-05-03T13:03:14.103Z</time></trkpt><trkpt lat="44.7521939" lon="10.5532432"><ele>31.0</ele><time>2026-05-03T13:03:15.103Z</time></trkpt><trkpt lat="44.7523561" lon="10.5529039"><ele>32.0</ele><time>2026-05-03T13:03:16.102Z</time></trkpt><trkpt lat="44.7525208" lon="10.5525639"><ele>33.0</ele><time>2026-05-03T13:03:17.102Z</time></trkpt><trkpt lat="44.7526869" lon="10.5522305"><ele>32.5</ele><time>2026-05-03T13:03:18.102Z</time></trkpt><trkpt lat="44.7528516" lon="10.5518973"><ele>32.0</ele><time>2026-05-03T13:03:19.103Z</time></trkpt><trkpt lat="44.7530169" lon="10.5515581"><ele>32.0</ele><time>2026-05-03T13:03:20.102Z</time></trkpt><trkpt lat="44.7531816" lon="10.5512183"><ele>32.0</ele><time>2026-05-03T13:03:21.102Z</time></trkpt><trkpt lat="44.7533476" lon="10.5508709"><ele>32.5</ele><time>2026-05-03T13:03:22.102Z</time></trkpt><trkpt lat="44.7535144" lon="10.5505169"><ele>33.0</ele><time>2026-05-03T13:03:23.103Z</time></trkpt><trkpt lat="44.7536824" lon="10.5501658"><ele>33.0</ele><time>2026-05-03T13:03:24.102Z</time></trkpt><trkpt lat="44.7538494" lon="10.549813"><ele>33.0</ele><time>2026-05-03T13:03:25.103Z</time></trkpt><trkpt lat="44.7540211" lon="10.5494591"><ele>32.5</ele><time>2026-05-03T13:03:26.102Z</time></trkpt><trkpt lat="44.7541884" lon="10.5491132"><ele>32.0</ele><time>2026-05-03T13:03:27.102Z</time></trkpt><trkpt lat="44.754355" lon="10.5487629"><ele>32.0</ele><time>2026-05-03T13:03:28.103Z</time></trkpt><trkpt lat="44.7545255" lon="10.5484118"><ele>32.0</ele><time>2026-05-03T13:03:29.103Z</time></trkpt><trkpt lat="44.7546923" lon="10.5480565"><ele>32.5</ele><time>2026-05-03T13:03:30.103Z</time></trkpt><trkpt lat="44.7548629" lon="10.5476974"><ele>33.0</ele><time>2026-05-03T13:03:31.102Z</time></trkpt><trkpt lat="44.7550279" lon="10.5473393"><ele>33.0</ele><time>2026-05-03T13:03:32.102Z</time></trkpt><trkpt lat="44.7551941" lon="10.5469837"><ele>33.0</ele><time>2026-05-03T13:03:33.103Z</time></trkpt><trkpt lat="44.7553633" lon="10.5466296"><ele>33.0</ele><time>2026-05-03T13:03:34.103Z</time></trkpt><trkpt lat="44.755534" lon="10.546274"><ele>33.0</ele><time>2026-05-03T13:03:35.102Z</time></trkpt><trkpt lat="44.7557008" lon="10.5459189"><ele>33.0</ele><time>2026-05-03T13:03:36.102Z</time></trkpt><trkpt lat="44.7558654" lon="10.5455694"><ele>33.0</ele><time>2026-05-03T13:03:37.102Z</time></trkpt><trkpt lat="44.7560263" lon="10.5452203"><ele>33.0</ele><time>2026-05-03T13:03:38.102Z</time></trkpt><trkpt lat="44.7561902" lon="10.544871"><ele>33.0</ele><time>2026-05-03T13:03:39.102Z</time></trkpt><trkpt lat="44.7563486" lon="10.5445291"><ele>33.5</ele><time>2026-05-03T13:03:40.103Z</time></trkpt><trkpt lat="44.7565112" lon="10.5441885"><ele>34.0</ele><time>2026-05-03T13:03:41.102Z</time></trkpt><trkpt lat="44.7566726" lon="10.5438462"><ele>34.5</ele><time>2026-05-03T13:03:42.102Z</time></trkpt><trkpt lat="44.7568401" lon="10.5435022"><ele>35.0</ele><time>2026-05-03T13:03:43.103Z</time></trkpt><trkpt lat="44.7570091" lon="10.5431571"><ele>34.5</ele><time>2026-05-03T13:03:44.103Z</time></trkpt><trkpt lat="44.7571742" lon="10.5428133"><ele>34.0</ele><time>2026-05-03T13:03:45.102Z</time></trkpt><trkpt lat="44.7573392" lon="10.542465"><ele>34.0</ele><time>2026-05-03T13:03:46.102Z</time></trkpt><trkpt lat="44.757501" lon="10.5421194"><ele>34.0</ele><time>2026-05-03T13:03:47.102Z</time></trkpt><trkpt lat="44.7576628" lon="10.5417759"><ele>32.0</ele><time>2026-05-03T13:03:48.102Z</time></trkpt><trkpt lat="44.757825" lon="10.5414325"><ele>30.0</ele><time>2026-05-03T13:03:49.103Z</time></trkpt><trkpt lat="44.7579867" lon="10.5410857"><ele>30.0</ele><time>2026-05-03T13:03:50.103Z</time></trkpt><trkpt lat="44.7581453" lon="10.5407407"><ele>30.0</ele><time>2026-05-03T13:03:51.102Z</time></trkpt><trkpt lat="44.7583049" lon="10.5403948"><ele>30.5</ele><time>2026-05-03T13:03:52.102Z</time></trkpt><trkpt lat="44.758468" lon="10.5400489"><ele>31.0</ele><time>2026-05-03T13:03:53.103Z</time></trkpt><trkpt lat="44.7586295" lon="10.5397051"><ele>30.5</ele><time>2026-05-03T13:03:54.102Z</time></trkpt><trkpt lat="44.7587932" lon="10.5393563"><ele>30.0</ele><time>2026-05-03T13:03:55.103Z</time></trkpt><trkpt lat="44.758954" lon="10.5390136"><ele>32.0</ele><time>2026-05-03T13:03:56.103Z</time></trkpt><trkpt lat="44.7591128" lon="10.5386752"><ele>34.0</ele><time>2026-05-03T13:03:57.103Z</time></trkpt><trkpt lat="44.7592748" lon="10.5383309"><ele>33.5</ele><time>2026-05-03T13:03:58.102Z</time></trkpt><trkpt lat="44.7594381" lon="10.5379883"><ele>33.0</ele><time>2026-05-03T13:03:59.102Z</time></trkpt><trkpt lat="44.759599" lon="10.537642"><ele>33.5</ele><time>2026-05-03T13:04:00.102Z</time></trkpt><trkpt lat="44.7597653" lon="10.5372963"><ele>34.0</ele><time>2026-05-03T13:04:01.102Z</time></trkpt><trkpt lat="44.7599274" lon="10.5369542"><ele>34.0</ele><time>2026-05-03T13:04:02.102Z</time></trkpt><trkpt lat="44.7600925" lon="10.5366082"><ele>34.0</ele><time>2026-05-03T13:04:03.102Z</time></trkpt><trkpt lat="44.7602568" lon="10.5362682"><ele>32.5</ele><time>2026-05-03T13:04:04.103Z</time></trkpt><trkpt lat="44.7604243" lon="10.5359203"><ele>31.0</ele><time>2026-05-03T13:04:05.102Z</time></trkpt><trkpt lat="44.7605921" lon="10.5355738"><ele>33.0</ele><time>2026-05-03T13:04:06.103Z</time></trkpt><trkpt lat="44.7607579" lon="10.5352298"><ele>35.0</ele><time>2026-05-03T13:04:07.102Z</time></trkpt><trkpt lat="44.76092" lon="10.5348876"><ele>36.0</ele><time>2026-05-03T13:04:08.103Z</time></trkpt><trkpt lat="44.7610846" lon="10.534544"><ele>37.0</ele><time>2026-05-03T13:04:09.103Z</time></trkpt><trkpt lat="44.7612467" lon="10.5342028"><ele>37.0</ele><time>2026-05-03T13:04:10.103Z</time></trkpt><trkpt lat="44.7614106" lon="10.5338616"><ele>37.0</ele><time>2026-05-03T13:04:11.103Z</time></trkpt><trkpt lat="44.7615757" lon="10.5335168"><ele>37.0</ele><time>2026-05-03T13:04:12.102Z</time></trkpt><trkpt lat="44.761743" lon="10.5331668"><ele>37.0</ele><time>2026-05-03T13:04:13.103Z</time></trkpt><trkpt lat="44.7619054" lon="10.5328232"><ele>35.0</ele><time>2026-05-03T13:04:14.102Z</time></trkpt><trkpt lat="44.7620651" lon="10.5324854"><ele>33.0</ele><time>2026-05-03T13:04:15.102Z</time></trkpt><trkpt lat="44.7622312" lon="10.532137"><ele>33.0</ele><time>2026-05-03T13:04:16.103Z</time></trkpt><trkpt lat="44.7623907" lon="10.5317948"><ele>33.0</ele><time>2026-05-03T13:04:17.102Z</time></trkpt><trkpt lat="44.7625524" lon="10.5314539"><ele>31.0</ele><time>2026-05-03T13:04:18.102Z</time></trkpt><trkpt lat="44.7627146" lon="10.5311124"><ele>29.0</ele><time>2026-05-03T13:04:19.103Z</time></trkpt><trkpt lat="44.7628787" lon="10.5307658"><ele>29.0</ele><time>2026-05-03T13:04:20.103Z</time></trkpt><trkpt lat="44.7630394" lon="10.5304212"><ele>29.0</ele><time>2026-05-03T13:04:21.102Z</time></trkpt><trkpt lat="44.763204" lon="10.5300756"><ele>29.5</ele><time>2026-05-03T13:04:22.102Z</time></trkpt><trkpt lat="44.7633654" lon="10.5297344"><ele>30.0</ele><time>2026-05-03T13:04:23.103Z</time></trkpt><trkpt lat="44.7635292" lon="10.5293907"><ele>30.5</ele><time>2026-05-03T13:04:24.102Z</time></trkpt><trkpt lat="44.7636929" lon="10.5290489"><ele>31.0</ele><time>2026-05-03T13:04:25.102Z</time></trkpt><trkpt lat="44.7638537" lon="10.5287045"><ele>31.5</ele><time>2026-05-03T13:04:26.102Z</time></trkpt><trkpt lat="44.7640175" lon="10.5283622"><ele>32.0</ele><time>2026-05-03T13:04:27.103Z</time></trkpt><trkpt lat="44.7641827" lon="10.5280226"><ele>32.0</ele><time>2026-05-03T13:04:28.103Z</time></trkpt><trkpt lat="44.764346" lon="10.5276774"><ele>32.0</ele><time>2026-05-03T13:04:29.102Z</time></trkpt><trkpt lat="44.7645093" lon="10.527332"><ele>32.0</ele><time>2026-05-03T13:04:30.103Z</time></trkpt><trkpt lat="44.7646751" lon="10.5269878"><ele>32.0</ele><time>2026-05-03T13:04:31.103Z</time></trkpt><trkpt lat="44.7648377" lon="10.5266415"><ele>32.0</ele><time>2026-05-03T13:04:32.102Z</time></trkpt><trkpt lat="44.7650028" lon="10.5262937"><ele>32.0</ele><time>2026-05-03T13:04:33.102Z</time></trkpt><trkpt lat="44.7651664" lon="10.5259484"><ele>31.5</ele><time>2026-05-03T13:04:34.103Z</time></trkpt><trkpt lat="44.7653298" lon="10.5256053"><ele>31.0</ele><time>2026-05-03T13:04:35.103Z</time></trkpt><trkpt lat="44.7654957" lon="10.525266"><ele>31.0</ele><time>2026-05-03T13:04:36.103Z</time></trkpt><trkpt lat="44.7656631" lon="10.5249228"><ele>31.0</ele><time>2026-05-03T13:04:37.103Z</time></trkpt><trkpt lat="44.765828" lon="10.5245815"><ele>30.5</ele><time>2026-05-03T13:04:38.103Z</time></trkpt><trkpt lat="44.7659939" lon="10.5242317"><ele>30.0</ele><time>2026-05-03T13:04:39.103Z</time></trkpt><trkpt lat="44.7661561" lon="10.52389"><ele>30.0</ele><time>2026-05-03T13:04:40.102Z</time></trkpt><trkpt lat="44.7663189" lon="10.5235491"><ele>30.0</ele><time>2026-05-03T13:04:41.103Z</time></trkpt><trkpt lat="44.7664807" lon="10.5232085"><ele>31.0</ele><time>2026-05-03T13:04:42.103Z</time></trkpt><trkpt lat="44.7666418" lon="10.5228668"><ele>32.0</ele><time>2026-05-03T13:04:43.102Z</time></trkpt><trkpt lat="44.7668047" lon="10.5225253"><ele>32.5</ele><time>2026-05-03T13:04:44.102Z</time></trkpt><trkpt lat="44.7669644" lon="10.5221786"><ele>33.0</ele><time>2026-05-03T13:04:45.102Z</time></trkpt><trkpt lat="44.7671274" lon="10.5218392"><ele>33.0</ele><time>2026-05-03T13:04:46.102Z</time></trkpt><trkpt lat="44.7672918" lon="10.5214972"><ele>33.0</ele><time>2026-05-03T13:04:47.103Z</time></trkpt><trkpt lat="44.7674532" lon="10.5211565"><ele>33.0</ele><time>2026-05-03T13:04:48.102Z</time></trkpt><trkpt lat="44.7676138" lon="10.5208111"><ele>33.0</ele><time>2026-05-03T13:04:49.102Z</time></trkpt><trkpt lat="44.767772" lon="10.520465"><ele>36.0</ele><time>2026-05-03T13:04:50.103Z</time></trkpt><trkpt lat="44.7679286" lon="10.5201181"><ele>39.0</ele><time>2026-05-03T13:04:51.103Z</time></trkpt><trkpt lat="44.7680889" lon="10.5197703"><ele>38.5</ele><time>2026-05-03T13:04:52.103Z</time></trkpt><trkpt lat="44.7682529" lon="10.5194197"><ele>38.0</ele><time>2026-05-03T13:04:53.102Z</time></trkpt><trkpt lat="44.7684142" lon="10.5190693"><ele>37.0</ele><time>2026-05-03T13:04:54.102Z</time></trkpt><trkpt lat="44.7685772" lon="10.5187251"><ele>36.0</ele><time>2026-05-03T13:04:55.103Z</time></trkpt><trkpt lat="44.7687447" lon="10.5183843"><ele>36.0</ele><time>2026-05-03T13:04:56.103Z</time></trkpt><trkpt lat="44.7689113" lon="10.518038"><ele>36.0</ele><time>2026-05-03T13:04:57.102Z</time></trkpt><trkpt lat="44.7690741" lon="10.5177028"><ele>36.0</ele><time>2026-05-03T13:04:58.103Z</time></trkpt><trkpt lat="44.7692397" lon="10.5173628"><ele>36.0</ele><time>2026-05-03T13:04:59.103Z</time></trkpt><trkpt lat="44.7694026" lon="10.5170267"><ele>34.5</ele><time>2026-05-03T13:05:00.102Z</time></trkpt><trkpt lat="44.7695712" lon="10.5166802"><ele>33.0</ele><time>2026-05-03T13:05:01.103Z</time></trkpt><trkpt lat="44.7697335" lon="10.5163404"><ele>35.0</ele><time>2026-05-03T13:05:02.103Z</time></trkpt><trkpt lat="44.7698956" lon="10.5160028"><ele>37.0</ele><time>2026-05-03T13:05:03.103Z</time></trkpt><trkpt lat="44.7700615" lon="10.5156649"><ele>37.0</ele><time>2026-05-03T13:05:04.102Z</time></trkpt><trkpt lat="44.7702286" lon="10.5153219"><ele>37.0</ele><time>2026-05-03T13:05:05.103Z</time></trkpt><trkpt lat="44.7703932" lon="10.5149793"><ele>37.0</ele><time>2026-05-03T13:05:06.103Z</time></trkpt><trkpt lat="44.7705523" lon="10.5146377"><ele>37.0</ele><time>2026-05-03T13:05:07.102Z</time></trkpt><trkpt lat="44.7707158" lon="10.514293"><ele>38.0</ele><time>2026-05-03T13:05:08.103Z</time></trkpt><trkpt lat="44.7708789" lon="10.513951"><ele>39.0</ele><time>2026-05-03T13:05:09.102Z</time></trkpt><trkpt lat="44.7710448" lon="10.5136078"><ele>39.0</ele><time>2026-05-03T13:05:10.103Z</time></trkpt><trkpt lat="44.771205" lon="10.5132655"><ele>39.0</ele><time>2026-05-03T13:05:11.102Z</time></trkpt><trkpt lat="44.7713679" lon="10.5129168"><ele>38.5</ele><time>2026-05-03T13:05:12.103Z</time></trkpt><trkpt lat="44.7715318" lon="10.5125693"><ele>38.0</ele><time>2026-05-03T13:05:13.102Z</time></trkpt><trkpt lat="44.7716954" lon="10.5122196"><ele>38.0</ele><time>2026-05-03T13:05:14.103Z</time></trkpt><trkpt lat="44.7718538" lon="10.5118775"><ele>38.0</ele><time>2026-05-03T13:05:15.102Z</time></trkpt><trkpt lat="44.7720137" lon="10.5115379"><ele>38.0</ele><time>2026-05-03T13:05:16.102Z</time></trkpt><trkpt lat="44.77218" lon="10.5111921"><ele>38.0</ele><time>2026-05-03T13:05:17.102Z</time></trkpt><trkpt lat="44.7723411" lon="10.5108514"><ele>38.0</ele><time>2026-05-03T13:05:18.103Z</time></trkpt><trkpt lat="44.7724993" lon="10.5105111"><ele>38.0</ele><time>2026-05-03T13:05:19.103Z</time></trkpt><trkpt lat="44.7726607" lon="10.5101685"><ele>38.0</ele><time>2026-05-03T13:05:20.102Z</time></trkpt><trkpt lat="44.7728232" lon="10.5098238"><ele>38.0</ele><time>2026-05-03T13:05:21.103Z</time></trkpt><trkpt lat="44.7729851" lon="10.5094783"><ele>38.0</ele><time>2026-05-03T13:05:22.102Z</time></trkpt><trkpt lat="44.7731436" lon="10.5091307"><ele>38.0</ele><time>2026-05-03T13:05:23.102Z</time></trkpt><trkpt lat="44.7733035" lon="10.5087811"><ele>38.0</ele><time>2026-05-03T13:05:24.102Z</time></trkpt><trkpt lat="44.7734633" lon="10.5084322"><ele>38.0</ele><time>2026-05-03T13:05:25.103Z</time></trkpt><trkpt lat="44.7736251" lon="10.5080846"><ele>37.5</ele><time>2026-05-03T13:05:26.102Z</time></trkpt><trkpt lat="44.7737863" lon="10.5077419"><ele>37.0</ele><time>2026-05-03T13:05:27.102Z</time></trkpt><trkpt lat="44.7739509" lon="10.5073931"><ele>37.0</ele><time>2026-05-03T13:05:28.103Z</time></trkpt><trkpt lat="44.7741112" lon="10.5070488"><ele>37.0</ele><time>2026-05-03T13:05:29.103Z</time></trkpt><trkpt lat="44.7742721" lon="10.5067052"><ele>37.0</ele><time>2026-05-03T13:05:30.103Z</time></trkpt><trkpt lat="44.7744318" lon="10.5063618"><ele>37.0</ele><time>2026-05-03T13:05:31.102Z</time></trkpt><trkpt lat="44.7745942" lon="10.5060175"><ele>37.5</ele><time>2026-05-03T13:05:32.102Z</time></trkpt><trkpt lat="44.7747538" lon="10.5056791"><ele>38.0</ele><time>2026-05-03T13:05:33.103Z</time></trkpt><trkpt lat="44.7749212" lon="10.5053313"><ele>38.0</ele><time>2026-05-03T13:05:34.103Z</time></trkpt><trkpt lat="44.7750861" lon="10.5049868"><ele>38.0</ele><time>2026-05-03T13:05:35.102Z</time></trkpt><trkpt lat="44.7752511" lon="10.5046415"><ele>37.5</ele><time>2026-05-03T13:05:36.102Z</time></trkpt><trkpt lat="44.7754123" lon="10.5042997"><ele>37.0</ele><time>2026-05-03T13:05:37.103Z</time></trkpt><trkpt lat="44.775576" lon="10.5039514"><ele>37.5</ele><time>2026-05-03T13:05:38.102Z</time></trkpt><trkpt lat="44.775737" lon="10.5036029"><ele>38.0</ele><time>2026-05-03T13:05:39.103Z</time></trkpt><trkpt lat="44.7759012" lon="10.5032531"><ele>37.0</ele><time>2026-05-03T13:05:40.103Z</time></trkpt><trkpt lat="44.7760639" lon="10.5029061"><ele>36.0</ele><time>2026-05-03T13:05:41.102Z</time></trkpt><trkpt lat="44.7762289" lon="10.5025623"><ele>36.0</ele><time>2026-05-03T13:05:42.102Z</time></trkpt><trkpt lat="44.7763946" lon="10.5022169"><ele>36.0</ele><time>2026-05-03T13:05:43.102Z</time></trkpt><trkpt lat="44.7765557" lon="10.501878"><ele>35.5</ele><time>2026-05-03T13:05:44.103Z</time></trkpt><trkpt lat="44.7767198" lon="10.5015316"><ele>35.0</ele><time>2026-05-03T13:05:45.103Z</time></trkpt><trkpt lat="44.7768861" lon="10.5011894"><ele>35.0</ele><time>2026-05-03T13:05:46.102Z</time></trkpt><trkpt lat="44.777054" lon="10.5008483"><ele>35.0</ele><time>2026-05-03T13:05:47.103Z</time></trkpt><trkpt lat="44.7772235" lon="10.5005041"><ele>36.0</ele><time>2026-05-03T13:05:48.103Z</time></trkpt><trkpt lat="44.7773908" lon="10.5001582"><ele>37.0</ele><time>2026-05-03T13:05:49.103Z</time></trkpt><trkpt lat="44.7775533" lon="10.4998164"><ele>38.0</ele><time>2026-05-03T13:05:50.102Z</time></trkpt><trkpt lat="44.7777139" lon="10.4994665"><ele>39.0</ele><time>2026-05-03T13:05:51.103Z</time></trkpt><trkpt lat="44.7778723" lon="10.4991224"><ele>39.0</ele><time>2026-05-03T13:05:52.103Z</time></trkpt><trkpt lat="44.7780292" lon="10.4987726"><ele>39.0</ele><time>2026-05-03T13:05:53.102Z</time></trkpt><trkpt lat="44.7781854" lon="10.4984297"><ele>39.0</ele><time>2026-05-03T13:05:54.103Z</time></trkpt><trkpt lat="44.7783448" lon="10.4980851"><ele>39.0</ele><time>2026-05-03T13:05:55.102Z</time></trkpt><trkpt lat="44.7785035" lon="10.4977418"><ele>39.0</ele><time>2026-05-03T13:05:56.102Z</time></trkpt><trkpt lat="44.7786635" lon="10.4973966"><ele>39.0</ele><time>2026-05-03T13:05:57.103Z</time></trkpt><trkpt lat="44.7788282" lon="10.4970479"><ele>39.0</ele><time>2026-05-03T13:05:58.103Z</time></trkpt><trkpt lat="44.7789934" lon="10.496701"><ele>39.0</ele><time>2026-05-03T13:05:59.102Z</time></trkpt><trkpt lat="44.7791517" lon="10.4963585"><ele>39.0</ele><time>2026-05-03T13:06:00.103Z</time></trkpt><trkpt lat="44.7793112" lon="10.4960134"><ele>39.0</ele><time>2026-05-03T13:06:01.103Z</time></trkpt><trkpt lat="44.779473" lon="10.495669"><ele>38.5</ele><time>2026-05-03T13:06:02.102Z</time></trkpt><trkpt lat="44.7796419" lon="10.4953127"><ele>38.0</ele><time>2026-05-03T13:06:03.102Z</time></trkpt><trkpt lat="44.7798021" lon="10.4949662"><ele>38.0</ele><time>2026-05-03T13:06:04.103Z</time></trkpt><trkpt lat="44.7799653" lon="10.4946202"><ele>38.0</ele><time>2026-05-03T13:06:05.102Z</time></trkpt><trkpt lat="44.7801261" lon="10.4942771"><ele>38.0</ele><time>2026-05-03T13:06:06.102Z</time></trkpt><trkpt lat="44.7802893" lon="10.4939356"><ele>38.0</ele><time>2026-05-03T13:06:07.103Z</time></trkpt><trkpt lat="44.7804559" lon="10.493594"><ele>38.5</ele><time>2026-05-03T13:06:08.103Z</time></trkpt><trkpt lat="44.7806168" lon="10.4932524"><ele>39.0</ele><time>2026-05-03T13:06:09.103Z</time></trkpt><trkpt lat="44.7807799" lon="10.4929085"><ele>39.0</ele><time>2026-05-03T13:06:10.103Z</time></trkpt><trkpt lat="44.7809403" lon="10.4925646"><ele>39.0</ele><time>2026-05-03T13:06:11.103Z</time></trkpt><trkpt lat="44.7811019" lon="10.4922215"><ele>38.5</ele><time>2026-05-03T13:06:12.103Z</time></trkpt><trkpt lat="44.7812682" lon="10.4918765"><ele>38.0</ele><time>2026-05-03T13:06:13.102Z</time></trkpt><trkpt lat="44.7814277" lon="10.491529"><ele>39.0</ele><time>2026-05-03T13:06:14.103Z</time></trkpt><trkpt lat="44.7815929" lon="10.4911819"><ele>40.0</ele><time>2026-05-03T13:06:15.103Z</time></trkpt><trkpt lat="44.7817548" lon="10.4908377"><ele>39.0</ele><time>2026-05-03T13:06:16.103Z</time></trkpt><trkpt lat="44.7819187" lon="10.4904937"><ele>38.0</ele><time>2026-05-03T13:06:17.102Z</time></trkpt><trkpt lat="44.7820761" lon="10.4901526"><ele>38.0</ele><time>2026-05-03T13:06:18.103Z</time></trkpt><trkpt lat="44.7822356" lon="10.4898107"><ele>38.0</ele><time>2026-05-03T13:06:19.102Z</time></trkpt><trkpt lat="44.7823992" lon="10.4894691"><ele>38.0</ele><time>2026-05-03T13:06:20.103Z</time></trkpt><trkpt lat="44.7825573" lon="10.4891246"><ele>38.0</ele><time>2026-05-03T13:06:21.102Z</time></trkpt><trkpt lat="44.7827219" lon="10.4887777"><ele>37.0</ele><time>2026-05-03T13:06:22.103Z</time></trkpt><trkpt lat="44.7828883" lon="10.4884319"><ele>36.0</ele><time>2026-05-03T13:06:23.102Z</time></trkpt><trkpt lat="44.7830468" lon="10.4880915"><ele>36.5</ele><time>2026-05-03T13:06:24.103Z</time></trkpt><trkpt lat="44.7832077" lon="10.4877487"><ele>37.0</ele><time>2026-05-03T13:06:25.102Z</time></trkpt><trkpt lat="44.7833656" lon="10.4874026"><ele>38.0</ele><time>2026-05-03T13:06:26.103Z</time></trkpt><trkpt lat="44.7835294" lon="10.4870563"><ele>39.0</ele><time>2026-05-03T13:06:27.103Z</time></trkpt><trkpt lat="44.7836921" lon="10.4867112"><ele>39.0</ele><time>2026-05-03T13:06:28.103Z</time></trkpt><trkpt lat="44.7838531" lon="10.4863636"><ele>39.0</ele><time>2026-05-03T13:06:29.103Z</time></trkpt><trkpt lat="44.7840191" lon="10.4860155"><ele>39.5</ele><time>2026-05-03T13:06:30.103Z</time></trkpt><trkpt lat="44.7841833" lon="10.4856654"><ele>40.0</ele><time>2026-05-03T13:06:31.103Z</time></trkpt><trkpt lat="44.7843453" lon="10.4853191"><ele>39.0</ele><time>2026-05-03T13:06:32.102Z</time></trkpt><trkpt lat="44.7845074" lon="10.4849759"><ele>38.0</ele><time>2026-05-03T13:06:33.103Z</time></trkpt><trkpt lat="44.7846682" lon="10.4846329"><ele>39.0</ele><time>2026-05-03T13:06:34.102Z</time></trkpt><trkpt lat="44.7848332" lon="10.4842841"><ele>40.0</ele><time>2026-05-03T13:06:35.102Z</time></trkpt><trkpt lat="44.7850004" lon="10.4839416"><ele>40.0</ele><time>2026-05-03T13:06:36.102Z</time></trkpt><trkpt lat="44.785162" lon="10.4835977"><ele>40.0</ele><time>2026-05-03T13:06:37.103Z</time></trkpt><trkpt lat="44.7853233" lon="10.4832555"><ele>39.5</ele><time>2026-05-03T13:06:38.103Z</time></trkpt><trkpt lat="44.7854839" lon="10.4829099"><ele>39.0</ele><time>2026-05-03T13:06:39.103Z</time></trkpt><trkpt lat="44.7856444" lon="10.4825658"><ele>39.0</ele><time>2026-05-03T13:06:40.103Z</time></trkpt><trkpt lat="44.7858068" lon="10.4822168"><ele>39.0</ele><time>2026-05-03T13:06:41.102Z</time></trkpt><trkpt lat="44.7859693" lon="10.4818697"><ele>39.0</ele><time>2026-05-03T13:06:42.103Z</time></trkpt><trkpt lat="44.7861298" lon="10.4815233"><ele>39.0</ele><time>2026-05-03T13:06:43.103Z</time></trkpt><trkpt lat="44.7862893" lon="10.4811797"><ele>40.0</ele><time>2026-05-03T13:06:44.102Z</time></trkpt><trkpt lat="44.7864533" lon="10.4808331"><ele>41.0</ele><time>2026-05-03T13:06:45.102Z</time></trkpt><trkpt lat="44.7866142" lon="10.4804899"><ele>41.5</ele><time>2026-05-03T13:06:46.103Z</time></trkpt><trkpt lat="44.7867804" lon="10.4801531"><ele>42.0</ele><time>2026-05-03T13:06:47.103Z</time></trkpt><trkpt lat="44.786947" lon="10.4798127"><ele>40.5</ele><time>2026-05-03T13:06:48.103Z</time></trkpt><trkpt lat="44.7871148" lon="10.4794738"><ele>39.0</ele><time>2026-05-03T13:06:49.103Z</time></trkpt><trkpt lat="44.7872818" lon="10.4791287"><ele>39.0</ele><time>2026-05-03T13:06:50.102Z</time></trkpt><trkpt lat="44.7874499" lon="10.4787862"><ele>39.0</ele><time>2026-05-03T13:06:51.103Z</time></trkpt><trkpt lat="44.7876157" lon="10.4784453"><ele>39.0</ele><time>2026-05-03T13:06:52.102Z</time></trkpt><trkpt lat="44.7877845" lon="10.478103"><ele>39.0</ele><time>2026-05-03T13:06:53.102Z</time></trkpt><trkpt lat="44.7879486" lon="10.4777657"><ele>39.0</ele><time>2026-05-03T13:06:54.102Z</time></trkpt><trkpt lat="44.7881141" lon="10.4774264"><ele>39.0</ele><time>2026-05-03T13:06:55.103Z</time></trkpt><trkpt lat="44.7882785" lon="10.4770859"><ele>39.0</ele><time>2026-05-03T13:06:56.103Z</time></trkpt><trkpt lat="44.7884409" lon="10.4767416"><ele>39.0</ele><time>2026-05-03T13:06:57.103Z</time></trkpt><trkpt lat="44.7886008" lon="10.4763991"><ele>39.5</ele><time>2026-05-03T13:06:58.103Z</time></trkpt><trkpt lat="44.7887615" lon="10.4760507"><ele>40.0</ele><time>2026-05-03T13:06:59.103Z</time></trkpt><trkpt lat="44.7889194" lon="10.4757004"><ele>41.0</ele><time>2026-05-03T13:07:00.103Z</time></trkpt><trkpt lat="44.7890724" lon="10.4753475"><ele>42.0</ele><time>2026-05-03T13:07:01.102Z</time></trkpt><trkpt lat="44.7892298" lon="10.4749982"><ele>41.0</ele><time>2026-05-03T13:07:02.103Z</time></trkpt><trkpt lat="44.7893912" lon="10.4746439"><ele>40.0</ele><time>2026-05-03T13:07:03.103Z</time></trkpt><trkpt lat="44.7895512" lon="10.4742995"><ele>40.0</ele><time>2026-05-03T13:07:04.102Z</time></trkpt><trkpt lat="44.7897109" lon="10.4739568"><ele>40.0</ele><time>2026-05-03T13:07:05.102Z</time></trkpt><trkpt lat="44.7898729" lon="10.4736144"><ele>40.5</ele><time>2026-05-03T13:07:06.103Z</time></trkpt><trkpt lat="44.7900332" lon="10.4732729"><ele>41.0</ele><time>2026-05-03T13:07:07.103Z</time></trkpt><trkpt lat="44.7901976" lon="10.4729256"><ele>41.5</ele><time>2026-05-03T13:07:08.102Z</time></trkpt><trkpt lat="44.7903572" lon="10.4725835"><ele>42.0</ele><time>2026-05-03T13:07:09.102Z</time></trkpt><trkpt lat="44.7905193" lon="10.4722398"><ele>43.0</ele><time>2026-05-03T13:07:10.102Z</time></trkpt><trkpt lat="44.7906813" lon="10.4718921"><ele>44.0</ele><time>2026-05-03T13:07:11.102Z</time></trkpt><trkpt lat="44.7908421" lon="10.4715457"><ele>43.5</ele><time>2026-05-03T13:07:12.102Z</time></trkpt><trkpt lat="44.7910044" lon="10.4712043"><ele>43.0</ele><time>2026-05-03T13:07:13.102Z</time></trkpt><trkpt lat="44.7911659" lon="10.4708614"><ele>42.0</ele><time>2026-05-03T13:07:14.102Z</time></trkpt><trkpt lat="44.7913324" lon="10.470515"><ele>41.0</ele><time>2026-05-03T13:07:15.102Z</time></trkpt><trkpt lat="44.7914942" lon="10.4701737"><ele>41.0</ele><time>2026-05-03T13:07:16.103Z</time></trkpt><trkpt lat="44.7916565" lon="10.4698332"><ele>41.0</ele><time>2026-05-03T13:07:17.103Z</time></trkpt><trkpt lat="44.791821" lon="10.4694857"><ele>40.0</ele><time>2026-05-03T13:07:18.103Z</time></trkpt><trkpt lat="44.7919846" lon="10.4691375"><ele>39.0</ele><time>2026-05-03T13:07:19.102Z</time></trkpt><trkpt lat="44.7921449" lon="10.4687909"><ele>39.0</ele><time>2026-05-03T13:07:20.102Z</time></trkpt><trkpt lat="44.7923062" lon="10.4684514"><ele>39.0</ele><time>2026-05-03T13:07:21.102Z</time></trkpt><trkpt lat="44.7924684" lon="10.4681091"><ele>39.0</ele><time>2026-05-03T13:07:22.103Z</time></trkpt><trkpt lat="44.7926331" lon="10.4677601"><ele>39.0</ele><time>2026-05-03T13:07:23.102Z</time></trkpt><trkpt lat="44.7927969" lon="10.4674128"><ele>39.0</ele><time>2026-05-03T13:07:24.102Z</time></trkpt><trkpt lat="44.7929595" lon="10.4670677"><ele>39.0</ele><time>2026-05-03T13:07:25.103Z</time></trkpt><trkpt lat="44.7931232" lon="10.4667198"><ele>39.0</ele><time>2026-05-03T13:07:26.103Z</time></trkpt><trkpt lat="44.7932889" lon="10.466373"><ele>39.0</ele><time>2026-05-03T13:07:27.102Z</time></trkpt><trkpt lat="44.793451" lon="10.4660337"><ele>38.5</ele><time>2026-05-03T13:07:28.103Z</time></trkpt><trkpt lat="44.7936157" lon="10.4656848"><ele>38.0</ele><time>2026-05-03T13:07:29.103Z</time></trkpt><trkpt lat="44.7937787" lon="10.4653427"><ele>37.5</ele><time>2026-05-03T13:07:30.103Z</time></trkpt><trkpt lat="44.7939408" lon="10.4649988"><ele>37.0</ele><time>2026-05-03T13:07:31.102Z</time></trkpt><trkpt lat="44.7941078" lon="10.4646483"><ele>36.5</ele><time>2026-05-03T13:07:32.102Z</time></trkpt><trkpt lat="44.7942669" lon="10.4643038"><ele>36.0</ele><time>2026-05-03T13:07:33.102Z</time></trkpt><trkpt lat="44.7944278" lon="10.4639579"><ele>36.5</ele><time>2026-05-03T13:07:34.102Z</time></trkpt><trkpt lat="44.7945886" lon="10.4636139"><ele>37.0</ele><time>2026-05-03T13:07:35.102Z</time></trkpt><trkpt lat="44.7947519" lon="10.4632687"><ele>38.0</ele><time>2026-05-03T13:07:36.103Z</time></trkpt><trkpt lat="44.7949119" lon="10.4629228"><ele>39.0</ele><time>2026-05-03T13:07:37.102Z</time></trkpt><trkpt lat="44.7950717" lon="10.4625778"><ele>39.0</ele><time>2026-05-03T13:07:38.102Z</time></trkpt><trkpt lat="44.795233" lon="10.4622288"><ele>39.0</ele><time>2026-05-03T13:07:39.102Z</time></trkpt><trkpt lat="44.7953921" lon="10.461885"><ele>39.0</ele><time>2026-05-03T13:07:40.103Z</time></trkpt><trkpt lat="44.7955551" lon="10.4615359"><ele>39.0</ele><time>2026-05-03T13:07:41.103Z</time></trkpt><trkpt lat="44.7957163" lon="10.4611884"><ele>39.5</ele><time>2026-05-03T13:07:42.103Z</time></trkpt><trkpt lat="44.7958763" lon="10.4608468"><ele>40.0</ele><time>2026-05-03T13:07:43.103Z</time></trkpt><trkpt lat="44.7960365" lon="10.4605004"><ele>41.0</ele><time>2026-05-03T13:07:44.103Z</time></trkpt><trkpt lat="44.796203" lon="10.4601442"><ele>42.0</ele><time>2026-05-03T13:07:45.102Z</time></trkpt><trkpt lat="44.7963581" lon="10.4597994"><ele>41.0</ele><time>2026-05-03T13:07:46.103Z</time></trkpt><trkpt lat="44.7965145" lon="10.459451"><ele>40.0</ele><time>2026-05-03T13:07:47.102Z</time></trkpt><trkpt lat="44.7966702" lon="10.4591035"><ele>40.0</ele><time>2026-05-03T13:07:48.103Z</time></trkpt><trkpt lat="44.7968258" lon="10.4587541"><ele>40.0</ele><time>2026-05-03T13:07:49.103Z</time></trkpt><trkpt lat="44.7969798" lon="10.4584052"><ele>40.0</ele><time>2026-05-03T13:07:50.103Z</time></trkpt><trkpt lat="44.7971327" lon="10.4580518"><ele>40.0</ele><time>2026-05-03T13:07:51.103Z</time></trkpt><trkpt lat="44.7972856" lon="10.4576991"><ele>40.0</ele><time>2026-05-03T13:07:52.102Z</time></trkpt><trkpt lat="44.7974389" lon="10.4573412"><ele>40.0</ele><time>2026-05-03T13:07:53.103Z</time></trkpt><trkpt lat="44.7975927" lon="10.4569874"><ele>40.0</ele><time>2026-05-03T13:07:54.103Z</time></trkpt><trkpt lat="44.7977461" lon="10.4566355"><ele>40.0</ele><time>2026-05-03T13:07:55.103Z</time></trkpt><trkpt lat="44.7978968" lon="10.4562838"><ele>40.0</ele><time>2026-05-03T13:07:56.103Z</time></trkpt><trkpt lat="44.7980451" lon="10.4559312"><ele>40.0</ele><time>2026-05-03T13:07:57.102Z</time></trkpt><trkpt lat="44.7981926" lon="10.4555766"><ele>39.5</ele><time>2026-05-03T13:07:58.102Z</time></trkpt><trkpt lat="44.7983434" lon="10.4552154"><ele>39.0</ele><time>2026-05-03T13:07:59.103Z</time></trkpt><trkpt lat="44.7984891" lon="10.4548592"><ele>40.5</ele><time>2026-05-03T13:08:00.102Z</time></trkpt><trkpt lat="44.7986354" lon="10.4545"><ele>42.0</ele><time>2026-05-03T13:08:01.103Z</time></trkpt><trkpt lat="44.7987821" lon="10.4541364"><ele>41.0</ele><time>2026-05-03T13:08:02.102Z</time></trkpt><trkpt lat="44.7989294" lon="10.4537747"><ele>40.0</ele><time>2026-05-03T13:08:03.102Z</time></trkpt><trkpt lat="44.7990758" lon="10.4534145"><ele>40.0</ele><time>2026-05-03T13:08:04.102Z</time></trkpt><trkpt lat="44.7992186" lon="10.4530525"><ele>40.0</ele><time>2026-05-03T13:08:05.103Z</time></trkpt><trkpt lat="44.7993623" lon="10.4526912"><ele>40.0</ele><time>2026-05-03T13:08:06.103Z</time></trkpt><trkpt lat="44.7995025" lon="10.452338"><ele>40.0</ele><time>2026-05-03T13:08:07.103Z</time></trkpt><trkpt lat="44.7996452" lon="10.4519761"><ele>40.0</ele><time>2026-05-03T13:08:08.102Z</time></trkpt><trkpt lat="44.7997851" lon="10.4516148"><ele>40.0</ele><time>2026-05-03T13:08:09.103Z</time></trkpt><trkpt lat="44.799923" lon="10.4512568"><ele>39.5</ele><time>2026-05-03T13:08:10.103Z</time></trkpt><trkpt lat="44.8000604" lon="10.4508912"><ele>39.0</ele><time>2026-05-03T13:08:11.102Z</time></trkpt><trkpt lat="44.8001961" lon="10.4505262"><ele>39.0</ele><time>2026-05-03T13:08:12.102Z</time></trkpt><trkpt lat="44.8003324" lon="10.450159"><ele>39.0</ele><time>2026-05-03T13:08:13.102Z</time></trkpt><trkpt lat="44.8004675" lon="10.4497924"><ele>39.5</ele><time>2026-05-03T13:08:14.103Z</time></trkpt><trkpt lat="44.8006063" lon="10.4494194"><ele>40.0</ele><time>2026-05-03T13:08:15.102Z</time></trkpt><trkpt lat="44.8007403" lon="10.4490549"><ele>40.0</ele><time>2026-05-03T13:08:16.102Z</time></trkpt><trkpt lat="44.8008774" lon="10.4486899"><ele>40.0</ele><time>2026-05-03T13:08:17.103Z</time></trkpt><trkpt lat="44.8010168" lon="10.4483215"><ele>39.5</ele><time>2026-05-03T13:08:18.102Z</time></trkpt><trkpt lat="44.801154" lon="10.4479541"><ele>39.0</ele><time>2026-05-03T13:08:19.102Z</time></trkpt><trkpt lat="44.8012877" lon="10.4475858"><ele>39.0</ele><time>2026-05-03T13:08:20.102Z</time></trkpt><trkpt lat="44.8014237" lon="10.4472213"><ele>39.0</ele><time>2026-05-03T13:08:21.103Z</time></trkpt><trkpt lat="44.8015578" lon="10.4468566"><ele>38.5</ele><time>2026-05-03T13:08:22.102Z</time></trkpt><trkpt lat="44.8016934" lon="10.4464875"><ele>38.0</ele><time>2026-05-03T13:08:23.103Z</time></trkpt><trkpt lat="44.8018288" lon="10.4461238"><ele>37.0</ele><time>2026-05-03T13:08:24.103Z</time></trkpt><trkpt lat="44.8019669" lon="10.445759"><ele>36.0</ele><time>2026-05-03T13:08:25.103Z</time></trkpt><trkpt lat="44.8021065" lon="10.4453924"><ele>36.0</ele><time>2026-05-03T13:08:26.103Z</time></trkpt><trkpt lat="44.8022425" lon="10.44503"><ele>36.0</ele><time>2026-05-03T13:08:27.102Z</time></trkpt><trkpt lat="44.8023783" lon="10.4446656"><ele>36.0</ele><time>2026-05-03T13:08:28.103Z</time></trkpt><trkpt lat="44.8025114" lon="10.444295"><ele>36.0</ele><time>2026-05-03T13:08:29.102Z</time></trkpt><trkpt lat="44.8026482" lon="10.4439228"><ele>36.0</ele><time>2026-05-03T13:08:30.102Z</time></trkpt><trkpt lat="44.8027841" lon="10.4435551"><ele>36.0</ele><time>2026-05-03T13:08:31.102Z</time></trkpt><trkpt lat="44.8029202" lon="10.4431854"><ele>36.5</ele><time>2026-05-03T13:08:32.102Z</time></trkpt><trkpt lat="44.8030574" lon="10.4428192"><ele>37.0</ele><time>2026-05-03T13:08:33.102Z</time></trkpt><trkpt lat="44.8031954" lon="10.4424533"><ele>36.5</ele><time>2026-05-03T13:08:34.103Z</time></trkpt><trkpt lat="44.80333" lon="10.4420914"><ele>36.0</ele><time>2026-05-03T13:08:35.102Z</time></trkpt><trkpt lat="44.8034626" lon="10.4417235"><ele>37.0</ele><time>2026-05-03T13:08:36.103Z</time></trkpt><trkpt lat="44.8035973" lon="10.441349"><ele>38.0</ele><time>2026-05-03T13:08:37.102Z</time></trkpt><trkpt lat="44.8037314" lon="10.4409749"><ele>38.5</ele><time>2026-05-03T13:08:38.102Z</time></trkpt><trkpt lat="44.8038673" lon="10.4406043"><ele>39.0</ele><time>2026-05-03T13:08:39.102Z</time></trkpt><trkpt lat="44.8040046" lon="10.4402314"><ele>39.5</ele><time>2026-05-03T13:08:40.103Z</time></trkpt><trkpt lat="44.8041418" lon="10.4398593"><ele>40.0</ele><time>2026-05-03T13:08:41.103Z</time></trkpt><trkpt lat="44.8042787" lon="10.4394801"><ele>39.0</ele><time>2026-05-03T13:08:42.103Z</time></trkpt><trkpt lat="44.8044187" lon="10.4391013"><ele>38.0</ele><time>2026-05-03T13:08:43.103Z</time></trkpt><trkpt lat="44.8045546" lon="10.438729"><ele>38.0</ele><time>2026-05-03T13:08:44.103Z</time></trkpt><trkpt lat="44.8046933" lon="10.4383531"><ele>38.0</ele><time>2026-05-03T13:08:45.102Z</time></trkpt><trkpt lat="44.8048295" lon="10.4379789"><ele>38.0</ele><time>2026-05-03T13:08:46.102Z</time></trkpt><trkpt lat="44.8049653" lon="10.4376069"><ele>38.0</ele><time>2026-05-03T13:08:47.102Z</time></trkpt><trkpt lat="44.8051024" lon="10.4372406"><ele>38.0</ele><time>2026-05-03T13:08:48.103Z</time></trkpt><trkpt lat="44.8052402" lon="10.4368683"><ele>38.0</ele><time>2026-05-03T13:08:49.103Z</time></trkpt><trkpt lat="44.8053804" lon="10.4364966"><ele>38.5</ele><time>2026-05-03T13:08:50.102Z</time></trkpt><trkpt lat="44.8055198" lon="10.4361288"><ele>39.0</ele><time>2026-05-03T13:08:51.103Z</time></trkpt><trkpt lat="44.8056567" lon="10.4357579"><ele>39.0</ele><time>2026-05-03T13:08:52.103Z</time></trkpt><trkpt lat="44.8057965" lon="10.4353799"><ele>39.0</ele><time>2026-05-03T13:08:53.103Z</time></trkpt><trkpt lat="44.8059341" lon="10.435008"><ele>38.0</ele><time>2026-05-03T13:08:54.103Z</time></trkpt><trkpt lat="44.8060721" lon="10.4346326"><ele>37.0</ele><time>2026-05-03T13:08:55.103Z</time></trkpt><trkpt lat="44.8062124" lon="10.4342602"><ele>37.0</ele><time>2026-05-03T13:08:56.102Z</time></trkpt><trkpt lat="44.8063471" lon="10.4338861"><ele>37.0</ele><time>2026-05-03T13:08:57.103Z</time></trkpt><trkpt lat="44.8064837" lon="10.4335158"><ele>37.0</ele><time>2026-05-03T13:08:58.102Z</time></trkpt><trkpt lat="44.8066231" lon="10.433139"><ele>37.0</ele><time>2026-05-03T13:08:59.102Z</time></trkpt><trkpt lat="44.8067618" lon="10.4327641"><ele>36.5</ele><time>2026-05-03T13:09:00.102Z</time></trkpt><trkpt lat="44.8069015" lon="10.4323924"><ele>36.0</ele><time>2026-05-03T13:09:01.102Z</time></trkpt><trkpt lat="44.8070392" lon="10.4320247"><ele>37.0</ele><time>2026-05-03T13:09:02.102Z</time></trkpt><trkpt lat="44.8071776" lon="10.4316568"><ele>38.0</ele><time>2026-05-03T13:09:03.103Z</time></trkpt><trkpt lat="44.8073162" lon="10.4312873"><ele>38.0</ele><time>2026-05-03T13:09:04.102Z</time></trkpt><trkpt lat="44.8074545" lon="10.4309104"><ele>38.0</ele><time>2026-05-03T13:09:05.103Z</time></trkpt><trkpt lat="44.8075937" lon="10.4305346"><ele>37.0</ele><time>2026-05-03T13:09:06.102Z</time></trkpt><trkpt lat="44.8077353" lon="10.4301572"><ele>36.0</ele><time>2026-05-03T13:09:07.102Z</time></trkpt><trkpt lat="44.807873" lon="10.429783"><ele>36.0</ele><time>2026-05-03T13:09:08.102Z</time></trkpt><trkpt lat="44.8080144" lon="10.4294058"><ele>36.0</ele><time>2026-05-03T13:09:09.103Z</time></trkpt><trkpt lat="44.8081522" lon="10.4290313"><ele>37.0</ele><time>2026-05-03T13:09:10.103Z</time></trkpt><trkpt lat="44.8082919" lon="10.4286534"><ele>38.0</ele><time>2026-05-03T13:09:11.103Z</time></trkpt><trkpt lat="44.8084314" lon="10.4282759"><ele>37.5</ele><time>2026-05-03T13:09:12.103Z</time></trkpt><trkpt lat="44.8085708" lon="10.4279042"><ele>37.0</ele><time>2026-05-03T13:09:13.103Z</time></trkpt><trkpt lat="44.8087074" lon="10.4275404"><ele>37.0</ele><time>2026-05-03T13:09:14.102Z</time></trkpt><trkpt lat="44.8088492" lon="10.4271685"><ele>37.0</ele><time>2026-05-03T13:09:15.102Z</time></trkpt><trkpt lat="44.8089873" lon="10.4267987"><ele>38.0</ele><time>2026-05-03T13:09:16.103Z</time></trkpt><trkpt lat="44.8091258" lon="10.4264285"><ele>39.0</ele><time>2026-05-03T13:09:17.102Z</time></trkpt><trkpt lat="44.809267" lon="10.426061"><ele>38.5</ele><time>2026-05-03T13:09:18.102Z</time></trkpt><trkpt lat="44.8094085" lon="10.4256927"><ele>38.0</ele><time>2026-05-03T13:09:19.102Z</time></trkpt><trkpt lat="44.8095513" lon="10.4253233"><ele>36.5</ele><time>2026-05-03T13:09:20.103Z</time></trkpt><trkpt lat="44.8096937" lon="10.4249539"><ele>35.0</ele><time>2026-05-03T13:09:21.103Z</time></trkpt><trkpt lat="44.809831" lon="10.4245844"><ele>35.0</ele><time>2026-05-03T13:09:22.102Z</time></trkpt><trkpt lat="44.8099694" lon="10.4242177"><ele>35.0</ele><time>2026-05-03T13:09:23.103Z</time></trkpt><trkpt lat="44.8101084" lon="10.4238437"><ele>35.0</ele><time>2026-05-03T13:09:24.103Z</time></trkpt><trkpt lat="44.8102475" lon="10.4234742"><ele>35.0</ele><time>2026-05-03T13:09:25.103Z</time></trkpt><trkpt lat="44.8103865" lon="10.423105"><ele>35.0</ele><time>2026-05-03T13:09:26.103Z</time></trkpt><trkpt lat="44.8105245" lon="10.4227304"><ele>35.0</ele><time>2026-05-03T13:09:27.102Z</time></trkpt><trkpt lat="44.8106644" lon="10.422358"><ele>35.5</ele><time>2026-05-03T13:09:28.103Z</time></trkpt><trkpt lat="44.8108031" lon="10.4219805"><ele>36.0</ele><time>2026-05-03T13:09:29.103Z</time></trkpt><trkpt lat="44.810944" lon="10.4216097"><ele>37.0</ele><time>2026-05-03T13:09:30.102Z</time></trkpt><trkpt lat="44.8110865" lon="10.4212394"><ele>38.0</ele><time>2026-05-03T13:09:31.102Z</time></trkpt><trkpt lat="44.8112282" lon="10.420875"><ele>38.0</ele><time>2026-05-03T13:09:32.103Z</time></trkpt><trkpt lat="44.8113715" lon="10.4205051"><ele>38.0</ele><time>2026-05-03T13:09:33.103Z</time></trkpt><trkpt lat="44.8115084" lon="10.4201524"><ele>37.5</ele><time>2026-05-03T13:09:34.102Z</time></trkpt><trkpt lat="44.8116362" lon="10.4198122"><ele>37.0</ele><time>2026-05-03T13:09:35.102Z</time></trkpt><trkpt lat="44.8117618" lon="10.4194906"><ele>37.0</ele><time>2026-05-03T13:09:36.103Z</time></trkpt><trkpt lat="44.8118813" lon="10.4191804"><ele>37.0</ele><time>2026-05-03T13:09:37.103Z</time></trkpt><trkpt lat="44.8119911" lon="10.4188823"><ele>36.5</ele><time>2026-05-03T13:09:38.103Z</time></trkpt><trkpt lat="44.8120977" lon="10.4185941"><ele>36.0</ele><time>2026-05-03T13:09:39.103Z</time></trkpt><trkpt lat="44.8122004" lon="10.4183165"><ele>36.0</ele><time>2026-05-03T13:09:40.103Z</time></trkpt><trkpt lat="44.8122968" lon="10.4180562"><ele>36.0</ele><time>2026-05-03T13:09:41.102Z</time></trkpt><trkpt lat="44.812394" lon="10.417796"><ele>36.0</ele><time>2026-05-03T13:09:42.102Z</time></trkpt><trkpt lat="44.8124936" lon="10.4175239"><ele>36.0</ele><time>2026-05-03T13:09:43.102Z</time></trkpt><trkpt lat="44.8125936" lon="10.4172519"><ele>36.0</ele><time>2026-05-03T13:09:44.103Z</time></trkpt><trkpt lat="44.8126955" lon="10.4169778"><ele>36.0</ele><time>2026-05-03T13:09:45.103Z</time></trkpt><trkpt lat="44.8128" lon="10.4166954"><ele>36.0</ele><time>2026-05-03T13:09:46.102Z</time></trkpt><trkpt lat="44.8129063" lon="10.4164078"><ele>36.0</ele><time>2026-05-03T13:09:47.103Z</time></trkpt><trkpt lat="44.8130143" lon="10.4161182"><ele>37.0</ele><time>2026-05-03T13:09:48.102Z</time></trkpt><trkpt lat="44.813122" lon="10.4158259"><ele>38.0</ele><time>2026-05-03T13:09:49.103Z</time></trkpt><trkpt lat="44.8132325" lon="10.4155275"><ele>38.0</ele><time>2026-05-03T13:09:50.103Z</time></trkpt><trkpt lat="44.8133411" lon="10.4152213"><ele>38.0</ele><time>2026-05-03T13:09:51.102Z</time></trkpt><trkpt lat="44.8134548" lon="10.4149138"><ele>37.0</ele><time>2026-05-03T13:09:52.102Z</time></trkpt><trkpt lat="44.8135654" lon="10.4146029"><ele>36.0</ele><time>2026-05-03T13:09:53.103Z</time></trkpt><trkpt lat="44.8136779" lon="10.4142912"><ele>36.0</ele><time>2026-05-03T13:09:54.103Z</time></trkpt><trkpt lat="44.8137936" lon="10.4139734"><ele>36.0</ele><time>2026-05-03T13:09:55.102Z</time></trkpt><trkpt lat="44.8139082" lon="10.4136531"><ele>37.0</ele><time>2026-05-03T13:09:56.103Z</time></trkpt><trkpt lat="44.8140303" lon="10.4133265"><ele>38.0</ele><time>2026-05-03T13:09:57.102Z</time></trkpt><trkpt lat="44.8141491" lon="10.4130018"><ele>38.0</ele><time>2026-05-03T13:09:58.103Z</time></trkpt><trkpt lat="44.8142644" lon="10.412681"><ele>38.0</ele><time>2026-05-03T13:09:59.103Z</time></trkpt><trkpt lat="44.8143833" lon="10.4123563"><ele>37.0</ele><time>2026-05-03T13:10:00.103Z</time></trkpt><trkpt lat="44.8144998" lon="10.4120321"><ele>36.0</ele><time>2026-05-03T13:10:01.102Z</time></trkpt><trkpt lat="44.8146159" lon="10.4117099"><ele>36.0</ele><time>2026-05-03T13:10:02.103Z</time></trkpt><trkpt lat="44.8147357" lon="10.4113855"><ele>36.0</ele><time>2026-05-03T13:10:03.102Z</time></trkpt><trkpt lat="44.814856" lon="10.4110593"><ele>36.5</ele><time>2026-05-03T13:10:04.102Z</time></trkpt><trkpt lat="44.8149795" lon="10.4107352"><ele>37.0</ele><time>2026-05-03T13:10:05.102Z</time></trkpt><trkpt lat="44.8151018" lon="10.4104112"><ele>35.5</ele><time>2026-05-03T13:10:06.102Z</time></trkpt><trkpt lat="44.81523" lon="10.4100812"><ele>34.0</ele><time>2026-05-03T13:10:07.103Z</time></trkpt><trkpt lat="44.8153552" lon="10.4097458"><ele>34.5</ele><time>2026-05-03T13:10:08.103Z</time></trkpt><trkpt lat="44.8154841" lon="10.4094068"><ele>35.0</ele><time>2026-05-03T13:10:09.103Z</time></trkpt><trkpt lat="44.8156142" lon="10.4090666"><ele>36.0</ele><time>2026-05-03T13:10:10.102Z</time></trkpt><trkpt lat="44.8157506" lon="10.408718"><ele>37.0</ele><time>2026-05-03T13:10:11.102Z</time></trkpt><trkpt lat="44.8158821" lon="10.4083684"><ele>36.5</ele><time>2026-05-03T13:10:12.102Z</time></trkpt><trkpt lat="44.8160179" lon="10.4080112"><ele>36.0</ele><time>2026-05-03T13:10:13.103Z</time></trkpt><trkpt lat="44.8161542" lon="10.4076573"><ele>35.5</ele><time>2026-05-03T13:10:14.102Z</time></trkpt><trkpt lat="44.8162873" lon="10.4073041"><ele>35.0</ele><time>2026-05-03T13:10:15.103Z</time></trkpt><trkpt lat="44.8164248" lon="10.4069327"><ele>35.0</ele><time>2026-05-03T13:10:16.103Z</time></trkpt><trkpt lat="44.8165621" lon="10.406565"><ele>35.0</ele><time>2026-05-03T13:10:17.102Z</time></trkpt><trkpt lat="44.8166922" lon="10.4062144"><ele>33.5</ele><time>2026-05-03T13:10:18.102Z</time></trkpt><trkpt lat="44.81682" lon="10.4058647"><ele>32.0</ele><time>2026-05-03T13:10:19.103Z</time></trkpt><trkpt lat="44.8169409" lon="10.405524"><ele>32.5</ele><time>2026-05-03T13:10:20.103Z</time></trkpt><trkpt lat="44.8170662" lon="10.4051833"><ele>33.0</ele><time>2026-05-03T13:10:21.103Z</time></trkpt><trkpt lat="44.8171835" lon="10.404844"><ele>33.5</ele><time>2026-05-03T13:10:22.102Z</time></trkpt><trkpt lat="44.8173037" lon="10.4045058"><ele>34.0</ele><time>2026-05-03T13:10:23.102Z</time></trkpt><trkpt lat="44.817423" lon="10.4041621"><ele>34.0</ele><time>2026-05-03T13:10:24.102Z</time></trkpt><trkpt lat="44.817545" lon="10.403822"><ele>34.0</ele><time>2026-05-03T13:10:25.102Z</time></trkpt><trkpt lat="44.8176638" lon="10.4034804"><ele>34.5</ele><time>2026-05-03T13:10:26.103Z</time></trkpt><trkpt lat="44.8177859" lon="10.4031374"><ele>35.0</ele><time>2026-05-03T13:10:27.102Z</time></trkpt><trkpt lat="44.8179075" lon="10.4027947"><ele>35.5</ele><time>2026-05-03T13:10:28.103Z</time></trkpt><trkpt lat="44.8180299" lon="10.4024496"><ele>36.0</ele><time>2026-05-03T13:10:29.103Z</time></trkpt><trkpt lat="44.818157" lon="10.4021047"><ele>34.5</ele><time>2026-05-03T13:10:30.103Z</time></trkpt><trkpt lat="44.8182881" lon="10.4017618"><ele>33.0</ele><time>2026-05-03T13:10:31.102Z</time></trkpt><trkpt lat="44.8184163" lon="10.4014236"><ele>34.0</ele><time>2026-05-03T13:10:32.103Z</time></trkpt><trkpt lat="44.8185406" lon="10.40108"><ele>35.0</ele><time>2026-05-03T13:10:33.103Z</time></trkpt><trkpt lat="44.8186684" lon="10.4007348"><ele>35.0</ele><time>2026-05-03T13:10:34.103Z</time></trkpt><trkpt lat="44.8187935" lon="10.4003944"><ele>35.0</ele><time>2026-05-03T13:10:35.102Z</time></trkpt><trkpt lat="44.8189181" lon="10.4000572"><ele>35.0</ele><time>2026-05-03T13:10:36.103Z</time></trkpt><trkpt lat="44.8190433" lon="10.3997193"><ele>35.0</ele><time>2026-05-03T13:10:37.103Z</time></trkpt><trkpt lat="44.8191678" lon="10.3993812"><ele>35.0</ele><time>2026-05-03T13:10:38.102Z</time></trkpt><trkpt lat="44.8192954" lon="10.39904"><ele>35.0</ele><time>2026-05-03T13:10:39.102Z</time></trkpt><trkpt lat="44.8194234" lon="10.3987001"><ele>35.0</ele><time>2026-05-03T13:10:40.103Z</time></trkpt><trkpt lat="44.8195503" lon="10.3983582"><ele>35.0</ele><time>2026-05-03T13:10:41.103Z</time></trkpt><trkpt lat="44.819678" lon="10.3980188"><ele>35.5</ele><time>2026-05-03T13:10:42.103Z</time></trkpt><trkpt lat="44.8197971" lon="10.3976909"><ele>36.0</ele><time>2026-05-03T13:10:43.102Z</time></trkpt><trkpt lat="44.8199218" lon="10.3973625"><ele>36.0</ele><time>2026-05-03T13:10:44.103Z</time></trkpt><trkpt lat="44.8200397" lon="10.3970434"><ele>36.0</ele><time>2026-05-03T13:10:45.103Z</time></trkpt><trkpt lat="44.8201601" lon="10.3967215"><ele>35.5</ele><time>2026-05-03T13:10:46.103Z</time></trkpt><trkpt lat="44.8202802" lon="10.3964066"><ele>35.0</ele><time>2026-05-03T13:10:47.102Z</time></trkpt><trkpt lat="44.8203979" lon="10.3960937"><ele>35.0</ele><time>2026-05-03T13:10:48.103Z</time></trkpt><trkpt lat="44.8205123" lon="10.395781"><ele>35.0</ele><time>2026-05-03T13:10:49.102Z</time></trkpt><trkpt lat="44.8206293" lon="10.3954614"><ele>35.0</ele><time>2026-05-03T13:10:50.103Z</time></trkpt><trkpt lat="44.8207451" lon="10.3951427"><ele>35.0</ele><time>2026-05-03T13:10:51.103Z</time></trkpt><trkpt lat="44.820862" lon="10.3948258"><ele>34.5</ele><time>2026-05-03T13:10:52.103Z</time></trkpt><trkpt lat="44.8209783" lon="10.3945027"><ele>34.0</ele><time>2026-05-03T13:10:53.102Z</time></trkpt><trkpt lat="44.8210971" lon="10.3941815"><ele>34.0</ele><time>2026-05-03T13:10:54.102Z</time></trkpt><trkpt lat="44.8212171" lon="10.3938579"><ele>34.0</ele><time>2026-05-03T13:10:55.102Z</time></trkpt><trkpt lat="44.8213407" lon="10.3935312"><ele>34.5</ele><time>2026-05-03T13:10:56.102Z</time></trkpt><trkpt lat="44.8214709" lon="10.3931894"><ele>35.0</ele><time>2026-05-03T13:10:57.102Z</time></trkpt><trkpt lat="44.8216033" lon="10.3928459"><ele>36.5</ele><time>2026-05-03T13:10:58.102Z</time></trkpt><trkpt lat="44.821737" lon="10.3924909"><ele>38.0</ele><time>2026-05-03T13:10:59.102Z</time></trkpt><trkpt lat="44.8218736" lon="10.3921281"><ele>38.5</ele><time>2026-05-03T13:11:00.102Z</time></trkpt><trkpt lat="44.8220064" lon="10.3917696"><ele>39.0</ele><time>2026-05-03T13:11:01.103Z</time></trkpt><trkpt lat="44.8221354" lon="10.3914082"><ele>38.5</ele><time>2026-05-03T13:11:02.103Z</time></trkpt><trkpt lat="44.8222671" lon="10.3910474"><ele>38.0</ele><time>2026-05-03T13:11:03.103Z</time></trkpt><trkpt lat="44.8224108" lon="10.3906938"><ele>38.5</ele><time>2026-05-03T13:11:04.102Z</time></trkpt><trkpt lat="44.8225334" lon="10.390335"><ele>39.0</ele><time>2026-05-03T13:11:05.103Z</time></trkpt><trkpt lat="44.8226677" lon="10.3899832"><ele>37.5</ele><time>2026-05-03T13:11:06.103Z</time></trkpt><trkpt lat="44.8227948" lon="10.3896284"><ele>36.0</ele><time>2026-05-03T13:11:07.103Z</time></trkpt><trkpt lat="44.8229218" lon="10.3892654"><ele>36.0</ele><time>2026-05-03T13:11:08.103Z</time></trkpt><trkpt lat="44.8230517" lon="10.3889072"><ele>36.0</ele><time>2026-05-03T13:11:09.102Z</time></trkpt><trkpt lat="44.8231824" lon="10.3885577"><ele>36.0</ele><time>2026-05-03T13:11:10.103Z</time></trkpt><trkpt lat="44.8233136" lon="10.3882018"><ele>36.0</ele><time>2026-05-03T13:11:11.102Z</time></trkpt><trkpt lat="44.823442" lon="10.3878408"><ele>37.0</ele><time>2026-05-03T13:11:12.102Z</time></trkpt><trkpt lat="44.8235719" lon="10.3874819"><ele>38.0</ele><time>2026-05-03T13:11:13.102Z</time></trkpt><trkpt lat="44.8237024" lon="10.3871233"><ele>39.0</ele><time>2026-05-03T13:11:14.103Z</time></trkpt><trkpt lat="44.8238391" lon="10.386758"><ele>40.0</ele><time>2026-05-03T13:11:15.102Z</time></trkpt><trkpt lat="44.8239712" lon="10.3863826"><ele>40.0</ele><time>2026-05-03T13:11:16.102Z</time></trkpt><trkpt lat="44.8241086" lon="10.3860018"><ele>40.0</ele><time>2026-05-03T13:11:17.102Z</time></trkpt><trkpt lat="44.8242466" lon="10.3856315"><ele>41.5</ele><time>2026-05-03T13:11:18.103Z</time></trkpt><trkpt lat="44.8243893" lon="10.3852559"><ele>43.0</ele><time>2026-05-03T13:11:19.103Z</time></trkpt><trkpt lat="44.8245264" lon="10.3848828"><ele>42.0</ele><time>2026-05-03T13:11:20.102Z</time></trkpt><trkpt lat="44.8246681" lon="10.384511"><ele>41.0</ele><time>2026-05-03T13:11:21.103Z</time></trkpt><trkpt lat="44.8248084" lon="10.3841389"><ele>41.0</ele><time>2026-05-03T13:11:22.102Z</time></trkpt><trkpt lat="44.8249491" lon="10.3837641"><ele>41.0</ele><time>2026-05-03T13:11:23.102Z</time></trkpt><trkpt lat="44.8250879" lon="10.3833903"><ele>40.0</ele><time>2026-05-03T13:11:24.102Z</time></trkpt><trkpt lat="44.8252261" lon="10.3830157"><ele>39.0</ele><time>2026-05-03T13:11:25.102Z</time></trkpt><trkpt lat="44.8253653" lon="10.3826429"><ele>39.0</ele><time>2026-05-03T13:11:26.102Z</time></trkpt><trkpt lat="44.8255056" lon="10.3822676"><ele>39.0</ele><time>2026-05-03T13:11:27.103Z</time></trkpt><trkpt lat="44.8256456" lon="10.3818976"><ele>39.0</ele><time>2026-05-03T13:11:28.102Z</time></trkpt><trkpt lat="44.8257821" lon="10.3815267"><ele>39.0</ele><time>2026-05-03T13:11:29.103Z</time></trkpt><trkpt lat="44.8259211" lon="10.3811537"><ele>38.5</ele><time>2026-05-03T13:11:30.103Z</time></trkpt><trkpt lat="44.8260617" lon="10.3807833"><ele>38.0</ele><time>2026-05-03T13:11:31.102Z</time></trkpt><trkpt lat="44.8262055" lon="10.3804141"><ele>38.5</ele><time>2026-05-03T13:11:32.102Z</time></trkpt><trkpt lat="44.8263457" lon="10.3800415"><ele>39.0</ele><time>2026-05-03T13:11:33.102Z</time></trkpt><trkpt lat="44.8264879" lon="10.379668"><ele>39.0</ele><time>2026-05-03T13:11:34.103Z</time></trkpt><trkpt lat="44.8266239" lon="10.3792999"><ele>39.0</ele><time>2026-05-03T13:11:35.103Z</time></trkpt><trkpt lat="44.8267612" lon="10.3789299"><ele>38.5</ele><time>2026-05-03T13:11:36.102Z</time></trkpt><trkpt lat="44.8268976" lon="10.3785538"><ele>38.0</ele><time>2026-05-03T13:11:37.103Z</time></trkpt><trkpt lat="44.8270346" lon="10.3781849"><ele>38.0</ele><time>2026-05-03T13:11:38.103Z</time></trkpt><trkpt lat="44.8271748" lon="10.3778149"><ele>38.0</ele><time>2026-05-03T13:11:39.103Z</time></trkpt><trkpt lat="44.8273145" lon="10.3774461"><ele>38.5</ele><time>2026-05-03T13:11:40.102Z</time></trkpt><trkpt lat="44.8274588" lon="10.3770671"><ele>39.0</ele><time>2026-05-03T13:11:41.103Z</time></trkpt><trkpt lat="44.8275983" lon="10.3766973"><ele>38.0</ele><time>2026-05-03T13:11:42.103Z</time></trkpt><trkpt lat="44.8277373" lon="10.3763307"><ele>37.0</ele><time>2026-05-03T13:11:43.102Z</time></trkpt><trkpt lat="44.8278725" lon="10.3759579"><ele>37.0</ele><time>2026-05-03T13:11:44.103Z</time></trkpt><trkpt lat="44.8280085" lon="10.3755815"><ele>37.0</ele><time>2026-05-03T13:11:45.103Z</time></trkpt><trkpt lat="44.8281464" lon="10.3752104"><ele>37.0</ele><time>2026-05-03T13:11:46.102Z</time></trkpt><trkpt lat="44.8282825" lon="10.3748395"><ele>37.0</ele><time>2026-05-03T13:11:47.103Z</time></trkpt><trkpt lat="44.8284207" lon="10.3744653"><ele>36.5</ele><time>2026-05-03T13:11:48.103Z</time></trkpt><trkpt lat="44.8285608" lon="10.3740915"><ele>36.0</ele><time>2026-05-03T13:11:49.102Z</time></trkpt><trkpt lat="44.8287028" lon="10.3737204"><ele>36.0</ele><time>2026-05-03T13:11:50.103Z</time></trkpt><trkpt lat="44.8288451" lon="10.373353"><ele>36.0</ele><time>2026-05-03T13:11:51.102Z</time></trkpt><trkpt lat="44.8289886" lon="10.372977"><ele>36.0</ele><time>2026-05-03T13:11:52.103Z</time></trkpt><trkpt lat="44.8291312" lon="10.3726068"><ele>36.0</ele><time>2026-05-03T13:11:53.103Z</time></trkpt><trkpt lat="44.8292751" lon="10.3722385"><ele>34.0</ele><time>2026-05-03T13:11:54.103Z</time></trkpt><trkpt lat="44.8294148" lon="10.3718697"><ele>32.0</ele><time>2026-05-03T13:11:55.103Z</time></trkpt><trkpt lat="44.8295548" lon="10.371496"><ele>35.0</ele><time>2026-05-03T13:11:56.102Z</time></trkpt><trkpt lat="44.8296918" lon="10.3711252"><ele>38.0</ele><time>2026-05-03T13:11:57.102Z</time></trkpt><trkpt lat="44.8298294" lon="10.3707609"><ele>37.0</ele><time>2026-05-03T13:11:58.102Z</time></trkpt><trkpt lat="44.8299678" lon="10.3703881"><ele>36.0</ele><time>2026-05-03T13:11:59.102Z</time></trkpt><trkpt lat="44.8301011" lon="10.3700164"><ele>37.0</ele><time>2026-05-03T13:12:00.103Z</time></trkpt><trkpt lat="44.8302378" lon="10.3696469"><ele>38.0</ele><time>2026-05-03T13:12:01.102Z</time></trkpt><trkpt lat="44.8303778" lon="10.3692683"><ele>38.0</ele><time>2026-05-03T13:12:02.103Z</time></trkpt><trkpt lat="44.8305184" lon="10.3688947"><ele>38.0</ele><time>2026-05-03T13:12:03.102Z</time></trkpt><trkpt lat="44.8306562" lon="10.3685224"><ele>38.0</ele><time>2026-05-03T13:12:04.102Z</time></trkpt><trkpt lat="44.8307946" lon="10.3681509"><ele>38.0</ele><time>2026-05-03T13:12:05.102Z</time></trkpt><trkpt lat="44.8309334" lon="10.3677767"><ele>36.0</ele><time>2026-05-03T13:12:06.103Z</time></trkpt><trkpt lat="44.8310718" lon="10.3674044"><ele>34.0</ele><time>2026-05-03T13:12:07.103Z</time></trkpt><trkpt lat="44.8312083" lon="10.3670357"><ele>34.0</ele><time>2026-05-03T13:12:08.102Z</time></trkpt><trkpt lat="44.8313479" lon="10.3666632"><ele>34.0</ele><time>2026-05-03T13:12:09.102Z</time></trkpt><trkpt lat="44.831485" lon="10.366296"><ele>33.0</ele><time>2026-05-03T13:12:10.103Z</time></trkpt><trkpt lat="44.8316229" lon="10.3659213"><ele>32.0</ele><time>2026-05-03T13:12:11.102Z</time></trkpt><trkpt lat="44.8317647" lon="10.3655435"><ele>34.0</ele><time>2026-05-03T13:12:12.103Z</time></trkpt><trkpt lat="44.8319038" lon="10.3651691"><ele>36.0</ele><time>2026-05-03T13:12:13.102Z</time></trkpt><trkpt lat="44.8320406" lon="10.3647988"><ele>35.0</ele><time>2026-05-03T13:12:14.103Z</time></trkpt><trkpt lat="44.8321819" lon="10.3644232"><ele>34.0</ele><time>2026-05-03T13:12:15.102Z</time></trkpt><trkpt lat="44.832319" lon="10.3640512"><ele>34.0</ele><time>2026-05-03T13:12:16.103Z</time></trkpt><trkpt lat="44.8324553" lon="10.363681"><ele>34.0</ele><time>2026-05-03T13:12:17.103Z</time></trkpt><trkpt lat="44.8325951" lon="10.3633151"><ele>34.5</ele><time>2026-05-03T13:12:18.102Z</time></trkpt><trkpt lat="44.8327391" lon="10.3629394"><ele>35.0</ele><time>2026-05-03T13:12:19.102Z</time></trkpt><trkpt lat="44.8328799" lon="10.3625622"><ele>34.5</ele><time>2026-05-03T13:12:20.103Z</time></trkpt><trkpt lat="44.8330144" lon="10.3621858"><ele>34.0</ele><time>2026-05-03T13:12:21.102Z</time></trkpt><trkpt lat="44.8331516" lon="10.36181"><ele>34.0</ele><time>2026-05-03T13:12:22.102Z</time></trkpt><trkpt lat="44.8332897" lon="10.3614336"><ele>34.0</ele><time>2026-05-03T13:12:23.103Z</time></trkpt><trkpt lat="44.8334241" lon="10.3610572"><ele>35.5</ele><time>2026-05-03T13:12:24.103Z</time></trkpt><trkpt lat="44.8335605" lon="10.3606853"><ele>37.0</ele><time>2026-05-03T13:12:25.103Z</time></trkpt><trkpt lat="44.8336978" lon="10.3603096"><ele>37.5</ele><time>2026-05-03T13:12:26.103Z</time></trkpt><trkpt lat="44.8338334" lon="10.3599407"><ele>38.0</ele><time>2026-05-03T13:12:27.102Z</time></trkpt><trkpt lat="44.8339729" lon="10.359565"><ele>38.0</ele><time>2026-05-03T13:12:28.103Z</time></trkpt><trkpt lat="44.8341113" lon="10.3591885"><ele>38.0</ele><time>2026-05-03T13:12:29.102Z</time></trkpt><trkpt lat="44.8342496" lon="10.3588122"><ele>36.0</ele><time>2026-05-03T13:12:30.103Z</time></trkpt><trkpt lat="44.8343874" lon="10.3584433"><ele>34.0</ele><time>2026-05-03T13:12:31.102Z</time></trkpt><trkpt lat="44.8345229" lon="10.3580734"><ele>34.5</ele><time>2026-05-03T13:12:32.103Z</time></trkpt><trkpt lat="44.8346642" lon="10.3577005"><ele>35.0</ele><time>2026-05-03T13:12:33.102Z</time></trkpt><trkpt lat="44.8348022" lon="10.3573271"><ele>36.0</ele><time>2026-05-03T13:12:34.102Z</time></trkpt><trkpt lat="44.8349378" lon="10.3569559"><ele>37.0</ele><time>2026-05-03T13:12:35.102Z</time></trkpt><trkpt lat="44.8350762" lon="10.356588"><ele>36.0</ele><time>2026-05-03T13:12:36.103Z</time></trkpt><trkpt lat="44.8352106" lon="10.3562139"><ele>35.0</ele><time>2026-05-03T13:12:37.103Z</time></trkpt><trkpt lat="44.8353499" lon="10.3558443"><ele>35.5</ele><time>2026-05-03T13:12:38.102Z</time></trkpt><trkpt lat="44.8354862" lon="10.3554752"><ele>36.0</ele><time>2026-05-03T13:12:39.102Z</time></trkpt><trkpt lat="44.835624" lon="10.3551048"><ele>36.0</ele><time>2026-05-03T13:12:40.103Z</time></trkpt><trkpt lat="44.8357617" lon="10.3547354"><ele>36.0</ele><time>2026-05-03T13:12:41.103Z</time></trkpt><trkpt lat="44.8358977" lon="10.3543588"><ele>36.0</ele><time>2026-05-03T13:12:42.103Z</time></trkpt><trkpt lat="44.83603" lon="10.3539824"><ele>36.0</ele><time>2026-05-03T13:12:43.102Z</time></trkpt><trkpt lat="44.836165" lon="10.3536044"><ele>36.0</ele><time>2026-05-03T13:12:44.103Z</time></trkpt><trkpt lat="44.8362932" lon="10.3532231"><ele>36.0</ele><time>2026-05-03T13:12:45.103Z</time></trkpt><trkpt lat="44.836421" lon="10.352838"><ele>36.0</ele><time>2026-05-03T13:12:46.102Z</time></trkpt><trkpt lat="44.8365441" lon="10.3524565"><ele>36.0</ele><time>2026-05-03T13:12:47.103Z</time></trkpt><trkpt lat="44.8366626" lon="10.352075"><ele>37.0</ele><time>2026-05-03T13:12:48.103Z</time></trkpt><trkpt lat="44.8367842" lon="10.3516916"><ele>38.0</ele><time>2026-05-03T13:12:49.103Z</time></trkpt><trkpt lat="44.8369021" lon="10.3513055"><ele>38.0</ele><time>2026-05-03T13:12:50.102Z</time></trkpt><trkpt lat="44.8370193" lon="10.3509175"><ele>38.0</ele><time>2026-05-03T13:12:51.102Z</time></trkpt><trkpt lat="44.8371313" lon="10.3505207"><ele>39.5</ele><time>2026-05-03T13:12:52.103Z</time></trkpt><trkpt lat="44.8372409" lon="10.3501278"><ele>41.0</ele><time>2026-05-03T13:12:53.102Z</time></trkpt><trkpt lat="44.8373491" lon="10.3497353"><ele>41.0</ele><time>2026-05-03T13:12:54.102Z</time></trkpt><trkpt lat="44.8374528" lon="10.3493446"><ele>41.0</ele><time>2026-05-03T13:12:55.103Z</time></trkpt><trkpt lat="44.8375553" lon="10.3489477"><ele>39.5</ele><time>2026-05-03T13:12:56.103Z</time></trkpt><trkpt lat="44.8376533" lon="10.3485462"><ele>38.0</ele><time>2026-05-03T13:12:57.103Z</time></trkpt><trkpt lat="44.8377506" lon="10.3481548"><ele>38.5</ele><time>2026-05-03T13:12:58.102Z</time></trkpt><trkpt lat="44.8378459" lon="10.3477567"><ele>39.0</ele><time>2026-05-03T13:12:59.103Z</time></trkpt><trkpt lat="44.837945" lon="10.3473562"><ele>39.0</ele><time>2026-05-03T13:13:00.102Z</time></trkpt><trkpt lat="44.8380428" lon="10.346954"><ele>39.0</ele><time>2026-05-03T13:13:01.103Z</time></trkpt><trkpt lat="44.8381357" lon="10.3465613"><ele>39.0</ele><time>2026-05-03T13:13:02.102Z</time></trkpt><trkpt lat="44.8382317" lon="10.3461627"><ele>39.0</ele><time>2026-05-03T13:13:03.102Z</time></trkpt><trkpt lat="44.8383299" lon="10.3457593"><ele>38.5</ele><time>2026-05-03T13:13:04.102Z</time></trkpt><trkpt lat="44.8384261" lon="10.3453577"><ele>38.0</ele><time>2026-05-03T13:13:05.103Z</time></trkpt><trkpt lat="44.8385214" lon="10.3449583"><ele>38.0</ele><time>2026-05-03T13:13:06.103Z</time></trkpt><trkpt lat="44.8386185" lon="10.3445581"><ele>38.0</ele><time>2026-05-03T13:13:07.102Z</time></trkpt><trkpt lat="44.838716" lon="10.3441624"><ele>37.5</ele><time>2026-05-03T13:13:08.102Z</time></trkpt><trkpt lat="44.8388111" lon="10.3437585"><ele>37.0</ele><time>2026-05-03T13:13:09.103Z</time></trkpt><trkpt lat="44.8389044" lon="10.3433629"><ele>36.5</ele><time>2026-05-03T13:13:10.102Z</time></trkpt><trkpt lat="44.8389984" lon="10.3429681"><ele>36.0</ele><time>2026-05-03T13:13:11.102Z</time></trkpt><trkpt lat="44.8390901" lon="10.3425746"><ele>36.5</ele><time>2026-05-03T13:13:12.103Z</time></trkpt><trkpt lat="44.8391841" lon="10.3421806"><ele>37.0</ele><time>2026-05-03T13:13:13.103Z</time></trkpt><trkpt lat="44.8392796" lon="10.3417842"><ele>38.5</ele><time>2026-05-03T13:13:14.103Z</time></trkpt><trkpt lat="44.8393755" lon="10.3413815"><ele>40.0</ele><time>2026-05-03T13:13:15.103Z</time></trkpt><trkpt lat="44.8394693" lon="10.3409834"><ele>40.0</ele><time>2026-05-03T13:13:16.102Z</time></trkpt><trkpt lat="44.8395642" lon="10.3405812"><ele>40.0</ele><time>2026-05-03T13:13:17.102Z</time></trkpt><trkpt lat="44.8396589" lon="10.3401834"><ele>40.0</ele><time>2026-05-03T13:13:18.102Z</time></trkpt><trkpt lat="44.8397562" lon="10.3397837"><ele>40.0</ele><time>2026-05-03T13:13:19.103Z</time></trkpt><trkpt lat="44.8398533" lon="10.3393855"><ele>40.5</ele><time>2026-05-03T13:13:20.103Z</time></trkpt><trkpt lat="44.8399492" lon="10.3389902"><ele>41.0</ele><time>2026-05-03T13:13:21.103Z</time></trkpt><trkpt lat="44.8400458" lon="10.3385907"><ele>39.5</ele><time>2026-05-03T13:13:22.102Z</time></trkpt><trkpt lat="44.8401428" lon="10.3381935"><ele>38.0</ele><time>2026-05-03T13:13:23.103Z</time></trkpt><trkpt lat="44.8402383" lon="10.3377971"><ele>38.0</ele><time>2026-05-03T13:13:24.103Z</time></trkpt><trkpt lat="44.8403313" lon="10.3374012"><ele>38.0</ele><time>2026-05-03T13:13:25.103Z</time></trkpt><trkpt lat="44.8404228" lon="10.3370064"><ele>38.0</ele><time>2026-05-03T13:13:26.102Z</time></trkpt><trkpt lat="44.8405171" lon="10.3366092"><ele>38.0</ele><time>2026-05-03T13:13:27.102Z</time></trkpt><trkpt lat="44.8406139" lon="10.3362122"><ele>37.5</ele><time>2026-05-03T13:13:28.102Z</time></trkpt><trkpt lat="44.8407104" lon="10.3358106"><ele>37.0</ele><time>2026-05-03T13:13:29.103Z</time></trkpt><trkpt lat="44.8408097" lon="10.3354074"><ele>37.0</ele><time>2026-05-03T13:13:30.103Z</time></trkpt><trkpt lat="44.8409092" lon="10.335005"><ele>37.0</ele><time>2026-05-03T13:13:31.102Z</time></trkpt><trkpt lat="44.8410068" lon="10.3346109"><ele>38.0</ele><time>2026-05-03T13:13:32.103Z</time></trkpt><trkpt lat="44.841104" lon="10.334209"><ele>39.0</ele><time>2026-05-03T13:13:33.103Z</time></trkpt><trkpt lat="44.8412013" lon="10.3338131"><ele>39.5</ele><time>2026-05-03T13:13:34.102Z</time></trkpt><trkpt lat="44.8412974" lon="10.3334177"><ele>40.0</ele><time>2026-05-03T13:13:35.102Z</time></trkpt><trkpt lat="44.841394" lon="10.3330189"><ele>39.0</ele><time>2026-05-03T13:13:36.103Z</time></trkpt><trkpt lat="44.8414868" lon="10.3326204"><ele>38.0</ele><time>2026-05-03T13:13:37.102Z</time></trkpt><trkpt lat="44.8415805" lon="10.3322216"><ele>37.0</ele><time>2026-05-03T13:13:38.103Z</time></trkpt><trkpt lat="44.8416746" lon="10.3318257"><ele>36.0</ele><time>2026-05-03T13:13:39.103Z</time></trkpt><trkpt lat="44.841769" lon="10.3314332"><ele>37.0</ele><time>2026-05-03T13:13:40.103Z</time></trkpt><trkpt lat="44.8418673" lon="10.3310345"><ele>38.0</ele><time>2026-05-03T13:13:41.102Z</time></trkpt><trkpt lat="44.8419664" lon="10.3306295"><ele>37.5</ele><time>2026-05-03T13:13:42.102Z</time></trkpt><trkpt lat="44.8420657" lon="10.3302329"><ele>37.0</ele><time>2026-05-03T13:13:43.102Z</time></trkpt><trkpt lat="44.8421632" lon="10.3298348"><ele>37.5</ele><time>2026-05-03T13:13:44.102Z</time></trkpt><trkpt lat="44.8422617" lon="10.3294338"><ele>38.0</ele><time>2026-05-03T13:13:45.102Z</time></trkpt><trkpt lat="44.8423592" lon="10.3290339"><ele>39.0</ele><time>2026-05-03T13:13:46.103Z</time></trkpt><trkpt lat="44.8424559" lon="10.3286386"><ele>40.0</ele><time>2026-05-03T13:13:47.102Z</time></trkpt><trkpt lat="44.8425516" lon="10.3282393"><ele>39.5</ele><time>2026-05-03T13:13:48.103Z</time></trkpt><trkpt lat="44.8426476" lon="10.3278494"><ele>39.0</ele><time>2026-05-03T13:13:49.103Z</time></trkpt><trkpt lat="44.8427402" lon="10.3274571"><ele>39.0</ele><time>2026-05-03T13:13:50.103Z</time></trkpt><trkpt lat="44.8428374" lon="10.3270563"><ele>39.0</ele><time>2026-05-03T13:13:51.102Z</time></trkpt><trkpt lat="44.8429322" lon="10.3266585"><ele>39.0</ele><time>2026-05-03T13:13:52.103Z</time></trkpt><trkpt lat="44.8430248" lon="10.3262671"><ele>39.0</ele><time>2026-05-03T13:13:53.103Z</time></trkpt><trkpt lat="44.843121" lon="10.3258713"><ele>39.0</ele><time>2026-05-03T13:13:54.103Z</time></trkpt><trkpt lat="44.8432161" lon="10.3254693"><ele>39.0</ele><time>2026-05-03T13:13:55.102Z</time></trkpt><trkpt lat="44.8433113" lon="10.3250662"><ele>39.0</ele><time>2026-05-03T13:13:56.102Z</time></trkpt><trkpt lat="44.8434065" lon="10.3246672"><ele>39.0</ele><time>2026-05-03T13:13:57.102Z</time></trkpt><trkpt lat="44.8435027" lon="10.3242667"><ele>40.0</ele><time>2026-05-03T13:13:58.102Z</time></trkpt><trkpt lat="44.8435977" lon="10.3238703"><ele>41.0</ele><time>2026-05-03T13:13:59.102Z</time></trkpt><trkpt lat="44.8436941" lon="10.3234703"><ele>41.0</ele><time>2026-05-03T13:14:00.102Z</time></trkpt><trkpt lat="44.843789" lon="10.3230729"><ele>41.0</ele><time>2026-05-03T13:14:01.103Z</time></trkpt><trkpt lat="44.8438821" lon="10.3226743"><ele>41.0</ele><time>2026-05-03T13:14:02.102Z</time></trkpt><trkpt lat="44.8439747" lon="10.322281"><ele>41.0</ele><time>2026-05-03T13:14:03.103Z</time></trkpt><trkpt lat="44.8440705" lon="10.3218807"><ele>41.0</ele><time>2026-05-03T13:14:04.103Z</time></trkpt><trkpt lat="44.8441717" lon="10.3214784"><ele>41.0</ele><time>2026-05-03T13:14:05.103Z</time></trkpt><trkpt lat="44.8442669" lon="10.3210792"><ele>40.5</ele><time>2026-05-03T13:14:06.103Z</time></trkpt><trkpt lat="44.8443627" lon="10.3206831"><ele>40.0</ele><time>2026-05-03T13:14:07.103Z</time></trkpt><trkpt lat="44.8444555" lon="10.3202878"><ele>40.0</ele><time>2026-05-03T13:14:08.102Z</time></trkpt><trkpt lat="44.8445486" lon="10.3198942"><ele>40.0</ele><time>2026-05-03T13:14:09.102Z</time></trkpt><trkpt lat="44.8446436" lon="10.3194978"><ele>40.0</ele><time>2026-05-03T13:14:10.102Z</time></trkpt><trkpt lat="44.8447349" lon="10.3190991"><ele>40.0</ele><time>2026-05-03T13:14:11.102Z</time></trkpt><trkpt lat="44.8448279" lon="10.318706"><ele>39.5</ele><time>2026-05-03T13:14:12.102Z</time></trkpt><trkpt lat="44.8449271" lon="10.3183075"><ele>39.0</ele><time>2026-05-03T13:14:13.103Z</time></trkpt><trkpt lat="44.8450236" lon="10.3179147"><ele>39.5</ele><time>2026-05-03T13:14:14.102Z</time></trkpt><trkpt lat="44.8451229" lon="10.3175175"><ele>40.0</ele><time>2026-05-03T13:14:15.103Z</time></trkpt><trkpt lat="44.8452212" lon="10.3171202"><ele>40.0</ele><time>2026-05-03T13:14:16.103Z</time></trkpt><trkpt lat="44.8453135" lon="10.3167237"><ele>40.0</ele><time>2026-05-03T13:14:17.103Z</time></trkpt><trkpt lat="44.8454089" lon="10.3163272"><ele>40.5</ele><time>2026-05-03T13:14:18.102Z</time></trkpt><trkpt lat="44.845505" lon="10.3159303"><ele>41.0</ele><time>2026-05-03T13:14:19.102Z</time></trkpt><trkpt lat="44.8456038" lon="10.3155321"><ele>42.0</ele><time>2026-05-03T13:14:20.103Z</time></trkpt><trkpt lat="44.8456955" lon="10.3151359"><ele>43.0</ele><time>2026-05-03T13:14:21.102Z</time></trkpt><trkpt lat="44.8457873" lon="10.3147394"><ele>43.0</ele><time>2026-05-03T13:14:22.102Z</time></trkpt><trkpt lat="44.8458796" lon="10.3143423"><ele>43.0</ele><time>2026-05-03T13:14:23.103Z</time></trkpt><trkpt lat="44.8459719" lon="10.3139404"><ele>42.5</ele><time>2026-05-03T13:14:24.102Z</time></trkpt><trkpt lat="44.8460664" lon="10.3135413"><ele>42.0</ele><time>2026-05-03T13:14:25.102Z</time></trkpt><trkpt lat="44.8461624" lon="10.3131504"><ele>41.5</ele><time>2026-05-03T13:14:26.103Z</time></trkpt><trkpt lat="44.8462614" lon="10.3127525"><ele>41.0</ele><time>2026-05-03T13:14:27.103Z</time></trkpt><trkpt lat="44.8463569" lon="10.3123615"><ele>40.5</ele><time>2026-05-03T13:14:28.102Z</time></trkpt><trkpt lat="44.8464495" lon="10.3119624"><ele>40.0</ele><time>2026-05-03T13:14:29.103Z</time></trkpt><trkpt lat="44.8465437" lon="10.3115633"><ele>40.5</ele><time>2026-05-03T13:14:30.103Z</time></trkpt><trkpt lat="44.8466431" lon="10.3111507"><ele>41.0</ele><time>2026-05-03T13:14:31.103Z</time></trkpt><trkpt lat="44.8467357" lon="10.3107567"><ele>41.0</ele><time>2026-05-03T13:14:32.102Z</time></trkpt><trkpt lat="44.8468308" lon="10.3103629"><ele>41.0</ele><time>2026-05-03T13:14:33.103Z</time></trkpt><trkpt lat="44.8469287" lon="10.3099618"><ele>41.5</ele><time>2026-05-03T13:14:34.103Z</time></trkpt><trkpt lat="44.8470223" lon="10.309564"><ele>42.0</ele><time>2026-05-03T13:14:35.103Z</time></trkpt><trkpt lat="44.8471209" lon="10.309159"><ele>41.5</ele><time>2026-05-03T13:14:36.102Z</time></trkpt><trkpt lat="44.8472213" lon="10.308759"><ele>41.0</ele><time>2026-05-03T13:14:37.102Z</time></trkpt><trkpt lat="44.8473183" lon="10.3083655"><ele>41.0</ele><time>2026-05-03T13:14:38.103Z</time></trkpt><trkpt lat="44.8474165" lon="10.30797"><ele>41.0</ele><time>2026-05-03T13:14:39.103Z</time></trkpt><trkpt lat="44.8475145" lon="10.3075696"><ele>41.0</ele><time>2026-05-03T13:14:40.103Z</time></trkpt><trkpt lat="44.847612" lon="10.3071757"><ele>41.0</ele><time>2026-05-03T13:14:41.102Z</time></trkpt><trkpt lat="44.847708" lon="10.3067755"><ele>41.0</ele><time>2026-05-03T13:14:42.103Z</time></trkpt><trkpt lat="44.847802" lon="10.3063801"><ele>41.0</ele><time>2026-05-03T13:14:43.103Z</time></trkpt><trkpt lat="44.8478947" lon="10.305978"><ele>41.0</ele><time>2026-05-03T13:14:44.102Z</time></trkpt><trkpt lat="44.8479855" lon="10.3055803"><ele>41.0</ele><time>2026-05-03T13:14:45.102Z</time></trkpt><trkpt lat="44.8480789" lon="10.3051817"><ele>40.5</ele><time>2026-05-03T13:14:46.102Z</time></trkpt><trkpt lat="44.8481721" lon="10.304783"><ele>40.0</ele><time>2026-05-03T13:14:47.102Z</time></trkpt><trkpt lat="44.8482669" lon="10.304381"><ele>39.5</ele><time>2026-05-03T13:14:48.102Z</time></trkpt><trkpt lat="44.8483613" lon="10.3039964"><ele>39.0</ele><time>2026-05-03T13:14:49.102Z</time></trkpt><trkpt lat="44.8484529" lon="10.3036172"><ele>39.5</ele><time>2026-05-03T13:14:50.102Z</time></trkpt><trkpt lat="44.8485418" lon="10.3032498"><ele>40.0</ele><time>2026-05-03T13:14:51.102Z</time></trkpt><trkpt lat="44.8486338" lon="10.3028805"><ele>39.0</ele><time>2026-05-03T13:14:52.103Z</time></trkpt><trkpt lat="44.8487237" lon="10.3025046"><ele>38.0</ele><time>2026-05-03T13:14:53.103Z</time></trkpt><trkpt lat="44.8488142" lon="10.3021232"><ele>37.5</ele><time>2026-05-03T13:14:54.103Z</time></trkpt><trkpt lat="44.8489045" lon="10.3017347"><ele>37.0</ele><time>2026-05-03T13:14:55.103Z</time></trkpt><trkpt lat="44.8489973" lon="10.3013393"><ele>37.5</ele><time>2026-05-03T13:14:56.102Z</time></trkpt><trkpt lat="44.8490874" lon="10.3009474"><ele>38.0</ele><time>2026-05-03T13:14:57.103Z</time></trkpt><trkpt lat="44.8491782" lon="10.3005527"><ele>38.0</ele><time>2026-05-03T13:14:58.103Z</time></trkpt><trkpt lat="44.8492722" lon="10.3001556"><ele>38.0</ele><time>2026-05-03T13:14:59.102Z</time></trkpt><trkpt lat="44.8493654" lon="10.2997644"><ele>38.0</ele><time>2026-05-03T13:15:00.103Z</time></trkpt><trkpt lat="44.8494556" lon="10.2993837"><ele>38.0</ele><time>2026-05-03T13:15:01.102Z</time></trkpt><trkpt lat="44.8495467" lon="10.299011"><ele>38.5</ele><time>2026-05-03T13:15:02.103Z</time></trkpt><trkpt lat="44.8496347" lon="10.2986457"><ele>39.0</ele><time>2026-05-03T13:15:03.103Z</time></trkpt><trkpt lat="44.8497226" lon="10.2982797"><ele>38.5</ele><time>2026-05-03T13:15:04.102Z</time></trkpt><trkpt lat="44.8498143" lon="10.2979064"><ele>38.0</ele><time>2026-05-03T13:15:05.103Z</time></trkpt><trkpt lat="44.8499014" lon="10.2975336"><ele>37.5</ele><time>2026-05-03T13:15:06.103Z</time></trkpt><trkpt lat="44.8499849" lon="10.2971679"><ele>37.0</ele><time>2026-05-03T13:15:07.102Z</time></trkpt><trkpt lat="44.8500715" lon="10.2967974"><ele>38.0</ele><time>2026-05-03T13:15:08.103Z</time></trkpt><trkpt lat="44.8501669" lon="10.2964289"><ele>39.0</ele><time>2026-05-03T13:15:09.102Z</time></trkpt><trkpt lat="44.8502637" lon="10.2960542"><ele>39.0</ele><time>2026-05-03T13:15:10.103Z</time></trkpt><trkpt lat="44.8503619" lon="10.2956705"><ele>39.0</ele><time>2026-05-03T13:15:11.103Z</time></trkpt><trkpt lat="44.8504599" lon="10.2952843"><ele>38.5</ele><time>2026-05-03T13:15:12.102Z</time></trkpt><trkpt lat="44.8505546" lon="10.2948832"><ele>38.0</ele><time>2026-05-03T13:15:13.103Z</time></trkpt><trkpt lat="44.8506556" lon="10.2944808"><ele>38.0</ele><time>2026-05-03T13:15:14.102Z</time></trkpt><trkpt lat="44.8507468" lon="10.2940832"><ele>38.0</ele><time>2026-05-03T13:15:15.102Z</time></trkpt><trkpt lat="44.8508388" lon="10.2936897"><ele>37.5</ele><time>2026-05-03T13:15:16.103Z</time></trkpt><trkpt lat="44.8509326" lon="10.2932985"><ele>37.0</ele><time>2026-05-03T13:15:17.102Z</time></trkpt><trkpt lat="44.8510288" lon="10.2929005"><ele>37.0</ele><time>2026-05-03T13:15:18.102Z</time></trkpt><trkpt lat="44.8511281" lon="10.2924913"><ele>37.0</ele><time>2026-05-03T13:15:19.102Z</time></trkpt><trkpt lat="44.8512312" lon="10.2920606"><ele>36.5</ele><time>2026-05-03T13:15:20.102Z</time></trkpt><trkpt lat="44.8513367" lon="10.2916299"><ele>36.0</ele><time>2026-05-03T13:15:21.103Z</time></trkpt><trkpt lat="44.8514334" lon="10.2912078"><ele>35.5</ele><time>2026-05-03T13:15:22.103Z</time></trkpt><trkpt lat="44.8515303" lon="10.2907891"><ele>35.0</ele><time>2026-05-03T13:15:23.102Z</time></trkpt><trkpt lat="44.8516229" lon="10.2903773"><ele>36.0</ele><time>2026-05-03T13:15:24.103Z</time></trkpt><trkpt lat="44.8517177" lon="10.2899625"><ele>37.0</ele><time>2026-05-03T13:15:25.102Z</time></trkpt><trkpt lat="44.8518115" lon="10.2895559"><ele>37.0</ele><time>2026-05-03T13:15:26.103Z</time></trkpt><trkpt lat="44.8519052" lon="10.2891506"><ele>37.0</ele><time>2026-05-03T13:15:27.102Z</time></trkpt><trkpt lat="44.8519966" lon="10.2887482"><ele>36.0</ele><time>2026-05-03T13:15:28.102Z</time></trkpt><trkpt lat="44.8520911" lon="10.2883484"><ele>35.0</ele><time>2026-05-03T13:15:29.102Z</time></trkpt><trkpt lat="44.8521831" lon="10.287969"><ele>34.5</ele><time>2026-05-03T13:15:30.103Z</time></trkpt><trkpt lat="44.8522711" lon="10.287588"><ele>34.0</ele><time>2026-05-03T13:15:31.103Z</time></trkpt><trkpt lat="44.8523659" lon="10.2872048"><ele>33.5</ele><time>2026-05-03T13:15:32.102Z</time></trkpt><trkpt lat="44.8524582" lon="10.2868216"><ele>33.0</ele><time>2026-05-03T13:15:33.102Z</time></trkpt><trkpt lat="44.8525556" lon="10.2864306"><ele>33.0</ele><time>2026-05-03T13:15:34.103Z</time></trkpt><trkpt lat="44.8526508" lon="10.2860411"><ele>33.0</ele><time>2026-05-03T13:15:35.103Z</time></trkpt><trkpt lat="44.8527461" lon="10.2856446"><ele>35.0</ele><time>2026-05-03T13:15:36.103Z</time></trkpt><trkpt lat="44.8528419" lon="10.2852447"><ele>37.0</ele><time>2026-05-03T13:15:37.103Z</time></trkpt><trkpt lat="44.8529413" lon="10.2848456"><ele>38.5</ele><time>2026-05-03T13:15:38.102Z</time></trkpt><trkpt lat="44.853037" lon="10.2844443"><ele>40.0</ele><time>2026-05-03T13:15:39.103Z</time></trkpt><trkpt lat="44.8531377" lon="10.2840464"><ele>38.5</ele><time>2026-05-03T13:15:40.102Z</time></trkpt><trkpt lat="44.8532372" lon="10.2836525"><ele>37.0</ele><time>2026-05-03T13:15:41.102Z</time></trkpt><trkpt lat="44.8533331" lon="10.2832726"><ele>37.5</ele><time>2026-05-03T13:15:42.102Z</time></trkpt><trkpt lat="44.8534267" lon="10.2828863"><ele>38.0</ele><time>2026-05-03T13:15:43.103Z</time></trkpt><trkpt lat="44.8535182" lon="10.2825068"><ele>37.5</ele><time>2026-05-03T13:15:44.102Z</time></trkpt><trkpt lat="44.8536021" lon="10.2821401"><ele>37.0</ele><time>2026-05-03T13:15:45.102Z</time></trkpt><trkpt lat="44.8536858" lon="10.2817765"><ele>36.5</ele><time>2026-05-03T13:15:46.102Z</time></trkpt><trkpt lat="44.8537671" lon="10.2814044"><ele>36.0</ele><time>2026-05-03T13:15:47.103Z</time></trkpt><trkpt lat="44.8538543" lon="10.2810305"><ele>36.0</ele><time>2026-05-03T13:15:48.103Z</time></trkpt><trkpt lat="44.8539434" lon="10.2806574"><ele>36.0</ele><time>2026-05-03T13:15:49.102Z</time></trkpt><trkpt lat="44.8540355" lon="10.2802775"><ele>36.0</ele><time>2026-05-03T13:15:50.103Z</time></trkpt><trkpt lat="44.8541254" lon="10.279902"><ele>36.0</ele><time>2026-05-03T13:15:51.103Z</time></trkpt><trkpt lat="44.854217" lon="10.2795259"><ele>36.5</ele><time>2026-05-03T13:15:52.102Z</time></trkpt><trkpt lat="44.8543059" lon="10.2791514"><ele>37.0</ele><time>2026-05-03T13:15:53.103Z</time></trkpt><trkpt lat="44.8543993" lon="10.2787685"><ele>37.5</ele><time>2026-05-03T13:15:54.102Z</time></trkpt><trkpt lat="44.8544924" lon="10.2783744"><ele>38.0</ele><time>2026-05-03T13:15:55.103Z</time></trkpt><trkpt lat="44.8545821" lon="10.2779892"><ele>38.0</ele><time>2026-05-03T13:15:56.102Z</time></trkpt><trkpt lat="44.8546771" lon="10.2776032"><ele>38.0</ele><time>2026-05-03T13:15:57.103Z</time></trkpt><trkpt lat="44.8547688" lon="10.2772166"><ele>39.0</ele><time>2026-05-03T13:15:58.102Z</time></trkpt><trkpt lat="44.8548647" lon="10.276826"><ele>40.0</ele><time>2026-05-03T13:15:59.103Z</time></trkpt><trkpt lat="44.8549618" lon="10.2764376"><ele>40.5</ele><time>2026-05-03T13:16:00.102Z</time></trkpt><trkpt lat="44.8550559" lon="10.2760493"><ele>41.0</ele><time>2026-05-03T13:16:01.102Z</time></trkpt><trkpt lat="44.8551538" lon="10.2756573"><ele>41.0</ele><time>2026-05-03T13:16:02.102Z</time></trkpt><trkpt lat="44.8552497" lon="10.2752608"><ele>41.0</ele><time>2026-05-03T13:16:03.102Z</time></trkpt><trkpt lat="44.8553426" lon="10.2748678"><ele>40.0</ele><time>2026-05-03T13:16:04.103Z</time></trkpt><trkpt lat="44.8554345" lon="10.2744801"><ele>39.0</ele><time>2026-05-03T13:16:05.102Z</time></trkpt><trkpt lat="44.8555224" lon="10.2741019"><ele>39.5</ele><time>2026-05-03T13:16:06.103Z</time></trkpt><trkpt lat="44.8556078" lon="10.2737239"><ele>40.0</ele><time>2026-05-03T13:16:07.102Z</time></trkpt><trkpt lat="44.8556965" lon="10.2733553"><ele>39.0</ele><time>2026-05-03T13:16:08.103Z</time></trkpt><trkpt lat="44.8557901" lon="10.2729825"><ele>38.0</ele><time>2026-05-03T13:16:09.102Z</time></trkpt><trkpt lat="44.855885" lon="10.2726128"><ele>39.0</ele><time>2026-05-03T13:16:10.103Z</time></trkpt><trkpt lat="44.8559805" lon="10.2722393"><ele>40.0</ele><time>2026-05-03T13:16:11.102Z</time></trkpt><trkpt lat="44.8560744" lon="10.27187"><ele>40.0</ele><time>2026-05-03T13:16:12.103Z</time></trkpt><trkpt lat="44.8561656" lon="10.271494"><ele>40.0</ele><time>2026-05-03T13:16:13.103Z</time></trkpt><trkpt lat="44.8562548" lon="10.2711197"><ele>40.5</ele><time>2026-05-03T13:16:14.103Z</time></trkpt><trkpt lat="44.8563457" lon="10.2707294"><ele>41.0</ele><time>2026-05-03T13:16:15.103Z</time></trkpt><trkpt lat="44.8564385" lon="10.2703535"><ele>40.0</ele><time>2026-05-03T13:16:16.102Z</time></trkpt><trkpt lat="44.8565335" lon="10.2699642"><ele>39.0</ele><time>2026-05-03T13:16:17.102Z</time></trkpt><trkpt lat="44.8566249" lon="10.2695789"><ele>38.5</ele><time>2026-05-03T13:16:18.103Z</time></trkpt><trkpt lat="44.8567144" lon="10.2691942"><ele>38.0</ele><time>2026-05-03T13:16:19.102Z</time></trkpt><trkpt lat="44.8568032" lon="10.2688126"><ele>38.0</ele><time>2026-05-03T13:16:20.103Z</time></trkpt><trkpt lat="44.856894" lon="10.2684248"><ele>38.0</ele><time>2026-05-03T13:16:21.103Z</time></trkpt><trkpt lat="44.8569817" lon="10.2680457"><ele>38.5</ele><time>2026-05-03T13:16:22.102Z</time></trkpt><trkpt lat="44.8570724" lon="10.2676752"><ele>39.0</ele><time>2026-05-03T13:16:23.102Z</time></trkpt><trkpt lat="44.8571627" lon="10.2673013"><ele>39.0</ele><time>2026-05-03T13:16:24.103Z</time></trkpt><trkpt lat="44.8572545" lon="10.2669263"><ele>39.0</ele><time>2026-05-03T13:16:25.103Z</time></trkpt><trkpt lat="44.8573449" lon="10.2665464"><ele>39.5</ele><time>2026-05-03T13:16:26.102Z</time></trkpt><trkpt lat="44.8574333" lon="10.2661669"><ele>40.0</ele><time>2026-05-03T13:16:27.103Z</time></trkpt><trkpt lat="44.8575217" lon="10.265787"><ele>39.5</ele><time>2026-05-03T13:16:28.103Z</time></trkpt><trkpt lat="44.8576091" lon="10.2654027"><ele>39.0</ele><time>2026-05-03T13:16:29.103Z</time></trkpt><trkpt lat="44.8576972" lon="10.2650099"><ele>38.5</ele><time>2026-05-03T13:16:30.103Z</time></trkpt><trkpt lat="44.8577836" lon="10.264625"><ele>38.0</ele><time>2026-05-03T13:16:31.103Z</time></trkpt><trkpt lat="44.8578768" lon="10.2642276"><ele>38.0</ele><time>2026-05-03T13:16:32.103Z</time></trkpt><trkpt lat="44.8579672" lon="10.2638288"><ele>38.0</ele><time>2026-05-03T13:16:33.102Z</time></trkpt><trkpt lat="44.8580597" lon="10.2634338"><ele>38.5</ele><time>2026-05-03T13:16:34.102Z</time></trkpt><trkpt lat="44.8581535" lon="10.2630396"><ele>39.0</ele><time>2026-05-03T13:16:35.102Z</time></trkpt><trkpt lat="44.8582498" lon="10.2626453"><ele>40.0</ele><time>2026-05-03T13:16:36.103Z</time></trkpt><trkpt lat="44.8583457" lon="10.2622464"><ele>41.0</ele><time>2026-05-03T13:16:37.102Z</time></trkpt><trkpt lat="44.8584392" lon="10.261846"><ele>41.0</ele><time>2026-05-03T13:16:38.103Z</time></trkpt><trkpt lat="44.858534" lon="10.2614508"><ele>41.0</ele><time>2026-05-03T13:16:39.103Z</time></trkpt><trkpt lat="44.8586282" lon="10.261049"><ele>40.5</ele><time>2026-05-03T13:16:40.102Z</time></trkpt><trkpt lat="44.8587286" lon="10.2606443"><ele>40.0</ele><time>2026-05-03T13:16:41.102Z</time></trkpt><trkpt lat="44.8588235" lon="10.2602417"><ele>40.0</ele><time>2026-05-03T13:16:42.102Z</time></trkpt><trkpt lat="44.8589192" lon="10.2598495"><ele>40.0</ele><time>2026-05-03T13:16:43.102Z</time></trkpt><trkpt lat="44.8590153" lon="10.2594538"><ele>40.0</ele><time>2026-05-03T13:16:44.102Z</time></trkpt><trkpt lat="44.859116" lon="10.259058"><ele>40.0</ele><time>2026-05-03T13:16:45.102Z</time></trkpt><trkpt lat="44.8592145" lon="10.2586577"><ele>41.0</ele><time>2026-05-03T13:16:46.102Z</time></trkpt><trkpt lat="44.8593149" lon="10.2582558"><ele>42.0</ele><time>2026-05-03T13:16:47.103Z</time></trkpt><trkpt lat="44.8594121" lon="10.2578621"><ele>42.0</ele><time>2026-05-03T13:16:48.103Z</time></trkpt><trkpt lat="44.8595038" lon="10.2574683"><ele>42.0</ele><time>2026-05-03T13:16:49.103Z</time></trkpt><trkpt lat="44.8595994" lon="10.2570727"><ele>42.0</ele><time>2026-05-03T13:16:50.103Z</time></trkpt><trkpt lat="44.8596963" lon="10.2566723"><ele>42.0</ele><time>2026-05-03T13:16:51.103Z</time></trkpt><trkpt lat="44.8597891" lon="10.2562715"><ele>42.0</ele><time>2026-05-03T13:16:52.102Z</time></trkpt><trkpt lat="44.8598861" lon="10.2558681"><ele>42.0</ele><time>2026-05-03T13:16:53.103Z</time></trkpt><trkpt lat="44.8599812" lon="10.2554538"><ele>42.0</ele><time>2026-05-03T13:16:54.102Z</time></trkpt><trkpt lat="44.8600754" lon="10.2550575"><ele>42.0</ele><time>2026-05-03T13:16:55.102Z</time></trkpt><trkpt lat="44.8601717" lon="10.2546575"><ele>41.5</ele><time>2026-05-03T13:16:56.103Z</time></trkpt><trkpt lat="44.860269" lon="10.2542555"><ele>41.0</ele><time>2026-05-03T13:16:57.103Z</time></trkpt><trkpt lat="44.8603652" lon="10.2538622"><ele>41.0</ele><time>2026-05-03T13:16:58.103Z</time></trkpt><trkpt lat="44.8604616" lon="10.2534645"><ele>41.0</ele><time>2026-05-03T13:16:59.102Z</time></trkpt><trkpt lat="44.8605567" lon="10.2530705"><ele>41.0</ele><time>2026-05-03T13:17:00.102Z</time></trkpt><trkpt lat="44.8606526" lon="10.2526772"><ele>41.0</ele><time>2026-05-03T13:17:01.103Z</time></trkpt><trkpt lat="44.8607518" lon="10.2522755"><ele>41.0</ele><time>2026-05-03T13:17:02.102Z</time></trkpt><trkpt lat="44.8608506" lon="10.2518781"><ele>41.0</ele><time>2026-05-03T13:17:03.102Z</time></trkpt><trkpt lat="44.8609507" lon="10.2514804"><ele>40.5</ele><time>2026-05-03T13:17:04.103Z</time></trkpt><trkpt lat="44.8610458" lon="10.2510821"><ele>40.0</ele><time>2026-05-03T13:17:05.103Z</time></trkpt><trkpt lat="44.8611401" lon="10.2506866"><ele>41.0</ele><time>2026-05-03T13:17:06.102Z</time></trkpt><trkpt lat="44.8612384" lon="10.250286"><ele>42.0</ele><time>2026-05-03T13:17:07.102Z</time></trkpt><trkpt lat="44.8613324" lon="10.2498853"><ele>43.5</ele><time>2026-05-03T13:17:08.102Z</time></trkpt><trkpt lat="44.8614263" lon="10.2494812"><ele>45.0</ele><time>2026-05-03T13:17:09.102Z</time></trkpt><trkpt lat="44.8615188" lon="10.2490836"><ele>45.0</ele><time>2026-05-03T13:17:10.103Z</time></trkpt><trkpt lat="44.8616143" lon="10.2486808"><ele>45.0</ele><time>2026-05-03T13:17:11.103Z</time></trkpt><trkpt lat="44.8617062" lon="10.2482811"><ele>44.5</ele><time>2026-05-03T13:17:12.103Z</time></trkpt><trkpt lat="44.8617962" lon="10.2478995"><ele>44.0</ele><time>2026-05-03T13:17:13.102Z</time></trkpt><trkpt lat="44.8618877" lon="10.2475234"><ele>44.0</ele><time>2026-05-03T13:17:14.102Z</time></trkpt><trkpt lat="44.8619752" lon="10.2471382"><ele>44.0</ele><time>2026-05-03T13:17:15.103Z</time></trkpt><trkpt lat="44.862062" lon="10.2467699"><ele>44.0</ele><time>2026-05-03T13:17:16.103Z</time></trkpt><trkpt lat="44.8621453" lon="10.2463917"><ele>44.0</ele><time>2026-05-03T13:17:17.103Z</time></trkpt><trkpt lat="44.8622264" lon="10.2460313"><ele>44.0</ele><time>2026-05-03T13:17:18.102Z</time></trkpt><trkpt lat="44.8623077" lon="10.2456848"><ele>44.0</ele><time>2026-05-03T13:17:19.102Z</time></trkpt><trkpt lat="44.8623911" lon="10.2453354"><ele>44.5</ele><time>2026-05-03T13:17:20.102Z</time></trkpt><trkpt lat="44.8624721" lon="10.2449932"><ele>45.0</ele><time>2026-05-03T13:17:21.102Z</time></trkpt><trkpt lat="44.8625484" lon="10.2446629"><ele>44.0</ele><time>2026-05-03T13:17:22.103Z</time></trkpt><trkpt lat="44.862624" lon="10.2443561"><ele>43.0</ele><time>2026-05-03T13:17:23.103Z</time></trkpt><trkpt lat="44.8626967" lon="10.2440562"><ele>41.5</ele><time>2026-05-03T13:17:24.103Z</time></trkpt><trkpt lat="44.8627706" lon="10.2437518"><ele>40.0</ele><time>2026-05-03T13:17:25.102Z</time></trkpt><trkpt lat="44.8628441" lon="10.2434552"><ele>40.0</ele><time>2026-05-03T13:17:26.103Z</time></trkpt><trkpt lat="44.8629148" lon="10.2431643"><ele>40.0</ele><time>2026-05-03T13:17:27.102Z</time></trkpt><trkpt lat="44.8629826" lon="10.2428713"><ele>40.0</ele><time>2026-05-03T13:17:28.102Z</time></trkpt><trkpt lat="44.8630489" lon="10.2425791"><ele>40.333333333333336</ele><time>2026-05-03T13:17:29.102Z</time></trkpt><trkpt lat="44.8631155" lon="10.2422919"><ele>40.666666666666664</ele><time>2026-05-03T13:17:30.103Z</time></trkpt><trkpt lat="44.8631839" lon="10.2420034"><ele>41.0</ele><time>2026-05-03T13:17:31.103Z</time></trkpt><trkpt lat="44.8632512" lon="10.2417175"><ele>41.33333333333333</ele><time>2026-05-03T13:17:32.103Z</time></trkpt><trkpt lat="44.8633195" lon="10.2414363"><ele>41.666666666666664</ele><time>2026-05-03T13:17:33.103Z</time></trkpt><trkpt lat="44.8633846" lon="10.2411659"><ele>42.0</ele><time>2026-05-03T13:17:34.102Z</time></trkpt><trkpt lat="44.8634486" lon="10.2409055"><ele>42.0</ele><time>2026-05-03T13:17:35.102Z</time></trkpt><trkpt lat="44.8635107" lon="10.2406512"><ele>42.0</ele><time>2026-05-03T13:17:36.103Z</time></trkpt><trkpt lat="44.8635746" lon="10.2403989"><ele>42.0</ele><time>2026-05-03T13:17:37.103Z</time></trkpt><trkpt lat="44.8636386" lon="10.2401366"><ele>43.0</ele><time>2026-05-03T13:17:38.103Z</time></trkpt><trkpt lat="44.8637046" lon="10.2398698"><ele>44.0</ele><time>2026-05-03T13:17:39.103Z</time></trkpt><trkpt lat="44.8637746" lon="10.2395868"><ele>45.0</ele><time>2026-05-03T13:17:40.102Z</time></trkpt><trkpt lat="44.8638466" lon="10.2392821"><ele>45.0</ele><time>2026-05-03T13:17:41.102Z</time></trkpt><trkpt lat="44.8639242" lon="10.2389588"><ele>45.0</ele><time>2026-05-03T13:17:42.102Z</time></trkpt><trkpt lat="44.8639953" lon="10.2386336"><ele>45.0</ele><time>2026-05-03T13:17:43.102Z</time></trkpt><trkpt lat="44.8640689" lon="10.2382957"><ele>45.0</ele><time>2026-05-03T13:17:44.103Z</time></trkpt><trkpt lat="44.8641439" lon="10.2379488"><ele>45.0</ele><time>2026-05-03T13:17:45.102Z</time></trkpt><trkpt lat="44.864218" lon="10.2376006"><ele>45.0</ele><time>2026-05-03T13:17:46.102Z</time></trkpt><trkpt lat="44.8642935" lon="10.2372498"><ele>45.0</ele><time>2026-05-03T13:17:47.102Z</time></trkpt><trkpt lat="44.8643731" lon="10.2368979"><ele>45.0</ele><time>2026-05-03T13:17:48.102Z</time></trkpt><trkpt lat="44.8644531" lon="10.2365418"><ele>46.0</ele><time>2026-05-03T13:17:49.102Z</time></trkpt><trkpt lat="44.8645332" lon="10.2361983"><ele>47.0</ele><time>2026-05-03T13:17:50.103Z</time></trkpt><trkpt lat="44.8646145" lon="10.2358358"><ele>46.0</ele><time>2026-05-03T13:17:51.103Z</time></trkpt><trkpt lat="44.8646948" lon="10.235525"><ele>45.0</ele><time>2026-05-03T13:17:52.103Z</time></trkpt><trkpt lat="44.8647664" lon="10.2352259"><ele>45.0</ele><time>2026-05-03T13:17:53.102Z</time></trkpt><trkpt lat="44.8648301" lon="10.2349492"><ele>45.0</ele><time>2026-05-03T13:17:54.103Z</time></trkpt><trkpt lat="44.864897" lon="10.234691"><ele>45.0</ele><time>2026-05-03T13:17:55.102Z</time></trkpt><trkpt lat="44.8649595" lon="10.2344551"><ele>44.666666666666664</ele><time>2026-05-03T13:17:56.103Z</time></trkpt><trkpt lat="44.8650265" lon="10.2342316"><ele>44.33333333333333</ele><time>2026-05-03T13:17:57.103Z</time></trkpt><trkpt lat="44.8650934" lon="10.2339951"><ele>44.0</ele><time>2026-05-03T13:17:58.102Z</time></trkpt><trkpt lat="44.8651576" lon="10.2337538"><ele>44.0</ele><time>2026-05-03T13:17:59.102Z</time></trkpt><trkpt lat="44.8652245" lon="10.2334965"><ele>44.0</ele><time>2026-05-03T13:18:00.102Z</time></trkpt><trkpt lat="44.8652802" lon="10.2332529"><ele>44.0</ele><time>2026-05-03T13:18:01.103Z</time></trkpt><trkpt lat="44.8653311" lon="10.2330313"><ele>44.0</ele><time>2026-05-03T13:18:02.103Z</time></trkpt><trkpt lat="44.8653827" lon="10.2328451"><ele>44.0</ele><time>2026-05-03T13:18:03.102Z</time></trkpt><trkpt lat="44.8654261" lon="10.232671"><ele>44.0</ele><time>2026-05-03T13:18:04.102Z</time></trkpt><trkpt lat="44.8654665" lon="10.2325072"><ele>44.0</ele><time>2026-05-03T13:18:05.103Z</time></trkpt><trkpt lat="44.8655073" lon="10.23235"><ele>43.5</ele><time>2026-05-03T13:18:06.103Z</time></trkpt><trkpt lat="44.8655546" lon="10.2321829"><ele>43.0</ele><time>2026-05-03T13:18:07.102Z</time></trkpt><trkpt lat="44.8656063" lon="10.2320069"><ele>42.5</ele><time>2026-05-03T13:18:08.102Z</time></trkpt><trkpt lat="44.8656597" lon="10.2318137"><ele>42.0</ele><time>2026-05-03T13:18:09.103Z</time></trkpt><trkpt lat="44.8657062" lon="10.2316138"><ele>42.333333333333336</ele><time>2026-05-03T13:18:10.103Z</time></trkpt><trkpt lat="44.8657577" lon="10.2314045"><ele>42.66666666666667</ele><time>2026-05-03T13:18:11.103Z</time></trkpt><trkpt lat="44.8658109" lon="10.2311832"><ele>43.0</ele><time>2026-05-03T13:18:12.102Z</time></trkpt><trkpt lat="44.8658615" lon="10.2309515"><ele>43.0</ele><time>2026-05-03T13:18:13.103Z</time></trkpt><trkpt lat="44.8659129" lon="10.2307166"><ele>43.0</ele><time>2026-05-03T13:18:14.102Z</time></trkpt><trkpt lat="44.8659667" lon="10.2304823"><ele>43.0</ele><time>2026-05-03T13:18:15.102Z</time></trkpt><trkpt lat="44.8660219" lon="10.2302499"><ele>43.0</ele><time>2026-05-03T13:18:16.103Z</time></trkpt><trkpt lat="44.8660824" lon="10.2300155"><ele>43.0</ele><time>2026-05-03T13:18:17.102Z</time></trkpt><trkpt lat="44.866145" lon="10.2297765"><ele>43.0</ele><time>2026-05-03T13:18:18.102Z</time></trkpt><trkpt lat="44.8662025" lon="10.229529"><ele>43.0</ele><time>2026-05-03T13:18:19.102Z</time></trkpt><trkpt lat="44.8662569" lon="10.2292867"><ele>43.0</ele><time>2026-05-03T13:18:20.102Z</time></trkpt><trkpt lat="44.8663121" lon="10.2290505"><ele>43.0</ele><time>2026-05-03T13:18:21.103Z</time></trkpt><trkpt lat="44.8663674" lon="10.2288115"><ele>43.66666666666667</ele><time>2026-05-03T13:18:22.103Z</time></trkpt><trkpt lat="44.8664205" lon="10.2285895"><ele>44.333333333333336</ele><time>2026-05-03T13:18:23.102Z</time></trkpt><trkpt lat="44.8664732" lon="10.2283629"><ele>45.0</ele><time>2026-05-03T13:18:24.103Z</time></trkpt><trkpt lat="44.8665236" lon="10.2281446"><ele>45.0</ele><time>2026-05-03T13:18:25.102Z</time></trkpt><trkpt lat="44.8665744" lon="10.2279264"><ele>45.0</ele><time>2026-05-03T13:18:26.102Z</time></trkpt><trkpt lat="44.866626" lon="10.2277068"><ele>45.0</ele><time>2026-05-03T13:18:27.103Z</time></trkpt><trkpt lat="44.8666768" lon="10.2274855"><ele>45.0</ele><time>2026-05-03T13:18:28.103Z</time></trkpt><trkpt lat="44.8667286" lon="10.2272663"><ele>45.0</ele><time>2026-05-03T13:18:29.102Z</time></trkpt><trkpt lat="44.8667813" lon="10.227045"><ele>45.0</ele><time>2026-05-03T13:18:30.103Z</time></trkpt><trkpt lat="44.8668313" lon="10.226828"><ele>45.0</ele><time>2026-05-03T13:18:31.103Z</time></trkpt><trkpt lat="44.8668826" lon="10.2266081"><ele>45.0</ele><time>2026-05-03T13:18:32.103Z</time></trkpt><trkpt lat="44.8669312" lon="10.2263902"><ele>45.0</ele><time>2026-05-03T13:18:33.103Z</time></trkpt><trkpt lat="44.8669802" lon="10.2261848"><ele>45.0</ele><time>2026-05-03T13:18:34.102Z</time></trkpt><trkpt lat="44.8670328" lon="10.2259639"><ele>45.0</ele><time>2026-05-03T13:18:35.102Z</time></trkpt><trkpt lat="44.8670809" lon="10.2257474"><ele>45.0</ele><time>2026-05-03T13:18:36.103Z</time></trkpt><trkpt lat="44.8671406" lon="10.2255238"><ele>44.333333333333336</ele><time>2026-05-03T13:18:37.102Z</time></trkpt><trkpt lat="44.8671922" lon="10.2253078"><ele>43.66666666666667</ele><time>2026-05-03T13:18:38.103Z</time></trkpt><trkpt lat="44.8672432" lon="10.2250913"><ele>43.0</ele><time>2026-05-03T13:18:39.103Z</time></trkpt><trkpt lat="44.8672937" lon="10.2248762"><ele>43.0</ele><time>2026-05-03T13:18:40.102Z</time></trkpt><trkpt lat="44.8673413" lon="10.224663"><ele>43.0</ele><time>2026-05-03T13:18:41.103Z</time></trkpt><trkpt lat="44.8673879" lon="10.2244496"><ele>43.0</ele><time>2026-05-03T13:18:42.103Z</time></trkpt><trkpt lat="44.8674341" lon="10.2242356"><ele>43.0</ele><time>2026-05-03T13:18:43.103Z</time></trkpt><trkpt lat="44.8674762" lon="10.2240369"><ele>43.0</ele><time>2026-05-03T13:18:44.103Z</time></trkpt><trkpt lat="44.8675202" lon="10.2238349"><ele>43.0</ele><time>2026-05-03T13:18:45.103Z</time></trkpt><trkpt lat="44.8675595" lon="10.2236345"><ele>43.0</ele><time>2026-05-03T13:18:46.102Z</time></trkpt><trkpt lat="44.8675977" lon="10.2234438"><ele>43.0</ele><time>2026-05-03T13:18:47.103Z</time></trkpt><trkpt lat="44.867637" lon="10.2232578"><ele>43.0</ele><time>2026-05-03T13:18:48.103Z</time></trkpt><trkpt lat="44.8676728" lon="10.2230798"><ele>43.0</ele><time>2026-05-03T13:18:49.103Z</time></trkpt><trkpt lat="44.8677096" lon="10.2229117"><ele>43.0</ele><time>2026-05-03T13:18:50.103Z</time></trkpt><trkpt lat="44.8677433" lon="10.2227475"><ele>43.0</ele><time>2026-05-03T13:18:51.102Z</time></trkpt><trkpt lat="44.8677716" lon="10.2225982"><ele>43.0</ele><time>2026-05-03T13:18:52.103Z</time></trkpt><trkpt lat="44.867803" lon="10.2224465"><ele>43.0</ele><time>2026-05-03T13:18:53.103Z</time></trkpt><trkpt lat="44.8678327" lon="10.2223021"><ele>43.0</ele><time>2026-05-03T13:18:54.103Z</time></trkpt><trkpt lat="44.8678533" lon="10.2221702"><ele>43.0</ele><time>2026-05-03T13:18:55.103Z</time></trkpt><trkpt lat="44.8678792" lon="10.222037"><ele>43.0</ele><time>2026-05-03T13:18:56.103Z</time></trkpt><trkpt lat="44.8679097" lon="10.2219075"><ele>43.0</ele><time>2026-05-03T13:18:57.102Z</time></trkpt><trkpt lat="44.8679491" lon="10.2217825"><ele>43.0</ele><time>2026-05-03T13:18:58.103Z</time></trkpt><trkpt lat="44.8679854" lon="10.2216529"><ele>43.0</ele><time>2026-05-03T13:18:59.102Z</time></trkpt><trkpt lat="44.8680091" lon="10.221512"><ele>43.0</ele><time>2026-05-03T13:19:00.103Z</time></trkpt><trkpt lat="44.868035" lon="10.2213627"><ele>43.25</ele><time>2026-05-03T13:19:01.103Z</time></trkpt><trkpt lat="44.8680641" lon="10.2211952"><ele>43.5</ele><time>2026-05-03T13:19:02.103Z</time></trkpt><trkpt lat="44.8680946" lon="10.2210167"><ele>43.75</ele><time>2026-05-03T13:19:03.102Z</time></trkpt><trkpt lat="44.8681238" lon="10.2208294"><ele>44.0</ele><time>2026-05-03T13:19:04.103Z</time></trkpt><trkpt lat="44.8681587" lon="10.2206155"><ele>44.0</ele><time>2026-05-03T13:19:05.103Z</time></trkpt><trkpt lat="44.8681973" lon="10.2203858"><ele>44.0</ele><time>2026-05-03T13:19:06.103Z</time></trkpt><trkpt lat="44.8682425" lon="10.2201439"><ele>44.0</ele><time>2026-05-03T13:19:07.103Z</time></trkpt><trkpt lat="44.8682918" lon="10.2198853"><ele>43.666666666666664</ele><time>2026-05-03T13:19:08.102Z</time></trkpt><trkpt lat="44.8683405" lon="10.2196114"><ele>43.333333333333336</ele><time>2026-05-03T13:19:09.102Z</time></trkpt><trkpt lat="44.8683874" lon="10.2193281"><ele>43.0</ele><time>2026-05-03T13:19:10.103Z</time></trkpt><trkpt lat="44.8684333" lon="10.2190404"><ele>43.0</ele><time>2026-05-03T13:19:11.102Z</time></trkpt><trkpt lat="44.8684819" lon="10.2187599"><ele>43.0</ele><time>2026-05-03T13:19:12.103Z</time></trkpt><trkpt lat="44.8685273" lon="10.2184802"><ele>43.0</ele><time>2026-05-03T13:19:13.103Z</time></trkpt><trkpt lat="44.8685728" lon="10.2182063"><ele>43.333333333333336</ele><time>2026-05-03T13:19:14.103Z</time></trkpt><trkpt lat="44.86862" lon="10.217939"><ele>43.666666666666664</ele><time>2026-05-03T13:19:15.103Z</time></trkpt><trkpt lat="44.8686659" lon="10.2176711"><ele>44.0</ele><time>2026-05-03T13:19:16.102Z</time></trkpt><trkpt lat="44.8687136" lon="10.2174064"><ele>43.666666666666664</ele><time>2026-05-03T13:19:17.102Z</time></trkpt><trkpt lat="44.8687616" lon="10.2171419"><ele>43.333333333333336</ele><time>2026-05-03T13:19:18.102Z</time></trkpt><trkpt lat="44.8688088" lon="10.216883"><ele>43.0</ele><time>2026-05-03T13:19:19.103Z</time></trkpt><trkpt lat="44.8688508" lon="10.2166315"><ele>43.0</ele><time>2026-05-03T13:19:20.102Z</time></trkpt><trkpt lat="44.8688932" lon="10.2163826"><ele>43.0</ele><time>2026-05-03T13:19:21.102Z</time></trkpt><trkpt lat="44.8689327" lon="10.2161465"><ele>43.0</ele><time>2026-05-03T13:19:22.103Z</time></trkpt><trkpt lat="44.8689722" lon="10.2159078"><ele>43.0</ele><time>2026-05-03T13:19:23.102Z</time></trkpt><trkpt lat="44.8690107" lon="10.2156753"><ele>43.0</ele><time>2026-05-03T13:19:24.102Z</time></trkpt><trkpt lat="44.8690446" lon="10.2154554"><ele>43.0</ele><time>2026-05-03T13:19:25.103Z</time></trkpt><trkpt lat="44.8690758" lon="10.2152399"><ele>43.25</ele><time>2026-05-03T13:19:26.103Z</time></trkpt><trkpt lat="44.8690993" lon="10.215038"><ele>43.5</ele><time>2026-05-03T13:19:27.103Z</time></trkpt><trkpt lat="44.8691216" lon="10.2148387"><ele>43.75</ele><time>2026-05-03T13:19:28.102Z</time></trkpt><trkpt lat="44.8691464" lon="10.214646"><ele>44.0</ele><time>2026-05-03T13:19:29.102Z</time></trkpt><trkpt lat="44.8691776" lon="10.214464"><ele>44.5</ele><time>2026-05-03T13:19:30.103Z</time></trkpt><trkpt lat="44.8692095" lon="10.2142765"><ele>45.0</ele><time>2026-05-03T13:19:31.103Z</time></trkpt><trkpt lat="44.8692445" lon="10.2140765"><ele>45.5</ele><time>2026-05-03T13:19:32.102Z</time></trkpt><trkpt lat="44.8692771" lon="10.2138771"><ele>46.0</ele><time>2026-05-03T13:19:33.103Z</time></trkpt><trkpt lat="44.8693144" lon="10.2136657"><ele>46.0</ele><time>2026-05-03T13:19:34.103Z</time></trkpt><trkpt lat="44.8693525" lon="10.213446"><ele>46.0</ele><time>2026-05-03T13:19:35.103Z</time></trkpt><trkpt lat="44.8693852" lon="10.2132336"><ele>46.0</ele><time>2026-05-03T13:19:36.103Z</time></trkpt><trkpt lat="44.8694115" lon="10.2130315"><ele>45.75</ele><time>2026-05-03T13:19:37.103Z</time></trkpt><trkpt lat="44.8694336" lon="10.2128394"><ele>45.5</ele><time>2026-05-03T13:19:38.102Z</time></trkpt><trkpt lat="44.8694556" lon="10.2126462"><ele>45.25</ele><time>2026-05-03T13:19:39.102Z</time></trkpt><trkpt lat="44.8694805" lon="10.2124507"><ele>45.0</ele><time>2026-05-03T13:19:40.102Z</time></trkpt><trkpt lat="44.8695153" lon="10.2122428"><ele>45.0</ele><time>2026-05-03T13:19:41.102Z</time></trkpt><trkpt lat="44.8695496" lon="10.212025"><ele>45.0</ele><time>2026-05-03T13:19:42.102Z</time></trkpt><trkpt lat="44.8695928" lon="10.2117885"><ele>45.0</ele><time>2026-05-03T13:19:43.103Z</time></trkpt><trkpt lat="44.8696323" lon="10.211546"><ele>44.666666666666664</ele><time>2026-05-03T13:19:44.102Z</time></trkpt><trkpt lat="44.8696771" lon="10.2112908"><ele>44.33333333333333</ele><time>2026-05-03T13:19:45.102Z</time></trkpt><trkpt lat="44.8697243" lon="10.2110203"><ele>44.0</ele><time>2026-05-03T13:19:46.103Z</time></trkpt><trkpt lat="44.8697732" lon="10.2107321"><ele>44.33333333333333</ele><time>2026-05-03T13:19:47.102Z</time></trkpt><trkpt lat="44.8698235" lon="10.2104286"><ele>44.666666666666664</ele><time>2026-05-03T13:19:48.102Z</time></trkpt><trkpt lat="44.8698744" lon="10.2101195"><ele>45.0</ele><time>2026-05-03T13:19:49.103Z</time></trkpt><trkpt lat="44.869929" lon="10.209797"><ele>45.0</ele><time>2026-05-03T13:19:50.103Z</time></trkpt><trkpt lat="44.8699876" lon="10.209476"><ele>45.0</ele><time>2026-05-03T13:19:51.102Z</time></trkpt><trkpt lat="44.8700458" lon="10.2091424"><ele>45.0</ele><time>2026-05-03T13:19:52.103Z</time></trkpt><trkpt lat="44.8701056" lon="10.2087966"><ele>45.0</ele><time>2026-05-03T13:19:53.103Z</time></trkpt><trkpt lat="44.8701602" lon="10.2084482"><ele>45.0</ele><time>2026-05-03T13:19:54.102Z</time></trkpt><trkpt lat="44.8702161" lon="10.2080908"><ele>45.0</ele><time>2026-05-03T13:19:55.103Z</time></trkpt><trkpt lat="44.8702698" lon="10.2077554"><ele>45.0</ele><time>2026-05-03T13:19:56.103Z</time></trkpt><trkpt lat="44.8703304" lon="10.2074203"><ele>45.0</ele><time>2026-05-03T13:19:57.103Z</time></trkpt><trkpt lat="44.8703925" lon="10.2070901"><ele>45.5</ele><time>2026-05-03T13:19:58.102Z</time></trkpt><trkpt lat="44.8704549" lon="10.2067515"><ele>46.0</ele><time>2026-05-03T13:19:59.102Z</time></trkpt><trkpt lat="44.8705159" lon="10.2064153"><ele>44.5</ele><time>2026-05-03T13:20:00.102Z</time></trkpt><trkpt lat="44.8705715" lon="10.2060548"><ele>43.0</ele><time>2026-05-03T13:20:01.102Z</time></trkpt><trkpt lat="44.8706238" lon="10.2057009"><ele>43.0</ele><time>2026-05-03T13:20:02.102Z</time></trkpt><trkpt lat="44.8706788" lon="10.2053406"><ele>43.0</ele><time>2026-05-03T13:20:03.103Z</time></trkpt><trkpt lat="44.8707396" lon="10.2049696"><ele>43.5</ele><time>2026-05-03T13:20:04.103Z</time></trkpt><trkpt lat="44.8707979" lon="10.2045947"><ele>44.0</ele><time>2026-05-03T13:20:05.102Z</time></trkpt><trkpt lat="44.8708654" lon="10.2042071"><ele>44.0</ele><time>2026-05-03T13:20:06.102Z</time></trkpt><trkpt lat="44.8709304" lon="10.2038208"><ele>44.0</ele><time>2026-05-03T13:20:07.102Z</time></trkpt><trkpt lat="44.8709946" lon="10.203442"><ele>44.5</ele><time>2026-05-03T13:20:08.102Z</time></trkpt><trkpt lat="44.8710613" lon="10.2030517"><ele>45.0</ele><time>2026-05-03T13:20:09.102Z</time></trkpt><trkpt lat="44.8711256" lon="10.2026645"><ele>44.5</ele><time>2026-05-03T13:20:10.102Z</time></trkpt><trkpt lat="44.8711875" lon="10.2022989"><ele>44.0</ele><time>2026-05-03T13:20:11.103Z</time></trkpt><trkpt lat="44.871251" lon="10.201937"><ele>44.0</ele><time>2026-05-03T13:20:12.103Z</time></trkpt><trkpt lat="44.8713183" lon="10.2015671"><ele>44.0</ele><time>2026-05-03T13:20:13.102Z</time></trkpt><trkpt lat="44.8713831" lon="10.201201"><ele>44.5</ele><time>2026-05-03T13:20:14.102Z</time></trkpt><trkpt lat="44.8714513" lon="10.2008344"><ele>45.0</ele><time>2026-05-03T13:20:15.102Z</time></trkpt><trkpt lat="44.8715214" lon="10.200457"><ele>45.0</ele><time>2026-05-03T13:20:16.103Z</time></trkpt><trkpt lat="44.8715895" lon="10.2000789"><ele>45.0</ele><time>2026-05-03T13:20:17.102Z</time></trkpt><trkpt lat="44.8716599" lon="10.1996975"><ele>45.0</ele><time>2026-05-03T13:20:18.102Z</time></trkpt><trkpt lat="44.8717323" lon="10.1993106"><ele>45.0</ele><time>2026-05-03T13:20:19.102Z</time></trkpt><trkpt lat="44.8717974" lon="10.1989217"><ele>44.5</ele><time>2026-05-03T13:20:20.103Z</time></trkpt><trkpt lat="44.8718636" lon="10.1985257"><ele>44.0</ele><time>2026-05-03T13:20:21.102Z</time></trkpt><trkpt lat="44.8719328" lon="10.1981275"><ele>44.0</ele><time>2026-05-03T13:20:22.103Z</time></trkpt><trkpt lat="44.8720018" lon="10.1977281"><ele>44.0</ele><time>2026-05-03T13:20:23.102Z</time></trkpt><trkpt lat="44.8720708" lon="10.1973208"><ele>44.0</ele><time>2026-05-03T13:20:24.103Z</time></trkpt><trkpt lat="44.8721346" lon="10.196924"><ele>44.0</ele><time>2026-05-03T13:20:25.102Z</time></trkpt><trkpt lat="44.872194" lon="10.1965256"><ele>43.5</ele><time>2026-05-03T13:20:26.102Z</time></trkpt><trkpt lat="44.872259" lon="10.1961138"><ele>43.0</ele><time>2026-05-03T13:20:27.103Z</time></trkpt><trkpt lat="44.8723192" lon="10.1957181"><ele>43.5</ele><time>2026-05-03T13:20:28.102Z</time></trkpt><trkpt lat="44.8723865" lon="10.1953137"><ele>44.0</ele><time>2026-05-03T13:20:29.103Z</time></trkpt><trkpt lat="44.8724478" lon="10.1949281"><ele>44.5</ele><time>2026-05-03T13:20:30.102Z</time></trkpt><trkpt lat="44.8725082" lon="10.1945505"><ele>45.0</ele><time>2026-05-03T13:20:31.102Z</time></trkpt><trkpt lat="44.8725714" lon="10.1941708"><ele>43.5</ele><time>2026-05-03T13:20:32.103Z</time></trkpt><trkpt lat="44.8726333" lon="10.1938095"><ele>42.0</ele><time>2026-05-03T13:20:33.102Z</time></trkpt><trkpt lat="44.8726968" lon="10.1934462"><ele>42.0</ele><time>2026-05-03T13:20:34.102Z</time></trkpt><trkpt lat="44.8727579" lon="10.1931023"><ele>42.0</ele><time>2026-05-03T13:20:35.103Z</time></trkpt><trkpt lat="44.8728189" lon="10.1927593"><ele>42.0</ele><time>2026-05-03T13:20:36.102Z</time></trkpt><trkpt lat="44.8728756" lon="10.1924241"><ele>42.0</ele><time>2026-05-03T13:20:37.102Z</time></trkpt><trkpt lat="44.8729296" lon="10.192085"><ele>42.5</ele><time>2026-05-03T13:20:38.103Z</time></trkpt><trkpt lat="44.8729875" lon="10.1917426"><ele>43.0</ele><time>2026-05-03T13:20:39.103Z</time></trkpt><trkpt lat="44.8730458" lon="10.1913962"><ele>43.5</ele><time>2026-05-03T13:20:40.103Z</time></trkpt><trkpt lat="44.8731062" lon="10.1910601"><ele>44.0</ele><time>2026-05-03T13:20:41.102Z</time></trkpt><trkpt lat="44.8731703" lon="10.1907137"><ele>44.5</ele><time>2026-05-03T13:20:42.102Z</time></trkpt><trkpt lat="44.8732286" lon="10.1903794"><ele>45.0</ele><time>2026-05-03T13:20:43.102Z</time></trkpt><trkpt lat="44.8732897" lon="10.1900309"><ele>43.5</ele><time>2026-05-03T13:20:44.102Z</time></trkpt><trkpt lat="44.8733448" lon="10.1896774"><ele>42.0</ele><time>2026-05-03T13:20:45.102Z</time></trkpt><trkpt lat="44.8734034" lon="10.1893216"><ele>43.0</ele><time>2026-05-03T13:20:46.102Z</time></trkpt><trkpt lat="44.8734578" lon="10.1889832"><ele>44.0</ele><time>2026-05-03T13:20:47.103Z</time></trkpt><trkpt lat="44.8735169" lon="10.1886414"><ele>44.0</ele><time>2026-05-03T13:20:48.103Z</time></trkpt><trkpt lat="44.8735753" lon="10.1883174"><ele>44.0</ele><time>2026-05-03T13:20:49.103Z</time></trkpt><trkpt lat="44.8736327" lon="10.187998"><ele>44.0</ele><time>2026-05-03T13:20:50.103Z</time></trkpt><trkpt lat="44.8736863" lon="10.1876887"><ele>44.0</ele><time>2026-05-03T13:20:51.103Z</time></trkpt><trkpt lat="44.8737344" lon="10.1873781"><ele>44.0</ele><time>2026-05-03T13:20:52.102Z</time></trkpt><trkpt lat="44.8737875" lon="10.1870622"><ele>44.0</ele><time>2026-05-03T13:20:53.102Z</time></trkpt><trkpt lat="44.8738358" lon="10.1867637"><ele>44.0</ele><time>2026-05-03T13:20:54.103Z</time></trkpt><trkpt lat="44.8738821" lon="10.1864848"><ele>43.666666666666664</ele><time>2026-05-03T13:20:55.103Z</time></trkpt><trkpt lat="44.8739282" lon="10.1862077"><ele>43.333333333333336</ele><time>2026-05-03T13:20:56.102Z</time></trkpt><trkpt lat="44.8739773" lon="10.1859281"><ele>43.0</ele><time>2026-05-03T13:20:57.102Z</time></trkpt><trkpt lat="44.8740245" lon="10.1856411"><ele>42.66666666666667</ele><time>2026-05-03T13:20:58.102Z</time></trkpt><trkpt lat="44.8740738" lon="10.1853489"><ele>42.333333333333336</ele><time>2026-05-03T13:20:59.103Z</time></trkpt><trkpt lat="44.8741302" lon="10.1850329"><ele>42.0</ele><time>2026-05-03T13:21:00.102Z</time></trkpt><trkpt lat="44.8741877" lon="10.1847"><ele>42.5</ele><time>2026-05-03T13:21:01.102Z</time></trkpt><trkpt lat="44.874248" lon="10.1843517"><ele>43.0</ele><time>2026-05-03T13:21:02.102Z</time></trkpt><trkpt lat="44.8743109" lon="10.183994"><ele>43.0</ele><time>2026-05-03T13:21:03.102Z</time></trkpt><trkpt lat="44.874371" lon="10.1836209"><ele>43.0</ele><time>2026-05-03T13:21:04.103Z</time></trkpt><trkpt lat="44.874434" lon="10.1832312"><ele>43.0</ele><time>2026-05-03T13:21:05.102Z</time></trkpt><trkpt lat="44.874503" lon="10.1828331"><ele>43.0</ele><time>2026-05-03T13:21:06.102Z</time></trkpt><trkpt lat="44.8745725" lon="10.1824375"><ele>44.0</ele><time>2026-05-03T13:21:07.102Z</time></trkpt><trkpt lat="44.874636" lon="10.18204"><ele>45.0</ele><time>2026-05-03T13:21:08.103Z</time></trkpt><trkpt lat="44.8746988" lon="10.181645"><ele>44.0</ele><time>2026-05-03T13:21:09.102Z</time></trkpt><trkpt lat="44.8747645" lon="10.1812536"><ele>43.0</ele><time>2026-05-03T13:21:10.102Z</time></trkpt><trkpt lat="44.8748253" lon="10.180885"><ele>43.5</ele><time>2026-05-03T13:21:11.103Z</time></trkpt><trkpt lat="44.8748919" lon="10.1805277"><ele>44.0</ele><time>2026-05-03T13:21:12.102Z</time></trkpt><trkpt lat="44.8749493" lon="10.1801861"><ele>43.5</ele><time>2026-05-03T13:21:13.103Z</time></trkpt><trkpt lat="44.8750079" lon="10.1798444"><ele>43.0</ele><time>2026-05-03T13:21:14.102Z</time></trkpt><trkpt lat="44.875061" lon="10.1795057"><ele>43.0</ele><time>2026-05-03T13:21:15.103Z</time></trkpt><trkpt lat="44.8751112" lon="10.1791639"><ele>43.0</ele><time>2026-05-03T13:21:16.103Z</time></trkpt><trkpt lat="44.8751576" lon="10.1788193"><ele>43.5</ele><time>2026-05-03T13:21:17.102Z</time></trkpt><trkpt lat="44.8752065" lon="10.1784695"><ele>44.0</ele><time>2026-05-03T13:21:18.103Z</time></trkpt><trkpt lat="44.8752634" lon="10.1781229"><ele>44.0</ele><time>2026-05-03T13:21:19.103Z</time></trkpt><trkpt lat="44.8753315" lon="10.1777578"><ele>44.0</ele><time>2026-05-03T13:21:20.102Z</time></trkpt><trkpt lat="44.8753971" lon="10.1773942"><ele>44.0</ele><time>2026-05-03T13:21:21.103Z</time></trkpt><trkpt lat="44.8754616" lon="10.1770144"><ele>44.0</ele><time>2026-05-03T13:21:22.102Z</time></trkpt><trkpt lat="44.8755245" lon="10.176624"><ele>45.0</ele><time>2026-05-03T13:21:23.102Z</time></trkpt><trkpt lat="44.8755863" lon="10.1762183"><ele>46.0</ele><time>2026-05-03T13:21:24.102Z</time></trkpt><trkpt lat="44.8756494" lon="10.1758081"><ele>45.5</ele><time>2026-05-03T13:21:25.103Z</time></trkpt><trkpt lat="44.8757201" lon="10.1753932"><ele>45.0</ele><time>2026-05-03T13:21:26.103Z</time></trkpt><trkpt lat="44.8757929" lon="10.1749784"><ele>45.0</ele><time>2026-05-03T13:21:27.103Z</time></trkpt><trkpt lat="44.8758631" lon="10.1745608"><ele>45.0</ele><time>2026-05-03T13:21:28.102Z</time></trkpt><trkpt lat="44.8759375" lon="10.1741364"><ele>46.5</ele><time>2026-05-03T13:21:29.103Z</time></trkpt><trkpt lat="44.8760097" lon="10.173724"><ele>48.0</ele><time>2026-05-03T13:21:30.102Z</time></trkpt><trkpt lat="44.8760817" lon="10.1733144"><ele>48.0</ele><time>2026-05-03T13:21:31.103Z</time></trkpt><trkpt lat="44.8761519" lon="10.172906"><ele>48.0</ele><time>2026-05-03T13:21:32.103Z</time></trkpt><trkpt lat="44.876224" lon="10.1725074"><ele>47.5</ele><time>2026-05-03T13:21:33.103Z</time></trkpt><trkpt lat="44.8762932" lon="10.172118"><ele>47.0</ele><time>2026-05-03T13:21:34.103Z</time></trkpt><trkpt lat="44.8763604" lon="10.171725"><ele>46.5</ele><time>2026-05-03T13:21:35.102Z</time></trkpt><trkpt lat="44.8764284" lon="10.1713323"><ele>46.0</ele><time>2026-05-03T13:21:36.102Z</time></trkpt><trkpt lat="44.8764991" lon="10.1709392"><ele>47.5</ele><time>2026-05-03T13:21:37.102Z</time></trkpt><trkpt lat="44.8765711" lon="10.1705375"><ele>49.0</ele><time>2026-05-03T13:21:38.102Z</time></trkpt><trkpt lat="44.8766433" lon="10.1701336"><ele>49.5</ele><time>2026-05-03T13:21:39.103Z</time></trkpt><trkpt lat="44.8767201" lon="10.169718"><ele>50.0</ele><time>2026-05-03T13:21:40.103Z</time></trkpt><trkpt lat="44.8767934" lon="10.1692987"><ele>50.5</ele><time>2026-05-03T13:21:41.102Z</time></trkpt><trkpt lat="44.8768674" lon="10.168872"><ele>51.0</ele><time>2026-05-03T13:21:42.102Z</time></trkpt><trkpt lat="44.8769369" lon="10.168444"><ele>49.0</ele><time>2026-05-03T13:21:43.102Z</time></trkpt><trkpt lat="44.8770091" lon="10.168005"><ele>47.0</ele><time>2026-05-03T13:21:44.102Z</time></trkpt><trkpt lat="44.8770792" lon="10.1675661"><ele>46.5</ele><time>2026-05-03T13:21:45.102Z</time></trkpt><trkpt lat="44.8771491" lon="10.1671446"><ele>46.0</ele><time>2026-05-03T13:21:46.102Z</time></trkpt><trkpt lat="44.8772131" lon="10.1667406"><ele>46.0</ele><time>2026-05-03T13:21:47.103Z</time></trkpt><trkpt lat="44.8772811" lon="10.1663411"><ele>46.0</ele><time>2026-05-03T13:21:48.103Z</time></trkpt><trkpt lat="44.8773463" lon="10.1659405"><ele>46.0</ele><time>2026-05-03T13:21:49.102Z</time></trkpt><trkpt lat="44.8774109" lon="10.1655462"><ele>46.0</ele><time>2026-05-03T13:21:50.103Z</time></trkpt><trkpt lat="44.8774745" lon="10.1651618"><ele>46.0</ele><time>2026-05-03T13:21:51.102Z</time></trkpt><trkpt lat="44.8775388" lon="10.1647733"><ele>46.0</ele><time>2026-05-03T13:21:52.103Z</time></trkpt><trkpt lat="44.8775989" lon="10.1643846"><ele>46.5</ele><time>2026-05-03T13:21:53.103Z</time></trkpt><trkpt lat="44.8776658" lon="10.1639884"><ele>47.0</ele><time>2026-05-03T13:21:54.103Z</time></trkpt><trkpt lat="44.8777282" lon="10.1635976"><ele>47.0</ele><time>2026-05-03T13:21:55.102Z</time></trkpt><trkpt lat="44.8777916" lon="10.1632023"><ele>47.0</ele><time>2026-05-03T13:21:56.103Z</time></trkpt><trkpt lat="44.8778537" lon="10.1628048"><ele>47.5</ele><time>2026-05-03T13:21:57.103Z</time></trkpt><trkpt lat="44.8779194" lon="10.1624039"><ele>48.0</ele><time>2026-05-03T13:21:58.103Z</time></trkpt><trkpt lat="44.8779844" lon="10.1620091"><ele>47.5</ele><time>2026-05-03T13:21:59.103Z</time></trkpt><trkpt lat="44.8780509" lon="10.1616179"><ele>47.0</ele><time>2026-05-03T13:22:00.102Z</time></trkpt><trkpt lat="44.8781257" lon="10.1612245"><ele>47.0</ele><time>2026-05-03T13:22:01.102Z</time></trkpt><trkpt lat="44.8781921" lon="10.160838"><ele>47.0</ele><time>2026-05-03T13:22:02.103Z</time></trkpt><trkpt lat="44.8782618" lon="10.160447"><ele>47.0</ele><time>2026-05-03T13:22:03.103Z</time></trkpt><trkpt lat="44.8783282" lon="10.160056"><ele>47.0</ele><time>2026-05-03T13:22:04.103Z</time></trkpt><trkpt lat="44.8783915" lon="10.1596687"><ele>47.0</ele><time>2026-05-03T13:22:05.102Z</time></trkpt><trkpt lat="44.8784546" lon="10.1592739"><ele>47.0</ele><time>2026-05-03T13:22:06.103Z</time></trkpt><trkpt lat="44.8785132" lon="10.1588895"><ele>47.0</ele><time>2026-05-03T13:22:07.103Z</time></trkpt><trkpt lat="44.8785697" lon="10.1585245"><ele>47.0</ele><time>2026-05-03T13:22:08.103Z</time></trkpt><trkpt lat="44.8786332" lon="10.1581568"><ele>46.5</ele><time>2026-05-03T13:22:09.103Z</time></trkpt><trkpt lat="44.8786929" lon="10.157793"><ele>46.0</ele><time>2026-05-03T13:22:10.102Z</time></trkpt><trkpt lat="44.878759" lon="10.1574074"><ele>46.0</ele><time>2026-05-03T13:22:11.103Z</time></trkpt><trkpt lat="44.8788272" lon="10.157014"><ele>46.0</ele><time>2026-05-03T13:22:12.103Z</time></trkpt><trkpt lat="44.8788932" lon="10.1566307"><ele>46.5</ele><time>2026-05-03T13:22:13.102Z</time></trkpt><trkpt lat="44.8789625" lon="10.1562285"><ele>47.0</ele><time>2026-05-03T13:22:14.102Z</time></trkpt><trkpt lat="44.8790385" lon="10.1558067"><ele>46.5</ele><time>2026-05-03T13:22:15.102Z</time></trkpt><trkpt lat="44.879116" lon="10.1553732"><ele>46.0</ele><time>2026-05-03T13:22:16.102Z</time></trkpt><trkpt lat="44.8791938" lon="10.1549304"><ele>46.0</ele><time>2026-05-03T13:22:17.103Z</time></trkpt><trkpt lat="44.8792641" lon="10.1544999"><ele>46.0</ele><time>2026-05-03T13:22:18.103Z</time></trkpt><trkpt lat="44.8793322" lon="10.1540941"><ele>46.0</ele><time>2026-05-03T13:22:19.102Z</time></trkpt><trkpt lat="44.8793954" lon="10.1536995"><ele>46.0</ele><time>2026-05-03T13:22:20.102Z</time></trkpt><trkpt lat="44.8794609" lon="10.153311"><ele>46.0</ele><time>2026-05-03T13:22:21.102Z</time></trkpt><trkpt lat="44.87953" lon="10.1529201"><ele>46.0</ele><time>2026-05-03T13:22:22.103Z</time></trkpt><trkpt lat="44.8795922" lon="10.1525371"><ele>46.5</ele><time>2026-05-03T13:22:23.102Z</time></trkpt><trkpt lat="44.8796585" lon="10.1521503"><ele>47.0</ele><time>2026-05-03T13:22:24.102Z</time></trkpt><trkpt lat="44.8797285" lon="10.1517587"><ele>47.0</ele><time>2026-05-03T13:22:25.102Z</time></trkpt><trkpt lat="44.8797898" lon="10.1513729"><ele>47.0</ele><time>2026-05-03T13:22:26.103Z</time></trkpt><trkpt lat="44.8798543" lon="10.1509812"><ele>46.5</ele><time>2026-05-03T13:22:27.103Z</time></trkpt><trkpt lat="44.8799216" lon="10.1505967"><ele>46.0</ele><time>2026-05-03T13:22:28.103Z</time></trkpt><trkpt lat="44.8799858" lon="10.1502133"><ele>46.0</ele><time>2026-05-03T13:22:29.103Z</time></trkpt><trkpt lat="44.8800524" lon="10.1498324"><ele>46.0</ele><time>2026-05-03T13:22:30.102Z</time></trkpt><trkpt lat="44.8801208" lon="10.1494531"><ele>47.0</ele><time>2026-05-03T13:22:31.103Z</time></trkpt><trkpt lat="44.8801811" lon="10.1490734"><ele>48.0</ele><time>2026-05-03T13:22:32.103Z</time></trkpt><trkpt lat="44.8802435" lon="10.1487012"><ele>48.0</ele><time>2026-05-03T13:22:33.103Z</time></trkpt><trkpt lat="44.8803044" lon="10.1483343"><ele>48.0</ele><time>2026-05-03T13:22:34.103Z</time></trkpt><trkpt lat="44.8803704" lon="10.1479641"><ele>48.0</ele><time>2026-05-03T13:22:35.103Z</time></trkpt><trkpt lat="44.880432" lon="10.1475955"><ele>48.0</ele><time>2026-05-03T13:22:36.102Z</time></trkpt><trkpt lat="44.8804976" lon="10.1472105"><ele>48.0</ele><time>2026-05-03T13:22:37.102Z</time></trkpt><trkpt lat="44.8805643" lon="10.146822"><ele>48.0</ele><time>2026-05-03T13:22:38.103Z</time></trkpt><trkpt lat="44.8806316" lon="10.146436"><ele>48.0</ele><time>2026-05-03T13:22:39.102Z</time></trkpt><trkpt lat="44.8807026" lon="10.1460539"><ele>48.0</ele><time>2026-05-03T13:22:40.102Z</time></trkpt><trkpt lat="44.8807716" lon="10.1456676"><ele>48.0</ele><time>2026-05-03T13:22:41.103Z</time></trkpt><trkpt lat="44.8808325" lon="10.1452747"><ele>48.0</ele><time>2026-05-03T13:22:42.103Z</time></trkpt><trkpt lat="44.8809005" lon="10.1448682"><ele>47.5</ele><time>2026-05-03T13:22:43.102Z</time></trkpt><trkpt lat="44.8809646" lon="10.1444686"><ele>47.0</ele><time>2026-05-03T13:22:44.102Z</time></trkpt><trkpt lat="44.8810261" lon="10.1440639"><ele>47.0</ele><time>2026-05-03T13:22:45.102Z</time></trkpt><trkpt lat="44.8810892" lon="10.1436603"><ele>47.0</ele><time>2026-05-03T13:22:46.103Z</time></trkpt><trkpt lat="44.8811511" lon="10.1432615"><ele>48.0</ele><time>2026-05-03T13:22:47.103Z</time></trkpt><trkpt lat="44.8812093" lon="10.1428619"><ele>49.0</ele><time>2026-05-03T13:22:48.103Z</time></trkpt><trkpt lat="44.8812699" lon="10.1424624"><ele>49.5</ele><time>2026-05-03T13:22:49.102Z</time></trkpt><trkpt lat="44.8813319" lon="10.1420637"><ele>50.0</ele><time>2026-05-03T13:22:50.103Z</time></trkpt><trkpt lat="44.8813916" lon="10.1416759"><ele>50.0</ele><time>2026-05-03T13:22:51.102Z</time></trkpt><trkpt lat="44.8814521" lon="10.1412879"><ele>50.0</ele><time>2026-05-03T13:22:52.103Z</time></trkpt><trkpt lat="44.8815127" lon="10.140892"><ele>50.5</ele><time>2026-05-03T13:22:53.102Z</time></trkpt><trkpt lat="44.8815721" lon="10.1404963"><ele>51.0</ele><time>2026-05-03T13:22:54.102Z</time></trkpt><trkpt lat="44.8816352" lon="10.1400958"><ele>50.0</ele><time>2026-05-03T13:22:55.103Z</time></trkpt><trkpt lat="44.8816993" lon="10.1396818"><ele>49.0</ele><time>2026-05-03T13:22:56.102Z</time></trkpt><trkpt lat="44.8817614" lon="10.1392693"><ele>49.5</ele><time>2026-05-03T13:22:57.102Z</time></trkpt><trkpt lat="44.8818248" lon="10.1388564"><ele>50.0</ele><time>2026-05-03T13:22:58.103Z</time></trkpt><trkpt lat="44.8818913" lon="10.1384442"><ele>49.5</ele><time>2026-05-03T13:22:59.103Z</time></trkpt><trkpt lat="44.8819544" lon="10.1380254"><ele>49.0</ele><time>2026-05-03T13:23:00.102Z</time></trkpt><trkpt lat="44.8820193" lon="10.1376031"><ele>49.5</ele><time>2026-05-03T13:23:01.103Z</time></trkpt><trkpt lat="44.8820838" lon="10.1371783"><ele>50.0</ele><time>2026-05-03T13:23:02.102Z</time></trkpt><trkpt lat="44.8821447" lon="10.1367689"><ele>50.5</ele><time>2026-05-03T13:23:03.102Z</time></trkpt><trkpt lat="44.882203" lon="10.1363708"><ele>51.0</ele><time>2026-05-03T13:23:04.102Z</time></trkpt><trkpt lat="44.8822586" lon="10.1359763"><ele>50.5</ele><time>2026-05-03T13:23:05.103Z</time></trkpt><trkpt lat="44.8823155" lon="10.1355804"><ele>50.0</ele><time>2026-05-03T13:23:06.103Z</time></trkpt><trkpt lat="44.8823693" lon="10.1351859"><ele>50.5</ele><time>2026-05-03T13:23:07.103Z</time></trkpt><trkpt lat="44.8824279" lon="10.1347846"><ele>51.0</ele><time>2026-05-03T13:23:08.103Z</time></trkpt><trkpt lat="44.8824898" lon="10.1343852"><ele>51.0</ele><time>2026-05-03T13:23:09.102Z</time></trkpt><trkpt lat="44.88255" lon="10.1339849"><ele>51.0</ele><time>2026-05-03T13:23:10.103Z</time></trkpt><trkpt lat="44.8826107" lon="10.1335842"><ele>51.5</ele><time>2026-05-03T13:23:11.102Z</time></trkpt><trkpt lat="44.8826701" lon="10.1331927"><ele>52.0</ele><time>2026-05-03T13:23:12.102Z</time></trkpt><trkpt lat="44.8827288" lon="10.1328144"><ele>52.0</ele><time>2026-05-03T13:23:13.103Z</time></trkpt><trkpt lat="44.8827826" lon="10.1324501"><ele>52.0</ele><time>2026-05-03T13:23:14.103Z</time></trkpt><trkpt lat="44.8828317" lon="10.1321079"><ele>51.0</ele><time>2026-05-03T13:23:15.103Z</time></trkpt><trkpt lat="44.8828889" lon="10.1317517"><ele>50.0</ele><time>2026-05-03T13:23:16.102Z</time></trkpt><trkpt lat="44.8829437" lon="10.1313964"><ele>49.5</ele><time>2026-05-03T13:23:17.103Z</time></trkpt><trkpt lat="44.8829977" lon="10.1310348"><ele>49.0</ele><time>2026-05-03T13:23:18.103Z</time></trkpt><trkpt lat="44.8830554" lon="10.1306726"><ele>48.5</ele><time>2026-05-03T13:23:19.103Z</time></trkpt><trkpt lat="44.8831099" lon="10.1303079"><ele>48.0</ele><time>2026-05-03T13:23:20.102Z</time></trkpt><trkpt lat="44.8831682" lon="10.1299359"><ele>49.0</ele><time>2026-05-03T13:23:21.102Z</time></trkpt><trkpt lat="44.8832187" lon="10.1295732"><ele>50.0</ele><time>2026-05-03T13:23:22.103Z</time></trkpt><trkpt lat="44.8832737" lon="10.1292042"><ele>50.5</ele><time>2026-05-03T13:23:23.102Z</time></trkpt><trkpt lat="44.8833263" lon="10.1288338"><ele>51.0</ele><time>2026-05-03T13:23:24.102Z</time></trkpt><trkpt lat="44.8833869" lon="10.1284577"><ele>51.5</ele><time>2026-05-03T13:23:25.102Z</time></trkpt><trkpt lat="44.8834429" lon="10.1280919"><ele>52.0</ele><time>2026-05-03T13:23:26.103Z</time></trkpt><trkpt lat="44.8835054" lon="10.1277193"><ele>52.0</ele><time>2026-05-03T13:23:27.103Z</time></trkpt><trkpt lat="44.8835691" lon="10.1273438"><ele>52.0</ele><time>2026-05-03T13:23:28.102Z</time></trkpt><trkpt lat="44.8836404" lon="10.1269513"><ele>52.0</ele><time>2026-05-03T13:23:29.102Z</time></trkpt><trkpt lat="44.8837129" lon="10.126546"><ele>52.0</ele><time>2026-05-03T13:23:30.103Z</time></trkpt><trkpt lat="44.8837809" lon="10.1261179"><ele>52.5</ele><time>2026-05-03T13:23:31.103Z</time></trkpt><trkpt lat="44.883856" lon="10.1256783"><ele>53.0</ele><time>2026-05-03T13:23:32.102Z</time></trkpt><trkpt lat="44.8839233" lon="10.1252511"><ele>53.0</ele><time>2026-05-03T13:23:33.103Z</time></trkpt><trkpt lat="44.8839916" lon="10.1248423"><ele>53.0</ele><time>2026-05-03T13:23:34.103Z</time></trkpt><trkpt lat="44.8840573" lon="10.1244346"><ele>52.5</ele><time>2026-05-03T13:23:35.102Z</time></trkpt><trkpt lat="44.8841215" lon="10.1240231"><ele>52.0</ele><time>2026-05-03T13:23:36.103Z</time></trkpt><trkpt lat="44.8841829" lon="10.123611"><ele>53.0</ele><time>2026-05-03T13:23:37.102Z</time></trkpt><trkpt lat="44.8842469" lon="10.1231884"><ele>54.0</ele><time>2026-05-03T13:23:38.103Z</time></trkpt><trkpt lat="44.8843052" lon="10.1227745"><ele>54.5</ele><time>2026-05-03T13:23:39.102Z</time></trkpt><trkpt lat="44.8843704" lon="10.1223542"><ele>55.0</ele><time>2026-05-03T13:23:40.102Z</time></trkpt><trkpt lat="44.8844366" lon="10.1219246"><ele>54.0</ele><time>2026-05-03T13:23:41.102Z</time></trkpt><trkpt lat="44.8844998" lon="10.1215045"><ele>53.0</ele><time>2026-05-03T13:23:42.102Z</time></trkpt><trkpt lat="44.8845635" lon="10.1210831"><ele>53.5</ele><time>2026-05-03T13:23:43.102Z</time></trkpt><trkpt lat="44.8846272" lon="10.1206721"><ele>54.0</ele><time>2026-05-03T13:23:44.103Z</time></trkpt><trkpt lat="44.8846852" lon="10.1202715"><ele>54.0</ele><time>2026-05-03T13:23:45.103Z</time></trkpt><trkpt lat="44.8847415" lon="10.1198821"><ele>54.0</ele><time>2026-05-03T13:23:46.103Z</time></trkpt><trkpt lat="44.8847942" lon="10.1194973"><ele>54.0</ele><time>2026-05-03T13:23:47.103Z</time></trkpt><trkpt lat="44.884842" lon="10.1191155"><ele>54.0</ele><time>2026-05-03T13:23:48.103Z</time></trkpt><trkpt lat="44.8848909" lon="10.1187356"><ele>54.0</ele><time>2026-05-03T13:23:49.103Z</time></trkpt><trkpt lat="44.8849436" lon="10.1183442"><ele>54.0</ele><time>2026-05-03T13:23:50.102Z</time></trkpt><trkpt lat="44.8850018" lon="10.1179482"><ele>53.5</ele><time>2026-05-03T13:23:51.103Z</time></trkpt><trkpt lat="44.8850587" lon="10.1175576"><ele>53.0</ele><time>2026-05-03T13:23:52.103Z</time></trkpt><trkpt lat="44.8851164" lon="10.1171594"><ele>53.0</ele><time>2026-05-03T13:23:53.102Z</time></trkpt><trkpt lat="44.8851713" lon="10.1167521"><ele>53.0</ele><time>2026-05-03T13:23:54.103Z</time></trkpt><trkpt lat="44.8852311" lon="10.1163404"><ele>53.5</ele><time>2026-05-03T13:23:55.102Z</time></trkpt><trkpt lat="44.8852921" lon="10.1159289"><ele>54.0</ele><time>2026-05-03T13:23:56.102Z</time></trkpt><trkpt lat="44.8853501" lon="10.1155233"><ele>54.0</ele><time>2026-05-03T13:23:57.103Z</time></trkpt><trkpt lat="44.8854116" lon="10.1151277"><ele>54.0</ele><time>2026-05-03T13:23:58.102Z</time></trkpt><trkpt lat="44.8854709" lon="10.114747"><ele>54.0</ele><time>2026-05-03T13:23:59.102Z</time></trkpt><trkpt lat="44.8855337" lon="10.1143642"><ele>54.0</ele><time>2026-05-03T13:24:00.103Z</time></trkpt><trkpt lat="44.8855938" lon="10.1139842"><ele>54.0</ele><time>2026-05-03T13:24:01.103Z</time></trkpt><trkpt lat="44.8856574" lon="10.1136039"><ele>54.0</ele><time>2026-05-03T13:24:02.103Z</time></trkpt><trkpt lat="44.8857188" lon="10.1132174"><ele>54.0</ele><time>2026-05-03T13:24:03.102Z</time></trkpt><trkpt lat="44.8857813" lon="10.1128199"><ele>54.0</ele><time>2026-05-03T13:24:04.103Z</time></trkpt><trkpt lat="44.8858438" lon="10.1124161"><ele>54.0</ele><time>2026-05-03T13:24:05.103Z</time></trkpt><trkpt lat="44.8859054" lon="10.1120101"><ele>54.0</ele><time>2026-05-03T13:24:06.102Z</time></trkpt><trkpt lat="44.8859684" lon="10.1115913"><ele>54.0</ele><time>2026-05-03T13:24:07.102Z</time></trkpt><trkpt lat="44.886032" lon="10.111154"><ele>54.0</ele><time>2026-05-03T13:24:08.102Z</time></trkpt><trkpt lat="44.8860929" lon="10.1107132"><ele>54.0</ele><time>2026-05-03T13:24:09.102Z</time></trkpt><trkpt lat="44.8861546" lon="10.110261"><ele>54.0</ele><time>2026-05-03T13:24:10.102Z</time></trkpt><trkpt lat="44.8862178" lon="10.1098145"><ele>54.0</ele><time>2026-05-03T13:24:11.103Z</time></trkpt><trkpt lat="44.8862873" lon="10.1093643"><ele>54.0</ele><time>2026-05-03T13:24:12.103Z</time></trkpt><trkpt lat="44.8863548" lon="10.1089196"><ele>54.0</ele><time>2026-05-03T13:24:13.102Z</time></trkpt><trkpt lat="44.8864223" lon="10.1084764"><ele>54.0</ele><time>2026-05-03T13:24:14.102Z</time></trkpt><trkpt lat="44.8864878" lon="10.1080261"><ele>54.0</ele><time>2026-05-03T13:24:15.103Z</time></trkpt><trkpt lat="44.8865503" lon="10.1075834"><ele>54.0</ele><time>2026-05-03T13:24:16.102Z</time></trkpt><trkpt lat="44.8866151" lon="10.1071443"><ele>53.5</ele><time>2026-05-03T13:24:17.102Z</time></trkpt><trkpt lat="44.8866809" lon="10.1067044"><ele>53.0</ele><time>2026-05-03T13:24:18.103Z</time></trkpt><trkpt lat="44.8867493" lon="10.1062619"><ele>54.0</ele><time>2026-05-03T13:24:19.102Z</time></trkpt><trkpt lat="44.8868169" lon="10.1058219"><ele>55.0</ele><time>2026-05-03T13:24:20.102Z</time></trkpt><trkpt lat="44.8868855" lon="10.1053842"><ele>55.0</ele><time>2026-05-03T13:24:21.103Z</time></trkpt><trkpt lat="44.8869506" lon="10.1049448"><ele>55.0</ele><time>2026-05-03T13:24:22.102Z</time></trkpt><trkpt lat="44.8870179" lon="10.104509"><ele>56.0</ele><time>2026-05-03T13:24:23.102Z</time></trkpt><trkpt lat="44.8870858" lon="10.1040725"><ele>57.0</ele><time>2026-05-03T13:24:24.102Z</time></trkpt><trkpt lat="44.8871559" lon="10.1036381"><ele>57.5</ele><time>2026-05-03T13:24:25.102Z</time></trkpt><trkpt lat="44.8872304" lon="10.1032082"><ele>58.0</ele><time>2026-05-03T13:24:26.102Z</time></trkpt><trkpt lat="44.8872978" lon="10.1027817"><ele>58.0</ele><time>2026-05-03T13:24:27.102Z</time></trkpt><trkpt lat="44.8873662" lon="10.1023602"><ele>58.0</ele><time>2026-05-03T13:24:28.102Z</time></trkpt><trkpt lat="44.887436" lon="10.1019306"><ele>57.5</ele><time>2026-05-03T13:24:29.103Z</time></trkpt><trkpt lat="44.8875057" lon="10.1015071"><ele>57.0</ele><time>2026-05-03T13:24:30.103Z</time></trkpt><trkpt lat="44.8875669" lon="10.1011025"><ele>55.5</ele><time>2026-05-03T13:24:31.103Z</time></trkpt><trkpt lat="44.8876285" lon="10.1007073"><ele>54.0</ele><time>2026-05-03T13:24:32.103Z</time></trkpt><trkpt lat="44.88769" lon="10.100313"><ele>54.0</ele><time>2026-05-03T13:24:33.103Z</time></trkpt><trkpt lat="44.8877455" lon="10.0999225"><ele>54.0</ele><time>2026-05-03T13:24:34.103Z</time></trkpt><trkpt lat="44.8878039" lon="10.0995386"><ele>54.5</ele><time>2026-05-03T13:24:35.103Z</time></trkpt><trkpt lat="44.8878647" lon="10.0991483"><ele>55.0</ele><time>2026-05-03T13:24:36.102Z</time></trkpt><trkpt lat="44.8879222" lon="10.0987737"><ele>55.0</ele><time>2026-05-03T13:24:37.103Z</time></trkpt><trkpt lat="44.8879835" lon="10.0983933"><ele>55.0</ele><time>2026-05-03T13:24:38.102Z</time></trkpt><trkpt lat="44.8880428" lon="10.0980034"><ele>55.0</ele><time>2026-05-03T13:24:39.102Z</time></trkpt><trkpt lat="44.8880981" lon="10.0976322"><ele>55.0</ele><time>2026-05-03T13:24:40.103Z</time></trkpt><trkpt lat="44.8881551" lon="10.0972692"><ele>55.0</ele><time>2026-05-03T13:24:41.102Z</time></trkpt><trkpt lat="44.8882076" lon="10.0969171"><ele>55.0</ele><time>2026-05-03T13:24:42.103Z</time></trkpt><trkpt lat="44.8882523" lon="10.0965984"><ele>54.666666666666664</ele><time>2026-05-03T13:24:43.103Z</time></trkpt><trkpt lat="44.8882998" lon="10.0962816"><ele>54.33333333333333</ele><time>2026-05-03T13:24:44.103Z</time></trkpt><trkpt lat="44.8883435" lon="10.0959828"><ele>54.0</ele><time>2026-05-03T13:24:45.103Z</time></trkpt><trkpt lat="44.8883888" lon="10.0956915"><ele>54.0</ele><time>2026-05-03T13:24:46.102Z</time></trkpt><trkpt lat="44.8884271" lon="10.0954044"><ele>54.0</ele><time>2026-05-03T13:24:47.102Z</time></trkpt><trkpt lat="44.8884708" lon="10.0951165"><ele>54.0</ele><time>2026-05-03T13:24:48.102Z</time></trkpt><trkpt lat="44.8885157" lon="10.0948133"><ele>54.0</ele><time>2026-05-03T13:24:49.103Z</time></trkpt><trkpt lat="44.888564" lon="10.0945044"><ele>54.0</ele><time>2026-05-03T13:24:50.102Z</time></trkpt><trkpt lat="44.8886111" lon="10.094185"><ele>55.0</ele><time>2026-05-03T13:24:51.102Z</time></trkpt><trkpt lat="44.8886594" lon="10.0938518"><ele>56.0</ele><time>2026-05-03T13:24:52.103Z</time></trkpt><trkpt lat="44.8887112" lon="10.0935145"><ele>56.0</ele><time>2026-05-03T13:24:53.102Z</time></trkpt><trkpt lat="44.888764" lon="10.0931819"><ele>56.0</ele><time>2026-05-03T13:24:54.103Z</time></trkpt><trkpt lat="44.8888121" lon="10.092847"><ele>56.0</ele><time>2026-05-03T13:24:55.102Z</time></trkpt><trkpt lat="44.8888665" lon="10.0925132"><ele>56.0</ele><time>2026-05-03T13:24:56.102Z</time></trkpt><trkpt lat="44.888919" lon="10.0921757"><ele>56.0</ele><time>2026-05-03T13:24:57.102Z</time></trkpt><trkpt lat="44.8889721" lon="10.0918399"><ele>56.0</ele><time>2026-05-03T13:24:58.103Z</time></trkpt><trkpt lat="44.8890184" lon="10.0915086"><ele>56.5</ele><time>2026-05-03T13:24:59.103Z</time></trkpt><trkpt lat="44.8890688" lon="10.0911802"><ele>57.0</ele><time>2026-05-03T13:25:00.103Z</time></trkpt><trkpt lat="44.8891177" lon="10.0908578"><ele>56.5</ele><time>2026-05-03T13:25:01.102Z</time></trkpt><trkpt lat="44.8891679" lon="10.0905217"><ele>56.0</ele><time>2026-05-03T13:25:02.103Z</time></trkpt><trkpt lat="44.889218" lon="10.0901919"><ele>56.0</ele><time>2026-05-03T13:25:03.103Z</time></trkpt><trkpt lat="44.8892693" lon="10.0898561"><ele>56.0</ele><time>2026-05-03T13:25:04.103Z</time></trkpt><trkpt lat="44.8893151" lon="10.0895229"><ele>56.0</ele><time>2026-05-03T13:25:05.102Z</time></trkpt><trkpt lat="44.8893619" lon="10.0891942"><ele>56.0</ele><time>2026-05-03T13:25:06.103Z</time></trkpt><trkpt lat="44.8894093" lon="10.0888673"><ele>57.0</ele><time>2026-05-03T13:25:07.102Z</time></trkpt><trkpt lat="44.8894584" lon="10.0885469"><ele>58.0</ele><time>2026-05-03T13:25:08.102Z</time></trkpt><trkpt lat="44.8895075" lon="10.088231"><ele>58.0</ele><time>2026-05-03T13:25:09.102Z</time></trkpt><trkpt lat="44.8895588" lon="10.0879133"><ele>58.0</ele><time>2026-05-03T13:25:10.103Z</time></trkpt><trkpt lat="44.8896055" lon="10.0875972"><ele>58.0</ele><time>2026-05-03T13:25:11.102Z</time></trkpt><trkpt lat="44.8896546" lon="10.0872768"><ele>58.0</ele><time>2026-05-03T13:25:12.103Z</time></trkpt><trkpt lat="44.8896996" lon="10.0869595"><ele>58.0</ele><time>2026-05-03T13:25:13.102Z</time></trkpt><trkpt lat="44.8897485" lon="10.0866415"><ele>58.0</ele><time>2026-05-03T13:25:14.102Z</time></trkpt><trkpt lat="44.8897981" lon="10.0863185"><ele>58.0</ele><time>2026-05-03T13:25:15.102Z</time></trkpt><trkpt lat="44.8898477" lon="10.0859985"><ele>58.0</ele><time>2026-05-03T13:25:16.102Z</time></trkpt><trkpt lat="44.8898941" lon="10.0856697"><ele>58.0</ele><time>2026-05-03T13:25:17.102Z</time></trkpt><trkpt lat="44.889945" lon="10.0853359"><ele>58.0</ele><time>2026-05-03T13:25:18.102Z</time></trkpt><trkpt lat="44.8899979" lon="10.0849796"><ele>58.0</ele><time>2026-05-03T13:25:19.102Z</time></trkpt><trkpt lat="44.8900518" lon="10.0846258"><ele>58.0</ele><time>2026-05-03T13:25:20.103Z</time></trkpt><trkpt lat="44.8901018" lon="10.0842729"><ele>58.0</ele><time>2026-05-03T13:25:21.102Z</time></trkpt><trkpt lat="44.8901558" lon="10.0839165"><ele>58.0</ele><time>2026-05-03T13:25:22.103Z</time></trkpt><trkpt lat="44.8902074" lon="10.0835638"><ele>57.0</ele><time>2026-05-03T13:25:23.102Z</time></trkpt><trkpt lat="44.8902608" lon="10.083206"><ele>56.0</ele><time>2026-05-03T13:25:24.103Z</time></trkpt><trkpt lat="44.8903147" lon="10.0828434"><ele>56.0</ele><time>2026-05-03T13:25:25.102Z</time></trkpt><trkpt lat="44.8903684" lon="10.0824827"><ele>56.0</ele><time>2026-05-03T13:25:26.103Z</time></trkpt><trkpt lat="44.8904247" lon="10.0821192"><ele>56.0</ele><time>2026-05-03T13:25:27.103Z</time></trkpt><trkpt lat="44.8904829" lon="10.0817604"><ele>56.0</ele><time>2026-05-03T13:25:28.102Z</time></trkpt><trkpt lat="44.8905395" lon="10.0813911"><ele>56.0</ele><time>2026-05-03T13:25:29.102Z</time></trkpt><trkpt lat="44.8905946" lon="10.0810157"><ele>56.0</ele><time>2026-05-03T13:25:30.102Z</time></trkpt><trkpt lat="44.8906555" lon="10.0806295"><ele>56.0</ele><time>2026-05-03T13:25:31.103Z</time></trkpt><trkpt lat="44.8907163" lon="10.0802388"><ele>56.0</ele><time>2026-05-03T13:25:32.102Z</time></trkpt><trkpt lat="44.8907755" lon="10.0798465"><ele>55.5</ele><time>2026-05-03T13:25:33.102Z</time></trkpt><trkpt lat="44.8908338" lon="10.0794566"><ele>55.0</ele><time>2026-05-03T13:25:34.103Z</time></trkpt><trkpt lat="44.8908944" lon="10.0790599"><ele>55.5</ele><time>2026-05-03T13:25:35.103Z</time></trkpt><trkpt lat="44.8909537" lon="10.0786643"><ele>56.0</ele><time>2026-05-03T13:25:36.103Z</time></trkpt><trkpt lat="44.8910165" lon="10.0782631"><ele>57.0</ele><time>2026-05-03T13:25:37.102Z</time></trkpt><trkpt lat="44.8910776" lon="10.0778583"><ele>58.0</ele><time>2026-05-03T13:25:38.102Z</time></trkpt><trkpt lat="44.8911364" lon="10.0774583"><ele>58.5</ele><time>2026-05-03T13:25:39.103Z</time></trkpt><trkpt lat="44.8911955" lon="10.0770626"><ele>59.0</ele><time>2026-05-03T13:25:40.102Z</time></trkpt><trkpt lat="44.8912566" lon="10.0766745"><ele>58.0</ele><time>2026-05-03T13:25:41.103Z</time></trkpt><trkpt lat="44.8913154" lon="10.0762871"><ele>57.0</ele><time>2026-05-03T13:25:42.103Z</time></trkpt><trkpt lat="44.8913744" lon="10.0759077"><ele>57.0</ele><time>2026-05-03T13:25:43.103Z</time></trkpt><trkpt lat="44.891432" lon="10.0755237"><ele>57.0</ele><time>2026-05-03T13:25:44.102Z</time></trkpt><trkpt lat="44.8914878" lon="10.0751428"><ele>57.0</ele><time>2026-05-03T13:25:45.102Z</time></trkpt><trkpt lat="44.8915488" lon="10.0747582"><ele>57.0</ele><time>2026-05-03T13:25:46.102Z</time></trkpt><trkpt lat="44.8916068" lon="10.0743725"><ele>56.5</ele><time>2026-05-03T13:25:47.102Z</time></trkpt><trkpt lat="44.8916616" lon="10.0739938"><ele>56.0</ele><time>2026-05-03T13:25:48.103Z</time></trkpt><trkpt lat="44.89172" lon="10.0736086"><ele>55.5</ele><time>2026-05-03T13:25:49.103Z</time></trkpt><trkpt lat="44.8917808" lon="10.0732264"><ele>55.0</ele><time>2026-05-03T13:25:50.103Z</time></trkpt><trkpt lat="44.8918389" lon="10.072835"><ele>55.0</ele><time>2026-05-03T13:25:51.102Z</time></trkpt><trkpt lat="44.8918969" lon="10.0724415"><ele>55.0</ele><time>2026-05-03T13:25:52.102Z</time></trkpt><trkpt lat="44.8919554" lon="10.072053"><ele>56.0</ele><time>2026-05-03T13:25:53.102Z</time></trkpt><trkpt lat="44.8920162" lon="10.0716571"><ele>57.0</ele><time>2026-05-03T13:25:54.103Z</time></trkpt><trkpt lat="44.8920731" lon="10.0712626"><ele>57.5</ele><time>2026-05-03T13:25:55.102Z</time></trkpt><trkpt lat="44.8921356" lon="10.0708576"><ele>58.0</ele><time>2026-05-03T13:25:56.102Z</time></trkpt><trkpt lat="44.8921946" lon="10.0704567"><ele>58.5</ele><time>2026-05-03T13:25:57.103Z</time></trkpt><trkpt lat="44.8922591" lon="10.0700562"><ele>59.0</ele><time>2026-05-03T13:25:58.103Z</time></trkpt><trkpt lat="44.8923245" lon="10.0696456"><ele>59.0</ele><time>2026-05-03T13:25:59.103Z</time></trkpt><trkpt lat="44.892388" lon="10.0692334"><ele>59.0</ele><time>2026-05-03T13:26:00.102Z</time></trkpt><trkpt lat="44.8924551" lon="10.0688105"><ele>59.0</ele><time>2026-05-03T13:26:01.102Z</time></trkpt><trkpt lat="44.8925204" lon="10.0683911"><ele>59.0</ele><time>2026-05-03T13:26:02.102Z</time></trkpt><trkpt lat="44.8925863" lon="10.0679663"><ele>59.5</ele><time>2026-05-03T13:26:03.103Z</time></trkpt><trkpt lat="44.892655" lon="10.0675371"><ele>60.0</ele><time>2026-05-03T13:26:04.102Z</time></trkpt><trkpt lat="44.8927275" lon="10.067092"><ele>60.0</ele><time>2026-05-03T13:26:05.102Z</time></trkpt><trkpt lat="44.8927992" lon="10.0666366"><ele>60.0</ele><time>2026-05-03T13:26:06.102Z</time></trkpt><trkpt lat="44.8928694" lon="10.066183"><ele>59.5</ele><time>2026-05-03T13:26:07.102Z</time></trkpt><trkpt lat="44.8929362" lon="10.0657394"><ele>59.0</ele><time>2026-05-03T13:26:08.102Z</time></trkpt><trkpt lat="44.8930028" lon="10.0653064"><ele>58.5</ele><time>2026-05-03T13:26:09.103Z</time></trkpt><trkpt lat="44.893067" lon="10.0648711"><ele>58.0</ele><time>2026-05-03T13:26:10.103Z</time></trkpt><trkpt lat="44.8931319" lon="10.0644318"><ele>58.5</ele><time>2026-05-03T13:26:11.103Z</time></trkpt><trkpt lat="44.893196" lon="10.0640047"><ele>59.0</ele><time>2026-05-03T13:26:12.102Z</time></trkpt><trkpt lat="44.8932616" lon="10.0635775"><ele>59.0</ele><time>2026-05-03T13:26:13.103Z</time></trkpt><trkpt lat="44.8933262" lon="10.0631689"><ele>59.0</ele><time>2026-05-03T13:26:14.103Z</time></trkpt><trkpt lat="44.8933906" lon="10.0627742"><ele>59.0</ele><time>2026-05-03T13:26:15.102Z</time></trkpt><trkpt lat="44.8934446" lon="10.0623992"><ele>59.0</ele><time>2026-05-03T13:26:16.103Z</time></trkpt><trkpt lat="44.893498" lon="10.0620223"><ele>59.0</ele><time>2026-05-03T13:26:17.103Z</time></trkpt><trkpt lat="44.8935549" lon="10.061652"><ele>59.0</ele><time>2026-05-03T13:26:18.103Z</time></trkpt><trkpt lat="44.8936149" lon="10.061273"><ele>59.0</ele><time>2026-05-03T13:26:19.103Z</time></trkpt><trkpt lat="44.8936746" lon="10.0608793"><ele>59.0</ele><time>2026-05-03T13:26:20.102Z</time></trkpt><trkpt lat="44.8937367" lon="10.0604622"><ele>58.0</ele><time>2026-05-03T13:26:21.103Z</time></trkpt><trkpt lat="44.8937998" lon="10.0600363"><ele>57.0</ele><time>2026-05-03T13:26:22.102Z</time></trkpt><trkpt lat="44.8938635" lon="10.0595977"><ele>57.0</ele><time>2026-05-03T13:26:23.103Z</time></trkpt><trkpt lat="44.8939313" lon="10.0591561"><ele>57.0</ele><time>2026-05-03T13:26:24.103Z</time></trkpt><trkpt lat="44.8939951" lon="10.0586984"><ele>58.5</ele><time>2026-05-03T13:26:25.103Z</time></trkpt><trkpt lat="44.8940627" lon="10.058232"><ele>60.0</ele><time>2026-05-03T13:26:26.103Z</time></trkpt><trkpt lat="44.8941302" lon="10.0577768"><ele>60.5</ele><time>2026-05-03T13:26:27.103Z</time></trkpt><trkpt lat="44.8941927" lon="10.0573428"><ele>61.0</ele><time>2026-05-03T13:26:28.103Z</time></trkpt><trkpt lat="44.8942579" lon="10.0569183"><ele>59.5</ele><time>2026-05-03T13:26:29.102Z</time></trkpt><trkpt lat="44.894319" lon="10.0565009"><ele>58.0</ele><time>2026-05-03T13:26:30.103Z</time></trkpt><trkpt lat="44.8943827" lon="10.0560941"><ele>59.0</ele><time>2026-05-03T13:26:31.103Z</time></trkpt><trkpt lat="44.8944488" lon="10.0556862"><ele>60.0</ele><time>2026-05-03T13:26:32.102Z</time></trkpt><trkpt lat="44.8945214" lon="10.055279"><ele>60.0</ele><time>2026-05-03T13:26:33.103Z</time></trkpt><trkpt lat="44.8945987" lon="10.0548659"><ele>60.0</ele><time>2026-05-03T13:26:34.102Z</time></trkpt><trkpt lat="44.8946809" lon="10.0544578"><ele>59.5</ele><time>2026-05-03T13:26:35.103Z</time></trkpt><trkpt lat="44.8947646" lon="10.0540498"><ele>59.0</ele><time>2026-05-03T13:26:36.102Z</time></trkpt><trkpt lat="44.8948512" lon="10.0536561"><ele>59.0</ele><time>2026-05-03T13:26:37.103Z</time></trkpt><trkpt lat="44.8949399" lon="10.0532524"><ele>59.0</ele><time>2026-05-03T13:26:38.103Z</time></trkpt><trkpt lat="44.8950349" lon="10.0528505"><ele>59.0</ele><time>2026-05-03T13:26:39.102Z</time></trkpt><trkpt lat="44.895132" lon="10.0524661"><ele>59.0</ele><time>2026-05-03T13:26:40.103Z</time></trkpt><trkpt lat="44.8952317" lon="10.0520738"><ele>58.5</ele><time>2026-05-03T13:26:41.103Z</time></trkpt><trkpt lat="44.895334" lon="10.0516899"><ele>58.0</ele><time>2026-05-03T13:26:42.102Z</time></trkpt><trkpt lat="44.895438" lon="10.0513022"><ele>59.5</ele><time>2026-05-03T13:26:43.102Z</time></trkpt><trkpt lat="44.8955505" lon="10.0509235"><ele>61.0</ele><time>2026-05-03T13:26:44.102Z</time></trkpt><trkpt lat="44.8956768" lon="10.0505412"><ele>61.5</ele><time>2026-05-03T13:26:45.102Z</time></trkpt><trkpt lat="44.8957983" lon="10.0501668"><ele>62.0</ele><time>2026-05-03T13:26:46.103Z</time></trkpt><trkpt lat="44.8959293" lon="10.0497834"><ele>62.0</ele><time>2026-05-03T13:26:47.103Z</time></trkpt><trkpt lat="44.8960594" lon="10.0494107"><ele>62.0</ele><time>2026-05-03T13:26:48.102Z</time></trkpt><trkpt lat="44.8961921" lon="10.0490379"><ele>62.0</ele><time>2026-05-03T13:26:49.102Z</time></trkpt><trkpt lat="44.8963352" lon="10.0486729"><ele>62.0</ele><time>2026-05-03T13:26:50.103Z</time></trkpt><trkpt lat="44.8964777" lon="10.0483082"><ele>60.5</ele><time>2026-05-03T13:26:51.102Z</time></trkpt><trkpt lat="44.896627" lon="10.0479506"><ele>59.0</ele><time>2026-05-03T13:26:52.102Z</time></trkpt><trkpt lat="44.8967793" lon="10.0475906"><ele>59.5</ele><time>2026-05-03T13:26:53.102Z</time></trkpt><trkpt lat="44.8969362" lon="10.0472389"><ele>60.0</ele><time>2026-05-03T13:26:54.103Z</time></trkpt><trkpt lat="44.897101" lon="10.0468867"><ele>60.0</ele><time>2026-05-03T13:26:55.103Z</time></trkpt><trkpt lat="44.8972683" lon="10.046548"><ele>60.0</ele><time>2026-05-03T13:26:56.103Z</time></trkpt><trkpt lat="44.8974349" lon="10.0462083"><ele>60.0</ele><time>2026-05-03T13:26:57.102Z</time></trkpt><trkpt lat="44.8976009" lon="10.0458685"><ele>60.0</ele><time>2026-05-03T13:26:58.102Z</time></trkpt><trkpt lat="44.8977666" lon="10.0455196"><ele>60.0</ele><time>2026-05-03T13:26:59.103Z</time></trkpt><trkpt lat="44.8979372" lon="10.0451712"><ele>60.0</ele><time>2026-05-03T13:27:00.103Z</time></trkpt><trkpt lat="44.8981076" lon="10.0448274"><ele>60.5</ele><time>2026-05-03T13:27:01.103Z</time></trkpt><trkpt lat="44.8982779" lon="10.0444811"><ele>61.0</ele><time>2026-05-03T13:27:02.102Z</time></trkpt><trkpt lat="44.8984546" lon="10.0441243"><ele>61.0</ele><time>2026-05-03T13:27:03.103Z</time></trkpt><trkpt lat="44.8986296" lon="10.0437778"><ele>61.0</ele><time>2026-05-03T13:27:04.102Z</time></trkpt><trkpt lat="44.8988002" lon="10.043424"><ele>62.0</ele><time>2026-05-03T13:27:05.103Z</time></trkpt><trkpt lat="44.8989747" lon="10.0430697"><ele>63.0</ele><time>2026-05-03T13:27:06.102Z</time></trkpt><trkpt lat="44.8991474" lon="10.0427189"><ele>61.5</ele><time>2026-05-03T13:27:07.103Z</time></trkpt><trkpt lat="44.8993149" lon="10.0423721"><ele>60.0</ele><time>2026-05-03T13:27:08.102Z</time></trkpt><trkpt lat="44.8994882" lon="10.0420209"><ele>60.0</ele><time>2026-05-03T13:27:09.102Z</time></trkpt><trkpt lat="44.8996616" lon="10.041676"><ele>60.0</ele><time>2026-05-03T13:27:10.103Z</time></trkpt><trkpt lat="44.8998346" lon="10.0413281"><ele>60.0</ele><time>2026-05-03T13:27:11.103Z</time></trkpt><trkpt lat="44.9000072" lon="10.0409768"><ele>60.0</ele><time>2026-05-03T13:27:12.103Z</time></trkpt><trkpt lat="44.9001766" lon="10.0406218"><ele>60.0</ele><time>2026-05-03T13:27:13.102Z</time></trkpt><trkpt lat="44.9003457" lon="10.0402636"><ele>60.0</ele><time>2026-05-03T13:27:14.103Z</time></trkpt><trkpt lat="44.90051" lon="10.0399169"><ele>60.0</ele><time>2026-05-03T13:27:15.102Z</time></trkpt><trkpt lat="44.9006764" lon="10.0395763"><ele>60.0</ele><time>2026-05-03T13:27:16.103Z</time></trkpt><trkpt lat="44.9008459" lon="10.0392386"><ele>59.0</ele><time>2026-05-03T13:27:17.103Z</time></trkpt><trkpt lat="44.9010167" lon="10.0388944"><ele>58.0</ele><time>2026-05-03T13:27:18.102Z</time></trkpt><trkpt lat="44.9011826" lon="10.0385482"><ele>58.0</ele><time>2026-05-03T13:27:19.102Z</time></trkpt><trkpt lat="44.9013539" lon="10.0381885"><ele>58.0</ele><time>2026-05-03T13:27:20.102Z</time></trkpt><trkpt lat="44.9015215" lon="10.0378387"><ele>58.0</ele><time>2026-05-03T13:27:21.103Z</time></trkpt><trkpt lat="44.9016886" lon="10.0374956"><ele>58.0</ele><time>2026-05-03T13:27:22.102Z</time></trkpt><trkpt lat="44.9018585" lon="10.0371495"><ele>57.5</ele><time>2026-05-03T13:27:23.102Z</time></trkpt><trkpt lat="44.9020249" lon="10.0368036"><ele>57.0</ele><time>2026-05-03T13:27:24.103Z</time></trkpt><trkpt lat="44.9021928" lon="10.0364602"><ele>57.0</ele><time>2026-05-03T13:27:25.103Z</time></trkpt><trkpt lat="44.9023594" lon="10.0361157"><ele>57.0</ele><time>2026-05-03T13:27:26.103Z</time></trkpt><trkpt lat="44.9025305" lon="10.0357713"><ele>56.0</ele><time>2026-05-03T13:27:27.102Z</time></trkpt><trkpt lat="44.9026981" lon="10.0354248"><ele>55.0</ele><time>2026-05-03T13:27:28.103Z</time></trkpt><trkpt lat="44.902864" lon="10.035082"><ele>56.0</ele><time>2026-05-03T13:27:29.102Z</time></trkpt><trkpt lat="44.9030349" lon="10.0347383"><ele>57.0</ele><time>2026-05-03T13:27:30.102Z</time></trkpt><trkpt lat="44.9032024" lon="10.0343921"><ele>57.0</ele><time>2026-05-03T13:27:31.102Z</time></trkpt><trkpt lat="44.9033755" lon="10.0340403"><ele>57.0</ele><time>2026-05-03T13:27:32.102Z</time></trkpt><trkpt lat="44.9035445" lon="10.0336968"><ele>56.5</ele><time>2026-05-03T13:27:33.102Z</time></trkpt><trkpt lat="44.9037102" lon="10.0333528"><ele>56.0</ele><time>2026-05-03T13:27:34.103Z</time></trkpt><trkpt lat="44.9038818" lon="10.0330025"><ele>56.0</ele><time>2026-05-03T13:27:35.103Z</time></trkpt><trkpt lat="44.9040529" lon="10.032648"><ele>56.0</ele><time>2026-05-03T13:27:36.102Z</time></trkpt><trkpt lat="44.9042231" lon="10.032298"><ele>56.0</ele><time>2026-05-03T13:27:37.102Z</time></trkpt><trkpt lat="44.9043985" lon="10.0319488"><ele>56.0</ele><time>2026-05-03T13:27:38.102Z</time></trkpt><trkpt lat="44.9045689" lon="10.0315955"><ele>56.0</ele><time>2026-05-03T13:27:39.102Z</time></trkpt><trkpt lat="44.9047406" lon="10.0312446"><ele>56.0</ele><time>2026-05-03T13:27:40.103Z</time></trkpt><trkpt lat="44.9049169" lon="10.0308854"><ele>55.0</ele><time>2026-05-03T13:27:41.103Z</time></trkpt><trkpt lat="44.9050909" lon="10.0305379"><ele>54.0</ele><time>2026-05-03T13:27:42.103Z</time></trkpt><trkpt lat="44.9052648" lon="10.0301798"><ele>54.0</ele><time>2026-05-03T13:27:43.103Z</time></trkpt><trkpt lat="44.9054392" lon="10.0298227"><ele>54.0</ele><time>2026-05-03T13:27:44.103Z</time></trkpt><trkpt lat="44.9056087" lon="10.0294703"><ele>54.5</ele><time>2026-05-03T13:27:45.102Z</time></trkpt><trkpt lat="44.9057887" lon="10.0291103"><ele>55.0</ele><time>2026-05-03T13:27:46.102Z</time></trkpt><trkpt lat="44.9059594" lon="10.0287551"><ele>55.0</ele><time>2026-05-03T13:27:47.103Z</time></trkpt><trkpt lat="44.9061311" lon="10.0283973"><ele>55.0</ele><time>2026-05-03T13:27:48.103Z</time></trkpt><trkpt lat="44.9063043" lon="10.028044"><ele>54.5</ele><time>2026-05-03T13:27:49.102Z</time></trkpt><trkpt lat="44.9064725" lon="10.0276924"><ele>54.0</ele><time>2026-05-03T13:27:50.103Z</time></trkpt><trkpt lat="44.9066418" lon="10.0273405"><ele>55.0</ele><time>2026-05-03T13:27:51.103Z</time></trkpt><trkpt lat="44.9068097" lon="10.0269898"><ele>56.0</ele><time>2026-05-03T13:27:52.102Z</time></trkpt><trkpt lat="44.9069761" lon="10.0266503"><ele>56.5</ele><time>2026-05-03T13:27:53.102Z</time></trkpt><trkpt lat="44.9071457" lon="10.0263015"><ele>57.0</ele><time>2026-05-03T13:27:54.102Z</time></trkpt><trkpt lat="44.9073077" lon="10.0259625"><ele>56.0</ele><time>2026-05-03T13:27:55.103Z</time></trkpt><trkpt lat="44.9074709" lon="10.0256261"><ele>55.0</ele><time>2026-05-03T13:27:56.103Z</time></trkpt><trkpt lat="44.9076341" lon="10.0252896"><ele>55.0</ele><time>2026-05-03T13:27:57.103Z</time></trkpt><trkpt lat="44.9077976" lon="10.0249511"><ele>55.0</ele><time>2026-05-03T13:27:58.102Z</time></trkpt><trkpt lat="44.9079599" lon="10.0246199"><ele>55.0</ele><time>2026-05-03T13:27:59.103Z</time></trkpt><trkpt lat="44.9081246" lon="10.024276"><ele>55.0</ele><time>2026-05-03T13:28:00.103Z</time></trkpt><trkpt lat="44.9082893" lon="10.023929"><ele>55.5</ele><time>2026-05-03T13:28:01.103Z</time></trkpt><trkpt lat="44.908461" lon="10.023578"><ele>56.0</ele><time>2026-05-03T13:28:02.103Z</time></trkpt><trkpt lat="44.9086278" lon="10.0232245"><ele>57.0</ele><time>2026-05-03T13:28:03.103Z</time></trkpt><trkpt lat="44.9088015" lon="10.0228724"><ele>58.0</ele><time>2026-05-03T13:28:04.103Z</time></trkpt><trkpt lat="44.9089688" lon="10.0225182"><ele>57.5</ele><time>2026-05-03T13:28:05.103Z</time></trkpt><trkpt lat="44.9091404" lon="10.0221701"><ele>57.0</ele><time>2026-05-03T13:28:06.102Z</time></trkpt><trkpt lat="44.909308" lon="10.021824"><ele>56.5</ele><time>2026-05-03T13:28:07.102Z</time></trkpt><trkpt lat="44.9094781" lon="10.0214734"><ele>56.0</ele><time>2026-05-03T13:28:08.103Z</time></trkpt><trkpt lat="44.9096424" lon="10.0211187"><ele>56.5</ele><time>2026-05-03T13:28:09.102Z</time></trkpt><trkpt lat="44.9098115" lon="10.0207541"><ele>57.0</ele><time>2026-05-03T13:28:10.103Z</time></trkpt><trkpt lat="44.9099787" lon="10.020391"><ele>56.0</ele><time>2026-05-03T13:28:11.103Z</time></trkpt><trkpt lat="44.9101547" lon="10.0200126"><ele>55.0</ele><time>2026-05-03T13:28:12.103Z</time></trkpt><trkpt lat="44.91034" lon="10.0196272"><ele>55.0</ele><time>2026-05-03T13:28:13.103Z</time></trkpt><trkpt lat="44.9105254" lon="10.0192419"><ele>55.0</ele><time>2026-05-03T13:28:14.102Z</time></trkpt><trkpt lat="44.9107187" lon="10.0188585"><ele>54.5</ele><time>2026-05-03T13:28:15.103Z</time></trkpt><trkpt lat="44.9109069" lon="10.0184852"><ele>54.0</ele><time>2026-05-03T13:28:16.102Z</time></trkpt><trkpt lat="44.9110864" lon="10.0181267"><ele>54.0</ele><time>2026-05-03T13:28:17.102Z</time></trkpt><trkpt lat="44.9112617" lon="10.0177754"><ele>54.0</ele><time>2026-05-03T13:28:18.103Z</time></trkpt><trkpt lat="44.9114265" lon="10.0174417"><ele>54.5</ele><time>2026-05-03T13:28:19.102Z</time></trkpt><trkpt lat="44.9115878" lon="10.017114"><ele>55.0</ele><time>2026-05-03T13:28:20.102Z</time></trkpt><trkpt lat="44.9117494" lon="10.0167805"><ele>55.0</ele><time>2026-05-03T13:28:21.103Z</time></trkpt><trkpt lat="44.9119135" lon="10.0164415"><ele>55.0</ele><time>2026-05-03T13:28:22.103Z</time></trkpt><trkpt lat="44.91208" lon="10.0160998"><ele>55.5</ele><time>2026-05-03T13:28:23.102Z</time></trkpt><trkpt lat="44.9122455" lon="10.0157616"><ele>56.0</ele><time>2026-05-03T13:28:24.103Z</time></trkpt><trkpt lat="44.9124121" lon="10.0154224"><ele>55.0</ele><time>2026-05-03T13:28:25.103Z</time></trkpt><trkpt lat="44.9125833" lon="10.0150751"><ele>54.0</ele><time>2026-05-03T13:28:26.102Z</time></trkpt><trkpt lat="44.9127562" lon="10.0147324"><ele>54.0</ele><time>2026-05-03T13:28:27.102Z</time></trkpt><trkpt lat="44.9129292" lon="10.0143945"><ele>54.0</ele><time>2026-05-03T13:28:28.102Z</time></trkpt><trkpt lat="44.9130982" lon="10.0140503"><ele>55.0</ele><time>2026-05-03T13:28:29.103Z</time></trkpt><trkpt lat="44.9132663" lon="10.0137042"><ele>56.0</ele><time>2026-05-03T13:28:30.102Z</time></trkpt><trkpt lat="44.9134343" lon="10.0133547"><ele>56.0</ele><time>2026-05-03T13:28:31.103Z</time></trkpt><trkpt lat="44.9136019" lon="10.0130068"><ele>56.0</ele><time>2026-05-03T13:28:32.102Z</time></trkpt><trkpt lat="44.9137666" lon="10.0126688"><ele>56.5</ele><time>2026-05-03T13:28:33.103Z</time></trkpt><trkpt lat="44.9139283" lon="10.0123278"><ele>57.0</ele><time>2026-05-03T13:28:34.103Z</time></trkpt><trkpt lat="44.9140932" lon="10.0119907"><ele>56.0</ele><time>2026-05-03T13:28:35.102Z</time></trkpt><trkpt lat="44.9142594" lon="10.0116519"><ele>55.0</ele><time>2026-05-03T13:28:36.102Z</time></trkpt><trkpt lat="44.9144281" lon="10.011306"><ele>55.0</ele><time>2026-05-03T13:28:37.103Z</time></trkpt><trkpt lat="44.9145955" lon="10.010965"><ele>55.0</ele><time>2026-05-03T13:28:38.102Z</time></trkpt><trkpt lat="44.9147613" lon="10.0106257"><ele>54.5</ele><time>2026-05-03T13:28:39.103Z</time></trkpt><trkpt lat="44.9149245" lon="10.0102898"><ele>54.0</ele><time>2026-05-03T13:28:40.103Z</time></trkpt><trkpt lat="44.915089" lon="10.009951"><ele>54.0</ele><time>2026-05-03T13:28:41.102Z</time></trkpt><trkpt lat="44.9152547" lon="10.0096151"><ele>54.0</ele><time>2026-05-03T13:28:42.102Z</time></trkpt><trkpt lat="44.9154181" lon="10.0092796"><ele>54.5</ele><time>2026-05-03T13:28:43.103Z</time></trkpt><trkpt lat="44.9155821" lon="10.0089398"><ele>55.0</ele><time>2026-05-03T13:28:44.103Z</time></trkpt><trkpt lat="44.9157562" lon="10.0085926"><ele>55.0</ele><time>2026-05-03T13:28:45.103Z</time></trkpt><trkpt lat="44.9159247" lon="10.0082483"><ele>55.0</ele><time>2026-05-03T13:28:46.103Z</time></trkpt><trkpt lat="44.9160917" lon="10.0079037"><ele>55.0</ele><time>2026-05-03T13:28:47.102Z</time></trkpt><trkpt lat="44.9162572" lon="10.0075605"><ele>55.0</ele><time>2026-05-03T13:28:48.103Z</time></trkpt><trkpt lat="44.9164281" lon="10.0072048"><ele>55.5</ele><time>2026-05-03T13:28:49.102Z</time></trkpt><trkpt lat="44.9165961" lon="10.0068562"><ele>56.0</ele><time>2026-05-03T13:28:50.103Z</time></trkpt><trkpt lat="44.9167722" lon="10.0065048"><ele>56.0</ele><time>2026-05-03T13:28:51.103Z</time></trkpt><trkpt lat="44.9169449" lon="10.006153"><ele>56.0</ele><time>2026-05-03T13:28:52.103Z</time></trkpt><trkpt lat="44.9171139" lon="10.0058034"><ele>55.5</ele><time>2026-05-03T13:28:53.102Z</time></trkpt><trkpt lat="44.9172828" lon="10.0054577"><ele>55.0</ele><time>2026-05-03T13:28:54.102Z</time></trkpt><trkpt lat="44.9174512" lon="10.0051071"><ele>55.0</ele><time>2026-05-03T13:28:55.103Z</time></trkpt><trkpt lat="44.9176212" lon="10.0047567"><ele>55.0</ele><time>2026-05-03T13:28:56.103Z</time></trkpt><trkpt lat="44.9177919" lon="10.0044074"><ele>54.0</ele><time>2026-05-03T13:28:57.102Z</time></trkpt><trkpt lat="44.9179637" lon="10.0040545"><ele>53.0</ele><time>2026-05-03T13:28:58.102Z</time></trkpt><trkpt lat="44.9181376" lon="10.003697"><ele>53.0</ele><time>2026-05-03T13:28:59.102Z</time></trkpt><trkpt lat="44.9183112" lon="10.0033442"><ele>53.0</ele><time>2026-05-03T13:29:00.103Z</time></trkpt><trkpt lat="44.9184858" lon="10.0029905"><ele>52.5</ele><time>2026-05-03T13:29:01.103Z</time></trkpt><trkpt lat="44.918659" lon="10.0026307"><ele>52.0</ele><time>2026-05-03T13:29:02.102Z</time></trkpt><trkpt lat="44.9188384" lon="10.0022682"><ele>52.0</ele><time>2026-05-03T13:29:03.102Z</time></trkpt><trkpt lat="44.9190114" lon="10.0019117"><ele>52.0</ele><time>2026-05-03T13:29:04.103Z</time></trkpt><trkpt lat="44.9191808" lon="10.0015602"><ele>52.0</ele><time>2026-05-03T13:29:05.103Z</time></trkpt><trkpt lat="44.9193548" lon="10.0012001"><ele>52.0</ele><time>2026-05-03T13:29:06.103Z</time></trkpt><trkpt lat="44.9195297" lon="10.0008462"><ele>54.0</ele><time>2026-05-03T13:29:07.103Z</time></trkpt><trkpt lat="44.919698" lon="10.0004947"><ele>56.0</ele><time>2026-05-03T13:29:08.103Z</time></trkpt><trkpt lat="44.9198646" lon="10.0001422"><ele>56.0</ele><time>2026-05-03T13:29:09.103Z</time></trkpt><trkpt lat="44.9200302" lon="9.9997948"><ele>56.0</ele><time>2026-05-03T13:29:10.102Z</time></trkpt><trkpt lat="44.9201949" lon="9.9994442"><ele>54.5</ele><time>2026-05-03T13:29:11.103Z</time></trkpt><trkpt lat="44.9203632" lon="9.9990892"><ele>53.0</ele><time>2026-05-03T13:29:12.102Z</time></trkpt><trkpt lat="44.9205406" lon="9.9987261"><ele>53.0</ele><time>2026-05-03T13:29:13.102Z</time></trkpt><trkpt lat="44.9207119" lon="9.9983656"><ele>53.0</ele><time>2026-05-03T13:29:14.102Z</time></trkpt><trkpt lat="44.9208829" lon="9.9980015"><ele>52.5</ele><time>2026-05-03T13:29:15.103Z</time></trkpt><trkpt lat="44.9210545" lon="9.9976396"><ele>52.0</ele><time>2026-05-03T13:29:16.102Z</time></trkpt><trkpt lat="44.9212291" lon="9.9972771"><ele>52.0</ele><time>2026-05-03T13:29:17.102Z</time></trkpt><trkpt lat="44.9214078" lon="9.9969114"><ele>52.0</ele><time>2026-05-03T13:29:18.103Z</time></trkpt><trkpt lat="44.9215939" lon="9.9965334"><ele>53.0</ele><time>2026-05-03T13:29:19.103Z</time></trkpt><trkpt lat="44.9217783" lon="9.9961676"><ele>54.0</ele><time>2026-05-03T13:29:20.103Z</time></trkpt><trkpt lat="44.9219655" lon="9.995793"><ele>54.0</ele><time>2026-05-03T13:29:21.103Z</time></trkpt><trkpt lat="44.9221506" lon="9.9954159"><ele>54.0</ele><time>2026-05-03T13:29:22.103Z</time></trkpt><trkpt lat="44.9223377" lon="9.9950339"><ele>54.0</ele><time>2026-05-03T13:29:23.102Z</time></trkpt><trkpt lat="44.9225235" lon="9.9946557"><ele>54.0</ele><time>2026-05-03T13:29:24.102Z</time></trkpt><trkpt lat="44.9227044" lon="9.9942835"><ele>53.0</ele><time>2026-05-03T13:29:25.103Z</time></trkpt><trkpt lat="44.9228839" lon="9.9939069"><ele>52.0</ele><time>2026-05-03T13:29:26.102Z</time></trkpt><trkpt lat="44.9230672" lon="9.9935299"><ele>51.5</ele><time>2026-05-03T13:29:27.103Z</time></trkpt><trkpt lat="44.9232396" lon="9.9931604"><ele>51.0</ele><time>2026-05-03T13:29:28.102Z</time></trkpt><trkpt lat="44.923412" lon="9.9927952"><ele>51.0</ele><time>2026-05-03T13:29:29.102Z</time></trkpt><trkpt lat="44.9235878" lon="9.9924292"><ele>51.0</ele><time>2026-05-03T13:29:30.102Z</time></trkpt><trkpt lat="44.9237633" lon="9.9920763"><ele>51.0</ele><time>2026-05-03T13:29:31.102Z</time></trkpt><trkpt lat="44.9239392" lon="9.9917207"><ele>51.0</ele><time>2026-05-03T13:29:32.103Z</time></trkpt><trkpt lat="44.9241168" lon="9.9913596"><ele>51.0</ele><time>2026-05-03T13:29:33.102Z</time></trkpt><trkpt lat="44.9242917" lon="9.9909965"><ele>51.0</ele><time>2026-05-03T13:29:34.102Z</time></trkpt><trkpt lat="44.9244696" lon="9.9906361"><ele>51.0</ele><time>2026-05-03T13:29:35.102Z</time></trkpt><trkpt lat="44.9246477" lon="9.9902722"><ele>51.0</ele><time>2026-05-03T13:29:36.103Z</time></trkpt><trkpt lat="44.9248275" lon="9.989908"><ele>50.0</ele><time>2026-05-03T13:29:37.102Z</time></trkpt><trkpt lat="44.9250044" lon="9.9895417"><ele>49.0</ele><time>2026-05-03T13:29:38.102Z</time></trkpt><trkpt lat="44.925183" lon="9.9891743"><ele>51.0</ele><time>2026-05-03T13:29:39.103Z</time></trkpt><trkpt lat="44.9253621" lon="9.9888036"><ele>53.0</ele><time>2026-05-03T13:29:40.103Z</time></trkpt><trkpt lat="44.925544" lon="9.9884364"><ele>52.0</ele><time>2026-05-03T13:29:41.103Z</time></trkpt><trkpt lat="44.9257235" lon="9.9880689"><ele>51.0</ele><time>2026-05-03T13:29:42.102Z</time></trkpt><trkpt lat="44.9259092" lon="9.987691"><ele>50.0</ele><time>2026-05-03T13:29:43.103Z</time></trkpt><trkpt lat="44.9260961" lon="9.9873111"><ele>49.0</ele><time>2026-05-03T13:29:44.103Z</time></trkpt><trkpt lat="44.9262771" lon="9.9869364"><ele>48.5</ele><time>2026-05-03T13:29:45.103Z</time></trkpt><trkpt lat="44.9264654" lon="9.9865553"><ele>48.0</ele><time>2026-05-03T13:29:46.102Z</time></trkpt><trkpt lat="44.9266513" lon="9.9861799"><ele>48.5</ele><time>2026-05-03T13:29:47.103Z</time></trkpt><trkpt lat="44.926834" lon="9.9858047"><ele>49.0</ele><time>2026-05-03T13:29:48.102Z</time></trkpt><trkpt lat="44.9270192" lon="9.9854306"><ele>49.0</ele><time>2026-05-03T13:29:49.102Z</time></trkpt><trkpt lat="44.9272007" lon="9.985054"><ele>49.0</ele><time>2026-05-03T13:29:50.103Z</time></trkpt><trkpt lat="44.9273878" lon="9.9846772"><ele>49.0</ele><time>2026-05-03T13:29:51.102Z</time></trkpt><trkpt lat="44.9275776" lon="9.9842927"><ele>49.0</ele><time>2026-05-03T13:29:52.102Z</time></trkpt><trkpt lat="44.9277557" lon="9.9839183"><ele>49.0</ele><time>2026-05-03T13:29:53.103Z</time></trkpt><trkpt lat="44.9279339" lon="9.9835488"><ele>49.0</ele><time>2026-05-03T13:29:54.102Z</time></trkpt><trkpt lat="44.9281105" lon="9.983187"><ele>49.0</ele><time>2026-05-03T13:29:55.103Z</time></trkpt><trkpt lat="44.9282913" lon="9.9828224"><ele>49.0</ele><time>2026-05-03T13:29:56.102Z</time></trkpt><trkpt lat="44.9284792" lon="9.9824471"><ele>49.0</ele><time>2026-05-03T13:29:57.103Z</time></trkpt><trkpt lat="44.9286615" lon="9.9820782"><ele>49.0</ele><time>2026-05-03T13:29:58.103Z</time></trkpt><trkpt lat="44.9288374" lon="9.9817173"><ele>49.0</ele><time>2026-05-03T13:29:59.103Z</time></trkpt><trkpt lat="44.9290158" lon="9.9813499"><ele>49.0</ele><time>2026-05-03T13:30:00.103Z</time></trkpt><trkpt lat="44.9291851" lon="9.9810059"><ele>49.5</ele><time>2026-05-03T13:30:01.103Z</time></trkpt><trkpt lat="44.9293483" lon="9.9806839"><ele>50.0</ele><time>2026-05-03T13:30:02.102Z</time></trkpt><trkpt lat="44.9295013" lon="9.9803818"><ele>50.0</ele><time>2026-05-03T13:30:03.103Z</time></trkpt><trkpt lat="44.9296419" lon="9.9800896"><ele>50.0</ele><time>2026-05-03T13:30:04.103Z</time></trkpt><trkpt lat="44.9297789" lon="9.979815"><ele>50.5</ele><time>2026-05-03T13:30:05.102Z</time></trkpt><trkpt lat="44.929915" lon="9.9795344"><ele>51.0</ele><time>2026-05-03T13:30:06.103Z</time></trkpt><trkpt lat="44.9300459" lon="9.9792614"><ele>50.0</ele><time>2026-05-03T13:30:07.103Z</time></trkpt><trkpt lat="44.9301792" lon="9.9789834"><ele>49.0</ele><time>2026-05-03T13:30:08.102Z</time></trkpt><trkpt lat="44.9303185" lon="9.9786918"><ele>49.0</ele><time>2026-05-03T13:30:09.102Z</time></trkpt><trkpt lat="44.9304621" lon="9.9784031"><ele>49.0</ele><time>2026-05-03T13:30:10.102Z</time></trkpt><trkpt lat="44.9306084" lon="9.9780971"><ele>49.0</ele><time>2026-05-03T13:30:11.103Z</time></trkpt><trkpt lat="44.9307519" lon="9.9777875"><ele>49.0</ele><time>2026-05-03T13:30:12.102Z</time></trkpt><trkpt lat="44.9308979" lon="9.9774733"><ele>49.0</ele><time>2026-05-03T13:30:13.103Z</time></trkpt><trkpt lat="44.9310558" lon="9.9771492"><ele>49.0</ele><time>2026-05-03T13:30:14.103Z</time></trkpt><trkpt lat="44.9312069" lon="9.9768452"><ele>49.0</ele><time>2026-05-03T13:30:15.103Z</time></trkpt><trkpt lat="44.9313546" lon="9.9765487"><ele>49.0</ele><time>2026-05-03T13:30:16.103Z</time></trkpt><trkpt lat="44.9314993" lon="9.9762545"><ele>49.0</ele><time>2026-05-03T13:30:17.102Z</time></trkpt><trkpt lat="44.931649" lon="9.9759538"><ele>49.0</ele><time>2026-05-03T13:30:18.102Z</time></trkpt><trkpt lat="44.9318033" lon="9.9756426"><ele>49.0</ele><time>2026-05-03T13:30:19.102Z</time></trkpt><trkpt lat="44.9319637" lon="9.9753199"><ele>49.0</ele><time>2026-05-03T13:30:20.103Z</time></trkpt><trkpt lat="44.9321205" lon="9.9749965"><ele>49.0</ele><time>2026-05-03T13:30:21.102Z</time></trkpt><trkpt lat="44.9322751" lon="9.9746717"><ele>49.0</ele><time>2026-05-03T13:30:22.102Z</time></trkpt><trkpt lat="44.9324257" lon="9.9743623"><ele>50.0</ele><time>2026-05-03T13:30:23.102Z</time></trkpt><trkpt lat="44.9325703" lon="9.9740626"><ele>51.0</ele><time>2026-05-03T13:30:24.102Z</time></trkpt><trkpt lat="44.9327168" lon="9.9737671"><ele>51.0</ele><time>2026-05-03T13:30:25.103Z</time></trkpt><trkpt lat="44.9328639" lon="9.9734605"><ele>51.0</ele><time>2026-05-03T13:30:26.102Z</time></trkpt><trkpt lat="44.9330074" lon="9.9731558"><ele>49.5</ele><time>2026-05-03T13:30:27.102Z</time></trkpt><trkpt lat="44.9331516" lon="9.9728509"><ele>48.0</ele><time>2026-05-03T13:30:28.103Z</time></trkpt><trkpt lat="44.9333005" lon="9.972542"><ele>48.0</ele><time>2026-05-03T13:30:29.102Z</time></trkpt><trkpt lat="44.9334575" lon="9.9722242"><ele>48.0</ele><time>2026-05-03T13:30:30.102Z</time></trkpt><trkpt lat="44.9336159" lon="9.9719022"><ele>47.0</ele><time>2026-05-03T13:30:31.102Z</time></trkpt><trkpt lat="44.9337762" lon="9.9715744"><ele>46.0</ele><time>2026-05-03T13:30:32.102Z</time></trkpt><trkpt lat="44.9339492" lon="9.9712229"><ele>46.0</ele><time>2026-05-03T13:30:33.102Z</time></trkpt><trkpt lat="44.9341242" lon="9.970872"><ele>46.0</ele><time>2026-05-03T13:30:34.103Z</time></trkpt><trkpt lat="44.9342994" lon="9.9705147"><ele>46.0</ele><time>2026-05-03T13:30:35.102Z</time></trkpt><trkpt lat="44.9344754" lon="9.9701524"><ele>46.0</ele><time>2026-05-03T13:30:36.102Z</time></trkpt><trkpt lat="44.9346592" lon="9.9697863"><ele>46.0</ele><time>2026-05-03T13:30:37.102Z</time></trkpt><trkpt lat="44.9348444" lon="9.96941"><ele>46.0</ele><time>2026-05-03T13:30:38.102Z</time></trkpt><trkpt lat="44.9350231" lon="9.9690429"><ele>46.5</ele><time>2026-05-03T13:30:39.102Z</time></trkpt><trkpt lat="44.9352035" lon="9.968669"><ele>47.0</ele><time>2026-05-03T13:30:40.102Z</time></trkpt><trkpt lat="44.9353844" lon="9.9682943"><ele>47.0</ele><time>2026-05-03T13:30:41.103Z</time></trkpt><trkpt lat="44.9355639" lon="9.9679256"><ele>47.0</ele><time>2026-05-03T13:30:42.102Z</time></trkpt><trkpt lat="44.9357465" lon="9.9675443"><ele>47.0</ele><time>2026-05-03T13:30:43.102Z</time></trkpt><trkpt lat="44.9359299" lon="9.9671647"><ele>47.0</ele><time>2026-05-03T13:30:44.102Z</time></trkpt><trkpt lat="44.9361142" lon="9.9667832"><ele>47.0</ele><time>2026-05-03T13:30:45.103Z</time></trkpt><trkpt lat="44.9362871" lon="9.966432"><ele>47.0</ele><time>2026-05-03T13:30:46.102Z</time></trkpt><trkpt lat="44.9364587" lon="9.9660812"><ele>47.5</ele><time>2026-05-03T13:30:47.102Z</time></trkpt><trkpt lat="44.9366343" lon="9.9657249"><ele>48.0</ele><time>2026-05-03T13:30:48.102Z</time></trkpt><trkpt lat="44.9368025" lon="9.9653717"><ele>49.0</ele><time>2026-05-03T13:30:49.103Z</time></trkpt><trkpt lat="44.9369644" lon="9.9650421"><ele>50.0</ele><time>2026-05-03T13:30:50.103Z</time></trkpt><trkpt lat="44.9371245" lon="9.9647225"><ele>50.0</ele><time>2026-05-03T13:30:51.103Z</time></trkpt><trkpt lat="44.9372762" lon="9.9644131"><ele>50.0</ele><time>2026-05-03T13:30:52.102Z</time></trkpt><trkpt lat="44.9374175" lon="9.964114"><ele>50.0</ele><time>2026-05-03T13:30:53.103Z</time></trkpt><trkpt lat="44.9375572" lon="9.9638274"><ele>50.0</ele><time>2026-05-03T13:30:54.103Z</time></trkpt><trkpt lat="44.9376902" lon="9.963554"><ele>49.66666666666667</ele><time>2026-05-03T13:30:55.102Z</time></trkpt><trkpt lat="44.9378166" lon="9.9632924"><ele>49.33333333333333</ele><time>2026-05-03T13:30:56.102Z</time></trkpt><trkpt lat="44.9379486" lon="9.9630345"><ele>49.0</ele><time>2026-05-03T13:30:57.102Z</time></trkpt><trkpt lat="44.9380736" lon="9.9627923"><ele>49.0</ele><time>2026-05-03T13:30:58.103Z</time></trkpt><trkpt lat="44.9381908" lon="9.9625682"><ele>49.0</ele><time>2026-05-03T13:30:59.103Z</time></trkpt><trkpt lat="44.9383062" lon="9.962351"><ele>49.0</ele><time>2026-05-03T13:31:00.103Z</time></trkpt><trkpt lat="44.9384221" lon="9.9621315"><ele>49.0</ele><time>2026-05-03T13:31:01.103Z</time></trkpt><trkpt lat="44.9385437" lon="9.9618913"><ele>49.0</ele><time>2026-05-03T13:31:02.103Z</time></trkpt><trkpt lat="44.9386677" lon="9.9616511"><ele>49.0</ele><time>2026-05-03T13:31:03.102Z</time></trkpt><trkpt lat="44.9387846" lon="9.9614153"><ele>48.666666666666664</ele><time>2026-05-03T13:31:04.103Z</time></trkpt><trkpt lat="44.9388988" lon="9.9611749"><ele>48.33333333333333</ele><time>2026-05-03T13:31:05.102Z</time></trkpt><trkpt lat="44.9390087" lon="9.9609361"><ele>48.0</ele><time>2026-05-03T13:31:06.103Z</time></trkpt><trkpt lat="44.9391163" lon="9.9607029"><ele>48.33333333333333</ele><time>2026-05-03T13:31:07.101Z</time></trkpt><trkpt lat="44.9392289" lon="9.9604713"><ele>48.666666666666664</ele><time>2026-05-03T13:31:08.103Z</time></trkpt><trkpt lat="44.9393367" lon="9.9602478"><ele>49.0</ele><time>2026-05-03T13:31:09.103Z</time></trkpt><trkpt lat="44.939445" lon="9.9600163"><ele>49.666666666666664</ele><time>2026-05-03T13:31:10.102Z</time></trkpt><trkpt lat="44.9395456" lon="9.9597927"><ele>50.33333333333333</ele><time>2026-05-03T13:31:11.103Z</time></trkpt><trkpt lat="44.9396433" lon="9.9595786"><ele>51.0</ele><time>2026-05-03T13:31:12.102Z</time></trkpt><trkpt lat="44.9397383" lon="9.959363"><ele>52.0</ele><time>2026-05-03T13:31:13.102Z</time></trkpt><trkpt lat="44.9398364" lon="9.9591457"><ele>53.0</ele><time>2026-05-03T13:31:14.103Z</time></trkpt><trkpt lat="44.9399319" lon="9.958928"><ele>54.0</ele><time>2026-05-03T13:31:15.103Z</time></trkpt><trkpt lat="44.940023" lon="9.9587179"><ele>53.0</ele><time>2026-05-03T13:31:16.102Z</time></trkpt><trkpt lat="44.9401141" lon="9.9585039"><ele>52.0</ele><time>2026-05-03T13:31:17.102Z</time></trkpt><trkpt lat="44.9402019" lon="9.9582752"><ele>51.0</ele><time>2026-05-03T13:31:18.103Z</time></trkpt><trkpt lat="44.9402914" lon="9.9580526"><ele>51.0</ele><time>2026-05-03T13:31:19.102Z</time></trkpt><trkpt lat="44.9403818" lon="9.9578372"><ele>51.0</ele><time>2026-05-03T13:31:20.103Z</time></trkpt><trkpt lat="44.9404733" lon="9.9576245"><ele>51.0</ele><time>2026-05-03T13:31:21.103Z</time></trkpt><trkpt lat="44.9405666" lon="9.9574085"><ele>51.0</ele><time>2026-05-03T13:31:22.103Z</time></trkpt><trkpt lat="44.940655" lon="9.9571962"><ele>51.0</ele><time>2026-05-03T13:31:23.102Z</time></trkpt><trkpt lat="44.9407433" lon="9.9569831"><ele>51.0</ele><time>2026-05-03T13:31:24.102Z</time></trkpt><trkpt lat="44.9408301" lon="9.9567636"><ele>51.0</ele><time>2026-05-03T13:31:25.103Z</time></trkpt><trkpt lat="44.9409235" lon="9.9565385"><ele>51.0</ele><time>2026-05-03T13:31:26.103Z</time></trkpt><trkpt lat="44.9410166" lon="9.9562975"><ele>51.0</ele><time>2026-05-03T13:31:27.102Z</time></trkpt><trkpt lat="44.941119" lon="9.9560335"><ele>51.5</ele><time>2026-05-03T13:31:28.102Z</time></trkpt><trkpt lat="44.9412249" lon="9.9557618"><ele>52.0</ele><time>2026-05-03T13:31:29.102Z</time></trkpt><trkpt lat="44.9413432" lon="9.9554751"><ele>52.0</ele><time>2026-05-03T13:31:30.102Z</time></trkpt><trkpt lat="44.9414687" lon="9.9551803"><ele>52.0</ele><time>2026-05-03T13:31:31.102Z</time></trkpt><trkpt lat="44.9415988" lon="9.9548755"><ele>52.5</ele><time>2026-05-03T13:31:32.102Z</time></trkpt><trkpt lat="44.9417334" lon="9.9545615"><ele>53.0</ele><time>2026-05-03T13:31:33.102Z</time></trkpt><trkpt lat="44.9418732" lon="9.9542359"><ele>52.5</ele><time>2026-05-03T13:31:34.102Z</time></trkpt><trkpt lat="44.9420221" lon="9.9538998"><ele>52.0</ele><time>2026-05-03T13:31:35.103Z</time></trkpt><trkpt lat="44.9421638" lon="9.9535783"><ele>53.0</ele><time>2026-05-03T13:31:36.102Z</time></trkpt><trkpt lat="44.9423001" lon="9.9532653"><ele>54.0</ele><time>2026-05-03T13:31:37.102Z</time></trkpt><trkpt lat="44.9424288" lon="9.9529679"><ele>54.0</ele><time>2026-05-03T13:31:38.102Z</time></trkpt><trkpt lat="44.9425522" lon="9.952681"><ele>54.0</ele><time>2026-05-03T13:31:39.102Z</time></trkpt><trkpt lat="44.9426693" lon="9.952411"><ele>53.0</ele><time>2026-05-03T13:31:40.103Z</time></trkpt><trkpt lat="44.942789" lon="9.9521321"><ele>52.0</ele><time>2026-05-03T13:31:41.102Z</time></trkpt><trkpt lat="44.9429105" lon="9.9518458"><ele>52.0</ele><time>2026-05-03T13:31:42.103Z</time></trkpt><trkpt lat="44.9430354" lon="9.9515675"><ele>52.0</ele><time>2026-05-03T13:31:43.102Z</time></trkpt><trkpt lat="44.9431591" lon="9.9512915"><ele>52.0</ele><time>2026-05-03T13:31:44.103Z</time></trkpt><trkpt lat="44.9432783" lon="9.9510268"><ele>52.0</ele><time>2026-05-03T13:31:45.103Z</time></trkpt><trkpt lat="44.9433995" lon="9.9507547"><ele>52.0</ele><time>2026-05-03T13:31:46.102Z</time></trkpt><trkpt lat="44.9435175" lon="9.9504836"><ele>52.0</ele><time>2026-05-03T13:31:47.102Z</time></trkpt><trkpt lat="44.9436367" lon="9.9502159"><ele>52.0</ele><time>2026-05-03T13:31:48.102Z</time></trkpt><trkpt lat="44.943762" lon="9.9499264"><ele>52.0</ele><time>2026-05-03T13:31:49.103Z</time></trkpt><trkpt lat="44.943892" lon="9.9496281"><ele>52.0</ele><time>2026-05-03T13:31:50.103Z</time></trkpt><trkpt lat="44.9440054" lon="9.9493446"><ele>52.33333333333333</ele><time>2026-05-03T13:31:51.103Z</time></trkpt><trkpt lat="44.9441218" lon="9.949071"><ele>52.66666666666667</ele><time>2026-05-03T13:31:52.102Z</time></trkpt><trkpt lat="44.9442351" lon="9.9488072"><ele>53.0</ele><time>2026-05-03T13:31:53.103Z</time></trkpt><trkpt lat="44.9443518" lon="9.9485262"><ele>54.0</ele><time>2026-05-03T13:31:54.103Z</time></trkpt><trkpt lat="44.9444746" lon="9.9482282"><ele>55.0</ele><time>2026-05-03T13:31:55.103Z</time></trkpt><trkpt lat="44.9446011" lon="9.9479287"><ele>55.0</ele><time>2026-05-03T13:31:56.102Z</time></trkpt><trkpt lat="44.9447483" lon="9.9476074"><ele>55.0</ele><time>2026-05-03T13:31:57.102Z</time></trkpt><trkpt lat="44.9448828" lon="9.9473012"><ele>55.0</ele><time>2026-05-03T13:31:58.102Z</time></trkpt><trkpt lat="44.9450171" lon="9.9469947"><ele>55.0</ele><time>2026-05-03T13:31:59.102Z</time></trkpt><trkpt lat="44.945153" lon="9.9466692"><ele>54.5</ele><time>2026-05-03T13:32:00.102Z</time></trkpt><trkpt lat="44.9452979" lon="9.9463322"><ele>54.0</ele><time>2026-05-03T13:32:01.103Z</time></trkpt><trkpt lat="44.9454375" lon="9.9460027"><ele>53.5</ele><time>2026-05-03T13:32:02.103Z</time></trkpt><trkpt lat="44.9455787" lon="9.9456824"><ele>53.0</ele><time>2026-05-03T13:32:03.103Z</time></trkpt><trkpt lat="44.9457221" lon="9.945352"><ele>53.0</ele><time>2026-05-03T13:32:04.103Z</time></trkpt><trkpt lat="44.9458613" lon="9.9450241"><ele>53.0</ele><time>2026-05-03T13:32:05.102Z</time></trkpt><trkpt lat="44.9460037" lon="9.9447004"><ele>53.0</ele><time>2026-05-03T13:32:06.103Z</time></trkpt><trkpt lat="44.9461466" lon="9.9443661"><ele>53.0</ele><time>2026-05-03T13:32:07.103Z</time></trkpt><trkpt lat="44.9462972" lon="9.9440329"><ele>53.0</ele><time>2026-05-03T13:32:08.103Z</time></trkpt><trkpt lat="44.9464329" lon="9.9437053"><ele>53.0</ele><time>2026-05-03T13:32:09.103Z</time></trkpt><trkpt lat="44.9465723" lon="9.9433761"><ele>53.5</ele><time>2026-05-03T13:32:10.102Z</time></trkpt><trkpt lat="44.9467075" lon="9.9430425"><ele>54.0</ele><time>2026-05-03T13:32:11.103Z</time></trkpt><trkpt lat="44.9468438" lon="9.9427214"><ele>53.5</ele><time>2026-05-03T13:32:12.102Z</time></trkpt><trkpt lat="44.9469733" lon="9.9424154"><ele>53.0</ele><time>2026-05-03T13:32:13.103Z</time></trkpt><trkpt lat="44.947098" lon="9.9421232"><ele>53.0</ele><time>2026-05-03T13:32:14.102Z</time></trkpt><trkpt lat="44.9472163" lon="9.94183"><ele>53.0</ele><time>2026-05-03T13:32:15.102Z</time></trkpt><trkpt lat="44.9473327" lon="9.9415498"><ele>53.5</ele><time>2026-05-03T13:32:16.102Z</time></trkpt><trkpt lat="44.9474455" lon="9.9412691"><ele>54.0</ele><time>2026-05-03T13:32:17.102Z</time></trkpt><trkpt lat="44.9475683" lon="9.9409913"><ele>55.0</ele><time>2026-05-03T13:32:18.103Z</time></trkpt><trkpt lat="44.9476883" lon="9.9407065"><ele>56.0</ele><time>2026-05-03T13:32:19.102Z</time></trkpt><trkpt lat="44.9478217" lon="9.9404104"><ele>56.0</ele><time>2026-05-03T13:32:20.102Z</time></trkpt><trkpt lat="44.9479701" lon="9.9400894"><ele>56.0</ele><time>2026-05-03T13:32:21.103Z</time></trkpt><trkpt lat="44.9481206" lon="9.9397598"><ele>57.0</ele><time>2026-05-03T13:32:22.102Z</time></trkpt><trkpt lat="44.9482681" lon="9.9394166"><ele>58.0</ele><time>2026-05-03T13:32:23.102Z</time></trkpt><trkpt lat="44.9484171" lon="9.9390651"><ele>58.0</ele><time>2026-05-03T13:32:24.102Z</time></trkpt><trkpt lat="44.9485647" lon="9.9387135"><ele>58.0</ele><time>2026-05-03T13:32:25.102Z</time></trkpt><trkpt lat="44.9487123" lon="9.9383639"><ele>58.0</ele><time>2026-05-03T13:32:26.103Z</time></trkpt><trkpt lat="44.9488556" lon="9.9380213"><ele>58.0</ele><time>2026-05-03T13:32:27.102Z</time></trkpt><trkpt lat="44.9489979" lon="9.9376784"><ele>58.0</ele><time>2026-05-03T13:32:28.103Z</time></trkpt><trkpt lat="44.9491397" lon="9.937337"><ele>58.0</ele><time>2026-05-03T13:32:29.103Z</time></trkpt><trkpt lat="44.9492797" lon="9.9370053"><ele>57.0</ele><time>2026-05-03T13:32:30.103Z</time></trkpt><trkpt lat="44.9494281" lon="9.9366879"><ele>56.0</ele><time>2026-05-03T13:32:31.103Z</time></trkpt><trkpt lat="44.9495694" lon="9.9363616"><ele>56.0</ele><time>2026-05-03T13:32:32.102Z</time></trkpt><trkpt lat="44.9497098" lon="9.9360265"><ele>56.0</ele><time>2026-05-03T13:32:33.102Z</time></trkpt><trkpt lat="44.9498567" lon="9.9356803"><ele>56.0</ele><time>2026-05-03T13:32:34.103Z</time></trkpt><trkpt lat="44.9500054" lon="9.9353262"><ele>56.0</ele><time>2026-05-03T13:32:35.102Z</time></trkpt><trkpt lat="44.9501578" lon="9.9349714"><ele>57.0</ele><time>2026-05-03T13:32:36.103Z</time></trkpt><trkpt lat="44.9503136" lon="9.9346124"><ele>58.0</ele><time>2026-05-03T13:32:37.103Z</time></trkpt><trkpt lat="44.9504692" lon="9.9342487"><ele>58.0</ele><time>2026-05-03T13:32:38.103Z</time></trkpt><trkpt lat="44.9506206" lon="9.9338915"><ele>58.0</ele><time>2026-05-03T13:32:39.102Z</time></trkpt><trkpt lat="44.9507668" lon="9.9335479"><ele>57.0</ele><time>2026-05-03T13:32:40.103Z</time></trkpt><trkpt lat="44.950914" lon="9.9331959"><ele>56.0</ele><time>2026-05-03T13:32:41.103Z</time></trkpt><trkpt lat="44.9510613" lon="9.9328471"><ele>55.5</ele><time>2026-05-03T13:32:42.102Z</time></trkpt><trkpt lat="44.9512053" lon="9.9324991"><ele>55.0</ele><time>2026-05-03T13:32:43.102Z</time></trkpt><trkpt lat="44.9513513" lon="9.9321575"><ele>55.0</ele><time>2026-05-03T13:32:44.103Z</time></trkpt><trkpt lat="44.9514904" lon="9.93183"><ele>55.0</ele><time>2026-05-03T13:32:45.102Z</time></trkpt><trkpt lat="44.9516335" lon="9.9315017"><ele>54.0</ele><time>2026-05-03T13:32:46.102Z</time></trkpt><trkpt lat="44.9517693" lon="9.9311818"><ele>53.0</ele><time>2026-05-03T13:32:47.102Z</time></trkpt><trkpt lat="44.9518998" lon="9.9308762"><ele>56.0</ele><time>2026-05-03T13:32:48.101Z</time></trkpt><trkpt lat="44.952027" lon="9.9305715"><ele>59.0</ele><time>2026-05-03T13:32:49.102Z</time></trkpt><trkpt lat="44.9521506" lon="9.9302763"><ele>59.333333333333336</ele><time>2026-05-03T13:32:50.102Z</time></trkpt><trkpt lat="44.9522727" lon="9.9299992"><ele>59.66666666666667</ele><time>2026-05-03T13:32:51.103Z</time></trkpt><trkpt lat="44.9523834" lon="9.9297374"><ele>60.0</ele><time>2026-05-03T13:32:52.103Z</time></trkpt><trkpt lat="44.9524913" lon="9.9294904"><ele>60.0</ele><time>2026-05-03T13:32:53.103Z</time></trkpt><trkpt lat="44.9525924" lon="9.9292496"><ele>60.0</ele><time>2026-05-03T13:32:54.102Z</time></trkpt><trkpt lat="44.9526975" lon="9.9290019"><ele>60.0</ele><time>2026-05-03T13:32:55.102Z</time></trkpt><trkpt lat="44.9527996" lon="9.9287618"><ele>60.0</ele><time>2026-05-03T13:32:56.102Z</time></trkpt><trkpt lat="44.9528996" lon="9.9285237"><ele>60.0</ele><time>2026-05-03T13:32:57.102Z</time></trkpt><trkpt lat="44.9529938" lon="9.9282934"><ele>60.0</ele><time>2026-05-03T13:32:58.102Z</time></trkpt><trkpt lat="44.9530903" lon="9.9280696"><ele>59.66666666666667</ele><time>2026-05-03T13:32:59.102Z</time></trkpt><trkpt lat="44.9531869" lon="9.9278467"><ele>59.333333333333336</ele><time>2026-05-03T13:33:00.103Z</time></trkpt><trkpt lat="44.9532874" lon="9.9276012"><ele>59.0</ele><time>2026-05-03T13:33:01.102Z</time></trkpt><trkpt lat="44.9533984" lon="9.9273363"><ele>58.5</ele><time>2026-05-03T13:33:02.103Z</time></trkpt><trkpt lat="44.953517" lon="9.9270603"><ele>58.0</ele><time>2026-05-03T13:33:03.103Z</time></trkpt><trkpt lat="44.9536522" lon="9.9267626"><ele>59.0</ele><time>2026-05-03T13:33:04.102Z</time></trkpt><trkpt lat="44.9537885" lon="9.9264421"><ele>60.0</ele><time>2026-05-03T13:33:05.103Z</time></trkpt><trkpt lat="44.9539259" lon="9.9261041"><ele>60.5</ele><time>2026-05-03T13:33:06.103Z</time></trkpt><trkpt lat="44.9540714" lon="9.9257514"><ele>61.0</ele><time>2026-05-03T13:33:07.102Z</time></trkpt><trkpt lat="44.9542135" lon="9.9254148"><ele>61.0</ele><time>2026-05-03T13:33:08.102Z</time></trkpt><trkpt lat="44.9543497" lon="9.9250908"><ele>61.0</ele><time>2026-05-03T13:33:09.103Z</time></trkpt><trkpt lat="44.9544839" lon="9.9247658"><ele>61.0</ele><time>2026-05-03T13:33:10.103Z</time></trkpt><trkpt lat="44.9546265" lon="9.9244345"><ele>61.0</ele><time>2026-05-03T13:33:11.103Z</time></trkpt><trkpt lat="44.9547547" lon="9.9241352"><ele>62.0</ele><time>2026-05-03T13:33:12.103Z</time></trkpt><trkpt lat="44.9548788" lon="9.9238393"><ele>63.0</ele><time>2026-05-03T13:33:13.102Z</time></trkpt><trkpt lat="44.9550018" lon="9.9235572"><ele>63.5</ele><time>2026-05-03T13:33:14.102Z</time></trkpt><trkpt lat="44.9551162" lon="9.9232773"><ele>64.0</ele><time>2026-05-03T13:33:15.102Z</time></trkpt><trkpt lat="44.955229" lon="9.9230039"><ele>64.0</ele><time>2026-05-03T13:33:16.103Z</time></trkpt><trkpt lat="44.9553429" lon="9.9227363"><ele>64.0</ele><time>2026-05-03T13:33:17.103Z</time></trkpt><trkpt lat="44.9554618" lon="9.9224603"><ele>64.33333333333333</ele><time>2026-05-03T13:33:18.103Z</time></trkpt><trkpt lat="44.9555892" lon="9.9221913"><ele>64.66666666666667</ele><time>2026-05-03T13:33:19.102Z</time></trkpt><trkpt lat="44.9557051" lon="9.9219297"><ele>65.0</ele><time>2026-05-03T13:33:20.103Z</time></trkpt><trkpt lat="44.9558218" lon="9.9216493"><ele>64.5</ele><time>2026-05-03T13:33:21.102Z</time></trkpt><trkpt lat="44.9559427" lon="9.9213668"><ele>64.0</ele><time>2026-05-03T13:33:22.103Z</time></trkpt><trkpt lat="44.9560666" lon="9.92108"><ele>63.0</ele><time>2026-05-03T13:33:23.102Z</time></trkpt><trkpt lat="44.956192" lon="9.9207883"><ele>62.0</ele><time>2026-05-03T13:33:24.102Z</time></trkpt><trkpt lat="44.9563194" lon="9.9204839"><ele>62.0</ele><time>2026-05-03T13:33:25.103Z</time></trkpt><trkpt lat="44.9564593" lon="9.9201677"><ele>62.0</ele><time>2026-05-03T13:33:26.103Z</time></trkpt><trkpt lat="44.9566001" lon="9.9198455"><ele>61.5</ele><time>2026-05-03T13:33:27.103Z</time></trkpt><trkpt lat="44.9567444" lon="9.919507"><ele>61.0</ele><time>2026-05-03T13:33:28.103Z</time></trkpt><trkpt lat="44.9568917" lon="9.9191677"><ele>61.0</ele><time>2026-05-03T13:33:29.102Z</time></trkpt><trkpt lat="44.9570448" lon="9.9188155"><ele>61.0</ele><time>2026-05-03T13:33:30.103Z</time></trkpt><trkpt lat="44.9571888" lon="9.9184761"><ele>62.5</ele><time>2026-05-03T13:33:31.103Z</time></trkpt><trkpt lat="44.9573364" lon="9.9181282"><ele>64.0</ele><time>2026-05-03T13:33:32.102Z</time></trkpt><trkpt lat="44.9574827" lon="9.9177806"><ele>61.5</ele><time>2026-05-03T13:33:33.102Z</time></trkpt><trkpt lat="44.9576346" lon="9.9174233"><ele>59.0</ele><time>2026-05-03T13:33:34.102Z</time></trkpt><trkpt lat="44.9577861" lon="9.9170659"><ele>58.5</ele><time>2026-05-03T13:33:35.103Z</time></trkpt><trkpt lat="44.9579456" lon="9.9166945"><ele>58.0</ele><time>2026-05-03T13:33:36.102Z</time></trkpt><trkpt lat="44.9581068" lon="9.9163156"><ele>58.0</ele><time>2026-05-03T13:33:37.102Z</time></trkpt><trkpt lat="44.9582741" lon="9.9159204"><ele>58.0</ele><time>2026-05-03T13:33:38.103Z</time></trkpt><trkpt lat="44.9584449" lon="9.915528"><ele>59.0</ele><time>2026-05-03T13:33:39.102Z</time></trkpt><trkpt lat="44.9586112" lon="9.9151418"><ele>60.0</ele><time>2026-05-03T13:33:40.103Z</time></trkpt><trkpt lat="44.9587768" lon="9.9147537"><ele>60.5</ele><time>2026-05-03T13:33:41.102Z</time></trkpt><trkpt lat="44.9589444" lon="9.914364"><ele>61.0</ele><time>2026-05-03T13:33:42.102Z</time></trkpt><trkpt lat="44.9591103" lon="9.9139835"><ele>60.5</ele><time>2026-05-03T13:33:43.102Z</time></trkpt><trkpt lat="44.9592697" lon="9.9136031"><ele>60.0</ele><time>2026-05-03T13:33:44.102Z</time></trkpt><trkpt lat="44.9594306" lon="9.9132267"><ele>58.0</ele><time>2026-05-03T13:33:45.102Z</time></trkpt><trkpt lat="44.9595927" lon="9.9128543"><ele>56.0</ele><time>2026-05-03T13:33:46.103Z</time></trkpt><trkpt lat="44.9597547" lon="9.9124745"><ele>56.0</ele><time>2026-05-03T13:33:47.102Z</time></trkpt><trkpt lat="44.9599157" lon="9.9121035"><ele>56.0</ele><time>2026-05-03T13:33:48.102Z</time></trkpt><trkpt lat="44.9600738" lon="9.9117364"><ele>57.0</ele><time>2026-05-03T13:33:49.103Z</time></trkpt><trkpt lat="44.9602323" lon="9.9113617"><ele>58.0</ele><time>2026-05-03T13:33:50.102Z</time></trkpt><trkpt lat="44.9603891" lon="9.9109897"><ele>59.5</ele><time>2026-05-03T13:33:51.103Z</time></trkpt><trkpt lat="44.9605424" lon="9.9106206"><ele>61.0</ele><time>2026-05-03T13:33:52.103Z</time></trkpt><trkpt lat="44.9606911" lon="9.9102565"><ele>61.0</ele><time>2026-05-03T13:33:53.102Z</time></trkpt><trkpt lat="44.9608393" lon="9.9098976"><ele>61.0</ele><time>2026-05-03T13:33:54.103Z</time></trkpt><trkpt lat="44.9609881" lon="9.9095403"><ele>62.0</ele><time>2026-05-03T13:33:55.103Z</time></trkpt><trkpt lat="44.9611365" lon="9.9091781"><ele>63.0</ele><time>2026-05-03T13:33:56.103Z</time></trkpt><trkpt lat="44.9612892" lon="9.9088108"><ele>63.0</ele><time>2026-05-03T13:33:57.103Z</time></trkpt><trkpt lat="44.9614454" lon="9.9084365"><ele>63.0</ele><time>2026-05-03T13:33:58.102Z</time></trkpt><trkpt lat="44.9615999" lon="9.9080791"><ele>62.5</ele><time>2026-05-03T13:33:59.102Z</time></trkpt><trkpt lat="44.9617499" lon="9.9077202"><ele>62.0</ele><time>2026-05-03T13:34:00.102Z</time></trkpt><trkpt lat="44.9619035" lon="9.9073644"><ele>61.5</ele><time>2026-05-03T13:34:01.103Z</time></trkpt><trkpt lat="44.9620632" lon="9.906992"><ele>61.0</ele><time>2026-05-03T13:34:02.101Z</time></trkpt><trkpt lat="44.9622193" lon="9.9066301"><ele>61.0</ele><time>2026-05-03T13:34:03.103Z</time></trkpt><trkpt lat="44.9623744" lon="9.9062644"><ele>61.0</ele><time>2026-05-03T13:34:04.102Z</time></trkpt><trkpt lat="44.9625272" lon="9.9058983"><ele>61.0</ele><time>2026-05-03T13:34:05.103Z</time></trkpt><trkpt lat="44.9626782" lon="9.9055274"><ele>61.0</ele><time>2026-05-03T13:34:06.103Z</time></trkpt><trkpt lat="44.9628278" lon="9.9051612"><ele>61.5</ele><time>2026-05-03T13:34:07.103Z</time></trkpt><trkpt lat="44.9629782" lon="9.9047807"><ele>62.0</ele><time>2026-05-03T13:34:08.103Z</time></trkpt><trkpt lat="44.9631262" lon="9.9044062"><ele>61.5</ele><time>2026-05-03T13:34:09.103Z</time></trkpt><trkpt lat="44.9632893" lon="9.9040253"><ele>61.0</ele><time>2026-05-03T13:34:10.102Z</time></trkpt><trkpt lat="44.9634411" lon="9.903658"><ele>60.5</ele><time>2026-05-03T13:34:11.103Z</time></trkpt><trkpt lat="44.9635961" lon="9.9032873"><ele>60.0</ele><time>2026-05-03T13:34:12.103Z</time></trkpt><trkpt lat="44.9637512" lon="9.9029175"><ele>60.0</ele><time>2026-05-03T13:34:13.102Z</time></trkpt><trkpt lat="44.9638984" lon="9.9025686"><ele>60.0</ele><time>2026-05-03T13:34:14.103Z</time></trkpt><trkpt lat="44.964042" lon="9.9022234"><ele>60.0</ele><time>2026-05-03T13:34:15.103Z</time></trkpt><trkpt lat="44.9641824" lon="9.9018944"><ele>60.0</ele><time>2026-05-03T13:34:16.102Z</time></trkpt><trkpt lat="44.9643251" lon="9.9015699"><ele>60.5</ele><time>2026-05-03T13:34:17.102Z</time></trkpt><trkpt lat="44.9644683" lon="9.901246"><ele>61.0</ele><time>2026-05-03T13:34:18.102Z</time></trkpt><trkpt lat="44.9646134" lon="9.9009243"><ele>61.0</ele><time>2026-05-03T13:34:19.103Z</time></trkpt><trkpt lat="44.964758" lon="9.9005972"><ele>61.0</ele><time>2026-05-03T13:34:20.102Z</time></trkpt><trkpt lat="44.9648976" lon="9.9002618"><ele>60.5</ele><time>2026-05-03T13:34:21.103Z</time></trkpt><trkpt lat="44.9650354" lon="9.8999331"><ele>60.0</ele><time>2026-05-03T13:34:22.102Z</time></trkpt><trkpt lat="44.9651789" lon="9.8995938"><ele>60.0</ele><time>2026-05-03T13:34:23.103Z</time></trkpt><trkpt lat="44.9653164" lon="9.8992507"><ele>60.0</ele><time>2026-05-03T13:34:24.103Z</time></trkpt><trkpt lat="44.9654666" lon="9.8989044"><ele>59.5</ele><time>2026-05-03T13:34:25.103Z</time></trkpt><trkpt lat="44.9656162" lon="9.8985613"><ele>59.0</ele><time>2026-05-03T13:34:26.102Z</time></trkpt><trkpt lat="44.9657673" lon="9.8982105"><ele>58.5</ele><time>2026-05-03T13:34:27.101Z</time></trkpt><trkpt lat="44.9659138" lon="9.8978632"><ele>58.0</ele><time>2026-05-03T13:34:28.103Z</time></trkpt><trkpt lat="44.9660663" lon="9.8975112"><ele>57.5</ele><time>2026-05-03T13:34:29.102Z</time></trkpt><trkpt lat="44.9662189" lon="9.8971545"><ele>57.0</ele><time>2026-05-03T13:34:30.102Z</time></trkpt><trkpt lat="44.9663702" lon="9.8967977"><ele>56.5</ele><time>2026-05-03T13:34:31.102Z</time></trkpt><trkpt lat="44.9665233" lon="9.8964421"><ele>56.0</ele><time>2026-05-03T13:34:32.102Z</time></trkpt><trkpt lat="44.9666866" lon="9.896073"><ele>57.5</ele><time>2026-05-03T13:34:33.103Z</time></trkpt><trkpt lat="44.966861" lon="9.8956896"><ele>59.0</ele><time>2026-05-03T13:34:34.102Z</time></trkpt><trkpt lat="44.9670363" lon="9.8952946"><ele>59.0</ele><time>2026-05-03T13:34:35.103Z</time></trkpt><trkpt lat="44.9672212" lon="9.8948801"><ele>59.0</ele><time>2026-05-03T13:34:36.103Z</time></trkpt><trkpt lat="44.9673929" lon="9.8944717"><ele>57.5</ele><time>2026-05-03T13:34:37.102Z</time></trkpt><trkpt lat="44.9675596" lon="9.8940686"><ele>56.0</ele><time>2026-05-03T13:34:38.103Z</time></trkpt><trkpt lat="44.967723" lon="9.8936648"><ele>56.0</ele><time>2026-05-03T13:34:39.102Z</time></trkpt><trkpt lat="44.9678874" lon="9.8932784"><ele>56.0</ele><time>2026-05-03T13:34:40.103Z</time></trkpt><trkpt lat="44.9680532" lon="9.8928889"><ele>56.0</ele><time>2026-05-03T13:34:41.102Z</time></trkpt><trkpt lat="44.9682195" lon="9.8924968"><ele>56.0</ele><time>2026-05-03T13:34:42.103Z</time></trkpt><trkpt lat="44.9683803" lon="9.8921134"><ele>57.5</ele><time>2026-05-03T13:34:43.103Z</time></trkpt><trkpt lat="44.9685465" lon="9.8917326"><ele>59.0</ele><time>2026-05-03T13:34:44.102Z</time></trkpt><trkpt lat="44.9687106" lon="9.8913534"><ele>59.0</ele><time>2026-05-03T13:34:45.102Z</time></trkpt><trkpt lat="44.9688775" lon="9.8909739"><ele>59.0</ele><time>2026-05-03T13:34:46.102Z</time></trkpt><trkpt lat="44.9690416" lon="9.8905967"><ele>57.5</ele><time>2026-05-03T13:34:47.102Z</time></trkpt><trkpt lat="44.969206" lon="9.8902129"><ele>56.0</ele><time>2026-05-03T13:34:48.103Z</time></trkpt><trkpt lat="44.9693647" lon="9.8898442"><ele>56.0</ele><time>2026-05-03T13:34:49.103Z</time></trkpt><trkpt lat="44.9695337" lon="9.889463"><ele>56.0</ele><time>2026-05-03T13:34:50.102Z</time></trkpt><trkpt lat="44.9696998" lon="9.8890852"><ele>56.0</ele><time>2026-05-03T13:34:51.103Z</time></trkpt><trkpt lat="44.9698623" lon="9.8887103"><ele>56.0</ele><time>2026-05-03T13:34:52.102Z</time></trkpt><trkpt lat="44.9700286" lon="9.8883307"><ele>56.0</ele><time>2026-05-03T13:34:53.103Z</time></trkpt><trkpt lat="44.9701905" lon="9.8879601"><ele>56.0</ele><time>2026-05-03T13:34:54.103Z</time></trkpt><trkpt lat="44.9703488" lon="9.8875848"><ele>57.0</ele><time>2026-05-03T13:34:55.103Z</time></trkpt><trkpt lat="44.9705114" lon="9.8872093"><ele>58.0</ele><time>2026-05-03T13:34:56.102Z</time></trkpt><trkpt lat="44.9706684" lon="9.8868374"><ele>58.0</ele><time>2026-05-03T13:34:57.103Z</time></trkpt><trkpt lat="44.970828" lon="9.8864696"><ele>58.0</ele><time>2026-05-03T13:34:58.102Z</time></trkpt><trkpt lat="44.9709823" lon="9.8861022"><ele>58.0</ele><time>2026-05-03T13:34:59.103Z</time></trkpt><trkpt lat="44.9711343" lon="9.8857427"><ele>58.0</ele><time>2026-05-03T13:35:00.103Z</time></trkpt><trkpt lat="44.9712891" lon="9.8853824"><ele>56.5</ele><time>2026-05-03T13:35:01.102Z</time></trkpt><trkpt lat="44.9714402" lon="9.8850197"><ele>55.0</ele><time>2026-05-03T13:35:02.102Z</time></trkpt><trkpt lat="44.9715935" lon="9.8846597"><ele>55.5</ele><time>2026-05-03T13:35:03.103Z</time></trkpt><trkpt lat="44.9717495" lon="9.8842977"><ele>56.0</ele><time>2026-05-03T13:35:04.102Z</time></trkpt><trkpt lat="44.9719044" lon="9.8839342"><ele>56.0</ele><time>2026-05-03T13:35:05.101Z</time></trkpt><trkpt lat="44.972057" lon="9.8835683"><ele>56.0</ele><time>2026-05-03T13:35:06.102Z</time></trkpt><trkpt lat="44.9722091" lon="9.8832072"><ele>56.5</ele><time>2026-05-03T13:35:07.103Z</time></trkpt><trkpt lat="44.9723583" lon="9.8828416"><ele>57.0</ele><time>2026-05-03T13:35:08.103Z</time></trkpt><trkpt lat="44.972514" lon="9.8824805"><ele>57.5</ele><time>2026-05-03T13:35:09.103Z</time></trkpt><trkpt lat="44.9726696" lon="9.8821129"><ele>58.0</ele><time>2026-05-03T13:35:10.102Z</time></trkpt><trkpt lat="44.9728227" lon="9.8817484"><ele>57.0</ele><time>2026-05-03T13:35:11.102Z</time></trkpt><trkpt lat="44.9729748" lon="9.8813793"><ele>56.0</ele><time>2026-05-03T13:35:12.103Z</time></trkpt><trkpt lat="44.9731293" lon="9.8810079"><ele>55.5</ele><time>2026-05-03T13:35:13.102Z</time></trkpt><trkpt lat="44.9732807" lon="9.8806386"><ele>55.0</ele><time>2026-05-03T13:35:14.103Z</time></trkpt><trkpt lat="44.973442" lon="9.8802654"><ele>55.5</ele><time>2026-05-03T13:35:15.102Z</time></trkpt><trkpt lat="44.9736011" lon="9.8798879"><ele>56.0</ele><time>2026-05-03T13:35:16.102Z</time></trkpt><trkpt lat="44.9737685" lon="9.8794989"><ele>56.5</ele><time>2026-05-03T13:35:17.102Z</time></trkpt><trkpt lat="44.9739306" lon="9.8791238"><ele>57.0</ele><time>2026-05-03T13:35:18.103Z</time></trkpt><trkpt lat="44.9740921" lon="9.8787477"><ele>57.0</ele><time>2026-05-03T13:35:19.103Z</time></trkpt><trkpt lat="44.9742503" lon="9.8783704"><ele>57.0</ele><time>2026-05-03T13:35:20.103Z</time></trkpt><trkpt lat="44.9744129" lon="9.8779881"><ele>57.0</ele><time>2026-05-03T13:35:21.103Z</time></trkpt><trkpt lat="44.9745722" lon="9.8776114"><ele>57.0</ele><time>2026-05-03T13:35:22.102Z</time></trkpt><trkpt lat="44.9747307" lon="9.877243"><ele>57.0</ele><time>2026-05-03T13:35:23.103Z</time></trkpt><trkpt lat="44.9748937" lon="9.8768747"><ele>57.0</ele><time>2026-05-03T13:35:24.103Z</time></trkpt><trkpt lat="44.975052" lon="9.8765083"><ele>57.5</ele><time>2026-05-03T13:35:25.103Z</time></trkpt><trkpt lat="44.9752147" lon="9.8761322"><ele>58.0</ele><time>2026-05-03T13:35:26.103Z</time></trkpt><trkpt lat="44.9753671" lon="9.8757576"><ele>58.0</ele><time>2026-05-03T13:35:27.103Z</time></trkpt><trkpt lat="44.9755203" lon="9.8753837"><ele>58.0</ele><time>2026-05-03T13:35:28.102Z</time></trkpt><trkpt lat="44.9756779" lon="9.8750193"><ele>58.5</ele><time>2026-05-03T13:35:29.102Z</time></trkpt><trkpt lat="44.9758347" lon="9.8746477"><ele>59.0</ele><time>2026-05-03T13:35:30.102Z</time></trkpt><trkpt lat="44.9759971" lon="9.8742813"><ele>57.5</ele><time>2026-05-03T13:35:31.103Z</time></trkpt><trkpt lat="44.9761579" lon="9.8739185"><ele>56.0</ele><time>2026-05-03T13:35:32.103Z</time></trkpt><trkpt lat="44.9763217" lon="9.8735511"><ele>57.5</ele><time>2026-05-03T13:35:33.102Z</time></trkpt><trkpt lat="44.9764842" lon="9.8731816"><ele>59.0</ele><time>2026-05-03T13:35:34.102Z</time></trkpt><trkpt lat="44.9766431" lon="9.8728035"><ele>58.0</ele><time>2026-05-03T13:35:35.103Z</time></trkpt><trkpt lat="44.9768011" lon="9.8724179"><ele>57.0</ele><time>2026-05-03T13:35:36.103Z</time></trkpt><trkpt lat="44.9769611" lon="9.872037"><ele>57.5</ele><time>2026-05-03T13:35:37.103Z</time></trkpt><trkpt lat="44.977123" lon="9.8716629"><ele>58.0</ele><time>2026-05-03T13:35:38.103Z</time></trkpt><trkpt lat="44.9772821" lon="9.871291"><ele>57.0</ele><time>2026-05-03T13:35:39.103Z</time></trkpt><trkpt lat="44.9774397" lon="9.8709265"><ele>56.0</ele><time>2026-05-03T13:35:40.103Z</time></trkpt><trkpt lat="44.9775973" lon="9.870545"><ele>55.0</ele><time>2026-05-03T13:35:41.102Z</time></trkpt><trkpt lat="44.9777536" lon="9.8701646"><ele>54.0</ele><time>2026-05-03T13:35:42.103Z</time></trkpt><trkpt lat="44.9779101" lon="9.8697961"><ele>54.0</ele><time>2026-05-03T13:35:43.102Z</time></trkpt><trkpt lat="44.9780737" lon="9.8694169"><ele>54.0</ele><time>2026-05-03T13:35:44.102Z</time></trkpt><trkpt lat="44.9782352" lon="9.8690472"><ele>53.5</ele><time>2026-05-03T13:35:45.102Z</time></trkpt><trkpt lat="44.9783954" lon="9.8686767"><ele>53.0</ele><time>2026-05-03T13:35:46.103Z</time></trkpt><trkpt lat="44.9785574" lon="9.8682975"><ele>53.0</ele><time>2026-05-03T13:35:47.102Z</time></trkpt><trkpt lat="44.9787196" lon="9.8679216"><ele>53.0</ele><time>2026-05-03T13:35:48.103Z</time></trkpt><trkpt lat="44.9788782" lon="9.8675516"><ele>54.5</ele><time>2026-05-03T13:35:49.102Z</time></trkpt><trkpt lat="44.9790291" lon="9.867182"><ele>56.0</ele><time>2026-05-03T13:35:50.101Z</time></trkpt><trkpt lat="44.9791834" lon="9.8668165"><ele>56.0</ele><time>2026-05-03T13:35:51.103Z</time></trkpt><trkpt lat="44.9793348" lon="9.866448"><ele>56.0</ele><time>2026-05-03T13:35:52.102Z</time></trkpt><trkpt lat="44.9794893" lon="9.8660844"><ele>56.5</ele><time>2026-05-03T13:35:53.103Z</time></trkpt><trkpt lat="44.9796453" lon="9.8657252"><ele>57.0</ele><time>2026-05-03T13:35:54.102Z</time></trkpt><trkpt lat="44.9797991" lon="9.8653711"><ele>57.0</ele><time>2026-05-03T13:35:55.103Z</time></trkpt><trkpt lat="44.9799523" lon="9.8650032"><ele>57.0</ele><time>2026-05-03T13:35:56.102Z</time></trkpt><trkpt lat="44.9801052" lon="9.8646461"><ele>56.5</ele><time>2026-05-03T13:35:57.103Z</time></trkpt><trkpt lat="44.9802559" lon="9.8642837"><ele>56.0</ele><time>2026-05-03T13:35:58.102Z</time></trkpt><trkpt lat="44.9804076" lon="9.8639188"><ele>57.0</ele><time>2026-05-03T13:35:59.103Z</time></trkpt><trkpt lat="44.9805592" lon="9.8635529"><ele>58.0</ele><time>2026-05-03T13:36:00.102Z</time></trkpt><trkpt lat="44.9807195" lon="9.8631824"><ele>57.0</ele><time>2026-05-03T13:36:01.103Z</time></trkpt><trkpt lat="44.9808729" lon="9.8628197"><ele>56.0</ele><time>2026-05-03T13:36:02.102Z</time></trkpt><trkpt lat="44.9810265" lon="9.8624541"><ele>56.0</ele><time>2026-05-03T13:36:03.103Z</time></trkpt><trkpt lat="44.981179" lon="9.8620938"><ele>56.0</ele><time>2026-05-03T13:36:04.102Z</time></trkpt><trkpt lat="44.981324" lon="9.8617263"><ele>56.0</ele><time>2026-05-03T13:36:05.103Z</time></trkpt><trkpt lat="44.9814766" lon="9.8613635"><ele>56.0</ele><time>2026-05-03T13:36:06.102Z</time></trkpt><trkpt lat="44.9816378" lon="9.8610001"><ele>55.5</ele><time>2026-05-03T13:36:07.103Z</time></trkpt><trkpt lat="44.9817923" lon="9.8606402"><ele>55.0</ele><time>2026-05-03T13:36:08.102Z</time></trkpt><trkpt lat="44.9819519" lon="9.8602796"><ele>55.5</ele><time>2026-05-03T13:36:09.103Z</time></trkpt><trkpt lat="44.9821126" lon="9.8599156"><ele>56.0</ele><time>2026-05-03T13:36:10.102Z</time></trkpt><trkpt lat="44.9822722" lon="9.8595497"><ele>56.5</ele><time>2026-05-03T13:36:11.103Z</time></trkpt><trkpt lat="44.9824281" lon="9.85919"><ele>57.0</ele><time>2026-05-03T13:36:12.103Z</time></trkpt><trkpt lat="44.98258" lon="9.8588272"><ele>57.0</ele><time>2026-05-03T13:36:13.103Z</time></trkpt><trkpt lat="44.9827408" lon="9.85846"><ele>57.0</ele><time>2026-05-03T13:36:14.102Z</time></trkpt><trkpt lat="44.982895" lon="9.8580913"><ele>57.0</ele><time>2026-05-03T13:36:15.103Z</time></trkpt><trkpt lat="44.9830494" lon="9.8577321"><ele>57.0</ele><time>2026-05-03T13:36:16.102Z</time></trkpt><trkpt lat="44.983206" lon="9.8573679"><ele>56.5</ele><time>2026-05-03T13:36:17.102Z</time></trkpt><trkpt lat="44.9833568" lon="9.8570081"><ele>56.0</ele><time>2026-05-03T13:36:18.102Z</time></trkpt><trkpt lat="44.983519" lon="9.8566424"><ele>55.0</ele><time>2026-05-03T13:36:19.102Z</time></trkpt><trkpt lat="44.9836705" lon="9.8562867"><ele>54.0</ele><time>2026-05-03T13:36:20.102Z</time></trkpt><trkpt lat="44.9838223" lon="9.8559365"><ele>56.5</ele><time>2026-05-03T13:36:21.103Z</time></trkpt><trkpt lat="44.9839766" lon="9.8555817"><ele>59.0</ele><time>2026-05-03T13:36:22.102Z</time></trkpt><trkpt lat="44.9841207" lon="9.8552247"><ele>57.5</ele><time>2026-05-03T13:36:23.103Z</time></trkpt><trkpt lat="44.9842704" lon="9.8548598"><ele>56.0</ele><time>2026-05-03T13:36:24.102Z</time></trkpt><trkpt lat="44.9844176" lon="9.8545039"><ele>56.0</ele><time>2026-05-03T13:36:25.103Z</time></trkpt><trkpt lat="44.9845628" lon="9.8541566"><ele>56.0</ele><time>2026-05-03T13:36:26.103Z</time></trkpt><trkpt lat="44.9847149" lon="9.8538014"><ele>56.5</ele><time>2026-05-03T13:36:27.103Z</time></trkpt><trkpt lat="44.9848627" lon="9.8534442"><ele>57.0</ele><time>2026-05-03T13:36:28.102Z</time></trkpt><trkpt lat="44.9850143" lon="9.8530939"><ele>56.5</ele><time>2026-05-03T13:36:29.102Z</time></trkpt><trkpt lat="44.9851727" lon="9.8527271"><ele>56.0</ele><time>2026-05-03T13:36:30.102Z</time></trkpt><trkpt lat="44.9853242" lon="9.8523572"><ele>56.0</ele><time>2026-05-03T13:36:31.103Z</time></trkpt><trkpt lat="44.9854817" lon="9.8519803"><ele>56.0</ele><time>2026-05-03T13:36:32.103Z</time></trkpt><trkpt lat="44.9856326" lon="9.851621"><ele>56.0</ele><time>2026-05-03T13:36:33.102Z</time></trkpt><trkpt lat="44.9857832" lon="9.8512749"><ele>56.0</ele><time>2026-05-03T13:36:34.102Z</time></trkpt><trkpt lat="44.9859371" lon="9.8509163"><ele>55.5</ele><time>2026-05-03T13:36:35.103Z</time></trkpt><trkpt lat="44.9860837" lon="9.8505697"><ele>55.0</ele><time>2026-05-03T13:36:36.103Z</time></trkpt><trkpt lat="44.9862298" lon="9.8502242"><ele>58.0</ele><time>2026-05-03T13:36:37.102Z</time></trkpt><trkpt lat="44.9863728" lon="9.8498783"><ele>61.0</ele><time>2026-05-03T13:36:38.102Z</time></trkpt><trkpt lat="44.9865169" lon="9.849549"><ele>61.0</ele><time>2026-05-03T13:36:39.103Z</time></trkpt><trkpt lat="44.9866526" lon="9.8492251"><ele>61.0</ele><time>2026-05-03T13:36:40.103Z</time></trkpt><trkpt lat="44.9867832" lon="9.8489108"><ele>58.5</ele><time>2026-05-03T13:36:41.103Z</time></trkpt><trkpt lat="44.9869168" lon="9.8485975"><ele>56.0</ele><time>2026-05-03T13:36:42.103Z</time></trkpt><trkpt lat="44.9870666" lon="9.8482667"><ele>56.0</ele><time>2026-05-03T13:36:43.103Z</time></trkpt><trkpt lat="44.9872117" lon="9.8479197"><ele>56.0</ele><time>2026-05-03T13:36:44.102Z</time></trkpt><trkpt lat="44.9873644" lon="9.8475601"><ele>55.5</ele><time>2026-05-03T13:36:45.102Z</time></trkpt><trkpt lat="44.9875239" lon="9.8471912"><ele>55.0</ele><time>2026-05-03T13:36:46.102Z</time></trkpt><trkpt lat="44.9876763" lon="9.8468269"><ele>56.0</ele><time>2026-05-03T13:36:47.102Z</time></trkpt><trkpt lat="44.9878237" lon="9.8464632"><ele>57.0</ele><time>2026-05-03T13:36:48.103Z</time></trkpt><trkpt lat="44.9879706" lon="9.8460977"><ele>57.5</ele><time>2026-05-03T13:36:49.102Z</time></trkpt><trkpt lat="44.9881169" lon="9.845726"><ele>58.0</ele><time>2026-05-03T13:36:50.103Z</time></trkpt><trkpt lat="44.988264" lon="9.8453582"><ele>56.0</ele><time>2026-05-03T13:36:51.102Z</time></trkpt><trkpt lat="44.9884093" lon="9.8449869"><ele>54.0</ele><time>2026-05-03T13:36:52.102Z</time></trkpt><trkpt lat="44.988555" lon="9.8446139"><ele>55.5</ele><time>2026-05-03T13:36:53.102Z</time></trkpt><trkpt lat="44.988701" lon="9.8442417"><ele>57.0</ele><time>2026-05-03T13:36:54.103Z</time></trkpt><trkpt lat="44.988845" lon="9.8438694"><ele>57.0</ele><time>2026-05-03T13:36:55.103Z</time></trkpt><trkpt lat="44.9889879" lon="9.8434974"><ele>57.0</ele><time>2026-05-03T13:36:56.103Z</time></trkpt><trkpt lat="44.989132" lon="9.8431192"><ele>56.5</ele><time>2026-05-03T13:36:57.101Z</time></trkpt><trkpt lat="44.9892769" lon="9.8427452"><ele>56.0</ele><time>2026-05-03T13:36:58.103Z</time></trkpt><trkpt lat="44.9894194" lon="9.8423695"><ele>56.0</ele><time>2026-05-03T13:36:59.102Z</time></trkpt><trkpt lat="44.9895611" lon="9.8419912"><ele>56.0</ele><time>2026-05-03T13:37:00.103Z</time></trkpt><trkpt lat="44.9897039" lon="9.8416191"><ele>56.0</ele><time>2026-05-03T13:37:01.102Z</time></trkpt><trkpt lat="44.9898483" lon="9.8412426"><ele>56.0</ele><time>2026-05-03T13:37:02.103Z</time></trkpt><trkpt lat="44.9899949" lon="9.8408681"><ele>56.0</ele><time>2026-05-03T13:37:03.102Z</time></trkpt><trkpt lat="44.990138" lon="9.8405111"><ele>56.0</ele><time>2026-05-03T13:37:04.103Z</time></trkpt><trkpt lat="44.9902793" lon="9.840153"><ele>56.5</ele><time>2026-05-03T13:37:05.102Z</time></trkpt><trkpt lat="44.9904197" lon="9.8398023"><ele>57.0</ele><time>2026-05-03T13:37:06.103Z</time></trkpt><trkpt lat="44.9905595" lon="9.8394535"><ele>56.5</ele><time>2026-05-03T13:37:07.102Z</time></trkpt><trkpt lat="44.9906981" lon="9.8391064"><ele>56.0</ele><time>2026-05-03T13:37:08.103Z</time></trkpt><trkpt lat="44.9908391" lon="9.8387549"><ele>56.0</ele><time>2026-05-03T13:37:09.103Z</time></trkpt><trkpt lat="44.9909779" lon="9.8384003"><ele>56.0</ele><time>2026-05-03T13:37:10.102Z</time></trkpt><trkpt lat="44.9911184" lon="9.8380487"><ele>56.0</ele><time>2026-05-03T13:37:11.102Z</time></trkpt><trkpt lat="44.9912505" lon="9.8376965"><ele>56.0</ele><time>2026-05-03T13:37:12.102Z</time></trkpt><trkpt lat="44.9913856" lon="9.8373439"><ele>56.5</ele><time>2026-05-03T13:37:13.103Z</time></trkpt><trkpt lat="44.9915195" lon="9.8369896"><ele>57.0</ele><time>2026-05-03T13:37:14.103Z</time></trkpt><trkpt lat="44.9916575" lon="9.836623"><ele>56.5</ele><time>2026-05-03T13:37:15.103Z</time></trkpt><trkpt lat="44.9917943" lon="9.8362584"><ele>56.0</ele><time>2026-05-03T13:37:16.102Z</time></trkpt><trkpt lat="44.9919321" lon="9.8358961"><ele>56.0</ele><time>2026-05-03T13:37:17.103Z</time></trkpt><trkpt lat="44.9920719" lon="9.8355375"><ele>56.0</ele><time>2026-05-03T13:37:18.102Z</time></trkpt><trkpt lat="44.9922125" lon="9.8351784"><ele>56.0</ele><time>2026-05-03T13:37:19.103Z</time></trkpt><trkpt lat="44.9923548" lon="9.8348159"><ele>56.0</ele><time>2026-05-03T13:37:20.103Z</time></trkpt><trkpt lat="44.9924987" lon="9.8344478"><ele>56.5</ele><time>2026-05-03T13:37:21.102Z</time></trkpt><trkpt lat="44.9926477" lon="9.8340712"><ele>57.0</ele><time>2026-05-03T13:37:22.103Z</time></trkpt><trkpt lat="44.9927997" lon="9.8336947"><ele>57.0</ele><time>2026-05-03T13:37:23.102Z</time></trkpt><trkpt lat="44.9929468" lon="9.8333211"><ele>57.0</ele><time>2026-05-03T13:37:24.103Z</time></trkpt><trkpt lat="44.993092" lon="9.8329377"><ele>57.0</ele><time>2026-05-03T13:37:25.103Z</time></trkpt><trkpt lat="44.9932363" lon="9.8325693"><ele>57.0</ele><time>2026-05-03T13:37:26.103Z</time></trkpt><trkpt lat="44.9933742" lon="9.832205"><ele>57.0</ele><time>2026-05-03T13:37:27.102Z</time></trkpt><trkpt lat="44.9935147" lon="9.8318315"><ele>57.0</ele><time>2026-05-03T13:37:28.103Z</time></trkpt><trkpt lat="44.9936495" lon="9.8314701"><ele>57.0</ele><time>2026-05-03T13:37:29.102Z</time></trkpt><trkpt lat="44.9937876" lon="9.8311127"><ele>57.0</ele><time>2026-05-03T13:37:30.102Z</time></trkpt><trkpt lat="44.9939264" lon="9.8307601"><ele>56.5</ele><time>2026-05-03T13:37:31.103Z</time></trkpt><trkpt lat="44.9940565" lon="9.8304139"><ele>56.0</ele><time>2026-05-03T13:37:32.102Z</time></trkpt><trkpt lat="44.9941925" lon="9.8300656"><ele>56.0</ele><time>2026-05-03T13:37:33.102Z</time></trkpt><trkpt lat="44.9943317" lon="9.8297054"><ele>56.0</ele><time>2026-05-03T13:37:34.102Z</time></trkpt><trkpt lat="44.9944717" lon="9.8293485"><ele>57.5</ele><time>2026-05-03T13:37:35.102Z</time></trkpt><trkpt lat="44.9946163" lon="9.8289862"><ele>59.0</ele><time>2026-05-03T13:37:36.103Z</time></trkpt><trkpt lat="44.994763" lon="9.8286247"><ele>58.5</ele><time>2026-05-03T13:37:37.102Z</time></trkpt><trkpt lat="44.9949203" lon="9.8282379"><ele>58.0</ele><time>2026-05-03T13:37:38.103Z</time></trkpt><trkpt lat="44.9950685" lon="9.8278643"><ele>57.5</ele><time>2026-05-03T13:37:39.102Z</time></trkpt><trkpt lat="44.9952146" lon="9.8274865"><ele>57.0</ele><time>2026-05-03T13:37:40.102Z</time></trkpt><trkpt lat="44.9953592" lon="9.8271109"><ele>56.0</ele><time>2026-05-03T13:37:41.102Z</time></trkpt><trkpt lat="44.995509" lon="9.8267337"><ele>55.0</ele><time>2026-05-03T13:37:42.102Z</time></trkpt><trkpt lat="44.9956559" lon="9.8263595"><ele>55.0</ele><time>2026-05-03T13:37:43.102Z</time></trkpt><trkpt lat="44.9958054" lon="9.8259791"><ele>55.0</ele><time>2026-05-03T13:37:44.102Z</time></trkpt><trkpt lat="44.9959531" lon="9.8255988"><ele>54.5</ele><time>2026-05-03T13:37:45.102Z</time></trkpt><trkpt lat="44.9960991" lon="9.8252188"><ele>54.0</ele><time>2026-05-03T13:37:46.102Z</time></trkpt><trkpt lat="44.9962453" lon="9.8248363"><ele>55.5</ele><time>2026-05-03T13:37:47.103Z</time></trkpt><trkpt lat="44.9963912" lon="9.8244556"><ele>57.0</ele><time>2026-05-03T13:37:48.103Z</time></trkpt><trkpt lat="44.996538" lon="9.824074"><ele>57.0</ele><time>2026-05-03T13:37:49.102Z</time></trkpt><trkpt lat="44.9966814" lon="9.8236962"><ele>57.0</ele><time>2026-05-03T13:37:50.102Z</time></trkpt><trkpt lat="44.9968364" lon="9.823307"><ele>57.0</ele><time>2026-05-03T13:37:51.103Z</time></trkpt><trkpt lat="44.9969831" lon="9.8229283"><ele>57.0</ele><time>2026-05-03T13:37:52.102Z</time></trkpt><trkpt lat="44.997129" lon="9.8225511"><ele>57.5</ele><time>2026-05-03T13:37:53.102Z</time></trkpt><trkpt lat="44.9972735" lon="9.8221731"><ele>58.0</ele><time>2026-05-03T13:37:54.102Z</time></trkpt><trkpt lat="44.9974228" lon="9.8217896"><ele>58.0</ele><time>2026-05-03T13:37:55.102Z</time></trkpt><trkpt lat="44.9975692" lon="9.8214206"><ele>58.0</ele><time>2026-05-03T13:37:56.103Z</time></trkpt><trkpt lat="44.9977098" lon="9.8210629"><ele>58.0</ele><time>2026-05-03T13:37:57.103Z</time></trkpt><trkpt lat="44.997852" lon="9.8207001"><ele>58.0</ele><time>2026-05-03T13:37:58.103Z</time></trkpt><trkpt lat="44.9979922" lon="9.8203444"><ele>58.5</ele><time>2026-05-03T13:37:59.103Z</time></trkpt><trkpt lat="44.9981321" lon="9.8199798"><ele>59.0</ele><time>2026-05-03T13:38:00.102Z</time></trkpt><trkpt lat="44.99827" lon="9.819621"><ele>58.5</ele><time>2026-05-03T13:38:01.103Z</time></trkpt><trkpt lat="44.9984062" lon="9.8192521"><ele>58.0</ele><time>2026-05-03T13:38:02.102Z</time></trkpt><trkpt lat="44.9985461" lon="9.8188809"><ele>58.0</ele><time>2026-05-03T13:38:03.102Z</time></trkpt><trkpt lat="44.9986923" lon="9.8185088"><ele>58.0</ele><time>2026-05-03T13:38:04.102Z</time></trkpt><trkpt lat="44.998838" lon="9.8181279"><ele>58.0</ele><time>2026-05-03T13:38:05.102Z</time></trkpt><trkpt lat="44.9989838" lon="9.8177464"><ele>58.0</ele><time>2026-05-03T13:38:06.102Z</time></trkpt><trkpt lat="44.9991277" lon="9.8173706"><ele>58.0</ele><time>2026-05-03T13:38:07.102Z</time></trkpt><trkpt lat="44.9992643" lon="9.8170146"><ele>58.0</ele><time>2026-05-03T13:38:08.102Z</time></trkpt><trkpt lat="44.9993968" lon="9.8166607"><ele>57.5</ele><time>2026-05-03T13:38:09.103Z</time></trkpt><trkpt lat="44.9995298" lon="9.8163154"><ele>57.0</ele><time>2026-05-03T13:38:10.103Z</time></trkpt><trkpt lat="44.99967" lon="9.8159629"><ele>57.0</ele><time>2026-05-03T13:38:11.102Z</time></trkpt><trkpt lat="44.9998024" lon="9.8156152"><ele>57.0</ele><time>2026-05-03T13:38:12.103Z</time></trkpt><trkpt lat="44.9999376" lon="9.8152606"><ele>57.5</ele><time>2026-05-03T13:38:13.102Z</time></trkpt><trkpt lat="45.0000843" lon="9.8149023"><ele>58.0</ele><time>2026-05-03T13:38:14.102Z</time></trkpt><trkpt lat="45.000232" lon="9.8145416"><ele>58.0</ele><time>2026-05-03T13:38:15.102Z</time></trkpt><trkpt lat="45.0003779" lon="9.8141808"><ele>58.0</ele><time>2026-05-03T13:38:16.103Z</time></trkpt><trkpt lat="45.0005253" lon="9.8138098"><ele>57.5</ele><time>2026-05-03T13:38:17.103Z</time></trkpt><trkpt lat="45.0006722" lon="9.813437"><ele>57.0</ele><time>2026-05-03T13:38:18.102Z</time></trkpt><trkpt lat="45.0008193" lon="9.8130632"><ele>56.0</ele><time>2026-05-03T13:38:19.103Z</time></trkpt><trkpt lat="45.0009658" lon="9.8126843"><ele>55.0</ele><time>2026-05-03T13:38:20.102Z</time></trkpt><trkpt lat="45.0011143" lon="9.8123024"><ele>55.0</ele><time>2026-05-03T13:38:21.102Z</time></trkpt><trkpt lat="45.0012654" lon="9.8119269"><ele>55.0</ele><time>2026-05-03T13:38:22.103Z</time></trkpt><trkpt lat="45.0014121" lon="9.8115513"><ele>55.0</ele><time>2026-05-03T13:38:23.103Z</time></trkpt><trkpt lat="45.0015585" lon="9.8111693"><ele>55.0</ele><time>2026-05-03T13:38:24.102Z</time></trkpt><trkpt lat="45.0017066" lon="9.8107925"><ele>55.0</ele><time>2026-05-03T13:38:25.103Z</time></trkpt><trkpt lat="45.0018555" lon="9.8104094"><ele>55.0</ele><time>2026-05-03T13:38:26.103Z</time></trkpt><trkpt lat="45.0020025" lon="9.8100227"><ele>55.0</ele><time>2026-05-03T13:38:27.103Z</time></trkpt><trkpt lat="45.0021487" lon="9.809644"><ele>55.0</ele><time>2026-05-03T13:38:28.103Z</time></trkpt><trkpt lat="45.0022911" lon="9.8092615"><ele>55.0</ele><time>2026-05-03T13:38:29.102Z</time></trkpt><trkpt lat="45.0024368" lon="9.8088841"><ele>55.0</ele><time>2026-05-03T13:38:30.102Z</time></trkpt><trkpt lat="45.0025836" lon="9.8085003"><ele>56.5</ele><time>2026-05-03T13:38:31.103Z</time></trkpt><trkpt lat="45.0027282" lon="9.8081259"><ele>58.0</ele><time>2026-05-03T13:38:32.102Z</time></trkpt><trkpt lat="45.0028717" lon="9.807753"><ele>57.0</ele><time>2026-05-03T13:38:33.103Z</time></trkpt><trkpt lat="45.0030156" lon="9.8073703"><ele>56.0</ele><time>2026-05-03T13:38:34.103Z</time></trkpt><trkpt lat="45.0031594" lon="9.8069852"><ele>55.5</ele><time>2026-05-03T13:38:35.103Z</time></trkpt><trkpt lat="45.0033021" lon="9.8066077"><ele>55.0</ele><time>2026-05-03T13:38:36.103Z</time></trkpt><trkpt lat="45.0034457" lon="9.8062302"><ele>55.0</ele><time>2026-05-03T13:38:37.103Z</time></trkpt><trkpt lat="45.0035947" lon="9.8058522"><ele>55.0</ele><time>2026-05-03T13:38:38.102Z</time></trkpt><trkpt lat="45.0037408" lon="9.8054693"><ele>55.5</ele><time>2026-05-03T13:38:39.103Z</time></trkpt><trkpt lat="45.0038871" lon="9.8050882"><ele>56.0</ele><time>2026-05-03T13:38:40.102Z</time></trkpt><trkpt lat="45.0040315" lon="9.8047154"><ele>56.0</ele><time>2026-05-03T13:38:41.103Z</time></trkpt><trkpt lat="45.0041774" lon="9.8043328"><ele>56.0</ele><time>2026-05-03T13:38:42.102Z</time></trkpt><trkpt lat="45.0043233" lon="9.8039533"><ele>56.0</ele><time>2026-05-03T13:38:43.103Z</time></trkpt><trkpt lat="45.0044691" lon="9.8035834"><ele>56.0</ele><time>2026-05-03T13:38:44.102Z</time></trkpt><trkpt lat="45.0046158" lon="9.8032022"><ele>56.5</ele><time>2026-05-03T13:38:45.102Z</time></trkpt><trkpt lat="45.0047611" lon="9.8028245"><ele>57.0</ele><time>2026-05-03T13:38:46.103Z</time></trkpt><trkpt lat="45.0049094" lon="9.8024397"><ele>57.5</ele><time>2026-05-03T13:38:47.102Z</time></trkpt><trkpt lat="45.0050555" lon="9.8020592"><ele>58.0</ele><time>2026-05-03T13:38:48.102Z</time></trkpt><trkpt lat="45.0052047" lon="9.8016831"><ele>58.0</ele><time>2026-05-03T13:38:49.102Z</time></trkpt><trkpt lat="45.0053557" lon="9.801305"><ele>58.0</ele><time>2026-05-03T13:38:50.102Z</time></trkpt><trkpt lat="45.0055156" lon="9.8009355"><ele>58.0</ele><time>2026-05-03T13:38:51.103Z</time></trkpt><trkpt lat="45.0056789" lon="9.8005612"><ele>58.0</ele><time>2026-05-03T13:38:52.102Z</time></trkpt><trkpt lat="45.0058397" lon="9.8001929"><ele>59.0</ele><time>2026-05-03T13:38:53.103Z</time></trkpt><trkpt lat="45.0060015" lon="9.7998249"><ele>60.0</ele><time>2026-05-03T13:38:54.103Z</time></trkpt><trkpt lat="45.0061677" lon="9.7994636"><ele>60.0</ele><time>2026-05-03T13:38:55.102Z</time></trkpt><trkpt lat="45.0063317" lon="9.7990957"><ele>60.0</ele><time>2026-05-03T13:38:56.103Z</time></trkpt><trkpt lat="45.0064945" lon="9.7987317"><ele>58.5</ele><time>2026-05-03T13:38:57.103Z</time></trkpt><trkpt lat="45.0066617" lon="9.7983635"><ele>57.0</ele><time>2026-05-03T13:38:58.102Z</time></trkpt><trkpt lat="45.0068311" lon="9.7980026"><ele>59.0</ele><time>2026-05-03T13:38:59.102Z</time></trkpt><trkpt lat="45.0069982" lon="9.7976437"><ele>61.0</ele><time>2026-05-03T13:39:00.103Z</time></trkpt><trkpt lat="45.0071707" lon="9.7972869"><ele>61.0</ele><time>2026-05-03T13:39:01.103Z</time></trkpt><trkpt lat="45.0073418" lon="9.7969405"><ele>61.0</ele><time>2026-05-03T13:39:02.103Z</time></trkpt><trkpt lat="45.0075182" lon="9.7965821"><ele>60.0</ele><time>2026-05-03T13:39:03.102Z</time></trkpt><trkpt lat="45.0076932" lon="9.7962345"><ele>59.0</ele><time>2026-05-03T13:39:04.103Z</time></trkpt><trkpt lat="45.0078665" lon="9.7958752"><ele>58.0</ele><time>2026-05-03T13:39:05.103Z</time></trkpt><trkpt lat="45.0080439" lon="9.7955188"><ele>57.0</ele><time>2026-05-03T13:39:06.102Z</time></trkpt><trkpt lat="45.0082275" lon="9.7951719"><ele>57.0</ele><time>2026-05-03T13:39:07.103Z</time></trkpt><trkpt lat="45.0084107" lon="9.7948271"><ele>57.0</ele><time>2026-05-03T13:39:08.103Z</time></trkpt><trkpt lat="45.0085953" lon="9.7944843"><ele>58.5</ele><time>2026-05-03T13:39:09.103Z</time></trkpt><trkpt lat="45.00878" lon="9.7941417"><ele>60.0</ele><time>2026-05-03T13:39:10.103Z</time></trkpt><trkpt lat="45.0089689" lon="9.7937984"><ele>60.0</ele><time>2026-05-03T13:39:11.103Z</time></trkpt><trkpt lat="45.009155" lon="9.7934544"><ele>60.0</ele><time>2026-05-03T13:39:12.103Z</time></trkpt><trkpt lat="45.0093412" lon="9.7931098"><ele>59.5</ele><time>2026-05-03T13:39:13.103Z</time></trkpt><trkpt lat="45.0095289" lon="9.792769"><ele>59.0</ele><time>2026-05-03T13:39:14.102Z</time></trkpt><trkpt lat="45.0097221" lon="9.7924311"><ele>59.5</ele><time>2026-05-03T13:39:15.103Z</time></trkpt><trkpt lat="45.009914" lon="9.7920945"><ele>60.0</ele><time>2026-05-03T13:39:16.102Z</time></trkpt><trkpt lat="45.0101065" lon="9.7917588"><ele>60.0</ele><time>2026-05-03T13:39:17.102Z</time></trkpt><trkpt lat="45.0103032" lon="9.7914257"><ele>60.0</ele><time>2026-05-03T13:39:18.102Z</time></trkpt><trkpt lat="45.0105013" lon="9.7910903"><ele>60.0</ele><time>2026-05-03T13:39:19.103Z</time></trkpt><trkpt lat="45.0107089" lon="9.7907658"><ele>60.0</ele><time>2026-05-03T13:39:20.103Z</time></trkpt><trkpt lat="45.0109139" lon="9.7904435"><ele>59.0</ele><time>2026-05-03T13:39:21.103Z</time></trkpt><trkpt lat="45.0111175" lon="9.7901218"><ele>58.0</ele><time>2026-05-03T13:39:22.103Z</time></trkpt><trkpt lat="45.0113194" lon="9.7898119"><ele>58.0</ele><time>2026-05-03T13:39:23.103Z</time></trkpt><trkpt lat="45.0115285" lon="9.7894971"><ele>58.0</ele><time>2026-05-03T13:39:24.102Z</time></trkpt><trkpt lat="45.0117412" lon="9.7891891"><ele>58.0</ele><time>2026-05-03T13:39:25.103Z</time></trkpt><trkpt lat="45.0119565" lon="9.788881"><ele>58.0</ele><time>2026-05-03T13:39:26.103Z</time></trkpt><trkpt lat="45.0121698" lon="9.7885771"><ele>58.0</ele><time>2026-05-03T13:39:27.102Z</time></trkpt><trkpt lat="45.0123835" lon="9.7882722"><ele>58.0</ele><time>2026-05-03T13:39:28.102Z</time></trkpt><trkpt lat="45.0125993" lon="9.7879691"><ele>58.0</ele><time>2026-05-03T13:39:29.103Z</time></trkpt><trkpt lat="45.012815" lon="9.7876668"><ele>58.0</ele><time>2026-05-03T13:39:30.103Z</time></trkpt><trkpt lat="45.0130331" lon="9.7873681"><ele>58.0</ele><time>2026-05-03T13:39:31.1Z</time></trkpt><trkpt lat="45.0132509" lon="9.7870676"><ele>58.0</ele><time>2026-05-03T13:39:32.103Z</time></trkpt><trkpt lat="45.0134722" lon="9.7867668"><ele>57.5</ele><time>2026-05-03T13:39:33.103Z</time></trkpt><trkpt lat="45.0136983" lon="9.7864666"><ele>57.0</ele><time>2026-05-03T13:39:34.102Z</time></trkpt><trkpt lat="45.0139201" lon="9.7861705"><ele>57.5</ele><time>2026-05-03T13:39:35.103Z</time></trkpt><trkpt lat="45.014145" lon="9.7858753"><ele>58.0</ele><time>2026-05-03T13:39:36.103Z</time></trkpt><trkpt lat="45.0143684" lon="9.7855814"><ele>58.0</ele><time>2026-05-03T13:39:37.102Z</time></trkpt><trkpt lat="45.0145931" lon="9.7852845"><ele>58.0</ele><time>2026-05-03T13:39:38.102Z</time></trkpt><trkpt lat="45.0148221" lon="9.7849959"><ele>59.0</ele><time>2026-05-03T13:39:39.102Z</time></trkpt><trkpt lat="45.0150536" lon="9.7847115"><ele>60.0</ele><time>2026-05-03T13:39:40.102Z</time></trkpt><trkpt lat="45.015285" lon="9.78443"><ele>59.5</ele><time>2026-05-03T13:39:41.103Z</time></trkpt><trkpt lat="45.0155176" lon="9.7841471"><ele>59.0</ele><time>2026-05-03T13:39:42.102Z</time></trkpt><trkpt lat="45.0157499" lon="9.7838686"><ele>58.0</ele><time>2026-05-03T13:39:43.103Z</time></trkpt><trkpt lat="45.0159851" lon="9.7835892"><ele>57.0</ele><time>2026-05-03T13:39:44.102Z</time></trkpt><trkpt lat="45.0162229" lon="9.7833186"><ele>57.0</ele><time>2026-05-03T13:39:45.103Z</time></trkpt><trkpt lat="45.0164701" lon="9.783045"><ele>57.0</ele><time>2026-05-03T13:39:46.103Z</time></trkpt><trkpt lat="45.0167118" lon="9.7827847"><ele>57.0</ele><time>2026-05-03T13:39:47.103Z</time></trkpt><trkpt lat="45.0169533" lon="9.782522"><ele>57.0</ele><time>2026-05-03T13:39:48.103Z</time></trkpt><trkpt lat="45.0171944" lon="9.7822641"><ele>57.0</ele><time>2026-05-03T13:39:49.102Z</time></trkpt><trkpt lat="45.0174453" lon="9.7820062"><ele>57.0</ele><time>2026-05-03T13:39:50.102Z</time></trkpt><trkpt lat="45.017692" lon="9.7817559"><ele>57.0</ele><time>2026-05-03T13:39:51.103Z</time></trkpt><trkpt lat="45.0179451" lon="9.7815108"><ele>57.0</ele><time>2026-05-03T13:39:52.103Z</time></trkpt><trkpt lat="45.0181978" lon="9.7812653"><ele>57.0</ele><time>2026-05-03T13:39:53.103Z</time></trkpt><trkpt lat="45.0184509" lon="9.7810156"><ele>57.0</ele><time>2026-05-03T13:39:54.103Z</time></trkpt><trkpt lat="45.0187048" lon="9.7807662"><ele>57.0</ele><time>2026-05-03T13:39:55.102Z</time></trkpt><trkpt lat="45.0189527" lon="9.7805222"><ele>57.0</ele><time>2026-05-03T13:39:56.102Z</time></trkpt><trkpt lat="45.0192077" lon="9.7802722"><ele>57.0</ele><time>2026-05-03T13:39:57.102Z</time></trkpt><trkpt lat="45.0194519" lon="9.7800276"><ele>57.0</ele><time>2026-05-03T13:39:58.103Z</time></trkpt><trkpt lat="45.0197039" lon="9.7797809"><ele>57.0</ele><time>2026-05-03T13:39:59.103Z</time></trkpt><trkpt lat="45.0199537" lon="9.7795392"><ele>57.0</ele><time>2026-05-03T13:40:00.102Z</time></trkpt><trkpt lat="45.0202045" lon="9.7792911"><ele>58.0</ele><time>2026-05-03T13:40:01.103Z</time></trkpt><trkpt lat="45.0204546" lon="9.779043"><ele>59.0</ele><time>2026-05-03T13:40:02.102Z</time></trkpt><trkpt lat="45.0207039" lon="9.7787943"><ele>59.0</ele><time>2026-05-03T13:40:03.102Z</time></trkpt><trkpt lat="45.0209527" lon="9.7785404"><ele>59.0</ele><time>2026-05-03T13:40:04.102Z</time></trkpt><trkpt lat="45.0212104" lon="9.7782959"><ele>58.5</ele><time>2026-05-03T13:40:05.102Z</time></trkpt><trkpt lat="45.0214596" lon="9.7780514"><ele>58.0</ele><time>2026-05-03T13:40:06.102Z</time></trkpt><trkpt lat="45.0217114" lon="9.7778064"><ele>57.5</ele><time>2026-05-03T13:40:07.103Z</time></trkpt><trkpt lat="45.0219604" lon="9.7775611"><ele>57.0</ele><time>2026-05-03T13:40:08.102Z</time></trkpt><trkpt lat="45.022214" lon="9.7773163"><ele>57.0</ele><time>2026-05-03T13:40:09.102Z</time></trkpt><trkpt lat="45.0224648" lon="9.7770711"><ele>57.0</ele><time>2026-05-03T13:40:10.103Z</time></trkpt><trkpt lat="45.0227143" lon="9.7768244"><ele>57.0</ele><time>2026-05-03T13:40:11.102Z</time></trkpt><trkpt lat="45.0229674" lon="9.7765795"><ele>57.0</ele><time>2026-05-03T13:40:12.102Z</time></trkpt><trkpt lat="45.0232224" lon="9.7763316"><ele>56.5</ele><time>2026-05-03T13:40:13.103Z</time></trkpt><trkpt lat="45.0234749" lon="9.7760842"><ele>56.0</ele><time>2026-05-03T13:40:14.102Z</time></trkpt><trkpt lat="45.023726" lon="9.7758348"><ele>55.0</ele><time>2026-05-03T13:40:15.102Z</time></trkpt><trkpt lat="45.0239731" lon="9.7755833"><ele>54.0</ele><time>2026-05-03T13:40:16.102Z</time></trkpt><trkpt lat="45.0242258" lon="9.7753326"><ele>54.5</ele><time>2026-05-03T13:40:17.103Z</time></trkpt><trkpt lat="45.024478" lon="9.7750894"><ele>55.0</ele><time>2026-05-03T13:40:18.103Z</time></trkpt><trkpt lat="45.0247287" lon="9.7748419"><ele>55.0</ele><time>2026-05-03T13:40:19.102Z</time></trkpt><trkpt lat="45.0249822" lon="9.774599"><ele>55.0</ele><time>2026-05-03T13:40:20.102Z</time></trkpt><trkpt lat="45.0252339" lon="9.774348"><ele>55.0</ele><time>2026-05-03T13:40:21.103Z</time></trkpt><trkpt lat="45.0254877" lon="9.7740947"><ele>55.0</ele><time>2026-05-03T13:40:22.103Z</time></trkpt><trkpt lat="45.0257412" lon="9.7738445"><ele>55.5</ele><time>2026-05-03T13:40:23.102Z</time></trkpt><trkpt lat="45.0259928" lon="9.7735932"><ele>56.0</ele><time>2026-05-03T13:40:24.103Z</time></trkpt><trkpt lat="45.0262427" lon="9.7733433"><ele>55.5</ele><time>2026-05-03T13:40:25.103Z</time></trkpt><trkpt lat="45.0264905" lon="9.7730909"><ele>55.0</ele><time>2026-05-03T13:40:26.103Z</time></trkpt><trkpt lat="45.0267383" lon="9.7728362"><ele>54.5</ele><time>2026-05-03T13:40:27.103Z</time></trkpt><trkpt lat="45.0269849" lon="9.7725782"><ele>54.0</ele><time>2026-05-03T13:40:28.103Z</time></trkpt><trkpt lat="45.0272342" lon="9.7723329"><ele>53.5</ele><time>2026-05-03T13:40:29.102Z</time></trkpt><trkpt lat="45.0274824" lon="9.7720896"><ele>53.0</ele><time>2026-05-03T13:40:30.103Z</time></trkpt><trkpt lat="45.0277313" lon="9.7718465"><ele>53.0</ele><time>2026-05-03T13:40:31.103Z</time></trkpt><trkpt lat="45.0279827" lon="9.7716"><ele>53.0</ele><time>2026-05-03T13:40:32.102Z</time></trkpt><trkpt lat="45.0282393" lon="9.7713557"><ele>54.0</ele><time>2026-05-03T13:40:33.102Z</time></trkpt><trkpt lat="45.0284929" lon="9.771111"><ele>55.0</ele><time>2026-05-03T13:40:34.103Z</time></trkpt><trkpt lat="45.0287475" lon="9.7708589"><ele>55.0</ele><time>2026-05-03T13:40:35.103Z</time></trkpt><trkpt lat="45.0289929" lon="9.7706083"><ele>55.0</ele><time>2026-05-03T13:40:36.102Z</time></trkpt><trkpt lat="45.0292368" lon="9.7703544"><ele>54.5</ele><time>2026-05-03T13:40:37.103Z</time></trkpt><trkpt lat="45.0294825" lon="9.7701035"><ele>54.0</ele><time>2026-05-03T13:40:38.103Z</time></trkpt><trkpt lat="45.0297363" lon="9.7698524"><ele>53.5</ele><time>2026-05-03T13:40:39.103Z</time></trkpt><trkpt lat="45.0299877" lon="9.7696048"><ele>53.0</ele><time>2026-05-03T13:40:40.102Z</time></trkpt><trkpt lat="45.0302413" lon="9.7693648"><ele>53.5</ele><time>2026-05-03T13:40:41.103Z</time></trkpt><trkpt lat="45.0304908" lon="9.7691279"><ele>54.0</ele><time>2026-05-03T13:40:42.103Z</time></trkpt><trkpt lat="45.0307438" lon="9.7688875"><ele>54.0</ele><time>2026-05-03T13:40:43.102Z</time></trkpt><trkpt lat="45.0309978" lon="9.7686469"><ele>54.0</ele><time>2026-05-03T13:40:44.103Z</time></trkpt><trkpt lat="45.0312485" lon="9.768402"><ele>54.0</ele><time>2026-05-03T13:40:45.103Z</time></trkpt><trkpt lat="45.0314949" lon="9.7681567"><ele>54.0</ele><time>2026-05-03T13:40:46.103Z</time></trkpt><trkpt lat="45.031731" lon="9.7679183"><ele>53.5</ele><time>2026-05-03T13:40:47.103Z</time></trkpt><trkpt lat="45.0319587" lon="9.7676843"><ele>53.0</ele><time>2026-05-03T13:40:48.103Z</time></trkpt><trkpt lat="45.0321803" lon="9.7674597"><ele>53.0</ele><time>2026-05-03T13:40:49.103Z</time></trkpt><trkpt lat="45.0323962" lon="9.7672411"><ele>53.0</ele><time>2026-05-03T13:40:50.103Z</time></trkpt><trkpt lat="45.0326175" lon="9.7670195"><ele>53.0</ele><time>2026-05-03T13:40:51.103Z</time></trkpt><trkpt lat="45.0328492" lon="9.7667965"><ele>53.0</ele><time>2026-05-03T13:40:52.103Z</time></trkpt><trkpt lat="45.0330842" lon="9.7665731"><ele>54.0</ele><time>2026-05-03T13:40:53.102Z</time></trkpt><trkpt lat="45.0333295" lon="9.7663388"><ele>55.0</ele><time>2026-05-03T13:40:54.102Z</time></trkpt><trkpt lat="45.0335839" lon="9.7661035"><ele>55.0</ele><time>2026-05-03T13:40:55.103Z</time></trkpt><trkpt lat="45.0338316" lon="9.7658651"><ele>55.0</ele><time>2026-05-03T13:40:56.103Z</time></trkpt><trkpt lat="45.0340815" lon="9.7656277"><ele>55.0</ele><time>2026-05-03T13:40:57.103Z</time></trkpt><trkpt lat="45.0343253" lon="9.7653851"><ele>55.0</ele><time>2026-05-03T13:40:58.103Z</time></trkpt><trkpt lat="45.0345691" lon="9.7651423"><ele>54.5</ele><time>2026-05-03T13:40:59.102Z</time></trkpt><trkpt lat="45.0348107" lon="9.7649028"><ele>54.0</ele><time>2026-05-03T13:41:00.103Z</time></trkpt><trkpt lat="45.035047" lon="9.7646664"><ele>54.0</ele><time>2026-05-03T13:41:01.102Z</time></trkpt><trkpt lat="45.0352871" lon="9.7644275"><ele>54.0</ele><time>2026-05-03T13:41:02.103Z</time></trkpt><trkpt lat="45.0355202" lon="9.7641874"><ele>53.5</ele><time>2026-05-03T13:41:03.102Z</time></trkpt><trkpt lat="45.0357562" lon="9.7639482"><ele>53.0</ele><time>2026-05-03T13:41:04.102Z</time></trkpt><trkpt lat="45.0359881" lon="9.763716"><ele>52.0</ele><time>2026-05-03T13:41:05.103Z</time></trkpt><trkpt lat="45.0362189" lon="9.763485"><ele>51.0</ele><time>2026-05-03T13:41:06.103Z</time></trkpt><trkpt lat="45.0364546" lon="9.7632523"><ele>51.0</ele><time>2026-05-03T13:41:07.103Z</time></trkpt><trkpt lat="45.0366909" lon="9.7630144"><ele>51.0</ele><time>2026-05-03T13:41:08.103Z</time></trkpt><trkpt lat="45.0369282" lon="9.7627849"><ele>50.5</ele><time>2026-05-03T13:41:09.103Z</time></trkpt><trkpt lat="45.0371661" lon="9.7625532"><ele>50.0</ele><time>2026-05-03T13:41:10.102Z</time></trkpt><trkpt lat="45.0374121" lon="9.7623112"><ele>50.0</ele><time>2026-05-03T13:41:11.102Z</time></trkpt><trkpt lat="45.0376569" lon="9.7620831"><ele>50.0</ele><time>2026-05-03T13:41:12.103Z</time></trkpt><trkpt lat="45.0379041" lon="9.7618458"><ele>50.0</ele><time>2026-05-03T13:41:13.102Z</time></trkpt><trkpt lat="45.0381555" lon="9.7616028"><ele>50.0</ele><time>2026-05-03T13:41:14.103Z</time></trkpt><trkpt lat="45.0384131" lon="9.7613541"><ele>50.5</ele><time>2026-05-03T13:41:15.102Z</time></trkpt><trkpt lat="45.0386666" lon="9.7611122"><ele>51.0</ele><time>2026-05-03T13:41:16.103Z</time></trkpt><trkpt lat="45.0389194" lon="9.7608645"><ele>50.0</ele><time>2026-05-03T13:41:17.103Z</time></trkpt><trkpt lat="45.0391655" lon="9.760621"><ele>49.0</ele><time>2026-05-03T13:41:18.102Z</time></trkpt><trkpt lat="45.0394166" lon="9.7603824"><ele>49.0</ele><time>2026-05-03T13:41:19.102Z</time></trkpt><trkpt lat="45.0396606" lon="9.7601402"><ele>49.0</ele><time>2026-05-03T13:41:20.103Z</time></trkpt><trkpt lat="45.039904" lon="9.7598962"><ele>47.0</ele><time>2026-05-03T13:41:21.101Z</time></trkpt><trkpt lat="45.0401488" lon="9.7596541"><ele>45.0</ele><time>2026-05-03T13:41:22.103Z</time></trkpt><trkpt lat="45.040393" lon="9.759412"><ele>45.5</ele><time>2026-05-03T13:41:23.103Z</time></trkpt><trkpt lat="45.0406323" lon="9.7591679"><ele>46.0</ele><time>2026-05-03T13:41:24.103Z</time></trkpt><trkpt lat="45.0408746" lon="9.7589306"><ele>45.5</ele><time>2026-05-03T13:41:25.102Z</time></trkpt><trkpt lat="45.0411176" lon="9.7586872"><ele>45.0</ele><time>2026-05-03T13:41:26.103Z</time></trkpt><trkpt lat="45.0413597" lon="9.7584435"><ele>45.0</ele><time>2026-05-03T13:41:27.102Z</time></trkpt><trkpt lat="45.0416065" lon="9.7581991"><ele>45.0</ele><time>2026-05-03T13:41:28.103Z</time></trkpt><trkpt lat="45.0418511" lon="9.7579549"><ele>45.5</ele><time>2026-05-03T13:41:29.102Z</time></trkpt><trkpt lat="45.0420991" lon="9.7577093"><ele>46.0</ele><time>2026-05-03T13:41:30.103Z</time></trkpt><trkpt lat="45.0423518" lon="9.7574602"><ele>46.0</ele><time>2026-05-03T13:41:31.103Z</time></trkpt><trkpt lat="45.0426022" lon="9.7572166"><ele>46.0</ele><time>2026-05-03T13:41:32.103Z</time></trkpt><trkpt lat="45.042852" lon="9.7569673"><ele>45.5</ele><time>2026-05-03T13:41:33.103Z</time></trkpt><trkpt lat="45.0431032" lon="9.7567216"><ele>45.0</ele><time>2026-05-03T13:41:34.103Z</time></trkpt><trkpt lat="45.0433517" lon="9.7564788"><ele>45.0</ele><time>2026-05-03T13:41:35.103Z</time></trkpt><trkpt lat="45.0436021" lon="9.7562292"><ele>45.0</ele><time>2026-05-03T13:41:36.101Z</time></trkpt><trkpt lat="45.0438554" lon="9.7559785"><ele>45.0</ele><time>2026-05-03T13:41:37.103Z</time></trkpt><trkpt lat="45.0441045" lon="9.7557307"><ele>45.0</ele><time>2026-05-03T13:41:38.102Z</time></trkpt><trkpt lat="45.044355" lon="9.7554846"><ele>45.0</ele><time>2026-05-03T13:41:39.103Z</time></trkpt><trkpt lat="45.0446076" lon="9.7552313"><ele>45.0</ele><time>2026-05-03T13:41:40.103Z</time></trkpt><trkpt lat="45.0448622" lon="9.7549722"><ele>45.5</ele><time>2026-05-03T13:41:41.102Z</time></trkpt><trkpt lat="45.0451128" lon="9.7547178"><ele>46.0</ele><time>2026-05-03T13:41:42.102Z</time></trkpt><trkpt lat="45.0453677" lon="9.7544644"><ele>45.5</ele><time>2026-05-03T13:41:43.103Z</time></trkpt><trkpt lat="45.0456229" lon="9.7542141"><ele>45.0</ele><time>2026-05-03T13:41:44.103Z</time></trkpt><trkpt lat="45.0458794" lon="9.7539524"><ele>45.0</ele><time>2026-05-03T13:41:45.102Z</time></trkpt><trkpt lat="45.0461294" lon="9.7536893"><ele>45.0</ele><time>2026-05-03T13:41:46.103Z</time></trkpt><trkpt lat="45.0463835" lon="9.7534325"><ele>45.0</ele><time>2026-05-03T13:41:47.103Z</time></trkpt><trkpt lat="45.0466434" lon="9.7531664"><ele>45.0</ele><time>2026-05-03T13:41:48.103Z</time></trkpt><trkpt lat="45.0469022" lon="9.7529051"><ele>45.0</ele><time>2026-05-03T13:41:49.103Z</time></trkpt><trkpt lat="45.0471609" lon="9.7526491"><ele>45.0</ele><time>2026-05-03T13:41:50.102Z</time></trkpt><trkpt lat="45.047416" lon="9.7523985"><ele>45.5</ele><time>2026-05-03T13:41:51.103Z</time></trkpt><trkpt lat="45.0476751" lon="9.752143"><ele>46.0</ele><time>2026-05-03T13:41:52.103Z</time></trkpt><trkpt lat="45.0479313" lon="9.7518976"><ele>46.0</ele><time>2026-05-03T13:41:53.102Z</time></trkpt><trkpt lat="45.0481916" lon="9.7516434"><ele>46.0</ele><time>2026-05-03T13:41:54.103Z</time></trkpt><trkpt lat="45.0484411" lon="9.7513893"><ele>45.5</ele><time>2026-05-03T13:41:55.101Z</time></trkpt><trkpt lat="45.048696" lon="9.7511343"><ele>45.0</ele><time>2026-05-03T13:41:56.102Z</time></trkpt><trkpt lat="45.0489465" lon="9.7508795"><ele>45.0</ele><time>2026-05-03T13:41:57.102Z</time></trkpt><trkpt lat="45.0491964" lon="9.7506271"><ele>45.0</ele><time>2026-05-03T13:41:58.102Z</time></trkpt><trkpt lat="45.0494513" lon="9.7503707"><ele>44.0</ele><time>2026-05-03T13:41:59.102Z</time></trkpt><trkpt lat="45.0497049" lon="9.750114"><ele>43.0</ele><time>2026-05-03T13:42:00.103Z</time></trkpt><trkpt lat="45.0499579" lon="9.7498618"><ele>44.0</ele><time>2026-05-03T13:42:01.103Z</time></trkpt><trkpt lat="45.050216" lon="9.7496079"><ele>45.0</ele><time>2026-05-03T13:42:02.102Z</time></trkpt><trkpt lat="45.050472" lon="9.7493524"><ele>45.0</ele><time>2026-05-03T13:42:03.103Z</time></trkpt><trkpt lat="45.0507317" lon="9.7490946"><ele>45.0</ele><time>2026-05-03T13:42:04.102Z</time></trkpt><trkpt lat="45.0509915" lon="9.7488373"><ele>45.0</ele><time>2026-05-03T13:42:05.103Z</time></trkpt><trkpt lat="45.0512528" lon="9.7485778"><ele>45.0</ele><time>2026-05-03T13:42:06.103Z</time></trkpt><trkpt lat="45.051515" lon="9.7483238"><ele>46.0</ele><time>2026-05-03T13:42:07.102Z</time></trkpt><trkpt lat="45.0517795" lon="9.7480641"><ele>47.0</ele><time>2026-05-03T13:42:08.102Z</time></trkpt><trkpt lat="45.0520453" lon="9.7478058"><ele>46.5</ele><time>2026-05-03T13:42:09.102Z</time></trkpt><trkpt lat="45.0523036" lon="9.7475453"><ele>46.0</ele><time>2026-05-03T13:42:10.103Z</time></trkpt><trkpt lat="45.05257" lon="9.7472854"><ele>47.0</ele><time>2026-05-03T13:42:11.103Z</time></trkpt><trkpt lat="45.05284" lon="9.7470262"><ele>48.0</ele><time>2026-05-03T13:42:12.102Z</time></trkpt><trkpt lat="45.0531091" lon="9.746764"><ele>47.5</ele><time>2026-05-03T13:42:13.103Z</time></trkpt><trkpt lat="45.0533876" lon="9.7464969"><ele>47.0</ele><time>2026-05-03T13:42:14.103Z</time></trkpt><trkpt lat="45.0536497" lon="9.7462406"><ele>46.5</ele><time>2026-05-03T13:42:15.103Z</time></trkpt><trkpt lat="45.0539163" lon="9.745982"><ele>46.0</ele><time>2026-05-03T13:42:16.102Z</time></trkpt><trkpt lat="45.0541774" lon="9.745718"><ele>46.0</ele><time>2026-05-03T13:42:17.103Z</time></trkpt><trkpt lat="45.054448" lon="9.7454498"><ele>46.0</ele><time>2026-05-03T13:42:18.102Z</time></trkpt><trkpt lat="45.0547146" lon="9.7451925"><ele>46.0</ele><time>2026-05-03T13:42:19.102Z</time></trkpt><trkpt lat="45.0549775" lon="9.7449294"><ele>46.0</ele><time>2026-05-03T13:42:20.103Z</time></trkpt><trkpt lat="45.0552435" lon="9.744673"><ele>46.0</ele><time>2026-05-03T13:42:21.103Z</time></trkpt><trkpt lat="45.0555065" lon="9.7444131"><ele>46.0</ele><time>2026-05-03T13:42:22.103Z</time></trkpt><trkpt lat="45.0557717" lon="9.7441502"><ele>46.0</ele><time>2026-05-03T13:42:23.103Z</time></trkpt><trkpt lat="45.056038" lon="9.7438869"><ele>46.0</ele><time>2026-05-03T13:42:24.103Z</time></trkpt><trkpt lat="45.0563046" lon="9.7436193"><ele>45.5</ele><time>2026-05-03T13:42:25.103Z</time></trkpt><trkpt lat="45.0565691" lon="9.7433547"><ele>45.0</ele><time>2026-05-03T13:42:26.103Z</time></trkpt><trkpt lat="45.0568387" lon="9.7430873"><ele>45.0</ele><time>2026-05-03T13:42:27.103Z</time></trkpt><trkpt lat="45.0571133" lon="9.7428163"><ele>45.0</ele><time>2026-05-03T13:42:28.103Z</time></trkpt><trkpt lat="45.0573808" lon="9.7425485"><ele>46.5</ele><time>2026-05-03T13:42:29.102Z</time></trkpt><trkpt lat="45.0576529" lon="9.7422909"><ele>48.0</ele><time>2026-05-03T13:42:30.102Z</time></trkpt><trkpt lat="45.0579169" lon="9.7420235"><ele>47.0</ele><time>2026-05-03T13:42:31.103Z</time></trkpt><trkpt lat="45.0581801" lon="9.7417574"><ele>46.0</ele><time>2026-05-03T13:42:32.103Z</time></trkpt><trkpt lat="45.0584389" lon="9.7415006"><ele>46.0</ele><time>2026-05-03T13:42:33.103Z</time></trkpt><trkpt lat="45.0586923" lon="9.7412445"><ele>46.0</ele><time>2026-05-03T13:42:34.103Z</time></trkpt><trkpt lat="45.0589506" lon="9.740996"><ele>46.0</ele><time>2026-05-03T13:42:35.102Z</time></trkpt><trkpt lat="45.0592092" lon="9.7407509"><ele>46.0</ele><time>2026-05-03T13:42:36.103Z</time></trkpt><trkpt lat="45.059469" lon="9.740506"><ele>46.0</ele><time>2026-05-03T13:42:37.102Z</time></trkpt><trkpt lat="45.0597255" lon="9.7402661"><ele>46.0</ele><time>2026-05-03T13:42:38.102Z</time></trkpt><trkpt lat="45.0599788" lon="9.7400329"><ele>46.5</ele><time>2026-05-03T13:42:39.103Z</time></trkpt><trkpt lat="45.0602301" lon="9.7397969"><ele>47.0</ele><time>2026-05-03T13:42:40.102Z</time></trkpt><trkpt lat="45.0604849" lon="9.7395723"><ele>45.5</ele><time>2026-05-03T13:42:41.102Z</time></trkpt><trkpt lat="45.0607377" lon="9.7393304"><ele>44.0</ele><time>2026-05-03T13:42:42.103Z</time></trkpt><trkpt lat="45.0609914" lon="9.739091"><ele>48.0</ele><time>2026-05-03T13:42:43.103Z</time></trkpt><trkpt lat="45.0612508" lon="9.7388409"><ele>52.0</ele><time>2026-05-03T13:42:44.102Z</time></trkpt><trkpt lat="45.0615131" lon="9.7385877"><ele>53.5</ele><time>2026-05-03T13:42:45.102Z</time></trkpt><trkpt lat="45.0617787" lon="9.7383299"><ele>55.0</ele><time>2026-05-03T13:42:46.103Z</time></trkpt><trkpt lat="45.0620339" lon="9.7380728"><ele>55.0</ele><time>2026-05-03T13:42:47.103Z</time></trkpt><trkpt lat="45.0622945" lon="9.7378133"><ele>55.0</ele><time>2026-05-03T13:42:48.102Z</time></trkpt><trkpt lat="45.0625586" lon="9.7375594"><ele>53.5</ele><time>2026-05-03T13:42:49.103Z</time></trkpt><trkpt lat="45.0628238" lon="9.7372985"><ele>52.0</ele><time>2026-05-03T13:42:50.103Z</time></trkpt><trkpt lat="45.0630888" lon="9.7370348"><ele>50.5</ele><time>2026-05-03T13:42:51.102Z</time></trkpt><trkpt lat="45.0633568" lon="9.7367667"><ele>49.0</ele><time>2026-05-03T13:42:52.102Z</time></trkpt><trkpt lat="45.0636234" lon="9.7365019"><ele>49.0</ele><time>2026-05-03T13:42:53.103Z</time></trkpt><trkpt lat="45.0638966" lon="9.7362343"><ele>49.0</ele><time>2026-05-03T13:42:54.102Z</time></trkpt><trkpt lat="45.0641639" lon="9.7359716"><ele>48.5</ele><time>2026-05-03T13:42:55.103Z</time></trkpt><trkpt lat="45.0644335" lon="9.7357044"><ele>48.0</ele><time>2026-05-03T13:42:56.103Z</time></trkpt><trkpt lat="45.0647038" lon="9.7354416"><ele>44.5</ele><time>2026-05-03T13:42:57.103Z</time></trkpt><trkpt lat="45.0649693" lon="9.7351735"><ele>41.0</ele><time>2026-05-03T13:42:58.103Z</time></trkpt><trkpt lat="45.0652364" lon="9.7349043"><ele>41.0</ele><time>2026-05-03T13:42:59.103Z</time></trkpt><trkpt lat="45.0655038" lon="9.7346407"><ele>41.0</ele><time>2026-05-03T13:43:00.102Z</time></trkpt><trkpt lat="45.0657748" lon="9.7343792"><ele>41.0</ele><time>2026-05-03T13:43:01.102Z</time></trkpt><trkpt lat="45.0660432" lon="9.7341143"><ele>41.0</ele><time>2026-05-03T13:43:02.102Z</time></trkpt><trkpt lat="45.0663102" lon="9.7338539"><ele>41.0</ele><time>2026-05-03T13:43:03.103Z</time></trkpt><trkpt lat="45.0665819" lon="9.7335918"><ele>41.0</ele><time>2026-05-03T13:43:04.103Z</time></trkpt><trkpt lat="45.0668463" lon="9.7333378"><ele>42.0</ele><time>2026-05-03T13:43:05.103Z</time></trkpt><trkpt lat="45.0671102" lon="9.7330776"><ele>43.0</ele><time>2026-05-03T13:43:06.103Z</time></trkpt><trkpt lat="45.0673745" lon="9.7328182"><ele>47.0</ele><time>2026-05-03T13:43:07.102Z</time></trkpt><trkpt lat="45.0676347" lon="9.7325576"><ele>51.0</ele><time>2026-05-03T13:43:08.102Z</time></trkpt><trkpt lat="45.0679014" lon="9.7323002"><ele>51.0</ele><time>2026-05-03T13:43:09.103Z</time></trkpt><trkpt lat="45.0681514" lon="9.7320531"><ele>51.0</ele><time>2026-05-03T13:43:10.102Z</time></trkpt><trkpt lat="45.0683941" lon="9.7318117"><ele>49.5</ele><time>2026-05-03T13:43:11.102Z</time></trkpt><trkpt lat="45.0686142" lon="9.7315933"><ele>48.0</ele><time>2026-05-03T13:43:12.103Z</time></trkpt><trkpt lat="45.0688202" lon="9.7313877"><ele>48.0</ele><time>2026-05-03T13:43:13.103Z</time></trkpt><trkpt lat="45.0689964" lon="9.7312047"><ele>48.0</ele><time>2026-05-03T13:43:14.103Z</time></trkpt><trkpt lat="45.0691627" lon="9.7310376"><ele>48.0</ele><time>2026-05-03T13:43:15.102Z</time></trkpt><trkpt lat="45.0693161" lon="9.7308811"><ele>48.0</ele><time>2026-05-03T13:43:16.102Z</time></trkpt><trkpt lat="45.0694698" lon="9.7307294"><ele>48.0</ele><time>2026-05-03T13:43:17.103Z</time></trkpt><trkpt lat="45.0696194" lon="9.7305848"><ele>48.0</ele><time>2026-05-03T13:43:18.103Z</time></trkpt><trkpt lat="45.0697712" lon="9.7304389"><ele>48.0</ele><time>2026-05-03T13:43:19.102Z</time></trkpt><trkpt lat="45.0699173" lon="9.7302933"><ele>48.0</ele><time>2026-05-03T13:43:20.102Z</time></trkpt><trkpt lat="45.0700672" lon="9.7301422"><ele>48.0</ele><time>2026-05-03T13:43:21.102Z</time></trkpt><trkpt lat="45.0702187" lon="9.7299934"><ele>47.666666666666664</ele><time>2026-05-03T13:43:22.102Z</time></trkpt><trkpt lat="45.0703664" lon="9.729845"><ele>47.33333333333333</ele><time>2026-05-03T13:43:23.102Z</time></trkpt><trkpt lat="45.0705106" lon="9.7297031"><ele>47.0</ele><time>2026-05-03T13:43:24.102Z</time></trkpt><trkpt lat="45.0706582" lon="9.7295606"><ele>46.666666666666664</ele><time>2026-05-03T13:43:25.103Z</time></trkpt><trkpt lat="45.070809" lon="9.7294075"><ele>46.333333333333336</ele><time>2026-05-03T13:43:26.103Z</time></trkpt><trkpt lat="45.0709645" lon="9.7292615"><ele>46.0</ele><time>2026-05-03T13:43:27.103Z</time></trkpt><trkpt lat="45.0711268" lon="9.7291124"><ele>47.0</ele><time>2026-05-03T13:43:28.102Z</time></trkpt><trkpt lat="45.0712862" lon="9.7289695"><ele>48.0</ele><time>2026-05-03T13:43:29.102Z</time></trkpt><trkpt lat="45.0714481" lon="9.7288136"><ele>49.0</ele><time>2026-05-03T13:43:30.103Z</time></trkpt><trkpt lat="45.0716114" lon="9.7286553"><ele>49.33333333333333</ele><time>2026-05-03T13:43:31.102Z</time></trkpt><trkpt lat="45.0717724" lon="9.7284888"><ele>49.66666666666667</ele><time>2026-05-03T13:43:32.103Z</time></trkpt><trkpt lat="45.0719319" lon="9.7283352"><ele>50.0</ele><time>2026-05-03T13:43:33.102Z</time></trkpt><trkpt lat="45.0720845" lon="9.7281866"><ele>50.0</ele><time>2026-05-03T13:43:34.103Z</time></trkpt><trkpt lat="45.0722333" lon="9.72805"><ele>50.0</ele><time>2026-05-03T13:43:35.103Z</time></trkpt><trkpt lat="45.0723781" lon="9.7279079"><ele>50.0</ele><time>2026-05-03T13:43:36.102Z</time></trkpt><trkpt lat="45.0725207" lon="9.7277608"><ele>49.66666666666667</ele><time>2026-05-03T13:43:37.102Z</time></trkpt><trkpt lat="45.0726605" lon="9.7276106"><ele>49.33333333333333</ele><time>2026-05-03T13:43:38.103Z</time></trkpt><trkpt lat="45.0728008" lon="9.7274594"><ele>49.0</ele><time>2026-05-03T13:43:39.103Z</time></trkpt><trkpt lat="45.0729444" lon="9.7273063"><ele>49.0</ele><time>2026-05-03T13:43:40.103Z</time></trkpt><trkpt lat="45.0730878" lon="9.7271611"><ele>49.0</ele><time>2026-05-03T13:43:41.103Z</time></trkpt><trkpt lat="45.0732356" lon="9.727013"><ele>49.0</ele><time>2026-05-03T13:43:42.103Z</time></trkpt><trkpt lat="45.0733893" lon="9.7268622"><ele>48.33333333333333</ele><time>2026-05-03T13:43:43.102Z</time></trkpt><trkpt lat="45.0735377" lon="9.7267157"><ele>47.666666666666664</ele><time>2026-05-03T13:43:44.102Z</time></trkpt><trkpt lat="45.0736861" lon="9.7265716"><ele>47.0</ele><time>2026-05-03T13:43:45.103Z</time></trkpt><trkpt lat="45.0738386" lon="9.7264196"><ele>47.0</ele><time>2026-05-03T13:43:46.102Z</time></trkpt><trkpt lat="45.0739872" lon="9.7262699"><ele>47.0</ele><time>2026-05-03T13:43:47.102Z</time></trkpt><trkpt lat="45.0741305" lon="9.7261222"><ele>47.0</ele><time>2026-05-03T13:43:48.1Z</time></trkpt><trkpt lat="45.0742812" lon="9.7259758"><ele>47.666666666666664</ele><time>2026-05-03T13:43:49.103Z</time></trkpt><trkpt lat="45.074437" lon="9.7258217"><ele>48.33333333333333</ele><time>2026-05-03T13:43:50.102Z</time></trkpt><trkpt lat="45.0745862" lon="9.7256656"><ele>49.0</ele><time>2026-05-03T13:43:51.103Z</time></trkpt><trkpt lat="45.074743" lon="9.7255114"><ele>49.0</ele><time>2026-05-03T13:43:52.103Z</time></trkpt><trkpt lat="45.0749008" lon="9.7253498"><ele>49.0</ele><time>2026-05-03T13:43:53.103Z</time></trkpt><trkpt lat="45.0750631" lon="9.7251816"><ele>49.0</ele><time>2026-05-03T13:43:54.102Z</time></trkpt><trkpt lat="45.0752283" lon="9.7250054"><ele>48.666666666666664</ele><time>2026-05-03T13:43:55.102Z</time></trkpt><trkpt lat="45.0754064" lon="9.7248281"><ele>48.33333333333333</ele><time>2026-05-03T13:43:56.103Z</time></trkpt><trkpt lat="45.0755853" lon="9.7246525"><ele>48.0</ele><time>2026-05-03T13:43:57.102Z</time></trkpt><trkpt lat="45.0757703" lon="9.7244801"><ele>47.666666666666664</ele><time>2026-05-03T13:43:58.101Z</time></trkpt><trkpt lat="45.0759492" lon="9.7243092"><ele>47.33333333333333</ele><time>2026-05-03T13:43:59.103Z</time></trkpt><trkpt lat="45.0761242" lon="9.724135"><ele>47.0</ele><time>2026-05-03T13:44:00.103Z</time></trkpt><trkpt lat="45.0763003" lon="9.7239604"><ele>47.0</ele><time>2026-05-03T13:44:01.102Z</time></trkpt><trkpt lat="45.076476" lon="9.723788"><ele>47.0</ele><time>2026-05-03T13:44:02.103Z</time></trkpt><trkpt lat="45.0766532" lon="9.7236156"><ele>47.0</ele><time>2026-05-03T13:44:03.103Z</time></trkpt><trkpt lat="45.0768311" lon="9.7234414"><ele>46.666666666666664</ele><time>2026-05-03T13:44:04.103Z</time></trkpt><trkpt lat="45.0770046" lon="9.7232745"><ele>46.333333333333336</ele><time>2026-05-03T13:44:05.102Z</time></trkpt><trkpt lat="45.0771833" lon="9.7230976"><ele>46.0</ele><time>2026-05-03T13:44:06.103Z</time></trkpt><trkpt lat="45.0773614" lon="9.7229205"><ele>46.333333333333336</ele><time>2026-05-03T13:44:07.102Z</time></trkpt><trkpt lat="45.07754" lon="9.7227445"><ele>46.666666666666664</ele><time>2026-05-03T13:44:08.103Z</time></trkpt><trkpt lat="45.0777163" lon="9.7225658"><ele>47.0</ele><time>2026-05-03T13:44:09.102Z</time></trkpt><trkpt lat="45.0778981" lon="9.7223797"><ele>47.0</ele><time>2026-05-03T13:44:10.103Z</time></trkpt><trkpt lat="45.0780774" lon="9.7221983"><ele>47.0</ele><time>2026-05-03T13:44:11.102Z</time></trkpt><trkpt lat="45.0782578" lon="9.7220151"><ele>47.0</ele><time>2026-05-03T13:44:12.103Z</time></trkpt><trkpt lat="45.0784378" lon="9.7218283"><ele>47.0</ele><time>2026-05-03T13:44:13.103Z</time></trkpt><trkpt lat="45.0786143" lon="9.7216464"><ele>47.0</ele><time>2026-05-03T13:44:14.102Z</time></trkpt><trkpt lat="45.0787868" lon="9.7214693"><ele>47.0</ele><time>2026-05-03T13:44:15.103Z</time></trkpt><trkpt lat="45.0789733" lon="9.7212845"><ele>47.33333333333333</ele><time>2026-05-03T13:44:16.102Z</time></trkpt><trkpt lat="45.0791483" lon="9.7210995"><ele>47.666666666666664</ele><time>2026-05-03T13:44:17.102Z</time></trkpt><trkpt lat="45.0793242" lon="9.7209132"><ele>48.0</ele><time>2026-05-03T13:44:18.102Z</time></trkpt><trkpt lat="45.0794969" lon="9.7207268"><ele>48.0</ele><time>2026-05-03T13:44:19.102Z</time></trkpt><trkpt lat="45.0796728" lon="9.7205361"><ele>48.0</ele><time>2026-05-03T13:44:20.103Z</time></trkpt><trkpt lat="45.0798547" lon="9.7203446"><ele>48.0</ele><time>2026-05-03T13:44:21.102Z</time></trkpt><trkpt lat="45.0800368" lon="9.7201526"><ele>47.5</ele><time>2026-05-03T13:44:22.102Z</time></trkpt><trkpt lat="45.0802241" lon="9.7199549"><ele>47.0</ele><time>2026-05-03T13:44:23.103Z</time></trkpt><trkpt lat="45.0804" lon="9.719759"><ele>47.0</ele><time>2026-05-03T13:44:24.103Z</time></trkpt><trkpt lat="45.0805871" lon="9.7195603"><ele>47.0</ele><time>2026-05-03T13:44:25.103Z</time></trkpt><trkpt lat="45.0807728" lon="9.7193609"><ele>47.0</ele><time>2026-05-03T13:44:26.103Z</time></trkpt><trkpt lat="45.0809591" lon="9.7191655"><ele>47.0</ele><time>2026-05-03T13:44:27.102Z</time></trkpt><trkpt lat="45.0811459" lon="9.7189643"><ele>47.0</ele><time>2026-05-03T13:44:28.1Z</time></trkpt><trkpt lat="45.0813378" lon="9.7187664"><ele>47.0</ele><time>2026-05-03T13:44:29.103Z</time></trkpt><trkpt lat="45.081527" lon="9.718566"><ele>48.0</ele><time>2026-05-03T13:44:30.102Z</time></trkpt><trkpt lat="45.0817148" lon="9.718363"><ele>49.0</ele><time>2026-05-03T13:44:31.102Z</time></trkpt><trkpt lat="45.0818957" lon="9.7181671"><ele>49.0</ele><time>2026-05-03T13:44:32.103Z</time></trkpt><trkpt lat="45.0820781" lon="9.7179619"><ele>49.0</ele><time>2026-05-03T13:44:33.103Z</time></trkpt><trkpt lat="45.0822583" lon="9.7177676"><ele>49.0</ele><time>2026-05-03T13:44:34.102Z</time></trkpt><trkpt lat="45.0824386" lon="9.7175753"><ele>49.0</ele><time>2026-05-03T13:44:35.103Z</time></trkpt><trkpt lat="45.0826222" lon="9.7173832"><ele>49.0</ele><time>2026-05-03T13:44:36.103Z</time></trkpt><trkpt lat="45.0828058" lon="9.7171896"><ele>49.0</ele><time>2026-05-03T13:44:37.103Z</time></trkpt><trkpt lat="45.0829816" lon="9.7169935"><ele>49.0</ele><time>2026-05-03T13:44:38.103Z</time></trkpt><trkpt lat="45.0831602" lon="9.7167948"><ele>49.0</ele><time>2026-05-03T13:44:39.102Z</time></trkpt><trkpt lat="45.0833429" lon="9.7165972"><ele>50.5</ele><time>2026-05-03T13:44:40.102Z</time></trkpt><trkpt lat="45.0835237" lon="9.7163917"><ele>52.0</ele><time>2026-05-03T13:44:41.103Z</time></trkpt><trkpt lat="45.0837073" lon="9.716187"><ele>50.0</ele><time>2026-05-03T13:44:42.103Z</time></trkpt><trkpt lat="45.083889" lon="9.715984"><ele>48.0</ele><time>2026-05-03T13:44:43.103Z</time></trkpt><trkpt lat="45.0840773" lon="9.7157818"><ele>48.0</ele><time>2026-05-03T13:44:44.103Z</time></trkpt><trkpt lat="45.0842673" lon="9.7155739"><ele>48.0</ele><time>2026-05-03T13:44:45.102Z</time></trkpt><trkpt lat="45.0844742" lon="9.7153515"><ele>47.5</ele><time>2026-05-03T13:44:46.103Z</time></trkpt><trkpt lat="45.0846728" lon="9.715131"><ele>47.0</ele><time>2026-05-03T13:44:47.103Z</time></trkpt><trkpt lat="45.0848654" lon="9.7149044"><ele>48.0</ele><time>2026-05-03T13:44:48.103Z</time></trkpt><trkpt lat="45.0850654" lon="9.7146728"><ele>49.0</ele><time>2026-05-03T13:44:49.103Z</time></trkpt><trkpt lat="45.0852664" lon="9.7144487"><ele>48.0</ele><time>2026-05-03T13:44:50.102Z</time></trkpt><trkpt lat="45.0854728" lon="9.7142252"><ele>47.0</ele><time>2026-05-03T13:44:51.102Z</time></trkpt><trkpt lat="45.0856907" lon="9.7139997"><ele>47.0</ele><time>2026-05-03T13:44:52.103Z</time></trkpt><trkpt lat="45.0858956" lon="9.7137735"><ele>47.0</ele><time>2026-05-03T13:44:53.102Z</time></trkpt><trkpt lat="45.0861045" lon="9.7135466"><ele>47.0</ele><time>2026-05-03T13:44:54.102Z</time></trkpt><trkpt lat="45.0863022" lon="9.7133248"><ele>47.0</ele><time>2026-05-03T13:44:55.101Z</time></trkpt><trkpt lat="45.0865017" lon="9.7131143"><ele>47.0</ele><time>2026-05-03T13:44:56.102Z</time></trkpt><trkpt lat="45.0867057" lon="9.7129023"><ele>47.0</ele><time>2026-05-03T13:44:57.102Z</time></trkpt><trkpt lat="45.0868996" lon="9.7126885"><ele>46.5</ele><time>2026-05-03T13:44:58.103Z</time></trkpt><trkpt lat="45.0871008" lon="9.7124689"><ele>46.0</ele><time>2026-05-03T13:44:59.102Z</time></trkpt><trkpt lat="45.0873023" lon="9.7122542"><ele>46.0</ele><time>2026-05-03T13:45:00.102Z</time></trkpt><trkpt lat="45.0875058" lon="9.7120337"><ele>46.0</ele><time>2026-05-03T13:45:01.102Z</time></trkpt><trkpt lat="45.0877047" lon="9.7118188"><ele>46.0</ele><time>2026-05-03T13:45:02.102Z</time></trkpt><trkpt lat="45.0879167" lon="9.7116077"><ele>46.0</ele><time>2026-05-03T13:45:03.102Z</time></trkpt><trkpt lat="45.0881288" lon="9.711386"><ele>46.0</ele><time>2026-05-03T13:45:04.103Z</time></trkpt><trkpt lat="45.0883422" lon="9.7111563"><ele>46.0</ele><time>2026-05-03T13:45:05.103Z</time></trkpt><trkpt lat="45.0885507" lon="9.7109396"><ele>46.0</ele><time>2026-05-03T13:45:06.102Z</time></trkpt><trkpt lat="45.0887596" lon="9.7107143"><ele>46.0</ele><time>2026-05-03T13:45:07.103Z</time></trkpt><trkpt lat="45.0889709" lon="9.7104887"><ele>45.5</ele><time>2026-05-03T13:45:08.102Z</time></trkpt><trkpt lat="45.089176" lon="9.710267"><ele>45.0</ele><time>2026-05-03T13:45:09.103Z</time></trkpt><trkpt lat="45.0893838" lon="9.7100509"><ele>45.0</ele><time>2026-05-03T13:45:10.101Z</time></trkpt><trkpt lat="45.0895834" lon="9.7098329"><ele>45.0</ele><time>2026-05-03T13:45:11.102Z</time></trkpt><trkpt lat="45.0897861" lon="9.7096131"><ele>43.5</ele><time>2026-05-03T13:45:12.103Z</time></trkpt><trkpt lat="45.0899894" lon="9.7093967"><ele>42.0</ele><time>2026-05-03T13:45:13.102Z</time></trkpt><trkpt lat="45.0901903" lon="9.709175"><ele>42.0</ele><time>2026-05-03T13:45:14.102Z</time></trkpt><trkpt lat="45.090398" lon="9.7089469"><ele>42.0</ele><time>2026-05-03T13:45:15.103Z</time></trkpt><trkpt lat="45.0905978" lon="9.7087226"><ele>42.5</ele><time>2026-05-03T13:45:16.103Z</time></trkpt><trkpt lat="45.0907955" lon="9.7084922"><ele>43.0</ele><time>2026-05-03T13:45:17.102Z</time></trkpt><trkpt lat="45.0909928" lon="9.7082669"><ele>43.0</ele><time>2026-05-03T13:45:18.102Z</time></trkpt><trkpt lat="45.0911732" lon="9.7080599"><ele>43.0</ele><time>2026-05-03T13:45:19.101Z</time></trkpt><trkpt lat="45.0913543" lon="9.7078623"><ele>44.5</ele><time>2026-05-03T13:45:20.102Z</time></trkpt><trkpt lat="45.0915398" lon="9.7076611"><ele>46.0</ele><time>2026-05-03T13:45:21.102Z</time></trkpt><trkpt lat="45.0917322" lon="9.7074594"><ele>46.5</ele><time>2026-05-03T13:45:22.102Z</time></trkpt><trkpt lat="45.0919245" lon="9.7072566"><ele>47.0</ele><time>2026-05-03T13:45:23.102Z</time></trkpt><trkpt lat="45.0921249" lon="9.7070446"><ele>46.5</ele><time>2026-05-03T13:45:24.103Z</time></trkpt><trkpt lat="45.0923342" lon="9.7068211"><ele>46.0</ele><time>2026-05-03T13:45:25.103Z</time></trkpt><trkpt lat="45.092551" lon="9.7066004"><ele>45.0</ele><time>2026-05-03T13:45:26.102Z</time></trkpt><trkpt lat="45.0927664" lon="9.7063761"><ele>44.0</ele><time>2026-05-03T13:45:27.101Z</time></trkpt><trkpt lat="45.0929839" lon="9.7061456"><ele>44.0</ele><time>2026-05-03T13:45:28.103Z</time></trkpt><trkpt lat="45.0932088" lon="9.7058992"><ele>44.0</ele><time>2026-05-03T13:45:29.103Z</time></trkpt><trkpt lat="45.0934376" lon="9.7056533"><ele>44.0</ele><time>2026-05-03T13:45:30.102Z</time></trkpt><trkpt lat="45.0936649" lon="9.705413"><ele>44.0</ele><time>2026-05-03T13:45:31.103Z</time></trkpt><trkpt lat="45.0938847" lon="9.7051737"><ele>44.0</ele><time>2026-05-03T13:45:32.102Z</time></trkpt><trkpt lat="45.0941003" lon="9.7049361"><ele>44.0</ele><time>2026-05-03T13:45:33.102Z</time></trkpt><trkpt lat="45.0943225" lon="9.7047007"><ele>44.0</ele><time>2026-05-03T13:45:34.102Z</time></trkpt><trkpt lat="45.0945482" lon="9.7044593"><ele>44.0</ele><time>2026-05-03T13:45:35.102Z</time></trkpt><trkpt lat="45.0947772" lon="9.7042131"><ele>44.5</ele><time>2026-05-03T13:45:36.102Z</time></trkpt><trkpt lat="45.095014" lon="9.703979"><ele>45.0</ele><time>2026-05-03T13:45:37.103Z</time></trkpt><trkpt lat="45.0952512" lon="9.7037346"><ele>44.5</ele><time>2026-05-03T13:45:38.103Z</time></trkpt><trkpt lat="45.0954903" lon="9.7034824"><ele>44.0</ele><time>2026-05-03T13:45:39.103Z</time></trkpt><trkpt lat="45.0957304" lon="9.7032295"><ele>44.0</ele><time>2026-05-03T13:45:40.102Z</time></trkpt><trkpt lat="45.0959719" lon="9.7029711"><ele>44.0</ele><time>2026-05-03T13:45:41.103Z</time></trkpt><trkpt lat="45.0962122" lon="9.702718"><ele>44.0</ele><time>2026-05-03T13:45:42.102Z</time></trkpt><trkpt lat="45.0964548" lon="9.7024576"><ele>44.0</ele><time>2026-05-03T13:45:43.103Z</time></trkpt><trkpt lat="45.0966995" lon="9.7021925"><ele>44.5</ele><time>2026-05-03T13:45:44.102Z</time></trkpt><trkpt lat="45.0969446" lon="9.7019222"><ele>45.0</ele><time>2026-05-03T13:45:45.103Z</time></trkpt><trkpt lat="45.097193" lon="9.7016475"><ele>45.0</ele><time>2026-05-03T13:45:46.103Z</time></trkpt><trkpt lat="45.0974466" lon="9.7013711"><ele>45.0</ele><time>2026-05-03T13:45:47.103Z</time></trkpt><trkpt lat="45.0976977" lon="9.7010959"><ele>44.0</ele><time>2026-05-03T13:45:48.103Z</time></trkpt><trkpt lat="45.0979497" lon="9.700826"><ele>43.0</ele><time>2026-05-03T13:45:49.103Z</time></trkpt><trkpt lat="45.0981976" lon="9.7005517"><ele>43.0</ele><time>2026-05-03T13:45:50.103Z</time></trkpt><trkpt lat="45.0984435" lon="9.7002781"><ele>43.0</ele><time>2026-05-03T13:45:51.102Z</time></trkpt><trkpt lat="45.0986923" lon="9.7000068"><ele>43.0</ele><time>2026-05-03T13:45:52.102Z</time></trkpt><trkpt lat="45.0989465" lon="9.6997305"><ele>43.0</ele><time>2026-05-03T13:45:53.103Z</time></trkpt><trkpt lat="45.0992007" lon="9.6994568"><ele>44.0</ele><time>2026-05-03T13:45:54.102Z</time></trkpt><trkpt lat="45.0994536" lon="9.699179"><ele>45.0</ele><time>2026-05-03T13:45:55.102Z</time></trkpt><trkpt lat="45.0997092" lon="9.6988992"><ele>44.5</ele><time>2026-05-03T13:45:56.102Z</time></trkpt><trkpt lat="45.0999618" lon="9.6986188"><ele>44.0</ele><time>2026-05-03T13:45:57.102Z</time></trkpt><trkpt lat="45.1002197" lon="9.6983435"><ele>46.0</ele><time>2026-05-03T13:45:58.102Z</time></trkpt><trkpt lat="45.1004776" lon="9.6980647"><ele>48.0</ele><time>2026-05-03T13:45:59.103Z</time></trkpt><trkpt lat="45.1007396" lon="9.6977896"><ele>47.0</ele><time>2026-05-03T13:46:00.101Z</time></trkpt><trkpt lat="45.1009989" lon="9.6975138"><ele>46.0</ele><time>2026-05-03T13:46:01.103Z</time></trkpt><trkpt lat="45.1012548" lon="9.697235"><ele>46.0</ele><time>2026-05-03T13:46:02.103Z</time></trkpt><trkpt lat="45.101511" lon="9.6969595"><ele>46.0</ele><time>2026-05-03T13:46:03.102Z</time></trkpt><trkpt lat="45.1017718" lon="9.6966809"><ele>45.0</ele><time>2026-05-03T13:46:04.103Z</time></trkpt><trkpt lat="45.1020261" lon="9.6964118"><ele>44.0</ele><time>2026-05-03T13:46:05.103Z</time></trkpt><trkpt lat="45.1022818" lon="9.6961418"><ele>44.5</ele><time>2026-05-03T13:46:06.102Z</time></trkpt><trkpt lat="45.1025367" lon="9.6958782"><ele>45.0</ele><time>2026-05-03T13:46:07.103Z</time></trkpt><trkpt lat="45.1027876" lon="9.6956197"><ele>45.0</ele><time>2026-05-03T13:46:08.103Z</time></trkpt><trkpt lat="45.1030383" lon="9.6953599"><ele>45.0</ele><time>2026-05-03T13:46:09.103Z</time></trkpt><trkpt lat="45.1032894" lon="9.695101"><ele>45.0</ele><time>2026-05-03T13:46:10.102Z</time></trkpt><trkpt lat="45.10354" lon="9.6948368"><ele>45.0</ele><time>2026-05-03T13:46:11.102Z</time></trkpt><trkpt lat="45.1037816" lon="9.6945746"><ele>45.5</ele><time>2026-05-03T13:46:12.103Z</time></trkpt><trkpt lat="45.1040186" lon="9.6943189"><ele>46.0</ele><time>2026-05-03T13:46:13.103Z</time></trkpt><trkpt lat="45.1042513" lon="9.6940625"><ele>46.0</ele><time>2026-05-03T13:46:14.103Z</time></trkpt><trkpt lat="45.1044773" lon="9.6938121"><ele>46.0</ele><time>2026-05-03T13:46:15.102Z</time></trkpt><trkpt lat="45.1047002" lon="9.6935705"><ele>45.5</ele><time>2026-05-03T13:46:16.102Z</time></trkpt><trkpt lat="45.1049233" lon="9.6933367"><ele>45.0</ele><time>2026-05-03T13:46:17.102Z</time></trkpt><trkpt lat="45.1051441" lon="9.6931007"><ele>45.0</ele><time>2026-05-03T13:46:18.103Z</time></trkpt><trkpt lat="45.1053555" lon="9.6928663"><ele>45.0</ele><time>2026-05-03T13:46:19.102Z</time></trkpt><trkpt lat="45.1055673" lon="9.6926457"><ele>46.5</ele><time>2026-05-03T13:46:20.103Z</time></trkpt><trkpt lat="45.1057849" lon="9.6924215"><ele>48.0</ele><time>2026-05-03T13:46:21.103Z</time></trkpt><trkpt lat="45.1059975" lon="9.6921911"><ele>48.0</ele><time>2026-05-03T13:46:22.102Z</time></trkpt><trkpt lat="45.1062127" lon="9.6919548"><ele>48.0</ele><time>2026-05-03T13:46:23.103Z</time></trkpt><trkpt lat="45.1064475" lon="9.6916987"><ele>48.0</ele><time>2026-05-03T13:46:24.102Z</time></trkpt><trkpt lat="45.1066703" lon="9.6914477"><ele>48.0</ele><time>2026-05-03T13:46:25.102Z</time></trkpt><trkpt lat="45.1068915" lon="9.6912131"><ele>47.0</ele><time>2026-05-03T13:46:26.102Z</time></trkpt><trkpt lat="45.1071097" lon="9.6909772"><ele>46.0</ele><time>2026-05-03T13:46:27.102Z</time></trkpt><trkpt lat="45.1073281" lon="9.6907492"><ele>46.0</ele><time>2026-05-03T13:46:28.102Z</time></trkpt><trkpt lat="45.1075484" lon="9.6905056"><ele>46.0</ele><time>2026-05-03T13:46:29.102Z</time></trkpt><trkpt lat="45.1077685" lon="9.6902704"><ele>46.5</ele><time>2026-05-03T13:46:30.102Z</time></trkpt><trkpt lat="45.1079943" lon="9.6900225"><ele>47.0</ele><time>2026-05-03T13:46:31.103Z</time></trkpt><trkpt lat="45.1082119" lon="9.6897802"><ele>47.5</ele><time>2026-05-03T13:46:32.102Z</time></trkpt><trkpt lat="45.1084394" lon="9.6895376"><ele>48.0</ele><time>2026-05-03T13:46:33.103Z</time></trkpt><trkpt lat="45.1086643" lon="9.689282"><ele>48.0</ele><time>2026-05-03T13:46:34.102Z</time></trkpt><trkpt lat="45.1088799" lon="9.689031"><ele>48.0</ele><time>2026-05-03T13:46:35.102Z</time></trkpt><trkpt lat="45.1090966" lon="9.6887785"><ele>47.0</ele><time>2026-05-03T13:46:36.103Z</time></trkpt><trkpt lat="45.1093131" lon="9.6885273"><ele>46.0</ele><time>2026-05-03T13:46:37.102Z</time></trkpt><trkpt lat="45.1095329" lon="9.6882702"><ele>46.0</ele><time>2026-05-03T13:46:38.103Z</time></trkpt><trkpt lat="45.1097448" lon="9.6880143"><ele>46.0</ele><time>2026-05-03T13:46:39.102Z</time></trkpt><trkpt lat="45.1099611" lon="9.6877532"><ele>46.5</ele><time>2026-05-03T13:46:40.103Z</time></trkpt><trkpt lat="45.1101776" lon="9.6874868"><ele>47.0</ele><time>2026-05-03T13:46:41.103Z</time></trkpt><trkpt lat="45.1103922" lon="9.6872131"><ele>47.0</ele><time>2026-05-03T13:46:42.102Z</time></trkpt><trkpt lat="45.1106104" lon="9.6869362"><ele>47.0</ele><time>2026-05-03T13:46:43.102Z</time></trkpt><trkpt lat="45.110823" lon="9.6866647"><ele>47.0</ele><time>2026-05-03T13:46:44.102Z</time></trkpt><trkpt lat="45.1110303" lon="9.6863866"><ele>47.0</ele><time>2026-05-03T13:46:45.102Z</time></trkpt><trkpt lat="45.1112434" lon="9.6861004"><ele>47.5</ele><time>2026-05-03T13:46:46.103Z</time></trkpt><trkpt lat="45.1114705" lon="9.6858038"><ele>48.0</ele><time>2026-05-03T13:46:47.102Z</time></trkpt><trkpt lat="45.1116946" lon="9.6854984"><ele>47.0</ele><time>2026-05-03T13:46:48.103Z</time></trkpt><trkpt lat="45.1119151" lon="9.6851905"><ele>46.0</ele><time>2026-05-03T13:46:49.102Z</time></trkpt><trkpt lat="45.1121329" lon="9.6848852"><ele>46.0</ele><time>2026-05-03T13:46:50.103Z</time></trkpt><trkpt lat="45.1123522" lon="9.6845739"><ele>46.0</ele><time>2026-05-03T13:46:51.102Z</time></trkpt><trkpt lat="45.1125725" lon="9.6842574"><ele>45.5</ele><time>2026-05-03T13:46:52.103Z</time></trkpt><trkpt lat="45.112791" lon="9.6839515"><ele>45.0</ele><time>2026-05-03T13:46:53.103Z</time></trkpt><trkpt lat="45.1130067" lon="9.6836534"><ele>44.0</ele><time>2026-05-03T13:46:54.103Z</time></trkpt><trkpt lat="45.1132126" lon="9.6833492"><ele>43.0</ele><time>2026-05-03T13:46:55.102Z</time></trkpt><trkpt lat="45.113417" lon="9.6830455"><ele>43.5</ele><time>2026-05-03T13:46:56.102Z</time></trkpt><trkpt lat="45.1136259" lon="9.682744"><ele>44.0</ele><time>2026-05-03T13:46:57.103Z</time></trkpt><trkpt lat="45.1138309" lon="9.6824587"><ele>44.0</ele><time>2026-05-03T13:46:58.103Z</time></trkpt><trkpt lat="45.11402" lon="9.6821812"><ele>44.0</ele><time>2026-05-03T13:46:59.102Z</time></trkpt><trkpt lat="45.1142111" lon="9.6819029"><ele>43.5</ele><time>2026-05-03T13:47:00.103Z</time></trkpt><trkpt lat="45.1143991" lon="9.6816291"><ele>43.0</ele><time>2026-05-03T13:47:01.103Z</time></trkpt><trkpt lat="45.114592" lon="9.6813534"><ele>43.0</ele><time>2026-05-03T13:47:02.102Z</time></trkpt><trkpt lat="45.1147828" lon="9.6810773"><ele>43.0</ele><time>2026-05-03T13:47:03.1Z</time></trkpt><trkpt lat="45.1149746" lon="9.6808068"><ele>44.0</ele><time>2026-05-03T13:47:04.103Z</time></trkpt><trkpt lat="45.11517" lon="9.6805313"><ele>45.0</ele><time>2026-05-03T13:47:05.102Z</time></trkpt><trkpt lat="45.1153698" lon="9.6802457"><ele>45.0</ele><time>2026-05-03T13:47:06.103Z</time></trkpt><trkpt lat="45.1155656" lon="9.6799568"><ele>45.0</ele><time>2026-05-03T13:47:07.103Z</time></trkpt><trkpt lat="45.1157692" lon="9.6796659"><ele>45.0</ele><time>2026-05-03T13:47:08.103Z</time></trkpt><trkpt lat="45.115978" lon="9.6793669"><ele>45.0</ele><time>2026-05-03T13:47:09.102Z</time></trkpt><trkpt lat="45.1161864" lon="9.6790701"><ele>45.0</ele><time>2026-05-03T13:47:10.102Z</time></trkpt><trkpt lat="45.1164012" lon="9.6787663"><ele>45.0</ele><time>2026-05-03T13:47:11.103Z</time></trkpt><trkpt lat="45.116618" lon="9.678454"><ele>44.5</ele><time>2026-05-03T13:47:12.102Z</time></trkpt><trkpt lat="45.1168311" lon="9.6781509"><ele>44.0</ele><time>2026-05-03T13:47:13.102Z</time></trkpt><trkpt lat="45.1170479" lon="9.6778333"><ele>44.0</ele><time>2026-05-03T13:47:14.103Z</time></trkpt><trkpt lat="45.1172592" lon="9.6775251"><ele>44.0</ele><time>2026-05-03T13:47:15.102Z</time></trkpt><trkpt lat="45.1174797" lon="9.6772067"><ele>45.5</ele><time>2026-05-03T13:47:16.103Z</time></trkpt><trkpt lat="45.1176932" lon="9.6768948"><ele>47.0</ele><time>2026-05-03T13:47:17.103Z</time></trkpt><trkpt lat="45.1179116" lon="9.6765816"><ele>47.0</ele><time>2026-05-03T13:47:18.103Z</time></trkpt><trkpt lat="45.1181272" lon="9.6762779"><ele>47.0</ele><time>2026-05-03T13:47:19.103Z</time></trkpt><trkpt lat="45.1183488" lon="9.6759663"><ele>46.0</ele><time>2026-05-03T13:47:20.102Z</time></trkpt><trkpt lat="45.1185641" lon="9.6756544"><ele>45.0</ele><time>2026-05-03T13:47:21.103Z</time></trkpt><trkpt lat="45.118782" lon="9.6753449"><ele>45.0</ele><time>2026-05-03T13:47:22.102Z</time></trkpt><trkpt lat="45.1190073" lon="9.675029"><ele>45.0</ele><time>2026-05-03T13:47:23.102Z</time></trkpt><trkpt lat="45.119222" lon="9.6747221"><ele>44.5</ele><time>2026-05-03T13:47:24.103Z</time></trkpt><trkpt lat="45.1194385" lon="9.6744143"><ele>44.0</ele><time>2026-05-03T13:47:25.102Z</time></trkpt><trkpt lat="45.1196557" lon="9.6741109"><ele>44.0</ele><time>2026-05-03T13:47:26.102Z</time></trkpt><trkpt lat="45.1198703" lon="9.6738046"><ele>44.0</ele><time>2026-05-03T13:47:27.102Z</time></trkpt><trkpt lat="45.1200849" lon="9.6734948"><ele>45.5</ele><time>2026-05-03T13:47:28.103Z</time></trkpt><trkpt lat="45.1203053" lon="9.6731708"><ele>47.0</ele><time>2026-05-03T13:47:29.103Z</time></trkpt><trkpt lat="45.12053" lon="9.6728506"><ele>46.5</ele><time>2026-05-03T13:47:30.102Z</time></trkpt><trkpt lat="45.1207511" lon="9.6725252"><ele>46.0</ele><time>2026-05-03T13:47:31.103Z</time></trkpt><trkpt lat="45.1209764" lon="9.6721977"><ele>46.0</ele><time>2026-05-03T13:47:32.103Z</time></trkpt><trkpt lat="45.1212007" lon="9.6718674"><ele>46.0</ele><time>2026-05-03T13:47:33.102Z</time></trkpt><trkpt lat="45.1214169" lon="9.6715439"><ele>45.5</ele><time>2026-05-03T13:47:34.102Z</time></trkpt><trkpt lat="45.1216308" lon="9.6712369"><ele>45.0</ele><time>2026-05-03T13:47:35.103Z</time></trkpt><trkpt lat="45.121834" lon="9.6709362"><ele>45.0</ele><time>2026-05-03T13:47:36.102Z</time></trkpt><trkpt lat="45.1220378" lon="9.6706445"><ele>45.0</ele><time>2026-05-03T13:47:37.102Z</time></trkpt><trkpt lat="45.1222369" lon="9.670355"><ele>44.5</ele><time>2026-05-03T13:47:38.103Z</time></trkpt><trkpt lat="45.1224416" lon="9.6700592"><ele>44.0</ele><time>2026-05-03T13:47:39.103Z</time></trkpt><trkpt lat="45.1226422" lon="9.6697732"><ele>44.0</ele><time>2026-05-03T13:47:40.103Z</time></trkpt><trkpt lat="45.1228467" lon="9.669485"><ele>44.0</ele><time>2026-05-03T13:47:41.103Z</time></trkpt><trkpt lat="45.1230505" lon="9.6691972"><ele>44.5</ele><time>2026-05-03T13:47:42.103Z</time></trkpt><trkpt lat="45.1232564" lon="9.6689065"><ele>45.0</ele><time>2026-05-03T13:47:43.102Z</time></trkpt><trkpt lat="45.1234611" lon="9.6686142"><ele>45.0</ele><time>2026-05-03T13:47:44.103Z</time></trkpt><trkpt lat="45.1236695" lon="9.6683243"><ele>45.0</ele><time>2026-05-03T13:47:45.103Z</time></trkpt><trkpt lat="45.1238734" lon="9.6680316"><ele>44.5</ele><time>2026-05-03T13:47:46.102Z</time></trkpt><trkpt lat="45.1240777" lon="9.66774"><ele>44.0</ele><time>2026-05-03T13:47:47.102Z</time></trkpt><trkpt lat="45.1242842" lon="9.6674469"><ele>44.0</ele><time>2026-05-03T13:47:48.102Z</time></trkpt><trkpt lat="45.1244922" lon="9.6671525"><ele>44.0</ele><time>2026-05-03T13:47:49.103Z</time></trkpt><trkpt lat="45.1247001" lon="9.6668576"><ele>45.0</ele><time>2026-05-03T13:47:50.103Z</time></trkpt><trkpt lat="45.1249111" lon="9.6665544"><ele>46.0</ele><time>2026-05-03T13:47:51.102Z</time></trkpt><trkpt lat="45.1251182" lon="9.6662527"><ele>46.5</ele><time>2026-05-03T13:47:52.102Z</time></trkpt><trkpt lat="45.1253236" lon="9.6659488"><ele>47.0</ele><time>2026-05-03T13:47:53.102Z</time></trkpt><trkpt lat="45.1255259" lon="9.6656438"><ele>47.0</ele><time>2026-05-03T13:47:54.102Z</time></trkpt><trkpt lat="45.1257249" lon="9.6653388"><ele>47.0</ele><time>2026-05-03T13:47:55.102Z</time></trkpt><trkpt lat="45.1259232" lon="9.6650318"><ele>47.0</ele><time>2026-05-03T13:47:56.103Z</time></trkpt><trkpt lat="45.1261195" lon="9.6647277"><ele>47.0</ele><time>2026-05-03T13:47:57.103Z</time></trkpt><trkpt lat="45.1263176" lon="9.6644196"><ele>47.0</ele><time>2026-05-03T13:47:58.103Z</time></trkpt><trkpt lat="45.1265129" lon="9.6641111"><ele>47.0</ele><time>2026-05-03T13:47:59.103Z</time></trkpt><trkpt lat="45.126711" lon="9.6638029"><ele>47.0</ele><time>2026-05-03T13:48:00.102Z</time></trkpt><trkpt lat="45.1269051" lon="9.6634918"><ele>47.0</ele><time>2026-05-03T13:48:01.103Z</time></trkpt><trkpt lat="45.1270929" lon="9.6631793"><ele>47.0</ele><time>2026-05-03T13:48:02.103Z</time></trkpt><trkpt lat="45.1272801" lon="9.6628689"><ele>47.0</ele><time>2026-05-03T13:48:03.102Z</time></trkpt><trkpt lat="45.1274643" lon="9.6625623"><ele>47.5</ele><time>2026-05-03T13:48:04.103Z</time></trkpt><trkpt lat="45.1276464" lon="9.6622551"><ele>48.0</ele><time>2026-05-03T13:48:05.103Z</time></trkpt><trkpt lat="45.1278154" lon="9.6619556"><ele>47.5</ele><time>2026-05-03T13:48:06.103Z</time></trkpt><trkpt lat="45.1279895" lon="9.661643"><ele>47.0</ele><time>2026-05-03T13:48:07.103Z</time></trkpt><trkpt lat="45.1281607" lon="9.6613432"><ele>47.5</ele><time>2026-05-03T13:48:08.103Z</time></trkpt><trkpt lat="45.128328" lon="9.6610483"><ele>48.0</ele><time>2026-05-03T13:48:09.103Z</time></trkpt><trkpt lat="45.1284948" lon="9.6607539"><ele>48.0</ele><time>2026-05-03T13:48:10.102Z</time></trkpt><trkpt lat="45.1286609" lon="9.660448"><ele>48.0</ele><time>2026-05-03T13:48:11.102Z</time></trkpt><trkpt lat="45.128837" lon="9.6601257"><ele>47.5</ele><time>2026-05-03T13:48:12.103Z</time></trkpt><trkpt lat="45.1290235" lon="9.6597957"><ele>47.0</ele><time>2026-05-03T13:48:13.103Z</time></trkpt><trkpt lat="45.1292099" lon="9.6594478"><ele>47.0</ele><time>2026-05-03T13:48:14.103Z</time></trkpt><trkpt lat="45.1293903" lon="9.6590944"><ele>47.0</ele><time>2026-05-03T13:48:15.102Z</time></trkpt><trkpt lat="45.129566" lon="9.6587361"><ele>47.0</ele><time>2026-05-03T13:48:16.103Z</time></trkpt><trkpt lat="45.1297348" lon="9.6583873"><ele>47.0</ele><time>2026-05-03T13:48:17.103Z</time></trkpt><trkpt lat="45.1299085" lon="9.6580526"><ele>48.5</ele><time>2026-05-03T13:48:18.103Z</time></trkpt><trkpt lat="45.1300825" lon="9.6577154"><ele>50.0</ele><time>2026-05-03T13:48:19.103Z</time></trkpt><trkpt lat="45.130249" lon="9.6573848"><ele>50.0</ele><time>2026-05-03T13:48:20.102Z</time></trkpt><trkpt lat="45.1304223" lon="9.6570538"><ele>50.0</ele><time>2026-05-03T13:48:21.103Z</time></trkpt><trkpt lat="45.1305869" lon="9.6567327"><ele>48.5</ele><time>2026-05-03T13:48:22.1Z</time></trkpt><trkpt lat="45.130763" lon="9.6563956"><ele>47.0</ele><time>2026-05-03T13:48:23.102Z</time></trkpt><trkpt lat="45.130931" lon="9.656073"><ele>47.0</ele><time>2026-05-03T13:48:24.103Z</time></trkpt><trkpt lat="45.1310895" lon="9.6557537"><ele>47.0</ele><time>2026-05-03T13:48:25.102Z</time></trkpt><trkpt lat="45.1312494" lon="9.6554363"><ele>47.0</ele><time>2026-05-03T13:48:26.102Z</time></trkpt><trkpt lat="45.1314138" lon="9.6551189"><ele>47.0</ele><time>2026-05-03T13:48:27.103Z</time></trkpt><trkpt lat="45.1315721" lon="9.654809"><ele>47.0</ele><time>2026-05-03T13:48:28.102Z</time></trkpt><trkpt lat="45.1317377" lon="9.6544943"><ele>47.0</ele><time>2026-05-03T13:48:29.103Z</time></trkpt><trkpt lat="45.1318997" lon="9.654184"><ele>47.5</ele><time>2026-05-03T13:48:30.102Z</time></trkpt><trkpt lat="45.1320582" lon="9.6538737"><ele>48.0</ele><time>2026-05-03T13:48:31.103Z</time></trkpt><trkpt lat="45.1322166" lon="9.6535675"><ele>48.0</ele><time>2026-05-03T13:48:32.102Z</time></trkpt><trkpt lat="45.1323755" lon="9.6532635"><ele>48.0</ele><time>2026-05-03T13:48:33.102Z</time></trkpt><trkpt lat="45.1325348" lon="9.6529539"><ele>48.0</ele><time>2026-05-03T13:48:34.102Z</time></trkpt><trkpt lat="45.1326949" lon="9.6526395"><ele>48.0</ele><time>2026-05-03T13:48:35.103Z</time></trkpt><trkpt lat="45.1328529" lon="9.6523198"><ele>48.0</ele><time>2026-05-03T13:48:36.102Z</time></trkpt><trkpt lat="45.1330154" lon="9.6519954"><ele>48.0</ele><time>2026-05-03T13:48:37.103Z</time></trkpt><trkpt lat="45.1331754" lon="9.6516744"><ele>47.5</ele><time>2026-05-03T13:48:38.103Z</time></trkpt><trkpt lat="45.1333493" lon="9.6513402"><ele>47.0</ele><time>2026-05-03T13:48:39.102Z</time></trkpt><trkpt lat="45.1335154" lon="9.6510101"><ele>46.5</ele><time>2026-05-03T13:48:40.103Z</time></trkpt><trkpt lat="45.1336861" lon="9.6506796"><ele>46.0</ele><time>2026-05-03T13:48:41.102Z</time></trkpt><trkpt lat="45.1338562" lon="9.6503517"><ele>46.5</ele><time>2026-05-03T13:48:42.103Z</time></trkpt><trkpt lat="45.1340292" lon="9.6500161"><ele>47.0</ele><time>2026-05-03T13:48:43.102Z</time></trkpt><trkpt lat="45.1342068" lon="9.6496782"><ele>46.5</ele><time>2026-05-03T13:48:44.103Z</time></trkpt><trkpt lat="45.1343851" lon="9.649333"><ele>46.0</ele><time>2026-05-03T13:48:45.102Z</time></trkpt><trkpt lat="45.1345656" lon="9.6489889"><ele>46.0</ele><time>2026-05-03T13:48:46.103Z</time></trkpt><trkpt lat="45.1347434" lon="9.6486433"><ele>46.0</ele><time>2026-05-03T13:48:47.103Z</time></trkpt><trkpt lat="45.1349247" lon="9.6482855"><ele>46.5</ele><time>2026-05-03T13:48:48.102Z</time></trkpt><trkpt lat="45.1351026" lon="9.6479375"><ele>47.0</ele><time>2026-05-03T13:48:49.103Z</time></trkpt><trkpt lat="45.1352854" lon="9.6475891"><ele>47.5</ele><time>2026-05-03T13:48:50.102Z</time></trkpt><trkpt lat="45.135463" lon="9.6472399"><ele>48.0</ele><time>2026-05-03T13:48:51.102Z</time></trkpt><trkpt lat="45.1356394" lon="9.6468926"><ele>47.0</ele><time>2026-05-03T13:48:52.103Z</time></trkpt><trkpt lat="45.1358161" lon="9.6465473"><ele>46.0</ele><time>2026-05-03T13:48:53.102Z</time></trkpt><trkpt lat="45.1359925" lon="9.6462015"><ele>46.0</ele><time>2026-05-03T13:48:54.102Z</time></trkpt><trkpt lat="45.1361817" lon="9.6458469"><ele>46.0</ele><time>2026-05-03T13:48:55.103Z</time></trkpt><trkpt lat="45.1363601" lon="9.6455003"><ele>46.5</ele><time>2026-05-03T13:48:56.103Z</time></trkpt><trkpt lat="45.1365426" lon="9.6451519"><ele>47.0</ele><time>2026-05-03T13:48:57.102Z</time></trkpt><trkpt lat="45.1367293" lon="9.644806"><ele>47.5</ele><time>2026-05-03T13:48:58.102Z</time></trkpt><trkpt lat="45.1369143" lon="9.6444577"><ele>48.0</ele><time>2026-05-03T13:48:59.102Z</time></trkpt><trkpt lat="45.1370977" lon="9.644105"><ele>48.0</ele><time>2026-05-03T13:49:00.102Z</time></trkpt><trkpt lat="45.1372829" lon="9.6437459"><ele>48.0</ele><time>2026-05-03T13:49:01.103Z</time></trkpt><trkpt lat="45.1374633" lon="9.6433846"><ele>48.0</ele><time>2026-05-03T13:49:02.103Z</time></trkpt><trkpt lat="45.137652" lon="9.6430252"><ele>48.0</ele><time>2026-05-03T13:49:03.103Z</time></trkpt><trkpt lat="45.1378352" lon="9.6426556"><ele>49.0</ele><time>2026-05-03T13:49:04.102Z</time></trkpt><trkpt lat="45.1380189" lon="9.6422867"><ele>50.0</ele><time>2026-05-03T13:49:05.103Z</time></trkpt><trkpt lat="45.1382097" lon="9.6419176"><ele>50.0</ele><time>2026-05-03T13:49:06.102Z</time></trkpt><trkpt lat="45.1384" lon="9.6415452"><ele>50.0</ele><time>2026-05-03T13:49:07.103Z</time></trkpt><trkpt lat="45.1385986" lon="9.6411699"><ele>49.5</ele><time>2026-05-03T13:49:08.103Z</time></trkpt><trkpt lat="45.1387965" lon="9.6407839"><ele>49.0</ele><time>2026-05-03T13:49:09.102Z</time></trkpt><trkpt lat="45.1389954" lon="9.6403982"><ele>49.0</ele><time>2026-05-03T13:49:10.103Z</time></trkpt><trkpt lat="45.1391949" lon="9.6400086"><ele>49.0</ele><time>2026-05-03T13:49:11.102Z</time></trkpt><trkpt lat="45.1393963" lon="9.639615"><ele>48.5</ele><time>2026-05-03T13:49:12.102Z</time></trkpt><trkpt lat="45.1395978" lon="9.6392217"><ele>48.0</ele><time>2026-05-03T13:49:13.103Z</time></trkpt><trkpt lat="45.1397996" lon="9.6388362"><ele>48.5</ele><time>2026-05-03T13:49:14.103Z</time></trkpt><trkpt lat="45.1399922" lon="9.6384589"><ele>49.0</ele><time>2026-05-03T13:49:15.102Z</time></trkpt><trkpt lat="45.1401834" lon="9.6380841"><ele>48.5</ele><time>2026-05-03T13:49:16.103Z</time></trkpt><trkpt lat="45.1403825" lon="9.6377232"><ele>48.0</ele><time>2026-05-03T13:49:17.103Z</time></trkpt><trkpt lat="45.1405828" lon="9.6373554"><ele>48.0</ele><time>2026-05-03T13:49:18.102Z</time></trkpt><trkpt lat="45.1407833" lon="9.6370013"><ele>48.0</ele><time>2026-05-03T13:49:19.103Z</time></trkpt><trkpt lat="45.1409929" lon="9.6366475"><ele>48.0</ele><time>2026-05-03T13:49:20.103Z</time></trkpt><trkpt lat="45.1411968" lon="9.6363032"><ele>48.0</ele><time>2026-05-03T13:49:21.102Z</time></trkpt><trkpt lat="45.1414114" lon="9.6359663"><ele>48.0</ele><time>2026-05-03T13:49:22.103Z</time></trkpt><trkpt lat="45.1416247" lon="9.6356342"><ele>48.0</ele><time>2026-05-03T13:49:23.103Z</time></trkpt><trkpt lat="45.1418467" lon="9.635302"><ele>49.5</ele><time>2026-05-03T13:49:24.103Z</time></trkpt><trkpt lat="45.1420727" lon="9.6349763"><ele>51.0</ele><time>2026-05-03T13:49:25.102Z</time></trkpt><trkpt lat="45.1422955" lon="9.6346568"><ele>53.0</ele><time>2026-05-03T13:49:26.102Z</time></trkpt><trkpt lat="45.1425208" lon="9.6343388"><ele>55.0</ele><time>2026-05-03T13:49:27.103Z</time></trkpt><trkpt lat="45.1427445" lon="9.6340243"><ele>55.0</ele><time>2026-05-03T13:49:28.102Z</time></trkpt><trkpt lat="45.1429688" lon="9.6337045"><ele>55.0</ele><time>2026-05-03T13:49:29.102Z</time></trkpt><trkpt lat="45.143195" lon="9.633382"><ele>55.0</ele><time>2026-05-03T13:49:30.102Z</time></trkpt><trkpt lat="45.1434192" lon="9.6330561"><ele>55.0</ele><time>2026-05-03T13:49:31.102Z</time></trkpt><trkpt lat="45.1436377" lon="9.6327371"><ele>56.0</ele><time>2026-05-03T13:49:32.101Z</time></trkpt><trkpt lat="45.1438524" lon="9.6324293"><ele>57.0</ele><time>2026-05-03T13:49:33.102Z</time></trkpt><trkpt lat="45.1440627" lon="9.6321301"><ele>56.5</ele><time>2026-05-03T13:49:34.101Z</time></trkpt><trkpt lat="45.1442728" lon="9.6318353"><ele>56.0</ele><time>2026-05-03T13:49:35.102Z</time></trkpt><trkpt lat="45.1444823" lon="9.6315408"><ele>56.0</ele><time>2026-05-03T13:49:36.102Z</time></trkpt><trkpt lat="45.1446929" lon="9.6312468"><ele>56.0</ele><time>2026-05-03T13:49:37.1Z</time></trkpt><trkpt lat="45.144884" lon="9.6309686"><ele>56.5</ele><time>2026-05-03T13:49:38.101Z</time></trkpt><trkpt lat="45.145078" lon="9.6306904"><ele>57.0</ele><time>2026-05-03T13:49:39.102Z</time></trkpt><trkpt lat="45.1452722" lon="9.6304197"><ele>56.5</ele><time>2026-05-03T13:49:40.103Z</time></trkpt><trkpt lat="45.1454617" lon="9.6301519"><ele>56.0</ele><time>2026-05-03T13:49:41.103Z</time></trkpt><trkpt lat="45.145653" lon="9.6298863"><ele>56.5</ele><time>2026-05-03T13:49:42.103Z</time></trkpt><trkpt lat="45.1458359" lon="9.6296391"><ele>57.0</ele><time>2026-05-03T13:49:43.102Z</time></trkpt><trkpt lat="45.1460162" lon="9.6293978"><ele>57.0</ele><time>2026-05-03T13:49:44.102Z</time></trkpt><trkpt lat="45.1461969" lon="9.6291586"><ele>57.0</ele><time>2026-05-03T13:49:45.103Z</time></trkpt><trkpt lat="45.146375" lon="9.6289178"><ele>57.0</ele><time>2026-05-03T13:49:46.102Z</time></trkpt><trkpt lat="45.1465552" lon="9.6286718"><ele>57.0</ele><time>2026-05-03T13:49:47.103Z</time></trkpt><trkpt lat="45.1467389" lon="9.6284253"><ele>56.5</ele><time>2026-05-03T13:49:48.102Z</time></trkpt><trkpt lat="45.1469196" lon="9.6281701"><ele>56.0</ele><time>2026-05-03T13:49:49.103Z</time></trkpt><trkpt lat="45.1471048" lon="9.6279069"><ele>56.0</ele><time>2026-05-03T13:49:50.103Z</time></trkpt><trkpt lat="45.1472964" lon="9.627636"><ele>56.0</ele><time>2026-05-03T13:49:51.102Z</time></trkpt><trkpt lat="45.1474888" lon="9.6273641"><ele>56.5</ele><time>2026-05-03T13:49:52.103Z</time></trkpt><trkpt lat="45.1476795" lon="9.6270835"><ele>57.0</ele><time>2026-05-03T13:49:53.103Z</time></trkpt><trkpt lat="45.1478823" lon="9.6267987"><ele>57.5</ele><time>2026-05-03T13:49:54.103Z</time></trkpt><trkpt lat="45.1480879" lon="9.6265137"><ele>58.0</ele><time>2026-05-03T13:49:55.102Z</time></trkpt><trkpt lat="45.1482934" lon="9.6262322"><ele>59.5</ele><time>2026-05-03T13:49:56.102Z</time></trkpt><trkpt lat="45.1485036" lon="9.6259406"><ele>61.0</ele><time>2026-05-03T13:49:57.103Z</time></trkpt><trkpt lat="45.1487113" lon="9.6256521"><ele>61.0</ele><time>2026-05-03T13:49:58.102Z</time></trkpt><trkpt lat="45.1489145" lon="9.6253756"><ele>61.0</ele><time>2026-05-03T13:49:59.103Z</time></trkpt><trkpt lat="45.1491072" lon="9.6251011"><ele>60.0</ele><time>2026-05-03T13:50:00.103Z</time></trkpt><trkpt lat="45.1493073" lon="9.6248316"><ele>59.0</ele><time>2026-05-03T13:50:01.102Z</time></trkpt><trkpt lat="45.1495021" lon="9.6245627"><ele>59.0</ele><time>2026-05-03T13:50:02.102Z</time></trkpt><trkpt lat="45.1496981" lon="9.6242948"><ele>59.0</ele><time>2026-05-03T13:50:03.102Z</time></trkpt><trkpt lat="45.149893" lon="9.6240239"><ele>59.0</ele><time>2026-05-03T13:50:04.102Z</time></trkpt><trkpt lat="45.1500798" lon="9.6237605"><ele>59.0</ele><time>2026-05-03T13:50:05.102Z</time></trkpt><trkpt lat="45.150262" lon="9.6235121"><ele>59.0</ele><time>2026-05-03T13:50:06.103Z</time></trkpt><trkpt lat="45.150437" lon="9.6232717"><ele>59.0</ele><time>2026-05-03T13:50:07.102Z</time></trkpt><trkpt lat="45.1506171" lon="9.6230358"><ele>59.0</ele><time>2026-05-03T13:50:08.102Z</time></trkpt><trkpt lat="45.1507913" lon="9.6227943"><ele>59.0</ele><time>2026-05-03T13:50:09.103Z</time></trkpt><trkpt lat="45.1509681" lon="9.6225533"><ele>59.0</ele><time>2026-05-03T13:50:10.102Z</time></trkpt><trkpt lat="45.1511528" lon="9.6223061"><ele>59.0</ele><time>2026-05-03T13:50:11.103Z</time></trkpt><trkpt lat="45.1513329" lon="9.6220506"><ele>59.0</ele><time>2026-05-03T13:50:12.102Z</time></trkpt><trkpt lat="45.1515177" lon="9.6217976"><ele>59.0</ele><time>2026-05-03T13:50:13.102Z</time></trkpt><trkpt lat="45.1517011" lon="9.6215456"><ele>59.0</ele><time>2026-05-03T13:50:14.103Z</time></trkpt><trkpt lat="45.1518905" lon="9.6212828"><ele>59.0</ele><time>2026-05-03T13:50:15.103Z</time></trkpt><trkpt lat="45.152077" lon="9.6210224"><ele>59.5</ele><time>2026-05-03T13:50:16.103Z</time></trkpt><trkpt lat="45.1522722" lon="9.6207487"><ele>60.0</ele><time>2026-05-03T13:50:17.102Z</time></trkpt><trkpt lat="45.1524535" lon="9.6204922"><ele>60.0</ele><time>2026-05-03T13:50:18.102Z</time></trkpt><trkpt lat="45.1526317" lon="9.620238"><ele>60.0</ele><time>2026-05-03T13:50:19.103Z</time></trkpt><trkpt lat="45.1527995" lon="9.6199855"><ele>60.0</ele><time>2026-05-03T13:50:20.103Z</time></trkpt><trkpt lat="45.1529616" lon="9.6197463"><ele>60.0</ele><time>2026-05-03T13:50:21.102Z</time></trkpt><trkpt lat="45.1531193" lon="9.6195219"><ele>60.0</ele><time>2026-05-03T13:50:22.102Z</time></trkpt><trkpt lat="45.1532801" lon="9.6193"><ele>60.0</ele><time>2026-05-03T13:50:23.103Z</time></trkpt><trkpt lat="45.1534291" lon="9.6190899"><ele>60.0</ele><time>2026-05-03T13:50:24.103Z</time></trkpt><trkpt lat="45.1535812" lon="9.618875"><ele>60.0</ele><time>2026-05-03T13:50:25.103Z</time></trkpt><trkpt lat="45.1537376" lon="9.6186529"><ele>60.0</ele><time>2026-05-03T13:50:26.102Z</time></trkpt><trkpt lat="45.1538974" lon="9.6184375"><ele>60.0</ele><time>2026-05-03T13:50:27.102Z</time></trkpt><trkpt lat="45.154064" lon="9.6182115"><ele>60.0</ele><time>2026-05-03T13:50:28.102Z</time></trkpt><trkpt lat="45.1542232" lon="9.6179838"><ele>60.0</ele><time>2026-05-03T13:50:29.103Z</time></trkpt><trkpt lat="45.1543688" lon="9.6177693"><ele>60.0</ele><time>2026-05-03T13:50:30.102Z</time></trkpt><trkpt lat="45.1545225" lon="9.6175526"><ele>59.66666666666667</ele><time>2026-05-03T13:50:31.102Z</time></trkpt><trkpt lat="45.1546764" lon="9.6173317"><ele>59.333333333333336</ele><time>2026-05-03T13:50:32.102Z</time></trkpt><trkpt lat="45.1548392" lon="9.6171064"><ele>59.0</ele><time>2026-05-03T13:50:33.102Z</time></trkpt><trkpt lat="45.1550087" lon="9.6168796"><ele>59.0</ele><time>2026-05-03T13:50:34.102Z</time></trkpt><trkpt lat="45.1551879" lon="9.6166385"><ele>59.0</ele><time>2026-05-03T13:50:35.102Z</time></trkpt><trkpt lat="45.1553821" lon="9.6163807"><ele>59.0</ele><time>2026-05-03T13:50:36.103Z</time></trkpt><trkpt lat="45.1555715" lon="9.6161069"><ele>59.0</ele><time>2026-05-03T13:50:37.103Z</time></trkpt><trkpt lat="45.1557663" lon="9.6158291"><ele>59.5</ele><time>2026-05-03T13:50:38.102Z</time></trkpt><trkpt lat="45.1559639" lon="9.6155413"><ele>60.0</ele><time>2026-05-03T13:50:39.102Z</time></trkpt><trkpt lat="45.1561645" lon="9.6152562"><ele>60.5</ele><time>2026-05-03T13:50:40.103Z</time></trkpt><trkpt lat="45.1563709" lon="9.6149608"><ele>61.0</ele><time>2026-05-03T13:50:41.102Z</time></trkpt><trkpt lat="45.1565781" lon="9.6146691"><ele>60.0</ele><time>2026-05-03T13:50:42.103Z</time></trkpt><trkpt lat="45.1567913" lon="9.6143714"><ele>59.0</ele><time>2026-05-03T13:50:43.102Z</time></trkpt><trkpt lat="45.1570123" lon="9.6140721"><ele>59.0</ele><time>2026-05-03T13:50:44.102Z</time></trkpt><trkpt lat="45.1572429" lon="9.6137671"><ele>59.0</ele><time>2026-05-03T13:50:45.102Z</time></trkpt><trkpt lat="45.1574708" lon="9.6134534"><ele>59.5</ele><time>2026-05-03T13:50:46.103Z</time></trkpt><trkpt lat="45.157698" lon="9.6131366"><ele>60.0</ele><time>2026-05-03T13:50:47.103Z</time></trkpt><trkpt lat="45.1579196" lon="9.6128256"><ele>60.0</ele><time>2026-05-03T13:50:48.102Z</time></trkpt><trkpt lat="45.1581422" lon="9.6125167"><ele>60.0</ele><time>2026-05-03T13:50:49.102Z</time></trkpt><trkpt lat="45.1583586" lon="9.6122103"><ele>60.0</ele><time>2026-05-03T13:50:50.103Z</time></trkpt><trkpt lat="45.1585744" lon="9.6119093"><ele>60.0</ele><time>2026-05-03T13:50:51.103Z</time></trkpt><trkpt lat="45.1587838" lon="9.6116147"><ele>60.0</ele><time>2026-05-03T13:50:52.102Z</time></trkpt><trkpt lat="45.1589987" lon="9.6113193"><ele>60.0</ele><time>2026-05-03T13:50:53.103Z</time></trkpt><trkpt lat="45.1592015" lon="9.6110327"><ele>60.5</ele><time>2026-05-03T13:50:54.102Z</time></trkpt><trkpt lat="45.159401" lon="9.6107474"><ele>61.0</ele><time>2026-05-03T13:50:55.103Z</time></trkpt><trkpt lat="45.1596042" lon="9.6104623"><ele>61.0</ele><time>2026-05-03T13:50:56.102Z</time></trkpt><trkpt lat="45.1598013" lon="9.6101809"><ele>61.0</ele><time>2026-05-03T13:50:57.102Z</time></trkpt><trkpt lat="45.1600023" lon="9.6099023"><ele>60.5</ele><time>2026-05-03T13:50:58.103Z</time></trkpt><trkpt lat="45.1602007" lon="9.6096245"><ele>60.0</ele><time>2026-05-03T13:50:59.102Z</time></trkpt><trkpt lat="45.1603999" lon="9.6093508"><ele>61.0</ele><time>2026-05-03T13:51:00.103Z</time></trkpt><trkpt lat="45.1605926" lon="9.6090732"><ele>62.0</ele><time>2026-05-03T13:51:01.102Z</time></trkpt><trkpt lat="45.1607891" lon="9.6087956"><ele>62.0</ele><time>2026-05-03T13:51:02.103Z</time></trkpt><trkpt lat="45.1609845" lon="9.6085184"><ele>62.0</ele><time>2026-05-03T13:51:03.102Z</time></trkpt><trkpt lat="45.1611784" lon="9.6082366"><ele>62.0</ele><time>2026-05-03T13:51:04.102Z</time></trkpt><trkpt lat="45.1613694" lon="9.6079579"><ele>62.0</ele><time>2026-05-03T13:51:05.103Z</time></trkpt><trkpt lat="45.1615625" lon="9.6076842"><ele>62.0</ele><time>2026-05-03T13:51:06.103Z</time></trkpt><trkpt lat="45.1617564" lon="9.6074106"><ele>62.0</ele><time>2026-05-03T13:51:07.102Z</time></trkpt><trkpt lat="45.1619484" lon="9.6071277"><ele>62.5</ele><time>2026-05-03T13:51:08.103Z</time></trkpt><trkpt lat="45.1621399" lon="9.6068407"><ele>63.0</ele><time>2026-05-03T13:51:09.102Z</time></trkpt><trkpt lat="45.1623409" lon="9.6065464"><ele>62.5</ele><time>2026-05-03T13:51:10.103Z</time></trkpt><trkpt lat="45.1625387" lon="9.6062659"><ele>62.0</ele><time>2026-05-03T13:51:11.102Z</time></trkpt><trkpt lat="45.1627365" lon="9.6059827"><ele>61.5</ele><time>2026-05-03T13:51:12.103Z</time></trkpt><trkpt lat="45.162948" lon="9.6056971"><ele>61.0</ele><time>2026-05-03T13:51:13.103Z</time></trkpt><trkpt lat="45.1631566" lon="9.6053995"><ele>63.0</ele><time>2026-05-03T13:51:14.103Z</time></trkpt><trkpt lat="45.1633664" lon="9.6051035"><ele>65.0</ele><time>2026-05-03T13:51:15.103Z</time></trkpt><trkpt lat="45.1635811" lon="9.6048047"><ele>65.0</ele><time>2026-05-03T13:51:16.103Z</time></trkpt><trkpt lat="45.1637954" lon="9.604506"><ele>65.0</ele><time>2026-05-03T13:51:17.103Z</time></trkpt><trkpt lat="45.1640072" lon="9.6042024"><ele>63.0</ele><time>2026-05-03T13:51:18.103Z</time></trkpt><trkpt lat="45.1642222" lon="9.6038961"><ele>61.0</ele><time>2026-05-03T13:51:19.102Z</time></trkpt><trkpt lat="45.1644381" lon="9.6035925"><ele>61.0</ele><time>2026-05-03T13:51:20.102Z</time></trkpt><trkpt lat="45.1646552" lon="9.603284"><ele>61.0</ele><time>2026-05-03T13:51:21.103Z</time></trkpt><trkpt lat="45.164874" lon="9.6029878"><ele>60.5</ele><time>2026-05-03T13:51:22.102Z</time></trkpt><trkpt lat="45.1650898" lon="9.6026855"><ele>60.0</ele><time>2026-05-03T13:51:23.102Z</time></trkpt><trkpt lat="45.1653007" lon="9.602391"><ele>60.0</ele><time>2026-05-03T13:51:24.103Z</time></trkpt><trkpt lat="45.165506" lon="9.6020972"><ele>60.0</ele><time>2026-05-03T13:51:25.102Z</time></trkpt><trkpt lat="45.1657133" lon="9.6018031"><ele>60.0</ele><time>2026-05-03T13:51:26.102Z</time></trkpt><trkpt lat="45.1659148" lon="9.6015126"><ele>60.0</ele><time>2026-05-03T13:51:27.102Z</time></trkpt><trkpt lat="45.1661146" lon="9.6012122"><ele>61.0</ele><time>2026-05-03T13:51:28.103Z</time></trkpt><trkpt lat="45.1663147" lon="9.6009157"><ele>62.0</ele><time>2026-05-03T13:51:29.102Z</time></trkpt><trkpt lat="45.166519" lon="9.6006222"><ele>62.0</ele><time>2026-05-03T13:51:30.102Z</time></trkpt><trkpt lat="45.1667238" lon="9.6003225"><ele>62.0</ele><time>2026-05-03T13:51:31.102Z</time></trkpt><trkpt lat="45.1669309" lon="9.6000197"><ele>62.0</ele><time>2026-05-03T13:51:32.103Z</time></trkpt><trkpt lat="45.1671385" lon="9.5997114"><ele>62.0</ele><time>2026-05-03T13:51:33.102Z</time></trkpt><trkpt lat="45.167347" lon="9.599398"><ele>61.0</ele><time>2026-05-03T13:51:34.103Z</time></trkpt><trkpt lat="45.1675595" lon="9.599082"><ele>60.0</ele><time>2026-05-03T13:51:35.102Z</time></trkpt><trkpt lat="45.1677671" lon="9.5987612"><ele>60.0</ele><time>2026-05-03T13:51:36.102Z</time></trkpt><trkpt lat="45.1679764" lon="9.5984323"><ele>60.0</ele><time>2026-05-03T13:51:37.102Z</time></trkpt><trkpt lat="45.1681849" lon="9.5981044"><ele>60.5</ele><time>2026-05-03T13:51:38.102Z</time></trkpt><trkpt lat="45.1683973" lon="9.5977723"><ele>61.0</ele><time>2026-05-03T13:51:39.103Z</time></trkpt><trkpt lat="45.168607" lon="9.5974362"><ele>61.0</ele><time>2026-05-03T13:51:40.102Z</time></trkpt><trkpt lat="45.1688184" lon="9.5971079"><ele>61.0</ele><time>2026-05-03T13:51:41.102Z</time></trkpt><trkpt lat="45.169029" lon="9.5967796"><ele>62.0</ele><time>2026-05-03T13:51:42.102Z</time></trkpt><trkpt lat="45.1692444" lon="9.5964399"><ele>63.0</ele><time>2026-05-03T13:51:43.102Z</time></trkpt><trkpt lat="45.1694577" lon="9.5961083"><ele>63.0</ele><time>2026-05-03T13:51:44.102Z</time></trkpt><trkpt lat="45.1696681" lon="9.5957839"><ele>63.0</ele><time>2026-05-03T13:51:45.102Z</time></trkpt><trkpt lat="45.1698742" lon="9.5954576"><ele>65.0</ele><time>2026-05-03T13:51:46.102Z</time></trkpt><trkpt lat="45.1700845" lon="9.5951296"><ele>67.0</ele><time>2026-05-03T13:51:47.103Z</time></trkpt><trkpt lat="45.170294" lon="9.5948004"><ele>66.5</ele><time>2026-05-03T13:51:48.102Z</time></trkpt><trkpt lat="45.1704998" lon="9.5944762"><ele>66.0</ele><time>2026-05-03T13:51:49.102Z</time></trkpt><trkpt lat="45.1707097" lon="9.5941428"><ele>66.0</ele><time>2026-05-03T13:51:50.102Z</time></trkpt><trkpt lat="45.1709116" lon="9.5938219"><ele>66.0</ele><time>2026-05-03T13:51:51.102Z</time></trkpt><trkpt lat="45.1711149" lon="9.5935082"><ele>66.0</ele><time>2026-05-03T13:51:52.103Z</time></trkpt><trkpt lat="45.1713082" lon="9.5932047"><ele>66.0</ele><time>2026-05-03T13:51:53.103Z</time></trkpt><trkpt lat="45.1714944" lon="9.5929047"><ele>66.0</ele><time>2026-05-03T13:51:54.102Z</time></trkpt><trkpt lat="45.1716745" lon="9.5926076"><ele>66.0</ele><time>2026-05-03T13:51:55.103Z</time></trkpt><trkpt lat="45.1718582" lon="9.5923183"><ele>66.0</ele><time>2026-05-03T13:51:56.1Z</time></trkpt><trkpt lat="45.1720469" lon="9.5920199"><ele>66.0</ele><time>2026-05-03T13:51:57.102Z</time></trkpt><trkpt lat="45.1722362" lon="9.5917221"><ele>65.5</ele><time>2026-05-03T13:51:58.103Z</time></trkpt><trkpt lat="45.1724229" lon="9.591421"><ele>65.0</ele><time>2026-05-03T13:51:59.103Z</time></trkpt><trkpt lat="45.1726102" lon="9.5911281"><ele>65.0</ele><time>2026-05-03T13:52:00.102Z</time></trkpt><trkpt lat="45.1728053" lon="9.5908318"><ele>65.0</ele><time>2026-05-03T13:52:01.103Z</time></trkpt><trkpt lat="45.1729831" lon="9.5905464"><ele>65.0</ele><time>2026-05-03T13:52:02.102Z</time></trkpt><trkpt lat="45.1731637" lon="9.5902648"><ele>65.0</ele><time>2026-05-03T13:52:03.102Z</time></trkpt><trkpt lat="45.1733412" lon="9.5899847"><ele>65.0</ele><time>2026-05-03T13:52:04.102Z</time></trkpt><trkpt lat="45.173521" lon="9.5896957"><ele>65.0</ele><time>2026-05-03T13:52:05.103Z</time></trkpt><trkpt lat="45.1737034" lon="9.5894074"><ele>64.5</ele><time>2026-05-03T13:52:06.103Z</time></trkpt><trkpt lat="45.1738848" lon="9.5891186"><ele>64.0</ele><time>2026-05-03T13:52:07.102Z</time></trkpt><trkpt lat="45.1740762" lon="9.588823"><ele>63.0</ele><time>2026-05-03T13:52:08.103Z</time></trkpt><trkpt lat="45.174269" lon="9.5885321"><ele>62.0</ele><time>2026-05-03T13:52:09.102Z</time></trkpt><trkpt lat="45.1744539" lon="9.5882414"><ele>62.0</ele><time>2026-05-03T13:52:10.102Z</time></trkpt><trkpt lat="45.1746408" lon="9.5879434"><ele>62.0</ele><time>2026-05-03T13:52:11.102Z</time></trkpt><trkpt lat="45.17483" lon="9.5876463"><ele>62.5</ele><time>2026-05-03T13:52:12.103Z</time></trkpt><trkpt lat="45.1750173" lon="9.5873483"><ele>63.0</ele><time>2026-05-03T13:52:13.103Z</time></trkpt><trkpt lat="45.1752053" lon="9.587052"><ele>63.5</ele><time>2026-05-03T13:52:14.102Z</time></trkpt><trkpt lat="45.175396" lon="9.5867533"><ele>64.0</ele><time>2026-05-03T13:52:15.103Z</time></trkpt><trkpt lat="45.1755883" lon="9.5864515"><ele>64.0</ele><time>2026-05-03T13:52:16.103Z</time></trkpt><trkpt lat="45.1757843" lon="9.5861473"><ele>64.0</ele><time>2026-05-03T13:52:17.103Z</time></trkpt><trkpt lat="45.1759823" lon="9.5858367"><ele>64.0</ele><time>2026-05-03T13:52:18.103Z</time></trkpt><trkpt lat="45.1761774" lon="9.585533"><ele>64.0</ele><time>2026-05-03T13:52:19.103Z</time></trkpt><trkpt lat="45.1763724" lon="9.585221"><ele>63.0</ele><time>2026-05-03T13:52:20.103Z</time></trkpt><trkpt lat="45.1765721" lon="9.5849081"><ele>62.0</ele><time>2026-05-03T13:52:21.103Z</time></trkpt><trkpt lat="45.1767731" lon="9.5845964"><ele>62.5</ele><time>2026-05-03T13:52:22.101Z</time></trkpt><trkpt lat="45.1769732" lon="9.5842839"><ele>63.0</ele><time>2026-05-03T13:52:23.102Z</time></trkpt><trkpt lat="45.1771727" lon="9.583962"><ele>64.5</ele><time>2026-05-03T13:52:24.103Z</time></trkpt><trkpt lat="45.1773713" lon="9.583645"><ele>66.0</ele><time>2026-05-03T13:52:25.101Z</time></trkpt><trkpt lat="45.1775733" lon="9.5833205"><ele>66.0</ele><time>2026-05-03T13:52:26.102Z</time></trkpt><trkpt lat="45.1777763" lon="9.5830021"><ele>66.0</ele><time>2026-05-03T13:52:27.103Z</time></trkpt><trkpt lat="45.1779824" lon="9.5826843"><ele>64.0</ele><time>2026-05-03T13:52:28.102Z</time></trkpt><trkpt lat="45.1781858" lon="9.5823656"><ele>62.0</ele><time>2026-05-03T13:52:29.102Z</time></trkpt><trkpt lat="45.1783916" lon="9.5820404"><ele>62.5</ele><time>2026-05-03T13:52:30.102Z</time></trkpt><trkpt lat="45.1785956" lon="9.5817214"><ele>63.0</ele><time>2026-05-03T13:52:31.103Z</time></trkpt><trkpt lat="45.1788036" lon="9.5814056"><ele>62.5</ele><time>2026-05-03T13:52:32.103Z</time></trkpt><trkpt lat="45.1790125" lon="9.581088"><ele>62.0</ele><time>2026-05-03T13:52:33.102Z</time></trkpt><trkpt lat="45.1792211" lon="9.5807721"><ele>62.0</ele><time>2026-05-03T13:52:34.103Z</time></trkpt><trkpt lat="45.1794257" lon="9.5804511"><ele>62.0</ele><time>2026-05-03T13:52:35.103Z</time></trkpt><trkpt lat="45.1796372" lon="9.5801358"><ele>62.5</ele><time>2026-05-03T13:52:36.103Z</time></trkpt><trkpt lat="45.1798441" lon="9.5798106"><ele>63.0</ele><time>2026-05-03T13:52:37.103Z</time></trkpt><trkpt lat="45.1800522" lon="9.5794879"><ele>64.0</ele><time>2026-05-03T13:52:38.102Z</time></trkpt><trkpt lat="45.1802588" lon="9.5791679"><ele>65.0</ele><time>2026-05-03T13:52:39.103Z</time></trkpt><trkpt lat="45.1804683" lon="9.5788406"><ele>63.5</ele><time>2026-05-03T13:52:40.103Z</time></trkpt><trkpt lat="45.1806737" lon="9.5785262"><ele>62.0</ele><time>2026-05-03T13:52:41.103Z</time></trkpt><trkpt lat="45.180877" lon="9.5782059"><ele>62.0</ele><time>2026-05-03T13:52:42.103Z</time></trkpt><trkpt lat="45.1810799" lon="9.5778871"><ele>62.0</ele><time>2026-05-03T13:52:43.103Z</time></trkpt><trkpt lat="45.1812866" lon="9.5775696"><ele>62.5</ele><time>2026-05-03T13:52:44.102Z</time></trkpt><trkpt lat="45.1814945" lon="9.5772537"><ele>63.0</ele><time>2026-05-03T13:52:45.103Z</time></trkpt><trkpt lat="45.1817005" lon="9.5769327"><ele>63.0</ele><time>2026-05-03T13:52:46.102Z</time></trkpt><trkpt lat="45.1819012" lon="9.5766111"><ele>63.0</ele><time>2026-05-03T13:52:47.103Z</time></trkpt><trkpt lat="45.1821087" lon="9.5762943"><ele>62.5</ele><time>2026-05-03T13:52:48.102Z</time></trkpt><trkpt lat="45.1823134" lon="9.5759781"><ele>62.0</ele><time>2026-05-03T13:52:49.102Z</time></trkpt><trkpt lat="45.1825187" lon="9.5756531"><ele>62.0</ele><time>2026-05-03T13:52:50.103Z</time></trkpt><trkpt lat="45.1827199" lon="9.5753306"><ele>62.0</ele><time>2026-05-03T13:52:51.102Z</time></trkpt><trkpt lat="45.1829336" lon="9.5750075"><ele>62.0</ele><time>2026-05-03T13:52:52.103Z</time></trkpt><trkpt lat="45.1831424" lon="9.5746978"><ele>62.0</ele><time>2026-05-03T13:52:53.103Z</time></trkpt><trkpt lat="45.1833526" lon="9.5743824"><ele>62.0</ele><time>2026-05-03T13:52:54.103Z</time></trkpt><trkpt lat="45.1835589" lon="9.5740637"><ele>62.0</ele><time>2026-05-03T13:52:55.103Z</time></trkpt><trkpt lat="45.1837695" lon="9.5737434"><ele>62.0</ele><time>2026-05-03T13:52:56.103Z</time></trkpt><trkpt lat="45.1839774" lon="9.5734269"><ele>62.0</ele><time>2026-05-03T13:52:57.102Z</time></trkpt><trkpt lat="45.1841821" lon="9.5731087"><ele>62.0</ele><time>2026-05-03T13:52:58.103Z</time></trkpt><trkpt lat="45.1843838" lon="9.5727884"><ele>62.0</ele><time>2026-05-03T13:52:59.103Z</time></trkpt><trkpt lat="45.1845874" lon="9.5724728"><ele>62.0</ele><time>2026-05-03T13:53:00.103Z</time></trkpt><trkpt lat="45.1847854" lon="9.5721474"><ele>62.0</ele><time>2026-05-03T13:53:01.103Z</time></trkpt><trkpt lat="45.184981" lon="9.5718188"><ele>62.0</ele><time>2026-05-03T13:53:02.102Z</time></trkpt><trkpt lat="45.1851814" lon="9.5714944"><ele>62.0</ele><time>2026-05-03T13:53:03.103Z</time></trkpt><trkpt lat="45.1853856" lon="9.571172"><ele>62.0</ele><time>2026-05-03T13:53:04.103Z</time></trkpt><trkpt lat="45.1856007" lon="9.5708531"><ele>62.0</ele><time>2026-05-03T13:53:05.103Z</time></trkpt><trkpt lat="45.1858079" lon="9.5705328"><ele>62.5</ele><time>2026-05-03T13:53:06.102Z</time></trkpt><trkpt lat="45.1860132" lon="9.5702126"><ele>63.0</ele><time>2026-05-03T13:53:07.103Z</time></trkpt><trkpt lat="45.1862235" lon="9.5698926"><ele>63.0</ele><time>2026-05-03T13:53:08.103Z</time></trkpt><trkpt lat="45.1864314" lon="9.5695805"><ele>63.0</ele><time>2026-05-03T13:53:09.1Z</time></trkpt><trkpt lat="45.1866441" lon="9.5692694"><ele>63.0</ele><time>2026-05-03T13:53:10.102Z</time></trkpt><trkpt lat="45.1868474" lon="9.5689525"><ele>63.0</ele><time>2026-05-03T13:53:11.103Z</time></trkpt><trkpt lat="45.1870533" lon="9.5686343"><ele>63.0</ele><time>2026-05-03T13:53:12.102Z</time></trkpt><trkpt lat="45.1872559" lon="9.5683135"><ele>63.0</ele><time>2026-05-03T13:53:13.101Z</time></trkpt><trkpt lat="45.1874589" lon="9.5679949"><ele>62.5</ele><time>2026-05-03T13:53:14.103Z</time></trkpt><trkpt lat="45.1876637" lon="9.5676681"><ele>62.0</ele><time>2026-05-03T13:53:15.102Z</time></trkpt><trkpt lat="45.1878687" lon="9.5673459"><ele>62.0</ele><time>2026-05-03T13:53:16.103Z</time></trkpt><trkpt lat="45.1880744" lon="9.5670291"><ele>62.0</ele><time>2026-05-03T13:53:17.1Z</time></trkpt><trkpt lat="45.1882791" lon="9.5667107"><ele>62.5</ele><time>2026-05-03T13:53:18.102Z</time></trkpt><trkpt lat="45.188485" lon="9.5663921"><ele>63.0</ele><time>2026-05-03T13:53:19.102Z</time></trkpt><trkpt lat="45.1886898" lon="9.566071"><ele>63.5</ele><time>2026-05-03T13:53:20.101Z</time></trkpt><trkpt lat="45.1888894" lon="9.5657541"><ele>64.0</ele><time>2026-05-03T13:53:21.103Z</time></trkpt><trkpt lat="45.1890904" lon="9.5654299"><ele>63.0</ele><time>2026-05-03T13:53:22.101Z</time></trkpt><trkpt lat="45.1892969" lon="9.5651073"><ele>62.0</ele><time>2026-05-03T13:53:23.102Z</time></trkpt><trkpt lat="45.1895058" lon="9.5647806"><ele>62.0</ele><time>2026-05-03T13:53:24.102Z</time></trkpt><trkpt lat="45.1897155" lon="9.5644592"><ele>62.0</ele><time>2026-05-03T13:53:25.103Z</time></trkpt><trkpt lat="45.1899251" lon="9.5641436"><ele>62.0</ele><time>2026-05-03T13:53:26.101Z</time></trkpt><trkpt lat="45.1901335" lon="9.5638272"><ele>62.0</ele><time>2026-05-03T13:53:27.102Z</time></trkpt><trkpt lat="45.1903388" lon="9.5635081"><ele>62.0</ele><time>2026-05-03T13:53:28.102Z</time></trkpt><trkpt lat="45.1905456" lon="9.5631902"><ele>62.0</ele><time>2026-05-03T13:53:29.103Z</time></trkpt><trkpt lat="45.1907518" lon="9.5628695"><ele>62.0</ele><time>2026-05-03T13:53:30.103Z</time></trkpt><trkpt lat="45.1909549" lon="9.5625566"><ele>62.0</ele><time>2026-05-03T13:53:31.103Z</time></trkpt><trkpt lat="45.19117" lon="9.5622386"><ele>62.0</ele><time>2026-05-03T13:53:32.103Z</time></trkpt><trkpt lat="45.1913827" lon="9.561923"><ele>62.0</ele><time>2026-05-03T13:53:33.102Z</time></trkpt><trkpt lat="45.1915947" lon="9.5616135"><ele>62.0</ele><time>2026-05-03T13:53:34.102Z</time></trkpt><trkpt lat="45.191807" lon="9.5613056"><ele>62.0</ele><time>2026-05-03T13:53:35.103Z</time></trkpt><trkpt lat="45.1920191" lon="9.5609918"><ele>62.0</ele><time>2026-05-03T13:53:36.102Z</time></trkpt><trkpt lat="45.1922311" lon="9.5606799"><ele>62.0</ele><time>2026-05-03T13:53:37.102Z</time></trkpt><trkpt lat="45.1924443" lon="9.560367"><ele>61.0</ele><time>2026-05-03T13:53:38.103Z</time></trkpt><trkpt lat="45.1926553" lon="9.5600564"><ele>60.0</ele><time>2026-05-03T13:53:39.102Z</time></trkpt><trkpt lat="45.1928721" lon="9.5597459"><ele>61.0</ele><time>2026-05-03T13:53:40.103Z</time></trkpt><trkpt lat="45.1930873" lon="9.5594325"><ele>62.0</ele><time>2026-05-03T13:53:41.103Z</time></trkpt><trkpt lat="45.1932989" lon="9.559124"><ele>62.0</ele><time>2026-05-03T13:53:42.103Z</time></trkpt><trkpt lat="45.1935131" lon="9.5588203"><ele>62.0</ele><time>2026-05-03T13:53:43.101Z</time></trkpt><trkpt lat="45.1937313" lon="9.558516"><ele>62.5</ele><time>2026-05-03T13:53:44.101Z</time></trkpt><trkpt lat="45.1939562" lon="9.5582045"><ele>63.0</ele><time>2026-05-03T13:53:45.103Z</time></trkpt><trkpt lat="45.1941728" lon="9.557897"><ele>63.0</ele><time>2026-05-03T13:53:46.102Z</time></trkpt><trkpt lat="45.1943937" lon="9.5575939"><ele>63.0</ele><time>2026-05-03T13:53:47.102Z</time></trkpt><trkpt lat="45.1946113" lon="9.5572981"><ele>63.0</ele><time>2026-05-03T13:53:48.102Z</time></trkpt><trkpt lat="45.19483" lon="9.5569979"><ele>63.0</ele><time>2026-05-03T13:53:49.103Z</time></trkpt><trkpt lat="45.1950453" lon="9.5567057"><ele>62.5</ele><time>2026-05-03T13:53:50.103Z</time></trkpt><trkpt lat="45.195271" lon="9.5564042"><ele>62.0</ele><time>2026-05-03T13:53:51.102Z</time></trkpt><trkpt lat="45.1954969" lon="9.556121"><ele>61.5</ele><time>2026-05-03T13:53:52.102Z</time></trkpt><trkpt lat="45.1957279" lon="9.5558304"><ele>61.0</ele><time>2026-05-03T13:53:53.103Z</time></trkpt><trkpt lat="45.1959558" lon="9.5555403"><ele>62.0</ele><time>2026-05-03T13:53:54.102Z</time></trkpt><trkpt lat="45.1961785" lon="9.5552548"><ele>63.0</ele><time>2026-05-03T13:53:55.103Z</time></trkpt><trkpt lat="45.1964082" lon="9.5549575"><ele>63.0</ele><time>2026-05-03T13:53:56.103Z</time></trkpt><trkpt lat="45.1966301" lon="9.554661"><ele>63.0</ele><time>2026-05-03T13:53:57.102Z</time></trkpt><trkpt lat="45.1968558" lon="9.5543669"><ele>63.0</ele><time>2026-05-03T13:53:58.103Z</time></trkpt><trkpt lat="45.1970802" lon="9.5540743"><ele>63.0</ele><time>2026-05-03T13:53:59.103Z</time></trkpt><trkpt lat="45.1973027" lon="9.5537815"><ele>62.5</ele><time>2026-05-03T13:54:00.101Z</time></trkpt><trkpt lat="45.1975269" lon="9.5534856"><ele>62.0</ele><time>2026-05-03T13:54:01.103Z</time></trkpt><trkpt lat="45.1977543" lon="9.5531859"><ele>62.0</ele><time>2026-05-03T13:54:02.103Z</time></trkpt><trkpt lat="45.1979765" lon="9.5528887"><ele>62.0</ele><time>2026-05-03T13:54:03.102Z</time></trkpt><trkpt lat="45.1982042" lon="9.5525896"><ele>63.5</ele><time>2026-05-03T13:54:04.102Z</time></trkpt><trkpt lat="45.1984259" lon="9.5522921"><ele>65.0</ele><time>2026-05-03T13:54:05.102Z</time></trkpt><trkpt lat="45.1986464" lon="9.551998"><ele>65.0</ele><time>2026-05-03T13:54:06.102Z</time></trkpt><trkpt lat="45.1988667" lon="9.5517046"><ele>65.0</ele><time>2026-05-03T13:54:07.102Z</time></trkpt><trkpt lat="45.199092" lon="9.5514117"><ele>63.5</ele><time>2026-05-03T13:54:08.103Z</time></trkpt><trkpt lat="45.1993186" lon="9.5511128"><ele>62.0</ele><time>2026-05-03T13:54:09.102Z</time></trkpt><trkpt lat="45.19954" lon="9.5508281"><ele>62.0</ele><time>2026-05-03T13:54:10.102Z</time></trkpt><trkpt lat="45.1997718" lon="9.5505356"><ele>62.0</ele><time>2026-05-03T13:54:11.103Z</time></trkpt><trkpt lat="45.1999978" lon="9.550242"><ele>62.0</ele><time>2026-05-03T13:54:12.101Z</time></trkpt><trkpt lat="45.200221" lon="9.5499519"><ele>62.0</ele><time>2026-05-03T13:54:13.102Z</time></trkpt><trkpt lat="45.2004435" lon="9.5496542"><ele>62.0</ele><time>2026-05-03T13:54:14.103Z</time></trkpt><trkpt lat="45.2006661" lon="9.5493639"><ele>62.0</ele><time>2026-05-03T13:54:15.102Z</time></trkpt><trkpt lat="45.2008865" lon="9.549072"><ele>62.5</ele><time>2026-05-03T13:54:16.103Z</time></trkpt><trkpt lat="45.2011073" lon="9.5487757"><ele>63.0</ele><time>2026-05-03T13:54:17.102Z</time></trkpt><trkpt lat="45.2013258" lon="9.5484788"><ele>62.0</ele><time>2026-05-03T13:54:18.103Z</time></trkpt><trkpt lat="45.2015448" lon="9.548183"><ele>61.0</ele><time>2026-05-03T13:54:19.102Z</time></trkpt><trkpt lat="45.2017728" lon="9.5478798"><ele>61.5</ele><time>2026-05-03T13:54:20.101Z</time></trkpt><trkpt lat="45.2020006" lon="9.5475849"><ele>62.0</ele><time>2026-05-03T13:54:21.103Z</time></trkpt><trkpt lat="45.2022294" lon="9.5472962"><ele>63.0</ele><time>2026-05-03T13:54:22.101Z</time></trkpt><trkpt lat="45.2024577" lon="9.5470101"><ele>64.0</ele><time>2026-05-03T13:54:23.102Z</time></trkpt><trkpt lat="45.2026911" lon="9.5467106"><ele>64.0</ele><time>2026-05-03T13:54:24.102Z</time></trkpt><trkpt lat="45.2029156" lon="9.5464235"><ele>64.0</ele><time>2026-05-03T13:54:25.101Z</time></trkpt><trkpt lat="45.2031393" lon="9.5461313"><ele>64.0</ele><time>2026-05-03T13:54:26.102Z</time></trkpt><trkpt lat="45.2033628" lon="9.5458342"><ele>64.0</ele><time>2026-05-03T13:54:27.102Z</time></trkpt><trkpt lat="45.2035859" lon="9.5455408"><ele>63.5</ele><time>2026-05-03T13:54:28.103Z</time></trkpt><trkpt lat="45.2038102" lon="9.5452464"><ele>63.0</ele><time>2026-05-03T13:54:29.101Z</time></trkpt><trkpt lat="45.2040322" lon="9.544953"><ele>62.5</ele><time>2026-05-03T13:54:30.103Z</time></trkpt><trkpt lat="45.2042548" lon="9.5446597"><ele>62.0</ele><time>2026-05-03T13:54:31.101Z</time></trkpt><trkpt lat="45.204479" lon="9.5443665"><ele>62.0</ele><time>2026-05-03T13:54:32.102Z</time></trkpt><trkpt lat="45.2047016" lon="9.5440751"><ele>62.0</ele><time>2026-05-03T13:54:33.102Z</time></trkpt><trkpt lat="45.2049249" lon="9.5437776"><ele>62.5</ele><time>2026-05-03T13:54:34.102Z</time></trkpt><trkpt lat="45.2051445" lon="9.5434857"><ele>63.0</ele><time>2026-05-03T13:54:35.102Z</time></trkpt><trkpt lat="45.205365" lon="9.5431889"><ele>63.0</ele><time>2026-05-03T13:54:36.102Z</time></trkpt><trkpt lat="45.2055911" lon="9.5428926"><ele>63.0</ele><time>2026-05-03T13:54:37.101Z</time></trkpt><trkpt lat="45.2058216" lon="9.542589"><ele>64.0</ele><time>2026-05-03T13:54:38.102Z</time></trkpt><trkpt lat="45.2060444" lon="9.5422907"><ele>65.0</ele><time>2026-05-03T13:54:39.102Z</time></trkpt><trkpt lat="45.2062593" lon="9.5419992"><ele>65.0</ele><time>2026-05-03T13:54:40.102Z</time></trkpt><trkpt lat="45.2064733" lon="9.5417171"><ele>65.0</ele><time>2026-05-03T13:54:41.101Z</time></trkpt><trkpt lat="45.2066743" lon="9.5414469"><ele>64.0</ele><time>2026-05-03T13:54:42.103Z</time></trkpt><trkpt lat="45.2068822" lon="9.5411763"><ele>63.0</ele><time>2026-05-03T13:54:43.102Z</time></trkpt><trkpt lat="45.2070911" lon="9.5409012"><ele>63.0</ele><time>2026-05-03T13:54:44.102Z</time></trkpt><trkpt lat="45.2073023" lon="9.5406263"><ele>63.0</ele><time>2026-05-03T13:54:45.1Z</time></trkpt><trkpt lat="45.2075156" lon="9.5403489"><ele>64.0</ele><time>2026-05-03T13:54:46.103Z</time></trkpt><trkpt lat="45.2077433" lon="9.5400668"><ele>65.0</ele><time>2026-05-03T13:54:47.102Z</time></trkpt><trkpt lat="45.2079668" lon="9.5397813"><ele>64.5</ele><time>2026-05-03T13:54:48.102Z</time></trkpt><trkpt lat="45.2081859" lon="9.539489"><ele>64.0</ele><time>2026-05-03T13:54:49.103Z</time></trkpt><trkpt lat="45.2084116" lon="9.539202"><ele>64.0</ele><time>2026-05-03T13:54:50.103Z</time></trkpt><trkpt lat="45.2086333" lon="9.5389112"><ele>64.0</ele><time>2026-05-03T13:54:51.103Z</time></trkpt><trkpt lat="45.2088523" lon="9.5386227"><ele>64.5</ele><time>2026-05-03T13:54:52.103Z</time></trkpt><trkpt lat="45.2090701" lon="9.5383338"><ele>65.0</ele><time>2026-05-03T13:54:53.102Z</time></trkpt><trkpt lat="45.2092904" lon="9.5380398"><ele>65.0</ele><time>2026-05-03T13:54:54.102Z</time></trkpt><trkpt lat="45.2095098" lon="9.537744"><ele>65.0</ele><time>2026-05-03T13:54:55.103Z</time></trkpt><trkpt lat="45.2097349" lon="9.5374511"><ele>65.0</ele><time>2026-05-03T13:54:56.102Z</time></trkpt><trkpt lat="45.2099593" lon="9.5371612"><ele>65.0</ele><time>2026-05-03T13:54:57.102Z</time></trkpt><trkpt lat="45.210181" lon="9.5368708"><ele>64.5</ele><time>2026-05-03T13:54:58.103Z</time></trkpt><trkpt lat="45.2104004" lon="9.5365726"><ele>64.0</ele><time>2026-05-03T13:54:59.103Z</time></trkpt><trkpt lat="45.2106217" lon="9.5362775"><ele>64.0</ele><time>2026-05-03T13:55:00.103Z</time></trkpt><trkpt lat="45.2108418" lon="9.5359813"><ele>64.0</ele><time>2026-05-03T13:55:01.103Z</time></trkpt><trkpt lat="45.2110659" lon="9.5356832"><ele>64.0</ele><time>2026-05-03T13:55:02.102Z</time></trkpt><trkpt lat="45.2112827" lon="9.5353915"><ele>64.0</ele><time>2026-05-03T13:55:03.103Z</time></trkpt><trkpt lat="45.2114944" lon="9.5351015"><ele>64.5</ele><time>2026-05-03T13:55:04.102Z</time></trkpt><trkpt lat="45.2117136" lon="9.5348196"><ele>65.0</ele><time>2026-05-03T13:55:05.102Z</time></trkpt><trkpt lat="45.2119343" lon="9.5345415"><ele>65.0</ele><time>2026-05-03T13:55:06.103Z</time></trkpt><trkpt lat="45.2121521" lon="9.5342675"><ele>65.0</ele><time>2026-05-03T13:55:07.103Z</time></trkpt><trkpt lat="45.2123719" lon="9.5339869"><ele>65.0</ele><time>2026-05-03T13:55:08.099Z</time></trkpt><trkpt lat="45.2125872" lon="9.533709"><ele>65.0</ele><time>2026-05-03T13:55:09.102Z</time></trkpt><trkpt lat="45.2127972" lon="9.5334292"><ele>65.0</ele><time>2026-05-03T13:55:10.102Z</time></trkpt><trkpt lat="45.213009" lon="9.5331459"><ele>65.0</ele><time>2026-05-03T13:55:11.102Z</time></trkpt><trkpt lat="45.2132214" lon="9.5328628"><ele>64.5</ele><time>2026-05-03T13:55:12.103Z</time></trkpt><trkpt lat="45.2134368" lon="9.5325745"><ele>64.0</ele><time>2026-05-03T13:55:13.102Z</time></trkpt><trkpt lat="45.2136573" lon="9.532285"><ele>64.5</ele><time>2026-05-03T13:55:14.102Z</time></trkpt><trkpt lat="45.2138753" lon="9.5319982"><ele>65.0</ele><time>2026-05-03T13:55:15.103Z</time></trkpt><trkpt lat="45.2140913" lon="9.5317156"><ele>65.0</ele><time>2026-05-03T13:55:16.103Z</time></trkpt><trkpt lat="45.2143096" lon="9.5314315"><ele>65.0</ele><time>2026-05-03T13:55:17.102Z</time></trkpt><trkpt lat="45.2145305" lon="9.5311495"><ele>65.0</ele><time>2026-05-03T13:55:18.103Z</time></trkpt><trkpt lat="45.2147486" lon="9.5308574"><ele>65.0</ele><time>2026-05-03T13:55:19.102Z</time></trkpt><trkpt lat="45.2149774" lon="9.530555"><ele>64.5</ele><time>2026-05-03T13:55:20.103Z</time></trkpt><trkpt lat="45.2152008" lon="9.5302608"><ele>64.0</ele><time>2026-05-03T13:55:21.102Z</time></trkpt><trkpt lat="45.2154252" lon="9.5299677"><ele>64.5</ele><time>2026-05-03T13:55:22.102Z</time></trkpt><trkpt lat="45.2156537" lon="9.5296681"><ele>65.0</ele><time>2026-05-03T13:55:23.103Z</time></trkpt><trkpt lat="45.2158804" lon="9.5293657"><ele>66.5</ele><time>2026-05-03T13:55:24.103Z</time></trkpt><trkpt lat="45.2161052" lon="9.529066"><ele>68.0</ele><time>2026-05-03T13:55:25.103Z</time></trkpt><trkpt lat="45.2163281" lon="9.5287698"><ele>66.5</ele><time>2026-05-03T13:55:26.103Z</time></trkpt><trkpt lat="45.2165531" lon="9.5284721"><ele>65.0</ele><time>2026-05-03T13:55:27.103Z</time></trkpt><trkpt lat="45.2167778" lon="9.5281726"><ele>65.0</ele><time>2026-05-03T13:55:28.102Z</time></trkpt><trkpt lat="45.2170016" lon="9.5278794"><ele>65.0</ele><time>2026-05-03T13:55:29.102Z</time></trkpt><trkpt lat="45.217227" lon="9.5275817"><ele>65.0</ele><time>2026-05-03T13:55:30.102Z</time></trkpt><trkpt lat="45.2174547" lon="9.5272872"><ele>65.0</ele><time>2026-05-03T13:55:31.103Z</time></trkpt><trkpt lat="45.2176812" lon="9.5269899"><ele>65.0</ele><time>2026-05-03T13:55:32.102Z</time></trkpt><trkpt lat="45.2179096" lon="9.5266887"><ele>65.0</ele><time>2026-05-03T13:55:33.103Z</time></trkpt><trkpt lat="45.2181422" lon="9.5263915"><ele>65.5</ele><time>2026-05-03T13:55:34.103Z</time></trkpt><trkpt lat="45.2183701" lon="9.5260957"><ele>66.0</ele><time>2026-05-03T13:55:35.103Z</time></trkpt><trkpt lat="45.2185961" lon="9.5258003"><ele>66.0</ele><time>2026-05-03T13:55:36.102Z</time></trkpt><trkpt lat="45.2188271" lon="9.525502"><ele>66.0</ele><time>2026-05-03T13:55:37.102Z</time></trkpt><trkpt lat="45.2190528" lon="9.5252057"><ele>65.5</ele><time>2026-05-03T13:55:38.101Z</time></trkpt><trkpt lat="45.2192798" lon="9.5249044"><ele>65.0</ele><time>2026-05-03T13:55:39.103Z</time></trkpt><trkpt lat="45.2195113" lon="9.5246097"><ele>65.0</ele><time>2026-05-03T13:55:40.103Z</time></trkpt><trkpt lat="45.2197355" lon="9.5243136"><ele>65.0</ele><time>2026-05-03T13:55:41.103Z</time></trkpt><trkpt lat="45.219961" lon="9.5240147"><ele>65.5</ele><time>2026-05-03T13:55:42.102Z</time></trkpt><trkpt lat="45.2201815" lon="9.5237176"><ele>66.0</ele><time>2026-05-03T13:55:43.103Z</time></trkpt><trkpt lat="45.220407" lon="9.5234243"><ele>66.0</ele><time>2026-05-03T13:55:44.103Z</time></trkpt><trkpt lat="45.2206342" lon="9.5231264"><ele>66.0</ele><time>2026-05-03T13:55:45.102Z</time></trkpt><trkpt lat="45.2208625" lon="9.522826"><ele>66.0</ele><time>2026-05-03T13:55:46.103Z</time></trkpt><trkpt lat="45.2210925" lon="9.5225225"><ele>66.0</ele><time>2026-05-03T13:55:47.103Z</time></trkpt><trkpt lat="45.2213289" lon="9.5222143"><ele>66.5</ele><time>2026-05-03T13:55:48.103Z</time></trkpt><trkpt lat="45.2215625" lon="9.5219141"><ele>67.0</ele><time>2026-05-03T13:55:49.103Z</time></trkpt><trkpt lat="45.2217919" lon="9.5216129"><ele>67.0</ele><time>2026-05-03T13:55:50.102Z</time></trkpt><trkpt lat="45.2220183" lon="9.5213087"><ele>67.0</ele><time>2026-05-03T13:55:51.102Z</time></trkpt><trkpt lat="45.2222525" lon="9.5209998"><ele>66.5</ele><time>2026-05-03T13:55:52.102Z</time></trkpt><trkpt lat="45.2224818" lon="9.5206965"><ele>66.0</ele><time>2026-05-03T13:55:53.102Z</time></trkpt><trkpt lat="45.2227215" lon="9.5203907"><ele>65.5</ele><time>2026-05-03T13:55:54.102Z</time></trkpt><trkpt lat="45.2229585" lon="9.5200858"><ele>65.0</ele><time>2026-05-03T13:55:55.102Z</time></trkpt><trkpt lat="45.223193" lon="9.5197782"><ele>66.0</ele><time>2026-05-03T13:55:56.102Z</time></trkpt><trkpt lat="45.2234278" lon="9.5194693"><ele>67.0</ele><time>2026-05-03T13:55:57.102Z</time></trkpt><trkpt lat="45.223661" lon="9.5191614"><ele>67.0</ele><time>2026-05-03T13:55:58.102Z</time></trkpt><trkpt lat="45.2238888" lon="9.5188591"><ele>67.0</ele><time>2026-05-03T13:55:59.102Z</time></trkpt><trkpt lat="45.2241212" lon="9.5185466"><ele>67.5</ele><time>2026-05-03T13:56:00.103Z</time></trkpt><trkpt lat="45.224347" lon="9.5182392"><ele>68.0</ele><time>2026-05-03T13:56:01.103Z</time></trkpt><trkpt lat="45.2245806" lon="9.5179294"><ele>66.5</ele><time>2026-05-03T13:56:02.103Z</time></trkpt><trkpt lat="45.2248144" lon="9.517625"><ele>65.0</ele><time>2026-05-03T13:56:03.103Z</time></trkpt><trkpt lat="45.225043" lon="9.5173171"><ele>65.5</ele><time>2026-05-03T13:56:04.102Z</time></trkpt><trkpt lat="45.2252781" lon="9.5170079"><ele>66.0</ele><time>2026-05-03T13:56:05.103Z</time></trkpt><trkpt lat="45.2255116" lon="9.5166894"><ele>65.5</ele><time>2026-05-03T13:56:06.102Z</time></trkpt><trkpt lat="45.2257412" lon="9.5163746"><ele>65.0</ele><time>2026-05-03T13:56:07.103Z</time></trkpt><trkpt lat="45.2259667" lon="9.5160593"><ele>66.0</ele><time>2026-05-03T13:56:08.103Z</time></trkpt><trkpt lat="45.226194" lon="9.5157472"><ele>67.0</ele><time>2026-05-03T13:56:09.103Z</time></trkpt><trkpt lat="45.2264272" lon="9.5154338"><ele>66.5</ele><time>2026-05-03T13:56:10.103Z</time></trkpt><trkpt lat="45.2266607" lon="9.5151204"><ele>66.0</ele><time>2026-05-03T13:56:11.102Z</time></trkpt><trkpt lat="45.2268993" lon="9.5148034"><ele>66.0</ele><time>2026-05-03T13:56:12.102Z</time></trkpt><trkpt lat="45.2271356" lon="9.5144897"><ele>66.0</ele><time>2026-05-03T13:56:13.103Z</time></trkpt><trkpt lat="45.2273754" lon="9.5141764"><ele>66.0</ele><time>2026-05-03T13:56:14.103Z</time></trkpt><trkpt lat="45.2276138" lon="9.5138641"><ele>66.0</ele><time>2026-05-03T13:56:15.103Z</time></trkpt><trkpt lat="45.2278479" lon="9.5135503"><ele>66.0</ele><time>2026-05-03T13:56:16.103Z</time></trkpt><trkpt lat="45.2280824" lon="9.5132353"><ele>66.0</ele><time>2026-05-03T13:56:17.102Z</time></trkpt><trkpt lat="45.2283161" lon="9.5129297"><ele>67.5</ele><time>2026-05-03T13:56:18.103Z</time></trkpt><trkpt lat="45.2285495" lon="9.5126179"><ele>69.0</ele><time>2026-05-03T13:56:19.102Z</time></trkpt><trkpt lat="45.2287824" lon="9.512313"><ele>68.5</ele><time>2026-05-03T13:56:20.102Z</time></trkpt><trkpt lat="45.2290116" lon="9.5120056"><ele>68.0</ele><time>2026-05-03T13:56:21.103Z</time></trkpt><trkpt lat="45.2292399" lon="9.5117058"><ele>68.0</ele><time>2026-05-03T13:56:22.103Z</time></trkpt><trkpt lat="45.2294718" lon="9.5114042"><ele>68.0</ele><time>2026-05-03T13:56:23.102Z</time></trkpt><trkpt lat="45.2296993" lon="9.5111023"><ele>68.0</ele><time>2026-05-03T13:56:24.102Z</time></trkpt><trkpt lat="45.2299251" lon="9.5108039"><ele>68.0</ele><time>2026-05-03T13:56:25.102Z</time></trkpt><trkpt lat="45.2301548" lon="9.5105047"><ele>68.0</ele><time>2026-05-03T13:56:26.103Z</time></trkpt><trkpt lat="45.2303827" lon="9.5102054"><ele>68.0</ele><time>2026-05-03T13:56:27.102Z</time></trkpt><trkpt lat="45.2306062" lon="9.5099127"><ele>67.5</ele><time>2026-05-03T13:56:28.103Z</time></trkpt><trkpt lat="45.2308328" lon="9.5096193"><ele>67.0</ele><time>2026-05-03T13:56:29.103Z</time></trkpt><trkpt lat="45.23106" lon="9.5093233"><ele>67.0</ele><time>2026-05-03T13:56:30.103Z</time></trkpt><trkpt lat="45.2312886" lon="9.5090345"><ele>67.0</ele><time>2026-05-03T13:56:31.102Z</time></trkpt><trkpt lat="45.2315169" lon="9.5087433"><ele>67.0</ele><time>2026-05-03T13:56:32.102Z</time></trkpt><trkpt lat="45.2317418" lon="9.5084482"><ele>67.0</ele><time>2026-05-03T13:56:33.102Z</time></trkpt><trkpt lat="45.231969" lon="9.5081582"><ele>67.5</ele><time>2026-05-03T13:56:34.102Z</time></trkpt><trkpt lat="45.2321963" lon="9.5078679"><ele>68.0</ele><time>2026-05-03T13:56:35.102Z</time></trkpt><trkpt lat="45.2324235" lon="9.5075758"><ele>68.0</ele><time>2026-05-03T13:56:36.103Z</time></trkpt><trkpt lat="45.232654" lon="9.5072869"><ele>68.0</ele><time>2026-05-03T13:56:37.103Z</time></trkpt><trkpt lat="45.2328836" lon="9.5069932"><ele>68.0</ele><time>2026-05-03T13:56:38.102Z</time></trkpt><trkpt lat="45.2331109" lon="9.5067053"><ele>68.0</ele><time>2026-05-03T13:56:39.102Z</time></trkpt><trkpt lat="45.2333455" lon="9.5064176"><ele>68.0</ele><time>2026-05-03T13:56:40.103Z</time></trkpt><trkpt lat="45.2335697" lon="9.5061251"><ele>68.0</ele><time>2026-05-03T13:56:41.103Z</time></trkpt><trkpt lat="45.2337988" lon="9.5058332"><ele>68.0</ele><time>2026-05-03T13:56:42.102Z</time></trkpt><trkpt lat="45.2340251" lon="9.5055389"><ele>68.0</ele><time>2026-05-03T13:56:43.102Z</time></trkpt><trkpt lat="45.2342507" lon="9.5052424"><ele>68.0</ele><time>2026-05-03T13:56:44.102Z</time></trkpt><trkpt lat="45.2344781" lon="9.5049459"><ele>68.0</ele><time>2026-05-03T13:56:45.103Z</time></trkpt><trkpt lat="45.2347086" lon="9.5046504"><ele>68.0</ele><time>2026-05-03T13:56:46.102Z</time></trkpt><trkpt lat="45.2349369" lon="9.5043501"><ele>68.0</ele><time>2026-05-03T13:56:47.103Z</time></trkpt><trkpt lat="45.235164" lon="9.5040536"><ele>68.0</ele><time>2026-05-03T13:56:48.102Z</time></trkpt><trkpt lat="45.2353931" lon="9.5037536"><ele>68.0</ele><time>2026-05-03T13:56:49.102Z</time></trkpt><trkpt lat="45.2356164" lon="9.5034575"><ele>69.5</ele><time>2026-05-03T13:56:50.102Z</time></trkpt><trkpt lat="45.235842" lon="9.5031613"><ele>71.0</ele><time>2026-05-03T13:56:51.102Z</time></trkpt><trkpt lat="45.2360623" lon="9.5028605"><ele>71.0</ele><time>2026-05-03T13:56:52.103Z</time></trkpt><trkpt lat="45.2362842" lon="9.5025634"><ele>71.0</ele><time>2026-05-03T13:56:53.102Z</time></trkpt><trkpt lat="45.2365118" lon="9.5022685"><ele>71.0</ele><time>2026-05-03T13:56:54.102Z</time></trkpt><trkpt lat="45.2367327" lon="9.5019775"><ele>71.0</ele><time>2026-05-03T13:56:55.102Z</time></trkpt><trkpt lat="45.2369622" lon="9.5016838"><ele>71.0</ele><time>2026-05-03T13:56:56.102Z</time></trkpt><trkpt lat="45.2371868" lon="9.5013859"><ele>71.0</ele><time>2026-05-03T13:56:57.103Z</time></trkpt><trkpt lat="45.2374168" lon="9.5010834"><ele>70.5</ele><time>2026-05-03T13:56:58.103Z</time></trkpt><trkpt lat="45.2376489" lon="9.500787"><ele>70.0</ele><time>2026-05-03T13:56:59.103Z</time></trkpt><trkpt lat="45.2378811" lon="9.5004845"><ele>69.5</ele><time>2026-05-03T13:57:00.103Z</time></trkpt><trkpt lat="45.2381004" lon="9.5001854"><ele>69.0</ele><time>2026-05-03T13:57:01.103Z</time></trkpt><trkpt lat="45.2383229" lon="9.4998806"><ele>69.5</ele><time>2026-05-03T13:57:02.102Z</time></trkpt><trkpt lat="45.2385387" lon="9.4995777"><ele>70.0</ele><time>2026-05-03T13:57:03.103Z</time></trkpt><trkpt lat="45.2387596" lon="9.4992696"><ele>70.0</ele><time>2026-05-03T13:57:04.103Z</time></trkpt><trkpt lat="45.2389758" lon="9.4989644"><ele>70.0</ele><time>2026-05-03T13:57:05.102Z</time></trkpt><trkpt lat="45.2391951" lon="9.4986575"><ele>70.0</ele><time>2026-05-03T13:57:06.103Z</time></trkpt><trkpt lat="45.2394175" lon="9.4983566"><ele>70.0</ele><time>2026-05-03T13:57:07.103Z</time></trkpt><trkpt lat="45.2396438" lon="9.4980538"><ele>70.0</ele><time>2026-05-03T13:57:08.103Z</time></trkpt><trkpt lat="45.2398732" lon="9.4977492"><ele>70.0</ele><time>2026-05-03T13:57:09.102Z</time></trkpt><trkpt lat="45.2400919" lon="9.4974555"><ele>70.0</ele><time>2026-05-03T13:57:10.103Z</time></trkpt><trkpt lat="45.2403037" lon="9.4971693"><ele>70.0</ele><time>2026-05-03T13:57:11.103Z</time></trkpt><trkpt lat="45.2405012" lon="9.4969078"><ele>69.0</ele><time>2026-05-03T13:57:12.103Z</time></trkpt><trkpt lat="45.2406783" lon="9.4966686"><ele>68.0</ele><time>2026-05-03T13:57:13.102Z</time></trkpt><trkpt lat="45.2408443" lon="9.4964485"><ele>68.33333333333334</ele><time>2026-05-03T13:57:14.103Z</time></trkpt><trkpt lat="45.240991" lon="9.4962528"><ele>68.66666666666667</ele><time>2026-05-03T13:57:15.103Z</time></trkpt><trkpt lat="45.2411321" lon="9.4960691"><ele>69.0</ele><time>2026-05-03T13:57:16.102Z</time></trkpt><trkpt lat="45.2412779" lon="9.4958927"><ele>69.0</ele><time>2026-05-03T13:57:17.102Z</time></trkpt><trkpt lat="45.2414263" lon="9.495704"><ele>69.0</ele><time>2026-05-03T13:57:18.102Z</time></trkpt><trkpt lat="45.2415864" lon="9.4955034"><ele>69.0</ele><time>2026-05-03T13:57:19.103Z</time></trkpt><trkpt lat="45.2417424" lon="9.4953066"><ele>69.0</ele><time>2026-05-03T13:57:20.102Z</time></trkpt><trkpt lat="45.2418992" lon="9.4951026"><ele>69.0</ele><time>2026-05-03T13:57:21.102Z</time></trkpt><trkpt lat="45.2420596" lon="9.494897"><ele>69.0</ele><time>2026-05-03T13:57:22.103Z</time></trkpt><trkpt lat="45.2422218" lon="9.4946947"><ele>69.0</ele><time>2026-05-03T13:57:23.103Z</time></trkpt><trkpt lat="45.2423822" lon="9.4944832"><ele>69.0</ele><time>2026-05-03T13:57:24.103Z</time></trkpt><trkpt lat="45.2425458" lon="9.4942707"><ele>69.0</ele><time>2026-05-03T13:57:25.103Z</time></trkpt><trkpt lat="45.2427117" lon="9.4940524"><ele>69.0</ele><time>2026-05-03T13:57:26.102Z</time></trkpt><trkpt lat="45.2428812" lon="9.4938316"><ele>69.0</ele><time>2026-05-03T13:57:27.103Z</time></trkpt><trkpt lat="45.2430541" lon="9.4936068"><ele>69.5</ele><time>2026-05-03T13:57:28.103Z</time></trkpt><trkpt lat="45.2432322" lon="9.4933758"><ele>70.0</ele><time>2026-05-03T13:57:29.102Z</time></trkpt><trkpt lat="45.2434081" lon="9.4931375"><ele>71.0</ele><time>2026-05-03T13:57:30.102Z</time></trkpt><trkpt lat="45.2435882" lon="9.4928981"><ele>72.0</ele><time>2026-05-03T13:57:31.103Z</time></trkpt><trkpt lat="45.24377" lon="9.4926522"><ele>72.0</ele><time>2026-05-03T13:57:32.102Z</time></trkpt><trkpt lat="45.2439577" lon="9.4924056"><ele>72.0</ele><time>2026-05-03T13:57:33.102Z</time></trkpt><trkpt lat="45.2441436" lon="9.4921572"><ele>71.0</ele><time>2026-05-03T13:57:34.103Z</time></trkpt><trkpt lat="45.2443341" lon="9.4919067"><ele>70.0</ele><time>2026-05-03T13:57:35.103Z</time></trkpt><trkpt lat="45.2445259" lon="9.4916496"><ele>70.0</ele><time>2026-05-03T13:57:36.103Z</time></trkpt><trkpt lat="45.2447303" lon="9.4913892"><ele>70.0</ele><time>2026-05-03T13:57:37.102Z</time></trkpt><trkpt lat="45.2449368" lon="9.4911205"><ele>69.5</ele><time>2026-05-03T13:57:38.102Z</time></trkpt><trkpt lat="45.2451531" lon="9.4908385"><ele>69.0</ele><time>2026-05-03T13:57:39.102Z</time></trkpt><trkpt lat="45.2453674" lon="9.4905596"><ele>69.5</ele><time>2026-05-03T13:57:40.103Z</time></trkpt><trkpt lat="45.2455846" lon="9.4902739"><ele>70.0</ele><time>2026-05-03T13:57:41.102Z</time></trkpt><trkpt lat="45.2457984" lon="9.4899867"><ele>70.0</ele><time>2026-05-03T13:57:42.102Z</time></trkpt><trkpt lat="45.2460164" lon="9.4896947"><ele>70.0</ele><time>2026-05-03T13:57:43.103Z</time></trkpt><trkpt lat="45.2462345" lon="9.4893971"><ele>70.5</ele><time>2026-05-03T13:57:44.103Z</time></trkpt><trkpt lat="45.2464564" lon="9.4890984"><ele>71.0</ele><time>2026-05-03T13:57:45.103Z</time></trkpt><trkpt lat="45.2466802" lon="9.4887982"><ele>71.5</ele><time>2026-05-03T13:57:46.103Z</time></trkpt><trkpt lat="45.2469125" lon="9.4884864"><ele>72.0</ele><time>2026-05-03T13:57:47.102Z</time></trkpt><trkpt lat="45.2471498" lon="9.4881823"><ele>71.0</ele><time>2026-05-03T13:57:48.102Z</time></trkpt><trkpt lat="45.2473853" lon="9.4878683"><ele>70.0</ele><time>2026-05-03T13:57:49.102Z</time></trkpt><trkpt lat="45.2476282" lon="9.4875523"><ele>70.0</ele><time>2026-05-03T13:57:50.103Z</time></trkpt><trkpt lat="45.2478678" lon="9.4872318"><ele>70.0</ele><time>2026-05-03T13:57:51.103Z</time></trkpt><trkpt lat="45.2481083" lon="9.4869221"><ele>69.5</ele><time>2026-05-03T13:57:52.102Z</time></trkpt><trkpt lat="45.2483381" lon="9.4866153"><ele>69.0</ele><time>2026-05-03T13:57:53.103Z</time></trkpt><trkpt lat="45.2485699" lon="9.4863124"><ele>69.0</ele><time>2026-05-03T13:57:54.103Z</time></trkpt><trkpt lat="45.2488022" lon="9.4860083"><ele>69.0</ele><time>2026-05-03T13:57:55.103Z</time></trkpt><trkpt lat="45.2490305" lon="9.4857087"><ele>69.0</ele><time>2026-05-03T13:57:56.103Z</time></trkpt><trkpt lat="45.2492535" lon="9.4854058"><ele>69.0</ele><time>2026-05-03T13:57:57.102Z</time></trkpt><trkpt lat="45.2494823" lon="9.4851043"><ele>69.0</ele><time>2026-05-03T13:57:58.103Z</time></trkpt><trkpt lat="45.2497076" lon="9.4848072"><ele>69.0</ele><time>2026-05-03T13:57:59.101Z</time></trkpt><trkpt lat="45.2499318" lon="9.4845143"><ele>69.5</ele><time>2026-05-03T13:58:00.103Z</time></trkpt><trkpt lat="45.250156" lon="9.4842238"><ele>70.0</ele><time>2026-05-03T13:58:01.102Z</time></trkpt><trkpt lat="45.2503798" lon="9.4839311"><ele>70.0</ele><time>2026-05-03T13:58:02.103Z</time></trkpt><trkpt lat="45.2506068" lon="9.4836301"><ele>70.0</ele><time>2026-05-03T13:58:03.1Z</time></trkpt><trkpt lat="45.2508336" lon="9.4833334"><ele>70.5</ele><time>2026-05-03T13:58:04.103Z</time></trkpt><trkpt lat="45.2510616" lon="9.4830394"><ele>71.0</ele><time>2026-05-03T13:58:05.102Z</time></trkpt><trkpt lat="45.2512851" lon="9.482745"><ele>70.5</ele><time>2026-05-03T13:58:06.103Z</time></trkpt><trkpt lat="45.2515112" lon="9.4824501"><ele>70.0</ele><time>2026-05-03T13:58:07.103Z</time></trkpt><trkpt lat="45.2517347" lon="9.4821551"><ele>70.5</ele><time>2026-05-03T13:58:08.102Z</time></trkpt><trkpt lat="45.2519597" lon="9.4818531"><ele>71.0</ele><time>2026-05-03T13:58:09.102Z</time></trkpt><trkpt lat="45.2521845" lon="9.4815561"><ele>71.0</ele><time>2026-05-03T13:58:10.102Z</time></trkpt><trkpt lat="45.2524071" lon="9.4812586"><ele>71.0</ele><time>2026-05-03T13:58:11.103Z</time></trkpt><trkpt lat="45.252623" lon="9.4809672"><ele>71.0</ele><time>2026-05-03T13:58:12.102Z</time></trkpt><trkpt lat="45.252846" lon="9.4806763"><ele>71.0</ele><time>2026-05-03T13:58:13.103Z</time></trkpt><trkpt lat="45.2530782" lon="9.4803813"><ele>71.0</ele><time>2026-05-03T13:58:14.102Z</time></trkpt><trkpt lat="45.253306" lon="9.4800859"><ele>71.0</ele><time>2026-05-03T13:58:15.103Z</time></trkpt><trkpt lat="45.2535382" lon="9.4797892"><ele>71.0</ele><time>2026-05-03T13:58:16.1Z</time></trkpt><trkpt lat="45.2537676" lon="9.4794882"><ele>71.0</ele><time>2026-05-03T13:58:17.102Z</time></trkpt><trkpt lat="45.2539953" lon="9.4791947"><ele>71.5</ele><time>2026-05-03T13:58:18.103Z</time></trkpt><trkpt lat="45.2542221" lon="9.4788923"><ele>72.0</ele><time>2026-05-03T13:58:19.103Z</time></trkpt><trkpt lat="45.2544493" lon="9.4785943"><ele>72.0</ele><time>2026-05-03T13:58:20.103Z</time></trkpt><trkpt lat="45.2546716" lon="9.4782933"><ele>72.0</ele><time>2026-05-03T13:58:21.103Z</time></trkpt><trkpt lat="45.2548914" lon="9.477992"><ele>72.0</ele><time>2026-05-03T13:58:22.103Z</time></trkpt><trkpt lat="45.2551182" lon="9.4776967"><ele>72.0</ele><time>2026-05-03T13:58:23.103Z</time></trkpt><trkpt lat="45.2553484" lon="9.4774003"><ele>72.0</ele><time>2026-05-03T13:58:24.101Z</time></trkpt><trkpt lat="45.2555738" lon="9.4771038"><ele>72.0</ele><time>2026-05-03T13:58:25.103Z</time></trkpt><trkpt lat="45.2557965" lon="9.476807"><ele>71.5</ele><time>2026-05-03T13:58:26.102Z</time></trkpt><trkpt lat="45.2560217" lon="9.4765074"><ele>71.0</ele><time>2026-05-03T13:58:27.103Z</time></trkpt><trkpt lat="45.256248" lon="9.4762118"><ele>70.5</ele><time>2026-05-03T13:58:28.102Z</time></trkpt><trkpt lat="45.2564735" lon="9.4759146"><ele>70.0</ele><time>2026-05-03T13:58:29.103Z</time></trkpt><trkpt lat="45.2566863" lon="9.4756292"><ele>69.5</ele><time>2026-05-03T13:58:30.103Z</time></trkpt><trkpt lat="45.2568862" lon="9.4753657"><ele>69.0</ele><time>2026-05-03T13:58:31.102Z</time></trkpt><trkpt lat="45.2570755" lon="9.4751181"><ele>69.0</ele><time>2026-05-03T13:58:32.103Z</time></trkpt><trkpt lat="45.2572578" lon="9.4748724"><ele>69.0</ele><time>2026-05-03T13:58:33.102Z</time></trkpt><trkpt lat="45.2574338" lon="9.4746341"><ele>69.5</ele><time>2026-05-03T13:58:34.102Z</time></trkpt><trkpt lat="45.257613" lon="9.4744014"><ele>70.0</ele><time>2026-05-03T13:58:35.102Z</time></trkpt><trkpt lat="45.2577926" lon="9.4741729"><ele>70.0</ele><time>2026-05-03T13:58:36.103Z</time></trkpt><trkpt lat="45.2579736" lon="9.4739486"><ele>70.0</ele><time>2026-05-03T13:58:37.102Z</time></trkpt><trkpt lat="45.2581443" lon="9.4737228"><ele>70.5</ele><time>2026-05-03T13:58:38.102Z</time></trkpt><trkpt lat="45.2583201" lon="9.4734921"><ele>71.0</ele><time>2026-05-03T13:58:39.102Z</time></trkpt><trkpt lat="45.2584929" lon="9.4732668"><ele>71.0</ele><time>2026-05-03T13:58:40.1Z</time></trkpt><trkpt lat="45.258668" lon="9.4730423"><ele>71.0</ele><time>2026-05-03T13:58:41.103Z</time></trkpt><trkpt lat="45.2588386" lon="9.472808"><ele>70.0</ele><time>2026-05-03T13:58:42.102Z</time></trkpt><trkpt lat="45.2590143" lon="9.4725773"><ele>69.0</ele><time>2026-05-03T13:58:43.102Z</time></trkpt><trkpt lat="45.2591966" lon="9.4723394"><ele>69.0</ele><time>2026-05-03T13:58:44.102Z</time></trkpt><trkpt lat="45.259383" lon="9.4720926"><ele>69.0</ele><time>2026-05-03T13:58:45.103Z</time></trkpt><trkpt lat="45.2595617" lon="9.4718606"><ele>69.0</ele><time>2026-05-03T13:58:46.102Z</time></trkpt><trkpt lat="45.2597349" lon="9.4716318"><ele>69.0</ele><time>2026-05-03T13:58:47.102Z</time></trkpt><trkpt lat="45.2599086" lon="9.4714039"><ele>70.0</ele><time>2026-05-03T13:58:48.102Z</time></trkpt><trkpt lat="45.2600822" lon="9.471185"><ele>71.0</ele><time>2026-05-03T13:58:49.101Z</time></trkpt><trkpt lat="45.2602544" lon="9.4709532"><ele>71.0</ele><time>2026-05-03T13:58:50.103Z</time></trkpt><trkpt lat="45.260434" lon="9.4707183"><ele>71.0</ele><time>2026-05-03T13:58:51.103Z</time></trkpt><trkpt lat="45.2606228" lon="9.4704675"><ele>71.0</ele><time>2026-05-03T13:58:52.103Z</time></trkpt><trkpt lat="45.2608008" lon="9.4702253"><ele>71.0</ele><time>2026-05-03T13:58:53.102Z</time></trkpt><trkpt lat="45.2609781" lon="9.4699917"><ele>71.0</ele><time>2026-05-03T13:58:54.102Z</time></trkpt><trkpt lat="45.2611536" lon="9.4697631"><ele>71.0</ele><time>2026-05-03T13:58:55.102Z</time></trkpt><trkpt lat="45.2613281" lon="9.4695415"><ele>71.5</ele><time>2026-05-03T13:58:56.102Z</time></trkpt><trkpt lat="45.2615041" lon="9.4693095"><ele>72.0</ele><time>2026-05-03T13:58:57.103Z</time></trkpt><trkpt lat="45.2616912" lon="9.4690624"><ele>72.0</ele><time>2026-05-03T13:58:58.102Z</time></trkpt><trkpt lat="45.2618756" lon="9.4688208"><ele>72.0</ele><time>2026-05-03T13:58:59.103Z</time></trkpt><trkpt lat="45.2620612" lon="9.4685783"><ele>72.5</ele><time>2026-05-03T13:59:00.103Z</time></trkpt><trkpt lat="45.2622453" lon="9.4683392"><ele>73.0</ele><time>2026-05-03T13:59:01.102Z</time></trkpt><trkpt lat="45.2624272" lon="9.4681004"><ele>73.0</ele><time>2026-05-03T13:59:02.103Z</time></trkpt><trkpt lat="45.2626054" lon="9.4678597"><ele>73.0</ele><time>2026-05-03T13:59:03.102Z</time></trkpt><trkpt lat="45.2627836" lon="9.4676187"><ele>73.0</ele><time>2026-05-03T13:59:04.102Z</time></trkpt><trkpt lat="45.2629703" lon="9.4673824"><ele>73.0</ele><time>2026-05-03T13:59:05.102Z</time></trkpt><trkpt lat="45.2631562" lon="9.4671388"><ele>74.0</ele><time>2026-05-03T13:59:06.103Z</time></trkpt><trkpt lat="45.2633376" lon="9.4669039"><ele>75.0</ele><time>2026-05-03T13:59:07.102Z</time></trkpt><trkpt lat="45.2635189" lon="9.4666639"><ele>75.0</ele><time>2026-05-03T13:59:08.103Z</time></trkpt><trkpt lat="45.2637095" lon="9.4664216"><ele>75.0</ele><time>2026-05-03T13:59:09.102Z</time></trkpt><trkpt lat="45.2638963" lon="9.4661777"><ele>73.5</ele><time>2026-05-03T13:59:10.103Z</time></trkpt><trkpt lat="45.2640824" lon="9.4659318"><ele>72.0</ele><time>2026-05-03T13:59:11.103Z</time></trkpt><trkpt lat="45.264271" lon="9.4656858"><ele>72.0</ele><time>2026-05-03T13:59:12.103Z</time></trkpt><trkpt lat="45.2644616" lon="9.4654313"><ele>72.0</ele><time>2026-05-03T13:59:13.103Z</time></trkpt><trkpt lat="45.2646584" lon="9.4651744"><ele>71.5</ele><time>2026-05-03T13:59:14.103Z</time></trkpt><trkpt lat="45.2648554" lon="9.4649128"><ele>71.0</ele><time>2026-05-03T13:59:15.103Z</time></trkpt><trkpt lat="45.265058" lon="9.4646538"><ele>72.0</ele><time>2026-05-03T13:59:16.103Z</time></trkpt><trkpt lat="45.2652665" lon="9.4643859"><ele>73.0</ele><time>2026-05-03T13:59:17.103Z</time></trkpt><trkpt lat="45.2654717" lon="9.4641146"><ele>72.5</ele><time>2026-05-03T13:59:18.102Z</time></trkpt><trkpt lat="45.2656789" lon="9.4638497"><ele>72.0</ele><time>2026-05-03T13:59:19.103Z</time></trkpt><trkpt lat="45.2658812" lon="9.4635764"><ele>72.0</ele><time>2026-05-03T13:59:20.103Z</time></trkpt><trkpt lat="45.2660928" lon="9.4632952"><ele>72.0</ele><time>2026-05-03T13:59:21.103Z</time></trkpt><trkpt lat="45.2663076" lon="9.4630117"><ele>72.5</ele><time>2026-05-03T13:59:22.103Z</time></trkpt><trkpt lat="45.2665225" lon="9.4627248"><ele>73.0</ele><time>2026-05-03T13:59:23.103Z</time></trkpt><trkpt lat="45.2667418" lon="9.4624327"><ele>73.0</ele><time>2026-05-03T13:59:24.103Z</time></trkpt><trkpt lat="45.2669582" lon="9.4621466"><ele>73.0</ele><time>2026-05-03T13:59:25.103Z</time></trkpt><trkpt lat="45.2671782" lon="9.4618637"><ele>72.5</ele><time>2026-05-03T13:59:26.102Z</time></trkpt><trkpt lat="45.2673914" lon="9.4615806"><ele>72.0</ele><time>2026-05-03T13:59:27.102Z</time></trkpt><trkpt lat="45.2676038" lon="9.4613007"><ele>72.5</ele><time>2026-05-03T13:59:28.102Z</time></trkpt><trkpt lat="45.2678135" lon="9.4610207"><ele>73.0</ele><time>2026-05-03T13:59:29.103Z</time></trkpt><trkpt lat="45.2680214" lon="9.460746"><ele>72.5</ele><time>2026-05-03T13:59:30.102Z</time></trkpt><trkpt lat="45.2682279" lon="9.4604659"><ele>72.0</ele><time>2026-05-03T13:59:31.102Z</time></trkpt><trkpt lat="45.2684296" lon="9.4601884"><ele>73.0</ele><time>2026-05-03T13:59:32.102Z</time></trkpt><trkpt lat="45.2686323" lon="9.4599042"><ele>74.0</ele><time>2026-05-03T13:59:33.102Z</time></trkpt><trkpt lat="45.2688323" lon="9.4596207"><ele>73.0</ele><time>2026-05-03T13:59:34.102Z</time></trkpt><trkpt lat="45.2690306" lon="9.4593369"><ele>72.0</ele><time>2026-05-03T13:59:35.102Z</time></trkpt><trkpt lat="45.2692271" lon="9.4590559"><ele>72.5</ele><time>2026-05-03T13:59:36.103Z</time></trkpt><trkpt lat="45.2694273" lon="9.4587688"><ele>73.0</ele><time>2026-05-03T13:59:37.102Z</time></trkpt><trkpt lat="45.2696274" lon="9.4584824"><ele>72.5</ele><time>2026-05-03T13:59:38.102Z</time></trkpt><trkpt lat="45.2698178" lon="9.4582066"><ele>72.0</ele><time>2026-05-03T13:59:39.103Z</time></trkpt><trkpt lat="45.2700096" lon="9.4579341"><ele>73.5</ele><time>2026-05-03T13:59:40.102Z</time></trkpt><trkpt lat="45.2702004" lon="9.4576584"><ele>75.0</ele><time>2026-05-03T13:59:41.102Z</time></trkpt><trkpt lat="45.2703881" lon="9.4573841"><ele>75.0</ele><time>2026-05-03T13:59:42.103Z</time></trkpt><trkpt lat="45.2705728" lon="9.4571028"><ele>75.0</ele><time>2026-05-03T13:59:43.102Z</time></trkpt><trkpt lat="45.2707627" lon="9.4568239"><ele>75.0</ele><time>2026-05-03T13:59:44.103Z</time></trkpt><trkpt lat="45.270957" lon="9.4565521"><ele>75.0</ele><time>2026-05-03T13:59:45.102Z</time></trkpt><trkpt lat="45.2711458" lon="9.4562757"><ele>75.0</ele><time>2026-05-03T13:59:46.102Z</time></trkpt><trkpt lat="45.2713354" lon="9.4559907"><ele>75.0</ele><time>2026-05-03T13:59:47.102Z</time></trkpt><trkpt lat="45.2715252" lon="9.4557006"><ele>74.5</ele><time>2026-05-03T13:59:48.102Z</time></trkpt><trkpt lat="45.271716" lon="9.4554066"><ele>74.0</ele><time>2026-05-03T13:59:49.102Z</time></trkpt><trkpt lat="45.2719095" lon="9.4551151"><ele>74.0</ele><time>2026-05-03T13:59:50.102Z</time></trkpt><trkpt lat="45.2720995" lon="9.4548189"><ele>74.0</ele><time>2026-05-03T13:59:51.103Z</time></trkpt><trkpt lat="45.2722895" lon="9.45452"><ele>73.5</ele><time>2026-05-03T13:59:52.102Z</time></trkpt><trkpt lat="45.272479" lon="9.454223"><ele>73.0</ele><time>2026-05-03T13:59:53.102Z</time></trkpt><trkpt lat="45.2726649" lon="9.4539308"><ele>74.0</ele><time>2026-05-03T13:59:54.102Z</time></trkpt><trkpt lat="45.2728459" lon="9.4536467"><ele>75.0</ele><time>2026-05-03T13:59:55.102Z</time></trkpt><trkpt lat="45.2730235" lon="9.4533612"><ele>75.0</ele><time>2026-05-03T13:59:56.102Z</time></trkpt><trkpt lat="45.2732006" lon="9.4530824"><ele>75.0</ele><time>2026-05-03T13:59:57.102Z</time></trkpt><trkpt lat="45.2733735" lon="9.4528119"><ele>74.5</ele><time>2026-05-03T13:59:58.102Z</time></trkpt><trkpt lat="45.2735357" lon="9.4525536"><ele>74.0</ele><time>2026-05-03T13:59:59.102Z</time></trkpt><trkpt lat="45.2736984" lon="9.4522948"><ele>74.0</ele><time>2026-05-03T14:00:00.102Z</time></trkpt><trkpt lat="45.2738524" lon="9.4520428"><ele>74.0</ele><time>2026-05-03T14:00:01.102Z</time></trkpt><trkpt lat="45.2740077" lon="9.4517826"><ele>74.5</ele><time>2026-05-03T14:00:02.102Z</time></trkpt><trkpt lat="45.2741658" lon="9.4515199"><ele>75.0</ele><time>2026-05-03T14:00:03.102Z</time></trkpt><trkpt lat="45.2743289" lon="9.4512438"><ele>75.0</ele><time>2026-05-03T14:00:04.102Z</time></trkpt><trkpt lat="45.2744958" lon="9.4509601"><ele>75.0</ele><time>2026-05-03T14:00:05.103Z</time></trkpt><trkpt lat="45.2746642" lon="9.4506784"><ele>76.0</ele><time>2026-05-03T14:00:06.102Z</time></trkpt><trkpt lat="45.2748427" lon="9.4503822"><ele>77.0</ele><time>2026-05-03T14:00:07.102Z</time></trkpt><trkpt lat="45.2750341" lon="9.4500727"><ele>77.0</ele><time>2026-05-03T14:00:08.103Z</time></trkpt><trkpt lat="45.2752303" lon="9.4497624"><ele>77.0</ele><time>2026-05-03T14:00:09.102Z</time></trkpt><trkpt lat="45.2754293" lon="9.4494491"><ele>76.5</ele><time>2026-05-03T14:00:10.103Z</time></trkpt><trkpt lat="45.2756246" lon="9.4491311"><ele>76.0</ele><time>2026-05-03T14:00:11.102Z</time></trkpt><trkpt lat="45.2758217" lon="9.4487974"><ele>77.0</ele><time>2026-05-03T14:00:12.103Z</time></trkpt><trkpt lat="45.2760269" lon="9.4484595"><ele>78.0</ele><time>2026-05-03T14:00:13.102Z</time></trkpt><trkpt lat="45.2762261" lon="9.448124"><ele>77.0</ele><time>2026-05-03T14:00:14.102Z</time></trkpt><trkpt lat="45.2764251" lon="9.4477906"><ele>76.0</ele><time>2026-05-03T14:00:15.102Z</time></trkpt><trkpt lat="45.2766268" lon="9.4474563"><ele>75.0</ele><time>2026-05-03T14:00:16.103Z</time></trkpt><trkpt lat="45.2768245" lon="9.4471229"><ele>74.0</ele><time>2026-05-03T14:00:17.102Z</time></trkpt><trkpt lat="45.2770267" lon="9.4467911"><ele>74.0</ele><time>2026-05-03T14:00:18.102Z</time></trkpt><trkpt lat="45.2772284" lon="9.4464553"><ele>74.0</ele><time>2026-05-03T14:00:19.103Z</time></trkpt><trkpt lat="45.2774254" lon="9.4461302"><ele>73.5</ele><time>2026-05-03T14:00:20.103Z</time></trkpt><trkpt lat="45.2776254" lon="9.4458151"><ele>73.0</ele><time>2026-05-03T14:00:21.102Z</time></trkpt><trkpt lat="45.2778235" lon="9.4455129"><ele>73.0</ele><time>2026-05-03T14:00:22.101Z</time></trkpt><trkpt lat="45.2780285" lon="9.445201"><ele>73.0</ele><time>2026-05-03T14:00:23.103Z</time></trkpt><trkpt lat="45.2782305" lon="9.4448783"><ele>73.5</ele><time>2026-05-03T14:00:24.103Z</time></trkpt><trkpt lat="45.2784351" lon="9.4445454"><ele>74.0</ele><time>2026-05-03T14:00:25.102Z</time></trkpt><trkpt lat="45.2786365" lon="9.444204"><ele>74.0</ele><time>2026-05-03T14:00:26.103Z</time></trkpt><trkpt lat="45.2788392" lon="9.4438629"><ele>74.0</ele><time>2026-05-03T14:00:27.103Z</time></trkpt><trkpt lat="45.2790359" lon="9.443523"><ele>73.5</ele><time>2026-05-03T14:00:28.102Z</time></trkpt><trkpt lat="45.279232" lon="9.4431898"><ele>73.0</ele><time>2026-05-03T14:00:29.102Z</time></trkpt><trkpt lat="45.2794341" lon="9.4428656"><ele>73.0</ele><time>2026-05-03T14:00:30.102Z</time></trkpt><trkpt lat="45.2796408" lon="9.4425386"><ele>73.0</ele><time>2026-05-03T14:00:31.102Z</time></trkpt><trkpt lat="45.2798467" lon="9.4422077"><ele>73.0</ele><time>2026-05-03T14:00:32.102Z</time></trkpt><trkpt lat="45.2800465" lon="9.4418803"><ele>73.0</ele><time>2026-05-03T14:00:33.103Z</time></trkpt><trkpt lat="45.2802406" lon="9.441552"><ele>73.0</ele><time>2026-05-03T14:00:34.102Z</time></trkpt><trkpt lat="45.2804345" lon="9.4412292"><ele>73.0</ele><time>2026-05-03T14:00:35.103Z</time></trkpt><trkpt lat="45.2806227" lon="9.4409069"><ele>73.0</ele><time>2026-05-03T14:00:36.103Z</time></trkpt><trkpt lat="45.2808153" lon="9.4405788"><ele>73.0</ele><time>2026-05-03T14:00:37.103Z</time></trkpt><trkpt lat="45.2810076" lon="9.4402576"><ele>73.0</ele><time>2026-05-03T14:00:38.103Z</time></trkpt><trkpt lat="45.2812031" lon="9.4399345"><ele>73.0</ele><time>2026-05-03T14:00:39.103Z</time></trkpt><trkpt lat="45.2813974" lon="9.4396176"><ele>73.0</ele><time>2026-05-03T14:00:40.102Z</time></trkpt><trkpt lat="45.2815933" lon="9.4392951"><ele>73.0</ele><time>2026-05-03T14:00:41.102Z</time></trkpt><trkpt lat="45.281786" lon="9.4389758"><ele>73.0</ele><time>2026-05-03T14:00:42.101Z</time></trkpt><trkpt lat="45.2819797" lon="9.4386517"><ele>73.0</ele><time>2026-05-03T14:00:43.103Z</time></trkpt><trkpt lat="45.2821756" lon="9.4383309"><ele>73.5</ele><time>2026-05-03T14:00:44.103Z</time></trkpt><trkpt lat="45.282366" lon="9.4380136"><ele>74.0</ele><time>2026-05-03T14:00:45.102Z</time></trkpt><trkpt lat="45.282559" lon="9.4376948"><ele>74.0</ele><time>2026-05-03T14:00:46.102Z</time></trkpt><trkpt lat="45.2827486" lon="9.4373787"><ele>74.0</ele><time>2026-05-03T14:00:47.102Z</time></trkpt><trkpt lat="45.2829347" lon="9.4370613"><ele>74.5</ele><time>2026-05-03T14:00:48.102Z</time></trkpt><trkpt lat="45.2831222" lon="9.4367422"><ele>75.0</ele><time>2026-05-03T14:00:49.103Z</time></trkpt><trkpt lat="45.2833092" lon="9.4364246"><ele>75.0</ele><time>2026-05-03T14:00:50.102Z</time></trkpt><trkpt lat="45.2834961" lon="9.4361099"><ele>75.0</ele><time>2026-05-03T14:00:51.102Z</time></trkpt><trkpt lat="45.2836818" lon="9.4357947"><ele>75.0</ele><time>2026-05-03T14:00:52.102Z</time></trkpt><trkpt lat="45.2838684" lon="9.4354751"><ele>75.0</ele><time>2026-05-03T14:00:53.102Z</time></trkpt><trkpt lat="45.2840587" lon="9.4351579"><ele>74.5</ele><time>2026-05-03T14:00:54.103Z</time></trkpt><trkpt lat="45.2842526" lon="9.4348384"><ele>74.0</ele><time>2026-05-03T14:00:55.102Z</time></trkpt><trkpt lat="45.2844488" lon="9.4345181"><ele>74.0</ele><time>2026-05-03T14:00:56.103Z</time></trkpt><trkpt lat="45.2846453" lon="9.4341964"><ele>74.0</ele><time>2026-05-03T14:00:57.102Z</time></trkpt><trkpt lat="45.2848473" lon="9.4338643"><ele>75.0</ele><time>2026-05-03T14:00:58.102Z</time></trkpt><trkpt lat="45.2850489" lon="9.4335314"><ele>76.0</ele><time>2026-05-03T14:00:59.102Z</time></trkpt><trkpt lat="45.2852499" lon="9.433199"><ele>76.0</ele><time>2026-05-03T14:01:00.102Z</time></trkpt><trkpt lat="45.2854518" lon="9.4328695"><ele>76.0</ele><time>2026-05-03T14:01:01.102Z</time></trkpt><trkpt lat="45.2856505" lon="9.4325377"><ele>76.0</ele><time>2026-05-03T14:01:02.102Z</time></trkpt><trkpt lat="45.2858508" lon="9.4322085"><ele>76.0</ele><time>2026-05-03T14:01:03.102Z</time></trkpt><trkpt lat="45.2860518" lon="9.4318784"><ele>75.5</ele><time>2026-05-03T14:01:04.102Z</time></trkpt><trkpt lat="45.286253" lon="9.4315513"><ele>75.0</ele><time>2026-05-03T14:01:05.102Z</time></trkpt><trkpt lat="45.2864517" lon="9.431217"><ele>74.5</ele><time>2026-05-03T14:01:06.102Z</time></trkpt><trkpt lat="45.2866503" lon="9.430881"><ele>74.0</ele><time>2026-05-03T14:01:07.103Z</time></trkpt><trkpt lat="45.2868455" lon="9.4305396"><ele>75.5</ele><time>2026-05-03T14:01:08.103Z</time></trkpt><trkpt lat="45.2870359" lon="9.4301942"><ele>77.0</ele><time>2026-05-03T14:01:09.102Z</time></trkpt><trkpt lat="45.2872314" lon="9.4298489"><ele>78.5</ele><time>2026-05-03T14:01:10.103Z</time></trkpt><trkpt lat="45.2874286" lon="9.4295022"><ele>80.0</ele><time>2026-05-03T14:01:11.103Z</time></trkpt><trkpt lat="45.2876208" lon="9.429152"><ele>79.0</ele><time>2026-05-03T14:01:12.102Z</time></trkpt><trkpt lat="45.2878153" lon="9.4288032"><ele>78.0</ele><time>2026-05-03T14:01:13.103Z</time></trkpt><trkpt lat="45.2880026" lon="9.4284496"><ele>77.5</ele><time>2026-05-03T14:01:14.103Z</time></trkpt><trkpt lat="45.2881909" lon="9.428103"><ele>77.0</ele><time>2026-05-03T14:01:15.103Z</time></trkpt><trkpt lat="45.2883886" lon="9.4277524"><ele>77.0</ele><time>2026-05-03T14:01:16.103Z</time></trkpt><trkpt lat="45.2885843" lon="9.427406"><ele>77.0</ele><time>2026-05-03T14:01:17.103Z</time></trkpt><trkpt lat="45.2887777" lon="9.4270621"><ele>76.5</ele><time>2026-05-03T14:01:18.102Z</time></trkpt><trkpt lat="45.2889587" lon="9.4267327"><ele>76.0</ele><time>2026-05-03T14:01:19.103Z</time></trkpt><trkpt lat="45.2891384" lon="9.4264085"><ele>76.5</ele><time>2026-05-03T14:01:20.102Z</time></trkpt><trkpt lat="45.2893186" lon="9.4260893"><ele>77.0</ele><time>2026-05-03T14:01:21.102Z</time></trkpt><trkpt lat="45.2894925" lon="9.4257642"><ele>76.5</ele><time>2026-05-03T14:01:22.102Z</time></trkpt><trkpt lat="45.2896654" lon="9.4254375"><ele>76.0</ele><time>2026-05-03T14:01:23.102Z</time></trkpt><trkpt lat="45.2898425" lon="9.4251128"><ele>76.0</ele><time>2026-05-03T14:01:24.102Z</time></trkpt><trkpt lat="45.2900237" lon="9.4247827"><ele>76.0</ele><time>2026-05-03T14:01:25.102Z</time></trkpt><trkpt lat="45.290203" lon="9.4244539"><ele>76.0</ele><time>2026-05-03T14:01:26.103Z</time></trkpt><trkpt lat="45.2903802" lon="9.4241337"><ele>76.0</ele><time>2026-05-03T14:01:27.102Z</time></trkpt><trkpt lat="45.290563" lon="9.4238168"><ele>76.0</ele><time>2026-05-03T14:01:28.102Z</time></trkpt><trkpt lat="45.2907401" lon="9.4234966"><ele>76.0</ele><time>2026-05-03T14:01:29.103Z</time></trkpt><trkpt lat="45.2909161" lon="9.4231757"><ele>76.0</ele><time>2026-05-03T14:01:30.103Z</time></trkpt><trkpt lat="45.2910994" lon="9.4228596"><ele>76.0</ele><time>2026-05-03T14:01:31.103Z</time></trkpt><trkpt lat="45.2912877" lon="9.4225355"><ele>76.0</ele><time>2026-05-03T14:01:32.103Z</time></trkpt><trkpt lat="45.2914757" lon="9.4222042"><ele>76.0</ele><time>2026-05-03T14:01:33.102Z</time></trkpt><trkpt lat="45.2916697" lon="9.4218701"><ele>76.0</ele><time>2026-05-03T14:01:34.102Z</time></trkpt><trkpt lat="45.2918544" lon="9.4215406"><ele>76.0</ele><time>2026-05-03T14:01:35.103Z</time></trkpt><trkpt lat="45.2920322" lon="9.4212222"><ele>76.0</ele><time>2026-05-03T14:01:36.102Z</time></trkpt><trkpt lat="45.2922069" lon="9.4209136"><ele>76.0</ele><time>2026-05-03T14:01:37.103Z</time></trkpt><trkpt lat="45.2923599" lon="9.4206437"><ele>75.66666666666666</ele><time>2026-05-03T14:01:38.103Z</time></trkpt><trkpt lat="45.2925081" lon="9.4203913"><ele>75.33333333333333</ele><time>2026-05-03T14:01:39.102Z</time></trkpt><trkpt lat="45.2926422" lon="9.4201578"><ele>75.0</ele><time>2026-05-03T14:01:40.103Z</time></trkpt><trkpt lat="45.2927672" lon="9.4199487"><ele>75.0</ele><time>2026-05-03T14:01:41.102Z</time></trkpt><trkpt lat="45.2928772" lon="9.4197534"><ele>75.0</ele><time>2026-05-03T14:01:42.102Z</time></trkpt><trkpt lat="45.2929823" lon="9.4195685"><ele>75.0</ele><time>2026-05-03T14:01:43.102Z</time></trkpt><trkpt lat="45.2930822" lon="9.4193909"><ele>75.0</ele><time>2026-05-03T14:01:44.103Z</time></trkpt><trkpt lat="45.2931749" lon="9.4192203"><ele>75.0</ele><time>2026-05-03T14:01:45.102Z</time></trkpt><trkpt lat="45.2932642" lon="9.4190569"><ele>75.0</ele><time>2026-05-03T14:01:46.101Z</time></trkpt><trkpt lat="45.2933532" lon="9.4188884"><ele>75.0</ele><time>2026-05-03T14:01:47.102Z</time></trkpt><trkpt lat="45.2934407" lon="9.4187269"><ele>75.0</ele><time>2026-05-03T14:01:48.103Z</time></trkpt><trkpt lat="45.2935227" lon="9.4185709"><ele>75.0</ele><time>2026-05-03T14:01:49.102Z</time></trkpt><trkpt lat="45.2936069" lon="9.4184118"><ele>75.0</ele><time>2026-05-03T14:01:50.103Z</time></trkpt><trkpt lat="45.2936955" lon="9.4182434"><ele>75.0</ele><time>2026-05-03T14:01:51.102Z</time></trkpt><trkpt lat="45.2937887" lon="9.4180708"><ele>75.66666666666667</ele><time>2026-05-03T14:01:52.103Z</time></trkpt><trkpt lat="45.293887" lon="9.4178969"><ele>76.33333333333334</ele><time>2026-05-03T14:01:53.103Z</time></trkpt><trkpt lat="45.2939888" lon="9.4177248"><ele>77.0</ele><time>2026-05-03T14:01:54.103Z</time></trkpt><trkpt lat="45.2940908" lon="9.4175513"><ele>77.0</ele><time>2026-05-03T14:01:55.102Z</time></trkpt><trkpt lat="45.2941923" lon="9.4173728"><ele>77.0</ele><time>2026-05-03T14:01:56.102Z</time></trkpt><trkpt lat="45.294289" lon="9.4172082"><ele>77.0</ele><time>2026-05-03T14:01:57.101Z</time></trkpt><trkpt lat="45.2943836" lon="9.4170465"><ele>76.66666666666667</ele><time>2026-05-03T14:01:58.102Z</time></trkpt><trkpt lat="45.2944851" lon="9.4168788"><ele>76.33333333333333</ele><time>2026-05-03T14:01:59.103Z</time></trkpt><trkpt lat="45.2945864" lon="9.4167127"><ele>76.0</ele><time>2026-05-03T14:02:00.102Z</time></trkpt><trkpt lat="45.2946961" lon="9.4165369"><ele>76.0</ele><time>2026-05-03T14:02:01.102Z</time></trkpt><trkpt lat="45.2948119" lon="9.4163549"><ele>76.0</ele><time>2026-05-03T14:02:02.102Z</time></trkpt><trkpt lat="45.2949392" lon="9.4161594"><ele>76.0</ele><time>2026-05-03T14:02:03.103Z</time></trkpt><trkpt lat="45.2950609" lon="9.4159636"><ele>76.0</ele><time>2026-05-03T14:02:04.103Z</time></trkpt><trkpt lat="45.295189" lon="9.4157618"><ele>76.0</ele><time>2026-05-03T14:02:05.102Z</time></trkpt><trkpt lat="45.2953144" lon="9.4155513"><ele>76.0</ele><time>2026-05-03T14:02:06.103Z</time></trkpt><trkpt lat="45.2954386" lon="9.415348"><ele>76.0</ele><time>2026-05-03T14:02:07.103Z</time></trkpt><trkpt lat="45.2955646" lon="9.4151446"><ele>76.0</ele><time>2026-05-03T14:02:08.103Z</time></trkpt><trkpt lat="45.2956842" lon="9.4149385"><ele>76.0</ele><time>2026-05-03T14:02:09.102Z</time></trkpt><trkpt lat="45.2958067" lon="9.4147345"><ele>76.0</ele><time>2026-05-03T14:02:10.102Z</time></trkpt><trkpt lat="45.2959341" lon="9.4145272"><ele>76.0</ele><time>2026-05-03T14:02:11.102Z</time></trkpt><trkpt lat="45.2960626" lon="9.4143181"><ele>76.0</ele><time>2026-05-03T14:02:12.103Z</time></trkpt><trkpt lat="45.296193" lon="9.4141074"><ele>76.0</ele><time>2026-05-03T14:02:13.102Z</time></trkpt><trkpt lat="45.2963398" lon="9.4138807"><ele>76.0</ele><time>2026-05-03T14:02:14.103Z</time></trkpt><trkpt lat="45.2964795" lon="9.4136539"><ele>76.0</ele><time>2026-05-03T14:02:15.103Z</time></trkpt><trkpt lat="45.2966192" lon="9.4134269"><ele>76.66666666666666</ele><time>2026-05-03T14:02:16.103Z</time></trkpt><trkpt lat="45.2967641" lon="9.4131948"><ele>77.33333333333333</ele><time>2026-05-03T14:02:17.103Z</time></trkpt><trkpt lat="45.2969201" lon="9.4129525"><ele>78.0</ele><time>2026-05-03T14:02:18.103Z</time></trkpt><trkpt lat="45.297071" lon="9.4127142"><ele>78.5</ele><time>2026-05-03T14:02:19.103Z</time></trkpt><trkpt lat="45.2972288" lon="9.4124601"><ele>79.0</ele><time>2026-05-03T14:02:20.102Z</time></trkpt><trkpt lat="45.2974026" lon="9.4121968"><ele>78.0</ele><time>2026-05-03T14:02:21.103Z</time></trkpt><trkpt lat="45.2975816" lon="9.4119273"><ele>77.0</ele><time>2026-05-03T14:02:22.102Z</time></trkpt><trkpt lat="45.297763" lon="9.4116537"><ele>77.0</ele><time>2026-05-03T14:02:23.103Z</time></trkpt><trkpt lat="45.2979466" lon="9.4113688"><ele>77.0</ele><time>2026-05-03T14:02:24.102Z</time></trkpt><trkpt lat="45.2981385" lon="9.411073"><ele>77.0</ele><time>2026-05-03T14:02:25.102Z</time></trkpt><trkpt lat="45.2983313" lon="9.4107743"><ele>77.0</ele><time>2026-05-03T14:02:26.103Z</time></trkpt><trkpt lat="45.2985224" lon="9.4104842"><ele>77.0</ele><time>2026-05-03T14:02:27.103Z</time></trkpt><trkpt lat="45.2987218" lon="9.4101866"><ele>77.0</ele><time>2026-05-03T14:02:28.103Z</time></trkpt><trkpt lat="45.2989289" lon="9.4098855"><ele>77.5</ele><time>2026-05-03T14:02:29.103Z</time></trkpt><trkpt lat="45.299139" lon="9.4095859"><ele>78.0</ele><time>2026-05-03T14:02:30.102Z</time></trkpt><trkpt lat="45.2993466" lon="9.4092842"><ele>78.0</ele><time>2026-05-03T14:02:31.102Z</time></trkpt><trkpt lat="45.2995576" lon="9.4089801"><ele>78.0</ele><time>2026-05-03T14:02:32.103Z</time></trkpt><trkpt lat="45.2997687" lon="9.4086784"><ele>79.0</ele><time>2026-05-03T14:02:33.102Z</time></trkpt><trkpt lat="45.2999834" lon="9.4083799"><ele>80.0</ele><time>2026-05-03T14:02:34.103Z</time></trkpt><trkpt lat="45.3001938" lon="9.4080818"><ele>80.0</ele><time>2026-05-03T14:02:35.102Z</time></trkpt><trkpt lat="45.3004028" lon="9.4077819"><ele>80.0</ele><time>2026-05-03T14:02:36.102Z</time></trkpt><trkpt lat="45.3006138" lon="9.4074827"><ele>80.0</ele><time>2026-05-03T14:02:37.103Z</time></trkpt><trkpt lat="45.300829" lon="9.4071887"><ele>80.0</ele><time>2026-05-03T14:02:38.103Z</time></trkpt><trkpt lat="45.3010449" lon="9.4068937"><ele>80.0</ele><time>2026-05-03T14:02:39.102Z</time></trkpt><trkpt lat="45.301259" lon="9.4066004"><ele>80.0</ele><time>2026-05-03T14:02:40.102Z</time></trkpt><trkpt lat="45.3014713" lon="9.4063067"><ele>79.5</ele><time>2026-05-03T14:02:41.103Z</time></trkpt><trkpt lat="45.301688" lon="9.4060086"><ele>79.0</ele><time>2026-05-03T14:02:42.102Z</time></trkpt><trkpt lat="45.301906" lon="9.405717"><ele>79.5</ele><time>2026-05-03T14:02:43.102Z</time></trkpt><trkpt lat="45.3021208" lon="9.4054192"><ele>80.0</ele><time>2026-05-03T14:02:44.102Z</time></trkpt><trkpt lat="45.3023418" lon="9.4051184"><ele>80.0</ele><time>2026-05-03T14:02:45.102Z</time></trkpt><trkpt lat="45.3025619" lon="9.4048117"><ele>80.0</ele><time>2026-05-03T14:02:46.103Z</time></trkpt><trkpt lat="45.3027838" lon="9.4045022"><ele>79.5</ele><time>2026-05-03T14:02:47.102Z</time></trkpt><trkpt lat="45.3030097" lon="9.4041941"><ele>79.0</ele><time>2026-05-03T14:02:48.102Z</time></trkpt><trkpt lat="45.3032385" lon="9.4038768"><ele>79.0</ele><time>2026-05-03T14:02:49.102Z</time></trkpt><trkpt lat="45.303469" lon="9.403553"><ele>79.0</ele><time>2026-05-03T14:02:50.102Z</time></trkpt><trkpt lat="45.3036828" lon="9.4032478"><ele>79.0</ele><time>2026-05-03T14:02:51.102Z</time></trkpt><trkpt lat="45.3038877" lon="9.4029589"><ele>79.0</ele><time>2026-05-03T14:02:52.102Z</time></trkpt><trkpt lat="45.304091" lon="9.4026742"><ele>79.0</ele><time>2026-05-03T14:02:53.102Z</time></trkpt><trkpt lat="45.3042875" lon="9.4023894"><ele>79.0</ele><time>2026-05-03T14:02:54.103Z</time></trkpt><trkpt lat="45.3044764" lon="9.4021078"><ele>79.0</ele><time>2026-05-03T14:02:55.103Z</time></trkpt><trkpt lat="45.3046677" lon="9.4018254"><ele>79.0</ele><time>2026-05-03T14:02:56.102Z</time></trkpt><trkpt lat="45.3048599" lon="9.401544"><ele>80.0</ele><time>2026-05-03T14:02:57.102Z</time></trkpt><trkpt lat="45.3050485" lon="9.4012561"><ele>81.0</ele><time>2026-05-03T14:02:58.103Z</time></trkpt><trkpt lat="45.3052352" lon="9.4009657"><ele>81.0</ele><time>2026-05-03T14:02:59.102Z</time></trkpt><trkpt lat="45.3054131" lon="9.4006832"><ele>81.0</ele><time>2026-05-03T14:03:00.103Z</time></trkpt><trkpt lat="45.3055861" lon="9.4004088"><ele>81.0</ele><time>2026-05-03T14:03:01.102Z</time></trkpt><trkpt lat="45.3057635" lon="9.4001442"><ele>81.0</ele><time>2026-05-03T14:03:02.102Z</time></trkpt><trkpt lat="45.3059382" lon="9.3998896"><ele>81.0</ele><time>2026-05-03T14:03:03.103Z</time></trkpt><trkpt lat="45.3060976" lon="9.3996431"><ele>81.0</ele><time>2026-05-03T14:03:04.1Z</time></trkpt><trkpt lat="45.3062509" lon="9.3994084"><ele>81.0</ele><time>2026-05-03T14:03:05.103Z</time></trkpt><trkpt lat="45.3064002" lon="9.3991775"><ele>81.0</ele><time>2026-05-03T14:03:06.103Z</time></trkpt><trkpt lat="45.3065396" lon="9.3989609"><ele>81.0</ele><time>2026-05-03T14:03:07.103Z</time></trkpt><trkpt lat="45.3066858" lon="9.3987389"><ele>81.33333333333333</ele><time>2026-05-03T14:03:08.103Z</time></trkpt><trkpt lat="45.3068287" lon="9.3985171"><ele>81.66666666666666</ele><time>2026-05-03T14:03:09.103Z</time></trkpt><trkpt lat="45.3069741" lon="9.3982938"><ele>82.0</ele><time>2026-05-03T14:03:10.102Z</time></trkpt><trkpt lat="45.3071142" lon="9.3980809"><ele>81.33333333333333</ele><time>2026-05-03T14:03:11.102Z</time></trkpt><trkpt lat="45.3072459" lon="9.397885"><ele>80.66666666666667</ele><time>2026-05-03T14:03:12.102Z</time></trkpt><trkpt lat="45.3073763" lon="9.3976953"><ele>80.0</ele><time>2026-05-03T14:03:13.1Z</time></trkpt><trkpt lat="45.3074994" lon="9.3975062"><ele>80.0</ele><time>2026-05-03T14:03:14.102Z</time></trkpt><trkpt lat="45.3076255" lon="9.3973089"><ele>80.0</ele><time>2026-05-03T14:03:15.103Z</time></trkpt><trkpt lat="45.3077496" lon="9.3971154"><ele>80.0</ele><time>2026-05-03T14:03:16.103Z</time></trkpt><trkpt lat="45.3078664" lon="9.3969321"><ele>80.0</ele><time>2026-05-03T14:03:17.102Z</time></trkpt><trkpt lat="45.3079824" lon="9.3967564"><ele>80.0</ele><time>2026-05-03T14:03:18.102Z</time></trkpt><trkpt lat="45.3080952" lon="9.3965906"><ele>80.0</ele><time>2026-05-03T14:03:19.102Z</time></trkpt><trkpt lat="45.3082046" lon="9.3964196"><ele>80.33333333333334</ele><time>2026-05-03T14:03:20.103Z</time></trkpt><trkpt lat="45.3083195" lon="9.3962411"><ele>80.66666666666667</ele><time>2026-05-03T14:03:21.102Z</time></trkpt><trkpt lat="45.308434" lon="9.3960642"><ele>81.0</ele><time>2026-05-03T14:03:22.102Z</time></trkpt><trkpt lat="45.3085555" lon="9.3958784"><ele>81.0</ele><time>2026-05-03T14:03:23.102Z</time></trkpt><trkpt lat="45.3086778" lon="9.3956943"><ele>81.0</ele><time>2026-05-03T14:03:24.102Z</time></trkpt><trkpt lat="45.3088004" lon="9.3954947"><ele>81.0</ele><time>2026-05-03T14:03:25.103Z</time></trkpt><trkpt lat="45.3089313" lon="9.3952851"><ele>81.0</ele><time>2026-05-03T14:03:26.099Z</time></trkpt><trkpt lat="45.3090688" lon="9.3950713"><ele>81.0</ele><time>2026-05-03T14:03:27.102Z</time></trkpt><trkpt lat="45.3092145" lon="9.3948441"><ele>81.0</ele><time>2026-05-03T14:03:28.103Z</time></trkpt><trkpt lat="45.3093677" lon="9.3946108"><ele>81.0</ele><time>2026-05-03T14:03:29.103Z</time></trkpt><trkpt lat="45.3095272" lon="9.3943681"><ele>81.0</ele><time>2026-05-03T14:03:30.101Z</time></trkpt><trkpt lat="45.309695" lon="9.3941197"><ele>81.0</ele><time>2026-05-03T14:03:31.102Z</time></trkpt><trkpt lat="45.3098624" lon="9.3938615"><ele>81.0</ele><time>2026-05-03T14:03:32.102Z</time></trkpt><trkpt lat="45.3100307" lon="9.3936006"><ele>81.0</ele><time>2026-05-03T14:03:33.103Z</time></trkpt><trkpt lat="45.3101974" lon="9.3933425"><ele>81.0</ele><time>2026-05-03T14:03:34.103Z</time></trkpt><trkpt lat="45.3103553" lon="9.3930993"><ele>81.0</ele><time>2026-05-03T14:03:35.103Z</time></trkpt><trkpt lat="45.3105189" lon="9.3928537"><ele>81.0</ele><time>2026-05-03T14:03:36.102Z</time></trkpt><trkpt lat="45.3106831" lon="9.3926036"><ele>81.0</ele><time>2026-05-03T14:03:37.102Z</time></trkpt><trkpt lat="45.3108468" lon="9.3923507"><ele>81.0</ele><time>2026-05-03T14:03:38.103Z</time></trkpt><trkpt lat="45.3110135" lon="9.3920942"><ele>80.5</ele><time>2026-05-03T14:03:39.103Z</time></trkpt><trkpt lat="45.3111814" lon="9.3918356"><ele>80.0</ele><time>2026-05-03T14:03:40.103Z</time></trkpt><trkpt lat="45.3113572" lon="9.3915746"><ele>80.0</ele><time>2026-05-03T14:03:41.103Z</time></trkpt><trkpt lat="45.3115431" lon="9.3913026"><ele>80.0</ele><time>2026-05-03T14:03:42.103Z</time></trkpt><trkpt lat="45.3117289" lon="9.3910267"><ele>80.0</ele><time>2026-05-03T14:03:43.103Z</time></trkpt><trkpt lat="45.3119177" lon="9.3907492"><ele>80.0</ele><time>2026-05-03T14:03:44.102Z</time></trkpt><trkpt lat="45.3121126" lon="9.3904581"><ele>80.0</ele><time>2026-05-03T14:03:45.102Z</time></trkpt><trkpt lat="45.3123047" lon="9.3901655"><ele>80.0</ele><time>2026-05-03T14:03:46.103Z</time></trkpt><trkpt lat="45.3125047" lon="9.3898654"><ele>80.5</ele><time>2026-05-03T14:03:47.102Z</time></trkpt><trkpt lat="45.3127025" lon="9.3895617"><ele>81.0</ele><time>2026-05-03T14:03:48.103Z</time></trkpt><trkpt lat="45.3128951" lon="9.3892592"><ele>80.5</ele><time>2026-05-03T14:03:49.102Z</time></trkpt><trkpt lat="45.313092" lon="9.3889545"><ele>80.0</ele><time>2026-05-03T14:03:50.103Z</time></trkpt><trkpt lat="45.313292" lon="9.3886496"><ele>81.0</ele><time>2026-05-03T14:03:51.102Z</time></trkpt><trkpt lat="45.3134916" lon="9.3883453"><ele>82.0</ele><time>2026-05-03T14:03:52.103Z</time></trkpt><trkpt lat="45.3136929" lon="9.3880389"><ele>81.5</ele><time>2026-05-03T14:03:53.102Z</time></trkpt><trkpt lat="45.313892" lon="9.3877278"><ele>81.0</ele><time>2026-05-03T14:03:54.102Z</time></trkpt><trkpt lat="45.3140942" lon="9.3874149"><ele>82.0</ele><time>2026-05-03T14:03:55.102Z</time></trkpt><trkpt lat="45.3142914" lon="9.3871061"><ele>83.0</ele><time>2026-05-03T14:03:56.103Z</time></trkpt><trkpt lat="45.3144905" lon="9.3867955"><ele>83.0</ele><time>2026-05-03T14:03:57.102Z</time></trkpt><trkpt lat="45.3146969" lon="9.3864946"><ele>83.0</ele><time>2026-05-03T14:03:58.103Z</time></trkpt><trkpt lat="45.3148993" lon="9.3861795"><ele>81.5</ele><time>2026-05-03T14:03:59.103Z</time></trkpt><trkpt lat="45.315102" lon="9.3858654"><ele>80.0</ele><time>2026-05-03T14:04:00.101Z</time></trkpt><trkpt lat="45.3153015" lon="9.3855535"><ele>80.5</ele><time>2026-05-03T14:04:01.102Z</time></trkpt><trkpt lat="45.3155073" lon="9.3852396"><ele>81.0</ele><time>2026-05-03T14:04:02.103Z</time></trkpt><trkpt lat="45.3157175" lon="9.3849198"><ele>81.0</ele><time>2026-05-03T14:04:03.101Z</time></trkpt><trkpt lat="45.3159301" lon="9.3845939"><ele>81.0</ele><time>2026-05-03T14:04:04.102Z</time></trkpt><trkpt lat="45.3161296" lon="9.3842789"><ele>81.0</ele><time>2026-05-03T14:04:05.103Z</time></trkpt><trkpt lat="45.3163287" lon="9.3839696"><ele>81.0</ele><time>2026-05-03T14:04:06.102Z</time></trkpt><trkpt lat="45.3165155" lon="9.3836684"><ele>81.5</ele><time>2026-05-03T14:04:07.103Z</time></trkpt><trkpt lat="45.3167039" lon="9.3833723"><ele>82.0</ele><time>2026-05-03T14:04:08.102Z</time></trkpt><trkpt lat="45.3168923" lon="9.3830766"><ele>82.0</ele><time>2026-05-03T14:04:09.102Z</time></trkpt><trkpt lat="45.3170808" lon="9.3827919"><ele>82.0</ele><time>2026-05-03T14:04:10.101Z</time></trkpt><trkpt lat="45.3172669" lon="9.3825037"><ele>82.0</ele><time>2026-05-03T14:04:11.103Z</time></trkpt><trkpt lat="45.3174542" lon="9.3822161"><ele>82.0</ele><time>2026-05-03T14:04:12.102Z</time></trkpt><trkpt lat="45.317643" lon="9.3819283"><ele>82.0</ele><time>2026-05-03T14:04:13.103Z</time></trkpt><trkpt lat="45.3178331" lon="9.3816409"><ele>82.0</ele><time>2026-05-03T14:04:14.103Z</time></trkpt><trkpt lat="45.3180265" lon="9.3813554"><ele>82.5</ele><time>2026-05-03T14:04:15.103Z</time></trkpt><trkpt lat="45.3182139" lon="9.3810736"><ele>83.0</ele><time>2026-05-03T14:04:16.102Z</time></trkpt><trkpt lat="45.318404" lon="9.3807785"><ele>82.5</ele><time>2026-05-03T14:04:17.103Z</time></trkpt><trkpt lat="45.3185905" lon="9.3804908"><ele>82.0</ele><time>2026-05-03T14:04:18.102Z</time></trkpt><trkpt lat="45.3187762" lon="9.3802003"><ele>83.0</ele><time>2026-05-03T14:04:19.102Z</time></trkpt><trkpt lat="45.318964" lon="9.3799119"><ele>84.0</ele><time>2026-05-03T14:04:20.102Z</time></trkpt><trkpt lat="45.3191501" lon="9.3796222"><ele>84.0</ele><time>2026-05-03T14:04:21.102Z</time></trkpt><trkpt lat="45.3193409" lon="9.3793365"><ele>84.0</ele><time>2026-05-03T14:04:22.102Z</time></trkpt><trkpt lat="45.3195299" lon="9.3790461"><ele>84.0</ele><time>2026-05-03T14:04:23.102Z</time></trkpt><trkpt lat="45.3197211" lon="9.3787559"><ele>84.0</ele><time>2026-05-03T14:04:24.103Z</time></trkpt><trkpt lat="45.3199107" lon="9.378472"><ele>84.0</ele><time>2026-05-03T14:04:25.103Z</time></trkpt><trkpt lat="45.3200995" lon="9.3781803"><ele>84.0</ele><time>2026-05-03T14:04:26.103Z</time></trkpt><trkpt lat="45.3202909" lon="9.3778872"><ele>84.0</ele><time>2026-05-03T14:04:27.102Z</time></trkpt><trkpt lat="45.3204799" lon="9.377593"><ele>84.0</ele><time>2026-05-03T14:04:28.102Z</time></trkpt><trkpt lat="45.3206698" lon="9.3773043"><ele>84.5</ele><time>2026-05-03T14:04:29.101Z</time></trkpt><trkpt lat="45.3208615" lon="9.3770149"><ele>85.0</ele><time>2026-05-03T14:04:30.103Z</time></trkpt><trkpt lat="45.3210488" lon="9.3767278"><ele>85.0</ele><time>2026-05-03T14:04:31.102Z</time></trkpt><trkpt lat="45.3212303" lon="9.3764438"><ele>85.0</ele><time>2026-05-03T14:04:32.102Z</time></trkpt><trkpt lat="45.3214156" lon="9.3761633"><ele>84.5</ele><time>2026-05-03T14:04:33.102Z</time></trkpt><trkpt lat="45.3215972" lon="9.3758826"><ele>84.0</ele><time>2026-05-03T14:04:34.102Z</time></trkpt><trkpt lat="45.3217796" lon="9.3755964"><ele>84.0</ele><time>2026-05-03T14:04:35.103Z</time></trkpt><trkpt lat="45.3219622" lon="9.3753165"><ele>84.0</ele><time>2026-05-03T14:04:36.103Z</time></trkpt><trkpt lat="45.322145" lon="9.3750335"><ele>84.0</ele><time>2026-05-03T14:04:37.103Z</time></trkpt><trkpt lat="45.3223299" lon="9.3747479"><ele>84.0</ele><time>2026-05-03T14:04:38.103Z</time></trkpt><trkpt lat="45.3225184" lon="9.3744636"><ele>84.0</ele><time>2026-05-03T14:04:39.101Z</time></trkpt><trkpt lat="45.3227053" lon="9.3741792"><ele>84.0</ele><time>2026-05-03T14:04:40.102Z</time></trkpt><trkpt lat="45.3228864" lon="9.3738912"><ele>83.5</ele><time>2026-05-03T14:04:41.102Z</time></trkpt><trkpt lat="45.3230701" lon="9.3736015"><ele>83.0</ele><time>2026-05-03T14:04:42.103Z</time></trkpt><trkpt lat="45.323255" lon="9.3733132"><ele>83.0</ele><time>2026-05-03T14:04:43.103Z</time></trkpt><trkpt lat="45.3234333" lon="9.3730371"><ele>83.0</ele><time>2026-05-03T14:04:44.102Z</time></trkpt><trkpt lat="45.3236119" lon="9.3727795"><ele>82.5</ele><time>2026-05-03T14:04:45.101Z</time></trkpt><trkpt lat="45.3237885" lon="9.3725105"><ele>82.0</ele><time>2026-05-03T14:04:46.102Z</time></trkpt><trkpt lat="45.3239607" lon="9.3722377"><ele>83.5</ele><time>2026-05-03T14:04:47.103Z</time></trkpt><trkpt lat="45.3241446" lon="9.3719643"><ele>85.0</ele><time>2026-05-03T14:04:48.103Z</time></trkpt><trkpt lat="45.3243269" lon="9.3716893"><ele>85.0</ele><time>2026-05-03T14:04:49.102Z</time></trkpt><trkpt lat="45.3245028" lon="9.3714114"><ele>85.0</ele><time>2026-05-03T14:04:50.102Z</time></trkpt><trkpt lat="45.3246876" lon="9.3711309"><ele>83.5</ele><time>2026-05-03T14:04:51.102Z</time></trkpt><trkpt lat="45.3248709" lon="9.3708545"><ele>82.0</ele><time>2026-05-03T14:04:52.103Z</time></trkpt><trkpt lat="45.3250549" lon="9.3705672"><ele>82.0</ele><time>2026-05-03T14:04:53.101Z</time></trkpt><trkpt lat="45.3252307" lon="9.3702929"><ele>82.0</ele><time>2026-05-03T14:04:54.103Z</time></trkpt><trkpt lat="45.3254093" lon="9.3700168"><ele>82.0</ele><time>2026-05-03T14:04:55.102Z</time></trkpt><trkpt lat="45.3255892" lon="9.3697387"><ele>82.0</ele><time>2026-05-03T14:04:56.102Z</time></trkpt><trkpt lat="45.3257672" lon="9.3694654"><ele>82.5</ele><time>2026-05-03T14:04:57.1Z</time></trkpt><trkpt lat="45.3259401" lon="9.3691938"><ele>83.0</ele><time>2026-05-03T14:04:58.103Z</time></trkpt><trkpt lat="45.3261204" lon="9.3689282"><ele>83.0</ele><time>2026-05-03T14:04:59.101Z</time></trkpt><trkpt lat="45.3262964" lon="9.368662"><ele>83.0</ele><time>2026-05-03T14:05:00.103Z</time></trkpt><trkpt lat="45.3264627" lon="9.36841"><ele>83.0</ele><time>2026-05-03T14:05:01.1Z</time></trkpt><trkpt lat="45.3266398" lon="9.3681601"><ele>83.0</ele><time>2026-05-03T14:05:02.103Z</time></trkpt><trkpt lat="45.3268224" lon="9.3679066"><ele>83.0</ele><time>2026-05-03T14:05:03.103Z</time></trkpt><trkpt lat="45.3270107" lon="9.3676392"><ele>83.0</ele><time>2026-05-03T14:05:04.103Z</time></trkpt><trkpt lat="45.3272018" lon="9.3673562"><ele>83.0</ele><time>2026-05-03T14:05:05.102Z</time></trkpt><trkpt lat="45.3273985" lon="9.3670611"><ele>83.0</ele><time>2026-05-03T14:05:06.103Z</time></trkpt><trkpt lat="45.3276035" lon="9.3667575"><ele>83.0</ele><time>2026-05-03T14:05:07.101Z</time></trkpt><trkpt lat="45.3278051" lon="9.3664492"><ele>83.0</ele><time>2026-05-03T14:05:08.101Z</time></trkpt><trkpt lat="45.3280143" lon="9.3661311"><ele>83.0</ele><time>2026-05-03T14:05:09.103Z</time></trkpt><trkpt lat="45.3282219" lon="9.3658113"><ele>83.0</ele><time>2026-05-03T14:05:10.103Z</time></trkpt><trkpt lat="45.3284327" lon="9.3654942"><ele>83.0</ele><time>2026-05-03T14:05:11.102Z</time></trkpt><trkpt lat="45.3286484" lon="9.365175"><ele>83.0</ele><time>2026-05-03T14:05:12.101Z</time></trkpt><trkpt lat="45.328864" lon="9.3648495"><ele>84.0</ele><time>2026-05-03T14:05:13.101Z</time></trkpt><trkpt lat="45.3290779" lon="9.3645233"><ele>85.0</ele><time>2026-05-03T14:05:14.103Z</time></trkpt><trkpt lat="45.3292912" lon="9.3641917"><ele>85.0</ele><time>2026-05-03T14:05:15.103Z</time></trkpt><trkpt lat="45.3295008" lon="9.3638784"><ele>85.0</ele><time>2026-05-03T14:05:16.101Z</time></trkpt><trkpt lat="45.3297065" lon="9.3635567"><ele>85.0</ele><time>2026-05-03T14:05:17.102Z</time></trkpt><trkpt lat="45.329902" lon="9.3632438"><ele>85.0</ele><time>2026-05-03T14:05:18.102Z</time></trkpt><trkpt lat="45.3300951" lon="9.3629347"><ele>85.5</ele><time>2026-05-03T14:05:19.101Z</time></trkpt><trkpt lat="45.3302882" lon="9.3626287"><ele>86.0</ele><time>2026-05-03T14:05:20.103Z</time></trkpt><trkpt lat="45.3304764" lon="9.3623168"><ele>86.0</ele><time>2026-05-03T14:05:21.103Z</time></trkpt><trkpt lat="45.3306727" lon="9.3620014"><ele>86.0</ele><time>2026-05-03T14:05:22.102Z</time></trkpt><trkpt lat="45.3308678" lon="9.3616831"><ele>86.0</ele><time>2026-05-03T14:05:23.101Z</time></trkpt><trkpt lat="45.3310656" lon="9.3613657"><ele>86.0</ele><time>2026-05-03T14:05:24.102Z</time></trkpt><trkpt lat="45.331263" lon="9.3610352"><ele>85.5</ele><time>2026-05-03T14:05:25.102Z</time></trkpt><trkpt lat="45.3314578" lon="9.3606946"><ele>85.0</ele><time>2026-05-03T14:05:26.102Z</time></trkpt><trkpt lat="45.3316474" lon="9.3603435"><ele>84.5</ele><time>2026-05-03T14:05:27.101Z</time></trkpt><trkpt lat="45.3318333" lon="9.3599867"><ele>84.0</ele><time>2026-05-03T14:05:28.102Z</time></trkpt><trkpt lat="45.3320128" lon="9.3596231"><ele>84.0</ele><time>2026-05-03T14:05:29.102Z</time></trkpt><trkpt lat="45.3321852" lon="9.3592593"><ele>84.0</ele><time>2026-05-03T14:05:30.103Z</time></trkpt><trkpt lat="45.3323604" lon="9.3588871"><ele>84.5</ele><time>2026-05-03T14:05:31.103Z</time></trkpt><trkpt lat="45.3325335" lon="9.3585179"><ele>85.0</ele><time>2026-05-03T14:05:32.103Z</time></trkpt><trkpt lat="45.3327021" lon="9.3581375"><ele>83.5</ele><time>2026-05-03T14:05:33.102Z</time></trkpt><trkpt lat="45.3328755" lon="9.3577592"><ele>82.0</ele><time>2026-05-03T14:05:34.102Z</time></trkpt><trkpt lat="45.3330442" lon="9.3573771"><ele>81.0</ele><time>2026-05-03T14:05:35.102Z</time></trkpt><trkpt lat="45.3332101" lon="9.3569912"><ele>80.0</ele><time>2026-05-03T14:05:36.102Z</time></trkpt><trkpt lat="45.3333717" lon="9.3566018"><ele>79.5</ele><time>2026-05-03T14:05:37.102Z</time></trkpt><trkpt lat="45.333527" lon="9.3562119"><ele>79.0</ele><time>2026-05-03T14:05:38.1Z</time></trkpt><trkpt lat="45.3336796" lon="9.3558194"><ele>79.5</ele><time>2026-05-03T14:05:39.102Z</time></trkpt><trkpt lat="45.3338245" lon="9.3554214"><ele>80.0</ele><time>2026-05-03T14:05:40.102Z</time></trkpt><trkpt lat="45.3339627" lon="9.3550255"><ele>80.5</ele><time>2026-05-03T14:05:41.102Z</time></trkpt><trkpt lat="45.3340961" lon="9.3546188"><ele>81.0</ele><time>2026-05-03T14:05:42.102Z</time></trkpt><trkpt lat="45.3342253" lon="9.3542158"><ele>80.5</ele><time>2026-05-03T14:05:43.102Z</time></trkpt><trkpt lat="45.3343506" lon="9.3538056"><ele>80.0</ele><time>2026-05-03T14:05:44.101Z</time></trkpt><trkpt lat="45.3344747" lon="9.3533938"><ele>79.5</ele><time>2026-05-03T14:05:45.102Z</time></trkpt><trkpt lat="45.3345943" lon="9.3529775"><ele>79.0</ele><time>2026-05-03T14:05:46.102Z</time></trkpt><trkpt lat="45.3347088" lon="9.352563"><ele>79.0</ele><time>2026-05-03T14:05:47.101Z</time></trkpt><trkpt lat="45.3348202" lon="9.3521399"><ele>79.0</ele><time>2026-05-03T14:05:48.103Z</time></trkpt><trkpt lat="45.3349278" lon="9.3517178"><ele>80.0</ele><time>2026-05-03T14:05:49.103Z</time></trkpt><trkpt lat="45.3350398" lon="9.3512989"><ele>81.0</ele><time>2026-05-03T14:05:50.103Z</time></trkpt><trkpt lat="45.3351367" lon="9.3508632"><ele>80.5</ele><time>2026-05-03T14:05:51.102Z</time></trkpt><trkpt lat="45.3352312" lon="9.3504315"><ele>80.0</ele><time>2026-05-03T14:05:52.103Z</time></trkpt><trkpt lat="45.3353248" lon="9.3499967"><ele>79.5</ele><time>2026-05-03T14:05:53.102Z</time></trkpt><trkpt lat="45.3354141" lon="9.3495558"><ele>79.0</ele><time>2026-05-03T14:05:54.102Z</time></trkpt><trkpt lat="45.335501" lon="9.3491189"><ele>79.5</ele><time>2026-05-03T14:05:55.102Z</time></trkpt><trkpt lat="45.3355762" lon="9.3486746"><ele>80.0</ele><time>2026-05-03T14:05:56.103Z</time></trkpt><trkpt lat="45.3356554" lon="9.3482319"><ele>80.0</ele><time>2026-05-03T14:05:57.102Z</time></trkpt><trkpt lat="45.3357315" lon="9.3477869"><ele>80.0</ele><time>2026-05-03T14:05:58.103Z</time></trkpt><trkpt lat="45.3357988" lon="9.3473432"><ele>79.5</ele><time>2026-05-03T14:05:59.101Z</time></trkpt><trkpt lat="45.3358645" lon="9.3468992"><ele>79.0</ele><time>2026-05-03T14:06:00.103Z</time></trkpt><trkpt lat="45.3359289" lon="9.3464604"><ele>79.0</ele><time>2026-05-03T14:06:01.102Z</time></trkpt><trkpt lat="45.3359927" lon="9.3460237"><ele>79.0</ele><time>2026-05-03T14:06:02.103Z</time></trkpt><trkpt lat="45.3360579" lon="9.3455868"><ele>79.0</ele><time>2026-05-03T14:06:03.103Z</time></trkpt><trkpt lat="45.3361252" lon="9.3451465"><ele>79.0</ele><time>2026-05-03T14:06:04.101Z</time></trkpt><trkpt lat="45.3361933" lon="9.3447076"><ele>78.5</ele><time>2026-05-03T14:06:05.103Z</time></trkpt><trkpt lat="45.336258" lon="9.3442737"><ele>78.0</ele><time>2026-05-03T14:06:06.103Z</time></trkpt><trkpt lat="45.3363243" lon="9.3438389"><ele>78.0</ele><time>2026-05-03T14:06:07.103Z</time></trkpt><trkpt lat="45.3363922" lon="9.3434042"><ele>78.0</ele><time>2026-05-03T14:06:08.1Z</time></trkpt><trkpt lat="45.336456" lon="9.3429784"><ele>77.5</ele><time>2026-05-03T14:06:09.101Z</time></trkpt><trkpt lat="45.3365197" lon="9.3425503"><ele>77.0</ele><time>2026-05-03T14:06:10.103Z</time></trkpt><trkpt lat="45.3365864" lon="9.3421195"><ele>76.5</ele><time>2026-05-03T14:06:11.101Z</time></trkpt><trkpt lat="45.3366528" lon="9.3416896"><ele>76.0</ele><time>2026-05-03T14:06:12.102Z</time></trkpt><trkpt lat="45.3367187" lon="9.3412559"><ele>75.5</ele><time>2026-05-03T14:06:13.102Z</time></trkpt><trkpt lat="45.3367865" lon="9.3408202"><ele>75.0</ele><time>2026-05-03T14:06:14.103Z</time></trkpt><trkpt lat="45.336853" lon="9.3403827"><ele>75.0</ele><time>2026-05-03T14:06:15.102Z</time></trkpt><trkpt lat="45.3369173" lon="9.3399716"><ele>75.0</ele><time>2026-05-03T14:06:16.103Z</time></trkpt><trkpt lat="45.3369801" lon="9.3395812"><ele>77.0</ele><time>2026-05-03T14:06:17.1Z</time></trkpt><trkpt lat="45.33704" lon="9.3392169"><ele>79.0</ele><time>2026-05-03T14:06:18.102Z</time></trkpt><trkpt lat="45.3370949" lon="9.338872"><ele>80.5</ele><time>2026-05-03T14:06:19.102Z</time></trkpt><trkpt lat="45.3371458" lon="9.3385449"><ele>82.0</ele><time>2026-05-03T14:06:20.103Z</time></trkpt><trkpt lat="45.3371926" lon="9.338237"><ele>82.66666666666666</ele><time>2026-05-03T14:06:21.102Z</time></trkpt><trkpt lat="45.3372376" lon="9.3379451"><ele>83.33333333333333</ele><time>2026-05-03T14:06:22.103Z</time></trkpt><trkpt lat="45.33728" lon="9.3376637"><ele>84.0</ele><time>2026-05-03T14:06:23.102Z</time></trkpt><trkpt lat="45.3373238" lon="9.3373857"><ele>84.0</ele><time>2026-05-03T14:06:24.103Z</time></trkpt><trkpt lat="45.3373618" lon="9.3371047"><ele>84.0</ele><time>2026-05-03T14:06:25.102Z</time></trkpt><trkpt lat="45.3373993" lon="9.3368398"><ele>84.0</ele><time>2026-05-03T14:06:26.103Z</time></trkpt><trkpt lat="45.3374375" lon="9.3365709"><ele>84.0</ele><time>2026-05-03T14:06:27.103Z</time></trkpt><trkpt lat="45.3374791" lon="9.3363168"><ele>84.0</ele><time>2026-05-03T14:06:28.102Z</time></trkpt><trkpt lat="45.3375196" lon="9.3360537"><ele>84.0</ele><time>2026-05-03T14:06:29.103Z</time></trkpt><trkpt lat="45.3375602" lon="9.335788"><ele>83.66666666666667</ele><time>2026-05-03T14:06:30.103Z</time></trkpt><trkpt lat="45.337603" lon="9.3355386"><ele>83.33333333333334</ele><time>2026-05-03T14:06:31.102Z</time></trkpt><trkpt lat="45.3376386" lon="9.3352834"><ele>83.0</ele><time>2026-05-03T14:06:32.103Z</time></trkpt><trkpt lat="45.337673" lon="9.3350289"><ele>83.0</ele><time>2026-05-03T14:06:33.102Z</time></trkpt><trkpt lat="45.3377078" lon="9.3347811"><ele>83.0</ele><time>2026-05-03T14:06:34.103Z</time></trkpt><trkpt lat="45.3377416" lon="9.3345298"><ele>83.0</ele><time>2026-05-03T14:06:35.103Z</time></trkpt><trkpt lat="45.3377834" lon="9.3342741"><ele>83.33333333333334</ele><time>2026-05-03T14:06:36.102Z</time></trkpt><trkpt lat="45.3378271" lon="9.3340056"><ele>83.66666666666667</ele><time>2026-05-03T14:06:37.101Z</time></trkpt><trkpt lat="45.3378734" lon="9.3337351"><ele>84.0</ele><time>2026-05-03T14:06:38.102Z</time></trkpt><trkpt lat="45.3379147" lon="9.3334506"><ele>84.0</ele><time>2026-05-03T14:06:39.101Z</time></trkpt><trkpt lat="45.3379643" lon="9.3331557"><ele>84.0</ele><time>2026-05-03T14:06:40.1Z</time></trkpt><trkpt lat="45.3380099" lon="9.3328402"><ele>84.0</ele><time>2026-05-03T14:06:41.099Z</time></trkpt><trkpt lat="45.3380627" lon="9.3325196"><ele>85.0</ele><time>2026-05-03T14:06:42.102Z</time></trkpt><trkpt lat="45.3381134" lon="9.33218"><ele>86.0</ele><time>2026-05-03T14:06:43.103Z</time></trkpt><trkpt lat="45.3381672" lon="9.3318335"><ele>86.0</ele><time>2026-05-03T14:06:44.102Z</time></trkpt><trkpt lat="45.3382288" lon="9.3314693"><ele>86.0</ele><time>2026-05-03T14:06:45.103Z</time></trkpt><trkpt lat="45.3382874" lon="9.3310995"><ele>86.5</ele><time>2026-05-03T14:06:46.102Z</time></trkpt><trkpt lat="45.3383513" lon="9.3307169"><ele>87.0</ele><time>2026-05-03T14:06:47.101Z</time></trkpt><trkpt lat="45.338416" lon="9.3303449"><ele>87.0</ele><time>2026-05-03T14:06:48.102Z</time></trkpt><trkpt lat="45.3384874" lon="9.3299934"><ele>87.0</ele><time>2026-05-03T14:06:49.102Z</time></trkpt><trkpt lat="45.3385555" lon="9.3296446"><ele>87.5</ele><time>2026-05-03T14:06:50.102Z</time></trkpt><trkpt lat="45.3386335" lon="9.3293045"><ele>88.0</ele><time>2026-05-03T14:06:51.102Z</time></trkpt><trkpt lat="45.3387125" lon="9.3289536"><ele>87.0</ele><time>2026-05-03T14:06:52.102Z</time></trkpt><trkpt lat="45.3387927" lon="9.3285941"><ele>86.0</ele><time>2026-05-03T14:06:53.102Z</time></trkpt><trkpt lat="45.3388701" lon="9.3282381"><ele>86.0</ele><time>2026-05-03T14:06:54.102Z</time></trkpt><trkpt lat="45.338951" lon="9.3278876"><ele>86.0</ele><time>2026-05-03T14:06:55.103Z</time></trkpt><trkpt lat="45.3390358" lon="9.3275383"><ele>86.0</ele><time>2026-05-03T14:06:56.102Z</time></trkpt><trkpt lat="45.3391219" lon="9.3271944"><ele>86.0</ele><time>2026-05-03T14:06:57.102Z</time></trkpt><trkpt lat="45.3392117" lon="9.3268479"><ele>86.0</ele><time>2026-05-03T14:06:58.103Z</time></trkpt><trkpt lat="45.3393093" lon="9.3265055"><ele>86.0</ele><time>2026-05-03T14:06:59.102Z</time></trkpt><trkpt lat="45.3394092" lon="9.3261561"><ele>87.0</ele><time>2026-05-03T14:07:00.103Z</time></trkpt><trkpt lat="45.3395097" lon="9.3258144"><ele>88.0</ele><time>2026-05-03T14:07:01.102Z</time></trkpt><trkpt lat="45.3396181" lon="9.3254728"><ele>88.5</ele><time>2026-05-03T14:07:02.103Z</time></trkpt><trkpt lat="45.3397226" lon="9.3251446"><ele>89.0</ele><time>2026-05-03T14:07:03.103Z</time></trkpt><trkpt lat="45.3398346" lon="9.3248137"><ele>89.0</ele><time>2026-05-03T14:07:04.103Z</time></trkpt><trkpt lat="45.339947" lon="9.3244845"><ele>89.0</ele><time>2026-05-03T14:07:05.102Z</time></trkpt><trkpt lat="45.3400665" lon="9.3241651"><ele>88.5</ele><time>2026-05-03T14:07:06.102Z</time></trkpt><trkpt lat="45.3401888" lon="9.3238404"><ele>88.0</ele><time>2026-05-03T14:07:07.101Z</time></trkpt><trkpt lat="45.3403089" lon="9.3235295"><ele>88.0</ele><time>2026-05-03T14:07:08.102Z</time></trkpt><trkpt lat="45.3404247" lon="9.3232235"><ele>88.0</ele><time>2026-05-03T14:07:09.102Z</time></trkpt><trkpt lat="45.3405456" lon="9.3229182"><ele>88.5</ele><time>2026-05-03T14:07:10.102Z</time></trkpt><trkpt lat="45.3406636" lon="9.322625"><ele>89.0</ele><time>2026-05-03T14:07:11.103Z</time></trkpt><trkpt lat="45.3407782" lon="9.3223398"><ele>89.5</ele><time>2026-05-03T14:07:12.101Z</time></trkpt><trkpt lat="45.3408991" lon="9.3220582"><ele>90.0</ele><time>2026-05-03T14:07:13.102Z</time></trkpt><trkpt lat="45.3410234" lon="9.3217857"><ele>90.0</ele><time>2026-05-03T14:07:14.102Z</time></trkpt><trkpt lat="45.3411481" lon="9.3215215"><ele>90.0</ele><time>2026-05-03T14:07:15.101Z</time></trkpt><trkpt lat="45.3412797" lon="9.3212438"><ele>89.5</ele><time>2026-05-03T14:07:16.103Z</time></trkpt><trkpt lat="45.3414175" lon="9.3209645"><ele>89.0</ele><time>2026-05-03T14:07:17.102Z</time></trkpt><trkpt lat="45.3415669" lon="9.3206726"><ele>89.0</ele><time>2026-05-03T14:07:18.103Z</time></trkpt><trkpt lat="45.3417206" lon="9.3203689"><ele>89.0</ele><time>2026-05-03T14:07:19.102Z</time></trkpt><trkpt lat="45.3418805" lon="9.3200642"><ele>89.0</ele><time>2026-05-03T14:07:20.103Z</time></trkpt><trkpt lat="45.3420435" lon="9.3197547"><ele>89.0</ele><time>2026-05-03T14:07:21.103Z</time></trkpt><trkpt lat="45.3422046" lon="9.3194468"><ele>88.5</ele><time>2026-05-03T14:07:22.103Z</time></trkpt><trkpt lat="45.3423734" lon="9.3191402"><ele>88.0</ele><time>2026-05-03T14:07:23.103Z</time></trkpt><trkpt lat="45.3425477" lon="9.3188368"><ele>89.5</ele><time>2026-05-03T14:07:24.103Z</time></trkpt><trkpt lat="45.3427227" lon="9.3185361"><ele>91.0</ele><time>2026-05-03T14:07:25.101Z</time></trkpt><trkpt lat="45.3429008" lon="9.3182402"><ele>90.0</ele><time>2026-05-03T14:07:26.103Z</time></trkpt><trkpt lat="45.3430836" lon="9.3179471"><ele>89.0</ele><time>2026-05-03T14:07:27.102Z</time></trkpt><trkpt lat="45.343267" lon="9.3176623"><ele>89.0</ele><time>2026-05-03T14:07:28.103Z</time></trkpt><trkpt lat="45.3434582" lon="9.3173807"><ele>89.0</ele><time>2026-05-03T14:07:29.102Z</time></trkpt><trkpt lat="45.3436512" lon="9.3171038"><ele>89.0</ele><time>2026-05-03T14:07:30.103Z</time></trkpt><trkpt lat="45.3438518" lon="9.3168271"><ele>89.0</ele><time>2026-05-03T14:07:31.102Z</time></trkpt><trkpt lat="45.3440551" lon="9.3165394"><ele>89.0</ele><time>2026-05-03T14:07:32.103Z</time></trkpt><trkpt lat="45.3442619" lon="9.3162593"><ele>89.0</ele><time>2026-05-03T14:07:33.101Z</time></trkpt><trkpt lat="45.3444661" lon="9.3159962"><ele>89.0</ele><time>2026-05-03T14:07:34.102Z</time></trkpt><trkpt lat="45.3446595" lon="9.3157349"><ele>89.0</ele><time>2026-05-03T14:07:35.101Z</time></trkpt><trkpt lat="45.3448533" lon="9.3154867"><ele>89.5</ele><time>2026-05-03T14:07:36.102Z</time></trkpt><trkpt lat="45.3450462" lon="9.3152475"><ele>90.0</ele><time>2026-05-03T14:07:37.102Z</time></trkpt><trkpt lat="45.3452445" lon="9.3150201"><ele>90.0</ele><time>2026-05-03T14:07:38.102Z</time></trkpt><trkpt lat="45.3454434" lon="9.3147953"><ele>90.0</ele><time>2026-05-03T14:07:39.103Z</time></trkpt><trkpt lat="45.3456473" lon="9.3145665"><ele>90.0</ele><time>2026-05-03T14:07:40.103Z</time></trkpt><trkpt lat="45.3458594" lon="9.3143289"><ele>90.0</ele><time>2026-05-03T14:07:41.102Z</time></trkpt><trkpt lat="45.3460747" lon="9.3140978"><ele>89.5</ele><time>2026-05-03T14:07:42.102Z</time></trkpt><trkpt lat="45.3462928" lon="9.3138519"><ele>89.0</ele><time>2026-05-03T14:07:43.103Z</time></trkpt><trkpt lat="45.346513" lon="9.313602"><ele>89.0</ele><time>2026-05-03T14:07:44.103Z</time></trkpt><trkpt lat="45.3467384" lon="9.3133411"><ele>89.0</ele><time>2026-05-03T14:07:45.102Z</time></trkpt><trkpt lat="45.3469561" lon="9.3130923"><ele>89.0</ele><time>2026-05-03T14:07:46.103Z</time></trkpt><trkpt lat="45.3471638" lon="9.3128535"><ele>89.0</ele><time>2026-05-03T14:07:47.102Z</time></trkpt><trkpt lat="45.3473604" lon="9.3126187"><ele>89.0</ele><time>2026-05-03T14:07:48.103Z</time></trkpt><trkpt lat="45.3475573" lon="9.3124098"><ele>89.0</ele><time>2026-05-03T14:07:49.102Z</time></trkpt><trkpt lat="45.3477497" lon="9.3122045"><ele>89.0</ele><time>2026-05-03T14:07:50.103Z</time></trkpt><trkpt lat="45.3479392" lon="9.3120075"><ele>89.0</ele><time>2026-05-03T14:07:51.103Z</time></trkpt><trkpt lat="45.3481145" lon="9.3118502"><ele>89.0</ele><time>2026-05-03T14:07:52.102Z</time></trkpt><trkpt lat="45.3482789" lon="9.3117068"><ele>89.0</ele><time>2026-05-03T14:07:53.102Z</time></trkpt><trkpt lat="45.3484435" lon="9.3115809"><ele>89.0</ele><time>2026-05-03T14:07:54.102Z</time></trkpt><trkpt lat="45.3485964" lon="9.3114604"><ele>89.0</ele><time>2026-05-03T14:07:55.102Z</time></trkpt><trkpt lat="45.3487623" lon="9.3113321"><ele>90.33333333333334</ele><time>2026-05-03T14:07:56.102Z</time></trkpt><trkpt lat="45.348936" lon="9.3112142"><ele>91.66666666666667</ele><time>2026-05-03T14:07:57.103Z</time></trkpt><trkpt lat="45.3491005" lon="9.3111098"><ele>93.0</ele><time>2026-05-03T14:07:58.102Z</time></trkpt><trkpt lat="45.3492451" lon="9.3110001"><ele>93.0</ele><time>2026-05-03T14:07:59.103Z</time></trkpt><trkpt lat="45.3493771" lon="9.3108931"><ele>93.0</ele><time>2026-05-03T14:08:00.103Z</time></trkpt><trkpt lat="45.3494875" lon="9.3108016"><ele>93.0</ele><time>2026-05-03T14:08:01.102Z</time></trkpt><trkpt lat="45.3495727" lon="9.3107203"><ele>93.0</ele><time>2026-05-03T14:08:02.103Z</time></trkpt><trkpt lat="45.3496381" lon="9.3106482"><ele>93.0</ele><time>2026-05-03T14:08:03.102Z</time></trkpt><trkpt lat="45.3496936" lon="9.3105791"><ele>93.0</ele><time>2026-05-03T14:08:04.103Z</time></trkpt><trkpt lat="45.3497467" lon="9.3105169"><ele>93.0</ele><time>2026-05-03T14:08:05.103Z</time></trkpt><trkpt lat="45.3497998" lon="9.3104571"><ele>93.0</ele><time>2026-05-03T14:08:06.103Z</time></trkpt><trkpt lat="45.3498547" lon="9.3103825"><ele>93.0</ele><time>2026-05-03T14:08:07.103Z</time></trkpt><trkpt lat="45.3499191" lon="9.3102996"><ele>93.0</ele><time>2026-05-03T14:08:08.103Z</time></trkpt><trkpt lat="45.3499862" lon="9.3101975"><ele>92.60000000000001</ele><time>2026-05-03T14:08:09.103Z</time></trkpt><trkpt lat="45.3500521" lon="9.3100755"><ele>92.2</ele><time>2026-05-03T14:08:10.102Z</time></trkpt><trkpt lat="45.3501128" lon="9.3099452"><ele>91.8</ele><time>2026-05-03T14:08:11.102Z</time></trkpt><trkpt lat="45.3501795" lon="9.3098146"><ele>91.4</ele><time>2026-05-03T14:08:12.103Z</time></trkpt><trkpt lat="45.3502382" lon="9.3096782"><ele>91.0</ele><time>2026-05-03T14:08:13.103Z</time></trkpt><trkpt lat="45.3502961" lon="9.3095296"><ele>91.0</ele><time>2026-05-03T14:08:14.102Z</time></trkpt><trkpt lat="45.3503547" lon="9.3093824"><ele>91.0</ele><time>2026-05-03T14:08:15.103Z</time></trkpt><trkpt lat="45.350423" lon="9.3092245"><ele>91.0</ele><time>2026-05-03T14:08:16.102Z</time></trkpt><trkpt lat="45.3504928" lon="9.309071"><ele>91.0</ele><time>2026-05-03T14:08:17.103Z</time></trkpt><trkpt lat="45.3505622" lon="9.3089313"><ele>91.0</ele><time>2026-05-03T14:08:18.102Z</time></trkpt><trkpt lat="45.3506297" lon="9.3087949"><ele>91.0</ele><time>2026-05-03T14:08:19.102Z</time></trkpt><trkpt lat="45.350703" lon="9.308651"><ele>91.0</ele><time>2026-05-03T14:08:20.103Z</time></trkpt><trkpt lat="45.3507838" lon="9.3085117"><ele>91.0</ele><time>2026-05-03T14:08:21.102Z</time></trkpt><trkpt lat="45.3508735" lon="9.3083687"><ele>91.0</ele><time>2026-05-03T14:08:22.101Z</time></trkpt><trkpt lat="45.3509788" lon="9.3082266"><ele>91.0</ele><time>2026-05-03T14:08:23.103Z</time></trkpt><trkpt lat="45.3510871" lon="9.3080744"><ele>91.0</ele><time>2026-05-03T14:08:24.103Z</time></trkpt><trkpt lat="45.3512075" lon="9.3079126"><ele>90.66666666666666</ele><time>2026-05-03T14:08:25.102Z</time></trkpt><trkpt lat="45.3513389" lon="9.3077376"><ele>90.33333333333333</ele><time>2026-05-03T14:08:26.103Z</time></trkpt><trkpt lat="45.3514762" lon="9.3075525"><ele>90.0</ele><time>2026-05-03T14:08:27.103Z</time></trkpt><trkpt lat="45.3516311" lon="9.3073509"><ele>90.0</ele><time>2026-05-03T14:08:28.103Z</time></trkpt><trkpt lat="45.3517902" lon="9.307157"><ele>90.0</ele><time>2026-05-03T14:08:29.102Z</time></trkpt><trkpt lat="45.3519582" lon="9.3069556"><ele>90.0</ele><time>2026-05-03T14:08:30.103Z</time></trkpt><trkpt lat="45.3521291" lon="9.3067479"><ele>90.0</ele><time>2026-05-03T14:08:31.102Z</time></trkpt><trkpt lat="45.3523016" lon="9.3065477"><ele>90.0</ele><time>2026-05-03T14:08:32.101Z</time></trkpt><trkpt lat="45.3524782" lon="9.3063399"><ele>90.5</ele><time>2026-05-03T14:08:33.103Z</time></trkpt><trkpt lat="45.3526773" lon="9.3061308"><ele>91.0</ele><time>2026-05-03T14:08:34.102Z</time></trkpt><trkpt lat="45.3528725" lon="9.3059054"><ele>91.0</ele><time>2026-05-03T14:08:35.103Z</time></trkpt><trkpt lat="45.3530678" lon="9.3056818"><ele>91.0</ele><time>2026-05-03T14:08:36.103Z</time></trkpt><trkpt lat="45.3532676" lon="9.3054529"><ele>91.0</ele><time>2026-05-03T14:08:37.102Z</time></trkpt><trkpt lat="45.3534589" lon="9.3052203"><ele>91.0</ele><time>2026-05-03T14:08:38.102Z</time></trkpt><trkpt lat="45.3536506" lon="9.3049782"><ele>91.0</ele><time>2026-05-03T14:08:39.103Z</time></trkpt><trkpt lat="45.3538424" lon="9.3047469"><ele>91.0</ele><time>2026-05-03T14:08:40.101Z</time></trkpt><trkpt lat="45.3540352" lon="9.3045119"><ele>89.5</ele><time>2026-05-03T14:08:41.103Z</time></trkpt><trkpt lat="45.3542241" lon="9.3042933"><ele>88.0</ele><time>2026-05-03T14:08:42.103Z</time></trkpt><trkpt lat="45.3544098" lon="9.3040831"><ele>88.5</ele><time>2026-05-03T14:08:43.102Z</time></trkpt><trkpt lat="45.3545986" lon="9.3038694"><ele>89.0</ele><time>2026-05-03T14:08:44.103Z</time></trkpt><trkpt lat="45.3547864" lon="9.3036708"><ele>89.66666666666667</ele><time>2026-05-03T14:08:45.103Z</time></trkpt><trkpt lat="45.3549507" lon="9.3034801"><ele>90.33333333333333</ele><time>2026-05-03T14:08:46.102Z</time></trkpt><trkpt lat="45.355109" lon="9.303301"><ele>91.0</ele><time>2026-05-03T14:08:47.1Z</time></trkpt><trkpt lat="45.3552655" lon="9.3031463"><ele>91.0</ele><time>2026-05-03T14:08:48.1Z</time></trkpt><trkpt lat="45.3554182" lon="9.3030134"><ele>91.0</ele><time>2026-05-03T14:08:49.102Z</time></trkpt><trkpt lat="45.35559" lon="9.3029078"><ele>91.0</ele><time>2026-05-03T14:08:50.103Z</time></trkpt><trkpt lat="45.3557563" lon="9.3028418"><ele>91.0</ele><time>2026-05-03T14:08:51.102Z</time></trkpt><trkpt lat="45.3559261" lon="9.3028164"><ele>91.0</ele><time>2026-05-03T14:08:52.103Z</time></trkpt><trkpt lat="45.3560948" lon="9.3028466"><ele>91.0</ele><time>2026-05-03T14:08:53.101Z</time></trkpt><trkpt lat="45.3562488" lon="9.3029364"><ele>91.0</ele><time>2026-05-03T14:08:54.102Z</time></trkpt><trkpt lat="45.3563985" lon="9.3030736"><ele>91.0</ele><time>2026-05-03T14:08:55.102Z</time></trkpt><trkpt lat="45.3565404" lon="9.3032515"><ele>91.0</ele><time>2026-05-03T14:08:56.102Z</time></trkpt><trkpt lat="45.356679" lon="9.3034634"><ele>91.0</ele><time>2026-05-03T14:08:57.102Z</time></trkpt><trkpt lat="45.3568068" lon="9.3036901"><ele>91.0</ele><time>2026-05-03T14:08:58.102Z</time></trkpt><trkpt lat="45.356914" lon="9.3039219"><ele>91.0</ele><time>2026-05-03T14:08:59.103Z</time></trkpt><trkpt lat="45.3569968" lon="9.3041349"><ele>91.25</ele><time>2026-05-03T14:09:00.103Z</time></trkpt><trkpt lat="45.3570534" lon="9.3043393"><ele>91.5</ele><time>2026-05-03T14:09:01.103Z</time></trkpt><trkpt lat="45.3570709" lon="9.3045224"><ele>91.75</ele><time>2026-05-03T14:09:02.103Z</time></trkpt><trkpt lat="45.3570507" lon="9.3047022"><ele>92.0</ele><time>2026-05-03T14:09:03.102Z</time></trkpt><trkpt lat="45.3569969" lon="9.3048693"><ele>92.25</ele><time>2026-05-03T14:09:04.102Z</time></trkpt><trkpt lat="45.3569023" lon="9.3050173"><ele>92.5</ele><time>2026-05-03T14:09:05.102Z</time></trkpt><trkpt lat="45.3567777" lon="9.3051282"><ele>92.75</ele><time>2026-05-03T14:09:06.101Z</time></trkpt><trkpt lat="45.3566344" lon="9.3052153"><ele>93.0</ele><time>2026-05-03T14:09:07.102Z</time></trkpt><trkpt lat="45.3564851" lon="9.3052724"><ele>92.75</ele><time>2026-05-03T14:09:08.102Z</time></trkpt><trkpt lat="45.3563372" lon="9.3052908"><ele>92.5</ele><time>2026-05-03T14:09:09.101Z</time></trkpt><trkpt lat="45.3561903" lon="9.3052681"><ele>92.25</ele><time>2026-05-03T14:09:10.103Z</time></trkpt><trkpt lat="45.3560572" lon="9.305201"><ele>92.0</ele><time>2026-05-03T14:09:11.103Z</time></trkpt><trkpt lat="45.3559388" lon="9.3050905"><ele>92.0</ele><time>2026-05-03T14:09:12.103Z</time></trkpt><trkpt lat="45.3558413" lon="9.30494"><ele>92.0</ele><time>2026-05-03T14:09:13.103Z</time></trkpt><trkpt lat="45.3557536" lon="9.3047567"><ele>92.0</ele><time>2026-05-03T14:09:14.102Z</time></trkpt><trkpt lat="45.3556624" lon="9.3045516"><ele>92.33333333333334</ele><time>2026-05-03T14:09:15.102Z</time></trkpt><trkpt lat="45.3555737" lon="9.3043246"><ele>92.66666666666667</ele><time>2026-05-03T14:09:16.102Z</time></trkpt><trkpt lat="45.3554755" lon="9.3040961"><ele>93.0</ele><time>2026-05-03T14:09:17.103Z</time></trkpt><trkpt lat="45.3553739" lon="9.3038583"><ele>92.66666666666667</ele><time>2026-05-03T14:09:18.102Z</time></trkpt><trkpt lat="45.3552747" lon="9.3036151"><ele>92.33333333333334</ele><time>2026-05-03T14:09:19.102Z</time></trkpt><trkpt lat="45.355177" lon="9.3033504"><ele>92.0</ele><time>2026-05-03T14:09:20.102Z</time></trkpt><trkpt lat="45.3550757" lon="9.3030729"><ele>92.0</ele><time>2026-05-03T14:09:21.103Z</time></trkpt><trkpt lat="45.3549707" lon="9.3027768"><ele>92.0</ele><time>2026-05-03T14:09:22.099Z</time></trkpt><trkpt lat="45.3548685" lon="9.3024831"><ele>92.0</ele><time>2026-05-03T14:09:23.102Z</time></trkpt><trkpt lat="45.3547693" lon="9.3022011"><ele>92.0</ele><time>2026-05-03T14:09:24.101Z</time></trkpt><trkpt lat="45.3546739" lon="9.3019308"><ele>92.0</ele><time>2026-05-03T14:09:25.103Z</time></trkpt><trkpt lat="45.3545842" lon="9.3016692"><ele>92.33333333333334</ele><time>2026-05-03T14:09:26.103Z</time></trkpt><trkpt lat="45.3544962" lon="9.3014211"><ele>92.66666666666667</ele><time>2026-05-03T14:09:27.103Z</time></trkpt><trkpt lat="45.3544113" lon="9.3011704"><ele>93.0</ele><time>2026-05-03T14:09:28.103Z</time></trkpt><trkpt lat="45.3543246" lon="9.3009137"><ele>93.0</ele><time>2026-05-03T14:09:29.102Z</time></trkpt><trkpt lat="45.3542533" lon="9.3006746"><ele>93.0</ele><time>2026-05-03T14:09:30.103Z</time></trkpt><trkpt lat="45.3541834" lon="9.3004545"><ele>93.0</ele><time>2026-05-03T14:09:31.102Z</time></trkpt><trkpt lat="45.3541266" lon="9.3002549"><ele>93.0</ele><time>2026-05-03T14:09:32.102Z</time></trkpt><trkpt lat="45.3540805" lon="9.3000825"><ele>93.0</ele><time>2026-05-03T14:09:33.1Z</time></trkpt><trkpt lat="45.3540468" lon="9.2999378"><ele>93.0</ele><time>2026-05-03T14:09:34.103Z</time></trkpt><trkpt lat="45.3540249" lon="9.2998359"><ele>93.0</ele><time>2026-05-03T14:09:35.101Z</time></trkpt><trkpt lat="45.3540133" lon="9.299716"><ele>93.0</ele><time>2026-05-03T14:09:37.103Z</time></trkpt><trkpt lat="45.3540245" lon="9.2996186"><ele>92.4</ele><time>2026-05-03T14:09:38.102Z</time></trkpt><trkpt lat="45.3540317" lon="9.2994998"><ele>91.80000000000001</ele><time>2026-05-03T14:09:39.102Z</time></trkpt><trkpt lat="45.3540106" lon="9.2993871"><ele>91.2</ele><time>2026-05-03T14:09:40.103Z</time></trkpt><trkpt lat="45.3539622" lon="9.2992892"><ele>90.6</ele><time>2026-05-03T14:09:41.103Z</time></trkpt><trkpt lat="45.3538798" lon="9.299206"><ele>90.0</ele><time>2026-05-03T14:09:42.102Z</time></trkpt><trkpt lat="45.3537774" lon="9.2991065"><ele>90.0</ele><time>2026-05-03T14:09:43.103Z</time></trkpt><trkpt lat="45.3536764" lon="9.298973"><ele>90.0</ele><time>2026-05-03T14:09:44.102Z</time></trkpt><trkpt lat="45.3535731" lon="9.2988024"><ele>90.0</ele><time>2026-05-03T14:09:45.102Z</time></trkpt><trkpt lat="45.3534747" lon="9.2985983"><ele>90.0</ele><time>2026-05-03T14:09:46.103Z</time></trkpt><trkpt lat="45.3533768" lon="9.2983615"><ele>90.0</ele><time>2026-05-03T14:09:47.102Z</time></trkpt><trkpt lat="45.3532809" lon="9.2981091"><ele>90.0</ele><time>2026-05-03T14:09:48.103Z</time></trkpt><trkpt lat="45.3531813" lon="9.2978428"><ele>90.0</ele><time>2026-05-03T14:09:49.102Z</time></trkpt><trkpt lat="45.3530851" lon="9.2975706"><ele>90.0</ele><time>2026-05-03T14:09:50.103Z</time></trkpt><trkpt lat="45.3529876" lon="9.2972948"><ele>90.0</ele><time>2026-05-03T14:09:51.103Z</time></trkpt><trkpt lat="45.3528912" lon="9.2970146"><ele>90.66666666666667</ele><time>2026-05-03T14:09:52.102Z</time></trkpt><trkpt lat="45.3527962" lon="9.2967463"><ele>91.33333333333334</ele><time>2026-05-03T14:09:53.099Z</time></trkpt><trkpt lat="45.3527035" lon="9.2964861"><ele>92.0</ele><time>2026-05-03T14:09:54.103Z</time></trkpt><trkpt lat="45.3526142" lon="9.2962296"><ele>92.0</ele><time>2026-05-03T14:09:55.102Z</time></trkpt><trkpt lat="45.3525311" lon="9.2959867"><ele>92.0</ele><time>2026-05-03T14:09:56.102Z</time></trkpt><trkpt lat="45.3524558" lon="9.2957666"><ele>92.0</ele><time>2026-05-03T14:09:57.102Z</time></trkpt><trkpt lat="45.352382" lon="9.2955637"><ele>91.5</ele><time>2026-05-03T14:09:58.103Z</time></trkpt><trkpt lat="45.3523117" lon="9.2953782"><ele>91.0</ele><time>2026-05-03T14:09:59.102Z</time></trkpt><trkpt lat="45.3522494" lon="9.2952073"><ele>90.5</ele><time>2026-05-03T14:10:00.102Z</time></trkpt><trkpt lat="45.3521879" lon="9.295025"><ele>90.0</ele><time>2026-05-03T14:10:01.103Z</time></trkpt><trkpt lat="45.3521242" lon="9.2948398"><ele>89.66666666666667</ele><time>2026-05-03T14:10:02.1Z</time></trkpt><trkpt lat="45.3520598" lon="9.2946526"><ele>89.33333333333334</ele><time>2026-05-03T14:10:03.102Z</time></trkpt><trkpt lat="45.3519926" lon="9.2944573"><ele>89.0</ele><time>2026-05-03T14:10:04.102Z</time></trkpt><trkpt lat="45.3519221" lon="9.2942551"><ele>89.0</ele><time>2026-05-03T14:10:05.102Z</time></trkpt><trkpt lat="45.3518527" lon="9.2940529"><ele>89.0</ele><time>2026-05-03T14:10:06.103Z</time></trkpt><trkpt lat="45.3517843" lon="9.2938436"><ele>89.0</ele><time>2026-05-03T14:10:07.102Z</time></trkpt><trkpt lat="45.351711" lon="9.2936407"><ele>89.33333333333334</ele><time>2026-05-03T14:10:08.103Z</time></trkpt><trkpt lat="45.3516373" lon="9.2934289"><ele>89.66666666666667</ele><time>2026-05-03T14:10:09.103Z</time></trkpt><trkpt lat="45.3515613" lon="9.2932233"><ele>90.0</ele><time>2026-05-03T14:10:10.103Z</time></trkpt><trkpt lat="45.3514831" lon="9.2930095"><ele>90.0</ele><time>2026-05-03T14:10:11.103Z</time></trkpt><trkpt lat="45.3514073" lon="9.2927897"><ele>90.0</ele><time>2026-05-03T14:10:12.103Z</time></trkpt><trkpt lat="45.3513339" lon="9.2925742"><ele>90.0</ele><time>2026-05-03T14:10:13.103Z</time></trkpt><trkpt lat="45.3512556" lon="9.2923534"><ele>89.66666666666667</ele><time>2026-05-03T14:10:14.103Z</time></trkpt><trkpt lat="45.351181" lon="9.2921309"><ele>89.33333333333334</ele><time>2026-05-03T14:10:15.102Z</time></trkpt><trkpt lat="45.3511022" lon="9.2919136"><ele>89.0</ele><time>2026-05-03T14:10:16.102Z</time></trkpt><trkpt lat="45.3510262" lon="9.291694"><ele>89.0</ele><time>2026-05-03T14:10:17.103Z</time></trkpt><trkpt lat="45.3509426" lon="9.2914625"><ele>89.0</ele><time>2026-05-03T14:10:18.102Z</time></trkpt><trkpt lat="45.3508616" lon="9.2912321"><ele>89.0</ele><time>2026-05-03T14:10:19.102Z</time></trkpt><trkpt lat="45.3507843" lon="9.2910038"><ele>89.0</ele><time>2026-05-03T14:10:20.102Z</time></trkpt><trkpt lat="45.3507049" lon="9.2907724"><ele>89.0</ele><time>2026-05-03T14:10:21.1Z</time></trkpt><trkpt lat="45.3506239" lon="9.2905381"><ele>89.0</ele><time>2026-05-03T14:10:22.102Z</time></trkpt><trkpt lat="45.3505507" lon="9.2903031"><ele>89.0</ele><time>2026-05-03T14:10:23.102Z</time></trkpt><trkpt lat="45.3504663" lon="9.29007"><ele>89.0</ele><time>2026-05-03T14:10:24.102Z</time></trkpt><trkpt lat="45.3503845" lon="9.2898333"><ele>89.0</ele><time>2026-05-03T14:10:25.103Z</time></trkpt><trkpt lat="45.3503049" lon="9.2895987"><ele>89.0</ele><time>2026-05-03T14:10:26.101Z</time></trkpt><trkpt lat="45.3502207" lon="9.2893621"><ele>89.0</ele><time>2026-05-03T14:10:27.1Z</time></trkpt><trkpt lat="45.3501381" lon="9.2891215"><ele>89.0</ele><time>2026-05-03T14:10:28.101Z</time></trkpt><trkpt lat="45.3500571" lon="9.2888783"><ele>89.33333333333334</ele><time>2026-05-03T14:10:29.103Z</time></trkpt><trkpt lat="45.349981" lon="9.2886374"><ele>89.66666666666667</ele><time>2026-05-03T14:10:30.102Z</time></trkpt><trkpt lat="45.3498953" lon="9.2883972"><ele>90.0</ele><time>2026-05-03T14:10:31.102Z</time></trkpt><trkpt lat="45.3498125" lon="9.2881561"><ele>90.33333333333333</ele><time>2026-05-03T14:10:32.102Z</time></trkpt><trkpt lat="45.3497251" lon="9.2879188"><ele>90.66666666666666</ele><time>2026-05-03T14:10:33.102Z</time></trkpt><trkpt lat="45.3496363" lon="9.2876823"><ele>91.0</ele><time>2026-05-03T14:10:34.103Z</time></trkpt><trkpt lat="45.3495517" lon="9.2874526"><ele>90.66666666666666</ele><time>2026-05-03T14:10:35.101Z</time></trkpt><trkpt lat="45.3494722" lon="9.2872211"><ele>90.33333333333333</ele><time>2026-05-03T14:10:36.103Z</time></trkpt><trkpt lat="45.3493942" lon="9.2869915"><ele>90.0</ele><time>2026-05-03T14:10:37.102Z</time></trkpt><trkpt lat="45.3493141" lon="9.2867759"><ele>90.0</ele><time>2026-05-03T14:10:38.102Z</time></trkpt><trkpt lat="45.3492396" lon="9.2865703"><ele>90.0</ele><time>2026-05-03T14:10:39.102Z</time></trkpt><trkpt lat="45.3491637" lon="9.2863659"><ele>90.0</ele><time>2026-05-03T14:10:40.102Z</time></trkpt><trkpt lat="45.3490866" lon="9.2861647"><ele>90.66666666666667</ele><time>2026-05-03T14:10:41.102Z</time></trkpt><trkpt lat="45.3490177" lon="9.2859717"><ele>91.33333333333334</ele><time>2026-05-03T14:10:42.102Z</time></trkpt><trkpt lat="45.3489454" lon="9.2857777"><ele>92.0</ele><time>2026-05-03T14:10:43.103Z</time></trkpt><trkpt lat="45.3488765" lon="9.2855824"><ele>92.33333333333334</ele><time>2026-05-03T14:10:44.103Z</time></trkpt><trkpt lat="45.348813" lon="9.285383"><ele>92.66666666666667</ele><time>2026-05-03T14:10:45.102Z</time></trkpt><trkpt lat="45.348749" lon="9.2851912"><ele>93.0</ele><time>2026-05-03T14:10:46.103Z</time></trkpt><trkpt lat="45.3486877" lon="9.2849973"><ele>93.0</ele><time>2026-05-03T14:10:47.103Z</time></trkpt><trkpt lat="45.3486217" lon="9.2848094"><ele>93.0</ele><time>2026-05-03T14:10:48.102Z</time></trkpt><trkpt lat="45.3485607" lon="9.2846262"><ele>93.0</ele><time>2026-05-03T14:10:49.102Z</time></trkpt><trkpt lat="45.3484935" lon="9.2844427"><ele>93.0</ele><time>2026-05-03T14:10:50.102Z</time></trkpt><trkpt lat="45.3484255" lon="9.2842603"><ele>92.75</ele><time>2026-05-03T14:10:51.102Z</time></trkpt><trkpt lat="45.3483616" lon="9.2840698"><ele>92.5</ele><time>2026-05-03T14:10:52.098Z</time></trkpt><trkpt lat="45.3483015" lon="9.2838836"><ele>92.25</ele><time>2026-05-03T14:10:53.102Z</time></trkpt><trkpt lat="45.3482396" lon="9.2836882"><ele>92.0</ele><time>2026-05-03T14:10:54.103Z</time></trkpt><trkpt lat="45.3481732" lon="9.2835026"><ele>91.5</ele><time>2026-05-03T14:10:55.103Z</time></trkpt><trkpt lat="45.3481122" lon="9.2833201"><ele>91.0</ele><time>2026-05-03T14:10:56.102Z</time></trkpt><trkpt lat="45.3480613" lon="9.2831411"><ele>90.5</ele><time>2026-05-03T14:10:57.102Z</time></trkpt><trkpt lat="45.3480198" lon="9.2829565"><ele>90.0</ele><time>2026-05-03T14:10:58.103Z</time></trkpt><trkpt lat="45.3480103" lon="9.2827808"><ele>90.0</ele><time>2026-05-03T14:10:59.103Z</time></trkpt><trkpt lat="45.3480083" lon="9.2826232"><ele>90.0</ele><time>2026-05-03T14:11:00.103Z</time></trkpt><trkpt lat="45.3480238" lon="9.2824833"><ele>90.0</ele><time>2026-05-03T14:11:01.103Z</time></trkpt><trkpt lat="45.3480333" lon="9.282359"><ele>90.0</ele><time>2026-05-03T14:11:02.103Z</time></trkpt><trkpt lat="45.3480298" lon="9.2822255"><ele>90.0</ele><time>2026-05-03T14:11:03.103Z</time></trkpt><trkpt lat="45.3479906" lon="9.2820656"><ele>90.0</ele><time>2026-05-03T14:11:04.101Z</time></trkpt><trkpt lat="45.3479184" lon="9.2819106"><ele>90.0</ele><time>2026-05-03T14:11:05.103Z</time></trkpt><trkpt lat="45.3478085" lon="9.2817556"><ele>90.0</ele><time>2026-05-03T14:11:06.101Z</time></trkpt><trkpt lat="45.3476843" lon="9.2816166"><ele>90.0</ele><time>2026-05-03T14:11:07.103Z</time></trkpt><trkpt lat="45.3475735" lon="9.2814788"><ele>90.75</ele><time>2026-05-03T14:11:08.103Z</time></trkpt><trkpt lat="45.3474722" lon="9.2813289"><ele>91.5</ele><time>2026-05-03T14:11:09.102Z</time></trkpt><trkpt lat="45.3473839" lon="9.2811641"><ele>92.25</ele><time>2026-05-03T14:11:10.102Z</time></trkpt><trkpt lat="45.3473056" lon="9.2809896"><ele>93.0</ele><time>2026-05-03T14:11:11.102Z</time></trkpt><trkpt lat="45.3472459" lon="9.2808176"><ele>92.5</ele><time>2026-05-03T14:11:12.103Z</time></trkpt><trkpt lat="45.3471794" lon="9.2806447"><ele>92.0</ele><time>2026-05-03T14:11:13.103Z</time></trkpt><trkpt lat="45.3471104" lon="9.2804617"><ele>91.5</ele><time>2026-05-03T14:11:14.102Z</time></trkpt><trkpt lat="45.3470431" lon="9.2802723"><ele>91.0</ele><time>2026-05-03T14:11:15.103Z</time></trkpt><trkpt lat="45.3469821" lon="9.2800855"><ele>90.75</ele><time>2026-05-03T14:11:16.103Z</time></trkpt><trkpt lat="45.3469158" lon="9.2799059"><ele>90.5</ele><time>2026-05-03T14:11:17.103Z</time></trkpt><trkpt lat="45.3468545" lon="9.2797282"><ele>90.25</ele><time>2026-05-03T14:11:18.103Z</time></trkpt><trkpt lat="45.3467921" lon="9.2795511"><ele>90.0</ele><time>2026-05-03T14:11:19.102Z</time></trkpt><trkpt lat="45.3467285" lon="9.2793808"><ele>90.0</ele><time>2026-05-03T14:11:20.102Z</time></trkpt><trkpt lat="45.3466665" lon="9.2792065"><ele>90.0</ele><time>2026-05-03T14:11:21.102Z</time></trkpt><trkpt lat="45.3466053" lon="9.2790158"><ele>90.0</ele><time>2026-05-03T14:11:22.101Z</time></trkpt><trkpt lat="45.346545" lon="9.2788219"><ele>90.0</ele><time>2026-05-03T14:11:23.101Z</time></trkpt><trkpt lat="45.3464751" lon="9.2786172"><ele>90.0</ele><time>2026-05-03T14:11:24.1Z</time></trkpt><trkpt lat="45.3464065" lon="9.2784109"><ele>90.0</ele><time>2026-05-03T14:11:25.102Z</time></trkpt><trkpt lat="45.3463339" lon="9.2782016"><ele>90.0</ele><time>2026-05-03T14:11:26.102Z</time></trkpt><trkpt lat="45.3462503" lon="9.2779802"><ele>90.0</ele><time>2026-05-03T14:11:27.101Z</time></trkpt><trkpt lat="45.346158" lon="9.277735"><ele>90.0</ele><time>2026-05-03T14:11:28.103Z</time></trkpt><trkpt lat="45.3460647" lon="9.2774696"><ele>90.0</ele><time>2026-05-03T14:11:29.103Z</time></trkpt><trkpt lat="45.3459699" lon="9.2771894"><ele>90.0</ele><time>2026-05-03T14:11:30.101Z</time></trkpt><trkpt lat="45.3458704" lon="9.2768969"><ele>90.0</ele><time>2026-05-03T14:11:31.101Z</time></trkpt><trkpt lat="45.3457724" lon="9.2766099"><ele>89.66666666666667</ele><time>2026-05-03T14:11:32.102Z</time></trkpt><trkpt lat="45.3456769" lon="9.2763311"><ele>89.33333333333334</ele><time>2026-05-03T14:11:33.103Z</time></trkpt><trkpt lat="45.3455916" lon="9.2760815"><ele>89.0</ele><time>2026-05-03T14:11:34.103Z</time></trkpt><trkpt lat="45.3455124" lon="9.2758539"><ele>88.66666666666667</ele><time>2026-05-03T14:11:35.101Z</time></trkpt><trkpt lat="45.3454428" lon="9.2756423"><ele>88.33333333333333</ele><time>2026-05-03T14:11:36.103Z</time></trkpt><trkpt lat="45.3453684" lon="9.2754214"><ele>88.0</ele><time>2026-05-03T14:11:37.1Z</time></trkpt><trkpt lat="45.3453004" lon="9.2752219"><ele>89.0</ele><time>2026-05-03T14:11:38.102Z</time></trkpt><trkpt lat="45.3452306" lon="9.2750157"><ele>90.0</ele><time>2026-05-03T14:11:39.103Z</time></trkpt><trkpt lat="45.3451526" lon="9.2748087"><ele>91.0</ele><time>2026-05-03T14:11:40.103Z</time></trkpt><trkpt lat="45.3450759" lon="9.2746041"><ele>91.66666666666666</ele><time>2026-05-03T14:11:41.103Z</time></trkpt><trkpt lat="45.3450016" lon="9.2743865"><ele>92.33333333333333</ele><time>2026-05-03T14:11:42.102Z</time></trkpt><trkpt lat="45.3449321" lon="9.2741792"><ele>93.0</ele><time>2026-05-03T14:11:43.1Z</time></trkpt><trkpt lat="45.3448617" lon="9.2739786"><ele>92.66666666666667</ele><time>2026-05-03T14:11:44.103Z</time></trkpt><trkpt lat="45.3447905" lon="9.2737759"><ele>92.33333333333334</ele><time>2026-05-03T14:11:45.102Z</time></trkpt><trkpt lat="45.344717" lon="9.2735796"><ele>92.0</ele><time>2026-05-03T14:11:46.102Z</time></trkpt><trkpt lat="45.3446398" lon="9.2733611"><ele>91.66666666666667</ele><time>2026-05-03T14:11:47.101Z</time></trkpt><trkpt lat="45.3445684" lon="9.2731472"><ele>91.33333333333333</ele><time>2026-05-03T14:11:48.103Z</time></trkpt><trkpt lat="45.3444969" lon="9.2729377"><ele>91.0</ele><time>2026-05-03T14:11:49.102Z</time></trkpt><trkpt lat="45.3444162" lon="9.2727213"><ele>91.0</ele><time>2026-05-03T14:11:50.103Z</time></trkpt><trkpt lat="45.3443286" lon="9.2724827"><ele>91.0</ele><time>2026-05-03T14:11:51.101Z</time></trkpt><trkpt lat="45.3442335" lon="9.2722044"><ele>91.0</ele><time>2026-05-03T14:11:52.102Z</time></trkpt><trkpt lat="45.3441245" lon="9.2718899"><ele>91.0</ele><time>2026-05-03T14:11:53.102Z</time></trkpt><trkpt lat="45.3440229" lon="9.2715785"><ele>91.0</ele><time>2026-05-03T14:11:54.103Z</time></trkpt><trkpt lat="45.3439347" lon="9.2712936"><ele>91.0</ele><time>2026-05-03T14:11:55.102Z</time></trkpt><trkpt lat="45.3438549" lon="9.2710559"><ele>91.0</ele><time>2026-05-03T14:11:56.103Z</time></trkpt><trkpt lat="45.3437899" lon="9.2708555"><ele>91.0</ele><time>2026-05-03T14:11:57.103Z</time></trkpt><trkpt lat="45.3437425" lon="9.2706766"><ele>91.0</ele><time>2026-05-03T14:11:58.103Z</time></trkpt><trkpt lat="45.3437101" lon="9.2705215"><ele>91.0</ele><time>2026-05-03T14:11:59.102Z</time></trkpt><trkpt lat="45.3437004" lon="9.2703595"><ele>91.0</ele><time>2026-05-03T14:12:00.102Z</time></trkpt><trkpt lat="45.3437025" lon="9.2701993"><ele>91.0</ele><time>2026-05-03T14:12:01.103Z</time></trkpt><trkpt lat="45.3436948" lon="9.27006"><ele>91.0</ele><time>2026-05-03T14:12:02.102Z</time></trkpt><trkpt lat="45.3436529" lon="9.2699357"><ele>91.0</ele><time>2026-05-03T14:12:03.103Z</time></trkpt><trkpt lat="45.3435904" lon="9.2698429"><ele>91.0</ele><time>2026-05-03T14:12:04.103Z</time></trkpt><trkpt lat="45.3435005" lon="9.2697629"><ele>91.0</ele><time>2026-05-03T14:12:05.102Z</time></trkpt><trkpt lat="45.3434163" lon="9.269664"><ele>91.0</ele><time>2026-05-03T14:12:06.103Z</time></trkpt><trkpt lat="45.343339" lon="9.2695506"><ele>91.0</ele><time>2026-05-03T14:12:07.103Z</time></trkpt><trkpt lat="45.3432798" lon="9.2694156"><ele>91.33333333333333</ele><time>2026-05-03T14:12:08.102Z</time></trkpt><trkpt lat="45.3432134" lon="9.2692541"><ele>91.66666666666667</ele><time>2026-05-03T14:12:09.103Z</time></trkpt><trkpt lat="45.3431416" lon="9.2690481"><ele>92.0</ele><time>2026-05-03T14:12:10.102Z</time></trkpt><trkpt lat="45.3430721" lon="9.2688441"><ele>91.33333333333334</ele><time>2026-05-03T14:12:11.103Z</time></trkpt><trkpt lat="45.3429982" lon="9.2686208"><ele>90.66666666666667</ele><time>2026-05-03T14:12:12.102Z</time></trkpt><trkpt lat="45.3429281" lon="9.2683996"><ele>90.0</ele><time>2026-05-03T14:12:13.102Z</time></trkpt><trkpt lat="45.3428544" lon="9.268179"><ele>89.66666666666667</ele><time>2026-05-03T14:12:14.102Z</time></trkpt><trkpt lat="45.34278" lon="9.2679645"><ele>89.33333333333334</ele><time>2026-05-03T14:12:15.103Z</time></trkpt><trkpt lat="45.3427027" lon="9.2677418"><ele>89.0</ele><time>2026-05-03T14:12:16.102Z</time></trkpt><trkpt lat="45.342629" lon="9.2675106"><ele>88.66666666666667</ele><time>2026-05-03T14:12:17.102Z</time></trkpt><trkpt lat="45.3425442" lon="9.2672677"><ele>88.33333333333333</ele><time>2026-05-03T14:12:18.101Z</time></trkpt><trkpt lat="45.3424507" lon="9.26701"><ele>88.0</ele><time>2026-05-03T14:12:19.102Z</time></trkpt><trkpt lat="45.3423587" lon="9.2667475"><ele>88.0</ele><time>2026-05-03T14:12:20.103Z</time></trkpt><trkpt lat="45.3422635" lon="9.2664813"><ele>88.0</ele><time>2026-05-03T14:12:21.103Z</time></trkpt><trkpt lat="45.3421766" lon="9.2662254"><ele>88.0</ele><time>2026-05-03T14:12:22.102Z</time></trkpt><trkpt lat="45.3420863" lon="9.2659751"><ele>88.33333333333333</ele><time>2026-05-03T14:12:23.102Z</time></trkpt><trkpt lat="45.3420042" lon="9.2657132"><ele>88.66666666666667</ele><time>2026-05-03T14:12:24.102Z</time></trkpt><trkpt lat="45.3419139" lon="9.2654698"><ele>89.0</ele><time>2026-05-03T14:12:25.102Z</time></trkpt><trkpt lat="45.3418223" lon="9.2652165"><ele>89.0</ele><time>2026-05-03T14:12:26.102Z</time></trkpt><trkpt lat="45.3417292" lon="9.264963"><ele>89.0</ele><time>2026-05-03T14:12:27.102Z</time></trkpt><trkpt lat="45.3416368" lon="9.2647033"><ele>89.0</ele><time>2026-05-03T14:12:28.103Z</time></trkpt><trkpt lat="45.3415505" lon="9.2644475"><ele>89.0</ele><time>2026-05-03T14:12:29.102Z</time></trkpt><trkpt lat="45.3414728" lon="9.2642082"><ele>89.0</ele><time>2026-05-03T14:12:30.103Z</time></trkpt><trkpt lat="45.3413973" lon="9.2639822"><ele>89.0</ele><time>2026-05-03T14:12:31.102Z</time></trkpt><trkpt lat="45.3413221" lon="9.2637653"><ele>89.33333333333334</ele><time>2026-05-03T14:12:32.102Z</time></trkpt><trkpt lat="45.3412466" lon="9.2635483"><ele>89.66666666666667</ele><time>2026-05-03T14:12:33.102Z</time></trkpt><trkpt lat="45.3411781" lon="9.2633365"><ele>90.0</ele><time>2026-05-03T14:12:34.102Z</time></trkpt><trkpt lat="45.3411037" lon="9.2631321"><ele>89.66666666666667</ele><time>2026-05-03T14:12:35.102Z</time></trkpt><trkpt lat="45.3410348" lon="9.2629307"><ele>89.33333333333334</ele><time>2026-05-03T14:12:36.101Z</time></trkpt><trkpt lat="45.3409598" lon="9.2627292"><ele>89.0</ele><time>2026-05-03T14:12:37.102Z</time></trkpt><trkpt lat="45.3408846" lon="9.2625293"><ele>89.0</ele><time>2026-05-03T14:12:38.102Z</time></trkpt><trkpt lat="45.3408125" lon="9.2623266"><ele>89.0</ele><time>2026-05-03T14:12:39.103Z</time></trkpt><trkpt lat="45.3407435" lon="9.2621209"><ele>89.0</ele><time>2026-05-03T14:12:40.102Z</time></trkpt><trkpt lat="45.3406708" lon="9.2619117"><ele>89.0</ele><time>2026-05-03T14:12:41.102Z</time></trkpt><trkpt lat="45.3405972" lon="9.2617007"><ele>89.0</ele><time>2026-05-03T14:12:42.103Z</time></trkpt><trkpt lat="45.3405229" lon="9.2614874"><ele>89.0</ele><time>2026-05-03T14:12:43.102Z</time></trkpt><trkpt lat="45.3404483" lon="9.2612678"><ele>89.0</ele><time>2026-05-03T14:12:44.103Z</time></trkpt><trkpt lat="45.340373" lon="9.2610505"><ele>89.0</ele><time>2026-05-03T14:12:45.103Z</time></trkpt><trkpt lat="45.3402941" lon="9.2608349"><ele>89.0</ele><time>2026-05-03T14:12:46.103Z</time></trkpt><trkpt lat="45.3402158" lon="9.2606128"><ele>89.33333333333334</ele><time>2026-05-03T14:12:47.101Z</time></trkpt><trkpt lat="45.340146" lon="9.2604033"><ele>89.66666666666667</ele><time>2026-05-03T14:12:48.103Z</time></trkpt><trkpt lat="45.3400678" lon="9.2601831"><ele>90.0</ele><time>2026-05-03T14:12:49.102Z</time></trkpt><trkpt lat="45.3399937" lon="9.259969"><ele>90.33333333333333</ele><time>2026-05-03T14:12:50.102Z</time></trkpt><trkpt lat="45.339919" lon="9.2597613"><ele>90.66666666666666</ele><time>2026-05-03T14:12:51.103Z</time></trkpt><trkpt lat="45.339844" lon="9.2595552"><ele>91.0</ele><time>2026-05-03T14:12:52.101Z</time></trkpt><trkpt lat="45.3397744" lon="9.2593573"><ele>90.33333333333333</ele><time>2026-05-03T14:12:53.103Z</time></trkpt><trkpt lat="45.3397023" lon="9.259154"><ele>89.66666666666667</ele><time>2026-05-03T14:12:54.101Z</time></trkpt><trkpt lat="45.3396298" lon="9.2589508"><ele>89.0</ele><time>2026-05-03T14:12:55.102Z</time></trkpt><trkpt lat="45.3395582" lon="9.2587401"><ele>89.0</ele><time>2026-05-03T14:12:56.102Z</time></trkpt><trkpt lat="45.3394893" lon="9.2585324"><ele>89.0</ele><time>2026-05-03T14:12:57.102Z</time></trkpt><trkpt lat="45.3394216" lon="9.2583228"><ele>89.0</ele><time>2026-05-03T14:12:58.103Z</time></trkpt><trkpt lat="45.3393499" lon="9.2581126"><ele>89.0</ele><time>2026-05-03T14:12:59.103Z</time></trkpt><trkpt lat="45.3392742" lon="9.2579066"><ele>89.0</ele><time>2026-05-03T14:13:00.103Z</time></trkpt><trkpt lat="45.3392013" lon="9.2577023"><ele>89.0</ele><time>2026-05-03T14:13:01.103Z</time></trkpt><trkpt lat="45.3391272" lon="9.2574936"><ele>89.0</ele><time>2026-05-03T14:13:02.101Z</time></trkpt><trkpt lat="45.3390562" lon="9.2572913"><ele>89.0</ele><time>2026-05-03T14:13:03.103Z</time></trkpt><trkpt lat="45.3389918" lon="9.2570922"><ele>89.0</ele><time>2026-05-03T14:13:04.103Z</time></trkpt><trkpt lat="45.3389205" lon="9.256882"><ele>89.33333333333334</ele><time>2026-05-03T14:13:05.103Z</time></trkpt><trkpt lat="45.3388506" lon="9.256676"><ele>89.66666666666667</ele><time>2026-05-03T14:13:06.102Z</time></trkpt><trkpt lat="45.3387864" lon="9.2564662"><ele>90.0</ele><time>2026-05-03T14:13:07.102Z</time></trkpt><trkpt lat="45.3387128" lon="9.2562568"><ele>90.33333333333333</ele><time>2026-05-03T14:13:08.102Z</time></trkpt><trkpt lat="45.338642" lon="9.2560517"><ele>90.66666666666666</ele><time>2026-05-03T14:13:09.101Z</time></trkpt><trkpt lat="45.3385684" lon="9.2558442"><ele>91.0</ele><time>2026-05-03T14:13:10.102Z</time></trkpt><trkpt lat="45.3384959" lon="9.2556377"><ele>90.66666666666666</ele><time>2026-05-03T14:13:11.103Z</time></trkpt><trkpt lat="45.338424" lon="9.2554329"><ele>90.33333333333333</ele><time>2026-05-03T14:13:12.102Z</time></trkpt><trkpt lat="45.3383526" lon="9.2552248"><ele>90.0</ele><time>2026-05-03T14:13:13.102Z</time></trkpt><trkpt lat="45.3382793" lon="9.2550181"><ele>90.0</ele><time>2026-05-03T14:13:14.102Z</time></trkpt><trkpt lat="45.3382074" lon="9.2548138"><ele>90.0</ele><time>2026-05-03T14:13:15.103Z</time></trkpt><trkpt lat="45.3381345" lon="9.2546123"><ele>90.0</ele><time>2026-05-03T14:13:16.103Z</time></trkpt><trkpt lat="45.3380636" lon="9.2544035"><ele>90.0</ele><time>2026-05-03T14:13:17.103Z</time></trkpt><trkpt lat="45.3379893" lon="9.2541913"><ele>90.0</ele><time>2026-05-03T14:13:18.101Z</time></trkpt><trkpt lat="45.3379098" lon="9.2539688"><ele>90.0</ele><time>2026-05-03T14:13:19.103Z</time></trkpt><trkpt lat="45.3378267" lon="9.2537291"><ele>90.0</ele><time>2026-05-03T14:13:20.102Z</time></trkpt><trkpt lat="45.3377326" lon="9.2534691"><ele>90.0</ele><time>2026-05-03T14:13:21.103Z</time></trkpt><trkpt lat="45.3376474" lon="9.2532178"><ele>90.0</ele><time>2026-05-03T14:13:22.103Z</time></trkpt><trkpt lat="45.3375597" lon="9.2529719"><ele>90.0</ele><time>2026-05-03T14:13:23.102Z</time></trkpt><trkpt lat="45.3374732" lon="9.2527408"><ele>90.0</ele><time>2026-05-03T14:13:24.103Z</time></trkpt><trkpt lat="45.3373913" lon="9.2525213"><ele>90.0</ele><time>2026-05-03T14:13:25.103Z</time></trkpt><trkpt lat="45.337321" lon="9.2523049"><ele>90.33333333333333</ele><time>2026-05-03T14:13:26.102Z</time></trkpt><trkpt lat="45.3372459" lon="9.2520821"><ele>90.66666666666666</ele><time>2026-05-03T14:13:27.102Z</time></trkpt><trkpt lat="45.3371689" lon="9.2518668"><ele>91.0</ele><time>2026-05-03T14:13:28.102Z</time></trkpt><trkpt lat="45.3370975" lon="9.2516561"><ele>90.66666666666666</ele><time>2026-05-03T14:13:29.1Z</time></trkpt><trkpt lat="45.3370113" lon="9.2514344"><ele>90.33333333333333</ele><time>2026-05-03T14:13:30.102Z</time></trkpt><trkpt lat="45.3369254" lon="9.2511989"><ele>90.0</ele><time>2026-05-03T14:13:31.103Z</time></trkpt><trkpt lat="45.3368393" lon="9.2509686"><ele>90.0</ele><time>2026-05-03T14:13:32.098Z</time></trkpt><trkpt lat="45.3367671" lon="9.2507588"><ele>90.0</ele><time>2026-05-03T14:13:33.101Z</time></trkpt><trkpt lat="45.3367195" lon="9.2505706"><ele>90.0</ele><time>2026-05-03T14:13:34.101Z</time></trkpt><trkpt lat="45.3366697" lon="9.2503914"><ele>90.0</ele><time>2026-05-03T14:13:35.103Z</time></trkpt><trkpt lat="45.3366341" lon="9.2502068"><ele>90.5</ele><time>2026-05-03T14:13:36.101Z</time></trkpt><trkpt lat="45.3366126" lon="9.2500157"><ele>91.0</ele><time>2026-05-03T14:13:37.102Z</time></trkpt><trkpt lat="45.3366097" lon="9.2498177"><ele>91.5</ele><time>2026-05-03T14:13:38.102Z</time></trkpt><trkpt lat="45.3366081" lon="9.2496148"><ele>92.0</ele><time>2026-05-03T14:13:39.102Z</time></trkpt><trkpt lat="45.3365787" lon="9.2494207"><ele>92.0</ele><time>2026-05-03T14:13:40.101Z</time></trkpt><trkpt lat="45.3365318" lon="9.249238"><ele>92.0</ele><time>2026-05-03T14:13:41.103Z</time></trkpt><trkpt lat="45.3364687" lon="9.2490841"><ele>92.0</ele><time>2026-05-03T14:13:42.102Z</time></trkpt><trkpt lat="45.3364053" lon="9.248972"><ele>92.0</ele><time>2026-05-03T14:13:43.102Z</time></trkpt><trkpt lat="45.3363266" lon="9.248871"><ele>92.0</ele><time>2026-05-03T14:13:44.102Z</time></trkpt><trkpt lat="45.3362244" lon="9.2487644"><ele>92.0</ele><time>2026-05-03T14:13:45.101Z</time></trkpt><trkpt lat="45.3361213" lon="9.2486296"><ele>92.0</ele><time>2026-05-03T14:13:46.102Z</time></trkpt><trkpt lat="45.3360246" lon="9.2484633"><ele>92.0</ele><time>2026-05-03T14:13:47.103Z</time></trkpt><trkpt lat="45.3359377" lon="9.2482802"><ele>92.25</ele><time>2026-05-03T14:13:48.103Z</time></trkpt><trkpt lat="45.3358656" lon="9.2481022"><ele>92.5</ele><time>2026-05-03T14:13:49.102Z</time></trkpt><trkpt lat="45.3358016" lon="9.2479279"><ele>92.75</ele><time>2026-05-03T14:13:50.102Z</time></trkpt><trkpt lat="45.3357394" lon="9.2477507"><ele>93.0</ele><time>2026-05-03T14:13:51.1Z</time></trkpt><trkpt lat="45.335676" lon="9.2475721"><ele>93.0</ele><time>2026-05-03T14:13:52.102Z</time></trkpt><trkpt lat="45.335608" lon="9.2473935"><ele>93.0</ele><time>2026-05-03T14:13:53.103Z</time></trkpt><trkpt lat="45.3355392" lon="9.2472151"><ele>93.0</ele><time>2026-05-03T14:13:54.102Z</time></trkpt><trkpt lat="45.3354808" lon="9.2470393"><ele>93.0</ele><time>2026-05-03T14:13:55.102Z</time></trkpt><trkpt lat="45.3354213" lon="9.246874"><ele>92.5</ele><time>2026-05-03T14:13:56.103Z</time></trkpt><trkpt lat="45.3353665" lon="9.246723"><ele>92.0</ele><time>2026-05-03T14:13:57.102Z</time></trkpt><trkpt lat="45.33531" lon="9.2465743"><ele>91.5</ele><time>2026-05-03T14:13:58.103Z</time></trkpt><trkpt lat="45.3352577" lon="9.2464223"><ele>91.0</ele><time>2026-05-03T14:13:59.103Z</time></trkpt><trkpt lat="45.335208" lon="9.2462686"><ele>91.0</ele><time>2026-05-03T14:14:00.103Z</time></trkpt><trkpt lat="45.3351571" lon="9.2461199"><ele>91.0</ele><time>2026-05-03T14:14:01.101Z</time></trkpt><trkpt lat="45.3351014" lon="9.2459572"><ele>91.0</ele><time>2026-05-03T14:14:02.102Z</time></trkpt><trkpt lat="45.3350412" lon="9.2457989"><ele>91.0</ele><time>2026-05-03T14:14:03.103Z</time></trkpt><trkpt lat="45.3349995" lon="9.2456604"><ele>91.25</ele><time>2026-05-03T14:14:04.103Z</time></trkpt><trkpt lat="45.3349515" lon="9.2455237"><ele>91.5</ele><time>2026-05-03T14:14:05.103Z</time></trkpt><trkpt lat="45.3348982" lon="9.2453663"><ele>91.75</ele><time>2026-05-03T14:14:06.103Z</time></trkpt><trkpt lat="45.3348446" lon="9.2451904"><ele>92.0</ele><time>2026-05-03T14:14:07.103Z</time></trkpt><trkpt lat="45.3347753" lon="9.2449917"><ele>91.66666666666667</ele><time>2026-05-03T14:14:08.103Z</time></trkpt><trkpt lat="45.3346934" lon="9.2447503"><ele>91.33333333333333</ele><time>2026-05-03T14:14:09.103Z</time></trkpt><trkpt lat="45.3346146" lon="9.2445177"><ele>91.0</ele><time>2026-05-03T14:14:10.102Z</time></trkpt><trkpt lat="45.3345411" lon="9.2443019"><ele>91.0</ele><time>2026-05-03T14:14:11.102Z</time></trkpt><trkpt lat="45.3344669" lon="9.2440964"><ele>91.0</ele><time>2026-05-03T14:14:12.102Z</time></trkpt><trkpt lat="45.3343912" lon="9.2438827"><ele>91.0</ele><time>2026-05-03T14:14:13.103Z</time></trkpt><trkpt lat="45.3343097" lon="9.2436544"><ele>91.33333333333333</ele><time>2026-05-03T14:14:14.102Z</time></trkpt><trkpt lat="45.3342226" lon="9.2434125"><ele>91.66666666666667</ele><time>2026-05-03T14:14:15.102Z</time></trkpt><trkpt lat="45.3341302" lon="9.2431613"><ele>92.0</ele><time>2026-05-03T14:14:16.103Z</time></trkpt><trkpt lat="45.3340442" lon="9.2428995"><ele>92.0</ele><time>2026-05-03T14:14:17.102Z</time></trkpt><trkpt lat="45.3339519" lon="9.2426296"><ele>92.0</ele><time>2026-05-03T14:14:18.103Z</time></trkpt><trkpt lat="45.3338482" lon="9.2423334"><ele>92.0</ele><time>2026-05-03T14:14:19.101Z</time></trkpt><trkpt lat="45.3337455" lon="9.2420323"><ele>91.66666666666667</ele><time>2026-05-03T14:14:20.102Z</time></trkpt><trkpt lat="45.3336464" lon="9.2417493"><ele>91.33333333333333</ele><time>2026-05-03T14:14:21.102Z</time></trkpt><trkpt lat="45.3335471" lon="9.2414735"><ele>91.0</ele><time>2026-05-03T14:14:22.103Z</time></trkpt><trkpt lat="45.3334506" lon="9.2411983"><ele>91.0</ele><time>2026-05-03T14:14:23.103Z</time></trkpt><trkpt lat="45.3333582" lon="9.2409289"><ele>91.0</ele><time>2026-05-03T14:14:24.103Z</time></trkpt><trkpt lat="45.3332646" lon="9.2406557"><ele>91.0</ele><time>2026-05-03T14:14:25.102Z</time></trkpt><trkpt lat="45.3331696" lon="9.2403789"><ele>91.33333333333333</ele><time>2026-05-03T14:14:26.101Z</time></trkpt><trkpt lat="45.3330734" lon="9.2401107"><ele>91.66666666666667</ele><time>2026-05-03T14:14:27.102Z</time></trkpt><trkpt lat="45.3329771" lon="9.2398363"><ele>92.0</ele><time>2026-05-03T14:14:28.102Z</time></trkpt><trkpt lat="45.3328761" lon="9.2395622"><ele>91.33333333333334</ele><time>2026-05-03T14:14:29.103Z</time></trkpt><trkpt lat="45.3327801" lon="9.239275"><ele>90.66666666666667</ele><time>2026-05-03T14:14:30.103Z</time></trkpt><trkpt lat="45.3326759" lon="9.2389904"><ele>90.0</ele><time>2026-05-03T14:14:31.103Z</time></trkpt><trkpt lat="45.3325761" lon="9.2387015"><ele>90.0</ele><time>2026-05-03T14:14:32.103Z</time></trkpt><trkpt lat="45.3324768" lon="9.2384132"><ele>90.0</ele><time>2026-05-03T14:14:33.102Z</time></trkpt><trkpt lat="45.3323779" lon="9.2381236"><ele>89.5</ele><time>2026-05-03T14:14:34.103Z</time></trkpt><trkpt lat="45.3322787" lon="9.2378345"><ele>89.0</ele><time>2026-05-03T14:14:35.103Z</time></trkpt><trkpt lat="45.3321794" lon="9.2375428"><ele>89.0</ele><time>2026-05-03T14:14:36.102Z</time></trkpt><trkpt lat="45.3320768" lon="9.2372624"><ele>89.0</ele><time>2026-05-03T14:14:37.1Z</time></trkpt><trkpt lat="45.331975" lon="9.2369669"><ele>89.0</ele><time>2026-05-03T14:14:38.103Z</time></trkpt><trkpt lat="45.3318703" lon="9.2366735"><ele>89.0</ele><time>2026-05-03T14:14:39.102Z</time></trkpt><trkpt lat="45.3317615" lon="9.236368"><ele>88.5</ele><time>2026-05-03T14:14:40.102Z</time></trkpt><trkpt lat="45.3316571" lon="9.2360645"><ele>88.0</ele><time>2026-05-03T14:14:41.102Z</time></trkpt><trkpt lat="45.3315502" lon="9.2357605"><ele>87.66666666666666</ele><time>2026-05-03T14:14:42.103Z</time></trkpt><trkpt lat="45.3314487" lon="9.2354667"><ele>87.33333333333333</ele><time>2026-05-03T14:14:43.102Z</time></trkpt><trkpt lat="45.3313545" lon="9.2351878"><ele>87.0</ele><time>2026-05-03T14:14:44.103Z</time></trkpt><trkpt lat="45.3312612" lon="9.2349198"><ele>87.33333333333333</ele><time>2026-05-03T14:14:45.103Z</time></trkpt><trkpt lat="45.3311616" lon="9.2346485"><ele>87.66666666666666</ele><time>2026-05-03T14:14:46.103Z</time></trkpt><trkpt lat="45.33107" lon="9.2343741"><ele>88.0</ele><time>2026-05-03T14:14:47.103Z</time></trkpt><trkpt lat="45.330974" lon="9.234089"><ele>88.66666666666666</ele><time>2026-05-03T14:14:48.103Z</time></trkpt><trkpt lat="45.3308794" lon="9.2338024"><ele>89.33333333333333</ele><time>2026-05-03T14:14:49.103Z</time></trkpt><trkpt lat="45.330783" lon="9.2335367"><ele>90.0</ele><time>2026-05-03T14:14:50.101Z</time></trkpt><trkpt lat="45.3306906" lon="9.2332794"><ele>89.33333333333333</ele><time>2026-05-03T14:14:51.102Z</time></trkpt><trkpt lat="45.3306114" lon="9.2330342"><ele>88.66666666666666</ele><time>2026-05-03T14:14:52.102Z</time></trkpt><trkpt lat="45.3305298" lon="9.2327996"><ele>88.0</ele><time>2026-05-03T14:14:53.102Z</time></trkpt><trkpt lat="45.3304518" lon="9.232578"><ele>87.66666666666666</ele><time>2026-05-03T14:14:54.103Z</time></trkpt><trkpt lat="45.3303736" lon="9.2323538"><ele>87.33333333333333</ele><time>2026-05-03T14:14:55.101Z</time></trkpt><trkpt lat="45.3302954" lon="9.2321344"><ele>87.0</ele><time>2026-05-03T14:14:56.103Z</time></trkpt><trkpt lat="45.3302173" lon="9.2319072"><ele>87.66666666666667</ele><time>2026-05-03T14:14:57.103Z</time></trkpt><trkpt lat="45.3301379" lon="9.2316855"><ele>88.33333333333334</ele><time>2026-05-03T14:14:58.1Z</time></trkpt><trkpt lat="45.330065" lon="9.231473"><ele>89.0</ele><time>2026-05-03T14:14:59.103Z</time></trkpt><trkpt lat="45.3299878" lon="9.23125"><ele>89.33333333333334</ele><time>2026-05-03T14:15:00.102Z</time></trkpt><trkpt lat="45.3299089" lon="9.2310199"><ele>89.66666666666667</ele><time>2026-05-03T14:15:01.102Z</time></trkpt><trkpt lat="45.3298326" lon="9.2307957"><ele>90.0</ele><time>2026-05-03T14:15:02.1Z</time></trkpt><trkpt lat="45.3297529" lon="9.2305732"><ele>90.0</ele><time>2026-05-03T14:15:03.102Z</time></trkpt><trkpt lat="45.3296754" lon="9.2303502"><ele>90.0</ele><time>2026-05-03T14:15:04.103Z</time></trkpt><trkpt lat="45.3295986" lon="9.2301254"><ele>90.0</ele><time>2026-05-03T14:15:05.102Z</time></trkpt><trkpt lat="45.329521" lon="9.2299107"><ele>90.0</ele><time>2026-05-03T14:15:06.102Z</time></trkpt><trkpt lat="45.3294426" lon="9.2296928"><ele>90.0</ele><time>2026-05-03T14:15:07.102Z</time></trkpt><trkpt lat="45.3293602" lon="9.2294734"><ele>90.0</ele><time>2026-05-03T14:15:08.102Z</time></trkpt><trkpt lat="45.3292834" lon="9.2292569"><ele>90.0</ele><time>2026-05-03T14:15:09.103Z</time></trkpt><trkpt lat="45.3292047" lon="9.2290285"><ele>90.0</ele><time>2026-05-03T14:15:10.103Z</time></trkpt><trkpt lat="45.3291163" lon="9.2287913"><ele>90.0</ele><time>2026-05-03T14:15:11.102Z</time></trkpt><trkpt lat="45.3290244" lon="9.2285508"><ele>90.0</ele><time>2026-05-03T14:15:12.102Z</time></trkpt><trkpt lat="45.3289356" lon="9.2282933"><ele>90.0</ele><time>2026-05-03T14:15:13.103Z</time></trkpt><trkpt lat="45.3288425" lon="9.2280255"><ele>90.0</ele><time>2026-05-03T14:15:14.103Z</time></trkpt><trkpt lat="45.3287539" lon="9.2277501"><ele>90.0</ele><time>2026-05-03T14:15:15.103Z</time></trkpt><trkpt lat="45.3286566" lon="9.2274673"><ele>90.0</ele><time>2026-05-03T14:15:16.103Z</time></trkpt><trkpt lat="45.3285628" lon="9.2271769"><ele>90.0</ele><time>2026-05-03T14:15:17.102Z</time></trkpt><trkpt lat="45.3284651" lon="9.2268823"><ele>90.0</ele><time>2026-05-03T14:15:18.103Z</time></trkpt><trkpt lat="45.3283696" lon="9.2265908"><ele>90.0</ele><time>2026-05-03T14:15:19.102Z</time></trkpt><trkpt lat="45.328266" lon="9.2263004"><ele>90.0</ele><time>2026-05-03T14:15:20.103Z</time></trkpt><trkpt lat="45.3281623" lon="9.2260052"><ele>90.0</ele><time>2026-05-03T14:15:21.103Z</time></trkpt><trkpt lat="45.3280587" lon="9.2257087"><ele>89.66666666666667</ele><time>2026-05-03T14:15:22.103Z</time></trkpt><trkpt lat="45.3279638" lon="9.2254224"><ele>89.33333333333334</ele><time>2026-05-03T14:15:23.102Z</time></trkpt><trkpt lat="45.3278708" lon="9.225153"><ele>89.0</ele><time>2026-05-03T14:15:24.102Z</time></trkpt><trkpt lat="45.327778" lon="9.2248894"><ele>89.0</ele><time>2026-05-03T14:15:25.102Z</time></trkpt><trkpt lat="45.3276894" lon="9.2246262"><ele>89.0</ele><time>2026-05-03T14:15:26.102Z</time></trkpt><trkpt lat="45.3276011" lon="9.2243633"><ele>89.0</ele><time>2026-05-03T14:15:27.102Z</time></trkpt><trkpt lat="45.3275126" lon="9.2240911"><ele>89.33333333333334</ele><time>2026-05-03T14:15:28.102Z</time></trkpt><trkpt lat="45.3274238" lon="9.2238287"><ele>89.66666666666667</ele><time>2026-05-03T14:15:29.1Z</time></trkpt><trkpt lat="45.327345" lon="9.2235585"><ele>90.0</ele><time>2026-05-03T14:15:30.103Z</time></trkpt><trkpt lat="45.3272778" lon="9.2232873"><ele>90.0</ele><time>2026-05-03T14:15:31.103Z</time></trkpt><trkpt lat="45.3272088" lon="9.2230171"><ele>90.0</ele><time>2026-05-03T14:15:32.103Z</time></trkpt><trkpt lat="45.3271396" lon="9.2227397"><ele>90.0</ele><time>2026-05-03T14:15:33.103Z</time></trkpt><trkpt lat="45.327078" lon="9.2224542"><ele>89.33333333333333</ele><time>2026-05-03T14:15:34.101Z</time></trkpt><trkpt lat="45.3270125" lon="9.2221587"><ele>88.66666666666666</ele><time>2026-05-03T14:15:35.1Z</time></trkpt><trkpt lat="45.3269411" lon="9.2218597"><ele>88.0</ele><time>2026-05-03T14:15:36.101Z</time></trkpt><trkpt lat="45.3268678" lon="9.2215532"><ele>88.0</ele><time>2026-05-03T14:15:37.101Z</time></trkpt><trkpt lat="45.326793" lon="9.2212286"><ele>88.0</ele><time>2026-05-03T14:15:38.101Z</time></trkpt><trkpt lat="45.3267171" lon="9.2208817"><ele>88.0</ele><time>2026-05-03T14:15:39.102Z</time></trkpt><trkpt lat="45.3266444" lon="9.2205166"><ele>88.0</ele><time>2026-05-03T14:15:40.102Z</time></trkpt><trkpt lat="45.3265644" lon="9.2201588"><ele>88.0</ele><time>2026-05-03T14:15:41.101Z</time></trkpt><trkpt lat="45.3264896" lon="9.21982"><ele>88.0</ele><time>2026-05-03T14:15:42.102Z</time></trkpt><trkpt lat="45.3264191" lon="9.219487"><ele>88.0</ele><time>2026-05-03T14:15:43.102Z</time></trkpt><trkpt lat="45.3263514" lon="9.2191812"><ele>88.0</ele><time>2026-05-03T14:15:44.1Z</time></trkpt><trkpt lat="45.3262879" lon="9.2188803"><ele>88.0</ele><time>2026-05-03T14:15:45.101Z</time></trkpt><trkpt lat="45.3262317" lon="9.218605"><ele>88.0</ele><time>2026-05-03T14:15:46.102Z</time></trkpt><trkpt lat="45.3261675" lon="9.2183265"><ele>88.0</ele><time>2026-05-03T14:15:47.101Z</time></trkpt><trkpt lat="45.3261052" lon="9.2180523"><ele>88.0</ele><time>2026-05-03T14:15:48.103Z</time></trkpt><trkpt lat="45.3260511" lon="9.2177977"><ele>88.66666666666666</ele><time>2026-05-03T14:15:49.102Z</time></trkpt><trkpt lat="45.3259955" lon="9.2175466"><ele>89.33333333333333</ele><time>2026-05-03T14:15:50.102Z</time></trkpt><trkpt lat="45.3259466" lon="9.2173128"><ele>90.0</ele><time>2026-05-03T14:15:51.103Z</time></trkpt><trkpt lat="45.3258988" lon="9.2170868"><ele>90.0</ele><time>2026-05-03T14:15:52.102Z</time></trkpt><trkpt lat="45.3258567" lon="9.2168711"><ele>90.0</ele><time>2026-05-03T14:15:53.103Z</time></trkpt><trkpt lat="45.3258135" lon="9.2166581"><ele>90.0</ele><time>2026-05-03T14:15:54.102Z</time></trkpt><trkpt lat="45.325771" lon="9.2164473"><ele>90.33333333333333</ele><time>2026-05-03T14:15:55.103Z</time></trkpt><trkpt lat="45.3257244" lon="9.2162276"><ele>90.66666666666666</ele><time>2026-05-03T14:15:56.102Z</time></trkpt><trkpt lat="45.3256704" lon="9.2160057"><ele>91.0</ele><time>2026-05-03T14:15:57.102Z</time></trkpt><trkpt lat="45.3256223" lon="9.2157873"><ele>91.0</ele><time>2026-05-03T14:15:58.102Z</time></trkpt><trkpt lat="45.3255658" lon="9.2155708"><ele>91.0</ele><time>2026-05-03T14:15:59.1Z</time></trkpt><trkpt lat="45.3255125" lon="9.2153557"><ele>91.0</ele><time>2026-05-03T14:16:00.1Z</time></trkpt><trkpt lat="45.3254669" lon="9.2151399"><ele>91.25</ele><time>2026-05-03T14:16:01.1Z</time></trkpt><trkpt lat="45.325421" lon="9.2149401"><ele>91.5</ele><time>2026-05-03T14:16:02.1Z</time></trkpt><trkpt lat="45.3253745" lon="9.2147394"><ele>91.75</ele><time>2026-05-03T14:16:03.098Z</time></trkpt><trkpt lat="45.3253309" lon="9.2145541"><ele>92.0</ele><time>2026-05-03T14:16:04.102Z</time></trkpt><trkpt lat="45.3252847" lon="9.2143652"><ele>91.25</ele><time>2026-05-03T14:16:05.099Z</time></trkpt><trkpt lat="45.3252476" lon="9.2141812"><ele>90.5</ele><time>2026-05-03T14:16:06.101Z</time></trkpt><trkpt lat="45.3252066" lon="9.2139874"><ele>89.75</ele><time>2026-05-03T14:16:07.099Z</time></trkpt><trkpt lat="45.3251671" lon="9.2137926"><ele>89.0</ele><time>2026-05-03T14:16:08.101Z</time></trkpt><trkpt lat="45.3251293" lon="9.2135958"><ele>89.0</ele><time>2026-05-03T14:16:09.099Z</time></trkpt><trkpt lat="45.3250974" lon="9.2134102"><ele>89.0</ele><time>2026-05-03T14:16:10.099Z</time></trkpt><trkpt lat="45.3250636" lon="9.2132134"><ele>89.0</ele><time>2026-05-03T14:16:11.1Z</time></trkpt><trkpt lat="45.3250351" lon="9.2130253"><ele>89.0</ele><time>2026-05-03T14:16:12.102Z</time></trkpt><trkpt lat="45.3250037" lon="9.2128204"><ele>89.33333333333334</ele><time>2026-05-03T14:16:13.101Z</time></trkpt><trkpt lat="45.3249799" lon="9.2126107"><ele>89.66666666666667</ele><time>2026-05-03T14:16:14.103Z</time></trkpt><trkpt lat="45.3249561" lon="9.2123892"><ele>90.0</ele><time>2026-05-03T14:16:15.102Z</time></trkpt><trkpt lat="45.3249396" lon="9.2121758"><ele>90.0</ele><time>2026-05-03T14:16:16.101Z</time></trkpt><trkpt lat="45.324927" lon="9.2119413"><ele>90.0</ele><time>2026-05-03T14:16:17.101Z</time></trkpt><trkpt lat="45.3249184" lon="9.2117077"><ele>90.0</ele><time>2026-05-03T14:16:18.103Z</time></trkpt><trkpt lat="45.3249207" lon="9.2114737"><ele>90.0</ele><time>2026-05-03T14:16:19.103Z</time></trkpt><trkpt lat="45.3249269" lon="9.211237"><ele>90.0</ele><time>2026-05-03T14:16:20.102Z</time></trkpt><trkpt lat="45.3249335" lon="9.211022"><ele>90.0</ele><time>2026-05-03T14:16:21.102Z</time></trkpt><trkpt lat="45.3249433" lon="9.2108027"><ele>90.0</ele><time>2026-05-03T14:16:22.103Z</time></trkpt><trkpt lat="45.3249505" lon="9.210584"><ele>90.0</ele><time>2026-05-03T14:16:23.101Z</time></trkpt><trkpt lat="45.3249673" lon="9.2103676"><ele>90.0</ele><time>2026-05-03T14:16:24.102Z</time></trkpt><trkpt lat="45.3249742" lon="9.2101125"><ele>90.0</ele><time>2026-05-03T14:16:25.101Z</time></trkpt><trkpt lat="45.3249891" lon="9.20984"><ele>90.0</ele><time>2026-05-03T14:16:26.099Z</time></trkpt><trkpt lat="45.3250166" lon="9.2095458"><ele>90.0</ele><time>2026-05-03T14:16:27.102Z</time></trkpt><trkpt lat="45.3250405" lon="9.2092684"><ele>89.0</ele><time>2026-05-03T14:16:28.103Z</time></trkpt><trkpt lat="45.3250594" lon="9.2090173"><ele>88.0</ele><time>2026-05-03T14:16:29.099Z</time></trkpt><trkpt lat="45.325075" lon="9.2087946"><ele>87.0</ele><time>2026-05-03T14:16:30.103Z</time></trkpt><trkpt lat="45.3250886" lon="9.208594"><ele>87.0</ele><time>2026-05-03T14:16:31.103Z</time></trkpt><trkpt lat="45.3251002" lon="9.2084164"><ele>87.0</ele><time>2026-05-03T14:16:32.102Z</time></trkpt><trkpt lat="45.3251146" lon="9.2082651"><ele>87.0</ele><time>2026-05-03T14:16:33.101Z</time></trkpt><trkpt lat="45.3251229" lon="9.2081172"><ele>87.0</ele><time>2026-05-03T14:16:34.102Z</time></trkpt><trkpt lat="45.325132" lon="9.2080093"><ele>87.0</ele><time>2026-05-03T14:16:35.103Z</time></trkpt><trkpt lat="45.3251376" lon="9.2079053"><ele>87.75</ele><time>2026-05-03T14:16:36.1Z</time></trkpt><trkpt lat="45.3251478" lon="9.2077504"><ele>88.5</ele><time>2026-05-03T14:16:38.102Z</time></trkpt><trkpt lat="45.3251626" lon="9.2076118"><ele>89.25</ele><time>2026-05-03T14:17:02.103Z</time></trkpt><trkpt lat="45.3251827" lon="9.2073883"><ele>90.0</ele><time>2026-05-03T14:17:04.103Z</time></trkpt><trkpt lat="45.325194" lon="9.2072009"><ele>90.33333333333333</ele><time>2026-05-03T14:17:05.103Z</time></trkpt><trkpt lat="45.3252096" lon="9.2069842"><ele>90.66666666666666</ele><time>2026-05-03T14:17:06.102Z</time></trkpt><trkpt lat="45.3252303" lon="9.2067084"><ele>91.0</ele><time>2026-05-03T14:17:07.103Z</time></trkpt><trkpt lat="45.3252474" lon="9.2064271"><ele>91.0</ele><time>2026-05-03T14:17:08.102Z</time></trkpt><trkpt lat="45.3252617" lon="9.206125"><ele>91.0</ele><time>2026-05-03T14:17:09.102Z</time></trkpt><trkpt lat="45.3252786" lon="9.2058094"><ele>91.0</ele><time>2026-05-03T14:17:10.103Z</time></trkpt><trkpt lat="45.3252969" lon="9.2054625"><ele>90.0</ele><time>2026-05-03T14:17:11.102Z</time></trkpt><trkpt lat="45.3253156" lon="9.2051281"><ele>89.0</ele><time>2026-05-03T14:17:12.103Z</time></trkpt><trkpt lat="45.3253337" lon="9.2048077"><ele>90.0</ele><time>2026-05-03T14:17:13.102Z</time></trkpt><trkpt lat="45.3253499" lon="9.2044914"><ele>91.0</ele><time>2026-05-03T14:17:14.102Z</time></trkpt><trkpt lat="45.3253642" lon="9.204198"><ele>92.0</ele><time>2026-05-03T14:17:15.101Z</time></trkpt><trkpt lat="45.3253862" lon="9.2039128"><ele>92.0</ele><time>2026-05-03T14:17:16.103Z</time></trkpt><trkpt lat="45.3254104" lon="9.2036227"><ele>92.0</ele><time>2026-05-03T14:17:17.103Z</time></trkpt><trkpt lat="45.3254278" lon="9.2033484"><ele>92.0</ele><time>2026-05-03T14:17:18.102Z</time></trkpt><trkpt lat="45.3254451" lon="9.20307"><ele>91.66666666666667</ele><time>2026-05-03T14:17:19.102Z</time></trkpt><trkpt lat="45.3254651" lon="9.202791"><ele>91.33333333333333</ele><time>2026-05-03T14:17:20.102Z</time></trkpt><trkpt lat="45.3254839" lon="9.2025177"><ele>91.0</ele><time>2026-05-03T14:17:21.103Z</time></trkpt><trkpt lat="45.3255096" lon="9.2022472"><ele>90.75</ele><time>2026-05-03T14:17:22.103Z</time></trkpt><trkpt lat="45.3255266" lon="9.2020171"><ele>90.5</ele><time>2026-05-03T14:17:23.103Z</time></trkpt><trkpt lat="45.3255392" lon="9.2018109"><ele>90.25</ele><time>2026-05-03T14:17:24.103Z</time></trkpt><trkpt lat="45.3255442" lon="9.2016493"><ele>90.0</ele><time>2026-05-03T14:17:25.102Z</time></trkpt><trkpt lat="45.3255564" lon="9.2015282"><ele>90.16666666666667</ele><time>2026-05-03T14:17:26.101Z</time></trkpt><trkpt lat="45.3255613" lon="9.2014387"><ele>90.33333333333333</ele><time>2026-05-03T14:17:27.102Z</time></trkpt><trkpt lat="45.3255843" lon="9.2013357"><ele>90.5</ele><time>2026-05-03T14:17:30.102Z</time></trkpt><trkpt lat="45.3256412" lon="9.2012466"><ele>90.66666666666666</ele><time>2026-05-03T14:17:33.103Z</time></trkpt><trkpt lat="45.3257007" lon="9.2011662"><ele>90.83333333333333</ele><time>2026-05-03T14:17:35.1Z</time></trkpt><trkpt lat="45.3257404" lon="9.2010721"><ele>91.0</ele><time>2026-05-03T14:17:37.102Z</time></trkpt><trkpt lat="45.3257528" lon="9.2009103"><ele>91.0</ele><time>2026-05-03T14:17:39.103Z</time></trkpt><trkpt lat="45.3257359" lon="9.2008196"><ele>91.0</ele><time>2026-05-03T14:17:40.101Z</time></trkpt><trkpt lat="45.3256969" lon="9.2007211"><ele>91.0</ele><time>2026-05-03T14:17:41.103Z</time></trkpt><trkpt lat="45.3256586" lon="9.2006069"><ele>91.0</ele><time>2026-05-03T14:17:42.102Z</time></trkpt><trkpt lat="45.3256375" lon="9.2004759"><ele>91.0</ele><time>2026-05-03T14:17:43.102Z</time></trkpt><trkpt lat="45.3256275" lon="9.2003335"><ele>91.0</ele><time>2026-05-03T14:17:44.101Z</time></trkpt><trkpt lat="45.3256229" lon="9.2001921"><ele>90.8</ele><time>2026-05-03T14:17:45.102Z</time></trkpt><trkpt lat="45.3256304" lon="9.2000386"><ele>90.6</ele><time>2026-05-03T14:17:46.102Z</time></trkpt><trkpt lat="45.3256426" lon="9.1999021"><ele>90.4</ele><time>2026-05-03T14:17:47.101Z</time></trkpt><trkpt lat="45.3256609" lon="9.1997491"><ele>90.2</ele><time>2026-05-03T14:17:48.1Z</time></trkpt><trkpt lat="45.3256762" lon="9.1995928"><ele>90.0</ele><time>2026-05-03T14:17:49.101Z</time></trkpt><trkpt lat="45.3257007" lon="9.1994233"><ele>90.0</ele><time>2026-05-03T14:17:50.102Z</time></trkpt><trkpt lat="45.3257325" lon="9.1992609"><ele>90.0</ele><time>2026-05-03T14:17:51.102Z</time></trkpt><trkpt lat="45.3257629" lon="9.1990937"><ele>90.0</ele><time>2026-05-03T14:17:52.101Z</time></trkpt><trkpt lat="45.3258031" lon="9.1989265"><ele>90.0</ele><time>2026-05-03T14:17:53.101Z</time></trkpt><trkpt lat="45.3258481" lon="9.1987613"><ele>90.0</ele><time>2026-05-03T14:17:54.101Z</time></trkpt><trkpt lat="45.3258987" lon="9.1985933"><ele>90.0</ele><time>2026-05-03T14:17:55.1Z</time></trkpt><trkpt lat="45.3259596" lon="9.1984205"><ele>90.0</ele><time>2026-05-03T14:17:56.102Z</time></trkpt><trkpt lat="45.3260293" lon="9.1982424"><ele>90.0</ele><time>2026-05-03T14:17:57.1Z</time></trkpt><trkpt lat="45.3261153" lon="9.1980588"><ele>90.33333333333333</ele><time>2026-05-03T14:17:58.103Z</time></trkpt><trkpt lat="45.3262068" lon="9.1978794"><ele>90.66666666666666</ele><time>2026-05-03T14:17:59.102Z</time></trkpt><trkpt lat="45.3263043" lon="9.1976963"><ele>91.0</ele><time>2026-05-03T14:18:00.103Z</time></trkpt><trkpt lat="45.3264043" lon="9.1975205"><ele>91.0</ele><time>2026-05-03T14:18:01.102Z</time></trkpt><trkpt lat="45.326505" lon="9.1973434"><ele>91.0</ele><time>2026-05-03T14:18:02.103Z</time></trkpt><trkpt lat="45.3266066" lon="9.1971622"><ele>91.0</ele><time>2026-05-03T14:18:03.103Z</time></trkpt><trkpt lat="45.3267151" lon="9.1969864"><ele>91.0</ele><time>2026-05-03T14:18:04.103Z</time></trkpt><trkpt lat="45.3268153" lon="9.1968049"><ele>91.0</ele><time>2026-05-03T14:18:05.103Z</time></trkpt><trkpt lat="45.3269158" lon="9.1966194"><ele>91.0</ele><time>2026-05-03T14:18:06.103Z</time></trkpt><trkpt lat="45.3270106" lon="9.1964519"><ele>90.66666666666666</ele><time>2026-05-03T14:18:07.102Z</time></trkpt><trkpt lat="45.3271116" lon="9.1962799"><ele>90.33333333333333</ele><time>2026-05-03T14:18:08.102Z</time></trkpt><trkpt lat="45.3272115" lon="9.1960985"><ele>90.0</ele><time>2026-05-03T14:18:09.103Z</time></trkpt><trkpt lat="45.3273226" lon="9.1959098"><ele>91.33333333333333</ele><time>2026-05-03T14:18:10.103Z</time></trkpt><trkpt lat="45.3274345" lon="9.1957065"><ele>92.66666666666666</ele><time>2026-05-03T14:18:11.102Z</time></trkpt><trkpt lat="45.3275438" lon="9.195518"><ele>94.0</ele><time>2026-05-03T14:18:12.103Z</time></trkpt><trkpt lat="45.3276469" lon="9.1953288"><ele>94.0</ele><time>2026-05-03T14:18:13.102Z</time></trkpt><trkpt lat="45.3277483" lon="9.1951507"><ele>94.0</ele><time>2026-05-03T14:18:14.102Z</time></trkpt><trkpt lat="45.3278459" lon="9.1949824"><ele>94.0</ele><time>2026-05-03T14:18:15.103Z</time></trkpt><trkpt lat="45.3279426" lon="9.1948057"><ele>93.66666666666666</ele><time>2026-05-03T14:18:16.102Z</time></trkpt><trkpt lat="45.32804" lon="9.1946314"><ele>93.33333333333333</ele><time>2026-05-03T14:18:17.102Z</time></trkpt><trkpt lat="45.3281475" lon="9.1944513"><ele>93.0</ele><time>2026-05-03T14:18:18.102Z</time></trkpt><trkpt lat="45.3282528" lon="9.1942582"><ele>93.0</ele><time>2026-05-03T14:18:19.101Z</time></trkpt><trkpt lat="45.3283615" lon="9.1940766"><ele>93.0</ele><time>2026-05-03T14:18:20.102Z</time></trkpt><trkpt lat="45.3284609" lon="9.1938989"><ele>93.0</ele><time>2026-05-03T14:18:21.102Z</time></trkpt><trkpt lat="45.3285606" lon="9.1937302"><ele>92.75</ele><time>2026-05-03T14:18:22.102Z</time></trkpt><trkpt lat="45.3286539" lon="9.1935687"><ele>92.5</ele><time>2026-05-03T14:18:23.102Z</time></trkpt><trkpt lat="45.3287418" lon="9.19341"><ele>92.25</ele><time>2026-05-03T14:18:24.102Z</time></trkpt><trkpt lat="45.3288246" lon="9.1932582"><ele>92.0</ele><time>2026-05-03T14:18:25.103Z</time></trkpt><trkpt lat="45.3289053" lon="9.1931105"><ele>91.75</ele><time>2026-05-03T14:18:26.101Z</time></trkpt><trkpt lat="45.3289838" lon="9.1929647"><ele>91.5</ele><time>2026-05-03T14:18:27.103Z</time></trkpt><trkpt lat="45.3290619" lon="9.1928299"><ele>91.25</ele><time>2026-05-03T14:18:28.103Z</time></trkpt><trkpt lat="45.3291403" lon="9.192708"><ele>91.0</ele><time>2026-05-03T14:18:29.102Z</time></trkpt><trkpt lat="45.3292253" lon="9.1926025"><ele>91.0</ele><time>2026-05-03T14:18:30.102Z</time></trkpt><trkpt lat="45.3293022" lon="9.1925083"><ele>91.0</ele><time>2026-05-03T14:18:31.103Z</time></trkpt><trkpt lat="45.3293753" lon="9.1924387"><ele>91.0</ele><time>2026-05-03T14:18:32.102Z</time></trkpt><trkpt lat="45.329438" lon="9.1923892"><ele>91.0</ele><time>2026-05-03T14:18:33.102Z</time></trkpt><trkpt lat="45.3295415" lon="9.1923351"><ele>91.0</ele><time>2026-05-03T14:18:35.103Z</time></trkpt><trkpt lat="45.3296464" lon="9.1922781"><ele>91.0</ele><time>2026-05-03T14:18:37.103Z</time></trkpt><trkpt lat="45.329715" lon="9.1922428"><ele>91.0</ele><time>2026-05-03T14:18:38.1Z</time></trkpt><trkpt lat="45.3297886" lon="9.1922028"><ele>91.0</ele><time>2026-05-03T14:18:39.101Z</time></trkpt><trkpt lat="45.329861" lon="9.1921446"><ele>91.0</ele><time>2026-05-03T14:18:40.102Z</time></trkpt><trkpt lat="45.32993" lon="9.1920703"><ele>91.0</ele><time>2026-05-03T14:18:41.103Z</time></trkpt><trkpt lat="45.3299904" lon="9.1919764"><ele>91.0</ele><time>2026-05-03T14:18:42.103Z</time></trkpt><trkpt lat="45.330036" lon="9.1918602"><ele>91.0</ele><time>2026-05-03T14:18:43.103Z</time></trkpt><trkpt lat="45.3300665" lon="9.1917225"><ele>91.0</ele><time>2026-05-03T14:18:44.102Z</time></trkpt><trkpt lat="45.3300767" lon="9.1915641"><ele>91.0</ele><time>2026-05-03T14:18:45.102Z</time></trkpt><trkpt lat="45.330081" lon="9.1914011"><ele>91.0</ele><time>2026-05-03T14:18:46.103Z</time></trkpt><trkpt lat="45.3300896" lon="9.1912453"><ele>91.0</ele><time>2026-05-03T14:18:47.101Z</time></trkpt><trkpt lat="45.3301027" lon="9.1910994"><ele>91.0</ele><time>2026-05-03T14:18:48.101Z</time></trkpt><trkpt lat="45.3301319" lon="9.1909499"><ele>91.0</ele><time>2026-05-03T14:18:49.101Z</time></trkpt><trkpt lat="45.3301766" lon="9.1907862"><ele>91.0</ele><time>2026-05-03T14:18:50.101Z</time></trkpt><trkpt lat="45.3302372" lon="9.1905896"><ele>91.0</ele><time>2026-05-03T14:18:51.101Z</time></trkpt><trkpt lat="45.3303144" lon="9.1903589"><ele>91.0</ele><time>2026-05-03T14:18:52.103Z</time></trkpt><trkpt lat="45.330398" lon="9.1900993"><ele>91.0</ele><time>2026-05-03T14:18:53.103Z</time></trkpt><trkpt lat="45.3304711" lon="9.1898203"><ele>91.0</ele><time>2026-05-03T14:18:54.103Z</time></trkpt><trkpt lat="45.3305103" lon="9.1894746"><ele>91.5</ele><time>2026-05-03T14:18:55.103Z</time></trkpt><trkpt lat="45.3305389" lon="9.1891044"><ele>92.0</ele><time>2026-05-03T14:18:56.102Z</time></trkpt><trkpt lat="45.3305456" lon="9.1887117"><ele>92.0</ele><time>2026-05-03T14:18:57.103Z</time></trkpt><trkpt lat="45.3305303" lon="9.1882819"><ele>92.0</ele><time>2026-05-03T14:18:58.102Z</time></trkpt><trkpt lat="45.3305061" lon="9.1878254"><ele>91.0</ele><time>2026-05-03T14:18:59.103Z</time></trkpt><trkpt lat="45.3304792" lon="9.1873646"><ele>90.0</ele><time>2026-05-03T14:19:00.103Z</time></trkpt><trkpt lat="45.3304538" lon="9.1869338"><ele>89.5</ele><time>2026-05-03T14:19:01.102Z</time></trkpt><trkpt lat="45.3304323" lon="9.186524"><ele>89.0</ele><time>2026-05-03T14:19:02.103Z</time></trkpt><trkpt lat="45.3304086" lon="9.186139"><ele>89.0</ele><time>2026-05-03T14:19:03.103Z</time></trkpt><trkpt lat="45.3303917" lon="9.1857604"><ele>89.0</ele><time>2026-05-03T14:19:04.102Z</time></trkpt><trkpt lat="45.3303689" lon="9.1853901"><ele>89.5</ele><time>2026-05-03T14:19:05.103Z</time></trkpt><trkpt lat="45.3303485" lon="9.1850212"><ele>90.0</ele><time>2026-05-03T14:19:06.102Z</time></trkpt><trkpt lat="45.3303244" lon="9.184661"><ele>90.5</ele><time>2026-05-03T14:19:07.103Z</time></trkpt><trkpt lat="45.330303" lon="9.1842934"><ele>91.0</ele><time>2026-05-03T14:19:08.102Z</time></trkpt><trkpt lat="45.3302778" lon="9.1839299"><ele>91.0</ele><time>2026-05-03T14:19:09.102Z</time></trkpt><trkpt lat="45.3302585" lon="9.1835788"><ele>91.0</ele><time>2026-05-03T14:19:10.102Z</time></trkpt><trkpt lat="45.3302463" lon="9.1832338"><ele>91.5</ele><time>2026-05-03T14:19:11.103Z</time></trkpt><trkpt lat="45.3302261" lon="9.1828936"><ele>92.0</ele><time>2026-05-03T14:19:12.101Z</time></trkpt><trkpt lat="45.3302027" lon="9.1825526"><ele>93.0</ele><time>2026-05-03T14:19:13.102Z</time></trkpt><trkpt lat="45.3301825" lon="9.1822058"><ele>94.0</ele><time>2026-05-03T14:19:14.103Z</time></trkpt><trkpt lat="45.3301556" lon="9.1818534"><ele>93.5</ele><time>2026-05-03T14:19:15.102Z</time></trkpt><trkpt lat="45.3301287" lon="9.1814941"><ele>93.0</ele><time>2026-05-03T14:19:16.102Z</time></trkpt><trkpt lat="45.3301056" lon="9.1811303"><ele>93.0</ele><time>2026-05-03T14:19:17.102Z</time></trkpt><trkpt lat="45.330085" lon="9.1807506"><ele>93.0</ele><time>2026-05-03T14:19:18.103Z</time></trkpt><trkpt lat="45.3300669" lon="9.1803656"><ele>92.5</ele><time>2026-05-03T14:19:19.102Z</time></trkpt><trkpt lat="45.330049" lon="9.1799644"><ele>92.0</ele><time>2026-05-03T14:19:20.102Z</time></trkpt><trkpt lat="45.3300317" lon="9.179559"><ele>92.0</ele><time>2026-05-03T14:19:21.102Z</time></trkpt><trkpt lat="45.3300047" lon="9.1791467"><ele>92.0</ele><time>2026-05-03T14:19:22.102Z</time></trkpt><trkpt lat="45.3299769" lon="9.1787199"><ele>92.0</ele><time>2026-05-03T14:19:23.102Z</time></trkpt><trkpt lat="45.32995" lon="9.1782886"><ele>92.0</ele><time>2026-05-03T14:19:24.102Z</time></trkpt><trkpt lat="45.3299277" lon="9.1778529"><ele>92.0</ele><time>2026-05-03T14:19:25.1Z</time></trkpt><trkpt lat="45.3299033" lon="9.1774138"><ele>92.0</ele><time>2026-05-03T14:19:26.101Z</time></trkpt><trkpt lat="45.3298791" lon="9.1769739"><ele>91.0</ele><time>2026-05-03T14:19:27.1Z</time></trkpt><trkpt lat="45.3298574" lon="9.1765389"><ele>90.0</ele><time>2026-05-03T14:19:28.103Z</time></trkpt><trkpt lat="45.3298333" lon="9.1761268"><ele>90.0</ele><time>2026-05-03T14:19:29.102Z</time></trkpt><trkpt lat="45.32981" lon="9.1757349"><ele>90.0</ele><time>2026-05-03T14:19:30.102Z</time></trkpt><trkpt lat="45.3297902" lon="9.1753663"><ele>89.0</ele><time>2026-05-03T14:19:31.103Z</time></trkpt><trkpt lat="45.3297694" lon="9.1750149"><ele>88.0</ele><time>2026-05-03T14:19:32.101Z</time></trkpt><trkpt lat="45.3297537" lon="9.1746766"><ele>88.0</ele><time>2026-05-03T14:19:33.102Z</time></trkpt><trkpt lat="45.329735" lon="9.174358"><ele>88.0</ele><time>2026-05-03T14:19:34.101Z</time></trkpt><trkpt lat="45.3297157" lon="9.1740446"><ele>88.0</ele><time>2026-05-03T14:19:35.102Z</time></trkpt><trkpt lat="45.3296954" lon="9.1737364"><ele>89.0</ele><time>2026-05-03T14:19:36.102Z</time></trkpt><trkpt lat="45.3296754" lon="9.1734297"><ele>90.0</ele><time>2026-05-03T14:19:37.101Z</time></trkpt><trkpt lat="45.3296481" lon="9.1731187"><ele>91.0</ele><time>2026-05-03T14:19:38.101Z</time></trkpt><trkpt lat="45.3296239" lon="9.1728015"><ele>91.5</ele><time>2026-05-03T14:19:39.103Z</time></trkpt><trkpt lat="45.3296038" lon="9.1724795"><ele>92.0</ele><time>2026-05-03T14:19:40.103Z</time></trkpt><trkpt lat="45.3295832" lon="9.1721528"><ele>92.5</ele><time>2026-05-03T14:19:41.102Z</time></trkpt><trkpt lat="45.3295633" lon="9.1718277"><ele>93.0</ele><time>2026-05-03T14:19:42.102Z</time></trkpt><trkpt lat="45.3295452" lon="9.1715015"><ele>93.0</ele><time>2026-05-03T14:19:43.103Z</time></trkpt><trkpt lat="45.3295236" lon="9.1711794"><ele>93.0</ele><time>2026-05-03T14:19:44.101Z</time></trkpt><trkpt lat="45.3295081" lon="9.170859"><ele>93.66666666666667</ele><time>2026-05-03T14:19:45.103Z</time></trkpt><trkpt lat="45.3294888" lon="9.1705571"><ele>94.33333333333334</ele><time>2026-05-03T14:19:46.103Z</time></trkpt><trkpt lat="45.3294696" lon="9.1702608"><ele>95.0</ele><time>2026-05-03T14:19:47.103Z</time></trkpt><trkpt lat="45.3294532" lon="9.1699698"><ele>95.0</ele><time>2026-05-03T14:19:48.103Z</time></trkpt><trkpt lat="45.3294343" lon="9.1696814"><ele>95.0</ele><time>2026-05-03T14:19:49.102Z</time></trkpt><trkpt lat="45.3294171" lon="9.1694011"><ele>95.0</ele><time>2026-05-03T14:19:50.103Z</time></trkpt><trkpt lat="45.3293966" lon="9.1691254"><ele>95.0</ele><time>2026-05-03T14:19:51.103Z</time></trkpt><trkpt lat="45.3293834" lon="9.1688609"><ele>95.0</ele><time>2026-05-03T14:19:52.103Z</time></trkpt><trkpt lat="45.3293647" lon="9.1686032"><ele>95.0</ele><time>2026-05-03T14:19:53.103Z</time></trkpt><trkpt lat="45.3293456" lon="9.1683308"><ele>95.0</ele><time>2026-05-03T14:19:54.1Z</time></trkpt><trkpt lat="45.3293287" lon="9.1680585"><ele>95.0</ele><time>2026-05-03T14:19:55.103Z</time></trkpt><trkpt lat="45.3293097" lon="9.1677893"><ele>95.0</ele><time>2026-05-03T14:19:56.101Z</time></trkpt><trkpt lat="45.3292989" lon="9.1675258"><ele>94.66666666666667</ele><time>2026-05-03T14:19:57.103Z</time></trkpt><trkpt lat="45.3292861" lon="9.1672569"><ele>94.33333333333333</ele><time>2026-05-03T14:19:58.102Z</time></trkpt><trkpt lat="45.3292713" lon="9.1670086"><ele>94.0</ele><time>2026-05-03T14:19:59.103Z</time></trkpt><trkpt lat="45.3292553" lon="9.1667515"><ele>94.0</ele><time>2026-05-03T14:20:00.103Z</time></trkpt><trkpt lat="45.3292392" lon="9.166497"><ele>94.0</ele><time>2026-05-03T14:20:01.103Z</time></trkpt><trkpt lat="45.3292219" lon="9.1662648"><ele>94.0</ele><time>2026-05-03T14:20:02.102Z</time></trkpt><trkpt lat="45.3292119" lon="9.1660289"><ele>94.0</ele><time>2026-05-03T14:20:03.099Z</time></trkpt><trkpt lat="45.3291955" lon="9.1657965"><ele>94.0</ele><time>2026-05-03T14:20:04.101Z</time></trkpt><trkpt lat="45.3291799" lon="9.1655696"><ele>94.0</ele><time>2026-05-03T14:20:05.102Z</time></trkpt><trkpt lat="45.3291673" lon="9.1653358"><ele>94.0</ele><time>2026-05-03T14:20:06.103Z</time></trkpt><trkpt lat="45.3291567" lon="9.1650988"><ele>94.0</ele><time>2026-05-03T14:20:07.101Z</time></trkpt><trkpt lat="45.3291393" lon="9.1648654"><ele>94.0</ele><time>2026-05-03T14:20:08.1Z</time></trkpt><trkpt lat="45.3291212" lon="9.1646083"><ele>94.0</ele><time>2026-05-03T14:20:09.102Z</time></trkpt><trkpt lat="45.3291013" lon="9.164324"><ele>94.0</ele><time>2026-05-03T14:20:10.102Z</time></trkpt><trkpt lat="45.3290734" lon="9.1639968"><ele>94.0</ele><time>2026-05-03T14:20:11.101Z</time></trkpt><trkpt lat="45.3290481" lon="9.1636381"><ele>93.5</ele><time>2026-05-03T14:20:12.102Z</time></trkpt><trkpt lat="45.3290161" lon="9.1632109"><ele>93.0</ele><time>2026-05-03T14:20:13.099Z</time></trkpt><trkpt lat="45.328997" lon="9.1627633"><ele>93.5</ele><time>2026-05-03T14:20:14.098Z</time></trkpt><trkpt lat="45.3289782" lon="9.162294"><ele>94.0</ele><time>2026-05-03T14:20:15.1Z</time></trkpt><trkpt lat="45.3289547" lon="9.1617872"><ele>94.5</ele><time>2026-05-03T14:20:16.102Z</time></trkpt><trkpt lat="45.3289287" lon="9.1613058"><ele>95.0</ele><time>2026-05-03T14:20:17.102Z</time></trkpt><trkpt lat="45.3289057" lon="9.1608402"><ele>93.0</ele><time>2026-05-03T14:20:18.103Z</time></trkpt><trkpt lat="45.3288805" lon="9.1603757"><ele>91.0</ele><time>2026-05-03T14:20:19.103Z</time></trkpt><trkpt lat="45.3288508" lon="9.1599178"><ele>91.0</ele><time>2026-05-03T14:20:20.103Z</time></trkpt><trkpt lat="45.3288259" lon="9.1594645"><ele>91.0</ele><time>2026-05-03T14:20:21.101Z</time></trkpt><trkpt lat="45.3287953" lon="9.1590193"><ele>91.0</ele><time>2026-05-03T14:20:22.103Z</time></trkpt><trkpt lat="45.3287669" lon="9.1586006"><ele>91.0</ele><time>2026-05-03T14:20:23.1Z</time></trkpt><trkpt lat="45.3287475" lon="9.1582152"><ele>91.0</ele><time>2026-05-03T14:20:24.103Z</time></trkpt><trkpt lat="45.3287273" lon="9.1578523"><ele>91.0</ele><time>2026-05-03T14:20:25.103Z</time></trkpt><trkpt lat="45.3287024" lon="9.1575146"><ele>92.5</ele><time>2026-05-03T14:20:26.102Z</time></trkpt><trkpt lat="45.3286826" lon="9.1571867"><ele>94.0</ele><time>2026-05-03T14:20:27.103Z</time></trkpt><trkpt lat="45.3286633" lon="9.1568581"><ele>94.33333333333333</ele><time>2026-05-03T14:20:28.101Z</time></trkpt><trkpt lat="45.3286474" lon="9.1565303"><ele>94.66666666666667</ele><time>2026-05-03T14:20:29.102Z</time></trkpt><trkpt lat="45.3286321" lon="9.1562293"><ele>95.0</ele><time>2026-05-03T14:20:30.102Z</time></trkpt><trkpt lat="45.3286124" lon="9.1559373"><ele>94.66666666666667</ele><time>2026-05-03T14:20:31.103Z</time></trkpt><trkpt lat="45.3285986" lon="9.1556447"><ele>94.33333333333333</ele><time>2026-05-03T14:20:32.102Z</time></trkpt><trkpt lat="45.3285826" lon="9.1553615"><ele>94.0</ele><time>2026-05-03T14:20:33.102Z</time></trkpt><trkpt lat="45.3285674" lon="9.1550757"><ele>93.66666666666666</ele><time>2026-05-03T14:20:34.103Z</time></trkpt><trkpt lat="45.3285465" lon="9.1547869"><ele>93.33333333333333</ele><time>2026-05-03T14:20:35.1Z</time></trkpt><trkpt lat="45.3285288" lon="9.1544954"><ele>93.0</ele><time>2026-05-03T14:20:36.103Z</time></trkpt><trkpt lat="45.3285087" lon="9.1542041"><ele>92.33333333333333</ele><time>2026-05-03T14:20:37.102Z</time></trkpt><trkpt lat="45.3284906" lon="9.1539141"><ele>91.66666666666666</ele><time>2026-05-03T14:20:38.102Z</time></trkpt><trkpt lat="45.3284722" lon="9.1536256"><ele>91.0</ele><time>2026-05-03T14:20:39.1Z</time></trkpt><trkpt lat="45.3284505" lon="9.1533314"><ele>91.0</ele><time>2026-05-03T14:20:40.103Z</time></trkpt><trkpt lat="45.3284284" lon="9.1530418"><ele>91.0</ele><time>2026-05-03T14:20:41.103Z</time></trkpt><trkpt lat="45.3284087" lon="9.1527559"><ele>91.0</ele><time>2026-05-03T14:20:42.102Z</time></trkpt><trkpt lat="45.3283919" lon="9.152469"><ele>90.66666666666666</ele><time>2026-05-03T14:20:43.102Z</time></trkpt><trkpt lat="45.3283712" lon="9.1521735"><ele>90.33333333333333</ele><time>2026-05-03T14:20:44.103Z</time></trkpt><trkpt lat="45.328354" lon="9.1518774"><ele>90.0</ele><time>2026-05-03T14:20:45.102Z</time></trkpt><trkpt lat="45.3283398" lon="9.1515813"><ele>90.0</ele><time>2026-05-03T14:20:46.102Z</time></trkpt><trkpt lat="45.3283186" lon="9.1512857"><ele>90.0</ele><time>2026-05-03T14:20:47.101Z</time></trkpt><trkpt lat="45.3282927" lon="9.1509806"><ele>90.0</ele><time>2026-05-03T14:20:48.103Z</time></trkpt><trkpt lat="45.3282711" lon="9.1506497"><ele>90.0</ele><time>2026-05-03T14:20:49.102Z</time></trkpt><trkpt lat="45.3282446" lon="9.1503054"><ele>90.0</ele><time>2026-05-03T14:20:50.102Z</time></trkpt><trkpt lat="45.3282191" lon="9.1499439"><ele>90.5</ele><time>2026-05-03T14:20:51.101Z</time></trkpt><trkpt lat="45.3282007" lon="9.1495595"><ele>91.0</ele><time>2026-05-03T14:20:52.102Z</time></trkpt><trkpt lat="45.3281847" lon="9.1491538"><ele>91.0</ele><time>2026-05-03T14:20:53.102Z</time></trkpt><trkpt lat="45.3281632" lon="9.1487285"><ele>91.0</ele><time>2026-05-03T14:20:54.103Z</time></trkpt><trkpt lat="45.3281386" lon="9.1482884"><ele>91.0</ele><time>2026-05-03T14:20:55.1Z</time></trkpt><trkpt lat="45.3281149" lon="9.147821"><ele>91.0</ele><time>2026-05-03T14:20:56.102Z</time></trkpt><trkpt lat="45.3280924" lon="9.147346"><ele>91.5</ele><time>2026-05-03T14:20:57.101Z</time></trkpt><trkpt lat="45.3280646" lon="9.1468524"><ele>92.0</ele><time>2026-05-03T14:20:58.103Z</time></trkpt><trkpt lat="45.3280356" lon="9.1463401"><ele>92.0</ele><time>2026-05-03T14:20:59.101Z</time></trkpt><trkpt lat="45.3280002" lon="9.1458314"><ele>92.0</ele><time>2026-05-03T14:21:00.103Z</time></trkpt><trkpt lat="45.3279691" lon="9.1453309"><ele>92.5</ele><time>2026-05-03T14:21:01.103Z</time></trkpt><trkpt lat="45.3279408" lon="9.1448371"><ele>93.0</ele><time>2026-05-03T14:21:02.103Z</time></trkpt><trkpt lat="45.3279181" lon="9.1443665"><ele>93.0</ele><time>2026-05-03T14:21:03.103Z</time></trkpt><trkpt lat="45.3278897" lon="9.1438826"><ele>93.0</ele><time>2026-05-03T14:21:04.102Z</time></trkpt><trkpt lat="45.3278611" lon="9.143411"><ele>93.0</ele><time>2026-05-03T14:21:05.102Z</time></trkpt><trkpt lat="45.3278337" lon="9.1429425"><ele>93.0</ele><time>2026-05-03T14:21:06.102Z</time></trkpt><trkpt lat="45.3278048" lon="9.1424683"><ele>93.0</ele><time>2026-05-03T14:21:07.102Z</time></trkpt><trkpt lat="45.3277741" lon="9.1419997"><ele>93.0</ele><time>2026-05-03T14:21:08.101Z</time></trkpt><trkpt lat="45.3277455" lon="9.141531"><ele>93.5</ele><time>2026-05-03T14:21:09.102Z</time></trkpt><trkpt lat="45.3277179" lon="9.1410688"><ele>94.0</ele><time>2026-05-03T14:21:10.103Z</time></trkpt><trkpt lat="45.3276859" lon="9.1406076"><ele>94.0</ele><time>2026-05-03T14:21:11.102Z</time></trkpt><trkpt lat="45.3276597" lon="9.1401318"><ele>94.0</ele><time>2026-05-03T14:21:12.103Z</time></trkpt><trkpt lat="45.3276352" lon="9.1396682"><ele>94.0</ele><time>2026-05-03T14:21:13.102Z</time></trkpt><trkpt lat="45.3276094" lon="9.1392399"><ele>94.0</ele><time>2026-05-03T14:21:14.102Z</time></trkpt><trkpt lat="45.3275839" lon="9.1388327"><ele>94.0</ele><time>2026-05-03T14:21:15.102Z</time></trkpt><trkpt lat="45.3275575" lon="9.1384462"><ele>94.0</ele><time>2026-05-03T14:21:16.102Z</time></trkpt><trkpt lat="45.3275381" lon="9.1380987"><ele>93.0</ele><time>2026-05-03T14:21:17.102Z</time></trkpt><trkpt lat="45.3275139" lon="9.1377771"><ele>92.0</ele><time>2026-05-03T14:21:18.103Z</time></trkpt><trkpt lat="45.3274935" lon="9.1374598"><ele>92.33333333333334</ele><time>2026-05-03T14:21:19.102Z</time></trkpt><trkpt lat="45.3274762" lon="9.1371581"><ele>92.66666666666667</ele><time>2026-05-03T14:21:20.103Z</time></trkpt><trkpt lat="45.3274663" lon="9.1369016"><ele>93.0</ele><time>2026-05-03T14:21:21.099Z</time></trkpt><trkpt lat="45.3274615" lon="9.1366541"><ele>93.66666666666667</ele><time>2026-05-03T14:21:22.102Z</time></trkpt><trkpt lat="45.3274685" lon="9.1364233"><ele>94.33333333333334</ele><time>2026-05-03T14:21:23.102Z</time></trkpt><trkpt lat="45.327492" lon="9.1362015"><ele>95.0</ele><time>2026-05-03T14:21:24.101Z</time></trkpt><trkpt lat="45.3275265" lon="9.1359792"><ele>95.0</ele><time>2026-05-03T14:21:25.102Z</time></trkpt><trkpt lat="45.3275733" lon="9.1357831"><ele>95.0</ele><time>2026-05-03T14:21:26.1Z</time></trkpt><trkpt lat="45.3276008" lon="9.1355963"><ele>95.0</ele><time>2026-05-03T14:21:27.102Z</time></trkpt><trkpt lat="45.327591" lon="9.1354278"><ele>95.0</ele><time>2026-05-03T14:21:28.102Z</time></trkpt><trkpt lat="45.3275398" lon="9.1352603"><ele>95.0</ele><time>2026-05-03T14:21:29.101Z</time></trkpt><trkpt lat="45.3274734" lon="9.1350654"><ele>95.0</ele><time>2026-05-03T14:21:30.102Z</time></trkpt><trkpt lat="45.3274039" lon="9.1348171"><ele>95.0</ele><time>2026-05-03T14:21:31.102Z</time></trkpt><trkpt lat="45.3273583" lon="9.1345392"><ele>95.5</ele><time>2026-05-03T14:21:32.101Z</time></trkpt><trkpt lat="45.3273386" lon="9.1342179"><ele>96.0</ele><time>2026-05-03T14:21:33.102Z</time></trkpt><trkpt lat="45.3273389" lon="9.1338707"><ele>96.0</ele><time>2026-05-03T14:21:34.101Z</time></trkpt><trkpt lat="45.327361" lon="9.1335452"><ele>96.0</ele><time>2026-05-03T14:21:35.1Z</time></trkpt><trkpt lat="45.3273956" lon="9.1332401"><ele>96.0</ele><time>2026-05-03T14:21:36.101Z</time></trkpt><trkpt lat="45.3274481" lon="9.1329466"><ele>96.0</ele><time>2026-05-03T14:21:37.102Z</time></trkpt><trkpt lat="45.3275133" lon="9.1326596"><ele>96.0</ele><time>2026-05-03T14:21:38.101Z</time></trkpt><trkpt lat="45.3275876" lon="9.1323715"><ele>96.0</ele><time>2026-05-03T14:21:39.102Z</time></trkpt><trkpt lat="45.3276724" lon="9.1320949"><ele>96.0</ele><time>2026-05-03T14:21:40.102Z</time></trkpt><trkpt lat="45.3277541" lon="9.131808"><ele>96.0</ele><time>2026-05-03T14:21:41.102Z</time></trkpt><trkpt lat="45.3278338" lon="9.1315319"><ele>96.0</ele><time>2026-05-03T14:21:42.102Z</time></trkpt><trkpt lat="45.3279173" lon="9.1312691"><ele>96.0</ele><time>2026-05-03T14:21:43.103Z</time></trkpt><trkpt lat="45.3279962" lon="9.1310103"><ele>96.0</ele><time>2026-05-03T14:21:44.101Z</time></trkpt><trkpt lat="45.3280826" lon="9.1307424"><ele>96.0</ele><time>2026-05-03T14:21:45.098Z</time></trkpt><trkpt lat="45.3281686" lon="9.1304539"><ele>95.5</ele><time>2026-05-03T14:21:46.102Z</time></trkpt><trkpt lat="45.3282674" lon="9.1301639"><ele>95.0</ele><time>2026-05-03T14:21:47.101Z</time></trkpt><trkpt lat="45.3283678" lon="9.1298574"><ele>95.0</ele><time>2026-05-03T14:21:48.103Z</time></trkpt><trkpt lat="45.3284744" lon="9.1295348"><ele>95.0</ele><time>2026-05-03T14:21:49.101Z</time></trkpt><trkpt lat="45.3285814" lon="9.1291878"><ele>94.5</ele><time>2026-05-03T14:21:50.101Z</time></trkpt><trkpt lat="45.3286914" lon="9.1288508"><ele>94.0</ele><time>2026-05-03T14:21:51.102Z</time></trkpt><trkpt lat="45.3288026" lon="9.1285339"><ele>95.0</ele><time>2026-05-03T14:21:52.101Z</time></trkpt><trkpt lat="45.32891" lon="9.1282185"><ele>96.0</ele><time>2026-05-03T14:21:53.102Z</time></trkpt><trkpt lat="45.3290095" lon="9.1278947"><ele>96.0</ele><time>2026-05-03T14:21:54.102Z</time></trkpt><trkpt lat="45.3291136" lon="9.1275528"><ele>96.0</ele><time>2026-05-03T14:21:55.102Z</time></trkpt><trkpt lat="45.3292207" lon="9.1272054"><ele>96.0</ele><time>2026-05-03T14:21:56.102Z</time></trkpt><trkpt lat="45.3293304" lon="9.1268463"><ele>96.0</ele><time>2026-05-03T14:21:57.103Z</time></trkpt><trkpt lat="45.3294466" lon="9.1264768"><ele>96.0</ele><time>2026-05-03T14:21:58.103Z</time></trkpt><trkpt lat="45.3295634" lon="9.1261037"><ele>96.0</ele><time>2026-05-03T14:21:59.103Z</time></trkpt><trkpt lat="45.3296776" lon="9.1257176"><ele>96.0</ele><time>2026-05-03T14:22:00.102Z</time></trkpt><trkpt lat="45.3297978" lon="9.1253304"><ele>96.0</ele><time>2026-05-03T14:22:01.101Z</time></trkpt><trkpt lat="45.3299242" lon="9.1249422"><ele>96.0</ele><time>2026-05-03T14:22:02.1Z</time></trkpt><trkpt lat="45.3300514" lon="9.1245511"><ele>96.0</ele><time>2026-05-03T14:22:03.101Z</time></trkpt><trkpt lat="45.3301771" lon="9.1241508"><ele>96.0</ele><time>2026-05-03T14:22:04.103Z</time></trkpt><trkpt lat="45.3302997" lon="9.1237468"><ele>96.0</ele><time>2026-05-03T14:22:05.101Z</time></trkpt><trkpt lat="45.3304304" lon="9.123342"><ele>96.0</ele><time>2026-05-03T14:22:06.103Z</time></trkpt><trkpt lat="45.3305577" lon="9.1229312"><ele>96.0</ele><time>2026-05-03T14:22:07.101Z</time></trkpt><trkpt lat="45.3306848" lon="9.1225117"><ele>96.0</ele><time>2026-05-03T14:22:08.103Z</time></trkpt><trkpt lat="45.3308118" lon="9.1220874"><ele>96.0</ele><time>2026-05-03T14:22:09.1Z</time></trkpt><trkpt lat="45.3309437" lon="9.1216664"><ele>96.0</ele><time>2026-05-03T14:22:10.102Z</time></trkpt><trkpt lat="45.3310747" lon="9.1212344"><ele>96.0</ele><time>2026-05-03T14:22:11.103Z</time></trkpt><trkpt lat="45.3312038" lon="9.1208028"><ele>96.0</ele><time>2026-05-03T14:22:12.1Z</time></trkpt><trkpt lat="45.3313378" lon="9.1203702"><ele>96.0</ele><time>2026-05-03T14:22:13.1Z</time></trkpt><trkpt lat="45.3314701" lon="9.1199348"><ele>96.0</ele><time>2026-05-03T14:22:14.101Z</time></trkpt><trkpt lat="45.3316031" lon="9.1194911"><ele>96.0</ele><time>2026-05-03T14:22:15.099Z</time></trkpt><trkpt lat="45.3317369" lon="9.1190561"><ele>95.5</ele><time>2026-05-03T14:22:16.1Z</time></trkpt><trkpt lat="45.3318705" lon="9.118617"><ele>95.0</ele><time>2026-05-03T14:22:17.1Z</time></trkpt><trkpt lat="45.3320007" lon="9.1181894"><ele>95.0</ele><time>2026-05-03T14:22:18.101Z</time></trkpt><trkpt lat="45.3321302" lon="9.1177799"><ele>95.0</ele><time>2026-05-03T14:22:19.101Z</time></trkpt><trkpt lat="45.3322562" lon="9.1173832"><ele>95.0</ele><time>2026-05-03T14:22:20.103Z</time></trkpt><trkpt lat="45.3323804" lon="9.1169978"><ele>95.0</ele><time>2026-05-03T14:22:21.102Z</time></trkpt><trkpt lat="45.3325002" lon="9.1166104"><ele>96.5</ele><time>2026-05-03T14:22:22.102Z</time></trkpt><trkpt lat="45.332624" lon="9.1162307"><ele>98.0</ele><time>2026-05-03T14:22:23.103Z</time></trkpt><trkpt lat="45.3327438" lon="9.1158416"><ele>99.0</ele><time>2026-05-03T14:22:24.103Z</time></trkpt><trkpt lat="45.3328607" lon="9.1154514"><ele>100.0</ele><time>2026-05-03T14:22:25.103Z</time></trkpt><trkpt lat="45.3329797" lon="9.1150563"><ele>98.0</ele><time>2026-05-03T14:22:26.101Z</time></trkpt><trkpt lat="45.3331052" lon="9.114653"><ele>96.0</ele><time>2026-05-03T14:22:27.1Z</time></trkpt><trkpt lat="45.3332302" lon="9.1142322"><ele>95.5</ele><time>2026-05-03T14:22:28.103Z</time></trkpt><trkpt lat="45.3333582" lon="9.1138039"><ele>95.0</ele><time>2026-05-03T14:22:29.098Z</time></trkpt><trkpt lat="45.33349" lon="9.1133818"><ele>95.5</ele><time>2026-05-03T14:22:30.103Z</time></trkpt><trkpt lat="45.3336298" lon="9.1129668"><ele>96.0</ele><time>2026-05-03T14:22:31.102Z</time></trkpt><trkpt lat="45.3337721" lon="9.1125496"><ele>96.0</ele><time>2026-05-03T14:22:32.101Z</time></trkpt><trkpt lat="45.333907" lon="9.1121335"><ele>96.0</ele><time>2026-05-03T14:22:33.102Z</time></trkpt><trkpt lat="45.3340433" lon="9.1117291"><ele>96.0</ele><time>2026-05-03T14:22:34.102Z</time></trkpt><trkpt lat="45.3341766" lon="9.1113347"><ele>96.0</ele><time>2026-05-03T14:22:35.101Z</time></trkpt><trkpt lat="45.3342978" lon="9.11093"><ele>96.0</ele><time>2026-05-03T14:22:36.101Z</time></trkpt><trkpt lat="45.3344265" lon="9.1105234"><ele>96.0</ele><time>2026-05-03T14:22:37.1Z</time></trkpt><trkpt lat="45.3345576" lon="9.1101099"><ele>96.5</ele><time>2026-05-03T14:22:38.101Z</time></trkpt><trkpt lat="45.3346847" lon="9.1097049"><ele>97.0</ele><time>2026-05-03T14:22:39.103Z</time></trkpt><trkpt lat="45.3348045" lon="9.1093211"><ele>98.5</ele><time>2026-05-03T14:22:40.103Z</time></trkpt><trkpt lat="45.3349118" lon="9.1089591"><ele>100.0</ele><time>2026-05-03T14:22:41.102Z</time></trkpt><trkpt lat="45.3350163" lon="9.1086341"><ele>100.0</ele><time>2026-05-03T14:22:42.1Z</time></trkpt><trkpt lat="45.3351113" lon="9.1083378"><ele>100.0</ele><time>2026-05-03T14:22:43.103Z</time></trkpt><trkpt lat="45.3351975" lon="9.1080769"><ele>100.0</ele><time>2026-05-03T14:22:44.102Z</time></trkpt><trkpt lat="45.3352689" lon="9.1078446"><ele>99.75</ele><time>2026-05-03T14:22:45.101Z</time></trkpt><trkpt lat="45.3353374" lon="9.1076306"><ele>99.5</ele><time>2026-05-03T14:22:46.102Z</time></trkpt><trkpt lat="45.3353987" lon="9.1074636"><ele>99.25</ele><time>2026-05-03T14:22:47.103Z</time></trkpt><trkpt lat="45.3354556" lon="9.1073187"><ele>99.0</ele><time>2026-05-03T14:22:48.102Z</time></trkpt><trkpt lat="45.335512" lon="9.1072035"><ele>99.2</ele><time>2026-05-03T14:22:49.102Z</time></trkpt><trkpt lat="45.3355575" lon="9.1071126"><ele>99.4</ele><time>2026-05-03T14:22:50.102Z</time></trkpt><trkpt lat="45.3356217" lon="9.107004"><ele>99.6</ele><time>2026-05-03T14:22:52.101Z</time></trkpt><trkpt lat="45.3357089" lon="9.1068894"><ele>99.8</ele><time>2026-05-03T14:22:55.102Z</time></trkpt><trkpt lat="45.3357631" lon="9.1068056"><ele>100.0</ele><time>2026-05-03T14:22:56.102Z</time></trkpt><trkpt lat="45.3358054" lon="9.1066868"><ele>100.0</ele><time>2026-05-03T14:22:57.102Z</time></trkpt><trkpt lat="45.3358289" lon="9.1065378"><ele>100.0</ele><time>2026-05-03T14:22:58.101Z</time></trkpt><trkpt lat="45.3358386" lon="9.1063684"><ele>100.0</ele><time>2026-05-03T14:22:59.102Z</time></trkpt><trkpt lat="45.335846" lon="9.1061789"><ele>100.0</ele><time>2026-05-03T14:23:00.102Z</time></trkpt><trkpt lat="45.3358664" lon="9.1059784"><ele>100.0</ele><time>2026-05-03T14:23:01.099Z</time></trkpt><trkpt lat="45.3358913" lon="9.105801"><ele>100.0</ele><time>2026-05-03T14:23:02.101Z</time></trkpt><trkpt lat="45.3359222" lon="9.1056325"><ele>100.0</ele><time>2026-05-03T14:23:03.103Z</time></trkpt><trkpt lat="45.3359576" lon="9.1054676"><ele>100.0</ele><time>2026-05-03T14:23:04.1Z</time></trkpt><trkpt lat="45.3360036" lon="9.105315"><ele>100.0</ele><time>2026-05-03T14:23:05.102Z</time></trkpt><trkpt lat="45.3360541" lon="9.1051489"><ele>100.0</ele><time>2026-05-03T14:23:06.102Z</time></trkpt><trkpt lat="45.3360962" lon="9.1049913"><ele>100.0</ele><time>2026-05-03T14:23:07.103Z</time></trkpt><trkpt lat="45.3361399" lon="9.1048281"><ele>100.0</ele><time>2026-05-03T14:23:08.102Z</time></trkpt><trkpt lat="45.3361785" lon="9.1046767"><ele>100.0</ele><time>2026-05-03T14:23:09.102Z</time></trkpt><trkpt lat="45.3362242" lon="9.1045177"><ele>100.0</ele><time>2026-05-03T14:23:10.103Z</time></trkpt><trkpt lat="45.3362715" lon="9.1043525"><ele>100.0</ele><time>2026-05-03T14:23:11.102Z</time></trkpt><trkpt lat="45.336317" lon="9.1041991"><ele>100.0</ele><time>2026-05-03T14:23:12.1Z</time></trkpt><trkpt lat="45.3363589" lon="9.1040469"><ele>100.0</ele><time>2026-05-03T14:23:13.1Z</time></trkpt><trkpt lat="45.3364021" lon="9.1038958"><ele>100.0</ele><time>2026-05-03T14:23:14.101Z</time></trkpt><trkpt lat="45.3364475" lon="9.1037577"><ele>100.0</ele><time>2026-05-03T14:23:15.103Z</time></trkpt><trkpt lat="45.336487" lon="9.103609"><ele>100.0</ele><time>2026-05-03T14:23:16.102Z</time></trkpt><trkpt lat="45.3365258" lon="9.1034591"><ele>100.0</ele><time>2026-05-03T14:23:17.103Z</time></trkpt><trkpt lat="45.3365715" lon="9.1033054"><ele>100.0</ele><time>2026-05-03T14:23:18.103Z</time></trkpt><trkpt lat="45.336613" lon="9.1031432"><ele>100.0</ele><time>2026-05-03T14:23:19.099Z</time></trkpt><trkpt lat="45.3366557" lon="9.1029802"><ele>100.0</ele><time>2026-05-03T14:23:20.102Z</time></trkpt><trkpt lat="45.3366933" lon="9.1028173"><ele>100.0</ele><time>2026-05-03T14:23:21.103Z</time></trkpt><trkpt lat="45.3367353" lon="9.1026499"><ele>100.0</ele><time>2026-05-03T14:23:22.101Z</time></trkpt><trkpt lat="45.3367838" lon="9.102456"><ele>100.0</ele><time>2026-05-03T14:23:23.102Z</time></trkpt><trkpt lat="45.3368369" lon="9.1022508"><ele>100.0</ele><time>2026-05-03T14:23:24.102Z</time></trkpt><trkpt lat="45.3368973" lon="9.1020485"><ele>99.8</ele><time>2026-05-03T14:23:25.103Z</time></trkpt><trkpt lat="45.3369474" lon="9.1018847"><ele>99.6</ele><time>2026-05-03T14:23:26.102Z</time></trkpt><trkpt lat="45.336988" lon="9.1017514"><ele>99.4</ele><time>2026-05-03T14:23:27.101Z</time></trkpt><trkpt lat="45.3370233" lon="9.1016415"><ele>99.2</ele><time>2026-05-03T14:23:28.102Z</time></trkpt><trkpt lat="45.3370639" lon="9.101551"><ele>99.0</ele><time>2026-05-03T14:23:29.1Z</time></trkpt><trkpt lat="45.3371542" lon="9.101431"><ele>99.0</ele><time>2026-05-03T14:23:31.102Z</time></trkpt><trkpt lat="45.3371977" lon="9.1012468"><ele>99.0</ele><time>2026-05-03T14:23:33.101Z</time></trkpt><trkpt lat="45.3372175" lon="9.1010906"><ele>99.0</ele><time>2026-05-03T14:23:34.103Z</time></trkpt><trkpt lat="45.3372531" lon="9.1008861"><ele>99.0</ele><time>2026-05-03T14:23:35.103Z</time></trkpt><trkpt lat="45.3373014" lon="9.100671"><ele>98.66666666666666</ele><time>2026-05-03T14:23:36.103Z</time></trkpt><trkpt lat="45.3373628" lon="9.1004582"><ele>98.33333333333333</ele><time>2026-05-03T14:23:37.102Z</time></trkpt><trkpt lat="45.3374233" lon="9.1002444"><ele>98.0</ele><time>2026-05-03T14:23:38.103Z</time></trkpt><trkpt lat="45.337493" lon="9.1000332"><ele>98.0</ele><time>2026-05-03T14:23:39.102Z</time></trkpt><trkpt lat="45.3375684" lon="9.0998169"><ele>98.0</ele><time>2026-05-03T14:23:40.103Z</time></trkpt><trkpt lat="45.3376543" lon="9.0995641"><ele>98.0</ele><time>2026-05-03T14:23:41.103Z</time></trkpt><trkpt lat="45.3377603" lon="9.0993046"><ele>98.5</ele><time>2026-05-03T14:23:42.103Z</time></trkpt><trkpt lat="45.3378815" lon="9.0990188"><ele>99.0</ele><time>2026-05-03T14:23:43.103Z</time></trkpt><trkpt lat="45.3380029" lon="9.098718"><ele>99.0</ele><time>2026-05-03T14:23:44.1Z</time></trkpt><trkpt lat="45.3381173" lon="9.0983849"><ele>99.0</ele><time>2026-05-03T14:23:45.102Z</time></trkpt><trkpt lat="45.3382283" lon="9.0980476"><ele>99.0</ele><time>2026-05-03T14:23:46.103Z</time></trkpt><trkpt lat="45.3383375" lon="9.0976911"><ele>99.0</ele><time>2026-05-03T14:23:47.103Z</time></trkpt><trkpt lat="45.3384394" lon="9.0973456"><ele>99.5</ele><time>2026-05-03T14:23:48.103Z</time></trkpt><trkpt lat="45.3385278" lon="9.0970209"><ele>100.0</ele><time>2026-05-03T14:23:49.101Z</time></trkpt><trkpt lat="45.3386131" lon="9.0966955"><ele>99.0</ele><time>2026-05-03T14:23:50.103Z</time></trkpt><trkpt lat="45.3386952" lon="9.0963732"><ele>98.0</ele><time>2026-05-03T14:23:51.102Z</time></trkpt><trkpt lat="45.3387711" lon="9.0960465"><ele>98.0</ele><time>2026-05-03T14:23:52.102Z</time></trkpt><trkpt lat="45.3388496" lon="9.0957241"><ele>98.0</ele><time>2026-05-03T14:23:53.102Z</time></trkpt><trkpt lat="45.3389225" lon="9.0953901"><ele>99.0</ele><time>2026-05-03T14:23:54.102Z</time></trkpt><trkpt lat="45.3389965" lon="9.0950571"><ele>100.0</ele><time>2026-05-03T14:23:55.102Z</time></trkpt><trkpt lat="45.3390693" lon="9.0947231"><ele>100.0</ele><time>2026-05-03T14:23:56.102Z</time></trkpt><trkpt lat="45.3391393" lon="9.0944019"><ele>100.0</ele><time>2026-05-03T14:23:57.102Z</time></trkpt><trkpt lat="45.3392067" lon="9.0940835"><ele>99.66666666666667</ele><time>2026-05-03T14:23:58.103Z</time></trkpt><trkpt lat="45.3392671" lon="9.0937989"><ele>99.33333333333334</ele><time>2026-05-03T14:23:59.102Z</time></trkpt><trkpt lat="45.3393277" lon="9.0935266"><ele>99.0</ele><time>2026-05-03T14:24:00.1Z</time></trkpt><trkpt lat="45.3393776" lon="9.0932814"><ele>99.0</ele><time>2026-05-03T14:24:01.103Z</time></trkpt><trkpt lat="45.3394093" lon="9.0930675"><ele>99.0</ele><time>2026-05-03T14:24:02.102Z</time></trkpt><trkpt lat="45.3394351" lon="9.0928744"><ele>99.0</ele><time>2026-05-03T14:24:03.102Z</time></trkpt><trkpt lat="45.3394502" lon="9.0926974"><ele>99.0</ele><time>2026-05-03T14:24:04.103Z</time></trkpt><trkpt lat="45.3394794" lon="9.0925354"><ele>98.80000000000001</ele><time>2026-05-03T14:24:05.103Z</time></trkpt><trkpt lat="45.3395238" lon="9.0923911"><ele>98.60000000000001</ele><time>2026-05-03T14:24:06.102Z</time></trkpt><trkpt lat="45.3395718" lon="9.0922596"><ele>98.4</ele><time>2026-05-03T14:24:07.103Z</time></trkpt><trkpt lat="45.3395814" lon="9.0921317"><ele>98.2</ele><time>2026-05-03T14:24:08.102Z</time></trkpt><trkpt lat="45.3395677" lon="9.092018"><ele>98.0</ele><time>2026-05-03T14:24:09.102Z</time></trkpt><trkpt lat="45.3395324" lon="9.0919108"><ele>98.0</ele><time>2026-05-03T14:24:10.103Z</time></trkpt><trkpt lat="45.3394904" lon="9.091797"><ele>98.0</ele><time>2026-05-03T14:24:11.102Z</time></trkpt><trkpt lat="45.3394488" lon="9.0916703"><ele>98.0</ele><time>2026-05-03T14:24:12.103Z</time></trkpt><trkpt lat="45.3394135" lon="9.0915293"><ele>98.0</ele><time>2026-05-03T14:24:13.102Z</time></trkpt><trkpt lat="45.3393814" lon="9.0913722"><ele>98.0</ele><time>2026-05-03T14:24:14.103Z</time></trkpt><trkpt lat="45.3393527" lon="9.091211"><ele>98.25</ele><time>2026-05-03T14:24:15.101Z</time></trkpt><trkpt lat="45.3393148" lon="9.0910483"><ele>98.5</ele><time>2026-05-03T14:24:16.102Z</time></trkpt><trkpt lat="45.3392704" lon="9.0908874"><ele>98.75</ele><time>2026-05-03T14:24:17.102Z</time></trkpt><trkpt lat="45.3392138" lon="9.090716"><ele>99.0</ele><time>2026-05-03T14:24:18.1Z</time></trkpt><trkpt lat="45.3391438" lon="9.090524"><ele>99.33333333333334</ele><time>2026-05-03T14:24:19.101Z</time></trkpt><trkpt lat="45.3390625" lon="9.0903177"><ele>99.66666666666667</ele><time>2026-05-03T14:24:20.101Z</time></trkpt><trkpt lat="45.3389792" lon="9.0900872"><ele>100.0</ele><time>2026-05-03T14:24:21.099Z</time></trkpt><trkpt lat="45.3388972" lon="9.0898434"><ele>100.0</ele><time>2026-05-03T14:24:22.102Z</time></trkpt><trkpt lat="45.3388057" lon="9.0896019"><ele>100.0</ele><time>2026-05-03T14:24:23.101Z</time></trkpt><trkpt lat="45.3387105" lon="9.0893524"><ele>100.0</ele><time>2026-05-03T14:24:24.101Z</time></trkpt><trkpt lat="45.3386074" lon="9.0890883"><ele>100.0</ele><time>2026-05-03T14:24:25.101Z</time></trkpt><trkpt lat="45.3385102" lon="9.0888307"><ele>100.0</ele><time>2026-05-03T14:24:26.103Z</time></trkpt><trkpt lat="45.3384054" lon="9.0885655"><ele>100.0</ele><time>2026-05-03T14:24:27.101Z</time></trkpt><trkpt lat="45.3383035" lon="9.0882922"><ele>100.33333333333334</ele><time>2026-05-03T14:24:28.103Z</time></trkpt><trkpt lat="45.3382032" lon="9.088017"><ele>100.66666666666666</ele><time>2026-05-03T14:24:29.102Z</time></trkpt><trkpt lat="45.3380996" lon="9.0877279"><ele>101.0</ele><time>2026-05-03T14:24:30.102Z</time></trkpt><trkpt lat="45.3379925" lon="9.0874375"><ele>99.5</ele><time>2026-05-03T14:24:31.101Z</time></trkpt><trkpt lat="45.3378865" lon="9.087139"><ele>98.0</ele><time>2026-05-03T14:24:32.1Z</time></trkpt><trkpt lat="45.3377775" lon="9.0868466"><ele>98.5</ele><time>2026-05-03T14:24:33.101Z</time></trkpt><trkpt lat="45.3376685" lon="9.0865456"><ele>99.0</ele><time>2026-05-03T14:24:34.102Z</time></trkpt><trkpt lat="45.3375431" lon="9.0862291"><ele>99.0</ele><time>2026-05-03T14:24:35.103Z</time></trkpt><trkpt lat="45.3374289" lon="9.0859275"><ele>99.0</ele><time>2026-05-03T14:24:36.101Z</time></trkpt><trkpt lat="45.3373242" lon="9.0856397"><ele>99.0</ele><time>2026-05-03T14:24:37.102Z</time></trkpt><trkpt lat="45.3372224" lon="9.0853687"><ele>99.0</ele><time>2026-05-03T14:24:38.101Z</time></trkpt><trkpt lat="45.3371293" lon="9.0851223"><ele>99.0</ele><time>2026-05-03T14:24:39.103Z</time></trkpt><trkpt lat="45.3370459" lon="9.0849055"><ele>98.0</ele><time>2026-05-03T14:24:40.103Z</time></trkpt><trkpt lat="45.3369675" lon="9.0847033"><ele>97.0</ele><time>2026-05-03T14:24:41.102Z</time></trkpt><trkpt lat="45.3369038" lon="9.0845087"><ele>96.0</ele><time>2026-05-03T14:24:42.103Z</time></trkpt><trkpt lat="45.3368698" lon="9.0843077"><ele>96.0</ele><time>2026-05-03T14:24:43.101Z</time></trkpt><trkpt lat="45.3368506" lon="9.0841132"><ele>96.0</ele><time>2026-05-03T14:24:44.102Z</time></trkpt><trkpt lat="45.3368156" lon="9.0839575"><ele>96.0</ele><time>2026-05-03T14:24:45.103Z</time></trkpt><trkpt lat="45.3367473" lon="9.0838314"><ele>96.0</ele><time>2026-05-03T14:24:46.1Z</time></trkpt><trkpt lat="45.3366548" lon="9.0836887"><ele>96.0</ele><time>2026-05-03T14:24:47.102Z</time></trkpt><trkpt lat="45.336548" lon="9.0835066"><ele>96.0</ele><time>2026-05-03T14:24:48.103Z</time></trkpt><trkpt lat="45.3364356" lon="9.0832825"><ele>96.0</ele><time>2026-05-03T14:24:49.102Z</time></trkpt><trkpt lat="45.3363248" lon="9.0830035"><ele>96.0</ele><time>2026-05-03T14:24:50.102Z</time></trkpt><trkpt lat="45.3362231" lon="9.0827413"><ele>96.0</ele><time>2026-05-03T14:24:51.101Z</time></trkpt><trkpt lat="45.336138" lon="9.0824964"><ele>96.0</ele><time>2026-05-03T14:24:52.102Z</time></trkpt><trkpt lat="45.3360546" lon="9.0822722"><ele>96.0</ele><time>2026-05-03T14:24:53.1Z</time></trkpt><trkpt lat="45.33597" lon="9.0820476"><ele>96.0</ele><time>2026-05-03T14:24:54.103Z</time></trkpt><trkpt lat="45.3358807" lon="9.0818189"><ele>96.0</ele><time>2026-05-03T14:24:55.102Z</time></trkpt><trkpt lat="45.3357769" lon="9.0815702"><ele>95.66666666666667</ele><time>2026-05-03T14:24:56.102Z</time></trkpt><trkpt lat="45.3356689" lon="9.0813005"><ele>95.33333333333334</ele><time>2026-05-03T14:24:57.103Z</time></trkpt><trkpt lat="45.3355684" lon="9.081021"><ele>95.0</ele><time>2026-05-03T14:24:58.103Z</time></trkpt><trkpt lat="45.3354477" lon="9.0806856"><ele>96.5</ele><time>2026-05-03T14:24:59.101Z</time></trkpt><trkpt lat="45.3353179" lon="9.0803378"><ele>98.0</ele><time>2026-05-03T14:25:00.101Z</time></trkpt><trkpt lat="45.3351802" lon="9.0799691"><ele>98.5</ele><time>2026-05-03T14:25:01.101Z</time></trkpt><trkpt lat="45.3350377" lon="9.0795948"><ele>99.0</ele><time>2026-05-03T14:25:02.102Z</time></trkpt><trkpt lat="45.3349054" lon="9.0792323"><ele>98.5</ele><time>2026-05-03T14:25:03.101Z</time></trkpt><trkpt lat="45.3347702" lon="9.0788647"><ele>98.0</ele><time>2026-05-03T14:25:04.1Z</time></trkpt><trkpt lat="45.3346302" lon="9.078495"><ele>98.5</ele><time>2026-05-03T14:25:05.102Z</time></trkpt><trkpt lat="45.3344953" lon="9.0781372"><ele>99.0</ele><time>2026-05-03T14:25:06.103Z</time></trkpt><trkpt lat="45.3343673" lon="9.0777954"><ele>99.0</ele><time>2026-05-03T14:25:07.101Z</time></trkpt><trkpt lat="45.3342512" lon="9.0774756"><ele>99.0</ele><time>2026-05-03T14:25:08.101Z</time></trkpt><trkpt lat="45.3341406" lon="9.0771655"><ele>98.5</ele><time>2026-05-03T14:25:09.102Z</time></trkpt><trkpt lat="45.334026" lon="9.0768594"><ele>98.0</ele><time>2026-05-03T14:25:10.103Z</time></trkpt><trkpt lat="45.3339365" lon="9.0765445"><ele>99.0</ele><time>2026-05-03T14:25:11.102Z</time></trkpt><trkpt lat="45.3338642" lon="9.0762312"><ele>100.0</ele><time>2026-05-03T14:25:12.102Z</time></trkpt><trkpt lat="45.3338089" lon="9.0758984"><ele>100.0</ele><time>2026-05-03T14:25:13.102Z</time></trkpt><trkpt lat="45.3337714" lon="9.0755413"><ele>100.0</ele><time>2026-05-03T14:25:14.101Z</time></trkpt><trkpt lat="45.3337341" lon="9.0751778"><ele>101.0</ele><time>2026-05-03T14:25:15.103Z</time></trkpt><trkpt lat="45.3337026" lon="9.0748032"><ele>102.0</ele><time>2026-05-03T14:25:16.103Z</time></trkpt><trkpt lat="45.3336683" lon="9.0744138"><ele>102.0</ele><time>2026-05-03T14:25:17.103Z</time></trkpt><trkpt lat="45.3336305" lon="9.0740121"><ele>102.0</ele><time>2026-05-03T14:25:18.102Z</time></trkpt><trkpt lat="45.333592" lon="9.0735934"><ele>100.5</ele><time>2026-05-03T14:25:19.102Z</time></trkpt><trkpt lat="45.3335528" lon="9.073159"><ele>99.0</ele><time>2026-05-03T14:25:20.101Z</time></trkpt><trkpt lat="45.3335171" lon="9.0727171"><ele>99.0</ele><time>2026-05-03T14:25:21.103Z</time></trkpt><trkpt lat="45.3334738" lon="9.0722866"><ele>99.0</ele><time>2026-05-03T14:25:22.102Z</time></trkpt><trkpt lat="45.3334268" lon="9.0718619"><ele>98.5</ele><time>2026-05-03T14:25:23.103Z</time></trkpt><trkpt lat="45.3333874" lon="9.0714512"><ele>98.0</ele><time>2026-05-03T14:25:24.102Z</time></trkpt><trkpt lat="45.3333419" lon="9.0710346"><ele>99.0</ele><time>2026-05-03T14:25:25.103Z</time></trkpt><trkpt lat="45.3333068" lon="9.070623"><ele>100.0</ele><time>2026-05-03T14:25:26.101Z</time></trkpt><trkpt lat="45.3332707" lon="9.0702145"><ele>99.0</ele><time>2026-05-03T14:25:27.102Z</time></trkpt><trkpt lat="45.3332282" lon="9.0698087"><ele>98.0</ele><time>2026-05-03T14:25:28.102Z</time></trkpt><trkpt lat="45.3331802" lon="9.0694071"><ele>97.5</ele><time>2026-05-03T14:25:29.101Z</time></trkpt><trkpt lat="45.3331389" lon="9.0690009"><ele>97.0</ele><time>2026-05-03T14:25:30.102Z</time></trkpt><trkpt lat="45.33311" lon="9.0686036"><ele>97.0</ele><time>2026-05-03T14:25:31.102Z</time></trkpt><trkpt lat="45.3330934" lon="9.0682068"><ele>97.0</ele><time>2026-05-03T14:25:32.103Z</time></trkpt><trkpt lat="45.3330772" lon="9.0678071"><ele>97.5</ele><time>2026-05-03T14:25:33.101Z</time></trkpt><trkpt lat="45.3330717" lon="9.0674"><ele>98.0</ele><time>2026-05-03T14:25:34.102Z</time></trkpt><trkpt lat="45.3330641" lon="9.0669932"><ele>98.5</ele><time>2026-05-03T14:25:35.102Z</time></trkpt><trkpt lat="45.3330614" lon="9.0665773"><ele>99.0</ele><time>2026-05-03T14:25:36.101Z</time></trkpt><trkpt lat="45.3330618" lon="9.0661596"><ele>100.0</ele><time>2026-05-03T14:25:37.101Z</time></trkpt><trkpt lat="45.3330549" lon="9.0657384"><ele>101.0</ele><time>2026-05-03T14:25:38.101Z</time></trkpt><trkpt lat="45.3330499" lon="9.0653188"><ele>101.0</ele><time>2026-05-03T14:25:39.099Z</time></trkpt><trkpt lat="45.33304" lon="9.0649084"><ele>101.0</ele><time>2026-05-03T14:25:40.099Z</time></trkpt><trkpt lat="45.3330396" lon="9.0645155"><ele>101.0</ele><time>2026-05-03T14:25:41.1Z</time></trkpt><trkpt lat="45.3330313" lon="9.064133"><ele>101.0</ele><time>2026-05-03T14:25:42.102Z</time></trkpt><trkpt lat="45.3330261" lon="9.063765"><ele>101.0</ele><time>2026-05-03T14:25:43.102Z</time></trkpt><trkpt lat="45.333021" lon="9.0634258"><ele>101.0</ele><time>2026-05-03T14:25:44.103Z</time></trkpt><trkpt lat="45.3330091" lon="9.0631071"><ele>101.0</ele><time>2026-05-03T14:25:45.1Z</time></trkpt><trkpt lat="45.332985" lon="9.0627988"><ele>101.0</ele><time>2026-05-03T14:25:46.101Z</time></trkpt><trkpt lat="45.3329486" lon="9.0625019"><ele>101.0</ele><time>2026-05-03T14:25:47.101Z</time></trkpt><trkpt lat="45.3329023" lon="9.0622155"><ele>100.66666666666666</ele><time>2026-05-03T14:25:48.102Z</time></trkpt><trkpt lat="45.3328536" lon="9.0619253"><ele>100.33333333333334</ele><time>2026-05-03T14:25:49.1Z</time></trkpt><trkpt lat="45.3327995" lon="9.0616396"><ele>100.0</ele><time>2026-05-03T14:25:50.103Z</time></trkpt><trkpt lat="45.3327448" lon="9.061362"><ele>100.0</ele><time>2026-05-03T14:25:51.099Z</time></trkpt><trkpt lat="45.332693" lon="9.0610809"><ele>100.0</ele><time>2026-05-03T14:25:52.102Z</time></trkpt><trkpt lat="45.3326496" lon="9.0608076"><ele>100.0</ele><time>2026-05-03T14:25:53.102Z</time></trkpt><trkpt lat="45.3326122" lon="9.0605362"><ele>100.0</ele><time>2026-05-03T14:25:54.103Z</time></trkpt><trkpt lat="45.3325734" lon="9.0602836"><ele>100.0</ele><time>2026-05-03T14:25:55.103Z</time></trkpt><trkpt lat="45.3325491" lon="9.0600531"><ele>100.0</ele><time>2026-05-03T14:25:56.102Z</time></trkpt><trkpt lat="45.3325158" lon="9.0598149"><ele>99.66666666666667</ele><time>2026-05-03T14:25:57.103Z</time></trkpt><trkpt lat="45.3324881" lon="9.0595942"><ele>99.33333333333334</ele><time>2026-05-03T14:25:58.101Z</time></trkpt><trkpt lat="45.3324521" lon="9.0593711"><ele>99.0</ele><time>2026-05-03T14:25:59.102Z</time></trkpt><trkpt lat="45.3324227" lon="9.0591516"><ele>98.66666666666666</ele><time>2026-05-03T14:26:00.101Z</time></trkpt><trkpt lat="45.3323881" lon="9.0589312"><ele>98.33333333333333</ele><time>2026-05-03T14:26:01.103Z</time></trkpt><trkpt lat="45.3323554" lon="9.0587053"><ele>98.0</ele><time>2026-05-03T14:26:02.102Z</time></trkpt><trkpt lat="45.3323201" lon="9.058493"><ele>98.0</ele><time>2026-05-03T14:26:03.102Z</time></trkpt><trkpt lat="45.3322755" lon="9.0582846"><ele>98.0</ele><time>2026-05-03T14:26:04.103Z</time></trkpt><trkpt lat="45.3322171" lon="9.0581025"><ele>98.0</ele><time>2026-05-03T14:26:05.102Z</time></trkpt><trkpt lat="45.332147" lon="9.0579293"><ele>98.0</ele><time>2026-05-03T14:26:06.102Z</time></trkpt><trkpt lat="45.3320689" lon="9.0577488"><ele>98.0</ele><time>2026-05-03T14:26:07.1Z</time></trkpt><trkpt lat="45.3319981" lon="9.0575712"><ele>98.0</ele><time>2026-05-03T14:26:08.1Z</time></trkpt><trkpt lat="45.3319427" lon="9.0573819"><ele>98.0</ele><time>2026-05-03T14:26:09.099Z</time></trkpt><trkpt lat="45.3318961" lon="9.0572005"><ele>98.0</ele><time>2026-05-03T14:26:10.103Z</time></trkpt><trkpt lat="45.3318692" lon="9.0569883"><ele>98.66666666666666</ele><time>2026-05-03T14:26:11.1Z</time></trkpt><trkpt lat="45.3318514" lon="9.056747"><ele>99.33333333333334</ele><time>2026-05-03T14:26:12.103Z</time></trkpt><trkpt lat="45.3318358" lon="9.0564774"><ele>100.0</ele><time>2026-05-03T14:26:13.102Z</time></trkpt><trkpt lat="45.3318343" lon="9.0561814"><ele>102.0</ele><time>2026-05-03T14:26:14.102Z</time></trkpt><trkpt lat="45.331837" lon="9.0558632"><ele>104.0</ele><time>2026-05-03T14:26:15.101Z</time></trkpt><trkpt lat="45.3318376" lon="9.0555132"><ele>104.0</ele><time>2026-05-03T14:26:16.102Z</time></trkpt><trkpt lat="45.33183" lon="9.0551811"><ele>104.0</ele><time>2026-05-03T14:26:17.1Z</time></trkpt><trkpt lat="45.3318269" lon="9.054873"><ele>103.0</ele><time>2026-05-03T14:26:18.103Z</time></trkpt><trkpt lat="45.3318105" lon="9.0545831"><ele>102.0</ele><time>2026-05-03T14:26:19.102Z</time></trkpt><trkpt lat="45.3317664" lon="9.0542939"><ele>101.0</ele><time>2026-05-03T14:26:20.103Z</time></trkpt><trkpt lat="45.3316938" lon="9.0540108"><ele>100.5</ele><time>2026-05-03T14:26:21.1Z</time></trkpt><trkpt lat="45.3315962" lon="9.0536949"><ele>100.0</ele><time>2026-05-03T14:26:22.103Z</time></trkpt><trkpt lat="45.3314922" lon="9.0533756"><ele>100.33333333333334</ele><time>2026-05-03T14:26:23.103Z</time></trkpt><trkpt lat="45.3313967" lon="9.0530757"><ele>100.66666666666666</ele><time>2026-05-03T14:26:24.102Z</time></trkpt><trkpt lat="45.3313184" lon="9.0528127"><ele>101.0</ele><time>2026-05-03T14:26:25.103Z</time></trkpt><trkpt lat="45.3312635" lon="9.0525788"><ele>101.33333333333333</ele><time>2026-05-03T14:26:26.1Z</time></trkpt><trkpt lat="45.3312384" lon="9.0523664"><ele>101.66666666666666</ele><time>2026-05-03T14:26:27.101Z</time></trkpt><trkpt lat="45.3312402" lon="9.0521465"><ele>102.0</ele><time>2026-05-03T14:26:28.102Z</time></trkpt><trkpt lat="45.3312559" lon="9.0519264"><ele>102.0</ele><time>2026-05-03T14:26:29.102Z</time></trkpt><trkpt lat="45.3312727" lon="9.0517187"><ele>102.0</ele><time>2026-05-03T14:26:30.102Z</time></trkpt><trkpt lat="45.3312973" lon="9.0515284"><ele>102.0</ele><time>2026-05-03T14:26:31.102Z</time></trkpt><trkpt lat="45.3313393" lon="9.0513538"><ele>102.0</ele><time>2026-05-03T14:26:32.102Z</time></trkpt><trkpt lat="45.3314004" lon="9.0511719"><ele>102.0</ele><time>2026-05-03T14:26:33.1Z</time></trkpt><trkpt lat="45.3314858" lon="9.0509699"><ele>102.0</ele><time>2026-05-03T14:26:34.102Z</time></trkpt><trkpt lat="45.3315957" lon="9.0507698"><ele>102.0</ele><time>2026-05-03T14:26:35.102Z</time></trkpt><trkpt lat="45.3316893" lon="9.0505709"><ele>102.0</ele><time>2026-05-03T14:26:36.099Z</time></trkpt><trkpt lat="45.3317816" lon="9.0503919"><ele>102.0</ele><time>2026-05-03T14:26:37.1Z</time></trkpt><trkpt lat="45.3318599" lon="9.050226"><ele>102.0</ele><time>2026-05-03T14:26:38.101Z</time></trkpt><trkpt lat="45.3319287" lon="9.0500787"><ele>102.0</ele><time>2026-05-03T14:26:39.099Z</time></trkpt><trkpt lat="45.331982" lon="9.0499677"><ele>101.83333333333333</ele><time>2026-05-03T14:26:40.101Z</time></trkpt><trkpt lat="45.3320285" lon="9.0498787"><ele>101.66666666666666</ele><time>2026-05-03T14:26:41.102Z</time></trkpt><trkpt lat="45.3320847" lon="9.049784"><ele>101.5</ele><time>2026-05-03T14:26:43.103Z</time></trkpt><trkpt lat="45.3321399" lon="9.0496593"><ele>101.33333333333333</ele><time>2026-05-03T14:26:46.102Z</time></trkpt><trkpt lat="45.3321865" lon="9.0495773"><ele>101.16666666666666</ele><time>2026-05-03T14:26:47.102Z</time></trkpt><trkpt lat="45.3322385" lon="9.049493"><ele>101.0</ele><time>2026-05-03T14:26:48.102Z</time></trkpt><trkpt lat="45.3322954" lon="9.0494038"><ele>101.0</ele><time>2026-05-03T14:26:49.103Z</time></trkpt><trkpt lat="45.3323652" lon="9.0493161"><ele>101.0</ele><time>2026-05-03T14:26:50.103Z</time></trkpt><trkpt lat="45.3324338" lon="9.0492272"><ele>101.0</ele><time>2026-05-03T14:26:51.103Z</time></trkpt><trkpt lat="45.3325051" lon="9.0491241"><ele>101.0</ele><time>2026-05-03T14:26:52.102Z</time></trkpt><trkpt lat="45.3325796" lon="9.0490141"><ele>101.0</ele><time>2026-05-03T14:26:53.101Z</time></trkpt><trkpt lat="45.3326534" lon="9.0489007"><ele>101.0</ele><time>2026-05-03T14:26:54.102Z</time></trkpt><trkpt lat="45.3327397" lon="9.0487977"><ele>101.0</ele><time>2026-05-03T14:26:55.103Z</time></trkpt><trkpt lat="45.3328335" lon="9.0487165"><ele>101.0</ele><time>2026-05-03T14:26:56.102Z</time></trkpt><trkpt lat="45.332911" lon="9.0486592"><ele>101.0</ele><time>2026-05-03T14:26:57.101Z</time></trkpt><trkpt lat="45.3329733" lon="9.0486181"><ele>101.0</ele><time>2026-05-03T14:26:58.1Z</time></trkpt><trkpt lat="45.3330532" lon="9.0485815"><ele>101.33333333333333</ele><time>2026-05-03T14:27:00.102Z</time></trkpt><trkpt lat="45.3331228" lon="9.0485197"><ele>101.66666666666666</ele><time>2026-05-03T14:27:36.101Z</time></trkpt><trkpt lat="45.3331905" lon="9.0484798"><ele>102.0</ele><time>2026-05-03T14:27:37.1Z</time></trkpt><trkpt lat="45.3332699" lon="9.0484428"><ele>102.33333333333334</ele><time>2026-05-03T14:27:38.101Z</time></trkpt><trkpt lat="45.3333502" lon="9.0483958"><ele>102.66666666666667</ele><time>2026-05-03T14:27:39.1Z</time></trkpt><trkpt lat="45.3334387" lon="9.0483472"><ele>103.0</ele><time>2026-05-03T14:27:40.102Z</time></trkpt><trkpt lat="45.3335285" lon="9.0482955"><ele>103.00000000000001</ele><time>2026-05-03T14:27:41.1Z</time></trkpt><trkpt lat="45.3336204" lon="9.0482433"><ele>103.0</ele><time>2026-05-03T14:27:42.102Z</time></trkpt><trkpt lat="45.3337115" lon="9.0482468"><ele>103.0</ele><time>2026-05-03T14:27:43.102Z</time></trkpt><trkpt lat="45.3337906" lon="9.0482622"><ele>103.0</ele><time>2026-05-03T14:27:44.101Z</time></trkpt><trkpt lat="45.3338445" lon="9.04833"><ele>103.00000000000001</ele><time>2026-05-03T14:27:45.103Z</time></trkpt><trkpt lat="45.3338783" lon="9.0484308"><ele>103.0</ele><time>2026-05-03T14:27:46.102Z</time></trkpt><trkpt lat="45.3339222" lon="9.048592"><ele>102.50000000000001</ele><time>2026-05-03T14:27:47.102Z</time></trkpt><trkpt lat="45.3339662" lon="9.048734"><ele>102.0</ele><time>2026-05-03T14:27:48.101Z</time></trkpt><trkpt lat="45.3339997" lon="9.0488453"><ele>101.5</ele><time>2026-05-03T14:27:49.101Z</time></trkpt><trkpt lat="45.3340376" lon="9.0489376"><ele>101.0</ele><time>2026-05-03T14:27:50.102Z</time></trkpt><trkpt lat="45.334073" lon="9.0490172"><ele>100.50000000000001</ele><time>2026-05-03T14:27:51.102Z</time></trkpt><trkpt lat="45.3341094" lon="9.0491422"><ele>100.0</ele><time>2026-05-03T14:27:53.64Z</time></trkpt><trkpt lat="45.3341393" lon="9.0492906"><ele>99.83333333333334</ele><time>2026-05-03T14:28:30.098Z</time></trkpt><trkpt lat="45.3341619" lon="9.0494441"><ele>99.66666666666667</ele><time>2026-05-03T14:28:32.098Z</time></trkpt><trkpt lat="45.3341814" lon="9.0495625"><ele>99.5</ele><time>2026-05-03T14:28:34.099Z</time></trkpt><trkpt lat="45.3342303" lon="9.0496496"><ele>99.33333333333334</ele><time>2026-05-03T14:35:58.098Z</time></trkpt><trkpt lat="45.3341657" lon="9.0496136"><ele>99.16666666666667</ele><time>2026-05-03T14:36:13.098Z</time></trkpt><trkpt lat="45.3341025" lon="9.0496195"><ele>99.0</ele><time>2026-05-03T14:36:18.098Z</time></trkpt><trkpt lat="45.3340607" lon="9.0497058"><ele>99.0</ele><time>2026-05-03T14:36:21.099Z</time></trkpt><trkpt lat="45.3339357" lon="9.049886"><ele>99.0</ele><time>2026-05-03T14:36:22.097Z</time></trkpt><trkpt lat="45.3338018" lon="9.0500344"><ele>99.0</ele><time>2026-05-03T14:36:31.098Z</time></trkpt><trkpt lat="45.3341902" lon="9.0495972"><ele>99.0</ele><time>2026-05-03T14:36:33.099Z</time></trkpt><trkpt lat="45.3342483" lon="9.0495489"><ele>99.0</ele><time>2026-05-03T14:36:59.098Z</time></trkpt><trkpt lat="45.3342498" lon="9.0496502"><ele>99.0</ele><time>2026-05-03T14:37:05.022Z</time></trkpt><trkpt lat="45.3342568" lon="9.0495568"><ele>99.0</ele><time>2026-05-03T14:37:10.063Z</time></trkpt><trkpt lat="45.3341984" lon="9.0495208"><ele>99.0</ele><time>2026-05-03T14:37:36.012Z</time></trkpt><trkpt lat="45.3341349" lon="9.0495261"><ele>99.0</ele><time>2026-05-03T14:38:25.098Z</time></trkpt><trkpt lat="45.3340905" lon="9.0494624"><ele>99.0</ele><time>2026-05-03T14:38:47.098Z</time></trkpt><trkpt lat="45.3340239" lon="9.0494487"><ele>99.0</ele><time>2026-05-03T14:51:28.99Z</time></trkpt></trkseg></trk></gpx>